//0
//<Encoding>UTF-8</Encoding>
//File updated on 11/18/2025 14:05
//WMO ID: 4902551
//MBARI ID: ODV4902551
//Data source: 4902551_Sprof.nc
//DAC: meds
//Float type: ARVOR
//
//PLEASE READ:
//Data for this file has been extracted from the Synthetic profiles (*SProf.nc)
//Only RAW data parameters were used
//Missing Float profile(s) for station(s): 15 92 102 103 
//
//Missing data value = -1e10
//Argo to ODV QF conversion: Argo 0|99 => ODV 1, Argo 1|2|8 => ODV 0, Argo 3|5 => ODV 4, Argo 4 => ODV 8
//Data quality flags: 0=Good, 4=Questionable, 8=Bad, 1=Missing or not inspected 
Cruise	Station	Type	mon/day/yr	hh:mm	Lon [°E]	Lat [°N]	QF	Pressure[dbar]	QF	Temperature[°C]	QF	Salinity[pss]	QF	Sigma_theta[kg/m^3]	QF	Depth[m]	QF	Oxygen[µmol/kg]	QF	OxygenSat[%]	QF	Nitrate[µmol/kg]	QF	Chl_a[mg/m^3]	QF	b_bp700[1/m]	QF	CDOM[ppb]	QF	pHinsitu[Total]	QF	CP660[1/m]	QF
4902551	1	C	08/20/2020	09:06	-138.677	49.555	0	0.20	0	15.0190	0	32.1370	0	23.762	0	0.198	0	246.4	4	97.5	4	-1E+10	1	-1E+10	1	-1E+10	1	-1E+10	1	-1E+10	1	-1E+10	1
4902551	1	C	08/20/2020	09:06	-138.677	49.555	0	1.00	0	15.0180	0	32.1380	0	23.763	0	0.991	0	246.3	4	97.5	4	-1E+10	1	-1E+10	1	-1E+10	1	-1E+10	1	-1E+10	1	-1E+10	1
4902551	1	C	08/20/2020	09:06	-138.677	49.555	0	2.10	0	15.0210	0	32.1420	0	23.766	0	2.082	0	246.5	4	97.6	4	-1E+10	1	-1E+10	1	-1E+10	1	-1E+10	1	-1E+10	1	-1E+10	1
4902551	1	C	08/20/2020	09:06	-138.677	49.555	0	2.90	0	15.0230	0	32.1600	0	23.779	0	2.875	0	246.5	4	97.6	4	-1E+10	1	-1E+10	1	-1E+10	1	-1E+10	1	-1E+10	1	-1E+10	1
4902551	1	C	08/20/2020	09:06	-138.677	49.555	0	4.00	0	15.0240	0	32.1630	0	23.781	0	3.966	0	246.5	4	97.6	4	-1E+10	1	-1E+10	1	-1E+10	1	-1E+10	1	-1E+10	1	-1E+10	1
4902551	1	C	08/20/2020	09:06	-138.677	49.555	0	5.10	0	15.0240	0	32.1640	0	23.782	0	5.056	0	246.5	4	97.6	4	-1E+10	1	-1E+10	1	-1E+10	1	-1E+10	1	-1E+10	1	-1E+10	1
4902551	1	C	08/20/2020	09:06	-138.677	49.555	0	6.10	0	15.0240	0	32.1640	0	23.782	0	6.048	0	246.5	4	97.6	4	-1E+10	1	-1E+10	1	-1E+10	1	-1E+10	1	-1E+10	1	-1E+10	1
4902551	1	C	08/20/2020	09:06	-138.677	49.555	0	6.90	0	15.0240	0	32.1640	0	23.782	0	6.841	0	246.5	4	97.6	4	-1E+10	1	-1E+10	1	-1E+10	1	-1E+10	1	-1E+10	1	-1E+10	1
4902551	1	C	08/20/2020	09:06	-138.677	49.555	0	7.80	0	15.0230	0	32.1640	0	23.783	0	7.733	0	246.5	4	97.6	4	-1E+10	1	-1E+10	1	-1E+10	1	-1E+10	1	-1E+10	1	-1E+10	1
4902551	1	C	08/20/2020	09:06	-138.677	49.555	0	9.00	0	15.0240	0	32.1640	0	23.782	0	8.923	0	246.6	4	97.6	4	-1E+10	1	-1E+10	1	-1E+10	1	-1E+10	1	-1E+10	1	-1E+10	1
4902551	1	C	08/20/2020	09:06	-138.677	49.555	0	10.00	0	15.0240	0	32.1640	0	23.782	0	9.914	0	246.5	4	97.6	4	-1E+10	1	-1E+10	1	-1E+10	1	-1E+10	1	-1E+10	1	-1E+10	1
4902551	1	C	08/20/2020	09:06	-138.677	49.555	0	15.60	0	15.0230	0	32.1640	0	23.783	0	15.466	0	247.0	4	97.8	4	-1E+10	1	-1E+10	1	-1E+10	1	-1E+10	1	-1E+10	1	-1E+10	1
4902551	1	C	08/20/2020	09:06	-138.677	49.555	0	25.30	0	14.9220	0	32.1710	0	23.810	0	25.083	0	253.0	4	100.0	4	-1E+10	1	-1E+10	1	-1E+10	1	-1E+10	1	-1E+10	1	-1E+10	1
4902551	1	C	08/20/2020	09:06	-138.677	49.555	0	35.40	0	12.1860	0	32.2960	0	24.456	0	35.095	0	273.3	4	102.2	4	-1E+10	1	-1E+10	1	-1E+10	1	-1E+10	1	-1E+10	1	-1E+10	1
4902551	1	C	08/20/2020	09:06	-138.677	49.555	0	45.40	0	10.4280	0	32.3320	0	24.799	0	45.008	0	271.6	4	97.9	4	-1E+10	1	-1E+10	1	-1E+10	1	-1E+10	1	-1E+10	1	-1E+10	1
4902551	1	C	08/20/2020	09:06	-138.677	49.555	0	55.50	0	8.8980	0	32.3650	0	25.072	0	55.019	0	273.6	4	95.4	4	-1E+10	1	-1E+10	1	-1E+10	1	-1E+10	1	-1E+10	1	-1E+10	1
4902551	1	C	08/20/2020	09:06	-138.677	49.555	0	65.80	0	7.8910	0	32.4020	0	25.251	0	65.228	0	271.5	4	92.6	4	-1E+10	1	-1E+10	1	-1E+10	1	-1E+10	1	-1E+10	1	-1E+10	1
4902551	1	C	08/20/2020	09:06	-138.677	49.555	0	75.30	0	7.2430	0	32.4380	0	25.370	0	74.644	0	265.0	4	89.1	4	-1E+10	1	-1E+10	1	-1E+10	1	-1E+10	1	-1E+10	1	-1E+10	1
4902551	1	C	08/20/2020	09:06	-138.677	49.555	0	85.40	0	6.9960	0	32.4690	0	25.427	0	84.654	0	260.4	4	87.1	4	-1E+10	1	-1E+10	1	-1E+10	1	-1E+10	1	-1E+10	1	-1E+10	1
4902551	1	C	08/20/2020	09:06	-138.677	49.555	0	95.40	0	6.8530	0	32.5090	0	25.478	0	94.564	0	256.3	4	85.5	4	-1E+10	1	-1E+10	1	-1E+10	1	-1E+10	1	-1E+10	1	-1E+10	1
4902551	1	C	08/20/2020	09:06	-138.677	49.555	0	106.00	0	6.6690	0	32.6360	0	25.602	0	105.069	0	229.2	4	76.2	4	-1E+10	1	-1E+10	1	-1E+10	1	-1E+10	1	-1E+10	1	-1E+10	1
4902551	1	C	08/20/2020	09:06	-138.677	49.555	0	115.20	0	6.5320	0	33.0410	0	25.939	0	114.185	0	187.8	4	62.4	4	-1E+10	1	-1E+10	1	-1E+10	1	-1E+10	1	-1E+10	1	-1E+10	1
4902551	1	C	08/20/2020	09:06	-138.677	49.555	0	125.30	0	6.2850	0	33.3120	0	26.185	0	124.193	0	175.3	4	58.0	4	-1E+10	1	-1E+10	1	-1E+10	1	-1E+10	1	-1E+10	1	-1E+10	1
4902551	1	C	08/20/2020	09:06	-138.677	49.555	0	135.60	0	6.1490	0	33.4330	0	26.297	0	134.399	0	164.2	4	54.3	4	-1E+10	1	-1E+10	1	-1E+10	1	-1E+10	1	-1E+10	1	-1E+10	1
4902551	1	C	08/20/2020	09:06	-138.677	49.555	0	145.60	0	6.0560	0	33.5500	0	26.402	0	144.307	0	150.5	4	49.7	4	-1E+10	1	-1E+10	1	-1E+10	1	-1E+10	1	-1E+10	1	-1E+10	1
4902551	1	C	08/20/2020	09:06	-138.677	49.555	0	155.70	0	5.9950	0	33.6620	0	26.498	0	154.313	0	139.5	4	46.0	4	-1E+10	1	-1E+10	1	-1E+10	1	-1E+10	1	-1E+10	1	-1E+10	1
4902551	1	C	08/20/2020	09:06	-138.677	49.555	0	165.90	0	6.0090	0	33.7360	0	26.555	0	164.418	0	129.8	4	42.8	4	-1E+10	1	-1E+10	1	-1E+10	1	-1E+10	1	-1E+10	1	-1E+10	1
4902551	1	C	08/20/2020	09:06	-138.677	49.555	0	175.50	0	5.9050	0	33.7790	0	26.602	0	173.929	0	123.7	4	40.7	4	-1E+10	1	-1E+10	1	-1E+10	1	-1E+10	1	-1E+10	1	-1E+10	1
4902551	1	C	08/20/2020	09:06	-138.677	49.555	0	185.40	0	5.7970	0	33.8060	0	26.636	0	183.736	0	117.0	4	38.5	4	-1E+10	1	-1E+10	1	-1E+10	1	-1E+10	1	-1E+10	1	-1E+10	1
4902551	1	C	08/20/2020	09:06	-138.677	49.555	0	195.20	0	5.6220	0	33.8210	0	26.670	0	193.443	0	113.2	4	37.0	4	-1E+10	1	-1E+10	1	-1E+10	1	-1E+10	1	-1E+10	1	-1E+10	1
4902551	1	C	08/20/2020	09:06	-138.677	49.555	0	212.70	0	5.4080	0	33.8270	0	26.700	0	210.777	0	108.1	4	35.2	4	-1E+10	1	-1E+10	1	-1E+10	1	-1E+10	1	-1E+10	1	-1E+10	1
4902551	1	C	08/20/2020	09:06	-138.677	49.555	0	237.90	0	5.1650	0	33.8400	0	26.739	0	235.734	0	96.4	4	31.2	4	-1E+10	1	-1E+10	1	-1E+10	1	-1E+10	1	-1E+10	1	-1E+10	1
4902551	1	C	08/20/2020	09:06	-138.677	49.555	0	262.80	0	4.9900	0	33.8610	0	26.776	0	260.392	0	85.2	4	27.5	4	-1E+10	1	-1E+10	1	-1E+10	1	-1E+10	1	-1E+10	1	-1E+10	1
4902551	1	C	08/20/2020	09:06	-138.677	49.555	0	287.50	0	4.8110	0	33.8840	0	26.814	0	284.849	0	73.9	4	23.7	4	-1E+10	1	-1E+10	1	-1E+10	1	-1E+10	1	-1E+10	1	-1E+10	1
4902551	1	C	08/20/2020	09:06	-138.677	49.555	0	313.30	0	4.6490	0	33.9120	0	26.855	0	310.391	0	64.0	4	20.5	4	-1E+10	1	-1E+10	1	-1E+10	1	-1E+10	1	-1E+10	1	-1E+10	1
4902551	1	C	08/20/2020	09:06	-138.677	49.555	0	337.70	0	4.5380	0	33.9380	0	26.888	0	334.545	0	57.1	4	18.2	4	-1E+10	1	-1E+10	1	-1E+10	1	-1E+10	1	-1E+10	1	-1E+10	1
4902551	1	C	08/20/2020	09:06	-138.677	49.555	0	362.80	0	4.4730	0	33.9630	0	26.915	0	359.389	0	50.0	4	15.9	4	-1E+10	1	-1E+10	1	-1E+10	1	-1E+10	1	-1E+10	1	-1E+10	1
4902551	1	C	08/20/2020	09:06	-138.677	49.555	0	387.80	0	4.4360	0	33.9900	0	26.940	0	384.131	0	43.3	4	13.8	4	-1E+10	1	-1E+10	1	-1E+10	1	-1E+10	1	-1E+10	1	-1E+10	1
4902551	1	C	08/20/2020	09:06	-138.677	49.555	0	412.90	0	4.3700	0	34.0120	0	26.965	0	408.969	0	39.6	4	12.6	4	-1E+10	1	-1E+10	1	-1E+10	1	-1E+10	1	-1E+10	1	-1E+10	1
4902551	1	C	08/20/2020	09:06	-138.677	49.555	0	438.10	0	4.2710	0	34.0290	0	26.989	0	433.902	0	38.6	4	12.2	4	-1E+10	1	-1E+10	1	-1E+10	1	-1E+10	1	-1E+10	1	-1E+10	1
4902551	1	C	08/20/2020	09:06	-138.677	49.555	0	463.20	0	4.2240	0	34.0470	0	27.008	0	458.734	0	33.9	4	10.8	4	-1E+10	1	-1E+10	1	-1E+10	1	-1E+10	1	-1E+10	1	-1E+10	1
4902551	1	C	08/20/2020	09:06	-138.677	49.555	0	487.60	0	4.1730	0	34.0680	0	27.031	0	482.870	0	30.4	4	9.6	4	-1E+10	1	-1E+10	1	-1E+10	1	-1E+10	1	-1E+10	1	-1E+10	1
4902551	1	C	08/20/2020	09:06	-138.677	49.555	0	512.60	0	4.1180	0	34.0910	0	27.055	0	507.597	0	27.5	4	8.7	4	-1E+10	1	-1E+10	1	-1E+10	1	-1E+10	1	-1E+10	1	-1E+10	1
4902551	1	C	08/20/2020	09:06	-138.677	49.555	0	537.70	0	4.0610	0	34.1120	0	27.078	0	532.420	0	25.6	4	8.1	4	-1E+10	1	-1E+10	1	-1E+10	1	-1E+10	1	-1E+10	1	-1E+10	1
4902551	1	C	08/20/2020	09:06	-138.677	49.555	0	562.50	0	3.9980	0	34.1300	0	27.099	0	556.944	0	23.3	4	7.4	4	-1E+10	1	-1E+10	1	-1E+10	1	-1E+10	1	-1E+10	1	-1E+10	1
4902551	1	C	08/20/2020	09:06	-138.677	49.555	0	588.00	0	3.9310	0	34.1470	0	27.119	0	582.156	0	22.3	4	7.0	4	-1E+10	1	-1E+10	1	-1E+10	1	-1E+10	1	-1E+10	1	-1E+10	1
4902551	1	C	08/20/2020	09:06	-138.677	49.555	0	612.60	0	3.8840	0	34.1610	0	27.135	0	606.476	0	20.5	4	6.5	4	-1E+10	1	-1E+10	1	-1E+10	1	-1E+10	1	-1E+10	1	-1E+10	1
4902551	1	C	08/20/2020	09:06	-138.677	49.555	0	637.60	0	3.8490	0	34.1840	0	27.157	0	631.188	0	17.4	4	5.5	4	-1E+10	1	-1E+10	1	-1E+10	1	-1E+10	1	-1E+10	1	-1E+10	1
4902551	1	C	08/20/2020	09:06	-138.677	49.555	0	663.00	0	3.7700	0	34.2030	0	27.180	0	656.293	0	16.9	4	5.3	4	-1E+10	1	-1E+10	1	-1E+10	1	-1E+10	1	-1E+10	1	-1E+10	1
4902551	1	C	08/20/2020	09:06	-138.677	49.555	0	688.20	0	3.6920	0	34.2140	0	27.197	0	681.196	0	16.9	4	5.3	4	-1E+10	1	-1E+10	1	-1E+10	1	-1E+10	1	-1E+10	1	-1E+10	1
4902551	1	C	08/20/2020	09:06	-138.677	49.555	0	712.90	0	3.6350	0	34.2300	0	27.215	0	705.603	0	15.5	4	4.9	4	-1E+10	1	-1E+10	1	-1E+10	1	-1E+10	1	-1E+10	1	-1E+10	1
4902551	1	C	08/20/2020	09:06	-138.677	49.555	0	737.70	0	3.5710	0	34.2510	0	27.238	0	730.106	0	14.3	4	4.5	4	-1E+10	1	-1E+10	1	-1E+10	1	-1E+10	1	-1E+10	1	-1E+10	1
4902551	1	C	08/20/2020	09:06	-138.677	49.555	0	762.60	0	3.5110	0	34.2640	0	27.255	0	754.705	0	14.0	4	4.4	4	-1E+10	1	-1E+10	1	-1E+10	1	-1E+10	1	-1E+10	1	-1E+10	1
4902551	1	C	08/20/2020	09:06	-138.677	49.555	0	787.70	0	3.4520	0	34.2750	0	27.269	0	779.498	0	13.9	4	4.3	4	-1E+10	1	-1E+10	1	-1E+10	1	-1E+10	1	-1E+10	1	-1E+10	1
4902551	1	C	08/20/2020	09:06	-138.677	49.555	0	813.20	0	3.3950	0	34.2860	0	27.284	0	804.683	0	13.7	4	4.3	4	-1E+10	1	-1E+10	1	-1E+10	1	-1E+10	1	-1E+10	1	-1E+10	1
4902551	1	C	08/20/2020	09:06	-138.677	49.555	0	837.60	0	3.3280	0	34.2980	0	27.300	0	828.779	0	13.5	4	4.2	4	-1E+10	1	-1E+10	1	-1E+10	1	-1E+10	1	-1E+10	1	-1E+10	1
4902551	1	C	08/20/2020	09:06	-138.677	49.555	0	862.90	0	3.2660	0	34.3100	0	27.315	0	853.761	0	13.2	4	4.1	4	-1E+10	1	-1E+10	1	-1E+10	1	-1E+10	1	-1E+10	1	-1E+10	1
4902551	1	C	08/20/2020	09:06	-138.677	49.555	0	887.60	0	3.2320	0	34.3180	0	27.325	0	878.148	0	12.9	4	4.0	4	-1E+10	1	-1E+10	1	-1E+10	1	-1E+10	1	-1E+10	1	-1E+10	1
4902551	1	C	08/20/2020	09:06	-138.677	49.555	0	912.60	0	3.1920	0	34.3260	0	27.335	0	902.828	0	12.6	4	3.9	4	-1E+10	1	-1E+10	1	-1E+10	1	-1E+10	1	-1E+10	1	-1E+10	1
4902551	1	C	08/20/2020	09:06	-138.677	49.555	0	937.90	0	3.1380	0	34.3380	0	27.350	0	927.801	0	12.3	4	3.8	4	-1E+10	1	-1E+10	1	-1E+10	1	-1E+10	1	-1E+10	1	-1E+10	1
4902551	1	C	08/20/2020	09:06	-138.677	49.555	0	963.10	0	3.1060	0	34.3450	0	27.359	0	952.672	0	12.2	4	3.8	4	-1E+10	1	-1E+10	1	-1E+10	1	-1E+10	1	-1E+10	1	-1E+10	1
4902551	1	C	08/20/2020	09:06	-138.677	49.555	0	987.80	0	3.0640	0	34.3530	0	27.369	0	977.047	0	12.2	4	3.8	4	-1E+10	1	-1E+10	1	-1E+10	1	-1E+10	1	-1E+10	1	-1E+10	1
4902551	1	C	08/20/2020	09:06	-138.677	49.555	0	1012.80	0	3.0230	0	34.3610	0	27.379	0	1001.715	0	12.1	4	3.7	4	-1E+10	1	-1E+10	1	-1E+10	1	-1E+10	1	-1E+10	1	-1E+10	1
4902551	1	C	08/20/2020	09:06	-138.677	49.555	0	1038.40	0	2.9860	0	34.3690	0	27.389	0	1026.973	0	12.1	4	3.7	4	-1E+10	1	-1E+10	1	-1E+10	1	-1E+10	1	-1E+10	1	-1E+10	1
4902551	1	C	08/20/2020	09:06	-138.677	49.555	0	1062.80	0	2.9420	0	34.3780	0	27.400	0	1051.043	0	12.0	4	3.7	4	-1E+10	1	-1E+10	1	-1E+10	1	-1E+10	1	-1E+10	1	-1E+10	1
4902551	1	C	08/20/2020	09:06	-138.677	49.555	0	1087.70	0	2.8960	0	34.3870	0	27.412	0	1075.604	0	12.0	4	3.7	4	-1E+10	1	-1E+10	1	-1E+10	1	-1E+10	1	-1E+10	1	-1E+10	1
4902551	1	C	08/20/2020	09:06	-138.677	49.555	0	1113.00	0	2.8590	0	34.3950	0	27.422	0	1100.556	0	12.0	4	3.7	4	-1E+10	1	-1E+10	1	-1E+10	1	-1E+10	1	-1E+10	1	-1E+10	1
4902551	1	C	08/20/2020	09:06	-138.677	49.555	0	1138.00	0	2.8310	0	34.4010	0	27.429	0	1125.210	0	12.0	4	3.7	4	-1E+10	1	-1E+10	1	-1E+10	1	-1E+10	1	-1E+10	1	-1E+10	1
4902551	1	C	08/20/2020	09:06	-138.677	49.555	0	1163.00	0	2.7920	0	34.4080	0	27.438	0	1149.860	0	12.2	4	3.7	4	-1E+10	1	-1E+10	1	-1E+10	1	-1E+10	1	-1E+10	1	-1E+10	1
4902551	1	C	08/20/2020	09:06	-138.677	49.555	0	1188.00	0	2.7500	0	34.4170	0	27.449	0	1174.508	0	12.2	4	3.7	4	-1E+10	1	-1E+10	1	-1E+10	1	-1E+10	1	-1E+10	1	-1E+10	1
4902551	1	C	08/20/2020	09:06	-138.677	49.555	0	1213.60	0	2.7060	0	34.4260	0	27.460	0	1199.744	0	12.4	4	3.8	4	-1E+10	1	-1E+10	1	-1E+10	1	-1E+10	1	-1E+10	1	-1E+10	1
4902551	1	C	08/20/2020	09:06	-138.677	49.555	0	1237.70	0	2.6720	0	34.4330	0	27.469	0	1223.499	0	12.7	4	3.9	4	-1E+10	1	-1E+10	1	-1E+10	1	-1E+10	1	-1E+10	1	-1E+10	1
4902551	1	C	08/20/2020	09:06	-138.677	49.555	0	1262.90	0	2.6390	0	34.4390	0	27.477	0	1248.335	0	13.2	4	4.0	4	-1E+10	1	-1E+10	1	-1E+10	1	-1E+10	1	-1E+10	1	-1E+10	1
4902551	1	C	08/20/2020	09:06	-138.677	49.555	0	1287.90	0	2.6150	0	34.4440	0	27.483	0	1272.971	0	13.5	4	4.1	4	-1E+10	1	-1E+10	1	-1E+10	1	-1E+10	1	-1E+10	1	-1E+10	1
4902551	1	C	08/20/2020	09:06	-138.677	49.555	0	1312.80	0	2.5850	0	34.4500	0	27.490	0	1297.506	0	13.8	4	4.2	4	-1E+10	1	-1E+10	1	-1E+10	1	-1E+10	1	-1E+10	1	-1E+10	1
4902551	1	C	08/20/2020	09:06	-138.677	49.555	0	1337.70	0	2.5570	0	34.4550	0	27.497	0	1322.038	0	14.1	4	4.3	4	-1E+10	1	-1E+10	1	-1E+10	1	-1E+10	1	-1E+10	1	-1E+10	1
4902551	1	C	08/20/2020	09:06	-138.677	49.555	0	1362.80	0	2.5260	0	34.4610	0	27.504	0	1346.764	0	14.6	4	4.5	4	-1E+10	1	-1E+10	1	-1E+10	1	-1E+10	1	-1E+10	1	-1E+10	1
4902551	1	C	08/20/2020	09:06	-138.677	49.555	0	1387.90	0	2.4960	0	34.4680	0	27.513	0	1371.487	0	15.3	4	4.7	4	-1E+10	1	-1E+10	1	-1E+10	1	-1E+10	1	-1E+10	1	-1E+10	1
4902551	1	C	08/20/2020	09:06	-138.677	49.555	0	1412.70	0	2.4650	0	34.4740	0	27.520	0	1395.912	0	16.0	4	4.9	4	-1E+10	1	-1E+10	1	-1E+10	1	-1E+10	1	-1E+10	1	-1E+10	1
4902551	1	C	08/20/2020	09:06	-138.677	49.555	0	1437.90	0	2.4370	0	34.4800	0	27.528	0	1420.727	0	16.6	4	5.1	4	-1E+10	1	-1E+10	1	-1E+10	1	-1E+10	1	-1E+10	1	-1E+10	1
4902551	1	C	08/20/2020	09:06	-138.677	49.555	0	1463.40	0	2.4120	0	34.4880	0	27.536	0	1445.836	0	17.5	4	5.3	4	-1E+10	1	-1E+10	1	-1E+10	1	-1E+10	1	-1E+10	1	-1E+10	1
4902551	1	C	08/20/2020	09:06	-138.677	49.555	0	1488.00	0	2.3850	0	34.4920	0	27.542	0	1470.055	0	18.4	4	5.6	4	-1E+10	1	-1E+10	1	-1E+10	1	-1E+10	1	-1E+10	1	-1E+10	1
4902551	1	C	08/20/2020	09:06	-138.677	49.555	0	1512.90	0	2.3700	0	34.4970	0	27.547	0	1494.567	0	19.2	4	5.8	4	-1E+10	1	-1E+10	1	-1E+10	1	-1E+10	1	-1E+10	1	-1E+10	1
4902551	1	C	08/20/2020	09:06	-138.677	49.555	0	1538.10	0	2.3430	0	34.4990	0	27.551	0	1519.371	0	20.4	4	6.2	4	-1E+10	1	-1E+10	1	-1E+10	1	-1E+10	1	-1E+10	1	-1E+10	1
4902551	1	C	08/20/2020	09:06	-138.677	49.555	0	1563.00	0	2.3190	0	34.5050	0	27.558	0	1543.877	0	21.6	4	6.6	4	-1E+10	1	-1E+10	1	-1E+10	1	-1E+10	1	-1E+10	1	-1E+10	1
4902551	1	C	08/20/2020	09:06	-138.677	49.555	0	1587.70	0	2.2910	0	34.5100	0	27.564	0	1568.183	0	23.1	4	7.0	4	-1E+10	1	-1E+10	1	-1E+10	1	-1E+10	1	-1E+10	1	-1E+10	1
4902551	1	C	08/20/2020	09:06	-138.677	49.555	0	1613.00	0	2.2620	0	34.5150	0	27.571	0	1593.077	0	24.6	4	7.5	4	-1E+10	1	-1E+10	1	-1E+10	1	-1E+10	1	-1E+10	1	-1E+10	1
4902551	1	C	08/20/2020	09:06	-138.677	49.555	0	1638.10	0	2.2370	0	34.5200	0	27.577	0	1617.771	0	26.1	4	7.9	4	-1E+10	1	-1E+10	1	-1E+10	1	-1E+10	1	-1E+10	1	-1E+10	1
4902551	1	C	08/20/2020	09:06	-138.677	49.555	0	1663.60	0	2.2170	0	34.5270	0	27.584	0	1642.856	0	27.5	4	8.3	4	-1E+10	1	-1E+10	1	-1E+10	1	-1E+10	1	-1E+10	1	-1E+10	1
4902551	1	C	08/20/2020	09:06	-138.677	49.555	0	1688.00	0	2.1940	0	34.5340	0	27.592	0	1666.856	0	29.3	4	8.9	4	-1E+10	1	-1E+10	1	-1E+10	1	-1E+10	1	-1E+10	1	-1E+10	1
4902551	1	C	08/20/2020	09:06	-138.677	49.555	0	1713.10	0	2.1710	0	34.5390	0	27.598	0	1691.541	0	30.8	4	9.3	4	-1E+10	1	-1E+10	1	-1E+10	1	-1E+10	1	-1E+10	1	-1E+10	1
4902551	1	C	08/20/2020	09:06	-138.677	49.555	0	1738.20	0	2.1510	0	34.5420	0	27.602	0	1716.224	0	32.3	4	9.8	4	-1E+10	1	-1E+10	1	-1E+10	1	-1E+10	1	-1E+10	1	-1E+10	1
4902551	1	C	08/20/2020	09:06	-138.677	49.555	0	1763.20	0	2.1330	0	34.5460	0	27.607	0	1740.805	0	33.8	4	10.2	4	-1E+10	1	-1E+10	1	-1E+10	1	-1E+10	1	-1E+10	1	-1E+10	1
4902551	1	C	08/20/2020	09:06	-138.677	49.555	0	1787.80	0	2.1110	0	34.5510	0	27.613	0	1764.991	0	35.4	4	10.7	4	-1E+10	1	-1E+10	1	-1E+10	1	-1E+10	1	-1E+10	1	-1E+10	1
4902551	1	C	08/20/2020	09:06	-138.677	49.555	0	1813.00	0	2.0930	0	34.5540	0	27.617	0	1789.763	0	36.7	4	11.1	4	-1E+10	1	-1E+10	1	-1E+10	1	-1E+10	1	-1E+10	1	-1E+10	1
4902551	1	C	08/20/2020	09:06	-138.677	49.555	0	1838.00	0	2.0720	0	34.5580	0	27.622	0	1814.336	0	38.4	4	11.6	4	-1E+10	1	-1E+10	1	-1E+10	1	-1E+10	1	-1E+10	1	-1E+10	1
4902551	1	C	08/20/2020	09:06	-138.677	49.555	0	1863.00	0	2.0510	0	34.5610	0	27.626	0	1838.906	0	39.9	4	12.1	4	-1E+10	1	-1E+10	1	-1E+10	1	-1E+10	1	-1E+10	1	-1E+10	1
4902551	1	C	08/20/2020	09:06	-138.677	49.555	0	1888.00	0	2.0300	0	34.5650	0	27.631	0	1863.473	0	41.7	4	12.6	4	-1E+10	1	-1E+10	1	-1E+10	1	-1E+10	1	-1E+10	1	-1E+10	1
4902551	1	C	08/20/2020	09:06	-138.677	49.555	0	1913.90	0	2.0060	0	34.5690	0	27.636	0	1888.922	0	43.4	4	13.1	4	-1E+10	1	-1E+10	1	-1E+10	1	-1E+10	1	-1E+10	1	-1E+10	1
4902551	1	C	08/20/2020	09:06	-138.677	49.555	0	1938.10	0	1.9870	0	34.5730	0	27.641	0	1912.697	0	45.2	4	13.6	4	-1E+10	1	-1E+10	1	-1E+10	1	-1E+10	1	-1E+10	1	-1E+10	1
4902551	1	C	08/20/2020	09:06	-138.677	49.555	0	1962.70	0	1.9670	0	34.5760	0	27.645	0	1936.863	0	46.7	4	14.1	4	-1E+10	1	-1E+10	1	-1E+10	1	-1E+10	1	-1E+10	1	-1E+10	1
4902551	1	C	08/20/2020	09:06	-138.677	49.555	0	1987.60	0	1.9540	0	34.5790	0	27.648	0	1961.321	0	47.9	4	14.4	4	-1E+10	1	-1E+10	1	-1E+10	1	-1E+10	1	-1E+10	1	-1E+10	1
4902551	1	C	08/20/2020	09:06	-138.677	49.555	0	2008.50	0	1.9420	0	34.5800	0	27.650	0	1981.847	0	48.6	4	14.6	4	-1E+10	1	-1E+10	1	-1E+10	1	-1E+10	1	-1E+10	1	-1E+10	1
4902551	1	C	08/20/2020	09:06	-138.677	49.555	0																										
4902551	2	C	08/30/2020	09:02	-138.523	49.567	0	0.20	0	14.9460	0	32.1750	0	23.807	0	0.198	0	246.9	4	97.6	4	-1E+10	1	-1E+10	1	-1E+10	1	-1E+10	1	-1E+10	1	-1E+10	1
4902551	2	C	08/30/2020	09:02	-138.523	49.567	0	0.80	0	14.9460	0	32.1750	0	23.807	0	0.793	0	246.8	4	97.6	4	-1E+10	1	-1E+10	1	-1E+10	1	-1E+10	1	-1E+10	1	-1E+10	1
4902551	2	C	08/30/2020	09:02	-138.523	49.567	0	1.80	0	14.9460	0	32.1750	0	23.807	0	1.785	0	246.8	4	97.6	4	-1E+10	1	-1E+10	1	-1E+10	1	-1E+10	1	-1E+10	1	-1E+10	1
4902551	2	C	08/30/2020	09:02	-138.523	49.567	0	3.10	0	14.9460	0	32.1770	0	23.809	0	3.074	0	246.9	4	97.6	4	-1E+10	1	-1E+10	1	-1E+10	1	-1E+10	1	-1E+10	1	-1E+10	1
4902551	2	C	08/30/2020	09:02	-138.523	49.567	0	4.10	0	14.9470	0	32.1770	0	23.809	0	4.065	0	246.9	4	97.6	4	-1E+10	1	-1E+10	1	-1E+10	1	-1E+10	1	-1E+10	1	-1E+10	1
4902551	2	C	08/30/2020	09:02	-138.523	49.567	0	4.90	0	14.9470	0	32.1780	0	23.810	0	4.858	0	246.8	4	97.6	4	-1E+10	1	-1E+10	1	-1E+10	1	-1E+10	1	-1E+10	1	-1E+10	1
4902551	2	C	08/30/2020	09:02	-138.523	49.567	0	6.00	0	14.9470	0	32.1780	0	23.810	0	5.949	0	246.8	4	97.6	4	-1E+10	1	-1E+10	1	-1E+10	1	-1E+10	1	-1E+10	1	-1E+10	1
4902551	2	C	08/30/2020	09:02	-138.523	49.567	0	7.00	0	14.9470	0	32.1780	0	23.810	0	6.940	0	246.8	4	97.6	4	-1E+10	1	-1E+10	1	-1E+10	1	-1E+10	1	-1E+10	1	-1E+10	1
4902551	2	C	08/30/2020	09:02	-138.523	49.567	0	8.00	0	14.9460	0	32.1780	0	23.810	0	7.932	0	246.8	4	97.6	4	-1E+10	1	-1E+10	1	-1E+10	1	-1E+10	1	-1E+10	1	-1E+10	1
4902551	2	C	08/30/2020	09:02	-138.523	49.567	0	9.10	0	14.9460	0	32.1780	0	23.810	0	9.022	0	246.8	4	97.6	4	-1E+10	1	-1E+10	1	-1E+10	1	-1E+10	1	-1E+10	1	-1E+10	1
4902551	2	C	08/30/2020	09:02	-138.523	49.567	0	9.90	0	14.9460	0	32.1780	0	23.810	0	9.815	0	246.9	4	97.6	4	-1E+10	1	-1E+10	1	-1E+10	1	-1E+10	1	-1E+10	1	-1E+10	1
4902551	2	C	08/30/2020	09:02	-138.523	49.567	0	15.30	0	14.9480	0	32.1780	0	23.810	0	15.169	0	247.2	4	97.7	4	-1E+10	1	-1E+10	1	-1E+10	1	-1E+10	1	-1E+10	1	-1E+10	1
4902551	2	C	08/30/2020	09:02	-138.523	49.567	0	25.40	0	14.6080	0	32.1900	0	23.891	0	25.182	0	253.1	4	99.4	4	-1E+10	1	-1E+10	1	-1E+10	1	-1E+10	1	-1E+10	1	-1E+10	1
4902551	2	C	08/30/2020	09:02	-138.523	49.567	0	35.10	0	11.4730	0	32.2900	0	24.583	0	34.798	0	268.8	4	99.1	4	-1E+10	1	-1E+10	1	-1E+10	1	-1E+10	1	-1E+10	1	-1E+10	1
4902551	2	C	08/30/2020	09:02	-138.523	49.567	0	45.30	0	9.4710	0	32.3420	0	24.964	0	44.908	0	269.3	4	95.1	4	-1E+10	1	-1E+10	1	-1E+10	1	-1E+10	1	-1E+10	1	-1E+10	1
4902551	2	C	08/30/2020	09:02	-138.523	49.567	0	55.70	0	8.3590	0	32.3790	0	25.165	0	55.217	0	269.0	4	92.7	4	-1E+10	1	-1E+10	1	-1E+10	1	-1E+10	1	-1E+10	1	-1E+10	1
4902551	2	C	08/30/2020	09:02	-138.523	49.567	0	65.70	0	7.6350	0	32.4110	0	25.294	0	65.129	0	265.5	4	90.1	4	-1E+10	1	-1E+10	1	-1E+10	1	-1E+10	1	-1E+10	1	-1E+10	1
4902551	2	C	08/30/2020	09:02	-138.523	49.567	0	75.10	0	7.3040	0	32.4430	0	25.365	0	74.446	0	263.1	4	88.6	4	-1E+10	1	-1E+10	1	-1E+10	1	-1E+10	1	-1E+10	1	-1E+10	1
4902551	2	C	08/30/2020	09:02	-138.523	49.567	0	86.00	0	6.8510	0	32.4750	0	25.451	0	85.248	0	258.5	4	86.2	4	-1E+10	1	-1E+10	1	-1E+10	1	-1E+10	1	-1E+10	1	-1E+10	1
4902551	2	C	08/30/2020	09:02	-138.523	49.567	0	95.20	0	6.5530	0	32.5750	0	25.569	0	94.366	0	243.3	4	80.6	4	-1E+10	1	-1E+10	1	-1E+10	1	-1E+10	1	-1E+10	1	-1E+10	1
4902551	2	C	08/30/2020	09:02	-138.523	49.567	0	105.80	0	6.5840	0	32.7190	0	25.678	0	104.870	0	217.7	4	72.3	4	-1E+10	1	-1E+10	1	-1E+10	1	-1E+10	1	-1E+10	1	-1E+10	1
4902551	2	C	08/30/2020	09:02	-138.523	49.567	0	115.30	0	6.5440	0	32.9940	0	25.900	0	114.284	0	189.8	4	63.1	4	-1E+10	1	-1E+10	1	-1E+10	1	-1E+10	1	-1E+10	1	-1E+10	1
4902551	2	C	08/30/2020	09:02	-138.523	49.567	0	125.60	0	6.3380	0	33.2810	0	26.153	0	124.490	0	173.1	4	57.4	4	-1E+10	1	-1E+10	1	-1E+10	1	-1E+10	1	-1E+10	1	-1E+10	1
4902551	2	C	08/30/2020	09:02	-138.523	49.567	0	135.40	0	6.2390	0	33.4030	0	26.262	0	134.201	0	162.5	4	53.8	4	-1E+10	1	-1E+10	1	-1E+10	1	-1E+10	1	-1E+10	1	-1E+10	1
4902551	2	C	08/30/2020	09:02	-138.523	49.567	0	145.10	0	6.1050	0	33.5300	0	26.380	0	143.811	0	155.2	4	51.3	4	-1E+10	1	-1E+10	1	-1E+10	1	-1E+10	1	-1E+10	1	-1E+10	1
4902551	2	C	08/30/2020	09:02	-138.523	49.567	0	155.30	0	6.0270	0	33.6030	0	26.447	0	153.917	0	147.2	4	48.6	4	-1E+10	1	-1E+10	1	-1E+10	1	-1E+10	1	-1E+10	1	-1E+10	1
4902551	2	C	08/30/2020	09:02	-138.523	49.567	0	165.00	0	6.0150	0	33.6750	0	26.506	0	163.527	0	136.7	4	45.1	4	-1E+10	1	-1E+10	1	-1E+10	1	-1E+10	1	-1E+10	1	-1E+10	1
4902551	2	C	08/30/2020	09:02	-138.523	49.567	0	175.20	0	6.0250	0	33.7460	0	26.561	0	173.631	0	128.1	4	42.3	4	-1E+10	1	-1E+10	1	-1E+10	1	-1E+10	1	-1E+10	1	-1E+10	1
4902551	2	C	08/30/2020	09:02	-138.523	49.567	0	185.50	0	5.9740	0	33.7840	0	26.597	0	183.834	0	122.5	4	40.4	4	-1E+10	1	-1E+10	1	-1E+10	1	-1E+10	1	-1E+10	1	-1E+10	1
4902551	2	C	08/30/2020	09:02	-138.523	49.567	0	195.40	0	5.8350	0	33.8050	0	26.631	0	193.641	0	119.0	4	39.1	4	-1E+10	1	-1E+10	1	-1E+10	1	-1E+10	1	-1E+10	1	-1E+10	1
4902551	2	C	08/30/2020	09:02	-138.523	49.567	0	213.00	0	5.6820	0	33.8170	0	26.659	0	211.073	0	114.2	4	37.4	4	-1E+10	1	-1E+10	1	-1E+10	1	-1E+10	1	-1E+10	1	-1E+10	1
4902551	2	C	08/30/2020	09:02	-138.523	49.567	0	237.90	0	5.3540	0	33.8320	0	26.711	0	235.734	0	101.9	4	33.1	4	-1E+10	1	-1E+10	1	-1E+10	1	-1E+10	1	-1E+10	1	-1E+10	1
4902551	2	C	08/30/2020	09:02	-138.523	49.567	0	262.80	0	5.0140	0	33.8520	0	26.766	0	260.392	0	88.5	4	28.6	4	-1E+10	1	-1E+10	1	-1E+10	1	-1E+10	1	-1E+10	1	-1E+10	1
4902551	2	C	08/30/2020	09:02	-138.523	49.567	0	288.70	0	4.8060	0	33.8850	0	26.816	0	286.036	0	74.2	4	23.8	4	-1E+10	1	-1E+10	1	-1E+10	1	-1E+10	1	-1E+10	1	-1E+10	1
4902551	2	C	08/30/2020	09:02	-138.523	49.567	0	312.50	0	4.7060	0	33.9030	0	26.841	0	309.599	0	66.2	4	21.2	4	-1E+10	1	-1E+10	1	-1E+10	1	-1E+10	1	-1E+10	1	-1E+10	1
4902551	2	C	08/30/2020	09:02	-138.523	49.567	0	337.40	0	4.6380	0	33.9290	0	26.870	0	334.248	0	58.1	4	18.6	4	-1E+10	1	-1E+10	1	-1E+10	1	-1E+10	1	-1E+10	1	-1E+10	1
4902551	2	C	08/30/2020	09:02	-138.523	49.567	0	362.70	0	4.5330	0	33.9480	0	26.896	0	359.290	0	54.1	4	17.3	4	-1E+10	1	-1E+10	1	-1E+10	1	-1E+10	1	-1E+10	1	-1E+10	1
4902551	2	C	08/30/2020	09:02	-138.523	49.567	0	387.90	0	4.4560	0	33.9700	0	26.922	0	384.229	0	48.1	4	15.3	4	-1E+10	1	-1E+10	1	-1E+10	1	-1E+10	1	-1E+10	1	-1E+10	1
4902551	2	C	08/30/2020	09:02	-138.523	49.567	0	413.00	0	4.4120	0	33.9980	0	26.949	0	409.067	0	42.2	4	13.4	4	-1E+10	1	-1E+10	1	-1E+10	1	-1E+10	1	-1E+10	1	-1E+10	1
4902551	2	C	08/30/2020	09:02	-138.523	49.567	0	438.00	0	4.3120	0	34.0200	0	26.978	0	433.803	0	39.0	4	12.4	4	-1E+10	1	-1E+10	1	-1E+10	1	-1E+10	1	-1E+10	1	-1E+10	1
4902551	2	C	08/30/2020	09:02	-138.523	49.567	0	463.10	0	4.2270	0	34.0480	0	27.009	0	458.635	0	34.1	4	10.8	4	-1E+10	1	-1E+10	1	-1E+10	1	-1E+10	1	-1E+10	1	-1E+10	1
4902551	2	C	08/30/2020	09:02	-138.523	49.567	0	488.70	0	4.1520	0	34.0740	0	27.038	0	483.958	0	30.0	4	9.5	4	-1E+10	1	-1E+10	1	-1E+10	1	-1E+10	1	-1E+10	1	-1E+10	1
4902551	2	C	08/30/2020	09:02	-138.523	49.567	0	512.70	0	4.1100	0	34.0950	0	27.059	0	507.696	0	26.8	4	8.5	4	-1E+10	1	-1E+10	1	-1E+10	1	-1E+10	1	-1E+10	1	-1E+10	1
4902551	2	C	08/30/2020	09:02	-138.523	49.567	0	538.10	0	4.0590	0	34.1160	0	27.081	0	532.815	0	24.5	4	7.8	4	-1E+10	1	-1E+10	1	-1E+10	1	-1E+10	1	-1E+10	1	-1E+10	1
4902551	2	C	08/30/2020	09:02	-138.523	49.567	0	563.00	0	4.0130	0	34.1310	0	27.098	0	557.437	0	23.1	4	7.3	4	-1E+10	1	-1E+10	1	-1E+10	1	-1E+10	1	-1E+10	1	-1E+10	1
4902551	2	C	08/30/2020	09:02	-138.523	49.567	0	587.90	0	3.9240	0	34.1460	0	27.119	0	582.057	0	22.8	4	7.2	4	-1E+10	1	-1E+10	1	-1E+10	1	-1E+10	1	-1E+10	1	-1E+10	1
4902551	2	C	08/30/2020	09:02	-138.523	49.567	0	613.00	0	3.8850	0	34.1600	0	27.134	0	606.871	0	20.8	4	6.5	4	-1E+10	1	-1E+10	1	-1E+10	1	-1E+10	1	-1E+10	1	-1E+10	1
4902551	2	C	08/30/2020	09:02	-138.523	49.567	0	638.90	0	3.8250	0	34.1820	0	27.158	0	632.472	0	18.4	4	5.8	4	-1E+10	1	-1E+10	1	-1E+10	1	-1E+10	1	-1E+10	1	-1E+10	1
4902551	2	C	08/30/2020	09:02	-138.523	49.567	0	663.10	0	3.7670	0	34.2030	0	27.181	0	656.391	0	16.7	4	5.2	4	-1E+10	1	-1E+10	1	-1E+10	1	-1E+10	1	-1E+10	1	-1E+10	1
4902551	2	C	08/30/2020	09:02	-138.523	49.567	0	687.90	0	3.6970	0	34.2200	0	27.201	0	680.899	0	15.9	4	5.0	4	-1E+10	1	-1E+10	1	-1E+10	1	-1E+10	1	-1E+10	1	-1E+10	1
4902551	2	C	08/30/2020	09:02	-138.523	49.567	0	713.00	0	3.6540	0	34.2310	0	27.214	0	705.701	0	15.2	4	4.8	4	-1E+10	1	-1E+10	1	-1E+10	1	-1E+10	1	-1E+10	1	-1E+10	1
4902551	2	C	08/30/2020	09:02	-138.523	49.567	0	737.80	0	3.5990	0	34.2450	0	27.231	0	730.204	0	14.5	4	4.5	4	-1E+10	1	-1E+10	1	-1E+10	1	-1E+10	1	-1E+10	1	-1E+10	1
4902551	2	C	08/30/2020	09:02	-138.523	49.567	0	762.80	0	3.5430	0	34.2570	0	27.246	0	754.902	0	14.4	4	4.5	4	-1E+10	1	-1E+10	1	-1E+10	1	-1E+10	1	-1E+10	1	-1E+10	1
4902551	2	C	08/30/2020	09:02	-138.523	49.567	0	787.90	0	3.4790	0	34.2700	0	27.263	0	779.695	0	13.9	4	4.3	4	-1E+10	1	-1E+10	1	-1E+10	1	-1E+10	1	-1E+10	1	-1E+10	1
4902551	2	C	08/30/2020	09:02	-138.523	49.567	0	812.70	0	3.4270	0	34.2830	0	27.278	0	804.189	0	13.4	4	4.2	4	-1E+10	1	-1E+10	1	-1E+10	1	-1E+10	1	-1E+10	1	-1E+10	1
4902551	2	C	08/30/2020	09:02	-138.523	49.567	0	837.40	0	3.3800	0	34.2920	0	27.290	0	828.581	0	13.2	4	4.1	4	-1E+10	1	-1E+10	1	-1E+10	1	-1E+10	1	-1E+10	1	-1E+10	1
4902551	2	C	08/30/2020	09:02	-138.523	49.567	0	863.00	0	3.3210	0	34.3020	0	27.304	0	853.859	0	13.3	4	4.1	4	-1E+10	1	-1E+10	1	-1E+10	1	-1E+10	1	-1E+10	1	-1E+10	1
4902551	2	C	08/30/2020	09:02	-138.523	49.567	0	889.10	0	3.2620	0	34.3120	0	27.317	0	879.628	0	13.1	4	4.1	4	-1E+10	1	-1E+10	1	-1E+10	1	-1E+10	1	-1E+10	1	-1E+10	1
4902551	2	C	08/30/2020	09:02	-138.523	49.567	0	912.70	0	3.2080	0	34.3230	0	27.331	0	902.926	0	12.8	4	4.0	4	-1E+10	1	-1E+10	1	-1E+10	1	-1E+10	1	-1E+10	1	-1E+10	1
4902551	2	C	08/30/2020	09:02	-138.523	49.567	0	937.80	0	3.1520	0	34.3350	0	27.346	0	927.701	0	12.5	4	3.9	4	-1E+10	1	-1E+10	1	-1E+10	1	-1E+10	1	-1E+10	1	-1E+10	1
4902551	2	C	08/30/2020	09:02	-138.523	49.567	0	963.00	0	3.1030	0	34.3450	0	27.359	0	952.573	0	12.3	4	3.8	4	-1E+10	1	-1E+10	1	-1E+10	1	-1E+10	1	-1E+10	1	-1E+10	1
4902551	2	C	08/30/2020	09:02	-138.523	49.567	0	987.80	0	3.0670	0	34.3530	0	27.369	0	977.046	0	12.2	4	3.8	4	-1E+10	1	-1E+10	1	-1E+10	1	-1E+10	1	-1E+10	1	-1E+10	1
4902551	2	C	08/30/2020	09:02	-138.523	49.567	0	1012.70	0	3.0200	0	34.3620	0	27.380	0	1001.616	0	12.1	4	3.7	4	-1E+10	1	-1E+10	1	-1E+10	1	-1E+10	1	-1E+10	1	-1E+10	1
4902551	2	C	08/30/2020	09:02	-138.523	49.567	0	1038.50	0	2.9760	0	34.3710	0	27.392	0	1027.070	0	12.0	4	3.7	4	-1E+10	1	-1E+10	1	-1E+10	1	-1E+10	1	-1E+10	1	-1E+10	1
4902551	2	C	08/30/2020	09:02	-138.523	49.567	0	1062.60	0	2.9300	0	34.3820	0	27.405	0	1050.845	0	11.9	4	3.7	4	-1E+10	1	-1E+10	1	-1E+10	1	-1E+10	1	-1E+10	1	-1E+10	1
4902551	2	C	08/30/2020	09:02	-138.523	49.567	0	1087.80	0	2.8920	0	34.3900	0	27.415	0	1075.701	0	11.9	4	3.7	4	-1E+10	1	-1E+10	1	-1E+10	1	-1E+10	1	-1E+10	1	-1E+10	1
4902551	2	C	08/30/2020	09:02	-138.523	49.567	0	1112.80	0	2.8510	0	34.3990	0	27.425	0	1100.358	0	11.9	4	3.7	4	-1E+10	1	-1E+10	1	-1E+10	1	-1E+10	1	-1E+10	1	-1E+10	1
4902551	2	C	08/30/2020	09:02	-138.523	49.567	0	1137.60	0	2.8130	0	34.4050	0	27.434	0	1124.814	0	12.0	4	3.7	4	-1E+10	1	-1E+10	1	-1E+10	1	-1E+10	1	-1E+10	1	-1E+10	1
4902551	2	C	08/30/2020	09:02	-138.523	49.567	0	1162.70	0	2.7760	0	34.4130	0	27.444	0	1149.563	0	12.1	4	3.7	4	-1E+10	1	-1E+10	1	-1E+10	1	-1E+10	1	-1E+10	1	-1E+10	1
4902551	2	C	08/30/2020	09:02	-138.523	49.567	0	1188.00	0	2.7400	0	34.4200	0	27.452	0	1174.507	0	12.2	4	3.7	4	-1E+10	1	-1E+10	1	-1E+10	1	-1E+10	1	-1E+10	1	-1E+10	1
4902551	2	C	08/30/2020	09:02	-138.523	49.567	0	1213.00	0	2.7030	0	34.4280	0	27.462	0	1199.152	0	12.3	4	3.8	4	-1E+10	1	-1E+10	1	-1E+10	1	-1E+10	1	-1E+10	1	-1E+10	1
4902551	2	C	08/30/2020	09:02	-138.523	49.567	0	1238.10	0	2.6730	0	34.4340	0	27.470	0	1223.892	0	12.6	4	3.9	4	-1E+10	1	-1E+10	1	-1E+10	1	-1E+10	1	-1E+10	1	-1E+10	1
4902551	2	C	08/30/2020	09:02	-138.523	49.567	0	1263.80	0	2.6390	0	34.4410	0	27.478	0	1249.221	0	12.9	4	3.9	4	-1E+10	1	-1E+10	1	-1E+10	1	-1E+10	1	-1E+10	1	-1E+10	1
4902551	2	C	08/30/2020	09:02	-138.523	49.567	0	1287.70	0	2.6070	0	34.4470	0	27.486	0	1272.773	0	13.1	4	4.0	4	-1E+10	1	-1E+10	1	-1E+10	1	-1E+10	1	-1E+10	1	-1E+10	1
4902551	2	C	08/30/2020	09:02	-138.523	49.567	0	1312.70	0	2.5810	0	34.4540	0	27.494	0	1297.406	0	13.0	4	4.0	4	-1E+10	1	-1E+10	1	-1E+10	1	-1E+10	1	-1E+10	1	-1E+10	1
4902551	2	C	08/30/2020	09:02	-138.523	49.567	0	1337.60	0	2.5520	0	34.4620	0	27.503	0	1321.938	0	13.4	4	4.1	4	-1E+10	1	-1E+10	1	-1E+10	1	-1E+10	1	-1E+10	1	-1E+10	1
4902551	2	C	08/30/2020	09:02	-138.523	49.567	0	1362.60	0	2.5230	0	34.4680	0	27.510	0	1346.565	0	14.0	4	4.3	4	-1E+10	1	-1E+10	1	-1E+10	1	-1E+10	1	-1E+10	1	-1E+10	1
4902551	2	C	08/30/2020	09:02	-138.523	49.567	0	1387.60	0	2.4970	0	34.4730	0	27.517	0	1371.190	0	14.8	4	4.5	4	-1E+10	1	-1E+10	1	-1E+10	1	-1E+10	1	-1E+10	1	-1E+10	1
4902551	2	C	08/30/2020	09:02	-138.523	49.567	0	1412.60	0	2.4690	0	34.4760	0	27.522	0	1395.812	0	15.8	4	4.8	4	-1E+10	1	-1E+10	1	-1E+10	1	-1E+10	1	-1E+10	1	-1E+10	1
4902551	2	C	08/30/2020	09:02	-138.523	49.567	0	1437.80	0	2.4370	0	34.4810	0	27.528	0	1420.628	0	16.8	4	5.1	4	-1E+10	1	-1E+10	1	-1E+10	1	-1E+10	1	-1E+10	1	-1E+10	1
4902551	2	C	08/30/2020	09:02	-138.523	49.567	0	1462.70	0	2.4040	0	34.4880	0	27.537	0	1445.145	0	17.9	4	5.5	4	-1E+10	1	-1E+10	1	-1E+10	1	-1E+10	1	-1E+10	1	-1E+10	1
4902551	2	C	08/30/2020	09:02	-138.523	49.567	0	1488.10	0	2.3730	0	34.4930	0	27.543	0	1470.152	0	19.0	4	5.8	4	-1E+10	1	-1E+10	1	-1E+10	1	-1E+10	1	-1E+10	1	-1E+10	1
4902551	2	C	08/30/2020	09:02	-138.523	49.567	0	1512.70	0	2.3490	0	34.4980	0	27.550	0	1494.368	0	20.2	4	6.1	4	-1E+10	1	-1E+10	1	-1E+10	1	-1E+10	1	-1E+10	1	-1E+10	1
4902551	2	C	08/30/2020	09:02	-138.523	49.567	0	1537.70	0	2.3200	0	34.5040	0	27.557	0	1518.975	0	21.5	4	6.5	4	-1E+10	1	-1E+10	1	-1E+10	1	-1E+10	1	-1E+10	1	-1E+10	1
4902551	2	C	08/30/2020	09:02	-138.523	49.567	0	1562.80	0	2.2910	0	34.5100	0	27.564	0	1543.678	0	22.9	4	6.9	4	-1E+10	1	-1E+10	1	-1E+10	1	-1E+10	1	-1E+10	1	-1E+10	1
4902551	2	C	08/30/2020	09:02	-138.523	49.567	0	1587.70	0	2.2660	0	34.5160	0	27.571	0	1568.181	0	24.0	4	7.3	4	-1E+10	1	-1E+10	1	-1E+10	1	-1E+10	1	-1E+10	1	-1E+10	1
4902551	2	C	08/30/2020	09:02	-138.523	49.567	0	1612.40	0	2.2420	0	34.5200	0	27.576	0	1592.485	0	25.3	4	7.7	4	-1E+10	1	-1E+10	1	-1E+10	1	-1E+10	1	-1E+10	1	-1E+10	1
4902551	2	C	08/30/2020	09:02	-138.523	49.567	0	1638.70	0	2.2240	0	34.5240	0	27.581	0	1618.360	0	26.6	4	8.1	4	-1E+10	1	-1E+10	1	-1E+10	1	-1E+10	1	-1E+10	1	-1E+10	1
4902551	2	C	08/30/2020	09:02	-138.523	49.567	0	1663.10	0	2.2010	0	34.5290	0	27.587	0	1642.362	0	28.0	4	8.5	4	-1E+10	1	-1E+10	1	-1E+10	1	-1E+10	1	-1E+10	1	-1E+10	1
4902551	2	C	08/30/2020	09:02	-138.523	49.567	0	1687.90	0	2.1780	0	34.5330	0	27.592	0	1666.756	0	29.6	4	8.9	4	-1E+10	1	-1E+10	1	-1E+10	1	-1E+10	1	-1E+10	1	-1E+10	1
4902551	2	C	08/30/2020	09:02	-138.523	49.567	0	1712.90	0	2.1590	0	34.5380	0	27.598	0	1691.343	0	31.0	4	9.4	4	-1E+10	1	-1E+10	1	-1E+10	1	-1E+10	1	-1E+10	1	-1E+10	1
4902551	2	C	08/30/2020	09:02	-138.523	49.567	0	1738.10	0	2.1390	0	34.5430	0	27.604	0	1716.124	0	32.6	4	9.9	4	-1E+10	1	-1E+10	1	-1E+10	1	-1E+10	1	-1E+10	1	-1E+10	1
4902551	2	C	08/30/2020	09:02	-138.523	49.567	0	1763.10	0	2.1100	0	34.5470	0	27.609	0	1740.705	0	34.4	4	10.4	4	-1E+10	1	-1E+10	1	-1E+10	1	-1E+10	1	-1E+10	1	-1E+10	1
4902551	2	C	08/30/2020	09:02	-138.523	49.567	0	1788.00	0	2.0900	0	34.5510	0	27.614	0	1765.185	0	36.0	4	10.9	4	-1E+10	1	-1E+10	1	-1E+10	1	-1E+10	1	-1E+10	1	-1E+10	1
4902551	2	C	08/30/2020	09:02	-138.523	49.567	0	1812.70	0	2.0720	0	34.5550	0	27.619	0	1789.466	0	37.5	4	11.3	4	-1E+10	1	-1E+10	1	-1E+10	1	-1E+10	1	-1E+10	1	-1E+10	1
4902551	2	C	08/30/2020	09:02	-138.523	49.567	0	1837.50	0	2.0540	0	34.5600	0	27.625	0	1813.843	0	39.2	4	11.8	4	-1E+10	1	-1E+10	1	-1E+10	1	-1E+10	1	-1E+10	1	-1E+10	1
4902551	2	C	08/30/2020	09:02	-138.523	49.567	0	1862.80	0	2.0360	0	34.5650	0	27.630	0	1838.708	0	41.0	4	12.4	4	-1E+10	1	-1E+10	1	-1E+10	1	-1E+10	1	-1E+10	1	-1E+10	1
4902551	2	C	08/30/2020	09:02	-138.523	49.567	0	1887.80	0	2.0140	0	34.5690	0	27.635	0	1863.275	0	42.6	4	12.9	4	-1E+10	1	-1E+10	1	-1E+10	1	-1E+10	1	-1E+10	1	-1E+10	1
4902551	2	C	08/30/2020	09:02	-138.523	49.567	0	1912.80	0	1.9960	0	34.5730	0	27.640	0	1887.839	0	44.2	4	13.3	4	-1E+10	1	-1E+10	1	-1E+10	1	-1E+10	1	-1E+10	1	-1E+10	1
4902551	2	C	08/30/2020	09:02	-138.523	49.567	0	1937.50	0	1.9780	0	34.5760	0	27.644	0	1912.106	0	45.6	4	13.7	4	-1E+10	1	-1E+10	1	-1E+10	1	-1E+10	1	-1E+10	1	-1E+10	1
4902551	2	C	08/30/2020	09:02	-138.523	49.567	0	1962.80	0	1.9640	0	34.5780	0	27.647	0	1936.959	0	46.8	4	14.1	4	-1E+10	1	-1E+10	1	-1E+10	1	-1E+10	1	-1E+10	1	-1E+10	1
4902551	2	C	08/30/2020	09:02	-138.523	49.567	0	1987.80	0	1.9490	0	34.5800	0	27.650	0	1961.515	0	48.0	4	14.5	4	-1E+10	1	-1E+10	1	-1E+10	1	-1E+10	1	-1E+10	1	-1E+10	1
4902551	2	C	08/30/2020	09:02	-138.523	49.567	0	2011.90	0	1.9330	0	34.5820	0	27.653	0	1985.184	0	48.7	4	14.7	4	-1E+10	1	-1E+10	1	-1E+10	1	-1E+10	1	-1E+10	1	-1E+10	1
4902551	2	C	08/30/2020	09:02	-138.523	49.567	0																										
4902551	3	C	09/09/2020	09:17	-138.353	49.565	0	0.30	0	15.7370	4	32.1840	0	23.642	0	0.297	0	244.4	4	98.1	4	-1E+10	1	-1E+10	1	-1E+10	1	-1E+10	1	-1E+10	1	-1E+10	1
4902551	3	C	09/09/2020	09:17	-138.353	49.565	0	1.10	0	15.7390	4	32.1840	0	23.642	0	1.091	0	244.4	4	98.1	4	-1E+10	1	-1E+10	1	-1E+10	1	-1E+10	1	-1E+10	1	-1E+10	1
4902551	3	C	09/09/2020	09:17	-138.353	49.565	0	2.10	0	15.7390	4	32.1860	0	23.643	0	2.082	0	244.4	4	98.1	4	-1E+10	1	-1E+10	1	-1E+10	1	-1E+10	1	-1E+10	1	-1E+10	1
4902551	3	C	09/09/2020	09:17	-138.353	49.565	0	3.00	0	15.7350	4	32.1890	0	23.646	0	2.974	0	244.4	4	98.1	4	-1E+10	1	-1E+10	1	-1E+10	1	-1E+10	1	-1E+10	1	-1E+10	1
4902551	3	C	09/09/2020	09:17	-138.353	49.565	0	4.10	0	15.7370	4	32.1900	0	23.647	0	4.065	0	244.3	4	98.1	4	-1E+10	1	-1E+10	1	-1E+10	1	-1E+10	1	-1E+10	1	-1E+10	1
4902551	3	C	09/09/2020	09:17	-138.353	49.565	0	5.10	0	15.7380	4	32.1910	0	23.647	0	5.056	0	244.3	4	98.1	4	-1E+10	1	-1E+10	1	-1E+10	1	-1E+10	1	-1E+10	1	-1E+10	1
4902551	3	C	09/09/2020	09:17	-138.353	49.565	0	5.90	0	15.7390	4	32.1900	0	23.646	0	5.850	0	244.3	4	98.1	4	-1E+10	1	-1E+10	1	-1E+10	1	-1E+10	1	-1E+10	1	-1E+10	1
4902551	3	C	09/09/2020	09:17	-138.353	49.565	0	7.10	0	15.7420	4	32.1910	0	23.647	0	7.039	0	244.3	4	98.1	4	-1E+10	1	-1E+10	1	-1E+10	1	-1E+10	1	-1E+10	1	-1E+10	1
4902551	3	C	09/09/2020	09:17	-138.353	49.565	0	8.10	0	15.7400	4	32.1910	0	23.647	0	8.031	0	244.3	4	98.1	4	-1E+10	1	-1E+10	1	-1E+10	1	-1E+10	1	-1E+10	1	-1E+10	1
4902551	3	C	09/09/2020	09:17	-138.353	49.565	0	9.10	0	15.7380	4	32.1900	0	23.647	0	9.022	0	244.4	4	98.1	4	-1E+10	1	-1E+10	1	-1E+10	1	-1E+10	1	-1E+10	1	-1E+10	1
4902551	3	C	09/09/2020	09:17	-138.353	49.565	0	10.10	0	15.7430	4	32.1900	0	23.646	0	10.014	0	244.4	4	98.2	4	-1E+10	1	-1E+10	1	-1E+10	1	-1E+10	1	-1E+10	1	-1E+10	1
4902551	3	C	09/09/2020	09:17	-138.353	49.565	0	15.90	0	15.7090	4	32.1900	0	23.653	0	15.764	0	244.8	4	98.3	4	-1E+10	1	-1E+10	1	-1E+10	1	-1E+10	1	-1E+10	1	-1E+10	1
4902551	3	C	09/09/2020	09:17	-138.353	49.565	0	25.60	0	15.1510	4	32.1880	0	23.774	0	25.380	0	247.2	4	98.1	4	-1E+10	1	-1E+10	1	-1E+10	1	-1E+10	1	-1E+10	1	-1E+10	1
4902551	3	C	09/09/2020	09:17	-138.353	49.565	0	35.40	0	13.8600	4	32.2240	0	24.073	0	35.095	0	259.3	4	100.3	4	-1E+10	1	-1E+10	1	-1E+10	1	-1E+10	1	-1E+10	1	-1E+10	1
4902551	3	C	09/09/2020	09:17	-138.353	49.565	0	45.30	0	10.9830	4	32.3140	0	24.689	0	44.909	0	267.8	4	97.7	4	-1E+10	1	-1E+10	1	-1E+10	1	-1E+10	1	-1E+10	1	-1E+10	1
4902551	3	C	09/09/2020	09:17	-138.353	49.565	0	55.90	0	9.7110	4	32.3480	0	24.931	0	55.415	0	265.9	4	94.4	4	-1E+10	1	-1E+10	1	-1E+10	1	-1E+10	1	-1E+10	1	-1E+10	1
4902551	3	C	09/09/2020	09:17	-138.353	49.565	0	65.20	0	8.5460	4	32.3750	0	25.134	0	64.633	0	265.3	4	91.8	4	-1E+10	1	-1E+10	1	-1E+10	1	-1E+10	1	-1E+10	1	-1E+10	1
4902551	3	C	09/09/2020	09:17	-138.353	49.565	0	75.20	0	7.8210	4	32.4280	0	25.281	0	74.545	0	261.8	4	89.2	4	-1E+10	1	-1E+10	1	-1E+10	1	-1E+10	1	-1E+10	1	-1E+10	1
4902551	3	C	09/09/2020	09:17	-138.353	49.565	0	85.90	0	7.2980	4	32.4580	0	25.378	0	85.149	0	258.5	4	87.1	4	-1E+10	1	-1E+10	1	-1E+10	1	-1E+10	1	-1E+10	1	-1E+10	1
4902551	3	C	09/09/2020	09:17	-138.353	49.565	0	95.60	0	6.9310	4	32.5170	0	25.474	0	94.762	0	245.9	4	82.2	4	-1E+10	1	-1E+10	1	-1E+10	1	-1E+10	1	-1E+10	1	-1E+10	1
4902551	3	C	09/09/2020	09:17	-138.353	49.565	0	105.20	0	6.7350	4	32.6900	0	25.636	0	104.276	0	220.6	4	73.5	4	-1E+10	1	-1E+10	1	-1E+10	1	-1E+10	1	-1E+10	1	-1E+10	1
4902551	3	C	09/09/2020	09:17	-138.353	49.565	0	115.60	0	6.5870	4	33.0590	0	25.946	0	114.581	0	191.2	4	63.6	4	-1E+10	1	-1E+10	1	-1E+10	1	-1E+10	1	-1E+10	1	-1E+10	1
4902551	3	C	09/09/2020	09:17	-138.353	49.565	0	125.10	0	6.4570	4	33.3010	0	26.154	0	123.995	0	167.0	4	55.5	4	-1E+10	1	-1E+10	1	-1E+10	1	-1E+10	1	-1E+10	1	-1E+10	1
4902551	3	C	09/09/2020	09:17	-138.353	49.565	0	135.40	0	6.2450	4	33.4710	0	26.315	0	134.201	0	156.4	4	51.8	4	-1E+10	1	-1E+10	1	-1E+10	1	-1E+10	1	-1E+10	1	-1E+10	1
4902551	3	C	09/09/2020	09:17	-138.353	49.565	0	145.40	0	6.1510	4	33.5560	0	26.394	0	144.108	0	148.7	4	49.2	4	-1E+10	1	-1E+10	1	-1E+10	1	-1E+10	1	-1E+10	1	-1E+10	1
4902551	3	C	09/09/2020	09:17	-138.353	49.565	0	155.20	0	6.0480	4	33.6520	0	26.483	0	153.818	0	140.1	4	46.2	4	-1E+10	1	-1E+10	1	-1E+10	1	-1E+10	1	-1E+10	1	-1E+10	1
4902551	3	C	09/09/2020	09:17	-138.353	49.565	0	165.30	0	6.0100	4	33.7200	0	26.542	0	163.824	0	132.3	4	43.7	4	-1E+10	1	-1E+10	1	-1E+10	1	-1E+10	1	-1E+10	1	-1E+10	1
4902551	3	C	09/09/2020	09:17	-138.353	49.565	0	175.20	0	5.9410	4	33.7700	0	26.590	0	173.631	0	125.1	4	41.2	4	-1E+10	1	-1E+10	1	-1E+10	1	-1E+10	1	-1E+10	1	-1E+10	1
4902551	3	C	09/09/2020	09:17	-138.353	49.565	0	185.40	0	5.8580	4	33.8020	0	26.626	0	183.735	0	118.7	4	39.1	4	-1E+10	1	-1E+10	1	-1E+10	1	-1E+10	1	-1E+10	1	-1E+10	1
4902551	3	C	09/09/2020	09:17	-138.353	49.565	0	195.30	0	5.7570	4	33.8160	0	26.649	0	193.542	0	114.1	4	37.5	4	-1E+10	1	-1E+10	1	-1E+10	1	-1E+10	1	-1E+10	1	-1E+10	1
4902551	3	C	09/09/2020	09:17	-138.353	49.565	0	212.30	0	5.6220	4	33.8340	0	26.680	0	210.380	0	104.2	4	34.1	4	-1E+10	1	-1E+10	1	-1E+10	1	-1E+10	1	-1E+10	1	-1E+10	1
4902551	3	C	09/09/2020	09:17	-138.353	49.565	0	238.30	0	5.4110	4	33.8590	0	26.725	0	236.130	0	91.5	4	29.8	4	-1E+10	1	-1E+10	1	-1E+10	1	-1E+10	1	-1E+10	1	-1E+10	1
4902551	3	C	09/09/2020	09:17	-138.353	49.565	0	262.90	0	5.2440	4	33.8770	0	26.759	0	260.491	0	81.7	4	26.5	4	-1E+10	1	-1E+10	1	-1E+10	1	-1E+10	1	-1E+10	1	-1E+10	1
4902551	3	C	09/09/2020	09:17	-138.353	49.565	0	287.60	0	5.0360	4	33.8890	0	26.793	0	284.947	0	75.8	4	24.5	4	-1E+10	1	-1E+10	1	-1E+10	1	-1E+10	1	-1E+10	1	-1E+10	1
4902551	3	C	09/09/2020	09:17	-138.353	49.565	0	312.80	0	4.7470	4	33.8920	0	26.828	0	309.896	0	71.2	4	22.8	4	-1E+10	1	-1E+10	1	-1E+10	1	-1E+10	1	-1E+10	1	-1E+10	1
4902551	3	C	09/09/2020	09:17	-138.353	49.565	0	337.90	0	4.6540	4	33.9190	0	26.860	0	334.743	0	61.7	4	19.7	4	-1E+10	1	-1E+10	1	-1E+10	1	-1E+10	1	-1E+10	1	-1E+10	1
4902551	3	C	09/09/2020	09:17	-138.353	49.565	0	362.90	0	4.5650	4	33.9380	0	26.885	0	359.488	0	56.2	4	17.9	4	-1E+10	1	-1E+10	1	-1E+10	1	-1E+10	1	-1E+10	1	-1E+10	1
4902551	3	C	09/09/2020	09:17	-138.353	49.565	0	387.60	0	4.4950	4	33.9610	0	26.911	0	383.932	0	50.0	4	16.0	4	-1E+10	1	-1E+10	1	-1E+10	1	-1E+10	1	-1E+10	1	-1E+10	1
4902551	3	C	09/09/2020	09:17	-138.353	49.565	0	412.70	0	4.4380	4	33.9880	0	26.939	0	408.770	0	44.3	4	14.1	4	-1E+10	1	-1E+10	1	-1E+10	1	-1E+10	1	-1E+10	1	-1E+10	1
4902551	3	C	09/09/2020	09:17	-138.353	49.565	0	438.60	0	4.3540	4	34.0130	0	26.968	0	434.397	0	39.3	4	12.5	4	-1E+10	1	-1E+10	1	-1E+10	1	-1E+10	1	-1E+10	1	-1E+10	1
4902551	3	C	09/09/2020	09:17	-138.353	49.565	0	462.90	0	4.2860	4	34.0340	0	26.992	0	458.437	0	36.7	4	11.7	4	-1E+10	1	-1E+10	1	-1E+10	1	-1E+10	1	-1E+10	1	-1E+10	1
4902551	3	C	09/09/2020	09:17	-138.353	49.565	0	487.60	0	4.1970	4	34.0560	0	27.019	0	482.870	0	32.8	4	10.4	4	-1E+10	1	-1E+10	1	-1E+10	1	-1E+10	1	-1E+10	1	-1E+10	1
4902551	3	C	09/09/2020	09:17	-138.353	49.565	0	512.60	0	4.1260	4	34.0870	0	27.051	0	507.597	0	27.8	4	8.8	4	-1E+10	1	-1E+10	1	-1E+10	1	-1E+10	1	-1E+10	1	-1E+10	1
4902551	3	C	09/09/2020	09:17	-138.353	49.565	0	537.90	0	4.0540	4	34.1130	0	27.079	0	532.618	0	25.1	4	7.9	4	-1E+10	1	-1E+10	1	-1E+10	1	-1E+10	1	-1E+10	1	-1E+10	1
4902551	3	C	09/09/2020	09:17	-138.353	49.565	0	563.10	0	3.9850	4	34.1340	0	27.103	0	557.536	0	23.2	4	7.3	4	-1E+10	1	-1E+10	1	-1E+10	1	-1E+10	1	-1E+10	1	-1E+10	1
4902551	3	C	09/09/2020	09:17	-138.353	49.565	0	588.00	0	3.9190	4	34.1510	0	27.123	0	582.156	0	21.4	4	6.7	4	-1E+10	1	-1E+10	1	-1E+10	1	-1E+10	1	-1E+10	1	-1E+10	1
4902551	3	C	09/09/2020	09:17	-138.353	49.565	0	613.60	0	3.8580	4	34.1730	0	27.147	0	607.464	0	19.3	4	6.1	4	-1E+10	1	-1E+10	1	-1E+10	1	-1E+10	1	-1E+10	1	-1E+10	1
4902551	3	C	09/09/2020	09:17	-138.353	49.565	0	637.70	0	3.8010	4	34.1890	0	27.166	0	631.286	0	18.2	4	5.7	4	-1E+10	1	-1E+10	1	-1E+10	1	-1E+10	1	-1E+10	1	-1E+10	1
4902551	3	C	09/09/2020	09:17	-138.353	49.565	0	662.70	0	3.7560	4	34.2020	0	27.181	0	655.995	0	17.2	4	5.4	4	-1E+10	1	-1E+10	1	-1E+10	1	-1E+10	1	-1E+10	1	-1E+10	1
4902551	3	C	09/09/2020	09:17	-138.353	49.565	0	687.90	0	3.6990	4	34.2170	0	27.199	0	680.899	0	16.4	4	5.1	4	-1E+10	1	-1E+10	1	-1E+10	1	-1E+10	1	-1E+10	1	-1E+10	1
4902551	3	C	09/09/2020	09:17	-138.353	49.565	0	713.00	0	3.6450	4	34.2320	0	27.216	0	705.701	0	15.4	4	4.8	4	-1E+10	1	-1E+10	1	-1E+10	1	-1E+10	1	-1E+10	1	-1E+10	1
4902551	3	C	09/09/2020	09:17	-138.353	49.565	0	738.00	0	3.5930	4	34.2450	0	27.232	0	730.402	0	14.9	4	4.7	4	-1E+10	1	-1E+10	1	-1E+10	1	-1E+10	1	-1E+10	1	-1E+10	1
4902551	3	C	09/09/2020	09:17	-138.353	49.565	0	762.80	0	3.5490	4	34.2550	0	27.244	0	754.902	0	14.5	4	4.5	4	-1E+10	1	-1E+10	1	-1E+10	1	-1E+10	1	-1E+10	1	-1E+10	1
4902551	3	C	09/09/2020	09:17	-138.353	49.565	0	788.60	0	3.5070	4	34.2640	0	27.255	0	780.386	0	14.3	4	4.5	4	-1E+10	1	-1E+10	1	-1E+10	1	-1E+10	1	-1E+10	1	-1E+10	1
4902551	3	C	09/09/2020	09:17	-138.353	49.565	0	812.60	0	3.4670	4	34.2710	0	27.265	0	804.090	0	14.1	4	4.4	4	-1E+10	1	-1E+10	1	-1E+10	1	-1E+10	1	-1E+10	1	-1E+10	1
4902551	3	C	09/09/2020	09:17	-138.353	49.565	0	837.70	0	3.4070	4	34.2830	0	27.280	0	828.878	0	13.7	4	4.3	4	-1E+10	1	-1E+10	1	-1E+10	1	-1E+10	1	-1E+10	1	-1E+10	1
4902551	3	C	09/09/2020	09:17	-138.353	49.565	0	862.80	0	3.3530	4	34.2940	0	27.294	0	853.662	0	13.4	4	4.2	4	-1E+10	1	-1E+10	1	-1E+10	1	-1E+10	1	-1E+10	1	-1E+10	1
4902551	3	C	09/09/2020	09:17	-138.353	49.565	0	887.90	0	3.3030	4	34.3040	0	27.307	0	878.443	0	13.3	4	4.1	4	-1E+10	1	-1E+10	1	-1E+10	1	-1E+10	1	-1E+10	1	-1E+10	1
4902551	3	C	09/09/2020	09:17	-138.353	49.565	0	913.20	0	3.2600	4	34.3130	0	27.319	0	903.419	0	13.1	4	4.1	4	-1E+10	1	-1E+10	1	-1E+10	1	-1E+10	1	-1E+10	1	-1E+10	1
4902551	3	C	09/09/2020	09:17	-138.353	49.565	0	938.10	0	3.2050	4	34.3240	0	27.333	0	927.997	0	12.7	4	3.9	4	-1E+10	1	-1E+10	1	-1E+10	1	-1E+10	1	-1E+10	1	-1E+10	1
4902551	3	C	09/09/2020	09:17	-138.353	49.565	0	962.70	0	3.1560	4	34.3350	0	27.346	0	952.277	0	12.3	4	3.8	4	-1E+10	1	-1E+10	1	-1E+10	1	-1E+10	1	-1E+10	1	-1E+10	1
4902551	3	C	09/09/2020	09:17	-138.353	49.565	0	987.60	0	3.1050	4	34.3470	0	27.360	0	976.849	0	12.1	4	3.7	4	-1E+10	1	-1E+10	1	-1E+10	1	-1E+10	1	-1E+10	1	-1E+10	1
4902551	3	C	09/09/2020	09:17	-138.353	49.565	0	1012.80	0	3.0620	4	34.3570	0	27.372	0	1001.715	0	12.0	4	3.7	4	-1E+10	1	-1E+10	1	-1E+10	1	-1E+10	1	-1E+10	1	-1E+10	1
4902551	3	C	09/09/2020	09:17	-138.353	49.565	0	1038.60	0	3.0110	4	34.3660	0	27.384	0	1027.169	0	12.0	4	3.7	4	-1E+10	1	-1E+10	1	-1E+10	1	-1E+10	1	-1E+10	1	-1E+10	1
4902551	3	C	09/09/2020	09:17	-138.353	49.565	0	1062.90	0	2.9730	4	34.3730	0	27.394	0	1051.141	0	12.0	4	3.7	4	-1E+10	1	-1E+10	1	-1E+10	1	-1E+10	1	-1E+10	1	-1E+10	1
4902551	3	C	09/09/2020	09:17	-138.353	49.565	0	1088.10	0	2.9260	4	34.3830	0	27.406	0	1075.997	0	11.9	4	3.7	4	-1E+10	1	-1E+10	1	-1E+10	1	-1E+10	1	-1E+10	1	-1E+10	1
4902551	3	C	09/09/2020	09:17	-138.353	49.565	0	1112.80	0	2.8900	4	34.3910	0	27.416	0	1100.358	0	11.8	4	3.6	4	-1E+10	1	-1E+10	1	-1E+10	1	-1E+10	1	-1E+10	1	-1E+10	1
4902551	3	C	09/09/2020	09:17	-138.353	49.565	0	1137.60	0	2.8440	4	34.4000	0	27.427	0	1124.814	0	11.9	4	3.6	4	-1E+10	1	-1E+10	1	-1E+10	1	-1E+10	1	-1E+10	1	-1E+10	1
4902551	3	C	09/09/2020	09:17	-138.353	49.565	0	1162.80	0	2.8030	4	34.4090	0	27.438	0	1149.662	0	12.0	4	3.7	4	-1E+10	1	-1E+10	1	-1E+10	1	-1E+10	1	-1E+10	1	-1E+10	1
4902551	3	C	09/09/2020	09:17	-138.353	49.565	0	1187.70	0	2.7690	4	34.4160	0	27.447	0	1174.211	0	12.1	4	3.7	4	-1E+10	1	-1E+10	1	-1E+10	1	-1E+10	1	-1E+10	1	-1E+10	1
4902551	3	C	09/09/2020	09:17	-138.353	49.565	0	1212.80	0	2.7320	4	34.4230	0	27.456	0	1198.955	0	12.3	4	3.8	4	-1E+10	1	-1E+10	1	-1E+10	1	-1E+10	1	-1E+10	1	-1E+10	1
4902551	3	C	09/09/2020	09:17	-138.353	49.565	0	1237.90	0	2.7010	4	34.4290	0	27.463	0	1223.695	0	12.4	4	3.8	4	-1E+10	1	-1E+10	1	-1E+10	1	-1E+10	1	-1E+10	1	-1E+10	1
4902551	3	C	09/09/2020	09:17	-138.353	49.565	0	1263.10	0	2.6680	4	34.4360	0	27.472	0	1248.531	0	12.6	4	3.9	4	-1E+10	1	-1E+10	1	-1E+10	1	-1E+10	1	-1E+10	1	-1E+10	1
4902551	3	C	09/09/2020	09:17	-138.353	49.565	0	1287.90	0	2.6380	4	34.4420	0	27.479	0	1272.970	0	12.8	4	3.9	4	-1E+10	1	-1E+10	1	-1E+10	1	-1E+10	1	-1E+10	1	-1E+10	1
4902551	3	C	09/09/2020	09:17	-138.353	49.565	0	1312.90	0	2.6110	4	34.4480	0	27.487	0	1297.603	0	13.1	4	4.0	4	-1E+10	1	-1E+10	1	-1E+10	1	-1E+10	1	-1E+10	1	-1E+10	1
4902551	3	C	09/09/2020	09:17	-138.353	49.565	0	1337.70	0	2.5850	4	34.4540	0	27.494	0	1322.037	0	13.4	4	4.1	4	-1E+10	1	-1E+10	1	-1E+10	1	-1E+10	1	-1E+10	1	-1E+10	1
4902551	3	C	09/09/2020	09:17	-138.353	49.565	0	1362.40	0	2.5560	4	34.4600	0	27.501	0	1346.369	0	13.3	4	4.1	4	-1E+10	1	-1E+10	1	-1E+10	1	-1E+10	1	-1E+10	1	-1E+10	1
4902551	3	C	09/09/2020	09:17	-138.353	49.565	0	1387.60	0	2.5360	4	34.4660	0	27.508	0	1371.190	0	13.6	4	4.1	4	-1E+10	1	-1E+10	1	-1E+10	1	-1E+10	1	-1E+10	1	-1E+10	1
4902551	3	C	09/09/2020	09:17	-138.353	49.565	0	1413.40	0	2.5100	4	34.4720	0	27.515	0	1396.600	0	14.2	4	4.3	4	-1E+10	1	-1E+10	1	-1E+10	1	-1E+10	1	-1E+10	1	-1E+10	1
4902551	3	C	09/09/2020	09:17	-138.353	49.565	0	1437.70	0	2.4860	4	34.4770	0	27.521	0	1420.529	0	14.8	4	4.5	4	-1E+10	1	-1E+10	1	-1E+10	1	-1E+10	1	-1E+10	1	-1E+10	1
4902551	3	C	09/09/2020	09:17	-138.353	49.565	0	1462.90	0	2.4590	4	34.4820	0	27.527	0	1445.342	0	15.7	4	4.8	4	-1E+10	1	-1E+10	1	-1E+10	1	-1E+10	1	-1E+10	1	-1E+10	1
4902551	3	C	09/09/2020	09:17	-138.353	49.565	0	1488.10	0	2.4280	4	34.4890	0	27.536	0	1470.152	0	16.7	4	5.1	4	-1E+10	1	-1E+10	1	-1E+10	1	-1E+10	1	-1E+10	1	-1E+10	1
4902551	3	C	09/09/2020	09:17	-138.353	49.565	0	1512.90	0	2.4020	4	34.4940	0	27.542	0	1494.565	0	17.7	4	5.4	4	-1E+10	1	-1E+10	1	-1E+10	1	-1E+10	1	-1E+10	1	-1E+10	1
4902551	3	C	09/09/2020	09:17	-138.353	49.565	0	1537.70	0	2.3750	4	34.5000	0	27.549	0	1518.976	0	19.0	4	5.8	4	-1E+10	1	-1E+10	1	-1E+10	1	-1E+10	1	-1E+10	1	-1E+10	1
4902551	3	C	09/09/2020	09:17	-138.353	49.565	0	1562.70	0	2.3390	4	34.5060	0	27.557	0	1543.580	0	20.8	4	6.3	4	-1E+10	1	-1E+10	1	-1E+10	1	-1E+10	1	-1E+10	1	-1E+10	1
4902551	3	C	09/09/2020	09:17	-138.353	49.565	0	1587.90	0	2.3080	4	34.5110	0	27.564	0	1568.378	0	22.3	4	6.8	4	-1E+10	1	-1E+10	1	-1E+10	1	-1E+10	1	-1E+10	1	-1E+10	1
4902551	3	C	09/09/2020	09:17	-138.353	49.565	0	1612.90	0	2.2800	4	34.5150	0	27.569	0	1592.977	0	23.7	4	7.2	4	-1E+10	1	-1E+10	1	-1E+10	1	-1E+10	1	-1E+10	1	-1E+10	1
4902551	3	C	09/09/2020	09:17	-138.353	49.565	0	1637.40	0	2.2580	4	34.5200	0	27.575	0	1617.081	0	24.9	4	7.6	4	-1E+10	1	-1E+10	1	-1E+10	1	-1E+10	1	-1E+10	1	-1E+10	1
4902551	3	C	09/09/2020	09:17	-138.353	49.565	0	1662.40	0	2.2360	4	34.5250	0	27.581	0	1641.674	0	26.4	4	8.0	4	-1E+10	1	-1E+10	1	-1E+10	1	-1E+10	1	-1E+10	1	-1E+10	1
4902551	3	C	09/09/2020	09:17	-138.353	49.565	0	1687.50	0	2.2030	4	34.5300	0	27.588	0	1666.362	0	28.3	4	8.6	4	-1E+10	1	-1E+10	1	-1E+10	1	-1E+10	1	-1E+10	1	-1E+10	1
4902551	3	C	09/09/2020	09:17	-138.353	49.565	0	1713.10	0	2.1710	4	34.5360	0	27.596	0	1691.540	0	30.1	4	9.1	4	-1E+10	1	-1E+10	1	-1E+10	1	-1E+10	1	-1E+10	1	-1E+10	1
4902551	3	C	09/09/2020	09:17	-138.353	49.565	0	1737.80	0	2.1490	4	34.5410	0	27.601	0	1715.829	0	31.8	4	9.6	4	-1E+10	1	-1E+10	1	-1E+10	1	-1E+10	1	-1E+10	1	-1E+10	1
4902551	3	C	09/09/2020	09:17	-138.353	49.565	0	1762.80	0	2.1240	4	34.5460	0	27.608	0	1740.411	0	33.6	4	10.1	4	-1E+10	1	-1E+10	1	-1E+10	1	-1E+10	1	-1E+10	1	-1E+10	1
4902551	3	C	09/09/2020	09:17	-138.353	49.565	0	1787.60	0	2.1080	4	34.5500	0	27.612	0	1764.792	0	34.9	4	10.6	4	-1E+10	1	-1E+10	1	-1E+10	1	-1E+10	1	-1E+10	1	-1E+10	1
4902551	3	C	09/09/2020	09:17	-138.353	49.565	0	1812.80	0	2.0930	4	34.5540	0	27.617	0	1789.565	0	36.3	4	11.0	4	-1E+10	1	-1E+10	1	-1E+10	1	-1E+10	1	-1E+10	1	-1E+10	1
4902551	3	C	09/09/2020	09:17	-138.353	49.565	0	1838.20	0	2.0750	4	34.5580	0	27.621	0	1814.531	0	37.9	4	11.4	4	-1E+10	1	-1E+10	1	-1E+10	1	-1E+10	1	-1E+10	1	-1E+10	1
4902551	3	C	09/09/2020	09:17	-138.353	49.565	0	1863.00	0	2.0480	4	34.5620	0	27.627	0	1838.904	0	39.8	4	12.0	4	-1E+10	1	-1E+10	1	-1E+10	1	-1E+10	1	-1E+10	1	-1E+10	1
4902551	3	C	09/09/2020	09:17	-138.353	49.565	0	1887.70	0	2.0270	4	34.5660	0	27.632	0	1863.177	0	41.5	4	12.5	4	-1E+10	1	-1E+10	1	-1E+10	1	-1E+10	1	-1E+10	1	-1E+10	1
4902551	3	C	09/09/2020	09:17	-138.353	49.565	0	1913.30	0	2.0070	4	34.5710	0	27.638	0	1888.331	0	43.1	4	13.0	4	-1E+10	1	-1E+10	1	-1E+10	1	-1E+10	1	-1E+10	1	-1E+10	1
4902551	3	C	09/09/2020	09:17	-138.353	49.565	0	1938.00	0	1.9890	4	34.5750	0	27.642	0	1912.598	0	44.7	4	13.5	4	-1E+10	1	-1E+10	1	-1E+10	1	-1E+10	1	-1E+10	1	-1E+10	1
4902551	3	C	09/09/2020	09:17	-138.353	49.565	0	1963.00	0	1.9750	4	34.5770	0	27.645	0	1937.156	0	45.9	4	13.8	4	-1E+10	1	-1E+10	1	-1E+10	1	-1E+10	1	-1E+10	1	-1E+10	1
4902551	3	C	09/09/2020	09:17	-138.353	49.565	0	1987.70	0	1.9570	4	34.5800	0	27.649	0	1961.417	0	47.4	4	14.3	4	-1E+10	1	-1E+10	1	-1E+10	1	-1E+10	1	-1E+10	1	-1E+10	1
4902551	3	C	09/09/2020	09:17	-138.353	49.565	0	2008.90	0	1.9410	4	34.5820	0	27.652	0	1982.239	0	47.9	4	14.4	4	-1E+10	1	-1E+10	1	-1E+10	1	-1E+10	1	-1E+10	1	-1E+10	1
4902551	3	C	09/09/2020	09:17	-138.353	49.565	0																										
4902551	4	C	09/19/2020	09:03	-138.212	49.573	0	0.40	0	15.9740	0	32.2170	0	23.615	0	0.397	0	239.1	4	96.5	4	-1E+10	1	-1E+10	1	-1E+10	1	-1E+10	1	-1E+10	1	-1E+10	1
4902551	4	C	09/19/2020	09:03	-138.212	49.573	0	1.10	0	15.9740	0	32.2190	0	23.616	0	1.091	0	239.0	4	96.4	4	-1E+10	1	-1E+10	1	-1E+10	1	-1E+10	1	-1E+10	1	-1E+10	1
4902551	4	C	09/19/2020	09:03	-138.212	49.573	0	2.00	0	15.9730	0	32.2210	0	23.618	0	1.983	0	239.0	4	96.4	4	-1E+10	1	-1E+10	1	-1E+10	1	-1E+10	1	-1E+10	1	-1E+10	1
4902551	4	C	09/19/2020	09:03	-138.212	49.573	0	2.80	0	15.9730	0	32.2210	0	23.618	0	2.776	0	239.0	4	96.5	4	-1E+10	1	-1E+10	1	-1E+10	1	-1E+10	1	-1E+10	1	-1E+10	1
4902551	4	C	09/19/2020	09:03	-138.212	49.573	0	3.90	0	15.9740	0	32.2220	0	23.619	0	3.867	0	239.0	4	96.4	4	-1E+10	1	-1E+10	1	-1E+10	1	-1E+10	1	-1E+10	1	-1E+10	1
4902551	4	C	09/19/2020	09:03	-138.212	49.573	0	5.00	0	15.9730	0	32.2230	0	23.620	0	4.957	0	239.0	4	96.4	4	-1E+10	1	-1E+10	1	-1E+10	1	-1E+10	1	-1E+10	1	-1E+10	1
4902551	4	C	09/19/2020	09:03	-138.212	49.573	0	5.90	0	15.9740	0	32.2230	0	23.619	0	5.850	0	239.0	4	96.5	4	-1E+10	1	-1E+10	1	-1E+10	1	-1E+10	1	-1E+10	1	-1E+10	1
4902551	4	C	09/19/2020	09:03	-138.212	49.573	0	6.80	0	15.9750	0	32.2230	0	23.619	0	6.742	0	239.0	4	96.4	4	-1E+10	1	-1E+10	1	-1E+10	1	-1E+10	1	-1E+10	1	-1E+10	1
4902551	4	C	09/19/2020	09:03	-138.212	49.573	0	7.80	0	15.9740	0	32.2230	0	23.620	0	7.733	0	239.0	4	96.5	4	-1E+10	1	-1E+10	1	-1E+10	1	-1E+10	1	-1E+10	1	-1E+10	1
4902551	4	C	09/19/2020	09:03	-138.212	49.573	0	8.90	0	15.9720	0	32.2240	0	23.621	0	8.824	0	239.1	4	96.5	4	-1E+10	1	-1E+10	1	-1E+10	1	-1E+10	1	-1E+10	1	-1E+10	1
4902551	4	C	09/19/2020	09:03	-138.212	49.573	0	10.10	0	15.9720	0	32.2230	0	23.620	0	10.014	0	239.0	4	96.4	4	-1E+10	1	-1E+10	1	-1E+10	1	-1E+10	1	-1E+10	1	-1E+10	1
4902551	4	C	09/19/2020	09:03	-138.212	49.573	0	15.30	0	15.9740	0	32.2220	0	23.619	0	15.169	0	239.1	4	96.5	4	-1E+10	1	-1E+10	1	-1E+10	1	-1E+10	1	-1E+10	1	-1E+10	1
4902551	4	C	09/19/2020	09:03	-138.212	49.573	0	25.90	0	15.9730	0	32.2220	0	23.620	0	25.677	0	239.5	4	96.6	4	-1E+10	1	-1E+10	1	-1E+10	1	-1E+10	1	-1E+10	1	-1E+10	1
4902551	4	C	09/19/2020	09:03	-138.212	49.573	0	35.50	0	15.1930	0	32.2140	0	23.785	0	35.194	0	246.8	4	98.1	4	-1E+10	1	-1E+10	1	-1E+10	1	-1E+10	1	-1E+10	1	-1E+10	1
4902551	4	C	09/19/2020	09:03	-138.212	49.573	0	45.40	0	11.4920	0	32.3310	0	24.612	0	45.008	0	268.5	4	99.0	4	-1E+10	1	-1E+10	1	-1E+10	1	-1E+10	1	-1E+10	1	-1E+10	1
4902551	4	C	09/19/2020	09:03	-138.212	49.573	0	55.70	0	9.1710	0	32.3560	0	25.023	0	55.217	0	270.2	4	94.8	4	-1E+10	1	-1E+10	1	-1E+10	1	-1E+10	1	-1E+10	1	-1E+10	1
4902551	4	C	09/19/2020	09:03	-138.212	49.573	0	65.50	0	7.7440	0	32.3970	0	25.268	0	64.931	0	266.5	4	90.6	4	-1E+10	1	-1E+10	1	-1E+10	1	-1E+10	1	-1E+10	1	-1E+10	1
4902551	4	C	09/19/2020	09:03	-138.212	49.573	0	75.60	0	7.3130	0	32.4230	0	25.348	0	74.941	0	263.9	4	88.9	4	-1E+10	1	-1E+10	1	-1E+10	1	-1E+10	1	-1E+10	1	-1E+10	1
4902551	4	C	09/19/2020	09:03	-138.212	49.573	0	85.40	0	7.0260	0	32.4460	0	25.405	0	84.654	0	263.0	4	88.0	4	-1E+10	1	-1E+10	1	-1E+10	1	-1E+10	1	-1E+10	1	-1E+10	1
4902551	4	C	09/19/2020	09:03	-138.212	49.573	0	95.60	0	6.7470	0	32.4780	0	25.467	0	94.762	0	257.9	4	85.8	4	-1E+10	1	-1E+10	1	-1E+10	1	-1E+10	1	-1E+10	1	-1E+10	1
4902551	4	C	09/19/2020	09:03	-138.212	49.573	0	105.20	0	6.3530	0	32.5890	0	25.605	0	104.276	0	236.9	4	78.1	4	-1E+10	1	-1E+10	1	-1E+10	1	-1E+10	1	-1E+10	1	-1E+10	1
4902551	4	C	09/19/2020	09:03	-138.212	49.573	0	115.60	0	6.4420	0	32.9350	0	25.867	0	114.581	0	196.7	4	65.2	4	-1E+10	1	-1E+10	1	-1E+10	1	-1E+10	1	-1E+10	1	-1E+10	1
4902551	4	C	09/19/2020	09:03	-138.212	49.573	0	125.80	0	6.4760	0	33.2210	0	26.088	0	124.688	0	169.0	4	56.2	4	-1E+10	1	-1E+10	1	-1E+10	1	-1E+10	1	-1E+10	1	-1E+10	1
4902551	4	C	09/19/2020	09:03	-138.212	49.573	0	135.50	0	6.4140	0	33.4120	0	26.247	0	134.300	0	155.1	4	51.5	4	-1E+10	1	-1E+10	1	-1E+10	1	-1E+10	1	-1E+10	1	-1E+10	1
4902551	4	C	09/19/2020	09:03	-138.212	49.573	0	145.50	0	6.3050	0	33.5510	0	26.371	0	144.207	0	145.2	4	48.2	4	-1E+10	1	-1E+10	1	-1E+10	1	-1E+10	1	-1E+10	1	-1E+10	1
4902551	4	C	09/19/2020	09:03	-138.212	49.573	0	155.50	0	6.2170	0	33.6400	0	26.453	0	154.115	0	137.6	4	45.6	4	-1E+10	1	-1E+10	1	-1E+10	1	-1E+10	1	-1E+10	1	-1E+10	1
4902551	4	C	09/19/2020	09:03	-138.212	49.573	0	165.50	0	6.1570	0	33.7100	0	26.516	0	164.022	0	133.6	4	44.2	4	-1E+10	1	-1E+10	1	-1E+10	1	-1E+10	1	-1E+10	1	-1E+10	1
4902551	4	C	09/19/2020	09:03	-138.212	49.573	0	175.50	0	5.9820	0	33.7360	0	26.558	0	173.928	0	129.2	4	42.6	4	-1E+10	1	-1E+10	1	-1E+10	1	-1E+10	1	-1E+10	1	-1E+10	1
4902551	4	C	09/19/2020	09:03	-138.212	49.573	0	185.60	0	5.8620	0	33.7810	0	26.609	0	183.933	0	121.6	4	40.0	4	-1E+10	1	-1E+10	1	-1E+10	1	-1E+10	1	-1E+10	1	-1E+10	1
4902551	4	C	09/19/2020	09:03	-138.212	49.573	0	195.60	0	5.7800	0	33.8110	0	26.643	0	193.839	0	116.7	4	38.3	4	-1E+10	1	-1E+10	1	-1E+10	1	-1E+10	1	-1E+10	1	-1E+10	1
4902551	4	C	09/19/2020	09:03	-138.212	49.573	0	212.90	0	5.5620	0	33.8190	0	26.675	0	210.974	0	110.7	4	36.2	4	-1E+10	1	-1E+10	1	-1E+10	1	-1E+10	1	-1E+10	1	-1E+10	1
4902551	4	C	09/19/2020	09:03	-138.212	49.573	0	237.90	0	5.3660	0	33.8450	0	26.720	0	235.734	0	97.7	4	31.8	4	-1E+10	1	-1E+10	1	-1E+10	1	-1E+10	1	-1E+10	1	-1E+10	1
4902551	4	C	09/19/2020	09:03	-138.212	49.573	0	262.80	0	5.1520	0	33.8630	0	26.759	0	260.392	0	85.3	4	27.6	4	-1E+10	1	-1E+10	1	-1E+10	1	-1E+10	1	-1E+10	1	-1E+10	1
4902551	4	C	09/19/2020	09:03	-138.212	49.573	0	287.90	0	4.9840	0	33.8880	0	26.798	0	285.244	0	73.8	4	23.8	4	-1E+10	1	-1E+10	1	-1E+10	1	-1E+10	1	-1E+10	1	-1E+10	1
4902551	4	C	09/19/2020	09:03	-138.212	49.573	0	313.50	0	4.7840	0	33.9100	0	26.838	0	310.589	0	64.6	4	20.7	4	-1E+10	1	-1E+10	1	-1E+10	1	-1E+10	1	-1E+10	1	-1E+10	1
4902551	4	C	09/19/2020	09:03	-138.212	49.573	0	337.50	0	4.6830	0	33.9330	0	26.868	0	334.347	0	57.0	4	18.3	4	-1E+10	1	-1E+10	1	-1E+10	1	-1E+10	1	-1E+10	1	-1E+10	1
4902551	4	C	09/19/2020	09:03	-138.212	49.573	0	362.50	0	4.5780	0	33.9510	0	26.894	0	359.091	0	52.5	4	16.8	4	-1E+10	1	-1E+10	1	-1E+10	1	-1E+10	1	-1E+10	1	-1E+10	1
4902551	4	C	09/19/2020	09:03	-138.212	49.573	0	387.80	0	4.4860	0	33.9690	0	26.918	0	384.130	0	48.4	4	15.4	4	-1E+10	1	-1E+10	1	-1E+10	1	-1E+10	1	-1E+10	1	-1E+10	1
4902551	4	C	09/19/2020	09:03	-138.212	49.573	0	413.10	0	4.4000	0	33.9930	0	26.947	0	409.166	0	44.2	4	14.1	4	-1E+10	1	-1E+10	1	-1E+10	1	-1E+10	1	-1E+10	1	-1E+10	1
4902551	4	C	09/19/2020	09:03	-138.212	49.573	0	437.60	0	4.3440	0	34.0140	0	26.969	0	433.407	0	40.5	4	12.9	4	-1E+10	1	-1E+10	1	-1E+10	1	-1E+10	1	-1E+10	1	-1E+10	1
4902551	4	C	09/19/2020	09:03	-138.212	49.573	0	462.50	0	4.2810	0	34.0290	0	26.988	0	458.041	0	37.9	4	12.0	4	-1E+10	1	-1E+10	1	-1E+10	1	-1E+10	1	-1E+10	1	-1E+10	1
4902551	4	C	09/19/2020	09:03	-138.212	49.573	0	488.00	0	4.2310	0	34.0510	0	27.011	0	483.265	0	33.1	4	10.5	4	-1E+10	1	-1E+10	1	-1E+10	1	-1E+10	1	-1E+10	1	-1E+10	1
4902551	4	C	09/19/2020	09:03	-138.212	49.573	0	513.00	0	4.1680	0	34.0730	0	27.035	0	507.992	0	30.5	4	9.6	4	-1E+10	1	-1E+10	1	-1E+10	1	-1E+10	1	-1E+10	1	-1E+10	1
4902551	4	C	09/19/2020	09:03	-138.212	49.573	0	537.60	0	4.0970	0	34.0970	0	27.062	0	532.321	0	27.1	4	8.6	4	-1E+10	1	-1E+10	1	-1E+10	1	-1E+10	1	-1E+10	1	-1E+10	1
4902551	4	C	09/19/2020	09:03	-138.212	49.573	0	562.70	0	4.0150	0	34.1260	0	27.094	0	557.140	0	23.8	4	7.5	4	-1E+10	1	-1E+10	1	-1E+10	1	-1E+10	1	-1E+10	1	-1E+10	1
4902551	4	C	09/19/2020	09:03	-138.212	49.573	0	587.80	0	3.9520	0	34.1450	0	27.115	0	581.957	0	21.8	4	6.9	4	-1E+10	1	-1E+10	1	-1E+10	1	-1E+10	1	-1E+10	1	-1E+10	1
4902551	4	C	09/19/2020	09:03	-138.212	49.573	0	613.10	0	3.9000	0	34.1660	0	27.137	0	606.969	0	19.3	4	6.1	4	-1E+10	1	-1E+10	1	-1E+10	1	-1E+10	1	-1E+10	1	-1E+10	1
4902551	4	C	09/19/2020	09:03	-138.212	49.573	0	638.40	0	3.8480	0	34.1840	0	27.157	0	631.978	0	17.9	4	5.6	4	-1E+10	1	-1E+10	1	-1E+10	1	-1E+10	1	-1E+10	1	-1E+10	1
4902551	4	C	09/19/2020	09:03	-138.212	49.573	0	662.70	0	3.7910	0	34.1980	0	27.174	0	655.995	0	17.2	4	5.4	4	-1E+10	1	-1E+10	1	-1E+10	1	-1E+10	1	-1E+10	1	-1E+10	1
4902551	4	C	09/19/2020	09:03	-138.212	49.573	0	687.90	0	3.7190	0	34.2130	0	27.193	0	680.899	0	16.4	4	5.1	4	-1E+10	1	-1E+10	1	-1E+10	1	-1E+10	1	-1E+10	1	-1E+10	1
4902551	4	C	09/19/2020	09:03	-138.212	49.573	0	713.10	0	3.6620	0	34.2320	0	27.214	0	705.800	0	15.1	4	4.7	4	-1E+10	1	-1E+10	1	-1E+10	1	-1E+10	1	-1E+10	1	-1E+10	1
4902551	4	C	09/19/2020	09:03	-138.212	49.573	0	738.30	0	3.6020	0	34.2460	0	27.231	0	730.698	0	14.5	4	4.5	4	-1E+10	1	-1E+10	1	-1E+10	1	-1E+10	1	-1E+10	1	-1E+10	1
4902551	4	C	09/19/2020	09:03	-138.212	49.573	0	763.10	0	3.5450	0	34.2580	0	27.247	0	755.197	0	14.2	4	4.4	4	-1E+10	1	-1E+10	1	-1E+10	1	-1E+10	1	-1E+10	1	-1E+10	1
4902551	4	C	09/19/2020	09:03	-138.212	49.573	0	787.80	0	3.4830	0	34.2690	0	27.262	0	779.596	0	14.0	4	4.4	4	-1E+10	1	-1E+10	1	-1E+10	1	-1E+10	1	-1E+10	1	-1E+10	1
4902551	4	C	09/19/2020	09:03	-138.212	49.573	0	812.90	0	3.4340	0	34.2800	0	27.275	0	804.386	0	13.6	4	4.3	4	-1E+10	1	-1E+10	1	-1E+10	1	-1E+10	1	-1E+10	1	-1E+10	1
4902551	4	C	09/19/2020	09:03	-138.212	49.573	0	839.00	0	3.3640	0	34.2940	0	27.293	0	830.161	0	13.4	4	4.2	4	-1E+10	1	-1E+10	1	-1E+10	1	-1E+10	1	-1E+10	1	-1E+10	1
4902551	4	C	09/19/2020	09:03	-138.212	49.573	0	862.60	0	3.2940	0	34.3070	0	27.310	0	853.464	0	13.1	4	4.1	4	-1E+10	1	-1E+10	1	-1E+10	1	-1E+10	1	-1E+10	1	-1E+10	1
4902551	4	C	09/19/2020	09:03	-138.212	49.573	0	887.40	0	3.2430	0	34.3170	0	27.323	0	877.949	0	12.9	4	4.0	4	-1E+10	1	-1E+10	1	-1E+10	1	-1E+10	1	-1E+10	1	-1E+10	1
4902551	4	C	09/19/2020	09:03	-138.212	49.573	0	912.50	0	3.1990	0	34.3260	0	27.335	0	902.728	0	12.6	4	3.9	4	-1E+10	1	-1E+10	1	-1E+10	1	-1E+10	1	-1E+10	1	-1E+10	1
4902551	4	C	09/19/2020	09:03	-138.212	49.573	0	937.80	0	3.1570	0	34.3350	0	27.346	0	927.701	0	12.4	4	3.8	4	-1E+10	1	-1E+10	1	-1E+10	1	-1E+10	1	-1E+10	1	-1E+10	1
4902551	4	C	09/19/2020	09:03	-138.212	49.573	0	962.90	0	3.1130	0	34.3450	0	27.358	0	952.473	0	12.2	4	3.8	4	-1E+10	1	-1E+10	1	-1E+10	1	-1E+10	1	-1E+10	1	-1E+10	1
4902551	4	C	09/19/2020	09:03	-138.212	49.573	0	988.10	0	3.0710	0	34.3530	0	27.368	0	977.342	0	12.1	4	3.7	4	-1E+10	1	-1E+10	1	-1E+10	1	-1E+10	1	-1E+10	1	-1E+10	1
4902551	4	C	09/19/2020	09:03	-138.212	49.573	0	1013.20	0	3.0310	0	34.3610	0	27.378	0	1002.108	0	12.0	4	3.7	4	-1E+10	1	-1E+10	1	-1E+10	1	-1E+10	1	-1E+10	1	-1E+10	1
4902551	4	C	09/19/2020	09:03	-138.212	49.573	0	1037.90	0	2.9900	0	34.3700	0	27.390	0	1026.478	0	12.0	4	3.7	4	-1E+10	1	-1E+10	1	-1E+10	1	-1E+10	1	-1E+10	1	-1E+10	1
4902551	4	C	09/19/2020	09:03	-138.212	49.573	0	1062.70	0	2.9470	0	34.3790	0	27.401	0	1050.943	0	11.9	4	3.7	4	-1E+10	1	-1E+10	1	-1E+10	1	-1E+10	1	-1E+10	1	-1E+10	1
4902551	4	C	09/19/2020	09:03	-138.212	49.573	0	1088.20	0	2.9060	0	34.3870	0	27.411	0	1076.095	0	11.9	4	3.7	4	-1E+10	1	-1E+10	1	-1E+10	1	-1E+10	1	-1E+10	1	-1E+10	1
4902551	4	C	09/19/2020	09:03	-138.212	49.573	0	1112.60	0	2.8680	0	34.3950	0	27.421	0	1100.160	0	11.9	4	3.7	4	-1E+10	1	-1E+10	1	-1E+10	1	-1E+10	1	-1E+10	1	-1E+10	1
4902551	4	C	09/19/2020	09:03	-138.212	49.573	0	1137.90	0	2.8210	0	34.4050	0	27.433	0	1125.109	0	12.0	4	3.7	4	-1E+10	1	-1E+10	1	-1E+10	1	-1E+10	1	-1E+10	1	-1E+10	1
4902551	4	C	09/19/2020	09:03	-138.212	49.573	0	1162.80	0	2.7750	0	34.4140	0	27.444	0	1149.661	0	12.1	4	3.7	4	-1E+10	1	-1E+10	1	-1E+10	1	-1E+10	1	-1E+10	1	-1E+10	1
4902551	4	C	09/19/2020	09:03	-138.212	49.573	0	1187.40	0	2.7440	0	34.4200	0	27.452	0	1173.915	0	12.3	4	3.8	4	-1E+10	1	-1E+10	1	-1E+10	1	-1E+10	1	-1E+10	1	-1E+10	1
4902551	4	C	09/19/2020	09:03	-138.212	49.573	0	1212.80	0	2.7060	0	34.4280	0	27.462	0	1198.954	0	12.5	4	3.8	4	-1E+10	1	-1E+10	1	-1E+10	1	-1E+10	1	-1E+10	1	-1E+10	1
4902551	4	C	09/19/2020	09:03	-138.212	49.573	0	1238.00	0	2.6720	0	34.4350	0	27.471	0	1223.793	0	12.7	4	3.9	4	-1E+10	1	-1E+10	1	-1E+10	1	-1E+10	1	-1E+10	1	-1E+10	1
4902551	4	C	09/19/2020	09:03	-138.212	49.573	0	1263.80	0	2.6400	0	34.4410	0	27.478	0	1249.220	0	13.0	4	4.0	4	-1E+10	1	-1E+10	1	-1E+10	1	-1E+10	1	-1E+10	1	-1E+10	1
4902551	4	C	09/19/2020	09:03	-138.212	49.573	0	1287.80	0	2.6140	0	34.4460	0	27.485	0	1272.871	0	13.2	4	4.0	4	-1E+10	1	-1E+10	1	-1E+10	1	-1E+10	1	-1E+10	1	-1E+10	1
4902551	4	C	09/19/2020	09:03	-138.212	49.573	0	1312.50	0	2.5830	0	34.4520	0	27.492	0	1297.208	0	13.6	4	4.2	4	-1E+10	1	-1E+10	1	-1E+10	1	-1E+10	1	-1E+10	1	-1E+10	1
4902551	4	C	09/19/2020	09:03	-138.212	49.573	0	1337.60	0	2.5510	0	34.4590	0	27.501	0	1321.937	0	14.1	4	4.3	4	-1E+10	1	-1E+10	1	-1E+10	1	-1E+10	1	-1E+10	1	-1E+10	1
4902551	4	C	09/19/2020	09:03	-138.212	49.573	0	1362.80	0	2.5290	0	34.4640	0	27.507	0	1346.762	0	14.4	4	4.4	4	-1E+10	1	-1E+10	1	-1E+10	1	-1E+10	1	-1E+10	1	-1E+10	1
4902551	4	C	09/19/2020	09:03	-138.212	49.573	0	1388.00	0	2.5050	0	34.4680	0	27.512	0	1371.583	0	15.0	4	4.6	4	-1E+10	1	-1E+10	1	-1E+10	1	-1E+10	1	-1E+10	1	-1E+10	1
4902551	4	C	09/19/2020	09:03	-138.212	49.573	0	1412.90	0	2.4840	0	34.4740	0	27.519	0	1396.106	0	15.1	4	4.6	4	-1E+10	1	-1E+10	1	-1E+10	1	-1E+10	1	-1E+10	1	-1E+10	1
4902551	4	C	09/19/2020	09:03	-138.212	49.573	0	1437.90	0	2.4640	0	34.4800	0	27.525	0	1420.725	0	15.7	4	4.8	4	-1E+10	1	-1E+10	1	-1E+10	1	-1E+10	1	-1E+10	1	-1E+10	1
4902551	4	C	09/19/2020	09:03	-138.212	49.573	0	1463.80	0	2.4360	0	34.4860	0	27.533	0	1446.227	0	16.5	4	5.0	4	-1E+10	1	-1E+10	1	-1E+10	1	-1E+10	1	-1E+10	1	-1E+10	1
4902551	4	C	09/19/2020	09:03	-138.212	49.573	0	1487.70	0	2.4120	0	34.4920	0	27.540	0	1469.757	0	17.4	4	5.3	4	-1E+10	1	-1E+10	1	-1E+10	1	-1E+10	1	-1E+10	1	-1E+10	1
4902551	4	C	09/19/2020	09:03	-138.212	49.573	0	1512.90	0	2.3830	0	34.4970	0	27.546	0	1494.564	0	18.5	4	5.6	4	-1E+10	1	-1E+10	1	-1E+10	1	-1E+10	1	-1E+10	1	-1E+10	1
4902551	4	C	09/19/2020	09:03	-138.212	49.573	0	1537.80	0	2.3590	0	34.5020	0	27.552	0	1519.073	0	19.7	4	6.0	4	-1E+10	1	-1E+10	1	-1E+10	1	-1E+10	1	-1E+10	1	-1E+10	1
4902551	4	C	09/19/2020	09:03	-138.212	49.573	0	1562.50	0	2.3300	0	34.5070	0	27.559	0	1543.382	0	21.1	4	6.4	4	-1E+10	1	-1E+10	1	-1E+10	1	-1E+10	1	-1E+10	1	-1E+10	1
4902551	4	C	09/19/2020	09:03	-138.212	49.573	0	1587.70	0	2.3000	0	34.5140	0	27.567	0	1568.180	0	22.7	4	6.9	4	-1E+10	1	-1E+10	1	-1E+10	1	-1E+10	1	-1E+10	1	-1E+10	1
4902551	4	C	09/19/2020	09:03	-138.212	49.573	0	1612.80	0	2.2660	0	34.5190	0	27.574	0	1592.878	0	24.5	4	7.4	4	-1E+10	1	-1E+10	1	-1E+10	1	-1E+10	1	-1E+10	1	-1E+10	1
4902551	4	C	09/19/2020	09:03	-138.212	49.573	0	1637.90	0	2.2380	0	34.5240	0	27.580	0	1617.572	0	26.0	4	7.9	4	-1E+10	1	-1E+10	1	-1E+10	1	-1E+10	1	-1E+10	1	-1E+10	1
4902551	4	C	09/19/2020	09:03	-138.212	49.573	0	1664.00	0	2.2170	0	34.5290	0	27.586	0	1643.247	0	27.3	4	8.3	4	-1E+10	1	-1E+10	1	-1E+10	1	-1E+10	1	-1E+10	1	-1E+10	1
4902551	4	C	09/19/2020	09:03	-138.212	49.573	0	1687.90	0	2.1910	0	34.5330	0	27.591	0	1666.755	0	28.9	4	8.8	4	-1E+10	1	-1E+10	1	-1E+10	1	-1E+10	1	-1E+10	1	-1E+10	1
4902551	4	C	09/19/2020	09:03	-138.212	49.573	0	1713.00	0	2.1630	0	34.5370	0	27.597	0	1691.440	0	30.6	4	9.3	4	-1E+10	1	-1E+10	1	-1E+10	1	-1E+10	1	-1E+10	1	-1E+10	1
4902551	4	C	09/19/2020	09:03	-138.212	49.573	0	1737.90	0	2.1400	0	34.5410	0	27.602	0	1715.926	0	32.1	4	9.7	4	-1E+10	1	-1E+10	1	-1E+10	1	-1E+10	1	-1E+10	1	-1E+10	1
4902551	4	C	09/19/2020	09:03	-138.212	49.573	0	1762.90	0	2.1180	0	34.5460	0	27.608	0	1740.508	0	33.8	4	10.2	4	-1E+10	1	-1E+10	1	-1E+10	1	-1E+10	1	-1E+10	1	-1E+10	1
4902551	4	C	09/19/2020	09:03	-138.212	49.573	0	1788.20	0	2.0970	0	34.5500	0	27.613	0	1765.381	0	35.3	4	10.7	4	-1E+10	1	-1E+10	1	-1E+10	1	-1E+10	1	-1E+10	1	-1E+10	1
4902551	4	C	09/19/2020	09:03	-138.212	49.573	0	1812.70	0	2.0830	0	34.5530	0	27.617	0	1789.465	0	36.5	4	11.0	4	-1E+10	1	-1E+10	1	-1E+10	1	-1E+10	1	-1E+10	1	-1E+10	1
4902551	4	C	09/19/2020	09:03	-138.212	49.573	0	1837.40	0	2.0660	0	34.5560	0	27.621	0	1813.743	0	37.9	4	11.4	4	-1E+10	1	-1E+10	1	-1E+10	1	-1E+10	1	-1E+10	1	-1E+10	1
4902551	4	C	09/19/2020	09:03	-138.212	49.573	0	1862.60	0	2.0480	0	34.5600	0	27.625	0	1838.510	0	39.4	4	11.9	4	-1E+10	1	-1E+10	1	-1E+10	1	-1E+10	1	-1E+10	1	-1E+10	1
4902551	4	C	09/19/2020	09:03	-138.212	49.573	0	1887.80	0	2.0270	0	34.5640	0	27.630	0	1863.274	0	41.3	4	12.5	4	-1E+10	1	-1E+10	1	-1E+10	1	-1E+10	1	-1E+10	1	-1E+10	1
4902551	4	C	09/19/2020	09:03	-138.212	49.573	0	1912.70	0	2.0020	0	34.5690	0	27.636	0	1887.740	0	43.2	4	13.0	4	-1E+10	1	-1E+10	1	-1E+10	1	-1E+10	1	-1E+10	1	-1E+10	1
4902551	4	C	09/19/2020	09:03	-138.212	49.573	0	1938.40	0	1.9860	0	34.5730	0	27.641	0	1912.989	0	44.7	4	13.5	4	-1E+10	1	-1E+10	1	-1E+10	1	-1E+10	1	-1E+10	1	-1E+10	1
4902551	4	C	09/19/2020	09:03	-138.212	49.573	0	1962.90	0	1.9690	0	34.5760	0	27.645	0	1937.057	0	46.2	4	13.9	4	-1E+10	1	-1E+10	1	-1E+10	1	-1E+10	1	-1E+10	1	-1E+10	1
4902551	4	C	09/19/2020	09:03	-138.212	49.573	0	1987.80	0	1.9540	0	34.5790	0	27.648	0	1961.514	0	47.4	4	14.3	4	-1E+10	1	-1E+10	1	-1E+10	1	-1E+10	1	-1E+10	1	-1E+10	1
4902551	4	C	09/19/2020	09:03	-138.212	49.573	0	2013.10	0	1.9400	0	34.5820	0	27.652	0	1986.362	0	48.9	4	14.7	4	-1E+10	1	-1E+10	1	-1E+10	1	-1E+10	1	-1E+10	1	-1E+10	1
4902551	4	C	09/19/2020	09:03	-138.212	49.573	0	2028.30	0	1.9250	0	34.5850	0	27.656	0	2001.289	0	49.5	4	14.9	4	-1E+10	1	-1E+10	1	-1E+10	1	-1E+10	1	-1E+10	1	-1E+10	1
4902551	4	C	09/19/2020	09:03	-138.212	49.573	0																										
4902551	5	C	09/29/2020	09:05	-138.057	49.534	0	0.30	0	14.5360	0	32.1700	0	23.890	0	0.297	0	240.8	4	94.4	4	-1E+10	1	-1E+10	1	-1E+10	1	-1E+10	1	-1E+10	1	-1E+10	1
4902551	5	C	09/29/2020	09:05	-138.057	49.534	0	0.90	0	14.5380	0	32.1700	0	23.890	0	0.892	0	240.7	4	94.4	4	-1E+10	1	-1E+10	1	-1E+10	1	-1E+10	1	-1E+10	1	-1E+10	1
4902551	5	C	09/29/2020	09:05	-138.057	49.534	0	1.90	0	14.5320	0	32.1740	0	23.894	0	1.884	0	240.8	4	94.4	4	-1E+10	1	-1E+10	1	-1E+10	1	-1E+10	1	-1E+10	1	-1E+10	1
4902551	5	C	09/29/2020	09:05	-138.057	49.534	0	3.10	0	14.5330	0	32.1750	0	23.895	0	3.074	0	240.7	4	94.4	4	-1E+10	1	-1E+10	1	-1E+10	1	-1E+10	1	-1E+10	1	-1E+10	1
4902551	5	C	09/29/2020	09:05	-138.057	49.534	0	4.00	0	14.5340	0	32.1760	0	23.896	0	3.966	0	240.7	4	94.4	4	-1E+10	1	-1E+10	1	-1E+10	1	-1E+10	1	-1E+10	1	-1E+10	1
4902551	5	C	09/29/2020	09:05	-138.057	49.534	0	4.70	0	14.5340	0	32.1760	0	23.896	0	4.660	0	240.7	4	94.4	4	-1E+10	1	-1E+10	1	-1E+10	1	-1E+10	1	-1E+10	1	-1E+10	1
4902551	5	C	09/29/2020	09:05	-138.057	49.534	0	5.80	0	14.5350	0	32.1760	0	23.895	0	5.750	0	240.7	4	94.4	4	-1E+10	1	-1E+10	1	-1E+10	1	-1E+10	1	-1E+10	1	-1E+10	1
4902551	5	C	09/29/2020	09:05	-138.057	49.534	0	7.10	0	14.5350	0	32.1760	0	23.895	0	7.039	0	240.7	4	94.4	4	-1E+10	1	-1E+10	1	-1E+10	1	-1E+10	1	-1E+10	1	-1E+10	1
4902551	5	C	09/29/2020	09:05	-138.057	49.534	0	7.80	0	14.5350	0	32.1760	0	23.895	0	7.733	0	240.7	4	94.4	4	-1E+10	1	-1E+10	1	-1E+10	1	-1E+10	1	-1E+10	1	-1E+10	1
4902551	5	C	09/29/2020	09:05	-138.057	49.534	0	9.00	0	14.5350	0	32.1760	0	23.896	0	8.923	0	240.7	4	94.4	4	-1E+10	1	-1E+10	1	-1E+10	1	-1E+10	1	-1E+10	1	-1E+10	1
4902551	5	C	09/29/2020	09:05	-138.057	49.534	0	10.20	0	14.5350	0	32.1760	0	23.896	0	10.113	0	240.6	4	94.3	4	-1E+10	1	-1E+10	1	-1E+10	1	-1E+10	1	-1E+10	1	-1E+10	1
4902551	5	C	09/29/2020	09:05	-138.057	49.534	0	15.50	0	14.5360	0	32.1760	0	23.896	0	15.367	0	240.6	4	94.4	4	-1E+10	1	-1E+10	1	-1E+10	1	-1E+10	1	-1E+10	1	-1E+10	1
4902551	5	C	09/29/2020	09:05	-138.057	49.534	0	25.20	0	14.5370	0	32.1760	0	23.896	0	24.984	0	240.6	4	94.4	4	-1E+10	1	-1E+10	1	-1E+10	1	-1E+10	1	-1E+10	1	-1E+10	1
4902551	5	C	09/29/2020	09:05	-138.057	49.534	0	35.40	0	14.5350	0	32.1760	0	23.896	0	35.095	0	241.0	4	94.5	4	-1E+10	1	-1E+10	1	-1E+10	1	-1E+10	1	-1E+10	1	-1E+10	1
4902551	5	C	09/29/2020	09:05	-138.057	49.534	0	45.50	0	14.0080	0	32.1980	0	24.023	0	45.107	0	247.2	4	95.9	4	-1E+10	1	-1E+10	1	-1E+10	1	-1E+10	1	-1E+10	1	-1E+10	1
4902551	5	C	09/29/2020	09:05	-138.057	49.534	0	55.60	0	9.8240	0	32.3350	0	24.902	0	55.118	0	265.9	4	94.6	4	-1E+10	1	-1E+10	1	-1E+10	1	-1E+10	1	-1E+10	1	-1E+10	1
4902551	5	C	09/29/2020	09:05	-138.057	49.534	0	65.40	0	8.1930	0	32.3940	0	25.201	0	64.832	0	263.3	4	90.4	4	-1E+10	1	-1E+10	1	-1E+10	1	-1E+10	1	-1E+10	1	-1E+10	1
4902551	5	C	09/29/2020	09:05	-138.057	49.534	0	75.40	0	7.4160	0	32.4280	0	25.338	0	74.743	0	261.1	4	88.1	4	-1E+10	1	-1E+10	1	-1E+10	1	-1E+10	1	-1E+10	1	-1E+10	1
4902551	5	C	09/29/2020	09:05	-138.057	49.534	0	85.50	0	6.9220	0	32.4660	0	25.435	0	84.753	0	256.0	4	85.5	4	-1E+10	1	-1E+10	1	-1E+10	1	-1E+10	1	-1E+10	1	-1E+10	1
4902551	5	C	09/29/2020	09:05	-138.057	49.534	0	95.50	0	6.5490	0	32.5920	0	25.583	0	94.663	0	237.8	4	78.8	4	-1E+10	1	-1E+10	1	-1E+10	1	-1E+10	1	-1E+10	1	-1E+10	1
4902551	5	C	09/29/2020	09:05	-138.057	49.534	0	105.50	0	6.5480	0	32.7780	0	25.730	0	104.573	0	212.4	4	70.5	4	-1E+10	1	-1E+10	1	-1E+10	1	-1E+10	1	-1E+10	1	-1E+10	1
4902551	5	C	09/29/2020	09:05	-138.057	49.534	0	115.00	0	6.5220	0	33.0540	0	25.951	0	113.987	0	182.8	4	60.7	4	-1E+10	1	-1E+10	1	-1E+10	1	-1E+10	1	-1E+10	1	-1E+10	1
4902551	5	C	09/29/2020	09:05	-138.057	49.534	0	125.60	0	6.4810	0	33.3390	0	26.181	0	124.491	0	154.0	4	51.2	4	-1E+10	1	-1E+10	1	-1E+10	1	-1E+10	1	-1E+10	1	-1E+10	1
4902551	5	C	09/29/2020	09:05	-138.057	49.534	0	135.30	0	6.4430	0	33.5140	0	26.324	0	134.102	0	139.5	4	46.4	4	-1E+10	1	-1E+10	1	-1E+10	1	-1E+10	1	-1E+10	1	-1E+10	1
4902551	5	C	09/29/2020	09:05	-138.057	49.534	0	145.30	0	6.4710	0	33.6470	0	26.425	0	144.010	0	127.9	4	42.6	4	-1E+10	1	-1E+10	1	-1E+10	1	-1E+10	1	-1E+10	1	-1E+10	1
4902551	5	C	09/29/2020	09:05	-138.057	49.534	0	155.20	0	6.4380	0	33.7300	0	26.495	0	153.818	0	122.8	4	40.9	4	-1E+10	1	-1E+10	1	-1E+10	1	-1E+10	1	-1E+10	1	-1E+10	1
4902551	5	C	09/29/2020	09:05	-138.057	49.534	0	165.20	0	6.2590	0	33.7620	0	26.544	0	163.725	0	122.1	4	40.5	4	-1E+10	1	-1E+10	1	-1E+10	1	-1E+10	1	-1E+10	1	-1E+10	1
4902551	5	C	09/29/2020	09:05	-138.057	49.534	0	175.10	0	6.1310	0	33.7800	0	26.574	0	173.533	0	119.7	4	39.6	4	-1E+10	1	-1E+10	1	-1E+10	1	-1E+10	1	-1E+10	1	-1E+10	1
4902551	5	C	09/29/2020	09:05	-138.057	49.534	0	185.10	0	6.0070	0	33.7970	0	26.603	0	183.439	0	119.0	4	39.3	4	-1E+10	1	-1E+10	1	-1E+10	1	-1E+10	1	-1E+10	1	-1E+10	1
4902551	5	C	09/29/2020	09:05	-138.057	49.534	0	195.20	0	5.8180	0	33.7990	0	26.628	0	193.443	0	115.2	4	37.9	4	-1E+10	1	-1E+10	1	-1E+10	1	-1E+10	1	-1E+10	1	-1E+10	1
4902551	5	C	09/29/2020	09:05	-138.057	49.534	0	212.90	0	5.6900	0	33.8360	0	26.673	0	210.975	0	103.0	4	33.8	4	-1E+10	1	-1E+10	1	-1E+10	1	-1E+10	1	-1E+10	1	-1E+10	1
4902551	5	C	09/29/2020	09:05	-138.057	49.534	0	237.80	0	5.3960	0	33.8620	0	26.729	0	235.636	0	89.0	4	29.0	4	-1E+10	1	-1E+10	1	-1E+10	1	-1E+10	1	-1E+10	1	-1E+10	1
4902551	5	C	09/29/2020	09:05	-138.057	49.534	0	263.10	0	5.1330	0	33.8810	0	26.775	0	260.690	0	78.1	4	25.3	4	-1E+10	1	-1E+10	1	-1E+10	1	-1E+10	1	-1E+10	1	-1E+10	1
4902551	5	C	09/29/2020	09:05	-138.057	49.534	0	287.80	0	4.9240	0	33.8960	0	26.811	0	285.146	0	71.1	4	22.9	4	-1E+10	1	-1E+10	1	-1E+10	1	-1E+10	1	-1E+10	1	-1E+10	1
4902551	5	C	09/29/2020	09:05	-138.057	49.534	0	313.10	0	4.8080	0	33.9070	0	26.833	0	310.194	0	66.0	4	21.2	4	-1E+10	1	-1E+10	1	-1E+10	1	-1E+10	1	-1E+10	1	-1E+10	1
4902551	5	C	09/29/2020	09:05	-138.057	49.534	0	338.00	0	4.6930	0	33.9230	0	26.859	0	334.843	0	59.9	4	19.2	4	-1E+10	1	-1E+10	1	-1E+10	1	-1E+10	1	-1E+10	1	-1E+10	1
4902551	5	C	09/29/2020	09:05	-138.057	49.534	0	362.50	0	4.5840	0	33.9430	0	26.887	0	359.093	0	54.0	4	17.3	4	-1E+10	1	-1E+10	1	-1E+10	1	-1E+10	1	-1E+10	1	-1E+10	1
4902551	5	C	09/29/2020	09:05	-138.057	49.534	0	387.80	0	4.4530	0	33.9740	0	26.926	0	384.131	0	48.5	4	15.5	4	-1E+10	1	-1E+10	1	-1E+10	1	-1E+10	1	-1E+10	1	-1E+10	1
4902551	5	C	09/29/2020	09:05	-138.057	49.534	0	412.90	0	4.3750	0	33.9950	0	26.951	0	408.969	0	45.0	4	14.3	4	-1E+10	1	-1E+10	1	-1E+10	1	-1E+10	1	-1E+10	1	-1E+10	1
4902551	5	C	09/29/2020	09:05	-138.057	49.534	0	437.70	0	4.2980	0	34.0200	0	26.979	0	433.507	0	39.4	4	12.5	4	-1E+10	1	-1E+10	1	-1E+10	1	-1E+10	1	-1E+10	1	-1E+10	1
4902551	5	C	09/29/2020	09:05	-138.057	49.534	0	462.60	0	4.2160	0	34.0520	0	27.013	0	458.141	0	33.9	4	10.7	4	-1E+10	1	-1E+10	1	-1E+10	1	-1E+10	1	-1E+10	1	-1E+10	1
4902551	5	C	09/29/2020	09:05	-138.057	49.534	0	488.30	0	4.1470	0	34.0760	0	27.040	0	483.564	0	29.8	4	9.4	4	-1E+10	1	-1E+10	1	-1E+10	1	-1E+10	1	-1E+10	1	-1E+10	1
4902551	5	C	09/29/2020	09:05	-138.057	49.534	0	512.40	0	4.0760	0	34.1010	0	27.067	0	507.401	0	26.1	4	8.3	4	-1E+10	1	-1E+10	1	-1E+10	1	-1E+10	1	-1E+10	1	-1E+10	1
4902551	5	C	09/29/2020	09:05	-138.057	49.534	0	537.70	0	4.0280	0	34.1220	0	27.089	0	532.421	0	22.9	4	7.2	4	-1E+10	1	-1E+10	1	-1E+10	1	-1E+10	1	-1E+10	1	-1E+10	1
4902551	5	C	09/29/2020	09:05	-138.057	49.534	0	562.60	0	3.9770	0	34.1390	0	27.108	0	557.044	0	21.2	4	6.7	4	-1E+10	1	-1E+10	1	-1E+10	1	-1E+10	1	-1E+10	1	-1E+10	1
4902551	5	C	09/29/2020	09:05	-138.057	49.534	0	588.20	0	3.9220	0	34.1570	0	27.128	0	582.355	0	19.6	4	6.2	4	-1E+10	1	-1E+10	1	-1E+10	1	-1E+10	1	-1E+10	1	-1E+10	1
4902551	5	C	09/29/2020	09:05	-138.057	49.534	0	613.00	0	3.8650	0	34.1760	0	27.149	0	606.872	0	18.2	4	5.7	4	-1E+10	1	-1E+10	1	-1E+10	1	-1E+10	1	-1E+10	1	-1E+10	1
4902551	5	C	09/29/2020	09:05	-138.057	49.534	0	637.80	0	3.8150	0	34.1890	0	27.164	0	631.387	0	17.6	4	5.5	4	-1E+10	1	-1E+10	1	-1E+10	1	-1E+10	1	-1E+10	1	-1E+10	1
4902551	5	C	09/29/2020	09:05	-138.057	49.534	0	663.00	0	3.7660	0	34.2010	0	27.179	0	656.294	0	17.1	4	5.4	4	-1E+10	1	-1E+10	1	-1E+10	1	-1E+10	1	-1E+10	1	-1E+10	1
4902551	5	C	09/29/2020	09:05	-138.057	49.534	0	688.10	0	3.7090	0	34.2160	0	27.197	0	681.099	0	16.3	4	5.1	4	-1E+10	1	-1E+10	1	-1E+10	1	-1E+10	1	-1E+10	1	-1E+10	1
4902551	5	C	09/29/2020	09:05	-138.057	49.534	0	712.80	0	3.6680	0	34.2280	0	27.211	0	705.506	0	15.4	4	4.8	4	-1E+10	1	-1E+10	1	-1E+10	1	-1E+10	1	-1E+10	1	-1E+10	1
4902551	5	C	09/29/2020	09:05	-138.057	49.534	0	737.60	0	3.6200	0	34.2410	0	27.226	0	730.009	0	14.6	4	4.6	4	-1E+10	1	-1E+10	1	-1E+10	1	-1E+10	1	-1E+10	1	-1E+10	1
4902551	5	C	09/29/2020	09:05	-138.057	49.534	0	762.60	0	3.5590	0	34.2550	0	27.243	0	754.706	0	14.1	4	4.4	4	-1E+10	1	-1E+10	1	-1E+10	1	-1E+10	1	-1E+10	1	-1E+10	1
4902551	5	C	09/29/2020	09:05	-138.057	49.534	0	787.80	0	3.5000	0	34.2680	0	27.259	0	779.598	0	14.0	4	4.4	4	-1E+10	1	-1E+10	1	-1E+10	1	-1E+10	1	-1E+10	1	-1E+10	1
4902551	5	C	09/29/2020	09:05	-138.057	49.534	0	813.30	0	3.4450	0	34.2780	0	27.273	0	804.784	0	13.5	4	4.2	4	-1E+10	1	-1E+10	1	-1E+10	1	-1E+10	1	-1E+10	1	-1E+10	1
4902551	5	C	09/29/2020	09:05	-138.057	49.534	0	838.90	0	3.3760	0	34.2920	0	27.290	0	830.065	0	13.4	4	4.2	4	-1E+10	1	-1E+10	1	-1E+10	1	-1E+10	1	-1E+10	1	-1E+10	1
4902551	5	C	09/29/2020	09:05	-138.057	49.534	0	862.70	0	3.3170	0	34.3020	0	27.304	0	853.566	0	13.3	4	4.1	4	-1E+10	1	-1E+10	1	-1E+10	1	-1E+10	1	-1E+10	1	-1E+10	1
4902551	5	C	09/29/2020	09:05	-138.057	49.534	0	887.70	0	3.2610	0	34.3140	0	27.319	0	878.248	0	12.9	4	4.0	4	-1E+10	1	-1E+10	1	-1E+10	1	-1E+10	1	-1E+10	1	-1E+10	1
4902551	5	C	09/29/2020	09:05	-138.057	49.534	0	912.60	0	3.2130	0	34.3230	0	27.331	0	902.830	0	12.6	4	3.9	4	-1E+10	1	-1E+10	1	-1E+10	1	-1E+10	1	-1E+10	1	-1E+10	1
4902551	5	C	09/29/2020	09:05	-138.057	49.534	0	937.50	0	3.1740	0	34.3320	0	27.342	0	927.408	0	12.4	4	3.8	4	-1E+10	1	-1E+10	1	-1E+10	1	-1E+10	1	-1E+10	1	-1E+10	1
4902551	5	C	09/29/2020	09:05	-138.057	49.534	0	962.60	0	3.1330	0	34.3410	0	27.353	0	952.181	0	12.2	4	3.8	4	-1E+10	1	-1E+10	1	-1E+10	1	-1E+10	1	-1E+10	1	-1E+10	1
4902551	5	C	09/29/2020	09:05	-138.057	49.534	0	988.00	0	3.0820	0	34.3510	0	27.366	0	977.246	0	12.1	4	3.7	4	-1E+10	1	-1E+10	1	-1E+10	1	-1E+10	1	-1E+10	1	-1E+10	1
4902551	5	C	09/29/2020	09:05	-138.057	49.534	0	1012.90	0	3.0370	0	34.3620	0	27.379	0	1001.816	0	11.9	4	3.7	4	-1E+10	1	-1E+10	1	-1E+10	1	-1E+10	1	-1E+10	1	-1E+10	1
4902551	5	C	09/29/2020	09:05	-138.057	49.534	0	1037.70	0	2.9860	0	34.3730	0	27.392	0	1026.284	0	11.8	4	3.6	4	-1E+10	1	-1E+10	1	-1E+10	1	-1E+10	1	-1E+10	1	-1E+10	1
4902551	5	C	09/29/2020	09:05	-138.057	49.534	0	1063.70	0	2.9450	0	34.3820	0	27.403	0	1051.933	0	11.8	4	3.6	4	-1E+10	1	-1E+10	1	-1E+10	1	-1E+10	1	-1E+10	1	-1E+10	1
4902551	5	C	09/29/2020	09:05	-138.057	49.534	0	1087.50	0	2.9020	0	34.3890	0	27.413	0	1075.408	0	11.8	4	3.6	4	-1E+10	1	-1E+10	1	-1E+10	1	-1E+10	1	-1E+10	1	-1E+10	1
4902551	5	C	09/29/2020	09:05	-138.057	49.534	0	1112.50	0	2.8660	0	34.3960	0	27.422	0	1100.065	0	11.8	4	3.6	4	-1E+10	1	-1E+10	1	-1E+10	1	-1E+10	1	-1E+10	1	-1E+10	1
4902551	5	C	09/29/2020	09:05	-138.057	49.534	0	1138.00	0	2.8300	0	34.4040	0	27.431	0	1125.212	0	11.9	4	3.7	4	-1E+10	1	-1E+10	1	-1E+10	1	-1E+10	1	-1E+10	1	-1E+10	1
4902551	5	C	09/29/2020	09:05	-138.057	49.534	0	1162.90	0	2.7940	0	34.4100	0	27.440	0	1149.764	0	12.0	4	3.7	4	-1E+10	1	-1E+10	1	-1E+10	1	-1E+10	1	-1E+10	1	-1E+10	1
4902551	5	C	09/29/2020	09:05	-138.057	49.534	0	1187.70	0	2.7600	0	34.4170	0	27.448	0	1174.214	0	12.1	4	3.7	4	-1E+10	1	-1E+10	1	-1E+10	1	-1E+10	1	-1E+10	1	-1E+10	1
4902551	5	C	09/29/2020	09:05	-138.057	49.534	0	1213.60	0	2.7250	0	34.4250	0	27.458	0	1199.746	0	12.4	4	3.8	4	-1E+10	1	-1E+10	1	-1E+10	1	-1E+10	1	-1E+10	1	-1E+10	1
4902551	5	C	09/29/2020	09:05	-138.057	49.534	0	1237.70	0	2.6890	0	34.4320	0	27.467	0	1223.501	0	12.7	4	3.9	4	-1E+10	1	-1E+10	1	-1E+10	1	-1E+10	1	-1E+10	1	-1E+10	1
4902551	5	C	09/29/2020	09:05	-138.057	49.534	0	1263.00	0	2.6570	0	34.4380	0	27.474	0	1248.436	0	13.0	4	4.0	4	-1E+10	1	-1E+10	1	-1E+10	1	-1E+10	1	-1E+10	1	-1E+10	1
4902551	5	C	09/29/2020	09:05	-138.057	49.534	0	1287.80	0	2.6270	0	34.4440	0	27.482	0	1272.875	0	13.2	4	4.0	4	-1E+10	1	-1E+10	1	-1E+10	1	-1E+10	1	-1E+10	1	-1E+10	1
4902551	5	C	09/29/2020	09:05	-138.057	49.534	0	1312.40	0	2.5940	0	34.4510	0	27.490	0	1297.114	0	13.5	4	4.1	4	-1E+10	1	-1E+10	1	-1E+10	1	-1E+10	1	-1E+10	1	-1E+10	1
4902551	5	C	09/29/2020	09:05	-138.057	49.534	0	1337.50	0	2.5640	0	34.4570	0	27.498	0	1321.843	0	13.8	4	4.2	4	-1E+10	1	-1E+10	1	-1E+10	1	-1E+10	1	-1E+10	1	-1E+10	1
4902551	5	C	09/29/2020	09:05	-138.057	49.534	0	1362.70	0	2.5420	0	34.4620	0	27.504	0	1346.668	0	14.1	4	4.3	4	-1E+10	1	-1E+10	1	-1E+10	1	-1E+10	1	-1E+10	1	-1E+10	1
4902551	5	C	09/29/2020	09:05	-138.057	49.534	0	1387.80	0	2.5140	0	34.4690	0	27.512	0	1371.391	0	14.6	4	4.5	4	-1E+10	1	-1E+10	1	-1E+10	1	-1E+10	1	-1E+10	1	-1E+10	1
4902551	5	C	09/29/2020	09:05	-138.057	49.534	0	1413.20	0	2.4800	0	34.4740	0	27.519	0	1396.407	0	15.5	4	4.7	4	-1E+10	1	-1E+10	1	-1E+10	1	-1E+10	1	-1E+10	1	-1E+10	1
4902551	5	C	09/29/2020	09:05	-138.057	49.534	0	1437.80	0	2.4550	0	34.4800	0	27.526	0	1420.632	0	15.9	4	4.8	4	-1E+10	1	-1E+10	1	-1E+10	1	-1E+10	1	-1E+10	1	-1E+10	1
4902551	5	C	09/29/2020	09:05	-138.057	49.534	0	1463.50	0	2.4330	0	34.4880	0	27.534	0	1445.937	0	16.5	4	5.0	4	-1E+10	1	-1E+10	1	-1E+10	1	-1E+10	1	-1E+10	1	-1E+10	1
4902551	5	C	09/29/2020	09:05	-138.057	49.534	0	1487.60	0	2.4090	0	34.4930	0	27.541	0	1469.664	0	17.5	4	5.3	4	-1E+10	1	-1E+10	1	-1E+10	1	-1E+10	1	-1E+10	1	-1E+10	1
4902551	5	C	09/29/2020	09:05	-138.057	49.534	0	1512.70	0	2.3820	0	34.4990	0	27.548	0	1494.372	0	18.6	4	5.7	4	-1E+10	1	-1E+10	1	-1E+10	1	-1E+10	1	-1E+10	1	-1E+10	1
4902551	5	C	09/29/2020	09:05	-138.057	49.534	0	1537.80	0	2.3520	0	34.5030	0	27.554	0	1519.078	0	19.9	4	6.0	4	-1E+10	1	-1E+10	1	-1E+10	1	-1E+10	1	-1E+10	1	-1E+10	1
4902551	5	C	09/29/2020	09:05	-138.057	49.534	0	1562.80	0	2.3310	0	34.5080	0	27.559	0	1543.683	0	20.9	4	6.4	4	-1E+10	1	-1E+10	1	-1E+10	1	-1E+10	1	-1E+10	1	-1E+10	1
4902551	5	C	09/29/2020	09:05	-138.057	49.534	0	1588.10	0	2.3040	0	34.5140	0	27.567	0	1568.580	0	22.4	4	6.8	4	-1E+10	1	-1E+10	1	-1E+10	1	-1E+10	1	-1E+10	1	-1E+10	1
4902551	5	C	09/29/2020	09:05	-138.057	49.534	0	1613.20	0	2.2790	0	34.5190	0	27.573	0	1593.277	0	23.6	4	7.2	4	-1E+10	1	-1E+10	1	-1E+10	1	-1E+10	1	-1E+10	1	-1E+10	1
4902551	5	C	09/29/2020	09:05	-138.057	49.534	0	1638.60	0	2.2590	0	34.5220	0	27.577	0	1618.266	0	24.8	4	7.5	4	-1E+10	1	-1E+10	1	-1E+10	1	-1E+10	1	-1E+10	1	-1E+10	1
4902551	5	C	09/29/2020	09:05	-138.057	49.534	0	1662.60	0	2.2380	0	34.5260	0	27.582	0	1641.875	0	26.0	4	7.9	4	-1E+10	1	-1E+10	1	-1E+10	1	-1E+10	1	-1E+10	1	-1E+10	1
4902551	5	C	09/29/2020	09:05	-138.057	49.534	0	1688.00	0	2.2180	0	34.5290	0	27.586	0	1666.859	0	27.4	4	8.3	4	-1E+10	1	-1E+10	1	-1E+10	1	-1E+10	1	-1E+10	1	-1E+10	1
4902551	5	C	09/29/2020	09:05	-138.057	49.534	0	1713.20	0	2.1930	0	34.5330	0	27.591	0	1691.643	0	29.0	4	8.8	4	-1E+10	1	-1E+10	1	-1E+10	1	-1E+10	1	-1E+10	1	-1E+10	1
4902551	5	C	09/29/2020	09:05	-138.057	49.534	0	1738.20	0	2.1670	0	34.5380	0	27.598	0	1716.227	0	30.4	4	9.2	4	-1E+10	1	-1E+10	1	-1E+10	1	-1E+10	1	-1E+10	1	-1E+10	1
4902551	5	C	09/29/2020	09:05	-138.057	49.534	0	1762.80	0	2.1480	0	34.5410	0	27.602	0	1740.415	0	31.8	4	9.6	4	-1E+10	1	-1E+10	1	-1E+10	1	-1E+10	1	-1E+10	1	-1E+10	1
4902551	5	C	09/29/2020	09:05	-138.057	49.534	0	1787.80	0	2.1220	0	34.5470	0	27.609	0	1764.994	0	33.9	4	10.3	4	-1E+10	1	-1E+10	1	-1E+10	1	-1E+10	1	-1E+10	1	-1E+10	1
4902551	5	C	09/29/2020	09:05	-138.057	49.534	0	1812.70	0	2.0910	0	34.5510	0	27.614	0	1789.471	0	35.9	4	10.9	4	-1E+10	1	-1E+10	1	-1E+10	1	-1E+10	1	-1E+10	1	-1E+10	1
4902551	5	C	09/29/2020	09:05	-138.057	49.534	0	1837.60	0	2.0700	0	34.5560	0	27.620	0	1813.946	0	37.6	4	11.4	4	-1E+10	1	-1E+10	1	-1E+10	1	-1E+10	1	-1E+10	1	-1E+10	1
4902551	5	C	09/29/2020	09:05	-138.057	49.534	0	1862.80	0	2.0490	0	34.5610	0	27.626	0	1838.713	0	39.3	4	11.9	4	-1E+10	1	-1E+10	1	-1E+10	1	-1E+10	1	-1E+10	1	-1E+10	1
4902551	5	C	09/29/2020	09:05	-138.057	49.534	0	1888.00	0	2.0300	0	34.5650	0	27.631	0	1863.477	0	40.9	4	12.3	4	-1E+10	1	-1E+10	1	-1E+10	1	-1E+10	1	-1E+10	1	-1E+10	1
4902551	5	C	09/29/2020	09:05	-138.057	49.534	0	1912.70	0	2.0100	0	34.5680	0	27.635	0	1887.746	0	42.5	4	12.8	4	-1E+10	1	-1E+10	1	-1E+10	1	-1E+10	1	-1E+10	1	-1E+10	1
4902551	5	C	09/29/2020	09:05	-138.057	49.534	0	1937.50	0	1.9900	0	34.5720	0	27.640	0	1912.112	0	44.3	4	13.3	4	-1E+10	1	-1E+10	1	-1E+10	1	-1E+10	1	-1E+10	1	-1E+10	1
4902551	5	C	09/29/2020	09:05	-138.057	49.534	0	1963.60	0	1.9710	0	34.5760	0	27.645	0	1937.751	0	45.9	4	13.8	4	-1E+10	1	-1E+10	1	-1E+10	1	-1E+10	1	-1E+10	1	-1E+10	1
4902551	5	C	09/29/2020	09:05	-138.057	49.534	0	1988.00	0	1.9540	0	34.5790	0	27.648	0	1961.717	0	47.3	4	14.3	4	-1E+10	1	-1E+10	1	-1E+10	1	-1E+10	1	-1E+10	1	-1E+10	1
4902551	5	C	09/29/2020	09:05	-138.057	49.534	0	2008.00	0	1.9380	0	34.5830	0	27.653	0	1981.360	0	48.2	4	14.5	4	-1E+10	1	-1E+10	1	-1E+10	1	-1E+10	1	-1E+10	1	-1E+10	1
4902551	5	C	09/29/2020	09:05	-138.057	49.534	0																										
4902551	6	C	10/09/2020	09:11	-137.872	49.471	0	0.20	0	14.9050	0	32.2030	0	23.838	0	0.198	0	240.1	4	94.9	4	-1E+10	1	-1E+10	1	-1E+10	1	-1E+10	1	-1E+10	1	-1E+10	1
4902551	6	C	10/09/2020	09:11	-137.872	49.471	0	1.10	0	14.9050	0	32.2030	0	23.838	0	1.091	0	240.1	4	94.9	4	-1E+10	1	-1E+10	1	-1E+10	1	-1E+10	1	-1E+10	1	-1E+10	1
4902551	6	C	10/09/2020	09:11	-137.872	49.471	0	1.90	0	14.9060	0	32.2040	0	23.838	0	1.884	0	240.1	4	94.9	4	-1E+10	1	-1E+10	1	-1E+10	1	-1E+10	1	-1E+10	1	-1E+10	1
4902551	6	C	10/09/2020	09:11	-137.872	49.471	0	2.90	0	14.9070	0	32.2030	0	23.837	0	2.875	0	240.1	4	94.9	4	-1E+10	1	-1E+10	1	-1E+10	1	-1E+10	1	-1E+10	1	-1E+10	1
4902551	6	C	10/09/2020	09:11	-137.872	49.471	0	4.00	0	14.9090	0	32.2030	0	23.837	0	3.966	0	240.1	4	94.9	4	-1E+10	1	-1E+10	1	-1E+10	1	-1E+10	1	-1E+10	1	-1E+10	1
4902551	6	C	10/09/2020	09:11	-137.872	49.471	0	5.00	0	14.9090	0	32.2030	0	23.837	0	4.957	0	240.0	4	94.8	4	-1E+10	1	-1E+10	1	-1E+10	1	-1E+10	1	-1E+10	1	-1E+10	1
4902551	6	C	10/09/2020	09:11	-137.872	49.471	0	6.00	0	14.9080	0	32.2020	0	23.836	0	5.949	0	240.1	4	94.9	4	-1E+10	1	-1E+10	1	-1E+10	1	-1E+10	1	-1E+10	1	-1E+10	1
4902551	6	C	10/09/2020	09:11	-137.872	49.471	0	7.00	0	14.9080	0	32.2030	0	23.837	0	6.940	0	240.0	4	94.8	4	-1E+10	1	-1E+10	1	-1E+10	1	-1E+10	1	-1E+10	1	-1E+10	1
4902551	6	C	10/09/2020	09:11	-137.872	49.471	0	7.80	0	14.9080	0	32.2030	0	23.837	0	7.733	0	240.1	4	94.9	4	-1E+10	1	-1E+10	1	-1E+10	1	-1E+10	1	-1E+10	1	-1E+10	1
4902551	6	C	10/09/2020	09:11	-137.872	49.471	0	8.80	0	14.9090	0	32.2020	0	23.836	0	8.725	0	240.0	4	94.8	4	-1E+10	1	-1E+10	1	-1E+10	1	-1E+10	1	-1E+10	1	-1E+10	1
4902551	6	C	10/09/2020	09:11	-137.872	49.471	0	9.80	0	14.9090	0	32.2030	0	23.837	0	9.716	0	239.9	4	94.8	4	-1E+10	1	-1E+10	1	-1E+10	1	-1E+10	1	-1E+10	1	-1E+10	1
4902551	6	C	10/09/2020	09:11	-137.872	49.471	0	15.60	0	14.9090	0	32.2030	0	23.837	0	15.466	0	240.0	4	94.8	4	-1E+10	1	-1E+10	1	-1E+10	1	-1E+10	1	-1E+10	1	-1E+10	1
4902551	6	C	10/09/2020	09:11	-137.872	49.471	0	25.40	0	14.9120	0	32.2040	0	23.838	0	25.182	0	239.9	4	94.8	4	-1E+10	1	-1E+10	1	-1E+10	1	-1E+10	1	-1E+10	1	-1E+10	1
4902551	6	C	10/09/2020	09:11	-137.872	49.471	0	35.40	0	13.8200	0	32.2410	0	24.094	0	35.095	0	245.8	4	95.1	4	-1E+10	1	-1E+10	1	-1E+10	1	-1E+10	1	-1E+10	1	-1E+10	1
4902551	6	C	10/09/2020	09:11	-137.872	49.471	0	45.70	0	10.0570	0	32.3810	0	24.899	0	45.305	0	260.8	4	93.3	4	-1E+10	1	-1E+10	1	-1E+10	1	-1E+10	1	-1E+10	1	-1E+10	1
4902551	6	C	10/09/2020	09:11	-137.872	49.471	0	55.30	0	9.3120	0	32.3960	0	25.032	0	54.821	0	260.5	4	91.7	4	-1E+10	1	-1E+10	1	-1E+10	1	-1E+10	1	-1E+10	1	-1E+10	1
4902551	6	C	10/09/2020	09:11	-137.872	49.471	0	65.40	0	8.5920	0	32.4060	0	25.151	0	64.832	0	262.0	4	90.8	4	-1E+10	1	-1E+10	1	-1E+10	1	-1E+10	1	-1E+10	1	-1E+10	1
4902551	6	C	10/09/2020	09:11	-137.872	49.471	0	75.20	0	7.7120	0	32.4090	0	25.282	0	74.545	0	264.2	4	89.8	4	-1E+10	1	-1E+10	1	-1E+10	1	-1E+10	1	-1E+10	1	-1E+10	1
4902551	6	C	10/09/2020	09:11	-137.872	49.471	0	85.40	0	7.2160	0	32.4340	0	25.370	0	84.654	0	263.5	4	88.6	4	-1E+10	1	-1E+10	1	-1E+10	1	-1E+10	1	-1E+10	1	-1E+10	1
4902551	6	C	10/09/2020	09:11	-137.872	49.471	0	95.50	0	6.7280	0	32.4640	0	25.459	0	94.664	0	262.3	4	87.2	4	-1E+10	1	-1E+10	1	-1E+10	1	-1E+10	1	-1E+10	1	-1E+10	1
4902551	6	C	10/09/2020	09:11	-137.872	49.471	0	105.50	0	6.3290	0	32.5230	0	25.556	0	104.574	0	250.3	4	82.5	4	-1E+10	1	-1E+10	1	-1E+10	1	-1E+10	1	-1E+10	1	-1E+10	1
4902551	6	C	10/09/2020	09:11	-137.872	49.471	0	115.80	0	6.3740	0	32.7810	0	25.754	0	114.781	0	206.9	4	68.4	4	-1E+10	1	-1E+10	1	-1E+10	1	-1E+10	1	-1E+10	1	-1E+10	1
4902551	6	C	10/09/2020	09:11	-137.872	49.471	0	125.50	0	6.4800	0	33.2110	0	26.080	0	124.392	0	165.9	4	55.1	4	-1E+10	1	-1E+10	1	-1E+10	1	-1E+10	1	-1E+10	1	-1E+10	1
4902551	6	C	10/09/2020	09:11	-137.872	49.471	0	135.40	0	6.3840	0	33.4160	0	26.254	0	134.202	0	153.8	4	51.1	4	-1E+10	1	-1E+10	1	-1E+10	1	-1E+10	1	-1E+10	1	-1E+10	1
4902551	6	C	10/09/2020	09:11	-137.872	49.471	0	145.10	0	6.2960	0	33.5680	0	26.386	0	143.812	0	139.2	4	46.2	4	-1E+10	1	-1E+10	1	-1E+10	1	-1E+10	1	-1E+10	1	-1E+10	1
4902551	6	C	10/09/2020	09:11	-137.872	49.471	0	155.40	0	6.2710	0	33.6930	0	26.487	0	154.017	0	132.4	4	43.9	4	-1E+10	1	-1E+10	1	-1E+10	1	-1E+10	1	-1E+10	1	-1E+10	1
4902551	6	C	10/09/2020	09:11	-137.872	49.471	0	165.50	0	6.0370	0	33.7180	0	26.537	0	164.023	0	130.8	4	43.2	4	-1E+10	1	-1E+10	1	-1E+10	1	-1E+10	1	-1E+10	1	-1E+10	1
4902551	6	C	10/09/2020	09:11	-137.872	49.471	0	175.60	0	6.0710	0	33.7650	0	26.570	0	174.029	0	120.7	4	39.9	4	-1E+10	1	-1E+10	1	-1E+10	1	-1E+10	1	-1E+10	1	-1E+10	1
4902551	6	C	10/09/2020	09:11	-137.872	49.471	0	185.70	0	5.9640	0	33.7940	0	26.606	0	184.034	0	117.5	4	38.7	4	-1E+10	1	-1E+10	1	-1E+10	1	-1E+10	1	-1E+10	1	-1E+10	1
4902551	6	C	10/09/2020	09:11	-137.872	49.471	0	195.40	0	5.7990	0	33.8130	0	26.642	0	193.643	0	112.3	4	36.9	4	-1E+10	1	-1E+10	1	-1E+10	1	-1E+10	1	-1E+10	1	-1E+10	1
4902551	6	C	10/09/2020	09:11	-137.872	49.471	0	212.40	0	5.5570	0	33.8300	0	26.685	0	210.481	0	107.1	4	35.0	4	-1E+10	1	-1E+10	1	-1E+10	1	-1E+10	1	-1E+10	1	-1E+10	1
4902551	6	C	10/09/2020	09:11	-137.872	49.471	0	237.80	0	5.3410	0	33.8350	0	26.715	0	235.637	0	99.6	4	32.4	4	-1E+10	1	-1E+10	1	-1E+10	1	-1E+10	1	-1E+10	1	-1E+10	1
4902551	6	C	10/09/2020	09:11	-137.872	49.471	0	263.50	0	5.1230	0	33.8490	0	26.751	0	261.087	0	90.2	4	29.2	4	-1E+10	1	-1E+10	1	-1E+10	1	-1E+10	1	-1E+10	1	-1E+10	1
4902551	6	C	10/09/2020	09:11	-137.872	49.471	0	287.70	0	4.9330	0	33.8700	0	26.790	0	285.049	0	79.2	4	25.5	4	-1E+10	1	-1E+10	1	-1E+10	1	-1E+10	1	-1E+10	1	-1E+10	1
4902551	6	C	10/09/2020	09:11	-137.872	49.471	0	312.80	0	4.7910	0	33.8920	0	26.823	0	309.899	0	69.9	4	22.4	4	-1E+10	1	-1E+10	1	-1E+10	1	-1E+10	1	-1E+10	1	-1E+10	1
4902551	6	C	10/09/2020	09:11	-137.872	49.471	0	338.10	0	4.6840	0	33.9180	0	26.856	0	334.944	0	61.3	4	19.6	4	-1E+10	1	-1E+10	1	-1E+10	1	-1E+10	1	-1E+10	1	-1E+10	1
4902551	6	C	10/09/2020	09:11	-137.872	49.471	0	362.90	0	4.5850	0	33.9400	0	26.884	0	359.491	0	55.4	4	17.7	4	-1E+10	1	-1E+10	1	-1E+10	1	-1E+10	1	-1E+10	1	-1E+10	1
4902551	6	C	10/09/2020	09:11	-137.872	49.471	0	387.70	0	4.4920	0	33.9630	0	26.913	0	384.035	0	50.3	4	16.1	4	-1E+10	1	-1E+10	1	-1E+10	1	-1E+10	1	-1E+10	1	-1E+10	1
4902551	6	C	10/09/2020	09:11	-137.872	49.471	0	413.90	0	4.4260	0	33.9850	0	26.937	0	409.961	0	46.4	4	14.8	4	-1E+10	1	-1E+10	1	-1E+10	1	-1E+10	1	-1E+10	1	-1E+10	1
4902551	6	C	10/09/2020	09:11	-137.872	49.471	0	438.00	0	4.3550	0	34.0010	0	26.958	0	433.807	0	44.2	4	14.1	4	-1E+10	1	-1E+10	1	-1E+10	1	-1E+10	1	-1E+10	1	-1E+10	1
4902551	6	C	10/09/2020	09:11	-137.872	49.471	0	462.70	0	4.2970	0	34.0190	0	26.979	0	458.243	0	39.9	4	12.7	4	-1E+10	1	-1E+10	1	-1E+10	1	-1E+10	1	-1E+10	1	-1E+10	1
4902551	6	C	10/09/2020	09:11	-137.872	49.471	0	487.60	0	4.2430	0	34.0450	0	27.005	0	482.874	0	35.0	4	11.1	4	-1E+10	1	-1E+10	1	-1E+10	1	-1E+10	1	-1E+10	1	-1E+10	1
4902551	6	C	10/09/2020	09:11	-137.872	49.471	0	512.60	0	4.1730	0	34.0630	0	27.027	0	507.601	0	31.9	4	10.1	4	-1E+10	1	-1E+10	1	-1E+10	1	-1E+10	1	-1E+10	1	-1E+10	1
4902551	6	C	10/09/2020	09:11	-137.872	49.471	0	537.90	0	4.1240	0	34.0850	0	27.050	0	532.622	0	27.4	4	8.7	4	-1E+10	1	-1E+10	1	-1E+10	1	-1E+10	1	-1E+10	1	-1E+10	1
4902551	6	C	10/09/2020	09:11	-137.872	49.471	0	563.90	0	4.0680	0	34.1080	0	27.074	0	558.332	0	24.2	4	7.6	4	-1E+10	1	-1E+10	1	-1E+10	1	-1E+10	1	-1E+10	1	-1E+10	1
4902551	6	C	10/09/2020	09:11	-137.872	49.471	0	587.80	0	3.9970	0	34.1330	0	27.101	0	581.963	0	21.3	4	6.7	4	-1E+10	1	-1E+10	1	-1E+10	1	-1E+10	1	-1E+10	1	-1E+10	1
4902551	6	C	10/09/2020	09:11	-137.872	49.471	0	612.90	0	3.9390	0	34.1550	0	27.125	0	606.777	0	19.6	4	6.2	4	-1E+10	1	-1E+10	1	-1E+10	1	-1E+10	1	-1E+10	1	-1E+10	1
4902551	6	C	10/09/2020	09:11	-137.872	49.471	0	637.90	0	3.8890	0	34.1690	0	27.141	0	631.489	0	18.7	4	5.9	4	-1E+10	1	-1E+10	1	-1E+10	1	-1E+10	1	-1E+10	1	-1E+10	1
4902551	6	C	10/09/2020	09:11	-137.872	49.471	0	663.20	0	3.8300	0	34.1850	0	27.160	0	656.495	0	17.7	4	5.6	4	-1E+10	1	-1E+10	1	-1E+10	1	-1E+10	1	-1E+10	1	-1E+10	1
4902551	6	C	10/09/2020	09:11	-137.872	49.471	0	688.00	0	3.7730	0	34.2030	0	27.180	0	681.004	0	16.4	4	5.1	4	-1E+10	1	-1E+10	1	-1E+10	1	-1E+10	1	-1E+10	1	-1E+10	1
4902551	6	C	10/09/2020	09:11	-137.872	49.471	0	713.10	0	3.7120	0	34.2200	0	27.200	0	705.806	0	15.7	4	4.9	4	-1E+10	1	-1E+10	1	-1E+10	1	-1E+10	1	-1E+10	1	-1E+10	1
4902551	6	C	10/09/2020	09:11	-137.872	49.471	0	738.00	0	3.6530	0	34.2340	0	27.217	0	730.408	0	14.7	4	4.6	4	-1E+10	1	-1E+10	1	-1E+10	1	-1E+10	1	-1E+10	1	-1E+10	1
4902551	6	C	10/09/2020	09:11	-137.872	49.471	0	762.90	0	3.5950	0	34.2520	0	27.237	0	755.007	0	13.7	4	4.3	4	-1E+10	1	-1E+10	1	-1E+10	1	-1E+10	1	-1E+10	1	-1E+10	1
4902551	6	C	10/09/2020	09:11	-137.872	49.471	0	788.20	0	3.5240	0	34.2680	0	27.257	0	779.998	0	13.5	4	4.2	4	-1E+10	1	-1E+10	1	-1E+10	1	-1E+10	1	-1E+10	1	-1E+10	1
4902551	6	C	10/09/2020	09:11	-137.872	49.471	0	813.50	0	3.4430	0	34.2780	0	27.273	0	804.986	0	13.6	4	4.2	4	-1E+10	1	-1E+10	1	-1E+10	1	-1E+10	1	-1E+10	1	-1E+10	1
4902551	6	C	10/09/2020	09:11	-137.872	49.471	0	837.80	0	3.3980	0	34.2880	0	27.285	0	828.983	0	13.1	4	4.1	4	-1E+10	1	-1E+10	1	-1E+10	1	-1E+10	1	-1E+10	1	-1E+10	1
4902551	6	C	10/09/2020	09:11	-137.872	49.471	0	863.00	0	3.3430	0	34.3010	0	27.301	0	853.867	0	12.7	4	4.0	4	-1E+10	1	-1E+10	1	-1E+10	1	-1E+10	1	-1E+10	1	-1E+10	1
4902551	6	C	10/09/2020	09:11	-137.872	49.471	0	888.10	0	3.2640	0	34.3140	0	27.319	0	878.648	0	12.6	4	3.9	4	-1E+10	1	-1E+10	1	-1E+10	1	-1E+10	1	-1E+10	1	-1E+10	1
4902551	6	C	10/09/2020	09:11	-137.872	49.471	0	912.80	0	3.2060	0	34.3260	0	27.334	0	903.032	0	12.3	4	3.8	4	-1E+10	1	-1E+10	1	-1E+10	1	-1E+10	1	-1E+10	1	-1E+10	1
4902551	6	C	10/09/2020	09:11	-137.872	49.471	0	938.00	0	3.1610	0	34.3360	0	27.346	0	927.907	0	12.1	4	3.7	4	-1E+10	1	-1E+10	1	-1E+10	1	-1E+10	1	-1E+10	1	-1E+10	1
4902551	6	C	10/09/2020	09:11	-137.872	49.471	0	963.30	0	3.1090	0	34.3470	0	27.360	0	952.877	0	11.9	4	3.7	4	-1E+10	1	-1E+10	1	-1E+10	1	-1E+10	1	-1E+10	1	-1E+10	1
4902551	6	C	10/09/2020	09:11	-137.872	49.471	0	988.20	0	3.0700	0	34.3550	0	27.370	0	977.449	0	11.8	4	3.7	4	-1E+10	1	-1E+10	1	-1E+10	1	-1E+10	1	-1E+10	1	-1E+10	1
4902551	6	C	10/09/2020	09:11	-137.872	49.471	0	1013.60	0	3.0290	0	34.3640	0	27.381	0	1002.512	0	11.9	4	3.7	4	-1E+10	1	-1E+10	1	-1E+10	1	-1E+10	1	-1E+10	1	-1E+10	1
4902551	6	C	10/09/2020	09:11	-137.872	49.471	0	1037.80	0	2.9920	0	34.3700	0	27.389	0	1026.389	0	11.9	4	3.7	4	-1E+10	1	-1E+10	1	-1E+10	1	-1E+10	1	-1E+10	1	-1E+10	1
4902551	6	C	10/09/2020	09:11	-137.872	49.471	0	1062.80	0	2.9560	0	34.3770	0	27.398	0	1051.051	0	11.8	4	3.7	4	-1E+10	1	-1E+10	1	-1E+10	1	-1E+10	1	-1E+10	1	-1E+10	1
4902551	6	C	10/09/2020	09:11	-137.872	49.471	0	1088.10	0	2.9150	0	34.3860	0	27.409	0	1076.006	0	11.8	4	3.6	4	-1E+10	1	-1E+10	1	-1E+10	1	-1E+10	1	-1E+10	1	-1E+10	1
4902551	6	C	10/09/2020	09:11	-137.872	49.471	0	1113.00	0	2.8790	0	34.3930	0	27.418	0	1100.564	0	11.8	4	3.6	4	-1E+10	1	-1E+10	1	-1E+10	1	-1E+10	1	-1E+10	1	-1E+10	1
4902551	6	C	10/09/2020	09:11	-137.872	49.471	0	1138.00	0	2.8390	0	34.4020	0	27.429	0	1125.218	0	11.8	4	3.6	4	-1E+10	1	-1E+10	1	-1E+10	1	-1E+10	1	-1E+10	1	-1E+10	1
4902551	6	C	10/09/2020	09:11	-137.872	49.471	0	1162.60	0	2.7940	0	34.4110	0	27.440	0	1149.475	0	11.9	4	3.7	4	-1E+10	1	-1E+10	1	-1E+10	1	-1E+10	1	-1E+10	1	-1E+10	1
4902551	6	C	10/09/2020	09:11	-137.872	49.471	0	1187.70	0	2.7580	0	34.4180	0	27.449	0	1174.221	0	12.1	4	3.7	4	-1E+10	1	-1E+10	1	-1E+10	1	-1E+10	1	-1E+10	1	-1E+10	1
4902551	6	C	10/09/2020	09:11	-137.872	49.471	0	1213.70	0	2.7270	0	34.4240	0	27.457	0	1199.852	0	12.3	4	3.8	4	-1E+10	1	-1E+10	1	-1E+10	1	-1E+10	1	-1E+10	1	-1E+10	1
4902551	6	C	10/09/2020	09:11	-137.872	49.471	0	1237.60	0	2.6950	0	34.4300	0	27.465	0	1223.410	0	12.6	4	3.9	4	-1E+10	1	-1E+10	1	-1E+10	1	-1E+10	1	-1E+10	1	-1E+10	1
4902551	6	C	10/09/2020	09:11	-137.872	49.471	0	1262.60	0	2.6730	0	34.4350	0	27.471	0	1248.049	0	12.8	4	3.9	4	-1E+10	1	-1E+10	1	-1E+10	1	-1E+10	1	-1E+10	1	-1E+10	1
4902551	6	C	10/09/2020	09:11	-137.872	49.471	0	1287.70	0	2.6470	0	34.4400	0	27.477	0	1272.784	0	13.0	4	4.0	4	-1E+10	1	-1E+10	1	-1E+10	1	-1E+10	1	-1E+10	1	-1E+10	1
4902551	6	C	10/09/2020	09:11	-137.872	49.471	0	1312.80	0	2.6170	0	34.4460	0	27.485	0	1297.516	0	13.3	4	4.1	4	-1E+10	1	-1E+10	1	-1E+10	1	-1E+10	1	-1E+10	1	-1E+10	1
4902551	6	C	10/09/2020	09:11	-137.872	49.471	0	1338.00	0	2.5920	0	34.4510	0	27.491	0	1322.344	0	13.6	4	4.2	4	-1E+10	1	-1E+10	1	-1E+10	1	-1E+10	1	-1E+10	1	-1E+10	1
4902551	6	C	10/09/2020	09:11	-137.872	49.471	0	1363.30	0	2.5630	0	34.4570	0	27.498	0	1347.267	0	14.1	4	4.3	4	-1E+10	1	-1E+10	1	-1E+10	1	-1E+10	1	-1E+10	1	-1E+10	1
4902551	6	C	10/09/2020	09:11	-137.872	49.471	0	1388.20	0	2.5350	0	34.4620	0	27.505	0	1371.793	0	14.5	4	4.4	4	-1E+10	1	-1E+10	1	-1E+10	1	-1E+10	1	-1E+10	1	-1E+10	1
4902551	6	C	10/09/2020	09:11	-137.872	49.471	0	1413.20	0	2.5110	0	34.4670	0	27.511	0	1396.415	0	15.0	4	4.6	4	-1E+10	1	-1E+10	1	-1E+10	1	-1E+10	1	-1E+10	1	-1E+10	1
4902551	6	C	10/09/2020	09:11	-137.872	49.471	0	1438.50	0	2.4860	0	34.4720	0	27.517	0	1421.329	0	15.5	4	4.7	4	-1E+10	1	-1E+10	1	-1E+10	1	-1E+10	1	-1E+10	1	-1E+10	1
4902551	6	C	10/09/2020	09:11	-137.872	49.471	0	1463.20	0	2.4620	0	34.4780	0	27.524	0	1445.650	0	16.1	4	4.9	4	-1E+10	1	-1E+10	1	-1E+10	1	-1E+10	1	-1E+10	1	-1E+10	1
4902551	6	C	10/09/2020	09:11	-137.872	49.471	0	1487.70	0	2.4320	0	34.4850	0	27.532	0	1469.771	0	16.8	4	5.1	4	-1E+10	1	-1E+10	1	-1E+10	1	-1E+10	1	-1E+10	1	-1E+10	1
4902551	6	C	10/09/2020	09:11	-137.872	49.471	0	1512.70	0	2.4040	0	34.4900	0	27.539	0	1494.381	0	17.8	4	5.4	4	-1E+10	1	-1E+10	1	-1E+10	1	-1E+10	1	-1E+10	1	-1E+10	1
4902551	6	C	10/09/2020	09:11	-137.872	49.471	0	1538.00	0	2.3810	0	34.4960	0	27.546	0	1519.284	0	18.6	4	5.7	4	-1E+10	1	-1E+10	1	-1E+10	1	-1E+10	1	-1E+10	1	-1E+10	1
4902551	6	C	10/09/2020	09:11	-137.872	49.471	0	1563.20	0	2.3590	0	34.5020	0	27.552	0	1544.085	0	19.7	4	6.0	4	-1E+10	1	-1E+10	1	-1E+10	1	-1E+10	1	-1E+10	1	-1E+10	1
4902551	6	C	10/09/2020	09:11	-137.872	49.471	0	1588.10	0	2.3310	0	34.5090	0	27.560	0	1568.589	0	21.0	4	6.4	4	-1E+10	1	-1E+10	1	-1E+10	1	-1E+10	1	-1E+10	1	-1E+10	1
4902551	6	C	10/09/2020	09:11	-137.872	49.471	0	1612.80	0	2.3010	0	34.5140	0	27.567	0	1592.892	0	22.5	4	6.8	4	-1E+10	1	-1E+10	1	-1E+10	1	-1E+10	1	-1E+10	1	-1E+10	1
4902551	6	C	10/09/2020	09:11	-137.872	49.471	0	1637.60	0	2.2780	0	34.5180	0	27.572	0	1617.291	0	23.9	4	7.3	4	-1E+10	1	-1E+10	1	-1E+10	1	-1E+10	1	-1E+10	1	-1E+10	1
4902551	6	C	10/09/2020	09:11	-137.872	49.471	0	1662.60	0	2.2480	0	34.5230	0	27.579	0	1641.885	0	25.7	4	7.8	4	-1E+10	1	-1E+10	1	-1E+10	1	-1E+10	1	-1E+10	1	-1E+10	1
4902551	6	C	10/09/2020	09:11	-137.872	49.471	0	1687.80	0	2.2170	0	34.5290	0	27.586	0	1666.672	0	27.4	4	8.3	4	-1E+10	1	-1E+10	1	-1E+10	1	-1E+10	1	-1E+10	1	-1E+10	1
4902551	6	C	10/09/2020	09:11	-137.872	49.471	0	1712.70	0	2.1920	0	34.5340	0	27.592	0	1691.161	0	29.2	4	8.8	4	-1E+10	1	-1E+10	1	-1E+10	1	-1E+10	1	-1E+10	1	-1E+10	1
4902551	6	C	10/09/2020	09:11	-137.872	49.471	0	1738.40	0	2.1630	0	34.5410	0	27.600	0	1716.434	0	31.1	4	9.4	4	-1E+10	1	-1E+10	1	-1E+10	1	-1E+10	1	-1E+10	1	-1E+10	1
4902551	6	C	10/09/2020	09:11	-137.872	49.471	0	1762.60	0	2.1420	0	34.5450	0	27.605	0	1740.229	0	32.7	4	9.9	4	-1E+10	1	-1E+10	1	-1E+10	1	-1E+10	1	-1E+10	1	-1E+10	1
4902551	6	C	10/09/2020	09:11	-137.872	49.471	0	1787.80	0	2.1190	0	34.5500	0	27.611	0	1765.004	0	34.3	4	10.4	4	-1E+10	1	-1E+10	1	-1E+10	1	-1E+10	1	-1E+10	1	-1E+10	1
4902551	6	C	10/09/2020	09:11	-137.872	49.471	0	1813.20	0	2.1000	0	34.5540	0	27.616	0	1789.973	0	35.8	4	10.8	4	-1E+10	1	-1E+10	1	-1E+10	1	-1E+10	1	-1E+10	1	-1E+10	1
4902551	6	C	10/09/2020	09:11	-137.872	49.471	0	1837.90	0	2.0740	0	34.5580	0	27.622	0	1814.252	0	37.9	4	11.4	4	-1E+10	1	-1E+10	1	-1E+10	1	-1E+10	1	-1E+10	1	-1E+10	1
4902551	6	C	10/09/2020	09:11	-137.872	49.471	0	1863.40	0	2.0440	0	34.5630	0	27.628	0	1839.313	0	39.8	4	12.0	4	-1E+10	1	-1E+10	1	-1E+10	1	-1E+10	1	-1E+10	1	-1E+10	1
4902551	6	C	10/09/2020	09:11	-137.872	49.471	0	1887.90	0	2.0250	0	34.5650	0	27.631	0	1863.389	0	41.1	4	12.4	4	-1E+10	1	-1E+10	1	-1E+10	1	-1E+10	1	-1E+10	1	-1E+10	1
4902551	6	C	10/09/2020	09:11	-137.872	49.471	0	1912.70	0	2.0140	0	34.5680	0	27.635	0	1887.757	0	42.2	4	12.7	4	-1E+10	1	-1E+10	1	-1E+10	1	-1E+10	1	-1E+10	1	-1E+10	1
4902551	6	C	10/09/2020	09:11	-137.872	49.471	0	1937.60	0	1.9960	0	34.5710	0	27.639	0	1912.221	0	43.8	4	13.2	4	-1E+10	1	-1E+10	1	-1E+10	1	-1E+10	1	-1E+10	1	-1E+10	1
4902551	6	C	10/09/2020	09:11	-137.872	49.471	0	1962.60	0	1.9760	0	34.5740	0	27.643	0	1936.780	0	45.4	4	13.7	4	-1E+10	1	-1E+10	1	-1E+10	1	-1E+10	1	-1E+10	1	-1E+10	1
4902551	6	C	10/09/2020	09:11	-137.872	49.471	0	1987.50	0	1.9610	0	34.5780	0	27.647	0	1961.238	0	46.8	4	14.1	4	-1E+10	1	-1E+10	1	-1E+10	1	-1E+10	1	-1E+10	1	-1E+10	1
4902551	6	C	10/09/2020	09:11	-137.872	49.471	0	2011.40	0	1.9450	0	34.5810	0	27.651	0	1984.711	0	47.6	4	14.3	4	-1E+10	1	-1E+10	1	-1E+10	1	-1E+10	1	-1E+10	1	-1E+10	1
4902551	6	C	10/09/2020	09:11	-137.872	49.471	0																										
4902551	7	C	10/19/2020	09:05	-137.736	49.416	0	0.40	0	14.2140	0	32.2160	0	23.993	0	0.397	0	243.8	4	95.0	4	-1E+10	1	-1E+10	1	-1E+10	1	-1E+10	1	-1E+10	1	-1E+10	1
4902551	7	C	10/19/2020	09:05	-137.736	49.416	0	0.90	0	14.2140	0	32.2170	0	23.994	0	0.892	0	243.9	4	95.1	4	-1E+10	1	-1E+10	1	-1E+10	1	-1E+10	1	-1E+10	1	-1E+10	1
4902551	7	C	10/19/2020	09:05	-137.736	49.416	0	2.00	0	14.2140	0	32.2170	0	23.994	0	1.983	0	243.8	4	95.0	4	-1E+10	1	-1E+10	1	-1E+10	1	-1E+10	1	-1E+10	1	-1E+10	1
4902551	7	C	10/19/2020	09:05	-137.736	49.416	0	3.20	0	14.2170	0	32.2170	0	23.993	0	3.173	0	243.8	4	95.0	4	-1E+10	1	-1E+10	1	-1E+10	1	-1E+10	1	-1E+10	1	-1E+10	1
4902551	7	C	10/19/2020	09:05	-137.736	49.416	0	4.00	0	14.2160	0	32.2180	0	23.994	0	3.966	0	243.8	4	95.0	4	-1E+10	1	-1E+10	1	-1E+10	1	-1E+10	1	-1E+10	1	-1E+10	1
4902551	7	C	10/19/2020	09:05	-137.736	49.416	0	5.10	0	14.2160	0	32.2180	0	23.994	0	5.056	0	243.8	4	95.0	4	-1E+10	1	-1E+10	1	-1E+10	1	-1E+10	1	-1E+10	1	-1E+10	1
4902551	7	C	10/19/2020	09:05	-137.736	49.416	0	6.30	0	14.2200	0	32.2210	0	23.996	0	6.246	0	243.8	4	95.0	4	-1E+10	1	-1E+10	1	-1E+10	1	-1E+10	1	-1E+10	1	-1E+10	1
4902551	7	C	10/19/2020	09:05	-137.736	49.416	0	7.00	0	14.2220	0	32.2190	0	23.994	0	6.940	0	243.8	4	95.0	4	-1E+10	1	-1E+10	1	-1E+10	1	-1E+10	1	-1E+10	1	-1E+10	1
4902551	7	C	10/19/2020	09:05	-137.736	49.416	0	8.00	0	14.2230	0	32.2190	0	23.994	0	7.932	0	243.8	4	95.0	4	-1E+10	1	-1E+10	1	-1E+10	1	-1E+10	1	-1E+10	1	-1E+10	1
4902551	7	C	10/19/2020	09:05	-137.736	49.416	0	9.00	0	14.2220	0	32.2190	0	23.994	0	8.923	0	243.8	4	95.0	4	-1E+10	1	-1E+10	1	-1E+10	1	-1E+10	1	-1E+10	1	-1E+10	1
4902551	7	C	10/19/2020	09:05	-137.736	49.416	0	10.00	0	14.2220	0	32.2180	0	23.993	0	9.915	0	243.8	4	95.0	4	-1E+10	1	-1E+10	1	-1E+10	1	-1E+10	1	-1E+10	1	-1E+10	1
4902551	7	C	10/19/2020	09:05	-137.736	49.416	0	15.40	0	14.2210	0	32.2180	0	23.994	0	15.268	0	243.6	4	95.0	4	-1E+10	1	-1E+10	1	-1E+10	1	-1E+10	1	-1E+10	1	-1E+10	1
4902551	7	C	10/19/2020	09:05	-137.736	49.416	0	25.50	0	14.2220	0	32.2180	0	23.994	0	25.281	0	243.6	4	95.0	4	-1E+10	1	-1E+10	1	-1E+10	1	-1E+10	1	-1E+10	1	-1E+10	1
4902551	7	C	10/19/2020	09:05	-137.736	49.416	0	35.50	0	14.2210	0	32.2190	0	23.995	0	35.195	0	243.5	4	94.9	4	-1E+10	1	-1E+10	1	-1E+10	1	-1E+10	1	-1E+10	1	-1E+10	1
4902551	7	C	10/19/2020	09:05	-137.736	49.416	0	45.30	0	13.9630	0	32.2280	0	24.055	0	44.909	0	244.7	4	94.9	4	-1E+10	1	-1E+10	1	-1E+10	1	-1E+10	1	-1E+10	1	-1E+10	1
4902551	7	C	10/19/2020	09:05	-137.736	49.416	0	55.10	0	10.8230	0	32.3550	0	24.749	0	54.623	0	257.8	4	93.8	4	-1E+10	1	-1E+10	1	-1E+10	1	-1E+10	1	-1E+10	1	-1E+10	1
4902551	7	C	10/19/2020	09:05	-137.736	49.416	0	65.80	0	9.7830	0	32.3850	0	24.948	0	65.229	0	257.7	4	91.7	4	-1E+10	1	-1E+10	1	-1E+10	1	-1E+10	1	-1E+10	1	-1E+10	1
4902551	7	C	10/19/2020	09:05	-137.736	49.416	0	75.50	0	9.0600	0	32.3930	0	25.069	0	74.843	0	257.2	4	90.0	4	-1E+10	1	-1E+10	1	-1E+10	1	-1E+10	1	-1E+10	1	-1E+10	1
4902551	7	C	10/19/2020	09:05	-137.736	49.416	0	85.60	0	8.2320	0	32.4160	0	25.213	0	84.853	0	257.4	4	88.5	4	-1E+10	1	-1E+10	1	-1E+10	1	-1E+10	1	-1E+10	1	-1E+10	1
4902551	7	C	10/19/2020	09:05	-137.736	49.416	0	95.50	0	7.7680	0	32.4420	0	25.300	0	94.664	0	257.6	4	87.7	4	-1E+10	1	-1E+10	1	-1E+10	1	-1E+10	1	-1E+10	1	-1E+10	1
4902551	7	C	10/19/2020	09:05	-137.736	49.416	0	105.50	0	7.3690	0	32.4780	0	25.384	0	104.574	0	255.5	4	86.2	4	-1E+10	1	-1E+10	1	-1E+10	1	-1E+10	1	-1E+10	1	-1E+10	1
4902551	7	C	10/19/2020	09:05	-137.736	49.416	0	115.10	0	6.8430	0	32.5840	0	25.538	0	114.088	0	242.3	4	80.8	4	-1E+10	1	-1E+10	1	-1E+10	1	-1E+10	1	-1E+10	1	-1E+10	1
4902551	7	C	10/19/2020	09:05	-137.736	49.416	0	125.60	0	6.7970	0	32.8140	0	25.726	0	124.492	0	212.3	4	70.9	4	-1E+10	1	-1E+10	1	-1E+10	1	-1E+10	1	-1E+10	1	-1E+10	1
4902551	7	C	10/19/2020	09:05	-137.736	49.416	0	135.10	0	6.6970	0	33.1090	0	25.971	0	133.905	0	189.5	4	63.2	4	-1E+10	1	-1E+10	1	-1E+10	1	-1E+10	1	-1E+10	1	-1E+10	1
4902551	7	C	10/19/2020	09:05	-137.736	49.416	0	145.40	0	6.4430	0	33.3230	0	26.173	0	144.110	0	167.8	4	55.7	4	-1E+10	1	-1E+10	1	-1E+10	1	-1E+10	1	-1E+10	1	-1E+10	1
4902551	7	C	10/19/2020	09:05	-137.736	49.416	0	155.70	0	6.2610	0	33.5310	0	26.361	0	154.315	0	156.7	4	51.9	4	-1E+10	1	-1E+10	1	-1E+10	1	-1E+10	1	-1E+10	1	-1E+10	1
4902551	7	C	10/19/2020	09:05	-137.736	49.416	0	165.20	0	6.0300	0	33.6230	0	26.463	0	163.727	0	149.1	4	49.2	4	-1E+10	1	-1E+10	1	-1E+10	1	-1E+10	1	-1E+10	1	-1E+10	1
4902551	7	C	10/19/2020	09:05	-137.736	49.416	0	175.40	0	5.9490	0	33.7010	0	26.535	0	173.832	0	139.1	4	45.8	4	-1E+10	1	-1E+10	1	-1E+10	1	-1E+10	1	-1E+10	1	-1E+10	1
4902551	7	C	10/19/2020	09:05	-137.736	49.416	0	185.60	0	5.8440	0	33.7380	0	26.577	0	183.936	0	133.1	4	43.8	4	-1E+10	1	-1E+10	1	-1E+10	1	-1E+10	1	-1E+10	1	-1E+10	1
4902551	7	C	10/19/2020	09:05	-137.736	49.416	0	195.70	0	5.7040	0	33.7600	0	26.611	0	193.941	0	128.5	4	42.1	4	-1E+10	1	-1E+10	1	-1E+10	1	-1E+10	1	-1E+10	1	-1E+10	1
4902551	7	C	10/19/2020	09:05	-137.736	49.416	0	213.40	0	5.4610	0	33.7830	0	26.659	0	211.473	0	121.8	4	39.7	4	-1E+10	1	-1E+10	1	-1E+10	1	-1E+10	1	-1E+10	1	-1E+10	1
4902551	7	C	10/19/2020	09:05	-137.736	49.416	0	237.90	0	5.2250	0	33.8130	0	26.711	0	235.737	0	106.3	4	34.5	4	-1E+10	1	-1E+10	1	-1E+10	1	-1E+10	1	-1E+10	1	-1E+10	1
4902551	7	C	10/19/2020	09:05	-137.736	49.416	0	263.30	0	5.0800	0	33.8370	0	26.747	0	260.890	0	96.5	4	31.2	4	-1E+10	1	-1E+10	1	-1E+10	1	-1E+10	1	-1E+10	1	-1E+10	1
4902551	7	C	10/19/2020	09:05	-137.736	49.416	0	287.90	0	4.8970	0	33.8490	0	26.777	0	285.248	0	86.4	4	27.8	4	-1E+10	1	-1E+10	1	-1E+10	1	-1E+10	1	-1E+10	1	-1E+10	1
4902551	7	C	10/19/2020	09:05	-137.736	49.416	0	312.70	0	4.7980	0	33.8790	0	26.812	0	309.801	0	73.8	4	23.7	4	-1E+10	1	-1E+10	1	-1E+10	1	-1E+10	1	-1E+10	1	-1E+10	1
4902551	7	C	10/19/2020	09:05	-137.736	49.416	0	337.60	0	4.6710	0	33.9080	0	26.849	0	334.450	0	63.9	4	20.5	4	-1E+10	1	-1E+10	1	-1E+10	1	-1E+10	1	-1E+10	1	-1E+10	1
4902551	7	C	10/19/2020	09:05	-137.736	49.416	0	362.80	0	4.5860	0	33.9340	0	26.879	0	359.393	0	56.9	4	18.2	4	-1E+10	1	-1E+10	1	-1E+10	1	-1E+10	1	-1E+10	1	-1E+10	1
4902551	7	C	10/19/2020	09:05	-137.736	49.416	0	388.00	0	4.5090	0	33.9570	0	26.906	0	384.334	0	51.7	4	16.5	4	-1E+10	1	-1E+10	1	-1E+10	1	-1E+10	1	-1E+10	1	-1E+10	1
4902551	7	C	10/19/2020	09:05	-137.736	49.416	0	412.90	0	4.4420	0	33.9780	0	26.930	0	408.974	0	46.8	4	14.9	4	-1E+10	1	-1E+10	1	-1E+10	1	-1E+10	1	-1E+10	1	-1E+10	1
4902551	7	C	10/19/2020	09:05	-137.736	49.416	0	438.40	0	4.3570	0	34.0040	0	26.960	0	434.205	0	41.9	4	13.3	4	-1E+10	1	-1E+10	1	-1E+10	1	-1E+10	1	-1E+10	1	-1E+10	1
4902551	7	C	10/19/2020	09:05	-137.736	49.416	0	462.90	0	4.2870	0	34.0290	0	26.988	0	458.443	0	37.5	4	11.9	4	-1E+10	1	-1E+10	1	-1E+10	1	-1E+10	1	-1E+10	1	-1E+10	1
4902551	7	C	10/19/2020	09:05	-137.736	49.416	0	487.90	0	4.2090	0	34.0540	0	27.016	0	483.173	0	33.2	4	10.5	4	-1E+10	1	-1E+10	1	-1E+10	1	-1E+10	1	-1E+10	1	-1E+10	1
4902551	7	C	10/19/2020	09:05	-137.736	49.416	0	512.80	0	4.1420	0	34.0790	0	27.043	0	507.802	0	28.8	4	9.1	4	-1E+10	1	-1E+10	1	-1E+10	1	-1E+10	1	-1E+10	1	-1E+10	1
4902551	7	C	10/19/2020	09:05	-137.736	49.416	0	537.80	0	4.0820	0	34.1030	0	27.068	0	532.526	0	24.9	4	7.9	4	-1E+10	1	-1E+10	1	-1E+10	1	-1E+10	1	-1E+10	1	-1E+10	1
4902551	7	C	10/19/2020	09:05	-137.736	49.416	0	563.10	0	4.0050	0	34.1300	0	27.098	0	557.544	0	21.8	4	6.9	4	-1E+10	1	-1E+10	1	-1E+10	1	-1E+10	1	-1E+10	1	-1E+10	1
4902551	7	C	10/19/2020	09:05	-137.736	49.416	0	587.80	0	3.9450	0	34.1530	0	27.122	0	581.966	0	19.6	4	6.2	4	-1E+10	1	-1E+10	1	-1E+10	1	-1E+10	1	-1E+10	1	-1E+10	1
4902551	7	C	10/19/2020	09:05	-137.736	49.416	0	612.80	0	3.8820	0	34.1720	0	27.144	0	606.681	0	18.6	4	5.8	4	-1E+10	1	-1E+10	1	-1E+10	1	-1E+10	1	-1E+10	1	-1E+10	1
4902551	7	C	10/19/2020	09:05	-137.736	49.416	0	638.50	0	3.8250	0	34.1860	0	27.161	0	632.086	0	17.7	4	5.6	4	-1E+10	1	-1E+10	1	-1E+10	1	-1E+10	1	-1E+10	1	-1E+10	1
4902551	7	C	10/19/2020	09:05	-137.736	49.416	0	662.80	0	3.7770	0	34.2010	0	27.178	0	656.103	0	16.7	4	5.3	4	-1E+10	1	-1E+10	1	-1E+10	1	-1E+10	1	-1E+10	1	-1E+10	1
4902551	7	C	10/19/2020	09:05	-137.736	49.416	0	687.80	0	3.7330	0	34.2120	0	27.191	0	680.810	0	16.2	4	5.1	4	-1E+10	1	-1E+10	1	-1E+10	1	-1E+10	1	-1E+10	1	-1E+10	1
4902551	7	C	10/19/2020	09:05	-137.736	49.416	0	712.70	0	3.6820	0	34.2260	0	27.208	0	705.415	0	15.3	4	4.8	4	-1E+10	1	-1E+10	1	-1E+10	1	-1E+10	1	-1E+10	1	-1E+10	1
4902551	7	C	10/19/2020	09:05	-137.736	49.416	0	737.70	0	3.6200	0	34.2390	0	27.224	0	730.115	0	14.4	4	4.5	4	-1E+10	1	-1E+10	1	-1E+10	1	-1E+10	1	-1E+10	1	-1E+10	1
4902551	7	C	10/19/2020	09:05	-137.736	49.416	0	762.70	0	3.5890	0	34.2560	0	27.241	0	754.813	0	13.3	4	4.1	4	-1E+10	1	-1E+10	1	-1E+10	1	-1E+10	1	-1E+10	1	-1E+10	1
4902551	7	C	10/19/2020	09:05	-137.736	49.416	0	787.50	0	3.5270	0	34.2700	0	27.258	0	779.310	0	12.9	4	4.0	4	-1E+10	1	-1E+10	1	-1E+10	1	-1E+10	1	-1E+10	1	-1E+10	1
4902551	7	C	10/19/2020	09:05	-137.736	49.416	0	812.80	0	3.4740	0	34.2820	0	27.273	0	804.299	0	12.8	4	4.0	4	-1E+10	1	-1E+10	1	-1E+10	1	-1E+10	1	-1E+10	1	-1E+10	1
4902551	7	C	10/19/2020	09:05	-137.736	49.416	0	838.80	0	3.4000	0	34.2880	0	27.285	0	829.975	0	13.0	4	4.1	4	-1E+10	1	-1E+10	1	-1E+10	1	-1E+10	1	-1E+10	1	-1E+10	1
4902551	7	C	10/19/2020	09:05	-137.736	49.416	0	863.10	0	3.3530	0	34.2980	0	27.298	0	853.970	0	12.7	4	4.0	4	-1E+10	1	-1E+10	1	-1E+10	1	-1E+10	1	-1E+10	1	-1E+10	1
4902551	7	C	10/19/2020	09:05	-137.736	49.416	0	887.80	0	3.2980	0	34.3100	0	27.312	0	878.357	0	12.5	4	3.9	4	-1E+10	1	-1E+10	1	-1E+10	1	-1E+10	1	-1E+10	1	-1E+10	1
4902551	7	C	10/19/2020	09:05	-137.736	49.416	0	912.90	0	3.2370	0	34.3220	0	27.328	0	903.135	0	12.3	4	3.8	4	-1E+10	1	-1E+10	1	-1E+10	1	-1E+10	1	-1E+10	1	-1E+10	1
4902551	7	C	10/19/2020	09:05	-137.736	49.416	0	937.90	0	3.1860	0	34.3330	0	27.342	0	927.813	0	12.0	4	3.7	4	-1E+10	1	-1E+10	1	-1E+10	1	-1E+10	1	-1E+10	1	-1E+10	1
4902551	7	C	10/19/2020	09:05	-137.736	49.416	0	963.10	0	3.1430	0	34.3410	0	27.352	0	952.684	0	12.0	4	3.7	4	-1E+10	1	-1E+10	1	-1E+10	1	-1E+10	1	-1E+10	1	-1E+10	1
4902551	7	C	10/19/2020	09:05	-137.736	49.416	0	987.70	0	3.0990	0	34.3490	0	27.363	0	976.961	0	12.0	4	3.7	4	-1E+10	1	-1E+10	1	-1E+10	1	-1E+10	1	-1E+10	1	-1E+10	1
4902551	7	C	10/19/2020	09:05	-137.736	49.416	0	1013.00	0	3.0550	0	34.3580	0	27.374	0	1001.925	0	11.9	4	3.7	4	-1E+10	1	-1E+10	1	-1E+10	1	-1E+10	1	-1E+10	1	-1E+10	1
4902551	7	C	10/19/2020	09:05	-137.736	49.416	0	1037.90	0	3.0070	0	34.3670	0	27.386	0	1026.492	0	11.9	4	3.7	4	-1E+10	1	-1E+10	1	-1E+10	1	-1E+10	1	-1E+10	1	-1E+10	1
4902551	7	C	10/19/2020	09:05	-137.736	49.416	0	1062.70	0	2.9620	0	34.3760	0	27.397	0	1050.958	0	11.8	4	3.6	4	-1E+10	1	-1E+10	1	-1E+10	1	-1E+10	1	-1E+10	1	-1E+10	1
4902551	7	C	10/19/2020	09:05	-137.736	49.416	0	1087.90	0	2.9280	0	34.3840	0	27.407	0	1075.815	0	11.7	4	3.6	4	-1E+10	1	-1E+10	1	-1E+10	1	-1E+10	1	-1E+10	1	-1E+10	1
4902551	7	C	10/19/2020	09:05	-137.736	49.416	0	1113.20	0	2.8970	0	34.3900	0	27.414	0	1100.767	0	11.7	4	3.6	4	-1E+10	1	-1E+10	1	-1E+10	1	-1E+10	1	-1E+10	1	-1E+10	1
4902551	7	C	10/19/2020	09:05	-137.736	49.416	0	1138.20	0	2.8610	0	34.3980	0	27.424	0	1125.421	0	11.7	4	3.6	4	-1E+10	1	-1E+10	1	-1E+10	1	-1E+10	1	-1E+10	1	-1E+10	1
4902551	7	C	10/19/2020	09:05	-137.736	49.416	0	1162.90	0	2.8300	0	34.4060	0	27.433	0	1149.776	0	11.7	4	3.6	4	-1E+10	1	-1E+10	1	-1E+10	1	-1E+10	1	-1E+10	1	-1E+10	1
4902551	7	C	10/19/2020	09:05	-137.736	49.416	0	1187.50	0	2.7950	0	34.4120	0	27.441	0	1174.030	0	11.9	4	3.7	4	-1E+10	1	-1E+10	1	-1E+10	1	-1E+10	1	-1E+10	1	-1E+10	1
4902551	7	C	10/19/2020	09:05	-137.736	49.416	0	1213.30	0	2.7490	0	34.4210	0	27.453	0	1199.464	0	12.1	4	3.7	4	-1E+10	1	-1E+10	1	-1E+10	1	-1E+10	1	-1E+10	1	-1E+10	1
4902551	7	C	10/19/2020	09:05	-137.736	49.416	0	1237.50	0	2.7160	0	34.4270	0	27.460	0	1223.317	0	12.4	4	3.8	4	-1E+10	1	-1E+10	1	-1E+10	1	-1E+10	1	-1E+10	1	-1E+10	1
4902551	7	C	10/19/2020	09:05	-137.736	49.416	0	1262.80	0	2.6890	0	34.4320	0	27.467	0	1248.252	0	12.6	4	3.9	4	-1E+10	1	-1E+10	1	-1E+10	1	-1E+10	1	-1E+10	1	-1E+10	1
4902551	7	C	10/19/2020	09:05	-137.736	49.416	0	1288.00	0	2.6590	0	34.4380	0	27.474	0	1273.086	0	13.0	4	4.0	4	-1E+10	1	-1E+10	1	-1E+10	1	-1E+10	1	-1E+10	1	-1E+10	1
4902551	7	C	10/19/2020	09:05	-137.736	49.416	0	1312.50	0	2.6290	0	34.4440	0	27.482	0	1297.227	0	13.3	4	4.1	4	-1E+10	1	-1E+10	1	-1E+10	1	-1E+10	1	-1E+10	1	-1E+10	1
4902551	7	C	10/19/2020	09:05	-137.736	49.416	0	1337.80	0	2.5960	0	34.4500	0	27.490	0	1322.153	0	13.7	4	4.2	4	-1E+10	1	-1E+10	1	-1E+10	1	-1E+10	1	-1E+10	1	-1E+10	1
4902551	7	C	10/19/2020	09:05	-137.736	49.416	0	1363.20	0	2.5700	0	34.4560	0	27.497	0	1347.175	0	14.1	4	4.3	4	-1E+10	1	-1E+10	1	-1E+10	1	-1E+10	1	-1E+10	1	-1E+10	1
4902551	7	C	10/19/2020	09:05	-137.736	49.416	0	1388.00	0	2.5460	0	34.4610	0	27.503	0	1371.603	0	14.5	4	4.4	4	-1E+10	1	-1E+10	1	-1E+10	1	-1E+10	1	-1E+10	1	-1E+10	1
4902551	7	C	10/19/2020	09:05	-137.736	49.416	0	1412.60	0	2.5160	0	34.4670	0	27.510	0	1395.831	0	14.9	4	4.5	4	-1E+10	1	-1E+10	1	-1E+10	1	-1E+10	1	-1E+10	1	-1E+10	1
4902551	7	C	10/19/2020	09:05	-137.736	49.416	0	1437.70	0	2.4970	0	34.4720	0	27.516	0	1420.548	0	15.1	4	4.6	4	-1E+10	1	-1E+10	1	-1E+10	1	-1E+10	1	-1E+10	1	-1E+10	1
4902551	7	C	10/19/2020	09:05	-137.736	49.416	0	1462.60	0	2.4660	0	34.4790	0	27.524	0	1445.066	0	15.9	4	4.9	4	-1E+10	1	-1E+10	1	-1E+10	1	-1E+10	1	-1E+10	1	-1E+10	1
4902551	7	C	10/19/2020	09:05	-137.736	49.416	0	1487.60	0	2.4270	0	34.4850	0	27.533	0	1469.680	0	17.2	4	5.2	4	-1E+10	1	-1E+10	1	-1E+10	1	-1E+10	1	-1E+10	1	-1E+10	1
4902551	7	C	10/19/2020	09:05	-137.736	49.416	0	1513.20	0	2.3960	0	34.4910	0	27.540	0	1494.881	0	18.1	4	5.5	4	-1E+10	1	-1E+10	1	-1E+10	1	-1E+10	1	-1E+10	1	-1E+10	1
4902551	7	C	10/19/2020	09:05	-137.736	49.416	0	1537.80	0	2.3700	0	34.4950	0	27.546	0	1519.095	0	19.1	4	5.8	4	-1E+10	1	-1E+10	1	-1E+10	1	-1E+10	1	-1E+10	1	-1E+10	1
4902551	7	C	10/19/2020	09:05	-137.736	49.416	0	1562.70	0	2.3430	0	34.5010	0	27.553	0	1543.601	0	20.3	4	6.2	4	-1E+10	1	-1E+10	1	-1E+10	1	-1E+10	1	-1E+10	1	-1E+10	1
4902551	7	C	10/19/2020	09:05	-137.736	49.416	0	1587.60	0	2.3150	0	34.5060	0	27.559	0	1568.104	0	21.5	4	6.5	4	-1E+10	1	-1E+10	1	-1E+10	1	-1E+10	1	-1E+10	1	-1E+10	1
4902551	7	C	10/19/2020	09:05	-137.736	49.416	0	1612.80	0	2.2920	0	34.5110	0	27.565	0	1592.900	0	22.8	4	6.9	4	-1E+10	1	-1E+10	1	-1E+10	1	-1E+10	1	-1E+10	1	-1E+10	1
4902551	7	C	10/19/2020	09:05	-137.736	49.416	0	1639.00	0	2.2660	0	34.5160	0	27.571	0	1618.677	0	24.3	4	7.4	4	-1E+10	1	-1E+10	1	-1E+10	1	-1E+10	1	-1E+10	1	-1E+10	1
4902551	7	C	10/19/2020	09:05	-137.736	49.416	0	1662.90	0	2.2400	0	34.5220	0	27.579	0	1642.188	0	25.7	4	7.8	4	-1E+10	1	-1E+10	1	-1E+10	1	-1E+10	1	-1E+10	1	-1E+10	1
4902551	7	C	10/19/2020	09:05	-137.736	49.416	0	1687.80	0	2.2200	0	34.5260	0	27.583	0	1666.680	0	27.0	4	8.2	4	-1E+10	1	-1E+10	1	-1E+10	1	-1E+10	1	-1E+10	1	-1E+10	1
4902551	7	C	10/19/2020	09:05	-137.736	49.416	0	1712.80	0	2.1970	0	34.5310	0	27.589	0	1691.268	0	28.4	4	8.6	4	-1E+10	1	-1E+10	1	-1E+10	1	-1E+10	1	-1E+10	1	-1E+10	1
4902551	7	C	10/19/2020	09:05	-137.736	49.416	0	1737.90	0	2.1760	0	34.5350	0	27.594	0	1715.951	0	29.6	4	9.0	4	-1E+10	1	-1E+10	1	-1E+10	1	-1E+10	1	-1E+10	1	-1E+10	1
4902551	7	C	10/19/2020	09:05	-137.736	49.416	0	1763.10	0	2.1620	0	34.5380	0	27.598	0	1740.729	0	30.8	4	9.3	4	-1E+10	1	-1E+10	1	-1E+10	1	-1E+10	1	-1E+10	1	-1E+10	1
4902551	7	C	10/19/2020	09:05	-137.736	49.416	0	1787.90	0	2.1430	0	34.5420	0	27.603	0	1765.111	0	32.0	4	9.7	4	-1E+10	1	-1E+10	1	-1E+10	1	-1E+10	1	-1E+10	1	-1E+10	1
4902551	7	C	10/19/2020	09:05	-137.736	49.416	0	1812.80	0	2.1260	0	34.5460	0	27.608	0	1789.589	0	33.4	4	10.1	4	-1E+10	1	-1E+10	1	-1E+10	1	-1E+10	1	-1E+10	1	-1E+10	1
4902551	7	C	10/19/2020	09:05	-137.736	49.416	0	1837.90	0	2.1040	0	34.5500	0	27.613	0	1814.261	0	35.3	4	10.7	4	-1E+10	1	-1E+10	1	-1E+10	1	-1E+10	1	-1E+10	1	-1E+10	1
4902551	7	C	10/19/2020	09:05	-137.736	49.416	0	1862.80	0	2.0750	0	34.5560	0	27.620	0	1838.733	0	37.3	4	11.3	4	-1E+10	1	-1E+10	1	-1E+10	1	-1E+10	1	-1E+10	1	-1E+10	1
4902551	7	C	10/19/2020	09:05	-137.736	49.416	0	1887.90	0	2.0530	0	34.5600	0	27.625	0	1863.399	0	39.0	4	11.8	4	-1E+10	1	-1E+10	1	-1E+10	1	-1E+10	1	-1E+10	1	-1E+10	1
4902551	7	C	10/19/2020	09:05	-137.736	49.416	0	1913.10	0	2.0330	0	34.5640	0	27.630	0	1888.160	0	40.7	4	12.3	4	-1E+10	1	-1E+10	1	-1E+10	1	-1E+10	1	-1E+10	1	-1E+10	1
4902551	7	C	10/19/2020	09:05	-137.736	49.416	0	1938.60	0	2.0110	0	34.5680	0	27.635	0	1913.213	0	42.5	4	12.8	4	-1E+10	1	-1E+10	1	-1E+10	1	-1E+10	1	-1E+10	1	-1E+10	1
4902551	7	C	10/19/2020	09:05	-137.736	49.416	0	1962.80	0	1.9930	0	34.5720	0	27.640	0	1936.986	0	44.0	4	13.3	4	-1E+10	1	-1E+10	1	-1E+10	1	-1E+10	1	-1E+10	1	-1E+10	1
4902551	7	C	10/19/2020	09:05	-137.736	49.416	0	1988.00	0	1.9770	0	34.5750	0	27.644	0	1961.739	0	45.4	4	13.7	4	-1E+10	1	-1E+10	1	-1E+10	1	-1E+10	1	-1E+10	1	-1E+10	1
4902551	7	C	10/19/2020	09:05	-137.736	49.416	0	2013.00	0	1.9610	0	34.5780	0	27.647	0	1986.292	0	46.6	4	14.0	4	-1E+10	1	-1E+10	1	-1E+10	1	-1E+10	1	-1E+10	1	-1E+10	1
4902551	7	C	10/19/2020	09:05	-137.736	49.416	0	2028.20	0	1.9520	0	34.5800	0	27.650	0	2001.219	0	46.7	4	14.1	4	-1E+10	1	-1E+10	1	-1E+10	1	-1E+10	1	-1E+10	1	-1E+10	1
4902551	7	C	10/19/2020	09:05	-137.736	49.416	0																										
4902551	8	C	10/29/2020	09:00	-137.623	49.373	0	0.10	0	14.2420	0	32.1710	0	23.953	0	0.099	0	244.0	4	95.1	4	-1E+10	1	-1E+10	1	-1E+10	1	-1E+10	1	-1E+10	1	-1E+10	1
4902551	8	C	10/29/2020	09:00	-137.623	49.373	0	1.10	0	14.2330	0	32.1670	0	23.951	0	1.091	0	244.0	4	95.1	4	-1E+10	1	-1E+10	1	-1E+10	1	-1E+10	1	-1E+10	1	-1E+10	1
4902551	8	C	10/29/2020	09:00	-137.623	49.373	0	2.00	0	14.2410	0	32.1700	0	23.952	0	1.983	0	244.0	4	95.1	4	-1E+10	1	-1E+10	1	-1E+10	1	-1E+10	1	-1E+10	1	-1E+10	1
4902551	8	C	10/29/2020	09:00	-137.623	49.373	0	3.10	0	14.2420	0	32.1760	0	23.957	0	3.074	0	244.0	4	95.1	4	-1E+10	1	-1E+10	1	-1E+10	1	-1E+10	1	-1E+10	1	-1E+10	1
4902551	8	C	10/29/2020	09:00	-137.623	49.373	0	4.10	0	14.2430	0	32.1800	0	23.959	0	4.065	0	243.9	4	95.1	4	-1E+10	1	-1E+10	1	-1E+10	1	-1E+10	1	-1E+10	1	-1E+10	1
4902551	8	C	10/29/2020	09:00	-137.623	49.373	0	4.90	0	14.2430	0	32.1810	0	23.960	0	4.858	0	243.9	4	95.1	4	-1E+10	1	-1E+10	1	-1E+10	1	-1E+10	1	-1E+10	1	-1E+10	1
4902551	8	C	10/29/2020	09:00	-137.623	49.373	0	5.90	0	14.2430	0	32.1810	0	23.960	0	5.850	0	243.9	4	95.1	4	-1E+10	1	-1E+10	1	-1E+10	1	-1E+10	1	-1E+10	1	-1E+10	1
4902551	8	C	10/29/2020	09:00	-137.623	49.373	0	7.00	0	14.2430	0	32.1810	0	23.960	0	6.940	0	243.8	4	95.1	4	-1E+10	1	-1E+10	1	-1E+10	1	-1E+10	1	-1E+10	1	-1E+10	1
4902551	8	C	10/29/2020	09:00	-137.623	49.373	0	8.10	0	14.2440	0	32.1810	0	23.960	0	8.031	0	243.8	4	95.0	4	-1E+10	1	-1E+10	1	-1E+10	1	-1E+10	1	-1E+10	1	-1E+10	1
4902551	8	C	10/29/2020	09:00	-137.623	49.373	0	8.80	0	14.2430	0	32.1810	0	23.960	0	8.725	0	243.7	4	95.0	4	-1E+10	1	-1E+10	1	-1E+10	1	-1E+10	1	-1E+10	1	-1E+10	1
4902551	8	C	10/29/2020	09:00	-137.623	49.373	0	9.70	0	14.2440	0	32.1810	0	23.960	0	9.617	0	243.7	4	95.0	4	-1E+10	1	-1E+10	1	-1E+10	1	-1E+10	1	-1E+10	1	-1E+10	1
4902551	8	C	10/29/2020	09:00	-137.623	49.373	0	15.40	0	14.2440	0	32.1840	0	23.963	0	15.268	0	243.6	4	95.0	4	-1E+10	1	-1E+10	1	-1E+10	1	-1E+10	1	-1E+10	1	-1E+10	1
4902551	8	C	10/29/2020	09:00	-137.623	49.373	0	25.40	0	14.2340	0	32.1940	0	23.973	0	25.182	0	243.4	4	94.9	4	-1E+10	1	-1E+10	1	-1E+10	1	-1E+10	1	-1E+10	1	-1E+10	1
4902551	8	C	10/29/2020	09:00	-137.623	49.373	0	35.70	0	14.2200	0	32.2030	0	23.983	0	35.393	0	242.9	4	94.7	4	-1E+10	1	-1E+10	1	-1E+10	1	-1E+10	1	-1E+10	1	-1E+10	1
4902551	8	C	10/29/2020	09:00	-137.623	49.373	0	45.20	0	14.1920	0	32.2050	0	23.990	0	44.810	0	241.7	4	94.1	4	-1E+10	1	-1E+10	1	-1E+10	1	-1E+10	1	-1E+10	1	-1E+10	1
4902551	8	C	10/29/2020	09:00	-137.623	49.373	0	55.00	0	10.7850	0	32.0600	0	24.526	0	54.524	0	252.5	4	91.6	4	-1E+10	1	-1E+10	1	-1E+10	1	-1E+10	1	-1E+10	1	-1E+10	1
4902551	8	C	10/29/2020	09:00	-137.623	49.373	0	66.00	0	8.7490	0	32.3830	0	25.109	0	65.427	0	256.5	4	89.2	4	-1E+10	1	-1E+10	1	-1E+10	1	-1E+10	1	-1E+10	1	-1E+10	1
4902551	8	C	10/29/2020	09:00	-137.623	49.373	0	75.60	0	8.0680	0	32.4200	0	25.240	0	74.942	0	257.7	4	88.3	4	-1E+10	1	-1E+10	1	-1E+10	1	-1E+10	1	-1E+10	1	-1E+10	1
4902551	8	C	10/29/2020	09:00	-137.623	49.373	0	85.20	0	7.4830	0	32.4660	0	25.359	0	84.457	0	257.9	4	87.2	4	-1E+10	1	-1E+10	1	-1E+10	1	-1E+10	1	-1E+10	1	-1E+10	1
4902551	8	C	10/29/2020	09:00	-137.623	49.373	0	95.60	0	7.0390	0	32.5350	0	25.474	0	94.764	0	252.2	4	84.5	4	-1E+10	1	-1E+10	1	-1E+10	1	-1E+10	1	-1E+10	1	-1E+10	1
4902551	8	C	10/29/2020	09:00	-137.623	49.373	0	105.50	0	6.8500	0	32.6590	0	25.596	0	104.575	0	238.4	4	79.6	4	-1E+10	1	-1E+10	1	-1E+10	1	-1E+10	1	-1E+10	1	-1E+10	1
4902551	8	C	10/29/2020	09:00	-137.623	49.373	0	115.10	0	6.7700	0	32.8120	0	25.728	0	114.088	0	222.5	4	74.2	4	-1E+10	1	-1E+10	1	-1E+10	1	-1E+10	1	-1E+10	1	-1E+10	1
4902551	8	C	10/29/2020	09:00	-137.623	49.373	0	125.20	0	6.7400	0	32.9840	0	25.867	0	124.096	0	204.4	4	68.2	4	-1E+10	1	-1E+10	1	-1E+10	1	-1E+10	1	-1E+10	1	-1E+10	1
4902551	8	C	10/29/2020	09:00	-137.623	49.373	0	135.20	0	6.5820	0	33.1730	0	26.037	0	134.005	0	185.3	4	61.7	4	-1E+10	1	-1E+10	1	-1E+10	1	-1E+10	1	-1E+10	1	-1E+10	1
4902551	8	C	10/29/2020	09:00	-137.623	49.373	0	145.50	0	6.2990	0	33.4470	0	26.290	0	144.210	0	168.2	4	55.8	4	-1E+10	1	-1E+10	1	-1E+10	1	-1E+10	1	-1E+10	1	-1E+10	1
4902551	8	C	10/29/2020	09:00	-137.623	49.373	0	155.60	0	6.1340	0	33.5750	0	26.412	0	154.217	0	157.4	4	52.0	4	-1E+10	1	-1E+10	1	-1E+10	1	-1E+10	1	-1E+10	1	-1E+10	1
4902551	8	C	10/29/2020	09:00	-137.623	49.373	0	165.40	0	6.0400	0	33.6490	0	26.482	0	163.926	0	146.8	4	48.4	4	-1E+10	1	-1E+10	1	-1E+10	1	-1E+10	1	-1E+10	1	-1E+10	1
4902551	8	C	10/29/2020	09:00	-137.623	49.373	0	175.50	0	5.8860	0	33.7100	0	26.549	0	173.931	0	140.1	4	46.1	4	-1E+10	1	-1E+10	1	-1E+10	1	-1E+10	1	-1E+10	1	-1E+10	1
4902551	8	C	10/29/2020	09:00	-137.623	49.373	0	185.30	0	5.7670	0	33.7320	0	26.582	0	183.640	0	135.6	4	44.5	4	-1E+10	1	-1E+10	1	-1E+10	1	-1E+10	1	-1E+10	1	-1E+10	1
4902551	8	C	10/29/2020	09:00	-137.623	49.373	0	195.10	0	5.6550	0	33.7540	0	26.613	0	193.347	0	130.6	4	42.8	4	-1E+10	1	-1E+10	1	-1E+10	1	-1E+10	1	-1E+10	1	-1E+10	1
4902551	8	C	10/29/2020	09:00	-137.623	49.373	0	212.80	0	5.4770	0	33.7780	0	26.653	0	210.879	0	123.9	4	40.4	4	-1E+10	1	-1E+10	1	-1E+10	1	-1E+10	1	-1E+10	1	-1E+10	1
4902551	8	C	10/29/2020	09:00	-137.623	49.373	0	238.00	0	5.2660	0	33.7980	0	26.694	0	235.837	0	114.6	4	37.2	4	-1E+10	1	-1E+10	1	-1E+10	1	-1E+10	1	-1E+10	1	-1E+10	1
4902551	8	C	10/29/2020	09:00	-137.623	49.373	0	262.80	0	5.0630	0	33.8130	0	26.729	0	260.396	0	105.7	4	34.2	4	-1E+10	1	-1E+10	1	-1E+10	1	-1E+10	1	-1E+10	1	-1E+10	1
4902551	8	C	10/29/2020	09:00	-137.623	49.373	0	288.60	0	4.8640	0	33.8310	0	26.766	0	285.943	0	95.9	4	30.8	4	-1E+10	1	-1E+10	1	-1E+10	1	-1E+10	1	-1E+10	1	-1E+10	1
4902551	8	C	10/29/2020	09:00	-137.623	49.373	0	312.80	0	4.7410	0	33.8580	0	26.802	0	309.902	0	85.0	4	27.3	4	-1E+10	1	-1E+10	1	-1E+10	1	-1E+10	1	-1E+10	1	-1E+10	1
4902551	8	C	10/29/2020	09:00	-137.623	49.373	0	338.00	0	4.6540	0	33.8800	0	26.829	0	334.848	0	75.6	4	24.2	4	-1E+10	1	-1E+10	1	-1E+10	1	-1E+10	1	-1E+10	1	-1E+10	1
4902551	8	C	10/29/2020	09:00	-137.623	49.373	0	362.90	0	4.5440	0	33.9090	0	26.864	0	359.494	0	66.7	4	21.3	4	-1E+10	1	-1E+10	1	-1E+10	1	-1E+10	1	-1E+10	1	-1E+10	1
4902551	8	C	10/29/2020	09:00	-137.623	49.373	0	387.70	0	4.4990	0	33.9380	0	26.892	0	384.038	0	57.7	4	18.4	4	-1E+10	1	-1E+10	1	-1E+10	1	-1E+10	1	-1E+10	1	-1E+10	1
4902551	8	C	10/29/2020	09:00	-137.623	49.373	0	413.30	0	4.4650	0	33.9660	0	26.918	0	409.371	0	50.2	4	16.0	4	-1E+10	1	-1E+10	1	-1E+10	1	-1E+10	1	-1E+10	1	-1E+10	1
4902551	8	C	10/29/2020	09:00	-137.623	49.373	0	438.10	0	4.4000	0	33.9900	0	26.944	0	433.909	0	45.1	4	14.4	4	-1E+10	1	-1E+10	1	-1E+10	1	-1E+10	1	-1E+10	1	-1E+10	1
4902551	8	C	10/29/2020	09:00	-137.623	49.373	0	462.90	0	4.3350	0	34.0130	0	26.970	0	458.445	0	40.6	4	12.9	4	-1E+10	1	-1E+10	1	-1E+10	1	-1E+10	1	-1E+10	1	-1E+10	1
4902551	8	C	10/29/2020	09:00	-137.623	49.373	0	487.70	0	4.2680	0	34.0360	0	26.995	0	482.977	0	36.2	4	11.5	4	-1E+10	1	-1E+10	1	-1E+10	1	-1E+10	1	-1E+10	1	-1E+10	1
4902551	8	C	10/29/2020	09:00	-137.623	49.373	0	512.70	0	4.2010	0	34.0580	0	27.020	0	507.705	0	32.5	4	10.3	4	-1E+10	1	-1E+10	1	-1E+10	1	-1E+10	1	-1E+10	1	-1E+10	1
4902551	8	C	10/29/2020	09:00	-137.623	49.373	0	537.80	0	4.1430	0	34.0790	0	27.043	0	532.528	0	28.8	4	9.1	4	-1E+10	1	-1E+10	1	-1E+10	1	-1E+10	1	-1E+10	1	-1E+10	1
4902551	8	C	10/29/2020	09:00	-137.623	49.373	0	563.10	0	4.0810	0	34.1040	0	27.069	0	557.546	0	25.1	4	7.9	4	-1E+10	1	-1E+10	1	-1E+10	1	-1E+10	1	-1E+10	1	-1E+10	1
4902551	8	C	10/29/2020	09:00	-137.623	49.373	0	587.70	0	4.0180	0	34.1290	0	27.096	0	581.869	0	22.1	4	7.0	4	-1E+10	1	-1E+10	1	-1E+10	1	-1E+10	1	-1E+10	1	-1E+10	1
4902551	8	C	10/29/2020	09:00	-137.623	49.373	0	612.40	0	3.9650	0	34.1470	0	27.116	0	606.288	0	20.3	4	6.4	4	-1E+10	1	-1E+10	1	-1E+10	1	-1E+10	1	-1E+10	1	-1E+10	1
4902551	8	C	10/29/2020	09:00	-137.623	49.373	0	637.90	0	3.8910	0	34.1670	0	27.139	0	631.495	0	18.9	4	5.9	4	-1E+10	1	-1E+10	1	-1E+10	1	-1E+10	1	-1E+10	1	-1E+10	1
4902551	8	C	10/29/2020	09:00	-137.623	49.373	0	663.40	0	3.8300	0	34.1870	0	27.162	0	656.699	0	17.4	4	5.5	4	-1E+10	1	-1E+10	1	-1E+10	1	-1E+10	1	-1E+10	1	-1E+10	1
4902551	8	C	10/29/2020	09:00	-137.623	49.373	0	687.80	0	3.7620	0	34.2040	0	27.182	0	680.812	0	16.6	4	5.2	4	-1E+10	1	-1E+10	1	-1E+10	1	-1E+10	1	-1E+10	1	-1E+10	1
4902551	8	C	10/29/2020	09:00	-137.623	49.373	0	712.80	0	3.6980	0	34.2190	0	27.200	0	705.516	0	15.8	4	4.9	4	-1E+10	1	-1E+10	1	-1E+10	1	-1E+10	1	-1E+10	1	-1E+10	1
4902551	8	C	10/29/2020	09:00	-137.623	49.373	0	737.80	0	3.6380	0	34.2340	0	27.218	0	730.217	0	15.0	4	4.7	4	-1E+10	1	-1E+10	1	-1E+10	1	-1E+10	1	-1E+10	1	-1E+10	1
4902551	8	C	10/29/2020	09:00	-137.623	49.373	0	762.60	0	3.5800	0	34.2480	0	27.235	0	754.717	0	14.3	4	4.5	4	-1E+10	1	-1E+10	1	-1E+10	1	-1E+10	1	-1E+10	1	-1E+10	1
4902551	8	C	10/29/2020	09:00	-137.623	49.373	0	787.70	0	3.5130	0	34.2630	0	27.254	0	779.511	0	13.6	4	4.3	4	-1E+10	1	-1E+10	1	-1E+10	1	-1E+10	1	-1E+10	1	-1E+10	1
4902551	8	C	10/29/2020	09:00	-137.623	49.373	0	812.60	0	3.4660	0	34.2750	0	27.268	0	804.104	0	13.4	4	4.2	4	-1E+10	1	-1E+10	1	-1E+10	1	-1E+10	1	-1E+10	1	-1E+10	1
4902551	8	C	10/29/2020	09:00	-137.623	49.373	0	837.70	0	3.4160	0	34.2840	0	27.280	0	828.892	0	13.2	4	4.1	4	-1E+10	1	-1E+10	1	-1E+10	1	-1E+10	1	-1E+10	1	-1E+10	1
4902551	8	C	10/29/2020	09:00	-137.623	49.373	0	863.80	0	3.3470	0	34.2970	0	27.297	0	854.664	0	12.7	4	4.0	4	-1E+10	1	-1E+10	1	-1E+10	1	-1E+10	1	-1E+10	1	-1E+10	1
4902551	8	C	10/29/2020	09:00	-137.623	49.373	0	888.00	0	3.3000	0	34.3070	0	27.310	0	878.558	0	12.4	4	3.8	4	-1E+10	1	-1E+10	1	-1E+10	1	-1E+10	1	-1E+10	1	-1E+10	1
4902551	8	C	10/29/2020	09:00	-137.623	49.373	0	912.70	0	3.2460	0	34.3180	0	27.324	0	902.942	0	12.3	4	3.8	4	-1E+10	1	-1E+10	1	-1E+10	1	-1E+10	1	-1E+10	1	-1E+10	1
4902551	8	C	10/29/2020	09:00	-137.623	49.373	0	937.40	0	3.1940	0	34.3290	0	27.338	0	927.323	0	12.1	4	3.7	4	-1E+10	1	-1E+10	1	-1E+10	1	-1E+10	1	-1E+10	1	-1E+10	1
4902551	8	C	10/29/2020	09:00	-137.623	49.373	0	962.80	0	3.1470	0	34.3390	0	27.350	0	952.392	0	12.0	4	3.7	4	-1E+10	1	-1E+10	1	-1E+10	1	-1E+10	1	-1E+10	1	-1E+10	1
4902551	8	C	10/29/2020	09:00	-137.623	49.373	0	988.30	0	3.1010	0	34.3490	0	27.362	0	977.557	0	11.9	4	3.7	4	-1E+10	1	-1E+10	1	-1E+10	1	-1E+10	1	-1E+10	1	-1E+10	1
4902551	8	C	10/29/2020	09:00	-137.623	49.373	0	1012.90	0	3.0560	0	34.3580	0	27.374	0	1001.831	0	11.8	4	3.6	4	-1E+10	1	-1E+10	1	-1E+10	1	-1E+10	1	-1E+10	1	-1E+10	1
4902551	8	C	10/29/2020	09:00	-137.623	49.373	0	1037.70	0	3.0150	0	34.3660	0	27.384	0	1026.299	0	11.7	4	3.6	4	-1E+10	1	-1E+10	1	-1E+10	1	-1E+10	1	-1E+10	1	-1E+10	1
4902551	8	C	10/29/2020	09:00	-137.623	49.373	0	1063.70	0	2.9650	0	34.3790	0	27.399	0	1051.948	0	11.4	4	3.5	4	-1E+10	1	-1E+10	1	-1E+10	1	-1E+10	1	-1E+10	1	-1E+10	1
4902551	8	C	10/29/2020	09:00	-137.623	49.373	0	1087.90	0	2.9120	0	34.3880	0	27.411	0	1075.819	0	11.6	4	3.6	4	-1E+10	1	-1E+10	1	-1E+10	1	-1E+10	1	-1E+10	1	-1E+10	1
4902551	8	C	10/29/2020	09:00	-137.623	49.373	0	1112.60	0	2.8680	0	34.3970	0	27.422	0	1100.180	0	11.6	4	3.6	4	-1E+10	1	-1E+10	1	-1E+10	1	-1E+10	1	-1E+10	1	-1E+10	1
4902551	8	C	10/29/2020	09:00	-137.623	49.373	0	1137.70	0	2.8380	0	34.4040	0	27.431	0	1124.932	0	11.7	4	3.6	4	-1E+10	1	-1E+10	1	-1E+10	1	-1E+10	1	-1E+10	1	-1E+10	1
4902551	8	C	10/29/2020	09:00	-137.623	49.373	0	1162.70	0	2.7920	0	34.4120	0	27.441	0	1149.584	0	11.8	4	3.6	4	-1E+10	1	-1E+10	1	-1E+10	1	-1E+10	1	-1E+10	1	-1E+10	1
4902551	8	C	10/29/2020	09:00	-137.623	49.373	0	1187.50	0	2.7510	0	34.4200	0	27.451	0	1174.035	0	12.0	4	3.7	4	-1E+10	1	-1E+10	1	-1E+10	1	-1E+10	1	-1E+10	1	-1E+10	1
4902551	8	C	10/29/2020	09:00	-137.623	49.373	0	1212.70	0	2.7270	0	34.4260	0	27.458	0	1198.877	0	12.2	4	3.7	4	-1E+10	1	-1E+10	1	-1E+10	1	-1E+10	1	-1E+10	1	-1E+10	1
4902551	8	C	10/29/2020	09:00	-137.623	49.373	0	1237.90	0	2.6950	0	34.4320	0	27.466	0	1223.717	0	12.4	4	3.8	4	-1E+10	1	-1E+10	1	-1E+10	1	-1E+10	1	-1E+10	1	-1E+10	1
4902551	8	C	10/29/2020	09:00	-137.623	49.373	0	1262.80	0	2.6660	0	34.4370	0	27.473	0	1248.257	0	12.6	4	3.9	4	-1E+10	1	-1E+10	1	-1E+10	1	-1E+10	1	-1E+10	1	-1E+10	1
4902551	8	C	10/29/2020	09:00	-137.623	49.373	0	1287.60	0	2.6320	0	34.4440	0	27.481	0	1272.697	0	13.0	4	4.0	4	-1E+10	1	-1E+10	1	-1E+10	1	-1E+10	1	-1E+10	1	-1E+10	1
4902551	8	C	10/29/2020	09:00	-137.623	49.373	0	1312.70	0	2.6010	0	34.4490	0	27.488	0	1297.429	0	13.4	4	4.1	4	-1E+10	1	-1E+10	1	-1E+10	1	-1E+10	1	-1E+10	1	-1E+10	1
4902551	8	C	10/29/2020	09:00	-137.623	49.373	0	1337.90	0	2.5820	0	34.4530	0	27.493	0	1322.257	0	13.7	4	4.2	4	-1E+10	1	-1E+10	1	-1E+10	1	-1E+10	1	-1E+10	1	-1E+10	1
4902551	8	C	10/29/2020	09:00	-137.623	49.373	0	1362.50	0	2.5530	0	34.4590	0	27.501	0	1346.491	0	14.3	4	4.4	4	-1E+10	1	-1E+10	1	-1E+10	1	-1E+10	1	-1E+10	1	-1E+10	1
4902551	8	C	10/29/2020	09:00	-137.623	49.373	0	1387.90	0	2.5270	0	34.4640	0	27.507	0	1371.510	0	14.8	4	4.5	4	-1E+10	1	-1E+10	1	-1E+10	1	-1E+10	1	-1E+10	1	-1E+10	1
4902551	8	C	10/29/2020	09:00	-137.623	49.373	0	1413.00	0	2.4960	0	34.4700	0	27.514	0	1396.230	0	15.5	4	4.7	4	-1E+10	1	-1E+10	1	-1E+10	1	-1E+10	1	-1E+10	1	-1E+10	1
4902551	8	C	10/29/2020	09:00	-137.623	49.373	0	1438.20	0	2.4590	0	34.4770	0	27.523	0	1421.046	0	16.2	4	4.9	4	-1E+10	1	-1E+10	1	-1E+10	1	-1E+10	1	-1E+10	1	-1E+10	1
4902551	8	C	10/29/2020	09:00	-137.623	49.373	0	1462.70	0	2.4340	0	34.4830	0	27.530	0	1445.170	0	16.9	4	5.1	4	-1E+10	1	-1E+10	1	-1E+10	1	-1E+10	1	-1E+10	1	-1E+10	1
4902551	8	C	10/29/2020	09:00	-137.623	49.373	0	1487.60	0	2.4100	0	34.4870	0	27.536	0	1469.685	0	17.6	4	5.4	4	-1E+10	1	-1E+10	1	-1E+10	1	-1E+10	1	-1E+10	1	-1E+10	1
4902551	8	C	10/29/2020	09:00	-137.623	49.373	0	1512.60	0	2.3850	0	34.4920	0	27.542	0	1494.296	0	18.5	4	5.6	4	-1E+10	1	-1E+10	1	-1E+10	1	-1E+10	1	-1E+10	1	-1E+10	1
4902551	8	C	10/29/2020	09:00	-137.623	49.373	0	1537.50	0	2.3580	0	34.4970	0	27.548	0	1518.805	0	19.4	4	5.9	4	-1E+10	1	-1E+10	1	-1E+10	1	-1E+10	1	-1E+10	1	-1E+10	1
4902551	8	C	10/29/2020	09:00	-137.623	49.373	0	1562.80	0	2.3390	0	34.5010	0	27.553	0	1543.706	0	20.2	4	6.1	4	-1E+10	1	-1E+10	1	-1E+10	1	-1E+10	1	-1E+10	1	-1E+10	1
4902551	8	C	10/29/2020	09:00	-137.623	49.373	0	1588.20	0	2.3210	0	34.5050	0	27.558	0	1568.701	0	21.1	4	6.4	4	-1E+10	1	-1E+10	1	-1E+10	1	-1E+10	1	-1E+10	1	-1E+10	1
4902551	8	C	10/29/2020	09:00	-137.623	49.373	0	1613.10	0	2.2980	0	34.5100	0	27.564	0	1593.202	0	22.3	4	6.8	4	-1E+10	1	-1E+10	1	-1E+10	1	-1E+10	1	-1E+10	1	-1E+10	1
4902551	8	C	10/29/2020	09:00	-137.623	49.373	0	1638.80	0	2.2760	0	34.5150	0	27.570	0	1618.487	0	23.6	4	7.1	4	-1E+10	1	-1E+10	1	-1E+10	1	-1E+10	1	-1E+10	1	-1E+10	1
4902551	8	C	10/29/2020	09:00	-137.623	49.373	0	1662.70	0	2.2550	0	34.5190	0	27.575	0	1641.998	0	24.8	4	7.5	4	-1E+10	1	-1E+10	1	-1E+10	1	-1E+10	1	-1E+10	1	-1E+10	1
4902551	8	C	10/29/2020	09:00	-137.623	49.373	0	1687.80	0	2.2360	0	34.5240	0	27.581	0	1666.687	0	26.0	4	7.9	4	-1E+10	1	-1E+10	1	-1E+10	1	-1E+10	1	-1E+10	1	-1E+10	1
4902551	8	C	10/29/2020	09:00	-137.623	49.373	0	1712.80	0	2.2130	0	34.5280	0	27.586	0	1691.274	0	27.5	4	8.3	4	-1E+10	1	-1E+10	1	-1E+10	1	-1E+10	1	-1E+10	1	-1E+10	1
4902551	8	C	10/29/2020	09:00	-137.623	49.373	0	1737.50	0	2.1950	0	34.5320	0	27.591	0	1715.564	0	28.7	4	8.7	4	-1E+10	1	-1E+10	1	-1E+10	1	-1E+10	1	-1E+10	1	-1E+10	1
4902551	8	C	10/29/2020	09:00	-137.623	49.373	0	1762.60	0	2.1730	0	34.5370	0	27.596	0	1740.244	0	30.2	4	9.1	4	-1E+10	1	-1E+10	1	-1E+10	1	-1E+10	1	-1E+10	1	-1E+10	1
4902551	8	C	10/29/2020	09:00	-137.623	49.373	0	1787.90	0	2.1500	0	34.5410	0	27.602	0	1765.118	0	31.8	4	9.6	4	-1E+10	1	-1E+10	1	-1E+10	1	-1E+10	1	-1E+10	1	-1E+10	1
4902551	8	C	10/29/2020	09:00	-137.623	49.373	0	1812.90	0	2.1290	0	34.5450	0	27.607	0	1789.695	0	33.4	4	10.1	4	-1E+10	1	-1E+10	1	-1E+10	1	-1E+10	1	-1E+10	1	-1E+10	1
4902551	8	C	10/29/2020	09:00	-137.623	49.373	0	1837.70	0	2.1080	0	34.5490	0	27.612	0	1814.071	0	34.9	4	10.6	4	-1E+10	1	-1E+10	1	-1E+10	1	-1E+10	1	-1E+10	1	-1E+10	1
4902551	8	C	10/29/2020	09:00	-137.623	49.373	0	1863.20	0	2.0830	0	34.5540	0	27.618	0	1839.133	0	36.8	4	11.1	4	-1E+10	1	-1E+10	1	-1E+10	1	-1E+10	1	-1E+10	1	-1E+10	1
4902551	8	C	10/29/2020	09:00	-137.623	49.373	0	1888.10	0	2.0590	0	34.5590	0	27.624	0	1863.602	0	38.6	4	11.7	4	-1E+10	1	-1E+10	1	-1E+10	1	-1E+10	1	-1E+10	1	-1E+10	1
4902551	8	C	10/29/2020	09:00	-137.623	49.373	0	1912.60	0	2.0380	0	34.5630	0	27.629	0	1887.676	0	40.3	4	12.2	4	-1E+10	1	-1E+10	1	-1E+10	1	-1E+10	1	-1E+10	1	-1E+10	1
4902551	8	C	10/29/2020	09:00	-137.623	49.373	0	1937.80	0	2.0150	0	34.5680	0	27.635	0	1912.435	0	41.9	4	12.6	4	-1E+10	1	-1E+10	1	-1E+10	1	-1E+10	1	-1E+10	1	-1E+10	1
4902551	8	C	10/29/2020	09:00	-137.623	49.373	0	1963.00	0	2.0020	0	34.5710	0	27.638	0	1937.190	0	43.2	4	13.0	4	-1E+10	1	-1E+10	1	-1E+10	1	-1E+10	1	-1E+10	1	-1E+10	1
4902551	8	C	10/29/2020	09:00	-137.623	49.373	0	1987.80	0	1.9840	0	34.5740	0	27.642	0	1961.550	0	44.4	4	13.4	4	-1E+10	1	-1E+10	1	-1E+10	1	-1E+10	1	-1E+10	1	-1E+10	1
4902551	8	C	10/29/2020	09:00	-137.623	49.373	0	2004.20	0	1.9750	0	34.5760	0	27.645	0	1977.657	0	44.3	4	13.4	4	-1E+10	1	-1E+10	1	-1E+10	1	-1E+10	1	-1E+10	1	-1E+10	1
4902551	8	C	10/29/2020	09:00	-137.623	49.373	0																										
4902551	9	C	11/08/2020	08:57	-137.453	49.367	0	0.40	0	12.6200	0	32.2250	0	24.318	0	0.397	0	248.3	4	93.7	4	-1E+10	1	-1E+10	1	-1E+10	1	-1E+10	1	-1E+10	1	-1E+10	1
4902551	9	C	11/08/2020	08:57	-137.453	49.367	0	1.00	0	12.6170	0	32.2320	0	24.324	0	0.991	0	248.3	4	93.7	4	-1E+10	1	-1E+10	1	-1E+10	1	-1E+10	1	-1E+10	1	-1E+10	1
4902551	9	C	11/08/2020	08:57	-137.453	49.367	0	2.10	0	12.6190	0	32.2320	0	24.324	0	2.082	0	248.2	4	93.7	4	-1E+10	1	-1E+10	1	-1E+10	1	-1E+10	1	-1E+10	1	-1E+10	1
4902551	9	C	11/08/2020	08:57	-137.453	49.367	0	3.00	0	12.6200	0	32.2330	0	24.324	0	2.974	0	248.2	4	93.7	4	-1E+10	1	-1E+10	1	-1E+10	1	-1E+10	1	-1E+10	1	-1E+10	1
4902551	9	C	11/08/2020	08:57	-137.453	49.367	0	4.20	0	12.6230	0	32.2320	0	24.323	0	4.164	0	248.2	4	93.7	4	-1E+10	1	-1E+10	1	-1E+10	1	-1E+10	1	-1E+10	1	-1E+10	1
4902551	9	C	11/08/2020	08:57	-137.453	49.367	0	4.90	0	12.6240	0	32.2310	0	24.322	0	4.858	0	248.1	4	93.6	4	-1E+10	1	-1E+10	1	-1E+10	1	-1E+10	1	-1E+10	1	-1E+10	1
4902551	9	C	11/08/2020	08:57	-137.453	49.367	0	5.90	0	12.6290	0	32.2310	0	24.321	0	5.850	0	248.1	4	93.6	4	-1E+10	1	-1E+10	1	-1E+10	1	-1E+10	1	-1E+10	1	-1E+10	1
4902551	9	C	11/08/2020	08:57	-137.453	49.367	0	7.00	0	12.6290	0	32.2310	0	24.321	0	6.940	0	248.1	4	93.6	4	-1E+10	1	-1E+10	1	-1E+10	1	-1E+10	1	-1E+10	1	-1E+10	1
4902551	9	C	11/08/2020	08:57	-137.453	49.367	0	7.90	0	12.6290	0	32.2310	0	24.321	0	7.833	0	248.0	4	93.6	4	-1E+10	1	-1E+10	1	-1E+10	1	-1E+10	1	-1E+10	1	-1E+10	1
4902551	9	C	11/08/2020	08:57	-137.453	49.367	0	8.80	0	12.6290	0	32.2310	0	24.321	0	8.725	0	248.0	4	93.6	4	-1E+10	1	-1E+10	1	-1E+10	1	-1E+10	1	-1E+10	1	-1E+10	1
4902551	9	C	11/08/2020	08:57	-137.453	49.367	0	9.90	0	12.6300	0	32.2310	0	24.321	0	9.815	0	248.0	4	93.6	4	-1E+10	1	-1E+10	1	-1E+10	1	-1E+10	1	-1E+10	1	-1E+10	1
4902551	9	C	11/08/2020	08:57	-137.453	49.367	0	15.20	0	12.6300	0	32.2300	0	24.320	0	15.070	0	247.9	4	93.6	4	-1E+10	1	-1E+10	1	-1E+10	1	-1E+10	1	-1E+10	1	-1E+10	1
4902551	9	C	11/08/2020	08:57	-137.453	49.367	0	25.60	0	12.6320	0	32.2310	0	24.321	0	25.380	0	247.9	4	93.5	4	-1E+10	1	-1E+10	1	-1E+10	1	-1E+10	1	-1E+10	1	-1E+10	1
4902551	9	C	11/08/2020	08:57	-137.453	49.367	0	35.30	0	12.6320	0	32.2310	0	24.321	0	34.996	0	247.7	4	93.5	4	-1E+10	1	-1E+10	1	-1E+10	1	-1E+10	1	-1E+10	1	-1E+10	1
4902551	9	C	11/08/2020	08:57	-137.453	49.367	0	45.60	0	12.6300	0	32.2310	0	24.322	0	45.207	0	247.5	4	93.4	4	-1E+10	1	-1E+10	1	-1E+10	1	-1E+10	1	-1E+10	1	-1E+10	1
4902551	9	C	11/08/2020	08:57	-137.453	49.367	0	55.40	0	12.4700	0	32.2370	0	24.357	0	54.921	0	248.4	4	93.4	4	-1E+10	1	-1E+10	1	-1E+10	1	-1E+10	1	-1E+10	1	-1E+10	1
4902551	9	C	11/08/2020	08:57	-137.453	49.367	0	65.10	0	9.1340	0	32.3970	0	25.061	0	64.535	0	259.6	4	91.0	4	-1E+10	1	-1E+10	1	-1E+10	1	-1E+10	1	-1E+10	1	-1E+10	1
4902551	9	C	11/08/2020	08:57	-137.453	49.367	0	75.50	0	7.7490	0	32.4520	0	25.310	0	74.843	0	260.4	4	88.6	4	-1E+10	1	-1E+10	1	-1E+10	1	-1E+10	1	-1E+10	1	-1E+10	1
4902551	9	C	11/08/2020	08:57	-137.453	49.367	0	85.50	0	7.2270	0	32.4800	0	25.405	0	84.754	0	260.4	4	87.6	4	-1E+10	1	-1E+10	1	-1E+10	1	-1E+10	1	-1E+10	1	-1E+10	1
4902551	9	C	11/08/2020	08:57	-137.453	49.367	0	95.20	0	6.8710	0	32.5220	0	25.486	0	94.368	0	253.8	4	84.7	4	-1E+10	1	-1E+10	1	-1E+10	1	-1E+10	1	-1E+10	1	-1E+10	1
4902551	9	C	11/08/2020	08:57	-137.453	49.367	0	105.10	0	6.7350	0	32.6320	0	25.590	0	104.178	0	239.4	4	79.7	4	-1E+10	1	-1E+10	1	-1E+10	1	-1E+10	1	-1E+10	1	-1E+10	1
4902551	9	C	11/08/2020	08:57	-137.453	49.367	0	115.20	0	6.6710	0	32.7520	0	25.693	0	114.187	0	222.8	4	74.1	4	-1E+10	1	-1E+10	1	-1E+10	1	-1E+10	1	-1E+10	1	-1E+10	1
4902551	9	C	11/08/2020	08:57	-137.453	49.367	0	125.10	0	6.6390	0	32.9990	0	25.892	0	123.997	0	200.0	4	66.6	4	-1E+10	1	-1E+10	1	-1E+10	1	-1E+10	1	-1E+10	1	-1E+10	1
4902551	9	C	11/08/2020	08:57	-137.453	49.367	0	135.00	0	6.4570	0	33.2370	0	26.104	0	133.807	0	182.3	4	60.6	4	-1E+10	1	-1E+10	1	-1E+10	1	-1E+10	1	-1E+10	1	-1E+10	1
4902551	9	C	11/08/2020	08:57	-137.453	49.367	0	145.20	0	6.3180	0	33.4170	0	26.264	0	143.913	0	170.6	4	56.6	4	-1E+10	1	-1E+10	1	-1E+10	1	-1E+10	1	-1E+10	1	-1E+10	1
4902551	9	C	11/08/2020	08:57	-137.453	49.367	0	155.70	0	6.1970	0	33.5300	0	26.368	0	154.316	0	163.4	4	54.1	4	-1E+10	1	-1E+10	1	-1E+10	1	-1E+10	1	-1E+10	1	-1E+10	1
4902551	9	C	11/08/2020	08:57	-137.453	49.367	0	165.40	0	6.0530	0	33.6090	0	26.449	0	163.926	0	157.4	4	52.0	4	-1E+10	1	-1E+10	1	-1E+10	1	-1E+10	1	-1E+10	1	-1E+10	1
4902551	9	C	11/08/2020	08:57	-137.453	49.367	0	175.20	0	5.8800	0	33.6660	0	26.515	0	173.634	0	150.1	4	49.3	4	-1E+10	1	-1E+10	1	-1E+10	1	-1E+10	1	-1E+10	1	-1E+10	1
4902551	9	C	11/08/2020	08:57	-137.453	49.367	0	185.00	0	5.7300	0	33.7050	0	26.565	0	183.342	0	142.2	4	46.6	4	-1E+10	1	-1E+10	1	-1E+10	1	-1E+10	1	-1E+10	1	-1E+10	1
4902551	9	C	11/08/2020	08:57	-137.453	49.367	0	195.40	0	5.5970	0	33.7400	0	26.609	0	193.644	0	135.5	4	44.3	4	-1E+10	1	-1E+10	1	-1E+10	1	-1E+10	1	-1E+10	1	-1E+10	1
4902551	9	C	11/08/2020	08:57	-137.453	49.367	0	212.90	0	5.4420	0	33.7710	0	26.652	0	210.978	0	127.6	4	41.6	4	-1E+10	1	-1E+10	1	-1E+10	1	-1E+10	1	-1E+10	1	-1E+10	1
4902551	9	C	11/08/2020	08:57	-137.453	49.367	0	238.00	0	5.2950	0	33.7920	0	26.686	0	235.837	0	117.7	4	38.2	4	-1E+10	1	-1E+10	1	-1E+10	1	-1E+10	1	-1E+10	1	-1E+10	1
4902551	9	C	11/08/2020	08:57	-137.453	49.367	0	263.40	0	5.0640	0	33.8140	0	26.730	0	260.991	0	104.5	4	33.8	4	-1E+10	1	-1E+10	1	-1E+10	1	-1E+10	1	-1E+10	1	-1E+10	1
4902551	9	C	11/08/2020	08:57	-137.453	49.367	0	287.60	0	4.9170	0	33.8410	0	26.768	0	284.953	0	90.1	4	29.0	4	-1E+10	1	-1E+10	1	-1E+10	1	-1E+10	1	-1E+10	1	-1E+10	1
4902551	9	C	11/08/2020	08:57	-137.453	49.367	0	313.10	0	4.7610	0	33.8690	0	26.808	0	310.199	0	76.3	4	24.5	4	-1E+10	1	-1E+10	1	-1E+10	1	-1E+10	1	-1E+10	1	-1E+10	1
4902551	9	C	11/08/2020	08:57	-137.453	49.367	0	338.00	0	4.7000	0	33.8960	0	26.837	0	334.848	0	65.9	4	21.1	4	-1E+10	1	-1E+10	1	-1E+10	1	-1E+10	1	-1E+10	1	-1E+10	1
4902551	9	C	11/08/2020	08:57	-137.453	49.367	0	363.00	0	4.6080	0	33.9290	0	26.873	0	359.593	0	56.8	4	18.2	4	-1E+10	1	-1E+10	1	-1E+10	1	-1E+10	1	-1E+10	1	-1E+10	1
4902551	9	C	11/08/2020	08:57	-137.453	49.367	0	388.40	0	4.5320	0	33.9540	0	26.901	0	384.731	0	51.5	4	16.4	4	-1E+10	1	-1E+10	1	-1E+10	1	-1E+10	1	-1E+10	1	-1E+10	1
4902551	9	C	11/08/2020	08:57	-137.453	49.367	0	413.10	0	4.4420	0	33.9790	0	26.931	0	409.173	0	45.9	4	14.6	4	-1E+10	1	-1E+10	1	-1E+10	1	-1E+10	1	-1E+10	1	-1E+10	1
4902551	9	C	11/08/2020	08:57	-137.453	49.367	0	437.70	0	4.3600	0	34.0050	0	26.961	0	433.514	0	40.8	4	13.0	4	-1E+10	1	-1E+10	1	-1E+10	1	-1E+10	1	-1E+10	1	-1E+10	1
4902551	9	C	11/08/2020	08:57	-137.453	49.367	0	463.00	0	4.2750	0	34.0330	0	26.992	0	458.544	0	35.9	4	11.4	4	-1E+10	1	-1E+10	1	-1E+10	1	-1E+10	1	-1E+10	1	-1E+10	1
4902551	9	C	11/08/2020	08:57	-137.453	49.367	0	488.00	0	4.2020	0	34.0590	0	27.020	0	483.274	0	31.3	4	9.9	4	-1E+10	1	-1E+10	1	-1E+10	1	-1E+10	1	-1E+10	1	-1E+10	1
4902551	9	C	11/08/2020	08:57	-137.453	49.367	0	513.00	0	4.1370	0	34.0860	0	27.049	0	508.002	0	27.2	4	8.6	4	-1E+10	1	-1E+10	1	-1E+10	1	-1E+10	1	-1E+10	1	-1E+10	1
4902551	9	C	11/08/2020	08:57	-137.453	49.367	0	537.90	0	4.0810	0	34.1070	0	27.072	0	532.627	0	24.7	4	7.8	4	-1E+10	1	-1E+10	1	-1E+10	1	-1E+10	1	-1E+10	1	-1E+10	1
4902551	9	C	11/08/2020	08:57	-137.453	49.367	0	562.90	0	4.0240	0	34.1250	0	27.092	0	557.349	0	22.6	4	7.2	4	-1E+10	1	-1E+10	1	-1E+10	1	-1E+10	1	-1E+10	1	-1E+10	1
4902551	9	C	11/08/2020	08:57	-137.453	49.367	0	588.00	0	3.9520	0	34.1460	0	27.116	0	582.166	0	20.8	4	6.6	4	-1E+10	1	-1E+10	1	-1E+10	1	-1E+10	1	-1E+10	1	-1E+10	1
4902551	9	C	11/08/2020	08:57	-137.453	49.367	0	612.70	0	3.8860	0	34.1650	0	27.138	0	606.585	0	19.0	4	6.0	4	-1E+10	1	-1E+10	1	-1E+10	1	-1E+10	1	-1E+10	1	-1E+10	1
4902551	9	C	11/08/2020	08:57	-137.453	49.367	0	638.50	0	3.8370	0	34.1820	0	27.157	0	632.088	0	17.6	4	5.5	4	-1E+10	1	-1E+10	1	-1E+10	1	-1E+10	1	-1E+10	1	-1E+10	1
4902551	9	C	11/08/2020	08:57	-137.453	49.367	0	662.50	0	3.7830	0	34.1970	0	27.174	0	655.810	0	16.8	4	5.3	4	-1E+10	1	-1E+10	1	-1E+10	1	-1E+10	1	-1E+10	1	-1E+10	1
4902551	9	C	11/08/2020	08:57	-137.453	49.367	0	687.80	0	3.7220	0	34.2140	0	27.194	0	680.813	0	15.7	4	4.9	4	-1E+10	1	-1E+10	1	-1E+10	1	-1E+10	1	-1E+10	1	-1E+10	1
4902551	9	C	11/08/2020	08:57	-137.453	49.367	0	712.90	0	3.6590	0	34.2290	0	27.212	0	705.615	0	15.1	4	4.7	4	-1E+10	1	-1E+10	1	-1E+10	1	-1E+10	1	-1E+10	1	-1E+10	1
4902551	9	C	11/08/2020	08:57	-137.453	49.367	0	737.90	0	3.6050	0	34.2410	0	27.227	0	730.316	0	14.6	4	4.6	4	-1E+10	1	-1E+10	1	-1E+10	1	-1E+10	1	-1E+10	1	-1E+10	1
4902551	9	C	11/08/2020	08:57	-137.453	49.367	0	762.80	0	3.5420	0	34.2550	0	27.245	0	754.915	0	13.8	4	4.3	4	-1E+10	1	-1E+10	1	-1E+10	1	-1E+10	1	-1E+10	1	-1E+10	1
4902551	9	C	11/08/2020	08:57	-137.453	49.367	0	787.60	0	3.4800	0	34.2700	0	27.263	0	779.413	0	13.3	4	4.2	4	-1E+10	1	-1E+10	1	-1E+10	1	-1E+10	1	-1E+10	1	-1E+10	1
4902551	9	C	11/08/2020	08:57	-137.453	49.367	0	813.00	0	3.4280	0	34.2810	0	27.277	0	804.500	0	12.8	4	4.0	4	-1E+10	1	-1E+10	1	-1E+10	1	-1E+10	1	-1E+10	1	-1E+10	1
4902551	9	C	11/08/2020	08:57	-137.453	49.367	0	838.80	0	3.3790	0	34.2930	0	27.291	0	829.979	0	12.5	4	3.9	4	-1E+10	1	-1E+10	1	-1E+10	1	-1E+10	1	-1E+10	1	-1E+10	1
4902551	9	C	11/08/2020	08:57	-137.453	49.367	0	863.00	0	3.3200	0	34.3030	0	27.305	0	853.875	0	12.3	4	3.8	4	-1E+10	1	-1E+10	1	-1E+10	1	-1E+10	1	-1E+10	1	-1E+10	1
4902551	9	C	11/08/2020	08:57	-137.453	49.367	0	888.10	0	3.2570	0	34.3140	0	27.319	0	878.657	0	12.1	4	3.7	4	-1E+10	1	-1E+10	1	-1E+10	1	-1E+10	1	-1E+10	1	-1E+10	1
4902551	9	C	11/08/2020	08:57	-137.453	49.367	0	912.70	0	3.2090	0	34.3240	0	27.332	0	902.942	0	11.9	4	3.7	4	-1E+10	1	-1E+10	1	-1E+10	1	-1E+10	1	-1E+10	1	-1E+10	1
4902551	9	C	11/08/2020	08:57	-137.453	49.367	0	937.70	0	3.1750	0	34.3310	0	27.341	0	927.619	0	11.7	4	3.6	4	-1E+10	1	-1E+10	1	-1E+10	1	-1E+10	1	-1E+10	1	-1E+10	1
4902551	9	C	11/08/2020	08:57	-137.453	49.367	0	962.90	0	3.1340	0	34.3410	0	27.353	0	952.491	0	11.5	4	3.6	4	-1E+10	1	-1E+10	1	-1E+10	1	-1E+10	1	-1E+10	1	-1E+10	1
4902551	9	C	11/08/2020	08:57	-137.453	49.367	0	987.50	0	3.0990	0	34.3490	0	27.363	0	976.768	0	11.7	4	3.6	4	-1E+10	1	-1E+10	1	-1E+10	1	-1E+10	1	-1E+10	1	-1E+10	1
4902551	9	C	11/08/2020	08:57	-137.453	49.367	0	1012.50	0	3.0520	0	34.3590	0	27.375	0	1001.437	0	11.5	4	3.6	4	-1E+10	1	-1E+10	1	-1E+10	1	-1E+10	1	-1E+10	1	-1E+10	1
4902551	9	C	11/08/2020	08:57	-137.453	49.367	0	1037.70	0	3.0010	0	34.3690	0	27.388	0	1026.299	0	11.6	4	3.6	4	-1E+10	1	-1E+10	1	-1E+10	1	-1E+10	1	-1E+10	1	-1E+10	1
4902551	9	C	11/08/2020	08:57	-137.453	49.367	0	1062.70	0	2.9500	0	34.3790	0	27.400	0	1050.962	0	11.6	4	3.6	4	-1E+10	1	-1E+10	1	-1E+10	1	-1E+10	1	-1E+10	1	-1E+10	1
4902551	9	C	11/08/2020	08:57	-137.453	49.367	0	1088.00	0	2.9000	0	34.3900	0	27.414	0	1075.918	0	11.6	4	3.6	4	-1E+10	1	-1E+10	1	-1E+10	1	-1E+10	1	-1E+10	1	-1E+10	1
4902551	9	C	11/08/2020	08:57	-137.453	49.367	0	1113.10	0	2.8540	0	34.3990	0	27.425	0	1100.673	0	11.6	4	3.6	4	-1E+10	1	-1E+10	1	-1E+10	1	-1E+10	1	-1E+10	1	-1E+10	1
4902551	9	C	11/08/2020	08:57	-137.453	49.367	0	1138.00	0	2.8130	0	34.4070	0	27.435	0	1125.229	0	11.8	4	3.6	4	-1E+10	1	-1E+10	1	-1E+10	1	-1E+10	1	-1E+10	1	-1E+10	1
4902551	9	C	11/08/2020	08:57	-137.453	49.367	0	1163.00	0	2.7760	0	34.4150	0	27.445	0	1149.880	0	11.9	4	3.6	4	-1E+10	1	-1E+10	1	-1E+10	1	-1E+10	1	-1E+10	1	-1E+10	1
4902551	9	C	11/08/2020	08:57	-137.453	49.367	0	1188.10	0	2.7400	0	34.4220	0	27.454	0	1174.627	0	12.1	4	3.7	4	-1E+10	1	-1E+10	1	-1E+10	1	-1E+10	1	-1E+10	1	-1E+10	1
4902551	9	C	11/08/2020	08:57	-137.453	49.367	0	1212.70	0	2.6990	0	34.4290	0	27.463	0	1198.878	0	12.5	4	3.8	4	-1E+10	1	-1E+10	1	-1E+10	1	-1E+10	1	-1E+10	1	-1E+10	1
4902551	9	C	11/08/2020	08:57	-137.453	49.367	0	1237.60	0	2.6510	0	34.4380	0	27.475	0	1223.421	0	13.0	4	4.0	4	-1E+10	1	-1E+10	1	-1E+10	1	-1E+10	1	-1E+10	1	-1E+10	1
4902551	9	C	11/08/2020	08:57	-137.453	49.367	0	1263.90	0	2.6080	0	34.4460	0	27.485	0	1249.342	0	13.4	4	4.1	4	-1E+10	1	-1E+10	1	-1E+10	1	-1E+10	1	-1E+10	1	-1E+10	1
4902551	9	C	11/08/2020	08:57	-137.453	49.367	0	1288.00	0	2.5710	0	34.4530	0	27.494	0	1273.092	0	13.9	4	4.3	4	-1E+10	1	-1E+10	1	-1E+10	1	-1E+10	1	-1E+10	1	-1E+10	1
4902551	9	C	11/08/2020	08:57	-137.453	49.367	0	1312.90	0	2.5410	0	34.4590	0	27.501	0	1297.627	0	14.4	4	4.4	4	-1E+10	1	-1E+10	1	-1E+10	1	-1E+10	1	-1E+10	1	-1E+10	1
4902551	9	C	11/08/2020	08:57	-137.453	49.367	0	1337.90	0	2.5140	0	34.4640	0	27.508	0	1322.258	0	14.9	4	4.6	4	-1E+10	1	-1E+10	1	-1E+10	1	-1E+10	1	-1E+10	1	-1E+10	1
4902551	9	C	11/08/2020	08:57	-137.453	49.367	0	1362.90	0	2.4870	0	34.4700	0	27.515	0	1346.885	0	15.5	4	4.7	4	-1E+10	1	-1E+10	1	-1E+10	1	-1E+10	1	-1E+10	1	-1E+10	1
4902551	9	C	11/08/2020	08:57	-137.453	49.367	0	1388.70	0	2.4550	0	34.4760	0	27.523	0	1372.298	0	16.1	4	4.9	4	-1E+10	1	-1E+10	1	-1E+10	1	-1E+10	1	-1E+10	1	-1E+10	1
4902551	9	C	11/08/2020	08:57	-137.453	49.367	0	1413.00	0	2.4340	0	34.4810	0	27.528	0	1396.231	0	16.7	4	5.1	4	-1E+10	1	-1E+10	1	-1E+10	1	-1E+10	1	-1E+10	1	-1E+10	1
4902551	9	C	11/08/2020	08:57	-137.453	49.367	0	1437.80	0	2.4110	0	34.4850	0	27.534	0	1420.653	0	17.3	4	5.3	4	-1E+10	1	-1E+10	1	-1E+10	1	-1E+10	1	-1E+10	1	-1E+10	1
4902551	9	C	11/08/2020	08:57	-137.453	49.367	0	1462.50	0	2.3990	0	34.4880	0	27.537	0	1444.974	0	17.8	4	5.4	4	-1E+10	1	-1E+10	1	-1E+10	1	-1E+10	1	-1E+10	1	-1E+10	1
4902551	9	C	11/08/2020	08:57	-137.453	49.367	0	1487.70	0	2.3790	0	34.4930	0	27.543	0	1469.785	0	18.6	4	5.7	4	-1E+10	1	-1E+10	1	-1E+10	1	-1E+10	1	-1E+10	1	-1E+10	1
4902551	9	C	11/08/2020	08:57	-137.453	49.367	0	1513.20	0	2.3550	0	34.4980	0	27.549	0	1494.887	0	19.5	4	5.9	4	-1E+10	1	-1E+10	1	-1E+10	1	-1E+10	1	-1E+10	1	-1E+10	1
4902551	9	C	11/08/2020	08:57	-137.453	49.367	0	1538.10	0	2.3360	0	34.5010	0	27.553	0	1519.397	0	20.4	4	6.2	4	-1E+10	1	-1E+10	1	-1E+10	1	-1E+10	1	-1E+10	1	-1E+10	1
4902551	9	C	11/08/2020	08:57	-137.453	49.367	0	1562.80	0	2.3110	0	34.5070	0	27.560	0	1543.706	0	21.6	4	6.6	4	-1E+10	1	-1E+10	1	-1E+10	1	-1E+10	1	-1E+10	1	-1E+10	1
4902551	9	C	11/08/2020	08:57	-137.453	49.367	0	1587.90	0	2.2880	0	34.5110	0	27.565	0	1568.407	0	22.8	4	6.9	4	-1E+10	1	-1E+10	1	-1E+10	1	-1E+10	1	-1E+10	1	-1E+10	1
4902551	9	C	11/08/2020	08:57	-137.453	49.367	0	1613.10	0	2.2620	0	34.5160	0	27.572	0	1593.202	0	24.3	4	7.4	4	-1E+10	1	-1E+10	1	-1E+10	1	-1E+10	1	-1E+10	1	-1E+10	1
4902551	9	C	11/08/2020	08:57	-137.453	49.367	0	1638.20	0	2.2340	0	34.5220	0	27.579	0	1617.897	0	25.8	4	7.8	4	-1E+10	1	-1E+10	1	-1E+10	1	-1E+10	1	-1E+10	1	-1E+10	1
4902551	9	C	11/08/2020	08:57	-137.453	49.367	0	1662.90	0	2.2110	0	34.5270	0	27.585	0	1642.195	0	27.3	4	8.3	4	-1E+10	1	-1E+10	1	-1E+10	1	-1E+10	1	-1E+10	1	-1E+10	1
4902551	9	C	11/08/2020	08:57	-137.453	49.367	0	1687.90	0	2.1900	0	34.5320	0	27.591	0	1666.786	0	28.7	4	8.7	4	-1E+10	1	-1E+10	1	-1E+10	1	-1E+10	1	-1E+10	1	-1E+10	1
4902551	9	C	11/08/2020	08:57	-137.453	49.367	0	1713.60	0	2.1650	0	34.5370	0	27.597	0	1692.062	0	30.4	4	9.2	4	-1E+10	1	-1E+10	1	-1E+10	1	-1E+10	1	-1E+10	1	-1E+10	1
4902551	9	C	11/08/2020	08:57	-137.453	49.367	0	1737.60	0	2.1430	0	34.5420	0	27.603	0	1715.663	0	31.9	4	9.7	4	-1E+10	1	-1E+10	1	-1E+10	1	-1E+10	1	-1E+10	1	-1E+10	1
4902551	9	C	11/08/2020	08:57	-137.453	49.367	0	1762.60	0	2.1170	0	34.5460	0	27.608	0	1740.245	0	33.9	4	10.2	4	-1E+10	1	-1E+10	1	-1E+10	1	-1E+10	1	-1E+10	1	-1E+10	1
4902551	9	C	11/08/2020	08:57	-137.453	49.367	0	1787.70	0	2.0900	0	34.5500	0	27.614	0	1764.922	0	35.8	4	10.8	4	-1E+10	1	-1E+10	1	-1E+10	1	-1E+10	1	-1E+10	1	-1E+10	1
4902551	9	C	11/08/2020	08:57	-137.453	49.367	0	1813.70	0	2.0680	0	34.5550	0	27.619	0	1790.482	0	37.3	4	11.3	4	-1E+10	1	-1E+10	1	-1E+10	1	-1E+10	1	-1E+10	1	-1E+10	1
4902551	9	C	11/08/2020	08:57	-137.453	49.367	0	1837.80	0	2.0550	0	34.5570	0	27.622	0	1814.170	0	38.4	4	11.6	4	-1E+10	1	-1E+10	1	-1E+10	1	-1E+10	1	-1E+10	1	-1E+10	1
4902551	9	C	11/08/2020	08:57	-137.453	49.367	0	1863.00	0	2.0400	0	34.5600	0	27.626	0	1838.937	0	39.7	4	12.0	4	-1E+10	1	-1E+10	1	-1E+10	1	-1E+10	1	-1E+10	1	-1E+10	1
4902551	9	C	11/08/2020	08:57	-137.453	49.367	0	1887.90	0	2.0270	0	34.5630	0	27.629	0	1863.407	0	40.8	4	12.3	4	-1E+10	1	-1E+10	1	-1E+10	1	-1E+10	1	-1E+10	1	-1E+10	1
4902551	9	C	11/08/2020	08:57	-137.453	49.367	0	1912.90	0	2.0140	0	34.5660	0	27.633	0	1887.972	0	41.9	4	12.6	4	-1E+10	1	-1E+10	1	-1E+10	1	-1E+10	1	-1E+10	1	-1E+10	1
4902551	9	C	11/08/2020	08:57	-137.453	49.367	0	1937.80	0	2.0020	0	34.5680	0	27.636	0	1912.435	0	43.1	4	13.0	4	-1E+10	1	-1E+10	1	-1E+10	1	-1E+10	1	-1E+10	1	-1E+10	1
4902551	9	C	11/08/2020	08:57	-137.453	49.367	0	1962.80	0	1.9870	0	34.5720	0	27.640	0	1936.995	0	44.5	4	13.4	4	-1E+10	1	-1E+10	1	-1E+10	1	-1E+10	1	-1E+10	1	-1E+10	1
4902551	9	C	11/08/2020	08:57	-137.453	49.367	0	1988.30	0	1.9700	0	34.5750	0	27.644	0	1962.042	0	45.8	4	13.8	4	-1E+10	1	-1E+10	1	-1E+10	1	-1E+10	1	-1E+10	1	-1E+10	1
4902551	9	C	11/08/2020	08:57	-137.453	49.367	0	2012.40	0	1.9560	0	34.5780	0	27.648	0	1985.711	0	46.6	4	14.0	4	-1E+10	1	-1E+10	1	-1E+10	1	-1E+10	1	-1E+10	1	-1E+10	1
4902551	9	C	11/08/2020	08:57	-137.453	49.367	0																										
4902551	10	C	11/18/2020	09:09	-137.291	49.353	0	0.40	0	11.3130	0	32.2600	0	24.588	0	0.397	0	251.7	4	92.4	4	-1E+10	1	-1E+10	1	-1E+10	1	-1E+10	1	-1E+10	1	-1E+10	1
4902551	10	C	11/18/2020	09:09	-137.291	49.353	0	1.10	0	11.3170	0	32.2570	0	24.585	0	1.091	0	251.7	4	92.4	4	-1E+10	1	-1E+10	1	-1E+10	1	-1E+10	1	-1E+10	1	-1E+10	1
4902551	10	C	11/18/2020	09:09	-137.291	49.353	0	2.00	0	11.3230	0	32.2510	0	24.579	0	1.983	0	251.7	4	92.4	4	-1E+10	1	-1E+10	1	-1E+10	1	-1E+10	1	-1E+10	1	-1E+10	1
4902551	10	C	11/18/2020	09:09	-137.291	49.353	0	3.00	0	11.3220	0	32.2530	0	24.581	0	2.974	0	251.6	4	92.4	4	-1E+10	1	-1E+10	1	-1E+10	1	-1E+10	1	-1E+10	1	-1E+10	1
4902551	10	C	11/18/2020	09:09	-137.291	49.353	0	4.30	0	11.3200	0	32.2550	0	24.582	0	4.263	0	251.6	4	92.4	4	-1E+10	1	-1E+10	1	-1E+10	1	-1E+10	1	-1E+10	1	-1E+10	1
4902551	10	C	11/18/2020	09:09	-137.291	49.353	0	5.10	0	11.3210	0	32.2540	0	24.582	0	5.057	0	251.6	4	92.4	4	-1E+10	1	-1E+10	1	-1E+10	1	-1E+10	1	-1E+10	1	-1E+10	1
4902551	10	C	11/18/2020	09:09	-137.291	49.353	0	6.00	0	11.3280	0	32.2550	0	24.581	0	5.949	0	251.5	4	92.4	4	-1E+10	1	-1E+10	1	-1E+10	1	-1E+10	1	-1E+10	1	-1E+10	1
4902551	10	C	11/18/2020	09:09	-137.291	49.353	0	6.90	0	11.3260	0	32.2540	0	24.581	0	6.841	0	251.5	4	92.4	4	-1E+10	1	-1E+10	1	-1E+10	1	-1E+10	1	-1E+10	1	-1E+10	1
4902551	10	C	11/18/2020	09:09	-137.291	49.353	0	7.90	0	11.3230	0	32.2540	0	24.581	0	7.833	0	251.5	4	92.4	4	-1E+10	1	-1E+10	1	-1E+10	1	-1E+10	1	-1E+10	1	-1E+10	1
4902551	10	C	11/18/2020	09:09	-137.291	49.353	0	8.80	0	11.3280	0	32.2550	0	24.581	0	8.725	0	251.5	4	92.4	4	-1E+10	1	-1E+10	1	-1E+10	1	-1E+10	1	-1E+10	1	-1E+10	1
4902551	10	C	11/18/2020	09:09	-137.291	49.353	0	10.00	0	11.3300	0	32.2550	0	24.581	0	9.915	0	251.5	4	92.4	4	-1E+10	1	-1E+10	1	-1E+10	1	-1E+10	1	-1E+10	1	-1E+10	1
4902551	10	C	11/18/2020	09:09	-137.291	49.353	0	15.10	0	11.3330	0	32.2550	0	24.580	0	14.971	0	251.4	4	92.4	4	-1E+10	1	-1E+10	1	-1E+10	1	-1E+10	1	-1E+10	1	-1E+10	1
4902551	10	C	11/18/2020	09:09	-137.291	49.353	0	25.50	0	11.3350	0	32.2540	0	24.579	0	25.281	0	251.1	4	92.3	4	-1E+10	1	-1E+10	1	-1E+10	1	-1E+10	1	-1E+10	1	-1E+10	1
4902551	10	C	11/18/2020	09:09	-137.291	49.353	0	35.20	0	11.3340	0	32.2550	0	24.581	0	34.897	0	251.0	4	92.2	4	-1E+10	1	-1E+10	1	-1E+10	1	-1E+10	1	-1E+10	1	-1E+10	1
4902551	10	C	11/18/2020	09:09	-137.291	49.353	0	45.40	0	11.3420	0	32.2540	0	24.579	0	45.008	0	250.6	4	92.1	4	-1E+10	1	-1E+10	1	-1E+10	1	-1E+10	1	-1E+10	1	-1E+10	1
4902551	10	C	11/18/2020	09:09	-137.291	49.353	0	55.30	0	11.1630	0	32.2660	0	24.620	0	54.822	0	250.4	4	91.7	4	-1E+10	1	-1E+10	1	-1E+10	1	-1E+10	1	-1E+10	1	-1E+10	1
4902551	10	C	11/18/2020	09:09	-137.291	49.353	0	65.50	0	10.5420	0	32.3030	0	24.757	0	64.932	0	251.5	4	90.9	4	-1E+10	1	-1E+10	1	-1E+10	1	-1E+10	1	-1E+10	1	-1E+10	1
4902551	10	C	11/18/2020	09:09	-137.291	49.353	0	75.40	0	8.1970	0	32.4320	0	25.230	0	74.744	0	257.5	4	88.5	4	-1E+10	1	-1E+10	1	-1E+10	1	-1E+10	1	-1E+10	1	-1E+10	1
4902551	10	C	11/18/2020	09:09	-137.291	49.353	0	85.30	0	6.9840	0	32.5000	0	25.453	0	84.556	0	258.8	4	86.6	4	-1E+10	1	-1E+10	1	-1E+10	1	-1E+10	1	-1E+10	1	-1E+10	1
4902551	10	C	11/18/2020	09:09	-137.291	49.353	0	95.50	0	6.5920	0	32.5500	0	25.544	0	94.665	0	251.7	4	83.5	4	-1E+10	1	-1E+10	1	-1E+10	1	-1E+10	1	-1E+10	1	-1E+10	1
4902551	10	C	11/18/2020	09:09	-137.291	49.353	0	105.70	0	6.4750	0	32.6510	0	25.639	0	104.773	0	232.5	4	76.9	4	-1E+10	1	-1E+10	1	-1E+10	1	-1E+10	1	-1E+10	1	-1E+10	1
4902551	10	C	11/18/2020	09:09	-137.291	49.353	0	115.30	0	6.4330	0	32.8870	0	25.830	0	114.286	0	209.3	4	69.3	4	-1E+10	1	-1E+10	1	-1E+10	1	-1E+10	1	-1E+10	1	-1E+10	1
4902551	10	C	11/18/2020	09:09	-137.291	49.353	0	125.50	0	6.3660	0	33.1830	0	26.073	0	124.394	0	183.3	4	60.8	4	-1E+10	1	-1E+10	1	-1E+10	1	-1E+10	1	-1E+10	1	-1E+10	1
4902551	10	C	11/18/2020	09:09	-137.291	49.353	0	135.50	0	6.3160	0	33.3410	0	26.204	0	134.302	0	171.6	4	56.9	4	-1E+10	1	-1E+10	1	-1E+10	1	-1E+10	1	-1E+10	1	-1E+10	1
4902551	10	C	11/18/2020	09:09	-137.291	49.353	0	145.20	0	6.2610	0	33.4870	0	26.326	0	143.913	0	160.1	4	53.1	4	-1E+10	1	-1E+10	1	-1E+10	1	-1E+10	1	-1E+10	1	-1E+10	1
4902551	10	C	11/18/2020	09:09	-137.291	49.353	0	155.60	0	6.1600	0	33.6090	0	26.435	0	154.217	0	150.2	4	49.7	4	-1E+10	1	-1E+10	1	-1E+10	1	-1E+10	1	-1E+10	1	-1E+10	1
4902551	10	C	11/18/2020	09:09	-137.291	49.353	0	165.60	0	6.0720	0	33.6610	0	26.488	0	164.124	0	143.8	4	47.5	4	-1E+10	1	-1E+10	1	-1E+10	1	-1E+10	1	-1E+10	1	-1E+10	1
4902551	10	C	11/18/2020	09:09	-137.291	49.353	0	175.50	0	5.8990	0	33.7200	0	26.556	0	173.932	0	140.3	4	46.2	4	-1E+10	1	-1E+10	1	-1E+10	1	-1E+10	1	-1E+10	1	-1E+10	1
4902551	10	C	11/18/2020	09:09	-137.291	49.353	0	185.20	0	5.6890	0	33.7390	0	26.597	0	183.541	0	136.6	4	44.7	4	-1E+10	1	-1E+10	1	-1E+10	1	-1E+10	1	-1E+10	1	-1E+10	1
4902551	10	C	11/18/2020	09:09	-137.291	49.353	0	195.40	0	5.6030	0	33.7540	0	26.619	0	193.645	0	131.7	4	43.1	4	-1E+10	1	-1E+10	1	-1E+10	1	-1E+10	1	-1E+10	1	-1E+10	1
4902551	10	C	11/18/2020	09:09	-137.291	49.353	0	212.60	0	5.4760	0	33.7780	0	26.653	0	210.681	0	123.4	4	40.2	4	-1E+10	1	-1E+10	1	-1E+10	1	-1E+10	1	-1E+10	1	-1E+10	1
4902551	10	C	11/18/2020	09:09	-137.291	49.353	0	237.50	0	5.2780	0	33.8030	0	26.697	0	235.343	0	112.3	4	36.4	4	-1E+10	1	-1E+10	1	-1E+10	1	-1E+10	1	-1E+10	1	-1E+10	1
4902551	10	C	11/18/2020	09:09	-137.291	49.353	0	262.50	0	5.0600	0	33.8210	0	26.736	0	260.100	0	100.5	4	32.5	4	-1E+10	1	-1E+10	1	-1E+10	1	-1E+10	1	-1E+10	1	-1E+10	1
4902551	10	C	11/18/2020	09:09	-137.291	49.353	0	288.00	0	4.8470	0	33.8440	0	26.779	0	285.349	0	88.6	4	28.5	4	-1E+10	1	-1E+10	1	-1E+10	1	-1E+10	1	-1E+10	1	-1E+10	1
4902551	10	C	11/18/2020	09:09	-137.291	49.353	0	312.70	0	4.6970	0	33.8720	0	26.818	0	309.803	0	74.5	4	23.9	4	-1E+10	1	-1E+10	1	-1E+10	1	-1E+10	1	-1E+10	1	-1E+10	1
4902551	10	C	11/18/2020	09:09	-137.291	49.353	0	337.60	0	4.5710	0	33.9010	0	26.855	0	334.452	0	64.2	4	20.5	4	-1E+10	1	-1E+10	1	-1E+10	1	-1E+10	1	-1E+10	1	-1E+10	1
4902551	10	C	11/18/2020	09:09	-137.291	49.353	0	362.90	0	4.5070	0	33.9260	0	26.882	0	359.495	0	57.1	4	18.2	4	-1E+10	1	-1E+10	1	-1E+10	1	-1E+10	1	-1E+10	1	-1E+10	1
4902551	10	C	11/18/2020	09:09	-137.291	49.353	0	388.00	0	4.4450	0	33.9540	0	26.911	0	384.336	0	51.1	4	16.3	4	-1E+10	1	-1E+10	1	-1E+10	1	-1E+10	1	-1E+10	1	-1E+10	1
4902551	10	C	11/18/2020	09:09	-137.291	49.353	0	413.10	0	4.3710	0	33.9820	0	26.941	0	409.174	0	46.3	4	14.7	4	-1E+10	1	-1E+10	1	-1E+10	1	-1E+10	1	-1E+10	1	-1E+10	1
4902551	10	C	11/18/2020	09:09	-137.291	49.353	0	438.70	0	4.3050	0	34.0110	0	26.971	0	434.504	0	40.8	4	12.9	4	-1E+10	1	-1E+10	1	-1E+10	1	-1E+10	1	-1E+10	1	-1E+10	1
4902551	10	C	11/18/2020	09:09	-137.291	49.353	0	462.60	0	4.2520	0	34.0370	0	26.998	0	458.149	0	35.9	4	11.4	4	-1E+10	1	-1E+10	1	-1E+10	1	-1E+10	1	-1E+10	1	-1E+10	1
4902551	10	C	11/18/2020	09:09	-137.291	49.353	0	487.60	0	4.1920	0	34.0600	0	27.022	0	482.879	0	31.2	4	9.9	4	-1E+10	1	-1E+10	1	-1E+10	1	-1E+10	1	-1E+10	1	-1E+10	1
4902551	10	C	11/18/2020	09:09	-137.291	49.353	0	512.70	0	4.1300	0	34.0840	0	27.048	0	507.706	0	27.6	4	8.7	4	-1E+10	1	-1E+10	1	-1E+10	1	-1E+10	1	-1E+10	1	-1E+10	1
4902551	10	C	11/18/2020	09:09	-137.291	49.353	0	537.80	0	4.0700	0	34.1060	0	27.072	0	532.529	0	24.7	4	7.8	4	-1E+10	1	-1E+10	1	-1E+10	1	-1E+10	1	-1E+10	1	-1E+10	1
4902551	10	C	11/18/2020	09:09	-137.291	49.353	0	562.90	0	3.9990	0	34.1290	0	27.098	0	557.349	0	22.4	4	7.1	4	-1E+10	1	-1E+10	1	-1E+10	1	-1E+10	1	-1E+10	1	-1E+10	1
4902551	10	C	11/18/2020	09:09	-137.291	49.353	0	588.40	0	3.9360	0	34.1490	0	27.120	0	582.562	0	20.8	4	6.5	4	-1E+10	1	-1E+10	1	-1E+10	1	-1E+10	1	-1E+10	1	-1E+10	1
4902551	10	C	11/18/2020	09:09	-137.291	49.353	0	613.00	0	3.8890	0	34.1640	0	27.137	0	606.882	0	19.3	4	6.1	4	-1E+10	1	-1E+10	1	-1E+10	1	-1E+10	1	-1E+10	1	-1E+10	1
4902551	10	C	11/18/2020	09:09	-137.291	49.353	0	637.90	0	3.8330	0	34.1810	0	27.156	0	631.496	0	18.0	4	5.7	4	-1E+10	1	-1E+10	1	-1E+10	1	-1E+10	1	-1E+10	1	-1E+10	1
4902551	10	C	11/18/2020	09:09	-137.291	49.353	0	662.60	0	3.7680	0	34.1980	0	27.176	0	655.909	0	16.9	4	5.3	4	-1E+10	1	-1E+10	1	-1E+10	1	-1E+10	1	-1E+10	1	-1E+10	1
4902551	10	C	11/18/2020	09:09	-137.291	49.353	0	687.90	0	3.7170	0	34.2150	0	27.195	0	680.913	0	15.7	4	4.9	4	-1E+10	1	-1E+10	1	-1E+10	1	-1E+10	1	-1E+10	1	-1E+10	1
4902551	10	C	11/18/2020	09:09	-137.291	49.353	0	713.20	0	3.6620	0	34.2290	0	27.212	0	705.913	0	15.0	4	4.7	4	-1E+10	1	-1E+10	1	-1E+10	1	-1E+10	1	-1E+10	1	-1E+10	1
4902551	10	C	11/18/2020	09:09	-137.291	49.353	0	738.00	0	3.5980	0	34.2430	0	27.229	0	730.416	0	14.4	4	4.5	4	-1E+10	1	-1E+10	1	-1E+10	1	-1E+10	1	-1E+10	1	-1E+10	1
4902551	10	C	11/18/2020	09:09	-137.291	49.353	0	762.80	0	3.5380	0	34.2570	0	27.247	0	754.916	0	13.8	4	4.3	4	-1E+10	1	-1E+10	1	-1E+10	1	-1E+10	1	-1E+10	1	-1E+10	1
4902551	10	C	11/18/2020	09:09	-137.291	49.353	0	787.70	0	3.4800	0	34.2690	0	27.262	0	779.512	0	13.4	4	4.2	4	-1E+10	1	-1E+10	1	-1E+10	1	-1E+10	1	-1E+10	1	-1E+10	1
4902551	10	C	11/18/2020	09:09	-137.291	49.353	0	813.90	0	3.4250	0	34.2790	0	27.275	0	805.390	0	13.1	4	4.1	4	-1E+10	1	-1E+10	1	-1E+10	1	-1E+10	1	-1E+10	1	-1E+10	1
4902551	10	C	11/18/2020	09:09	-137.291	49.353	0	838.00	0	3.3690	0	34.2900	0	27.290	0	829.190	0	12.8	4	4.0	4	-1E+10	1	-1E+10	1	-1E+10	1	-1E+10	1	-1E+10	1	-1E+10	1
4902551	10	C	11/18/2020	09:09	-137.291	49.353	0	862.90	0	3.3290	0	34.3000	0	27.301	0	853.777	0	12.4	4	3.9	4	-1E+10	1	-1E+10	1	-1E+10	1	-1E+10	1	-1E+10	1	-1E+10	1
4902551	10	C	11/18/2020	09:09	-137.291	49.353	0	887.60	0	3.2820	0	34.3100	0	27.314	0	878.164	0	12.2	4	3.8	4	-1E+10	1	-1E+10	1	-1E+10	1	-1E+10	1	-1E+10	1	-1E+10	1
4902551	10	C	11/18/2020	09:09	-137.291	49.353	0	912.50	0	3.2300	0	34.3200	0	27.327	0	902.746	0	12.0	4	3.7	4	-1E+10	1	-1E+10	1	-1E+10	1	-1E+10	1	-1E+10	1	-1E+10	1
4902551	10	C	11/18/2020	09:09	-137.291	49.353	0	937.60	0	3.1840	0	34.3310	0	27.340	0	927.522	0	11.8	4	3.7	4	-1E+10	1	-1E+10	1	-1E+10	1	-1E+10	1	-1E+10	1	-1E+10	1
4902551	10	C	11/18/2020	09:09	-137.291	49.353	0	962.90	0	3.1440	0	34.3400	0	27.351	0	952.492	0	11.7	4	3.6	4	-1E+10	1	-1E+10	1	-1E+10	1	-1E+10	1	-1E+10	1	-1E+10	1
4902551	10	C	11/18/2020	09:09	-137.291	49.353	0	988.40	0	3.1030	0	34.3490	0	27.362	0	977.657	0	11.6	4	3.6	4	-1E+10	1	-1E+10	1	-1E+10	1	-1E+10	1	-1E+10	1	-1E+10	1
4902551	10	C	11/18/2020	09:09	-137.291	49.353	0	1013.50	0	3.0600	0	34.3570	0	27.373	0	1002.425	0	11.8	4	3.6	4	-1E+10	1	-1E+10	1	-1E+10	1	-1E+10	1	-1E+10	1	-1E+10	1
4902551	10	C	11/18/2020	09:09	-137.291	49.353	0	1037.80	0	3.0170	0	34.3650	0	27.383	0	1026.400	0	11.7	4	3.6	4	-1E+10	1	-1E+10	1	-1E+10	1	-1E+10	1	-1E+10	1	-1E+10	1
4902551	10	C	11/18/2020	09:09	-137.291	49.353	0	1062.70	0	2.9630	0	34.3760	0	27.397	0	1050.964	0	11.7	4	3.6	4	-1E+10	1	-1E+10	1	-1E+10	1	-1E+10	1	-1E+10	1	-1E+10	1
4902551	10	C	11/18/2020	09:09	-137.291	49.353	0	1088.70	0	2.9190	0	34.3850	0	27.408	0	1076.610	0	11.6	4	3.6	4	-1E+10	1	-1E+10	1	-1E+10	1	-1E+10	1	-1E+10	1	-1E+10	1
4902551	10	C	11/18/2020	09:09	-137.291	49.353	0	1113.00	0	2.8870	0	34.3920	0	27.417	0	1100.576	0	11.6	4	3.6	4	-1E+10	1	-1E+10	1	-1E+10	1	-1E+10	1	-1E+10	1	-1E+10	1
4902551	10	C	11/18/2020	09:09	-137.291	49.353	0	1137.70	0	2.8550	0	34.3990	0	27.425	0	1124.934	0	11.6	4	3.6	4	-1E+10	1	-1E+10	1	-1E+10	1	-1E+10	1	-1E+10	1	-1E+10	1
4902551	10	C	11/18/2020	09:09	-137.291	49.353	0	1162.40	0	2.8130	0	34.4070	0	27.436	0	1149.290	0	11.7	4	3.6	4	-1E+10	1	-1E+10	1	-1E+10	1	-1E+10	1	-1E+10	1	-1E+10	1
4902551	10	C	11/18/2020	09:09	-137.291	49.353	0	1188.40	0	2.7710	0	34.4160	0	27.447	0	1174.924	0	11.9	4	3.6	4	-1E+10	1	-1E+10	1	-1E+10	1	-1E+10	1	-1E+10	1	-1E+10	1
4902551	10	C	11/18/2020	09:09	-137.291	49.353	0	1212.80	0	2.7300	0	34.4240	0	27.457	0	1198.978	0	12.1	4	3.7	4	-1E+10	1	-1E+10	1	-1E+10	1	-1E+10	1	-1E+10	1	-1E+10	1
4902551	10	C	11/18/2020	09:09	-137.291	49.353	0	1238.10	0	2.7010	0	34.4290	0	27.463	0	1223.916	0	12.3	4	3.8	4	-1E+10	1	-1E+10	1	-1E+10	1	-1E+10	1	-1E+10	1	-1E+10	1
4902551	10	C	11/18/2020	09:09	-137.291	49.353	0	1262.90	0	2.6780	0	34.4340	0	27.469	0	1248.358	0	12.5	4	3.8	4	-1E+10	1	-1E+10	1	-1E+10	1	-1E+10	1	-1E+10	1	-1E+10	1
4902551	10	C	11/18/2020	09:09	-137.291	49.353	0	1288.00	0	2.6530	0	34.4390	0	27.476	0	1273.093	0	12.9	4	3.9	4	-1E+10	1	-1E+10	1	-1E+10	1	-1E+10	1	-1E+10	1	-1E+10	1
4902551	10	C	11/18/2020	09:09	-137.291	49.353	0	1312.80	0	2.6260	0	34.4440	0	27.482	0	1297.530	0	13.2	4	4.0	4	-1E+10	1	-1E+10	1	-1E+10	1	-1E+10	1	-1E+10	1	-1E+10	1
4902551	10	C	11/18/2020	09:09	-137.291	49.353	0	1337.80	0	2.5930	0	34.4500	0	27.490	0	1322.161	0	13.7	4	4.2	4	-1E+10	1	-1E+10	1	-1E+10	1	-1E+10	1	-1E+10	1	-1E+10	1
4902551	10	C	11/18/2020	09:09	-137.291	49.353	0	1362.90	0	2.5560	0	34.4570	0	27.499	0	1346.887	0	14.2	4	4.3	4	-1E+10	1	-1E+10	1	-1E+10	1	-1E+10	1	-1E+10	1	-1E+10	1
4902551	10	C	11/18/2020	09:09	-137.291	49.353	0	1387.90	0	2.5190	0	34.4650	0	27.508	0	1371.512	0	14.7	4	4.5	4	-1E+10	1	-1E+10	1	-1E+10	1	-1E+10	1	-1E+10	1	-1E+10	1
4902551	10	C	11/18/2020	09:09	-137.291	49.353	0	1412.90	0	2.4920	0	34.4710	0	27.516	0	1396.134	0	15.2	4	4.6	4	-1E+10	1	-1E+10	1	-1E+10	1	-1E+10	1	-1E+10	1	-1E+10	1
4902551	10	C	11/18/2020	09:09	-137.291	49.353	0	1437.70	0	2.4610	0	34.4770	0	27.523	0	1420.557	0	16.0	4	4.9	4	-1E+10	1	-1E+10	1	-1E+10	1	-1E+10	1	-1E+10	1	-1E+10	1
4902551	10	C	11/18/2020	09:09	-137.291	49.353	0	1463.00	0	2.4330	0	34.4820	0	27.530	0	1445.468	0	16.9	4	5.1	4	-1E+10	1	-1E+10	1	-1E+10	1	-1E+10	1	-1E+10	1	-1E+10	1
4902551	10	C	11/18/2020	09:09	-137.291	49.353	0	1487.80	0	2.4040	0	34.4880	0	27.537	0	1469.885	0	17.7	4	5.4	4	-1E+10	1	-1E+10	1	-1E+10	1	-1E+10	1	-1E+10	1	-1E+10	1
4902551	10	C	11/18/2020	09:09	-137.291	49.353	0	1513.00	0	2.3820	0	34.4930	0	27.543	0	1494.693	0	18.5	4	5.6	4	-1E+10	1	-1E+10	1	-1E+10	1	-1E+10	1	-1E+10	1	-1E+10	1
4902551	10	C	11/18/2020	09:09	-137.291	49.353	0	1537.80	0	2.3590	0	34.4970	0	27.548	0	1519.103	0	19.5	4	5.9	4	-1E+10	1	-1E+10	1	-1E+10	1	-1E+10	1	-1E+10	1	-1E+10	1
4902551	10	C	11/18/2020	09:09	-137.291	49.353	0	1562.70	0	2.3340	0	34.5020	0	27.554	0	1543.610	0	20.5	4	6.2	4	-1E+10	1	-1E+10	1	-1E+10	1	-1E+10	1	-1E+10	1	-1E+10	1
4902551	10	C	11/18/2020	09:09	-137.291	49.353	0	1587.70	0	2.3110	0	34.5070	0	27.560	0	1568.212	0	21.8	4	6.6	4	-1E+10	1	-1E+10	1	-1E+10	1	-1E+10	1	-1E+10	1	-1E+10	1
4902551	10	C	11/18/2020	09:09	-137.291	49.353	0	1612.70	0	2.2820	0	34.5130	0	27.568	0	1592.811	0	23.3	4	7.1	4	-1E+10	1	-1E+10	1	-1E+10	1	-1E+10	1	-1E+10	1	-1E+10	1
4902551	10	C	11/18/2020	09:09	-137.291	49.353	0	1637.60	0	2.2550	0	34.5180	0	27.574	0	1617.309	0	24.7	4	7.5	4	-1E+10	1	-1E+10	1	-1E+10	1	-1E+10	1	-1E+10	1	-1E+10	1
4902551	10	C	11/18/2020	09:09	-137.291	49.353	0	1663.60	0	2.2310	0	34.5240	0	27.581	0	1642.886	0	26.3	4	8.0	4	-1E+10	1	-1E+10	1	-1E+10	1	-1E+10	1	-1E+10	1	-1E+10	1
4902551	10	C	11/18/2020	09:09	-137.291	49.353	0	1687.90	0	2.2040	0	34.5300	0	27.588	0	1666.788	0	27.9	4	8.5	4	-1E+10	1	-1E+10	1	-1E+10	1	-1E+10	1	-1E+10	1	-1E+10	1
4902551	10	C	11/18/2020	09:09	-137.291	49.353	0	1713.00	0	2.1780	0	34.5340	0	27.593	0	1691.474	0	29.6	4	9.0	4	-1E+10	1	-1E+10	1	-1E+10	1	-1E+10	1	-1E+10	1	-1E+10	1
4902551	10	C	11/18/2020	09:09	-137.291	49.353	0	1738.00	0	2.1530	0	34.5390	0	27.599	0	1716.059	0	31.1	4	9.4	4	-1E+10	1	-1E+10	1	-1E+10	1	-1E+10	1	-1E+10	1	-1E+10	1
4902551	10	C	11/18/2020	09:09	-137.291	49.353	0	1762.70	0	2.1350	0	34.5420	0	27.603	0	1740.346	0	32.5	4	9.8	4	-1E+10	1	-1E+10	1	-1E+10	1	-1E+10	1	-1E+10	1	-1E+10	1
4902551	10	C	11/18/2020	09:09	-137.291	49.353	0	1787.90	0	2.1120	0	34.5470	0	27.609	0	1765.121	0	34.2	4	10.3	4	-1E+10	1	-1E+10	1	-1E+10	1	-1E+10	1	-1E+10	1	-1E+10	1
4902551	10	C	11/18/2020	09:09	-137.291	49.353	0	1813.10	0	2.0940	0	34.5510	0	27.614	0	1789.894	0	35.5	4	10.7	4	-1E+10	1	-1E+10	1	-1E+10	1	-1E+10	1	-1E+10	1	-1E+10	1
4902551	10	C	11/18/2020	09:09	-137.291	49.353	0	1838.20	0	2.0760	0	34.5550	0	27.619	0	1814.566	0	37.0	4	11.2	4	-1E+10	1	-1E+10	1	-1E+10	1	-1E+10	1	-1E+10	1	-1E+10	1
4902551	10	C	11/18/2020	09:09	-137.291	49.353	0	1863.30	0	2.0590	0	34.5580	0	27.623	0	1839.235	0	38.5	4	11.6	4	-1E+10	1	-1E+10	1	-1E+10	1	-1E+10	1	-1E+10	1	-1E+10	1
4902551	10	C	11/18/2020	09:09	-137.291	49.353	0	1888.20	0	2.0380	0	34.5610	0	27.627	0	1863.704	0	40.1	4	12.1	4	-1E+10	1	-1E+10	1	-1E+10	1	-1E+10	1	-1E+10	1	-1E+10	1
4902551	10	C	11/18/2020	09:09	-137.291	49.353	0	1913.50	0	2.0190	0	34.5660	0	27.633	0	1888.564	0	41.7	4	12.6	4	-1E+10	1	-1E+10	1	-1E+10	1	-1E+10	1	-1E+10	1	-1E+10	1
4902551	10	C	11/18/2020	09:09	-137.291	49.353	0	1937.80	0	2.0000	0	34.5690	0	27.637	0	1912.438	0	43.2	4	13.0	4	-1E+10	1	-1E+10	1	-1E+10	1	-1E+10	1	-1E+10	1	-1E+10	1
4902551	10	C	11/18/2020	09:09	-137.291	49.353	0	1962.90	0	1.9830	0	34.5730	0	27.641	0	1937.095	0	44.7	4	13.5	4	-1E+10	1	-1E+10	1	-1E+10	1	-1E+10	1	-1E+10	1	-1E+10	1
4902551	10	C	11/18/2020	09:09	-137.291	49.353	0	1987.60	0	1.9660	0	34.5760	0	27.645	0	1961.357	0	46.1	4	13.9	4	-1E+10	1	-1E+10	1	-1E+10	1	-1E+10	1	-1E+10	1	-1E+10	1
4902551	10	C	11/18/2020	09:09	-137.291	49.353	0	2010.90	0	1.9520	0	34.5790	0	27.649	0	1984.241	0	47.1	4	14.2	4	-1E+10	1	-1E+10	1	-1E+10	1	-1E+10	1	-1E+10	1	-1E+10	1
4902551	10	C	11/18/2020	09:09	-137.291	49.353	0																										
4902551	11	C	11/28/2020	09:03	-137.161	49.369	0	0.30	0	10.4830	0	32.1940	0	24.681	0	0.297	0	257.6	4	92.9	4	-1E+10	1	-1E+10	1	-1E+10	1	-1E+10	1	-1E+10	1	-1E+10	1
4902551	11	C	11/28/2020	09:03	-137.161	49.369	0	1.00	0	10.4870	0	32.2460	0	24.721	0	0.991	0	257.4	4	92.9	4	-1E+10	1	-1E+10	1	-1E+10	1	-1E+10	1	-1E+10	1	-1E+10	1
4902551	11	C	11/28/2020	09:03	-137.161	49.369	0	2.10	0	10.4860	0	32.2430	0	24.719	0	2.082	0	257.4	4	92.9	4	-1E+10	1	-1E+10	1	-1E+10	1	-1E+10	1	-1E+10	1	-1E+10	1
4902551	11	C	11/28/2020	09:03	-137.161	49.369	0	2.90	0	10.4840	0	32.2360	0	24.714	0	2.875	0	257.4	4	92.9	4	-1E+10	1	-1E+10	1	-1E+10	1	-1E+10	1	-1E+10	1	-1E+10	1
4902551	11	C	11/28/2020	09:03	-137.161	49.369	0	4.10	0	10.4840	8	32.1980	8	24.684	0	4.065	0	257.5	4	92.9	4	-1E+10	1	-1E+10	1	-1E+10	1	-1E+10	1	-1E+10	1	-1E+10	1
4902551	11	C	11/28/2020	09:03	-137.161	49.369	0	5.00	0	10.4850	8	32.0720	8	24.586	0	4.957	0	257.6	4	92.8	4	-1E+10	1	-1E+10	1	-1E+10	1	-1E+10	1	-1E+10	1	-1E+10	1
4902551	11	C	11/28/2020	09:03	-137.161	49.369	0	5.90	0	10.4900	0	32.0670	0	24.581	0	5.850	0	257.6	4	92.8	4	-1E+10	1	-1E+10	1	-1E+10	1	-1E+10	1	-1E+10	1	-1E+10	1
4902551	11	C	11/28/2020	09:03	-137.161	49.369	0	6.90	0	10.4900	0	32.0650	0	24.579	0	6.841	0	257.6	4	92.8	4	-1E+10	1	-1E+10	1	-1E+10	1	-1E+10	1	-1E+10	1	-1E+10	1
4902551	11	C	11/28/2020	09:03	-137.161	49.369	0	7.80	0	10.4900	0	32.0620	0	24.577	0	7.733	0	257.6	4	92.8	4	-1E+10	1	-1E+10	1	-1E+10	1	-1E+10	1	-1E+10	1	-1E+10	1
4902551	11	C	11/28/2020	09:03	-137.161	49.369	0	9.10	0	10.4900	0	32.0600	0	24.576	0	9.022	0	257.6	4	92.8	4	-1E+10	1	-1E+10	1	-1E+10	1	-1E+10	1	-1E+10	1	-1E+10	1
4902551	11	C	11/28/2020	09:03	-137.161	49.369	0	10.20	0	10.4900	0	32.0610	0	24.576	0	10.113	0	257.5	4	92.8	4	-1E+10	1	-1E+10	1	-1E+10	1	-1E+10	1	-1E+10	1	-1E+10	1
4902551	11	C	11/28/2020	09:03	-137.161	49.369	0	15.80	0	10.4910	0	32.0640	0	24.579	0	15.665	0	257.4	4	92.8	4	-1E+10	1	-1E+10	1	-1E+10	1	-1E+10	1	-1E+10	1	-1E+10	1
4902551	11	C	11/28/2020	09:03	-137.161	49.369	0	25.70	0	10.4920	0	32.0630	0	24.578	0	25.480	0	257.3	4	92.7	4	-1E+10	1	-1E+10	1	-1E+10	1	-1E+10	1	-1E+10	1	-1E+10	1
4902551	11	C	11/28/2020	09:03	-137.161	49.369	0	35.30	0	10.4940	0	32.0820	0	24.593	0	34.996	0	257.1	4	92.7	4	-1E+10	1	-1E+10	1	-1E+10	1	-1E+10	1	-1E+10	1	-1E+10	1
4902551	11	C	11/28/2020	09:03	-137.161	49.369	0	45.70	0	10.4950	0	32.0880	0	24.597	0	45.306	0	256.7	4	92.5	4	-1E+10	1	-1E+10	1	-1E+10	1	-1E+10	1	-1E+10	1	-1E+10	1
4902551	11	C	11/28/2020	09:03	-137.161	49.369	0	55.40	0	10.4960	0	32.1040	0	24.610	0	54.921	0	256.3	4	92.4	4	-1E+10	1	-1E+10	1	-1E+10	1	-1E+10	1	-1E+10	1	-1E+10	1
4902551	11	C	11/28/2020	09:03	-137.161	49.369	0	65.60	0	10.4170	0	32.1010	0	24.621	0	65.031	0	254.0	4	91.4	4	-1E+10	1	-1E+10	1	-1E+10	1	-1E+10	1	-1E+10	1	-1E+10	1
4902551	11	C	11/28/2020	09:03	-137.161	49.369	0	75.80	0	7.6280	0	33.1500	0	25.876	0	75.141	0	255.3	4	87.1	4	-1E+10	1	-1E+10	1	-1E+10	1	-1E+10	1	-1E+10	1	-1E+10	1
4902551	11	C	11/28/2020	09:03	-137.161	49.369	0	85.30	0	6.5270	0	33.6070	0	26.386	0	84.556	0	256.1	4	85.4	4	-1E+10	1	-1E+10	1	-1E+10	1	-1E+10	1	-1E+10	1	-1E+10	1
4902551	11	C	11/28/2020	09:03	-137.161	49.369	0	95.10	0	6.2870	0	33.6480	0	26.449	0	94.268	0	246.7	4	81.9	4	-1E+10	1	-1E+10	1	-1E+10	1	-1E+10	1	-1E+10	1	-1E+10	1
4902551	11	C	11/28/2020	09:03	-137.161	49.369	0	105.50	0	6.1230	0	33.7650	0	26.563	0	104.575	0	226.9	4	75.1	4	-1E+10	1	-1E+10	1	-1E+10	1	-1E+10	1	-1E+10	1	-1E+10	1
4902551	11	C	11/28/2020	09:03	-137.161	49.369	0	115.30	0	6.2130	8	33.7820	8	26.565	0	114.286	0	198.0	4	65.7	4	-1E+10	1	-1E+10	1	-1E+10	1	-1E+10	1	-1E+10	1	-1E+10	1
4902551	11	C	11/28/2020	09:03	-137.161	49.369	0	125.60	0	6.3550	8	33.6980	8	26.480	0	124.493	0	167.5	4	55.7	4	-1E+10	1	-1E+10	1	-1E+10	1	-1E+10	1	-1E+10	1	-1E+10	1
4902551	11	C	11/28/2020	09:03	-137.161	49.369	0	135.50	0	6.3350	8	33.6310	8	26.430	0	134.302	0	152.0	4	50.5	4	-1E+10	1	-1E+10	1	-1E+10	1	-1E+10	1	-1E+10	1	-1E+10	1
4902551	11	C	11/28/2020	09:03	-137.161	49.369	0	145.60	0	6.2380	0	33.6230	0	26.436	0	144.309	0	144.4	4	47.9	4	-1E+10	1	-1E+10	1	-1E+10	1	-1E+10	1	-1E+10	1	-1E+10	1
4902551	11	C	11/28/2020	09:03	-137.161	49.369	0	155.70	0	6.1420	0	33.6140	0	26.441	0	154.316	0	141.1	4	46.7	4	-1E+10	1	-1E+10	1	-1E+10	1	-1E+10	1	-1E+10	1	-1E+10	1
4902551	11	C	11/28/2020	09:03	-137.161	49.369	0	165.40	0	6.0160	0	33.6500	0	26.486	0	163.926	0	137.4	4	45.3	4	-1E+10	1	-1E+10	1	-1E+10	1	-1E+10	1	-1E+10	1	-1E+10	1
4902551	11	C	11/28/2020	09:03	-137.161	49.369	0	175.20	0	5.9240	0	33.7160	0	26.550	0	173.634	0	131.5	4	43.3	4	-1E+10	1	-1E+10	1	-1E+10	1	-1E+10	1	-1E+10	1	-1E+10	1
4902551	11	C	11/28/2020	09:03	-137.161	49.369	0	185.30	0	5.8340	0	33.7590	0	26.595	0	183.640	0	126.1	4	41.5	4	-1E+10	1	-1E+10	1	-1E+10	1	-1E+10	1	-1E+10	1	-1E+10	1
4902551	11	C	11/28/2020	09:03	-137.161	49.369	0	195.30	0	5.7690	0	33.7750	0	26.615	0	193.545	0	122.4	4	40.2	4	-1E+10	1	-1E+10	1	-1E+10	1	-1E+10	1	-1E+10	1	-1E+10	1
4902551	11	C	11/28/2020	09:03	-137.161	49.369	0	212.70	0	5.6010	0	33.7930	0	26.650	0	210.780	0	116.6	4	38.1	4	-1E+10	1	-1E+10	1	-1E+10	1	-1E+10	1	-1E+10	1	-1E+10	1
4902551	11	C	11/28/2020	09:03	-137.161	49.369	0	237.60	0	5.2350	0	33.8080	0	26.706	0	235.441	0	109.7	4	35.6	4	-1E+10	1	-1E+10	1	-1E+10	1	-1E+10	1	-1E+10	1	-1E+10	1
4902551	11	C	11/28/2020	09:03	-137.161	49.369	0	263.50	0	4.9930	0	33.8260	0	26.748	0	261.090	0	98.5	4	31.8	4	-1E+10	1	-1E+10	1	-1E+10	1	-1E+10	1	-1E+10	1	-1E+10	1
4902551	11	C	11/28/2020	09:03	-137.161	49.369	0	287.70	0	4.8090	0	33.8510	0	26.788	0	285.052	0	86.5	4	27.8	4	-1E+10	1	-1E+10	1	-1E+10	1	-1E+10	1	-1E+10	1	-1E+10	1
4902551	11	C	11/28/2020	09:03	-137.161	49.369	0	312.80	0	4.6760	0	33.8800	0	26.826	0	309.902	0	73.5	4	23.5	4	-1E+10	1	-1E+10	1	-1E+10	1	-1E+10	1	-1E+10	1	-1E+10	1
4902551	11	C	11/28/2020	09:03	-137.161	49.369	0	338.10	0	4.5780	0	33.9120	0	26.863	0	334.947	0	61.4	4	19.6	4	-1E+10	1	-1E+10	1	-1E+10	1	-1E+10	1	-1E+10	1	-1E+10	1
4902551	11	C	11/28/2020	09:03	-137.161	49.369	0	363.10	0	4.4980	0	33.9340	0	26.889	0	359.692	0	55.6	4	17.7	4	-1E+10	1	-1E+10	1	-1E+10	1	-1E+10	1	-1E+10	1	-1E+10	1
4902551	11	C	11/28/2020	09:03	-137.161	49.369	0	387.90	0	4.4260	0	33.9590	0	26.917	0	384.236	0	50.6	4	16.1	4	-1E+10	1	-1E+10	1	-1E+10	1	-1E+10	1	-1E+10	1	-1E+10	1
4902551	11	C	11/28/2020	09:03	-137.161	49.369	0	412.90	0	4.3680	0	33.9830	0	26.942	0	408.975	0	46.1	4	14.7	4	-1E+10	1	-1E+10	1	-1E+10	1	-1E+10	1	-1E+10	1	-1E+10	1
4902551	11	C	11/28/2020	09:03	-137.161	49.369	0	438.00	0	4.3210	0	34.0090	0	26.968	0	433.811	0	40.7	4	12.9	4	-1E+10	1	-1E+10	1	-1E+10	1	-1E+10	1	-1E+10	1	-1E+10	1
4902551	11	C	11/28/2020	09:03	-137.161	49.369	0	463.80	0	4.2520	0	34.0390	0	26.999	0	459.335	0	35.0	4	11.1	4	-1E+10	1	-1E+10	1	-1E+10	1	-1E+10	1	-1E+10	1	-1E+10	1
4902551	11	C	11/28/2020	09:03	-137.161	49.369	0	487.60	0	4.1910	0	34.0600	0	27.022	0	482.879	0	31.6	4	10.0	4	-1E+10	1	-1E+10	1	-1E+10	1	-1E+10	1	-1E+10	1	-1E+10	1
4902551	11	C	11/28/2020	09:03	-137.161	49.369	0	512.70	0	4.1320	0	34.0820	0	27.046	0	507.705	0	27.9	4	8.8	4	-1E+10	1	-1E+10	1	-1E+10	1	-1E+10	1	-1E+10	1	-1E+10	1
4902551	11	C	11/28/2020	09:03	-137.161	49.369	0	537.90	0	4.0770	0	34.1020	0	27.068	0	532.627	0	25.4	4	8.0	4	-1E+10	1	-1E+10	1	-1E+10	1	-1E+10	1	-1E+10	1	-1E+10	1
4902551	11	C	11/28/2020	09:03	-137.161	49.369	0	562.80	0	4.0230	0	34.1210	0	27.089	0	557.250	0	23.4	4	7.4	4	-1E+10	1	-1E+10	1	-1E+10	1	-1E+10	1	-1E+10	1	-1E+10	1
4902551	11	C	11/28/2020	09:03	-137.161	49.369	0	587.80	0	3.9650	0	34.1390	0	27.109	0	581.968	0	21.5	4	6.8	4	-1E+10	1	-1E+10	1	-1E+10	1	-1E+10	1	-1E+10	1	-1E+10	1
4902551	11	C	11/28/2020	09:03	-137.161	49.369	0	612.90	0	3.9070	0	34.1590	0	27.131	0	606.783	0	19.7	4	6.2	4	-1E+10	1	-1E+10	1	-1E+10	1	-1E+10	1	-1E+10	1	-1E+10	1
4902551	11	C	11/28/2020	09:03	-137.161	49.369	0	637.50	0	3.8550	0	34.1740	0	27.149	0	631.100	0	18.6	4	5.8	4	-1E+10	1	-1E+10	1	-1E+10	1	-1E+10	1	-1E+10	1	-1E+10	1
4902551	11	C	11/28/2020	09:03	-137.161	49.369	0	663.00	0	3.7830	0	34.1930	0	27.171	0	656.304	0	17.5	4	5.5	4	-1E+10	1	-1E+10	1	-1E+10	1	-1E+10	1	-1E+10	1	-1E+10	1
4902551	11	C	11/28/2020	09:03	-137.161	49.369	0	687.70	0	3.7080	0	34.2120	0	27.194	0	680.714	0	16.4	4	5.2	4	-1E+10	1	-1E+10	1	-1E+10	1	-1E+10	1	-1E+10	1	-1E+10	1
4902551	11	C	11/28/2020	09:03	-137.161	49.369	0	712.80	0	3.6530	0	34.2280	0	27.212	0	705.516	0	15.2	4	4.8	4	-1E+10	1	-1E+10	1	-1E+10	1	-1E+10	1	-1E+10	1	-1E+10	1
4902551	11	C	11/28/2020	09:03	-137.161	49.369	0	737.70	0	3.5850	0	34.2450	0	27.232	0	730.118	0	14.4	4	4.5	4	-1E+10	1	-1E+10	1	-1E+10	1	-1E+10	1	-1E+10	1	-1E+10	1
4902551	11	C	11/28/2020	09:03	-137.161	49.369	0	762.50	0	3.5260	0	34.2580	0	27.249	0	754.619	0	13.9	4	4.3	4	-1E+10	1	-1E+10	1	-1E+10	1	-1E+10	1	-1E+10	1	-1E+10	1
4902551	11	C	11/28/2020	09:03	-137.161	49.369	0	788.60	0	3.4680	0	34.2720	0	27.265	0	780.400	0	13.2	4	4.1	4	-1E+10	1	-1E+10	1	-1E+10	1	-1E+10	1	-1E+10	1	-1E+10	1
4902551	11	C	11/28/2020	09:03	-137.161	49.369	0	812.80	0	3.4170	0	34.2820	0	27.278	0	804.302	0	12.9	4	4.0	4	-1E+10	1	-1E+10	1	-1E+10	1	-1E+10	1	-1E+10	1	-1E+10	1
4902551	11	C	11/28/2020	09:03	-137.161	49.369	0	837.70	0	3.3560	0	34.2930	0	27.293	0	828.892	0	12.8	4	4.0	4	-1E+10	1	-1E+10	1	-1E+10	1	-1E+10	1	-1E+10	1	-1E+10	1
4902551	11	C	11/28/2020	09:03	-137.161	49.369	0	862.50	0	3.3060	0	34.3030	0	27.306	0	853.381	0	12.5	4	3.9	4	-1E+10	1	-1E+10	1	-1E+10	1	-1E+10	1	-1E+10	1	-1E+10	1
4902551	11	C	11/28/2020	09:03	-137.161	49.369	0	887.70	0	3.2630	0	34.3110	0	27.317	0	878.262	0	12.2	4	3.8	4	-1E+10	1	-1E+10	1	-1E+10	1	-1E+10	1	-1E+10	1	-1E+10	1
4902551	11	C	11/28/2020	09:03	-137.161	49.369	0	913.00	0	3.2230	0	34.3200	0	27.328	0	903.238	0	11.9	4	3.7	4	-1E+10	1	-1E+10	1	-1E+10	1	-1E+10	1	-1E+10	1	-1E+10	1
4902551	11	C	11/28/2020	09:03	-137.161	49.369	0	937.90	0	3.1800	0	34.3300	0	27.340	0	927.817	0	11.7	4	3.6	4	-1E+10	1	-1E+10	1	-1E+10	1	-1E+10	1	-1E+10	1	-1E+10	1
4902551	11	C	11/28/2020	09:03	-137.161	49.369	0	962.80	0	3.1440	0	34.3380	0	27.350	0	952.392	0	11.5	4	3.6	4	-1E+10	1	-1E+10	1	-1E+10	1	-1E+10	1	-1E+10	1	-1E+10	1
4902551	11	C	11/28/2020	09:03	-137.161	49.369	0	988.00	0	3.0990	0	34.3490	0	27.363	0	977.261	0	11.5	4	3.5	4	-1E+10	1	-1E+10	1	-1E+10	1	-1E+10	1	-1E+10	1	-1E+10	1
4902551	11	C	11/28/2020	09:03	-137.161	49.369	0	1012.80	0	3.0560	0	34.3580	0	27.374	0	1001.732	0	11.4	4	3.5	4	-1E+10	1	-1E+10	1	-1E+10	1	-1E+10	1	-1E+10	1	-1E+10	1
4902551	11	C	11/28/2020	09:03	-137.161	49.369	0	1037.80	0	3.0020	0	34.3680	0	27.387	0	1026.398	0	11.2	4	3.5	4	-1E+10	1	-1E+10	1	-1E+10	1	-1E+10	1	-1E+10	1	-1E+10	1
4902551	11	C	11/28/2020	09:03	-137.161	49.369	0	1062.80	0	2.9590	0	34.3790	0	27.400	0	1051.061	0	10.9	4	3.4	4	-1E+10	1	-1E+10	1	-1E+10	1	-1E+10	1	-1E+10	1	-1E+10	1
4902551	11	C	11/28/2020	09:03	-137.161	49.369	0	1088.00	0	2.9140	0	34.3880	0	27.411	0	1075.918	0	10.8	4	3.3	4	-1E+10	1	-1E+10	1	-1E+10	1	-1E+10	1	-1E+10	1	-1E+10	1
4902551	11	C	11/28/2020	09:03	-137.161	49.369	0	1113.00	0	2.8730	0	34.3970	0	27.422	0	1100.575	0	11.2	4	3.4	4	-1E+10	1	-1E+10	1	-1E+10	1	-1E+10	1	-1E+10	1	-1E+10	1
4902551	11	C	11/28/2020	09:03	-137.161	49.369	0	1137.80	0	2.8310	0	34.4030	0	27.431	0	1125.032	0	11.6	4	3.6	4	-1E+10	1	-1E+10	1	-1E+10	1	-1E+10	1	-1E+10	1	-1E+10	1
4902551	11	C	11/28/2020	09:03	-137.161	49.369	0	1162.60	0	2.7960	0	34.4100	0	27.439	0	1149.485	0	11.7	4	3.6	4	-1E+10	1	-1E+10	1	-1E+10	1	-1E+10	1	-1E+10	1	-1E+10	1
4902551	11	C	11/28/2020	09:03	-137.161	49.369	0	1188.50	0	2.7690	0	34.4160	0	27.447	0	1175.021	0	11.7	4	3.6	4	-1E+10	1	-1E+10	1	-1E+10	1	-1E+10	1	-1E+10	1	-1E+10	1
4902551	11	C	11/28/2020	09:03	-137.161	49.369	0	1212.70	0	2.7490	0	34.4210	0	27.453	0	1198.877	0	11.8	4	3.6	4	-1E+10	1	-1E+10	1	-1E+10	1	-1E+10	1	-1E+10	1	-1E+10	1
4902551	11	C	11/28/2020	09:03	-137.161	49.369	0	1237.80	0	2.7210	0	34.4260	0	27.459	0	1223.618	0	12.2	4	3.7	4	-1E+10	1	-1E+10	1	-1E+10	1	-1E+10	1	-1E+10	1	-1E+10	1
4902551	11	C	11/28/2020	09:03	-137.161	49.369	0	1262.80	0	2.6910	0	34.4310	0	27.466	0	1248.258	0	12.4	4	3.8	4	-1E+10	1	-1E+10	1	-1E+10	1	-1E+10	1	-1E+10	1	-1E+10	1
4902551	11	C	11/28/2020	09:03	-137.161	49.369	0	1288.00	0	2.6580	0	34.4380	0	27.474	0	1273.091	0	12.7	4	3.9	4	-1E+10	1	-1E+10	1	-1E+10	1	-1E+10	1	-1E+10	1	-1E+10	1
4902551	11	C	11/28/2020	09:03	-137.161	49.369	0	1313.10	0	2.6270	0	34.4440	0	27.482	0	1297.824	0	13.0	4	4.0	4	-1E+10	1	-1E+10	1	-1E+10	1	-1E+10	1	-1E+10	1	-1E+10	1
4902551	11	C	11/28/2020	09:03	-137.161	49.369	0	1337.70	0	2.6020	0	34.4490	0	27.488	0	1322.060	0	13.3	4	4.1	4	-1E+10	1	-1E+10	1	-1E+10	1	-1E+10	1	-1E+10	1	-1E+10	1
4902551	11	C	11/28/2020	09:03	-137.161	49.369	0	1362.80	0	2.5750	0	34.4540	0	27.495	0	1346.787	0	13.8	4	4.2	4	-1E+10	1	-1E+10	1	-1E+10	1	-1E+10	1	-1E+10	1	-1E+10	1
4902551	11	C	11/28/2020	09:03	-137.161	49.369	0	1388.10	0	2.5380	0	34.4620	0	27.504	0	1371.707	0	14.3	4	4.4	4	-1E+10	1	-1E+10	1	-1E+10	1	-1E+10	1	-1E+10	1	-1E+10	1
4902551	11	C	11/28/2020	09:03	-137.161	49.369	0	1413.10	0	2.5100	0	34.4670	0	27.511	0	1396.329	0	14.9	4	4.6	4	-1E+10	1	-1E+10	1	-1E+10	1	-1E+10	1	-1E+10	1	-1E+10	1
4902551	11	C	11/28/2020	09:03	-137.161	49.369	0	1437.80	0	2.4830	0	34.4720	0	27.517	0	1420.653	0	15.5	4	4.7	4	-1E+10	1	-1E+10	1	-1E+10	1	-1E+10	1	-1E+10	1	-1E+10	1
4902551	11	C	11/28/2020	09:03	-137.161	49.369	0	1463.60	0	2.4470	0	34.4800	0	27.527	0	1446.057	0	16.4	4	5.0	4	-1E+10	1	-1E+10	1	-1E+10	1	-1E+10	1	-1E+10	1	-1E+10	1
4902551	11	C	11/28/2020	09:03	-137.161	49.369	0	1487.80	0	2.4190	0	34.4850	0	27.533	0	1469.883	0	17.2	4	5.2	4	-1E+10	1	-1E+10	1	-1E+10	1	-1E+10	1	-1E+10	1	-1E+10	1
4902551	11	C	11/28/2020	09:03	-137.161	49.369	0	1512.60	0	2.3890	0	34.4910	0	27.541	0	1494.297	0	18.2	4	5.5	4	-1E+10	1	-1E+10	1	-1E+10	1	-1E+10	1	-1E+10	1	-1E+10	1
4902551	11	C	11/28/2020	09:03	-137.161	49.369	0	1537.70	0	2.3620	0	34.4960	0	27.547	0	1519.003	0	19.3	4	5.9	4	-1E+10	1	-1E+10	1	-1E+10	1	-1E+10	1	-1E+10	1	-1E+10	1
4902551	11	C	11/28/2020	09:03	-137.161	49.369	0	1562.90	0	2.3340	0	34.5020	0	27.554	0	1543.805	0	20.6	4	6.3	4	-1E+10	1	-1E+10	1	-1E+10	1	-1E+10	1	-1E+10	1	-1E+10	1
4902551	11	C	11/28/2020	09:03	-137.161	49.369	0	1588.00	0	2.3050	0	34.5070	0	27.561	0	1568.505	0	21.9	4	6.7	4	-1E+10	1	-1E+10	1	-1E+10	1	-1E+10	1	-1E+10	1	-1E+10	1
4902551	11	C	11/28/2020	09:03	-137.161	49.369	0	1612.80	0	2.2750	0	34.5130	0	27.568	0	1592.907	0	23.4	4	7.1	4	-1E+10	1	-1E+10	1	-1E+10	1	-1E+10	1	-1E+10	1	-1E+10	1
4902551	11	C	11/28/2020	09:03	-137.161	49.369	0	1637.90	0	2.2520	0	34.5180	0	27.574	0	1617.602	0	24.6	4	7.5	4	-1E+10	1	-1E+10	1	-1E+10	1	-1E+10	1	-1E+10	1	-1E+10	1
4902551	11	C	11/28/2020	09:03	-137.161	49.369	0	1663.80	0	2.2280	0	34.5230	0	27.580	0	1643.080	0	26.2	4	7.9	4	-1E+10	1	-1E+10	1	-1E+10	1	-1E+10	1	-1E+10	1	-1E+10	1
4902551	11	C	11/28/2020	09:03	-137.161	49.369	0	1687.70	0	2.2020	0	34.5280	0	27.587	0	1666.589	0	27.8	4	8.4	4	-1E+10	1	-1E+10	1	-1E+10	1	-1E+10	1	-1E+10	1	-1E+10	1
4902551	11	C	11/28/2020	09:03	-137.161	49.369	0	1712.40	0	2.1780	0	34.5330	0	27.593	0	1690.882	0	29.3	4	8.9	4	-1E+10	1	-1E+10	1	-1E+10	1	-1E+10	1	-1E+10	1	-1E+10	1
4902551	11	C	11/28/2020	09:03	-137.161	49.369	0	1737.60	0	2.1560	0	34.5370	0	27.598	0	1715.663	0	30.7	4	9.3	4	-1E+10	1	-1E+10	1	-1E+10	1	-1E+10	1	-1E+10	1	-1E+10	1
4902551	11	C	11/28/2020	09:03	-137.161	49.369	0	1762.70	0	2.1370	0	34.5410	0	27.603	0	1740.343	0	32.1	4	9.7	4	-1E+10	1	-1E+10	1	-1E+10	1	-1E+10	1	-1E+10	1	-1E+10	1
4902551	11	C	11/28/2020	09:03	-137.161	49.369	0	1787.80	0	2.1180	0	34.5450	0	27.607	0	1765.021	0	33.5	4	10.1	4	-1E+10	1	-1E+10	1	-1E+10	1	-1E+10	1	-1E+10	1	-1E+10	1
4902551	11	C	11/28/2020	09:03	-137.161	49.369	0	1812.90	0	2.1020	0	34.5490	0	27.612	0	1789.695	0	34.9	4	10.5	4	-1E+10	1	-1E+10	1	-1E+10	1	-1E+10	1	-1E+10	1	-1E+10	1
4902551	11	C	11/28/2020	09:03	-137.161	49.369	0	1838.30	0	2.0810	0	34.5530	0	27.617	0	1814.662	0	36.6	4	11.0	4	-1E+10	1	-1E+10	1	-1E+10	1	-1E+10	1	-1E+10	1	-1E+10	1
4902551	11	C	11/28/2020	09:03	-137.161	49.369	0	1862.60	0	2.0600	0	34.5570	0	27.622	0	1838.544	0	38.2	4	11.5	4	-1E+10	1	-1E+10	1	-1E+10	1	-1E+10	1	-1E+10	1	-1E+10	1
4902551	11	C	11/28/2020	09:03	-137.161	49.369	0	1887.90	0	2.0380	0	34.5620	0	27.628	0	1863.407	0	40.0	4	12.1	4	-1E+10	1	-1E+10	1	-1E+10	1	-1E+10	1	-1E+10	1	-1E+10	1
4902551	11	C	11/28/2020	09:03	-137.161	49.369	0	1913.10	0	2.0180	0	34.5650	0	27.632	0	1888.168	0	41.6	4	12.5	4	-1E+10	1	-1E+10	1	-1E+10	1	-1E+10	1	-1E+10	1	-1E+10	1
4902551	11	C	11/28/2020	09:03	-137.161	49.369	0	1937.80	0	2.0020	0	34.5690	0	27.636	0	1912.435	0	42.9	4	12.9	4	-1E+10	1	-1E+10	1	-1E+10	1	-1E+10	1	-1E+10	1	-1E+10	1
4902551	11	C	11/28/2020	09:03	-137.161	49.369	0	1962.70	0	1.9900	0	34.5710	0	27.639	0	1936.896	0	44.0	4	13.3	4	-1E+10	1	-1E+10	1	-1E+10	1	-1E+10	1	-1E+10	1	-1E+10	1
4902551	11	C	11/28/2020	09:03	-137.161	49.369	0	1987.70	0	1.9760	0	34.5740	0	27.643	0	1961.452	0	45.2	4	13.6	4	-1E+10	1	-1E+10	1	-1E+10	1	-1E+10	1	-1E+10	1	-1E+10	1
4902551	11	C	11/28/2020	09:03	-137.161	49.369	0	2012.50	0	1.9610	0	34.5770	0	27.646	0	1985.809	0	45.9	4	13.8	4	-1E+10	1	-1E+10	1	-1E+10	1	-1E+10	1	-1E+10	1	-1E+10	1
4902551	11	C	11/28/2020	09:03	-137.161	49.369	0																										
4902551	12	C	12/08/2020	09:05	-136.970	49.468	0	0.20	0	9.7470	0	32.2270	0	24.829	0	0.198	0	261.5	4	92.8	4	-1E+10	1	-1E+10	1	-1E+10	1	-1E+10	1	-1E+10	1	-1E+10	1
4902551	12	C	12/08/2020	09:05	-136.970	49.468	0	0.80	0	9.7470	0	32.2280	0	24.830	0	0.793	0	261.5	4	92.8	4	-1E+10	1	-1E+10	1	-1E+10	1	-1E+10	1	-1E+10	1	-1E+10	1
4902551	12	C	12/08/2020	09:05	-136.970	49.468	0	1.80	0	9.7470	0	32.2280	0	24.830	0	1.785	0	261.5	4	92.8	4	-1E+10	1	-1E+10	1	-1E+10	1	-1E+10	1	-1E+10	1	-1E+10	1
4902551	12	C	12/08/2020	09:05	-136.970	49.468	0	3.00	0	9.7470	0	32.2280	0	24.830	0	2.974	0	261.5	4	92.8	4	-1E+10	1	-1E+10	1	-1E+10	1	-1E+10	1	-1E+10	1	-1E+10	1
4902551	12	C	12/08/2020	09:05	-136.970	49.468	0	4.10	0	9.7470	0	32.2290	0	24.831	0	4.065	0	261.4	4	92.8	4	-1E+10	1	-1E+10	1	-1E+10	1	-1E+10	1	-1E+10	1	-1E+10	1
4902551	12	C	12/08/2020	09:05	-136.970	49.468	0	4.90	0	9.7470	0	32.2290	0	24.831	0	4.858	0	261.4	4	92.8	4	-1E+10	1	-1E+10	1	-1E+10	1	-1E+10	1	-1E+10	1	-1E+10	1
4902551	12	C	12/08/2020	09:05	-136.970	49.468	0	5.90	0	9.7470	0	32.2290	0	24.831	0	5.850	0	261.5	4	92.8	4	-1E+10	1	-1E+10	1	-1E+10	1	-1E+10	1	-1E+10	1	-1E+10	1
4902551	12	C	12/08/2020	09:05	-136.970	49.468	0	7.00	0	9.7470	0	32.2290	0	24.831	0	6.940	0	261.4	4	92.8	4	-1E+10	1	-1E+10	1	-1E+10	1	-1E+10	1	-1E+10	1	-1E+10	1
4902551	12	C	12/08/2020	09:05	-136.970	49.468	0	8.10	0	9.7520	0	32.2280	0	24.829	0	8.031	0	261.3	4	92.8	4	-1E+10	1	-1E+10	1	-1E+10	1	-1E+10	1	-1E+10	1	-1E+10	1
4902551	12	C	12/08/2020	09:05	-136.970	49.468	0	9.20	0	9.7520	0	32.2310	0	24.832	0	9.121	0	261.2	4	92.8	4	-1E+10	1	-1E+10	1	-1E+10	1	-1E+10	1	-1E+10	1	-1E+10	1
4902551	12	C	12/08/2020	09:05	-136.970	49.468	0	10.00	0	9.7530	0	32.2280	0	24.829	0	9.915	0	261.4	4	92.8	4	-1E+10	1	-1E+10	1	-1E+10	1	-1E+10	1	-1E+10	1	-1E+10	1
4902551	12	C	12/08/2020	09:05	-136.970	49.468	0	15.30	0	9.7510	0	32.2290	0	24.830	0	15.169	0	261.2	4	92.8	4	-1E+10	1	-1E+10	1	-1E+10	1	-1E+10	1	-1E+10	1	-1E+10	1
4902551	12	C	12/08/2020	09:05	-136.970	49.468	0	25.70	0	9.7530	0	32.2290	0	24.830	0	25.479	0	261.0	4	92.7	4	-1E+10	1	-1E+10	1	-1E+10	1	-1E+10	1	-1E+10	1	-1E+10	1
4902551	12	C	12/08/2020	09:05	-136.970	49.468	0	35.40	0	9.7560	0	32.2290	0	24.830	0	35.095	0	260.7	4	92.6	4	-1E+10	1	-1E+10	1	-1E+10	1	-1E+10	1	-1E+10	1	-1E+10	1
4902551	12	C	12/08/2020	09:05	-136.970	49.468	0	45.40	0	9.7580	0	32.2300	0	24.831	0	45.008	0	260.3	4	92.4	4	-1E+10	1	-1E+10	1	-1E+10	1	-1E+10	1	-1E+10	1	-1E+10	1
4902551	12	C	12/08/2020	09:05	-136.970	49.468	0	55.20	0	9.7590	0	32.2290	0	24.830	0	54.722	0	259.4	4	92.1	4	-1E+10	1	-1E+10	1	-1E+10	1	-1E+10	1	-1E+10	1	-1E+10	1
4902551	12	C	12/08/2020	09:05	-136.970	49.468	0	65.20	0	9.7100	0	32.2470	0	24.852	0	64.634	0	256.7	4	91.1	4	-1E+10	1	-1E+10	1	-1E+10	1	-1E+10	1	-1E+10	1	-1E+10	1
4902551	12	C	12/08/2020	09:05	-136.970	49.468	0	75.80	0	9.1690	0	32.3260	0	25.000	0	75.140	0	251.7	4	88.3	4	-1E+10	1	-1E+10	1	-1E+10	1	-1E+10	1	-1E+10	1	-1E+10	1
4902551	12	C	12/08/2020	09:05	-136.970	49.468	0	85.90	0	7.3730	0	32.5220	0	25.418	0	85.150	0	247.1	4	83.4	4	-1E+10	1	-1E+10	1	-1E+10	1	-1E+10	1	-1E+10	1	-1E+10	1
4902551	12	C	12/08/2020	09:05	-136.970	49.468	0	95.50	0	6.9590	0	32.6680	0	25.589	0	94.664	0	234.6	4	78.5	4	-1E+10	1	-1E+10	1	-1E+10	1	-1E+10	1	-1E+10	1	-1E+10	1
4902551	12	C	12/08/2020	09:05	-136.970	49.468	0	105.80	0	6.7480	0	32.8410	0	25.753	0	104.871	0	214.2	4	71.4	4	-1E+10	1	-1E+10	1	-1E+10	1	-1E+10	1	-1E+10	1	-1E+10	1
4902551	12	C	12/08/2020	09:05	-136.970	49.468	0	115.50	0	6.4770	0	33.1640	0	26.043	0	114.483	0	170.6	4	56.7	4	-1E+10	1	-1E+10	1	-1E+10	1	-1E+10	1	-1E+10	1	-1E+10	1
4902551	12	C	12/08/2020	09:05	-136.970	49.468	0	125.50	0	6.5350	0	33.4440	0	26.257	0	124.392	0	146.0	4	48.7	4	-1E+10	1	-1E+10	1	-1E+10	1	-1E+10	1	-1E+10	1	-1E+10	1
4902551	12	C	12/08/2020	09:05	-136.970	49.468	0	135.60	0	6.3600	0	33.5870	0	26.392	0	134.400	0	141.8	4	47.1	4	-1E+10	1	-1E+10	1	-1E+10	1	-1E+10	1	-1E+10	1	-1E+10	1
4902551	12	C	12/08/2020	09:05	-136.970	49.468	0	145.40	0	6.1570	0	33.6280	0	26.451	0	144.110	0	137.2	4	45.4	4	-1E+10	1	-1E+10	1	-1E+10	1	-1E+10	1	-1E+10	1	-1E+10	1
4902551	12	C	12/08/2020	09:05	-136.970	49.468	0	155.30	0	6.0920	0	33.7070	0	26.521	0	153.918	0	131.8	4	43.6	4	-1E+10	1	-1E+10	1	-1E+10	1	-1E+10	1	-1E+10	1	-1E+10	1
4902551	12	C	12/08/2020	09:05	-136.970	49.468	0	165.30	0	6.0230	0	33.7360	0	26.553	0	163.825	0	128.3	4	42.4	4	-1E+10	1	-1E+10	1	-1E+10	1	-1E+10	1	-1E+10	1	-1E+10	1
4902551	12	C	12/08/2020	09:05	-136.970	49.468	0	175.30	0	5.9170	0	33.7610	0	26.586	0	173.732	0	125.3	4	41.3	4	-1E+10	1	-1E+10	1	-1E+10	1	-1E+10	1	-1E+10	1	-1E+10	1
4902551	12	C	12/08/2020	09:05	-136.970	49.468	0	185.10	0	5.7480	0	33.7750	0	26.618	0	183.440	0	121.6	4	39.9	4	-1E+10	1	-1E+10	1	-1E+10	1	-1E+10	1	-1E+10	1	-1E+10	1
4902551	12	C	12/08/2020	09:05	-136.970	49.468	0	195.00	0	5.6180	0	33.7900	0	26.646	0	193.246	0	117.8	4	38.6	4	-1E+10	1	-1E+10	1	-1E+10	1	-1E+10	1	-1E+10	1	-1E+10	1
4902551	12	C	12/08/2020	09:05	-136.970	49.468	0	212.90	0	5.4480	0	33.8030	0	26.676	0	210.976	0	112.3	4	36.6	4	-1E+10	1	-1E+10	1	-1E+10	1	-1E+10	1	-1E+10	1	-1E+10	1
4902551	12	C	12/08/2020	09:05	-136.970	49.468	0	237.90	0	5.1860	0	33.8180	0	26.719	0	235.736	0	103.9	4	33.6	4	-1E+10	1	-1E+10	1	-1E+10	1	-1E+10	1	-1E+10	1	-1E+10	1
4902551	12	C	12/08/2020	09:05	-136.970	49.468	0	263.10	0	4.9510	0	33.8370	0	26.761	0	260.691	0	91.9	4	29.6	4	-1E+10	1	-1E+10	1	-1E+10	1	-1E+10	1	-1E+10	1	-1E+10	1
4902551	12	C	12/08/2020	09:05	-136.970	49.468	0	287.90	0	4.7910	0	33.8620	0	26.799	0	285.247	0	80.7	4	25.9	4	-1E+10	1	-1E+10	1	-1E+10	1	-1E+10	1	-1E+10	1	-1E+10	1
4902551	12	C	12/08/2020	09:05	-136.970	49.468	0	312.80	0	4.7020	0	33.8870	0	26.829	0	309.899	0	70.2	4	22.5	4	-1E+10	1	-1E+10	1	-1E+10	1	-1E+10	1	-1E+10	1	-1E+10	1
4902551	12	C	12/08/2020	09:05	-136.970	49.468	0	337.60	0	4.5960	0	33.9120	0	26.861	0	334.449	0	61.1	4	19.5	4	-1E+10	1	-1E+10	1	-1E+10	1	-1E+10	1	-1E+10	1	-1E+10	1
4902551	12	C	12/08/2020	09:05	-136.970	49.468	0	362.80	0	4.5060	0	33.9410	0	26.894	0	359.392	0	53.7	4	17.1	4	-1E+10	1	-1E+10	1	-1E+10	1	-1E+10	1	-1E+10	1	-1E+10	1
4902551	12	C	12/08/2020	09:05	-136.970	49.468	0	388.90	0	4.4220	0	33.9660	0	26.923	0	385.222	0	48.9	4	15.6	4	-1E+10	1	-1E+10	1	-1E+10	1	-1E+10	1	-1E+10	1	-1E+10	1
4902551	12	C	12/08/2020	09:05	-136.970	49.468	0	412.90	0	4.3470	0	33.9920	0	26.951	0	408.972	0	44.1	4	14.0	4	-1E+10	1	-1E+10	1	-1E+10	1	-1E+10	1	-1E+10	1	-1E+10	1
4902551	12	C	12/08/2020	09:05	-136.970	49.468	0	438.10	0	4.2920	0	34.0190	0	26.979	0	433.906	0	39.1	4	12.4	4	-1E+10	1	-1E+10	1	-1E+10	1	-1E+10	1	-1E+10	1	-1E+10	1
4902551	12	C	12/08/2020	09:05	-136.970	49.468	0	462.70	0	4.2370	0	34.0440	0	27.005	0	458.243	0	33.8	4	10.7	4	-1E+10	1	-1E+10	1	-1E+10	1	-1E+10	1	-1E+10	1	-1E+10	1
4902551	12	C	12/08/2020	09:05	-136.970	49.468	0	487.80	0	4.1670	0	34.0690	0	27.032	0	483.072	0	29.8	4	9.4	4	-1E+10	1	-1E+10	1	-1E+10	1	-1E+10	1	-1E+10	1	-1E+10	1
4902551	12	C	12/08/2020	09:05	-136.970	49.468	0	512.70	0	4.1070	0	34.0900	0	27.055	0	507.700	0	26.4	4	8.4	4	-1E+10	1	-1E+10	1	-1E+10	1	-1E+10	1	-1E+10	1	-1E+10	1
4902551	12	C	12/08/2020	09:05	-136.970	49.468	0	537.60	0	4.0420	0	34.1160	0	27.083	0	532.326	0	23.3	4	7.4	4	-1E+10	1	-1E+10	1	-1E+10	1	-1E+10	1	-1E+10	1	-1E+10	1
4902551	12	C	12/08/2020	09:05	-136.970	49.468	0	562.80	0	3.9910	0	34.1330	0	27.102	0	557.245	0	21.6	4	6.8	4	-1E+10	1	-1E+10	1	-1E+10	1	-1E+10	1	-1E+10	1	-1E+10	1
4902551	12	C	12/08/2020	09:05	-136.970	49.468	0	587.70	0	3.9330	0	34.1500	0	27.121	0	581.864	0	20.3	4	6.4	4	-1E+10	1	-1E+10	1	-1E+10	1	-1E+10	1	-1E+10	1	-1E+10	1
4902551	12	C	12/08/2020	09:05	-136.970	49.468	0	613.00	0	3.8840	0	34.1660	0	27.139	0	606.876	0	18.7	4	5.9	4	-1E+10	1	-1E+10	1	-1E+10	1	-1E+10	1	-1E+10	1	-1E+10	1
4902551	12	C	12/08/2020	09:05	-136.970	49.468	0	637.90	0	3.8440	0	34.1800	0	27.154	0	631.490	0	17.6	4	5.5	4	-1E+10	1	-1E+10	1	-1E+10	1	-1E+10	1	-1E+10	1	-1E+10	1
4902551	12	C	12/08/2020	09:05	-136.970	49.468	0	662.50	0	3.7880	0	34.1950	0	27.172	0	655.804	0	16.7	4	5.3	4	-1E+10	1	-1E+10	1	-1E+10	1	-1E+10	1	-1E+10	1	-1E+10	1
4902551	12	C	12/08/2020	09:05	-136.970	49.468	0	687.50	0	3.7250	0	34.2100	0	27.190	0	680.510	0	16.0	4	5.0	4	-1E+10	1	-1E+10	1	-1E+10	1	-1E+10	1	-1E+10	1	-1E+10	1
4902551	12	C	12/08/2020	09:05	-136.970	49.468	0	712.70	0	3.6590	0	34.2260	0	27.210	0	705.411	0	15.3	4	4.8	4	-1E+10	1	-1E+10	1	-1E+10	1	-1E+10	1	-1E+10	1	-1E+10	1
4902551	12	C	12/08/2020	09:05	-136.970	49.468	0	738.10	0	3.5950	0	34.2410	0	27.228	0	730.507	0	14.5	4	4.5	4	-1E+10	1	-1E+10	1	-1E+10	1	-1E+10	1	-1E+10	1	-1E+10	1
4902551	12	C	12/08/2020	09:05	-136.970	49.468	0	762.70	0	3.5410	0	34.2540	0	27.244	0	754.810	0	13.8	4	4.3	4	-1E+10	1	-1E+10	1	-1E+10	1	-1E+10	1	-1E+10	1	-1E+10	1
4902551	12	C	12/08/2020	09:05	-136.970	49.468	0	787.70	0	3.4890	0	34.2670	0	27.259	0	779.504	0	13.3	4	4.1	4	-1E+10	1	-1E+10	1	-1E+10	1	-1E+10	1	-1E+10	1	-1E+10	1
4902551	12	C	12/08/2020	09:05	-136.970	49.468	0	813.50	0	3.4410	0	34.2780	0	27.273	0	804.986	0	12.9	4	4.0	4	-1E+10	1	-1E+10	1	-1E+10	1	-1E+10	1	-1E+10	1	-1E+10	1
4902551	12	C	12/08/2020	09:05	-136.970	49.468	0	837.60	0	3.3750	0	34.2920	0	27.291	0	828.786	0	12.6	4	3.9	4	-1E+10	1	-1E+10	1	-1E+10	1	-1E+10	1	-1E+10	1	-1E+10	1
4902551	12	C	12/08/2020	09:05	-136.970	49.468	0	862.80	0	3.3100	0	34.3030	0	27.306	0	853.669	0	12.3	4	3.8	4	-1E+10	1	-1E+10	1	-1E+10	1	-1E+10	1	-1E+10	1	-1E+10	1
4902551	12	C	12/08/2020	09:05	-136.970	49.468	0	887.70	0	3.2460	0	34.3160	0	27.322	0	878.254	0	12.0	4	3.7	4	-1E+10	1	-1E+10	1	-1E+10	1	-1E+10	1	-1E+10	1	-1E+10	1
4902551	12	C	12/08/2020	09:05	-136.970	49.468	0	912.80	0	3.1770	0	34.3310	0	27.341	0	903.032	0	11.7	4	3.6	4	-1E+10	1	-1E+10	1	-1E+10	1	-1E+10	1	-1E+10	1	-1E+10	1
4902551	12	C	12/08/2020	09:05	-136.970	49.468	0	937.80	0	3.1260	0	34.3430	0	27.355	0	927.710	0	11.6	4	3.6	4	-1E+10	1	-1E+10	1	-1E+10	1	-1E+10	1	-1E+10	1	-1E+10	1
4902551	12	C	12/08/2020	09:05	-136.970	49.468	0	962.80	0	3.0790	0	34.3520	0	27.367	0	952.384	0	11.6	4	3.6	4	-1E+10	1	-1E+10	1	-1E+10	1	-1E+10	1	-1E+10	1	-1E+10	1
4902551	12	C	12/08/2020	09:05	-136.970	49.468	0	988.80	0	3.0380	0	34.3600	0	27.377	0	978.042	0	11.5	4	3.5	4	-1E+10	1	-1E+10	1	-1E+10	1	-1E+10	1	-1E+10	1	-1E+10	1
4902551	12	C	12/08/2020	09:05	-136.970	49.468	0	1012.70	0	2.9870	0	34.3700	0	27.390	0	1001.625	0	11.4	4	3.5	4	-1E+10	1	-1E+10	1	-1E+10	1	-1E+10	1	-1E+10	1	-1E+10	1
4902551	12	C	12/08/2020	09:05	-136.970	49.468	0	1037.50	0	2.9450	0	34.3790	0	27.401	0	1026.093	0	11.4	4	3.5	4	-1E+10	1	-1E+10	1	-1E+10	1	-1E+10	1	-1E+10	1	-1E+10	1
4902551	12	C	12/08/2020	09:05	-136.970	49.468	0	1062.80	0	2.9120	0	34.3860	0	27.409	0	1051.051	0	11.3	4	3.5	4	-1E+10	1	-1E+10	1	-1E+10	1	-1E+10	1	-1E+10	1	-1E+10	1
4902551	12	C	12/08/2020	09:05	-136.970	49.468	0	1087.70	0	2.8700	0	34.3950	0	27.420	0	1075.612	0	11.4	4	3.5	4	-1E+10	1	-1E+10	1	-1E+10	1	-1E+10	1	-1E+10	1	-1E+10	1
4902551	12	C	12/08/2020	09:05	-136.970	49.468	0	1112.90	0	2.8220	0	34.4050	0	27.433	0	1100.466	0	11.3	4	3.5	4	-1E+10	1	-1E+10	1	-1E+10	1	-1E+10	1	-1E+10	1	-1E+10	1
4902551	12	C	12/08/2020	09:05	-136.970	49.468	0	1138.10	0	2.7940	0	34.4110	0	27.440	0	1125.317	0	11.4	4	3.5	4	-1E+10	1	-1E+10	1	-1E+10	1	-1E+10	1	-1E+10	1	-1E+10	1
4902551	12	C	12/08/2020	09:05	-136.970	49.468	0	1162.90	0	2.7610	0	34.4180	0	27.449	0	1149.771	0	11.4	4	3.5	4	-1E+10	1	-1E+10	1	-1E+10	1	-1E+10	1	-1E+10	1	-1E+10	1
4902551	12	C	12/08/2020	09:05	-136.970	49.468	0	1188.60	0	2.7130	0	34.4270	0	27.460	0	1175.109	0	11.7	4	3.6	4	-1E+10	1	-1E+10	1	-1E+10	1	-1E+10	1	-1E+10	1	-1E+10	1
4902551	12	C	12/08/2020	09:05	-136.970	49.468	0	1212.60	0	2.6670	0	34.4350	0	27.471	0	1198.768	0	12.3	4	3.8	4	-1E+10	1	-1E+10	1	-1E+10	1	-1E+10	1	-1E+10	1	-1E+10	1
4902551	12	C	12/08/2020	09:05	-136.970	49.468	0	1237.60	0	2.6280	0	34.4430	0	27.481	0	1223.410	0	12.8	4	3.9	4	-1E+10	1	-1E+10	1	-1E+10	1	-1E+10	1	-1E+10	1	-1E+10	1
4902551	12	C	12/08/2020	09:05	-136.970	49.468	0	1263.10	0	2.6060	0	34.4470	0	27.486	0	1248.542	0	13.1	4	4.0	4	-1E+10	1	-1E+10	1	-1E+10	1	-1E+10	1	-1E+10	1	-1E+10	1
4902551	12	C	12/08/2020	09:05	-136.970	49.468	0	1288.00	0	2.5890	0	34.4500	0	27.490	0	1273.080	0	13.4	4	4.1	4	-1E+10	1	-1E+10	1	-1E+10	1	-1E+10	1	-1E+10	1	-1E+10	1
4902551	12	C	12/08/2020	09:05	-136.970	49.468	0	1313.00	0	2.5580	0	34.4560	0	27.497	0	1297.713	0	13.9	4	4.2	4	-1E+10	1	-1E+10	1	-1E+10	1	-1E+10	1	-1E+10	1	-1E+10	1
4902551	12	C	12/08/2020	09:05	-136.970	49.468	0	1338.20	0	2.5380	0	34.4600	0	27.503	0	1322.541	0	14.3	4	4.4	4	-1E+10	1	-1E+10	1	-1E+10	1	-1E+10	1	-1E+10	1	-1E+10	1
4902551	12	C	12/08/2020	09:05	-136.970	49.468	0	1362.90	0	2.5150	0	34.4650	0	27.509	0	1346.873	0	14.8	4	4.5	4	-1E+10	1	-1E+10	1	-1E+10	1	-1E+10	1	-1E+10	1	-1E+10	1
4902551	12	C	12/08/2020	09:05	-136.970	49.468	0	1388.10	0	2.4870	0	34.4700	0	27.515	0	1371.695	0	15.4	4	4.7	4	-1E+10	1	-1E+10	1	-1E+10	1	-1E+10	1	-1E+10	1	-1E+10	1
4902551	12	C	12/08/2020	09:05	-136.970	49.468	0	1413.30	0	2.4630	0	34.4750	0	27.521	0	1396.514	0	16.0	4	4.9	4	-1E+10	1	-1E+10	1	-1E+10	1	-1E+10	1	-1E+10	1	-1E+10	1
4902551	12	C	12/08/2020	09:05	-136.970	49.468	0	1438.20	0	2.4360	0	34.4800	0	27.528	0	1421.034	0	16.6	4	5.1	4	-1E+10	1	-1E+10	1	-1E+10	1	-1E+10	1	-1E+10	1	-1E+10	1
4902551	12	C	12/08/2020	09:05	-136.970	49.468	0	1463.10	0	2.4120	0	34.4850	0	27.534	0	1445.552	0	17.4	4	5.3	4	-1E+10	1	-1E+10	1	-1E+10	1	-1E+10	1	-1E+10	1	-1E+10	1
4902551	12	C	12/08/2020	09:05	-136.970	49.468	0	1488.90	0	2.3760	0	34.4920	0	27.542	0	1470.953	0	18.7	4	5.7	4	-1E+10	1	-1E+10	1	-1E+10	1	-1E+10	1	-1E+10	1	-1E+10	1
4902551	12	C	12/08/2020	09:05	-136.970	49.468	0	1512.90	0	2.3440	0	34.4990	0	27.551	0	1494.578	0	20.0	4	6.1	4	-1E+10	1	-1E+10	1	-1E+10	1	-1E+10	1	-1E+10	1	-1E+10	1
4902551	12	C	12/08/2020	09:05	-136.970	49.468	0	1537.90	0	2.3140	0	34.5050	0	27.558	0	1519.186	0	21.3	4	6.5	4	-1E+10	1	-1E+10	1	-1E+10	1	-1E+10	1	-1E+10	1	-1E+10	1
4902551	12	C	12/08/2020	09:05	-136.970	49.468	0	1563.10	0	2.2900	0	34.5100	0	27.564	0	1543.987	0	22.4	4	6.8	4	-1E+10	1	-1E+10	1	-1E+10	1	-1E+10	1	-1E+10	1	-1E+10	1
4902551	12	C	12/08/2020	09:05	-136.970	49.468	0	1588.70	0	2.2660	0	34.5140	0	27.570	0	1569.179	0	23.7	4	7.2	4	-1E+10	1	-1E+10	1	-1E+10	1	-1E+10	1	-1E+10	1	-1E+10	1
4902551	12	C	12/08/2020	09:05	-136.970	49.468	0	1612.60	0	2.2440	0	34.5190	0	27.575	0	1592.696	0	24.9	4	7.5	4	-1E+10	1	-1E+10	1	-1E+10	1	-1E+10	1	-1E+10	1	-1E+10	1
4902551	12	C	12/08/2020	09:05	-136.970	49.468	0	1637.80	0	2.2230	0	34.5230	0	27.581	0	1617.489	0	26.3	4	8.0	4	-1E+10	1	-1E+10	1	-1E+10	1	-1E+10	1	-1E+10	1	-1E+10	1
4902551	12	C	12/08/2020	09:05	-136.970	49.468	0	1662.80	0	2.1970	0	34.5280	0	27.587	0	1642.082	0	28.0	4	8.5	4	-1E+10	1	-1E+10	1	-1E+10	1	-1E+10	1	-1E+10	1	-1E+10	1
4902551	12	C	12/08/2020	09:05	-136.970	49.468	0	1687.70	0	2.1730	0	34.5330	0	27.593	0	1666.574	0	29.3	4	8.9	4	-1E+10	1	-1E+10	1	-1E+10	1	-1E+10	1	-1E+10	1	-1E+10	1
4902551	12	C	12/08/2020	09:05	-136.970	49.468	0	1712.90	0	2.1600	0	34.5360	0	27.596	0	1691.358	0	30.4	4	9.2	4	-1E+10	1	-1E+10	1	-1E+10	1	-1E+10	1	-1E+10	1	-1E+10	1
4902551	12	C	12/08/2020	09:05	-136.970	49.468	0	1737.90	0	2.1400	0	34.5400	0	27.601	0	1715.942	0	32.0	4	9.7	4	-1E+10	1	-1E+10	1	-1E+10	1	-1E+10	1	-1E+10	1	-1E+10	1
4902551	12	C	12/08/2020	09:05	-136.970	49.468	0	1763.80	0	2.1180	0	34.5450	0	27.607	0	1741.409	0	33.4	4	10.1	4	-1E+10	1	-1E+10	1	-1E+10	1	-1E+10	1	-1E+10	1	-1E+10	1
4902551	12	C	12/08/2020	09:05	-136.970	49.468	0	1787.70	0	2.1050	0	34.5470	0	27.610	0	1764.906	0	34.3	4	10.4	4	-1E+10	1	-1E+10	1	-1E+10	1	-1E+10	1	-1E+10	1	-1E+10	1
4902551	12	C	12/08/2020	09:05	-136.970	49.468	0	1812.80	0	2.0920	0	34.5500	0	27.614	0	1789.581	0	35.6	4	10.8	4	-1E+10	1	-1E+10	1	-1E+10	1	-1E+10	1	-1E+10	1	-1E+10	1
4902551	12	C	12/08/2020	09:05	-136.970	49.468	0	1838.10	0	2.0720	0	34.5540	0	27.618	0	1814.449	0	37.2	4	11.2	4	-1E+10	1	-1E+10	1	-1E+10	1	-1E+10	1	-1E+10	1	-1E+10	1
4902551	12	C	12/08/2020	09:05	-136.970	49.468	0	1862.70	0	2.0540	0	34.5580	0	27.623	0	1838.626	0	38.7	4	11.7	4	-1E+10	1	-1E+10	1	-1E+10	1	-1E+10	1	-1E+10	1	-1E+10	1
4902551	12	C	12/08/2020	09:05	-136.970	49.468	0	1887.70	0	2.0340	0	34.5620	0	27.628	0	1863.193	0	40.3	4	12.2	4	-1E+10	1	-1E+10	1	-1E+10	1	-1E+10	1	-1E+10	1	-1E+10	1
4902551	12	C	12/08/2020	09:05	-136.970	49.468	0	1913.00	0	2.0100	0	34.5660	0	27.633	0	1888.053	0	42.4	4	12.8	4	-1E+10	1	-1E+10	1	-1E+10	1	-1E+10	1	-1E+10	1	-1E+10	1
4902551	12	C	12/08/2020	09:05	-136.970	49.468	0	1937.80	0	1.9880	0	34.5710	0	27.639	0	1912.418	0	44.1	4	13.3	4	-1E+10	1	-1E+10	1	-1E+10	1	-1E+10	1	-1E+10	1	-1E+10	1
4902551	12	C	12/08/2020	09:05	-136.970	49.468	0	1962.90	0	1.9660	0	34.5750	0	27.644	0	1937.075	0	45.8	4	13.8	4	-1E+10	1	-1E+10	1	-1E+10	1	-1E+10	1	-1E+10	1	-1E+10	1
4902551	12	C	12/08/2020	09:05	-136.970	49.468	0	1980.70	0	1.9560	0	34.5770	0	27.647	0	1954.559	0	46.0	4	13.9	4	-1E+10	1	-1E+10	1	-1E+10	1	-1E+10	1	-1E+10	1	-1E+10	1
4902551	12	C	12/08/2020	09:05	-136.970	49.468	0																										
4902551	13	C	12/18/2020	09:00	-136.732	49.610	0	0.30	0	8.8920	0	32.2470	0	24.980	0	0.297	0	265.3	4	92.4	4	-1E+10	1	-1E+10	1	-1E+10	1	-1E+10	1	-1E+10	1	-1E+10	1
4902551	13	C	12/18/2020	09:00	-136.732	49.610	0	0.90	0	8.8920	0	32.2470	0	24.980	0	0.892	0	265.2	4	92.4	4	-1E+10	1	-1E+10	1	-1E+10	1	-1E+10	1	-1E+10	1	-1E+10	1
4902551	13	C	12/18/2020	09:00	-136.732	49.610	0	2.00	0	8.8920	0	32.2470	0	24.980	0	1.983	0	265.1	4	92.4	4	-1E+10	1	-1E+10	1	-1E+10	1	-1E+10	1	-1E+10	1	-1E+10	1
4902551	13	C	12/18/2020	09:00	-136.732	49.610	0	3.10	0	8.8920	0	32.2470	0	24.980	0	3.074	0	265.2	4	92.4	4	-1E+10	1	-1E+10	1	-1E+10	1	-1E+10	1	-1E+10	1	-1E+10	1
4902551	13	C	12/18/2020	09:00	-136.732	49.610	0	4.10	0	8.8930	0	32.2470	0	24.980	0	4.065	0	265.1	4	92.4	4	-1E+10	1	-1E+10	1	-1E+10	1	-1E+10	1	-1E+10	1	-1E+10	1
4902551	13	C	12/18/2020	09:00	-136.732	49.610	0	5.40	0	8.8930	0	32.2480	0	24.981	0	5.354	0	265.1	4	92.4	4	-1E+10	1	-1E+10	1	-1E+10	1	-1E+10	1	-1E+10	1	-1E+10	1
4902551	13	C	12/18/2020	09:00	-136.732	49.610	0	5.90	0	8.8930	0	32.2470	0	24.980	0	5.850	0	265.1	4	92.4	4	-1E+10	1	-1E+10	1	-1E+10	1	-1E+10	1	-1E+10	1	-1E+10	1
4902551	13	C	12/18/2020	09:00	-136.732	49.610	0	6.70	0	8.8930	0	32.2470	0	24.980	0	6.643	0	265.0	4	92.4	4	-1E+10	1	-1E+10	1	-1E+10	1	-1E+10	1	-1E+10	1	-1E+10	1
4902551	13	C	12/18/2020	09:00	-136.732	49.610	0	7.90	0	8.8930	0	32.2490	0	24.982	0	7.832	0	265.0	4	92.4	4	-1E+10	1	-1E+10	1	-1E+10	1	-1E+10	1	-1E+10	1	-1E+10	1
4902551	13	C	12/18/2020	09:00	-136.732	49.610	0	9.10	0	8.8930	0	32.2490	0	24.982	0	9.022	0	265.0	4	92.3	4	-1E+10	1	-1E+10	1	-1E+10	1	-1E+10	1	-1E+10	1	-1E+10	1
4902551	13	C	12/18/2020	09:00	-136.732	49.610	0	10.00	0	8.8930	0	32.2480	0	24.981	0	9.914	0	264.9	4	92.3	4	-1E+10	1	-1E+10	1	-1E+10	1	-1E+10	1	-1E+10	1	-1E+10	1
4902551	13	C	12/18/2020	09:00	-136.732	49.610	0	15.20	0	8.8930	0	32.2480	0	24.981	0	15.070	0	264.9	4	92.3	4	-1E+10	1	-1E+10	1	-1E+10	1	-1E+10	1	-1E+10	1	-1E+10	1
4902551	13	C	12/18/2020	09:00	-136.732	49.610	0	25.30	0	8.8940	0	32.2480	0	24.981	0	25.082	0	264.7	4	92.2	4	-1E+10	1	-1E+10	1	-1E+10	1	-1E+10	1	-1E+10	1	-1E+10	1
4902551	13	C	12/18/2020	09:00	-136.732	49.610	0	35.50	0	8.8950	0	32.2480	0	24.981	0	35.194	0	264.5	4	92.2	4	-1E+10	1	-1E+10	1	-1E+10	1	-1E+10	1	-1E+10	1	-1E+10	1
4902551	13	C	12/18/2020	09:00	-136.732	49.610	0	45.40	0	8.8960	0	32.2480	0	24.981	0	45.007	0	264.1	4	92.1	4	-1E+10	1	-1E+10	1	-1E+10	1	-1E+10	1	-1E+10	1	-1E+10	1
4902551	13	C	12/18/2020	09:00	-136.732	49.610	0	55.30	0	8.8960	0	32.2480	0	24.981	0	54.821	0	263.6	4	91.9	4	-1E+10	1	-1E+10	1	-1E+10	1	-1E+10	1	-1E+10	1	-1E+10	1
4902551	13	C	12/18/2020	09:00	-136.732	49.610	0	65.60	0	8.8960	0	32.2490	0	24.982	0	65.030	0	262.4	4	91.5	4	-1E+10	1	-1E+10	1	-1E+10	1	-1E+10	1	-1E+10	1	-1E+10	1
4902551	13	C	12/18/2020	09:00	-136.732	49.610	0	75.50	0	8.8910	0	32.2490	0	24.983	0	74.842	0	259.6	4	90.5	4	-1E+10	1	-1E+10	1	-1E+10	1	-1E+10	1	-1E+10	1	-1E+10	1
4902551	13	C	12/18/2020	09:00	-136.732	49.610	0	85.80	0	8.3210	0	32.3290	0	25.131	0	85.050	0	249.3	4	85.8	4	-1E+10	1	-1E+10	1	-1E+10	1	-1E+10	1	-1E+10	1	-1E+10	1
4902551	13	C	12/18/2020	09:00	-136.732	49.610	0	95.40	0	6.3900	0	32.7200	0	25.704	0	94.564	0	227.9	4	75.3	4	-1E+10	1	-1E+10	1	-1E+10	1	-1E+10	1	-1E+10	1	-1E+10	1
4902551	13	C	12/18/2020	09:00	-136.732	49.610	0	105.20	0	6.3410	0	32.8810	0	25.837	0	104.275	0	212.4	4	70.2	4	-1E+10	1	-1E+10	1	-1E+10	1	-1E+10	1	-1E+10	1	-1E+10	1
4902551	13	C	12/18/2020	09:00	-136.732	49.610	0	115.20	0	6.2990	0	33.0770	0	25.997	0	114.185	0	183.5	4	60.7	4	-1E+10	1	-1E+10	1	-1E+10	1	-1E+10	1	-1E+10	1	-1E+10	1
4902551	13	C	12/18/2020	09:00	-136.732	49.610	0	125.40	0	6.3010	0	33.3590	0	26.220	0	124.292	0	160.6	4	53.2	4	-1E+10	1	-1E+10	1	-1E+10	1	-1E+10	1	-1E+10	1	-1E+10	1
4902551	13	C	12/18/2020	09:00	-136.732	49.610	0	135.30	0	6.2740	0	33.5030	0	26.337	0	134.101	0	150.9	4	50.0	4	-1E+10	1	-1E+10	1	-1E+10	1	-1E+10	1	-1E+10	1	-1E+10	1
4902551	13	C	12/18/2020	09:00	-136.732	49.610	0	145.30	0	6.2100	0	33.6110	0	26.430	0	144.009	0	143.8	4	47.6	4	-1E+10	1	-1E+10	1	-1E+10	1	-1E+10	1	-1E+10	1	-1E+10	1
4902551	13	C	12/18/2020	09:00	-136.732	49.610	0	155.50	0	6.1030	0	33.6640	0	26.486	0	154.114	0	140.4	4	46.4	4	-1E+10	1	-1E+10	1	-1E+10	1	-1E+10	1	-1E+10	1	-1E+10	1
4902551	13	C	12/18/2020	09:00	-136.732	49.610	0	165.80	0	6.0310	0	33.6960	0	26.520	0	164.318	0	137.0	4	45.2	4	-1E+10	1	-1E+10	1	-1E+10	1	-1E+10	1	-1E+10	1	-1E+10	1
4902551	13	C	12/18/2020	09:00	-136.732	49.610	0	175.60	0	5.8750	0	33.7360	0	26.571	0	174.027	0	133.1	4	43.8	4	-1E+10	1	-1E+10	1	-1E+10	1	-1E+10	1	-1E+10	1	-1E+10	1
4902551	13	C	12/18/2020	09:00	-136.732	49.610	0	185.20	0	5.7640	0	33.7540	0	26.599	0	183.537	0	130.3	4	42.8	4	-1E+10	1	-1E+10	1	-1E+10	1	-1E+10	1	-1E+10	1	-1E+10	1
4902551	13	C	12/18/2020	09:00	-136.732	49.610	0	195.00	0	5.7230	0	33.7630	0	26.612	0	193.244	0	126.4	4	41.4	4	-1E+10	1	-1E+10	1	-1E+10	1	-1E+10	1	-1E+10	1	-1E+10	1
4902551	13	C	12/18/2020	09:00	-136.732	49.610	0	212.60	0	5.5300	0	33.7830	0	26.651	0	210.676	0	119.9	4	39.1	4	-1E+10	1	-1E+10	1	-1E+10	1	-1E+10	1	-1E+10	1	-1E+10	1
4902551	13	C	12/18/2020	09:00	-136.732	49.610	0	237.90	0	5.2540	0	33.8070	0	26.703	0	235.733	0	107.6	4	34.9	4	-1E+10	1	-1E+10	1	-1E+10	1	-1E+10	1	-1E+10	1	-1E+10	1
4902551	13	C	12/18/2020	09:00	-136.732	49.610	0	264.00	0	4.9940	0	33.8310	0	26.752	0	261.579	0	94.4	4	30.4	4	-1E+10	1	-1E+10	1	-1E+10	1	-1E+10	1	-1E+10	1	-1E+10	1
4902551	13	C	12/18/2020	09:00	-136.732	49.610	0	288.00	0	4.8130	0	33.8550	0	26.791	0	285.342	0	81.8	4	26.3	4	-1E+10	1	-1E+10	1	-1E+10	1	-1E+10	1	-1E+10	1	-1E+10	1
4902551	13	C	12/18/2020	09:00	-136.732	49.610	0	313.20	0	4.7230	0	33.8840	0	26.824	0	310.291	0	70.6	4	22.6	4	-1E+10	1	-1E+10	1	-1E+10	1	-1E+10	1	-1E+10	1	-1E+10	1
4902551	13	C	12/18/2020	09:00	-136.732	49.610	0	338.10	0	4.6170	0	33.9130	0	26.859	0	334.939	0	61.8	4	19.8	4	-1E+10	1	-1E+10	1	-1E+10	1	-1E+10	1	-1E+10	1	-1E+10	1
4902551	13	C	12/18/2020	09:00	-136.732	49.610	0	362.80	0	4.5330	0	33.9360	0	26.887	0	359.387	0	56.2	4	17.9	4	-1E+10	1	-1E+10	1	-1E+10	1	-1E+10	1	-1E+10	1	-1E+10	1
4902551	13	C	12/18/2020	09:00	-136.732	49.610	0	387.80	0	4.4430	0	33.9610	0	26.916	0	384.129	0	49.9	4	15.9	4	-1E+10	1	-1E+10	1	-1E+10	1	-1E+10	1	-1E+10	1	-1E+10	1
4902551	13	C	12/18/2020	09:00	-136.732	49.610	0	413.00	0	4.3690	0	33.9860	0	26.944	0	409.065	0	45.5	4	14.5	4	-1E+10	1	-1E+10	1	-1E+10	1	-1E+10	1	-1E+10	1	-1E+10	1
4902551	13	C	12/18/2020	09:00	-136.732	49.610	0	438.30	0	4.3030	0	34.0100	0	26.971	0	434.098	0	40.6	4	12.9	4	-1E+10	1	-1E+10	1	-1E+10	1	-1E+10	1	-1E+10	1	-1E+10	1
4902551	13	C	12/18/2020	09:00	-136.732	49.610	0	462.60	0	4.2360	0	34.0420	0	27.003	0	458.138	0	33.8	4	10.7	4	-1E+10	1	-1E+10	1	-1E+10	1	-1E+10	1	-1E+10	1	-1E+10	1
4902551	13	C	12/18/2020	09:00	-136.732	49.610	0	487.40	0	4.1640	0	34.0700	0	27.033	0	482.670	0	29.6	4	9.4	4	-1E+10	1	-1E+10	1	-1E+10	1	-1E+10	1	-1E+10	1	-1E+10	1
4902551	13	C	12/18/2020	09:00	-136.732	49.610	0	513.00	0	4.1170	0	34.0860	0	27.051	0	507.990	0	27.4	4	8.7	4	-1E+10	1	-1E+10	1	-1E+10	1	-1E+10	1	-1E+10	1	-1E+10	1
4902551	13	C	12/18/2020	09:00	-136.732	49.610	0	538.00	0	4.0730	0	34.1040	0	27.070	0	532.714	0	24.7	4	7.8	4	-1E+10	1	-1E+10	1	-1E+10	1	-1E+10	1	-1E+10	1	-1E+10	1
4902551	13	C	12/18/2020	09:00	-136.732	49.610	0	562.90	0	4.0170	0	34.1260	0	27.093	0	557.336	0	22.2	4	7.0	4	-1E+10	1	-1E+10	1	-1E+10	1	-1E+10	1	-1E+10	1	-1E+10	1
4902551	13	C	12/18/2020	09:00	-136.732	49.610	0	588.10	0	3.9500	0	34.1460	0	27.116	0	582.252	0	20.3	4	6.4	4	-1E+10	1	-1E+10	1	-1E+10	1	-1E+10	1	-1E+10	1	-1E+10	1
4902551	13	C	12/18/2020	09:00	-136.732	49.610	0	613.20	0	3.8760	0	34.1700	0	27.143	0	607.066	0	18.2	4	5.7	4	-1E+10	1	-1E+10	1	-1E+10	1	-1E+10	1	-1E+10	1	-1E+10	1
4902551	13	C	12/18/2020	09:00	-136.732	49.610	0	638.10	0	3.8020	0	34.1900	0	27.167	0	631.679	0	17.1	4	5.4	4	-1E+10	1	-1E+10	1	-1E+10	1	-1E+10	1	-1E+10	1	-1E+10	1
4902551	13	C	12/18/2020	09:00	-136.732	49.610	0	663.60	0	3.7350	0	34.2080	0	27.188	0	656.882	0	16.1	4	5.0	4	-1E+10	1	-1E+10	1	-1E+10	1	-1E+10	1	-1E+10	1	-1E+10	1
4902551	13	C	12/18/2020	09:00	-136.732	49.610	0	687.30	0	3.6630	0	34.2250	0	27.208	0	680.304	0	15.4	4	4.8	4	-1E+10	1	-1E+10	1	-1E+10	1	-1E+10	1	-1E+10	1	-1E+10	1
4902551	13	C	12/18/2020	09:00	-136.732	49.610	0	712.50	0	3.5940	0	34.2410	0	27.228	0	705.205	0	14.5	4	4.5	4	-1E+10	1	-1E+10	1	-1E+10	1	-1E+10	1	-1E+10	1	-1E+10	1
4902551	13	C	12/18/2020	09:00	-136.732	49.610	0	737.70	0	3.5460	0	34.2520	0	27.242	0	730.102	0	14.0	4	4.4	4	-1E+10	1	-1E+10	1	-1E+10	1	-1E+10	1	-1E+10	1	-1E+10	1
4902551	13	C	12/18/2020	09:00	-136.732	49.610	0	763.00	0	3.5030	0	34.2630	0	27.255	0	755.096	0	13.5	4	4.2	4	-1E+10	1	-1E+10	1	-1E+10	1	-1E+10	1	-1E+10	1	-1E+10	1
4902551	13	C	12/18/2020	09:00	-136.732	49.610	0	788.40	0	3.4640	0	34.2720	0	27.266	0	780.186	0	13.1	4	4.1	4	-1E+10	1	-1E+10	1	-1E+10	1	-1E+10	1	-1E+10	1	-1E+10	1
4902551	13	C	12/18/2020	09:00	-136.732	49.610	0	813.00	0	3.4280	0	34.2800	0	27.276	0	804.482	0	12.8	4	4.0	4	-1E+10	1	-1E+10	1	-1E+10	1	-1E+10	1	-1E+10	1	-1E+10	1
4902551	13	C	12/18/2020	09:00	-136.732	49.610	0	838.00	0	3.3740	0	34.2920	0	27.291	0	829.170	0	12.5	4	3.9	4	-1E+10	1	-1E+10	1	-1E+10	1	-1E+10	1	-1E+10	1	-1E+10	1
4902551	13	C	12/18/2020	09:00	-136.732	49.610	0	863.30	0	3.3340	0	34.3020	0	27.303	0	854.152	0	12.2	4	3.8	4	-1E+10	1	-1E+10	1	-1E+10	1	-1E+10	1	-1E+10	1	-1E+10	1
4902551	13	C	12/18/2020	09:00	-136.732	49.610	0	888.20	0	3.2600	0	34.3140	0	27.319	0	878.736	0	12.0	4	3.7	4	-1E+10	1	-1E+10	1	-1E+10	1	-1E+10	1	-1E+10	1	-1E+10	1
4902551	13	C	12/18/2020	09:00	-136.732	49.610	0	913.80	0	3.2030	0	34.3260	0	27.334	0	904.008	0	11.7	4	3.6	4	-1E+10	1	-1E+10	1	-1E+10	1	-1E+10	1	-1E+10	1	-1E+10	1
4902551	13	C	12/18/2020	09:00	-136.732	49.610	0	937.90	0	3.1490	0	34.3380	0	27.349	0	927.796	0	11.7	4	3.6	4	-1E+10	1	-1E+10	1	-1E+10	1	-1E+10	1	-1E+10	1	-1E+10	1
4902551	13	C	12/18/2020	09:00	-136.732	49.610	0	963.00	0	3.0940	0	34.3490	0	27.363	0	952.569	0	11.5	4	3.6	4	-1E+10	1	-1E+10	1	-1E+10	1	-1E+10	1	-1E+10	1	-1E+10	1
4902551	13	C	12/18/2020	09:00	-136.732	49.610	0	987.70	0	3.0380	0	34.3600	0	27.377	0	976.944	0	11.5	4	3.6	4	-1E+10	1	-1E+10	1	-1E+10	1	-1E+10	1	-1E+10	1	-1E+10	1
4902551	13	C	12/18/2020	09:00	-136.732	49.610	0	1014.00	0	2.9920	0	34.3700	0	27.389	0	1002.894	0	11.5	4	3.5	4	-1E+10	1	-1E+10	1	-1E+10	1	-1E+10	1	-1E+10	1	-1E+10	1
4902551	13	C	12/18/2020	09:00	-136.732	49.610	0	1037.80	0	2.9540	0	34.3780	0	27.399	0	1026.376	0	11.4	4	3.5	4	-1E+10	1	-1E+10	1	-1E+10	1	-1E+10	1	-1E+10	1	-1E+10	1
4902551	13	C	12/18/2020	09:00	-136.732	49.610	0	1063.00	0	2.9320	0	34.3820	0	27.404	0	1051.235	0	11.4	4	3.5	4	-1E+10	1	-1E+10	1	-1E+10	1	-1E+10	1	-1E+10	1	-1E+10	1
4902551	13	C	12/18/2020	09:00	-136.732	49.610	0	1088.10	0	2.9020	0	34.3890	0	27.413	0	1075.993	0	11.5	4	3.5	4	-1E+10	1	-1E+10	1	-1E+10	1	-1E+10	1	-1E+10	1	-1E+10	1
4902551	13	C	12/18/2020	09:00	-136.732	49.610	0	1112.90	0	2.8590	0	34.3970	0	27.423	0	1100.452	0	11.4	4	3.5	4	-1E+10	1	-1E+10	1	-1E+10	1	-1E+10	1	-1E+10	1	-1E+10	1
4902551	13	C	12/18/2020	09:00	-136.732	49.610	0	1137.90	0	2.8230	0	34.4050	0	27.433	0	1125.105	0	11.3	4	3.5	4	-1E+10	1	-1E+10	1	-1E+10	1	-1E+10	1	-1E+10	1	-1E+10	1
4902551	13	C	12/18/2020	09:00	-136.732	49.610	0	1162.70	0	2.7950	0	34.4120	0	27.441	0	1149.559	0	11.4	4	3.5	4	-1E+10	1	-1E+10	1	-1E+10	1	-1E+10	1	-1E+10	1	-1E+10	1
4902551	13	C	12/18/2020	09:00	-136.732	49.610	0	1187.60	0	2.7720	0	34.4160	0	27.446	0	1174.108	0	11.7	4	3.6	4	-1E+10	1	-1E+10	1	-1E+10	1	-1E+10	1	-1E+10	1	-1E+10	1
4902551	13	C	12/18/2020	09:00	-136.732	49.610	0	1213.10	0	2.7420	0	34.4220	0	27.454	0	1199.245	0	11.9	4	3.6	4	-1E+10	1	-1E+10	1	-1E+10	1	-1E+10	1	-1E+10	1	-1E+10	1
4902551	13	C	12/18/2020	09:00	-136.732	49.610	0	1238.00	0	2.7080	0	34.4280	0	27.462	0	1223.789	0	12.1	4	3.7	4	-1E+10	1	-1E+10	1	-1E+10	1	-1E+10	1	-1E+10	1	-1E+10	1
4902551	13	C	12/18/2020	09:00	-136.732	49.610	0	1263.00	0	2.6730	0	34.4350	0	27.471	0	1248.427	0	12.4	4	3.8	4	-1E+10	1	-1E+10	1	-1E+10	1	-1E+10	1	-1E+10	1	-1E+10	1
4902551	13	C	12/18/2020	09:00	-136.732	49.610	0	1288.20	0	2.6500	0	34.4400	0	27.477	0	1273.261	0	12.6	4	3.8	4	-1E+10	1	-1E+10	1	-1E+10	1	-1E+10	1	-1E+10	1	-1E+10	1
4902551	13	C	12/18/2020	09:00	-136.732	49.610	0	1312.90	0	2.6190	0	34.4460	0	27.484	0	1297.598	0	12.9	4	3.9	4	-1E+10	1	-1E+10	1	-1E+10	1	-1E+10	1	-1E+10	1	-1E+10	1
4902551	13	C	12/18/2020	09:00	-136.732	49.610	0	1337.90	0	2.5840	0	34.4530	0	27.493	0	1322.228	0	13.4	4	4.1	4	-1E+10	1	-1E+10	1	-1E+10	1	-1E+10	1	-1E+10	1	-1E+10	1
4902551	13	C	12/18/2020	09:00	-136.732	49.610	0	1362.70	0	2.5460	0	34.4600	0	27.502	0	1346.659	0	14.0	4	4.3	4	-1E+10	1	-1E+10	1	-1E+10	1	-1E+10	1	-1E+10	1	-1E+10	1
4902551	13	C	12/18/2020	09:00	-136.732	49.610	0	1388.10	0	2.5200	0	34.4650	0	27.508	0	1371.677	0	14.5	4	4.4	4	-1E+10	1	-1E+10	1	-1E+10	1	-1E+10	1	-1E+10	1	-1E+10	1
4902551	13	C	12/18/2020	09:00	-136.732	49.610	0	1413.00	0	2.4930	0	34.4700	0	27.515	0	1396.200	0	15.1	4	4.6	4	-1E+10	1	-1E+10	1	-1E+10	1	-1E+10	1	-1E+10	1	-1E+10	1
4902551	13	C	12/18/2020	09:00	-136.732	49.610	0	1438.40	0	2.4680	0	34.4750	0	27.521	0	1421.213	0	15.8	4	4.8	4	-1E+10	1	-1E+10	1	-1E+10	1	-1E+10	1	-1E+10	1	-1E+10	1
4902551	13	C	12/18/2020	09:00	-136.732	49.610	0	1463.10	0	2.4420	0	34.4800	0	27.527	0	1445.533	0	16.6	4	5.0	4	-1E+10	1	-1E+10	1	-1E+10	1	-1E+10	1	-1E+10	1	-1E+10	1
4902551	13	C	12/18/2020	09:00	-136.732	49.610	0	1488.00	0	2.4150	0	34.4860	0	27.534	0	1470.048	0	17.3	4	5.3	4	-1E+10	1	-1E+10	1	-1E+10	1	-1E+10	1	-1E+10	1	-1E+10	1
4902551	13	C	12/18/2020	09:00	-136.732	49.610	0	1512.90	0	2.3870	0	34.4910	0	27.541	0	1494.559	0	18.5	4	5.6	4	-1E+10	1	-1E+10	1	-1E+10	1	-1E+10	1	-1E+10	1	-1E+10	1
4902551	13	C	12/18/2020	09:00	-136.732	49.610	0	1537.60	0	2.3460	0	34.5000	0	27.552	0	1518.871	0	20.0	4	6.1	4	-1E+10	1	-1E+10	1	-1E+10	1	-1E+10	1	-1E+10	1	-1E+10	1
4902551	13	C	12/18/2020	09:00	-136.732	49.610	0	1562.60	0	2.3140	0	34.5060	0	27.559	0	1543.475	0	21.5	4	6.5	4	-1E+10	1	-1E+10	1	-1E+10	1	-1E+10	1	-1E+10	1	-1E+10	1
4902551	13	C	12/18/2020	09:00	-136.732	49.610	0	1587.90	0	2.2890	0	34.5120	0	27.566	0	1568.372	0	22.9	4	6.9	4	-1E+10	1	-1E+10	1	-1E+10	1	-1E+10	1	-1E+10	1	-1E+10	1
4902551	13	C	12/18/2020	09:00	-136.732	49.610	0	1612.80	0	2.2600	0	34.5170	0	27.573	0	1592.872	0	24.5	4	7.4	4	-1E+10	1	-1E+10	1	-1E+10	1	-1E+10	1	-1E+10	1	-1E+10	1
4902551	13	C	12/18/2020	09:00	-136.732	49.610	0	1637.80	0	2.2340	0	34.5230	0	27.580	0	1617.468	0	26.2	4	7.9	4	-1E+10	1	-1E+10	1	-1E+10	1	-1E+10	1	-1E+10	1	-1E+10	1
4902551	13	C	12/18/2020	09:00	-136.732	49.610	0	1662.90	0	2.2010	0	34.5290	0	27.587	0	1642.159	0	28.1	4	8.5	4	-1E+10	1	-1E+10	1	-1E+10	1	-1E+10	1	-1E+10	1	-1E+10	1
4902551	13	C	12/18/2020	09:00	-136.732	49.610	0	1688.50	0	2.1740	0	34.5340	0	27.594	0	1667.339	0	29.8	4	9.0	4	-1E+10	1	-1E+10	1	-1E+10	1	-1E+10	1	-1E+10	1	-1E+10	1
4902551	13	C	12/18/2020	09:00	-136.732	49.610	0	1712.60	0	2.1480	0	34.5390	0	27.600	0	1691.041	0	31.4	4	9.5	4	-1E+10	1	-1E+10	1	-1E+10	1	-1E+10	1	-1E+10	1	-1E+10	1
4902551	13	C	12/18/2020	09:00	-136.732	49.610	0	1737.60	0	2.1320	0	34.5430	0	27.604	0	1715.625	0	32.5	4	9.8	4	-1E+10	1	-1E+10	1	-1E+10	1	-1E+10	1	-1E+10	1	-1E+10	1
4902551	13	C	12/18/2020	09:00	-136.732	49.610	0	1762.50	0	2.1140	0	34.5460	0	27.608	0	1740.108	0	33.9	4	10.2	4	-1E+10	1	-1E+10	1	-1E+10	1	-1E+10	1	-1E+10	1	-1E+10	1
4902551	13	C	12/18/2020	09:00	-136.732	49.610	0	1788.80	0	2.0940	0	34.5500	0	27.613	0	1765.965	0	35.2	4	10.6	4	-1E+10	1	-1E+10	1	-1E+10	1	-1E+10	1	-1E+10	1	-1E+10	1
4902551	13	C	12/18/2020	09:00	-136.732	49.610	0	1813.00	0	2.0810	0	34.5530	0	27.617	0	1789.754	0	36.4	4	11.0	4	-1E+10	1	-1E+10	1	-1E+10	1	-1E+10	1	-1E+10	1	-1E+10	1
4902551	13	C	12/18/2020	09:00	-136.732	49.610	0	1838.00	0	2.0630	0	34.5560	0	27.621	0	1814.327	0	37.8	4	11.4	4	-1E+10	1	-1E+10	1	-1E+10	1	-1E+10	1	-1E+10	1	-1E+10	1
4902551	13	C	12/18/2020	09:00	-136.732	49.610	0	1862.90	0	2.0470	0	34.5590	0	27.625	0	1838.799	0	39.1	4	11.8	4	-1E+10	1	-1E+10	1	-1E+10	1	-1E+10	1	-1E+10	1	-1E+10	1
4902551	13	C	12/18/2020	09:00	-136.732	49.610	0	1887.80	0	2.0330	0	34.5620	0	27.628	0	1863.267	0	40.3	4	12.2	4	-1E+10	1	-1E+10	1	-1E+10	1	-1E+10	1	-1E+10	1	-1E+10	1
4902551	13	C	12/18/2020	09:00	-136.732	49.610	0	1912.80	0	2.0130	0	34.5660	0	27.633	0	1887.832	0	42.1	4	12.7	4	-1E+10	1	-1E+10	1	-1E+10	1	-1E+10	1	-1E+10	1	-1E+10	1
4902551	13	C	12/18/2020	09:00	-136.732	49.610	0	1938.30	0	1.9960	0	34.5690	0	27.637	0	1912.884	0	43.3	4	13.1	4	-1E+10	1	-1E+10	1	-1E+10	1	-1E+10	1	-1E+10	1	-1E+10	1
4902551	13	C	12/18/2020	09:00	-136.732	49.610	0	1962.90	0	1.9870	0	34.5710	0	27.639	0	1937.050	0	44.3	4	13.3	4	-1E+10	1	-1E+10	1	-1E+10	1	-1E+10	1	-1E+10	1	-1E+10	1
4902551	13	C	12/18/2020	09:00	-136.732	49.610	0	1987.70	0	1.9690	0	34.5750	0	27.644	0	1961.409	0	45.9	4	13.8	4	-1E+10	1	-1E+10	1	-1E+10	1	-1E+10	1	-1E+10	1	-1E+10	1
4902551	13	C	12/18/2020	09:00	-136.732	49.610	0	2014.50	0	1.9500	0	34.5790	0	27.649	0	1987.730	0	47.2	4	14.2	4	-1E+10	1	-1E+10	1	-1E+10	1	-1E+10	1	-1E+10	1	-1E+10	1
4902551	13	C	12/18/2020	09:00	-136.732	49.610	0																										
4902551	14	C	12/28/2020	09:02	-136.582	49.720	0	1.00	0	8.6760	0	32.2520	0	25.017	0	0.991	0	266.5	4	92.4	4	-1E+10	1	-1E+10	1	-1E+10	1	-1E+10	1	-1E+10	1	-1E+10	1
4902551	14	C	12/28/2020	09:02	-136.582	49.720	0	2.00	0	8.6740	0	32.2550	0	25.020	0	1.983	0	266.5	4	92.4	4	-1E+10	1	-1E+10	1	-1E+10	1	-1E+10	1	-1E+10	1	-1E+10	1
4902551	14	C	12/28/2020	09:02	-136.582	49.720	0	3.10	0	8.6730	0	32.2570	0	25.021	0	3.073	0	266.5	4	92.4	4	-1E+10	1	-1E+10	1	-1E+10	1	-1E+10	1	-1E+10	1	-1E+10	1
4902551	14	C	12/28/2020	09:02	-136.582	49.720	0	4.10	0	8.6730	0	32.2590	0	25.023	0	4.065	0	266.4	4	92.4	4	-1E+10	1	-1E+10	1	-1E+10	1	-1E+10	1	-1E+10	1	-1E+10	1
4902551	14	C	12/28/2020	09:02	-136.582	49.720	0	5.00	0	8.6780	0	32.2550	0	25.019	0	4.957	0	266.4	4	92.4	4	-1E+10	1	-1E+10	1	-1E+10	1	-1E+10	1	-1E+10	1	-1E+10	1
4902551	14	C	12/28/2020	09:02	-136.582	49.720	0	5.90	0	8.6830	0	32.2550	0	25.018	0	5.849	0	266.4	4	92.4	4	-1E+10	1	-1E+10	1	-1E+10	1	-1E+10	1	-1E+10	1	-1E+10	1
4902551	14	C	12/28/2020	09:02	-136.582	49.720	0	6.80	0	8.6820	0	32.2550	0	25.018	0	6.742	0	266.3	4	92.4	4	-1E+10	1	-1E+10	1	-1E+10	1	-1E+10	1	-1E+10	1	-1E+10	1
4902551	14	C	12/28/2020	09:02	-136.582	49.720	0	8.00	0	8.6890	0	32.2550	0	25.017	0	7.931	0	266.3	4	92.4	4	-1E+10	1	-1E+10	1	-1E+10	1	-1E+10	1	-1E+10	1	-1E+10	1
4902551	14	C	12/28/2020	09:02	-136.582	49.720	0	9.20	0	8.6910	0	32.2540	0	25.016	0	9.121	0	266.3	4	92.4	4	-1E+10	1	-1E+10	1	-1E+10	1	-1E+10	1	-1E+10	1	-1E+10	1
4902551	14	C	12/28/2020	09:02	-136.582	49.720	0	10.10	0	8.6910	0	32.2550	0	25.017	0	10.013	0	266.2	4	92.4	4	-1E+10	1	-1E+10	1	-1E+10	1	-1E+10	1	-1E+10	1	-1E+10	1
4902551	14	C	12/28/2020	09:02	-136.582	49.720	0	15.50	0	8.6890	0	32.2550	0	25.017	0	15.367	0	266.2	4	92.3	4	-1E+10	1	-1E+10	1	-1E+10	1	-1E+10	1	-1E+10	1	-1E+10	1
4902551	14	C	12/28/2020	09:02	-136.582	49.720	0	25.40	0	8.6780	0	32.2540	0	25.018	0	25.181	0	266.1	4	92.3	4	-1E+10	1	-1E+10	1	-1E+10	1	-1E+10	1	-1E+10	1	-1E+10	1
4902551	14	C	12/28/2020	09:02	-136.582	49.720	0	35.60	0	8.6680	0	32.2530	0	25.019	0	35.293	0	265.9	4	92.2	4	-1E+10	1	-1E+10	1	-1E+10	1	-1E+10	1	-1E+10	1	-1E+10	1
4902551	14	C	12/28/2020	09:02	-136.582	49.720	0	45.60	0	8.6640	0	32.2520	0	25.019	0	45.205	0	265.6	4	92.1	4	-1E+10	1	-1E+10	1	-1E+10	1	-1E+10	1	-1E+10	1	-1E+10	1
4902551	14	C	12/28/2020	09:02	-136.582	49.720	0	55.40	0	8.6630	0	32.2520	0	25.020	0	54.919	0	265.3	4	92.0	4	-1E+10	1	-1E+10	1	-1E+10	1	-1E+10	1	-1E+10	1	-1E+10	1
4902551	14	C	12/28/2020	09:02	-136.582	49.720	0	65.10	0	8.6630	0	32.2520	0	25.020	0	64.533	0	264.6	4	91.8	4	-1E+10	1	-1E+10	1	-1E+10	1	-1E+10	1	-1E+10	1	-1E+10	1
4902551	14	C	12/28/2020	09:02	-136.582	49.720	0	75.20	0	8.6580	0	32.2520	0	25.021	0	74.544	0	263.5	4	91.4	4	-1E+10	1	-1E+10	1	-1E+10	1	-1E+10	1	-1E+10	1	-1E+10	1
4902551	14	C	12/28/2020	09:02	-136.582	49.720	0	85.50	0	8.6570	0	32.2530	0	25.022	0	84.752	0	261.1	4	90.5	4	-1E+10	1	-1E+10	1	-1E+10	1	-1E+10	1	-1E+10	1	-1E+10	1
4902551	14	C	12/28/2020	09:02	-136.582	49.720	0	95.20	0	8.1460	0	32.3490	0	25.173	0	94.364	0	249.1	4	85.4	4	-1E+10	1	-1E+10	1	-1E+10	1	-1E+10	1	-1E+10	1	-1E+10	1
4902551	14	C	12/28/2020	09:02	-136.582	49.720	0	105.50	0	6.6670	0	32.6500	0	25.613	0	104.571	0	229.4	4	76.2	4	-1E+10	1	-1E+10	1	-1E+10	1	-1E+10	1	-1E+10	1	-1E+10	1
4902551	14	C	12/28/2020	09:02	-136.582	49.720	0	115.60	0	6.3890	0	32.8830	0	25.833	0	114.580	0	206.9	4	68.5	4	-1E+10	1	-1E+10	1	-1E+10	1	-1E+10	1	-1E+10	1	-1E+10	1
4902551	14	C	12/28/2020	09:02	-136.582	49.720	0	125.50	0	6.2510	0	33.1770	0	26.082	0	124.389	0	172.4	4	57.0	4	-1E+10	1	-1E+10	1	-1E+10	1	-1E+10	1	-1E+10	1	-1E+10	1
4902551	14	C	12/28/2020	09:02	-136.582	49.720	0	135.10	0	6.1690	0	33.4270	0	26.290	0	133.901	0	151.1	4	49.9	4	-1E+10	1	-1E+10	1	-1E+10	1	-1E+10	1	-1E+10	1	-1E+10	1
4902551	14	C	12/28/2020	09:02	-136.582	49.720	0	145.40	0	6.0830	0	33.6050	0	26.442	0	144.106	0	138.6	4	45.8	4	-1E+10	1	-1E+10	1	-1E+10	1	-1E+10	1	-1E+10	1	-1E+10	1
4902551	14	C	12/28/2020	09:02	-136.582	49.720	0	155.30	0	5.9960	0	33.6960	0	26.525	0	153.915	0	129.8	4	42.8	4	-1E+10	1	-1E+10	1	-1E+10	1	-1E+10	1	-1E+10	1	-1E+10	1
4902551	14	C	12/28/2020	09:02	-136.582	49.720	0	165.10	0	5.8650	0	33.7560	0	26.588	0	163.623	0	125.7	4	41.4	4	-1E+10	1	-1E+10	1	-1E+10	1	-1E+10	1	-1E+10	1	-1E+10	1
4902551	14	C	12/28/2020	09:02	-136.582	49.720	0	175.20	0	5.7650	0	33.7740	0	26.615	0	173.629	0	123.0	4	40.4	4	-1E+10	1	-1E+10	1	-1E+10	1	-1E+10	1	-1E+10	1	-1E+10	1
4902551	14	C	12/28/2020	09:02	-136.582	49.720	0	185.10	0	5.6810	0	33.7840	0	26.633	0	183.436	0	118.7	4	38.9	4	-1E+10	1	-1E+10	1	-1E+10	1	-1E+10	1	-1E+10	1	-1E+10	1
4902551	14	C	12/28/2020	09:02	-136.582	49.720	0	195.10	0	5.6790	0	33.8000	0	26.646	0	193.341	0	113.7	4	37.3	4	-1E+10	1	-1E+10	1	-1E+10	1	-1E+10	1	-1E+10	1	-1E+10	1
4902551	14	C	12/28/2020	09:02	-136.582	49.720	0	212.80	0	5.5420	0	33.8150	0	26.675	0	210.872	0	107.1	4	35.0	4	-1E+10	1	-1E+10	1	-1E+10	1	-1E+10	1	-1E+10	1	-1E+10	1
4902551	14	C	12/28/2020	09:02	-136.582	49.720	0	238.00	0	5.1610	0	33.8240	0	26.727	0	235.830	0	101.3	4	32.8	4	-1E+10	1	-1E+10	1	-1E+10	1	-1E+10	1	-1E+10	1	-1E+10	1
4902551	14	C	12/28/2020	09:02	-136.582	49.720	0	263.80	0	4.8830	0	33.8350	0	26.767	0	261.378	0	91.5	4	29.4	4	-1E+10	1	-1E+10	1	-1E+10	1	-1E+10	1	-1E+10	1	-1E+10	1
4902551	14	C	12/28/2020	09:02	-136.582	49.720	0	287.60	0	4.7270	0	33.8580	0	26.803	0	284.943	0	80.7	4	25.9	4	-1E+10	1	-1E+10	1	-1E+10	1	-1E+10	1	-1E+10	1	-1E+10	1
4902551	14	C	12/28/2020	09:02	-136.582	49.720	0	312.80	0	4.6930	0	33.8840	0	26.828	0	309.892	0	72.8	4	23.3	4	-1E+10	1	-1E+10	1	-1E+10	1	-1E+10	1	-1E+10	1	-1E+10	1
4902551	14	C	12/28/2020	09:02	-136.582	49.720	0	338.00	0	4.6050	0	33.8990	0	26.849	0	334.837	0	65.9	4	21.1	4	-1E+10	1	-1E+10	1	-1E+10	1	-1E+10	1	-1E+10	1	-1E+10	1
4902551	14	C	12/28/2020	09:02	-136.582	49.720	0	363.00	0	4.5230	0	33.9310	0	26.884	0	359.581	0	56.9	4	18.1	4	-1E+10	1	-1E+10	1	-1E+10	1	-1E+10	1	-1E+10	1	-1E+10	1
4902551	14	C	12/28/2020	09:02	-136.582	49.720	0	387.70	0	4.4460	0	33.9560	0	26.912	0	384.026	0	50.5	4	16.1	4	-1E+10	1	-1E+10	1	-1E+10	1	-1E+10	1	-1E+10	1	-1E+10	1
4902551	14	C	12/28/2020	09:02	-136.582	49.720	0	413.20	0	4.3740	0	33.9830	0	26.941	0	409.259	0	45.6	4	14.5	4	-1E+10	1	-1E+10	1	-1E+10	1	-1E+10	1	-1E+10	1	-1E+10	1
4902551	14	C	12/28/2020	09:02	-136.582	49.720	0	438.20	0	4.3030	0	34.0100	0	26.971	0	433.995	0	40.7	4	12.9	4	-1E+10	1	-1E+10	1	-1E+10	1	-1E+10	1	-1E+10	1	-1E+10	1
4902551	14	C	12/28/2020	09:02	-136.582	49.720	0	463.40	0	4.2340	0	34.0370	0	26.999	0	458.925	0	35.6	4	11.3	4	-1E+10	1	-1E+10	1	-1E+10	1	-1E+10	1	-1E+10	1	-1E+10	1
4902551	14	C	12/28/2020	09:02	-136.582	49.720	0	487.90	0	4.1820	0	34.0610	0	27.024	0	483.160	0	31.1	4	9.8	4	-1E+10	1	-1E+10	1	-1E+10	1	-1E+10	1	-1E+10	1	-1E+10	1
4902551	14	C	12/28/2020	09:02	-136.582	49.720	0	512.80	0	4.1140	0	34.0870	0	27.052	0	507.788	0	27.3	4	8.6	4	-1E+10	1	-1E+10	1	-1E+10	1	-1E+10	1	-1E+10	1	-1E+10	1
4902551	14	C	12/28/2020	09:02	-136.582	49.720	0	537.60	0	4.0600	0	34.1090	0	27.075	0	532.313	0	24.1	4	7.6	4	-1E+10	1	-1E+10	1	-1E+10	1	-1E+10	1	-1E+10	1	-1E+10	1
4902551	14	C	12/28/2020	09:02	-136.582	49.720	0	562.70	0	4.0090	0	34.1260	0	27.094	0	557.133	0	22.6	4	7.1	4	-1E+10	1	-1E+10	1	-1E+10	1	-1E+10	1	-1E+10	1	-1E+10	1
4902551	14	C	12/28/2020	09:02	-136.582	49.720	0	587.70	0	3.9560	0	34.1430	0	27.113	0	581.851	0	20.8	4	6.5	4	-1E+10	1	-1E+10	1	-1E+10	1	-1E+10	1	-1E+10	1	-1E+10	1
4902551	14	C	12/28/2020	09:02	-136.582	49.720	0	612.80	0	3.8970	0	34.1630	0	27.135	0	606.664	0	18.8	4	5.9	4	-1E+10	1	-1E+10	1	-1E+10	1	-1E+10	1	-1E+10	1	-1E+10	1
4902551	14	C	12/28/2020	09:02	-136.582	49.720	0	638.30	0	3.8320	0	34.1820	0	27.157	0	631.870	0	17.5	4	5.5	4	-1E+10	1	-1E+10	1	-1E+10	1	-1E+10	1	-1E+10	1	-1E+10	1
4902551	14	C	12/28/2020	09:02	-136.582	49.720	0	662.90	0	3.7620	0	34.2010	0	27.179	0	656.184	0	16.5	4	5.2	4	-1E+10	1	-1E+10	1	-1E+10	1	-1E+10	1	-1E+10	1	-1E+10	1
4902551	14	C	12/28/2020	09:02	-136.582	49.720	0	687.90	0	3.7100	0	34.2150	0	27.196	0	680.890	0	15.8	4	5.0	4	-1E+10	1	-1E+10	1	-1E+10	1	-1E+10	1	-1E+10	1	-1E+10	1
4902551	14	C	12/28/2020	09:02	-136.582	49.720	0	712.90	0	3.6610	0	34.2270	0	27.210	0	705.593	0	15.0	4	4.7	4	-1E+10	1	-1E+10	1	-1E+10	1	-1E+10	1	-1E+10	1	-1E+10	1
4902551	14	C	12/28/2020	09:02	-136.582	49.720	0	737.50	0	3.6140	0	34.2400	0	27.226	0	729.897	0	14.4	4	4.5	4	-1E+10	1	-1E+10	1	-1E+10	1	-1E+10	1	-1E+10	1	-1E+10	1
4902551	14	C	12/28/2020	09:02	-136.582	49.720	0	762.40	0	3.5620	0	34.2510	0	27.240	0	754.496	0	14.0	4	4.4	4	-1E+10	1	-1E+10	1	-1E+10	1	-1E+10	1	-1E+10	1	-1E+10	1
4902551	14	C	12/28/2020	09:02	-136.582	49.720	0	787.90	0	3.5190	0	34.2600	0	27.251	0	779.684	0	13.6	4	4.2	4	-1E+10	1	-1E+10	1	-1E+10	1	-1E+10	1	-1E+10	1	-1E+10	1
4902551	14	C	12/28/2020	09:02	-136.582	49.720	0	813.10	0	3.4770	0	34.2700	0	27.263	0	804.573	0	13.1	4	4.1	4	-1E+10	1	-1E+10	1	-1E+10	1	-1E+10	1	-1E+10	1	-1E+10	1
4902551	14	C	12/28/2020	09:02	-136.582	49.720	0	838.80	0	3.4150	0	34.2840	0	27.280	0	829.952	0	12.8	4	4.0	4	-1E+10	1	-1E+10	1	-1E+10	1	-1E+10	1	-1E+10	1	-1E+10	1
4902551	14	C	12/28/2020	09:02	-136.582	49.720	0	862.80	0	3.3530	0	34.2960	0	27.296	0	853.650	0	12.5	4	3.9	4	-1E+10	1	-1E+10	1	-1E+10	1	-1E+10	1	-1E+10	1	-1E+10	1
4902551	14	C	12/28/2020	09:02	-136.582	49.720	0	888.00	0	3.3010	0	34.3060	0	27.309	0	878.530	0	12.3	4	3.8	4	-1E+10	1	-1E+10	1	-1E+10	1	-1E+10	1	-1E+10	1	-1E+10	1
4902551	14	C	12/28/2020	09:02	-136.582	49.720	0	913.00	0	3.2560	0	34.3170	0	27.322	0	903.209	0	12.0	4	3.7	4	-1E+10	1	-1E+10	1	-1E+10	1	-1E+10	1	-1E+10	1	-1E+10	1
4902551	14	C	12/28/2020	09:02	-136.582	49.720	0	937.90	0	3.1990	0	34.3310	0	27.339	0	927.787	0	11.6	4	3.6	4	-1E+10	1	-1E+10	1	-1E+10	1	-1E+10	1	-1E+10	1	-1E+10	1
4902551	14	C	12/28/2020	09:02	-136.582	49.720	0	962.70	0	3.1500	0	34.3410	0	27.351	0	952.263	0	11.4	4	3.5	4	-1E+10	1	-1E+10	1	-1E+10	1	-1E+10	1	-1E+10	1	-1E+10	1
4902551	14	C	12/28/2020	09:02	-136.582	49.720	0	987.90	0	3.0970	0	34.3520	0	27.365	0	977.131	0	11.2	4	3.5	4	-1E+10	1	-1E+10	1	-1E+10	1	-1E+10	1	-1E+10	1	-1E+10	1
4902551	14	C	12/28/2020	09:02	-136.582	49.720	0	1013.60	0	3.0450	0	34.3630	0	27.379	0	1002.490	0	11.2	4	3.4	4	-1E+10	1	-1E+10	1	-1E+10	1	-1E+10	1	-1E+10	1	-1E+10	1
4902551	14	C	12/28/2020	09:02	-136.582	49.720	0	1037.80	0	3.0120	0	34.3700	0	27.388	0	1026.365	0	11.1	4	3.4	4	-1E+10	1	-1E+10	1	-1E+10	1	-1E+10	1	-1E+10	1	-1E+10	1
4902551	14	C	12/28/2020	09:02	-136.582	49.720	0	1062.80	0	2.9660	0	34.3780	0	27.398	0	1051.027	0	11.1	4	3.4	4	-1E+10	1	-1E+10	1	-1E+10	1	-1E+10	1	-1E+10	1	-1E+10	1
4902551	14	C	12/28/2020	09:02	-136.582	49.720	0	1088.10	0	2.9320	0	34.3850	0	27.407	0	1075.982	0	11.1	4	3.4	4	-1E+10	1	-1E+10	1	-1E+10	1	-1E+10	1	-1E+10	1	-1E+10	1
4902551	14	C	12/28/2020	09:02	-136.582	49.720	0	1113.10	0	2.8850	0	34.3940	0	27.418	0	1100.638	0	11.1	4	3.4	4	-1E+10	1	-1E+10	1	-1E+10	1	-1E+10	1	-1E+10	1	-1E+10	1
4902551	14	C	12/28/2020	09:02	-136.582	49.720	0	1137.90	0	2.8490	0	34.4020	0	27.428	0	1125.094	0	11.2	4	3.4	4	-1E+10	1	-1E+10	1	-1E+10	1	-1E+10	1	-1E+10	1	-1E+10	1
4902551	14	C	12/28/2020	09:02	-136.582	49.720	0	1162.60	0	2.8060	0	34.4100	0	27.439	0	1149.448	0	11.3	4	3.5	4	-1E+10	1	-1E+10	1	-1E+10	1	-1E+10	1	-1E+10	1	-1E+10	1
4902551	14	C	12/28/2020	09:02	-136.582	49.720	0	1187.70	0	2.7670	0	34.4180	0	27.448	0	1174.194	0	11.4	4	3.5	4	-1E+10	1	-1E+10	1	-1E+10	1	-1E+10	1	-1E+10	1	-1E+10	1
4902551	14	C	12/28/2020	09:02	-136.582	49.720	0	1213.70	0	2.7310	0	34.4250	0	27.457	0	1199.825	0	11.6	4	3.6	4	-1E+10	1	-1E+10	1	-1E+10	1	-1E+10	1	-1E+10	1	-1E+10	1
4902551	14	C	12/28/2020	09:02	-136.582	49.720	0	1237.70	0	2.6960	0	34.4310	0	27.465	0	1223.481	0	11.8	4	3.6	4	-1E+10	1	-1E+10	1	-1E+10	1	-1E+10	1	-1E+10	1	-1E+10	1
4902551	14	C	12/28/2020	09:02	-136.582	49.720	0	1263.00	0	2.6620	0	34.4380	0	27.474	0	1248.415	0	12.1	4	3.7	4	-1E+10	1	-1E+10	1	-1E+10	1	-1E+10	1	-1E+10	1	-1E+10	1
4902551	14	C	12/28/2020	09:02	-136.582	49.720	0	1288.00	0	2.6230	0	34.4450	0	27.483	0	1273.051	0	12.6	4	3.9	4	-1E+10	1	-1E+10	1	-1E+10	1	-1E+10	1	-1E+10	1	-1E+10	1
4902551	14	C	12/28/2020	09:02	-136.582	49.720	0	1313.10	0	2.5910	0	34.4510	0	27.491	0	1297.782	0	13.1	4	4.0	4	-1E+10	1	-1E+10	1	-1E+10	1	-1E+10	1	-1E+10	1	-1E+10	1
4902551	14	C	12/28/2020	09:02	-136.582	49.720	0	1337.90	0	2.5630	0	34.4570	0	27.498	0	1322.215	0	13.5	4	4.1	4	-1E+10	1	-1E+10	1	-1E+10	1	-1E+10	1	-1E+10	1	-1E+10	1
4902551	14	C	12/28/2020	09:02	-136.582	49.720	0	1362.70	0	2.5360	0	34.4620	0	27.504	0	1346.645	0	14.1	4	4.3	4	-1E+10	1	-1E+10	1	-1E+10	1	-1E+10	1	-1E+10	1	-1E+10	1
4902551	14	C	12/28/2020	09:02	-136.582	49.720	0	1388.00	0	2.5030	0	34.4690	0	27.513	0	1371.565	0	14.8	4	4.5	4	-1E+10	1	-1E+10	1	-1E+10	1	-1E+10	1	-1E+10	1	-1E+10	1
4902551	14	C	12/28/2020	09:02	-136.582	49.720	0	1413.70	0	2.4800	0	34.4730	0	27.518	0	1396.875	0	15.5	4	4.7	4	-1E+10	1	-1E+10	1	-1E+10	1	-1E+10	1	-1E+10	1	-1E+10	1
4902551	14	C	12/28/2020	09:02	-136.582	49.720	0	1437.80	0	2.4570	0	34.4770	0	27.523	0	1420.608	0	15.9	4	4.9	4	-1E+10	1	-1E+10	1	-1E+10	1	-1E+10	1	-1E+10	1	-1E+10	1
4902551	14	C	12/28/2020	09:02	-136.582	49.720	0	1463.10	0	2.4350	0	34.4820	0	27.529	0	1445.518	0	16.6	4	5.1	4	-1E+10	1	-1E+10	1	-1E+10	1	-1E+10	1	-1E+10	1	-1E+10	1
4902551	14	C	12/28/2020	09:02	-136.582	49.720	0	1488.10	0	2.4120	0	34.4870	0	27.536	0	1470.131	0	17.3	4	5.3	4	-1E+10	1	-1E+10	1	-1E+10	1	-1E+10	1	-1E+10	1	-1E+10	1
4902551	14	C	12/28/2020	09:02	-136.582	49.720	0	1512.90	0	2.3840	0	34.4930	0	27.543	0	1494.544	0	18.4	4	5.6	4	-1E+10	1	-1E+10	1	-1E+10	1	-1E+10	1	-1E+10	1	-1E+10	1
4902551	14	C	12/28/2020	09:02	-136.582	49.720	0	1537.80	0	2.3530	0	34.4990	0	27.550	0	1519.053	0	19.9	4	6.0	4	-1E+10	1	-1E+10	1	-1E+10	1	-1E+10	1	-1E+10	1	-1E+10	1
4902551	14	C	12/28/2020	09:02	-136.582	49.720	0	1562.70	0	2.3190	0	34.5060	0	27.559	0	1543.558	0	21.4	4	6.5	4	-1E+10	1	-1E+10	1	-1E+10	1	-1E+10	1	-1E+10	1	-1E+10	1
4902551	14	C	12/28/2020	09:02	-136.582	49.720	0	1587.50	0	2.2910	0	34.5120	0	27.566	0	1567.963	0	23.0	4	7.0	4	-1E+10	1	-1E+10	1	-1E+10	1	-1E+10	1	-1E+10	1	-1E+10	1
4902551	14	C	12/28/2020	09:02	-136.582	49.720	0	1612.80	0	2.2600	0	34.5180	0	27.573	0	1592.856	0	24.5	4	7.4	4	-1E+10	1	-1E+10	1	-1E+10	1	-1E+10	1	-1E+10	1	-1E+10	1
4902551	14	C	12/28/2020	09:02	-136.582	49.720	0	1638.00	0	2.2370	0	34.5220	0	27.579	0	1617.648	0	25.6	4	7.8	4	-1E+10	1	-1E+10	1	-1E+10	1	-1E+10	1	-1E+10	1	-1E+10	1
4902551	14	C	12/28/2020	09:02	-136.582	49.720	0	1663.80	0	2.2120	0	34.5270	0	27.585	0	1643.028	0	26.9	4	8.2	4	-1E+10	1	-1E+10	1	-1E+10	1	-1E+10	1	-1E+10	1	-1E+10	1
4902551	14	C	12/28/2020	09:02	-136.582	49.720	0	1688.00	0	2.1940	0	34.5310	0	27.590	0	1666.831	0	28.0	4	8.5	4	-1E+10	1	-1E+10	1	-1E+10	1	-1E+10	1	-1E+10	1	-1E+10	1
4902551	14	C	12/28/2020	09:02	-136.582	49.720	0	1712.70	0	2.1760	0	34.5360	0	27.595	0	1691.122	0	29.2	4	8.9	4	-1E+10	1	-1E+10	1	-1E+10	1	-1E+10	1	-1E+10	1	-1E+10	1
4902551	14	C	12/28/2020	09:02	-136.582	49.720	0	1737.80	0	2.1550	0	34.5400	0	27.600	0	1715.805	0	30.8	4	9.3	4	-1E+10	1	-1E+10	1	-1E+10	1	-1E+10	1	-1E+10	1	-1E+10	1
4902551	14	C	12/28/2020	09:02	-136.582	49.720	0	1763.10	0	2.1320	0	34.5440	0	27.605	0	1740.681	0	32.5	4	9.8	4	-1E+10	1	-1E+10	1	-1E+10	1	-1E+10	1	-1E+10	1	-1E+10	1
4902551	14	C	12/28/2020	09:02	-136.582	49.720	0	1787.90	0	2.1100	0	34.5480	0	27.610	0	1765.062	0	34.3	4	10.4	4	-1E+10	1	-1E+10	1	-1E+10	1	-1E+10	1	-1E+10	1	-1E+10	1
4902551	14	C	12/28/2020	09:02	-136.582	49.720	0	1812.70	0	2.0830	0	34.5520	0	27.616	0	1789.441	0	36.3	4	11.0	4	-1E+10	1	-1E+10	1	-1E+10	1	-1E+10	1	-1E+10	1	-1E+10	1
4902551	14	C	12/28/2020	09:02	-136.582	49.720	0	1837.70	0	2.0620	0	34.5560	0	27.621	0	1814.014	0	37.8	4	11.4	4	-1E+10	1	-1E+10	1	-1E+10	1	-1E+10	1	-1E+10	1	-1E+10	1
4902551	14	C	12/28/2020	09:02	-136.582	49.720	0	1862.60	0	2.0450	0	34.5600	0	27.626	0	1838.485	0	39.3	4	11.9	4	-1E+10	1	-1E+10	1	-1E+10	1	-1E+10	1	-1E+10	1	-1E+10	1
4902551	14	C	12/28/2020	09:02	-136.582	49.720	0	1887.80	0	2.0210	0	34.5650	0	27.632	0	1863.249	0	41.3	4	12.5	4	-1E+10	1	-1E+10	1	-1E+10	1	-1E+10	1	-1E+10	1	-1E+10	1
4902551	14	C	12/28/2020	09:02	-136.582	49.720	0	1912.70	0	2.0010	0	34.5690	0	27.636	0	1887.714	0	43.0	4	13.0	4	-1E+10	1	-1E+10	1	-1E+10	1	-1E+10	1	-1E+10	1	-1E+10	1
4902551	14	C	12/28/2020	09:02	-136.582	49.720	0	1937.50	0	1.9840	0	34.5730	0	27.641	0	1912.079	0	44.5	4	13.4	4	-1E+10	1	-1E+10	1	-1E+10	1	-1E+10	1	-1E+10	1	-1E+10	1
4902551	14	C	12/28/2020	09:02	-136.582	49.720	0	1962.60	0	1.9710	0	34.5770	0	27.645	0	1936.736	0	45.9	4	13.8	4	-1E+10	1	-1E+10	1	-1E+10	1	-1E+10	1	-1E+10	1	-1E+10	1
4902551	14	C	12/28/2020	09:02	-136.582	49.720	0	1987.50	0	1.9550	0	34.5800	0	27.649	0	1961.193	0	47.3	4	14.2	4	-1E+10	1	-1E+10	1	-1E+10	1	-1E+10	1	-1E+10	1	-1E+10	1
4902551	14	C	12/28/2020	09:02	-136.582	49.720	0	2009.50	0	1.9440	0	34.5830	0	27.653	0	1982.800	0	47.6	4	14.3	4	-1E+10	1	-1E+10	1	-1E+10	1	-1E+10	1	-1E+10	1	-1E+10	1
4902551	14	C	12/28/2020	09:02	-136.582	49.720	0																										
4902551	16	C	01/17/2021	08:57	-136.172	49.980	0	1.00	0	7.8190	0	32.2840	0	25.168	0	0.991	0	269.1	4	91.6	4	-1E+10	1	-1E+10	1	-1E+10	1	-1E+10	1	-1E+10	1	-1E+10	1
4902551	16	C	01/17/2021	08:57	-136.172	49.980	0	2.10	0	7.8210	0	32.2820	0	25.166	0	2.082	0	269.1	4	91.6	4	-1E+10	1	-1E+10	1	-1E+10	1	-1E+10	1	-1E+10	1	-1E+10	1
4902551	16	C	01/17/2021	08:57	-136.172	49.980	0	2.90	0	7.8220	0	32.2820	0	25.166	0	2.875	0	269.1	4	91.6	4	-1E+10	1	-1E+10	1	-1E+10	1	-1E+10	1	-1E+10	1	-1E+10	1
4902551	16	C	01/17/2021	08:57	-136.172	49.980	0	3.90	0	7.8220	0	32.2820	0	25.166	0	3.867	0	269.0	4	91.6	4	-1E+10	1	-1E+10	1	-1E+10	1	-1E+10	1	-1E+10	1	-1E+10	1
4902551	16	C	01/17/2021	08:57	-136.172	49.980	0	5.00	0	7.8200	0	32.2840	0	25.167	0	4.957	0	269.1	4	91.6	4	-1E+10	1	-1E+10	1	-1E+10	1	-1E+10	1	-1E+10	1	-1E+10	1
4902551	16	C	01/17/2021	08:57	-136.172	49.980	0	6.00	0	7.8210	0	32.2840	0	25.167	0	5.948	0	269.0	4	91.6	4	-1E+10	1	-1E+10	1	-1E+10	1	-1E+10	1	-1E+10	1	-1E+10	1
4902551	16	C	01/17/2021	08:57	-136.172	49.980	0	7.10	0	7.8200	0	32.2840	0	25.167	0	7.039	0	269.0	4	91.6	4	-1E+10	1	-1E+10	1	-1E+10	1	-1E+10	1	-1E+10	1	-1E+10	1
4902551	16	C	01/17/2021	08:57	-136.172	49.980	0	7.90	0	7.8200	0	32.2840	0	25.168	0	7.832	0	269.0	4	91.6	4	-1E+10	1	-1E+10	1	-1E+10	1	-1E+10	1	-1E+10	1	-1E+10	1
4902551	16	C	01/17/2021	08:57	-136.172	49.980	0	9.00	0	7.8200	0	32.2840	0	25.168	0	8.923	0	269.0	4	91.5	4	-1E+10	1	-1E+10	1	-1E+10	1	-1E+10	1	-1E+10	1	-1E+10	1
4902551	16	C	01/17/2021	08:57	-136.172	49.980	0	10.00	0	7.8200	0	32.2840	0	25.168	0	9.914	0	268.9	4	91.5	4	-1E+10	1	-1E+10	1	-1E+10	1	-1E+10	1	-1E+10	1	-1E+10	1
4902551	16	C	01/17/2021	08:57	-136.172	49.980	0	15.50	0	7.8230	0	32.2830	0	25.166	0	15.367	0	268.8	4	91.5	4	-1E+10	1	-1E+10	1	-1E+10	1	-1E+10	1	-1E+10	1	-1E+10	1
4902551	16	C	01/17/2021	08:57	-136.172	49.980	0	25.50	0	7.8240	0	32.2830	0	25.166	0	25.280	0	268.7	4	91.5	4	-1E+10	1	-1E+10	1	-1E+10	1	-1E+10	1	-1E+10	1	-1E+10	1
4902551	16	C	01/17/2021	08:57	-136.172	49.980	0	35.40	0	7.8240	0	32.2830	0	25.167	0	35.094	0	268.4	4	91.4	4	-1E+10	1	-1E+10	1	-1E+10	1	-1E+10	1	-1E+10	1	-1E+10	1
4902551	16	C	01/17/2021	08:57	-136.172	49.980	0	45.60	0	7.8230	0	32.2840	0	25.168	0	45.204	0	268.1	4	91.2	4	-1E+10	1	-1E+10	1	-1E+10	1	-1E+10	1	-1E+10	1	-1E+10	1
4902551	16	C	01/17/2021	08:57	-136.172	49.980	0	55.30	0	7.8230	0	32.2840	0	25.168	0	54.819	0	267.6	4	91.1	4	-1E+10	1	-1E+10	1	-1E+10	1	-1E+10	1	-1E+10	1	-1E+10	1
4902551	16	C	01/17/2021	08:57	-136.172	49.980	0	65.60	0	7.8170	0	32.2840	0	25.169	0	65.027	0	266.7	4	90.8	4	-1E+10	1	-1E+10	1	-1E+10	1	-1E+10	1	-1E+10	1	-1E+10	1
4902551	16	C	01/17/2021	08:57	-136.172	49.980	0	75.50	0	7.8150	0	32.2850	0	25.170	0	74.839	0	264.7	4	90.1	4	-1E+10	1	-1E+10	1	-1E+10	1	-1E+10	1	-1E+10	1	-1E+10	1
4902551	16	C	01/17/2021	08:57	-136.172	49.980	0	85.40	0	7.7950	0	32.2930	0	25.179	0	84.651	0	257.6	4	87.6	4	-1E+10	1	-1E+10	1	-1E+10	1	-1E+10	1	-1E+10	1	-1E+10	1
4902551	16	C	01/17/2021	08:57	-136.172	49.980	0	95.20	0	7.6340	0	32.3770	0	25.268	0	94.362	0	237.9	4	80.7	4	-1E+10	1	-1E+10	1	-1E+10	1	-1E+10	1	-1E+10	1	-1E+10	1
4902551	16	C	01/17/2021	08:57	-136.172	49.980	0	105.30	0	6.7740	0	32.7620	0	25.688	0	104.371	0	210.3	4	70.1	4	-1E+10	1	-1E+10	1	-1E+10	1	-1E+10	1	-1E+10	1	-1E+10	1
4902551	16	C	01/17/2021	08:57	-136.172	49.980	0	115.40	0	6.4160	0	33.0430	0	25.956	0	114.379	0	183.2	4	60.7	4	-1E+10	1	-1E+10	1	-1E+10	1	-1E+10	1	-1E+10	1	-1E+10	1
4902551	16	C	01/17/2021	08:57	-136.172	49.980	0	125.10	0	6.2920	0	33.2820	0	26.160	0	123.990	0	163.3	4	54.1	4	-1E+10	1	-1E+10	1	-1E+10	1	-1E+10	1	-1E+10	1	-1E+10	1
4902551	16	C	01/17/2021	08:57	-136.172	49.980	0	134.80	0	6.1680	0	33.4970	0	26.346	0	133.601	0	148.2	4	49.0	4	-1E+10	1	-1E+10	1	-1E+10	1	-1E+10	1	-1E+10	1	-1E+10	1
4902551	16	C	01/17/2021	08:57	-136.172	49.980	0	145.30	0	6.0410	0	33.6050	0	26.447	0	144.004	0	136.8	4	45.1	4	-1E+10	1	-1E+10	1	-1E+10	1	-1E+10	1	-1E+10	1	-1E+10	1
4902551	16	C	01/17/2021	08:57	-136.172	49.980	0	155.90	0	5.9580	0	33.6940	0	26.528	0	154.505	0	129.3	4	42.6	4	-1E+10	1	-1E+10	1	-1E+10	1	-1E+10	1	-1E+10	1	-1E+10	1
4902551	16	C	01/17/2021	08:57	-136.172	49.980	0	165.50	0	5.8950	0	33.7360	0	26.569	0	164.016	0	124.0	4	40.8	4	-1E+10	1	-1E+10	1	-1E+10	1	-1E+10	1	-1E+10	1	-1E+10	1
4902551	16	C	01/17/2021	08:57	-136.172	49.980	0	175.30	0	5.7690	0	33.7580	0	26.602	0	173.724	0	119.3	4	39.1	4	-1E+10	1	-1E+10	1	-1E+10	1	-1E+10	1	-1E+10	1	-1E+10	1
4902551	16	C	01/17/2021	08:57	-136.172	49.980	0	185.30	0	5.6260	0	33.7750	0	26.633	0	183.629	0	114.3	4	37.4	4	-1E+10	1	-1E+10	1	-1E+10	1	-1E+10	1	-1E+10	1	-1E+10	1
4902551	16	C	01/17/2021	08:57	-136.172	49.980	0	195.20	0	5.5650	0	33.8010	0	26.661	0	193.435	0	110.3	4	36.0	4	-1E+10	1	-1E+10	1	-1E+10	1	-1E+10	1	-1E+10	1	-1E+10	1
4902551	16	C	01/17/2021	08:57	-136.172	49.980	0	212.90	0	5.4850	0	33.8160	0	26.682	0	210.966	0	106.7	4	34.8	4	-1E+10	1	-1E+10	1	-1E+10	1	-1E+10	1	-1E+10	1	-1E+10	1
4902551	16	C	01/17/2021	08:57	-136.172	49.980	0	237.90	0	5.2390	0	33.8250	0	26.719	0	235.725	0	101.1	4	32.8	4	-1E+10	1	-1E+10	1	-1E+10	1	-1E+10	1	-1E+10	1	-1E+10	1
4902551	16	C	01/17/2021	08:57	-136.172	49.980	0	263.50	0	4.9970	0	33.8340	0	26.754	0	261.075	0	93.5	4	30.1	4	-1E+10	1	-1E+10	1	-1E+10	1	-1E+10	1	-1E+10	1	-1E+10	1
4902551	16	C	01/17/2021	08:57	-136.172	49.980	0	287.90	0	4.8300	0	33.8460	0	26.782	0	285.234	0	87.4	4	28.1	4	-1E+10	1	-1E+10	1	-1E+10	1	-1E+10	1	-1E+10	1	-1E+10	1
4902551	16	C	01/17/2021	08:57	-136.172	49.980	0	312.80	0	4.7210	0	33.8690	0	26.813	0	309.884	0	76.3	4	24.4	4	-1E+10	1	-1E+10	1	-1E+10	1	-1E+10	1	-1E+10	1	-1E+10	1
4902551	16	C	01/17/2021	08:57	-136.172	49.980	0	337.90	0	4.6260	0	33.8970	0	26.845	0	334.730	0	66.7	4	21.3	4	-1E+10	1	-1E+10	1	-1E+10	1	-1E+10	1	-1E+10	1	-1E+10	1
4902551	16	C	01/17/2021	08:57	-136.172	49.980	0	363.30	0	4.5480	0	33.9210	0	26.873	0	359.870	0	58.6	4	18.7	4	-1E+10	1	-1E+10	1	-1E+10	1	-1E+10	1	-1E+10	1	-1E+10	1
4902551	16	C	01/17/2021	08:57	-136.172	49.980	0	388.20	0	4.4390	0	33.9540	0	26.911	0	384.512	0	51.4	4	16.4	4	-1E+10	1	-1E+10	1	-1E+10	1	-1E+10	1	-1E+10	1	-1E+10	1
4902551	16	C	01/17/2021	08:57	-136.172	49.980	0	413.20	0	4.3650	0	33.9820	0	26.942	0	409.250	0	45.7	4	14.5	4	-1E+10	1	-1E+10	1	-1E+10	1	-1E+10	1	-1E+10	1	-1E+10	1
4902551	16	C	01/17/2021	08:57	-136.172	49.980	0	438.30	0	4.3070	0	34.0110	0	26.971	0	434.083	0	40.0	4	12.7	4	-1E+10	1	-1E+10	1	-1E+10	1	-1E+10	1	-1E+10	1	-1E+10	1
4902551	16	C	01/17/2021	08:57	-136.172	49.980	0	462.40	0	4.2360	0	34.0390	0	27.001	0	457.925	0	35.1	4	11.1	4	-1E+10	1	-1E+10	1	-1E+10	1	-1E+10	1	-1E+10	1	-1E+10	1
4902551	16	C	01/17/2021	08:57	-136.172	49.980	0	487.90	0	4.1730	0	34.0640	0	27.027	0	483.148	0	31.1	4	9.8	4	-1E+10	1	-1E+10	1	-1E+10	1	-1E+10	1	-1E+10	1	-1E+10	1
4902551	16	C	01/17/2021	08:57	-136.172	49.980	0	512.90	0	4.1160	0	34.0860	0	27.051	0	507.874	0	27.4	4	8.7	4	-1E+10	1	-1E+10	1	-1E+10	1	-1E+10	1	-1E+10	1	-1E+10	1
4902551	16	C	01/17/2021	08:57	-136.172	49.980	0	537.60	0	4.0610	0	34.1080	0	27.074	0	532.301	0	24.1	4	7.6	4	-1E+10	1	-1E+10	1	-1E+10	1	-1E+10	1	-1E+10	1	-1E+10	1
4902551	16	C	01/17/2021	08:57	-136.172	49.980	0	563.00	0	4.0100	0	34.1270	0	27.095	0	557.416	0	22.1	4	7.0	4	-1E+10	1	-1E+10	1	-1E+10	1	-1E+10	1	-1E+10	1	-1E+10	1
4902551	16	C	01/17/2021	08:57	-136.172	49.980	0	588.00	0	3.9520	0	34.1460	0	27.116	0	582.134	0	20.1	4	6.3	4	-1E+10	1	-1E+10	1	-1E+10	1	-1E+10	1	-1E+10	1	-1E+10	1
4902551	16	C	01/17/2021	08:57	-136.172	49.980	0	613.10	0	3.8790	0	34.1680	0	27.141	0	606.947	0	18.4	4	5.8	4	-1E+10	1	-1E+10	1	-1E+10	1	-1E+10	1	-1E+10	1	-1E+10	1
4902551	16	C	01/17/2021	08:57	-136.172	49.980	0	638.40	0	3.8110	0	34.1870	0	27.163	0	631.954	0	17.2	4	5.4	4	-1E+10	1	-1E+10	1	-1E+10	1	-1E+10	1	-1E+10	1	-1E+10	1
4902551	16	C	01/17/2021	08:57	-136.172	49.980	0	662.60	0	3.7550	0	34.2040	0	27.183	0	655.872	0	16.3	4	5.1	4	-1E+10	1	-1E+10	1	-1E+10	1	-1E+10	1	-1E+10	1	-1E+10	1
4902551	16	C	01/17/2021	08:57	-136.172	49.980	0	687.50	0	3.7010	0	34.2170	0	27.198	0	680.478	0	15.6	4	4.9	4	-1E+10	1	-1E+10	1	-1E+10	1	-1E+10	1	-1E+10	1	-1E+10	1
4902551	16	C	01/17/2021	08:57	-136.172	49.980	0	712.30	0	3.6390	0	34.2320	0	27.217	0	704.983	0	14.8	4	4.6	4	-1E+10	1	-1E+10	1	-1E+10	1	-1E+10	1	-1E+10	1	-1E+10	1
4902551	16	C	01/17/2021	08:57	-136.172	49.980	0	737.50	0	3.5800	0	34.2460	0	27.234	0	729.880	0	14.1	4	4.4	4	-1E+10	1	-1E+10	1	-1E+10	1	-1E+10	1	-1E+10	1	-1E+10	1
4902551	16	C	01/17/2021	08:57	-136.172	49.980	0	762.40	0	3.5300	0	34.2580	0	27.248	0	754.478	0	13.5	4	4.2	4	-1E+10	1	-1E+10	1	-1E+10	1	-1E+10	1	-1E+10	1	-1E+10	1
4902551	16	C	01/17/2021	08:57	-136.172	49.980	0	787.80	0	3.4720	0	34.2720	0	27.265	0	779.567	0	13.0	4	4.1	4	-1E+10	1	-1E+10	1	-1E+10	1	-1E+10	1	-1E+10	1	-1E+10	1
4902551	16	C	01/17/2021	08:57	-136.172	49.980	0	814.00	0	3.4080	0	34.2850	0	27.282	0	805.442	0	12.7	4	4.0	4	-1E+10	1	-1E+10	1	-1E+10	1	-1E+10	1	-1E+10	1	-1E+10	1
4902551	16	C	01/17/2021	08:57	-136.172	49.980	0	837.70	0	3.3640	0	34.2950	0	27.294	0	828.846	0	12.5	4	3.9	4	-1E+10	1	-1E+10	1	-1E+10	1	-1E+10	1	-1E+10	1	-1E+10	1
4902551	16	C	01/17/2021	08:57	-136.172	49.980	0	862.80	0	3.3170	0	34.3050	0	27.307	0	853.630	0	12.2	4	3.8	4	-1E+10	1	-1E+10	1	-1E+10	1	-1E+10	1	-1E+10	1	-1E+10	1
4902551	16	C	01/17/2021	08:57	-136.172	49.980	0	888.00	0	3.2640	0	34.3160	0	27.320	0	878.509	0	11.9	4	3.7	4	-1E+10	1	-1E+10	1	-1E+10	1	-1E+10	1	-1E+10	1	-1E+10	1
4902551	16	C	01/17/2021	08:57	-136.172	49.980	0	912.70	0	3.2120	0	34.3270	0	27.334	0	902.892	0	11.7	4	3.6	4	-1E+10	1	-1E+10	1	-1E+10	1	-1E+10	1	-1E+10	1	-1E+10	1
4902551	16	C	01/17/2021	08:57	-136.172	49.980	0	937.80	0	3.1660	0	34.3360	0	27.346	0	927.666	0	11.6	4	3.6	4	-1E+10	1	-1E+10	1	-1E+10	1	-1E+10	1	-1E+10	1	-1E+10	1
4902551	16	C	01/17/2021	08:57	-136.172	49.980	0	962.70	0	3.1220	0	34.3440	0	27.356	0	952.241	0	11.4	4	3.5	4	-1E+10	1	-1E+10	1	-1E+10	1	-1E+10	1	-1E+10	1	-1E+10	1
4902551	16	C	01/17/2021	08:57	-136.172	49.980	0	987.40	0	3.0730	0	34.3550	0	27.370	0	976.615	0	11.3	4	3.5	4	-1E+10	1	-1E+10	1	-1E+10	1	-1E+10	1	-1E+10	1	-1E+10	1
4902551	16	C	01/17/2021	08:57	-136.172	49.980	0	1012.80	0	3.0200	0	34.3670	0	27.384	0	1001.677	0	11.2	4	3.5	4	-1E+10	1	-1E+10	1	-1E+10	1	-1E+10	1	-1E+10	1	-1E+10	1
4902551	16	C	01/17/2021	08:57	-136.172	49.980	0	1038.00	0	2.9870	0	34.3740	0	27.393	0	1026.538	0	11.2	4	3.4	4	-1E+10	1	-1E+10	1	-1E+10	1	-1E+10	1	-1E+10	1	-1E+10	1
4902551	16	C	01/17/2021	08:57	-136.172	49.980	0	1063.20	0	2.9400	0	34.3830	0	27.405	0	1051.397	0	11.2	4	3.5	4	-1E+10	1	-1E+10	1	-1E+10	1	-1E+10	1	-1E+10	1	-1E+10	1
4902551	16	C	01/17/2021	08:57	-136.172	49.980	0	1087.60	0	2.8840	0	34.3940	0	27.418	0	1075.463	0	11.3	4	3.5	4	-1E+10	1	-1E+10	1	-1E+10	1	-1E+10	1	-1E+10	1	-1E+10	1
4902551	16	C	01/17/2021	08:57	-136.172	49.980	0	1112.70	0	2.8340	0	34.4040	0	27.431	0	1100.218	0	11.3	4	3.5	4	-1E+10	1	-1E+10	1	-1E+10	1	-1E+10	1	-1E+10	1	-1E+10	1
4902551	16	C	01/17/2021	08:57	-136.172	49.980	0	1137.90	0	2.7950	0	34.4110	0	27.440	0	1125.067	0	11.5	4	3.5	4	-1E+10	1	-1E+10	1	-1E+10	1	-1E+10	1	-1E+10	1	-1E+10	1
4902551	16	C	01/17/2021	08:57	-136.172	49.980	0	1163.00	0	2.7540	0	34.4190	0	27.450	0	1149.816	0	11.7	4	3.6	4	-1E+10	1	-1E+10	1	-1E+10	1	-1E+10	1	-1E+10	1	-1E+10	1
4902551	16	C	01/17/2021	08:57	-136.172	49.980	0	1187.70	0	2.7150	0	34.4260	0	27.459	0	1174.167	0	11.9	4	3.6	4	-1E+10	1	-1E+10	1	-1E+10	1	-1E+10	1	-1E+10	1	-1E+10	1
4902551	16	C	01/17/2021	08:57	-136.172	49.980	0	1212.70	0	2.6850	0	34.4320	0	27.467	0	1198.811	0	12.2	4	3.7	4	-1E+10	1	-1E+10	1	-1E+10	1	-1E+10	1	-1E+10	1	-1E+10	1
4902551	16	C	01/17/2021	08:57	-136.172	49.980	0	1238.10	0	2.6600	0	34.4370	0	27.473	0	1223.846	0	12.3	4	3.8	4	-1E+10	1	-1E+10	1	-1E+10	1	-1E+10	1	-1E+10	1	-1E+10	1
4902551	16	C	01/17/2021	08:57	-136.172	49.980	0	1262.60	0	2.6320	0	34.4430	0	27.481	0	1247.991	0	12.6	4	3.8	4	-1E+10	1	-1E+10	1	-1E+10	1	-1E+10	1	-1E+10	1	-1E+10	1
4902551	16	C	01/17/2021	08:57	-136.172	49.980	0	1287.80	0	2.5890	0	34.4510	0	27.491	0	1272.824	0	13.3	4	4.1	4	-1E+10	1	-1E+10	1	-1E+10	1	-1E+10	1	-1E+10	1	-1E+10	1
4902551	16	C	01/17/2021	08:57	-136.172	49.980	0	1312.70	0	2.5560	0	34.4570	0	27.498	0	1297.357	0	13.8	4	4.2	4	-1E+10	1	-1E+10	1	-1E+10	1	-1E+10	1	-1E+10	1	-1E+10	1
4902551	16	C	01/17/2021	08:57	-136.172	49.980	0	1337.30	0	2.5290	0	34.4630	0	27.506	0	1321.593	0	14.2	4	4.3	4	-1E+10	1	-1E+10	1	-1E+10	1	-1E+10	1	-1E+10	1	-1E+10	1
4902551	16	C	01/17/2021	08:57	-136.172	49.980	0	1362.70	0	2.5040	0	34.4680	0	27.512	0	1346.613	0	14.8	4	4.5	4	-1E+10	1	-1E+10	1	-1E+10	1	-1E+10	1	-1E+10	1	-1E+10	1
4902551	16	C	01/17/2021	08:57	-136.172	49.980	0	1387.70	0	2.4750	0	34.4740	0	27.519	0	1371.237	0	15.4	4	4.7	4	-1E+10	1	-1E+10	1	-1E+10	1	-1E+10	1	-1E+10	1	-1E+10	1
4902551	16	C	01/17/2021	08:57	-136.172	49.980	0	1413.10	0	2.4420	0	34.4810	0	27.528	0	1396.252	0	16.1	4	4.9	4	-1E+10	1	-1E+10	1	-1E+10	1	-1E+10	1	-1E+10	1	-1E+10	1
4902551	16	C	01/17/2021	08:57	-136.172	49.980	0	1437.80	0	2.4190	0	34.4860	0	27.534	0	1420.574	0	16.9	4	5.1	4	-1E+10	1	-1E+10	1	-1E+10	1	-1E+10	1	-1E+10	1	-1E+10	1
4902551	16	C	01/17/2021	08:57	-136.172	49.980	0	1463.20	0	2.3910	0	34.4910	0	27.540	0	1445.583	0	17.9	4	5.5	4	-1E+10	1	-1E+10	1	-1E+10	1	-1E+10	1	-1E+10	1	-1E+10	1
4902551	16	C	01/17/2021	08:57	-136.172	49.980	0	1488.00	0	2.3680	0	34.4960	0	27.546	0	1469.998	0	18.8	4	5.7	4	-1E+10	1	-1E+10	1	-1E+10	1	-1E+10	1	-1E+10	1	-1E+10	1
4902551	16	C	01/17/2021	08:57	-136.172	49.980	0	1512.90	0	2.3410	0	34.5010	0	27.553	0	1494.509	0	20.1	4	6.1	4	-1E+10	1	-1E+10	1	-1E+10	1	-1E+10	1	-1E+10	1	-1E+10	1
4902551	16	C	01/17/2021	08:57	-136.172	49.980	0	1538.10	0	2.3070	0	34.5080	0	27.561	0	1519.312	0	21.5	4	6.5	4	-1E+10	1	-1E+10	1	-1E+10	1	-1E+10	1	-1E+10	1	-1E+10	1
4902551	16	C	01/17/2021	08:57	-136.172	49.980	0	1563.10	0	2.2830	0	34.5130	0	27.567	0	1543.915	0	22.8	4	6.9	4	-1E+10	1	-1E+10	1	-1E+10	1	-1E+10	1	-1E+10	1	-1E+10	1
4902551	16	C	01/17/2021	08:57	-136.172	49.980	0	1587.80	0	2.2600	0	34.5170	0	27.572	0	1568.221	0	24.0	4	7.3	4	-1E+10	1	-1E+10	1	-1E+10	1	-1E+10	1	-1E+10	1	-1E+10	1
4902551	16	C	01/17/2021	08:57	-136.172	49.980	0	1613.70	0	2.2400	0	34.5210	0	27.577	0	1593.704	0	25.4	4	7.7	4	-1E+10	1	-1E+10	1	-1E+10	1	-1E+10	1	-1E+10	1	-1E+10	1
4902551	16	C	01/17/2021	08:57	-136.172	49.980	0	1637.90	0	2.2120	0	34.5260	0	27.584	0	1617.512	0	27.0	4	8.2	4	-1E+10	1	-1E+10	1	-1E+10	1	-1E+10	1	-1E+10	1	-1E+10	1
4902551	16	C	01/17/2021	08:57	-136.172	49.980	0	1662.80	0	2.1890	0	34.5300	0	27.589	0	1642.005	0	28.3	4	8.6	4	-1E+10	1	-1E+10	1	-1E+10	1	-1E+10	1	-1E+10	1	-1E+10	1
4902551	16	C	01/17/2021	08:57	-136.172	49.980	0	1687.70	0	2.1720	0	34.5340	0	27.594	0	1666.496	0	29.4	4	8.9	4	-1E+10	1	-1E+10	1	-1E+10	1	-1E+10	1	-1E+10	1	-1E+10	1
4902551	16	C	01/17/2021	08:57	-136.172	49.980	0	1713.00	0	2.1550	0	34.5370	0	27.598	0	1691.377	0	30.6	4	9.3	4	-1E+10	1	-1E+10	1	-1E+10	1	-1E+10	1	-1E+10	1	-1E+10	1
4902551	16	C	01/17/2021	08:57	-136.172	49.980	0	1737.90	0	2.1390	0	34.5410	0	27.602	0	1715.862	0	31.8	4	9.6	4	-1E+10	1	-1E+10	1	-1E+10	1	-1E+10	1	-1E+10	1	-1E+10	1
4902551	16	C	01/17/2021	08:57	-136.172	49.980	0	1762.60	0	2.1230	0	34.5440	0	27.606	0	1740.148	0	33.0	4	10.0	4	-1E+10	1	-1E+10	1	-1E+10	1	-1E+10	1	-1E+10	1	-1E+10	1
4902551	16	C	01/17/2021	08:57	-136.172	49.980	0	1787.70	0	2.1060	0	34.5480	0	27.611	0	1764.824	0	34.4	4	10.4	4	-1E+10	1	-1E+10	1	-1E+10	1	-1E+10	1	-1E+10	1	-1E+10	1
4902551	16	C	01/17/2021	08:57	-136.172	49.980	0	1812.60	0	2.0860	0	34.5520	0	27.616	0	1789.301	0	35.9	4	10.8	4	-1E+10	1	-1E+10	1	-1E+10	1	-1E+10	1	-1E+10	1	-1E+10	1
4902551	16	C	01/17/2021	08:57	-136.172	49.980	0	1837.90	0	2.0720	0	34.5550	0	27.619	0	1814.167	0	36.8	4	11.1	4	-1E+10	1	-1E+10	1	-1E+10	1	-1E+10	1	-1E+10	1	-1E+10	1
4902551	16	C	01/17/2021	08:57	-136.172	49.980	0	1863.10	0	2.0620	0	34.5570	0	27.622	0	1838.933	0	38.0	4	11.5	4	-1E+10	1	-1E+10	1	-1E+10	1	-1E+10	1	-1E+10	1	-1E+10	1
4902551	16	C	01/17/2021	08:57	-136.172	49.980	0	1887.70	0	2.0430	0	34.5610	0	27.627	0	1863.106	0	39.6	4	11.9	4	-1E+10	1	-1E+10	1	-1E+10	1	-1E+10	1	-1E+10	1	-1E+10	1
4902551	16	C	01/17/2021	08:57	-136.172	49.980	0	1912.50	0	2.0260	0	34.5640	0	27.630	0	1887.473	0	41.1	4	12.4	4	-1E+10	1	-1E+10	1	-1E+10	1	-1E+10	1	-1E+10	1	-1E+10	1
4902551	16	C	01/17/2021	08:57	-136.172	49.980	0	1938.10	0	2.0040	0	34.5690	0	27.636	0	1912.623	0	42.8	4	12.9	4	-1E+10	1	-1E+10	1	-1E+10	1	-1E+10	1	-1E+10	1	-1E+10	1
4902551	16	C	01/17/2021	08:57	-136.172	49.980	0	1962.70	0	1.9880	0	34.5720	0	27.640	0	1936.788	0	44.1	4	13.3	4	-1E+10	1	-1E+10	1	-1E+10	1	-1E+10	1	-1E+10	1	-1E+10	1
4902551	16	C	01/17/2021	08:57	-136.172	49.980	0	1987.80	0	1.9750	0	34.5750	0	27.644	0	1961.441	0	45.4	4	13.7	4	-1E+10	1	-1E+10	1	-1E+10	1	-1E+10	1	-1E+10	1	-1E+10	1
4902551	16	C	01/17/2021	08:57	-136.172	49.980	0	2012.60	0	1.9530	0	34.5790	0	27.649	0	1985.797	0	47.0	4	14.2	4	-1E+10	1	-1E+10	1	-1E+10	1	-1E+10	1	-1E+10	1	-1E+10	1
4902551	16	C	01/17/2021	08:57	-136.172	49.980	0																										
4902551	17	C	01/27/2021	08:53	-136.045	49.916	0	0.40	0	7.5570	0	32.2920	0	25.211	0	0.397	0	271.9	4	92.0	4	-1E+10	1	-1E+10	1	-1E+10	1	-1E+10	1	-1E+10	1	-1E+10	1
4902551	17	C	01/27/2021	08:53	-136.045	49.916	0	1.20	0	7.5580	0	32.2920	0	25.211	0	1.190	0	271.8	4	92.0	4	-1E+10	1	-1E+10	1	-1E+10	1	-1E+10	1	-1E+10	1	-1E+10	1
4902551	17	C	01/27/2021	08:53	-136.045	49.916	0	1.90	0	7.5590	0	32.2930	0	25.211	0	1.884	0	271.7	4	91.9	4	-1E+10	1	-1E+10	1	-1E+10	1	-1E+10	1	-1E+10	1	-1E+10	1
4902551	17	C	01/27/2021	08:53	-136.045	49.916	0	2.80	0	7.5590	0	32.2940	0	25.212	0	2.776	0	271.7	4	91.9	4	-1E+10	1	-1E+10	1	-1E+10	1	-1E+10	1	-1E+10	1	-1E+10	1
4902551	17	C	01/27/2021	08:53	-136.045	49.916	0	3.80	0	7.5600	0	32.2940	0	25.212	0	3.767	0	271.5	4	91.9	4	-1E+10	1	-1E+10	1	-1E+10	1	-1E+10	1	-1E+10	1	-1E+10	1
4902551	17	C	01/27/2021	08:53	-136.045	49.916	0	4.80	0	7.5600	0	32.2950	0	25.213	0	4.759	0	271.6	4	91.9	4	-1E+10	1	-1E+10	1	-1E+10	1	-1E+10	1	-1E+10	1	-1E+10	1
4902551	17	C	01/27/2021	08:53	-136.045	49.916	0	5.80	0	7.5590	0	32.2950	0	25.213	0	5.750	0	271.4	4	91.8	4	-1E+10	1	-1E+10	1	-1E+10	1	-1E+10	1	-1E+10	1	-1E+10	1
4902551	17	C	01/27/2021	08:53	-136.045	49.916	0	6.60	0	7.5560	0	32.2950	0	25.213	0	6.543	0	271.5	4	91.9	4	-1E+10	1	-1E+10	1	-1E+10	1	-1E+10	1	-1E+10	1	-1E+10	1
4902551	17	C	01/27/2021	08:53	-136.045	49.916	0	7.50	0	7.5590	0	32.2950	0	25.213	0	7.436	0	271.4	4	91.8	4	-1E+10	1	-1E+10	1	-1E+10	1	-1E+10	1	-1E+10	1	-1E+10	1
4902551	17	C	01/27/2021	08:53	-136.045	49.916	0	8.90	0	7.5590	0	32.2950	0	25.213	0	8.824	0	271.5	4	91.9	4	-1E+10	1	-1E+10	1	-1E+10	1	-1E+10	1	-1E+10	1	-1E+10	1
4902551	17	C	01/27/2021	08:53	-136.045	49.916	0	10.20	0	7.5580	0	32.2950	0	25.213	0	10.112	0	271.5	4	91.9	4	-1E+10	1	-1E+10	1	-1E+10	1	-1E+10	1	-1E+10	1	-1E+10	1
4902551	17	C	01/27/2021	08:53	-136.045	49.916	0	15.50	0	7.5570	0	32.2950	0	25.213	0	15.367	0	271.4	4	91.8	4	-1E+10	1	-1E+10	1	-1E+10	1	-1E+10	1	-1E+10	1	-1E+10	1
4902551	17	C	01/27/2021	08:53	-136.045	49.916	0	25.20	0	7.5640	0	32.2950	0	25.212	0	24.983	0	271.1	4	91.7	4	-1E+10	1	-1E+10	1	-1E+10	1	-1E+10	1	-1E+10	1	-1E+10	1
4902551	17	C	01/27/2021	08:53	-136.045	49.916	0	35.20	0	7.5680	0	32.2950	0	25.212	0	34.896	0	271.0	4	91.7	4	-1E+10	1	-1E+10	1	-1E+10	1	-1E+10	1	-1E+10	1	-1E+10	1
4902551	17	C	01/27/2021	08:53	-136.045	49.916	0	45.70	0	7.5670	0	32.2950	0	25.212	0	45.304	0	270.8	4	91.6	4	-1E+10	1	-1E+10	1	-1E+10	1	-1E+10	1	-1E+10	1	-1E+10	1
4902551	17	C	01/27/2021	08:53	-136.045	49.916	0	55.30	0	7.5690	0	32.2960	0	25.213	0	54.819	0	270.3	4	91.5	4	-1E+10	1	-1E+10	1	-1E+10	1	-1E+10	1	-1E+10	1	-1E+10	1
4902551	17	C	01/27/2021	08:53	-136.045	49.916	0	65.50	0	7.5730	0	32.2970	0	25.213	0	64.929	0	269.7	4	91.3	4	-1E+10	1	-1E+10	1	-1E+10	1	-1E+10	1	-1E+10	1	-1E+10	1
4902551	17	C	01/27/2021	08:53	-136.045	49.916	0	75.50	0	7.5710	0	32.2960	0	25.213	0	74.840	0	269.0	4	91.0	4	-1E+10	1	-1E+10	1	-1E+10	1	-1E+10	1	-1E+10	1	-1E+10	1
4902551	17	C	01/27/2021	08:53	-136.045	49.916	0	85.50	0	7.5710	0	32.2960	0	25.213	0	84.750	0	267.2	4	90.4	4	-1E+10	1	-1E+10	1	-1E+10	1	-1E+10	1	-1E+10	1	-1E+10	1
4902551	17	C	01/27/2021	08:53	-136.045	49.916	0	95.50	0	7.5700	0	32.3020	0	25.218	0	94.660	0	260.4	4	88.1	4	-1E+10	1	-1E+10	1	-1E+10	1	-1E+10	1	-1E+10	1	-1E+10	1
4902551	17	C	01/27/2021	08:53	-136.045	49.916	0	105.50	0	7.3290	0	32.5270	0	25.428	0	104.570	0	231.5	4	78.0	4	-1E+10	1	-1E+10	1	-1E+10	1	-1E+10	1	-1E+10	1	-1E+10	1
4902551	17	C	01/27/2021	08:53	-136.045	49.916	0	115.70	0	6.5540	0	33.0180	0	25.918	0	114.677	0	193.9	4	64.5	4	-1E+10	1	-1E+10	1	-1E+10	1	-1E+10	1	-1E+10	1	-1E+10	1
4902551	17	C	01/27/2021	08:53	-136.045	49.916	0	125.30	0	6.3890	0	33.2260	0	26.104	0	124.189	0	176.0	4	58.4	4	-1E+10	1	-1E+10	1	-1E+10	1	-1E+10	1	-1E+10	1	-1E+10	1
4902551	17	C	01/27/2021	08:53	-136.045	49.916	0	135.30	0	6.3710	0	33.3730	0	26.222	0	134.097	0	157.7	4	52.3	4	-1E+10	1	-1E+10	1	-1E+10	1	-1E+10	1	-1E+10	1	-1E+10	1
4902551	17	C	01/27/2021	08:53	-136.045	49.916	0	145.60	0	6.2160	0	33.5540	0	26.385	0	144.302	0	144.6	4	47.9	4	-1E+10	1	-1E+10	1	-1E+10	1	-1E+10	1	-1E+10	1	-1E+10	1
4902551	17	C	01/27/2021	08:53	-136.045	49.916	0	155.50	0	6.0910	0	33.6420	0	26.470	0	154.110	0	135.3	4	44.7	4	-1E+10	1	-1E+10	1	-1E+10	1	-1E+10	1	-1E+10	1	-1E+10	1
4902551	17	C	01/27/2021	08:53	-136.045	49.916	0	165.50	0	5.9460	0	33.7080	0	26.540	0	164.017	0	127.5	4	42.0	4	-1E+10	1	-1E+10	1	-1E+10	1	-1E+10	1	-1E+10	1	-1E+10	1
4902551	17	C	01/27/2021	08:53	-136.045	49.916	0	175.40	0	5.8020	0	33.7420	0	26.585	0	173.824	0	122.3	4	40.2	4	-1E+10	1	-1E+10	1	-1E+10	1	-1E+10	1	-1E+10	1	-1E+10	1
4902551	17	C	01/27/2021	08:53	-136.045	49.916	0	185.30	0	5.6670	0	33.7730	0	26.626	0	183.630	0	116.2	4	38.0	4	-1E+10	1	-1E+10	1	-1E+10	1	-1E+10	1	-1E+10	1	-1E+10	1
4902551	17	C	01/27/2021	08:53	-136.045	49.916	0	195.40	0	5.5260	0	33.7990	0	26.664	0	193.635	0	113.1	4	36.9	4	-1E+10	1	-1E+10	1	-1E+10	1	-1E+10	1	-1E+10	1	-1E+10	1
4902551	17	C	01/27/2021	08:53	-136.045	49.916	0	212.60	0	5.3050	0	33.8070	0	26.696	0	210.671	0	108.0	4	35.1	4	-1E+10	1	-1E+10	1	-1E+10	1	-1E+10	1	-1E+10	1	-1E+10	1
4902551	17	C	01/27/2021	08:53	-136.045	49.916	0	238.10	0	5.0880	0	33.8200	0	26.732	0	235.925	0	99.3	4	32.1	4	-1E+10	1	-1E+10	1	-1E+10	1	-1E+10	1	-1E+10	1	-1E+10	1
4902551	17	C	01/27/2021	08:53	-136.045	49.916	0	262.90	0	4.9040	0	33.8450	0	26.773	0	260.482	0	85.6	4	27.6	4	-1E+10	1	-1E+10	1	-1E+10	1	-1E+10	1	-1E+10	1	-1E+10	1
4902551	17	C	01/27/2021	08:53	-136.045	49.916	0	287.70	0	4.7560	0	33.8730	0	26.812	0	285.037	0	74.5	4	23.9	4	-1E+10	1	-1E+10	1	-1E+10	1	-1E+10	1	-1E+10	1	-1E+10	1
4902551	17	C	01/27/2021	08:53	-136.045	49.916	0	312.30	0	4.6550	0	33.8970	0	26.842	0	309.391	0	65.4	4	20.9	4	-1E+10	1	-1E+10	1	-1E+10	1	-1E+10	1	-1E+10	1	-1E+10	1
4902551	17	C	01/27/2021	08:53	-136.045	49.916	0	337.50	0	4.5850	0	33.9210	0	26.869	0	334.336	0	58.5	4	18.7	4	-1E+10	1	-1E+10	1	-1E+10	1	-1E+10	1	-1E+10	1	-1E+10	1
4902551	17	C	01/27/2021	08:53	-136.045	49.916	0	362.70	0	4.5240	0	33.9400	0	26.891	0	359.278	0	53.7	4	17.1	4	-1E+10	1	-1E+10	1	-1E+10	1	-1E+10	1	-1E+10	1	-1E+10	1
4902551	17	C	01/27/2021	08:53	-136.045	49.916	0	388.10	0	4.4770	0	33.9620	0	26.914	0	384.415	0	48.7	4	15.5	4	-1E+10	1	-1E+10	1	-1E+10	1	-1E+10	1	-1E+10	1	-1E+10	1
4902551	17	C	01/27/2021	08:53	-136.045	49.916	0	413.00	0	4.3990	0	33.9900	0	26.944	0	409.054	0	43.0	4	13.7	4	-1E+10	1	-1E+10	1	-1E+10	1	-1E+10	1	-1E+10	1	-1E+10	1
4902551	17	C	01/27/2021	08:53	-136.045	49.916	0	437.70	0	4.3150	0	34.0210	0	26.978	0	433.492	0	38.5	4	12.2	4	-1E+10	1	-1E+10	1	-1E+10	1	-1E+10	1	-1E+10	1	-1E+10	1
4902551	17	C	01/27/2021	08:53	-136.045	49.916	0	462.70	0	4.2100	0	34.0470	0	27.010	0	458.224	0	34.2	4	10.8	4	-1E+10	1	-1E+10	1	-1E+10	1	-1E+10	1	-1E+10	1	-1E+10	1
4902551	17	C	01/27/2021	08:53	-136.045	49.916	0	488.00	0	4.1440	0	34.0720	0	27.037	0	483.250	0	30.7	4	9.7	4	-1E+10	1	-1E+10	1	-1E+10	1	-1E+10	1	-1E+10	1	-1E+10	1
4902551	17	C	01/27/2021	08:53	-136.045	49.916	0	513.00	0	4.0930	0	34.0880	0	27.055	0	507.976	0	28.6	4	9.0	4	-1E+10	1	-1E+10	1	-1E+10	1	-1E+10	1	-1E+10	1	-1E+10	1
4902551	17	C	01/27/2021	08:53	-136.045	49.916	0	538.10	0	4.0380	0	34.1110	0	27.079	0	532.798	0	24.8	4	7.8	4	-1E+10	1	-1E+10	1	-1E+10	1	-1E+10	1	-1E+10	1	-1E+10	1
4902551	17	C	01/27/2021	08:53	-136.045	49.916	0	563.90	0	3.9860	0	34.1300	0	27.100	0	558.310	0	22.2	4	7.0	4	-1E+10	1	-1E+10	1	-1E+10	1	-1E+10	1	-1E+10	1	-1E+10	1
4902551	17	C	01/27/2021	08:53	-136.045	49.916	0	588.00	0	3.9410	0	34.1480	0	27.119	0	582.137	0	20.1	4	6.3	4	-1E+10	1	-1E+10	1	-1E+10	1	-1E+10	1	-1E+10	1	-1E+10	1
4902551	17	C	01/27/2021	08:53	-136.045	49.916	0	612.80	0	3.8800	0	34.1680	0	27.141	0	606.653	0	18.5	4	5.8	4	-1E+10	1	-1E+10	1	-1E+10	1	-1E+10	1	-1E+10	1	-1E+10	1
4902551	17	C	01/27/2021	08:53	-136.045	49.916	0	637.60	0	3.8270	0	34.1850	0	27.160	0	631.167	0	17.2	4	5.4	4	-1E+10	1	-1E+10	1	-1E+10	1	-1E+10	1	-1E+10	1	-1E+10	1
4902551	17	C	01/27/2021	08:53	-136.045	49.916	0	662.60	0	3.7630	0	34.2030	0	27.181	0	655.876	0	16.1	4	5.1	4	-1E+10	1	-1E+10	1	-1E+10	1	-1E+10	1	-1E+10	1	-1E+10	1
4902551	17	C	01/27/2021	08:53	-136.045	49.916	0	687.70	0	3.6940	0	34.2210	0	27.202	0	680.680	0	15.1	4	4.7	4	-1E+10	1	-1E+10	1	-1E+10	1	-1E+10	1	-1E+10	1	-1E+10	1
4902551	17	C	01/27/2021	08:53	-136.045	49.916	0	712.60	0	3.6300	0	34.2370	0	27.221	0	705.284	0	14.4	4	4.5	4	-1E+10	1	-1E+10	1	-1E+10	1	-1E+10	1	-1E+10	1	-1E+10	1
4902551	17	C	01/27/2021	08:53	-136.045	49.916	0	737.90	0	3.5620	0	34.2520	0	27.240	0	730.280	0	13.7	4	4.3	4	-1E+10	1	-1E+10	1	-1E+10	1	-1E+10	1	-1E+10	1	-1E+10	1
4902551	17	C	01/27/2021	08:53	-136.045	49.916	0	763.80	0	3.5110	0	34.2650	0	27.256	0	755.865	0	13.2	4	4.1	4	-1E+10	1	-1E+10	1	-1E+10	1	-1E+10	1	-1E+10	1	-1E+10	1
4902551	17	C	01/27/2021	08:53	-136.045	49.916	0	787.60	0	3.4610	0	34.2770	0	27.270	0	779.374	0	12.9	4	4.0	4	-1E+10	1	-1E+10	1	-1E+10	1	-1E+10	1	-1E+10	1	-1E+10	1
4902551	17	C	01/27/2021	08:53	-136.045	49.916	0	812.40	0	3.4160	0	34.2860	0	27.282	0	803.867	0	12.6	4	3.9	4	-1E+10	1	-1E+10	1	-1E+10	1	-1E+10	1	-1E+10	1	-1E+10	1
4902551	17	C	01/27/2021	08:53	-136.045	49.916	0	837.50	0	3.3840	0	34.2930	0	27.291	0	828.653	0	12.4	4	3.9	4	-1E+10	1	-1E+10	1	-1E+10	1	-1E+10	1	-1E+10	1	-1E+10	1
4902551	17	C	01/27/2021	08:53	-136.045	49.916	0	862.90	0	3.3240	0	34.3040	0	27.305	0	853.733	0	12.1	4	3.8	4	-1E+10	1	-1E+10	1	-1E+10	1	-1E+10	1	-1E+10	1	-1E+10	1
4902551	17	C	01/27/2021	08:53	-136.045	49.916	0	888.10	0	3.2660	0	34.3170	0	27.321	0	878.613	0	11.8	4	3.7	4	-1E+10	1	-1E+10	1	-1E+10	1	-1E+10	1	-1E+10	1	-1E+10	1
4902551	17	C	01/27/2021	08:53	-136.045	49.916	0	913.00	0	3.2160	0	34.3270	0	27.334	0	903.193	0	11.7	4	3.6	4	-1E+10	1	-1E+10	1	-1E+10	1	-1E+10	1	-1E+10	1	-1E+10	1
4902551	17	C	01/27/2021	08:53	-136.045	49.916	0	937.90	0	3.1720	0	34.3360	0	27.345	0	927.770	0	11.5	4	3.6	4	-1E+10	1	-1E+10	1	-1E+10	1	-1E+10	1	-1E+10	1	-1E+10	1
4902551	17	C	01/27/2021	08:53	-136.045	49.916	0	962.80	0	3.1310	0	34.3450	0	27.356	0	952.345	0	11.4	4	3.5	4	-1E+10	1	-1E+10	1	-1E+10	1	-1E+10	1	-1E+10	1	-1E+10	1
4902551	17	C	01/27/2021	08:53	-136.045	49.916	0	987.70	0	3.0940	0	34.3530	0	27.366	0	976.916	0	11.3	4	3.5	4	-1E+10	1	-1E+10	1	-1E+10	1	-1E+10	1	-1E+10	1	-1E+10	1
4902551	17	C	01/27/2021	08:53	-136.045	49.916	0	1014.00	0	3.0460	0	34.3620	0	27.378	0	1002.866	0	11.3	4	3.5	4	-1E+10	1	-1E+10	1	-1E+10	1	-1E+10	1	-1E+10	1	-1E+10	1
4902551	17	C	01/27/2021	08:53	-136.045	49.916	0	1037.90	0	3.0010	0	34.3700	0	27.389	0	1026.446	0	11.3	4	3.5	4	-1E+10	1	-1E+10	1	-1E+10	1	-1E+10	1	-1E+10	1	-1E+10	1
4902551	17	C	01/27/2021	08:53	-136.045	49.916	0	1062.60	0	2.9700	0	34.3770	0	27.397	0	1050.811	0	11.3	4	3.5	4	-1E+10	1	-1E+10	1	-1E+10	1	-1E+10	1	-1E+10	1	-1E+10	1
4902551	17	C	01/27/2021	08:53	-136.045	49.916	0	1087.80	0	2.9210	0	34.3870	0	27.410	0	1075.667	0	11.2	4	3.5	4	-1E+10	1	-1E+10	1	-1E+10	1	-1E+10	1	-1E+10	1	-1E+10	1
4902551	17	C	01/27/2021	08:53	-136.045	49.916	0	1113.00	0	2.8700	0	34.3970	0	27.422	0	1100.520	0	11.3	4	3.5	4	-1E+10	1	-1E+10	1	-1E+10	1	-1E+10	1	-1E+10	1	-1E+10	1
4902551	17	C	01/27/2021	08:53	-136.045	49.916	0	1138.40	0	2.8290	0	34.4050	0	27.432	0	1125.567	0	11.4	4	3.5	4	-1E+10	1	-1E+10	1	-1E+10	1	-1E+10	1	-1E+10	1	-1E+10	1
4902551	17	C	01/27/2021	08:53	-136.045	49.916	0	1162.60	0	2.7930	0	34.4120	0	27.441	0	1149.428	0	11.5	4	3.5	4	-1E+10	1	-1E+10	1	-1E+10	1	-1E+10	1	-1E+10	1	-1E+10	1
4902551	17	C	01/27/2021	08:53	-136.045	49.916	0	1187.90	0	2.7670	0	34.4170	0	27.448	0	1174.371	0	11.5	4	3.5	4	-1E+10	1	-1E+10	1	-1E+10	1	-1E+10	1	-1E+10	1	-1E+10	1
4902551	17	C	01/27/2021	08:53	-136.045	49.916	0	1213.10	0	2.7410	0	34.4230	0	27.455	0	1199.212	0	11.7	4	3.6	4	-1E+10	1	-1E+10	1	-1E+10	1	-1E+10	1	-1E+10	1	-1E+10	1
4902551	17	C	01/27/2021	08:53	-136.045	49.916	0	1237.70	0	2.7090	0	34.4290	0	27.463	0	1223.459	0	11.9	4	3.6	4	-1E+10	1	-1E+10	1	-1E+10	1	-1E+10	1	-1E+10	1	-1E+10	1
4902551	17	C	01/27/2021	08:53	-136.045	49.916	0	1262.60	0	2.6660	0	34.4370	0	27.473	0	1247.998	0	12.2	4	3.7	4	-1E+10	1	-1E+10	1	-1E+10	1	-1E+10	1	-1E+10	1	-1E+10	1
4902551	17	C	01/27/2021	08:53	-136.045	49.916	0	1287.70	0	2.6340	0	34.4430	0	27.481	0	1272.732	0	12.6	4	3.8	4	-1E+10	1	-1E+10	1	-1E+10	1	-1E+10	1	-1E+10	1	-1E+10	1
4902551	17	C	01/27/2021	08:53	-136.045	49.916	0	1312.50	0	2.6040	0	34.4490	0	27.488	0	1297.168	0	12.9	4	4.0	4	-1E+10	1	-1E+10	1	-1E+10	1	-1E+10	1	-1E+10	1	-1E+10	1
4902551	17	C	01/27/2021	08:53	-136.045	49.916	0	1337.40	0	2.5840	0	34.4530	0	27.493	0	1321.699	0	13.4	4	4.1	4	-1E+10	1	-1E+10	1	-1E+10	1	-1E+10	1	-1E+10	1	-1E+10	1
4902551	17	C	01/27/2021	08:53	-136.045	49.916	0	1362.60	0	2.5530	0	34.4590	0	27.501	0	1346.523	0	14.0	4	4.3	4	-1E+10	1	-1E+10	1	-1E+10	1	-1E+10	1	-1E+10	1	-1E+10	1
4902551	17	C	01/27/2021	08:53	-136.045	49.916	0	1387.90	0	2.5120	0	34.4660	0	27.510	0	1371.442	0	14.9	4	4.6	4	-1E+10	1	-1E+10	1	-1E+10	1	-1E+10	1	-1E+10	1	-1E+10	1
4902551	17	C	01/27/2021	08:53	-136.045	49.916	0	1412.90	0	2.4710	0	34.4740	0	27.520	0	1396.063	0	15.8	4	4.8	4	-1E+10	1	-1E+10	1	-1E+10	1	-1E+10	1	-1E+10	1	-1E+10	1
4902551	17	C	01/27/2021	08:53	-136.045	49.916	0	1437.70	0	2.4380	0	34.4810	0	27.528	0	1420.484	0	16.6	4	5.1	4	-1E+10	1	-1E+10	1	-1E+10	1	-1E+10	1	-1E+10	1	-1E+10	1
4902551	17	C	01/27/2021	08:53	-136.045	49.916	0	1462.90	0	2.4070	0	34.4870	0	27.536	0	1445.296	0	17.6	4	5.3	4	-1E+10	1	-1E+10	1	-1E+10	1	-1E+10	1	-1E+10	1	-1E+10	1
4902551	17	C	01/27/2021	08:53	-136.045	49.916	0	1488.00	0	2.3760	0	34.4930	0	27.543	0	1470.006	0	18.7	4	5.7	4	-1E+10	1	-1E+10	1	-1E+10	1	-1E+10	1	-1E+10	1	-1E+10	1
4902551	17	C	01/27/2021	08:53	-136.045	49.916	0	1512.80	0	2.3500	0	34.4980	0	27.550	0	1494.419	0	19.8	4	6.0	4	-1E+10	1	-1E+10	1	-1E+10	1	-1E+10	1	-1E+10	1	-1E+10	1
4902551	17	C	01/27/2021	08:53	-136.045	49.916	0	1537.80	0	2.3210	0	34.5040	0	27.557	0	1519.025	0	21.0	4	6.4	4	-1E+10	1	-1E+10	1	-1E+10	1	-1E+10	1	-1E+10	1	-1E+10	1
4902551	17	C	01/27/2021	08:53	-136.045	49.916	0	1562.60	0	2.2970	0	34.5080	0	27.562	0	1543.432	0	22.2	4	6.7	4	-1E+10	1	-1E+10	1	-1E+10	1	-1E+10	1	-1E+10	1	-1E+10	1
4902551	17	C	01/27/2021	08:53	-136.045	49.916	0	1587.70	0	2.2740	0	34.5130	0	27.568	0	1568.131	0	23.5	4	7.1	4	-1E+10	1	-1E+10	1	-1E+10	1	-1E+10	1	-1E+10	1	-1E+10	1
4902551	17	C	01/27/2021	08:53	-136.045	49.916	0	1612.70	0	2.2470	0	34.5190	0	27.575	0	1592.729	0	24.9	4	7.5	4	-1E+10	1	-1E+10	1	-1E+10	1	-1E+10	1	-1E+10	1	-1E+10	1
4902551	17	C	01/27/2021	08:53	-136.045	49.916	0	1637.80	0	2.2240	0	34.5230	0	27.580	0	1617.423	0	26.2	4	7.9	4	-1E+10	1	-1E+10	1	-1E+10	1	-1E+10	1	-1E+10	1	-1E+10	1
4902551	17	C	01/27/2021	08:53	-136.045	49.916	0	1663.20	0	2.2060	0	34.5270	0	27.585	0	1642.408	0	27.3	4	8.3	4	-1E+10	1	-1E+10	1	-1E+10	1	-1E+10	1	-1E+10	1	-1E+10	1
4902551	17	C	01/27/2021	08:53	-136.045	49.916	0	1688.10	0	2.1900	0	34.5300	0	27.589	0	1666.899	0	28.5	4	8.6	4	-1E+10	1	-1E+10	1	-1E+10	1	-1E+10	1	-1E+10	1	-1E+10	1
4902551	17	C	01/27/2021	08:53	-136.045	49.916	0	1712.70	0	2.1660	0	34.5350	0	27.595	0	1691.092	0	30.1	4	9.1	4	-1E+10	1	-1E+10	1	-1E+10	1	-1E+10	1	-1E+10	1	-1E+10	1
4902551	17	C	01/27/2021	08:53	-136.045	49.916	0	1737.50	0	2.1410	0	34.5400	0	27.601	0	1715.479	0	31.7	4	9.6	4	-1E+10	1	-1E+10	1	-1E+10	1	-1E+10	1	-1E+10	1	-1E+10	1
4902551	17	C	01/27/2021	08:53	-136.045	49.916	0	1762.70	0	2.1210	0	34.5440	0	27.606	0	1740.256	0	33.0	4	10.0	4	-1E+10	1	-1E+10	1	-1E+10	1	-1E+10	1	-1E+10	1	-1E+10	1
4902551	17	C	01/27/2021	08:53	-136.045	49.916	0	1787.70	0	2.1050	0	34.5480	0	27.611	0	1764.834	0	34.4	4	10.4	4	-1E+10	1	-1E+10	1	-1E+10	1	-1E+10	1	-1E+10	1	-1E+10	1
4902551	17	C	01/27/2021	08:53	-136.045	49.916	0	1812.80	0	2.0830	0	34.5520	0	27.616	0	1789.508	0	36.1	4	10.9	4	-1E+10	1	-1E+10	1	-1E+10	1	-1E+10	1	-1E+10	1	-1E+10	1
4902551	17	C	01/27/2021	08:53	-136.045	49.916	0	1838.60	0	2.0630	0	34.5560	0	27.621	0	1814.866	0	37.6	4	11.4	4	-1E+10	1	-1E+10	1	-1E+10	1	-1E+10	1	-1E+10	1	-1E+10	1
4902551	17	C	01/27/2021	08:53	-136.045	49.916	0	1862.70	0	2.0420	0	34.5600	0	27.626	0	1838.551	0	39.5	4	11.9	4	-1E+10	1	-1E+10	1	-1E+10	1	-1E+10	1	-1E+10	1	-1E+10	1
4902551	17	C	01/27/2021	08:53	-136.045	49.916	0	1887.80	0	2.0170	0	34.5650	0	27.632	0	1863.215	0	41.3	4	12.5	4	-1E+10	1	-1E+10	1	-1E+10	1	-1E+10	1	-1E+10	1	-1E+10	1
4902551	17	C	01/27/2021	08:53	-136.045	49.916	0	1912.90	0	2.0010	0	34.5690	0	27.636	0	1887.877	0	42.6	4	12.8	4	-1E+10	1	-1E+10	1	-1E+10	1	-1E+10	1	-1E+10	1	-1E+10	1
4902551	17	C	01/27/2021	08:53	-136.045	49.916	0	1937.80	0	1.9850	0	34.5720	0	27.640	0	1912.340	0	44.1	4	13.3	4	-1E+10	1	-1E+10	1	-1E+10	1	-1E+10	1	-1E+10	1	-1E+10	1
4902551	17	C	01/27/2021	08:53	-136.045	49.916	0	1964.30	0	1.9640	0	34.5770	0	27.646	0	1938.371	0	45.5	4	13.7	4	-1E+10	1	-1E+10	1	-1E+10	1	-1E+10	1	-1E+10	1	-1E+10	1
4902551	17	C	01/27/2021	08:53	-136.045	49.916	0																										
4902551	18	C	02/06/2021	09:01	-135.886	49.911	0	0.40	0	7.6370	0	32.3070	0	25.211	0	0.397	0	277.5	4	94.1	4	-1E+10	1	-1E+10	1	-1E+10	1	-1E+10	1	-1E+10	1	-1E+10	1
4902551	18	C	02/06/2021	09:01	-135.886	49.911	0	0.80	0	7.6360	0	32.3070	0	25.211	0	0.793	0	277.3	4	94.0	4	-1E+10	1	-1E+10	1	-1E+10	1	-1E+10	1	-1E+10	1	-1E+10	1
4902551	18	C	02/06/2021	09:01	-135.886	49.911	0	2.10	0	7.6370	0	32.3070	0	25.211	0	2.082	0	277.3	4	94.0	4	-1E+10	1	-1E+10	1	-1E+10	1	-1E+10	1	-1E+10	1	-1E+10	1
4902551	18	C	02/06/2021	09:01	-135.886	49.911	0	3.10	0	7.6370	0	32.3070	0	25.211	0	3.073	0	277.3	4	94.0	4	-1E+10	1	-1E+10	1	-1E+10	1	-1E+10	1	-1E+10	1	-1E+10	1
4902551	18	C	02/06/2021	09:01	-135.886	49.911	0	3.70	0	7.6380	0	32.3070	0	25.211	0	3.668	0	277.3	4	94.0	4	-1E+10	1	-1E+10	1	-1E+10	1	-1E+10	1	-1E+10	1	-1E+10	1
4902551	18	C	02/06/2021	09:01	-135.886	49.911	0	4.90	0	7.6370	0	32.3070	0	25.211	0	4.858	0	277.2	4	94.0	4	-1E+10	1	-1E+10	1	-1E+10	1	-1E+10	1	-1E+10	1	-1E+10	1
4902551	18	C	02/06/2021	09:01	-135.886	49.911	0	5.90	0	7.6370	0	32.3080	0	25.212	0	5.849	0	277.2	4	94.0	4	-1E+10	1	-1E+10	1	-1E+10	1	-1E+10	1	-1E+10	1	-1E+10	1
4902551	18	C	02/06/2021	09:01	-135.886	49.911	0	6.70	0	7.6370	0	32.3070	0	25.211	0	6.643	0	277.2	4	94.0	4	-1E+10	1	-1E+10	1	-1E+10	1	-1E+10	1	-1E+10	1	-1E+10	1
4902551	18	C	02/06/2021	09:01	-135.886	49.911	0	7.80	0	7.6390	0	32.3080	0	25.212	0	7.733	0	277.2	4	94.0	4	-1E+10	1	-1E+10	1	-1E+10	1	-1E+10	1	-1E+10	1	-1E+10	1
4902551	18	C	02/06/2021	09:01	-135.886	49.911	0	9.10	0	7.6390	0	32.3080	0	25.212	0	9.022	0	277.1	4	94.0	4	-1E+10	1	-1E+10	1	-1E+10	1	-1E+10	1	-1E+10	1	-1E+10	1
4902551	18	C	02/06/2021	09:01	-135.886	49.911	0	10.10	0	7.6390	0	32.3080	0	25.212	0	10.013	0	277.1	4	93.9	4	-1E+10	1	-1E+10	1	-1E+10	1	-1E+10	1	-1E+10	1	-1E+10	1
4902551	18	C	02/06/2021	09:01	-135.886	49.911	0	15.60	0	7.6390	0	32.3080	0	25.212	0	15.466	0	277.0	4	93.9	4	-1E+10	1	-1E+10	1	-1E+10	1	-1E+10	1	-1E+10	1	-1E+10	1
4902551	18	C	02/06/2021	09:01	-135.886	49.911	0	25.50	0	7.6390	0	32.3070	0	25.211	0	25.280	0	276.7	4	93.8	4	-1E+10	1	-1E+10	1	-1E+10	1	-1E+10	1	-1E+10	1	-1E+10	1
4902551	18	C	02/06/2021	09:01	-135.886	49.911	0	35.40	0	7.6400	0	32.3070	0	25.211	0	35.094	0	276.5	4	93.7	4	-1E+10	1	-1E+10	1	-1E+10	1	-1E+10	1	-1E+10	1	-1E+10	1
4902551	18	C	02/06/2021	09:01	-135.886	49.911	0	45.60	0	7.6400	0	32.3070	0	25.211	0	45.204	0	276.3	4	93.7	4	-1E+10	1	-1E+10	1	-1E+10	1	-1E+10	1	-1E+10	1	-1E+10	1
4902551	18	C	02/06/2021	09:01	-135.886	49.911	0	55.70	0	7.6410	0	32.3070	0	25.211	0	55.215	0	275.9	4	93.5	4	-1E+10	1	-1E+10	1	-1E+10	1	-1E+10	1	-1E+10	1	-1E+10	1
4902551	18	C	02/06/2021	09:01	-135.886	49.911	0	65.00	0	7.6410	0	32.3080	0	25.212	0	64.433	0	275.0	4	93.2	4	-1E+10	1	-1E+10	1	-1E+10	1	-1E+10	1	-1E+10	1	-1E+10	1
4902551	18	C	02/06/2021	09:01	-135.886	49.911	0	75.30	0	7.6360	0	32.3100	0	25.215	0	74.641	0	273.4	4	92.7	4	-1E+10	1	-1E+10	1	-1E+10	1	-1E+10	1	-1E+10	1	-1E+10	1
4902551	18	C	02/06/2021	09:01	-135.886	49.911	0	85.50	0	7.6340	0	32.3130	0	25.218	0	84.750	0	269.3	4	91.3	4	-1E+10	1	-1E+10	1	-1E+10	1	-1E+10	1	-1E+10	1	-1E+10	1
4902551	18	C	02/06/2021	09:01	-135.886	49.911	0	95.10	0	7.5420	0	32.3990	0	25.298	0	94.264	0	248.1	4	84.0	4	-1E+10	1	-1E+10	1	-1E+10	1	-1E+10	1	-1E+10	1	-1E+10	1
4902551	18	C	02/06/2021	09:01	-135.886	49.911	0	105.60	0	6.7830	0	32.9180	0	25.809	0	104.669	0	202.0	4	67.5	4	-1E+10	1	-1E+10	1	-1E+10	1	-1E+10	1	-1E+10	1	-1E+10	1
4902551	18	C	02/06/2021	09:01	-135.886	49.911	0	115.30	0	6.4230	0	33.3050	0	26.161	0	114.281	0	176.6	4	58.6	4	-1E+10	1	-1E+10	1	-1E+10	1	-1E+10	1	-1E+10	1	-1E+10	1
4902551	18	C	02/06/2021	09:01	-135.886	49.911	0	125.60	0	6.3420	0	33.4650	0	26.298	0	124.486	0	161.7	4	53.7	4	-1E+10	1	-1E+10	1	-1E+10	1	-1E+10	1	-1E+10	1	-1E+10	1
4902551	18	C	02/06/2021	09:01	-135.886	49.911	0	135.60	0	6.2230	0	33.5830	0	26.407	0	134.394	0	149.7	4	49.6	4	-1E+10	1	-1E+10	1	-1E+10	1	-1E+10	1	-1E+10	1	-1E+10	1
4902551	18	C	02/06/2021	09:01	-135.886	49.911	0	145.20	0	6.2100	0	33.6820	0	26.486	0	143.906	0	132.2	4	43.8	4	-1E+10	1	-1E+10	1	-1E+10	1	-1E+10	1	-1E+10	1	-1E+10	1
4902551	18	C	02/06/2021	09:01	-135.886	49.911	0	155.10	0	6.2820	0	33.7500	0	26.531	0	153.714	0	125.5	4	41.7	4	-1E+10	1	-1E+10	1	-1E+10	1	-1E+10	1	-1E+10	1	-1E+10	1
4902551	18	C	02/06/2021	09:01	-135.886	49.911	0	165.10	0	6.1800	0	33.7660	0	26.557	0	163.621	0	124.4	4	41.2	4	-1E+10	1	-1E+10	1	-1E+10	1	-1E+10	1	-1E+10	1	-1E+10	1
4902551	18	C	02/06/2021	09:01	-135.886	49.911	0	175.10	0	5.8470	0	33.7740	0	26.605	0	173.527	0	125.0	4	41.1	4	-1E+10	1	-1E+10	1	-1E+10	1	-1E+10	1	-1E+10	1	-1E+10	1
4902551	18	C	02/06/2021	09:01	-135.886	49.911	0	185.30	0	5.6250	0	33.7780	0	26.635	0	183.631	0	118.9	4	38.9	4	-1E+10	1	-1E+10	1	-1E+10	1	-1E+10	1	-1E+10	1	-1E+10	1
4902551	18	C	02/06/2021	09:01	-135.886	49.911	0	195.40	0	5.5400	0	33.8050	0	26.667	0	193.635	0	111.7	4	36.5	4	-1E+10	1	-1E+10	1	-1E+10	1	-1E+10	1	-1E+10	1	-1E+10	1
4902551	18	C	02/06/2021	09:01	-135.886	49.911	0	213.10	0	5.4520	0	33.8280	0	26.696	0	211.166	0	102.8	4	33.5	4	-1E+10	1	-1E+10	1	-1E+10	1	-1E+10	1	-1E+10	1	-1E+10	1
4902551	18	C	02/06/2021	09:01	-135.886	49.911	0	238.10	0	5.1390	0	33.8370	0	26.740	0	235.925	0	93.5	4	30.3	4	-1E+10	1	-1E+10	1	-1E+10	1	-1E+10	1	-1E+10	1	-1E+10	1
4902551	18	C	02/06/2021	09:01	-135.886	49.911	0	263.20	0	4.9240	0	33.8490	0	26.774	0	260.780	0	85.3	4	27.5	4	-1E+10	1	-1E+10	1	-1E+10	1	-1E+10	1	-1E+10	1	-1E+10	1
4902551	18	C	02/06/2021	09:01	-135.886	49.911	0	288.80	0	4.7640	0	33.8650	0	26.804	0	286.126	0	76.5	4	24.5	4	-1E+10	1	-1E+10	1	-1E+10	1	-1E+10	1	-1E+10	1	-1E+10	1
4902551	18	C	02/06/2021	09:01	-135.886	49.911	0	312.50	0	4.6260	0	33.8940	0	26.843	0	309.589	0	67.0	4	21.4	4	-1E+10	1	-1E+10	1	-1E+10	1	-1E+10	1	-1E+10	1	-1E+10	1
4902551	18	C	02/06/2021	09:01	-135.886	49.911	0	337.60	0	4.5410	0	33.9230	0	26.875	0	334.435	0	59.6	4	19.0	4	-1E+10	1	-1E+10	1	-1E+10	1	-1E+10	1	-1E+10	1	-1E+10	1
4902551	18	C	02/06/2021	09:01	-135.886	49.911	0	362.90	0	4.4730	0	33.9520	0	26.906	0	359.476	0	54.3	4	17.3	4	-1E+10	1	-1E+10	1	-1E+10	1	-1E+10	1	-1E+10	1	-1E+10	1
4902551	18	C	02/06/2021	09:01	-135.886	49.911	0	388.00	0	4.4040	0	33.9760	0	26.932	0	384.316	0	50.5	4	16.1	4	-1E+10	1	-1E+10	1	-1E+10	1	-1E+10	1	-1E+10	1	-1E+10	1
4902551	18	C	02/06/2021	09:01	-135.886	49.911	0	412.60	0	4.3350	0	34.0000	0	26.959	0	408.658	0	46.7	4	14.8	4	-1E+10	1	-1E+10	1	-1E+10	1	-1E+10	1	-1E+10	1	-1E+10	1
4902551	18	C	02/06/2021	09:01	-135.886	49.911	0	438.50	0	4.2640	0	34.0250	0	26.987	0	434.284	0	41.1	4	13.1	4	-1E+10	1	-1E+10	1	-1E+10	1	-1E+10	1	-1E+10	1	-1E+10	1
4902551	18	C	02/06/2021	09:01	-135.886	49.911	0	462.70	0	4.2060	0	34.0530	0	27.015	0	458.225	0	35.4	4	11.2	4	-1E+10	1	-1E+10	1	-1E+10	1	-1E+10	1	-1E+10	1	-1E+10	1
4902551	18	C	02/06/2021	09:01	-135.886	49.911	0	487.50	0	4.1500	0	34.0750	0	27.039	0	482.756	0	31.4	4	9.9	4	-1E+10	1	-1E+10	1	-1E+10	1	-1E+10	1	-1E+10	1	-1E+10	1
4902551	18	C	02/06/2021	09:01	-135.886	49.911	0	512.40	0	4.0820	0	34.0970	0	27.063	0	507.383	0	28.6	4	9.1	4	-1E+10	1	-1E+10	1	-1E+10	1	-1E+10	1	-1E+10	1	-1E+10	1
4902551	18	C	02/06/2021	09:01	-135.886	49.911	0	537.50	0	4.0220	0	34.1170	0	27.086	0	532.205	0	25.9	4	8.2	4	-1E+10	1	-1E+10	1	-1E+10	1	-1E+10	1	-1E+10	1	-1E+10	1
4902551	18	C	02/06/2021	09:01	-135.886	49.911	0	563.00	0	3.9530	0	34.1410	0	27.112	0	557.420	0	23.4	4	7.4	4	-1E+10	1	-1E+10	1	-1E+10	1	-1E+10	1	-1E+10	1	-1E+10	1
4902551	18	C	02/06/2021	09:01	-135.886	49.911	0	588.40	0	3.8970	0	34.1590	0	27.132	0	582.533	0	21.9	4	6.9	4	-1E+10	1	-1E+10	1	-1E+10	1	-1E+10	1	-1E+10	1	-1E+10	1
4902551	18	C	02/06/2021	09:01	-135.886	49.911	0	613.00	0	3.8400	0	34.1770	0	27.152	0	606.852	0	20.4	4	6.4	4	-1E+10	1	-1E+10	1	-1E+10	1	-1E+10	1	-1E+10	1	-1E+10	1
4902551	18	C	02/06/2021	09:01	-135.886	49.911	0	638.50	0	3.7920	0	34.1910	0	27.168	0	632.057	0	19.4	4	6.1	4	-1E+10	1	-1E+10	1	-1E+10	1	-1E+10	1	-1E+10	1	-1E+10	1
4902551	18	C	02/06/2021	09:01	-135.886	49.911	0	662.80	0	3.7280	0	34.2090	0	27.189	0	656.074	0	18.3	4	5.7	4	-1E+10	1	-1E+10	1	-1E+10	1	-1E+10	1	-1E+10	1	-1E+10	1
4902551	18	C	02/06/2021	09:01	-135.886	49.911	0	687.70	0	3.6760	0	34.2230	0	27.206	0	680.680	0	17.5	4	5.5	4	-1E+10	1	-1E+10	1	-1E+10	1	-1E+10	1	-1E+10	1	-1E+10	1
4902551	18	C	02/06/2021	09:01	-135.886	49.911	0	712.80	0	3.6290	0	34.2350	0	27.220	0	705.482	0	16.9	4	5.3	4	-1E+10	1	-1E+10	1	-1E+10	1	-1E+10	1	-1E+10	1	-1E+10	1
4902551	18	C	02/06/2021	09:01	-135.886	49.911	0	738.90	0	3.5830	0	34.2470	0	27.234	0	731.268	0	16.3	4	5.1	4	-1E+10	1	-1E+10	1	-1E+10	1	-1E+10	1	-1E+10	1	-1E+10	1
4902551	18	C	02/06/2021	09:01	-135.886	49.911	0	762.70	0	3.5510	0	34.2550	0	27.244	0	754.779	0	15.9	4	5.0	4	-1E+10	1	-1E+10	1	-1E+10	1	-1E+10	1	-1E+10	1	-1E+10	1
4902551	18	C	02/06/2021	09:01	-135.886	49.911	0	787.60	0	3.5110	0	34.2640	0	27.255	0	779.374	0	15.5	4	4.8	4	-1E+10	1	-1E+10	1	-1E+10	1	-1E+10	1	-1E+10	1	-1E+10	1
4902551	18	C	02/06/2021	09:01	-135.886	49.911	0	812.80	0	3.4600	0	34.2770	0	27.270	0	804.262	0	15.1	4	4.7	4	-1E+10	1	-1E+10	1	-1E+10	1	-1E+10	1	-1E+10	1	-1E+10	1
4902551	18	C	02/06/2021	09:01	-135.886	49.911	0	837.50	0	3.4030	0	34.2880	0	27.285	0	828.654	0	14.8	4	4.6	4	-1E+10	1	-1E+10	1	-1E+10	1	-1E+10	1	-1E+10	1	-1E+10	1
4902551	18	C	02/06/2021	09:01	-135.886	49.911	0	862.80	0	3.3470	0	34.3000	0	27.300	0	853.635	0	14.5	4	4.5	4	-1E+10	1	-1E+10	1	-1E+10	1	-1E+10	1	-1E+10	1	-1E+10	1
4902551	18	C	02/06/2021	09:01	-135.886	49.911	0	887.80	0	3.2970	0	34.3100	0	27.313	0	878.317	0	14.3	4	4.4	4	-1E+10	1	-1E+10	1	-1E+10	1	-1E+10	1	-1E+10	1	-1E+10	1
4902551	18	C	02/06/2021	09:01	-135.886	49.911	0	912.90	0	3.2500	0	34.3200	0	27.325	0	903.095	0	14.1	4	4.4	4	-1E+10	1	-1E+10	1	-1E+10	1	-1E+10	1	-1E+10	1	-1E+10	1
4902551	18	C	02/06/2021	09:01	-135.886	49.911	0	938.10	0	3.2100	0	34.3280	0	27.335	0	927.968	0	14.0	4	4.3	4	-1E+10	1	-1E+10	1	-1E+10	1	-1E+10	1	-1E+10	1	-1E+10	1
4902551	18	C	02/06/2021	09:01	-135.886	49.911	0	963.10	0	3.1640	0	34.3380	0	27.348	0	952.641	0	13.8	4	4.3	4	-1E+10	1	-1E+10	1	-1E+10	1	-1E+10	1	-1E+10	1	-1E+10	1
4902551	18	C	02/06/2021	09:01	-135.886	49.911	0	988.10	0	3.1170	0	34.3480	0	27.360	0	977.312	0	13.7	4	4.2	4	-1E+10	1	-1E+10	1	-1E+10	1	-1E+10	1	-1E+10	1	-1E+10	1
4902551	18	C	02/06/2021	09:01	-135.886	49.911	0	1012.60	0	3.0730	0	34.3580	0	27.372	0	1001.486	0	13.5	4	4.2	4	-1E+10	1	-1E+10	1	-1E+10	1	-1E+10	1	-1E+10	1	-1E+10	1
4902551	18	C	02/06/2021	09:01	-135.886	49.911	0	1038.30	0	3.0250	0	34.3670	0	27.384	0	1026.841	0	13.5	4	4.2	4	-1E+10	1	-1E+10	1	-1E+10	1	-1E+10	1	-1E+10	1	-1E+10	1
4902551	18	C	02/06/2021	09:01	-135.886	49.911	0	1062.50	0	2.9920	0	34.3730	0	27.392	0	1050.713	0	13.5	4	4.2	4	-1E+10	1	-1E+10	1	-1E+10	1	-1E+10	1	-1E+10	1	-1E+10	1
4902551	18	C	02/06/2021	09:01	-135.886	49.911	0	1087.30	0	2.9460	0	34.3820	0	27.403	0	1075.174	0	13.6	4	4.2	4	-1E+10	1	-1E+10	1	-1E+10	1	-1E+10	1	-1E+10	1	-1E+10	1
4902551	18	C	02/06/2021	09:01	-135.886	49.911	0	1112.50	0	2.9080	0	34.3900	0	27.413	0	1100.027	0	13.6	4	4.2	4	-1E+10	1	-1E+10	1	-1E+10	1	-1E+10	1	-1E+10	1	-1E+10	1
4902551	18	C	02/06/2021	09:01	-135.886	49.911	0	1137.80	0	2.8580	0	34.3990	0	27.425	0	1124.976	0	13.7	4	4.2	4	-1E+10	1	-1E+10	1	-1E+10	1	-1E+10	1	-1E+10	1	-1E+10	1
4902551	18	C	02/06/2021	09:01	-135.886	49.911	0	1163.30	0	2.8110	0	34.4080	0	27.436	0	1150.119	0	13.8	4	4.2	4	-1E+10	1	-1E+10	1	-1E+10	1	-1E+10	1	-1E+10	1	-1E+10	1
4902551	18	C	02/06/2021	09:01	-135.886	49.911	0	1188.30	0	2.7770	0	34.4150	0	27.445	0	1174.766	0	14.0	4	4.3	4	-1E+10	1	-1E+10	1	-1E+10	1	-1E+10	1	-1E+10	1	-1E+10	1
4902551	18	C	02/06/2021	09:01	-135.886	49.911	0	1213.10	0	2.7420	0	34.4220	0	27.454	0	1199.212	0	14.1	4	4.3	4	-1E+10	1	-1E+10	1	-1E+10	1	-1E+10	1	-1E+10	1	-1E+10	1
4902551	18	C	02/06/2021	09:01	-135.886	49.911	0	1237.90	0	2.6980	0	34.4310	0	27.465	0	1223.657	0	14.4	4	4.4	4	-1E+10	1	-1E+10	1	-1E+10	1	-1E+10	1	-1E+10	1	-1E+10	1
4902551	18	C	02/06/2021	09:01	-135.886	49.911	0	1263.00	0	2.6490	0	34.4400	0	27.477	0	1248.393	0	15.0	4	4.6	4	-1E+10	1	-1E+10	1	-1E+10	1	-1E+10	1	-1E+10	1	-1E+10	1
4902551	18	C	02/06/2021	09:01	-135.886	49.911	0	1288.80	0	2.6120	0	34.4470	0	27.486	0	1273.817	0	15.4	4	4.7	4	-1E+10	1	-1E+10	1	-1E+10	1	-1E+10	1	-1E+10	1	-1E+10	1
4902551	18	C	02/06/2021	09:01	-135.886	49.911	0	1313.00	0	2.5760	0	34.4540	0	27.494	0	1297.661	0	16.0	4	4.9	4	-1E+10	1	-1E+10	1	-1E+10	1	-1E+10	1	-1E+10	1	-1E+10	1
4902551	18	C	02/06/2021	09:01	-135.886	49.911	0	1337.80	0	2.5390	0	34.4610	0	27.503	0	1322.094	0	16.7	4	5.1	4	-1E+10	1	-1E+10	1	-1E+10	1	-1E+10	1	-1E+10	1	-1E+10	1
4902551	18	C	02/06/2021	09:01	-135.886	49.911	0	1362.50	0	2.5100	0	34.4660	0	27.510	0	1346.425	0	17.3	4	5.3	4	-1E+10	1	-1E+10	1	-1E+10	1	-1E+10	1	-1E+10	1	-1E+10	1
4902551	18	C	02/06/2021	09:01	-135.886	49.911	0	1388.50	0	2.4830	0	34.4720	0	27.517	0	1372.033	0	18.0	4	5.5	4	-1E+10	1	-1E+10	1	-1E+10	1	-1E+10	1	-1E+10	1	-1E+10	1
4902551	18	C	02/06/2021	09:01	-135.886	49.911	0	1412.60	0	2.4560	0	34.4770	0	27.523	0	1395.768	0	18.6	4	5.7	4	-1E+10	1	-1E+10	1	-1E+10	1	-1E+10	1	-1E+10	1	-1E+10	1
4902551	18	C	02/06/2021	09:01	-135.886	49.911	0	1437.80	0	2.4340	0	34.4810	0	27.529	0	1420.583	0	19.3	4	5.9	4	-1E+10	1	-1E+10	1	-1E+10	1	-1E+10	1	-1E+10	1	-1E+10	1
4902551	18	C	02/06/2021	09:01	-135.886	49.911	0	1462.80	0	2.4090	0	34.4860	0	27.535	0	1445.198	0	20.2	4	6.1	4	-1E+10	1	-1E+10	1	-1E+10	1	-1E+10	1	-1E+10	1	-1E+10	1
4902551	18	C	02/06/2021	09:01	-135.886	49.911	0	1488.00	0	2.3850	0	34.4910	0	27.541	0	1470.007	0	21.0	4	6.4	4	-1E+10	1	-1E+10	1	-1E+10	1	-1E+10	1	-1E+10	1	-1E+10	1
4902551	18	C	02/06/2021	09:01	-135.886	49.911	0	1512.90	0	2.3620	0	34.4960	0	27.547	0	1494.518	0	21.9	4	6.7	4	-1E+10	1	-1E+10	1	-1E+10	1	-1E+10	1	-1E+10	1	-1E+10	1
4902551	18	C	02/06/2021	09:01	-135.886	49.911	0	1537.70	0	2.3360	0	34.5010	0	27.553	0	1518.928	0	22.9	4	7.0	4	-1E+10	1	-1E+10	1	-1E+10	1	-1E+10	1	-1E+10	1	-1E+10	1
4902551	18	C	02/06/2021	09:01	-135.886	49.911	0	1563.00	0	2.3150	0	34.5050	0	27.558	0	1543.827	0	24.0	4	7.3	4	-1E+10	1	-1E+10	1	-1E+10	1	-1E+10	1	-1E+10	1	-1E+10	1
4902551	18	C	02/06/2021	09:01	-135.886	49.911	0	1588.00	0	2.2920	0	34.5100	0	27.564	0	1568.427	0	25.2	4	7.6	4	-1E+10	1	-1E+10	1	-1E+10	1	-1E+10	1	-1E+10	1	-1E+10	1
4902551	18	C	02/06/2021	09:01	-135.886	49.911	0	1612.90	0	2.2720	0	34.5140	0	27.569	0	1592.927	0	26.3	4	8.0	4	-1E+10	1	-1E+10	1	-1E+10	1	-1E+10	1	-1E+10	1	-1E+10	1
4902551	18	C	02/06/2021	09:01	-135.886	49.911	0	1637.90	0	2.2430	0	34.5200	0	27.577	0	1617.522	0	27.9	4	8.5	4	-1E+10	1	-1E+10	1	-1E+10	1	-1E+10	1	-1E+10	1	-1E+10	1
4902551	18	C	02/06/2021	09:01	-135.886	49.911	0	1663.00	0	2.2200	0	34.5240	0	27.582	0	1642.212	0	29.4	4	8.9	4	-1E+10	1	-1E+10	1	-1E+10	1	-1E+10	1	-1E+10	1	-1E+10	1
4902551	18	C	02/06/2021	09:01	-135.886	49.911	0	1687.90	0	2.1940	0	34.5300	0	27.589	0	1666.703	0	31.2	4	9.4	4	-1E+10	1	-1E+10	1	-1E+10	1	-1E+10	1	-1E+10	1	-1E+10	1
4902551	18	C	02/06/2021	09:01	-135.886	49.911	0	1712.50	0	2.1600	0	34.5360	0	27.596	0	1690.896	0	33.3	4	10.1	4	-1E+10	1	-1E+10	1	-1E+10	1	-1E+10	1	-1E+10	1	-1E+10	1
4902551	18	C	02/06/2021	09:01	-135.886	49.911	0	1738.20	0	2.1300	0	34.5420	0	27.604	0	1716.168	0	35.4	4	10.7	4	-1E+10	1	-1E+10	1	-1E+10	1	-1E+10	1	-1E+10	1	-1E+10	1
4902551	18	C	02/06/2021	09:01	-135.886	49.911	0	1762.40	0	2.1020	0	34.5480	0	27.611	0	1739.962	0	37.4	4	11.3	4	-1E+10	1	-1E+10	1	-1E+10	1	-1E+10	1	-1E+10	1	-1E+10	1
4902551	18	C	02/06/2021	09:01	-135.886	49.911	0	1787.70	0	2.0780	0	34.5530	0	27.617	0	1764.835	0	39.0	4	11.8	4	-1E+10	1	-1E+10	1	-1E+10	1	-1E+10	1	-1E+10	1	-1E+10	1
4902551	18	C	02/06/2021	09:01	-135.886	49.911	0	1812.90	0	2.0630	0	34.5560	0	27.621	0	1789.607	0	40.5	4	12.2	4	-1E+10	1	-1E+10	1	-1E+10	1	-1E+10	1	-1E+10	1	-1E+10	1
4902551	18	C	02/06/2021	09:01	-135.886	49.911	0	1838.70	0	2.0430	0	34.5600	0	27.626	0	1814.965	0	42.1	4	12.7	4	-1E+10	1	-1E+10	1	-1E+10	1	-1E+10	1	-1E+10	1	-1E+10	1
4902551	18	C	02/06/2021	09:01	-135.886	49.911	0	1862.80	0	2.0230	0	34.5640	0	27.630	0	1838.650	0	43.7	4	13.2	4	-1E+10	1	-1E+10	1	-1E+10	1	-1E+10	1	-1E+10	1	-1E+10	1
4902551	18	C	02/06/2021	09:01	-135.886	49.911	0	1887.80	0	2.0080	0	34.5670	0	27.634	0	1863.216	0	45.0	4	13.6	4	-1E+10	1	-1E+10	1	-1E+10	1	-1E+10	1	-1E+10	1	-1E+10	1
4902551	18	C	02/06/2021	09:01	-135.886	49.911	0	1912.90	0	1.9930	0	34.5700	0	27.638	0	1887.878	0	46.5	4	14.0	4	-1E+10	1	-1E+10	1	-1E+10	1	-1E+10	1	-1E+10	1	-1E+10	1
4902551	18	C	02/06/2021	09:01	-135.886	49.911	0	1937.90	0	1.9780	0	34.5730	0	27.642	0	1912.439	0	47.8	4	14.4	4	-1E+10	1	-1E+10	1	-1E+10	1	-1E+10	1	-1E+10	1	-1E+10	1
4902551	18	C	02/06/2021	09:01	-135.886	49.911	0	1963.00	0	1.9650	0	34.5760	0	27.645	0	1937.095	0	49.2	4	14.8	4	-1E+10	1	-1E+10	1	-1E+10	1	-1E+10	1	-1E+10	1	-1E+10	1
4902551	18	C	02/06/2021	09:01	-135.886	49.911	0	1988.20	0	1.9440	0	34.5800	0	27.650	0	1961.847	0	50.9	4	15.3	4	-1E+10	1	-1E+10	1	-1E+10	1	-1E+10	1	-1E+10	1	-1E+10	1
4902551	18	C	02/06/2021	09:01	-135.886	49.911	0	2013.30	0	1.9300	0	34.5830	0	27.654	0	1986.497	0	52.0	4	15.6	4	-1E+10	1	-1E+10	1	-1E+10	1	-1E+10	1	-1E+10	1	-1E+10	1
4902551	18	C	02/06/2021	09:01	-135.886	49.911	0	2030.80	0	1.9240	0	34.5840	0	27.655	0	2003.682	0	51.8	4	15.6	4	-1E+10	1	-1E+10	1	-1E+10	1	-1E+10	1	-1E+10	1	-1E+10	1
4902551	18	C	02/06/2021	09:01	-135.886	49.911	0																										
4902551	19	C	02/16/2021	08:54	-135.749	49.859	0	0.40	0	7.3520	0	32.3170	0	25.259	0	0.397	0	279.2	4	94.0	4	-1E+10	1	-1E+10	1	-1E+10	1	-1E+10	1	-1E+10	1	-1E+10	1
4902551	19	C	02/16/2021	08:54	-135.749	49.859	0	1.30	0	7.3520	0	32.3170	0	25.259	0	1.289	0	279.2	4	94.0	4	-1E+10	1	-1E+10	1	-1E+10	1	-1E+10	1	-1E+10	1	-1E+10	1
4902551	19	C	02/16/2021	08:54	-135.749	49.859	0	2.10	0	7.3530	0	32.3170	0	25.258	0	2.082	0	279.1	4	94.0	4	-1E+10	1	-1E+10	1	-1E+10	1	-1E+10	1	-1E+10	1	-1E+10	1
4902551	19	C	02/16/2021	08:54	-135.749	49.859	0	2.80	0	7.3520	0	32.3170	0	25.259	0	2.776	0	279.1	4	94.0	4	-1E+10	1	-1E+10	1	-1E+10	1	-1E+10	1	-1E+10	1	-1E+10	1
4902551	19	C	02/16/2021	08:54	-135.749	49.859	0	4.00	0	7.3530	0	32.3180	0	25.259	0	3.966	0	279.1	4	94.0	4	-1E+10	1	-1E+10	1	-1E+10	1	-1E+10	1	-1E+10	1	-1E+10	1
4902551	19	C	02/16/2021	08:54	-135.749	49.859	0	5.30	0	7.3520	0	32.3180	0	25.259	0	5.255	0	279.1	4	94.0	4	-1E+10	1	-1E+10	1	-1E+10	1	-1E+10	1	-1E+10	1	-1E+10	1
4902551	19	C	02/16/2021	08:54	-135.749	49.859	0	6.00	0	7.3520	0	32.3180	0	25.259	0	5.949	0	279.0	4	94.0	4	-1E+10	1	-1E+10	1	-1E+10	1	-1E+10	1	-1E+10	1	-1E+10	1
4902551	19	C	02/16/2021	08:54	-135.749	49.859	0	6.90	0	7.3510	0	32.3180	0	25.260	0	6.841	0	279.0	4	94.0	4	-1E+10	1	-1E+10	1	-1E+10	1	-1E+10	1	-1E+10	1	-1E+10	1
4902551	19	C	02/16/2021	08:54	-135.749	49.859	0	7.90	0	7.3530	0	32.3180	0	25.259	0	7.832	0	279.0	4	94.0	4	-1E+10	1	-1E+10	1	-1E+10	1	-1E+10	1	-1E+10	1	-1E+10	1
4902551	19	C	02/16/2021	08:54	-135.749	49.859	0	9.00	0	7.3530	0	32.3180	0	25.259	0	8.923	0	279.0	4	94.0	4	-1E+10	1	-1E+10	1	-1E+10	1	-1E+10	1	-1E+10	1	-1E+10	1
4902551	19	C	02/16/2021	08:54	-135.749	49.859	0	10.00	0	7.3540	0	32.3180	0	25.259	0	9.914	0	279.0	4	94.0	4	-1E+10	1	-1E+10	1	-1E+10	1	-1E+10	1	-1E+10	1	-1E+10	1
4902551	19	C	02/16/2021	08:54	-135.749	49.859	0	15.70	0	7.3550	0	32.3180	0	25.259	0	15.565	0	278.7	4	93.9	4	-1E+10	1	-1E+10	1	-1E+10	1	-1E+10	1	-1E+10	1	-1E+10	1
4902551	19	C	02/16/2021	08:54	-135.749	49.859	0	25.80	0	7.3560	0	32.3180	0	25.259	0	25.578	0	278.6	4	93.8	4	-1E+10	1	-1E+10	1	-1E+10	1	-1E+10	1	-1E+10	1	-1E+10	1
4902551	19	C	02/16/2021	08:54	-135.749	49.859	0	35.50	0	7.3580	0	32.3180	0	25.259	0	35.193	0	278.4	4	93.8	4	-1E+10	1	-1E+10	1	-1E+10	1	-1E+10	1	-1E+10	1	-1E+10	1
4902551	19	C	02/16/2021	08:54	-135.749	49.859	0	45.60	0	7.3590	0	32.3180	0	25.259	0	45.205	0	278.1	4	93.7	4	-1E+10	1	-1E+10	1	-1E+10	1	-1E+10	1	-1E+10	1	-1E+10	1
4902551	19	C	02/16/2021	08:54	-135.749	49.859	0	55.40	0	7.3600	0	32.3180	0	25.259	0	54.918	0	277.6	4	93.5	4	-1E+10	1	-1E+10	1	-1E+10	1	-1E+10	1	-1E+10	1	-1E+10	1
4902551	19	C	02/16/2021	08:54	-135.749	49.859	0	65.70	0	7.3590	0	32.3180	0	25.259	0	65.127	0	276.8	4	93.3	4	-1E+10	1	-1E+10	1	-1E+10	1	-1E+10	1	-1E+10	1	-1E+10	1
4902551	19	C	02/16/2021	08:54	-135.749	49.859	0	75.30	0	7.3520	0	32.3180	0	25.260	0	74.642	0	275.3	4	92.7	4	-1E+10	1	-1E+10	1	-1E+10	1	-1E+10	1	-1E+10	1	-1E+10	1
4902551	19	C	02/16/2021	08:54	-135.749	49.859	0	85.60	0	7.3530	0	32.3230	0	25.264	0	84.850	0	272.9	4	91.9	4	-1E+10	1	-1E+10	1	-1E+10	1	-1E+10	1	-1E+10	1	-1E+10	1
4902551	19	C	02/16/2021	08:54	-135.749	49.859	0	95.10	0	7.3540	0	32.3310	0	25.270	0	94.264	0	268.0	4	90.3	4	-1E+10	1	-1E+10	1	-1E+10	1	-1E+10	1	-1E+10	1	-1E+10	1
4902551	19	C	02/16/2021	08:54	-135.749	49.859	0	105.50	0	6.9690	0	32.6780	0	25.596	0	104.570	0	214.0	4	71.7	4	-1E+10	1	-1E+10	1	-1E+10	1	-1E+10	1	-1E+10	1	-1E+10	1
4902551	19	C	02/16/2021	08:54	-135.749	49.859	0	115.10	0	6.3280	0	33.1680	0	26.065	0	114.083	0	183.2	4	60.7	4	-1E+10	1	-1E+10	1	-1E+10	1	-1E+10	1	-1E+10	1	-1E+10	1
4902551	19	C	02/16/2021	08:54	-135.749	49.859	0	125.20	0	6.2440	0	33.3440	0	26.215	0	124.091	0	167.6	4	55.4	4	-1E+10	1	-1E+10	1	-1E+10	1	-1E+10	1	-1E+10	1	-1E+10	1
4902551	19	C	02/16/2021	08:54	-135.749	49.859	0	135.30	0	6.2220	0	33.4890	0	26.332	0	134.098	0	157.4	4	52.1	4	-1E+10	1	-1E+10	1	-1E+10	1	-1E+10	1	-1E+10	1	-1E+10	1
4902551	19	C	02/16/2021	08:54	-135.749	49.859	0	145.30	0	6.1860	0	33.5870	0	26.414	0	144.006	0	152.7	4	50.6	4	-1E+10	1	-1E+10	1	-1E+10	1	-1E+10	1	-1E+10	1	-1E+10	1
4902551	19	C	02/16/2021	08:54	-135.749	49.859	0	155.90	0	6.1330	0	33.6300	0	26.455	0	154.507	0	147.8	4	48.9	4	-1E+10	1	-1E+10	1	-1E+10	1	-1E+10	1	-1E+10	1	-1E+10	1
4902551	19	C	02/16/2021	08:54	-135.749	49.859	0	165.50	0	5.9800	0	33.6870	0	26.520	0	164.018	0	138.5	4	45.7	4	-1E+10	1	-1E+10	1	-1E+10	1	-1E+10	1	-1E+10	1	-1E+10	1
4902551	19	C	02/16/2021	08:54	-135.749	49.859	0	175.50	0	5.8350	0	33.7360	0	26.576	0	173.924	0	126.8	4	41.7	4	-1E+10	1	-1E+10	1	-1E+10	1	-1E+10	1	-1E+10	1	-1E+10	1
4902551	19	C	02/16/2021	08:54	-135.749	49.859	0	185.30	0	5.8750	0	33.7950	0	26.618	0	183.631	0	115.3	4	37.9	4	-1E+10	1	-1E+10	1	-1E+10	1	-1E+10	1	-1E+10	1	-1E+10	1
4902551	19	C	02/16/2021	08:54	-135.749	49.859	0	195.60	0	5.7160	0	33.8080	0	26.648	0	193.834	0	111.2	4	36.5	4	-1E+10	1	-1E+10	1	-1E+10	1	-1E+10	1	-1E+10	1	-1E+10	1
4902551	19	C	02/16/2021	08:54	-135.749	49.859	0	212.80	0	5.5070	0	33.8230	0	26.685	0	210.870	0	105.0	4	34.3	4	-1E+10	1	-1E+10	1	-1E+10	1	-1E+10	1	-1E+10	1	-1E+10	1
4902551	19	C	02/16/2021	08:54	-135.749	49.859	0	238.20	0	5.2600	0	33.8350	0	26.724	0	236.025	0	96.9	4	31.4	4	-1E+10	1	-1E+10	1	-1E+10	1	-1E+10	1	-1E+10	1	-1E+10	1
4902551	19	C	02/16/2021	08:54	-135.749	49.859	0	263.00	0	5.0380	0	33.8470	0	26.759	0	260.583	0	88.2	4	28.5	4	-1E+10	1	-1E+10	1	-1E+10	1	-1E+10	1	-1E+10	1	-1E+10	1
4902551	19	C	02/16/2021	08:54	-135.749	49.859	0	288.60	0	4.8270	0	33.8590	0	26.793	0	285.930	0	79.7	4	25.6	4	-1E+10	1	-1E+10	1	-1E+10	1	-1E+10	1	-1E+10	1	-1E+10	1
4902551	19	C	02/16/2021	08:54	-135.749	49.859	0	312.90	0	4.6750	0	33.8870	0	26.832	0	309.987	0	68.1	4	21.8	4	-1E+10	1	-1E+10	1	-1E+10	1	-1E+10	1	-1E+10	1	-1E+10	1
4902551	19	C	02/16/2021	08:54	-135.749	49.859	0	338.00	0	4.5700	0	33.9170	0	26.867	0	334.833	0	60.0	4	19.2	4	-1E+10	1	-1E+10	1	-1E+10	1	-1E+10	1	-1E+10	1	-1E+10	1
4902551	19	C	02/16/2021	08:54	-135.749	49.859	0	362.70	0	4.4990	0	33.9470	0	26.899	0	359.280	0	53.5	4	17.1	4	-1E+10	1	-1E+10	1	-1E+10	1	-1E+10	1	-1E+10	1	-1E+10	1
4902551	19	C	02/16/2021	08:54	-135.749	49.859	0	387.70	0	4.4360	0	33.9700	0	26.924	0	384.021	0	49.7	4	15.8	4	-1E+10	1	-1E+10	1	-1E+10	1	-1E+10	1	-1E+10	1	-1E+10	1
4902551	19	C	02/16/2021	08:54	-135.749	49.859	0	413.10	0	4.3760	0	33.9910	0	26.948	0	409.155	0	46.2	4	14.7	4	-1E+10	1	-1E+10	1	-1E+10	1	-1E+10	1	-1E+10	1	-1E+10	1
4902551	19	C	02/16/2021	08:54	-135.749	49.859	0	438.10	0	4.3000	0	34.0200	0	26.979	0	433.890	0	39.8	4	12.7	4	-1E+10	1	-1E+10	1	-1E+10	1	-1E+10	1	-1E+10	1	-1E+10	1
4902551	19	C	02/16/2021	08:54	-135.749	49.859	0	462.90	0	4.2380	0	34.0480	0	27.008	0	458.425	0	34.7	4	11.0	4	-1E+10	1	-1E+10	1	-1E+10	1	-1E+10	1	-1E+10	1	-1E+10	1
4902551	19	C	02/16/2021	08:54	-135.749	49.859	0	487.70	0	4.1490	0	34.0780	0	27.041	0	482.956	0	30.9	4	9.8	4	-1E+10	1	-1E+10	1	-1E+10	1	-1E+10	1	-1E+10	1	-1E+10	1
4902551	19	C	02/16/2021	08:54	-135.749	49.859	0	513.50	0	4.0950	0	34.1010	0	27.065	0	508.473	0	27.6	4	8.7	4	-1E+10	1	-1E+10	1	-1E+10	1	-1E+10	1	-1E+10	1	-1E+10	1
4902551	19	C	02/16/2021	08:54	-135.749	49.859	0	537.70	0	4.0340	0	34.1180	0	27.085	0	532.406	0	25.8	4	8.1	4	-1E+10	1	-1E+10	1	-1E+10	1	-1E+10	1	-1E+10	1	-1E+10	1
4902551	19	C	02/16/2021	08:54	-135.749	49.859	0	562.90	0	3.9670	0	34.1370	0	27.107	0	557.324	0	23.9	4	7.5	4	-1E+10	1	-1E+10	1	-1E+10	1	-1E+10	1	-1E+10	1	-1E+10	1
4902551	19	C	02/16/2021	08:54	-135.749	49.859	0	588.30	0	3.9120	0	34.1550	0	27.127	0	582.437	0	22.3	4	7.0	4	-1E+10	1	-1E+10	1	-1E+10	1	-1E+10	1	-1E+10	1	-1E+10	1
4902551	19	C	02/16/2021	08:54	-135.749	49.859	0	612.50	0	3.8640	0	34.1700	0	27.144	0	606.360	0	21.0	4	6.6	4	-1E+10	1	-1E+10	1	-1E+10	1	-1E+10	1	-1E+10	1	-1E+10	1
4902551	19	C	02/16/2021	08:54	-135.749	49.859	0	637.90	0	3.8190	0	34.1840	0	27.160	0	631.467	0	20.0	4	6.3	4	-1E+10	1	-1E+10	1	-1E+10	1	-1E+10	1	-1E+10	1	-1E+10	1
4902551	19	C	02/16/2021	08:54	-135.749	49.859	0	663.20	0	3.7710	0	34.1980	0	27.176	0	656.472	0	18.9	4	5.9	4	-1E+10	1	-1E+10	1	-1E+10	1	-1E+10	1	-1E+10	1	-1E+10	1
4902551	19	C	02/16/2021	08:54	-135.749	49.859	0	688.00	0	3.7140	0	34.2140	0	27.195	0	680.980	0	17.9	4	5.6	4	-1E+10	1	-1E+10	1	-1E+10	1	-1E+10	1	-1E+10	1	-1E+10	1
4902551	19	C	02/16/2021	08:54	-135.749	49.859	0	712.70	0	3.6350	0	34.2340	0	27.219	0	705.386	0	16.8	4	5.2	4	-1E+10	1	-1E+10	1	-1E+10	1	-1E+10	1	-1E+10	1	-1E+10	1
4902551	19	C	02/16/2021	08:54	-135.749	49.859	0	737.50	0	3.5530	0	34.2540	0	27.243	0	729.888	0	15.8	4	4.9	4	-1E+10	1	-1E+10	1	-1E+10	1	-1E+10	1	-1E+10	1	-1E+10	1
4902551	19	C	02/16/2021	08:54	-135.749	49.859	0	762.70	0	3.4720	0	34.2730	0	27.266	0	754.783	0	15.3	4	4.8	4	-1E+10	1	-1E+10	1	-1E+10	1	-1E+10	1	-1E+10	1	-1E+10	1
4902551	19	C	02/16/2021	08:54	-135.749	49.859	0	789.00	0	3.4200	0	34.2840	0	27.280	0	780.760	0	14.9	4	4.7	4	-1E+10	1	-1E+10	1	-1E+10	1	-1E+10	1	-1E+10	1	-1E+10	1
4902551	19	C	02/16/2021	08:54	-135.749	49.859	0	812.80	0	3.3850	0	34.2920	0	27.289	0	804.266	0	14.7	4	4.6	4	-1E+10	1	-1E+10	1	-1E+10	1	-1E+10	1	-1E+10	1	-1E+10	1
4902551	19	C	02/16/2021	08:54	-135.749	49.859	0	837.60	0	3.3380	0	34.3010	0	27.301	0	828.757	0	14.5	4	4.5	4	-1E+10	1	-1E+10	1	-1E+10	1	-1E+10	1	-1E+10	1	-1E+10	1
4902551	19	C	02/16/2021	08:54	-135.749	49.859	0	862.90	0	3.3010	0	34.3090	0	27.311	0	853.738	0	14.3	4	4.5	4	-1E+10	1	-1E+10	1	-1E+10	1	-1E+10	1	-1E+10	1	-1E+10	1
4902551	19	C	02/16/2021	08:54	-135.749	49.859	0	888.10	0	3.2510	0	34.3190	0	27.324	0	878.617	0	14.1	4	4.4	4	-1E+10	1	-1E+10	1	-1E+10	1	-1E+10	1	-1E+10	1	-1E+10	1
4902551	19	C	02/16/2021	08:54	-135.749	49.859	0	913.10	0	3.1900	0	34.3320	0	27.340	0	903.296	0	13.9	4	4.3	4	-1E+10	1	-1E+10	1	-1E+10	1	-1E+10	1	-1E+10	1	-1E+10	1
4902551	19	C	02/16/2021	08:54	-135.749	49.859	0	937.80	0	3.1440	0	34.3420	0	27.353	0	927.677	0	13.7	4	4.3	4	-1E+10	1	-1E+10	1	-1E+10	1	-1E+10	1	-1E+10	1	-1E+10	1
4902551	19	C	02/16/2021	08:54	-135.749	49.859	0	962.70	0	3.1030	0	34.3500	0	27.363	0	952.251	0	13.6	4	4.2	4	-1E+10	1	-1E+10	1	-1E+10	1	-1E+10	1	-1E+10	1	-1E+10	1
4902551	19	C	02/16/2021	08:54	-135.749	49.859	0	987.70	0	3.0520	0	34.3600	0	27.376	0	976.922	0	13.5	4	4.2	4	-1E+10	1	-1E+10	1	-1E+10	1	-1E+10	1	-1E+10	1	-1E+10	1
4902551	19	C	02/16/2021	08:54	-135.749	49.859	0	1012.90	0	3.0000	0	34.3710	0	27.389	0	1001.786	0	13.5	4	4.2	4	-1E+10	1	-1E+10	1	-1E+10	1	-1E+10	1	-1E+10	1	-1E+10	1
4902551	19	C	02/16/2021	08:54	-135.749	49.859	0	1038.60	0	2.9400	0	34.3830	0	27.404	0	1027.141	0	13.4	4	4.1	4	-1E+10	1	-1E+10	1	-1E+10	1	-1E+10	1	-1E+10	1	-1E+10	1
4902551	19	C	02/16/2021	08:54	-135.749	49.859	0	1062.70	0	2.8990	0	34.3910	0	27.415	0	1050.915	0	13.5	4	4.2	4	-1E+10	1	-1E+10	1	-1E+10	1	-1E+10	1	-1E+10	1	-1E+10	1
4902551	19	C	02/16/2021	08:54	-135.749	49.859	0	1087.80	0	2.8540	0	34.4000	0	27.426	0	1075.673	0	13.6	4	4.2	4	-1E+10	1	-1E+10	1	-1E+10	1	-1E+10	1	-1E+10	1	-1E+10	1
4902551	19	C	02/16/2021	08:54	-135.749	49.859	0	1112.70	0	2.8050	0	34.4090	0	27.437	0	1100.230	0	13.8	4	4.2	4	-1E+10	1	-1E+10	1	-1E+10	1	-1E+10	1	-1E+10	1	-1E+10	1
4902551	19	C	02/16/2021	08:54	-135.749	49.859	0	1137.90	0	2.7650	0	34.4170	0	27.448	0	1125.080	0	13.9	4	4.3	4	-1E+10	1	-1E+10	1	-1E+10	1	-1E+10	1	-1E+10	1	-1E+10	1
4902551	19	C	02/16/2021	08:54	-135.749	49.859	0	1162.80	0	2.7430	0	34.4220	0	27.454	0	1149.631	0	14.0	4	4.3	4	-1E+10	1	-1E+10	1	-1E+10	1	-1E+10	1	-1E+10	1	-1E+10	1
4902551	19	C	02/16/2021	08:54	-135.749	49.859	0	1187.70	0	2.7200	0	34.4260	0	27.459	0	1174.180	0	14.2	4	4.4	4	-1E+10	1	-1E+10	1	-1E+10	1	-1E+10	1	-1E+10	1	-1E+10	1
4902551	19	C	02/16/2021	08:54	-135.749	49.859	0	1213.40	0	2.6870	0	34.4330	0	27.468	0	1199.514	0	14.4	4	4.4	4	-1E+10	1	-1E+10	1	-1E+10	1	-1E+10	1	-1E+10	1	-1E+10	1
4902551	19	C	02/16/2021	08:54	-135.749	49.859	0	1237.50	0	2.6640	0	34.4370	0	27.473	0	1223.268	0	14.6	4	4.5	4	-1E+10	1	-1E+10	1	-1E+10	1	-1E+10	1	-1E+10	1	-1E+10	1
4902551	19	C	02/16/2021	08:54	-135.749	49.859	0	1262.80	0	2.6450	0	34.4410	0	27.478	0	1248.202	0	14.9	4	4.6	4	-1E+10	1	-1E+10	1	-1E+10	1	-1E+10	1	-1E+10	1	-1E+10	1
4902551	19	C	02/16/2021	08:54	-135.749	49.859	0	1287.80	0	2.6130	0	34.4470	0	27.485	0	1272.838	0	15.5	4	4.7	4	-1E+10	1	-1E+10	1	-1E+10	1	-1E+10	1	-1E+10	1	-1E+10	1
4902551	19	C	02/16/2021	08:54	-135.749	49.859	0	1312.80	0	2.5760	0	34.4540	0	27.494	0	1297.470	0	16.1	4	4.9	4	-1E+10	1	-1E+10	1	-1E+10	1	-1E+10	1	-1E+10	1	-1E+10	1
4902551	19	C	02/16/2021	08:54	-135.749	49.859	0	1337.80	0	2.5310	0	34.4620	0	27.505	0	1322.100	0	16.8	4	5.1	4	-1E+10	1	-1E+10	1	-1E+10	1	-1E+10	1	-1E+10	1	-1E+10	1
4902551	19	C	02/16/2021	08:54	-135.749	49.859	0	1362.80	0	2.5140	0	34.4660	0	27.509	0	1346.727	0	17.2	4	5.2	4	-1E+10	1	-1E+10	1	-1E+10	1	-1E+10	1	-1E+10	1	-1E+10	1
4902551	19	C	02/16/2021	08:54	-135.749	49.859	0	1387.80	0	2.4920	0	34.4700	0	27.515	0	1371.351	0	17.5	4	5.3	4	-1E+10	1	-1E+10	1	-1E+10	1	-1E+10	1	-1E+10	1	-1E+10	1
4902551	19	C	02/16/2021	08:54	-135.749	49.859	0	1413.50	0	2.4740	0	34.4740	0	27.520	0	1396.661	0	18.0	4	5.5	4	-1E+10	1	-1E+10	1	-1E+10	1	-1E+10	1	-1E+10	1	-1E+10	1
4902551	19	C	02/16/2021	08:54	-135.749	49.859	0	1437.50	0	2.4520	0	34.4780	0	27.525	0	1420.294	0	18.7	4	5.7	4	-1E+10	1	-1E+10	1	-1E+10	1	-1E+10	1	-1E+10	1	-1E+10	1
4902551	19	C	02/16/2021	08:54	-135.749	49.859	0	1462.80	0	2.4210	0	34.4840	0	27.532	0	1445.205	0	19.6	4	6.0	4	-1E+10	1	-1E+10	1	-1E+10	1	-1E+10	1	-1E+10	1	-1E+10	1
4902551	19	C	02/16/2021	08:54	-135.749	49.859	0	1487.80	0	2.3940	0	34.4890	0	27.539	0	1469.817	0	20.6	4	6.3	4	-1E+10	1	-1E+10	1	-1E+10	1	-1E+10	1	-1E+10	1	-1E+10	1
4902551	19	C	02/16/2021	08:54	-135.749	49.859	0	1512.90	0	2.3680	0	34.4950	0	27.546	0	1494.525	0	21.7	4	6.6	4	-1E+10	1	-1E+10	1	-1E+10	1	-1E+10	1	-1E+10	1	-1E+10	1
4902551	19	C	02/16/2021	08:54	-135.749	49.859	0	1537.90	0	2.3390	0	34.5000	0	27.552	0	1519.132	0	22.9	4	7.0	4	-1E+10	1	-1E+10	1	-1E+10	1	-1E+10	1	-1E+10	1	-1E+10	1
4902551	19	C	02/16/2021	08:54	-135.749	49.859	0	1562.60	0	2.3120	0	34.5060	0	27.559	0	1543.440	0	24.3	4	7.4	4	-1E+10	1	-1E+10	1	-1E+10	1	-1E+10	1	-1E+10	1	-1E+10	1
4902551	19	C	02/16/2021	08:54	-135.749	49.859	0	1587.80	0	2.2760	0	34.5130	0	27.568	0	1568.238	0	26.0	4	7.9	4	-1E+10	1	-1E+10	1	-1E+10	1	-1E+10	1	-1E+10	1	-1E+10	1
4902551	19	C	02/16/2021	08:54	-135.749	49.859	0	1612.90	0	2.2510	0	34.5180	0	27.574	0	1592.934	0	27.4	4	8.3	4	-1E+10	1	-1E+10	1	-1E+10	1	-1E+10	1	-1E+10	1	-1E+10	1
4902551	19	C	02/16/2021	08:54	-135.749	49.859	0	1637.60	0	2.2270	0	34.5230	0	27.580	0	1617.234	0	28.9	4	8.8	4	-1E+10	1	-1E+10	1	-1E+10	1	-1E+10	1	-1E+10	1	-1E+10	1
4902551	19	C	02/16/2021	08:54	-135.749	49.859	0	1662.90	0	2.1960	0	34.5290	0	27.588	0	1642.122	0	30.9	4	9.4	4	-1E+10	1	-1E+10	1	-1E+10	1	-1E+10	1	-1E+10	1	-1E+10	1
4902551	19	C	02/16/2021	08:54	-135.749	49.859	0	1687.70	0	2.1680	0	34.5350	0	27.595	0	1666.514	0	32.5	4	9.8	4	-1E+10	1	-1E+10	1	-1E+10	1	-1E+10	1	-1E+10	1	-1E+10	1
4902551	19	C	02/16/2021	08:54	-135.749	49.859	0	1712.60	0	2.1450	0	34.5390	0	27.600	0	1691.003	0	34.2	4	10.4	4	-1E+10	1	-1E+10	1	-1E+10	1	-1E+10	1	-1E+10	1	-1E+10	1
4902551	19	C	02/16/2021	08:54	-135.749	49.859	0	1737.80	0	2.1170	0	34.5450	0	27.607	0	1715.783	0	36.2	4	10.9	4	-1E+10	1	-1E+10	1	-1E+10	1	-1E+10	1	-1E+10	1	-1E+10	1
4902551	19	C	02/16/2021	08:54	-135.749	49.859	0	1762.90	0	2.0900	0	34.5500	0	27.613	0	1740.462	0	38.1	4	11.5	4	-1E+10	1	-1E+10	1	-1E+10	1	-1E+10	1	-1E+10	1	-1E+10	1
4902551	19	C	02/16/2021	08:54	-135.749	49.859	0	1787.90	0	2.0740	0	34.5530	0	27.617	0	1765.040	0	39.3	4	11.9	4	-1E+10	1	-1E+10	1	-1E+10	1	-1E+10	1	-1E+10	1	-1E+10	1
4902551	19	C	02/16/2021	08:54	-135.749	49.859	0	1813.00	0	2.0570	0	34.5570	0	27.622	0	1789.713	0	40.9	4	12.3	4	-1E+10	1	-1E+10	1	-1E+10	1	-1E+10	1	-1E+10	1	-1E+10	1
4902551	19	C	02/16/2021	08:54	-135.749	49.859	0	1838.70	0	2.0400	0	34.5600	0	27.626	0	1814.974	0	42.3	4	12.8	4	-1E+10	1	-1E+10	1	-1E+10	1	-1E+10	1	-1E+10	1	-1E+10	1
4902551	19	C	02/16/2021	08:54	-135.749	49.859	0	1862.70	0	2.0250	0	34.5630	0	27.629	0	1838.560	0	43.7	4	13.2	4	-1E+10	1	-1E+10	1	-1E+10	1	-1E+10	1	-1E+10	1	-1E+10	1
4902551	19	C	02/16/2021	08:54	-135.749	49.859	0	1887.60	0	2.0070	0	34.5670	0	27.634	0	1863.029	0	45.3	4	13.7	4	-1E+10	1	-1E+10	1	-1E+10	1	-1E+10	1	-1E+10	1	-1E+10	1
4902551	19	C	02/16/2021	08:54	-135.749	49.859	0	1912.60	0	1.9880	0	34.5710	0	27.639	0	1887.592	0	46.9	4	14.1	4	-1E+10	1	-1E+10	1	-1E+10	1	-1E+10	1	-1E+10	1	-1E+10	1
4902551	19	C	02/16/2021	08:54	-135.749	49.859	0	1937.80	0	1.9740	0	34.5740	0	27.643	0	1912.350	0	48.1	4	14.5	4	-1E+10	1	-1E+10	1	-1E+10	1	-1E+10	1	-1E+10	1	-1E+10	1
4902551	19	C	02/16/2021	08:54	-135.749	49.859	0	1962.90	0	1.9610	0	34.5760	0	27.645	0	1937.006	0	49.4	4	14.9	4	-1E+10	1	-1E+10	1	-1E+10	1	-1E+10	1	-1E+10	1	-1E+10	1
4902551	19	C	02/16/2021	08:54	-135.749	49.859	0	1987.80	0	1.9460	0	34.5790	0	27.649	0	1961.463	0	50.7	4	15.3	4	-1E+10	1	-1E+10	1	-1E+10	1	-1E+10	1	-1E+10	1	-1E+10	1
4902551	19	C	02/16/2021	08:54	-135.749	49.859	0	2014.00	0	1.9320	0	34.5820	0	27.653	0	1987.194	0	51.8	4	15.6	4	-1E+10	1	-1E+10	1	-1E+10	1	-1E+10	1	-1E+10	1	-1E+10	1
4902551	19	C	02/16/2021	08:54	-135.749	49.859	0	2026.10	0	1.9260	0	34.5840	0	27.655	0	1999.076	0	51.9	4	15.6	4	-1E+10	1	-1E+10	1	-1E+10	1	-1E+10	1	-1E+10	1	-1E+10	1
4902551	19	C	02/16/2021	08:54	-135.749	49.859	0																										
4902551	20	C	02/26/2021	08:56	-135.702	49.793	0	0.30	0	7.0700	0	32.3420	0	25.316	0	0.297	0	281.8	4	94.3	4	-1E+10	1	-1E+10	1	-1E+10	1	-1E+10	1	-1E+10	1	-1E+10	1
4902551	20	C	02/26/2021	08:56	-135.702	49.793	0	1.10	0	7.0700	0	32.3430	0	25.317	0	1.091	0	281.7	4	94.3	4	-1E+10	1	-1E+10	1	-1E+10	1	-1E+10	1	-1E+10	1	-1E+10	1
4902551	20	C	02/26/2021	08:56	-135.702	49.793	0	1.80	0	7.0700	0	32.3430	0	25.317	0	1.785	0	281.7	4	94.3	4	-1E+10	1	-1E+10	1	-1E+10	1	-1E+10	1	-1E+10	1	-1E+10	1
4902551	20	C	02/26/2021	08:56	-135.702	49.793	0	2.80	0	7.0710	0	32.3430	0	25.317	0	2.776	0	281.6	4	94.3	4	-1E+10	1	-1E+10	1	-1E+10	1	-1E+10	1	-1E+10	1	-1E+10	1
4902551	20	C	02/26/2021	08:56	-135.702	49.793	0	3.90	0	7.0720	0	32.3420	0	25.316	0	3.867	0	281.7	4	94.3	4	-1E+10	1	-1E+10	1	-1E+10	1	-1E+10	1	-1E+10	1	-1E+10	1
4902551	20	C	02/26/2021	08:56	-135.702	49.793	0	5.00	0	7.0730	0	32.3420	0	25.316	0	4.957	0	281.6	4	94.3	4	-1E+10	1	-1E+10	1	-1E+10	1	-1E+10	1	-1E+10	1	-1E+10	1
4902551	20	C	02/26/2021	08:56	-135.702	49.793	0	5.80	0	7.0730	0	32.3420	0	25.316	0	5.750	0	281.6	4	94.3	4	-1E+10	1	-1E+10	1	-1E+10	1	-1E+10	1	-1E+10	1	-1E+10	1
4902551	20	C	02/26/2021	08:56	-135.702	49.793	0	6.80	0	7.0730	0	32.3420	0	25.316	0	6.742	0	281.6	4	94.3	4	-1E+10	1	-1E+10	1	-1E+10	1	-1E+10	1	-1E+10	1	-1E+10	1
4902551	20	C	02/26/2021	08:56	-135.702	49.793	0	7.60	0	7.0730	0	32.3420	0	25.316	0	7.535	0	281.5	4	94.2	4	-1E+10	1	-1E+10	1	-1E+10	1	-1E+10	1	-1E+10	1	-1E+10	1
4902551	20	C	02/26/2021	08:56	-135.702	49.793	0	8.90	0	7.0740	0	32.3420	0	25.316	0	8.824	0	281.5	4	94.2	4	-1E+10	1	-1E+10	1	-1E+10	1	-1E+10	1	-1E+10	1	-1E+10	1
4902551	20	C	02/26/2021	08:56	-135.702	49.793	0	10.40	0	7.0740	0	32.3420	0	25.316	0	10.311	0	281.5	4	94.3	4	-1E+10	1	-1E+10	1	-1E+10	1	-1E+10	1	-1E+10	1	-1E+10	1
4902551	20	C	02/26/2021	08:56	-135.702	49.793	0	15.70	0	7.0730	0	32.3420	0	25.316	0	15.565	0	281.5	4	94.2	4	-1E+10	1	-1E+10	1	-1E+10	1	-1E+10	1	-1E+10	1	-1E+10	1
4902551	20	C	02/26/2021	08:56	-135.702	49.793	0	24.90	0	7.0740	0	32.3420	0	25.316	0	24.686	0	281.3	4	94.2	4	-1E+10	1	-1E+10	1	-1E+10	1	-1E+10	1	-1E+10	1	-1E+10	1
4902551	20	C	02/26/2021	08:56	-135.702	49.793	0	35.30	0	7.0750	0	32.3420	0	25.316	0	34.995	0	281.2	4	94.1	4	-1E+10	1	-1E+10	1	-1E+10	1	-1E+10	1	-1E+10	1	-1E+10	1
4902551	20	C	02/26/2021	08:56	-135.702	49.793	0	45.20	0	7.0760	0	32.3420	0	25.316	0	44.808	0	281.1	4	94.1	4	-1E+10	1	-1E+10	1	-1E+10	1	-1E+10	1	-1E+10	1	-1E+10	1
4902551	20	C	02/26/2021	08:56	-135.702	49.793	0	55.30	0	7.0770	0	32.3420	0	25.316	0	54.820	0	280.9	4	94.0	4	-1E+10	1	-1E+10	1	-1E+10	1	-1E+10	1	-1E+10	1	-1E+10	1
4902551	20	C	02/26/2021	08:56	-135.702	49.793	0	65.40	0	7.0780	0	32.3420	0	25.316	0	64.830	0	280.5	4	93.9	4	-1E+10	1	-1E+10	1	-1E+10	1	-1E+10	1	-1E+10	1	-1E+10	1
4902551	20	C	02/26/2021	08:56	-135.702	49.793	0	75.70	0	7.0790	0	32.3420	0	25.316	0	75.039	0	279.9	4	93.7	4	-1E+10	1	-1E+10	1	-1E+10	1	-1E+10	1	-1E+10	1	-1E+10	1
4902551	20	C	02/26/2021	08:56	-135.702	49.793	0	85.10	0	7.0800	0	32.3420	0	25.316	0	84.355	0	278.4	4	93.2	4	-1E+10	1	-1E+10	1	-1E+10	1	-1E+10	1	-1E+10	1	-1E+10	1
4902551	20	C	02/26/2021	08:56	-135.702	49.793	0	95.30	0	7.0800	0	32.3430	0	25.317	0	94.463	0	274.4	4	91.9	4	-1E+10	1	-1E+10	1	-1E+10	1	-1E+10	1	-1E+10	1	-1E+10	1
4902551	20	C	02/26/2021	08:56	-135.702	49.793	0	105.50	0	7.0760	0	32.3480	0	25.322	0	104.571	0	264.1	4	88.4	4	-1E+10	1	-1E+10	1	-1E+10	1	-1E+10	1	-1E+10	1	-1E+10	1
4902551	20	C	02/26/2021	08:56	-135.702	49.793	0	115.60	0	6.8510	0	32.6770	0	25.611	0	114.579	0	217.5	4	72.6	4	-1E+10	1	-1E+10	1	-1E+10	1	-1E+10	1	-1E+10	1	-1E+10	1
4902551	20	C	02/26/2021	08:56	-135.702	49.793	0	125.50	0	6.4530	0	33.2120	0	26.084	0	124.389	0	174.0	4	57.8	4	-1E+10	1	-1E+10	1	-1E+10	1	-1E+10	1	-1E+10	1	-1E+10	1
4902551	20	C	02/26/2021	08:56	-135.702	49.793	0	134.90	0	6.2280	0	33.5430	0	26.374	0	133.702	0	155.9	4	51.6	4	-1E+10	1	-1E+10	1	-1E+10	1	-1E+10	1	-1E+10	1	-1E+10	1
4902551	20	C	02/26/2021	08:56	-135.702	49.793	0	145.10	0	6.0920	0	33.6460	0	26.473	0	143.808	0	147.7	4	48.8	4	-1E+10	1	-1E+10	1	-1E+10	1	-1E+10	1	-1E+10	1	-1E+10	1
4902551	20	C	02/26/2021	08:56	-135.702	49.793	0	155.40	0	5.9320	0	33.7010	0	26.536	0	154.013	0	140.4	4	46.2	4	-1E+10	1	-1E+10	1	-1E+10	1	-1E+10	1	-1E+10	1	-1E+10	1
4902551	20	C	02/26/2021	08:56	-135.702	49.793	0	165.60	0	5.8320	0	33.7330	0	26.574	0	164.118	0	134.8	4	44.3	4	-1E+10	1	-1E+10	1	-1E+10	1	-1E+10	1	-1E+10	1	-1E+10	1
4902551	20	C	02/26/2021	08:56	-135.702	49.793	0	175.30	0	5.7190	0	33.7570	0	26.607	0	173.727	0	129.3	4	42.4	4	-1E+10	1	-1E+10	1	-1E+10	1	-1E+10	1	-1E+10	1	-1E+10	1
4902551	20	C	02/26/2021	08:56	-135.702	49.793	0	185.40	0	5.6310	0	33.7750	0	26.632	0	183.732	0	123.5	4	40.4	4	-1E+10	1	-1E+10	1	-1E+10	1	-1E+10	1	-1E+10	1	-1E+10	1
4902551	20	C	02/26/2021	08:56	-135.702	49.793	0	195.40	0	5.5200	0	33.7920	0	26.659	0	193.637	0	119.1	4	38.9	4	-1E+10	1	-1E+10	1	-1E+10	1	-1E+10	1	-1E+10	1	-1E+10	1
4902551	20	C	02/26/2021	08:56	-135.702	49.793	0	213.10	0	5.3570	0	33.8050	0	26.689	0	211.168	0	113.7	4	37.0	4	-1E+10	1	-1E+10	1	-1E+10	1	-1E+10	1	-1E+10	1	-1E+10	1
4902551	20	C	02/26/2021	08:56	-135.702	49.793	0	237.90	0	5.1520	0	33.8190	0	26.724	0	235.729	0	105.9	4	34.3	4	-1E+10	1	-1E+10	1	-1E+10	1	-1E+10	1	-1E+10	1	-1E+10	1
4902551	20	C	02/26/2021	08:56	-135.702	49.793	0	262.70	0	4.9500	0	33.8400	0	26.764	0	260.287	0	92.4	4	29.8	4	-1E+10	1	-1E+10	1	-1E+10	1	-1E+10	1	-1E+10	1	-1E+10	1
4902551	20	C	02/26/2021	08:56	-135.702	49.793	0	288.40	0	4.8600	0	33.8770	0	26.803	0	285.734	0	75.5	4	24.3	4	-1E+10	1	-1E+10	1	-1E+10	1	-1E+10	1	-1E+10	1	-1E+10	1
4902551	20	C	02/26/2021	08:56	-135.702	49.793	0	312.80	0	4.7460	0	33.9050	0	26.838	0	309.890	0	65.5	4	21.0	4	-1E+10	1	-1E+10	1	-1E+10	1	-1E+10	1	-1E+10	1	-1E+10	1
4902551	20	C	02/26/2021	08:56	-135.702	49.793	0	337.90	0	4.6620	0	33.9260	0	26.865	0	334.736	0	58.4	4	18.7	4	-1E+10	1	-1E+10	1	-1E+10	1	-1E+10	1	-1E+10	1	-1E+10	1
4902551	20	C	02/26/2021	08:56	-135.702	49.793	0	363.00	0	4.5940	0	33.9520	0	26.893	0	359.579	0	51.2	4	16.4	4	-1E+10	1	-1E+10	1	-1E+10	1	-1E+10	1	-1E+10	1	-1E+10	1
4902551	20	C	02/26/2021	08:56	-135.702	49.793	0	388.80	0	4.4560	0	33.9710	0	26.923	0	385.112	0	47.0	4	15.0	4	-1E+10	1	-1E+10	1	-1E+10	1	-1E+10	1	-1E+10	1	-1E+10	1
4902551	20	C	02/26/2021	08:56	-135.702	49.793	0	412.70	0	4.3920	0	33.9940	0	26.948	0	408.762	0	43.1	4	13.7	4	-1E+10	1	-1E+10	1	-1E+10	1	-1E+10	1	-1E+10	1	-1E+10	1
4902551	20	C	02/26/2021	08:56	-135.702	49.793	0	437.70	0	4.3210	0	34.0160	0	26.973	0	433.497	0	39.0	4	12.4	4	-1E+10	1	-1E+10	1	-1E+10	1	-1E+10	1	-1E+10	1	-1E+10	1
4902551	20	C	02/26/2021	08:56	-135.702	49.793	0	462.70	0	4.2630	0	34.0460	0	27.004	0	458.229	0	34.2	4	10.9	4	-1E+10	1	-1E+10	1	-1E+10	1	-1E+10	1	-1E+10	1	-1E+10	1
4902551	20	C	02/26/2021	08:56	-135.702	49.793	0	487.90	0	4.2020	0	34.0720	0	27.031	0	483.157	0	30.7	4	9.7	4	-1E+10	1	-1E+10	1	-1E+10	1	-1E+10	1	-1E+10	1	-1E+10	1
4902551	20	C	02/26/2021	08:56	-135.702	49.793	0	513.00	0	4.1380	0	34.0910	0	27.053	0	507.982	0	27.9	4	8.8	4	-1E+10	1	-1E+10	1	-1E+10	1	-1E+10	1	-1E+10	1	-1E+10	1
4902551	20	C	02/26/2021	08:56	-135.702	49.793	0	538.00	0	4.0580	0	34.1170	0	27.082	0	532.705	0	25.3	4	8.0	4	-1E+10	1	-1E+10	1	-1E+10	1	-1E+10	1	-1E+10	1	-1E+10	1
4902551	20	C	02/26/2021	08:56	-135.702	49.793	0	563.90	0	3.9830	0	34.1370	0	27.106	0	558.316	0	23.5	4	7.4	4	-1E+10	1	-1E+10	1	-1E+10	1	-1E+10	1	-1E+10	1	-1E+10	1
4902551	20	C	02/26/2021	08:56	-135.702	49.793	0	587.80	0	3.9330	0	34.1530	0	27.124	0	581.946	0	22.0	4	6.9	4	-1E+10	1	-1E+10	1	-1E+10	1	-1E+10	1	-1E+10	1	-1E+10	1
4902551	20	C	02/26/2021	08:56	-135.702	49.793	0	612.90	0	3.8670	0	34.1710	0	27.145	0	606.759	0	20.6	4	6.5	4	-1E+10	1	-1E+10	1	-1E+10	1	-1E+10	1	-1E+10	1	-1E+10	1
4902551	20	C	02/26/2021	08:56	-135.702	49.793	0	638.00	0	3.7910	0	34.1910	0	27.168	0	631.570	0	19.4	4	6.1	4	-1E+10	1	-1E+10	1	-1E+10	1	-1E+10	1	-1E+10	1	-1E+10	1
4902551	20	C	02/26/2021	08:56	-135.702	49.793	0	662.90	0	3.7210	0	34.2100	0	27.191	0	656.180	0	18.2	4	5.7	4	-1E+10	1	-1E+10	1	-1E+10	1	-1E+10	1	-1E+10	1	-1E+10	1
4902551	20	C	02/26/2021	08:56	-135.702	49.793	0	687.70	0	3.6500	0	34.2300	0	27.214	0	680.688	0	17.1	4	5.4	4	-1E+10	1	-1E+10	1	-1E+10	1	-1E+10	1	-1E+10	1	-1E+10	1
4902551	20	C	02/26/2021	08:56	-135.702	49.793	0	712.90	0	3.6000	0	34.2430	0	27.229	0	705.588	0	16.5	4	5.2	4	-1E+10	1	-1E+10	1	-1E+10	1	-1E+10	1	-1E+10	1	-1E+10	1
4902551	20	C	02/26/2021	08:56	-135.702	49.793	0	737.80	0	3.5660	0	34.2520	0	27.240	0	730.189	0	16.0	4	5.0	4	-1E+10	1	-1E+10	1	-1E+10	1	-1E+10	1	-1E+10	1	-1E+10	1
4902551	20	C	02/26/2021	08:56	-135.702	49.793	0	763.70	0	3.5310	0	34.2610	0	27.250	0	755.775	0	15.6	4	4.9	4	-1E+10	1	-1E+10	1	-1E+10	1	-1E+10	1	-1E+10	1	-1E+10	1
4902551	20	C	02/26/2021	08:56	-135.702	49.793	0	787.90	0	3.4860	0	34.2690	0	27.261	0	779.679	0	15.6	4	4.9	4	-1E+10	1	-1E+10	1	-1E+10	1	-1E+10	1	-1E+10	1	-1E+10	1
4902551	20	C	02/26/2021	08:56	-135.702	49.793	0	812.80	0	3.4570	0	34.2760	0	27.270	0	804.271	0	15.2	4	4.7	4	-1E+10	1	-1E+10	1	-1E+10	1	-1E+10	1	-1E+10	1	-1E+10	1
4902551	20	C	02/26/2021	08:56	-135.702	49.793	0	838.10	0	3.4110	0	34.2860	0	27.282	0	829.255	0	14.9	4	4.7	4	-1E+10	1	-1E+10	1	-1E+10	1	-1E+10	1	-1E+10	1	-1E+10	1
4902551	20	C	02/26/2021	08:56	-135.702	49.793	0	862.80	0	3.3600	0	34.2980	0	27.297	0	853.644	0	14.5	4	4.5	4	-1E+10	1	-1E+10	1	-1E+10	1	-1E+10	1	-1E+10	1	-1E+10	1
4902551	20	C	02/26/2021	08:56	-135.702	49.793	0	887.70	0	3.3030	0	34.3100	0	27.312	0	878.228	0	14.3	4	4.4	4	-1E+10	1	-1E+10	1	-1E+10	1	-1E+10	1	-1E+10	1	-1E+10	1
4902551	20	C	02/26/2021	08:56	-135.702	49.793	0	913.10	0	3.2470	0	34.3210	0	27.326	0	903.302	0	14.1	4	4.4	4	-1E+10	1	-1E+10	1	-1E+10	1	-1E+10	1	-1E+10	1	-1E+10	1
4902551	20	C	02/26/2021	08:56	-135.702	49.793	0	938.20	0	3.2090	0	34.3290	0	27.336	0	928.077	0	14.0	4	4.3	4	-1E+10	1	-1E+10	1	-1E+10	1	-1E+10	1	-1E+10	1	-1E+10	1
4902551	20	C	02/26/2021	08:56	-135.702	49.793	0	963.00	0	3.1560	0	34.3400	0	27.350	0	952.553	0	13.8	4	4.3	4	-1E+10	1	-1E+10	1	-1E+10	1	-1E+10	1	-1E+10	1	-1E+10	1
4902551	20	C	02/26/2021	08:56	-135.702	49.793	0	988.00	0	3.1040	0	34.3500	0	27.363	0	977.223	0	13.7	4	4.2	4	-1E+10	1	-1E+10	1	-1E+10	1	-1E+10	1	-1E+10	1	-1E+10	1
4902551	20	C	02/26/2021	08:56	-135.702	49.793	0	1013.10	0	3.0520	0	34.3600	0	27.376	0	1001.990	0	13.6	4	4.2	4	-1E+10	1	-1E+10	1	-1E+10	1	-1E+10	1	-1E+10	1	-1E+10	1
4902551	20	C	02/26/2021	08:56	-135.702	49.793	0	1038.60	0	2.9990	0	34.3720	0	27.390	0	1027.148	0	13.5	4	4.2	4	-1E+10	1	-1E+10	1	-1E+10	1	-1E+10	1	-1E+10	1	-1E+10	1
4902551	20	C	02/26/2021	08:56	-135.702	49.793	0	1062.90	0	2.9540	0	34.3810	0	27.402	0	1051.119	0	13.5	4	4.2	4	-1E+10	1	-1E+10	1	-1E+10	1	-1E+10	1	-1E+10	1	-1E+10	1
4902551	20	C	02/26/2021	08:56	-135.702	49.793	0	1088.00	0	2.9010	0	34.3910	0	27.415	0	1075.876	0	13.5	4	4.2	4	-1E+10	1	-1E+10	1	-1E+10	1	-1E+10	1	-1E+10	1	-1E+10	1
4902551	20	C	02/26/2021	08:56	-135.702	49.793	0	1112.70	0	2.8450	0	34.4020	0	27.428	0	1100.236	0	13.7	4	4.2	4	-1E+10	1	-1E+10	1	-1E+10	1	-1E+10	1	-1E+10	1	-1E+10	1
4902551	20	C	02/26/2021	08:56	-135.702	49.793	0	1137.80	0	2.7830	0	34.4140	0	27.444	0	1124.988	0	13.9	4	4.3	4	-1E+10	1	-1E+10	1	-1E+10	1	-1E+10	1	-1E+10	1	-1E+10	1
4902551	20	C	02/26/2021	08:56	-135.702	49.793	0	1162.60	0	2.7400	0	34.4220	0	27.454	0	1149.441	0	14.1	4	4.3	4	-1E+10	1	-1E+10	1	-1E+10	1	-1E+10	1	-1E+10	1	-1E+10	1
4902551	20	C	02/26/2021	08:56	-135.702	49.793	0	1187.70	0	2.7120	0	34.4280	0	27.461	0	1174.187	0	14.3	4	4.4	4	-1E+10	1	-1E+10	1	-1E+10	1	-1E+10	1	-1E+10	1	-1E+10	1
4902551	20	C	02/26/2021	08:56	-135.702	49.793	0	1212.50	0	2.6870	0	34.4330	0	27.467	0	1198.634	0	14.5	4	4.4	4	-1E+10	1	-1E+10	1	-1E+10	1	-1E+10	1	-1E+10	1	-1E+10	1
4902551	20	C	02/26/2021	08:56	-135.702	49.793	0	1237.80	0	2.6680	0	34.4370	0	27.472	0	1223.571	0	14.7	4	4.5	4	-1E+10	1	-1E+10	1	-1E+10	1	-1E+10	1	-1E+10	1	-1E+10	1
4902551	20	C	02/26/2021	08:56	-135.702	49.793	0	1262.90	0	2.6460	0	34.4420	0	27.479	0	1248.308	0	15.0	4	4.6	4	-1E+10	1	-1E+10	1	-1E+10	1	-1E+10	1	-1E+10	1	-1E+10	1
4902551	20	C	02/26/2021	08:56	-135.702	49.793	0	1288.00	0	2.6110	0	34.4480	0	27.486	0	1273.042	0	15.5	4	4.7	4	-1E+10	1	-1E+10	1	-1E+10	1	-1E+10	1	-1E+10	1	-1E+10	1
4902551	20	C	02/26/2021	08:56	-135.702	49.793	0	1312.90	0	2.5720	0	34.4550	0	27.495	0	1297.577	0	16.1	4	4.9	4	-1E+10	1	-1E+10	1	-1E+10	1	-1E+10	1	-1E+10	1	-1E+10	1
4902551	20	C	02/26/2021	08:56	-135.702	49.793	0	1338.00	0	2.5340	0	34.4620	0	27.504	0	1322.305	0	16.6	4	5.1	4	-1E+10	1	-1E+10	1	-1E+10	1	-1E+10	1	-1E+10	1	-1E+10	1
4902551	20	C	02/26/2021	08:56	-135.702	49.793	0	1363.20	0	2.5110	0	34.4670	0	27.511	0	1347.129	0	17.2	4	5.2	4	-1E+10	1	-1E+10	1	-1E+10	1	-1E+10	1	-1E+10	1	-1E+10	1
4902551	20	C	02/26/2021	08:56	-135.702	49.793	0	1388.10	0	2.4740	0	34.4730	0	27.519	0	1371.654	0	18.1	4	5.5	4	-1E+10	1	-1E+10	1	-1E+10	1	-1E+10	1	-1E+10	1	-1E+10	1
4902551	20	C	02/26/2021	08:56	-135.702	49.793	0	1413.00	0	2.4380	0	34.4800	0	27.527	0	1396.177	0	19.0	4	5.8	4	-1E+10	1	-1E+10	1	-1E+10	1	-1E+10	1	-1E+10	1	-1E+10	1
4902551	20	C	02/26/2021	08:56	-135.702	49.793	0	1438.30	0	2.4130	0	34.4860	0	27.534	0	1421.091	0	20.0	4	6.1	4	-1E+10	1	-1E+10	1	-1E+10	1	-1E+10	1	-1E+10	1	-1E+10	1
4902551	20	C	02/26/2021	08:56	-135.702	49.793	0	1462.80	0	2.3800	0	34.4920	0	27.542	0	1445.214	0	21.1	4	6.4	4	-1E+10	1	-1E+10	1	-1E+10	1	-1E+10	1	-1E+10	1	-1E+10	1
4902551	20	C	02/26/2021	08:56	-135.702	49.793	0	1487.80	0	2.3540	0	34.4970	0	27.548	0	1469.826	0	22.0	4	6.7	4	-1E+10	1	-1E+10	1	-1E+10	1	-1E+10	1	-1E+10	1	-1E+10	1
4902551	20	C	02/26/2021	08:56	-135.702	49.793	0	1512.80	0	2.3360	0	34.5000	0	27.552	0	1494.436	0	22.8	4	6.9	4	-1E+10	1	-1E+10	1	-1E+10	1	-1E+10	1	-1E+10	1	-1E+10	1
4902551	20	C	02/26/2021	08:56	-135.702	49.793	0	1538.30	0	2.3170	0	34.5040	0	27.557	0	1519.535	0	23.7	4	7.2	4	-1E+10	1	-1E+10	1	-1E+10	1	-1E+10	1	-1E+10	1	-1E+10	1
4902551	20	C	02/26/2021	08:56	-135.702	49.793	0	1562.80	0	2.2990	0	34.5080	0	27.562	0	1543.646	0	24.6	4	7.5	4	-1E+10	1	-1E+10	1	-1E+10	1	-1E+10	1	-1E+10	1	-1E+10	1
4902551	20	C	02/26/2021	08:56	-135.702	49.793	0	1587.90	0	2.2840	0	34.5110	0	27.566	0	1568.346	0	25.5	4	7.7	4	-1E+10	1	-1E+10	1	-1E+10	1	-1E+10	1	-1E+10	1	-1E+10	1
4902551	20	C	02/26/2021	08:56	-135.702	49.793	0	1612.90	0	2.2610	0	34.5160	0	27.572	0	1592.944	0	26.8	4	8.1	4	-1E+10	1	-1E+10	1	-1E+10	1	-1E+10	1	-1E+10	1	-1E+10	1
4902551	20	C	02/26/2021	08:56	-135.702	49.793	0	1637.70	0	2.2410	0	34.5200	0	27.577	0	1617.342	0	27.8	4	8.4	4	-1E+10	1	-1E+10	1	-1E+10	1	-1E+10	1	-1E+10	1	-1E+10	1
4902551	20	C	02/26/2021	08:56	-135.702	49.793	0	1662.80	0	2.2270	0	34.5230	0	27.580	0	1642.033	0	28.8	4	8.7	4	-1E+10	1	-1E+10	1	-1E+10	1	-1E+10	1	-1E+10	1	-1E+10	1
4902551	20	C	02/26/2021	08:56	-135.702	49.793	0	1687.90	0	2.2100	0	34.5270	0	27.585	0	1666.721	0	29.8	4	9.0	4	-1E+10	1	-1E+10	1	-1E+10	1	-1E+10	1	-1E+10	1	-1E+10	1
4902551	20	C	02/26/2021	08:56	-135.702	49.793	0	1713.00	0	2.1950	0	34.5300	0	27.589	0	1691.406	0	31.1	4	9.4	4	-1E+10	1	-1E+10	1	-1E+10	1	-1E+10	1	-1E+10	1	-1E+10	1
4902551	20	C	02/26/2021	08:56	-135.702	49.793	0	1738.20	0	2.1690	0	34.5350	0	27.595	0	1716.187	0	32.8	4	9.9	4	-1E+10	1	-1E+10	1	-1E+10	1	-1E+10	1	-1E+10	1	-1E+10	1
4902551	20	C	02/26/2021	08:56	-135.702	49.793	0	1763.30	0	2.1460	0	34.5400	0	27.601	0	1740.866	0	34.5	4	10.4	4	-1E+10	1	-1E+10	1	-1E+10	1	-1E+10	1	-1E+10	1	-1E+10	1
4902551	20	C	02/26/2021	08:56	-135.702	49.793	0	1788.00	0	2.1150	0	34.5460	0	27.608	0	1765.149	0	36.6	4	11.1	4	-1E+10	1	-1E+10	1	-1E+10	1	-1E+10	1	-1E+10	1	-1E+10	1
4902551	20	C	02/26/2021	08:56	-135.702	49.793	0	1812.50	0	2.0910	0	34.5510	0	27.614	0	1789.233	0	38.4	4	11.6	4	-1E+10	1	-1E+10	1	-1E+10	1	-1E+10	1	-1E+10	1	-1E+10	1
4902551	20	C	02/26/2021	08:56	-135.702	49.793	0	1837.70	0	2.0690	0	34.5550	0	27.619	0	1814.002	0	40.2	4	12.1	4	-1E+10	1	-1E+10	1	-1E+10	1	-1E+10	1	-1E+10	1	-1E+10	1
4902551	20	C	02/26/2021	08:56	-135.702	49.793	0	1862.90	0	2.0470	0	34.5600	0	27.625	0	1838.768	0	41.9	4	12.6	4	-1E+10	1	-1E+10	1	-1E+10	1	-1E+10	1	-1E+10	1	-1E+10	1
4902551	20	C	02/26/2021	08:56	-135.702	49.793	0	1887.80	0	2.0300	0	34.5630	0	27.629	0	1863.236	0	43.2	4	13.0	4	-1E+10	1	-1E+10	1	-1E+10	1	-1E+10	1	-1E+10	1	-1E+10	1
4902551	20	C	02/26/2021	08:56	-135.702	49.793	0	1912.80	0	2.0150	0	34.5670	0	27.634	0	1887.800	0	44.8	4	13.5	4	-1E+10	1	-1E+10	1	-1E+10	1	-1E+10	1	-1E+10	1	-1E+10	1
4902551	20	C	02/26/2021	08:56	-135.702	49.793	0	1937.80	0	1.9900	0	34.5710	0	27.639	0	1912.361	0	47.0	4	14.2	4	-1E+10	1	-1E+10	1	-1E+10	1	-1E+10	1	-1E+10	1	-1E+10	1
4902551	20	C	02/26/2021	08:56	-135.702	49.793	0	1962.70	0	1.9700	0	34.5750	0	27.644	0	1936.821	0	48.5	4	14.6	4	-1E+10	1	-1E+10	1	-1E+10	1	-1E+10	1	-1E+10	1	-1E+10	1
4902551	20	C	02/26/2021	08:56	-135.702	49.793	0	1983.20	0	1.9600	0	34.5780	0	27.647	0	1956.957	0	49.1	4	14.8	4	-1E+10	1	-1E+10	1	-1E+10	1	-1E+10	1	-1E+10	1	-1E+10	1
4902551	20	C	02/26/2021	08:56	-135.702	49.793	0																										
4902551	21	C	03/08/2021	09:05	-135.594	49.797	0	0.40	0	6.9400	0	32.3460	0	25.337	0	0.397	0	282.9	4	94.4	4	-1E+10	1	-1E+10	1	-1E+10	1	-1E+10	1	-1E+10	1	-1E+10	1
4902551	21	C	03/08/2021	09:05	-135.594	49.797	0	1.10	0	6.9400	0	32.3460	0	25.337	0	1.091	0	282.9	4	94.4	4	-1E+10	1	-1E+10	1	-1E+10	1	-1E+10	1	-1E+10	1	-1E+10	1
4902551	21	C	03/08/2021	09:05	-135.594	49.797	0	2.10	0	6.9400	0	32.3460	0	25.337	0	2.082	0	282.9	4	94.4	4	-1E+10	1	-1E+10	1	-1E+10	1	-1E+10	1	-1E+10	1	-1E+10	1
4902551	21	C	03/08/2021	09:05	-135.594	49.797	0	3.10	0	6.9410	0	32.3460	0	25.337	0	3.073	0	282.8	4	94.4	4	-1E+10	1	-1E+10	1	-1E+10	1	-1E+10	1	-1E+10	1	-1E+10	1
4902551	21	C	03/08/2021	09:05	-135.594	49.797	0	4.10	0	6.9410	0	32.3460	0	25.337	0	4.065	0	282.8	4	94.4	4	-1E+10	1	-1E+10	1	-1E+10	1	-1E+10	1	-1E+10	1	-1E+10	1
4902551	21	C	03/08/2021	09:05	-135.594	49.797	0	5.10	0	6.9420	0	32.3460	0	25.337	0	5.056	0	282.8	4	94.4	4	-1E+10	1	-1E+10	1	-1E+10	1	-1E+10	1	-1E+10	1	-1E+10	1
4902551	21	C	03/08/2021	09:05	-135.594	49.797	0	6.00	0	6.9410	0	32.3460	0	25.337	0	5.949	0	282.8	4	94.4	4	-1E+10	1	-1E+10	1	-1E+10	1	-1E+10	1	-1E+10	1	-1E+10	1
4902551	21	C	03/08/2021	09:05	-135.594	49.797	0	6.90	0	6.9410	0	32.3460	0	25.337	0	6.841	0	282.7	4	94.4	4	-1E+10	1	-1E+10	1	-1E+10	1	-1E+10	1	-1E+10	1	-1E+10	1
4902551	21	C	03/08/2021	09:05	-135.594	49.797	0	7.80	0	6.9410	0	32.3460	0	25.337	0	7.733	0	282.7	4	94.3	4	-1E+10	1	-1E+10	1	-1E+10	1	-1E+10	1	-1E+10	1	-1E+10	1
4902551	21	C	03/08/2021	09:05	-135.594	49.797	0	9.00	0	6.9410	0	32.3460	0	25.337	0	8.923	0	282.7	4	94.4	4	-1E+10	1	-1E+10	1	-1E+10	1	-1E+10	1	-1E+10	1	-1E+10	1
4902551	21	C	03/08/2021	09:05	-135.594	49.797	0	9.90	0	6.9420	0	32.3460	0	25.337	0	9.815	0	282.6	4	94.3	4	-1E+10	1	-1E+10	1	-1E+10	1	-1E+10	1	-1E+10	1	-1E+10	1
4902551	21	C	03/08/2021	09:05	-135.594	49.797	0	15.30	0	6.9430	0	32.3460	0	25.337	0	15.169	0	282.6	4	94.3	4	-1E+10	1	-1E+10	1	-1E+10	1	-1E+10	1	-1E+10	1	-1E+10	1
4902551	21	C	03/08/2021	09:05	-135.594	49.797	0	25.40	0	6.9420	0	32.3460	0	25.337	0	25.181	0	282.4	4	94.3	4	-1E+10	1	-1E+10	1	-1E+10	1	-1E+10	1	-1E+10	1	-1E+10	1
4902551	21	C	03/08/2021	09:05	-135.594	49.797	0	35.50	0	6.9500	0	32.3460	0	25.336	0	35.193	0	282.2	4	94.2	4	-1E+10	1	-1E+10	1	-1E+10	1	-1E+10	1	-1E+10	1	-1E+10	1
4902551	21	C	03/08/2021	09:05	-135.594	49.797	0	45.20	0	6.9540	0	32.3460	0	25.335	0	44.808	0	281.9	4	94.1	4	-1E+10	1	-1E+10	1	-1E+10	1	-1E+10	1	-1E+10	1	-1E+10	1
4902551	21	C	03/08/2021	09:05	-135.594	49.797	0	55.80	0	6.9550	0	32.3460	0	25.335	0	55.315	0	281.3	4	93.9	4	-1E+10	1	-1E+10	1	-1E+10	1	-1E+10	1	-1E+10	1	-1E+10	1
4902551	21	C	03/08/2021	09:05	-135.594	49.797	0	65.90	0	6.9550	0	32.3460	0	25.336	0	65.326	0	280.6	4	93.7	4	-1E+10	1	-1E+10	1	-1E+10	1	-1E+10	1	-1E+10	1	-1E+10	1
4902551	21	C	03/08/2021	09:05	-135.594	49.797	0	75.30	0	6.9550	0	32.3460	0	25.336	0	74.642	0	279.4	4	93.3	4	-1E+10	1	-1E+10	1	-1E+10	1	-1E+10	1	-1E+10	1	-1E+10	1
4902551	21	C	03/08/2021	09:05	-135.594	49.797	0	85.20	0	6.9560	0	32.3460	0	25.336	0	84.454	0	276.1	4	92.2	4	-1E+10	1	-1E+10	1	-1E+10	1	-1E+10	1	-1E+10	1	-1E+10	1
4902551	21	C	03/08/2021	09:05	-135.594	49.797	0	95.40	0	6.9520	0	32.3720	0	25.357	0	94.562	0	258.6	4	86.3	4	-1E+10	1	-1E+10	1	-1E+10	1	-1E+10	1	-1E+10	1	-1E+10	1
4902551	21	C	03/08/2021	09:05	-135.594	49.797	0	105.20	0	6.6490	0	32.8950	0	25.809	0	104.273	0	195.2	4	65.0	4	-1E+10	1	-1E+10	1	-1E+10	1	-1E+10	1	-1E+10	1	-1E+10	1
4902551	21	C	03/08/2021	09:05	-135.594	49.797	0	114.80	0	6.3590	0	33.3080	0	26.172	0	113.786	0	164.7	4	54.6	4	-1E+10	1	-1E+10	1	-1E+10	1	-1E+10	1	-1E+10	1	-1E+10	1
4902551	21	C	03/08/2021	09:05	-135.594	49.797	0	125.20	0	6.2710	0	33.4700	0	26.311	0	124.091	0	151.8	4	50.3	4	-1E+10	1	-1E+10	1	-1E+10	1	-1E+10	1	-1E+10	1	-1E+10	1
4902551	21	C	03/08/2021	09:05	-135.594	49.797	0	135.60	0	6.1410	0	33.6140	0	26.441	0	134.396	0	145.2	4	48.0	4	-1E+10	1	-1E+10	1	-1E+10	1	-1E+10	1	-1E+10	1	-1E+10	1
4902551	21	C	03/08/2021	09:05	-135.594	49.797	0	145.70	0	5.9920	0	33.6600	0	26.497	0	144.403	0	141.7	4	46.7	4	-1E+10	1	-1E+10	1	-1E+10	1	-1E+10	1	-1E+10	1	-1E+10	1
4902551	21	C	03/08/2021	09:05	-135.594	49.797	0	155.60	0	5.8930	0	33.6940	0	26.536	0	154.211	0	136.7	4	45.0	4	-1E+10	1	-1E+10	1	-1E+10	1	-1E+10	1	-1E+10	1	-1E+10	1
4902551	21	C	03/08/2021	09:05	-135.594	49.797	0	165.10	0	5.7880	0	33.7270	0	26.575	0	163.622	0	130.2	4	42.7	4	-1E+10	1	-1E+10	1	-1E+10	1	-1E+10	1	-1E+10	1	-1E+10	1
4902551	21	C	03/08/2021	09:05	-135.594	49.797	0	175.40	0	5.6340	0	33.7640	0	26.623	0	173.826	0	122.9	4	40.2	4	-1E+10	1	-1E+10	1	-1E+10	1	-1E+10	1	-1E+10	1	-1E+10	1
4902551	21	C	03/08/2021	09:05	-135.594	49.797	0	185.70	0	5.5170	0	33.7850	0	26.654	0	184.029	0	117.7	4	38.4	4	-1E+10	1	-1E+10	1	-1E+10	1	-1E+10	1	-1E+10	1	-1E+10	1
4902551	21	C	03/08/2021	09:05	-135.594	49.797	0	195.70	0	5.4340	0	33.7970	0	26.673	0	193.934	0	113.7	4	37.1	4	-1E+10	1	-1E+10	1	-1E+10	1	-1E+10	1	-1E+10	1	-1E+10	1
4902551	21	C	03/08/2021	09:05	-135.594	49.797	0	213.20	0	5.2940	0	33.8140	0	26.703	0	211.267	0	105.6	4	34.3	4	-1E+10	1	-1E+10	1	-1E+10	1	-1E+10	1	-1E+10	1	-1E+10	1
4902551	21	C	03/08/2021	09:05	-135.594	49.797	0	238.10	0	5.1240	0	33.8320	0	26.737	0	235.927	0	96.1	4	31.1	4	-1E+10	1	-1E+10	1	-1E+10	1	-1E+10	1	-1E+10	1	-1E+10	1
4902551	21	C	03/08/2021	09:05	-135.594	49.797	0	262.70	0	4.9340	0	33.8490	0	26.773	0	260.287	0	89.0	4	28.7	4	-1E+10	1	-1E+10	1	-1E+10	1	-1E+10	1	-1E+10	1	-1E+10	1
4902551	21	C	03/08/2021	09:05	-135.594	49.797	0	288.10	0	4.7880	0	33.8720	0	26.807	0	285.436	0	77.5	4	24.9	4	-1E+10	1	-1E+10	1	-1E+10	1	-1E+10	1	-1E+10	1	-1E+10	1
4902551	21	C	03/08/2021	09:05	-135.594	49.797	0	312.90	0	4.6240	0	33.9010	0	26.849	0	309.989	0	66.3	4	21.2	4	-1E+10	1	-1E+10	1	-1E+10	1	-1E+10	1	-1E+10	1	-1E+10	1
4902551	21	C	03/08/2021	09:05	-135.594	49.797	0	337.80	0	4.5430	0	33.9390	0	26.888	0	334.637	0	55.6	4	17.7	4	-1E+10	1	-1E+10	1	-1E+10	1	-1E+10	1	-1E+10	1	-1E+10	1
4902551	21	C	03/08/2021	09:05	-135.594	49.797	0	362.60	0	4.4940	0	33.9690	0	26.917	0	359.183	0	48.8	4	15.6	4	-1E+10	1	-1E+10	1	-1E+10	1	-1E+10	1	-1E+10	1	-1E+10	1
4902551	21	C	03/08/2021	09:05	-135.594	49.797	0	387.80	0	4.4480	0	33.9980	0	26.945	0	384.122	0	42.0	4	13.4	4	-1E+10	1	-1E+10	1	-1E+10	1	-1E+10	1	-1E+10	1	-1E+10	1
4902551	21	C	03/08/2021	09:05	-135.594	49.797	0	413.60	0	4.3890	0	34.0200	0	26.969	0	409.652	0	38.4	4	12.2	4	-1E+10	1	-1E+10	1	-1E+10	1	-1E+10	1	-1E+10	1	-1E+10	1
4902551	21	C	03/08/2021	09:05	-135.594	49.797	0	437.90	0	4.3080	0	34.0380	0	26.992	0	433.695	0	35.1	4	11.1	4	-1E+10	1	-1E+10	1	-1E+10	1	-1E+10	1	-1E+10	1	-1E+10	1
4902551	21	C	03/08/2021	09:05	-135.594	49.797	0	462.90	0	4.2690	0	34.0610	0	27.015	0	458.427	0	30.9	4	9.8	4	-1E+10	1	-1E+10	1	-1E+10	1	-1E+10	1	-1E+10	1	-1E+10	1
4902551	21	C	03/08/2021	09:05	-135.594	49.797	0	487.90	0	4.2010	0	34.0860	0	27.042	0	483.157	0	27.6	4	8.7	4	-1E+10	1	-1E+10	1	-1E+10	1	-1E+10	1	-1E+10	1	-1E+10	1
4902551	21	C	03/08/2021	09:05	-135.594	49.797	0	512.80	0	4.1410	0	34.1070	0	27.065	0	507.784	0	24.9	4	7.9	4	-1E+10	1	-1E+10	1	-1E+10	1	-1E+10	1	-1E+10	1	-1E+10	1
4902551	21	C	03/08/2021	09:05	-135.594	49.797	0	538.00	0	4.0880	0	34.1260	0	27.086	0	532.705	0	23.1	4	7.3	4	-1E+10	1	-1E+10	1	-1E+10	1	-1E+10	1	-1E+10	1	-1E+10	1
4902551	21	C	03/08/2021	09:05	-135.594	49.797	0	563.00	0	3.9990	0	34.1440	0	27.110	0	557.426	0	22.5	4	7.1	4	-1E+10	1	-1E+10	1	-1E+10	1	-1E+10	1	-1E+10	1	-1E+10	1
4902551	21	C	03/08/2021	09:05	-135.594	49.797	0	588.70	0	3.9200	0	34.1610	0	27.131	0	582.835	0	21.2	4	6.7	4	-1E+10	1	-1E+10	1	-1E+10	1	-1E+10	1	-1E+10	1	-1E+10	1
4902551	21	C	03/08/2021	09:05	-135.594	49.797	0	612.80	0	3.8410	0	34.1800	0	27.154	0	606.660	0	20.1	4	6.3	4	-1E+10	1	-1E+10	1	-1E+10	1	-1E+10	1	-1E+10	1	-1E+10	1
4902551	21	C	03/08/2021	09:05	-135.594	49.797	0	637.70	0	3.7770	0	34.1950	0	27.173	0	631.273	0	19.3	4	6.1	4	-1E+10	1	-1E+10	1	-1E+10	1	-1E+10	1	-1E+10	1	-1E+10	1
4902551	21	C	03/08/2021	09:05	-135.594	49.797	0	662.90	0	3.7230	0	34.2100	0	27.190	0	656.179	0	18.2	4	5.7	4	-1E+10	1	-1E+10	1	-1E+10	1	-1E+10	1	-1E+10	1	-1E+10	1
4902551	21	C	03/08/2021	09:05	-135.594	49.797	0	688.10	0	3.6680	0	34.2250	0	27.208	0	681.083	0	17.4	4	5.5	4	-1E+10	1	-1E+10	1	-1E+10	1	-1E+10	1	-1E+10	1	-1E+10	1
4902551	21	C	03/08/2021	09:05	-135.594	49.797	0	713.10	0	3.6140	0	34.2380	0	27.224	0	705.785	0	16.7	4	5.2	4	-1E+10	1	-1E+10	1	-1E+10	1	-1E+10	1	-1E+10	1	-1E+10	1
4902551	21	C	03/08/2021	09:05	-135.594	49.797	0	737.90	0	3.5520	0	34.2530	0	27.242	0	730.288	0	16.1	4	5.0	4	-1E+10	1	-1E+10	1	-1E+10	1	-1E+10	1	-1E+10	1	-1E+10	1
4902551	21	C	03/08/2021	09:05	-135.594	49.797	0	763.50	0	3.5120	0	34.2620	0	27.253	0	755.577	0	15.8	4	4.9	4	-1E+10	1	-1E+10	1	-1E+10	1	-1E+10	1	-1E+10	1	-1E+10	1
4902551	21	C	03/08/2021	09:05	-135.594	49.797	0	787.60	0	3.4610	0	34.2720	0	27.266	0	779.382	0	15.4	4	4.8	4	-1E+10	1	-1E+10	1	-1E+10	1	-1E+10	1	-1E+10	1	-1E+10	1
4902551	21	C	03/08/2021	09:05	-135.594	49.797	0	812.90	0	3.3890	0	34.2870	0	27.285	0	804.369	0	15.0	4	4.7	4	-1E+10	1	-1E+10	1	-1E+10	1	-1E+10	1	-1E+10	1	-1E+10	1
4902551	21	C	03/08/2021	09:05	-135.594	49.797	0	838.00	0	3.3340	0	34.2990	0	27.300	0	829.156	0	14.6	4	4.5	4	-1E+10	1	-1E+10	1	-1E+10	1	-1E+10	1	-1E+10	1	-1E+10	1
4902551	21	C	03/08/2021	09:05	-135.594	49.797	0	863.10	0	3.2960	0	34.3080	0	27.311	0	853.940	0	14.4	4	4.5	4	-1E+10	1	-1E+10	1	-1E+10	1	-1E+10	1	-1E+10	1	-1E+10	1
4902551	21	C	03/08/2021	09:05	-135.594	49.797	0	887.70	0	3.2590	0	34.3150	0	27.320	0	878.227	0	14.3	4	4.4	4	-1E+10	1	-1E+10	1	-1E+10	1	-1E+10	1	-1E+10	1	-1E+10	1
4902551	21	C	03/08/2021	09:05	-135.594	49.797	0	912.90	0	3.2130	0	34.3250	0	27.332	0	903.104	0	13.9	4	4.3	4	-1E+10	1	-1E+10	1	-1E+10	1	-1E+10	1	-1E+10	1	-1E+10	1
4902551	21	C	03/08/2021	09:05	-135.594	49.797	0	938.20	0	3.1680	0	34.3350	0	27.345	0	928.077	0	13.7	4	4.3	4	-1E+10	1	-1E+10	1	-1E+10	1	-1E+10	1	-1E+10	1	-1E+10	1
4902551	21	C	03/08/2021	09:05	-135.594	49.797	0	962.80	0	3.1200	0	34.3460	0	27.358	0	952.355	0	13.7	4	4.3	4	-1E+10	1	-1E+10	1	-1E+10	1	-1E+10	1	-1E+10	1	-1E+10	1
4902551	21	C	03/08/2021	09:05	-135.594	49.797	0	987.90	0	3.0760	0	34.3550	0	27.369	0	977.124	0	13.7	4	4.2	4	-1E+10	1	-1E+10	1	-1E+10	1	-1E+10	1	-1E+10	1	-1E+10	1
4902551	21	C	03/08/2021	09:05	-135.594	49.797	0	1013.20	0	3.0240	0	34.3660	0	27.383	0	1002.088	0	13.5	4	4.2	4	-1E+10	1	-1E+10	1	-1E+10	1	-1E+10	1	-1E+10	1	-1E+10	1
4902551	21	C	03/08/2021	09:05	-135.594	49.797	0	1038.00	0	2.9810	0	34.3750	0	27.394	0	1026.555	0	13.5	4	4.2	4	-1E+10	1	-1E+10	1	-1E+10	1	-1E+10	1	-1E+10	1	-1E+10	1
4902551	21	C	03/08/2021	09:05	-135.594	49.797	0	1062.90	0	2.9420	0	34.3830	0	27.404	0	1051.118	0	13.5	4	4.2	4	-1E+10	1	-1E+10	1	-1E+10	1	-1E+10	1	-1E+10	1	-1E+10	1
4902551	21	C	03/08/2021	09:05	-135.594	49.797	0	1088.00	0	2.9020	0	34.3910	0	27.414	0	1075.876	0	13.6	4	4.2	4	-1E+10	1	-1E+10	1	-1E+10	1	-1E+10	1	-1E+10	1	-1E+10	1
4902551	21	C	03/08/2021	09:05	-135.594	49.797	0	1112.80	0	2.8660	0	34.3980	0	27.423	0	1100.335	0	13.5	4	4.2	4	-1E+10	1	-1E+10	1	-1E+10	1	-1E+10	1	-1E+10	1	-1E+10	1
4902551	21	C	03/08/2021	09:05	-135.594	49.797	0	1137.70	0	2.8340	0	34.4050	0	27.432	0	1124.889	0	13.7	4	4.2	4	-1E+10	1	-1E+10	1	-1E+10	1	-1E+10	1	-1E+10	1	-1E+10	1
4902551	21	C	03/08/2021	09:05	-135.594	49.797	0	1163.00	0	2.8110	0	34.4090	0	27.437	0	1149.835	0	13.7	4	4.2	4	-1E+10	1	-1E+10	1	-1E+10	1	-1E+10	1	-1E+10	1	-1E+10	1
4902551	21	C	03/08/2021	09:05	-135.594	49.797	0	1187.80	0	2.7820	0	34.4150	0	27.445	0	1174.285	0	13.8	4	4.2	4	-1E+10	1	-1E+10	1	-1E+10	1	-1E+10	1	-1E+10	1	-1E+10	1
4902551	21	C	03/08/2021	09:05	-135.594	49.797	0	1213.80	0	2.7520	0	34.4210	0	27.452	0	1199.915	0	14.0	4	4.3	4	-1E+10	1	-1E+10	1	-1E+10	1	-1E+10	1	-1E+10	1	-1E+10	1
4902551	21	C	03/08/2021	09:05	-135.594	49.797	0	1237.90	0	2.7310	0	34.4250	0	27.458	0	1223.669	0	14.1	4	4.3	4	-1E+10	1	-1E+10	1	-1E+10	1	-1E+10	1	-1E+10	1	-1E+10	1
4902551	21	C	03/08/2021	09:05	-135.594	49.797	0	1262.90	0	2.7030	0	34.4310	0	27.465	0	1248.308	0	14.4	4	4.4	4	-1E+10	1	-1E+10	1	-1E+10	1	-1E+10	1	-1E+10	1	-1E+10	1
4902551	21	C	03/08/2021	09:05	-135.594	49.797	0	1288.00	0	2.6670	0	34.4380	0	27.474	0	1273.042	0	14.7	4	4.5	4	-1E+10	1	-1E+10	1	-1E+10	1	-1E+10	1	-1E+10	1	-1E+10	1
4902551	21	C	03/08/2021	09:05	-135.594	49.797	0	1313.00	0	2.6300	0	34.4450	0	27.483	0	1297.675	0	15.3	4	4.7	4	-1E+10	1	-1E+10	1	-1E+10	1	-1E+10	1	-1E+10	1	-1E+10	1
4902551	21	C	03/08/2021	09:05	-135.594	49.797	0	1337.70	0	2.5880	0	34.4540	0	27.494	0	1322.009	0	15.6	4	4.8	4	-1E+10	1	-1E+10	1	-1E+10	1	-1E+10	1	-1E+10	1	-1E+10	1
4902551	21	C	03/08/2021	09:05	-135.594	49.797	0	1362.40	0	2.5570	0	34.4590	0	27.500	0	1346.340	0	16.3	4	5.0	4	-1E+10	1	-1E+10	1	-1E+10	1	-1E+10	1	-1E+10	1	-1E+10	1
4902551	21	C	03/08/2021	09:05	-135.594	49.797	0	1387.40	0	2.5250	0	34.4650	0	27.508	0	1370.964	0	17.0	4	5.2	4	-1E+10	1	-1E+10	1	-1E+10	1	-1E+10	1	-1E+10	1	-1E+10	1
4902551	21	C	03/08/2021	09:05	-135.594	49.797	0	1412.70	0	2.4940	0	34.4710	0	27.515	0	1395.881	0	17.8	4	5.4	4	-1E+10	1	-1E+10	1	-1E+10	1	-1E+10	1	-1E+10	1	-1E+10	1
4902551	21	C	03/08/2021	09:05	-135.594	49.797	0	1438.00	0	2.4610	0	34.4770	0	27.523	0	1420.795	0	18.7	4	5.7	4	-1E+10	1	-1E+10	1	-1E+10	1	-1E+10	1	-1E+10	1	-1E+10	1
4902551	21	C	03/08/2021	09:05	-135.594	49.797	0	1463.20	0	2.4320	0	34.4830	0	27.531	0	1445.607	0	19.7	4	6.0	4	-1E+10	1	-1E+10	1	-1E+10	1	-1E+10	1	-1E+10	1	-1E+10	1
4902551	21	C	03/08/2021	09:05	-135.594	49.797	0	1488.90	0	2.3920	0	34.4900	0	27.540	0	1470.908	0	21.0	4	6.4	4	-1E+10	1	-1E+10	1	-1E+10	1	-1E+10	1	-1E+10	1	-1E+10	1
4902551	21	C	03/08/2021	09:05	-135.594	49.797	0	1513.20	0	2.3550	0	34.4980	0	27.549	0	1494.829	0	22.3	4	6.8	4	-1E+10	1	-1E+10	1	-1E+10	1	-1E+10	1	-1E+10	1	-1E+10	1
4902551	21	C	03/08/2021	09:05	-135.594	49.797	0	1538.00	0	2.3240	0	34.5040	0	27.557	0	1519.239	0	23.7	4	7.2	4	-1E+10	1	-1E+10	1	-1E+10	1	-1E+10	1	-1E+10	1	-1E+10	1
4902551	21	C	03/08/2021	09:05	-135.594	49.797	0	1563.10	0	2.2940	0	34.5100	0	27.564	0	1543.941	0	25.2	4	7.6	4	-1E+10	1	-1E+10	1	-1E+10	1	-1E+10	1	-1E+10	1	-1E+10	1
4902551	21	C	03/08/2021	09:05	-135.594	49.797	0	1588.10	0	2.2590	0	34.5160	0	27.572	0	1568.542	0	27.0	4	8.2	4	-1E+10	1	-1E+10	1	-1E+10	1	-1E+10	1	-1E+10	1	-1E+10	1
4902551	21	C	03/08/2021	09:05	-135.594	49.797	0	1612.80	0	2.2250	0	34.5230	0	27.580	0	1592.845	0	28.8	4	8.7	4	-1E+10	1	-1E+10	1	-1E+10	1	-1E+10	1	-1E+10	1	-1E+10	1
4902551	21	C	03/08/2021	09:05	-135.594	49.797	0	1638.00	0	2.1990	0	34.5290	0	27.587	0	1617.637	0	30.2	4	9.1	4	-1E+10	1	-1E+10	1	-1E+10	1	-1E+10	1	-1E+10	1	-1E+10	1
4902551	21	C	03/08/2021	09:05	-135.594	49.797	0	1662.70	0	2.1830	0	34.5320	0	27.591	0	1641.934	0	31.3	4	9.5	4	-1E+10	1	-1E+10	1	-1E+10	1	-1E+10	1	-1E+10	1	-1E+10	1
4902551	21	C	03/08/2021	09:05	-135.594	49.797	0	1687.80	0	2.1650	0	34.5360	0	27.596	0	1666.622	0	32.6	4	9.9	4	-1E+10	1	-1E+10	1	-1E+10	1	-1E+10	1	-1E+10	1	-1E+10	1
4902551	21	C	03/08/2021	09:05	-135.594	49.797	0	1712.80	0	2.1490	0	34.5390	0	27.600	0	1691.209	0	33.8	4	10.2	4	-1E+10	1	-1E+10	1	-1E+10	1	-1E+10	1	-1E+10	1	-1E+10	1
4902551	21	C	03/08/2021	09:05	-135.594	49.797	0	1737.80	0	2.1300	0	34.5430	0	27.604	0	1715.793	0	35.2	4	10.6	4	-1E+10	1	-1E+10	1	-1E+10	1	-1E+10	1	-1E+10	1	-1E+10	1
4902551	21	C	03/08/2021	09:05	-135.594	49.797	0	1762.80	0	2.1130	0	34.5460	0	27.608	0	1740.374	0	36.5	4	11.0	4	-1E+10	1	-1E+10	1	-1E+10	1	-1E+10	1	-1E+10	1	-1E+10	1
4902551	21	C	03/08/2021	09:05	-135.594	49.797	0	1788.60	0	2.0970	0	34.5500	0	27.613	0	1765.738	0	37.7	4	11.4	4	-1E+10	1	-1E+10	1	-1E+10	1	-1E+10	1	-1E+10	1	-1E+10	1
4902551	21	C	03/08/2021	09:05	-135.594	49.797	0	1812.70	0	2.0820	0	34.5530	0	27.617	0	1789.429	0	39.0	4	11.8	4	-1E+10	1	-1E+10	1	-1E+10	1	-1E+10	1	-1E+10	1	-1E+10	1
4902551	21	C	03/08/2021	09:05	-135.594	49.797	0	1837.60	0	2.0640	0	34.5570	0	27.621	0	1813.903	0	40.6	4	12.3	4	-1E+10	1	-1E+10	1	-1E+10	1	-1E+10	1	-1E+10	1	-1E+10	1
4902551	21	C	03/08/2021	09:05	-135.594	49.797	0	1862.70	0	2.0440	0	34.5610	0	27.626	0	1838.571	0	42.1	4	12.7	4	-1E+10	1	-1E+10	1	-1E+10	1	-1E+10	1	-1E+10	1	-1E+10	1
4902551	21	C	03/08/2021	09:05	-135.594	49.797	0	1887.80	0	2.0290	0	34.5640	0	27.630	0	1863.236	0	43.6	4	13.2	4	-1E+10	1	-1E+10	1	-1E+10	1	-1E+10	1	-1E+10	1	-1E+10	1
4902551	21	C	03/08/2021	09:05	-135.594	49.797	0	1912.50	0	2.0060	0	34.5680	0	27.635	0	1887.505	0	45.4	4	13.7	4	-1E+10	1	-1E+10	1	-1E+10	1	-1E+10	1	-1E+10	1	-1E+10	1
4902551	21	C	03/08/2021	09:05	-135.594	49.797	0	1937.60	0	1.9910	0	34.5710	0	27.639	0	1912.164	0	46.8	4	14.1	4	-1E+10	1	-1E+10	1	-1E+10	1	-1E+10	1	-1E+10	1	-1E+10	1
4902551	21	C	03/08/2021	09:05	-135.594	49.797	0	1962.70	0	1.9780	0	34.5740	0	27.642	0	1936.820	0	47.9	4	14.4	4	-1E+10	1	-1E+10	1	-1E+10	1	-1E+10	1	-1E+10	1	-1E+10	1
4902551	21	C	03/08/2021	09:05	-135.594	49.797	0	1981.50	0	1.9670	0	34.5760	0	27.645	0	1955.286	0	49.0	4	14.7	4	-1E+10	1	-1E+10	1	-1E+10	1	-1E+10	1	-1E+10	1	-1E+10	1
4902551	21	C	03/08/2021	09:05	-135.594	49.797	0																										
4902551	22	C	03/18/2021	09:00	-135.327	49.796	0	1.30	0	6.8760	0	32.3330	0	25.335	0	1.289	0	284.9	4	94.9	4	-1E+10	1	-1E+10	1	-1E+10	1	-1E+10	1	-1E+10	1	-1E+10	1
4902551	22	C	03/18/2021	09:00	-135.327	49.796	0	1.90	0	6.8770	0	32.3330	0	25.335	0	1.884	0	284.9	4	94.9	4	-1E+10	1	-1E+10	1	-1E+10	1	-1E+10	1	-1E+10	1	-1E+10	1
4902551	22	C	03/18/2021	09:00	-135.327	49.796	0	3.00	0	6.8770	0	32.3340	0	25.336	0	2.974	0	284.9	4	94.9	4	-1E+10	1	-1E+10	1	-1E+10	1	-1E+10	1	-1E+10	1	-1E+10	1
4902551	22	C	03/18/2021	09:00	-135.327	49.796	0	3.90	0	6.8770	0	32.3340	0	25.336	0	3.867	0	284.9	4	94.9	4	-1E+10	1	-1E+10	1	-1E+10	1	-1E+10	1	-1E+10	1	-1E+10	1
4902551	22	C	03/18/2021	09:00	-135.327	49.796	0	4.80	0	6.8770	0	32.3340	0	25.336	0	4.759	0	284.8	4	94.9	4	-1E+10	1	-1E+10	1	-1E+10	1	-1E+10	1	-1E+10	1	-1E+10	1
4902551	22	C	03/18/2021	09:00	-135.327	49.796	0	5.80	0	6.8780	0	32.3340	0	25.336	0	5.750	0	284.9	4	94.9	4	-1E+10	1	-1E+10	1	-1E+10	1	-1E+10	1	-1E+10	1	-1E+10	1
4902551	22	C	03/18/2021	09:00	-135.327	49.796	0	7.00	0	6.8770	0	32.3340	0	25.336	0	6.940	0	284.8	4	94.9	4	-1E+10	1	-1E+10	1	-1E+10	1	-1E+10	1	-1E+10	1	-1E+10	1
4902551	22	C	03/18/2021	09:00	-135.327	49.796	0	8.10	0	6.8780	0	32.3340	0	25.336	0	8.031	0	284.8	4	94.9	4	-1E+10	1	-1E+10	1	-1E+10	1	-1E+10	1	-1E+10	1	-1E+10	1
4902551	22	C	03/18/2021	09:00	-135.327	49.796	0	9.00	0	6.8780	0	32.3340	0	25.336	0	8.923	0	284.7	4	94.9	4	-1E+10	1	-1E+10	1	-1E+10	1	-1E+10	1	-1E+10	1	-1E+10	1
4902551	22	C	03/18/2021	09:00	-135.327	49.796	0	10.20	0	6.8780	0	32.3340	0	25.336	0	10.112	0	284.7	4	94.9	4	-1E+10	1	-1E+10	1	-1E+10	1	-1E+10	1	-1E+10	1	-1E+10	1
4902551	22	C	03/18/2021	09:00	-135.327	49.796	0	15.70	0	6.8770	0	32.3350	0	25.337	0	15.565	0	284.6	4	94.9	4	-1E+10	1	-1E+10	1	-1E+10	1	-1E+10	1	-1E+10	1	-1E+10	1
4902551	22	C	03/18/2021	09:00	-135.327	49.796	0	25.20	0	6.8780	0	32.3350	0	25.337	0	24.983	0	284.6	4	94.8	4	-1E+10	1	-1E+10	1	-1E+10	1	-1E+10	1	-1E+10	1	-1E+10	1
4902551	22	C	03/18/2021	09:00	-135.327	49.796	0	35.50	0	6.8780	0	32.3360	0	25.338	0	35.193	0	284.5	4	94.8	4	-1E+10	1	-1E+10	1	-1E+10	1	-1E+10	1	-1E+10	1	-1E+10	1
4902551	22	C	03/18/2021	09:00	-135.327	49.796	0	45.60	0	6.8760	0	32.3400	0	25.341	0	45.205	0	284.2	4	94.7	4	-1E+10	1	-1E+10	1	-1E+10	1	-1E+10	1	-1E+10	1	-1E+10	1
4902551	22	C	03/18/2021	09:00	-135.327	49.796	0	55.70	0	6.8750	0	32.3440	0	25.344	0	55.216	0	283.7	4	94.6	4	-1E+10	1	-1E+10	1	-1E+10	1	-1E+10	1	-1E+10	1	-1E+10	1
4902551	22	C	03/18/2021	09:00	-135.327	49.796	0	65.70	0	6.8750	0	32.3450	0	25.345	0	65.128	0	282.8	4	94.2	4	-1E+10	1	-1E+10	1	-1E+10	1	-1E+10	1	-1E+10	1	-1E+10	1
4902551	22	C	03/18/2021	09:00	-135.327	49.796	0	75.30	0	6.8760	0	32.3460	0	25.346	0	74.642	0	281.5	4	93.8	4	-1E+10	1	-1E+10	1	-1E+10	1	-1E+10	1	-1E+10	1	-1E+10	1
4902551	22	C	03/18/2021	09:00	-135.327	49.796	0	85.40	0	6.8630	0	32.3500	0	25.351	0	84.652	0	278.8	4	92.9	4	-1E+10	1	-1E+10	1	-1E+10	1	-1E+10	1	-1E+10	1	-1E+10	1
4902551	22	C	03/18/2021	09:00	-135.327	49.796	0	95.30	0	6.7990	0	32.3620	0	25.369	0	94.463	0	267.7	4	89.1	4	-1E+10	1	-1E+10	1	-1E+10	1	-1E+10	1	-1E+10	1	-1E+10	1
4902551	22	C	03/18/2021	09:00	-135.327	49.796	0	105.20	0	6.7340	0	32.6450	0	25.601	0	104.273	0	224.2	4	74.6	4	-1E+10	1	-1E+10	1	-1E+10	1	-1E+10	1	-1E+10	1	-1E+10	1
4902551	22	C	03/18/2021	09:00	-135.327	49.796	0	115.20	0	6.5530	0	33.0200	0	25.920	0	114.183	0	182.4	4	60.6	4	-1E+10	1	-1E+10	1	-1E+10	1	-1E+10	1	-1E+10	1	-1E+10	1
4902551	22	C	03/18/2021	09:00	-135.327	49.796	0	125.50	0	6.3550	0	33.3320	0	26.191	0	124.389	0	161.0	4	53.4	4	-1E+10	1	-1E+10	1	-1E+10	1	-1E+10	1	-1E+10	1	-1E+10	1
4902551	22	C	03/18/2021	09:00	-135.327	49.796	0	135.40	0	6.2060	0	33.5270	0	26.364	0	134.198	0	148.6	4	49.2	4	-1E+10	1	-1E+10	1	-1E+10	1	-1E+10	1	-1E+10	1	-1E+10	1
4902551	22	C	03/18/2021	09:00	-135.327	49.796	0	145.10	0	6.0790	0	33.6350	0	26.466	0	143.808	0	141.9	4	46.9	4	-1E+10	1	-1E+10	1	-1E+10	1	-1E+10	1	-1E+10	1	-1E+10	1
4902551	22	C	03/18/2021	09:00	-135.327	49.796	0	155.30	0	5.9280	0	33.6920	0	26.530	0	153.914	0	136.5	4	45.0	4	-1E+10	1	-1E+10	1	-1E+10	1	-1E+10	1	-1E+10	1	-1E+10	1
4902551	22	C	03/18/2021	09:00	-135.327	49.796	0	165.80	0	5.7700	0	33.7360	0	26.584	0	164.316	0	128.9	4	42.3	4	-1E+10	1	-1E+10	1	-1E+10	1	-1E+10	1	-1E+10	1	-1E+10	1
4902551	22	C	03/18/2021	09:00	-135.327	49.796	0	175.60	0	5.6270	0	33.7670	0	26.626	0	174.024	0	121.7	4	39.8	4	-1E+10	1	-1E+10	1	-1E+10	1	-1E+10	1	-1E+10	1	-1E+10	1
4902551	22	C	03/18/2021	09:00	-135.327	49.796	0	185.60	0	5.4770	0	33.7910	0	26.663	0	183.930	0	115.0	4	37.5	4	-1E+10	1	-1E+10	1	-1E+10	1	-1E+10	1	-1E+10	1	-1E+10	1
4902551	22	C	03/18/2021	09:00	-135.327	49.796	0	195.50	0	5.3790	0	33.8030	0	26.684	0	193.736	0	111.2	4	36.2	4	-1E+10	1	-1E+10	1	-1E+10	1	-1E+10	1	-1E+10	1	-1E+10	1
4902551	22	C	03/18/2021	09:00	-135.327	49.796	0	212.80	0	5.2800	0	33.8140	0	26.705	0	210.871	0	105.9	4	34.4	4	-1E+10	1	-1E+10	1	-1E+10	1	-1E+10	1	-1E+10	1	-1E+10	1
4902551	22	C	03/18/2021	09:00	-135.327	49.796	0	238.10	0	5.0840	0	33.8300	0	26.740	0	235.927	0	97.9	4	31.6	4	-1E+10	1	-1E+10	1	-1E+10	1	-1E+10	1	-1E+10	1	-1E+10	1
4902551	22	C	03/18/2021	09:00	-135.327	49.796	0	263.30	0	4.9230	0	33.8480	0	26.773	0	260.881	0	88.8	4	28.6	4	-1E+10	1	-1E+10	1	-1E+10	1	-1E+10	1	-1E+10	1	-1E+10	1
4902551	22	C	03/18/2021	09:00	-135.327	49.796	0	288.20	0	4.7740	0	33.8700	0	26.807	0	285.535	0	78.6	4	25.2	4	-1E+10	1	-1E+10	1	-1E+10	1	-1E+10	1	-1E+10	1	-1E+10	1
4902551	22	C	03/18/2021	09:00	-135.327	49.796	0	313.50	0	4.6470	0	33.8980	0	26.844	0	310.583	0	68.2	4	21.8	4	-1E+10	1	-1E+10	1	-1E+10	1	-1E+10	1	-1E+10	1	-1E+10	1
4902551	22	C	03/18/2021	09:00	-135.327	49.796	0	337.40	0	4.5930	0	33.9250	0	26.871	0	334.241	0	58.7	4	18.8	4	-1E+10	1	-1E+10	1	-1E+10	1	-1E+10	1	-1E+10	1	-1E+10	1
4902551	22	C	03/18/2021	09:00	-135.327	49.796	0	362.70	0	4.5230	0	33.9620	0	26.908	0	359.282	0	49.7	4	15.9	4	-1E+10	1	-1E+10	1	-1E+10	1	-1E+10	1	-1E+10	1	-1E+10	1
4902551	22	C	03/18/2021	09:00	-135.327	49.796	0	387.80	0	4.4610	0	33.9910	0	26.938	0	384.122	0	43.5	4	13.9	4	-1E+10	1	-1E+10	1	-1E+10	1	-1E+10	1	-1E+10	1	-1E+10	1
4902551	22	C	03/18/2021	09:00	-135.327	49.796	0	412.70	0	4.3910	0	34.0160	0	26.966	0	408.762	0	38.8	4	12.4	4	-1E+10	1	-1E+10	1	-1E+10	1	-1E+10	1	-1E+10	1	-1E+10	1
4902551	22	C	03/18/2021	09:00	-135.327	49.796	0	438.00	0	4.3390	0	34.0350	0	26.987	0	433.794	0	35.6	4	11.3	4	-1E+10	1	-1E+10	1	-1E+10	1	-1E+10	1	-1E+10	1	-1E+10	1
4902551	22	C	03/18/2021	09:00	-135.327	49.796	0	463.20	0	4.2600	0	34.0540	0	27.010	0	458.724	0	32.4	4	10.3	4	-1E+10	1	-1E+10	1	-1E+10	1	-1E+10	1	-1E+10	1	-1E+10	1
4902551	22	C	03/18/2021	09:00	-135.327	49.796	0	487.50	0	4.1880	0	34.0780	0	27.037	0	482.761	0	28.8	4	9.1	4	-1E+10	1	-1E+10	1	-1E+10	1	-1E+10	1	-1E+10	1	-1E+10	1
4902551	22	C	03/18/2021	09:00	-135.327	49.796	0	512.50	0	4.1210	0	34.1030	0	27.064	0	507.487	0	25.8	4	8.2	4	-1E+10	1	-1E+10	1	-1E+10	1	-1E+10	1	-1E+10	1	-1E+10	1
4902551	22	C	03/18/2021	09:00	-135.327	49.796	0	537.90	0	4.0500	0	34.1290	0	27.092	0	532.606	0	23.0	4	7.3	4	-1E+10	1	-1E+10	1	-1E+10	1	-1E+10	1	-1E+10	1	-1E+10	1
4902551	22	C	03/18/2021	09:00	-135.327	49.796	0	563.00	0	3.9930	0	34.1480	0	27.113	0	557.426	0	21.6	4	6.8	4	-1E+10	1	-1E+10	1	-1E+10	1	-1E+10	1	-1E+10	1	-1E+10	1
4902551	22	C	03/18/2021	09:00	-135.327	49.796	0	587.90	0	3.9300	0	34.1600	0	27.129	0	582.044	0	20.9	4	6.6	4	-1E+10	1	-1E+10	1	-1E+10	1	-1E+10	1	-1E+10	1	-1E+10	1
4902551	22	C	03/18/2021	09:00	-135.327	49.796	0	612.50	0	3.8550	0	34.1800	0	27.153	0	606.364	0	19.4	4	6.1	4	-1E+10	1	-1E+10	1	-1E+10	1	-1E+10	1	-1E+10	1	-1E+10	1
4902551	22	C	03/18/2021	09:00	-135.327	49.796	0	638.30	0	3.7680	0	34.2020	0	27.179	0	631.866	0	18.3	4	5.7	4	-1E+10	1	-1E+10	1	-1E+10	1	-1E+10	1	-1E+10	1	-1E+10	1
4902551	22	C	03/18/2021	09:00	-135.327	49.796	0	662.80	0	3.7190	0	34.2180	0	27.197	0	656.080	0	17.3	4	5.4	4	-1E+10	1	-1E+10	1	-1E+10	1	-1E+10	1	-1E+10	1	-1E+10	1
4902551	22	C	03/18/2021	09:00	-135.327	49.796	0	687.70	0	3.6630	0	34.2300	0	27.212	0	680.687	0	16.9	4	5.3	4	-1E+10	1	-1E+10	1	-1E+10	1	-1E+10	1	-1E+10	1	-1E+10	1
4902551	22	C	03/18/2021	09:00	-135.327	49.796	0	712.60	0	3.6020	0	34.2430	0	27.229	0	705.291	0	16.5	4	5.2	4	-1E+10	1	-1E+10	1	-1E+10	1	-1E+10	1	-1E+10	1	-1E+10	1
4902551	22	C	03/18/2021	09:00	-135.327	49.796	0	737.40	0	3.5470	0	34.2540	0	27.243	0	729.794	0	16.1	4	5.0	4	-1E+10	1	-1E+10	1	-1E+10	1	-1E+10	1	-1E+10	1	-1E+10	1
4902551	22	C	03/18/2021	09:00	-135.327	49.796	0	763.80	0	3.4990	0	34.2650	0	27.257	0	755.874	0	15.6	4	4.9	4	-1E+10	1	-1E+10	1	-1E+10	1	-1E+10	1	-1E+10	1	-1E+10	1
4902551	22	C	03/18/2021	09:00	-135.327	49.796	0	788.20	0	3.4680	0	34.2730	0	27.266	0	779.975	0	15.2	4	4.8	4	-1E+10	1	-1E+10	1	-1E+10	1	-1E+10	1	-1E+10	1	-1E+10	1
4902551	22	C	03/18/2021	09:00	-135.327	49.796	0	812.90	0	3.4150	0	34.2860	0	27.282	0	804.369	0	14.8	4	4.6	4	-1E+10	1	-1E+10	1	-1E+10	1	-1E+10	1	-1E+10	1	-1E+10	1
4902551	22	C	03/18/2021	09:00	-135.327	49.796	0	837.70	0	3.3540	0	34.2980	0	27.297	0	828.860	0	14.5	4	4.5	4	-1E+10	1	-1E+10	1	-1E+10	1	-1E+10	1	-1E+10	1	-1E+10	1
4902551	22	C	03/18/2021	09:00	-135.327	49.796	0	862.90	0	3.3020	0	34.3080	0	27.310	0	853.743	0	14.3	4	4.4	4	-1E+10	1	-1E+10	1	-1E+10	1	-1E+10	1	-1E+10	1	-1E+10	1
4902551	22	C	03/18/2021	09:00	-135.327	49.796	0	887.90	0	3.2480	0	34.3190	0	27.324	0	878.425	0	14.1	4	4.4	4	-1E+10	1	-1E+10	1	-1E+10	1	-1E+10	1	-1E+10	1	-1E+10	1
4902551	22	C	03/18/2021	09:00	-135.327	49.796	0	913.20	0	3.1970	0	34.3300	0	27.338	0	903.400	0	13.9	4	4.3	4	-1E+10	1	-1E+10	1	-1E+10	1	-1E+10	1	-1E+10	1	-1E+10	1
4902551	22	C	03/18/2021	09:00	-135.327	49.796	0	937.80	0	3.1430	0	34.3410	0	27.352	0	927.682	0	13.7	4	4.3	4	-1E+10	1	-1E+10	1	-1E+10	1	-1E+10	1	-1E+10	1	-1E+10	1
4902551	22	C	03/18/2021	09:00	-135.327	49.796	0	963.70	0	3.0940	0	34.3510	0	27.364	0	953.243	0	13.6	4	4.2	4	-1E+10	1	-1E+10	1	-1E+10	1	-1E+10	1	-1E+10	1	-1E+10	1
4902551	22	C	03/18/2021	09:00	-135.327	49.796	0	987.80	0	3.0550	0	34.3600	0	27.375	0	977.026	0	13.5	4	4.2	4	-1E+10	1	-1E+10	1	-1E+10	1	-1E+10	1	-1E+10	1	-1E+10	1
4902551	22	C	03/18/2021	09:00	-135.327	49.796	0	1013.00	0	3.0210	0	34.3670	0	27.384	0	1001.891	0	13.5	4	4.2	4	-1E+10	1	-1E+10	1	-1E+10	1	-1E+10	1	-1E+10	1	-1E+10	1
4902551	22	C	03/18/2021	09:00	-135.327	49.796	0	1037.90	0	2.9840	0	34.3740	0	27.393	0	1026.457	0	13.5	4	4.2	4	-1E+10	1	-1E+10	1	-1E+10	1	-1E+10	1	-1E+10	1	-1E+10	1
4902551	22	C	03/18/2021	09:00	-135.327	49.796	0	1062.90	0	2.9440	0	34.3820	0	27.403	0	1051.119	0	13.5	4	4.2	4	-1E+10	1	-1E+10	1	-1E+10	1	-1E+10	1	-1E+10	1	-1E+10	1
4902551	22	C	03/18/2021	09:00	-135.327	49.796	0	1087.90	0	2.9040	0	34.3900	0	27.413	0	1075.777	0	13.5	4	4.2	4	-1E+10	1	-1E+10	1	-1E+10	1	-1E+10	1	-1E+10	1	-1E+10	1
4902551	22	C	03/18/2021	09:00	-135.327	49.796	0	1112.80	0	2.8710	0	34.3970	0	27.422	0	1100.335	0	13.6	4	4.2	4	-1E+10	1	-1E+10	1	-1E+10	1	-1E+10	1	-1E+10	1	-1E+10	1
4902551	22	C	03/18/2021	09:00	-135.327	49.796	0	1138.10	0	2.8390	0	34.4030	0	27.430	0	1125.283	0	13.7	4	4.2	4	-1E+10	1	-1E+10	1	-1E+10	1	-1E+10	1	-1E+10	1	-1E+10	1
4902551	22	C	03/18/2021	09:00	-135.327	49.796	0	1162.90	0	2.8090	0	34.4090	0	27.437	0	1149.736	0	13.8	4	4.2	4	-1E+10	1	-1E+10	1	-1E+10	1	-1E+10	1	-1E+10	1	-1E+10	1
4902551	22	C	03/18/2021	09:00	-135.327	49.796	0	1187.70	0	2.7780	0	34.4160	0	27.446	0	1174.186	0	13.9	4	4.3	4	-1E+10	1	-1E+10	1	-1E+10	1	-1E+10	1	-1E+10	1	-1E+10	1
4902551	22	C	03/18/2021	09:00	-135.327	49.796	0	1212.70	0	2.7400	0	34.4230	0	27.455	0	1198.831	0	14.1	4	4.3	4	-1E+10	1	-1E+10	1	-1E+10	1	-1E+10	1	-1E+10	1	-1E+10	1
4902551	22	C	03/18/2021	09:00	-135.327	49.796	0	1237.50	0	2.7020	0	34.4300	0	27.464	0	1223.275	0	14.4	4	4.4	4	-1E+10	1	-1E+10	1	-1E+10	1	-1E+10	1	-1E+10	1	-1E+10	1
4902551	22	C	03/18/2021	09:00	-135.327	49.796	0	1263.50	0	2.6570	0	34.4390	0	27.475	0	1248.899	0	14.8	4	4.5	4	-1E+10	1	-1E+10	1	-1E+10	1	-1E+10	1	-1E+10	1	-1E+10	1
4902551	22	C	03/18/2021	09:00	-135.327	49.796	0	1287.70	0	2.6060	0	34.4490	0	27.488	0	1272.746	0	15.4	4	4.7	4	-1E+10	1	-1E+10	1	-1E+10	1	-1E+10	1	-1E+10	1	-1E+10	1
4902551	22	C	03/18/2021	09:00	-135.327	49.796	0	1312.70	0	2.5660	0	34.4570	0	27.498	0	1297.379	0	16.1	4	4.9	4	-1E+10	1	-1E+10	1	-1E+10	1	-1E+10	1	-1E+10	1	-1E+10	1
4902551	22	C	03/18/2021	09:00	-135.327	49.796	0	1338.10	0	2.5340	0	34.4620	0	27.504	0	1322.403	0	16.6	4	5.1	4	-1E+10	1	-1E+10	1	-1E+10	1	-1E+10	1	-1E+10	1	-1E+10	1
4902551	22	C	03/18/2021	09:00	-135.327	49.796	0	1363.10	0	2.5120	0	34.4670	0	27.510	0	1347.030	0	17.2	4	5.2	4	-1E+10	1	-1E+10	1	-1E+10	1	-1E+10	1	-1E+10	1	-1E+10	1
4902551	22	C	03/18/2021	09:00	-135.327	49.796	0	1389.00	0	2.4850	0	34.4720	0	27.517	0	1372.540	0	17.8	4	5.4	4	-1E+10	1	-1E+10	1	-1E+10	1	-1E+10	1	-1E+10	1	-1E+10	1
4902551	22	C	03/18/2021	09:00	-135.327	49.796	0	1412.80	0	2.4580	0	34.4770	0	27.523	0	1395.980	0	18.6	4	5.7	4	-1E+10	1	-1E+10	1	-1E+10	1	-1E+10	1	-1E+10	1	-1E+10	1
4902551	22	C	03/18/2021	09:00	-135.327	49.796	0	1437.70	0	2.4300	0	34.4820	0	27.530	0	1420.499	0	19.2	4	5.9	4	-1E+10	1	-1E+10	1	-1E+10	1	-1E+10	1	-1E+10	1	-1E+10	1
4902551	22	C	03/18/2021	09:00	-135.327	49.796	0	1462.70	0	2.4130	0	34.4860	0	27.534	0	1445.115	0	19.9	4	6.0	4	-1E+10	1	-1E+10	1	-1E+10	1	-1E+10	1	-1E+10	1	-1E+10	1
4902551	22	C	03/18/2021	09:00	-135.327	49.796	0	1488.30	0	2.3890	0	34.4910	0	27.541	0	1470.318	0	20.8	4	6.3	4	-1E+10	1	-1E+10	1	-1E+10	1	-1E+10	1	-1E+10	1	-1E+10	1
4902551	22	C	03/18/2021	09:00	-135.327	49.796	0	1512.90	0	2.3540	0	34.4980	0	27.549	0	1494.534	0	22.3	4	6.8	4	-1E+10	1	-1E+10	1	-1E+10	1	-1E+10	1	-1E+10	1	-1E+10	1
4902551	22	C	03/18/2021	09:00	-135.327	49.796	0	1537.90	0	2.3260	0	34.5030	0	27.556	0	1519.141	0	23.4	4	7.1	4	-1E+10	1	-1E+10	1	-1E+10	1	-1E+10	1	-1E+10	1	-1E+10	1
4902551	22	C	03/18/2021	09:00	-135.327	49.796	0	1563.30	0	2.3030	0	34.5080	0	27.562	0	1544.138	0	24.6	4	7.5	4	-1E+10	1	-1E+10	1	-1E+10	1	-1E+10	1	-1E+10	1	-1E+10	1
4902551	22	C	03/18/2021	09:00	-135.327	49.796	0	1588.20	0	2.2670	0	34.5150	0	27.570	0	1568.641	0	26.5	4	8.0	4	-1E+10	1	-1E+10	1	-1E+10	1	-1E+10	1	-1E+10	1	-1E+10	1
4902551	22	C	03/18/2021	09:00	-135.327	49.796	0	1613.00	0	2.2400	0	34.5200	0	27.577	0	1593.042	0	28.1	4	8.5	4	-1E+10	1	-1E+10	1	-1E+10	1	-1E+10	1	-1E+10	1	-1E+10	1
4902551	22	C	03/18/2021	09:00	-135.327	49.796	0	1638.00	0	2.2070	0	34.5270	0	27.585	0	1617.637	0	30.2	4	9.1	4	-1E+10	1	-1E+10	1	-1E+10	1	-1E+10	1	-1E+10	1	-1E+10	1
4902551	22	C	03/18/2021	09:00	-135.327	49.796	0	1663.90	0	2.1760	0	34.5340	0	27.593	0	1643.115	0	31.9	4	9.7	4	-1E+10	1	-1E+10	1	-1E+10	1	-1E+10	1	-1E+10	1	-1E+10	1
4902551	22	C	03/18/2021	09:00	-135.327	49.796	0	1687.80	0	2.1570	0	34.5370	0	27.597	0	1666.622	0	33.1	4	10.0	4	-1E+10	1	-1E+10	1	-1E+10	1	-1E+10	1	-1E+10	1	-1E+10	1
4902551	22	C	03/18/2021	09:00	-135.327	49.796	0	1712.60	0	2.1410	0	34.5400	0	27.601	0	1691.012	0	34.3	4	10.4	4	-1E+10	1	-1E+10	1	-1E+10	1	-1E+10	1	-1E+10	1	-1E+10	1
4902551	22	C	03/18/2021	09:00	-135.327	49.796	0	1737.70	0	2.1260	0	34.5430	0	27.605	0	1715.694	0	35.4	4	10.7	4	-1E+10	1	-1E+10	1	-1E+10	1	-1E+10	1	-1E+10	1	-1E+10	1
4902551	22	C	03/18/2021	09:00	-135.327	49.796	0	1762.70	0	2.1110	0	34.5460	0	27.609	0	1740.275	0	36.5	4	11.0	4	-1E+10	1	-1E+10	1	-1E+10	1	-1E+10	1	-1E+10	1	-1E+10	1
4902551	22	C	03/18/2021	09:00	-135.327	49.796	0	1787.90	0	2.1010	0	34.5490	0	27.612	0	1765.050	0	37.4	4	11.3	4	-1E+10	1	-1E+10	1	-1E+10	1	-1E+10	1	-1E+10	1	-1E+10	1
4902551	22	C	03/18/2021	09:00	-135.327	49.796	0	1812.70	0	2.0830	0	34.5520	0	27.616	0	1789.429	0	39.0	4	11.8	4	-1E+10	1	-1E+10	1	-1E+10	1	-1E+10	1	-1E+10	1	-1E+10	1
4902551	22	C	03/18/2021	09:00	-135.327	49.796	0	1838.00	0	2.0670	0	34.5560	0	27.620	0	1814.296	0	40.3	4	12.2	4	-1E+10	1	-1E+10	1	-1E+10	1	-1E+10	1	-1E+10	1	-1E+10	1
4902551	22	C	03/18/2021	09:00	-135.327	49.796	0	1863.30	0	2.0470	0	34.5600	0	27.625	0	1839.161	0	41.7	4	12.6	4	-1E+10	1	-1E+10	1	-1E+10	1	-1E+10	1	-1E+10	1	-1E+10	1
4902551	22	C	03/18/2021	09:00	-135.327	49.796	0	1888.60	0	2.0340	0	34.5620	0	27.628	0	1864.022	0	43.1	4	13.0	4	-1E+10	1	-1E+10	1	-1E+10	1	-1E+10	1	-1E+10	1	-1E+10	1
4902551	22	C	03/18/2021	09:00	-135.327	49.796	0	1913.10	0	2.0120	0	34.5670	0	27.634	0	1888.094	0	45.1	4	13.6	4	-1E+10	1	-1E+10	1	-1E+10	1	-1E+10	1	-1E+10	1	-1E+10	1
4902551	22	C	03/18/2021	09:00	-135.327	49.796	0	1938.10	0	1.9870	0	34.5720	0	27.640	0	1912.655	0	47.0	4	14.2	4	-1E+10	1	-1E+10	1	-1E+10	1	-1E+10	1	-1E+10	1	-1E+10	1
4902551	22	C	03/18/2021	09:00	-135.327	49.796	0	1963.20	0	1.9720	0	34.5750	0	27.644	0	1937.312	0	48.4	4	14.6	4	-1E+10	1	-1E+10	1	-1E+10	1	-1E+10	1	-1E+10	1	-1E+10	1
4902551	22	C	03/18/2021	09:00	-135.327	49.796	0	1988.10	0	1.9550	0	34.5780	0	27.648	0	1961.769	0	50.0	4	15.1	4	-1E+10	1	-1E+10	1	-1E+10	1	-1E+10	1	-1E+10	1	-1E+10	1
4902551	22	C	03/18/2021	09:00	-135.327	49.796	0	2014.00	0	1.9390	0	34.5810	0	27.651	0	1987.205	0	51.1	4	15.4	4	-1E+10	1	-1E+10	1	-1E+10	1	-1E+10	1	-1E+10	1	-1E+10	1
4902551	22	C	03/18/2021	09:00	-135.327	49.796	0																										
4902551	23	C	03/28/2021	09:02	-135.091	49.700	0	0.80	0	7.0390	0	32.3380	0	25.317	0	0.793	0	286.6	4	95.9	4	-1E+10	1	-1E+10	1	-1E+10	1	-1E+10	1	-1E+10	1	-1E+10	1
4902551	23	C	03/28/2021	09:02	-135.091	49.700	0	2.00	0	7.0430	0	32.3340	0	25.314	0	1.983	0	286.6	4	95.9	4	-1E+10	1	-1E+10	1	-1E+10	1	-1E+10	1	-1E+10	1	-1E+10	1
4902551	23	C	03/28/2021	09:02	-135.091	49.700	0	3.10	0	7.0420	0	32.3350	0	25.315	0	3.073	0	286.6	4	95.9	4	-1E+10	1	-1E+10	1	-1E+10	1	-1E+10	1	-1E+10	1	-1E+10	1
4902551	23	C	03/28/2021	09:02	-135.091	49.700	0	4.00	0	7.0420	0	32.3360	0	25.315	0	3.966	0	286.6	4	95.9	4	-1E+10	1	-1E+10	1	-1E+10	1	-1E+10	1	-1E+10	1	-1E+10	1
4902551	23	C	03/28/2021	09:02	-135.091	49.700	0	4.80	0	7.0420	0	32.3370	0	25.316	0	4.759	0	286.6	4	95.9	4	-1E+10	1	-1E+10	1	-1E+10	1	-1E+10	1	-1E+10	1	-1E+10	1
4902551	23	C	03/28/2021	09:02	-135.091	49.700	0	6.00	0	7.0420	0	32.3370	0	25.316	0	5.949	0	286.6	4	95.9	4	-1E+10	1	-1E+10	1	-1E+10	1	-1E+10	1	-1E+10	1	-1E+10	1
4902551	23	C	03/28/2021	09:02	-135.091	49.700	0	7.00	0	7.0410	0	32.3370	0	25.316	0	6.940	0	286.6	4	95.9	4	-1E+10	1	-1E+10	1	-1E+10	1	-1E+10	1	-1E+10	1	-1E+10	1
4902551	23	C	03/28/2021	09:02	-135.091	49.700	0	8.00	0	7.0410	0	32.3370	0	25.316	0	7.931	0	286.5	4	95.8	4	-1E+10	1	-1E+10	1	-1E+10	1	-1E+10	1	-1E+10	1	-1E+10	1
4902551	23	C	03/28/2021	09:02	-135.091	49.700	0	8.80	0	7.0410	0	32.3370	0	25.316	0	8.725	0	286.5	4	95.8	4	-1E+10	1	-1E+10	1	-1E+10	1	-1E+10	1	-1E+10	1	-1E+10	1
4902551	23	C	03/28/2021	09:02	-135.091	49.700	0	9.70	0	7.0420	0	32.3370	0	25.316	0	9.617	0	286.5	4	95.8	4	-1E+10	1	-1E+10	1	-1E+10	1	-1E+10	1	-1E+10	1	-1E+10	1
4902551	23	C	03/28/2021	09:02	-135.091	49.700	0	15.10	0	7.0440	0	32.3360	0	25.315	0	14.970	0	286.3	4	95.8	4	-1E+10	1	-1E+10	1	-1E+10	1	-1E+10	1	-1E+10	1	-1E+10	1
4902551	23	C	03/28/2021	09:02	-135.091	49.700	0	25.90	0	7.0460	0	32.3370	0	25.316	0	25.677	0	286.1	4	95.7	4	-1E+10	1	-1E+10	1	-1E+10	1	-1E+10	1	-1E+10	1	-1E+10	1
4902551	23	C	03/28/2021	09:02	-135.091	49.700	0	35.80	0	7.0460	0	32.3370	0	25.316	0	35.491	0	286.0	4	95.7	4	-1E+10	1	-1E+10	1	-1E+10	1	-1E+10	1	-1E+10	1	-1E+10	1
4902551	23	C	03/28/2021	09:02	-135.091	49.700	0	45.50	0	7.0470	0	32.3370	0	25.316	0	45.106	0	285.5	4	95.5	4	-1E+10	1	-1E+10	1	-1E+10	1	-1E+10	1	-1E+10	1	-1E+10	1
4902551	23	C	03/28/2021	09:02	-135.091	49.700	0	55.70	0	7.0440	0	32.3370	0	25.317	0	55.217	0	284.7	4	95.2	4	-1E+10	1	-1E+10	1	-1E+10	1	-1E+10	1	-1E+10	1	-1E+10	1
4902551	23	C	03/28/2021	09:02	-135.091	49.700	0	65.00	0	7.0410	0	32.3370	0	25.317	0	64.434	0	283.7	4	94.9	4	-1E+10	1	-1E+10	1	-1E+10	1	-1E+10	1	-1E+10	1	-1E+10	1
4902551	23	C	03/28/2021	09:02	-135.091	49.700	0	75.20	0	7.0210	0	32.3390	0	25.321	0	74.544	0	280.3	4	93.7	4	-1E+10	1	-1E+10	1	-1E+10	1	-1E+10	1	-1E+10	1	-1E+10	1
4902551	23	C	03/28/2021	09:02	-135.091	49.700	0	85.10	0	6.9780	0	32.3670	0	25.349	0	84.355	0	267.0	4	89.2	4	-1E+10	1	-1E+10	1	-1E+10	1	-1E+10	1	-1E+10	1	-1E+10	1
4902551	23	C	03/28/2021	09:02	-135.091	49.700	0	95.40	0	6.9350	0	32.6120	0	25.548	0	94.563	0	232.3	4	77.7	4	-1E+10	1	-1E+10	1	-1E+10	1	-1E+10	1	-1E+10	1	-1E+10	1
4902551	23	C	03/28/2021	09:02	-135.091	49.700	0	105.30	0	6.7560	0	32.9900	0	25.870	0	104.374	0	199.8	4	66.7	4	-1E+10	1	-1E+10	1	-1E+10	1	-1E+10	1	-1E+10	1	-1E+10	1
4902551	23	C	03/28/2021	09:02	-135.091	49.700	0	115.40	0	6.5490	0	33.2800	0	26.125	0	114.382	0	176.6	4	58.8	4	-1E+10	1	-1E+10	1	-1E+10	1	-1E+10	1	-1E+10	1	-1E+10	1
4902551	23	C	03/28/2021	09:02	-135.091	49.700	0	125.60	0	6.3500	0	33.4600	0	26.293	0	124.489	0	158.3	4	52.5	4	-1E+10	1	-1E+10	1	-1E+10	1	-1E+10	1	-1E+10	1	-1E+10	1
4902551	23	C	03/28/2021	09:02	-135.091	49.700	0	135.30	0	6.1810	0	33.5720	0	26.403	0	134.100	0	147.1	4	48.7	4	-1E+10	1	-1E+10	1	-1E+10	1	-1E+10	1	-1E+10	1	-1E+10	1
4902551	23	C	03/28/2021	09:02	-135.091	49.700	0	145.10	0	6.0440	0	33.6520	0	26.484	0	143.809	0	140.3	4	46.3	4	-1E+10	1	-1E+10	1	-1E+10	1	-1E+10	1	-1E+10	1	-1E+10	1
4902551	23	C	03/28/2021	09:02	-135.091	49.700	0	155.10	0	5.8880	0	33.7060	0	26.546	0	153.717	0	133.5	4	43.9	4	-1E+10	1	-1E+10	1	-1E+10	1	-1E+10	1	-1E+10	1	-1E+10	1
4902551	23	C	03/28/2021	09:02	-135.091	49.700	0	165.20	0	5.7470	0	33.7420	0	26.592	0	163.723	0	126.0	4	41.3	4	-1E+10	1	-1E+10	1	-1E+10	1	-1E+10	1	-1E+10	1	-1E+10	1
4902551	23	C	03/28/2021	09:02	-135.091	49.700	0	175.10	0	5.5830	0	33.7750	0	26.638	0	173.530	0	120.6	4	39.4	4	-1E+10	1	-1E+10	1	-1E+10	1	-1E+10	1	-1E+10	1	-1E+10	1
4902551	23	C	03/28/2021	09:02	-135.091	49.700	0	185.20	0	5.5170	0	33.7840	0	26.653	0	183.535	0	116.7	4	38.1	4	-1E+10	1	-1E+10	1	-1E+10	1	-1E+10	1	-1E+10	1	-1E+10	1
4902551	23	C	03/28/2021	09:02	-135.091	49.700	0	195.50	0	5.4090	0	33.7960	0	26.675	0	193.738	0	111.5	4	36.3	4	-1E+10	1	-1E+10	1	-1E+10	1	-1E+10	1	-1E+10	1	-1E+10	1
4902551	23	C	03/28/2021	09:02	-135.091	49.700	0	213.30	0	5.2550	0	33.8170	0	26.710	0	211.368	0	102.1	4	33.1	4	-1E+10	1	-1E+10	1	-1E+10	1	-1E+10	1	-1E+10	1	-1E+10	1
4902551	23	C	03/28/2021	09:02	-135.091	49.700	0	238.30	0	5.0460	0	33.8410	0	26.753	0	236.127	0	91.9	4	29.7	4	-1E+10	1	-1E+10	1	-1E+10	1	-1E+10	1	-1E+10	1	-1E+10	1
4902551	23	C	03/28/2021	09:02	-135.091	49.700	0	262.80	0	4.8400	0	33.8590	0	26.791	0	260.389	0	83.5	4	26.8	4	-1E+10	1	-1E+10	1	-1E+10	1	-1E+10	1	-1E+10	1	-1E+10	1
4902551	23	C	03/28/2021	09:02	-135.091	49.700	0	287.90	0	4.7270	0	33.8840	0	26.824	0	285.241	0	72.9	4	23.4	4	-1E+10	1	-1E+10	1	-1E+10	1	-1E+10	1	-1E+10	1	-1E+10	1
4902551	23	C	03/28/2021	09:02	-135.091	49.700	0	313.00	0	4.6670	0	33.9070	0	26.849	0	310.090	0	64.2	4	20.6	4	-1E+10	1	-1E+10	1	-1E+10	1	-1E+10	1	-1E+10	1	-1E+10	1
4902551	23	C	03/28/2021	09:02	-135.091	49.700	0	338.20	0	4.5740	0	33.9330	0	26.880	0	335.036	0	56.8	4	18.2	4	-1E+10	1	-1E+10	1	-1E+10	1	-1E+10	1	-1E+10	1	-1E+10	1
4902551	23	C	03/28/2021	09:02	-135.091	49.700	0	363.30	0	4.5330	0	33.9590	0	26.905	0	359.879	0	49.9	4	15.9	4	-1E+10	1	-1E+10	1	-1E+10	1	-1E+10	1	-1E+10	1	-1E+10	1
4902551	23	C	03/28/2021	09:02	-135.091	49.700	0	388.90	0	4.4610	0	33.9810	0	26.930	0	385.214	0	45.5	4	14.5	4	-1E+10	1	-1E+10	1	-1E+10	1	-1E+10	1	-1E+10	1	-1E+10	1
4902551	23	C	03/28/2021	09:02	-135.091	49.700	0	412.60	0	4.3910	0	33.9980	0	26.952	0	408.666	0	42.1	4	13.4	4	-1E+10	1	-1E+10	1	-1E+10	1	-1E+10	1	-1E+10	1	-1E+10	1
4902551	23	C	03/28/2021	09:02	-135.091	49.700	0	437.60	0	4.3510	0	34.0220	0	26.975	0	433.402	0	37.5	4	11.9	4	-1E+10	1	-1E+10	1	-1E+10	1	-1E+10	1	-1E+10	1	-1E+10	1
4902551	23	C	03/28/2021	09:02	-135.091	49.700	0	462.80	0	4.2620	0	34.0480	0	27.005	0	458.332	0	34.6	4	11.0	4	-1E+10	1	-1E+10	1	-1E+10	1	-1E+10	1	-1E+10	1	-1E+10	1
4902551	23	C	03/28/2021	09:02	-135.091	49.700	0	488.20	0	4.2050	0	34.0650	0	27.025	0	483.458	0	32.5	4	10.3	4	-1E+10	1	-1E+10	1	-1E+10	1	-1E+10	1	-1E+10	1	-1E+10	1
4902551	23	C	03/28/2021	09:02	-135.091	49.700	0	513.30	0	4.1750	0	34.0780	0	27.039	0	508.283	0	29.5	4	9.4	4	-1E+10	1	-1E+10	1	-1E+10	1	-1E+10	1	-1E+10	1	-1E+10	1
4902551	23	C	03/28/2021	09:02	-135.091	49.700	0	537.80	0	4.0870	0	34.1070	0	27.071	0	532.512	0	25.9	4	8.2	4	-1E+10	1	-1E+10	1	-1E+10	1	-1E+10	1	-1E+10	1	-1E+10	1
4902551	23	C	03/28/2021	09:02	-135.091	49.700	0	562.40	0	4.0020	0	34.1320	0	27.100	0	556.837	0	23.6	4	7.4	4	-1E+10	1	-1E+10	1	-1E+10	1	-1E+10	1	-1E+10	1	-1E+10	1
4902551	23	C	03/28/2021	09:02	-135.091	49.700	0	587.60	0	3.9340	0	34.1540	0	27.124	0	581.753	0	21.7	4	6.9	4	-1E+10	1	-1E+10	1	-1E+10	1	-1E+10	1	-1E+10	1	-1E+10	1
4902551	23	C	03/28/2021	09:02	-135.091	49.700	0	613.80	0	3.8690	0	34.1720	0	27.145	0	607.654	0	20.4	4	6.4	4	-1E+10	1	-1E+10	1	-1E+10	1	-1E+10	1	-1E+10	1	-1E+10	1
4902551	23	C	03/28/2021	09:02	-135.091	49.700	0	638.20	0	3.8090	0	34.1890	0	27.165	0	631.773	0	19.4	4	6.1	4	-1E+10	1	-1E+10	1	-1E+10	1	-1E+10	1	-1E+10	1	-1E+10	1
4902551	23	C	03/28/2021	09:02	-135.091	49.700	0	663.00	0	3.7570	0	34.2030	0	27.182	0	656.284	0	18.5	4	5.8	4	-1E+10	1	-1E+10	1	-1E+10	1	-1E+10	1	-1E+10	1	-1E+10	1
4902551	23	C	03/28/2021	09:02	-135.091	49.700	0	687.80	0	3.7100	0	34.2150	0	27.196	0	680.792	0	17.8	4	5.6	4	-1E+10	1	-1E+10	1	-1E+10	1	-1E+10	1	-1E+10	1	-1E+10	1
4902551	23	C	03/28/2021	09:02	-135.091	49.700	0	712.60	0	3.6700	0	34.2270	0	27.210	0	705.298	0	17.1	4	5.3	4	-1E+10	1	-1E+10	1	-1E+10	1	-1E+10	1	-1E+10	1	-1E+10	1
4902551	23	C	03/28/2021	09:02	-135.091	49.700	0	737.60	0	3.6000	0	34.2450	0	27.231	0	729.998	0	16.2	4	5.1	4	-1E+10	1	-1E+10	1	-1E+10	1	-1E+10	1	-1E+10	1	-1E+10	1
4902551	23	C	03/28/2021	09:02	-135.091	49.700	0	762.80	0	3.5150	0	34.2620	0	27.253	0	754.892	0	15.6	4	4.9	4	-1E+10	1	-1E+10	1	-1E+10	1	-1E+10	1	-1E+10	1	-1E+10	1
4902551	23	C	03/28/2021	09:02	-135.091	49.700	0	787.80	0	3.4260	0	34.2810	0	27.277	0	779.587	0	15.1	4	4.7	4	-1E+10	1	-1E+10	1	-1E+10	1	-1E+10	1	-1E+10	1	-1E+10	1
4902551	23	C	03/28/2021	09:02	-135.091	49.700	0	813.70	0	3.3870	0	34.2890	0	27.287	0	805.167	0	14.8	4	4.6	4	-1E+10	1	-1E+10	1	-1E+10	1	-1E+10	1	-1E+10	1	-1E+10	1
4902551	23	C	03/28/2021	09:02	-135.091	49.700	0	837.70	0	3.3250	0	34.3030	0	27.304	0	828.867	0	14.5	4	4.5	4	-1E+10	1	-1E+10	1	-1E+10	1	-1E+10	1	-1E+10	1	-1E+10	1
4902551	23	C	03/28/2021	09:02	-135.091	49.700	0	862.70	0	3.2790	0	34.3130	0	27.316	0	853.553	0	14.2	4	4.4	4	-1E+10	1	-1E+10	1	-1E+10	1	-1E+10	1	-1E+10	1	-1E+10	1
4902551	23	C	03/28/2021	09:02	-135.091	49.700	0	887.80	0	3.2260	0	34.3240	0	27.330	0	878.334	0	14.0	4	4.3	4	-1E+10	1	-1E+10	1	-1E+10	1	-1E+10	1	-1E+10	1	-1E+10	1
4902551	23	C	03/28/2021	09:02	-135.091	49.700	0	913.20	0	3.1950	0	34.3300	0	27.338	0	903.408	0	13.9	4	4.3	4	-1E+10	1	-1E+10	1	-1E+10	1	-1E+10	1	-1E+10	1	-1E+10	1
4902551	23	C	03/28/2021	09:02	-135.091	49.700	0	938.40	0	3.1590	0	34.3380	0	27.348	0	928.282	0	13.8	4	4.3	4	-1E+10	1	-1E+10	1	-1E+10	1	-1E+10	1	-1E+10	1	-1E+10	1
4902551	23	C	03/28/2021	09:02	-135.091	49.700	0	962.90	0	3.1210	0	34.3460	0	27.358	0	952.462	0	13.6	4	4.2	4	-1E+10	1	-1E+10	1	-1E+10	1	-1E+10	1	-1E+10	1	-1E+10	1
4902551	23	C	03/28/2021	09:02	-135.091	49.700	0	987.90	0	3.0810	0	34.3540	0	27.368	0	977.133	0	13.6	4	4.2	4	-1E+10	1	-1E+10	1	-1E+10	1	-1E+10	1	-1E+10	1	-1E+10	1
4902551	23	C	03/28/2021	09:02	-135.091	49.700	0	1013.90	0	3.0380	0	34.3630	0	27.379	0	1002.788	0	13.5	4	4.2	4	-1E+10	1	-1E+10	1	-1E+10	1	-1E+10	1	-1E+10	1	-1E+10	1
4902551	23	C	03/28/2021	09:02	-135.091	49.700	0	1037.60	0	2.9930	0	34.3720	0	27.391	0	1026.170	0	13.5	4	4.2	4	-1E+10	1	-1E+10	1	-1E+10	1	-1E+10	1	-1E+10	1	-1E+10	1
4902551	23	C	03/28/2021	09:02	-135.091	49.700	0	1062.90	0	2.9610	0	34.3790	0	27.399	0	1051.128	0	13.5	4	4.2	4	-1E+10	1	-1E+10	1	-1E+10	1	-1E+10	1	-1E+10	1	-1E+10	1
4902551	23	C	03/28/2021	09:02	-135.091	49.700	0	1087.90	0	2.9280	0	34.3860	0	27.408	0	1075.787	0	13.5	4	4.2	4	-1E+10	1	-1E+10	1	-1E+10	1	-1E+10	1	-1E+10	1	-1E+10	1
4902551	23	C	03/28/2021	09:02	-135.091	49.700	0	1112.50	0	2.8870	0	34.3940	0	27.418	0	1100.048	0	13.6	4	4.2	4	-1E+10	1	-1E+10	1	-1E+10	1	-1E+10	1	-1E+10	1	-1E+10	1
4902551	23	C	03/28/2021	09:02	-135.091	49.700	0	1137.70	0	2.8450	0	34.4020	0	27.429	0	1124.899	0	13.6	4	4.2	4	-1E+10	1	-1E+10	1	-1E+10	1	-1E+10	1	-1E+10	1	-1E+10	1
4902551	23	C	03/28/2021	09:02	-135.091	49.700	0	1162.70	0	2.8090	0	34.4090	0	27.437	0	1149.549	0	13.8	4	4.2	4	-1E+10	1	-1E+10	1	-1E+10	1	-1E+10	1	-1E+10	1	-1E+10	1
4902551	23	C	03/28/2021	09:02	-135.091	49.700	0	1188.10	0	2.7730	0	34.4170	0	27.447	0	1174.591	0	13.9	4	4.3	4	-1E+10	1	-1E+10	1	-1E+10	1	-1E+10	1	-1E+10	1	-1E+10	1
4902551	23	C	03/28/2021	09:02	-135.091	49.700	0	1212.60	0	2.7340	0	34.4240	0	27.456	0	1198.743	0	14.1	4	4.3	4	-1E+10	1	-1E+10	1	-1E+10	1	-1E+10	1	-1E+10	1	-1E+10	1
4902551	23	C	03/28/2021	09:02	-135.091	49.700	0	1237.50	0	2.6940	0	34.4320	0	27.466	0	1223.286	0	14.4	4	4.4	4	-1E+10	1	-1E+10	1	-1E+10	1	-1E+10	1	-1E+10	1	-1E+10	1
4902551	23	C	03/28/2021	09:02	-135.091	49.700	0	1262.60	0	2.6600	0	34.4380	0	27.474	0	1248.023	0	14.7	4	4.5	4	-1E+10	1	-1E+10	1	-1E+10	1	-1E+10	1	-1E+10	1	-1E+10	1
4902551	23	C	03/28/2021	09:02	-135.091	49.700	0	1287.60	0	2.6370	0	34.4430	0	27.480	0	1272.659	0	14.9	4	4.6	4	-1E+10	1	-1E+10	1	-1E+10	1	-1E+10	1	-1E+10	1	-1E+10	1
4902551	23	C	03/28/2021	09:02	-135.091	49.700	0	1312.50	0	2.6130	0	34.4480	0	27.486	0	1297.193	0	15.3	4	4.7	4	-1E+10	1	-1E+10	1	-1E+10	1	-1E+10	1	-1E+10	1	-1E+10	1
4902551	23	C	03/28/2021	09:02	-135.091	49.700	0	1337.40	0	2.5770	0	34.4540	0	27.494	0	1321.725	0	15.9	4	4.8	4	-1E+10	1	-1E+10	1	-1E+10	1	-1E+10	1	-1E+10	1	-1E+10	1
4902551	23	C	03/28/2021	09:02	-135.091	49.700	0	1362.70	0	2.5420	0	34.4610	0	27.503	0	1346.648	0	16.5	4	5.0	4	-1E+10	1	-1E+10	1	-1E+10	1	-1E+10	1	-1E+10	1	-1E+10	1
4902551	23	C	03/28/2021	09:02	-135.091	49.700	0	1387.80	0	2.5090	0	34.4680	0	27.512	0	1371.370	0	17.1	4	5.2	4	-1E+10	1	-1E+10	1	-1E+10	1	-1E+10	1	-1E+10	1	-1E+10	1
4902551	23	C	03/28/2021	09:02	-135.091	49.700	0	1413.60	0	2.4750	0	34.4740	0	27.519	0	1396.780	0	18.1	4	5.5	4	-1E+10	1	-1E+10	1	-1E+10	1	-1E+10	1	-1E+10	1	-1E+10	1
4902551	23	C	03/28/2021	09:02	-135.091	49.700	0	1438.00	0	2.4310	0	34.4830	0	27.530	0	1420.807	0	19.3	4	5.9	4	-1E+10	1	-1E+10	1	-1E+10	1	-1E+10	1	-1E+10	1	-1E+10	1
4902551	23	C	03/28/2021	09:02	-135.091	49.700	0	1463.00	0	2.3970	0	34.4900	0	27.539	0	1445.423	0	20.4	4	6.2	4	-1E+10	1	-1E+10	1	-1E+10	1	-1E+10	1	-1E+10	1	-1E+10	1
4902551	23	C	03/28/2021	09:02	-135.091	49.700	0	1487.60	0	2.3770	0	34.4930	0	27.543	0	1469.642	0	21.2	4	6.5	4	-1E+10	1	-1E+10	1	-1E+10	1	-1E+10	1	-1E+10	1	-1E+10	1
4902551	23	C	03/28/2021	09:02	-135.091	49.700	0	1512.90	0	2.3570	0	34.4970	0	27.548	0	1494.547	0	22.2	4	6.7	4	-1E+10	1	-1E+10	1	-1E+10	1	-1E+10	1	-1E+10	1	-1E+10	1
4902551	23	C	03/28/2021	09:02	-135.091	49.700	0	1538.00	0	2.3370	0	34.5010	0	27.553	0	1519.252	0	23.2	4	7.0	4	-1E+10	1	-1E+10	1	-1E+10	1	-1E+10	1	-1E+10	1	-1E+10	1
4902551	23	C	03/28/2021	09:02	-135.091	49.700	0	1562.70	0	2.3190	0	34.5050	0	27.558	0	1543.561	0	24.0	4	7.3	4	-1E+10	1	-1E+10	1	-1E+10	1	-1E+10	1	-1E+10	1	-1E+10	1
4902551	23	C	03/28/2021	09:02	-135.091	49.700	0	1587.90	0	2.2990	0	34.5080	0	27.562	0	1568.359	0	25.1	4	7.6	4	-1E+10	1	-1E+10	1	-1E+10	1	-1E+10	1	-1E+10	1	-1E+10	1
4902551	23	C	03/28/2021	09:02	-135.091	49.700	0	1613.00	0	2.2780	0	34.5130	0	27.568	0	1593.056	0	26.1	4	7.9	4	-1E+10	1	-1E+10	1	-1E+10	1	-1E+10	1	-1E+10	1	-1E+10	1
4902551	23	C	03/28/2021	09:02	-135.091	49.700	0	1638.20	0	2.2540	0	34.5170	0	27.573	0	1617.848	0	27.6	4	8.4	4	-1E+10	1	-1E+10	1	-1E+10	1	-1E+10	1	-1E+10	1	-1E+10	1
4902551	23	C	03/28/2021	09:02	-135.091	49.700	0	1663.20	0	2.2250	0	34.5230	0	27.581	0	1642.441	0	29.5	4	8.9	4	-1E+10	1	-1E+10	1	-1E+10	1	-1E+10	1	-1E+10	1	-1E+10	1
4902551	23	C	03/28/2021	09:02	-135.091	49.700	0	1688.00	0	2.1820	0	34.5320	0	27.591	0	1666.834	0	31.9	4	9.7	4	-1E+10	1	-1E+10	1	-1E+10	1	-1E+10	1	-1E+10	1	-1E+10	1
4902551	23	C	03/28/2021	09:02	-135.091	49.700	0	1712.90	0	2.1560	0	34.5370	0	27.597	0	1691.322	0	33.6	4	10.2	4	-1E+10	1	-1E+10	1	-1E+10	1	-1E+10	1	-1E+10	1	-1E+10	1
4902551	23	C	03/28/2021	09:02	-135.091	49.700	0	1738.00	0	2.1370	0	34.5410	0	27.602	0	1716.005	0	35.1	4	10.6	4	-1E+10	1	-1E+10	1	-1E+10	1	-1E+10	1	-1E+10	1	-1E+10	1
4902551	23	C	03/28/2021	09:02	-135.091	49.700	0	1762.50	0	2.1160	0	34.5450	0	27.607	0	1740.094	0	36.6	4	11.1	4	-1E+10	1	-1E+10	1	-1E+10	1	-1E+10	1	-1E+10	1	-1E+10	1
4902551	23	C	03/28/2021	09:02	-135.091	49.700	0	1787.60	0	2.0880	0	34.5510	0	27.614	0	1764.771	0	38.8	4	11.7	4	-1E+10	1	-1E+10	1	-1E+10	1	-1E+10	1	-1E+10	1	-1E+10	1
4902551	23	C	03/28/2021	09:02	-135.091	49.700	0	1812.40	0	2.0600	0	34.5570	0	27.622	0	1789.150	0	40.7	4	12.3	4	-1E+10	1	-1E+10	1	-1E+10	1	-1E+10	1	-1E+10	1	-1E+10	1
4902551	23	C	03/28/2021	09:02	-135.091	49.700	0	1838.30	0	2.0420	0	34.5600	0	27.626	0	1814.607	0	42.1	4	12.7	4	-1E+10	1	-1E+10	1	-1E+10	1	-1E+10	1	-1E+10	1	-1E+10	1
4902551	23	C	03/28/2021	09:02	-135.091	49.700	0	1862.70	0	2.0270	0	34.5630	0	27.629	0	1838.587	0	43.3	4	13.1	4	-1E+10	1	-1E+10	1	-1E+10	1	-1E+10	1	-1E+10	1	-1E+10	1
4902551	23	C	03/28/2021	09:02	-135.091	49.700	0	1888.00	0	2.0130	0	34.5660	0	27.633	0	1863.449	0	44.6	4	13.4	4	-1E+10	1	-1E+10	1	-1E+10	1	-1E+10	1	-1E+10	1	-1E+10	1
4902551	23	C	03/28/2021	09:02	-135.091	49.700	0	1912.70	0	2.0000	0	34.5690	0	27.636	0	1887.718	0	45.8	4	13.8	4	-1E+10	1	-1E+10	1	-1E+10	1	-1E+10	1	-1E+10	1	-1E+10	1
4902551	23	C	03/28/2021	09:02	-135.091	49.700	0	1937.60	0	1.9830	0	34.5720	0	27.640	0	1912.181	0	47.2	4	14.2	4	-1E+10	1	-1E+10	1	-1E+10	1	-1E+10	1	-1E+10	1	-1E+10	1
4902551	23	C	03/28/2021	09:02	-135.091	49.700	0	1962.70	0	1.9710	0	34.5750	0	27.644	0	1936.838	0	48.2	4	14.5	4	-1E+10	1	-1E+10	1	-1E+10	1	-1E+10	1	-1E+10	1	-1E+10	1
4902551	23	C	03/28/2021	09:02	-135.091	49.700	0	1984.90	0	1.9640	0	34.5760	0	27.645	0	1958.643	0	48.4	4	14.6	4	-1E+10	1	-1E+10	1	-1E+10	1	-1E+10	1	-1E+10	1	-1E+10	1
4902551	23	C	03/28/2021	09:02	-135.091	49.700	0																										
4902551	24	C	04/07/2021	09:01	-134.878	49.692	0	0.40	0	7.0320	0	32.3500	0	25.328	0	0.397	0	288.5	4	96.5	4	-1E+10	1	-1E+10	1	-1E+10	1	-1E+10	1	-1E+10	1	-1E+10	1
4902551	24	C	04/07/2021	09:01	-134.878	49.692	0	1.10	0	7.0310	0	32.3500	0	25.328	0	1.091	0	288.5	4	96.5	4	-1E+10	1	-1E+10	1	-1E+10	1	-1E+10	1	-1E+10	1	-1E+10	1
4902551	24	C	04/07/2021	09:01	-134.878	49.692	0	2.10	0	7.0320	0	32.3510	0	25.329	0	2.082	0	288.4	4	96.5	4	-1E+10	1	-1E+10	1	-1E+10	1	-1E+10	1	-1E+10	1	-1E+10	1
4902551	24	C	04/07/2021	09:01	-134.878	49.692	0	3.10	0	7.0340	0	32.3500	0	25.328	0	3.073	0	288.4	4	96.5	4	-1E+10	1	-1E+10	1	-1E+10	1	-1E+10	1	-1E+10	1	-1E+10	1
4902551	24	C	04/07/2021	09:01	-134.878	49.692	0	3.90	0	7.0330	0	32.3510	0	25.328	0	3.867	0	288.5	4	96.5	4	-1E+10	1	-1E+10	1	-1E+10	1	-1E+10	1	-1E+10	1	-1E+10	1
4902551	24	C	04/07/2021	09:01	-134.878	49.692	0	4.90	0	7.0340	0	32.3510	0	25.328	0	4.858	0	288.3	4	96.4	4	-1E+10	1	-1E+10	1	-1E+10	1	-1E+10	1	-1E+10	1	-1E+10	1
4902551	24	C	04/07/2021	09:01	-134.878	49.692	0	6.20	0	7.0370	0	32.3510	0	25.328	0	6.147	0	288.3	4	96.4	4	-1E+10	1	-1E+10	1	-1E+10	1	-1E+10	1	-1E+10	1	-1E+10	1
4902551	24	C	04/07/2021	09:01	-134.878	49.692	0	7.10	0	7.0370	0	32.3510	0	25.328	0	7.039	0	288.3	4	96.4	4	-1E+10	1	-1E+10	1	-1E+10	1	-1E+10	1	-1E+10	1	-1E+10	1
4902551	24	C	04/07/2021	09:01	-134.878	49.692	0	7.80	0	7.0370	0	32.3510	0	25.328	0	7.733	0	288.3	4	96.4	4	-1E+10	1	-1E+10	1	-1E+10	1	-1E+10	1	-1E+10	1	-1E+10	1
4902551	24	C	04/07/2021	09:01	-134.878	49.692	0	9.00	0	7.0380	0	32.3510	0	25.328	0	8.923	0	288.2	4	96.4	4	-1E+10	1	-1E+10	1	-1E+10	1	-1E+10	1	-1E+10	1	-1E+10	1
4902551	24	C	04/07/2021	09:01	-134.878	49.692	0	9.70	0	7.0370	0	32.3510	0	25.328	0	9.617	0	288.2	4	96.4	4	-1E+10	1	-1E+10	1	-1E+10	1	-1E+10	1	-1E+10	1	-1E+10	1
4902551	24	C	04/07/2021	09:01	-134.878	49.692	0	15.30	0	7.0370	0	32.3510	0	25.328	0	15.169	0	288.3	4	96.4	4	-1E+10	1	-1E+10	1	-1E+10	1	-1E+10	1	-1E+10	1	-1E+10	1
4902551	24	C	04/07/2021	09:01	-134.878	49.692	0	25.30	0	6.9850	0	32.3530	0	25.337	0	25.082	0	288.6	4	96.4	4	-1E+10	1	-1E+10	1	-1E+10	1	-1E+10	1	-1E+10	1	-1E+10	1
4902551	24	C	04/07/2021	09:01	-134.878	49.692	0	35.40	0	6.8620	0	32.3570	0	25.356	0	35.094	0	288.2	4	96.0	4	-1E+10	1	-1E+10	1	-1E+10	1	-1E+10	1	-1E+10	1	-1E+10	1
4902551	24	C	04/07/2021	09:01	-134.878	49.692	0	45.30	0	6.7990	0	32.3600	0	25.367	0	44.908	0	287.1	4	95.5	4	-1E+10	1	-1E+10	1	-1E+10	1	-1E+10	1	-1E+10	1	-1E+10	1
4902551	24	C	04/07/2021	09:01	-134.878	49.692	0	55.20	0	6.6720	0	32.3670	0	25.389	0	54.721	0	286.1	4	94.9	4	-1E+10	1	-1E+10	1	-1E+10	1	-1E+10	1	-1E+10	1	-1E+10	1
4902551	24	C	04/07/2021	09:01	-134.878	49.692	0	65.40	0	6.5820	0	32.3710	0	25.404	0	64.831	0	285.6	4	94.6	4	-1E+10	1	-1E+10	1	-1E+10	1	-1E+10	1	-1E+10	1	-1E+10	1
4902551	24	C	04/07/2021	09:01	-134.878	49.692	0	75.60	0	6.5400	0	32.3730	0	25.411	0	74.940	0	283.7	4	93.8	4	-1E+10	1	-1E+10	1	-1E+10	1	-1E+10	1	-1E+10	1	-1E+10	1
4902551	24	C	04/07/2021	09:01	-134.878	49.692	0	85.80	0	6.5050	0	32.3760	0	25.418	0	85.049	0	279.3	4	92.3	4	-1E+10	1	-1E+10	1	-1E+10	1	-1E+10	1	-1E+10	1	-1E+10	1
4902551	24	C	04/07/2021	09:01	-134.878	49.692	0	95.30	0	6.4960	0	32.3940	0	25.433	0	94.464	0	266.1	4	87.9	4	-1E+10	1	-1E+10	1	-1E+10	1	-1E+10	1	-1E+10	1	-1E+10	1
4902551	24	C	04/07/2021	09:01	-134.878	49.692	0	105.70	0	6.5180	0	32.7660	0	25.724	0	104.770	0	206.3	4	68.4	4	-1E+10	1	-1E+10	1	-1E+10	1	-1E+10	1	-1E+10	1	-1E+10	1
4902551	24	C	04/07/2021	09:01	-134.878	49.692	0	115.30	0	6.3820	0	33.3060	0	26.167	0	114.283	0	160.8	4	53.4	4	-1E+10	1	-1E+10	1	-1E+10	1	-1E+10	1	-1E+10	1	-1E+10	1
4902551	24	C	04/07/2021	09:01	-134.878	49.692	0	125.60	0	6.1560	0	33.5940	0	26.424	0	124.489	0	140.0	4	46.3	4	-1E+10	1	-1E+10	1	-1E+10	1	-1E+10	1	-1E+10	1	-1E+10	1
4902551	24	C	04/07/2021	09:01	-134.878	49.692	0	135.20	0	5.9340	0	33.7010	0	26.536	0	134.001	0	134.2	4	44.2	4	-1E+10	1	-1E+10	1	-1E+10	1	-1E+10	1	-1E+10	1	-1E+10	1
4902551	24	C	04/07/2021	09:01	-134.878	49.692	0	145.30	0	5.7700	0	33.7380	0	26.586	0	144.008	0	128.1	4	42.1	4	-1E+10	1	-1E+10	1	-1E+10	1	-1E+10	1	-1E+10	1	-1E+10	1
4902551	24	C	04/07/2021	09:01	-134.878	49.692	0	155.30	0	5.6340	0	33.7660	0	26.624	0	153.915	0	123.0	4	40.2	4	-1E+10	1	-1E+10	1	-1E+10	1	-1E+10	1	-1E+10	1	-1E+10	1
4902551	24	C	04/07/2021	09:01	-134.878	49.692	0	165.80	0	5.5570	0	33.7800	0	26.645	0	164.317	0	119.2	4	38.9	4	-1E+10	1	-1E+10	1	-1E+10	1	-1E+10	1	-1E+10	1	-1E+10	1
4902551	24	C	04/07/2021	09:01	-134.878	49.692	0	175.80	0	5.4910	0	33.7890	0	26.660	0	174.224	0	115.6	4	37.7	4	-1E+10	1	-1E+10	1	-1E+10	1	-1E+10	1	-1E+10	1	-1E+10	1
4902551	24	C	04/07/2021	09:01	-134.878	49.692	0	185.80	0	5.4220	0	33.7990	0	26.676	0	184.129	0	112.7	4	36.7	4	-1E+10	1	-1E+10	1	-1E+10	1	-1E+10	1	-1E+10	1	-1E+10	1
4902551	24	C	04/07/2021	09:01	-134.878	49.692	0	195.90	0	5.3660	0	33.8050	0	26.687	0	194.134	0	109.9	4	35.8	4	-1E+10	1	-1E+10	1	-1E+10	1	-1E+10	1	-1E+10	1	-1E+10	1
4902551	24	C	04/07/2021	09:01	-134.878	49.692	0	213.00	0	5.2680	0	33.8140	0	26.706	0	211.071	0	103.2	4	33.5	4	-1E+10	1	-1E+10	1	-1E+10	1	-1E+10	1	-1E+10	1	-1E+10	1
4902551	24	C	04/07/2021	09:01	-134.878	49.692	0	238.00	0	5.0700	0	33.8360	0	26.747	0	235.830	0	91.5	4	29.6	4	-1E+10	1	-1E+10	1	-1E+10	1	-1E+10	1	-1E+10	1	-1E+10	1
4902551	24	C	04/07/2021	09:01	-134.878	49.692	0	263.70	0	4.8910	0	33.8630	0	26.789	0	261.280	0	80.9	4	26.0	4	-1E+10	1	-1E+10	1	-1E+10	1	-1E+10	1	-1E+10	1	-1E+10	1
4902551	24	C	04/07/2021	09:01	-134.878	49.692	0	287.60	0	4.7770	0	33.8820	0	26.817	0	284.944	0	74.5	4	23.9	4	-1E+10	1	-1E+10	1	-1E+10	1	-1E+10	1	-1E+10	1	-1E+10	1
4902551	24	C	04/07/2021	09:01	-134.878	49.692	0	312.60	0	4.6650	0	33.9000	0	26.843	0	309.695	0	67.2	4	21.5	4	-1E+10	1	-1E+10	1	-1E+10	1	-1E+10	1	-1E+10	1	-1E+10	1
4902551	24	C	04/07/2021	09:01	-134.878	49.692	0	338.10	0	4.5450	0	33.9290	0	26.880	0	334.937	0	58.6	4	18.7	4	-1E+10	1	-1E+10	1	-1E+10	1	-1E+10	1	-1E+10	1	-1E+10	1
4902551	24	C	04/07/2021	09:01	-134.878	49.692	0	363.10	0	4.4830	0	33.9580	0	26.910	0	359.681	0	49.9	4	15.9	4	-1E+10	1	-1E+10	1	-1E+10	1	-1E+10	1	-1E+10	1	-1E+10	1
4902551	24	C	04/07/2021	09:01	-134.878	49.692	0	388.20	0	4.4100	0	33.9790	0	26.934	0	384.522	0	46.3	4	14.7	4	-1E+10	1	-1E+10	1	-1E+10	1	-1E+10	1	-1E+10	1	-1E+10	1
4902551	24	C	04/07/2021	09:01	-134.878	49.692	0	412.80	0	4.3480	0	34.0020	0	26.959	0	408.864	0	42.2	4	13.4	4	-1E+10	1	-1E+10	1	-1E+10	1	-1E+10	1	-1E+10	1	-1E+10	1
4902551	24	C	04/07/2021	09:01	-134.878	49.692	0	438.50	0	4.2900	0	34.0270	0	26.985	0	434.293	0	38.3	4	12.2	4	-1E+10	1	-1E+10	1	-1E+10	1	-1E+10	1	-1E+10	1	-1E+10	1
4902551	24	C	04/07/2021	09:01	-134.878	49.692	0	462.80	0	4.2300	0	34.0500	0	27.010	0	458.333	0	35.2	4	11.2	4	-1E+10	1	-1E+10	1	-1E+10	1	-1E+10	1	-1E+10	1	-1E+10	1
4902551	24	C	04/07/2021	09:01	-134.878	49.692	0	487.80	0	4.1660	0	34.0710	0	27.034	0	483.062	0	31.8	4	10.1	4	-1E+10	1	-1E+10	1	-1E+10	1	-1E+10	1	-1E+10	1	-1E+10	1
4902551	24	C	04/07/2021	09:01	-134.878	49.692	0	513.00	0	4.1000	0	34.0920	0	27.057	0	507.987	0	28.9	4	9.2	4	-1E+10	1	-1E+10	1	-1E+10	1	-1E+10	1	-1E+10	1	-1E+10	1
4902551	24	C	04/07/2021	09:01	-134.878	49.692	0	537.90	0	4.0500	0	34.1110	0	27.078	0	532.611	0	25.9	4	8.2	4	-1E+10	1	-1E+10	1	-1E+10	1	-1E+10	1	-1E+10	1	-1E+10	1
4902551	24	C	04/07/2021	09:01	-134.878	49.692	0	562.70	0	3.9840	0	34.1350	0	27.104	0	557.134	0	23.7	4	7.5	4	-1E+10	1	-1E+10	1	-1E+10	1	-1E+10	1	-1E+10	1	-1E+10	1
4902551	24	C	04/07/2021	09:01	-134.878	49.692	0	587.90	0	3.9480	0	34.1480	0	27.118	0	582.050	0	22.3	4	7.0	4	-1E+10	1	-1E+10	1	-1E+10	1	-1E+10	1	-1E+10	1	-1E+10	1
4902551	24	C	04/07/2021	09:01	-134.878	49.692	0	612.80	0	3.8950	0	34.1640	0	27.136	0	606.666	0	21.1	4	6.6	4	-1E+10	1	-1E+10	1	-1E+10	1	-1E+10	1	-1E+10	1	-1E+10	1
4902551	24	C	04/07/2021	09:01	-134.878	49.692	0	637.50	0	3.8470	0	34.1770	0	27.152	0	631.081	0	20.0	4	6.3	4	-1E+10	1	-1E+10	1	-1E+10	1	-1E+10	1	-1E+10	1	-1E+10	1
4902551	24	C	04/07/2021	09:01	-134.878	49.692	0	662.80	0	3.7930	0	34.1930	0	27.170	0	656.087	0	18.8	4	5.9	4	-1E+10	1	-1E+10	1	-1E+10	1	-1E+10	1	-1E+10	1	-1E+10	1
4902551	24	C	04/07/2021	09:01	-134.878	49.692	0	687.60	0	3.7330	0	34.2100	0	27.190	0	680.595	0	18.0	4	5.7	4	-1E+10	1	-1E+10	1	-1E+10	1	-1E+10	1	-1E+10	1	-1E+10	1
4902551	24	C	04/07/2021	09:01	-134.878	49.692	0	712.60	0	3.6840	0	34.2230	0	27.205	0	705.298	0	17.4	4	5.4	4	-1E+10	1	-1E+10	1	-1E+10	1	-1E+10	1	-1E+10	1	-1E+10	1
4902551	24	C	04/07/2021	09:01	-134.878	49.692	0	737.70	0	3.6130	0	34.2400	0	27.226	0	730.097	0	16.6	4	5.2	4	-1E+10	1	-1E+10	1	-1E+10	1	-1E+10	1	-1E+10	1	-1E+10	1
4902551	24	C	04/07/2021	09:01	-134.878	49.692	0	762.80	0	3.5410	0	34.2580	0	27.247	0	754.893	0	15.8	4	4.9	4	-1E+10	1	-1E+10	1	-1E+10	1	-1E+10	1	-1E+10	1	-1E+10	1
4902551	24	C	04/07/2021	09:01	-134.878	49.692	0	787.90	0	3.4710	0	34.2730	0	27.266	0	779.686	0	15.2	4	4.7	4	-1E+10	1	-1E+10	1	-1E+10	1	-1E+10	1	-1E+10	1	-1E+10	1
4902551	24	C	04/07/2021	09:01	-134.878	49.692	0	812.90	0	3.4100	0	34.2860	0	27.282	0	804.377	0	14.8	4	4.6	4	-1E+10	1	-1E+10	1	-1E+10	1	-1E+10	1	-1E+10	1	-1E+10	1
4902551	24	C	04/07/2021	09:01	-134.878	49.692	0	837.30	0	3.3660	0	34.2950	0	27.294	0	828.473	0	14.6	4	4.5	4	-1E+10	1	-1E+10	1	-1E+10	1	-1E+10	1	-1E+10	1	-1E+10	1
4902551	24	C	04/07/2021	09:01	-134.878	49.692	0	862.50	0	3.3220	0	34.3040	0	27.305	0	853.356	0	14.4	4	4.5	4	-1E+10	1	-1E+10	1	-1E+10	1	-1E+10	1	-1E+10	1	-1E+10	1
4902551	24	C	04/07/2021	09:01	-134.878	49.692	0	887.90	0	3.2820	0	34.3130	0	27.316	0	878.433	0	14.2	4	4.4	4	-1E+10	1	-1E+10	1	-1E+10	1	-1E+10	1	-1E+10	1	-1E+10	1
4902551	24	C	04/07/2021	09:01	-134.878	49.692	0	913.20	0	3.2270	0	34.3240	0	27.330	0	903.409	0	13.9	4	4.3	4	-1E+10	1	-1E+10	1	-1E+10	1	-1E+10	1	-1E+10	1	-1E+10	1
4902551	24	C	04/07/2021	09:01	-134.878	49.692	0	938.20	0	3.1590	0	34.3380	0	27.348	0	928.085	0	13.7	4	4.2	4	-1E+10	1	-1E+10	1	-1E+10	1	-1E+10	1	-1E+10	1	-1E+10	1
4902551	24	C	04/07/2021	09:01	-134.878	49.692	0	963.10	0	3.1080	0	34.3490	0	27.362	0	952.660	0	13.6	4	4.2	4	-1E+10	1	-1E+10	1	-1E+10	1	-1E+10	1	-1E+10	1	-1E+10	1
4902551	24	C	04/07/2021	09:01	-134.878	49.692	0	987.80	0	3.0620	0	34.3590	0	27.374	0	977.035	0	13.5	4	4.2	4	-1E+10	1	-1E+10	1	-1E+10	1	-1E+10	1	-1E+10	1	-1E+10	1
4902551	24	C	04/07/2021	09:01	-134.878	49.692	0	1012.90	0	3.0290	0	34.3650	0	27.382	0	1001.802	0	13.5	4	4.2	4	-1E+10	1	-1E+10	1	-1E+10	1	-1E+10	1	-1E+10	1	-1E+10	1
4902551	24	C	04/07/2021	09:01	-134.878	49.692	0	1038.10	0	2.9950	0	34.3720	0	27.391	0	1026.664	0	13.5	4	4.2	4	-1E+10	1	-1E+10	1	-1E+10	1	-1E+10	1	-1E+10	1	-1E+10	1
4902551	24	C	04/07/2021	09:01	-134.878	49.692	0	1063.70	0	2.9580	0	34.3800	0	27.401	0	1051.917	0	13.5	4	4.2	4	-1E+10	1	-1E+10	1	-1E+10	1	-1E+10	1	-1E+10	1	-1E+10	1
4902551	24	C	04/07/2021	09:01	-134.878	49.692	0	1088.00	0	2.9240	0	34.3860	0	27.408	0	1075.886	0	13.5	4	4.2	4	-1E+10	1	-1E+10	1	-1E+10	1	-1E+10	1	-1E+10	1	-1E+10	1
4902551	24	C	04/07/2021	09:01	-134.878	49.692	0	1112.90	0	2.8840	0	34.3950	0	27.419	0	1100.444	0	13.5	4	4.2	4	-1E+10	1	-1E+10	1	-1E+10	1	-1E+10	1	-1E+10	1	-1E+10	1
4902551	24	C	04/07/2021	09:01	-134.878	49.692	0	1137.80	0	2.8390	0	34.4030	0	27.430	0	1124.998	0	13.6	4	4.2	4	-1E+10	1	-1E+10	1	-1E+10	1	-1E+10	1	-1E+10	1	-1E+10	1
4902551	24	C	04/07/2021	09:01	-134.878	49.692	0	1163.00	0	2.7990	0	34.4110	0	27.440	0	1149.846	0	13.8	4	4.2	4	-1E+10	1	-1E+10	1	-1E+10	1	-1E+10	1	-1E+10	1	-1E+10	1
4902551	24	C	04/07/2021	09:01	-134.878	49.692	0	1188.90	0	2.7580	0	34.4190	0	27.450	0	1175.381	0	13.9	4	4.3	4	-1E+10	1	-1E+10	1	-1E+10	1	-1E+10	1	-1E+10	1	-1E+10	1
4902551	24	C	04/07/2021	09:01	-134.878	49.692	0	1212.80	0	2.7240	0	34.4260	0	27.459	0	1198.941	0	14.2	4	4.4	4	-1E+10	1	-1E+10	1	-1E+10	1	-1E+10	1	-1E+10	1	-1E+10	1
4902551	24	C	04/07/2021	09:01	-134.878	49.692	0	1238.10	0	2.6880	0	34.4330	0	27.468	0	1223.878	0	14.4	4	4.4	4	-1E+10	1	-1E+10	1	-1E+10	1	-1E+10	1	-1E+10	1	-1E+10	1
4902551	24	C	04/07/2021	09:01	-134.878	49.692	0	1262.90	0	2.6550	0	34.4390	0	27.475	0	1248.320	0	14.8	4	4.5	4	-1E+10	1	-1E+10	1	-1E+10	1	-1E+10	1	-1E+10	1	-1E+10	1
4902551	24	C	04/07/2021	09:01	-134.878	49.692	0	1287.90	0	2.6240	0	34.4450	0	27.483	0	1272.955	0	15.1	4	4.6	4	-1E+10	1	-1E+10	1	-1E+10	1	-1E+10	1	-1E+10	1	-1E+10	1
4902551	24	C	04/07/2021	09:01	-134.878	49.692	0	1313.20	0	2.5950	0	34.4510	0	27.490	0	1297.884	0	15.5	4	4.7	4	-1E+10	1	-1E+10	1	-1E+10	1	-1E+10	1	-1E+10	1	-1E+10	1
4902551	24	C	04/07/2021	09:01	-134.878	49.692	0	1338.20	0	2.5740	0	34.4550	0	27.495	0	1322.514	0	15.8	4	4.8	4	-1E+10	1	-1E+10	1	-1E+10	1	-1E+10	1	-1E+10	1	-1E+10	1
4902551	24	C	04/07/2021	09:01	-134.878	49.692	0	1362.90	0	2.5460	0	34.4610	0	27.503	0	1346.846	0	16.4	4	5.0	4	-1E+10	1	-1E+10	1	-1E+10	1	-1E+10	1	-1E+10	1	-1E+10	1
4902551	24	C	04/07/2021	09:01	-134.878	49.692	0	1387.60	0	2.5130	0	34.4670	0	27.511	0	1371.174	0	17.0	4	5.2	4	-1E+10	1	-1E+10	1	-1E+10	1	-1E+10	1	-1E+10	1	-1E+10	1
4902551	24	C	04/07/2021	09:01	-134.878	49.692	0	1412.90	0	2.4800	0	34.4740	0	27.519	0	1396.091	0	18.1	4	5.5	4	-1E+10	1	-1E+10	1	-1E+10	1	-1E+10	1	-1E+10	1	-1E+10	1
4902551	24	C	04/07/2021	09:01	-134.878	49.692	0	1437.60	0	2.4200	0	34.4850	0	27.533	0	1420.414	0	19.7	4	6.0	4	-1E+10	1	-1E+10	1	-1E+10	1	-1E+10	1	-1E+10	1	-1E+10	1
4902551	24	C	04/07/2021	09:01	-134.878	49.692	0	1463.10	0	2.3880	0	34.4910	0	27.541	0	1445.522	0	20.9	4	6.3	4	-1E+10	1	-1E+10	1	-1E+10	1	-1E+10	1	-1E+10	1	-1E+10	1
4902551	24	C	04/07/2021	09:01	-134.878	49.692	0	1488.10	0	2.3630	0	34.4960	0	27.547	0	1470.135	0	21.8	4	6.6	4	-1E+10	1	-1E+10	1	-1E+10	1	-1E+10	1	-1E+10	1	-1E+10	1
4902551	24	C	04/07/2021	09:01	-134.878	49.692	0	1513.10	0	2.3380	0	34.5010	0	27.553	0	1494.745	0	23.1	4	7.0	4	-1E+10	1	-1E+10	1	-1E+10	1	-1E+10	1	-1E+10	1	-1E+10	1
4902551	24	C	04/07/2021	09:01	-134.878	49.692	0	1538.00	0	2.3140	0	34.5050	0	27.558	0	1519.253	0	24.1	4	7.3	4	-1E+10	1	-1E+10	1	-1E+10	1	-1E+10	1	-1E+10	1	-1E+10	1
4902551	24	C	04/07/2021	09:01	-134.878	49.692	0	1562.90	0	2.2950	0	34.5090	0	27.563	0	1543.759	0	25.1	4	7.6	4	-1E+10	1	-1E+10	1	-1E+10	1	-1E+10	1	-1E+10	1	-1E+10	1
4902551	24	C	04/07/2021	09:01	-134.878	49.692	0	1588.10	0	2.2720	0	34.5140	0	27.569	0	1568.557	0	26.5	4	8.0	4	-1E+10	1	-1E+10	1	-1E+10	1	-1E+10	1	-1E+10	1	-1E+10	1
4902551	24	C	04/07/2021	09:01	-134.878	49.692	0	1614.20	0	2.2380	0	34.5200	0	27.577	0	1594.238	0	28.4	4	8.6	4	-1E+10	1	-1E+10	1	-1E+10	1	-1E+10	1	-1E+10	1	-1E+10	1
4902551	24	C	04/07/2021	09:01	-134.878	49.692	0	1637.90	0	2.2110	0	34.5260	0	27.584	0	1617.554	0	29.7	4	9.0	4	-1E+10	1	-1E+10	1	-1E+10	1	-1E+10	1	-1E+10	1	-1E+10	1
4902551	24	C	04/07/2021	09:01	-134.878	49.692	0	1662.70	0	2.1920	0	34.5300	0	27.589	0	1641.950	0	30.9	4	9.4	4	-1E+10	1	-1E+10	1	-1E+10	1	-1E+10	1	-1E+10	1	-1E+10	1
4902551	24	C	04/07/2021	09:01	-134.878	49.692	0	1687.70	0	2.1800	0	34.5330	0	27.592	0	1666.540	0	31.8	4	9.6	4	-1E+10	1	-1E+10	1	-1E+10	1	-1E+10	1	-1E+10	1	-1E+10	1
4902551	24	C	04/07/2021	09:01	-134.878	49.692	0	1712.70	0	2.1560	0	34.5380	0	27.598	0	1691.127	0	33.6	4	10.2	4	-1E+10	1	-1E+10	1	-1E+10	1	-1E+10	1	-1E+10	1	-1E+10	1
4902551	24	C	04/07/2021	09:01	-134.878	49.692	0	1737.80	0	2.1320	0	34.5430	0	27.604	0	1715.809	0	35.1	4	10.6	4	-1E+10	1	-1E+10	1	-1E+10	1	-1E+10	1	-1E+10	1	-1E+10	1
4902551	24	C	04/07/2021	09:01	-134.878	49.692	0	1762.90	0	2.1160	0	34.5460	0	27.608	0	1740.489	0	36.5	4	11.0	4	-1E+10	1	-1E+10	1	-1E+10	1	-1E+10	1	-1E+10	1	-1E+10	1
4902551	24	C	04/07/2021	09:01	-134.878	49.692	0	1788.20	0	2.0960	0	34.5500	0	27.613	0	1765.362	0	38.1	4	11.5	4	-1E+10	1	-1E+10	1	-1E+10	1	-1E+10	1	-1E+10	1	-1E+10	1
4902551	24	C	04/07/2021	09:01	-134.878	49.692	0	1812.60	0	2.0750	0	34.5540	0	27.618	0	1789.347	0	39.6	4	12.0	4	-1E+10	1	-1E+10	1	-1E+10	1	-1E+10	1	-1E+10	1	-1E+10	1
4902551	24	C	04/07/2021	09:01	-134.878	49.692	0	1837.90	0	2.0540	0	34.5580	0	27.623	0	1814.215	0	41.3	4	12.5	4	-1E+10	1	-1E+10	1	-1E+10	1	-1E+10	1	-1E+10	1	-1E+10	1
4902551	24	C	04/07/2021	09:01	-134.878	49.692	0	1863.10	0	2.0390	0	34.5610	0	27.627	0	1838.981	0	42.3	4	12.7	4	-1E+10	1	-1E+10	1	-1E+10	1	-1E+10	1	-1E+10	1	-1E+10	1
4902551	24	C	04/07/2021	09:01	-134.878	49.692	0	1888.00	0	2.0280	0	34.5630	0	27.629	0	1863.450	0	43.5	4	13.1	4	-1E+10	1	-1E+10	1	-1E+10	1	-1E+10	1	-1E+10	1	-1E+10	1
4902551	24	C	04/07/2021	09:01	-134.878	49.692	0	1913.10	0	2.0110	0	34.5670	0	27.634	0	1888.112	0	45.2	4	13.6	4	-1E+10	1	-1E+10	1	-1E+10	1	-1E+10	1	-1E+10	1	-1E+10	1
4902551	24	C	04/07/2021	09:01	-134.878	49.692	0	1937.90	0	1.9870	0	34.5720	0	27.640	0	1912.477	0	47.2	4	14.2	4	-1E+10	1	-1E+10	1	-1E+10	1	-1E+10	1	-1E+10	1	-1E+10	1
4902551	24	C	04/07/2021	09:01	-134.878	49.692	0	1962.60	0	1.9710	0	34.5750	0	27.644	0	1936.741	0	48.3	4	14.6	4	-1E+10	1	-1E+10	1	-1E+10	1	-1E+10	1	-1E+10	1	-1E+10	1
4902551	24	C	04/07/2021	09:01	-134.878	49.692	0	1987.90	0	1.9590	0	34.5770	0	27.646	0	1961.591	0	49.6	4	14.9	4	-1E+10	1	-1E+10	1	-1E+10	1	-1E+10	1	-1E+10	1	-1E+10	1
4902551	24	C	04/07/2021	09:01	-134.878	49.692	0	2011.40	0	1.9420	0	34.5810	0	27.651	0	1984.671	0	50.7	4	15.3	4	-1E+10	1	-1E+10	1	-1E+10	1	-1E+10	1	-1E+10	1	-1E+10	1
4902551	24	C	04/07/2021	09:01	-134.878	49.692	0																										
4902551	25	C	04/17/2021	08:56	-134.804	49.626	0	0.40	0	7.4090	0	32.3770	0	25.298	0	0.397	0	290.8	4	98.1	4	-1E+10	1	-1E+10	1	-1E+10	1	-1E+10	1	-1E+10	1	-1E+10	1
4902551	25	C	04/17/2021	08:56	-134.804	49.626	0	1.00	0	7.4110	0	32.3760	0	25.297	0	0.991	0	290.7	4	98.1	4	-1E+10	1	-1E+10	1	-1E+10	1	-1E+10	1	-1E+10	1	-1E+10	1
4902551	25	C	04/17/2021	08:56	-134.804	49.626	0	2.10	0	7.4130	0	32.3750	0	25.296	0	2.082	0	290.7	4	98.1	4	-1E+10	1	-1E+10	1	-1E+10	1	-1E+10	1	-1E+10	1	-1E+10	1
4902551	25	C	04/17/2021	08:56	-134.804	49.626	0	3.00	0	7.4110	0	32.3770	0	25.298	0	2.974	0	290.7	4	98.1	4	-1E+10	1	-1E+10	1	-1E+10	1	-1E+10	1	-1E+10	1	-1E+10	1
4902551	25	C	04/17/2021	08:56	-134.804	49.626	0	3.80	0	7.4130	0	32.3760	0	25.297	0	3.768	0	290.7	4	98.1	4	-1E+10	1	-1E+10	1	-1E+10	1	-1E+10	1	-1E+10	1	-1E+10	1
4902551	25	C	04/17/2021	08:56	-134.804	49.626	0	5.00	0	7.4170	0	32.3740	0	25.295	0	4.957	0	290.7	4	98.1	4	-1E+10	1	-1E+10	1	-1E+10	1	-1E+10	1	-1E+10	1	-1E+10	1
4902551	25	C	04/17/2021	08:56	-134.804	49.626	0	6.00	0	7.4170	0	32.3760	0	25.296	0	5.949	0	290.6	4	98.1	4	-1E+10	1	-1E+10	1	-1E+10	1	-1E+10	1	-1E+10	1	-1E+10	1
4902551	25	C	04/17/2021	08:56	-134.804	49.626	0	7.00	0	7.4180	0	32.3760	0	25.296	0	6.940	0	290.6	4	98.1	4	-1E+10	1	-1E+10	1	-1E+10	1	-1E+10	1	-1E+10	1	-1E+10	1
4902551	25	C	04/17/2021	08:56	-134.804	49.626	0	8.00	0	7.4170	0	32.3760	0	25.296	0	7.932	0	290.7	4	98.1	4	-1E+10	1	-1E+10	1	-1E+10	1	-1E+10	1	-1E+10	1	-1E+10	1
4902551	25	C	04/17/2021	08:56	-134.804	49.626	0	9.00	0	7.4160	0	32.3770	0	25.297	0	8.923	0	290.6	4	98.1	4	-1E+10	1	-1E+10	1	-1E+10	1	-1E+10	1	-1E+10	1	-1E+10	1
4902551	25	C	04/17/2021	08:56	-134.804	49.626	0	10.10	0	7.4180	0	32.3750	0	25.295	0	10.014	0	290.6	4	98.1	4	-1E+10	1	-1E+10	1	-1E+10	1	-1E+10	1	-1E+10	1	-1E+10	1
4902551	25	C	04/17/2021	08:56	-134.804	49.626	0	15.30	0	7.2480	0	32.3730	0	25.317	0	15.169	0	291.2	4	97.9	4	-1E+10	1	-1E+10	1	-1E+10	1	-1E+10	1	-1E+10	1	-1E+10	1
4902551	25	C	04/17/2021	08:56	-134.804	49.626	0	25.20	0	7.0150	0	32.3750	0	25.350	0	24.983	0	290.8	4	97.2	4	-1E+10	1	-1E+10	1	-1E+10	1	-1E+10	1	-1E+10	1	-1E+10	1
4902551	25	C	04/17/2021	08:56	-134.804	49.626	0	35.80	0	6.8730	0	32.3730	0	25.367	0	35.491	0	288.3	4	96.1	4	-1E+10	1	-1E+10	1	-1E+10	1	-1E+10	1	-1E+10	1	-1E+10	1
4902551	25	C	04/17/2021	08:56	-134.804	49.626	0	45.70	0	6.8050	0	32.3780	0	25.380	0	45.305	0	287.1	4	95.5	4	-1E+10	1	-1E+10	1	-1E+10	1	-1E+10	1	-1E+10	1	-1E+10	1
4902551	25	C	04/17/2021	08:56	-134.804	49.626	0	55.40	0	6.7430	0	32.3790	0	25.389	0	54.920	0	286.2	4	95.1	4	-1E+10	1	-1E+10	1	-1E+10	1	-1E+10	1	-1E+10	1	-1E+10	1
4902551	25	C	04/17/2021	08:56	-134.804	49.626	0	65.20	0	6.6990	0	32.3810	0	25.397	0	64.633	0	284.6	4	94.5	4	-1E+10	1	-1E+10	1	-1E+10	1	-1E+10	1	-1E+10	1	-1E+10	1
4902551	25	C	04/17/2021	08:56	-134.804	49.626	0	75.40	0	6.6190	0	32.3880	0	25.413	0	74.743	0	284.2	4	94.2	4	-1E+10	1	-1E+10	1	-1E+10	1	-1E+10	1	-1E+10	1	-1E+10	1
4902551	25	C	04/17/2021	08:56	-134.804	49.626	0	85.40	0	6.5100	0	32.3910	0	25.429	0	84.653	0	282.1	4	93.3	4	-1E+10	1	-1E+10	1	-1E+10	1	-1E+10	1	-1E+10	1	-1E+10	1
4902551	25	C	04/17/2021	08:56	-134.804	49.626	0	95.40	0	6.4660	0	32.4010	0	25.443	0	94.564	0	273.2	4	90.2	4	-1E+10	1	-1E+10	1	-1E+10	1	-1E+10	1	-1E+10	1	-1E+10	1
4902551	25	C	04/17/2021	08:56	-134.804	49.626	0	105.40	0	6.5760	0	32.5270	0	25.528	0	104.473	0	237.4	4	78.7	4	-1E+10	1	-1E+10	1	-1E+10	1	-1E+10	1	-1E+10	1	-1E+10	1
4902551	25	C	04/17/2021	08:56	-134.804	49.626	0	115.20	0	6.5890	0	32.9790	0	25.883	0	114.184	0	189.7	4	63.1	4	-1E+10	1	-1E+10	1	-1E+10	1	-1E+10	1	-1E+10	1	-1E+10	1
4902551	25	C	04/17/2021	08:56	-134.804	49.626	0	125.30	0	6.4440	0	33.3410	0	26.187	0	124.192	0	164.9	4	54.8	4	-1E+10	1	-1E+10	1	-1E+10	1	-1E+10	1	-1E+10	1	-1E+10	1
4902551	25	C	04/17/2021	08:56	-134.804	49.626	0	135.00	0	6.3180	0	33.4610	0	26.298	0	133.803	0	152.7	4	50.6	4	-1E+10	1	-1E+10	1	-1E+10	1	-1E+10	1	-1E+10	1	-1E+10	1
4902551	25	C	04/17/2021	08:56	-134.804	49.626	0	145.40	0	6.2010	0	33.5880	0	26.413	0	144.108	0	143.6	4	47.6	4	-1E+10	1	-1E+10	1	-1E+10	1	-1E+10	1	-1E+10	1	-1E+10	1
4902551	25	C	04/17/2021	08:56	-134.804	49.626	0	155.60	0	6.1480	0	33.6420	0	26.463	0	154.213	0	138.5	4	45.8	4	-1E+10	1	-1E+10	1	-1E+10	1	-1E+10	1	-1E+10	1	-1E+10	1
4902551	25	C	04/17/2021	08:56	-134.804	49.626	0	165.30	0	6.0690	0	33.6760	0	26.500	0	163.823	0	133.1	4	44.0	4	-1E+10	1	-1E+10	1	-1E+10	1	-1E+10	1	-1E+10	1	-1E+10	1
4902551	25	C	04/17/2021	08:56	-134.804	49.626	0	175.40	0	5.9330	0	33.7340	0	26.563	0	173.828	0	124.6	4	41.0	4	-1E+10	1	-1E+10	1	-1E+10	1	-1E+10	1	-1E+10	1	-1E+10	1
4902551	25	C	04/17/2021	08:56	-134.804	49.626	0	185.10	0	5.7480	0	33.7790	0	26.621	0	183.437	0	117.0	4	38.4	4	-1E+10	1	-1E+10	1	-1E+10	1	-1E+10	1	-1E+10	1	-1E+10	1
4902551	25	C	04/17/2021	08:56	-134.804	49.626	0	195.50	0	5.6520	0	33.8020	0	26.651	0	193.739	0	111.7	4	36.6	4	-1E+10	1	-1E+10	1	-1E+10	1	-1E+10	1	-1E+10	1	-1E+10	1
4902551	25	C	04/17/2021	08:56	-134.804	49.626	0	212.90	0	5.3970	0	33.8210	0	26.697	0	210.973	0	103.1	4	33.6	4	-1E+10	1	-1E+10	1	-1E+10	1	-1E+10	1	-1E+10	1	-1E+10	1
4902551	25	C	04/17/2021	08:56	-134.804	49.626	0	237.80	0	5.1330	0	33.8390	0	26.742	0	235.634	0	91.8	4	29.7	4	-1E+10	1	-1E+10	1	-1E+10	1	-1E+10	1	-1E+10	1	-1E+10	1
4902551	25	C	04/17/2021	08:56	-134.804	49.626	0	262.60	0	4.9390	0	33.8650	0	26.785	0	260.192	0	80.8	4	26.0	4	-1E+10	1	-1E+10	1	-1E+10	1	-1E+10	1	-1E+10	1	-1E+10	1
4902551	25	C	04/17/2021	08:56	-134.804	49.626	0	288.20	0	4.7970	0	33.8820	0	26.814	0	285.540	0	74.4	4	23.9	4	-1E+10	1	-1E+10	1	-1E+10	1	-1E+10	1	-1E+10	1	-1E+10	1
4902551	25	C	04/17/2021	08:56	-134.804	49.626	0	312.80	0	4.6660	0	33.9020	0	26.845	0	309.894	0	67.3	4	21.5	4	-1E+10	1	-1E+10	1	-1E+10	1	-1E+10	1	-1E+10	1	-1E+10	1
4902551	25	C	04/17/2021	08:56	-134.804	49.626	0	338.20	0	4.5830	0	33.9230	0	26.871	0	335.038	0	60.4	4	19.3	4	-1E+10	1	-1E+10	1	-1E+10	1	-1E+10	1	-1E+10	1	-1E+10	1
4902551	25	C	04/17/2021	08:56	-134.804	49.626	0	362.90	0	4.5060	0	33.9490	0	26.900	0	359.486	0	53.6	4	17.1	4	-1E+10	1	-1E+10	1	-1E+10	1	-1E+10	1	-1E+10	1	-1E+10	1
4902551	25	C	04/17/2021	08:56	-134.804	49.626	0	387.60	0	4.4540	0	33.9800	0	26.930	0	383.930	0	46.0	4	14.7	4	-1E+10	1	-1E+10	1	-1E+10	1	-1E+10	1	-1E+10	1	-1E+10	1
4902551	25	C	04/17/2021	08:56	-134.804	49.626	0	412.40	0	4.3980	0	34.0060	0	26.957	0	408.471	0	41.0	4	13.1	4	-1E+10	1	-1E+10	1	-1E+10	1	-1E+10	1	-1E+10	1	-1E+10	1
4902551	25	C	04/17/2021	08:56	-134.804	49.626	0	438.40	0	4.2940	0	34.0340	0	26.991	0	434.196	0	36.9	4	11.7	4	-1E+10	1	-1E+10	1	-1E+10	1	-1E+10	1	-1E+10	1	-1E+10	1
4902551	25	C	04/17/2021	08:56	-134.804	49.626	0	462.60	0	4.2270	0	34.0560	0	27.015	0	458.138	0	34.0	4	10.8	4	-1E+10	1	-1E+10	1	-1E+10	1	-1E+10	1	-1E+10	1	-1E+10	1
4902551	25	C	04/17/2021	08:56	-134.804	49.626	0	488.10	0	4.1720	0	34.0720	0	27.034	0	483.362	0	31.6	4	10.0	4	-1E+10	1	-1E+10	1	-1E+10	1	-1E+10	1	-1E+10	1	-1E+10	1
4902551	25	C	04/17/2021	08:56	-134.804	49.626	0	512.80	0	4.1160	0	34.0890	0	27.053	0	507.792	0	28.9	4	9.2	4	-1E+10	1	-1E+10	1	-1E+10	1	-1E+10	1	-1E+10	1	-1E+10	1
4902551	25	C	04/17/2021	08:56	-134.804	49.626	0	537.50	0	4.0670	0	34.1080	0	27.074	0	532.219	0	26.5	4	8.4	4	-1E+10	1	-1E+10	1	-1E+10	1	-1E+10	1	-1E+10	1	-1E+10	1
4902551	25	C	04/17/2021	08:56	-134.804	49.626	0	562.70	0	4.0060	0	34.1270	0	27.095	0	557.138	0	24.2	4	7.6	4	-1E+10	1	-1E+10	1	-1E+10	1	-1E+10	1	-1E+10	1	-1E+10	1
4902551	25	C	04/17/2021	08:56	-134.804	49.626	0	588.10	0	3.9430	0	34.1470	0	27.118	0	582.251	0	22.4	4	7.0	4	-1E+10	1	-1E+10	1	-1E+10	1	-1E+10	1	-1E+10	1	-1E+10	1
4902551	25	C	04/17/2021	08:56	-134.804	49.626	0	613.20	0	3.8880	0	34.1650	0	27.138	0	607.065	0	20.8	4	6.5	4	-1E+10	1	-1E+10	1	-1E+10	1	-1E+10	1	-1E+10	1	-1E+10	1
4902551	25	C	04/17/2021	08:56	-134.804	49.626	0	637.90	0	3.8210	0	34.1850	0	27.161	0	631.480	0	19.2	4	6.1	4	-1E+10	1	-1E+10	1	-1E+10	1	-1E+10	1	-1E+10	1	-1E+10	1
4902551	25	C	04/17/2021	08:56	-134.804	49.626	0	662.70	0	3.7640	0	34.2050	0	27.182	0	655.992	0	17.9	4	5.6	4	-1E+10	1	-1E+10	1	-1E+10	1	-1E+10	1	-1E+10	1	-1E+10	1
4902551	25	C	04/17/2021	08:56	-134.804	49.626	0	687.60	0	3.6860	0	34.2230	0	27.205	0	680.599	0	17.1	4	5.4	4	-1E+10	1	-1E+10	1	-1E+10	1	-1E+10	1	-1E+10	1	-1E+10	1
4902551	25	C	04/17/2021	08:56	-134.804	49.626	0	712.90	0	3.6130	0	34.2420	0	27.227	0	705.599	0	16.1	4	5.1	4	-1E+10	1	-1E+10	1	-1E+10	1	-1E+10	1	-1E+10	1	-1E+10	1
4902551	25	C	04/17/2021	08:56	-134.804	49.626	0	737.70	0	3.5330	0	34.2590	0	27.249	0	730.101	0	15.5	4	4.9	4	-1E+10	1	-1E+10	1	-1E+10	1	-1E+10	1	-1E+10	1	-1E+10	1
4902551	25	C	04/17/2021	08:56	-134.804	49.626	0	763.50	0	3.4690	0	34.2740	0	27.267	0	755.589	0	15.1	4	4.7	4	-1E+10	1	-1E+10	1	-1E+10	1	-1E+10	1	-1E+10	1	-1E+10	1
4902551	25	C	04/17/2021	08:56	-134.804	49.626	0	787.80	0	3.4300	0	34.2820	0	27.277	0	779.592	0	14.8	4	4.6	4	-1E+10	1	-1E+10	1	-1E+10	1	-1E+10	1	-1E+10	1	-1E+10	1
4902551	25	C	04/17/2021	08:56	-134.804	49.626	0	813.20	0	3.3720	0	34.2950	0	27.293	0	804.678	0	14.4	4	4.5	4	-1E+10	1	-1E+10	1	-1E+10	1	-1E+10	1	-1E+10	1	-1E+10	1
4902551	25	C	04/17/2021	08:56	-134.804	49.626	0	838.30	0	3.3080	0	34.3080	0	27.310	0	829.465	0	14.1	4	4.4	4	-1E+10	1	-1E+10	1	-1E+10	1	-1E+10	1	-1E+10	1	-1E+10	1
4902551	25	C	04/17/2021	08:56	-134.804	49.626	0	862.90	0	3.2560	0	34.3190	0	27.323	0	853.756	0	13.9	4	4.3	4	-1E+10	1	-1E+10	1	-1E+10	1	-1E+10	1	-1E+10	1	-1E+10	1
4902551	25	C	04/17/2021	08:56	-134.804	49.626	0	887.70	0	3.2220	0	34.3260	0	27.332	0	878.241	0	13.8	4	4.3	4	-1E+10	1	-1E+10	1	-1E+10	1	-1E+10	1	-1E+10	1	-1E+10	1
4902551	25	C	04/17/2021	08:56	-134.804	49.626	0	912.90	0	3.1860	0	34.3340	0	27.342	0	903.118	0	13.7	4	4.2	4	-1E+10	1	-1E+10	1	-1E+10	1	-1E+10	1	-1E+10	1	-1E+10	1
4902551	25	C	04/17/2021	08:56	-134.804	49.626	0	938.10	0	3.1390	0	34.3430	0	27.354	0	927.992	0	13.6	4	4.2	4	-1E+10	1	-1E+10	1	-1E+10	1	-1E+10	1	-1E+10	1	-1E+10	1
4902551	25	C	04/17/2021	08:56	-134.804	49.626	0	963.00	0	3.0980	0	34.3510	0	27.364	0	952.567	0	13.5	4	4.2	4	-1E+10	1	-1E+10	1	-1E+10	1	-1E+10	1	-1E+10	1	-1E+10	1
4902551	25	C	04/17/2021	08:56	-134.804	49.626	0	988.80	0	3.0490	0	34.3610	0	27.377	0	978.028	0	13.4	4	4.1	4	-1E+10	1	-1E+10	1	-1E+10	1	-1E+10	1	-1E+10	1	-1E+10	1
4902551	25	C	04/17/2021	08:56	-134.804	49.626	0	1012.40	0	3.0190	0	34.3670	0	27.384	0	1001.314	0	13.4	4	4.1	4	-1E+10	1	-1E+10	1	-1E+10	1	-1E+10	1	-1E+10	1	-1E+10	1
4902551	25	C	04/17/2021	08:56	-134.804	49.626	0	1037.50	0	2.9920	0	34.3730	0	27.392	0	1026.078	0	13.4	4	4.1	4	-1E+10	1	-1E+10	1	-1E+10	1	-1E+10	1	-1E+10	1	-1E+10	1
4902551	25	C	04/17/2021	08:56	-134.804	49.626	0	1062.80	0	2.9550	0	34.3800	0	27.401	0	1051.036	0	13.4	4	4.1	4	-1E+10	1	-1E+10	1	-1E+10	1	-1E+10	1	-1E+10	1	-1E+10	1
4902551	25	C	04/17/2021	08:56	-134.804	49.626	0	1088.20	0	2.9220	0	34.3870	0	27.409	0	1076.090	0	13.5	4	4.1	4	-1E+10	1	-1E+10	1	-1E+10	1	-1E+10	1	-1E+10	1	-1E+10	1
4902551	25	C	04/17/2021	08:56	-134.804	49.626	0	1113.10	0	2.8860	0	34.3940	0	27.418	0	1100.648	0	13.5	4	4.2	4	-1E+10	1	-1E+10	1	-1E+10	1	-1E+10	1	-1E+10	1	-1E+10	1
4902551	25	C	04/17/2021	08:56	-134.804	49.626	0	1137.70	0	2.8540	0	34.4010	0	27.427	0	1124.906	0	13.5	4	4.2	4	-1E+10	1	-1E+10	1	-1E+10	1	-1E+10	1	-1E+10	1	-1E+10	1
4902551	25	C	04/17/2021	08:56	-134.804	49.626	0	1162.90	0	2.8150	0	34.4090	0	27.437	0	1149.754	0	13.7	4	4.2	4	-1E+10	1	-1E+10	1	-1E+10	1	-1E+10	1	-1E+10	1	-1E+10	1
4902551	25	C	04/17/2021	08:56	-134.804	49.626	0	1188.30	0	2.7800	0	34.4160	0	27.446	0	1174.796	0	13.8	4	4.2	4	-1E+10	1	-1E+10	1	-1E+10	1	-1E+10	1	-1E+10	1	-1E+10	1
4902551	25	C	04/17/2021	08:56	-134.804	49.626	0	1212.90	0	2.7530	0	34.4210	0	27.452	0	1199.047	0	13.9	4	4.3	4	-1E+10	1	-1E+10	1	-1E+10	1	-1E+10	1	-1E+10	1	-1E+10	1
4902551	25	C	04/17/2021	08:56	-134.804	49.626	0	1238.60	0	2.7230	0	34.4270	0	27.460	0	1224.378	0	14.2	4	4.3	4	-1E+10	1	-1E+10	1	-1E+10	1	-1E+10	1	-1E+10	1	-1E+10	1
4902551	25	C	04/17/2021	08:56	-134.804	49.626	0	1263.00	0	2.6730	0	34.4360	0	27.471	0	1248.426	0	14.6	4	4.5	4	-1E+10	1	-1E+10	1	-1E+10	1	-1E+10	1	-1E+10	1	-1E+10	1
4902551	25	C	04/17/2021	08:56	-134.804	49.626	0	1287.90	0	2.6320	0	34.4440	0	27.481	0	1272.963	0	15.0	4	4.6	4	-1E+10	1	-1E+10	1	-1E+10	1	-1E+10	1	-1E+10	1	-1E+10	1
4902551	25	C	04/17/2021	08:56	-134.804	49.626	0	1312.70	0	2.5950	0	34.4510	0	27.490	0	1297.399	0	15.6	4	4.8	4	-1E+10	1	-1E+10	1	-1E+10	1	-1E+10	1	-1E+10	1	-1E+10	1
4902551	25	C	04/17/2021	08:56	-134.804	49.626	0	1337.90	0	2.5540	0	34.4590	0	27.500	0	1322.226	0	16.2	4	5.0	4	-1E+10	1	-1E+10	1	-1E+10	1	-1E+10	1	-1E+10	1	-1E+10	1
4902551	25	C	04/17/2021	08:56	-134.804	49.626	0	1362.80	0	2.5200	0	34.4650	0	27.508	0	1346.755	0	16.9	4	5.2	4	-1E+10	1	-1E+10	1	-1E+10	1	-1E+10	1	-1E+10	1	-1E+10	1
4902551	25	C	04/17/2021	08:56	-134.804	49.626	0	1387.50	0	2.4900	0	34.4710	0	27.516	0	1371.084	0	17.7	4	5.4	4	-1E+10	1	-1E+10	1	-1E+10	1	-1E+10	1	-1E+10	1	-1E+10	1
4902551	25	C	04/17/2021	08:56	-134.804	49.626	0	1412.70	0	2.4570	0	34.4780	0	27.524	0	1395.903	0	18.4	4	5.6	4	-1E+10	1	-1E+10	1	-1E+10	1	-1E+10	1	-1E+10	1	-1E+10	1
4902551	25	C	04/17/2021	08:56	-134.804	49.626	0	1437.70	0	2.4270	0	34.4830	0	27.531	0	1420.521	0	19.5	4	5.9	4	-1E+10	1	-1E+10	1	-1E+10	1	-1E+10	1	-1E+10	1	-1E+10	1
4902551	25	C	04/17/2021	08:56	-134.804	49.626	0	1462.70	0	2.3860	0	34.4920	0	27.541	0	1445.137	0	20.6	4	6.3	4	-1E+10	1	-1E+10	1	-1E+10	1	-1E+10	1	-1E+10	1	-1E+10	1
4902551	25	C	04/17/2021	08:56	-134.804	49.626	0	1487.80	0	2.3700	0	34.4950	0	27.545	0	1469.849	0	21.1	4	6.4	4	-1E+10	1	-1E+10	1	-1E+10	1	-1E+10	1	-1E+10	1	-1E+10	1
4902551	25	C	04/17/2021	08:56	-134.804	49.626	0	1512.80	0	2.3500	0	34.4990	0	27.550	0	1494.459	0	22.4	4	6.8	4	-1E+10	1	-1E+10	1	-1E+10	1	-1E+10	1	-1E+10	1	-1E+10	1
4902551	25	C	04/17/2021	08:56	-134.804	49.626	0	1537.40	0	2.3150	0	34.5060	0	27.559	0	1518.672	0	24.1	4	7.3	4	-1E+10	1	-1E+10	1	-1E+10	1	-1E+10	1	-1E+10	1	-1E+10	1
4902551	25	C	04/17/2021	08:56	-134.804	49.626	0	1562.50	0	2.2800	0	34.5120	0	27.567	0	1543.375	0	25.8	4	7.8	4	-1E+10	1	-1E+10	1	-1E+10	1	-1E+10	1	-1E+10	1	-1E+10	1
4902551	25	C	04/17/2021	08:56	-134.804	49.626	0	1587.60	0	2.2510	0	34.5180	0	27.574	0	1568.074	0	27.5	4	8.3	4	-1E+10	1	-1E+10	1	-1E+10	1	-1E+10	1	-1E+10	1	-1E+10	1
4902551	25	C	04/17/2021	08:56	-134.804	49.626	0	1613.50	0	2.2150	0	34.5250	0	27.583	0	1593.559	0	29.3	4	8.9	4	-1E+10	1	-1E+10	1	-1E+10	1	-1E+10	1	-1E+10	1	-1E+10	1
4902551	25	C	04/17/2021	08:56	-134.804	49.626	0	1637.80	0	2.1970	0	34.5290	0	27.587	0	1617.466	0	30.4	4	9.2	4	-1E+10	1	-1E+10	1	-1E+10	1	-1E+10	1	-1E+10	1	-1E+10	1
4902551	25	C	04/17/2021	08:56	-134.804	49.626	0	1662.60	0	2.1770	0	34.5330	0	27.592	0	1641.862	0	32.0	4	9.7	4	-1E+10	1	-1E+10	1	-1E+10	1	-1E+10	1	-1E+10	1	-1E+10	1
4902551	25	C	04/17/2021	08:56	-134.804	49.626	0	1687.60	0	2.1530	0	34.5380	0	27.598	0	1666.451	0	33.6	4	10.2	4	-1E+10	1	-1E+10	1	-1E+10	1	-1E+10	1	-1E+10	1	-1E+10	1
4902551	25	C	04/17/2021	08:56	-134.804	49.626	0	1712.80	0	2.1300	0	34.5420	0	27.604	0	1691.235	0	35.2	4	10.6	4	-1E+10	1	-1E+10	1	-1E+10	1	-1E+10	1	-1E+10	1	-1E+10	1
4902551	25	C	04/17/2021	08:56	-134.804	49.626	0	1738.00	0	2.1100	0	34.5460	0	27.608	0	1716.016	0	36.7	4	11.1	4	-1E+10	1	-1E+10	1	-1E+10	1	-1E+10	1	-1E+10	1	-1E+10	1
4902551	25	C	04/17/2021	08:56	-134.804	49.626	0	1762.90	0	2.0880	0	34.5510	0	27.614	0	1740.499	0	38.3	4	11.6	4	-1E+10	1	-1E+10	1	-1E+10	1	-1E+10	1	-1E+10	1	-1E+10	1
4902551	25	C	04/17/2021	08:56	-134.804	49.626	0	1787.80	0	2.0660	0	34.5550	0	27.619	0	1764.979	0	40.0	4	12.1	4	-1E+10	1	-1E+10	1	-1E+10	1	-1E+10	1	-1E+10	1	-1E+10	1
4902551	25	C	04/17/2021	08:56	-134.804	49.626	0	1812.40	0	2.0480	0	34.5590	0	27.624	0	1789.162	0	41.4	4	12.5	4	-1E+10	1	-1E+10	1	-1E+10	1	-1E+10	1	-1E+10	1	-1E+10	1
4902551	25	C	04/17/2021	08:56	-134.804	49.626	0	1837.80	0	2.0310	0	34.5620	0	27.628	0	1814.128	0	42.7	4	12.9	4	-1E+10	1	-1E+10	1	-1E+10	1	-1E+10	1	-1E+10	1	-1E+10	1
4902551	25	C	04/17/2021	08:56	-134.804	49.626	0	1862.70	0	2.0160	0	34.5650	0	27.632	0	1838.599	0	44.2	4	13.3	4	-1E+10	1	-1E+10	1	-1E+10	1	-1E+10	1	-1E+10	1	-1E+10	1
4902551	25	C	04/17/2021	08:56	-134.804	49.626	0	1887.80	0	1.9980	0	34.5690	0	27.636	0	1863.265	0	45.6	4	13.8	4	-1E+10	1	-1E+10	1	-1E+10	1	-1E+10	1	-1E+10	1	-1E+10	1
4902551	25	C	04/17/2021	08:56	-134.804	49.626	0	1913.50	0	1.9880	0	34.5710	0	27.639	0	1888.517	0	46.6	4	14.0	4	-1E+10	1	-1E+10	1	-1E+10	1	-1E+10	1	-1E+10	1	-1E+10	1
4902551	25	C	04/17/2021	08:56	-134.804	49.626	0	1937.70	0	1.9740	0	34.5740	0	27.643	0	1912.292	0	48.2	4	14.5	4	-1E+10	1	-1E+10	1	-1E+10	1	-1E+10	1	-1E+10	1	-1E+10	1
4902551	25	C	04/17/2021	08:56	-134.804	49.626	0	1962.70	0	1.9500	0	34.5790	0	27.649	0	1936.851	0	50.2	4	15.1	4	-1E+10	1	-1E+10	1	-1E+10	1	-1E+10	1	-1E+10	1	-1E+10	1
4902551	25	C	04/17/2021	08:56	-134.804	49.626	0	1987.70	0	1.9330	0	34.5820	0	27.652	0	1961.406	0	51.7	4	15.6	4	-1E+10	1	-1E+10	1	-1E+10	1	-1E+10	1	-1E+10	1	-1E+10	1
4902551	25	C	04/17/2021	08:56	-134.804	49.626	0	2006.70	0	1.9190	0	34.5850	0	27.656	0	1980.067	0	52.4	4	15.8	4	-1E+10	1	-1E+10	1	-1E+10	1	-1E+10	1	-1E+10	1	-1E+10	1
4902551	25	C	04/17/2021	08:56	-134.804	49.626	0																										
4902551	26	C	04/27/2021	09:09	-134.759	49.639	0	1.10	0	8.1140	0	32.3550	0	25.181	0	1.091	0	286.9	4	98.3	4	-1E+10	1	-1E+10	1	-1E+10	1	-1E+10	1	-1E+10	1	-1E+10	1
4902551	26	C	04/27/2021	09:09	-134.759	49.639	0	2.10	0	8.1140	0	32.3550	0	25.181	0	2.082	0	286.9	4	98.3	4	-1E+10	1	-1E+10	1	-1E+10	1	-1E+10	1	-1E+10	1	-1E+10	1
4902551	26	C	04/27/2021	09:09	-134.759	49.639	0	3.20	0	8.1130	0	32.3560	0	25.182	0	3.173	0	286.9	4	98.3	4	-1E+10	1	-1E+10	1	-1E+10	1	-1E+10	1	-1E+10	1	-1E+10	1
4902551	26	C	04/27/2021	09:09	-134.759	49.639	0	3.90	0	8.1140	0	32.3550	0	25.181	0	3.867	0	286.9	4	98.3	4	-1E+10	1	-1E+10	1	-1E+10	1	-1E+10	1	-1E+10	1	-1E+10	1
4902551	26	C	04/27/2021	09:09	-134.759	49.639	0	4.90	0	8.1120	0	32.3580	0	25.184	0	4.858	0	286.9	4	98.3	4	-1E+10	1	-1E+10	1	-1E+10	1	-1E+10	1	-1E+10	1	-1E+10	1
4902551	26	C	04/27/2021	09:09	-134.759	49.639	0	5.90	0	8.1070	0	32.3570	0	25.184	0	5.850	0	287.0	4	98.4	4	-1E+10	1	-1E+10	1	-1E+10	1	-1E+10	1	-1E+10	1	-1E+10	1
4902551	26	C	04/27/2021	09:09	-134.759	49.639	0	6.90	0	8.1070	0	32.3560	0	25.183	0	6.841	0	286.9	4	98.3	4	-1E+10	1	-1E+10	1	-1E+10	1	-1E+10	1	-1E+10	1	-1E+10	1
4902551	26	C	04/27/2021	09:09	-134.759	49.639	0	7.90	0	8.1100	0	32.3580	0	25.184	0	7.832	0	287.0	4	98.4	4	-1E+10	1	-1E+10	1	-1E+10	1	-1E+10	1	-1E+10	1	-1E+10	1
4902551	26	C	04/27/2021	09:09	-134.759	49.639	0	8.80	0	8.1070	0	32.3570	0	25.184	0	8.725	0	286.9	4	98.3	4	-1E+10	1	-1E+10	1	-1E+10	1	-1E+10	1	-1E+10	1	-1E+10	1
4902551	26	C	04/27/2021	09:09	-134.759	49.639	0	9.80	0	8.1120	0	32.3550	0	25.181	0	9.716	0	286.9	4	98.3	4	-1E+10	1	-1E+10	1	-1E+10	1	-1E+10	1	-1E+10	1	-1E+10	1
4902551	26	C	04/27/2021	09:09	-134.759	49.639	0	15.40	0	8.0940	0	32.3570	0	25.186	0	15.268	0	287.6	4	98.5	4	-1E+10	1	-1E+10	1	-1E+10	1	-1E+10	1	-1E+10	1	-1E+10	1
4902551	26	C	04/27/2021	09:09	-134.759	49.639	0	25.20	0	7.6630	0	32.3620	0	25.251	0	24.983	0	289.7	4	98.3	4	-1E+10	1	-1E+10	1	-1E+10	1	-1E+10	1	-1E+10	1	-1E+10	1
4902551	26	C	04/27/2021	09:09	-134.759	49.639	0	35.40	0	7.2280	0	32.3690	0	25.317	0	35.095	0	289.8	4	97.4	4	-1E+10	1	-1E+10	1	-1E+10	1	-1E+10	1	-1E+10	1	-1E+10	1
4902551	26	C	04/27/2021	09:09	-134.759	49.639	0	45.50	0	7.0740	0	32.3670	0	25.336	0	45.106	0	288.4	4	96.5	4	-1E+10	1	-1E+10	1	-1E+10	1	-1E+10	1	-1E+10	1	-1E+10	1
4902551	26	C	04/27/2021	09:09	-134.759	49.639	0	55.40	0	6.9980	0	32.3710	0	25.349	0	54.920	0	287.2	4	96.0	4	-1E+10	1	-1E+10	1	-1E+10	1	-1E+10	1	-1E+10	1	-1E+10	1
4902551	26	C	04/27/2021	09:09	-134.759	49.639	0	65.40	0	6.9310	0	32.3700	0	25.358	0	64.831	0	284.8	4	95.1	4	-1E+10	1	-1E+10	1	-1E+10	1	-1E+10	1	-1E+10	1	-1E+10	1
4902551	26	C	04/27/2021	09:09	-134.759	49.639	0	75.40	0	6.8810	0	32.3690	0	25.364	0	74.742	0	283.5	4	94.5	4	-1E+10	1	-1E+10	1	-1E+10	1	-1E+10	1	-1E+10	1	-1E+10	1
4902551	26	C	04/27/2021	09:09	-134.759	49.639	0	85.80	0	6.8410	0	32.3680	0	25.368	0	85.050	0	282.1	4	94.0	4	-1E+10	1	-1E+10	1	-1E+10	1	-1E+10	1	-1E+10	1	-1E+10	1
4902551	26	C	04/27/2021	09:09	-134.759	49.639	0	95.50	0	6.8310	0	32.3730	0	25.374	0	94.663	0	276.1	4	91.9	4	-1E+10	1	-1E+10	1	-1E+10	1	-1E+10	1	-1E+10	1	-1E+10	1
4902551	26	C	04/27/2021	09:09	-134.759	49.639	0	105.90	0	6.7910	0	32.4650	0	25.451	0	104.969	0	249.6	4	83.1	4	-1E+10	1	-1E+10	1	-1E+10	1	-1E+10	1	-1E+10	1	-1E+10	1
4902551	26	C	04/27/2021	09:09	-134.759	49.639	0	115.70	0	6.6640	0	32.8970	0	25.808	0	114.680	0	198.7	4	66.2	4	-1E+10	1	-1E+10	1	-1E+10	1	-1E+10	1	-1E+10	1	-1E+10	1
4902551	26	C	04/27/2021	09:09	-134.759	49.639	0	126.00	0	6.4340	0	33.3090	0	26.163	0	124.886	0	164.8	4	54.8	4	-1E+10	1	-1E+10	1	-1E+10	1	-1E+10	1	-1E+10	1	-1E+10	1
4902551	26	C	04/27/2021	09:09	-134.759	49.639	0	135.50	0	6.3320	0	33.5060	0	26.332	0	134.299	0	152.6	4	50.6	4	-1E+10	1	-1E+10	1	-1E+10	1	-1E+10	1	-1E+10	1	-1E+10	1
4902551	26	C	04/27/2021	09:09	-134.759	49.639	0	145.30	0	6.1700	0	33.6200	0	26.443	0	144.008	0	139.8	4	46.3	4	-1E+10	1	-1E+10	1	-1E+10	1	-1E+10	1	-1E+10	1	-1E+10	1
4902551	26	C	04/27/2021	09:09	-134.759	49.639	0	155.20	0	5.9940	0	33.7060	0	26.533	0	153.817	0	130.5	4	43.0	4	-1E+10	1	-1E+10	1	-1E+10	1	-1E+10	1	-1E+10	1	-1E+10	1
4902551	26	C	04/27/2021	09:09	-134.759	49.639	0	165.00	0	5.9250	0	33.7420	0	26.570	0	163.526	0	124.1	4	40.9	4	-1E+10	1	-1E+10	1	-1E+10	1	-1E+10	1	-1E+10	1	-1E+10	1
4902551	26	C	04/27/2021	09:09	-134.759	49.639	0	175.00	0	5.7940	0	33.7740	0	26.611	0	173.432	0	119.4	4	39.2	4	-1E+10	1	-1E+10	1	-1E+10	1	-1E+10	1	-1E+10	1	-1E+10	1
4902551	26	C	04/27/2021	09:09	-134.759	49.639	0	185.20	0	5.6900	0	33.7910	0	26.638	0	183.536	0	114.5	4	37.5	4	-1E+10	1	-1E+10	1	-1E+10	1	-1E+10	1	-1E+10	1	-1E+10	1
4902551	26	C	04/27/2021	09:09	-134.759	49.639	0	195.60	0	5.5840	0	33.8070	0	26.663	0	193.838	0	108.7	4	35.5	4	-1E+10	1	-1E+10	1	-1E+10	1	-1E+10	1	-1E+10	1	-1E+10	1
4902551	26	C	04/27/2021	09:09	-134.759	49.639	0	213.00	0	5.4020	0	33.8260	0	26.700	0	211.072	0	100.3	4	32.7	4	-1E+10	1	-1E+10	1	-1E+10	1	-1E+10	1	-1E+10	1	-1E+10	1
4902551	26	C	04/27/2021	09:09	-134.759	49.639	0	238.00	0	5.1470	0	33.8470	0	26.747	0	235.832	0	89.6	4	29.0	4	-1E+10	1	-1E+10	1	-1E+10	1	-1E+10	1	-1E+10	1	-1E+10	1
4902551	26	C	04/27/2021	09:09	-134.759	49.639	0	263.00	0	4.9570	0	33.8640	0	26.782	0	260.588	0	80.5	4	26.0	4	-1E+10	1	-1E+10	1	-1E+10	1	-1E+10	1	-1E+10	1	-1E+10	1
4902551	26	C	04/27/2021	09:09	-134.759	49.639	0	287.50	0	4.7760	0	33.8850	0	26.819	0	284.846	0	72.7	4	23.3	4	-1E+10	1	-1E+10	1	-1E+10	1	-1E+10	1	-1E+10	1	-1E+10	1
4902551	26	C	04/27/2021	09:09	-134.759	49.639	0	312.90	0	4.6650	0	33.9030	0	26.846	0	309.993	0	65.8	4	21.1	4	-1E+10	1	-1E+10	1	-1E+10	1	-1E+10	1	-1E+10	1	-1E+10	1
4902551	26	C	04/27/2021	09:09	-134.759	49.639	0	338.00	0	4.5810	0	33.9280	0	26.875	0	334.840	0	58.3	4	18.6	4	-1E+10	1	-1E+10	1	-1E+10	1	-1E+10	1	-1E+10	1	-1E+10	1
4902551	26	C	04/27/2021	09:09	-134.759	49.639	0	363.00	0	4.5140	0	33.9510	0	26.901	0	359.584	0	53.0	4	16.9	4	-1E+10	1	-1E+10	1	-1E+10	1	-1E+10	1	-1E+10	1	-1E+10	1
4902551	26	C	04/27/2021	09:09	-134.759	49.639	0	388.10	0	4.4600	0	33.9760	0	26.926	0	384.425	0	47.4	4	15.1	4	-1E+10	1	-1E+10	1	-1E+10	1	-1E+10	1	-1E+10	1	-1E+10	1
4902551	26	C	04/27/2021	09:09	-134.759	49.639	0	412.90	0	4.3970	0	33.9990	0	26.952	0	408.965	0	42.8	4	13.6	4	-1E+10	1	-1E+10	1	-1E+10	1	-1E+10	1	-1E+10	1	-1E+10	1
4902551	26	C	04/27/2021	09:09	-134.759	49.639	0	438.90	0	4.3170	0	34.0250	0	26.981	0	434.690	0	37.9	4	12.1	4	-1E+10	1	-1E+10	1	-1E+10	1	-1E+10	1	-1E+10	1	-1E+10	1
4902551	26	C	04/27/2021	09:09	-134.759	49.639	0	462.90	0	4.2390	0	34.0510	0	27.010	0	458.434	0	34.7	4	11.0	4	-1E+10	1	-1E+10	1	-1E+10	1	-1E+10	1	-1E+10	1	-1E+10	1
4902551	26	C	04/27/2021	09:09	-134.759	49.639	0	487.80	0	4.1920	0	34.0710	0	27.031	0	483.065	0	31.1	4	9.9	4	-1E+10	1	-1E+10	1	-1E+10	1	-1E+10	1	-1E+10	1	-1E+10	1
4902551	26	C	04/27/2021	09:09	-134.759	49.639	0	513.00	0	4.1270	0	34.0880	0	27.052	0	507.989	0	29.3	4	9.3	4	-1E+10	1	-1E+10	1	-1E+10	1	-1E+10	1	-1E+10	1	-1E+10	1
4902551	26	C	04/27/2021	09:09	-134.759	49.639	0	537.70	0	4.0630	0	34.1060	0	27.073	0	532.416	0	26.9	4	8.5	4	-1E+10	1	-1E+10	1	-1E+10	1	-1E+10	1	-1E+10	1	-1E+10	1
4902551	26	C	04/27/2021	09:09	-134.759	49.639	0	562.80	0	4.0190	0	34.1220	0	27.090	0	557.236	0	25.0	4	7.9	4	-1E+10	1	-1E+10	1	-1E+10	1	-1E+10	1	-1E+10	1	-1E+10	1
4902551	26	C	04/27/2021	09:09	-134.759	49.639	0	587.90	0	3.9700	0	34.1390	0	27.109	0	582.053	0	23.2	4	7.3	4	-1E+10	1	-1E+10	1	-1E+10	1	-1E+10	1	-1E+10	1	-1E+10	1
4902551	26	C	04/27/2021	09:09	-134.759	49.639	0	612.70	0	3.9240	0	34.1550	0	27.126	0	606.570	0	21.6	4	6.8	4	-1E+10	1	-1E+10	1	-1E+10	1	-1E+10	1	-1E+10	1	-1E+10	1
4902551	26	C	04/27/2021	09:09	-134.759	49.639	0	637.80	0	3.8500	0	34.1770	0	27.151	0	631.381	0	19.7	4	6.2	4	-1E+10	1	-1E+10	1	-1E+10	1	-1E+10	1	-1E+10	1	-1E+10	1
4902551	26	C	04/27/2021	09:09	-134.759	49.639	0	663.70	0	3.7660	0	34.2010	0	27.179	0	656.979	0	18.4	4	5.8	4	-1E+10	1	-1E+10	1	-1E+10	1	-1E+10	1	-1E+10	1	-1E+10	1
4902551	26	C	04/27/2021	09:09	-134.759	49.639	0	687.50	0	3.7190	0	34.2140	0	27.194	0	680.499	0	17.7	4	5.5	4	-1E+10	1	-1E+10	1	-1E+10	1	-1E+10	1	-1E+10	1	-1E+10	1
4902551	26	C	04/27/2021	09:09	-134.759	49.639	0	712.30	0	3.6700	0	34.2270	0	27.210	0	705.005	0	16.9	4	5.3	4	-1E+10	1	-1E+10	1	-1E+10	1	-1E+10	1	-1E+10	1	-1E+10	1
4902551	26	C	04/27/2021	09:09	-134.759	49.639	0	737.60	0	3.5860	0	34.2480	0	27.235	0	730.002	0	15.9	4	5.0	4	-1E+10	1	-1E+10	1	-1E+10	1	-1E+10	1	-1E+10	1	-1E+10	1
4902551	26	C	04/27/2021	09:09	-134.759	49.639	0	762.70	0	3.5070	0	34.2650	0	27.256	0	754.798	0	15.3	4	4.8	4	-1E+10	1	-1E+10	1	-1E+10	1	-1E+10	1	-1E+10	1	-1E+10	1
4902551	26	C	04/27/2021	09:09	-134.759	49.639	0	787.70	0	3.4520	0	34.2770	0	27.271	0	779.492	0	15.0	4	4.7	4	-1E+10	1	-1E+10	1	-1E+10	1	-1E+10	1	-1E+10	1	-1E+10	1
4902551	26	C	04/27/2021	09:09	-134.759	49.639	0	813.10	0	3.3940	0	34.2900	0	27.287	0	804.578	0	14.5	4	4.5	4	-1E+10	1	-1E+10	1	-1E+10	1	-1E+10	1	-1E+10	1	-1E+10	1
4902551	26	C	04/27/2021	09:09	-134.759	49.639	0	838.60	0	3.3190	0	34.3060	0	27.307	0	829.761	0	14.2	4	4.4	4	-1E+10	1	-1E+10	1	-1E+10	1	-1E+10	1	-1E+10	1	-1E+10	1
4902551	26	C	04/27/2021	09:09	-134.759	49.639	0	862.80	0	3.2820	0	34.3140	0	27.317	0	853.656	0	14.0	4	4.4	4	-1E+10	1	-1E+10	1	-1E+10	1	-1E+10	1	-1E+10	1	-1E+10	1
4902551	26	C	04/27/2021	09:09	-134.759	49.639	0	887.70	0	3.2470	0	34.3210	0	27.326	0	878.240	0	13.9	4	4.3	4	-1E+10	1	-1E+10	1	-1E+10	1	-1E+10	1	-1E+10	1	-1E+10	1
4902551	26	C	04/27/2021	09:09	-134.759	49.639	0	912.60	0	3.2130	0	34.3280	0	27.335	0	902.821	0	13.8	4	4.3	4	-1E+10	1	-1E+10	1	-1E+10	1	-1E+10	1	-1E+10	1	-1E+10	1
4902551	26	C	04/27/2021	09:09	-134.759	49.639	0	937.50	0	3.1760	0	34.3360	0	27.345	0	927.399	0	13.6	4	4.2	4	-1E+10	1	-1E+10	1	-1E+10	1	-1E+10	1	-1E+10	1	-1E+10	1
4902551	26	C	04/27/2021	09:09	-134.759	49.639	0	962.70	0	3.1170	0	34.3480	0	27.360	0	952.270	0	13.5	4	4.2	4	-1E+10	1	-1E+10	1	-1E+10	1	-1E+10	1	-1E+10	1	-1E+10	1
4902551	26	C	04/27/2021	09:09	-134.759	49.639	0	988.10	0	3.0620	0	34.3590	0	27.374	0	977.336	0	13.4	4	4.1	4	-1E+10	1	-1E+10	1	-1E+10	1	-1E+10	1	-1E+10	1	-1E+10	1
4902551	26	C	04/27/2021	09:09	-134.759	49.639	0	1013.00	0	3.0280	0	34.3660	0	27.383	0	1001.905	0	13.4	4	4.1	4	-1E+10	1	-1E+10	1	-1E+10	1	-1E+10	1	-1E+10	1	-1E+10	1
4902551	26	C	04/27/2021	09:09	-134.759	49.639	0	1038.00	0	2.9830	0	34.3750	0	27.394	0	1026.570	0	13.3	4	4.1	4	-1E+10	1	-1E+10	1	-1E+10	1	-1E+10	1	-1E+10	1	-1E+10	1
4902551	26	C	04/27/2021	09:09	-134.759	49.639	0	1062.70	0	2.9430	0	34.3840	0	27.405	0	1050.936	0	13.3	4	4.1	4	-1E+10	1	-1E+10	1	-1E+10	1	-1E+10	1	-1E+10	1	-1E+10	1
4902551	26	C	04/27/2021	09:09	-134.759	49.639	0	1087.90	0	2.9000	0	34.3920	0	27.415	0	1075.793	0	13.3	4	4.1	4	-1E+10	1	-1E+10	1	-1E+10	1	-1E+10	1	-1E+10	1	-1E+10	1
4902551	26	C	04/27/2021	09:09	-134.759	49.639	0	1113.10	0	2.8670	0	34.3990	0	27.424	0	1100.646	0	13.3	4	4.1	4	-1E+10	1	-1E+10	1	-1E+10	1	-1E+10	1	-1E+10	1	-1E+10	1
4902551	26	C	04/27/2021	09:09	-134.759	49.639	0	1138.00	0	2.8360	0	34.4060	0	27.433	0	1125.201	0	13.4	4	4.1	4	-1E+10	1	-1E+10	1	-1E+10	1	-1E+10	1	-1E+10	1	-1E+10	1
4902551	26	C	04/27/2021	09:09	-134.759	49.639	0	1162.70	0	2.7980	0	34.4130	0	27.442	0	1149.556	0	13.6	4	4.2	4	-1E+10	1	-1E+10	1	-1E+10	1	-1E+10	1	-1E+10	1	-1E+10	1
4902551	26	C	04/27/2021	09:09	-134.759	49.639	0	1187.80	0	2.7530	0	34.4210	0	27.452	0	1174.302	0	13.8	4	4.2	4	-1E+10	1	-1E+10	1	-1E+10	1	-1E+10	1	-1E+10	1	-1E+10	1
4902551	26	C	04/27/2021	09:09	-134.759	49.639	0	1213.10	0	2.7220	0	34.4280	0	27.461	0	1199.242	0	13.8	4	4.2	4	-1E+10	1	-1E+10	1	-1E+10	1	-1E+10	1	-1E+10	1	-1E+10	1
4902551	26	C	04/27/2021	09:09	-134.759	49.639	0	1237.80	0	2.6850	0	34.4350	0	27.469	0	1223.588	0	14.0	4	4.3	4	-1E+10	1	-1E+10	1	-1E+10	1	-1E+10	1	-1E+10	1	-1E+10	1
4902551	26	C	04/27/2021	09:09	-134.759	49.639	0	1263.10	0	2.6530	0	34.4400	0	27.476	0	1248.523	0	14.5	4	4.4	4	-1E+10	1	-1E+10	1	-1E+10	1	-1E+10	1	-1E+10	1	-1E+10	1
4902551	26	C	04/27/2021	09:09	-134.759	49.639	0	1287.70	0	2.6200	0	34.4470	0	27.485	0	1272.764	0	14.9	4	4.5	4	-1E+10	1	-1E+10	1	-1E+10	1	-1E+10	1	-1E+10	1	-1E+10	1
4902551	26	C	04/27/2021	09:09	-134.759	49.639	0	1312.50	0	2.5950	0	34.4520	0	27.491	0	1297.201	0	15.1	4	4.6	4	-1E+10	1	-1E+10	1	-1E+10	1	-1E+10	1	-1E+10	1	-1E+10	1
4902551	26	C	04/27/2021	09:09	-134.759	49.639	0	1337.40	0	2.5670	0	34.4570	0	27.498	0	1321.732	0	15.5	4	4.7	4	-1E+10	1	-1E+10	1	-1E+10	1	-1E+10	1	-1E+10	1	-1E+10	1
4902551	26	C	04/27/2021	09:09	-134.759	49.639	0	1362.40	0	2.5430	0	34.4620	0	27.504	0	1346.360	0	15.9	4	4.9	4	-1E+10	1	-1E+10	1	-1E+10	1	-1E+10	1	-1E+10	1	-1E+10	1
4902551	26	C	04/27/2021	09:09	-134.759	49.639	0	1387.60	0	2.5170	0	34.4670	0	27.510	0	1371.181	0	16.4	4	5.0	4	-1E+10	1	-1E+10	1	-1E+10	1	-1E+10	1	-1E+10	1	-1E+10	1
4902551	26	C	04/27/2021	09:09	-134.759	49.639	0	1412.80	0	2.4900	0	34.4730	0	27.517	0	1396.000	0	17.2	4	5.2	4	-1E+10	1	-1E+10	1	-1E+10	1	-1E+10	1	-1E+10	1	-1E+10	1
4902551	26	C	04/27/2021	09:09	-134.759	49.639	0	1437.90	0	2.4580	0	34.4790	0	27.525	0	1420.717	0	18.1	4	5.5	4	-1E+10	1	-1E+10	1	-1E+10	1	-1E+10	1	-1E+10	1	-1E+10	1
4902551	26	C	04/27/2021	09:09	-134.759	49.639	0	1462.80	0	2.4210	0	34.4860	0	27.534	0	1445.234	0	19.2	4	5.8	4	-1E+10	1	-1E+10	1	-1E+10	1	-1E+10	1	-1E+10	1	-1E+10	1
4902551	26	C	04/27/2021	09:09	-134.759	49.639	0	1487.40	0	2.3980	0	34.4910	0	27.540	0	1469.453	0	20.3	4	6.2	4	-1E+10	1	-1E+10	1	-1E+10	1	-1E+10	1	-1E+10	1	-1E+10	1
4902551	26	C	04/27/2021	09:09	-134.759	49.639	0	1512.70	0	2.3710	0	34.4970	0	27.547	0	1494.358	0	21.6	4	6.6	4	-1E+10	1	-1E+10	1	-1E+10	1	-1E+10	1	-1E+10	1	-1E+10	1
4902551	26	C	04/27/2021	09:09	-134.759	49.639	0	1537.90	0	2.3370	0	34.5030	0	27.555	0	1519.162	0	22.6	4	6.9	4	-1E+10	1	-1E+10	1	-1E+10	1	-1E+10	1	-1E+10	1	-1E+10	1
4902551	26	C	04/27/2021	09:09	-134.759	49.639	0	1562.80	0	2.3120	0	34.5070	0	27.560	0	1543.668	0	23.9	4	7.3	4	-1E+10	1	-1E+10	1	-1E+10	1	-1E+10	1	-1E+10	1	-1E+10	1
4902551	26	C	04/27/2021	09:09	-134.759	49.639	0	1588.00	0	2.2880	0	34.5120	0	27.566	0	1568.466	0	25.3	4	7.7	4	-1E+10	1	-1E+10	1	-1E+10	1	-1E+10	1	-1E+10	1	-1E+10	1
4902551	26	C	04/27/2021	09:09	-134.759	49.639	0	1613.70	0	2.2610	0	34.5170	0	27.573	0	1593.753	0	26.7	4	8.1	4	-1E+10	1	-1E+10	1	-1E+10	1	-1E+10	1	-1E+10	1	-1E+10	1
4902551	26	C	04/27/2021	09:09	-134.759	49.639	0	1637.40	0	2.2370	0	34.5220	0	27.579	0	1617.070	0	28.1	4	8.5	4	-1E+10	1	-1E+10	1	-1E+10	1	-1E+10	1	-1E+10	1	-1E+10	1
4902551	26	C	04/27/2021	09:09	-134.759	49.639	0	1662.40	0	2.2150	0	34.5270	0	27.585	0	1641.663	0	29.4	4	8.9	4	-1E+10	1	-1E+10	1	-1E+10	1	-1E+10	1	-1E+10	1	-1E+10	1
4902551	26	C	04/27/2021	09:09	-134.759	49.639	0	1687.70	0	2.2020	0	34.5300	0	27.588	0	1666.548	0	30.5	4	9.2	4	-1E+10	1	-1E+10	1	-1E+10	1	-1E+10	1	-1E+10	1	-1E+10	1
4902551	26	C	04/27/2021	09:09	-134.759	49.639	0	1713.00	0	2.1890	0	34.5330	0	27.592	0	1691.430	0	32.1	4	9.7	4	-1E+10	1	-1E+10	1	-1E+10	1	-1E+10	1	-1E+10	1	-1E+10	1
4902551	26	C	04/27/2021	09:09	-134.759	49.639	0	1738.40	0	2.1710	0	34.5380	0	27.597	0	1716.407	0	33.8	4	10.2	4	-1E+10	1	-1E+10	1	-1E+10	1	-1E+10	1	-1E+10	1	-1E+10	1
4902551	26	C	04/27/2021	09:09	-134.759	49.639	0	1763.10	0	2.1390	0	34.5420	0	27.603	0	1740.694	0	35.5	4	10.7	4	-1E+10	1	-1E+10	1	-1E+10	1	-1E+10	1	-1E+10	1	-1E+10	1
4902551	26	C	04/27/2021	09:09	-134.759	49.639	0	1788.00	0	2.1120	0	34.5480	0	27.610	0	1765.174	0	37.5	4	11.3	4	-1E+10	1	-1E+10	1	-1E+10	1	-1E+10	1	-1E+10	1	-1E+10	1
4902551	26	C	04/27/2021	09:09	-134.759	49.639	0	1812.90	0	2.0920	0	34.5520	0	27.615	0	1789.651	0	39.2	4	11.9	4	-1E+10	1	-1E+10	1	-1E+10	1	-1E+10	1	-1E+10	1	-1E+10	1
4902551	26	C	04/27/2021	09:09	-134.759	49.639	0	1837.90	0	2.0830	0	34.5560	0	27.619	0	1814.224	0	41.0	4	12.4	4	-1E+10	1	-1E+10	1	-1E+10	1	-1E+10	1	-1E+10	1	-1E+10	1
4902551	26	C	04/27/2021	09:09	-134.759	49.639	0	1863.00	0	2.0610	0	34.5600	0	27.624	0	1838.892	0	42.9	4	13.0	4	-1E+10	1	-1E+10	1	-1E+10	1	-1E+10	1	-1E+10	1	-1E+10	1
4902551	26	C	04/27/2021	09:09	-134.759	49.639	0	1888.00	0	2.0370	0	34.5650	0	27.630	0	1863.459	0	44.8	4	13.5	4	-1E+10	1	-1E+10	1	-1E+10	1	-1E+10	1	-1E+10	1	-1E+10	1
4902551	26	C	04/27/2021	09:09	-134.759	49.639	0	1913.10	0	2.0170	0	34.5690	0	27.635	0	1888.121	0	46.8	4	14.1	4	-1E+10	1	-1E+10	1	-1E+10	1	-1E+10	1	-1E+10	1	-1E+10	1
4902551	26	C	04/27/2021	09:09	-134.759	49.639	0	1938.80	0	1.9920	0	34.5740	0	27.641	0	1913.371	0	48.6	4	14.6	4	-1E+10	1	-1E+10	1	-1E+10	1	-1E+10	1	-1E+10	1	-1E+10	1
4902551	26	C	04/27/2021	09:09	-134.759	49.639	0	1963.10	0	1.9770	0	34.5770	0	27.645	0	1937.241	0	50.1	4	15.1	4	-1E+10	1	-1E+10	1	-1E+10	1	-1E+10	1	-1E+10	1	-1E+10	1
4902551	26	C	04/27/2021	09:09	-134.759	49.639	0	1987.70	0	1.9590	0	34.5810	0	27.650	0	1961.404	0	51.9	4	15.6	4	-1E+10	1	-1E+10	1	-1E+10	1	-1E+10	1	-1E+10	1	-1E+10	1
4902551	26	C	04/27/2021	09:09	-134.759	49.639	0	2012.50	0	1.9320	0	34.5860	0	27.656	0	1985.761	0	53.2	4	16.0	4	-1E+10	1	-1E+10	1	-1E+10	1	-1E+10	1	-1E+10	1	-1E+10	1
4902551	26	C	04/27/2021	09:09	-134.759	49.639	0																										
4902551	27	C	05/07/2021	08:54	-134.729	49.634	0	0.40	0	7.7040	0	32.3640	0	25.247	0	0.397	0	284.5	4	96.6	4	-1E+10	1	-1E+10	1	-1E+10	1	-1E+10	1	-1E+10	1	-1E+10	1
4902551	27	C	05/07/2021	08:54	-134.729	49.634	0	1.00	0	7.7030	0	32.3650	0	25.248	0	0.991	0	284.5	4	96.6	4	-1E+10	1	-1E+10	1	-1E+10	1	-1E+10	1	-1E+10	1	-1E+10	1
4902551	27	C	05/07/2021	08:54	-134.729	49.634	0	2.10	0	7.7070	0	32.3630	0	25.245	0	2.082	0	284.5	4	96.6	4	-1E+10	1	-1E+10	1	-1E+10	1	-1E+10	1	-1E+10	1	-1E+10	1
4902551	27	C	05/07/2021	08:54	-134.729	49.634	0	3.00	0	7.7060	0	32.3630	0	25.246	0	2.974	0	284.5	4	96.6	4	-1E+10	1	-1E+10	1	-1E+10	1	-1E+10	1	-1E+10	1	-1E+10	1
4902551	27	C	05/07/2021	08:54	-134.729	49.634	0	4.00	0	7.7090	0	32.3620	0	25.244	0	3.966	0	284.5	4	96.6	4	-1E+10	1	-1E+10	1	-1E+10	1	-1E+10	1	-1E+10	1	-1E+10	1
4902551	27	C	05/07/2021	08:54	-134.729	49.634	0	5.10	0	7.7090	0	32.3630	0	25.245	0	5.056	0	284.4	4	96.6	4	-1E+10	1	-1E+10	1	-1E+10	1	-1E+10	1	-1E+10	1	-1E+10	1
4902551	27	C	05/07/2021	08:54	-134.729	49.634	0	6.00	0	7.7090	0	32.3630	0	25.245	0	5.949	0	284.5	4	96.6	4	-1E+10	1	-1E+10	1	-1E+10	1	-1E+10	1	-1E+10	1	-1E+10	1
4902551	27	C	05/07/2021	08:54	-134.729	49.634	0	6.80	0	7.7090	0	32.3630	0	25.245	0	6.742	0	284.5	4	96.6	4	-1E+10	1	-1E+10	1	-1E+10	1	-1E+10	1	-1E+10	1	-1E+10	1
4902551	27	C	05/07/2021	08:54	-134.729	49.634	0	8.10	0	7.7070	0	32.3630	0	25.246	0	8.031	0	284.4	4	96.6	4	-1E+10	1	-1E+10	1	-1E+10	1	-1E+10	1	-1E+10	1	-1E+10	1
4902551	27	C	05/07/2021	08:54	-134.729	49.634	0	8.90	0	7.7070	0	32.3630	0	25.246	0	8.824	0	284.4	4	96.6	4	-1E+10	1	-1E+10	1	-1E+10	1	-1E+10	1	-1E+10	1	-1E+10	1
4902551	27	C	05/07/2021	08:54	-134.729	49.634	0	9.80	0	7.7070	0	32.3630	0	25.246	0	9.716	0	284.3	4	96.6	4	-1E+10	1	-1E+10	1	-1E+10	1	-1E+10	1	-1E+10	1	-1E+10	1
4902551	27	C	05/07/2021	08:54	-134.729	49.634	0	15.40	0	7.7090	0	32.3620	0	25.245	0	15.268	0	284.3	4	96.6	4	-1E+10	1	-1E+10	1	-1E+10	1	-1E+10	1	-1E+10	1	-1E+10	1
4902551	27	C	05/07/2021	08:54	-134.729	49.634	0	25.40	0	7.7110	0	32.3620	0	25.244	0	25.182	0	284.1	4	96.5	4	-1E+10	1	-1E+10	1	-1E+10	1	-1E+10	1	-1E+10	1	-1E+10	1
4902551	27	C	05/07/2021	08:54	-134.729	49.634	0	35.30	0	7.7080	0	32.3620	0	25.245	0	34.996	0	284.0	4	96.5	4	-1E+10	1	-1E+10	1	-1E+10	1	-1E+10	1	-1E+10	1	-1E+10	1
4902551	27	C	05/07/2021	08:54	-134.729	49.634	0	45.40	0	7.6980	0	32.3620	0	25.247	0	45.007	0	283.6	4	96.3	4	-1E+10	1	-1E+10	1	-1E+10	1	-1E+10	1	-1E+10	1	-1E+10	1
4902551	27	C	05/07/2021	08:54	-134.729	49.634	0	55.20	0	7.4850	0	32.3630	0	25.277	0	54.721	0	283.4	4	95.8	4	-1E+10	1	-1E+10	1	-1E+10	1	-1E+10	1	-1E+10	1	-1E+10	1
4902551	27	C	05/07/2021	08:54	-134.729	49.634	0	65.70	0	6.8420	0	32.3810	0	25.378	0	65.129	0	284.7	4	94.8	4	-1E+10	1	-1E+10	1	-1E+10	1	-1E+10	1	-1E+10	1	-1E+10	1
4902551	27	C	05/07/2021	08:54	-134.729	49.634	0	75.50	0	6.6140	0	32.3900	0	25.415	0	74.842	0	284.3	4	94.2	4	-1E+10	1	-1E+10	1	-1E+10	1	-1E+10	1	-1E+10	1	-1E+10	1
4902551	27	C	05/07/2021	08:54	-134.729	49.634	0	85.30	0	6.5350	0	32.3950	0	25.429	0	84.554	0	281.9	4	93.3	4	-1E+10	1	-1E+10	1	-1E+10	1	-1E+10	1	-1E+10	1	-1E+10	1
4902551	27	C	05/07/2021	08:54	-134.729	49.634	0	95.20	0	6.4610	0	32.4020	0	25.444	0	94.365	0	277.6	4	91.7	4	-1E+10	1	-1E+10	1	-1E+10	1	-1E+10	1	-1E+10	1	-1E+10	1
4902551	27	C	05/07/2021	08:54	-134.729	49.634	0	105.30	0	6.4090	0	32.4220	0	25.466	0	104.374	0	265.4	4	87.6	4	-1E+10	1	-1E+10	1	-1E+10	1	-1E+10	1	-1E+10	1	-1E+10	1
4902551	27	C	05/07/2021	08:54	-134.729	49.634	0	115.30	0	6.4890	0	32.7500	0	25.715	0	114.283	0	204.6	4	67.8	4	-1E+10	1	-1E+10	1	-1E+10	1	-1E+10	1	-1E+10	1	-1E+10	1
4902551	27	C	05/07/2021	08:54	-134.729	49.634	0	125.30	0	6.5430	0	33.2700	0	26.118	0	124.192	0	159.6	4	53.1	4	-1E+10	1	-1E+10	1	-1E+10	1	-1E+10	1	-1E+10	1	-1E+10	1
4902551	27	C	05/07/2021	08:54	-134.729	49.634	0	135.40	0	6.4920	0	33.4730	0	26.285	0	134.200	0	144.2	4	48.0	4	-1E+10	1	-1E+10	1	-1E+10	1	-1E+10	1	-1E+10	1	-1E+10	1
4902551	27	C	05/07/2021	08:54	-134.729	49.634	0	145.40	0	6.4090	0	33.5780	0	26.379	0	144.108	0	135.0	4	44.9	4	-1E+10	1	-1E+10	1	-1E+10	1	-1E+10	1	-1E+10	1	-1E+10	1
4902551	27	C	05/07/2021	08:54	-134.729	49.634	0	155.10	0	6.2750	0	33.6880	0	26.483	0	153.718	0	125.1	4	41.5	4	-1E+10	1	-1E+10	1	-1E+10	1	-1E+10	1	-1E+10	1	-1E+10	1
4902551	27	C	05/07/2021	08:54	-134.729	49.634	0	165.00	0	6.1460	0	33.7560	0	26.553	0	163.526	0	116.8	4	38.7	4	-1E+10	1	-1E+10	1	-1E+10	1	-1E+10	1	-1E+10	1	-1E+10	1
4902551	27	C	05/07/2021	08:54	-134.729	49.634	0	175.10	0	5.9920	0	33.8030	0	26.610	0	173.531	0	110.3	4	36.4	4	-1E+10	1	-1E+10	1	-1E+10	1	-1E+10	1	-1E+10	1	-1E+10	1
4902551	27	C	05/07/2021	08:54	-134.729	49.634	0	185.40	0	5.8390	0	33.8230	0	26.645	0	183.734	0	105.7	4	34.8	4	-1E+10	1	-1E+10	1	-1E+10	1	-1E+10	1	-1E+10	1	-1E+10	1
4902551	27	C	05/07/2021	08:54	-134.729	49.634	0	195.50	0	5.6590	0	33.8320	0	26.674	0	193.739	0	100.1	4	32.8	4	-1E+10	1	-1E+10	1	-1E+10	1	-1E+10	1	-1E+10	1	-1E+10	1
4902551	27	C	05/07/2021	08:54	-134.729	49.634	0	213.00	0	5.3790	0	33.8520	0	26.723	0	211.072	0	90.1	4	29.3	4	-1E+10	1	-1E+10	1	-1E+10	1	-1E+10	1	-1E+10	1	-1E+10	1
4902551	27	C	05/07/2021	08:54	-134.729	49.634	0	239.00	0	5.1570	0	33.8770	0	26.769	0	236.822	0	79.1	4	25.6	4	-1E+10	1	-1E+10	1	-1E+10	1	-1E+10	1	-1E+10	1	-1E+10	1
4902551	27	C	05/07/2021	08:54	-134.729	49.634	0	262.30	0	5.0020	0	33.8940	0	26.801	0	259.895	0	71.1	4	23.0	4	-1E+10	1	-1E+10	1	-1E+10	1	-1E+10	1	-1E+10	1	-1E+10	1
4902551	27	C	05/07/2021	08:54	-134.729	49.634	0	287.70	0	4.8760	0	33.9130	0	26.830	0	285.045	0	63.4	4	20.4	4	-1E+10	1	-1E+10	1	-1E+10	1	-1E+10	1	-1E+10	1	-1E+10	1
4902551	27	C	05/07/2021	08:54	-134.729	49.634	0	312.80	0	4.7750	0	33.9350	0	26.859	0	309.894	0	56.8	4	18.2	4	-1E+10	1	-1E+10	1	-1E+10	1	-1E+10	1	-1E+10	1	-1E+10	1
4902551	27	C	05/07/2021	08:54	-134.729	49.634	0	337.80	0	4.7440	0	33.9540	0	26.878	0	334.642	0	52.0	4	16.7	4	-1E+10	1	-1E+10	1	-1E+10	1	-1E+10	1	-1E+10	1	-1E+10	1
4902551	27	C	05/07/2021	08:54	-134.729	49.634	0	363.00	0	4.6680	0	33.9740	0	26.902	0	359.584	0	47.0	4	15.1	4	-1E+10	1	-1E+10	1	-1E+10	1	-1E+10	1	-1E+10	1	-1E+10	1
4902551	27	C	05/07/2021	08:54	-134.729	49.634	0	387.90	0	4.6070	0	33.9950	0	26.926	0	384.227	0	43.4	4	13.9	4	-1E+10	1	-1E+10	1	-1E+10	1	-1E+10	1	-1E+10	1	-1E+10	1
4902551	27	C	05/07/2021	08:54	-134.729	49.634	0	413.30	0	4.5490	0	34.0140	0	26.947	0	409.361	0	39.3	4	12.6	4	-1E+10	1	-1E+10	1	-1E+10	1	-1E+10	1	-1E+10	1	-1E+10	1
4902551	27	C	05/07/2021	08:54	-134.729	49.634	0	438.00	0	4.4490	0	34.0350	0	26.975	0	433.800	0	35.6	4	11.3	4	-1E+10	1	-1E+10	1	-1E+10	1	-1E+10	1	-1E+10	1	-1E+10	1
4902551	27	C	05/07/2021	08:54	-134.729	49.634	0	462.80	0	4.3660	0	34.0530	0	26.998	0	458.335	0	32.3	4	10.3	4	-1E+10	1	-1E+10	1	-1E+10	1	-1E+10	1	-1E+10	1	-1E+10	1
4902551	27	C	05/07/2021	08:54	-134.729	49.634	0	487.80	0	4.3070	0	34.0730	0	27.021	0	483.065	0	29.6	4	9.4	4	-1E+10	1	-1E+10	1	-1E+10	1	-1E+10	1	-1E+10	1	-1E+10	1
4902551	27	C	05/07/2021	08:54	-134.729	49.634	0	513.10	0	4.2040	0	34.0810	0	27.038	0	508.088	0	29.2	4	9.3	4	-1E+10	1	-1E+10	1	-1E+10	1	-1E+10	1	-1E+10	1	-1E+10	1
4902551	27	C	05/07/2021	08:54	-134.729	49.634	0	538.10	0	4.1960	0	34.1030	0	27.056	0	532.812	0	24.1	4	7.6	4	-1E+10	1	-1E+10	1	-1E+10	1	-1E+10	1	-1E+10	1	-1E+10	1
4902551	27	C	05/07/2021	08:54	-134.729	49.634	0	563.20	0	4.1290	0	34.1260	0	27.082	0	557.632	0	22.9	4	7.2	4	-1E+10	1	-1E+10	1	-1E+10	1	-1E+10	1	-1E+10	1	-1E+10	1
4902551	27	C	05/07/2021	08:54	-134.729	49.634	0	587.80	0	4.0380	0	34.1460	0	27.107	0	581.954	0	21.2	4	6.7	4	-1E+10	1	-1E+10	1	-1E+10	1	-1E+10	1	-1E+10	1	-1E+10	1
4902551	27	C	05/07/2021	08:54	-134.729	49.634	0	613.00	0	3.9930	0	34.1690	0	27.130	0	606.867	0	18.1	4	5.7	4	-1E+10	1	-1E+10	1	-1E+10	1	-1E+10	1	-1E+10	1	-1E+10	1
4902551	27	C	05/07/2021	08:54	-134.729	49.634	0	637.90	0	3.9350	0	34.1910	0	27.154	0	631.480	0	17.6	4	5.6	4	-1E+10	1	-1E+10	1	-1E+10	1	-1E+10	1	-1E+10	1	-1E+10	1
4902551	27	C	05/07/2021	08:54	-134.729	49.634	0	663.00	0	3.7710	0	34.2060	0	27.183	0	656.288	0	17.8	4	5.6	4	-1E+10	1	-1E+10	1	-1E+10	1	-1E+10	1	-1E+10	1	-1E+10	1
4902551	27	C	05/07/2021	08:54	-134.729	49.634	0	687.80	0	3.6800	0	34.2240	0	27.206	0	680.796	0	16.9	4	5.3	4	-1E+10	1	-1E+10	1	-1E+10	1	-1E+10	1	-1E+10	1	-1E+10	1
4902551	27	C	05/07/2021	08:54	-134.729	49.634	0	712.60	0	3.6200	0	34.2400	0	27.225	0	705.302	0	16.2	4	5.1	4	-1E+10	1	-1E+10	1	-1E+10	1	-1E+10	1	-1E+10	1	-1E+10	1
4902551	27	C	05/07/2021	08:54	-134.729	49.634	0	737.80	0	3.5610	0	34.2530	0	27.241	0	730.200	0	15.8	4	5.0	4	-1E+10	1	-1E+10	1	-1E+10	1	-1E+10	1	-1E+10	1	-1E+10	1
4902551	27	C	05/07/2021	08:54	-134.729	49.634	0	763.40	0	3.5090	0	34.2650	0	27.256	0	755.490	0	15.4	4	4.8	4	-1E+10	1	-1E+10	1	-1E+10	1	-1E+10	1	-1E+10	1	-1E+10	1
4902551	27	C	05/07/2021	08:54	-134.729	49.634	0	787.50	0	3.4550	0	34.2770	0	27.271	0	779.295	0	14.9	4	4.6	4	-1E+10	1	-1E+10	1	-1E+10	1	-1E+10	1	-1E+10	1	-1E+10	1
4902551	27	C	05/07/2021	08:54	-134.729	49.634	0	812.70	0	3.3980	0	34.2890	0	27.286	0	804.184	0	14.5	4	4.5	4	-1E+10	1	-1E+10	1	-1E+10	1	-1E+10	1	-1E+10	1	-1E+10	1
4902551	27	C	05/07/2021	08:54	-134.729	49.634	0	837.80	0	3.3550	0	34.2990	0	27.298	0	828.971	0	14.2	4	4.4	4	-1E+10	1	-1E+10	1	-1E+10	1	-1E+10	1	-1E+10	1	-1E+10	1
4902551	27	C	05/07/2021	08:54	-134.729	49.634	0	863.00	0	3.3050	0	34.3090	0	27.311	0	853.854	0	14.0	4	4.3	4	-1E+10	1	-1E+10	1	-1E+10	1	-1E+10	1	-1E+10	1	-1E+10	1
4902551	27	C	05/07/2021	08:54	-134.729	49.634	0	888.00	0	3.2380	0	34.3230	0	27.328	0	878.537	0	13.8	4	4.3	4	-1E+10	1	-1E+10	1	-1E+10	1	-1E+10	1	-1E+10	1	-1E+10	1
4902551	27	C	05/07/2021	08:54	-134.729	49.634	0	912.60	0	3.1950	0	34.3300	0	27.338	0	902.821	0	13.8	4	4.3	4	-1E+10	1	-1E+10	1	-1E+10	1	-1E+10	1	-1E+10	1	-1E+10	1
4902551	27	C	05/07/2021	08:54	-134.729	49.634	0	937.50	0	3.1560	0	34.3390	0	27.349	0	927.399	0	13.6	4	4.2	4	-1E+10	1	-1E+10	1	-1E+10	1	-1E+10	1	-1E+10	1	-1E+10	1
4902551	27	C	05/07/2021	08:54	-134.729	49.634	0	962.50	0	3.1080	0	34.3490	0	27.362	0	952.073	0	13.5	4	4.2	4	-1E+10	1	-1E+10	1	-1E+10	1	-1E+10	1	-1E+10	1	-1E+10	1
4902551	27	C	05/07/2021	08:54	-134.729	49.634	0	988.60	0	3.0710	0	34.3570	0	27.372	0	977.830	0	13.5	4	4.2	4	-1E+10	1	-1E+10	1	-1E+10	1	-1E+10	1	-1E+10	1	-1E+10	1
4902551	27	C	05/07/2021	08:54	-134.729	49.634	0	1012.60	0	3.0390	0	34.3630	0	27.379	0	1001.511	0	13.4	4	4.1	4	-1E+10	1	-1E+10	1	-1E+10	1	-1E+10	1	-1E+10	1	-1E+10	1
4902551	27	C	05/07/2021	08:54	-134.729	49.634	0	1037.50	0	2.9910	0	34.3740	0	27.393	0	1026.077	0	13.3	4	4.1	4	-1E+10	1	-1E+10	1	-1E+10	1	-1E+10	1	-1E+10	1	-1E+10	1
4902551	27	C	05/07/2021	08:54	-134.729	49.634	0	1063.00	0	2.9510	0	34.3820	0	27.403	0	1051.233	0	13.3	4	4.1	4	-1E+10	1	-1E+10	1	-1E+10	1	-1E+10	1	-1E+10	1	-1E+10	1
4902551	27	C	05/07/2021	08:54	-134.729	49.634	0	1087.70	0	2.9250	0	34.3870	0	27.409	0	1075.596	0	13.4	4	4.1	4	-1E+10	1	-1E+10	1	-1E+10	1	-1E+10	1	-1E+10	1	-1E+10	1
4902551	27	C	05/07/2021	08:54	-134.729	49.634	0	1112.80	0	2.8830	0	34.3950	0	27.419	0	1100.351	0	13.4	4	4.1	4	-1E+10	1	-1E+10	1	-1E+10	1	-1E+10	1	-1E+10	1	-1E+10	1
4902551	27	C	05/07/2021	08:54	-134.729	49.634	0	1138.10	0	2.8450	0	34.4030	0	27.429	0	1125.300	0	13.5	4	4.2	4	-1E+10	1	-1E+10	1	-1E+10	1	-1E+10	1	-1E+10	1	-1E+10	1
4902551	27	C	05/07/2021	08:54	-134.729	49.634	0	1162.70	0	2.8050	0	34.4110	0	27.439	0	1149.556	0	13.6	4	4.2	4	-1E+10	1	-1E+10	1	-1E+10	1	-1E+10	1	-1E+10	1	-1E+10	1
4902551	27	C	05/07/2021	08:54	-134.729	49.634	0	1187.70	0	2.7680	0	34.4180	0	27.448	0	1174.204	0	13.8	4	4.2	4	-1E+10	1	-1E+10	1	-1E+10	1	-1E+10	1	-1E+10	1	-1E+10	1
4902551	27	C	05/07/2021	08:54	-134.729	49.634	0	1213.30	0	2.7360	0	34.4250	0	27.457	0	1199.440	0	14.0	4	4.3	4	-1E+10	1	-1E+10	1	-1E+10	1	-1E+10	1	-1E+10	1	-1E+10	1
4902551	27	C	05/07/2021	08:54	-134.729	49.634	0	1237.60	0	2.6980	0	34.4320	0	27.466	0	1223.392	0	14.2	4	4.4	4	-1E+10	1	-1E+10	1	-1E+10	1	-1E+10	1	-1E+10	1	-1E+10	1
4902551	27	C	05/07/2021	08:54	-134.729	49.634	0	1262.70	0	2.6590	0	34.4390	0	27.475	0	1248.129	0	14.5	4	4.4	4	-1E+10	1	-1E+10	1	-1E+10	1	-1E+10	1	-1E+10	1	-1E+10	1
4902551	27	C	05/07/2021	08:54	-134.729	49.634	0	1287.80	0	2.6200	0	34.4470	0	27.485	0	1272.864	0	14.6	4	4.5	4	-1E+10	1	-1E+10	1	-1E+10	1	-1E+10	1	-1E+10	1	-1E+10	1
4902551	27	C	05/07/2021	08:54	-134.729	49.634	0	1313.00	0	2.5870	0	34.4530	0	27.493	0	1297.694	0	15.1	4	4.6	4	-1E+10	1	-1E+10	1	-1E+10	1	-1E+10	1	-1E+10	1	-1E+10	1
4902551	27	C	05/07/2021	08:54	-134.729	49.634	0	1337.90	0	2.5460	0	34.4610	0	27.503	0	1322.225	0	15.8	4	4.8	4	-1E+10	1	-1E+10	1	-1E+10	1	-1E+10	1	-1E+10	1	-1E+10	1
4902551	27	C	05/07/2021	08:54	-134.729	49.634	0	1363.80	0	2.5150	0	34.4670	0	27.510	0	1347.739	0	16.5	4	5.0	4	-1E+10	1	-1E+10	1	-1E+10	1	-1E+10	1	-1E+10	1	-1E+10	1
4902551	27	C	05/07/2021	08:54	-134.729	49.634	0	1387.80	0	2.4890	0	34.4720	0	27.517	0	1371.379	0	17.1	4	5.2	4	-1E+10	1	-1E+10	1	-1E+10	1	-1E+10	1	-1E+10	1	-1E+10	1
4902551	27	C	05/07/2021	08:54	-134.729	49.634	0	1412.90	0	2.4680	0	34.4760	0	27.522	0	1396.099	0	17.7	4	5.4	4	-1E+10	1	-1E+10	1	-1E+10	1	-1E+10	1	-1E+10	1	-1E+10	1
4902551	27	C	05/07/2021	08:54	-134.729	49.634	0	1437.90	0	2.4500	0	34.4800	0	27.526	0	1420.717	0	18.4	4	5.6	4	-1E+10	1	-1E+10	1	-1E+10	1	-1E+10	1	-1E+10	1	-1E+10	1
4902551	27	C	05/07/2021	08:54	-134.729	49.634	0	1462.90	0	2.4210	0	34.4850	0	27.533	0	1445.333	0	19.3	4	5.9	4	-1E+10	1	-1E+10	1	-1E+10	1	-1E+10	1	-1E+10	1	-1E+10	1
4902551	27	C	05/07/2021	08:54	-134.729	49.634	0	1487.70	0	2.3950	0	34.4910	0	27.540	0	1469.749	0	20.3	4	6.2	4	-1E+10	1	-1E+10	1	-1E+10	1	-1E+10	1	-1E+10	1	-1E+10	1
4902551	27	C	05/07/2021	08:54	-134.729	49.634	0	1512.50	0	2.3730	0	34.4960	0	27.546	0	1494.162	0	21.5	4	6.5	4	-1E+10	1	-1E+10	1	-1E+10	1	-1E+10	1	-1E+10	1	-1E+10	1
4902551	27	C	05/07/2021	08:54	-134.729	49.634	0	1537.40	0	2.3510	0	34.5000	0	27.551	0	1518.671	0	22.2	4	6.8	4	-1E+10	1	-1E+10	1	-1E+10	1	-1E+10	1	-1E+10	1	-1E+10	1
4902551	27	C	05/07/2021	08:54	-134.729	49.634	0	1562.50	0	2.3240	0	34.5050	0	27.558	0	1543.374	0	23.5	4	7.1	4	-1E+10	1	-1E+10	1	-1E+10	1	-1E+10	1	-1E+10	1	-1E+10	1
4902551	27	C	05/07/2021	08:54	-134.729	49.634	0	1588.80	0	2.2980	0	34.5100	0	27.564	0	1569.254	0	25.0	4	7.6	4	-1E+10	1	-1E+10	1	-1E+10	1	-1E+10	1	-1E+10	1	-1E+10	1
4902551	27	C	05/07/2021	08:54	-134.729	49.634	0	1613.20	0	2.2720	0	34.5160	0	27.571	0	1593.262	0	26.9	4	8.2	4	-1E+10	1	-1E+10	1	-1E+10	1	-1E+10	1	-1E+10	1	-1E+10	1
4902551	27	C	05/07/2021	08:54	-134.729	49.634	0	1637.90	0	2.2580	0	34.5210	0	27.576	0	1617.563	0	28.9	4	8.8	4	-1E+10	1	-1E+10	1	-1E+10	1	-1E+10	1	-1E+10	1	-1E+10	1
4902551	27	C	05/07/2021	08:54	-134.729	49.634	0	1662.60	0	2.2350	0	34.5260	0	27.582	0	1641.860	0	30.6	4	9.3	4	-1E+10	1	-1E+10	1	-1E+10	1	-1E+10	1	-1E+10	1	-1E+10	1
4902551	27	C	05/07/2021	08:54	-134.729	49.634	0	1687.90	0	2.2100	0	34.5310	0	27.588	0	1666.745	0	32.3	4	9.8	4	-1E+10	1	-1E+10	1	-1E+10	1	-1E+10	1	-1E+10	1	-1E+10	1
4902551	27	C	05/07/2021	08:54	-134.729	49.634	0	1713.00	0	2.1810	0	34.5370	0	27.596	0	1691.431	0	34.1	4	10.3	4	-1E+10	1	-1E+10	1	-1E+10	1	-1E+10	1	-1E+10	1	-1E+10	1
4902551	27	C	05/07/2021	08:54	-134.729	49.634	0	1737.80	0	2.1590	0	34.5410	0	27.601	0	1715.818	0	35.6	4	10.8	4	-1E+10	1	-1E+10	1	-1E+10	1	-1E+10	1	-1E+10	1	-1E+10	1
4902551	27	C	05/07/2021	08:54	-134.729	49.634	0	1762.90	0	2.1330	0	34.5460	0	27.607	0	1740.498	0	36.8	4	11.1	4	-1E+10	1	-1E+10	1	-1E+10	1	-1E+10	1	-1E+10	1	-1E+10	1
4902551	27	C	05/07/2021	08:54	-134.729	49.634	0	1788.20	0	2.1170	0	34.5490	0	27.611	0	1765.371	0	38.2	4	11.5	4	-1E+10	1	-1E+10	1	-1E+10	1	-1E+10	1	-1E+10	1	-1E+10	1
4902551	27	C	05/07/2021	08:54	-134.729	49.634	0	1813.10	0	2.1000	0	34.5530	0	27.615	0	1789.848	0	39.7	4	12.0	4	-1E+10	1	-1E+10	1	-1E+10	1	-1E+10	1	-1E+10	1	-1E+10	1
4902551	27	C	05/07/2021	08:54	-134.729	49.634	0	1838.20	0	2.0820	0	34.5560	0	27.619	0	1814.519	0	41.2	4	12.4	4	-1E+10	1	-1E+10	1	-1E+10	1	-1E+10	1	-1E+10	1	-1E+10	1
4902551	27	C	05/07/2021	08:54	-134.729	49.634	0	1863.00	0	2.0600	0	34.5610	0	27.625	0	1838.893	0	43.0	4	13.0	4	-1E+10	1	-1E+10	1	-1E+10	1	-1E+10	1	-1E+10	1	-1E+10	1
4902551	27	C	05/07/2021	08:54	-134.729	49.634	0	1887.90	0	2.0380	0	34.5650	0	27.630	0	1863.362	0	44.9	4	13.5	4	-1E+10	1	-1E+10	1	-1E+10	1	-1E+10	1	-1E+10	1	-1E+10	1
4902551	27	C	05/07/2021	08:54	-134.729	49.634	0	1912.80	0	2.0160	0	34.5690	0	27.635	0	1887.828	0	46.7	4	14.1	4	-1E+10	1	-1E+10	1	-1E+10	1	-1E+10	1	-1E+10	1	-1E+10	1
4902551	27	C	05/07/2021	08:54	-134.729	49.634	0	1937.90	0	1.9960	0	34.5730	0	27.640	0	1912.487	0	48.5	4	14.6	4	-1E+10	1	-1E+10	1	-1E+10	1	-1E+10	1	-1E+10	1	-1E+10	1
4902551	27	C	05/07/2021	08:54	-134.729	49.634	0	1963.00	0	1.9770	0	34.5770	0	27.645	0	1937.144	0	49.8	4	15.0	4	-1E+10	1	-1E+10	1	-1E+10	1	-1E+10	1	-1E+10	1	-1E+10	1
4902551	27	C	05/07/2021	08:54	-134.729	49.634	0	1978.80	0	1.9680	0	34.5790	0	27.647	0	1952.664	0	50.3	4	15.2	4	-1E+10	1	-1E+10	1	-1E+10	1	-1E+10	1	-1E+10	1	-1E+10	1
4902551	27	C	05/07/2021	08:54	-134.729	49.634	0																										
4902551	28	C	05/17/2021	09:03	-134.796	49.581	0	0.40	0	8.8930	0	32.3460	0	25.057	0	0.397	0	284.1	4	99.1	4	-1E+10	1	-1E+10	1	-1E+10	1	-1E+10	1	-1E+10	1	-1E+10	1
4902551	28	C	05/17/2021	09:03	-134.796	49.581	0	1.00	0	8.8970	0	32.3430	0	25.054	0	0.991	0	284.1	4	99.1	4	-1E+10	1	-1E+10	1	-1E+10	1	-1E+10	1	-1E+10	1	-1E+10	1
4902551	28	C	05/17/2021	09:03	-134.796	49.581	0	2.20	0	8.8980	0	32.3430	0	25.054	0	2.181	0	284.0	4	99.1	4	-1E+10	1	-1E+10	1	-1E+10	1	-1E+10	1	-1E+10	1	-1E+10	1
4902551	28	C	05/17/2021	09:03	-134.796	49.581	0	2.80	0	8.8970	0	32.3440	0	25.055	0	2.776	0	284.0	4	99.0	4	-1E+10	1	-1E+10	1	-1E+10	1	-1E+10	1	-1E+10	1	-1E+10	1
4902551	28	C	05/17/2021	09:03	-134.796	49.581	0	3.90	0	8.8970	0	32.3440	0	25.055	0	3.867	0	284.1	4	99.1	4	-1E+10	1	-1E+10	1	-1E+10	1	-1E+10	1	-1E+10	1	-1E+10	1
4902551	28	C	05/17/2021	09:03	-134.796	49.581	0	5.00	0	8.8980	0	32.3460	0	25.057	0	4.957	0	284.1	4	99.1	4	-1E+10	1	-1E+10	1	-1E+10	1	-1E+10	1	-1E+10	1	-1E+10	1
4902551	28	C	05/17/2021	09:03	-134.796	49.581	0	6.10	0	8.8970	0	32.3460	0	25.057	0	6.048	0	284.2	4	99.1	4	-1E+10	1	-1E+10	1	-1E+10	1	-1E+10	1	-1E+10	1	-1E+10	1
4902551	28	C	05/17/2021	09:03	-134.796	49.581	0	7.00	0	8.8950	0	32.3460	0	25.057	0	6.940	0	284.2	4	99.1	4	-1E+10	1	-1E+10	1	-1E+10	1	-1E+10	1	-1E+10	1	-1E+10	1
4902551	28	C	05/17/2021	09:03	-134.796	49.581	0	7.80	0	8.8960	0	32.3450	0	25.056	0	7.733	0	284.4	4	99.2	4	-1E+10	1	-1E+10	1	-1E+10	1	-1E+10	1	-1E+10	1	-1E+10	1
4902551	28	C	05/17/2021	09:03	-134.796	49.581	0	9.00	0	8.8900	0	32.3440	0	25.056	0	8.923	0	284.6	4	99.3	4	-1E+10	1	-1E+10	1	-1E+10	1	-1E+10	1	-1E+10	1	-1E+10	1
4902551	28	C	05/17/2021	09:03	-134.796	49.581	0	9.90	0	8.8230	0	32.3460	0	25.068	0	9.815	0	285.0	4	99.2	4	-1E+10	1	-1E+10	1	-1E+10	1	-1E+10	1	-1E+10	1	-1E+10	1
4902551	28	C	05/17/2021	09:03	-134.796	49.581	0	15.40	0	8.6860	0	32.3450	0	25.088	0	15.268	0	285.6	4	99.1	4	-1E+10	1	-1E+10	1	-1E+10	1	-1E+10	1	-1E+10	1	-1E+10	1
4902551	28	C	05/17/2021	09:03	-134.796	49.581	0	25.30	0	8.2370	0	32.3530	0	25.162	0	25.083	0	287.3	4	98.7	4	-1E+10	1	-1E+10	1	-1E+10	1	-1E+10	1	-1E+10	1	-1E+10	1
4902551	28	C	05/17/2021	09:03	-134.796	49.581	0	35.60	0	7.8880	0	32.3580	0	25.216	0	35.293	0	287.5	4	98.0	4	-1E+10	1	-1E+10	1	-1E+10	1	-1E+10	1	-1E+10	1	-1E+10	1
4902551	28	C	05/17/2021	09:03	-134.796	49.581	0	45.60	0	7.7130	0	32.3600	0	25.243	0	45.206	0	287.0	4	97.5	4	-1E+10	1	-1E+10	1	-1E+10	1	-1E+10	1	-1E+10	1	-1E+10	1
4902551	28	C	05/17/2021	09:03	-134.796	49.581	0	55.10	0	7.6460	0	32.3590	0	25.252	0	54.622	0	286.1	4	97.0	4	-1E+10	1	-1E+10	1	-1E+10	1	-1E+10	1	-1E+10	1	-1E+10	1
4902551	28	C	05/17/2021	09:03	-134.796	49.581	0	65.70	0	7.5930	0	32.3600	0	25.260	0	65.129	0	284.2	4	96.3	4	-1E+10	1	-1E+10	1	-1E+10	1	-1E+10	1	-1E+10	1	-1E+10	1
4902551	28	C	05/17/2021	09:03	-134.796	49.581	0	75.50	0	7.3370	0	32.3740	0	25.306	0	74.842	0	283.2	4	95.4	4	-1E+10	1	-1E+10	1	-1E+10	1	-1E+10	1	-1E+10	1	-1E+10	1
4902551	28	C	05/17/2021	09:03	-134.796	49.581	0	85.20	0	6.7250	0	32.4100	0	25.416	0	84.455	0	282.1	4	93.7	4	-1E+10	1	-1E+10	1	-1E+10	1	-1E+10	1	-1E+10	1	-1E+10	1
4902551	28	C	05/17/2021	09:03	-134.796	49.581	0	95.50	0	6.5270	0	32.4220	0	25.451	0	94.663	0	279.3	4	92.4	4	-1E+10	1	-1E+10	1	-1E+10	1	-1E+10	1	-1E+10	1	-1E+10	1
4902551	28	C	05/17/2021	09:03	-134.796	49.581	0	105.70	0	6.4540	0	32.4480	0	25.481	0	104.771	0	269.5	4	89.0	4	-1E+10	1	-1E+10	1	-1E+10	1	-1E+10	1	-1E+10	1	-1E+10	1
4902551	28	C	05/17/2021	09:03	-134.796	49.581	0	115.30	0	6.4480	0	32.5450	0	25.559	0	114.284	0	239.6	4	79.2	4	-1E+10	1	-1E+10	1	-1E+10	1	-1E+10	1	-1E+10	1	-1E+10	1
4902551	28	C	05/17/2021	09:03	-134.796	49.581	0	125.00	0	6.4940	0	32.9200	0	25.849	0	123.896	0	191.4	4	63.5	4	-1E+10	1	-1E+10	1	-1E+10	1	-1E+10	1	-1E+10	1	-1E+10	1
4902551	28	C	05/17/2021	09:03	-134.796	49.581	0	135.30	0	6.4520	0	33.2940	0	26.149	0	134.101	0	162.4	4	54.0	4	-1E+10	1	-1E+10	1	-1E+10	1	-1E+10	1	-1E+10	1	-1E+10	1
4902551	28	C	05/17/2021	09:03	-134.796	49.581	0	145.60	0	6.4230	0	33.4310	0	26.261	0	144.306	0	149.4	4	49.7	4	-1E+10	1	-1E+10	1	-1E+10	1	-1E+10	1	-1E+10	1	-1E+10	1
4902551	28	C	05/17/2021	09:03	-134.796	49.581	0	155.70	0	6.3540	0	33.5900	0	26.396	0	154.313	0	134.1	4	44.6	4	-1E+10	1	-1E+10	1	-1E+10	1	-1E+10	1	-1E+10	1	-1E+10	1
4902551	28	C	05/17/2021	09:03	-134.796	49.581	0	165.20	0	6.2040	0	33.6980	0	26.500	0	163.724	0	127.8	4	42.4	4	-1E+10	1	-1E+10	1	-1E+10	1	-1E+10	1	-1E+10	1	-1E+10	1
4902551	28	C	05/17/2021	09:03	-134.796	49.581	0	175.30	0	5.9390	0	33.7400	0	26.567	0	173.730	0	122.2	4	40.3	4	-1E+10	1	-1E+10	1	-1E+10	1	-1E+10	1	-1E+10	1	-1E+10	1
4902551	28	C	05/17/2021	09:03	-134.796	49.581	0	185.30	0	5.8050	0	33.7790	0	26.614	0	183.636	0	116.7	4	38.3	4	-1E+10	1	-1E+10	1	-1E+10	1	-1E+10	1	-1E+10	1	-1E+10	1
4902551	28	C	05/17/2021	09:03	-134.796	49.581	0	195.40	0	5.6560	0	33.7960	0	26.646	0	193.641	0	111.8	4	36.6	4	-1E+10	1	-1E+10	1	-1E+10	1	-1E+10	1	-1E+10	1	-1E+10	1
4902551	28	C	05/17/2021	09:03	-134.796	49.581	0	212.70	0	5.4470	0	33.8140	0	26.685	0	210.776	0	104.5	4	34.1	4	-1E+10	1	-1E+10	1	-1E+10	1	-1E+10	1	-1E+10	1	-1E+10	1
4902551	28	C	05/17/2021	09:03	-134.796	49.581	0	237.80	0	5.2830	0	33.8420	0	26.727	0	235.635	0	91.5	4	29.7	4	-1E+10	1	-1E+10	1	-1E+10	1	-1E+10	1	-1E+10	1	-1E+10	1
4902551	28	C	05/17/2021	09:03	-134.796	49.581	0	262.80	0	5.1430	0	33.8720	0	26.767	0	260.391	0	80.7	4	26.1	4	-1E+10	1	-1E+10	1	-1E+10	1	-1E+10	1	-1E+10	1	-1E+10	1
4902551	28	C	05/17/2021	09:03	-134.796	49.581	0	288.60	0	4.9550	0	33.8830	0	26.797	0	285.937	0	74.6	4	24.1	4	-1E+10	1	-1E+10	1	-1E+10	1	-1E+10	1	-1E+10	1	-1E+10	1
4902551	28	C	05/17/2021	09:03	-134.796	49.581	0	312.50	0	4.8400	0	33.8950	0	26.820	0	309.599	0	67.5	4	21.7	4	-1E+10	1	-1E+10	1	-1E+10	1	-1E+10	1	-1E+10	1	-1E+10	1
4902551	28	C	05/17/2021	09:03	-134.796	49.581	0	337.80	0	4.7940	0	33.9300	0	26.853	0	334.643	0	58.0	4	18.6	4	-1E+10	1	-1E+10	1	-1E+10	1	-1E+10	1	-1E+10	1	-1E+10	1
4902551	28	C	05/17/2021	09:03	-134.796	49.581	0	362.90	0	4.6650	0	33.9510	0	26.884	0	359.487	0	52.7	4	16.9	4	-1E+10	1	-1E+10	1	-1E+10	1	-1E+10	1	-1E+10	1	-1E+10	1
4902551	28	C	05/17/2021	09:03	-134.796	49.581	0	387.50	0	4.5470	0	33.9770	0	26.918	0	383.833	0	45.6	4	14.6	4	-1E+10	1	-1E+10	1	-1E+10	1	-1E+10	1	-1E+10	1	-1E+10	1
4902551	28	C	05/17/2021	09:03	-134.796	49.581	0	412.70	0	4.4980	0	34.0030	0	26.944	0	408.770	0	42.6	4	13.6	4	-1E+10	1	-1E+10	1	-1E+10	1	-1E+10	1	-1E+10	1	-1E+10	1
4902551	28	C	05/17/2021	09:03	-134.796	49.581	0	437.90	0	4.3830	0	34.0120	0	26.964	0	433.703	0	39.8	4	12.7	4	-1E+10	1	-1E+10	1	-1E+10	1	-1E+10	1	-1E+10	1	-1E+10	1
4902551	28	C	05/17/2021	09:03	-134.796	49.581	0	462.50	0	4.3950	0	34.0440	0	26.988	0	458.040	0	32.5	4	10.4	4	-1E+10	1	-1E+10	1	-1E+10	1	-1E+10	1	-1E+10	1	-1E+10	1
4902551	28	C	05/17/2021	09:03	-134.796	49.581	0	488.60	0	4.3490	0	34.0760	0	27.019	0	483.858	0	28.0	4	8.9	4	-1E+10	1	-1E+10	1	-1E+10	1	-1E+10	1	-1E+10	1	-1E+10	1
4902551	28	C	05/17/2021	09:03	-134.796	49.581	0	512.90	0	4.2600	0	34.1010	0	27.048	0	507.893	0	24.4	4	7.7	4	-1E+10	1	-1E+10	1	-1E+10	1	-1E+10	1	-1E+10	1	-1E+10	1
4902551	28	C	05/17/2021	09:03	-134.796	49.581	0	537.80	0	4.2070	0	34.1230	0	27.071	0	532.518	0	22.1	4	7.0	4	-1E+10	1	-1E+10	1	-1E+10	1	-1E+10	1	-1E+10	1	-1E+10	1
4902551	28	C	05/17/2021	09:03	-134.796	49.581	0	562.90	0	4.1090	0	34.1330	0	27.090	0	557.338	0	22.8	4	7.2	4	-1E+10	1	-1E+10	1	-1E+10	1	-1E+10	1	-1E+10	1	-1E+10	1
4902551	28	C	05/17/2021	09:03	-134.796	49.581	0	588.10	0	3.9700	0	34.1440	0	27.113	0	582.254	0	22.1	4	7.0	4	-1E+10	1	-1E+10	1	-1E+10	1	-1E+10	1	-1E+10	1	-1E+10	1
4902551	28	C	05/17/2021	09:03	-134.796	49.581	0	613.30	0	3.8950	0	34.1640	0	27.136	0	607.166	0	20.7	4	6.5	4	-1E+10	1	-1E+10	1	-1E+10	1	-1E+10	1	-1E+10	1	-1E+10	1
4902551	28	C	05/17/2021	09:03	-134.796	49.581	0	638.80	0	3.8230	0	34.1860	0	27.161	0	632.373	0	18.8	4	5.9	4	-1E+10	1	-1E+10	1	-1E+10	1	-1E+10	1	-1E+10	1	-1E+10	1
4902551	28	C	05/17/2021	09:03	-134.796	49.581	0	662.90	0	3.7440	0	34.2090	0	27.188	0	656.192	0	17.7	4	5.5	4	-1E+10	1	-1E+10	1	-1E+10	1	-1E+10	1	-1E+10	1	-1E+10	1
4902551	28	C	05/17/2021	09:03	-134.796	49.581	0	688.20	0	3.6880	0	34.2240	0	27.205	0	681.195	0	17.0	4	5.3	4	-1E+10	1	-1E+10	1	-1E+10	1	-1E+10	1	-1E+10	1	-1E+10	1
4902551	28	C	05/17/2021	09:03	-134.796	49.581	0	713.00	0	3.6270	0	34.2380	0	27.223	0	705.700	0	16.3	4	5.1	4	-1E+10	1	-1E+10	1	-1E+10	1	-1E+10	1	-1E+10	1	-1E+10	1
4902551	28	C	05/17/2021	09:03	-134.796	49.581	0	737.80	0	3.5550	0	34.2550	0	27.243	0	730.203	0	15.7	4	4.9	4	-1E+10	1	-1E+10	1	-1E+10	1	-1E+10	1	-1E+10	1	-1E+10	1
4902551	28	C	05/17/2021	09:03	-134.796	49.581	0	762.80	0	3.5150	0	34.2640	0	27.254	0	754.900	0	15.4	4	4.8	4	-1E+10	1	-1E+10	1	-1E+10	1	-1E+10	1	-1E+10	1	-1E+10	1
4902551	28	C	05/17/2021	09:03	-134.796	49.581	0	787.60	0	3.4700	0	34.2730	0	27.266	0	779.397	0	15.0	4	4.7	4	-1E+10	1	-1E+10	1	-1E+10	1	-1E+10	1	-1E+10	1	-1E+10	1
4902551	28	C	05/17/2021	09:03	-134.796	49.581	0	812.90	0	3.4040	0	34.2870	0	27.284	0	804.385	0	14.6	4	4.5	4	-1E+10	1	-1E+10	1	-1E+10	1	-1E+10	1	-1E+10	1	-1E+10	1
4902551	28	C	05/17/2021	09:03	-134.796	49.581	0	838.40	0	3.3410	0	34.3010	0	27.301	0	829.568	0	14.2	4	4.4	4	-1E+10	1	-1E+10	1	-1E+10	1	-1E+10	1	-1E+10	1	-1E+10	1
4902551	28	C	05/17/2021	09:03	-134.796	49.581	0	863.60	0	3.2780	0	34.3150	0	27.318	0	854.451	0	13.9	4	4.3	4	-1E+10	1	-1E+10	1	-1E+10	1	-1E+10	1	-1E+10	1	-1E+10	1
4902551	28	C	05/17/2021	09:03	-134.796	49.581	0	887.50	0	3.2240	0	34.3260	0	27.332	0	878.047	0	13.7	4	4.3	4	-1E+10	1	-1E+10	1	-1E+10	1	-1E+10	1	-1E+10	1	-1E+10	1
4902551	28	C	05/17/2021	09:03	-134.796	49.581	0	912.50	0	3.1760	0	34.3360	0	27.345	0	902.727	0	13.6	4	4.2	4	-1E+10	1	-1E+10	1	-1E+10	1	-1E+10	1	-1E+10	1	-1E+10	1
4902551	28	C	05/17/2021	09:03	-134.796	49.581	0	937.50	0	3.1240	0	34.3460	0	27.358	0	927.404	0	13.5	4	4.2	4	-1E+10	1	-1E+10	1	-1E+10	1	-1E+10	1	-1E+10	1	-1E+10	1
4902551	28	C	05/17/2021	09:03	-134.796	49.581	0	962.70	0	3.0800	0	34.3550	0	27.369	0	952.275	0	13.4	4	4.1	4	-1E+10	1	-1E+10	1	-1E+10	1	-1E+10	1	-1E+10	1	-1E+10	1
4902551	28	C	05/17/2021	09:03	-134.796	49.581	0	988.20	0	3.0360	0	34.3650	0	27.381	0	977.440	0	13.3	4	4.1	4	-1E+10	1	-1E+10	1	-1E+10	1	-1E+10	1	-1E+10	1	-1E+10	1
4902551	28	C	05/17/2021	09:03	-134.796	49.581	0	1012.50	0	3.0050	0	34.3710	0	27.389	0	1001.417	0	13.2	4	4.1	4	-1E+10	1	-1E+10	1	-1E+10	1	-1E+10	1	-1E+10	1	-1E+10	1
4902551	28	C	05/17/2021	09:03	-134.796	49.581	0	1037.80	0	2.9640	0	34.3790	0	27.399	0	1026.378	0	13.3	4	4.1	4	-1E+10	1	-1E+10	1	-1E+10	1	-1E+10	1	-1E+10	1	-1E+10	1
4902551	28	C	05/17/2021	09:03	-134.796	49.581	0	1062.90	0	2.9220	0	34.3870	0	27.409	0	1051.139	0	13.3	4	4.1	4	-1E+10	1	-1E+10	1	-1E+10	1	-1E+10	1	-1E+10	1	-1E+10	1
4902551	28	C	05/17/2021	09:03	-134.796	49.581	0	1087.90	0	2.8810	0	34.3960	0	27.420	0	1075.798	0	13.3	4	4.1	4	-1E+10	1	-1E+10	1	-1E+10	1	-1E+10	1	-1E+10	1	-1E+10	1
4902551	28	C	05/17/2021	09:03	-134.796	49.581	0	1112.90	0	2.8550	0	34.4010	0	27.427	0	1100.455	0	13.3	4	4.1	4	-1E+10	1	-1E+10	1	-1E+10	1	-1E+10	1	-1E+10	1	-1E+10	1
4902551	28	C	05/17/2021	09:03	-134.796	49.581	0	1137.70	0	2.8280	0	34.4070	0	27.434	0	1124.911	0	13.3	4	4.1	4	-1E+10	1	-1E+10	1	-1E+10	1	-1E+10	1	-1E+10	1	-1E+10	1
4902551	28	C	05/17/2021	09:03	-134.796	49.581	0	1162.90	0	2.7960	0	34.4140	0	27.443	0	1149.759	0	13.3	4	4.1	4	-1E+10	1	-1E+10	1	-1E+10	1	-1E+10	1	-1E+10	1	-1E+10	1
4902551	28	C	05/17/2021	09:03	-134.796	49.581	0	1187.80	0	2.7660	0	34.4200	0	27.450	0	1174.308	0	13.5	4	4.1	4	-1E+10	1	-1E+10	1	-1E+10	1	-1E+10	1	-1E+10	1	-1E+10	1
4902551	28	C	05/17/2021	09:03	-134.796	49.581	0	1212.70	0	2.7290	0	34.4260	0	27.458	0	1198.854	0	13.8	4	4.2	4	-1E+10	1	-1E+10	1	-1E+10	1	-1E+10	1	-1E+10	1	-1E+10	1
4902551	28	C	05/17/2021	09:03	-134.796	49.581	0	1238.00	0	2.6910	0	34.4330	0	27.467	0	1223.792	0	14.0	4	4.3	4	-1E+10	1	-1E+10	1	-1E+10	1	-1E+10	1	-1E+10	1	-1E+10	1
4902551	28	C	05/17/2021	09:03	-134.796	49.581	0	1263.80	0	2.6560	0	34.4400	0	27.476	0	1249.219	0	14.3	4	4.4	4	-1E+10	1	-1E+10	1	-1E+10	1	-1E+10	1	-1E+10	1	-1E+10	1
4902551	28	C	05/17/2021	09:03	-134.796	49.581	0	1287.60	0	2.6270	0	34.4450	0	27.483	0	1272.673	0	14.6	4	4.5	4	-1E+10	1	-1E+10	1	-1E+10	1	-1E+10	1	-1E+10	1	-1E+10	1
4902551	28	C	05/17/2021	09:03	-134.796	49.581	0	1312.70	0	2.5880	0	34.4530	0	27.493	0	1297.404	0	15.1	4	4.6	4	-1E+10	1	-1E+10	1	-1E+10	1	-1E+10	1	-1E+10	1	-1E+10	1
4902551	28	C	05/17/2021	09:03	-134.796	49.581	0	1338.00	0	2.5540	0	34.4600	0	27.501	0	1322.330	0	15.6	4	4.8	4	-1E+10	1	-1E+10	1	-1E+10	1	-1E+10	1	-1E+10	1	-1E+10	1
4902551	28	C	05/17/2021	09:03	-134.796	49.581	0	1363.80	0	2.5280	0	34.4650	0	27.508	0	1347.746	0	16.3	4	5.0	4	-1E+10	1	-1E+10	1	-1E+10	1	-1E+10	1	-1E+10	1	-1E+10	1
4902551	28	C	05/17/2021	09:03	-134.796	49.581	0	1387.80	0	2.4940	0	34.4720	0	27.516	0	1371.385	0	17.2	4	5.2	4	-1E+10	1	-1E+10	1	-1E+10	1	-1E+10	1	-1E+10	1	-1E+10	1
4902551	28	C	05/17/2021	09:03	-134.796	49.581	0	1412.90	0	2.4630	0	34.4780	0	27.524	0	1396.105	0	18.3	4	5.6	4	-1E+10	1	-1E+10	1	-1E+10	1	-1E+10	1	-1E+10	1	-1E+10	1
4902551	28	C	05/17/2021	09:03	-134.796	49.581	0	1437.90	0	2.4360	0	34.4840	0	27.531	0	1420.724	0	19.3	4	5.9	4	-1E+10	1	-1E+10	1	-1E+10	1	-1E+10	1	-1E+10	1	-1E+10	1
4902551	28	C	05/17/2021	09:03	-134.796	49.581	0	1462.60	0	2.4120	0	34.4890	0	27.537	0	1445.045	0	20.4	4	6.2	4	-1E+10	1	-1E+10	1	-1E+10	1	-1E+10	1	-1E+10	1	-1E+10	1
4902551	28	C	05/17/2021	09:03	-134.796	49.581	0	1487.80	0	2.3910	0	34.4940	0	27.543	0	1469.855	0	21.4	4	6.5	4	-1E+10	1	-1E+10	1	-1E+10	1	-1E+10	1	-1E+10	1	-1E+10	1
4902551	28	C	05/17/2021	09:03	-134.796	49.581	0	1512.70	0	2.3640	0	34.4990	0	27.549	0	1494.366	0	22.6	4	6.9	4	-1E+10	1	-1E+10	1	-1E+10	1	-1E+10	1	-1E+10	1	-1E+10	1
4902551	28	C	05/17/2021	09:03	-134.796	49.581	0	1538.00	0	2.3280	0	34.5060	0	27.558	0	1519.269	0	24.2	4	7.4	4	-1E+10	1	-1E+10	1	-1E+10	1	-1E+10	1	-1E+10	1	-1E+10	1
4902551	28	C	05/17/2021	09:03	-134.796	49.581	0	1562.80	0	2.2950	0	34.5130	0	27.566	0	1543.676	0	26.2	4	8.0	4	-1E+10	1	-1E+10	1	-1E+10	1	-1E+10	1	-1E+10	1	-1E+10	1
4902551	28	C	05/17/2021	09:03	-134.796	49.581	0	1587.60	0	2.2670	0	34.5190	0	27.573	0	1568.081	0	28.1	4	8.5	4	-1E+10	1	-1E+10	1	-1E+10	1	-1E+10	1	-1E+10	1	-1E+10	1
4902551	28	C	05/17/2021	09:03	-134.796	49.581	0	1612.90	0	2.2330	0	34.5260	0	27.582	0	1592.975	0	30.3	4	9.2	4	-1E+10	1	-1E+10	1	-1E+10	1	-1E+10	1	-1E+10	1	-1E+10	1
4902551	28	C	05/17/2021	09:03	-134.796	49.581	0	1639.00	0	2.2030	0	34.5310	0	27.589	0	1618.653	0	32.3	4	9.8	4	-1E+10	1	-1E+10	1	-1E+10	1	-1E+10	1	-1E+10	1	-1E+10	1
4902551	28	C	05/17/2021	09:03	-134.796	49.581	0	1662.90	0	2.1740	0	34.5370	0	27.596	0	1642.163	0	34.2	4	10.3	4	-1E+10	1	-1E+10	1	-1E+10	1	-1E+10	1	-1E+10	1	-1E+10	1
4902551	28	C	05/17/2021	09:03	-134.796	49.581	0	1687.70	0	2.1440	0	34.5430	0	27.603	0	1666.557	0	36.3	4	11.0	4	-1E+10	1	-1E+10	1	-1E+10	1	-1E+10	1	-1E+10	1	-1E+10	1
4902551	28	C	05/17/2021	09:03	-134.796	49.581	0	1712.90	0	2.1270	0	34.5470	0	27.608	0	1691.340	0	37.5	4	11.4	4	-1E+10	1	-1E+10	1	-1E+10	1	-1E+10	1	-1E+10	1	-1E+10	1
4902551	28	C	05/17/2021	09:03	-134.796	49.581	0	1738.10	0	2.1140	0	34.5490	0	27.611	0	1716.121	0	38.6	4	11.7	4	-1E+10	1	-1E+10	1	-1E+10	1	-1E+10	1	-1E+10	1	-1E+10	1
4902551	28	C	05/17/2021	09:03	-134.796	49.581	0	1762.90	0	2.0990	0	34.5520	0	27.614	0	1740.506	0	39.8	4	12.0	4	-1E+10	1	-1E+10	1	-1E+10	1	-1E+10	1	-1E+10	1	-1E+10	1
4902551	28	C	05/17/2021	09:03	-134.796	49.581	0	1787.80	0	2.0730	0	34.5570	0	27.620	0	1764.986	0	41.8	4	12.6	4	-1E+10	1	-1E+10	1	-1E+10	1	-1E+10	1	-1E+10	1	-1E+10	1
4902551	28	C	05/17/2021	09:03	-134.796	49.581	0	1813.30	0	2.0490	0	34.5620	0	27.626	0	1790.054	0	43.6	4	13.2	4	-1E+10	1	-1E+10	1	-1E+10	1	-1E+10	1	-1E+10	1	-1E+10	1
4902551	28	C	05/17/2021	09:03	-134.796	49.581	0	1838.10	0	2.0310	0	34.5660	0	27.631	0	1814.430	0	45.1	4	13.6	4	-1E+10	1	-1E+10	1	-1E+10	1	-1E+10	1	-1E+10	1	-1E+10	1
4902551	28	C	05/17/2021	09:03	-134.796	49.581	0	1863.10	0	2.0170	0	34.5680	0	27.634	0	1839.000	0	46.4	4	14.0	4	-1E+10	1	-1E+10	1	-1E+10	1	-1E+10	1	-1E+10	1	-1E+10	1
4902551	28	C	05/17/2021	09:03	-134.796	49.581	0	1888.00	0	2.0030	0	34.5710	0	27.638	0	1863.469	0	47.7	4	14.4	4	-1E+10	1	-1E+10	1	-1E+10	1	-1E+10	1	-1E+10	1	-1E+10	1
4902551	28	C	05/17/2021	09:03	-134.796	49.581	0	1912.50	0	1.9900	0	34.5740	0	27.641	0	1887.542	0	49.0	4	14.8	4	-1E+10	1	-1E+10	1	-1E+10	1	-1E+10	1	-1E+10	1	-1E+10	1
4902551	28	C	05/17/2021	09:03	-134.796	49.581	0	1937.50	0	1.9730	0	34.5770	0	27.645	0	1912.103	0	50.4	4	15.2	4	-1E+10	1	-1E+10	1	-1E+10	1	-1E+10	1	-1E+10	1	-1E+10	1
4902551	28	C	05/17/2021	09:03	-134.796	49.581	0	1962.80	0	1.9590	0	34.5800	0	27.649	0	1936.957	0	51.5	4	15.5	4	-1E+10	1	-1E+10	1	-1E+10	1	-1E+10	1	-1E+10	1	-1E+10	1
4902551	28	C	05/17/2021	09:03	-134.796	49.581	0	1988.10	0	1.9500	0	34.5820	0	27.651	0	1961.807	0	52.4	4	15.8	4	-1E+10	1	-1E+10	1	-1E+10	1	-1E+10	1	-1E+10	1	-1E+10	1
4902551	28	C	05/17/2021	09:03	-134.796	49.581	0	2013.10	0	1.9360	0	34.5850	0	27.655	0	1986.360	0	53.5	4	16.1	4	-1E+10	1	-1E+10	1	-1E+10	1	-1E+10	1	-1E+10	1	-1E+10	1
4902551	28	C	05/17/2021	09:03	-134.796	49.581	0	2028.70	0	1.9250	0	34.5870	0	27.657	0	2001.680	0	53.2	4	16.0	4	-1E+10	1	-1E+10	1	-1E+10	1	-1E+10	1	-1E+10	1	-1E+10	1
4902551	28	C	05/17/2021	09:03	-134.796	49.581	0																										
4902551	29	C	05/27/2021	08:44	-134.968	49.531	0	0.40	0	9.2090	0	32.3290	0	24.995	0	0.397	0	284.6	4	99.9	4	-1E+10	1	-1E+10	1	-1E+10	1	-1E+10	1	-1E+10	1	-1E+10	1
4902551	29	C	05/27/2021	08:44	-134.968	49.531	0	1.00	0	9.2100	0	32.3300	0	24.996	0	0.991	0	284.6	4	99.9	4	-1E+10	1	-1E+10	1	-1E+10	1	-1E+10	1	-1E+10	1	-1E+10	1
4902551	29	C	05/27/2021	08:44	-134.968	49.531	0	2.10	0	9.2110	0	32.3310	0	24.996	0	2.082	0	284.6	4	99.9	4	-1E+10	1	-1E+10	1	-1E+10	1	-1E+10	1	-1E+10	1	-1E+10	1
4902551	29	C	05/27/2021	08:44	-134.968	49.531	0	3.00	0	9.2140	0	32.3280	0	24.993	0	2.974	0	284.6	4	99.9	4	-1E+10	1	-1E+10	1	-1E+10	1	-1E+10	1	-1E+10	1	-1E+10	1
4902551	29	C	05/27/2021	08:44	-134.968	49.531	0	4.10	0	9.2150	0	32.3280	0	24.993	0	4.065	0	284.5	4	99.9	4	-1E+10	1	-1E+10	1	-1E+10	1	-1E+10	1	-1E+10	1	-1E+10	1
4902551	29	C	05/27/2021	08:44	-134.968	49.531	0	5.30	0	9.2190	0	32.3270	0	24.992	0	5.255	0	284.6	4	99.9	4	-1E+10	1	-1E+10	1	-1E+10	1	-1E+10	1	-1E+10	1	-1E+10	1
4902551	29	C	05/27/2021	08:44	-134.968	49.531	0	6.10	0	9.2200	0	32.3270	0	24.992	0	6.048	0	284.6	4	100.0	4	-1E+10	1	-1E+10	1	-1E+10	1	-1E+10	1	-1E+10	1	-1E+10	1
4902551	29	C	05/27/2021	08:44	-134.968	49.531	0	7.10	0	9.2200	0	32.3260	0	24.991	0	7.039	0	284.7	4	100.0	4	-1E+10	1	-1E+10	1	-1E+10	1	-1E+10	1	-1E+10	1	-1E+10	1
4902551	29	C	05/27/2021	08:44	-134.968	49.531	0	8.00	0	9.2210	0	32.3250	0	24.990	0	7.932	0	284.8	4	100.0	4	-1E+10	1	-1E+10	1	-1E+10	1	-1E+10	1	-1E+10	1	-1E+10	1
4902551	29	C	05/27/2021	08:44	-134.968	49.531	0	8.70	0	9.2100	0	32.3270	0	24.993	0	8.626	0	284.9	4	100.0	4	-1E+10	1	-1E+10	1	-1E+10	1	-1E+10	1	-1E+10	1	-1E+10	1
4902551	29	C	05/27/2021	08:44	-134.968	49.531	0	9.70	0	9.1480	0	32.3280	0	25.004	0	9.617	0	285.5	4	100.1	4	-1E+10	1	-1E+10	1	-1E+10	1	-1E+10	1	-1E+10	1	-1E+10	1
4902551	29	C	05/27/2021	08:44	-134.968	49.531	0	15.60	0	9.1310	0	32.3300	0	25.008	0	15.466	0	285.4	4	100.0	4	-1E+10	1	-1E+10	1	-1E+10	1	-1E+10	1	-1E+10	1	-1E+10	1
4902551	29	C	05/27/2021	08:44	-134.968	49.531	0	25.60	0	8.7190	0	32.3420	0	25.081	0	25.380	0	287.1	4	99.7	4	-1E+10	1	-1E+10	1	-1E+10	1	-1E+10	1	-1E+10	1	-1E+10	1
4902551	29	C	05/27/2021	08:44	-134.968	49.531	0	35.60	0	7.5310	0	32.3830	0	25.286	0	35.293	0	288.2	4	97.5	4	-1E+10	1	-1E+10	1	-1E+10	1	-1E+10	1	-1E+10	1	-1E+10	1
4902551	29	C	05/27/2021	08:44	-134.968	49.531	0	45.50	0	7.3820	0	32.3850	0	25.308	0	45.107	0	285.6	4	96.3	4	-1E+10	1	-1E+10	1	-1E+10	1	-1E+10	1	-1E+10	1	-1E+10	1
4902551	29	C	05/27/2021	08:44	-134.968	49.531	0	55.90	0	7.1790	0	32.3950	0	25.344	0	55.416	0	282.5	4	94.8	4	-1E+10	1	-1E+10	1	-1E+10	1	-1E+10	1	-1E+10	1	-1E+10	1
4902551	29	C	05/27/2021	08:44	-134.968	49.531	0	65.20	0	6.8560	0	32.4160	0	25.404	0	64.634	0	278.9	4	92.9	4	-1E+10	1	-1E+10	1	-1E+10	1	-1E+10	1	-1E+10	1	-1E+10	1
4902551	29	C	05/27/2021	08:44	-134.968	49.531	0	75.40	0	6.5660	0	32.4490	0	25.468	0	74.743	0	275.3	4	91.2	4	-1E+10	1	-1E+10	1	-1E+10	1	-1E+10	1	-1E+10	1	-1E+10	1
4902551	29	C	05/27/2021	08:44	-134.968	49.531	0	85.40	0	6.2740	0	32.4950	0	25.541	0	84.654	0	264.2	4	86.9	4	-1E+10	1	-1E+10	1	-1E+10	1	-1E+10	1	-1E+10	1	-1E+10	1
4902551	29	C	05/27/2021	08:44	-134.968	49.531	0	95.70	0	6.3990	0	32.6340	0	25.635	0	94.862	0	236.0	4	78.0	4	-1E+10	1	-1E+10	1	-1E+10	1	-1E+10	1	-1E+10	1	-1E+10	1
4902551	29	C	05/27/2021	08:44	-134.968	49.531	0	105.50	0	6.4920	0	32.8660	0	25.806	0	104.573	0	206.0	4	68.3	4	-1E+10	1	-1E+10	1	-1E+10	1	-1E+10	1	-1E+10	1	-1E+10	1
4902551	29	C	05/27/2021	08:44	-134.968	49.531	0	115.20	0	6.4850	0	33.1800	0	26.055	0	114.185	0	180.7	4	60.1	4	-1E+10	1	-1E+10	1	-1E+10	1	-1E+10	1	-1E+10	1	-1E+10	1
4902551	29	C	05/27/2021	08:44	-134.968	49.531	0	125.30	0	6.4580	0	33.3740	0	26.211	0	124.193	0	166.7	4	55.4	4	-1E+10	1	-1E+10	1	-1E+10	1	-1E+10	1	-1E+10	1	-1E+10	1
4902551	29	C	05/27/2021	08:44	-134.968	49.531	0	135.60	0	6.3930	0	33.5080	0	26.326	0	134.399	0	156.4	4	52.0	4	-1E+10	1	-1E+10	1	-1E+10	1	-1E+10	1	-1E+10	1	-1E+10	1
4902551	29	C	05/27/2021	08:44	-134.968	49.531	0	145.80	0	6.2850	0	33.6020	0	26.414	0	144.505	0	146.8	4	48.7	4	-1E+10	1	-1E+10	1	-1E+10	1	-1E+10	1	-1E+10	1	-1E+10	1
4902551	29	C	05/27/2021	08:44	-134.968	49.531	0	155.70	0	6.1380	0	33.6780	0	26.493	0	154.314	0	138.9	4	45.9	4	-1E+10	1	-1E+10	1	-1E+10	1	-1E+10	1	-1E+10	1	-1E+10	1
4902551	29	C	05/27/2021	08:44	-134.968	49.531	0	165.20	0	6.0540	0	33.7100	0	26.528	0	163.725	0	131.6	4	43.5	4	-1E+10	1	-1E+10	1	-1E+10	1	-1E+10	1	-1E+10	1	-1E+10	1
4902551	29	C	05/27/2021	08:44	-134.968	49.531	0	175.40	0	5.8720	0	33.7590	0	26.590	0	173.830	0	122.8	4	40.4	4	-1E+10	1	-1E+10	1	-1E+10	1	-1E+10	1	-1E+10	1	-1E+10	1
4902551	29	C	05/27/2021	08:44	-134.968	49.531	0	185.30	0	5.7510	0	33.7800	0	26.621	0	183.637	0	117.3	4	38.5	4	-1E+10	1	-1E+10	1	-1E+10	1	-1E+10	1	-1E+10	1	-1E+10	1
4902551	29	C	05/27/2021	08:44	-134.968	49.531	0	195.00	0	5.5750	0	33.7970	0	26.656	0	193.245	0	113.4	4	37.1	4	-1E+10	1	-1E+10	1	-1E+10	1	-1E+10	1	-1E+10	1	-1E+10	1
4902551	29	C	05/27/2021	08:44	-134.968	49.531	0	212.80	0	5.3880	0	33.8090	0	26.688	0	210.876	0	106.7	4	34.7	4	-1E+10	1	-1E+10	1	-1E+10	1	-1E+10	1	-1E+10	1	-1E+10	1
4902551	29	C	05/27/2021	08:44	-134.968	49.531	0	237.90	0	5.1110	0	33.8320	0	26.739	0	235.735	0	93.9	4	30.4	4	-1E+10	1	-1E+10	1	-1E+10	1	-1E+10	1	-1E+10	1	-1E+10	1
4902551	29	C	05/27/2021	08:44	-134.968	49.531	0	262.80	0	4.8990	0	33.8530	0	26.780	0	260.393	0	83.7	4	26.9	4	-1E+10	1	-1E+10	1	-1E+10	1	-1E+10	1	-1E+10	1	-1E+10	1
4902551	29	C	05/27/2021	08:44	-134.968	49.531	0	288.10	0	4.7480	0	33.8810	0	26.819	0	285.443	0	72.8	4	23.3	4	-1E+10	1	-1E+10	1	-1E+10	1	-1E+10	1	-1E+10	1	-1E+10	1
4902551	29	C	05/27/2021	08:44	-134.968	49.531	0	312.40	0	4.6570	0	33.9100	0	26.852	0	309.501	0	62.3	4	19.9	4	-1E+10	1	-1E+10	1	-1E+10	1	-1E+10	1	-1E+10	1	-1E+10	1
4902551	29	C	05/27/2021	08:44	-134.968	49.531	0	337.90	0	4.5560	0	33.9390	0	26.886	0	334.744	0	55.7	4	17.8	4	-1E+10	1	-1E+10	1	-1E+10	1	-1E+10	1	-1E+10	1	-1E+10	1
4902551	29	C	05/27/2021	08:44	-134.968	49.531	0	363.10	0	4.4730	0	33.9590	0	26.911	0	359.687	0	51.7	4	16.5	4	-1E+10	1	-1E+10	1	-1E+10	1	-1E+10	1	-1E+10	1	-1E+10	1
4902551	29	C	05/27/2021	08:44	-134.968	49.531	0	388.10	0	4.4150	0	33.9800	0	26.934	0	384.428	0	48.0	4	15.3	4	-1E+10	1	-1E+10	1	-1E+10	1	-1E+10	1	-1E+10	1	-1E+10	1
4902551	29	C	05/27/2021	08:44	-134.968	49.531	0	413.10	0	4.3790	0	33.9940	0	26.950	0	409.167	0	44.8	4	14.3	4	-1E+10	1	-1E+10	1	-1E+10	1	-1E+10	1	-1E+10	1	-1E+10	1
4902551	29	C	05/27/2021	08:44	-134.968	49.531	0	438.80	0	4.3140	0	34.0180	0	26.976	0	434.596	0	40.5	4	12.9	4	-1E+10	1	-1E+10	1	-1E+10	1	-1E+10	1	-1E+10	1	-1E+10	1
4902551	29	C	05/27/2021	08:44	-134.968	49.531	0	462.70	0	4.2530	0	34.0420	0	27.001	0	458.240	0	36.7	4	11.7	4	-1E+10	1	-1E+10	1	-1E+10	1	-1E+10	1	-1E+10	1	-1E+10	1
4902551	29	C	05/27/2021	08:44	-134.968	49.531	0	487.90	0	4.2040	0	34.0610	0	27.022	0	483.168	0	33.4	4	10.6	4	-1E+10	1	-1E+10	1	-1E+10	1	-1E+10	1	-1E+10	1	-1E+10	1
4902551	29	C	05/27/2021	08:44	-134.968	49.531	0	513.40	0	4.1410	0	34.0810	0	27.044	0	508.390	0	30.8	4	9.7	4	-1E+10	1	-1E+10	1	-1E+10	1	-1E+10	1	-1E+10	1	-1E+10	1
4902551	29	C	05/27/2021	08:44	-134.968	49.531	0	537.90	0	4.0740	0	34.1030	0	27.069	0	532.619	0	28.1	4	8.9	4	-1E+10	1	-1E+10	1	-1E+10	1	-1E+10	1	-1E+10	1	-1E+10	1
4902551	29	C	05/27/2021	08:44	-134.968	49.531	0	562.70	0	4.0220	0	34.1240	0	27.091	0	557.143	0	25.2	4	8.0	4	-1E+10	1	-1E+10	1	-1E+10	1	-1E+10	1	-1E+10	1	-1E+10	1
4902551	29	C	05/27/2021	08:44	-134.968	49.531	0	588.00	0	3.9680	0	34.1450	0	27.114	0	582.157	0	22.4	4	7.1	4	-1E+10	1	-1E+10	1	-1E+10	1	-1E+10	1	-1E+10	1	-1E+10	1
4902551	29	C	05/27/2021	08:44	-134.968	49.531	0	612.90	0	3.9080	0	34.1680	0	27.138	0	606.774	0	20.2	4	6.4	4	-1E+10	1	-1E+10	1	-1E+10	1	-1E+10	1	-1E+10	1	-1E+10	1
4902551	29	C	05/27/2021	08:44	-134.968	49.531	0	637.70	0	3.8450	0	34.1870	0	27.160	0	631.288	0	18.6	4	5.9	4	-1E+10	1	-1E+10	1	-1E+10	1	-1E+10	1	-1E+10	1	-1E+10	1
4902551	29	C	05/27/2021	08:44	-134.968	49.531	0	662.50	0	3.7940	0	34.2060	0	27.180	0	655.800	0	17.4	4	5.5	4	-1E+10	1	-1E+10	1	-1E+10	1	-1E+10	1	-1E+10	1	-1E+10	1
4902551	29	C	05/27/2021	08:44	-134.968	49.531	0	687.40	0	3.7010	0	34.2260	0	27.206	0	680.407	0	16.7	4	5.2	4	-1E+10	1	-1E+10	1	-1E+10	1	-1E+10	1	-1E+10	1	-1E+10	1
4902551	29	C	05/27/2021	08:44	-134.968	49.531	0	712.70	0	3.6280	0	34.2390	0	27.223	0	705.407	0	16.3	4	5.1	4	-1E+10	1	-1E+10	1	-1E+10	1	-1E+10	1	-1E+10	1	-1E+10	1
4902551	29	C	05/27/2021	08:44	-134.968	49.531	0	737.90	0	3.5660	0	34.2520	0	27.240	0	730.305	0	15.8	4	4.9	4	-1E+10	1	-1E+10	1	-1E+10	1	-1E+10	1	-1E+10	1	-1E+10	1
4902551	29	C	05/27/2021	08:44	-134.968	49.531	0	762.70	0	3.5070	0	34.2650	0	27.256	0	754.805	0	15.3	4	4.8	4	-1E+10	1	-1E+10	1	-1E+10	1	-1E+10	1	-1E+10	1	-1E+10	1
4902551	29	C	05/27/2021	08:44	-134.968	49.531	0	787.80	0	3.4490	0	34.2770	0	27.271	0	779.599	0	14.9	4	4.7	4	-1E+10	1	-1E+10	1	-1E+10	1	-1E+10	1	-1E+10	1	-1E+10	1
4902551	29	C	05/27/2021	08:44	-134.968	49.531	0	812.70	0	3.3880	0	34.2910	0	27.288	0	804.191	0	14.5	4	4.5	4	-1E+10	1	-1E+10	1	-1E+10	1	-1E+10	1	-1E+10	1	-1E+10	1
4902551	29	C	05/27/2021	08:44	-134.968	49.531	0	838.40	0	3.3330	0	34.3020	0	27.302	0	829.571	0	14.2	4	4.4	4	-1E+10	1	-1E+10	1	-1E+10	1	-1E+10	1	-1E+10	1	-1E+10	1
4902551	29	C	05/27/2021	08:44	-134.968	49.531	0	862.30	0	3.2890	0	34.3120	0	27.315	0	853.171	0	14.0	4	4.3	4	-1E+10	1	-1E+10	1	-1E+10	1	-1E+10	1	-1E+10	1	-1E+10	1
4902551	29	C	05/27/2021	08:44	-134.968	49.531	0	887.60	0	3.2470	0	34.3210	0	27.326	0	878.150	0	13.8	4	4.3	4	-1E+10	1	-1E+10	1	-1E+10	1	-1E+10	1	-1E+10	1	-1E+10	1
4902551	29	C	05/27/2021	08:44	-134.968	49.531	0	912.60	0	3.2130	0	34.3280	0	27.335	0	902.830	0	13.7	4	4.2	4	-1E+10	1	-1E+10	1	-1E+10	1	-1E+10	1	-1E+10	1	-1E+10	1
4902551	29	C	05/27/2021	08:44	-134.968	49.531	0	937.70	0	3.1630	0	34.3380	0	27.348	0	927.606	0	13.5	4	4.2	4	-1E+10	1	-1E+10	1	-1E+10	1	-1E+10	1	-1E+10	1	-1E+10	1
4902551	29	C	05/27/2021	08:44	-134.968	49.531	0	962.80	0	3.1210	0	34.3470	0	27.359	0	952.378	0	13.4	4	4.2	4	-1E+10	1	-1E+10	1	-1E+10	1	-1E+10	1	-1E+10	1	-1E+10	1
4902551	29	C	05/27/2021	08:44	-134.968	49.531	0	987.60	0	3.0790	0	34.3560	0	27.370	0	976.852	0	13.3	4	4.1	4	-1E+10	1	-1E+10	1	-1E+10	1	-1E+10	1	-1E+10	1	-1E+10	1
4902551	29	C	05/27/2021	08:44	-134.968	49.531	0	1013.40	0	3.0380	0	34.3650	0	27.381	0	1002.310	0	13.2	4	4.1	4	-1E+10	1	-1E+10	1	-1E+10	1	-1E+10	1	-1E+10	1	-1E+10	1
4902551	29	C	05/27/2021	08:44	-134.968	49.531	0	1037.80	0	2.9970	0	34.3730	0	27.391	0	1026.383	0	13.2	4	4.1	4	-1E+10	1	-1E+10	1	-1E+10	1	-1E+10	1	-1E+10	1	-1E+10	1
4902551	29	C	05/27/2021	08:44	-134.968	49.531	0	1062.70	0	2.9370	0	34.3850	0	27.406	0	1050.947	0	13.2	4	4.1	4	-1E+10	1	-1E+10	1	-1E+10	1	-1E+10	1	-1E+10	1	-1E+10	1
4902551	29	C	05/27/2021	08:44	-134.968	49.531	0	1087.60	0	2.8970	0	34.3930	0	27.416	0	1075.507	0	13.2	4	4.1	4	-1E+10	1	-1E+10	1	-1E+10	1	-1E+10	1	-1E+10	1	-1E+10	1
4902551	29	C	05/27/2021	08:44	-134.968	49.531	0	1112.70	0	2.8540	0	34.4010	0	27.427	0	1100.263	0	13.3	4	4.1	4	-1E+10	1	-1E+10	1	-1E+10	1	-1E+10	1	-1E+10	1	-1E+10	1
4902551	29	C	05/27/2021	08:44	-134.968	49.531	0	1137.40	0	2.8250	0	34.4080	0	27.435	0	1124.620	0	13.3	4	4.1	4	-1E+10	1	-1E+10	1	-1E+10	1	-1E+10	1	-1E+10	1	-1E+10	1
4902551	29	C	05/27/2021	08:44	-134.968	49.531	0	1162.60	0	2.8040	0	34.4130	0	27.441	0	1149.468	0	13.3	4	4.1	4	-1E+10	1	-1E+10	1	-1E+10	1	-1E+10	1	-1E+10	1	-1E+10	1
4902551	29	C	05/27/2021	08:44	-134.968	49.531	0	1187.90	0	2.7840	0	34.4160	0	27.445	0	1174.412	0	13.5	4	4.1	4	-1E+10	1	-1E+10	1	-1E+10	1	-1E+10	1	-1E+10	1	-1E+10	1
4902551	29	C	05/27/2021	08:44	-134.968	49.531	0	1213.30	0	2.7600	0	34.4210	0	27.452	0	1199.451	0	13.5	4	4.1	4	-1E+10	1	-1E+10	1	-1E+10	1	-1E+10	1	-1E+10	1	-1E+10	1
4902551	29	C	05/27/2021	08:44	-134.968	49.531	0	1238.10	0	2.7320	0	34.4270	0	27.459	0	1223.896	0	13.7	4	4.2	4	-1E+10	1	-1E+10	1	-1E+10	1	-1E+10	1	-1E+10	1	-1E+10	1
4902551	29	C	05/27/2021	08:44	-134.968	49.531	0	1262.60	0	2.7040	0	34.4360	0	27.469	0	1248.042	0	14.1	4	4.3	4	-1E+10	1	-1E+10	1	-1E+10	1	-1E+10	1	-1E+10	1	-1E+10	1
4902551	29	C	05/27/2021	08:44	-134.968	49.531	0	1287.60	0	2.6670	0	34.4440	0	27.479	0	1272.678	0	14.9	4	4.6	4	-1E+10	1	-1E+10	1	-1E+10	1	-1E+10	1	-1E+10	1	-1E+10	1
4902551	29	C	05/27/2021	08:44	-134.968	49.531	0	1313.50	0	2.6240	0	34.4540	0	27.490	0	1298.199	0	15.8	4	4.8	4	-1E+10	1	-1E+10	1	-1E+10	1	-1E+10	1	-1E+10	1	-1E+10	1
4902551	29	C	05/27/2021	08:44	-134.968	49.531	0	1337.80	0	2.5780	0	34.4630	0	27.502	0	1322.139	0	16.8	4	5.1	4	-1E+10	1	-1E+10	1	-1E+10	1	-1E+10	1	-1E+10	1	-1E+10	1
4902551	29	C	05/27/2021	08:44	-134.968	49.531	0	1362.80	0	2.5330	0	34.4720	0	27.513	0	1346.767	0	18.0	4	5.5	4	-1E+10	1	-1E+10	1	-1E+10	1	-1E+10	1	-1E+10	1	-1E+10	1
4902551	29	C	05/27/2021	08:44	-134.968	49.531	0	1387.60	0	2.4940	0	34.4790	0	27.522	0	1371.194	0	19.2	4	5.8	4	-1E+10	1	-1E+10	1	-1E+10	1	-1E+10	1	-1E+10	1	-1E+10	1
4902551	29	C	05/27/2021	08:44	-134.968	49.531	0	1412.90	0	2.4610	0	34.4860	0	27.530	0	1396.112	0	20.5	4	6.2	4	-1E+10	1	-1E+10	1	-1E+10	1	-1E+10	1	-1E+10	1	-1E+10	1
4902551	29	C	05/27/2021	08:44	-134.968	49.531	0	1438.70	0	2.4250	0	34.4910	0	27.537	0	1421.518	0	21.5	4	6.6	4	-1E+10	1	-1E+10	1	-1E+10	1	-1E+10	1	-1E+10	1	-1E+10	1
4902551	29	C	05/27/2021	08:44	-134.968	49.531	0	1462.80	0	2.3900	0	34.4970	0	27.545	0	1445.248	0	22.8	4	6.9	4	-1E+10	1	-1E+10	1	-1E+10	1	-1E+10	1	-1E+10	1	-1E+10	1
4902551	29	C	05/27/2021	08:44	-134.968	49.531	0	1487.80	0	2.3580	0	34.5040	0	27.554	0	1469.861	0	24.5	4	7.4	4	-1E+10	1	-1E+10	1	-1E+10	1	-1E+10	1	-1E+10	1	-1E+10	1
4902551	29	C	05/27/2021	08:44	-134.968	49.531	0	1512.70	0	2.3290	0	34.5100	0	27.561	0	1494.373	0	25.9	4	7.9	4	-1E+10	1	-1E+10	1	-1E+10	1	-1E+10	1	-1E+10	1	-1E+10	1
4902551	29	C	05/27/2021	08:44	-134.968	49.531	0	1537.50	0	2.2970	0	34.5160	0	27.568	0	1518.784	0	27.6	4	8.4	4	-1E+10	1	-1E+10	1	-1E+10	1	-1E+10	1	-1E+10	1	-1E+10	1
4902551	29	C	05/27/2021	08:44	-134.968	49.531	0	1562.50	0	2.2590	0	34.5220	0	27.576	0	1543.388	0	29.1	4	8.8	4	-1E+10	1	-1E+10	1	-1E+10	1	-1E+10	1	-1E+10	1	-1E+10	1
4902551	29	C	05/27/2021	08:44	-134.968	49.531	0	1587.70	0	2.2320	0	34.5260	0	27.582	0	1568.186	0	30.3	4	9.2	4	-1E+10	1	-1E+10	1	-1E+10	1	-1E+10	1	-1E+10	1	-1E+10	1
4902551	29	C	05/27/2021	08:44	-134.968	49.531	0	1613.10	0	2.2170	0	34.5300	0	27.586	0	1593.179	0	31.3	4	9.5	4	-1E+10	1	-1E+10	1	-1E+10	1	-1E+10	1	-1E+10	1	-1E+10	1
4902551	29	C	05/27/2021	08:44	-134.968	49.531	0	1638.00	0	2.2000	0	34.5320	0	27.590	0	1617.676	0	32.2	4	9.8	4	-1E+10	1	-1E+10	1	-1E+10	1	-1E+10	1	-1E+10	1	-1E+10	1
4902551	29	C	05/27/2021	08:44	-134.968	49.531	0	1662.70	0	2.1830	0	34.5360	0	27.594	0	1641.974	0	33.5	4	10.1	4	-1E+10	1	-1E+10	1	-1E+10	1	-1E+10	1	-1E+10	1	-1E+10	1
4902551	29	C	05/27/2021	08:44	-134.968	49.531	0	1687.50	0	2.1610	0	34.5400	0	27.599	0	1666.368	0	34.7	4	10.5	4	-1E+10	1	-1E+10	1	-1E+10	1	-1E+10	1	-1E+10	1	-1E+10	1
4902551	29	C	05/27/2021	08:44	-134.968	49.531	0	1712.60	0	2.1460	0	34.5430	0	27.603	0	1691.053	0	36.0	4	10.9	4	-1E+10	1	-1E+10	1	-1E+10	1	-1E+10	1	-1E+10	1	-1E+10	1
4902551	29	C	05/27/2021	08:44	-134.968	49.531	0	1737.70	0	2.1260	0	34.5470	0	27.608	0	1715.736	0	37.5	4	11.4	4	-1E+10	1	-1E+10	1	-1E+10	1	-1E+10	1	-1E+10	1	-1E+10	1
4902551	29	C	05/27/2021	08:44	-134.968	49.531	0	1762.90	0	2.1120	0	34.5500	0	27.612	0	1740.514	0	38.9	4	11.7	4	-1E+10	1	-1E+10	1	-1E+10	1	-1E+10	1	-1E+10	1	-1E+10	1
4902551	29	C	05/27/2021	08:44	-134.968	49.531	0	1788.00	0	2.0930	0	34.5540	0	27.617	0	1765.191	0	40.4	4	12.2	4	-1E+10	1	-1E+10	1	-1E+10	1	-1E+10	1	-1E+10	1	-1E+10	1
4902551	29	C	05/27/2021	08:44	-134.968	49.531	0	1814.20	0	2.0710	0	34.5580	0	27.622	0	1790.947	0	42.2	4	12.8	4	-1E+10	1	-1E+10	1	-1E+10	1	-1E+10	1	-1E+10	1	-1E+10	1
4902551	29	C	05/27/2021	08:44	-134.968	49.531	0	1838.10	0	2.0520	0	34.5620	0	27.626	0	1814.438	0	43.8	4	13.2	4	-1E+10	1	-1E+10	1	-1E+10	1	-1E+10	1	-1E+10	1	-1E+10	1
4902551	29	C	05/27/2021	08:44	-134.968	49.531	0	1863.00	0	2.0290	0	34.5660	0	27.632	0	1838.910	0	45.7	4	13.8	4	-1E+10	1	-1E+10	1	-1E+10	1	-1E+10	1	-1E+10	1	-1E+10	1
4902551	29	C	05/27/2021	08:44	-134.968	49.531	0	1887.60	0	2.0130	0	34.5690	0	27.635	0	1863.084	0	47.0	4	14.2	4	-1E+10	1	-1E+10	1	-1E+10	1	-1E+10	1	-1E+10	1	-1E+10	1
4902551	29	C	05/27/2021	08:44	-134.968	49.531	0	1912.70	0	1.9990	0	34.5720	0	27.639	0	1887.747	0	48.5	4	14.6	4	-1E+10	1	-1E+10	1	-1E+10	1	-1E+10	1	-1E+10	1	-1E+10	1
4902551	29	C	05/27/2021	08:44	-134.968	49.531	0	1937.60	0	1.9780	0	34.5760	0	27.644	0	1912.210	0	50.2	4	15.1	4	-1E+10	1	-1E+10	1	-1E+10	1	-1E+10	1	-1E+10	1	-1E+10	1
4902551	29	C	05/27/2021	08:44	-134.968	49.531	0	1962.50	0	1.9610	0	34.5800	0	27.649	0	1936.671	0	51.6	4	15.5	4	-1E+10	1	-1E+10	1	-1E+10	1	-1E+10	1	-1E+10	1	-1E+10	1
4902551	29	C	05/27/2021	08:44	-134.968	49.531	0	1987.80	0	1.9460	0	34.5830	0	27.652	0	1961.522	0	52.9	4	15.9	4	-1E+10	1	-1E+10	1	-1E+10	1	-1E+10	1	-1E+10	1	-1E+10	1
4902551	29	C	05/27/2021	08:44	-134.968	49.531	0	2013.50	0	1.9340	0	34.5850	0	27.655	0	1986.762	0	53.7	4	16.2	4	-1E+10	1	-1E+10	1	-1E+10	1	-1E+10	1	-1E+10	1	-1E+10	1
4902551	29	C	05/27/2021	08:44	-134.968	49.531	0	2028.00	0	1.9270	0	34.5870	0	27.657	0	2001.002	0	53.5	4	16.1	4	-1E+10	1	-1E+10	1	-1E+10	1	-1E+10	1	-1E+10	1	-1E+10	1
4902551	29	C	05/27/2021	08:44	-134.968	49.531	0																										
4902551	30	C	06/06/2021	13:56	-135.047	49.490	0	0.20	0	9.4760	0	32.3100	0	24.938	0	0.198	0	276.6	4	97.7	4	-1E+10	1	-1E+10	1	-1E+10	1	-1E+10	1	-1E+10	1	-1E+10	1
4902551	30	C	06/06/2021	13:56	-135.047	49.490	0	1.30	0	9.4760	0	32.3180	0	24.944	0	1.289	0	276.6	4	97.7	4	-1E+10	1	-1E+10	1	-1E+10	1	-1E+10	1	-1E+10	1	-1E+10	1
4902551	30	C	06/06/2021	13:56	-135.047	49.490	0	2.10	0	9.4760	0	32.3170	0	24.943	0	2.082	0	276.6	4	97.7	4	-1E+10	1	-1E+10	1	-1E+10	1	-1E+10	1	-1E+10	1	-1E+10	1
4902551	30	C	06/06/2021	13:56	-135.047	49.490	0	3.00	0	9.4760	0	32.3170	0	24.943	0	2.974	0	276.6	4	97.7	4	-1E+10	1	-1E+10	1	-1E+10	1	-1E+10	1	-1E+10	1	-1E+10	1
4902551	30	C	06/06/2021	13:56	-135.047	49.490	0	3.80	0	9.4760	0	32.3180	0	24.944	0	3.768	0	276.6	4	97.7	4	-1E+10	1	-1E+10	1	-1E+10	1	-1E+10	1	-1E+10	1	-1E+10	1
4902551	30	C	06/06/2021	13:56	-135.047	49.490	0	4.90	0	9.4770	0	32.3190	0	24.945	0	4.858	0	276.5	4	97.7	4	-1E+10	1	-1E+10	1	-1E+10	1	-1E+10	1	-1E+10	1	-1E+10	1
4902551	30	C	06/06/2021	13:56	-135.047	49.490	0	6.00	0	9.4770	0	32.3190	0	24.945	0	5.949	0	276.6	4	97.7	4	-1E+10	1	-1E+10	1	-1E+10	1	-1E+10	1	-1E+10	1	-1E+10	1
4902551	30	C	06/06/2021	13:56	-135.047	49.490	0	6.90	0	9.4770	0	32.3190	0	24.945	0	6.841	0	276.6	4	97.7	4	-1E+10	1	-1E+10	1	-1E+10	1	-1E+10	1	-1E+10	1	-1E+10	1
4902551	30	C	06/06/2021	13:56	-135.047	49.490	0	8.10	0	9.4770	0	32.3190	0	24.945	0	8.031	0	276.5	4	97.7	4	-1E+10	1	-1E+10	1	-1E+10	1	-1E+10	1	-1E+10	1	-1E+10	1
4902551	30	C	06/06/2021	13:56	-135.047	49.490	0	8.80	0	9.4760	0	32.3190	0	24.945	0	8.725	0	276.5	4	97.6	4	-1E+10	1	-1E+10	1	-1E+10	1	-1E+10	1	-1E+10	1	-1E+10	1
4902551	30	C	06/06/2021	13:56	-135.047	49.490	0	9.90	0	9.4770	0	32.3190	0	24.945	0	9.815	0	276.5	4	97.6	4	-1E+10	1	-1E+10	1	-1E+10	1	-1E+10	1	-1E+10	1	-1E+10	1
4902551	30	C	06/06/2021	13:56	-135.047	49.490	0	11.20	0	9.4760	0	32.3190	0	24.945	0	11.104	0	276.5	4	97.6	4	-1E+10	1	-1E+10	1	-1E+10	1	-1E+10	1	-1E+10	1	-1E+10	1
4902551	30	C	06/06/2021	13:56	-135.047	49.490	0	12.10	0	9.4790	0	32.3190	0	24.945	0	11.996	0	276.4	4	97.6	4	-1E+10	1	-1E+10	1	-1E+10	1	-1E+10	1	-1E+10	1	-1E+10	1
4902551	30	C	06/06/2021	13:56	-135.047	49.490	0	12.80	0	9.4780	0	32.3190	0	24.945	0	12.690	0	276.4	4	97.6	4	-1E+10	1	-1E+10	1	-1E+10	1	-1E+10	1	-1E+10	1	-1E+10	1
4902551	30	C	06/06/2021	13:56	-135.047	49.490	0	14.00	0	9.4800	0	32.3190	0	24.944	0	13.880	0	276.3	4	97.6	4	-1E+10	1	-1E+10	1	-1E+10	1	-1E+10	1	-1E+10	1	-1E+10	1
4902551	30	C	06/06/2021	13:56	-135.047	49.490	0	14.70	0	9.4790	0	32.3180	0	24.944	0	14.574	0	276.4	4	97.6	4	-1E+10	1	-1E+10	1	-1E+10	1	-1E+10	1	-1E+10	1	-1E+10	1
4902551	30	C	06/06/2021	13:56	-135.047	49.490	0	16.00	0	9.4790	0	32.3190	0	24.945	0	15.863	0	276.4	4	97.6	4	-1E+10	1	-1E+10	1	-1E+10	1	-1E+10	1	-1E+10	1	-1E+10	1
4902551	30	C	06/06/2021	13:56	-135.047	49.490	0	17.00	0	9.4790	0	32.3190	0	24.945	0	16.854	0	276.4	4	97.6	4	-1E+10	1	-1E+10	1	-1E+10	1	-1E+10	1	-1E+10	1	-1E+10	1
4902551	30	C	06/06/2021	13:56	-135.047	49.490	0	17.80	0	9.4790	0	32.3190	0	24.945	0	17.647	0	276.4	4	97.6	4	-1E+10	1	-1E+10	1	-1E+10	1	-1E+10	1	-1E+10	1	-1E+10	1
4902551	30	C	06/06/2021	13:56	-135.047	49.490	0	18.60	0	9.4790	0	32.3190	0	24.945	0	18.441	0	276.4	4	97.6	4	-1E+10	1	-1E+10	1	-1E+10	1	-1E+10	1	-1E+10	1	-1E+10	1
4902551	30	C	06/06/2021	13:56	-135.047	49.490	0	19.90	0	9.4780	0	32.3190	0	24.945	0	19.729	0	276.4	4	97.6	4	-1E+10	1	-1E+10	1	-1E+10	1	-1E+10	1	-1E+10	1	-1E+10	1
4902551	30	C	06/06/2021	13:56	-135.047	49.490	0	21.20	0	9.4800	0	32.3190	0	24.944	0	21.018	0	276.4	4	97.6	4	-1E+10	1	-1E+10	1	-1E+10	1	-1E+10	1	-1E+10	1	-1E+10	1
4902551	30	C	06/06/2021	13:56	-135.047	49.490	0	22.00	0	9.4790	0	32.3190	0	24.945	0	21.811	0	276.5	4	97.7	4	-1E+10	1	-1E+10	1	-1E+10	1	-1E+10	1	-1E+10	1	-1E+10	1
4902551	30	C	06/06/2021	13:56	-135.047	49.490	0	22.80	0	9.4800	0	32.3180	0	24.944	0	22.604	0	276.5	4	97.7	4	-1E+10	1	-1E+10	1	-1E+10	1	-1E+10	1	-1E+10	1	-1E+10	1
4902551	30	C	06/06/2021	13:56	-135.047	49.490	0	23.80	0	9.4760	0	32.3200	0	24.946	0	23.596	0	276.5	4	97.7	4	-1E+10	1	-1E+10	1	-1E+10	1	-1E+10	1	-1E+10	1	-1E+10	1
4902551	30	C	06/06/2021	13:56	-135.047	49.490	0	25.00	0	9.4750	0	32.3200	0	24.946	0	24.785	0	276.6	4	97.7	4	-1E+10	1	-1E+10	1	-1E+10	1	-1E+10	1	-1E+10	1	-1E+10	1
4902551	30	C	06/06/2021	13:56	-135.047	49.490	0	25.90	0	9.4760	0	32.3180	0	24.944	0	25.678	0	276.7	4	97.7	4	-1E+10	1	-1E+10	1	-1E+10	1	-1E+10	1	-1E+10	1	-1E+10	1
4902551	30	C	06/06/2021	13:56	-135.047	49.490	0	26.90	0	9.4760	0	32.3190	0	24.945	0	26.669	0	276.8	4	97.7	4	-1E+10	1	-1E+10	1	-1E+10	1	-1E+10	1	-1E+10	1	-1E+10	1
4902551	30	C	06/06/2021	13:56	-135.047	49.490	0	27.90	0	9.4750	0	32.3200	0	24.946	0	27.660	0	276.9	4	97.8	4	-1E+10	1	-1E+10	1	-1E+10	1	-1E+10	1	-1E+10	1	-1E+10	1
4902551	30	C	06/06/2021	13:56	-135.047	49.490	0	28.80	0	9.4760	0	32.3180	0	24.944	0	28.552	0	277.1	4	97.8	4	-1E+10	1	-1E+10	1	-1E+10	1	-1E+10	1	-1E+10	1	-1E+10	1
4902551	30	C	06/06/2021	13:56	-135.047	49.490	0	30.00	0	9.4490	0	32.3200	0	24.950	0	29.742	0	277.3	4	97.9	4	-1E+10	1	-1E+10	1	-1E+10	1	-1E+10	1	-1E+10	1	-1E+10	1
4902551	30	C	06/06/2021	13:56	-135.047	49.490	0	30.90	0	9.4450	0	32.3210	0	24.952	0	30.634	0	277.4	4	97.9	4	-1E+10	1	-1E+10	1	-1E+10	1	-1E+10	1	-1E+10	1	-1E+10	1
4902551	30	C	06/06/2021	13:56	-135.047	49.490	0	31.80	0	9.4400	0	32.3200	0	24.952	0	31.526	0	277.7	4	98.0	4	-1E+10	1	-1E+10	1	-1E+10	1	-1E+10	1	-1E+10	1	-1E+10	1
4902551	30	C	06/06/2021	13:56	-135.047	49.490	0	32.90	0	9.4230	0	32.3200	0	24.955	0	32.617	0	278.0	4	98.1	4	-1E+10	1	-1E+10	1	-1E+10	1	-1E+10	1	-1E+10	1	-1E+10	1
4902551	30	C	06/06/2021	13:56	-135.047	49.490	0	34.10	0	9.3420	0	32.3230	0	24.970	0	33.806	0	278.5	4	98.1	4	-1E+10	1	-1E+10	1	-1E+10	1	-1E+10	1	-1E+10	1	-1E+10	1
4902551	30	C	06/06/2021	13:56	-135.047	49.490	0	35.00	0	9.2980	0	32.3270	0	24.980	0	34.699	0	278.8	4	98.1	4	-1E+10	1	-1E+10	1	-1E+10	1	-1E+10	1	-1E+10	1	-1E+10	1
4902551	30	C	06/06/2021	13:56	-135.047	49.490	0	35.90	0	9.3180	0	32.3230	0	24.974	0	35.591	0	279.1	4	98.2	4	-1E+10	1	-1E+10	1	-1E+10	1	-1E+10	1	-1E+10	1	-1E+10	1
4902551	30	C	06/06/2021	13:56	-135.047	49.490	0	37.10	0	9.1740	0	32.3190	0	24.993	0	36.780	0	281.0	4	98.6	4	-1E+10	1	-1E+10	1	-1E+10	1	-1E+10	1	-1E+10	1	-1E+10	1
4902551	30	C	06/06/2021	13:56	-135.047	49.490	0	38.00	0	8.5180	0	32.3750	0	25.138	0	37.673	0	284.1	4	98.3	4	-1E+10	1	-1E+10	1	-1E+10	1	-1E+10	1	-1E+10	1	-1E+10	1
4902551	30	C	06/06/2021	13:56	-135.047	49.490	0	39.10	0	8.1420	0	32.3560	0	25.178	0	38.763	0	285.0	4	97.8	4	-1E+10	1	-1E+10	1	-1E+10	1	-1E+10	1	-1E+10	1	-1E+10	1
4902551	30	C	06/06/2021	13:56	-135.047	49.490	0	40.10	0	8.0450	0	32.3660	0	25.200	0	39.754	0	285.0	4	97.5	4	-1E+10	1	-1E+10	1	-1E+10	1	-1E+10	1	-1E+10	1	-1E+10	1
4902551	30	C	06/06/2021	13:56	-135.047	49.490	0	41.30	0	8.0280	0	32.3610	0	25.199	0	40.944	0	284.6	4	97.4	4	-1E+10	1	-1E+10	1	-1E+10	1	-1E+10	1	-1E+10	1	-1E+10	1
4902551	30	C	06/06/2021	13:56	-135.047	49.490	0	41.90	0	7.9780	0	32.3620	0	25.207	0	41.539	0	284.5	4	97.2	4	-1E+10	1	-1E+10	1	-1E+10	1	-1E+10	1	-1E+10	1	-1E+10	1
4902551	30	C	06/06/2021	13:56	-135.047	49.490	0	42.80	0	7.8830	0	32.3660	0	25.223	0	42.431	0	284.5	4	97.0	4	-1E+10	1	-1E+10	1	-1E+10	1	-1E+10	1	-1E+10	1	-1E+10	1
4902551	30	C	06/06/2021	13:56	-135.047	49.490	0	44.00	0	7.8270	0	32.3690	0	25.234	0	43.620	0	284.1	4	96.8	4	-1E+10	1	-1E+10	1	-1E+10	1	-1E+10	1	-1E+10	1	-1E+10	1
4902551	30	C	06/06/2021	13:56	-135.047	49.490	0	45.10	0	7.8140	0	32.3670	0	25.234	0	44.711	0	283.8	4	96.6	4	-1E+10	1	-1E+10	1	-1E+10	1	-1E+10	1	-1E+10	1	-1E+10	1
4902551	30	C	06/06/2021	13:56	-135.047	49.490	0	45.90	0	7.8090	0	32.3670	0	25.235	0	45.504	0	283.4	4	96.5	4	-1E+10	1	-1E+10	1	-1E+10	1	-1E+10	1	-1E+10	1	-1E+10	1
4902551	30	C	06/06/2021	13:56	-135.047	49.490	0	46.90	0	7.8060	0	32.3670	0	25.235	0	46.495	0	283.0	4	96.3	4	-1E+10	1	-1E+10	1	-1E+10	1	-1E+10	1	-1E+10	1	-1E+10	1
4902551	30	C	06/06/2021	13:56	-135.047	49.490	0	48.10	0	7.7950	0	32.3670	0	25.237	0	47.684	0	282.4	4	96.1	4	-1E+10	1	-1E+10	1	-1E+10	1	-1E+10	1	-1E+10	1	-1E+10	1
4902551	30	C	06/06/2021	13:56	-135.047	49.490	0	48.90	0	7.7470	0	32.3720	0	25.247	0	48.477	0	282.2	4	95.9	4	-1E+10	1	-1E+10	1	-1E+10	1	-1E+10	1	-1E+10	1	-1E+10	1
4902551	30	C	06/06/2021	13:56	-135.047	49.490	0	50.00	0	7.7270	0	32.3700	0	25.249	0	49.568	0	281.9	4	95.8	4	-1E+10	1	-1E+10	1	-1E+10	1	-1E+10	1	-1E+10	1	-1E+10	1
4902551	30	C	06/06/2021	13:56	-135.047	49.490	0	51.20	0	7.7050	0	32.3750	0	25.256	0	50.757	0	281.6	4	95.7	4	-1E+10	1	-1E+10	1	-1E+10	1	-1E+10	1	-1E+10	1	-1E+10	1
4902551	30	C	06/06/2021	13:56	-135.047	49.490	0	52.00	0	7.6880	0	32.3750	0	25.258	0	51.550	0	281.5	4	95.6	4	-1E+10	1	-1E+10	1	-1E+10	1	-1E+10	1	-1E+10	1	-1E+10	1
4902551	30	C	06/06/2021	13:56	-135.047	49.490	0	53.00	0	7.6740	0	32.3750	0	25.260	0	52.541	0	281.2	4	95.5	4	-1E+10	1	-1E+10	1	-1E+10	1	-1E+10	1	-1E+10	1	-1E+10	1
4902551	30	C	06/06/2021	13:56	-135.047	49.490	0	54.10	0	7.6430	0	32.3750	0	25.265	0	53.632	0	281.0	4	95.3	4	-1E+10	1	-1E+10	1	-1E+10	1	-1E+10	1	-1E+10	1	-1E+10	1
4902551	30	C	06/06/2021	13:56	-135.047	49.490	0	54.80	0	7.6260	0	32.3750	0	25.267	0	54.326	0	280.9	4	95.2	4	-1E+10	1	-1E+10	1	-1E+10	1	-1E+10	1	-1E+10	1	-1E+10	1
4902551	30	C	06/06/2021	13:56	-135.047	49.490	0	55.80	0	7.6160	0	32.3750	0	25.268	0	55.317	0	280.6	4	95.1	4	-1E+10	1	-1E+10	1	-1E+10	1	-1E+10	1	-1E+10	1	-1E+10	1
4902551	30	C	06/06/2021	13:56	-135.047	49.490	0	56.90	0	7.5950	0	32.3770	0	25.273	0	56.407	0	280.3	4	95.0	4	-1E+10	1	-1E+10	1	-1E+10	1	-1E+10	1	-1E+10	1	-1E+10	1
4902551	30	C	06/06/2021	13:56	-135.047	49.490	0	57.80	0	7.5740	0	32.3780	0	25.277	0	57.299	0	279.9	4	94.8	4	-1E+10	1	-1E+10	1	-1E+10	1	-1E+10	1	-1E+10	1	-1E+10	1
4902551	30	C	06/06/2021	13:56	-135.047	49.490	0	59.10	0	7.4960	0	32.3810	0	25.290	0	58.588	0	279.7	4	94.6	4	-1E+10	1	-1E+10	1	-1E+10	1	-1E+10	1	-1E+10	1	-1E+10	1
4902551	30	C	06/06/2021	13:56	-135.047	49.490	0	60.00	0	7.4770	0	32.3820	0	25.293	0	59.480	0	279.6	4	94.5	4	-1E+10	1	-1E+10	1	-1E+10	1	-1E+10	1	-1E+10	1	-1E+10	1
4902551	30	C	06/06/2021	13:56	-135.047	49.490	0	60.90	0	7.4640	0	32.3810	0	25.294	0	60.372	0	279.4	4	94.4	4	-1E+10	1	-1E+10	1	-1E+10	1	-1E+10	1	-1E+10	1	-1E+10	1
4902551	30	C	06/06/2021	13:56	-135.047	49.490	0	62.00	0	7.4270	0	32.3830	0	25.301	0	61.462	0	279.1	4	94.2	4	-1E+10	1	-1E+10	1	-1E+10	1	-1E+10	1	-1E+10	1	-1E+10	1
4902551	30	C	06/06/2021	13:56	-135.047	49.490	0	62.90	0	7.3980	0	32.3810	0	25.303	0	62.354	0	279.0	4	94.1	4	-1E+10	1	-1E+10	1	-1E+10	1	-1E+10	1	-1E+10	1	-1E+10	1
4902551	30	C	06/06/2021	13:56	-135.047	49.490	0	63.70	0	7.3900	0	32.3810	0	25.304	0	63.147	0	278.7	4	94.0	4	-1E+10	1	-1E+10	1	-1E+10	1	-1E+10	1	-1E+10	1	-1E+10	1
4902551	30	C	06/06/2021	13:56	-135.047	49.490	0	64.80	0	7.3400	0	32.3860	0	25.315	0	64.237	0	278.6	4	93.8	4	-1E+10	1	-1E+10	1	-1E+10	1	-1E+10	1	-1E+10	1	-1E+10	1
4902551	30	C	06/06/2021	13:56	-135.047	49.490	0	66.00	0	7.2720	0	32.3890	0	25.327	0	65.427	0	278.6	4	93.7	4	-1E+10	1	-1E+10	1	-1E+10	1	-1E+10	1	-1E+10	1	-1E+10	1
4902551	30	C	06/06/2021	13:56	-135.047	49.490	0	67.10	0	7.2550	0	32.3890	0	25.329	0	66.517	0	278.4	4	93.6	4	-1E+10	1	-1E+10	1	-1E+10	1	-1E+10	1	-1E+10	1	-1E+10	1
4902551	30	C	06/06/2021	13:56	-135.047	49.490	0	67.90	0	7.2360	0	32.3910	0	25.333	0	67.310	0	278.2	4	93.5	4	-1E+10	1	-1E+10	1	-1E+10	1	-1E+10	1	-1E+10	1	-1E+10	1
4902551	30	C	06/06/2021	13:56	-135.047	49.490	0	68.80	0	7.2050	0	32.3930	0	25.339	0	68.202	0	278.0	4	93.4	4	-1E+10	1	-1E+10	1	-1E+10	1	-1E+10	1	-1E+10	1	-1E+10	1
4902551	30	C	06/06/2021	13:56	-135.047	49.490	0	69.90	0	7.1870	0	32.3930	0	25.342	0	69.292	0	277.9	4	93.3	4	-1E+10	1	-1E+10	1	-1E+10	1	-1E+10	1	-1E+10	1	-1E+10	1
4902551	30	C	06/06/2021	13:56	-135.047	49.490	0	71.10	0	7.1750	0	32.3940	0	25.344	0	70.482	0	277.6	4	93.2	4	-1E+10	1	-1E+10	1	-1E+10	1	-1E+10	1	-1E+10	1	-1E+10	1
4902551	30	C	06/06/2021	13:56	-135.047	49.490	0	72.00	0	7.1670	0	32.3940	0	25.345	0	71.374	0	277.4	4	93.1	4	-1E+10	1	-1E+10	1	-1E+10	1	-1E+10	1	-1E+10	1	-1E+10	1
4902551	30	C	06/06/2021	13:56	-135.047	49.490	0	72.80	0	7.1440	0	32.3960	0	25.350	0	72.167	0	277.2	4	93.0	4	-1E+10	1	-1E+10	1	-1E+10	1	-1E+10	1	-1E+10	1	-1E+10	1
4902551	30	C	06/06/2021	13:56	-135.047	49.490	0	74.00	0	7.0940	0	32.3980	0	25.358	0	73.356	0	277.0	4	92.8	4	-1E+10	1	-1E+10	1	-1E+10	1	-1E+10	1	-1E+10	1	-1E+10	1
4902551	30	C	06/06/2021	13:56	-135.047	49.490	0	74.90	0	7.0550	0	32.4010	0	25.366	0	74.248	0	276.8	4	92.7	4	-1E+10	1	-1E+10	1	-1E+10	1	-1E+10	1	-1E+10	1	-1E+10	1
4902551	30	C	06/06/2021	13:56	-135.047	49.490	0	75.80	0	7.0320	0	32.4030	0	25.370	0	75.140	0	276.7	4	92.6	4	-1E+10	1	-1E+10	1	-1E+10	1	-1E+10	1	-1E+10	1	-1E+10	1
4902551	30	C	06/06/2021	13:56	-135.047	49.490	0	77.00	0	6.9680	0	32.4140	0	25.388	0	76.329	0	276.6	4	92.4	4	-1E+10	1	-1E+10	1	-1E+10	1	-1E+10	1	-1E+10	1	-1E+10	1
4902551	30	C	06/06/2021	13:56	-135.047	49.490	0	78.00	0	6.8960	0	32.4320	0	25.411	0	77.320	0	276.7	4	92.3	4	-1E+10	1	-1E+10	1	-1E+10	1	-1E+10	1	-1E+10	1	-1E+10	1
4902551	30	C	06/06/2021	13:56	-135.047	49.490	0	78.90	0	6.8470	0	32.4320	0	25.418	0	78.212	0	276.9	4	92.3	4	-1E+10	1	-1E+10	1	-1E+10	1	-1E+10	1	-1E+10	1	-1E+10	1
4902551	30	C	06/06/2021	13:56	-135.047	49.490	0	80.00	0	6.7990	0	32.4320	0	25.424	0	79.302	0	277.0	4	92.2	4	-1E+10	1	-1E+10	1	-1E+10	1	-1E+10	1	-1E+10	1	-1E+10	1
4902551	30	C	06/06/2021	13:56	-135.047	49.490	0	81.00	0	6.7410	0	32.4350	0	25.434	0	80.294	0	277.1	4	92.1	4	-1E+10	1	-1E+10	1	-1E+10	1	-1E+10	1	-1E+10	1	-1E+10	1
4902551	30	C	06/06/2021	13:56	-135.047	49.490	0	82.10	0	6.7070	0	32.4400	0	25.442	0	81.384	0	277.0	4	92.0	4	-1E+10	1	-1E+10	1	-1E+10	1	-1E+10	1	-1E+10	1	-1E+10	1
4902551	30	C	06/06/2021	13:56	-135.047	49.490	0	83.00	0	6.6650	0	32.4420	0	25.449	0	82.276	0	276.9	4	91.9	4	-1E+10	1	-1E+10	1	-1E+10	1	-1E+10	1	-1E+10	1	-1E+10	1
4902551	30	C	06/06/2021	13:56	-135.047	49.490	0	84.20	0	6.6440	0	32.4470	0	25.456	0	83.465	0	276.7	4	91.8	4	-1E+10	1	-1E+10	1	-1E+10	1	-1E+10	1	-1E+10	1	-1E+10	1
4902551	30	C	06/06/2021	13:56	-135.047	49.490	0	85.10	0	6.6450	0	32.4470	0	25.456	0	84.357	0	276.6	4	91.8	4	-1E+10	1	-1E+10	1	-1E+10	1	-1E+10	1	-1E+10	1	-1E+10	1
4902551	30	C	06/06/2021	13:56	-135.047	49.490	0	86.10	0	6.6450	0	32.4460	0	25.455	0	85.348	0	276.3	4	91.7	4	-1E+10	1	-1E+10	1	-1E+10	1	-1E+10	1	-1E+10	1	-1E+10	1
4902551	30	C	06/06/2021	13:56	-135.047	49.490	0	87.10	0	6.6450	0	32.4460	0	25.455	0	86.339	0	275.7	4	91.5	4	-1E+10	1	-1E+10	1	-1E+10	1	-1E+10	1	-1E+10	1	-1E+10	1
4902551	30	C	06/06/2021	13:56	-135.047	49.490	0	88.00	0	6.6460	0	32.4470	0	25.456	0	87.231	0	275.3	4	91.3	4	-1E+10	1	-1E+10	1	-1E+10	1	-1E+10	1	-1E+10	1	-1E+10	1
4902551	30	C	06/06/2021	13:56	-135.047	49.490	0	89.00	0	6.6460	0	32.4470	0	25.456	0	88.222	0	274.9	4	91.2	4	-1E+10	1	-1E+10	1	-1E+10	1	-1E+10	1	-1E+10	1	-1E+10	1
4902551	30	C	06/06/2021	13:56	-135.047	49.490	0	89.90	0	6.6440	0	32.4450	0	25.454	0	89.114	0	274.5	4	91.0	4	-1E+10	1	-1E+10	1	-1E+10	1	-1E+10	1	-1E+10	1	-1E+10	1
4902551	30	C	06/06/2021	13:56	-135.047	49.490	0	90.90	0	6.5340	0	32.4610	0	25.481	0	90.105	0	273.9	4	90.6	4	-1E+10	1	-1E+10	1	-1E+10	1	-1E+10	1	-1E+10	1	-1E+10	1
4902551	30	C	06/06/2021	13:56	-135.047	49.490	0	91.90	0	6.5050	0	32.4550	0	25.480	0	91.096	0	273.2	4	90.3	4	-1E+10	1	-1E+10	1	-1E+10	1	-1E+10	1	-1E+10	1	-1E+10	1
4902551	30	C	06/06/2021	13:56	-135.047	49.490	0	93.00	0	6.4850	0	32.4580	0	25.485	0	92.186	0	271.9	4	89.9	4	-1E+10	1	-1E+10	1	-1E+10	1	-1E+10	1	-1E+10	1	-1E+10	1
4902551	30	C	06/06/2021	13:56	-135.047	49.490	0	94.00	0	6.4590	0	32.4550	0	25.486	0	93.177	0	270.7	4	89.4	4	-1E+10	1	-1E+10	1	-1E+10	1	-1E+10	1	-1E+10	1	-1E+10	1
4902551	30	C	06/06/2021	13:56	-135.047	49.490	0	95.00	0	6.4490	0	32.4550	0	25.487	0	94.168	0	269.3	4	88.9	4	-1E+10	1	-1E+10	1	-1E+10	1	-1E+10	1	-1E+10	1	-1E+10	1
4902551	30	C	06/06/2021	13:56	-135.047	49.490	0	96.10	0	6.4460	0	32.4630	0	25.494	0	95.258	0	267.8	4	88.4	4	-1E+10	1	-1E+10	1	-1E+10	1	-1E+10	1	-1E+10	1	-1E+10	1
4902551	30	C	06/06/2021	13:56	-135.047	49.490	0	96.80	0	6.3970	0	32.5330	0	25.555	0	95.952	0	267.3	4	88.2	4	-1E+10	1	-1E+10	1	-1E+10	1	-1E+10	1	-1E+10	1	-1E+10	1
4902551	30	C	06/06/2021	13:56	-135.047	49.490	0	97.90	0	6.3940	0	32.5340	0	25.557	0	97.042	0	266.8	4	88.1	4	-1E+10	1	-1E+10	1	-1E+10	1	-1E+10	1	-1E+10	1	-1E+10	1
4902551	30	C	06/06/2021	13:56	-135.047	49.490	0	99.00	0	6.3970	0	32.5390	0	25.560	0	98.132	0	266.5	4	87.9	4	-1E+10	1	-1E+10	1	-1E+10	1	-1E+10	1	-1E+10	1	-1E+10	1
4902551	30	C	06/06/2021	13:56	-135.047	49.490	0	100.00	0	6.3960	0	32.5530	0	25.571	0	99.123	0	266.6	4	88.0	4	-1E+10	1	-1E+10	1	-1E+10	1	-1E+10	1	-1E+10	1	-1E+10	1
4902551	30	C	06/06/2021	13:56	-135.047	49.490	0	100.70	0	6.4010	0	32.5370	0	25.558	0	99.817	0	266.4	4	87.9	4	-1E+10	1	-1E+10	1	-1E+10	1	-1E+10	1	-1E+10	1	-1E+10	1
4902551	30	C	06/06/2021	13:56	-135.047	49.490	0	101.90	0	6.4020	0	32.5320	0	25.554	0	101.006	0	266.2	4	87.9	4	-1E+10	1	-1E+10	1	-1E+10	1	-1E+10	1	-1E+10	1	-1E+10	1
4902551	30	C	06/06/2021	13:56	-135.047	49.490	0	102.90	0	6.4040	0	32.5280	0	25.551	0	101.997	0	258.9	4	85.5	4	-1E+10	1	-1E+10	1	-1E+10	1	-1E+10	1	-1E+10	1	-1E+10	1
4902551	30	C	06/06/2021	13:56	-135.047	49.490	0	103.80	0	6.3930	0	32.5500	0	25.569	0	102.889	0	249.6	4	82.4	4	-1E+10	1	-1E+10	1	-1E+10	1	-1E+10	1	-1E+10	1	-1E+10	1
4902551	30	C	06/06/2021	13:56	-135.047	49.490	0	104.90	0	6.3890	0	32.5790	0	25.593	0	103.979	0	245.9	4	81.2	4	-1E+10	1	-1E+10	1	-1E+10	1	-1E+10	1	-1E+10	1	-1E+10	1
4902551	30	C	06/06/2021	13:56	-135.047	49.490	0	106.30	0	6.3800	0	32.6160	0	25.623	0	105.366	0	241.6	4	79.8	4	-1E+10	1	-1E+10	1	-1E+10	1	-1E+10	1	-1E+10	1	-1E+10	1
4902551	30	C	06/06/2021	13:56	-135.047	49.490	0	106.90	0	6.3820	0	32.6330	0	25.636	0	105.961	0	238.8	4	78.8	4	-1E+10	1	-1E+10	1	-1E+10	1	-1E+10	1	-1E+10	1	-1E+10	1
4902551	30	C	06/06/2021	13:56	-135.047	49.490	0	107.90	0	6.3970	0	32.6760	0	25.668	0	106.952	0	234.1	4	77.3	4	-1E+10	1	-1E+10	1	-1E+10	1	-1E+10	1	-1E+10	1	-1E+10	1
4902551	30	C	06/06/2021	13:56	-135.047	49.490	0	109.00	0	6.4150	0	32.7270	0	25.706	0	108.042	0	229.6	4	75.9	4	-1E+10	1	-1E+10	1	-1E+10	1	-1E+10	1	-1E+10	1	-1E+10	1
4902551	30	C	06/06/2021	13:56	-135.047	49.490	0	110.10	0	6.4360	0	32.7940	0	25.757	0	109.132	0	225.8	4	74.7	4	-1E+10	1	-1E+10	1	-1E+10	1	-1E+10	1	-1E+10	1	-1E+10	1
4902551	30	C	06/06/2021	13:56	-135.047	49.490	0	111.10	0	6.4870	0	32.8810	0	25.819	0	110.123	0	223.3	4	74.0	4	-1E+10	1	-1E+10	1	-1E+10	1	-1E+10	1	-1E+10	1	-1E+10	1
4902551	30	C	06/06/2021	13:56	-135.047	49.490	0	112.20	0	6.4940	0	32.8920	0	25.826	0	111.213	0	221.5	4	73.5	4	-1E+10	1	-1E+10	1	-1E+10	1	-1E+10	1	-1E+10	1	-1E+10	1
4902551	30	C	06/06/2021	13:56	-135.047	49.490	0	112.90	0	6.4990	0	32.9160	0	25.845	0	111.907	0	220.5	4	73.2	4	-1E+10	1	-1E+10	1	-1E+10	1	-1E+10	1	-1E+10	1	-1E+10	1
4902551	30	C	06/06/2021	13:56	-135.047	49.490	0	113.90	0	6.5090	0	32.9360	0	25.859	0	112.898	0	219.2	4	72.8	4	-1E+10	1	-1E+10	1	-1E+10	1	-1E+10	1	-1E+10	1	-1E+10	1
4902551	30	C	06/06/2021	13:56	-135.047	49.490	0	114.90	0	6.5090	0	32.9420	0	25.864	0	113.889	0	218.0	4	72.4	4	-1E+10	1	-1E+10	1	-1E+10	1	-1E+10	1	-1E+10	1	-1E+10	1
4902551	30	C	06/06/2021	13:56	-135.047	49.490	0	115.90	0	6.5140	0	32.9480	0	25.868	0	114.879	0	216.6	4	71.9	4	-1E+10	1	-1E+10	1	-1E+10	1	-1E+10	1	-1E+10	1	-1E+10	1
4902551	30	C	06/06/2021	13:56	-135.047	49.490	0	116.90	0	6.5210	0	32.9570	0	25.874	0	115.870	0	215.1	4	71.4	4	-1E+10	1	-1E+10	1	-1E+10	1	-1E+10	1	-1E+10	1	-1E+10	1
4902551	30	C	06/06/2021	13:56	-135.047	49.490	0	117.90	0	6.5250	0	32.9700	0	25.884	0	116.861	0	213.5	4	70.9	4	-1E+10	1	-1E+10	1	-1E+10	1	-1E+10	1	-1E+10	1	-1E+10	1
4902551	30	C	06/06/2021	13:56	-135.047	49.490	0	119.10	0	6.5260	0	32.9750	0	25.888	0	118.050	0	211.0	4	70.1	4	-1E+10	1	-1E+10	1	-1E+10	1	-1E+10	1	-1E+10	1	-1E+10	1
4902551	30	C	06/06/2021	13:56	-135.047	49.490	0	120.00	0	6.5330	0	32.9890	0	25.898	0	118.942	0	208.9	4	69.4	4	-1E+10	1	-1E+10	1	-1E+10	1	-1E+10	1	-1E+10	1	-1E+10	1
4902551	30	C	06/06/2021	13:56	-135.047	49.490	0	121.10	0	6.5360	0	32.9970	0	25.904	0	120.032	0	202.8	4	67.4	4	-1E+10	1	-1E+10	1	-1E+10	1	-1E+10	1	-1E+10	1	-1E+10	1
4902551	30	C	06/06/2021	13:56	-135.047	49.490	0	122.00	0	6.5330	0	33.0280	0	25.929	0	120.924	0	192.5	4	64.0	4	-1E+10	1	-1E+10	1	-1E+10	1	-1E+10	1	-1E+10	1	-1E+10	1
4902551	30	C	06/06/2021	13:56	-135.047	49.490	0	123.00	0	6.5120	0	33.1280	0	26.010	0	121.915	0	183.3	4	60.9	4	-1E+10	1	-1E+10	1	-1E+10	1	-1E+10	1	-1E+10	1	-1E+10	1
4902551	30	C	06/06/2021	13:56	-135.047	49.490	0	123.90	0	6.4960	0	33.1700	0	26.046	0	122.807	0	177.0	4	58.8	4	-1E+10	1	-1E+10	1	-1E+10	1	-1E+10	1	-1E+10	1	-1E+10	1
4902551	30	C	06/06/2021	13:56	-135.047	49.490	0	125.00	0	6.4750	0	33.2070	0	26.077	0	123.897	0	170.2	4	56.5	4	-1E+10	1	-1E+10	1	-1E+10	1	-1E+10	1	-1E+10	1	-1E+10	1
4902551	30	C	06/06/2021	13:56	-135.047	49.490	0	125.90	0	6.4460	0	33.2450	0	26.111	0	124.788	0	165.0	4	54.8	4	-1E+10	1	-1E+10	1	-1E+10	1	-1E+10	1	-1E+10	1	-1E+10	1
4902551	30	C	06/06/2021	13:56	-135.047	49.490	0	126.80	0	6.4120	0	33.2590	0	26.127	0	125.680	0	160.9	4	53.4	4	-1E+10	1	-1E+10	1	-1E+10	1	-1E+10	1	-1E+10	1	-1E+10	1
4902551	30	C	06/06/2021	13:56	-135.047	49.490	0	127.80	0	6.3290	0	33.3400	0	26.201	0	126.671	0	157.4	4	52.2	4	-1E+10	1	-1E+10	1	-1E+10	1	-1E+10	1	-1E+10	1	-1E+10	1
4902551	30	C	06/06/2021	13:56	-135.047	49.490	0	129.00	0	6.3120	0	33.3880	0	26.241	0	127.860	0	153.2	4	50.8	4	-1E+10	1	-1E+10	1	-1E+10	1	-1E+10	1	-1E+10	1	-1E+10	1
4902551	30	C	06/06/2021	13:56	-135.047	49.490	0	130.00	0	6.3070	0	33.4040	0	26.254	0	128.851	0	150.1	4	49.8	4	-1E+10	1	-1E+10	1	-1E+10	1	-1E+10	1	-1E+10	1	-1E+10	1
4902551	30	C	06/06/2021	13:56	-135.047	49.490	0	130.70	0	6.2920	0	33.4350	0	26.281	0	129.545	0	148.7	4	49.3	4	-1E+10	1	-1E+10	1	-1E+10	1	-1E+10	1	-1E+10	1	-1E+10	1
4902551	30	C	06/06/2021	13:56	-135.047	49.490	0	131.80	0	6.2700	0	33.4840	0	26.322	0	130.634	0	146.9	4	48.7	4	-1E+10	1	-1E+10	1	-1E+10	1	-1E+10	1	-1E+10	1	-1E+10	1
4902551	30	C	06/06/2021	13:56	-135.047	49.490	0	133.00	0	6.2450	0	33.5350	0	26.366	0	131.823	0	145.5	4	48.2	4	-1E+10	1	-1E+10	1	-1E+10	1	-1E+10	1	-1E+10	1	-1E+10	1
4902551	30	C	06/06/2021	13:56	-135.047	49.490	0	133.80	0	6.2370	0	33.5460	0	26.376	0	132.616	0	144.8	4	48.0	4	-1E+10	1	-1E+10	1	-1E+10	1	-1E+10	1	-1E+10	1	-1E+10	1
4902551	30	C	06/06/2021	13:56	-135.047	49.490	0	134.90	0	6.2330	0	33.5490	0	26.378	0	133.706	0	143.6	4	47.6	4	-1E+10	1	-1E+10	1	-1E+10	1	-1E+10	1	-1E+10	1	-1E+10	1
4902551	30	C	06/06/2021	13:56	-135.047	49.490	0	136.00	0	6.2320	0	33.5500	0	26.379	0	134.796	0	142.1	4	47.1	4	-1E+10	1	-1E+10	1	-1E+10	1	-1E+10	1	-1E+10	1	-1E+10	1
4902551	30	C	06/06/2021	13:56	-135.047	49.490	0	136.80	0	6.2250	0	33.5570	0	26.386	0	135.589	0	141.1	4	46.7	4	-1E+10	1	-1E+10	1	-1E+10	1	-1E+10	1	-1E+10	1	-1E+10	1
4902551	30	C	06/06/2021	13:56	-135.047	49.490	0	138.00	0	6.1990	0	33.5770	0	26.405	0	136.778	0	139.5	4	46.2	4	-1E+10	1	-1E+10	1	-1E+10	1	-1E+10	1	-1E+10	1	-1E+10	1
4902551	30	C	06/06/2021	13:56	-135.047	49.490	0	139.20	0	6.1820	0	33.5870	0	26.415	0	137.967	0	138.1	4	45.7	4	-1E+10	1	-1E+10	1	-1E+10	1	-1E+10	1	-1E+10	1	-1E+10	1
4902551	30	C	06/06/2021	13:56	-135.047	49.490	0	140.10	0	6.1720	0	33.5970	0	26.424	0	138.858	0	137.3	4	45.4	4	-1E+10	1	-1E+10	1	-1E+10	1	-1E+10	1	-1E+10	1	-1E+10	1
4902551	30	C	06/06/2021	13:56	-135.047	49.490	0	140.90	0	6.1440	0	33.6300	0	26.454	0	139.651	0	136.6	4	45.2	4	-1E+10	1	-1E+10	1	-1E+10	1	-1E+10	1	-1E+10	1	-1E+10	1
4902551	30	C	06/06/2021	13:56	-135.047	49.490	0	141.70	0	6.1380	0	33.6280	0	26.453	0	140.444	0	136.1	4	45.0	4	-1E+10	1	-1E+10	1	-1E+10	1	-1E+10	1	-1E+10	1	-1E+10	1
4902551	30	C	06/06/2021	13:56	-135.047	49.490	0	142.90	0	6.1220	0	33.6350	0	26.460	0	141.632	0	135.2	4	44.7	4	-1E+10	1	-1E+10	1	-1E+10	1	-1E+10	1	-1E+10	1	-1E+10	1
4902551	30	C	06/06/2021	13:56	-135.047	49.490	0	144.10	0	6.1130	0	33.6410	0	26.466	0	142.821	0	134.3	4	44.4	4	-1E+10	1	-1E+10	1	-1E+10	1	-1E+10	1	-1E+10	1	-1E+10	1
4902551	30	C	06/06/2021	13:56	-135.047	49.490	0	144.90	0	6.1070	0	33.6430	0	26.469	0	143.614	0	133.7	4	44.2	4	-1E+10	1	-1E+10	1	-1E+10	1	-1E+10	1	-1E+10	1	-1E+10	1
4902551	30	C	06/06/2021	13:56	-135.047	49.490	0	146.00	0	6.0980	0	33.6510	0	26.476	0	144.704	0	132.9	4	43.9	4	-1E+10	1	-1E+10	1	-1E+10	1	-1E+10	1	-1E+10	1	-1E+10	1
4902551	30	C	06/06/2021	13:56	-135.047	49.490	0	147.20	0	6.0910	0	33.6600	0	26.484	0	145.893	0	132.2	4	43.7	4	-1E+10	1	-1E+10	1	-1E+10	1	-1E+10	1	-1E+10	1	-1E+10	1
4902551	30	C	06/06/2021	13:56	-135.047	49.490	0	147.90	0	6.0920	0	33.6620	0	26.486	0	146.586	0	131.5	4	43.5	4	-1E+10	1	-1E+10	1	-1E+10	1	-1E+10	1	-1E+10	1	-1E+10	1
4902551	30	C	06/06/2021	13:56	-135.047	49.490	0	148.80	0	6.0860	0	33.6700	0	26.493	0	147.478	0	130.9	4	43.3	4	-1E+10	1	-1E+10	1	-1E+10	1	-1E+10	1	-1E+10	1	-1E+10	1
4902551	30	C	06/06/2021	13:56	-135.047	49.490	0	150.00	0	6.0820	0	33.6740	0	26.496	0	148.667	0	129.9	4	42.9	4	-1E+10	1	-1E+10	1	-1E+10	1	-1E+10	1	-1E+10	1	-1E+10	1
4902551	30	C	06/06/2021	13:56	-135.047	49.490	0	151.20	0	6.0730	0	33.6810	0	26.503	0	149.856	0	129.1	4	42.7	4	-1E+10	1	-1E+10	1	-1E+10	1	-1E+10	1	-1E+10	1	-1E+10	1
4902551	30	C	06/06/2021	13:56	-135.047	49.490	0	152.00	0	6.0700	0	33.6840	0	26.506	0	150.648	0	128.5	4	42.4	4	-1E+10	1	-1E+10	1	-1E+10	1	-1E+10	1	-1E+10	1	-1E+10	1
4902551	30	C	06/06/2021	13:56	-135.047	49.490	0	152.80	0	6.0640	0	33.6890	0	26.510	0	151.441	0	127.8	4	42.2	4	-1E+10	1	-1E+10	1	-1E+10	1	-1E+10	1	-1E+10	1	-1E+10	1
4902551	30	C	06/06/2021	13:56	-135.047	49.490	0	153.90	0	6.0570	0	33.6930	0	26.515	0	152.531	0	126.8	4	41.9	4	-1E+10	1	-1E+10	1	-1E+10	1	-1E+10	1	-1E+10	1	-1E+10	1
4902551	30	C	06/06/2021	13:56	-135.047	49.490	0	155.10	0	6.0570	0	33.6970	0	26.518	0	153.720	0	125.7	4	41.5	4	-1E+10	1	-1E+10	1	-1E+10	1	-1E+10	1	-1E+10	1	-1E+10	1
4902551	30	C	06/06/2021	13:56	-135.047	49.490	0	155.90	0	6.0560	0	33.7020	0	26.522	0	154.512	0	125.0	4	41.3	4	-1E+10	1	-1E+10	1	-1E+10	1	-1E+10	1	-1E+10	1	-1E+10	1
4902551	30	C	06/06/2021	13:56	-135.047	49.490	0	156.70	0	6.0480	0	33.7050	0	26.525	0	155.305	0	124.3	4	41.1	4	-1E+10	1	-1E+10	1	-1E+10	1	-1E+10	1	-1E+10	1	-1E+10	1
4902551	30	C	06/06/2021	13:56	-135.047	49.490	0	157.90	0	6.0340	0	33.7150	0	26.535	0	156.494	0	123.3	4	40.7	4	-1E+10	1	-1E+10	1	-1E+10	1	-1E+10	1	-1E+10	1	-1E+10	1
4902551	30	C	06/06/2021	13:56	-135.047	49.490	0	159.10	0	6.0260	0	33.7210	0	26.541	0	157.683	0	122.2	4	40.3	4	-1E+10	1	-1E+10	1	-1E+10	1	-1E+10	1	-1E+10	1	-1E+10	1
4902551	30	C	06/06/2021	13:56	-135.047	49.490	0	160.00	0	6.0150	0	33.7280	0	26.548	0	158.574	0	121.5	4	40.1	4	-1E+10	1	-1E+10	1	-1E+10	1	-1E+10	1	-1E+10	1	-1E+10	1
4902551	30	C	06/06/2021	13:56	-135.047	49.490	0	160.90	0	6.0080	0	33.7340	0	26.553	0	159.466	0	121.0	4	39.9	4	-1E+10	1	-1E+10	1	-1E+10	1	-1E+10	1	-1E+10	1	-1E+10	1
4902551	30	C	06/06/2021	13:56	-135.047	49.490	0	161.70	0	6.0060	0	33.7350	0	26.554	0	160.258	0	120.4	4	39.7	4	-1E+10	1	-1E+10	1	-1E+10	1	-1E+10	1	-1E+10	1	-1E+10	1
4902551	30	C	06/06/2021	13:56	-135.047	49.490	0	162.60	0	6.0030	0	33.7370	0	26.556	0	161.150	0	119.9	4	39.6	4	-1E+10	1	-1E+10	1	-1E+10	1	-1E+10	1	-1E+10	1	-1E+10	1
4902551	30	C	06/06/2021	13:56	-135.047	49.490	0	163.90	0	5.9880	0	33.7500	0	26.568	0	162.438	0	119.3	4	39.4	4	-1E+10	1	-1E+10	1	-1E+10	1	-1E+10	1	-1E+10	1	-1E+10	1
4902551	30	C	06/06/2021	13:56	-135.047	49.490	0	165.30	0	5.9820	0	33.7530	0	26.571	0	163.825	0	118.7	4	39.2	4	-1E+10	1	-1E+10	1	-1E+10	1	-1E+10	1	-1E+10	1	-1E+10	1
4902551	30	C	06/06/2021	13:56	-135.047	49.490	0	166.20	0	5.9810	0	33.7530	0	26.572	0	164.717	0	118.3	4	39.0	4	-1E+10	1	-1E+10	1	-1E+10	1	-1E+10	1	-1E+10	1	-1E+10	1
4902551	30	C	06/06/2021	13:56	-135.047	49.490	0	167.10	0	5.9790	0	33.7540	0	26.573	0	165.608	0	117.8	4	38.9	4	-1E+10	1	-1E+10	1	-1E+10	1	-1E+10	1	-1E+10	1	-1E+10	1
4902551	30	C	06/06/2021	13:56	-135.047	49.490	0	168.00	0	5.9690	0	33.7600	0	26.579	0	166.500	0	117.4	4	38.7	4	-1E+10	1	-1E+10	1	-1E+10	1	-1E+10	1	-1E+10	1	-1E+10	1
4902551	30	C	06/06/2021	13:56	-135.047	49.490	0	168.90	0	5.9630	0	33.7630	0	26.582	0	167.391	0	117.0	4	38.6	4	-1E+10	1	-1E+10	1	-1E+10	1	-1E+10	1	-1E+10	1	-1E+10	1
4902551	30	C	06/06/2021	13:56	-135.047	49.490	0	169.80	0	5.9610	0	33.7720	0	26.589	0	168.283	0	116.6	4	38.4	4	-1E+10	1	-1E+10	1	-1E+10	1	-1E+10	1	-1E+10	1	-1E+10	1
4902551	30	C	06/06/2021	13:56	-135.047	49.490	0	170.70	0	5.9480	0	33.7730	0	26.592	0	169.175	0	116.3	4	38.3	4	-1E+10	1	-1E+10	1	-1E+10	1	-1E+10	1	-1E+10	1	-1E+10	1
4902551	30	C	06/06/2021	13:56	-135.047	49.490	0	171.70	0	5.9270	0	33.7760	0	26.597	0	170.165	0	116.1	4	38.2	4	-1E+10	1	-1E+10	1	-1E+10	1	-1E+10	1	-1E+10	1	-1E+10	1
4902551	30	C	06/06/2021	13:56	-135.047	49.490	0	172.60	0	5.9230	0	33.7760	0	26.597	0	171.057	0	115.8	4	38.2	4	-1E+10	1	-1E+10	1	-1E+10	1	-1E+10	1	-1E+10	1	-1E+10	1
4902551	30	C	06/06/2021	13:56	-135.047	49.490	0	173.90	0	5.9170	0	33.7820	0	26.603	0	172.345	0	115.5	4	38.0	4	-1E+10	1	-1E+10	1	-1E+10	1	-1E+10	1	-1E+10	1	-1E+10	1
4902551	30	C	06/06/2021	13:56	-135.047	49.490	0	175.40	0	5.9020	0	33.7840	0	26.606	0	173.831	0	115.2	4	37.9	4	-1E+10	1	-1E+10	1	-1E+10	1	-1E+10	1	-1E+10	1	-1E+10	1
4902551	30	C	06/06/2021	13:56	-135.047	49.490	0	176.30	0	5.8920	0	33.7880	0	26.610	0	174.722	0	115.0	4	37.9	4	-1E+10	1	-1E+10	1	-1E+10	1	-1E+10	1	-1E+10	1	-1E+10	1
4902551	30	C	06/06/2021	13:56	-135.047	49.490	0	177.30	0	5.8800	0	33.7880	0	26.612	0	175.713	0	114.9	4	37.8	4	-1E+10	1	-1E+10	1	-1E+10	1	-1E+10	1	-1E+10	1	-1E+10	1
4902551	30	C	06/06/2021	13:56	-135.047	49.490	0	178.20	0	5.8710	0	33.7900	0	26.615	0	176.604	0	114.8	4	37.8	4	-1E+10	1	-1E+10	1	-1E+10	1	-1E+10	1	-1E+10	1	-1E+10	1
4902551	30	C	06/06/2021	13:56	-135.047	49.490	0	179.20	0	5.8640	0	33.7900	0	26.615	0	177.595	0	114.7	4	37.8	4	-1E+10	1	-1E+10	1	-1E+10	1	-1E+10	1	-1E+10	1	-1E+10	1
4902551	30	C	06/06/2021	13:56	-135.047	49.490	0	180.20	0	5.8520	0	33.7910	0	26.618	0	178.586	0	114.6	4	37.7	4	-1E+10	1	-1E+10	1	-1E+10	1	-1E+10	1	-1E+10	1	-1E+10	1
4902551	30	C	06/06/2021	13:56	-135.047	49.490	0	181.20	0	5.8380	0	33.7910	0	26.619	0	179.576	0	114.5	4	37.6	4	-1E+10	1	-1E+10	1	-1E+10	1	-1E+10	1	-1E+10	1	-1E+10	1
4902551	30	C	06/06/2021	13:56	-135.047	49.490	0	182.10	0	5.8350	0	33.7920	0	26.621	0	180.468	0	114.4	4	37.6	4	-1E+10	1	-1E+10	1	-1E+10	1	-1E+10	1	-1E+10	1	-1E+10	1
4902551	30	C	06/06/2021	13:56	-135.047	49.490	0	183.10	0	5.8280	0	33.7910	0	26.621	0	181.458	0	114.3	4	37.6	4	-1E+10	1	-1E+10	1	-1E+10	1	-1E+10	1	-1E+10	1	-1E+10	1
4902551	30	C	06/06/2021	13:56	-135.047	49.490	0	184.10	0	5.8200	0	33.7930	0	26.623	0	182.449	0	114.2	4	37.5	4	-1E+10	1	-1E+10	1	-1E+10	1	-1E+10	1	-1E+10	1	-1E+10	1
4902551	30	C	06/06/2021	13:56	-135.047	49.490	0	185.00	0	5.8150	0	33.7940	0	26.625	0	183.340	0	114.1	4	37.5	4	-1E+10	1	-1E+10	1	-1E+10	1	-1E+10	1	-1E+10	1	-1E+10	1
4902551	30	C	06/06/2021	13:56	-135.047	49.490	0	186.00	0	5.8060	0	33.7950	0	26.627	0	184.331	0	114.1	4	37.5	4	-1E+10	1	-1E+10	1	-1E+10	1	-1E+10	1	-1E+10	1	-1E+10	1
4902551	30	C	06/06/2021	13:56	-135.047	49.490	0	186.90	0	5.8030	0	33.7950	0	26.627	0	185.222	0	114.1	4	37.5	4	-1E+10	1	-1E+10	1	-1E+10	1	-1E+10	1	-1E+10	1	-1E+10	1
4902551	30	C	06/06/2021	13:56	-135.047	49.490	0	187.90	0	5.7900	0	33.7960	0	26.629	0	186.213	0	114.0	4	37.5	4	-1E+10	1	-1E+10	1	-1E+10	1	-1E+10	1	-1E+10	1	-1E+10	1
4902551	30	C	06/06/2021	13:56	-135.047	49.490	0	188.80	0	5.7830	0	33.7980	0	26.632	0	187.105	0	114.1	4	37.5	4	-1E+10	1	-1E+10	1	-1E+10	1	-1E+10	1	-1E+10	1	-1E+10	1
4902551	30	C	06/06/2021	13:56	-135.047	49.490	0	189.70	0	5.7820	0	33.7980	0	26.632	0	187.996	0	114.2	4	37.5	4	-1E+10	1	-1E+10	1	-1E+10	1	-1E+10	1	-1E+10	1	-1E+10	1
4902551	30	C	06/06/2021	13:56	-135.047	49.490	0	190.70	0	5.7790	0	33.7980	0	26.632	0	188.987	0	114.3	4	37.5	4	-1E+10	1	-1E+10	1	-1E+10	1	-1E+10	1	-1E+10	1	-1E+10	1
4902551	30	C	06/06/2021	13:56	-135.047	49.490	0	191.60	0	5.7740	0	33.7990	0	26.634	0	189.878	0	114.4	4	37.6	4	-1E+10	1	-1E+10	1	-1E+10	1	-1E+10	1	-1E+10	1	-1E+10	1
4902551	30	C	06/06/2021	13:56	-135.047	49.490	0	192.60	0	5.7460	0	33.7960	0	26.635	0	190.869	0	114.7	4	37.6	4	-1E+10	1	-1E+10	1	-1E+10	1	-1E+10	1	-1E+10	1	-1E+10	1
4902551	30	C	06/06/2021	13:56	-135.047	49.490	0	193.60	0	5.7080	0	33.8020	0	26.644	0	191.859	0	115.0	4	37.7	4	-1E+10	1	-1E+10	1	-1E+10	1	-1E+10	1	-1E+10	1	-1E+10	1
4902551	30	C	06/06/2021	13:56	-135.047	49.490	0	194.60	0	5.6890	0	33.8000	0	26.645	0	192.850	0	115.2	4	37.8	4	-1E+10	1	-1E+10	1	-1E+10	1	-1E+10	1	-1E+10	1	-1E+10	1
4902551	30	C	06/06/2021	13:56	-135.047	49.490	0	195.60	0	5.6670	0	33.8020	0	26.649	0	193.840	0	115.4	4	37.8	4	-1E+10	1	-1E+10	1	-1E+10	1	-1E+10	1	-1E+10	1	-1E+10	1
4902551	30	C	06/06/2021	13:56	-135.047	49.490	0	196.60	0	5.6000	0	33.7990	0	26.655	0	194.831	0	115.6	4	37.8	4	-1E+10	1	-1E+10	1	-1E+10	1	-1E+10	1	-1E+10	1	-1E+10	1
4902551	30	C	06/06/2021	13:56	-135.047	49.490	0	197.60	0	5.6020	0	33.7990	0	26.655	0	195.821	0	115.8	4	37.9	4	-1E+10	1	-1E+10	1	-1E+10	1	-1E+10	1	-1E+10	1	-1E+10	1
4902551	30	C	06/06/2021	13:56	-135.047	49.490	0	198.60	0	5.6030	0	33.8000	0	26.655	0	196.812	0	116.0	4	37.9	4	-1E+10	1	-1E+10	1	-1E+10	1	-1E+10	1	-1E+10	1	-1E+10	1
4902551	30	C	06/06/2021	13:56	-135.047	49.490	0	199.60	0	5.6040	0	33.7990	0	26.654	0	197.802	0	116.2	4	38.0	4	-1E+10	1	-1E+10	1	-1E+10	1	-1E+10	1	-1E+10	1	-1E+10	1
4902551	30	C	06/06/2021	13:56	-135.047	49.490	0	200.60	0	5.6010	0	33.7990	0	26.655	0	198.793	0	116.5	4	38.1	4	-1E+10	1	-1E+10	1	-1E+10	1	-1E+10	1	-1E+10	1	-1E+10	1
4902551	30	C	06/06/2021	13:56	-135.047	49.490	0	201.60	0	5.5950	0	33.7990	0	26.656	0	199.783	0	116.8	4	38.2	4	-1E+10	1	-1E+10	1	-1E+10	1	-1E+10	1	-1E+10	1	-1E+10	1
4902551	30	C	06/06/2021	13:56	-135.047	49.490	0	202.60	0	5.5790	0	33.7990	0	26.657	0	200.774	0	117.1	4	38.3	4	-1E+10	1	-1E+10	1	-1E+10	1	-1E+10	1	-1E+10	1	-1E+10	1
4902551	30	C	06/06/2021	13:56	-135.047	49.490	0	203.60	0	5.5660	0	33.7980	0	26.658	0	201.764	0	117.3	4	38.3	4	-1E+10	1	-1E+10	1	-1E+10	1	-1E+10	1	-1E+10	1	-1E+10	1
4902551	30	C	06/06/2021	13:56	-135.047	49.490	0	204.50	0	5.5430	0	33.7950	0	26.659	0	202.656	0	117.4	4	38.3	4	-1E+10	1	-1E+10	1	-1E+10	1	-1E+10	1	-1E+10	1	-1E+10	1
4902551	30	C	06/06/2021	13:56	-135.047	49.490	0	205.50	0	5.5160	0	33.7940	0	26.661	0	203.646	0	117.3	4	38.3	4	-1E+10	1	-1E+10	1	-1E+10	1	-1E+10	1	-1E+10	1	-1E+10	1
4902551	30	C	06/06/2021	13:56	-135.047	49.490	0	206.50	0	5.4950	0	33.7940	0	26.664	0	204.637	0	117.1	4	38.2	4	-1E+10	1	-1E+10	1	-1E+10	1	-1E+10	1	-1E+10	1	-1E+10	1
4902551	30	C	06/06/2021	13:56	-135.047	49.490	0	207.50	0	5.4820	0	33.7940	0	26.665	0	205.627	0	116.7	4	38.1	4	-1E+10	1	-1E+10	1	-1E+10	1	-1E+10	1	-1E+10	1	-1E+10	1
4902551	30	C	06/06/2021	13:56	-135.047	49.490	0	208.50	0	5.4770	0	33.7940	0	26.666	0	206.618	0	116.4	4	37.9	4	-1E+10	1	-1E+10	1	-1E+10	1	-1E+10	1	-1E+10	1	-1E+10	1
4902551	30	C	06/06/2021	13:56	-135.047	49.490	0	209.60	0	5.4680	0	33.7960	0	26.668	0	207.707	0	116.0	4	37.8	4	-1E+10	1	-1E+10	1	-1E+10	1	-1E+10	1	-1E+10	1	-1E+10	1
4902551	30	C	06/06/2021	13:56	-135.047	49.490	0	210.60	0	5.4630	0	33.7960	0	26.669	0	208.698	0	115.6	4	37.7	4	-1E+10	1	-1E+10	1	-1E+10	1	-1E+10	1	-1E+10	1	-1E+10	1
4902551	30	C	06/06/2021	13:56	-135.047	49.490	0	211.60	0	5.4600	0	33.7950	0	26.669	0	209.688	0	115.2	4	37.6	4	-1E+10	1	-1E+10	1	-1E+10	1	-1E+10	1	-1E+10	1	-1E+10	1
4902551	30	C	06/06/2021	13:56	-135.047	49.490	0	212.60	0	5.4500	0	33.7960	0	26.671	0	210.679	0	114.8	4	37.4	4	-1E+10	1	-1E+10	1	-1E+10	1	-1E+10	1	-1E+10	1	-1E+10	1
4902551	30	C	06/06/2021	13:56	-135.047	49.490	0	213.60	0	5.4390	0	33.7980	0	26.673	0	211.669	0	114.3	4	37.3	4	-1E+10	1	-1E+10	1	-1E+10	1	-1E+10	1	-1E+10	1	-1E+10	1
4902551	30	C	06/06/2021	13:56	-135.047	49.490	0	214.60	0	5.4230	0	33.7990	0	26.676	0	212.660	0	113.9	4	37.1	4	-1E+10	1	-1E+10	1	-1E+10	1	-1E+10	1	-1E+10	1	-1E+10	1
4902551	30	C	06/06/2021	13:56	-135.047	49.490	0	215.50	0	5.4000	0	33.8010	0	26.680	0	213.551	0	113.6	4	37.0	4	-1E+10	1	-1E+10	1	-1E+10	1	-1E+10	1	-1E+10	1	-1E+10	1
4902551	30	C	06/06/2021	13:56	-135.047	49.490	0	216.60	0	5.3900	0	33.8020	0	26.682	0	214.641	0	113.3	4	36.9	4	-1E+10	1	-1E+10	1	-1E+10	1	-1E+10	1	-1E+10	1	-1E+10	1
4902551	30	C	06/06/2021	13:56	-135.047	49.490	0	217.50	0	5.3850	0	33.8030	0	26.684	0	215.532	0	113.1	4	36.8	4	-1E+10	1	-1E+10	1	-1E+10	1	-1E+10	1	-1E+10	1	-1E+10	1
4902551	30	C	06/06/2021	13:56	-135.047	49.490	0	218.50	0	5.3830	0	33.8030	0	26.684	0	216.522	0	112.8	4	36.7	4	-1E+10	1	-1E+10	1	-1E+10	1	-1E+10	1	-1E+10	1	-1E+10	1
4902551	30	C	06/06/2021	13:56	-135.047	49.490	0	219.50	0	5.3740	0	33.8040	0	26.686	0	217.513	0	112.5	4	36.6	4	-1E+10	1	-1E+10	1	-1E+10	1	-1E+10	1	-1E+10	1	-1E+10	1
4902551	30	C	06/06/2021	13:56	-135.047	49.490	0	220.50	0	5.3700	0	33.8040	0	26.686	0	218.503	0	112.2	4	36.5	4	-1E+10	1	-1E+10	1	-1E+10	1	-1E+10	1	-1E+10	1	-1E+10	1
4902551	30	C	06/06/2021	13:56	-135.047	49.490	0	221.50	0	5.3660	0	33.8040	0	26.687	0	219.494	0	111.9	4	36.4	4	-1E+10	1	-1E+10	1	-1E+10	1	-1E+10	1	-1E+10	1	-1E+10	1
4902551	30	C	06/06/2021	13:56	-135.047	49.490	0	222.50	0	5.3600	0	33.8050	0	26.688	0	220.484	0	111.7	4	36.3	4	-1E+10	1	-1E+10	1	-1E+10	1	-1E+10	1	-1E+10	1	-1E+10	1
4902551	30	C	06/06/2021	13:56	-135.047	49.490	0	223.50	0	5.3540	0	33.8060	0	26.690	0	221.474	0	111.3	4	36.2	4	-1E+10	1	-1E+10	1	-1E+10	1	-1E+10	1	-1E+10	1	-1E+10	1
4902551	30	C	06/06/2021	13:56	-135.047	49.490	0	224.90	0	5.3440	0	33.8070	0	26.692	0	222.861	0	110.8	4	36.0	4	-1E+10	1	-1E+10	1	-1E+10	1	-1E+10	1	-1E+10	1	-1E+10	1
4902551	30	C	06/06/2021	13:56	-135.047	49.490	0	226.40	0	5.3390	0	33.8070	0	26.692	0	224.347	0	110.3	4	35.9	4	-1E+10	1	-1E+10	1	-1E+10	1	-1E+10	1	-1E+10	1	-1E+10	1
4902551	30	C	06/06/2021	13:56	-135.047	49.490	0	227.40	0	5.3380	0	33.8070	0	26.693	0	225.337	0	109.9	4	35.7	4	-1E+10	1	-1E+10	1	-1E+10	1	-1E+10	1	-1E+10	1	-1E+10	1
4902551	30	C	06/06/2021	13:56	-135.047	49.490	0	228.40	0	5.3380	0	33.8070	0	26.693	0	226.327	0	109.5	4	35.6	4	-1E+10	1	-1E+10	1	-1E+10	1	-1E+10	1	-1E+10	1	-1E+10	1
4902551	30	C	06/06/2021	13:56	-135.047	49.490	0	229.40	0	5.3310	0	33.8080	0	26.694	0	227.318	0	109.0	4	35.4	4	-1E+10	1	-1E+10	1	-1E+10	1	-1E+10	1	-1E+10	1	-1E+10	1
4902551	30	C	06/06/2021	13:56	-135.047	49.490	0	230.40	0	5.3260	0	33.8080	0	26.695	0	228.308	0	108.6	4	35.3	4	-1E+10	1	-1E+10	1	-1E+10	1	-1E+10	1	-1E+10	1	-1E+10	1
4902551	30	C	06/06/2021	13:56	-135.047	49.490	0	231.40	0	5.3240	0	33.8090	0	26.696	0	229.298	0	108.0	4	35.1	4	-1E+10	1	-1E+10	1	-1E+10	1	-1E+10	1	-1E+10	1	-1E+10	1
4902551	30	C	06/06/2021	13:56	-135.047	49.490	0	232.40	0	5.3200	0	33.8080	0	26.696	0	230.289	0	107.5	4	34.9	4	-1E+10	1	-1E+10	1	-1E+10	1	-1E+10	1	-1E+10	1	-1E+10	1
4902551	30	C	06/06/2021	13:56	-135.047	49.490	0	233.40	0	5.3010	0	33.8120	0	26.701	0	231.279	0	107.0	4	34.7	4	-1E+10	1	-1E+10	1	-1E+10	1	-1E+10	1	-1E+10	1	-1E+10	1
4902551	30	C	06/06/2021	13:56	-135.047	49.490	0	234.40	0	5.2980	0	33.8120	0	26.701	0	232.270	0	106.5	4	34.6	4	-1E+10	1	-1E+10	1	-1E+10	1	-1E+10	1	-1E+10	1	-1E+10	1
4902551	30	C	06/06/2021	13:56	-135.047	49.490	0	235.40	0	5.2970	0	33.8120	0	26.701	0	233.260	0	105.9	4	34.4	4	-1E+10	1	-1E+10	1	-1E+10	1	-1E+10	1	-1E+10	1	-1E+10	1
4902551	30	C	06/06/2021	13:56	-135.047	49.490	0	236.40	0	5.2960	0	33.8120	0	26.702	0	234.250	0	105.3	4	34.2	4	-1E+10	1	-1E+10	1	-1E+10	1	-1E+10	1	-1E+10	1	-1E+10	1
4902551	30	C	06/06/2021	13:56	-135.047	49.490	0	237.40	0	5.2950	0	33.8120	0	26.702	0	235.241	0	104.6	4	34.0	4	-1E+10	1	-1E+10	1	-1E+10	1	-1E+10	1	-1E+10	1	-1E+10	1
4902551	30	C	06/06/2021	13:56	-135.047	49.490	0	238.40	0	5.2930	0	33.8120	0	26.702	0	236.231	0	103.9	4	33.7	4	-1E+10	1	-1E+10	1	-1E+10	1	-1E+10	1	-1E+10	1	-1E+10	1
4902551	30	C	06/06/2021	13:56	-135.047	49.490	0	239.40	0	5.2880	0	33.8130	0	26.703	0	237.221	0	103.1	4	33.5	4	-1E+10	1	-1E+10	1	-1E+10	1	-1E+10	1	-1E+10	1	-1E+10	1
4902551	30	C	06/06/2021	13:56	-135.047	49.490	0	240.40	0	5.2920	0	33.8150	0	26.704	0	238.212	0	102.4	4	33.2	4	-1E+10	1	-1E+10	1	-1E+10	1	-1E+10	1	-1E+10	1	-1E+10	1
4902551	30	C	06/06/2021	13:56	-135.047	49.490	0	241.40	0	5.2870	0	33.8170	0	26.707	0	239.202	0	101.8	4	33.1	4	-1E+10	1	-1E+10	1	-1E+10	1	-1E+10	1	-1E+10	1	-1E+10	1
4902551	30	C	06/06/2021	13:56	-135.047	49.490	0	242.40	0	5.2800	0	33.8190	0	26.709	0	240.192	0	101.3	4	32.9	4	-1E+10	1	-1E+10	1	-1E+10	1	-1E+10	1	-1E+10	1	-1E+10	1
4902551	30	C	06/06/2021	13:56	-135.047	49.490	0	243.40	0	5.2740	0	33.8200	0	26.711	0	241.182	0	100.9	4	32.7	4	-1E+10	1	-1E+10	1	-1E+10	1	-1E+10	1	-1E+10	1	-1E+10	1
4902551	30	C	06/06/2021	13:56	-135.047	49.490	0	244.40	0	5.2600	0	33.8220	0	26.714	0	242.173	0	100.4	4	32.6	4	-1E+10	1	-1E+10	1	-1E+10	1	-1E+10	1	-1E+10	1	-1E+10	1
4902551	30	C	06/06/2021	13:56	-135.047	49.490	0	245.40	0	5.2560	0	33.8220	0	26.714	0	243.163	0	100.0	4	32.4	4	-1E+10	1	-1E+10	1	-1E+10	1	-1E+10	1	-1E+10	1	-1E+10	1
4902551	30	C	06/06/2021	13:56	-135.047	49.490	0	246.40	0	5.2530	0	33.8230	0	26.715	0	244.153	0	99.6	4	32.3	4	-1E+10	1	-1E+10	1	-1E+10	1	-1E+10	1	-1E+10	1	-1E+10	1
4902551	30	C	06/06/2021	13:56	-135.047	49.490	0	247.40	0	5.2470	0	33.8240	0	26.717	0	245.144	0	99.1	4	32.2	4	-1E+10	1	-1E+10	1	-1E+10	1	-1E+10	1	-1E+10	1	-1E+10	1
4902551	30	C	06/06/2021	13:56	-135.047	49.490	0	248.40	0	5.2460	0	33.8240	0	26.717	0	246.134	0	98.7	4	32.0	4	-1E+10	1	-1E+10	1	-1E+10	1	-1E+10	1	-1E+10	1	-1E+10	1
4902551	30	C	06/06/2021	13:56	-135.047	49.490	0	249.40	0	5.2450	0	33.8240	0	26.717	0	247.124	0	98.2	4	31.8	4	-1E+10	1	-1E+10	1	-1E+10	1	-1E+10	1	-1E+10	1	-1E+10	1
4902551	30	C	06/06/2021	13:56	-135.047	49.490	0	250.40	0	5.2390	0	33.8230	0	26.717	0	248.114	0	97.7	4	31.7	4	-1E+10	1	-1E+10	1	-1E+10	1	-1E+10	1	-1E+10	1	-1E+10	1
4902551	30	C	06/06/2021	13:56	-135.047	49.490	0	251.40	0	5.2070	0	33.8270	0	26.724	0	249.105	0	97.2	4	31.5	4	-1E+10	1	-1E+10	1	-1E+10	1	-1E+10	1	-1E+10	1	-1E+10	1
4902551	30	C	06/06/2021	13:56	-135.047	49.490	0	252.40	0	5.2030	0	33.8260	0	26.724	0	250.095	0	96.8	4	31.4	4	-1E+10	1	-1E+10	1	-1E+10	1	-1E+10	1	-1E+10	1	-1E+10	1
4902551	30	C	06/06/2021	13:56	-135.047	49.490	0	253.40	0	5.1810	0	33.8280	0	26.728	0	251.085	0	96.4	4	31.2	4	-1E+10	1	-1E+10	1	-1E+10	1	-1E+10	1	-1E+10	1	-1E+10	1
4902551	30	C	06/06/2021	13:56	-135.047	49.490	0	254.40	0	5.1810	0	33.8280	0	26.728	0	252.076	0	96.0	4	31.1	4	-1E+10	1	-1E+10	1	-1E+10	1	-1E+10	1	-1E+10	1	-1E+10	1
4902551	30	C	06/06/2021	13:56	-135.047	49.490	0	255.40	0	5.1320	0	33.8310	0	26.736	0	253.066	0	95.7	4	31.0	4	-1E+10	1	-1E+10	1	-1E+10	1	-1E+10	1	-1E+10	1	-1E+10	1
4902551	30	C	06/06/2021	13:56	-135.047	49.490	0	256.40	0	5.1280	0	33.8310	0	26.736	0	254.056	0	95.3	4	30.8	4	-1E+10	1	-1E+10	1	-1E+10	1	-1E+10	1	-1E+10	1	-1E+10	1
4902551	30	C	06/06/2021	13:56	-135.047	49.490	0	257.40	0	5.1170	0	33.8320	0	26.738	0	255.046	0	94.9	4	30.7	4	-1E+10	1	-1E+10	1	-1E+10	1	-1E+10	1	-1E+10	1	-1E+10	1
4902551	30	C	06/06/2021	13:56	-135.047	49.490	0	258.30	0	5.1160	0	33.8310	0	26.738	0	255.937	0	94.4	4	30.5	4	-1E+10	1	-1E+10	1	-1E+10	1	-1E+10	1	-1E+10	1	-1E+10	1
4902551	30	C	06/06/2021	13:56	-135.047	49.490	0	259.30	0	5.1090	0	33.8310	0	26.738	0	256.928	0	93.9	4	30.4	4	-1E+10	1	-1E+10	1	-1E+10	1	-1E+10	1	-1E+10	1	-1E+10	1
4902551	30	C	06/06/2021	13:56	-135.047	49.490	0	260.30	0	5.1030	0	33.8310	0	26.739	0	257.918	0	93.3	4	30.2	4	-1E+10	1	-1E+10	1	-1E+10	1	-1E+10	1	-1E+10	1	-1E+10	1
4902551	30	C	06/06/2021	13:56	-135.047	49.490	0	261.30	0	5.0890	0	33.8340	0	26.743	0	258.908	0	92.7	4	30.0	4	-1E+10	1	-1E+10	1	-1E+10	1	-1E+10	1	-1E+10	1	-1E+10	1
4902551	30	C	06/06/2021	13:56	-135.047	49.490	0	262.30	0	5.0760	0	33.8340	0	26.745	0	259.898	0	92.2	4	29.8	4	-1E+10	1	-1E+10	1	-1E+10	1	-1E+10	1	-1E+10	1	-1E+10	1
4902551	30	C	06/06/2021	13:56	-135.047	49.490	0	263.30	0	5.0620	0	33.8370	0	26.749	0	260.889	0	91.8	4	29.6	4	-1E+10	1	-1E+10	1	-1E+10	1	-1E+10	1	-1E+10	1	-1E+10	1
4902551	30	C	06/06/2021	13:56	-135.047	49.490	0	264.30	0	5.0590	0	33.8370	0	26.749	0	261.879	0	91.3	4	29.5	4	-1E+10	1	-1E+10	1	-1E+10	1	-1E+10	1	-1E+10	1	-1E+10	1
4902551	30	C	06/06/2021	13:56	-135.047	49.490	0	265.30	0	5.0550	0	33.8380	0	26.750	0	262.869	0	90.9	4	29.4	4	-1E+10	1	-1E+10	1	-1E+10	1	-1E+10	1	-1E+10	1	-1E+10	1
4902551	30	C	06/06/2021	13:56	-135.047	49.490	0	266.30	0	5.0520	0	33.8380	0	26.751	0	263.859	0	90.5	4	29.2	4	-1E+10	1	-1E+10	1	-1E+10	1	-1E+10	1	-1E+10	1	-1E+10	1
4902551	30	C	06/06/2021	13:56	-135.047	49.490	0	267.30	0	5.0450	0	33.8390	0	26.752	0	264.849	0	90.1	4	29.1	4	-1E+10	1	-1E+10	1	-1E+10	1	-1E+10	1	-1E+10	1	-1E+10	1
4902551	30	C	06/06/2021	13:56	-135.047	49.490	0	268.30	0	5.0420	0	33.8400	0	26.753	0	265.840	0	89.6	4	28.9	4	-1E+10	1	-1E+10	1	-1E+10	1	-1E+10	1	-1E+10	1	-1E+10	1
4902551	30	C	06/06/2021	13:56	-135.047	49.490	0	269.40	0	5.0380	0	33.8400	0	26.754	0	266.929	0	89.3	4	28.8	4	-1E+10	1	-1E+10	1	-1E+10	1	-1E+10	1	-1E+10	1	-1E+10	1
4902551	30	C	06/06/2021	13:56	-135.047	49.490	0	270.40	0	5.0270	0	33.8430	0	26.757	0	267.919	0	88.9	4	28.7	4	-1E+10	1	-1E+10	1	-1E+10	1	-1E+10	1	-1E+10	1	-1E+10	1
4902551	30	C	06/06/2021	13:56	-135.047	49.490	0	271.40	0	5.0180	0	33.8420	0	26.758	0	268.909	0	88.6	4	28.6	4	-1E+10	1	-1E+10	1	-1E+10	1	-1E+10	1	-1E+10	1	-1E+10	1
4902551	30	C	06/06/2021	13:56	-135.047	49.490	0	272.40	0	5.0090	0	33.8430	0	26.759	0	269.899	0	88.3	4	28.5	4	-1E+10	1	-1E+10	1	-1E+10	1	-1E+10	1	-1E+10	1	-1E+10	1
4902551	30	C	06/06/2021	13:56	-135.047	49.490	0	273.40	0	5.0070	0	33.8430	0	26.760	0	270.890	0	88.0	4	28.4	4	-1E+10	1	-1E+10	1	-1E+10	1	-1E+10	1	-1E+10	1	-1E+10	1
4902551	30	C	06/06/2021	13:56	-135.047	49.490	0	274.40	0	4.9960	0	33.8440	0	26.762	0	271.880	0	87.8	4	28.3	4	-1E+10	1	-1E+10	1	-1E+10	1	-1E+10	1	-1E+10	1	-1E+10	1
4902551	30	C	06/06/2021	13:56	-135.047	49.490	0	275.40	0	4.9890	0	33.8450	0	26.763	0	272.870	0	87.5	4	28.2	4	-1E+10	1	-1E+10	1	-1E+10	1	-1E+10	1	-1E+10	1	-1E+10	1
4902551	30	C	06/06/2021	13:56	-135.047	49.490	0	276.50	0	4.9810	0	33.8460	0	26.765	0	273.959	0	87.2	4	28.1	4	-1E+10	1	-1E+10	1	-1E+10	1	-1E+10	1	-1E+10	1	-1E+10	1
4902551	30	C	06/06/2021	13:56	-135.047	49.490	0	277.50	0	4.9750	0	33.8470	0	26.767	0	274.949	0	87.0	4	28.0	4	-1E+10	1	-1E+10	1	-1E+10	1	-1E+10	1	-1E+10	1	-1E+10	1
4902551	30	C	06/06/2021	13:56	-135.047	49.490	0	278.50	0	4.9720	0	33.8460	0	26.766	0	275.939	0	86.6	4	27.9	4	-1E+10	1	-1E+10	1	-1E+10	1	-1E+10	1	-1E+10	1	-1E+10	1
4902551	30	C	06/06/2021	13:56	-135.047	49.490	0	279.50	0	4.9680	0	33.8470	0	26.767	0	276.929	0	86.3	4	27.8	4	-1E+10	1	-1E+10	1	-1E+10	1	-1E+10	1	-1E+10	1	-1E+10	1
4902551	30	C	06/06/2021	13:56	-135.047	49.490	0	280.60	0	4.9640	0	33.8460	0	26.767	0	278.019	0	86.0	4	27.7	4	-1E+10	1	-1E+10	1	-1E+10	1	-1E+10	1	-1E+10	1	-1E+10	1
4902551	30	C	06/06/2021	13:56	-135.047	49.490	0	281.60	0	4.9330	0	33.8500	0	26.774	0	279.009	0	85.7	4	27.6	4	-1E+10	1	-1E+10	1	-1E+10	1	-1E+10	1	-1E+10	1	-1E+10	1
4902551	30	C	06/06/2021	13:56	-135.047	49.490	0	282.70	0	4.9270	0	33.8510	0	26.775	0	280.098	0	85.4	4	27.5	4	-1E+10	1	-1E+10	1	-1E+10	1	-1E+10	1	-1E+10	1	-1E+10	1
4902551	30	C	06/06/2021	13:56	-135.047	49.490	0	283.70	0	4.9240	0	33.8510	0	26.776	0	281.088	0	84.9	4	27.4	4	-1E+10	1	-1E+10	1	-1E+10	1	-1E+10	1	-1E+10	1	-1E+10	1
4902551	30	C	06/06/2021	13:56	-135.047	49.490	0	284.80	0	4.9200	0	33.8510	0	26.776	0	282.177	0	84.5	4	27.2	4	-1E+10	1	-1E+10	1	-1E+10	1	-1E+10	1	-1E+10	1	-1E+10	1
4902551	30	C	06/06/2021	13:56	-135.047	49.490	0	285.80	0	4.9030	0	33.8530	0	26.779	0	283.167	0	84.1	4	27.1	4	-1E+10	1	-1E+10	1	-1E+10	1	-1E+10	1	-1E+10	1	-1E+10	1
4902551	30	C	06/06/2021	13:56	-135.047	49.490	0	286.90	0	4.8940	0	33.8540	0	26.781	0	284.256	0	83.6	4	26.9	4	-1E+10	1	-1E+10	1	-1E+10	1	-1E+10	1	-1E+10	1	-1E+10	1
4902551	30	C	06/06/2021	13:56	-135.047	49.490	0	288.00	0	4.8840	0	33.8550	0	26.783	0	285.345	0	83.2	4	26.8	4	-1E+10	1	-1E+10	1	-1E+10	1	-1E+10	1	-1E+10	1	-1E+10	1
4902551	30	C	06/06/2021	13:56	-135.047	49.490	0	289.00	0	4.8770	0	33.8550	0	26.784	0	286.335	0	82.7	4	26.6	4	-1E+10	1	-1E+10	1	-1E+10	1	-1E+10	1	-1E+10	1	-1E+10	1
4902551	30	C	06/06/2021	13:56	-135.047	49.490	0	290.10	0	4.8710	0	33.8560	0	26.785	0	287.425	0	82.2	4	26.4	4	-1E+10	1	-1E+10	1	-1E+10	1	-1E+10	1	-1E+10	1	-1E+10	1
4902551	30	C	06/06/2021	13:56	-135.047	49.490	0	291.20	0	4.8530	0	33.8590	0	26.790	0	288.514	0	81.7	4	26.3	4	-1E+10	1	-1E+10	1	-1E+10	1	-1E+10	1	-1E+10	1	-1E+10	1
4902551	30	C	06/06/2021	13:56	-135.047	49.490	0	292.20	0	4.8430	0	33.8600	0	26.792	0	289.504	0	81.4	4	26.2	4	-1E+10	1	-1E+10	1	-1E+10	1	-1E+10	1	-1E+10	1	-1E+10	1
4902551	30	C	06/06/2021	13:56	-135.047	49.490	0	293.30	0	4.8270	0	33.8640	0	26.797	0	290.593	0	81.0	4	26.0	4	-1E+10	1	-1E+10	1	-1E+10	1	-1E+10	1	-1E+10	1	-1E+10	1
4902551	30	C	06/06/2021	13:56	-135.047	49.490	0	294.30	0	4.8230	0	33.8630	0	26.796	0	291.583	0	80.8	4	26.0	4	-1E+10	1	-1E+10	1	-1E+10	1	-1E+10	1	-1E+10	1	-1E+10	1
4902551	30	C	06/06/2021	13:56	-135.047	49.490	0	295.90	0	4.8160	0	33.8640	0	26.798	0	293.167	0	80.3	4	25.8	4	-1E+10	1	-1E+10	1	-1E+10	1	-1E+10	1	-1E+10	1	-1E+10	1
4902551	30	C	06/06/2021	13:56	-135.047	49.490	0	297.10	0	4.8130	0	33.8650	0	26.799	0	294.355	0	79.9	4	25.7	4	-1E+10	1	-1E+10	1	-1E+10	1	-1E+10	1	-1E+10	1	-1E+10	1
4902551	30	C	06/06/2021	13:56	-135.047	49.490	0	297.90	0	4.8100	0	33.8650	0	26.799	0	295.147	0	79.6	4	25.6	4	-1E+10	1	-1E+10	1	-1E+10	1	-1E+10	1	-1E+10	1	-1E+10	1
4902551	30	C	06/06/2021	13:56	-135.047	49.490	0	298.70	0	4.8070	0	33.8650	0	26.800	0	295.939	0	79.3	4	25.5	4	-1E+10	1	-1E+10	1	-1E+10	1	-1E+10	1	-1E+10	1	-1E+10	1
4902551	30	C	06/06/2021	13:56	-135.047	49.490	0	300.00	0	4.7960	0	33.8670	0	26.803	0	297.226	0	79.1	4	25.4	4	-1E+10	1	-1E+10	1	-1E+10	1	-1E+10	1	-1E+10	1	-1E+10	1
4902551	30	C	06/06/2021	13:56	-135.047	49.490	0	301.20	0	4.7930	0	33.8670	0	26.803	0	298.414	0	78.8	4	25.3	4	-1E+10	1	-1E+10	1	-1E+10	1	-1E+10	1	-1E+10	1	-1E+10	1
4902551	30	C	06/06/2021	13:56	-135.047	49.490	0	302.00	0	4.7900	0	33.8680	0	26.804	0	299.206	0	78.6	4	25.2	4	-1E+10	1	-1E+10	1	-1E+10	1	-1E+10	1	-1E+10	1	-1E+10	1
4902551	30	C	06/06/2021	13:56	-135.047	49.490	0	302.80	0	4.7850	0	33.8710	0	26.807	0	299.998	0	78.2	4	25.1	4	-1E+10	1	-1E+10	1	-1E+10	1	-1E+10	1	-1E+10	1	-1E+10	1
4902551	30	C	06/06/2021	13:56	-135.047	49.490	0	303.70	0	4.7830	0	33.8700	0	26.806	0	300.889	0	78.0	4	25.0	4	-1E+10	1	-1E+10	1	-1E+10	1	-1E+10	1	-1E+10	1	-1E+10	1
4902551	30	C	06/06/2021	13:56	-135.047	49.490	0	304.90	0	4.7720	0	33.8720	0	26.809	0	302.077	0	77.5	4	24.9	4	-1E+10	1	-1E+10	1	-1E+10	1	-1E+10	1	-1E+10	1	-1E+10	1
4902551	30	C	06/06/2021	13:56	-135.047	49.490	0	306.20	0	4.7660	0	33.8740	0	26.812	0	303.364	0	77.2	4	24.8	4	-1E+10	1	-1E+10	1	-1E+10	1	-1E+10	1	-1E+10	1	-1E+10	1
4902551	30	C	06/06/2021	13:56	-135.047	49.490	0	307.00	0	4.7650	0	33.8740	0	26.812	0	304.156	0	76.9	4	24.7	4	-1E+10	1	-1E+10	1	-1E+10	1	-1E+10	1	-1E+10	1	-1E+10	1
4902551	30	C	06/06/2021	13:56	-135.047	49.490	0	307.80	0	4.7650	0	33.8750	0	26.812	0	304.948	0	76.6	4	24.6	4	-1E+10	1	-1E+10	1	-1E+10	1	-1E+10	1	-1E+10	1	-1E+10	1
4902551	30	C	06/06/2021	13:56	-135.047	49.490	0	309.00	0	4.7620	0	33.8760	0	26.814	0	306.136	0	76.0	4	24.4	4	-1E+10	1	-1E+10	1	-1E+10	1	-1E+10	1	-1E+10	1	-1E+10	1
4902551	30	C	06/06/2021	13:56	-135.047	49.490	0	310.30	0	4.7550	0	33.8770	0	26.815	0	307.423	0	75.3	4	24.2	4	-1E+10	1	-1E+10	1	-1E+10	1	-1E+10	1	-1E+10	1	-1E+10	1
4902551	30	C	06/06/2021	13:56	-135.047	49.490	0	311.10	0	4.7500	0	33.8780	0	26.817	0	308.215	0	75.0	4	24.0	4	-1E+10	1	-1E+10	1	-1E+10	1	-1E+10	1	-1E+10	1	-1E+10	1
4902551	30	C	06/06/2021	13:56	-135.047	49.490	0	311.90	0	4.7470	0	33.8780	0	26.817	0	309.007	0	74.6	4	23.9	4	-1E+10	1	-1E+10	1	-1E+10	1	-1E+10	1	-1E+10	1	-1E+10	1
4902551	30	C	06/06/2021	13:56	-135.047	49.490	0	312.80	0	4.7440	0	33.8790	0	26.818	0	309.898	0	74.3	4	23.8	4	-1E+10	1	-1E+10	1	-1E+10	1	-1E+10	1	-1E+10	1	-1E+10	1
4902551	30	C	06/06/2021	13:56	-135.047	49.490	0	313.60	0	4.7420	0	33.8800	0	26.819	0	310.690	0	73.9	4	23.7	4	-1E+10	1	-1E+10	1	-1E+10	1	-1E+10	1	-1E+10	1	-1E+10	1
4902551	30	C	06/06/2021	13:56	-135.047	49.490	0	314.90	0	4.7240	0	33.8830	0	26.823	0	311.977	0	73.6	4	23.6	4	-1E+10	1	-1E+10	1	-1E+10	1	-1E+10	1	-1E+10	1	-1E+10	1
4902551	30	C	06/06/2021	13:56	-135.047	49.490	0	316.10	0	4.7170	0	33.8840	0	26.825	0	313.165	0	73.1	4	23.4	4	-1E+10	1	-1E+10	1	-1E+10	1	-1E+10	1	-1E+10	1	-1E+10	1
4902551	30	C	06/06/2021	13:56	-135.047	49.490	0	317.00	0	4.7140	0	33.8850	0	26.826	0	314.056	0	72.9	4	23.3	4	-1E+10	1	-1E+10	1	-1E+10	1	-1E+10	1	-1E+10	1	-1E+10	1
4902551	30	C	06/06/2021	13:56	-135.047	49.490	0	317.80	0	4.7090	0	33.8850	0	26.827	0	314.848	0	72.6	4	23.3	4	-1E+10	1	-1E+10	1	-1E+10	1	-1E+10	1	-1E+10	1	-1E+10	1
4902551	30	C	06/06/2021	13:56	-135.047	49.490	0	318.70	0	4.7070	0	33.8860	0	26.828	0	315.739	0	72.3	4	23.2	4	-1E+10	1	-1E+10	1	-1E+10	1	-1E+10	1	-1E+10	1	-1E+10	1
4902551	30	C	06/06/2021	13:56	-135.047	49.490	0	319.90	0	4.7060	0	33.8860	0	26.828	0	316.927	0	71.7	4	23.0	4	-1E+10	1	-1E+10	1	-1E+10	1	-1E+10	1	-1E+10	1	-1E+10	1
4902551	30	C	06/06/2021	13:56	-135.047	49.490	0	321.20	0	4.7060	0	33.8860	0	26.828	0	318.214	0	71.2	4	22.8	4	-1E+10	1	-1E+10	1	-1E+10	1	-1E+10	1	-1E+10	1	-1E+10	1
4902551	30	C	06/06/2021	13:56	-135.047	49.490	0	322.10	0	4.7060	0	33.8860	0	26.828	0	319.105	0	70.7	4	22.6	4	-1E+10	1	-1E+10	1	-1E+10	1	-1E+10	1	-1E+10	1	-1E+10	1
4902551	30	C	06/06/2021	13:56	-135.047	49.490	0	322.90	0	4.7040	0	33.8860	0	26.828	0	319.897	0	70.2	4	22.5	4	-1E+10	1	-1E+10	1	-1E+10	1	-1E+10	1	-1E+10	1	-1E+10	1
4902551	30	C	06/06/2021	13:56	-135.047	49.490	0	323.80	0	4.6900	0	33.8890	0	26.832	0	320.788	0	69.8	4	22.4	4	-1E+10	1	-1E+10	1	-1E+10	1	-1E+10	1	-1E+10	1	-1E+10	1
4902551	30	C	06/06/2021	13:56	-135.047	49.490	0	324.60	0	4.6860	0	33.8890	0	26.832	0	321.580	0	69.5	4	22.3	4	-1E+10	1	-1E+10	1	-1E+10	1	-1E+10	1	-1E+10	1	-1E+10	1
4902551	30	C	06/06/2021	13:56	-135.047	49.490	0	325.90	0	4.6850	0	33.8900	0	26.833	0	322.867	0	69.0	4	22.1	4	-1E+10	1	-1E+10	1	-1E+10	1	-1E+10	1	-1E+10	1	-1E+10	1
4902551	30	C	06/06/2021	13:56	-135.047	49.490	0	327.20	0	4.6870	0	33.8940	0	26.836	0	324.153	0	68.6	4	22.0	4	-1E+10	1	-1E+10	1	-1E+10	1	-1E+10	1	-1E+10	1	-1E+10	1
4902551	30	C	06/06/2021	13:56	-135.047	49.490	0	328.00	0	4.6770	0	33.8930	0	26.837	0	324.945	0	68.4	4	21.9	4	-1E+10	1	-1E+10	1	-1E+10	1	-1E+10	1	-1E+10	1	-1E+10	1
4902551	30	C	06/06/2021	13:56	-135.047	49.490	0	328.90	0	4.6710	0	33.8950	0	26.839	0	325.836	0	68.2	4	21.8	4	-1E+10	1	-1E+10	1	-1E+10	1	-1E+10	1	-1E+10	1	-1E+10	1
4902551	30	C	06/06/2021	13:56	-135.047	49.490	0	329.70	0	4.6610	0	33.8960	0	26.841	0	326.628	0	68.0	4	21.8	4	-1E+10	1	-1E+10	1	-1E+10	1	-1E+10	1	-1E+10	1	-1E+10	1
4902551	30	C	06/06/2021	13:56	-135.047	49.490	0	331.00	0	4.6550	0	33.8970	0	26.842	0	327.915	0	67.7	4	21.7	4	-1E+10	1	-1E+10	1	-1E+10	1	-1E+10	1	-1E+10	1	-1E+10	1
4902551	30	C	06/06/2021	13:56	-135.047	49.490	0	332.20	0	4.6480	0	33.8980	0	26.844	0	329.103	0	67.4	4	21.6	4	-1E+10	1	-1E+10	1	-1E+10	1	-1E+10	1	-1E+10	1	-1E+10	1
4902551	30	C	06/06/2021	13:56	-135.047	49.490	0	333.10	0	4.6470	0	33.8990	0	26.845	0	329.994	0	67.2	4	21.5	4	-1E+10	1	-1E+10	1	-1E+10	1	-1E+10	1	-1E+10	1	-1E+10	1
4902551	30	C	06/06/2021	13:56	-135.047	49.490	0	333.90	0	4.6470	0	33.9000	0	26.845	0	330.786	0	67.0	4	21.4	4	-1E+10	1	-1E+10	1	-1E+10	1	-1E+10	1	-1E+10	1	-1E+10	1
4902551	30	C	06/06/2021	13:56	-135.047	49.490	0	334.70	0	4.6480	0	33.9000	0	26.845	0	331.578	0	66.7	4	21.4	4	-1E+10	1	-1E+10	1	-1E+10	1	-1E+10	1	-1E+10	1	-1E+10	1
4902551	30	C	06/06/2021	13:56	-135.047	49.490	0	336.00	0	4.6490	0	33.9010	0	26.846	0	332.864	0	66.3	4	21.2	4	-1E+10	1	-1E+10	1	-1E+10	1	-1E+10	1	-1E+10	1	-1E+10	1
4902551	30	C	06/06/2021	13:56	-135.047	49.490	0	337.30	0	4.6490	0	33.9020	0	26.847	0	334.151	0	65.8	4	21.1	4	-1E+10	1	-1E+10	1	-1E+10	1	-1E+10	1	-1E+10	1	-1E+10	1
4902551	30	C	06/06/2021	13:56	-135.047	49.490	0	338.10	0	4.6460	0	33.9050	0	26.850	0	334.943	0	65.5	4	21.0	4	-1E+10	1	-1E+10	1	-1E+10	1	-1E+10	1	-1E+10	1	-1E+10	1
4902551	30	C	06/06/2021	13:56	-135.047	49.490	0	339.00	0	4.6320	0	33.9080	0	26.854	0	335.834	0	65.2	4	20.9	4	-1E+10	1	-1E+10	1	-1E+10	1	-1E+10	1	-1E+10	1	-1E+10	1
4902551	30	C	06/06/2021	13:56	-135.047	49.490	0	339.80	0	4.6290	0	33.9070	0	26.853	0	336.626	0	65.0	4	20.8	4	-1E+10	1	-1E+10	1	-1E+10	1	-1E+10	1	-1E+10	1	-1E+10	1
4902551	30	C	06/06/2021	13:56	-135.047	49.490	0	340.70	0	4.6270	0	33.9070	0	26.853	0	337.517	0	64.7	4	20.7	4	-1E+10	1	-1E+10	1	-1E+10	1	-1E+10	1	-1E+10	1	-1E+10	1
4902551	30	C	06/06/2021	13:56	-135.047	49.490	0	341.90	0	4.6220	0	33.9080	0	26.855	0	338.705	0	64.3	4	20.6	4	-1E+10	1	-1E+10	1	-1E+10	1	-1E+10	1	-1E+10	1	-1E+10	1
4902551	30	C	06/06/2021	13:56	-135.047	49.490	0	343.20	0	4.6190	0	33.9080	0	26.855	0	339.991	0	63.9	4	20.4	4	-1E+10	1	-1E+10	1	-1E+10	1	-1E+10	1	-1E+10	1	-1E+10	1
4902551	30	C	06/06/2021	13:56	-135.047	49.490	0	344.10	0	4.6170	0	33.9090	0	26.856	0	340.882	0	63.6	4	20.3	4	-1E+10	1	-1E+10	1	-1E+10	1	-1E+10	1	-1E+10	1	-1E+10	1
4902551	30	C	06/06/2021	13:56	-135.047	49.490	0	344.90	0	4.6150	0	33.9100	0	26.857	0	341.674	0	63.3	4	20.2	4	-1E+10	1	-1E+10	1	-1E+10	1	-1E+10	1	-1E+10	1	-1E+10	1
4902551	30	C	06/06/2021	13:56	-135.047	49.490	0	345.70	0	4.6150	0	33.9110	0	26.858	0	342.466	0	63.0	4	20.1	4	-1E+10	1	-1E+10	1	-1E+10	1	-1E+10	1	-1E+10	1	-1E+10	1
4902551	30	C	06/06/2021	13:56	-135.047	49.490	0	347.00	0	4.6100	0	33.9120	0	26.859	0	343.753	0	62.6	4	20.0	4	-1E+10	1	-1E+10	1	-1E+10	1	-1E+10	1	-1E+10	1	-1E+10	1
4902551	30	C	06/06/2021	13:56	-135.047	49.490	0	348.20	0	4.6060	0	33.9140	0	26.861	0	344.940	0	62.1	4	19.9	4	-1E+10	1	-1E+10	1	-1E+10	1	-1E+10	1	-1E+10	1	-1E+10	1
4902551	30	C	06/06/2021	13:56	-135.047	49.490	0	349.10	0	4.6040	0	33.9150	0	26.862	0	345.831	0	61.8	4	19.8	4	-1E+10	1	-1E+10	1	-1E+10	1	-1E+10	1	-1E+10	1	-1E+10	1
4902551	30	C	06/06/2021	13:56	-135.047	49.490	0	349.90	0	4.5900	0	33.9180	0	26.866	0	346.623	0	61.6	4	19.7	4	-1E+10	1	-1E+10	1	-1E+10	1	-1E+10	1	-1E+10	1	-1E+10	1
4902551	30	C	06/06/2021	13:56	-135.047	49.490	0	352.80	0	4.5680	0	33.9210	0	26.871	0	349.493	0	60.9	4	19.4	4	-1E+10	1	-1E+10	1	-1E+10	1	-1E+10	1	-1E+10	1	-1E+10	1
4902551	30	C	06/06/2021	13:56	-135.047	49.490	0	357.70	0	4.5530	0	33.9270	0	26.877	0	354.343	0	59.4	4	19.0	4	-1E+10	1	-1E+10	1	-1E+10	1	-1E+10	1	-1E+10	1	-1E+10	1
4902551	30	C	06/06/2021	13:56	-135.047	49.490	0	362.70	0	4.5310	0	33.9360	0	26.887	0	359.292	0	57.9	4	18.5	4	-1E+10	1	-1E+10	1	-1E+10	1	-1E+10	1	-1E+10	1	-1E+10	1
4902551	30	C	06/06/2021	13:56	-135.047	49.490	0	367.60	0	4.5100	0	33.9440	0	26.896	0	364.142	0	56.9	4	18.2	4	-1E+10	1	-1E+10	1	-1E+10	1	-1E+10	1	-1E+10	1	-1E+10	1
4902551	30	C	06/06/2021	13:56	-135.047	49.490	0	372.70	0	4.4940	0	33.9470	0	26.900	0	369.189	0	56.4	4	18.0	4	-1E+10	1	-1E+10	1	-1E+10	1	-1E+10	1	-1E+10	1	-1E+10	1
4902551	30	C	06/06/2021	13:56	-135.047	49.490	0	377.70	0	4.4720	0	33.9530	0	26.907	0	374.138	0	55.3	4	17.6	4	-1E+10	1	-1E+10	1	-1E+10	1	-1E+10	1	-1E+10	1	-1E+10	1
4902551	30	C	06/06/2021	13:56	-135.047	49.490	0	382.80	0	4.4630	0	33.9570	0	26.911	0	379.185	0	54.1	4	17.2	4	-1E+10	1	-1E+10	1	-1E+10	1	-1E+10	1	-1E+10	1	-1E+10	1
4902551	30	C	06/06/2021	13:56	-135.047	49.490	0	388.00	0	4.4460	0	33.9630	0	26.918	0	384.331	0	52.9	4	16.9	4	-1E+10	1	-1E+10	1	-1E+10	1	-1E+10	1	-1E+10	1	-1E+10	1
4902551	30	C	06/06/2021	13:56	-135.047	49.490	0	392.80	0	4.4250	0	33.9700	0	26.926	0	389.081	0	51.7	4	16.5	4	-1E+10	1	-1E+10	1	-1E+10	1	-1E+10	1	-1E+10	1	-1E+10	1
4902551	30	C	06/06/2021	13:56	-135.047	49.490	0	397.80	0	4.4020	0	33.9770	0	26.934	0	394.029	0	50.1	4	16.0	4	-1E+10	1	-1E+10	1	-1E+10	1	-1E+10	1	-1E+10	1	-1E+10	1
4902551	30	C	06/06/2021	13:56	-135.047	49.490	0	403.10	0	4.3880	0	33.9840	0	26.941	0	399.274	0	48.7	4	15.5	4	-1E+10	1	-1E+10	1	-1E+10	1	-1E+10	1	-1E+10	1	-1E+10	1
4902551	30	C	06/06/2021	13:56	-135.047	49.490	0	408.00	0	4.3740	0	33.9880	0	26.945	0	404.122	0	47.7	4	15.2	4	-1E+10	1	-1E+10	1	-1E+10	1	-1E+10	1	-1E+10	1	-1E+10	1
4902551	30	C	06/06/2021	13:56	-135.047	49.490	0	412.90	0	4.3700	0	33.9910	0	26.948	0	408.971	0	47.0	4	14.9	4	-1E+10	1	-1E+10	1	-1E+10	1	-1E+10	1	-1E+10	1	-1E+10	1
4902551	30	C	06/06/2021	13:56	-135.047	49.490	0	418.00	0	4.3630	0	33.9930	0	26.951	0	414.017	0	46.0	4	14.6	4	-1E+10	1	-1E+10	1	-1E+10	1	-1E+10	1	-1E+10	1	-1E+10	1
4902551	30	C	06/06/2021	13:56	-135.047	49.490	0	423.20	0	4.3420	0	34.0000	0	26.958	0	419.163	0	44.9	4	14.3	4	-1E+10	1	-1E+10	1	-1E+10	1	-1E+10	1	-1E+10	1	-1E+10	1
4902551	30	C	06/06/2021	13:56	-135.047	49.490	0	428.00	0	4.3260	0	34.0050	0	26.964	0	423.912	0	44.1	4	14.0	4	-1E+10	1	-1E+10	1	-1E+10	1	-1E+10	1	-1E+10	1	-1E+10	1
4902551	30	C	06/06/2021	13:56	-135.047	49.490	0	433.00	0	4.3120	0	34.0110	0	26.970	0	428.859	0	43.4	4	13.8	4	-1E+10	1	-1E+10	1	-1E+10	1	-1E+10	1	-1E+10	1	-1E+10	1
4902551	30	C	06/06/2021	13:56	-135.047	49.490	0	438.00	0	4.3060	0	34.0140	0	26.973	0	433.806	0	42.9	4	13.6	4	-1E+10	1	-1E+10	1	-1E+10	1	-1E+10	1	-1E+10	1	-1E+10	1
4902551	30	C	06/06/2021	13:56	-135.047	49.490	0	442.80	0	4.3020	0	34.0160	0	26.975	0	438.555	0	42.3	4	13.4	4	-1E+10	1	-1E+10	1	-1E+10	1	-1E+10	1	-1E+10	1	-1E+10	1
4902551	30	C	06/06/2021	13:56	-135.047	49.490	0	447.70	0	4.2910	0	34.0200	0	26.980	0	443.403	0	41.7	4	13.2	4	-1E+10	1	-1E+10	1	-1E+10	1	-1E+10	1	-1E+10	1	-1E+10	1
4902551	30	C	06/06/2021	13:56	-135.047	49.490	0	452.70	0	4.2820	0	34.0240	0	26.984	0	448.349	0	41.0	4	13.0	4	-1E+10	1	-1E+10	1	-1E+10	1	-1E+10	1	-1E+10	1	-1E+10	1
4902551	30	C	06/06/2021	13:56	-135.047	49.490	0	457.70	0	4.2770	0	34.0260	0	26.986	0	453.296	0	40.2	4	12.8	4	-1E+10	1	-1E+10	1	-1E+10	1	-1E+10	1	-1E+10	1	-1E+10	1
4902551	30	C	06/06/2021	13:56	-135.047	49.490	0	462.80	0	4.2700	0	34.0300	0	26.990	0	458.341	0	39.0	4	12.4	4	-1E+10	1	-1E+10	1	-1E+10	1	-1E+10	1	-1E+10	1	-1E+10	1
4902551	30	C	06/06/2021	13:56	-135.047	49.490	0	468.10	0	4.2610	0	34.0360	0	26.996	0	463.584	0	38.4	4	12.2	4	-1E+10	1	-1E+10	1	-1E+10	1	-1E+10	1	-1E+10	1	-1E+10	1
4902551	30	C	06/06/2021	13:56	-135.047	49.490	0	473.00	0	4.2510	0	34.0400	0	27.000	0	468.431	0	38.0	4	12.1	4	-1E+10	1	-1E+10	1	-1E+10	1	-1E+10	1	-1E+10	1	-1E+10	1
4902551	30	C	06/06/2021	13:56	-135.047	49.490	0	477.90	0	4.2460	0	34.0420	0	27.002	0	473.278	0	37.7	4	12.0	4	-1E+10	1	-1E+10	1	-1E+10	1	-1E+10	1	-1E+10	1	-1E+10	1
4902551	30	C	06/06/2021	13:56	-135.047	49.490	0	483.00	0	4.2400	0	34.0430	0	27.004	0	478.323	0	37.2	4	11.8	4	-1E+10	1	-1E+10	1	-1E+10	1	-1E+10	1	-1E+10	1	-1E+10	1
4902551	30	C	06/06/2021	13:56	-135.047	49.490	0	488.10	0	4.2310	0	34.0460	0	27.007	0	483.368	0	36.5	4	11.6	4	-1E+10	1	-1E+10	1	-1E+10	1	-1E+10	1	-1E+10	1	-1E+10	1
4902551	30	C	06/06/2021	13:56	-135.047	49.490	0	493.10	0	4.2190	0	34.0500	0	27.012	0	488.314	0	35.9	4	11.4	4	-1E+10	1	-1E+10	1	-1E+10	1	-1E+10	1	-1E+10	1	-1E+10	1
4902551	30	C	06/06/2021	13:56	-135.047	49.490	0	497.70	0	4.2050	0	34.0550	0	27.017	0	492.863	0	35.3	4	11.2	4	-1E+10	1	-1E+10	1	-1E+10	1	-1E+10	1	-1E+10	1	-1E+10	1
4902551	30	C	06/06/2021	13:56	-135.047	49.490	0	502.90	0	4.1920	0	34.0600	0	27.022	0	498.007	0	34.8	4	11.0	4	-1E+10	1	-1E+10	1	-1E+10	1	-1E+10	1	-1E+10	1	-1E+10	1
4902551	30	C	06/06/2021	13:56	-135.047	49.490	0	507.90	0	4.1850	0	34.0620	0	27.025	0	502.952	0	34.3	4	10.9	4	-1E+10	1	-1E+10	1	-1E+10	1	-1E+10	1	-1E+10	1	-1E+10	1
4902551	30	C	06/06/2021	13:56	-135.047	49.490	0	513.00	0	4.1710	0	34.0660	0	27.029	0	507.996	0	33.6	4	10.6	4	-1E+10	1	-1E+10	1	-1E+10	1	-1E+10	1	-1E+10	1	-1E+10	1
4902551	30	C	06/06/2021	13:56	-135.047	49.490	0	518.10	0	4.1560	0	34.0710	0	27.035	0	513.040	0	32.9	4	10.4	4	-1E+10	1	-1E+10	1	-1E+10	1	-1E+10	1	-1E+10	1	-1E+10	1
4902551	30	C	06/06/2021	13:56	-135.047	49.490	0	522.80	0	4.1370	0	34.0760	0	27.041	0	517.688	0	32.1	4	10.2	4	-1E+10	1	-1E+10	1	-1E+10	1	-1E+10	1	-1E+10	1	-1E+10	1
4902551	30	C	06/06/2021	13:56	-135.047	49.490	0	528.00	0	4.1200	0	34.0820	0	27.048	0	522.831	0	31.3	4	9.9	4	-1E+10	1	-1E+10	1	-1E+10	1	-1E+10	1	-1E+10	1	-1E+10	1
4902551	30	C	06/06/2021	13:56	-135.047	49.490	0	533.20	0	4.1130	0	34.0870	0	27.052	0	527.973	0	30.6	4	9.7	4	-1E+10	1	-1E+10	1	-1E+10	1	-1E+10	1	-1E+10	1	-1E+10	1
4902551	30	C	06/06/2021	13:56	-135.047	49.490	0	538.00	0	4.1010	0	34.0910	0	27.057	0	532.720	0	30.0	4	9.5	4	-1E+10	1	-1E+10	1	-1E+10	1	-1E+10	1	-1E+10	1	-1E+10	1
4902551	30	C	06/06/2021	13:56	-135.047	49.490	0	542.70	0	4.0860	0	34.0950	0	27.062	0	537.368	0	29.3	4	9.3	4	-1E+10	1	-1E+10	1	-1E+10	1	-1E+10	1	-1E+10	1	-1E+10	1
4902551	30	C	06/06/2021	13:56	-135.047	49.490	0	547.80	0	4.0680	0	34.1020	0	27.069	0	542.411	0	28.7	4	9.1	4	-1E+10	1	-1E+10	1	-1E+10	1	-1E+10	1	-1E+10	1	-1E+10	1
4902551	30	C	06/06/2021	13:56	-135.047	49.490	0	553.00	0	4.0510	0	34.1080	0	27.076	0	547.553	0	28.2	4	8.9	4	-1E+10	1	-1E+10	1	-1E+10	1	-1E+10	1	-1E+10	1	-1E+10	1
4902551	30	C	06/06/2021	13:56	-135.047	49.490	0	557.80	0	4.0380	0	34.1110	0	27.079	0	552.300	0	27.7	4	8.8	4	-1E+10	1	-1E+10	1	-1E+10	1	-1E+10	1	-1E+10	1	-1E+10	1
4902551	30	C	06/06/2021	13:56	-135.047	49.490	0	562.60	0	4.0310	0	34.1140	0	27.082	0	557.046	0	27.3	4	8.6	4	-1E+10	1	-1E+10	1	-1E+10	1	-1E+10	1	-1E+10	1	-1E+10	1
4902551	30	C	06/06/2021	13:56	-135.047	49.490	0	567.80	0	4.0150	0	34.1180	0	27.087	0	562.187	0	26.6	4	8.4	4	-1E+10	1	-1E+10	1	-1E+10	1	-1E+10	1	-1E+10	1	-1E+10	1
4902551	30	C	06/06/2021	13:56	-135.047	49.490	0	572.90	0	3.9960	0	34.1240	0	27.094	0	567.230	0	26.0	4	8.2	4	-1E+10	1	-1E+10	1	-1E+10	1	-1E+10	1	-1E+10	1	-1E+10	1
4902551	30	C	06/06/2021	13:56	-135.047	49.490	0	578.00	0	3.9860	0	34.1280	0	27.098	0	572.273	0	25.2	4	8.0	4	-1E+10	1	-1E+10	1	-1E+10	1	-1E+10	1	-1E+10	1	-1E+10	1
4902551	30	C	06/06/2021	13:56	-135.047	49.490	0	583.00	0	3.9700	0	34.1360	0	27.106	0	577.216	0	24.7	4	7.8	4	-1E+10	1	-1E+10	1	-1E+10	1	-1E+10	1	-1E+10	1	-1E+10	1
4902551	30	C	06/06/2021	13:56	-135.047	49.490	0	588.00	0	3.9620	0	34.1380	0	27.109	0	582.160	0	24.3	4	7.7	4	-1E+10	1	-1E+10	1	-1E+10	1	-1E+10	1	-1E+10	1	-1E+10	1
4902551	30	C	06/06/2021	13:56	-135.047	49.490	0	592.90	0	3.9510	0	34.1420	0	27.113	0	587.004	0	24.0	4	7.6	4	-1E+10	1	-1E+10	1	-1E+10	1	-1E+10	1	-1E+10	1	-1E+10	1
4902551	30	C	06/06/2021	13:56	-135.047	49.490	0	597.80	0	3.9370	0	34.1450	0	27.117	0	591.848	0	23.6	4	7.4	4	-1E+10	1	-1E+10	1	-1E+10	1	-1E+10	1	-1E+10	1	-1E+10	1
4902551	30	C	06/06/2021	13:56	-135.047	49.490	0	603.00	0	3.9160	0	34.1510	0	27.124	0	596.989	0	23.0	4	7.2	4	-1E+10	1	-1E+10	1	-1E+10	1	-1E+10	1	-1E+10	1	-1E+10	1
4902551	30	C	06/06/2021	13:56	-135.047	49.490	0	607.80	0	3.9010	0	34.1560	0	27.129	0	601.734	0	22.6	4	7.1	4	-1E+10	1	-1E+10	1	-1E+10	1	-1E+10	1	-1E+10	1	-1E+10	1
4902551	30	C	06/06/2021	13:56	-135.047	49.490	0	612.60	0	3.8930	0	34.1590	0	27.133	0	606.479	0	22.2	4	7.0	4	-1E+10	1	-1E+10	1	-1E+10	1	-1E+10	1	-1E+10	1	-1E+10	1
4902551	30	C	06/06/2021	13:56	-135.047	49.490	0	617.90	0	3.8830	0	34.1630	0	27.137	0	611.719	0	21.8	4	6.9	4	-1E+10	1	-1E+10	1	-1E+10	1	-1E+10	1	-1E+10	1	-1E+10	1
4902551	30	C	06/06/2021	13:56	-135.047	49.490	0	623.20	0	3.8720	0	34.1670	0	27.141	0	616.958	0	21.3	4	6.7	4	-1E+10	1	-1E+10	1	-1E+10	1	-1E+10	1	-1E+10	1	-1E+10	1
4902551	30	C	06/06/2021	13:56	-135.047	49.490	0	627.90	0	3.8610	0	34.1710	0	27.145	0	621.604	0	20.9	4	6.6	4	-1E+10	1	-1E+10	1	-1E+10	1	-1E+10	1	-1E+10	1	-1E+10	1
4902551	30	C	06/06/2021	13:56	-135.047	49.490	0	632.80	0	3.8510	0	34.1750	0	27.150	0	626.447	0	20.3	4	6.4	4	-1E+10	1	-1E+10	1	-1E+10	1	-1E+10	1	-1E+10	1	-1E+10	1
4902551	30	C	06/06/2021	13:56	-135.047	49.490	0	637.80	0	3.8270	0	34.1830	0	27.158	0	631.389	0	19.7	4	6.2	4	-1E+10	1	-1E+10	1	-1E+10	1	-1E+10	1	-1E+10	1	-1E+10	1
4902551	30	C	06/06/2021	13:56	-135.047	49.490	0	642.90	0	3.8130	0	34.1880	0	27.164	0	636.430	0	19.3	4	6.1	4	-1E+10	1	-1E+10	1	-1E+10	1	-1E+10	1	-1E+10	1	-1E+10	1
4902551	30	C	06/06/2021	13:56	-135.047	49.490	0	648.00	0	3.8030	0	34.1920	0	27.168	0	641.471	0	18.9	4	5.9	4	-1E+10	1	-1E+10	1	-1E+10	1	-1E+10	1	-1E+10	1	-1E+10	1
4902551	30	C	06/06/2021	13:56	-135.047	49.490	0	652.80	0	3.7900	0	34.1980	0	27.174	0	646.215	0	18.5	4	5.8	4	-1E+10	1	-1E+10	1	-1E+10	1	-1E+10	1	-1E+10	1	-1E+10	1
4902551	30	C	06/06/2021	13:56	-135.047	49.490	0	657.70	0	3.7760	0	34.2010	0	27.178	0	651.058	0	18.2	4	5.7	4	-1E+10	1	-1E+10	1	-1E+10	1	-1E+10	1	-1E+10	1	-1E+10	1
4902551	30	C	06/06/2021	13:56	-135.047	49.490	0	662.60	0	3.7610	0	34.2070	0	27.184	0	655.901	0	17.9	4	5.6	4	-1E+10	1	-1E+10	1	-1E+10	1	-1E+10	1	-1E+10	1	-1E+10	1
4902551	30	C	06/06/2021	13:56	-135.047	49.490	0	667.60	0	3.7500	0	34.2110	0	27.189	0	660.843	0	17.7	4	5.6	4	-1E+10	1	-1E+10	1	-1E+10	1	-1E+10	1	-1E+10	1	-1E+10	1
4902551	30	C	06/06/2021	13:56	-135.047	49.490	0	672.80	0	3.7370	0	34.2140	0	27.192	0	665.982	0	17.5	4	5.5	4	-1E+10	1	-1E+10	1	-1E+10	1	-1E+10	1	-1E+10	1	-1E+10	1
4902551	30	C	06/06/2021	13:56	-135.047	49.490	0	678.00	0	3.7230	0	34.2180	0	27.197	0	671.121	0	17.3	4	5.4	4	-1E+10	1	-1E+10	1	-1E+10	1	-1E+10	1	-1E+10	1	-1E+10	1
4902551	30	C	06/06/2021	13:56	-135.047	49.490	0	683.10	0	3.7140	0	34.2210	0	27.200	0	676.161	0	17.1	4	5.4	4	-1E+10	1	-1E+10	1	-1E+10	1	-1E+10	1	-1E+10	1	-1E+10	1
4902551	30	C	06/06/2021	13:56	-135.047	49.490	0	687.90	0	3.7000	0	34.2250	0	27.205	0	680.904	0	17.0	4	5.3	4	-1E+10	1	-1E+10	1	-1E+10	1	-1E+10	1	-1E+10	1	-1E+10	1
4902551	30	C	06/06/2021	13:56	-135.047	49.490	0	692.90	0	3.6910	0	34.2270	0	27.207	0	685.845	0	16.9	4	5.3	4	-1E+10	1	-1E+10	1	-1E+10	1	-1E+10	1	-1E+10	1	-1E+10	1
4902551	30	C	06/06/2021	13:56	-135.047	49.490	0	698.00	0	3.6890	0	34.2280	0	27.208	0	690.885	0	16.8	4	5.3	4	-1E+10	1	-1E+10	1	-1E+10	1	-1E+10	1	-1E+10	1	-1E+10	1
4902551	30	C	06/06/2021	13:56	-135.047	49.490	0	703.10	0	3.6780	0	34.2300	0	27.211	0	695.924	0	16.7	4	5.2	4	-1E+10	1	-1E+10	1	-1E+10	1	-1E+10	1	-1E+10	1	-1E+10	1
4902551	30	C	06/06/2021	13:56	-135.047	49.490	0	707.90	0	3.6660	0	34.2330	0	27.215	0	700.667	0	16.5	4	5.2	4	-1E+10	1	-1E+10	1	-1E+10	1	-1E+10	1	-1E+10	1	-1E+10	1
4902551	30	C	06/06/2021	13:56	-135.047	49.490	0	712.70	0	3.6580	0	34.2350	0	27.217	0	705.410	0	16.4	4	5.1	4	-1E+10	1	-1E+10	1	-1E+10	1	-1E+10	1	-1E+10	1	-1E+10	1
4902551	30	C	06/06/2021	13:56	-135.047	49.490	0	718.10	0	3.6500	0	34.2370	0	27.220	0	710.745	0	16.3	4	5.1	4	-1E+10	1	-1E+10	1	-1E+10	1	-1E+10	1	-1E+10	1	-1E+10	1
4902551	30	C	06/06/2021	13:56	-135.047	49.490	0	723.20	0	3.6370	0	34.2410	0	27.224	0	715.784	0	16.1	4	5.1	4	-1E+10	1	-1E+10	1	-1E+10	1	-1E+10	1	-1E+10	1	-1E+10	1
4902551	30	C	06/06/2021	13:56	-135.047	49.490	0	727.90	0	3.6230	0	34.2450	0	27.229	0	720.428	0	16.0	4	5.0	4	-1E+10	1	-1E+10	1	-1E+10	1	-1E+10	1	-1E+10	1	-1E+10	1
4902551	30	C	06/06/2021	13:56	-135.047	49.490	0	732.70	0	3.6130	0	34.2470	0	27.231	0	725.171	0	15.9	4	5.0	4	-1E+10	1	-1E+10	1	-1E+10	1	-1E+10	1	-1E+10	1	-1E+10	1
4902551	30	C	06/06/2021	13:56	-135.047	49.490	0	738.00	0	3.5960	0	34.2500	0	27.235	0	730.407	0	15.9	4	5.0	4	-1E+10	1	-1E+10	1	-1E+10	1	-1E+10	1	-1E+10	1	-1E+10	1
4902551	30	C	06/06/2021	13:56	-135.047	49.490	0	743.20	0	3.5850	0	34.2520	0	27.238	0	735.544	0	15.8	4	4.9	4	-1E+10	1	-1E+10	1	-1E+10	1	-1E+10	1	-1E+10	1	-1E+10	1
4902551	30	C	06/06/2021	13:56	-135.047	49.490	0	748.00	0	3.5780	0	34.2530	0	27.239	0	740.286	0	15.7	4	4.9	4	-1E+10	1	-1E+10	1	-1E+10	1	-1E+10	1	-1E+10	1	-1E+10	1
4902551	30	C	06/06/2021	13:56	-135.047	49.490	0	752.80	0	3.5670	0	34.2560	0	27.243	0	745.028	0	15.6	4	4.9	4	-1E+10	1	-1E+10	1	-1E+10	1	-1E+10	1	-1E+10	1	-1E+10	1
4902551	30	C	06/06/2021	13:56	-135.047	49.490	0	757.60	0	3.5580	0	34.2580	0	27.245	0	749.770	0	15.5	4	4.9	4	-1E+10	1	-1E+10	1	-1E+10	1	-1E+10	1	-1E+10	1	-1E+10	1
4902551	30	C	06/06/2021	13:56	-135.047	49.490	0	762.60	0	3.5440	0	34.2610	0	27.249	0	754.709	0	15.4	4	4.8	4	-1E+10	1	-1E+10	1	-1E+10	1	-1E+10	1	-1E+10	1	-1E+10	1
4902551	30	C	06/06/2021	13:56	-135.047	49.490	0	768.00	0	3.5260	0	34.2640	0	27.253	0	760.044	0	15.3	4	4.8	4	-1E+10	1	-1E+10	1	-1E+10	1	-1E+10	1	-1E+10	1	-1E+10	1
4902551	30	C	06/06/2021	13:56	-135.047	49.490	0	773.40	0	3.5130	0	34.2660	0	27.256	0	765.378	0	15.2	4	4.8	4	-1E+10	1	-1E+10	1	-1E+10	1	-1E+10	1	-1E+10	1	-1E+10	1
4902551	30	C	06/06/2021	13:56	-135.047	49.490	0	777.90	0	3.4970	0	34.2700	0	27.261	0	769.823	0	15.2	4	4.7	4	-1E+10	1	-1E+10	1	-1E+10	1	-1E+10	1	-1E+10	1	-1E+10	1
4902551	30	C	06/06/2021	13:56	-135.047	49.490	0	782.50	0	3.4850	0	34.2710	0	27.263	0	774.366	0	15.2	4	4.7	4	-1E+10	1	-1E+10	1	-1E+10	1	-1E+10	1	-1E+10	1	-1E+10	1
4902551	30	C	06/06/2021	13:56	-135.047	49.490	0	787.70	0	3.4800	0	34.2720	0	27.264	0	779.503	0	15.1	4	4.7	4	-1E+10	1	-1E+10	1	-1E+10	1	-1E+10	1	-1E+10	1	-1E+10	1
4902551	30	C	06/06/2021	13:56	-135.047	49.490	0	792.90	0	3.4650	0	34.2750	0	27.268	0	784.639	0	15.1	4	4.7	4	-1E+10	1	-1E+10	1	-1E+10	1	-1E+10	1	-1E+10	1	-1E+10	1
4902551	30	C	06/06/2021	13:56	-135.047	49.490	0	797.90	0	3.4560	0	34.2760	0	27.270	0	789.577	0	15.0	4	4.7	4	-1E+10	1	-1E+10	1	-1E+10	1	-1E+10	1	-1E+10	1	-1E+10	1
4902551	30	C	06/06/2021	13:56	-135.047	49.490	0	803.20	0	3.4500	0	34.2770	0	27.271	0	794.812	0	15.0	4	4.7	4	-1E+10	1	-1E+10	1	-1E+10	1	-1E+10	1	-1E+10	1	-1E+10	1
4902551	30	C	06/06/2021	13:56	-135.047	49.490	0	807.90	0	3.4440	0	34.2790	0	27.273	0	799.454	0	14.9	4	4.7	4	-1E+10	1	-1E+10	1	-1E+10	1	-1E+10	1	-1E+10	1	-1E+10	1
4902551	30	C	06/06/2021	13:56	-135.047	49.490	0	812.60	0	3.4360	0	34.2800	0	27.275	0	804.096	0	14.9	4	4.6	4	-1E+10	1	-1E+10	1	-1E+10	1	-1E+10	1	-1E+10	1	-1E+10	1
4902551	30	C	06/06/2021	13:56	-135.047	49.490	0	817.80	0	3.4330	0	34.2810	0	27.276	0	809.231	0	14.8	4	4.6	4	-1E+10	1	-1E+10	1	-1E+10	1	-1E+10	1	-1E+10	1	-1E+10	1
4902551	30	C	06/06/2021	13:56	-135.047	49.490	0	823.00	0	3.4210	0	34.2830	0	27.279	0	814.367	0	14.7	4	4.6	4	-1E+10	1	-1E+10	1	-1E+10	1	-1E+10	1	-1E+10	1	-1E+10	1
4902551	30	C	06/06/2021	13:56	-135.047	49.490	0	828.10	0	3.3980	0	34.2880	0	27.285	0	819.403	0	14.6	4	4.5	4	-1E+10	1	-1E+10	1	-1E+10	1	-1E+10	1	-1E+10	1	-1E+10	1
4902551	30	C	06/06/2021	13:56	-135.047	49.490	0	833.20	0	3.3900	0	34.2900	0	27.288	0	824.439	0	14.5	4	4.5	4	-1E+10	1	-1E+10	1	-1E+10	1	-1E+10	1	-1E+10	1	-1E+10	1
4902551	30	C	06/06/2021	13:56	-135.047	49.490	0	838.30	0	3.3860	0	34.2910	0	27.289	0	829.476	0	14.5	4	4.5	4	-1E+10	1	-1E+10	1	-1E+10	1	-1E+10	1	-1E+10	1	-1E+10	1
4902551	30	C	06/06/2021	13:56	-135.047	49.490	0	842.90	0	3.3700	0	34.2940	0	27.293	0	834.018	0	14.4	4	4.5	4	-1E+10	1	-1E+10	1	-1E+10	1	-1E+10	1	-1E+10	1	-1E+10	1
4902551	30	C	06/06/2021	13:56	-135.047	49.490	0	847.50	0	3.3550	0	34.2980	0	27.297	0	838.560	0	14.3	4	4.4	4	-1E+10	1	-1E+10	1	-1E+10	1	-1E+10	1	-1E+10	1	-1E+10	1
4902551	30	C	06/06/2021	13:56	-135.047	49.490	0	852.70	0	3.3430	0	34.3000	0	27.300	0	843.695	0	14.2	4	4.4	4	-1E+10	1	-1E+10	1	-1E+10	1	-1E+10	1	-1E+10	1	-1E+10	1
4902551	30	C	06/06/2021	13:56	-135.047	49.490	0	857.80	0	3.3270	0	34.3050	0	27.306	0	848.731	0	14.1	4	4.4	4	-1E+10	1	-1E+10	1	-1E+10	1	-1E+10	1	-1E+10	1	-1E+10	1
4902551	30	C	06/06/2021	13:56	-135.047	49.490	0	862.90	0	3.3200	0	34.3060	0	27.307	0	853.767	0	14.1	4	4.4	4	-1E+10	1	-1E+10	1	-1E+10	1	-1E+10	1	-1E+10	1	-1E+10	1
4902551	30	C	06/06/2021	13:56	-135.047	49.490	0	868.10	0	3.3150	0	34.3080	0	27.309	0	858.901	0	14.1	4	4.4	4	-1E+10	1	-1E+10	1	-1E+10	1	-1E+10	1	-1E+10	1	-1E+10	1
4902551	30	C	06/06/2021	13:56	-135.047	49.490	0	873.30	0	3.3100	0	34.3080	0	27.310	0	864.035	0	14.0	4	4.4	4	-1E+10	1	-1E+10	1	-1E+10	1	-1E+10	1	-1E+10	1	-1E+10	1
4902551	30	C	06/06/2021	13:56	-135.047	49.490	0	878.30	0	3.2970	0	34.3110	0	27.313	0	868.971	0	14.0	4	4.3	4	-1E+10	1	-1E+10	1	-1E+10	1	-1E+10	1	-1E+10	1	-1E+10	1
4902551	30	C	06/06/2021	13:56	-135.047	49.490	0	882.90	0	3.2770	0	34.3140	0	27.318	0	873.513	0	13.9	4	4.3	4	-1E+10	1	-1E+10	1	-1E+10	1	-1E+10	1	-1E+10	1	-1E+10	1
4902551	30	C	06/06/2021	13:56	-135.047	49.490	0	887.50	0	3.2690	0	34.3160	0	27.320	0	878.054	0	13.9	4	4.3	4	-1E+10	1	-1E+10	1	-1E+10	1	-1E+10	1	-1E+10	1	-1E+10	1
4902551	30	C	06/06/2021	13:56	-135.047	49.490	0	892.60	0	3.2560	0	34.3190	0	27.324	0	883.089	0	13.8	4	4.3	4	-1E+10	1	-1E+10	1	-1E+10	1	-1E+10	1	-1E+10	1	-1E+10	1
4902551	30	C	06/06/2021	13:56	-135.047	49.490	0	897.80	0	3.2490	0	34.3210	0	27.326	0	888.223	0	13.8	4	4.3	4	-1E+10	1	-1E+10	1	-1E+10	1	-1E+10	1	-1E+10	1	-1E+10	1
4902551	30	C	06/06/2021	13:56	-135.047	49.490	0	902.90	0	3.2410	0	34.3220	0	27.327	0	893.258	0	13.8	4	4.3	4	-1E+10	1	-1E+10	1	-1E+10	1	-1E+10	1	-1E+10	1	-1E+10	1
4902551	30	C	06/06/2021	13:56	-135.047	49.490	0	908.20	0	3.2360	0	34.3230	0	27.329	0	898.490	0	13.7	4	4.3	4	-1E+10	1	-1E+10	1	-1E+10	1	-1E+10	1	-1E+10	1	-1E+10	1
4902551	30	C	06/06/2021	13:56	-135.047	49.490	0	912.90	0	3.2270	0	34.3250	0	27.331	0	903.129	0	13.7	4	4.3	4	-1E+10	1	-1E+10	1	-1E+10	1	-1E+10	1	-1E+10	1	-1E+10	1
4902551	30	C	06/06/2021	13:56	-135.047	49.490	0	917.90	0	3.2190	0	34.3270	0	27.334	0	908.065	0	13.7	4	4.2	4	-1E+10	1	-1E+10	1	-1E+10	1	-1E+10	1	-1E+10	1	-1E+10	1
4902551	30	C	06/06/2021	13:56	-135.047	49.490	0	922.80	0	3.2050	0	34.3300	0	27.337	0	912.902	0	13.6	4	4.2	4	-1E+10	1	-1E+10	1	-1E+10	1	-1E+10	1	-1E+10	1	-1E+10	1
4902551	30	C	06/06/2021	13:56	-135.047	49.490	0	927.60	0	3.1880	0	34.3330	0	27.341	0	917.640	0	13.6	4	4.2	4	-1E+10	1	-1E+10	1	-1E+10	1	-1E+10	1	-1E+10	1	-1E+10	1
4902551	30	C	06/06/2021	13:56	-135.047	49.490	0	932.50	0	3.1800	0	34.3350	0	27.344	0	922.476	0	13.6	4	4.2	4	-1E+10	1	-1E+10	1	-1E+10	1	-1E+10	1	-1E+10	1	-1E+10	1
4902551	30	C	06/06/2021	13:56	-135.047	49.490	0	937.50	0	3.1760	0	34.3360	0	27.345	0	927.412	0	13.6	4	4.2	4	-1E+10	1	-1E+10	1	-1E+10	1	-1E+10	1	-1E+10	1	-1E+10	1
4902551	30	C	06/06/2021	13:56	-135.047	49.490	0	942.90	0	3.1710	0	34.3370	0	27.346	0	932.741	0	13.6	4	4.2	4	-1E+10	1	-1E+10	1	-1E+10	1	-1E+10	1	-1E+10	1	-1E+10	1
4902551	30	C	06/06/2021	13:56	-135.047	49.490	0	948.30	0	3.1630	0	34.3390	0	27.349	0	938.071	0	13.5	4	4.2	4	-1E+10	1	-1E+10	1	-1E+10	1	-1E+10	1	-1E+10	1	-1E+10	1
4902551	30	C	06/06/2021	13:56	-135.047	49.490	0	953.30	0	3.1580	0	34.3400	0	27.350	0	943.006	0	13.5	4	4.2	4	-1E+10	1	-1E+10	1	-1E+10	1	-1E+10	1	-1E+10	1	-1E+10	1
4902551	30	C	06/06/2021	13:56	-135.047	49.490	0	957.90	0	3.1500	0	34.3410	0	27.351	0	947.546	0	13.5	4	4.2	4	-1E+10	1	-1E+10	1	-1E+10	1	-1E+10	1	-1E+10	1	-1E+10	1
4902551	30	C	06/06/2021	13:56	-135.047	49.490	0	962.70	0	3.1400	0	34.3430	0	27.354	0	952.283	0	13.4	4	4.2	4	-1E+10	1	-1E+10	1	-1E+10	1	-1E+10	1	-1E+10	1	-1E+10	1
4902551	30	C	06/06/2021	13:56	-135.047	49.490	0	968.00	0	3.1310	0	34.3450	0	27.356	0	957.514	0	13.4	4	4.1	4	-1E+10	1	-1E+10	1	-1E+10	1	-1E+10	1	-1E+10	1	-1E+10	1
4902551	30	C	06/06/2021	13:56	-135.047	49.490	0	972.90	0	3.1210	0	34.3470	0	27.359	0	962.349	0	13.3	4	4.1	4	-1E+10	1	-1E+10	1	-1E+10	1	-1E+10	1	-1E+10	1	-1E+10	1
4902551	30	C	06/06/2021	13:56	-135.047	49.490	0	977.90	0	3.1000	0	34.3520	0	27.365	0	967.284	0	13.2	4	4.1	4	-1E+10	1	-1E+10	1	-1E+10	1	-1E+10	1	-1E+10	1	-1E+10	1
4902551	30	C	06/06/2021	13:56	-135.047	49.490	0	983.20	0	3.0940	0	34.3530	0	27.366	0	972.514	0	13.2	4	4.1	4	-1E+10	1	-1E+10	1	-1E+10	1	-1E+10	1	-1E+10	1	-1E+10	1
4902551	30	C	06/06/2021	13:56	-135.047	49.490	0	988.00	0	3.0840	0	34.3560	0	27.370	0	977.250	0	13.1	4	4.0	4	-1E+10	1	-1E+10	1	-1E+10	1	-1E+10	1	-1E+10	1	-1E+10	1
4902551	30	C	06/06/2021	13:56	-135.047	49.490	0	992.90	0	3.0750	0	34.3580	0	27.372	0	982.086	0	13.1	4	4.0	4	-1E+10	1	-1E+10	1	-1E+10	1	-1E+10	1	-1E+10	1	-1E+10	1
4902551	30	C	06/06/2021	13:56	-135.047	49.490	0	997.80	0	3.0650	0	34.3610	0	27.375	0	986.921	0	13.0	4	4.0	4	-1E+10	1	-1E+10	1	-1E+10	1	-1E+10	1	-1E+10	1	-1E+10	1
4902551	30	C	06/06/2021	13:56	-135.047	49.490	0	1005.20	0	3.0510	0	34.3630	0	27.378	0	994.222	0	13.0	4	4.0	4	-1E+10	1	-1E+10	1	-1E+10	1	-1E+10	1	-1E+10	1	-1E+10	1
4902551	30	C	06/06/2021	13:56	-135.047	49.490	0	1015.30	0	3.0360	0	34.3660	0	27.382	0	1004.188	0	13.0	4	4.0	4	-1E+10	1	-1E+10	1	-1E+10	1	-1E+10	1	-1E+10	1	-1E+10	1
4902551	30	C	06/06/2021	13:56	-135.047	49.490	0	1025.50	0	3.0150	0	34.3700	0	27.387	0	1014.252	0	13.0	4	4.0	4	-1E+10	1	-1E+10	1	-1E+10	1	-1E+10	1	-1E+10	1	-1E+10	1
4902551	30	C	06/06/2021	13:56	-135.047	49.490	0	1035.30	0	3.0000	0	34.3730	0	27.391	0	1023.920	0	13.0	4	4.0	4	-1E+10	1	-1E+10	1	-1E+10	1	-1E+10	1	-1E+10	1	-1E+10	1
4902551	30	C	06/06/2021	13:56	-135.047	49.490	0	1045.10	0	2.9840	0	34.3760	0	27.395	0	1033.588	0	12.9	4	4.0	4	-1E+10	1	-1E+10	1	-1E+10	1	-1E+10	1	-1E+10	1	-1E+10	1
4902551	30	C	06/06/2021	13:56	-135.047	49.490	0	1055.60	0	2.9570	0	34.3820	0	27.402	0	1043.947	0	12.9	4	4.0	4	-1E+10	1	-1E+10	1	-1E+10	1	-1E+10	1	-1E+10	1	-1E+10	1
4902551	30	C	06/06/2021	13:56	-135.047	49.490	0	1065.60	0	2.9500	0	34.3840	0	27.404	0	1053.811	0	12.9	4	4.0	4	-1E+10	1	-1E+10	1	-1E+10	1	-1E+10	1	-1E+10	1	-1E+10	1
4902551	30	C	06/06/2021	13:56	-135.047	49.490	0	1075.40	0	2.9330	0	34.3870	0	27.408	0	1063.478	0	12.9	4	4.0	4	-1E+10	1	-1E+10	1	-1E+10	1	-1E+10	1	-1E+10	1	-1E+10	1
4902551	30	C	06/06/2021	13:56	-135.047	49.490	0	1085.40	0	2.9180	0	34.3900	0	27.412	0	1073.342	0	12.9	4	4.0	4	-1E+10	1	-1E+10	1	-1E+10	1	-1E+10	1	-1E+10	1	-1E+10	1
4902551	30	C	06/06/2021	13:56	-135.047	49.490	0	1095.20	0	2.9080	0	34.3930	0	27.416	0	1083.007	0	12.9	4	4.0	4	-1E+10	1	-1E+10	1	-1E+10	1	-1E+10	1	-1E+10	1	-1E+10	1
4902551	30	C	06/06/2021	13:56	-135.047	49.490	0	1105.30	0	2.8930	0	34.3960	0	27.419	0	1092.969	0	12.9	4	4.0	4	-1E+10	1	-1E+10	1	-1E+10	1	-1E+10	1	-1E+10	1	-1E+10	1
4902551	30	C	06/06/2021	13:56	-135.047	49.490	0	1115.50	0	2.8780	0	34.4000	0	27.424	0	1103.028	0	12.9	4	4.0	4	-1E+10	1	-1E+10	1	-1E+10	1	-1E+10	1	-1E+10	1	-1E+10	1
4902551	30	C	06/06/2021	13:56	-135.047	49.490	0	1125.40	0	2.8720	0	34.4030	0	27.427	0	1112.791	0	12.9	4	4.0	4	-1E+10	1	-1E+10	1	-1E+10	1	-1E+10	1	-1E+10	1	-1E+10	1
4902551	30	C	06/06/2021	13:56	-135.047	49.490	0	1135.30	0	2.8580	0	34.4050	0	27.430	0	1122.554	0	13.0	4	4.0	4	-1E+10	1	-1E+10	1	-1E+10	1	-1E+10	1	-1E+10	1	-1E+10	1
4902551	30	C	06/06/2021	13:56	-135.047	49.490	0	1145.40	0	2.8440	0	34.4120	0	27.437	0	1132.513	0	13.0	4	4.0	4	-1E+10	1	-1E+10	1	-1E+10	1	-1E+10	1	-1E+10	1	-1E+10	1
4902551	30	C	06/06/2021	13:56	-135.047	49.490	0	1155.40	0	2.8240	0	34.4170	0	27.443	0	1142.374	0	13.1	4	4.0	4	-1E+10	1	-1E+10	1	-1E+10	1	-1E+10	1	-1E+10	1	-1E+10	1
4902551	30	C	06/06/2021	13:56	-135.047	49.490	0	1165.50	0	2.8040	0	34.4180	0	27.445	0	1152.332	0	13.1	4	4.0	4	-1E+10	1	-1E+10	1	-1E+10	1	-1E+10	1	-1E+10	1	-1E+10	1
4902551	30	C	06/06/2021	13:56	-135.047	49.490	0	1175.80	0	2.8060	0	34.4200	0	27.447	0	1162.487	0	13.2	4	4.1	4	-1E+10	1	-1E+10	1	-1E+10	1	-1E+10	1	-1E+10	1	-1E+10	1
4902551	30	C	06/06/2021	13:56	-135.047	49.490	0	1185.80	0	2.7880	0	34.4200	0	27.448	0	1172.346	0	13.3	4	4.1	4	-1E+10	1	-1E+10	1	-1E+10	1	-1E+10	1	-1E+10	1	-1E+10	1
4902551	30	C	06/06/2021	13:56	-135.047	49.490	0	1195.60	0	2.7800	0	34.4230	0	27.451	0	1182.007	0	13.4	4	4.1	4	-1E+10	1	-1E+10	1	-1E+10	1	-1E+10	1	-1E+10	1	-1E+10	1
4902551	30	C	06/06/2021	13:56	-135.047	49.490	0	1205.40	0	2.7580	0	34.4250	0	27.455	0	1191.668	0	13.6	4	4.2	4	-1E+10	1	-1E+10	1	-1E+10	1	-1E+10	1	-1E+10	1	-1E+10	1
4902551	30	C	06/06/2021	13:56	-135.047	49.490	0	1215.20	0	2.7370	0	34.4300	0	27.461	0	1201.328	0	13.8	4	4.2	4	-1E+10	1	-1E+10	1	-1E+10	1	-1E+10	1	-1E+10	1	-1E+10	1
4902551	30	C	06/06/2021	13:56	-135.047	49.490	0	1225.50	0	2.7310	0	34.4340	0	27.465	0	1211.481	0	14.0	4	4.3	4	-1E+10	1	-1E+10	1	-1E+10	1	-1E+10	1	-1E+10	1	-1E+10	1
4902551	30	C	06/06/2021	13:56	-135.047	49.490	0	1235.30	0	2.7240	0	34.4370	0	27.468	0	1221.141	0	14.2	4	4.3	4	-1E+10	1	-1E+10	1	-1E+10	1	-1E+10	1	-1E+10	1	-1E+10	1
4902551	30	C	06/06/2021	13:56	-135.047	49.490	0	1245.40	0	2.7080	0	34.4410	0	27.472	0	1231.095	0	14.5	4	4.4	4	-1E+10	1	-1E+10	1	-1E+10	1	-1E+10	1	-1E+10	1	-1E+10	1
4902551	30	C	06/06/2021	13:56	-135.047	49.490	0	1255.70	0	2.6890	0	34.4440	0	27.476	0	1241.247	0	14.7	4	4.5	4	-1E+10	1	-1E+10	1	-1E+10	1	-1E+10	1	-1E+10	1	-1E+10	1
4902551	30	C	06/06/2021	13:56	-135.047	49.490	0	1265.70	0	2.6770	0	34.4470	0	27.480	0	1251.102	0	14.9	4	4.6	4	-1E+10	1	-1E+10	1	-1E+10	1	-1E+10	1	-1E+10	1	-1E+10	1
4902551	30	C	06/06/2021	13:56	-135.047	49.490	0	1275.40	0	2.6700	0	34.4480	0	27.481	0	1260.661	0	15.0	4	4.6	4	-1E+10	1	-1E+10	1	-1E+10	1	-1E+10	1	-1E+10	1	-1E+10	1
4902551	30	C	06/06/2021	13:56	-135.047	49.490	0	1285.10	0	2.6560	0	34.4500	0	27.484	0	1270.220	0	15.3	4	4.7	4	-1E+10	1	-1E+10	1	-1E+10	1	-1E+10	1	-1E+10	1	-1E+10	1
4902551	30	C	06/06/2021	13:56	-135.047	49.490	0	1295.30	0	2.6410	0	34.4530	0	27.488	0	1280.271	0	15.5	4	4.8	4	-1E+10	1	-1E+10	1	-1E+10	1	-1E+10	1	-1E+10	1	-1E+10	1
4902551	30	C	06/06/2021	13:56	-135.047	49.490	0	1305.60	0	2.6260	0	34.4550	0	27.491	0	1290.420	0	15.7	4	4.8	4	-1E+10	1	-1E+10	1	-1E+10	1	-1E+10	1	-1E+10	1	-1E+10	1
4902551	30	C	06/06/2021	13:56	-135.047	49.490	0	1315.50	0	2.6200	0	34.4560	0	27.492	0	1300.174	0	15.9	4	4.9	4	-1E+10	1	-1E+10	1	-1E+10	1	-1E+10	1	-1E+10	1	-1E+10	1
4902551	30	C	06/06/2021	13:56	-135.047	49.490	0	1325.30	0	2.6070	0	34.4580	0	27.495	0	1309.829	0	16.3	4	5.0	4	-1E+10	1	-1E+10	1	-1E+10	1	-1E+10	1	-1E+10	1	-1E+10	1
4902551	30	C	06/06/2021	13:56	-135.047	49.490	0	1335.30	0	2.5820	0	34.4630	0	27.501	0	1319.681	0	16.7	4	5.1	4	-1E+10	1	-1E+10	1	-1E+10	1	-1E+10	1	-1E+10	1	-1E+10	1
4902551	30	C	06/06/2021	13:56	-135.047	49.490	0	1345.10	0	2.5640	0	34.4650	0	27.504	0	1329.336	0	16.9	4	5.2	4	-1E+10	1	-1E+10	1	-1E+10	1	-1E+10	1	-1E+10	1	-1E+10	1
4902551	30	C	06/06/2021	13:56	-135.047	49.490	0	1355.30	0	2.5590	0	34.4670	0	27.506	0	1339.384	0	17.2	4	5.2	4	-1E+10	1	-1E+10	1	-1E+10	1	-1E+10	1	-1E+10	1	-1E+10	1
4902551	30	C	06/06/2021	13:56	-135.047	49.490	0	1365.40	0	2.5490	0	34.4690	0	27.509	0	1349.333	0	17.7	4	5.4	4	-1E+10	1	-1E+10	1	-1E+10	1	-1E+10	1	-1E+10	1	-1E+10	1
4902551	30	C	06/06/2021	13:56	-135.047	49.490	0	1375.30	0	2.5300	0	34.4720	0	27.513	0	1359.085	0	18.1	4	5.5	4	-1E+10	1	-1E+10	1	-1E+10	1	-1E+10	1	-1E+10	1	-1E+10	1
4902551	30	C	06/06/2021	13:56	-135.047	49.490	0	1385.50	0	2.5220	0	34.4750	0	27.516	0	1369.131	0	18.5	4	5.6	4	-1E+10	1	-1E+10	1	-1E+10	1	-1E+10	1	-1E+10	1	-1E+10	1
4902551	30	C	06/06/2021	13:56	-135.047	49.490	0	1395.80	0	2.5160	0	34.4770	0	27.518	0	1379.276	0	18.8	4	5.7	4	-1E+10	1	-1E+10	1	-1E+10	1	-1E+10	1	-1E+10	1	-1E+10	1
4902551	30	C	06/06/2021	13:56	-135.047	49.490	0	1405.70	0	2.5030	0	34.4790	0	27.521	0	1389.026	0	19.2	4	5.9	4	-1E+10	1	-1E+10	1	-1E+10	1	-1E+10	1	-1E+10	1	-1E+10	1
4902551	30	C	06/06/2021	13:56	-135.047	49.490	0	1415.70	0	2.4850	0	34.4820	0	27.525	0	1398.874	0	19.6	4	6.0	4	-1E+10	1	-1E+10	1	-1E+10	1	-1E+10	1	-1E+10	1	-1E+10	1
4902551	30	C	06/06/2021	13:56	-135.047	49.490	0	1425.50	0	2.4780	0	34.4830	0	27.526	0	1408.525	0	19.8	4	6.1	4	-1E+10	1	-1E+10	1	-1E+10	1	-1E+10	1	-1E+10	1	-1E+10	1
4902551	30	C	06/06/2021	13:56	-135.047	49.490	0	1435.50	0	2.4730	0	34.4840	0	27.528	0	1418.373	0	20.2	4	6.2	4	-1E+10	1	-1E+10	1	-1E+10	1	-1E+10	1	-1E+10	1	-1E+10	1
4902551	30	C	06/06/2021	13:56	-135.047	49.490	0	1445.40	0	2.4600	0	34.4870	0	27.531	0	1428.121	0	20.7	4	6.3	4	-1E+10	1	-1E+10	1	-1E+10	1	-1E+10	1	-1E+10	1	-1E+10	1
4902551	30	C	06/06/2021	13:56	-135.047	49.490	0	1455.20	0	2.4450	0	34.4890	0	27.534	0	1437.770	0	21.1	4	6.4	4	-1E+10	1	-1E+10	1	-1E+10	1	-1E+10	1	-1E+10	1	-1E+10	1
4902551	30	C	06/06/2021	13:56	-135.047	49.490	0	1465.40	0	2.4340	0	34.4910	0	27.537	0	1447.813	0	21.4	4	6.5	4	-1E+10	1	-1E+10	1	-1E+10	1	-1E+10	1	-1E+10	1	-1E+10	1
4902551	30	C	06/06/2021	13:56	-135.047	49.490	0	1475.60	0	2.4250	0	34.4930	0	27.539	0	1457.856	0	21.9	4	6.7	4	-1E+10	1	-1E+10	1	-1E+10	1	-1E+10	1	-1E+10	1	-1E+10	1
4902551	30	C	06/06/2021	13:56	-135.047	49.490	0	1485.40	0	2.4170	0	34.4940	0	27.541	0	1467.504	0	22.4	4	6.8	4	-1E+10	1	-1E+10	1	-1E+10	1	-1E+10	1	-1E+10	1	-1E+10	1
4902551	30	C	06/06/2021	13:56	-135.047	49.490	0	1495.50	0	2.3960	0	34.4980	0	27.546	0	1477.447	0	23.2	4	7.1	4	-1E+10	1	-1E+10	1	-1E+10	1	-1E+10	1	-1E+10	1	-1E+10	1
4902551	30	C	06/06/2021	13:56	-135.047	49.490	0	1505.70	0	2.3800	0	34.5020	0	27.550	0	1487.488	0	23.7	4	7.2	4	-1E+10	1	-1E+10	1	-1E+10	1	-1E+10	1	-1E+10	1	-1E+10	1
4902551	30	C	06/06/2021	13:56	-135.047	49.490	0	1515.40	0	2.3720	0	34.5030	0	27.552	0	1497.036	0	24.1	4	7.3	4	-1E+10	1	-1E+10	1	-1E+10	1	-1E+10	1	-1E+10	1	-1E+10	1
4902551	30	C	06/06/2021	13:56	-135.047	49.490	0	1525.70	0	2.3620	0	34.5050	0	27.554	0	1507.175	0	24.5	4	7.5	4	-1E+10	1	-1E+10	1	-1E+10	1	-1E+10	1	-1E+10	1	-1E+10	1
4902551	30	C	06/06/2021	13:56	-135.047	49.490	0	1535.40	0	2.3520	0	34.5070	0	27.557	0	1516.722	0	24.9	4	7.6	4	-1E+10	1	-1E+10	1	-1E+10	1	-1E+10	1	-1E+10	1	-1E+10	1
4902551	30	C	06/06/2021	13:56	-135.047	49.490	0	1545.40	0	2.3390	0	34.5090	0	27.559	0	1526.565	0	25.3	4	7.7	4	-1E+10	1	-1E+10	1	-1E+10	1	-1E+10	1	-1E+10	1	-1E+10	1
4902551	30	C	06/06/2021	13:56	-135.047	49.490	0	1555.70	0	2.3300	0	34.5100	0	27.561	0	1536.702	0	25.6	4	7.8	4	-1E+10	1	-1E+10	1	-1E+10	1	-1E+10	1	-1E+10	1	-1E+10	1
4902551	30	C	06/06/2021	13:56	-135.047	49.490	0	1565.60	0	2.3150	0	34.5110	0	27.563	0	1546.444	0	25.9	4	7.9	4	-1E+10	1	-1E+10	1	-1E+10	1	-1E+10	1	-1E+10	1	-1E+10	1
4902551	30	C	06/06/2021	13:56	-135.047	49.490	0	1575.70	0	2.3090	0	34.5130	0	27.565	0	1556.384	0	26.2	4	8.0	4	-1E+10	1	-1E+10	1	-1E+10	1	-1E+10	1	-1E+10	1	-1E+10	1
4902551	30	C	06/06/2021	13:56	-135.047	49.490	0	1585.50	0	2.3000	0	34.5140	0	27.567	0	1566.027	0	26.8	4	8.1	4	-1E+10	1	-1E+10	1	-1E+10	1	-1E+10	1	-1E+10	1	-1E+10	1
4902551	30	C	06/06/2021	13:56	-135.047	49.490	0	1595.50	0	2.2930	0	34.5160	0	27.569	0	1575.867	0	27.5	4	8.4	4	-1E+10	1	-1E+10	1	-1E+10	1	-1E+10	1	-1E+10	1	-1E+10	1
4902551	30	C	06/06/2021	13:56	-135.047	49.490	0	1605.70	0	2.2800	0	34.5190	0	27.573	0	1585.904	0	28.3	4	8.6	4	-1E+10	1	-1E+10	1	-1E+10	1	-1E+10	1	-1E+10	1	-1E+10	1
4902551	30	C	06/06/2021	13:56	-135.047	49.490	0	1615.30	0	2.2690	0	34.5210	0	27.575	0	1595.349	0	28.8	4	8.7	4	-1E+10	1	-1E+10	1	-1E+10	1	-1E+10	1	-1E+10	1	-1E+10	1
4902551	30	C	06/06/2021	13:56	-135.047	49.490	0	1625.50	0	2.2600	0	34.5220	0	27.577	0	1605.385	0	29.3	4	8.9	4	-1E+10	1	-1E+10	1	-1E+10	1	-1E+10	1	-1E+10	1	-1E+10	1
4902551	30	C	06/06/2021	13:56	-135.047	49.490	0	1635.80	0	2.2480	0	34.5240	0	27.579	0	1615.518	0	29.8	4	9.0	4	-1E+10	1	-1E+10	1	-1E+10	1	-1E+10	1	-1E+10	1	-1E+10	1
4902551	30	C	06/06/2021	13:56	-135.047	49.490	0	1645.80	0	2.2390	0	34.5260	0	27.582	0	1625.356	0	30.3	4	9.2	4	-1E+10	1	-1E+10	1	-1E+10	1	-1E+10	1	-1E+10	1	-1E+10	1
4902551	30	C	06/06/2021	13:56	-135.047	49.490	0	1655.40	0	2.2300	0	34.5270	0	27.583	0	1634.799	0	31.0	4	9.4	4	-1E+10	1	-1E+10	1	-1E+10	1	-1E+10	1	-1E+10	1	-1E+10	1
4902551	30	C	06/06/2021	13:56	-135.047	49.490	0	1665.10	0	2.2170	0	34.5300	0	27.587	0	1644.341	0	31.8	4	9.6	4	-1E+10	1	-1E+10	1	-1E+10	1	-1E+10	1	-1E+10	1	-1E+10	1
4902551	30	C	06/06/2021	13:56	-135.047	49.490	0	1675.50	0	2.1990	0	34.5340	0	27.591	0	1654.571	0	32.7	4	9.9	4	-1E+10	1	-1E+10	1	-1E+10	1	-1E+10	1	-1E+10	1	-1E+10	1
4902551	30	C	06/06/2021	13:56	-135.047	49.490	0	1685.50	0	2.1910	0	34.5350	0	27.593	0	1664.407	0	33.3	4	10.1	4	-1E+10	1	-1E+10	1	-1E+10	1	-1E+10	1	-1E+10	1	-1E+10	1
4902551	30	C	06/06/2021	13:56	-135.047	49.490	0	1695.40	0	2.1800	0	34.5370	0	27.596	0	1674.144	0	33.9	4	10.3	4	-1E+10	1	-1E+10	1	-1E+10	1	-1E+10	1	-1E+10	1	-1E+10	1
4902551	30	C	06/06/2021	13:56	-135.047	49.490	0	1705.20	0	2.1780	0	34.5380	0	27.597	0	1683.782	0	34.2	4	10.3	4	-1E+10	1	-1E+10	1	-1E+10	1	-1E+10	1	-1E+10	1	-1E+10	1
4902551	30	C	06/06/2021	13:56	-135.047	49.490	0	1715.60	0	2.1720	0	34.5390	0	27.598	0	1694.010	0	34.6	4	10.5	4	-1E+10	1	-1E+10	1	-1E+10	1	-1E+10	1	-1E+10	1	-1E+10	1
4902551	30	C	06/06/2021	13:56	-135.047	49.490	0	1725.70	0	2.1680	0	34.5400	0	27.599	0	1703.942	0	35.1	4	10.6	4	-1E+10	1	-1E+10	1	-1E+10	1	-1E+10	1	-1E+10	1	-1E+10	1
4902551	30	C	06/06/2021	13:56	-135.047	49.490	0	1735.40	0	2.1580	0	34.5420	0	27.601	0	1713.481	0	35.7	4	10.8	4	-1E+10	1	-1E+10	1	-1E+10	1	-1E+10	1	-1E+10	1	-1E+10	1
4902551	30	C	06/06/2021	13:56	-135.047	49.490	0	1745.20	0	2.1500	0	34.5430	0	27.603	0	1723.117	0	36.4	4	11.0	4	-1E+10	1	-1E+10	1	-1E+10	1	-1E+10	1	-1E+10	1	-1E+10	1
4902551	30	C	06/06/2021	13:56	-135.047	49.490	0	1755.00	0	2.1400	0	34.5450	0	27.605	0	1732.753	0	37.0	4	11.2	4	-1E+10	1	-1E+10	1	-1E+10	1	-1E+10	1	-1E+10	1	-1E+10	1
4902551	30	C	06/06/2021	13:56	-135.047	49.490	0	1765.10	0	2.1310	0	34.5470	0	27.608	0	1742.684	0	37.7	4	11.4	4	-1E+10	1	-1E+10	1	-1E+10	1	-1E+10	1	-1E+10	1	-1E+10	1
4902551	30	C	06/06/2021	13:56	-135.047	49.490	0	1775.40	0	2.1170	0	34.5490	0	27.611	0	1752.810	0	38.4	4	11.6	4	-1E+10	1	-1E+10	1	-1E+10	1	-1E+10	1	-1E+10	1	-1E+10	1
4902551	30	C	06/06/2021	13:56	-135.047	49.490	0	1785.40	0	2.1100	0	34.5510	0	27.613	0	1762.642	0	38.9	4	11.8	4	-1E+10	1	-1E+10	1	-1E+10	1	-1E+10	1	-1E+10	1	-1E+10	1
4902551	30	C	06/06/2021	13:56	-135.047	49.490	0	1795.00	0	2.1040	0	34.5520	0	27.614	0	1772.079	0	39.3	4	11.9	4	-1E+10	1	-1E+10	1	-1E+10	1	-1E+10	1	-1E+10	1	-1E+10	1
4902551	30	C	06/06/2021	13:56	-135.047	49.490	0	1805.40	0	2.1000	0	34.5530	0	27.615	0	1782.303	0	39.9	4	12.1	4	-1E+10	1	-1E+10	1	-1E+10	1	-1E+10	1	-1E+10	1	-1E+10	1
4902551	30	C	06/06/2021	13:56	-135.047	49.490	0	1815.70	0	2.0900	0	34.5550	0	27.618	0	1792.428	0	40.5	4	12.2	4	-1E+10	1	-1E+10	1	-1E+10	1	-1E+10	1	-1E+10	1	-1E+10	1
4902551	30	C	06/06/2021	13:56	-135.047	49.490	0	1825.80	0	2.0820	0	34.5560	0	27.619	0	1802.355	0	41.1	4	12.4	4	-1E+10	1	-1E+10	1	-1E+10	1	-1E+10	1	-1E+10	1	-1E+10	1
4902551	30	C	06/06/2021	13:56	-135.047	49.490	0	1835.50	0	2.0750	0	34.5580	0	27.621	0	1811.890	0	41.7	4	12.6	4	-1E+10	1	-1E+10	1	-1E+10	1	-1E+10	1	-1E+10	1	-1E+10	1
4902551	30	C	06/06/2021	13:56	-135.047	49.490	0	1845.30	0	2.0650	0	34.5590	0	27.623	0	1821.522	0	42.0	4	12.7	4	-1E+10	1	-1E+10	1	-1E+10	1	-1E+10	1	-1E+10	1	-1E+10	1
4902551	30	C	06/06/2021	13:56	-135.047	49.490	0	1855.60	0	2.0610	0	34.5600	0	27.624	0	1831.644	0	42.5	4	12.8	4	-1E+10	1	-1E+10	1	-1E+10	1	-1E+10	1	-1E+10	1	-1E+10	1
4902551	30	C	06/06/2021	13:56	-135.047	49.490	0	1865.50	0	2.0530	0	34.5620	0	27.627	0	1841.374	0	43.5	4	13.1	4	-1E+10	1	-1E+10	1	-1E+10	1	-1E+10	1	-1E+10	1	-1E+10	1
4902551	30	C	06/06/2021	13:56	-135.047	49.490	0	1875.60	0	2.0400	0	34.5640	0	27.629	0	1851.299	0	44.2	4	13.3	4	-1E+10	1	-1E+10	1	-1E+10	1	-1E+10	1	-1E+10	1	-1E+10	1
4902551	30	C	06/06/2021	13:56	-135.047	49.490	0	1885.40	0	2.0320	0	34.5650	0	27.631	0	1860.929	0	44.8	4	13.5	4	-1E+10	1	-1E+10	1	-1E+10	1	-1E+10	1	-1E+10	1	-1E+10	1
4902551	30	C	06/06/2021	13:56	-135.047	49.490	0	1895.20	0	2.0250	0	34.5670	0	27.633	0	1870.559	0	45.3	4	13.7	4	-1E+10	1	-1E+10	1	-1E+10	1	-1E+10	1	-1E+10	1	-1E+10	1
4902551	30	C	06/06/2021	13:56	-135.047	49.490	0	1905.50	0	2.0200	0	34.5680	0	27.634	0	1880.680	0	45.7	4	13.8	4	-1E+10	1	-1E+10	1	-1E+10	1	-1E+10	1	-1E+10	1	-1E+10	1
4902551	30	C	06/06/2021	13:56	-135.047	49.490	0	1915.70	0	2.0140	0	34.5690	0	27.635	0	1890.702	0	46.2	4	13.9	4	-1E+10	1	-1E+10	1	-1E+10	1	-1E+10	1	-1E+10	1	-1E+10	1
4902551	30	C	06/06/2021	13:56	-135.047	49.490	0	1925.70	0	2.0100	0	34.5700	0	27.637	0	1900.526	0	46.6	4	14.1	4	-1E+10	1	-1E+10	1	-1E+10	1	-1E+10	1	-1E+10	1	-1E+10	1
4902551	30	C	06/06/2021	13:56	-135.047	49.490	0	1935.60	0	2.0050	0	34.5710	0	27.638	0	1910.253	0	47.2	4	14.2	4	-1E+10	1	-1E+10	1	-1E+10	1	-1E+10	1	-1E+10	1	-1E+10	1
4902551	30	C	06/06/2021	13:56	-135.047	49.490	0	1945.60	0	1.9980	0	34.5720	0	27.639	0	1920.077	0	47.8	4	14.4	4	-1E+10	1	-1E+10	1	-1E+10	1	-1E+10	1	-1E+10	1	-1E+10	1
4902551	30	C	06/06/2021	13:56	-135.047	49.490	0	1955.80	0	1.9900	0	34.5740	0	27.642	0	1930.097	0	48.5	4	14.6	4	-1E+10	1	-1E+10	1	-1E+10	1	-1E+10	1	-1E+10	1	-1E+10	1
4902551	30	C	06/06/2021	13:56	-135.047	49.490	0	1965.70	0	1.9830	0	34.5750	0	27.643	0	1939.821	0	49.1	4	14.8	4	-1E+10	1	-1E+10	1	-1E+10	1	-1E+10	1	-1E+10	1	-1E+10	1
4902551	30	C	06/06/2021	13:56	-135.047	49.490	0	1975.40	0	1.9760	0	34.5770	0	27.645	0	1949.349	0	49.7	4	15.0	4	-1E+10	1	-1E+10	1	-1E+10	1	-1E+10	1	-1E+10	1	-1E+10	1
4902551	30	C	06/06/2021	13:56	-135.047	49.490	0	1985.20	0	1.9690	0	34.5780	0	27.647	0	1958.975	0	50.4	4	15.2	4	-1E+10	1	-1E+10	1	-1E+10	1	-1E+10	1	-1E+10	1	-1E+10	1
4902551	30	C	06/06/2021	13:56	-135.047	49.490	0	1995.50	0	1.9620	0	34.5800	0	27.649	0	1969.092	0	50.9	4	15.3	4	-1E+10	1	-1E+10	1	-1E+10	1	-1E+10	1	-1E+10	1	-1E+10	1
4902551	30	C	06/06/2021	13:56	-135.047	49.490	0	2005.30	0	1.9560	0	34.5810	0	27.650	0	1978.716	0	51.5	4	15.5	4	-1E+10	1	-1E+10	1	-1E+10	1	-1E+10	1	-1E+10	1	-1E+10	1
4902551	30	C	06/06/2021	13:56	-135.047	49.490	0	2015.30	0	1.9500	0	34.5820	0	27.651	0	1988.537	0	52.1	4	15.7	4	-1E+10	1	-1E+10	1	-1E+10	1	-1E+10	1	-1E+10	1	-1E+10	1
4902551	30	C	06/06/2021	13:56	-135.047	49.490	0	2025.40	0	1.9400	0	34.5840	0	27.654	0	1998.456	0	52.6	4	15.8	4	-1E+10	1	-1E+10	1	-1E+10	1	-1E+10	1	-1E+10	1	-1E+10	1
4902551	30	C	06/06/2021	13:56	-135.047	49.490	0																										
4902551	31	C	06/16/2021	19:04	-135.010	49.437	0	0.40	0	10.7750	0	32.2850	0	24.702	0	0.397	0	269.7	4	98.0	4	-1E+10	1	-1E+10	1	-1E+10	1	-1E+10	1	-1E+10	1	-1E+10	1
4902551	31	C	06/16/2021	19:04	-135.010	49.437	0	1.10	0	10.7740	0	32.2860	0	24.703	0	1.091	0	269.7	4	97.9	4	-1E+10	1	-1E+10	1	-1E+10	1	-1E+10	1	-1E+10	1	-1E+10	1
4902551	31	C	06/16/2021	19:04	-135.010	49.437	0	2.00	0	10.7730	0	32.2870	0	24.704	0	1.983	0	269.7	4	97.9	4	-1E+10	1	-1E+10	1	-1E+10	1	-1E+10	1	-1E+10	1	-1E+10	1
4902551	31	C	06/16/2021	19:04	-135.010	49.437	0	2.90	0	10.7740	0	32.2860	0	24.703	0	2.875	0	269.7	4	98.0	4	-1E+10	1	-1E+10	1	-1E+10	1	-1E+10	1	-1E+10	1	-1E+10	1
4902551	31	C	06/16/2021	19:04	-135.010	49.437	0	4.10	0	10.7740	0	32.2860	0	24.703	0	4.065	0	269.8	4	98.0	4	-1E+10	1	-1E+10	1	-1E+10	1	-1E+10	1	-1E+10	1	-1E+10	1
4902551	31	C	06/16/2021	19:04	-135.010	49.437	0	4.90	0	10.7700	0	32.2890	0	24.706	0	4.858	0	269.7	4	97.9	4	-1E+10	1	-1E+10	1	-1E+10	1	-1E+10	1	-1E+10	1	-1E+10	1
4902551	31	C	06/16/2021	19:04	-135.010	49.437	0	6.00	0	10.7720	0	32.2890	0	24.705	0	5.949	0	269.8	4	98.0	4	-1E+10	1	-1E+10	1	-1E+10	1	-1E+10	1	-1E+10	1	-1E+10	1
4902551	31	C	06/16/2021	19:04	-135.010	49.437	0	7.20	0	10.7730	0	32.2880	0	24.705	0	7.139	0	269.8	4	98.0	4	-1E+10	1	-1E+10	1	-1E+10	1	-1E+10	1	-1E+10	1	-1E+10	1
4902551	31	C	06/16/2021	19:04	-135.010	49.437	0	8.00	0	10.7730	0	32.2890	0	24.705	0	7.932	0	269.8	4	98.0	4	-1E+10	1	-1E+10	1	-1E+10	1	-1E+10	1	-1E+10	1	-1E+10	1
4902551	31	C	06/16/2021	19:04	-135.010	49.437	0	8.80	0	10.7720	0	32.2890	0	24.706	0	8.725	0	269.9	4	98.0	4	-1E+10	1	-1E+10	1	-1E+10	1	-1E+10	1	-1E+10	1	-1E+10	1
4902551	31	C	06/16/2021	19:04	-135.010	49.437	0	9.80	0	10.7750	0	32.2880	0	24.704	0	9.716	0	269.9	4	98.0	4	-1E+10	1	-1E+10	1	-1E+10	1	-1E+10	1	-1E+10	1	-1E+10	1
4902551	31	C	06/16/2021	19:04	-135.010	49.437	0	10.90	0	10.7750	0	32.2880	0	24.704	0	10.807	0	270.0	4	98.1	4	-1E+10	1	-1E+10	1	-1E+10	1	-1E+10	1	-1E+10	1	-1E+10	1
4902551	31	C	06/16/2021	19:04	-135.010	49.437	0	12.00	0	10.7750	0	32.2880	0	24.704	0	11.897	0	270.2	4	98.1	4	-1E+10	1	-1E+10	1	-1E+10	1	-1E+10	1	-1E+10	1	-1E+10	1
4902551	31	C	06/16/2021	19:04	-135.010	49.437	0	13.00	0	10.7340	0	32.2920	0	24.715	0	12.889	0	270.7	4	98.2	4	-1E+10	1	-1E+10	1	-1E+10	1	-1E+10	1	-1E+10	1	-1E+10	1
4902551	31	C	06/16/2021	19:04	-135.010	49.437	0	14.00	0	10.6590	0	32.2830	0	24.720	0	13.880	0	271.6	4	98.4	4	-1E+10	1	-1E+10	1	-1E+10	1	-1E+10	1	-1E+10	1	-1E+10	1
4902551	31	C	06/16/2021	19:04	-135.010	49.437	0	15.00	0	10.5700	0	32.2790	0	24.733	0	14.872	0	272.4	4	98.5	4	-1E+10	1	-1E+10	1	-1E+10	1	-1E+10	1	-1E+10	1	-1E+10	1
4902551	31	C	06/16/2021	19:04	-135.010	49.437	0	16.20	0	10.3540	0	32.2660	0	24.759	0	16.061	0	273.4	4	98.4	4	-1E+10	1	-1E+10	1	-1E+10	1	-1E+10	1	-1E+10	1	-1E+10	1
4902551	31	C	06/16/2021	19:04	-135.010	49.437	0	17.00	0	10.4020	0	32.2960	0	24.775	0	16.854	0	273.6	4	98.6	4	-1E+10	1	-1E+10	1	-1E+10	1	-1E+10	1	-1E+10	1	-1E+10	1
4902551	31	C	06/16/2021	19:04	-135.010	49.437	0	18.00	0	10.0420	0	32.3090	0	24.845	0	17.846	0	274.9	4	98.3	4	-1E+10	1	-1E+10	1	-1E+10	1	-1E+10	1	-1E+10	1	-1E+10	1
4902551	31	C	06/16/2021	19:04	-135.010	49.437	0	19.10	0	9.9910	0	32.3060	0	24.851	0	18.936	0	275.2	4	98.3	4	-1E+10	1	-1E+10	1	-1E+10	1	-1E+10	1	-1E+10	1	-1E+10	1
4902551	31	C	06/16/2021	19:04	-135.010	49.437	0	20.00	0	9.9830	0	32.3060	0	24.853	0	19.829	0	275.2	4	98.3	4	-1E+10	1	-1E+10	1	-1E+10	1	-1E+10	1	-1E+10	1	-1E+10	1
4902551	31	C	06/16/2021	19:04	-135.010	49.437	0	20.90	0	9.9800	0	32.3060	0	24.853	0	20.721	0	275.2	4	98.3	4	-1E+10	1	-1E+10	1	-1E+10	1	-1E+10	1	-1E+10	1	-1E+10	1
4902551	31	C	06/16/2021	19:04	-135.010	49.437	0	22.10	0	9.9760	0	32.3060	0	24.854	0	21.910	0	275.3	4	98.3	4	-1E+10	1	-1E+10	1	-1E+10	1	-1E+10	1	-1E+10	1	-1E+10	1
4902551	31	C	06/16/2021	19:04	-135.010	49.437	0	23.00	0	9.9740	0	32.3050	0	24.853	0	22.803	0	275.3	4	98.3	4	-1E+10	1	-1E+10	1	-1E+10	1	-1E+10	1	-1E+10	1	-1E+10	1
4902551	31	C	06/16/2021	19:04	-135.010	49.437	0	23.90	0	9.9690	0	32.3060	0	24.855	0	23.695	0	275.3	4	98.3	4	-1E+10	1	-1E+10	1	-1E+10	1	-1E+10	1	-1E+10	1	-1E+10	1
4902551	31	C	06/16/2021	19:04	-135.010	49.437	0	25.10	0	9.9640	0	32.3060	0	24.856	0	24.885	0	275.4	4	98.3	4	-1E+10	1	-1E+10	1	-1E+10	1	-1E+10	1	-1E+10	1	-1E+10	1
4902551	31	C	06/16/2021	19:04	-135.010	49.437	0	26.00	0	9.9630	0	32.3060	0	24.856	0	25.777	0	275.5	4	98.3	4	-1E+10	1	-1E+10	1	-1E+10	1	-1E+10	1	-1E+10	1	-1E+10	1
4902551	31	C	06/16/2021	19:04	-135.010	49.437	0	26.90	0	9.9620	0	32.3050	0	24.855	0	26.669	0	275.5	4	98.3	4	-1E+10	1	-1E+10	1	-1E+10	1	-1E+10	1	-1E+10	1	-1E+10	1
4902551	31	C	06/16/2021	19:04	-135.010	49.437	0	28.00	0	9.9580	0	32.3050	0	24.856	0	27.760	0	275.6	4	98.4	4	-1E+10	1	-1E+10	1	-1E+10	1	-1E+10	1	-1E+10	1	-1E+10	1
4902551	31	C	06/16/2021	19:04	-135.010	49.437	0	28.90	0	9.9460	0	32.3050	0	24.858	0	28.652	0	275.7	4	98.4	4	-1E+10	1	-1E+10	1	-1E+10	1	-1E+10	1	-1E+10	1	-1E+10	1
4902551	31	C	06/16/2021	19:04	-135.010	49.437	0	30.00	0	9.8490	0	32.3120	0	24.879	0	29.742	0	276.3	4	98.4	4	-1E+10	1	-1E+10	1	-1E+10	1	-1E+10	1	-1E+10	1	-1E+10	1
4902551	31	C	06/16/2021	19:04	-135.010	49.437	0	30.90	0	9.7820	0	32.3130	0	24.891	0	30.634	0	276.9	4	98.4	4	-1E+10	1	-1E+10	1	-1E+10	1	-1E+10	1	-1E+10	1	-1E+10	1
4902551	31	C	06/16/2021	19:04	-135.010	49.437	0	32.00	0	9.6010	0	32.3210	0	24.927	0	31.725	0	277.7	4	98.3	4	-1E+10	1	-1E+10	1	-1E+10	1	-1E+10	1	-1E+10	1	-1E+10	1
4902551	31	C	06/16/2021	19:04	-135.010	49.437	0	33.10	0	9.4580	0	32.3230	0	24.951	0	32.815	0	278.2	4	98.2	4	-1E+10	1	-1E+10	1	-1E+10	1	-1E+10	1	-1E+10	1	-1E+10	1
4902551	31	C	06/16/2021	19:04	-135.010	49.437	0	34.00	0	9.4320	0	32.3240	0	24.956	0	33.707	0	278.4	4	98.2	4	-1E+10	1	-1E+10	1	-1E+10	1	-1E+10	1	-1E+10	1	-1E+10	1
4902551	31	C	06/16/2021	19:04	-135.010	49.437	0	34.90	0	9.3940	0	32.3240	0	24.962	0	34.600	0	278.8	4	98.3	4	-1E+10	1	-1E+10	1	-1E+10	1	-1E+10	1	-1E+10	1	-1E+10	1
4902551	31	C	06/16/2021	19:04	-135.010	49.437	0	35.90	0	9.3310	0	32.3260	0	24.974	0	35.591	0	279.0	4	98.2	4	-1E+10	1	-1E+10	1	-1E+10	1	-1E+10	1	-1E+10	1	-1E+10	1
4902551	31	C	06/16/2021	19:04	-135.010	49.437	0	36.80	0	9.2850	0	32.3260	0	24.981	0	36.483	0	279.4	4	98.3	4	-1E+10	1	-1E+10	1	-1E+10	1	-1E+10	1	-1E+10	1	-1E+10	1
4902551	31	C	06/16/2021	19:04	-135.010	49.437	0	37.80	0	9.2230	0	32.3280	0	24.993	0	37.474	0	279.9	4	98.3	4	-1E+10	1	-1E+10	1	-1E+10	1	-1E+10	1	-1E+10	1	-1E+10	1
4902551	31	C	06/16/2021	19:04	-135.010	49.437	0	39.00	0	9.0660	0	32.3330	0	25.021	0	38.664	0	280.5	4	98.2	4	-1E+10	1	-1E+10	1	-1E+10	1	-1E+10	1	-1E+10	1	-1E+10	1
4902551	31	C	06/16/2021	19:04	-135.010	49.437	0	40.00	0	8.8760	0	32.3350	0	25.052	0	39.655	0	281.2	4	98.0	4	-1E+10	1	-1E+10	1	-1E+10	1	-1E+10	1	-1E+10	1	-1E+10	1
4902551	31	C	06/16/2021	19:04	-135.010	49.437	0	41.00	0	8.7640	0	32.3400	0	25.073	0	40.647	0	281.6	4	97.9	4	-1E+10	1	-1E+10	1	-1E+10	1	-1E+10	1	-1E+10	1	-1E+10	1
4902551	31	C	06/16/2021	19:04	-135.010	49.437	0	41.90	0	8.7130	0	32.3420	0	25.082	0	41.539	0	281.7	4	97.9	4	-1E+10	1	-1E+10	1	-1E+10	1	-1E+10	1	-1E+10	1	-1E+10	1
4902551	31	C	06/16/2021	19:04	-135.010	49.437	0	42.90	0	8.6050	0	32.3430	0	25.099	0	42.530	0	281.9	4	97.7	4	-1E+10	1	-1E+10	1	-1E+10	1	-1E+10	1	-1E+10	1	-1E+10	1
4902551	31	C	06/16/2021	19:04	-135.010	49.437	0	43.90	0	8.4700	0	32.3460	0	25.122	0	43.521	0	282.2	4	97.5	4	-1E+10	1	-1E+10	1	-1E+10	1	-1E+10	1	-1E+10	1	-1E+10	1
4902551	31	C	06/16/2021	19:04	-135.010	49.437	0	44.90	0	8.2760	0	32.3550	0	25.158	0	44.513	0	282.4	4	97.2	4	-1E+10	1	-1E+10	1	-1E+10	1	-1E+10	1	-1E+10	1	-1E+10	1
4902551	31	C	06/16/2021	19:04	-135.010	49.437	0	46.00	0	8.1010	0	32.3630	0	25.190	0	45.603	0	282.7	4	96.9	4	-1E+10	1	-1E+10	1	-1E+10	1	-1E+10	1	-1E+10	1	-1E+10	1
4902551	31	C	06/16/2021	19:04	-135.010	49.437	0	47.20	0	7.9070	0	32.3670	0	25.221	0	46.792	0	283.1	4	96.6	4	-1E+10	1	-1E+10	1	-1E+10	1	-1E+10	1	-1E+10	1	-1E+10	1
4902551	31	C	06/16/2021	19:04	-135.010	49.437	0	48.00	0	7.7640	0	32.3680	0	25.242	0	47.585	0	283.3	4	96.3	4	-1E+10	1	-1E+10	1	-1E+10	1	-1E+10	1	-1E+10	1	-1E+10	1
4902551	31	C	06/16/2021	19:04	-135.010	49.437	0	49.00	0	7.5820	0	32.3770	0	25.275	0	48.577	0	283.4	4	96.0	4	-1E+10	1	-1E+10	1	-1E+10	1	-1E+10	1	-1E+10	1	-1E+10	1
4902551	31	C	06/16/2021	19:04	-135.010	49.437	0	50.00	0	7.4550	0	32.3860	0	25.299	0	49.568	0	283.5	4	95.8	4	-1E+10	1	-1E+10	1	-1E+10	1	-1E+10	1	-1E+10	1	-1E+10	1
4902551	31	C	06/16/2021	19:04	-135.010	49.437	0	51.00	0	7.4310	0	32.3840	0	25.301	0	50.559	0	283.3	4	95.6	4	-1E+10	1	-1E+10	1	-1E+10	1	-1E+10	1	-1E+10	1	-1E+10	1
4902551	31	C	06/16/2021	19:04	-135.010	49.437	0	52.10	0	7.4080	0	32.3850	0	25.305	0	51.649	0	283.1	4	95.5	4	-1E+10	1	-1E+10	1	-1E+10	1	-1E+10	1	-1E+10	1	-1E+10	1
4902551	31	C	06/16/2021	19:04	-135.010	49.437	0	53.10	0	7.3780	0	32.3850	0	25.309	0	52.641	0	283.0	4	95.4	4	-1E+10	1	-1E+10	1	-1E+10	1	-1E+10	1	-1E+10	1	-1E+10	1
4902551	31	C	06/16/2021	19:04	-135.010	49.437	0	54.00	0	7.3700	0	32.3850	0	25.310	0	53.533	0	282.9	4	95.4	4	-1E+10	1	-1E+10	1	-1E+10	1	-1E+10	1	-1E+10	1	-1E+10	1
4902551	31	C	06/16/2021	19:04	-135.010	49.437	0	54.80	0	7.3560	0	32.3860	0	25.313	0	54.326	0	282.7	4	95.3	4	-1E+10	1	-1E+10	1	-1E+10	1	-1E+10	1	-1E+10	1	-1E+10	1
4902551	31	C	06/16/2021	19:04	-135.010	49.437	0	55.90	0	7.3370	0	32.3870	0	25.316	0	55.416	0	282.6	4	95.2	4	-1E+10	1	-1E+10	1	-1E+10	1	-1E+10	1	-1E+10	1	-1E+10	1
4902551	31	C	06/16/2021	19:04	-135.010	49.437	0	57.00	0	7.3190	0	32.3880	0	25.320	0	56.506	0	282.4	4	95.1	4	-1E+10	1	-1E+10	1	-1E+10	1	-1E+10	1	-1E+10	1	-1E+10	1
4902551	31	C	06/16/2021	19:04	-135.010	49.437	0	57.90	0	7.2990	0	32.3920	0	25.325	0	57.399	0	282.3	4	95.0	4	-1E+10	1	-1E+10	1	-1E+10	1	-1E+10	1	-1E+10	1	-1E+10	1
4902551	31	C	06/16/2021	19:04	-135.010	49.437	0	58.80	0	7.2880	0	32.3890	0	25.325	0	58.291	0	282.2	4	94.9	4	-1E+10	1	-1E+10	1	-1E+10	1	-1E+10	1	-1E+10	1	-1E+10	1
4902551	31	C	06/16/2021	19:04	-135.010	49.437	0	59.80	0	7.2680	0	32.3900	0	25.328	0	59.282	0	281.9	4	94.8	4	-1E+10	1	-1E+10	1	-1E+10	1	-1E+10	1	-1E+10	1	-1E+10	1
4902551	31	C	06/16/2021	19:04	-135.010	49.437	0	60.80	0	7.2540	0	32.3900	0	25.330	0	60.273	0	281.7	4	94.7	4	-1E+10	1	-1E+10	1	-1E+10	1	-1E+10	1	-1E+10	1	-1E+10	1
4902551	31	C	06/16/2021	19:04	-135.010	49.437	0	62.00	0	7.2100	0	32.3920	0	25.338	0	61.462	0	281.5	4	94.6	4	-1E+10	1	-1E+10	1	-1E+10	1	-1E+10	1	-1E+10	1	-1E+10	1
4902551	31	C	06/16/2021	19:04	-135.010	49.437	0	63.00	0	7.1910	0	32.3930	0	25.341	0	62.454	0	281.2	4	94.4	4	-1E+10	1	-1E+10	1	-1E+10	1	-1E+10	1	-1E+10	1	-1E+10	1
4902551	31	C	06/16/2021	19:04	-135.010	49.437	0	63.90	0	7.1630	0	32.3930	0	25.345	0	63.346	0	281.1	4	94.3	4	-1E+10	1	-1E+10	1	-1E+10	1	-1E+10	1	-1E+10	1	-1E+10	1
4902551	31	C	06/16/2021	19:04	-135.010	49.437	0	64.80	0	7.1020	0	32.3970	0	25.356	0	64.238	0	281.0	4	94.2	4	-1E+10	1	-1E+10	1	-1E+10	1	-1E+10	1	-1E+10	1	-1E+10	1
4902551	31	C	06/16/2021	19:04	-135.010	49.437	0	65.90	0	7.0620	0	32.4010	0	25.365	0	65.328	0	280.9	4	94.0	4	-1E+10	1	-1E+10	1	-1E+10	1	-1E+10	1	-1E+10	1	-1E+10	1
4902551	31	C	06/16/2021	19:04	-135.010	49.437	0	67.00	0	7.0360	0	32.4040	0	25.371	0	66.418	0	280.8	4	94.0	4	-1E+10	1	-1E+10	1	-1E+10	1	-1E+10	1	-1E+10	1	-1E+10	1
4902551	31	C	06/16/2021	19:04	-135.010	49.437	0	68.10	0	7.0130	0	32.4060	0	25.375	0	67.509	0	280.8	4	93.9	4	-1E+10	1	-1E+10	1	-1E+10	1	-1E+10	1	-1E+10	1	-1E+10	1
4902551	31	C	06/16/2021	19:04	-135.010	49.437	0	68.80	0	6.9880	0	32.4070	0	25.379	0	68.202	0	280.7	4	93.8	4	-1E+10	1	-1E+10	1	-1E+10	1	-1E+10	1	-1E+10	1	-1E+10	1
4902551	31	C	06/16/2021	19:04	-135.010	49.437	0	70.00	0	6.9710	0	32.4080	0	25.382	0	69.392	0	280.4	4	93.7	4	-1E+10	1	-1E+10	1	-1E+10	1	-1E+10	1	-1E+10	1	-1E+10	1
4902551	31	C	06/16/2021	19:04	-135.010	49.437	0	71.10	0	6.9520	0	32.4120	0	25.388	0	70.482	0	280.3	4	93.6	4	-1E+10	1	-1E+10	1	-1E+10	1	-1E+10	1	-1E+10	1	-1E+10	1
4902551	31	C	06/16/2021	19:04	-135.010	49.437	0	71.90	0	6.9350	0	32.4160	0	25.393	0	71.275	0	280.1	4	93.5	4	-1E+10	1	-1E+10	1	-1E+10	1	-1E+10	1	-1E+10	1	-1E+10	1
4902551	31	C	06/16/2021	19:04	-135.010	49.437	0	72.90	0	6.9280	0	32.4160	0	25.394	0	72.266	0	279.7	4	93.4	4	-1E+10	1	-1E+10	1	-1E+10	1	-1E+10	1	-1E+10	1	-1E+10	1
4902551	31	C	06/16/2021	19:04	-135.010	49.437	0	74.00	0	6.9080	0	32.4190	0	25.399	0	73.356	0	279.4	4	93.2	4	-1E+10	1	-1E+10	1	-1E+10	1	-1E+10	1	-1E+10	1	-1E+10	1
4902551	31	C	06/16/2021	19:04	-135.010	49.437	0	75.20	0	6.8780	0	32.4210	0	25.405	0	74.546	0	279.1	4	93.1	4	-1E+10	1	-1E+10	1	-1E+10	1	-1E+10	1	-1E+10	1	-1E+10	1
4902551	31	C	06/16/2021	19:04	-135.010	49.437	0	75.90	0	6.8720	0	32.4200	0	25.405	0	75.239	0	278.9	4	93.0	4	-1E+10	1	-1E+10	1	-1E+10	1	-1E+10	1	-1E+10	1	-1E+10	1
4902551	31	C	06/16/2021	19:04	-135.010	49.437	0	77.00	0	6.7860	0	32.4260	0	25.421	0	76.330	0	278.9	4	92.8	4	-1E+10	1	-1E+10	1	-1E+10	1	-1E+10	1	-1E+10	1	-1E+10	1
4902551	31	C	06/16/2021	19:04	-135.010	49.437	0	78.00	0	6.7640	0	32.4280	0	25.425	0	77.321	0	278.6	4	92.6	4	-1E+10	1	-1E+10	1	-1E+10	1	-1E+10	1	-1E+10	1	-1E+10	1
4902551	31	C	06/16/2021	19:04	-135.010	49.437	0	79.10	0	6.7450	0	32.4340	0	25.433	0	78.411	0	278.3	4	92.5	4	-1E+10	1	-1E+10	1	-1E+10	1	-1E+10	1	-1E+10	1	-1E+10	1
4902551	31	C	06/16/2021	19:04	-135.010	49.437	0	79.80	0	6.7340	0	32.4320	0	25.432	0	79.105	0	278.1	4	92.4	4	-1E+10	1	-1E+10	1	-1E+10	1	-1E+10	1	-1E+10	1	-1E+10	1
4902551	31	C	06/16/2021	19:04	-135.010	49.437	0	80.90	0	6.7160	0	32.4320	0	25.435	0	80.195	0	277.6	4	92.2	4	-1E+10	1	-1E+10	1	-1E+10	1	-1E+10	1	-1E+10	1	-1E+10	1
4902551	31	C	06/16/2021	19:04	-135.010	49.437	0	82.00	0	6.6720	0	32.4350	0	25.443	0	81.285	0	277.1	4	92.0	4	-1E+10	1	-1E+10	1	-1E+10	1	-1E+10	1	-1E+10	1	-1E+10	1
4902551	31	C	06/16/2021	19:04	-135.010	49.437	0	83.10	0	6.6110	0	32.4410	0	25.456	0	82.375	0	276.7	4	91.7	4	-1E+10	1	-1E+10	1	-1E+10	1	-1E+10	1	-1E+10	1	-1E+10	1
4902551	31	C	06/16/2021	19:04	-135.010	49.437	0	83.80	0	6.6100	0	32.4410	0	25.456	0	83.069	0	276.1	4	91.5	4	-1E+10	1	-1E+10	1	-1E+10	1	-1E+10	1	-1E+10	1	-1E+10	1
4902551	31	C	06/16/2021	19:04	-135.010	49.437	0	84.90	0	6.6000	0	32.4430	0	25.459	0	84.159	0	275.1	4	91.1	4	-1E+10	1	-1E+10	1	-1E+10	1	-1E+10	1	-1E+10	1	-1E+10	1
4902551	31	C	06/16/2021	19:04	-135.010	49.437	0	85.90	0	6.5320	0	32.4550	0	25.477	0	85.150	0	274.3	4	90.8	4	-1E+10	1	-1E+10	1	-1E+10	1	-1E+10	1	-1E+10	1	-1E+10	1
4902551	31	C	06/16/2021	19:04	-135.010	49.437	0	86.80	0	6.5090	0	32.4520	0	25.477	0	86.042	0	273.5	4	90.5	4	-1E+10	1	-1E+10	1	-1E+10	1	-1E+10	1	-1E+10	1	-1E+10	1
4902551	31	C	06/16/2021	19:04	-135.010	49.437	0	88.10	0	6.4860	0	32.4530	0	25.481	0	87.331	0	271.8	4	89.9	4	-1E+10	1	-1E+10	1	-1E+10	1	-1E+10	1	-1E+10	1	-1E+10	1
4902551	31	C	06/16/2021	19:04	-135.010	49.437	0	89.00	0	6.4460	0	32.4590	0	25.491	0	88.223	0	270.6	4	89.4	4	-1E+10	1	-1E+10	1	-1E+10	1	-1E+10	1	-1E+10	1	-1E+10	1
4902551	31	C	06/16/2021	19:04	-135.010	49.437	0	89.80	0	6.4170	0	32.4620	0	25.497	0	89.015	0	269.3	4	88.9	4	-1E+10	1	-1E+10	1	-1E+10	1	-1E+10	1	-1E+10	1	-1E+10	1
4902551	31	C	06/16/2021	19:04	-135.010	49.437	0	91.10	0	6.4130	0	32.4680	0	25.502	0	90.304	0	266.9	4	88.1	4	-1E+10	1	-1E+10	1	-1E+10	1	-1E+10	1	-1E+10	1	-1E+10	1
4902551	31	C	06/16/2021	19:04	-135.010	49.437	0	91.90	0	6.4410	0	32.4810	0	25.509	0	91.097	0	265.0	4	87.5	4	-1E+10	1	-1E+10	1	-1E+10	1	-1E+10	1	-1E+10	1	-1E+10	1
4902551	31	C	06/16/2021	19:04	-135.010	49.437	0	93.10	0	6.4750	0	32.5010	0	25.520	0	92.286	0	262.7	4	86.8	4	-1E+10	1	-1E+10	1	-1E+10	1	-1E+10	1	-1E+10	1	-1E+10	1
4902551	31	C	06/16/2021	19:04	-135.010	49.437	0	93.80	0	6.4970	0	32.5120	0	25.526	0	92.980	0	261.5	4	86.5	4	-1E+10	1	-1E+10	1	-1E+10	1	-1E+10	1	-1E+10	1	-1E+10	1
4902551	31	C	06/16/2021	19:04	-135.010	49.437	0	94.90	0	6.5640	0	32.5390	0	25.539	0	94.070	0	259.8	4	86.1	4	-1E+10	1	-1E+10	1	-1E+10	1	-1E+10	1	-1E+10	1	-1E+10	1
4902551	31	C	06/16/2021	19:04	-135.010	49.437	0	96.30	0	6.5940	0	32.5490	0	25.543	0	95.457	0	257.9	4	85.5	4	-1E+10	1	-1E+10	1	-1E+10	1	-1E+10	1	-1E+10	1	-1E+10	1
4902551	31	C	06/16/2021	19:04	-135.010	49.437	0	97.00	0	6.5950	0	32.5500	0	25.544	0	96.151	0	256.6	4	85.1	4	-1E+10	1	-1E+10	1	-1E+10	1	-1E+10	1	-1E+10	1	-1E+10	1
4902551	31	C	06/16/2021	19:04	-135.010	49.437	0	98.00	0	6.6040	0	32.5550	0	25.546	0	97.142	0	254.6	4	84.4	4	-1E+10	1	-1E+10	1	-1E+10	1	-1E+10	1	-1E+10	1	-1E+10	1
4902551	31	C	06/16/2021	19:04	-135.010	49.437	0	99.00	0	6.6120	0	32.5740	0	25.560	0	98.133	0	252.4	4	83.7	4	-1E+10	1	-1E+10	1	-1E+10	1	-1E+10	1	-1E+10	1	-1E+10	1
4902551	31	C	06/16/2021	19:04	-135.010	49.437	0	100.00	0	6.6180	0	32.5860	0	25.569	0	99.124	0	250.4	4	83.1	4	-1E+10	1	-1E+10	1	-1E+10	1	-1E+10	1	-1E+10	1	-1E+10	1
4902551	31	C	06/16/2021	19:04	-135.010	49.437	0	101.00	0	6.6270	0	32.6000	0	25.579	0	100.115	0	248.2	4	82.4	4	-1E+10	1	-1E+10	1	-1E+10	1	-1E+10	1	-1E+10	1	-1E+10	1
4902551	31	C	06/16/2021	19:04	-135.010	49.437	0	102.00	0	6.6440	0	32.6170	0	25.590	0	101.106	0	246.2	4	81.8	4	-1E+10	1	-1E+10	1	-1E+10	1	-1E+10	1	-1E+10	1	-1E+10	1
4902551	31	C	06/16/2021	19:04	-135.010	49.437	0	103.10	0	6.6670	0	32.6270	0	25.595	0	102.196	0	243.8	4	81.0	4	-1E+10	1	-1E+10	1	-1E+10	1	-1E+10	1	-1E+10	1	-1E+10	1
4902551	31	C	06/16/2021	19:04	-135.010	49.437	0	104.10	0	6.6800	0	32.6400	0	25.604	0	103.187	0	239.7	4	79.7	4	-1E+10	1	-1E+10	1	-1E+10	1	-1E+10	1	-1E+10	1	-1E+10	1
4902551	31	C	06/16/2021	19:04	-135.010	49.437	0	105.00	0	6.6850	0	32.6480	0	25.609	0	104.079	0	234.8	4	78.1	4	-1E+10	1	-1E+10	1	-1E+10	1	-1E+10	1	-1E+10	1	-1E+10	1
4902551	31	C	06/16/2021	19:04	-135.010	49.437	0	105.80	0	6.7050	0	32.6710	0	25.625	0	104.871	0	231.2	4	76.9	4	-1E+10	1	-1E+10	1	-1E+10	1	-1E+10	1	-1E+10	1	-1E+10	1
4902551	31	C	06/16/2021	19:04	-135.010	49.437	0	106.80	0	6.6940	0	32.7380	0	25.679	0	105.862	0	228.2	4	75.9	4	-1E+10	1	-1E+10	1	-1E+10	1	-1E+10	1	-1E+10	1	-1E+10	1
4902551	31	C	06/16/2021	19:04	-135.010	49.437	0	107.80	0	6.6670	0	32.7770	0	25.713	0	106.853	0	225.7	4	75.1	4	-1E+10	1	-1E+10	1	-1E+10	1	-1E+10	1	-1E+10	1	-1E+10	1
4902551	31	C	06/16/2021	19:04	-135.010	49.437	0	108.90	0	6.6630	0	32.7840	0	25.719	0	107.943	0	222.5	4	74.0	4	-1E+10	1	-1E+10	1	-1E+10	1	-1E+10	1	-1E+10	1	-1E+10	1
4902551	31	C	06/16/2021	19:04	-135.010	49.437	0	109.90	0	6.6570	0	32.7900	0	25.725	0	108.934	0	218.6	4	72.7	4	-1E+10	1	-1E+10	1	-1E+10	1	-1E+10	1	-1E+10	1	-1E+10	1
4902551	31	C	06/16/2021	19:04	-135.010	49.437	0	111.00	0	6.6490	0	32.8020	0	25.735	0	110.024	0	214.0	4	71.2	4	-1E+10	1	-1E+10	1	-1E+10	1	-1E+10	1	-1E+10	1	-1E+10	1
4902551	31	C	06/16/2021	19:04	-135.010	49.437	0	112.20	0	6.6190	0	32.8910	0	25.810	0	111.214	0	209.4	4	69.7	4	-1E+10	1	-1E+10	1	-1E+10	1	-1E+10	1	-1E+10	1	-1E+10	1
4902551	31	C	06/16/2021	19:04	-135.010	49.437	0	112.80	0	6.6190	0	32.9260	0	25.837	0	111.808	0	207.7	4	69.1	4	-1E+10	1	-1E+10	1	-1E+10	1	-1E+10	1	-1E+10	1	-1E+10	1
4902551	31	C	06/16/2021	19:04	-135.010	49.437	0	113.70	0	6.6170	0	32.9560	0	25.861	0	112.700	0	205.6	4	68.4	4	-1E+10	1	-1E+10	1	-1E+10	1	-1E+10	1	-1E+10	1	-1E+10	1
4902551	31	C	06/16/2021	19:04	-135.010	49.437	0	115.10	0	6.6210	0	33.0430	0	25.929	0	114.087	0	203.3	4	67.7	4	-1E+10	1	-1E+10	1	-1E+10	1	-1E+10	1	-1E+10	1	-1E+10	1
4902551	31	C	06/16/2021	19:04	-135.010	49.437	0	116.00	0	6.6220	0	33.0480	0	25.933	0	114.979	0	201.2	4	67.0	4	-1E+10	1	-1E+10	1	-1E+10	1	-1E+10	1	-1E+10	1	-1E+10	1
4902551	31	C	06/16/2021	19:04	-135.010	49.437	0	117.00	0	6.6220	0	33.0500	0	25.935	0	115.970	0	198.4	4	66.1	4	-1E+10	1	-1E+10	1	-1E+10	1	-1E+10	1	-1E+10	1	-1E+10	1
4902551	31	C	06/16/2021	19:04	-135.010	49.437	0	118.00	0	6.6240	0	33.0600	0	25.942	0	116.961	0	195.5	4	65.1	4	-1E+10	1	-1E+10	1	-1E+10	1	-1E+10	1	-1E+10	1	-1E+10	1
4902551	31	C	06/16/2021	19:04	-135.010	49.437	0	118.80	0	6.6290	0	33.0800	0	25.957	0	117.754	0	191.8	4	63.9	4	-1E+10	1	-1E+10	1	-1E+10	1	-1E+10	1	-1E+10	1	-1E+10	1
4902551	31	C	06/16/2021	19:04	-135.010	49.437	0	119.80	0	6.6320	0	33.1240	0	25.992	0	118.745	0	187.3	4	62.4	4	-1E+10	1	-1E+10	1	-1E+10	1	-1E+10	1	-1E+10	1	-1E+10	1
4902551	31	C	06/16/2021	19:04	-135.010	49.437	0	120.80	0	6.6310	0	33.1450	0	26.008	0	119.736	0	182.9	4	61.0	4	-1E+10	1	-1E+10	1	-1E+10	1	-1E+10	1	-1E+10	1	-1E+10	1
4902551	31	C	06/16/2021	19:04	-135.010	49.437	0	122.00	0	6.5880	0	33.2000	0	26.057	0	120.925	0	179.4	4	59.8	4	-1E+10	1	-1E+10	1	-1E+10	1	-1E+10	1	-1E+10	1	-1E+10	1
4902551	31	C	06/16/2021	19:04	-135.010	49.437	0	123.00	0	6.5640	0	33.2290	0	26.083	0	121.915	0	176.9	4	58.9	4	-1E+10	1	-1E+10	1	-1E+10	1	-1E+10	1	-1E+10	1	-1E+10	1
4902551	31	C	06/16/2021	19:04	-135.010	49.437	0	123.90	0	6.5130	0	33.2700	0	26.122	0	122.807	0	174.6	4	58.1	4	-1E+10	1	-1E+10	1	-1E+10	1	-1E+10	1	-1E+10	1	-1E+10	1
4902551	31	C	06/16/2021	19:04	-135.010	49.437	0	124.80	0	6.4720	0	33.3070	0	26.157	0	123.699	0	171.9	4	57.2	4	-1E+10	1	-1E+10	1	-1E+10	1	-1E+10	1	-1E+10	1	-1E+10	1
4902551	31	C	06/16/2021	19:04	-135.010	49.437	0	125.90	0	6.4230	0	33.3720	0	26.214	0	124.789	0	168.0	4	55.8	4	-1E+10	1	-1E+10	1	-1E+10	1	-1E+10	1	-1E+10	1	-1E+10	1
4902551	31	C	06/16/2021	19:04	-135.010	49.437	0	127.00	0	6.3950	0	33.4080	0	26.246	0	125.879	0	165.2	4	54.9	4	-1E+10	1	-1E+10	1	-1E+10	1	-1E+10	1	-1E+10	1	-1E+10	1
4902551	31	C	06/16/2021	19:04	-135.010	49.437	0	128.10	0	6.3930	0	33.4110	0	26.249	0	126.969	0	162.6	4	54.0	4	-1E+10	1	-1E+10	1	-1E+10	1	-1E+10	1	-1E+10	1	-1E+10	1
4902551	31	C	06/16/2021	19:04	-135.010	49.437	0	128.90	0	6.3890	0	33.4140	0	26.252	0	127.762	0	160.7	4	53.4	4	-1E+10	1	-1E+10	1	-1E+10	1	-1E+10	1	-1E+10	1	-1E+10	1
4902551	31	C	06/16/2021	19:04	-135.010	49.437	0	129.80	0	6.3710	0	33.4330	0	26.269	0	128.653	0	159.0	4	52.8	4	-1E+10	1	-1E+10	1	-1E+10	1	-1E+10	1	-1E+10	1	-1E+10	1
4902551	31	C	06/16/2021	19:04	-135.010	49.437	0	130.80	0	6.3370	0	33.4770	0	26.308	0	129.644	0	157.5	4	52.3	4	-1E+10	1	-1E+10	1	-1E+10	1	-1E+10	1	-1E+10	1	-1E+10	1
4902551	31	C	06/16/2021	19:04	-135.010	49.437	0	131.80	0	6.2970	0	33.5180	0	26.346	0	130.635	0	156.6	4	51.9	4	-1E+10	1	-1E+10	1	-1E+10	1	-1E+10	1	-1E+10	1	-1E+10	1
4902551	31	C	06/16/2021	19:04	-135.010	49.437	0	132.90	0	6.2860	0	33.5290	0	26.356	0	131.725	0	155.6	4	51.6	4	-1E+10	1	-1E+10	1	-1E+10	1	-1E+10	1	-1E+10	1	-1E+10	1
4902551	31	C	06/16/2021	19:04	-135.010	49.437	0	133.90	0	6.2790	0	33.5350	0	26.362	0	132.716	0	154.7	4	51.3	4	-1E+10	1	-1E+10	1	-1E+10	1	-1E+10	1	-1E+10	1	-1E+10	1
4902551	31	C	06/16/2021	19:04	-135.010	49.437	0	135.10	0	6.2680	0	33.5460	0	26.372	0	133.905	0	153.6	4	50.9	4	-1E+10	1	-1E+10	1	-1E+10	1	-1E+10	1	-1E+10	1	-1E+10	1
4902551	31	C	06/16/2021	19:04	-135.010	49.437	0	135.80	0	6.2640	0	33.5500	0	26.375	0	134.598	0	152.9	4	50.7	4	-1E+10	1	-1E+10	1	-1E+10	1	-1E+10	1	-1E+10	1	-1E+10	1
4902551	31	C	06/16/2021	19:04	-135.010	49.437	0	136.90	0	6.2600	0	33.5520	0	26.377	0	135.688	0	151.8	4	50.3	4	-1E+10	1	-1E+10	1	-1E+10	1	-1E+10	1	-1E+10	1	-1E+10	1
4902551	31	C	06/16/2021	19:04	-135.010	49.437	0	137.90	0	6.2590	0	33.5530	0	26.378	0	136.679	0	150.6	4	49.9	4	-1E+10	1	-1E+10	1	-1E+10	1	-1E+10	1	-1E+10	1	-1E+10	1
4902551	31	C	06/16/2021	19:04	-135.010	49.437	0	139.00	0	6.2570	0	33.5540	0	26.379	0	137.769	0	149.0	4	49.4	4	-1E+10	1	-1E+10	1	-1E+10	1	-1E+10	1	-1E+10	1	-1E+10	1
4902551	31	C	06/16/2021	19:04	-135.010	49.437	0	140.10	0	6.2550	0	33.5560	0	26.381	0	138.859	0	147.1	4	48.8	4	-1E+10	1	-1E+10	1	-1E+10	1	-1E+10	1	-1E+10	1	-1E+10	1
4902551	31	C	06/16/2021	19:04	-135.010	49.437	0	140.80	0	6.2520	0	33.5590	0	26.384	0	139.553	0	145.6	4	48.3	4	-1E+10	1	-1E+10	1	-1E+10	1	-1E+10	1	-1E+10	1	-1E+10	1
4902551	31	C	06/16/2021	19:04	-135.010	49.437	0	141.80	0	6.2440	0	33.5630	0	26.388	0	140.543	0	143.2	4	47.4	4	-1E+10	1	-1E+10	1	-1E+10	1	-1E+10	1	-1E+10	1	-1E+10	1
4902551	31	C	06/16/2021	19:04	-135.010	49.437	0	142.90	0	6.2200	0	33.5830	0	26.407	0	141.633	0	140.9	4	46.7	4	-1E+10	1	-1E+10	1	-1E+10	1	-1E+10	1	-1E+10	1	-1E+10	1
4902551	31	C	06/16/2021	19:04	-135.010	49.437	0	144.00	0	6.1960	0	33.6000	0	26.423	0	142.723	0	139.0	4	46.0	4	-1E+10	1	-1E+10	1	-1E+10	1	-1E+10	1	-1E+10	1	-1E+10	1
4902551	31	C	06/16/2021	19:04	-135.010	49.437	0	145.20	0	6.1640	0	33.6200	0	26.443	0	143.912	0	137.2	4	45.4	4	-1E+10	1	-1E+10	1	-1E+10	1	-1E+10	1	-1E+10	1	-1E+10	1
4902551	31	C	06/16/2021	19:04	-135.010	49.437	0	146.00	0	6.1400	0	33.6360	0	26.459	0	144.705	0	136.3	4	45.1	4	-1E+10	1	-1E+10	1	-1E+10	1	-1E+10	1	-1E+10	1	-1E+10	1
4902551	31	C	06/16/2021	19:04	-135.010	49.437	0	146.80	0	6.1170	0	33.6510	0	26.474	0	145.497	0	135.6	4	44.8	4	-1E+10	1	-1E+10	1	-1E+10	1	-1E+10	1	-1E+10	1	-1E+10	1
4902551	31	C	06/16/2021	19:04	-135.010	49.437	0	147.90	0	6.1090	0	33.6550	0	26.478	0	146.587	0	134.6	4	44.5	4	-1E+10	1	-1E+10	1	-1E+10	1	-1E+10	1	-1E+10	1	-1E+10	1
4902551	31	C	06/16/2021	19:04	-135.010	49.437	0	149.10	0	6.1020	0	33.6590	0	26.482	0	147.776	0	133.6	4	44.2	4	-1E+10	1	-1E+10	1	-1E+10	1	-1E+10	1	-1E+10	1	-1E+10	1
4902551	31	C	06/16/2021	19:04	-135.010	49.437	0	149.80	0	6.0960	0	33.6620	0	26.485	0	148.470	0	132.9	4	43.9	4	-1E+10	1	-1E+10	1	-1E+10	1	-1E+10	1	-1E+10	1	-1E+10	1
4902551	31	C	06/16/2021	19:04	-135.010	49.437	0	151.00	0	6.0790	0	33.6730	0	26.496	0	149.658	0	131.8	4	43.5	4	-1E+10	1	-1E+10	1	-1E+10	1	-1E+10	1	-1E+10	1	-1E+10	1
4902551	31	C	06/16/2021	19:04	-135.010	49.437	0	152.20	0	6.0500	0	33.6890	0	26.512	0	150.847	0	130.9	4	43.2	4	-1E+10	1	-1E+10	1	-1E+10	1	-1E+10	1	-1E+10	1	-1E+10	1
4902551	31	C	06/16/2021	19:04	-135.010	49.437	0	153.00	0	6.0410	0	33.6940	0	26.517	0	151.640	0	130.6	4	43.1	4	-1E+10	1	-1E+10	1	-1E+10	1	-1E+10	1	-1E+10	1	-1E+10	1
4902551	31	C	06/16/2021	19:04	-135.010	49.437	0	153.80	0	6.0400	0	33.6940	0	26.517	0	152.433	0	130.2	4	43.0	4	-1E+10	1	-1E+10	1	-1E+10	1	-1E+10	1	-1E+10	1	-1E+10	1
4902551	31	C	06/16/2021	19:04	-135.010	49.437	0	154.70	0	6.0400	0	33.6940	0	26.517	0	153.324	0	129.7	4	42.8	4	-1E+10	1	-1E+10	1	-1E+10	1	-1E+10	1	-1E+10	1	-1E+10	1
4902551	31	C	06/16/2021	19:04	-135.010	49.437	0	155.90	0	6.0410	0	33.6930	0	26.517	0	154.513	0	128.9	4	42.6	4	-1E+10	1	-1E+10	1	-1E+10	1	-1E+10	1	-1E+10	1	-1E+10	1
4902551	31	C	06/16/2021	19:04	-135.010	49.437	0	157.20	0	6.0430	0	33.6930	0	26.516	0	155.801	0	128.0	4	42.3	4	-1E+10	1	-1E+10	1	-1E+10	1	-1E+10	1	-1E+10	1	-1E+10	1
4902551	31	C	06/16/2021	19:04	-135.010	49.437	0	158.10	0	6.0430	0	33.6950	0	26.518	0	156.693	0	127.4	4	42.0	4	-1E+10	1	-1E+10	1	-1E+10	1	-1E+10	1	-1E+10	1	-1E+10	1
4902551	31	C	06/16/2021	19:04	-135.010	49.437	0	158.90	0	6.0370	0	33.6990	0	26.522	0	157.485	0	126.7	4	41.8	4	-1E+10	1	-1E+10	1	-1E+10	1	-1E+10	1	-1E+10	1	-1E+10	1
4902551	31	C	06/16/2021	19:04	-135.010	49.437	0	159.80	0	6.0300	0	33.7000	0	26.524	0	158.377	0	126.0	4	41.6	4	-1E+10	1	-1E+10	1	-1E+10	1	-1E+10	1	-1E+10	1	-1E+10	1
4902551	31	C	06/16/2021	19:04	-135.010	49.437	0	160.60	0	6.0240	0	33.7030	0	26.527	0	159.169	0	125.4	4	41.4	4	-1E+10	1	-1E+10	1	-1E+10	1	-1E+10	1	-1E+10	1	-1E+10	1
4902551	31	C	06/16/2021	19:04	-135.010	49.437	0	161.90	0	6.0120	0	33.7090	0	26.533	0	160.457	0	124.3	4	41.0	4	-1E+10	1	-1E+10	1	-1E+10	1	-1E+10	1	-1E+10	1	-1E+10	1
4902551	31	C	06/16/2021	19:04	-135.010	49.437	0	163.20	0	6.0070	0	33.7120	0	26.536	0	161.745	0	123.3	4	40.7	4	-1E+10	1	-1E+10	1	-1E+10	1	-1E+10	1	-1E+10	1	-1E+10	1
4902551	31	C	06/16/2021	19:04	-135.010	49.437	0	164.10	0	5.9980	0	33.7220	0	26.545	0	162.637	0	122.7	4	40.5	4	-1E+10	1	-1E+10	1	-1E+10	1	-1E+10	1	-1E+10	1	-1E+10	1
4902551	31	C	06/16/2021	19:04	-135.010	49.437	0	165.00	0	5.9900	0	33.7240	0	26.548	0	163.529	0	122.1	4	40.3	4	-1E+10	1	-1E+10	1	-1E+10	1	-1E+10	1	-1E+10	1	-1E+10	1
4902551	31	C	06/16/2021	19:04	-135.010	49.437	0	165.90	0	5.9870	0	33.7300	0	26.553	0	164.420	0	121.5	4	40.1	4	-1E+10	1	-1E+10	1	-1E+10	1	-1E+10	1	-1E+10	1	-1E+10	1
4902551	31	C	06/16/2021	19:04	-135.010	49.437	0	166.80	0	5.9880	0	33.7320	0	26.554	0	165.312	0	121.0	4	39.9	4	-1E+10	1	-1E+10	1	-1E+10	1	-1E+10	1	-1E+10	1	-1E+10	1
4902551	31	C	06/16/2021	19:04	-135.010	49.437	0	167.70	0	5.9890	0	33.7350	0	26.556	0	166.203	0	120.4	4	39.7	4	-1E+10	1	-1E+10	1	-1E+10	1	-1E+10	1	-1E+10	1	-1E+10	1
4902551	31	C	06/16/2021	19:04	-135.010	49.437	0	168.60	0	5.9820	0	33.7410	0	26.562	0	167.095	0	119.9	4	39.6	4	-1E+10	1	-1E+10	1	-1E+10	1	-1E+10	1	-1E+10	1	-1E+10	1
4902551	31	C	06/16/2021	19:04	-135.010	49.437	0	169.90	0	5.9550	0	33.7530	0	26.575	0	168.383	0	119.5	4	39.4	4	-1E+10	1	-1E+10	1	-1E+10	1	-1E+10	1	-1E+10	1	-1E+10	1
4902551	31	C	06/16/2021	19:04	-135.010	49.437	0	171.30	0	5.9380	0	33.7570	0	26.580	0	169.770	0	119.1	4	39.2	4	-1E+10	1	-1E+10	1	-1E+10	1	-1E+10	1	-1E+10	1	-1E+10	1
4902551	31	C	06/16/2021	19:04	-135.010	49.437	0	172.20	0	5.9340	0	33.7580	0	26.581	0	170.661	0	118.8	4	39.1	4	-1E+10	1	-1E+10	1	-1E+10	1	-1E+10	1	-1E+10	1	-1E+10	1
4902551	31	C	06/16/2021	19:04	-135.010	49.437	0	173.10	0	5.9320	0	33.7580	0	26.582	0	171.553	0	118.4	4	39.0	4	-1E+10	1	-1E+10	1	-1E+10	1	-1E+10	1	-1E+10	1	-1E+10	1
4902551	31	C	06/16/2021	19:04	-135.010	49.437	0	173.90	0	5.9310	0	33.7590	0	26.583	0	172.345	0	118.0	4	38.9	4	-1E+10	1	-1E+10	1	-1E+10	1	-1E+10	1	-1E+10	1	-1E+10	1
4902551	31	C	06/16/2021	19:04	-135.010	49.437	0	174.80	0	5.9320	0	33.7580	0	26.582	0	173.237	0	117.5	4	38.7	4	-1E+10	1	-1E+10	1	-1E+10	1	-1E+10	1	-1E+10	1	-1E+10	1
4902551	31	C	06/16/2021	19:04	-135.010	49.437	0	175.70	0	5.9310	0	33.7570	0	26.581	0	174.129	0	117.0	4	38.5	4	-1E+10	1	-1E+10	1	-1E+10	1	-1E+10	1	-1E+10	1	-1E+10	1
4902551	31	C	06/16/2021	19:04	-135.010	49.437	0	176.60	0	5.9220	0	33.7620	0	26.586	0	175.020	0	116.4	4	38.3	4	-1E+10	1	-1E+10	1	-1E+10	1	-1E+10	1	-1E+10	1	-1E+10	1
4902551	31	C	06/16/2021	19:04	-135.010	49.437	0	177.50	0	5.9220	0	33.7620	0	26.586	0	175.912	0	115.8	4	38.2	4	-1E+10	1	-1E+10	1	-1E+10	1	-1E+10	1	-1E+10	1	-1E+10	1
4902551	31	C	06/16/2021	19:04	-135.010	49.437	0	178.50	0	5.9220	0	33.7620	0	26.586	0	176.902	0	115.2	4	38.0	4	-1E+10	1	-1E+10	1	-1E+10	1	-1E+10	1	-1E+10	1	-1E+10	1
4902551	31	C	06/16/2021	19:04	-135.010	49.437	0	179.90	0	5.8730	0	33.7720	0	26.600	0	178.289	0	114.6	4	37.7	4	-1E+10	1	-1E+10	1	-1E+10	1	-1E+10	1	-1E+10	1	-1E+10	1
4902551	31	C	06/16/2021	19:04	-135.010	49.437	0	181.40	0	5.8690	0	33.7760	0	26.604	0	179.775	0	114.0	4	37.5	4	-1E+10	1	-1E+10	1	-1E+10	1	-1E+10	1	-1E+10	1	-1E+10	1
4902551	31	C	06/16/2021	19:04	-135.010	49.437	0	182.30	0	5.8710	0	33.7790	0	26.606	0	180.667	0	113.6	4	37.4	4	-1E+10	1	-1E+10	1	-1E+10	1	-1E+10	1	-1E+10	1	-1E+10	1
4902551	31	C	06/16/2021	19:04	-135.010	49.437	0	183.30	0	5.8670	0	33.7820	0	26.609	0	181.657	0	113.2	4	37.3	4	-1E+10	1	-1E+10	1	-1E+10	1	-1E+10	1	-1E+10	1	-1E+10	1
4902551	31	C	06/16/2021	19:04	-135.010	49.437	0	184.20	0	5.8580	0	33.7830	0	26.611	0	182.549	0	112.9	4	37.1	4	-1E+10	1	-1E+10	1	-1E+10	1	-1E+10	1	-1E+10	1	-1E+10	1
4902551	31	C	06/16/2021	19:04	-135.010	49.437	0	185.20	0	5.8510	0	33.7860	0	26.614	0	183.539	0	112.6	4	37.0	4	-1E+10	1	-1E+10	1	-1E+10	1	-1E+10	1	-1E+10	1	-1E+10	1
4902551	31	C	06/16/2021	19:04	-135.010	49.437	0	186.20	0	5.8440	0	33.7860	0	26.615	0	184.530	0	112.3	4	36.9	4	-1E+10	1	-1E+10	1	-1E+10	1	-1E+10	1	-1E+10	1	-1E+10	1
4902551	31	C	06/16/2021	19:04	-135.010	49.437	0	187.10	0	5.8160	0	33.7920	0	26.623	0	185.422	0	112.0	4	36.8	4	-1E+10	1	-1E+10	1	-1E+10	1	-1E+10	1	-1E+10	1	-1E+10	1
4902551	31	C	06/16/2021	19:04	-135.010	49.437	0	188.10	0	5.7970	0	33.7920	0	26.625	0	186.412	0	111.8	4	36.7	4	-1E+10	1	-1E+10	1	-1E+10	1	-1E+10	1	-1E+10	1	-1E+10	1
4902551	31	C	06/16/2021	19:04	-135.010	49.437	0	189.00	0	5.7880	0	33.7910	0	26.626	0	187.304	0	111.5	4	36.6	4	-1E+10	1	-1E+10	1	-1E+10	1	-1E+10	1	-1E+10	1	-1E+10	1
4902551	31	C	06/16/2021	19:04	-135.010	49.437	0	190.00	0	5.7790	0	33.7890	0	26.625	0	188.294	0	111.2	4	36.5	4	-1E+10	1	-1E+10	1	-1E+10	1	-1E+10	1	-1E+10	1	-1E+10	1
4902551	31	C	06/16/2021	19:04	-135.010	49.437	0	191.00	0	5.7540	0	33.7930	0	26.631	0	189.285	0	110.8	4	36.4	4	-1E+10	1	-1E+10	1	-1E+10	1	-1E+10	1	-1E+10	1	-1E+10	1
4902551	31	C	06/16/2021	19:04	-135.010	49.437	0	191.90	0	5.7380	0	33.7900	0	26.631	0	190.176	0	110.4	4	36.2	4	-1E+10	1	-1E+10	1	-1E+10	1	-1E+10	1	-1E+10	1	-1E+10	1
4902551	31	C	06/16/2021	19:04	-135.010	49.437	0	192.90	0	5.7150	0	33.7950	0	26.638	0	191.167	0	110.0	4	36.1	4	-1E+10	1	-1E+10	1	-1E+10	1	-1E+10	1	-1E+10	1	-1E+10	1
4902551	31	C	06/16/2021	19:04	-135.010	49.437	0	193.80	0	5.6910	0	33.7960	0	26.641	0	192.058	0	109.7	4	36.0	4	-1E+10	1	-1E+10	1	-1E+10	1	-1E+10	1	-1E+10	1	-1E+10	1
4902551	31	C	06/16/2021	19:04	-135.010	49.437	0	194.80	0	5.6890	0	33.7980	0	26.643	0	193.049	0	109.5	4	35.9	4	-1E+10	1	-1E+10	1	-1E+10	1	-1E+10	1	-1E+10	1	-1E+10	1
4902551	31	C	06/16/2021	19:04	-135.010	49.437	0	195.80	0	5.6850	0	33.7990	0	26.645	0	194.039	0	109.1	4	35.8	4	-1E+10	1	-1E+10	1	-1E+10	1	-1E+10	1	-1E+10	1	-1E+10	1
4902551	31	C	06/16/2021	19:04	-135.010	49.437	0	196.70	0	5.6760	0	33.7990	0	26.646	0	194.931	0	108.9	4	35.7	4	-1E+10	1	-1E+10	1	-1E+10	1	-1E+10	1	-1E+10	1	-1E+10	1
4902551	31	C	06/16/2021	19:04	-135.010	49.437	0	197.70	0	5.6500	0	33.8040	0	26.653	0	195.921	0	108.6	4	35.6	4	-1E+10	1	-1E+10	1	-1E+10	1	-1E+10	1	-1E+10	1	-1E+10	1
4902551	31	C	06/16/2021	19:04	-135.010	49.437	0	198.60	0	5.6200	0	33.8010	0	26.654	0	196.813	0	108.4	4	35.5	4	-1E+10	1	-1E+10	1	-1E+10	1	-1E+10	1	-1E+10	1	-1E+10	1
4902551	31	C	06/16/2021	19:04	-135.010	49.437	0	199.60	0	5.6150	0	33.8010	0	26.655	0	197.803	0	108.1	4	35.4	4	-1E+10	1	-1E+10	1	-1E+10	1	-1E+10	1	-1E+10	1	-1E+10	1
4902551	31	C	06/16/2021	19:04	-135.010	49.437	0	200.60	0	5.6130	0	33.8020	0	26.656	0	198.794	0	107.7	4	35.2	4	-1E+10	1	-1E+10	1	-1E+10	1	-1E+10	1	-1E+10	1	-1E+10	1
4902551	31	C	06/16/2021	19:04	-135.010	49.437	0	201.50	0	5.6060	0	33.8020	0	26.657	0	199.685	0	107.4	4	35.1	4	-1E+10	1	-1E+10	1	-1E+10	1	-1E+10	1	-1E+10	1	-1E+10	1
4902551	31	C	06/16/2021	19:04	-135.010	49.437	0	202.50	0	5.6020	0	33.8020	0	26.657	0	200.676	0	106.9	4	35.0	4	-1E+10	1	-1E+10	1	-1E+10	1	-1E+10	1	-1E+10	1	-1E+10	1
4902551	31	C	06/16/2021	19:04	-135.010	49.437	0	203.90	0	5.5940	0	33.8010	0	26.657	0	202.063	0	106.3	4	34.7	4	-1E+10	1	-1E+10	1	-1E+10	1	-1E+10	1	-1E+10	1	-1E+10	1
4902551	31	C	06/16/2021	19:04	-135.010	49.437	0	205.40	0	5.5830	0	33.8020	0	26.659	0	203.548	0	105.6	4	34.5	4	-1E+10	1	-1E+10	1	-1E+10	1	-1E+10	1	-1E+10	1	-1E+10	1
4902551	31	C	06/16/2021	19:04	-135.010	49.437	0	206.40	0	5.5540	0	33.8070	0	26.667	0	204.539	0	105.1	4	34.3	4	-1E+10	1	-1E+10	1	-1E+10	1	-1E+10	1	-1E+10	1	-1E+10	1
4902551	31	C	06/16/2021	19:04	-135.010	49.437	0	207.30	0	5.5220	0	33.8060	0	26.670	0	205.430	0	104.6	4	34.2	4	-1E+10	1	-1E+10	1	-1E+10	1	-1E+10	1	-1E+10	1	-1E+10	1
4902551	31	C	06/16/2021	19:04	-135.010	49.437	0	208.20	0	5.5000	0	33.8070	0	26.673	0	206.322	0	104.2	4	34.0	4	-1E+10	1	-1E+10	1	-1E+10	1	-1E+10	1	-1E+10	1	-1E+10	1
4902551	31	C	06/16/2021	19:04	-135.010	49.437	0	209.20	0	5.4890	0	33.8070	0	26.675	0	207.312	0	103.6	4	33.8	4	-1E+10	1	-1E+10	1	-1E+10	1	-1E+10	1	-1E+10	1	-1E+10	1
4902551	31	C	06/16/2021	19:04	-135.010	49.437	0	210.10	0	5.4770	0	33.8070	0	26.676	0	208.204	0	103.2	4	33.6	4	-1E+10	1	-1E+10	1	-1E+10	1	-1E+10	1	-1E+10	1	-1E+10	1
4902551	31	C	06/16/2021	19:04	-135.010	49.437	0	211.10	0	5.4570	0	33.8110	0	26.682	0	209.194	0	102.6	4	33.5	4	-1E+10	1	-1E+10	1	-1E+10	1	-1E+10	1	-1E+10	1	-1E+10	1
4902551	31	C	06/16/2021	19:04	-135.010	49.437	0	212.00	0	5.4420	0	33.8110	0	26.683	0	210.085	0	102.2	4	33.3	4	-1E+10	1	-1E+10	1	-1E+10	1	-1E+10	1	-1E+10	1	-1E+10	1
4902551	31	C	06/16/2021	19:04	-135.010	49.437	0	213.00	0	5.4270	0	33.8110	0	26.685	0	211.076	0	101.7	4	33.1	4	-1E+10	1	-1E+10	1	-1E+10	1	-1E+10	1	-1E+10	1	-1E+10	1
4902551	31	C	06/16/2021	19:04	-135.010	49.437	0	213.90	0	5.4190	0	33.8110	0	26.686	0	211.967	0	101.2	4	33.0	4	-1E+10	1	-1E+10	1	-1E+10	1	-1E+10	1	-1E+10	1	-1E+10	1
4902551	31	C	06/16/2021	19:04	-135.010	49.437	0	214.90	0	5.4030	0	33.8130	0	26.690	0	212.958	0	100.7	4	32.8	4	-1E+10	1	-1E+10	1	-1E+10	1	-1E+10	1	-1E+10	1	-1E+10	1
4902551	31	C	06/16/2021	19:04	-135.010	49.437	0	215.80	0	5.3900	0	33.8140	0	26.692	0	213.849	0	100.2	4	32.6	4	-1E+10	1	-1E+10	1	-1E+10	1	-1E+10	1	-1E+10	1	-1E+10	1
4902551	31	C	06/16/2021	19:04	-135.010	49.437	0	216.70	0	5.3840	0	33.8140	0	26.693	0	214.741	0	99.6	4	32.4	4	-1E+10	1	-1E+10	1	-1E+10	1	-1E+10	1	-1E+10	1	-1E+10	1
4902551	31	C	06/16/2021	19:04	-135.010	49.437	0	217.70	0	5.3700	0	33.8170	0	26.697	0	215.731	0	98.9	4	32.2	4	-1E+10	1	-1E+10	1	-1E+10	1	-1E+10	1	-1E+10	1	-1E+10	1
4902551	31	C	06/16/2021	19:04	-135.010	49.437	0	218.60	0	5.3570	0	33.8160	0	26.697	0	216.622	0	98.3	4	32.0	4	-1E+10	1	-1E+10	1	-1E+10	1	-1E+10	1	-1E+10	1	-1E+10	1
4902551	31	C	06/16/2021	19:04	-135.010	49.437	0	219.60	0	5.3380	0	33.8180	0	26.701	0	217.613	0	97.6	4	31.7	4	-1E+10	1	-1E+10	1	-1E+10	1	-1E+10	1	-1E+10	1	-1E+10	1
4902551	31	C	06/16/2021	19:04	-135.010	49.437	0	220.90	0	5.3140	0	33.8200	0	26.706	0	218.900	0	96.7	4	31.4	4	-1E+10	1	-1E+10	1	-1E+10	1	-1E+10	1	-1E+10	1	-1E+10	1
4902551	31	C	06/16/2021	19:04	-135.010	49.437	0	222.30	0	5.2890	0	33.8220	0	26.710	0	220.287	0	95.7	4	31.1	4	-1E+10	1	-1E+10	1	-1E+10	1	-1E+10	1	-1E+10	1	-1E+10	1
4902551	31	C	06/16/2021	19:04	-135.010	49.437	0	223.30	0	5.2570	0	33.8270	0	26.718	0	221.277	0	95.1	4	30.9	4	-1E+10	1	-1E+10	1	-1E+10	1	-1E+10	1	-1E+10	1	-1E+10	1
4902551	31	C	06/16/2021	19:04	-135.010	49.437	0	224.20	0	5.2300	0	33.8290	0	26.723	0	222.169	0	94.7	4	30.7	4	-1E+10	1	-1E+10	1	-1E+10	1	-1E+10	1	-1E+10	1	-1E+10	1
4902551	31	C	06/16/2021	19:04	-135.010	49.437	0	225.20	0	5.2160	0	33.8290	0	26.724	0	223.159	0	94.3	4	30.6	4	-1E+10	1	-1E+10	1	-1E+10	1	-1E+10	1	-1E+10	1	-1E+10	1
4902551	31	C	06/16/2021	19:04	-135.010	49.437	0	226.20	0	5.2150	0	33.8290	0	26.724	0	224.150	0	93.8	4	30.4	4	-1E+10	1	-1E+10	1	-1E+10	1	-1E+10	1	-1E+10	1	-1E+10	1
4902551	31	C	06/16/2021	19:04	-135.010	49.437	0	227.10	0	5.2130	0	33.8290	0	26.725	0	225.041	0	93.4	4	30.3	4	-1E+10	1	-1E+10	1	-1E+10	1	-1E+10	1	-1E+10	1	-1E+10	1
4902551	31	C	06/16/2021	19:04	-135.010	49.437	0	228.10	0	5.1940	0	33.8320	0	26.729	0	226.031	0	93.0	4	30.1	4	-1E+10	1	-1E+10	1	-1E+10	1	-1E+10	1	-1E+10	1	-1E+10	1
4902551	31	C	06/16/2021	19:04	-135.010	49.437	0	229.00	0	5.1920	0	33.8320	0	26.729	0	226.923	0	92.5	4	30.0	4	-1E+10	1	-1E+10	1	-1E+10	1	-1E+10	1	-1E+10	1	-1E+10	1
4902551	31	C	06/16/2021	19:04	-135.010	49.437	0	230.00	0	5.1900	0	33.8310	0	26.729	0	227.913	0	91.9	4	29.8	4	-1E+10	1	-1E+10	1	-1E+10	1	-1E+10	1	-1E+10	1	-1E+10	1
4902551	31	C	06/16/2021	19:04	-135.010	49.437	0	230.90	0	5.1860	0	33.8310	0	26.729	0	228.804	0	91.3	4	29.6	4	-1E+10	1	-1E+10	1	-1E+10	1	-1E+10	1	-1E+10	1	-1E+10	1
4902551	31	C	06/16/2021	19:04	-135.010	49.437	0	231.90	0	5.1700	0	33.8340	0	26.734	0	229.795	0	90.7	4	29.4	4	-1E+10	1	-1E+10	1	-1E+10	1	-1E+10	1	-1E+10	1	-1E+10	1
4902551	31	C	06/16/2021	19:04	-135.010	49.437	0	232.80	0	5.1270	0	33.8380	0	26.742	0	230.686	0	90.3	4	29.2	4	-1E+10	1	-1E+10	1	-1E+10	1	-1E+10	1	-1E+10	1	-1E+10	1
4902551	31	C	06/16/2021	19:04	-135.010	49.437	0	233.80	0	5.1130	0	33.8390	0	26.744	0	231.676	0	90.0	4	29.1	4	-1E+10	1	-1E+10	1	-1E+10	1	-1E+10	1	-1E+10	1	-1E+10	1
4902551	31	C	06/16/2021	19:04	-135.010	49.437	0	234.80	0	5.1070	0	33.8400	0	26.746	0	232.667	0	89.8	4	29.0	4	-1E+10	1	-1E+10	1	-1E+10	1	-1E+10	1	-1E+10	1	-1E+10	1
4902551	31	C	06/16/2021	19:04	-135.010	49.437	0	235.70	0	5.1020	0	33.8400	0	26.746	0	233.558	0	89.5	4	28.9	4	-1E+10	1	-1E+10	1	-1E+10	1	-1E+10	1	-1E+10	1	-1E+10	1
4902551	31	C	06/16/2021	19:04	-135.010	49.437	0	236.70	0	5.0970	0	33.8410	0	26.748	0	234.548	0	89.2	4	28.8	4	-1E+10	1	-1E+10	1	-1E+10	1	-1E+10	1	-1E+10	1	-1E+10	1
4902551	31	C	06/16/2021	19:04	-135.010	49.437	0	237.60	0	5.0900	0	33.8410	0	26.748	0	235.440	0	89.0	4	28.8	4	-1E+10	1	-1E+10	1	-1E+10	1	-1E+10	1	-1E+10	1	-1E+10	1
4902551	31	C	06/16/2021	19:04	-135.010	49.437	0	238.60	0	5.0810	0	33.8430	0	26.751	0	236.430	0	88.8	4	28.7	4	-1E+10	1	-1E+10	1	-1E+10	1	-1E+10	1	-1E+10	1	-1E+10	1
4902551	31	C	06/16/2021	19:04	-135.010	49.437	0	239.60	0	5.0640	0	33.8450	0	26.755	0	237.420	0	88.6	4	28.6	4	-1E+10	1	-1E+10	1	-1E+10	1	-1E+10	1	-1E+10	1	-1E+10	1
4902551	31	C	06/16/2021	19:04	-135.010	49.437	0	240.60	0	5.0620	0	33.8450	0	26.755	0	238.411	0	88.3	4	28.5	4	-1E+10	1	-1E+10	1	-1E+10	1	-1E+10	1	-1E+10	1	-1E+10	1
4902551	31	C	06/16/2021	19:04	-135.010	49.437	0	241.50	0	5.0620	0	33.8440	0	26.754	0	239.302	0	88.1	4	28.5	4	-1E+10	1	-1E+10	1	-1E+10	1	-1E+10	1	-1E+10	1	-1E+10	1
4902551	31	C	06/16/2021	19:04	-135.010	49.437	0	242.50	0	5.0620	0	33.8440	0	26.754	0	240.292	0	87.8	4	28.4	4	-1E+10	1	-1E+10	1	-1E+10	1	-1E+10	1	-1E+10	1	-1E+10	1
4902551	31	C	06/16/2021	19:04	-135.010	49.437	0	243.90	0	5.0390	0	33.8460	0	26.758	0	241.679	0	87.5	4	28.2	4	-1E+10	1	-1E+10	1	-1E+10	1	-1E+10	1	-1E+10	1	-1E+10	1
4902551	31	C	06/16/2021	19:04	-135.010	49.437	0	245.40	0	5.0370	0	33.8450	0	26.758	0	243.164	0	87.0	4	28.1	4	-1E+10	1	-1E+10	1	-1E+10	1	-1E+10	1	-1E+10	1	-1E+10	1
4902551	31	C	06/16/2021	19:04	-135.010	49.437	0	246.40	0	5.0050	0	33.8480	0	26.764	0	244.155	0	86.8	4	28.0	4	-1E+10	1	-1E+10	1	-1E+10	1	-1E+10	1	-1E+10	1	-1E+10	1
4902551	31	C	06/16/2021	19:04	-135.010	49.437	0	247.30	0	4.9950	0	33.8470	0	26.764	0	245.046	0	86.4	4	27.9	4	-1E+10	1	-1E+10	1	-1E+10	1	-1E+10	1	-1E+10	1	-1E+10	1
4902551	31	C	06/16/2021	19:04	-135.010	49.437	0	248.30	0	4.9770	0	33.8500	0	26.768	0	246.036	0	86.2	4	27.8	4	-1E+10	1	-1E+10	1	-1E+10	1	-1E+10	1	-1E+10	1	-1E+10	1
4902551	31	C	06/16/2021	19:04	-135.010	49.437	0	249.30	0	4.9570	0	33.8520	0	26.772	0	247.026	0	86.1	4	27.7	4	-1E+10	1	-1E+10	1	-1E+10	1	-1E+10	1	-1E+10	1	-1E+10	1
4902551	31	C	06/16/2021	19:04	-135.010	49.437	0	250.30	0	4.9440	0	33.8520	0	26.774	0	248.017	0	85.9	4	27.7	4	-1E+10	1	-1E+10	1	-1E+10	1	-1E+10	1	-1E+10	1	-1E+10	1
4902551	31	C	06/16/2021	19:04	-135.010	49.437	0	251.30	0	4.9400	0	33.8530	0	26.775	0	249.007	0	85.7	4	27.6	4	-1E+10	1	-1E+10	1	-1E+10	1	-1E+10	1	-1E+10	1	-1E+10	1
4902551	31	C	06/16/2021	19:04	-135.010	49.437	0	252.30	0	4.9370	0	33.8530	0	26.775	0	249.997	0	85.5	4	27.5	4	-1E+10	1	-1E+10	1	-1E+10	1	-1E+10	1	-1E+10	1	-1E+10	1
4902551	31	C	06/16/2021	19:04	-135.010	49.437	0	253.30	0	4.9360	0	33.8520	0	26.775	0	250.987	0	85.3	4	27.5	4	-1E+10	1	-1E+10	1	-1E+10	1	-1E+10	1	-1E+10	1	-1E+10	1
4902551	31	C	06/16/2021	19:04	-135.010	49.437	0	254.30	0	4.9360	0	33.8520	0	26.775	0	251.978	0	85.0	4	27.4	4	-1E+10	1	-1E+10	1	-1E+10	1	-1E+10	1	-1E+10	1	-1E+10	1
4902551	31	C	06/16/2021	19:04	-135.010	49.437	0	255.30	0	4.9340	0	33.8520	0	26.775	0	252.968	0	84.7	4	27.3	4	-1E+10	1	-1E+10	1	-1E+10	1	-1E+10	1	-1E+10	1	-1E+10	1
4902551	31	C	06/16/2021	19:04	-135.010	49.437	0	256.20	0	4.9280	0	33.8520	0	26.776	0	253.859	0	84.3	4	27.1	4	-1E+10	1	-1E+10	1	-1E+10	1	-1E+10	1	-1E+10	1	-1E+10	1
4902551	31	C	06/16/2021	19:04	-135.010	49.437	0	257.20	0	4.9240	0	33.8520	0	26.776	0	254.849	0	83.9	4	27.0	4	-1E+10	1	-1E+10	1	-1E+10	1	-1E+10	1	-1E+10	1	-1E+10	1
4902551	31	C	06/16/2021	19:04	-135.010	49.437	0	258.20	0	4.9200	0	33.8520	0	26.777	0	255.840	0	83.4	4	26.9	4	-1E+10	1	-1E+10	1	-1E+10	1	-1E+10	1	-1E+10	1	-1E+10	1
4902551	31	C	06/16/2021	19:04	-135.010	49.437	0	259.20	0	4.9120	0	33.8520	0	26.777	0	256.830	0	82.9	4	26.7	4	-1E+10	1	-1E+10	1	-1E+10	1	-1E+10	1	-1E+10	1	-1E+10	1
4902551	31	C	06/16/2021	19:04	-135.010	49.437	0	260.20	0	4.8820	0	33.8550	0	26.783	0	257.820	0	82.4	4	26.5	4	-1E+10	1	-1E+10	1	-1E+10	1	-1E+10	1	-1E+10	1	-1E+10	1
4902551	31	C	06/16/2021	19:04	-135.010	49.437	0	261.20	0	4.8750	0	33.8550	0	26.784	0	258.810	0	81.9	4	26.4	4	-1E+10	1	-1E+10	1	-1E+10	1	-1E+10	1	-1E+10	1	-1E+10	1
4902551	31	C	06/16/2021	19:04	-135.010	49.437	0	262.20	0	4.8770	0	33.8570	0	26.785	0	259.801	0	81.5	4	26.2	4	-1E+10	1	-1E+10	1	-1E+10	1	-1E+10	1	-1E+10	1	-1E+10	1
4902551	31	C	06/16/2021	19:04	-135.010	49.437	0	263.20	0	4.8730	0	33.8580	0	26.787	0	260.791	0	81.2	4	26.1	4	-1E+10	1	-1E+10	1	-1E+10	1	-1E+10	1	-1E+10	1	-1E+10	1
4902551	31	C	06/16/2021	19:04	-135.010	49.437	0	264.20	0	4.8640	0	33.8600	0	26.789	0	261.781	0	80.8	4	26.0	4	-1E+10	1	-1E+10	1	-1E+10	1	-1E+10	1	-1E+10	1	-1E+10	1
4902551	31	C	06/16/2021	19:04	-135.010	49.437	0	265.20	0	4.8470	0	33.8600	0	26.791	0	262.771	0	80.3	4	25.8	4	-1E+10	1	-1E+10	1	-1E+10	1	-1E+10	1	-1E+10	1	-1E+10	1
4902551	31	C	06/16/2021	19:04	-135.010	49.437	0	266.10	0	4.8430	0	33.8610	0	26.792	0	263.662	0	79.9	4	25.7	4	-1E+10	1	-1E+10	1	-1E+10	1	-1E+10	1	-1E+10	1	-1E+10	1
4902551	31	C	06/16/2021	19:04	-135.010	49.437	0	267.20	0	4.8400	0	33.8620	0	26.793	0	264.752	0	79.5	4	25.5	4	-1E+10	1	-1E+10	1	-1E+10	1	-1E+10	1	-1E+10	1	-1E+10	1
4902551	31	C	06/16/2021	19:04	-135.010	49.437	0	268.20	0	4.8480	0	33.8660	0	26.796	0	265.742	0	79.3	4	25.5	4	-1E+10	1	-1E+10	1	-1E+10	1	-1E+10	1	-1E+10	1	-1E+10	1
4902551	31	C	06/16/2021	19:04	-135.010	49.437	0	269.20	0	4.8520	0	33.8670	0	26.796	0	266.732	0	79.1	4	25.4	4	-1E+10	1	-1E+10	1	-1E+10	1	-1E+10	1	-1E+10	1	-1E+10	1
4902551	31	C	06/16/2021	19:04	-135.010	49.437	0	270.20	0	4.8530	0	33.8660	0	26.795	0	267.722	0	78.9	4	25.4	4	-1E+10	1	-1E+10	1	-1E+10	1	-1E+10	1	-1E+10	1	-1E+10	1
4902551	31	C	06/16/2021	19:04	-135.010	49.437	0	271.20	0	4.8530	0	33.8660	0	26.795	0	268.712	0	78.8	4	25.3	4	-1E+10	1	-1E+10	1	-1E+10	1	-1E+10	1	-1E+10	1	-1E+10	1
4902551	31	C	06/16/2021	19:04	-135.010	49.437	0	272.20	0	4.8510	0	33.8660	0	26.795	0	269.703	0	78.5	4	25.2	4	-1E+10	1	-1E+10	1	-1E+10	1	-1E+10	1	-1E+10	1	-1E+10	1
4902551	31	C	06/16/2021	19:04	-135.010	49.437	0	273.20	0	4.8380	0	33.8680	0	26.799	0	270.693	0	78.3	4	25.2	4	-1E+10	1	-1E+10	1	-1E+10	1	-1E+10	1	-1E+10	1	-1E+10	1
4902551	31	C	06/16/2021	19:04	-135.010	49.437	0	274.30	0	4.8280	0	33.8690	0	26.800	0	271.782	0	78.1	4	25.1	4	-1E+10	1	-1E+10	1	-1E+10	1	-1E+10	1	-1E+10	1	-1E+10	1
4902551	31	C	06/16/2021	19:04	-135.010	49.437	0	275.20	0	4.8230	0	33.8670	0	26.799	0	272.673	0	77.8	4	25.0	4	-1E+10	1	-1E+10	1	-1E+10	1	-1E+10	1	-1E+10	1	-1E+10	1
4902551	31	C	06/16/2021	19:04	-135.010	49.437	0	276.20	0	4.8080	0	33.8710	0	26.804	0	273.663	0	77.5	4	24.9	4	-1E+10	1	-1E+10	1	-1E+10	1	-1E+10	1	-1E+10	1	-1E+10	1
4902551	31	C	06/16/2021	19:04	-135.010	49.437	0	277.20	0	4.8000	0	33.8680	0	26.803	0	274.653	0	77.2	4	24.8	4	-1E+10	1	-1E+10	1	-1E+10	1	-1E+10	1	-1E+10	1	-1E+10	1
4902551	31	C	06/16/2021	19:04	-135.010	49.437	0	277.90	0	4.7910	0	33.8700	0	26.805	0	275.347	0	76.9	4	24.7	4	-1E+10	1	-1E+10	1	-1E+10	1	-1E+10	1	-1E+10	1	-1E+10	1
4902551	31	C	06/16/2021	19:04	-135.010	49.437	0	279.00	0	4.7870	0	33.8700	0	26.806	0	276.436	0	76.4	4	24.5	4	-1E+10	1	-1E+10	1	-1E+10	1	-1E+10	1	-1E+10	1	-1E+10	1
4902551	31	C	06/16/2021	19:04	-135.010	49.437	0	280.00	0	4.7820	0	33.8710	0	26.807	0	277.426	0	75.9	4	24.4	4	-1E+10	1	-1E+10	1	-1E+10	1	-1E+10	1	-1E+10	1	-1E+10	1
4902551	31	C	06/16/2021	19:04	-135.010	49.437	0	281.20	0	4.7770	0	33.8730	0	26.809	0	278.614	0	75.5	4	24.2	4	-1E+10	1	-1E+10	1	-1E+10	1	-1E+10	1	-1E+10	1	-1E+10	1
4902551	31	C	06/16/2021	19:04	-135.010	49.437	0	281.90	0	4.7760	0	33.8730	0	26.809	0	279.307	0	75.2	4	24.1	4	-1E+10	1	-1E+10	1	-1E+10	1	-1E+10	1	-1E+10	1	-1E+10	1
4902551	31	C	06/16/2021	19:04	-135.010	49.437	0	283.00	0	4.7650	0	33.8750	0	26.812	0	280.396	0	74.8	4	24.0	4	-1E+10	1	-1E+10	1	-1E+10	1	-1E+10	1	-1E+10	1	-1E+10	1
4902551	31	C	06/16/2021	19:04	-135.010	49.437	0	284.20	0	4.7600	0	33.8760	0	26.814	0	281.584	0	74.3	4	23.8	4	-1E+10	1	-1E+10	1	-1E+10	1	-1E+10	1	-1E+10	1	-1E+10	1
4902551	31	C	06/16/2021	19:04	-135.010	49.437	0	285.00	0	4.7580	0	33.8780	0	26.815	0	282.376	0	74.0	4	23.7	4	-1E+10	1	-1E+10	1	-1E+10	1	-1E+10	1	-1E+10	1	-1E+10	1
4902551	31	C	06/16/2021	19:04	-135.010	49.437	0	285.70	0	4.7560	0	33.8780	0	26.816	0	283.070	0	73.8	4	23.7	4	-1E+10	1	-1E+10	1	-1E+10	1	-1E+10	1	-1E+10	1	-1E+10	1
4902551	31	C	06/16/2021	19:04	-135.010	49.437	0	286.90	0	4.7470	0	33.8810	0	26.819	0	284.258	0	73.4	4	23.6	4	-1E+10	1	-1E+10	1	-1E+10	1	-1E+10	1	-1E+10	1	-1E+10	1
4902551	31	C	06/16/2021	19:04	-135.010	49.437	0	288.10	0	4.7410	0	33.8820	0	26.821	0	285.446	0	73.1	4	23.4	4	-1E+10	1	-1E+10	1	-1E+10	1	-1E+10	1	-1E+10	1	-1E+10	1
4902551	31	C	06/16/2021	19:04	-135.010	49.437	0	288.90	0	4.7390	0	33.8840	0	26.822	0	286.238	0	72.9	4	23.4	4	-1E+10	1	-1E+10	1	-1E+10	1	-1E+10	1	-1E+10	1	-1E+10	1
4902551	31	C	06/16/2021	19:04	-135.010	49.437	0	290.00	0	4.7350	0	33.8830	0	26.822	0	287.327	0	72.4	4	23.2	4	-1E+10	1	-1E+10	1	-1E+10	1	-1E+10	1	-1E+10	1	-1E+10	1
4902551	31	C	06/16/2021	19:04	-135.010	49.437	0	291.20	0	4.7280	0	33.8830	0	26.823	0	288.515	0	71.9	4	23.0	4	-1E+10	1	-1E+10	1	-1E+10	1	-1E+10	1	-1E+10	1	-1E+10	1
4902551	31	C	06/16/2021	19:04	-135.010	49.437	0	292.00	0	4.7220	0	33.8840	0	26.824	0	289.307	0	71.4	4	22.9	4	-1E+10	1	-1E+10	1	-1E+10	1	-1E+10	1	-1E+10	1	-1E+10	1
4902551	31	C	06/16/2021	19:04	-135.010	49.437	0	292.80	0	4.7180	0	33.8850	0	26.825	0	290.099	0	71.0	4	22.8	4	-1E+10	1	-1E+10	1	-1E+10	1	-1E+10	1	-1E+10	1	-1E+10	1
4902551	31	C	06/16/2021	19:04	-135.010	49.437	0	294.00	0	4.7160	0	33.8850	0	26.826	0	291.287	0	70.4	4	22.6	4	-1E+10	1	-1E+10	1	-1E+10	1	-1E+10	1	-1E+10	1	-1E+10	1
4902551	31	C	06/16/2021	19:04	-135.010	49.437	0	295.20	0	4.7080	0	33.8880	0	26.829	0	292.475	0	69.9	4	22.4	4	-1E+10	1	-1E+10	1	-1E+10	1	-1E+10	1	-1E+10	1	-1E+10	1
4902551	31	C	06/16/2021	19:04	-135.010	49.437	0	296.00	0	4.7050	0	33.8900	0	26.831	0	293.267	0	69.6	4	22.3	4	-1E+10	1	-1E+10	1	-1E+10	1	-1E+10	1	-1E+10	1	-1E+10	1
4902551	31	C	06/16/2021	19:04	-135.010	49.437	0	296.80	0	4.7010	0	33.8900	0	26.831	0	294.059	0	69.1	4	22.2	4	-1E+10	1	-1E+10	1	-1E+10	1	-1E+10	1	-1E+10	1	-1E+10	1
4902551	31	C	06/16/2021	19:04	-135.010	49.437	0	298.00	0	4.6940	0	33.8900	0	26.832	0	295.248	0	68.6	4	22.0	4	-1E+10	1	-1E+10	1	-1E+10	1	-1E+10	1	-1E+10	1	-1E+10	1
4902551	31	C	06/16/2021	19:04	-135.010	49.437	0	299.20	0	4.6730	0	33.8970	0	26.840	0	296.436	0	68.2	4	21.8	4	-1E+10	1	-1E+10	1	-1E+10	1	-1E+10	1	-1E+10	1	-1E+10	1
4902551	31	C	06/16/2021	19:04	-135.010	49.437	0	300.00	0	4.6720	0	33.8960	0	26.839	0	297.228	0	67.9	4	21.7	4	-1E+10	1	-1E+10	1	-1E+10	1	-1E+10	1	-1E+10	1	-1E+10	1
4902551	31	C	06/16/2021	19:04	-135.010	49.437	0	300.80	0	4.6680	0	33.8970	0	26.841	0	298.020	0	67.7	4	21.7	4	-1E+10	1	-1E+10	1	-1E+10	1	-1E+10	1	-1E+10	1	-1E+10	1
4902551	31	C	06/16/2021	19:04	-135.010	49.437	0	301.70	0	4.6660	0	33.8980	0	26.842	0	298.911	0	67.4	4	21.6	4	-1E+10	1	-1E+10	1	-1E+10	1	-1E+10	1	-1E+10	1	-1E+10	1
4902551	31	C	06/16/2021	19:04	-135.010	49.437	0	302.90	0	4.6600	0	33.8980	0	26.842	0	300.099	0	67.1	4	21.5	4	-1E+10	1	-1E+10	1	-1E+10	1	-1E+10	1	-1E+10	1	-1E+10	1
4902551	31	C	06/16/2021	19:04	-135.010	49.437	0	304.20	0	4.6570	0	33.8990	0	26.843	0	301.386	0	66.7	4	21.4	4	-1E+10	1	-1E+10	1	-1E+10	1	-1E+10	1	-1E+10	1	-1E+10	1
4902551	31	C	06/16/2021	19:04	-135.010	49.437	0	305.00	0	4.6560	0	33.8990	0	26.843	0	302.178	0	66.5	4	21.3	4	-1E+10	1	-1E+10	1	-1E+10	1	-1E+10	1	-1E+10	1	-1E+10	1
4902551	31	C	06/16/2021	19:04	-135.010	49.437	0	305.80	0	4.6550	0	33.8990	0	26.844	0	302.970	0	66.2	4	21.2	4	-1E+10	1	-1E+10	1	-1E+10	1	-1E+10	1	-1E+10	1	-1E+10	1
4902551	31	C	06/16/2021	19:04	-135.010	49.437	0	306.70	0	4.6530	0	33.9000	0	26.845	0	303.861	0	65.9	4	21.1	4	-1E+10	1	-1E+10	1	-1E+10	1	-1E+10	1	-1E+10	1	-1E+10	1
4902551	31	C	06/16/2021	19:04	-135.010	49.437	0	308.00	0	4.6480	0	33.9020	0	26.847	0	305.148	0	65.4	4	20.9	4	-1E+10	1	-1E+10	1	-1E+10	1	-1E+10	1	-1E+10	1	-1E+10	1
4902551	31	C	06/16/2021	19:04	-135.010	49.437	0	309.30	0	4.6450	0	33.9030	0	26.848	0	306.435	0	64.8	4	20.8	4	-1E+10	1	-1E+10	1	-1E+10	1	-1E+10	1	-1E+10	1	-1E+10	1
4902551	31	C	06/16/2021	19:04	-135.010	49.437	0	310.20	0	4.6400	0	33.9040	0	26.849	0	307.326	0	64.5	4	20.6	4	-1E+10	1	-1E+10	1	-1E+10	1	-1E+10	1	-1E+10	1	-1E+10	1
4902551	31	C	06/16/2021	19:04	-135.010	49.437	0	311.00	0	4.6330	0	33.9060	0	26.852	0	308.118	0	64.1	4	20.5	4	-1E+10	1	-1E+10	1	-1E+10	1	-1E+10	1	-1E+10	1	-1E+10	1
4902551	31	C	06/16/2021	19:04	-135.010	49.437	0	311.90	0	4.6290	0	33.9070	0	26.853	0	309.009	0	63.9	4	20.4	4	-1E+10	1	-1E+10	1	-1E+10	1	-1E+10	1	-1E+10	1	-1E+10	1
4902551	31	C	06/16/2021	19:04	-135.010	49.437	0	312.80	0	4.6260	0	33.9070	0	26.853	0	309.900	0	63.5	4	20.3	4	-1E+10	1	-1E+10	1	-1E+10	1	-1E+10	1	-1E+10	1	-1E+10	1
4902551	31	C	06/16/2021	19:04	-135.010	49.437	0	313.70	0	4.6180	0	33.9100	0	26.856	0	310.791	0	63.2	4	20.2	4	-1E+10	1	-1E+10	1	-1E+10	1	-1E+10	1	-1E+10	1	-1E+10	1
4902551	31	C	06/16/2021	19:04	-135.010	49.437	0	314.90	0	4.6120	0	33.9120	0	26.859	0	311.979	0	62.7	4	20.1	4	-1E+10	1	-1E+10	1	-1E+10	1	-1E+10	1	-1E+10	1	-1E+10	1
4902551	31	C	06/16/2021	19:04	-135.010	49.437	0	316.30	0	4.6070	0	33.9130	0	26.860	0	313.365	0	62.4	4	19.9	4	-1E+10	1	-1E+10	1	-1E+10	1	-1E+10	1	-1E+10	1	-1E+10	1
4902551	31	C	06/16/2021	19:04	-135.010	49.437	0	317.20	0	4.6060	0	33.9140	0	26.861	0	314.256	0	62.0	4	19.8	4	-1E+10	1	-1E+10	1	-1E+10	1	-1E+10	1	-1E+10	1	-1E+10	1
4902551	31	C	06/16/2021	19:04	-135.010	49.437	0	318.00	0	4.6060	0	33.9140	0	26.861	0	315.048	0	61.7	4	19.7	4	-1E+10	1	-1E+10	1	-1E+10	1	-1E+10	1	-1E+10	1	-1E+10	1
4902551	31	C	06/16/2021	19:04	-135.010	49.437	0	318.90	0	4.6040	0	33.9140	0	26.861	0	315.939	0	61.4	4	19.6	4	-1E+10	1	-1E+10	1	-1E+10	1	-1E+10	1	-1E+10	1	-1E+10	1
4902551	31	C	06/16/2021	19:04	-135.010	49.437	0	319.80	0	4.6040	0	33.9140	0	26.861	0	316.829	0	61.0	4	19.5	4	-1E+10	1	-1E+10	1	-1E+10	1	-1E+10	1	-1E+10	1	-1E+10	1
4902551	31	C	06/16/2021	19:04	-135.010	49.437	0	320.60	0	4.6020	0	33.9150	0	26.862	0	317.621	0	60.6	4	19.4	4	-1E+10	1	-1E+10	1	-1E+10	1	-1E+10	1	-1E+10	1	-1E+10	1
4902551	31	C	06/16/2021	19:04	-135.010	49.437	0	321.90	0	4.6000	0	33.9160	0	26.863	0	318.908	0	60.0	4	19.2	4	-1E+10	1	-1E+10	1	-1E+10	1	-1E+10	1	-1E+10	1	-1E+10	1
4902551	31	C	06/16/2021	19:04	-135.010	49.437	0	323.20	0	4.5990	0	33.9170	0	26.864	0	320.195	0	59.4	4	19.0	4	-1E+10	1	-1E+10	1	-1E+10	1	-1E+10	1	-1E+10	1	-1E+10	1
4902551	31	C	06/16/2021	19:04	-135.010	49.437	0	324.10	0	4.5990	0	33.9170	0	26.864	0	321.086	0	58.9	4	18.8	4	-1E+10	1	-1E+10	1	-1E+10	1	-1E+10	1	-1E+10	1	-1E+10	1
4902551	31	C	06/16/2021	19:04	-135.010	49.437	0	325.00	0	4.5980	0	33.9180	0	26.865	0	321.977	0	58.4	4	18.7	4	-1E+10	1	-1E+10	1	-1E+10	1	-1E+10	1	-1E+10	1	-1E+10	1
4902551	31	C	06/16/2021	19:04	-135.010	49.437	0	325.90	0	4.5980	0	33.9180	0	26.865	0	322.868	0	57.9	4	18.5	4	-1E+10	1	-1E+10	1	-1E+10	1	-1E+10	1	-1E+10	1	-1E+10	1
4902551	31	C	06/16/2021	19:04	-135.010	49.437	0	326.80	0	4.5970	0	33.9200	0	26.867	0	323.759	0	57.5	4	18.4	4	-1E+10	1	-1E+10	1	-1E+10	1	-1E+10	1	-1E+10	1	-1E+10	1
4902551	31	C	06/16/2021	19:04	-135.010	49.437	0	327.80	0	4.5930	0	33.9220	0	26.869	0	324.749	0	57.2	4	18.3	4	-1E+10	1	-1E+10	1	-1E+10	1	-1E+10	1	-1E+10	1	-1E+10	1
4902551	31	C	06/16/2021	19:04	-135.010	49.437	0	328.70	0	4.5850	0	33.9240	0	26.871	0	325.640	0	56.9	4	18.2	4	-1E+10	1	-1E+10	1	-1E+10	1	-1E+10	1	-1E+10	1	-1E+10	1
4902551	31	C	06/16/2021	19:04	-135.010	49.437	0	329.60	0	4.5810	0	33.9250	0	26.872	0	326.531	0	56.6	4	18.1	4	-1E+10	1	-1E+10	1	-1E+10	1	-1E+10	1	-1E+10	1	-1E+10	1
4902551	31	C	06/16/2021	19:04	-135.010	49.437	0	330.90	0	4.5790	0	33.9280	0	26.875	0	327.818	0	56.2	4	18.0	4	-1E+10	1	-1E+10	1	-1E+10	1	-1E+10	1	-1E+10	1	-1E+10	1
4902551	31	C	06/16/2021	19:04	-135.010	49.437	0	332.30	0	4.5790	0	33.9300	0	26.877	0	329.203	0	55.8	4	17.8	4	-1E+10	1	-1E+10	1	-1E+10	1	-1E+10	1	-1E+10	1	-1E+10	1
4902551	31	C	06/16/2021	19:04	-135.010	49.437	0	333.20	0	4.5770	0	33.9320	0	26.878	0	330.094	0	55.6	4	17.8	4	-1E+10	1	-1E+10	1	-1E+10	1	-1E+10	1	-1E+10	1	-1E+10	1
4902551	31	C	06/16/2021	19:04	-135.010	49.437	0	334.10	0	4.5760	0	33.9330	0	26.879	0	330.985	0	55.5	4	17.7	4	-1E+10	1	-1E+10	1	-1E+10	1	-1E+10	1	-1E+10	1	-1E+10	1
4902551	31	C	06/16/2021	19:04	-135.010	49.437	0	335.00	0	4.5760	0	33.9330	0	26.879	0	331.876	0	55.3	4	17.7	4	-1E+10	1	-1E+10	1	-1E+10	1	-1E+10	1	-1E+10	1	-1E+10	1
4902551	31	C	06/16/2021	19:04	-135.010	49.437	0	335.90	0	4.5730	0	33.9340	0	26.881	0	332.767	0	55.1	4	17.6	4	-1E+10	1	-1E+10	1	-1E+10	1	-1E+10	1	-1E+10	1	-1E+10	1
4902551	31	C	06/16/2021	19:04	-135.010	49.437	0	336.90	0	4.5660	0	33.9360	0	26.883	0	333.757	0	55.0	4	17.6	4	-1E+10	1	-1E+10	1	-1E+10	1	-1E+10	1	-1E+10	1	-1E+10	1
4902551	31	C	06/16/2021	19:04	-135.010	49.437	0	337.80	0	4.5570	0	33.9380	0	26.885	0	334.648	0	54.9	4	17.5	4	-1E+10	1	-1E+10	1	-1E+10	1	-1E+10	1	-1E+10	1	-1E+10	1
4902551	31	C	06/16/2021	19:04	-135.010	49.437	0	338.70	0	4.5530	0	33.9390	0	26.887	0	335.539	0	54.7	4	17.5	4	-1E+10	1	-1E+10	1	-1E+10	1	-1E+10	1	-1E+10	1	-1E+10	1
4902551	31	C	06/16/2021	19:04	-135.010	49.437	0	339.60	0	4.5510	0	33.9400	0	26.888	0	336.430	0	54.6	4	17.4	4	-1E+10	1	-1E+10	1	-1E+10	1	-1E+10	1	-1E+10	1	-1E+10	1
4902551	31	C	06/16/2021	19:04	-135.010	49.437	0	340.60	0	4.5440	0	33.9420	0	26.890	0	337.419	0	54.5	4	17.4	4	-1E+10	1	-1E+10	1	-1E+10	1	-1E+10	1	-1E+10	1	-1E+10	1
4902551	31	C	06/16/2021	19:04	-135.010	49.437	0	341.90	0	4.5330	0	33.9430	0	26.892	0	338.706	0	54.4	4	17.4	4	-1E+10	1	-1E+10	1	-1E+10	1	-1E+10	1	-1E+10	1	-1E+10	1
4902551	31	C	06/16/2021	19:04	-135.010	49.437	0	343.40	0	4.5280	0	33.9460	0	26.895	0	340.191	0	54.3	4	17.3	4	-1E+10	1	-1E+10	1	-1E+10	1	-1E+10	1	-1E+10	1	-1E+10	1
4902551	31	C	06/16/2021	19:04	-135.010	49.437	0	344.30	0	4.5270	0	33.9460	0	26.895	0	341.082	0	54.3	4	17.3	4	-1E+10	1	-1E+10	1	-1E+10	1	-1E+10	1	-1E+10	1	-1E+10	1
4902551	31	C	06/16/2021	19:04	-135.010	49.437	0	345.30	0	4.5240	0	33.9470	0	26.896	0	342.072	0	54.2	4	17.3	4	-1E+10	1	-1E+10	1	-1E+10	1	-1E+10	1	-1E+10	1	-1E+10	1
4902551	31	C	06/16/2021	19:04	-135.010	49.437	0	346.20	0	4.5220	0	33.9460	0	26.896	0	342.962	0	54.2	4	17.3	4	-1E+10	1	-1E+10	1	-1E+10	1	-1E+10	1	-1E+10	1	-1E+10	1
4902551	31	C	06/16/2021	19:04	-135.010	49.437	0	347.20	0	4.5220	0	33.9460	0	26.896	0	343.952	0	54.1	4	17.3	4	-1E+10	1	-1E+10	1	-1E+10	1	-1E+10	1	-1E+10	1	-1E+10	1
4902551	31	C	06/16/2021	19:04	-135.010	49.437	0	348.20	0	4.5200	0	33.9470	0	26.897	0	344.942	0	54.1	4	17.3	4	-1E+10	1	-1E+10	1	-1E+10	1	-1E+10	1	-1E+10	1	-1E+10	1
4902551	31	C	06/16/2021	19:04	-135.010	49.437	0	349.10	0	4.5110	0	33.9520	0	26.902	0	345.833	0	54.1	4	17.3	4	-1E+10	1	-1E+10	1	-1E+10	1	-1E+10	1	-1E+10	1	-1E+10	1
4902551	31	C	06/16/2021	19:04	-135.010	49.437	0	350.10	0	4.5060	0	33.9500	0	26.901	0	346.823	0	54.0	4	17.2	4	-1E+10	1	-1E+10	1	-1E+10	1	-1E+10	1	-1E+10	1	-1E+10	1
4902551	31	C	06/16/2021	19:04	-135.010	49.437	0	353.10	0	4.4960	0	33.9510	0	26.902	0	349.792	0	53.8	4	17.2	4	-1E+10	1	-1E+10	1	-1E+10	1	-1E+10	1	-1E+10	1	-1E+10	1
4902551	31	C	06/16/2021	19:04	-135.010	49.437	0	358.10	0	4.4880	0	33.9540	0	26.906	0	354.741	0	53.4	4	17.0	4	-1E+10	1	-1E+10	1	-1E+10	1	-1E+10	1	-1E+10	1	-1E+10	1
4902551	31	C	06/16/2021	19:04	-135.010	49.437	0	363.20	0	4.4870	0	33.9550	0	26.907	0	359.789	0	52.9	4	16.9	4	-1E+10	1	-1E+10	1	-1E+10	1	-1E+10	1	-1E+10	1	-1E+10	1
4902551	31	C	06/16/2021	19:04	-135.010	49.437	0	368.30	0	4.4800	0	33.9570	0	26.909	0	364.836	0	52.2	4	16.7	4	-1E+10	1	-1E+10	1	-1E+10	1	-1E+10	1	-1E+10	1	-1E+10	1
4902551	31	C	06/16/2021	19:04	-135.010	49.437	0	372.90	0	4.4740	0	33.9590	0	26.911	0	369.389	0	51.6	4	16.5	4	-1E+10	1	-1E+10	1	-1E+10	1	-1E+10	1	-1E+10	1	-1E+10	1
4902551	31	C	06/16/2021	19:04	-135.010	49.437	0	377.60	0	4.4610	0	33.9630	0	26.916	0	374.040	0	51.0	4	16.3	4	-1E+10	1	-1E+10	1	-1E+10	1	-1E+10	1	-1E+10	1	-1E+10	1
4902551	31	C	06/16/2021	19:04	-135.010	49.437	0	382.90	0	4.4410	0	33.9700	0	26.924	0	379.286	0	50.6	4	16.1	4	-1E+10	1	-1E+10	1	-1E+10	1	-1E+10	1	-1E+10	1	-1E+10	1
4902551	31	C	06/16/2021	19:04	-135.010	49.437	0	387.70	0	4.4280	0	33.9740	0	26.928	0	384.036	0	50.5	4	16.1	4	-1E+10	1	-1E+10	1	-1E+10	1	-1E+10	1	-1E+10	1	-1E+10	1
4902551	31	C	06/16/2021	19:04	-135.010	49.437	0	392.60	0	4.4160	0	33.9770	0	26.932	0	388.885	0	50.2	4	16.0	4	-1E+10	1	-1E+10	1	-1E+10	1	-1E+10	1	-1E+10	1	-1E+10	1
4902551	31	C	06/16/2021	19:04	-135.010	49.437	0	398.10	0	4.4020	0	33.9800	0	26.936	0	394.328	0	49.6	4	15.8	4	-1E+10	1	-1E+10	1	-1E+10	1	-1E+10	1	-1E+10	1	-1E+10	1
4902551	31	C	06/16/2021	19:04	-135.010	49.437	0	403.00	0	4.3850	0	33.9850	0	26.942	0	399.177	0	48.8	4	15.5	4	-1E+10	1	-1E+10	1	-1E+10	1	-1E+10	1	-1E+10	1	-1E+10	1
4902551	31	C	06/16/2021	19:04	-135.010	49.437	0	408.00	0	4.3650	0	33.9910	0	26.949	0	404.124	0	47.9	4	15.2	4	-1E+10	1	-1E+10	1	-1E+10	1	-1E+10	1	-1E+10	1	-1E+10	1
4902551	31	C	06/16/2021	19:04	-135.010	49.437	0	413.00	0	4.3510	0	33.9970	0	26.955	0	409.072	0	46.9	4	14.9	4	-1E+10	1	-1E+10	1	-1E+10	1	-1E+10	1	-1E+10	1	-1E+10	1
4902551	31	C	06/16/2021	19:04	-135.010	49.437	0	418.00	0	4.3440	0	33.9990	0	26.957	0	414.019	0	45.7	4	14.5	4	-1E+10	1	-1E+10	1	-1E+10	1	-1E+10	1	-1E+10	1	-1E+10	1
4902551	31	C	06/16/2021	19:04	-135.010	49.437	0	423.00	0	4.3210	0	34.0080	0	26.967	0	418.967	0	44.7	4	14.2	4	-1E+10	1	-1E+10	1	-1E+10	1	-1E+10	1	-1E+10	1	-1E+10	1
4902551	31	C	06/16/2021	19:04	-135.010	49.437	0	428.00	0	4.3100	0	34.0130	0	26.972	0	423.914	0	44.1	4	14.0	4	-1E+10	1	-1E+10	1	-1E+10	1	-1E+10	1	-1E+10	1	-1E+10	1
4902551	31	C	06/16/2021	19:04	-135.010	49.437	0	433.00	0	4.3000	0	34.0170	0	26.976	0	428.861	0	43.3	4	13.8	4	-1E+10	1	-1E+10	1	-1E+10	1	-1E+10	1	-1E+10	1	-1E+10	1
4902551	31	C	06/16/2021	19:04	-135.010	49.437	0	438.00	0	4.2940	0	34.0190	0	26.979	0	433.808	0	42.6	4	13.5	4	-1E+10	1	-1E+10	1	-1E+10	1	-1E+10	1	-1E+10	1	-1E+10	1
4902551	31	C	06/16/2021	19:04	-135.010	49.437	0	443.00	0	4.2840	0	34.0230	0	26.983	0	438.755	0	41.7	4	13.2	4	-1E+10	1	-1E+10	1	-1E+10	1	-1E+10	1	-1E+10	1	-1E+10	1
4902551	31	C	06/16/2021	19:04	-135.010	49.437	0	447.90	0	4.2720	0	34.0280	0	26.988	0	443.603	0	40.8	4	12.9	4	-1E+10	1	-1E+10	1	-1E+10	1	-1E+10	1	-1E+10	1	-1E+10	1
4902551	31	C	06/16/2021	19:04	-135.010	49.437	0	452.80	0	4.2520	0	34.0350	0	26.996	0	448.450	0	40.0	4	12.7	4	-1E+10	1	-1E+10	1	-1E+10	1	-1E+10	1	-1E+10	1	-1E+10	1
4902551	31	C	06/16/2021	19:04	-135.010	49.437	0	457.90	0	4.2480	0	34.0360	0	26.997	0	453.496	0	39.4	4	12.5	4	-1E+10	1	-1E+10	1	-1E+10	1	-1E+10	1	-1E+10	1	-1E+10	1
4902551	31	C	06/16/2021	19:04	-135.010	49.437	0	462.90	0	4.2410	0	34.0390	0	27.000	0	458.442	0	38.8	4	12.3	4	-1E+10	1	-1E+10	1	-1E+10	1	-1E+10	1	-1E+10	1	-1E+10	1
4902551	31	C	06/16/2021	19:04	-135.010	49.437	0	467.70	0	4.2260	0	34.0440	0	27.006	0	463.191	0	38.0	4	12.0	4	-1E+10	1	-1E+10	1	-1E+10	1	-1E+10	1	-1E+10	1	-1E+10	1
4902551	31	C	06/16/2021	19:04	-135.010	49.437	0	473.20	0	4.2070	0	34.0510	0	27.013	0	468.631	0	37.4	4	11.9	4	-1E+10	1	-1E+10	1	-1E+10	1	-1E+10	1	-1E+10	1	-1E+10	1
4902551	31	C	06/16/2021	19:04	-135.010	49.437	0	478.00	0	4.2040	0	34.0520	0	27.015	0	473.380	0	37.0	4	11.7	4	-1E+10	1	-1E+10	1	-1E+10	1	-1E+10	1	-1E+10	1	-1E+10	1
4902551	31	C	06/16/2021	19:04	-135.010	49.437	0	483.00	0	4.2010	0	34.0530	0	27.016	0	478.325	0	36.0	4	11.4	4	-1E+10	1	-1E+10	1	-1E+10	1	-1E+10	1	-1E+10	1	-1E+10	1
4902551	31	C	06/16/2021	19:04	-135.010	49.437	0	488.20	0	4.1810	0	34.0590	0	27.023	0	483.469	0	34.5	4	10.9	4	-1E+10	1	-1E+10	1	-1E+10	1	-1E+10	1	-1E+10	1	-1E+10	1
4902551	31	C	06/16/2021	19:04	-135.010	49.437	0	493.00	0	4.1580	0	34.0680	0	27.032	0	488.217	0	33.3	4	10.5	4	-1E+10	1	-1E+10	1	-1E+10	1	-1E+10	1	-1E+10	1	-1E+10	1
4902551	31	C	06/16/2021	19:04	-135.010	49.437	0	498.00	0	4.1310	0	34.0790	0	27.044	0	493.163	0	32.4	4	10.2	4	-1E+10	1	-1E+10	1	-1E+10	1	-1E+10	1	-1E+10	1	-1E+10	1
4902551	31	C	06/16/2021	19:04	-135.010	49.437	0	503.00	0	4.1170	0	34.0830	0	27.048	0	498.108	0	32.0	4	10.1	4	-1E+10	1	-1E+10	1	-1E+10	1	-1E+10	1	-1E+10	1	-1E+10	1
4902551	31	C	06/16/2021	19:04	-135.010	49.437	0	507.90	0	4.1100	0	34.0850	0	27.051	0	502.954	0	31.8	4	10.0	4	-1E+10	1	-1E+10	1	-1E+10	1	-1E+10	1	-1E+10	1	-1E+10	1
4902551	31	C	06/16/2021	19:04	-135.010	49.437	0	512.80	0	4.1070	0	34.0870	0	27.053	0	507.801	0	31.6	4	10.0	4	-1E+10	1	-1E+10	1	-1E+10	1	-1E+10	1	-1E+10	1	-1E+10	1
4902551	31	C	06/16/2021	19:04	-135.010	49.437	0	517.90	0	4.1060	0	34.0730	0	27.042	0	512.845	0	31.3	4	9.9	4	-1E+10	1	-1E+10	1	-1E+10	1	-1E+10	1	-1E+10	1	-1E+10	1
4902551	31	C	06/16/2021	19:04	-135.010	49.437	0	522.90	0	4.1040	0	34.0880	0	27.054	0	517.790	0	30.8	4	9.7	4	-1E+10	1	-1E+10	1	-1E+10	1	-1E+10	1	-1E+10	1	-1E+10	1
4902551	31	C	06/16/2021	19:04	-135.010	49.437	0	527.90	0	4.0980	0	34.0900	0	27.056	0	522.735	0	30.0	4	9.5	4	-1E+10	1	-1E+10	1	-1E+10	1	-1E+10	1	-1E+10	1	-1E+10	1
4902551	31	C	06/16/2021	19:04	-135.010	49.437	0	532.80	0	4.0800	0	34.0960	0	27.063	0	527.580	0	29.0	4	9.2	4	-1E+10	1	-1E+10	1	-1E+10	1	-1E+10	1	-1E+10	1	-1E+10	1
4902551	31	C	06/16/2021	19:04	-135.010	49.437	0	537.90	0	4.0540	0	34.1060	0	27.074	0	532.624	0	28.4	4	9.0	4	-1E+10	1	-1E+10	1	-1E+10	1	-1E+10	1	-1E+10	1	-1E+10	1
4902551	31	C	06/16/2021	19:04	-135.010	49.437	0	543.00	0	4.0410	0	34.1090	0	27.077	0	537.667	0	27.9	4	8.8	4	-1E+10	1	-1E+10	1	-1E+10	1	-1E+10	1	-1E+10	1	-1E+10	1
4902551	31	C	06/16/2021	19:04	-135.010	49.437	0	548.20	0	4.0280	0	34.1130	0	27.082	0	542.809	0	27.2	4	8.6	4	-1E+10	1	-1E+10	1	-1E+10	1	-1E+10	1	-1E+10	1	-1E+10	1
4902551	31	C	06/16/2021	19:04	-135.010	49.437	0	552.90	0	4.0210	0	34.1180	0	27.087	0	547.457	0	26.6	4	8.4	4	-1E+10	1	-1E+10	1	-1E+10	1	-1E+10	1	-1E+10	1	-1E+10	1
4902551	31	C	06/16/2021	19:04	-135.010	49.437	0	557.70	0	4.0160	0	34.1210	0	27.089	0	552.203	0	26.2	4	8.3	4	-1E+10	1	-1E+10	1	-1E+10	1	-1E+10	1	-1E+10	1	-1E+10	1
4902551	31	C	06/16/2021	19:04	-135.010	49.437	0	563.00	0	4.0040	0	34.1250	0	27.094	0	557.444	0	25.7	4	8.1	4	-1E+10	1	-1E+10	1	-1E+10	1	-1E+10	1	-1E+10	1	-1E+10	1
4902551	31	C	06/16/2021	19:04	-135.010	49.437	0	568.10	0	3.9960	0	34.1270	0	27.096	0	562.487	0	25.2	4	7.9	4	-1E+10	1	-1E+10	1	-1E+10	1	-1E+10	1	-1E+10	1	-1E+10	1
4902551	31	C	06/16/2021	19:04	-135.010	49.437	0	573.00	0	3.9800	0	34.1320	0	27.102	0	567.332	0	24.4	4	7.7	4	-1E+10	1	-1E+10	1	-1E+10	1	-1E+10	1	-1E+10	1	-1E+10	1
4902551	31	C	06/16/2021	19:04	-135.010	49.437	0	578.20	0	3.9580	0	34.1400	0	27.111	0	572.473	0	23.7	4	7.5	4	-1E+10	1	-1E+10	1	-1E+10	1	-1E+10	1	-1E+10	1	-1E+10	1
4902551	31	C	06/16/2021	19:04	-135.010	49.437	0	582.90	0	3.9360	0	34.1470	0	27.118	0	577.120	0	23.3	4	7.4	4	-1E+10	1	-1E+10	1	-1E+10	1	-1E+10	1	-1E+10	1	-1E+10	1
4902551	31	C	06/16/2021	19:04	-135.010	49.437	0	587.60	0	3.9240	0	34.1500	0	27.122	0	581.767	0	23.0	4	7.2	4	-1E+10	1	-1E+10	1	-1E+10	1	-1E+10	1	-1E+10	1	-1E+10	1
4902551	31	C	06/16/2021	19:04	-135.010	49.437	0	592.90	0	3.9090	0	34.1550	0	27.128	0	587.007	0	22.5	4	7.1	4	-1E+10	1	-1E+10	1	-1E+10	1	-1E+10	1	-1E+10	1	-1E+10	1
4902551	31	C	06/16/2021	19:04	-135.010	49.437	0	598.20	0	3.8950	0	34.1590	0	27.132	0	592.247	0	22.1	4	7.0	4	-1E+10	1	-1E+10	1	-1E+10	1	-1E+10	1	-1E+10	1	-1E+10	1
4902551	31	C	06/16/2021	19:04	-135.010	49.437	0	603.00	0	3.8870	0	34.1630	0	27.136	0	596.992	0	21.8	4	6.8	4	-1E+10	1	-1E+10	1	-1E+10	1	-1E+10	1	-1E+10	1	-1E+10	1
4902551	31	C	06/16/2021	19:04	-135.010	49.437	0	607.80	0	3.8770	0	34.1660	0	27.140	0	601.737	0	21.4	4	6.7	4	-1E+10	1	-1E+10	1	-1E+10	1	-1E+10	1	-1E+10	1	-1E+10	1
4902551	31	C	06/16/2021	19:04	-135.010	49.437	0	612.60	0	3.8610	0	34.1720	0	27.146	0	606.482	0	21.1	4	6.6	4	-1E+10	1	-1E+10	1	-1E+10	1	-1E+10	1	-1E+10	1	-1E+10	1
4902551	31	C	06/16/2021	19:04	-135.010	49.437	0	617.60	0	3.8520	0	34.1750	0	27.149	0	611.425	0	20.9	4	6.6	4	-1E+10	1	-1E+10	1	-1E+10	1	-1E+10	1	-1E+10	1	-1E+10	1
4902551	31	C	06/16/2021	19:04	-135.010	49.437	0	622.60	0	3.8460	0	34.1760	0	27.151	0	616.368	0	20.7	4	6.5	4	-1E+10	1	-1E+10	1	-1E+10	1	-1E+10	1	-1E+10	1	-1E+10	1
4902551	31	C	06/16/2021	19:04	-135.010	49.437	0	627.70	0	3.8360	0	34.1780	0	27.154	0	621.409	0	20.5	4	6.4	4	-1E+10	1	-1E+10	1	-1E+10	1	-1E+10	1	-1E+10	1	-1E+10	1
4902551	31	C	06/16/2021	19:04	-135.010	49.437	0	632.80	0	3.8280	0	34.1800	0	27.156	0	626.450	0	20.1	4	6.3	4	-1E+10	1	-1E+10	1	-1E+10	1	-1E+10	1	-1E+10	1	-1E+10	1
4902551	31	C	06/16/2021	19:04	-135.010	49.437	0	637.70	0	3.8160	0	34.1840	0	27.160	0	631.294	0	19.7	4	6.2	4	-1E+10	1	-1E+10	1	-1E+10	1	-1E+10	1	-1E+10	1	-1E+10	1
4902551	31	C	06/16/2021	19:04	-135.010	49.437	0	642.70	0	3.7960	0	34.1910	0	27.168	0	636.236	0	19.3	4	6.1	4	-1E+10	1	-1E+10	1	-1E+10	1	-1E+10	1	-1E+10	1	-1E+10	1
4902551	31	C	06/16/2021	19:04	-135.010	49.437	0	648.00	0	3.7920	0	34.1940	0	27.171	0	641.474	0	19.0	4	6.0	4	-1E+10	1	-1E+10	1	-1E+10	1	-1E+10	1	-1E+10	1	-1E+10	1
4902551	31	C	06/16/2021	19:04	-135.010	49.437	0	653.20	0	3.7850	0	34.1980	0	27.175	0	646.614	0	18.6	4	5.9	4	-1E+10	1	-1E+10	1	-1E+10	1	-1E+10	1	-1E+10	1	-1E+10	1
4902551	31	C	06/16/2021	19:04	-135.010	49.437	0	658.00	0	3.7780	0	34.2010	0	27.178	0	651.358	0	18.4	4	5.8	4	-1E+10	1	-1E+10	1	-1E+10	1	-1E+10	1	-1E+10	1	-1E+10	1
4902551	31	C	06/16/2021	19:04	-135.010	49.437	0	662.80	0	3.7710	0	34.2040	0	27.181	0	656.102	0	18.1	4	5.7	4	-1E+10	1	-1E+10	1	-1E+10	1	-1E+10	1	-1E+10	1	-1E+10	1
4902551	31	C	06/16/2021	19:04	-135.010	49.437	0	667.80	0	3.7600	0	34.2070	0	27.184	0	661.043	0	17.9	4	5.6	4	-1E+10	1	-1E+10	1	-1E+10	1	-1E+10	1	-1E+10	1	-1E+10	1
4902551	31	C	06/16/2021	19:04	-135.010	49.437	0	672.80	0	3.7470	0	34.2120	0	27.190	0	665.985	0	17.7	4	5.6	4	-1E+10	1	-1E+10	1	-1E+10	1	-1E+10	1	-1E+10	1	-1E+10	1
4902551	31	C	06/16/2021	19:04	-135.010	49.437	0	677.90	0	3.7380	0	34.2140	0	27.192	0	671.025	0	17.6	4	5.5	4	-1E+10	1	-1E+10	1	-1E+10	1	-1E+10	1	-1E+10	1	-1E+10	1
4902551	31	C	06/16/2021	19:04	-135.010	49.437	0	683.00	0	3.7370	0	34.2150	0	27.193	0	676.065	0	17.5	4	5.5	4	-1E+10	1	-1E+10	1	-1E+10	1	-1E+10	1	-1E+10	1	-1E+10	1
4902551	31	C	06/16/2021	19:04	-135.010	49.437	0	687.90	0	3.7320	0	34.2160	0	27.195	0	680.907	0	17.4	4	5.4	4	-1E+10	1	-1E+10	1	-1E+10	1	-1E+10	1	-1E+10	1	-1E+10	1
4902551	31	C	06/16/2021	19:04	-135.010	49.437	0	692.80	0	3.7240	0	34.2190	0	27.198	0	685.749	0	17.2	4	5.4	4	-1E+10	1	-1E+10	1	-1E+10	1	-1E+10	1	-1E+10	1	-1E+10	1
4902551	31	C	06/16/2021	19:04	-135.010	49.437	0	697.90	0	3.7190	0	34.2200	0	27.199	0	690.789	0	17.0	4	5.3	4	-1E+10	1	-1E+10	1	-1E+10	1	-1E+10	1	-1E+10	1	-1E+10	1
4902551	31	C	06/16/2021	19:04	-135.010	49.437	0	702.90	0	3.7080	0	34.2230	0	27.203	0	695.730	0	16.8	4	5.3	4	-1E+10	1	-1E+10	1	-1E+10	1	-1E+10	1	-1E+10	1	-1E+10	1
4902551	31	C	06/16/2021	19:04	-135.010	49.437	0	708.00	0	3.6810	0	34.2300	0	27.211	0	700.769	0	16.6	4	5.2	4	-1E+10	1	-1E+10	1	-1E+10	1	-1E+10	1	-1E+10	1	-1E+10	1
4902551	31	C	06/16/2021	19:04	-135.010	49.437	0	712.80	0	3.6760	0	34.2310	0	27.212	0	705.512	0	16.5	4	5.2	4	-1E+10	1	-1E+10	1	-1E+10	1	-1E+10	1	-1E+10	1	-1E+10	1
4902551	31	C	06/16/2021	19:04	-135.010	49.437	0	717.60	0	3.6600	0	34.2360	0	27.218	0	710.255	0	16.3	4	5.1	4	-1E+10	1	-1E+10	1	-1E+10	1	-1E+10	1	-1E+10	1	-1E+10	1
4902551	31	C	06/16/2021	19:04	-135.010	49.437	0	722.50	0	3.6460	0	34.2390	0	27.222	0	715.096	0	16.3	4	5.1	4	-1E+10	1	-1E+10	1	-1E+10	1	-1E+10	1	-1E+10	1	-1E+10	1
4902551	31	C	06/16/2021	19:04	-135.010	49.437	0	727.80	0	3.6430	0	34.2400	0	27.223	0	720.333	0	16.2	4	5.1	4	-1E+10	1	-1E+10	1	-1E+10	1	-1E+10	1	-1E+10	1	-1E+10	1
4902551	31	C	06/16/2021	19:04	-135.010	49.437	0	733.30	0	3.6320	0	34.2430	0	27.226	0	725.767	0	16.1	4	5.0	4	-1E+10	1	-1E+10	1	-1E+10	1	-1E+10	1	-1E+10	1	-1E+10	1
4902551	31	C	06/16/2021	19:04	-135.010	49.437	0	738.20	0	3.6290	0	34.2430	0	27.226	0	730.608	0	16.1	4	5.0	4	-1E+10	1	-1E+10	1	-1E+10	1	-1E+10	1	-1E+10	1	-1E+10	1
4902551	31	C	06/16/2021	19:04	-135.010	49.437	0	743.10	0	3.6190	0	34.2450	0	27.229	0	735.449	0	15.9	4	5.0	4	-1E+10	1	-1E+10	1	-1E+10	1	-1E+10	1	-1E+10	1	-1E+10	1
4902551	31	C	06/16/2021	19:04	-135.010	49.437	0	748.10	0	3.6080	0	34.2480	0	27.233	0	740.388	0	15.8	4	5.0	4	-1E+10	1	-1E+10	1	-1E+10	1	-1E+10	1	-1E+10	1	-1E+10	1
4902551	31	C	06/16/2021	19:04	-135.010	49.437	0	753.10	0	3.5940	0	34.2510	0	27.236	0	745.328	0	15.8	4	4.9	4	-1E+10	1	-1E+10	1	-1E+10	1	-1E+10	1	-1E+10	1	-1E+10	1
4902551	31	C	06/16/2021	19:04	-135.010	49.437	0	758.20	0	3.5830	0	34.2530	0	27.239	0	750.366	0	15.7	4	4.9	4	-1E+10	1	-1E+10	1	-1E+10	1	-1E+10	1	-1E+10	1	-1E+10	1
4902551	31	C	06/16/2021	19:04	-135.010	49.437	0	763.30	0	3.5700	0	34.2560	0	27.243	0	755.404	0	15.6	4	4.9	4	-1E+10	1	-1E+10	1	-1E+10	1	-1E+10	1	-1E+10	1	-1E+10	1
4902551	31	C	06/16/2021	19:04	-135.010	49.437	0	767.90	0	3.5570	0	34.2590	0	27.246	0	759.948	0	15.5	4	4.8	4	-1E+10	1	-1E+10	1	-1E+10	1	-1E+10	1	-1E+10	1	-1E+10	1
4902551	31	C	06/16/2021	19:04	-135.010	49.437	0	772.50	0	3.5520	0	34.2600	0	27.248	0	764.492	0	15.4	4	4.8	4	-1E+10	1	-1E+10	1	-1E+10	1	-1E+10	1	-1E+10	1	-1E+10	1
4902551	31	C	06/16/2021	19:04	-135.010	49.437	0	777.50	0	3.5350	0	34.2630	0	27.252	0	769.431	0	15.3	4	4.8	4	-1E+10	1	-1E+10	1	-1E+10	1	-1E+10	1	-1E+10	1	-1E+10	1
4902551	31	C	06/16/2021	19:04	-135.010	49.437	0	782.50	0	3.5170	0	34.2670	0	27.257	0	774.370	0	15.2	4	4.7	4	-1E+10	1	-1E+10	1	-1E+10	1	-1E+10	1	-1E+10	1	-1E+10	1
4902551	31	C	06/16/2021	19:04	-135.010	49.437	0	787.60	0	3.5010	0	34.2690	0	27.260	0	779.408	0	15.1	4	4.7	4	-1E+10	1	-1E+10	1	-1E+10	1	-1E+10	1	-1E+10	1	-1E+10	1
4902551	31	C	06/16/2021	19:04	-135.010	49.437	0	792.60	0	3.4940	0	34.2700	0	27.261	0	784.346	0	15.1	4	4.7	4	-1E+10	1	-1E+10	1	-1E+10	1	-1E+10	1	-1E+10	1	-1E+10	1
4902551	31	C	06/16/2021	19:04	-135.010	49.437	0	797.70	0	3.4780	0	34.2740	0	27.266	0	789.384	0	15.0	4	4.7	4	-1E+10	1	-1E+10	1	-1E+10	1	-1E+10	1	-1E+10	1	-1E+10	1
4902551	31	C	06/16/2021	19:04	-135.010	49.437	0	802.80	0	3.4670	0	34.2750	0	27.268	0	794.421	0	14.9	4	4.6	4	-1E+10	1	-1E+10	1	-1E+10	1	-1E+10	1	-1E+10	1	-1E+10	1
4902551	31	C	06/16/2021	19:04	-135.010	49.437	0	807.80	0	3.4560	0	34.2790	0	27.272	0	799.359	0	14.8	4	4.6	4	-1E+10	1	-1E+10	1	-1E+10	1	-1E+10	1	-1E+10	1	-1E+10	1
4902551	31	C	06/16/2021	19:04	-135.010	49.437	0	812.80	0	3.4410	0	34.2820	0	27.276	0	804.297	0	14.7	4	4.6	4	-1E+10	1	-1E+10	1	-1E+10	1	-1E+10	1	-1E+10	1	-1E+10	1
4902551	31	C	06/16/2021	19:04	-135.010	49.437	0	817.80	0	3.4330	0	34.2840	0	27.279	0	809.235	0	14.6	4	4.6	4	-1E+10	1	-1E+10	1	-1E+10	1	-1E+10	1	-1E+10	1	-1E+10	1
4902551	31	C	06/16/2021	19:04	-135.010	49.437	0	822.90	0	3.4120	0	34.2880	0	27.284	0	814.272	0	14.6	4	4.5	4	-1E+10	1	-1E+10	1	-1E+10	1	-1E+10	1	-1E+10	1	-1E+10	1
4902551	31	C	06/16/2021	19:04	-135.010	49.437	0	827.90	0	3.4000	0	34.2900	0	27.287	0	819.209	0	14.5	4	4.5	4	-1E+10	1	-1E+10	1	-1E+10	1	-1E+10	1	-1E+10	1	-1E+10	1
4902551	31	C	06/16/2021	19:04	-135.010	49.437	0	833.10	0	3.3910	0	34.2910	0	27.288	0	824.345	0	14.4	4	4.5	4	-1E+10	1	-1E+10	1	-1E+10	1	-1E+10	1	-1E+10	1	-1E+10	1
4902551	31	C	06/16/2021	19:04	-135.010	49.437	0	838.30	0	3.3760	0	34.2930	0	27.291	0	829.480	0	14.4	4	4.5	4	-1E+10	1	-1E+10	1	-1E+10	1	-1E+10	1	-1E+10	1	-1E+10	1
4902551	31	C	06/16/2021	19:04	-135.010	49.437	0	842.90	0	3.3590	0	34.2970	0	27.296	0	834.022	0	14.3	4	4.4	4	-1E+10	1	-1E+10	1	-1E+10	1	-1E+10	1	-1E+10	1	-1E+10	1
4902551	31	C	06/16/2021	19:04	-135.010	49.437	0	847.50	0	3.3490	0	34.2990	0	27.299	0	838.564	0	14.2	4	4.4	4	-1E+10	1	-1E+10	1	-1E+10	1	-1E+10	1	-1E+10	1	-1E+10	1
4902551	31	C	06/16/2021	19:04	-135.010	49.437	0	852.80	0	3.3320	0	34.3030	0	27.303	0	843.798	0	14.1	4	4.4	4	-1E+10	1	-1E+10	1	-1E+10	1	-1E+10	1	-1E+10	1	-1E+10	1
4902551	31	C	06/16/2021	19:04	-135.010	49.437	0	858.10	0	3.3190	0	34.3060	0	27.307	0	849.031	0	14.1	4	4.4	4	-1E+10	1	-1E+10	1	-1E+10	1	-1E+10	1	-1E+10	1	-1E+10	1
4902551	31	C	06/16/2021	19:04	-135.010	49.437	0	862.90	0	3.3070	0	34.3080	0	27.310	0	853.771	0	14.1	4	4.4	4	-1E+10	1	-1E+10	1	-1E+10	1	-1E+10	1	-1E+10	1	-1E+10	1
4902551	31	C	06/16/2021	19:04	-135.010	49.437	0	867.60	0	3.3000	0	34.3100	0	27.312	0	858.411	0	14.0	4	4.4	4	-1E+10	1	-1E+10	1	-1E+10	1	-1E+10	1	-1E+10	1	-1E+10	1
4902551	31	C	06/16/2021	19:04	-135.010	49.437	0	872.70	0	3.2980	0	34.3110	0	27.313	0	863.447	0	14.0	4	4.4	4	-1E+10	1	-1E+10	1	-1E+10	1	-1E+10	1	-1E+10	1	-1E+10	1
4902551	31	C	06/16/2021	19:04	-135.010	49.437	0	877.80	0	3.2950	0	34.3110	0	27.313	0	868.482	0	14.0	4	4.3	4	-1E+10	1	-1E+10	1	-1E+10	1	-1E+10	1	-1E+10	1	-1E+10	1
4902551	31	C	06/16/2021	19:04	-135.010	49.437	0	882.70	0	3.2830	0	34.3140	0	27.317	0	873.320	0	13.9	4	4.3	4	-1E+10	1	-1E+10	1	-1E+10	1	-1E+10	1	-1E+10	1	-1E+10	1
4902551	31	C	06/16/2021	19:04	-135.010	49.437	0	888.00	0	3.2730	0	34.3160	0	27.320	0	878.552	0	13.8	4	4.3	4	-1E+10	1	-1E+10	1	-1E+10	1	-1E+10	1	-1E+10	1	-1E+10	1
4902551	31	C	06/16/2021	19:04	-135.010	49.437	0	893.20	0	3.2550	0	34.3190	0	27.324	0	883.686	0	13.8	4	4.3	4	-1E+10	1	-1E+10	1	-1E+10	1	-1E+10	1	-1E+10	1	-1E+10	1
4902551	31	C	06/16/2021	19:04	-135.010	49.437	0	898.10	0	3.2440	0	34.3220	0	27.327	0	888.523	0	13.7	4	4.3	4	-1E+10	1	-1E+10	1	-1E+10	1	-1E+10	1	-1E+10	1	-1E+10	1
4902551	31	C	06/16/2021	19:04	-135.010	49.437	0	903.10	0	3.2270	0	34.3250	0	27.331	0	893.459	0	13.7	4	4.2	4	-1E+10	1	-1E+10	1	-1E+10	1	-1E+10	1	-1E+10	1	-1E+10	1
4902551	31	C	06/16/2021	19:04	-135.010	49.437	0	908.20	0	3.2180	0	34.3270	0	27.334	0	898.494	0	13.6	4	4.2	4	-1E+10	1	-1E+10	1	-1E+10	1	-1E+10	1	-1E+10	1	-1E+10	1
4902551	31	C	06/16/2021	19:04	-135.010	49.437	0	913.00	0	3.2140	0	34.3280	0	27.335	0	903.232	0	13.6	4	4.2	4	-1E+10	1	-1E+10	1	-1E+10	1	-1E+10	1	-1E+10	1	-1E+10	1
4902551	31	C	06/16/2021	19:04	-135.010	49.437	0	917.80	0	3.2060	0	34.3310	0	27.338	0	907.971	0	13.5	4	4.2	4	-1E+10	1	-1E+10	1	-1E+10	1	-1E+10	1	-1E+10	1	-1E+10	1
4902551	31	C	06/16/2021	19:04	-135.010	49.437	0	922.80	0	3.1930	0	34.3330	0	27.341	0	912.906	0	13.5	4	4.2	4	-1E+10	1	-1E+10	1	-1E+10	1	-1E+10	1	-1E+10	1	-1E+10	1
4902551	31	C	06/16/2021	19:04	-135.010	49.437	0	927.80	0	3.1750	0	34.3360	0	27.345	0	917.842	0	13.4	4	4.2	4	-1E+10	1	-1E+10	1	-1E+10	1	-1E+10	1	-1E+10	1	-1E+10	1
4902551	31	C	06/16/2021	19:04	-135.010	49.437	0	933.00	0	3.1540	0	34.3410	0	27.351	0	922.974	0	13.4	4	4.1	4	-1E+10	1	-1E+10	1	-1E+10	1	-1E+10	1	-1E+10	1	-1E+10	1
4902551	31	C	06/16/2021	19:04	-135.010	49.437	0	937.80	0	3.1400	0	34.3440	0	27.355	0	927.712	0	13.4	4	4.1	4	-1E+10	1	-1E+10	1	-1E+10	1	-1E+10	1	-1E+10	1	-1E+10	1
4902551	31	C	06/16/2021	19:04	-135.010	49.437	0	942.60	0	3.1360	0	34.3440	0	27.355	0	932.450	0	13.4	4	4.1	4	-1E+10	1	-1E+10	1	-1E+10	1	-1E+10	1	-1E+10	1	-1E+10	1
4902551	31	C	06/16/2021	19:04	-135.010	49.437	0	947.60	0	3.1300	0	34.3460	0	27.357	0	937.385	0	13.3	4	4.1	4	-1E+10	1	-1E+10	1	-1E+10	1	-1E+10	1	-1E+10	1	-1E+10	1
4902551	31	C	06/16/2021	19:04	-135.010	49.437	0	952.70	0	3.1210	0	34.3480	0	27.360	0	942.418	0	13.3	4	4.1	4	-1E+10	1	-1E+10	1	-1E+10	1	-1E+10	1	-1E+10	1	-1E+10	1
4902551	31	C	06/16/2021	19:04	-135.010	49.437	0	957.80	0	3.1040	0	34.3510	0	27.364	0	947.452	0	13.2	4	4.1	4	-1E+10	1	-1E+10	1	-1E+10	1	-1E+10	1	-1E+10	1	-1E+10	1
4902551	31	C	06/16/2021	19:04	-135.010	49.437	0	963.00	0	3.0970	0	34.3530	0	27.366	0	952.584	0	13.2	4	4.1	4	-1E+10	1	-1E+10	1	-1E+10	1	-1E+10	1	-1E+10	1	-1E+10	1
4902551	31	C	06/16/2021	19:04	-135.010	49.437	0	968.20	0	3.0930	0	34.3540	0	27.367	0	957.716	0	13.2	4	4.1	4	-1E+10	1	-1E+10	1	-1E+10	1	-1E+10	1	-1E+10	1	-1E+10	1
4902551	31	C	06/16/2021	19:04	-135.010	49.437	0	973.00	0	3.0860	0	34.3550	0	27.368	0	962.453	0	13.2	4	4.1	4	-1E+10	1	-1E+10	1	-1E+10	1	-1E+10	1	-1E+10	1	-1E+10	1
4902551	31	C	06/16/2021	19:04	-135.010	49.437	0	977.80	0	3.0780	0	34.3570	0	27.371	0	967.190	0	13.2	4	4.1	4	-1E+10	1	-1E+10	1	-1E+10	1	-1E+10	1	-1E+10	1	-1E+10	1
4902551	31	C	06/16/2021	19:04	-135.010	49.437	0	983.20	0	3.0660	0	34.3590	0	27.374	0	972.518	0	13.2	4	4.1	4	-1E+10	1	-1E+10	1	-1E+10	1	-1E+10	1	-1E+10	1	-1E+10	1
4902551	31	C	06/16/2021	19:04	-135.010	49.437	0	988.00	0	3.0550	0	34.3610	0	27.376	0	977.255	0	13.2	4	4.1	4	-1E+10	1	-1E+10	1	-1E+10	1	-1E+10	1	-1E+10	1	-1E+10	1
4902551	31	C	06/16/2021	19:04	-135.010	49.437	0	992.90	0	3.0490	0	34.3620	0	27.378	0	982.090	0	13.2	4	4.1	4	-1E+10	1	-1E+10	1	-1E+10	1	-1E+10	1	-1E+10	1	-1E+10	1
4902551	31	C	06/16/2021	19:04	-135.010	49.437	0	997.80	0	3.0430	0	34.3630	0	27.379	0	986.925	0	13.2	4	4.1	4	-1E+10	1	-1E+10	1	-1E+10	1	-1E+10	1	-1E+10	1	-1E+10	1
4902551	31	C	06/16/2021	19:04	-135.010	49.437	0	1005.00	0	3.0330	0	34.3660	0	27.382	0	994.030	0	13.2	4	4.1	4	-1E+10	1	-1E+10	1	-1E+10	1	-1E+10	1	-1E+10	1	-1E+10	1
4902551	31	C	06/16/2021	19:04	-135.010	49.437	0	1015.10	0	3.0200	0	34.3680	0	27.385	0	1003.995	0	13.2	4	4.1	4	-1E+10	1	-1E+10	1	-1E+10	1	-1E+10	1	-1E+10	1	-1E+10	1
4902551	31	C	06/16/2021	19:04	-135.010	49.437	0	1025.20	0	3.0030	0	34.3710	0	27.389	0	1013.961	0	13.1	4	4.0	4	-1E+10	1	-1E+10	1	-1E+10	1	-1E+10	1	-1E+10	1	-1E+10	1
4902551	31	C	06/16/2021	19:04	-135.010	49.437	0	1035.70	0	2.9850	0	34.3760	0	27.395	0	1024.320	0	13.0	4	4.0	4	-1E+10	1	-1E+10	1	-1E+10	1	-1E+10	1	-1E+10	1	-1E+10	1
4902551	31	C	06/16/2021	19:04	-135.010	49.437	0	1045.70	0	2.9680	0	34.3800	0	27.400	0	1034.185	0	12.9	4	4.0	4	-1E+10	1	-1E+10	1	-1E+10	1	-1E+10	1	-1E+10	1	-1E+10	1
4902551	31	C	06/16/2021	19:04	-135.010	49.437	0	1055.30	0	2.9630	0	34.3820	0	27.402	0	1043.656	0	12.9	4	4.0	4	-1E+10	1	-1E+10	1	-1E+10	1	-1E+10	1	-1E+10	1	-1E+10	1
4902551	31	C	06/16/2021	19:04	-135.010	49.437	0	1065.30	0	2.9460	0	34.3860	0	27.406	0	1053.520	0	12.9	4	4.0	4	-1E+10	1	-1E+10	1	-1E+10	1	-1E+10	1	-1E+10	1	-1E+10	1
4902551	31	C	06/16/2021	19:04	-135.010	49.437	0	1075.10	0	2.9210	0	34.3900	0	27.412	0	1063.187	0	13.0	4	4.0	4	-1E+10	1	-1E+10	1	-1E+10	1	-1E+10	1	-1E+10	1	-1E+10	1
4902551	31	C	06/16/2021	19:04	-135.010	49.437	0	1085.20	0	2.9080	0	34.3920	0	27.415	0	1073.149	0	12.9	4	4.0	4	-1E+10	1	-1E+10	1	-1E+10	1	-1E+10	1	-1E+10	1	-1E+10	1
4902551	31	C	06/16/2021	19:04	-135.010	49.437	0	1095.30	0	2.8910	0	34.3960	0	27.419	0	1083.111	0	12.8	4	4.0	4	-1E+10	1	-1E+10	1	-1E+10	1	-1E+10	1	-1E+10	1	-1E+10	1
4902551	31	C	06/16/2021	19:04	-135.010	49.437	0	1105.40	0	2.8760	0	34.3990	0	27.423	0	1093.073	0	12.9	4	4.0	4	-1E+10	1	-1E+10	1	-1E+10	1	-1E+10	1	-1E+10	1	-1E+10	1
4902551	31	C	06/16/2021	19:04	-135.010	49.437	0	1115.60	0	2.8570	0	34.4030	0	27.428	0	1103.132	0	12.9	4	4.0	4	-1E+10	1	-1E+10	1	-1E+10	1	-1E+10	1	-1E+10	1	-1E+10	1
4902551	31	C	06/16/2021	19:04	-135.010	49.437	0	1125.50	0	2.8410	0	34.4080	0	27.434	0	1112.895	0	13.0	4	4.0	4	-1E+10	1	-1E+10	1	-1E+10	1	-1E+10	1	-1E+10	1	-1E+10	1
4902551	31	C	06/16/2021	19:04	-135.010	49.437	0	1135.30	0	2.8300	0	34.4120	0	27.438	0	1122.559	0	13.0	4	4.0	4	-1E+10	1	-1E+10	1	-1E+10	1	-1E+10	1	-1E+10	1	-1E+10	1
4902551	31	C	06/16/2021	19:04	-135.010	49.437	0	1145.20	0	2.8220	0	34.4150	0	27.441	0	1132.321	0	13.1	4	4.0	4	-1E+10	1	-1E+10	1	-1E+10	1	-1E+10	1	-1E+10	1	-1E+10	1
4902551	31	C	06/16/2021	19:04	-135.010	49.437	0	1155.30	0	2.7980	0	34.4180	0	27.446	0	1142.280	0	13.2	4	4.1	4	-1E+10	1	-1E+10	1	-1E+10	1	-1E+10	1	-1E+10	1	-1E+10	1
4902551	31	C	06/16/2021	19:04	-135.010	49.437	0	1165.50	0	2.7790	0	34.4200	0	27.449	0	1152.338	0	13.3	4	4.1	4	-1E+10	1	-1E+10	1	-1E+10	1	-1E+10	1	-1E+10	1	-1E+10	1
4902551	31	C	06/16/2021	19:04	-135.010	49.437	0	1175.60	0	2.7630	0	34.4230	0	27.453	0	1162.296	0	13.4	4	4.1	4	-1E+10	1	-1E+10	1	-1E+10	1	-1E+10	1	-1E+10	1	-1E+10	1
4902551	31	C	06/16/2021	19:04	-135.010	49.437	0	1185.50	0	2.7540	0	34.4270	0	27.457	0	1172.056	0	13.6	4	4.2	4	-1E+10	1	-1E+10	1	-1E+10	1	-1E+10	1	-1E+10	1	-1E+10	1
4902551	31	C	06/16/2021	19:04	-135.010	49.437	0	1195.50	0	2.7480	0	34.4310	0	27.461	0	1181.914	0	13.7	4	4.2	4	-1E+10	1	-1E+10	1	-1E+10	1	-1E+10	1	-1E+10	1	-1E+10	1
4902551	31	C	06/16/2021	19:04	-135.010	49.437	0	1205.70	0	2.7410	0	34.4330	0	27.463	0	1191.970	0	13.9	4	4.3	4	-1E+10	1	-1E+10	1	-1E+10	1	-1E+10	1	-1E+10	1	-1E+10	1
4902551	31	C	06/16/2021	19:04	-135.010	49.437	0	1215.60	0	2.7250	0	34.4350	0	27.466	0	1201.729	0	14.0	4	4.3	4	-1E+10	1	-1E+10	1	-1E+10	1	-1E+10	1	-1E+10	1	-1E+10	1
4902551	31	C	06/16/2021	19:04	-135.010	49.437	0	1225.70	0	2.7120	0	34.4380	0	27.469	0	1211.684	0	14.3	4	4.4	4	-1E+10	1	-1E+10	1	-1E+10	1	-1E+10	1	-1E+10	1	-1E+10	1
4902551	31	C	06/16/2021	19:04	-135.010	49.437	0	1235.50	0	2.7020	0	34.4410	0	27.473	0	1221.344	0	14.6	4	4.5	4	-1E+10	1	-1E+10	1	-1E+10	1	-1E+10	1	-1E+10	1	-1E+10	1
4902551	31	C	06/16/2021	19:04	-135.010	49.437	0	1245.80	0	2.6830	0	34.4450	0	27.478	0	1231.496	0	14.9	4	4.6	4	-1E+10	1	-1E+10	1	-1E+10	1	-1E+10	1	-1E+10	1	-1E+10	1
4902551	31	C	06/16/2021	19:04	-135.010	49.437	0	1255.60	0	2.6660	0	34.4480	0	27.482	0	1241.154	0	15.1	4	4.6	4	-1E+10	1	-1E+10	1	-1E+10	1	-1E+10	1	-1E+10	1	-1E+10	1
4902551	31	C	06/16/2021	19:04	-135.010	49.437	0	1265.30	0	2.6550	0	34.4500	0	27.484	0	1250.714	0	15.2	4	4.7	4	-1E+10	1	-1E+10	1	-1E+10	1	-1E+10	1	-1E+10	1	-1E+10	1
4902551	31	C	06/16/2021	19:04	-135.010	49.437	0	1275.20	0	2.6460	0	34.4520	0	27.487	0	1260.470	0	15.4	4	4.7	4	-1E+10	1	-1E+10	1	-1E+10	1	-1E+10	1	-1E+10	1	-1E+10	1
4902551	31	C	06/16/2021	19:04	-135.010	49.437	0	1285.50	0	2.6320	0	34.4540	0	27.489	0	1270.620	0	15.7	4	4.8	4	-1E+10	1	-1E+10	1	-1E+10	1	-1E+10	1	-1E+10	1	-1E+10	1
4902551	31	C	06/16/2021	19:04	-135.010	49.437	0	1295.50	0	2.6220	0	34.4560	0	27.492	0	1280.474	0	15.9	4	4.9	4	-1E+10	1	-1E+10	1	-1E+10	1	-1E+10	1	-1E+10	1	-1E+10	1
4902551	31	C	06/16/2021	19:04	-135.010	49.437	0	1305.60	0	2.6090	0	34.4580	0	27.495	0	1290.426	0	16.1	4	4.9	4	-1E+10	1	-1E+10	1	-1E+10	1	-1E+10	1	-1E+10	1	-1E+10	1
4902551	31	C	06/16/2021	19:04	-135.010	49.437	0	1315.30	0	2.5980	0	34.4600	0	27.497	0	1299.983	0	16.3	4	5.0	4	-1E+10	1	-1E+10	1	-1E+10	1	-1E+10	1	-1E+10	1	-1E+10	1
4902551	31	C	06/16/2021	19:04	-135.010	49.437	0	1325.10	0	2.5880	0	34.4620	0	27.500	0	1309.639	0	16.5	4	5.1	4	-1E+10	1	-1E+10	1	-1E+10	1	-1E+10	1	-1E+10	1	-1E+10	1
4902551	31	C	06/16/2021	19:04	-135.010	49.437	0	1335.60	0	2.5770	0	34.4640	0	27.502	0	1319.983	0	16.8	4	5.1	4	-1E+10	1	-1E+10	1	-1E+10	1	-1E+10	1	-1E+10	1	-1E+10	1
4902551	31	C	06/16/2021	19:04	-135.010	49.437	0	1345.80	0	2.5670	0	34.4660	0	27.505	0	1330.032	0	17.1	4	5.2	4	-1E+10	1	-1E+10	1	-1E+10	1	-1E+10	1	-1E+10	1	-1E+10	1
4902551	31	C	06/16/2021	19:04	-135.010	49.437	0	1355.60	0	2.5540	0	34.4680	0	27.508	0	1339.686	0	17.4	4	5.3	4	-1E+10	1	-1E+10	1	-1E+10	1	-1E+10	1	-1E+10	1	-1E+10	1
4902551	31	C	06/16/2021	19:04	-135.010	49.437	0	1365.70	0	2.5430	0	34.4700	0	27.510	0	1349.635	0	17.8	4	5.4	4	-1E+10	1	-1E+10	1	-1E+10	1	-1E+10	1	-1E+10	1	-1E+10	1
4902551	31	C	06/16/2021	19:04	-135.010	49.437	0	1375.50	0	2.5310	0	34.4730	0	27.514	0	1359.288	0	18.3	4	5.6	4	-1E+10	1	-1E+10	1	-1E+10	1	-1E+10	1	-1E+10	1	-1E+10	1
4902551	31	C	06/16/2021	19:04	-135.010	49.437	0	1385.30	0	2.5150	0	34.4760	0	27.518	0	1368.941	0	18.7	4	5.7	4	-1E+10	1	-1E+10	1	-1E+10	1	-1E+10	1	-1E+10	1	-1E+10	1
4902551	31	C	06/16/2021	19:04	-135.010	49.437	0	1395.60	0	2.5000	0	34.4780	0	27.520	0	1379.086	0	19.1	4	5.8	4	-1E+10	1	-1E+10	1	-1E+10	1	-1E+10	1	-1E+10	1	-1E+10	1
4902551	31	C	06/16/2021	19:04	-135.010	49.437	0	1405.40	0	2.4890	0	34.4800	0	27.523	0	1388.737	0	19.4	4	5.9	4	-1E+10	1	-1E+10	1	-1E+10	1	-1E+10	1	-1E+10	1	-1E+10	1
4902551	31	C	06/16/2021	19:04	-135.010	49.437	0	1415.20	0	2.4790	0	34.4830	0	27.526	0	1398.389	0	19.8	4	6.0	4	-1E+10	1	-1E+10	1	-1E+10	1	-1E+10	1	-1E+10	1	-1E+10	1
4902551	31	C	06/16/2021	19:04	-135.010	49.437	0	1425.40	0	2.4690	0	34.4850	0	27.529	0	1408.434	0	20.2	4	6.1	4	-1E+10	1	-1E+10	1	-1E+10	1	-1E+10	1	-1E+10	1	-1E+10	1
4902551	31	C	06/16/2021	19:04	-135.010	49.437	0	1435.60	0	2.4610	0	34.4860	0	27.530	0	1418.478	0	20.5	4	6.3	4	-1E+10	1	-1E+10	1	-1E+10	1	-1E+10	1	-1E+10	1	-1E+10	1
4902551	31	C	06/16/2021	19:04	-135.010	49.437	0	1445.70	0	2.4450	0	34.4890	0	27.534	0	1428.423	0	21.0	4	6.4	4	-1E+10	1	-1E+10	1	-1E+10	1	-1E+10	1	-1E+10	1	-1E+10	1
4902551	31	C	06/16/2021	19:04	-135.010	49.437	0	1455.60	0	2.4310	0	34.4910	0	27.537	0	1438.171	0	21.6	4	6.6	4	-1E+10	1	-1E+10	1	-1E+10	1	-1E+10	1	-1E+10	1	-1E+10	1
4902551	31	C	06/16/2021	19:04	-135.010	49.437	0	1465.50	0	2.4140	0	34.4940	0	27.541	0	1447.919	0	22.1	4	6.7	4	-1E+10	1	-1E+10	1	-1E+10	1	-1E+10	1	-1E+10	1	-1E+10	1
4902551	31	C	06/16/2021	19:04	-135.010	49.437	0	1475.90	0	2.4050	0	34.4960	0	27.543	0	1458.158	0	22.5	4	6.8	4	-1E+10	1	-1E+10	1	-1E+10	1	-1E+10	1	-1E+10	1	-1E+10	1
4902551	31	C	06/16/2021	19:04	-135.010	49.437	0	1485.30	0	2.3920	0	34.4980	0	27.546	0	1467.413	0	22.9	4	7.0	4	-1E+10	1	-1E+10	1	-1E+10	1	-1E+10	1	-1E+10	1	-1E+10	1
4902551	31	C	06/16/2021	19:04	-135.010	49.437	0	1495.40	0	2.3780	0	34.5000	0	27.549	0	1477.356	0	23.5	4	7.1	4	-1E+10	1	-1E+10	1	-1E+10	1	-1E+10	1	-1E+10	1	-1E+10	1
4902551	31	C	06/16/2021	19:04	-135.010	49.437	0	1505.40	0	2.3630	0	34.5030	0	27.552	0	1487.200	0	24.2	4	7.4	4	-1E+10	1	-1E+10	1	-1E+10	1	-1E+10	1	-1E+10	1	-1E+10	1
4902551	31	C	06/16/2021	19:04	-135.010	49.437	0	1515.30	0	2.3440	0	34.5060	0	27.556	0	1496.945	0	24.8	4	7.5	4	-1E+10	1	-1E+10	1	-1E+10	1	-1E+10	1	-1E+10	1	-1E+10	1
4902551	31	C	06/16/2021	19:04	-135.010	49.437	0	1525.40	0	2.3340	0	34.5080	0	27.559	0	1506.887	0	25.2	4	7.7	4	-1E+10	1	-1E+10	1	-1E+10	1	-1E+10	1	-1E+10	1	-1E+10	1
4902551	31	C	06/16/2021	19:04	-135.010	49.437	0	1535.20	0	2.3220	0	34.5100	0	27.562	0	1516.533	0	25.6	4	7.8	4	-1E+10	1	-1E+10	1	-1E+10	1	-1E+10	1	-1E+10	1	-1E+10	1
4902551	31	C	06/16/2021	19:04	-135.010	49.437	0	1545.40	0	2.3080	0	34.5120	0	27.564	0	1526.572	0	26.0	4	7.9	4	-1E+10	1	-1E+10	1	-1E+10	1	-1E+10	1	-1E+10	1	-1E+10	1
4902551	31	C	06/16/2021	19:04	-135.010	49.437	0	1555.40	0	2.2910	0	34.5140	0	27.567	0	1536.414	0	26.4	4	8.0	4	-1E+10	1	-1E+10	1	-1E+10	1	-1E+10	1	-1E+10	1	-1E+10	1
4902551	31	C	06/16/2021	19:04	-135.010	49.437	0	1565.10	0	2.2840	0	34.5160	0	27.570	0	1545.960	0	26.6	4	8.1	4	-1E+10	1	-1E+10	1	-1E+10	1	-1E+10	1	-1E+10	1	-1E+10	1
4902551	31	C	06/16/2021	19:04	-135.010	49.437	0	1575.00	0	2.2780	0	34.5160	0	27.570	0	1555.702	0	26.4	4	8.0	4	-1E+10	1	-1E+10	1	-1E+10	1	-1E+10	1	-1E+10	1	-1E+10	1
4902551	31	C	06/16/2021	19:04	-135.010	49.437	0	1585.00	0	2.2670	0	34.5170	0	27.572	0	1565.543	0	26.5	4	8.0	4	-1E+10	1	-1E+10	1	-1E+10	1	-1E+10	1	-1E+10	1	-1E+10	1
4902551	31	C	06/16/2021	19:04	-135.010	49.437	0	1595.10	0	2.2580	0	34.5180	0	27.573	0	1575.481	0	26.9	4	8.1	4	-1E+10	1	-1E+10	1	-1E+10	1	-1E+10	1	-1E+10	1	-1E+10	1
4902551	31	C	06/16/2021	19:04	-135.010	49.437	0	1605.20	0	2.2480	0	34.5200	0	27.576	0	1585.419	0	27.3	4	8.3	4	-1E+10	1	-1E+10	1	-1E+10	1	-1E+10	1	-1E+10	1	-1E+10	1
4902551	31	C	06/16/2021	19:04	-135.010	49.437	0	1615.30	0	2.2390	0	34.5210	0	27.578	0	1595.357	0	27.8	4	8.4	4	-1E+10	1	-1E+10	1	-1E+10	1	-1E+10	1	-1E+10	1	-1E+10	1
4902551	31	C	06/16/2021	19:04	-135.010	49.437	0	1625.50	0	2.2360	0	34.5230	0	27.579	0	1605.392	0	28.2	4	8.6	4	-1E+10	1	-1E+10	1	-1E+10	1	-1E+10	1	-1E+10	1	-1E+10	1
4902551	31	C	06/16/2021	19:04	-135.010	49.437	0	1635.50	0	2.2300	0	34.5240	0	27.581	0	1615.231	0	28.9	4	8.8	4	-1E+10	1	-1E+10	1	-1E+10	1	-1E+10	1	-1E+10	1	-1E+10	1
4902551	31	C	06/16/2021	19:04	-135.010	49.437	0	1645.70	0	2.2130	0	34.5270	0	27.585	0	1625.265	0	29.9	4	9.1	4	-1E+10	1	-1E+10	1	-1E+10	1	-1E+10	1	-1E+10	1	-1E+10	1
4902551	31	C	06/16/2021	19:04	-135.010	49.437	0	1655.60	0	2.2060	0	34.5300	0	27.588	0	1635.004	0	30.9	4	9.3	4	-1E+10	1	-1E+10	1	-1E+10	1	-1E+10	1	-1E+10	1	-1E+10	1
4902551	31	C	06/16/2021	19:04	-135.010	49.437	0	1665.40	0	2.1900	0	34.5320	0	27.591	0	1644.644	0	31.2	4	9.4	4	-1E+10	1	-1E+10	1	-1E+10	1	-1E+10	1	-1E+10	1	-1E+10	1
4902551	31	C	06/16/2021	19:04	-135.010	49.437	0	1675.30	0	2.1820	0	34.5330	0	27.592	0	1654.382	0	31.6	4	9.6	4	-1E+10	1	-1E+10	1	-1E+10	1	-1E+10	1	-1E+10	1	-1E+10	1
4902551	31	C	06/16/2021	19:04	-135.010	49.437	0	1685.20	0	2.1690	0	34.5350	0	27.595	0	1664.120	0	32.2	4	9.7	4	-1E+10	1	-1E+10	1	-1E+10	1	-1E+10	1	-1E+10	1	-1E+10	1
4902551	31	C	06/16/2021	19:04	-135.010	49.437	0	1695.30	0	2.1650	0	34.5370	0	27.597	0	1674.053	0	32.7	4	9.9	4	-1E+10	1	-1E+10	1	-1E+10	1	-1E+10	1	-1E+10	1	-1E+10	1
4902551	31	C	06/16/2021	19:04	-135.010	49.437	0	1705.40	0	2.1520	0	34.5390	0	27.599	0	1683.987	0	33.4	4	10.1	4	-1E+10	1	-1E+10	1	-1E+10	1	-1E+10	1	-1E+10	1	-1E+10	1
4902551	31	C	06/16/2021	19:04	-135.010	49.437	0	1715.70	0	2.1440	0	34.5400	0	27.601	0	1694.116	0	33.9	4	10.3	4	-1E+10	1	-1E+10	1	-1E+10	1	-1E+10	1	-1E+10	1	-1E+10	1
4902551	31	C	06/16/2021	19:04	-135.010	49.437	0	1725.50	0	2.1380	0	34.5420	0	27.603	0	1703.754	0	34.4	4	10.4	4	-1E+10	1	-1E+10	1	-1E+10	1	-1E+10	1	-1E+10	1	-1E+10	1
4902551	31	C	06/16/2021	19:04	-135.010	49.437	0	1735.20	0	2.1310	0	34.5430	0	27.604	0	1713.292	0	34.8	4	10.5	4	-1E+10	1	-1E+10	1	-1E+10	1	-1E+10	1	-1E+10	1	-1E+10	1
4902551	31	C	06/16/2021	19:04	-135.010	49.437	0	1745.40	0	2.1250	0	34.5440	0	27.606	0	1723.322	0	35.4	4	10.7	4	-1E+10	1	-1E+10	1	-1E+10	1	-1E+10	1	-1E+10	1	-1E+10	1
4902551	31	C	06/16/2021	19:04	-135.010	49.437	0	1755.50	0	2.1170	0	34.5460	0	27.608	0	1733.253	0	36.0	4	10.9	4	-1E+10	1	-1E+10	1	-1E+10	1	-1E+10	1	-1E+10	1	-1E+10	1
4902551	31	C	06/16/2021	19:04	-135.010	49.437	0	1765.60	0	2.1110	0	34.5470	0	27.609	0	1743.184	0	36.5	4	11.0	4	-1E+10	1	-1E+10	1	-1E+10	1	-1E+10	1	-1E+10	1	-1E+10	1
4902551	31	C	06/16/2021	19:04	-135.010	49.437	0	1775.50	0	2.1080	0	34.5480	0	27.610	0	1752.917	0	37.2	4	11.2	4	-1E+10	1	-1E+10	1	-1E+10	1	-1E+10	1	-1E+10	1	-1E+10	1
4902551	31	C	06/16/2021	19:04	-135.010	49.437	0	1785.50	0	2.0920	0	34.5510	0	27.614	0	1762.748	0	38.2	4	11.5	4	-1E+10	1	-1E+10	1	-1E+10	1	-1E+10	1	-1E+10	1	-1E+10	1
4902551	31	C	06/16/2021	19:04	-135.010	49.437	0	1795.50	0	2.0840	0	34.5530	0	27.616	0	1772.579	0	38.7	4	11.7	4	-1E+10	1	-1E+10	1	-1E+10	1	-1E+10	1	-1E+10	1	-1E+10	1
4902551	31	C	06/16/2021	19:04	-135.010	49.437	0	1805.40	0	2.0790	0	34.5540	0	27.618	0	1782.311	0	39.4	4	11.9	4	-1E+10	1	-1E+10	1	-1E+10	1	-1E+10	1	-1E+10	1	-1E+10	1
4902551	31	C	06/16/2021	19:04	-135.010	49.437	0	1815.50	0	2.0710	0	34.5550	0	27.619	0	1792.240	0	40.4	4	12.2	4	-1E+10	1	-1E+10	1	-1E+10	1	-1E+10	1	-1E+10	1	-1E+10	1
4902551	31	C	06/16/2021	19:04	-135.010	49.437	0	1825.50	0	2.0550	0	34.5590	0	27.624	0	1802.069	0	41.5	4	12.5	4	-1E+10	1	-1E+10	1	-1E+10	1	-1E+10	1	-1E+10	1	-1E+10	1
4902551	31	C	06/16/2021	19:04	-135.010	49.437	0	1835.20	0	2.0480	0	34.5610	0	27.626	0	1811.603	0	42.0	4	12.7	4	-1E+10	1	-1E+10	1	-1E+10	1	-1E+10	1	-1E+10	1	-1E+10	1
4902551	31	C	06/16/2021	19:04	-135.010	49.437	0	1845.40	0	2.0430	0	34.5610	0	27.626	0	1821.629	0	42.6	4	12.9	4	-1E+10	1	-1E+10	1	-1E+10	1	-1E+10	1	-1E+10	1	-1E+10	1
4902551	31	C	06/16/2021	19:04	-135.010	49.437	0	1855.40	0	2.0340	0	34.5630	0	27.629	0	1831.457	0	43.6	4	13.1	4	-1E+10	1	-1E+10	1	-1E+10	1	-1E+10	1	-1E+10	1	-1E+10	1
4902551	31	C	06/16/2021	19:04	-135.010	49.437	0	1865.10	0	2.0190	0	34.5660	0	27.632	0	1840.990	0	44.7	4	13.5	4	-1E+10	1	-1E+10	1	-1E+10	1	-1E+10	1	-1E+10	1	-1E+10	1
4902551	31	C	06/16/2021	19:04	-135.010	49.437	0	1875.40	0	2.0080	0	34.5680	0	27.635	0	1851.112	0	45.6	4	13.7	4	-1E+10	1	-1E+10	1	-1E+10	1	-1E+10	1	-1E+10	1	-1E+10	1
4902551	31	C	06/16/2021	19:04	-135.010	49.437	0	1885.50	0	2.0010	0	34.5700	0	27.637	0	1861.037	0	46.2	4	13.9	4	-1E+10	1	-1E+10	1	-1E+10	1	-1E+10	1	-1E+10	1	-1E+10	1
4902551	31	C	06/16/2021	19:04	-135.010	49.437	0	1895.20	0	1.9940	0	34.5710	0	27.638	0	1870.568	0	47.0	4	14.2	4	-1E+10	1	-1E+10	1	-1E+10	1	-1E+10	1	-1E+10	1	-1E+10	1
4902551	31	C	06/16/2021	19:04	-135.010	49.437	0	1905.10	0	1.9830	0	34.5730	0	27.641	0	1880.296	0	47.7	4	14.4	4	-1E+10	1	-1E+10	1	-1E+10	1	-1E+10	1	-1E+10	1	-1E+10	1
4902551	31	C	06/16/2021	19:04	-135.010	49.437	0	1915.00	0	1.9740	0	34.5750	0	27.643	0	1890.023	0	48.2	4	14.5	4	-1E+10	1	-1E+10	1	-1E+10	1	-1E+10	1	-1E+10	1	-1E+10	1
4902551	31	C	06/16/2021	19:04	-135.010	49.437	0	1925.10	0	1.9670	0	34.5760	0	27.645	0	1899.946	0	48.7	4	14.7	4	-1E+10	1	-1E+10	1	-1E+10	1	-1E+10	1	-1E+10	1	-1E+10	1
4902551	31	C	06/16/2021	19:04	-135.010	49.437	0	1935.30	0	1.9630	0	34.5770	0	27.646	0	1909.967	0	49.1	4	14.8	4	-1E+10	1	-1E+10	1	-1E+10	1	-1E+10	1	-1E+10	1	-1E+10	1
4902551	31	C	06/16/2021	19:04	-135.010	49.437	0	1945.90	0	1.9570	0	34.5780	0	27.647	0	1920.381	0	49.7	4	15.0	4	-1E+10	1	-1E+10	1	-1E+10	1	-1E+10	1	-1E+10	1	-1E+10	1
4902551	31	C	06/16/2021	19:04	-135.010	49.437	0	1955.40	0	1.9520	0	34.5800	0	27.649	0	1929.713	0	50.1	4	15.1	4	-1E+10	1	-1E+10	1	-1E+10	1	-1E+10	1	-1E+10	1	-1E+10	1
4902551	31	C	06/16/2021	19:04	-135.010	49.437	0	1965.10	0	1.9470	0	34.5810	0	27.650	0	1939.241	0	50.8	4	15.3	4	-1E+10	1	-1E+10	1	-1E+10	1	-1E+10	1	-1E+10	1	-1E+10	1
4902551	31	C	06/16/2021	19:04	-135.010	49.437	0	1975.20	0	1.9390	0	34.5820	0	27.652	0	1949.162	0	51.5	4	15.5	4	-1E+10	1	-1E+10	1	-1E+10	1	-1E+10	1	-1E+10	1	-1E+10	1
4902551	31	C	06/16/2021	19:04	-135.010	49.437	0	1985.60	0	1.9310	0	34.5840	0	27.654	0	1959.378	0	51.9	4	15.6	4	-1E+10	1	-1E+10	1	-1E+10	1	-1E+10	1	-1E+10	1	-1E+10	1
4902551	31	C	06/16/2021	19:04	-135.010	49.437	0	1995.80	0	1.9290	0	34.5840	0	27.654	0	1969.396	0	52.3	4	15.7	4	-1E+10	1	-1E+10	1	-1E+10	1	-1E+10	1	-1E+10	1	-1E+10	1
4902551	31	C	06/16/2021	19:04	-135.010	49.437	0	2005.40	0	1.9220	0	34.5860	0	27.657	0	1978.824	0	52.8	4	15.9	4	-1E+10	1	-1E+10	1	-1E+10	1	-1E+10	1	-1E+10	1	-1E+10	1
4902551	31	C	06/16/2021	19:04	-135.010	49.437	0	2015.70	0	1.9170	0	34.5870	0	27.658	0	1988.940	0	52.9	4	15.9	4	-1E+10	1	-1E+10	1	-1E+10	1	-1E+10	1	-1E+10	1	-1E+10	1
4902551	31	C	06/16/2021	19:04	-135.010	49.437	0	2022.00	0	1.9130	0	34.5880	0	27.659	0	1995.127	0	52.8	4	15.9	4	-1E+10	1	-1E+10	1	-1E+10	1	-1E+10	1	-1E+10	1	-1E+10	1
4902551	31	C	06/16/2021	19:04	-135.010	49.437	0																										
4902551	32	C	06/27/2021	00:04	-134.966	49.411	0	0.30	0	13.2610	8	32.2850	8	24.240	0	0.297	0	260.8	4	99.7	4	-1E+10	1	-1E+10	1	-1E+10	1	-1E+10	1	-1E+10	1	-1E+10	1
4902551	32	C	06/27/2021	00:04	-134.966	49.411	0	1.00	0	13.2750	8	32.2440	8	24.205	0	0.991	0	260.3	4	99.6	4	-1E+10	1	-1E+10	1	-1E+10	1	-1E+10	1	-1E+10	1	-1E+10	1
4902551	32	C	06/27/2021	00:04	-134.966	49.411	0	2.00	0	13.2340	0	32.2440	0	24.213	0	1.983	0	260.6	4	99.6	4	-1E+10	1	-1E+10	1	-1E+10	1	-1E+10	1	-1E+10	1	-1E+10	1
4902551	32	C	06/27/2021	00:04	-134.966	49.411	0	3.00	0	13.2150	0	32.2610	0	24.230	0	2.974	0	260.7	4	99.6	4	-1E+10	1	-1E+10	1	-1E+10	1	-1E+10	1	-1E+10	1	-1E+10	1
4902551	32	C	06/27/2021	00:04	-134.966	49.411	0	3.90	0	13.2100	0	32.2670	0	24.236	0	3.867	0	260.6	4	99.6	4	-1E+10	1	-1E+10	1	-1E+10	1	-1E+10	1	-1E+10	1	-1E+10	1
4902551	32	C	06/27/2021	00:04	-134.966	49.411	0	4.90	0	13.1910	0	32.2830	0	24.252	0	4.858	0	260.9	4	99.6	4	-1E+10	1	-1E+10	1	-1E+10	1	-1E+10	1	-1E+10	1	-1E+10	1
4902551	32	C	06/27/2021	00:04	-134.966	49.411	0	5.90	0	13.1810	0	32.2850	0	24.256	0	5.850	0	261.0	4	99.7	4	-1E+10	1	-1E+10	1	-1E+10	1	-1E+10	1	-1E+10	1	-1E+10	1
4902551	32	C	06/27/2021	00:04	-134.966	49.411	0	7.00	0	13.1580	0	32.2880	0	24.262	0	6.940	0	261.4	4	99.8	4	-1E+10	1	-1E+10	1	-1E+10	1	-1E+10	1	-1E+10	1	-1E+10	1
4902551	32	C	06/27/2021	00:04	-134.966	49.411	0	8.00	0	13.1060	0	32.2860	0	24.271	0	7.932	0	262.0	4	99.9	4	-1E+10	1	-1E+10	1	-1E+10	1	-1E+10	1	-1E+10	1	-1E+10	1
4902551	32	C	06/27/2021	00:04	-134.966	49.411	0	9.00	0	13.0530	0	32.2730	0	24.272	0	8.923	0	263.1	4	100.2	4	-1E+10	1	-1E+10	1	-1E+10	1	-1E+10	1	-1E+10	1	-1E+10	1
4902551	32	C	06/27/2021	00:04	-134.966	49.411	0	10.20	0	12.5400	0	32.2820	0	24.378	0	10.113	0	265.8	4	100.2	4	-1E+10	1	-1E+10	1	-1E+10	1	-1E+10	1	-1E+10	1	-1E+10	1
4902551	32	C	06/27/2021	00:04	-134.966	49.411	0	11.10	0	12.3100	0	32.2970	0	24.433	0	11.005	0	267.4	4	100.3	4	-1E+10	1	-1E+10	1	-1E+10	1	-1E+10	1	-1E+10	1	-1E+10	1
4902551	32	C	06/27/2021	00:04	-134.966	49.411	0	12.00	0	11.9580	0	32.3050	0	24.505	0	11.897	0	268.8	4	100.1	4	-1E+10	1	-1E+10	1	-1E+10	1	-1E+10	1	-1E+10	1	-1E+10	1
4902551	32	C	06/27/2021	00:04	-134.966	49.411	0	12.70	0	11.8120	0	32.2890	0	24.520	0	12.591	0	269.5	4	100.0	4	-1E+10	1	-1E+10	1	-1E+10	1	-1E+10	1	-1E+10	1	-1E+10	1
4902551	32	C	06/27/2021	00:04	-134.966	49.411	0	13.70	0	11.7140	0	32.2900	0	24.539	0	13.583	0	269.9	4	100.0	4	-1E+10	1	-1E+10	1	-1E+10	1	-1E+10	1	-1E+10	1	-1E+10	1
4902551	32	C	06/27/2021	00:04	-134.966	49.411	0	14.80	0	11.6520	0	32.2920	0	24.552	0	14.673	0	270.3	4	100.0	4	-1E+10	1	-1E+10	1	-1E+10	1	-1E+10	1	-1E+10	1	-1E+10	1
4902551	32	C	06/27/2021	00:04	-134.966	49.411	0	15.90	0	11.6430	0	32.2890	0	24.551	0	15.764	0	270.7	4	100.1	4	-1E+10	1	-1E+10	1	-1E+10	1	-1E+10	1	-1E+10	1	-1E+10	1
4902551	32	C	06/27/2021	00:04	-134.966	49.411	0	17.00	0	11.5730	0	32.2910	0	24.565	0	16.854	0	271.3	4	100.2	4	-1E+10	1	-1E+10	1	-1E+10	1	-1E+10	1	-1E+10	1	-1E+10	1
4902551	32	C	06/27/2021	00:04	-134.966	49.411	0	18.10	0	11.4010	0	32.2940	0	24.599	0	17.945	0	271.9	4	100.1	4	-1E+10	1	-1E+10	1	-1E+10	1	-1E+10	1	-1E+10	1	-1E+10	1
4902551	32	C	06/27/2021	00:04	-134.966	49.411	0	19.00	0	11.3650	0	32.2930	0	24.604	0	18.837	0	272.1	4	100.1	4	-1E+10	1	-1E+10	1	-1E+10	1	-1E+10	1	-1E+10	1	-1E+10	1
4902551	32	C	06/27/2021	00:04	-134.966	49.411	0	20.00	0	11.2830	0	32.2950	0	24.621	0	19.829	0	272.3	4	100.0	4	-1E+10	1	-1E+10	1	-1E+10	1	-1E+10	1	-1E+10	1	-1E+10	1
4902551	32	C	06/27/2021	00:04	-134.966	49.411	0	21.00	0	11.2030	0	32.2930	0	24.633	0	20.820	0	272.8	4	100.0	4	-1E+10	1	-1E+10	1	-1E+10	1	-1E+10	1	-1E+10	1	-1E+10	1
4902551	32	C	06/27/2021	00:04	-134.966	49.411	0	22.00	0	11.1430	0	32.2950	0	24.645	0	21.811	0	273.1	4	99.9	4	-1E+10	1	-1E+10	1	-1E+10	1	-1E+10	1	-1E+10	1	-1E+10	1
4902551	32	C	06/27/2021	00:04	-134.966	49.411	0	23.00	0	11.1000	0	32.2960	0	24.654	0	22.803	0	273.3	4	99.9	4	-1E+10	1	-1E+10	1	-1E+10	1	-1E+10	1	-1E+10	1	-1E+10	1
4902551	32	C	06/27/2021	00:04	-134.966	49.411	0	23.90	0	11.0730	0	32.2950	0	24.658	0	23.695	0	273.4	4	99.9	4	-1E+10	1	-1E+10	1	-1E+10	1	-1E+10	1	-1E+10	1	-1E+10	1
4902551	32	C	06/27/2021	00:04	-134.966	49.411	0	25.00	0	11.0310	0	32.2980	0	24.668	0	24.786	0	273.6	4	99.9	4	-1E+10	1	-1E+10	1	-1E+10	1	-1E+10	1	-1E+10	1	-1E+10	1
4902551	32	C	06/27/2021	00:04	-134.966	49.411	0	25.90	0	10.9640	0	32.3000	0	24.681	0	25.678	0	273.9	4	99.9	4	-1E+10	1	-1E+10	1	-1E+10	1	-1E+10	1	-1E+10	1	-1E+10	1
4902551	32	C	06/27/2021	00:04	-134.966	49.411	0	27.00	0	10.9370	0	32.2990	0	24.685	0	26.768	0	274.2	4	99.9	4	-1E+10	1	-1E+10	1	-1E+10	1	-1E+10	1	-1E+10	1	-1E+10	1
4902551	32	C	06/27/2021	00:04	-134.966	49.411	0	28.00	0	10.9070	0	32.2990	0	24.690	0	27.760	0	274.5	4	100.0	4	-1E+10	1	-1E+10	1	-1E+10	1	-1E+10	1	-1E+10	1	-1E+10	1
4902551	32	C	06/27/2021	00:04	-134.966	49.411	0	28.90	0	10.8830	0	32.3000	0	24.695	0	28.652	0	274.9	4	100.0	4	-1E+10	1	-1E+10	1	-1E+10	1	-1E+10	1	-1E+10	1	-1E+10	1
4902551	32	C	06/27/2021	00:04	-134.966	49.411	0	29.90	0	10.8580	0	32.3000	0	24.700	0	29.643	0	275.4	4	100.2	4	-1E+10	1	-1E+10	1	-1E+10	1	-1E+10	1	-1E+10	1	-1E+10	1
4902551	32	C	06/27/2021	00:04	-134.966	49.411	0	31.00	0	10.8400	0	32.2970	0	24.700	0	30.734	0	276.4	4	100.5	4	-1E+10	1	-1E+10	1	-1E+10	1	-1E+10	1	-1E+10	1	-1E+10	1
4902551	32	C	06/27/2021	00:04	-134.966	49.411	0	32.00	0	10.6660	0	32.2910	0	24.726	0	31.725	0	277.7	4	100.6	4	-1E+10	1	-1E+10	1	-1E+10	1	-1E+10	1	-1E+10	1	-1E+10	1
4902551	32	C	06/27/2021	00:04	-134.966	49.411	0	33.10	0	10.3810	0	32.3040	0	24.785	0	32.815	0	278.8	4	100.4	4	-1E+10	1	-1E+10	1	-1E+10	1	-1E+10	1	-1E+10	1	-1E+10	1
4902551	32	C	06/27/2021	00:04	-134.966	49.411	0	34.00	0	10.0660	0	32.3150	0	24.846	0	33.708	0	279.6	4	100.0	4	-1E+10	1	-1E+10	1	-1E+10	1	-1E+10	1	-1E+10	1	-1E+10	1
4902551	32	C	06/27/2021	00:04	-134.966	49.411	0	35.20	0	9.8350	0	32.3230	0	24.890	0	34.897	0	280.3	4	99.8	4	-1E+10	1	-1E+10	1	-1E+10	1	-1E+10	1	-1E+10	1	-1E+10	1
4902551	32	C	06/27/2021	00:04	-134.966	49.411	0	35.90	0	9.7910	0	32.3240	0	24.898	0	35.591	0	280.4	4	99.7	4	-1E+10	1	-1E+10	1	-1E+10	1	-1E+10	1	-1E+10	1	-1E+10	1
4902551	32	C	06/27/2021	00:04	-134.966	49.411	0	37.10	0	9.7430	0	32.3240	0	24.906	0	36.781	0	280.6	4	99.7	4	-1E+10	1	-1E+10	1	-1E+10	1	-1E+10	1	-1E+10	1	-1E+10	1
4902551	32	C	06/27/2021	00:04	-134.966	49.411	0	37.90	0	9.6930	0	32.3260	0	24.916	0	37.574	0	280.8	4	99.7	4	-1E+10	1	-1E+10	1	-1E+10	1	-1E+10	1	-1E+10	1	-1E+10	1
4902551	32	C	06/27/2021	00:04	-134.966	49.411	0	39.20	0	9.6420	0	32.3290	0	24.927	0	38.862	0	281.0	4	99.6	4	-1E+10	1	-1E+10	1	-1E+10	1	-1E+10	1	-1E+10	1	-1E+10	1
4902551	32	C	06/27/2021	00:04	-134.966	49.411	0	40.10	0	9.6170	0	32.3270	0	24.929	0	39.754	0	281.3	4	99.6	4	-1E+10	1	-1E+10	1	-1E+10	1	-1E+10	1	-1E+10	1	-1E+10	1
4902551	32	C	06/27/2021	00:04	-134.966	49.411	0	40.90	0	9.5250	0	32.3340	0	24.949	0	40.548	0	281.5	4	99.6	4	-1E+10	1	-1E+10	1	-1E+10	1	-1E+10	1	-1E+10	1	-1E+10	1
4902551	32	C	06/27/2021	00:04	-134.966	49.411	0	42.30	0	9.4600	0	32.3460	0	24.969	0	41.935	0	282.0	4	99.6	4	-1E+10	1	-1E+10	1	-1E+10	1	-1E+10	1	-1E+10	1	-1E+10	1
4902551	32	C	06/27/2021	00:04	-134.966	49.411	0	43.20	0	9.4140	0	32.3340	0	24.967	0	42.827	0	282.5	4	99.7	4	-1E+10	1	-1E+10	1	-1E+10	1	-1E+10	1	-1E+10	1	-1E+10	1
4902551	32	C	06/27/2021	00:04	-134.966	49.411	0	43.90	0	9.3940	0	32.3330	0	24.970	0	43.521	0	282.6	4	99.6	4	-1E+10	1	-1E+10	1	-1E+10	1	-1E+10	1	-1E+10	1	-1E+10	1
4902551	32	C	06/27/2021	00:04	-134.966	49.411	0	44.80	0	9.3740	0	32.3320	0	24.972	0	44.413	0	282.9	4	99.7	4	-1E+10	1	-1E+10	1	-1E+10	1	-1E+10	1	-1E+10	1	-1E+10	1
4902551	32	C	06/27/2021	00:04	-134.966	49.411	0	45.80	0	9.2880	0	32.3380	0	24.990	0	45.405	0	283.2	4	99.6	4	-1E+10	1	-1E+10	1	-1E+10	1	-1E+10	1	-1E+10	1	-1E+10	1
4902551	32	C	06/27/2021	00:04	-134.966	49.411	0	46.80	0	9.1370	0	32.3390	0	25.015	0	46.396	0	284.0	4	99.6	4	-1E+10	1	-1E+10	1	-1E+10	1	-1E+10	1	-1E+10	1	-1E+10	1
4902551	32	C	06/27/2021	00:04	-134.966	49.411	0	47.80	0	9.0110	0	32.3460	0	25.040	0	47.387	0	284.5	4	99.5	4	-1E+10	1	-1E+10	1	-1E+10	1	-1E+10	1	-1E+10	1	-1E+10	1
4902551	32	C	06/27/2021	00:04	-134.966	49.411	0	48.80	0	8.9380	0	32.3460	0	25.051	0	48.379	0	284.7	4	99.4	4	-1E+10	1	-1E+10	1	-1E+10	1	-1E+10	1	-1E+10	1	-1E+10	1
4902551	32	C	06/27/2021	00:04	-134.966	49.411	0	49.80	0	8.8890	0	32.3470	0	25.060	0	49.370	0	284.9	4	99.3	4	-1E+10	1	-1E+10	1	-1E+10	1	-1E+10	1	-1E+10	1	-1E+10	1
4902551	32	C	06/27/2021	00:04	-134.966	49.411	0	50.80	0	8.8070	0	32.3510	0	25.075	0	50.361	0	285.1	4	99.2	4	-1E+10	1	-1E+10	1	-1E+10	1	-1E+10	1	-1E+10	1	-1E+10	1
4902551	32	C	06/27/2021	00:04	-134.966	49.411	0	51.80	0	8.7260	0	32.3520	0	25.088	0	51.352	0	285.2	4	99.1	4	-1E+10	1	-1E+10	1	-1E+10	1	-1E+10	1	-1E+10	1	-1E+10	1
4902551	32	C	06/27/2021	00:04	-134.966	49.411	0	52.80	0	8.6290	0	32.3560	0	25.106	0	52.343	0	285.3	4	98.9	4	-1E+10	1	-1E+10	1	-1E+10	1	-1E+10	1	-1E+10	1	-1E+10	1
4902551	32	C	06/27/2021	00:04	-134.966	49.411	0	53.80	0	8.4970	0	32.3600	0	25.129	0	53.335	0	285.6	4	98.7	4	-1E+10	1	-1E+10	1	-1E+10	1	-1E+10	1	-1E+10	1	-1E+10	1
4902551	32	C	06/27/2021	00:04	-134.966	49.411	0	55.10	0	8.4250	0	32.3620	0	25.141	0	54.623	0	285.5	4	98.5	4	-1E+10	1	-1E+10	1	-1E+10	1	-1E+10	1	-1E+10	1	-1E+10	1
4902551	32	C	06/27/2021	00:04	-134.966	49.411	0	56.00	0	8.3120	0	32.3520	0	25.150	0	55.515	0	285.4	4	98.3	4	-1E+10	1	-1E+10	1	-1E+10	1	-1E+10	1	-1E+10	1	-1E+10	1
4902551	32	C	06/27/2021	00:04	-134.966	49.411	0	57.00	0	8.0900	0	32.3690	0	25.196	0	56.507	0	285.7	4	97.9	4	-1E+10	1	-1E+10	1	-1E+10	1	-1E+10	1	-1E+10	1	-1E+10	1
4902551	32	C	06/27/2021	00:04	-134.966	49.411	0	58.00	0	7.8900	0	32.3790	0	25.233	0	57.498	0	285.8	4	97.5	4	-1E+10	1	-1E+10	1	-1E+10	1	-1E+10	1	-1E+10	1	-1E+10	1
4902551	32	C	06/27/2021	00:04	-134.966	49.411	0	59.00	0	7.7990	0	32.3810	0	25.247	0	58.489	0	285.5	4	97.2	4	-1E+10	1	-1E+10	1	-1E+10	1	-1E+10	1	-1E+10	1	-1E+10	1
4902551	32	C	06/27/2021	00:04	-134.966	49.411	0	59.90	0	7.7740	0	32.3830	0	25.252	0	59.381	0	285.1	4	97.0	4	-1E+10	1	-1E+10	1	-1E+10	1	-1E+10	1	-1E+10	1	-1E+10	1
4902551	32	C	06/27/2021	00:04	-134.966	49.411	0	61.10	0	7.6910	0	32.3840	0	25.265	0	60.570	0	284.6	4	96.7	4	-1E+10	1	-1E+10	1	-1E+10	1	-1E+10	1	-1E+10	1	-1E+10	1
4902551	32	C	06/27/2021	00:04	-134.966	49.411	0	62.00	0	7.5760	0	32.3900	0	25.286	0	61.463	0	284.4	4	96.3	4	-1E+10	1	-1E+10	1	-1E+10	1	-1E+10	1	-1E+10	1	-1E+10	1
4902551	32	C	06/27/2021	00:04	-134.966	49.411	0	63.10	0	7.5010	0	32.3930	0	25.299	0	62.553	0	284.1	4	96.1	4	-1E+10	1	-1E+10	1	-1E+10	1	-1E+10	1	-1E+10	1	-1E+10	1
4902551	32	C	06/27/2021	00:04	-134.966	49.411	0	64.10	0	7.4540	0	32.3940	0	25.306	0	63.544	0	283.5	4	95.8	4	-1E+10	1	-1E+10	1	-1E+10	1	-1E+10	1	-1E+10	1	-1E+10	1
4902551	32	C	06/27/2021	00:04	-134.966	49.411	0	64.80	0	7.3840	0	32.4000	0	25.320	0	64.238	0	282.9	4	95.4	4	-1E+10	1	-1E+10	1	-1E+10	1	-1E+10	1	-1E+10	1	-1E+10	1
4902551	32	C	06/27/2021	00:04	-134.966	49.411	0	65.90	0	7.3050	0	32.4010	0	25.332	0	65.328	0	282.3	4	95.1	4	-1E+10	1	-1E+10	1	-1E+10	1	-1E+10	1	-1E+10	1	-1E+10	1
4902551	32	C	06/27/2021	00:04	-134.966	49.411	0	67.00	0	7.2360	0	32.4050	0	25.344	0	66.418	0	281.7	4	94.7	4	-1E+10	1	-1E+10	1	-1E+10	1	-1E+10	1	-1E+10	1	-1E+10	1
4902551	32	C	06/27/2021	00:04	-134.966	49.411	0	68.20	0	7.2100	0	32.4090	0	25.351	0	67.608	0	280.9	4	94.4	4	-1E+10	1	-1E+10	1	-1E+10	1	-1E+10	1	-1E+10	1	-1E+10	1
4902551	32	C	06/27/2021	00:04	-134.966	49.411	0	68.90	0	7.1710	0	32.4060	0	25.354	0	68.302	0	280.3	4	94.1	4	-1E+10	1	-1E+10	1	-1E+10	1	-1E+10	1	-1E+10	1	-1E+10	1
4902551	32	C	06/27/2021	00:04	-134.966	49.411	0	70.10	0	7.0650	0	32.4130	0	25.374	0	69.491	0	279.8	4	93.7	4	-1E+10	1	-1E+10	1	-1E+10	1	-1E+10	1	-1E+10	1	-1E+10	1
4902551	32	C	06/27/2021	00:04	-134.966	49.411	0	70.90	0	7.0440	0	32.4150	0	25.378	0	70.284	0	279.5	4	93.5	4	-1E+10	1	-1E+10	1	-1E+10	1	-1E+10	1	-1E+10	1	-1E+10	1
4902551	32	C	06/27/2021	00:04	-134.966	49.411	0	72.00	0	7.0250	0	32.4160	0	25.381	0	71.374	0	279.1	4	93.4	4	-1E+10	1	-1E+10	1	-1E+10	1	-1E+10	1	-1E+10	1	-1E+10	1
4902551	32	C	06/27/2021	00:04	-134.966	49.411	0	73.00	0	6.9750	0	32.4200	0	25.391	0	72.365	0	278.9	4	93.2	4	-1E+10	1	-1E+10	1	-1E+10	1	-1E+10	1	-1E+10	1	-1E+10	1
4902551	32	C	06/27/2021	00:04	-134.966	49.411	0	74.00	0	6.9400	0	32.4210	0	25.397	0	73.356	0	278.8	4	93.1	4	-1E+10	1	-1E+10	1	-1E+10	1	-1E+10	1	-1E+10	1	-1E+10	1
4902551	32	C	06/27/2021	00:04	-134.966	49.411	0	74.90	0	6.8610	0	32.4280	0	25.413	0	74.248	0	278.7	4	92.9	4	-1E+10	1	-1E+10	1	-1E+10	1	-1E+10	1	-1E+10	1	-1E+10	1
4902551	32	C	06/27/2021	00:04	-134.966	49.411	0	76.10	0	6.8000	0	32.4330	0	25.425	0	75.438	0	278.4	4	92.7	4	-1E+10	1	-1E+10	1	-1E+10	1	-1E+10	1	-1E+10	1	-1E+10	1
4902551	32	C	06/27/2021	00:04	-134.966	49.411	0	77.00	0	6.7930	0	32.4320	0	25.425	0	76.330	0	278.2	4	92.6	4	-1E+10	1	-1E+10	1	-1E+10	1	-1E+10	1	-1E+10	1	-1E+10	1
4902551	32	C	06/27/2021	00:04	-134.966	49.411	0	78.20	0	6.7840	0	32.4330	0	25.427	0	77.519	0	277.6	4	92.4	4	-1E+10	1	-1E+10	1	-1E+10	1	-1E+10	1	-1E+10	1	-1E+10	1
4902551	32	C	06/27/2021	00:04	-134.966	49.411	0	79.00	0	6.7810	0	32.4330	0	25.427	0	78.312	0	277.1	4	92.2	4	-1E+10	1	-1E+10	1	-1E+10	1	-1E+10	1	-1E+10	1	-1E+10	1
4902551	32	C	06/27/2021	00:04	-134.966	49.411	0	80.30	0	6.7720	0	32.4340	0	25.429	0	79.600	0	276.4	4	92.0	4	-1E+10	1	-1E+10	1	-1E+10	1	-1E+10	1	-1E+10	1	-1E+10	1
4902551	32	C	06/27/2021	00:04	-134.966	49.411	0	81.10	0	6.7710	0	32.4340	0	25.429	0	80.393	0	276.0	4	91.8	4	-1E+10	1	-1E+10	1	-1E+10	1	-1E+10	1	-1E+10	1	-1E+10	1
4902551	32	C	06/27/2021	00:04	-134.966	49.411	0	81.90	0	6.7710	0	32.4330	0	25.428	0	81.186	0	275.3	4	91.6	4	-1E+10	1	-1E+10	1	-1E+10	1	-1E+10	1	-1E+10	1	-1E+10	1
4902551	32	C	06/27/2021	00:04	-134.966	49.411	0	83.10	0	6.7520	0	32.4360	0	25.433	0	82.375	0	274.4	4	91.3	4	-1E+10	1	-1E+10	1	-1E+10	1	-1E+10	1	-1E+10	1	-1E+10	1
4902551	32	C	06/27/2021	00:04	-134.966	49.411	0	83.90	0	6.7310	0	32.4380	0	25.438	0	83.168	0	274.1	4	91.1	4	-1E+10	1	-1E+10	1	-1E+10	1	-1E+10	1	-1E+10	1	-1E+10	1
4902551	32	C	06/27/2021	00:04	-134.966	49.411	0	84.90	0	6.6940	0	32.4430	0	25.446	0	84.159	0	273.5	4	90.8	4	-1E+10	1	-1E+10	1	-1E+10	1	-1E+10	1	-1E+10	1	-1E+10	1
4902551	32	C	06/27/2021	00:04	-134.966	49.411	0	85.80	0	6.6890	0	32.4440	0	25.448	0	85.051	0	272.9	4	90.6	4	-1E+10	1	-1E+10	1	-1E+10	1	-1E+10	1	-1E+10	1	-1E+10	1
4902551	32	C	06/27/2021	00:04	-134.966	49.411	0	86.70	0	6.6790	0	32.4440	0	25.449	0	85.943	0	272.1	4	90.3	4	-1E+10	1	-1E+10	1	-1E+10	1	-1E+10	1	-1E+10	1	-1E+10	1
4902551	32	C	06/27/2021	00:04	-134.966	49.411	0	87.70	0	6.6540	0	32.4480	0	25.456	0	86.934	0	271.3	4	90.0	4	-1E+10	1	-1E+10	1	-1E+10	1	-1E+10	1	-1E+10	1	-1E+10	1
4902551	32	C	06/27/2021	00:04	-134.966	49.411	0	88.90	0	6.6210	0	32.4530	0	25.464	0	88.124	0	270.2	4	89.6	4	-1E+10	1	-1E+10	1	-1E+10	1	-1E+10	1	-1E+10	1	-1E+10	1
4902551	32	C	06/27/2021	00:04	-134.966	49.411	0	89.70	0	6.6090	0	32.4530	0	25.465	0	88.916	0	269.5	4	89.3	4	-1E+10	1	-1E+10	1	-1E+10	1	-1E+10	1	-1E+10	1	-1E+10	1
4902551	32	C	06/27/2021	00:04	-134.966	49.411	0	90.70	0	6.5860	0	32.4540	0	25.469	0	89.908	0	268.3	4	88.9	4	-1E+10	1	-1E+10	1	-1E+10	1	-1E+10	1	-1E+10	1	-1E+10	1
4902551	32	C	06/27/2021	00:04	-134.966	49.411	0	91.80	0	6.5490	0	32.4590	0	25.478	0	90.998	0	267.0	4	88.4	4	-1E+10	1	-1E+10	1	-1E+10	1	-1E+10	1	-1E+10	1	-1E+10	1
4902551	32	C	06/27/2021	00:04	-134.966	49.411	0	92.90	0	6.5170	0	32.4650	0	25.487	0	92.088	0	265.1	4	87.7	4	-1E+10	1	-1E+10	1	-1E+10	1	-1E+10	1	-1E+10	1	-1E+10	1
4902551	32	C	06/27/2021	00:04	-134.966	49.411	0	94.00	0	6.4960	0	32.4690	0	25.492	0	93.178	0	263.4	4	87.1	4	-1E+10	1	-1E+10	1	-1E+10	1	-1E+10	1	-1E+10	1	-1E+10	1
4902551	32	C	06/27/2021	00:04	-134.966	49.411	0	94.90	0	6.4850	0	32.4730	0	25.497	0	94.070	0	262.0	4	86.6	4	-1E+10	1	-1E+10	1	-1E+10	1	-1E+10	1	-1E+10	1	-1E+10	1
4902551	32	C	06/27/2021	00:04	-134.966	49.411	0	95.80	0	6.4630	0	32.4830	0	25.508	0	94.962	0	260.5	4	86.1	4	-1E+10	1	-1E+10	1	-1E+10	1	-1E+10	1	-1E+10	1	-1E+10	1
4902551	32	C	06/27/2021	00:04	-134.966	49.411	0	97.00	0	6.4310	0	32.4940	0	25.520	0	96.151	0	258.5	4	85.4	4	-1E+10	1	-1E+10	1	-1E+10	1	-1E+10	1	-1E+10	1	-1E+10	1
4902551	32	C	06/27/2021	00:04	-134.966	49.411	0	98.10	0	6.4300	0	32.5190	0	25.540	0	97.241	0	256.4	4	84.7	4	-1E+10	1	-1E+10	1	-1E+10	1	-1E+10	1	-1E+10	1	-1E+10	1
4902551	32	C	06/27/2021	00:04	-134.966	49.411	0	99.00	0	6.4390	0	32.5300	0	25.548	0	98.133	0	254.9	4	84.2	4	-1E+10	1	-1E+10	1	-1E+10	1	-1E+10	1	-1E+10	1	-1E+10	1
4902551	32	C	06/27/2021	00:04	-134.966	49.411	0	99.80	0	6.4150	0	32.5340	0	25.554	0	98.926	0	253.1	4	83.6	4	-1E+10	1	-1E+10	1	-1E+10	1	-1E+10	1	-1E+10	1	-1E+10	1
4902551	32	C	06/27/2021	00:04	-134.966	49.411	0	101.00	0	6.3010	0	32.5420	0	25.575	0	100.115	0	249.5	4	82.2	4	-1E+10	1	-1E+10	1	-1E+10	1	-1E+10	1	-1E+10	1	-1E+10	1
4902551	32	C	06/27/2021	00:04	-134.966	49.411	0	102.00	0	6.3430	0	32.5640	0	25.587	0	101.106	0	243.8	4	80.4	4	-1E+10	1	-1E+10	1	-1E+10	1	-1E+10	1	-1E+10	1	-1E+10	1
4902551	32	C	06/27/2021	00:04	-134.966	49.411	0	103.10	0	6.4330	0	32.6000	0	25.604	0	102.196	0	237.9	4	78.6	4	-1E+10	1	-1E+10	1	-1E+10	1	-1E+10	1	-1E+10	1	-1E+10	1
4902551	32	C	06/27/2021	00:04	-134.966	49.411	0	104.00	0	6.4270	0	32.6190	0	25.620	0	103.088	0	234.1	4	77.4	4	-1E+10	1	-1E+10	1	-1E+10	1	-1E+10	1	-1E+10	1	-1E+10	1
4902551	32	C	06/27/2021	00:04	-134.966	49.411	0	104.90	0	6.4160	0	32.6410	0	25.638	0	103.980	0	229.7	4	75.9	4	-1E+10	1	-1E+10	1	-1E+10	1	-1E+10	1	-1E+10	1	-1E+10	1
4902551	32	C	06/27/2021	00:04	-134.966	49.411	0	106.10	0	6.4090	0	32.6830	0	25.672	0	105.169	0	225.6	4	74.6	4	-1E+10	1	-1E+10	1	-1E+10	1	-1E+10	1	-1E+10	1	-1E+10	1
4902551	32	C	06/27/2021	00:04	-134.966	49.411	0	106.90	0	6.4250	0	32.7340	0	25.711	0	105.962	0	223.2	4	73.8	4	-1E+10	1	-1E+10	1	-1E+10	1	-1E+10	1	-1E+10	1	-1E+10	1
4902551	32	C	06/27/2021	00:04	-134.966	49.411	0	108.00	0	6.4210	0	32.7930	0	25.758	0	107.052	0	219.6	4	72.7	4	-1E+10	1	-1E+10	1	-1E+10	1	-1E+10	1	-1E+10	1	-1E+10	1
4902551	32	C	06/27/2021	00:04	-134.966	49.411	0	109.00	0	6.4200	0	32.8200	0	25.779	0	108.043	0	213.8	4	70.8	4	-1E+10	1	-1E+10	1	-1E+10	1	-1E+10	1	-1E+10	1	-1E+10	1
4902551	32	C	06/27/2021	00:04	-134.966	49.411	0	109.90	0	6.4230	0	32.8450	0	25.798	0	108.935	0	206.8	4	68.5	4	-1E+10	1	-1E+10	1	-1E+10	1	-1E+10	1	-1E+10	1	-1E+10	1
4902551	32	C	06/27/2021	00:04	-134.966	49.411	0	110.80	0	6.4360	0	32.9600	0	25.887	0	109.827	0	202.0	4	66.9	4	-1E+10	1	-1E+10	1	-1E+10	1	-1E+10	1	-1E+10	1	-1E+10	1
4902551	32	C	06/27/2021	00:04	-134.966	49.411	0	112.00	0	6.4520	0	33.0410	0	25.949	0	111.016	0	197.6	4	65.5	4	-1E+10	1	-1E+10	1	-1E+10	1	-1E+10	1	-1E+10	1	-1E+10	1
4902551	32	C	06/27/2021	00:04	-134.966	49.411	0	113.10	0	6.4610	0	33.0960	0	25.992	0	112.106	0	194.3	4	64.5	4	-1E+10	1	-1E+10	1	-1E+10	1	-1E+10	1	-1E+10	1	-1E+10	1
4902551	32	C	06/27/2021	00:04	-134.966	49.411	0	114.10	0	6.4600	0	33.1110	0	26.004	0	113.097	0	192.0	4	63.7	4	-1E+10	1	-1E+10	1	-1E+10	1	-1E+10	1	-1E+10	1	-1E+10	1
4902551	32	C	06/27/2021	00:04	-134.966	49.411	0	114.90	0	6.4960	0	33.1550	0	26.034	0	113.889	0	190.6	4	63.3	4	-1E+10	1	-1E+10	1	-1E+10	1	-1E+10	1	-1E+10	1	-1E+10	1
4902551	32	C	06/27/2021	00:04	-134.966	49.411	0	115.80	0	6.5260	0	33.2380	0	26.095	0	114.781	0	189.3	4	63.0	4	-1E+10	1	-1E+10	1	-1E+10	1	-1E+10	1	-1E+10	1	-1E+10	1
4902551	32	C	06/27/2021	00:04	-134.966	49.411	0	116.90	0	6.5220	0	33.2540	0	26.108	0	115.871	0	188.0	4	62.6	4	-1E+10	1	-1E+10	1	-1E+10	1	-1E+10	1	-1E+10	1	-1E+10	1
4902551	32	C	06/27/2021	00:04	-134.966	49.411	0	118.10	0	6.4860	0	33.2740	0	26.129	0	117.060	0	186.8	4	62.1	4	-1E+10	1	-1E+10	1	-1E+10	1	-1E+10	1	-1E+10	1	-1E+10	1
4902551	32	C	06/27/2021	00:04	-134.966	49.411	0	119.00	0	6.4630	0	33.3020	0	26.154	0	117.952	0	186.0	4	61.8	4	-1E+10	1	-1E+10	1	-1E+10	1	-1E+10	1	-1E+10	1	-1E+10	1
4902551	32	C	06/27/2021	00:04	-134.966	49.411	0	119.90	0	6.4640	0	33.3330	0	26.178	0	118.844	0	185.1	4	61.5	4	-1E+10	1	-1E+10	1	-1E+10	1	-1E+10	1	-1E+10	1	-1E+10	1
4902551	32	C	06/27/2021	00:04	-134.966	49.411	0	120.80	0	6.4640	0	33.3370	0	26.181	0	119.736	0	184.2	4	61.2	4	-1E+10	1	-1E+10	1	-1E+10	1	-1E+10	1	-1E+10	1	-1E+10	1
4902551	32	C	06/27/2021	00:04	-134.966	49.411	0	121.80	0	6.4640	0	33.3390	0	26.183	0	120.727	0	182.9	4	60.8	4	-1E+10	1	-1E+10	1	-1E+10	1	-1E+10	1	-1E+10	1	-1E+10	1
4902551	32	C	06/27/2021	00:04	-134.966	49.411	0	123.00	0	6.4630	0	33.3410	0	26.185	0	121.916	0	181.0	4	60.2	4	-1E+10	1	-1E+10	1	-1E+10	1	-1E+10	1	-1E+10	1	-1E+10	1
4902551	32	C	06/27/2021	00:04	-134.966	49.411	0	123.90	0	6.4660	0	33.3490	0	26.191	0	122.808	0	179.7	4	59.8	4	-1E+10	1	-1E+10	1	-1E+10	1	-1E+10	1	-1E+10	1	-1E+10	1
4902551	32	C	06/27/2021	00:04	-134.966	49.411	0	124.90	0	6.4690	0	33.3770	0	26.212	0	123.798	0	178.3	4	59.3	4	-1E+10	1	-1E+10	1	-1E+10	1	-1E+10	1	-1E+10	1	-1E+10	1
4902551	32	C	06/27/2021	00:04	-134.966	49.411	0	126.10	0	6.4680	0	33.3980	0	26.229	0	124.987	0	176.2	4	58.6	4	-1E+10	1	-1E+10	1	-1E+10	1	-1E+10	1	-1E+10	1	-1E+10	1
4902551	32	C	06/27/2021	00:04	-134.966	49.411	0	127.00	0	6.4670	0	33.4060	0	26.235	0	125.879	0	174.4	4	58.0	4	-1E+10	1	-1E+10	1	-1E+10	1	-1E+10	1	-1E+10	1	-1E+10	1
4902551	32	C	06/27/2021	00:04	-134.966	49.411	0	127.90	0	6.4630	0	33.4120	0	26.241	0	126.771	0	172.5	4	57.4	4	-1E+10	1	-1E+10	1	-1E+10	1	-1E+10	1	-1E+10	1	-1E+10	1
4902551	32	C	06/27/2021	00:04	-134.966	49.411	0	129.00	0	6.4590	0	33.4220	0	26.249	0	127.861	0	169.6	4	56.4	4	-1E+10	1	-1E+10	1	-1E+10	1	-1E+10	1	-1E+10	1	-1E+10	1
4902551	32	C	06/27/2021	00:04	-134.966	49.411	0	129.90	0	6.4550	0	33.4360	0	26.261	0	128.753	0	167.1	4	55.6	4	-1E+10	1	-1E+10	1	-1E+10	1	-1E+10	1	-1E+10	1	-1E+10	1
4902551	32	C	06/27/2021	00:04	-134.966	49.411	0	130.80	0	6.4440	0	33.4590	0	26.280	0	129.645	0	164.6	4	54.8	4	-1E+10	1	-1E+10	1	-1E+10	1	-1E+10	1	-1E+10	1	-1E+10	1
4902551	32	C	06/27/2021	00:04	-134.966	49.411	0	131.80	0	6.4140	0	33.5150	0	26.328	0	130.635	0	162.5	4	54.1	4	-1E+10	1	-1E+10	1	-1E+10	1	-1E+10	1	-1E+10	1	-1E+10	1
4902551	32	C	06/27/2021	00:04	-134.966	49.411	0	132.80	0	6.3980	0	33.5340	0	26.345	0	131.626	0	160.9	4	53.5	4	-1E+10	1	-1E+10	1	-1E+10	1	-1E+10	1	-1E+10	1	-1E+10	1
4902551	32	C	06/27/2021	00:04	-134.966	49.411	0	133.80	0	6.3910	0	33.5440	0	26.354	0	132.617	0	159.3	4	53.0	4	-1E+10	1	-1E+10	1	-1E+10	1	-1E+10	1	-1E+10	1	-1E+10	1
4902551	32	C	06/27/2021	00:04	-134.966	49.411	0	134.80	0	6.3840	0	33.5460	0	26.357	0	133.608	0	157.5	4	52.4	4	-1E+10	1	-1E+10	1	-1E+10	1	-1E+10	1	-1E+10	1	-1E+10	1
4902551	32	C	06/27/2021	00:04	-134.966	49.411	0	135.80	0	6.3720	0	33.5550	0	26.365	0	134.599	0	155.9	4	51.8	4	-1E+10	1	-1E+10	1	-1E+10	1	-1E+10	1	-1E+10	1	-1E+10	1
4902551	32	C	06/27/2021	00:04	-134.966	49.411	0	136.80	0	6.3620	0	33.5700	0	26.379	0	135.590	0	154.0	4	51.2	4	-1E+10	1	-1E+10	1	-1E+10	1	-1E+10	1	-1E+10	1	-1E+10	1
4902551	32	C	06/27/2021	00:04	-134.966	49.411	0	138.10	0	6.3500	0	33.5870	0	26.394	0	136.878	0	150.6	4	50.0	4	-1E+10	1	-1E+10	1	-1E+10	1	-1E+10	1	-1E+10	1	-1E+10	1
4902551	32	C	06/27/2021	00:04	-134.966	49.411	0	139.10	0	6.3330	0	33.5970	0	26.404	0	137.868	0	147.5	4	49.0	4	-1E+10	1	-1E+10	1	-1E+10	1	-1E+10	1	-1E+10	1	-1E+10	1
4902551	32	C	06/27/2021	00:04	-134.966	49.411	0	139.80	0	6.3030	0	33.6060	0	26.415	0	138.562	0	146.1	4	48.5	4	-1E+10	1	-1E+10	1	-1E+10	1	-1E+10	1	-1E+10	1	-1E+10	1
4902551	32	C	06/27/2021	00:04	-134.966	49.411	0	140.90	0	6.2740	0	33.6160	0	26.426	0	139.652	0	145.1	4	48.1	4	-1E+10	1	-1E+10	1	-1E+10	1	-1E+10	1	-1E+10	1	-1E+10	1
4902551	32	C	06/27/2021	00:04	-134.966	49.411	0	142.00	0	6.2510	0	33.6270	0	26.438	0	140.742	0	144.1	4	47.8	4	-1E+10	1	-1E+10	1	-1E+10	1	-1E+10	1	-1E+10	1	-1E+10	1
4902551	32	C	06/27/2021	00:04	-134.966	49.411	0	142.80	0	6.2330	0	33.6350	0	26.446	0	141.534	0	143.5	4	47.6	4	-1E+10	1	-1E+10	1	-1E+10	1	-1E+10	1	-1E+10	1	-1E+10	1
4902551	32	C	06/27/2021	00:04	-134.966	49.411	0	143.90	0	6.2150	0	33.6530	0	26.463	0	142.624	0	142.9	4	47.3	4	-1E+10	1	-1E+10	1	-1E+10	1	-1E+10	1	-1E+10	1	-1E+10	1
4902551	32	C	06/27/2021	00:04	-134.966	49.411	0	145.10	0	6.2080	0	33.6570	0	26.467	0	143.813	0	142.2	4	47.1	4	-1E+10	1	-1E+10	1	-1E+10	1	-1E+10	1	-1E+10	1	-1E+10	1
4902551	32	C	06/27/2021	00:04	-134.966	49.411	0	145.80	0	6.2000	0	33.6600	0	26.470	0	144.507	0	141.7	4	47.0	4	-1E+10	1	-1E+10	1	-1E+10	1	-1E+10	1	-1E+10	1	-1E+10	1
4902551	32	C	06/27/2021	00:04	-134.966	49.411	0	147.00	0	6.1790	0	33.6640	0	26.476	0	145.696	0	141.0	4	46.7	4	-1E+10	1	-1E+10	1	-1E+10	1	-1E+10	1	-1E+10	1	-1E+10	1
4902551	32	C	06/27/2021	00:04	-134.966	49.411	0	148.20	0	6.1650	0	33.6680	0	26.481	0	146.885	0	140.2	4	46.4	4	-1E+10	1	-1E+10	1	-1E+10	1	-1E+10	1	-1E+10	1	-1E+10	1
4902551	32	C	06/27/2021	00:04	-134.966	49.411	0	149.00	0	6.1580	0	33.6760	0	26.488	0	147.677	0	139.7	4	46.2	4	-1E+10	1	-1E+10	1	-1E+10	1	-1E+10	1	-1E+10	1	-1E+10	1
4902551	32	C	06/27/2021	00:04	-134.966	49.411	0	149.80	0	6.1480	0	33.6810	0	26.494	0	148.470	0	139.3	4	46.1	4	-1E+10	1	-1E+10	1	-1E+10	1	-1E+10	1	-1E+10	1	-1E+10	1
4902551	32	C	06/27/2021	00:04	-134.966	49.411	0	151.00	0	6.1250	0	33.6860	0	26.500	0	149.659	0	138.8	4	45.9	4	-1E+10	1	-1E+10	1	-1E+10	1	-1E+10	1	-1E+10	1	-1E+10	1
4902551	32	C	06/27/2021	00:04	-134.966	49.411	0	152.30	0	6.1040	0	33.6940	0	26.509	0	150.947	0	138.3	4	45.7	4	-1E+10	1	-1E+10	1	-1E+10	1	-1E+10	1	-1E+10	1	-1E+10	1
4902551	32	C	06/27/2021	00:04	-134.966	49.411	0	153.10	0	6.0980	0	33.6960	0	26.512	0	151.739	0	137.8	4	45.6	4	-1E+10	1	-1E+10	1	-1E+10	1	-1E+10	1	-1E+10	1	-1E+10	1
4902551	32	C	06/27/2021	00:04	-134.966	49.411	0	153.90	0	6.0910	0	33.6980	0	26.514	0	152.532	0	137.4	4	45.4	4	-1E+10	1	-1E+10	1	-1E+10	1	-1E+10	1	-1E+10	1	-1E+10	1
4902551	32	C	06/27/2021	00:04	-134.966	49.411	0	154.80	0	6.0850	0	33.7000	0	26.517	0	153.424	0	136.9	4	45.2	4	-1E+10	1	-1E+10	1	-1E+10	1	-1E+10	1	-1E+10	1	-1E+10	1
4902551	32	C	06/27/2021	00:04	-134.966	49.411	0	156.00	0	6.0840	0	33.7000	0	26.517	0	154.613	0	136.1	4	45.0	4	-1E+10	1	-1E+10	1	-1E+10	1	-1E+10	1	-1E+10	1	-1E+10	1
4902551	32	C	06/27/2021	00:04	-134.966	49.411	0	157.30	0	6.0750	0	33.7050	0	26.522	0	155.900	0	135.3	4	44.7	4	-1E+10	1	-1E+10	1	-1E+10	1	-1E+10	1	-1E+10	1	-1E+10	1
4902551	32	C	06/27/2021	00:04	-134.966	49.411	0	158.10	0	6.0730	0	33.7040	0	26.521	0	156.693	0	134.8	4	44.5	4	-1E+10	1	-1E+10	1	-1E+10	1	-1E+10	1	-1E+10	1	-1E+10	1
4902551	32	C	06/27/2021	00:04	-134.966	49.411	0	159.00	0	6.0660	0	33.7060	0	26.524	0	157.585	0	134.2	4	44.3	4	-1E+10	1	-1E+10	1	-1E+10	1	-1E+10	1	-1E+10	1	-1E+10	1
4902551	32	C	06/27/2021	00:04	-134.966	49.411	0	159.80	0	6.0570	0	33.7090	0	26.527	0	158.377	0	133.6	4	44.1	4	-1E+10	1	-1E+10	1	-1E+10	1	-1E+10	1	-1E+10	1	-1E+10	1
4902551	32	C	06/27/2021	00:04	-134.966	49.411	0	160.60	0	6.0490	0	33.7100	0	26.529	0	159.170	0	132.8	4	43.9	4	-1E+10	1	-1E+10	1	-1E+10	1	-1E+10	1	-1E+10	1	-1E+10	1
4902551	32	C	06/27/2021	00:04	-134.966	49.411	0	161.90	0	6.0300	0	33.7170	0	26.537	0	160.458	0	131.7	4	43.5	4	-1E+10	1	-1E+10	1	-1E+10	1	-1E+10	1	-1E+10	1	-1E+10	1
4902551	32	C	06/27/2021	00:04	-134.966	49.411	0	163.30	0	6.0080	0	33.7280	0	26.548	0	161.845	0	130.8	4	43.2	4	-1E+10	1	-1E+10	1	-1E+10	1	-1E+10	1	-1E+10	1	-1E+10	1
4902551	32	C	06/27/2021	00:04	-134.966	49.411	0	164.20	0	5.9910	0	33.7320	0	26.554	0	162.736	0	130.3	4	43.0	4	-1E+10	1	-1E+10	1	-1E+10	1	-1E+10	1	-1E+10	1	-1E+10	1
4902551	32	C	06/27/2021	00:04	-134.966	49.411	0	165.10	0	5.9800	0	33.7370	0	26.559	0	163.628	0	129.9	4	42.8	4	-1E+10	1	-1E+10	1	-1E+10	1	-1E+10	1	-1E+10	1	-1E+10	1
4902551	32	C	06/27/2021	00:04	-134.966	49.411	0	166.00	0	5.9680	0	33.7400	0	26.563	0	164.520	0	129.5	4	42.7	4	-1E+10	1	-1E+10	1	-1E+10	1	-1E+10	1	-1E+10	1	-1E+10	1
4902551	32	C	06/27/2021	00:04	-134.966	49.411	0	166.90	0	5.9510	0	33.7430	0	26.567	0	165.411	0	129.1	4	42.5	4	-1E+10	1	-1E+10	1	-1E+10	1	-1E+10	1	-1E+10	1	-1E+10	1
4902551	32	C	06/27/2021	00:04	-134.966	49.411	0	167.90	0	5.9460	0	33.7470	0	26.571	0	166.402	0	128.7	4	42.4	4	-1E+10	1	-1E+10	1	-1E+10	1	-1E+10	1	-1E+10	1	-1E+10	1
4902551	32	C	06/27/2021	00:04	-134.966	49.411	0	168.80	0	5.9420	0	33.7480	0	26.572	0	167.293	0	128.3	4	42.3	4	-1E+10	1	-1E+10	1	-1E+10	1	-1E+10	1	-1E+10	1	-1E+10	1
4902551	32	C	06/27/2021	00:04	-134.966	49.411	0	169.70	0	5.9390	0	33.7490	0	26.574	0	168.185	0	127.9	4	42.1	4	-1E+10	1	-1E+10	1	-1E+10	1	-1E+10	1	-1E+10	1	-1E+10	1
4902551	32	C	06/27/2021	00:04	-134.966	49.411	0	170.70	0	5.9330	0	33.7500	0	26.575	0	169.176	0	127.4	4	42.0	4	-1E+10	1	-1E+10	1	-1E+10	1	-1E+10	1	-1E+10	1	-1E+10	1
4902551	32	C	06/27/2021	00:04	-134.966	49.411	0	171.60	0	5.9260	0	33.7510	0	26.577	0	170.067	0	127.0	4	41.8	4	-1E+10	1	-1E+10	1	-1E+10	1	-1E+10	1	-1E+10	1	-1E+10	1
4902551	32	C	06/27/2021	00:04	-134.966	49.411	0	172.90	0	5.9150	0	33.7530	0	26.580	0	171.355	0	126.3	4	41.6	4	-1E+10	1	-1E+10	1	-1E+10	1	-1E+10	1	-1E+10	1	-1E+10	1
4902551	32	C	06/27/2021	00:04	-134.966	49.411	0	174.40	0	5.9060	0	33.7530	0	26.581	0	172.841	0	125.5	4	41.3	4	-1E+10	1	-1E+10	1	-1E+10	1	-1E+10	1	-1E+10	1	-1E+10	1
4902551	32	C	06/27/2021	00:04	-134.966	49.411	0	175.30	0	5.8960	0	33.7550	0	26.584	0	173.733	0	124.9	4	41.1	4	-1E+10	1	-1E+10	1	-1E+10	1	-1E+10	1	-1E+10	1	-1E+10	1
4902551	32	C	06/27/2021	00:04	-134.966	49.411	0	176.20	0	5.8870	0	33.7580	0	26.587	0	174.624	0	124.5	4	41.0	4	-1E+10	1	-1E+10	1	-1E+10	1	-1E+10	1	-1E+10	1	-1E+10	1
4902551	32	C	06/27/2021	00:04	-134.966	49.411	0	177.10	0	5.8840	0	33.7590	0	26.588	0	175.516	0	124.0	4	40.8	4	-1E+10	1	-1E+10	1	-1E+10	1	-1E+10	1	-1E+10	1	-1E+10	1
4902551	32	C	06/27/2021	00:04	-134.966	49.411	0	178.00	0	5.8730	0	33.7620	0	26.592	0	176.407	0	123.5	4	40.6	4	-1E+10	1	-1E+10	1	-1E+10	1	-1E+10	1	-1E+10	1	-1E+10	1
4902551	32	C	06/27/2021	00:04	-134.966	49.411	0	179.00	0	5.8610	0	33.7670	0	26.598	0	177.398	0	123.1	4	40.5	4	-1E+10	1	-1E+10	1	-1E+10	1	-1E+10	1	-1E+10	1	-1E+10	1
4902551	32	C	06/27/2021	00:04	-134.966	49.411	0	179.90	0	5.8540	0	33.7670	0	26.599	0	178.290	0	122.7	4	40.3	4	-1E+10	1	-1E+10	1	-1E+10	1	-1E+10	1	-1E+10	1	-1E+10	1
4902551	32	C	06/27/2021	00:04	-134.966	49.411	0	180.80	0	5.8510	0	33.7680	0	26.600	0	179.181	0	122.2	4	40.2	4	-1E+10	1	-1E+10	1	-1E+10	1	-1E+10	1	-1E+10	1	-1E+10	1
4902551	32	C	06/27/2021	00:04	-134.966	49.411	0	181.70	0	5.8460	0	33.7680	0	26.600	0	180.073	0	121.6	4	40.0	4	-1E+10	1	-1E+10	1	-1E+10	1	-1E+10	1	-1E+10	1	-1E+10	1
4902551	32	C	06/27/2021	00:04	-134.966	49.411	0	182.60	0	5.8450	0	33.7670	0	26.600	0	180.964	0	121.0	4	39.8	4	-1E+10	1	-1E+10	1	-1E+10	1	-1E+10	1	-1E+10	1	-1E+10	1
4902551	32	C	06/27/2021	00:04	-134.966	49.411	0	183.90	0	5.8140	0	33.7720	0	26.607	0	182.252	0	120.1	4	39.5	4	-1E+10	1	-1E+10	1	-1E+10	1	-1E+10	1	-1E+10	1	-1E+10	1
4902551	32	C	06/27/2021	00:04	-134.966	49.411	0	185.30	0	5.7880	0	33.7730	0	26.611	0	183.639	0	119.4	4	39.2	4	-1E+10	1	-1E+10	1	-1E+10	1	-1E+10	1	-1E+10	1	-1E+10	1
4902551	32	C	06/27/2021	00:04	-134.966	49.411	0	186.20	0	5.7690	0	33.7780	0	26.618	0	184.530	0	118.9	4	39.0	4	-1E+10	1	-1E+10	1	-1E+10	1	-1E+10	1	-1E+10	1	-1E+10	1
4902551	32	C	06/27/2021	00:04	-134.966	49.411	0	187.10	0	5.7510	0	33.7800	0	26.621	0	185.422	0	118.5	4	38.9	4	-1E+10	1	-1E+10	1	-1E+10	1	-1E+10	1	-1E+10	1	-1E+10	1
4902551	32	C	06/27/2021	00:04	-134.966	49.411	0	188.00	0	5.7450	0	33.7810	0	26.623	0	186.313	0	118.1	4	38.7	4	-1E+10	1	-1E+10	1	-1E+10	1	-1E+10	1	-1E+10	1	-1E+10	1
4902551	32	C	06/27/2021	00:04	-134.966	49.411	0	189.00	0	5.7370	0	33.7830	0	26.626	0	187.304	0	117.7	4	38.6	4	-1E+10	1	-1E+10	1	-1E+10	1	-1E+10	1	-1E+10	1	-1E+10	1
4902551	32	C	06/27/2021	00:04	-134.966	49.411	0	189.80	0	5.7350	0	33.7850	0	26.627	0	188.097	0	117.3	4	38.5	4	-1E+10	1	-1E+10	1	-1E+10	1	-1E+10	1	-1E+10	1	-1E+10	1
4902551	32	C	06/27/2021	00:04	-134.966	49.411	0	190.70	0	5.7350	0	33.7850	0	26.627	0	188.988	0	116.8	4	38.3	4	-1E+10	1	-1E+10	1	-1E+10	1	-1E+10	1	-1E+10	1	-1E+10	1
4902551	32	C	06/27/2021	00:04	-134.966	49.411	0	191.60	0	5.7330	0	33.7850	0	26.628	0	189.880	0	116.3	4	38.2	4	-1E+10	1	-1E+10	1	-1E+10	1	-1E+10	1	-1E+10	1	-1E+10	1
4902551	32	C	06/27/2021	00:04	-134.966	49.411	0	192.90	0	5.7170	0	33.7870	0	26.631	0	191.167	0	115.6	4	37.9	4	-1E+10	1	-1E+10	1	-1E+10	1	-1E+10	1	-1E+10	1	-1E+10	1
4902551	32	C	06/27/2021	00:04	-134.966	49.411	0	194.20	0	5.6990	0	33.7920	0	26.637	0	192.455	0	115.0	4	37.7	4	-1E+10	1	-1E+10	1	-1E+10	1	-1E+10	1	-1E+10	1	-1E+10	1
4902551	32	C	06/27/2021	00:04	-134.966	49.411	0	195.10	0	5.6810	0	33.7950	0	26.642	0	193.346	0	114.6	4	37.6	4	-1E+10	1	-1E+10	1	-1E+10	1	-1E+10	1	-1E+10	1	-1E+10	1
4902551	32	C	06/27/2021	00:04	-134.966	49.411	0	195.90	0	5.6720	0	33.7960	0	26.644	0	194.139	0	114.3	4	37.4	4	-1E+10	1	-1E+10	1	-1E+10	1	-1E+10	1	-1E+10	1	-1E+10	1
4902551	32	C	06/27/2021	00:04	-134.966	49.411	0	196.80	0	5.6670	0	33.7940	0	26.643	0	195.030	0	113.9	4	37.3	4	-1E+10	1	-1E+10	1	-1E+10	1	-1E+10	1	-1E+10	1	-1E+10	1
4902551	32	C	06/27/2021	00:04	-134.966	49.411	0	197.70	0	5.6580	0	33.7950	0	26.645	0	195.922	0	113.6	4	37.2	4	-1E+10	1	-1E+10	1	-1E+10	1	-1E+10	1	-1E+10	1	-1E+10	1
4902551	32	C	06/27/2021	00:04	-134.966	49.411	0	198.60	0	5.6340	0	33.8000	0	26.652	0	196.813	0	113.3	4	37.1	4	-1E+10	1	-1E+10	1	-1E+10	1	-1E+10	1	-1E+10	1	-1E+10	1
4902551	32	C	06/27/2021	00:04	-134.966	49.411	0	199.90	0	5.6190	0	33.8010	0	26.654	0	198.101	0	112.9	4	36.9	4	-1E+10	1	-1E+10	1	-1E+10	1	-1E+10	1	-1E+10	1	-1E+10	1
4902551	32	C	06/27/2021	00:04	-134.966	49.411	0	201.30	0	5.6090	0	33.8010	0	26.655	0	199.488	0	112.5	4	36.8	4	-1E+10	1	-1E+10	1	-1E+10	1	-1E+10	1	-1E+10	1	-1E+10	1
4902551	32	C	06/27/2021	00:04	-134.966	49.411	0	202.20	0	5.6030	0	33.8030	0	26.658	0	200.379	0	112.2	4	36.7	4	-1E+10	1	-1E+10	1	-1E+10	1	-1E+10	1	-1E+10	1	-1E+10	1
4902551	32	C	06/27/2021	00:04	-134.966	49.411	0	203.10	0	5.6000	0	33.8030	0	26.658	0	201.271	0	111.9	4	36.6	4	-1E+10	1	-1E+10	1	-1E+10	1	-1E+10	1	-1E+10	1	-1E+10	1
4902551	32	C	06/27/2021	00:04	-134.966	49.411	0	204.00	0	5.5990	0	33.8020	0	26.657	0	202.162	0	111.6	4	36.5	4	-1E+10	1	-1E+10	1	-1E+10	1	-1E+10	1	-1E+10	1	-1E+10	1
4902551	32	C	06/27/2021	00:04	-134.966	49.411	0	204.90	0	5.5980	0	33.8020	0	26.658	0	203.054	0	111.2	4	36.4	4	-1E+10	1	-1E+10	1	-1E+10	1	-1E+10	1	-1E+10	1	-1E+10	1
4902551	32	C	06/27/2021	00:04	-134.966	49.411	0	205.80	0	5.5950	0	33.8030	0	26.659	0	203.945	0	110.8	4	36.2	4	-1E+10	1	-1E+10	1	-1E+10	1	-1E+10	1	-1E+10	1	-1E+10	1
4902551	32	C	06/27/2021	00:04	-134.966	49.411	0	206.70	0	5.5930	0	33.8030	0	26.659	0	204.836	0	110.3	4	36.1	4	-1E+10	1	-1E+10	1	-1E+10	1	-1E+10	1	-1E+10	1	-1E+10	1
4902551	32	C	06/27/2021	00:04	-134.966	49.411	0	207.60	0	5.5890	0	33.8040	0	26.660	0	205.728	0	109.9	4	35.9	4	-1E+10	1	-1E+10	1	-1E+10	1	-1E+10	1	-1E+10	1	-1E+10	1
4902551	32	C	06/27/2021	00:04	-134.966	49.411	0	208.90	0	5.5690	0	33.8060	0	26.664	0	207.016	0	109.2	4	35.7	4	-1E+10	1	-1E+10	1	-1E+10	1	-1E+10	1	-1E+10	1	-1E+10	1
4902551	32	C	06/27/2021	00:04	-134.966	49.411	0	210.30	0	5.5580	0	33.8070	0	26.666	0	208.402	0	108.5	4	35.5	4	-1E+10	1	-1E+10	1	-1E+10	1	-1E+10	1	-1E+10	1	-1E+10	1
4902551	32	C	06/27/2021	00:04	-134.966	49.411	0	211.20	0	5.5480	0	33.8080	0	26.668	0	209.294	0	108.0	4	35.3	4	-1E+10	1	-1E+10	1	-1E+10	1	-1E+10	1	-1E+10	1	-1E+10	1
4902551	32	C	06/27/2021	00:04	-134.966	49.411	0	212.20	0	5.5360	0	33.8090	0	26.671	0	210.284	0	107.5	4	35.1	4	-1E+10	1	-1E+10	1	-1E+10	1	-1E+10	1	-1E+10	1	-1E+10	1
4902551	32	C	06/27/2021	00:04	-134.966	49.411	0	213.10	0	5.5140	0	33.8100	0	26.674	0	211.175	0	107.0	4	34.9	4	-1E+10	1	-1E+10	1	-1E+10	1	-1E+10	1	-1E+10	1	-1E+10	1
4902551	32	C	06/27/2021	00:04	-134.966	49.411	0	214.00	0	5.5070	0	33.8100	0	26.675	0	212.067	0	106.5	4	34.7	4	-1E+10	1	-1E+10	1	-1E+10	1	-1E+10	1	-1E+10	1	-1E+10	1
4902551	32	C	06/27/2021	00:04	-134.966	49.411	0	214.90	0	5.5030	0	33.8090	0	26.675	0	212.958	0	105.9	4	34.6	4	-1E+10	1	-1E+10	1	-1E+10	1	-1E+10	1	-1E+10	1	-1E+10	1
4902551	32	C	06/27/2021	00:04	-134.966	49.411	0	215.80	0	5.4760	0	33.8120	0	26.680	0	213.850	0	105.4	4	34.4	4	-1E+10	1	-1E+10	1	-1E+10	1	-1E+10	1	-1E+10	1	-1E+10	1
4902551	32	C	06/27/2021	00:04	-134.966	49.411	0	216.70	0	5.4750	0	33.8110	0	26.680	0	214.741	0	104.8	4	34.2	4	-1E+10	1	-1E+10	1	-1E+10	1	-1E+10	1	-1E+10	1	-1E+10	1
4902551	32	C	06/27/2021	00:04	-134.966	49.411	0	217.70	0	5.4740	0	33.8110	0	26.680	0	215.732	0	104.2	4	34.0	4	-1E+10	1	-1E+10	1	-1E+10	1	-1E+10	1	-1E+10	1	-1E+10	1
4902551	32	C	06/27/2021	00:04	-134.966	49.411	0	218.60	0	5.4600	0	33.8110	0	26.681	0	216.623	0	103.5	4	33.7	4	-1E+10	1	-1E+10	1	-1E+10	1	-1E+10	1	-1E+10	1	-1E+10	1
4902551	32	C	06/27/2021	00:04	-134.966	49.411	0	219.90	0	5.4290	0	33.8150	0	26.688	0	217.910	0	102.6	4	33.4	4	-1E+10	1	-1E+10	1	-1E+10	1	-1E+10	1	-1E+10	1	-1E+10	1
4902551	32	C	06/27/2021	00:04	-134.966	49.411	0	221.40	0	5.3990	0	33.8190	0	26.695	0	219.396	0	101.7	4	33.1	4	-1E+10	1	-1E+10	1	-1E+10	1	-1E+10	1	-1E+10	1	-1E+10	1
4902551	32	C	06/27/2021	00:04	-134.966	49.411	0	222.40	0	5.3650	0	33.8200	0	26.700	0	220.387	0	101.2	4	32.9	4	-1E+10	1	-1E+10	1	-1E+10	1	-1E+10	1	-1E+10	1	-1E+10	1
4902551	32	C	06/27/2021	00:04	-134.966	49.411	0	223.30	0	5.3540	0	33.8200	0	26.701	0	221.278	0	100.7	4	32.7	4	-1E+10	1	-1E+10	1	-1E+10	1	-1E+10	1	-1E+10	1	-1E+10	1
4902551	32	C	06/27/2021	00:04	-134.966	49.411	0	224.30	0	5.3360	0	33.8220	0	26.705	0	222.268	0	100.3	4	32.6	4	-1E+10	1	-1E+10	1	-1E+10	1	-1E+10	1	-1E+10	1	-1E+10	1
4902551	32	C	06/27/2021	00:04	-134.966	49.411	0	225.20	0	5.3190	0	33.8230	0	26.707	0	223.160	0	99.9	4	32.5	4	-1E+10	1	-1E+10	1	-1E+10	1	-1E+10	1	-1E+10	1	-1E+10	1
4902551	32	C	06/27/2021	00:04	-134.966	49.411	0	226.20	0	5.3150	0	33.8230	0	26.708	0	224.150	0	99.5	4	32.3	4	-1E+10	1	-1E+10	1	-1E+10	1	-1E+10	1	-1E+10	1	-1E+10	1
4902551	32	C	06/27/2021	00:04	-134.966	49.411	0	227.10	0	5.3110	0	33.8240	0	26.709	0	225.041	0	99.2	4	32.2	4	-1E+10	1	-1E+10	1	-1E+10	1	-1E+10	1	-1E+10	1	-1E+10	1
4902551	32	C	06/27/2021	00:04	-134.966	49.411	0	228.10	0	5.3040	0	33.8250	0	26.711	0	226.032	0	98.8	4	32.1	4	-1E+10	1	-1E+10	1	-1E+10	1	-1E+10	1	-1E+10	1	-1E+10	1
4902551	32	C	06/27/2021	00:04	-134.966	49.411	0	229.10	0	5.3000	0	33.8250	0	26.711	0	227.022	0	98.4	4	32.0	4	-1E+10	1	-1E+10	1	-1E+10	1	-1E+10	1	-1E+10	1	-1E+10	1
4902551	32	C	06/27/2021	00:04	-134.966	49.411	0	230.00	0	5.2950	0	33.8250	0	26.712	0	227.914	0	98.1	4	31.8	4	-1E+10	1	-1E+10	1	-1E+10	1	-1E+10	1	-1E+10	1	-1E+10	1
4902551	32	C	06/27/2021	00:04	-134.966	49.411	0	231.00	0	5.2860	0	33.8270	0	26.715	0	228.904	0	97.6	4	31.7	4	-1E+10	1	-1E+10	1	-1E+10	1	-1E+10	1	-1E+10	1	-1E+10	1
4902551	32	C	06/27/2021	00:04	-134.966	49.411	0	232.00	0	5.2830	0	33.8270	0	26.715	0	229.894	0	97.3	4	31.6	4	-1E+10	1	-1E+10	1	-1E+10	1	-1E+10	1	-1E+10	1	-1E+10	1
4902551	32	C	06/27/2021	00:04	-134.966	49.411	0	232.90	0	5.2800	0	33.8290	0	26.717	0	230.786	0	97.0	4	31.5	4	-1E+10	1	-1E+10	1	-1E+10	1	-1E+10	1	-1E+10	1	-1E+10	1
4902551	32	C	06/27/2021	00:04	-134.966	49.411	0	233.90	0	5.2630	0	33.8320	0	26.721	0	231.776	0	96.7	4	31.4	4	-1E+10	1	-1E+10	1	-1E+10	1	-1E+10	1	-1E+10	1	-1E+10	1
4902551	32	C	06/27/2021	00:04	-134.966	49.411	0	234.90	0	5.2460	0	33.8340	0	26.725	0	232.766	0	96.5	4	31.3	4	-1E+10	1	-1E+10	1	-1E+10	1	-1E+10	1	-1E+10	1	-1E+10	1
4902551	32	C	06/27/2021	00:04	-134.966	49.411	0	235.90	0	5.2490	0	33.8300	0	26.721	0	233.757	0	96.1	4	31.2	4	-1E+10	1	-1E+10	1	-1E+10	1	-1E+10	1	-1E+10	1	-1E+10	1
4902551	32	C	06/27/2021	00:04	-134.966	49.411	0	236.90	0	5.2470	0	33.8310	0	26.722	0	234.747	0	95.8	4	31.1	4	-1E+10	1	-1E+10	1	-1E+10	1	-1E+10	1	-1E+10	1	-1E+10	1
4902551	32	C	06/27/2021	00:04	-134.966	49.411	0	237.80	0	5.2360	0	33.8310	0	26.724	0	235.638	0	95.4	4	30.9	4	-1E+10	1	-1E+10	1	-1E+10	1	-1E+10	1	-1E+10	1	-1E+10	1
4902551	32	C	06/27/2021	00:04	-134.966	49.411	0	238.90	0	5.2020	0	33.8330	0	26.729	0	236.728	0	95.1	4	30.8	4	-1E+10	1	-1E+10	1	-1E+10	1	-1E+10	1	-1E+10	1	-1E+10	1
4902551	32	C	06/27/2021	00:04	-134.966	49.411	0	239.90	0	5.1960	0	33.8310	0	26.728	0	237.718	0	94.7	4	30.7	4	-1E+10	1	-1E+10	1	-1E+10	1	-1E+10	1	-1E+10	1	-1E+10	1
4902551	32	C	06/27/2021	00:04	-134.966	49.411	0	240.90	0	5.1930	0	33.8320	0	26.729	0	238.708	0	94.3	4	30.6	4	-1E+10	1	-1E+10	1	-1E+10	1	-1E+10	1	-1E+10	1	-1E+10	1
4902551	32	C	06/27/2021	00:04	-134.966	49.411	0	242.00	0	5.1910	0	33.8330	0	26.730	0	239.798	0	93.8	4	30.4	4	-1E+10	1	-1E+10	1	-1E+10	1	-1E+10	1	-1E+10	1	-1E+10	1
4902551	32	C	06/27/2021	00:04	-134.966	49.411	0	243.00	0	5.1860	0	33.8300	0	26.729	0	240.788	0	93.3	4	30.2	4	-1E+10	1	-1E+10	1	-1E+10	1	-1E+10	1	-1E+10	1	-1E+10	1
4902551	32	C	06/27/2021	00:04	-134.966	49.411	0	244.00	0	5.1720	0	33.8330	0	26.733	0	241.778	0	92.6	4	30.0	4	-1E+10	1	-1E+10	1	-1E+10	1	-1E+10	1	-1E+10	1	-1E+10	1
4902551	32	C	06/27/2021	00:04	-134.966	49.411	0	245.00	0	5.1560	0	33.8320	0	26.734	0	242.769	0	92.1	4	29.8	4	-1E+10	1	-1E+10	1	-1E+10	1	-1E+10	1	-1E+10	1	-1E+10	1
4902551	32	C	06/27/2021	00:04	-134.966	49.411	0	246.10	0	5.1450	0	33.8330	0	26.736	0	243.858	0	91.5	4	29.6	4	-1E+10	1	-1E+10	1	-1E+10	1	-1E+10	1	-1E+10	1	-1E+10	1
4902551	32	C	06/27/2021	00:04	-134.966	49.411	0	247.10	0	5.1370	0	33.8350	0	26.738	0	244.848	0	91.0	4	29.4	4	-1E+10	1	-1E+10	1	-1E+10	1	-1E+10	1	-1E+10	1	-1E+10	1
4902551	32	C	06/27/2021	00:04	-134.966	49.411	0	248.20	0	5.1220	0	33.8380	0	26.742	0	245.938	0	90.6	4	29.3	4	-1E+10	1	-1E+10	1	-1E+10	1	-1E+10	1	-1E+10	1	-1E+10	1
4902551	32	C	06/27/2021	00:04	-134.966	49.411	0	249.20	0	5.1140	0	33.8380	0	26.743	0	246.928	0	90.2	4	29.2	4	-1E+10	1	-1E+10	1	-1E+10	1	-1E+10	1	-1E+10	1	-1E+10	1
4902551	32	C	06/27/2021	00:04	-134.966	49.411	0	250.30	0	5.1110	0	33.8390	0	26.744	0	248.017	0	89.8	4	29.0	4	-1E+10	1	-1E+10	1	-1E+10	1	-1E+10	1	-1E+10	1	-1E+10	1
4902551	32	C	06/27/2021	00:04	-134.966	49.411	0	251.30	0	5.0970	0	33.8390	0	26.746	0	249.008	0	89.5	4	28.9	4	-1E+10	1	-1E+10	1	-1E+10	1	-1E+10	1	-1E+10	1	-1E+10	1
4902551	32	C	06/27/2021	00:04	-134.966	49.411	0	252.40	0	5.0860	0	33.8410	0	26.749	0	250.097	0	89.3	4	28.8	4	-1E+10	1	-1E+10	1	-1E+10	1	-1E+10	1	-1E+10	1	-1E+10	1
4902551	32	C	06/27/2021	00:04	-134.966	49.411	0	253.50	0	5.0770	0	33.8420	0	26.751	0	251.186	0	88.9	4	28.7	4	-1E+10	1	-1E+10	1	-1E+10	1	-1E+10	1	-1E+10	1	-1E+10	1
4902551	32	C	06/27/2021	00:04	-134.966	49.411	0	254.60	0	5.0710	0	33.8420	0	26.751	0	252.275	0	88.6	4	28.6	4	-1E+10	1	-1E+10	1	-1E+10	1	-1E+10	1	-1E+10	1	-1E+10	1
4902551	32	C	06/27/2021	00:04	-134.966	49.411	0	255.70	0	5.0640	0	33.8410	0	26.751	0	253.365	0	88.2	4	28.5	4	-1E+10	1	-1E+10	1	-1E+10	1	-1E+10	1	-1E+10	1	-1E+10	1
4902551	32	C	06/27/2021	00:04	-134.966	49.411	0	256.70	0	5.0580	0	33.8420	0	26.753	0	254.355	0	87.8	4	28.4	4	-1E+10	1	-1E+10	1	-1E+10	1	-1E+10	1	-1E+10	1	-1E+10	1
4902551	32	C	06/27/2021	00:04	-134.966	49.411	0	257.80	0	5.0510	0	33.8430	0	26.755	0	255.444	0	87.4	4	28.2	4	-1E+10	1	-1E+10	1	-1E+10	1	-1E+10	1	-1E+10	1	-1E+10	1
4902551	32	C	06/27/2021	00:04	-134.966	49.411	0	258.80	0	5.0420	0	33.8440	0	26.756	0	256.434	0	87.0	4	28.1	4	-1E+10	1	-1E+10	1	-1E+10	1	-1E+10	1	-1E+10	1	-1E+10	1
4902551	32	C	06/27/2021	00:04	-134.966	49.411	0	259.90	0	5.0400	0	33.8450	0	26.757	0	257.524	0	86.6	4	27.9	4	-1E+10	1	-1E+10	1	-1E+10	1	-1E+10	1	-1E+10	1	-1E+10	1
4902551	32	C	06/27/2021	00:04	-134.966	49.411	0	261.00	0	5.0380	0	33.8450	0	26.758	0	258.613	0	86.2	4	27.8	4	-1E+10	1	-1E+10	1	-1E+10	1	-1E+10	1	-1E+10	1	-1E+10	1
4902551	32	C	06/27/2021	00:04	-134.966	49.411	0	262.10	0	5.0350	0	33.8450	0	26.758	0	259.702	0	85.7	4	27.7	4	-1E+10	1	-1E+10	1	-1E+10	1	-1E+10	1	-1E+10	1	-1E+10	1
4902551	32	C	06/27/2021	00:04	-134.966	49.411	0	263.10	0	5.0310	0	33.8460	0	26.759	0	260.692	0	85.3	4	27.5	4	-1E+10	1	-1E+10	1	-1E+10	1	-1E+10	1	-1E+10	1	-1E+10	1
4902551	32	C	06/27/2021	00:04	-134.966	49.411	0	264.20	0	5.0200	0	33.8460	0	26.761	0	261.782	0	84.8	4	27.4	4	-1E+10	1	-1E+10	1	-1E+10	1	-1E+10	1	-1E+10	1	-1E+10	1
4902551	32	C	06/27/2021	00:04	-134.966	49.411	0	265.30	0	5.0000	0	33.8490	0	26.765	0	262.871	0	84.2	4	27.2	4	-1E+10	1	-1E+10	1	-1E+10	1	-1E+10	1	-1E+10	1	-1E+10	1
4902551	32	C	06/27/2021	00:04	-134.966	49.411	0	266.30	0	4.9920	0	33.8470	0	26.765	0	263.861	0	83.7	4	27.0	4	-1E+10	1	-1E+10	1	-1E+10	1	-1E+10	1	-1E+10	1	-1E+10	1
4902551	32	C	06/27/2021	00:04	-134.966	49.411	0	267.40	0	4.9880	0	33.8490	0	26.767	0	264.950	0	83.1	4	26.8	4	-1E+10	1	-1E+10	1	-1E+10	1	-1E+10	1	-1E+10	1	-1E+10	1
4902551	32	C	06/27/2021	00:04	-134.966	49.411	0	268.50	0	4.9800	0	33.8490	0	26.767	0	266.040	0	82.6	4	26.6	4	-1E+10	1	-1E+10	1	-1E+10	1	-1E+10	1	-1E+10	1	-1E+10	1
4902551	32	C	06/27/2021	00:04	-134.966	49.411	0	269.50	0	4.9740	0	33.8520	0	26.771	0	267.030	0	82.0	4	26.4	4	-1E+10	1	-1E+10	1	-1E+10	1	-1E+10	1	-1E+10	1	-1E+10	1
4902551	32	C	06/27/2021	00:04	-134.966	49.411	0	270.60	0	4.9630	0	33.8520	0	26.772	0	268.119	0	81.5	4	26.3	4	-1E+10	1	-1E+10	1	-1E+10	1	-1E+10	1	-1E+10	1	-1E+10	1
4902551	32	C	06/27/2021	00:04	-134.966	49.411	0	271.60	0	4.9520	0	33.8540	0	26.775	0	269.109	0	80.9	4	26.1	4	-1E+10	1	-1E+10	1	-1E+10	1	-1E+10	1	-1E+10	1	-1E+10	1
4902551	32	C	06/27/2021	00:04	-134.966	49.411	0	272.70	0	4.9460	0	33.8560	0	26.777	0	270.198	0	80.5	4	25.9	4	-1E+10	1	-1E+10	1	-1E+10	1	-1E+10	1	-1E+10	1	-1E+10	1
4902551	32	C	06/27/2021	00:04	-134.966	49.411	0	273.80	0	4.9400	0	33.8560	0	26.778	0	271.288	0	80.0	4	25.8	4	-1E+10	1	-1E+10	1	-1E+10	1	-1E+10	1	-1E+10	1	-1E+10	1
4902551	32	C	06/27/2021	00:04	-134.966	49.411	0	274.80	0	4.9210	0	33.8570	0	26.781	0	272.278	0	79.5	4	25.6	4	-1E+10	1	-1E+10	1	-1E+10	1	-1E+10	1	-1E+10	1	-1E+10	1
4902551	32	C	06/27/2021	00:04	-134.966	49.411	0	275.90	0	4.9140	0	33.8600	0	26.784	0	273.367	0	79.0	4	25.4	4	-1E+10	1	-1E+10	1	-1E+10	1	-1E+10	1	-1E+10	1	-1E+10	1
4902551	32	C	06/27/2021	00:04	-134.966	49.411	0	277.00	0	4.9130	0	33.8600	0	26.784	0	274.456	0	78.5	4	25.3	4	-1E+10	1	-1E+10	1	-1E+10	1	-1E+10	1	-1E+10	1	-1E+10	1
4902551	32	C	06/27/2021	00:04	-134.966	49.411	0	278.10	0	4.9150	0	33.8610	0	26.784	0	275.545	0	78.0	4	25.1	4	-1E+10	1	-1E+10	1	-1E+10	1	-1E+10	1	-1E+10	1	-1E+10	1
4902551	32	C	06/27/2021	00:04	-134.966	49.411	0	279.20	0	4.9140	0	33.8630	0	26.786	0	276.634	0	77.6	4	25.0	4	-1E+10	1	-1E+10	1	-1E+10	1	-1E+10	1	-1E+10	1	-1E+10	1
4902551	32	C	06/27/2021	00:04	-134.966	49.411	0	280.20	0	4.9100	0	33.8640	0	26.787	0	277.625	0	77.1	4	24.8	4	-1E+10	1	-1E+10	1	-1E+10	1	-1E+10	1	-1E+10	1	-1E+10	1
4902551	32	C	06/27/2021	00:04	-134.966	49.411	0	281.30	0	4.9030	0	33.8670	0	26.791	0	278.714	0	76.8	4	24.7	4	-1E+10	1	-1E+10	1	-1E+10	1	-1E+10	1	-1E+10	1	-1E+10	1
4902551	32	C	06/27/2021	00:04	-134.966	49.411	0	282.40	0	4.8800	0	33.8680	0	26.794	0	279.803	0	76.5	4	24.6	4	-1E+10	1	-1E+10	1	-1E+10	1	-1E+10	1	-1E+10	1	-1E+10	1
4902551	32	C	06/27/2021	00:04	-134.966	49.411	0	283.50	0	4.8670	0	33.8680	0	26.795	0	280.892	0	76.1	4	24.5	4	-1E+10	1	-1E+10	1	-1E+10	1	-1E+10	1	-1E+10	1	-1E+10	1
4902551	32	C	06/27/2021	00:04	-134.966	49.411	0	284.50	0	4.8540	0	33.8680	0	26.797	0	281.882	0	75.7	4	24.3	4	-1E+10	1	-1E+10	1	-1E+10	1	-1E+10	1	-1E+10	1	-1E+10	1
4902551	32	C	06/27/2021	00:04	-134.966	49.411	0	285.60	0	4.8490	0	33.8690	0	26.798	0	282.971	0	75.3	4	24.2	4	-1E+10	1	-1E+10	1	-1E+10	1	-1E+10	1	-1E+10	1	-1E+10	1
4902551	32	C	06/27/2021	00:04	-134.966	49.411	0	286.70	0	4.8470	0	33.8700	0	26.799	0	284.060	0	74.8	4	24.1	4	-1E+10	1	-1E+10	1	-1E+10	1	-1E+10	1	-1E+10	1	-1E+10	1
4902551	32	C	06/27/2021	00:04	-134.966	49.411	0	287.80	0	4.8440	0	33.8710	0	26.800	0	285.149	0	74.4	4	23.9	4	-1E+10	1	-1E+10	1	-1E+10	1	-1E+10	1	-1E+10	1	-1E+10	1
4902551	32	C	06/27/2021	00:04	-134.966	49.411	0	288.80	0	4.8430	0	33.8710	0	26.800	0	286.140	0	74.0	4	23.8	4	-1E+10	1	-1E+10	1	-1E+10	1	-1E+10	1	-1E+10	1	-1E+10	1
4902551	32	C	06/27/2021	00:04	-134.966	49.411	0	289.90	0	4.8420	0	33.8720	0	26.801	0	287.229	0	73.5	4	23.6	4	-1E+10	1	-1E+10	1	-1E+10	1	-1E+10	1	-1E+10	1	-1E+10	1
4902551	32	C	06/27/2021	00:04	-134.966	49.411	0	291.00	0	4.8420	0	33.8720	0	26.801	0	288.318	0	73.0	4	23.5	4	-1E+10	1	-1E+10	1	-1E+10	1	-1E+10	1	-1E+10	1	-1E+10	1
4902551	32	C	06/27/2021	00:04	-134.966	49.411	0	292.10	0	4.8410	0	33.8730	0	26.802	0	289.407	0	72.5	4	23.3	4	-1E+10	1	-1E+10	1	-1E+10	1	-1E+10	1	-1E+10	1	-1E+10	1
4902551	32	C	06/27/2021	00:04	-134.966	49.411	0	293.20	0	4.8360	0	33.8750	0	26.804	0	290.496	0	72.0	4	23.1	4	-1E+10	1	-1E+10	1	-1E+10	1	-1E+10	1	-1E+10	1	-1E+10	1
4902551	32	C	06/27/2021	00:04	-134.966	49.411	0	294.30	0	4.8290	0	33.8770	0	26.807	0	291.585	0	71.5	4	23.0	4	-1E+10	1	-1E+10	1	-1E+10	1	-1E+10	1	-1E+10	1	-1E+10	1
4902551	32	C	06/27/2021	00:04	-134.966	49.411	0	295.40	0	4.8270	0	33.8780	0	26.808	0	292.674	0	71.0	4	22.8	4	-1E+10	1	-1E+10	1	-1E+10	1	-1E+10	1	-1E+10	1	-1E+10	1
4902551	32	C	06/27/2021	00:04	-134.966	49.411	0	296.40	0	4.8220	0	33.8790	0	26.809	0	293.664	0	70.6	4	22.7	4	-1E+10	1	-1E+10	1	-1E+10	1	-1E+10	1	-1E+10	1	-1E+10	1
4902551	32	C	06/27/2021	00:04	-134.966	49.411	0	297.50	0	4.8120	0	33.8820	0	26.813	0	294.753	0	70.2	4	22.5	4	-1E+10	1	-1E+10	1	-1E+10	1	-1E+10	1	-1E+10	1	-1E+10	1
4902551	32	C	06/27/2021	00:04	-134.966	49.411	0	298.60	0	4.8070	0	33.8830	0	26.814	0	295.842	0	69.8	4	22.4	4	-1E+10	1	-1E+10	1	-1E+10	1	-1E+10	1	-1E+10	1	-1E+10	1
4902551	32	C	06/27/2021	00:04	-134.966	49.411	0	299.80	0	4.8020	0	33.8840	0	26.815	0	297.030	0	69.4	4	22.3	4	-1E+10	1	-1E+10	1	-1E+10	1	-1E+10	1	-1E+10	1	-1E+10	1
4902551	32	C	06/27/2021	00:04	-134.966	49.411	0	300.90	0	4.7880	0	33.8870	0	26.819	0	298.119	0	69.1	4	22.2	4	-1E+10	1	-1E+10	1	-1E+10	1	-1E+10	1	-1E+10	1	-1E+10	1
4902551	32	C	06/27/2021	00:04	-134.966	49.411	0	302.00	0	4.7860	0	33.8870	0	26.820	0	299.208	0	69.0	4	22.1	4	-1E+10	1	-1E+10	1	-1E+10	1	-1E+10	1	-1E+10	1	-1E+10	1
4902551	32	C	06/27/2021	00:04	-134.966	49.411	0	303.10	0	4.7850	0	33.8880	0	26.821	0	300.297	0	68.7	4	22.1	4	-1E+10	1	-1E+10	1	-1E+10	1	-1E+10	1	-1E+10	1	-1E+10	1
4902551	32	C	06/27/2021	00:04	-134.966	49.411	0	304.20	0	4.7780	0	33.8890	0	26.822	0	301.386	0	68.5	4	22.0	4	-1E+10	1	-1E+10	1	-1E+10	1	-1E+10	1	-1E+10	1	-1E+10	1
4902551	32	C	06/27/2021	00:04	-134.966	49.411	0	305.40	0	4.7730	0	33.8900	0	26.823	0	302.574	0	68.3	4	21.9	4	-1E+10	1	-1E+10	1	-1E+10	1	-1E+10	1	-1E+10	1	-1E+10	1
4902551	32	C	06/27/2021	00:04	-134.966	49.411	0	306.50	0	4.7700	0	33.8910	0	26.825	0	303.663	0	68.1	4	21.9	4	-1E+10	1	-1E+10	1	-1E+10	1	-1E+10	1	-1E+10	1	-1E+10	1
4902551	32	C	06/27/2021	00:04	-134.966	49.411	0	307.60	0	4.7620	0	33.8920	0	26.826	0	304.753	0	68.0	4	21.8	4	-1E+10	1	-1E+10	1	-1E+10	1	-1E+10	1	-1E+10	1	-1E+10	1
4902551	32	C	06/27/2021	00:04	-134.966	49.411	0	308.70	0	4.7540	0	33.8930	0	26.828	0	305.842	0	67.9	4	21.8	4	-1E+10	1	-1E+10	1	-1E+10	1	-1E+10	1	-1E+10	1	-1E+10	1
4902551	32	C	06/27/2021	00:04	-134.966	49.411	0	309.80	0	4.7530	0	33.8930	0	26.828	0	306.930	0	67.7	4	21.7	4	-1E+10	1	-1E+10	1	-1E+10	1	-1E+10	1	-1E+10	1	-1E+10	1
4902551	32	C	06/27/2021	00:04	-134.966	49.411	0	310.90	0	4.7520	0	33.8930	0	26.828	0	308.019	0	67.6	4	21.7	4	-1E+10	1	-1E+10	1	-1E+10	1	-1E+10	1	-1E+10	1	-1E+10	1
4902551	32	C	06/27/2021	00:04	-134.966	49.411	0	312.10	0	4.7520	0	33.8930	0	26.828	0	309.207	0	67.4	4	21.6	4	-1E+10	1	-1E+10	1	-1E+10	1	-1E+10	1	-1E+10	1	-1E+10	1
4902551	32	C	06/27/2021	00:04	-134.966	49.411	0	313.20	0	4.7510	0	33.8930	0	26.828	0	310.296	0	67.1	4	21.5	4	-1E+10	1	-1E+10	1	-1E+10	1	-1E+10	1	-1E+10	1	-1E+10	1
4902551	32	C	06/27/2021	00:04	-134.966	49.411	0	314.30	0	4.7500	0	33.8940	0	26.829	0	311.385	0	66.9	4	21.5	4	-1E+10	1	-1E+10	1	-1E+10	1	-1E+10	1	-1E+10	1	-1E+10	1
4902551	32	C	06/27/2021	00:04	-134.966	49.411	0	315.40	0	4.7490	0	33.8940	0	26.829	0	312.474	0	66.7	4	21.4	4	-1E+10	1	-1E+10	1	-1E+10	1	-1E+10	1	-1E+10	1	-1E+10	1
4902551	32	C	06/27/2021	00:04	-134.966	49.411	0	316.50	0	4.7480	0	33.8930	0	26.829	0	313.563	0	66.4	4	21.3	4	-1E+10	1	-1E+10	1	-1E+10	1	-1E+10	1	-1E+10	1	-1E+10	1
4902551	32	C	06/27/2021	00:04	-134.966	49.411	0	317.50	0	4.7450	0	33.8940	0	26.830	0	314.553	0	66.1	4	21.2	4	-1E+10	1	-1E+10	1	-1E+10	1	-1E+10	1	-1E+10	1	-1E+10	1
4902551	32	C	06/27/2021	00:04	-134.966	49.411	0	318.60	0	4.7320	0	33.8970	0	26.834	0	315.642	0	65.8	4	21.1	4	-1E+10	1	-1E+10	1	-1E+10	1	-1E+10	1	-1E+10	1	-1E+10	1
4902551	32	C	06/27/2021	00:04	-134.966	49.411	0	319.70	0	4.7220	0	33.8980	0	26.836	0	316.731	0	65.6	4	21.0	4	-1E+10	1	-1E+10	1	-1E+10	1	-1E+10	1	-1E+10	1	-1E+10	1
4902551	32	C	06/27/2021	00:04	-134.966	49.411	0	320.80	0	4.7200	0	33.8990	0	26.837	0	317.820	0	65.4	4	21.0	4	-1E+10	1	-1E+10	1	-1E+10	1	-1E+10	1	-1E+10	1	-1E+10	1
4902551	32	C	06/27/2021	00:04	-134.966	49.411	0	321.90	0	4.7170	0	33.8990	0	26.837	0	318.909	0	65.1	4	20.9	4	-1E+10	1	-1E+10	1	-1E+10	1	-1E+10	1	-1E+10	1	-1E+10	1
4902551	32	C	06/27/2021	00:04	-134.966	49.411	0	323.00	0	4.7170	0	33.8990	0	26.837	0	319.998	0	64.9	4	20.8	4	-1E+10	1	-1E+10	1	-1E+10	1	-1E+10	1	-1E+10	1	-1E+10	1
4902551	32	C	06/27/2021	00:04	-134.966	49.411	0	324.10	0	4.7160	0	33.8990	0	26.837	0	321.087	0	64.7	4	20.7	4	-1E+10	1	-1E+10	1	-1E+10	1	-1E+10	1	-1E+10	1	-1E+10	1
4902551	32	C	06/27/2021	00:04	-134.966	49.411	0	325.20	0	4.7050	0	33.9000	0	26.839	0	322.176	0	64.4	4	20.6	4	-1E+10	1	-1E+10	1	-1E+10	1	-1E+10	1	-1E+10	1	-1E+10	1
4902551	32	C	06/27/2021	00:04	-134.966	49.411	0	326.30	0	4.7050	0	33.9000	0	26.839	0	323.265	0	64.1	4	20.6	4	-1E+10	1	-1E+10	1	-1E+10	1	-1E+10	1	-1E+10	1	-1E+10	1
4902551	32	C	06/27/2021	00:04	-134.966	49.411	0	327.40	0	4.6990	0	33.9010	0	26.841	0	324.354	0	63.9	4	20.5	4	-1E+10	1	-1E+10	1	-1E+10	1	-1E+10	1	-1E+10	1	-1E+10	1
4902551	32	C	06/27/2021	00:04	-134.966	49.411	0	328.50	0	4.6950	0	33.9020	0	26.842	0	325.443	0	63.6	4	20.4	4	-1E+10	1	-1E+10	1	-1E+10	1	-1E+10	1	-1E+10	1	-1E+10	1
4902551	32	C	06/27/2021	00:04	-134.966	49.411	0	329.60	0	4.6940	0	33.9040	0	26.843	0	326.532	0	63.3	4	20.3	4	-1E+10	1	-1E+10	1	-1E+10	1	-1E+10	1	-1E+10	1	-1E+10	1
4902551	32	C	06/27/2021	00:04	-134.966	49.411	0	330.70	0	4.6910	0	33.9040	0	26.844	0	327.620	0	63.0	4	20.2	4	-1E+10	1	-1E+10	1	-1E+10	1	-1E+10	1	-1E+10	1	-1E+10	1
4902551	32	C	06/27/2021	00:04	-134.966	49.411	0	331.80	0	4.6880	0	33.9050	0	26.845	0	328.709	0	62.7	4	20.1	4	-1E+10	1	-1E+10	1	-1E+10	1	-1E+10	1	-1E+10	1	-1E+10	1
4902551	32	C	06/27/2021	00:04	-134.966	49.411	0	332.90	0	4.6840	0	33.9060	0	26.846	0	329.798	0	62.5	4	20.0	4	-1E+10	1	-1E+10	1	-1E+10	1	-1E+10	1	-1E+10	1	-1E+10	1
4902551	32	C	06/27/2021	00:04	-134.966	49.411	0	334.00	0	4.6810	0	33.9070	0	26.847	0	330.887	0	62.2	4	19.9	4	-1E+10	1	-1E+10	1	-1E+10	1	-1E+10	1	-1E+10	1	-1E+10	1
4902551	32	C	06/27/2021	00:04	-134.966	49.411	0	335.10	0	4.6750	0	33.9080	0	26.849	0	331.976	0	62.0	4	19.8	4	-1E+10	1	-1E+10	1	-1E+10	1	-1E+10	1	-1E+10	1	-1E+10	1
4902551	32	C	06/27/2021	00:04	-134.966	49.411	0	336.10	0	4.6740	0	33.9080	0	26.849	0	332.966	0	61.7	4	19.8	4	-1E+10	1	-1E+10	1	-1E+10	1	-1E+10	1	-1E+10	1	-1E+10	1
4902551	32	C	06/27/2021	00:04	-134.966	49.411	0	337.20	0	4.6720	0	33.9090	0	26.850	0	334.055	0	61.5	4	19.7	4	-1E+10	1	-1E+10	1	-1E+10	1	-1E+10	1	-1E+10	1	-1E+10	1
4902551	32	C	06/27/2021	00:04	-134.966	49.411	0	338.30	0	4.6690	0	33.9100	0	26.851	0	335.143	0	61.2	4	19.6	4	-1E+10	1	-1E+10	1	-1E+10	1	-1E+10	1	-1E+10	1	-1E+10	1
4902551	32	C	06/27/2021	00:04	-134.966	49.411	0	339.30	0	4.6670	0	33.9100	0	26.851	0	336.133	0	60.9	4	19.5	4	-1E+10	1	-1E+10	1	-1E+10	1	-1E+10	1	-1E+10	1	-1E+10	1
4902551	32	C	06/27/2021	00:04	-134.966	49.411	0	340.40	0	4.6670	0	33.9100	0	26.851	0	337.222	0	60.6	4	19.4	4	-1E+10	1	-1E+10	1	-1E+10	1	-1E+10	1	-1E+10	1	-1E+10	1
4902551	32	C	06/27/2021	00:04	-134.966	49.411	0	341.50	0	4.6660	0	33.9100	0	26.851	0	338.311	0	60.2	4	19.3	4	-1E+10	1	-1E+10	1	-1E+10	1	-1E+10	1	-1E+10	1	-1E+10	1
4902551	32	C	06/27/2021	00:04	-134.966	49.411	0	342.50	0	4.6650	0	33.9100	0	26.852	0	339.301	0	59.8	4	19.1	4	-1E+10	1	-1E+10	1	-1E+10	1	-1E+10	1	-1E+10	1	-1E+10	1
4902551	32	C	06/27/2021	00:04	-134.966	49.411	0	343.90	0	4.6590	0	33.9120	0	26.854	0	340.687	0	59.1	4	18.9	4	-1E+10	1	-1E+10	1	-1E+10	1	-1E+10	1	-1E+10	1	-1E+10	1
4902551	32	C	06/27/2021	00:04	-134.966	49.411	0	345.90	0	4.6380	0	33.9160	0	26.859	0	342.666	0	58.3	4	18.7	4	-1E+10	1	-1E+10	1	-1E+10	1	-1E+10	1	-1E+10	1	-1E+10	1
4902551	32	C	06/27/2021	00:04	-134.966	49.411	0	347.10	0	4.6340	0	33.9170	0	26.861	0	343.854	0	57.8	4	18.5	4	-1E+10	1	-1E+10	1	-1E+10	1	-1E+10	1	-1E+10	1	-1E+10	1
4902551	32	C	06/27/2021	00:04	-134.966	49.411	0	347.90	0	4.6260	0	33.9190	0	26.863	0	344.646	0	57.4	4	18.4	4	-1E+10	1	-1E+10	1	-1E+10	1	-1E+10	1	-1E+10	1	-1E+10	1
4902551	32	C	06/27/2021	00:04	-134.966	49.411	0	348.70	0	4.6190	0	33.9210	0	26.865	0	345.438	0	57.1	4	18.3	4	-1E+10	1	-1E+10	1	-1E+10	1	-1E+10	1	-1E+10	1	-1E+10	1
4902551	32	C	06/27/2021	00:04	-134.966	49.411	0	349.90	0	4.6150	0	33.9220	0	26.867	0	346.626	0	56.6	4	18.1	4	-1E+10	1	-1E+10	1	-1E+10	1	-1E+10	1	-1E+10	1	-1E+10	1
4902551	32	C	06/27/2021	00:04	-134.966	49.411	0	353.00	0	4.5950	0	33.9280	0	26.874	0	349.694	0	55.5	4	17.7	4	-1E+10	1	-1E+10	1	-1E+10	1	-1E+10	1	-1E+10	1	-1E+10	1
4902551	32	C	06/27/2021	00:04	-134.966	49.411	0	357.80	0	4.5730	0	33.9360	0	26.882	0	354.445	0	54.0	4	17.2	4	-1E+10	1	-1E+10	1	-1E+10	1	-1E+10	1	-1E+10	1	-1E+10	1
4902551	32	C	06/27/2021	00:04	-134.966	49.411	0	362.60	0	4.5450	0	33.9440	0	26.892	0	359.196	0	52.9	4	16.9	4	-1E+10	1	-1E+10	1	-1E+10	1	-1E+10	1	-1E+10	1	-1E+10	1
4902551	32	C	06/27/2021	00:04	-134.966	49.411	0	367.50	0	4.5320	0	33.9480	0	26.896	0	364.045	0	52.4	4	16.7	4	-1E+10	1	-1E+10	1	-1E+10	1	-1E+10	1	-1E+10	1	-1E+10	1
4902551	32	C	06/27/2021	00:04	-134.966	49.411	0	372.60	0	4.5180	0	33.9530	0	26.902	0	369.093	0	51.8	4	16.5	4	-1E+10	1	-1E+10	1	-1E+10	1	-1E+10	1	-1E+10	1	-1E+10	1
4902551	32	C	06/27/2021	00:04	-134.966	49.411	0	377.70	0	4.5000	0	33.9580	0	26.908	0	374.140	0	51.2	4	16.3	4	-1E+10	1	-1E+10	1	-1E+10	1	-1E+10	1	-1E+10	1	-1E+10	1
4902551	32	C	06/27/2021	00:04	-134.966	49.411	0	383.00	0	4.4770	0	33.9640	0	26.915	0	379.386	0	50.6	4	16.1	4	-1E+10	1	-1E+10	1	-1E+10	1	-1E+10	1	-1E+10	1	-1E+10	1
4902551	32	C	06/27/2021	00:04	-134.966	49.411	0	388.00	0	4.4560	0	33.9700	0	26.922	0	384.334	0	50.2	4	16.0	4	-1E+10	1	-1E+10	1	-1E+10	1	-1E+10	1	-1E+10	1	-1E+10	1
4902551	32	C	06/27/2021	00:04	-134.966	49.411	0	392.90	0	4.4470	0	33.9720	0	26.925	0	389.183	0	49.5	4	15.8	4	-1E+10	1	-1E+10	1	-1E+10	1	-1E+10	1	-1E+10	1	-1E+10	1
4902551	32	C	06/27/2021	00:04	-134.966	49.411	0	398.10	0	4.4240	0	33.9780	0	26.932	0	394.329	0	48.7	4	15.5	4	-1E+10	1	-1E+10	1	-1E+10	1	-1E+10	1	-1E+10	1	-1E+10	1
4902551	32	C	06/27/2021	00:04	-134.966	49.411	0	402.80	0	4.4050	0	33.9840	0	26.939	0	398.980	0	47.7	4	15.2	4	-1E+10	1	-1E+10	1	-1E+10	1	-1E+10	1	-1E+10	1	-1E+10	1
4902551	32	C	06/27/2021	00:04	-134.966	49.411	0	407.70	0	4.3800	0	33.9920	0	26.948	0	403.828	0	47.2	4	15.0	4	-1E+10	1	-1E+10	1	-1E+10	1	-1E+10	1	-1E+10	1	-1E+10	1
4902551	32	C	06/27/2021	00:04	-134.966	49.411	0	412.80	0	4.3680	0	33.9950	0	26.952	0	408.875	0	46.8	4	14.9	4	-1E+10	1	-1E+10	1	-1E+10	1	-1E+10	1	-1E+10	1	-1E+10	1
4902551	32	C	06/27/2021	00:04	-134.966	49.411	0	417.80	0	4.3550	0	33.9990	0	26.956	0	413.822	0	46.3	4	14.7	4	-1E+10	1	-1E+10	1	-1E+10	1	-1E+10	1	-1E+10	1	-1E+10	1
4902551	32	C	06/27/2021	00:04	-134.966	49.411	0	422.90	0	4.3470	0	34.0020	0	26.959	0	418.869	0	45.6	4	14.5	4	-1E+10	1	-1E+10	1	-1E+10	1	-1E+10	1	-1E+10	1	-1E+10	1
4902551	32	C	06/27/2021	00:04	-134.966	49.411	0	428.00	0	4.3280	0	34.0070	0	26.965	0	423.915	0	44.9	4	14.3	4	-1E+10	1	-1E+10	1	-1E+10	1	-1E+10	1	-1E+10	1	-1E+10	1
4902551	32	C	06/27/2021	00:04	-134.966	49.411	0	433.10	0	4.3110	0	34.0120	0	26.971	0	428.961	0	44.0	4	14.0	4	-1E+10	1	-1E+10	1	-1E+10	1	-1E+10	1	-1E+10	1	-1E+10	1
4902551	32	C	06/27/2021	00:04	-134.966	49.411	0	437.90	0	4.3030	0	34.0150	0	26.975	0	433.710	0	43.3	4	13.7	4	-1E+10	1	-1E+10	1	-1E+10	1	-1E+10	1	-1E+10	1	-1E+10	1
4902551	32	C	06/27/2021	00:04	-134.966	49.411	0	442.70	0	4.2930	0	34.0190	0	26.979	0	438.459	0	42.6	4	13.5	4	-1E+10	1	-1E+10	1	-1E+10	1	-1E+10	1	-1E+10	1	-1E+10	1
4902551	32	C	06/27/2021	00:04	-134.966	49.411	0	448.00	0	4.2860	0	34.0220	0	26.982	0	443.703	0	42.0	4	13.3	4	-1E+10	1	-1E+10	1	-1E+10	1	-1E+10	1	-1E+10	1	-1E+10	1
4902551	32	C	06/27/2021	00:04	-134.966	49.411	0	453.30	0	4.2760	0	34.0250	0	26.985	0	448.946	0	41.3	4	13.1	4	-1E+10	1	-1E+10	1	-1E+10	1	-1E+10	1	-1E+10	1	-1E+10	1
4902551	32	C	06/27/2021	00:04	-134.966	49.411	0	458.30	0	4.2710	0	34.0280	0	26.988	0	453.893	0	40.6	4	12.9	4	-1E+10	1	-1E+10	1	-1E+10	1	-1E+10	1	-1E+10	1	-1E+10	1
4902551	32	C	06/27/2021	00:04	-134.966	49.411	0	462.80	0	4.2550	0	34.0330	0	26.994	0	458.344	0	39.7	4	12.6	4	-1E+10	1	-1E+10	1	-1E+10	1	-1E+10	1	-1E+10	1	-1E+10	1
4902551	32	C	06/27/2021	00:04	-134.966	49.411	0	467.80	0	4.2360	0	34.0400	0	27.002	0	463.291	0	38.8	4	12.3	4	-1E+10	1	-1E+10	1	-1E+10	1	-1E+10	1	-1E+10	1	-1E+10	1
4902551	32	C	06/27/2021	00:04	-134.966	49.411	0	472.90	0	4.2170	0	34.0470	0	27.009	0	468.336	0	37.9	4	12.0	4	-1E+10	1	-1E+10	1	-1E+10	1	-1E+10	1	-1E+10	1	-1E+10	1
4902551	32	C	06/27/2021	00:04	-134.966	49.411	0	478.10	0	4.1950	0	34.0540	0	27.017	0	473.480	0	37.1	4	11.8	4	-1E+10	1	-1E+10	1	-1E+10	1	-1E+10	1	-1E+10	1	-1E+10	1
4902551	32	C	06/27/2021	00:04	-134.966	49.411	0	483.00	0	4.1900	0	34.0560	0	27.019	0	478.327	0	36.2	4	11.5	4	-1E+10	1	-1E+10	1	-1E+10	1	-1E+10	1	-1E+10	1	-1E+10	1
4902551	32	C	06/27/2021	00:04	-134.966	49.411	0	487.80	0	4.1800	0	34.0590	0	27.023	0	483.075	0	35.2	4	11.1	4	-1E+10	1	-1E+10	1	-1E+10	1	-1E+10	1	-1E+10	1	-1E+10	1
4902551	32	C	06/27/2021	00:04	-134.966	49.411	0	492.80	0	4.1620	0	34.0650	0	27.029	0	488.020	0	34.3	4	10.9	4	-1E+10	1	-1E+10	1	-1E+10	1	-1E+10	1	-1E+10	1	-1E+10	1
4902551	32	C	06/27/2021	00:04	-134.966	49.411	0	497.80	0	4.1480	0	34.0700	0	27.035	0	492.966	0	33.6	4	10.6	4	-1E+10	1	-1E+10	1	-1E+10	1	-1E+10	1	-1E+10	1	-1E+10	1
4902551	32	C	06/27/2021	00:04	-134.966	49.411	0	502.80	0	4.1380	0	34.0740	0	27.039	0	497.911	0	32.9	4	10.4	4	-1E+10	1	-1E+10	1	-1E+10	1	-1E+10	1	-1E+10	1	-1E+10	1
4902551	32	C	06/27/2021	00:04	-134.966	49.411	0	508.00	0	4.1260	0	34.0780	0	27.044	0	503.054	0	32.3	4	10.2	4	-1E+10	1	-1E+10	1	-1E+10	1	-1E+10	1	-1E+10	1	-1E+10	1
4902551	32	C	06/27/2021	00:04	-134.966	49.411	0	513.30	0	4.1120	0	34.0840	0	27.050	0	508.296	0	31.6	4	10.0	4	-1E+10	1	-1E+10	1	-1E+10	1	-1E+10	1	-1E+10	1	-1E+10	1
4902551	32	C	06/27/2021	00:04	-134.966	49.411	0	518.10	0	4.1010	0	34.0870	0	27.053	0	513.044	0	31.3	4	9.9	4	-1E+10	1	-1E+10	1	-1E+10	1	-1E+10	1	-1E+10	1	-1E+10	1
4902551	32	C	06/27/2021	00:04	-134.966	49.411	0	523.10	0	4.0950	0	34.0900	0	27.056	0	517.989	0	30.8	4	9.7	4	-1E+10	1	-1E+10	1	-1E+10	1	-1E+10	1	-1E+10	1	-1E+10	1
4902551	32	C	06/27/2021	00:04	-134.966	49.411	0	528.00	0	4.0890	0	34.0920	0	27.059	0	522.835	0	30.3	4	9.6	4	-1E+10	1	-1E+10	1	-1E+10	1	-1E+10	1	-1E+10	1	-1E+10	1
4902551	32	C	06/27/2021	00:04	-134.966	49.411	0	532.80	0	4.0800	0	34.0950	0	27.062	0	527.582	0	29.9	4	9.4	4	-1E+10	1	-1E+10	1	-1E+10	1	-1E+10	1	-1E+10	1	-1E+10	1
4902551	32	C	06/27/2021	00:04	-134.966	49.411	0	537.80	0	4.0730	0	34.0980	0	27.065	0	532.526	0	29.4	4	9.3	4	-1E+10	1	-1E+10	1	-1E+10	1	-1E+10	1	-1E+10	1	-1E+10	1
4902551	32	C	06/27/2021	00:04	-134.966	49.411	0	542.80	0	4.0610	0	34.1020	0	27.070	0	537.471	0	29.0	4	9.2	4	-1E+10	1	-1E+10	1	-1E+10	1	-1E+10	1	-1E+10	1	-1E+10	1
4902551	32	C	06/27/2021	00:04	-134.966	49.411	0	547.80	0	4.0470	0	34.1060	0	27.074	0	542.415	0	28.6	4	9.1	4	-1E+10	1	-1E+10	1	-1E+10	1	-1E+10	1	-1E+10	1	-1E+10	1
4902551	32	C	06/27/2021	00:04	-134.966	49.411	0	552.80	0	4.0360	0	34.1090	0	27.078	0	547.359	0	28.2	4	8.9	4	-1E+10	1	-1E+10	1	-1E+10	1	-1E+10	1	-1E+10	1	-1E+10	1
4902551	32	C	06/27/2021	00:04	-134.966	49.411	0	557.80	0	4.0220	0	34.1130	0	27.082	0	552.304	0	27.7	4	8.8	4	-1E+10	1	-1E+10	1	-1E+10	1	-1E+10	1	-1E+10	1	-1E+10	1
4902551	32	C	06/27/2021	00:04	-134.966	49.411	0	562.90	0	4.0100	0	34.1180	0	27.088	0	557.346	0	27.4	4	8.6	4	-1E+10	1	-1E+10	1	-1E+10	1	-1E+10	1	-1E+10	1	-1E+10	1
4902551	32	C	06/27/2021	00:04	-134.966	49.411	0	567.90	0	4.0090	0	34.1180	0	27.088	0	562.290	0	26.9	4	8.5	4	-1E+10	1	-1E+10	1	-1E+10	1	-1E+10	1	-1E+10	1	-1E+10	1
4902551	32	C	06/27/2021	00:04	-134.966	49.411	0	572.90	0	3.9920	0	34.1230	0	27.094	0	567.234	0	26.4	4	8.3	4	-1E+10	1	-1E+10	1	-1E+10	1	-1E+10	1	-1E+10	1	-1E+10	1
4902551	32	C	06/27/2021	00:04	-134.966	49.411	0	577.90	0	3.9810	0	34.1280	0	27.099	0	572.178	0	25.9	4	8.2	4	-1E+10	1	-1E+10	1	-1E+10	1	-1E+10	1	-1E+10	1	-1E+10	1
4902551	32	C	06/27/2021	00:04	-134.966	49.411	0	583.00	0	3.9730	0	34.1300	0	27.101	0	577.220	0	25.2	4	8.0	4	-1E+10	1	-1E+10	1	-1E+10	1	-1E+10	1	-1E+10	1	-1E+10	1
4902551	32	C	06/27/2021	00:04	-134.966	49.411	0	588.00	0	3.9630	0	34.1350	0	27.106	0	582.164	0	24.5	4	7.7	4	-1E+10	1	-1E+10	1	-1E+10	1	-1E+10	1	-1E+10	1	-1E+10	1
4902551	32	C	06/27/2021	00:04	-134.966	49.411	0	593.00	0	3.9530	0	34.1400	0	27.111	0	587.107	0	24.1	4	7.6	4	-1E+10	1	-1E+10	1	-1E+10	1	-1E+10	1	-1E+10	1	-1E+10	1
4902551	32	C	06/27/2021	00:04	-134.966	49.411	0	598.10	0	3.9420	0	34.1440	0	27.116	0	592.149	0	23.9	4	7.5	4	-1E+10	1	-1E+10	1	-1E+10	1	-1E+10	1	-1E+10	1	-1E+10	1
4902551	32	C	06/27/2021	00:04	-134.966	49.411	0	603.20	0	3.9360	0	34.1460	0	27.118	0	597.191	0	23.6	4	7.4	4	-1E+10	1	-1E+10	1	-1E+10	1	-1E+10	1	-1E+10	1	-1E+10	1
4902551	32	C	06/27/2021	00:04	-134.966	49.411	0	608.20	0	3.9270	0	34.1480	0	27.120	0	602.134	0	23.3	4	7.4	4	-1E+10	1	-1E+10	1	-1E+10	1	-1E+10	1	-1E+10	1	-1E+10	1
4902551	32	C	06/27/2021	00:04	-134.966	49.411	0	613.00	0	3.9170	0	34.1510	0	27.124	0	606.879	0	23.0	4	7.2	4	-1E+10	1	-1E+10	1	-1E+10	1	-1E+10	1	-1E+10	1	-1E+10	1
4902551	32	C	06/27/2021	00:04	-134.966	49.411	0	617.90	0	3.9080	0	34.1530	0	27.126	0	611.723	0	22.6	4	7.1	4	-1E+10	1	-1E+10	1	-1E+10	1	-1E+10	1	-1E+10	1	-1E+10	1
4902551	32	C	06/27/2021	00:04	-134.966	49.411	0	622.80	0	3.8940	0	34.1580	0	27.132	0	616.567	0	22.2	4	7.0	4	-1E+10	1	-1E+10	1	-1E+10	1	-1E+10	1	-1E+10	1	-1E+10	1
4902551	32	C	06/27/2021	00:04	-134.966	49.411	0	628.00	0	3.8850	0	34.1610	0	27.135	0	621.707	0	21.8	4	6.8	4	-1E+10	1	-1E+10	1	-1E+10	1	-1E+10	1	-1E+10	1	-1E+10	1
4902551	32	C	06/27/2021	00:04	-134.966	49.411	0	633.20	0	3.8710	0	34.1660	0	27.141	0	626.847	0	21.3	4	6.7	4	-1E+10	1	-1E+10	1	-1E+10	1	-1E+10	1	-1E+10	1	-1E+10	1
4902551	32	C	06/27/2021	00:04	-134.966	49.411	0	637.90	0	3.8600	0	34.1700	0	27.145	0	631.493	0	20.8	4	6.5	4	-1E+10	1	-1E+10	1	-1E+10	1	-1E+10	1	-1E+10	1	-1E+10	1
4902551	32	C	06/27/2021	00:04	-134.966	49.411	0	642.60	0	3.8460	0	34.1750	0	27.150	0	636.138	0	20.2	4	6.4	4	-1E+10	1	-1E+10	1	-1E+10	1	-1E+10	1	-1E+10	1	-1E+10	1
4902551	32	C	06/27/2021	00:04	-134.966	49.411	0	647.80	0	3.8310	0	34.1800	0	27.156	0	641.278	0	19.5	4	6.1	4	-1E+10	1	-1E+10	1	-1E+10	1	-1E+10	1	-1E+10	1	-1E+10	1
4902551	32	C	06/27/2021	00:04	-134.966	49.411	0	652.90	0	3.8090	0	34.1900	0	27.166	0	646.319	0	19.0	4	6.0	4	-1E+10	1	-1E+10	1	-1E+10	1	-1E+10	1	-1E+10	1	-1E+10	1
4902551	32	C	06/27/2021	00:04	-134.966	49.411	0	657.80	0	3.8000	0	34.1950	0	27.171	0	651.162	0	18.5	4	5.8	4	-1E+10	1	-1E+10	1	-1E+10	1	-1E+10	1	-1E+10	1	-1E+10	1
4902551	32	C	06/27/2021	00:04	-134.966	49.411	0	662.50	0	3.7910	0	34.1990	0	27.175	0	655.807	0	18.2	4	5.7	4	-1E+10	1	-1E+10	1	-1E+10	1	-1E+10	1	-1E+10	1	-1E+10	1
4902551	32	C	06/27/2021	00:04	-134.966	49.411	0	667.90	0	3.7670	0	34.2050	0	27.182	0	661.144	0	17.7	4	5.6	4	-1E+10	1	-1E+10	1	-1E+10	1	-1E+10	1	-1E+10	1	-1E+10	1
4902551	32	C	06/27/2021	00:04	-134.966	49.411	0	673.30	0	3.7450	0	34.2130	0	27.191	0	666.481	0	17.5	4	5.5	4	-1E+10	1	-1E+10	1	-1E+10	1	-1E+10	1	-1E+10	1	-1E+10	1
4902551	32	C	06/27/2021	00:04	-134.966	49.411	0	678.40	0	3.7350	0	34.2160	0	27.194	0	671.521	0	17.3	4	5.4	4	-1E+10	1	-1E+10	1	-1E+10	1	-1E+10	1	-1E+10	1	-1E+10	1
4902551	32	C	06/27/2021	00:04	-134.966	49.411	0	683.00	0	3.7290	0	34.2180	0	27.196	0	676.067	0	17.2	4	5.4	4	-1E+10	1	-1E+10	1	-1E+10	1	-1E+10	1	-1E+10	1	-1E+10	1
4902551	32	C	06/27/2021	00:04	-134.966	49.411	0	687.70	0	3.7180	0	34.2210	0	27.200	0	680.711	0	17.0	4	5.3	4	-1E+10	1	-1E+10	1	-1E+10	1	-1E+10	1	-1E+10	1	-1E+10	1
4902551	32	C	06/27/2021	00:04	-134.966	49.411	0	693.00	0	3.7040	0	34.2240	0	27.204	0	685.949	0	16.8	4	5.3	4	-1E+10	1	-1E+10	1	-1E+10	1	-1E+10	1	-1E+10	1	-1E+10	1
4902551	32	C	06/27/2021	00:04	-134.966	49.411	0	697.80	0	3.6930	0	34.2270	0	27.207	0	690.692	0	16.6	4	5.2	4	-1E+10	1	-1E+10	1	-1E+10	1	-1E+10	1	-1E+10	1	-1E+10	1
4902551	32	C	06/27/2021	00:04	-134.966	49.411	0	702.90	0	3.6650	0	34.2340	0	27.216	0	695.731	0	16.4	4	5.1	4	-1E+10	1	-1E+10	1	-1E+10	1	-1E+10	1	-1E+10	1	-1E+10	1
4902551	32	C	06/27/2021	00:04	-134.966	49.411	0	708.30	0	3.6500	0	34.2380	0	27.220	0	701.067	0	16.3	4	5.1	4	-1E+10	1	-1E+10	1	-1E+10	1	-1E+10	1	-1E+10	1	-1E+10	1
4902551	32	C	06/27/2021	00:04	-134.966	49.411	0	712.90	0	3.6420	0	34.2400	0	27.223	0	705.613	0	16.2	4	5.1	4	-1E+10	1	-1E+10	1	-1E+10	1	-1E+10	1	-1E+10	1	-1E+10	1
4902551	32	C	06/27/2021	00:04	-134.966	49.411	0	717.60	0	3.6300	0	34.2420	0	27.225	0	710.256	0	16.1	4	5.0	4	-1E+10	1	-1E+10	1	-1E+10	1	-1E+10	1	-1E+10	1	-1E+10	1
4902551	32	C	06/27/2021	00:04	-134.966	49.411	0	722.80	0	3.6200	0	34.2450	0	27.229	0	715.394	0	16.0	4	5.0	4	-1E+10	1	-1E+10	1	-1E+10	1	-1E+10	1	-1E+10	1	-1E+10	1
4902551	32	C	06/27/2021	00:04	-134.966	49.411	0	728.10	0	3.6060	0	34.2480	0	27.233	0	720.631	0	15.8	4	4.9	4	-1E+10	1	-1E+10	1	-1E+10	1	-1E+10	1	-1E+10	1	-1E+10	1
4902551	32	C	06/27/2021	00:04	-134.966	49.411	0	733.00	0	3.5920	0	34.2510	0	27.236	0	725.472	0	15.7	4	4.9	4	-1E+10	1	-1E+10	1	-1E+10	1	-1E+10	1	-1E+10	1	-1E+10	1
4902551	32	C	06/27/2021	00:04	-134.966	49.411	0	737.80	0	3.5780	0	34.2540	0	27.240	0	730.214	0	15.6	4	4.9	4	-1E+10	1	-1E+10	1	-1E+10	1	-1E+10	1	-1E+10	1	-1E+10	1
4902551	32	C	06/27/2021	00:04	-134.966	49.411	0	742.80	0	3.5610	0	34.2570	0	27.244	0	735.154	0	15.5	4	4.8	4	-1E+10	1	-1E+10	1	-1E+10	1	-1E+10	1	-1E+10	1	-1E+10	1
4902551	32	C	06/27/2021	00:04	-134.966	49.411	0	747.80	0	3.5460	0	34.2600	0	27.248	0	740.094	0	15.4	4	4.8	4	-1E+10	1	-1E+10	1	-1E+10	1	-1E+10	1	-1E+10	1	-1E+10	1
4902551	32	C	06/27/2021	00:04	-134.966	49.411	0	753.00	0	3.5320	0	34.2630	0	27.252	0	745.231	0	15.3	4	4.8	4	-1E+10	1	-1E+10	1	-1E+10	1	-1E+10	1	-1E+10	1	-1E+10	1
4902551	32	C	06/27/2021	00:04	-134.966	49.411	0	757.70	0	3.5170	0	34.2660	0	27.256	0	749.874	0	15.3	4	4.8	4	-1E+10	1	-1E+10	1	-1E+10	1	-1E+10	1	-1E+10	1	-1E+10	1
4902551	32	C	06/27/2021	00:04	-134.966	49.411	0	762.80	0	3.5160	0	34.2660	0	27.256	0	754.912	0	15.3	4	4.8	4	-1E+10	1	-1E+10	1	-1E+10	1	-1E+10	1	-1E+10	1	-1E+10	1
4902551	32	C	06/27/2021	00:04	-134.966	49.411	0	768.30	0	3.5160	0	34.2660	0	27.256	0	760.345	0	15.3	4	4.8	4	-1E+10	1	-1E+10	1	-1E+10	1	-1E+10	1	-1E+10	1	-1E+10	1
4902551	32	C	06/27/2021	00:04	-134.966	49.411	0	773.30	0	3.5140	0	34.2660	0	27.256	0	765.284	0	15.2	4	4.7	4	-1E+10	1	-1E+10	1	-1E+10	1	-1E+10	1	-1E+10	1	-1E+10	1
4902551	32	C	06/27/2021	00:04	-134.966	49.411	0	778.20	0	3.4990	0	34.2690	0	27.260	0	770.125	0	15.1	4	4.7	4	-1E+10	1	-1E+10	1	-1E+10	1	-1E+10	1	-1E+10	1	-1E+10	1
4902551	32	C	06/27/2021	00:04	-134.966	49.411	0	783.20	0	3.4850	0	34.2720	0	27.264	0	775.063	0	15.0	4	4.7	4	-1E+10	1	-1E+10	1	-1E+10	1	-1E+10	1	-1E+10	1	-1E+10	1
4902551	32	C	06/27/2021	00:04	-134.966	49.411	0	788.20	0	3.4750	0	34.2740	0	27.266	0	780.002	0	15.0	4	4.7	4	-1E+10	1	-1E+10	1	-1E+10	1	-1E+10	1	-1E+10	1	-1E+10	1
4902551	32	C	06/27/2021	00:04	-134.966	49.411	0	793.20	0	3.4630	0	34.2760	0	27.269	0	784.941	0	14.9	4	4.6	4	-1E+10	1	-1E+10	1	-1E+10	1	-1E+10	1	-1E+10	1	-1E+10	1
4902551	32	C	06/27/2021	00:04	-134.966	49.411	0	798.30	0	3.4500	0	34.2790	0	27.273	0	789.978	0	14.8	4	4.6	4	-1E+10	1	-1E+10	1	-1E+10	1	-1E+10	1	-1E+10	1	-1E+10	1
4902551	32	C	06/27/2021	00:04	-134.966	49.411	0	802.90	0	3.4370	0	34.2810	0	27.276	0	794.521	0	14.7	4	4.6	4	-1E+10	1	-1E+10	1	-1E+10	1	-1E+10	1	-1E+10	1	-1E+10	1
4902551	32	C	06/27/2021	00:04	-134.966	49.411	0	807.50	0	3.4150	0	34.2860	0	27.282	0	799.064	0	14.6	4	4.6	4	-1E+10	1	-1E+10	1	-1E+10	1	-1E+10	1	-1E+10	1	-1E+10	1
4902551	32	C	06/27/2021	00:04	-134.966	49.411	0	812.60	0	3.4010	0	34.2880	0	27.285	0	804.101	0	14.6	4	4.5	4	-1E+10	1	-1E+10	1	-1E+10	1	-1E+10	1	-1E+10	1	-1E+10	1
4902551	32	C	06/27/2021	00:04	-134.966	49.411	0	817.80	0	3.3920	0	34.2900	0	27.287	0	809.237	0	14.5	4	4.5	4	-1E+10	1	-1E+10	1	-1E+10	1	-1E+10	1	-1E+10	1	-1E+10	1
4902551	32	C	06/27/2021	00:04	-134.966	49.411	0	822.90	0	3.3790	0	34.2930	0	27.291	0	814.274	0	14.4	4	4.5	4	-1E+10	1	-1E+10	1	-1E+10	1	-1E+10	1	-1E+10	1	-1E+10	1
4902551	32	C	06/27/2021	00:04	-134.966	49.411	0	828.00	0	3.3690	0	34.2950	0	27.293	0	819.310	0	14.4	4	4.5	4	-1E+10	1	-1E+10	1	-1E+10	1	-1E+10	1	-1E+10	1	-1E+10	1
4902551	32	C	06/27/2021	00:04	-134.966	49.411	0	833.10	0	3.3660	0	34.2960	0	27.295	0	824.347	0	14.3	4	4.5	4	-1E+10	1	-1E+10	1	-1E+10	1	-1E+10	1	-1E+10	1	-1E+10	1
4902551	32	C	06/27/2021	00:04	-134.966	49.411	0	837.80	0	3.3590	0	34.2970	0	27.296	0	828.988	0	14.2	4	4.4	4	-1E+10	1	-1E+10	1	-1E+10	1	-1E+10	1	-1E+10	1	-1E+10	1
4902551	32	C	06/27/2021	00:04	-134.966	49.411	0	842.90	0	3.3480	0	34.3000	0	27.300	0	834.024	0	14.2	4	4.4	4	-1E+10	1	-1E+10	1	-1E+10	1	-1E+10	1	-1E+10	1	-1E+10	1
4902551	32	C	06/27/2021	00:04	-134.966	49.411	0	848.20	0	3.3290	0	34.3040	0	27.305	0	839.258	0	14.1	4	4.4	4	-1E+10	1	-1E+10	1	-1E+10	1	-1E+10	1	-1E+10	1	-1E+10	1
4902551	32	C	06/27/2021	00:04	-134.966	49.411	0	853.10	0	3.3220	0	34.3060	0	27.307	0	844.096	0	14.0	4	4.4	4	-1E+10	1	-1E+10	1	-1E+10	1	-1E+10	1	-1E+10	1	-1E+10	1
4902551	32	C	06/27/2021	00:04	-134.966	49.411	0	858.10	0	3.3160	0	34.3070	0	27.308	0	849.033	0	14.0	4	4.3	4	-1E+10	1	-1E+10	1	-1E+10	1	-1E+10	1	-1E+10	1	-1E+10	1
4902551	32	C	06/27/2021	00:04	-134.966	49.411	0	863.20	0	3.3010	0	34.3100	0	27.312	0	854.069	0	13.9	4	4.3	4	-1E+10	1	-1E+10	1	-1E+10	1	-1E+10	1	-1E+10	1	-1E+10	1
4902551	32	C	06/27/2021	00:04	-134.966	49.411	0	867.90	0	3.2920	0	34.3120	0	27.314	0	858.709	0	13.9	4	4.3	4	-1E+10	1	-1E+10	1	-1E+10	1	-1E+10	1	-1E+10	1	-1E+10	1
4902551	32	C	06/27/2021	00:04	-134.966	49.411	0	872.60	0	3.2810	0	34.3140	0	27.317	0	863.350	0	13.9	4	4.3	4	-1E+10	1	-1E+10	1	-1E+10	1	-1E+10	1	-1E+10	1	-1E+10	1
4902551	32	C	06/27/2021	00:04	-134.966	49.411	0	877.70	0	3.2750	0	34.3160	0	27.319	0	868.385	0	13.9	4	4.3	4	-1E+10	1	-1E+10	1	-1E+10	1	-1E+10	1	-1E+10	1	-1E+10	1
4902551	32	C	06/27/2021	00:04	-134.966	49.411	0	882.90	0	3.2690	0	34.3160	0	27.320	0	873.519	0	13.8	4	4.3	4	-1E+10	1	-1E+10	1	-1E+10	1	-1E+10	1	-1E+10	1	-1E+10	1
4902551	32	C	06/27/2021	00:04	-134.966	49.411	0	887.90	0	3.2620	0	34.3170	0	27.321	0	878.456	0	13.8	4	4.3	4	-1E+10	1	-1E+10	1	-1E+10	1	-1E+10	1	-1E+10	1	-1E+10	1
4902551	32	C	06/27/2021	00:04	-134.966	49.411	0	893.00	0	3.2520	0	34.3200	0	27.325	0	883.491	0	13.7	4	4.3	4	-1E+10	1	-1E+10	1	-1E+10	1	-1E+10	1	-1E+10	1	-1E+10	1
4902551	32	C	06/27/2021	00:04	-134.966	49.411	0	898.10	0	3.2400	0	34.3210	0	27.327	0	888.526	0	13.7	4	4.2	4	-1E+10	1	-1E+10	1	-1E+10	1	-1E+10	1	-1E+10	1	-1E+10	1
4902551	32	C	06/27/2021	00:04	-134.966	49.411	0	903.20	0	3.2270	0	34.3240	0	27.330	0	893.560	0	13.6	4	4.2	4	-1E+10	1	-1E+10	1	-1E+10	1	-1E+10	1	-1E+10	1	-1E+10	1
4902551	32	C	06/27/2021	00:04	-134.966	49.411	0	907.90	0	3.2190	0	34.3260	0	27.333	0	898.200	0	13.6	4	4.2	4	-1E+10	1	-1E+10	1	-1E+10	1	-1E+10	1	-1E+10	1	-1E+10	1
4902551	32	C	06/27/2021	00:04	-134.966	49.411	0	912.70	0	3.2140	0	34.3270	0	27.334	0	902.938	0	13.6	4	4.2	4	-1E+10	1	-1E+10	1	-1E+10	1	-1E+10	1	-1E+10	1	-1E+10	1
4902551	32	C	06/27/2021	00:04	-134.966	49.411	0	917.90	0	3.2070	0	34.3280	0	27.335	0	908.072	0	13.5	4	4.2	4	-1E+10	1	-1E+10	1	-1E+10	1	-1E+10	1	-1E+10	1	-1E+10	1
4902551	32	C	06/27/2021	00:04	-134.966	49.411	0	922.80	0	3.1860	0	34.3330	0	27.341	0	912.908	0	13.5	4	4.2	4	-1E+10	1	-1E+10	1	-1E+10	1	-1E+10	1	-1E+10	1	-1E+10	1
4902551	32	C	06/27/2021	00:04	-134.966	49.411	0	927.70	0	3.1810	0	34.3340	0	27.343	0	917.745	0	13.5	4	4.2	4	-1E+10	1	-1E+10	1	-1E+10	1	-1E+10	1	-1E+10	1	-1E+10	1
4902551	32	C	06/27/2021	00:04	-134.966	49.411	0	932.90	0	3.1740	0	34.3360	0	27.345	0	922.878	0	13.5	4	4.2	4	-1E+10	1	-1E+10	1	-1E+10	1	-1E+10	1	-1E+10	1	-1E+10	1
4902551	32	C	06/27/2021	00:04	-134.966	49.411	0	937.70	0	3.1550	0	34.3400	0	27.350	0	927.616	0	13.4	4	4.2	4	-1E+10	1	-1E+10	1	-1E+10	1	-1E+10	1	-1E+10	1	-1E+10	1
4902551	32	C	06/27/2021	00:04	-134.966	49.411	0	942.60	0	3.1500	0	34.3420	0	27.352	0	932.452	0	13.4	4	4.2	4	-1E+10	1	-1E+10	1	-1E+10	1	-1E+10	1	-1E+10	1	-1E+10	1
4902551	32	C	06/27/2021	00:04	-134.966	49.411	0	947.60	0	3.1450	0	34.3430	0	27.353	0	937.387	0	13.4	4	4.1	4	-1E+10	1	-1E+10	1	-1E+10	1	-1E+10	1	-1E+10	1	-1E+10	1
4902551	32	C	06/27/2021	00:04	-134.966	49.411	0	952.70	0	3.1390	0	34.3440	0	27.355	0	942.421	0	13.3	4	4.1	4	-1E+10	1	-1E+10	1	-1E+10	1	-1E+10	1	-1E+10	1	-1E+10	1
4902551	32	C	06/27/2021	00:04	-134.966	49.411	0	957.90	0	3.1290	0	34.3460	0	27.357	0	947.553	0	13.3	4	4.1	4	-1E+10	1	-1E+10	1	-1E+10	1	-1E+10	1	-1E+10	1	-1E+10	1
4902551	32	C	06/27/2021	00:04	-134.966	49.411	0	963.10	0	3.1190	0	34.3480	0	27.360	0	952.685	0	13.3	4	4.1	4	-1E+10	1	-1E+10	1	-1E+10	1	-1E+10	1	-1E+10	1	-1E+10	1
4902551	32	C	06/27/2021	00:04	-134.966	49.411	0	967.90	0	3.1120	0	34.3500	0	27.362	0	957.422	0	13.3	4	4.1	4	-1E+10	1	-1E+10	1	-1E+10	1	-1E+10	1	-1E+10	1	-1E+10	1
4902551	32	C	06/27/2021	00:04	-134.966	49.411	0	972.80	0	3.1070	0	34.3510	0	27.363	0	962.258	0	13.2	4	4.1	4	-1E+10	1	-1E+10	1	-1E+10	1	-1E+10	1	-1E+10	1	-1E+10	1
4902551	32	C	06/27/2021	00:04	-134.966	49.411	0	977.80	0	3.1050	0	34.3520	0	27.364	0	967.192	0	13.2	4	4.1	4	-1E+10	1	-1E+10	1	-1E+10	1	-1E+10	1	-1E+10	1	-1E+10	1
4902551	32	C	06/27/2021	00:04	-134.966	49.411	0	982.80	0	3.0980	0	34.3540	0	27.367	0	972.126	0	13.2	4	4.1	4	-1E+10	1	-1E+10	1	-1E+10	1	-1E+10	1	-1E+10	1	-1E+10	1
4902551	32	C	06/27/2021	00:04	-134.966	49.411	0	987.70	0	3.0930	0	34.3540	0	27.367	0	976.961	0	13.2	4	4.1	4	-1E+10	1	-1E+10	1	-1E+10	1	-1E+10	1	-1E+10	1	-1E+10	1
4902551	32	C	06/27/2021	00:04	-134.966	49.411	0	992.80	0	3.0880	0	34.3550	0	27.368	0	981.994	0	13.1	4	4.0	4	-1E+10	1	-1E+10	1	-1E+10	1	-1E+10	1	-1E+10	1	-1E+10	1
4902551	32	C	06/27/2021	00:04	-134.966	49.411	0	997.70	0	3.0780	0	34.3580	0	27.372	0	986.829	0	13.1	4	4.0	4	-1E+10	1	-1E+10	1	-1E+10	1	-1E+10	1	-1E+10	1	-1E+10	1
4902551	32	C	06/27/2021	00:04	-134.966	49.411	0	1005.40	0	3.0600	0	34.3620	0	27.377	0	994.427	0	13.1	4	4.0	4	-1E+10	1	-1E+10	1	-1E+10	1	-1E+10	1	-1E+10	1	-1E+10	1
4902551	32	C	06/27/2021	00:04	-134.966	49.411	0	1015.80	0	3.0490	0	34.3640	0	27.379	0	1004.689	0	13.1	4	4.0	4	-1E+10	1	-1E+10	1	-1E+10	1	-1E+10	1	-1E+10	1	-1E+10	1
4902551	32	C	06/27/2021	00:04	-134.966	49.411	0	1025.70	0	3.0320	0	34.3670	0	27.383	0	1014.456	0	13.0	4	4.0	4	-1E+10	1	-1E+10	1	-1E+10	1	-1E+10	1	-1E+10	1	-1E+10	1
4902551	32	C	06/27/2021	00:04	-134.966	49.411	0	1035.60	0	3.0150	0	34.3710	0	27.388	0	1024.224	0	13.0	4	4.0	4	-1E+10	1	-1E+10	1	-1E+10	1	-1E+10	1	-1E+10	1	-1E+10	1
4902551	32	C	06/27/2021	00:04	-134.966	49.411	0	1045.50	0	2.9950	0	34.3740	0	27.392	0	1033.990	0	13.0	4	4.0	4	-1E+10	1	-1E+10	1	-1E+10	1	-1E+10	1	-1E+10	1	-1E+10	1
4902551	32	C	06/27/2021	00:04	-134.966	49.411	0	1055.70	0	2.9860	0	34.3760	0	27.395	0	1044.053	0	12.9	4	4.0	4	-1E+10	1	-1E+10	1	-1E+10	1	-1E+10	1	-1E+10	1	-1E+10	1
4902551	32	C	06/27/2021	00:04	-134.966	49.411	0	1065.50	0	2.9760	0	34.3790	0	27.398	0	1053.720	0	12.9	4	4.0	4	-1E+10	1	-1E+10	1	-1E+10	1	-1E+10	1	-1E+10	1	-1E+10	1
4902551	32	C	06/27/2021	00:04	-134.966	49.411	0	1075.40	0	2.9630	0	34.3820	0	27.402	0	1063.486	0	12.7	4	3.9	4	-1E+10	1	-1E+10	1	-1E+10	1	-1E+10	1	-1E+10	1	-1E+10	1
4902551	32	C	06/27/2021	00:04	-134.966	49.411	0	1085.20	0	2.9430	0	34.3890	0	27.409	0	1073.152	0	12.6	4	3.9	4	-1E+10	1	-1E+10	1	-1E+10	1	-1E+10	1	-1E+10	1	-1E+10	1
4902551	32	C	06/27/2021	00:04	-134.966	49.411	0	1095.30	0	2.9420	0	34.3940	0	27.413	0	1083.114	0	12.5	4	3.8	4	-1E+10	1	-1E+10	1	-1E+10	1	-1E+10	1	-1E+10	1	-1E+10	1
4902551	32	C	06/27/2021	00:04	-134.966	49.411	0	1105.20	0	2.9330	0	34.3970	0	27.417	0	1092.878	0	12.6	4	3.9	4	-1E+10	1	-1E+10	1	-1E+10	1	-1E+10	1	-1E+10	1	-1E+10	1
4902551	32	C	06/27/2021	00:04	-134.966	49.411	0	1115.20	0	2.8980	0	34.4000	0	27.422	0	1102.740	0	12.7	4	3.9	4	-1E+10	1	-1E+10	1	-1E+10	1	-1E+10	1	-1E+10	1	-1E+10	1
4902551	32	C	06/27/2021	00:04	-134.966	49.411	0	1125.20	0	2.8810	0	34.4020	0	27.425	0	1112.602	0	12.8	4	3.9	4	-1E+10	1	-1E+10	1	-1E+10	1	-1E+10	1	-1E+10	1	-1E+10	1
4902551	32	C	06/27/2021	00:04	-134.966	49.411	0	1135.40	0	2.8570	0	34.4050	0	27.430	0	1122.660	0	12.9	4	4.0	4	-1E+10	1	-1E+10	1	-1E+10	1	-1E+10	1	-1E+10	1	-1E+10	1
4902551	32	C	06/27/2021	00:04	-134.966	49.411	0	1145.60	0	2.8450	0	34.4060	0	27.432	0	1132.718	0	13.0	4	4.0	4	-1E+10	1	-1E+10	1	-1E+10	1	-1E+10	1	-1E+10	1	-1E+10	1
4902551	32	C	06/27/2021	00:04	-134.966	49.411	0	1155.30	0	2.8390	0	34.4070	0	27.433	0	1142.283	0	13.0	4	4.0	4	-1E+10	1	-1E+10	1	-1E+10	1	-1E+10	1	-1E+10	1	-1E+10	1
4902551	32	C	06/27/2021	00:04	-134.966	49.411	0	1165.20	0	2.8330	0	34.4100	0	27.436	0	1152.044	0	13.0	4	4.0	4	-1E+10	1	-1E+10	1	-1E+10	1	-1E+10	1	-1E+10	1	-1E+10	1
4902551	32	C	06/27/2021	00:04	-134.966	49.411	0	1175.20	0	2.8140	0	34.4130	0	27.440	0	1161.904	0	13.1	4	4.0	4	-1E+10	1	-1E+10	1	-1E+10	1	-1E+10	1	-1E+10	1	-1E+10	1
4902551	32	C	06/27/2021	00:04	-134.966	49.411	0	1185.20	0	2.8050	0	34.4180	0	27.445	0	1171.763	0	13.2	4	4.0	4	-1E+10	1	-1E+10	1	-1E+10	1	-1E+10	1	-1E+10	1	-1E+10	1
4902551	32	C	06/27/2021	00:04	-134.966	49.411	0	1195.30	0	2.7970	0	34.4230	0	27.450	0	1181.720	0	13.3	4	4.1	4	-1E+10	1	-1E+10	1	-1E+10	1	-1E+10	1	-1E+10	1	-1E+10	1
4902551	32	C	06/27/2021	00:04	-134.966	49.411	0	1205.60	0	2.7800	0	34.4260	0	27.454	0	1191.874	0	13.5	4	4.1	4	-1E+10	1	-1E+10	1	-1E+10	1	-1E+10	1	-1E+10	1	-1E+10	1
4902551	32	C	06/27/2021	00:04	-134.966	49.411	0	1215.50	0	2.7670	0	34.4290	0	27.457	0	1201.633	0	13.6	4	4.2	4	-1E+10	1	-1E+10	1	-1E+10	1	-1E+10	1	-1E+10	1	-1E+10	1
4902551	32	C	06/27/2021	00:04	-134.966	49.411	0	1225.10	0	2.7510	0	34.4310	0	27.460	0	1211.096	0	13.7	4	4.2	4	-1E+10	1	-1E+10	1	-1E+10	1	-1E+10	1	-1E+10	1	-1E+10	1
4902551	32	C	06/27/2021	00:04	-134.966	49.411	0	1235.40	0	2.7370	0	34.4330	0	27.463	0	1221.248	0	13.9	4	4.3	4	-1E+10	1	-1E+10	1	-1E+10	1	-1E+10	1	-1E+10	1	-1E+10	1
4902551	32	C	06/27/2021	00:04	-134.966	49.411	0	1246.00	0	2.7130	0	34.4360	0	27.468	0	1231.696	0	14.1	4	4.3	4	-1E+10	1	-1E+10	1	-1E+10	1	-1E+10	1	-1E+10	1	-1E+10	1
4902551	32	C	06/27/2021	00:04	-134.966	49.411	0	1255.30	0	2.6950	0	34.4390	0	27.472	0	1240.862	0	14.3	4	4.4	4	-1E+10	1	-1E+10	1	-1E+10	1	-1E+10	1	-1E+10	1	-1E+10	1
4902551	32	C	06/27/2021	00:04	-134.966	49.411	0	1265.30	0	2.6860	0	34.4420	0	27.475	0	1250.717	0	14.6	4	4.5	4	-1E+10	1	-1E+10	1	-1E+10	1	-1E+10	1	-1E+10	1	-1E+10	1
4902551	32	C	06/27/2021	00:04	-134.966	49.411	0	1275.40	0	2.6740	0	34.4460	0	27.479	0	1260.670	0	14.9	4	4.6	4	-1E+10	1	-1E+10	1	-1E+10	1	-1E+10	1	-1E+10	1	-1E+10	1
4902551	32	C	06/27/2021	00:04	-134.966	49.411	0	1285.40	0	2.6540	0	34.4500	0	27.484	0	1270.524	0	15.3	4	4.7	4	-1E+10	1	-1E+10	1	-1E+10	1	-1E+10	1	-1E+10	1	-1E+10	1
4902551	32	C	06/27/2021	00:04	-134.966	49.411	0	1295.60	0	2.6360	0	34.4530	0	27.488	0	1280.575	0	15.6	4	4.8	4	-1E+10	1	-1E+10	1	-1E+10	1	-1E+10	1	-1E+10	1	-1E+10	1
4902551	32	C	06/27/2021	00:04	-134.966	49.411	0	1305.60	0	2.6250	0	34.4550	0	27.491	0	1290.429	0	15.9	4	4.9	4	-1E+10	1	-1E+10	1	-1E+10	1	-1E+10	1	-1E+10	1	-1E+10	1
4902551	32	C	06/27/2021	00:04	-134.966	49.411	0	1315.30	0	2.6070	0	34.4580	0	27.495	0	1299.986	0	16.3	4	5.0	4	-1E+10	1	-1E+10	1	-1E+10	1	-1E+10	1	-1E+10	1	-1E+10	1
4902551	32	C	06/27/2021	00:04	-134.966	49.411	0	1325.20	0	2.5880	0	34.4620	0	27.500	0	1309.740	0	16.6	4	5.1	4	-1E+10	1	-1E+10	1	-1E+10	1	-1E+10	1	-1E+10	1	-1E+10	1
4902551	32	C	06/27/2021	00:04	-134.966	49.411	0	1335.40	0	2.5810	0	34.4640	0	27.502	0	1319.789	0	16.9	4	5.2	4	-1E+10	1	-1E+10	1	-1E+10	1	-1E+10	1	-1E+10	1	-1E+10	1
4902551	32	C	06/27/2021	00:04	-134.966	49.411	0	1345.30	0	2.5700	0	34.4660	0	27.505	0	1329.542	0	17.2	4	5.2	4	-1E+10	1	-1E+10	1	-1E+10	1	-1E+10	1	-1E+10	1	-1E+10	1
4902551	32	C	06/27/2021	00:04	-134.966	49.411	0	1355.30	0	2.5630	0	34.4670	0	27.506	0	1339.394	0	17.5	4	5.3	4	-1E+10	1	-1E+10	1	-1E+10	1	-1E+10	1	-1E+10	1	-1E+10	1
4902551	32	C	06/27/2021	00:04	-134.966	49.411	0	1365.40	0	2.5500	0	34.4700	0	27.510	0	1349.343	0	17.9	4	5.5	4	-1E+10	1	-1E+10	1	-1E+10	1	-1E+10	1	-1E+10	1	-1E+10	1
4902551	32	C	06/27/2021	00:04	-134.966	49.411	0	1375.70	0	2.5350	0	34.4730	0	27.513	0	1359.488	0	18.4	4	5.6	4	-1E+10	1	-1E+10	1	-1E+10	1	-1E+10	1	-1E+10	1	-1E+10	1
4902551	32	C	06/27/2021	00:04	-134.966	49.411	0	1385.60	0	2.5220	0	34.4760	0	27.517	0	1369.240	0	19.0	4	5.8	4	-1E+10	1	-1E+10	1	-1E+10	1	-1E+10	1	-1E+10	1	-1E+10	1
4902551	32	C	06/27/2021	00:04	-134.966	49.411	0	1395.50	0	2.5030	0	34.4800	0	27.522	0	1378.990	0	19.5	4	5.9	4	-1E+10	1	-1E+10	1	-1E+10	1	-1E+10	1	-1E+10	1	-1E+10	1
4902551	32	C	06/27/2021	00:04	-134.966	49.411	0	1405.30	0	2.4860	0	34.4830	0	27.526	0	1388.642	0	19.9	4	6.1	4	-1E+10	1	-1E+10	1	-1E+10	1	-1E+10	1	-1E+10	1	-1E+10	1
4902551	32	C	06/27/2021	00:04	-134.966	49.411	0	1415.50	0	2.4690	0	34.4860	0	27.530	0	1398.687	0	20.3	4	6.2	4	-1E+10	1	-1E+10	1	-1E+10	1	-1E+10	1	-1E+10	1	-1E+10	1
4902551	32	C	06/27/2021	00:04	-134.966	49.411	0	1425.70	0	2.4600	0	34.4870	0	27.531	0	1408.732	0	20.6	4	6.3	4	-1E+10	1	-1E+10	1	-1E+10	1	-1E+10	1	-1E+10	1	-1E+10	1
4902551	32	C	06/27/2021	00:04	-134.966	49.411	0	1435.20	0	2.4470	0	34.4890	0	27.534	0	1418.087	0	21.0	4	6.4	4	-1E+10	1	-1E+10	1	-1E+10	1	-1E+10	1	-1E+10	1	-1E+10	1
4902551	32	C	06/27/2021	00:04	-134.966	49.411	0	1445.40	0	2.4350	0	34.4910	0	27.537	0	1428.131	0	21.6	4	6.6	4	-1E+10	1	-1E+10	1	-1E+10	1	-1E+10	1	-1E+10	1	-1E+10	1
4902551	32	C	06/27/2021	00:04	-134.966	49.411	0	1455.60	0	2.4180	0	34.4940	0	27.540	0	1438.175	0	22.3	4	6.8	4	-1E+10	1	-1E+10	1	-1E+10	1	-1E+10	1	-1E+10	1	-1E+10	1
4902551	32	C	06/27/2021	00:04	-134.966	49.411	0	1465.20	0	2.4010	0	34.4970	0	27.544	0	1447.627	0	22.9	4	7.0	4	-1E+10	1	-1E+10	1	-1E+10	1	-1E+10	1	-1E+10	1	-1E+10	1
4902551	32	C	06/27/2021	00:04	-134.966	49.411	0	1475.40	0	2.3870	0	34.5000	0	27.548	0	1457.669	0	23.5	4	7.2	4	-1E+10	1	-1E+10	1	-1E+10	1	-1E+10	1	-1E+10	1	-1E+10	1
4902551	32	C	06/27/2021	00:04	-134.966	49.411	0	1485.50	0	2.3670	0	34.5030	0	27.552	0	1467.613	0	24.1	4	7.3	4	-1E+10	1	-1E+10	1	-1E+10	1	-1E+10	1	-1E+10	1	-1E+10	1
4902551	32	C	06/27/2021	00:04	-134.966	49.411	0	1495.50	0	2.3520	0	34.5050	0	27.555	0	1477.458	0	24.5	4	7.5	4	-1E+10	1	-1E+10	1	-1E+10	1	-1E+10	1	-1E+10	1	-1E+10	1
4902551	32	C	06/27/2021	00:04	-134.966	49.411	0	1505.30	0	2.3370	0	34.5080	0	27.559	0	1487.105	0	25.0	4	7.6	4	-1E+10	1	-1E+10	1	-1E+10	1	-1E+10	1	-1E+10	1	-1E+10	1
4902551	32	C	06/27/2021	00:04	-134.966	49.411	0	1515.10	0	2.3250	0	34.5090	0	27.560	0	1496.752	0	25.4	4	7.7	4	-1E+10	1	-1E+10	1	-1E+10	1	-1E+10	1	-1E+10	1	-1E+10	1
4902551	32	C	06/27/2021	00:04	-134.966	49.411	0	1525.60	0	2.3170	0	34.5110	0	27.563	0	1507.087	0	26.0	4	7.9	4	-1E+10	1	-1E+10	1	-1E+10	1	-1E+10	1	-1E+10	1	-1E+10	1
4902551	32	C	06/27/2021	00:04	-134.966	49.411	0	1535.20	0	2.3050	0	34.5140	0	27.566	0	1516.536	0	26.5	4	8.1	4	-1E+10	1	-1E+10	1	-1E+10	1	-1E+10	1	-1E+10	1	-1E+10	1
4902551	32	C	06/27/2021	00:04	-134.966	49.411	0	1545.00	0	2.2930	0	34.5150	0	27.568	0	1526.182	0	27.0	4	8.2	4	-1E+10	1	-1E+10	1	-1E+10	1	-1E+10	1	-1E+10	1	-1E+10	1
4902551	32	C	06/27/2021	00:04	-134.966	49.411	0	1555.10	0	2.2830	0	34.5170	0	27.570	0	1536.122	0	27.6	4	8.4	4	-1E+10	1	-1E+10	1	-1E+10	1	-1E+10	1	-1E+10	1	-1E+10	1
4902551	32	C	06/27/2021	00:04	-134.966	49.411	0	1565.20	0	2.2740	0	34.5190	0	27.573	0	1546.062	0	28.2	4	8.6	4	-1E+10	1	-1E+10	1	-1E+10	1	-1E+10	1	-1E+10	1	-1E+10	1
4902551	32	C	06/27/2021	00:04	-134.966	49.411	0	1575.20	0	2.2570	0	34.5220	0	27.577	0	1555.903	0	29.1	4	8.8	4	-1E+10	1	-1E+10	1	-1E+10	1	-1E+10	1	-1E+10	1	-1E+10	1
4902551	32	C	06/27/2021	00:04	-134.966	49.411	0	1585.30	0	2.2450	0	34.5240	0	27.579	0	1565.842	0	29.7	4	9.0	4	-1E+10	1	-1E+10	1	-1E+10	1	-1E+10	1	-1E+10	1	-1E+10	1
4902551	32	C	06/27/2021	00:04	-134.966	49.411	0	1595.50	0	2.2330	0	34.5260	0	27.582	0	1575.879	0	30.2	4	9.2	4	-1E+10	1	-1E+10	1	-1E+10	1	-1E+10	1	-1E+10	1	-1E+10	1
4902551	32	C	06/27/2021	00:04	-134.966	49.411	0	1605.40	0	2.2270	0	34.5270	0	27.583	0	1585.620	0	30.6	4	9.3	4	-1E+10	1	-1E+10	1	-1E+10	1	-1E+10	1	-1E+10	1	-1E+10	1
4902551	32	C	06/27/2021	00:04	-134.966	49.411	0	1615.40	0	2.2190	0	34.5290	0	27.586	0	1595.459	0	31.1	4	9.4	4	-1E+10	1	-1E+10	1	-1E+10	1	-1E+10	1	-1E+10	1	-1E+10	1
4902551	32	C	06/27/2021	00:04	-134.966	49.411	0	1625.50	0	2.2120	0	34.5300	0	27.587	0	1605.396	0	31.5	4	9.5	4	-1E+10	1	-1E+10	1	-1E+10	1	-1E+10	1	-1E+10	1	-1E+10	1
4902551	32	C	06/27/2021	00:04	-134.966	49.411	0	1635.40	0	2.2070	0	34.5310	0	27.588	0	1615.136	0	32.0	4	9.7	4	-1E+10	1	-1E+10	1	-1E+10	1	-1E+10	1	-1E+10	1	-1E+10	1
4902551	32	C	06/27/2021	00:04	-134.966	49.411	0	1645.40	0	2.1960	0	34.5330	0	27.591	0	1624.974	0	32.7	4	9.9	4	-1E+10	1	-1E+10	1	-1E+10	1	-1E+10	1	-1E+10	1	-1E+10	1
4902551	32	C	06/27/2021	00:04	-134.966	49.411	0	1655.60	0	2.1850	0	34.5350	0	27.593	0	1635.008	0	33.4	4	10.1	4	-1E+10	1	-1E+10	1	-1E+10	1	-1E+10	1	-1E+10	1	-1E+10	1
4902551	32	C	06/27/2021	00:04	-134.966	49.411	0	1665.40	0	2.1770	0	34.5360	0	27.595	0	1644.648	0	34.1	4	10.3	4	-1E+10	1	-1E+10	1	-1E+10	1	-1E+10	1	-1E+10	1	-1E+10	1
4902551	32	C	06/27/2021	00:04	-134.966	49.411	0	1675.30	0	2.1630	0	34.5390	0	27.598	0	1654.386	0	35.1	4	10.6	4	-1E+10	1	-1E+10	1	-1E+10	1	-1E+10	1	-1E+10	1	-1E+10	1
4902551	32	C	06/27/2021	00:04	-134.966	49.411	0	1685.70	0	2.1470	0	34.5420	0	27.602	0	1664.615	0	36.0	4	10.9	4	-1E+10	1	-1E+10	1	-1E+10	1	-1E+10	1	-1E+10	1	-1E+10	1
4902551	32	C	06/27/2021	00:04	-134.966	49.411	0	1695.50	0	2.1370	0	34.5440	0	27.604	0	1674.254	0	36.5	4	11.0	4	-1E+10	1	-1E+10	1	-1E+10	1	-1E+10	1	-1E+10	1	-1E+10	1
4902551	32	C	06/27/2021	00:04	-134.966	49.411	0	1705.10	0	2.1330	0	34.5450	0	27.606	0	1683.696	0	37.0	4	11.2	4	-1E+10	1	-1E+10	1	-1E+10	1	-1E+10	1	-1E+10	1	-1E+10	1
4902551	32	C	06/27/2021	00:04	-134.966	49.411	0	1715.10	0	2.1260	0	34.5460	0	27.607	0	1693.530	0	37.8	4	11.4	4	-1E+10	1	-1E+10	1	-1E+10	1	-1E+10	1	-1E+10	1	-1E+10	1
4902551	32	C	06/27/2021	00:04	-134.966	49.411	0	1725.40	0	2.1140	0	34.5480	0	27.610	0	1703.659	0	38.6	4	11.7	4	-1E+10	1	-1E+10	1	-1E+10	1	-1E+10	1	-1E+10	1	-1E+10	1
4902551	32	C	06/27/2021	00:04	-134.966	49.411	0	1735.50	0	2.1050	0	34.5500	0	27.612	0	1713.591	0	39.3	4	11.9	4	-1E+10	1	-1E+10	1	-1E+10	1	-1E+10	1	-1E+10	1	-1E+10	1
4902551	32	C	06/27/2021	00:04	-134.966	49.411	0	1745.30	0	2.0950	0	34.5530	0	27.615	0	1723.228	0	39.8	4	12.0	4	-1E+10	1	-1E+10	1	-1E+10	1	-1E+10	1	-1E+10	1	-1E+10	1
4902551	32	C	06/27/2021	00:04	-134.966	49.411	0	1755.30	0	2.0910	0	34.5530	0	27.616	0	1733.061	0	40.3	4	12.2	4	-1E+10	1	-1E+10	1	-1E+10	1	-1E+10	1	-1E+10	1	-1E+10	1
4902551	32	C	06/27/2021	00:04	-134.966	49.411	0	1765.40	0	2.0840	0	34.5550	0	27.618	0	1742.991	0	40.9	4	12.4	4	-1E+10	1	-1E+10	1	-1E+10	1	-1E+10	1	-1E+10	1	-1E+10	1
4902551	32	C	06/27/2021	00:04	-134.966	49.411	0	1775.70	0	2.0760	0	34.5560	0	27.619	0	1753.118	0	41.7	4	12.6	4	-1E+10	1	-1E+10	1	-1E+10	1	-1E+10	1	-1E+10	1	-1E+10	1
4902551	32	C	06/27/2021	00:04	-134.966	49.411	0	1785.60	0	2.0660	0	34.5580	0	27.622	0	1762.851	0	42.4	4	12.8	4	-1E+10	1	-1E+10	1	-1E+10	1	-1E+10	1	-1E+10	1	-1E+10	1
4902551	32	C	06/27/2021	00:04	-134.966	49.411	0	1795.20	0	2.0590	0	34.5600	0	27.624	0	1772.289	0	42.9	4	13.0	4	-1E+10	1	-1E+10	1	-1E+10	1	-1E+10	1	-1E+10	1	-1E+10	1
4902551	32	C	06/27/2021	00:04	-134.966	49.411	0	1805.30	0	2.0520	0	34.5610	0	27.625	0	1782.217	0	43.5	4	13.1	4	-1E+10	1	-1E+10	1	-1E+10	1	-1E+10	1	-1E+10	1	-1E+10	1
4902551	32	C	06/27/2021	00:04	-134.966	49.411	0	1815.30	0	2.0440	0	34.5620	0	27.627	0	1792.047	0	44.0	4	13.3	4	-1E+10	1	-1E+10	1	-1E+10	1	-1E+10	1	-1E+10	1	-1E+10	1
4902551	32	C	06/27/2021	00:04	-134.966	49.411	0	1825.40	0	2.0390	0	34.5640	0	27.629	0	1801.975	0	44.5	4	13.4	4	-1E+10	1	-1E+10	1	-1E+10	1	-1E+10	1	-1E+10	1	-1E+10	1
4902551	32	C	06/27/2021	00:04	-134.966	49.411	0	1835.60	0	2.0350	0	34.5650	0	27.630	0	1812.001	0	44.9	4	13.5	4	-1E+10	1	-1E+10	1	-1E+10	1	-1E+10	1	-1E+10	1	-1E+10	1
4902551	32	C	06/27/2021	00:04	-134.966	49.411	0	1845.20	0	2.0280	0	34.5660	0	27.632	0	1821.436	0	45.3	4	13.7	4	-1E+10	1	-1E+10	1	-1E+10	1	-1E+10	1	-1E+10	1	-1E+10	1
4902551	32	C	06/27/2021	00:04	-134.966	49.411	0	1855.30	0	2.0220	0	34.5670	0	27.633	0	1831.363	0	45.8	4	13.8	4	-1E+10	1	-1E+10	1	-1E+10	1	-1E+10	1	-1E+10	1	-1E+10	1
4902551	32	C	06/27/2021	00:04	-134.966	49.411	0	1865.30	0	2.0120	0	34.5690	0	27.635	0	1841.190	0	46.4	4	14.0	4	-1E+10	1	-1E+10	1	-1E+10	1	-1E+10	1	-1E+10	1	-1E+10	1
4902551	32	C	06/27/2021	00:04	-134.966	49.411	0	1875.40	0	2.0050	0	34.5710	0	27.637	0	1851.116	0	46.9	4	14.1	4	-1E+10	1	-1E+10	1	-1E+10	1	-1E+10	1	-1E+10	1	-1E+10	1
4902551	32	C	06/27/2021	00:04	-134.966	49.411	0	1885.90	0	2.0000	0	34.5720	0	27.639	0	1861.434	0	47.5	4	14.3	4	-1E+10	1	-1E+10	1	-1E+10	1	-1E+10	1	-1E+10	1	-1E+10	1
4902551	32	C	06/27/2021	00:04	-134.966	49.411	0	1895.40	0	1.9890	0	34.5740	0	27.641	0	1870.769	0	48.3	4	14.6	4	-1E+10	1	-1E+10	1	-1E+10	1	-1E+10	1	-1E+10	1	-1E+10	1
4902551	32	C	06/27/2021	00:04	-134.966	49.411	0	1905.20	0	1.9830	0	34.5750	0	27.643	0	1880.398	0	49.0	4	14.8	4	-1E+10	1	-1E+10	1	-1E+10	1	-1E+10	1	-1E+10	1	-1E+10	1
4902551	32	C	06/27/2021	00:04	-134.966	49.411	0	1915.20	0	1.9750	0	34.5770	0	27.645	0	1890.224	0	49.7	4	15.0	4	-1E+10	1	-1E+10	1	-1E+10	1	-1E+10	1	-1E+10	1	-1E+10	1
4902551	32	C	06/27/2021	00:04	-134.966	49.411	0	1925.30	0	1.9700	0	34.5780	0	27.646	0	1900.147	0	50.3	4	15.1	4	-1E+10	1	-1E+10	1	-1E+10	1	-1E+10	1	-1E+10	1	-1E+10	1
4902551	32	C	06/27/2021	00:04	-134.966	49.411	0	1935.20	0	1.9620	0	34.5800	0	27.648	0	1909.873	0	51.0	4	15.4	4	-1E+10	1	-1E+10	1	-1E+10	1	-1E+10	1	-1E+10	1	-1E+10	1
4902551	32	C	06/27/2021	00:04	-134.966	49.411	0	1945.30	0	1.9560	0	34.5810	0	27.650	0	1919.796	0	51.4	4	15.5	4	-1E+10	1	-1E+10	1	-1E+10	1	-1E+10	1	-1E+10	1	-1E+10	1
4902551	32	C	06/27/2021	00:04	-134.966	49.411	0	1955.50	0	1.9520	0	34.5820	0	27.651	0	1929.816	0	52.0	4	15.6	4	-1E+10	1	-1E+10	1	-1E+10	1	-1E+10	1	-1E+10	1	-1E+10	1
4902551	32	C	06/27/2021	00:04	-134.966	49.411	0	1965.40	0	1.9450	0	34.5830	0	27.652	0	1939.541	0	52.5	4	15.8	4	-1E+10	1	-1E+10	1	-1E+10	1	-1E+10	1	-1E+10	1	-1E+10	1
4902551	32	C	06/27/2021	00:04	-134.966	49.411	0	1975.40	0	1.9390	0	34.5840	0	27.654	0	1949.363	0	53.0	4	16.0	4	-1E+10	1	-1E+10	1	-1E+10	1	-1E+10	1	-1E+10	1	-1E+10	1
4902551	32	C	06/27/2021	00:04	-134.966	49.411	0	1985.40	0	1.9340	0	34.5850	0	27.655	0	1959.186	0	53.5	4	16.1	4	-1E+10	1	-1E+10	1	-1E+10	1	-1E+10	1	-1E+10	1	-1E+10	1
4902551	32	C	06/27/2021	00:04	-134.966	49.411	0	1995.70	0	1.9270	0	34.5870	0	27.657	0	1969.302	0	54.0	4	16.2	4	-1E+10	1	-1E+10	1	-1E+10	1	-1E+10	1	-1E+10	1	-1E+10	1
4902551	32	C	06/27/2021	00:04	-134.966	49.411	0	2005.70	0	1.9220	0	34.5880	0	27.658	0	1979.123	0	54.2	4	16.3	4	-1E+10	1	-1E+10	1	-1E+10	1	-1E+10	1	-1E+10	1	-1E+10	1
4902551	32	C	06/27/2021	00:04	-134.966	49.411	0	2014.00	0	1.9190	0	34.5880	0	27.658	0	1987.275	0	53.9	4	16.2	4	-1E+10	1	-1E+10	1	-1E+10	1	-1E+10	1	-1E+10	1	-1E+10	1
4902551	32	C	06/27/2021	00:04	-134.966	49.411	0																										
4902551	33	C	07/07/2021	05:10	-134.916	49.416	0	0.30	0	12.9280	0	32.2940	0	24.312	0	0.297	0	259.0	4	98.4	4	-1E+10	1	-1E+10	1	-1E+10	1	-1E+10	1	-1E+10	1	-1E+10	1
4902551	33	C	07/07/2021	05:10	-134.916	49.416	0	1.10	0	12.9290	0	32.2920	0	24.310	0	1.091	0	259.1	4	98.4	4	-1E+10	1	-1E+10	1	-1E+10	1	-1E+10	1	-1E+10	1	-1E+10	1
4902551	33	C	07/07/2021	05:10	-134.916	49.416	0	2.10	0	12.9290	0	32.2950	0	24.313	0	2.082	0	259.0	4	98.4	4	-1E+10	1	-1E+10	1	-1E+10	1	-1E+10	1	-1E+10	1	-1E+10	1
4902551	33	C	07/07/2021	05:10	-134.916	49.416	0	3.00	0	12.9300	0	32.2950	0	24.312	0	2.974	0	259.1	4	98.4	4	-1E+10	1	-1E+10	1	-1E+10	1	-1E+10	1	-1E+10	1	-1E+10	1
4902551	33	C	07/07/2021	05:10	-134.916	49.416	0	3.80	0	12.9300	0	32.2960	0	24.313	0	3.768	0	259.1	4	98.4	4	-1E+10	1	-1E+10	1	-1E+10	1	-1E+10	1	-1E+10	1	-1E+10	1
4902551	33	C	07/07/2021	05:10	-134.916	49.416	0	5.00	0	12.9310	0	32.2980	0	24.315	0	4.957	0	259.1	4	98.4	4	-1E+10	1	-1E+10	1	-1E+10	1	-1E+10	1	-1E+10	1	-1E+10	1
4902551	33	C	07/07/2021	05:10	-134.916	49.416	0	5.90	0	12.9320	0	32.2980	0	24.314	0	5.850	0	259.2	4	98.5	4	-1E+10	1	-1E+10	1	-1E+10	1	-1E+10	1	-1E+10	1	-1E+10	1
4902551	33	C	07/07/2021	05:10	-134.916	49.416	0	6.90	0	12.9340	0	32.2980	0	24.314	0	6.841	0	259.2	4	98.5	4	-1E+10	1	-1E+10	1	-1E+10	1	-1E+10	1	-1E+10	1	-1E+10	1
4902551	33	C	07/07/2021	05:10	-134.916	49.416	0	8.00	0	12.9340	0	32.2970	0	24.313	0	7.932	0	259.3	4	98.5	4	-1E+10	1	-1E+10	1	-1E+10	1	-1E+10	1	-1E+10	1	-1E+10	1
4902551	33	C	07/07/2021	05:10	-134.916	49.416	0	9.20	0	12.9240	0	32.2980	0	24.316	0	9.121	0	259.6	4	98.6	4	-1E+10	1	-1E+10	1	-1E+10	1	-1E+10	1	-1E+10	1	-1E+10	1
4902551	33	C	07/07/2021	05:10	-134.916	49.416	0	10.00	0	12.9060	0	32.2990	0	24.320	0	9.915	0	259.7	4	98.6	4	-1E+10	1	-1E+10	1	-1E+10	1	-1E+10	1	-1E+10	1	-1E+10	1
4902551	33	C	07/07/2021	05:10	-134.916	49.416	0	11.20	0	12.8960	0	32.2970	0	24.321	0	11.104	0	260.1	4	98.7	4	-1E+10	1	-1E+10	1	-1E+10	1	-1E+10	1	-1E+10	1	-1E+10	1
4902551	33	C	07/07/2021	05:10	-134.916	49.416	0	12.10	0	12.8720	0	32.2980	0	24.326	0	11.997	0	260.4	4	98.8	4	-1E+10	1	-1E+10	1	-1E+10	1	-1E+10	1	-1E+10	1	-1E+10	1
4902551	33	C	07/07/2021	05:10	-134.916	49.416	0	13.10	0	12.8360	0	32.2980	0	24.333	0	12.988	0	260.9	4	98.9	4	-1E+10	1	-1E+10	1	-1E+10	1	-1E+10	1	-1E+10	1	-1E+10	1
4902551	33	C	07/07/2021	05:10	-134.916	49.416	0	14.00	0	12.8030	0	32.2990	0	24.341	0	13.880	0	261.3	4	99.0	4	-1E+10	1	-1E+10	1	-1E+10	1	-1E+10	1	-1E+10	1	-1E+10	1
4902551	33	C	07/07/2021	05:10	-134.916	49.416	0	15.10	0	12.7890	0	32.2980	0	24.342	0	14.971	0	261.9	4	99.2	4	-1E+10	1	-1E+10	1	-1E+10	1	-1E+10	1	-1E+10	1	-1E+10	1
4902551	33	C	07/07/2021	05:10	-134.916	49.416	0	16.00	0	12.7730	0	32.2970	0	24.345	0	15.863	0	262.3	4	99.3	4	-1E+10	1	-1E+10	1	-1E+10	1	-1E+10	1	-1E+10	1	-1E+10	1
4902551	33	C	07/07/2021	05:10	-134.916	49.416	0	17.20	0	12.7320	0	32.2930	0	24.350	0	17.053	0	263.2	4	99.6	4	-1E+10	1	-1E+10	1	-1E+10	1	-1E+10	1	-1E+10	1	-1E+10	1
4902551	33	C	07/07/2021	05:10	-134.916	49.416	0	18.00	0	12.6890	0	32.2950	0	24.360	0	17.846	0	263.9	4	99.8	4	-1E+10	1	-1E+10	1	-1E+10	1	-1E+10	1	-1E+10	1	-1E+10	1
4902551	33	C	07/07/2021	05:10	-134.916	49.416	0	18.90	0	12.6040	0	32.2940	0	24.375	0	18.738	0	264.5	4	99.8	4	-1E+10	1	-1E+10	1	-1E+10	1	-1E+10	1	-1E+10	1	-1E+10	1
4902551	33	C	07/07/2021	05:10	-134.916	49.416	0	20.10	0	12.5300	0	32.2970	0	24.392	0	19.928	0	265.2	4	99.9	4	-1E+10	1	-1E+10	1	-1E+10	1	-1E+10	1	-1E+10	1	-1E+10	1
4902551	33	C	07/07/2021	05:10	-134.916	49.416	0	21.00	0	12.4780	0	32.2970	0	24.402	0	20.820	0	265.6	4	100.0	4	-1E+10	1	-1E+10	1	-1E+10	1	-1E+10	1	-1E+10	1	-1E+10	1
4902551	33	C	07/07/2021	05:10	-134.916	49.416	0	22.30	0	12.3990	0	32.2960	0	24.416	0	22.109	0	266.2	4	100.0	4	-1E+10	1	-1E+10	1	-1E+10	1	-1E+10	1	-1E+10	1	-1E+10	1
4902551	33	C	07/07/2021	05:10	-134.916	49.416	0	23.20	0	12.3730	0	32.2940	0	24.419	0	23.001	0	266.7	4	100.2	4	-1E+10	1	-1E+10	1	-1E+10	1	-1E+10	1	-1E+10	1	-1E+10	1
4902551	33	C	07/07/2021	05:10	-134.916	49.416	0	23.90	0	12.3330	0	32.2940	0	24.427	0	23.695	0	267.3	4	100.3	4	-1E+10	1	-1E+10	1	-1E+10	1	-1E+10	1	-1E+10	1	-1E+10	1
4902551	33	C	07/07/2021	05:10	-134.916	49.416	0	24.90	0	12.2980	0	32.2940	0	24.433	0	24.686	0	267.8	4	100.4	4	-1E+10	1	-1E+10	1	-1E+10	1	-1E+10	1	-1E+10	1	-1E+10	1
4902551	33	C	07/07/2021	05:10	-134.916	49.416	0	25.80	0	12.2850	0	32.2920	0	24.434	0	25.579	0	268.5	4	100.7	4	-1E+10	1	-1E+10	1	-1E+10	1	-1E+10	1	-1E+10	1	-1E+10	1
4902551	33	C	07/07/2021	05:10	-134.916	49.416	0	26.80	0	12.2200	0	32.2920	0	24.447	0	26.570	0	269.3	4	100.8	4	-1E+10	1	-1E+10	1	-1E+10	1	-1E+10	1	-1E+10	1	-1E+10	1
4902551	33	C	07/07/2021	05:10	-134.916	49.416	0	27.80	0	12.0580	0	32.2960	0	24.480	0	27.561	0	270.1	4	100.8	4	-1E+10	1	-1E+10	1	-1E+10	1	-1E+10	1	-1E+10	1	-1E+10	1
4902551	33	C	07/07/2021	05:10	-134.916	49.416	0	29.00	0	11.9420	0	32.2970	0	24.502	0	28.751	0	271.2	4	100.9	4	-1E+10	1	-1E+10	1	-1E+10	1	-1E+10	1	-1E+10	1	-1E+10	1
4902551	33	C	07/07/2021	05:10	-134.916	49.416	0	29.90	0	11.8760	0	32.2980	0	24.515	0	29.643	0	272.0	4	101.1	4	-1E+10	1	-1E+10	1	-1E+10	1	-1E+10	1	-1E+10	1	-1E+10	1
4902551	33	C	07/07/2021	05:10	-134.916	49.416	0	31.30	0	11.8090	0	32.2940	0	24.525	0	31.031	0	273.5	4	101.5	4	-1E+10	1	-1E+10	1	-1E+10	1	-1E+10	1	-1E+10	1	-1E+10	1
4902551	33	C	07/07/2021	05:10	-134.916	49.416	0	31.90	0	11.7730	0	32.2930	0	24.531	0	31.626	0	274.5	4	101.8	4	-1E+10	1	-1E+10	1	-1E+10	1	-1E+10	1	-1E+10	1	-1E+10	1
4902551	33	C	07/07/2021	05:10	-134.916	49.416	0	32.80	0	11.6750	0	32.2880	0	24.545	0	32.518	0	276.2	4	102.2	4	-1E+10	1	-1E+10	1	-1E+10	1	-1E+10	1	-1E+10	1	-1E+10	1
4902551	33	C	07/07/2021	05:10	-134.916	49.416	0	34.00	0	10.9870	0	32.2980	0	24.676	0	33.708	0	279.3	4	101.9	4	-1E+10	1	-1E+10	1	-1E+10	1	-1E+10	1	-1E+10	1	-1E+10	1
4902551	33	C	07/07/2021	05:10	-134.916	49.416	0	35.10	0	10.7200	0	32.3050	0	24.728	0	34.798	0	280.4	4	101.7	4	-1E+10	1	-1E+10	1	-1E+10	1	-1E+10	1	-1E+10	1	-1E+10	1
4902551	33	C	07/07/2021	05:10	-134.916	49.416	0	35.90	0	10.5610	0	32.3020	0	24.753	0	35.591	0	281.0	4	101.6	4	-1E+10	1	-1E+10	1	-1E+10	1	-1E+10	1	-1E+10	1	-1E+10	1
4902551	33	C	07/07/2021	05:10	-134.916	49.416	0	36.80	0	10.2110	0	32.3130	0	24.820	0	36.483	0	282.0	4	101.2	4	-1E+10	1	-1E+10	1	-1E+10	1	-1E+10	1	-1E+10	1	-1E+10	1
4902551	33	C	07/07/2021	05:10	-134.916	49.416	0	37.80	0	10.1250	0	32.3100	0	24.832	0	37.475	0	282.1	4	101.1	4	-1E+10	1	-1E+10	1	-1E+10	1	-1E+10	1	-1E+10	1	-1E+10	1
4902551	33	C	07/07/2021	05:10	-134.916	49.416	0	38.80	0	10.0600	0	32.3150	0	24.847	0	38.466	0	282.2	4	100.9	4	-1E+10	1	-1E+10	1	-1E+10	1	-1E+10	1	-1E+10	1	-1E+10	1
4902551	33	C	07/07/2021	05:10	-134.916	49.416	0	39.80	0	10.0150	0	32.3150	0	24.855	0	39.457	0	282.5	4	100.9	4	-1E+10	1	-1E+10	1	-1E+10	1	-1E+10	1	-1E+10	1	-1E+10	1
4902551	33	C	07/07/2021	05:10	-134.916	49.416	0	40.90	0	9.9350	0	32.3160	0	24.869	0	40.548	0	282.5	4	100.8	4	-1E+10	1	-1E+10	1	-1E+10	1	-1E+10	1	-1E+10	1	-1E+10	1
4902551	33	C	07/07/2021	05:10	-134.916	49.416	0	41.90	0	9.8350	0	32.3190	0	24.887	0	41.539	0	282.6	4	100.6	4	-1E+10	1	-1E+10	1	-1E+10	1	-1E+10	1	-1E+10	1	-1E+10	1
4902551	33	C	07/07/2021	05:10	-134.916	49.416	0	43.00	0	9.7900	0	32.3170	0	24.893	0	42.629	0	282.8	4	100.5	4	-1E+10	1	-1E+10	1	-1E+10	1	-1E+10	1	-1E+10	1	-1E+10	1
4902551	33	C	07/07/2021	05:10	-134.916	49.416	0	44.10	0	9.6640	0	32.3220	0	24.918	0	43.720	0	283.4	4	100.5	4	-1E+10	1	-1E+10	1	-1E+10	1	-1E+10	1	-1E+10	1	-1E+10	1
4902551	33	C	07/07/2021	05:10	-134.916	49.416	0	44.80	0	9.6010	0	32.3280	0	24.933	0	44.413	0	283.7	4	100.5	4	-1E+10	1	-1E+10	1	-1E+10	1	-1E+10	1	-1E+10	1	-1E+10	1
4902551	33	C	07/07/2021	05:10	-134.916	49.416	0	45.80	0	9.4850	0	32.3350	0	24.957	0	45.405	0	283.7	4	100.2	4	-1E+10	1	-1E+10	1	-1E+10	1	-1E+10	1	-1E+10	1	-1E+10	1
4902551	33	C	07/07/2021	05:10	-134.916	49.416	0	46.80	0	9.4260	0	32.3370	0	24.968	0	46.396	0	283.8	4	100.1	4	-1E+10	1	-1E+10	1	-1E+10	1	-1E+10	1	-1E+10	1	-1E+10	1
4902551	33	C	07/07/2021	05:10	-134.916	49.416	0	47.80	0	9.3700	0	32.3180	0	24.962	0	47.387	0	284.0	4	100.1	4	-1E+10	1	-1E+10	1	-1E+10	1	-1E+10	1	-1E+10	1	-1E+10	1
4902551	33	C	07/07/2021	05:10	-134.916	49.416	0	48.80	0	9.1190	0	32.3430	0	25.021	0	48.378	0	284.2	4	99.6	4	-1E+10	1	-1E+10	1	-1E+10	1	-1E+10	1	-1E+10	1	-1E+10	1
4902551	33	C	07/07/2021	05:10	-134.916	49.416	0	49.90	0	8.9920	0	32.3390	0	25.037	0	49.469	0	284.5	4	99.4	4	-1E+10	1	-1E+10	1	-1E+10	1	-1E+10	1	-1E+10	1	-1E+10	1
4902551	33	C	07/07/2021	05:10	-134.916	49.416	0	50.90	0	8.8050	0	32.3630	0	25.085	0	50.460	0	284.8	4	99.1	4	-1E+10	1	-1E+10	1	-1E+10	1	-1E+10	1	-1E+10	1	-1E+10	1
4902551	33	C	07/07/2021	05:10	-134.916	49.416	0	51.90	0	8.6530	0	32.3510	0	25.099	0	51.451	0	285.1	4	98.9	4	-1E+10	1	-1E+10	1	-1E+10	1	-1E+10	1	-1E+10	1	-1E+10	1
4902551	33	C	07/07/2021	05:10	-134.916	49.416	0	53.10	0	8.5260	0	32.3700	0	25.133	0	52.641	0	285.1	4	98.6	4	-1E+10	1	-1E+10	1	-1E+10	1	-1E+10	1	-1E+10	1	-1E+10	1
4902551	33	C	07/07/2021	05:10	-134.916	49.416	0	54.10	0	8.2960	0	32.3600	0	25.159	0	53.632	0	284.9	4	98.0	4	-1E+10	1	-1E+10	1	-1E+10	1	-1E+10	1	-1E+10	1	-1E+10	1
4902551	33	C	07/07/2021	05:10	-134.916	49.416	0	55.00	0	8.1930	0	32.3630	0	25.176	0	54.524	0	284.6	4	97.7	4	-1E+10	1	-1E+10	1	-1E+10	1	-1E+10	1	-1E+10	1	-1E+10	1
4902551	33	C	07/07/2021	05:10	-134.916	49.416	0	56.00	0	8.0690	0	32.3670	0	25.198	0	55.515	0	284.1	4	97.3	4	-1E+10	1	-1E+10	1	-1E+10	1	-1E+10	1	-1E+10	1	-1E+10	1
4902551	33	C	07/07/2021	05:10	-134.916	49.416	0	56.90	0	8.0000	0	32.3740	0	25.213	0	56.407	0	283.7	4	97.0	4	-1E+10	1	-1E+10	1	-1E+10	1	-1E+10	1	-1E+10	1	-1E+10	1
4902551	33	C	07/07/2021	05:10	-134.916	49.416	0	57.70	0	7.9280	0	32.3700	0	25.220	0	57.200	0	283.1	4	96.6	4	-1E+10	1	-1E+10	1	-1E+10	1	-1E+10	1	-1E+10	1	-1E+10	1
4902551	33	C	07/07/2021	05:10	-134.916	49.416	0	58.90	0	7.7770	0	32.3830	0	25.252	0	58.390	0	282.7	4	96.2	4	-1E+10	1	-1E+10	1	-1E+10	1	-1E+10	1	-1E+10	1	-1E+10	1
4902551	33	C	07/07/2021	05:10	-134.916	49.416	0	60.10	0	7.7240	0	32.3790	0	25.256	0	59.579	0	282.1	4	95.9	4	-1E+10	1	-1E+10	1	-1E+10	1	-1E+10	1	-1E+10	1	-1E+10	1
4902551	33	C	07/07/2021	05:10	-134.916	49.416	0	61.00	0	7.6700	0	32.3830	0	25.267	0	60.471	0	281.5	4	95.6	4	-1E+10	1	-1E+10	1	-1E+10	1	-1E+10	1	-1E+10	1	-1E+10	1
4902551	33	C	07/07/2021	05:10	-134.916	49.416	0	61.90	0	7.6050	0	32.3840	0	25.277	0	61.363	0	281.0	4	95.2	4	-1E+10	1	-1E+10	1	-1E+10	1	-1E+10	1	-1E+10	1	-1E+10	1
4902551	33	C	07/07/2021	05:10	-134.916	49.416	0	63.00	0	7.5470	0	32.3890	0	25.289	0	62.454	0	280.2	4	94.9	4	-1E+10	1	-1E+10	1	-1E+10	1	-1E+10	1	-1E+10	1	-1E+10	1
4902551	33	C	07/07/2021	05:10	-134.916	49.416	0	64.00	0	7.4500	0	32.3910	0	25.304	0	63.445	0	279.7	4	94.5	4	-1E+10	1	-1E+10	1	-1E+10	1	-1E+10	1	-1E+10	1	-1E+10	1
4902551	33	C	07/07/2021	05:10	-134.916	49.416	0	65.10	0	7.3490	0	32.3970	0	25.323	0	64.535	0	279.1	4	94.1	4	-1E+10	1	-1E+10	1	-1E+10	1	-1E+10	1	-1E+10	1	-1E+10	1
4902551	33	C	07/07/2021	05:10	-134.916	49.416	0	65.80	0	7.3290	0	32.3970	0	25.325	0	65.229	0	278.6	4	93.9	4	-1E+10	1	-1E+10	1	-1E+10	1	-1E+10	1	-1E+10	1	-1E+10	1
4902551	33	C	07/07/2021	05:10	-134.916	49.416	0	66.80	0	7.2460	0	32.4050	0	25.343	0	66.220	0	278.2	4	93.5	4	-1E+10	1	-1E+10	1	-1E+10	1	-1E+10	1	-1E+10	1	-1E+10	1
4902551	33	C	07/07/2021	05:10	-134.916	49.416	0	67.90	0	7.2120	0	32.4050	0	25.348	0	67.310	0	277.6	4	93.3	4	-1E+10	1	-1E+10	1	-1E+10	1	-1E+10	1	-1E+10	1	-1E+10	1
4902551	33	C	07/07/2021	05:10	-134.916	49.416	0	68.80	0	7.1850	0	32.4080	0	25.354	0	68.202	0	276.9	4	93.0	4	-1E+10	1	-1E+10	1	-1E+10	1	-1E+10	1	-1E+10	1	-1E+10	1
4902551	33	C	07/07/2021	05:10	-134.916	49.416	0	69.80	0	7.1520	0	32.4090	0	25.359	0	69.194	0	276.3	4	92.7	4	-1E+10	1	-1E+10	1	-1E+10	1	-1E+10	1	-1E+10	1	-1E+10	1
4902551	33	C	07/07/2021	05:10	-134.916	49.416	0	70.80	0	7.1120	0	32.4120	0	25.367	0	70.185	0	275.7	4	92.4	4	-1E+10	1	-1E+10	1	-1E+10	1	-1E+10	1	-1E+10	1	-1E+10	1
4902551	33	C	07/07/2021	05:10	-134.916	49.416	0	72.00	0	7.0250	0	32.4180	0	25.383	0	71.374	0	274.7	4	91.9	4	-1E+10	1	-1E+10	1	-1E+10	1	-1E+10	1	-1E+10	1	-1E+10	1
4902551	33	C	07/07/2021	05:10	-134.916	49.416	0	73.00	0	6.9720	0	32.4180	0	25.390	0	72.365	0	274.0	4	91.6	4	-1E+10	1	-1E+10	1	-1E+10	1	-1E+10	1	-1E+10	1	-1E+10	1
4902551	33	C	07/07/2021	05:10	-134.916	49.416	0	73.90	0	6.9340	0	32.4210	0	25.398	0	73.257	0	273.1	4	91.2	4	-1E+10	1	-1E+10	1	-1E+10	1	-1E+10	1	-1E+10	1	-1E+10	1
4902551	33	C	07/07/2021	05:10	-134.916	49.416	0	75.10	0	6.8990	0	32.4230	0	25.404	0	74.447	0	271.8	4	90.7	4	-1E+10	1	-1E+10	1	-1E+10	1	-1E+10	1	-1E+10	1	-1E+10	1
4902551	33	C	07/07/2021	05:10	-134.916	49.416	0	76.00	0	6.8510	0	32.4280	0	25.414	0	75.339	0	271.0	4	90.3	4	-1E+10	1	-1E+10	1	-1E+10	1	-1E+10	1	-1E+10	1	-1E+10	1
4902551	33	C	07/07/2021	05:10	-134.916	49.416	0	76.80	0	6.8050	0	32.4310	0	25.422	0	76.131	0	270.0	4	89.9	4	-1E+10	1	-1E+10	1	-1E+10	1	-1E+10	1	-1E+10	1	-1E+10	1
4902551	33	C	07/07/2021	05:10	-134.916	49.416	0	77.90	0	6.7420	0	32.4370	0	25.435	0	77.222	0	268.6	4	89.3	4	-1E+10	1	-1E+10	1	-1E+10	1	-1E+10	1	-1E+10	1	-1E+10	1
4902551	33	C	07/07/2021	05:10	-134.916	49.416	0	79.00	0	6.6720	0	32.4420	0	25.448	0	78.312	0	267.1	4	88.7	4	-1E+10	1	-1E+10	1	-1E+10	1	-1E+10	1	-1E+10	1	-1E+10	1
4902551	33	C	07/07/2021	05:10	-134.916	49.416	0	80.20	0	6.5710	0	32.4620	0	25.477	0	79.501	0	265.7	4	88.0	4	-1E+10	1	-1E+10	1	-1E+10	1	-1E+10	1	-1E+10	1	-1E+10	1
4902551	33	C	07/07/2021	05:10	-134.916	49.416	0	80.90	0	6.5520	0	32.4670	0	25.484	0	80.195	0	263.9	4	87.4	4	-1E+10	1	-1E+10	1	-1E+10	1	-1E+10	1	-1E+10	1	-1E+10	1
4902551	33	C	07/07/2021	05:10	-134.916	49.416	0	82.00	0	6.4980	0	32.4850	0	25.505	0	81.285	0	261.3	4	86.4	4	-1E+10	1	-1E+10	1	-1E+10	1	-1E+10	1	-1E+10	1	-1E+10	1
4902551	33	C	07/07/2021	05:10	-134.916	49.416	0	83.00	0	6.4730	0	32.5030	0	25.522	0	82.276	0	258.3	4	85.4	4	-1E+10	1	-1E+10	1	-1E+10	1	-1E+10	1	-1E+10	1	-1E+10	1
4902551	33	C	07/07/2021	05:10	-134.916	49.416	0	84.00	0	6.4720	0	32.5150	0	25.532	0	83.267	0	255.4	4	84.4	4	-1E+10	1	-1E+10	1	-1E+10	1	-1E+10	1	-1E+10	1	-1E+10	1
4902551	33	C	07/07/2021	05:10	-134.916	49.416	0	85.10	0	6.4650	0	32.5430	0	25.555	0	84.358	0	251.9	4	83.3	4	-1E+10	1	-1E+10	1	-1E+10	1	-1E+10	1	-1E+10	1	-1E+10	1
4902551	33	C	07/07/2021	05:10	-134.916	49.416	0	86.00	0	6.4630	0	32.5650	0	25.572	0	85.250	0	249.0	4	82.3	4	-1E+10	1	-1E+10	1	-1E+10	1	-1E+10	1	-1E+10	1	-1E+10	1
4902551	33	C	07/07/2021	05:10	-134.916	49.416	0	87.00	0	6.4610	0	32.5930	0	25.595	0	86.241	0	246.0	4	81.4	4	-1E+10	1	-1E+10	1	-1E+10	1	-1E+10	1	-1E+10	1	-1E+10	1
4902551	33	C	07/07/2021	05:10	-134.916	49.416	0	87.90	0	6.4620	0	32.6150	0	25.612	0	87.133	0	242.6	4	80.2	4	-1E+10	1	-1E+10	1	-1E+10	1	-1E+10	1	-1E+10	1	-1E+10	1
4902551	33	C	07/07/2021	05:10	-134.916	49.416	0	88.90	0	6.4660	0	32.6410	0	25.632	0	88.124	0	239.5	4	79.2	4	-1E+10	1	-1E+10	1	-1E+10	1	-1E+10	1	-1E+10	1	-1E+10	1
4902551	33	C	07/07/2021	05:10	-134.916	49.416	0	89.90	0	6.4610	0	32.6760	0	25.660	0	89.115	0	237.0	4	78.4	4	-1E+10	1	-1E+10	1	-1E+10	1	-1E+10	1	-1E+10	1	-1E+10	1
4902551	33	C	07/07/2021	05:10	-134.916	49.416	0	91.00	0	6.4620	0	32.6880	0	25.669	0	90.205	0	233.7	4	77.3	4	-1E+10	1	-1E+10	1	-1E+10	1	-1E+10	1	-1E+10	1	-1E+10	1
4902551	33	C	07/07/2021	05:10	-134.916	49.416	0	92.20	0	6.4740	0	32.7110	0	25.686	0	91.394	0	229.9	4	76.1	4	-1E+10	1	-1E+10	1	-1E+10	1	-1E+10	1	-1E+10	1	-1E+10	1
4902551	33	C	07/07/2021	05:10	-134.916	49.416	0	92.90	0	6.4840	0	32.7460	0	25.712	0	92.088	0	227.4	4	75.3	4	-1E+10	1	-1E+10	1	-1E+10	1	-1E+10	1	-1E+10	1	-1E+10	1
4902551	33	C	07/07/2021	05:10	-134.916	49.416	0	94.10	0	6.4890	0	32.7760	0	25.735	0	93.277	0	222.8	4	73.8	4	-1E+10	1	-1E+10	1	-1E+10	1	-1E+10	1	-1E+10	1	-1E+10	1
4902551	33	C	07/07/2021	05:10	-134.916	49.416	0	94.80	0	6.4680	0	32.8030	0	25.759	0	93.971	0	219.7	4	72.8	4	-1E+10	1	-1E+10	1	-1E+10	1	-1E+10	1	-1E+10	1	-1E+10	1
4902551	33	C	07/07/2021	05:10	-134.916	49.416	0	96.00	0	6.4600	0	32.8470	0	25.795	0	95.160	0	215.5	4	71.4	4	-1E+10	1	-1E+10	1	-1E+10	1	-1E+10	1	-1E+10	1	-1E+10	1
4902551	33	C	07/07/2021	05:10	-134.916	49.416	0	97.30	0	6.4580	0	32.8950	0	25.833	0	96.448	0	212.2	4	70.3	4	-1E+10	1	-1E+10	1	-1E+10	1	-1E+10	1	-1E+10	1	-1E+10	1
4902551	33	C	07/07/2021	05:10	-134.916	49.416	0	98.00	0	6.4600	0	32.9260	0	25.857	0	97.142	0	210.6	4	69.8	4	-1E+10	1	-1E+10	1	-1E+10	1	-1E+10	1	-1E+10	1	-1E+10	1
4902551	33	C	07/07/2021	05:10	-134.916	49.416	0	98.90	0	6.4590	0	32.9610	0	25.885	0	98.034	0	208.4	4	69.1	4	-1E+10	1	-1E+10	1	-1E+10	1	-1E+10	1	-1E+10	1	-1E+10	1
4902551	33	C	07/07/2021	05:10	-134.916	49.416	0	100.00	0	6.4230	0	33.0040	0	25.924	0	99.124	0	205.6	4	68.2	4	-1E+10	1	-1E+10	1	-1E+10	1	-1E+10	1	-1E+10	1	-1E+10	1
4902551	33	C	07/07/2021	05:10	-134.916	49.416	0	100.90	0	6.4090	0	33.0250	0	25.942	0	100.016	0	203.9	4	67.6	4	-1E+10	1	-1E+10	1	-1E+10	1	-1E+10	1	-1E+10	1	-1E+10	1
4902551	33	C	07/07/2021	05:10	-134.916	49.416	0	101.80	0	6.4100	0	33.0450	0	25.958	0	100.908	0	202.1	4	67.0	4	-1E+10	1	-1E+10	1	-1E+10	1	-1E+10	1	-1E+10	1	-1E+10	1
4902551	33	C	07/07/2021	05:10	-134.916	49.416	0	102.80	0	6.4150	0	33.0560	0	25.966	0	101.899	0	200.2	4	66.3	4	-1E+10	1	-1E+10	1	-1E+10	1	-1E+10	1	-1E+10	1	-1E+10	1
4902551	33	C	07/07/2021	05:10	-134.916	49.416	0	104.10	0	6.4330	0	33.0840	0	25.986	0	103.187	0	197.8	4	65.6	4	-1E+10	1	-1E+10	1	-1E+10	1	-1E+10	1	-1E+10	1	-1E+10	1
4902551	33	C	07/07/2021	05:10	-134.916	49.416	0	105.20	0	6.4490	0	33.1000	0	25.996	0	104.277	0	196.1	4	65.1	4	-1E+10	1	-1E+10	1	-1E+10	1	-1E+10	1	-1E+10	1	-1E+10	1
4902551	33	C	07/07/2021	05:10	-134.916	49.416	0	105.80	0	6.4580	0	33.1090	0	26.002	0	104.872	0	194.8	4	64.7	4	-1E+10	1	-1E+10	1	-1E+10	1	-1E+10	1	-1E+10	1	-1E+10	1
4902551	33	C	07/07/2021	05:10	-134.916	49.416	0	107.10	0	6.4770	0	33.1280	0	26.015	0	106.160	0	191.6	4	63.6	4	-1E+10	1	-1E+10	1	-1E+10	1	-1E+10	1	-1E+10	1	-1E+10	1
4902551	33	C	07/07/2021	05:10	-134.916	49.416	0	108.00	0	6.4900	0	33.1440	0	26.026	0	107.052	0	189.0	4	62.8	4	-1E+10	1	-1E+10	1	-1E+10	1	-1E+10	1	-1E+10	1	-1E+10	1
4902551	33	C	07/07/2021	05:10	-134.916	49.416	0	109.10	0	6.4950	0	33.1670	0	26.043	0	108.142	0	185.5	4	61.7	4	-1E+10	1	-1E+10	1	-1E+10	1	-1E+10	1	-1E+10	1	-1E+10	1
4902551	33	C	07/07/2021	05:10	-134.916	49.416	0	109.70	0	6.5000	0	33.1820	0	26.054	0	108.736	0	183.4	4	61.0	4	-1E+10	1	-1E+10	1	-1E+10	1	-1E+10	1	-1E+10	1	-1E+10	1
4902551	33	C	07/07/2021	05:10	-134.916	49.416	0	111.10	0	6.5050	0	33.2140	0	26.079	0	110.124	0	180.1	4	59.9	4	-1E+10	1	-1E+10	1	-1E+10	1	-1E+10	1	-1E+10	1	-1E+10	1
4902551	33	C	07/07/2021	05:10	-134.916	49.416	0	112.20	0	6.4990	0	33.2340	0	26.096	0	111.214	0	178.0	4	59.2	4	-1E+10	1	-1E+10	1	-1E+10	1	-1E+10	1	-1E+10	1	-1E+10	1
4902551	33	C	07/07/2021	05:10	-134.916	49.416	0	112.90	0	6.4900	0	33.2500	0	26.109	0	111.907	0	176.7	4	58.7	4	-1E+10	1	-1E+10	1	-1E+10	1	-1E+10	1	-1E+10	1	-1E+10	1
4902551	33	C	07/07/2021	05:10	-134.916	49.416	0	113.90	0	6.4670	0	33.2920	0	26.145	0	112.898	0	175.2	4	58.2	4	-1E+10	1	-1E+10	1	-1E+10	1	-1E+10	1	-1E+10	1	-1E+10	1
4902551	33	C	07/07/2021	05:10	-134.916	49.416	0	114.80	0	6.4620	0	33.3150	0	26.164	0	113.790	0	174.2	4	57.9	4	-1E+10	1	-1E+10	1	-1E+10	1	-1E+10	1	-1E+10	1	-1E+10	1
4902551	33	C	07/07/2021	05:10	-134.916	49.416	0	116.00	0	6.4630	0	33.3210	0	26.169	0	114.979	0	172.8	4	57.5	4	-1E+10	1	-1E+10	1	-1E+10	1	-1E+10	1	-1E+10	1	-1E+10	1
4902551	33	C	07/07/2021	05:10	-134.916	49.416	0	116.70	0	6.4620	0	33.3220	0	26.170	0	115.673	0	171.8	4	57.1	4	-1E+10	1	-1E+10	1	-1E+10	1	-1E+10	1	-1E+10	1	-1E+10	1
4902551	33	C	07/07/2021	05:10	-134.916	49.416	0	117.70	0	6.4600	0	33.3240	0	26.172	0	116.664	0	169.9	4	56.5	4	-1E+10	1	-1E+10	1	-1E+10	1	-1E+10	1	-1E+10	1	-1E+10	1
4902551	33	C	07/07/2021	05:10	-134.916	49.416	0	118.70	0	6.4310	0	33.3470	0	26.193	0	117.655	0	167.4	4	55.6	4	-1E+10	1	-1E+10	1	-1E+10	1	-1E+10	1	-1E+10	1	-1E+10	1
4902551	33	C	07/07/2021	05:10	-134.916	49.416	0	120.00	0	6.4140	0	33.3950	0	26.234	0	118.943	0	165.4	4	55.0	4	-1E+10	1	-1E+10	1	-1E+10	1	-1E+10	1	-1E+10	1	-1E+10	1
4902551	33	C	07/07/2021	05:10	-134.916	49.416	0	120.90	0	6.4190	0	33.4180	0	26.251	0	119.835	0	164.6	4	54.7	4	-1E+10	1	-1E+10	1	-1E+10	1	-1E+10	1	-1E+10	1	-1E+10	1
4902551	33	C	07/07/2021	05:10	-134.916	49.416	0	121.90	0	6.4110	0	33.4500	0	26.277	0	120.826	0	164.1	4	54.5	4	-1E+10	1	-1E+10	1	-1E+10	1	-1E+10	1	-1E+10	1	-1E+10	1
4902551	33	C	07/07/2021	05:10	-134.916	49.416	0	122.90	0	6.4040	0	33.4620	0	26.288	0	121.817	0	163.8	4	54.4	4	-1E+10	1	-1E+10	1	-1E+10	1	-1E+10	1	-1E+10	1	-1E+10	1
4902551	33	C	07/07/2021	05:10	-134.916	49.416	0	123.80	0	6.4000	0	33.4710	0	26.295	0	122.708	0	163.5	4	54.4	4	-1E+10	1	-1E+10	1	-1E+10	1	-1E+10	1	-1E+10	1	-1E+10	1
4902551	33	C	07/07/2021	05:10	-134.916	49.416	0	124.90	0	6.3970	0	33.4750	0	26.299	0	123.798	0	163.3	4	54.3	4	-1E+10	1	-1E+10	1	-1E+10	1	-1E+10	1	-1E+10	1	-1E+10	1
4902551	33	C	07/07/2021	05:10	-134.916	49.416	0	126.00	0	6.3900	0	33.4960	0	26.316	0	124.888	0	163.2	4	54.2	4	-1E+10	1	-1E+10	1	-1E+10	1	-1E+10	1	-1E+10	1	-1E+10	1
4902551	33	C	07/07/2021	05:10	-134.916	49.416	0	127.10	0	6.3610	0	33.5650	0	26.375	0	125.978	0	163.2	4	54.2	4	-1E+10	1	-1E+10	1	-1E+10	1	-1E+10	1	-1E+10	1	-1E+10	1
4902551	33	C	07/07/2021	05:10	-134.916	49.416	0	127.90	0	6.3580	0	33.5700	0	26.379	0	126.771	0	163.3	4	54.3	4	-1E+10	1	-1E+10	1	-1E+10	1	-1E+10	1	-1E+10	1	-1E+10	1
4902551	33	C	07/07/2021	05:10	-134.916	49.416	0	128.70	0	6.3530	0	33.5770	0	26.385	0	127.564	0	163.4	4	54.3	4	-1E+10	1	-1E+10	1	-1E+10	1	-1E+10	1	-1E+10	1	-1E+10	1
4902551	33	C	07/07/2021	05:10	-134.916	49.416	0	129.90	0	6.3240	0	33.6050	0	26.411	0	128.753	0	163.8	4	54.4	4	-1E+10	1	-1E+10	1	-1E+10	1	-1E+10	1	-1E+10	1	-1E+10	1
4902551	33	C	07/07/2021	05:10	-134.916	49.416	0	131.20	0	6.3050	0	33.6230	0	26.428	0	130.041	0	164.2	4	54.5	4	-1E+10	1	-1E+10	1	-1E+10	1	-1E+10	1	-1E+10	1	-1E+10	1
4902551	33	C	07/07/2021	05:10	-134.916	49.416	0	132.00	0	6.2960	0	33.6280	0	26.433	0	130.834	0	164.3	4	54.6	4	-1E+10	1	-1E+10	1	-1E+10	1	-1E+10	1	-1E+10	1	-1E+10	1
4902551	33	C	07/07/2021	05:10	-134.916	49.416	0	132.80	0	6.2770	0	33.6380	0	26.443	0	131.626	0	164.4	4	54.6	4	-1E+10	1	-1E+10	1	-1E+10	1	-1E+10	1	-1E+10	1	-1E+10	1
4902551	33	C	07/07/2021	05:10	-134.916	49.416	0	133.70	0	6.2670	0	33.6440	0	26.449	0	132.518	0	164.3	4	54.5	4	-1E+10	1	-1E+10	1	-1E+10	1	-1E+10	1	-1E+10	1	-1E+10	1
4902551	33	C	07/07/2021	05:10	-134.916	49.416	0	134.90	0	6.2620	0	33.6460	0	26.451	0	133.707	0	164.1	4	54.4	4	-1E+10	1	-1E+10	1	-1E+10	1	-1E+10	1	-1E+10	1	-1E+10	1
4902551	33	C	07/07/2021	05:10	-134.916	49.416	0	136.20	0	6.2560	0	33.6490	0	26.454	0	134.995	0	163.6	4	54.3	4	-1E+10	1	-1E+10	1	-1E+10	1	-1E+10	1	-1E+10	1	-1E+10	1
4902551	33	C	07/07/2021	05:10	-134.916	49.416	0	137.00	0	6.2420	0	33.6580	0	26.463	0	135.788	0	163.2	4	54.1	4	-1E+10	1	-1E+10	1	-1E+10	1	-1E+10	1	-1E+10	1	-1E+10	1
4902551	33	C	07/07/2021	05:10	-134.916	49.416	0	137.90	0	6.2350	0	33.6600	0	26.466	0	136.679	0	162.8	4	54.0	4	-1E+10	1	-1E+10	1	-1E+10	1	-1E+10	1	-1E+10	1	-1E+10	1
4902551	33	C	07/07/2021	05:10	-134.916	49.416	0	138.70	0	6.2310	0	33.6620	0	26.468	0	137.472	0	162.3	4	53.8	4	-1E+10	1	-1E+10	1	-1E+10	1	-1E+10	1	-1E+10	1	-1E+10	1
4902551	33	C	07/07/2021	05:10	-134.916	49.416	0	139.60	0	6.2210	0	33.6660	0	26.472	0	138.364	0	161.7	4	53.6	4	-1E+10	1	-1E+10	1	-1E+10	1	-1E+10	1	-1E+10	1	-1E+10	1
4902551	33	C	07/07/2021	05:10	-134.916	49.416	0	140.90	0	6.1820	0	33.6790	0	26.488	0	139.652	0	160.8	4	53.3	4	-1E+10	1	-1E+10	1	-1E+10	1	-1E+10	1	-1E+10	1	-1E+10	1
4902551	33	C	07/07/2021	05:10	-134.916	49.416	0	142.20	0	6.1750	0	33.6810	0	26.490	0	140.940	0	159.8	4	52.9	4	-1E+10	1	-1E+10	1	-1E+10	1	-1E+10	1	-1E+10	1	-1E+10	1
4902551	33	C	07/07/2021	05:10	-134.916	49.416	0	143.10	0	6.1500	0	33.6900	0	26.500	0	141.832	0	159.1	4	52.7	4	-1E+10	1	-1E+10	1	-1E+10	1	-1E+10	1	-1E+10	1	-1E+10	1
4902551	33	C	07/07/2021	05:10	-134.916	49.416	0	144.00	0	6.1250	0	33.6970	0	26.509	0	142.723	0	158.5	4	52.4	4	-1E+10	1	-1E+10	1	-1E+10	1	-1E+10	1	-1E+10	1	-1E+10	1
4902551	33	C	07/07/2021	05:10	-134.916	49.416	0	144.90	0	6.1160	0	33.7000	0	26.513	0	143.615	0	157.9	4	52.2	4	-1E+10	1	-1E+10	1	-1E+10	1	-1E+10	1	-1E+10	1	-1E+10	1
4902551	33	C	07/07/2021	05:10	-134.916	49.416	0	145.80	0	6.1070	0	33.7040	0	26.517	0	144.507	0	157.2	4	52.0	4	-1E+10	1	-1E+10	1	-1E+10	1	-1E+10	1	-1E+10	1	-1E+10	1
4902551	33	C	07/07/2021	05:10	-134.916	49.416	0	146.60	0	6.1000	0	33.7060	0	26.519	0	145.299	0	156.5	4	51.7	4	-1E+10	1	-1E+10	1	-1E+10	1	-1E+10	1	-1E+10	1	-1E+10	1
4902551	33	C	07/07/2021	05:10	-134.916	49.416	0	147.90	0	6.0960	0	33.7070	0	26.521	0	146.587	0	155.2	4	51.3	4	-1E+10	1	-1E+10	1	-1E+10	1	-1E+10	1	-1E+10	1	-1E+10	1
4902551	33	C	07/07/2021	05:10	-134.916	49.416	0	149.30	0	6.0860	0	33.7110	0	26.525	0	147.974	0	153.8	4	50.8	4	-1E+10	1	-1E+10	1	-1E+10	1	-1E+10	1	-1E+10	1	-1E+10	1
4902551	33	C	07/07/2021	05:10	-134.916	49.416	0	150.20	0	6.0830	0	33.7120	0	26.526	0	148.866	0	152.8	4	50.5	4	-1E+10	1	-1E+10	1	-1E+10	1	-1E+10	1	-1E+10	1	-1E+10	1
4902551	33	C	07/07/2021	05:10	-134.916	49.416	0	151.00	0	6.0780	0	33.7140	0	26.528	0	149.659	0	151.6	4	50.1	4	-1E+10	1	-1E+10	1	-1E+10	1	-1E+10	1	-1E+10	1	-1E+10	1
4902551	33	C	07/07/2021	05:10	-134.916	49.416	0	151.90	0	6.0730	0	33.7150	0	26.530	0	150.550	0	150.4	4	49.7	4	-1E+10	1	-1E+10	1	-1E+10	1	-1E+10	1	-1E+10	1	-1E+10	1
4902551	33	C	07/07/2021	05:10	-134.916	49.416	0	152.80	0	6.0630	0	33.7190	0	26.534	0	151.442	0	148.9	4	49.2	4	-1E+10	1	-1E+10	1	-1E+10	1	-1E+10	1	-1E+10	1	-1E+10	1
4902551	33	C	07/07/2021	05:10	-134.916	49.416	0	153.70	0	6.0540	0	33.7220	0	26.538	0	152.334	0	147.4	4	48.7	4	-1E+10	1	-1E+10	1	-1E+10	1	-1E+10	1	-1E+10	1	-1E+10	1
4902551	33	C	07/07/2021	05:10	-134.916	49.416	0	154.60	0	6.0380	0	33.7250	0	26.542	0	153.225	0	145.7	4	48.1	4	-1E+10	1	-1E+10	1	-1E+10	1	-1E+10	1	-1E+10	1	-1E+10	1
4902551	33	C	07/07/2021	05:10	-134.916	49.416	0	155.90	0	5.9980	0	33.7340	0	26.554	0	154.513	0	143.6	4	47.4	4	-1E+10	1	-1E+10	1	-1E+10	1	-1E+10	1	-1E+10	1	-1E+10	1
4902551	33	C	07/07/2021	05:10	-134.916	49.416	0	157.30	0	5.9840	0	33.7370	0	26.558	0	155.900	0	141.7	4	46.7	4	-1E+10	1	-1E+10	1	-1E+10	1	-1E+10	1	-1E+10	1	-1E+10	1
4902551	33	C	07/07/2021	05:10	-134.916	49.416	0	158.20	0	5.9790	0	33.7380	0	26.560	0	156.792	0	140.3	4	46.3	4	-1E+10	1	-1E+10	1	-1E+10	1	-1E+10	1	-1E+10	1	-1E+10	1
4902551	33	C	07/07/2021	05:10	-134.916	49.416	0	159.10	0	5.9670	0	33.7390	0	26.562	0	157.684	0	138.8	4	45.8	4	-1E+10	1	-1E+10	1	-1E+10	1	-1E+10	1	-1E+10	1	-1E+10	1
4902551	33	C	07/07/2021	05:10	-134.916	49.416	0	160.00	0	5.9560	0	33.7410	0	26.565	0	158.575	0	137.6	4	45.4	4	-1E+10	1	-1E+10	1	-1E+10	1	-1E+10	1	-1E+10	1	-1E+10	1
4902551	33	C	07/07/2021	05:10	-134.916	49.416	0	160.80	0	5.9360	0	33.7470	0	26.572	0	159.368	0	137.1	4	45.2	4	-1E+10	1	-1E+10	1	-1E+10	1	-1E+10	1	-1E+10	1	-1E+10	1
4902551	33	C	07/07/2021	05:10	-134.916	49.416	0	161.70	0	5.9250	0	33.7490	0	26.575	0	160.260	0	136.7	4	45.0	4	-1E+10	1	-1E+10	1	-1E+10	1	-1E+10	1	-1E+10	1	-1E+10	1
4902551	33	C	07/07/2021	05:10	-134.916	49.416	0	162.60	0	5.8960	0	33.7540	0	26.583	0	161.151	0	136.4	4	44.9	4	-1E+10	1	-1E+10	1	-1E+10	1	-1E+10	1	-1E+10	1	-1E+10	1
4902551	33	C	07/07/2021	05:10	-134.916	49.416	0	163.90	0	5.8950	0	33.7540	0	26.583	0	162.439	0	135.8	4	44.7	4	-1E+10	1	-1E+10	1	-1E+10	1	-1E+10	1	-1E+10	1	-1E+10	1
4902551	33	C	07/07/2021	05:10	-134.916	49.416	0	165.30	0	5.8700	0	33.7560	0	26.588	0	163.826	0	135.2	4	44.5	4	-1E+10	1	-1E+10	1	-1E+10	1	-1E+10	1	-1E+10	1	-1E+10	1
4902551	33	C	07/07/2021	05:10	-134.916	49.416	0	166.10	0	5.8580	0	33.7550	0	26.588	0	164.619	0	134.6	4	44.3	4	-1E+10	1	-1E+10	1	-1E+10	1	-1E+10	1	-1E+10	1	-1E+10	1
4902551	33	C	07/07/2021	05:10	-134.916	49.416	0	167.00	0	5.8360	0	33.7570	0	26.593	0	165.510	0	134.2	4	44.1	4	-1E+10	1	-1E+10	1	-1E+10	1	-1E+10	1	-1E+10	1	-1E+10	1
4902551	33	C	07/07/2021	05:10	-134.916	49.416	0	167.80	0	5.8090	0	33.7600	0	26.598	0	166.303	0	133.8	4	43.9	4	-1E+10	1	-1E+10	1	-1E+10	1	-1E+10	1	-1E+10	1	-1E+10	1
4902551	33	C	07/07/2021	05:10	-134.916	49.416	0	168.70	0	5.7970	0	33.7590	0	26.599	0	167.194	0	133.1	4	43.7	4	-1E+10	1	-1E+10	1	-1E+10	1	-1E+10	1	-1E+10	1	-1E+10	1
4902551	33	C	07/07/2021	05:10	-134.916	49.416	0	169.60	0	5.7900	0	33.7600	0	26.601	0	168.086	0	132.2	4	43.4	4	-1E+10	1	-1E+10	1	-1E+10	1	-1E+10	1	-1E+10	1	-1E+10	1
4902551	33	C	07/07/2021	05:10	-134.916	49.416	0	170.90	0	5.7540	0	33.7640	0	26.608	0	169.374	0	131.3	4	43.1	4	-1E+10	1	-1E+10	1	-1E+10	1	-1E+10	1	-1E+10	1	-1E+10	1
4902551	33	C	07/07/2021	05:10	-134.916	49.416	0	172.20	0	5.7320	0	33.7640	0	26.611	0	170.662	0	130.4	4	42.8	4	-1E+10	1	-1E+10	1	-1E+10	1	-1E+10	1	-1E+10	1	-1E+10	1
4902551	33	C	07/07/2021	05:10	-134.916	49.416	0	173.10	0	5.7110	0	33.7700	0	26.618	0	171.553	0	130.3	4	42.7	4	-1E+10	1	-1E+10	1	-1E+10	1	-1E+10	1	-1E+10	1	-1E+10	1
4902551	33	C	07/07/2021	05:10	-134.916	49.416	0	174.00	0	5.7110	0	33.7700	0	26.618	0	172.445	0	130.3	4	42.7	4	-1E+10	1	-1E+10	1	-1E+10	1	-1E+10	1	-1E+10	1	-1E+10	1
4902551	33	C	07/07/2021	05:10	-134.916	49.416	0	174.80	0	5.7020	0	33.7730	0	26.622	0	173.237	0	130.5	4	42.8	4	-1E+10	1	-1E+10	1	-1E+10	1	-1E+10	1	-1E+10	1	-1E+10	1
4902551	33	C	07/07/2021	05:10	-134.916	49.416	0	175.70	0	5.6960	0	33.7710	0	26.621	0	174.129	0	130.6	4	42.8	4	-1E+10	1	-1E+10	1	-1E+10	1	-1E+10	1	-1E+10	1	-1E+10	1
4902551	33	C	07/07/2021	05:10	-134.916	49.416	0	176.60	0	5.6750	0	33.7700	0	26.623	0	175.020	0	130.7	4	42.8	4	-1E+10	1	-1E+10	1	-1E+10	1	-1E+10	1	-1E+10	1	-1E+10	1
4902551	33	C	07/07/2021	05:10	-134.916	49.416	0	177.90	0	5.6610	0	33.7700	0	26.624	0	176.308	0	130.8	4	42.8	4	-1E+10	1	-1E+10	1	-1E+10	1	-1E+10	1	-1E+10	1	-1E+10	1
4902551	33	C	07/07/2021	05:10	-134.916	49.416	0	179.30	0	5.6350	0	33.7740	0	26.631	0	177.695	0	130.7	4	42.8	4	-1E+10	1	-1E+10	1	-1E+10	1	-1E+10	1	-1E+10	1	-1E+10	1
4902551	33	C	07/07/2021	05:10	-134.916	49.416	0	180.20	0	5.6110	0	33.7700	0	26.630	0	178.587	0	130.4	4	42.6	4	-1E+10	1	-1E+10	1	-1E+10	1	-1E+10	1	-1E+10	1	-1E+10	1
4902551	33	C	07/07/2021	05:10	-134.916	49.416	0	181.10	0	5.5960	0	33.7680	0	26.631	0	179.478	0	129.8	4	42.4	4	-1E+10	1	-1E+10	1	-1E+10	1	-1E+10	1	-1E+10	1	-1E+10	1
4902551	33	C	07/07/2021	05:10	-134.916	49.416	0	182.00	0	5.5910	0	33.7680	0	26.631	0	180.370	0	129.1	4	42.2	4	-1E+10	1	-1E+10	1	-1E+10	1	-1E+10	1	-1E+10	1	-1E+10	1
4902551	33	C	07/07/2021	05:10	-134.916	49.416	0	182.90	0	5.5870	0	33.7690	0	26.633	0	181.261	0	128.4	4	42.0	4	-1E+10	1	-1E+10	1	-1E+10	1	-1E+10	1	-1E+10	1	-1E+10	1
4902551	33	C	07/07/2021	05:10	-134.916	49.416	0	183.80	0	5.5920	0	33.7730	0	26.635	0	182.153	0	127.9	4	41.8	4	-1E+10	1	-1E+10	1	-1E+10	1	-1E+10	1	-1E+10	1	-1E+10	1
4902551	33	C	07/07/2021	05:10	-134.916	49.416	0	184.70	0	5.5820	0	33.7720	0	26.636	0	183.044	0	127.5	4	41.7	4	-1E+10	1	-1E+10	1	-1E+10	1	-1E+10	1	-1E+10	1	-1E+10	1
4902551	33	C	07/07/2021	05:10	-134.916	49.416	0	185.60	0	5.5740	0	33.7730	0	26.637	0	183.936	0	127.0	4	41.5	4	-1E+10	1	-1E+10	1	-1E+10	1	-1E+10	1	-1E+10	1	-1E+10	1
4902551	33	C	07/07/2021	05:10	-134.916	49.416	0	186.50	0	5.5580	0	33.7730	0	26.639	0	184.828	0	126.6	4	41.3	4	-1E+10	1	-1E+10	1	-1E+10	1	-1E+10	1	-1E+10	1	-1E+10	1
4902551	33	C	07/07/2021	05:10	-134.916	49.416	0	187.90	0	5.5550	0	33.7740	0	26.640	0	186.214	0	125.9	4	41.1	4	-1E+10	1	-1E+10	1	-1E+10	1	-1E+10	1	-1E+10	1	-1E+10	1
4902551	33	C	07/07/2021	05:10	-134.916	49.416	0	189.50	0	5.5340	0	33.7780	0	26.646	0	187.799	0	125.2	4	40.9	4	-1E+10	1	-1E+10	1	-1E+10	1	-1E+10	1	-1E+10	1	-1E+10	1
4902551	33	C	07/07/2021	05:10	-134.916	49.416	0	190.90	0	5.5190	0	33.7800	0	26.649	0	189.186	0	124.6	4	40.7	4	-1E+10	1	-1E+10	1	-1E+10	1	-1E+10	1	-1E+10	1	-1E+10	1
4902551	33	C	07/07/2021	05:10	-134.916	49.416	0	192.40	0	5.5020	0	33.7830	0	26.654	0	190.672	0	123.9	4	40.4	4	-1E+10	1	-1E+10	1	-1E+10	1	-1E+10	1	-1E+10	1	-1E+10	1
4902551	33	C	07/07/2021	05:10	-134.916	49.416	0	193.40	0	5.4910	0	33.7830	0	26.655	0	191.662	0	123.5	4	40.3	4	-1E+10	1	-1E+10	1	-1E+10	1	-1E+10	1	-1E+10	1	-1E+10	1
4902551	33	C	07/07/2021	05:10	-134.916	49.416	0	194.40	0	5.4870	0	33.7840	0	26.657	0	192.653	0	123.0	4	40.1	4	-1E+10	1	-1E+10	1	-1E+10	1	-1E+10	1	-1E+10	1	-1E+10	1
4902551	33	C	07/07/2021	05:10	-134.916	49.416	0	195.40	0	5.4850	0	33.7840	0	26.657	0	193.644	0	122.6	4	40.0	4	-1E+10	1	-1E+10	1	-1E+10	1	-1E+10	1	-1E+10	1	-1E+10	1
4902551	33	C	07/07/2021	05:10	-134.916	49.416	0	196.40	0	5.4820	0	33.7840	0	26.657	0	194.634	0	122.0	4	39.8	4	-1E+10	1	-1E+10	1	-1E+10	1	-1E+10	1	-1E+10	1	-1E+10	1
4902551	33	C	07/07/2021	05:10	-134.916	49.416	0	197.40	0	5.4710	0	33.7840	0	26.658	0	195.625	0	121.5	4	39.6	4	-1E+10	1	-1E+10	1	-1E+10	1	-1E+10	1	-1E+10	1	-1E+10	1
4902551	33	C	07/07/2021	05:10	-134.916	49.416	0	198.30	0	5.4690	0	33.7850	0	26.659	0	196.516	0	121.0	4	39.4	4	-1E+10	1	-1E+10	1	-1E+10	1	-1E+10	1	-1E+10	1	-1E+10	1
4902551	33	C	07/07/2021	05:10	-134.916	49.416	0	199.30	0	5.4680	0	33.7840	0	26.659	0	197.507	0	120.4	4	39.3	4	-1E+10	1	-1E+10	1	-1E+10	1	-1E+10	1	-1E+10	1	-1E+10	1
4902551	33	C	07/07/2021	05:10	-134.916	49.416	0	200.30	0	5.4640	0	33.7850	0	26.660	0	198.497	0	119.8	4	39.1	4	-1E+10	1	-1E+10	1	-1E+10	1	-1E+10	1	-1E+10	1	-1E+10	1
4902551	33	C	07/07/2021	05:10	-134.916	49.416	0	201.30	0	5.4570	0	33.7850	0	26.661	0	199.488	0	119.2	4	38.9	4	-1E+10	1	-1E+10	1	-1E+10	1	-1E+10	1	-1E+10	1	-1E+10	1
4902551	33	C	07/07/2021	05:10	-134.916	49.416	0	202.30	0	5.4350	0	33.7870	0	26.665	0	200.478	0	118.7	4	38.7	4	-1E+10	1	-1E+10	1	-1E+10	1	-1E+10	1	-1E+10	1	-1E+10	1
4902551	33	C	07/07/2021	05:10	-134.916	49.416	0	203.30	0	5.4320	0	33.7880	0	26.666	0	201.469	0	118.2	4	38.5	4	-1E+10	1	-1E+10	1	-1E+10	1	-1E+10	1	-1E+10	1	-1E+10	1
4902551	33	C	07/07/2021	05:10	-134.916	49.416	0	204.30	0	5.4170	0	33.7880	0	26.668	0	202.459	0	117.8	4	38.3	4	-1E+10	1	-1E+10	1	-1E+10	1	-1E+10	1	-1E+10	1	-1E+10	1
4902551	33	C	07/07/2021	05:10	-134.916	49.416	0	205.30	0	5.4040	0	33.7890	0	26.670	0	203.450	0	117.2	4	38.2	4	-1E+10	1	-1E+10	1	-1E+10	1	-1E+10	1	-1E+10	1	-1E+10	1
4902551	33	C	07/07/2021	05:10	-134.916	49.416	0	206.40	0	5.3910	0	33.7890	0	26.672	0	204.539	0	116.6	4	37.9	4	-1E+10	1	-1E+10	1	-1E+10	1	-1E+10	1	-1E+10	1	-1E+10	1
4902551	33	C	07/07/2021	05:10	-134.916	49.416	0	207.40	0	5.3790	0	33.7900	0	26.674	0	205.530	0	116.0	4	37.7	4	-1E+10	1	-1E+10	1	-1E+10	1	-1E+10	1	-1E+10	1	-1E+10	1
4902551	33	C	07/07/2021	05:10	-134.916	49.416	0	208.40	0	5.3680	0	33.7910	0	26.676	0	206.520	0	115.3	4	37.5	4	-1E+10	1	-1E+10	1	-1E+10	1	-1E+10	1	-1E+10	1	-1E+10	1
4902551	33	C	07/07/2021	05:10	-134.916	49.416	0	209.40	0	5.3480	0	33.7930	0	26.680	0	207.511	0	114.8	4	37.3	4	-1E+10	1	-1E+10	1	-1E+10	1	-1E+10	1	-1E+10	1	-1E+10	1
4902551	33	C	07/07/2021	05:10	-134.916	49.416	0	210.40	0	5.3370	0	33.7940	0	26.682	0	208.501	0	114.2	4	37.1	4	-1E+10	1	-1E+10	1	-1E+10	1	-1E+10	1	-1E+10	1	-1E+10	1
4902551	33	C	07/07/2021	05:10	-134.916	49.416	0	211.50	0	5.3330	0	33.7940	0	26.683	0	209.591	0	113.5	4	36.9	4	-1E+10	1	-1E+10	1	-1E+10	1	-1E+10	1	-1E+10	1	-1E+10	1
4902551	33	C	07/07/2021	05:10	-134.916	49.416	0	212.50	0	5.3250	0	33.7950	0	26.684	0	210.581	0	113.0	4	36.7	4	-1E+10	1	-1E+10	1	-1E+10	1	-1E+10	1	-1E+10	1	-1E+10	1
4902551	33	C	07/07/2021	05:10	-134.916	49.416	0	213.50	0	5.3170	0	33.7960	0	26.686	0	211.572	0	112.4	4	36.5	4	-1E+10	1	-1E+10	1	-1E+10	1	-1E+10	1	-1E+10	1	-1E+10	1
4902551	33	C	07/07/2021	05:10	-134.916	49.416	0	214.60	0	5.3130	0	33.7950	0	26.686	0	212.661	0	111.7	4	36.3	4	-1E+10	1	-1E+10	1	-1E+10	1	-1E+10	1	-1E+10	1	-1E+10	1
4902551	33	C	07/07/2021	05:10	-134.916	49.416	0	215.60	0	5.3040	0	33.7950	0	26.687	0	213.652	0	111.0	4	36.1	4	-1E+10	1	-1E+10	1	-1E+10	1	-1E+10	1	-1E+10	1	-1E+10	1
4902551	33	C	07/07/2021	05:10	-134.916	49.416	0	216.60	0	5.2870	0	33.7980	0	26.691	0	214.642	0	110.3	4	35.8	4	-1E+10	1	-1E+10	1	-1E+10	1	-1E+10	1	-1E+10	1	-1E+10	1
4902551	33	C	07/07/2021	05:10	-134.916	49.416	0	217.60	0	5.2830	0	33.8000	0	26.693	0	215.632	0	109.6	4	35.6	4	-1E+10	1	-1E+10	1	-1E+10	1	-1E+10	1	-1E+10	1	-1E+10	1
4902551	33	C	07/07/2021	05:10	-134.916	49.416	0	218.70	0	5.2720	0	33.8010	0	26.695	0	216.722	0	108.9	4	35.3	4	-1E+10	1	-1E+10	1	-1E+10	1	-1E+10	1	-1E+10	1	-1E+10	1
4902551	33	C	07/07/2021	05:10	-134.916	49.416	0	219.70	0	5.2620	0	33.8010	0	26.697	0	217.712	0	108.1	4	35.1	4	-1E+10	1	-1E+10	1	-1E+10	1	-1E+10	1	-1E+10	1	-1E+10	1
4902551	33	C	07/07/2021	05:10	-134.916	49.416	0	220.70	0	5.2570	0	33.8020	0	26.698	0	218.703	0	107.2	4	34.8	4	-1E+10	1	-1E+10	1	-1E+10	1	-1E+10	1	-1E+10	1	-1E+10	1
4902551	33	C	07/07/2021	05:10	-134.916	49.416	0	221.80	0	5.2430	0	33.8040	0	26.701	0	219.792	0	106.4	4	34.5	4	-1E+10	1	-1E+10	1	-1E+10	1	-1E+10	1	-1E+10	1	-1E+10	1
4902551	33	C	07/07/2021	05:10	-134.916	49.416	0	222.80	0	5.2280	0	33.8080	0	26.706	0	220.783	0	105.9	4	34.3	4	-1E+10	1	-1E+10	1	-1E+10	1	-1E+10	1	-1E+10	1	-1E+10	1
4902551	33	C	07/07/2021	05:10	-134.916	49.416	0	223.90	0	5.2170	0	33.8100	0	26.709	0	221.872	0	105.4	4	34.2	4	-1E+10	1	-1E+10	1	-1E+10	1	-1E+10	1	-1E+10	1	-1E+10	1
4902551	33	C	07/07/2021	05:10	-134.916	49.416	0	224.90	0	5.2000	0	33.8090	0	26.710	0	222.862	0	104.8	4	34.0	4	-1E+10	1	-1E+10	1	-1E+10	1	-1E+10	1	-1E+10	1	-1E+10	1
4902551	33	C	07/07/2021	05:10	-134.916	49.416	0	225.90	0	5.1950	0	33.8090	0	26.711	0	223.853	0	104.1	4	33.7	4	-1E+10	1	-1E+10	1	-1E+10	1	-1E+10	1	-1E+10	1	-1E+10	1
4902551	33	C	07/07/2021	05:10	-134.916	49.416	0	227.00	0	5.1910	0	33.8100	0	26.712	0	224.942	0	103.3	4	33.5	4	-1E+10	1	-1E+10	1	-1E+10	1	-1E+10	1	-1E+10	1	-1E+10	1
4902551	33	C	07/07/2021	05:10	-134.916	49.416	0	228.00	0	5.1670	0	33.8150	0	26.719	0	225.933	0	102.6	4	33.2	4	-1E+10	1	-1E+10	1	-1E+10	1	-1E+10	1	-1E+10	1	-1E+10	1
4902551	33	C	07/07/2021	05:10	-134.916	49.416	0	229.10	0	5.1520	0	33.8140	0	26.720	0	227.022	0	101.9	4	33.0	4	-1E+10	1	-1E+10	1	-1E+10	1	-1E+10	1	-1E+10	1	-1E+10	1
4902551	33	C	07/07/2021	05:10	-134.916	49.416	0	230.20	0	5.1450	0	33.8150	0	26.721	0	228.112	0	101.3	4	32.8	4	-1E+10	1	-1E+10	1	-1E+10	1	-1E+10	1	-1E+10	1	-1E+10	1
4902551	33	C	07/07/2021	05:10	-134.916	49.416	0	231.20	0	5.1220	0	33.8190	0	26.727	0	229.102	0	100.8	4	32.6	4	-1E+10	1	-1E+10	1	-1E+10	1	-1E+10	1	-1E+10	1	-1E+10	1
4902551	33	C	07/07/2021	05:10	-134.916	49.416	0	232.30	0	5.1090	0	33.8220	0	26.731	0	230.191	0	100.4	4	32.4	4	-1E+10	1	-1E+10	1	-1E+10	1	-1E+10	1	-1E+10	1	-1E+10	1
4902551	33	C	07/07/2021	05:10	-134.916	49.416	0	233.30	0	5.1050	0	33.8220	0	26.732	0	231.182	0	99.9	4	32.3	4	-1E+10	1	-1E+10	1	-1E+10	1	-1E+10	1	-1E+10	1	-1E+10	1
4902551	33	C	07/07/2021	05:10	-134.916	49.416	0	234.40	0	5.1030	0	33.8220	0	26.732	0	232.271	0	99.4	4	32.1	4	-1E+10	1	-1E+10	1	-1E+10	1	-1E+10	1	-1E+10	1	-1E+10	1
4902551	33	C	07/07/2021	05:10	-134.916	49.416	0	235.40	0	5.0990	0	33.8220	0	26.732	0	233.261	0	98.9	4	32.0	4	-1E+10	1	-1E+10	1	-1E+10	1	-1E+10	1	-1E+10	1	-1E+10	1
4902551	33	C	07/07/2021	05:10	-134.916	49.416	0	236.50	0	5.0950	0	33.8230	0	26.734	0	234.351	0	98.4	4	31.8	4	-1E+10	1	-1E+10	1	-1E+10	1	-1E+10	1	-1E+10	1	-1E+10	1
4902551	33	C	07/07/2021	05:10	-134.916	49.416	0	237.60	0	5.0900	0	33.8250	0	26.736	0	235.440	0	97.9	4	31.6	4	-1E+10	1	-1E+10	1	-1E+10	1	-1E+10	1	-1E+10	1	-1E+10	1
4902551	33	C	07/07/2021	05:10	-134.916	49.416	0	238.60	0	5.0910	0	33.8240	0	26.735	0	236.431	0	97.3	4	31.5	4	-1E+10	1	-1E+10	1	-1E+10	1	-1E+10	1	-1E+10	1	-1E+10	1
4902551	33	C	07/07/2021	05:10	-134.916	49.416	0	239.70	0	5.0870	0	33.8260	0	26.737	0	237.520	0	96.7	4	31.3	4	-1E+10	1	-1E+10	1	-1E+10	1	-1E+10	1	-1E+10	1	-1E+10	1
4902551	33	C	07/07/2021	05:10	-134.916	49.416	0	240.80	0	5.0790	0	33.8270	0	26.739	0	238.609	0	96.2	4	31.1	4	-1E+10	1	-1E+10	1	-1E+10	1	-1E+10	1	-1E+10	1	-1E+10	1
4902551	33	C	07/07/2021	05:10	-134.916	49.416	0	241.90	0	5.0750	0	33.8270	0	26.739	0	239.699	0	95.6	4	30.9	4	-1E+10	1	-1E+10	1	-1E+10	1	-1E+10	1	-1E+10	1	-1E+10	1
4902551	33	C	07/07/2021	05:10	-134.916	49.416	0	242.90	0	5.0710	0	33.8280	0	26.740	0	240.689	0	95.0	4	30.7	4	-1E+10	1	-1E+10	1	-1E+10	1	-1E+10	1	-1E+10	1	-1E+10	1
4902551	33	C	07/07/2021	05:10	-134.916	49.416	0	244.00	0	5.0640	0	33.8290	0	26.742	0	241.778	0	94.4	4	30.5	4	-1E+10	1	-1E+10	1	-1E+10	1	-1E+10	1	-1E+10	1	-1E+10	1
4902551	33	C	07/07/2021	05:10	-134.916	49.416	0	245.10	0	5.0610	0	33.8300	0	26.743	0	242.868	0	93.8	4	30.3	4	-1E+10	1	-1E+10	1	-1E+10	1	-1E+10	1	-1E+10	1	-1E+10	1
4902551	33	C	07/07/2021	05:10	-134.916	49.416	0	246.10	0	5.0570	0	33.8310	0	26.744	0	243.858	0	93.3	4	30.1	4	-1E+10	1	-1E+10	1	-1E+10	1	-1E+10	1	-1E+10	1	-1E+10	1
4902551	33	C	07/07/2021	05:10	-134.916	49.416	0	247.20	0	5.0470	0	33.8310	0	26.745	0	244.947	0	92.7	4	29.9	4	-1E+10	1	-1E+10	1	-1E+10	1	-1E+10	1	-1E+10	1	-1E+10	1
4902551	33	C	07/07/2021	05:10	-134.916	49.416	0	248.20	0	5.0370	0	33.8350	0	26.750	0	245.938	0	92.2	4	29.8	4	-1E+10	1	-1E+10	1	-1E+10	1	-1E+10	1	-1E+10	1	-1E+10	1
4902551	33	C	07/07/2021	05:10	-134.916	49.416	0	249.30	0	4.9910	0	33.8390	0	26.758	0	247.027	0	91.9	4	29.6	4	-1E+10	1	-1E+10	1	-1E+10	1	-1E+10	1	-1E+10	1	-1E+10	1
4902551	33	C	07/07/2021	05:10	-134.916	49.416	0	250.40	0	4.9830	0	33.8390	0	26.759	0	248.116	0	91.5	4	29.5	4	-1E+10	1	-1E+10	1	-1E+10	1	-1E+10	1	-1E+10	1	-1E+10	1
4902551	33	C	07/07/2021	05:10	-134.916	49.416	0	251.40	0	4.9810	0	33.8380	0	26.758	0	249.106	0	91.0	4	29.4	4	-1E+10	1	-1E+10	1	-1E+10	1	-1E+10	1	-1E+10	1	-1E+10	1
4902551	33	C	07/07/2021	05:10	-134.916	49.416	0	252.50	0	4.9670	0	33.8390	0	26.761	0	250.196	0	90.5	4	29.2	4	-1E+10	1	-1E+10	1	-1E+10	1	-1E+10	1	-1E+10	1	-1E+10	1
4902551	33	C	07/07/2021	05:10	-134.916	49.416	0	253.50	0	4.9650	0	33.8410	0	26.763	0	251.186	0	90.2	4	29.1	4	-1E+10	1	-1E+10	1	-1E+10	1	-1E+10	1	-1E+10	1	-1E+10	1
4902551	33	C	07/07/2021	05:10	-134.916	49.416	0	254.60	0	4.9560	0	33.8440	0	26.766	0	252.275	0	89.9	4	29.0	4	-1E+10	1	-1E+10	1	-1E+10	1	-1E+10	1	-1E+10	1	-1E+10	1
4902551	33	C	07/07/2021	05:10	-134.916	49.416	0	255.60	0	4.9370	0	33.8430	0	26.767	0	253.266	0	89.6	4	28.9	4	-1E+10	1	-1E+10	1	-1E+10	1	-1E+10	1	-1E+10	1	-1E+10	1
4902551	33	C	07/07/2021	05:10	-134.916	49.416	0	256.70	0	4.9350	0	33.8440	0	26.768	0	254.355	0	89.3	4	28.8	4	-1E+10	1	-1E+10	1	-1E+10	1	-1E+10	1	-1E+10	1	-1E+10	1
4902551	33	C	07/07/2021	05:10	-134.916	49.416	0	257.80	0	4.9330	0	33.8440	0	26.769	0	255.444	0	88.9	4	28.6	4	-1E+10	1	-1E+10	1	-1E+10	1	-1E+10	1	-1E+10	1	-1E+10	1
4902551	33	C	07/07/2021	05:10	-134.916	49.416	0	258.80	0	4.9270	0	33.8440	0	26.769	0	256.434	0	88.5	4	28.5	4	-1E+10	1	-1E+10	1	-1E+10	1	-1E+10	1	-1E+10	1	-1E+10	1
4902551	33	C	07/07/2021	05:10	-134.916	49.416	0	259.90	0	4.9270	0	33.8440	0	26.769	0	257.524	0	88.1	4	28.4	4	-1E+10	1	-1E+10	1	-1E+10	1	-1E+10	1	-1E+10	1	-1E+10	1
4902551	33	C	07/07/2021	05:10	-134.916	49.416	0	261.00	0	4.9210	0	33.8440	0	26.770	0	258.613	0	87.5	4	28.2	4	-1E+10	1	-1E+10	1	-1E+10	1	-1E+10	1	-1E+10	1	-1E+10	1
4902551	33	C	07/07/2021	05:10	-134.916	49.416	0	262.00	0	4.9010	0	33.8460	0	26.774	0	259.603	0	87.0	4	28.0	4	-1E+10	1	-1E+10	1	-1E+10	1	-1E+10	1	-1E+10	1	-1E+10	1
4902551	33	C	07/07/2021	05:10	-134.916	49.416	0	263.10	0	4.8980	0	33.8470	0	26.775	0	260.692	0	86.5	4	27.8	4	-1E+10	1	-1E+10	1	-1E+10	1	-1E+10	1	-1E+10	1	-1E+10	1
4902551	33	C	07/07/2021	05:10	-134.916	49.416	0	264.20	0	4.8890	0	33.8480	0	26.777	0	261.782	0	86.0	4	27.7	4	-1E+10	1	-1E+10	1	-1E+10	1	-1E+10	1	-1E+10	1	-1E+10	1
4902551	33	C	07/07/2021	05:10	-134.916	49.416	0	265.20	0	4.8810	0	33.8480	0	26.778	0	262.772	0	85.4	4	27.5	4	-1E+10	1	-1E+10	1	-1E+10	1	-1E+10	1	-1E+10	1	-1E+10	1
4902551	33	C	07/07/2021	05:10	-134.916	49.416	0	266.30	0	4.8750	0	33.8500	0	26.780	0	263.861	0	84.8	4	27.3	4	-1E+10	1	-1E+10	1	-1E+10	1	-1E+10	1	-1E+10	1	-1E+10	1
4902551	33	C	07/07/2021	05:10	-134.916	49.416	0	267.40	0	4.8660	0	33.8500	0	26.781	0	264.950	0	84.2	4	27.1	4	-1E+10	1	-1E+10	1	-1E+10	1	-1E+10	1	-1E+10	1	-1E+10	1
4902551	33	C	07/07/2021	05:10	-134.916	49.416	0	268.50	0	4.8600	0	33.8510	0	26.783	0	266.039	0	83.5	4	26.9	4	-1E+10	1	-1E+10	1	-1E+10	1	-1E+10	1	-1E+10	1	-1E+10	1
4902551	33	C	07/07/2021	05:10	-134.916	49.416	0	269.50	0	4.8540	0	33.8530	0	26.785	0	267.030	0	82.9	4	26.7	4	-1E+10	1	-1E+10	1	-1E+10	1	-1E+10	1	-1E+10	1	-1E+10	1
4902551	33	C	07/07/2021	05:10	-134.916	49.416	0	270.60	0	4.8450	0	33.8540	0	26.787	0	268.119	0	82.2	4	26.4	4	-1E+10	1	-1E+10	1	-1E+10	1	-1E+10	1	-1E+10	1	-1E+10	1
4902551	33	C	07/07/2021	05:10	-134.916	49.416	0	271.60	0	4.8410	0	33.8550	0	26.788	0	269.109	0	81.5	4	26.2	4	-1E+10	1	-1E+10	1	-1E+10	1	-1E+10	1	-1E+10	1	-1E+10	1
4902551	33	C	07/07/2021	05:10	-134.916	49.416	0	272.60	0	4.8380	0	33.8540	0	26.787	0	270.099	0	80.9	4	26.0	4	-1E+10	1	-1E+10	1	-1E+10	1	-1E+10	1	-1E+10	1	-1E+10	1
4902551	33	C	07/07/2021	05:10	-134.916	49.416	0	273.60	0	4.8410	0	33.8600	0	26.792	0	271.089	0	80.4	4	25.8	4	-1E+10	1	-1E+10	1	-1E+10	1	-1E+10	1	-1E+10	1	-1E+10	1
4902551	33	C	07/07/2021	05:10	-134.916	49.416	0	274.70	0	4.8120	0	33.8630	0	26.797	0	272.179	0	80.0	4	25.7	4	-1E+10	1	-1E+10	1	-1E+10	1	-1E+10	1	-1E+10	1	-1E+10	1
4902551	33	C	07/07/2021	05:10	-134.916	49.416	0	275.90	0	4.8020	0	33.8640	0	26.799	0	273.367	0	79.6	4	25.6	4	-1E+10	1	-1E+10	1	-1E+10	1	-1E+10	1	-1E+10	1	-1E+10	1
4902551	33	C	07/07/2021	05:10	-134.916	49.416	0	277.10	0	4.7970	0	33.8650	0	26.801	0	274.555	0	79.1	4	25.4	4	-1E+10	1	-1E+10	1	-1E+10	1	-1E+10	1	-1E+10	1	-1E+10	1
4902551	33	C	07/07/2021	05:10	-134.916	49.416	0	277.90	0	4.7950	0	33.8650	0	26.801	0	275.347	0	78.7	4	25.3	4	-1E+10	1	-1E+10	1	-1E+10	1	-1E+10	1	-1E+10	1	-1E+10	1
4902551	33	C	07/07/2021	05:10	-134.916	49.416	0	278.80	0	4.7920	0	33.8660	0	26.802	0	276.238	0	78.4	4	25.2	4	-1E+10	1	-1E+10	1	-1E+10	1	-1E+10	1	-1E+10	1	-1E+10	1
4902551	33	C	07/07/2021	05:10	-134.916	49.416	0	280.00	0	4.7870	0	33.8660	0	26.803	0	277.426	0	77.8	4	25.0	4	-1E+10	1	-1E+10	1	-1E+10	1	-1E+10	1	-1E+10	1	-1E+10	1
4902551	33	C	07/07/2021	05:10	-134.916	49.416	0	281.10	0	4.7840	0	33.8680	0	26.805	0	278.516	0	77.2	4	24.8	4	-1E+10	1	-1E+10	1	-1E+10	1	-1E+10	1	-1E+10	1	-1E+10	1
4902551	33	C	07/07/2021	05:10	-134.916	49.416	0	282.00	0	4.7830	0	33.8680	0	26.805	0	279.407	0	76.6	4	24.6	4	-1E+10	1	-1E+10	1	-1E+10	1	-1E+10	1	-1E+10	1	-1E+10	1
4902551	33	C	07/07/2021	05:10	-134.916	49.416	0	282.80	0	4.7830	0	33.8680	0	26.805	0	280.199	0	76.1	4	24.4	4	-1E+10	1	-1E+10	1	-1E+10	1	-1E+10	1	-1E+10	1	-1E+10	1
4902551	33	C	07/07/2021	05:10	-134.916	49.416	0	284.00	0	4.7750	0	33.8690	0	26.806	0	281.387	0	75.4	4	24.2	4	-1E+10	1	-1E+10	1	-1E+10	1	-1E+10	1	-1E+10	1	-1E+10	1
4902551	33	C	07/07/2021	05:10	-134.916	49.416	0	285.20	0	4.7650	0	33.8730	0	26.811	0	282.575	0	74.7	4	24.0	4	-1E+10	1	-1E+10	1	-1E+10	1	-1E+10	1	-1E+10	1	-1E+10	1
4902551	33	C	07/07/2021	05:10	-134.916	49.416	0	286.00	0	4.7640	0	33.8730	0	26.811	0	283.367	0	74.3	4	23.8	4	-1E+10	1	-1E+10	1	-1E+10	1	-1E+10	1	-1E+10	1	-1E+10	1
4902551	33	C	07/07/2021	05:10	-134.916	49.416	0	286.80	0	4.7620	0	33.8740	0	26.812	0	284.159	0	73.9	4	23.7	4	-1E+10	1	-1E+10	1	-1E+10	1	-1E+10	1	-1E+10	1	-1E+10	1
4902551	33	C	07/07/2021	05:10	-134.916	49.416	0	288.00	0	4.7510	0	33.8770	0	26.815	0	285.347	0	73.5	4	23.6	4	-1E+10	1	-1E+10	1	-1E+10	1	-1E+10	1	-1E+10	1	-1E+10	1
4902551	33	C	07/07/2021	05:10	-134.916	49.416	0	289.20	0	4.7470	0	33.8790	0	26.817	0	286.535	0	73.0	4	23.4	4	-1E+10	1	-1E+10	1	-1E+10	1	-1E+10	1	-1E+10	1	-1E+10	1
4902551	33	C	07/07/2021	05:10	-134.916	49.416	0	290.00	0	4.7460	0	33.8790	0	26.818	0	287.328	0	72.7	4	23.3	4	-1E+10	1	-1E+10	1	-1E+10	1	-1E+10	1	-1E+10	1	-1E+10	1
4902551	33	C	07/07/2021	05:10	-134.916	49.416	0	290.90	0	4.7450	0	33.8800	0	26.818	0	288.219	0	72.3	4	23.2	4	-1E+10	1	-1E+10	1	-1E+10	1	-1E+10	1	-1E+10	1	-1E+10	1
4902551	33	C	07/07/2021	05:10	-134.916	49.416	0	291.70	0	4.7420	0	33.8810	0	26.820	0	289.011	0	72.0	4	23.1	4	-1E+10	1	-1E+10	1	-1E+10	1	-1E+10	1	-1E+10	1	-1E+10	1
4902551	33	C	07/07/2021	05:10	-134.916	49.416	0	292.90	0	4.7360	0	33.8820	0	26.821	0	290.199	0	71.5	4	22.9	4	-1E+10	1	-1E+10	1	-1E+10	1	-1E+10	1	-1E+10	1	-1E+10	1
4902551	33	C	07/07/2021	05:10	-134.916	49.416	0	294.10	0	4.7300	0	33.8840	0	26.823	0	291.387	0	71.0	4	22.8	4	-1E+10	1	-1E+10	1	-1E+10	1	-1E+10	1	-1E+10	1	-1E+10	1
4902551	33	C	07/07/2021	05:10	-134.916	49.416	0	295.00	0	4.7290	0	33.8840	0	26.823	0	292.278	0	70.7	4	22.7	4	-1E+10	1	-1E+10	1	-1E+10	1	-1E+10	1	-1E+10	1	-1E+10	1
4902551	33	C	07/07/2021	05:10	-134.916	49.416	0	295.80	0	4.7190	0	33.8870	0	26.827	0	293.070	0	70.4	4	22.6	4	-1E+10	1	-1E+10	1	-1E+10	1	-1E+10	1	-1E+10	1	-1E+10	1
4902551	33	C	07/07/2021	05:10	-134.916	49.416	0	296.60	0	4.7160	0	33.8870	0	26.827	0	293.862	0	70.1	4	22.5	4	-1E+10	1	-1E+10	1	-1E+10	1	-1E+10	1	-1E+10	1	-1E+10	1
4902551	33	C	07/07/2021	05:10	-134.916	49.416	0	297.90	0	4.7130	0	33.8880	0	26.828	0	295.149	0	69.7	4	22.3	4	-1E+10	1	-1E+10	1	-1E+10	1	-1E+10	1	-1E+10	1	-1E+10	1
4902551	33	C	07/07/2021	05:10	-134.916	49.416	0	299.20	0	4.7130	0	33.8880	0	26.828	0	296.436	0	69.2	4	22.2	4	-1E+10	1	-1E+10	1	-1E+10	1	-1E+10	1	-1E+10	1	-1E+10	1
4902551	33	C	07/07/2021	05:10	-134.916	49.416	0	300.00	0	4.7110	0	33.8890	0	26.829	0	297.228	0	68.8	4	22.1	4	-1E+10	1	-1E+10	1	-1E+10	1	-1E+10	1	-1E+10	1	-1E+10	1
4902551	33	C	07/07/2021	05:10	-134.916	49.416	0	300.80	0	4.7090	0	33.8900	0	26.830	0	298.020	0	68.5	4	22.0	4	-1E+10	1	-1E+10	1	-1E+10	1	-1E+10	1	-1E+10	1	-1E+10	1
4902551	33	C	07/07/2021	05:10	-134.916	49.416	0	301.70	0	4.7040	0	33.8920	0	26.833	0	298.911	0	68.2	4	21.9	4	-1E+10	1	-1E+10	1	-1E+10	1	-1E+10	1	-1E+10	1	-1E+10	1
4902551	33	C	07/07/2021	05:10	-134.916	49.416	0	302.90	0	4.6980	0	33.8930	0	26.834	0	300.099	0	67.8	4	21.7	4	-1E+10	1	-1E+10	1	-1E+10	1	-1E+10	1	-1E+10	1	-1E+10	1
4902551	33	C	07/07/2021	05:10	-134.916	49.416	0	304.20	0	4.6960	0	33.8930	0	26.834	0	301.386	0	67.2	4	21.5	4	-1E+10	1	-1E+10	1	-1E+10	1	-1E+10	1	-1E+10	1	-1E+10	1
4902551	33	C	07/07/2021	05:10	-134.916	49.416	0	305.10	0	4.6930	0	33.8930	0	26.835	0	302.277	0	66.8	4	21.4	4	-1E+10	1	-1E+10	1	-1E+10	1	-1E+10	1	-1E+10	1	-1E+10	1
4902551	33	C	07/07/2021	05:10	-134.916	49.416	0	305.90	0	4.6920	0	33.8940	0	26.836	0	303.069	0	66.4	4	21.3	4	-1E+10	1	-1E+10	1	-1E+10	1	-1E+10	1	-1E+10	1	-1E+10	1
4902551	33	C	07/07/2021	05:10	-134.916	49.416	0	306.80	0	4.6900	0	33.8950	0	26.837	0	303.960	0	65.9	4	21.1	4	-1E+10	1	-1E+10	1	-1E+10	1	-1E+10	1	-1E+10	1	-1E+10	1
4902551	33	C	07/07/2021	05:10	-134.916	49.416	0	307.60	0	4.6760	0	33.8980	0	26.841	0	304.752	0	65.6	4	21.0	4	-1E+10	1	-1E+10	1	-1E+10	1	-1E+10	1	-1E+10	1	-1E+10	1
4902551	33	C	07/07/2021	05:10	-134.916	49.416	0	308.90	0	4.6740	0	33.8990	0	26.842	0	306.039	0	65.0	4	20.8	4	-1E+10	1	-1E+10	1	-1E+10	1	-1E+10	1	-1E+10	1	-1E+10	1
4902551	33	C	07/07/2021	05:10	-134.916	49.416	0	310.20	0	4.6720	0	33.9000	0	26.843	0	307.326	0	64.4	4	20.6	4	-1E+10	1	-1E+10	1	-1E+10	1	-1E+10	1	-1E+10	1	-1E+10	1
4902551	33	C	07/07/2021	05:10	-134.916	49.416	0	311.10	0	4.6710	0	33.9010	0	26.843	0	308.217	0	63.9	4	20.5	4	-1E+10	1	-1E+10	1	-1E+10	1	-1E+10	1	-1E+10	1	-1E+10	1
4902551	33	C	07/07/2021	05:10	-134.916	49.416	0	312.00	0	4.6710	0	33.9010	0	26.843	0	309.108	0	63.4	4	20.3	4	-1E+10	1	-1E+10	1	-1E+10	1	-1E+10	1	-1E+10	1	-1E+10	1
4902551	33	C	07/07/2021	05:10	-134.916	49.416	0	312.80	0	4.6640	0	33.9040	0	26.847	0	309.900	0	63.0	4	20.2	4	-1E+10	1	-1E+10	1	-1E+10	1	-1E+10	1	-1E+10	1	-1E+10	1
4902551	33	C	07/07/2021	05:10	-134.916	49.416	0	313.70	0	4.6580	0	33.9060	0	26.849	0	310.791	0	62.7	4	20.1	4	-1E+10	1	-1E+10	1	-1E+10	1	-1E+10	1	-1E+10	1	-1E+10	1
4902551	33	C	07/07/2021	05:10	-134.916	49.416	0	314.60	0	4.6560	0	33.9060	0	26.849	0	311.682	0	62.4	4	20.0	4	-1E+10	1	-1E+10	1	-1E+10	1	-1E+10	1	-1E+10	1	-1E+10	1
4902551	33	C	07/07/2021	05:10	-134.916	49.416	0	315.90	0	4.6560	0	33.9090	0	26.851	0	312.969	0	62.1	4	19.9	4	-1E+10	1	-1E+10	1	-1E+10	1	-1E+10	1	-1E+10	1	-1E+10	1
4902551	33	C	07/07/2021	05:10	-134.916	49.416	0	317.30	0	4.6490	0	33.9110	0	26.854	0	314.355	0	61.7	4	19.8	4	-1E+10	1	-1E+10	1	-1E+10	1	-1E+10	1	-1E+10	1	-1E+10	1
4902551	33	C	07/07/2021	05:10	-134.916	49.416	0	318.20	0	4.6460	0	33.9110	0	26.854	0	315.246	0	61.5	4	19.7	4	-1E+10	1	-1E+10	1	-1E+10	1	-1E+10	1	-1E+10	1	-1E+10	1
4902551	33	C	07/07/2021	05:10	-134.916	49.416	0	319.10	0	4.6400	0	33.9110	0	26.855	0	316.137	0	61.3	4	19.6	4	-1E+10	1	-1E+10	1	-1E+10	1	-1E+10	1	-1E+10	1	-1E+10	1
4902551	33	C	07/07/2021	05:10	-134.916	49.416	0	320.00	0	4.6340	0	33.9120	0	26.856	0	317.028	0	61.0	4	19.5	4	-1E+10	1	-1E+10	1	-1E+10	1	-1E+10	1	-1E+10	1	-1E+10	1
4902551	33	C	07/07/2021	05:10	-134.916	49.416	0	320.90	0	4.6310	0	33.9140	0	26.858	0	317.919	0	60.7	4	19.4	4	-1E+10	1	-1E+10	1	-1E+10	1	-1E+10	1	-1E+10	1	-1E+10	1
4902551	33	C	07/07/2021	05:10	-134.916	49.416	0	321.80	0	4.6310	0	33.9140	0	26.858	0	318.810	0	60.5	4	19.4	4	-1E+10	1	-1E+10	1	-1E+10	1	-1E+10	1	-1E+10	1	-1E+10	1
4902551	33	C	07/07/2021	05:10	-134.916	49.416	0	322.70	0	4.6240	0	33.9160	0	26.861	0	319.701	0	60.2	4	19.3	4	-1E+10	1	-1E+10	1	-1E+10	1	-1E+10	1	-1E+10	1	-1E+10	1
4902551	33	C	07/07/2021	05:10	-134.916	49.416	0	323.80	0	4.6170	0	33.9180	0	26.863	0	320.790	0	60.1	4	19.2	4	-1E+10	1	-1E+10	1	-1E+10	1	-1E+10	1	-1E+10	1	-1E+10	1
4902551	33	C	07/07/2021	05:10	-134.916	49.416	0	324.70	0	4.6120	0	33.9190	0	26.864	0	321.681	0	59.9	4	19.2	4	-1E+10	1	-1E+10	1	-1E+10	1	-1E+10	1	-1E+10	1	-1E+10	1
4902551	33	C	07/07/2021	05:10	-134.916	49.416	0	325.60	0	4.6090	0	33.9200	0	26.865	0	322.572	0	59.7	4	19.1	4	-1E+10	1	-1E+10	1	-1E+10	1	-1E+10	1	-1E+10	1	-1E+10	1
4902551	33	C	07/07/2021	05:10	-134.916	49.416	0	326.50	0	4.6080	0	33.9200	0	26.866	0	323.463	0	59.5	4	19.0	4	-1E+10	1	-1E+10	1	-1E+10	1	-1E+10	1	-1E+10	1	-1E+10	1
4902551	33	C	07/07/2021	05:10	-134.916	49.416	0	327.90	0	4.6050	0	33.9200	0	26.866	0	324.849	0	59.2	4	18.9	4	-1E+10	1	-1E+10	1	-1E+10	1	-1E+10	1	-1E+10	1	-1E+10	1
4902551	33	C	07/07/2021	05:10	-134.916	49.416	0	329.30	0	4.6000	0	33.9220	0	26.868	0	326.234	0	59.0	4	18.9	4	-1E+10	1	-1E+10	1	-1E+10	1	-1E+10	1	-1E+10	1	-1E+10	1
4902551	33	C	07/07/2021	05:10	-134.916	49.416	0	330.20	0	4.5990	0	33.9230	0	26.869	0	327.125	0	58.9	4	18.8	4	-1E+10	1	-1E+10	1	-1E+10	1	-1E+10	1	-1E+10	1	-1E+10	1
4902551	33	C	07/07/2021	05:10	-134.916	49.416	0	331.20	0	4.5950	0	33.9240	0	26.870	0	328.115	0	58.7	4	18.8	4	-1E+10	1	-1E+10	1	-1E+10	1	-1E+10	1	-1E+10	1	-1E+10	1
4902551	33	C	07/07/2021	05:10	-134.916	49.416	0	332.10	0	4.5930	0	33.9240	0	26.870	0	329.006	0	58.5	4	18.7	4	-1E+10	1	-1E+10	1	-1E+10	1	-1E+10	1	-1E+10	1	-1E+10	1
4902551	33	C	07/07/2021	05:10	-134.916	49.416	0	333.00	0	4.5910	0	33.9250	0	26.871	0	329.897	0	58.3	4	18.6	4	-1E+10	1	-1E+10	1	-1E+10	1	-1E+10	1	-1E+10	1	-1E+10	1
4902551	33	C	07/07/2021	05:10	-134.916	49.416	0	334.00	0	4.5890	0	33.9260	0	26.872	0	330.887	0	58.2	4	18.6	4	-1E+10	1	-1E+10	1	-1E+10	1	-1E+10	1	-1E+10	1	-1E+10	1
4902551	33	C	07/07/2021	05:10	-134.916	49.416	0	334.90	0	4.5860	0	33.9260	0	26.873	0	331.778	0	58.0	4	18.5	4	-1E+10	1	-1E+10	1	-1E+10	1	-1E+10	1	-1E+10	1	-1E+10	1
4902551	33	C	07/07/2021	05:10	-134.916	49.416	0	335.90	0	4.5860	0	33.9260	0	26.873	0	332.768	0	57.9	4	18.5	4	-1E+10	1	-1E+10	1	-1E+10	1	-1E+10	1	-1E+10	1	-1E+10	1
4902551	33	C	07/07/2021	05:10	-134.916	49.416	0	337.00	0	4.5850	0	33.9260	0	26.873	0	333.857	0	57.6	4	18.4	4	-1E+10	1	-1E+10	1	-1E+10	1	-1E+10	1	-1E+10	1	-1E+10	1
4902551	33	C	07/07/2021	05:10	-134.916	49.416	0	338.00	0	4.5840	0	33.9270	0	26.874	0	334.846	0	57.4	4	18.3	4	-1E+10	1	-1E+10	1	-1E+10	1	-1E+10	1	-1E+10	1	-1E+10	1
4902551	33	C	07/07/2021	05:10	-134.916	49.416	0	338.90	0	4.5820	0	33.9270	0	26.874	0	335.737	0	57.2	4	18.3	4	-1E+10	1	-1E+10	1	-1E+10	1	-1E+10	1	-1E+10	1	-1E+10	1
4902551	33	C	07/07/2021	05:10	-134.916	49.416	0	339.90	0	4.5780	0	33.9280	0	26.875	0	336.727	0	56.9	4	18.2	4	-1E+10	1	-1E+10	1	-1E+10	1	-1E+10	1	-1E+10	1	-1E+10	1
4902551	33	C	07/07/2021	05:10	-134.916	49.416	0	340.80	0	4.5740	0	33.9300	0	26.877	0	337.618	0	56.7	4	18.1	4	-1E+10	1	-1E+10	1	-1E+10	1	-1E+10	1	-1E+10	1	-1E+10	1
4902551	33	C	07/07/2021	05:10	-134.916	49.416	0	341.80	0	4.5720	0	33.9300	0	26.878	0	338.608	0	56.5	4	18.1	4	-1E+10	1	-1E+10	1	-1E+10	1	-1E+10	1	-1E+10	1	-1E+10	1
4902551	33	C	07/07/2021	05:10	-134.916	49.416	0	342.80	0	4.5700	0	33.9310	0	26.879	0	339.598	0	56.3	4	18.0	4	-1E+10	1	-1E+10	1	-1E+10	1	-1E+10	1	-1E+10	1	-1E+10	1
4902551	33	C	07/07/2021	05:10	-134.916	49.416	0	343.70	0	4.5680	0	33.9310	0	26.879	0	340.489	0	56.1	4	17.9	4	-1E+10	1	-1E+10	1	-1E+10	1	-1E+10	1	-1E+10	1	-1E+10	1
4902551	33	C	07/07/2021	05:10	-134.916	49.416	0	344.70	0	4.5660	0	33.9320	0	26.880	0	341.478	0	55.9	4	17.8	4	-1E+10	1	-1E+10	1	-1E+10	1	-1E+10	1	-1E+10	1	-1E+10	1
4902551	33	C	07/07/2021	05:10	-134.916	49.416	0	345.60	0	4.5600	0	33.9340	0	26.882	0	342.369	0	55.6	4	17.8	4	-1E+10	1	-1E+10	1	-1E+10	1	-1E+10	1	-1E+10	1	-1E+10	1
4902551	33	C	07/07/2021	05:10	-134.916	49.416	0	346.60	0	4.5580	0	33.9340	0	26.882	0	343.359	0	55.4	4	17.7	4	-1E+10	1	-1E+10	1	-1E+10	1	-1E+10	1	-1E+10	1	-1E+10	1
4902551	33	C	07/07/2021	05:10	-134.916	49.416	0	347.50	0	4.5550	0	33.9350	0	26.883	0	344.250	0	55.1	4	17.6	4	-1E+10	1	-1E+10	1	-1E+10	1	-1E+10	1	-1E+10	1	-1E+10	1
4902551	33	C	07/07/2021	05:10	-134.916	49.416	0	348.90	0	4.5440	0	33.9370	0	26.886	0	345.636	0	54.9	4	17.5	4	-1E+10	1	-1E+10	1	-1E+10	1	-1E+10	1	-1E+10	1	-1E+10	1
4902551	33	C	07/07/2021	05:10	-134.916	49.416	0	350.40	0	4.5330	0	33.9410	0	26.891	0	347.120	0	54.6	4	17.4	4	-1E+10	1	-1E+10	1	-1E+10	1	-1E+10	1	-1E+10	1	-1E+10	1
4902551	33	C	07/07/2021	05:10	-134.916	49.416	0	353.30	0	4.5210	0	33.9450	0	26.895	0	349.991	0	54.2	4	17.3	4	-1E+10	1	-1E+10	1	-1E+10	1	-1E+10	1	-1E+10	1	-1E+10	1
4902551	33	C	07/07/2021	05:10	-134.916	49.416	0	358.30	0	4.5050	0	33.9490	0	26.900	0	354.940	0	53.5	4	17.1	4	-1E+10	1	-1E+10	1	-1E+10	1	-1E+10	1	-1E+10	1	-1E+10	1
4902551	33	C	07/07/2021	05:10	-134.916	49.416	0	363.30	0	4.4960	0	33.9520	0	26.903	0	359.888	0	52.9	4	16.9	4	-1E+10	1	-1E+10	1	-1E+10	1	-1E+10	1	-1E+10	1	-1E+10	1
4902551	33	C	07/07/2021	05:10	-134.916	49.416	0	368.30	0	4.4840	0	33.9550	0	26.907	0	364.837	0	52.3	4	16.7	4	-1E+10	1	-1E+10	1	-1E+10	1	-1E+10	1	-1E+10	1	-1E+10	1
4902551	33	C	07/07/2021	05:10	-134.916	49.416	0	373.30	0	4.4750	0	33.9580	0	26.910	0	369.786	0	51.6	4	16.4	4	-1E+10	1	-1E+10	1	-1E+10	1	-1E+10	1	-1E+10	1	-1E+10	1
4902551	33	C	07/07/2021	05:10	-134.916	49.416	0	378.00	0	4.4530	0	33.9650	0	26.918	0	374.437	0	51.1	4	16.3	4	-1E+10	1	-1E+10	1	-1E+10	1	-1E+10	1	-1E+10	1	-1E+10	1
4902551	33	C	07/07/2021	05:10	-134.916	49.416	0	382.70	0	4.4410	0	33.9680	0	26.922	0	379.088	0	50.9	4	16.2	4	-1E+10	1	-1E+10	1	-1E+10	1	-1E+10	1	-1E+10	1	-1E+10	1
4902551	33	C	07/07/2021	05:10	-134.916	49.416	0	388.00	0	4.4260	0	33.9720	0	26.927	0	384.334	0	50.4	4	16.1	4	-1E+10	1	-1E+10	1	-1E+10	1	-1E+10	1	-1E+10	1	-1E+10	1
4902551	33	C	07/07/2021	05:10	-134.916	49.416	0	393.30	0	4.4120	0	33.9760	0	26.932	0	389.578	0	49.6	4	15.8	4	-1E+10	1	-1E+10	1	-1E+10	1	-1E+10	1	-1E+10	1	-1E+10	1
4902551	33	C	07/07/2021	05:10	-134.916	49.416	0	398.10	0	4.3910	0	33.9820	0	26.939	0	394.328	0	48.8	4	15.5	4	-1E+10	1	-1E+10	1	-1E+10	1	-1E+10	1	-1E+10	1	-1E+10	1
4902551	33	C	07/07/2021	05:10	-134.916	49.416	0	402.90	0	4.3790	0	33.9860	0	26.943	0	399.078	0	47.8	4	15.2	4	-1E+10	1	-1E+10	1	-1E+10	1	-1E+10	1	-1E+10	1	-1E+10	1
4902551	33	C	07/07/2021	05:10	-134.916	49.416	0	408.30	0	4.3650	0	33.9910	0	26.949	0	404.422	0	46.3	4	14.7	4	-1E+10	1	-1E+10	1	-1E+10	1	-1E+10	1	-1E+10	1	-1E+10	1
4902551	33	C	07/07/2021	05:10	-134.916	49.416	0	413.00	0	4.3470	0	33.9990	0	26.957	0	409.073	0	45.1	4	14.3	4	-1E+10	1	-1E+10	1	-1E+10	1	-1E+10	1	-1E+10	1	-1E+10	1
4902551	33	C	07/07/2021	05:10	-134.916	49.416	0	417.80	0	4.3410	0	34.0010	0	26.959	0	413.822	0	44.0	4	14.0	4	-1E+10	1	-1E+10	1	-1E+10	1	-1E+10	1	-1E+10	1	-1E+10	1
4902551	33	C	07/07/2021	05:10	-134.916	49.416	0	423.20	0	4.3250	0	34.0080	0	26.967	0	419.165	0	42.4	4	13.5	4	-1E+10	1	-1E+10	1	-1E+10	1	-1E+10	1	-1E+10	1	-1E+10	1
4902551	33	C	07/07/2021	05:10	-134.916	49.416	0	428.10	0	4.3190	0	34.0120	0	26.970	0	424.014	0	41.3	4	13.1	4	-1E+10	1	-1E+10	1	-1E+10	1	-1E+10	1	-1E+10	1	-1E+10	1
4902551	33	C	07/07/2021	05:10	-134.916	49.416	0	432.80	0	4.3110	0	34.0160	0	26.974	0	428.664	0	40.3	4	12.8	4	-1E+10	1	-1E+10	1	-1E+10	1	-1E+10	1	-1E+10	1	-1E+10	1
4902551	33	C	07/07/2021	05:10	-134.916	49.416	0	437.60	0	4.2920	0	34.0240	0	26.983	0	433.413	0	39.4	4	12.5	4	-1E+10	1	-1E+10	1	-1E+10	1	-1E+10	1	-1E+10	1	-1E+10	1
4902551	33	C	07/07/2021	05:10	-134.916	49.416	0	442.60	0	4.2840	0	34.0270	0	26.986	0	438.360	0	39.0	4	12.4	4	-1E+10	1	-1E+10	1	-1E+10	1	-1E+10	1	-1E+10	1	-1E+10	1
4902551	33	C	07/07/2021	05:10	-134.916	49.416	0	447.60	0	4.2810	0	34.0290	0	26.988	0	443.307	0	38.4	4	12.2	4	-1E+10	1	-1E+10	1	-1E+10	1	-1E+10	1	-1E+10	1	-1E+10	1
4902551	33	C	07/07/2021	05:10	-134.916	49.416	0	452.60	0	4.2690	0	34.0330	0	26.993	0	448.253	0	37.6	4	11.9	4	-1E+10	1	-1E+10	1	-1E+10	1	-1E+10	1	-1E+10	1	-1E+10	1
4902551	33	C	07/07/2021	05:10	-134.916	49.416	0	457.70	0	4.2580	0	34.0370	0	26.997	0	453.299	0	36.9	4	11.7	4	-1E+10	1	-1E+10	1	-1E+10	1	-1E+10	1	-1E+10	1	-1E+10	1
4902551	33	C	07/07/2021	05:10	-134.916	49.416	0	462.80	0	4.2450	0	34.0430	0	27.003	0	458.344	0	36.1	4	11.5	4	-1E+10	1	-1E+10	1	-1E+10	1	-1E+10	1	-1E+10	1	-1E+10	1
4902551	33	C	07/07/2021	05:10	-134.916	49.416	0	468.10	0	4.2190	0	34.0510	0	27.012	0	463.587	0	36.0	4	11.4	4	-1E+10	1	-1E+10	1	-1E+10	1	-1E+10	1	-1E+10	1	-1E+10	1
4902551	33	C	07/07/2021	05:10	-134.916	49.416	0	473.00	0	4.1990	0	34.0560	0	27.018	0	468.434	0	36.0	4	11.4	4	-1E+10	1	-1E+10	1	-1E+10	1	-1E+10	1	-1E+10	1	-1E+10	1
4902551	33	C	07/07/2021	05:10	-134.916	49.416	0	478.00	0	4.1780	0	34.0610	0	27.024	0	473.380	0	35.5	4	11.3	4	-1E+10	1	-1E+10	1	-1E+10	1	-1E+10	1	-1E+10	1	-1E+10	1
4902551	33	C	07/07/2021	05:10	-134.916	49.416	0	483.20	0	4.1640	0	34.0650	0	27.029	0	478.524	0	35.3	4	11.2	4	-1E+10	1	-1E+10	1	-1E+10	1	-1E+10	1	-1E+10	1	-1E+10	1
4902551	33	C	07/07/2021	05:10	-134.916	49.416	0	488.00	0	4.1600	0	34.0670	0	27.031	0	483.272	0	34.7	4	11.0	4	-1E+10	1	-1E+10	1	-1E+10	1	-1E+10	1	-1E+10	1	-1E+10	1
4902551	33	C	07/07/2021	05:10	-134.916	49.416	0	492.80	0	4.1540	0	34.0680	0	27.033	0	488.020	0	34.2	4	10.8	4	-1E+10	1	-1E+10	1	-1E+10	1	-1E+10	1	-1E+10	1	-1E+10	1
4902551	33	C	07/07/2021	05:10	-134.916	49.416	0	497.70	0	4.1460	0	34.0710	0	27.036	0	492.867	0	33.5	4	10.6	4	-1E+10	1	-1E+10	1	-1E+10	1	-1E+10	1	-1E+10	1	-1E+10	1
4902551	33	C	07/07/2021	05:10	-134.916	49.416	0	502.60	0	4.1270	0	34.0770	0	27.043	0	497.713	0	32.6	4	10.3	4	-1E+10	1	-1E+10	1	-1E+10	1	-1E+10	1	-1E+10	1	-1E+10	1
4902551	33	C	07/07/2021	05:10	-134.916	49.416	0	507.50	0	4.1050	0	34.0840	0	27.051	0	502.560	0	31.9	4	10.1	4	-1E+10	1	-1E+10	1	-1E+10	1	-1E+10	1	-1E+10	1	-1E+10	1
4902551	33	C	07/07/2021	05:10	-134.916	49.416	0	512.50	0	4.0950	0	34.0880	0	27.055	0	507.505	0	31.4	4	9.9	4	-1E+10	1	-1E+10	1	-1E+10	1	-1E+10	1	-1E+10	1	-1E+10	1
4902551	33	C	07/07/2021	05:10	-134.916	49.416	0	517.50	0	4.0830	0	34.0920	0	27.059	0	512.450	0	31.0	4	9.8	4	-1E+10	1	-1E+10	1	-1E+10	1	-1E+10	1	-1E+10	1	-1E+10	1
4902551	33	C	07/07/2021	05:10	-134.916	49.416	0	522.50	0	4.0730	0	34.0950	0	27.063	0	517.395	0	30.7	4	9.7	4	-1E+10	1	-1E+10	1	-1E+10	1	-1E+10	1	-1E+10	1	-1E+10	1
4902551	33	C	07/07/2021	05:10	-134.916	49.416	0	527.50	0	4.0670	0	34.0970	0	27.065	0	522.340	0	30.5	4	9.6	4	-1E+10	1	-1E+10	1	-1E+10	1	-1E+10	1	-1E+10	1	-1E+10	1
4902551	33	C	07/07/2021	05:10	-134.916	49.416	0	532.50	0	4.0620	0	34.0990	0	27.067	0	527.285	0	30.2	4	9.5	4	-1E+10	1	-1E+10	1	-1E+10	1	-1E+10	1	-1E+10	1	-1E+10	1
4902551	33	C	07/07/2021	05:10	-134.916	49.416	0	537.50	0	4.0540	0	34.1010	0	27.070	0	532.229	0	29.8	4	9.4	4	-1E+10	1	-1E+10	1	-1E+10	1	-1E+10	1	-1E+10	1	-1E+10	1
4902551	33	C	07/07/2021	05:10	-134.916	49.416	0	542.50	0	4.0500	0	34.1020	0	27.071	0	537.174	0	29.2	4	9.2	4	-1E+10	1	-1E+10	1	-1E+10	1	-1E+10	1	-1E+10	1	-1E+10	1
4902551	33	C	07/07/2021	05:10	-134.916	49.416	0	547.50	0	4.0380	0	34.1070	0	27.076	0	542.118	0	28.6	4	9.0	4	-1E+10	1	-1E+10	1	-1E+10	1	-1E+10	1	-1E+10	1	-1E+10	1
4902551	33	C	07/07/2021	05:10	-134.916	49.416	0	552.50	0	4.0190	0	34.1140	0	27.084	0	547.062	0	28.1	4	8.9	4	-1E+10	1	-1E+10	1	-1E+10	1	-1E+10	1	-1E+10	1	-1E+10	1
4902551	33	C	07/07/2021	05:10	-134.916	49.416	0	557.50	0	4.0110	0	34.1160	0	27.086	0	552.007	0	28.0	4	8.8	4	-1E+10	1	-1E+10	1	-1E+10	1	-1E+10	1	-1E+10	1	-1E+10	1
4902551	33	C	07/07/2021	05:10	-134.916	49.416	0	562.60	0	4.0100	0	34.1170	0	27.087	0	557.050	0	27.7	4	8.7	4	-1E+10	1	-1E+10	1	-1E+10	1	-1E+10	1	-1E+10	1	-1E+10	1
4902551	33	C	07/07/2021	05:10	-134.916	49.416	0	567.60	0	4.0050	0	34.1180	0	27.088	0	561.993	0	27.3	4	8.6	4	-1E+10	1	-1E+10	1	-1E+10	1	-1E+10	1	-1E+10	1	-1E+10	1
4902551	33	C	07/07/2021	05:10	-134.916	49.416	0	572.80	0	3.9890	0	34.1230	0	27.094	0	567.135	0	26.8	4	8.5	4	-1E+10	1	-1E+10	1	-1E+10	1	-1E+10	1	-1E+10	1	-1E+10	1
4902551	33	C	07/07/2021	05:10	-134.916	49.416	0	578.00	0	3.9760	0	34.1270	0	27.098	0	572.276	0	26.5	4	8.4	4	-1E+10	1	-1E+10	1	-1E+10	1	-1E+10	1	-1E+10	1	-1E+10	1
4902551	33	C	07/07/2021	05:10	-134.916	49.416	0	583.20	0	3.9690	0	34.1300	0	27.102	0	577.418	0	26.3	4	8.3	4	-1E+10	1	-1E+10	1	-1E+10	1	-1E+10	1	-1E+10	1	-1E+10	1
4902551	33	C	07/07/2021	05:10	-134.916	49.416	0	587.90	0	3.9640	0	34.1320	0	27.104	0	582.065	0	26.0	4	8.2	4	-1E+10	1	-1E+10	1	-1E+10	1	-1E+10	1	-1E+10	1	-1E+10	1
4902551	33	C	07/07/2021	05:10	-134.916	49.416	0	592.60	0	3.9590	0	34.1330	0	27.105	0	586.711	0	25.8	4	8.1	4	-1E+10	1	-1E+10	1	-1E+10	1	-1E+10	1	-1E+10	1	-1E+10	1
4902551	33	C	07/07/2021	05:10	-134.916	49.416	0	597.80	0	3.9540	0	34.1350	0	27.107	0	591.852	0	25.4	4	8.0	4	-1E+10	1	-1E+10	1	-1E+10	1	-1E+10	1	-1E+10	1	-1E+10	1
4902551	33	C	07/07/2021	05:10	-134.916	49.416	0	603.00	0	3.9470	0	34.1370	0	27.110	0	596.993	0	24.9	4	7.9	4	-1E+10	1	-1E+10	1	-1E+10	1	-1E+10	1	-1E+10	1	-1E+10	1
4902551	33	C	07/07/2021	05:10	-134.916	49.416	0	608.20	0	3.9310	0	34.1420	0	27.115	0	602.134	0	24.3	4	7.7	4	-1E+10	1	-1E+10	1	-1E+10	1	-1E+10	1	-1E+10	1	-1E+10	1
4902551	33	C	07/07/2021	05:10	-134.916	49.416	0	613.00	0	3.9180	0	34.1470	0	27.121	0	606.879	0	23.8	4	7.5	4	-1E+10	1	-1E+10	1	-1E+10	1	-1E+10	1	-1E+10	1	-1E+10	1
4902551	33	C	07/07/2021	05:10	-134.916	49.416	0	617.70	0	3.9090	0	34.1500	0	27.124	0	611.525	0	23.3	4	7.4	4	-1E+10	1	-1E+10	1	-1E+10	1	-1E+10	1	-1E+10	1	-1E+10	1
4902551	33	C	07/07/2021	05:10	-134.916	49.416	0	622.90	0	3.9000	0	34.1540	0	27.128	0	616.665	0	22.8	4	7.2	4	-1E+10	1	-1E+10	1	-1E+10	1	-1E+10	1	-1E+10	1	-1E+10	1
4902551	33	C	07/07/2021	05:10	-134.916	49.416	0	628.20	0	3.8870	0	34.1580	0	27.132	0	621.904	0	22.3	4	7.0	4	-1E+10	1	-1E+10	1	-1E+10	1	-1E+10	1	-1E+10	1	-1E+10	1
4902551	33	C	07/07/2021	05:10	-134.916	49.416	0	632.90	0	3.8750	0	34.1620	0	27.137	0	626.550	0	21.7	4	6.8	4	-1E+10	1	-1E+10	1	-1E+10	1	-1E+10	1	-1E+10	1	-1E+10	1
4902551	33	C	07/07/2021	05:10	-134.916	49.416	0	637.70	0	3.8660	0	34.1660	0	27.141	0	631.295	0	21.1	4	6.6	4	-1E+10	1	-1E+10	1	-1E+10	1	-1E+10	1	-1E+10	1	-1E+10	1
4902551	33	C	07/07/2021	05:10	-134.916	49.416	0	643.10	0	3.8490	0	34.1720	0	27.148	0	636.632	0	20.3	4	6.4	4	-1E+10	1	-1E+10	1	-1E+10	1	-1E+10	1	-1E+10	1	-1E+10	1
4902551	33	C	07/07/2021	05:10	-134.916	49.416	0	648.00	0	3.8180	0	34.1840	0	27.160	0	641.475	0	19.8	4	6.2	4	-1E+10	1	-1E+10	1	-1E+10	1	-1E+10	1	-1E+10	1	-1E+10	1
4902551	33	C	07/07/2021	05:10	-134.916	49.416	0	652.80	0	3.8100	0	34.1870	0	27.163	0	646.220	0	19.5	4	6.1	4	-1E+10	1	-1E+10	1	-1E+10	1	-1E+10	1	-1E+10	1	-1E+10	1
4902551	33	C	07/07/2021	05:10	-134.916	49.416	0	658.00	0	3.7980	0	34.1910	0	27.168	0	651.359	0	19.2	4	6.0	4	-1E+10	1	-1E+10	1	-1E+10	1	-1E+10	1	-1E+10	1	-1E+10	1
4902551	33	C	07/07/2021	05:10	-134.916	49.416	0	663.20	0	3.7890	0	34.1940	0	27.171	0	656.499	0	18.9	4	5.9	4	-1E+10	1	-1E+10	1	-1E+10	1	-1E+10	1	-1E+10	1	-1E+10	1
4902551	33	C	07/07/2021	05:10	-134.916	49.416	0	668.10	0	3.7810	0	34.1970	0	27.174	0	661.341	0	18.6	4	5.8	4	-1E+10	1	-1E+10	1	-1E+10	1	-1E+10	1	-1E+10	1	-1E+10	1
4902551	33	C	07/07/2021	05:10	-134.916	49.416	0	673.00	0	3.7720	0	34.2010	0	27.179	0	666.184	0	18.3	4	5.7	4	-1E+10	1	-1E+10	1	-1E+10	1	-1E+10	1	-1E+10	1	-1E+10	1
4902551	33	C	07/07/2021	05:10	-134.916	49.416	0	678.00	0	3.7590	0	34.2070	0	27.185	0	671.125	0	18.0	4	5.7	4	-1E+10	1	-1E+10	1	-1E+10	1	-1E+10	1	-1E+10	1	-1E+10	1
4902551	33	C	07/07/2021	05:10	-134.916	49.416	0	683.10	0	3.7550	0	34.2080	0	27.186	0	676.165	0	17.8	4	5.6	4	-1E+10	1	-1E+10	1	-1E+10	1	-1E+10	1	-1E+10	1	-1E+10	1
4902551	33	C	07/07/2021	05:10	-134.916	49.416	0	688.20	0	3.7480	0	34.2110	0	27.189	0	681.205	0	17.6	4	5.5	4	-1E+10	1	-1E+10	1	-1E+10	1	-1E+10	1	-1E+10	1	-1E+10	1
4902551	33	C	07/07/2021	05:10	-134.916	49.416	0	693.20	0	3.7400	0	34.2130	0	27.191	0	686.146	0	17.4	4	5.5	4	-1E+10	1	-1E+10	1	-1E+10	1	-1E+10	1	-1E+10	1	-1E+10	1
4902551	33	C	07/07/2021	05:10	-134.916	49.416	0	698.00	0	3.7350	0	34.2160	0	27.194	0	690.889	0	17.2	4	5.4	4	-1E+10	1	-1E+10	1	-1E+10	1	-1E+10	1	-1E+10	1	-1E+10	1
4902551	33	C	07/07/2021	05:10	-134.916	49.416	0	702.70	0	3.7250	0	34.2190	0	27.198	0	695.533	0	17.0	4	5.3	4	-1E+10	1	-1E+10	1	-1E+10	1	-1E+10	1	-1E+10	1	-1E+10	1
4902551	33	C	07/07/2021	05:10	-134.916	49.416	0	707.70	0	3.7050	0	34.2240	0	27.204	0	700.474	0	16.7	4	5.2	4	-1E+10	1	-1E+10	1	-1E+10	1	-1E+10	1	-1E+10	1	-1E+10	1
4902551	33	C	07/07/2021	05:10	-134.916	49.416	0	712.80	0	3.6920	0	34.2280	0	27.208	0	705.513	0	16.5	4	5.2	4	-1E+10	1	-1E+10	1	-1E+10	1	-1E+10	1	-1E+10	1	-1E+10	1
4902551	33	C	07/07/2021	05:10	-134.916	49.416	0	717.90	0	3.6770	0	34.2320	0	27.213	0	710.553	0	16.4	4	5.1	4	-1E+10	1	-1E+10	1	-1E+10	1	-1E+10	1	-1E+10	1	-1E+10	1
4902551	33	C	07/07/2021	05:10	-134.916	49.416	0	722.60	0	3.6600	0	34.2360	0	27.218	0	715.196	0	16.2	4	5.1	4	-1E+10	1	-1E+10	1	-1E+10	1	-1E+10	1	-1E+10	1	-1E+10	1
4902551	33	C	07/07/2021	05:10	-134.916	49.416	0	727.80	0	3.6470	0	34.2390	0	27.221	0	720.334	0	16.1	4	5.0	4	-1E+10	1	-1E+10	1	-1E+10	1	-1E+10	1	-1E+10	1	-1E+10	1
4902551	33	C	07/07/2021	05:10	-134.916	49.416	0	733.10	0	3.6280	0	34.2430	0	27.227	0	725.571	0	15.9	4	5.0	4	-1E+10	1	-1E+10	1	-1E+10	1	-1E+10	1	-1E+10	1	-1E+10	1
4902551	33	C	07/07/2021	05:10	-134.916	49.416	0	738.00	0	3.6110	0	34.2470	0	27.231	0	730.412	0	15.8	4	4.9	4	-1E+10	1	-1E+10	1	-1E+10	1	-1E+10	1	-1E+10	1	-1E+10	1
4902551	33	C	07/07/2021	05:10	-134.916	49.416	0	742.80	0	3.5950	0	34.2510	0	27.236	0	735.154	0	15.8	4	4.9	4	-1E+10	1	-1E+10	1	-1E+10	1	-1E+10	1	-1E+10	1	-1E+10	1
4902551	33	C	07/07/2021	05:10	-134.916	49.416	0	748.00	0	3.5840	0	34.2530	0	27.239	0	740.291	0	15.7	4	4.9	4	-1E+10	1	-1E+10	1	-1E+10	1	-1E+10	1	-1E+10	1	-1E+10	1
4902551	33	C	07/07/2021	05:10	-134.916	49.416	0	753.40	0	3.5780	0	34.2540	0	27.240	0	745.626	0	15.6	4	4.9	4	-1E+10	1	-1E+10	1	-1E+10	1	-1E+10	1	-1E+10	1	-1E+10	1
4902551	33	C	07/07/2021	05:10	-134.916	49.416	0	757.90	0	3.5740	0	34.2560	0	27.242	0	750.071	0	15.6	4	4.9	4	-1E+10	1	-1E+10	1	-1E+10	1	-1E+10	1	-1E+10	1	-1E+10	1
4902551	33	C	07/07/2021	05:10	-134.916	49.416	0	762.50	0	3.5660	0	34.2570	0	27.244	0	754.616	0	15.5	4	4.9	4	-1E+10	1	-1E+10	1	-1E+10	1	-1E+10	1	-1E+10	1	-1E+10	1
4902551	33	C	07/07/2021	05:10	-134.916	49.416	0	767.60	0	3.5600	0	34.2580	0	27.245	0	759.653	0	15.5	4	4.8	4	-1E+10	1	-1E+10	1	-1E+10	1	-1E+10	1	-1E+10	1	-1E+10	1
4902551	33	C	07/07/2021	05:10	-134.916	49.416	0	772.80	0	3.5520	0	34.2600	0	27.248	0	764.790	0	15.4	4	4.8	4	-1E+10	1	-1E+10	1	-1E+10	1	-1E+10	1	-1E+10	1	-1E+10	1
4902551	33	C	07/07/2021	05:10	-134.916	49.416	0	777.90	0	3.5400	0	34.2620	0	27.251	0	769.828	0	15.3	4	4.8	4	-1E+10	1	-1E+10	1	-1E+10	1	-1E+10	1	-1E+10	1	-1E+10	1
4902551	33	C	07/07/2021	05:10	-134.916	49.416	0	782.90	0	3.5210	0	34.2660	0	27.256	0	774.767	0	15.2	4	4.8	4	-1E+10	1	-1E+10	1	-1E+10	1	-1E+10	1	-1E+10	1	-1E+10	1
4902551	33	C	07/07/2021	05:10	-134.916	49.416	0	787.80	0	3.5130	0	34.2670	0	27.257	0	779.607	0	15.2	4	4.7	4	-1E+10	1	-1E+10	1	-1E+10	1	-1E+10	1	-1E+10	1	-1E+10	1
4902551	33	C	07/07/2021	05:10	-134.916	49.416	0	792.90	0	3.5050	0	34.2690	0	27.260	0	784.644	0	15.1	4	4.7	4	-1E+10	1	-1E+10	1	-1E+10	1	-1E+10	1	-1E+10	1	-1E+10	1
4902551	33	C	07/07/2021	05:10	-134.916	49.416	0	798.00	0	3.4960	0	34.2710	0	27.262	0	789.681	0	15.0	4	4.7	4	-1E+10	1	-1E+10	1	-1E+10	1	-1E+10	1	-1E+10	1	-1E+10	1
4902551	33	C	07/07/2021	05:10	-134.916	49.416	0	803.20	0	3.4750	0	34.2740	0	27.266	0	794.817	0	14.9	4	4.7	4	-1E+10	1	-1E+10	1	-1E+10	1	-1E+10	1	-1E+10	1	-1E+10	1
4902551	33	C	07/07/2021	05:10	-134.916	49.416	0	808.00	0	3.4570	0	34.2780	0	27.271	0	799.558	0	14.8	4	4.6	4	-1E+10	1	-1E+10	1	-1E+10	1	-1E+10	1	-1E+10	1	-1E+10	1
4902551	33	C	07/07/2021	05:10	-134.916	49.416	0	813.00	0	3.4430	0	34.2800	0	27.274	0	804.496	0	14.8	4	4.6	4	-1E+10	1	-1E+10	1	-1E+10	1	-1E+10	1	-1E+10	1	-1E+10	1
4902551	33	C	07/07/2021	05:10	-134.916	49.416	0	817.90	0	3.4260	0	34.2830	0	27.278	0	809.335	0	14.7	4	4.6	4	-1E+10	1	-1E+10	1	-1E+10	1	-1E+10	1	-1E+10	1	-1E+10	1
4902551	33	C	07/07/2021	05:10	-134.916	49.416	0	823.00	0	3.4150	0	34.2860	0	27.282	0	814.372	0	14.6	4	4.5	4	-1E+10	1	-1E+10	1	-1E+10	1	-1E+10	1	-1E+10	1	-1E+10	1
4902551	33	C	07/07/2021	05:10	-134.916	49.416	0	828.00	0	3.4080	0	34.2880	0	27.284	0	819.310	0	14.6	4	4.5	4	-1E+10	1	-1E+10	1	-1E+10	1	-1E+10	1	-1E+10	1	-1E+10	1
4902551	33	C	07/07/2021	05:10	-134.916	49.416	0	833.20	0	3.4000	0	34.2900	0	27.287	0	824.445	0	14.5	4	4.5	4	-1E+10	1	-1E+10	1	-1E+10	1	-1E+10	1	-1E+10	1	-1E+10	1
4902551	33	C	07/07/2021	05:10	-134.916	49.416	0	838.00	0	3.3940	0	34.2910	0	27.288	0	829.185	0	14.5	4	4.5	4	-1E+10	1	-1E+10	1	-1E+10	1	-1E+10	1	-1E+10	1	-1E+10	1
4902551	33	C	07/07/2021	05:10	-134.916	49.416	0	842.80	0	3.3850	0	34.2920	0	27.290	0	833.925	0	14.4	4	4.5	4	-1E+10	1	-1E+10	1	-1E+10	1	-1E+10	1	-1E+10	1	-1E+10	1
4902551	33	C	07/07/2021	05:10	-134.916	49.416	0	847.80	0	3.3780	0	34.2940	0	27.292	0	838.862	0	14.4	4	4.5	4	-1E+10	1	-1E+10	1	-1E+10	1	-1E+10	1	-1E+10	1	-1E+10	1
4902551	33	C	07/07/2021	05:10	-134.916	49.416	0	852.70	0	3.3700	0	34.2950	0	27.294	0	843.701	0	14.4	4	4.5	4	-1E+10	1	-1E+10	1	-1E+10	1	-1E+10	1	-1E+10	1	-1E+10	1
4902551	33	C	07/07/2021	05:10	-134.916	49.416	0	858.00	0	3.3650	0	34.2960	0	27.295	0	848.934	0	14.3	4	4.5	4	-1E+10	1	-1E+10	1	-1E+10	1	-1E+10	1	-1E+10	1	-1E+10	1
4902551	33	C	07/07/2021	05:10	-134.916	49.416	0	863.20	0	3.3570	0	34.2980	0	27.297	0	854.068	0	14.3	4	4.4	4	-1E+10	1	-1E+10	1	-1E+10	1	-1E+10	1	-1E+10	1	-1E+10	1
4902551	33	C	07/07/2021	05:10	-134.916	49.416	0	868.30	0	3.3500	0	34.2990	0	27.299	0	859.104	0	14.2	4	4.4	4	-1E+10	1	-1E+10	1	-1E+10	1	-1E+10	1	-1E+10	1	-1E+10	1
4902551	33	C	07/07/2021	05:10	-134.916	49.416	0	872.90	0	3.3400	0	34.3020	0	27.302	0	863.646	0	14.1	4	4.4	4	-1E+10	1	-1E+10	1	-1E+10	1	-1E+10	1	-1E+10	1	-1E+10	1
4902551	33	C	07/07/2021	05:10	-134.916	49.416	0	877.60	0	3.3290	0	34.3040	0	27.305	0	868.286	0	14.1	4	4.4	4	-1E+10	1	-1E+10	1	-1E+10	1	-1E+10	1	-1E+10	1	-1E+10	1
4902551	33	C	07/07/2021	05:10	-134.916	49.416	0	882.70	0	3.3270	0	34.3050	0	27.306	0	873.321	0	14.1	4	4.4	4	-1E+10	1	-1E+10	1	-1E+10	1	-1E+10	1	-1E+10	1	-1E+10	1
4902551	33	C	07/07/2021	05:10	-134.916	49.416	0	887.90	0	3.3240	0	34.3050	0	27.306	0	878.455	0	14.0	4	4.4	4	-1E+10	1	-1E+10	1	-1E+10	1	-1E+10	1	-1E+10	1	-1E+10	1
4902551	33	C	07/07/2021	05:10	-134.916	49.416	0	893.10	0	3.3110	0	34.3080	0	27.310	0	883.589	0	14.0	4	4.3	4	-1E+10	1	-1E+10	1	-1E+10	1	-1E+10	1	-1E+10	1	-1E+10	1
4902551	33	C	07/07/2021	05:10	-134.916	49.416	0	898.20	0	3.2990	0	34.3110	0	27.313	0	888.624	0	13.9	4	4.3	4	-1E+10	1	-1E+10	1	-1E+10	1	-1E+10	1	-1E+10	1	-1E+10	1
4902551	33	C	07/07/2021	05:10	-134.916	49.416	0	903.00	0	3.2910	0	34.3120	0	27.315	0	893.362	0	13.9	4	4.3	4	-1E+10	1	-1E+10	1	-1E+10	1	-1E+10	1	-1E+10	1	-1E+10	1
4902551	33	C	07/07/2021	05:10	-134.916	49.416	0	907.70	0	3.2800	0	34.3140	0	27.317	0	898.002	0	13.8	4	4.3	4	-1E+10	1	-1E+10	1	-1E+10	1	-1E+10	1	-1E+10	1	-1E+10	1
4902551	33	C	07/07/2021	05:10	-134.916	49.416	0	913.00	0	3.2670	0	34.3170	0	27.321	0	903.234	0	13.8	4	4.3	4	-1E+10	1	-1E+10	1	-1E+10	1	-1E+10	1	-1E+10	1	-1E+10	1
4902551	33	C	07/07/2021	05:10	-134.916	49.416	0	917.90	0	3.2590	0	34.3180	0	27.323	0	908.071	0	13.7	4	4.3	4	-1E+10	1	-1E+10	1	-1E+10	1	-1E+10	1	-1E+10	1	-1E+10	1
4902551	33	C	07/07/2021	05:10	-134.916	49.416	0	922.80	0	3.2460	0	34.3210	0	27.326	0	912.908	0	13.7	4	4.2	4	-1E+10	1	-1E+10	1	-1E+10	1	-1E+10	1	-1E+10	1	-1E+10	1
4902551	33	C	07/07/2021	05:10	-134.916	49.416	0	927.80	0	3.2350	0	34.3230	0	27.329	0	917.843	0	13.6	4	4.2	4	-1E+10	1	-1E+10	1	-1E+10	1	-1E+10	1	-1E+10	1	-1E+10	1
4902551	33	C	07/07/2021	05:10	-134.916	49.416	0	932.70	0	3.2190	0	34.3260	0	27.333	0	922.680	0	13.5	4	4.2	4	-1E+10	1	-1E+10	1	-1E+10	1	-1E+10	1	-1E+10	1	-1E+10	1
4902551	33	C	07/07/2021	05:10	-134.916	49.416	0	938.10	0	3.1990	0	34.3310	0	27.339	0	928.010	0	13.5	4	4.2	4	-1E+10	1	-1E+10	1	-1E+10	1	-1E+10	1	-1E+10	1	-1E+10	1
4902551	33	C	07/07/2021	05:10	-134.916	49.416	0	943.00	0	3.1910	0	34.3320	0	27.340	0	932.846	0	13.4	4	4.2	4	-1E+10	1	-1E+10	1	-1E+10	1	-1E+10	1	-1E+10	1	-1E+10	1
4902551	33	C	07/07/2021	05:10	-134.916	49.416	0	947.80	0	3.1820	0	34.3340	0	27.343	0	937.584	0	13.4	4	4.2	4	-1E+10	1	-1E+10	1	-1E+10	1	-1E+10	1	-1E+10	1	-1E+10	1
4902551	33	C	07/07/2021	05:10	-134.916	49.416	0	953.10	0	3.1750	0	34.3360	0	27.345	0	942.815	0	13.4	4	4.1	4	-1E+10	1	-1E+10	1	-1E+10	1	-1E+10	1	-1E+10	1	-1E+10	1
4902551	33	C	07/07/2021	05:10	-134.916	49.416	0	958.10	0	3.1630	0	34.3380	0	27.348	0	947.750	0	13.3	4	4.1	4	-1E+10	1	-1E+10	1	-1E+10	1	-1E+10	1	-1E+10	1	-1E+10	1
4902551	33	C	07/07/2021	05:10	-134.916	49.416	0	963.00	0	3.1530	0	34.3410	0	27.351	0	952.586	0	13.3	4	4.1	4	-1E+10	1	-1E+10	1	-1E+10	1	-1E+10	1	-1E+10	1	-1E+10	1
4902551	33	C	07/07/2021	05:10	-134.916	49.416	0	968.00	0	3.1380	0	34.3440	0	27.355	0	957.520	0	13.2	4	4.1	4	-1E+10	1	-1E+10	1	-1E+10	1	-1E+10	1	-1E+10	1	-1E+10	1
4902551	33	C	07/07/2021	05:10	-134.916	49.416	0	972.90	0	3.1210	0	34.3470	0	27.359	0	962.356	0	13.1	4	4.1	4	-1E+10	1	-1E+10	1	-1E+10	1	-1E+10	1	-1E+10	1	-1E+10	1
4902551	33	C	07/07/2021	05:10	-134.916	49.416	0	977.90	0	3.1090	0	34.3510	0	27.363	0	967.290	0	13.0	4	4.0	4	-1E+10	1	-1E+10	1	-1E+10	1	-1E+10	1	-1E+10	1	-1E+10	1
4902551	33	C	07/07/2021	05:10	-134.916	49.416	0	982.80	0	3.1050	0	34.3530	0	27.365	0	972.126	0	12.9	4	4.0	4	-1E+10	1	-1E+10	1	-1E+10	1	-1E+10	1	-1E+10	1	-1E+10	1
4902551	33	C	07/07/2021	05:10	-134.916	49.416	0	987.80	0	3.0910	0	34.3570	0	27.370	0	977.060	0	12.8	4	4.0	4	-1E+10	1	-1E+10	1	-1E+10	1	-1E+10	1	-1E+10	1	-1E+10	1
4902551	33	C	07/07/2021	05:10	-134.916	49.416	0	992.80	0	3.0770	0	34.3610	0	27.374	0	981.994	0	12.7	4	3.9	4	-1E+10	1	-1E+10	1	-1E+10	1	-1E+10	1	-1E+10	1	-1E+10	1
4902551	33	C	07/07/2021	05:10	-134.916	49.416	0	997.90	0	3.0720	0	34.3630	0	27.376	0	987.026	0	12.7	4	3.9	4	-1E+10	1	-1E+10	1	-1E+10	1	-1E+10	1	-1E+10	1	-1E+10	1
4902551	33	C	07/07/2021	05:10	-134.916	49.416	0	1005.50	0	3.0590	0	34.3650	0	27.379	0	994.525	0	12.7	4	3.9	4	-1E+10	1	-1E+10	1	-1E+10	1	-1E+10	1	-1E+10	1	-1E+10	1
4902551	33	C	07/07/2021	05:10	-134.916	49.416	0	1015.70	0	3.0350	0	34.3710	0	27.386	0	1004.589	0	12.6	4	3.9	4	-1E+10	1	-1E+10	1	-1E+10	1	-1E+10	1	-1E+10	1	-1E+10	1
4902551	33	C	07/07/2021	05:10	-134.916	49.416	0	1025.60	0	3.0230	0	34.3740	0	27.390	0	1014.357	0	12.5	4	3.9	4	-1E+10	1	-1E+10	1	-1E+10	1	-1E+10	1	-1E+10	1	-1E+10	1
4902551	33	C	07/07/2021	05:10	-134.916	49.416	0	1035.80	0	3.0000	0	34.3810	0	27.397	0	1024.421	0	12.4	4	3.8	4	-1E+10	1	-1E+10	1	-1E+10	1	-1E+10	1	-1E+10	1	-1E+10	1
4902551	33	C	07/07/2021	05:10	-134.916	49.416	0	1045.30	0	2.9850	0	34.3840	0	27.401	0	1033.793	0	12.4	4	3.8	4	-1E+10	1	-1E+10	1	-1E+10	1	-1E+10	1	-1E+10	1	-1E+10	1
4902551	33	C	07/07/2021	05:10	-134.916	49.416	0	1055.40	0	2.9650	0	34.3880	0	27.406	0	1043.756	0	12.4	4	3.8	4	-1E+10	1	-1E+10	1	-1E+10	1	-1E+10	1	-1E+10	1	-1E+10	1
4902551	33	C	07/07/2021	05:10	-134.916	49.416	0	1065.30	0	2.9500	0	34.3920	0	27.411	0	1053.522	0	12.4	4	3.8	4	-1E+10	1	-1E+10	1	-1E+10	1	-1E+10	1	-1E+10	1	-1E+10	1
4902551	33	C	07/07/2021	05:10	-134.916	49.416	0	1075.10	0	2.9350	0	34.3960	0	27.415	0	1063.189	0	12.5	4	3.8	4	-1E+10	1	-1E+10	1	-1E+10	1	-1E+10	1	-1E+10	1	-1E+10	1
4902551	33	C	07/07/2021	05:10	-134.916	49.416	0	1085.00	0	2.9280	0	34.3980	0	27.418	0	1072.954	0	12.5	4	3.9	4	-1E+10	1	-1E+10	1	-1E+10	1	-1E+10	1	-1E+10	1	-1E+10	1
4902551	33	C	07/07/2021	05:10	-134.916	49.416	0	1095.20	0	2.9060	0	34.4020	0	27.423	0	1083.015	0	12.6	4	3.9	4	-1E+10	1	-1E+10	1	-1E+10	1	-1E+10	1	-1E+10	1	-1E+10	1
4902551	33	C	07/07/2021	05:10	-134.916	49.416	0	1105.00	0	2.8900	0	34.4060	0	27.428	0	1092.680	0	12.7	4	3.9	4	-1E+10	1	-1E+10	1	-1E+10	1	-1E+10	1	-1E+10	1	-1E+10	1
4902551	33	C	07/07/2021	05:10	-134.916	49.416	0	1115.20	0	2.8770	0	34.4080	0	27.430	0	1102.740	0	12.8	4	3.9	4	-1E+10	1	-1E+10	1	-1E+10	1	-1E+10	1	-1E+10	1	-1E+10	1
4902551	33	C	07/07/2021	05:10	-134.916	49.416	0	1125.60	0	2.8560	0	34.4110	0	27.435	0	1112.996	0	12.8	4	4.0	4	-1E+10	1	-1E+10	1	-1E+10	1	-1E+10	1	-1E+10	1	-1E+10	1
4902551	33	C	07/07/2021	05:10	-134.916	49.416	0	1135.40	0	2.8420	0	34.4140	0	27.438	0	1122.660	0	12.9	4	4.0	4	-1E+10	1	-1E+10	1	-1E+10	1	-1E+10	1	-1E+10	1	-1E+10	1
4902551	33	C	07/07/2021	05:10	-134.916	49.416	0	1145.10	0	2.8270	0	34.4160	0	27.441	0	1132.225	0	13.0	4	4.0	4	-1E+10	1	-1E+10	1	-1E+10	1	-1E+10	1	-1E+10	1	-1E+10	1
4902551	33	C	07/07/2021	05:10	-134.916	49.416	0	1155.30	0	2.8120	0	34.4210	0	27.447	0	1142.283	0	13.2	4	4.1	4	-1E+10	1	-1E+10	1	-1E+10	1	-1E+10	1	-1E+10	1	-1E+10	1
4902551	33	C	07/07/2021	05:10	-134.916	49.416	0	1165.30	0	2.7970	0	34.4240	0	27.451	0	1152.143	0	13.3	4	4.1	4	-1E+10	1	-1E+10	1	-1E+10	1	-1E+10	1	-1E+10	1	-1E+10	1
4902551	33	C	07/07/2021	05:10	-134.916	49.416	0	1175.50	0	2.7840	0	34.4260	0	27.453	0	1162.199	0	13.4	4	4.1	4	-1E+10	1	-1E+10	1	-1E+10	1	-1E+10	1	-1E+10	1	-1E+10	1
4902551	33	C	07/07/2021	05:10	-134.916	49.416	0	1185.60	0	2.7680	0	34.4290	0	27.457	0	1172.157	0	13.5	4	4.2	4	-1E+10	1	-1E+10	1	-1E+10	1	-1E+10	1	-1E+10	1	-1E+10	1
4902551	33	C	07/07/2021	05:10	-134.916	49.416	0	1195.60	0	2.7540	0	34.4300	0	27.459	0	1182.015	0	13.7	4	4.2	4	-1E+10	1	-1E+10	1	-1E+10	1	-1E+10	1	-1E+10	1	-1E+10	1
4902551	33	C	07/07/2021	05:10	-134.916	49.416	0	1205.60	0	2.7320	0	34.4320	0	27.463	0	1191.873	0	13.8	4	4.2	4	-1E+10	1	-1E+10	1	-1E+10	1	-1E+10	1	-1E+10	1	-1E+10	1
4902551	33	C	07/07/2021	05:10	-134.916	49.416	0	1215.50	0	2.7130	0	34.4350	0	27.467	0	1201.632	0	14.0	4	4.3	4	-1E+10	1	-1E+10	1	-1E+10	1	-1E+10	1	-1E+10	1	-1E+10	1
4902551	33	C	07/07/2021	05:10	-134.916	49.416	0	1225.30	0	2.7090	0	34.4380	0	27.470	0	1211.292	0	14.3	4	4.4	4	-1E+10	1	-1E+10	1	-1E+10	1	-1E+10	1	-1E+10	1	-1E+10	1
4902551	33	C	07/07/2021	05:10	-134.916	49.416	0	1235.30	0	2.7000	0	34.4410	0	27.473	0	1221.149	0	14.4	4	4.4	4	-1E+10	1	-1E+10	1	-1E+10	1	-1E+10	1	-1E+10	1	-1E+10	1
4902551	33	C	07/07/2021	05:10	-134.916	49.416	0	1245.30	0	2.6900	0	34.4430	0	27.475	0	1231.005	0	14.7	4	4.5	4	-1E+10	1	-1E+10	1	-1E+10	1	-1E+10	1	-1E+10	1	-1E+10	1
4902551	33	C	07/07/2021	05:10	-134.916	49.416	0	1255.40	0	2.6750	0	34.4460	0	27.479	0	1240.959	0	15.0	4	4.6	4	-1E+10	1	-1E+10	1	-1E+10	1	-1E+10	1	-1E+10	1	-1E+10	1
4902551	33	C	07/07/2021	05:10	-134.916	49.416	0	1265.50	0	2.6550	0	34.4500	0	27.484	0	1250.913	0	15.4	4	4.7	4	-1E+10	1	-1E+10	1	-1E+10	1	-1E+10	1	-1E+10	1	-1E+10	1
4902551	33	C	07/07/2021	05:10	-134.916	49.416	0	1275.50	0	2.6280	0	34.4550	0	27.491	0	1260.768	0	15.7	4	4.8	4	-1E+10	1	-1E+10	1	-1E+10	1	-1E+10	1	-1E+10	1	-1E+10	1
4902551	33	C	07/07/2021	05:10	-134.916	49.416	0	1285.70	0	2.6030	0	34.4580	0	27.495	0	1270.819	0	15.9	4	4.9	4	-1E+10	1	-1E+10	1	-1E+10	1	-1E+10	1	-1E+10	1	-1E+10	1
4902551	33	C	07/07/2021	05:10	-134.916	49.416	0	1295.60	0	2.5910	0	34.4590	0	27.497	0	1280.575	0	16.1	4	4.9	4	-1E+10	1	-1E+10	1	-1E+10	1	-1E+10	1	-1E+10	1	-1E+10	1
4902551	33	C	07/07/2021	05:10	-134.916	49.416	0	1305.30	0	2.5750	0	34.4610	0	27.500	0	1290.133	0	16.3	4	5.0	4	-1E+10	1	-1E+10	1	-1E+10	1	-1E+10	1	-1E+10	1	-1E+10	1
4902551	33	C	07/07/2021	05:10	-134.916	49.416	0	1315.30	0	2.5630	0	34.4630	0	27.503	0	1299.986	0	16.6	4	5.1	4	-1E+10	1	-1E+10	1	-1E+10	1	-1E+10	1	-1E+10	1	-1E+10	1
4902551	33	C	07/07/2021	05:10	-134.916	49.416	0	1325.60	0	2.5480	0	34.4660	0	27.506	0	1310.134	0	17.0	4	5.2	4	-1E+10	1	-1E+10	1	-1E+10	1	-1E+10	1	-1E+10	1	-1E+10	1
4902551	33	C	07/07/2021	05:10	-134.916	49.416	0	1335.30	0	2.5360	0	34.4680	0	27.509	0	1319.690	0	17.4	4	5.3	4	-1E+10	1	-1E+10	1	-1E+10	1	-1E+10	1	-1E+10	1	-1E+10	1
4902551	33	C	07/07/2021	05:10	-134.916	49.416	0	1345.20	0	2.5220	0	34.4720	0	27.513	0	1329.443	0	17.9	4	5.5	4	-1E+10	1	-1E+10	1	-1E+10	1	-1E+10	1	-1E+10	1	-1E+10	1
4902551	33	C	07/07/2021	05:10	-134.916	49.416	0	1355.20	0	2.5000	0	34.4760	0	27.519	0	1339.294	0	18.6	4	5.7	4	-1E+10	1	-1E+10	1	-1E+10	1	-1E+10	1	-1E+10	1	-1E+10	1
4902551	33	C	07/07/2021	05:10	-134.916	49.416	0	1365.20	0	2.4770	0	34.4800	0	27.524	0	1349.145	0	19.1	4	5.8	4	-1E+10	1	-1E+10	1	-1E+10	1	-1E+10	1	-1E+10	1	-1E+10	1
4902551	33	C	07/07/2021	05:10	-134.916	49.416	0	1375.40	0	2.4670	0	34.4820	0	27.526	0	1359.192	0	19.3	4	5.9	4	-1E+10	1	-1E+10	1	-1E+10	1	-1E+10	1	-1E+10	1	-1E+10	1
4902551	33	C	07/07/2021	05:10	-134.916	49.416	0	1385.30	0	2.4560	0	34.4840	0	27.529	0	1368.944	0	19.7	4	6.0	4	-1E+10	1	-1E+10	1	-1E+10	1	-1E+10	1	-1E+10	1	-1E+10	1
4902551	33	C	07/07/2021	05:10	-134.916	49.416	0	1395.50	0	2.4430	0	34.4860	0	27.532	0	1378.990	0	20.1	4	6.1	4	-1E+10	1	-1E+10	1	-1E+10	1	-1E+10	1	-1E+10	1	-1E+10	1
4902551	33	C	07/07/2021	05:10	-134.916	49.416	0	1405.30	0	2.4280	0	34.4880	0	27.534	0	1388.642	0	20.5	4	6.2	4	-1E+10	1	-1E+10	1	-1E+10	1	-1E+10	1	-1E+10	1	-1E+10	1
4902551	33	C	07/07/2021	05:10	-134.916	49.416	0	1415.40	0	2.4190	0	34.4900	0	27.537	0	1398.588	0	20.8	4	6.3	4	-1E+10	1	-1E+10	1	-1E+10	1	-1E+10	1	-1E+10	1	-1E+10	1
4902551	33	C	07/07/2021	05:10	-134.916	49.416	0	1425.40	0	2.4100	0	34.4920	0	27.539	0	1408.436	0	21.3	4	6.5	4	-1E+10	1	-1E+10	1	-1E+10	1	-1E+10	1	-1E+10	1	-1E+10	1
4902551	33	C	07/07/2021	05:10	-134.916	49.416	0	1435.30	0	2.4000	0	34.4940	0	27.542	0	1418.185	0	21.7	4	6.6	4	-1E+10	1	-1E+10	1	-1E+10	1	-1E+10	1	-1E+10	1	-1E+10	1
4902551	33	C	07/07/2021	05:10	-134.916	49.416	0	1445.40	0	2.3880	0	34.4960	0	27.544	0	1428.131	0	22.2	4	6.7	4	-1E+10	1	-1E+10	1	-1E+10	1	-1E+10	1	-1E+10	1	-1E+10	1
4902551	33	C	07/07/2021	05:10	-134.916	49.416	0	1455.20	0	2.3760	0	34.4980	0	27.547	0	1437.780	0	22.6	4	6.9	4	-1E+10	1	-1E+10	1	-1E+10	1	-1E+10	1	-1E+10	1	-1E+10	1
4902551	33	C	07/07/2021	05:10	-134.916	49.416	0	1465.20	0	2.3670	0	34.5000	0	27.549	0	1447.626	0	23.1	4	7.0	4	-1E+10	1	-1E+10	1	-1E+10	1	-1E+10	1	-1E+10	1	-1E+10	1
4902551	33	C	07/07/2021	05:10	-134.916	49.416	0	1475.50	0	2.3630	0	34.5010	0	27.551	0	1457.767	0	23.7	4	7.2	4	-1E+10	1	-1E+10	1	-1E+10	1	-1E+10	1	-1E+10	1	-1E+10	1
4902551	33	C	07/07/2021	05:10	-134.916	49.416	0	1485.70	0	2.3490	0	34.5040	0	27.554	0	1467.809	0	24.5	4	7.4	4	-1E+10	1	-1E+10	1	-1E+10	1	-1E+10	1	-1E+10	1	-1E+10	1
4902551	33	C	07/07/2021	05:10	-134.916	49.416	0	1495.70	0	2.3330	0	34.5080	0	27.559	0	1477.654	0	25.2	4	7.7	4	-1E+10	1	-1E+10	1	-1E+10	1	-1E+10	1	-1E+10	1	-1E+10	1
4902551	33	C	07/07/2021	05:10	-134.916	49.416	0	1505.70	0	2.3230	0	34.5100	0	27.561	0	1487.498	0	25.7	4	7.8	4	-1E+10	1	-1E+10	1	-1E+10	1	-1E+10	1	-1E+10	1	-1E+10	1
4902551	33	C	07/07/2021	05:10	-134.916	49.416	0	1515.50	0	2.3150	0	34.5120	0	27.564	0	1497.145	0	26.0	4	7.9	4	-1E+10	1	-1E+10	1	-1E+10	1	-1E+10	1	-1E+10	1	-1E+10	1
4902551	33	C	07/07/2021	05:10	-134.916	49.416	0	1525.40	0	2.3080	0	34.5130	0	27.565	0	1506.890	0	26.4	4	8.0	4	-1E+10	1	-1E+10	1	-1E+10	1	-1E+10	1	-1E+10	1	-1E+10	1
4902551	33	C	07/07/2021	05:10	-134.916	49.416	0	1535.40	0	2.3000	0	34.5140	0	27.567	0	1516.732	0	26.8	4	8.1	4	-1E+10	1	-1E+10	1	-1E+10	1	-1E+10	1	-1E+10	1	-1E+10	1
4902551	33	C	07/07/2021	05:10	-134.916	49.416	0	1545.40	0	2.2910	0	34.5160	0	27.569	0	1526.575	0	27.4	4	8.3	4	-1E+10	1	-1E+10	1	-1E+10	1	-1E+10	1	-1E+10	1	-1E+10	1
4902551	33	C	07/07/2021	05:10	-134.916	49.416	0	1555.50	0	2.2780	0	34.5180	0	27.572	0	1536.515	0	28.0	4	8.5	4	-1E+10	1	-1E+10	1	-1E+10	1	-1E+10	1	-1E+10	1	-1E+10	1
4902551	33	C	07/07/2021	05:10	-134.916	49.416	0	1565.20	0	2.2660	0	34.5200	0	27.574	0	1546.061	0	28.8	4	8.7	4	-1E+10	1	-1E+10	1	-1E+10	1	-1E+10	1	-1E+10	1	-1E+10	1
4902551	33	C	07/07/2021	05:10	-134.916	49.416	0	1575.30	0	2.2490	0	34.5230	0	27.578	0	1556.001	0	29.6	4	9.0	4	-1E+10	1	-1E+10	1	-1E+10	1	-1E+10	1	-1E+10	1	-1E+10	1
4902551	33	C	07/07/2021	05:10	-134.916	49.416	0	1585.70	0	2.2380	0	34.5260	0	27.581	0	1566.235	0	30.2	4	9.2	4	-1E+10	1	-1E+10	1	-1E+10	1	-1E+10	1	-1E+10	1	-1E+10	1
4902551	33	C	07/07/2021	05:10	-134.916	49.416	0	1595.60	0	2.2300	0	34.5280	0	27.584	0	1575.976	0	30.7	4	9.3	4	-1E+10	1	-1E+10	1	-1E+10	1	-1E+10	1	-1E+10	1	-1E+10	1
4902551	33	C	07/07/2021	05:10	-134.916	49.416	0	1605.60	0	2.2230	0	34.5290	0	27.585	0	1585.816	0	31.2	4	9.4	4	-1E+10	1	-1E+10	1	-1E+10	1	-1E+10	1	-1E+10	1	-1E+10	1
4902551	33	C	07/07/2021	05:10	-134.916	49.416	0	1615.40	0	2.2140	0	34.5300	0	27.587	0	1595.458	0	31.7	4	9.6	4	-1E+10	1	-1E+10	1	-1E+10	1	-1E+10	1	-1E+10	1	-1E+10	1
4902551	33	C	07/07/2021	05:10	-134.916	49.416	0	1625.20	0	2.2020	0	34.5330	0	27.590	0	1605.100	0	32.3	4	9.8	4	-1E+10	1	-1E+10	1	-1E+10	1	-1E+10	1	-1E+10	1	-1E+10	1
4902551	33	C	07/07/2021	05:10	-134.916	49.416	0	1635.50	0	2.1970	0	34.5340	0	27.591	0	1615.234	0	32.8	4	9.9	4	-1E+10	1	-1E+10	1	-1E+10	1	-1E+10	1	-1E+10	1	-1E+10	1
4902551	33	C	07/07/2021	05:10	-134.916	49.416	0	1645.20	0	2.1880	0	34.5350	0	27.593	0	1624.776	0	33.3	4	10.1	4	-1E+10	1	-1E+10	1	-1E+10	1	-1E+10	1	-1E+10	1	-1E+10	1
4902551	33	C	07/07/2021	05:10	-134.916	49.416	0	1655.20	0	2.1770	0	34.5370	0	27.595	0	1634.614	0	33.8	4	10.2	4	-1E+10	1	-1E+10	1	-1E+10	1	-1E+10	1	-1E+10	1	-1E+10	1
4902551	33	C	07/07/2021	05:10	-134.916	49.416	0	1665.30	0	2.1710	0	34.5380	0	27.597	0	1644.549	0	34.3	4	10.4	4	-1E+10	1	-1E+10	1	-1E+10	1	-1E+10	1	-1E+10	1	-1E+10	1
4902551	33	C	07/07/2021	05:10	-134.916	49.416	0	1675.30	0	2.1630	0	34.5400	0	27.599	0	1654.385	0	34.9	4	10.6	4	-1E+10	1	-1E+10	1	-1E+10	1	-1E+10	1	-1E+10	1	-1E+10	1
4902551	33	C	07/07/2021	05:10	-134.916	49.416	0	1685.50	0	2.1550	0	34.5420	0	27.601	0	1664.418	0	35.5	4	10.7	4	-1E+10	1	-1E+10	1	-1E+10	1	-1E+10	1	-1E+10	1	-1E+10	1
4902551	33	C	07/07/2021	05:10	-134.916	49.416	0	1695.50	0	2.1430	0	34.5440	0	27.604	0	1674.253	0	36.2	4	11.0	4	-1E+10	1	-1E+10	1	-1E+10	1	-1E+10	1	-1E+10	1	-1E+10	1
4902551	33	C	07/07/2021	05:10	-134.916	49.416	0	1705.10	0	2.1370	0	34.5450	0	27.605	0	1683.695	0	36.8	4	11.1	4	-1E+10	1	-1E+10	1	-1E+10	1	-1E+10	1	-1E+10	1	-1E+10	1
4902551	33	C	07/07/2021	05:10	-134.916	49.416	0	1715.40	0	2.1270	0	34.5470	0	27.608	0	1693.824	0	37.4	4	11.3	4	-1E+10	1	-1E+10	1	-1E+10	1	-1E+10	1	-1E+10	1	-1E+10	1
4902551	33	C	07/07/2021	05:10	-134.916	49.416	0	1725.40	0	2.1190	0	34.5490	0	27.610	0	1703.659	0	37.9	4	11.5	4	-1E+10	1	-1E+10	1	-1E+10	1	-1E+10	1	-1E+10	1	-1E+10	1
4902551	33	C	07/07/2021	05:10	-134.916	49.416	0	1735.20	0	2.1110	0	34.5500	0	27.612	0	1713.295	0	38.7	4	11.7	4	-1E+10	1	-1E+10	1	-1E+10	1	-1E+10	1	-1E+10	1	-1E+10	1
4902551	33	C	07/07/2021	05:10	-134.916	49.416	0	1745.20	0	2.0990	0	34.5520	0	27.614	0	1723.129	0	39.4	4	11.9	4	-1E+10	1	-1E+10	1	-1E+10	1	-1E+10	1	-1E+10	1	-1E+10	1
4902551	33	C	07/07/2021	05:10	-134.916	49.416	0	1755.40	0	2.0900	0	34.5540	0	27.617	0	1733.158	0	40.0	4	12.1	4	-1E+10	1	-1E+10	1	-1E+10	1	-1E+10	1	-1E+10	1	-1E+10	1
4902551	33	C	07/07/2021	05:10	-134.916	49.416	0	1765.80	0	2.0820	0	34.5560	0	27.619	0	1743.384	0	40.6	4	12.3	4	-1E+10	1	-1E+10	1	-1E+10	1	-1E+10	1	-1E+10	1	-1E+10	1
4902551	33	C	07/07/2021	05:10	-134.916	49.416	0	1775.30	0	2.0740	0	34.5570	0	27.620	0	1752.724	0	41.1	4	12.4	4	-1E+10	1	-1E+10	1	-1E+10	1	-1E+10	1	-1E+10	1	-1E+10	1
4902551	33	C	07/07/2021	05:10	-134.916	49.416	0	1785.10	0	2.0670	0	34.5580	0	27.622	0	1762.359	0	41.6	4	12.6	4	-1E+10	1	-1E+10	1	-1E+10	1	-1E+10	1	-1E+10	1	-1E+10	1
4902551	33	C	07/07/2021	05:10	-134.916	49.416	0	1795.10	0	2.0620	0	34.5600	0	27.624	0	1772.189	0	41.9	4	12.7	4	-1E+10	1	-1E+10	1	-1E+10	1	-1E+10	1	-1E+10	1	-1E+10	1
4902551	33	C	07/07/2021	05:10	-134.916	49.416	0	1805.30	0	2.0600	0	34.5600	0	27.624	0	1782.217	0	42.4	4	12.8	4	-1E+10	1	-1E+10	1	-1E+10	1	-1E+10	1	-1E+10	1	-1E+10	1
4902551	33	C	07/07/2021	05:10	-134.916	49.416	0	1815.30	0	2.0500	0	34.5620	0	27.626	0	1792.047	0	43.1	4	13.0	4	-1E+10	1	-1E+10	1	-1E+10	1	-1E+10	1	-1E+10	1	-1E+10	1
4902551	33	C	07/07/2021	05:10	-134.916	49.416	0	1825.30	0	2.0430	0	34.5630	0	27.628	0	1801.876	0	43.5	4	13.1	4	-1E+10	1	-1E+10	1	-1E+10	1	-1E+10	1	-1E+10	1	-1E+10	1
4902551	33	C	07/07/2021	05:10	-134.916	49.416	0	1835.40	0	2.0380	0	34.5640	0	27.629	0	1811.803	0	44.0	4	13.3	4	-1E+10	1	-1E+10	1	-1E+10	1	-1E+10	1	-1E+10	1	-1E+10	1
4902551	33	C	07/07/2021	05:10	-134.916	49.416	0	1845.70	0	2.0340	0	34.5650	0	27.630	0	1821.927	0	44.7	4	13.5	4	-1E+10	1	-1E+10	1	-1E+10	1	-1E+10	1	-1E+10	1	-1E+10	1
4902551	33	C	07/07/2021	05:10	-134.916	49.416	0	1855.80	0	2.0270	0	34.5660	0	27.632	0	1831.853	0	45.1	4	13.6	4	-1E+10	1	-1E+10	1	-1E+10	1	-1E+10	1	-1E+10	1	-1E+10	1
4902551	33	C	07/07/2021	05:10	-134.916	49.416	0	1865.50	0	2.0210	0	34.5680	0	27.634	0	1841.386	0	45.6	4	13.8	4	-1E+10	1	-1E+10	1	-1E+10	1	-1E+10	1	-1E+10	1	-1E+10	1
4902551	33	C	07/07/2021	05:10	-134.916	49.416	0	1875.30	0	2.0170	0	34.5690	0	27.635	0	1851.017	0	46.2	4	13.9	4	-1E+10	1	-1E+10	1	-1E+10	1	-1E+10	1	-1E+10	1	-1E+10	1
4902551	33	C	07/07/2021	05:10	-134.916	49.416	0	1885.60	0	2.0120	0	34.5700	0	27.636	0	1861.138	0	46.8	4	14.1	4	-1E+10	1	-1E+10	1	-1E+10	1	-1E+10	1	-1E+10	1	-1E+10	1
4902551	33	C	07/07/2021	05:10	-134.916	49.416	0	1895.40	0	2.0060	0	34.5710	0	27.638	0	1870.768	0	47.5	4	14.3	4	-1E+10	1	-1E+10	1	-1E+10	1	-1E+10	1	-1E+10	1	-1E+10	1
4902551	33	C	07/07/2021	05:10	-134.916	49.416	0	1905.10	0	1.9990	0	34.5720	0	27.639	0	1880.299	0	48.0	4	14.5	4	-1E+10	1	-1E+10	1	-1E+10	1	-1E+10	1	-1E+10	1	-1E+10	1
4902551	33	C	07/07/2021	05:10	-134.916	49.416	0	1915.20	0	1.9940	0	34.5730	0	27.640	0	1890.223	0	48.7	4	14.7	4	-1E+10	1	-1E+10	1	-1E+10	1	-1E+10	1	-1E+10	1	-1E+10	1
4902551	33	C	07/07/2021	05:10	-134.916	49.416	0	1925.20	0	1.9860	0	34.5750	0	27.642	0	1900.048	0	49.2	4	14.8	4	-1E+10	1	-1E+10	1	-1E+10	1	-1E+10	1	-1E+10	1	-1E+10	1
4902551	33	C	07/07/2021	05:10	-134.916	49.416	0	1935.20	0	1.9800	0	34.5760	0	27.644	0	1909.873	0	49.8	4	15.0	4	-1E+10	1	-1E+10	1	-1E+10	1	-1E+10	1	-1E+10	1	-1E+10	1
4902551	33	C	07/07/2021	05:10	-134.916	49.416	0	1945.40	0	1.9720	0	34.5780	0	27.646	0	1919.893	0	50.6	4	15.3	4	-1E+10	1	-1E+10	1	-1E+10	1	-1E+10	1	-1E+10	1	-1E+10	1
4902551	33	C	07/07/2021	05:10	-134.916	49.416	0	1955.50	0	1.9620	0	34.5790	0	27.648	0	1929.815	0	51.5	4	15.5	4	-1E+10	1	-1E+10	1	-1E+10	1	-1E+10	1	-1E+10	1	-1E+10	1
4902551	33	C	07/07/2021	05:10	-134.916	49.416	0	1965.40	0	1.9550	0	34.5810	0	27.650	0	1939.540	0	52.2	4	15.7	4	-1E+10	1	-1E+10	1	-1E+10	1	-1E+10	1	-1E+10	1	-1E+10	1
4902551	33	C	07/07/2021	05:10	-134.916	49.416	0	1975.60	0	1.9450	0	34.5830	0	27.652	0	1949.559	0	52.8	4	15.9	4	-1E+10	1	-1E+10	1	-1E+10	1	-1E+10	1	-1E+10	1	-1E+10	1
4902551	33	C	07/07/2021	05:10	-134.916	49.416	0	1985.90	0	1.9390	0	34.5840	0	27.654	0	1959.676	0	53.3	4	16.0	4	-1E+10	1	-1E+10	1	-1E+10	1	-1E+10	1	-1E+10	1	-1E+10	1
4902551	33	C	07/07/2021	05:10	-134.916	49.416	0	1993.60	0	1.9340	0	34.5850	0	27.655	0	1967.239	0	53.2	4	16.0	4	-1E+10	1	-1E+10	1	-1E+10	1	-1E+10	1	-1E+10	1	-1E+10	1
4902551	33	C	07/07/2021	05:10	-134.916	49.416	0																										
4902551	34	C	07/17/2021	10:05	-134.910	49.424	0	0.40	0	13.8440	0	32.3130	0	24.144	0	0.397	0	254.6	4	98.6	4	-1E+10	1	-1E+10	1	-1E+10	1	-1E+10	1	-1E+10	1	-1E+10	1
4902551	34	C	07/17/2021	10:05	-134.910	49.424	0	1.00	0	13.8460	0	32.2960	0	24.131	0	0.991	0	254.7	4	98.6	4	-1E+10	1	-1E+10	1	-1E+10	1	-1E+10	1	-1E+10	1	-1E+10	1
4902551	34	C	07/17/2021	10:05	-134.910	49.424	0	1.90	0	13.8460	0	32.3120	0	24.143	0	1.884	0	254.7	4	98.6	4	-1E+10	1	-1E+10	1	-1E+10	1	-1E+10	1	-1E+10	1	-1E+10	1
4902551	34	C	07/17/2021	10:05	-134.910	49.424	0	3.00	0	13.8470	0	32.3170	0	24.147	0	2.974	0	254.8	4	98.6	4	-1E+10	1	-1E+10	1	-1E+10	1	-1E+10	1	-1E+10	1	-1E+10	1
4902551	34	C	07/17/2021	10:05	-134.910	49.424	0	4.00	0	13.8470	0	32.3180	0	24.147	0	3.966	0	254.8	4	98.6	4	-1E+10	1	-1E+10	1	-1E+10	1	-1E+10	1	-1E+10	1	-1E+10	1
4902551	34	C	07/17/2021	10:05	-134.910	49.424	0	5.00	0	13.8460	0	32.3210	0	24.150	0	4.957	0	254.8	4	98.7	4	-1E+10	1	-1E+10	1	-1E+10	1	-1E+10	1	-1E+10	1	-1E+10	1
4902551	34	C	07/17/2021	10:05	-134.910	49.424	0	6.10	0	13.8460	0	32.3210	0	24.150	0	6.048	0	254.9	4	98.7	4	-1E+10	1	-1E+10	1	-1E+10	1	-1E+10	1	-1E+10	1	-1E+10	1
4902551	34	C	07/17/2021	10:05	-134.910	49.424	0	7.00	0	13.8460	0	32.3210	0	24.150	0	6.940	0	254.9	4	98.7	4	-1E+10	1	-1E+10	1	-1E+10	1	-1E+10	1	-1E+10	1	-1E+10	1
4902551	34	C	07/17/2021	10:05	-134.910	49.424	0	7.90	0	13.8460	0	32.3200	0	24.149	0	7.833	0	255.0	4	98.7	4	-1E+10	1	-1E+10	1	-1E+10	1	-1E+10	1	-1E+10	1	-1E+10	1
4902551	34	C	07/17/2021	10:05	-134.910	49.424	0	9.10	0	13.8470	0	32.3210	0	24.150	0	9.022	0	255.1	4	98.8	4	-1E+10	1	-1E+10	1	-1E+10	1	-1E+10	1	-1E+10	1	-1E+10	1
4902551	34	C	07/17/2021	10:05	-134.910	49.424	0	10.00	0	13.8470	0	32.3200	0	24.149	0	9.915	0	255.2	4	98.8	4	-1E+10	1	-1E+10	1	-1E+10	1	-1E+10	1	-1E+10	1	-1E+10	1
4902551	34	C	07/17/2021	10:05	-134.910	49.424	0	10.80	0	13.8470	0	32.3200	0	24.149	0	10.708	0	255.4	4	98.9	4	-1E+10	1	-1E+10	1	-1E+10	1	-1E+10	1	-1E+10	1	-1E+10	1
4902551	34	C	07/17/2021	10:05	-134.910	49.424	0	12.10	0	13.8470	0	32.3210	0	24.150	0	11.997	0	255.6	4	99.0	4	-1E+10	1	-1E+10	1	-1E+10	1	-1E+10	1	-1E+10	1	-1E+10	1
4902551	34	C	07/17/2021	10:05	-134.910	49.424	0	13.00	0	13.8470	0	32.3200	0	24.149	0	12.889	0	255.8	4	99.0	4	-1E+10	1	-1E+10	1	-1E+10	1	-1E+10	1	-1E+10	1	-1E+10	1
4902551	34	C	07/17/2021	10:05	-134.910	49.424	0	13.80	0	13.8470	0	32.3200	0	24.149	0	13.682	0	256.2	4	99.2	4	-1E+10	1	-1E+10	1	-1E+10	1	-1E+10	1	-1E+10	1	-1E+10	1
4902551	34	C	07/17/2021	10:05	-134.910	49.424	0	15.00	0	13.8470	0	32.3200	0	24.149	0	14.872	0	256.7	4	99.4	4	-1E+10	1	-1E+10	1	-1E+10	1	-1E+10	1	-1E+10	1	-1E+10	1
4902551	34	C	07/17/2021	10:05	-134.910	49.424	0	16.10	0	13.8470	0	32.3200	0	24.149	0	15.962	0	257.2	4	99.6	4	-1E+10	1	-1E+10	1	-1E+10	1	-1E+10	1	-1E+10	1	-1E+10	1
4902551	34	C	07/17/2021	10:05	-134.910	49.424	0	16.90	0	13.8430	0	32.3190	0	24.149	0	16.755	0	257.8	4	99.8	4	-1E+10	1	-1E+10	1	-1E+10	1	-1E+10	1	-1E+10	1	-1E+10	1
4902551	34	C	07/17/2021	10:05	-134.910	49.424	0	17.80	0	13.8410	0	32.3200	0	24.151	0	17.648	0	258.3	4	100.0	4	-1E+10	1	-1E+10	1	-1E+10	1	-1E+10	1	-1E+10	1	-1E+10	1
4902551	34	C	07/17/2021	10:05	-134.910	49.424	0	18.90	0	13.8350	0	32.3190	0	24.151	0	18.738	0	259.3	4	100.4	4	-1E+10	1	-1E+10	1	-1E+10	1	-1E+10	1	-1E+10	1	-1E+10	1
4902551	34	C	07/17/2021	10:05	-134.910	49.424	0	19.90	0	13.8190	0	32.3170	0	24.153	0	19.729	0	260.6	4	100.8	4	-1E+10	1	-1E+10	1	-1E+10	1	-1E+10	1	-1E+10	1	-1E+10	1
4902551	34	C	07/17/2021	10:05	-134.910	49.424	0	21.10	0	13.7910	0	32.3140	0	24.156	0	20.919	0	262.2	4	101.4	4	-1E+10	1	-1E+10	1	-1E+10	1	-1E+10	1	-1E+10	1	-1E+10	1
4902551	34	C	07/17/2021	10:05	-134.910	49.424	0	22.10	0	13.3540	0	32.3210	0	24.250	0	21.911	0	265.8	4	101.9	4	-1E+10	1	-1E+10	1	-1E+10	1	-1E+10	1	-1E+10	1	-1E+10	1
4902551	34	C	07/17/2021	10:05	-134.910	49.424	0	23.10	0	12.8500	0	32.3210	0	24.349	0	22.902	0	270.4	4	102.6	4	-1E+10	1	-1E+10	1	-1E+10	1	-1E+10	1	-1E+10	1	-1E+10	1
4902551	34	C	07/17/2021	10:05	-134.910	49.424	0	23.90	0	12.6470	0	32.3170	0	24.385	0	23.695	0	272.2	4	102.8	4	-1E+10	1	-1E+10	1	-1E+10	1	-1E+10	1	-1E+10	1	-1E+10	1
4902551	34	C	07/17/2021	10:05	-134.910	49.424	0	24.80	0	12.4850	0	32.2940	0	24.398	0	24.587	0	274.4	4	103.3	4	-1E+10	1	-1E+10	1	-1E+10	1	-1E+10	1	-1E+10	1	-1E+10	1
4902551	34	C	07/17/2021	10:05	-134.910	49.424	0	26.00	0	12.1070	0	32.3230	0	24.492	0	25.777	0	276.4	4	103.3	4	-1E+10	1	-1E+10	1	-1E+10	1	-1E+10	1	-1E+10	1	-1E+10	1
4902551	34	C	07/17/2021	10:05	-134.910	49.424	0	27.20	0	11.9440	0	32.3180	0	24.518	0	26.966	0	277.9	4	103.5	4	-1E+10	1	-1E+10	1	-1E+10	1	-1E+10	1	-1E+10	1	-1E+10	1
4902551	34	C	07/17/2021	10:05	-134.910	49.424	0	27.90	0	11.8040	0	32.3200	0	24.546	0	27.660	0	278.7	4	103.5	4	-1E+10	1	-1E+10	1	-1E+10	1	-1E+10	1	-1E+10	1	-1E+10	1
4902551	34	C	07/17/2021	10:05	-134.910	49.424	0	28.90	0	11.5670	0	32.3220	0	24.591	0	28.652	0	280.2	4	103.5	4	-1E+10	1	-1E+10	1	-1E+10	1	-1E+10	1	-1E+10	1	-1E+10	1
4902551	34	C	07/17/2021	10:05	-134.910	49.424	0	30.00	0	11.3020	0	32.3200	0	24.637	0	29.742	0	282.1	4	103.6	4	-1E+10	1	-1E+10	1	-1E+10	1	-1E+10	1	-1E+10	1	-1E+10	1
4902551	34	C	07/17/2021	10:05	-134.910	49.424	0	31.20	0	10.9100	0	32.3230	0	24.708	0	30.932	0	284.3	4	103.6	4	-1E+10	1	-1E+10	1	-1E+10	1	-1E+10	1	-1E+10	1	-1E+10	1
4902551	34	C	07/17/2021	10:05	-134.910	49.424	0	31.90	0	10.6070	0	32.3360	0	24.771	0	31.626	0	285.7	4	103.4	4	-1E+10	1	-1E+10	1	-1E+10	1	-1E+10	1	-1E+10	1	-1E+10	1
4902551	34	C	07/17/2021	10:05	-134.910	49.424	0	32.90	0	10.3400	0	32.3340	0	24.815	0	32.617	0	286.9	4	103.2	4	-1E+10	1	-1E+10	1	-1E+10	1	-1E+10	1	-1E+10	1	-1E+10	1
4902551	34	C	07/17/2021	10:05	-134.910	49.424	0	34.00	0	10.1900	0	32.3370	0	24.843	0	33.708	0	287.6	4	103.2	4	-1E+10	1	-1E+10	1	-1E+10	1	-1E+10	1	-1E+10	1	-1E+10	1
4902551	34	C	07/17/2021	10:05	-134.910	49.424	0	34.80	0	9.9730	0	32.3340	0	24.876	0	34.501	0	288.5	4	103.0	4	-1E+10	1	-1E+10	1	-1E+10	1	-1E+10	1	-1E+10	1	-1E+10	1
4902551	34	C	07/17/2021	10:05	-134.910	49.424	0	35.80	0	9.6750	0	32.3530	0	24.940	0	35.492	0	289.5	4	102.7	4	-1E+10	1	-1E+10	1	-1E+10	1	-1E+10	1	-1E+10	1	-1E+10	1
4902551	34	C	07/17/2021	10:05	-134.910	49.424	0	36.90	0	9.5080	0	32.3590	0	24.972	0	36.582	0	290.1	4	102.5	4	-1E+10	1	-1E+10	1	-1E+10	1	-1E+10	1	-1E+10	1	-1E+10	1
4902551	34	C	07/17/2021	10:05	-134.910	49.424	0	37.80	0	9.4240	0	32.3620	0	24.987	0	37.474	0	290.4	4	102.5	4	-1E+10	1	-1E+10	1	-1E+10	1	-1E+10	1	-1E+10	1	-1E+10	1
4902551	34	C	07/17/2021	10:05	-134.910	49.424	0	38.90	0	9.3470	0	32.3630	0	25.000	0	38.565	0	290.6	4	102.4	4	-1E+10	1	-1E+10	1	-1E+10	1	-1E+10	1	-1E+10	1	-1E+10	1
4902551	34	C	07/17/2021	10:05	-134.910	49.424	0	39.90	0	9.2530	0	32.3700	0	25.021	0	39.556	0	290.9	4	102.3	4	-1E+10	1	-1E+10	1	-1E+10	1	-1E+10	1	-1E+10	1	-1E+10	1
4902551	34	C	07/17/2021	10:05	-134.910	49.424	0	40.80	0	9.1870	0	32.3700	0	25.031	0	40.448	0	291.4	4	102.3	4	-1E+10	1	-1E+10	1	-1E+10	1	-1E+10	1	-1E+10	1	-1E+10	1
4902551	34	C	07/17/2021	10:05	-134.910	49.424	0	41.80	0	9.0990	0	32.3710	0	25.046	0	41.440	0	291.5	4	102.1	4	-1E+10	1	-1E+10	1	-1E+10	1	-1E+10	1	-1E+10	1	-1E+10	1
4902551	34	C	07/17/2021	10:05	-134.910	49.424	0	42.90	0	8.9950	0	32.3750	0	25.065	0	42.530	0	291.5	4	101.9	4	-1E+10	1	-1E+10	1	-1E+10	1	-1E+10	1	-1E+10	1	-1E+10	1
4902551	34	C	07/17/2021	10:05	-134.910	49.424	0	44.10	0	8.9200	0	32.3790	0	25.080	0	43.720	0	291.4	4	101.7	4	-1E+10	1	-1E+10	1	-1E+10	1	-1E+10	1	-1E+10	1	-1E+10	1
4902551	34	C	07/17/2021	10:05	-134.910	49.424	0	44.90	0	8.8340	0	32.3790	0	25.093	0	44.513	0	291.3	4	101.5	4	-1E+10	1	-1E+10	1	-1E+10	1	-1E+10	1	-1E+10	1	-1E+10	1
4902551	34	C	07/17/2021	10:05	-134.910	49.424	0	46.00	0	8.6060	0	32.3810	0	25.129	0	45.603	0	290.6	4	100.7	4	-1E+10	1	-1E+10	1	-1E+10	1	-1E+10	1	-1E+10	1	-1E+10	1
4902551	34	C	07/17/2021	10:05	-134.910	49.424	0	47.00	0	8.3220	0	32.3890	0	25.178	0	46.594	0	289.6	4	99.8	4	-1E+10	1	-1E+10	1	-1E+10	1	-1E+10	1	-1E+10	1	-1E+10	1
4902551	34	C	07/17/2021	10:05	-134.910	49.424	0	47.90	0	8.0940	0	32.4010	0	25.221	0	47.486	0	288.8	4	99.0	4	-1E+10	1	-1E+10	1	-1E+10	1	-1E+10	1	-1E+10	1	-1E+10	1
4902551	34	C	07/17/2021	10:05	-134.910	49.424	0	48.90	0	7.9210	0	32.4080	0	25.251	0	48.478	0	288.3	4	98.4	4	-1E+10	1	-1E+10	1	-1E+10	1	-1E+10	1	-1E+10	1	-1E+10	1
4902551	34	C	07/17/2021	10:05	-134.910	49.424	0	50.00	0	7.7530	0	32.4070	0	25.274	0	49.568	0	287.6	4	97.8	4	-1E+10	1	-1E+10	1	-1E+10	1	-1E+10	1	-1E+10	1	-1E+10	1
4902551	34	C	07/17/2021	10:05	-134.910	49.424	0	51.20	0	7.6470	0	32.4050	0	25.288	0	50.757	0	286.5	4	97.2	4	-1E+10	1	-1E+10	1	-1E+10	1	-1E+10	1	-1E+10	1	-1E+10	1
4902551	34	C	07/17/2021	10:05	-134.910	49.424	0	52.00	0	7.4270	0	32.4090	0	25.321	0	51.550	0	286.6	4	96.8	4	-1E+10	1	-1E+10	1	-1E+10	1	-1E+10	1	-1E+10	1	-1E+10	1
4902551	34	C	07/17/2021	10:05	-134.910	49.424	0	52.90	0	7.1220	0	32.4180	0	25.370	0	52.443	0	286.6	4	96.1	4	-1E+10	1	-1E+10	1	-1E+10	1	-1E+10	1	-1E+10	1	-1E+10	1
4902551	34	C	07/17/2021	10:05	-134.910	49.424	0	53.90	0	6.9630	0	32.4240	0	25.396	0	53.434	0	286.4	4	95.7	4	-1E+10	1	-1E+10	1	-1E+10	1	-1E+10	1	-1E+10	1	-1E+10	1
4902551	34	C	07/17/2021	10:05	-134.910	49.424	0	55.10	0	6.9020	0	32.4310	0	25.409	0	54.623	0	285.9	4	95.4	4	-1E+10	1	-1E+10	1	-1E+10	1	-1E+10	1	-1E+10	1	-1E+10	1
4902551	34	C	07/17/2021	10:05	-134.910	49.424	0	55.90	0	6.8770	0	32.4300	0	25.412	0	55.416	0	285.7	4	95.3	4	-1E+10	1	-1E+10	1	-1E+10	1	-1E+10	1	-1E+10	1	-1E+10	1
4902551	34	C	07/17/2021	10:05	-134.910	49.424	0	56.90	0	6.8420	0	32.4320	0	25.418	0	56.407	0	285.5	4	95.1	4	-1E+10	1	-1E+10	1	-1E+10	1	-1E+10	1	-1E+10	1	-1E+10	1
4902551	34	C	07/17/2021	10:05	-134.910	49.424	0	57.90	0	6.7920	0	32.4330	0	25.425	0	57.399	0	285.1	4	94.9	4	-1E+10	1	-1E+10	1	-1E+10	1	-1E+10	1	-1E+10	1	-1E+10	1
4902551	34	C	07/17/2021	10:05	-134.910	49.424	0	58.90	0	6.7380	0	32.4360	0	25.435	0	58.390	0	284.8	4	94.7	4	-1E+10	1	-1E+10	1	-1E+10	1	-1E+10	1	-1E+10	1	-1E+10	1
4902551	34	C	07/17/2021	10:05	-134.910	49.424	0	59.90	0	6.7170	0	32.4350	0	25.437	0	59.381	0	284.3	4	94.4	4	-1E+10	1	-1E+10	1	-1E+10	1	-1E+10	1	-1E+10	1	-1E+10	1
4902551	34	C	07/17/2021	10:05	-134.910	49.424	0	60.90	0	6.7000	0	32.4380	0	25.441	0	60.372	0	283.7	4	94.2	4	-1E+10	1	-1E+10	1	-1E+10	1	-1E+10	1	-1E+10	1	-1E+10	1
4902551	34	C	07/17/2021	10:05	-134.910	49.424	0	62.00	0	6.6330	0	32.4400	0	25.452	0	61.462	0	283.4	4	94.0	4	-1E+10	1	-1E+10	1	-1E+10	1	-1E+10	1	-1E+10	1	-1E+10	1
4902551	34	C	07/17/2021	10:05	-134.910	49.424	0	63.00	0	6.6090	0	32.4420	0	25.456	0	62.454	0	283.1	4	93.8	4	-1E+10	1	-1E+10	1	-1E+10	1	-1E+10	1	-1E+10	1	-1E+10	1
4902551	34	C	07/17/2021	10:05	-134.910	49.424	0	64.10	0	6.5680	0	32.4460	0	25.465	0	63.544	0	282.9	4	93.7	4	-1E+10	1	-1E+10	1	-1E+10	1	-1E+10	1	-1E+10	1	-1E+10	1
4902551	34	C	07/17/2021	10:05	-134.910	49.424	0	64.90	0	6.5260	0	32.4480	0	25.472	0	64.337	0	282.8	4	93.6	4	-1E+10	1	-1E+10	1	-1E+10	1	-1E+10	1	-1E+10	1	-1E+10	1
4902551	34	C	07/17/2021	10:05	-134.910	49.424	0	65.80	0	6.4960	0	32.4500	0	25.477	0	65.229	0	282.6	4	93.4	4	-1E+10	1	-1E+10	1	-1E+10	1	-1E+10	1	-1E+10	1	-1E+10	1
4902551	34	C	07/17/2021	10:05	-134.910	49.424	0	66.80	0	6.4690	0	32.4520	0	25.482	0	66.220	0	282.5	4	93.3	4	-1E+10	1	-1E+10	1	-1E+10	1	-1E+10	1	-1E+10	1	-1E+10	1
4902551	34	C	07/17/2021	10:05	-134.910	49.424	0	67.80	0	6.4300	0	32.4550	0	25.489	0	67.211	0	282.3	4	93.2	4	-1E+10	1	-1E+10	1	-1E+10	1	-1E+10	1	-1E+10	1	-1E+10	1
4902551	34	C	07/17/2021	10:05	-134.910	49.424	0	69.10	0	6.3890	0	32.4580	0	25.497	0	68.500	0	282.0	4	93.0	4	-1E+10	1	-1E+10	1	-1E+10	1	-1E+10	1	-1E+10	1	-1E+10	1
4902551	34	C	07/17/2021	10:05	-134.910	49.424	0	70.20	0	6.3670	0	32.4600	0	25.501	0	69.590	0	281.9	4	92.9	4	-1E+10	1	-1E+10	1	-1E+10	1	-1E+10	1	-1E+10	1	-1E+10	1
4902551	34	C	07/17/2021	10:05	-134.910	49.424	0	71.10	0	6.3620	0	32.4600	0	25.502	0	70.482	0	281.9	4	92.9	4	-1E+10	1	-1E+10	1	-1E+10	1	-1E+10	1	-1E+10	1	-1E+10	1
4902551	34	C	07/17/2021	10:05	-134.910	49.424	0	71.90	0	6.3530	0	32.4600	0	25.503	0	71.275	0	281.7	4	92.8	4	-1E+10	1	-1E+10	1	-1E+10	1	-1E+10	1	-1E+10	1	-1E+10	1
4902551	34	C	07/17/2021	10:05	-134.910	49.424	0	73.20	0	6.3490	0	32.4610	0	25.504	0	72.563	0	281.6	4	92.8	4	-1E+10	1	-1E+10	1	-1E+10	1	-1E+10	1	-1E+10	1	-1E+10	1
4902551	34	C	07/17/2021	10:05	-134.910	49.424	0	73.80	0	6.3370	0	32.4610	0	25.506	0	73.158	0	281.6	4	92.8	4	-1E+10	1	-1E+10	1	-1E+10	1	-1E+10	1	-1E+10	1	-1E+10	1
4902551	34	C	07/17/2021	10:05	-134.910	49.424	0	74.90	0	6.3240	0	32.4620	0	25.508	0	74.248	0	281.4	4	92.7	4	-1E+10	1	-1E+10	1	-1E+10	1	-1E+10	1	-1E+10	1	-1E+10	1
4902551	34	C	07/17/2021	10:05	-134.910	49.424	0	76.10	0	6.3130	0	32.4640	0	25.511	0	75.438	0	281.0	4	92.5	4	-1E+10	1	-1E+10	1	-1E+10	1	-1E+10	1	-1E+10	1	-1E+10	1
4902551	34	C	07/17/2021	10:05	-134.910	49.424	0	77.10	0	6.2710	0	32.4660	0	25.518	0	76.429	0	280.7	4	92.3	4	-1E+10	1	-1E+10	1	-1E+10	1	-1E+10	1	-1E+10	1	-1E+10	1
4902551	34	C	07/17/2021	10:05	-134.910	49.424	0	78.20	0	6.2530	0	32.4670	0	25.521	0	77.519	0	280.5	4	92.2	4	-1E+10	1	-1E+10	1	-1E+10	1	-1E+10	1	-1E+10	1	-1E+10	1
4902551	34	C	07/17/2021	10:05	-134.910	49.424	0	79.00	0	6.2410	0	32.4670	0	25.523	0	78.312	0	280.2	4	92.1	4	-1E+10	1	-1E+10	1	-1E+10	1	-1E+10	1	-1E+10	1	-1E+10	1
4902551	34	C	07/17/2021	10:05	-134.910	49.424	0	80.20	0	6.2290	0	32.4680	0	25.525	0	79.501	0	279.8	4	91.9	4	-1E+10	1	-1E+10	1	-1E+10	1	-1E+10	1	-1E+10	1	-1E+10	1
4902551	34	C	07/17/2021	10:05	-134.910	49.424	0	80.80	0	6.2160	0	32.4680	0	25.527	0	80.096	0	279.6	4	91.8	4	-1E+10	1	-1E+10	1	-1E+10	1	-1E+10	1	-1E+10	1	-1E+10	1
4902551	34	C	07/17/2021	10:05	-134.910	49.424	0	81.90	0	6.1820	0	32.4710	0	25.533	0	81.186	0	279.2	4	91.7	4	-1E+10	1	-1E+10	1	-1E+10	1	-1E+10	1	-1E+10	1	-1E+10	1
4902551	34	C	07/17/2021	10:05	-134.910	49.424	0	82.90	0	6.1600	0	32.4730	0	25.538	0	82.177	0	278.7	4	91.4	4	-1E+10	1	-1E+10	1	-1E+10	1	-1E+10	1	-1E+10	1	-1E+10	1
4902551	34	C	07/17/2021	10:05	-134.910	49.424	0	84.00	0	6.1330	0	32.4750	0	25.543	0	83.267	0	278.2	4	91.2	4	-1E+10	1	-1E+10	1	-1E+10	1	-1E+10	1	-1E+10	1	-1E+10	1
4902551	34	C	07/17/2021	10:05	-134.910	49.424	0	85.00	0	6.1220	0	32.4760	0	25.545	0	84.258	0	277.5	4	91.0	4	-1E+10	1	-1E+10	1	-1E+10	1	-1E+10	1	-1E+10	1	-1E+10	1
4902551	34	C	07/17/2021	10:05	-134.910	49.424	0	85.80	0	6.1150	0	32.4770	0	25.546	0	85.051	0	277.0	4	90.8	4	-1E+10	1	-1E+10	1	-1E+10	1	-1E+10	1	-1E+10	1	-1E+10	1
4902551	34	C	07/17/2021	10:05	-134.910	49.424	0	86.90	0	6.1050	0	32.4790	0	25.549	0	86.141	0	276.4	4	90.6	4	-1E+10	1	-1E+10	1	-1E+10	1	-1E+10	1	-1E+10	1	-1E+10	1
4902551	34	C	07/17/2021	10:05	-134.910	49.424	0	88.20	0	6.0930	0	32.4840	0	25.555	0	87.430	0	275.7	4	90.3	4	-1E+10	1	-1E+10	1	-1E+10	1	-1E+10	1	-1E+10	1	-1E+10	1
4902551	34	C	07/17/2021	10:05	-134.910	49.424	0	89.10	0	6.0910	0	32.4860	0	25.556	0	88.322	0	275.3	4	90.2	4	-1E+10	1	-1E+10	1	-1E+10	1	-1E+10	1	-1E+10	1	-1E+10	1
4902551	34	C	07/17/2021	10:05	-134.910	49.424	0	89.80	0	6.0870	0	32.4870	0	25.558	0	89.015	0	274.8	4	90.0	4	-1E+10	1	-1E+10	1	-1E+10	1	-1E+10	1	-1E+10	1	-1E+10	1
4902551	34	C	07/17/2021	10:05	-134.910	49.424	0	90.80	0	6.0430	0	32.4950	0	25.569	0	90.007	0	274.3	4	89.8	4	-1E+10	1	-1E+10	1	-1E+10	1	-1E+10	1	-1E+10	1	-1E+10	1
4902551	34	C	07/17/2021	10:05	-134.910	49.424	0	91.80	0	6.0200	0	32.4920	0	25.570	0	90.998	0	273.4	4	89.4	4	-1E+10	1	-1E+10	1	-1E+10	1	-1E+10	1	-1E+10	1	-1E+10	1
4902551	34	C	07/17/2021	10:05	-134.910	49.424	0	92.80	0	6.0160	0	32.4930	0	25.571	0	91.989	0	272.1	4	89.0	4	-1E+10	1	-1E+10	1	-1E+10	1	-1E+10	1	-1E+10	1	-1E+10	1
4902551	34	C	07/17/2021	10:05	-134.910	49.424	0	93.80	0	6.0050	0	32.4940	0	25.573	0	92.980	0	270.4	4	88.4	4	-1E+10	1	-1E+10	1	-1E+10	1	-1E+10	1	-1E+10	1	-1E+10	1
4902551	34	C	07/17/2021	10:05	-134.910	49.424	0	94.80	0	5.9840	0	32.4950	0	25.577	0	93.971	0	268.4	4	87.7	4	-1E+10	1	-1E+10	1	-1E+10	1	-1E+10	1	-1E+10	1	-1E+10	1
4902551	34	C	07/17/2021	10:05	-134.910	49.424	0	95.80	0	5.9880	0	32.5020	0	25.582	0	94.962	0	266.2	4	87.0	4	-1E+10	1	-1E+10	1	-1E+10	1	-1E+10	1	-1E+10	1	-1E+10	1
4902551	34	C	07/17/2021	10:05	-134.910	49.424	0	96.80	0	5.9870	0	32.5040	0	25.583	0	95.953	0	264.0	4	86.3	4	-1E+10	1	-1E+10	1	-1E+10	1	-1E+10	1	-1E+10	1	-1E+10	1
4902551	34	C	07/17/2021	10:05	-134.910	49.424	0	97.70	0	5.9910	0	32.5170	0	25.593	0	96.845	0	261.2	4	85.4	4	-1E+10	1	-1E+10	1	-1E+10	1	-1E+10	1	-1E+10	1	-1E+10	1
4902551	34	C	07/17/2021	10:05	-134.910	49.424	0	98.70	0	6.0110	0	32.5410	0	25.610	0	97.836	0	258.2	4	84.5	4	-1E+10	1	-1E+10	1	-1E+10	1	-1E+10	1	-1E+10	1	-1E+10	1
4902551	34	C	07/17/2021	10:05	-134.910	49.424	0	99.90	0	6.0460	0	32.5750	0	25.632	0	99.025	0	255.4	4	83.6	4	-1E+10	1	-1E+10	1	-1E+10	1	-1E+10	1	-1E+10	1	-1E+10	1
4902551	34	C	07/17/2021	10:05	-134.910	49.424	0	101.00	0	6.0470	0	32.5830	0	25.639	0	100.115	0	252.0	4	82.5	4	-1E+10	1	-1E+10	1	-1E+10	1	-1E+10	1	-1E+10	1	-1E+10	1
4902551	34	C	07/17/2021	10:05	-134.910	49.424	0	102.10	0	6.0540	0	32.6070	0	25.657	0	101.205	0	247.7	4	81.1	4	-1E+10	1	-1E+10	1	-1E+10	1	-1E+10	1	-1E+10	1	-1E+10	1
4902551	34	C	07/17/2021	10:05	-134.910	49.424	0	103.00	0	6.0520	0	32.6370	0	25.681	0	102.097	0	244.8	4	80.2	4	-1E+10	1	-1E+10	1	-1E+10	1	-1E+10	1	-1E+10	1	-1E+10	1
4902551	34	C	07/17/2021	10:05	-134.910	49.424	0	103.90	0	6.0290	0	32.6520	0	25.695	0	102.989	0	241.3	4	79.0	4	-1E+10	1	-1E+10	1	-1E+10	1	-1E+10	1	-1E+10	1	-1E+10	1
4902551	34	C	07/17/2021	10:05	-134.910	49.424	0	104.80	0	6.0310	0	32.6640	0	25.704	0	103.881	0	237.9	4	77.9	4	-1E+10	1	-1E+10	1	-1E+10	1	-1E+10	1	-1E+10	1	-1E+10	1
4902551	34	C	07/17/2021	10:05	-134.910	49.424	0	105.80	0	6.0360	0	32.6750	0	25.713	0	104.872	0	234.5	4	76.8	4	-1E+10	1	-1E+10	1	-1E+10	1	-1E+10	1	-1E+10	1	-1E+10	1
4902551	34	C	07/17/2021	10:05	-134.910	49.424	0	106.80	0	6.0330	0	32.6810	0	25.718	0	105.863	0	230.9	4	75.6	4	-1E+10	1	-1E+10	1	-1E+10	1	-1E+10	1	-1E+10	1	-1E+10	1
4902551	34	C	07/17/2021	10:05	-134.910	49.424	0	107.90	0	6.0450	0	32.7070	0	25.737	0	106.953	0	226.7	4	74.3	4	-1E+10	1	-1E+10	1	-1E+10	1	-1E+10	1	-1E+10	1	-1E+10	1
4902551	34	C	07/17/2021	10:05	-134.910	49.424	0	109.10	0	6.0740	0	32.7470	0	25.765	0	108.142	0	221.9	4	72.8	4	-1E+10	1	-1E+10	1	-1E+10	1	-1E+10	1	-1E+10	1	-1E+10	1
4902551	34	C	07/17/2021	10:05	-134.910	49.424	0	109.90	0	6.1040	0	32.8010	0	25.804	0	108.935	0	218.7	4	71.8	4	-1E+10	1	-1E+10	1	-1E+10	1	-1E+10	1	-1E+10	1	-1E+10	1
4902551	34	C	07/17/2021	10:05	-134.910	49.424	0	111.20	0	6.1390	0	32.8410	0	25.831	0	110.223	0	214.1	4	70.4	4	-1E+10	1	-1E+10	1	-1E+10	1	-1E+10	1	-1E+10	1	-1E+10	1
4902551	34	C	07/17/2021	10:05	-134.910	49.424	0	112.00	0	6.1470	0	32.8560	0	25.842	0	111.016	0	210.4	4	69.2	4	-1E+10	1	-1E+10	1	-1E+10	1	-1E+10	1	-1E+10	1	-1E+10	1
4902551	34	C	07/17/2021	10:05	-134.910	49.424	0	113.30	0	6.1720	0	32.8730	0	25.852	0	112.304	0	204.2	4	67.2	4	-1E+10	1	-1E+10	1	-1E+10	1	-1E+10	1	-1E+10	1	-1E+10	1
4902551	34	C	07/17/2021	10:05	-134.910	49.424	0	113.90	0	6.2150	0	32.9060	0	25.873	0	112.898	0	201.7	4	66.5	4	-1E+10	1	-1E+10	1	-1E+10	1	-1E+10	1	-1E+10	1	-1E+10	1
4902551	34	C	07/17/2021	10:05	-134.910	49.424	0	115.00	0	6.2410	0	32.9520	0	25.906	0	113.988	0	198.6	4	65.5	4	-1E+10	1	-1E+10	1	-1E+10	1	-1E+10	1	-1E+10	1	-1E+10	1
4902551	34	C	07/17/2021	10:05	-134.910	49.424	0	115.90	0	6.2670	0	32.9950	0	25.937	0	114.880	0	196.0	4	64.7	4	-1E+10	1	-1E+10	1	-1E+10	1	-1E+10	1	-1E+10	1	-1E+10	1
4902551	34	C	07/17/2021	10:05	-134.910	49.424	0	117.10	0	6.2470	0	33.0480	0	25.981	0	116.069	0	190.9	4	63.0	4	-1E+10	1	-1E+10	1	-1E+10	1	-1E+10	1	-1E+10	1	-1E+10	1
4902551	34	C	07/17/2021	10:05	-134.910	49.424	0	118.00	0	6.2390	0	33.0790	0	26.006	0	116.961	0	184.9	4	61.0	4	-1E+10	1	-1E+10	1	-1E+10	1	-1E+10	1	-1E+10	1	-1E+10	1
4902551	34	C	07/17/2021	10:05	-134.910	49.424	0	119.00	0	6.2790	0	33.1610	0	26.066	0	117.952	0	178.8	4	59.1	4	-1E+10	1	-1E+10	1	-1E+10	1	-1E+10	1	-1E+10	1	-1E+10	1
4902551	34	C	07/17/2021	10:05	-134.910	49.424	0	119.80	0	6.2710	0	33.1880	0	26.088	0	118.745	0	175.4	4	58.0	4	-1E+10	1	-1E+10	1	-1E+10	1	-1E+10	1	-1E+10	1	-1E+10	1
4902551	34	C	07/17/2021	10:05	-134.910	49.424	0	121.00	0	6.2750	0	33.2230	0	26.116	0	119.934	0	171.2	4	56.6	4	-1E+10	1	-1E+10	1	-1E+10	1	-1E+10	1	-1E+10	1	-1E+10	1
4902551	34	C	07/17/2021	10:05	-134.910	49.424	0	122.20	0	6.2730	0	33.2480	0	26.136	0	121.123	0	167.4	4	55.4	4	-1E+10	1	-1E+10	1	-1E+10	1	-1E+10	1	-1E+10	1	-1E+10	1
4902551	34	C	07/17/2021	10:05	-134.910	49.424	0	123.00	0	6.2810	0	33.2960	0	26.172	0	121.916	0	164.8	4	54.6	4	-1E+10	1	-1E+10	1	-1E+10	1	-1E+10	1	-1E+10	1	-1E+10	1
4902551	34	C	07/17/2021	10:05	-134.910	49.424	0	123.70	0	6.2820	0	33.3040	0	26.179	0	122.609	0	162.7	4	53.9	4	-1E+10	1	-1E+10	1	-1E+10	1	-1E+10	1	-1E+10	1	-1E+10	1
4902551	34	C	07/17/2021	10:05	-134.910	49.424	0	124.70	0	6.2850	0	33.3170	0	26.189	0	123.600	0	159.7	4	52.9	4	-1E+10	1	-1E+10	1	-1E+10	1	-1E+10	1	-1E+10	1	-1E+10	1
4902551	34	C	07/17/2021	10:05	-134.910	49.424	0	125.80	0	6.2850	0	33.3730	0	26.233	0	124.690	0	156.8	4	51.9	4	-1E+10	1	-1E+10	1	-1E+10	1	-1E+10	1	-1E+10	1	-1E+10	1
4902551	34	C	07/17/2021	10:05	-134.910	49.424	0	126.90	0	6.2850	0	33.3800	0	26.238	0	125.780	0	154.0	4	51.0	4	-1E+10	1	-1E+10	1	-1E+10	1	-1E+10	1	-1E+10	1	-1E+10	1
4902551	34	C	07/17/2021	10:05	-134.910	49.424	0	128.10	0	6.2790	0	33.4120	0	26.264	0	126.969	0	151.0	4	50.0	4	-1E+10	1	-1E+10	1	-1E+10	1	-1E+10	1	-1E+10	1	-1E+10	1
4902551	34	C	07/17/2021	10:05	-134.910	49.424	0	128.90	0	6.2690	0	33.4600	0	26.304	0	127.762	0	148.9	4	49.3	4	-1E+10	1	-1E+10	1	-1E+10	1	-1E+10	1	-1E+10	1	-1E+10	1
4902551	34	C	07/17/2021	10:05	-134.910	49.424	0	129.90	0	6.2610	0	33.4790	0	26.320	0	128.753	0	147.2	4	48.8	4	-1E+10	1	-1E+10	1	-1E+10	1	-1E+10	1	-1E+10	1	-1E+10	1
4902551	34	C	07/17/2021	10:05	-134.910	49.424	0	130.90	0	6.2560	0	33.4950	0	26.333	0	129.743	0	145.5	4	48.2	4	-1E+10	1	-1E+10	1	-1E+10	1	-1E+10	1	-1E+10	1	-1E+10	1
4902551	34	C	07/17/2021	10:05	-134.910	49.424	0	131.90	0	6.2460	0	33.5250	0	26.358	0	130.734	0	144.3	4	47.8	4	-1E+10	1	-1E+10	1	-1E+10	1	-1E+10	1	-1E+10	1	-1E+10	1
4902551	34	C	07/17/2021	10:05	-134.910	49.424	0	133.00	0	6.2390	0	33.5490	0	26.378	0	131.824	0	143.5	4	47.5	4	-1E+10	1	-1E+10	1	-1E+10	1	-1E+10	1	-1E+10	1	-1E+10	1
4902551	34	C	07/17/2021	10:05	-134.910	49.424	0	133.80	0	6.2310	0	33.5820	0	26.405	0	132.617	0	143.2	4	47.4	4	-1E+10	1	-1E+10	1	-1E+10	1	-1E+10	1	-1E+10	1	-1E+10	1
4902551	34	C	07/17/2021	10:05	-134.910	49.424	0	134.90	0	6.2260	0	33.5920	0	26.413	0	133.707	0	142.8	4	47.3	4	-1E+10	1	-1E+10	1	-1E+10	1	-1E+10	1	-1E+10	1	-1E+10	1
4902551	34	C	07/17/2021	10:05	-134.910	49.424	0	136.00	0	6.2200	0	33.6000	0	26.420	0	134.797	0	142.1	4	47.1	4	-1E+10	1	-1E+10	1	-1E+10	1	-1E+10	1	-1E+10	1	-1E+10	1
4902551	34	C	07/17/2021	10:05	-134.910	49.424	0	136.80	0	6.2100	0	33.6150	0	26.433	0	135.589	0	141.6	4	46.9	4	-1E+10	1	-1E+10	1	-1E+10	1	-1E+10	1	-1E+10	1	-1E+10	1
4902551	34	C	07/17/2021	10:05	-134.910	49.424	0	137.90	0	6.1970	0	33.6250	0	26.443	0	136.679	0	140.7	4	46.6	4	-1E+10	1	-1E+10	1	-1E+10	1	-1E+10	1	-1E+10	1	-1E+10	1
4902551	34	C	07/17/2021	10:05	-134.910	49.424	0	139.10	0	6.1860	0	33.6330	0	26.451	0	137.868	0	139.9	4	46.3	4	-1E+10	1	-1E+10	1	-1E+10	1	-1E+10	1	-1E+10	1	-1E+10	1
4902551	34	C	07/17/2021	10:05	-134.910	49.424	0	139.90	0	6.1830	0	33.6340	0	26.452	0	138.661	0	139.2	4	46.1	4	-1E+10	1	-1E+10	1	-1E+10	1	-1E+10	1	-1E+10	1	-1E+10	1
4902551	34	C	07/17/2021	10:05	-134.910	49.424	0	140.70	0	6.1700	0	33.6440	0	26.461	0	139.454	0	138.7	4	45.9	4	-1E+10	1	-1E+10	1	-1E+10	1	-1E+10	1	-1E+10	1	-1E+10	1
4902551	34	C	07/17/2021	10:05	-134.910	49.424	0	141.90	0	6.1440	0	33.6610	0	26.478	0	140.643	0	137.9	4	45.6	4	-1E+10	1	-1E+10	1	-1E+10	1	-1E+10	1	-1E+10	1	-1E+10	1
4902551	34	C	07/17/2021	10:05	-134.910	49.424	0	143.10	0	6.1210	0	33.6720	0	26.490	0	141.832	0	137.1	4	45.4	4	-1E+10	1	-1E+10	1	-1E+10	1	-1E+10	1	-1E+10	1	-1E+10	1
4902551	34	C	07/17/2021	10:05	-134.910	49.424	0	144.00	0	6.1060	0	33.6800	0	26.498	0	142.723	0	136.7	4	45.2	4	-1E+10	1	-1E+10	1	-1E+10	1	-1E+10	1	-1E+10	1	-1E+10	1
4902551	34	C	07/17/2021	10:05	-134.910	49.424	0	144.80	0	6.0920	0	33.6870	0	26.505	0	143.516	0	136.2	4	45.0	4	-1E+10	1	-1E+10	1	-1E+10	1	-1E+10	1	-1E+10	1	-1E+10	1
4902551	34	C	07/17/2021	10:05	-134.910	49.424	0	145.60	0	6.0740	0	33.6930	0	26.512	0	144.308	0	135.7	4	44.8	4	-1E+10	1	-1E+10	1	-1E+10	1	-1E+10	1	-1E+10	1	-1E+10	1
4902551	34	C	07/17/2021	10:05	-134.910	49.424	0	146.90	0	6.0580	0	33.6990	0	26.519	0	145.596	0	135.0	4	44.6	4	-1E+10	1	-1E+10	1	-1E+10	1	-1E+10	1	-1E+10	1	-1E+10	1
4902551	34	C	07/17/2021	10:05	-134.910	49.424	0	148.20	0	6.0500	0	33.7030	0	26.523	0	146.884	0	134.4	4	44.4	4	-1E+10	1	-1E+10	1	-1E+10	1	-1E+10	1	-1E+10	1	-1E+10	1
4902551	34	C	07/17/2021	10:05	-134.910	49.424	0	149.00	0	6.0470	0	33.7050	0	26.525	0	147.677	0	134.1	4	44.3	4	-1E+10	1	-1E+10	1	-1E+10	1	-1E+10	1	-1E+10	1	-1E+10	1
4902551	34	C	07/17/2021	10:05	-134.910	49.424	0	149.90	0	6.0470	0	33.7070	0	26.527	0	148.569	0	133.8	4	44.2	4	-1E+10	1	-1E+10	1	-1E+10	1	-1E+10	1	-1E+10	1	-1E+10	1
4902551	34	C	07/17/2021	10:05	-134.910	49.424	0	150.70	0	6.0480	0	33.7070	0	26.527	0	149.361	0	133.5	4	44.1	4	-1E+10	1	-1E+10	1	-1E+10	1	-1E+10	1	-1E+10	1	-1E+10	1
4902551	34	C	07/17/2021	10:05	-134.910	49.424	0	151.90	0	6.0400	0	33.7100	0	26.530	0	150.550	0	133.0	4	43.9	4	-1E+10	1	-1E+10	1	-1E+10	1	-1E+10	1	-1E+10	1	-1E+10	1
4902551	34	C	07/17/2021	10:05	-134.910	49.424	0	153.20	0	6.0100	0	33.7170	0	26.539	0	151.838	0	132.6	4	43.8	4	-1E+10	1	-1E+10	1	-1E+10	1	-1E+10	1	-1E+10	1	-1E+10	1
4902551	34	C	07/17/2021	10:05	-134.910	49.424	0	154.00	0	5.9940	0	33.7210	0	26.545	0	152.631	0	132.5	4	43.7	4	-1E+10	1	-1E+10	1	-1E+10	1	-1E+10	1	-1E+10	1	-1E+10	1
4902551	34	C	07/17/2021	10:05	-134.910	49.424	0	154.90	0	5.9700	0	33.7260	0	26.551	0	153.523	0	132.3	4	43.6	4	-1E+10	1	-1E+10	1	-1E+10	1	-1E+10	1	-1E+10	1	-1E+10	1
4902551	34	C	07/17/2021	10:05	-134.910	49.424	0	155.70	0	5.9530	0	33.7300	0	26.557	0	154.315	0	132.2	4	43.6	4	-1E+10	1	-1E+10	1	-1E+10	1	-1E+10	1	-1E+10	1	-1E+10	1
4902551	34	C	07/17/2021	10:05	-134.910	49.424	0	156.90	0	5.9360	0	33.7320	0	26.560	0	155.504	0	131.8	4	43.4	4	-1E+10	1	-1E+10	1	-1E+10	1	-1E+10	1	-1E+10	1	-1E+10	1
4902551	34	C	07/17/2021	10:05	-134.910	49.424	0	158.10	0	5.9030	0	33.7370	0	26.569	0	156.693	0	131.3	4	43.2	4	-1E+10	1	-1E+10	1	-1E+10	1	-1E+10	1	-1E+10	1	-1E+10	1
4902551	34	C	07/17/2021	10:05	-134.910	49.424	0	159.00	0	5.8960	0	33.7380	0	26.570	0	157.584	0	130.9	4	43.1	4	-1E+10	1	-1E+10	1	-1E+10	1	-1E+10	1	-1E+10	1	-1E+10	1
4902551	34	C	07/17/2021	10:05	-134.910	49.424	0	159.80	0	5.8930	0	33.7380	0	26.571	0	158.377	0	130.3	4	42.9	4	-1E+10	1	-1E+10	1	-1E+10	1	-1E+10	1	-1E+10	1	-1E+10	1
4902551	34	C	07/17/2021	10:05	-134.910	49.424	0	161.00	0	5.8620	0	33.7460	0	26.581	0	159.566	0	129.6	4	42.6	4	-1E+10	1	-1E+10	1	-1E+10	1	-1E+10	1	-1E+10	1	-1E+10	1
4902551	34	C	07/17/2021	10:05	-134.910	49.424	0	162.30	0	5.8470	0	33.7490	0	26.585	0	160.854	0	129.1	4	42.4	4	-1E+10	1	-1E+10	1	-1E+10	1	-1E+10	1	-1E+10	1	-1E+10	1
4902551	34	C	07/17/2021	10:05	-134.910	49.424	0	163.10	0	5.8330	0	33.7520	0	26.589	0	161.646	0	128.7	4	42.3	4	-1E+10	1	-1E+10	1	-1E+10	1	-1E+10	1	-1E+10	1	-1E+10	1
4902551	34	C	07/17/2021	10:05	-134.910	49.424	0	164.00	0	5.8320	0	33.7520	0	26.589	0	162.538	0	128.4	4	42.2	4	-1E+10	1	-1E+10	1	-1E+10	1	-1E+10	1	-1E+10	1	-1E+10	1
4902551	34	C	07/17/2021	10:05	-134.910	49.424	0	164.80	0	5.8270	0	33.7520	0	26.590	0	163.331	0	128.0	4	42.1	4	-1E+10	1	-1E+10	1	-1E+10	1	-1E+10	1	-1E+10	1	-1E+10	1
4902551	34	C	07/17/2021	10:05	-134.910	49.424	0	165.70	0	5.8170	0	33.7540	0	26.593	0	164.222	0	127.7	4	42.0	4	-1E+10	1	-1E+10	1	-1E+10	1	-1E+10	1	-1E+10	1	-1E+10	1
4902551	34	C	07/17/2021	10:05	-134.910	49.424	0	166.90	0	5.7960	0	33.7570	0	26.598	0	165.411	0	127.1	4	41.8	4	-1E+10	1	-1E+10	1	-1E+10	1	-1E+10	1	-1E+10	1	-1E+10	1
4902551	34	C	07/17/2021	10:05	-134.910	49.424	0	168.20	0	5.7900	0	33.7580	0	26.599	0	166.699	0	126.4	4	41.5	4	-1E+10	1	-1E+10	1	-1E+10	1	-1E+10	1	-1E+10	1	-1E+10	1
4902551	34	C	07/17/2021	10:05	-134.910	49.424	0	169.10	0	5.7870	0	33.7590	0	26.600	0	167.590	0	125.9	4	41.3	4	-1E+10	1	-1E+10	1	-1E+10	1	-1E+10	1	-1E+10	1	-1E+10	1
4902551	34	C	07/17/2021	10:05	-134.910	49.424	0	170.00	0	5.7840	0	33.7590	0	26.601	0	168.482	0	125.2	4	41.1	4	-1E+10	1	-1E+10	1	-1E+10	1	-1E+10	1	-1E+10	1	-1E+10	1
4902551	34	C	07/17/2021	10:05	-134.910	49.424	0	170.80	0	5.7770	0	33.7610	0	26.603	0	169.275	0	124.6	4	40.9	4	-1E+10	1	-1E+10	1	-1E+10	1	-1E+10	1	-1E+10	1	-1E+10	1
4902551	34	C	07/17/2021	10:05	-134.910	49.424	0	171.70	0	5.7710	0	33.7620	0	26.605	0	170.166	0	123.8	4	40.7	4	-1E+10	1	-1E+10	1	-1E+10	1	-1E+10	1	-1E+10	1	-1E+10	1
4902551	34	C	07/17/2021	10:05	-134.910	49.424	0	172.90	0	5.7550	0	33.7640	0	26.608	0	171.355	0	122.7	4	40.3	4	-1E+10	1	-1E+10	1	-1E+10	1	-1E+10	1	-1E+10	1	-1E+10	1
4902551	34	C	07/17/2021	10:05	-134.910	49.424	0	174.30	0	5.7500	0	33.7650	0	26.610	0	172.742	0	121.5	4	39.9	4	-1E+10	1	-1E+10	1	-1E+10	1	-1E+10	1	-1E+10	1	-1E+10	1
4902551	34	C	07/17/2021	10:05	-134.910	49.424	0	175.20	0	5.7420	0	33.7680	0	26.613	0	173.633	0	120.7	4	39.6	4	-1E+10	1	-1E+10	1	-1E+10	1	-1E+10	1	-1E+10	1	-1E+10	1
4902551	34	C	07/17/2021	10:05	-134.910	49.424	0	176.10	0	5.7400	0	33.7680	0	26.613	0	174.525	0	119.9	4	39.3	4	-1E+10	1	-1E+10	1	-1E+10	1	-1E+10	1	-1E+10	1	-1E+10	1
4902551	34	C	07/17/2021	10:05	-134.910	49.424	0	177.00	0	5.7200	0	33.7750	0	26.621	0	175.417	0	119.3	4	39.1	4	-1E+10	1	-1E+10	1	-1E+10	1	-1E+10	1	-1E+10	1	-1E+10	1
4902551	34	C	07/17/2021	10:05	-134.910	49.424	0	177.90	0	5.7190	0	33.7760	0	26.622	0	176.308	0	118.8	4	39.0	4	-1E+10	1	-1E+10	1	-1E+10	1	-1E+10	1	-1E+10	1	-1E+10	1
4902551	34	C	07/17/2021	10:05	-134.910	49.424	0	178.80	0	5.7120	0	33.7790	0	26.625	0	177.200	0	118.3	4	38.8	4	-1E+10	1	-1E+10	1	-1E+10	1	-1E+10	1	-1E+10	1	-1E+10	1
4902551	34	C	07/17/2021	10:05	-134.910	49.424	0	179.70	0	5.7020	0	33.7790	0	26.627	0	178.091	0	117.8	4	38.6	4	-1E+10	1	-1E+10	1	-1E+10	1	-1E+10	1	-1E+10	1	-1E+10	1
4902551	34	C	07/17/2021	10:05	-134.910	49.424	0	180.60	0	5.6980	0	33.7780	0	26.626	0	178.983	0	117.2	4	38.4	4	-1E+10	1	-1E+10	1	-1E+10	1	-1E+10	1	-1E+10	1	-1E+10	1
4902551	34	C	07/17/2021	10:05	-134.910	49.424	0	181.60	0	5.6820	0	33.7830	0	26.632	0	179.973	0	116.7	4	38.2	4	-1E+10	1	-1E+10	1	-1E+10	1	-1E+10	1	-1E+10	1	-1E+10	1
4902551	34	C	07/17/2021	10:05	-134.910	49.424	0	182.90	0	5.6750	0	33.7830	0	26.633	0	181.261	0	115.9	4	38.0	4	-1E+10	1	-1E+10	1	-1E+10	1	-1E+10	1	-1E+10	1	-1E+10	1
4902551	34	C	07/17/2021	10:05	-134.910	49.424	0	184.40	0	5.6630	0	33.7850	0	26.636	0	182.747	0	115.2	4	37.7	4	-1E+10	1	-1E+10	1	-1E+10	1	-1E+10	1	-1E+10	1	-1E+10	1
4902551	34	C	07/17/2021	10:05	-134.910	49.424	0	185.30	0	5.6520	0	33.7870	0	26.639	0	183.639	0	114.7	4	37.6	4	-1E+10	1	-1E+10	1	-1E+10	1	-1E+10	1	-1E+10	1	-1E+10	1
4902551	34	C	07/17/2021	10:05	-134.910	49.424	0	186.30	0	5.6460	0	33.7870	0	26.640	0	184.629	0	114.2	4	37.4	4	-1E+10	1	-1E+10	1	-1E+10	1	-1E+10	1	-1E+10	1	-1E+10	1
4902551	34	C	07/17/2021	10:05	-134.910	49.424	0	187.30	0	5.6390	0	33.7880	0	26.641	0	185.620	0	113.7	4	37.2	4	-1E+10	1	-1E+10	1	-1E+10	1	-1E+10	1	-1E+10	1	-1E+10	1
4902551	34	C	07/17/2021	10:05	-134.910	49.424	0	188.20	0	5.6260	0	33.7900	0	26.645	0	186.511	0	113.2	4	37.0	4	-1E+10	1	-1E+10	1	-1E+10	1	-1E+10	1	-1E+10	1	-1E+10	1
4902551	34	C	07/17/2021	10:05	-134.910	49.424	0	189.20	0	5.6130	0	33.7920	0	26.648	0	187.502	0	112.7	4	36.9	4	-1E+10	1	-1E+10	1	-1E+10	1	-1E+10	1	-1E+10	1	-1E+10	1
4902551	34	C	07/17/2021	10:05	-134.910	49.424	0	190.20	0	5.6070	0	33.7920	0	26.648	0	188.493	0	112.4	4	36.7	4	-1E+10	1	-1E+10	1	-1E+10	1	-1E+10	1	-1E+10	1	-1E+10	1
4902551	34	C	07/17/2021	10:05	-134.910	49.424	0	191.20	0	5.6010	0	33.7930	0	26.650	0	189.483	0	111.9	4	36.6	4	-1E+10	1	-1E+10	1	-1E+10	1	-1E+10	1	-1E+10	1	-1E+10	1
4902551	34	C	07/17/2021	10:05	-134.910	49.424	0	192.10	0	5.5910	0	33.7950	0	26.653	0	190.375	0	111.5	4	36.5	4	-1E+10	1	-1E+10	1	-1E+10	1	-1E+10	1	-1E+10	1	-1E+10	1
4902551	34	C	07/17/2021	10:05	-134.910	49.424	0	193.10	0	5.5820	0	33.7960	0	26.655	0	191.365	0	111.2	4	36.4	4	-1E+10	1	-1E+10	1	-1E+10	1	-1E+10	1	-1E+10	1	-1E+10	1
4902551	34	C	07/17/2021	10:05	-134.910	49.424	0	194.10	0	5.5690	0	33.7980	0	26.658	0	192.356	0	110.8	4	36.2	4	-1E+10	1	-1E+10	1	-1E+10	1	-1E+10	1	-1E+10	1	-1E+10	1
4902551	34	C	07/17/2021	10:05	-134.910	49.424	0	195.10	0	5.5650	0	33.7980	0	26.658	0	193.346	0	110.5	4	36.1	4	-1E+10	1	-1E+10	1	-1E+10	1	-1E+10	1	-1E+10	1	-1E+10	1
4902551	34	C	07/17/2021	10:05	-134.910	49.424	0	196.10	0	5.5610	0	33.7980	0	26.659	0	194.337	0	110.2	4	36.0	4	-1E+10	1	-1E+10	1	-1E+10	1	-1E+10	1	-1E+10	1	-1E+10	1
4902551	34	C	07/17/2021	10:05	-134.910	49.424	0	197.00	0	5.5480	0	33.7990	0	26.661	0	195.228	0	109.7	4	35.8	4	-1E+10	1	-1E+10	1	-1E+10	1	-1E+10	1	-1E+10	1	-1E+10	1
4902551	34	C	07/17/2021	10:05	-134.910	49.424	0	198.00	0	5.5320	0	33.8010	0	26.665	0	196.219	0	109.4	4	35.7	4	-1E+10	1	-1E+10	1	-1E+10	1	-1E+10	1	-1E+10	1	-1E+10	1
4902551	34	C	07/17/2021	10:05	-134.910	49.424	0	199.00	0	5.5240	0	33.8020	0	26.666	0	197.209	0	109.1	4	35.6	4	-1E+10	1	-1E+10	1	-1E+10	1	-1E+10	1	-1E+10	1	-1E+10	1
4902551	34	C	07/17/2021	10:05	-134.910	49.424	0	200.00	0	5.5210	0	33.8020	0	26.667	0	198.200	0	108.7	4	35.5	4	-1E+10	1	-1E+10	1	-1E+10	1	-1E+10	1	-1E+10	1	-1E+10	1
4902551	34	C	07/17/2021	10:05	-134.910	49.424	0	201.00	0	5.5130	0	33.8030	0	26.669	0	199.190	0	108.3	4	35.3	4	-1E+10	1	-1E+10	1	-1E+10	1	-1E+10	1	-1E+10	1	-1E+10	1
4902551	34	C	07/17/2021	10:05	-134.910	49.424	0	202.00	0	5.5100	0	33.8030	0	26.669	0	200.181	0	107.9	4	35.2	4	-1E+10	1	-1E+10	1	-1E+10	1	-1E+10	1	-1E+10	1	-1E+10	1
4902551	34	C	07/17/2021	10:05	-134.910	49.424	0	202.90	0	5.5020	0	33.8050	0	26.671	0	201.072	0	107.6	4	35.1	4	-1E+10	1	-1E+10	1	-1E+10	1	-1E+10	1	-1E+10	1	-1E+10	1
4902551	34	C	07/17/2021	10:05	-134.910	49.424	0	203.90	0	5.4990	0	33.8040	0	26.671	0	202.063	0	107.2	4	35.0	4	-1E+10	1	-1E+10	1	-1E+10	1	-1E+10	1	-1E+10	1	-1E+10	1
4902551	34	C	07/17/2021	10:05	-134.910	49.424	0	204.90	0	5.4940	0	33.8050	0	26.672	0	203.053	0	106.8	4	34.8	4	-1E+10	1	-1E+10	1	-1E+10	1	-1E+10	1	-1E+10	1	-1E+10	1
4902551	34	C	07/17/2021	10:05	-134.910	49.424	0	205.90	0	5.4860	0	33.8050	0	26.673	0	204.044	0	106.3	4	34.7	4	-1E+10	1	-1E+10	1	-1E+10	1	-1E+10	1	-1E+10	1	-1E+10	1
4902551	34	C	07/17/2021	10:05	-134.910	49.424	0	206.80	0	5.4700	0	33.8060	0	26.676	0	204.935	0	105.8	4	34.5	4	-1E+10	1	-1E+10	1	-1E+10	1	-1E+10	1	-1E+10	1	-1E+10	1
4902551	34	C	07/17/2021	10:05	-134.910	49.424	0	207.80	0	5.4650	0	33.8060	0	26.677	0	205.926	0	105.2	4	34.3	4	-1E+10	1	-1E+10	1	-1E+10	1	-1E+10	1	-1E+10	1	-1E+10	1
4902551	34	C	07/17/2021	10:05	-134.910	49.424	0	208.80	0	5.4480	0	33.8090	0	26.681	0	206.916	0	104.7	4	34.1	4	-1E+10	1	-1E+10	1	-1E+10	1	-1E+10	1	-1E+10	1	-1E+10	1
4902551	34	C	07/17/2021	10:05	-134.910	49.424	0	209.80	0	5.4360	0	33.8100	0	26.683	0	207.907	0	104.2	4	34.0	4	-1E+10	1	-1E+10	1	-1E+10	1	-1E+10	1	-1E+10	1	-1E+10	1
4902551	34	C	07/17/2021	10:05	-134.910	49.424	0	210.80	0	5.4320	0	33.8110	0	26.685	0	208.897	0	103.6	4	33.8	4	-1E+10	1	-1E+10	1	-1E+10	1	-1E+10	1	-1E+10	1	-1E+10	1
4902551	34	C	07/17/2021	10:05	-134.910	49.424	0	211.80	0	5.4250	0	33.8100	0	26.685	0	209.888	0	103.1	4	33.6	4	-1E+10	1	-1E+10	1	-1E+10	1	-1E+10	1	-1E+10	1	-1E+10	1
4902551	34	C	07/17/2021	10:05	-134.910	49.424	0	212.80	0	5.4200	0	33.8100	0	26.685	0	210.878	0	102.4	4	33.3	4	-1E+10	1	-1E+10	1	-1E+10	1	-1E+10	1	-1E+10	1	-1E+10	1
4902551	34	C	07/17/2021	10:05	-134.910	49.424	0	213.80	0	5.3980	0	33.8130	0	26.690	0	211.869	0	101.9	4	33.2	4	-1E+10	1	-1E+10	1	-1E+10	1	-1E+10	1	-1E+10	1	-1E+10	1
4902551	34	C	07/17/2021	10:05	-134.910	49.424	0	214.80	0	5.3910	0	33.8130	0	26.691	0	212.859	0	101.3	4	33.0	4	-1E+10	1	-1E+10	1	-1E+10	1	-1E+10	1	-1E+10	1	-1E+10	1
4902551	34	C	07/17/2021	10:05	-134.910	49.424	0	215.70	0	5.3780	0	33.8160	0	26.695	0	213.750	0	100.9	4	32.8	4	-1E+10	1	-1E+10	1	-1E+10	1	-1E+10	1	-1E+10	1	-1E+10	1
4902551	34	C	07/17/2021	10:05	-134.910	49.424	0	216.70	0	5.3760	0	33.8150	0	26.694	0	214.741	0	100.4	4	32.7	4	-1E+10	1	-1E+10	1	-1E+10	1	-1E+10	1	-1E+10	1	-1E+10	1
4902551	34	C	07/17/2021	10:05	-134.910	49.424	0	217.70	0	5.3600	0	33.8180	0	26.699	0	215.731	0	100.0	4	32.5	4	-1E+10	1	-1E+10	1	-1E+10	1	-1E+10	1	-1E+10	1	-1E+10	1
4902551	34	C	07/17/2021	10:05	-134.910	49.424	0	218.70	0	5.3450	0	33.8190	0	26.701	0	216.722	0	99.5	4	32.4	4	-1E+10	1	-1E+10	1	-1E+10	1	-1E+10	1	-1E+10	1	-1E+10	1
4902551	34	C	07/17/2021	10:05	-134.910	49.424	0	219.60	0	5.3370	0	33.8190	0	26.702	0	217.613	0	99.0	4	32.2	4	-1E+10	1	-1E+10	1	-1E+10	1	-1E+10	1	-1E+10	1	-1E+10	1
4902551	34	C	07/17/2021	10:05	-134.910	49.424	0	220.60	0	5.3240	0	33.8210	0	26.705	0	218.604	0	98.4	4	32.0	4	-1E+10	1	-1E+10	1	-1E+10	1	-1E+10	1	-1E+10	1	-1E+10	1
4902551	34	C	07/17/2021	10:05	-134.910	49.424	0	221.50	0	5.3140	0	33.8220	0	26.707	0	219.495	0	97.8	4	31.8	4	-1E+10	1	-1E+10	1	-1E+10	1	-1E+10	1	-1E+10	1	-1E+10	1
4902551	34	C	07/17/2021	10:05	-134.910	49.424	0	222.90	0	5.2990	0	33.8230	0	26.710	0	220.881	0	97.0	4	31.5	4	-1E+10	1	-1E+10	1	-1E+10	1	-1E+10	1	-1E+10	1	-1E+10	1
4902551	34	C	07/17/2021	10:05	-134.910	49.424	0	224.30	0	5.2810	0	33.8230	0	26.712	0	222.268	0	96.2	4	31.2	4	-1E+10	1	-1E+10	1	-1E+10	1	-1E+10	1	-1E+10	1	-1E+10	1
4902551	34	C	07/17/2021	10:05	-134.910	49.424	0	225.30	0	5.2660	0	33.8240	0	26.714	0	223.258	0	95.7	4	31.1	4	-1E+10	1	-1E+10	1	-1E+10	1	-1E+10	1	-1E+10	1	-1E+10	1
4902551	34	C	07/17/2021	10:05	-134.910	49.424	0	226.30	0	5.2440	0	33.8280	0	26.720	0	224.249	0	95.3	4	30.9	4	-1E+10	1	-1E+10	1	-1E+10	1	-1E+10	1	-1E+10	1	-1E+10	1
4902551	34	C	07/17/2021	10:05	-134.910	49.424	0	227.20	0	5.2330	0	33.8280	0	26.721	0	225.140	0	94.9	4	30.8	4	-1E+10	1	-1E+10	1	-1E+10	1	-1E+10	1	-1E+10	1	-1E+10	1
4902551	34	C	07/17/2021	10:05	-134.910	49.424	0	228.20	0	5.2220	0	33.8300	0	26.724	0	226.131	0	94.5	4	30.6	4	-1E+10	1	-1E+10	1	-1E+10	1	-1E+10	1	-1E+10	1	-1E+10	1
4902551	34	C	07/17/2021	10:05	-134.910	49.424	0	229.20	0	5.1990	0	33.8320	0	26.729	0	227.121	0	94.1	4	30.5	4	-1E+10	1	-1E+10	1	-1E+10	1	-1E+10	1	-1E+10	1	-1E+10	1
4902551	34	C	07/17/2021	10:05	-134.910	49.424	0	230.10	0	5.1960	0	33.8320	0	26.729	0	228.012	0	93.7	4	30.4	4	-1E+10	1	-1E+10	1	-1E+10	1	-1E+10	1	-1E+10	1	-1E+10	1
4902551	34	C	07/17/2021	10:05	-134.910	49.424	0	231.10	0	5.1940	0	33.8320	0	26.729	0	229.003	0	93.3	4	30.2	4	-1E+10	1	-1E+10	1	-1E+10	1	-1E+10	1	-1E+10	1	-1E+10	1
4902551	34	C	07/17/2021	10:05	-134.910	49.424	0	232.00	0	5.1890	0	33.8340	0	26.731	0	229.894	0	92.9	4	30.1	4	-1E+10	1	-1E+10	1	-1E+10	1	-1E+10	1	-1E+10	1	-1E+10	1
4902551	34	C	07/17/2021	10:05	-134.910	49.424	0	233.00	0	5.1810	0	33.8330	0	26.732	0	230.884	0	92.5	4	29.9	4	-1E+10	1	-1E+10	1	-1E+10	1	-1E+10	1	-1E+10	1	-1E+10	1
4902551	34	C	07/17/2021	10:05	-134.910	49.424	0	234.00	0	5.1730	0	33.8360	0	26.735	0	231.875	0	92.0	4	29.8	4	-1E+10	1	-1E+10	1	-1E+10	1	-1E+10	1	-1E+10	1	-1E+10	1
4902551	34	C	07/17/2021	10:05	-134.910	49.424	0	234.90	0	5.1600	0	33.8370	0	26.737	0	232.766	0	91.6	4	29.7	4	-1E+10	1	-1E+10	1	-1E+10	1	-1E+10	1	-1E+10	1	-1E+10	1
4902551	34	C	07/17/2021	10:05	-134.910	49.424	0	235.90	0	5.1490	0	33.8370	0	26.738	0	233.756	0	91.3	4	29.6	4	-1E+10	1	-1E+10	1	-1E+10	1	-1E+10	1	-1E+10	1	-1E+10	1
4902551	34	C	07/17/2021	10:05	-134.910	49.424	0	236.90	0	5.1460	0	33.8380	0	26.740	0	234.747	0	91.0	4	29.4	4	-1E+10	1	-1E+10	1	-1E+10	1	-1E+10	1	-1E+10	1	-1E+10	1
4902551	34	C	07/17/2021	10:05	-134.910	49.424	0	237.80	0	5.1450	0	33.8380	0	26.740	0	235.638	0	90.6	4	29.3	4	-1E+10	1	-1E+10	1	-1E+10	1	-1E+10	1	-1E+10	1	-1E+10	1
4902551	34	C	07/17/2021	10:05	-134.910	49.424	0	238.80	0	5.1360	0	33.8390	0	26.742	0	236.628	0	90.3	4	29.2	4	-1E+10	1	-1E+10	1	-1E+10	1	-1E+10	1	-1E+10	1	-1E+10	1
4902551	34	C	07/17/2021	10:05	-134.910	49.424	0	239.70	0	5.1260	0	33.8400	0	26.743	0	237.520	0	90.0	4	29.1	4	-1E+10	1	-1E+10	1	-1E+10	1	-1E+10	1	-1E+10	1	-1E+10	1
4902551	34	C	07/17/2021	10:05	-134.910	49.424	0	240.70	0	5.1230	0	33.8400	0	26.744	0	238.510	0	89.8	4	29.0	4	-1E+10	1	-1E+10	1	-1E+10	1	-1E+10	1	-1E+10	1	-1E+10	1
4902551	34	C	07/17/2021	10:05	-134.910	49.424	0	241.70	0	5.1170	0	33.8390	0	26.744	0	239.500	0	89.5	4	28.9	4	-1E+10	1	-1E+10	1	-1E+10	1	-1E+10	1	-1E+10	1	-1E+10	1
4902551	34	C	07/17/2021	10:05	-134.910	49.424	0	243.00	0	5.0990	0	33.8420	0	26.748	0	240.788	0	89.1	4	28.8	4	-1E+10	1	-1E+10	1	-1E+10	1	-1E+10	1	-1E+10	1	-1E+10	1
4902551	34	C	07/17/2021	10:05	-134.910	49.424	0	244.80	0	5.0960	0	33.8420	0	26.749	0	242.570	0	88.5	4	28.6	4	-1E+10	1	-1E+10	1	-1E+10	1	-1E+10	1	-1E+10	1	-1E+10	1
4902551	34	C	07/17/2021	10:05	-134.910	49.424	0	245.90	0	5.0910	0	33.8420	0	26.749	0	243.660	0	88.0	4	28.5	4	-1E+10	1	-1E+10	1	-1E+10	1	-1E+10	1	-1E+10	1	-1E+10	1
4902551	34	C	07/17/2021	10:05	-134.910	49.424	0	246.90	0	5.0710	0	33.8430	0	26.752	0	244.650	0	87.6	4	28.3	4	-1E+10	1	-1E+10	1	-1E+10	1	-1E+10	1	-1E+10	1	-1E+10	1
4902551	34	C	07/17/2021	10:05	-134.910	49.424	0	248.00	0	5.0490	0	33.8450	0	26.756	0	245.739	0	87.1	4	28.1	4	-1E+10	1	-1E+10	1	-1E+10	1	-1E+10	1	-1E+10	1	-1E+10	1
4902551	34	C	07/17/2021	10:05	-134.910	49.424	0	248.80	0	5.0450	0	33.8460	0	26.758	0	246.532	0	86.8	4	28.0	4	-1E+10	1	-1E+10	1	-1E+10	1	-1E+10	1	-1E+10	1	-1E+10	1
4902551	34	C	07/17/2021	10:05	-134.910	49.424	0	249.80	0	5.0330	0	33.8470	0	26.760	0	247.522	0	86.5	4	27.9	4	-1E+10	1	-1E+10	1	-1E+10	1	-1E+10	1	-1E+10	1	-1E+10	1
4902551	34	C	07/17/2021	10:05	-134.910	49.424	0	251.00	0	5.0140	0	33.8490	0	26.763	0	248.710	0	86.2	4	27.8	4	-1E+10	1	-1E+10	1	-1E+10	1	-1E+10	1	-1E+10	1	-1E+10	1
4902551	34	C	07/17/2021	10:05	-134.910	49.424	0	251.70	0	5.0090	0	33.8490	0	26.764	0	249.403	0	86.0	4	27.8	4	-1E+10	1	-1E+10	1	-1E+10	1	-1E+10	1	-1E+10	1	-1E+10	1
4902551	34	C	07/17/2021	10:05	-134.910	49.424	0	252.80	0	4.9970	0	33.8490	0	26.765	0	250.493	0	85.7	4	27.6	4	-1E+10	1	-1E+10	1	-1E+10	1	-1E+10	1	-1E+10	1	-1E+10	1
4902551	34	C	07/17/2021	10:05	-134.910	49.424	0	254.00	0	4.9890	0	33.8500	0	26.767	0	251.681	0	85.3	4	27.5	4	-1E+10	1	-1E+10	1	-1E+10	1	-1E+10	1	-1E+10	1	-1E+10	1
4902551	34	C	07/17/2021	10:05	-134.910	49.424	0	254.80	0	4.9850	0	33.8500	0	26.768	0	252.473	0	84.9	4	27.4	4	-1E+10	1	-1E+10	1	-1E+10	1	-1E+10	1	-1E+10	1	-1E+10	1
4902551	34	C	07/17/2021	10:05	-134.910	49.424	0	256.00	0	4.9800	0	33.8500	0	26.768	0	253.661	0	84.5	4	27.2	4	-1E+10	1	-1E+10	1	-1E+10	1	-1E+10	1	-1E+10	1	-1E+10	1
4902551	34	C	07/17/2021	10:05	-134.910	49.424	0	257.20	0	4.9690	0	33.8530	0	26.772	0	254.850	0	84.1	4	27.1	4	-1E+10	1	-1E+10	1	-1E+10	1	-1E+10	1	-1E+10	1	-1E+10	1
4902551	34	C	07/17/2021	10:05	-134.910	49.424	0	258.00	0	4.9620	0	33.8530	0	26.773	0	255.642	0	83.8	4	27.0	4	-1E+10	1	-1E+10	1	-1E+10	1	-1E+10	1	-1E+10	1	-1E+10	1
4902551	34	C	07/17/2021	10:05	-134.910	49.424	0	258.80	0	4.9560	0	33.8540	0	26.774	0	256.434	0	83.6	4	26.9	4	-1E+10	1	-1E+10	1	-1E+10	1	-1E+10	1	-1E+10	1	-1E+10	1
4902551	34	C	07/17/2021	10:05	-134.910	49.424	0	260.00	0	4.9510	0	33.8540	0	26.775	0	257.622	0	83.2	4	26.8	4	-1E+10	1	-1E+10	1	-1E+10	1	-1E+10	1	-1E+10	1	-1E+10	1
4902551	34	C	07/17/2021	10:05	-134.910	49.424	0	261.20	0	4.9460	0	33.8550	0	26.776	0	258.811	0	82.7	4	26.7	4	-1E+10	1	-1E+10	1	-1E+10	1	-1E+10	1	-1E+10	1	-1E+10	1
4902551	34	C	07/17/2021	10:05	-134.910	49.424	0	262.00	0	4.9430	0	33.8550	0	26.776	0	259.603	0	82.4	4	26.6	4	-1E+10	1	-1E+10	1	-1E+10	1	-1E+10	1	-1E+10	1	-1E+10	1
4902551	34	C	07/17/2021	10:05	-134.910	49.424	0	262.80	0	4.9420	0	33.8550	0	26.776	0	260.395	0	82.1	4	26.5	4	-1E+10	1	-1E+10	1	-1E+10	1	-1E+10	1	-1E+10	1	-1E+10	1
4902551	34	C	07/17/2021	10:05	-134.910	49.424	0	264.00	0	4.9360	0	33.8560	0	26.778	0	261.583	0	81.7	4	26.3	4	-1E+10	1	-1E+10	1	-1E+10	1	-1E+10	1	-1E+10	1	-1E+10	1
4902551	34	C	07/17/2021	10:05	-134.910	49.424	0	265.30	0	4.9190	0	33.8590	0	26.782	0	262.871	0	81.4	4	26.2	4	-1E+10	1	-1E+10	1	-1E+10	1	-1E+10	1	-1E+10	1	-1E+10	1
4902551	34	C	07/17/2021	10:05	-134.910	49.424	0	266.10	0	4.9140	0	33.8600	0	26.784	0	263.663	0	81.2	4	26.1	4	-1E+10	1	-1E+10	1	-1E+10	1	-1E+10	1	-1E+10	1	-1E+10	1
4902551	34	C	07/17/2021	10:05	-134.910	49.424	0	266.90	0	4.9130	0	33.8590	0	26.783	0	264.455	0	80.9	4	26.0	4	-1E+10	1	-1E+10	1	-1E+10	1	-1E+10	1	-1E+10	1	-1E+10	1
4902551	34	C	07/17/2021	10:05	-134.910	49.424	0	267.80	0	4.9090	0	33.8600	0	26.784	0	265.346	0	80.7	4	26.0	4	-1E+10	1	-1E+10	1	-1E+10	1	-1E+10	1	-1E+10	1	-1E+10	1
4902551	34	C	07/17/2021	10:05	-134.910	49.424	0	269.00	0	4.9070	0	33.8600	0	26.784	0	266.534	0	80.3	4	25.9	4	-1E+10	1	-1E+10	1	-1E+10	1	-1E+10	1	-1E+10	1	-1E+10	1
4902551	34	C	07/17/2021	10:05	-134.910	49.424	0	270.20	0	4.9040	0	33.8600	0	26.785	0	267.723	0	79.9	4	25.7	4	-1E+10	1	-1E+10	1	-1E+10	1	-1E+10	1	-1E+10	1	-1E+10	1
4902551	34	C	07/17/2021	10:05	-134.910	49.424	0	271.10	0	4.9020	0	33.8610	0	26.786	0	268.614	0	79.6	4	25.6	4	-1E+10	1	-1E+10	1	-1E+10	1	-1E+10	1	-1E+10	1	-1E+10	1
4902551	34	C	07/17/2021	10:05	-134.910	49.424	0	271.90	0	4.9010	0	33.8620	0	26.787	0	269.406	0	79.4	4	25.5	4	-1E+10	1	-1E+10	1	-1E+10	1	-1E+10	1	-1E+10	1	-1E+10	1
4902551	34	C	07/17/2021	10:05	-134.910	49.424	0	272.80	0	4.9000	0	33.8620	0	26.787	0	270.297	0	79.1	4	25.4	4	-1E+10	1	-1E+10	1	-1E+10	1	-1E+10	1	-1E+10	1	-1E+10	1
4902551	34	C	07/17/2021	10:05	-134.910	49.424	0	273.60	0	4.8970	0	33.8620	0	26.787	0	271.089	0	78.7	4	25.3	4	-1E+10	1	-1E+10	1	-1E+10	1	-1E+10	1	-1E+10	1	-1E+10	1
4902551	34	C	07/17/2021	10:05	-134.910	49.424	0	274.90	0	4.8900	0	33.8630	0	26.789	0	272.376	0	78.4	4	25.2	4	-1E+10	1	-1E+10	1	-1E+10	1	-1E+10	1	-1E+10	1	-1E+10	1
4902551	34	C	07/17/2021	10:05	-134.910	49.424	0	276.10	0	4.8800	0	33.8650	0	26.791	0	273.565	0	78.1	4	25.1	4	-1E+10	1	-1E+10	1	-1E+10	1	-1E+10	1	-1E+10	1	-1E+10	1
4902551	34	C	07/17/2021	10:05	-134.910	49.424	0	277.00	0	4.8700	0	33.8660	0	26.793	0	274.456	0	78.0	4	25.1	4	-1E+10	1	-1E+10	1	-1E+10	1	-1E+10	1	-1E+10	1	-1E+10	1
4902551	34	C	07/17/2021	10:05	-134.910	49.424	0	277.90	0	4.8580	0	33.8680	0	26.796	0	275.347	0	77.9	4	25.0	4	-1E+10	1	-1E+10	1	-1E+10	1	-1E+10	1	-1E+10	1	-1E+10	1
4902551	34	C	07/17/2021	10:05	-134.910	49.424	0	278.70	0	4.8560	0	33.8670	0	26.796	0	276.139	0	77.8	4	25.0	4	-1E+10	1	-1E+10	1	-1E+10	1	-1E+10	1	-1E+10	1	-1E+10	1
4902551	34	C	07/17/2021	10:05	-134.910	49.424	0	280.00	0	4.8470	0	33.8680	0	26.798	0	277.426	0	77.6	4	24.9	4	-1E+10	1	-1E+10	1	-1E+10	1	-1E+10	1	-1E+10	1	-1E+10	1
4902551	34	C	07/17/2021	10:05	-134.910	49.424	0	281.30	0	4.8430	0	33.8690	0	26.799	0	278.713	0	77.4	4	24.9	4	-1E+10	1	-1E+10	1	-1E+10	1	-1E+10	1	-1E+10	1	-1E+10	1
4902551	34	C	07/17/2021	10:05	-134.910	49.424	0	282.20	0	4.8340	0	33.8690	0	26.800	0	279.604	0	77.3	4	24.8	4	-1E+10	1	-1E+10	1	-1E+10	1	-1E+10	1	-1E+10	1	-1E+10	1
4902551	34	C	07/17/2021	10:05	-134.910	49.424	0	283.00	0	4.8290	0	33.8700	0	26.801	0	280.397	0	77.2	4	24.8	4	-1E+10	1	-1E+10	1	-1E+10	1	-1E+10	1	-1E+10	1	-1E+10	1
4902551	34	C	07/17/2021	10:05	-134.910	49.424	0	283.90	0	4.8270	0	33.8690	0	26.801	0	281.288	0	77.0	4	24.7	4	-1E+10	1	-1E+10	1	-1E+10	1	-1E+10	1	-1E+10	1	-1E+10	1
4902551	34	C	07/17/2021	10:05	-134.910	49.424	0	284.80	0	4.8250	0	33.8690	0	26.801	0	282.179	0	76.8	4	24.7	4	-1E+10	1	-1E+10	1	-1E+10	1	-1E+10	1	-1E+10	1	-1E+10	1
4902551	34	C	07/17/2021	10:05	-134.910	49.424	0	285.60	0	4.8230	0	33.8690	0	26.801	0	282.971	0	76.6	4	24.6	4	-1E+10	1	-1E+10	1	-1E+10	1	-1E+10	1	-1E+10	1	-1E+10	1
4902551	34	C	07/17/2021	10:05	-134.910	49.424	0	286.90	0	4.8190	0	33.8690	0	26.802	0	284.258	0	76.3	4	24.5	4	-1E+10	1	-1E+10	1	-1E+10	1	-1E+10	1	-1E+10	1	-1E+10	1
4902551	34	C	07/17/2021	10:05	-134.910	49.424	0	288.20	0	4.8120	0	33.8690	0	26.802	0	285.545	0	75.9	4	24.4	4	-1E+10	1	-1E+10	1	-1E+10	1	-1E+10	1	-1E+10	1	-1E+10	1
4902551	34	C	07/17/2021	10:05	-134.910	49.424	0	289.10	0	4.8090	0	33.8700	0	26.803	0	286.436	0	75.7	4	24.3	4	-1E+10	1	-1E+10	1	-1E+10	1	-1E+10	1	-1E+10	1	-1E+10	1
4902551	34	C	07/17/2021	10:05	-134.910	49.424	0	289.90	0	4.8000	0	33.8710	0	26.805	0	287.228	0	75.4	4	24.2	4	-1E+10	1	-1E+10	1	-1E+10	1	-1E+10	1	-1E+10	1	-1E+10	1
4902551	34	C	07/17/2021	10:05	-134.910	49.424	0	290.80	0	4.7930	0	33.8730	0	26.808	0	288.119	0	75.2	4	24.1	4	-1E+10	1	-1E+10	1	-1E+10	1	-1E+10	1	-1E+10	1	-1E+10	1
4902551	34	C	07/17/2021	10:05	-134.910	49.424	0	291.70	0	4.7860	0	33.8740	0	26.809	0	289.010	0	75.0	4	24.1	4	-1E+10	1	-1E+10	1	-1E+10	1	-1E+10	1	-1E+10	1	-1E+10	1
4902551	34	C	07/17/2021	10:05	-134.910	49.424	0	292.90	0	4.7820	0	33.8740	0	26.810	0	290.199	0	74.7	4	24.0	4	-1E+10	1	-1E+10	1	-1E+10	1	-1E+10	1	-1E+10	1	-1E+10	1
4902551	34	C	07/17/2021	10:05	-134.910	49.424	0	294.30	0	4.7820	0	33.8740	0	26.810	0	291.585	0	74.4	4	23.9	4	-1E+10	1	-1E+10	1	-1E+10	1	-1E+10	1	-1E+10	1	-1E+10	1
4902551	34	C	07/17/2021	10:05	-134.910	49.424	0	295.10	0	4.7790	0	33.8750	0	26.811	0	292.377	0	74.2	4	23.8	4	-1E+10	1	-1E+10	1	-1E+10	1	-1E+10	1	-1E+10	1	-1E+10	1
4902551	34	C	07/17/2021	10:05	-134.910	49.424	0	296.00	0	4.7800	0	33.8750	0	26.811	0	293.268	0	73.9	4	23.7	4	-1E+10	1	-1E+10	1	-1E+10	1	-1E+10	1	-1E+10	1	-1E+10	1
4902551	34	C	07/17/2021	10:05	-134.910	49.424	0	296.80	0	4.7720	0	33.8760	0	26.812	0	294.060	0	73.7	4	23.6	4	-1E+10	1	-1E+10	1	-1E+10	1	-1E+10	1	-1E+10	1	-1E+10	1
4902551	34	C	07/17/2021	10:05	-134.910	49.424	0	297.70	0	4.7680	0	33.8770	0	26.814	0	294.951	0	73.5	4	23.6	4	-1E+10	1	-1E+10	1	-1E+10	1	-1E+10	1	-1E+10	1	-1E+10	1
4902551	34	C	07/17/2021	10:05	-134.910	49.424	0	299.00	0	4.7640	0	33.8770	0	26.814	0	296.238	0	73.1	4	23.5	4	-1E+10	1	-1E+10	1	-1E+10	1	-1E+10	1	-1E+10	1	-1E+10	1
4902551	34	C	07/17/2021	10:05	-134.910	49.424	0	300.30	0	4.7610	0	33.8780	0	26.815	0	297.525	0	72.8	4	23.4	4	-1E+10	1	-1E+10	1	-1E+10	1	-1E+10	1	-1E+10	1	-1E+10	1
4902551	34	C	07/17/2021	10:05	-134.910	49.424	0	301.10	0	4.7570	0	33.8790	0	26.816	0	298.317	0	72.5	4	23.3	4	-1E+10	1	-1E+10	1	-1E+10	1	-1E+10	1	-1E+10	1	-1E+10	1
4902551	34	C	07/17/2021	10:05	-134.910	49.424	0	302.00	0	4.7550	0	33.8800	0	26.817	0	299.208	0	72.4	4	23.2	4	-1E+10	1	-1E+10	1	-1E+10	1	-1E+10	1	-1E+10	1	-1E+10	1
4902551	34	C	07/17/2021	10:05	-134.910	49.424	0	302.80	0	4.7530	0	33.8810	0	26.819	0	300.000	0	72.1	4	23.1	4	-1E+10	1	-1E+10	1	-1E+10	1	-1E+10	1	-1E+10	1	-1E+10	1
4902551	34	C	07/17/2021	10:05	-134.910	49.424	0	303.70	0	4.7510	0	33.8810	0	26.819	0	300.891	0	71.9	4	23.1	4	-1E+10	1	-1E+10	1	-1E+10	1	-1E+10	1	-1E+10	1	-1E+10	1
4902551	34	C	07/17/2021	10:05	-134.910	49.424	0	304.90	0	4.7490	0	33.8810	0	26.819	0	302.079	0	71.5	4	22.9	4	-1E+10	1	-1E+10	1	-1E+10	1	-1E+10	1	-1E+10	1	-1E+10	1
4902551	34	C	07/17/2021	10:05	-134.910	49.424	0	306.20	0	4.7490	0	33.8810	0	26.819	0	303.366	0	71.1	4	22.8	4	-1E+10	1	-1E+10	1	-1E+10	1	-1E+10	1	-1E+10	1	-1E+10	1
4902551	34	C	07/17/2021	10:05	-134.910	49.424	0	307.00	0	4.7490	0	33.8810	0	26.819	0	304.158	0	70.8	4	22.7	4	-1E+10	1	-1E+10	1	-1E+10	1	-1E+10	1	-1E+10	1	-1E+10	1
4902551	34	C	07/17/2021	10:05	-134.910	49.424	0	307.90	0	4.7490	0	33.8810	0	26.819	0	305.049	0	70.4	4	22.6	4	-1E+10	1	-1E+10	1	-1E+10	1	-1E+10	1	-1E+10	1	-1E+10	1
4902551	34	C	07/17/2021	10:05	-134.910	49.424	0	308.70	0	4.7480	0	33.8810	0	26.819	0	305.841	0	70.0	4	22.5	4	-1E+10	1	-1E+10	1	-1E+10	1	-1E+10	1	-1E+10	1	-1E+10	1
4902551	34	C	07/17/2021	10:05	-134.910	49.424	0	310.00	0	4.7430	0	33.8820	0	26.820	0	307.128	0	69.4	4	22.2	4	-1E+10	1	-1E+10	1	-1E+10	1	-1E+10	1	-1E+10	1	-1E+10	1
4902551	34	C	07/17/2021	10:05	-134.910	49.424	0	311.30	0	4.7380	0	33.8840	0	26.823	0	308.415	0	68.7	4	22.0	4	-1E+10	1	-1E+10	1	-1E+10	1	-1E+10	1	-1E+10	1	-1E+10	1
4902551	34	C	07/17/2021	10:05	-134.910	49.424	0	312.10	0	4.7320	0	33.8850	0	26.824	0	309.207	0	68.3	4	21.9	4	-1E+10	1	-1E+10	1	-1E+10	1	-1E+10	1	-1E+10	1	-1E+10	1
4902551	34	C	07/17/2021	10:05	-134.910	49.424	0	313.00	0	4.7310	0	33.8850	0	26.824	0	310.098	0	67.7	4	21.7	4	-1E+10	1	-1E+10	1	-1E+10	1	-1E+10	1	-1E+10	1	-1E+10	1
4902551	34	C	07/17/2021	10:05	-134.910	49.424	0	313.80	0	4.7280	0	33.8860	0	26.825	0	310.890	0	67.2	4	21.5	4	-1E+10	1	-1E+10	1	-1E+10	1	-1E+10	1	-1E+10	1	-1E+10	1
4902551	34	C	07/17/2021	10:05	-134.910	49.424	0	314.70	0	4.7220	0	33.8870	0	26.827	0	311.781	0	66.6	4	21.4	4	-1E+10	1	-1E+10	1	-1E+10	1	-1E+10	1	-1E+10	1	-1E+10	1
4902551	34	C	07/17/2021	10:05	-134.910	49.424	0	315.90	0	4.7150	0	33.8890	0	26.829	0	312.969	0	65.7	4	21.1	4	-1E+10	1	-1E+10	1	-1E+10	1	-1E+10	1	-1E+10	1	-1E+10	1
4902551	34	C	07/17/2021	10:05	-134.910	49.424	0	317.20	0	4.7050	0	33.8920	0	26.833	0	314.256	0	64.8	4	20.8	4	-1E+10	1	-1E+10	1	-1E+10	1	-1E+10	1	-1E+10	1	-1E+10	1
4902551	34	C	07/17/2021	10:05	-134.910	49.424	0	318.10	0	4.7010	0	33.8930	0	26.834	0	315.147	0	64.3	4	20.6	4	-1E+10	1	-1E+10	1	-1E+10	1	-1E+10	1	-1E+10	1	-1E+10	1
4902551	34	C	07/17/2021	10:05	-134.910	49.424	0	318.90	0	4.6950	0	33.8950	0	26.836	0	315.939	0	63.8	4	20.4	4	-1E+10	1	-1E+10	1	-1E+10	1	-1E+10	1	-1E+10	1	-1E+10	1
4902551	34	C	07/17/2021	10:05	-134.910	49.424	0	319.80	0	4.6870	0	33.8970	0	26.839	0	316.830	0	63.3	4	20.3	4	-1E+10	1	-1E+10	1	-1E+10	1	-1E+10	1	-1E+10	1	-1E+10	1
4902551	34	C	07/17/2021	10:05	-134.910	49.424	0	321.00	0	4.6820	0	33.8980	0	26.840	0	318.018	0	62.5	4	20.0	4	-1E+10	1	-1E+10	1	-1E+10	1	-1E+10	1	-1E+10	1	-1E+10	1
4902551	34	C	07/17/2021	10:05	-134.910	49.424	0	322.30	0	4.6770	0	33.9000	0	26.842	0	319.305	0	61.8	4	19.8	4	-1E+10	1	-1E+10	1	-1E+10	1	-1E+10	1	-1E+10	1	-1E+10	1
4902551	34	C	07/17/2021	10:05	-134.910	49.424	0	323.20	0	4.6700	0	33.9040	0	26.846	0	320.196	0	61.4	4	19.7	4	-1E+10	1	-1E+10	1	-1E+10	1	-1E+10	1	-1E+10	1	-1E+10	1
4902551	34	C	07/17/2021	10:05	-134.910	49.424	0	324.00	0	4.6660	0	33.9060	0	26.848	0	320.988	0	61.0	4	19.5	4	-1E+10	1	-1E+10	1	-1E+10	1	-1E+10	1	-1E+10	1	-1E+10	1
4902551	34	C	07/17/2021	10:05	-134.910	49.424	0	324.90	0	4.6590	0	33.9080	0	26.850	0	321.879	0	60.7	4	19.4	4	-1E+10	1	-1E+10	1	-1E+10	1	-1E+10	1	-1E+10	1	-1E+10	1
4902551	34	C	07/17/2021	10:05	-134.910	49.424	0	325.70	0	4.6560	0	33.9090	0	26.852	0	322.670	0	60.3	4	19.3	4	-1E+10	1	-1E+10	1	-1E+10	1	-1E+10	1	-1E+10	1	-1E+10	1
4902551	34	C	07/17/2021	10:05	-134.910	49.424	0	327.00	0	4.6490	0	33.9110	0	26.854	0	323.957	0	59.9	4	19.2	4	-1E+10	1	-1E+10	1	-1E+10	1	-1E+10	1	-1E+10	1	-1E+10	1
4902551	34	C	07/17/2021	10:05	-134.910	49.424	0	328.30	0	4.6460	0	33.9120	0	26.855	0	325.244	0	59.4	4	19.0	4	-1E+10	1	-1E+10	1	-1E+10	1	-1E+10	1	-1E+10	1	-1E+10	1
4902551	34	C	07/17/2021	10:05	-134.910	49.424	0	329.20	0	4.6400	0	33.9140	0	26.857	0	326.135	0	59.1	4	18.9	4	-1E+10	1	-1E+10	1	-1E+10	1	-1E+10	1	-1E+10	1	-1E+10	1
4902551	34	C	07/17/2021	10:05	-134.910	49.424	0	330.10	0	4.6220	0	33.9180	0	26.862	0	327.026	0	58.9	4	18.8	4	-1E+10	1	-1E+10	1	-1E+10	1	-1E+10	1	-1E+10	1	-1E+10	1
4902551	34	C	07/17/2021	10:05	-134.910	49.424	0	331.00	0	4.6110	0	33.9190	0	26.864	0	327.917	0	58.7	4	18.8	4	-1E+10	1	-1E+10	1	-1E+10	1	-1E+10	1	-1E+10	1	-1E+10	1
4902551	34	C	07/17/2021	10:05	-134.910	49.424	0	331.90	0	4.6080	0	33.9200	0	26.866	0	328.808	0	58.4	4	18.7	4	-1E+10	1	-1E+10	1	-1E+10	1	-1E+10	1	-1E+10	1	-1E+10	1
4902551	34	C	07/17/2021	10:05	-134.910	49.424	0	332.70	0	4.6070	0	33.9190	0	26.865	0	329.600	0	58.1	4	18.6	4	-1E+10	1	-1E+10	1	-1E+10	1	-1E+10	1	-1E+10	1	-1E+10	1
4902551	34	C	07/17/2021	10:05	-134.910	49.424	0	333.60	0	4.6050	0	33.9200	0	26.866	0	330.491	0	57.8	4	18.5	4	-1E+10	1	-1E+10	1	-1E+10	1	-1E+10	1	-1E+10	1	-1E+10	1
4902551	34	C	07/17/2021	10:05	-134.910	49.424	0	334.90	0	4.6030	0	33.9200	0	26.866	0	331.778	0	57.3	4	18.3	4	-1E+10	1	-1E+10	1	-1E+10	1	-1E+10	1	-1E+10	1	-1E+10	1
4902551	34	C	07/17/2021	10:05	-134.910	49.424	0	336.30	0	4.5950	0	33.9240	0	26.870	0	333.163	0	56.9	4	18.2	4	-1E+10	1	-1E+10	1	-1E+10	1	-1E+10	1	-1E+10	1	-1E+10	1
4902551	34	C	07/17/2021	10:05	-134.910	49.424	0	337.20	0	4.5940	0	33.9240	0	26.870	0	334.054	0	56.6	4	18.1	4	-1E+10	1	-1E+10	1	-1E+10	1	-1E+10	1	-1E+10	1	-1E+10	1
4902551	34	C	07/17/2021	10:05	-134.910	49.424	0	338.10	0	4.5920	0	33.9260	0	26.872	0	334.945	0	56.4	4	18.0	4	-1E+10	1	-1E+10	1	-1E+10	1	-1E+10	1	-1E+10	1	-1E+10	1
4902551	34	C	07/17/2021	10:05	-134.910	49.424	0	339.00	0	4.5920	0	33.9270	0	26.873	0	335.836	0	56.1	4	17.9	4	-1E+10	1	-1E+10	1	-1E+10	1	-1E+10	1	-1E+10	1	-1E+10	1
4902551	34	C	07/17/2021	10:05	-134.910	49.424	0	339.90	0	4.5920	0	33.9270	0	26.873	0	336.727	0	55.9	4	17.9	4	-1E+10	1	-1E+10	1	-1E+10	1	-1E+10	1	-1E+10	1	-1E+10	1
4902551	34	C	07/17/2021	10:05	-134.910	49.424	0	340.80	0	4.5910	0	33.9290	0	26.875	0	337.618	0	55.8	4	17.8	4	-1E+10	1	-1E+10	1	-1E+10	1	-1E+10	1	-1E+10	1	-1E+10	1
4902551	34	C	07/17/2021	10:05	-134.910	49.424	0	341.70	0	4.5910	0	33.9300	0	26.875	0	338.509	0	55.5	4	17.7	4	-1E+10	1	-1E+10	1	-1E+10	1	-1E+10	1	-1E+10	1	-1E+10	1
4902551	34	C	07/17/2021	10:05	-134.910	49.424	0	342.60	0	4.5900	0	33.9300	0	26.876	0	339.399	0	55.4	4	17.7	4	-1E+10	1	-1E+10	1	-1E+10	1	-1E+10	1	-1E+10	1	-1E+10	1
4902551	34	C	07/17/2021	10:05	-134.910	49.424	0	343.60	0	4.5890	0	33.9300	0	26.876	0	340.389	0	55.2	4	17.6	4	-1E+10	1	-1E+10	1	-1E+10	1	-1E+10	1	-1E+10	1	-1E+10	1
4902551	34	C	07/17/2021	10:05	-134.910	49.424	0	344.90	0	4.5820	0	33.9320	0	26.878	0	341.676	0	55.0	4	17.6	4	-1E+10	1	-1E+10	1	-1E+10	1	-1E+10	1	-1E+10	1	-1E+10	1
4902551	34	C	07/17/2021	10:05	-134.910	49.424	0	346.40	0	4.5780	0	33.9340	0	26.880	0	343.161	0	54.8	4	17.5	4	-1E+10	1	-1E+10	1	-1E+10	1	-1E+10	1	-1E+10	1	-1E+10	1
4902551	34	C	07/17/2021	10:05	-134.910	49.424	0	347.30	0	4.5750	0	33.9350	0	26.881	0	344.052	0	54.6	4	17.4	4	-1E+10	1	-1E+10	1	-1E+10	1	-1E+10	1	-1E+10	1	-1E+10	1
4902551	34	C	07/17/2021	10:05	-134.910	49.424	0	348.20	0	4.5730	0	33.9360	0	26.882	0	344.942	0	54.5	4	17.4	4	-1E+10	1	-1E+10	1	-1E+10	1	-1E+10	1	-1E+10	1	-1E+10	1
4902551	34	C	07/17/2021	10:05	-134.910	49.424	0	349.10	0	4.5710	0	33.9360	0	26.882	0	345.833	0	54.4	4	17.4	4	-1E+10	1	-1E+10	1	-1E+10	1	-1E+10	1	-1E+10	1	-1E+10	1
4902551	34	C	07/17/2021	10:05	-134.910	49.424	0	350.10	0	4.5710	0	33.9360	0	26.882	0	346.823	0	54.2	4	17.3	4	-1E+10	1	-1E+10	1	-1E+10	1	-1E+10	1	-1E+10	1	-1E+10	1
4902551	34	C	07/17/2021	10:05	-134.910	49.424	0	352.90	0	4.5640	0	33.9370	0	26.884	0	349.595	0	53.7	4	17.2	4	-1E+10	1	-1E+10	1	-1E+10	1	-1E+10	1	-1E+10	1	-1E+10	1
4902551	34	C	07/17/2021	10:05	-134.910	49.424	0	358.00	0	4.5590	0	33.9400	0	26.887	0	354.642	0	52.7	4	16.8	4	-1E+10	1	-1E+10	1	-1E+10	1	-1E+10	1	-1E+10	1	-1E+10	1
4902551	34	C	07/17/2021	10:05	-134.910	49.424	0	363.10	0	4.5420	0	33.9470	0	26.894	0	359.690	0	51.6	4	16.5	4	-1E+10	1	-1E+10	1	-1E+10	1	-1E+10	1	-1E+10	1	-1E+10	1
4902551	34	C	07/17/2021	10:05	-134.910	49.424	0	368.10	0	4.5270	0	33.9510	0	26.899	0	364.639	0	50.8	4	16.2	4	-1E+10	1	-1E+10	1	-1E+10	1	-1E+10	1	-1E+10	1	-1E+10	1
4902551	34	C	07/17/2021	10:05	-134.910	49.424	0	373.10	0	4.5120	0	33.9560	0	26.905	0	369.587	0	50.0	4	15.9	4	-1E+10	1	-1E+10	1	-1E+10	1	-1E+10	1	-1E+10	1	-1E+10	1
4902551	34	C	07/17/2021	10:05	-134.910	49.424	0	377.70	0	4.5050	0	33.9600	0	26.909	0	374.140	0	49.4	4	15.8	4	-1E+10	1	-1E+10	1	-1E+10	1	-1E+10	1	-1E+10	1	-1E+10	1
4902551	34	C	07/17/2021	10:05	-134.910	49.424	0	382.80	0	4.4870	0	33.9650	0	26.915	0	379.187	0	48.9	4	15.6	4	-1E+10	1	-1E+10	1	-1E+10	1	-1E+10	1	-1E+10	1	-1E+10	1
4902551	34	C	07/17/2021	10:05	-134.910	49.424	0	387.90	0	4.4590	0	33.9740	0	26.925	0	384.234	0	48.5	4	15.5	4	-1E+10	1	-1E+10	1	-1E+10	1	-1E+10	1	-1E+10	1	-1E+10	1
4902551	34	C	07/17/2021	10:05	-134.910	49.424	0	393.00	0	4.4290	0	33.9780	0	26.931	0	389.281	0	48.7	4	15.5	4	-1E+10	1	-1E+10	1	-1E+10	1	-1E+10	1	-1E+10	1	-1E+10	1
4902551	34	C	07/17/2021	10:05	-134.910	49.424	0	398.00	0	4.3930	0	33.9840	0	26.940	0	394.229	0	48.2	4	15.3	4	-1E+10	1	-1E+10	1	-1E+10	1	-1E+10	1	-1E+10	1	-1E+10	1
4902551	34	C	07/17/2021	10:05	-134.910	49.424	0	402.80	0	4.3810	0	33.9880	0	26.945	0	398.979	0	47.7	4	15.2	4	-1E+10	1	-1E+10	1	-1E+10	1	-1E+10	1	-1E+10	1	-1E+10	1
4902551	34	C	07/17/2021	10:05	-134.910	49.424	0	408.00	0	4.3760	0	33.9900	0	26.947	0	404.125	0	47.0	4	15.0	4	-1E+10	1	-1E+10	1	-1E+10	1	-1E+10	1	-1E+10	1	-1E+10	1
4902551	34	C	07/17/2021	10:05	-134.910	49.424	0	413.10	0	4.3660	0	33.9930	0	26.950	0	409.171	0	46.1	4	14.7	4	-1E+10	1	-1E+10	1	-1E+10	1	-1E+10	1	-1E+10	1	-1E+10	1
4902551	34	C	07/17/2021	10:05	-134.910	49.424	0	417.80	0	4.3500	0	33.9990	0	26.957	0	413.822	0	45.4	4	14.4	4	-1E+10	1	-1E+10	1	-1E+10	1	-1E+10	1	-1E+10	1	-1E+10	1
4902551	34	C	07/17/2021	10:05	-134.910	49.424	0	423.00	0	4.3440	0	34.0020	0	26.960	0	418.967	0	44.5	4	14.2	4	-1E+10	1	-1E+10	1	-1E+10	1	-1E+10	1	-1E+10	1	-1E+10	1
4902551	34	C	07/17/2021	10:05	-134.910	49.424	0	428.10	0	4.3320	0	34.0060	0	26.964	0	424.013	0	43.6	4	13.8	4	-1E+10	1	-1E+10	1	-1E+10	1	-1E+10	1	-1E+10	1	-1E+10	1
4902551	34	C	07/17/2021	10:05	-134.910	49.424	0	432.90	0	4.3140	0	34.0120	0	26.971	0	428.763	0	42.6	4	13.5	4	-1E+10	1	-1E+10	1	-1E+10	1	-1E+10	1	-1E+10	1	-1E+10	1
4902551	34	C	07/17/2021	10:05	-134.910	49.424	0	437.60	0	4.2960	0	34.0180	0	26.978	0	433.413	0	41.8	4	13.3	4	-1E+10	1	-1E+10	1	-1E+10	1	-1E+10	1	-1E+10	1	-1E+10	1
4902551	34	C	07/17/2021	10:05	-134.910	49.424	0	442.90	0	4.2820	0	34.0220	0	26.982	0	438.656	0	40.5	4	12.8	4	-1E+10	1	-1E+10	1	-1E+10	1	-1E+10	1	-1E+10	1	-1E+10	1
4902551	34	C	07/17/2021	10:05	-134.910	49.424	0	448.20	0	4.2780	0	34.0290	0	26.988	0	443.900	0	39.4	4	12.5	4	-1E+10	1	-1E+10	1	-1E+10	1	-1E+10	1	-1E+10	1	-1E+10	1
4902551	34	C	07/17/2021	10:05	-134.910	49.424	0	453.20	0	4.2550	0	34.0340	0	26.995	0	448.847	0	38.6	4	12.3	4	-1E+10	1	-1E+10	1	-1E+10	1	-1E+10	1	-1E+10	1	-1E+10	1
4902551	34	C	07/17/2021	10:05	-134.910	49.424	0	458.40	0	4.2460	0	34.0410	0	27.001	0	453.991	0	38.1	4	12.1	4	-1E+10	1	-1E+10	1	-1E+10	1	-1E+10	1	-1E+10	1	-1E+10	1
4902551	34	C	07/17/2021	10:05	-134.910	49.424	0	463.00	0	4.2240	0	34.0430	0	27.005	0	458.542	0	37.7	4	12.0	4	-1E+10	1	-1E+10	1	-1E+10	1	-1E+10	1	-1E+10	1	-1E+10	1
4902551	34	C	07/17/2021	10:05	-134.910	49.424	0	467.70	0	4.2070	0	34.0490	0	27.012	0	463.191	0	37.0	4	11.7	4	-1E+10	1	-1E+10	1	-1E+10	1	-1E+10	1	-1E+10	1	-1E+10	1
4902551	34	C	07/17/2021	10:05	-134.910	49.424	0	472.90	0	4.1960	0	34.0530	0	27.016	0	468.335	0	36.5	4	11.6	4	-1E+10	1	-1E+10	1	-1E+10	1	-1E+10	1	-1E+10	1	-1E+10	1
4902551	34	C	07/17/2021	10:05	-134.910	49.424	0	478.30	0	4.1920	0	34.0540	0	27.017	0	473.677	0	35.6	4	11.3	4	-1E+10	1	-1E+10	1	-1E+10	1	-1E+10	1	-1E+10	1	-1E+10	1
4902551	34	C	07/17/2021	10:05	-134.910	49.424	0	482.90	0	4.1810	0	34.0590	0	27.023	0	478.227	0	34.7	4	11.0	4	-1E+10	1	-1E+10	1	-1E+10	1	-1E+10	1	-1E+10	1	-1E+10	1
4902551	34	C	07/17/2021	10:05	-134.910	49.424	0	487.60	0	4.1700	0	34.0630	0	27.027	0	482.876	0	33.9	4	10.7	4	-1E+10	1	-1E+10	1	-1E+10	1	-1E+10	1	-1E+10	1	-1E+10	1
4902551	34	C	07/17/2021	10:05	-134.910	49.424	0	492.80	0	4.1590	0	34.0690	0	27.033	0	488.020	0	33.0	4	10.5	4	-1E+10	1	-1E+10	1	-1E+10	1	-1E+10	1	-1E+10	1	-1E+10	1
4902551	34	C	07/17/2021	10:05	-134.910	49.424	0	498.10	0	4.1480	0	34.0730	0	27.037	0	493.262	0	32.1	4	10.2	4	-1E+10	1	-1E+10	1	-1E+10	1	-1E+10	1	-1E+10	1	-1E+10	1
4902551	34	C	07/17/2021	10:05	-134.910	49.424	0	503.10	0	4.1270	0	34.0790	0	27.044	0	498.207	0	31.2	4	9.9	4	-1E+10	1	-1E+10	1	-1E+10	1	-1E+10	1	-1E+10	1	-1E+10	1
4902551	34	C	07/17/2021	10:05	-134.910	49.424	0	508.10	0	4.1160	0	34.0850	0	27.050	0	503.153	0	30.3	4	9.6	4	-1E+10	1	-1E+10	1	-1E+10	1	-1E+10	1	-1E+10	1	-1E+10	1
4902551	34	C	07/17/2021	10:05	-134.910	49.424	0	513.20	0	4.1070	0	34.0880	0	27.054	0	508.197	0	29.5	4	9.3	4	-1E+10	1	-1E+10	1	-1E+10	1	-1E+10	1	-1E+10	1	-1E+10	1
4902551	34	C	07/17/2021	10:05	-134.910	49.424	0	517.80	0	4.0910	0	34.0940	0	27.060	0	512.746	0	28.8	4	9.1	4	-1E+10	1	-1E+10	1	-1E+10	1	-1E+10	1	-1E+10	1	-1E+10	1
4902551	34	C	07/17/2021	10:05	-134.910	49.424	0	523.00	0	4.0680	0	34.1010	0	27.068	0	517.889	0	28.0	4	8.9	4	-1E+10	1	-1E+10	1	-1E+10	1	-1E+10	1	-1E+10	1	-1E+10	1
4902551	34	C	07/17/2021	10:05	-134.910	49.424	0	528.30	0	4.0470	0	34.1080	0	27.076	0	523.131	0	27.6	4	8.7	4	-1E+10	1	-1E+10	1	-1E+10	1	-1E+10	1	-1E+10	1	-1E+10	1
4902551	34	C	07/17/2021	10:05	-134.910	49.424	0	533.10	0	4.0420	0	34.1100	0	27.078	0	527.878	0	27.2	4	8.6	4	-1E+10	1	-1E+10	1	-1E+10	1	-1E+10	1	-1E+10	1	-1E+10	1
4902551	34	C	07/17/2021	10:05	-134.910	49.424	0	537.80	0	4.0330	0	34.1130	0	27.081	0	532.526	0	26.7	4	8.4	4	-1E+10	1	-1E+10	1	-1E+10	1	-1E+10	1	-1E+10	1	-1E+10	1
4902551	34	C	07/17/2021	10:05	-134.910	49.424	0	542.60	0	4.0220	0	34.1170	0	27.086	0	537.272	0	26.2	4	8.3	4	-1E+10	1	-1E+10	1	-1E+10	1	-1E+10	1	-1E+10	1	-1E+10	1
4902551	34	C	07/17/2021	10:05	-134.910	49.424	0	547.90	0	4.0080	0	34.1220	0	27.091	0	542.513	0	25.9	4	8.2	4	-1E+10	1	-1E+10	1	-1E+10	1	-1E+10	1	-1E+10	1	-1E+10	1
4902551	34	C	07/17/2021	10:05	-134.910	49.424	0	553.10	0	3.9980	0	34.1250	0	27.094	0	547.655	0	25.6	4	8.1	4	-1E+10	1	-1E+10	1	-1E+10	1	-1E+10	1	-1E+10	1	-1E+10	1
4902551	34	C	07/17/2021	10:05	-134.910	49.424	0	557.70	0	3.9880	0	34.1280	0	27.098	0	552.204	0	25.4	4	8.0	4	-1E+10	1	-1E+10	1	-1E+10	1	-1E+10	1	-1E+10	1	-1E+10	1
4902551	34	C	07/17/2021	10:05	-134.910	49.424	0	562.90	0	3.9740	0	34.1320	0	27.103	0	557.346	0	25.2	4	8.0	4	-1E+10	1	-1E+10	1	-1E+10	1	-1E+10	1	-1E+10	1	-1E+10	1
4902551	34	C	07/17/2021	10:05	-134.910	49.424	0	568.10	0	3.9620	0	34.1360	0	27.107	0	562.487	0	25.1	4	7.9	4	-1E+10	1	-1E+10	1	-1E+10	1	-1E+10	1	-1E+10	1	-1E+10	1
4902551	34	C	07/17/2021	10:05	-134.910	49.424	0	572.90	0	3.9570	0	34.1370	0	27.108	0	567.234	0	24.9	4	7.9	4	-1E+10	1	-1E+10	1	-1E+10	1	-1E+10	1	-1E+10	1	-1E+10	1
4902551	34	C	07/17/2021	10:05	-134.910	49.424	0	577.80	0	3.9440	0	34.1400	0	27.112	0	572.078	0	24.6	4	7.8	4	-1E+10	1	-1E+10	1	-1E+10	1	-1E+10	1	-1E+10	1	-1E+10	1
4902551	34	C	07/17/2021	10:05	-134.910	49.424	0	582.70	0	3.9250	0	34.1440	0	27.117	0	576.923	0	24.3	4	7.7	4	-1E+10	1	-1E+10	1	-1E+10	1	-1E+10	1	-1E+10	1	-1E+10	1
4902551	34	C	07/17/2021	10:05	-134.910	49.424	0	587.70	0	3.9090	0	34.1490	0	27.123	0	581.866	0	23.9	4	7.5	4	-1E+10	1	-1E+10	1	-1E+10	1	-1E+10	1	-1E+10	1	-1E+10	1
4902551	34	C	07/17/2021	10:05	-134.910	49.424	0	592.70	0	3.9020	0	34.1500	0	27.124	0	586.810	0	23.4	4	7.4	4	-1E+10	1	-1E+10	1	-1E+10	1	-1E+10	1	-1E+10	1	-1E+10	1
4902551	34	C	07/17/2021	10:05	-134.910	49.424	0	597.70	0	3.8680	0	34.1600	0	27.136	0	591.753	0	23.0	4	7.2	4	-1E+10	1	-1E+10	1	-1E+10	1	-1E+10	1	-1E+10	1	-1E+10	1
4902551	34	C	07/17/2021	10:05	-134.910	49.424	0	602.70	0	3.8420	0	34.1670	0	27.144	0	596.696	0	22.6	4	7.1	4	-1E+10	1	-1E+10	1	-1E+10	1	-1E+10	1	-1E+10	1	-1E+10	1
4902551	34	C	07/17/2021	10:05	-134.910	49.424	0	607.80	0	3.8280	0	34.1720	0	27.149	0	601.738	0	22.4	4	7.0	4	-1E+10	1	-1E+10	1	-1E+10	1	-1E+10	1	-1E+10	1	-1E+10	1
4902551	34	C	07/17/2021	10:05	-134.910	49.424	0	612.90	0	3.8210	0	34.1740	0	27.152	0	606.780	0	22.2	4	7.0	4	-1E+10	1	-1E+10	1	-1E+10	1	-1E+10	1	-1E+10	1	-1E+10	1
4902551	34	C	07/17/2021	10:05	-134.910	49.424	0	618.00	0	3.8160	0	34.1750	0	27.153	0	611.821	0	21.8	4	6.9	4	-1E+10	1	-1E+10	1	-1E+10	1	-1E+10	1	-1E+10	1	-1E+10	1
4902551	34	C	07/17/2021	10:05	-134.910	49.424	0	623.00	0	3.8080	0	34.1780	0	27.156	0	616.764	0	21.3	4	6.7	4	-1E+10	1	-1E+10	1	-1E+10	1	-1E+10	1	-1E+10	1	-1E+10	1
4902551	34	C	07/17/2021	10:05	-134.910	49.424	0	628.10	0	3.7940	0	34.1820	0	27.161	0	621.805	0	20.8	4	6.5	4	-1E+10	1	-1E+10	1	-1E+10	1	-1E+10	1	-1E+10	1	-1E+10	1
4902551	34	C	07/17/2021	10:05	-134.910	49.424	0	633.20	0	3.7840	0	34.1860	0	27.165	0	626.846	0	20.4	4	6.4	4	-1E+10	1	-1E+10	1	-1E+10	1	-1E+10	1	-1E+10	1	-1E+10	1
4902551	34	C	07/17/2021	10:05	-134.910	49.424	0	638.30	0	3.7800	0	34.1880	0	27.167	0	631.887	0	20.0	4	6.3	4	-1E+10	1	-1E+10	1	-1E+10	1	-1E+10	1	-1E+10	1	-1E+10	1
4902551	34	C	07/17/2021	10:05	-134.910	49.424	0	643.00	0	3.7750	0	34.1900	0	27.169	0	636.533	0	19.8	4	6.2	4	-1E+10	1	-1E+10	1	-1E+10	1	-1E+10	1	-1E+10	1	-1E+10	1
4902551	34	C	07/17/2021	10:05	-134.910	49.424	0	648.00	0	3.7660	0	34.1930	0	27.173	0	641.475	0	19.5	4	6.1	4	-1E+10	1	-1E+10	1	-1E+10	1	-1E+10	1	-1E+10	1	-1E+10	1
4902551	34	C	07/17/2021	10:05	-134.910	49.424	0	653.00	0	3.7570	0	34.1960	0	27.176	0	646.417	0	19.3	4	6.1	4	-1E+10	1	-1E+10	1	-1E+10	1	-1E+10	1	-1E+10	1	-1E+10	1
4902551	34	C	07/17/2021	10:05	-134.910	49.424	0	657.80	0	3.7450	0	34.2000	0	27.180	0	651.161	0	19.1	4	6.0	4	-1E+10	1	-1E+10	1	-1E+10	1	-1E+10	1	-1E+10	1	-1E+10	1
4902551	34	C	07/17/2021	10:05	-134.910	49.424	0	662.70	0	3.7360	0	34.2020	0	27.183	0	656.004	0	18.9	4	5.9	4	-1E+10	1	-1E+10	1	-1E+10	1	-1E+10	1	-1E+10	1	-1E+10	1
4902551	34	C	07/17/2021	10:05	-134.910	49.424	0	667.50	0	3.7230	0	34.2060	0	27.187	0	660.748	0	18.6	4	5.8	4	-1E+10	1	-1E+10	1	-1E+10	1	-1E+10	1	-1E+10	1	-1E+10	1
4902551	34	C	07/17/2021	10:05	-134.910	49.424	0	672.90	0	3.7110	0	34.2090	0	27.191	0	666.085	0	18.4	4	5.8	4	-1E+10	1	-1E+10	1	-1E+10	1	-1E+10	1	-1E+10	1	-1E+10	1
4902551	34	C	07/17/2021	10:05	-134.910	49.424	0	678.20	0	3.6990	0	34.2130	0	27.195	0	671.322	0	18.1	4	5.7	4	-1E+10	1	-1E+10	1	-1E+10	1	-1E+10	1	-1E+10	1	-1E+10	1
4902551	34	C	07/17/2021	10:05	-134.910	49.424	0	682.90	0	3.6880	0	34.2170	0	27.200	0	675.967	0	18.0	4	5.6	4	-1E+10	1	-1E+10	1	-1E+10	1	-1E+10	1	-1E+10	1	-1E+10	1
4902551	34	C	07/17/2021	10:05	-134.910	49.424	0	687.60	0	3.6850	0	34.2180	0	27.201	0	680.612	0	17.9	4	5.6	4	-1E+10	1	-1E+10	1	-1E+10	1	-1E+10	1	-1E+10	1	-1E+10	1
4902551	34	C	07/17/2021	10:05	-134.910	49.424	0	692.60	0	3.6800	0	34.2190	0	27.202	0	685.553	0	17.6	4	5.5	4	-1E+10	1	-1E+10	1	-1E+10	1	-1E+10	1	-1E+10	1	-1E+10	1
4902551	34	C	07/17/2021	10:05	-134.910	49.424	0	697.70	0	3.6630	0	34.2240	0	27.208	0	690.592	0	17.4	4	5.4	4	-1E+10	1	-1E+10	1	-1E+10	1	-1E+10	1	-1E+10	1	-1E+10	1
4902551	34	C	07/17/2021	10:05	-134.910	49.424	0	702.90	0	3.6480	0	34.2280	0	27.212	0	695.731	0	17.2	4	5.4	4	-1E+10	1	-1E+10	1	-1E+10	1	-1E+10	1	-1E+10	1	-1E+10	1
4902551	34	C	07/17/2021	10:05	-134.910	49.424	0	707.80	0	3.6430	0	34.2300	0	27.215	0	700.572	0	17.1	4	5.4	4	-1E+10	1	-1E+10	1	-1E+10	1	-1E+10	1	-1E+10	1	-1E+10	1
4902551	34	C	07/17/2021	10:05	-134.910	49.424	0	712.80	0	3.6390	0	34.2310	0	27.216	0	705.513	0	17.0	4	5.3	4	-1E+10	1	-1E+10	1	-1E+10	1	-1E+10	1	-1E+10	1	-1E+10	1
4902551	34	C	07/17/2021	10:05	-134.910	49.424	0	717.80	0	3.6290	0	34.2340	0	27.219	0	710.453	0	16.8	4	5.3	4	-1E+10	1	-1E+10	1	-1E+10	1	-1E+10	1	-1E+10	1	-1E+10	1
4902551	34	C	07/17/2021	10:05	-134.910	49.424	0	722.80	0	3.6190	0	34.2370	0	27.223	0	715.393	0	16.7	4	5.2	4	-1E+10	1	-1E+10	1	-1E+10	1	-1E+10	1	-1E+10	1	-1E+10	1
4902551	34	C	07/17/2021	10:05	-134.910	49.424	0	728.00	0	3.6110	0	34.2400	0	27.226	0	720.531	0	16.5	4	5.2	4	-1E+10	1	-1E+10	1	-1E+10	1	-1E+10	1	-1E+10	1	-1E+10	1
4902551	34	C	07/17/2021	10:05	-134.910	49.424	0	732.80	0	3.6030	0	34.2420	0	27.228	0	725.274	0	16.4	4	5.1	4	-1E+10	1	-1E+10	1	-1E+10	1	-1E+10	1	-1E+10	1	-1E+10	1
4902551	34	C	07/17/2021	10:05	-134.910	49.424	0	737.60	0	3.5930	0	34.2450	0	27.232	0	730.016	0	16.3	4	5.1	4	-1E+10	1	-1E+10	1	-1E+10	1	-1E+10	1	-1E+10	1	-1E+10	1
4902551	34	C	07/17/2021	10:05	-134.910	49.424	0	742.90	0	3.5810	0	34.2470	0	27.234	0	735.252	0	16.2	4	5.1	4	-1E+10	1	-1E+10	1	-1E+10	1	-1E+10	1	-1E+10	1	-1E+10	1
4902551	34	C	07/17/2021	10:05	-134.910	49.424	0	748.40	0	3.5720	0	34.2500	0	27.238	0	740.686	0	16.0	4	5.0	4	-1E+10	1	-1E+10	1	-1E+10	1	-1E+10	1	-1E+10	1	-1E+10	1
4902551	34	C	07/17/2021	10:05	-134.910	49.424	0	753.40	0	3.5580	0	34.2520	0	27.241	0	745.625	0	15.9	4	5.0	4	-1E+10	1	-1E+10	1	-1E+10	1	-1E+10	1	-1E+10	1	-1E+10	1
4902551	34	C	07/17/2021	10:05	-134.910	49.424	0	758.40	0	3.5420	0	34.2560	0	27.245	0	750.565	0	15.7	4	4.9	4	-1E+10	1	-1E+10	1	-1E+10	1	-1E+10	1	-1E+10	1	-1E+10	1
4902551	34	C	07/17/2021	10:05	-134.910	49.424	0	763.00	0	3.5260	0	34.2590	0	27.249	0	755.109	0	15.6	4	4.9	4	-1E+10	1	-1E+10	1	-1E+10	1	-1E+10	1	-1E+10	1	-1E+10	1
4902551	34	C	07/17/2021	10:05	-134.910	49.424	0	767.60	0	3.5100	0	34.2620	0	27.253	0	759.653	0	15.5	4	4.8	4	-1E+10	1	-1E+10	1	-1E+10	1	-1E+10	1	-1E+10	1	-1E+10	1
4902551	34	C	07/17/2021	10:05	-134.910	49.424	0	772.70	0	3.5000	0	34.2650	0	27.257	0	764.691	0	15.4	4	4.8	4	-1E+10	1	-1E+10	1	-1E+10	1	-1E+10	1	-1E+10	1	-1E+10	1
4902551	34	C	07/17/2021	10:05	-134.910	49.424	0	777.90	0	3.4860	0	34.2680	0	27.260	0	769.827	0	15.3	4	4.8	4	-1E+10	1	-1E+10	1	-1E+10	1	-1E+10	1	-1E+10	1	-1E+10	1
4902551	34	C	07/17/2021	10:05	-134.910	49.424	0	783.20	0	3.4710	0	34.2710	0	27.264	0	775.062	0	15.2	4	4.7	4	-1E+10	1	-1E+10	1	-1E+10	1	-1E+10	1	-1E+10	1	-1E+10	1
4902551	34	C	07/17/2021	10:05	-134.910	49.424	0	788.10	0	3.4630	0	34.2730	0	27.267	0	779.902	0	15.1	4	4.7	4	-1E+10	1	-1E+10	1	-1E+10	1	-1E+10	1	-1E+10	1	-1E+10	1
4902551	34	C	07/17/2021	10:05	-134.910	49.424	0	792.90	0	3.4560	0	34.2750	0	27.269	0	784.644	0	15.0	4	4.7	4	-1E+10	1	-1E+10	1	-1E+10	1	-1E+10	1	-1E+10	1	-1E+10	1
4902551	34	C	07/17/2021	10:05	-134.910	49.424	0	797.80	0	3.4480	0	34.2770	0	27.271	0	789.483	0	14.9	4	4.7	4	-1E+10	1	-1E+10	1	-1E+10	1	-1E+10	1	-1E+10	1	-1E+10	1
4902551	34	C	07/17/2021	10:05	-134.910	49.424	0	802.70	0	3.4400	0	34.2780	0	27.273	0	794.323	0	14.9	4	4.6	4	-1E+10	1	-1E+10	1	-1E+10	1	-1E+10	1	-1E+10	1	-1E+10	1
4902551	34	C	07/17/2021	10:05	-134.910	49.424	0	808.10	0	3.4250	0	34.2810	0	27.277	0	799.656	0	14.8	4	4.6	4	-1E+10	1	-1E+10	1	-1E+10	1	-1E+10	1	-1E+10	1	-1E+10	1
4902551	34	C	07/17/2021	10:05	-134.910	49.424	0	812.90	0	3.4170	0	34.2840	0	27.280	0	804.397	0	14.7	4	4.6	4	-1E+10	1	-1E+10	1	-1E+10	1	-1E+10	1	-1E+10	1	-1E+10	1
4902551	34	C	07/17/2021	10:05	-134.910	49.424	0	817.90	0	3.4060	0	34.2860	0	27.283	0	809.335	0	14.6	4	4.5	4	-1E+10	1	-1E+10	1	-1E+10	1	-1E+10	1	-1E+10	1	-1E+10	1
4902551	34	C	07/17/2021	10:05	-134.910	49.424	0	822.70	0	3.3980	0	34.2870	0	27.284	0	814.075	0	14.5	4	4.5	4	-1E+10	1	-1E+10	1	-1E+10	1	-1E+10	1	-1E+10	1	-1E+10	1
4902551	34	C	07/17/2021	10:05	-134.910	49.424	0	827.60	0	3.3870	0	34.2900	0	27.288	0	818.914	0	14.4	4	4.5	4	-1E+10	1	-1E+10	1	-1E+10	1	-1E+10	1	-1E+10	1	-1E+10	1
4902551	34	C	07/17/2021	10:05	-134.910	49.424	0	833.10	0	3.3770	0	34.2920	0	27.290	0	824.346	0	14.3	4	4.5	4	-1E+10	1	-1E+10	1	-1E+10	1	-1E+10	1	-1E+10	1	-1E+10	1
4902551	34	C	07/17/2021	10:05	-134.910	49.424	0	837.90	0	3.3590	0	34.2960	0	27.295	0	829.086	0	14.2	4	4.4	4	-1E+10	1	-1E+10	1	-1E+10	1	-1E+10	1	-1E+10	1	-1E+10	1
4902551	34	C	07/17/2021	10:05	-134.910	49.424	0	842.80	0	3.3500	0	34.2990	0	27.299	0	833.924	0	14.1	4	4.4	4	-1E+10	1	-1E+10	1	-1E+10	1	-1E+10	1	-1E+10	1	-1E+10	1
4902551	34	C	07/17/2021	10:05	-134.910	49.424	0	848.20	0	3.3300	0	34.3030	0	27.304	0	839.257	0	14.0	4	4.4	4	-1E+10	1	-1E+10	1	-1E+10	1	-1E+10	1	-1E+10	1	-1E+10	1
4902551	34	C	07/17/2021	10:05	-134.910	49.424	0	853.10	0	3.3150	0	34.3060	0	27.307	0	844.095	0	13.9	4	4.3	4	-1E+10	1	-1E+10	1	-1E+10	1	-1E+10	1	-1E+10	1	-1E+10	1
4902551	34	C	07/17/2021	10:05	-134.910	49.424	0	857.90	0	3.3100	0	34.3070	0	27.309	0	848.835	0	13.8	4	4.3	4	-1E+10	1	-1E+10	1	-1E+10	1	-1E+10	1	-1E+10	1	-1E+10	1
4902551	34	C	07/17/2021	10:05	-134.910	49.424	0	862.70	0	3.3010	0	34.3100	0	27.312	0	853.574	0	13.8	4	4.3	4	-1E+10	1	-1E+10	1	-1E+10	1	-1E+10	1	-1E+10	1	-1E+10	1
4902551	34	C	07/17/2021	10:05	-134.910	49.424	0	867.60	0	3.2840	0	34.3140	0	27.317	0	858.412	0	13.7	4	4.3	4	-1E+10	1	-1E+10	1	-1E+10	1	-1E+10	1	-1E+10	1	-1E+10	1
4902551	34	C	07/17/2021	10:05	-134.910	49.424	0	872.80	0	3.2630	0	34.3180	0	27.322	0	863.546	0	13.7	4	4.2	4	-1E+10	1	-1E+10	1	-1E+10	1	-1E+10	1	-1E+10	1	-1E+10	1
4902551	34	C	07/17/2021	10:05	-134.910	49.424	0	877.90	0	3.2400	0	34.3220	0	27.327	0	868.582	0	13.6	4	4.2	4	-1E+10	1	-1E+10	1	-1E+10	1	-1E+10	1	-1E+10	1	-1E+10	1
4902551	34	C	07/17/2021	10:05	-134.910	49.424	0	883.30	0	3.2230	0	34.3250	0	27.331	0	873.913	0	13.6	4	4.2	4	-1E+10	1	-1E+10	1	-1E+10	1	-1E+10	1	-1E+10	1	-1E+10	1
4902551	34	C	07/17/2021	10:05	-134.910	49.424	0	888.30	0	3.2140	0	34.3270	0	27.334	0	878.850	0	13.5	4	4.2	4	-1E+10	1	-1E+10	1	-1E+10	1	-1E+10	1	-1E+10	1	-1E+10	1
4902551	34	C	07/17/2021	10:05	-134.910	49.424	0	892.90	0	3.1970	0	34.3310	0	27.339	0	883.391	0	13.5	4	4.2	4	-1E+10	1	-1E+10	1	-1E+10	1	-1E+10	1	-1E+10	1	-1E+10	1
4902551	34	C	07/17/2021	10:05	-134.910	49.424	0	897.60	0	3.1870	0	34.3330	0	27.341	0	888.031	0	13.4	4	4.2	4	-1E+10	1	-1E+10	1	-1E+10	1	-1E+10	1	-1E+10	1	-1E+10	1
4902551	34	C	07/17/2021	10:05	-134.910	49.424	0	902.80	0	3.1790	0	34.3350	0	27.344	0	893.164	0	13.4	4	4.1	4	-1E+10	1	-1E+10	1	-1E+10	1	-1E+10	1	-1E+10	1	-1E+10	1
4902551	34	C	07/17/2021	10:05	-134.910	49.424	0	908.10	0	3.1710	0	34.3370	0	27.346	0	898.396	0	13.3	4	4.1	4	-1E+10	1	-1E+10	1	-1E+10	1	-1E+10	1	-1E+10	1	-1E+10	1
4902551	34	C	07/17/2021	10:05	-134.910	49.424	0	913.10	0	3.1660	0	34.3380	0	27.347	0	903.332	0	13.3	4	4.1	4	-1E+10	1	-1E+10	1	-1E+10	1	-1E+10	1	-1E+10	1	-1E+10	1
4902551	34	C	07/17/2021	10:05	-134.910	49.424	0	917.80	0	3.1620	0	34.3400	0	27.349	0	907.972	0	13.2	4	4.1	4	-1E+10	1	-1E+10	1	-1E+10	1	-1E+10	1	-1E+10	1	-1E+10	1
4902551	34	C	07/17/2021	10:05	-134.910	49.424	0	923.00	0	3.1530	0	34.3420	0	27.352	0	913.105	0	13.2	4	4.1	4	-1E+10	1	-1E+10	1	-1E+10	1	-1E+10	1	-1E+10	1	-1E+10	1
4902551	34	C	07/17/2021	10:05	-134.910	49.424	0	928.30	0	3.1450	0	34.3450	0	27.355	0	918.336	0	13.1	4	4.1	4	-1E+10	1	-1E+10	1	-1E+10	1	-1E+10	1	-1E+10	1	-1E+10	1
4902551	34	C	07/17/2021	10:05	-134.910	49.424	0	933.20	0	3.1310	0	34.3470	0	27.358	0	923.173	0	13.1	4	4.1	4	-1E+10	1	-1E+10	1	-1E+10	1	-1E+10	1	-1E+10	1	-1E+10	1
4902551	34	C	07/17/2021	10:05	-134.910	49.424	0	938.20	0	3.1220	0	34.3490	0	27.360	0	928.108	0	13.1	4	4.1	4	-1E+10	1	-1E+10	1	-1E+10	1	-1E+10	1	-1E+10	1	-1E+10	1
4902551	34	C	07/17/2021	10:05	-134.910	49.424	0	943.20	0	3.1170	0	34.3510	0	27.362	0	933.043	0	13.1	4	4.0	4	-1E+10	1	-1E+10	1	-1E+10	1	-1E+10	1	-1E+10	1	-1E+10	1
4902551	34	C	07/17/2021	10:05	-134.910	49.424	0	948.30	0	3.1110	0	34.3520	0	27.364	0	938.077	0	13.1	4	4.0	4	-1E+10	1	-1E+10	1	-1E+10	1	-1E+10	1	-1E+10	1	-1E+10	1
4902551	34	C	07/17/2021	10:05	-134.910	49.424	0	952.90	0	3.1080	0	34.3530	0	27.365	0	942.617	0	13.0	4	4.0	4	-1E+10	1	-1E+10	1	-1E+10	1	-1E+10	1	-1E+10	1	-1E+10	1
4902551	34	C	07/17/2021	10:05	-134.910	49.424	0	957.60	0	3.1080	0	34.3530	0	27.365	0	947.256	0	13.0	4	4.0	4	-1E+10	1	-1E+10	1	-1E+10	1	-1E+10	1	-1E+10	1	-1E+10	1
4902551	34	C	07/17/2021	10:05	-134.910	49.424	0	962.70	0	3.0990	0	34.3540	0	27.366	0	952.289	0	12.9	4	4.0	4	-1E+10	1	-1E+10	1	-1E+10	1	-1E+10	1	-1E+10	1	-1E+10	1
4902551	34	C	07/17/2021	10:05	-134.910	49.424	0	968.00	0	3.0870	0	34.3570	0	27.370	0	957.519	0	12.9	4	4.0	4	-1E+10	1	-1E+10	1	-1E+10	1	-1E+10	1	-1E+10	1	-1E+10	1
4902551	34	C	07/17/2021	10:05	-134.910	49.424	0	972.90	0	3.0780	0	34.3590	0	27.372	0	962.355	0	12.8	4	4.0	4	-1E+10	1	-1E+10	1	-1E+10	1	-1E+10	1	-1E+10	1	-1E+10	1
4902551	34	C	07/17/2021	10:05	-134.910	49.424	0	977.70	0	3.0720	0	34.3610	0	27.375	0	967.092	0	12.7	4	3.9	4	-1E+10	1	-1E+10	1	-1E+10	1	-1E+10	1	-1E+10	1	-1E+10	1
4902551	34	C	07/17/2021	10:05	-134.910	49.424	0	983.10	0	3.0590	0	34.3640	0	27.378	0	972.421	0	12.7	4	3.9	4	-1E+10	1	-1E+10	1	-1E+10	1	-1E+10	1	-1E+10	1	-1E+10	1
4902551	34	C	07/17/2021	10:05	-134.910	49.424	0	988.00	0	3.0550	0	34.3650	0	27.379	0	977.256	0	12.6	4	3.9	4	-1E+10	1	-1E+10	1	-1E+10	1	-1E+10	1	-1E+10	1	-1E+10	1
4902551	34	C	07/17/2021	10:05	-134.910	49.424	0	992.90	0	3.0510	0	34.3670	0	27.381	0	982.092	0	12.6	4	3.9	4	-1E+10	1	-1E+10	1	-1E+10	1	-1E+10	1	-1E+10	1	-1E+10	1
4902551	34	C	07/17/2021	10:05	-134.910	49.424	0	997.80	0	3.0490	0	34.3680	0	27.382	0	986.927	0	12.5	4	3.9	4	-1E+10	1	-1E+10	1	-1E+10	1	-1E+10	1	-1E+10	1	-1E+10	1
4902551	34	C	07/17/2021	10:05	-134.910	49.424	0	1005.00	0	3.0450	0	34.3690	0	27.384	0	994.031	0	12.5	4	3.9	4	-1E+10	1	-1E+10	1	-1E+10	1	-1E+10	1	-1E+10	1	-1E+10	1
4902551	34	C	07/17/2021	10:05	-134.910	49.424	0	1015.30	0	3.0350	0	34.3720	0	27.387	0	1004.194	0	12.5	4	3.9	4	-1E+10	1	-1E+10	1	-1E+10	1	-1E+10	1	-1E+10	1	-1E+10	1
4902551	34	C	07/17/2021	10:05	-134.910	49.424	0	1025.60	0	3.0260	0	34.3740	0	27.389	0	1014.356	0	12.4	4	3.8	4	-1E+10	1	-1E+10	1	-1E+10	1	-1E+10	1	-1E+10	1	-1E+10	1
4902551	34	C	07/17/2021	10:05	-134.910	49.424	0	1035.30	0	3.0140	0	34.3780	0	27.394	0	1023.926	0	12.4	4	3.8	4	-1E+10	1	-1E+10	1	-1E+10	1	-1E+10	1	-1E+10	1	-1E+10	1
4902551	34	C	07/17/2021	10:05	-134.910	49.424	0	1045.30	0	2.9930	0	34.3830	0	27.400	0	1033.792	0	12.5	4	3.8	4	-1E+10	1	-1E+10	1	-1E+10	1	-1E+10	1	-1E+10	1	-1E+10	1
4902551	34	C	07/17/2021	10:05	-134.910	49.424	0	1055.40	0	2.9670	0	34.3860	0	27.404	0	1043.756	0	12.5	4	3.9	4	-1E+10	1	-1E+10	1	-1E+10	1	-1E+10	1	-1E+10	1	-1E+10	1
4902551	34	C	07/17/2021	10:05	-134.910	49.424	0	1065.60	0	2.9440	0	34.3920	0	27.411	0	1053.817	0	12.5	4	3.8	4	-1E+10	1	-1E+10	1	-1E+10	1	-1E+10	1	-1E+10	1	-1E+10	1
4902551	34	C	07/17/2021	10:05	-134.910	49.424	0	1075.90	0	2.9330	0	34.3950	0	27.415	0	1063.978	0	12.5	4	3.9	4	-1E+10	1	-1E+10	1	-1E+10	1	-1E+10	1	-1E+10	1	-1E+10	1
4902551	34	C	07/17/2021	10:05	-134.910	49.424	0	1085.40	0	2.9210	0	34.3970	0	27.418	0	1073.348	0	12.5	4	3.9	4	-1E+10	1	-1E+10	1	-1E+10	1	-1E+10	1	-1E+10	1	-1E+10	1
4902551	34	C	07/17/2021	10:05	-134.910	49.424	0	1095.40	0	2.9090	0	34.4010	0	27.422	0	1083.211	0	12.6	4	3.9	4	-1E+10	1	-1E+10	1	-1E+10	1	-1E+10	1	-1E+10	1	-1E+10	1
4902551	34	C	07/17/2021	10:05	-134.910	49.424	0	1105.50	0	2.8900	0	34.4050	0	27.427	0	1093.172	0	12.7	4	3.9	4	-1E+10	1	-1E+10	1	-1E+10	1	-1E+10	1	-1E+10	1	-1E+10	1
4902551	34	C	07/17/2021	10:05	-134.910	49.424	0	1115.50	0	2.8750	0	34.4090	0	27.431	0	1103.035	0	12.7	4	3.9	4	-1E+10	1	-1E+10	1	-1E+10	1	-1E+10	1	-1E+10	1	-1E+10	1
4902551	34	C	07/17/2021	10:05	-134.910	49.424	0	1125.40	0	2.8620	0	34.4110	0	27.434	0	1112.798	0	12.8	4	3.9	4	-1E+10	1	-1E+10	1	-1E+10	1	-1E+10	1	-1E+10	1	-1E+10	1
4902551	34	C	07/17/2021	10:05	-134.910	49.424	0	1135.20	0	2.8450	0	34.4150	0	27.439	0	1122.462	0	12.9	4	4.0	4	-1E+10	1	-1E+10	1	-1E+10	1	-1E+10	1	-1E+10	1	-1E+10	1
4902551	34	C	07/17/2021	10:05	-134.910	49.424	0	1145.20	0	2.8390	0	34.4160	0	27.440	0	1132.323	0	13.0	4	4.0	4	-1E+10	1	-1E+10	1	-1E+10	1	-1E+10	1	-1E+10	1	-1E+10	1
4902551	34	C	07/17/2021	10:05	-134.910	49.424	0	1155.30	0	2.8320	0	34.4180	0	27.443	0	1142.282	0	13.0	4	4.0	4	-1E+10	1	-1E+10	1	-1E+10	1	-1E+10	1	-1E+10	1	-1E+10	1
4902551	34	C	07/17/2021	10:05	-134.910	49.424	0	1165.40	0	2.8190	0	34.4210	0	27.446	0	1152.240	0	13.2	4	4.0	4	-1E+10	1	-1E+10	1	-1E+10	1	-1E+10	1	-1E+10	1	-1E+10	1
4902551	34	C	07/17/2021	10:05	-134.910	49.424	0	1175.20	0	2.8040	0	34.4230	0	27.449	0	1161.902	0	13.3	4	4.1	4	-1E+10	1	-1E+10	1	-1E+10	1	-1E+10	1	-1E+10	1	-1E+10	1
4902551	34	C	07/17/2021	10:05	-134.910	49.424	0	1185.50	0	2.7870	0	34.4270	0	27.454	0	1172.057	0	13.5	4	4.1	4	-1E+10	1	-1E+10	1	-1E+10	1	-1E+10	1	-1E+10	1	-1E+10	1
4902551	34	C	07/17/2021	10:05	-134.910	49.424	0	1195.50	0	2.7720	0	34.4300	0	27.458	0	1181.916	0	13.6	4	4.2	4	-1E+10	1	-1E+10	1	-1E+10	1	-1E+10	1	-1E+10	1	-1E+10	1
4902551	34	C	07/17/2021	10:05	-134.910	49.424	0	1205.70	0	2.7550	0	34.4320	0	27.461	0	1191.971	0	13.8	4	4.2	4	-1E+10	1	-1E+10	1	-1E+10	1	-1E+10	1	-1E+10	1	-1E+10	1
4902551	34	C	07/17/2021	10:05	-134.910	49.424	0	1215.50	0	2.7430	0	34.4350	0	27.464	0	1201.631	0	13.9	4	4.3	4	-1E+10	1	-1E+10	1	-1E+10	1	-1E+10	1	-1E+10	1	-1E+10	1
4902551	34	C	07/17/2021	10:05	-134.910	49.424	0	1225.10	0	2.7290	0	34.4360	0	27.466	0	1211.094	0	14.1	4	4.3	4	-1E+10	1	-1E+10	1	-1E+10	1	-1E+10	1	-1E+10	1	-1E+10	1
4902551	34	C	07/17/2021	10:05	-134.910	49.424	0	1235.40	0	2.7150	0	34.4390	0	27.470	0	1221.247	0	14.3	4	4.4	4	-1E+10	1	-1E+10	1	-1E+10	1	-1E+10	1	-1E+10	1	-1E+10	1
4902551	34	C	07/17/2021	10:05	-134.910	49.424	0	1245.80	0	2.6980	0	34.4420	0	27.474	0	1231.497	0	14.5	4	4.4	4	-1E+10	1	-1E+10	1	-1E+10	1	-1E+10	1	-1E+10	1	-1E+10	1
4902551	34	C	07/17/2021	10:05	-134.910	49.424	0	1255.80	0	2.6830	0	34.4440	0	27.477	0	1241.353	0	14.7	4	4.5	4	-1E+10	1	-1E+10	1	-1E+10	1	-1E+10	1	-1E+10	1	-1E+10	1
4902551	34	C	07/17/2021	10:05	-134.910	49.424	0	1265.70	0	2.6690	0	34.4470	0	27.481	0	1251.109	0	14.8	4	4.5	4	-1E+10	1	-1E+10	1	-1E+10	1	-1E+10	1	-1E+10	1	-1E+10	1
4902551	34	C	07/17/2021	10:05	-134.910	49.424	0	1275.40	0	2.6660	0	34.4470	0	27.481	0	1260.669	0	14.9	4	4.5	4	-1E+10	1	-1E+10	1	-1E+10	1	-1E+10	1	-1E+10	1	-1E+10	1
4902551	34	C	07/17/2021	10:05	-134.910	49.424	0	1285.10	0	2.6650	0	34.4470	0	27.481	0	1270.227	0	15.0	4	4.6	4	-1E+10	1	-1E+10	1	-1E+10	1	-1E+10	1	-1E+10	1	-1E+10	1
4902551	34	C	07/17/2021	10:05	-134.910	49.424	0	1295.20	0	2.6530	0	34.4490	0	27.484	0	1280.180	0	15.2	4	4.6	4	-1E+10	1	-1E+10	1	-1E+10	1	-1E+10	1	-1E+10	1	-1E+10	1
4902551	34	C	07/17/2021	10:05	-134.910	49.424	0	1305.30	0	2.6390	0	34.4520	0	27.487	0	1290.132	0	15.4	4	4.7	4	-1E+10	1	-1E+10	1	-1E+10	1	-1E+10	1	-1E+10	1	-1E+10	1
4902551	34	C	07/17/2021	10:05	-134.910	49.424	0	1315.30	0	2.6250	0	34.4540	0	27.490	0	1299.985	0	15.6	4	4.8	4	-1E+10	1	-1E+10	1	-1E+10	1	-1E+10	1	-1E+10	1	-1E+10	1
4902551	34	C	07/17/2021	10:05	-134.910	49.424	0	1325.20	0	2.6070	0	34.4560	0	27.493	0	1309.739	0	15.8	4	4.8	4	-1E+10	1	-1E+10	1	-1E+10	1	-1E+10	1	-1E+10	1	-1E+10	1
4902551	34	C	07/17/2021	10:05	-134.910	49.424	0	1335.30	0	2.5940	0	34.4580	0	27.496	0	1319.689	0	16.2	4	4.9	4	-1E+10	1	-1E+10	1	-1E+10	1	-1E+10	1	-1E+10	1	-1E+10	1
4902551	34	C	07/17/2021	10:05	-134.910	49.424	0	1345.60	0	2.5730	0	34.4620	0	27.501	0	1329.836	0	16.6	4	5.1	4	-1E+10	1	-1E+10	1	-1E+10	1	-1E+10	1	-1E+10	1	-1E+10	1
4902551	34	C	07/17/2021	10:05	-134.910	49.424	0	1355.40	0	2.5510	0	34.4660	0	27.506	0	1339.490	0	17.2	4	5.3	4	-1E+10	1	-1E+10	1	-1E+10	1	-1E+10	1	-1E+10	1	-1E+10	1
4902551	34	C	07/17/2021	10:05	-134.910	49.424	0	1365.30	0	2.5400	0	34.4710	0	27.511	0	1349.243	0	17.9	4	5.5	4	-1E+10	1	-1E+10	1	-1E+10	1	-1E+10	1	-1E+10	1	-1E+10	1
4902551	34	C	07/17/2021	10:05	-134.910	49.424	0	1375.30	0	2.5240	0	34.4750	0	27.516	0	1359.093	0	18.3	4	5.6	4	-1E+10	1	-1E+10	1	-1E+10	1	-1E+10	1	-1E+10	1	-1E+10	1
4902551	34	C	07/17/2021	10:05	-134.910	49.424	0	1385.20	0	2.5130	0	34.4770	0	27.519	0	1368.844	0	18.8	4	5.7	4	-1E+10	1	-1E+10	1	-1E+10	1	-1E+10	1	-1E+10	1	-1E+10	1
4902551	34	C	07/17/2021	10:05	-134.910	49.424	0	1395.60	0	2.4970	0	34.4800	0	27.522	0	1379.087	0	19.3	4	5.9	4	-1E+10	1	-1E+10	1	-1E+10	1	-1E+10	1	-1E+10	1	-1E+10	1
4902551	34	C	07/17/2021	10:05	-134.910	49.424	0	1405.40	0	2.4800	0	34.4830	0	27.526	0	1388.739	0	19.6	4	6.0	4	-1E+10	1	-1E+10	1	-1E+10	1	-1E+10	1	-1E+10	1	-1E+10	1
4902551	34	C	07/17/2021	10:05	-134.910	49.424	0	1415.40	0	2.4690	0	34.4850	0	27.529	0	1398.587	0	20.0	4	6.1	4	-1E+10	1	-1E+10	1	-1E+10	1	-1E+10	1	-1E+10	1	-1E+10	1
4902551	34	C	07/17/2021	10:05	-134.910	49.424	0	1425.50	0	2.4590	0	34.4870	0	27.531	0	1408.534	0	20.4	4	6.2	4	-1E+10	1	-1E+10	1	-1E+10	1	-1E+10	1	-1E+10	1	-1E+10	1
4902551	34	C	07/17/2021	10:05	-134.910	49.424	0	1435.40	0	2.4450	0	34.4890	0	27.534	0	1418.283	0	20.9	4	6.4	4	-1E+10	1	-1E+10	1	-1E+10	1	-1E+10	1	-1E+10	1	-1E+10	1
4902551	34	C	07/17/2021	10:05	-134.910	49.424	0	1445.50	0	2.4320	0	34.4910	0	27.537	0	1428.228	0	21.2	4	6.5	4	-1E+10	1	-1E+10	1	-1E+10	1	-1E+10	1	-1E+10	1	-1E+10	1
4902551	34	C	07/17/2021	10:05	-134.910	49.424	0	1455.30	0	2.4250	0	34.4930	0	27.539	0	1437.878	0	21.6	4	6.6	4	-1E+10	1	-1E+10	1	-1E+10	1	-1E+10	1	-1E+10	1	-1E+10	1
4902551	34	C	07/17/2021	10:05	-134.910	49.424	0	1465.10	0	2.4150	0	34.4940	0	27.541	0	1447.527	0	22.2	4	6.8	4	-1E+10	1	-1E+10	1	-1E+10	1	-1E+10	1	-1E+10	1	-1E+10	1
4902551	34	C	07/17/2021	10:05	-134.910	49.424	0	1475.50	0	2.3970	0	34.4980	0	27.545	0	1457.766	0	22.9	4	7.0	4	-1E+10	1	-1E+10	1	-1E+10	1	-1E+10	1	-1E+10	1	-1E+10	1
4902551	34	C	07/17/2021	10:05	-134.910	49.424	0	1485.50	0	2.3870	0	34.5000	0	27.548	0	1467.611	0	23.3	4	7.1	4	-1E+10	1	-1E+10	1	-1E+10	1	-1E+10	1	-1E+10	1	-1E+10	1
4902551	34	C	07/17/2021	10:05	-134.910	49.424	0	1495.30	0	2.3780	0	34.5020	0	27.550	0	1477.259	0	23.7	4	7.2	4	-1E+10	1	-1E+10	1	-1E+10	1	-1E+10	1	-1E+10	1	-1E+10	1
4902551	34	C	07/17/2021	10:05	-134.910	49.424	0	1505.30	0	2.3670	0	34.5040	0	27.553	0	1487.103	0	24.1	4	7.3	4	-1E+10	1	-1E+10	1	-1E+10	1	-1E+10	1	-1E+10	1	-1E+10	1
4902551	34	C	07/17/2021	10:05	-134.910	49.424	0	1515.40	0	2.3580	0	34.5050	0	27.554	0	1497.045	0	24.6	4	7.5	4	-1E+10	1	-1E+10	1	-1E+10	1	-1E+10	1	-1E+10	1	-1E+10	1
4902551	34	C	07/17/2021	10:05	-134.910	49.424	0	1525.20	0	2.3440	0	34.5070	0	27.557	0	1506.692	0	25.3	4	7.7	4	-1E+10	1	-1E+10	1	-1E+10	1	-1E+10	1	-1E+10	1	-1E+10	1
4902551	34	C	07/17/2021	10:05	-134.910	49.424	0	1535.20	0	2.3250	0	34.5110	0	27.562	0	1516.534	0	26.0	4	7.9	4	-1E+10	1	-1E+10	1	-1E+10	1	-1E+10	1	-1E+10	1	-1E+10	1
4902551	34	C	07/17/2021	10:05	-134.910	49.424	0	1545.40	0	2.3090	0	34.5140	0	27.566	0	1526.574	0	26.8	4	8.1	4	-1E+10	1	-1E+10	1	-1E+10	1	-1E+10	1	-1E+10	1	-1E+10	1
4902551	34	C	07/17/2021	10:05	-134.910	49.424	0	1555.30	0	2.2960	0	34.5160	0	27.569	0	1536.317	0	27.3	4	8.3	4	-1E+10	1	-1E+10	1	-1E+10	1	-1E+10	1	-1E+10	1	-1E+10	1
4902551	34	C	07/17/2021	10:05	-134.910	49.424	0	1565.50	0	2.2850	0	34.5180	0	27.571	0	1546.355	0	27.9	4	8.5	4	-1E+10	1	-1E+10	1	-1E+10	1	-1E+10	1	-1E+10	1	-1E+10	1
4902551	34	C	07/17/2021	10:05	-134.910	49.424	0	1575.50	0	2.2740	0	34.5200	0	27.574	0	1556.196	0	28.5	4	8.7	4	-1E+10	1	-1E+10	1	-1E+10	1	-1E+10	1	-1E+10	1	-1E+10	1
4902551	34	C	07/17/2021	10:05	-134.910	49.424	0	1585.10	0	2.2620	0	34.5220	0	27.576	0	1565.643	0	29.1	4	8.8	4	-1E+10	1	-1E+10	1	-1E+10	1	-1E+10	1	-1E+10	1	-1E+10	1
4902551	34	C	07/17/2021	10:05	-134.910	49.424	0	1595.00	0	2.2510	0	34.5240	0	27.579	0	1575.385	0	29.8	4	9.0	4	-1E+10	1	-1E+10	1	-1E+10	1	-1E+10	1	-1E+10	1	-1E+10	1
4902551	34	C	07/17/2021	10:05	-134.910	49.424	0	1604.90	0	2.2380	0	34.5260	0	27.582	0	1585.126	0	30.4	4	9.2	4	-1E+10	1	-1E+10	1	-1E+10	1	-1E+10	1	-1E+10	1	-1E+10	1
4902551	34	C	07/17/2021	10:05	-134.910	49.424	0	1615.10	0	2.2250	0	34.5280	0	27.584	0	1595.162	0	31.1	4	9.4	4	-1E+10	1	-1E+10	1	-1E+10	1	-1E+10	1	-1E+10	1	-1E+10	1
4902551	34	C	07/17/2021	10:05	-134.910	49.424	0	1625.10	0	2.2180	0	34.5300	0	27.586	0	1605.001	0	31.5	4	9.6	4	-1E+10	1	-1E+10	1	-1E+10	1	-1E+10	1	-1E+10	1	-1E+10	1
4902551	34	C	07/17/2021	10:05	-134.910	49.424	0	1635.30	0	2.2090	0	34.5320	0	27.589	0	1615.036	0	32.3	4	9.8	4	-1E+10	1	-1E+10	1	-1E+10	1	-1E+10	1	-1E+10	1	-1E+10	1
4902551	34	C	07/17/2021	10:05	-134.910	49.424	0	1645.70	0	2.1980	0	34.5330	0	27.591	0	1625.267	0	33.2	4	10.0	4	-1E+10	1	-1E+10	1	-1E+10	1	-1E+10	1	-1E+10	1	-1E+10	1
4902551	34	C	07/17/2021	10:05	-134.910	49.424	0	1655.20	0	2.1790	0	34.5370	0	27.595	0	1634.612	0	34.2	4	10.3	4	-1E+10	1	-1E+10	1	-1E+10	1	-1E+10	1	-1E+10	1	-1E+10	1
4902551	34	C	07/17/2021	10:05	-134.910	49.424	0	1665.20	0	2.1630	0	34.5400	0	27.599	0	1644.449	0	34.9	4	10.6	4	-1E+10	1	-1E+10	1	-1E+10	1	-1E+10	1	-1E+10	1	-1E+10	1
4902551	34	C	07/17/2021	10:05	-134.910	49.424	0	1675.40	0	2.1530	0	34.5420	0	27.602	0	1654.482	0	35.6	4	10.8	4	-1E+10	1	-1E+10	1	-1E+10	1	-1E+10	1	-1E+10	1	-1E+10	1
4902551	34	C	07/17/2021	10:05	-134.910	49.424	0	1685.40	0	2.1460	0	34.5430	0	27.603	0	1664.318	0	36.2	4	11.0	4	-1E+10	1	-1E+10	1	-1E+10	1	-1E+10	1	-1E+10	1	-1E+10	1
4902551	34	C	07/17/2021	10:05	-134.910	49.424	0	1695.20	0	2.1340	0	34.5450	0	27.606	0	1673.957	0	36.9	4	11.2	4	-1E+10	1	-1E+10	1	-1E+10	1	-1E+10	1	-1E+10	1	-1E+10	1
4902551	34	C	07/17/2021	10:05	-134.910	49.424	0	1705.20	0	2.1270	0	34.5460	0	27.607	0	1683.792	0	37.6	4	11.4	4	-1E+10	1	-1E+10	1	-1E+10	1	-1E+10	1	-1E+10	1	-1E+10	1
4902551	34	C	07/17/2021	10:05	-134.910	49.424	0	1715.20	0	2.1150	0	34.5490	0	27.610	0	1693.626	0	38.2	4	11.6	4	-1E+10	1	-1E+10	1	-1E+10	1	-1E+10	1	-1E+10	1	-1E+10	1
4902551	34	C	07/17/2021	10:05	-134.910	49.424	0	1725.40	0	2.1090	0	34.5500	0	27.612	0	1703.657	0	38.8	4	11.7	4	-1E+10	1	-1E+10	1	-1E+10	1	-1E+10	1	-1E+10	1	-1E+10	1
4902551	34	C	07/17/2021	10:05	-134.910	49.424	0	1735.40	0	2.1010	0	34.5520	0	27.614	0	1713.491	0	39.4	4	11.9	4	-1E+10	1	-1E+10	1	-1E+10	1	-1E+10	1	-1E+10	1	-1E+10	1
4902551	34	C	07/17/2021	10:05	-134.910	49.424	0	1745.20	0	2.0920	0	34.5530	0	27.616	0	1723.127	0	40.0	4	12.1	4	-1E+10	1	-1E+10	1	-1E+10	1	-1E+10	1	-1E+10	1	-1E+10	1
4902551	34	C	07/17/2021	10:05	-134.910	49.424	0	1755.10	0	2.0840	0	34.5550	0	27.618	0	1732.862	0	40.7	4	12.3	4	-1E+10	1	-1E+10	1	-1E+10	1	-1E+10	1	-1E+10	1	-1E+10	1
4902551	34	C	07/17/2021	10:05	-134.910	49.424	0	1765.30	0	2.0760	0	34.5560	0	27.619	0	1742.891	0	41.3	4	12.5	4	-1E+10	1	-1E+10	1	-1E+10	1	-1E+10	1	-1E+10	1	-1E+10	1
4902551	34	C	07/17/2021	10:05	-134.910	49.424	0	1775.20	0	2.0670	0	34.5580	0	27.622	0	1752.624	0	41.9	4	12.7	4	-1E+10	1	-1E+10	1	-1E+10	1	-1E+10	1	-1E+10	1	-1E+10	1
4902551	34	C	07/17/2021	10:05	-134.910	49.424	0	1785.30	0	2.0610	0	34.5590	0	27.623	0	1762.554	0	42.5	4	12.8	4	-1E+10	1	-1E+10	1	-1E+10	1	-1E+10	1	-1E+10	1	-1E+10	1
4902551	34	C	07/17/2021	10:05	-134.910	49.424	0	1795.40	0	2.0510	0	34.5610	0	27.625	0	1772.483	0	43.2	4	13.0	4	-1E+10	1	-1E+10	1	-1E+10	1	-1E+10	1	-1E+10	1	-1E+10	1
4902551	34	C	07/17/2021	10:05	-134.910	49.424	0	1805.70	0	2.0430	0	34.5630	0	27.628	0	1782.608	0	43.7	4	13.2	4	-1E+10	1	-1E+10	1	-1E+10	1	-1E+10	1	-1E+10	1	-1E+10	1
4902551	34	C	07/17/2021	10:05	-134.910	49.424	0	1815.40	0	2.0400	0	34.5630	0	27.628	0	1792.144	0	44.3	4	13.4	4	-1E+10	1	-1E+10	1	-1E+10	1	-1E+10	1	-1E+10	1	-1E+10	1
4902551	34	C	07/17/2021	10:05	-134.910	49.424	0	1825.20	0	2.0290	0	34.5650	0	27.631	0	1801.776	0	44.9	4	13.6	4	-1E+10	1	-1E+10	1	-1E+10	1	-1E+10	1	-1E+10	1	-1E+10	1
4902551	34	C	07/17/2021	10:05	-134.910	49.424	0	1835.20	0	2.0250	0	34.5660	0	27.632	0	1811.605	0	45.3	4	13.7	4	-1E+10	1	-1E+10	1	-1E+10	1	-1E+10	1	-1E+10	1	-1E+10	1
4902551	34	C	07/17/2021	10:05	-134.910	49.424	0	1845.40	0	2.0220	0	34.5670	0	27.633	0	1821.631	0	45.9	4	13.8	4	-1E+10	1	-1E+10	1	-1E+10	1	-1E+10	1	-1E+10	1	-1E+10	1
4902551	34	C	07/17/2021	10:05	-134.910	49.424	0	1855.30	0	2.0150	0	34.5690	0	27.635	0	1831.361	0	46.4	4	14.0	4	-1E+10	1	-1E+10	1	-1E+10	1	-1E+10	1	-1E+10	1	-1E+10	1
4902551	34	C	07/17/2021	10:05	-134.910	49.424	0	1865.30	0	2.0100	0	34.5690	0	27.635	0	1841.188	0	46.9	4	14.2	4	-1E+10	1	-1E+10	1	-1E+10	1	-1E+10	1	-1E+10	1	-1E+10	1
4902551	34	C	07/17/2021	10:05	-134.910	49.424	0	1875.50	0	2.0050	0	34.5710	0	27.637	0	1851.212	0	47.4	4	14.3	4	-1E+10	1	-1E+10	1	-1E+10	1	-1E+10	1	-1E+10	1	-1E+10	1
4902551	34	C	07/17/2021	10:05	-134.910	49.424	0	1885.30	0	2.0000	0	34.5720	0	27.639	0	1860.842	0	47.8	4	14.4	4	-1E+10	1	-1E+10	1	-1E+10	1	-1E+10	1	-1E+10	1	-1E+10	1
4902551	34	C	07/17/2021	10:05	-134.910	49.424	0	1895.20	0	1.9960	0	34.5730	0	27.640	0	1870.570	0	48.2	4	14.5	4	-1E+10	1	-1E+10	1	-1E+10	1	-1E+10	1	-1E+10	1	-1E+10	1
4902551	34	C	07/17/2021	10:05	-134.910	49.424	0	1905.20	0	1.9890	0	34.5740	0	27.641	0	1880.396	0	48.9	4	14.7	4	-1E+10	1	-1E+10	1	-1E+10	1	-1E+10	1	-1E+10	1	-1E+10	1
4902551	34	C	07/17/2021	10:05	-134.910	49.424	0	1915.40	0	1.9800	0	34.5760	0	27.644	0	1890.418	0	49.5	4	14.9	4	-1E+10	1	-1E+10	1	-1E+10	1	-1E+10	1	-1E+10	1	-1E+10	1
4902551	34	C	07/17/2021	10:05	-134.910	49.424	0	1925.40	0	1.9730	0	34.5770	0	27.645	0	1900.243	0	50.0	4	15.1	4	-1E+10	1	-1E+10	1	-1E+10	1	-1E+10	1	-1E+10	1	-1E+10	1
4902551	34	C	07/17/2021	10:05	-134.910	49.424	0	1935.50	0	1.9690	0	34.5780	0	27.646	0	1910.166	0	50.4	4	15.2	4	-1E+10	1	-1E+10	1	-1E+10	1	-1E+10	1	-1E+10	1	-1E+10	1
4902551	34	C	07/17/2021	10:05	-134.910	49.424	0	1945.80	0	1.9690	0	34.5780	0	27.646	0	1920.285	0	50.6	4	15.3	4	-1E+10	1	-1E+10	1	-1E+10	1	-1E+10	1	-1E+10	1	-1E+10	1
4902551	34	C	07/17/2021	10:05	-134.910	49.424	0	1955.60	0	1.9640	0	34.5790	0	27.648	0	1929.912	0	51.2	4	15.4	4	-1E+10	1	-1E+10	1	-1E+10	1	-1E+10	1	-1E+10	1	-1E+10	1
4902551	34	C	07/17/2021	10:05	-134.910	49.424	0	1965.40	0	1.9580	0	34.5810	0	27.650	0	1939.538	0	51.7	4	15.6	4	-1E+10	1	-1E+10	1	-1E+10	1	-1E+10	1	-1E+10	1	-1E+10	1
4902551	34	C	07/17/2021	10:05	-134.910	49.424	0	1975.50	0	1.9500	0	34.5820	0	27.651	0	1949.459	0	52.3	4	15.7	4	-1E+10	1	-1E+10	1	-1E+10	1	-1E+10	1	-1E+10	1	-1E+10	1
4902551	34	C	07/17/2021	10:05	-134.910	49.424	0	1985.60	0	1.9440	0	34.5830	0	27.652	0	1959.380	0	52.9	4	15.9	4	-1E+10	1	-1E+10	1	-1E+10	1	-1E+10	1	-1E+10	1	-1E+10	1
4902551	34	C	07/17/2021	10:05	-134.910	49.424	0	1995.40	0	1.9380	0	34.5840	0	27.654	0	1969.005	0	53.3	4	16.1	4	-1E+10	1	-1E+10	1	-1E+10	1	-1E+10	1	-1E+10	1	-1E+10	1
4902551	34	C	07/17/2021	10:05	-134.910	49.424	0	2005.50	0	1.9330	0	34.5850	0	27.655	0	1978.925	0	53.6	4	16.1	4	-1E+10	1	-1E+10	1	-1E+10	1	-1E+10	1	-1E+10	1	-1E+10	1
4902551	34	C	07/17/2021	10:05	-134.910	49.424	0	2015.40	0	1.9280	0	34.5870	0	27.657	0	1988.647	0	53.5	4	16.1	4	-1E+10	1	-1E+10	1	-1E+10	1	-1E+10	1	-1E+10	1	-1E+10	1
4902551	34	C	07/17/2021	10:05	-134.910	49.424	0																										
4902551	35	C	07/27/2021	15:06	-134.891	49.444	0	0.10	0	14.6950	0	32.3120	0	23.966	0	0.099	0	248.8	4	98.0	4	-1E+10	1	-1E+10	1	-1E+10	1	-1E+10	1	-1E+10	1	-1E+10	1
4902551	35	C	07/27/2021	15:06	-134.891	49.444	0	0.70	0	14.6980	0	32.3100	0	23.964	0	0.694	0	249.0	4	98.0	4	-1E+10	1	-1E+10	1	-1E+10	1	-1E+10	1	-1E+10	1	-1E+10	1
4902551	35	C	07/27/2021	15:06	-134.891	49.444	0	1.80	0	14.6990	0	32.3100	0	23.964	0	1.785	0	249.1	4	98.1	4	-1E+10	1	-1E+10	1	-1E+10	1	-1E+10	1	-1E+10	1	-1E+10	1
4902551	35	C	07/27/2021	15:06	-134.891	49.444	0	2.80	0	14.7020	0	32.3080	0	23.962	0	2.776	0	249.2	4	98.1	4	-1E+10	1	-1E+10	1	-1E+10	1	-1E+10	1	-1E+10	1	-1E+10	1
4902551	35	C	07/27/2021	15:06	-134.891	49.444	0	3.80	0	14.7030	0	32.3090	0	23.962	0	3.768	0	249.3	4	98.2	4	-1E+10	1	-1E+10	1	-1E+10	1	-1E+10	1	-1E+10	1	-1E+10	1
4902551	35	C	07/27/2021	15:06	-134.891	49.444	0	4.90	0	14.7020	0	32.3110	0	23.964	0	4.858	0	249.6	4	98.3	4	-1E+10	1	-1E+10	1	-1E+10	1	-1E+10	1	-1E+10	1	-1E+10	1
4902551	35	C	07/27/2021	15:06	-134.891	49.444	0	6.10	0	14.7070	0	32.3110	0	23.963	0	6.048	0	250.0	4	98.4	4	-1E+10	1	-1E+10	1	-1E+10	1	-1E+10	1	-1E+10	1	-1E+10	1
4902551	35	C	07/27/2021	15:06	-134.891	49.444	0	7.00	0	14.7060	0	32.3110	0	23.963	0	6.940	0	250.3	4	98.6	4	-1E+10	1	-1E+10	1	-1E+10	1	-1E+10	1	-1E+10	1	-1E+10	1
4902551	35	C	07/27/2021	15:06	-134.891	49.444	0	7.80	0	14.7050	0	32.3110	0	23.964	0	7.733	0	250.6	4	98.7	4	-1E+10	1	-1E+10	1	-1E+10	1	-1E+10	1	-1E+10	1	-1E+10	1
4902551	35	C	07/27/2021	15:06	-134.891	49.444	0	8.90	0	14.7050	0	32.3110	0	23.964	0	8.824	0	251.2	4	98.9	4	-1E+10	1	-1E+10	1	-1E+10	1	-1E+10	1	-1E+10	1	-1E+10	1
4902551	35	C	07/27/2021	15:06	-134.891	49.444	0	10.00	0	14.7020	0	32.3100	0	23.964	0	9.915	0	251.9	4	99.2	4	-1E+10	1	-1E+10	1	-1E+10	1	-1E+10	1	-1E+10	1	-1E+10	1
4902551	35	C	07/27/2021	15:06	-134.891	49.444	0	11.00	0	14.6990	0	32.3090	0	23.964	0	10.906	0	253.0	4	99.6	4	-1E+10	1	-1E+10	1	-1E+10	1	-1E+10	1	-1E+10	1	-1E+10	1
4902551	35	C	07/27/2021	15:06	-134.891	49.444	0	12.00	0	14.5680	0	32.3090	0	23.991	0	11.897	0	254.8	4	100.1	4	-1E+10	1	-1E+10	1	-1E+10	1	-1E+10	1	-1E+10	1	-1E+10	1
4902551	35	C	07/27/2021	15:06	-134.891	49.444	0	13.10	0	14.4280	0	32.3060	0	24.018	0	12.988	0	256.2	4	100.3	4	-1E+10	1	-1E+10	1	-1E+10	1	-1E+10	1	-1E+10	1	-1E+10	1
4902551	35	C	07/27/2021	15:06	-134.891	49.444	0	14.00	0	14.3430	0	32.3050	0	24.035	0	13.880	0	257.5	4	100.7	4	-1E+10	1	-1E+10	1	-1E+10	1	-1E+10	1	-1E+10	1	-1E+10	1
4902551	35	C	07/27/2021	15:06	-134.891	49.444	0	15.10	0	14.2280	0	32.3070	0	24.061	0	14.971	0	259.7	4	101.3	4	-1E+10	1	-1E+10	1	-1E+10	1	-1E+10	1	-1E+10	1	-1E+10	1
4902551	35	C	07/27/2021	15:06	-134.891	49.444	0	15.90	0	14.0780	0	32.3080	0	24.093	0	15.764	0	261.4	4	101.6	4	-1E+10	1	-1E+10	1	-1E+10	1	-1E+10	1	-1E+10	1	-1E+10	1
4902551	35	C	07/27/2021	15:06	-134.891	49.444	0	16.70	0	13.8460	0	32.3160	0	24.146	0	16.557	0	263.3	4	101.9	4	-1E+10	1	-1E+10	1	-1E+10	1	-1E+10	1	-1E+10	1	-1E+10	1
4902551	35	C	07/27/2021	15:06	-134.891	49.444	0	17.90	0	13.6900	0	32.3200	0	24.181	0	17.747	0	265.5	4	102.5	4	-1E+10	1	-1E+10	1	-1E+10	1	-1E+10	1	-1E+10	1	-1E+10	1
4902551	35	C	07/27/2021	15:06	-134.891	49.444	0	19.10	0	13.6200	0	32.3130	0	24.190	0	18.936	0	267.6	4	103.1	4	-1E+10	1	-1E+10	1	-1E+10	1	-1E+10	1	-1E+10	1	-1E+10	1
4902551	35	C	07/27/2021	15:06	-134.891	49.444	0	20.10	0	13.4130	0	32.3110	0	24.230	0	19.928	0	270.4	4	103.8	4	-1E+10	1	-1E+10	1	-1E+10	1	-1E+10	1	-1E+10	1	-1E+10	1
4902551	35	C	07/27/2021	15:06	-134.891	49.444	0	21.00	0	13.1000	0	32.3370	0	24.312	0	20.820	0	273.0	4	104.1	4	-1E+10	1	-1E+10	1	-1E+10	1	-1E+10	1	-1E+10	1	-1E+10	1
4902551	35	C	07/27/2021	15:06	-134.891	49.444	0	21.90	0	12.8260	0	32.3110	0	24.346	0	21.712	0	276.0	4	104.6	4	-1E+10	1	-1E+10	1	-1E+10	1	-1E+10	1	-1E+10	1	-1E+10	1
4902551	35	C	07/27/2021	15:06	-134.891	49.444	0	22.80	0	12.5240	0	32.3140	0	24.406	0	22.604	0	278.5	4	104.9	4	-1E+10	1	-1E+10	1	-1E+10	1	-1E+10	1	-1E+10	1	-1E+10	1
4902551	35	C	07/27/2021	15:06	-134.891	49.444	0	24.00	0	12.1010	0	32.3280	0	24.497	0	23.794	0	281.8	4	105.3	4	-1E+10	1	-1E+10	1	-1E+10	1	-1E+10	1	-1E+10	1	-1E+10	1
4902551	35	C	07/27/2021	15:06	-134.891	49.444	0	24.90	0	11.9510	0	32.3110	0	24.512	0	24.686	0	283.9	4	105.7	4	-1E+10	1	-1E+10	1	-1E+10	1	-1E+10	1	-1E+10	1	-1E+10	1
4902551	35	C	07/27/2021	15:06	-134.891	49.444	0	25.80	0	11.6000	0	32.3230	0	24.585	0	25.579	0	286.6	4	105.9	4	-1E+10	1	-1E+10	1	-1E+10	1	-1E+10	1	-1E+10	1	-1E+10	1
4902551	35	C	07/27/2021	15:06	-134.891	49.444	0	27.00	0	11.1500	0	32.3290	0	24.671	0	26.768	0	289.6	4	106.1	4	-1E+10	1	-1E+10	1	-1E+10	1	-1E+10	1	-1E+10	1	-1E+10	1
4902551	35	C	07/27/2021	15:06	-134.891	49.444	0	28.10	0	10.8860	0	32.3350	0	24.722	0	27.859	0	292.2	4	106.4	4	-1E+10	1	-1E+10	1	-1E+10	1	-1E+10	1	-1E+10	1	-1E+10	1
4902551	35	C	07/27/2021	15:06	-134.891	49.444	0	29.00	0	10.8120	0	32.3310	0	24.732	0	28.751	0	293.5	4	106.7	4	-1E+10	1	-1E+10	1	-1E+10	1	-1E+10	1	-1E+10	1	-1E+10	1
4902551	35	C	07/27/2021	15:06	-134.891	49.444	0	29.90	0	10.5960	0	32.3350	0	24.772	0	29.643	0	294.2	4	106.4	4	-1E+10	1	-1E+10	1	-1E+10	1	-1E+10	1	-1E+10	1	-1E+10	1
4902551	35	C	07/27/2021	15:06	-134.891	49.444	0	31.00	0	10.3430	0	32.3360	0	24.816	0	30.733	0	294.8	4	106.1	4	-1E+10	1	-1E+10	1	-1E+10	1	-1E+10	1	-1E+10	1	-1E+10	1
4902551	35	C	07/27/2021	15:06	-134.891	49.444	0	32.10	0	10.0320	0	32.3480	0	24.877	0	31.824	0	294.6	4	105.3	4	-1E+10	1	-1E+10	1	-1E+10	1	-1E+10	1	-1E+10	1	-1E+10	1
4902551	35	C	07/27/2021	15:06	-134.891	49.444	0	33.30	0	9.7190	0	32.3540	0	24.934	0	33.014	0	295.3	4	104.9	4	-1E+10	1	-1E+10	1	-1E+10	1	-1E+10	1	-1E+10	1	-1E+10	1
4902551	35	C	07/27/2021	15:06	-134.891	49.444	0	34.30	0	9.5870	0	32.3570	0	24.957	0	34.005	0	295.6	4	104.7	4	-1E+10	1	-1E+10	1	-1E+10	1	-1E+10	1	-1E+10	1	-1E+10	1
4902551	35	C	07/27/2021	15:06	-134.891	49.444	0	35.00	0	9.5630	0	32.3570	0	24.961	0	34.699	0	295.5	4	104.6	4	-1E+10	1	-1E+10	1	-1E+10	1	-1E+10	1	-1E+10	1	-1E+10	1
4902551	35	C	07/27/2021	15:06	-134.891	49.444	0	35.90	0	9.5320	0	32.3570	0	24.966	0	35.591	0	295.1	4	104.4	4	-1E+10	1	-1E+10	1	-1E+10	1	-1E+10	1	-1E+10	1	-1E+10	1
4902551	35	C	07/27/2021	15:06	-134.891	49.444	0	37.00	0	9.3990	0	32.3610	0	24.991	0	36.681	0	294.6	4	103.9	4	-1E+10	1	-1E+10	1	-1E+10	1	-1E+10	1	-1E+10	1	-1E+10	1
4902551	35	C	07/27/2021	15:06	-134.891	49.444	0	38.10	0	9.3370	0	32.3590	0	24.999	0	37.772	0	293.8	4	103.5	4	-1E+10	1	-1E+10	1	-1E+10	1	-1E+10	1	-1E+10	1	-1E+10	1
4902551	35	C	07/27/2021	15:06	-134.891	49.444	0	39.00	0	9.0960	0	32.3680	0	25.044	0	38.664	0	294.1	4	103.0	4	-1E+10	1	-1E+10	1	-1E+10	1	-1E+10	1	-1E+10	1	-1E+10	1
4902551	35	C	07/27/2021	15:06	-134.891	49.444	0	39.90	0	8.9670	0	32.3710	0	25.066	0	39.556	0	294.1	4	102.8	4	-1E+10	1	-1E+10	1	-1E+10	1	-1E+10	1	-1E+10	1	-1E+10	1
4902551	35	C	07/27/2021	15:06	-134.891	49.444	0	40.80	0	8.8180	0	32.3760	0	25.093	0	40.448	0	294.0	4	102.4	4	-1E+10	1	-1E+10	1	-1E+10	1	-1E+10	1	-1E+10	1	-1E+10	1
4902551	35	C	07/27/2021	15:06	-134.891	49.444	0	41.80	0	8.6510	0	32.3800	0	25.121	0	41.440	0	293.9	4	102.0	4	-1E+10	1	-1E+10	1	-1E+10	1	-1E+10	1	-1E+10	1	-1E+10	1
4902551	35	C	07/27/2021	15:06	-134.891	49.444	0	42.80	0	8.4890	0	32.3860	0	25.151	0	42.431	0	293.8	4	101.6	4	-1E+10	1	-1E+10	1	-1E+10	1	-1E+10	1	-1E+10	1	-1E+10	1
4902551	35	C	07/27/2021	15:06	-134.891	49.444	0	43.80	0	8.4060	0	32.3880	0	25.165	0	43.422	0	293.3	4	101.2	4	-1E+10	1	-1E+10	1	-1E+10	1	-1E+10	1	-1E+10	1	-1E+10	1
4902551	35	C	07/27/2021	15:06	-134.891	49.444	0	44.90	0	8.3520	0	32.3890	0	25.173	0	44.512	0	292.6	4	100.8	4	-1E+10	1	-1E+10	1	-1E+10	1	-1E+10	1	-1E+10	1	-1E+10	1
4902551	35	C	07/27/2021	15:06	-134.891	49.444	0	46.00	0	8.2290	0	32.3920	0	25.194	0	45.603	0	292.1	4	100.4	4	-1E+10	1	-1E+10	1	-1E+10	1	-1E+10	1	-1E+10	1	-1E+10	1
4902551	35	C	07/27/2021	15:06	-134.891	49.444	0	47.00	0	8.2050	0	32.3900	0	25.196	0	46.594	0	291.2	4	100.1	4	-1E+10	1	-1E+10	1	-1E+10	1	-1E+10	1	-1E+10	1	-1E+10	1
4902551	35	C	07/27/2021	15:06	-134.891	49.444	0	48.10	0	8.1320	0	32.3960	0	25.211	0	47.685	0	290.4	4	99.6	4	-1E+10	1	-1E+10	1	-1E+10	1	-1E+10	1	-1E+10	1	-1E+10	1
4902551	35	C	07/27/2021	15:06	-134.891	49.444	0	48.90	0	7.9710	0	32.4100	0	25.245	0	48.478	0	290.1	4	99.1	4	-1E+10	1	-1E+10	1	-1E+10	1	-1E+10	1	-1E+10	1	-1E+10	1
4902551	35	C	07/27/2021	15:06	-134.891	49.444	0	49.70	0	7.9030	0	32.4030	0	25.250	0	49.270	0	289.6	4	98.8	4	-1E+10	1	-1E+10	1	-1E+10	1	-1E+10	1	-1E+10	1	-1E+10	1
4902551	35	C	07/27/2021	15:06	-134.891	49.444	0	50.80	0	7.8880	0	32.4000	0	25.249	0	50.361	0	288.7	4	98.5	4	-1E+10	1	-1E+10	1	-1E+10	1	-1E+10	1	-1E+10	1	-1E+10	1
4902551	35	C	07/27/2021	15:06	-134.891	49.444	0	51.80	0	7.7430	0	32.4090	0	25.277	0	51.352	0	288.1	4	98.0	4	-1E+10	1	-1E+10	1	-1E+10	1	-1E+10	1	-1E+10	1	-1E+10	1
4902551	35	C	07/27/2021	15:06	-134.891	49.444	0	52.80	0	7.6640	0	32.4120	0	25.291	0	52.343	0	287.6	4	97.6	4	-1E+10	1	-1E+10	1	-1E+10	1	-1E+10	1	-1E+10	1	-1E+10	1
4902551	35	C	07/27/2021	15:06	-134.891	49.444	0	53.80	0	7.5620	0	32.4110	0	25.304	0	53.335	0	286.9	4	97.2	4	-1E+10	1	-1E+10	1	-1E+10	1	-1E+10	1	-1E+10	1	-1E+10	1
4902551	35	C	07/27/2021	15:06	-134.891	49.444	0	54.80	0	7.3410	0	32.4210	0	25.343	0	54.326	0	286.7	4	96.6	4	-1E+10	1	-1E+10	1	-1E+10	1	-1E+10	1	-1E+10	1	-1E+10	1
4902551	35	C	07/27/2021	15:06	-134.891	49.444	0	55.90	0	7.1900	0	32.4250	0	25.366	0	55.416	0	286.5	4	96.2	4	-1E+10	1	-1E+10	1	-1E+10	1	-1E+10	1	-1E+10	1	-1E+10	1
4902551	35	C	07/27/2021	15:06	-134.891	49.444	0	57.00	0	7.0800	0	32.4270	0	25.383	0	56.506	0	286.5	4	96.0	4	-1E+10	1	-1E+10	1	-1E+10	1	-1E+10	1	-1E+10	1	-1E+10	1
4902551	35	C	07/27/2021	15:06	-134.891	49.444	0	58.00	0	7.0380	0	32.4290	0	25.390	0	57.498	0	286.0	4	95.7	4	-1E+10	1	-1E+10	1	-1E+10	1	-1E+10	1	-1E+10	1	-1E+10	1
4902551	35	C	07/27/2021	15:06	-134.891	49.444	0	59.10	0	7.0210	0	32.4290	0	25.392	0	58.588	0	285.3	4	95.4	4	-1E+10	1	-1E+10	1	-1E+10	1	-1E+10	1	-1E+10	1	-1E+10	1
4902551	35	C	07/27/2021	15:06	-134.891	49.444	0	60.00	0	6.9680	0	32.4310	0	25.401	0	59.480	0	284.9	4	95.2	4	-1E+10	1	-1E+10	1	-1E+10	1	-1E+10	1	-1E+10	1	-1E+10	1
4902551	35	C	07/27/2021	15:06	-134.891	49.444	0	61.00	0	6.9030	0	32.4330	0	25.411	0	60.471	0	284.5	4	94.9	4	-1E+10	1	-1E+10	1	-1E+10	1	-1E+10	1	-1E+10	1	-1E+10	1
4902551	35	C	07/27/2021	15:06	-134.891	49.444	0	62.10	0	6.8850	0	32.4330	0	25.413	0	61.561	0	283.9	4	94.7	4	-1E+10	1	-1E+10	1	-1E+10	1	-1E+10	1	-1E+10	1	-1E+10	1
4902551	35	C	07/27/2021	15:06	-134.891	49.444	0	62.90	0	6.8350	0	32.4320	0	25.419	0	62.354	0	283.4	4	94.4	4	-1E+10	1	-1E+10	1	-1E+10	1	-1E+10	1	-1E+10	1	-1E+10	1
4902551	35	C	07/27/2021	15:06	-134.891	49.444	0	64.20	0	6.7320	0	32.4420	0	25.440	0	63.643	0	282.8	4	94.0	4	-1E+10	1	-1E+10	1	-1E+10	1	-1E+10	1	-1E+10	1	-1E+10	1
4902551	35	C	07/27/2021	15:06	-134.891	49.444	0	64.80	0	6.6510	0	32.4440	0	25.453	0	64.238	0	282.9	4	93.9	4	-1E+10	1	-1E+10	1	-1E+10	1	-1E+10	1	-1E+10	1	-1E+10	1
4902551	35	C	07/27/2021	15:06	-134.891	49.444	0	66.00	0	6.6310	0	32.4440	0	25.455	0	65.427	0	282.6	4	93.7	4	-1E+10	1	-1E+10	1	-1E+10	1	-1E+10	1	-1E+10	1	-1E+10	1
4902551	35	C	07/27/2021	15:06	-134.891	49.444	0	66.70	0	6.6150	0	32.4450	0	25.458	0	66.121	0	282.4	4	93.6	4	-1E+10	1	-1E+10	1	-1E+10	1	-1E+10	1	-1E+10	1	-1E+10	1
4902551	35	C	07/27/2021	15:06	-134.891	49.444	0	67.70	0	6.5950	0	32.4460	0	25.461	0	67.112	0	282.2	4	93.5	4	-1E+10	1	-1E+10	1	-1E+10	1	-1E+10	1	-1E+10	1	-1E+10	1
4902551	35	C	07/27/2021	15:06	-134.891	49.444	0	68.70	0	6.5580	0	32.4490	0	25.468	0	68.103	0	282.0	4	93.4	4	-1E+10	1	-1E+10	1	-1E+10	1	-1E+10	1	-1E+10	1	-1E+10	1
4902551	35	C	07/27/2021	15:06	-134.891	49.444	0	69.80	0	6.5240	0	32.4490	0	25.473	0	69.193	0	282.0	4	93.3	4	-1E+10	1	-1E+10	1	-1E+10	1	-1E+10	1	-1E+10	1	-1E+10	1
4902551	35	C	07/27/2021	15:06	-134.891	49.444	0	70.80	0	6.5160	0	32.4500	0	25.475	0	70.185	0	281.7	4	93.2	4	-1E+10	1	-1E+10	1	-1E+10	1	-1E+10	1	-1E+10	1	-1E+10	1
4902551	35	C	07/27/2021	15:06	-134.891	49.444	0	71.80	0	6.5010	0	32.4510	0	25.477	0	71.176	0	281.6	4	93.1	4	-1E+10	1	-1E+10	1	-1E+10	1	-1E+10	1	-1E+10	1	-1E+10	1
4902551	35	C	07/27/2021	15:06	-134.891	49.444	0	72.80	0	6.4850	0	32.4510	0	25.479	0	72.167	0	281.6	4	93.1	4	-1E+10	1	-1E+10	1	-1E+10	1	-1E+10	1	-1E+10	1	-1E+10	1
4902551	35	C	07/27/2021	15:06	-134.891	49.444	0	73.80	0	6.4490	0	32.4540	0	25.486	0	73.158	0	281.6	4	93.0	4	-1E+10	1	-1E+10	1	-1E+10	1	-1E+10	1	-1E+10	1	-1E+10	1
4902551	35	C	07/27/2021	15:06	-134.891	49.444	0	74.80	0	6.4120	0	32.4570	0	25.493	0	74.149	0	281.6	4	92.9	4	-1E+10	1	-1E+10	1	-1E+10	1	-1E+10	1	-1E+10	1	-1E+10	1
4902551	35	C	07/27/2021	15:06	-134.891	49.444	0	75.70	0	6.3750	0	32.4600	0	25.500	0	75.041	0	281.8	4	92.9	4	-1E+10	1	-1E+10	1	-1E+10	1	-1E+10	1	-1E+10	1	-1E+10	1
4902551	35	C	07/27/2021	15:06	-134.891	49.444	0	76.90	0	6.3460	0	32.4630	0	25.506	0	76.230	0	281.9	4	92.9	4	-1E+10	1	-1E+10	1	-1E+10	1	-1E+10	1	-1E+10	1	-1E+10	1
4902551	35	C	07/27/2021	15:06	-134.891	49.444	0	78.00	0	6.3330	0	32.4640	0	25.509	0	77.321	0	281.9	4	92.9	4	-1E+10	1	-1E+10	1	-1E+10	1	-1E+10	1	-1E+10	1	-1E+10	1
4902551	35	C	07/27/2021	15:06	-134.891	49.444	0	79.10	0	6.3060	0	32.4660	0	25.514	0	78.411	0	281.9	4	92.8	4	-1E+10	1	-1E+10	1	-1E+10	1	-1E+10	1	-1E+10	1	-1E+10	1
4902551	35	C	07/27/2021	15:06	-134.891	49.444	0	79.90	0	6.2740	0	32.4680	0	25.519	0	79.204	0	282.2	4	92.8	4	-1E+10	1	-1E+10	1	-1E+10	1	-1E+10	1	-1E+10	1	-1E+10	1
4902551	35	C	07/27/2021	15:06	-134.891	49.444	0	81.20	0	6.2310	0	32.4700	0	25.526	0	80.492	0	282.3	4	92.8	4	-1E+10	1	-1E+10	1	-1E+10	1	-1E+10	1	-1E+10	1	-1E+10	1
4902551	35	C	07/27/2021	15:06	-134.891	49.444	0	82.00	0	6.1890	0	32.4720	0	25.533	0	81.285	0	282.3	4	92.7	4	-1E+10	1	-1E+10	1	-1E+10	1	-1E+10	1	-1E+10	1	-1E+10	1
4902551	35	C	07/27/2021	15:06	-134.891	49.444	0	83.30	0	6.1360	0	32.4750	0	25.542	0	82.573	0	282.2	4	92.5	4	-1E+10	1	-1E+10	1	-1E+10	1	-1E+10	1	-1E+10	1	-1E+10	1
4902551	35	C	07/27/2021	15:06	-134.891	49.444	0	84.10	0	6.1260	0	32.4760	0	25.544	0	83.366	0	282.0	4	92.4	4	-1E+10	1	-1E+10	1	-1E+10	1	-1E+10	1	-1E+10	1	-1E+10	1
4902551	35	C	07/27/2021	15:06	-134.891	49.444	0	85.00	0	6.1110	0	32.4750	0	25.545	0	84.258	0	281.6	4	92.3	4	-1E+10	1	-1E+10	1	-1E+10	1	-1E+10	1	-1E+10	1	-1E+10	1
4902551	35	C	07/27/2021	15:06	-134.891	49.444	0	85.70	0	6.0830	0	32.4760	0	25.549	0	84.952	0	281.3	4	92.1	4	-1E+10	1	-1E+10	1	-1E+10	1	-1E+10	1	-1E+10	1	-1E+10	1
4902551	35	C	07/27/2021	15:06	-134.891	49.444	0	86.70	0	6.0540	0	32.4770	0	25.554	0	85.943	0	280.9	4	92.0	4	-1E+10	1	-1E+10	1	-1E+10	1	-1E+10	1	-1E+10	1	-1E+10	1
4902551	35	C	07/27/2021	15:06	-134.891	49.444	0	87.80	0	5.9970	0	32.4800	0	25.563	0	87.033	0	280.5	4	91.7	4	-1E+10	1	-1E+10	1	-1E+10	1	-1E+10	1	-1E+10	1	-1E+10	1
4902551	35	C	07/27/2021	15:06	-134.891	49.444	0	88.90	0	5.9720	0	32.4810	0	25.567	0	88.123	0	280.0	4	91.5	4	-1E+10	1	-1E+10	1	-1E+10	1	-1E+10	1	-1E+10	1	-1E+10	1
4902551	35	C	07/27/2021	15:06	-134.891	49.444	0	90.10	0	5.9460	0	32.4830	0	25.572	0	89.313	0	279.3	4	91.2	4	-1E+10	1	-1E+10	1	-1E+10	1	-1E+10	1	-1E+10	1	-1E+10	1
4902551	35	C	07/27/2021	15:06	-134.891	49.444	0	91.00	0	5.9310	0	32.4840	0	25.574	0	90.205	0	278.7	4	91.0	4	-1E+10	1	-1E+10	1	-1E+10	1	-1E+10	1	-1E+10	1	-1E+10	1
4902551	35	C	07/27/2021	15:06	-134.891	49.444	0	91.90	0	5.9160	0	32.4850	0	25.577	0	91.096	0	278.0	4	90.7	4	-1E+10	1	-1E+10	1	-1E+10	1	-1E+10	1	-1E+10	1	-1E+10	1
4902551	35	C	07/27/2021	15:06	-134.891	49.444	0	93.10	0	5.9080	0	32.4850	0	25.578	0	92.286	0	277.1	4	90.4	4	-1E+10	1	-1E+10	1	-1E+10	1	-1E+10	1	-1E+10	1	-1E+10	1
4902551	35	C	07/27/2021	15:06	-134.891	49.444	0	94.00	0	5.9020	0	32.4860	0	25.579	0	93.178	0	276.1	4	90.1	4	-1E+10	1	-1E+10	1	-1E+10	1	-1E+10	1	-1E+10	1	-1E+10	1
4902551	35	C	07/27/2021	15:06	-134.891	49.444	0	94.90	0	5.8940	0	32.4860	0	25.580	0	94.070	0	275.1	4	89.7	4	-1E+10	1	-1E+10	1	-1E+10	1	-1E+10	1	-1E+10	1	-1E+10	1
4902551	35	C	07/27/2021	15:06	-134.891	49.444	0	95.90	0	5.8820	0	32.4880	0	25.583	0	95.061	0	274.0	4	89.3	4	-1E+10	1	-1E+10	1	-1E+10	1	-1E+10	1	-1E+10	1	-1E+10	1
4902551	35	C	07/27/2021	15:06	-134.891	49.444	0	96.70	0	5.8640	0	32.4890	0	25.586	0	95.853	0	272.8	4	88.9	4	-1E+10	1	-1E+10	1	-1E+10	1	-1E+10	1	-1E+10	1	-1E+10	1
4902551	35	C	07/27/2021	15:06	-134.891	49.444	0	97.80	0	5.8580	0	32.4930	0	25.590	0	96.944	0	271.1	4	88.3	4	-1E+10	1	-1E+10	1	-1E+10	1	-1E+10	1	-1E+10	1	-1E+10	1
4902551	35	C	07/27/2021	15:06	-134.891	49.444	0	99.10	0	5.8600	0	32.5000	0	25.596	0	98.232	0	268.8	4	87.6	4	-1E+10	1	-1E+10	1	-1E+10	1	-1E+10	1	-1E+10	1	-1E+10	1
4902551	35	C	07/27/2021	15:06	-134.891	49.444	0	100.00	0	5.8670	0	32.5050	0	25.599	0	99.124	0	266.8	4	87.0	4	-1E+10	1	-1E+10	1	-1E+10	1	-1E+10	1	-1E+10	1	-1E+10	1
4902551	35	C	07/27/2021	15:06	-134.891	49.444	0	100.80	0	5.8740	0	32.5120	0	25.603	0	99.917	0	264.8	4	86.3	4	-1E+10	1	-1E+10	1	-1E+10	1	-1E+10	1	-1E+10	1	-1E+10	1
4902551	35	C	07/27/2021	15:06	-134.891	49.444	0	102.00	0	5.8820	0	32.5210	0	25.610	0	101.106	0	261.8	4	85.4	4	-1E+10	1	-1E+10	1	-1E+10	1	-1E+10	1	-1E+10	1	-1E+10	1
4902551	35	C	07/27/2021	15:06	-134.891	49.444	0	102.90	0	5.8910	0	32.5340	0	25.619	0	101.998	0	259.9	4	84.8	4	-1E+10	1	-1E+10	1	-1E+10	1	-1E+10	1	-1E+10	1	-1E+10	1
4902551	35	C	07/27/2021	15:06	-134.891	49.444	0	103.80	0	5.9070	0	32.5490	0	25.629	0	102.889	0	258.0	4	84.2	4	-1E+10	1	-1E+10	1	-1E+10	1	-1E+10	1	-1E+10	1	-1E+10	1
4902551	35	C	07/27/2021	15:06	-134.891	49.444	0	104.90	0	5.9260	0	32.5700	0	25.643	0	103.980	0	255.3	4	83.4	4	-1E+10	1	-1E+10	1	-1E+10	1	-1E+10	1	-1E+10	1	-1E+10	1
4902551	35	C	07/27/2021	15:06	-134.891	49.444	0	106.10	0	5.9480	0	32.5990	0	25.663	0	105.169	0	252.4	4	82.5	4	-1E+10	1	-1E+10	1	-1E+10	1	-1E+10	1	-1E+10	1	-1E+10	1
4902551	35	C	07/27/2021	15:06	-134.891	49.444	0	106.80	0	5.9520	0	32.6050	0	25.668	0	105.862	0	250.4	4	81.8	4	-1E+10	1	-1E+10	1	-1E+10	1	-1E+10	1	-1E+10	1	-1E+10	1
4902551	35	C	07/27/2021	15:06	-134.891	49.444	0	107.90	0	5.9540	0	32.6100	0	25.671	0	106.952	0	247.2	4	80.8	4	-1E+10	1	-1E+10	1	-1E+10	1	-1E+10	1	-1E+10	1	-1E+10	1
4902551	35	C	07/27/2021	15:06	-134.891	49.444	0	109.00	0	5.9590	0	32.6170	0	25.676	0	108.043	0	243.4	4	79.6	4	-1E+10	1	-1E+10	1	-1E+10	1	-1E+10	1	-1E+10	1	-1E+10	1
4902551	35	C	07/27/2021	15:06	-134.891	49.444	0	110.20	0	5.9700	0	32.6310	0	25.686	0	109.232	0	239.5	4	78.3	4	-1E+10	1	-1E+10	1	-1E+10	1	-1E+10	1	-1E+10	1	-1E+10	1
4902551	35	C	07/27/2021	15:06	-134.891	49.444	0	111.00	0	5.9820	0	32.6450	0	25.696	0	110.024	0	236.8	4	77.5	4	-1E+10	1	-1E+10	1	-1E+10	1	-1E+10	1	-1E+10	1	-1E+10	1
4902551	35	C	07/27/2021	15:06	-134.891	49.444	0	112.30	0	6.0080	0	32.6820	0	25.722	0	111.313	0	232.5	4	76.1	4	-1E+10	1	-1E+10	1	-1E+10	1	-1E+10	1	-1E+10	1	-1E+10	1
4902551	35	C	07/27/2021	15:06	-134.891	49.444	0	113.20	0	6.0190	0	32.7220	0	25.752	0	112.204	0	229.5	4	75.2	4	-1E+10	1	-1E+10	1	-1E+10	1	-1E+10	1	-1E+10	1	-1E+10	1
4902551	35	C	07/27/2021	15:06	-134.891	49.444	0	113.80	0	6.0270	0	32.7430	0	25.767	0	112.799	0	226.3	4	74.2	4	-1E+10	1	-1E+10	1	-1E+10	1	-1E+10	1	-1E+10	1	-1E+10	1
4902551	35	C	07/27/2021	15:06	-134.891	49.444	0	114.90	0	6.0460	0	32.7720	0	25.788	0	113.889	0	221.1	4	72.5	4	-1E+10	1	-1E+10	1	-1E+10	1	-1E+10	1	-1E+10	1	-1E+10	1
4902551	35	C	07/27/2021	15:06	-134.891	49.444	0	116.10	0	6.1050	0	32.8310	0	25.827	0	115.078	0	216.4	4	71.1	4	-1E+10	1	-1E+10	1	-1E+10	1	-1E+10	1	-1E+10	1	-1E+10	1
4902551	35	C	07/27/2021	15:06	-134.891	49.444	0	117.10	0	6.1440	0	32.8900	0	25.869	0	116.069	0	213.2	4	70.1	4	-1E+10	1	-1E+10	1	-1E+10	1	-1E+10	1	-1E+10	1	-1E+10	1
4902551	35	C	07/27/2021	15:06	-134.891	49.444	0	118.10	0	6.1610	0	32.9190	0	25.890	0	117.060	0	210.6	4	69.3	4	-1E+10	1	-1E+10	1	-1E+10	1	-1E+10	1	-1E+10	1	-1E+10	1
4902551	35	C	07/27/2021	15:06	-134.891	49.444	0	119.10	0	6.1790	0	32.9480	0	25.911	0	118.051	0	208.2	4	68.6	4	-1E+10	1	-1E+10	1	-1E+10	1	-1E+10	1	-1E+10	1	-1E+10	1
4902551	35	C	07/27/2021	15:06	-134.891	49.444	0	120.20	0	6.1920	0	32.9640	0	25.922	0	119.141	0	205.4	4	67.7	4	-1E+10	1	-1E+10	1	-1E+10	1	-1E+10	1	-1E+10	1	-1E+10	1
4902551	35	C	07/27/2021	15:06	-134.891	49.444	0	121.10	0	6.2260	0	33.0070	0	25.951	0	120.033	0	201.0	4	66.3	4	-1E+10	1	-1E+10	1	-1E+10	1	-1E+10	1	-1E+10	1	-1E+10	1
4902551	35	C	07/27/2021	15:06	-134.891	49.444	0	122.00	0	6.2650	0	33.0490	0	25.980	0	120.925	0	194.9	4	64.4	4	-1E+10	1	-1E+10	1	-1E+10	1	-1E+10	1	-1E+10	1	-1E+10	1
4902551	35	C	07/27/2021	15:06	-134.891	49.444	0	123.10	0	6.2770	0	33.0880	0	26.009	0	122.014	0	186.8	4	61.7	4	-1E+10	1	-1E+10	1	-1E+10	1	-1E+10	1	-1E+10	1	-1E+10	1
4902551	35	C	07/27/2021	15:06	-134.891	49.444	0	123.90	0	6.2900	0	33.1470	0	26.054	0	122.807	0	183.5	4	60.7	4	-1E+10	1	-1E+10	1	-1E+10	1	-1E+10	1	-1E+10	1	-1E+10	1
4902551	35	C	07/27/2021	15:06	-134.891	49.444	0	124.80	0	6.2910	0	33.1820	0	26.081	0	123.699	0	180.5	4	59.7	4	-1E+10	1	-1E+10	1	-1E+10	1	-1E+10	1	-1E+10	1	-1E+10	1
4902551	35	C	07/27/2021	15:06	-134.891	49.444	0	125.90	0	6.2710	0	33.2200	0	26.114	0	124.789	0	177.5	4	58.7	4	-1E+10	1	-1E+10	1	-1E+10	1	-1E+10	1	-1E+10	1	-1E+10	1
4902551	35	C	07/27/2021	15:06	-134.891	49.444	0	127.10	0	6.2470	0	33.2530	0	26.143	0	125.978	0	175.0	4	57.9	4	-1E+10	1	-1E+10	1	-1E+10	1	-1E+10	1	-1E+10	1	-1E+10	1
4902551	35	C	07/27/2021	15:06	-134.891	49.444	0	127.90	0	6.2310	0	33.2660	0	26.155	0	126.771	0	173.8	4	57.4	4	-1E+10	1	-1E+10	1	-1E+10	1	-1E+10	1	-1E+10	1	-1E+10	1
4902551	35	C	07/27/2021	15:06	-134.891	49.444	0	128.90	0	6.2330	0	33.2780	0	26.164	0	127.762	0	172.1	4	56.9	4	-1E+10	1	-1E+10	1	-1E+10	1	-1E+10	1	-1E+10	1	-1E+10	1
4902551	35	C	07/27/2021	15:06	-134.891	49.444	0	129.80	0	6.2390	0	33.2960	0	26.178	0	128.653	0	170.6	4	56.4	4	-1E+10	1	-1E+10	1	-1E+10	1	-1E+10	1	-1E+10	1	-1E+10	1
4902551	35	C	07/27/2021	15:06	-134.891	49.444	0	130.80	0	6.2400	0	33.3080	0	26.187	0	129.644	0	169.1	4	55.9	4	-1E+10	1	-1E+10	1	-1E+10	1	-1E+10	1	-1E+10	1	-1E+10	1
4902551	35	C	07/27/2021	15:06	-134.891	49.444	0	131.90	0	6.2480	0	33.3380	0	26.210	0	130.734	0	167.8	4	55.5	4	-1E+10	1	-1E+10	1	-1E+10	1	-1E+10	1	-1E+10	1	-1E+10	1
4902551	35	C	07/27/2021	15:06	-134.891	49.444	0	133.00	0	6.2410	0	33.3560	0	26.225	0	131.824	0	166.2	4	55.0	4	-1E+10	1	-1E+10	1	-1E+10	1	-1E+10	1	-1E+10	1	-1E+10	1
4902551	35	C	07/27/2021	15:06	-134.891	49.444	0	133.90	0	6.2380	0	33.3590	0	26.228	0	132.716	0	165.0	4	54.6	4	-1E+10	1	-1E+10	1	-1E+10	1	-1E+10	1	-1E+10	1	-1E+10	1
4902551	35	C	07/27/2021	15:06	-134.891	49.444	0	134.80	0	6.2360	0	33.3640	0	26.232	0	133.608	0	163.6	4	54.1	4	-1E+10	1	-1E+10	1	-1E+10	1	-1E+10	1	-1E+10	1	-1E+10	1
4902551	35	C	07/27/2021	15:06	-134.891	49.444	0	136.00	0	6.2330	0	33.3700	0	26.237	0	134.797	0	161.6	4	53.5	4	-1E+10	1	-1E+10	1	-1E+10	1	-1E+10	1	-1E+10	1	-1E+10	1
4902551	35	C	07/27/2021	15:06	-134.891	49.444	0	137.00	0	6.2250	0	33.3820	0	26.248	0	135.787	0	160.2	4	53.0	4	-1E+10	1	-1E+10	1	-1E+10	1	-1E+10	1	-1E+10	1	-1E+10	1
4902551	35	C	07/27/2021	15:06	-134.891	49.444	0	138.00	0	6.1980	0	33.4120	0	26.275	0	136.778	0	159.4	4	52.7	4	-1E+10	1	-1E+10	1	-1E+10	1	-1E+10	1	-1E+10	1	-1E+10	1
4902551	35	C	07/27/2021	15:06	-134.891	49.444	0	139.20	0	6.1960	0	33.4310	0	26.290	0	137.967	0	158.5	4	52.4	4	-1E+10	1	-1E+10	1	-1E+10	1	-1E+10	1	-1E+10	1	-1E+10	1
4902551	35	C	07/27/2021	15:06	-134.891	49.444	0	139.90	0	6.2030	0	33.4420	0	26.298	0	138.661	0	158.0	4	52.3	4	-1E+10	1	-1E+10	1	-1E+10	1	-1E+10	1	-1E+10	1	-1E+10	1
4902551	35	C	07/27/2021	15:06	-134.891	49.444	0	141.00	0	6.1810	0	33.4520	0	26.308	0	139.751	0	157.3	4	52.0	4	-1E+10	1	-1E+10	1	-1E+10	1	-1E+10	1	-1E+10	1	-1E+10	1
4902551	35	C	07/27/2021	15:06	-134.891	49.444	0	142.20	0	6.1480	0	33.4620	0	26.321	0	140.940	0	156.9	4	51.8	4	-1E+10	1	-1E+10	1	-1E+10	1	-1E+10	1	-1E+10	1	-1E+10	1
4902551	35	C	07/27/2021	15:06	-134.891	49.444	0	143.00	0	6.1630	0	33.4750	0	26.329	0	141.732	0	156.4	4	51.7	4	-1E+10	1	-1E+10	1	-1E+10	1	-1E+10	1	-1E+10	1	-1E+10	1
4902551	35	C	07/27/2021	15:06	-134.891	49.444	0	143.80	0	6.1910	0	33.4850	0	26.333	0	142.525	0	155.9	4	51.6	4	-1E+10	1	-1E+10	1	-1E+10	1	-1E+10	1	-1E+10	1	-1E+10	1
4902551	35	C	07/27/2021	15:06	-134.891	49.444	0	144.90	0	6.2430	0	33.5090	0	26.346	0	143.615	0	154.8	4	51.3	4	-1E+10	1	-1E+10	1	-1E+10	1	-1E+10	1	-1E+10	1	-1E+10	1
4902551	35	C	07/27/2021	15:06	-134.891	49.444	0	146.10	0	6.2620	0	33.5450	0	26.372	0	144.804	0	153.7	4	50.9	4	-1E+10	1	-1E+10	1	-1E+10	1	-1E+10	1	-1E+10	1	-1E+10	1
4902551	35	C	07/27/2021	15:06	-134.891	49.444	0	147.00	0	6.2640	0	33.5480	0	26.374	0	145.695	0	153.0	4	50.7	4	-1E+10	1	-1E+10	1	-1E+10	1	-1E+10	1	-1E+10	1	-1E+10	1
4902551	35	C	07/27/2021	15:06	-134.891	49.444	0	147.70	0	6.2660	0	33.5540	0	26.378	0	146.389	0	152.2	4	50.5	4	-1E+10	1	-1E+10	1	-1E+10	1	-1E+10	1	-1E+10	1	-1E+10	1
4902551	35	C	07/27/2021	15:06	-134.891	49.444	0	148.80	0	6.2660	0	33.5670	0	26.389	0	147.479	0	151.0	4	50.1	4	-1E+10	1	-1E+10	1	-1E+10	1	-1E+10	1	-1E+10	1	-1E+10	1
4902551	35	C	07/27/2021	15:06	-134.891	49.444	0	150.00	0	6.2630	0	33.5850	0	26.403	0	148.668	0	149.6	4	49.6	4	-1E+10	1	-1E+10	1	-1E+10	1	-1E+10	1	-1E+10	1	-1E+10	1
4902551	35	C	07/27/2021	15:06	-134.891	49.444	0	150.70	0	6.2600	0	33.5930	0	26.410	0	149.361	0	148.5	4	49.3	4	-1E+10	1	-1E+10	1	-1E+10	1	-1E+10	1	-1E+10	1	-1E+10	1
4902551	35	C	07/27/2021	15:06	-134.891	49.444	0	151.90	0	6.2500	0	33.6060	0	26.421	0	150.550	0	147.0	4	48.8	4	-1E+10	1	-1E+10	1	-1E+10	1	-1E+10	1	-1E+10	1	-1E+10	1
4902551	35	C	07/27/2021	15:06	-134.891	49.444	0	153.10	0	6.2370	0	33.6230	0	26.437	0	151.739	0	145.6	4	48.3	4	-1E+10	1	-1E+10	1	-1E+10	1	-1E+10	1	-1E+10	1	-1E+10	1
4902551	35	C	07/27/2021	15:06	-134.891	49.444	0	153.80	0	6.2250	0	33.6320	0	26.445	0	152.432	0	144.5	4	47.9	4	-1E+10	1	-1E+10	1	-1E+10	1	-1E+10	1	-1E+10	1	-1E+10	1
4902551	35	C	07/27/2021	15:06	-134.891	49.444	0	155.00	0	6.2120	0	33.6430	0	26.456	0	153.621	0	142.9	4	47.4	4	-1E+10	1	-1E+10	1	-1E+10	1	-1E+10	1	-1E+10	1	-1E+10	1
4902551	35	C	07/27/2021	15:06	-134.891	49.444	0	156.20	0	6.1900	0	33.6610	0	26.473	0	154.810	0	141.4	4	46.8	4	-1E+10	1	-1E+10	1	-1E+10	1	-1E+10	1	-1E+10	1	-1E+10	1
4902551	35	C	07/27/2021	15:06	-134.891	49.444	0	157.10	0	6.1800	0	33.6670	0	26.479	0	155.702	0	140.8	4	46.6	4	-1E+10	1	-1E+10	1	-1E+10	1	-1E+10	1	-1E+10	1	-1E+10	1
4902551	35	C	07/27/2021	15:06	-134.891	49.444	0	157.90	0	6.1720	0	33.6730	0	26.484	0	156.494	0	140.1	4	46.4	4	-1E+10	1	-1E+10	1	-1E+10	1	-1E+10	1	-1E+10	1	-1E+10	1
4902551	35	C	07/27/2021	15:06	-134.891	49.444	0	158.70	0	6.1540	0	33.6810	0	26.493	0	157.287	0	139.0	4	46.0	4	-1E+10	1	-1E+10	1	-1E+10	1	-1E+10	1	-1E+10	1	-1E+10	1
4902551	35	C	07/27/2021	15:06	-134.891	49.444	0	159.90	0	6.1390	0	33.6880	0	26.500	0	158.476	0	137.2	4	45.4	4	-1E+10	1	-1E+10	1	-1E+10	1	-1E+10	1	-1E+10	1	-1E+10	1
4902551	35	C	07/27/2021	15:06	-134.891	49.444	0	161.10	0	6.1140	0	33.6990	0	26.512	0	159.665	0	135.7	4	44.9	4	-1E+10	1	-1E+10	1	-1E+10	1	-1E+10	1	-1E+10	1	-1E+10	1
4902551	35	C	07/27/2021	15:06	-134.891	49.444	0	161.90	0	6.1040	0	33.7050	0	26.518	0	160.457	0	134.9	4	44.6	4	-1E+10	1	-1E+10	1	-1E+10	1	-1E+10	1	-1E+10	1	-1E+10	1
4902551	35	C	07/27/2021	15:06	-134.891	49.444	0	162.70	0	6.0890	0	33.7120	0	26.526	0	161.250	0	134.3	4	44.4	4	-1E+10	1	-1E+10	1	-1E+10	1	-1E+10	1	-1E+10	1	-1E+10	1
4902551	35	C	07/27/2021	15:06	-134.891	49.444	0	163.90	0	6.0770	0	33.7160	0	26.530	0	162.439	0	133.3	4	44.1	4	-1E+10	1	-1E+10	1	-1E+10	1	-1E+10	1	-1E+10	1	-1E+10	1
4902551	35	C	07/27/2021	15:06	-134.891	49.444	0	165.20	0	6.0660	0	33.7190	0	26.534	0	163.727	0	132.1	4	43.6	4	-1E+10	1	-1E+10	1	-1E+10	1	-1E+10	1	-1E+10	1	-1E+10	1
4902551	35	C	07/27/2021	15:06	-134.891	49.444	0	166.00	0	6.0570	0	33.7230	0	26.538	0	164.519	0	131.1	4	43.3	4	-1E+10	1	-1E+10	1	-1E+10	1	-1E+10	1	-1E+10	1	-1E+10	1
4902551	35	C	07/27/2021	15:06	-134.891	49.444	0	166.90	0	6.0460	0	33.7250	0	26.541	0	165.411	0	130.2	4	43.0	4	-1E+10	1	-1E+10	1	-1E+10	1	-1E+10	1	-1E+10	1	-1E+10	1
4902551	35	C	07/27/2021	15:06	-134.891	49.444	0	167.70	0	6.0240	0	33.7330	0	26.550	0	166.203	0	129.3	4	42.7	4	-1E+10	1	-1E+10	1	-1E+10	1	-1E+10	1	-1E+10	1	-1E+10	1
4902551	35	C	07/27/2021	15:06	-134.891	49.444	0	168.90	0	6.0220	0	33.7340	0	26.551	0	167.392	0	127.9	4	42.2	4	-1E+10	1	-1E+10	1	-1E+10	1	-1E+10	1	-1E+10	1	-1E+10	1
4902551	35	C	07/27/2021	15:06	-134.891	49.444	0	170.20	0	6.0170	0	33.7380	0	26.555	0	168.680	0	126.7	4	41.8	4	-1E+10	1	-1E+10	1	-1E+10	1	-1E+10	1	-1E+10	1	-1E+10	1
4902551	35	C	07/27/2021	15:06	-134.891	49.444	0	171.00	0	6.0140	0	33.7400	0	26.557	0	169.472	0	126.1	4	41.6	4	-1E+10	1	-1E+10	1	-1E+10	1	-1E+10	1	-1E+10	1	-1E+10	1
4902551	35	C	07/27/2021	15:06	-134.891	49.444	0	171.90	0	5.9960	0	33.7470	0	26.565	0	170.364	0	125.6	4	41.4	4	-1E+10	1	-1E+10	1	-1E+10	1	-1E+10	1	-1E+10	1	-1E+10	1
4902551	35	C	07/27/2021	15:06	-134.891	49.444	0	172.70	0	5.9840	0	33.7480	0	26.567	0	171.157	0	125.1	4	41.3	4	-1E+10	1	-1E+10	1	-1E+10	1	-1E+10	1	-1E+10	1	-1E+10	1
4902551	35	C	07/27/2021	15:06	-134.891	49.444	0	173.60	0	5.9520	0	33.7540	0	26.576	0	172.048	0	124.6	4	41.1	4	-1E+10	1	-1E+10	1	-1E+10	1	-1E+10	1	-1E+10	1	-1E+10	1
4902551	35	C	07/27/2021	15:06	-134.891	49.444	0	174.90	0	5.9360	0	33.7580	0	26.581	0	173.336	0	123.8	4	40.8	4	-1E+10	1	-1E+10	1	-1E+10	1	-1E+10	1	-1E+10	1	-1E+10	1
4902551	35	C	07/27/2021	15:06	-134.891	49.444	0	176.20	0	5.9310	0	33.7590	0	26.583	0	174.624	0	123.0	4	40.5	4	-1E+10	1	-1E+10	1	-1E+10	1	-1E+10	1	-1E+10	1	-1E+10	1
4902551	35	C	07/27/2021	15:06	-134.891	49.444	0	177.00	0	5.9280	0	33.7590	0	26.583	0	175.416	0	122.4	4	40.3	4	-1E+10	1	-1E+10	1	-1E+10	1	-1E+10	1	-1E+10	1	-1E+10	1
4902551	35	C	07/27/2021	15:06	-134.891	49.444	0	177.90	0	5.9140	0	33.7630	0	26.588	0	176.308	0	121.8	4	40.1	4	-1E+10	1	-1E+10	1	-1E+10	1	-1E+10	1	-1E+10	1	-1E+10	1
4902551	35	C	07/27/2021	15:06	-134.891	49.444	0	178.80	0	5.9050	0	33.7650	0	26.591	0	177.199	0	121.2	4	39.9	4	-1E+10	1	-1E+10	1	-1E+10	1	-1E+10	1	-1E+10	1	-1E+10	1
4902551	35	C	07/27/2021	15:06	-134.891	49.444	0	179.60	0	5.8970	0	33.7630	0	26.590	0	177.992	0	120.4	4	39.6	4	-1E+10	1	-1E+10	1	-1E+10	1	-1E+10	1	-1E+10	1	-1E+10	1
4902551	35	C	07/27/2021	15:06	-134.891	49.444	0	180.90	0	5.8770	0	33.7640	0	26.593	0	179.280	0	119.0	4	39.1	4	-1E+10	1	-1E+10	1	-1E+10	1	-1E+10	1	-1E+10	1	-1E+10	1
4902551	35	C	07/27/2021	15:06	-134.891	49.444	0	182.20	0	5.8670	0	33.7690	0	26.599	0	180.568	0	117.5	4	38.7	4	-1E+10	1	-1E+10	1	-1E+10	1	-1E+10	1	-1E+10	1	-1E+10	1
4902551	35	C	07/27/2021	15:06	-134.891	49.444	0	183.00	0	5.8580	0	33.7740	0	26.604	0	181.360	0	116.8	4	38.4	4	-1E+10	1	-1E+10	1	-1E+10	1	-1E+10	1	-1E+10	1	-1E+10	1
4902551	35	C	07/27/2021	15:06	-134.891	49.444	0	183.90	0	5.8660	0	33.7720	0	26.601	0	182.252	0	116.1	4	38.2	4	-1E+10	1	-1E+10	1	-1E+10	1	-1E+10	1	-1E+10	1	-1E+10	1
4902551	35	C	07/27/2021	15:06	-134.891	49.444	0	184.70	0	5.8510	0	33.7830	0	26.612	0	183.044	0	115.6	4	38.0	4	-1E+10	1	-1E+10	1	-1E+10	1	-1E+10	1	-1E+10	1	-1E+10	1
4902551	35	C	07/27/2021	15:06	-134.891	49.444	0	185.60	0	5.8300	0	33.7850	0	26.616	0	183.936	0	115.4	4	37.9	4	-1E+10	1	-1E+10	1	-1E+10	1	-1E+10	1	-1E+10	1	-1E+10	1
4902551	35	C	07/27/2021	15:06	-134.891	49.444	0	186.90	0	5.8160	0	33.7870	0	26.619	0	185.223	0	115.1	4	37.8	4	-1E+10	1	-1E+10	1	-1E+10	1	-1E+10	1	-1E+10	1	-1E+10	1
4902551	35	C	07/27/2021	15:06	-134.891	49.444	0	188.30	0	5.8030	0	33.7870	0	26.621	0	186.610	0	114.9	4	37.8	4	-1E+10	1	-1E+10	1	-1E+10	1	-1E+10	1	-1E+10	1	-1E+10	1
4902551	35	C	07/27/2021	15:06	-134.891	49.444	0	189.20	0	5.7990	0	33.7870	0	26.621	0	187.502	0	114.7	4	37.7	4	-1E+10	1	-1E+10	1	-1E+10	1	-1E+10	1	-1E+10	1	-1E+10	1
4902551	35	C	07/27/2021	15:06	-134.891	49.444	0	190.10	0	5.7720	0	33.7910	0	26.628	0	188.393	0	114.6	4	37.6	4	-1E+10	1	-1E+10	1	-1E+10	1	-1E+10	1	-1E+10	1	-1E+10	1
4902551	35	C	07/27/2021	15:06	-134.891	49.444	0	190.90	0	5.7070	0	33.7920	0	26.636	0	189.186	0	114.3	4	37.5	4	-1E+10	1	-1E+10	1	-1E+10	1	-1E+10	1	-1E+10	1	-1E+10	1
4902551	35	C	07/27/2021	15:06	-134.891	49.444	0	191.90	0	5.7150	0	33.7930	0	26.636	0	190.176	0	114.3	4	37.5	4	-1E+10	1	-1E+10	1	-1E+10	1	-1E+10	1	-1E+10	1	-1E+10	1
4902551	35	C	07/27/2021	15:06	-134.891	49.444	0	192.80	0	5.6920	0	33.7940	0	26.640	0	191.068	0	114.4	4	37.5	4	-1E+10	1	-1E+10	1	-1E+10	1	-1E+10	1	-1E+10	1	-1E+10	1
4902551	35	C	07/27/2021	15:06	-134.891	49.444	0	193.70	0	5.6560	0	33.7930	0	26.643	0	191.959	0	114.5	4	37.5	4	-1E+10	1	-1E+10	1	-1E+10	1	-1E+10	1	-1E+10	1	-1E+10	1
4902551	35	C	07/27/2021	15:06	-134.891	49.444	0	194.60	0	5.6190	0	33.7930	0	26.648	0	192.851	0	114.5	4	37.5	4	-1E+10	1	-1E+10	1	-1E+10	1	-1E+10	1	-1E+10	1	-1E+10	1
4902551	35	C	07/27/2021	15:06	-134.891	49.444	0	195.90	0	5.6010	0	33.7920	0	26.649	0	194.138	0	114.5	4	37.5	4	-1E+10	1	-1E+10	1	-1E+10	1	-1E+10	1	-1E+10	1	-1E+10	1
4902551	35	C	07/27/2021	15:06	-134.891	49.444	0	197.30	0	5.5770	0	33.7940	0	26.654	0	195.525	0	114.5	4	37.4	4	-1E+10	1	-1E+10	1	-1E+10	1	-1E+10	1	-1E+10	1	-1E+10	1
4902551	35	C	07/27/2021	15:06	-134.891	49.444	0	198.20	0	5.5410	0	33.7940	0	26.658	0	196.417	0	114.5	4	37.4	4	-1E+10	1	-1E+10	1	-1E+10	1	-1E+10	1	-1E+10	1	-1E+10	1
4902551	35	C	07/27/2021	15:06	-134.891	49.444	0	199.10	0	5.5370	0	33.7960	0	26.660	0	197.308	0	114.5	4	37.4	4	-1E+10	1	-1E+10	1	-1E+10	1	-1E+10	1	-1E+10	1	-1E+10	1
4902551	35	C	07/27/2021	15:06	-134.891	49.444	0	200.00	0	5.5170	0	33.7950	0	26.662	0	198.199	0	114.4	4	37.3	4	-1E+10	1	-1E+10	1	-1E+10	1	-1E+10	1	-1E+10	1	-1E+10	1
4902551	35	C	07/27/2021	15:06	-134.891	49.444	0	200.90	0	5.4920	0	33.7950	0	26.665	0	199.091	0	114.1	4	37.2	4	-1E+10	1	-1E+10	1	-1E+10	1	-1E+10	1	-1E+10	1	-1E+10	1
4902551	35	C	07/27/2021	15:06	-134.891	49.444	0	201.80	0	5.4790	0	33.7930	0	26.665	0	199.982	0	113.6	4	37.1	4	-1E+10	1	-1E+10	1	-1E+10	1	-1E+10	1	-1E+10	1	-1E+10	1
4902551	35	C	07/27/2021	15:06	-134.891	49.444	0	202.70	0	5.4760	0	33.7920	0	26.664	0	200.874	0	113.0	4	36.9	4	-1E+10	1	-1E+10	1	-1E+10	1	-1E+10	1	-1E+10	1	-1E+10	1
4902551	35	C	07/27/2021	15:06	-134.891	49.444	0	203.70	0	5.4680	0	33.7930	0	26.666	0	201.864	0	112.3	4	36.6	4	-1E+10	1	-1E+10	1	-1E+10	1	-1E+10	1	-1E+10	1	-1E+10	1
4902551	35	C	07/27/2021	15:06	-134.891	49.444	0	204.60	0	5.4530	0	33.7950	0	26.669	0	202.756	0	111.7	4	36.4	4	-1E+10	1	-1E+10	1	-1E+10	1	-1E+10	1	-1E+10	1	-1E+10	1
4902551	35	C	07/27/2021	15:06	-134.891	49.444	0	205.90	0	5.4350	0	33.7960	0	26.672	0	204.043	0	110.8	4	36.1	4	-1E+10	1	-1E+10	1	-1E+10	1	-1E+10	1	-1E+10	1	-1E+10	1
4902551	35	C	07/27/2021	15:06	-134.891	49.444	0	207.30	0	5.4210	0	33.7980	0	26.676	0	205.430	0	109.9	4	35.8	4	-1E+10	1	-1E+10	1	-1E+10	1	-1E+10	1	-1E+10	1	-1E+10	1
4902551	35	C	07/27/2021	15:06	-134.891	49.444	0	208.20	0	5.4180	0	33.7980	0	26.676	0	206.322	0	109.3	4	35.6	4	-1E+10	1	-1E+10	1	-1E+10	1	-1E+10	1	-1E+10	1	-1E+10	1
4902551	35	C	07/27/2021	15:06	-134.891	49.444	0	209.20	0	5.3920	0	33.8040	0	26.684	0	207.312	0	108.8	4	35.4	4	-1E+10	1	-1E+10	1	-1E+10	1	-1E+10	1	-1E+10	1	-1E+10	1
4902551	35	C	07/27/2021	15:06	-134.891	49.444	0	210.10	0	5.3690	0	33.8030	0	26.686	0	208.203	0	108.4	4	35.3	4	-1E+10	1	-1E+10	1	-1E+10	1	-1E+10	1	-1E+10	1	-1E+10	1
4902551	35	C	07/27/2021	15:06	-134.891	49.444	0	211.10	0	5.3520	0	33.8060	0	26.690	0	209.194	0	108.0	4	35.1	4	-1E+10	1	-1E+10	1	-1E+10	1	-1E+10	1	-1E+10	1	-1E+10	1
4902551	35	C	07/27/2021	15:06	-134.891	49.444	0	212.00	0	5.3230	0	33.8070	0	26.694	0	210.085	0	107.7	4	35.0	4	-1E+10	1	-1E+10	1	-1E+10	1	-1E+10	1	-1E+10	1	-1E+10	1
4902551	35	C	07/27/2021	15:06	-134.891	49.444	0	212.90	0	5.3160	0	33.8080	0	26.696	0	210.977	0	107.5	4	34.9	4	-1E+10	1	-1E+10	1	-1E+10	1	-1E+10	1	-1E+10	1	-1E+10	1
4902551	35	C	07/27/2021	15:06	-134.891	49.444	0	213.90	0	5.3150	0	33.8090	0	26.697	0	211.967	0	107.1	4	34.8	4	-1E+10	1	-1E+10	1	-1E+10	1	-1E+10	1	-1E+10	1	-1E+10	1
4902551	35	C	07/27/2021	15:06	-134.891	49.444	0	214.80	0	5.3160	0	33.8070	0	26.695	0	212.859	0	106.8	4	34.7	4	-1E+10	1	-1E+10	1	-1E+10	1	-1E+10	1	-1E+10	1	-1E+10	1
4902551	35	C	07/27/2021	15:06	-134.891	49.444	0	215.80	0	5.3160	0	33.8090	0	26.697	0	213.849	0	106.4	4	34.6	4	-1E+10	1	-1E+10	1	-1E+10	1	-1E+10	1	-1E+10	1	-1E+10	1
4902551	35	C	07/27/2021	15:06	-134.891	49.444	0	216.80	0	5.3120	0	33.8090	0	26.697	0	214.840	0	106.0	4	34.4	4	-1E+10	1	-1E+10	1	-1E+10	1	-1E+10	1	-1E+10	1	-1E+10	1
4902551	35	C	07/27/2021	15:06	-134.891	49.444	0	217.80	0	5.3090	0	33.8090	0	26.698	0	215.830	0	105.5	4	34.3	4	-1E+10	1	-1E+10	1	-1E+10	1	-1E+10	1	-1E+10	1	-1E+10	1
4902551	35	C	07/27/2021	15:06	-134.891	49.444	0	218.70	0	5.3060	0	33.8100	0	26.699	0	216.721	0	105.0	4	34.1	4	-1E+10	1	-1E+10	1	-1E+10	1	-1E+10	1	-1E+10	1	-1E+10	1
4902551	35	C	07/27/2021	15:06	-134.891	49.444	0	219.70	0	5.3020	0	33.8100	0	26.699	0	217.712	0	104.5	4	33.9	4	-1E+10	1	-1E+10	1	-1E+10	1	-1E+10	1	-1E+10	1	-1E+10	1
4902551	35	C	07/27/2021	15:06	-134.891	49.444	0	220.70	0	5.2950	0	33.8110	0	26.701	0	218.702	0	104.0	4	33.8	4	-1E+10	1	-1E+10	1	-1E+10	1	-1E+10	1	-1E+10	1	-1E+10	1
4902551	35	C	07/27/2021	15:06	-134.891	49.444	0	221.70	0	5.2920	0	33.8110	0	26.701	0	219.693	0	103.4	4	33.6	4	-1E+10	1	-1E+10	1	-1E+10	1	-1E+10	1	-1E+10	1	-1E+10	1
4902551	35	C	07/27/2021	15:06	-134.891	49.444	0	222.70	0	5.2780	0	33.8140	0	26.705	0	220.683	0	103.0	4	33.4	4	-1E+10	1	-1E+10	1	-1E+10	1	-1E+10	1	-1E+10	1	-1E+10	1
4902551	35	C	07/27/2021	15:06	-134.891	49.444	0	223.70	0	5.2680	0	33.8140	0	26.706	0	221.673	0	102.5	4	33.3	4	-1E+10	1	-1E+10	1	-1E+10	1	-1E+10	1	-1E+10	1	-1E+10	1
4902551	35	C	07/27/2021	15:06	-134.891	49.444	0	224.70	0	5.2640	0	33.8140	0	26.707	0	222.664	0	102.0	4	33.1	4	-1E+10	1	-1E+10	1	-1E+10	1	-1E+10	1	-1E+10	1	-1E+10	1
4902551	35	C	07/27/2021	15:06	-134.891	49.444	0	225.70	0	5.2610	0	33.8140	0	26.707	0	223.654	0	101.4	4	32.9	4	-1E+10	1	-1E+10	1	-1E+10	1	-1E+10	1	-1E+10	1	-1E+10	1
4902551	35	C	07/27/2021	15:06	-134.891	49.444	0	226.70	0	5.2560	0	33.8150	0	26.709	0	224.645	0	100.8	4	32.7	4	-1E+10	1	-1E+10	1	-1E+10	1	-1E+10	1	-1E+10	1	-1E+10	1
4902551	35	C	07/27/2021	15:06	-134.891	49.444	0	227.60	0	5.2520	0	33.8150	0	26.709	0	225.536	0	100.1	4	32.5	4	-1E+10	1	-1E+10	1	-1E+10	1	-1E+10	1	-1E+10	1	-1E+10	1
4902551	35	C	07/27/2021	15:06	-134.891	49.444	0	228.60	0	5.2340	0	33.8190	0	26.714	0	226.526	0	99.4	4	32.2	4	-1E+10	1	-1E+10	1	-1E+10	1	-1E+10	1	-1E+10	1	-1E+10	1
4902551	35	C	07/27/2021	15:06	-134.891	49.444	0	229.60	0	5.2310	0	33.8190	0	26.715	0	227.517	0	98.7	4	32.0	4	-1E+10	1	-1E+10	1	-1E+10	1	-1E+10	1	-1E+10	1	-1E+10	1
4902551	35	C	07/27/2021	15:06	-134.891	49.444	0	230.70	0	5.2210	0	33.8220	0	26.718	0	228.606	0	98.2	4	31.8	4	-1E+10	1	-1E+10	1	-1E+10	1	-1E+10	1	-1E+10	1	-1E+10	1
4902551	35	C	07/27/2021	15:06	-134.891	49.444	0	231.70	0	5.2140	0	33.8240	0	26.721	0	229.597	0	97.8	4	31.7	4	-1E+10	1	-1E+10	1	-1E+10	1	-1E+10	1	-1E+10	1	-1E+10	1
4902551	35	C	07/27/2021	15:06	-134.891	49.444	0	232.70	0	5.2140	0	33.8240	0	26.721	0	230.587	0	97.4	4	31.6	4	-1E+10	1	-1E+10	1	-1E+10	1	-1E+10	1	-1E+10	1	-1E+10	1
4902551	35	C	07/27/2021	15:06	-134.891	49.444	0	233.70	0	5.2140	0	33.8240	0	26.721	0	231.577	0	97.1	4	31.5	4	-1E+10	1	-1E+10	1	-1E+10	1	-1E+10	1	-1E+10	1	-1E+10	1
4902551	35	C	07/27/2021	15:06	-134.891	49.444	0	234.80	0	5.2140	0	33.8240	0	26.721	0	232.667	0	96.6	4	31.3	4	-1E+10	1	-1E+10	1	-1E+10	1	-1E+10	1	-1E+10	1	-1E+10	1
4902551	35	C	07/27/2021	15:06	-134.891	49.444	0	235.80	0	5.2140	0	33.8240	0	26.721	0	233.657	0	96.2	4	31.2	4	-1E+10	1	-1E+10	1	-1E+10	1	-1E+10	1	-1E+10	1	-1E+10	1
4902551	35	C	07/27/2021	15:06	-134.891	49.444	0	236.80	0	5.2140	0	33.8240	0	26.721	0	234.647	0	95.6	4	31.0	4	-1E+10	1	-1E+10	1	-1E+10	1	-1E+10	1	-1E+10	1	-1E+10	1
4902551	35	C	07/27/2021	15:06	-134.891	49.444	0	237.90	0	5.2140	0	33.8240	0	26.721	0	235.737	0	95.0	4	30.8	4	-1E+10	1	-1E+10	1	-1E+10	1	-1E+10	1	-1E+10	1	-1E+10	1
4902551	35	C	07/27/2021	15:06	-134.891	49.444	0	239.00	0	5.2070	0	33.8250	0	26.722	0	236.826	0	94.3	4	30.6	4	-1E+10	1	-1E+10	1	-1E+10	1	-1E+10	1	-1E+10	1	-1E+10	1
4902551	35	C	07/27/2021	15:06	-134.891	49.444	0	240.00	0	5.2040	0	33.8250	0	26.723	0	237.816	0	93.7	4	30.4	4	-1E+10	1	-1E+10	1	-1E+10	1	-1E+10	1	-1E+10	1	-1E+10	1
4902551	35	C	07/27/2021	15:06	-134.891	49.444	0	241.00	0	5.1970	0	33.8270	0	26.725	0	238.807	0	93.1	4	30.2	4	-1E+10	1	-1E+10	1	-1E+10	1	-1E+10	1	-1E+10	1	-1E+10	1
4902551	35	C	07/27/2021	15:06	-134.891	49.444	0	242.10	0	5.1830	0	33.8280	0	26.727	0	239.896	0	92.5	4	30.0	4	-1E+10	1	-1E+10	1	-1E+10	1	-1E+10	1	-1E+10	1	-1E+10	1
4902551	35	C	07/27/2021	15:06	-134.891	49.444	0	243.10	0	5.1630	0	33.8310	0	26.732	0	240.886	0	92.0	4	29.8	4	-1E+10	1	-1E+10	1	-1E+10	1	-1E+10	1	-1E+10	1	-1E+10	1
4902551	35	C	07/27/2021	15:06	-134.891	49.444	0	244.20	0	5.1510	0	33.8320	0	26.734	0	241.976	0	91.5	4	29.6	4	-1E+10	1	-1E+10	1	-1E+10	1	-1E+10	1	-1E+10	1	-1E+10	1
4902551	35	C	07/27/2021	15:06	-134.891	49.444	0	245.20	0	5.1330	0	33.8340	0	26.738	0	242.966	0	91.0	4	29.4	4	-1E+10	1	-1E+10	1	-1E+10	1	-1E+10	1	-1E+10	1	-1E+10	1
4902551	35	C	07/27/2021	15:06	-134.891	49.444	0	246.30	0	5.1280	0	33.8340	0	26.739	0	244.055	0	90.5	4	29.3	4	-1E+10	1	-1E+10	1	-1E+10	1	-1E+10	1	-1E+10	1	-1E+10	1
4902551	35	C	07/27/2021	15:06	-134.891	49.444	0	247.40	0	5.1190	0	33.8350	0	26.740	0	245.145	0	90.1	4	29.1	4	-1E+10	1	-1E+10	1	-1E+10	1	-1E+10	1	-1E+10	1	-1E+10	1
4902551	35	C	07/27/2021	15:06	-134.891	49.444	0	248.40	0	5.1140	0	33.8360	0	26.742	0	246.135	0	89.5	4	28.9	4	-1E+10	1	-1E+10	1	-1E+10	1	-1E+10	1	-1E+10	1	-1E+10	1
4902551	35	C	07/27/2021	15:06	-134.891	49.444	0	249.50	0	5.1040	0	33.8360	0	26.743	0	247.224	0	89.0	4	28.8	4	-1E+10	1	-1E+10	1	-1E+10	1	-1E+10	1	-1E+10	1	-1E+10	1
4902551	35	C	07/27/2021	15:06	-134.891	49.444	0	250.50	0	5.0980	0	33.8370	0	26.744	0	248.215	0	88.4	4	28.6	4	-1E+10	1	-1E+10	1	-1E+10	1	-1E+10	1	-1E+10	1	-1E+10	1
4902551	35	C	07/27/2021	15:06	-134.891	49.444	0	251.60	0	5.0900	0	33.8390	0	26.747	0	249.304	0	87.9	4	28.4	4	-1E+10	1	-1E+10	1	-1E+10	1	-1E+10	1	-1E+10	1	-1E+10	1
4902551	35	C	07/27/2021	15:06	-134.891	49.444	0	252.60	0	5.0680	0	33.8410	0	26.751	0	250.294	0	87.3	4	28.2	4	-1E+10	1	-1E+10	1	-1E+10	1	-1E+10	1	-1E+10	1	-1E+10	1
4902551	35	C	07/27/2021	15:06	-134.891	49.444	0	253.70	0	5.0640	0	33.8420	0	26.752	0	251.383	0	86.8	4	28.0	4	-1E+10	1	-1E+10	1	-1E+10	1	-1E+10	1	-1E+10	1	-1E+10	1
4902551	35	C	07/27/2021	15:06	-134.891	49.444	0	254.80	0	5.0590	0	33.8420	0	26.753	0	252.473	0	86.3	4	27.9	4	-1E+10	1	-1E+10	1	-1E+10	1	-1E+10	1	-1E+10	1	-1E+10	1
4902551	35	C	07/27/2021	15:06	-134.891	49.444	0	255.80	0	5.0500	0	33.8430	0	26.755	0	253.463	0	85.7	4	27.7	4	-1E+10	1	-1E+10	1	-1E+10	1	-1E+10	1	-1E+10	1	-1E+10	1
4902551	35	C	07/27/2021	15:06	-134.891	49.444	0	256.90	0	5.0500	0	33.8430	0	26.755	0	254.552	0	85.1	4	27.5	4	-1E+10	1	-1E+10	1	-1E+10	1	-1E+10	1	-1E+10	1	-1E+10	1
4902551	35	C	07/27/2021	15:06	-134.891	49.444	0	257.90	0	5.0480	0	33.8430	0	26.755	0	255.542	0	84.5	4	27.3	4	-1E+10	1	-1E+10	1	-1E+10	1	-1E+10	1	-1E+10	1	-1E+10	1
4902551	35	C	07/27/2021	15:06	-134.891	49.444	0	259.00	0	5.0330	0	33.8450	0	26.758	0	256.632	0	83.9	4	27.1	4	-1E+10	1	-1E+10	1	-1E+10	1	-1E+10	1	-1E+10	1	-1E+10	1
4902551	35	C	07/27/2021	15:06	-134.891	49.444	0	260.00	0	5.0230	0	33.8470	0	26.761	0	257.622	0	83.3	4	26.9	4	-1E+10	1	-1E+10	1	-1E+10	1	-1E+10	1	-1E+10	1	-1E+10	1
4902551	35	C	07/27/2021	15:06	-134.891	49.444	0	261.10	0	5.0090	0	33.8480	0	26.763	0	258.711	0	82.7	4	26.7	4	-1E+10	1	-1E+10	1	-1E+10	1	-1E+10	1	-1E+10	1	-1E+10	1
4902551	35	C	07/27/2021	15:06	-134.891	49.444	0	262.10	0	4.9930	0	33.8510	0	26.768	0	259.701	0	82.2	4	26.5	4	-1E+10	1	-1E+10	1	-1E+10	1	-1E+10	1	-1E+10	1	-1E+10	1
4902551	35	C	07/27/2021	15:06	-134.891	49.444	0	263.20	0	4.9890	0	33.8510	0	26.768	0	260.791	0	81.6	4	26.3	4	-1E+10	1	-1E+10	1	-1E+10	1	-1E+10	1	-1E+10	1	-1E+10	1
4902551	35	C	07/27/2021	15:06	-134.891	49.444	0	264.30	0	4.9790	0	33.8530	0	26.771	0	261.880	0	81.1	4	26.2	4	-1E+10	1	-1E+10	1	-1E+10	1	-1E+10	1	-1E+10	1	-1E+10	1
4902551	35	C	07/27/2021	15:06	-134.891	49.444	0	265.30	0	4.9610	0	33.8560	0	26.775	0	262.870	0	80.6	4	26.0	4	-1E+10	1	-1E+10	1	-1E+10	1	-1E+10	1	-1E+10	1	-1E+10	1
4902551	35	C	07/27/2021	15:06	-134.891	49.444	0	266.40	0	4.9580	0	33.8550	0	26.775	0	263.959	0	80.2	4	25.8	4	-1E+10	1	-1E+10	1	-1E+10	1	-1E+10	1	-1E+10	1	-1E+10	1
4902551	35	C	07/27/2021	15:06	-134.891	49.444	0	267.50	0	4.9450	0	33.8570	0	26.778	0	265.049	0	79.8	4	25.7	4	-1E+10	1	-1E+10	1	-1E+10	1	-1E+10	1	-1E+10	1	-1E+10	1
4902551	35	C	07/27/2021	15:06	-134.891	49.444	0	268.50	0	4.9440	0	33.8570	0	26.778	0	266.039	0	79.3	4	25.5	4	-1E+10	1	-1E+10	1	-1E+10	1	-1E+10	1	-1E+10	1	-1E+10	1
4902551	35	C	07/27/2021	15:06	-134.891	49.444	0	269.60	0	4.9410	0	33.8570	0	26.778	0	267.128	0	78.8	4	25.4	4	-1E+10	1	-1E+10	1	-1E+10	1	-1E+10	1	-1E+10	1	-1E+10	1
4902551	35	C	07/27/2021	15:06	-134.891	49.444	0	270.60	0	4.9310	0	33.8590	0	26.781	0	268.118	0	78.3	4	25.2	4	-1E+10	1	-1E+10	1	-1E+10	1	-1E+10	1	-1E+10	1	-1E+10	1
4902551	35	C	07/27/2021	15:06	-134.891	49.444	0	271.70	0	4.9250	0	33.8600	0	26.782	0	269.207	0	77.9	4	25.1	4	-1E+10	1	-1E+10	1	-1E+10	1	-1E+10	1	-1E+10	1	-1E+10	1
4902551	35	C	07/27/2021	15:06	-134.891	49.444	0	272.80	0	4.9170	0	33.8600	0	26.783	0	270.297	0	77.4	4	24.9	4	-1E+10	1	-1E+10	1	-1E+10	1	-1E+10	1	-1E+10	1	-1E+10	1
4902551	35	C	07/27/2021	15:06	-134.891	49.444	0	273.80	0	4.9130	0	33.8600	0	26.784	0	271.287	0	76.9	4	24.8	4	-1E+10	1	-1E+10	1	-1E+10	1	-1E+10	1	-1E+10	1	-1E+10	1
4902551	35	C	07/27/2021	15:06	-134.891	49.444	0	274.90	0	4.8850	0	33.8650	0	26.791	0	272.376	0	76.5	4	24.6	4	-1E+10	1	-1E+10	1	-1E+10	1	-1E+10	1	-1E+10	1	-1E+10	1
4902551	35	C	07/27/2021	15:06	-134.891	49.444	0	276.00	0	4.8810	0	33.8650	0	26.791	0	273.465	0	76.1	4	24.5	4	-1E+10	1	-1E+10	1	-1E+10	1	-1E+10	1	-1E+10	1	-1E+10	1
4902551	35	C	07/27/2021	15:06	-134.891	49.444	0	277.00	0	4.8770	0	33.8640	0	26.791	0	274.455	0	75.7	4	24.3	4	-1E+10	1	-1E+10	1	-1E+10	1	-1E+10	1	-1E+10	1	-1E+10	1
4902551	35	C	07/27/2021	15:06	-134.891	49.444	0	278.10	0	4.8690	0	33.8650	0	26.793	0	275.544	0	75.3	4	24.2	4	-1E+10	1	-1E+10	1	-1E+10	1	-1E+10	1	-1E+10	1	-1E+10	1
4902551	35	C	07/27/2021	15:06	-134.891	49.444	0	279.20	0	4.8550	0	33.8670	0	26.796	0	276.634	0	74.9	4	24.1	4	-1E+10	1	-1E+10	1	-1E+10	1	-1E+10	1	-1E+10	1	-1E+10	1
4902551	35	C	07/27/2021	15:06	-134.891	49.444	0	280.20	0	4.8550	0	33.8690	0	26.797	0	277.624	0	74.5	4	23.9	4	-1E+10	1	-1E+10	1	-1E+10	1	-1E+10	1	-1E+10	1	-1E+10	1
4902551	35	C	07/27/2021	15:06	-134.891	49.444	0	281.30	0	4.8530	0	33.8690	0	26.798	0	278.713	0	74.1	4	23.8	4	-1E+10	1	-1E+10	1	-1E+10	1	-1E+10	1	-1E+10	1	-1E+10	1
4902551	35	C	07/27/2021	15:06	-134.891	49.444	0	282.40	0	4.8530	0	33.8690	0	26.798	0	279.802	0	73.7	4	23.7	4	-1E+10	1	-1E+10	1	-1E+10	1	-1E+10	1	-1E+10	1	-1E+10	1
4902551	35	C	07/27/2021	15:06	-134.891	49.444	0	283.40	0	4.8480	0	33.8710	0	26.800	0	280.792	0	73.3	4	23.6	4	-1E+10	1	-1E+10	1	-1E+10	1	-1E+10	1	-1E+10	1	-1E+10	1
4902551	35	C	07/27/2021	15:06	-134.891	49.444	0	284.30	0	4.8460	0	33.8710	0	26.800	0	281.683	0	72.9	4	23.4	4	-1E+10	1	-1E+10	1	-1E+10	1	-1E+10	1	-1E+10	1	-1E+10	1
4902551	35	C	07/27/2021	15:06	-134.891	49.444	0	285.90	0	4.8230	0	33.8750	0	26.806	0	283.267	0	72.4	4	23.3	4	-1E+10	1	-1E+10	1	-1E+10	1	-1E+10	1	-1E+10	1	-1E+10	1
4902551	35	C	07/27/2021	15:06	-134.891	49.444	0	287.10	0	4.8150	0	33.8770	0	26.808	0	284.456	0	72.0	4	23.1	4	-1E+10	1	-1E+10	1	-1E+10	1	-1E+10	1	-1E+10	1	-1E+10	1
4902551	35	C	07/27/2021	15:06	-134.891	49.444	0	287.90	0	4.8110	0	33.8770	0	26.809	0	285.248	0	71.8	4	23.1	4	-1E+10	1	-1E+10	1	-1E+10	1	-1E+10	1	-1E+10	1	-1E+10	1
4902551	35	C	07/27/2021	15:06	-134.891	49.444	0	288.70	0	4.8070	0	33.8780	0	26.810	0	286.040	0	71.6	4	23.0	4	-1E+10	1	-1E+10	1	-1E+10	1	-1E+10	1	-1E+10	1	-1E+10	1
4902551	35	C	07/27/2021	15:06	-134.891	49.444	0	290.00	0	4.7960	0	33.8800	0	26.813	0	287.327	0	71.3	4	22.9	4	-1E+10	1	-1E+10	1	-1E+10	1	-1E+10	1	-1E+10	1	-1E+10	1
4902551	35	C	07/27/2021	15:06	-134.891	49.444	0	291.20	0	4.7950	0	33.8800	0	26.813	0	288.515	0	70.9	4	22.8	4	-1E+10	1	-1E+10	1	-1E+10	1	-1E+10	1	-1E+10	1	-1E+10	1
4902551	35	C	07/27/2021	15:06	-134.891	49.444	0	292.00	0	4.7950	0	33.8800	0	26.813	0	289.307	0	70.7	4	22.7	4	-1E+10	1	-1E+10	1	-1E+10	1	-1E+10	1	-1E+10	1	-1E+10	1
4902551	35	C	07/27/2021	15:06	-134.891	49.444	0	292.80	0	4.7940	0	33.8800	0	26.813	0	290.099	0	70.5	4	22.6	4	-1E+10	1	-1E+10	1	-1E+10	1	-1E+10	1	-1E+10	1	-1E+10	1
4902551	35	C	07/27/2021	15:06	-134.891	49.444	0	293.70	0	4.7940	0	33.8800	0	26.813	0	290.990	0	70.2	4	22.5	4	-1E+10	1	-1E+10	1	-1E+10	1	-1E+10	1	-1E+10	1	-1E+10	1
4902551	35	C	07/27/2021	15:06	-134.891	49.444	0	294.90	0	4.7910	0	33.8810	0	26.814	0	292.178	0	69.8	4	22.4	4	-1E+10	1	-1E+10	1	-1E+10	1	-1E+10	1	-1E+10	1	-1E+10	1
4902551	35	C	07/27/2021	15:06	-134.891	49.444	0	296.20	0	4.7870	0	33.8810	0	26.815	0	293.465	0	69.3	4	22.3	4	-1E+10	1	-1E+10	1	-1E+10	1	-1E+10	1	-1E+10	1	-1E+10	1
4902551	35	C	07/27/2021	15:06	-134.891	49.444	0	297.00	0	4.7700	0	33.8860	0	26.821	0	294.257	0	69.2	4	22.2	4	-1E+10	1	-1E+10	1	-1E+10	1	-1E+10	1	-1E+10	1	-1E+10	1
4902551	35	C	07/27/2021	15:06	-134.891	49.444	0	297.80	0	4.7670	0	33.8860	0	26.821	0	295.049	0	69.0	4	22.1	4	-1E+10	1	-1E+10	1	-1E+10	1	-1E+10	1	-1E+10	1	-1E+10	1
4902551	35	C	07/27/2021	15:06	-134.891	49.444	0	298.70	0	4.7650	0	33.8860	0	26.821	0	295.940	0	68.8	4	22.1	4	-1E+10	1	-1E+10	1	-1E+10	1	-1E+10	1	-1E+10	1	-1E+10	1
4902551	35	C	07/27/2021	15:06	-134.891	49.444	0	300.00	0	4.7650	0	33.8860	0	26.821	0	297.227	0	68.4	4	22.0	4	-1E+10	1	-1E+10	1	-1E+10	1	-1E+10	1	-1E+10	1	-1E+10	1
4902551	35	C	07/27/2021	15:06	-134.891	49.444	0	301.30	0	4.7620	0	33.8870	0	26.822	0	298.514	0	68.0	4	21.8	4	-1E+10	1	-1E+10	1	-1E+10	1	-1E+10	1	-1E+10	1	-1E+10	1
4902551	35	C	07/27/2021	15:06	-134.891	49.444	0	302.10	0	4.7610	0	33.8870	0	26.822	0	299.307	0	67.8	4	21.7	4	-1E+10	1	-1E+10	1	-1E+10	1	-1E+10	1	-1E+10	1	-1E+10	1
4902551	35	C	07/27/2021	15:06	-134.891	49.444	0	303.00	0	4.7600	0	33.8870	0	26.823	0	300.198	0	67.5	4	21.7	4	-1E+10	1	-1E+10	1	-1E+10	1	-1E+10	1	-1E+10	1	-1E+10	1
4902551	35	C	07/27/2021	15:06	-134.891	49.444	0	303.80	0	4.7520	0	33.8890	0	26.825	0	300.990	0	67.2	4	21.6	4	-1E+10	1	-1E+10	1	-1E+10	1	-1E+10	1	-1E+10	1	-1E+10	1
4902551	35	C	07/27/2021	15:06	-134.891	49.444	0	304.70	0	4.7470	0	33.8900	0	26.826	0	301.881	0	66.9	4	21.5	4	-1E+10	1	-1E+10	1	-1E+10	1	-1E+10	1	-1E+10	1	-1E+10	1
4902551	35	C	07/27/2021	15:06	-134.891	49.444	0	305.90	0	4.7450	0	33.8890	0	26.826	0	303.069	0	66.5	4	21.3	4	-1E+10	1	-1E+10	1	-1E+10	1	-1E+10	1	-1E+10	1	-1E+10	1
4902551	35	C	07/27/2021	15:06	-134.891	49.444	0	307.20	0	4.7380	0	33.8910	0	26.828	0	304.356	0	66.2	4	21.2	4	-1E+10	1	-1E+10	1	-1E+10	1	-1E+10	1	-1E+10	1	-1E+10	1
4902551	35	C	07/27/2021	15:06	-134.891	49.444	0	308.10	0	4.7300	0	33.8930	0	26.831	0	305.247	0	66.0	4	21.2	4	-1E+10	1	-1E+10	1	-1E+10	1	-1E+10	1	-1E+10	1	-1E+10	1
4902551	35	C	07/27/2021	15:06	-134.891	49.444	0	309.00	0	4.7240	0	33.8940	0	26.832	0	306.138	0	65.7	4	21.1	4	-1E+10	1	-1E+10	1	-1E+10	1	-1E+10	1	-1E+10	1	-1E+10	1
4902551	35	C	07/27/2021	15:06	-134.891	49.444	0	309.80	0	4.7190	0	33.8940	0	26.833	0	306.930	0	65.5	4	21.0	4	-1E+10	1	-1E+10	1	-1E+10	1	-1E+10	1	-1E+10	1	-1E+10	1
4902551	35	C	07/27/2021	15:06	-134.891	49.444	0	310.70	0	4.7190	0	33.8940	0	26.833	0	307.821	0	65.2	4	20.9	4	-1E+10	1	-1E+10	1	-1E+10	1	-1E+10	1	-1E+10	1	-1E+10	1
4902551	35	C	07/27/2021	15:06	-134.891	49.444	0	311.90	0	4.7170	0	33.8950	0	26.834	0	309.009	0	64.8	4	20.8	4	-1E+10	1	-1E+10	1	-1E+10	1	-1E+10	1	-1E+10	1	-1E+10	1
4902551	35	C	07/27/2021	15:06	-134.891	49.444	0	313.30	0	4.7150	0	33.8950	0	26.834	0	310.395	0	64.3	4	20.6	4	-1E+10	1	-1E+10	1	-1E+10	1	-1E+10	1	-1E+10	1	-1E+10	1
4902551	35	C	07/27/2021	15:06	-134.891	49.444	0	314.10	0	4.7140	0	33.8950	0	26.834	0	311.187	0	63.9	4	20.5	4	-1E+10	1	-1E+10	1	-1E+10	1	-1E+10	1	-1E+10	1	-1E+10	1
4902551	35	C	07/27/2021	15:06	-134.891	49.444	0	314.90	0	4.7000	0	33.8970	0	26.837	0	311.979	0	63.5	4	20.4	4	-1E+10	1	-1E+10	1	-1E+10	1	-1E+10	1	-1E+10	1	-1E+10	1
4902551	35	C	07/27/2021	15:06	-134.891	49.444	0	315.80	0	4.6840	0	33.9000	0	26.841	0	312.869	0	63.2	4	20.2	4	-1E+10	1	-1E+10	1	-1E+10	1	-1E+10	1	-1E+10	1	-1E+10	1
4902551	35	C	07/27/2021	15:06	-134.891	49.444	0	316.60	0	4.6770	0	33.9010	0	26.843	0	313.661	0	62.9	4	20.2	4	-1E+10	1	-1E+10	1	-1E+10	1	-1E+10	1	-1E+10	1	-1E+10	1
4902551	35	C	07/27/2021	15:06	-134.891	49.444	0	317.90	0	4.6690	0	33.9020	0	26.845	0	314.948	0	62.5	4	20.0	4	-1E+10	1	-1E+10	1	-1E+10	1	-1E+10	1	-1E+10	1	-1E+10	1
4902551	35	C	07/27/2021	15:06	-134.891	49.444	0	319.20	0	4.6670	0	33.9030	0	26.846	0	316.235	0	62.0	4	19.9	4	-1E+10	1	-1E+10	1	-1E+10	1	-1E+10	1	-1E+10	1	-1E+10	1
4902551	35	C	07/27/2021	15:06	-134.891	49.444	0	320.00	0	4.6670	0	33.9040	0	26.846	0	317.027	0	61.7	4	19.8	4	-1E+10	1	-1E+10	1	-1E+10	1	-1E+10	1	-1E+10	1	-1E+10	1
4902551	35	C	07/27/2021	15:06	-134.891	49.444	0	320.90	0	4.6660	0	33.9040	0	26.846	0	317.918	0	61.4	4	19.7	4	-1E+10	1	-1E+10	1	-1E+10	1	-1E+10	1	-1E+10	1	-1E+10	1
4902551	35	C	07/27/2021	15:06	-134.891	49.444	0	321.70	0	4.6580	0	33.9060	0	26.849	0	318.710	0	61.1	4	19.6	4	-1E+10	1	-1E+10	1	-1E+10	1	-1E+10	1	-1E+10	1	-1E+10	1
4902551	35	C	07/27/2021	15:06	-134.891	49.444	0	323.00	0	4.6490	0	33.9080	0	26.852	0	319.997	0	60.7	4	19.4	4	-1E+10	1	-1E+10	1	-1E+10	1	-1E+10	1	-1E+10	1	-1E+10	1
4902551	35	C	07/27/2021	15:06	-134.891	49.444	0	324.30	0	4.6450	0	33.9090	0	26.853	0	321.284	0	60.3	4	19.3	4	-1E+10	1	-1E+10	1	-1E+10	1	-1E+10	1	-1E+10	1	-1E+10	1
4902551	35	C	07/27/2021	15:06	-134.891	49.444	0	325.10	0	4.6420	0	33.9100	0	26.854	0	322.076	0	60.0	4	19.2	4	-1E+10	1	-1E+10	1	-1E+10	1	-1E+10	1	-1E+10	1	-1E+10	1
4902551	35	C	07/27/2021	15:06	-134.891	49.444	0	326.00	0	4.6350	0	33.9120	0	26.856	0	322.967	0	59.8	4	19.1	4	-1E+10	1	-1E+10	1	-1E+10	1	-1E+10	1	-1E+10	1	-1E+10	1
4902551	35	C	07/27/2021	15:06	-134.891	49.444	0	326.90	0	4.6340	0	33.9120	0	26.856	0	323.858	0	59.5	4	19.0	4	-1E+10	1	-1E+10	1	-1E+10	1	-1E+10	1	-1E+10	1	-1E+10	1
4902551	35	C	07/27/2021	15:06	-134.891	49.444	0	327.80	0	4.6310	0	33.9130	0	26.857	0	324.749	0	59.2	4	19.0	4	-1E+10	1	-1E+10	1	-1E+10	1	-1E+10	1	-1E+10	1	-1E+10	1
4902551	35	C	07/27/2021	15:06	-134.891	49.444	0	328.70	0	4.6290	0	33.9140	0	26.859	0	325.640	0	59.0	4	18.9	4	-1E+10	1	-1E+10	1	-1E+10	1	-1E+10	1	-1E+10	1	-1E+10	1
4902551	35	C	07/27/2021	15:06	-134.891	49.444	0	329.90	0	4.6260	0	33.9140	0	26.859	0	326.828	0	58.6	4	18.7	4	-1E+10	1	-1E+10	1	-1E+10	1	-1E+10	1	-1E+10	1	-1E+10	1
4902551	35	C	07/27/2021	15:06	-134.891	49.444	0	331.30	0	4.6220	0	33.9160	0	26.861	0	328.213	0	58.2	4	18.6	4	-1E+10	1	-1E+10	1	-1E+10	1	-1E+10	1	-1E+10	1	-1E+10	1
4902551	35	C	07/27/2021	15:06	-134.891	49.444	0	332.20	0	4.6190	0	33.9170	0	26.862	0	329.104	0	57.9	4	18.5	4	-1E+10	1	-1E+10	1	-1E+10	1	-1E+10	1	-1E+10	1	-1E+10	1
4902551	35	C	07/27/2021	15:06	-134.891	49.444	0	333.10	0	4.6170	0	33.9170	0	26.862	0	329.995	0	57.6	4	18.4	4	-1E+10	1	-1E+10	1	-1E+10	1	-1E+10	1	-1E+10	1	-1E+10	1
4902551	35	C	07/27/2021	15:06	-134.891	49.444	0	333.90	0	4.6110	0	33.9190	0	26.864	0	330.787	0	57.4	4	18.3	4	-1E+10	1	-1E+10	1	-1E+10	1	-1E+10	1	-1E+10	1	-1E+10	1
4902551	35	C	07/27/2021	15:06	-134.891	49.444	0	334.80	0	4.6060	0	33.9210	0	26.867	0	331.678	0	57.1	4	18.3	4	-1E+10	1	-1E+10	1	-1E+10	1	-1E+10	1	-1E+10	1	-1E+10	1
4902551	35	C	07/27/2021	15:06	-134.891	49.444	0	335.70	0	4.6040	0	33.9210	0	26.867	0	332.569	0	56.9	4	18.2	4	-1E+10	1	-1E+10	1	-1E+10	1	-1E+10	1	-1E+10	1	-1E+10	1
4902551	35	C	07/27/2021	15:06	-134.891	49.444	0	336.60	0	4.6030	0	33.9220	0	26.868	0	333.460	0	56.7	4	18.1	4	-1E+10	1	-1E+10	1	-1E+10	1	-1E+10	1	-1E+10	1	-1E+10	1
4902551	35	C	07/27/2021	15:06	-134.891	49.444	0	337.90	0	4.5960	0	33.9230	0	26.869	0	334.747	0	56.4	4	18.0	4	-1E+10	1	-1E+10	1	-1E+10	1	-1E+10	1	-1E+10	1	-1E+10	1
4902551	35	C	07/27/2021	15:06	-134.891	49.444	0	339.30	0	4.5950	0	33.9240	0	26.870	0	336.132	0	56.1	4	17.9	4	-1E+10	1	-1E+10	1	-1E+10	1	-1E+10	1	-1E+10	1	-1E+10	1
4902551	35	C	07/27/2021	15:06	-134.891	49.444	0	340.20	0	4.5950	0	33.9240	0	26.870	0	337.023	0	55.8	4	17.8	4	-1E+10	1	-1E+10	1	-1E+10	1	-1E+10	1	-1E+10	1	-1E+10	1
4902551	35	C	07/27/2021	15:06	-134.891	49.444	0	341.20	0	4.5950	0	33.9240	0	26.870	0	338.013	0	55.5	4	17.7	4	-1E+10	1	-1E+10	1	-1E+10	1	-1E+10	1	-1E+10	1	-1E+10	1
4902551	35	C	07/27/2021	15:06	-134.891	49.444	0	342.10	0	4.5880	0	33.9270	0	26.873	0	338.904	0	55.2	4	17.6	4	-1E+10	1	-1E+10	1	-1E+10	1	-1E+10	1	-1E+10	1	-1E+10	1
4902551	35	C	07/27/2021	15:06	-134.891	49.444	0	343.00	0	4.5850	0	33.9280	0	26.875	0	339.795	0	55.0	4	17.6	4	-1E+10	1	-1E+10	1	-1E+10	1	-1E+10	1	-1E+10	1	-1E+10	1
4902551	35	C	07/27/2021	15:06	-134.891	49.444	0	344.00	0	4.5810	0	33.9300	0	26.877	0	340.785	0	54.8	4	17.5	4	-1E+10	1	-1E+10	1	-1E+10	1	-1E+10	1	-1E+10	1	-1E+10	1
4902551	35	C	07/27/2021	15:06	-134.891	49.444	0	344.90	0	4.5780	0	33.9310	0	26.878	0	341.675	0	54.6	4	17.4	4	-1E+10	1	-1E+10	1	-1E+10	1	-1E+10	1	-1E+10	1	-1E+10	1
4902551	35	C	07/27/2021	15:06	-134.891	49.444	0	345.80	0	4.5760	0	33.9310	0	26.878	0	342.566	0	54.4	4	17.4	4	-1E+10	1	-1E+10	1	-1E+10	1	-1E+10	1	-1E+10	1	-1E+10	1
4902551	35	C	07/27/2021	15:06	-134.891	49.444	0	346.70	0	4.5760	0	33.9320	0	26.879	0	343.457	0	54.1	4	17.3	4	-1E+10	1	-1E+10	1	-1E+10	1	-1E+10	1	-1E+10	1	-1E+10	1
4902551	35	C	07/27/2021	15:06	-134.891	49.444	0	347.60	0	4.5750	0	33.9320	0	26.879	0	344.348	0	53.8	4	17.2	4	-1E+10	1	-1E+10	1	-1E+10	1	-1E+10	1	-1E+10	1	-1E+10	1
4902551	35	C	07/27/2021	15:06	-134.891	49.444	0	348.60	0	4.5710	0	33.9330	0	26.880	0	345.338	0	53.5	4	17.1	4	-1E+10	1	-1E+10	1	-1E+10	1	-1E+10	1	-1E+10	1	-1E+10	1
4902551	35	C	07/27/2021	15:06	-134.891	49.444	0	349.90	0	4.5640	0	33.9340	0	26.882	0	346.625	0	53.1	4	17.0	4	-1E+10	1	-1E+10	1	-1E+10	1	-1E+10	1	-1E+10	1	-1E+10	1
4902551	35	C	07/27/2021	15:06	-134.891	49.444	0	353.20	0	4.5520	0	33.9380	0	26.886	0	349.891	0	52.3	4	16.7	4	-1E+10	1	-1E+10	1	-1E+10	1	-1E+10	1	-1E+10	1	-1E+10	1
4902551	35	C	07/27/2021	15:06	-134.891	49.444	0	358.00	0	4.5320	0	33.9440	0	26.893	0	354.642	0	51.2	4	16.3	4	-1E+10	1	-1E+10	1	-1E+10	1	-1E+10	1	-1E+10	1	-1E+10	1
4902551	35	C	07/27/2021	15:06	-134.891	49.444	0	362.90	0	4.5170	0	33.9520	0	26.901	0	359.492	0	50.2	4	16.0	4	-1E+10	1	-1E+10	1	-1E+10	1	-1E+10	1	-1E+10	1	-1E+10	1
4902551	35	C	07/27/2021	15:06	-134.891	49.444	0	367.90	0	4.5090	0	33.9560	0	26.905	0	364.440	0	49.4	4	15.8	4	-1E+10	1	-1E+10	1	-1E+10	1	-1E+10	1	-1E+10	1	-1E+10	1
4902551	35	C	07/27/2021	15:06	-134.891	49.444	0	373.00	0	4.5000	0	33.9600	0	26.909	0	369.488	0	48.7	4	15.5	4	-1E+10	1	-1E+10	1	-1E+10	1	-1E+10	1	-1E+10	1	-1E+10	1
4902551	35	C	07/27/2021	15:06	-134.891	49.444	0	377.90	0	4.4870	0	33.9640	0	26.914	0	374.337	0	48.0	4	15.3	4	-1E+10	1	-1E+10	1	-1E+10	1	-1E+10	1	-1E+10	1	-1E+10	1
4902551	35	C	07/27/2021	15:06	-134.891	49.444	0	382.80	0	4.4720	0	33.9680	0	26.919	0	379.186	0	47.4	4	15.1	4	-1E+10	1	-1E+10	1	-1E+10	1	-1E+10	1	-1E+10	1	-1E+10	1
4902551	35	C	07/27/2021	15:06	-134.891	49.444	0	387.80	0	4.4660	0	33.9700	0	26.921	0	384.135	0	46.6	4	14.9	4	-1E+10	1	-1E+10	1	-1E+10	1	-1E+10	1	-1E+10	1	-1E+10	1
4902551	35	C	07/27/2021	15:06	-134.891	49.444	0	392.80	0	4.4510	0	33.9760	0	26.927	0	389.083	0	45.9	4	14.6	4	-1E+10	1	-1E+10	1	-1E+10	1	-1E+10	1	-1E+10	1	-1E+10	1
4902551	35	C	07/27/2021	15:06	-134.891	49.444	0	397.90	0	4.4350	0	33.9780	0	26.931	0	394.130	0	45.3	4	14.4	4	-1E+10	1	-1E+10	1	-1E+10	1	-1E+10	1	-1E+10	1	-1E+10	1
4902551	35	C	07/27/2021	15:06	-134.891	49.444	0	403.10	0	4.4100	0	33.9840	0	26.938	0	399.275	0	44.7	4	14.2	4	-1E+10	1	-1E+10	1	-1E+10	1	-1E+10	1	-1E+10	1	-1E+10	1
4902551	35	C	07/27/2021	15:06	-134.891	49.444	0	408.20	0	4.3990	0	33.9870	0	26.942	0	404.322	0	43.7	4	13.9	4	-1E+10	1	-1E+10	1	-1E+10	1	-1E+10	1	-1E+10	1	-1E+10	1
4902551	35	C	07/27/2021	15:06	-134.891	49.444	0	412.80	0	4.3840	0	33.9920	0	26.948	0	408.874	0	42.5	4	13.5	4	-1E+10	1	-1E+10	1	-1E+10	1	-1E+10	1	-1E+10	1	-1E+10	1
4902551	35	C	07/27/2021	15:06	-134.891	49.444	0	417.90	0	4.3600	0	34.0010	0	26.957	0	413.920	0	41.7	4	13.3	4	-1E+10	1	-1E+10	1	-1E+10	1	-1E+10	1	-1E+10	1	-1E+10	1
4902551	35	C	07/27/2021	15:06	-134.891	49.444	0	423.10	0	4.3450	0	34.0060	0	26.963	0	419.065	0	41.1	4	13.1	4	-1E+10	1	-1E+10	1	-1E+10	1	-1E+10	1	-1E+10	1	-1E+10	1
4902551	35	C	07/27/2021	15:06	-134.891	49.444	0	428.00	0	4.3300	0	34.0120	0	26.969	0	423.914	0	40.4	4	12.8	4	-1E+10	1	-1E+10	1	-1E+10	1	-1E+10	1	-1E+10	1	-1E+10	1
4902551	35	C	07/27/2021	15:06	-134.891	49.444	0	433.10	0	4.3180	0	34.0160	0	26.974	0	428.960	0	39.7	4	12.6	4	-1E+10	1	-1E+10	1	-1E+10	1	-1E+10	1	-1E+10	1	-1E+10	1
4902551	35	C	07/27/2021	15:06	-134.891	49.444	0	437.90	0	4.3010	0	34.0220	0	26.980	0	433.709	0	39.1	4	12.4	4	-1E+10	1	-1E+10	1	-1E+10	1	-1E+10	1	-1E+10	1	-1E+10	1
4902551	35	C	07/27/2021	15:06	-134.891	49.444	0	442.70	0	4.2870	0	34.0260	0	26.985	0	438.458	0	38.3	4	12.2	4	-1E+10	1	-1E+10	1	-1E+10	1	-1E+10	1	-1E+10	1	-1E+10	1
4902551	35	C	07/27/2021	15:06	-134.891	49.444	0	447.70	0	4.2780	0	34.0300	0	26.989	0	443.405	0	37.5	4	11.9	4	-1E+10	1	-1E+10	1	-1E+10	1	-1E+10	1	-1E+10	1	-1E+10	1
4902551	35	C	07/27/2021	15:06	-134.891	49.444	0	452.70	0	4.2660	0	34.0360	0	26.995	0	448.351	0	36.7	4	11.6	4	-1E+10	1	-1E+10	1	-1E+10	1	-1E+10	1	-1E+10	1	-1E+10	1
4902551	35	C	07/27/2021	15:06	-134.891	49.444	0	457.90	0	4.2530	0	34.0400	0	27.000	0	453.496	0	36.1	4	11.4	4	-1E+10	1	-1E+10	1	-1E+10	1	-1E+10	1	-1E+10	1	-1E+10	1
4902551	35	C	07/27/2021	15:06	-134.891	49.444	0	462.60	0	4.2440	0	34.0440	0	27.004	0	458.145	0	35.6	4	11.3	4	-1E+10	1	-1E+10	1	-1E+10	1	-1E+10	1	-1E+10	1	-1E+10	1
4902551	35	C	07/27/2021	15:06	-134.891	49.444	0	467.80	0	4.2360	0	34.0470	0	27.007	0	463.289	0	35.2	4	11.2	4	-1E+10	1	-1E+10	1	-1E+10	1	-1E+10	1	-1E+10	1	-1E+10	1
4902551	35	C	07/27/2021	15:06	-134.891	49.444	0	472.90	0	4.2260	0	34.0500	0	27.011	0	468.334	0	34.9	4	11.1	4	-1E+10	1	-1E+10	1	-1E+10	1	-1E+10	1	-1E+10	1	-1E+10	1
4902551	35	C	07/27/2021	15:06	-134.891	49.444	0	477.60	0	4.2120	0	34.0540	0	27.015	0	472.984	0	34.6	4	11.0	4	-1E+10	1	-1E+10	1	-1E+10	1	-1E+10	1	-1E+10	1	-1E+10	1
4902551	35	C	07/27/2021	15:06	-134.891	49.444	0	482.80	0	4.1990	0	34.0580	0	27.020	0	478.127	0	34.2	4	10.8	4	-1E+10	1	-1E+10	1	-1E+10	1	-1E+10	1	-1E+10	1	-1E+10	1
4902551	35	C	07/27/2021	15:06	-134.891	49.444	0	488.00	0	4.1830	0	34.0630	0	27.026	0	483.271	0	33.7	4	10.7	4	-1E+10	1	-1E+10	1	-1E+10	1	-1E+10	1	-1E+10	1	-1E+10	1
4902551	35	C	07/27/2021	15:06	-134.891	49.444	0	492.70	0	4.1760	0	34.0650	0	27.028	0	487.920	0	33.1	4	10.5	4	-1E+10	1	-1E+10	1	-1E+10	1	-1E+10	1	-1E+10	1	-1E+10	1
4902551	35	C	07/27/2021	15:06	-134.891	49.444	0	497.80	0	4.1640	0	34.0680	0	27.032	0	492.964	0	32.1	4	10.2	4	-1E+10	1	-1E+10	1	-1E+10	1	-1E+10	1	-1E+10	1	-1E+10	1
4902551	35	C	07/27/2021	15:06	-134.891	49.444	0	502.80	0	4.1450	0	34.0760	0	27.040	0	497.910	0	31.2	4	9.9	4	-1E+10	1	-1E+10	1	-1E+10	1	-1E+10	1	-1E+10	1	-1E+10	1
4902551	35	C	07/27/2021	15:06	-134.891	49.444	0	507.80	0	4.1300	0	34.0820	0	27.046	0	502.855	0	30.8	4	9.7	4	-1E+10	1	-1E+10	1	-1E+10	1	-1E+10	1	-1E+10	1	-1E+10	1
4902551	35	C	07/27/2021	15:06	-134.891	49.444	0	512.90	0	4.1230	0	34.0840	0	27.049	0	507.899	0	30.4	4	9.6	4	-1E+10	1	-1E+10	1	-1E+10	1	-1E+10	1	-1E+10	1	-1E+10	1
4902551	35	C	07/27/2021	15:06	-134.891	49.444	0	517.90	0	4.1150	0	34.0870	0	27.052	0	512.844	0	29.8	4	9.4	4	-1E+10	1	-1E+10	1	-1E+10	1	-1E+10	1	-1E+10	1	-1E+10	1
4902551	35	C	07/27/2021	15:06	-134.891	49.444	0	523.00	0	4.1060	0	34.0900	0	27.055	0	517.888	0	29.4	4	9.3	4	-1E+10	1	-1E+10	1	-1E+10	1	-1E+10	1	-1E+10	1	-1E+10	1
4902551	35	C	07/27/2021	15:06	-134.891	49.444	0	528.00	0	4.1000	0	34.0920	0	27.058	0	522.833	0	29.0	4	9.2	4	-1E+10	1	-1E+10	1	-1E+10	1	-1E+10	1	-1E+10	1	-1E+10	1
4902551	35	C	07/27/2021	15:06	-134.891	49.444	0	533.10	0	4.0870	0	34.0960	0	27.062	0	527.877	0	28.5	4	9.0	4	-1E+10	1	-1E+10	1	-1E+10	1	-1E+10	1	-1E+10	1	-1E+10	1
4902551	35	C	07/27/2021	15:06	-134.891	49.444	0	537.70	0	4.0750	0	34.1000	0	27.067	0	532.426	0	28.1	4	8.9	4	-1E+10	1	-1E+10	1	-1E+10	1	-1E+10	1	-1E+10	1	-1E+10	1
4902551	35	C	07/27/2021	15:06	-134.891	49.444	0	542.80	0	4.0620	0	34.1040	0	27.071	0	537.469	0	27.5	4	8.7	4	-1E+10	1	-1E+10	1	-1E+10	1	-1E+10	1	-1E+10	1	-1E+10	1
4902551	35	C	07/27/2021	15:06	-134.891	49.444	0	547.90	0	4.0380	0	34.1110	0	27.079	0	542.512	0	26.8	4	8.5	4	-1E+10	1	-1E+10	1	-1E+10	1	-1E+10	1	-1E+10	1	-1E+10	1
4902551	35	C	07/27/2021	15:06	-134.891	49.444	0	552.60	0	4.0200	0	34.1170	0	27.086	0	547.160	0	26.1	4	8.2	4	-1E+10	1	-1E+10	1	-1E+10	1	-1E+10	1	-1E+10	1	-1E+10	1
4902551	35	C	07/27/2021	15:06	-134.891	49.444	0	557.80	0	4.0020	0	34.1240	0	27.093	0	552.302	0	25.7	4	8.1	4	-1E+10	1	-1E+10	1	-1E+10	1	-1E+10	1	-1E+10	1	-1E+10	1
4902551	35	C	07/27/2021	15:06	-134.891	49.444	0	563.20	0	3.9850	0	34.1290	0	27.099	0	557.641	0	25.3	4	8.0	4	-1E+10	1	-1E+10	1	-1E+10	1	-1E+10	1	-1E+10	1	-1E+10	1
4902551	35	C	07/27/2021	15:06	-134.891	49.444	0	568.00	0	3.9670	0	34.1340	0	27.105	0	562.388	0	25.0	4	7.9	4	-1E+10	1	-1E+10	1	-1E+10	1	-1E+10	1	-1E+10	1	-1E+10	1
4902551	35	C	07/27/2021	15:06	-134.891	49.444	0	573.00	0	3.9590	0	34.1360	0	27.107	0	567.331	0	24.7	4	7.8	4	-1E+10	1	-1E+10	1	-1E+10	1	-1E+10	1	-1E+10	1	-1E+10	1
4902551	35	C	07/27/2021	15:06	-134.891	49.444	0	577.90	0	3.9380	0	34.1420	0	27.114	0	572.176	0	24.4	4	7.7	4	-1E+10	1	-1E+10	1	-1E+10	1	-1E+10	1	-1E+10	1	-1E+10	1
4902551	35	C	07/27/2021	15:06	-134.891	49.444	0	582.90	0	3.9280	0	34.1450	0	27.118	0	577.120	0	24.2	4	7.6	4	-1E+10	1	-1E+10	1	-1E+10	1	-1E+10	1	-1E+10	1	-1E+10	1
4902551	35	C	07/27/2021	15:06	-134.891	49.444	0	588.00	0	3.9080	0	34.1510	0	27.125	0	582.162	0	24.0	4	7.6	4	-1E+10	1	-1E+10	1	-1E+10	1	-1E+10	1	-1E+10	1	-1E+10	1
4902551	35	C	07/27/2021	15:06	-134.891	49.444	0	593.10	0	3.8950	0	34.1540	0	27.128	0	587.204	0	23.8	4	7.5	4	-1E+10	1	-1E+10	1	-1E+10	1	-1E+10	1	-1E+10	1	-1E+10	1
4902551	35	C	07/27/2021	15:06	-134.891	49.444	0	598.10	0	3.8880	0	34.1560	0	27.131	0	592.147	0	23.5	4	7.4	4	-1E+10	1	-1E+10	1	-1E+10	1	-1E+10	1	-1E+10	1	-1E+10	1
4902551	35	C	07/27/2021	15:06	-134.891	49.444	0	603.10	0	3.8800	0	34.1580	0	27.133	0	597.090	0	23.2	4	7.3	4	-1E+10	1	-1E+10	1	-1E+10	1	-1E+10	1	-1E+10	1	-1E+10	1
4902551	35	C	07/27/2021	15:06	-134.891	49.444	0	608.10	0	3.8650	0	34.1620	0	27.138	0	602.033	0	22.9	4	7.2	4	-1E+10	1	-1E+10	1	-1E+10	1	-1E+10	1	-1E+10	1	-1E+10	1
4902551	35	C	07/27/2021	15:06	-134.891	49.444	0	613.20	0	3.8550	0	34.1650	0	27.141	0	607.075	0	22.6	4	7.1	4	-1E+10	1	-1E+10	1	-1E+10	1	-1E+10	1	-1E+10	1	-1E+10	1
4902551	35	C	07/27/2021	15:06	-134.891	49.444	0	618.20	0	3.8450	0	34.1670	0	27.144	0	612.018	0	22.1	4	7.0	4	-1E+10	1	-1E+10	1	-1E+10	1	-1E+10	1	-1E+10	1	-1E+10	1
4902551	35	C	07/27/2021	15:06	-134.891	49.444	0	623.20	0	3.8300	0	34.1730	0	27.150	0	616.960	0	21.6	4	6.8	4	-1E+10	1	-1E+10	1	-1E+10	1	-1E+10	1	-1E+10	1	-1E+10	1
4902551	35	C	07/27/2021	15:06	-134.891	49.444	0	628.20	0	3.8240	0	34.1740	0	27.152	0	621.903	0	21.3	4	6.7	4	-1E+10	1	-1E+10	1	-1E+10	1	-1E+10	1	-1E+10	1	-1E+10	1
4902551	35	C	07/27/2021	15:06	-134.891	49.444	0	633.30	0	3.8110	0	34.1790	0	27.157	0	626.944	0	20.9	4	6.6	4	-1E+10	1	-1E+10	1	-1E+10	1	-1E+10	1	-1E+10	1	-1E+10	1
4902551	35	C	07/27/2021	15:06	-134.891	49.444	0	637.90	0	3.7990	0	34.1840	0	27.162	0	631.491	0	20.6	4	6.5	4	-1E+10	1	-1E+10	1	-1E+10	1	-1E+10	1	-1E+10	1	-1E+10	1
4902551	35	C	07/27/2021	15:06	-134.891	49.444	0	642.80	0	3.7940	0	34.1860	0	27.164	0	636.334	0	20.4	4	6.4	4	-1E+10	1	-1E+10	1	-1E+10	1	-1E+10	1	-1E+10	1	-1E+10	1
4902551	35	C	07/27/2021	15:06	-134.891	49.444	0	648.00	0	3.7870	0	34.1880	0	27.166	0	641.474	0	20.2	4	6.3	4	-1E+10	1	-1E+10	1	-1E+10	1	-1E+10	1	-1E+10	1	-1E+10	1
4902551	35	C	07/27/2021	15:06	-134.891	49.444	0	653.20	0	3.7720	0	34.1920	0	27.171	0	646.613	0	20.0	4	6.3	4	-1E+10	1	-1E+10	1	-1E+10	1	-1E+10	1	-1E+10	1	-1E+10	1
4902551	35	C	07/27/2021	15:06	-134.891	49.444	0	658.00	0	3.7630	0	34.1930	0	27.173	0	651.358	0	19.7	4	6.2	4	-1E+10	1	-1E+10	1	-1E+10	1	-1E+10	1	-1E+10	1	-1E+10	1
4902551	35	C	07/27/2021	15:06	-134.891	49.444	0	663.00	0	3.7540	0	34.1970	0	27.177	0	656.299	0	19.4	4	6.1	4	-1E+10	1	-1E+10	1	-1E+10	1	-1E+10	1	-1E+10	1	-1E+10	1
4902551	35	C	07/27/2021	15:06	-134.891	49.444	0	668.00	0	3.7430	0	34.2000	0	27.181	0	661.241	0	19.1	4	6.0	4	-1E+10	1	-1E+10	1	-1E+10	1	-1E+10	1	-1E+10	1	-1E+10	1
4902551	35	C	07/27/2021	15:06	-134.891	49.444	0	673.20	0	3.7370	0	34.2030	0	27.184	0	666.380	0	18.8	4	5.9	4	-1E+10	1	-1E+10	1	-1E+10	1	-1E+10	1	-1E+10	1	-1E+10	1
4902551	35	C	07/27/2021	15:06	-134.891	49.444	0	678.00	0	3.7250	0	34.2070	0	27.188	0	671.123	0	18.5	4	5.8	4	-1E+10	1	-1E+10	1	-1E+10	1	-1E+10	1	-1E+10	1	-1E+10	1
4902551	35	C	07/27/2021	15:06	-134.891	49.444	0	682.80	0	3.7150	0	34.2110	0	27.192	0	675.867	0	18.3	4	5.7	4	-1E+10	1	-1E+10	1	-1E+10	1	-1E+10	1	-1E+10	1	-1E+10	1
4902551	35	C	07/27/2021	15:06	-134.891	49.444	0	688.10	0	3.7110	0	34.2120	0	27.193	0	681.104	0	18.2	4	5.7	4	-1E+10	1	-1E+10	1	-1E+10	1	-1E+10	1	-1E+10	1	-1E+10	1
4902551	35	C	07/27/2021	15:06	-134.891	49.444	0	692.90	0	3.7040	0	34.2130	0	27.195	0	685.848	0	17.9	4	5.6	4	-1E+10	1	-1E+10	1	-1E+10	1	-1E+10	1	-1E+10	1	-1E+10	1
4902551	35	C	07/27/2021	15:06	-134.891	49.444	0	697.70	0	3.6960	0	34.2170	0	27.199	0	690.591	0	17.6	4	5.5	4	-1E+10	1	-1E+10	1	-1E+10	1	-1E+10	1	-1E+10	1	-1E+10	1
4902551	35	C	07/27/2021	15:06	-134.891	49.444	0	703.00	0	3.6820	0	34.2210	0	27.204	0	695.828	0	17.3	4	5.4	4	-1E+10	1	-1E+10	1	-1E+10	1	-1E+10	1	-1E+10	1	-1E+10	1
4902551	35	C	07/27/2021	15:06	-134.891	49.444	0	707.90	0	3.6610	0	34.2270	0	27.210	0	700.670	0	17.0	4	5.3	4	-1E+10	1	-1E+10	1	-1E+10	1	-1E+10	1	-1E+10	1	-1E+10	1
4902551	35	C	07/27/2021	15:06	-134.891	49.444	0	712.80	0	3.6500	0	34.2310	0	27.215	0	705.512	0	16.8	4	5.2	4	-1E+10	1	-1E+10	1	-1E+10	1	-1E+10	1	-1E+10	1	-1E+10	1
4902551	35	C	07/27/2021	15:06	-134.891	49.444	0	717.80	0	3.6380	0	34.2350	0	27.219	0	710.452	0	16.6	4	5.2	4	-1E+10	1	-1E+10	1	-1E+10	1	-1E+10	1	-1E+10	1	-1E+10	1
4902551	35	C	07/27/2021	15:06	-134.891	49.444	0	722.90	0	3.6300	0	34.2370	0	27.221	0	715.491	0	16.4	4	5.1	4	-1E+10	1	-1E+10	1	-1E+10	1	-1E+10	1	-1E+10	1	-1E+10	1
4902551	35	C	07/27/2021	15:06	-134.891	49.444	0	728.00	0	3.6200	0	34.2410	0	27.226	0	720.530	0	16.3	4	5.1	4	-1E+10	1	-1E+10	1	-1E+10	1	-1E+10	1	-1E+10	1	-1E+10	1
4902551	35	C	07/27/2021	15:06	-134.891	49.444	0	732.70	0	3.6050	0	34.2430	0	27.229	0	725.174	0	16.2	4	5.1	4	-1E+10	1	-1E+10	1	-1E+10	1	-1E+10	1	-1E+10	1	-1E+10	1
4902551	35	C	07/27/2021	15:06	-134.891	49.444	0	737.80	0	3.5820	0	34.2480	0	27.235	0	730.212	0	16.1	4	5.0	4	-1E+10	1	-1E+10	1	-1E+10	1	-1E+10	1	-1E+10	1	-1E+10	1
4902551	35	C	07/27/2021	15:06	-134.891	49.444	0	743.10	0	3.5640	0	34.2510	0	27.239	0	735.448	0	16.1	4	5.0	4	-1E+10	1	-1E+10	1	-1E+10	1	-1E+10	1	-1E+10	1	-1E+10	1
4902551	35	C	07/27/2021	15:06	-134.891	49.444	0	747.90	0	3.5540	0	34.2530	0	27.242	0	740.191	0	16.0	4	5.0	4	-1E+10	1	-1E+10	1	-1E+10	1	-1E+10	1	-1E+10	1	-1E+10	1
4902551	35	C	07/27/2021	15:06	-134.891	49.444	0	752.80	0	3.5450	0	34.2550	0	27.244	0	745.031	0	15.9	4	5.0	4	-1E+10	1	-1E+10	1	-1E+10	1	-1E+10	1	-1E+10	1	-1E+10	1
4902551	35	C	07/27/2021	15:06	-134.891	49.444	0	757.80	0	3.5390	0	34.2560	0	27.246	0	749.971	0	15.8	4	4.9	4	-1E+10	1	-1E+10	1	-1E+10	1	-1E+10	1	-1E+10	1	-1E+10	1
4902551	35	C	07/27/2021	15:06	-134.891	49.444	0	763.00	0	3.5270	0	34.2590	0	27.249	0	755.108	0	15.7	4	4.9	4	-1E+10	1	-1E+10	1	-1E+10	1	-1E+10	1	-1E+10	1	-1E+10	1
4902551	35	C	07/27/2021	15:06	-134.891	49.444	0	768.10	0	3.5180	0	34.2600	0	27.251	0	760.145	0	15.6	4	4.9	4	-1E+10	1	-1E+10	1	-1E+10	1	-1E+10	1	-1E+10	1	-1E+10	1
4902551	35	C	07/27/2021	15:06	-134.891	49.444	0	773.30	0	3.5100	0	34.2620	0	27.253	0	765.282	0	15.5	4	4.8	4	-1E+10	1	-1E+10	1	-1E+10	1	-1E+10	1	-1E+10	1	-1E+10	1
4902551	35	C	07/27/2021	15:06	-134.891	49.444	0	778.00	0	3.4940	0	34.2650	0	27.257	0	769.925	0	15.4	4	4.8	4	-1E+10	1	-1E+10	1	-1E+10	1	-1E+10	1	-1E+10	1	-1E+10	1
4902551	35	C	07/27/2021	15:06	-134.891	49.444	0	782.80	0	3.4810	0	34.2690	0	27.262	0	774.666	0	15.3	4	4.8	4	-1E+10	1	-1E+10	1	-1E+10	1	-1E+10	1	-1E+10	1	-1E+10	1
4902551	35	C	07/27/2021	15:06	-134.891	49.444	0	788.00	0	3.4770	0	34.2700	0	27.263	0	779.802	0	15.3	4	4.8	4	-1E+10	1	-1E+10	1	-1E+10	1	-1E+10	1	-1E+10	1	-1E+10	1
4902551	35	C	07/27/2021	15:06	-134.891	49.444	0	792.80	0	3.4710	0	34.2710	0	27.264	0	784.543	0	15.2	4	4.7	4	-1E+10	1	-1E+10	1	-1E+10	1	-1E+10	1	-1E+10	1	-1E+10	1
4902551	35	C	07/27/2021	15:06	-134.891	49.444	0	797.60	0	3.4680	0	34.2720	0	27.266	0	789.284	0	15.1	4	4.7	4	-1E+10	1	-1E+10	1	-1E+10	1	-1E+10	1	-1E+10	1	-1E+10	1
4902551	35	C	07/27/2021	15:06	-134.891	49.444	0	802.90	0	3.4500	0	34.2760	0	27.270	0	794.519	0	15.0	4	4.7	4	-1E+10	1	-1E+10	1	-1E+10	1	-1E+10	1	-1E+10	1	-1E+10	1
4902551	35	C	07/27/2021	15:06	-134.891	49.444	0	807.70	0	3.4380	0	34.2780	0	27.273	0	799.260	0	14.9	4	4.6	4	-1E+10	1	-1E+10	1	-1E+10	1	-1E+10	1	-1E+10	1	-1E+10	1
4902551	35	C	07/27/2021	15:06	-134.891	49.444	0	812.60	0	3.4320	0	34.2800	0	27.275	0	804.099	0	14.8	4	4.6	4	-1E+10	1	-1E+10	1	-1E+10	1	-1E+10	1	-1E+10	1	-1E+10	1
4902551	35	C	07/27/2021	15:06	-134.891	49.444	0	818.00	0	3.4230	0	34.2820	0	27.278	0	809.432	0	14.7	4	4.6	4	-1E+10	1	-1E+10	1	-1E+10	1	-1E+10	1	-1E+10	1	-1E+10	1
4902551	35	C	07/27/2021	15:06	-134.891	49.444	0	822.80	0	3.4130	0	34.2840	0	27.280	0	814.172	0	14.6	4	4.6	4	-1E+10	1	-1E+10	1	-1E+10	1	-1E+10	1	-1E+10	1	-1E+10	1
4902551	35	C	07/27/2021	15:06	-134.891	49.444	0	827.70	0	3.4050	0	34.2860	0	27.283	0	819.011	0	14.5	4	4.5	4	-1E+10	1	-1E+10	1	-1E+10	1	-1E+10	1	-1E+10	1	-1E+10	1
4902551	35	C	07/27/2021	15:06	-134.891	49.444	0	833.00	0	3.3880	0	34.2890	0	27.287	0	824.245	0	14.4	4	4.5	4	-1E+10	1	-1E+10	1	-1E+10	1	-1E+10	1	-1E+10	1	-1E+10	1
4902551	35	C	07/27/2021	15:06	-134.891	49.444	0	837.80	0	3.3750	0	34.2920	0	27.291	0	828.985	0	14.4	4	4.5	4	-1E+10	1	-1E+10	1	-1E+10	1	-1E+10	1	-1E+10	1	-1E+10	1
4902551	35	C	07/27/2021	15:06	-134.891	49.444	0	842.60	0	3.3640	0	34.2950	0	27.294	0	833.725	0	14.3	4	4.5	4	-1E+10	1	-1E+10	1	-1E+10	1	-1E+10	1	-1E+10	1	-1E+10	1
4902551	35	C	07/27/2021	15:06	-134.891	49.444	0	848.00	0	3.3590	0	34.2960	0	27.295	0	839.058	0	14.2	4	4.4	4	-1E+10	1	-1E+10	1	-1E+10	1	-1E+10	1	-1E+10	1	-1E+10	1
4902551	35	C	07/27/2021	15:06	-134.891	49.444	0	852.80	0	3.3480	0	34.2990	0	27.299	0	843.797	0	14.1	4	4.4	4	-1E+10	1	-1E+10	1	-1E+10	1	-1E+10	1	-1E+10	1	-1E+10	1
4902551	35	C	07/27/2021	15:06	-134.891	49.444	0	857.50	0	3.3350	0	34.3020	0	27.302	0	848.438	0	14.1	4	4.4	4	-1E+10	1	-1E+10	1	-1E+10	1	-1E+10	1	-1E+10	1	-1E+10	1
4902551	35	C	07/27/2021	15:06	-134.891	49.444	0	862.70	0	3.3270	0	34.3050	0	27.306	0	853.573	0	14.0	4	4.4	4	-1E+10	1	-1E+10	1	-1E+10	1	-1E+10	1	-1E+10	1	-1E+10	1
4902551	35	C	07/27/2021	15:06	-134.891	49.444	0	867.90	0	3.3190	0	34.3060	0	27.307	0	858.707	0	13.9	4	4.3	4	-1E+10	1	-1E+10	1	-1E+10	1	-1E+10	1	-1E+10	1	-1E+10	1
4902551	35	C	07/27/2021	15:06	-134.891	49.444	0	873.10	0	3.3030	0	34.3090	0	27.311	0	863.841	0	13.9	4	4.3	4	-1E+10	1	-1E+10	1	-1E+10	1	-1E+10	1	-1E+10	1	-1E+10	1
4902551	35	C	07/27/2021	15:06	-134.891	49.444	0	877.80	0	3.2910	0	34.3110	0	27.314	0	868.482	0	13.8	4	4.3	4	-1E+10	1	-1E+10	1	-1E+10	1	-1E+10	1	-1E+10	1	-1E+10	1
4902551	35	C	07/27/2021	15:06	-134.891	49.444	0	882.50	0	3.2780	0	34.3130	0	27.317	0	873.122	0	13.7	4	4.3	4	-1E+10	1	-1E+10	1	-1E+10	1	-1E+10	1	-1E+10	1	-1E+10	1
4902551	35	C	07/27/2021	15:06	-134.891	49.444	0	887.80	0	3.2660	0	34.3170	0	27.321	0	878.354	0	13.6	4	4.2	4	-1E+10	1	-1E+10	1	-1E+10	1	-1E+10	1	-1E+10	1	-1E+10	1
4902551	35	C	07/27/2021	15:06	-134.891	49.444	0	893.00	0	3.2520	0	34.3210	0	27.326	0	883.488	0	13.6	4	4.2	4	-1E+10	1	-1E+10	1	-1E+10	1	-1E+10	1	-1E+10	1	-1E+10	1
4902551	35	C	07/27/2021	15:06	-134.891	49.444	0	898.30	0	3.2400	0	34.3230	0	27.328	0	888.720	0	13.5	4	4.2	4	-1E+10	1	-1E+10	1	-1E+10	1	-1E+10	1	-1E+10	1	-1E+10	1
4902551	35	C	07/27/2021	15:06	-134.891	49.444	0	903.10	0	3.2330	0	34.3250	0	27.331	0	893.459	0	13.5	4	4.2	4	-1E+10	1	-1E+10	1	-1E+10	1	-1E+10	1	-1E+10	1	-1E+10	1
4902551	35	C	07/27/2021	15:06	-134.891	49.444	0	908.10	0	3.2260	0	34.3260	0	27.332	0	898.395	0	13.4	4	4.2	4	-1E+10	1	-1E+10	1	-1E+10	1	-1E+10	1	-1E+10	1	-1E+10	1
4902551	35	C	07/27/2021	15:06	-134.891	49.444	0	912.70	0	3.2190	0	34.3280	0	27.334	0	902.936	0	13.3	4	4.1	4	-1E+10	1	-1E+10	1	-1E+10	1	-1E+10	1	-1E+10	1	-1E+10	1
4902551	35	C	07/27/2021	15:06	-134.891	49.444	0	917.40	0	3.2060	0	34.3320	0	27.339	0	907.575	0	13.3	4	4.1	4	-1E+10	1	-1E+10	1	-1E+10	1	-1E+10	1	-1E+10	1	-1E+10	1
4902551	35	C	07/27/2021	15:06	-134.891	49.444	0	922.60	0	3.1880	0	34.3350	0	27.343	0	912.708	0	13.2	4	4.1	4	-1E+10	1	-1E+10	1	-1E+10	1	-1E+10	1	-1E+10	1	-1E+10	1
4902551	35	C	07/27/2021	15:06	-134.891	49.444	0	927.80	0	3.1780	0	34.3380	0	27.346	0	917.841	0	13.2	4	4.1	4	-1E+10	1	-1E+10	1	-1E+10	1	-1E+10	1	-1E+10	1	-1E+10	1
4902551	35	C	07/27/2021	15:06	-134.891	49.444	0	932.80	0	3.1670	0	34.3410	0	27.350	0	922.776	0	13.2	4	4.1	4	-1E+10	1	-1E+10	1	-1E+10	1	-1E+10	1	-1E+10	1	-1E+10	1
4902551	35	C	07/27/2021	15:06	-134.891	49.444	0	937.70	0	3.1620	0	34.3410	0	27.350	0	927.613	0	13.2	4	4.1	4	-1E+10	1	-1E+10	1	-1E+10	1	-1E+10	1	-1E+10	1	-1E+10	1
4902551	35	C	07/27/2021	15:06	-134.891	49.444	0	942.80	0	3.1570	0	34.3420	0	27.351	0	932.647	0	13.2	4	4.1	4	-1E+10	1	-1E+10	1	-1E+10	1	-1E+10	1	-1E+10	1	-1E+10	1
4902551	35	C	07/27/2021	15:06	-134.891	49.444	0	948.00	0	3.1470	0	34.3440	0	27.354	0	937.779	0	13.2	4	4.1	4	-1E+10	1	-1E+10	1	-1E+10	1	-1E+10	1	-1E+10	1	-1E+10	1
4902551	35	C	07/27/2021	15:06	-134.891	49.444	0	953.30	0	3.1380	0	34.3450	0	27.356	0	943.010	0	13.2	4	4.1	4	-1E+10	1	-1E+10	1	-1E+10	1	-1E+10	1	-1E+10	1	-1E+10	1
4902551	35	C	07/27/2021	15:06	-134.891	49.444	0	958.30	0	3.1240	0	34.3480	0	27.359	0	947.945	0	13.1	4	4.1	4	-1E+10	1	-1E+10	1	-1E+10	1	-1E+10	1	-1E+10	1	-1E+10	1
4902551	35	C	07/27/2021	15:06	-134.891	49.444	0	963.30	0	3.1140	0	34.3500	0	27.362	0	952.879	0	13.1	4	4.1	4	-1E+10	1	-1E+10	1	-1E+10	1	-1E+10	1	-1E+10	1	-1E+10	1
4902551	35	C	07/27/2021	15:06	-134.891	49.444	0	967.90	0	3.1100	0	34.3510	0	27.363	0	957.419	0	13.1	4	4.0	4	-1E+10	1	-1E+10	1	-1E+10	1	-1E+10	1	-1E+10	1	-1E+10	1
4902551	35	C	07/27/2021	15:06	-134.891	49.444	0	972.50	0	3.1050	0	34.3520	0	27.364	0	961.959	0	13.1	4	4.0	4	-1E+10	1	-1E+10	1	-1E+10	1	-1E+10	1	-1E+10	1	-1E+10	1
4902551	35	C	07/27/2021	15:06	-134.891	49.444	0	977.70	0	3.1010	0	34.3530	0	27.366	0	967.090	0	13.0	4	4.0	4	-1E+10	1	-1E+10	1	-1E+10	1	-1E+10	1	-1E+10	1	-1E+10	1
4902551	35	C	07/27/2021	15:06	-134.891	49.444	0	982.80	0	3.0940	0	34.3550	0	27.368	0	972.123	0	13.0	4	4.0	4	-1E+10	1	-1E+10	1	-1E+10	1	-1E+10	1	-1E+10	1	-1E+10	1
4902551	35	C	07/27/2021	15:06	-134.891	49.444	0	988.00	0	3.0800	0	34.3580	0	27.372	0	977.255	0	12.9	4	4.0	4	-1E+10	1	-1E+10	1	-1E+10	1	-1E+10	1	-1E+10	1	-1E+10	1
4902551	35	C	07/27/2021	15:06	-134.891	49.444	0	992.90	0	3.0740	0	34.3600	0	27.374	0	982.090	0	12.9	4	4.0	4	-1E+10	1	-1E+10	1	-1E+10	1	-1E+10	1	-1E+10	1	-1E+10	1
4902551	35	C	07/27/2021	15:06	-134.891	49.444	0	998.00	0	3.0670	0	34.3610	0	27.375	0	987.122	0	12.9	4	4.0	4	-1E+10	1	-1E+10	1	-1E+10	1	-1E+10	1	-1E+10	1	-1E+10	1
4902551	35	C	07/27/2021	15:06	-134.891	49.444	0	1005.60	0	3.0590	0	34.3630	0	27.378	0	994.621	0	12.8	4	4.0	4	-1E+10	1	-1E+10	1	-1E+10	1	-1E+10	1	-1E+10	1	-1E+10	1
4902551	35	C	07/27/2021	15:06	-134.891	49.444	0	1015.40	0	3.0470	0	34.3670	0	27.382	0	1004.291	0	12.8	4	3.9	4	-1E+10	1	-1E+10	1	-1E+10	1	-1E+10	1	-1E+10	1	-1E+10	1
4902551	35	C	07/27/2021	15:06	-134.891	49.444	0	1025.10	0	3.0410	0	34.3690	0	27.384	0	1013.861	0	12.7	4	3.9	4	-1E+10	1	-1E+10	1	-1E+10	1	-1E+10	1	-1E+10	1	-1E+10	1
4902551	35	C	07/27/2021	15:06	-134.891	49.444	0	1035.10	0	3.0330	0	34.3710	0	27.386	0	1023.727	0	12.6	4	3.9	4	-1E+10	1	-1E+10	1	-1E+10	1	-1E+10	1	-1E+10	1	-1E+10	1
4902551	35	C	07/27/2021	15:06	-134.891	49.444	0	1045.20	0	3.0260	0	34.3740	0	27.390	0	1033.691	0	12.5	4	3.9	4	-1E+10	1	-1E+10	1	-1E+10	1	-1E+10	1	-1E+10	1	-1E+10	1
4902551	35	C	07/27/2021	15:06	-134.891	49.444	0	1055.30	0	3.0120	0	34.3770	0	27.393	0	1043.655	0	12.5	4	3.9	4	-1E+10	1	-1E+10	1	-1E+10	1	-1E+10	1	-1E+10	1	-1E+10	1
4902551	35	C	07/27/2021	15:06	-134.891	49.444	0	1065.50	0	2.9980	0	34.3800	0	27.397	0	1053.717	0	12.5	4	3.9	4	-1E+10	1	-1E+10	1	-1E+10	1	-1E+10	1	-1E+10	1	-1E+10	1
4902551	35	C	07/27/2021	15:06	-134.891	49.444	0	1075.70	0	2.9880	0	34.3820	0	27.400	0	1063.778	0	12.5	4	3.9	4	-1E+10	1	-1E+10	1	-1E+10	1	-1E+10	1	-1E+10	1	-1E+10	1
4902551	35	C	07/27/2021	15:06	-134.891	49.444	0	1085.80	0	2.9720	0	34.3860	0	27.404	0	1073.741	0	12.5	4	3.9	4	-1E+10	1	-1E+10	1	-1E+10	1	-1E+10	1	-1E+10	1	-1E+10	1
4902551	35	C	07/27/2021	15:06	-134.891	49.444	0	1095.80	0	2.9600	0	34.3890	0	27.408	0	1083.604	0	12.5	4	3.9	4	-1E+10	1	-1E+10	1	-1E+10	1	-1E+10	1	-1E+10	1	-1E+10	1
4902551	35	C	07/27/2021	15:06	-134.891	49.444	0	1105.50	0	2.9490	0	34.3920	0	27.411	0	1093.170	0	12.5	4	3.9	4	-1E+10	1	-1E+10	1	-1E+10	1	-1E+10	1	-1E+10	1	-1E+10	1
4902551	35	C	07/27/2021	15:06	-134.891	49.444	0	1115.00	0	2.9340	0	34.3950	0	27.415	0	1102.540	0	12.5	4	3.9	4	-1E+10	1	-1E+10	1	-1E+10	1	-1E+10	1	-1E+10	1	-1E+10	1
4902551	35	C	07/27/2021	15:06	-134.891	49.444	0	1125.40	0	2.9240	0	34.3980	0	27.418	0	1112.796	0	12.6	4	3.9	4	-1E+10	1	-1E+10	1	-1E+10	1	-1E+10	1	-1E+10	1	-1E+10	1
4902551	35	C	07/27/2021	15:06	-134.891	49.444	0	1135.50	0	2.9090	0	34.4020	0	27.423	0	1122.756	0	12.6	4	3.9	4	-1E+10	1	-1E+10	1	-1E+10	1	-1E+10	1	-1E+10	1	-1E+10	1
4902551	35	C	07/27/2021	15:06	-134.891	49.444	0	1145.50	0	2.9020	0	34.4030	0	27.424	0	1132.617	0	12.6	4	3.9	4	-1E+10	1	-1E+10	1	-1E+10	1	-1E+10	1	-1E+10	1	-1E+10	1
4902551	35	C	07/27/2021	15:06	-134.891	49.444	0	1155.40	0	2.8920	0	34.4050	0	27.427	0	1142.378	0	12.7	4	3.9	4	-1E+10	1	-1E+10	1	-1E+10	1	-1E+10	1	-1E+10	1	-1E+10	1
4902551	35	C	07/27/2021	15:06	-134.891	49.444	0	1165.00	0	2.8810	0	34.4070	0	27.430	0	1151.844	0	12.8	4	3.9	4	-1E+10	1	-1E+10	1	-1E+10	1	-1E+10	1	-1E+10	1	-1E+10	1
4902551	35	C	07/27/2021	15:06	-134.891	49.444	0	1175.40	0	2.8620	0	34.4110	0	27.435	0	1162.098	0	12.9	4	4.0	4	-1E+10	1	-1E+10	1	-1E+10	1	-1E+10	1	-1E+10	1	-1E+10	1
4902551	35	C	07/27/2021	15:06	-134.891	49.444	0	1185.70	0	2.8380	0	34.4170	0	27.441	0	1172.252	0	13.0	4	4.0	4	-1E+10	1	-1E+10	1	-1E+10	1	-1E+10	1	-1E+10	1	-1E+10	1
4902551	35	C	07/27/2021	15:06	-134.891	49.444	0	1195.70	0	2.8230	0	34.4200	0	27.445	0	1182.111	0	13.2	4	4.1	4	-1E+10	1	-1E+10	1	-1E+10	1	-1E+10	1	-1E+10	1	-1E+10	1
4902551	35	C	07/27/2021	15:06	-134.891	49.444	0	1205.60	0	2.7980	0	34.4240	0	27.451	0	1191.870	0	13.4	4	4.1	4	-1E+10	1	-1E+10	1	-1E+10	1	-1E+10	1	-1E+10	1	-1E+10	1
4902551	35	C	07/27/2021	15:06	-134.891	49.444	0	1215.50	0	2.7820	0	34.4280	0	27.455	0	1201.629	0	13.6	4	4.2	4	-1E+10	1	-1E+10	1	-1E+10	1	-1E+10	1	-1E+10	1	-1E+10	1
4902551	35	C	07/27/2021	15:06	-134.891	49.444	0	1225.30	0	2.7660	0	34.4310	0	27.459	0	1211.289	0	13.7	4	4.2	4	-1E+10	1	-1E+10	1	-1E+10	1	-1E+10	1	-1E+10	1	-1E+10	1
4902551	35	C	07/27/2021	15:06	-134.891	49.444	0	1235.20	0	2.7480	0	34.4340	0	27.463	0	1221.047	0	13.9	4	4.3	4	-1E+10	1	-1E+10	1	-1E+10	1	-1E+10	1	-1E+10	1	-1E+10	1
4902551	35	C	07/27/2021	15:06	-134.891	49.444	0	1245.30	0	2.7270	0	34.4380	0	27.468	0	1231.002	0	14.1	4	4.3	4	-1E+10	1	-1E+10	1	-1E+10	1	-1E+10	1	-1E+10	1	-1E+10	1
4902551	35	C	07/27/2021	15:06	-134.891	49.444	0	1255.60	0	2.7150	0	34.4400	0	27.471	0	1241.153	0	14.3	4	4.4	4	-1E+10	1	-1E+10	1	-1E+10	1	-1E+10	1	-1E+10	1	-1E+10	1
4902551	35	C	07/27/2021	15:06	-134.891	49.444	0	1265.60	0	2.7080	0	34.4410	0	27.472	0	1251.009	0	14.4	4	4.4	4	-1E+10	1	-1E+10	1	-1E+10	1	-1E+10	1	-1E+10	1	-1E+10	1
4902551	35	C	07/27/2021	15:06	-134.891	49.444	0	1275.60	0	2.6960	0	34.4430	0	27.475	0	1260.863	0	14.6	4	4.5	4	-1E+10	1	-1E+10	1	-1E+10	1	-1E+10	1	-1E+10	1	-1E+10	1
4902551	35	C	07/27/2021	15:06	-134.891	49.444	0	1285.40	0	2.6780	0	34.4460	0	27.479	0	1270.521	0	14.9	4	4.6	4	-1E+10	1	-1E+10	1	-1E+10	1	-1E+10	1	-1E+10	1	-1E+10	1
4902551	35	C	07/27/2021	15:06	-134.891	49.444	0	1295.10	0	2.6540	0	34.4490	0	27.484	0	1280.079	0	15.1	4	4.6	4	-1E+10	1	-1E+10	1	-1E+10	1	-1E+10	1	-1E+10	1	-1E+10	1
4902551	35	C	07/27/2021	15:06	-134.891	49.444	0	1305.10	0	2.6390	0	34.4520	0	27.487	0	1289.932	0	15.4	4	4.7	4	-1E+10	1	-1E+10	1	-1E+10	1	-1E+10	1	-1E+10	1	-1E+10	1
4902551	35	C	07/27/2021	15:06	-134.891	49.444	0	1315.20	0	2.6150	0	34.4550	0	27.492	0	1299.884	0	15.8	4	4.8	4	-1E+10	1	-1E+10	1	-1E+10	1	-1E+10	1	-1E+10	1	-1E+10	1
4902551	35	C	07/27/2021	15:06	-134.891	49.444	0	1325.10	0	2.5920	0	34.4590	0	27.497	0	1309.638	0	16.2	4	4.9	4	-1E+10	1	-1E+10	1	-1E+10	1	-1E+10	1	-1E+10	1	-1E+10	1
4902551	35	C	07/27/2021	15:06	-134.891	49.444	0	1335.30	0	2.5700	0	34.4620	0	27.501	0	1319.687	0	16.6	4	5.1	4	-1E+10	1	-1E+10	1	-1E+10	1	-1E+10	1	-1E+10	1	-1E+10	1
4902551	35	C	07/27/2021	15:06	-134.891	49.444	0	1345.70	0	2.5540	0	34.4660	0	27.506	0	1329.932	0	16.9	4	5.2	4	-1E+10	1	-1E+10	1	-1E+10	1	-1E+10	1	-1E+10	1	-1E+10	1
4902551	35	C	07/27/2021	15:06	-134.891	49.444	0	1355.80	0	2.5510	0	34.4680	0	27.508	0	1339.882	0	17.1	4	5.2	4	-1E+10	1	-1E+10	1	-1E+10	1	-1E+10	1	-1E+10	1	-1E+10	1
4902551	35	C	07/27/2021	15:06	-134.891	49.444	0	1365.50	0	2.5450	0	34.4690	0	27.509	0	1349.437	0	17.5	4	5.3	4	-1E+10	1	-1E+10	1	-1E+10	1	-1E+10	1	-1E+10	1	-1E+10	1
4902551	35	C	07/27/2021	15:06	-134.891	49.444	0	1375.30	0	2.5320	0	34.4720	0	27.513	0	1359.090	0	18.0	4	5.5	4	-1E+10	1	-1E+10	1	-1E+10	1	-1E+10	1	-1E+10	1	-1E+10	1
4902551	35	C	07/27/2021	15:06	-134.891	49.444	0	1385.70	0	2.5220	0	34.4750	0	27.516	0	1369.334	0	18.5	4	5.6	4	-1E+10	1	-1E+10	1	-1E+10	1	-1E+10	1	-1E+10	1	-1E+10	1
4902551	35	C	07/27/2021	15:06	-134.891	49.444	0	1395.60	0	2.5070	0	34.4780	0	27.520	0	1379.085	0	18.9	4	5.8	4	-1E+10	1	-1E+10	1	-1E+10	1	-1E+10	1	-1E+10	1	-1E+10	1
4902551	35	C	07/27/2021	15:06	-134.891	49.444	0	1405.50	0	2.4910	0	34.4810	0	27.524	0	1388.835	0	19.3	4	5.9	4	-1E+10	1	-1E+10	1	-1E+10	1	-1E+10	1	-1E+10	1	-1E+10	1
4902551	35	C	07/27/2021	15:06	-134.891	49.444	0	1415.50	0	2.4770	0	34.4830	0	27.526	0	1398.683	0	19.6	4	6.0	4	-1E+10	1	-1E+10	1	-1E+10	1	-1E+10	1	-1E+10	1	-1E+10	1
4902551	35	C	07/27/2021	15:06	-134.891	49.444	0	1425.20	0	2.4690	0	34.4850	0	27.529	0	1408.236	0	20.0	4	6.1	4	-1E+10	1	-1E+10	1	-1E+10	1	-1E+10	1	-1E+10	1	-1E+10	1
4902551	35	C	07/27/2021	15:06	-134.891	49.444	0	1435.20	0	2.4570	0	34.4870	0	27.531	0	1418.083	0	20.4	4	6.2	4	-1E+10	1	-1E+10	1	-1E+10	1	-1E+10	1	-1E+10	1	-1E+10	1
4902551	35	C	07/27/2021	15:06	-134.891	49.444	0	1445.30	0	2.4460	0	34.4890	0	27.534	0	1428.029	0	20.7	4	6.3	4	-1E+10	1	-1E+10	1	-1E+10	1	-1E+10	1	-1E+10	1	-1E+10	1
4902551	35	C	07/27/2021	15:06	-134.891	49.444	0	1455.30	0	2.4410	0	34.4900	0	27.535	0	1437.875	0	21.1	4	6.4	4	-1E+10	1	-1E+10	1	-1E+10	1	-1E+10	1	-1E+10	1	-1E+10	1
4902551	35	C	07/27/2021	15:06	-134.891	49.444	0	1465.30	0	2.4290	0	34.4920	0	27.538	0	1447.721	0	21.7	4	6.6	4	-1E+10	1	-1E+10	1	-1E+10	1	-1E+10	1	-1E+10	1	-1E+10	1
4902551	35	C	07/27/2021	15:06	-134.891	49.444	0	1475.20	0	2.4140	0	34.4950	0	27.542	0	1457.468	0	22.2	4	6.8	4	-1E+10	1	-1E+10	1	-1E+10	1	-1E+10	1	-1E+10	1	-1E+10	1
4902551	35	C	07/27/2021	15:06	-134.891	49.444	0	1485.60	0	2.4020	0	34.4980	0	27.545	0	1467.707	0	22.7	4	6.9	4	-1E+10	1	-1E+10	1	-1E+10	1	-1E+10	1	-1E+10	1	-1E+10	1
4902551	35	C	07/27/2021	15:06	-134.891	49.444	0	1495.50	0	2.3920	0	34.4990	0	27.547	0	1477.453	0	23.1	4	7.0	4	-1E+10	1	-1E+10	1	-1E+10	1	-1E+10	1	-1E+10	1	-1E+10	1
4902551	35	C	07/27/2021	15:06	-134.891	49.444	0	1505.40	0	2.3810	0	34.5010	0	27.549	0	1487.199	0	23.7	4	7.2	4	-1E+10	1	-1E+10	1	-1E+10	1	-1E+10	1	-1E+10	1	-1E+10	1
4902551	35	C	07/27/2021	15:06	-134.891	49.444	0	1515.20	0	2.3650	0	34.5040	0	27.553	0	1496.846	0	24.5	4	7.4	4	-1E+10	1	-1E+10	1	-1E+10	1	-1E+10	1	-1E+10	1	-1E+10	1
4902551	35	C	07/27/2021	15:06	-134.891	49.444	0	1525.20	0	2.3460	0	34.5070	0	27.557	0	1506.689	0	25.0	4	7.6	4	-1E+10	1	-1E+10	1	-1E+10	1	-1E+10	1	-1E+10	1	-1E+10	1
4902551	35	C	07/27/2021	15:06	-134.891	49.444	0	1535.20	0	2.3340	0	34.5090	0	27.560	0	1516.532	0	25.6	4	7.8	4	-1E+10	1	-1E+10	1	-1E+10	1	-1E+10	1	-1E+10	1	-1E+10	1
4902551	35	C	07/27/2021	15:06	-134.891	49.444	0	1545.30	0	2.3150	0	34.5120	0	27.564	0	1526.473	0	26.3	4	8.0	4	-1E+10	1	-1E+10	1	-1E+10	1	-1E+10	1	-1E+10	1	-1E+10	1
4902551	35	C	07/27/2021	15:06	-134.891	49.444	0	1555.20	0	2.3030	0	34.5140	0	27.566	0	1536.216	0	26.8	4	8.1	4	-1E+10	1	-1E+10	1	-1E+10	1	-1E+10	1	-1E+10	1	-1E+10	1
4902551	35	C	07/27/2021	15:06	-134.891	49.444	0	1565.40	0	2.2900	0	34.5160	0	27.569	0	1546.254	0	27.4	4	8.3	4	-1E+10	1	-1E+10	1	-1E+10	1	-1E+10	1	-1E+10	1	-1E+10	1
4902551	35	C	07/27/2021	15:06	-134.891	49.444	0	1575.30	0	2.2800	0	34.5180	0	27.572	0	1555.997	0	27.9	4	8.5	4	-1E+10	1	-1E+10	1	-1E+10	1	-1E+10	1	-1E+10	1	-1E+10	1
4902551	35	C	07/27/2021	15:06	-134.891	49.444	0	1585.30	0	2.2680	0	34.5200	0	27.574	0	1565.837	0	28.6	4	8.7	4	-1E+10	1	-1E+10	1	-1E+10	1	-1E+10	1	-1E+10	1	-1E+10	1
4902551	35	C	07/27/2021	15:06	-134.891	49.444	0	1595.70	0	2.2550	0	34.5220	0	27.577	0	1576.071	0	29.5	4	8.9	4	-1E+10	1	-1E+10	1	-1E+10	1	-1E+10	1	-1E+10	1	-1E+10	1
4902551	35	C	07/27/2021	15:06	-134.891	49.444	0	1605.50	0	2.2360	0	34.5260	0	27.582	0	1585.714	0	30.5	4	9.2	4	-1E+10	1	-1E+10	1	-1E+10	1	-1E+10	1	-1E+10	1	-1E+10	1
4902551	35	C	07/27/2021	15:06	-134.891	49.444	0	1615.10	0	2.2220	0	34.5290	0	27.585	0	1595.159	0	31.2	4	9.5	4	-1E+10	1	-1E+10	1	-1E+10	1	-1E+10	1	-1E+10	1	-1E+10	1
4902551	35	C	07/27/2021	15:06	-134.891	49.444	0	1625.00	0	2.2090	0	34.5310	0	27.588	0	1604.899	0	32.0	4	9.7	4	-1E+10	1	-1E+10	1	-1E+10	1	-1E+10	1	-1E+10	1	-1E+10	1
4902551	35	C	07/27/2021	15:06	-134.891	49.444	0	1635.00	0	2.1950	0	34.5340	0	27.592	0	1614.738	0	32.6	4	9.9	4	-1E+10	1	-1E+10	1	-1E+10	1	-1E+10	1	-1E+10	1	-1E+10	1
4902551	35	C	07/27/2021	15:06	-134.891	49.444	0	1645.40	0	2.1870	0	34.5350	0	27.593	0	1624.969	0	33.0	4	10.0	4	-1E+10	1	-1E+10	1	-1E+10	1	-1E+10	1	-1E+10	1	-1E+10	1
4902551	35	C	07/27/2021	15:06	-134.891	49.444	0	1655.40	0	2.1820	0	34.5360	0	27.594	0	1634.806	0	33.6	4	10.2	4	-1E+10	1	-1E+10	1	-1E+10	1	-1E+10	1	-1E+10	1	-1E+10	1
4902551	35	C	07/27/2021	15:06	-134.891	49.444	0	1665.60	0	2.1660	0	34.5390	0	27.598	0	1644.840	0	34.1	4	10.3	4	-1E+10	1	-1E+10	1	-1E+10	1	-1E+10	1	-1E+10	1	-1E+10	1
4902551	35	C	07/27/2021	15:06	-134.891	49.444	0	1675.30	0	2.1580	0	34.5400	0	27.600	0	1654.381	0	34.5	4	10.4	4	-1E+10	1	-1E+10	1	-1E+10	1	-1E+10	1	-1E+10	1	-1E+10	1
4902551	35	C	07/27/2021	15:06	-134.891	49.444	0	1685.10	0	2.1510	0	34.5420	0	27.602	0	1664.020	0	35.1	4	10.6	4	-1E+10	1	-1E+10	1	-1E+10	1	-1E+10	1	-1E+10	1	-1E+10	1
4902551	35	C	07/27/2021	15:06	-134.891	49.444	0	1695.30	0	2.1460	0	34.5430	0	27.603	0	1674.052	0	35.8	4	10.8	4	-1E+10	1	-1E+10	1	-1E+10	1	-1E+10	1	-1E+10	1	-1E+10	1
4902551	35	C	07/27/2021	15:06	-134.891	49.444	0	1705.70	0	2.1380	0	34.5450	0	27.605	0	1684.281	0	36.3	4	11.0	4	-1E+10	1	-1E+10	1	-1E+10	1	-1E+10	1	-1E+10	1	-1E+10	1
4902551	35	C	07/27/2021	15:06	-134.891	49.444	0	1715.70	0	2.1330	0	34.5460	0	27.607	0	1694.115	0	36.7	4	11.1	4	-1E+10	1	-1E+10	1	-1E+10	1	-1E+10	1	-1E+10	1	-1E+10	1
4902551	35	C	07/27/2021	15:06	-134.891	49.444	0	1725.50	0	2.1250	0	34.5470	0	27.608	0	1703.753	0	37.3	4	11.3	4	-1E+10	1	-1E+10	1	-1E+10	1	-1E+10	1	-1E+10	1	-1E+10	1
4902551	35	C	07/27/2021	15:06	-134.891	49.444	0	1735.50	0	2.1140	0	34.5490	0	27.611	0	1713.586	0	37.8	4	11.4	4	-1E+10	1	-1E+10	1	-1E+10	1	-1E+10	1	-1E+10	1	-1E+10	1
4902551	35	C	07/27/2021	15:06	-134.891	49.444	0	1745.80	0	2.1060	0	34.5500	0	27.612	0	1723.714	0	38.5	4	11.6	4	-1E+10	1	-1E+10	1	-1E+10	1	-1E+10	1	-1E+10	1	-1E+10	1
4902551	35	C	07/27/2021	15:06	-134.891	49.444	0	1755.40	0	2.0970	0	34.5520	0	27.614	0	1733.154	0	39.2	4	11.8	4	-1E+10	1	-1E+10	1	-1E+10	1	-1E+10	1	-1E+10	1	-1E+10	1
4902551	35	C	07/27/2021	15:06	-134.891	49.444	0	1765.30	0	2.0900	0	34.5530	0	27.616	0	1742.888	0	39.9	4	12.1	4	-1E+10	1	-1E+10	1	-1E+10	1	-1E+10	1	-1E+10	1	-1E+10	1
4902551	35	C	07/27/2021	15:06	-134.891	49.444	0	1775.40	0	2.0810	0	34.5560	0	27.619	0	1752.818	0	40.5	4	12.2	4	-1E+10	1	-1E+10	1	-1E+10	1	-1E+10	1	-1E+10	1	-1E+10	1
4902551	35	C	07/27/2021	15:06	-134.891	49.444	0	1785.10	0	2.0760	0	34.5570	0	27.620	0	1762.354	0	40.9	4	12.3	4	-1E+10	1	-1E+10	1	-1E+10	1	-1E+10	1	-1E+10	1	-1E+10	1
4902551	35	C	07/27/2021	15:06	-134.891	49.444	0	1795.30	0	2.0730	0	34.5570	0	27.621	0	1772.382	0	41.4	4	12.5	4	-1E+10	1	-1E+10	1	-1E+10	1	-1E+10	1	-1E+10	1	-1E+10	1
4902551	35	C	07/27/2021	15:06	-134.891	49.444	0	1805.60	0	2.0650	0	34.5590	0	27.623	0	1782.507	0	42.0	4	12.7	4	-1E+10	1	-1E+10	1	-1E+10	1	-1E+10	1	-1E+10	1	-1E+10	1
4902551	35	C	07/27/2021	15:06	-134.891	49.444	0	1815.40	0	2.0600	0	34.5600	0	27.624	0	1792.140	0	42.6	4	12.9	4	-1E+10	1	-1E+10	1	-1E+10	1	-1E+10	1	-1E+10	1	-1E+10	1
4902551	35	C	07/27/2021	15:06	-134.891	49.444	0	1825.30	0	2.0540	0	34.5610	0	27.625	0	1801.872	0	43.1	4	13.0	4	-1E+10	1	-1E+10	1	-1E+10	1	-1E+10	1	-1E+10	1	-1E+10	1
4902551	35	C	07/27/2021	15:06	-134.891	49.444	0	1835.20	0	2.0440	0	34.5620	0	27.627	0	1811.602	0	43.3	4	13.1	4	-1E+10	1	-1E+10	1	-1E+10	1	-1E+10	1	-1E+10	1	-1E+10	1
4902551	35	C	07/27/2021	15:06	-134.891	49.444	0	1845.40	0	2.0400	0	34.5630	0	27.628	0	1821.628	0	43.9	4	13.2	4	-1E+10	1	-1E+10	1	-1E+10	1	-1E+10	1	-1E+10	1	-1E+10	1
4902551	35	C	07/27/2021	15:06	-134.891	49.444	0	1855.70	0	2.0320	0	34.5650	0	27.630	0	1831.750	0	44.8	4	13.5	4	-1E+10	1	-1E+10	1	-1E+10	1	-1E+10	1	-1E+10	1	-1E+10	1
4902551	35	C	07/27/2021	15:06	-134.891	49.444	0	1865.70	0	2.0220	0	34.5670	0	27.633	0	1841.578	0	45.6	4	13.8	4	-1E+10	1	-1E+10	1	-1E+10	1	-1E+10	1	-1E+10	1	-1E+10	1
4902551	35	C	07/27/2021	15:06	-134.891	49.444	0	1875.50	0	2.0140	0	34.5690	0	27.635	0	1851.209	0	46.3	4	14.0	4	-1E+10	1	-1E+10	1	-1E+10	1	-1E+10	1	-1E+10	1	-1E+10	1
4902551	35	C	07/27/2021	15:06	-134.891	49.444	0	1885.40	0	2.0060	0	34.5710	0	27.637	0	1860.937	0	46.9	4	14.1	4	-1E+10	1	-1E+10	1	-1E+10	1	-1E+10	1	-1E+10	1	-1E+10	1
4902551	35	C	07/27/2021	15:06	-134.891	49.444	0	1895.30	0	2.0030	0	34.5710	0	27.638	0	1870.665	0	47.5	4	14.3	4	-1E+10	1	-1E+10	1	-1E+10	1	-1E+10	1	-1E+10	1	-1E+10	1
4902551	35	C	07/27/2021	15:06	-134.891	49.444	0	1905.40	0	1.9940	0	34.5730	0	27.640	0	1880.589	0	48.2	4	14.5	4	-1E+10	1	-1E+10	1	-1E+10	1	-1E+10	1	-1E+10	1	-1E+10	1
4902551	35	C	07/27/2021	15:06	-134.891	49.444	0	1915.70	0	1.9880	0	34.5740	0	27.641	0	1890.710	0	48.8	4	14.7	4	-1E+10	1	-1E+10	1	-1E+10	1	-1E+10	1	-1E+10	1	-1E+10	1
4902551	35	C	07/27/2021	15:06	-134.891	49.444	0	1925.40	0	1.9800	0	34.5760	0	27.644	0	1900.240	0	49.6	4	15.0	4	-1E+10	1	-1E+10	1	-1E+10	1	-1E+10	1	-1E+10	1	-1E+10	1
4902551	35	C	07/27/2021	15:06	-134.891	49.444	0	1935.30	0	1.9690	0	34.5780	0	27.646	0	1909.966	0	50.5	4	15.2	4	-1E+10	1	-1E+10	1	-1E+10	1	-1E+10	1	-1E+10	1	-1E+10	1
4902551	35	C	07/27/2021	15:06	-134.891	49.444	0	1945.20	0	1.9620	0	34.5800	0	27.648	0	1919.692	0	51.0	4	15.4	4	-1E+10	1	-1E+10	1	-1E+10	1	-1E+10	1	-1E+10	1	-1E+10	1
4902551	35	C	07/27/2021	15:06	-134.891	49.444	0	1955.20	0	1.9570	0	34.5800	0	27.649	0	1929.515	0	51.8	4	15.6	4	-1E+10	1	-1E+10	1	-1E+10	1	-1E+10	1	-1E+10	1	-1E+10	1
4902551	35	C	07/27/2021	15:06	-134.891	49.444	0	1965.50	0	1.9460	0	34.5830	0	27.652	0	1939.633	0	52.4	4	15.8	4	-1E+10	1	-1E+10	1	-1E+10	1	-1E+10	1	-1E+10	1	-1E+10	1
4902551	35	C	07/27/2021	15:06	-134.891	49.444	0	1975.60	0	1.9440	0	34.5830	0	27.652	0	1949.554	0	52.8	4	15.9	4	-1E+10	1	-1E+10	1	-1E+10	1	-1E+10	1	-1E+10	1	-1E+10	1
4902551	35	C	07/27/2021	15:06	-134.891	49.444	0	1985.20	0	1.9380	0	34.5850	0	27.654	0	1958.983	0	53.4	4	16.1	4	-1E+10	1	-1E+10	1	-1E+10	1	-1E+10	1	-1E+10	1	-1E+10	1
4902551	35	C	07/27/2021	15:06	-134.891	49.444	0	1995.30	0	1.9320	0	34.5850	0	27.655	0	1968.904	0	54.1	4	16.3	4	-1E+10	1	-1E+10	1	-1E+10	1	-1E+10	1	-1E+10	1	-1E+10	1
4902551	35	C	07/27/2021	15:06	-134.891	49.444	0	2005.30	0	1.9220	0	34.5870	0	27.657	0	1978.725	0	54.7	4	16.5	4	-1E+10	1	-1E+10	1	-1E+10	1	-1E+10	1	-1E+10	1	-1E+10	1
4902551	35	C	07/27/2021	15:06	-134.891	49.444	0	2014.90	0	1.9160	0	34.5890	0	27.660	0	1988.153	0	54.9	4	16.5	4	-1E+10	1	-1E+10	1	-1E+10	1	-1E+10	1	-1E+10	1	-1E+10	1
4902551	35	C	07/27/2021	15:06	-134.891	49.444	0																										
4902551	36	C	08/06/2021	20:09	-134.859	49.496	0	0.20	0	14.9750	0	32.2570	0	23.864	0	0.198	0	247.2	4	97.8	4	-1E+10	1	-1E+10	1	-1E+10	1	-1E+10	1	-1E+10	1	-1E+10	1
4902551	36	C	08/06/2021	20:09	-134.859	49.496	0	1.10	0	14.9750	0	32.2540	0	23.862	0	1.091	0	247.1	4	97.8	4	-1E+10	1	-1E+10	1	-1E+10	1	-1E+10	1	-1E+10	1	-1E+10	1
4902551	36	C	08/06/2021	20:09	-134.859	49.496	0	2.00	0	14.9750	0	32.2540	0	23.862	0	1.983	0	247.1	4	97.8	4	-1E+10	1	-1E+10	1	-1E+10	1	-1E+10	1	-1E+10	1	-1E+10	1
4902551	36	C	08/06/2021	20:09	-134.859	49.496	0	3.00	0	14.9730	0	32.2550	0	23.863	0	2.974	0	247.2	4	97.8	4	-1E+10	1	-1E+10	1	-1E+10	1	-1E+10	1	-1E+10	1	-1E+10	1
4902551	36	C	08/06/2021	20:09	-134.859	49.496	0	3.90	0	14.9720	0	32.2560	0	23.864	0	3.867	0	247.2	4	97.8	4	-1E+10	1	-1E+10	1	-1E+10	1	-1E+10	1	-1E+10	1	-1E+10	1
4902551	36	C	08/06/2021	20:09	-134.859	49.496	0	4.70	0	14.9700	0	32.2590	0	23.867	0	4.660	0	247.3	4	97.9	4	-1E+10	1	-1E+10	1	-1E+10	1	-1E+10	1	-1E+10	1	-1E+10	1
4902551	36	C	08/06/2021	20:09	-134.859	49.496	0	5.80	0	14.9710	0	32.2590	0	23.867	0	5.750	0	247.4	4	97.9	4	-1E+10	1	-1E+10	1	-1E+10	1	-1E+10	1	-1E+10	1	-1E+10	1
4902551	36	C	08/06/2021	20:09	-134.859	49.496	0	7.00	0	14.9700	0	32.2590	0	23.867	0	6.940	0	247.4	4	97.9	4	-1E+10	1	-1E+10	1	-1E+10	1	-1E+10	1	-1E+10	1	-1E+10	1
4902551	36	C	08/06/2021	20:09	-134.859	49.496	0	8.00	0	14.9690	0	32.2600	0	23.868	0	7.932	0	247.5	4	98.0	4	-1E+10	1	-1E+10	1	-1E+10	1	-1E+10	1	-1E+10	1	-1E+10	1
4902551	36	C	08/06/2021	20:09	-134.859	49.496	0	8.90	0	14.9690	0	32.2600	0	23.868	0	8.824	0	247.7	4	98.0	4	-1E+10	1	-1E+10	1	-1E+10	1	-1E+10	1	-1E+10	1	-1E+10	1
4902551	36	C	08/06/2021	20:09	-134.859	49.496	0	10.00	0	14.9680	0	32.2610	0	23.869	0	9.914	0	247.7	4	98.0	4	-1E+10	1	-1E+10	1	-1E+10	1	-1E+10	1	-1E+10	1	-1E+10	1
4902551	36	C	08/06/2021	20:09	-134.859	49.496	0	10.90	0	14.9670	0	32.2600	0	23.869	0	10.807	0	247.9	4	98.1	4	-1E+10	1	-1E+10	1	-1E+10	1	-1E+10	1	-1E+10	1	-1E+10	1
4902551	36	C	08/06/2021	20:09	-134.859	49.496	0	11.90	0	14.9660	0	32.2610	0	23.870	0	11.798	0	248.0	4	98.2	4	-1E+10	1	-1E+10	1	-1E+10	1	-1E+10	1	-1E+10	1	-1E+10	1
4902551	36	C	08/06/2021	20:09	-134.859	49.496	0	12.90	0	14.9670	0	32.2610	0	23.869	0	12.790	0	248.1	4	98.2	4	-1E+10	1	-1E+10	1	-1E+10	1	-1E+10	1	-1E+10	1	-1E+10	1
4902551	36	C	08/06/2021	20:09	-134.859	49.496	0	14.10	0	14.9660	0	32.2610	0	23.870	0	13.979	0	248.5	4	98.3	4	-1E+10	1	-1E+10	1	-1E+10	1	-1E+10	1	-1E+10	1	-1E+10	1
4902551	36	C	08/06/2021	20:09	-134.859	49.496	0	15.00	0	14.9660	0	32.2620	0	23.871	0	14.872	0	248.7	4	98.4	4	-1E+10	1	-1E+10	1	-1E+10	1	-1E+10	1	-1E+10	1	-1E+10	1
4902551	36	C	08/06/2021	20:09	-134.859	49.496	0	15.90	0	14.9660	0	32.2620	0	23.871	0	15.764	0	249.0	4	98.5	4	-1E+10	1	-1E+10	1	-1E+10	1	-1E+10	1	-1E+10	1	-1E+10	1
4902551	36	C	08/06/2021	20:09	-134.859	49.496	0	17.00	0	14.9650	0	32.2620	0	23.871	0	16.854	0	249.5	4	98.7	4	-1E+10	1	-1E+10	1	-1E+10	1	-1E+10	1	-1E+10	1	-1E+10	1
4902551	36	C	08/06/2021	20:09	-134.859	49.496	0	18.10	0	14.9640	0	32.2610	0	23.870	0	17.945	0	250.0	4	98.9	4	-1E+10	1	-1E+10	1	-1E+10	1	-1E+10	1	-1E+10	1	-1E+10	1
4902551	36	C	08/06/2021	20:09	-134.859	49.496	0	19.10	0	14.9640	0	32.2620	0	23.871	0	18.936	0	250.7	4	99.2	4	-1E+10	1	-1E+10	1	-1E+10	1	-1E+10	1	-1E+10	1	-1E+10	1
4902551	36	C	08/06/2021	20:09	-134.859	49.496	0	20.00	0	14.9630	0	32.2620	0	23.871	0	19.828	0	251.6	4	99.6	4	-1E+10	1	-1E+10	1	-1E+10	1	-1E+10	1	-1E+10	1	-1E+10	1
4902551	36	C	08/06/2021	20:09	-134.859	49.496	0	21.10	0	14.9600	0	32.2600	0	23.870	0	20.919	0	253.0	4	100.1	4	-1E+10	1	-1E+10	1	-1E+10	1	-1E+10	1	-1E+10	1	-1E+10	1
4902551	36	C	08/06/2021	20:09	-134.859	49.496	0	21.90	0	14.9420	0	32.2620	0	23.876	0	21.712	0	254.5	4	100.7	4	-1E+10	1	-1E+10	1	-1E+10	1	-1E+10	1	-1E+10	1	-1E+10	1
4902551	36	C	08/06/2021	20:09	-134.859	49.496	0	23.10	0	14.8490	0	32.2620	0	23.896	0	22.902	0	258.8	4	102.2	4	-1E+10	1	-1E+10	1	-1E+10	1	-1E+10	1	-1E+10	1	-1E+10	1
4902551	36	C	08/06/2021	20:09	-134.859	49.496	0	23.90	0	14.5140	0	32.2760	0	23.977	0	23.695	0	261.9	4	102.7	4	-1E+10	1	-1E+10	1	-1E+10	1	-1E+10	1	-1E+10	1	-1E+10	1
4902551	36	C	08/06/2021	20:09	-134.859	49.496	0	25.10	0	14.0200	0	32.2860	0	24.088	0	24.884	0	267.0	4	103.7	4	-1E+10	1	-1E+10	1	-1E+10	1	-1E+10	1	-1E+10	1	-1E+10	1
4902551	36	C	08/06/2021	20:09	-134.859	49.496	0	26.10	0	13.7200	0	32.2850	0	24.148	0	25.876	0	271.0	4	104.6	4	-1E+10	1	-1E+10	1	-1E+10	1	-1E+10	1	-1E+10	1	-1E+10	1
4902551	36	C	08/06/2021	20:09	-134.859	49.496	0	27.10	0	13.3640	0	32.3170	0	24.245	0	26.867	0	275.0	4	105.4	4	-1E+10	1	-1E+10	1	-1E+10	1	-1E+10	1	-1E+10	1	-1E+10	1
4902551	36	C	08/06/2021	20:09	-134.859	49.496	0	28.10	0	12.6600	0	32.3210	0	24.386	0	27.858	0	279.3	4	105.5	4	-1E+10	1	-1E+10	1	-1E+10	1	-1E+10	1	-1E+10	1	-1E+10	1
4902551	36	C	08/06/2021	20:09	-134.859	49.496	0	29.00	0	12.2550	0	32.3280	0	24.468	0	28.751	0	281.0	4	105.3	4	-1E+10	1	-1E+10	1	-1E+10	1	-1E+10	1	-1E+10	1	-1E+10	1
4902551	36	C	08/06/2021	20:09	-134.859	49.496	0	30.00	0	12.1130	0	32.3290	0	24.495	0	29.742	0	282.1	4	105.4	4	-1E+10	1	-1E+10	1	-1E+10	1	-1E+10	1	-1E+10	1	-1E+10	1
4902551	36	C	08/06/2021	20:09	-134.859	49.496	0	31.00	0	11.9200	0	32.3320	0	24.534	0	30.733	0	283.3	4	105.4	4	-1E+10	1	-1E+10	1	-1E+10	1	-1E+10	1	-1E+10	1	-1E+10	1
4902551	36	C	08/06/2021	20:09	-134.859	49.496	0	32.20	0	11.6760	0	32.3260	0	24.574	0	31.923	0	284.7	4	105.4	4	-1E+10	1	-1E+10	1	-1E+10	1	-1E+10	1	-1E+10	1	-1E+10	1
4902551	36	C	08/06/2021	20:09	-134.859	49.496	0	32.90	0	11.4900	0	32.3330	0	24.613	0	32.617	0	286.1	4	105.5	4	-1E+10	1	-1E+10	1	-1E+10	1	-1E+10	1	-1E+10	1	-1E+10	1
4902551	36	C	08/06/2021	20:09	-134.859	49.496	0	34.10	0	10.9150	0	32.3380	0	24.719	0	33.806	0	288.1	4	105.0	4	-1E+10	1	-1E+10	1	-1E+10	1	-1E+10	1	-1E+10	1	-1E+10	1
4902551	36	C	08/06/2021	20:09	-134.859	49.496	0	34.90	0	10.8370	0	32.3350	0	24.731	0	34.599	0	289.0	4	105.1	4	-1E+10	1	-1E+10	1	-1E+10	1	-1E+10	1	-1E+10	1	-1E+10	1
4902551	36	C	08/06/2021	20:09	-134.859	49.496	0	36.10	0	10.2860	0	32.3420	0	24.830	0	35.789	0	290.9	4	104.6	4	-1E+10	1	-1E+10	1	-1E+10	1	-1E+10	1	-1E+10	1	-1E+10	1
4902551	36	C	08/06/2021	20:09	-134.859	49.496	0	37.00	0	9.8560	0	32.3510	0	24.909	0	36.681	0	292.3	4	104.1	4	-1E+10	1	-1E+10	1	-1E+10	1	-1E+10	1	-1E+10	1	-1E+10	1
4902551	36	C	08/06/2021	20:09	-134.859	49.496	0	38.10	0	9.3700	0	32.4000	0	25.026	0	37.772	0	293.3	4	103.4	4	-1E+10	1	-1E+10	1	-1E+10	1	-1E+10	1	-1E+10	1	-1E+10	1
4902551	36	C	08/06/2021	20:09	-134.859	49.496	0	38.80	0	9.1880	0	32.3750	0	25.035	0	38.466	0	293.7	4	103.1	4	-1E+10	1	-1E+10	1	-1E+10	1	-1E+10	1	-1E+10	1	-1E+10	1
4902551	36	C	08/06/2021	20:09	-134.859	49.496	0	40.00	0	8.8200	0	32.4020	0	25.113	0	39.655	0	294.2	4	102.5	4	-1E+10	1	-1E+10	1	-1E+10	1	-1E+10	1	-1E+10	1	-1E+10	1
4902551	36	C	08/06/2021	20:09	-134.859	49.496	0	40.90	0	8.5910	0	32.3900	0	25.138	0	40.547	0	294.4	4	102.0	4	-1E+10	1	-1E+10	1	-1E+10	1	-1E+10	1	-1E+10	1	-1E+10	1
4902551	36	C	08/06/2021	20:09	-134.859	49.496	0	42.10	0	8.3820	0	32.4020	0	25.179	0	41.737	0	294.1	4	101.5	4	-1E+10	1	-1E+10	1	-1E+10	1	-1E+10	1	-1E+10	1	-1E+10	1
4902551	36	C	08/06/2021	20:09	-134.859	49.496	0	43.10	0	8.1810	0	32.4080	0	25.213	0	42.728	0	294.2	4	101.0	4	-1E+10	1	-1E+10	1	-1E+10	1	-1E+10	1	-1E+10	1	-1E+10	1
4902551	36	C	08/06/2021	20:09	-134.859	49.496	0	44.00	0	8.1320	0	32.4050	0	25.218	0	43.620	0	293.4	4	100.6	4	-1E+10	1	-1E+10	1	-1E+10	1	-1E+10	1	-1E+10	1	-1E+10	1
4902551	36	C	08/06/2021	20:09	-134.859	49.496	0	45.00	0	8.0150	0	32.4110	0	25.240	0	44.611	0	292.8	4	100.2	4	-1E+10	1	-1E+10	1	-1E+10	1	-1E+10	1	-1E+10	1	-1E+10	1
4902551	36	C	08/06/2021	20:09	-134.859	49.496	0	46.10	0	7.9510	0	32.4110	0	25.249	0	45.702	0	292.2	4	99.8	4	-1E+10	1	-1E+10	1	-1E+10	1	-1E+10	1	-1E+10	1	-1E+10	1
4902551	36	C	08/06/2021	20:09	-134.859	49.496	0	46.90	0	7.9250	0	32.4150	0	25.256	0	46.495	0	291.8	4	99.6	4	-1E+10	1	-1E+10	1	-1E+10	1	-1E+10	1	-1E+10	1	-1E+10	1
4902551	36	C	08/06/2021	20:09	-134.859	49.496	0	47.80	0	7.9050	0	32.4110	0	25.256	0	47.387	0	291.2	4	99.4	4	-1E+10	1	-1E+10	1	-1E+10	1	-1E+10	1	-1E+10	1	-1E+10	1
4902551	36	C	08/06/2021	20:09	-134.859	49.496	0	48.80	0	7.8330	0	32.4170	0	25.271	0	48.378	0	290.3	4	98.9	4	-1E+10	1	-1E+10	1	-1E+10	1	-1E+10	1	-1E+10	1	-1E+10	1
4902551	36	C	08/06/2021	20:09	-134.859	49.496	0	49.90	0	7.6290	0	32.4180	0	25.300	0	49.469	0	289.8	4	98.3	4	-1E+10	1	-1E+10	1	-1E+10	1	-1E+10	1	-1E+10	1	-1E+10	1
4902551	36	C	08/06/2021	20:09	-134.859	49.496	0	51.10	0	7.4680	0	32.4270	0	25.330	0	50.658	0	289.4	4	97.8	4	-1E+10	1	-1E+10	1	-1E+10	1	-1E+10	1	-1E+10	1	-1E+10	1
4902551	36	C	08/06/2021	20:09	-134.859	49.496	0	51.80	0	7.4120	0	32.4250	0	25.336	0	51.352	0	289.0	4	97.6	4	-1E+10	1	-1E+10	1	-1E+10	1	-1E+10	1	-1E+10	1	-1E+10	1
4902551	36	C	08/06/2021	20:09	-134.859	49.496	0	52.90	0	7.3440	0	32.4270	0	25.347	0	52.442	0	288.4	4	97.2	4	-1E+10	1	-1E+10	1	-1E+10	1	-1E+10	1	-1E+10	1	-1E+10	1
4902551	36	C	08/06/2021	20:09	-134.859	49.496	0	54.00	0	7.1580	0	32.4330	0	25.377	0	53.533	0	288.4	4	96.8	4	-1E+10	1	-1E+10	1	-1E+10	1	-1E+10	1	-1E+10	1	-1E+10	1
4902551	36	C	08/06/2021	20:09	-134.859	49.496	0	55.00	0	7.1180	0	32.4330	0	25.382	0	54.524	0	287.8	4	96.5	4	-1E+10	1	-1E+10	1	-1E+10	1	-1E+10	1	-1E+10	1	-1E+10	1
4902551	36	C	08/06/2021	20:09	-134.859	49.496	0	56.00	0	7.0540	0	32.4350	0	25.392	0	55.515	0	287.1	4	96.1	4	-1E+10	1	-1E+10	1	-1E+10	1	-1E+10	1	-1E+10	1	-1E+10	1
4902551	36	C	08/06/2021	20:09	-134.859	49.496	0	57.00	0	6.9660	0	32.4370	0	25.406	0	56.506	0	286.6	4	95.8	4	-1E+10	1	-1E+10	1	-1E+10	1	-1E+10	1	-1E+10	1	-1E+10	1
4902551	36	C	08/06/2021	20:09	-134.859	49.496	0	58.00	0	6.8590	0	32.4420	0	25.424	0	57.497	0	286.3	4	95.4	4	-1E+10	1	-1E+10	1	-1E+10	1	-1E+10	1	-1E+10	1	-1E+10	1
4902551	36	C	08/06/2021	20:09	-134.859	49.496	0	59.00	0	6.8040	0	32.4420	0	25.431	0	58.489	0	285.8	4	95.2	4	-1E+10	1	-1E+10	1	-1E+10	1	-1E+10	1	-1E+10	1	-1E+10	1
4902551	36	C	08/06/2021	20:09	-134.859	49.496	0	60.10	0	6.7490	0	32.4470	0	25.442	0	59.579	0	285.5	4	94.9	4	-1E+10	1	-1E+10	1	-1E+10	1	-1E+10	1	-1E+10	1	-1E+10	1
4902551	36	C	08/06/2021	20:09	-134.859	49.496	0	60.80	0	6.7140	0	32.4480	0	25.447	0	60.273	0	285.3	4	94.8	4	-1E+10	1	-1E+10	1	-1E+10	1	-1E+10	1	-1E+10	1	-1E+10	1
4902551	36	C	08/06/2021	20:09	-134.859	49.496	0	61.90	0	6.6740	0	32.4480	0	25.453	0	61.363	0	285.1	4	94.6	4	-1E+10	1	-1E+10	1	-1E+10	1	-1E+10	1	-1E+10	1	-1E+10	1
4902551	36	C	08/06/2021	20:09	-134.859	49.496	0	63.00	0	6.6660	0	32.4490	0	25.454	0	62.453	0	284.7	4	94.5	4	-1E+10	1	-1E+10	1	-1E+10	1	-1E+10	1	-1E+10	1	-1E+10	1
4902551	36	C	08/06/2021	20:09	-134.859	49.496	0	64.00	0	6.6520	0	32.4480	0	25.456	0	63.444	0	284.4	4	94.4	4	-1E+10	1	-1E+10	1	-1E+10	1	-1E+10	1	-1E+10	1	-1E+10	1
4902551	36	C	08/06/2021	20:09	-134.859	49.496	0	65.10	0	6.6270	0	32.4560	0	25.465	0	64.535	0	284.1	4	94.2	4	-1E+10	1	-1E+10	1	-1E+10	1	-1E+10	1	-1E+10	1	-1E+10	1
4902551	36	C	08/06/2021	20:09	-134.859	49.496	0	65.80	0	6.5850	0	32.4520	0	25.467	0	65.229	0	284.1	4	94.1	4	-1E+10	1	-1E+10	1	-1E+10	1	-1E+10	1	-1E+10	1	-1E+10	1
4902551	36	C	08/06/2021	20:09	-134.859	49.496	0	67.00	0	6.5410	0	32.4550	0	25.475	0	66.418	0	283.9	4	94.0	4	-1E+10	1	-1E+10	1	-1E+10	1	-1E+10	1	-1E+10	1	-1E+10	1
4902551	36	C	08/06/2021	20:09	-134.859	49.496	0	68.10	0	6.4810	0	32.4570	0	25.485	0	67.508	0	283.6	4	93.7	4	-1E+10	1	-1E+10	1	-1E+10	1	-1E+10	1	-1E+10	1	-1E+10	1
4902551	36	C	08/06/2021	20:09	-134.859	49.496	0	68.80	0	6.4550	0	32.4590	0	25.489	0	68.202	0	283.4	4	93.6	4	-1E+10	1	-1E+10	1	-1E+10	1	-1E+10	1	-1E+10	1	-1E+10	1
4902551	36	C	08/06/2021	20:09	-134.859	49.496	0	69.90	0	6.4050	0	32.4620	0	25.498	0	69.292	0	283.3	4	93.5	4	-1E+10	1	-1E+10	1	-1E+10	1	-1E+10	1	-1E+10	1	-1E+10	1
4902551	36	C	08/06/2021	20:09	-134.859	49.496	0	71.10	0	6.3820	0	32.4630	0	25.502	0	70.482	0	282.9	4	93.3	4	-1E+10	1	-1E+10	1	-1E+10	1	-1E+10	1	-1E+10	1	-1E+10	1
4902551	36	C	08/06/2021	20:09	-134.859	49.496	0	72.10	0	6.3470	0	32.4660	0	25.509	0	71.473	0	282.6	4	93.1	4	-1E+10	1	-1E+10	1	-1E+10	1	-1E+10	1	-1E+10	1	-1E+10	1
4902551	36	C	08/06/2021	20:09	-134.859	49.496	0	73.10	0	6.3010	0	32.4690	0	25.517	0	72.464	0	282.3	4	92.9	4	-1E+10	1	-1E+10	1	-1E+10	1	-1E+10	1	-1E+10	1	-1E+10	1
4902551	36	C	08/06/2021	20:09	-134.859	49.496	0	74.10	0	6.2500	0	32.4720	0	25.526	0	73.455	0	282.1	4	92.8	4	-1E+10	1	-1E+10	1	-1E+10	1	-1E+10	1	-1E+10	1	-1E+10	1
4902551	36	C	08/06/2021	20:09	-134.859	49.496	0	75.20	0	6.2330	0	32.4720	0	25.528	0	74.545	0	281.8	4	92.6	4	-1E+10	1	-1E+10	1	-1E+10	1	-1E+10	1	-1E+10	1	-1E+10	1
4902551	36	C	08/06/2021	20:09	-134.859	49.496	0	75.90	0	6.2150	0	32.4730	0	25.531	0	75.239	0	281.7	4	92.5	4	-1E+10	1	-1E+10	1	-1E+10	1	-1E+10	1	-1E+10	1	-1E+10	1
4902551	36	C	08/06/2021	20:09	-134.859	49.496	0	76.90	0	6.1900	0	32.4740	0	25.535	0	76.230	0	281.6	4	92.5	4	-1E+10	1	-1E+10	1	-1E+10	1	-1E+10	1	-1E+10	1	-1E+10	1
4902551	36	C	08/06/2021	20:09	-134.859	49.496	0	78.10	0	6.1740	0	32.4740	0	25.537	0	77.419	0	281.3	4	92.3	4	-1E+10	1	-1E+10	1	-1E+10	1	-1E+10	1	-1E+10	1	-1E+10	1
4902551	36	C	08/06/2021	20:09	-134.859	49.496	0	78.90	0	6.1590	0	32.4760	0	25.540	0	78.212	0	281.1	4	92.2	4	-1E+10	1	-1E+10	1	-1E+10	1	-1E+10	1	-1E+10	1	-1E+10	1
4902551	36	C	08/06/2021	20:09	-134.859	49.496	0	79.90	0	6.1230	0	32.4780	0	25.546	0	79.203	0	281.0	4	92.1	4	-1E+10	1	-1E+10	1	-1E+10	1	-1E+10	1	-1E+10	1	-1E+10	1
4902551	36	C	08/06/2021	20:09	-134.859	49.496	0	81.00	0	6.1020	0	32.4790	0	25.549	0	80.294	0	280.9	4	92.0	4	-1E+10	1	-1E+10	1	-1E+10	1	-1E+10	1	-1E+10	1	-1E+10	1
4902551	36	C	08/06/2021	20:09	-134.859	49.496	0	82.00	0	6.0790	0	32.4790	0	25.552	0	81.285	0	280.8	4	91.9	4	-1E+10	1	-1E+10	1	-1E+10	1	-1E+10	1	-1E+10	1	-1E+10	1
4902551	36	C	08/06/2021	20:09	-134.859	49.496	0	82.90	0	6.0640	0	32.4790	0	25.554	0	82.177	0	280.7	4	91.9	4	-1E+10	1	-1E+10	1	-1E+10	1	-1E+10	1	-1E+10	1	-1E+10	1
4902551	36	C	08/06/2021	20:09	-134.859	49.496	0	83.70	0	6.0330	0	32.4820	0	25.560	0	82.969	0	280.6	4	91.8	4	-1E+10	1	-1E+10	1	-1E+10	1	-1E+10	1	-1E+10	1	-1E+10	1
4902551	36	C	08/06/2021	20:09	-134.859	49.496	0	84.90	0	6.0010	0	32.4830	0	25.565	0	84.159	0	280.3	4	91.6	4	-1E+10	1	-1E+10	1	-1E+10	1	-1E+10	1	-1E+10	1	-1E+10	1
4902551	36	C	08/06/2021	20:09	-134.859	49.496	0	86.10	0	5.9880	0	32.4830	0	25.567	0	85.348	0	280.0	4	91.5	4	-1E+10	1	-1E+10	1	-1E+10	1	-1E+10	1	-1E+10	1	-1E+10	1
4902551	36	C	08/06/2021	20:09	-134.859	49.496	0	87.00	0	5.9750	0	32.4850	0	25.570	0	86.240	0	279.7	4	91.4	4	-1E+10	1	-1E+10	1	-1E+10	1	-1E+10	1	-1E+10	1	-1E+10	1
4902551	36	C	08/06/2021	20:09	-134.859	49.496	0	87.90	0	5.9600	0	32.4860	0	25.572	0	87.132	0	279.5	4	91.3	4	-1E+10	1	-1E+10	1	-1E+10	1	-1E+10	1	-1E+10	1	-1E+10	1
4902551	36	C	08/06/2021	20:09	-134.859	49.496	0	89.00	0	5.9470	0	32.4860	0	25.574	0	88.222	0	279.1	4	91.1	4	-1E+10	1	-1E+10	1	-1E+10	1	-1E+10	1	-1E+10	1	-1E+10	1
4902551	36	C	08/06/2021	20:09	-134.859	49.496	0	89.90	0	5.9420	0	32.4860	0	25.575	0	89.114	0	278.9	4	91.1	4	-1E+10	1	-1E+10	1	-1E+10	1	-1E+10	1	-1E+10	1	-1E+10	1
4902551	36	C	08/06/2021	20:09	-134.859	49.496	0	90.80	0	5.9280	0	32.4870	0	25.577	0	90.006	0	278.5	4	90.9	4	-1E+10	1	-1E+10	1	-1E+10	1	-1E+10	1	-1E+10	1	-1E+10	1
4902551	36	C	08/06/2021	20:09	-134.859	49.496	0	91.90	0	5.9160	0	32.4880	0	25.579	0	91.096	0	277.8	4	90.6	4	-1E+10	1	-1E+10	1	-1E+10	1	-1E+10	1	-1E+10	1	-1E+10	1
4902551	36	C	08/06/2021	20:09	-134.859	49.496	0	93.10	0	5.9000	0	32.4890	0	25.582	0	92.285	0	277.0	4	90.3	4	-1E+10	1	-1E+10	1	-1E+10	1	-1E+10	1	-1E+10	1	-1E+10	1
4902551	36	C	08/06/2021	20:09	-134.859	49.496	0	93.90	0	5.8830	0	32.4930	0	25.587	0	93.078	0	276.4	4	90.1	4	-1E+10	1	-1E+10	1	-1E+10	1	-1E+10	1	-1E+10	1	-1E+10	1
4902551	36	C	08/06/2021	20:09	-134.859	49.496	0	94.70	0	5.8720	0	32.4940	0	25.589	0	93.871	0	275.7	4	89.9	4	-1E+10	1	-1E+10	1	-1E+10	1	-1E+10	1	-1E+10	1	-1E+10	1
4902551	36	C	08/06/2021	20:09	-134.859	49.496	0	95.80	0	5.8690	0	32.4960	0	25.591	0	94.961	0	274.6	4	89.5	4	-1E+10	1	-1E+10	1	-1E+10	1	-1E+10	1	-1E+10	1	-1E+10	1
4902551	36	C	08/06/2021	20:09	-134.859	49.496	0	96.90	0	5.8650	0	32.4990	0	25.594	0	96.051	0	273.4	4	89.1	4	-1E+10	1	-1E+10	1	-1E+10	1	-1E+10	1	-1E+10	1	-1E+10	1
4902551	36	C	08/06/2021	20:09	-134.859	49.496	0	97.90	0	5.8620	0	32.5050	0	25.599	0	97.042	0	272.1	4	88.7	4	-1E+10	1	-1E+10	1	-1E+10	1	-1E+10	1	-1E+10	1	-1E+10	1
4902551	36	C	08/06/2021	20:09	-134.859	49.496	0	99.10	0	5.8580	0	32.5120	0	25.605	0	98.231	0	270.6	4	88.2	4	-1E+10	1	-1E+10	1	-1E+10	1	-1E+10	1	-1E+10	1	-1E+10	1
4902551	36	C	08/06/2021	20:09	-134.859	49.496	0	99.90	0	5.8580	0	32.5130	0	25.606	0	99.024	0	269.5	4	87.8	4	-1E+10	1	-1E+10	1	-1E+10	1	-1E+10	1	-1E+10	1	-1E+10	1
4902551	36	C	08/06/2021	20:09	-134.859	49.496	0	101.00	0	5.8580	0	32.5150	0	25.608	0	100.114	0	266.5	4	86.8	4	-1E+10	1	-1E+10	1	-1E+10	1	-1E+10	1	-1E+10	1	-1E+10	1
4902551	36	C	08/06/2021	20:09	-134.859	49.496	0	102.00	0	5.8600	0	32.5250	0	25.615	0	101.105	0	262.0	4	85.4	4	-1E+10	1	-1E+10	1	-1E+10	1	-1E+10	1	-1E+10	1	-1E+10	1
4902551	36	C	08/06/2021	20:09	-134.859	49.496	0	103.10	0	5.8650	0	32.5360	0	25.624	0	102.195	0	257.1	4	83.8	4	-1E+10	1	-1E+10	1	-1E+10	1	-1E+10	1	-1E+10	1	-1E+10	1
4902551	36	C	08/06/2021	20:09	-134.859	49.496	0	104.00	0	5.8720	0	32.5430	0	25.628	0	103.087	0	252.4	4	82.3	4	-1E+10	1	-1E+10	1	-1E+10	1	-1E+10	1	-1E+10	1	-1E+10	1
4902551	36	C	08/06/2021	20:09	-134.859	49.496	0	105.00	0	5.9050	0	32.5710	0	25.646	0	104.078	0	246.9	4	80.6	4	-1E+10	1	-1E+10	1	-1E+10	1	-1E+10	1	-1E+10	1	-1E+10	1
4902551	36	C	08/06/2021	20:09	-134.859	49.496	0	106.20	0	5.9240	0	32.6100	0	25.675	0	105.267	0	242.3	4	79.1	4	-1E+10	1	-1E+10	1	-1E+10	1	-1E+10	1	-1E+10	1	-1E+10	1
4902551	36	C	08/06/2021	20:09	-134.859	49.496	0	106.80	0	5.9070	0	32.6340	0	25.696	0	105.862	0	239.5	4	78.2	4	-1E+10	1	-1E+10	1	-1E+10	1	-1E+10	1	-1E+10	1	-1E+10	1
4902551	36	C	08/06/2021	20:09	-134.859	49.496	0	108.00	0	5.9170	0	32.6610	0	25.716	0	107.051	0	234.6	4	76.6	4	-1E+10	1	-1E+10	1	-1E+10	1	-1E+10	1	-1E+10	1	-1E+10	1
4902551	36	C	08/06/2021	20:09	-134.859	49.496	0	108.80	0	5.9470	0	32.6910	0	25.736	0	107.844	0	232.4	4	76.0	4	-1E+10	1	-1E+10	1	-1E+10	1	-1E+10	1	-1E+10	1	-1E+10	1
4902551	36	C	08/06/2021	20:09	-134.859	49.496	0	109.90	0	5.9440	0	32.7300	0	25.767	0	108.934	0	229.4	4	75.0	4	-1E+10	1	-1E+10	1	-1E+10	1	-1E+10	1	-1E+10	1	-1E+10	1
4902551	36	C	08/06/2021	20:09	-134.859	49.496	0	111.00	0	5.9430	0	32.7760	0	25.804	0	110.024	0	227.0	4	74.3	4	-1E+10	1	-1E+10	1	-1E+10	1	-1E+10	1	-1E+10	1	-1E+10	1
4902551	36	C	08/06/2021	20:09	-134.859	49.496	0	112.00	0	5.9480	0	32.8010	0	25.823	0	111.015	0	224.4	4	73.4	4	-1E+10	1	-1E+10	1	-1E+10	1	-1E+10	1	-1E+10	1	-1E+10	1
4902551	36	C	08/06/2021	20:09	-134.859	49.496	0	113.20	0	5.9750	0	32.8320	0	25.844	0	112.204	0	221.4	4	72.5	4	-1E+10	1	-1E+10	1	-1E+10	1	-1E+10	1	-1E+10	1	-1E+10	1
4902551	36	C	08/06/2021	20:09	-134.859	49.496	0	114.00	0	5.9790	0	32.8490	0	25.857	0	112.997	0	218.7	4	71.7	4	-1E+10	1	-1E+10	1	-1E+10	1	-1E+10	1	-1E+10	1	-1E+10	1
4902551	36	C	08/06/2021	20:09	-134.859	49.496	0	114.90	0	5.9840	0	32.8740	0	25.876	0	113.889	0	216.3	4	70.9	4	-1E+10	1	-1E+10	1	-1E+10	1	-1E+10	1	-1E+10	1	-1E+10	1
4902551	36	C	08/06/2021	20:09	-134.859	49.496	0	115.90	0	5.9880	0	32.9000	0	25.896	0	114.879	0	213.5	4	70.0	4	-1E+10	1	-1E+10	1	-1E+10	1	-1E+10	1	-1E+10	1	-1E+10	1
4902551	36	C	08/06/2021	20:09	-134.859	49.496	0	117.00	0	5.9910	0	32.9090	0	25.903	0	115.969	0	210.4	4	69.0	4	-1E+10	1	-1E+10	1	-1E+10	1	-1E+10	1	-1E+10	1	-1E+10	1
4902551	36	C	08/06/2021	20:09	-134.859	49.496	0	117.90	0	5.9940	0	32.9190	0	25.911	0	116.861	0	207.5	4	68.1	4	-1E+10	1	-1E+10	1	-1E+10	1	-1E+10	1	-1E+10	1	-1E+10	1
4902551	36	C	08/06/2021	20:09	-134.859	49.496	0	118.90	0	6.0090	0	32.9360	0	25.922	0	117.852	0	204.1	4	67.0	4	-1E+10	1	-1E+10	1	-1E+10	1	-1E+10	1	-1E+10	1	-1E+10	1
4902551	36	C	08/06/2021	20:09	-134.859	49.496	0	120.20	0	6.0260	0	32.9600	0	25.939	0	119.140	0	200.4	4	65.8	4	-1E+10	1	-1E+10	1	-1E+10	1	-1E+10	1	-1E+10	1	-1E+10	1
4902551	36	C	08/06/2021	20:09	-134.859	49.496	0	121.00	0	6.0350	0	32.9650	0	25.942	0	119.933	0	197.3	4	64.8	4	-1E+10	1	-1E+10	1	-1E+10	1	-1E+10	1	-1E+10	1	-1E+10	1
4902551	36	C	08/06/2021	20:09	-134.859	49.496	0	121.90	0	6.0610	0	33.0130	0	25.977	0	120.825	0	193.1	4	63.5	4	-1E+10	1	-1E+10	1	-1E+10	1	-1E+10	1	-1E+10	1	-1E+10	1
4902551	36	C	08/06/2021	20:09	-134.859	49.496	0	123.10	0	6.0750	0	33.0650	0	26.016	0	122.014	0	188.1	4	61.9	4	-1E+10	1	-1E+10	1	-1E+10	1	-1E+10	1	-1E+10	1	-1E+10	1
4902551	36	C	08/06/2021	20:09	-134.859	49.496	0	124.10	0	6.0800	0	33.0790	0	26.026	0	123.005	0	183.9	4	60.5	4	-1E+10	1	-1E+10	1	-1E+10	1	-1E+10	1	-1E+10	1	-1E+10	1
4902551	36	C	08/06/2021	20:09	-134.859	49.496	0	124.90	0	6.0840	0	33.1030	0	26.045	0	123.797	0	180.7	4	59.5	4	-1E+10	1	-1E+10	1	-1E+10	1	-1E+10	1	-1E+10	1	-1E+10	1
4902551	36	C	08/06/2021	20:09	-134.859	49.496	0	125.80	0	6.0880	0	33.1240	0	26.061	0	124.689	0	177.1	4	58.3	4	-1E+10	1	-1E+10	1	-1E+10	1	-1E+10	1	-1E+10	1	-1E+10	1
4902551	36	C	08/06/2021	20:09	-134.859	49.496	0	126.90	0	6.0900	0	33.1400	0	26.073	0	125.779	0	173.0	4	56.9	4	-1E+10	1	-1E+10	1	-1E+10	1	-1E+10	1	-1E+10	1	-1E+10	1
4902551	36	C	08/06/2021	20:09	-134.859	49.496	0	127.90	0	6.0800	0	33.1850	0	26.110	0	126.770	0	170.2	4	56.0	4	-1E+10	1	-1E+10	1	-1E+10	1	-1E+10	1	-1E+10	1	-1E+10	1
4902551	36	C	08/06/2021	20:09	-134.859	49.496	0	128.80	0	6.0720	0	33.2360	0	26.151	0	127.662	0	167.5	4	55.2	4	-1E+10	1	-1E+10	1	-1E+10	1	-1E+10	1	-1E+10	1	-1E+10	1
4902551	36	C	08/06/2021	20:09	-134.859	49.496	0	130.00	0	6.0690	0	33.2970	0	26.200	0	128.851	0	164.6	4	54.2	4	-1E+10	1	-1E+10	1	-1E+10	1	-1E+10	1	-1E+10	1	-1E+10	1
4902551	36	C	08/06/2021	20:09	-134.859	49.496	0	131.00	0	6.0620	0	33.3250	0	26.223	0	129.842	0	162.5	4	53.5	4	-1E+10	1	-1E+10	1	-1E+10	1	-1E+10	1	-1E+10	1	-1E+10	1
4902551	36	C	08/06/2021	20:09	-134.859	49.496	0	131.90	0	6.0620	0	33.3380	0	26.233	0	130.733	0	160.1	4	52.7	4	-1E+10	1	-1E+10	1	-1E+10	1	-1E+10	1	-1E+10	1	-1E+10	1
4902551	36	C	08/06/2021	20:09	-134.859	49.496	0	132.80	0	6.0620	0	33.3660	0	26.255	0	131.625	0	157.7	4	52.0	4	-1E+10	1	-1E+10	1	-1E+10	1	-1E+10	1	-1E+10	1	-1E+10	1
4902551	36	C	08/06/2021	20:09	-134.859	49.496	0	133.80	0	6.0650	0	33.4160	0	26.295	0	132.616	0	155.9	4	51.4	4	-1E+10	1	-1E+10	1	-1E+10	1	-1E+10	1	-1E+10	1	-1E+10	1
4902551	36	C	08/06/2021	20:09	-134.859	49.496	0	135.00	0	6.0670	0	33.4570	0	26.327	0	133.805	0	153.9	4	50.8	4	-1E+10	1	-1E+10	1	-1E+10	1	-1E+10	1	-1E+10	1	-1E+10	1
4902551	36	C	08/06/2021	20:09	-134.859	49.496	0	136.00	0	6.0650	0	33.4670	0	26.335	0	134.796	0	152.6	4	50.3	4	-1E+10	1	-1E+10	1	-1E+10	1	-1E+10	1	-1E+10	1	-1E+10	1
4902551	36	C	08/06/2021	20:09	-134.859	49.496	0	137.00	0	6.0620	0	33.4810	0	26.346	0	135.787	0	151.3	4	49.9	4	-1E+10	1	-1E+10	1	-1E+10	1	-1E+10	1	-1E+10	1	-1E+10	1
4902551	36	C	08/06/2021	20:09	-134.859	49.496	0	138.00	0	6.0600	0	33.4870	0	26.351	0	136.778	0	149.8	4	49.4	4	-1E+10	1	-1E+10	1	-1E+10	1	-1E+10	1	-1E+10	1	-1E+10	1
4902551	36	C	08/06/2021	20:09	-134.859	49.496	0	139.00	0	6.0550	0	33.5000	0	26.362	0	137.768	0	148.2	4	48.9	4	-1E+10	1	-1E+10	1	-1E+10	1	-1E+10	1	-1E+10	1	-1E+10	1
4902551	36	C	08/06/2021	20:09	-134.859	49.496	0	140.10	0	6.0410	0	33.5310	0	26.388	0	138.858	0	146.9	4	48.4	4	-1E+10	1	-1E+10	1	-1E+10	1	-1E+10	1	-1E+10	1	-1E+10	1
4902551	36	C	08/06/2021	20:09	-134.859	49.496	0	141.10	0	6.0370	0	33.5380	0	26.394	0	139.849	0	145.6	4	48.0	4	-1E+10	1	-1E+10	1	-1E+10	1	-1E+10	1	-1E+10	1	-1E+10	1
4902551	36	C	08/06/2021	20:09	-134.859	49.496	0	142.10	0	6.0330	0	33.5430	0	26.399	0	140.840	0	144.0	4	47.5	4	-1E+10	1	-1E+10	1	-1E+10	1	-1E+10	1	-1E+10	1	-1E+10	1
4902551	36	C	08/06/2021	20:09	-134.859	49.496	0	142.80	0	6.0330	0	33.5450	0	26.401	0	141.533	0	142.7	4	47.0	4	-1E+10	1	-1E+10	1	-1E+10	1	-1E+10	1	-1E+10	1	-1E+10	1
4902551	36	C	08/06/2021	20:09	-134.859	49.496	0	143.80	0	6.0320	0	33.5560	0	26.409	0	142.524	0	140.5	4	46.3	4	-1E+10	1	-1E+10	1	-1E+10	1	-1E+10	1	-1E+10	1	-1E+10	1
4902551	36	C	08/06/2021	20:09	-134.859	49.496	0	144.90	0	6.0350	0	33.5670	0	26.418	0	143.614	0	138.4	4	45.7	4	-1E+10	1	-1E+10	1	-1E+10	1	-1E+10	1	-1E+10	1	-1E+10	1
4902551	36	C	08/06/2021	20:09	-134.859	49.496	0	146.00	0	6.0090	0	33.5950	0	26.443	0	144.704	0	136.0	4	44.8	4	-1E+10	1	-1E+10	1	-1E+10	1	-1E+10	1	-1E+10	1	-1E+10	1
4902551	36	C	08/06/2021	20:09	-134.859	49.496	0	147.30	0	5.9910	0	33.6320	0	26.475	0	145.992	0	133.7	4	44.1	4	-1E+10	1	-1E+10	1	-1E+10	1	-1E+10	1	-1E+10	1	-1E+10	1
4902551	36	C	08/06/2021	20:09	-134.859	49.496	0	148.00	0	5.9880	0	33.6390	0	26.480	0	146.685	0	132.8	4	43.8	4	-1E+10	1	-1E+10	1	-1E+10	1	-1E+10	1	-1E+10	1	-1E+10	1
4902551	36	C	08/06/2021	20:09	-134.859	49.496	0	148.80	0	5.9880	0	33.6480	0	26.488	0	147.478	0	131.7	4	43.4	4	-1E+10	1	-1E+10	1	-1E+10	1	-1E+10	1	-1E+10	1	-1E+10	1
4902551	36	C	08/06/2021	20:09	-134.859	49.496	0	149.60	0	5.9880	0	33.6540	0	26.492	0	148.271	0	130.8	4	43.1	4	-1E+10	1	-1E+10	1	-1E+10	1	-1E+10	1	-1E+10	1	-1E+10	1
4902551	36	C	08/06/2021	20:09	-134.859	49.496	0	150.90	0	5.9940	0	33.6610	0	26.497	0	149.559	0	129.4	4	42.7	4	-1E+10	1	-1E+10	1	-1E+10	1	-1E+10	1	-1E+10	1	-1E+10	1
4902551	36	C	08/06/2021	20:09	-134.859	49.496	0	152.10	0	5.9790	0	33.6720	0	26.508	0	150.747	0	128.1	4	42.2	4	-1E+10	1	-1E+10	1	-1E+10	1	-1E+10	1	-1E+10	1	-1E+10	1
4902551	36	C	08/06/2021	20:09	-134.859	49.496	0	153.00	0	5.9810	0	33.6790	0	26.513	0	151.639	0	127.4	4	42.0	4	-1E+10	1	-1E+10	1	-1E+10	1	-1E+10	1	-1E+10	1	-1E+10	1
4902551	36	C	08/06/2021	20:09	-134.859	49.496	0	153.80	0	5.9810	0	33.6820	0	26.515	0	152.432	0	126.5	4	41.7	4	-1E+10	1	-1E+10	1	-1E+10	1	-1E+10	1	-1E+10	1	-1E+10	1
4902551	36	C	08/06/2021	20:09	-134.859	49.496	0	154.70	0	5.9750	0	33.6880	0	26.521	0	153.323	0	125.8	4	41.5	4	-1E+10	1	-1E+10	1	-1E+10	1	-1E+10	1	-1E+10	1	-1E+10	1
4902551	36	C	08/06/2021	20:09	-134.859	49.496	0	155.90	0	5.9700	0	33.6920	0	26.525	0	154.512	0	124.6	4	41.1	4	-1E+10	1	-1E+10	1	-1E+10	1	-1E+10	1	-1E+10	1	-1E+10	1
4902551	36	C	08/06/2021	20:09	-134.859	49.496	0	157.30	0	5.9590	0	33.7030	0	26.535	0	155.899	0	123.3	4	40.6	4	-1E+10	1	-1E+10	1	-1E+10	1	-1E+10	1	-1E+10	1	-1E+10	1
4902551	36	C	08/06/2021	20:09	-134.859	49.496	0	158.20	0	5.9460	0	33.7160	0	26.547	0	156.791	0	122.7	4	40.4	4	-1E+10	1	-1E+10	1	-1E+10	1	-1E+10	1	-1E+10	1	-1E+10	1
4902551	36	C	08/06/2021	20:09	-134.859	49.496	0	159.00	0	5.9430	0	33.7190	0	26.549	0	157.583	0	122.1	4	40.2	4	-1E+10	1	-1E+10	1	-1E+10	1	-1E+10	1	-1E+10	1	-1E+10	1
4902551	36	C	08/06/2021	20:09	-134.859	49.496	0	160.00	0	5.9430	0	33.7200	0	26.550	0	158.574	0	121.6	4	40.0	4	-1E+10	1	-1E+10	1	-1E+10	1	-1E+10	1	-1E+10	1	-1E+10	1
4902551	36	C	08/06/2021	20:09	-134.859	49.496	0	160.90	0	5.9410	0	33.7220	0	26.552	0	159.466	0	121.0	4	39.9	4	-1E+10	1	-1E+10	1	-1E+10	1	-1E+10	1	-1E+10	1	-1E+10	1
4902551	36	C	08/06/2021	20:09	-134.859	49.496	0	161.80	0	5.9390	0	33.7240	0	26.554	0	160.357	0	120.3	4	39.6	4	-1E+10	1	-1E+10	1	-1E+10	1	-1E+10	1	-1E+10	1	-1E+10	1
4902551	36	C	08/06/2021	20:09	-134.859	49.496	0	162.70	0	5.9300	0	33.7340	0	26.563	0	161.249	0	119.8	4	39.5	4	-1E+10	1	-1E+10	1	-1E+10	1	-1E+10	1	-1E+10	1	-1E+10	1
4902551	36	C	08/06/2021	20:09	-134.859	49.496	0	163.60	0	5.9270	0	33.7360	0	26.565	0	162.141	0	119.4	4	39.3	4	-1E+10	1	-1E+10	1	-1E+10	1	-1E+10	1	-1E+10	1	-1E+10	1
4902551	36	C	08/06/2021	20:09	-134.859	49.496	0	164.60	0	5.9170	0	33.7400	0	26.569	0	163.131	0	118.9	4	39.2	4	-1E+10	1	-1E+10	1	-1E+10	1	-1E+10	1	-1E+10	1	-1E+10	1
4902551	36	C	08/06/2021	20:09	-134.859	49.496	0	165.90	0	5.9150	0	33.7400	0	26.569	0	164.419	0	118.0	4	38.9	4	-1E+10	1	-1E+10	1	-1E+10	1	-1E+10	1	-1E+10	1	-1E+10	1
4902551	36	C	08/06/2021	20:09	-134.859	49.496	0	167.40	0	5.9010	0	33.7520	0	26.581	0	165.905	0	117.1	4	38.6	4	-1E+10	1	-1E+10	1	-1E+10	1	-1E+10	1	-1E+10	1	-1E+10	1
4902551	36	C	08/06/2021	20:09	-134.859	49.496	0	168.40	0	5.9050	0	33.7580	0	26.585	0	166.896	0	116.5	4	38.4	4	-1E+10	1	-1E+10	1	-1E+10	1	-1E+10	1	-1E+10	1	-1E+10	1
4902551	36	C	08/06/2021	20:09	-134.859	49.496	0	169.40	0	5.9060	0	33.7600	0	26.586	0	167.887	0	115.9	4	38.2	4	-1E+10	1	-1E+10	1	-1E+10	1	-1E+10	1	-1E+10	1	-1E+10	1
4902551	36	C	08/06/2021	20:09	-134.859	49.496	0	170.40	0	5.9100	0	33.7620	0	26.588	0	168.877	0	115.3	4	38.0	4	-1E+10	1	-1E+10	1	-1E+10	1	-1E+10	1	-1E+10	1	-1E+10	1
4902551	36	C	08/06/2021	20:09	-134.859	49.496	0	171.40	0	5.9120	0	33.7620	0	26.587	0	169.868	0	114.7	4	37.8	4	-1E+10	1	-1E+10	1	-1E+10	1	-1E+10	1	-1E+10	1	-1E+10	1
4902551	36	C	08/06/2021	20:09	-134.859	49.496	0	172.30	0	5.9150	0	33.7630	0	26.588	0	170.759	0	114.0	4	37.6	4	-1E+10	1	-1E+10	1	-1E+10	1	-1E+10	1	-1E+10	1	-1E+10	1
4902551	36	C	08/06/2021	20:09	-134.859	49.496	0	173.30	0	5.9170	0	33.7640	0	26.588	0	171.750	0	113.2	4	37.3	4	-1E+10	1	-1E+10	1	-1E+10	1	-1E+10	1	-1E+10	1	-1E+10	1
4902551	36	C	08/06/2021	20:09	-134.859	49.496	0	174.30	0	5.9190	0	33.7630	0	26.587	0	172.741	0	112.4	4	37.0	4	-1E+10	1	-1E+10	1	-1E+10	1	-1E+10	1	-1E+10	1	-1E+10	1
4902551	36	C	08/06/2021	20:09	-134.859	49.496	0	175.20	0	5.9170	0	33.7690	0	26.592	0	173.632	0	111.4	4	36.7	4	-1E+10	1	-1E+10	1	-1E+10	1	-1E+10	1	-1E+10	1	-1E+10	1
4902551	36	C	08/06/2021	20:09	-134.859	49.496	0	176.20	0	5.9110	0	33.7690	0	26.593	0	174.623	0	110.4	4	36.3	4	-1E+10	1	-1E+10	1	-1E+10	1	-1E+10	1	-1E+10	1	-1E+10	1
4902551	36	C	08/06/2021	20:09	-134.859	49.496	0	177.20	0	5.9090	0	33.7710	0	26.595	0	175.614	0	109.3	4	36.0	4	-1E+10	1	-1E+10	1	-1E+10	1	-1E+10	1	-1E+10	1	-1E+10	1
4902551	36	C	08/06/2021	20:09	-134.859	49.496	0	178.30	0	5.9020	0	33.7830	0	26.605	0	176.703	0	108.2	4	35.6	4	-1E+10	1	-1E+10	1	-1E+10	1	-1E+10	1	-1E+10	1	-1E+10	1
4902551	36	C	08/06/2021	20:09	-134.859	49.496	0	179.10	0	5.8850	0	33.7830	0	26.607	0	177.496	0	107.3	4	35.3	4	-1E+10	1	-1E+10	1	-1E+10	1	-1E+10	1	-1E+10	1	-1E+10	1
4902551	36	C	08/06/2021	20:09	-134.859	49.496	0	180.10	0	5.8760	0	33.7780	0	26.604	0	178.486	0	106.4	4	35.0	4	-1E+10	1	-1E+10	1	-1E+10	1	-1E+10	1	-1E+10	1	-1E+10	1
4902551	36	C	08/06/2021	20:09	-134.859	49.496	0	181.10	0	5.8710	0	33.7970	0	26.620	0	179.477	0	105.5	4	34.7	4	-1E+10	1	-1E+10	1	-1E+10	1	-1E+10	1	-1E+10	1	-1E+10	1
4902551	36	C	08/06/2021	20:09	-134.859	49.496	0	182.00	0	5.8860	0	33.7950	0	26.617	0	180.369	0	104.7	4	34.5	4	-1E+10	1	-1E+10	1	-1E+10	1	-1E+10	1	-1E+10	1	-1E+10	1
4902551	36	C	08/06/2021	20:09	-134.859	49.496	0	183.00	0	5.9020	0	33.8110	0	26.627	0	181.359	0	104.1	4	34.3	4	-1E+10	1	-1E+10	1	-1E+10	1	-1E+10	1	-1E+10	1	-1E+10	1
4902551	36	C	08/06/2021	20:09	-134.859	49.496	0	184.00	0	5.8980	0	33.8140	0	26.630	0	182.350	0	103.5	4	34.1	4	-1E+10	1	-1E+10	1	-1E+10	1	-1E+10	1	-1E+10	1	-1E+10	1
4902551	36	C	08/06/2021	20:09	-134.859	49.496	0	185.00	0	5.8870	0	33.8160	0	26.633	0	183.340	0	103.0	4	33.9	4	-1E+10	1	-1E+10	1	-1E+10	1	-1E+10	1	-1E+10	1	-1E+10	1
4902551	36	C	08/06/2021	20:09	-134.859	49.496	0	186.00	0	5.8800	0	33.8180	0	26.636	0	184.331	0	102.4	4	33.7	4	-1E+10	1	-1E+10	1	-1E+10	1	-1E+10	1	-1E+10	1	-1E+10	1
4902551	36	C	08/06/2021	20:09	-134.859	49.496	0	186.90	0	5.8690	0	33.8230	0	26.641	0	185.222	0	101.8	4	33.5	4	-1E+10	1	-1E+10	1	-1E+10	1	-1E+10	1	-1E+10	1	-1E+10	1
4902551	36	C	08/06/2021	20:09	-134.859	49.496	0	187.90	0	5.9100	0	33.8230	0	26.636	0	186.213	0	101.4	4	33.4	4	-1E+10	1	-1E+10	1	-1E+10	1	-1E+10	1	-1E+10	1	-1E+10	1
4902551	36	C	08/06/2021	20:09	-134.859	49.496	0	188.90	0	5.8930	0	33.8350	0	26.648	0	187.204	0	101.3	4	33.4	4	-1E+10	1	-1E+10	1	-1E+10	1	-1E+10	1	-1E+10	1	-1E+10	1
4902551	36	C	08/06/2021	20:09	-134.859	49.496	0	189.90	0	5.8710	0	33.8330	0	26.649	0	188.194	0	101.1	4	33.3	4	-1E+10	1	-1E+10	1	-1E+10	1	-1E+10	1	-1E+10	1	-1E+10	1
4902551	36	C	08/06/2021	20:09	-134.859	49.496	0	190.90	0	5.8630	0	33.8320	0	26.649	0	189.185	0	100.8	4	33.2	4	-1E+10	1	-1E+10	1	-1E+10	1	-1E+10	1	-1E+10	1	-1E+10	1
4902551	36	C	08/06/2021	20:09	-134.859	49.496	0	191.80	0	5.8560	0	33.8310	0	26.649	0	190.076	0	100.5	4	33.1	4	-1E+10	1	-1E+10	1	-1E+10	1	-1E+10	1	-1E+10	1	-1E+10	1
4902551	36	C	08/06/2021	20:09	-134.859	49.496	0	192.80	0	5.8330	0	33.8330	0	26.653	0	191.067	0	100.0	4	32.9	4	-1E+10	1	-1E+10	1	-1E+10	1	-1E+10	1	-1E+10	1	-1E+10	1
4902551	36	C	08/06/2021	20:09	-134.859	49.496	0	193.80	0	5.8060	0	33.8300	0	26.654	0	192.057	0	99.5	4	32.7	4	-1E+10	1	-1E+10	1	-1E+10	1	-1E+10	1	-1E+10	1	-1E+10	1
4902551	36	C	08/06/2021	20:09	-134.859	49.496	0	194.70	0	5.7980	0	33.8290	0	26.655	0	192.949	0	98.8	4	32.5	4	-1E+10	1	-1E+10	1	-1E+10	1	-1E+10	1	-1E+10	1	-1E+10	1
4902551	36	C	08/06/2021	20:09	-134.859	49.496	0	195.70	0	5.7760	0	33.8280	0	26.656	0	193.939	0	98.0	4	32.2	4	-1E+10	1	-1E+10	1	-1E+10	1	-1E+10	1	-1E+10	1	-1E+10	1
4902551	36	C	08/06/2021	20:09	-134.859	49.496	0	196.70	0	5.7770	0	33.8250	0	26.654	0	194.930	0	97.1	4	31.9	4	-1E+10	1	-1E+10	1	-1E+10	1	-1E+10	1	-1E+10	1	-1E+10	1
4902551	36	C	08/06/2021	20:09	-134.859	49.496	0	197.60	0	5.8040	0	33.8250	0	26.651	0	195.821	0	96.4	4	31.7	4	-1E+10	1	-1E+10	1	-1E+10	1	-1E+10	1	-1E+10	1	-1E+10	1
4902551	36	C	08/06/2021	20:09	-134.859	49.496	0	198.60	0	5.7990	0	33.8400	0	26.663	0	196.812	0	95.7	4	31.5	4	-1E+10	1	-1E+10	1	-1E+10	1	-1E+10	1	-1E+10	1	-1E+10	1
4902551	36	C	08/06/2021	20:09	-134.859	49.496	0	199.60	0	5.7710	0	33.8360	0	26.663	0	197.802	0	95.0	4	31.2	4	-1E+10	1	-1E+10	1	-1E+10	1	-1E+10	1	-1E+10	1	-1E+10	1
4902551	36	C	08/06/2021	20:09	-134.859	49.496	0	200.50	0	5.7830	0	33.8430	0	26.668	0	198.694	0	94.4	4	31.0	4	-1E+10	1	-1E+10	1	-1E+10	1	-1E+10	1	-1E+10	1	-1E+10	1
4902551	36	C	08/06/2021	20:09	-134.859	49.496	0	201.50	0	5.7980	0	33.8480	0	26.670	0	199.684	0	94.0	4	30.9	4	-1E+10	1	-1E+10	1	-1E+10	1	-1E+10	1	-1E+10	1	-1E+10	1
4902551	36	C	08/06/2021	20:09	-134.859	49.496	0	202.50	0	5.7830	0	33.8530	0	26.675	0	200.675	0	93.6	4	30.8	4	-1E+10	1	-1E+10	1	-1E+10	1	-1E+10	1	-1E+10	1	-1E+10	1
4902551	36	C	08/06/2021	20:09	-134.859	49.496	0	203.50	0	5.7660	0	33.8530	0	26.678	0	201.665	0	93.4	4	30.7	4	-1E+10	1	-1E+10	1	-1E+10	1	-1E+10	1	-1E+10	1	-1E+10	1
4902551	36	C	08/06/2021	20:09	-134.859	49.496	0	204.50	0	5.7560	0	33.8540	0	26.680	0	202.656	0	93.2	4	30.6	4	-1E+10	1	-1E+10	1	-1E+10	1	-1E+10	1	-1E+10	1	-1E+10	1
4902551	36	C	08/06/2021	20:09	-134.859	49.496	0	205.50	0	5.7560	0	33.8530	0	26.679	0	203.646	0	92.9	4	30.5	4	-1E+10	1	-1E+10	1	-1E+10	1	-1E+10	1	-1E+10	1	-1E+10	1
4902551	36	C	08/06/2021	20:09	-134.859	49.496	0	206.50	0	5.7560	0	33.8540	0	26.680	0	204.637	0	92.5	4	30.4	4	-1E+10	1	-1E+10	1	-1E+10	1	-1E+10	1	-1E+10	1	-1E+10	1
4902551	36	C	08/06/2021	20:09	-134.859	49.496	0	207.50	0	5.7380	0	33.8550	0	26.683	0	205.627	0	92.3	4	30.3	4	-1E+10	1	-1E+10	1	-1E+10	1	-1E+10	1	-1E+10	1	-1E+10	1
4902551	36	C	08/06/2021	20:09	-134.859	49.496	0	208.50	0	5.7280	0	33.8580	0	26.686	0	206.618	0	92.1	4	30.2	4	-1E+10	1	-1E+10	1	-1E+10	1	-1E+10	1	-1E+10	1	-1E+10	1
4902551	36	C	08/06/2021	20:09	-134.859	49.496	0	209.50	0	5.7190	0	33.8590	0	26.688	0	207.608	0	91.9	4	30.2	4	-1E+10	1	-1E+10	1	-1E+10	1	-1E+10	1	-1E+10	1	-1E+10	1
4902551	36	C	08/06/2021	20:09	-134.859	49.496	0	210.50	0	5.6890	0	33.8660	0	26.697	0	208.599	0	91.9	4	30.1	4	-1E+10	1	-1E+10	1	-1E+10	1	-1E+10	1	-1E+10	1	-1E+10	1
4902551	36	C	08/06/2021	20:09	-134.859	49.496	0	211.50	0	5.6820	0	33.8640	0	26.697	0	209.589	0	92.1	4	30.2	4	-1E+10	1	-1E+10	1	-1E+10	1	-1E+10	1	-1E+10	1	-1E+10	1
4902551	36	C	08/06/2021	20:09	-134.859	49.496	0	212.50	0	5.6780	0	33.8630	0	26.696	0	210.580	0	92.3	4	30.2	4	-1E+10	1	-1E+10	1	-1E+10	1	-1E+10	1	-1E+10	1	-1E+10	1
4902551	36	C	08/06/2021	20:09	-134.859	49.496	0	213.50	0	5.6710	0	33.8630	0	26.697	0	211.570	0	92.4	4	30.3	4	-1E+10	1	-1E+10	1	-1E+10	1	-1E+10	1	-1E+10	1	-1E+10	1
4902551	36	C	08/06/2021	20:09	-134.859	49.496	0	214.50	0	5.6650	0	33.8620	0	26.697	0	212.560	0	92.6	4	30.3	4	-1E+10	1	-1E+10	1	-1E+10	1	-1E+10	1	-1E+10	1	-1E+10	1
4902551	36	C	08/06/2021	20:09	-134.859	49.496	0	215.50	0	5.6510	0	33.8610	0	26.698	0	213.551	0	92.7	4	30.4	4	-1E+10	1	-1E+10	1	-1E+10	1	-1E+10	1	-1E+10	1	-1E+10	1
4902551	36	C	08/06/2021	20:09	-134.859	49.496	0	216.50	0	5.6440	0	33.8590	0	26.697	0	214.541	0	92.9	4	30.4	4	-1E+10	1	-1E+10	1	-1E+10	1	-1E+10	1	-1E+10	1	-1E+10	1
4902551	36	C	08/06/2021	20:09	-134.859	49.496	0	217.60	0	5.6340	0	33.8590	0	26.698	0	215.631	0	93.1	4	30.5	4	-1E+10	1	-1E+10	1	-1E+10	1	-1E+10	1	-1E+10	1	-1E+10	1
4902551	36	C	08/06/2021	20:09	-134.859	49.496	0	218.60	0	5.5680	0	33.8610	0	26.708	0	216.621	0	93.4	4	30.5	4	-1E+10	1	-1E+10	1	-1E+10	1	-1E+10	1	-1E+10	1	-1E+10	1
4902551	36	C	08/06/2021	20:09	-134.859	49.496	0	219.60	0	5.5110	0	33.8500	0	26.706	0	217.612	0	93.6	4	30.5	4	-1E+10	1	-1E+10	1	-1E+10	1	-1E+10	1	-1E+10	1	-1E+10	1
4902551	36	C	08/06/2021	20:09	-134.859	49.496	0	220.60	0	5.4860	0	33.8600	0	26.717	0	218.602	0	93.6	4	30.5	4	-1E+10	1	-1E+10	1	-1E+10	1	-1E+10	1	-1E+10	1	-1E+10	1
4902551	36	C	08/06/2021	20:09	-134.859	49.496	0	221.70	0	5.4630	0	33.8490	0	26.711	0	219.692	0	93.7	4	30.6	4	-1E+10	1	-1E+10	1	-1E+10	1	-1E+10	1	-1E+10	1	-1E+10	1
4902551	36	C	08/06/2021	20:09	-134.859	49.496	0	222.70	0	5.4410	0	33.8490	0	26.714	0	220.682	0	93.7	4	30.5	4	-1E+10	1	-1E+10	1	-1E+10	1	-1E+10	1	-1E+10	1	-1E+10	1
4902551	36	C	08/06/2021	20:09	-134.859	49.496	0	223.60	0	5.4250	0	33.8470	0	26.714	0	221.573	0	93.6	4	30.5	4	-1E+10	1	-1E+10	1	-1E+10	1	-1E+10	1	-1E+10	1	-1E+10	1
4902551	36	C	08/06/2021	20:09	-134.859	49.496	0	224.80	0	5.4140	0	33.8450	0	26.714	0	222.762	0	93.5	4	30.4	4	-1E+10	1	-1E+10	1	-1E+10	1	-1E+10	1	-1E+10	1	-1E+10	1
4902551	36	C	08/06/2021	20:09	-134.859	49.496	0	225.90	0	5.4050	0	33.8430	0	26.713	0	223.851	0	93.3	4	30.4	4	-1E+10	1	-1E+10	1	-1E+10	1	-1E+10	1	-1E+10	1	-1E+10	1
4902551	36	C	08/06/2021	20:09	-134.859	49.496	0	227.10	0	5.3940	0	33.8430	0	26.715	0	225.040	0	93.0	4	30.3	4	-1E+10	1	-1E+10	1	-1E+10	1	-1E+10	1	-1E+10	1	-1E+10	1
4902551	36	C	08/06/2021	20:09	-134.859	49.496	0	227.80	0	5.3880	0	33.8420	0	26.714	0	225.733	0	92.7	4	30.2	4	-1E+10	1	-1E+10	1	-1E+10	1	-1E+10	1	-1E+10	1	-1E+10	1
4902551	36	C	08/06/2021	20:09	-134.859	49.496	0	229.00	0	5.3940	0	33.8420	0	26.714	0	226.921	0	92.4	4	30.1	4	-1E+10	1	-1E+10	1	-1E+10	1	-1E+10	1	-1E+10	1	-1E+10	1
4902551	36	C	08/06/2021	20:09	-134.859	49.496	0	230.20	0	5.4140	0	33.8490	0	26.717	0	228.110	0	92.3	4	30.1	4	-1E+10	1	-1E+10	1	-1E+10	1	-1E+10	1	-1E+10	1	-1E+10	1
4902551	36	C	08/06/2021	20:09	-134.859	49.496	0	231.00	0	5.3960	0	33.8480	0	26.718	0	228.902	0	92.3	4	30.0	4	-1E+10	1	-1E+10	1	-1E+10	1	-1E+10	1	-1E+10	1	-1E+10	1
4902551	36	C	08/06/2021	20:09	-134.859	49.496	0	231.70	0	5.3450	0	33.8670	0	26.739	0	229.595	0	92.1	4	30.0	4	-1E+10	1	-1E+10	1	-1E+10	1	-1E+10	1	-1E+10	1	-1E+10	1
4902551	36	C	08/06/2021	20:09	-134.859	49.496	0	232.90	0	5.2940	0	33.8430	0	26.726	0	230.784	0	91.8	4	29.8	4	-1E+10	1	-1E+10	1	-1E+10	1	-1E+10	1	-1E+10	1	-1E+10	1
4902551	36	C	08/06/2021	20:09	-134.859	49.496	0	234.20	0	5.2750	0	33.8390	0	26.725	0	232.071	0	91.3	4	29.6	4	-1E+10	1	-1E+10	1	-1E+10	1	-1E+10	1	-1E+10	1	-1E+10	1
4902551	36	C	08/06/2021	20:09	-134.859	49.496	0	235.00	0	5.2780	0	33.8390	0	26.725	0	232.864	0	90.9	4	29.5	4	-1E+10	1	-1E+10	1	-1E+10	1	-1E+10	1	-1E+10	1	-1E+10	1
4902551	36	C	08/06/2021	20:09	-134.859	49.496	0	235.80	0	5.2950	0	33.8400	0	26.724	0	233.656	0	90.6	4	29.4	4	-1E+10	1	-1E+10	1	-1E+10	1	-1E+10	1	-1E+10	1	-1E+10	1
4902551	36	C	08/06/2021	20:09	-134.859	49.496	0	236.60	0	5.2820	0	33.8460	0	26.730	0	234.448	0	90.4	4	29.3	4	-1E+10	1	-1E+10	1	-1E+10	1	-1E+10	1	-1E+10	1	-1E+10	1
4902551	36	C	08/06/2021	20:09	-134.859	49.496	0	237.90	0	5.2400	0	33.8400	0	26.730	0	235.736	0	89.9	4	29.2	4	-1E+10	1	-1E+10	1	-1E+10	1	-1E+10	1	-1E+10	1	-1E+10	1
4902551	36	C	08/06/2021	20:09	-134.859	49.496	0	239.20	0	5.2310	0	33.8390	0	26.731	0	237.023	0	89.3	4	28.9	4	-1E+10	1	-1E+10	1	-1E+10	1	-1E+10	1	-1E+10	1	-1E+10	1
4902551	36	C	08/06/2021	20:09	-134.859	49.496	0	240.00	0	5.2190	0	33.8450	0	26.737	0	237.815	0	88.8	4	28.8	4	-1E+10	1	-1E+10	1	-1E+10	1	-1E+10	1	-1E+10	1	-1E+10	1
4902551	36	C	08/06/2021	20:09	-134.859	49.496	0	240.90	0	5.1890	0	33.8400	0	26.736	0	238.707	0	88.2	4	28.6	4	-1E+10	1	-1E+10	1	-1E+10	1	-1E+10	1	-1E+10	1	-1E+10	1
4902551	36	C	08/06/2021	20:09	-134.859	49.496	0	241.90	0	5.1840	0	33.8390	0	26.736	0	239.697	0	87.4	4	28.3	4	-1E+10	1	-1E+10	1	-1E+10	1	-1E+10	1	-1E+10	1	-1E+10	1
4902551	36	C	08/06/2021	20:09	-134.859	49.496	0	243.00	0	5.1830	0	33.8400	0	26.737	0	240.786	0	86.4	4	28.0	4	-1E+10	1	-1E+10	1	-1E+10	1	-1E+10	1	-1E+10	1	-1E+10	1
4902551	36	C	08/06/2021	20:09	-134.859	49.496	0	244.30	0	5.1890	0	33.8430	0	26.739	0	242.074	0	85.3	4	27.6	4	-1E+10	1	-1E+10	1	-1E+10	1	-1E+10	1	-1E+10	1	-1E+10	1
4902551	36	C	08/06/2021	20:09	-134.859	49.496	0	245.10	0	5.1980	0	33.8420	0	26.737	0	242.866	0	84.5	4	27.4	4	-1E+10	1	-1E+10	1	-1E+10	1	-1E+10	1	-1E+10	1	-1E+10	1
4902551	36	C	08/06/2021	20:09	-134.859	49.496	0	246.00	0	5.2380	0	33.8490	0	26.738	0	243.757	0	83.9	4	27.2	4	-1E+10	1	-1E+10	1	-1E+10	1	-1E+10	1	-1E+10	1	-1E+10	1
4902551	36	C	08/06/2021	20:09	-134.859	49.496	0	246.90	0	5.2610	0	33.8530	0	26.738	0	244.648	0	83.4	4	27.1	4	-1E+10	1	-1E+10	1	-1E+10	1	-1E+10	1	-1E+10	1	-1E+10	1
4902551	36	C	08/06/2021	20:09	-134.859	49.496	0	247.70	0	5.3000	0	33.8540	0	26.734	0	245.441	0	83.2	4	27.0	4	-1E+10	1	-1E+10	1	-1E+10	1	-1E+10	1	-1E+10	1	-1E+10	1
4902551	36	C	08/06/2021	20:09	-134.859	49.496	0	248.60	0	5.3190	0	33.8670	0	26.743	0	246.332	0	83.1	4	27.0	4	-1E+10	1	-1E+10	1	-1E+10	1	-1E+10	1	-1E+10	1	-1E+10	1
4902551	36	C	08/06/2021	20:09	-134.859	49.496	0	249.90	0	5.2790	0	33.8740	0	26.753	0	247.619	0	83.0	4	27.0	4	-1E+10	1	-1E+10	1	-1E+10	1	-1E+10	1	-1E+10	1	-1E+10	1
4902551	36	C	08/06/2021	20:09	-134.859	49.496	0	251.20	0	5.2080	0	33.8620	0	26.752	0	248.907	0	82.7	4	26.8	4	-1E+10	1	-1E+10	1	-1E+10	1	-1E+10	1	-1E+10	1	-1E+10	1
4902551	36	C	08/06/2021	20:09	-134.859	49.496	0	252.10	0	5.1820	0	33.8590	0	26.752	0	249.798	0	82.3	4	26.7	4	-1E+10	1	-1E+10	1	-1E+10	1	-1E+10	1	-1E+10	1	-1E+10	1
4902551	36	C	08/06/2021	20:09	-134.859	49.496	0	252.90	0	5.1720	0	33.8560	0	26.751	0	250.590	0	81.8	4	26.5	4	-1E+10	1	-1E+10	1	-1E+10	1	-1E+10	1	-1E+10	1	-1E+10	1
4902551	36	C	08/06/2021	20:09	-134.859	49.496	0	253.80	0	5.1690	0	33.8530	0	26.749	0	251.481	0	81.5	4	26.4	4	-1E+10	1	-1E+10	1	-1E+10	1	-1E+10	1	-1E+10	1	-1E+10	1
4902551	36	C	08/06/2021	20:09	-134.859	49.496	0	254.70	0	5.1750	0	33.8590	0	26.753	0	252.372	0	81.1	4	26.3	4	-1E+10	1	-1E+10	1	-1E+10	1	-1E+10	1	-1E+10	1	-1E+10	1
4902551	36	C	08/06/2021	20:09	-134.859	49.496	0	255.90	0	5.1960	0	33.8630	0	26.754	0	253.561	0	80.8	4	26.2	4	-1E+10	1	-1E+10	1	-1E+10	1	-1E+10	1	-1E+10	1	-1E+10	1
4902551	36	C	08/06/2021	20:09	-134.859	49.496	0	257.30	0	5.2110	0	33.8670	0	26.755	0	254.947	0	80.6	4	26.1	4	-1E+10	1	-1E+10	1	-1E+10	1	-1E+10	1	-1E+10	1	-1E+10	1
4902551	36	C	08/06/2021	20:09	-134.859	49.496	0	258.20	0	5.2030	0	33.8720	0	26.760	0	255.838	0	80.5	4	26.1	4	-1E+10	1	-1E+10	1	-1E+10	1	-1E+10	1	-1E+10	1	-1E+10	1
4902551	36	C	08/06/2021	20:09	-134.859	49.496	0	259.00	0	5.1900	0	33.8680	0	26.758	0	256.631	0	80.5	4	26.1	4	-1E+10	1	-1E+10	1	-1E+10	1	-1E+10	1	-1E+10	1	-1E+10	1
4902551	36	C	08/06/2021	20:09	-134.859	49.496	0	259.90	0	5.2000	0	33.8710	0	26.760	0	257.522	0	80.5	4	26.1	4	-1E+10	1	-1E+10	1	-1E+10	1	-1E+10	1	-1E+10	1	-1E+10	1
4902551	36	C	08/06/2021	20:09	-134.859	49.496	0	260.80	0	5.1910	0	33.8740	0	26.763	0	258.413	0	80.5	4	26.1	4	-1E+10	1	-1E+10	1	-1E+10	1	-1E+10	1	-1E+10	1	-1E+10	1
4902551	36	C	08/06/2021	20:09	-134.859	49.496	0	261.60	0	5.1420	0	33.8720	0	26.767	0	259.205	0	80.5	4	26.0	4	-1E+10	1	-1E+10	1	-1E+10	1	-1E+10	1	-1E+10	1	-1E+10	1
4902551	36	C	08/06/2021	20:09	-134.859	49.496	0	262.90	0	5.1060	0	33.8660	0	26.767	0	260.492	0	80.2	4	25.9	4	-1E+10	1	-1E+10	1	-1E+10	1	-1E+10	1	-1E+10	1	-1E+10	1
4902551	36	C	08/06/2021	20:09	-134.859	49.496	0	264.20	0	5.0740	0	33.8640	0	26.769	0	261.780	0	79.8	4	25.8	4	-1E+10	1	-1E+10	1	-1E+10	1	-1E+10	1	-1E+10	1	-1E+10	1
4902551	36	C	08/06/2021	20:09	-134.859	49.496	0	265.00	0	5.0680	0	33.8630	0	26.769	0	262.572	0	79.4	4	25.7	4	-1E+10	1	-1E+10	1	-1E+10	1	-1E+10	1	-1E+10	1	-1E+10	1
4902551	36	C	08/06/2021	20:09	-134.859	49.496	0	265.90	0	5.0670	0	33.8610	0	26.767	0	263.463	0	79.0	4	25.5	4	-1E+10	1	-1E+10	1	-1E+10	1	-1E+10	1	-1E+10	1	-1E+10	1
4902551	36	C	08/06/2021	20:09	-134.859	49.496	0	266.70	0	5.0710	0	33.8620	0	26.767	0	264.255	0	78.7	4	25.4	4	-1E+10	1	-1E+10	1	-1E+10	1	-1E+10	1	-1E+10	1	-1E+10	1
4902551	36	C	08/06/2021	20:09	-134.859	49.496	0	268.00	0	5.0760	0	33.8650	0	26.769	0	265.542	0	78.4	4	25.3	4	-1E+10	1	-1E+10	1	-1E+10	1	-1E+10	1	-1E+10	1	-1E+10	1
4902551	36	C	08/06/2021	20:09	-134.859	49.496	0	269.30	0	5.0900	0	33.8710	0	26.772	0	266.830	0	78.1	4	25.3	4	-1E+10	1	-1E+10	1	-1E+10	1	-1E+10	1	-1E+10	1	-1E+10	1
4902551	36	C	08/06/2021	20:09	-134.859	49.496	0	270.10	0	5.0840	0	33.8740	0	26.775	0	267.622	0	78.0	4	25.2	4	-1E+10	1	-1E+10	1	-1E+10	1	-1E+10	1	-1E+10	1	-1E+10	1
4902551	36	C	08/06/2021	20:09	-134.859	49.496	0	271.10	0	5.0560	0	33.8730	0	26.778	0	268.612	0	78.1	4	25.2	4	-1E+10	1	-1E+10	1	-1E+10	1	-1E+10	1	-1E+10	1	-1E+10	1
4902551	36	C	08/06/2021	20:09	-134.859	49.496	0	271.80	0	5.0460	0	33.8690	0	26.776	0	269.305	0	78.0	4	25.2	4	-1E+10	1	-1E+10	1	-1E+10	1	-1E+10	1	-1E+10	1	-1E+10	1
4902551	36	C	08/06/2021	20:09	-134.859	49.496	0	272.70	0	5.0330	0	33.8750	0	26.782	0	270.196	0	78.0	4	25.2	4	-1E+10	1	-1E+10	1	-1E+10	1	-1E+10	1	-1E+10	1	-1E+10	1
4902551	36	C	08/06/2021	20:09	-134.859	49.496	0	273.90	0	5.0080	0	33.8690	0	26.780	0	271.384	0	77.8	4	25.1	4	-1E+10	1	-1E+10	1	-1E+10	1	-1E+10	1	-1E+10	1	-1E+10	1
4902551	36	C	08/06/2021	20:09	-134.859	49.496	0	275.20	0	4.9810	0	33.8650	0	26.780	0	272.672	0	77.5	4	25.0	4	-1E+10	1	-1E+10	1	-1E+10	1	-1E+10	1	-1E+10	1	-1E+10	1
4902551	36	C	08/06/2021	20:09	-134.859	49.496	0	276.10	0	4.9380	0	33.8680	0	26.787	0	273.563	0	77.2	4	24.9	4	-1E+10	1	-1E+10	1	-1E+10	1	-1E+10	1	-1E+10	1	-1E+10	1
4902551	36	C	08/06/2021	20:09	-134.859	49.496	0	276.90	0	4.9190	0	33.8620	0	26.785	0	274.355	0	76.9	4	24.8	4	-1E+10	1	-1E+10	1	-1E+10	1	-1E+10	1	-1E+10	1	-1E+10	1
4902551	36	C	08/06/2021	20:09	-134.859	49.496	0	277.70	0	4.9160	0	33.8620	0	26.785	0	275.147	0	76.6	4	24.7	4	-1E+10	1	-1E+10	1	-1E+10	1	-1E+10	1	-1E+10	1	-1E+10	1
4902551	36	C	08/06/2021	20:09	-134.859	49.496	0	279.00	0	4.9150	0	33.8640	0	26.787	0	276.434	0	76.1	4	24.5	4	-1E+10	1	-1E+10	1	-1E+10	1	-1E+10	1	-1E+10	1	-1E+10	1
4902551	36	C	08/06/2021	20:09	-134.859	49.496	0	280.20	0	4.9050	0	33.8650	0	26.789	0	277.622	0	75.5	4	24.3	4	-1E+10	1	-1E+10	1	-1E+10	1	-1E+10	1	-1E+10	1	-1E+10	1
4902551	36	C	08/06/2021	20:09	-134.859	49.496	0	281.10	0	4.8850	0	33.8660	0	26.792	0	278.513	0	75.2	4	24.2	4	-1E+10	1	-1E+10	1	-1E+10	1	-1E+10	1	-1E+10	1	-1E+10	1
4902551	36	C	08/06/2021	20:09	-134.859	49.496	0	281.90	0	4.8760	0	33.8670	0	26.794	0	279.306	0	74.8	4	24.1	4	-1E+10	1	-1E+10	1	-1E+10	1	-1E+10	1	-1E+10	1	-1E+10	1
4902551	36	C	08/06/2021	20:09	-134.859	49.496	0	282.90	0	4.8600	0	33.8700	0	26.798	0	280.296	0	74.5	4	24.0	4	-1E+10	1	-1E+10	1	-1E+10	1	-1E+10	1	-1E+10	1	-1E+10	1
4902551	36	C	08/06/2021	20:09	-134.859	49.496	0	284.10	0	4.8490	0	33.8690	0	26.798	0	281.484	0	74.1	4	23.8	4	-1E+10	1	-1E+10	1	-1E+10	1	-1E+10	1	-1E+10	1	-1E+10	1
4902551	36	C	08/06/2021	20:09	-134.859	49.496	0	285.20	0	4.8470	0	33.8700	0	26.799	0	282.573	0	73.7	4	23.7	4	-1E+10	1	-1E+10	1	-1E+10	1	-1E+10	1	-1E+10	1	-1E+10	1
4902551	36	C	08/06/2021	20:09	-134.859	49.496	0	286.10	0	4.8450	0	33.8700	0	26.799	0	283.464	0	73.4	4	23.6	4	-1E+10	1	-1E+10	1	-1E+10	1	-1E+10	1	-1E+10	1	-1E+10	1
4902551	36	C	08/06/2021	20:09	-134.859	49.496	0	286.90	0	4.8410	0	33.8720	0	26.801	0	284.256	0	72.9	4	23.4	4	-1E+10	1	-1E+10	1	-1E+10	1	-1E+10	1	-1E+10	1	-1E+10	1
4902551	36	C	08/06/2021	20:09	-134.859	49.496	0	287.80	0	4.8340	0	33.8740	0	26.804	0	285.147	0	72.7	4	23.3	4	-1E+10	1	-1E+10	1	-1E+10	1	-1E+10	1	-1E+10	1	-1E+10	1
4902551	36	C	08/06/2021	20:09	-134.859	49.496	0	289.00	0	4.8240	0	33.8740	0	26.805	0	286.335	0	72.1	4	23.2	4	-1E+10	1	-1E+10	1	-1E+10	1	-1E+10	1	-1E+10	1	-1E+10	1
4902551	36	C	08/06/2021	20:09	-134.859	49.496	0	290.30	0	4.8120	0	33.8780	0	26.809	0	287.622	0	71.7	4	23.0	4	-1E+10	1	-1E+10	1	-1E+10	1	-1E+10	1	-1E+10	1	-1E+10	1
4902551	36	C	08/06/2021	20:09	-134.859	49.496	0	291.10	0	4.8080	0	33.8770	0	26.809	0	288.415	0	71.4	4	22.9	4	-1E+10	1	-1E+10	1	-1E+10	1	-1E+10	1	-1E+10	1	-1E+10	1
4902551	36	C	08/06/2021	20:09	-134.859	49.496	0	292.00	0	4.8070	0	33.8770	0	26.809	0	289.306	0	71.0	4	22.8	4	-1E+10	1	-1E+10	1	-1E+10	1	-1E+10	1	-1E+10	1	-1E+10	1
4902551	36	C	08/06/2021	20:09	-134.859	49.496	0	292.80	0	4.8050	0	33.8780	0	26.810	0	290.098	0	70.7	4	22.7	4	-1E+10	1	-1E+10	1	-1E+10	1	-1E+10	1	-1E+10	1	-1E+10	1
4902551	36	C	08/06/2021	20:09	-134.859	49.496	0	293.60	0	4.8010	0	33.8800	0	26.812	0	290.890	0	70.5	4	22.6	4	-1E+10	1	-1E+10	1	-1E+10	1	-1E+10	1	-1E+10	1	-1E+10	1
4902551	36	C	08/06/2021	20:09	-134.859	49.496	0	294.90	0	4.7880	0	33.8810	0	26.815	0	292.177	0	70.1	4	22.5	4	-1E+10	1	-1E+10	1	-1E+10	1	-1E+10	1	-1E+10	1	-1E+10	1
4902551	36	C	08/06/2021	20:09	-134.859	49.496	0	296.40	0	4.7830	0	33.8810	0	26.815	0	293.662	0	69.6	4	22.3	4	-1E+10	1	-1E+10	1	-1E+10	1	-1E+10	1	-1E+10	1	-1E+10	1
4902551	36	C	08/06/2021	20:09	-134.859	49.496	0	297.20	0	4.7780	0	33.8820	0	26.816	0	294.454	0	69.3	4	22.2	4	-1E+10	1	-1E+10	1	-1E+10	1	-1E+10	1	-1E+10	1	-1E+10	1
4902551	36	C	08/06/2021	20:09	-134.859	49.496	0	297.90	0	4.7780	0	33.8820	0	26.816	0	295.147	0	69.0	4	22.2	4	-1E+10	1	-1E+10	1	-1E+10	1	-1E+10	1	-1E+10	1	-1E+10	1
4902551	36	C	08/06/2021	20:09	-134.859	49.496	0	298.80	0	4.7790	0	33.8830	0	26.817	0	296.038	0	68.7	4	22.1	4	-1E+10	1	-1E+10	1	-1E+10	1	-1E+10	1	-1E+10	1	-1E+10	1
4902551	36	C	08/06/2021	20:09	-134.859	49.496	0	299.60	0	4.7800	0	33.8830	0	26.817	0	296.830	0	68.4	4	22.0	4	-1E+10	1	-1E+10	1	-1E+10	1	-1E+10	1	-1E+10	1	-1E+10	1
4902551	36	C	08/06/2021	20:09	-134.859	49.496	0	300.90	0	4.7770	0	33.8840	0	26.818	0	298.117	0	68.0	4	21.8	4	-1E+10	1	-1E+10	1	-1E+10	1	-1E+10	1	-1E+10	1	-1E+10	1
4902551	36	C	08/06/2021	20:09	-134.859	49.496	0	302.20	0	4.7760	0	33.8860	0	26.820	0	299.404	0	67.6	4	21.7	4	-1E+10	1	-1E+10	1	-1E+10	1	-1E+10	1	-1E+10	1	-1E+10	1
4902551	36	C	08/06/2021	20:09	-134.859	49.496	0	303.00	0	4.7700	0	33.8880	0	26.822	0	300.196	0	67.3	4	21.6	4	-1E+10	1	-1E+10	1	-1E+10	1	-1E+10	1	-1E+10	1	-1E+10	1
4902551	36	C	08/06/2021	20:09	-134.859	49.496	0	303.90	0	4.7580	0	33.8880	0	26.824	0	301.087	0	67.2	4	21.5	4	-1E+10	1	-1E+10	1	-1E+10	1	-1E+10	1	-1E+10	1	-1E+10	1
4902551	36	C	08/06/2021	20:09	-134.859	49.496	0	304.80	0	4.7510	0	33.8910	0	26.827	0	301.978	0	67.0	4	21.5	4	-1E+10	1	-1E+10	1	-1E+10	1	-1E+10	1	-1E+10	1	-1E+10	1
4902551	36	C	08/06/2021	20:09	-134.859	49.496	0	305.60	0	4.7280	0	33.8910	0	26.829	0	302.770	0	66.8	4	21.4	4	-1E+10	1	-1E+10	1	-1E+10	1	-1E+10	1	-1E+10	1	-1E+10	1
4902551	36	C	08/06/2021	20:09	-134.859	49.496	0	306.90	0	4.7220	0	33.8900	0	26.829	0	304.057	0	66.4	4	21.3	4	-1E+10	1	-1E+10	1	-1E+10	1	-1E+10	1	-1E+10	1	-1E+10	1
4902551	36	C	08/06/2021	20:09	-134.859	49.496	0	308.30	0	4.7200	0	33.8910	0	26.830	0	305.443	0	66.0	4	21.2	4	-1E+10	1	-1E+10	1	-1E+10	1	-1E+10	1	-1E+10	1	-1E+10	1
4902551	36	C	08/06/2021	20:09	-134.859	49.496	0	309.10	0	4.7190	0	33.8910	0	26.830	0	306.235	0	65.8	4	21.1	4	-1E+10	1	-1E+10	1	-1E+10	1	-1E+10	1	-1E+10	1	-1E+10	1
4902551	36	C	08/06/2021	20:09	-134.859	49.496	0	310.20	0	4.7140	0	33.8940	0	26.833	0	307.324	0	65.4	4	21.0	4	-1E+10	1	-1E+10	1	-1E+10	1	-1E+10	1	-1E+10	1	-1E+10	1
4902551	36	C	08/06/2021	20:09	-134.859	49.496	0	311.00	0	4.7080	0	33.8930	0	26.833	0	308.116	0	65.2	4	20.9	4	-1E+10	1	-1E+10	1	-1E+10	1	-1E+10	1	-1E+10	1	-1E+10	1
4902551	36	C	08/06/2021	20:09	-134.859	49.496	0	311.80	0	4.7020	0	33.8950	0	26.835	0	308.908	0	65.0	4	20.8	4	-1E+10	1	-1E+10	1	-1E+10	1	-1E+10	1	-1E+10	1	-1E+10	1
4902551	36	C	08/06/2021	20:09	-134.859	49.496	0	312.60	0	4.6960	0	33.8960	0	26.837	0	309.700	0	64.8	4	20.8	4	-1E+10	1	-1E+10	1	-1E+10	1	-1E+10	1	-1E+10	1	-1E+10	1
4902551	36	C	08/06/2021	20:09	-134.859	49.496	0	313.90	0	4.6920	0	33.8960	0	26.837	0	310.987	0	64.4	4	20.6	4	-1E+10	1	-1E+10	1	-1E+10	1	-1E+10	1	-1E+10	1	-1E+10	1
4902551	36	C	08/06/2021	20:09	-134.859	49.496	0	315.30	0	4.6900	0	33.8970	0	26.838	0	312.373	0	64.0	4	20.5	4	-1E+10	1	-1E+10	1	-1E+10	1	-1E+10	1	-1E+10	1	-1E+10	1
4902551	36	C	08/06/2021	20:09	-134.859	49.496	0	316.20	0	4.6860	0	33.8980	0	26.839	0	313.264	0	63.7	4	20.4	4	-1E+10	1	-1E+10	1	-1E+10	1	-1E+10	1	-1E+10	1	-1E+10	1
4902551	36	C	08/06/2021	20:09	-134.859	49.496	0	317.10	0	4.6750	0	33.9010	0	26.843	0	314.155	0	63.5	4	20.3	4	-1E+10	1	-1E+10	1	-1E+10	1	-1E+10	1	-1E+10	1	-1E+10	1
4902551	36	C	08/06/2021	20:09	-134.859	49.496	0	318.00	0	4.6640	0	33.9010	0	26.844	0	315.046	0	63.2	4	20.2	4	-1E+10	1	-1E+10	1	-1E+10	1	-1E+10	1	-1E+10	1	-1E+10	1
4902551	36	C	08/06/2021	20:09	-134.859	49.496	0	318.90	0	4.6610	0	33.9020	0	26.845	0	315.937	0	63.0	4	20.2	4	-1E+10	1	-1E+10	1	-1E+10	1	-1E+10	1	-1E+10	1	-1E+10	1
4902551	36	C	08/06/2021	20:09	-134.859	49.496	0	319.80	0	4.6580	0	33.9030	0	26.847	0	316.828	0	62.8	4	20.1	4	-1E+10	1	-1E+10	1	-1E+10	1	-1E+10	1	-1E+10	1	-1E+10	1
4902551	36	C	08/06/2021	20:09	-134.859	49.496	0	320.80	0	4.6560	0	33.9030	0	26.847	0	317.818	0	62.6	4	20.0	4	-1E+10	1	-1E+10	1	-1E+10	1	-1E+10	1	-1E+10	1	-1E+10	1
4902551	36	C	08/06/2021	20:09	-134.859	49.496	0	321.70	0	4.6580	0	33.9030	0	26.847	0	318.709	0	62.4	4	20.0	4	-1E+10	1	-1E+10	1	-1E+10	1	-1E+10	1	-1E+10	1	-1E+10	1
4902551	36	C	08/06/2021	20:09	-134.859	49.496	0	322.60	0	4.6580	0	33.9030	0	26.847	0	319.600	0	62.1	4	19.9	4	-1E+10	1	-1E+10	1	-1E+10	1	-1E+10	1	-1E+10	1	-1E+10	1
4902551	36	C	08/06/2021	20:09	-134.859	49.496	0	323.50	0	4.6600	0	33.9040	0	26.847	0	320.491	0	61.9	4	19.8	4	-1E+10	1	-1E+10	1	-1E+10	1	-1E+10	1	-1E+10	1	-1E+10	1
4902551	36	C	08/06/2021	20:09	-134.859	49.496	0	324.60	0	4.6610	0	33.9040	0	26.847	0	321.579	0	61.5	4	19.7	4	-1E+10	1	-1E+10	1	-1E+10	1	-1E+10	1	-1E+10	1	-1E+10	1
4902551	36	C	08/06/2021	20:09	-134.859	49.496	0	325.90	0	4.6550	0	33.9060	0	26.849	0	322.866	0	61.2	4	19.6	4	-1E+10	1	-1E+10	1	-1E+10	1	-1E+10	1	-1E+10	1	-1E+10	1
4902551	36	C	08/06/2021	20:09	-134.859	49.496	0	327.30	0	4.6460	0	33.9090	0	26.853	0	324.252	0	60.7	4	19.4	4	-1E+10	1	-1E+10	1	-1E+10	1	-1E+10	1	-1E+10	1	-1E+10	1
4902551	36	C	08/06/2021	20:09	-134.859	49.496	0	328.00	0	4.6430	0	33.9070	0	26.851	0	324.945	0	60.5	4	19.4	4	-1E+10	1	-1E+10	1	-1E+10	1	-1E+10	1	-1E+10	1	-1E+10	1
4902551	36	C	08/06/2021	20:09	-134.859	49.496	0	329.00	0	4.6390	0	33.9080	0	26.853	0	325.935	0	60.1	4	19.2	4	-1E+10	1	-1E+10	1	-1E+10	1	-1E+10	1	-1E+10	1	-1E+10	1
4902551	36	C	08/06/2021	20:09	-134.859	49.496	0	329.90	0	4.6320	0	33.9090	0	26.854	0	326.826	0	59.8	4	19.1	4	-1E+10	1	-1E+10	1	-1E+10	1	-1E+10	1	-1E+10	1	-1E+10	1
4902551	36	C	08/06/2021	20:09	-134.859	49.496	0	331.00	0	4.6290	0	33.9110	0	26.856	0	327.915	0	59.4	4	19.0	4	-1E+10	1	-1E+10	1	-1E+10	1	-1E+10	1	-1E+10	1	-1E+10	1
4902551	36	C	08/06/2021	20:09	-134.859	49.496	0	331.80	0	4.6290	0	33.9120	0	26.857	0	328.707	0	59.3	4	19.0	4	-1E+10	1	-1E+10	1	-1E+10	1	-1E+10	1	-1E+10	1	-1E+10	1
4902551	36	C	08/06/2021	20:09	-134.859	49.496	0	332.90	0	4.6280	0	33.9150	0	26.859	0	329.796	0	59.0	4	18.9	4	-1E+10	1	-1E+10	1	-1E+10	1	-1E+10	1	-1E+10	1	-1E+10	1
4902551	36	C	08/06/2021	20:09	-134.859	49.496	0	333.60	0	4.6230	0	33.9160	0	26.861	0	330.489	0	58.7	4	18.8	4	-1E+10	1	-1E+10	1	-1E+10	1	-1E+10	1	-1E+10	1	-1E+10	1
4902551	36	C	08/06/2021	20:09	-134.859	49.496	0	334.90	0	4.6210	0	33.9160	0	26.861	0	331.775	0	58.4	4	18.7	4	-1E+10	1	-1E+10	1	-1E+10	1	-1E+10	1	-1E+10	1	-1E+10	1
4902551	36	C	08/06/2021	20:09	-134.859	49.496	0	336.60	0	4.6150	0	33.9190	0	26.864	0	333.458	0	58.0	4	18.6	4	-1E+10	1	-1E+10	1	-1E+10	1	-1E+10	1	-1E+10	1	-1E+10	1
4902551	36	C	08/06/2021	20:09	-134.859	49.496	0	337.90	0	4.6130	0	33.9190	0	26.864	0	334.745	0	57.8	4	18.5	4	-1E+10	1	-1E+10	1	-1E+10	1	-1E+10	1	-1E+10	1	-1E+10	1
4902551	36	C	08/06/2021	20:09	-134.859	49.496	0	339.30	0	4.6110	0	33.9200	0	26.865	0	336.131	0	57.4	4	18.4	4	-1E+10	1	-1E+10	1	-1E+10	1	-1E+10	1	-1E+10	1	-1E+10	1
4902551	36	C	08/06/2021	20:09	-134.859	49.496	0	340.20	0	4.6090	0	33.9210	0	26.866	0	337.022	0	57.2	4	18.3	4	-1E+10	1	-1E+10	1	-1E+10	1	-1E+10	1	-1E+10	1	-1E+10	1
4902551	36	C	08/06/2021	20:09	-134.859	49.496	0	341.20	0	4.6070	0	33.9210	0	26.867	0	338.011	0	57.0	4	18.2	4	-1E+10	1	-1E+10	1	-1E+10	1	-1E+10	1	-1E+10	1	-1E+10	1
4902551	36	C	08/06/2021	20:09	-134.859	49.496	0	342.10	0	4.6030	0	33.9220	0	26.868	0	338.902	0	56.8	4	18.1	4	-1E+10	1	-1E+10	1	-1E+10	1	-1E+10	1	-1E+10	1	-1E+10	1
4902551	36	C	08/06/2021	20:09	-134.859	49.496	0	343.10	0	4.6030	0	33.9210	0	26.867	0	339.892	0	56.6	4	18.1	4	-1E+10	1	-1E+10	1	-1E+10	1	-1E+10	1	-1E+10	1	-1E+10	1
4902551	36	C	08/06/2021	20:09	-134.859	49.496	0	344.00	0	4.6020	0	33.9220	0	26.868	0	340.783	0	56.3	4	18.0	4	-1E+10	1	-1E+10	1	-1E+10	1	-1E+10	1	-1E+10	1	-1E+10	1
4902551	36	C	08/06/2021	20:09	-134.859	49.496	0	345.00	0	4.6010	0	33.9220	0	26.868	0	341.773	0	56.0	4	17.9	4	-1E+10	1	-1E+10	1	-1E+10	1	-1E+10	1	-1E+10	1	-1E+10	1
4902551	36	C	08/06/2021	20:09	-134.859	49.496	0	345.90	0	4.5990	0	33.9230	0	26.869	0	342.664	0	55.7	4	17.8	4	-1E+10	1	-1E+10	1	-1E+10	1	-1E+10	1	-1E+10	1	-1E+10	1
4902551	36	C	08/06/2021	20:09	-134.859	49.496	0	346.90	0	4.5930	0	33.9250	0	26.871	0	343.653	0	55.4	4	17.7	4	-1E+10	1	-1E+10	1	-1E+10	1	-1E+10	1	-1E+10	1	-1E+10	1
4902551	36	C	08/06/2021	20:09	-134.859	49.496	0	347.80	0	4.5850	0	33.9270	0	26.874	0	344.544	0	55.2	4	17.6	4	-1E+10	1	-1E+10	1	-1E+10	1	-1E+10	1	-1E+10	1	-1E+10	1
4902551	36	C	08/06/2021	20:09	-134.859	49.496	0	348.80	0	4.5840	0	33.9280	0	26.875	0	345.534	0	55.0	4	17.6	4	-1E+10	1	-1E+10	1	-1E+10	1	-1E+10	1	-1E+10	1	-1E+10	1
4902551	36	C	08/06/2021	20:09	-134.859	49.496	0	349.70	0	4.5790	0	33.9290	0	26.876	0	346.425	0	54.7	4	17.5	4	-1E+10	1	-1E+10	1	-1E+10	1	-1E+10	1	-1E+10	1	-1E+10	1
4902551	36	C	08/06/2021	20:09	-134.859	49.496	0	352.60	0	4.5700	0	33.9320	0	26.879	0	349.295	0	54.2	4	17.3	4	-1E+10	1	-1E+10	1	-1E+10	1	-1E+10	1	-1E+10	1	-1E+10	1
4902551	36	C	08/06/2021	20:09	-134.859	49.496	0	357.60	0	4.5590	0	33.9370	0	26.885	0	354.244	0	53.4	4	17.0	4	-1E+10	1	-1E+10	1	-1E+10	1	-1E+10	1	-1E+10	1	-1E+10	1
4902551	36	C	08/06/2021	20:09	-134.859	49.496	0	362.60	0	4.5510	0	33.9400	0	26.888	0	359.193	0	52.6	4	16.8	4	-1E+10	1	-1E+10	1	-1E+10	1	-1E+10	1	-1E+10	1	-1E+10	1
4902551	36	C	08/06/2021	20:09	-134.859	49.496	0	367.70	0	4.5460	0	33.9420	0	26.890	0	364.241	0	51.6	4	16.5	4	-1E+10	1	-1E+10	1	-1E+10	1	-1E+10	1	-1E+10	1	-1E+10	1
4902551	36	C	08/06/2021	20:09	-134.859	49.496	0	373.00	0	4.5350	0	33.9460	0	26.894	0	369.486	0	50.4	4	16.1	4	-1E+10	1	-1E+10	1	-1E+10	1	-1E+10	1	-1E+10	1	-1E+10	1
4902551	36	C	08/06/2021	20:09	-134.859	49.496	0	377.80	0	4.5170	0	33.9530	0	26.902	0	374.236	0	49.2	4	15.7	4	-1E+10	1	-1E+10	1	-1E+10	1	-1E+10	1	-1E+10	1	-1E+10	1
4902551	36	C	08/06/2021	20:09	-134.859	49.496	0	382.90	0	4.4990	0	33.9590	0	26.909	0	379.284	0	48.2	4	15.4	4	-1E+10	1	-1E+10	1	-1E+10	1	-1E+10	1	-1E+10	1	-1E+10	1
4902551	36	C	08/06/2021	20:09	-134.859	49.496	0	388.00	0	4.4870	0	33.9640	0	26.914	0	384.331	0	47.2	4	15.1	4	-1E+10	1	-1E+10	1	-1E+10	1	-1E+10	1	-1E+10	1	-1E+10	1
4902551	36	C	08/06/2021	20:09	-134.859	49.496	0	392.80	0	4.4730	0	33.9690	0	26.920	0	389.081	0	46.5	4	14.8	4	-1E+10	1	-1E+10	1	-1E+10	1	-1E+10	1	-1E+10	1	-1E+10	1
4902551	36	C	08/06/2021	20:09	-134.859	49.496	0	397.90	0	4.4640	0	33.9720	0	26.923	0	394.128	0	45.6	4	14.6	4	-1E+10	1	-1E+10	1	-1E+10	1	-1E+10	1	-1E+10	1	-1E+10	1
4902551	36	C	08/06/2021	20:09	-134.859	49.496	0	403.20	0	4.4480	0	33.9780	0	26.929	0	399.372	0	44.8	4	14.3	4	-1E+10	1	-1E+10	1	-1E+10	1	-1E+10	1	-1E+10	1	-1E+10	1
4902551	36	C	08/06/2021	20:09	-134.859	49.496	0	408.10	0	4.4380	0	33.9810	0	26.933	0	404.221	0	44.0	4	14.0	4	-1E+10	1	-1E+10	1	-1E+10	1	-1E+10	1	-1E+10	1	-1E+10	1
4902551	36	C	08/06/2021	20:09	-134.859	49.496	0	413.00	0	4.4230	0	33.9860	0	26.939	0	409.070	0	43.0	4	13.7	4	-1E+10	1	-1E+10	1	-1E+10	1	-1E+10	1	-1E+10	1	-1E+10	1
4902551	36	C	08/06/2021	20:09	-134.859	49.496	0	418.00	0	4.4060	0	33.9920	0	26.945	0	414.017	0	42.3	4	13.5	4	-1E+10	1	-1E+10	1	-1E+10	1	-1E+10	1	-1E+10	1	-1E+10	1
4902551	36	C	08/06/2021	20:09	-134.859	49.496	0	423.10	0	4.3950	0	33.9960	0	26.950	0	419.063	0	41.5	4	13.2	4	-1E+10	1	-1E+10	1	-1E+10	1	-1E+10	1	-1E+10	1	-1E+10	1
4902551	36	C	08/06/2021	20:09	-134.859	49.496	0	428.10	0	4.3770	0	34.0010	0	26.956	0	424.011	0	40.8	4	13.0	4	-1E+10	1	-1E+10	1	-1E+10	1	-1E+10	1	-1E+10	1	-1E+10	1
4902551	36	C	08/06/2021	20:09	-134.859	49.496	0	433.10	0	4.3670	0	34.0040	0	26.959	0	428.958	0	40.1	4	12.7	4	-1E+10	1	-1E+10	1	-1E+10	1	-1E+10	1	-1E+10	1	-1E+10	1
4902551	36	C	08/06/2021	20:09	-134.859	49.496	0	438.00	0	4.3560	0	34.0080	0	26.963	0	433.806	0	39.2	4	12.5	4	-1E+10	1	-1E+10	1	-1E+10	1	-1E+10	1	-1E+10	1	-1E+10	1
4902551	36	C	08/06/2021	20:09	-134.859	49.496	0	442.90	0	4.3360	0	34.0140	0	26.970	0	438.654	0	38.3	4	12.2	4	-1E+10	1	-1E+10	1	-1E+10	1	-1E+10	1	-1E+10	1	-1E+10	1
4902551	36	C	08/06/2021	20:09	-134.859	49.496	0	448.10	0	4.3190	0	34.0200	0	26.977	0	443.798	0	37.5	4	11.9	4	-1E+10	1	-1E+10	1	-1E+10	1	-1E+10	1	-1E+10	1	-1E+10	1
4902551	36	C	08/06/2021	20:09	-134.859	49.496	0	452.90	0	4.3070	0	34.0230	0	26.981	0	448.547	0	36.7	4	11.6	4	-1E+10	1	-1E+10	1	-1E+10	1	-1E+10	1	-1E+10	1	-1E+10	1
4902551	36	C	08/06/2021	20:09	-134.859	49.496	0	457.50	0	4.2850	0	34.0310	0	26.989	0	453.098	0	35.8	4	11.4	4	-1E+10	1	-1E+10	1	-1E+10	1	-1E+10	1	-1E+10	1	-1E+10	1
4902551	36	C	08/06/2021	20:09	-134.859	49.496	0	462.60	0	4.2650	0	34.0370	0	26.996	0	458.143	0	35.1	4	11.1	4	-1E+10	1	-1E+10	1	-1E+10	1	-1E+10	1	-1E+10	1	-1E+10	1
4902551	36	C	08/06/2021	20:09	-134.859	49.496	0	468.00	0	4.2510	0	34.0410	0	27.001	0	463.485	0	34.3	4	10.9	4	-1E+10	1	-1E+10	1	-1E+10	1	-1E+10	1	-1E+10	1	-1E+10	1
4902551	36	C	08/06/2021	20:09	-134.859	49.496	0	473.30	0	4.2310	0	34.0490	0	27.009	0	468.728	0	33.7	4	10.7	4	-1E+10	1	-1E+10	1	-1E+10	1	-1E+10	1	-1E+10	1	-1E+10	1
4902551	36	C	08/06/2021	20:09	-134.859	49.496	0	478.20	0	4.2200	0	34.0530	0	27.014	0	473.575	0	33.2	4	10.5	4	-1E+10	1	-1E+10	1	-1E+10	1	-1E+10	1	-1E+10	1	-1E+10	1
4902551	36	C	08/06/2021	20:09	-134.859	49.496	0	483.10	0	4.2020	0	34.0580	0	27.020	0	478.422	0	32.7	4	10.4	4	-1E+10	1	-1E+10	1	-1E+10	1	-1E+10	1	-1E+10	1	-1E+10	1
4902551	36	C	08/06/2021	20:09	-134.859	49.496	0	488.00	0	4.1910	0	34.0620	0	27.024	0	483.269	0	32.3	4	10.2	4	-1E+10	1	-1E+10	1	-1E+10	1	-1E+10	1	-1E+10	1	-1E+10	1
4902551	36	C	08/06/2021	20:09	-134.859	49.496	0	493.00	0	4.1790	0	34.0660	0	27.028	0	488.214	0	31.9	4	10.1	4	-1E+10	1	-1E+10	1	-1E+10	1	-1E+10	1	-1E+10	1	-1E+10	1
4902551	36	C	08/06/2021	20:09	-134.859	49.496	0	498.00	0	4.1730	0	34.0680	0	27.031	0	493.160	0	31.5	4	10.0	4	-1E+10	1	-1E+10	1	-1E+10	1	-1E+10	1	-1E+10	1	-1E+10	1
4902551	36	C	08/06/2021	20:09	-134.859	49.496	0	503.00	0	4.1550	0	34.0740	0	27.037	0	498.105	0	31.1	4	9.8	4	-1E+10	1	-1E+10	1	-1E+10	1	-1E+10	1	-1E+10	1	-1E+10	1
4902551	36	C	08/06/2021	20:09	-134.859	49.496	0	508.20	0	4.1420	0	34.0770	0	27.041	0	503.248	0	30.5	4	9.7	4	-1E+10	1	-1E+10	1	-1E+10	1	-1E+10	1	-1E+10	1	-1E+10	1
4902551	36	C	08/06/2021	20:09	-134.859	49.496	0	512.90	0	4.1300	0	34.0810	0	27.046	0	507.897	0	30.1	4	9.5	4	-1E+10	1	-1E+10	1	-1E+10	1	-1E+10	1	-1E+10	1	-1E+10	1
4902551	36	C	08/06/2021	20:09	-134.859	49.496	0	517.70	0	4.1150	0	34.0860	0	27.051	0	512.644	0	29.7	4	9.4	4	-1E+10	1	-1E+10	1	-1E+10	1	-1E+10	1	-1E+10	1	-1E+10	1
4902551	36	C	08/06/2021	20:09	-134.859	49.496	0	523.10	0	4.0890	0	34.0940	0	27.060	0	517.985	0	29.4	4	9.3	4	-1E+10	1	-1E+10	1	-1E+10	1	-1E+10	1	-1E+10	1	-1E+10	1
4902551	36	C	08/06/2021	20:09	-134.859	49.496	0	528.10	0	4.0830	0	34.0960	0	27.063	0	522.929	0	29.2	4	9.2	4	-1E+10	1	-1E+10	1	-1E+10	1	-1E+10	1	-1E+10	1	-1E+10	1
4902551	36	C	08/06/2021	20:09	-134.859	49.496	0	533.00	0	4.0780	0	34.0970	0	27.064	0	527.775	0	28.8	4	9.1	4	-1E+10	1	-1E+10	1	-1E+10	1	-1E+10	1	-1E+10	1	-1E+10	1
4902551	36	C	08/06/2021	20:09	-134.859	49.496	0	538.20	0	4.0590	0	34.1030	0	27.071	0	532.918	0	28.4	4	9.0	4	-1E+10	1	-1E+10	1	-1E+10	1	-1E+10	1	-1E+10	1	-1E+10	1
4902551	36	C	08/06/2021	20:09	-134.859	49.496	0	542.90	0	4.0430	0	34.1080	0	27.076	0	537.565	0	27.9	4	8.8	4	-1E+10	1	-1E+10	1	-1E+10	1	-1E+10	1	-1E+10	1	-1E+10	1
4902551	36	C	08/06/2021	20:09	-134.859	49.496	0	547.70	0	4.0220	0	34.1140	0	27.083	0	542.312	0	27.5	4	8.7	4	-1E+10	1	-1E+10	1	-1E+10	1	-1E+10	1	-1E+10	1	-1E+10	1
4902551	36	C	08/06/2021	20:09	-134.859	49.496	0	553.00	0	4.0140	0	34.1170	0	27.086	0	547.553	0	27.1	4	8.5	4	-1E+10	1	-1E+10	1	-1E+10	1	-1E+10	1	-1E+10	1	-1E+10	1
4902551	36	C	08/06/2021	20:09	-134.859	49.496	0	558.30	0	4.0070	0	34.1190	0	27.089	0	552.794	0	26.5	4	8.4	4	-1E+10	1	-1E+10	1	-1E+10	1	-1E+10	1	-1E+10	1	-1E+10	1
4902551	36	C	08/06/2021	20:09	-134.859	49.496	0	563.30	0	3.9820	0	34.1270	0	27.098	0	557.738	0	26.0	4	8.2	4	-1E+10	1	-1E+10	1	-1E+10	1	-1E+10	1	-1E+10	1	-1E+10	1
4902551	36	C	08/06/2021	20:09	-134.859	49.496	0	568.30	0	3.9640	0	34.1320	0	27.104	0	562.682	0	25.7	4	8.1	4	-1E+10	1	-1E+10	1	-1E+10	1	-1E+10	1	-1E+10	1	-1E+10	1
4902551	36	C	08/06/2021	20:09	-134.859	49.496	0	572.90	0	3.9560	0	34.1340	0	27.106	0	567.230	0	25.4	4	8.0	4	-1E+10	1	-1E+10	1	-1E+10	1	-1E+10	1	-1E+10	1	-1E+10	1
4902551	36	C	08/06/2021	20:09	-134.859	49.496	0	577.70	0	3.9430	0	34.1380	0	27.111	0	571.976	0	25.1	4	7.9	4	-1E+10	1	-1E+10	1	-1E+10	1	-1E+10	1	-1E+10	1	-1E+10	1
4902551	36	C	08/06/2021	20:09	-134.859	49.496	0	582.90	0	3.9320	0	34.1410	0	27.114	0	577.117	0	24.7	4	7.8	4	-1E+10	1	-1E+10	1	-1E+10	1	-1E+10	1	-1E+10	1	-1E+10	1
4902551	36	C	08/06/2021	20:09	-134.859	49.496	0	588.20	0	3.9150	0	34.1460	0	27.120	0	582.357	0	24.4	4	7.7	4	-1E+10	1	-1E+10	1	-1E+10	1	-1E+10	1	-1E+10	1	-1E+10	1
4902551	36	C	08/06/2021	20:09	-134.859	49.496	0	593.00	0	3.9050	0	34.1490	0	27.123	0	587.103	0	24.1	4	7.6	4	-1E+10	1	-1E+10	1	-1E+10	1	-1E+10	1	-1E+10	1	-1E+10	1
4902551	36	C	08/06/2021	20:09	-134.859	49.496	0	598.00	0	3.8980	0	34.1510	0	27.126	0	592.046	0	23.7	4	7.5	4	-1E+10	1	-1E+10	1	-1E+10	1	-1E+10	1	-1E+10	1	-1E+10	1
4902551	36	C	08/06/2021	20:09	-134.859	49.496	0	603.10	0	3.8880	0	34.1550	0	27.130	0	597.088	0	23.2	4	7.3	4	-1E+10	1	-1E+10	1	-1E+10	1	-1E+10	1	-1E+10	1	-1E+10	1
4902551	36	C	08/06/2021	20:09	-134.859	49.496	0	607.90	0	3.8700	0	34.1600	0	27.136	0	601.833	0	22.9	4	7.2	4	-1E+10	1	-1E+10	1	-1E+10	1	-1E+10	1	-1E+10	1	-1E+10	1
4902551	36	C	08/06/2021	20:09	-134.859	49.496	0	612.80	0	3.8580	0	34.1640	0	27.140	0	606.677	0	22.5	4	7.1	4	-1E+10	1	-1E+10	1	-1E+10	1	-1E+10	1	-1E+10	1	-1E+10	1
4902551	36	C	08/06/2021	20:09	-134.859	49.496	0	617.90	0	3.8510	0	34.1660	0	27.142	0	611.718	0	22.2	4	7.0	4	-1E+10	1	-1E+10	1	-1E+10	1	-1E+10	1	-1E+10	1	-1E+10	1
4902551	36	C	08/06/2021	20:09	-134.859	49.496	0	623.00	0	3.8480	0	34.1670	0	27.144	0	616.760	0	21.7	4	6.8	4	-1E+10	1	-1E+10	1	-1E+10	1	-1E+10	1	-1E+10	1	-1E+10	1
4902551	36	C	08/06/2021	20:09	-134.859	49.496	0	628.10	0	3.8410	0	34.1710	0	27.147	0	621.801	0	21.2	4	6.7	4	-1E+10	1	-1E+10	1	-1E+10	1	-1E+10	1	-1E+10	1	-1E+10	1
4902551	36	C	08/06/2021	20:09	-134.859	49.496	0	632.90	0	3.8320	0	34.1750	0	27.152	0	626.546	0	20.8	4	6.5	4	-1E+10	1	-1E+10	1	-1E+10	1	-1E+10	1	-1E+10	1	-1E+10	1
4902551	36	C	08/06/2021	20:09	-134.859	49.496	0	637.60	0	3.8250	0	34.1780	0	27.155	0	631.191	0	20.6	4	6.5	4	-1E+10	1	-1E+10	1	-1E+10	1	-1E+10	1	-1E+10	1	-1E+10	1
4902551	36	C	08/06/2021	20:09	-134.859	49.496	0	642.80	0	3.8220	0	34.1800	0	27.157	0	636.331	0	20.3	4	6.4	4	-1E+10	1	-1E+10	1	-1E+10	1	-1E+10	1	-1E+10	1	-1E+10	1
4902551	36	C	08/06/2021	20:09	-134.859	49.496	0	648.00	0	3.8140	0	34.1830	0	27.160	0	641.471	0	20.0	4	6.3	4	-1E+10	1	-1E+10	1	-1E+10	1	-1E+10	1	-1E+10	1	-1E+10	1
4902551	36	C	08/06/2021	20:09	-134.859	49.496	0	652.90	0	3.8040	0	34.1860	0	27.163	0	646.314	0	19.8	4	6.2	4	-1E+10	1	-1E+10	1	-1E+10	1	-1E+10	1	-1E+10	1	-1E+10	1
4902551	36	C	08/06/2021	20:09	-134.859	49.496	0	657.80	0	3.7960	0	34.1890	0	27.166	0	651.157	0	19.6	4	6.2	4	-1E+10	1	-1E+10	1	-1E+10	1	-1E+10	1	-1E+10	1	-1E+10	1
4902551	36	C	08/06/2021	20:09	-134.859	49.496	0	662.80	0	3.7870	0	34.1920	0	27.170	0	656.098	0	19.4	4	6.1	4	-1E+10	1	-1E+10	1	-1E+10	1	-1E+10	1	-1E+10	1	-1E+10	1
4902551	36	C	08/06/2021	20:09	-134.859	49.496	0	667.70	0	3.7790	0	34.1940	0	27.172	0	660.941	0	19.3	4	6.0	4	-1E+10	1	-1E+10	1	-1E+10	1	-1E+10	1	-1E+10	1	-1E+10	1
4902551	36	C	08/06/2021	20:09	-134.859	49.496	0	672.70	0	3.7720	0	34.1960	0	27.175	0	665.883	0	19.1	4	6.0	4	-1E+10	1	-1E+10	1	-1E+10	1	-1E+10	1	-1E+10	1	-1E+10	1
4902551	36	C	08/06/2021	20:09	-134.859	49.496	0	677.90	0	3.7640	0	34.1980	0	27.177	0	671.021	0	18.8	4	5.9	4	-1E+10	1	-1E+10	1	-1E+10	1	-1E+10	1	-1E+10	1	-1E+10	1
4902551	36	C	08/06/2021	20:09	-134.859	49.496	0	683.00	0	3.7540	0	34.2010	0	27.180	0	676.061	0	18.6	4	5.8	4	-1E+10	1	-1E+10	1	-1E+10	1	-1E+10	1	-1E+10	1	-1E+10	1
4902551	36	C	08/06/2021	20:09	-134.859	49.496	0	687.70	0	3.7420	0	34.2050	0	27.185	0	680.706	0	18.4	4	5.8	4	-1E+10	1	-1E+10	1	-1E+10	1	-1E+10	1	-1E+10	1	-1E+10	1
4902551	36	C	08/06/2021	20:09	-134.859	49.496	0	692.50	0	3.7330	0	34.2070	0	27.187	0	685.449	0	18.2	4	5.7	4	-1E+10	1	-1E+10	1	-1E+10	1	-1E+10	1	-1E+10	1	-1E+10	1
4902551	36	C	08/06/2021	20:09	-134.859	49.496	0	697.80	0	3.7220	0	34.2100	0	27.191	0	690.687	0	17.9	4	5.6	4	-1E+10	1	-1E+10	1	-1E+10	1	-1E+10	1	-1E+10	1	-1E+10	1
4902551	36	C	08/06/2021	20:09	-134.859	49.496	0	703.10	0	3.7220	0	34.2140	0	27.194	0	695.924	0	17.6	4	5.5	4	-1E+10	1	-1E+10	1	-1E+10	1	-1E+10	1	-1E+10	1	-1E+10	1
4902551	36	C	08/06/2021	20:09	-134.859	49.496	0	707.90	0	3.7140	0	34.2170	0	27.197	0	700.667	0	17.4	4	5.5	4	-1E+10	1	-1E+10	1	-1E+10	1	-1E+10	1	-1E+10	1	-1E+10	1
4902551	36	C	08/06/2021	20:09	-134.859	49.496	0	712.70	0	3.7020	0	34.2200	0	27.201	0	705.409	0	17.3	4	5.4	4	-1E+10	1	-1E+10	1	-1E+10	1	-1E+10	1	-1E+10	1	-1E+10	1
4902551	36	C	08/06/2021	20:09	-134.859	49.496	0	717.80	0	3.6920	0	34.2220	0	27.203	0	710.449	0	17.1	4	5.4	4	-1E+10	1	-1E+10	1	-1E+10	1	-1E+10	1	-1E+10	1	-1E+10	1
4902551	36	C	08/06/2021	20:09	-134.859	49.496	0	723.00	0	3.6770	0	34.2270	0	27.209	0	715.586	0	16.9	4	5.3	4	-1E+10	1	-1E+10	1	-1E+10	1	-1E+10	1	-1E+10	1	-1E+10	1
4902551	36	C	08/06/2021	20:09	-134.859	49.496	0	727.80	0	3.6690	0	34.2280	0	27.211	0	720.329	0	16.8	4	5.3	4	-1E+10	1	-1E+10	1	-1E+10	1	-1E+10	1	-1E+10	1	-1E+10	1
4902551	36	C	08/06/2021	20:09	-134.859	49.496	0	733.00	0	3.6540	0	34.2320	0	27.215	0	725.467	0	16.6	4	5.2	4	-1E+10	1	-1E+10	1	-1E+10	1	-1E+10	1	-1E+10	1	-1E+10	1
4902551	36	C	08/06/2021	20:09	-134.859	49.496	0	738.20	0	3.6390	0	34.2360	0	27.220	0	730.604	0	16.3	4	5.1	4	-1E+10	1	-1E+10	1	-1E+10	1	-1E+10	1	-1E+10	1	-1E+10	1
4902551	36	C	08/06/2021	20:09	-134.859	49.496	0	743.00	0	3.6230	0	34.2410	0	27.226	0	735.346	0	16.2	4	5.1	4	-1E+10	1	-1E+10	1	-1E+10	1	-1E+10	1	-1E+10	1	-1E+10	1
4902551	36	C	08/06/2021	20:09	-134.859	49.496	0	747.80	0	3.6120	0	34.2440	0	27.229	0	740.088	0	16.1	4	5.0	4	-1E+10	1	-1E+10	1	-1E+10	1	-1E+10	1	-1E+10	1	-1E+10	1
4902551	36	C	08/06/2021	20:09	-134.859	49.496	0	752.80	0	3.5970	0	34.2470	0	27.233	0	745.028	0	16.1	4	5.0	4	-1E+10	1	-1E+10	1	-1E+10	1	-1E+10	1	-1E+10	1	-1E+10	1
4902551	36	C	08/06/2021	20:09	-134.859	49.496	0	757.80	0	3.5830	0	34.2490	0	27.236	0	749.967	0	16.0	4	5.0	4	-1E+10	1	-1E+10	1	-1E+10	1	-1E+10	1	-1E+10	1	-1E+10	1
4902551	36	C	08/06/2021	20:09	-134.859	49.496	0	762.80	0	3.5760	0	34.2510	0	27.238	0	754.906	0	15.9	4	5.0	4	-1E+10	1	-1E+10	1	-1E+10	1	-1E+10	1	-1E+10	1	-1E+10	1
4902551	36	C	08/06/2021	20:09	-134.859	49.496	0	767.80	0	3.5700	0	34.2520	0	27.240	0	759.846	0	15.8	4	4.9	4	-1E+10	1	-1E+10	1	-1E+10	1	-1E+10	1	-1E+10	1	-1E+10	1
4902551	36	C	08/06/2021	20:09	-134.859	49.496	0	772.80	0	3.5540	0	34.2550	0	27.244	0	764.785	0	15.7	4	4.9	4	-1E+10	1	-1E+10	1	-1E+10	1	-1E+10	1	-1E+10	1	-1E+10	1
4902551	36	C	08/06/2021	20:09	-134.859	49.496	0	777.90	0	3.5380	0	34.2590	0	27.248	0	769.822	0	15.6	4	4.9	4	-1E+10	1	-1E+10	1	-1E+10	1	-1E+10	1	-1E+10	1	-1E+10	1
4902551	36	C	08/06/2021	20:09	-134.859	49.496	0	783.00	0	3.5290	0	34.2610	0	27.251	0	774.860	0	15.6	4	4.9	4	-1E+10	1	-1E+10	1	-1E+10	1	-1E+10	1	-1E+10	1	-1E+10	1
4902551	36	C	08/06/2021	20:09	-134.859	49.496	0	788.00	0	3.5180	0	34.2620	0	27.253	0	779.799	0	15.4	4	4.8	4	-1E+10	1	-1E+10	1	-1E+10	1	-1E+10	1	-1E+10	1	-1E+10	1
4902551	36	C	08/06/2021	20:09	-134.859	49.496	0	793.00	0	3.5020	0	34.2650	0	27.257	0	784.737	0	15.3	4	4.8	4	-1E+10	1	-1E+10	1	-1E+10	1	-1E+10	1	-1E+10	1	-1E+10	1
4902551	36	C	08/06/2021	20:09	-134.859	49.496	0	798.10	0	3.4860	0	34.2690	0	27.261	0	789.774	0	15.2	4	4.7	4	-1E+10	1	-1E+10	1	-1E+10	1	-1E+10	1	-1E+10	1	-1E+10	1
4902551	36	C	08/06/2021	20:09	-134.859	49.496	0	803.10	0	3.4740	0	34.2710	0	27.264	0	794.713	0	15.1	4	4.7	4	-1E+10	1	-1E+10	1	-1E+10	1	-1E+10	1	-1E+10	1	-1E+10	1
4902551	36	C	08/06/2021	20:09	-134.859	49.496	0	808.10	0	3.4590	0	34.2740	0	27.268	0	799.651	0	15.0	4	4.7	4	-1E+10	1	-1E+10	1	-1E+10	1	-1E+10	1	-1E+10	1	-1E+10	1
4902551	36	C	08/06/2021	20:09	-134.859	49.496	0	813.20	0	3.4430	0	34.2780	0	27.273	0	804.688	0	14.9	4	4.6	4	-1E+10	1	-1E+10	1	-1E+10	1	-1E+10	1	-1E+10	1	-1E+10	1
4902551	36	C	08/06/2021	20:09	-134.859	49.496	0	818.30	0	3.4300	0	34.2800	0	27.276	0	809.724	0	14.8	4	4.6	4	-1E+10	1	-1E+10	1	-1E+10	1	-1E+10	1	-1E+10	1	-1E+10	1
4902551	36	C	08/06/2021	20:09	-134.859	49.496	0	822.90	0	3.4230	0	34.2820	0	27.278	0	814.267	0	14.7	4	4.6	4	-1E+10	1	-1E+10	1	-1E+10	1	-1E+10	1	-1E+10	1	-1E+10	1
4902551	36	C	08/06/2021	20:09	-134.859	49.496	0	827.50	0	3.4120	0	34.2840	0	27.281	0	818.810	0	14.6	4	4.5	4	-1E+10	1	-1E+10	1	-1E+10	1	-1E+10	1	-1E+10	1	-1E+10	1
4902551	36	C	08/06/2021	20:09	-134.859	49.496	0	832.50	0	3.3990	0	34.2880	0	27.285	0	823.748	0	14.5	4	4.5	4	-1E+10	1	-1E+10	1	-1E+10	1	-1E+10	1	-1E+10	1	-1E+10	1
4902551	36	C	08/06/2021	20:09	-134.859	49.496	0	837.90	0	3.3790	0	34.2920	0	27.290	0	829.080	0	14.4	4	4.5	4	-1E+10	1	-1E+10	1	-1E+10	1	-1E+10	1	-1E+10	1	-1E+10	1
4902551	36	C	08/06/2021	20:09	-134.859	49.496	0	843.10	0	3.3680	0	34.2940	0	27.293	0	834.215	0	14.3	4	4.4	4	-1E+10	1	-1E+10	1	-1E+10	1	-1E+10	1	-1E+10	1	-1E+10	1
4902551	36	C	08/06/2021	20:09	-134.859	49.496	0	847.90	0	3.3580	0	34.2970	0	27.296	0	838.955	0	14.2	4	4.4	4	-1E+10	1	-1E+10	1	-1E+10	1	-1E+10	1	-1E+10	1	-1E+10	1
4902551	36	C	08/06/2021	20:09	-134.859	49.496	0	852.70	0	3.3410	0	34.3000	0	27.300	0	843.695	0	14.1	4	4.4	4	-1E+10	1	-1E+10	1	-1E+10	1	-1E+10	1	-1E+10	1	-1E+10	1
4902551	36	C	08/06/2021	20:09	-134.859	49.496	0	857.90	0	3.3240	0	34.3040	0	27.305	0	848.829	0	14.0	4	4.4	4	-1E+10	1	-1E+10	1	-1E+10	1	-1E+10	1	-1E+10	1	-1E+10	1
4902551	36	C	08/06/2021	20:09	-134.859	49.496	0	863.20	0	3.3170	0	34.3060	0	27.307	0	854.062	0	13.9	4	4.3	4	-1E+10	1	-1E+10	1	-1E+10	1	-1E+10	1	-1E+10	1	-1E+10	1
4902551	36	C	08/06/2021	20:09	-134.859	49.496	0	868.20	0	3.3080	0	34.3080	0	27.310	0	858.999	0	13.8	4	4.3	4	-1E+10	1	-1E+10	1	-1E+10	1	-1E+10	1	-1E+10	1	-1E+10	1
4902551	36	C	08/06/2021	20:09	-134.859	49.496	0	873.20	0	3.3050	0	34.3090	0	27.311	0	863.936	0	13.7	4	4.3	4	-1E+10	1	-1E+10	1	-1E+10	1	-1E+10	1	-1E+10	1	-1E+10	1
4902551	36	C	08/06/2021	20:09	-134.859	49.496	0	877.90	0	3.2960	0	34.3120	0	27.314	0	868.576	0	13.7	4	4.3	4	-1E+10	1	-1E+10	1	-1E+10	1	-1E+10	1	-1E+10	1	-1E+10	1
4902551	36	C	08/06/2021	20:09	-134.859	49.496	0	882.60	0	3.2910	0	34.3130	0	27.315	0	873.216	0	13.7	4	4.2	4	-1E+10	1	-1E+10	1	-1E+10	1	-1E+10	1	-1E+10	1	-1E+10	1
4902551	36	C	08/06/2021	20:09	-134.859	49.496	0	888.00	0	3.2790	0	34.3150	0	27.318	0	878.548	0	13.6	4	4.2	4	-1E+10	1	-1E+10	1	-1E+10	1	-1E+10	1	-1E+10	1	-1E+10	1
4902551	36	C	08/06/2021	20:09	-134.859	49.496	0	892.90	0	3.2670	0	34.3180	0	27.322	0	883.385	0	13.6	4	4.2	4	-1E+10	1	-1E+10	1	-1E+10	1	-1E+10	1	-1E+10	1	-1E+10	1
4902551	36	C	08/06/2021	20:09	-134.859	49.496	0	897.90	0	3.2540	0	34.3210	0	27.325	0	888.321	0	13.6	4	4.2	4	-1E+10	1	-1E+10	1	-1E+10	1	-1E+10	1	-1E+10	1	-1E+10	1
4902551	36	C	08/06/2021	20:09	-134.859	49.496	0	902.90	0	3.2430	0	34.3220	0	27.327	0	893.257	0	13.6	4	4.2	4	-1E+10	1	-1E+10	1	-1E+10	1	-1E+10	1	-1E+10	1	-1E+10	1
4902551	36	C	08/06/2021	20:09	-134.859	49.496	0	907.90	0	3.2300	0	34.3250	0	27.331	0	898.193	0	13.5	4	4.2	4	-1E+10	1	-1E+10	1	-1E+10	1	-1E+10	1	-1E+10	1	-1E+10	1
4902551	36	C	08/06/2021	20:09	-134.859	49.496	0	913.10	0	3.2130	0	34.3280	0	27.335	0	903.326	0	13.5	4	4.2	4	-1E+10	1	-1E+10	1	-1E+10	1	-1E+10	1	-1E+10	1	-1E+10	1
4902551	36	C	08/06/2021	20:09	-134.859	49.496	0	917.90	0	3.2040	0	34.3300	0	27.337	0	908.065	0	13.5	4	4.2	4	-1E+10	1	-1E+10	1	-1E+10	1	-1E+10	1	-1E+10	1	-1E+10	1
4902551	36	C	08/06/2021	20:09	-134.859	49.496	0	922.80	0	3.1980	0	34.3310	0	27.339	0	912.901	0	13.4	4	4.2	4	-1E+10	1	-1E+10	1	-1E+10	1	-1E+10	1	-1E+10	1	-1E+10	1
4902551	36	C	08/06/2021	20:09	-134.859	49.496	0	927.70	0	3.1900	0	34.3330	0	27.341	0	917.738	0	13.4	4	4.2	4	-1E+10	1	-1E+10	1	-1E+10	1	-1E+10	1	-1E+10	1	-1E+10	1
4902551	36	C	08/06/2021	20:09	-134.859	49.496	0	932.60	0	3.1810	0	34.3350	0	27.344	0	922.575	0	13.4	4	4.1	4	-1E+10	1	-1E+10	1	-1E+10	1	-1E+10	1	-1E+10	1	-1E+10	1
4902551	36	C	08/06/2021	20:09	-134.859	49.496	0	937.50	0	3.1760	0	34.3360	0	27.345	0	927.411	0	13.3	4	4.1	4	-1E+10	1	-1E+10	1	-1E+10	1	-1E+10	1	-1E+10	1	-1E+10	1
4902551	36	C	08/06/2021	20:09	-134.859	49.496	0	942.50	0	3.1730	0	34.3370	0	27.346	0	932.346	0	13.3	4	4.1	4	-1E+10	1	-1E+10	1	-1E+10	1	-1E+10	1	-1E+10	1	-1E+10	1
4902551	36	C	08/06/2021	20:09	-134.859	49.496	0	947.90	0	3.1640	0	34.3390	0	27.348	0	937.676	0	13.2	4	4.1	4	-1E+10	1	-1E+10	1	-1E+10	1	-1E+10	1	-1E+10	1	-1E+10	1
4902551	36	C	08/06/2021	20:09	-134.859	49.496	0	953.40	0	3.1530	0	34.3410	0	27.351	0	943.104	0	13.2	4	4.1	4	-1E+10	1	-1E+10	1	-1E+10	1	-1E+10	1	-1E+10	1	-1E+10	1
4902551	36	C	08/06/2021	20:09	-134.859	49.496	0	958.30	0	3.1510	0	34.3410	0	27.351	0	947.940	0	13.2	4	4.1	4	-1E+10	1	-1E+10	1	-1E+10	1	-1E+10	1	-1E+10	1	-1E+10	1
4902551	36	C	08/06/2021	20:09	-134.859	49.496	0	963.30	0	3.1470	0	34.3420	0	27.352	0	952.875	0	13.2	4	4.1	4	-1E+10	1	-1E+10	1	-1E+10	1	-1E+10	1	-1E+10	1	-1E+10	1
4902551	36	C	08/06/2021	20:09	-134.859	49.496	0	968.30	0	3.1410	0	34.3440	0	27.355	0	957.809	0	13.1	4	4.1	4	-1E+10	1	-1E+10	1	-1E+10	1	-1E+10	1	-1E+10	1	-1E+10	1
4902551	36	C	08/06/2021	20:09	-134.859	49.496	0	973.30	0	3.1330	0	34.3460	0	27.357	0	962.744	0	13.1	4	4.1	4	-1E+10	1	-1E+10	1	-1E+10	1	-1E+10	1	-1E+10	1	-1E+10	1
4902551	36	C	08/06/2021	20:09	-134.859	49.496	0	978.00	0	3.1260	0	34.3470	0	27.358	0	967.382	0	13.1	4	4.0	4	-1E+10	1	-1E+10	1	-1E+10	1	-1E+10	1	-1E+10	1	-1E+10	1
4902551	36	C	08/06/2021	20:09	-134.859	49.496	0	982.70	0	3.1140	0	34.3500	0	27.362	0	972.020	0	13.0	4	4.0	4	-1E+10	1	-1E+10	1	-1E+10	1	-1E+10	1	-1E+10	1	-1E+10	1
4902551	36	C	08/06/2021	20:09	-134.859	49.496	0	987.80	0	3.1050	0	34.3520	0	27.364	0	977.053	0	13.0	4	4.0	4	-1E+10	1	-1E+10	1	-1E+10	1	-1E+10	1	-1E+10	1	-1E+10	1
4902551	36	C	08/06/2021	20:09	-134.859	49.496	0	992.90	0	3.0940	0	34.3550	0	27.368	0	982.085	0	12.9	4	4.0	4	-1E+10	1	-1E+10	1	-1E+10	1	-1E+10	1	-1E+10	1	-1E+10	1
4902551	36	C	08/06/2021	20:09	-134.859	49.496	0	998.00	0	3.0820	0	34.3570	0	27.371	0	987.118	0	12.9	4	4.0	4	-1E+10	1	-1E+10	1	-1E+10	1	-1E+10	1	-1E+10	1	-1E+10	1
4902551	36	C	08/06/2021	20:09	-134.859	49.496	0	1005.30	0	3.0700	0	34.3600	0	27.374	0	994.321	0	12.8	4	4.0	4	-1E+10	1	-1E+10	1	-1E+10	1	-1E+10	1	-1E+10	1	-1E+10	1
4902551	36	C	08/06/2021	20:09	-134.859	49.496	0	1015.50	0	3.0520	0	34.3650	0	27.380	0	1004.385	0	12.8	4	3.9	4	-1E+10	1	-1E+10	1	-1E+10	1	-1E+10	1	-1E+10	1	-1E+10	1
4902551	36	C	08/06/2021	20:09	-134.859	49.496	0	1025.60	0	3.0290	0	34.3700	0	27.386	0	1014.350	0	12.7	4	3.9	4	-1E+10	1	-1E+10	1	-1E+10	1	-1E+10	1	-1E+10	1	-1E+10	1
4902551	36	C	08/06/2021	20:09	-134.859	49.496	0	1035.70	0	3.0080	0	34.3750	0	27.392	0	1024.314	0	12.7	4	3.9	4	-1E+10	1	-1E+10	1	-1E+10	1	-1E+10	1	-1E+10	1	-1E+10	1
4902551	36	C	08/06/2021	20:09	-134.859	49.496	0	1045.50	0	2.9950	0	34.3780	0	27.396	0	1033.983	0	12.6	4	3.9	4	-1E+10	1	-1E+10	1	-1E+10	1	-1E+10	1	-1E+10	1	-1E+10	1
4902551	36	C	08/06/2021	20:09	-134.859	49.496	0	1055.20	0	2.9870	0	34.3800	0	27.398	0	1043.551	0	12.6	4	3.9	4	-1E+10	1	-1E+10	1	-1E+10	1	-1E+10	1	-1E+10	1	-1E+10	1
4902551	36	C	08/06/2021	20:09	-134.859	49.496	0	1065.10	0	2.9750	0	34.3830	0	27.401	0	1053.317	0	12.6	4	3.9	4	-1E+10	1	-1E+10	1	-1E+10	1	-1E+10	1	-1E+10	1	-1E+10	1
4902551	36	C	08/06/2021	20:09	-134.859	49.496	0	1075.40	0	2.9670	0	34.3860	0	27.405	0	1063.477	0	12.5	4	3.9	4	-1E+10	1	-1E+10	1	-1E+10	1	-1E+10	1	-1E+10	1	-1E+10	1
4902551	36	C	08/06/2021	20:09	-134.859	49.496	0	1085.40	0	2.9560	0	34.3890	0	27.408	0	1073.341	0	12.5	4	3.9	4	-1E+10	1	-1E+10	1	-1E+10	1	-1E+10	1	-1E+10	1	-1E+10	1
4902551	36	C	08/06/2021	20:09	-134.859	49.496	0	1095.20	0	2.9460	0	34.3920	0	27.411	0	1083.007	0	12.5	4	3.9	4	-1E+10	1	-1E+10	1	-1E+10	1	-1E+10	1	-1E+10	1	-1E+10	1
4902551	36	C	08/06/2021	20:09	-134.859	49.496	0	1105.40	0	2.9290	0	34.3960	0	27.416	0	1093.067	0	12.6	4	3.9	4	-1E+10	1	-1E+10	1	-1E+10	1	-1E+10	1	-1E+10	1	-1E+10	1
4902551	36	C	08/06/2021	20:09	-134.859	49.496	0	1115.70	0	2.9140	0	34.3990	0	27.420	0	1103.225	0	12.6	4	3.9	4	-1E+10	1	-1E+10	1	-1E+10	1	-1E+10	1	-1E+10	1	-1E+10	1
4902551	36	C	08/06/2021	20:09	-134.859	49.496	0	1125.70	0	2.9000	0	34.4030	0	27.424	0	1113.086	0	12.6	4	3.9	4	-1E+10	1	-1E+10	1	-1E+10	1	-1E+10	1	-1E+10	1	-1E+10	1
4902551	36	C	08/06/2021	20:09	-134.859	49.496	0	1135.60	0	2.8850	0	34.4050	0	27.427	0	1122.849	0	12.7	4	3.9	4	-1E+10	1	-1E+10	1	-1E+10	1	-1E+10	1	-1E+10	1	-1E+10	1
4902551	36	C	08/06/2021	20:09	-134.859	49.496	0	1145.70	0	2.8650	0	34.4080	0	27.432	0	1132.808	0	12.8	4	4.0	4	-1E+10	1	-1E+10	1	-1E+10	1	-1E+10	1	-1E+10	1	-1E+10	1
4902551	36	C	08/06/2021	20:09	-134.859	49.496	0	1155.50	0	2.8470	0	34.4110	0	27.436	0	1142.472	0	13.0	4	4.0	4	-1E+10	1	-1E+10	1	-1E+10	1	-1E+10	1	-1E+10	1	-1E+10	1
4902551	36	C	08/06/2021	20:09	-134.859	49.496	0	1165.40	0	2.8220	0	34.4170	0	27.443	0	1152.233	0	13.1	4	4.0	4	-1E+10	1	-1E+10	1	-1E+10	1	-1E+10	1	-1E+10	1	-1E+10	1
4902551	36	C	08/06/2021	20:09	-134.859	49.496	0	1175.50	0	2.8140	0	34.4190	0	27.445	0	1162.191	0	13.2	4	4.0	4	-1E+10	1	-1E+10	1	-1E+10	1	-1E+10	1	-1E+10	1	-1E+10	1
4902551	36	C	08/06/2021	20:09	-134.859	49.496	0	1185.10	0	2.8010	0	34.4220	0	27.449	0	1171.655	0	13.3	4	4.1	4	-1E+10	1	-1E+10	1	-1E+10	1	-1E+10	1	-1E+10	1	-1E+10	1
4902551	36	C	08/06/2021	20:09	-134.859	49.496	0	1195.50	0	2.7830	0	34.4260	0	27.454	0	1181.908	0	13.4	4	4.1	4	-1E+10	1	-1E+10	1	-1E+10	1	-1E+10	1	-1E+10	1	-1E+10	1
4902551	36	C	08/06/2021	20:09	-134.859	49.496	0	1205.60	0	2.7710	0	34.4280	0	27.456	0	1191.865	0	13.6	4	4.2	4	-1E+10	1	-1E+10	1	-1E+10	1	-1E+10	1	-1E+10	1	-1E+10	1
4902551	36	C	08/06/2021	20:09	-134.859	49.496	0	1215.60	0	2.7560	0	34.4310	0	27.460	0	1201.722	0	13.7	4	4.2	4	-1E+10	1	-1E+10	1	-1E+10	1	-1E+10	1	-1E+10	1	-1E+10	1
4902551	36	C	08/06/2021	20:09	-134.859	49.496	0	1225.60	0	2.7370	0	34.4350	0	27.465	0	1211.579	0	14.0	4	4.3	4	-1E+10	1	-1E+10	1	-1E+10	1	-1E+10	1	-1E+10	1	-1E+10	1
4902551	36	C	08/06/2021	20:09	-134.859	49.496	0	1235.50	0	2.7220	0	34.4380	0	27.469	0	1221.337	0	14.2	4	4.3	4	-1E+10	1	-1E+10	1	-1E+10	1	-1E+10	1	-1E+10	1	-1E+10	1
4902551	36	C	08/06/2021	20:09	-134.859	49.496	0	1245.60	0	2.7070	0	34.4410	0	27.472	0	1231.292	0	14.4	4	4.4	4	-1E+10	1	-1E+10	1	-1E+10	1	-1E+10	1	-1E+10	1	-1E+10	1
4902551	36	C	08/06/2021	20:09	-134.859	49.496	0	1255.70	0	2.6880	0	34.4440	0	27.476	0	1241.246	0	14.5	4	4.5	4	-1E+10	1	-1E+10	1	-1E+10	1	-1E+10	1	-1E+10	1	-1E+10	1
4902551	36	C	08/06/2021	20:09	-134.859	49.496	0	1265.60	0	2.6810	0	34.4450	0	27.478	0	1251.003	0	14.7	4	4.5	4	-1E+10	1	-1E+10	1	-1E+10	1	-1E+10	1	-1E+10	1	-1E+10	1
4902551	36	C	08/06/2021	20:09	-134.859	49.496	0	1275.20	0	2.6630	0	34.4480	0	27.482	0	1260.463	0	15.0	4	4.6	4	-1E+10	1	-1E+10	1	-1E+10	1	-1E+10	1	-1E+10	1	-1E+10	1
4902551	36	C	08/06/2021	20:09	-134.859	49.496	0	1285.40	0	2.6430	0	34.4510	0	27.486	0	1270.515	0	15.3	4	4.7	4	-1E+10	1	-1E+10	1	-1E+10	1	-1E+10	1	-1E+10	1	-1E+10	1
4902551	36	C	08/06/2021	20:09	-134.859	49.496	0	1295.60	0	2.6260	0	34.4540	0	27.490	0	1280.566	0	15.6	4	4.8	4	-1E+10	1	-1E+10	1	-1E+10	1	-1E+10	1	-1E+10	1	-1E+10	1
4902551	36	C	08/06/2021	20:09	-134.859	49.496	0	1305.60	0	2.6090	0	34.4570	0	27.494	0	1290.419	0	15.9	4	4.9	4	-1E+10	1	-1E+10	1	-1E+10	1	-1E+10	1	-1E+10	1	-1E+10	1
4902551	36	C	08/06/2021	20:09	-134.859	49.496	0	1315.60	0	2.5930	0	34.4600	0	27.498	0	1300.272	0	16.1	4	4.9	4	-1E+10	1	-1E+10	1	-1E+10	1	-1E+10	1	-1E+10	1	-1E+10	1
4902551	36	C	08/06/2021	20:09	-134.859	49.496	0	1325.30	0	2.5900	0	34.4600	0	27.498	0	1309.829	0	16.3	4	5.0	4	-1E+10	1	-1E+10	1	-1E+10	1	-1E+10	1	-1E+10	1	-1E+10	1
4902551	36	C	08/06/2021	20:09	-134.859	49.496	0	1335.10	0	2.5730	0	34.4630	0	27.502	0	1319.484	0	16.6	4	5.1	4	-1E+10	1	-1E+10	1	-1E+10	1	-1E+10	1	-1E+10	1	-1E+10	1
4902551	36	C	08/06/2021	20:09	-134.859	49.496	0	1345.20	0	2.5550	0	34.4660	0	27.506	0	1329.434	0	17.0	4	5.2	4	-1E+10	1	-1E+10	1	-1E+10	1	-1E+10	1	-1E+10	1	-1E+10	1
4902551	36	C	08/06/2021	20:09	-134.859	49.496	0	1355.50	0	2.5480	0	34.4690	0	27.509	0	1339.580	0	17.4	4	5.3	4	-1E+10	1	-1E+10	1	-1E+10	1	-1E+10	1	-1E+10	1	-1E+10	1
4902551	36	C	08/06/2021	20:09	-134.859	49.496	0	1365.70	0	2.5420	0	34.4710	0	27.511	0	1349.628	0	17.8	4	5.4	4	-1E+10	1	-1E+10	1	-1E+10	1	-1E+10	1	-1E+10	1	-1E+10	1
4902551	36	C	08/06/2021	20:09	-134.859	49.496	0	1375.70	0	2.5260	0	34.4740	0	27.515	0	1359.478	0	18.3	4	5.6	4	-1E+10	1	-1E+10	1	-1E+10	1	-1E+10	1	-1E+10	1	-1E+10	1
4902551	36	C	08/06/2021	20:09	-134.859	49.496	0	1385.60	0	2.5100	0	34.4770	0	27.519	0	1369.229	0	18.7	4	5.7	4	-1E+10	1	-1E+10	1	-1E+10	1	-1E+10	1	-1E+10	1	-1E+10	1
4902551	36	C	08/06/2021	20:09	-134.859	49.496	0	1395.50	0	2.4960	0	34.4800	0	27.522	0	1378.980	0	19.1	4	5.8	4	-1E+10	1	-1E+10	1	-1E+10	1	-1E+10	1	-1E+10	1	-1E+10	1
4902551	36	C	08/06/2021	20:09	-134.859	49.496	0	1405.60	0	2.4880	0	34.4810	0	27.524	0	1388.927	0	19.3	4	5.9	4	-1E+10	1	-1E+10	1	-1E+10	1	-1E+10	1	-1E+10	1	-1E+10	1
4902551	36	C	08/06/2021	20:09	-134.859	49.496	0	1415.30	0	2.4810	0	34.4830	0	27.526	0	1398.480	0	19.7	4	6.0	4	-1E+10	1	-1E+10	1	-1E+10	1	-1E+10	1	-1E+10	1	-1E+10	1
4902551	36	C	08/06/2021	20:09	-134.859	49.496	0	1425.10	0	2.4720	0	34.4850	0	27.529	0	1408.131	0	20.1	4	6.1	4	-1E+10	1	-1E+10	1	-1E+10	1	-1E+10	1	-1E+10	1	-1E+10	1
4902551	36	C	08/06/2021	20:09	-134.859	49.496	0	1435.50	0	2.4570	0	34.4880	0	27.532	0	1418.372	0	20.6	4	6.3	4	-1E+10	1	-1E+10	1	-1E+10	1	-1E+10	1	-1E+10	1	-1E+10	1
4902551	36	C	08/06/2021	20:09	-134.859	49.496	0	1445.50	0	2.4480	0	34.4900	0	27.535	0	1428.219	0	21.0	4	6.4	4	-1E+10	1	-1E+10	1	-1E+10	1	-1E+10	1	-1E+10	1	-1E+10	1
4902551	36	C	08/06/2021	20:09	-134.859	49.496	0	1455.10	0	2.4350	0	34.4920	0	27.537	0	1437.671	0	21.4	4	6.5	4	-1E+10	1	-1E+10	1	-1E+10	1	-1E+10	1	-1E+10	1	-1E+10	1
4902551	36	C	08/06/2021	20:09	-134.859	49.496	0	1465.20	0	2.4210	0	34.4940	0	27.540	0	1447.616	0	21.9	4	6.7	4	-1E+10	1	-1E+10	1	-1E+10	1	-1E+10	1	-1E+10	1	-1E+10	1
4902551	36	C	08/06/2021	20:09	-134.859	49.496	0	1475.60	0	2.4100	0	34.4960	0	27.543	0	1457.855	0	22.4	4	6.8	4	-1E+10	1	-1E+10	1	-1E+10	1	-1E+10	1	-1E+10	1	-1E+10	1
4902551	36	C	08/06/2021	20:09	-134.859	49.496	0	1485.50	0	2.3960	0	34.4990	0	27.546	0	1467.602	0	22.9	4	7.0	4	-1E+10	1	-1E+10	1	-1E+10	1	-1E+10	1	-1E+10	1	-1E+10	1
4902551	36	C	08/06/2021	20:09	-134.859	49.496	0	1495.70	0	2.3840	0	34.5010	0	27.549	0	1477.643	0	23.5	4	7.1	4	-1E+10	1	-1E+10	1	-1E+10	1	-1E+10	1	-1E+10	1	-1E+10	1
4902551	36	C	08/06/2021	20:09	-134.859	49.496	0	1505.50	0	2.3690	0	34.5030	0	27.552	0	1487.290	0	24.0	4	7.3	4	-1E+10	1	-1E+10	1	-1E+10	1	-1E+10	1	-1E+10	1	-1E+10	1
4902551	36	C	08/06/2021	20:09	-134.859	49.496	0	1515.40	0	2.3550	0	34.5060	0	27.556	0	1497.036	0	24.7	4	7.5	4	-1E+10	1	-1E+10	1	-1E+10	1	-1E+10	1	-1E+10	1	-1E+10	1
4902551	36	C	08/06/2021	20:09	-134.859	49.496	0	1525.40	0	2.3420	0	34.5080	0	27.558	0	1506.879	0	25.3	4	7.7	4	-1E+10	1	-1E+10	1	-1E+10	1	-1E+10	1	-1E+10	1	-1E+10	1
4902551	36	C	08/06/2021	20:09	-134.859	49.496	0	1535.40	0	2.3250	0	34.5110	0	27.562	0	1516.721	0	26.1	4	7.9	4	-1E+10	1	-1E+10	1	-1E+10	1	-1E+10	1	-1E+10	1	-1E+10	1
4902551	36	C	08/06/2021	20:09	-134.859	49.496	0	1545.30	0	2.3050	0	34.5140	0	27.566	0	1526.465	0	27.0	4	8.2	4	-1E+10	1	-1E+10	1	-1E+10	1	-1E+10	1	-1E+10	1	-1E+10	1
4902551	36	C	08/06/2021	20:09	-134.859	49.496	0	1555.00	0	2.2860	0	34.5170	0	27.570	0	1536.012	0	27.8	4	8.4	4	-1E+10	1	-1E+10	1	-1E+10	1	-1E+10	1	-1E+10	1	-1E+10	1
4902551	36	C	08/06/2021	20:09	-134.859	49.496	0	1565.10	0	2.2680	0	34.5200	0	27.574	0	1545.952	0	28.3	4	8.6	4	-1E+10	1	-1E+10	1	-1E+10	1	-1E+10	1	-1E+10	1	-1E+10	1
4902551	36	C	08/06/2021	20:09	-134.859	49.496	0	1575.60	0	2.2530	0	34.5220	0	27.577	0	1556.285	0	28.8	4	8.7	4	-1E+10	1	-1E+10	1	-1E+10	1	-1E+10	1	-1E+10	1	-1E+10	1
4902551	36	C	08/06/2021	20:09	-134.859	49.496	0	1585.70	0	2.2430	0	34.5240	0	27.579	0	1566.223	0	29.4	4	8.9	4	-1E+10	1	-1E+10	1	-1E+10	1	-1E+10	1	-1E+10	1	-1E+10	1
4902551	36	C	08/06/2021	20:09	-134.859	49.496	0	1595.70	0	2.2350	0	34.5260	0	27.582	0	1576.063	0	29.9	4	9.1	4	-1E+10	1	-1E+10	1	-1E+10	1	-1E+10	1	-1E+10	1	-1E+10	1
4902551	36	C	08/06/2021	20:09	-134.859	49.496	0	1605.50	0	2.2190	0	34.5280	0	27.585	0	1585.706	0	30.5	4	9.2	4	-1E+10	1	-1E+10	1	-1E+10	1	-1E+10	1	-1E+10	1	-1E+10	1
4902551	36	C	08/06/2021	20:09	-134.859	49.496	0	1615.50	0	2.2090	0	34.5300	0	27.587	0	1595.545	0	30.9	4	9.4	4	-1E+10	1	-1E+10	1	-1E+10	1	-1E+10	1	-1E+10	1	-1E+10	1
4902551	36	C	08/06/2021	20:09	-134.859	49.496	0	1625.20	0	2.2030	0	34.5320	0	27.589	0	1605.089	0	31.5	4	9.6	4	-1E+10	1	-1E+10	1	-1E+10	1	-1E+10	1	-1E+10	1	-1E+10	1
4902551	36	C	08/06/2021	20:09	-134.859	49.496	0	1635.20	0	2.1980	0	34.5330	0	27.590	0	1614.927	0	32.1	4	9.7	4	-1E+10	1	-1E+10	1	-1E+10	1	-1E+10	1	-1E+10	1	-1E+10	1
4902551	36	C	08/06/2021	20:09	-134.859	49.496	0	1645.60	0	2.1930	0	34.5340	0	27.592	0	1625.158	0	32.6	4	9.9	4	-1E+10	1	-1E+10	1	-1E+10	1	-1E+10	1	-1E+10	1	-1E+10	1
4902551	36	C	08/06/2021	20:09	-134.859	49.496	0	1655.60	0	2.1870	0	34.5350	0	27.593	0	1634.995	0	33.1	4	10.0	4	-1E+10	1	-1E+10	1	-1E+10	1	-1E+10	1	-1E+10	1	-1E+10	1
4902551	36	C	08/06/2021	20:09	-134.859	49.496	0	1665.60	0	2.1740	0	34.5380	0	27.597	0	1644.832	0	33.8	4	10.2	4	-1E+10	1	-1E+10	1	-1E+10	1	-1E+10	1	-1E+10	1	-1E+10	1
4902551	36	C	08/06/2021	20:09	-134.859	49.496	0	1675.60	0	2.1630	0	34.5400	0	27.599	0	1654.668	0	34.5	4	10.5	4	-1E+10	1	-1E+10	1	-1E+10	1	-1E+10	1	-1E+10	1	-1E+10	1
4902551	36	C	08/06/2021	20:09	-134.859	49.496	0	1685.30	0	2.1530	0	34.5420	0	27.602	0	1664.209	0	35.2	4	10.6	4	-1E+10	1	-1E+10	1	-1E+10	1	-1E+10	1	-1E+10	1	-1E+10	1
4902551	36	C	08/06/2021	20:09	-134.859	49.496	0	1695.20	0	2.1450	0	34.5430	0	27.603	0	1673.946	0	35.8	4	10.8	4	-1E+10	1	-1E+10	1	-1E+10	1	-1E+10	1	-1E+10	1	-1E+10	1
4902551	36	C	08/06/2021	20:09	-134.859	49.496	0	1705.20	0	2.1350	0	34.5450	0	27.606	0	1683.781	0	36.5	4	11.0	4	-1E+10	1	-1E+10	1	-1E+10	1	-1E+10	1	-1E+10	1	-1E+10	1
4902551	36	C	08/06/2021	20:09	-134.859	49.496	0	1715.50	0	2.1250	0	34.5470	0	27.608	0	1693.911	0	37.2	4	11.3	4	-1E+10	1	-1E+10	1	-1E+10	1	-1E+10	1	-1E+10	1	-1E+10	1
4902551	36	C	08/06/2021	20:09	-134.859	49.496	0	1725.50	0	2.1160	0	34.5490	0	27.610	0	1703.745	0	37.8	4	11.4	4	-1E+10	1	-1E+10	1	-1E+10	1	-1E+10	1	-1E+10	1	-1E+10	1
4902551	36	C	08/06/2021	20:09	-134.859	49.496	0	1735.20	0	2.1090	0	34.5510	0	27.613	0	1713.283	0	38.4	4	11.6	4	-1E+10	1	-1E+10	1	-1E+10	1	-1E+10	1	-1E+10	1	-1E+10	1
4902551	36	C	08/06/2021	20:09	-134.859	49.496	0	1745.20	0	2.1020	0	34.5520	0	27.614	0	1723.116	0	39.1	4	11.8	4	-1E+10	1	-1E+10	1	-1E+10	1	-1E+10	1	-1E+10	1	-1E+10	1
4902551	36	C	08/06/2021	20:09	-134.859	49.496	0	1755.40	0	2.0910	0	34.5540	0	27.616	0	1733.146	0	39.9	4	12.0	4	-1E+10	1	-1E+10	1	-1E+10	1	-1E+10	1	-1E+10	1	-1E+10	1
4902551	36	C	08/06/2021	20:09	-134.859	49.496	0	1765.20	0	2.0810	0	34.5560	0	27.619	0	1742.781	0	40.5	4	12.2	4	-1E+10	1	-1E+10	1	-1E+10	1	-1E+10	1	-1E+10	1	-1E+10	1
4902551	36	C	08/06/2021	20:09	-134.859	49.496	0	1775.60	0	2.0720	0	34.5580	0	27.621	0	1753.006	0	41.1	4	12.4	4	-1E+10	1	-1E+10	1	-1E+10	1	-1E+10	1	-1E+10	1	-1E+10	1
4902551	36	C	08/06/2021	20:09	-134.859	49.496	0	1785.40	0	2.0670	0	34.5590	0	27.623	0	1762.641	0	41.5	4	12.5	4	-1E+10	1	-1E+10	1	-1E+10	1	-1E+10	1	-1E+10	1	-1E+10	1
4902551	36	C	08/06/2021	20:09	-134.859	49.496	0	1795.20	0	2.0620	0	34.5600	0	27.624	0	1772.275	0	41.8	4	12.6	4	-1E+10	1	-1E+10	1	-1E+10	1	-1E+10	1	-1E+10	1	-1E+10	1
4902551	36	C	08/06/2021	20:09	-134.859	49.496	0	1805.10	0	2.0590	0	34.5600	0	27.624	0	1782.007	0	42.4	4	12.8	4	-1E+10	1	-1E+10	1	-1E+10	1	-1E+10	1	-1E+10	1	-1E+10	1
4902551	36	C	08/06/2021	20:09	-134.859	49.496	0	1815.20	0	2.0510	0	34.5620	0	27.626	0	1791.935	0	43.1	4	13.0	4	-1E+10	1	-1E+10	1	-1E+10	1	-1E+10	1	-1E+10	1	-1E+10	1
4902551	36	C	08/06/2021	20:09	-134.859	49.496	0	1825.50	0	2.0410	0	34.5630	0	27.628	0	1802.060	0	43.5	4	13.1	4	-1E+10	1	-1E+10	1	-1E+10	1	-1E+10	1	-1E+10	1	-1E+10	1
4902551	36	C	08/06/2021	20:09	-134.859	49.496	0	1835.50	0	2.0360	0	34.5640	0	27.629	0	1811.889	0	44.0	4	13.3	4	-1E+10	1	-1E+10	1	-1E+10	1	-1E+10	1	-1E+10	1	-1E+10	1
4902551	36	C	08/06/2021	20:09	-134.859	49.496	0	1845.20	0	2.0300	0	34.5650	0	27.631	0	1821.422	0	44.5	4	13.4	4	-1E+10	1	-1E+10	1	-1E+10	1	-1E+10	1	-1E+10	1	-1E+10	1
4902551	36	C	08/06/2021	20:09	-134.859	49.496	0	1855.10	0	2.0210	0	34.5670	0	27.633	0	1831.152	0	45.2	4	13.6	4	-1E+10	1	-1E+10	1	-1E+10	1	-1E+10	1	-1E+10	1	-1E+10	1
4902551	36	C	08/06/2021	20:09	-134.859	49.496	0	1865.20	0	2.0160	0	34.5680	0	27.634	0	1841.078	0	45.7	4	13.8	4	-1E+10	1	-1E+10	1	-1E+10	1	-1E+10	1	-1E+10	1	-1E+10	1
4902551	36	C	08/06/2021	20:09	-134.859	49.496	0	1875.50	0	2.0110	0	34.5690	0	27.635	0	1851.200	0	46.3	4	14.0	4	-1E+10	1	-1E+10	1	-1E+10	1	-1E+10	1	-1E+10	1	-1E+10	1
4902551	36	C	08/06/2021	20:09	-134.859	49.496	0	1885.60	0	2.0040	0	34.5710	0	27.638	0	1861.125	0	46.8	4	14.1	4	-1E+10	1	-1E+10	1	-1E+10	1	-1E+10	1	-1E+10	1	-1E+10	1
4902551	36	C	08/06/2021	20:09	-134.859	49.496	0	1895.30	0	2.0010	0	34.5720	0	27.639	0	1870.657	0	47.2	4	14.2	4	-1E+10	1	-1E+10	1	-1E+10	1	-1E+10	1	-1E+10	1	-1E+10	1
4902551	36	C	08/06/2021	20:09	-134.859	49.496	0	1905.10	0	1.9960	0	34.5730	0	27.640	0	1880.286	0	47.8	4	14.4	4	-1E+10	1	-1E+10	1	-1E+10	1	-1E+10	1	-1E+10	1	-1E+10	1
4902551	36	C	08/06/2021	20:09	-134.859	49.496	0	1915.40	0	1.9870	0	34.5750	0	27.642	0	1890.406	0	48.4	4	14.6	4	-1E+10	1	-1E+10	1	-1E+10	1	-1E+10	1	-1E+10	1	-1E+10	1
4902551	36	C	08/06/2021	20:09	-134.859	49.496	0	1925.80	0	1.9800	0	34.5760	0	27.644	0	1900.624	0	48.9	4	14.7	4	-1E+10	1	-1E+10	1	-1E+10	1	-1E+10	1	-1E+10	1	-1E+10	1
4902551	36	C	08/06/2021	20:09	-134.859	49.496	0	1935.80	0	1.9750	0	34.5770	0	27.645	0	1910.448	0	49.4	4	14.9	4	-1E+10	1	-1E+10	1	-1E+10	1	-1E+10	1	-1E+10	1	-1E+10	1
4902551	36	C	08/06/2021	20:09	-134.859	49.496	0	1945.80	0	1.9690	0	34.5780	0	27.646	0	1920.272	0	50.0	4	15.1	4	-1E+10	1	-1E+10	1	-1E+10	1	-1E+10	1	-1E+10	1	-1E+10	1
4902551	36	C	08/06/2021	20:09	-134.859	49.496	0	1955.40	0	1.9610	0	34.5800	0	27.649	0	1929.703	0	50.4	4	15.2	4	-1E+10	1	-1E+10	1	-1E+10	1	-1E+10	1	-1E+10	1	-1E+10	1
4902551	36	C	08/06/2021	20:09	-134.859	49.496	0	1965.60	0	1.9570	0	34.5810	0	27.650	0	1939.722	0	50.7	4	15.3	4	-1E+10	1	-1E+10	1	-1E+10	1	-1E+10	1	-1E+10	1	-1E+10	1
4902551	36	C	08/06/2021	20:09	-134.859	49.496	0	1972.20	0	1.9520	0	34.5820	0	27.651	0	1946.205	0	50.5	4	15.2	4	-1E+10	1	-1E+10	1	-1E+10	1	-1E+10	1	-1E+10	1	-1E+10	1
4902551	36	C	08/06/2021	20:09	-134.859	49.496	0																										
4902551	37	C	08/17/2021	01:02	-134.909	49.545	0	2.90	0	15.9250	0	32.2580	0	23.657	0	2.875	0	245.2	4	98.9	4	-1E+10	1	-1E+10	1	-1E+10	1	-1E+10	1	-1E+10	1	-1E+10	1
4902551	37	C	08/17/2021	01:02	-134.909	49.545	0	4.10	0	15.9270	0	32.2540	0	23.654	0	4.065	0	245.3	4	98.9	4	-1E+10	1	-1E+10	1	-1E+10	1	-1E+10	1	-1E+10	1	-1E+10	1
4902551	37	C	08/17/2021	01:02	-134.909	49.545	0	5.10	0	15.9200	0	32.2580	0	23.658	0	5.056	0	245.5	4	99.0	4	-1E+10	1	-1E+10	1	-1E+10	1	-1E+10	1	-1E+10	1	-1E+10	1
4902551	37	C	08/17/2021	01:02	-134.909	49.545	0	5.90	0	15.9200	0	32.2580	0	23.658	0	5.850	0	245.5	4	99.0	4	-1E+10	1	-1E+10	1	-1E+10	1	-1E+10	1	-1E+10	1	-1E+10	1
4902551	37	C	08/17/2021	01:02	-134.909	49.545	0	7.00	0	15.9200	0	32.2580	0	23.658	0	6.940	0	245.5	4	99.0	4	-1E+10	1	-1E+10	1	-1E+10	1	-1E+10	1	-1E+10	1	-1E+10	1
4902551	37	C	08/17/2021	01:02	-134.909	49.545	0	8.20	0	15.9200	0	32.2570	0	23.658	0	8.130	0	245.7	4	99.0	4	-1E+10	1	-1E+10	1	-1E+10	1	-1E+10	1	-1E+10	1	-1E+10	1
4902551	37	C	08/17/2021	01:02	-134.909	49.545	0	9.00	0	15.9190	0	32.2580	0	23.659	0	8.923	0	245.7	4	99.1	4	-1E+10	1	-1E+10	1	-1E+10	1	-1E+10	1	-1E+10	1	-1E+10	1
4902551	37	C	08/17/2021	01:02	-134.909	49.545	0	10.20	0	15.9200	0	32.2590	0	23.659	0	10.113	0	245.9	4	99.2	4	-1E+10	1	-1E+10	1	-1E+10	1	-1E+10	1	-1E+10	1	-1E+10	1
4902551	37	C	08/17/2021	01:02	-134.909	49.545	0	11.00	0	15.9150	0	32.2580	0	23.660	0	10.906	0	246.0	4	99.2	4	-1E+10	1	-1E+10	1	-1E+10	1	-1E+10	1	-1E+10	1	-1E+10	1
4902551	37	C	08/17/2021	01:02	-134.909	49.545	0	11.70	0	15.9130	0	32.2580	0	23.660	0	11.600	0	246.1	4	99.2	4	-1E+10	1	-1E+10	1	-1E+10	1	-1E+10	1	-1E+10	1	-1E+10	1
4902551	37	C	08/17/2021	01:02	-134.909	49.545	0	12.90	0	15.9050	0	32.2610	0	23.664	0	12.790	0	246.5	4	99.4	4	-1E+10	1	-1E+10	1	-1E+10	1	-1E+10	1	-1E+10	1	-1E+10	1
4902551	37	C	08/17/2021	01:02	-134.909	49.545	0	14.30	0	15.9040	0	32.2580	0	23.662	0	14.178	0	246.9	4	99.5	4	-1E+10	1	-1E+10	1	-1E+10	1	-1E+10	1	-1E+10	1	-1E+10	1
4902551	37	C	08/17/2021	01:02	-134.909	49.545	0	15.10	0	15.9010	0	32.2620	0	23.666	0	14.971	0	247.2	4	99.6	4	-1E+10	1	-1E+10	1	-1E+10	1	-1E+10	1	-1E+10	1	-1E+10	1
4902551	37	C	08/17/2021	01:02	-134.909	49.545	0	16.00	0	15.8910	0	32.2580	0	23.665	0	15.863	0	247.5	4	99.7	4	-1E+10	1	-1E+10	1	-1E+10	1	-1E+10	1	-1E+10	1	-1E+10	1
4902551	37	C	08/17/2021	01:02	-134.909	49.545	0	16.80	0	15.8890	0	32.2580	0	23.666	0	16.656	0	247.9	4	99.9	4	-1E+10	1	-1E+10	1	-1E+10	1	-1E+10	1	-1E+10	1	-1E+10	1
4902551	37	C	08/17/2021	01:02	-134.909	49.545	0	17.90	0	15.8940	0	32.2580	0	23.665	0	17.747	0	248.3	4	100.1	4	-1E+10	1	-1E+10	1	-1E+10	1	-1E+10	1	-1E+10	1	-1E+10	1
4902551	37	C	08/17/2021	01:02	-134.909	49.545	0	19.10	0	15.8910	0	32.2580	0	23.665	0	18.936	0	249.1	4	100.4	4	-1E+10	1	-1E+10	1	-1E+10	1	-1E+10	1	-1E+10	1	-1E+10	1
4902551	37	C	08/17/2021	01:02	-134.909	49.545	0	19.90	0	15.8860	0	32.2580	0	23.666	0	19.729	0	249.8	4	100.7	4	-1E+10	1	-1E+10	1	-1E+10	1	-1E+10	1	-1E+10	1	-1E+10	1
4902551	37	C	08/17/2021	01:02	-134.909	49.545	0	20.70	0	15.8800	0	32.2590	0	23.669	0	20.522	0	250.7	4	101.0	4	-1E+10	1	-1E+10	1	-1E+10	1	-1E+10	1	-1E+10	1	-1E+10	1
4902551	37	C	08/17/2021	01:02	-134.909	49.545	0	21.80	0	15.8740	0	32.2530	0	23.665	0	21.613	0	251.8	4	101.4	4	-1E+10	1	-1E+10	1	-1E+10	1	-1E+10	1	-1E+10	1	-1E+10	1
4902551	37	C	08/17/2021	01:02	-134.909	49.545	0	23.00	0	15.8550	0	32.2570	0	23.673	0	22.803	0	253.4	4	102.0	4	-1E+10	1	-1E+10	1	-1E+10	1	-1E+10	1	-1E+10	1	-1E+10	1
4902551	37	C	08/17/2021	01:02	-134.909	49.545	0	23.90	0	15.8120	0	32.2630	0	23.687	0	23.695	0	255.6	4	102.9	4	-1E+10	1	-1E+10	1	-1E+10	1	-1E+10	1	-1E+10	1	-1E+10	1
4902551	37	C	08/17/2021	01:02	-134.909	49.545	0	25.20	0	15.7920	0	32.2550	0	23.685	0	24.983	0	258.8	4	104.1	4	-1E+10	1	-1E+10	1	-1E+10	1	-1E+10	1	-1E+10	1	-1E+10	1
4902551	37	C	08/17/2021	01:02	-134.909	49.545	0	26.00	0	15.6420	0	32.2510	0	23.715	0	25.777	0	261.9	4	105.0	4	-1E+10	1	-1E+10	1	-1E+10	1	-1E+10	1	-1E+10	1	-1E+10	1
4902551	37	C	08/17/2021	01:02	-134.909	49.545	0	27.10	0	15.3280	0	32.2490	0	23.783	0	26.867	0	271.2	4	108.1	4	-1E+10	1	-1E+10	1	-1E+10	1	-1E+10	1	-1E+10	1	-1E+10	1
4902551	37	C	08/17/2021	01:02	-134.909	49.545	0	28.10	0	13.0180	0	32.3030	0	24.302	0	27.858	0	291.8	4	111.1	4	-1E+10	1	-1E+10	1	-1E+10	1	-1E+10	1	-1E+10	1	-1E+10	1
4902551	37	C	08/17/2021	01:02	-134.909	49.545	0	29.10	0	11.9550	0	32.3100	0	24.510	0	28.850	0	299.4	4	111.5	4	-1E+10	1	-1E+10	1	-1E+10	1	-1E+10	1	-1E+10	1	-1E+10	1
4902551	37	C	08/17/2021	01:02	-134.909	49.545	0	30.00	0	11.7000	0	32.3130	0	24.559	0	29.742	0	300.8	4	111.4	4	-1E+10	1	-1E+10	1	-1E+10	1	-1E+10	1	-1E+10	1	-1E+10	1
4902551	37	C	08/17/2021	01:02	-134.909	49.545	0	31.00	0	11.3170	0	32.3220	0	24.636	0	30.733	0	301.8	4	110.9	4	-1E+10	1	-1E+10	1	-1E+10	1	-1E+10	1	-1E+10	1	-1E+10	1
4902551	37	C	08/17/2021	01:02	-134.909	49.545	0	32.20	0	11.0620	0	32.3300	0	24.687	0	31.923	0	302.4	4	110.5	4	-1E+10	1	-1E+10	1	-1E+10	1	-1E+10	1	-1E+10	1	-1E+10	1
4902551	37	C	08/17/2021	01:02	-134.909	49.545	0	33.00	0	10.9750	0	32.3330	0	24.705	0	32.716	0	302.1	4	110.2	4	-1E+10	1	-1E+10	1	-1E+10	1	-1E+10	1	-1E+10	1	-1E+10	1
4902551	37	C	08/17/2021	01:02	-134.909	49.545	0	34.10	0	10.8790	0	32.3310	0	24.720	0	33.806	0	301.3	4	109.7	4	-1E+10	1	-1E+10	1	-1E+10	1	-1E+10	1	-1E+10	1	-1E+10	1
4902551	37	C	08/17/2021	01:02	-134.909	49.545	0	35.10	0	10.8420	0	32.3300	0	24.726	0	34.798	0	300.6	4	109.3	4	-1E+10	1	-1E+10	1	-1E+10	1	-1E+10	1	-1E+10	1	-1E+10	1
4902551	37	C	08/17/2021	01:02	-134.909	49.545	0	36.00	0	10.8240	0	32.3300	0	24.729	0	35.690	0	299.6	4	109.0	4	-1E+10	1	-1E+10	1	-1E+10	1	-1E+10	1	-1E+10	1	-1E+10	1
4902551	37	C	08/17/2021	01:02	-134.909	49.545	0	36.90	0	10.7880	0	32.3290	0	24.734	0	36.582	0	298.3	4	108.4	4	-1E+10	1	-1E+10	1	-1E+10	1	-1E+10	1	-1E+10	1	-1E+10	1
4902551	37	C	08/17/2021	01:02	-134.909	49.545	0	38.40	0	10.6350	0	32.3260	0	24.759	0	38.069	0	296.6	4	107.4	4	-1E+10	1	-1E+10	1	-1E+10	1	-1E+10	1	-1E+10	1	-1E+10	1
4902551	37	C	08/17/2021	01:02	-134.909	49.545	0	39.30	0	10.2940	0	32.3370	0	24.825	0	38.961	0	296.7	4	106.7	4	-1E+10	1	-1E+10	1	-1E+10	1	-1E+10	1	-1E+10	1	-1E+10	1
4902551	37	C	08/17/2021	01:02	-134.909	49.545	0	40.20	0	9.9170	0	32.3560	0	24.903	0	39.853	0	297.0	4	105.9	4	-1E+10	1	-1E+10	1	-1E+10	1	-1E+10	1	-1E+10	1	-1E+10	1
4902551	37	C	08/17/2021	01:02	-134.909	49.545	0	41.10	0	9.6500	0	32.3620	0	24.951	0	40.745	0	296.7	4	105.2	4	-1E+10	1	-1E+10	1	-1E+10	1	-1E+10	1	-1E+10	1	-1E+10	1
4902551	37	C	08/17/2021	01:02	-134.909	49.545	0	42.10	0	9.3070	0	32.3620	0	25.006	0	41.737	0	295.4	4	104.0	4	-1E+10	1	-1E+10	1	-1E+10	1	-1E+10	1	-1E+10	1	-1E+10	1
4902551	37	C	08/17/2021	01:02	-134.909	49.545	0	43.00	0	8.9970	0	32.3710	0	25.062	0	42.629	0	293.6	4	102.6	4	-1E+10	1	-1E+10	1	-1E+10	1	-1E+10	1	-1E+10	1	-1E+10	1
4902551	37	C	08/17/2021	01:02	-134.909	49.545	0	43.90	0	8.8600	0	32.3740	0	25.085	0	43.521	0	292.2	4	101.9	4	-1E+10	1	-1E+10	1	-1E+10	1	-1E+10	1	-1E+10	1	-1E+10	1
4902551	37	C	08/17/2021	01:02	-134.909	49.545	0	45.10	0	8.8090	0	32.3740	0	25.093	0	44.710	0	290.9	4	101.3	4	-1E+10	1	-1E+10	1	-1E+10	1	-1E+10	1	-1E+10	1	-1E+10	1
4902551	37	C	08/17/2021	01:02	-134.909	49.545	0	46.10	0	8.6370	0	32.3790	0	25.123	0	45.702	0	290.4	4	100.7	4	-1E+10	1	-1E+10	1	-1E+10	1	-1E+10	1	-1E+10	1	-1E+10	1
4902551	37	C	08/17/2021	01:02	-134.909	49.545	0	47.10	0	8.5430	0	32.4070	0	25.159	0	46.693	0	288.9	4	100.0	4	-1E+10	1	-1E+10	1	-1E+10	1	-1E+10	1	-1E+10	1	-1E+10	1
4902551	37	C	08/17/2021	01:02	-134.909	49.545	0	48.20	0	8.4030	0	32.3820	0	25.160	0	47.783	0	288.8	4	99.6	4	-1E+10	1	-1E+10	1	-1E+10	1	-1E+10	1	-1E+10	1	-1E+10	1
4902551	37	C	08/17/2021	01:02	-134.909	49.545	0	49.10	0	8.1980	0	32.3950	0	25.201	0	48.675	0	288.4	4	99.1	4	-1E+10	1	-1E+10	1	-1E+10	1	-1E+10	1	-1E+10	1	-1E+10	1
4902551	37	C	08/17/2021	01:02	-134.909	49.545	0	50.00	0	8.1170	0	32.3920	0	25.210	0	49.567	0	287.5	4	98.6	4	-1E+10	1	-1E+10	1	-1E+10	1	-1E+10	1	-1E+10	1	-1E+10	1
4902551	37	C	08/17/2021	01:02	-134.909	49.545	0	50.90	0	8.0960	0	32.3910	0	25.212	0	50.460	0	286.2	4	98.1	4	-1E+10	1	-1E+10	1	-1E+10	1	-1E+10	1	-1E+10	1	-1E+10	1
4902551	37	C	08/17/2021	01:02	-134.909	49.545	0	52.00	0	8.0190	0	32.3920	0	25.224	0	51.550	0	284.8	4	97.4	4	-1E+10	1	-1E+10	1	-1E+10	1	-1E+10	1	-1E+10	1	-1E+10	1
4902551	37	C	08/17/2021	01:02	-134.909	49.545	0	52.90	0	7.7580	0	32.4030	0	25.270	0	52.442	0	284.2	4	96.7	4	-1E+10	1	-1E+10	1	-1E+10	1	-1E+10	1	-1E+10	1	-1E+10	1
4902551	37	C	08/17/2021	01:02	-134.909	49.545	0	53.80	0	7.6570	0	32.4040	0	25.285	0	53.334	0	283.5	4	96.2	4	-1E+10	1	-1E+10	1	-1E+10	1	-1E+10	1	-1E+10	1	-1E+10	1
4902551	37	C	08/17/2021	01:02	-134.909	49.545	0	54.90	0	7.4150	0	32.4140	0	25.327	0	54.424	0	283.3	4	95.6	4	-1E+10	1	-1E+10	1	-1E+10	1	-1E+10	1	-1E+10	1	-1E+10	1
4902551	37	C	08/17/2021	01:02	-134.909	49.545	0	56.20	0	7.2570	0	32.4200	0	25.353	0	55.713	0	282.8	4	95.1	4	-1E+10	1	-1E+10	1	-1E+10	1	-1E+10	1	-1E+10	1	-1E+10	1
4902551	37	C	08/17/2021	01:02	-134.909	49.545	0	57.10	0	7.1960	0	32.4220	0	25.363	0	56.605	0	282.3	4	94.8	4	-1E+10	1	-1E+10	1	-1E+10	1	-1E+10	1	-1E+10	1	-1E+10	1
4902551	37	C	08/17/2021	01:02	-134.909	49.545	0	57.90	0	7.0980	0	32.4260	0	25.379	0	57.398	0	282.1	4	94.6	4	-1E+10	1	-1E+10	1	-1E+10	1	-1E+10	1	-1E+10	1	-1E+10	1
4902551	37	C	08/17/2021	01:02	-134.909	49.545	0	59.30	0	7.0400	0	32.4260	0	25.387	0	58.786	0	281.6	4	94.3	4	-1E+10	1	-1E+10	1	-1E+10	1	-1E+10	1	-1E+10	1	-1E+10	1
4902551	37	C	08/17/2021	01:02	-134.909	49.545	0	60.20	0	6.9600	0	32.4320	0	25.403	0	59.678	0	281.5	4	94.0	4	-1E+10	1	-1E+10	1	-1E+10	1	-1E+10	1	-1E+10	1	-1E+10	1
4902551	37	C	08/17/2021	01:02	-134.909	49.545	0	61.10	0	6.9450	0	32.4320	0	25.405	0	60.570	0	281.1	4	93.9	4	-1E+10	1	-1E+10	1	-1E+10	1	-1E+10	1	-1E+10	1	-1E+10	1
4902551	37	C	08/17/2021	01:02	-134.909	49.545	0	61.80	0	6.9360	0	32.4310	0	25.405	0	61.264	0	280.8	4	93.8	4	-1E+10	1	-1E+10	1	-1E+10	1	-1E+10	1	-1E+10	1	-1E+10	1
4902551	37	C	08/17/2021	01:02	-134.909	49.545	0	62.70	0	6.9230	0	32.4310	0	25.407	0	62.156	0	280.4	4	93.6	4	-1E+10	1	-1E+10	1	-1E+10	1	-1E+10	1	-1E+10	1	-1E+10	1
4902551	37	C	08/17/2021	01:02	-134.909	49.545	0	63.70	0	6.9110	0	32.4310	0	25.408	0	63.147	0	280.0	4	93.4	4	-1E+10	1	-1E+10	1	-1E+10	1	-1E+10	1	-1E+10	1	-1E+10	1
4902551	37	C	08/17/2021	01:02	-134.909	49.545	0	64.80	0	6.8790	0	32.4330	0	25.414	0	64.237	0	279.6	4	93.2	4	-1E+10	1	-1E+10	1	-1E+10	1	-1E+10	1	-1E+10	1	-1E+10	1
4902551	37	C	08/17/2021	01:02	-134.909	49.545	0	65.90	0	6.8440	0	32.4340	0	25.420	0	65.327	0	279.2	4	93.0	4	-1E+10	1	-1E+10	1	-1E+10	1	-1E+10	1	-1E+10	1	-1E+10	1
4902551	37	C	08/17/2021	01:02	-134.909	49.545	0	67.00	0	6.8120	0	32.4350	0	25.425	0	66.418	0	278.9	4	92.9	4	-1E+10	1	-1E+10	1	-1E+10	1	-1E+10	1	-1E+10	1	-1E+10	1
4902551	37	C	08/17/2021	01:02	-134.909	49.545	0	67.90	0	6.7830	0	32.4370	0	25.430	0	67.310	0	278.8	4	92.8	4	-1E+10	1	-1E+10	1	-1E+10	1	-1E+10	1	-1E+10	1	-1E+10	1
4902551	37	C	08/17/2021	01:02	-134.909	49.545	0	68.80	0	6.7510	0	32.4370	0	25.434	0	68.202	0	278.6	4	92.6	4	-1E+10	1	-1E+10	1	-1E+10	1	-1E+10	1	-1E+10	1	-1E+10	1
4902551	37	C	08/17/2021	01:02	-134.909	49.545	0	70.00	0	6.7370	0	32.4370	0	25.436	0	69.391	0	278.1	4	92.4	4	-1E+10	1	-1E+10	1	-1E+10	1	-1E+10	1	-1E+10	1	-1E+10	1
4902551	37	C	08/17/2021	01:02	-134.909	49.545	0	71.00	0	6.7060	0	32.4420	0	25.444	0	70.382	0	277.7	4	92.3	4	-1E+10	1	-1E+10	1	-1E+10	1	-1E+10	1	-1E+10	1	-1E+10	1
4902551	37	C	08/17/2021	01:02	-134.909	49.545	0	71.90	0	6.6940	0	32.4410	0	25.445	0	71.274	0	277.6	4	92.2	4	-1E+10	1	-1E+10	1	-1E+10	1	-1E+10	1	-1E+10	1	-1E+10	1
4902551	37	C	08/17/2021	01:02	-134.909	49.545	0	72.90	0	6.6910	0	32.4400	0	25.444	0	72.265	0	277.2	4	92.1	4	-1E+10	1	-1E+10	1	-1E+10	1	-1E+10	1	-1E+10	1	-1E+10	1
4902551	37	C	08/17/2021	01:02	-134.909	49.545	0	73.90	0	6.6820	0	32.4390	0	25.445	0	73.256	0	277.0	4	92.0	4	-1E+10	1	-1E+10	1	-1E+10	1	-1E+10	1	-1E+10	1	-1E+10	1
4902551	37	C	08/17/2021	01:02	-134.909	49.545	0	74.90	0	6.6680	0	32.4400	0	25.447	0	74.248	0	276.7	4	91.8	4	-1E+10	1	-1E+10	1	-1E+10	1	-1E+10	1	-1E+10	1	-1E+10	1
4902551	37	C	08/17/2021	01:02	-134.909	49.545	0	75.90	0	6.6540	0	32.4410	0	25.450	0	75.239	0	276.6	4	91.8	4	-1E+10	1	-1E+10	1	-1E+10	1	-1E+10	1	-1E+10	1	-1E+10	1
4902551	37	C	08/17/2021	01:02	-134.909	49.545	0	76.90	0	6.6330	0	32.4410	0	25.453	0	76.230	0	276.4	4	91.7	4	-1E+10	1	-1E+10	1	-1E+10	1	-1E+10	1	-1E+10	1	-1E+10	1
4902551	37	C	08/17/2021	01:02	-134.909	49.545	0	77.80	0	6.6070	0	32.4420	0	25.457	0	77.122	0	276.3	4	91.6	4	-1E+10	1	-1E+10	1	-1E+10	1	-1E+10	1	-1E+10	1	-1E+10	1
4902551	37	C	08/17/2021	01:02	-134.909	49.545	0	78.90	0	6.5920	0	32.4440	0	25.460	0	78.212	0	276.2	4	91.5	4	-1E+10	1	-1E+10	1	-1E+10	1	-1E+10	1	-1E+10	1	-1E+10	1
4902551	37	C	08/17/2021	01:02	-134.909	49.545	0	79.80	0	6.5670	0	32.4450	0	25.464	0	79.104	0	276.1	4	91.4	4	-1E+10	1	-1E+10	1	-1E+10	1	-1E+10	1	-1E+10	1	-1E+10	1
4902551	37	C	08/17/2021	01:02	-134.909	49.545	0	80.90	0	6.5420	0	32.4450	0	25.467	0	80.194	0	276.0	4	91.3	4	-1E+10	1	-1E+10	1	-1E+10	1	-1E+10	1	-1E+10	1	-1E+10	1
4902551	37	C	08/17/2021	01:02	-134.909	49.545	0	81.90	0	6.5200	0	32.4470	0	25.472	0	81.185	0	275.9	4	91.3	4	-1E+10	1	-1E+10	1	-1E+10	1	-1E+10	1	-1E+10	1	-1E+10	1
4902551	37	C	08/17/2021	01:02	-134.909	49.545	0	82.90	0	6.5060	0	32.4460	0	25.473	0	82.176	0	275.8	4	91.2	4	-1E+10	1	-1E+10	1	-1E+10	1	-1E+10	1	-1E+10	1	-1E+10	1
4902551	37	C	08/17/2021	01:02	-134.909	49.545	0	83.90	0	6.4750	0	32.4500	0	25.480	0	83.167	0	275.9	4	91.2	4	-1E+10	1	-1E+10	1	-1E+10	1	-1E+10	1	-1E+10	1	-1E+10	1
4902551	37	C	08/17/2021	01:02	-134.909	49.545	0	84.90	0	6.4620	0	32.4510	0	25.482	0	84.158	0	275.7	4	91.1	4	-1E+10	1	-1E+10	1	-1E+10	1	-1E+10	1	-1E+10	1	-1E+10	1
4902551	37	C	08/17/2021	01:02	-134.909	49.545	0	85.90	0	6.4530	0	32.4510	0	25.484	0	85.149	0	275.7	4	91.1	4	-1E+10	1	-1E+10	1	-1E+10	1	-1E+10	1	-1E+10	1	-1E+10	1
4902551	37	C	08/17/2021	01:02	-134.909	49.545	0	86.90	0	6.4410	0	32.4530	0	25.487	0	86.140	0	275.7	4	91.0	4	-1E+10	1	-1E+10	1	-1E+10	1	-1E+10	1	-1E+10	1	-1E+10	1
4902551	37	C	08/17/2021	01:02	-134.909	49.545	0	87.90	0	6.4350	0	32.4520	0	25.487	0	87.132	0	275.6	4	91.0	4	-1E+10	1	-1E+10	1	-1E+10	1	-1E+10	1	-1E+10	1	-1E+10	1
4902551	37	C	08/17/2021	01:02	-134.909	49.545	0	89.00	0	6.4340	0	32.4520	0	25.487	0	88.222	0	275.5	4	90.9	4	-1E+10	1	-1E+10	1	-1E+10	1	-1E+10	1	-1E+10	1	-1E+10	1
4902551	37	C	08/17/2021	01:02	-134.909	49.545	0	90.00	0	6.4030	0	32.4560	0	25.494	0	89.213	0	275.4	4	90.9	4	-1E+10	1	-1E+10	1	-1E+10	1	-1E+10	1	-1E+10	1	-1E+10	1
4902551	37	C	08/17/2021	01:02	-134.909	49.545	0	91.00	0	6.3750	0	32.4590	0	25.500	0	90.204	0	275.5	4	90.8	4	-1E+10	1	-1E+10	1	-1E+10	1	-1E+10	1	-1E+10	1	-1E+10	1
4902551	37	C	08/17/2021	01:02	-134.909	49.545	0	92.10	0	6.3540	0	32.4600	0	25.503	0	91.294	0	275.5	4	90.8	4	-1E+10	1	-1E+10	1	-1E+10	1	-1E+10	1	-1E+10	1	-1E+10	1
4902551	37	C	08/17/2021	01:02	-134.909	49.545	0	93.10	0	6.3340	0	32.4640	0	25.509	0	92.285	0	275.5	4	90.7	4	-1E+10	1	-1E+10	1	-1E+10	1	-1E+10	1	-1E+10	1	-1E+10	1
4902551	37	C	08/17/2021	01:02	-134.909	49.545	0	93.90	0	6.3140	0	32.4650	0	25.512	0	93.078	0	275.4	4	90.7	4	-1E+10	1	-1E+10	1	-1E+10	1	-1E+10	1	-1E+10	1	-1E+10	1
4902551	37	C	08/17/2021	01:02	-134.909	49.545	0	94.80	0	6.2880	0	32.4650	0	25.516	0	93.970	0	275.3	4	90.6	4	-1E+10	1	-1E+10	1	-1E+10	1	-1E+10	1	-1E+10	1	-1E+10	1
4902551	37	C	08/17/2021	01:02	-134.909	49.545	0	95.90	0	6.2480	0	32.4720	0	25.526	0	95.060	0	275.1	4	90.5	4	-1E+10	1	-1E+10	1	-1E+10	1	-1E+10	1	-1E+10	1	-1E+10	1
4902551	37	C	08/17/2021	01:02	-134.909	49.545	0	96.90	0	6.2330	0	32.4710	0	25.527	0	96.051	0	275.0	4	90.4	4	-1E+10	1	-1E+10	1	-1E+10	1	-1E+10	1	-1E+10	1	-1E+10	1
4902551	37	C	08/17/2021	01:02	-134.909	49.545	0	98.00	0	6.2180	0	32.4720	0	25.530	0	97.141	0	274.6	4	90.2	4	-1E+10	1	-1E+10	1	-1E+10	1	-1E+10	1	-1E+10	1	-1E+10	1
4902551	37	C	08/17/2021	01:02	-134.909	49.545	0	99.00	0	6.1930	0	32.4740	0	25.534	0	98.132	0	274.3	4	90.1	4	-1E+10	1	-1E+10	1	-1E+10	1	-1E+10	1	-1E+10	1	-1E+10	1
4902551	37	C	08/17/2021	01:02	-134.909	49.545	0	100.10	0	6.1790	0	32.4740	0	25.536	0	99.222	0	273.8	4	89.9	4	-1E+10	1	-1E+10	1	-1E+10	1	-1E+10	1	-1E+10	1	-1E+10	1
4902551	37	C	08/17/2021	01:02	-134.909	49.545	0	101.10	0	6.1600	0	32.4760	0	25.540	0	100.213	0	273.2	4	89.6	4	-1E+10	1	-1E+10	1	-1E+10	1	-1E+10	1	-1E+10	1	-1E+10	1
4902551	37	C	08/17/2021	01:02	-134.909	49.545	0	102.00	0	6.1470	0	32.4780	0	25.543	0	101.105	0	272.7	4	89.5	4	-1E+10	1	-1E+10	1	-1E+10	1	-1E+10	1	-1E+10	1	-1E+10	1
4902551	37	C	08/17/2021	01:02	-134.909	49.545	0	102.90	0	6.1220	0	32.4790	0	25.547	0	101.997	0	272.2	4	89.2	4	-1E+10	1	-1E+10	1	-1E+10	1	-1E+10	1	-1E+10	1	-1E+10	1
4902551	37	C	08/17/2021	01:02	-134.909	49.545	0	104.00	0	6.0970	0	32.4810	0	25.552	0	103.087	0	271.2	4	88.8	4	-1E+10	1	-1E+10	1	-1E+10	1	-1E+10	1	-1E+10	1	-1E+10	1
4902551	37	C	08/17/2021	01:02	-134.909	49.545	0	105.10	0	6.0650	0	32.4880	0	25.561	0	104.177	0	269.8	4	88.3	4	-1E+10	1	-1E+10	1	-1E+10	1	-1E+10	1	-1E+10	1	-1E+10	1
4902551	37	C	08/17/2021	01:02	-134.909	49.545	0	106.10	0	6.0120	0	32.4970	0	25.575	0	105.168	0	268.3	4	87.7	4	-1E+10	1	-1E+10	1	-1E+10	1	-1E+10	1	-1E+10	1	-1E+10	1
4902551	37	C	08/17/2021	01:02	-134.909	49.545	0	107.00	0	5.9650	0	32.5070	0	25.589	0	106.060	0	266.2	4	87.0	4	-1E+10	1	-1E+10	1	-1E+10	1	-1E+10	1	-1E+10	1	-1E+10	1
4902551	37	C	08/17/2021	01:02	-134.909	49.545	0	108.10	0	5.9410	0	32.5290	0	25.609	0	107.150	0	259.8	4	84.8	4	-1E+10	1	-1E+10	1	-1E+10	1	-1E+10	1	-1E+10	1	-1E+10	1
4902551	37	C	08/17/2021	01:02	-134.909	49.545	0	109.00	0	5.9430	0	32.5700	0	25.641	0	108.042	0	253.8	4	82.9	4	-1E+10	1	-1E+10	1	-1E+10	1	-1E+10	1	-1E+10	1	-1E+10	1
4902551	37	C	08/17/2021	01:02	-134.909	49.545	0	109.90	0	5.9550	0	32.6130	0	25.674	0	108.933	0	248.9	4	81.3	4	-1E+10	1	-1E+10	1	-1E+10	1	-1E+10	1	-1E+10	1	-1E+10	1
4902551	37	C	08/17/2021	01:02	-134.909	49.545	0	110.80	0	5.9540	0	32.6250	0	25.683	0	109.825	0	245.1	4	80.1	4	-1E+10	1	-1E+10	1	-1E+10	1	-1E+10	1	-1E+10	1	-1E+10	1
4902551	37	C	08/17/2021	01:02	-134.909	49.545	0	111.90	0	5.9580	0	32.6490	0	25.702	0	110.915	0	240.9	4	78.8	4	-1E+10	1	-1E+10	1	-1E+10	1	-1E+10	1	-1E+10	1	-1E+10	1
4902551	37	C	08/17/2021	01:02	-134.909	49.545	0	113.00	0	5.9610	0	32.6750	0	25.722	0	112.005	0	237.1	4	77.6	4	-1E+10	1	-1E+10	1	-1E+10	1	-1E+10	1	-1E+10	1	-1E+10	1
4902551	37	C	08/17/2021	01:02	-134.909	49.545	0	114.00	0	5.9670	0	32.7060	0	25.746	0	112.996	0	234.4	4	76.7	4	-1E+10	1	-1E+10	1	-1E+10	1	-1E+10	1	-1E+10	1	-1E+10	1
4902551	37	C	08/17/2021	01:02	-134.909	49.545	0	114.90	0	5.9690	0	32.7160	0	25.753	0	113.888	0	232.2	4	76.0	4	-1E+10	1	-1E+10	1	-1E+10	1	-1E+10	1	-1E+10	1	-1E+10	1
4902551	37	C	08/17/2021	01:02	-134.909	49.545	0	115.80	0	5.9700	0	32.7170	0	25.754	0	114.780	0	229.7	4	75.2	4	-1E+10	1	-1E+10	1	-1E+10	1	-1E+10	1	-1E+10	1	-1E+10	1
4902551	37	C	08/17/2021	01:02	-134.909	49.545	0	117.00	0	5.9760	0	32.7280	0	25.762	0	115.969	0	226.7	4	74.2	4	-1E+10	1	-1E+10	1	-1E+10	1	-1E+10	1	-1E+10	1	-1E+10	1
4902551	37	C	08/17/2021	01:02	-134.909	49.545	0	118.00	0	5.9790	0	32.7470	0	25.777	0	116.960	0	224.1	4	73.4	4	-1E+10	1	-1E+10	1	-1E+10	1	-1E+10	1	-1E+10	1	-1E+10	1
4902551	37	C	08/17/2021	01:02	-134.909	49.545	0	118.90	0	5.9800	0	32.7550	0	25.783	0	117.852	0	220.8	4	72.3	4	-1E+10	1	-1E+10	1	-1E+10	1	-1E+10	1	-1E+10	1	-1E+10	1
4902551	37	C	08/17/2021	01:02	-134.909	49.545	0	120.00	0	5.9850	0	32.8070	0	25.823	0	118.942	0	216.9	4	71.0	4	-1E+10	1	-1E+10	1	-1E+10	1	-1E+10	1	-1E+10	1	-1E+10	1
4902551	37	C	08/17/2021	01:02	-134.909	49.545	0	121.00	0	5.9880	0	32.8220	0	25.835	0	119.933	0	213.6	4	70.0	4	-1E+10	1	-1E+10	1	-1E+10	1	-1E+10	1	-1E+10	1	-1E+10	1
4902551	37	C	08/17/2021	01:02	-134.909	49.545	0	122.20	0	5.9900	0	32.8280	0	25.839	0	121.122	0	210.4	4	68.9	4	-1E+10	1	-1E+10	1	-1E+10	1	-1E+10	1	-1E+10	1	-1E+10	1
4902551	37	C	08/17/2021	01:02	-134.909	49.545	0	123.00	0	6.0090	0	32.8830	0	25.880	0	121.914	0	208.4	4	68.3	4	-1E+10	1	-1E+10	1	-1E+10	1	-1E+10	1	-1E+10	1	-1E+10	1
4902551	37	C	08/17/2021	01:02	-134.909	49.545	0	123.80	0	6.0160	0	32.9070	0	25.898	0	122.707	0	206.7	4	67.8	4	-1E+10	1	-1E+10	1	-1E+10	1	-1E+10	1	-1E+10	1	-1E+10	1
4902551	37	C	08/17/2021	01:02	-134.909	49.545	0	125.00	0	6.0160	0	32.9070	0	25.898	0	123.896	0	203.8	4	66.9	4	-1E+10	1	-1E+10	1	-1E+10	1	-1E+10	1	-1E+10	1	-1E+10	1
4902551	37	C	08/17/2021	01:02	-134.909	49.545	0	126.20	0	6.0190	0	32.9180	0	25.907	0	125.085	0	200.3	4	65.7	4	-1E+10	1	-1E+10	1	-1E+10	1	-1E+10	1	-1E+10	1	-1E+10	1
4902551	37	C	08/17/2021	01:02	-134.909	49.545	0	127.00	0	6.0210	0	32.9200	0	25.908	0	125.878	0	197.7	4	64.9	4	-1E+10	1	-1E+10	1	-1E+10	1	-1E+10	1	-1E+10	1	-1E+10	1
4902551	37	C	08/17/2021	01:02	-134.909	49.545	0	127.80	0	6.0280	0	32.9380	0	25.921	0	126.670	0	194.6	4	63.9	4	-1E+10	1	-1E+10	1	-1E+10	1	-1E+10	1	-1E+10	1	-1E+10	1
4902551	37	C	08/17/2021	01:02	-134.909	49.545	0	128.70	0	6.0320	0	32.9780	0	25.953	0	127.562	0	192.0	4	63.0	4	-1E+10	1	-1E+10	1	-1E+10	1	-1E+10	1	-1E+10	1	-1E+10	1
4902551	37	C	08/17/2021	01:02	-134.909	49.545	0	129.90	0	6.0290	0	33.0040	0	25.974	0	128.751	0	188.2	4	61.8	4	-1E+10	1	-1E+10	1	-1E+10	1	-1E+10	1	-1E+10	1	-1E+10	1
4902551	37	C	08/17/2021	01:02	-134.909	49.545	0	131.10	0	6.0270	0	33.0210	0	25.987	0	129.940	0	183.9	4	60.4	4	-1E+10	1	-1E+10	1	-1E+10	1	-1E+10	1	-1E+10	1	-1E+10	1
4902551	37	C	08/17/2021	01:02	-134.909	49.545	0	131.90	0	6.0250	0	33.0320	0	25.996	0	130.733	0	180.8	4	59.4	4	-1E+10	1	-1E+10	1	-1E+10	1	-1E+10	1	-1E+10	1	-1E+10	1
4902551	37	C	08/17/2021	01:02	-134.909	49.545	0	133.00	0	6.0220	0	33.0480	0	26.009	0	131.823	0	175.7	4	57.7	4	-1E+10	1	-1E+10	1	-1E+10	1	-1E+10	1	-1E+10	1	-1E+10	1
4902551	37	C	08/17/2021	01:02	-134.909	49.545	0	134.20	0	6.0140	0	33.1190	0	26.066	0	133.012	0	170.8	4	56.1	4	-1E+10	1	-1E+10	1	-1E+10	1	-1E+10	1	-1E+10	1	-1E+10	1
4902551	37	C	08/17/2021	01:02	-134.909	49.545	0	135.00	0	6.0100	0	33.1500	0	26.091	0	133.804	0	167.9	4	55.2	4	-1E+10	1	-1E+10	1	-1E+10	1	-1E+10	1	-1E+10	1	-1E+10	1
4902551	37	C	08/17/2021	01:02	-134.909	49.545	0	135.80	0	5.9980	0	33.2030	0	26.135	0	134.597	0	165.3	4	54.3	4	-1E+10	1	-1E+10	1	-1E+10	1	-1E+10	1	-1E+10	1	-1E+10	1
4902551	37	C	08/17/2021	01:02	-134.909	49.545	0	137.00	0	5.9850	0	33.2770	0	26.195	0	135.786	0	161.6	4	53.1	4	-1E+10	1	-1E+10	1	-1E+10	1	-1E+10	1	-1E+10	1	-1E+10	1
4902551	37	C	08/17/2021	01:02	-134.909	49.545	0	138.10	0	5.9830	0	33.3070	0	26.219	0	136.876	0	158.1	4	52.0	4	-1E+10	1	-1E+10	1	-1E+10	1	-1E+10	1	-1E+10	1	-1E+10	1
4902551	37	C	08/17/2021	01:02	-134.909	49.545	0	138.90	0	5.9740	0	33.3330	0	26.240	0	137.669	0	156.1	4	51.3	4	-1E+10	1	-1E+10	1	-1E+10	1	-1E+10	1	-1E+10	1	-1E+10	1
4902551	37	C	08/17/2021	01:02	-134.909	49.545	0	140.00	0	5.9770	0	33.3780	0	26.275	0	138.758	0	153.1	4	50.3	4	-1E+10	1	-1E+10	1	-1E+10	1	-1E+10	1	-1E+10	1	-1E+10	1
4902551	37	C	08/17/2021	01:02	-134.909	49.545	0	141.20	0	5.9950	0	33.4260	0	26.311	0	139.947	0	150.5	4	49.5	4	-1E+10	1	-1E+10	1	-1E+10	1	-1E+10	1	-1E+10	1	-1E+10	1
4902551	37	C	08/17/2021	01:02	-134.909	49.545	0	142.00	0	6.0050	0	33.4470	0	26.327	0	140.740	0	148.9	4	49.0	4	-1E+10	1	-1E+10	1	-1E+10	1	-1E+10	1	-1E+10	1	-1E+10	1
4902551	37	C	08/17/2021	01:02	-134.909	49.545	0	142.80	0	6.0130	0	33.4560	0	26.333	0	141.533	0	147.3	4	48.5	4	-1E+10	1	-1E+10	1	-1E+10	1	-1E+10	1	-1E+10	1	-1E+10	1
4902551	37	C	08/17/2021	01:02	-134.909	49.545	0	143.60	0	6.0190	0	33.4620	0	26.337	0	142.325	0	145.7	4	48.0	4	-1E+10	1	-1E+10	1	-1E+10	1	-1E+10	1	-1E+10	1	-1E+10	1
4902551	37	C	08/17/2021	01:02	-134.909	49.545	0	144.90	0	6.0350	0	33.4960	0	26.362	0	143.613	0	143.7	4	47.4	4	-1E+10	1	-1E+10	1	-1E+10	1	-1E+10	1	-1E+10	1	-1E+10	1
4902551	37	C	08/17/2021	01:02	-134.909	49.545	0	146.20	0	6.0530	0	33.5270	0	26.384	0	144.901	0	141.9	4	46.8	4	-1E+10	1	-1E+10	1	-1E+10	1	-1E+10	1	-1E+10	1	-1E+10	1
4902551	37	C	08/17/2021	01:02	-134.909	49.545	0	147.10	0	6.0490	0	33.5510	0	26.403	0	145.793	0	140.8	4	46.4	4	-1E+10	1	-1E+10	1	-1E+10	1	-1E+10	1	-1E+10	1	-1E+10	1
4902551	37	C	08/17/2021	01:02	-134.909	49.545	0	148.00	0	6.0480	0	33.5670	0	26.416	0	146.685	0	139.8	4	46.1	4	-1E+10	1	-1E+10	1	-1E+10	1	-1E+10	1	-1E+10	1	-1E+10	1
4902551	37	C	08/17/2021	01:02	-134.909	49.545	0	148.90	0	6.0420	0	33.5780	0	26.426	0	147.576	0	138.9	4	45.8	4	-1E+10	1	-1E+10	1	-1E+10	1	-1E+10	1	-1E+10	1	-1E+10	1
4902551	37	C	08/17/2021	01:02	-134.909	49.545	0	149.80	0	6.0400	0	33.5890	0	26.434	0	148.468	0	138.0	4	45.5	4	-1E+10	1	-1E+10	1	-1E+10	1	-1E+10	1	-1E+10	1	-1E+10	1
4902551	37	C	08/17/2021	01:02	-134.909	49.545	0	150.70	0	6.0340	0	33.6000	0	26.444	0	149.360	0	137.0	4	45.2	4	-1E+10	1	-1E+10	1	-1E+10	1	-1E+10	1	-1E+10	1	-1E+10	1
4902551	37	C	08/17/2021	01:02	-134.909	49.545	0	151.60	0	6.0210	0	33.6010	0	26.446	0	150.251	0	135.9	4	44.8	4	-1E+10	1	-1E+10	1	-1E+10	1	-1E+10	1	-1E+10	1	-1E+10	1
4902551	37	C	08/17/2021	01:02	-134.909	49.545	0	152.60	0	6.0210	0	33.6070	0	26.451	0	151.242	0	134.7	4	44.4	4	-1E+10	1	-1E+10	1	-1E+10	1	-1E+10	1	-1E+10	1	-1E+10	1
4902551	37	C	08/17/2021	01:02	-134.909	49.545	0	153.60	0	6.0290	0	33.6350	0	26.472	0	152.233	0	134.0	4	44.2	4	-1E+10	1	-1E+10	1	-1E+10	1	-1E+10	1	-1E+10	1	-1E+10	1
4902551	37	C	08/17/2021	01:02	-134.909	49.545	0	154.60	0	6.0280	0	33.6390	0	26.476	0	153.224	0	133.3	4	44.0	4	-1E+10	1	-1E+10	1	-1E+10	1	-1E+10	1	-1E+10	1	-1E+10	1
4902551	37	C	08/17/2021	01:02	-134.909	49.545	0	155.70	0	6.0280	0	33.6390	0	26.476	0	154.313	0	132.6	4	43.7	4	-1E+10	1	-1E+10	1	-1E+10	1	-1E+10	1	-1E+10	1	-1E+10	1
4902551	37	C	08/17/2021	01:02	-134.909	49.545	0	156.70	0	6.0270	0	33.6390	0	26.476	0	155.304	0	131.8	4	43.5	4	-1E+10	1	-1E+10	1	-1E+10	1	-1E+10	1	-1E+10	1	-1E+10	1
4902551	37	C	08/17/2021	01:02	-134.909	49.545	0	157.80	0	6.0260	0	33.6400	0	26.477	0	156.394	0	130.9	4	43.2	4	-1E+10	1	-1E+10	1	-1E+10	1	-1E+10	1	-1E+10	1	-1E+10	1
4902551	37	C	08/17/2021	01:02	-134.909	49.545	0	158.80	0	6.0240	0	33.6410	0	26.478	0	157.385	0	129.9	4	42.8	4	-1E+10	1	-1E+10	1	-1E+10	1	-1E+10	1	-1E+10	1	-1E+10	1
4902551	37	C	08/17/2021	01:02	-134.909	49.545	0	159.80	0	6.0170	0	33.6410	0	26.479	0	158.375	0	128.7	4	42.4	4	-1E+10	1	-1E+10	1	-1E+10	1	-1E+10	1	-1E+10	1	-1E+10	1
4902551	37	C	08/17/2021	01:02	-134.909	49.545	0	160.90	0	6.0110	0	33.6420	0	26.480	0	159.465	0	127.3	4	42.0	4	-1E+10	1	-1E+10	1	-1E+10	1	-1E+10	1	-1E+10	1	-1E+10	1
4902551	37	C	08/17/2021	01:02	-134.909	49.545	0	161.90	0	6.0030	0	33.6440	0	26.483	0	160.456	0	125.9	4	41.5	4	-1E+10	1	-1E+10	1	-1E+10	1	-1E+10	1	-1E+10	1	-1E+10	1
4902551	37	C	08/17/2021	01:02	-134.909	49.545	0	162.90	0	6.0120	0	33.6670	0	26.500	0	161.446	0	124.6	4	41.1	4	-1E+10	1	-1E+10	1	-1E+10	1	-1E+10	1	-1E+10	1	-1E+10	1
4902551	37	C	08/17/2021	01:02	-134.909	49.545	0	164.00	0	6.0010	0	33.6960	0	26.524	0	162.536	0	123.5	4	40.7	4	-1E+10	1	-1E+10	1	-1E+10	1	-1E+10	1	-1E+10	1	-1E+10	1
4902551	37	C	08/17/2021	01:02	-134.909	49.545	0	165.10	0	6.0010	0	33.7010	0	26.528	0	163.626	0	122.6	4	40.4	4	-1E+10	1	-1E+10	1	-1E+10	1	-1E+10	1	-1E+10	1	-1E+10	1
4902551	37	C	08/17/2021	01:02	-134.909	49.545	0	166.20	0	5.9880	0	33.7070	0	26.534	0	164.716	0	121.5	4	40.1	4	-1E+10	1	-1E+10	1	-1E+10	1	-1E+10	1	-1E+10	1	-1E+10	1
4902551	37	C	08/17/2021	01:02	-134.909	49.545	0	167.30	0	5.9660	0	33.7120	0	26.541	0	165.805	0	120.5	4	39.7	4	-1E+10	1	-1E+10	1	-1E+10	1	-1E+10	1	-1E+10	1	-1E+10	1
4902551	37	C	08/17/2021	01:02	-134.909	49.545	0	168.40	0	5.9370	0	33.7180	0	26.549	0	166.895	0	119.2	4	39.3	4	-1E+10	1	-1E+10	1	-1E+10	1	-1E+10	1	-1E+10	1	-1E+10	1
4902551	37	C	08/17/2021	01:02	-134.909	49.545	0	169.50	0	5.9650	0	33.7330	0	26.558	0	167.985	0	117.9	4	38.9	4	-1E+10	1	-1E+10	1	-1E+10	1	-1E+10	1	-1E+10	1	-1E+10	1
4902551	37	C	08/17/2021	01:02	-134.909	49.545	0	170.60	0	5.9700	0	33.7360	0	26.560	0	169.075	0	117.0	4	38.6	4	-1E+10	1	-1E+10	1	-1E+10	1	-1E+10	1	-1E+10	1	-1E+10	1
4902551	37	C	08/17/2021	01:02	-134.909	49.545	0	171.60	0	5.9660	0	33.7360	0	26.560	0	170.065	0	115.8	4	38.2	4	-1E+10	1	-1E+10	1	-1E+10	1	-1E+10	1	-1E+10	1	-1E+10	1
4902551	37	C	08/17/2021	01:02	-134.909	49.545	0	172.70	0	5.9670	0	33.7380	0	26.562	0	171.155	0	114.5	4	37.7	4	-1E+10	1	-1E+10	1	-1E+10	1	-1E+10	1	-1E+10	1	-1E+10	1
4902551	37	C	08/17/2021	01:02	-134.909	49.545	0	173.80	0	5.9700	0	33.7430	0	26.565	0	172.245	0	113.0	4	37.3	4	-1E+10	1	-1E+10	1	-1E+10	1	-1E+10	1	-1E+10	1	-1E+10	1
4902551	37	C	08/17/2021	01:02	-134.909	49.545	0	174.80	0	5.9420	0	33.7530	0	26.577	0	173.235	0	111.9	4	36.9	4	-1E+10	1	-1E+10	1	-1E+10	1	-1E+10	1	-1E+10	1	-1E+10	1
4902551	37	C	08/17/2021	01:02	-134.909	49.545	0	175.90	0	5.9040	0	33.7710	0	26.595	0	174.325	0	111.2	4	36.6	4	-1E+10	1	-1E+10	1	-1E+10	1	-1E+10	1	-1E+10	1	-1E+10	1
4902551	37	C	08/17/2021	01:02	-134.909	49.545	0	177.00	0	5.8850	0	33.7790	0	26.604	0	175.415	0	110.7	4	36.4	4	-1E+10	1	-1E+10	1	-1E+10	1	-1E+10	1	-1E+10	1	-1E+10	1
4902551	37	C	08/17/2021	01:02	-134.909	49.545	0	178.10	0	5.8820	0	33.7840	0	26.608	0	176.504	0	110.3	4	36.3	4	-1E+10	1	-1E+10	1	-1E+10	1	-1E+10	1	-1E+10	1	-1E+10	1
4902551	37	C	08/17/2021	01:02	-134.909	49.545	0	179.20	0	5.8790	0	33.7880	0	26.612	0	177.594	0	109.9	4	36.2	4	-1E+10	1	-1E+10	1	-1E+10	1	-1E+10	1	-1E+10	1	-1E+10	1
4902551	37	C	08/17/2021	01:02	-134.909	49.545	0	180.30	0	5.8780	0	33.7890	0	26.613	0	178.684	0	109.4	4	36.0	4	-1E+10	1	-1E+10	1	-1E+10	1	-1E+10	1	-1E+10	1	-1E+10	1
4902551	37	C	08/17/2021	01:02	-134.909	49.545	0	181.30	0	5.8770	0	33.7890	0	26.613	0	179.674	0	109.0	4	35.9	4	-1E+10	1	-1E+10	1	-1E+10	1	-1E+10	1	-1E+10	1	-1E+10	1
4902551	37	C	08/17/2021	01:02	-134.909	49.545	0	182.30	0	5.8770	0	33.7900	0	26.614	0	180.665	0	108.4	4	35.7	4	-1E+10	1	-1E+10	1	-1E+10	1	-1E+10	1	-1E+10	1	-1E+10	1
4902551	37	C	08/17/2021	01:02	-134.909	49.545	0	183.30	0	5.8740	0	33.7900	0	26.614	0	181.655	0	107.8	4	35.5	4	-1E+10	1	-1E+10	1	-1E+10	1	-1E+10	1	-1E+10	1	-1E+10	1
4902551	37	C	08/17/2021	01:02	-134.909	49.545	0	184.30	0	5.8670	0	33.7950	0	26.619	0	182.646	0	107.2	4	35.3	4	-1E+10	1	-1E+10	1	-1E+10	1	-1E+10	1	-1E+10	1	-1E+10	1
4902551	37	C	08/17/2021	01:02	-134.909	49.545	0	185.40	0	5.8600	0	33.7970	0	26.622	0	183.736	0	106.7	4	35.1	4	-1E+10	1	-1E+10	1	-1E+10	1	-1E+10	1	-1E+10	1	-1E+10	1
4902551	37	C	08/17/2021	01:02	-134.909	49.545	0	186.40	0	5.8570	0	33.8000	0	26.624	0	184.726	0	106.1	4	34.9	4	-1E+10	1	-1E+10	1	-1E+10	1	-1E+10	1	-1E+10	1	-1E+10	1
4902551	37	C	08/17/2021	01:02	-134.909	49.545	0	187.30	0	5.8560	0	33.8010	0	26.625	0	185.618	0	105.5	4	34.7	4	-1E+10	1	-1E+10	1	-1E+10	1	-1E+10	1	-1E+10	1	-1E+10	1
4902551	37	C	08/17/2021	01:02	-134.909	49.545	0	188.30	0	5.8510	0	33.8040	0	26.628	0	186.608	0	104.9	4	34.5	4	-1E+10	1	-1E+10	1	-1E+10	1	-1E+10	1	-1E+10	1	-1E+10	1
4902551	37	C	08/17/2021	01:02	-134.909	49.545	0	189.30	0	5.8460	0	33.8070	0	26.631	0	187.599	0	104.4	4	34.3	4	-1E+10	1	-1E+10	1	-1E+10	1	-1E+10	1	-1E+10	1	-1E+10	1
4902551	37	C	08/17/2021	01:02	-134.909	49.545	0	190.30	0	5.8370	0	33.8100	0	26.635	0	188.590	0	103.9	4	34.2	4	-1E+10	1	-1E+10	1	-1E+10	1	-1E+10	1	-1E+10	1	-1E+10	1
4902551	37	C	08/17/2021	01:02	-134.909	49.545	0	191.30	0	5.8330	0	33.8110	0	26.636	0	189.580	0	103.5	4	34.0	4	-1E+10	1	-1E+10	1	-1E+10	1	-1E+10	1	-1E+10	1	-1E+10	1
4902551	37	C	08/17/2021	01:02	-134.909	49.545	0	192.30	0	5.8290	0	33.8150	0	26.640	0	190.571	0	103.0	4	33.9	4	-1E+10	1	-1E+10	1	-1E+10	1	-1E+10	1	-1E+10	1	-1E+10	1
4902551	37	C	08/17/2021	01:02	-134.909	49.545	0	193.30	0	5.8270	0	33.8160	0	26.641	0	191.561	0	102.5	4	33.7	4	-1E+10	1	-1E+10	1	-1E+10	1	-1E+10	1	-1E+10	1	-1E+10	1
4902551	37	C	08/17/2021	01:02	-134.909	49.545	0	194.20	0	5.8270	0	33.8160	0	26.641	0	192.453	0	101.9	4	33.5	4	-1E+10	1	-1E+10	1	-1E+10	1	-1E+10	1	-1E+10	1	-1E+10	1
4902551	37	C	08/17/2021	01:02	-134.909	49.545	0	195.20	0	5.8220	0	33.8190	0	26.644	0	193.443	0	101.4	4	33.3	4	-1E+10	1	-1E+10	1	-1E+10	1	-1E+10	1	-1E+10	1	-1E+10	1
4902551	37	C	08/17/2021	01:02	-134.909	49.545	0	196.10	0	5.8210	0	33.8200	0	26.645	0	194.335	0	100.8	4	33.1	4	-1E+10	1	-1E+10	1	-1E+10	1	-1E+10	1	-1E+10	1	-1E+10	1
4902551	37	C	08/17/2021	01:02	-134.909	49.545	0	197.00	0	5.8200	0	33.8200	0	26.645	0	195.226	0	100.3	4	33.0	4	-1E+10	1	-1E+10	1	-1E+10	1	-1E+10	1	-1E+10	1	-1E+10	1
4902551	37	C	08/17/2021	01:02	-134.909	49.545	0	198.10	0	5.8000	0	33.8270	0	26.653	0	196.316	0	99.7	4	32.8	4	-1E+10	1	-1E+10	1	-1E+10	1	-1E+10	1	-1E+10	1	-1E+10	1
4902551	37	C	08/17/2021	01:02	-134.909	49.545	0	198.90	0	5.7910	0	33.8270	0	26.654	0	197.108	0	99.2	4	32.6	4	-1E+10	1	-1E+10	1	-1E+10	1	-1E+10	1	-1E+10	1	-1E+10	1
4902551	37	C	08/17/2021	01:02	-134.909	49.545	0	199.90	0	5.7880	0	33.8270	0	26.654	0	198.099	0	98.5	4	32.4	4	-1E+10	1	-1E+10	1	-1E+10	1	-1E+10	1	-1E+10	1	-1E+10	1
4902551	37	C	08/17/2021	01:02	-134.909	49.545	0	201.00	0	5.7810	0	33.8280	0	26.656	0	199.188	0	97.7	4	32.1	4	-1E+10	1	-1E+10	1	-1E+10	1	-1E+10	1	-1E+10	1	-1E+10	1
4902551	37	C	08/17/2021	01:02	-134.909	49.545	0	201.80	0	5.7800	0	33.8280	0	26.656	0	199.981	0	97.2	4	31.9	4	-1E+10	1	-1E+10	1	-1E+10	1	-1E+10	1	-1E+10	1	-1E+10	1
4902551	37	C	08/17/2021	01:02	-134.909	49.545	0	202.80	0	5.7790	0	33.8270	0	26.655	0	200.971	0	96.2	4	31.6	4	-1E+10	1	-1E+10	1	-1E+10	1	-1E+10	1	-1E+10	1	-1E+10	1
4902551	37	C	08/17/2021	01:02	-134.909	49.545	0	204.00	0	5.7500	0	33.8320	0	26.663	0	202.160	0	95.3	4	31.3	4	-1E+10	1	-1E+10	1	-1E+10	1	-1E+10	1	-1E+10	1	-1E+10	1
4902551	37	C	08/17/2021	01:02	-134.909	49.545	0	204.70	0	5.7190	0	33.8350	0	26.669	0	202.853	0	94.8	4	31.1	4	-1E+10	1	-1E+10	1	-1E+10	1	-1E+10	1	-1E+10	1	-1E+10	1
4902551	37	C	08/17/2021	01:02	-134.909	49.545	0	205.90	0	5.6500	0	33.8380	0	26.680	0	204.042	0	94.1	4	30.8	4	-1E+10	1	-1E+10	1	-1E+10	1	-1E+10	1	-1E+10	1	-1E+10	1
4902551	37	C	08/17/2021	01:02	-134.909	49.545	0	207.00	0	5.6340	0	33.8420	0	26.685	0	205.131	0	93.4	4	30.6	4	-1E+10	1	-1E+10	1	-1E+10	1	-1E+10	1	-1E+10	1	-1E+10	1
4902551	37	C	08/17/2021	01:02	-134.909	49.545	0	207.80	0	5.6290	0	33.8400	0	26.684	0	205.923	0	92.9	4	30.4	4	-1E+10	1	-1E+10	1	-1E+10	1	-1E+10	1	-1E+10	1	-1E+10	1
4902551	37	C	08/17/2021	01:02	-134.909	49.545	0	209.00	0	5.6200	0	33.8410	0	26.686	0	207.112	0	92.1	4	30.2	4	-1E+10	1	-1E+10	1	-1E+10	1	-1E+10	1	-1E+10	1	-1E+10	1
4902551	37	C	08/17/2021	01:02	-134.909	49.545	0	210.20	0	5.6130	0	33.8430	0	26.688	0	208.301	0	91.2	4	29.9	4	-1E+10	1	-1E+10	1	-1E+10	1	-1E+10	1	-1E+10	1	-1E+10	1
4902551	37	C	08/17/2021	01:02	-134.909	49.545	0	211.00	0	5.6070	0	33.8470	0	26.692	0	209.093	0	90.8	4	29.7	4	-1E+10	1	-1E+10	1	-1E+10	1	-1E+10	1	-1E+10	1	-1E+10	1
4902551	37	C	08/17/2021	01:02	-134.909	49.545	0	211.80	0	5.5900	0	33.8480	0	26.695	0	209.885	0	90.3	4	29.5	4	-1E+10	1	-1E+10	1	-1E+10	1	-1E+10	1	-1E+10	1	-1E+10	1
4902551	37	C	08/17/2021	01:02	-134.909	49.545	0	212.60	0	5.5670	0	33.8530	0	26.702	0	210.678	0	89.9	4	29.4	4	-1E+10	1	-1E+10	1	-1E+10	1	-1E+10	1	-1E+10	1	-1E+10	1
4902551	37	C	08/17/2021	01:02	-134.909	49.545	0	213.90	0	5.5520	0	33.8510	0	26.702	0	211.965	0	89.3	4	29.2	4	-1E+10	1	-1E+10	1	-1E+10	1	-1E+10	1	-1E+10	1	-1E+10	1
4902551	37	C	08/17/2021	01:02	-134.909	49.545	0	215.10	0	5.5490	0	33.8510	0	26.702	0	213.154	0	88.6	4	29.0	4	-1E+10	1	-1E+10	1	-1E+10	1	-1E+10	1	-1E+10	1	-1E+10	1
4902551	37	C	08/17/2021	01:02	-134.909	49.545	0	216.00	0	5.5470	0	33.8520	0	26.703	0	214.045	0	88.1	4	28.8	4	-1E+10	1	-1E+10	1	-1E+10	1	-1E+10	1	-1E+10	1	-1E+10	1
4902551	37	C	08/17/2021	01:02	-134.909	49.545	0	216.80	0	5.5450	0	33.8510	0	26.703	0	214.838	0	87.6	4	28.6	4	-1E+10	1	-1E+10	1	-1E+10	1	-1E+10	1	-1E+10	1	-1E+10	1
4902551	37	C	08/17/2021	01:02	-134.909	49.545	0	217.60	0	5.5350	0	33.8530	0	26.706	0	215.630	0	87.0	4	28.4	4	-1E+10	1	-1E+10	1	-1E+10	1	-1E+10	1	-1E+10	1	-1E+10	1
4902551	37	C	08/17/2021	01:02	-134.909	49.545	0	218.90	0	5.5250	0	33.8530	0	26.707	0	216.917	0	86.2	4	28.2	4	-1E+10	1	-1E+10	1	-1E+10	1	-1E+10	1	-1E+10	1	-1E+10	1
4902551	37	C	08/17/2021	01:02	-134.909	49.545	0	220.20	0	5.5180	0	33.8530	0	26.708	0	218.205	0	85.2	4	27.8	4	-1E+10	1	-1E+10	1	-1E+10	1	-1E+10	1	-1E+10	1	-1E+10	1
4902551	37	C	08/17/2021	01:02	-134.909	49.545	0	221.00	0	5.5100	0	33.8540	0	26.709	0	218.997	0	84.5	4	27.6	4	-1E+10	1	-1E+10	1	-1E+10	1	-1E+10	1	-1E+10	1	-1E+10	1
4902551	37	C	08/17/2021	01:02	-134.909	49.545	0	221.80	0	5.4950	0	33.8570	0	26.714	0	219.790	0	83.8	4	27.4	4	-1E+10	1	-1E+10	1	-1E+10	1	-1E+10	1	-1E+10	1	-1E+10	1
4902551	37	C	08/17/2021	01:02	-134.909	49.545	0	222.70	0	5.4620	0	33.8600	0	26.720	0	220.681	0	83.2	4	27.1	4	-1E+10	1	-1E+10	1	-1E+10	1	-1E+10	1	-1E+10	1	-1E+10	1
4902551	37	C	08/17/2021	01:02	-134.909	49.545	0	223.90	0	5.4510	0	33.8610	0	26.722	0	221.869	0	82.5	4	26.9	4	-1E+10	1	-1E+10	1	-1E+10	1	-1E+10	1	-1E+10	1	-1E+10	1
4902551	37	C	08/17/2021	01:02	-134.909	49.545	0	225.30	0	5.4350	0	33.8660	0	26.728	0	223.256	0	81.8	4	26.6	4	-1E+10	1	-1E+10	1	-1E+10	1	-1E+10	1	-1E+10	1	-1E+10	1
4902551	37	C	08/17/2021	01:02	-134.909	49.545	0	226.20	0	5.4330	0	33.8670	0	26.729	0	224.147	0	81.3	4	26.5	4	-1E+10	1	-1E+10	1	-1E+10	1	-1E+10	1	-1E+10	1	-1E+10	1
4902551	37	C	08/17/2021	01:02	-134.909	49.545	0	227.00	0	5.4350	0	33.8690	0	26.730	0	224.940	0	80.9	4	26.4	4	-1E+10	1	-1E+10	1	-1E+10	1	-1E+10	1	-1E+10	1	-1E+10	1
4902551	37	C	08/17/2021	01:02	-134.909	49.545	0	227.90	0	5.4400	0	33.8720	0	26.732	0	225.831	0	80.4	4	26.2	4	-1E+10	1	-1E+10	1	-1E+10	1	-1E+10	1	-1E+10	1	-1E+10	1
4902551	37	C	08/17/2021	01:02	-134.909	49.545	0	228.80	0	5.4380	0	33.8720	0	26.732	0	226.722	0	80.0	4	26.1	4	-1E+10	1	-1E+10	1	-1E+10	1	-1E+10	1	-1E+10	1	-1E+10	1
4902551	37	C	08/17/2021	01:02	-134.909	49.545	0	229.70	0	5.4250	0	33.8720	0	26.734	0	227.614	0	79.5	4	25.9	4	-1E+10	1	-1E+10	1	-1E+10	1	-1E+10	1	-1E+10	1	-1E+10	1
4902551	37	C	08/17/2021	01:02	-134.909	49.545	0	230.70	0	5.4210	0	33.8730	0	26.735	0	228.604	0	79.0	4	25.7	4	-1E+10	1	-1E+10	1	-1E+10	1	-1E+10	1	-1E+10	1	-1E+10	1
4902551	37	C	08/17/2021	01:02	-134.909	49.545	0	231.60	0	5.4180	0	33.8730	0	26.736	0	229.495	0	78.5	4	25.6	4	-1E+10	1	-1E+10	1	-1E+10	1	-1E+10	1	-1E+10	1	-1E+10	1
4902551	37	C	08/17/2021	01:02	-134.909	49.545	0	232.90	0	5.4040	0	33.8760	0	26.740	0	230.783	0	77.7	4	25.3	4	-1E+10	1	-1E+10	1	-1E+10	1	-1E+10	1	-1E+10	1	-1E+10	1
4902551	37	C	08/17/2021	01:02	-134.909	49.545	0	234.40	0	5.3940	0	33.8760	0	26.741	0	232.268	0	76.9	4	25.0	4	-1E+10	1	-1E+10	1	-1E+10	1	-1E+10	1	-1E+10	1	-1E+10	1
4902551	37	C	08/17/2021	01:02	-134.909	49.545	0	235.30	0	5.3920	0	33.8760	0	26.741	0	233.160	0	76.2	4	24.8	4	-1E+10	1	-1E+10	1	-1E+10	1	-1E+10	1	-1E+10	1	-1E+10	1
4902551	37	C	08/17/2021	01:02	-134.909	49.545	0	236.20	0	5.3870	0	33.8780	0	26.743	0	234.051	0	75.6	4	24.6	4	-1E+10	1	-1E+10	1	-1E+10	1	-1E+10	1	-1E+10	1	-1E+10	1
4902551	37	C	08/17/2021	01:02	-134.909	49.545	0	237.10	0	5.3820	0	33.8830	0	26.748	0	234.942	0	74.9	4	24.4	4	-1E+10	1	-1E+10	1	-1E+10	1	-1E+10	1	-1E+10	1	-1E+10	1
4902551	37	C	08/17/2021	01:02	-134.909	49.545	0	238.00	0	5.3610	0	33.8820	0	26.749	0	235.834	0	74.3	4	24.2	4	-1E+10	1	-1E+10	1	-1E+10	1	-1E+10	1	-1E+10	1	-1E+10	1
4902551	37	C	08/17/2021	01:02	-134.909	49.545	0	239.00	0	5.3580	0	33.8830	0	26.751	0	236.824	0	73.7	4	24.0	4	-1E+10	1	-1E+10	1	-1E+10	1	-1E+10	1	-1E+10	1	-1E+10	1
4902551	37	C	08/17/2021	01:02	-134.909	49.545	0	240.00	0	5.3480	0	33.8870	0	26.755	0	237.814	0	73.2	4	23.8	4	-1E+10	1	-1E+10	1	-1E+10	1	-1E+10	1	-1E+10	1	-1E+10	1
4902551	37	C	08/17/2021	01:02	-134.909	49.545	0	240.90	0	5.3440	0	33.8870	0	26.755	0	238.705	0	72.8	4	23.7	4	-1E+10	1	-1E+10	1	-1E+10	1	-1E+10	1	-1E+10	1	-1E+10	1
4902551	37	C	08/17/2021	01:02	-134.909	49.545	0	241.90	0	5.3250	0	33.8910	0	26.761	0	239.696	0	72.4	4	23.6	4	-1E+10	1	-1E+10	1	-1E+10	1	-1E+10	1	-1E+10	1	-1E+10	1
4902551	37	C	08/17/2021	01:02	-134.909	49.545	0	242.90	0	5.3150	0	33.8930	0	26.764	0	240.686	0	72.1	4	23.4	4	-1E+10	1	-1E+10	1	-1E+10	1	-1E+10	1	-1E+10	1	-1E+10	1
4902551	37	C	08/17/2021	01:02	-134.909	49.545	0	243.90	0	5.2950	0	33.8940	0	26.767	0	241.676	0	72.0	4	23.4	4	-1E+10	1	-1E+10	1	-1E+10	1	-1E+10	1	-1E+10	1	-1E+10	1
4902551	37	C	08/17/2021	01:02	-134.909	49.545	0	244.90	0	5.2920	0	33.8940	0	26.767	0	242.667	0	71.8	4	23.3	4	-1E+10	1	-1E+10	1	-1E+10	1	-1E+10	1	-1E+10	1	-1E+10	1
4902551	37	C	08/17/2021	01:02	-134.909	49.545	0	245.80	0	5.2900	0	33.8940	0	26.767	0	243.558	0	71.5	4	23.2	4	-1E+10	1	-1E+10	1	-1E+10	1	-1E+10	1	-1E+10	1	-1E+10	1
4902551	37	C	08/17/2021	01:02	-134.909	49.545	0	246.80	0	5.2890	0	33.8940	0	26.767	0	244.548	0	71.3	4	23.1	4	-1E+10	1	-1E+10	1	-1E+10	1	-1E+10	1	-1E+10	1	-1E+10	1
4902551	37	C	08/17/2021	01:02	-134.909	49.545	0	248.00	0	5.2770	0	33.8950	0	26.770	0	245.737	0	70.9	4	23.0	4	-1E+10	1	-1E+10	1	-1E+10	1	-1E+10	1	-1E+10	1	-1E+10	1
4902551	37	C	08/17/2021	01:02	-134.909	49.545	0	249.90	0	5.2580	0	33.8950	0	26.772	0	247.618	0	70.5	4	22.9	4	-1E+10	1	-1E+10	1	-1E+10	1	-1E+10	1	-1E+10	1	-1E+10	1
4902551	37	C	08/17/2021	01:02	-134.909	49.545	0	251.00	0	5.2550	0	33.8950	0	26.772	0	248.707	0	70.3	4	22.8	4	-1E+10	1	-1E+10	1	-1E+10	1	-1E+10	1	-1E+10	1	-1E+10	1
4902551	37	C	08/17/2021	01:02	-134.909	49.545	0	251.80	0	5.2430	0	33.8950	0	26.774	0	249.500	0	70.1	4	22.7	4	-1E+10	1	-1E+10	1	-1E+10	1	-1E+10	1	-1E+10	1	-1E+10	1
4902551	37	C	08/17/2021	01:02	-134.909	49.545	0	252.90	0	5.2180	0	33.8950	0	26.777	0	250.589	0	69.8	4	22.6	4	-1E+10	1	-1E+10	1	-1E+10	1	-1E+10	1	-1E+10	1	-1E+10	1
4902551	37	C	08/17/2021	01:02	-134.909	49.545	0	254.10	0	5.1900	0	33.8940	0	26.779	0	251.777	0	69.5	4	22.5	4	-1E+10	1	-1E+10	1	-1E+10	1	-1E+10	1	-1E+10	1	-1E+10	1
4902551	37	C	08/17/2021	01:02	-134.909	49.545	0	254.90	0	5.1790	0	33.8950	0	26.781	0	252.569	0	69.4	4	22.5	4	-1E+10	1	-1E+10	1	-1E+10	1	-1E+10	1	-1E+10	1	-1E+10	1
4902551	37	C	08/17/2021	01:02	-134.909	49.545	0	255.70	0	5.1700	0	33.8960	0	26.783	0	253.362	0	69.2	4	22.4	4	-1E+10	1	-1E+10	1	-1E+10	1	-1E+10	1	-1E+10	1	-1E+10	1
4902551	37	C	08/17/2021	01:02	-134.909	49.545	0	256.90	0	5.1710	0	33.8980	0	26.784	0	254.550	0	69.0	4	22.4	4	-1E+10	1	-1E+10	1	-1E+10	1	-1E+10	1	-1E+10	1	-1E+10	1
4902551	37	C	08/17/2021	01:02	-134.909	49.545	0	258.10	0	5.1680	0	33.9010	0	26.787	0	255.738	0	68.9	4	22.3	4	-1E+10	1	-1E+10	1	-1E+10	1	-1E+10	1	-1E+10	1	-1E+10	1
4902551	37	C	08/17/2021	01:02	-134.909	49.545	0	258.90	0	5.1660	0	33.8990	0	26.786	0	256.530	0	68.8	4	22.3	4	-1E+10	1	-1E+10	1	-1E+10	1	-1E+10	1	-1E+10	1	-1E+10	1
4902551	37	C	08/17/2021	01:02	-134.909	49.545	0	259.70	0	5.1660	0	33.8990	0	26.786	0	257.323	0	68.7	4	22.3	4	-1E+10	1	-1E+10	1	-1E+10	1	-1E+10	1	-1E+10	1	-1E+10	1
4902551	37	C	08/17/2021	01:02	-134.909	49.545	0	261.00	0	5.1650	0	33.9000	0	26.787	0	258.610	0	68.6	4	22.2	4	-1E+10	1	-1E+10	1	-1E+10	1	-1E+10	1	-1E+10	1	-1E+10	1
4902551	37	C	08/17/2021	01:02	-134.909	49.545	0	262.20	0	5.1640	0	33.9000	0	26.787	0	259.798	0	68.5	4	22.2	4	-1E+10	1	-1E+10	1	-1E+10	1	-1E+10	1	-1E+10	1	-1E+10	1
4902551	37	C	08/17/2021	01:02	-134.909	49.545	0	263.10	0	5.1590	0	33.9000	0	26.787	0	260.689	0	68.4	4	22.1	4	-1E+10	1	-1E+10	1	-1E+10	1	-1E+10	1	-1E+10	1	-1E+10	1
4902551	37	C	08/17/2021	01:02	-134.909	49.545	0	263.90	0	5.1580	0	33.9000	0	26.788	0	261.481	0	68.3	4	22.1	4	-1E+10	1	-1E+10	1	-1E+10	1	-1E+10	1	-1E+10	1	-1E+10	1
4902551	37	C	08/17/2021	01:02	-134.909	49.545	0	264.80	0	5.1580	0	33.9000	0	26.788	0	262.373	0	68.2	4	22.1	4	-1E+10	1	-1E+10	1	-1E+10	1	-1E+10	1	-1E+10	1	-1E+10	1
4902551	37	C	08/17/2021	01:02	-134.909	49.545	0	265.60	0	5.1560	0	33.8990	0	26.787	0	263.165	0	68.1	4	22.0	4	-1E+10	1	-1E+10	1	-1E+10	1	-1E+10	1	-1E+10	1	-1E+10	1
4902551	37	C	08/17/2021	01:02	-134.909	49.545	0	266.90	0	5.1490	0	33.9000	0	26.789	0	264.452	0	67.9	4	22.0	4	-1E+10	1	-1E+10	1	-1E+10	1	-1E+10	1	-1E+10	1	-1E+10	1
4902551	37	C	08/17/2021	01:02	-134.909	49.545	0	268.20	0	5.1380	0	33.9000	0	26.790	0	265.739	0	67.7	4	21.9	4	-1E+10	1	-1E+10	1	-1E+10	1	-1E+10	1	-1E+10	1	-1E+10	1
4902551	37	C	08/17/2021	01:02	-134.909	49.545	0	269.10	0	5.1280	0	33.9010	0	26.792	0	266.630	0	67.7	4	21.9	4	-1E+10	1	-1E+10	1	-1E+10	1	-1E+10	1	-1E+10	1	-1E+10	1
4902551	37	C	08/17/2021	01:02	-134.909	49.545	0	270.00	0	5.1270	0	33.9010	0	26.792	0	267.522	0	67.6	4	21.9	4	-1E+10	1	-1E+10	1	-1E+10	1	-1E+10	1	-1E+10	1	-1E+10	1
4902551	37	C	08/17/2021	01:02	-134.909	49.545	0	270.80	0	5.1250	0	33.9010	0	26.792	0	268.314	0	67.5	4	21.8	4	-1E+10	1	-1E+10	1	-1E+10	1	-1E+10	1	-1E+10	1	-1E+10	1
4902551	37	C	08/17/2021	01:02	-134.909	49.545	0	271.70	0	5.1240	0	33.9010	0	26.792	0	269.205	0	67.4	4	21.8	4	-1E+10	1	-1E+10	1	-1E+10	1	-1E+10	1	-1E+10	1	-1E+10	1
4902551	37	C	08/17/2021	01:02	-134.909	49.545	0	272.60	0	5.1230	0	33.9010	0	26.792	0	270.096	0	67.3	4	21.8	4	-1E+10	1	-1E+10	1	-1E+10	1	-1E+10	1	-1E+10	1	-1E+10	1
4902551	37	C	08/17/2021	01:02	-134.909	49.545	0	273.90	0	5.1190	0	33.9020	0	26.794	0	271.383	0	67.2	4	21.7	4	-1E+10	1	-1E+10	1	-1E+10	1	-1E+10	1	-1E+10	1	-1E+10	1
4902551	37	C	08/17/2021	01:02	-134.909	49.545	0	275.30	0	5.1150	0	33.9030	0	26.795	0	272.769	0	67.0	4	21.7	4	-1E+10	1	-1E+10	1	-1E+10	1	-1E+10	1	-1E+10	1	-1E+10	1
4902551	37	C	08/17/2021	01:02	-134.909	49.545	0	276.20	0	5.1140	0	33.9030	0	26.795	0	273.661	0	67.0	4	21.7	4	-1E+10	1	-1E+10	1	-1E+10	1	-1E+10	1	-1E+10	1	-1E+10	1
4902551	37	C	08/17/2021	01:02	-134.909	49.545	0	277.10	0	5.1120	0	33.9030	0	26.795	0	274.552	0	66.9	4	21.7	4	-1E+10	1	-1E+10	1	-1E+10	1	-1E+10	1	-1E+10	1	-1E+10	1
4902551	37	C	08/17/2021	01:02	-134.909	49.545	0	278.00	0	5.1070	0	33.9030	0	26.796	0	275.443	0	67.0	4	21.7	4	-1E+10	1	-1E+10	1	-1E+10	1	-1E+10	1	-1E+10	1	-1E+10	1
4902551	37	C	08/17/2021	01:02	-134.909	49.545	0	278.90	0	5.0960	0	33.9060	0	26.800	0	276.334	0	67.0	4	21.7	4	-1E+10	1	-1E+10	1	-1E+10	1	-1E+10	1	-1E+10	1	-1E+10	1
4902551	37	C	08/17/2021	01:02	-134.909	49.545	0	279.80	0	5.0600	0	33.9040	0	26.802	0	277.225	0	67.1	4	21.7	4	-1E+10	1	-1E+10	1	-1E+10	1	-1E+10	1	-1E+10	1	-1E+10	1
4902551	37	C	08/17/2021	01:02	-134.909	49.545	0	280.70	0	5.0450	0	33.9020	0	26.802	0	278.116	0	67.1	4	21.7	4	-1E+10	1	-1E+10	1	-1E+10	1	-1E+10	1	-1E+10	1	-1E+10	1
4902551	37	C	08/17/2021	01:02	-134.909	49.545	0	281.60	0	5.0420	0	33.9010	0	26.802	0	279.007	0	67.1	4	21.7	4	-1E+10	1	-1E+10	1	-1E+10	1	-1E+10	1	-1E+10	1	-1E+10	1
4902551	37	C	08/17/2021	01:02	-134.909	49.545	0	282.90	0	5.0290	0	33.8990	0	26.802	0	280.294	0	67.1	4	21.7	4	-1E+10	1	-1E+10	1	-1E+10	1	-1E+10	1	-1E+10	1	-1E+10	1
4902551	37	C	08/17/2021	01:02	-134.909	49.545	0	284.20	0	4.9970	0	33.8970	0	26.804	0	281.582	0	67.1	4	21.6	4	-1E+10	1	-1E+10	1	-1E+10	1	-1E+10	1	-1E+10	1	-1E+10	1
4902551	37	C	08/17/2021	01:02	-134.909	49.545	0	285.10	0	4.9560	0	33.9000	0	26.811	0	282.473	0	67.0	4	21.6	4	-1E+10	1	-1E+10	1	-1E+10	1	-1E+10	1	-1E+10	1	-1E+10	1
4902551	37	C	08/17/2021	01:02	-134.909	49.545	0	286.00	0	4.9400	0	33.8970	0	26.810	0	283.364	0	66.9	4	21.6	4	-1E+10	1	-1E+10	1	-1E+10	1	-1E+10	1	-1E+10	1	-1E+10	1
4902551	37	C	08/17/2021	01:02	-134.909	49.545	0	286.90	0	4.9310	0	33.8970	0	26.811	0	284.255	0	66.8	4	21.5	4	-1E+10	1	-1E+10	1	-1E+10	1	-1E+10	1	-1E+10	1	-1E+10	1
4902551	37	C	08/17/2021	01:02	-134.909	49.545	0	287.80	0	4.9280	0	33.8950	0	26.810	0	285.146	0	66.7	4	21.5	4	-1E+10	1	-1E+10	1	-1E+10	1	-1E+10	1	-1E+10	1	-1E+10	1
4902551	37	C	08/17/2021	01:02	-134.909	49.545	0	288.60	0	4.9210	0	33.8940	0	26.810	0	285.938	0	66.5	4	21.4	4	-1E+10	1	-1E+10	1	-1E+10	1	-1E+10	1	-1E+10	1	-1E+10	1
4902551	37	C	08/17/2021	01:02	-134.909	49.545	0	289.90	0	4.9210	0	33.8950	0	26.811	0	287.225	0	66.3	4	21.4	4	-1E+10	1	-1E+10	1	-1E+10	1	-1E+10	1	-1E+10	1	-1E+10	1
4902551	37	C	08/17/2021	01:02	-134.909	49.545	0	291.30	0	4.9150	0	33.8940	0	26.811	0	288.611	0	66.0	4	21.2	4	-1E+10	1	-1E+10	1	-1E+10	1	-1E+10	1	-1E+10	1	-1E+10	1
4902551	37	C	08/17/2021	01:02	-134.909	49.545	0	292.20	0	4.9090	0	33.8950	0	26.812	0	289.502	0	65.7	4	21.2	4	-1E+10	1	-1E+10	1	-1E+10	1	-1E+10	1	-1E+10	1	-1E+10	1
4902551	37	C	08/17/2021	01:02	-134.909	49.545	0	293.10	0	4.9020	0	33.8970	0	26.815	0	290.393	0	65.4	4	21.1	4	-1E+10	1	-1E+10	1	-1E+10	1	-1E+10	1	-1E+10	1	-1E+10	1
4902551	37	C	08/17/2021	01:02	-134.909	49.545	0	294.00	0	4.8950	0	33.8950	0	26.814	0	291.284	0	65.1	4	21.0	4	-1E+10	1	-1E+10	1	-1E+10	1	-1E+10	1	-1E+10	1	-1E+10	1
4902551	37	C	08/17/2021	01:02	-134.909	49.545	0	294.90	0	4.8940	0	33.8940	0	26.813	0	292.175	0	64.8	4	20.8	4	-1E+10	1	-1E+10	1	-1E+10	1	-1E+10	1	-1E+10	1	-1E+10	1
4902551	37	C	08/17/2021	01:02	-134.909	49.545	0	295.80	0	4.8920	0	33.8940	0	26.813	0	293.067	0	64.4	4	20.7	4	-1E+10	1	-1E+10	1	-1E+10	1	-1E+10	1	-1E+10	1	-1E+10	1
4902551	37	C	08/17/2021	01:02	-134.909	49.545	0	296.70	0	4.8810	0	33.8960	0	26.816	0	293.958	0	64.1	4	20.6	4	-1E+10	1	-1E+10	1	-1E+10	1	-1E+10	1	-1E+10	1	-1E+10	1
4902551	37	C	08/17/2021	01:02	-134.909	49.545	0	298.00	0	4.8670	0	33.8980	0	26.819	0	295.245	0	63.6	4	20.5	4	-1E+10	1	-1E+10	1	-1E+10	1	-1E+10	1	-1E+10	1	-1E+10	1
4902551	37	C	08/17/2021	01:02	-134.909	49.545	0	299.30	0	4.8520	0	33.9010	0	26.823	0	296.532	0	63.3	4	20.4	4	-1E+10	1	-1E+10	1	-1E+10	1	-1E+10	1	-1E+10	1	-1E+10	1
4902551	37	C	08/17/2021	01:02	-134.909	49.545	0	300.20	0	4.8430	0	33.9010	0	26.824	0	297.423	0	63.1	4	20.3	4	-1E+10	1	-1E+10	1	-1E+10	1	-1E+10	1	-1E+10	1	-1E+10	1
4902551	37	C	08/17/2021	01:02	-134.909	49.545	0	301.10	0	4.8410	0	33.9010	0	26.825	0	298.314	0	62.8	4	20.2	4	-1E+10	1	-1E+10	1	-1E+10	1	-1E+10	1	-1E+10	1	-1E+10	1
4902551	37	C	08/17/2021	01:02	-134.909	49.545	0	301.90	0	4.8280	0	33.9020	0	26.827	0	299.106	0	62.6	4	20.1	4	-1E+10	1	-1E+10	1	-1E+10	1	-1E+10	1	-1E+10	1	-1E+10	1
4902551	37	C	08/17/2021	01:02	-134.909	49.545	0	302.80	0	4.7820	0	33.9060	0	26.835	0	299.997	0	62.5	4	20.1	4	-1E+10	1	-1E+10	1	-1E+10	1	-1E+10	1	-1E+10	1	-1E+10	1
4902551	37	C	08/17/2021	01:02	-134.909	49.545	0	303.70	0	4.7640	0	33.9050	0	26.836	0	300.888	0	62.3	4	20.0	4	-1E+10	1	-1E+10	1	-1E+10	1	-1E+10	1	-1E+10	1	-1E+10	1
4902551	37	C	08/17/2021	01:02	-134.909	49.545	0	304.90	0	4.7550	0	33.9050	0	26.837	0	302.076	0	62.0	4	19.9	4	-1E+10	1	-1E+10	1	-1E+10	1	-1E+10	1	-1E+10	1	-1E+10	1
4902551	37	C	08/17/2021	01:02	-134.909	49.545	0	306.30	0	4.7500	0	33.9050	0	26.838	0	303.462	0	61.7	4	19.8	4	-1E+10	1	-1E+10	1	-1E+10	1	-1E+10	1	-1E+10	1	-1E+10	1
4902551	37	C	08/17/2021	01:02	-134.909	49.545	0	307.20	0	4.7260	0	33.9070	0	26.842	0	304.353	0	61.4	4	19.7	4	-1E+10	1	-1E+10	1	-1E+10	1	-1E+10	1	-1E+10	1	-1E+10	1
4902551	37	C	08/17/2021	01:02	-134.909	49.545	0	308.00	0	4.7300	0	33.9080	0	26.843	0	305.145	0	61.2	4	19.6	4	-1E+10	1	-1E+10	1	-1E+10	1	-1E+10	1	-1E+10	1	-1E+10	1
4902551	37	C	08/17/2021	01:02	-134.909	49.545	0	308.90	0	4.7320	0	33.9130	0	26.846	0	306.036	0	61.1	4	19.6	4	-1E+10	1	-1E+10	1	-1E+10	1	-1E+10	1	-1E+10	1	-1E+10	1
4902551	37	C	08/17/2021	01:02	-134.909	49.545	0	309.80	0	4.7280	0	33.9130	0	26.847	0	306.927	0	61.1	4	19.6	4	-1E+10	1	-1E+10	1	-1E+10	1	-1E+10	1	-1E+10	1	-1E+10	1
4902551	37	C	08/17/2021	01:02	-134.909	49.545	0	310.70	0	4.6910	0	33.9110	0	26.849	0	307.818	0	61.1	4	19.6	4	-1E+10	1	-1E+10	1	-1E+10	1	-1E+10	1	-1E+10	1	-1E+10	1
4902551	37	C	08/17/2021	01:02	-134.909	49.545	0	311.90	0	4.6810	0	33.9170	0	26.855	0	309.006	0	61.1	4	19.6	4	-1E+10	1	-1E+10	1	-1E+10	1	-1E+10	1	-1E+10	1	-1E+10	1
4902551	37	C	08/17/2021	01:02	-134.909	49.545	0	313.30	0	4.6780	0	33.9130	0	26.852	0	310.392	0	61.0	4	19.5	4	-1E+10	1	-1E+10	1	-1E+10	1	-1E+10	1	-1E+10	1	-1E+10	1
4902551	37	C	08/17/2021	01:02	-134.909	49.545	0	314.20	0	4.6770	0	33.9130	0	26.852	0	311.283	0	60.9	4	19.5	4	-1E+10	1	-1E+10	1	-1E+10	1	-1E+10	1	-1E+10	1	-1E+10	1
4902551	37	C	08/17/2021	01:02	-134.909	49.545	0	315.00	0	4.6780	0	33.9120	0	26.851	0	312.075	0	60.8	4	19.5	4	-1E+10	1	-1E+10	1	-1E+10	1	-1E+10	1	-1E+10	1	-1E+10	1
4902551	37	C	08/17/2021	01:02	-134.909	49.545	0	315.90	0	4.6780	0	33.9120	0	26.851	0	312.966	0	60.8	4	19.5	4	-1E+10	1	-1E+10	1	-1E+10	1	-1E+10	1	-1E+10	1	-1E+10	1
4902551	37	C	08/17/2021	01:02	-134.909	49.545	0	316.80	0	4.6700	0	33.9080	0	26.849	0	313.857	0	60.7	4	19.4	4	-1E+10	1	-1E+10	1	-1E+10	1	-1E+10	1	-1E+10	1	-1E+10	1
4902551	37	C	08/17/2021	01:02	-134.909	49.545	0	317.70	0	4.6670	0	33.9120	0	26.853	0	314.748	0	60.5	4	19.4	4	-1E+10	1	-1E+10	1	-1E+10	1	-1E+10	1	-1E+10	1	-1E+10	1
4902551	37	C	08/17/2021	01:02	-134.909	49.545	0	318.50	0	4.6600	0	33.9110	0	26.853	0	315.539	0	60.3	4	19.3	4	-1E+10	1	-1E+10	1	-1E+10	1	-1E+10	1	-1E+10	1	-1E+10	1
4902551	37	C	08/17/2021	01:02	-134.909	49.545	0	319.90	0	4.6610	0	33.9120	0	26.853	0	316.925	0	60.1	4	19.2	4	-1E+10	1	-1E+10	1	-1E+10	1	-1E+10	1	-1E+10	1	-1E+10	1
4902551	37	C	08/17/2021	01:02	-134.909	49.545	0	321.20	0	4.6610	0	33.9130	0	26.854	0	318.212	0	59.9	4	19.2	4	-1E+10	1	-1E+10	1	-1E+10	1	-1E+10	1	-1E+10	1	-1E+10	1
4902551	37	C	08/17/2021	01:02	-134.909	49.545	0	322.10	0	4.6630	0	33.9140	0	26.855	0	319.103	0	59.7	4	19.1	4	-1E+10	1	-1E+10	1	-1E+10	1	-1E+10	1	-1E+10	1	-1E+10	1
4902551	37	C	08/17/2021	01:02	-134.909	49.545	0	323.00	0	4.6640	0	33.9150	0	26.855	0	319.994	0	59.6	4	19.1	4	-1E+10	1	-1E+10	1	-1E+10	1	-1E+10	1	-1E+10	1	-1E+10	1
4902551	37	C	08/17/2021	01:02	-134.909	49.545	0	323.80	0	4.6630	0	33.9160	0	26.856	0	320.786	0	59.4	4	19.0	4	-1E+10	1	-1E+10	1	-1E+10	1	-1E+10	1	-1E+10	1	-1E+10	1
4902551	37	C	08/17/2021	01:02	-134.909	49.545	0	324.70	0	4.6600	0	33.9150	0	26.856	0	321.677	0	59.3	4	19.0	4	-1E+10	1	-1E+10	1	-1E+10	1	-1E+10	1	-1E+10	1	-1E+10	1
4902551	37	C	08/17/2021	01:02	-134.909	49.545	0	325.60	0	4.6590	0	33.9160	0	26.857	0	322.568	0	59.2	4	18.9	4	-1E+10	1	-1E+10	1	-1E+10	1	-1E+10	1	-1E+10	1	-1E+10	1
4902551	37	C	08/17/2021	01:02	-134.909	49.545	0	326.90	0	4.6550	0	33.9160	0	26.857	0	323.855	0	58.9	4	18.9	4	-1E+10	1	-1E+10	1	-1E+10	1	-1E+10	1	-1E+10	1	-1E+10	1
4902551	37	C	08/17/2021	01:02	-134.909	49.545	0	328.20	0	4.6550	0	33.9160	0	26.857	0	325.142	0	58.7	4	18.8	4	-1E+10	1	-1E+10	1	-1E+10	1	-1E+10	1	-1E+10	1	-1E+10	1
4902551	37	C	08/17/2021	01:02	-134.909	49.545	0	329.10	0	4.6510	0	33.9170	0	26.859	0	326.033	0	58.5	4	18.7	4	-1E+10	1	-1E+10	1	-1E+10	1	-1E+10	1	-1E+10	1	-1E+10	1
4902551	37	C	08/17/2021	01:02	-134.909	49.545	0	330.00	0	4.6460	0	33.9180	0	26.860	0	326.923	0	58.3	4	18.7	4	-1E+10	1	-1E+10	1	-1E+10	1	-1E+10	1	-1E+10	1	-1E+10	1
4902551	37	C	08/17/2021	01:02	-134.909	49.545	0	330.90	0	4.6390	0	33.9200	0	26.862	0	327.814	0	58.2	4	18.6	4	-1E+10	1	-1E+10	1	-1E+10	1	-1E+10	1	-1E+10	1	-1E+10	1
4902551	37	C	08/17/2021	01:02	-134.909	49.545	0	331.80	0	4.6380	0	33.9190	0	26.862	0	328.705	0	58.0	4	18.5	4	-1E+10	1	-1E+10	1	-1E+10	1	-1E+10	1	-1E+10	1	-1E+10	1
4902551	37	C	08/17/2021	01:02	-134.909	49.545	0	332.70	0	4.6400	0	33.9200	0	26.862	0	329.596	0	57.9	4	18.5	4	-1E+10	1	-1E+10	1	-1E+10	1	-1E+10	1	-1E+10	1	-1E+10	1
4902551	37	C	08/17/2021	01:02	-134.909	49.545	0	333.60	0	4.6450	0	33.9200	0	26.862	0	330.487	0	57.7	4	18.5	4	-1E+10	1	-1E+10	1	-1E+10	1	-1E+10	1	-1E+10	1	-1E+10	1
4902551	37	C	08/17/2021	01:02	-134.909	49.545	0	334.90	0	4.6440	0	33.9220	0	26.863	0	331.774	0	57.5	4	18.4	4	-1E+10	1	-1E+10	1	-1E+10	1	-1E+10	1	-1E+10	1	-1E+10	1
4902551	37	C	08/17/2021	01:02	-134.909	49.545	0	336.30	0	4.6460	0	33.9230	0	26.864	0	333.160	0	57.3	4	18.3	4	-1E+10	1	-1E+10	1	-1E+10	1	-1E+10	1	-1E+10	1	-1E+10	1
4902551	37	C	08/17/2021	01:02	-134.909	49.545	0	337.20	0	4.6450	0	33.9220	0	26.863	0	334.051	0	57.1	4	18.3	4	-1E+10	1	-1E+10	1	-1E+10	1	-1E+10	1	-1E+10	1	-1E+10	1
4902551	37	C	08/17/2021	01:02	-134.909	49.545	0	338.00	0	4.6450	0	33.9230	0	26.864	0	334.842	0	57.0	4	18.2	4	-1E+10	1	-1E+10	1	-1E+10	1	-1E+10	1	-1E+10	1	-1E+10	1
4902551	37	C	08/17/2021	01:02	-134.909	49.545	0	339.00	0	4.6420	0	33.9220	0	26.864	0	335.832	0	56.7	4	18.2	4	-1E+10	1	-1E+10	1	-1E+10	1	-1E+10	1	-1E+10	1	-1E+10	1
4902551	37	C	08/17/2021	01:02	-134.909	49.545	0	339.80	0	4.6390	0	33.9230	0	26.865	0	336.624	0	56.5	4	18.1	4	-1E+10	1	-1E+10	1	-1E+10	1	-1E+10	1	-1E+10	1	-1E+10	1
4902551	37	C	08/17/2021	01:02	-134.909	49.545	0	340.70	0	4.6410	0	33.9250	0	26.866	0	337.515	0	56.3	4	18.0	4	-1E+10	1	-1E+10	1	-1E+10	1	-1E+10	1	-1E+10	1	-1E+10	1
4902551	37	C	08/17/2021	01:02	-134.909	49.545	0	341.70	0	4.6430	0	33.9270	0	26.867	0	338.505	0	56.1	4	18.0	4	-1E+10	1	-1E+10	1	-1E+10	1	-1E+10	1	-1E+10	1	-1E+10	1
4902551	37	C	08/17/2021	01:02	-134.909	49.545	0	343.00	0	4.6430	0	33.9280	0	26.868	0	339.792	0	56.0	4	17.9	4	-1E+10	1	-1E+10	1	-1E+10	1	-1E+10	1	-1E+10	1	-1E+10	1
4902551	37	C	08/17/2021	01:02	-134.909	49.545	0	344.30	0	4.6420	0	33.9290	0	26.869	0	341.078	0	55.8	4	17.9	4	-1E+10	1	-1E+10	1	-1E+10	1	-1E+10	1	-1E+10	1	-1E+10	1
4902551	37	C	08/17/2021	01:02	-134.909	49.545	0	345.20	0	4.6420	0	33.9290	0	26.869	0	341.969	0	55.7	4	17.8	4	-1E+10	1	-1E+10	1	-1E+10	1	-1E+10	1	-1E+10	1	-1E+10	1
4902551	37	C	08/17/2021	01:02	-134.909	49.545	0	346.10	0	4.6420	0	33.9290	0	26.869	0	342.860	0	55.6	4	17.8	4	-1E+10	1	-1E+10	1	-1E+10	1	-1E+10	1	-1E+10	1	-1E+10	1
4902551	37	C	08/17/2021	01:02	-134.909	49.545	0	347.00	0	4.6390	0	33.9300	0	26.870	0	343.751	0	55.5	4	17.8	4	-1E+10	1	-1E+10	1	-1E+10	1	-1E+10	1	-1E+10	1	-1E+10	1
4902551	37	C	08/17/2021	01:02	-134.909	49.545	0	347.90	0	4.6330	0	33.9310	0	26.872	0	344.642	0	55.4	4	17.7	4	-1E+10	1	-1E+10	1	-1E+10	1	-1E+10	1	-1E+10	1	-1E+10	1
4902551	37	C	08/17/2021	01:02	-134.909	49.545	0	348.80	0	4.6210	0	33.9320	0	26.874	0	345.533	0	55.4	4	17.7	4	-1E+10	1	-1E+10	1	-1E+10	1	-1E+10	1	-1E+10	1	-1E+10	1
4902551	37	C	08/17/2021	01:02	-134.909	49.545	0	349.70	0	4.6200	0	33.9310	0	26.873	0	346.423	0	55.3	4	17.7	4	-1E+10	1	-1E+10	1	-1E+10	1	-1E+10	1	-1E+10	1	-1E+10	1
4902551	37	C	08/17/2021	01:02	-134.909	49.545	0	352.70	0	4.5970	0	33.9290	0	26.874	0	349.393	0	54.8	4	17.5	4	-1E+10	1	-1E+10	1	-1E+10	1	-1E+10	1	-1E+10	1	-1E+10	1
4902551	37	C	08/17/2021	01:02	-134.909	49.545	0	358.00	0	4.5750	0	33.9350	0	26.881	0	354.639	0	53.8	4	17.2	4	-1E+10	1	-1E+10	1	-1E+10	1	-1E+10	1	-1E+10	1	-1E+10	1
4902551	37	C	08/17/2021	01:02	-134.909	49.545	0	362.80	0	4.5460	0	33.9350	0	26.884	0	359.389	0	52.9	4	16.9	4	-1E+10	1	-1E+10	1	-1E+10	1	-1E+10	1	-1E+10	1	-1E+10	1
4902551	37	C	08/17/2021	01:02	-134.909	49.545	0	367.70	0	4.5320	0	33.9390	0	26.889	0	364.239	0	51.4	4	16.4	4	-1E+10	1	-1E+10	1	-1E+10	1	-1E+10	1	-1E+10	1	-1E+10	1
4902551	37	C	08/17/2021	01:02	-134.909	49.545	0	372.90	0	4.5080	0	33.9480	0	26.899	0	369.385	0	49.6	4	15.8	4	-1E+10	1	-1E+10	1	-1E+10	1	-1E+10	1	-1E+10	1	-1E+10	1
4902551	37	C	08/17/2021	01:02	-134.909	49.545	0	378.20	0	4.5280	0	33.9570	0	26.904	0	374.631	0	49.0	4	15.6	4	-1E+10	1	-1E+10	1	-1E+10	1	-1E+10	1	-1E+10	1	-1E+10	1
4902551	37	C	08/17/2021	01:02	-134.909	49.545	0	383.10	0	4.4740	0	33.9560	0	26.909	0	379.480	0	48.4	4	15.4	4	-1E+10	1	-1E+10	1	-1E+10	1	-1E+10	1	-1E+10	1	-1E+10	1
4902551	37	C	08/17/2021	01:02	-134.909	49.545	0	388.00	0	4.4590	0	33.9610	0	26.915	0	384.329	0	47.4	4	15.1	4	-1E+10	1	-1E+10	1	-1E+10	1	-1E+10	1	-1E+10	1	-1E+10	1
4902551	37	C	08/17/2021	01:02	-134.909	49.545	0	393.00	0	4.4610	0	33.9650	0	26.918	0	389.277	0	46.3	4	14.8	4	-1E+10	1	-1E+10	1	-1E+10	1	-1E+10	1	-1E+10	1	-1E+10	1
4902551	37	C	08/17/2021	01:02	-134.909	49.545	0	398.00	0	4.4400	0	33.9720	0	26.926	0	394.225	0	45.4	4	14.5	4	-1E+10	1	-1E+10	1	-1E+10	1	-1E+10	1	-1E+10	1	-1E+10	1
4902551	37	C	08/17/2021	01:02	-134.909	49.545	0	403.20	0	4.4210	0	33.9760	0	26.931	0	399.371	0	44.5	4	14.2	4	-1E+10	1	-1E+10	1	-1E+10	1	-1E+10	1	-1E+10	1	-1E+10	1
4902551	37	C	08/17/2021	01:02	-134.909	49.545	0	407.90	0	4.4050	0	33.9810	0	26.936	0	404.021	0	43.5	4	13.9	4	-1E+10	1	-1E+10	1	-1E+10	1	-1E+10	1	-1E+10	1	-1E+10	1
4902551	37	C	08/17/2021	01:02	-134.909	49.545	0	412.80	0	4.3870	0	33.9870	0	26.943	0	408.870	0	42.6	4	13.5	4	-1E+10	1	-1E+10	1	-1E+10	1	-1E+10	1	-1E+10	1	-1E+10	1
4902551	37	C	08/17/2021	01:02	-134.909	49.545	0	417.80	0	4.3630	0	33.9940	0	26.951	0	413.817	0	41.7	4	13.3	4	-1E+10	1	-1E+10	1	-1E+10	1	-1E+10	1	-1E+10	1	-1E+10	1
4902551	37	C	08/17/2021	01:02	-134.909	49.545	0	422.90	0	4.3540	0	33.9980	0	26.956	0	418.864	0	40.8	4	13.0	4	-1E+10	1	-1E+10	1	-1E+10	1	-1E+10	1	-1E+10	1	-1E+10	1
4902551	37	C	08/17/2021	01:02	-134.909	49.545	0	428.00	0	4.3360	0	34.0030	0	26.961	0	423.910	0	39.9	4	12.7	4	-1E+10	1	-1E+10	1	-1E+10	1	-1E+10	1	-1E+10	1	-1E+10	1
4902551	37	C	08/17/2021	01:02	-134.909	49.545	0	433.20	0	4.3250	0	34.0100	0	26.968	0	429.055	0	39.0	4	12.4	4	-1E+10	1	-1E+10	1	-1E+10	1	-1E+10	1	-1E+10	1	-1E+10	1
4902551	37	C	08/17/2021	01:02	-134.909	49.545	0	437.90	0	4.3160	0	34.0140	0	26.972	0	433.705	0	38.1	4	12.1	4	-1E+10	1	-1E+10	1	-1E+10	1	-1E+10	1	-1E+10	1	-1E+10	1
4902551	37	C	08/17/2021	01:02	-134.909	49.545	0	442.60	0	4.2980	0	34.0200	0	26.979	0	438.355	0	37.3	4	11.8	4	-1E+10	1	-1E+10	1	-1E+10	1	-1E+10	1	-1E+10	1	-1E+10	1
4902551	37	C	08/17/2021	01:02	-134.909	49.545	0	447.90	0	4.2870	0	34.0260	0	26.985	0	443.598	0	36.4	4	11.6	4	-1E+10	1	-1E+10	1	-1E+10	1	-1E+10	1	-1E+10	1	-1E+10	1
4902551	37	C	08/17/2021	01:02	-134.909	49.545	0	453.10	0	4.2670	0	34.0340	0	26.994	0	448.743	0	35.7	4	11.3	4	-1E+10	1	-1E+10	1	-1E+10	1	-1E+10	1	-1E+10	1	-1E+10	1
4902551	37	C	08/17/2021	01:02	-134.909	49.545	0	457.90	0	4.2610	0	34.0380	0	26.997	0	453.491	0	35.3	4	11.2	4	-1E+10	1	-1E+10	1	-1E+10	1	-1E+10	1	-1E+10	1	-1E+10	1
4902551	37	C	08/17/2021	01:02	-134.909	49.545	0	462.80	0	4.2560	0	34.0400	0	27.000	0	458.339	0	34.8	4	11.0	4	-1E+10	1	-1E+10	1	-1E+10	1	-1E+10	1	-1E+10	1	-1E+10	1
4902551	37	C	08/17/2021	01:02	-134.909	49.545	0	467.60	0	4.2460	0	34.0430	0	27.003	0	463.087	0	34.0	4	10.8	4	-1E+10	1	-1E+10	1	-1E+10	1	-1E+10	1	-1E+10	1	-1E+10	1
4902551	37	C	08/17/2021	01:02	-134.909	49.545	0	472.60	0	4.2300	0	34.0490	0	27.009	0	468.033	0	33.3	4	10.6	4	-1E+10	1	-1E+10	1	-1E+10	1	-1E+10	1	-1E+10	1	-1E+10	1
4902551	37	C	08/17/2021	01:02	-134.909	49.545	0	477.60	0	4.2080	0	34.0560	0	27.017	0	472.979	0	32.8	4	10.4	4	-1E+10	1	-1E+10	1	-1E+10	1	-1E+10	1	-1E+10	1	-1E+10	1
4902551	37	C	08/17/2021	01:02	-134.909	49.545	0	482.70	0	4.1950	0	34.0600	0	27.022	0	478.024	0	32.5	4	10.3	4	-1E+10	1	-1E+10	1	-1E+10	1	-1E+10	1	-1E+10	1	-1E+10	1
4902551	37	C	08/17/2021	01:02	-134.909	49.545	0	488.00	0	4.1870	0	34.0630	0	27.025	0	483.267	0	32.2	4	10.2	4	-1E+10	1	-1E+10	1	-1E+10	1	-1E+10	1	-1E+10	1	-1E+10	1
4902551	37	C	08/17/2021	01:02	-134.909	49.545	0	492.80	0	4.1740	0	34.0660	0	27.029	0	488.014	0	31.9	4	10.1	4	-1E+10	1	-1E+10	1	-1E+10	1	-1E+10	1	-1E+10	1	-1E+10	1
4902551	37	C	08/17/2021	01:02	-134.909	49.545	0	497.70	0	4.1580	0	34.0720	0	27.035	0	492.861	0	31.4	4	9.9	4	-1E+10	1	-1E+10	1	-1E+10	1	-1E+10	1	-1E+10	1	-1E+10	1
4902551	37	C	08/17/2021	01:02	-134.909	49.545	0	503.00	0	4.1510	0	34.0740	0	27.038	0	498.103	0	31.2	4	9.9	4	-1E+10	1	-1E+10	1	-1E+10	1	-1E+10	1	-1E+10	1	-1E+10	1
4902551	37	C	08/17/2021	01:02	-134.909	49.545	0	508.00	0	4.1410	0	34.0770	0	27.041	0	503.048	0	31.0	4	9.8	4	-1E+10	1	-1E+10	1	-1E+10	1	-1E+10	1	-1E+10	1	-1E+10	1
4902551	37	C	08/17/2021	01:02	-134.909	49.545	0	512.90	0	4.1250	0	34.0820	0	27.047	0	507.895	0	30.5	4	9.7	4	-1E+10	1	-1E+10	1	-1E+10	1	-1E+10	1	-1E+10	1	-1E+10	1
4902551	37	C	08/17/2021	01:02	-134.909	49.545	0	517.90	0	4.1080	0	34.0870	0	27.053	0	512.840	0	30.0	4	9.5	4	-1E+10	1	-1E+10	1	-1E+10	1	-1E+10	1	-1E+10	1	-1E+10	1
4902551	37	C	08/17/2021	01:02	-134.909	49.545	0	522.90	0	4.0980	0	34.0910	0	27.057	0	517.785	0	29.5	4	9.3	4	-1E+10	1	-1E+10	1	-1E+10	1	-1E+10	1	-1E+10	1	-1E+10	1
4902551	37	C	08/17/2021	01:02	-134.909	49.545	0	527.90	0	4.0850	0	34.0950	0	27.062	0	522.729	0	29.2	4	9.2	4	-1E+10	1	-1E+10	1	-1E+10	1	-1E+10	1	-1E+10	1	-1E+10	1
4902551	37	C	08/17/2021	01:02	-134.909	49.545	0	533.00	0	4.0690	0	34.0990	0	27.066	0	527.773	0	28.8	4	9.1	4	-1E+10	1	-1E+10	1	-1E+10	1	-1E+10	1	-1E+10	1	-1E+10	1
4902551	37	C	08/17/2021	01:02	-134.909	49.545	0	538.10	0	4.0430	0	34.1070	0	27.075	0	532.816	0	28.3	4	8.9	4	-1E+10	1	-1E+10	1	-1E+10	1	-1E+10	1	-1E+10	1	-1E+10	1
4902551	37	C	08/17/2021	01:02	-134.909	49.545	0	542.80	0	4.0260	0	34.1120	0	27.081	0	537.464	0	27.9	4	8.8	4	-1E+10	1	-1E+10	1	-1E+10	1	-1E+10	1	-1E+10	1	-1E+10	1
4902551	37	C	08/17/2021	01:02	-134.909	49.545	0	548.00	0	4.0160	0	34.1160	0	27.085	0	542.606	0	27.5	4	8.7	4	-1E+10	1	-1E+10	1	-1E+10	1	-1E+10	1	-1E+10	1	-1E+10	1
4902551	37	C	08/17/2021	01:02	-134.909	49.545	0	553.20	0	4.0070	0	34.1190	0	27.089	0	547.748	0	27.2	4	8.6	4	-1E+10	1	-1E+10	1	-1E+10	1	-1E+10	1	-1E+10	1	-1E+10	1
4902551	37	C	08/17/2021	01:02	-134.909	49.545	0	558.00	0	4.0020	0	34.1200	0	27.090	0	552.495	0	26.8	4	8.5	4	-1E+10	1	-1E+10	1	-1E+10	1	-1E+10	1	-1E+10	1	-1E+10	1
4902551	37	C	08/17/2021	01:02	-134.909	49.545	0	562.90	0	3.9920	0	34.1240	0	27.094	0	557.340	0	26.4	4	8.3	4	-1E+10	1	-1E+10	1	-1E+10	1	-1E+10	1	-1E+10	1	-1E+10	1
4902551	37	C	08/17/2021	01:02	-134.909	49.545	0	567.80	0	3.9790	0	34.1280	0	27.099	0	562.185	0	25.9	4	8.2	4	-1E+10	1	-1E+10	1	-1E+10	1	-1E+10	1	-1E+10	1	-1E+10	1
4902551	37	C	08/17/2021	01:02	-134.909	49.545	0	572.70	0	3.9660	0	34.1320	0	27.103	0	567.030	0	25.5	4	8.0	4	-1E+10	1	-1E+10	1	-1E+10	1	-1E+10	1	-1E+10	1	-1E+10	1
4902551	37	C	08/17/2021	01:02	-134.909	49.545	0	577.80	0	3.9480	0	34.1370	0	27.109	0	572.072	0	25.1	4	7.9	4	-1E+10	1	-1E+10	1	-1E+10	1	-1E+10	1	-1E+10	1	-1E+10	1
4902551	37	C	08/17/2021	01:02	-134.909	49.545	0	582.90	0	3.9340	0	34.1420	0	27.115	0	577.114	0	24.7	4	7.8	4	-1E+10	1	-1E+10	1	-1E+10	1	-1E+10	1	-1E+10	1	-1E+10	1
4902551	37	C	08/17/2021	01:02	-134.909	49.545	0	587.90	0	3.9210	0	34.1460	0	27.119	0	582.058	0	24.4	4	7.7	4	-1E+10	1	-1E+10	1	-1E+10	1	-1E+10	1	-1E+10	1	-1E+10	1
4902551	37	C	08/17/2021	01:02	-134.909	49.545	0	593.00	0	3.9130	0	34.1490	0	27.122	0	587.100	0	24.1	4	7.6	4	-1E+10	1	-1E+10	1	-1E+10	1	-1E+10	1	-1E+10	1	-1E+10	1
4902551	37	C	08/17/2021	01:02	-134.909	49.545	0	598.20	0	3.9030	0	34.1510	0	27.125	0	592.241	0	23.8	4	7.5	4	-1E+10	1	-1E+10	1	-1E+10	1	-1E+10	1	-1E+10	1	-1E+10	1
4902551	37	C	08/17/2021	01:02	-134.909	49.545	0	603.00	0	3.8860	0	34.1560	0	27.131	0	596.986	0	23.6	4	7.4	4	-1E+10	1	-1E+10	1	-1E+10	1	-1E+10	1	-1E+10	1	-1E+10	1
4902551	37	C	08/17/2021	01:02	-134.909	49.545	0	607.70	0	3.8790	0	34.1580	0	27.133	0	601.632	0	23.4	4	7.4	4	-1E+10	1	-1E+10	1	-1E+10	1	-1E+10	1	-1E+10	1	-1E+10	1
4902551	37	C	08/17/2021	01:02	-134.909	49.545	0	612.90	0	3.8760	0	34.1590	0	27.134	0	606.773	0	23.2	4	7.3	4	-1E+10	1	-1E+10	1	-1E+10	1	-1E+10	1	-1E+10	1	-1E+10	1
4902551	37	C	08/17/2021	01:02	-134.909	49.545	0	618.00	0	3.8670	0	34.1620	0	27.138	0	611.814	0	22.8	4	7.2	4	-1E+10	1	-1E+10	1	-1E+10	1	-1E+10	1	-1E+10	1	-1E+10	1
4902551	37	C	08/17/2021	01:02	-134.909	49.545	0	622.80	0	3.8600	0	34.1640	0	27.140	0	616.559	0	22.4	4	7.1	4	-1E+10	1	-1E+10	1	-1E+10	1	-1E+10	1	-1E+10	1	-1E+10	1
4902551	37	C	08/17/2021	01:02	-134.909	49.545	0	627.80	0	3.8520	0	34.1670	0	27.143	0	621.502	0	22.0	4	6.9	4	-1E+10	1	-1E+10	1	-1E+10	1	-1E+10	1	-1E+10	1	-1E+10	1
4902551	37	C	08/17/2021	01:02	-134.909	49.545	0	632.90	0	3.8430	0	34.1710	0	27.147	0	626.543	0	21.6	4	6.8	4	-1E+10	1	-1E+10	1	-1E+10	1	-1E+10	1	-1E+10	1	-1E+10	1
4902551	37	C	08/17/2021	01:02	-134.909	49.545	0	637.90	0	3.8280	0	34.1740	0	27.151	0	631.485	0	21.2	4	6.7	4	-1E+10	1	-1E+10	1	-1E+10	1	-1E+10	1	-1E+10	1	-1E+10	1
4902551	37	C	08/17/2021	01:02	-134.909	49.545	0	642.90	0	3.8220	0	34.1770	0	27.154	0	636.427	0	20.7	4	6.5	4	-1E+10	1	-1E+10	1	-1E+10	1	-1E+10	1	-1E+10	1	-1E+10	1
4902551	37	C	08/17/2021	01:02	-134.909	49.545	0	648.00	0	3.8130	0	34.1810	0	27.158	0	641.468	0	20.3	4	6.4	4	-1E+10	1	-1E+10	1	-1E+10	1	-1E+10	1	-1E+10	1	-1E+10	1
4902551	37	C	08/17/2021	01:02	-134.909	49.545	0	653.10	0	3.8020	0	34.1860	0	27.163	0	646.509	0	20.0	4	6.3	4	-1E+10	1	-1E+10	1	-1E+10	1	-1E+10	1	-1E+10	1	-1E+10	1
4902551	37	C	08/17/2021	01:02	-134.909	49.545	0	658.30	0	3.7920	0	34.1890	0	27.167	0	651.648	0	19.9	4	6.2	4	-1E+10	1	-1E+10	1	-1E+10	1	-1E+10	1	-1E+10	1	-1E+10	1
4902551	37	C	08/17/2021	01:02	-134.909	49.545	0	663.00	0	3.7820	0	34.1910	0	27.169	0	656.293	0	19.7	4	6.2	4	-1E+10	1	-1E+10	1	-1E+10	1	-1E+10	1	-1E+10	1	-1E+10	1
4902551	37	C	08/17/2021	01:02	-134.909	49.545	0	667.70	0	3.7740	0	34.1930	0	27.172	0	660.938	0	19.5	4	6.1	4	-1E+10	1	-1E+10	1	-1E+10	1	-1E+10	1	-1E+10	1	-1E+10	1
4902551	37	C	08/17/2021	01:02	-134.909	49.545	0	672.90	0	3.7670	0	34.1950	0	27.174	0	666.077	0	19.2	4	6.0	4	-1E+10	1	-1E+10	1	-1E+10	1	-1E+10	1	-1E+10	1	-1E+10	1
4902551	37	C	08/17/2021	01:02	-134.909	49.545	0	677.90	0	3.7560	0	34.1980	0	27.178	0	671.018	0	18.9	4	5.9	4	-1E+10	1	-1E+10	1	-1E+10	1	-1E+10	1	-1E+10	1	-1E+10	1
4902551	37	C	08/17/2021	01:02	-134.909	49.545	0	683.00	0	3.7370	0	34.2040	0	27.184	0	676.058	0	18.6	4	5.8	4	-1E+10	1	-1E+10	1	-1E+10	1	-1E+10	1	-1E+10	1	-1E+10	1
4902551	37	C	08/17/2021	01:02	-134.909	49.545	0	688.10	0	3.7190	0	34.2080	0	27.189	0	681.098	0	18.2	4	5.7	4	-1E+10	1	-1E+10	1	-1E+10	1	-1E+10	1	-1E+10	1	-1E+10	1
4902551	37	C	08/17/2021	01:02	-134.909	49.545	0	692.90	0	3.7070	0	34.2140	0	27.195	0	685.842	0	17.7	4	5.6	4	-1E+10	1	-1E+10	1	-1E+10	1	-1E+10	1	-1E+10	1	-1E+10	1
4902551	37	C	08/17/2021	01:02	-134.909	49.545	0	697.60	0	3.6970	0	34.2180	0	27.200	0	690.486	0	17.6	4	5.5	4	-1E+10	1	-1E+10	1	-1E+10	1	-1E+10	1	-1E+10	1	-1E+10	1
4902551	37	C	08/17/2021	01:02	-134.909	49.545	0	702.90	0	3.6870	0	34.2200	0	27.202	0	695.723	0	17.4	4	5.4	4	-1E+10	1	-1E+10	1	-1E+10	1	-1E+10	1	-1E+10	1	-1E+10	1
4902551	37	C	08/17/2021	01:02	-134.909	49.545	0	708.20	0	3.6780	0	34.2240	0	27.206	0	700.960	0	17.2	4	5.4	4	-1E+10	1	-1E+10	1	-1E+10	1	-1E+10	1	-1E+10	1	-1E+10	1
4902551	37	C	08/17/2021	01:02	-134.909	49.545	0	713.00	0	3.6720	0	34.2270	0	27.209	0	705.703	0	17.0	4	5.3	4	-1E+10	1	-1E+10	1	-1E+10	1	-1E+10	1	-1E+10	1	-1E+10	1
4902551	37	C	08/17/2021	01:02	-134.909	49.545	0	717.90	0	3.6610	0	34.2300	0	27.213	0	710.544	0	16.8	4	5.3	4	-1E+10	1	-1E+10	1	-1E+10	1	-1E+10	1	-1E+10	1	-1E+10	1
4902551	37	C	08/17/2021	01:02	-134.909	49.545	0	722.80	0	3.6490	0	34.2320	0	27.216	0	715.386	0	16.6	4	5.2	4	-1E+10	1	-1E+10	1	-1E+10	1	-1E+10	1	-1E+10	1	-1E+10	1
4902551	37	C	08/17/2021	01:02	-134.909	49.545	0	727.60	0	3.6410	0	34.2350	0	27.219	0	720.128	0	16.4	4	5.1	4	-1E+10	1	-1E+10	1	-1E+10	1	-1E+10	1	-1E+10	1	-1E+10	1
4902551	37	C	08/17/2021	01:02	-134.909	49.545	0	732.90	0	3.6250	0	34.2390	0	27.224	0	725.365	0	16.2	4	5.1	4	-1E+10	1	-1E+10	1	-1E+10	1	-1E+10	1	-1E+10	1	-1E+10	1
4902551	37	C	08/17/2021	01:02	-134.909	49.545	0	738.00	0	3.6180	0	34.2420	0	27.227	0	730.403	0	16.0	4	5.0	4	-1E+10	1	-1E+10	1	-1E+10	1	-1E+10	1	-1E+10	1	-1E+10	1
4902551	37	C	08/17/2021	01:02	-134.909	49.545	0	743.20	0	3.6060	0	34.2460	0	27.231	0	735.540	0	15.9	4	5.0	4	-1E+10	1	-1E+10	1	-1E+10	1	-1E+10	1	-1E+10	1	-1E+10	1
4902551	37	C	08/17/2021	01:02	-134.909	49.545	0	747.90	0	3.5870	0	34.2500	0	27.236	0	740.184	0	15.7	4	4.9	4	-1E+10	1	-1E+10	1	-1E+10	1	-1E+10	1	-1E+10	1	-1E+10	1
4902551	37	C	08/17/2021	01:02	-134.909	49.545	0	752.60	0	3.5750	0	34.2530	0	27.240	0	744.827	0	15.6	4	4.9	4	-1E+10	1	-1E+10	1	-1E+10	1	-1E+10	1	-1E+10	1	-1E+10	1
4902551	37	C	08/17/2021	01:02	-134.909	49.545	0	757.70	0	3.5540	0	34.2570	0	27.245	0	749.865	0	15.5	4	4.8	4	-1E+10	1	-1E+10	1	-1E+10	1	-1E+10	1	-1E+10	1	-1E+10	1
4902551	37	C	08/17/2021	01:02	-134.909	49.545	0	762.80	0	3.5350	0	34.2610	0	27.250	0	754.903	0	15.3	4	4.8	4	-1E+10	1	-1E+10	1	-1E+10	1	-1E+10	1	-1E+10	1	-1E+10	1
4902551	37	C	08/17/2021	01:02	-134.909	49.545	0	768.00	0	3.5110	0	34.2660	0	27.256	0	760.040	0	15.2	4	4.7	4	-1E+10	1	-1E+10	1	-1E+10	1	-1E+10	1	-1E+10	1	-1E+10	1
4902551	37	C	08/17/2021	01:02	-134.909	49.545	0	772.80	0	3.5000	0	34.2680	0	27.259	0	764.781	0	15.1	4	4.7	4	-1E+10	1	-1E+10	1	-1E+10	1	-1E+10	1	-1E+10	1	-1E+10	1
4902551	37	C	08/17/2021	01:02	-134.909	49.545	0	777.60	0	3.4890	0	34.2710	0	27.263	0	769.523	0	15.1	4	4.7	4	-1E+10	1	-1E+10	1	-1E+10	1	-1E+10	1	-1E+10	1	-1E+10	1
4902551	37	C	08/17/2021	01:02	-134.909	49.545	0	783.00	0	3.4750	0	34.2730	0	27.266	0	774.856	0	14.9	4	4.7	4	-1E+10	1	-1E+10	1	-1E+10	1	-1E+10	1	-1E+10	1	-1E+10	1
4902551	37	C	08/17/2021	01:02	-134.909	49.545	0	787.90	0	3.4480	0	34.2780	0	27.272	0	779.696	0	14.8	4	4.6	4	-1E+10	1	-1E+10	1	-1E+10	1	-1E+10	1	-1E+10	1	-1E+10	1
4902551	37	C	08/17/2021	01:02	-134.909	49.545	0	792.90	0	3.4290	0	34.2820	0	27.277	0	784.635	0	14.7	4	4.6	4	-1E+10	1	-1E+10	1	-1E+10	1	-1E+10	1	-1E+10	1	-1E+10	1
4902551	37	C	08/17/2021	01:02	-134.909	49.545	0	798.10	0	3.4120	0	34.2850	0	27.281	0	789.771	0	14.7	4	4.6	4	-1E+10	1	-1E+10	1	-1E+10	1	-1E+10	1	-1E+10	1	-1E+10	1
4902551	37	C	08/17/2021	01:02	-134.909	49.545	0	803.00	0	3.3990	0	34.2880	0	27.285	0	794.610	0	14.6	4	4.5	4	-1E+10	1	-1E+10	1	-1E+10	1	-1E+10	1	-1E+10	1	-1E+10	1
4902551	37	C	08/17/2021	01:02	-134.909	49.545	0	808.00	0	3.3940	0	34.2890	0	27.286	0	799.549	0	14.5	4	4.5	4	-1E+10	1	-1E+10	1	-1E+10	1	-1E+10	1	-1E+10	1	-1E+10	1
4902551	37	C	08/17/2021	01:02	-134.909	49.545	0	812.90	0	3.3860	0	34.2910	0	27.289	0	804.388	0	14.5	4	4.5	4	-1E+10	1	-1E+10	1	-1E+10	1	-1E+10	1	-1E+10	1	-1E+10	1
4902551	37	C	08/17/2021	01:02	-134.909	49.545	0	818.30	0	3.3730	0	34.2930	0	27.291	0	809.721	0	14.4	4	4.5	4	-1E+10	1	-1E+10	1	-1E+10	1	-1E+10	1	-1E+10	1	-1E+10	1
4902551	37	C	08/17/2021	01:02	-134.909	49.545	0	823.10	0	3.3640	0	34.2950	0	27.294	0	814.461	0	14.3	4	4.5	4	-1E+10	1	-1E+10	1	-1E+10	1	-1E+10	1	-1E+10	1	-1E+10	1
4902551	37	C	08/17/2021	01:02	-134.909	49.545	0	827.90	0	3.3560	0	34.2960	0	27.295	0	819.201	0	14.3	4	4.4	4	-1E+10	1	-1E+10	1	-1E+10	1	-1E+10	1	-1E+10	1	-1E+10	1
4902551	37	C	08/17/2021	01:02	-134.909	49.545	0	832.70	0	3.3450	0	34.2990	0	27.299	0	823.942	0	14.2	4	4.4	4	-1E+10	1	-1E+10	1	-1E+10	1	-1E+10	1	-1E+10	1	-1E+10	1
4902551	37	C	08/17/2021	01:02	-134.909	49.545	0	837.70	0	3.3340	0	34.3020	0	27.302	0	828.879	0	14.1	4	4.4	4	-1E+10	1	-1E+10	1	-1E+10	1	-1E+10	1	-1E+10	1	-1E+10	1
4902551	37	C	08/17/2021	01:02	-134.909	49.545	0	842.70	0	3.3280	0	34.3030	0	27.304	0	833.816	0	14.1	4	4.4	4	-1E+10	1	-1E+10	1	-1E+10	1	-1E+10	1	-1E+10	1	-1E+10	1
4902551	37	C	08/17/2021	01:02	-134.909	49.545	0	847.80	0	3.3240	0	34.3040	0	27.305	0	838.852	0	14.0	4	4.3	4	-1E+10	1	-1E+10	1	-1E+10	1	-1E+10	1	-1E+10	1	-1E+10	1
4902551	37	C	08/17/2021	01:02	-134.909	49.545	0	853.00	0	3.3120	0	34.3070	0	27.309	0	843.987	0	13.9	4	4.3	4	-1E+10	1	-1E+10	1	-1E+10	1	-1E+10	1	-1E+10	1	-1E+10	1
4902551	37	C	08/17/2021	01:02	-134.909	49.545	0	858.20	0	3.2960	0	34.3100	0	27.312	0	849.122	0	13.8	4	4.3	4	-1E+10	1	-1E+10	1	-1E+10	1	-1E+10	1	-1E+10	1	-1E+10	1
4902551	37	C	08/17/2021	01:02	-134.909	49.545	0	863.10	0	3.2850	0	34.3130	0	27.316	0	853.960	0	13.8	4	4.3	4	-1E+10	1	-1E+10	1	-1E+10	1	-1E+10	1	-1E+10	1	-1E+10	1
4902551	37	C	08/17/2021	01:02	-134.909	49.545	0	868.00	0	3.2810	0	34.3140	0	27.317	0	858.798	0	13.8	4	4.3	4	-1E+10	1	-1E+10	1	-1E+10	1	-1E+10	1	-1E+10	1	-1E+10	1
4902551	37	C	08/17/2021	01:02	-134.909	49.545	0	873.00	0	3.2730	0	34.3150	0	27.319	0	863.734	0	13.7	4	4.3	4	-1E+10	1	-1E+10	1	-1E+10	1	-1E+10	1	-1E+10	1	-1E+10	1
4902551	37	C	08/17/2021	01:02	-134.909	49.545	0	878.00	0	3.2590	0	34.3180	0	27.322	0	868.671	0	13.7	4	4.3	4	-1E+10	1	-1E+10	1	-1E+10	1	-1E+10	1	-1E+10	1	-1E+10	1
4902551	37	C	08/17/2021	01:02	-134.909	49.545	0	883.10	0	3.2450	0	34.3200	0	27.325	0	873.706	0	13.7	4	4.2	4	-1E+10	1	-1E+10	1	-1E+10	1	-1E+10	1	-1E+10	1	-1E+10	1
4902551	37	C	08/17/2021	01:02	-134.909	49.545	0	888.10	0	3.2400	0	34.3210	0	27.327	0	878.642	0	13.6	4	4.2	4	-1E+10	1	-1E+10	1	-1E+10	1	-1E+10	1	-1E+10	1	-1E+10	1
4902551	37	C	08/17/2021	01:02	-134.909	49.545	0	893.20	0	3.2350	0	34.3220	0	27.328	0	883.677	0	13.6	4	4.2	4	-1E+10	1	-1E+10	1	-1E+10	1	-1E+10	1	-1E+10	1	-1E+10	1
4902551	37	C	08/17/2021	01:02	-134.909	49.545	0	898.00	0	3.2250	0	34.3240	0	27.330	0	888.416	0	13.6	4	4.2	4	-1E+10	1	-1E+10	1	-1E+10	1	-1E+10	1	-1E+10	1	-1E+10	1
4902551	37	C	08/17/2021	01:02	-134.909	49.545	0	902.90	0	3.2160	0	34.3260	0	27.333	0	893.253	0	13.5	4	4.2	4	-1E+10	1	-1E+10	1	-1E+10	1	-1E+10	1	-1E+10	1	-1E+10	1
4902551	37	C	08/17/2021	01:02	-134.909	49.545	0	907.60	0	3.2140	0	34.3270	0	27.334	0	897.893	0	13.5	4	4.2	4	-1E+10	1	-1E+10	1	-1E+10	1	-1E+10	1	-1E+10	1	-1E+10	1
4902551	37	C	08/17/2021	01:02	-134.909	49.545	0	912.70	0	3.2050	0	34.3290	0	27.336	0	902.927	0	13.4	4	4.2	4	-1E+10	1	-1E+10	1	-1E+10	1	-1E+10	1	-1E+10	1	-1E+10	1
4902551	37	C	08/17/2021	01:02	-134.909	49.545	0	917.70	0	3.1960	0	34.3310	0	27.339	0	907.863	0	13.4	4	4.1	4	-1E+10	1	-1E+10	1	-1E+10	1	-1E+10	1	-1E+10	1	-1E+10	1
4902551	37	C	08/17/2021	01:02	-134.909	49.545	0	922.90	0	3.1890	0	34.3330	0	27.341	0	912.996	0	13.4	4	4.1	4	-1E+10	1	-1E+10	1	-1E+10	1	-1E+10	1	-1E+10	1	-1E+10	1
4902551	37	C	08/17/2021	01:02	-134.909	49.545	0	928.00	0	3.1850	0	34.3340	0	27.342	0	918.030	0	13.3	4	4.1	4	-1E+10	1	-1E+10	1	-1E+10	1	-1E+10	1	-1E+10	1	-1E+10	1
4902551	37	C	08/17/2021	01:02	-134.909	49.545	0	933.10	0	3.1750	0	34.3360	0	27.345	0	923.064	0	13.3	4	4.1	4	-1E+10	1	-1E+10	1	-1E+10	1	-1E+10	1	-1E+10	1	-1E+10	1
4902551	37	C	08/17/2021	01:02	-134.909	49.545	0	938.20	0	3.1620	0	34.3390	0	27.349	0	928.098	0	13.2	4	4.1	4	-1E+10	1	-1E+10	1	-1E+10	1	-1E+10	1	-1E+10	1	-1E+10	1
4902551	37	C	08/17/2021	01:02	-134.909	49.545	0	942.90	0	3.1490	0	34.3410	0	27.351	0	932.737	0	13.2	4	4.1	4	-1E+10	1	-1E+10	1	-1E+10	1	-1E+10	1	-1E+10	1	-1E+10	1
4902551	37	C	08/17/2021	01:02	-134.909	49.545	0	947.50	0	3.1380	0	34.3440	0	27.355	0	937.277	0	13.1	4	4.1	4	-1E+10	1	-1E+10	1	-1E+10	1	-1E+10	1	-1E+10	1	-1E+10	1
4902551	37	C	08/17/2021	01:02	-134.909	49.545	0	952.60	0	3.1250	0	34.3460	0	27.358	0	942.310	0	13.1	4	4.1	4	-1E+10	1	-1E+10	1	-1E+10	1	-1E+10	1	-1E+10	1	-1E+10	1
4902551	37	C	08/17/2021	01:02	-134.909	49.545	0	957.70	0	3.1150	0	34.3480	0	27.360	0	947.344	0	13.0	4	4.0	4	-1E+10	1	-1E+10	1	-1E+10	1	-1E+10	1	-1E+10	1	-1E+10	1
4902551	37	C	08/17/2021	01:02	-134.909	49.545	0	962.80	0	3.0970	0	34.3520	0	27.365	0	952.377	0	13.0	4	4.0	4	-1E+10	1	-1E+10	1	-1E+10	1	-1E+10	1	-1E+10	1	-1E+10	1
4902551	37	C	08/17/2021	01:02	-134.909	49.545	0	968.10	0	3.0840	0	34.3560	0	27.369	0	957.608	0	13.0	4	4.0	4	-1E+10	1	-1E+10	1	-1E+10	1	-1E+10	1	-1E+10	1	-1E+10	1
4902551	37	C	08/17/2021	01:02	-134.909	49.545	0	973.10	0	3.0790	0	34.3570	0	27.371	0	962.542	0	13.0	4	4.0	4	-1E+10	1	-1E+10	1	-1E+10	1	-1E+10	1	-1E+10	1	-1E+10	1
4902551	37	C	08/17/2021	01:02	-134.909	49.545	0	978.00	0	3.0780	0	34.3570	0	27.371	0	967.377	0	13.0	4	4.0	4	-1E+10	1	-1E+10	1	-1E+10	1	-1E+10	1	-1E+10	1	-1E+10	1
4902551	37	C	08/17/2021	01:02	-134.909	49.545	0	983.20	0	3.0740	0	34.3580	0	27.372	0	972.509	0	12.9	4	4.0	4	-1E+10	1	-1E+10	1	-1E+10	1	-1E+10	1	-1E+10	1	-1E+10	1
4902551	37	C	08/17/2021	01:02	-134.909	49.545	0	987.90	0	3.0630	0	34.3610	0	27.375	0	977.147	0	12.9	4	4.0	4	-1E+10	1	-1E+10	1	-1E+10	1	-1E+10	1	-1E+10	1	-1E+10	1
4902551	37	C	08/17/2021	01:02	-134.909	49.545	0	992.70	0	3.0550	0	34.3630	0	27.378	0	981.883	0	12.9	4	4.0	4	-1E+10	1	-1E+10	1	-1E+10	1	-1E+10	1	-1E+10	1	-1E+10	1
4902551	37	C	08/17/2021	01:02	-134.909	49.545	0	997.70	0	3.0480	0	34.3650	0	27.380	0	986.817	0	12.9	4	4.0	4	-1E+10	1	-1E+10	1	-1E+10	1	-1E+10	1	-1E+10	1	-1E+10	1
4902551	37	C	08/17/2021	01:02	-134.909	49.545	0	1005.60	0	3.0320	0	34.3680	0	27.384	0	994.612	0	12.9	4	4.0	4	-1E+10	1	-1E+10	1	-1E+10	1	-1E+10	1	-1E+10	1	-1E+10	1
4902551	37	C	08/17/2021	01:02	-134.909	49.545	0	1015.40	0	3.0190	0	34.3700	0	27.387	0	1004.282	0	12.8	4	4.0	4	-1E+10	1	-1E+10	1	-1E+10	1	-1E+10	1	-1E+10	1	-1E+10	1
4902551	37	C	08/17/2021	01:02	-134.909	49.545	0	1025.40	0	3.0020	0	34.3740	0	27.392	0	1014.148	0	12.8	4	4.0	4	-1E+10	1	-1E+10	1	-1E+10	1	-1E+10	1	-1E+10	1	-1E+10	1
4902551	37	C	08/17/2021	01:02	-134.909	49.545	0	1035.50	0	2.9900	0	34.3770	0	27.395	0	1024.113	0	12.7	4	3.9	4	-1E+10	1	-1E+10	1	-1E+10	1	-1E+10	1	-1E+10	1	-1E+10	1
4902551	37	C	08/17/2021	01:02	-134.909	49.545	0	1045.40	0	2.9830	0	34.3800	0	27.398	0	1033.879	0	12.7	4	3.9	4	-1E+10	1	-1E+10	1	-1E+10	1	-1E+10	1	-1E+10	1	-1E+10	1
4902551	37	C	08/17/2021	01:02	-134.909	49.545	0	1055.20	0	2.9740	0	34.3820	0	27.401	0	1043.547	0	12.6	4	3.9	4	-1E+10	1	-1E+10	1	-1E+10	1	-1E+10	1	-1E+10	1	-1E+10	1
4902551	37	C	08/17/2021	01:02	-134.909	49.545	0	1065.20	0	2.9640	0	34.3850	0	27.404	0	1053.411	0	12.6	4	3.9	4	-1E+10	1	-1E+10	1	-1E+10	1	-1E+10	1	-1E+10	1	-1E+10	1
4902551	37	C	08/17/2021	01:02	-134.909	49.545	0	1075.40	0	2.9490	0	34.3880	0	27.408	0	1063.473	0	12.6	4	3.9	4	-1E+10	1	-1E+10	1	-1E+10	1	-1E+10	1	-1E+10	1	-1E+10	1
4902551	37	C	08/17/2021	01:02	-134.909	49.545	0	1085.60	0	2.9330	0	34.3920	0	27.412	0	1073.533	0	12.6	4	3.9	4	-1E+10	1	-1E+10	1	-1E+10	1	-1E+10	1	-1E+10	1	-1E+10	1
4902551	37	C	08/17/2021	01:02	-134.909	49.545	0	1095.60	0	2.9120	0	34.3960	0	27.418	0	1083.396	0	12.7	4	3.9	4	-1E+10	1	-1E+10	1	-1E+10	1	-1E+10	1	-1E+10	1	-1E+10	1
4902551	37	C	08/17/2021	01:02	-134.909	49.545	0	1105.50	0	2.8980	0	34.3980	0	27.420	0	1093.160	0	12.8	4	3.9	4	-1E+10	1	-1E+10	1	-1E+10	1	-1E+10	1	-1E+10	1	-1E+10	1
4902551	37	C	08/17/2021	01:02	-134.909	49.545	0	1115.60	0	2.8840	0	34.4000	0	27.423	0	1103.121	0	12.8	4	4.0	4	-1E+10	1	-1E+10	1	-1E+10	1	-1E+10	1	-1E+10	1	-1E+10	1
4902551	37	C	08/17/2021	01:02	-134.909	49.545	0	1125.60	0	2.8700	0	34.4030	0	27.427	0	1112.983	0	12.9	4	4.0	4	-1E+10	1	-1E+10	1	-1E+10	1	-1E+10	1	-1E+10	1	-1E+10	1
4902551	37	C	08/17/2021	01:02	-134.909	49.545	0	1135.60	0	2.8550	0	34.4060	0	27.431	0	1122.844	0	13.0	4	4.0	4	-1E+10	1	-1E+10	1	-1E+10	1	-1E+10	1	-1E+10	1	-1E+10	1
4902551	37	C	08/17/2021	01:02	-134.909	49.545	0	1145.60	0	2.8370	0	34.4090	0	27.435	0	1132.705	0	13.0	4	4.0	4	-1E+10	1	-1E+10	1	-1E+10	1	-1E+10	1	-1E+10	1	-1E+10	1
4902551	37	C	08/17/2021	01:02	-134.909	49.545	0	1155.70	0	2.8320	0	34.4110	0	27.437	0	1142.664	0	13.1	4	4.0	4	-1E+10	1	-1E+10	1	-1E+10	1	-1E+10	1	-1E+10	1	-1E+10	1
4902551	37	C	08/17/2021	01:02	-134.909	49.545	0	1165.70	0	2.8200	0	34.4150	0	27.441	0	1152.523	0	13.1	4	4.0	4	-1E+10	1	-1E+10	1	-1E+10	1	-1E+10	1	-1E+10	1	-1E+10	1
4902551	37	C	08/17/2021	01:02	-134.909	49.545	0	1175.40	0	2.8030	0	34.4190	0	27.446	0	1162.087	0	13.3	4	4.1	4	-1E+10	1	-1E+10	1	-1E+10	1	-1E+10	1	-1E+10	1	-1E+10	1
4902551	37	C	08/17/2021	01:02	-134.909	49.545	0	1185.20	0	2.7840	0	34.4230	0	27.451	0	1171.749	0	13.3	4	4.1	4	-1E+10	1	-1E+10	1	-1E+10	1	-1E+10	1	-1E+10	1	-1E+10	1
4902551	37	C	08/17/2021	01:02	-134.909	49.545	0	1195.50	0	2.7770	0	34.4270	0	27.455	0	1181.903	0	13.4	4	4.1	4	-1E+10	1	-1E+10	1	-1E+10	1	-1E+10	1	-1E+10	1	-1E+10	1
4902551	37	C	08/17/2021	01:02	-134.909	49.545	0	1205.40	0	2.7710	0	34.4280	0	27.456	0	1191.662	0	13.5	4	4.2	4	-1E+10	1	-1E+10	1	-1E+10	1	-1E+10	1	-1E+10	1	-1E+10	1
4902551	37	C	08/17/2021	01:02	-134.909	49.545	0	1215.30	0	2.7580	0	34.4310	0	27.460	0	1201.421	0	13.7	4	4.2	4	-1E+10	1	-1E+10	1	-1E+10	1	-1E+10	1	-1E+10	1	-1E+10	1
4902551	37	C	08/17/2021	01:02	-134.909	49.545	0	1225.50	0	2.7460	0	34.4330	0	27.463	0	1211.475	0	13.8	4	4.2	4	-1E+10	1	-1E+10	1	-1E+10	1	-1E+10	1	-1E+10	1	-1E+10	1
4902551	37	C	08/17/2021	01:02	-134.909	49.545	0	1235.50	0	2.7420	0	34.4340	0	27.464	0	1221.332	0	13.9	4	4.3	4	-1E+10	1	-1E+10	1	-1E+10	1	-1E+10	1	-1E+10	1	-1E+10	1
4902551	37	C	08/17/2021	01:02	-134.909	49.545	0	1245.80	0	2.7270	0	34.4360	0	27.467	0	1231.484	0	14.1	4	4.3	4	-1E+10	1	-1E+10	1	-1E+10	1	-1E+10	1	-1E+10	1	-1E+10	1
4902551	37	C	08/17/2021	01:02	-134.909	49.545	0	1255.40	0	2.7040	0	34.4400	0	27.472	0	1240.945	0	14.3	4	4.4	4	-1E+10	1	-1E+10	1	-1E+10	1	-1E+10	1	-1E+10	1	-1E+10	1
4902551	37	C	08/17/2021	01:02	-134.909	49.545	0	1265.40	0	2.6860	0	34.4430	0	27.476	0	1250.800	0	14.5	4	4.4	4	-1E+10	1	-1E+10	1	-1E+10	1	-1E+10	1	-1E+10	1	-1E+10	1
4902551	37	C	08/17/2021	01:02	-134.909	49.545	0	1275.30	0	2.6770	0	34.4450	0	27.478	0	1260.556	0	14.7	4	4.5	4	-1E+10	1	-1E+10	1	-1E+10	1	-1E+10	1	-1E+10	1	-1E+10	1
4902551	37	C	08/17/2021	01:02	-134.909	49.545	0	1285.40	0	2.6630	0	34.4470	0	27.481	0	1270.509	0	15.0	4	4.6	4	-1E+10	1	-1E+10	1	-1E+10	1	-1E+10	1	-1E+10	1	-1E+10	1
4902551	37	C	08/17/2021	01:02	-134.909	49.545	0	1295.40	0	2.6470	0	34.4510	0	27.486	0	1280.363	0	15.2	4	4.7	4	-1E+10	1	-1E+10	1	-1E+10	1	-1E+10	1	-1E+10	1	-1E+10	1
4902551	37	C	08/17/2021	01:02	-134.909	49.545	0	1305.40	0	2.6340	0	34.4530	0	27.489	0	1290.216	0	15.5	4	4.7	4	-1E+10	1	-1E+10	1	-1E+10	1	-1E+10	1	-1E+10	1	-1E+10	1
4902551	37	C	08/17/2021	01:02	-134.909	49.545	0	1315.50	0	2.6180	0	34.4550	0	27.492	0	1300.167	0	15.7	4	4.8	4	-1E+10	1	-1E+10	1	-1E+10	1	-1E+10	1	-1E+10	1	-1E+10	1
4902551	37	C	08/17/2021	01:02	-134.909	49.545	0	1325.30	0	2.6040	0	34.4580	0	27.495	0	1309.823	0	15.9	4	4.9	4	-1E+10	1	-1E+10	1	-1E+10	1	-1E+10	1	-1E+10	1	-1E+10	1
4902551	37	C	08/17/2021	01:02	-134.909	49.545	0	1335.20	0	2.5960	0	34.4600	0	27.498	0	1319.576	0	16.1	4	4.9	4	-1E+10	1	-1E+10	1	-1E+10	1	-1E+10	1	-1E+10	1	-1E+10	1
4902551	37	C	08/17/2021	01:02	-134.909	49.545	0	1345.60	0	2.5850	0	34.4620	0	27.500	0	1329.822	0	16.3	4	5.0	4	-1E+10	1	-1E+10	1	-1E+10	1	-1E+10	1	-1E+10	1	-1E+10	1
4902551	37	C	08/17/2021	01:02	-134.909	49.545	0	1355.40	0	2.5770	0	34.4630	0	27.502	0	1339.476	0	16.6	4	5.1	4	-1E+10	1	-1E+10	1	-1E+10	1	-1E+10	1	-1E+10	1	-1E+10	1
4902551	37	C	08/17/2021	01:02	-134.909	49.545	0	1365.40	0	2.5690	0	34.4650	0	27.504	0	1349.326	0	16.8	4	5.1	4	-1E+10	1	-1E+10	1	-1E+10	1	-1E+10	1	-1E+10	1	-1E+10	1
4902551	37	C	08/17/2021	01:02	-134.909	49.545	0	1375.40	0	2.5620	0	34.4660	0	27.506	0	1359.176	0	17.1	4	5.2	4	-1E+10	1	-1E+10	1	-1E+10	1	-1E+10	1	-1E+10	1	-1E+10	1
4902551	37	C	08/17/2021	01:02	-134.909	49.545	0	1385.40	0	2.5500	0	34.4690	0	27.509	0	1369.026	0	17.4	4	5.3	4	-1E+10	1	-1E+10	1	-1E+10	1	-1E+10	1	-1E+10	1	-1E+10	1
4902551	37	C	08/17/2021	01:02	-134.909	49.545	0	1395.30	0	2.5430	0	34.4710	0	27.511	0	1378.777	0	17.7	4	5.4	4	-1E+10	1	-1E+10	1	-1E+10	1	-1E+10	1	-1E+10	1	-1E+10	1
4902551	37	C	08/17/2021	01:02	-134.909	49.545	0	1405.20	0	2.5340	0	34.4730	0	27.514	0	1388.527	0	18.0	4	5.5	4	-1E+10	1	-1E+10	1	-1E+10	1	-1E+10	1	-1E+10	1	-1E+10	1
4902551	37	C	08/17/2021	01:02	-134.909	49.545	0	1415.40	0	2.5230	0	34.4750	0	27.516	0	1398.572	0	18.5	4	5.6	4	-1E+10	1	-1E+10	1	-1E+10	1	-1E+10	1	-1E+10	1	-1E+10	1
4902551	37	C	08/17/2021	01:02	-134.909	49.545	0	1425.40	0	2.5070	0	34.4780	0	27.520	0	1408.420	0	18.9	4	5.8	4	-1E+10	1	-1E+10	1	-1E+10	1	-1E+10	1	-1E+10	1	-1E+10	1
4902551	37	C	08/17/2021	01:02	-134.909	49.545	0	1435.30	0	2.4900	0	34.4810	0	27.524	0	1418.169	0	19.3	4	5.9	4	-1E+10	1	-1E+10	1	-1E+10	1	-1E+10	1	-1E+10	1	-1E+10	1
4902551	37	C	08/17/2021	01:02	-134.909	49.545	0	1445.40	0	2.4690	0	34.4840	0	27.528	0	1428.114	0	19.7	4	6.0	4	-1E+10	1	-1E+10	1	-1E+10	1	-1E+10	1	-1E+10	1	-1E+10	1
4902551	37	C	08/17/2021	01:02	-134.909	49.545	0	1455.50	0	2.4470	0	34.4860	0	27.532	0	1438.059	0	19.9	4	6.0	4	-1E+10	1	-1E+10	1	-1E+10	1	-1E+10	1	-1E+10	1	-1E+10	1
4902551	37	C	08/17/2021	01:02	-134.909	49.545	0	1465.20	0	2.4330	0	34.4890	0	27.535	0	1447.609	0	20.4	4	6.2	4	-1E+10	1	-1E+10	1	-1E+10	1	-1E+10	1	-1E+10	1	-1E+10	1
4902551	37	C	08/17/2021	01:02	-134.909	49.545	0	1475.50	0	2.4150	0	34.4910	0	27.538	0	1457.750	0	20.4	4	6.2	4	-1E+10	1	-1E+10	1	-1E+10	1	-1E+10	1	-1E+10	1	-1E+10	1
4902551	37	C	08/17/2021	01:02	-134.909	49.545	0	1485.80	0	2.3930	0	34.4930	0	27.542	0	1467.890	0	20.9	4	6.4	4	-1E+10	1	-1E+10	1	-1E+10	1	-1E+10	1	-1E+10	1	-1E+10	1
4902551	37	C	08/17/2021	01:02	-134.909	49.545	0	1495.70	0	2.3850	0	34.4950	0	27.544	0	1477.636	0	21.6	4	6.6	4	-1E+10	1	-1E+10	1	-1E+10	1	-1E+10	1	-1E+10	1	-1E+10	1
4902551	37	C	08/17/2021	01:02	-134.909	49.545	0	1505.30	0	2.3800	0	34.4970	0	27.546	0	1487.087	0	22.7	4	6.9	4	-1E+10	1	-1E+10	1	-1E+10	1	-1E+10	1	-1E+10	1	-1E+10	1
4902551	37	C	08/17/2021	01:02	-134.909	49.545	0	1515.00	0	2.3780	0	34.5010	0	27.550	0	1496.635	0	23.6	4	7.2	4	-1E+10	1	-1E+10	1	-1E+10	1	-1E+10	1	-1E+10	1	-1E+10	1
4902551	37	C	08/17/2021	01:02	-134.909	49.545	0	1525.50	0	2.3560	0	34.5050	0	27.555	0	1506.970	0	24.4	4	7.4	4	-1E+10	1	-1E+10	1	-1E+10	1	-1E+10	1	-1E+10	1	-1E+10	1
4902551	37	C	08/17/2021	01:02	-134.909	49.545	0	1535.60	0	2.3360	0	34.5080	0	27.559	0	1516.912	0	25.2	4	7.7	4	-1E+10	1	-1E+10	1	-1E+10	1	-1E+10	1	-1E+10	1	-1E+10	1
4902551	37	C	08/17/2021	01:02	-134.909	49.545	0	1545.40	0	2.3160	0	34.5120	0	27.564	0	1526.557	0	25.9	4	7.9	4	-1E+10	1	-1E+10	1	-1E+10	1	-1E+10	1	-1E+10	1	-1E+10	1
4902551	37	C	08/17/2021	01:02	-134.909	49.545	0	1555.30	0	2.3070	0	34.5130	0	27.565	0	1536.300	0	26.4	4	8.0	4	-1E+10	1	-1E+10	1	-1E+10	1	-1E+10	1	-1E+10	1	-1E+10	1
4902551	37	C	08/17/2021	01:02	-134.909	49.545	0	1565.30	0	2.2980	0	34.5150	0	27.568	0	1546.142	0	26.9	4	8.2	4	-1E+10	1	-1E+10	1	-1E+10	1	-1E+10	1	-1E+10	1	-1E+10	1
4902551	37	C	08/17/2021	01:02	-134.909	49.545	0	1575.10	0	2.2900	0	34.5170	0	27.570	0	1555.786	0	27.5	4	8.3	4	-1E+10	1	-1E+10	1	-1E+10	1	-1E+10	1	-1E+10	1	-1E+10	1
4902551	37	C	08/17/2021	01:02	-134.909	49.545	0	1585.10	0	2.2770	0	34.5190	0	27.573	0	1565.626	0	28.1	4	8.5	4	-1E+10	1	-1E+10	1	-1E+10	1	-1E+10	1	-1E+10	1	-1E+10	1
4902551	37	C	08/17/2021	01:02	-134.909	49.545	0	1595.40	0	2.2630	0	34.5220	0	27.576	0	1575.761	0	28.7	4	8.7	4	-1E+10	1	-1E+10	1	-1E+10	1	-1E+10	1	-1E+10	1	-1E+10	1
4902551	37	C	08/17/2021	01:02	-134.909	49.545	0	1605.30	0	2.2470	0	34.5240	0	27.579	0	1585.502	0	29.0	4	8.8	4	-1E+10	1	-1E+10	1	-1E+10	1	-1E+10	1	-1E+10	1	-1E+10	1
4902551	37	C	08/17/2021	01:02	-134.909	49.545	0	1615.40	0	2.2370	0	34.5250	0	27.581	0	1595.440	0	29.4	4	8.9	4	-1E+10	1	-1E+10	1	-1E+10	1	-1E+10	1	-1E+10	1	-1E+10	1
4902551	37	C	08/17/2021	01:02	-134.909	49.545	0	1626.00	0	2.2300	0	34.5260	0	27.582	0	1605.869	0	29.9	4	9.1	4	-1E+10	1	-1E+10	1	-1E+10	1	-1E+10	1	-1E+10	1	-1E+10	1
4902551	37	C	08/17/2021	01:02	-134.909	49.545	0	1635.60	0	2.2210	0	34.5280	0	27.585	0	1615.313	0	30.4	4	9.2	4	-1E+10	1	-1E+10	1	-1E+10	1	-1E+10	1	-1E+10	1	-1E+10	1
4902551	37	C	08/17/2021	01:02	-134.909	49.545	0	1645.40	0	2.2130	0	34.5300	0	27.587	0	1624.954	0	30.8	4	9.3	4	-1E+10	1	-1E+10	1	-1E+10	1	-1E+10	1	-1E+10	1	-1E+10	1
4902551	37	C	08/17/2021	01:02	-134.909	49.545	0	1655.50	0	2.2070	0	34.5310	0	27.588	0	1634.890	0	31.4	4	9.5	4	-1E+10	1	-1E+10	1	-1E+10	1	-1E+10	1	-1E+10	1	-1E+10	1
4902551	37	C	08/17/2021	01:02	-134.909	49.545	0	1665.80	0	2.2000	0	34.5320	0	27.590	0	1645.021	0	32.0	4	9.7	4	-1E+10	1	-1E+10	1	-1E+10	1	-1E+10	1	-1E+10	1	-1E+10	1
4902551	37	C	08/17/2021	01:02	-134.909	49.545	0	1675.50	0	2.1930	0	34.5340	0	27.592	0	1654.563	0	32.6	4	9.9	4	-1E+10	1	-1E+10	1	-1E+10	1	-1E+10	1	-1E+10	1	-1E+10	1
4902551	37	C	08/17/2021	01:02	-134.909	49.545	0	1685.40	0	2.1860	0	34.5360	0	27.594	0	1664.300	0	33.1	4	10.0	4	-1E+10	1	-1E+10	1	-1E+10	1	-1E+10	1	-1E+10	1	-1E+10	1
4902551	37	C	08/17/2021	01:02	-134.909	49.545	0	1695.70	0	2.1770	0	34.5370	0	27.596	0	1674.430	0	33.7	4	10.2	4	-1E+10	1	-1E+10	1	-1E+10	1	-1E+10	1	-1E+10	1	-1E+10	1
4902551	37	C	08/17/2021	01:02	-134.909	49.545	0	1705.60	0	2.1700	0	34.5390	0	27.598	0	1684.167	0	34.2	4	10.3	4	-1E+10	1	-1E+10	1	-1E+10	1	-1E+10	1	-1E+10	1	-1E+10	1
4902551	37	C	08/17/2021	01:02	-134.909	49.545	0	1715.20	0	2.1610	0	34.5410	0	27.600	0	1693.608	0	34.7	4	10.5	4	-1E+10	1	-1E+10	1	-1E+10	1	-1E+10	1	-1E+10	1	-1E+10	1
4902551	37	C	08/17/2021	01:02	-134.909	49.545	0	1725.30	0	2.1540	0	34.5420	0	27.602	0	1703.540	0	35.3	4	10.7	4	-1E+10	1	-1E+10	1	-1E+10	1	-1E+10	1	-1E+10	1	-1E+10	1
4902551	37	C	08/17/2021	01:02	-134.909	49.545	0	1735.60	0	2.1430	0	34.5440	0	27.604	0	1713.669	0	36.0	4	10.9	4	-1E+10	1	-1E+10	1	-1E+10	1	-1E+10	1	-1E+10	1	-1E+10	1
4902551	37	C	08/17/2021	01:02	-134.909	49.545	0	1745.30	0	2.1340	0	34.5450	0	27.606	0	1723.207	0	36.5	4	11.0	4	-1E+10	1	-1E+10	1	-1E+10	1	-1E+10	1	-1E+10	1	-1E+10	1
4902551	37	C	08/17/2021	01:02	-134.909	49.545	0	1755.10	0	2.1290	0	34.5470	0	27.608	0	1732.843	0	37.0	4	11.2	4	-1E+10	1	-1E+10	1	-1E+10	1	-1E+10	1	-1E+10	1	-1E+10	1
4902551	37	C	08/17/2021	01:02	-134.909	49.545	0	1765.30	0	2.1200	0	34.5480	0	27.609	0	1742.872	0	37.7	4	11.4	4	-1E+10	1	-1E+10	1	-1E+10	1	-1E+10	1	-1E+10	1	-1E+10	1
4902551	37	C	08/17/2021	01:02	-134.909	49.545	0	1775.60	0	2.1110	0	34.5500	0	27.612	0	1752.998	0	38.4	4	11.6	4	-1E+10	1	-1E+10	1	-1E+10	1	-1E+10	1	-1E+10	1	-1E+10	1
4902551	37	C	08/17/2021	01:02	-134.909	49.545	0	1785.50	0	2.1010	0	34.5520	0	27.614	0	1762.731	0	39.2	4	11.9	4	-1E+10	1	-1E+10	1	-1E+10	1	-1E+10	1	-1E+10	1	-1E+10	1
4902551	37	C	08/17/2021	01:02	-134.909	49.545	0	1795.40	0	2.0910	0	34.5540	0	27.617	0	1772.464	0	40.0	4	12.1	4	-1E+10	1	-1E+10	1	-1E+10	1	-1E+10	1	-1E+10	1	-1E+10	1
4902551	37	C	08/17/2021	01:02	-134.909	49.545	0	1805.40	0	2.0810	0	34.5560	0	27.619	0	1782.294	0	40.7	4	12.3	4	-1E+10	1	-1E+10	1	-1E+10	1	-1E+10	1	-1E+10	1	-1E+10	1
4902551	37	C	08/17/2021	01:02	-134.909	49.545	0	1815.50	0	2.0710	0	34.5590	0	27.622	0	1792.222	0	41.3	4	12.5	4	-1E+10	1	-1E+10	1	-1E+10	1	-1E+10	1	-1E+10	1	-1E+10	1
4902551	37	C	08/17/2021	01:02	-134.909	49.545	0	1825.70	0	2.0650	0	34.5600	0	27.624	0	1802.248	0	42.0	4	12.7	4	-1E+10	1	-1E+10	1	-1E+10	1	-1E+10	1	-1E+10	1	-1E+10	1
4902551	37	C	08/17/2021	01:02	-134.909	49.545	0	1835.50	0	2.0530	0	34.5620	0	27.626	0	1811.880	0	42.7	4	12.9	4	-1E+10	1	-1E+10	1	-1E+10	1	-1E+10	1	-1E+10	1	-1E+10	1
4902551	37	C	08/17/2021	01:02	-134.909	49.545	0	1845.40	0	2.0460	0	34.5640	0	27.629	0	1821.611	0	43.2	4	13.0	4	-1E+10	1	-1E+10	1	-1E+10	1	-1E+10	1	-1E+10	1	-1E+10	1
4902551	37	C	08/17/2021	01:02	-134.909	49.545	0	1855.90	0	2.0370	0	34.5660	0	27.631	0	1831.930	0	43.8	4	13.2	4	-1E+10	1	-1E+10	1	-1E+10	1	-1E+10	1	-1E+10	1	-1E+10	1
4902551	37	C	08/17/2021	01:02	-134.909	49.545	0	1865.40	0	2.0330	0	34.5670	0	27.632	0	1841.266	0	44.1	4	13.3	4	-1E+10	1	-1E+10	1	-1E+10	1	-1E+10	1	-1E+10	1	-1E+10	1
4902551	37	C	08/17/2021	01:02	-134.909	49.545	0	1875.40	0	2.0280	0	34.5680	0	27.633	0	1851.093	0	44.6	4	13.5	4	-1E+10	1	-1E+10	1	-1E+10	1	-1E+10	1	-1E+10	1	-1E+10	1
4902551	37	C	08/17/2021	01:02	-134.909	49.545	0	1885.50	0	2.0240	0	34.5690	0	27.634	0	1861.018	0	45.2	4	13.6	4	-1E+10	1	-1E+10	1	-1E+10	1	-1E+10	1	-1E+10	1	-1E+10	1
4902551	37	C	08/17/2021	01:02	-134.909	49.545	0	1895.60	0	2.0160	0	34.5700	0	27.636	0	1870.943	0	45.8	4	13.8	4	-1E+10	1	-1E+10	1	-1E+10	1	-1E+10	1	-1E+10	1	-1E+10	1
4902551	37	C	08/17/2021	01:02	-134.909	49.545	0	1905.50	0	2.0100	0	34.5710	0	27.637	0	1880.670	0	46.5	4	14.0	4	-1E+10	1	-1E+10	1	-1E+10	1	-1E+10	1	-1E+10	1	-1E+10	1
4902551	37	C	08/17/2021	01:02	-134.909	49.545	0	1915.20	0	2.0030	0	34.5730	0	27.639	0	1890.201	0	47.1	4	14.2	4	-1E+10	1	-1E+10	1	-1E+10	1	-1E+10	1	-1E+10	1	-1E+10	1
4902551	37	C	08/17/2021	01:02	-134.909	49.545	0	1925.20	0	1.9950	0	34.5740	0	27.641	0	1900.026	0	47.8	4	14.4	4	-1E+10	1	-1E+10	1	-1E+10	1	-1E+10	1	-1E+10	1	-1E+10	1
4902551	37	C	08/17/2021	01:02	-134.909	49.545	0	1935.50	0	1.9880	0	34.5760	0	27.643	0	1910.145	0	48.3	4	14.6	4	-1E+10	1	-1E+10	1	-1E+10	1	-1E+10	1	-1E+10	1	-1E+10	1
4902551	37	C	08/17/2021	01:02	-134.909	49.545	0	1945.60	0	1.9840	0	34.5770	0	27.644	0	1920.067	0	48.9	4	14.7	4	-1E+10	1	-1E+10	1	-1E+10	1	-1E+10	1	-1E+10	1	-1E+10	1
4902551	37	C	08/17/2021	01:02	-134.909	49.545	0	1955.50	0	1.9750	0	34.5780	0	27.646	0	1929.792	0	49.4	4	14.9	4	-1E+10	1	-1E+10	1	-1E+10	1	-1E+10	1	-1E+10	1	-1E+10	1
4902551	37	C	08/17/2021	01:02	-134.909	49.545	0	1965.60	0	1.9710	0	34.5790	0	27.647	0	1939.714	0	49.8	4	15.0	4	-1E+10	1	-1E+10	1	-1E+10	1	-1E+10	1	-1E+10	1	-1E+10	1
4902551	37	C	08/17/2021	01:02	-134.909	49.545	0	1975.40	0	1.9670	0	34.5800	0	27.648	0	1949.340	0	50.2	4	15.1	4	-1E+10	1	-1E+10	1	-1E+10	1	-1E+10	1	-1E+10	1	-1E+10	1
4902551	37	C	08/17/2021	01:02	-134.909	49.545	0	1985.40	0	1.9630	0	34.5810	0	27.649	0	1959.162	0	50.6	4	15.2	4	-1E+10	1	-1E+10	1	-1E+10	1	-1E+10	1	-1E+10	1	-1E+10	1
4902551	37	C	08/17/2021	01:02	-134.909	49.545	0	1995.40	0	1.9600	0	34.5820	0	27.650	0	1968.984	0	51.1	4	15.4	4	-1E+10	1	-1E+10	1	-1E+10	1	-1E+10	1	-1E+10	1	-1E+10	1
4902551	37	C	08/17/2021	01:02	-134.909	49.545	0	2005.30	0	1.9520	0	34.5830	0	27.652	0	1978.707	0	51.5	4	15.5	4	-1E+10	1	-1E+10	1	-1E+10	1	-1E+10	1	-1E+10	1	-1E+10	1
4902551	37	C	08/17/2021	01:02	-134.909	49.545	0	2014.00	0	1.9490	0	34.5840	0	27.653	0	1987.251	0	51.5	4	15.5	4	-1E+10	1	-1E+10	1	-1E+10	1	-1E+10	1	-1E+10	1	-1E+10	1
4902551	37	C	08/17/2021	01:02	-134.909	49.545	0																										
4902551	38	C	08/27/2021	06:10	-134.898	49.546	0	0.40	0	15.8270	0	32.2220	0	23.651	0	0.397	0	243.7	4	98.1	4	-1E+10	1	-1E+10	1	-1E+10	1	-1E+10	1	-1E+10	1	-1E+10	1
4902551	38	C	08/27/2021	06:10	-134.898	49.546	0	1.20	0	15.8360	0	32.2170	0	23.645	0	1.190	0	243.7	4	98.1	4	-1E+10	1	-1E+10	1	-1E+10	1	-1E+10	1	-1E+10	1	-1E+10	1
4902551	38	C	08/27/2021	06:10	-134.898	49.546	0	1.90	0	15.8360	0	32.2180	0	23.646	0	1.884	0	243.7	4	98.1	4	-1E+10	1	-1E+10	1	-1E+10	1	-1E+10	1	-1E+10	1	-1E+10	1
4902551	38	C	08/27/2021	06:10	-134.898	49.546	0	3.00	0	15.8360	0	32.2190	0	23.647	0	2.974	0	243.8	4	98.1	4	-1E+10	1	-1E+10	1	-1E+10	1	-1E+10	1	-1E+10	1	-1E+10	1
4902551	38	C	08/27/2021	06:10	-134.898	49.546	0	4.10	0	15.8350	0	32.2210	0	23.649	0	4.065	0	243.8	4	98.1	4	-1E+10	1	-1E+10	1	-1E+10	1	-1E+10	1	-1E+10	1	-1E+10	1
4902551	38	C	08/27/2021	06:10	-134.898	49.546	0	5.10	0	15.8330	0	32.2230	0	23.651	0	5.056	0	243.8	4	98.1	4	-1E+10	1	-1E+10	1	-1E+10	1	-1E+10	1	-1E+10	1	-1E+10	1
4902551	38	C	08/27/2021	06:10	-134.898	49.546	0	6.10	0	15.8330	0	32.2230	0	23.651	0	6.048	0	243.9	4	98.1	4	-1E+10	1	-1E+10	1	-1E+10	1	-1E+10	1	-1E+10	1	-1E+10	1
4902551	38	C	08/27/2021	06:10	-134.898	49.546	0	7.20	0	15.8360	0	32.2230	0	23.650	0	7.138	0	244.0	4	98.2	4	-1E+10	1	-1E+10	1	-1E+10	1	-1E+10	1	-1E+10	1	-1E+10	1
4902551	38	C	08/27/2021	06:10	-134.898	49.546	0	7.90	0	15.8360	0	32.2230	0	23.650	0	7.832	0	244.0	4	98.2	4	-1E+10	1	-1E+10	1	-1E+10	1	-1E+10	1	-1E+10	1	-1E+10	1
4902551	38	C	08/27/2021	06:10	-134.898	49.546	0	9.00	0	15.8380	0	32.2230	0	23.650	0	8.923	0	244.2	4	98.3	4	-1E+10	1	-1E+10	1	-1E+10	1	-1E+10	1	-1E+10	1	-1E+10	1
4902551	38	C	08/27/2021	06:10	-134.898	49.546	0	10.00	0	15.8370	0	32.2230	0	23.650	0	9.914	0	244.3	4	98.3	4	-1E+10	1	-1E+10	1	-1E+10	1	-1E+10	1	-1E+10	1	-1E+10	1
4902551	38	C	08/27/2021	06:10	-134.898	49.546	0	11.00	0	15.8360	0	32.2230	0	23.650	0	10.906	0	244.5	4	98.4	4	-1E+10	1	-1E+10	1	-1E+10	1	-1E+10	1	-1E+10	1	-1E+10	1
4902551	38	C	08/27/2021	06:10	-134.898	49.546	0	12.10	0	15.8370	0	32.2230	0	23.650	0	11.996	0	244.8	4	98.5	4	-1E+10	1	-1E+10	1	-1E+10	1	-1E+10	1	-1E+10	1	-1E+10	1
4902551	38	C	08/27/2021	06:10	-134.898	49.546	0	13.10	0	15.8390	0	32.2240	0	23.651	0	12.988	0	245.0	4	98.6	4	-1E+10	1	-1E+10	1	-1E+10	1	-1E+10	1	-1E+10	1	-1E+10	1
4902551	38	C	08/27/2021	06:10	-134.898	49.546	0	13.80	0	15.8390	0	32.2240	0	23.651	0	13.682	0	245.1	4	98.6	4	-1E+10	1	-1E+10	1	-1E+10	1	-1E+10	1	-1E+10	1	-1E+10	1
4902551	38	C	08/27/2021	06:10	-134.898	49.546	0	14.80	0	15.8390	0	32.2230	0	23.650	0	14.673	0	245.5	4	98.8	4	-1E+10	1	-1E+10	1	-1E+10	1	-1E+10	1	-1E+10	1	-1E+10	1
4902551	38	C	08/27/2021	06:10	-134.898	49.546	0	15.90	0	15.8400	0	32.2240	0	23.650	0	15.764	0	245.9	4	99.0	4	-1E+10	1	-1E+10	1	-1E+10	1	-1E+10	1	-1E+10	1	-1E+10	1
4902551	38	C	08/27/2021	06:10	-134.898	49.546	0	17.00	0	15.8390	0	32.2230	0	23.650	0	16.854	0	246.4	4	99.2	4	-1E+10	1	-1E+10	1	-1E+10	1	-1E+10	1	-1E+10	1	-1E+10	1
4902551	38	C	08/27/2021	06:10	-134.898	49.546	0	18.10	0	15.8400	0	32.2210	0	23.648	0	17.945	0	246.7	4	99.3	4	-1E+10	1	-1E+10	1	-1E+10	1	-1E+10	1	-1E+10	1	-1E+10	1
4902551	38	C	08/27/2021	06:10	-134.898	49.546	0	18.80	0	15.8390	0	32.2260	0	23.652	0	18.639	0	247.2	4	99.5	4	-1E+10	1	-1E+10	1	-1E+10	1	-1E+10	1	-1E+10	1	-1E+10	1
4902551	38	C	08/27/2021	06:10	-134.898	49.546	0	19.80	0	15.8380	0	32.2250	0	23.652	0	19.630	0	248.1	4	99.8	4	-1E+10	1	-1E+10	1	-1E+10	1	-1E+10	1	-1E+10	1	-1E+10	1
4902551	38	C	08/27/2021	06:10	-134.898	49.546	0	21.00	0	15.8370	0	32.2270	0	23.654	0	20.820	0	248.8	4	100.2	4	-1E+10	1	-1E+10	1	-1E+10	1	-1E+10	1	-1E+10	1	-1E+10	1
4902551	38	C	08/27/2021	06:10	-134.898	49.546	0	21.80	0	15.8390	0	32.2260	0	23.652	0	21.613	0	249.6	4	100.5	4	-1E+10	1	-1E+10	1	-1E+10	1	-1E+10	1	-1E+10	1	-1E+10	1
4902551	38	C	08/27/2021	06:10	-134.898	49.546	0	22.90	0	15.8370	0	32.2260	0	23.653	0	22.703	0	250.8	4	100.9	4	-1E+10	1	-1E+10	1	-1E+10	1	-1E+10	1	-1E+10	1	-1E+10	1
4902551	38	C	08/27/2021	06:10	-134.898	49.546	0	24.00	0	15.8360	0	32.2200	0	23.649	0	23.794	0	252.2	4	101.5	4	-1E+10	1	-1E+10	1	-1E+10	1	-1E+10	1	-1E+10	1	-1E+10	1
4902551	38	C	08/27/2021	06:10	-134.898	49.546	0	24.80	0	15.8350	0	32.2250	0	23.653	0	24.587	0	253.2	4	101.9	4	-1E+10	1	-1E+10	1	-1E+10	1	-1E+10	1	-1E+10	1	-1E+10	1
4902551	38	C	08/27/2021	06:10	-134.898	49.546	0	25.80	0	15.8360	0	32.2240	0	23.652	0	25.578	0	255.1	4	102.7	4	-1E+10	1	-1E+10	1	-1E+10	1	-1E+10	1	-1E+10	1	-1E+10	1
4902551	38	C	08/27/2021	06:10	-134.898	49.546	0	27.10	0	15.8390	0	32.2240	0	23.651	0	26.867	0	257.9	4	103.8	4	-1E+10	1	-1E+10	1	-1E+10	1	-1E+10	1	-1E+10	1	-1E+10	1
4902551	38	C	08/27/2021	06:10	-134.898	49.546	0	28.00	0	15.8410	0	32.2220	0	23.649	0	27.759	0	260.3	4	104.7	4	-1E+10	1	-1E+10	1	-1E+10	1	-1E+10	1	-1E+10	1	-1E+10	1
4902551	38	C	08/27/2021	06:10	-134.898	49.546	0	29.10	0	15.7040	0	32.2130	0	23.673	0	28.850	0	266.5	4	107.0	4	-1E+10	1	-1E+10	1	-1E+10	1	-1E+10	1	-1E+10	1	-1E+10	1
4902551	38	C	08/27/2021	06:10	-134.898	49.546	0	30.00	0	14.9530	0	32.2440	0	23.860	0	29.742	0	277.0	4	109.6	4	-1E+10	1	-1E+10	1	-1E+10	1	-1E+10	1	-1E+10	1	-1E+10	1
4902551	38	C	08/27/2021	06:10	-134.898	49.546	0	31.00	0	12.5310	0	32.3060	0	24.399	0	30.733	0	289.9	4	109.3	4	-1E+10	1	-1E+10	1	-1E+10	1	-1E+10	1	-1E+10	1	-1E+10	1
4902551	38	C	08/27/2021	06:10	-134.898	49.546	0	31.90	0	11.1130	0	32.3260	0	24.675	0	31.625	0	290.5	4	106.3	4	-1E+10	1	-1E+10	1	-1E+10	1	-1E+10	1	-1E+10	1	-1E+10	1
4902551	38	C	08/27/2021	06:10	-134.898	49.546	0	33.10	0	10.5170	0	32.3330	0	24.784	0	32.815	0	289.4	4	104.6	4	-1E+10	1	-1E+10	1	-1E+10	1	-1E+10	1	-1E+10	1	-1E+10	1
4902551	38	C	08/27/2021	06:10	-134.898	49.546	0	34.00	0	10.1690	0	32.3320	0	24.842	0	33.707	0	288.5	4	103.5	4	-1E+10	1	-1E+10	1	-1E+10	1	-1E+10	1	-1E+10	1	-1E+10	1
4902551	38	C	08/27/2021	06:10	-134.898	49.546	0	35.10	0	9.6750	0	32.3500	0	24.938	0	34.798	0	288.7	4	102.4	4	-1E+10	1	-1E+10	1	-1E+10	1	-1E+10	1	-1E+10	1	-1E+10	1
4902551	38	C	08/27/2021	06:10	-134.898	49.546	0	36.10	0	9.3000	0	32.3620	0	25.007	0	35.789	0	287.5	4	101.2	4	-1E+10	1	-1E+10	1	-1E+10	1	-1E+10	1	-1E+10	1	-1E+10	1
4902551	38	C	08/27/2021	06:10	-134.898	49.546	0	36.90	0	9.2430	0	32.3660	0	25.019	0	36.582	0	286.8	4	100.8	4	-1E+10	1	-1E+10	1	-1E+10	1	-1E+10	1	-1E+10	1	-1E+10	1
4902551	38	C	08/27/2021	06:10	-134.898	49.546	0	37.90	0	9.0260	0	32.3650	0	25.052	0	37.573	0	286.2	4	100.1	4	-1E+10	1	-1E+10	1	-1E+10	1	-1E+10	1	-1E+10	1	-1E+10	1
4902551	38	C	08/27/2021	06:10	-134.898	49.546	0	38.90	0	8.9190	0	32.3760	0	25.077	0	38.564	0	285.5	4	99.6	4	-1E+10	1	-1E+10	1	-1E+10	1	-1E+10	1	-1E+10	1	-1E+10	1
4902551	38	C	08/27/2021	06:10	-134.898	49.546	0	40.10	0	8.7050	0	32.3770	0	25.111	0	39.754	0	285.4	4	99.1	4	-1E+10	1	-1E+10	1	-1E+10	1	-1E+10	1	-1E+10	1	-1E+10	1
4902551	38	C	08/27/2021	06:10	-134.898	49.546	0	40.90	0	8.6050	0	32.3770	0	25.126	0	40.547	0	285.2	4	98.8	4	-1E+10	1	-1E+10	1	-1E+10	1	-1E+10	1	-1E+10	1	-1E+10	1
4902551	38	C	08/27/2021	06:10	-134.898	49.546	0	41.70	0	8.5420	0	32.3780	0	25.136	0	41.340	0	284.9	4	98.6	4	-1E+10	1	-1E+10	1	-1E+10	1	-1E+10	1	-1E+10	1	-1E+10	1
4902551	38	C	08/27/2021	06:10	-134.898	49.546	0	42.80	0	8.4690	0	32.3790	0	25.148	0	42.430	0	284.5	4	98.3	4	-1E+10	1	-1E+10	1	-1E+10	1	-1E+10	1	-1E+10	1	-1E+10	1
4902551	38	C	08/27/2021	06:10	-134.898	49.546	0	43.80	0	8.4150	0	32.3810	0	25.158	0	43.422	0	284.0	4	98.0	4	-1E+10	1	-1E+10	1	-1E+10	1	-1E+10	1	-1E+10	1	-1E+10	1
4902551	38	C	08/27/2021	06:10	-134.898	49.546	0	44.90	0	8.3190	0	32.3820	0	25.173	0	44.512	0	283.7	4	97.7	4	-1E+10	1	-1E+10	1	-1E+10	1	-1E+10	1	-1E+10	1	-1E+10	1
4902551	38	C	08/27/2021	06:10	-134.898	49.546	0	45.90	0	8.2050	0	32.3880	0	25.194	0	45.503	0	283.4	4	97.4	4	-1E+10	1	-1E+10	1	-1E+10	1	-1E+10	1	-1E+10	1	-1E+10	1
4902551	38	C	08/27/2021	06:10	-134.898	49.546	0	46.90	0	8.1380	0	32.3930	0	25.208	0	46.495	0	282.7	4	97.0	4	-1E+10	1	-1E+10	1	-1E+10	1	-1E+10	1	-1E+10	1	-1E+10	1
4902551	38	C	08/27/2021	06:10	-134.898	49.546	0	48.00	0	8.0830	0	32.3900	0	25.214	0	47.585	0	282.0	4	96.6	4	-1E+10	1	-1E+10	1	-1E+10	1	-1E+10	1	-1E+10	1	-1E+10	1
4902551	38	C	08/27/2021	06:10	-134.898	49.546	0	49.00	0	8.0540	0	32.3940	0	25.221	0	48.576	0	281.1	4	96.2	4	-1E+10	1	-1E+10	1	-1E+10	1	-1E+10	1	-1E+10	1	-1E+10	1
4902551	38	C	08/27/2021	06:10	-134.898	49.546	0	50.00	0	8.0220	0	32.3900	0	25.222	0	49.567	0	280.1	4	95.8	4	-1E+10	1	-1E+10	1	-1E+10	1	-1E+10	1	-1E+10	1	-1E+10	1
4902551	38	C	08/27/2021	06:10	-134.898	49.546	0	50.90	0	8.0150	0	32.3870	0	25.221	0	50.460	0	278.9	4	95.4	4	-1E+10	1	-1E+10	1	-1E+10	1	-1E+10	1	-1E+10	1	-1E+10	1
4902551	38	C	08/27/2021	06:10	-134.898	49.546	0	51.90	0	7.8550	0	32.3920	0	25.248	0	51.451	0	278.3	4	94.9	4	-1E+10	1	-1E+10	1	-1E+10	1	-1E+10	1	-1E+10	1	-1E+10	1
4902551	38	C	08/27/2021	06:10	-134.898	49.546	0	52.90	0	7.7010	0	32.3990	0	25.275	0	52.442	0	277.8	4	94.4	4	-1E+10	1	-1E+10	1	-1E+10	1	-1E+10	1	-1E+10	1	-1E+10	1
4902551	38	C	08/27/2021	06:10	-134.898	49.546	0	53.90	0	7.5730	0	32.4010	0	25.295	0	53.433	0	277.6	4	94.0	4	-1E+10	1	-1E+10	1	-1E+10	1	-1E+10	1	-1E+10	1	-1E+10	1
4902551	38	C	08/27/2021	06:10	-134.898	49.546	0	55.10	0	7.5510	0	32.4010	0	25.298	0	54.623	0	276.9	4	93.8	4	-1E+10	1	-1E+10	1	-1E+10	1	-1E+10	1	-1E+10	1	-1E+10	1
4902551	38	C	08/27/2021	06:10	-134.898	49.546	0	56.10	0	7.5080	0	32.4020	0	25.305	0	55.614	0	276.2	4	93.4	4	-1E+10	1	-1E+10	1	-1E+10	1	-1E+10	1	-1E+10	1	-1E+10	1
4902551	38	C	08/27/2021	06:10	-134.898	49.546	0	57.10	0	7.4290	0	32.4020	0	25.316	0	56.605	0	276.1	4	93.2	4	-1E+10	1	-1E+10	1	-1E+10	1	-1E+10	1	-1E+10	1	-1E+10	1
4902551	38	C	08/27/2021	06:10	-134.898	49.546	0	58.00	0	7.3690	0	32.4080	0	25.329	0	57.497	0	276.2	4	93.1	4	-1E+10	1	-1E+10	1	-1E+10	1	-1E+10	1	-1E+10	1	-1E+10	1
4902551	38	C	08/27/2021	06:10	-134.898	49.546	0	59.00	0	7.3430	0	32.4090	0	25.333	0	58.488	0	276.2	4	93.1	4	-1E+10	1	-1E+10	1	-1E+10	1	-1E+10	1	-1E+10	1	-1E+10	1
4902551	38	C	08/27/2021	06:10	-134.898	49.546	0	60.20	0	7.3340	0	32.4080	0	25.333	0	59.678	0	276.4	4	93.1	4	-1E+10	1	-1E+10	1	-1E+10	1	-1E+10	1	-1E+10	1	-1E+10	1
4902551	38	C	08/27/2021	06:10	-134.898	49.546	0	61.10	0	7.2790	0	32.4150	0	25.346	0	60.570	0	276.3	4	93.0	4	-1E+10	1	-1E+10	1	-1E+10	1	-1E+10	1	-1E+10	1	-1E+10	1
4902551	38	C	08/27/2021	06:10	-134.898	49.546	0	61.70	0	7.1860	0	32.4270	0	25.368	0	61.164	0	275.6	4	92.6	4	-1E+10	1	-1E+10	1	-1E+10	1	-1E+10	1	-1E+10	1	-1E+10	1
4902551	38	C	08/27/2021	06:10	-134.898	49.546	0	63.10	0	7.1160	0	32.4270	0	25.378	0	62.552	0	275.5	4	92.4	4	-1E+10	1	-1E+10	1	-1E+10	1	-1E+10	1	-1E+10	1	-1E+10	1
4902551	38	C	08/27/2021	06:10	-134.898	49.546	0	64.00	0	7.0530	0	32.4400	0	25.397	0	63.444	0	275.6	4	92.3	4	-1E+10	1	-1E+10	1	-1E+10	1	-1E+10	1	-1E+10	1	-1E+10	1
4902551	38	C	08/27/2021	06:10	-134.898	49.546	0	65.00	0	7.0250	0	32.4310	0	25.393	0	64.435	0	275.6	4	92.2	4	-1E+10	1	-1E+10	1	-1E+10	1	-1E+10	1	-1E+10	1	-1E+10	1
4902551	38	C	08/27/2021	06:10	-134.898	49.546	0	65.90	0	7.0060	0	32.4310	0	25.396	0	65.327	0	275.5	4	92.2	4	-1E+10	1	-1E+10	1	-1E+10	1	-1E+10	1	-1E+10	1	-1E+10	1
4902551	38	C	08/27/2021	06:10	-134.898	49.546	0	67.00	0	6.9960	0	32.4330	0	25.399	0	66.418	0	275.3	4	92.0	4	-1E+10	1	-1E+10	1	-1E+10	1	-1E+10	1	-1E+10	1	-1E+10	1
4902551	38	C	08/27/2021	06:10	-134.898	49.546	0	68.00	0	6.9900	0	32.4320	0	25.399	0	67.409	0	274.8	4	91.9	4	-1E+10	1	-1E+10	1	-1E+10	1	-1E+10	1	-1E+10	1	-1E+10	1
4902551	38	C	08/27/2021	06:10	-134.898	49.546	0	69.00	0	6.9690	0	32.4320	0	25.401	0	68.400	0	274.3	4	91.7	4	-1E+10	1	-1E+10	1	-1E+10	1	-1E+10	1	-1E+10	1	-1E+10	1
4902551	38	C	08/27/2021	06:10	-134.898	49.546	0	70.20	0	6.8690	0	32.4370	0	25.419	0	69.589	0	273.7	4	91.3	4	-1E+10	1	-1E+10	1	-1E+10	1	-1E+10	1	-1E+10	1	-1E+10	1
4902551	38	C	08/27/2021	06:10	-134.898	49.546	0	70.90	0	6.8010	0	32.4420	0	25.432	0	70.283	0	273.6	4	91.1	4	-1E+10	1	-1E+10	1	-1E+10	1	-1E+10	1	-1E+10	1	-1E+10	1
4902551	38	C	08/27/2021	06:10	-134.898	49.546	0	72.00	0	6.7480	0	32.4460	0	25.442	0	71.373	0	273.7	4	91.0	4	-1E+10	1	-1E+10	1	-1E+10	1	-1E+10	1	-1E+10	1	-1E+10	1
4902551	38	C	08/27/2021	06:10	-134.898	49.546	0	73.00	0	6.7210	0	32.4490	0	25.447	0	72.364	0	273.7	4	90.9	4	-1E+10	1	-1E+10	1	-1E+10	1	-1E+10	1	-1E+10	1	-1E+10	1
4902551	38	C	08/27/2021	06:10	-134.898	49.546	0	74.00	0	6.6930	0	32.4480	0	25.450	0	73.355	0	273.6	4	90.9	4	-1E+10	1	-1E+10	1	-1E+10	1	-1E+10	1	-1E+10	1	-1E+10	1
4902551	38	C	08/27/2021	06:10	-134.898	49.546	0	75.00	0	6.6490	0	32.4520	0	25.459	0	74.347	0	273.5	4	90.7	4	-1E+10	1	-1E+10	1	-1E+10	1	-1E+10	1	-1E+10	1	-1E+10	1
4902551	38	C	08/27/2021	06:10	-134.898	49.546	0	75.90	0	6.6220	0	32.4540	0	25.464	0	75.239	0	273.1	4	90.6	4	-1E+10	1	-1E+10	1	-1E+10	1	-1E+10	1	-1E+10	1	-1E+10	1
4902551	38	C	08/27/2021	06:10	-134.898	49.546	0	77.00	0	6.5620	0	32.4530	0	25.471	0	76.329	0	272.4	4	90.2	4	-1E+10	1	-1E+10	1	-1E+10	1	-1E+10	1	-1E+10	1	-1E+10	1
4902551	38	C	08/27/2021	06:10	-134.898	49.546	0	78.20	0	6.5340	0	32.4590	0	25.480	0	77.518	0	271.6	4	89.9	4	-1E+10	1	-1E+10	1	-1E+10	1	-1E+10	1	-1E+10	1	-1E+10	1
4902551	38	C	08/27/2021	06:10	-134.898	49.546	0	79.10	0	6.5350	0	32.4700	0	25.488	0	78.410	0	271.5	4	89.8	4	-1E+10	1	-1E+10	1	-1E+10	1	-1E+10	1	-1E+10	1	-1E+10	1
4902551	38	C	08/27/2021	06:10	-134.898	49.546	0	80.20	0	6.4940	0	32.4690	0	25.493	0	79.500	0	271.2	4	89.7	4	-1E+10	1	-1E+10	1	-1E+10	1	-1E+10	1	-1E+10	1	-1E+10	1
4902551	38	C	08/27/2021	06:10	-134.898	49.546	0	80.90	0	6.4650	0	32.4680	0	25.495	0	80.194	0	270.9	4	89.5	4	-1E+10	1	-1E+10	1	-1E+10	1	-1E+10	1	-1E+10	1	-1E+10	1
4902551	38	C	08/27/2021	06:10	-134.898	49.546	0	81.90	0	6.4320	0	32.4700	0	25.501	0	81.185	0	270.3	4	89.2	4	-1E+10	1	-1E+10	1	-1E+10	1	-1E+10	1	-1E+10	1	-1E+10	1
4902551	38	C	08/27/2021	06:10	-134.898	49.546	0	82.90	0	6.3840	0	32.4720	0	25.509	0	82.176	0	269.4	4	88.9	4	-1E+10	1	-1E+10	1	-1E+10	1	-1E+10	1	-1E+10	1	-1E+10	1
4902551	38	C	08/27/2021	06:10	-134.898	49.546	0	84.00	0	6.3920	0	32.4790	0	25.513	0	83.266	0	268.6	4	88.6	4	-1E+10	1	-1E+10	1	-1E+10	1	-1E+10	1	-1E+10	1	-1E+10	1
4902551	38	C	08/27/2021	06:10	-134.898	49.546	0	85.10	0	6.3950	0	32.4840	0	25.517	0	84.357	0	267.7	4	88.3	4	-1E+10	1	-1E+10	1	-1E+10	1	-1E+10	1	-1E+10	1	-1E+10	1
4902551	38	C	08/27/2021	06:10	-134.898	49.546	0	86.00	0	6.3560	0	32.4810	0	25.520	0	85.248	0	266.9	4	88.0	4	-1E+10	1	-1E+10	1	-1E+10	1	-1E+10	1	-1E+10	1	-1E+10	1
4902551	38	C	08/27/2021	06:10	-134.898	49.546	0	86.80	0	6.3160	0	32.4780	0	25.522	0	86.041	0	265.9	4	87.6	4	-1E+10	1	-1E+10	1	-1E+10	1	-1E+10	1	-1E+10	1	-1E+10	1
4902551	38	C	08/27/2021	06:10	-134.898	49.546	0	88.00	0	6.3190	0	32.4920	0	25.533	0	87.231	0	264.3	4	87.1	4	-1E+10	1	-1E+10	1	-1E+10	1	-1E+10	1	-1E+10	1	-1E+10	1
4902551	38	C	08/27/2021	06:10	-134.898	49.546	0	89.00	0	6.2880	0	32.5060	0	25.548	0	88.222	0	263.4	4	86.7	4	-1E+10	1	-1E+10	1	-1E+10	1	-1E+10	1	-1E+10	1	-1E+10	1
4902551	38	C	08/27/2021	06:10	-134.898	49.546	0	89.90	0	6.2800	0	32.5130	0	25.554	0	89.114	0	262.2	4	86.3	4	-1E+10	1	-1E+10	1	-1E+10	1	-1E+10	1	-1E+10	1	-1E+10	1
4902551	38	C	08/27/2021	06:10	-134.898	49.546	0	91.10	0	6.2350	0	32.5120	0	25.559	0	90.303	0	260.4	4	85.6	4	-1E+10	1	-1E+10	1	-1E+10	1	-1E+10	1	-1E+10	1	-1E+10	1
4902551	38	C	08/27/2021	06:10	-134.898	49.546	0	92.10	0	6.2350	0	32.5140	0	25.561	0	91.294	0	258.8	4	85.1	4	-1E+10	1	-1E+10	1	-1E+10	1	-1E+10	1	-1E+10	1	-1E+10	1
4902551	38	C	08/27/2021	06:10	-134.898	49.546	0	93.00	0	6.2750	0	32.5240	0	25.564	0	92.186	0	257.2	4	84.6	4	-1E+10	1	-1E+10	1	-1E+10	1	-1E+10	1	-1E+10	1	-1E+10	1
4902551	38	C	08/27/2021	06:10	-134.898	49.546	0	93.90	0	6.2610	0	32.5340	0	25.573	0	93.078	0	255.6	4	84.1	4	-1E+10	1	-1E+10	1	-1E+10	1	-1E+10	1	-1E+10	1	-1E+10	1
4902551	38	C	08/27/2021	06:10	-134.898	49.546	0	94.80	0	6.2730	0	32.5350	0	25.573	0	93.970	0	254.1	4	83.6	4	-1E+10	1	-1E+10	1	-1E+10	1	-1E+10	1	-1E+10	1	-1E+10	1
4902551	38	C	08/27/2021	06:10	-134.898	49.546	0	96.00	0	6.2910	0	32.5780	0	25.604	0	95.159	0	252.3	4	83.1	4	-1E+10	1	-1E+10	1	-1E+10	1	-1E+10	1	-1E+10	1	-1E+10	1
4902551	38	C	08/27/2021	06:10	-134.898	49.546	0	96.90	0	6.2900	0	32.5980	0	25.620	0	96.051	0	251.1	4	82.7	4	-1E+10	1	-1E+10	1	-1E+10	1	-1E+10	1	-1E+10	1	-1E+10	1
4902551	38	C	08/27/2021	06:10	-134.898	49.546	0	97.80	0	6.2890	0	32.6110	0	25.631	0	96.943	0	249.7	4	82.3	4	-1E+10	1	-1E+10	1	-1E+10	1	-1E+10	1	-1E+10	1	-1E+10	1
4902551	38	C	08/27/2021	06:10	-134.898	49.546	0	99.00	0	6.2460	0	32.6240	0	25.646	0	98.132	0	248.0	4	81.6	4	-1E+10	1	-1E+10	1	-1E+10	1	-1E+10	1	-1E+10	1	-1E+10	1
4902551	38	C	08/27/2021	06:10	-134.898	49.546	0	100.10	0	6.1990	0	32.6390	0	25.664	0	99.222	0	246.2	4	80.9	4	-1E+10	1	-1E+10	1	-1E+10	1	-1E+10	1	-1E+10	1	-1E+10	1
4902551	38	C	08/27/2021	06:10	-134.898	49.546	0	100.90	0	6.1350	0	32.6360	0	25.670	0	100.015	0	243.9	4	80.1	4	-1E+10	1	-1E+10	1	-1E+10	1	-1E+10	1	-1E+10	1	-1E+10	1
4902551	38	C	08/27/2021	06:10	-134.898	49.546	0	102.00	0	6.1710	0	32.6580	0	25.682	0	101.105	0	240.1	4	78.9	4	-1E+10	1	-1E+10	1	-1E+10	1	-1E+10	1	-1E+10	1	-1E+10	1
4902551	38	C	08/27/2021	06:10	-134.898	49.546	0	103.10	0	6.1450	0	32.6870	0	25.709	0	102.195	0	236.4	4	77.7	4	-1E+10	1	-1E+10	1	-1E+10	1	-1E+10	1	-1E+10	1	-1E+10	1
4902551	38	C	08/27/2021	06:10	-134.898	49.546	0	103.90	0	6.1580	0	32.6960	0	25.714	0	102.988	0	233.2	4	76.6	4	-1E+10	1	-1E+10	1	-1E+10	1	-1E+10	1	-1E+10	1	-1E+10	1
4902551	38	C	08/27/2021	06:10	-134.898	49.546	0	105.00	0	6.1670	0	32.7030	0	25.719	0	104.078	0	228.0	4	75.0	4	-1E+10	1	-1E+10	1	-1E+10	1	-1E+10	1	-1E+10	1	-1E+10	1
4902551	38	C	08/27/2021	06:10	-134.898	49.546	0	105.90	0	6.1810	0	32.7370	0	25.744	0	104.970	0	223.4	4	73.5	4	-1E+10	1	-1E+10	1	-1E+10	1	-1E+10	1	-1E+10	1	-1E+10	1
4902551	38	C	08/27/2021	06:10	-134.898	49.546	0	106.80	0	6.2010	0	32.7760	0	25.772	0	105.861	0	219.3	4	72.2	4	-1E+10	1	-1E+10	1	-1E+10	1	-1E+10	1	-1E+10	1	-1E+10	1
4902551	38	C	08/27/2021	06:10	-134.898	49.546	0	108.00	0	6.2130	0	32.8090	0	25.796	0	107.051	0	214.8	4	70.7	4	-1E+10	1	-1E+10	1	-1E+10	1	-1E+10	1	-1E+10	1	-1E+10	1
4902551	38	C	08/27/2021	06:10	-134.898	49.546	0	109.00	0	6.2790	0	32.8480	0	25.819	0	108.041	0	210.5	4	69.5	4	-1E+10	1	-1E+10	1	-1E+10	1	-1E+10	1	-1E+10	1	-1E+10	1
4902551	38	C	08/27/2021	06:10	-134.898	49.546	0	109.90	0	6.2580	0	32.9050	0	25.867	0	108.933	0	207.9	4	68.6	4	-1E+10	1	-1E+10	1	-1E+10	1	-1E+10	1	-1E+10	1	-1E+10	1
4902551	38	C	08/27/2021	06:10	-134.898	49.546	0	111.00	0	6.2850	0	32.9490	0	25.898	0	110.023	0	204.9	4	67.6	4	-1E+10	1	-1E+10	1	-1E+10	1	-1E+10	1	-1E+10	1	-1E+10	1
4902551	38	C	08/27/2021	06:10	-134.898	49.546	0	112.00	0	6.2510	0	32.9600	0	25.911	0	111.014	0	202.4	4	66.8	4	-1E+10	1	-1E+10	1	-1E+10	1	-1E+10	1	-1E+10	1	-1E+10	1
4902551	38	C	08/27/2021	06:10	-134.898	49.546	0	112.90	0	6.2270	0	32.9910	0	25.938	0	111.906	0	200.2	4	66.0	4	-1E+10	1	-1E+10	1	-1E+10	1	-1E+10	1	-1E+10	1	-1E+10	1
4902551	38	C	08/27/2021	06:10	-134.898	49.546	0	114.10	0	6.2330	0	33.0000	0	25.945	0	113.095	0	197.0	4	65.0	4	-1E+10	1	-1E+10	1	-1E+10	1	-1E+10	1	-1E+10	1	-1E+10	1
4902551	38	C	08/27/2021	06:10	-134.898	49.546	0	115.20	0	6.2710	0	33.0430	0	25.974	0	114.185	0	192.7	4	63.7	4	-1E+10	1	-1E+10	1	-1E+10	1	-1E+10	1	-1E+10	1	-1E+10	1
4902551	38	C	08/27/2021	06:10	-134.898	49.546	0	115.80	0	6.2750	0	33.0770	0	26.000	0	114.780	0	191.4	4	63.3	4	-1E+10	1	-1E+10	1	-1E+10	1	-1E+10	1	-1E+10	1	-1E+10	1
4902551	38	C	08/27/2021	06:10	-134.898	49.546	0	116.70	0	6.2840	0	33.1190	0	26.032	0	115.672	0	190.1	4	62.8	4	-1E+10	1	-1E+10	1	-1E+10	1	-1E+10	1	-1E+10	1	-1E+10	1
4902551	38	C	08/27/2021	06:10	-134.898	49.546	0	118.10	0	6.2740	0	33.1360	0	26.047	0	117.059	0	188.0	4	62.1	4	-1E+10	1	-1E+10	1	-1E+10	1	-1E+10	1	-1E+10	1	-1E+10	1
4902551	38	C	08/27/2021	06:10	-134.898	49.546	0	119.10	0	6.2710	0	33.1350	0	26.047	0	118.050	0	186.3	4	61.6	4	-1E+10	1	-1E+10	1	-1E+10	1	-1E+10	1	-1E+10	1	-1E+10	1
4902551	38	C	08/27/2021	06:10	-134.898	49.546	0	120.10	0	6.2660	0	33.1340	0	26.046	0	119.041	0	184.6	4	61.0	4	-1E+10	1	-1E+10	1	-1E+10	1	-1E+10	1	-1E+10	1	-1E+10	1
4902551	38	C	08/27/2021	06:10	-134.898	49.546	0	121.10	0	6.2630	0	33.1380	0	26.050	0	120.032	0	182.5	4	60.3	4	-1E+10	1	-1E+10	1	-1E+10	1	-1E+10	1	-1E+10	1	-1E+10	1
4902551	38	C	08/27/2021	06:10	-134.898	49.546	0	121.90	0	6.2720	0	33.1600	0	26.066	0	120.824	0	181.0	4	59.8	4	-1E+10	1	-1E+10	1	-1E+10	1	-1E+10	1	-1E+10	1	-1E+10	1
4902551	38	C	08/27/2021	06:10	-134.898	49.546	0	122.80	0	6.2780	0	33.1850	0	26.085	0	121.716	0	179.4	4	59.3	4	-1E+10	1	-1E+10	1	-1E+10	1	-1E+10	1	-1E+10	1	-1E+10	1
4902551	38	C	08/27/2021	06:10	-134.898	49.546	0	123.90	0	6.2840	0	33.2120	0	26.106	0	122.806	0	177.1	4	58.6	4	-1E+10	1	-1E+10	1	-1E+10	1	-1E+10	1	-1E+10	1	-1E+10	1
4902551	38	C	08/27/2021	06:10	-134.898	49.546	0	124.90	0	6.2850	0	33.2280	0	26.118	0	123.797	0	174.9	4	57.9	4	-1E+10	1	-1E+10	1	-1E+10	1	-1E+10	1	-1E+10	1	-1E+10	1
4902551	38	C	08/27/2021	06:10	-134.898	49.546	0	126.00	0	6.2820	0	33.2740	0	26.155	0	124.887	0	172.8	4	57.2	4	-1E+10	1	-1E+10	1	-1E+10	1	-1E+10	1	-1E+10	1	-1E+10	1
4902551	38	C	08/27/2021	06:10	-134.898	49.546	0	126.90	0	6.2780	0	33.3140	0	26.187	0	125.779	0	171.6	4	56.8	4	-1E+10	1	-1E+10	1	-1E+10	1	-1E+10	1	-1E+10	1	-1E+10	1
4902551	38	C	08/27/2021	06:10	-134.898	49.546	0	127.70	0	6.2760	0	33.3320	0	26.202	0	126.571	0	170.6	4	56.5	4	-1E+10	1	-1E+10	1	-1E+10	1	-1E+10	1	-1E+10	1	-1E+10	1
4902551	38	C	08/27/2021	06:10	-134.898	49.546	0	128.80	0	6.2740	0	33.3460	0	26.213	0	127.661	0	169.1	4	56.0	4	-1E+10	1	-1E+10	1	-1E+10	1	-1E+10	1	-1E+10	1	-1E+10	1
4902551	38	C	08/27/2021	06:10	-134.898	49.546	0	129.80	0	6.2730	0	33.3530	0	26.219	0	128.652	0	167.4	4	55.4	4	-1E+10	1	-1E+10	1	-1E+10	1	-1E+10	1	-1E+10	1	-1E+10	1
4902551	38	C	08/27/2021	06:10	-134.898	49.546	0	130.70	0	6.2740	0	33.3580	0	26.222	0	129.544	0	165.2	4	54.7	4	-1E+10	1	-1E+10	1	-1E+10	1	-1E+10	1	-1E+10	1	-1E+10	1
4902551	38	C	08/27/2021	06:10	-134.898	49.546	0	131.80	0	6.2740	0	33.3790	0	26.239	0	130.634	0	163.1	4	54.0	4	-1E+10	1	-1E+10	1	-1E+10	1	-1E+10	1	-1E+10	1	-1E+10	1
4902551	38	C	08/27/2021	06:10	-134.898	49.546	0	132.80	0	6.2790	0	33.3940	0	26.250	0	131.625	0	160.5	4	53.2	4	-1E+10	1	-1E+10	1	-1E+10	1	-1E+10	1	-1E+10	1	-1E+10	1
4902551	38	C	08/27/2021	06:10	-134.898	49.546	0	133.80	0	6.2830	0	33.4090	0	26.262	0	132.615	0	157.5	4	52.2	4	-1E+10	1	-1E+10	1	-1E+10	1	-1E+10	1	-1E+10	1	-1E+10	1
4902551	38	C	08/27/2021	06:10	-134.898	49.546	0	134.90	0	6.2680	0	33.4290	0	26.279	0	133.705	0	153.9	4	51.0	4	-1E+10	1	-1E+10	1	-1E+10	1	-1E+10	1	-1E+10	1	-1E+10	1
4902551	38	C	08/27/2021	06:10	-134.898	49.546	0	136.00	0	6.2500	0	33.4520	0	26.300	0	134.795	0	150.4	4	49.8	4	-1E+10	1	-1E+10	1	-1E+10	1	-1E+10	1	-1E+10	1	-1E+10	1
4902551	38	C	08/27/2021	06:10	-134.898	49.546	0	137.10	0	6.2230	0	33.4800	0	26.325	0	135.885	0	147.8	4	48.9	4	-1E+10	1	-1E+10	1	-1E+10	1	-1E+10	1	-1E+10	1	-1E+10	1
4902551	38	C	08/27/2021	06:10	-134.898	49.546	0	138.00	0	6.2110	0	33.4970	0	26.340	0	136.777	0	145.9	4	48.3	4	-1E+10	1	-1E+10	1	-1E+10	1	-1E+10	1	-1E+10	1	-1E+10	1
4902551	38	C	08/27/2021	06:10	-134.898	49.546	0	138.90	0	6.2060	0	33.5060	0	26.348	0	137.669	0	144.1	4	47.7	4	-1E+10	1	-1E+10	1	-1E+10	1	-1E+10	1	-1E+10	1	-1E+10	1
4902551	38	C	08/27/2021	06:10	-134.898	49.546	0	140.10	0	6.1990	0	33.5340	0	26.371	0	138.858	0	141.8	4	46.9	4	-1E+10	1	-1E+10	1	-1E+10	1	-1E+10	1	-1E+10	1	-1E+10	1
4902551	38	C	08/27/2021	06:10	-134.898	49.546	0	141.10	0	6.1960	0	33.5510	0	26.385	0	139.848	0	140.2	4	46.4	4	-1E+10	1	-1E+10	1	-1E+10	1	-1E+10	1	-1E+10	1	-1E+10	1
4902551	38	C	08/27/2021	06:10	-134.898	49.546	0	142.00	0	6.1860	0	33.5770	0	26.407	0	140.740	0	139.0	4	46.0	4	-1E+10	1	-1E+10	1	-1E+10	1	-1E+10	1	-1E+10	1	-1E+10	1
4902551	38	C	08/27/2021	06:10	-134.898	49.546	0	143.00	0	6.1800	0	33.5970	0	26.423	0	141.731	0	138.2	4	45.7	4	-1E+10	1	-1E+10	1	-1E+10	1	-1E+10	1	-1E+10	1	-1E+10	1
4902551	38	C	08/27/2021	06:10	-134.898	49.546	0	144.00	0	6.1750	0	33.6020	0	26.428	0	142.722	0	137.4	4	45.5	4	-1E+10	1	-1E+10	1	-1E+10	1	-1E+10	1	-1E+10	1	-1E+10	1
4902551	38	C	08/27/2021	06:10	-134.898	49.546	0	145.00	0	6.1730	0	33.6050	0	26.430	0	143.712	0	136.4	4	45.1	4	-1E+10	1	-1E+10	1	-1E+10	1	-1E+10	1	-1E+10	1	-1E+10	1
4902551	38	C	08/27/2021	06:10	-134.898	49.546	0	145.80	0	6.1710	0	33.6110	0	26.435	0	144.505	0	135.7	4	44.9	4	-1E+10	1	-1E+10	1	-1E+10	1	-1E+10	1	-1E+10	1	-1E+10	1
4902551	38	C	08/27/2021	06:10	-134.898	49.546	0	146.90	0	6.1670	0	33.6160	0	26.440	0	145.595	0	134.8	4	44.6	4	-1E+10	1	-1E+10	1	-1E+10	1	-1E+10	1	-1E+10	1	-1E+10	1
4902551	38	C	08/27/2021	06:10	-134.898	49.546	0	148.00	0	6.1650	0	33.6190	0	26.442	0	146.685	0	133.8	4	44.3	4	-1E+10	1	-1E+10	1	-1E+10	1	-1E+10	1	-1E+10	1	-1E+10	1
4902551	38	C	08/27/2021	06:10	-134.898	49.546	0	148.80	0	6.1560	0	33.6260	0	26.449	0	147.477	0	133.2	4	44.1	4	-1E+10	1	-1E+10	1	-1E+10	1	-1E+10	1	-1E+10	1	-1E+10	1
4902551	38	C	08/27/2021	06:10	-134.898	49.546	0	150.00	0	6.1320	0	33.6400	0	26.463	0	148.666	0	132.5	4	43.8	4	-1E+10	1	-1E+10	1	-1E+10	1	-1E+10	1	-1E+10	1	-1E+10	1
4902551	38	C	08/27/2021	06:10	-134.898	49.546	0	151.30	0	6.1040	0	33.6650	0	26.486	0	149.954	0	131.9	4	43.6	4	-1E+10	1	-1E+10	1	-1E+10	1	-1E+10	1	-1E+10	1	-1E+10	1
4902551	38	C	08/27/2021	06:10	-134.898	49.546	0	152.10	0	6.0940	0	33.6710	0	26.493	0	150.747	0	131.6	4	43.5	4	-1E+10	1	-1E+10	1	-1E+10	1	-1E+10	1	-1E+10	1	-1E+10	1
4902551	38	C	08/27/2021	06:10	-134.898	49.546	0	152.90	0	6.0850	0	33.6800	0	26.501	0	151.539	0	131.5	4	43.5	4	-1E+10	1	-1E+10	1	-1E+10	1	-1E+10	1	-1E+10	1	-1E+10	1
4902551	38	C	08/27/2021	06:10	-134.898	49.546	0	153.80	0	6.0610	0	33.6890	0	26.511	0	152.431	0	131.4	4	43.4	4	-1E+10	1	-1E+10	1	-1E+10	1	-1E+10	1	-1E+10	1	-1E+10	1
4902551	38	C	08/27/2021	06:10	-134.898	49.546	0	154.70	0	6.0540	0	33.6920	0	26.514	0	153.323	0	131.3	4	43.3	4	-1E+10	1	-1E+10	1	-1E+10	1	-1E+10	1	-1E+10	1	-1E+10	1
4902551	38	C	08/27/2021	06:10	-134.898	49.546	0	155.90	0	6.0400	0	33.6940	0	26.517	0	154.512	0	131.1	4	43.3	4	-1E+10	1	-1E+10	1	-1E+10	1	-1E+10	1	-1E+10	1	-1E+10	1
4902551	38	C	08/27/2021	06:10	-134.898	49.546	0	157.30	0	5.9960	0	33.7020	0	26.529	0	155.899	0	130.9	4	43.2	4	-1E+10	1	-1E+10	1	-1E+10	1	-1E+10	1	-1E+10	1	-1E+10	1
4902551	38	C	08/27/2021	06:10	-134.898	49.546	0	158.20	0	5.9890	0	33.7040	0	26.532	0	156.790	0	130.7	4	43.1	4	-1E+10	1	-1E+10	1	-1E+10	1	-1E+10	1	-1E+10	1	-1E+10	1
4902551	38	C	08/27/2021	06:10	-134.898	49.546	0	159.10	0	5.9870	0	33.7040	0	26.532	0	157.682	0	130.6	4	43.1	4	-1E+10	1	-1E+10	1	-1E+10	1	-1E+10	1	-1E+10	1	-1E+10	1
4902551	38	C	08/27/2021	06:10	-134.898	49.546	0	160.00	0	5.9820	0	33.7030	0	26.532	0	158.573	0	130.4	4	43.0	4	-1E+10	1	-1E+10	1	-1E+10	1	-1E+10	1	-1E+10	1	-1E+10	1
4902551	38	C	08/27/2021	06:10	-134.898	49.546	0	160.90	0	5.9550	0	33.7060	0	26.538	0	159.465	0	130.1	4	42.9	4	-1E+10	1	-1E+10	1	-1E+10	1	-1E+10	1	-1E+10	1	-1E+10	1
4902551	38	C	08/27/2021	06:10	-134.898	49.546	0	161.80	0	5.9440	0	33.7060	0	26.539	0	160.357	0	129.7	4	42.7	4	-1E+10	1	-1E+10	1	-1E+10	1	-1E+10	1	-1E+10	1	-1E+10	1
4902551	38	C	08/27/2021	06:10	-134.898	49.546	0	162.70	0	5.9410	0	33.7070	0	26.540	0	161.248	0	129.3	4	42.6	4	-1E+10	1	-1E+10	1	-1E+10	1	-1E+10	1	-1E+10	1	-1E+10	1
4902551	38	C	08/27/2021	06:10	-134.898	49.546	0	163.60	0	5.9340	0	33.7080	0	26.542	0	162.140	0	128.7	4	42.4	4	-1E+10	1	-1E+10	1	-1E+10	1	-1E+10	1	-1E+10	1	-1E+10	1
4902551	38	C	08/27/2021	06:10	-134.898	49.546	0	164.90	0	5.9190	0	33.7110	0	26.546	0	163.428	0	127.9	4	42.1	4	-1E+10	1	-1E+10	1	-1E+10	1	-1E+10	1	-1E+10	1	-1E+10	1
4902551	38	C	08/27/2021	06:10	-134.898	49.546	0	166.30	0	5.8880	0	33.7190	0	26.556	0	164.815	0	127.0	4	41.8	4	-1E+10	1	-1E+10	1	-1E+10	1	-1E+10	1	-1E+10	1	-1E+10	1
4902551	38	C	08/27/2021	06:10	-134.898	49.546	0	167.30	0	5.8710	0	33.7260	0	26.564	0	165.805	0	126.5	4	41.6	4	-1E+10	1	-1E+10	1	-1E+10	1	-1E+10	1	-1E+10	1	-1E+10	1
4902551	38	C	08/27/2021	06:10	-134.898	49.546	0	168.20	0	5.8710	0	33.7300	0	26.567	0	166.697	0	126.0	4	41.4	4	-1E+10	1	-1E+10	1	-1E+10	1	-1E+10	1	-1E+10	1	-1E+10	1
4902551	38	C	08/27/2021	06:10	-134.898	49.546	0	169.10	0	5.8600	0	33.7320	0	26.570	0	167.589	0	125.5	4	41.3	4	-1E+10	1	-1E+10	1	-1E+10	1	-1E+10	1	-1E+10	1	-1E+10	1
4902551	38	C	08/27/2021	06:10	-134.898	49.546	0	170.10	0	5.8440	0	33.7400	0	26.578	0	168.579	0	125.2	4	41.1	4	-1E+10	1	-1E+10	1	-1E+10	1	-1E+10	1	-1E+10	1	-1E+10	1
4902551	38	C	08/27/2021	06:10	-134.898	49.546	0	171.00	0	5.8520	0	33.7390	0	26.577	0	169.471	0	124.8	4	41.0	4	-1E+10	1	-1E+10	1	-1E+10	1	-1E+10	1	-1E+10	1	-1E+10	1
4902551	38	C	08/27/2021	06:10	-134.898	49.546	0	171.90	0	5.8460	0	33.7440	0	26.581	0	170.362	0	124.4	4	40.9	4	-1E+10	1	-1E+10	1	-1E+10	1	-1E+10	1	-1E+10	1	-1E+10	1
4902551	38	C	08/27/2021	06:10	-134.898	49.546	0	172.90	0	5.8320	0	33.7470	0	26.585	0	171.353	0	124.1	4	40.8	4	-1E+10	1	-1E+10	1	-1E+10	1	-1E+10	1	-1E+10	1	-1E+10	1
4902551	38	C	08/27/2021	06:10	-134.898	49.546	0	173.80	0	5.8190	0	33.7460	0	26.586	0	172.245	0	123.7	4	40.7	4	-1E+10	1	-1E+10	1	-1E+10	1	-1E+10	1	-1E+10	1	-1E+10	1
4902551	38	C	08/27/2021	06:10	-134.898	49.546	0	174.70	0	5.8080	0	33.7460	0	26.587	0	173.136	0	123.3	4	40.5	4	-1E+10	1	-1E+10	1	-1E+10	1	-1E+10	1	-1E+10	1	-1E+10	1
4902551	38	C	08/27/2021	06:10	-134.898	49.546	0	175.70	0	5.7980	0	33.7470	0	26.590	0	174.127	0	122.9	4	40.4	4	-1E+10	1	-1E+10	1	-1E+10	1	-1E+10	1	-1E+10	1	-1E+10	1
4902551	38	C	08/27/2021	06:10	-134.898	49.546	0	176.60	0	5.7880	0	33.7500	0	26.593	0	175.018	0	122.5	4	40.2	4	-1E+10	1	-1E+10	1	-1E+10	1	-1E+10	1	-1E+10	1	-1E+10	1
4902551	38	C	08/27/2021	06:10	-134.898	49.546	0	177.90	0	5.7750	0	33.7530	0	26.597	0	176.306	0	121.9	4	40.0	4	-1E+10	1	-1E+10	1	-1E+10	1	-1E+10	1	-1E+10	1	-1E+10	1
4902551	38	C	08/27/2021	06:10	-134.898	49.546	0	179.30	0	5.7660	0	33.7550	0	26.600	0	177.693	0	121.2	4	39.8	4	-1E+10	1	-1E+10	1	-1E+10	1	-1E+10	1	-1E+10	1	-1E+10	1
4902551	38	C	08/27/2021	06:10	-134.898	49.546	0	180.20	0	5.7600	0	33.7560	0	26.601	0	178.585	0	120.7	4	39.6	4	-1E+10	1	-1E+10	1	-1E+10	1	-1E+10	1	-1E+10	1	-1E+10	1
4902551	38	C	08/27/2021	06:10	-134.898	49.546	0	181.10	0	5.7540	0	33.7570	0	26.603	0	179.476	0	120.3	4	39.5	4	-1E+10	1	-1E+10	1	-1E+10	1	-1E+10	1	-1E+10	1	-1E+10	1
4902551	38	C	08/27/2021	06:10	-134.898	49.546	0	182.00	0	5.7510	0	33.7580	0	26.604	0	180.368	0	119.8	4	39.3	4	-1E+10	1	-1E+10	1	-1E+10	1	-1E+10	1	-1E+10	1	-1E+10	1
4902551	38	C	08/27/2021	06:10	-134.898	49.546	0	182.90	0	5.7430	0	33.7600	0	26.607	0	181.259	0	119.4	4	39.2	4	-1E+10	1	-1E+10	1	-1E+10	1	-1E+10	1	-1E+10	1	-1E+10	1
4902551	38	C	08/27/2021	06:10	-134.898	49.546	0	183.90	0	5.7220	0	33.7630	0	26.612	0	182.250	0	119.0	4	39.0	4	-1E+10	1	-1E+10	1	-1E+10	1	-1E+10	1	-1E+10	1	-1E+10	1
4902551	38	C	08/27/2021	06:10	-134.898	49.546	0	184.80	0	5.7080	0	33.7640	0	26.614	0	183.141	0	118.6	4	38.9	4	-1E+10	1	-1E+10	1	-1E+10	1	-1E+10	1	-1E+10	1	-1E+10	1
4902551	38	C	08/27/2021	06:10	-134.898	49.546	0	185.70	0	5.6840	0	33.7660	0	26.619	0	184.033	0	118.2	4	38.7	4	-1E+10	1	-1E+10	1	-1E+10	1	-1E+10	1	-1E+10	1	-1E+10	1
4902551	38	C	08/27/2021	06:10	-134.898	49.546	0	186.60	0	5.6710	0	33.7680	0	26.622	0	184.924	0	117.8	4	38.6	4	-1E+10	1	-1E+10	1	-1E+10	1	-1E+10	1	-1E+10	1	-1E+10	1
4902551	38	C	08/27/2021	06:10	-134.898	49.546	0	187.50	0	5.6540	0	33.7700	0	26.625	0	185.816	0	117.4	4	38.4	4	-1E+10	1	-1E+10	1	-1E+10	1	-1E+10	1	-1E+10	1	-1E+10	1
4902551	38	C	08/27/2021	06:10	-134.898	49.546	0	188.90	0	5.6290	0	33.7710	0	26.629	0	187.203	0	117.0	4	38.3	4	-1E+10	1	-1E+10	1	-1E+10	1	-1E+10	1	-1E+10	1	-1E+10	1
4902551	38	C	08/27/2021	06:10	-134.898	49.546	0	190.30	0	5.6200	0	33.7730	0	26.632	0	188.589	0	116.5	4	38.1	4	-1E+10	1	-1E+10	1	-1E+10	1	-1E+10	1	-1E+10	1	-1E+10	1
4902551	38	C	08/27/2021	06:10	-134.898	49.546	0	191.20	0	5.6080	0	33.7760	0	26.636	0	189.481	0	116.2	4	38.0	4	-1E+10	1	-1E+10	1	-1E+10	1	-1E+10	1	-1E+10	1	-1E+10	1
4902551	38	C	08/27/2021	06:10	-134.898	49.546	0	192.10	0	5.6040	0	33.7760	0	26.636	0	190.372	0	115.9	4	37.9	4	-1E+10	1	-1E+10	1	-1E+10	1	-1E+10	1	-1E+10	1	-1E+10	1
4902551	38	C	08/27/2021	06:10	-134.898	49.546	0	193.10	0	5.5990	0	33.7770	0	26.638	0	191.363	0	115.6	4	37.8	4	-1E+10	1	-1E+10	1	-1E+10	1	-1E+10	1	-1E+10	1	-1E+10	1
4902551	38	C	08/27/2021	06:10	-134.898	49.546	0	193.90	0	5.5970	0	33.7770	0	26.638	0	192.155	0	115.3	4	37.7	4	-1E+10	1	-1E+10	1	-1E+10	1	-1E+10	1	-1E+10	1	-1E+10	1
4902551	38	C	08/27/2021	06:10	-134.898	49.546	0	194.90	0	5.5930	0	33.7770	0	26.638	0	193.146	0	115.0	4	37.6	4	-1E+10	1	-1E+10	1	-1E+10	1	-1E+10	1	-1E+10	1	-1E+10	1
4902551	38	C	08/27/2021	06:10	-134.898	49.546	0	195.80	0	5.5840	0	33.7780	0	26.640	0	194.037	0	114.7	4	37.5	4	-1E+10	1	-1E+10	1	-1E+10	1	-1E+10	1	-1E+10	1	-1E+10	1
4902551	38	C	08/27/2021	06:10	-134.898	49.546	0	196.70	0	5.5810	0	33.7780	0	26.641	0	194.929	0	114.3	4	37.4	4	-1E+10	1	-1E+10	1	-1E+10	1	-1E+10	1	-1E+10	1	-1E+10	1
4902551	38	C	08/27/2021	06:10	-134.898	49.546	0	197.60	0	5.5800	0	33.7790	0	26.641	0	195.820	0	113.9	4	37.2	4	-1E+10	1	-1E+10	1	-1E+10	1	-1E+10	1	-1E+10	1	-1E+10	1
4902551	38	C	08/27/2021	06:10	-134.898	49.546	0	198.90	0	5.5750	0	33.7800	0	26.643	0	197.108	0	113.3	4	37.0	4	-1E+10	1	-1E+10	1	-1E+10	1	-1E+10	1	-1E+10	1	-1E+10	1
4902551	38	C	08/27/2021	06:10	-134.898	49.546	0	200.30	0	5.5750	0	33.7800	0	26.643	0	198.495	0	112.5	4	36.8	4	-1E+10	1	-1E+10	1	-1E+10	1	-1E+10	1	-1E+10	1	-1E+10	1
4902551	38	C	08/27/2021	06:10	-134.898	49.546	0	201.20	0	5.5740	0	33.7800	0	26.643	0	199.386	0	111.9	4	36.6	4	-1E+10	1	-1E+10	1	-1E+10	1	-1E+10	1	-1E+10	1	-1E+10	1
4902551	38	C	08/27/2021	06:10	-134.898	49.546	0	202.00	0	5.5740	0	33.7800	0	26.643	0	200.179	0	111.3	4	36.4	4	-1E+10	1	-1E+10	1	-1E+10	1	-1E+10	1	-1E+10	1	-1E+10	1
4902551	38	C	08/27/2021	06:10	-134.898	49.546	0	202.90	0	5.5690	0	33.7810	0	26.644	0	201.070	0	110.6	4	36.1	4	-1E+10	1	-1E+10	1	-1E+10	1	-1E+10	1	-1E+10	1	-1E+10	1
4902551	38	C	08/27/2021	06:10	-134.898	49.546	0	203.80	0	5.5660	0	33.7810	0	26.645	0	201.962	0	109.9	4	35.9	4	-1E+10	1	-1E+10	1	-1E+10	1	-1E+10	1	-1E+10	1	-1E+10	1
4902551	38	C	08/27/2021	06:10	-134.898	49.546	0	204.70	0	5.5470	0	33.7870	0	26.652	0	202.853	0	109.4	4	35.7	4	-1E+10	1	-1E+10	1	-1E+10	1	-1E+10	1	-1E+10	1	-1E+10	1
4902551	38	C	08/27/2021	06:10	-134.898	49.546	0	205.60	0	5.5440	0	33.7870	0	26.652	0	203.744	0	108.8	4	35.5	4	-1E+10	1	-1E+10	1	-1E+10	1	-1E+10	1	-1E+10	1	-1E+10	1
4902551	38	C	08/27/2021	06:10	-134.898	49.546	0	206.90	0	5.5430	0	33.7870	0	26.652	0	205.032	0	107.8	4	35.2	4	-1E+10	1	-1E+10	1	-1E+10	1	-1E+10	1	-1E+10	1	-1E+10	1
4902551	38	C	08/27/2021	06:10	-134.898	49.546	0	208.30	0	5.5390	0	33.7900	0	26.655	0	206.419	0	106.8	4	34.9	4	-1E+10	1	-1E+10	1	-1E+10	1	-1E+10	1	-1E+10	1	-1E+10	1
4902551	38	C	08/27/2021	06:10	-134.898	49.546	0	209.20	0	5.5330	0	33.7920	0	26.658	0	207.310	0	106.2	4	34.7	4	-1E+10	1	-1E+10	1	-1E+10	1	-1E+10	1	-1E+10	1	-1E+10	1
4902551	38	C	08/27/2021	06:10	-134.898	49.546	0	210.10	0	5.5140	0	33.7950	0	26.662	0	208.202	0	105.6	4	34.5	4	-1E+10	1	-1E+10	1	-1E+10	1	-1E+10	1	-1E+10	1	-1E+10	1
4902551	38	C	08/27/2021	06:10	-134.898	49.546	0	211.00	0	5.5080	0	33.7960	0	26.664	0	209.093	0	105.0	4	34.3	4	-1E+10	1	-1E+10	1	-1E+10	1	-1E+10	1	-1E+10	1	-1E+10	1
4902551	38	C	08/27/2021	06:10	-134.898	49.546	0	211.90	0	5.5050	0	33.7960	0	26.664	0	209.984	0	104.3	4	34.0	4	-1E+10	1	-1E+10	1	-1E+10	1	-1E+10	1	-1E+10	1	-1E+10	1
4902551	38	C	08/27/2021	06:10	-134.898	49.546	0	212.80	0	5.4940	0	33.8000	0	26.669	0	210.876	0	103.8	4	33.8	4	-1E+10	1	-1E+10	1	-1E+10	1	-1E+10	1	-1E+10	1	-1E+10	1
4902551	38	C	08/27/2021	06:10	-134.898	49.546	0	213.70	0	5.4920	0	33.8040	0	26.672	0	211.767	0	103.2	4	33.7	4	-1E+10	1	-1E+10	1	-1E+10	1	-1E+10	1	-1E+10	1	-1E+10	1
4902551	38	C	08/27/2021	06:10	-134.898	49.546	0	214.60	0	5.4890	0	33.8060	0	26.674	0	212.659	0	102.7	4	33.5	4	-1E+10	1	-1E+10	1	-1E+10	1	-1E+10	1	-1E+10	1	-1E+10	1
4902551	38	C	08/27/2021	06:10	-134.898	49.546	0	215.90	0	5.4870	0	33.8060	0	26.674	0	213.946	0	102.0	4	33.3	4	-1E+10	1	-1E+10	1	-1E+10	1	-1E+10	1	-1E+10	1	-1E+10	1
4902551	38	C	08/27/2021	06:10	-134.898	49.546	0	217.30	0	5.4830	0	33.8080	0	26.676	0	215.333	0	101.2	4	33.0	4	-1E+10	1	-1E+10	1	-1E+10	1	-1E+10	1	-1E+10	1	-1E+10	1
4902551	38	C	08/27/2021	06:10	-134.898	49.546	0	218.20	0	5.4800	0	33.8090	0	26.677	0	216.224	0	100.7	4	32.8	4	-1E+10	1	-1E+10	1	-1E+10	1	-1E+10	1	-1E+10	1	-1E+10	1
4902551	38	C	08/27/2021	06:10	-134.898	49.546	0	219.10	0	5.4730	0	33.8100	0	26.679	0	217.115	0	100.2	4	32.7	4	-1E+10	1	-1E+10	1	-1E+10	1	-1E+10	1	-1E+10	1	-1E+10	1
4902551	38	C	08/27/2021	06:10	-134.898	49.546	0	220.10	0	5.4440	0	33.8110	0	26.683	0	218.106	0	99.6	4	32.5	4	-1E+10	1	-1E+10	1	-1E+10	1	-1E+10	1	-1E+10	1	-1E+10	1
4902551	38	C	08/27/2021	06:10	-134.898	49.546	0	221.00	0	5.4410	0	33.8110	0	26.684	0	218.997	0	99.0	4	32.3	4	-1E+10	1	-1E+10	1	-1E+10	1	-1E+10	1	-1E+10	1	-1E+10	1
4902551	38	C	08/27/2021	06:10	-134.898	49.546	0	221.90	0	5.4270	0	33.8140	0	26.688	0	219.889	0	98.3	4	32.0	4	-1E+10	1	-1E+10	1	-1E+10	1	-1E+10	1	-1E+10	1	-1E+10	1
4902551	38	C	08/27/2021	06:10	-134.898	49.546	0	222.80	0	5.4210	0	33.8140	0	26.688	0	220.780	0	97.7	4	31.8	4	-1E+10	1	-1E+10	1	-1E+10	1	-1E+10	1	-1E+10	1	-1E+10	1
4902551	38	C	08/27/2021	06:10	-134.898	49.546	0	223.70	0	5.4060	0	33.8150	0	26.691	0	221.671	0	97.1	4	31.6	4	-1E+10	1	-1E+10	1	-1E+10	1	-1E+10	1	-1E+10	1	-1E+10	1
4902551	38	C	08/27/2021	06:10	-134.898	49.546	0	224.70	0	5.3970	0	33.8170	0	26.694	0	222.662	0	96.6	4	31.4	4	-1E+10	1	-1E+10	1	-1E+10	1	-1E+10	1	-1E+10	1	-1E+10	1
4902551	38	C	08/27/2021	06:10	-134.898	49.546	0	225.60	0	5.3840	0	33.8210	0	26.698	0	223.553	0	96.1	4	31.3	4	-1E+10	1	-1E+10	1	-1E+10	1	-1E+10	1	-1E+10	1	-1E+10	1
4902551	38	C	08/27/2021	06:10	-134.898	49.546	0	226.90	0	5.3620	0	33.8210	0	26.701	0	224.841	0	95.5	4	31.1	4	-1E+10	1	-1E+10	1	-1E+10	1	-1E+10	1	-1E+10	1	-1E+10	1
4902551	38	C	08/27/2021	06:10	-134.898	49.546	0	228.40	0	5.3420	0	33.8250	0	26.706	0	226.326	0	94.8	4	30.8	4	-1E+10	1	-1E+10	1	-1E+10	1	-1E+10	1	-1E+10	1	-1E+10	1
4902551	38	C	08/27/2021	06:10	-134.898	49.546	0	229.30	0	5.3290	0	33.8240	0	26.707	0	227.218	0	94.5	4	30.7	4	-1E+10	1	-1E+10	1	-1E+10	1	-1E+10	1	-1E+10	1	-1E+10	1
4902551	38	C	08/27/2021	06:10	-134.898	49.546	0	230.20	0	5.3260	0	33.8250	0	26.708	0	228.109	0	94.1	4	30.6	4	-1E+10	1	-1E+10	1	-1E+10	1	-1E+10	1	-1E+10	1	-1E+10	1
4902551	38	C	08/27/2021	06:10	-134.898	49.546	0	231.10	0	5.3210	0	33.8260	0	26.710	0	229.000	0	93.6	4	30.4	4	-1E+10	1	-1E+10	1	-1E+10	1	-1E+10	1	-1E+10	1	-1E+10	1
4902551	38	C	08/27/2021	06:10	-134.898	49.546	0	232.10	0	5.3200	0	33.8260	0	26.710	0	229.991	0	93.2	4	30.3	4	-1E+10	1	-1E+10	1	-1E+10	1	-1E+10	1	-1E+10	1	-1E+10	1
4902551	38	C	08/27/2021	06:10	-134.898	49.546	0	233.00	0	5.3160	0	33.8260	0	26.710	0	230.882	0	92.7	4	30.1	4	-1E+10	1	-1E+10	1	-1E+10	1	-1E+10	1	-1E+10	1	-1E+10	1
4902551	38	C	08/27/2021	06:10	-134.898	49.546	0	234.00	0	5.3120	0	33.8270	0	26.712	0	231.872	0	92.3	4	30.0	4	-1E+10	1	-1E+10	1	-1E+10	1	-1E+10	1	-1E+10	1	-1E+10	1
4902551	38	C	08/27/2021	06:10	-134.898	49.546	0	234.90	0	5.3040	0	33.8280	0	26.713	0	232.763	0	91.8	4	29.8	4	-1E+10	1	-1E+10	1	-1E+10	1	-1E+10	1	-1E+10	1	-1E+10	1
4902551	38	C	08/27/2021	06:10	-134.898	49.546	0	235.80	0	5.2970	0	33.8290	0	26.715	0	233.655	0	91.3	4	29.7	4	-1E+10	1	-1E+10	1	-1E+10	1	-1E+10	1	-1E+10	1	-1E+10	1
4902551	38	C	08/27/2021	06:10	-134.898	49.546	0	236.80	0	5.2940	0	33.8300	0	26.716	0	234.645	0	90.8	4	29.5	4	-1E+10	1	-1E+10	1	-1E+10	1	-1E+10	1	-1E+10	1	-1E+10	1
4902551	38	C	08/27/2021	06:10	-134.898	49.546	0	237.70	0	5.2860	0	33.8310	0	26.718	0	235.536	0	90.3	4	29.3	4	-1E+10	1	-1E+10	1	-1E+10	1	-1E+10	1	-1E+10	1	-1E+10	1
4902551	38	C	08/27/2021	06:10	-134.898	49.546	0	238.60	0	5.2720	0	33.8340	0	26.722	0	236.428	0	89.8	4	29.1	4	-1E+10	1	-1E+10	1	-1E+10	1	-1E+10	1	-1E+10	1	-1E+10	1
4902551	38	C	08/27/2021	06:10	-134.898	49.546	0	239.60	0	5.2620	0	33.8330	0	26.722	0	237.418	0	89.3	4	29.0	4	-1E+10	1	-1E+10	1	-1E+10	1	-1E+10	1	-1E+10	1	-1E+10	1
4902551	38	C	08/27/2021	06:10	-134.898	49.546	0	240.90	0	5.2550	0	33.8340	0	26.724	0	238.705	0	88.5	4	28.7	4	-1E+10	1	-1E+10	1	-1E+10	1	-1E+10	1	-1E+10	1	-1E+10	1
4902551	38	C	08/27/2021	06:10	-134.898	49.546	0	242.40	0	5.2420	0	33.8360	0	26.727	0	240.191	0	87.8	4	28.5	4	-1E+10	1	-1E+10	1	-1E+10	1	-1E+10	1	-1E+10	1	-1E+10	1
4902551	38	C	08/27/2021	06:10	-134.898	49.546	0	243.30	0	5.2330	0	33.8370	0	26.729	0	241.082	0	87.3	4	28.3	4	-1E+10	1	-1E+10	1	-1E+10	1	-1E+10	1	-1E+10	1	-1E+10	1
4902551	38	C	08/27/2021	06:10	-134.898	49.546	0	244.20	0	5.2250	0	33.8380	0	26.730	0	241.973	0	86.8	4	28.2	4	-1E+10	1	-1E+10	1	-1E+10	1	-1E+10	1	-1E+10	1	-1E+10	1
4902551	38	C	08/27/2021	06:10	-134.898	49.546	0	245.20	0	5.2190	0	33.8380	0	26.731	0	242.964	0	86.3	4	28.0	4	-1E+10	1	-1E+10	1	-1E+10	1	-1E+10	1	-1E+10	1	-1E+10	1
4902551	38	C	08/27/2021	06:10	-134.898	49.546	0	246.10	0	5.2130	0	33.8390	0	26.733	0	243.855	0	85.8	4	27.8	4	-1E+10	1	-1E+10	1	-1E+10	1	-1E+10	1	-1E+10	1	-1E+10	1
4902551	38	C	08/27/2021	06:10	-134.898	49.546	0	247.10	0	5.2040	0	33.8390	0	26.734	0	244.845	0	85.3	4	27.6	4	-1E+10	1	-1E+10	1	-1E+10	1	-1E+10	1	-1E+10	1	-1E+10	1
4902551	38	C	08/27/2021	06:10	-134.898	49.546	0	248.00	0	5.2020	0	33.8380	0	26.733	0	245.737	0	84.7	4	27.5	4	-1E+10	1	-1E+10	1	-1E+10	1	-1E+10	1	-1E+10	1	-1E+10	1
4902551	38	C	08/27/2021	06:10	-134.898	49.546	0	249.00	0	5.2000	0	33.8430	0	26.737	0	246.727	0	84.2	4	27.3	4	-1E+10	1	-1E+10	1	-1E+10	1	-1E+10	1	-1E+10	1	-1E+10	1
4902551	38	C	08/27/2021	06:10	-134.898	49.546	0	250.00	0	5.1950	0	33.8430	0	26.738	0	247.717	0	83.6	4	27.1	4	-1E+10	1	-1E+10	1	-1E+10	1	-1E+10	1	-1E+10	1	-1E+10	1
4902551	38	C	08/27/2021	06:10	-134.898	49.546	0	251.00	0	5.1720	0	33.8420	0	26.740	0	248.707	0	83.1	4	26.9	4	-1E+10	1	-1E+10	1	-1E+10	1	-1E+10	1	-1E+10	1	-1E+10	1
4902551	38	C	08/27/2021	06:10	-134.898	49.546	0	251.90	0	5.1580	0	33.8450	0	26.744	0	249.599	0	82.5	4	26.7	4	-1E+10	1	-1E+10	1	-1E+10	1	-1E+10	1	-1E+10	1	-1E+10	1
4902551	38	C	08/27/2021	06:10	-134.898	49.546	0	252.90	0	5.1500	0	33.8460	0	26.746	0	250.589	0	82.1	4	26.6	4	-1E+10	1	-1E+10	1	-1E+10	1	-1E+10	1	-1E+10	1	-1E+10	1
4902551	38	C	08/27/2021	06:10	-134.898	49.546	0	253.90	0	5.1410	0	33.8460	0	26.747	0	251.579	0	81.6	4	26.4	4	-1E+10	1	-1E+10	1	-1E+10	1	-1E+10	1	-1E+10	1	-1E+10	1
4902551	38	C	08/27/2021	06:10	-134.898	49.546	0	254.80	0	5.1360	0	33.8470	0	26.748	0	252.470	0	81.1	4	26.2	4	-1E+10	1	-1E+10	1	-1E+10	1	-1E+10	1	-1E+10	1	-1E+10	1
4902551	38	C	08/27/2021	06:10	-134.898	49.546	0	255.80	0	5.1310	0	33.8480	0	26.749	0	253.461	0	80.5	4	26.1	4	-1E+10	1	-1E+10	1	-1E+10	1	-1E+10	1	-1E+10	1	-1E+10	1
4902551	38	C	08/27/2021	06:10	-134.898	49.546	0	256.80	0	5.1250	0	33.8480	0	26.750	0	254.451	0	79.9	4	25.8	4	-1E+10	1	-1E+10	1	-1E+10	1	-1E+10	1	-1E+10	1	-1E+10	1
4902551	38	C	08/27/2021	06:10	-134.898	49.546	0	257.80	0	5.1090	0	33.8470	0	26.751	0	255.441	0	79.3	4	25.7	4	-1E+10	1	-1E+10	1	-1E+10	1	-1E+10	1	-1E+10	1	-1E+10	1
4902551	38	C	08/27/2021	06:10	-134.898	49.546	0	258.80	0	5.1010	0	33.8480	0	26.753	0	256.431	0	78.8	4	25.5	4	-1E+10	1	-1E+10	1	-1E+10	1	-1E+10	1	-1E+10	1	-1E+10	1
4902551	38	C	08/27/2021	06:10	-134.898	49.546	0	259.80	0	5.0840	0	33.8520	0	26.758	0	257.422	0	78.2	4	25.3	4	-1E+10	1	-1E+10	1	-1E+10	1	-1E+10	1	-1E+10	1	-1E+10	1
4902551	38	C	08/27/2021	06:10	-134.898	49.546	0	260.80	0	5.0530	0	33.8580	0	26.766	0	258.412	0	77.8	4	25.1	4	-1E+10	1	-1E+10	1	-1E+10	1	-1E+10	1	-1E+10	1	-1E+10	1
4902551	38	C	08/27/2021	06:10	-134.898	49.546	0	261.80	0	5.0480	0	33.8570	0	26.766	0	259.402	0	77.5	4	25.0	4	-1E+10	1	-1E+10	1	-1E+10	1	-1E+10	1	-1E+10	1	-1E+10	1
4902551	38	C	08/27/2021	06:10	-134.898	49.546	0	262.90	0	5.0450	0	33.8580	0	26.767	0	260.491	0	77.1	4	24.9	4	-1E+10	1	-1E+10	1	-1E+10	1	-1E+10	1	-1E+10	1	-1E+10	1
4902551	38	C	08/27/2021	06:10	-134.898	49.546	0	263.90	0	5.0420	0	33.8580	0	26.768	0	261.481	0	76.8	4	24.8	4	-1E+10	1	-1E+10	1	-1E+10	1	-1E+10	1	-1E+10	1	-1E+10	1
4902551	38	C	08/27/2021	06:10	-134.898	49.546	0	264.90	0	5.0380	0	33.8610	0	26.770	0	262.472	0	76.4	4	24.7	4	-1E+10	1	-1E+10	1	-1E+10	1	-1E+10	1	-1E+10	1	-1E+10	1
4902551	38	C	08/27/2021	06:10	-134.898	49.546	0	265.90	0	5.0360	0	33.8610	0	26.771	0	263.462	0	76.1	4	24.6	4	-1E+10	1	-1E+10	1	-1E+10	1	-1E+10	1	-1E+10	1	-1E+10	1
4902551	38	C	08/27/2021	06:10	-134.898	49.546	0	266.90	0	5.0370	0	33.8610	0	26.771	0	264.452	0	75.7	4	24.4	4	-1E+10	1	-1E+10	1	-1E+10	1	-1E+10	1	-1E+10	1	-1E+10	1
4902551	38	C	08/27/2021	06:10	-134.898	49.546	0	268.00	0	5.0310	0	33.8630	0	26.773	0	265.541	0	75.4	4	24.3	4	-1E+10	1	-1E+10	1	-1E+10	1	-1E+10	1	-1E+10	1	-1E+10	1
4902551	38	C	08/27/2021	06:10	-134.898	49.546	0	269.00	0	5.0240	0	33.8640	0	26.774	0	266.531	0	75.0	4	24.2	4	-1E+10	1	-1E+10	1	-1E+10	1	-1E+10	1	-1E+10	1	-1E+10	1
4902551	38	C	08/27/2021	06:10	-134.898	49.546	0	270.00	0	5.0190	0	33.8630	0	26.774	0	267.522	0	74.7	4	24.1	4	-1E+10	1	-1E+10	1	-1E+10	1	-1E+10	1	-1E+10	1	-1E+10	1
4902551	38	C	08/27/2021	06:10	-134.898	49.546	0	271.00	0	5.0080	0	33.8650	0	26.777	0	268.512	0	74.4	4	24.0	4	-1E+10	1	-1E+10	1	-1E+10	1	-1E+10	1	-1E+10	1	-1E+10	1
4902551	38	C	08/27/2021	06:10	-134.898	49.546	0	272.00	0	5.0030	0	33.8650	0	26.778	0	269.502	0	74.0	4	23.9	4	-1E+10	1	-1E+10	1	-1E+10	1	-1E+10	1	-1E+10	1	-1E+10	1
4902551	38	C	08/27/2021	06:10	-134.898	49.546	0	273.00	0	4.9970	0	33.8660	0	26.779	0	270.492	0	73.7	4	23.8	4	-1E+10	1	-1E+10	1	-1E+10	1	-1E+10	1	-1E+10	1	-1E+10	1
4902551	38	C	08/27/2021	06:10	-134.898	49.546	0	274.00	0	4.9900	0	33.8660	0	26.780	0	271.482	0	73.4	4	23.7	4	-1E+10	1	-1E+10	1	-1E+10	1	-1E+10	1	-1E+10	1	-1E+10	1
4902551	38	C	08/27/2021	06:10	-134.898	49.546	0	275.10	0	4.9830	0	33.8670	0	26.781	0	272.571	0	73.0	4	23.5	4	-1E+10	1	-1E+10	1	-1E+10	1	-1E+10	1	-1E+10	1	-1E+10	1
4902551	38	C	08/27/2021	06:10	-134.898	49.546	0	276.10	0	4.9790	0	33.8670	0	26.782	0	273.562	0	72.6	4	23.4	4	-1E+10	1	-1E+10	1	-1E+10	1	-1E+10	1	-1E+10	1	-1E+10	1
4902551	38	C	08/27/2021	06:10	-134.898	49.546	0	277.10	0	4.9690	0	33.8680	0	26.784	0	274.552	0	72.2	4	23.3	4	-1E+10	1	-1E+10	1	-1E+10	1	-1E+10	1	-1E+10	1	-1E+10	1
4902551	38	C	08/27/2021	06:10	-134.898	49.546	0	278.10	0	4.9660	0	33.8680	0	26.784	0	275.542	0	71.7	4	23.1	4	-1E+10	1	-1E+10	1	-1E+10	1	-1E+10	1	-1E+10	1	-1E+10	1
4902551	38	C	08/27/2021	06:10	-134.898	49.546	0	279.20	0	4.9620	0	33.8690	0	26.785	0	276.631	0	71.4	4	23.0	4	-1E+10	1	-1E+10	1	-1E+10	1	-1E+10	1	-1E+10	1	-1E+10	1
4902551	38	C	08/27/2021	06:10	-134.898	49.546	0	280.20	0	4.9580	0	33.8710	0	26.788	0	277.621	0	71.0	4	22.9	4	-1E+10	1	-1E+10	1	-1E+10	1	-1E+10	1	-1E+10	1	-1E+10	1
4902551	38	C	08/27/2021	06:10	-134.898	49.546	0	281.30	0	4.9560	0	33.8720	0	26.789	0	278.710	0	70.6	4	22.7	4	-1E+10	1	-1E+10	1	-1E+10	1	-1E+10	1	-1E+10	1	-1E+10	1
4902551	38	C	08/27/2021	06:10	-134.898	49.546	0	282.30	0	4.9500	0	33.8750	0	26.792	0	279.700	0	70.3	4	22.6	4	-1E+10	1	-1E+10	1	-1E+10	1	-1E+10	1	-1E+10	1	-1E+10	1
4902551	38	C	08/27/2021	06:10	-134.898	49.546	0	283.30	0	4.9490	0	33.8760	0	26.793	0	280.690	0	69.9	4	22.5	4	-1E+10	1	-1E+10	1	-1E+10	1	-1E+10	1	-1E+10	1	-1E+10	1
4902551	38	C	08/27/2021	06:10	-134.898	49.546	0	284.40	0	4.9430	0	33.8770	0	26.794	0	281.780	0	69.6	4	22.4	4	-1E+10	1	-1E+10	1	-1E+10	1	-1E+10	1	-1E+10	1	-1E+10	1
4902551	38	C	08/27/2021	06:10	-134.898	49.546	0	285.40	0	4.9420	0	33.8760	0	26.793	0	282.770	0	69.2	4	22.3	4	-1E+10	1	-1E+10	1	-1E+10	1	-1E+10	1	-1E+10	1	-1E+10	1
4902551	38	C	08/27/2021	06:10	-134.898	49.546	0	286.40	0	4.9360	0	33.8770	0	26.795	0	283.760	0	68.9	4	22.2	4	-1E+10	1	-1E+10	1	-1E+10	1	-1E+10	1	-1E+10	1	-1E+10	1
4902551	38	C	08/27/2021	06:10	-134.898	49.546	0	287.50	0	4.9340	0	33.8780	0	26.796	0	284.849	0	68.5	4	22.1	4	-1E+10	1	-1E+10	1	-1E+10	1	-1E+10	1	-1E+10	1	-1E+10	1
4902551	38	C	08/27/2021	06:10	-134.898	49.546	0	288.50	0	4.9320	0	33.8790	0	26.797	0	285.839	0	68.1	4	21.9	4	-1E+10	1	-1E+10	1	-1E+10	1	-1E+10	1	-1E+10	1	-1E+10	1
4902551	38	C	08/27/2021	06:10	-134.898	49.546	0	289.60	0	4.9270	0	33.8790	0	26.797	0	286.928	0	67.7	4	21.8	4	-1E+10	1	-1E+10	1	-1E+10	1	-1E+10	1	-1E+10	1	-1E+10	1
4902551	38	C	08/27/2021	06:10	-134.898	49.546	0	290.70	0	4.9200	0	33.8800	0	26.799	0	288.017	0	67.3	4	21.7	4	-1E+10	1	-1E+10	1	-1E+10	1	-1E+10	1	-1E+10	1	-1E+10	1
4902551	38	C	08/27/2021	06:10	-134.898	49.546	0	291.70	0	4.9120	0	33.8820	0	26.802	0	289.007	0	66.9	4	21.5	4	-1E+10	1	-1E+10	1	-1E+10	1	-1E+10	1	-1E+10	1	-1E+10	1
4902551	38	C	08/27/2021	06:10	-134.898	49.546	0	292.80	0	4.9080	0	33.8830	0	26.803	0	290.096	0	66.5	4	21.4	4	-1E+10	1	-1E+10	1	-1E+10	1	-1E+10	1	-1E+10	1	-1E+10	1
4902551	38	C	08/27/2021	06:10	-134.898	49.546	0	293.80	0	4.9080	0	33.8830	0	26.803	0	291.086	0	66.1	4	21.3	4	-1E+10	1	-1E+10	1	-1E+10	1	-1E+10	1	-1E+10	1	-1E+10	1
4902551	38	C	08/27/2021	06:10	-134.898	49.546	0	294.80	0	4.9040	0	33.8840	0	26.804	0	292.076	0	65.7	4	21.1	4	-1E+10	1	-1E+10	1	-1E+10	1	-1E+10	1	-1E+10	1	-1E+10	1
4902551	38	C	08/27/2021	06:10	-134.898	49.546	0	295.90	0	4.9010	0	33.8850	0	26.805	0	293.165	0	65.3	4	21.0	4	-1E+10	1	-1E+10	1	-1E+10	1	-1E+10	1	-1E+10	1	-1E+10	1
4902551	38	C	08/27/2021	06:10	-134.898	49.546	0	296.90	0	4.8950	0	33.8860	0	26.807	0	294.156	0	64.9	4	20.9	4	-1E+10	1	-1E+10	1	-1E+10	1	-1E+10	1	-1E+10	1	-1E+10	1
4902551	38	C	08/27/2021	06:10	-134.898	49.546	0	297.90	0	4.8900	0	33.8870	0	26.808	0	295.146	0	64.5	4	20.7	4	-1E+10	1	-1E+10	1	-1E+10	1	-1E+10	1	-1E+10	1	-1E+10	1
4902551	38	C	08/27/2021	06:10	-134.898	49.546	0	299.00	0	4.8830	0	33.8900	0	26.811	0	296.235	0	64.1	4	20.6	4	-1E+10	1	-1E+10	1	-1E+10	1	-1E+10	1	-1E+10	1	-1E+10	1
4902551	38	C	08/27/2021	06:10	-134.898	49.546	0	300.00	0	4.8810	0	33.8910	0	26.812	0	297.225	0	63.7	4	20.5	4	-1E+10	1	-1E+10	1	-1E+10	1	-1E+10	1	-1E+10	1	-1E+10	1
4902551	38	C	08/27/2021	06:10	-134.898	49.546	0	300.90	0	4.8790	0	33.8920	0	26.813	0	298.116	0	63.3	4	20.4	4	-1E+10	1	-1E+10	1	-1E+10	1	-1E+10	1	-1E+10	1	-1E+10	1
4902551	38	C	08/27/2021	06:10	-134.898	49.546	0	301.90	0	4.8820	0	33.8920	0	26.813	0	299.106	0	63.0	4	20.3	4	-1E+10	1	-1E+10	1	-1E+10	1	-1E+10	1	-1E+10	1	-1E+10	1
4902551	38	C	08/27/2021	06:10	-134.898	49.546	0	303.00	0	4.8890	0	33.8990	0	26.818	0	300.195	0	62.6	4	20.2	4	-1E+10	1	-1E+10	1	-1E+10	1	-1E+10	1	-1E+10	1	-1E+10	1
4902551	38	C	08/27/2021	06:10	-134.898	49.546	0	303.80	0	4.8950	0	33.8990	0	26.817	0	300.987	0	62.3	4	20.1	4	-1E+10	1	-1E+10	1	-1E+10	1	-1E+10	1	-1E+10	1	-1E+10	1
4902551	38	C	08/27/2021	06:10	-134.898	49.546	0	305.00	0	4.8940	0	33.8990	0	26.817	0	302.175	0	61.9	4	19.9	4	-1E+10	1	-1E+10	1	-1E+10	1	-1E+10	1	-1E+10	1	-1E+10	1
4902551	38	C	08/27/2021	06:10	-134.898	49.546	0	306.10	0	4.8970	0	33.8990	0	26.817	0	303.264	0	61.4	4	19.7	4	-1E+10	1	-1E+10	1	-1E+10	1	-1E+10	1	-1E+10	1	-1E+10	1
4902551	38	C	08/27/2021	06:10	-134.898	49.546	0	306.90	0	4.8960	0	33.9000	0	26.818	0	304.056	0	61.0	4	19.6	4	-1E+10	1	-1E+10	1	-1E+10	1	-1E+10	1	-1E+10	1	-1E+10	1
4902551	38	C	08/27/2021	06:10	-134.898	49.546	0	307.70	0	4.8980	0	33.9000	0	26.817	0	304.848	0	60.6	4	19.5	4	-1E+10	1	-1E+10	1	-1E+10	1	-1E+10	1	-1E+10	1	-1E+10	1
4902551	38	C	08/27/2021	06:10	-134.898	49.546	0	308.80	0	4.9010	0	33.9000	0	26.817	0	305.937	0	59.9	4	19.3	4	-1E+10	1	-1E+10	1	-1E+10	1	-1E+10	1	-1E+10	1	-1E+10	1
4902551	38	C	08/27/2021	06:10	-134.898	49.546	0	310.00	0	4.8850	0	33.9060	0	26.824	0	307.125	0	59.2	4	19.1	4	-1E+10	1	-1E+10	1	-1E+10	1	-1E+10	1	-1E+10	1	-1E+10	1
4902551	38	C	08/27/2021	06:10	-134.898	49.546	0	310.80	0	4.8720	0	33.9080	0	26.827	0	307.917	0	58.9	4	19.0	4	-1E+10	1	-1E+10	1	-1E+10	1	-1E+10	1	-1E+10	1	-1E+10	1
4902551	38	C	08/27/2021	06:10	-134.898	49.546	0	312.00	0	4.8480	0	33.9090	0	26.830	0	309.105	0	58.5	4	18.8	4	-1E+10	1	-1E+10	1	-1E+10	1	-1E+10	1	-1E+10	1	-1E+10	1
4902551	38	C	08/27/2021	06:10	-134.898	49.546	0	313.20	0	4.8310	0	33.9120	0	26.835	0	310.293	0	58.1	4	18.7	4	-1E+10	1	-1E+10	1	-1E+10	1	-1E+10	1	-1E+10	1	-1E+10	1
4902551	38	C	08/27/2021	06:10	-134.898	49.546	0	313.90	0	4.8290	0	33.9130	0	26.836	0	310.986	0	57.8	4	18.6	4	-1E+10	1	-1E+10	1	-1E+10	1	-1E+10	1	-1E+10	1	-1E+10	1
4902551	38	C	08/27/2021	06:10	-134.898	49.546	0	314.70	0	4.8270	0	33.9130	0	26.836	0	311.778	0	57.6	4	18.5	4	-1E+10	1	-1E+10	1	-1E+10	1	-1E+10	1	-1E+10	1	-1E+10	1
4902551	38	C	08/27/2021	06:10	-134.898	49.546	0	315.90	0	4.8210	0	33.9150	0	26.838	0	312.966	0	57.2	4	18.4	4	-1E+10	1	-1E+10	1	-1E+10	1	-1E+10	1	-1E+10	1	-1E+10	1
4902551	38	C	08/27/2021	06:10	-134.898	49.546	0	317.10	0	4.8140	0	33.9170	0	26.840	0	314.154	0	56.9	4	18.3	4	-1E+10	1	-1E+10	1	-1E+10	1	-1E+10	1	-1E+10	1	-1E+10	1
4902551	38	C	08/27/2021	06:10	-134.898	49.546	0	317.90	0	4.8130	0	33.9160	0	26.840	0	314.945	0	56.7	4	18.2	4	-1E+10	1	-1E+10	1	-1E+10	1	-1E+10	1	-1E+10	1	-1E+10	1
4902551	38	C	08/27/2021	06:10	-134.898	49.546	0	318.70	0	4.8130	0	33.9160	0	26.840	0	315.737	0	56.4	4	18.1	4	-1E+10	1	-1E+10	1	-1E+10	1	-1E+10	1	-1E+10	1	-1E+10	1
4902551	38	C	08/27/2021	06:10	-134.898	49.546	0	319.90	0	4.8030	0	33.9190	0	26.843	0	316.925	0	56.0	4	18.0	4	-1E+10	1	-1E+10	1	-1E+10	1	-1E+10	1	-1E+10	1	-1E+10	1
4902551	38	C	08/27/2021	06:10	-134.898	49.546	0	321.10	0	4.7970	0	33.9190	0	26.844	0	318.113	0	55.6	4	17.9	4	-1E+10	1	-1E+10	1	-1E+10	1	-1E+10	1	-1E+10	1	-1E+10	1
4902551	38	C	08/27/2021	06:10	-134.898	49.546	0	321.80	0	4.7970	0	33.9190	0	26.844	0	318.806	0	55.4	4	17.8	4	-1E+10	1	-1E+10	1	-1E+10	1	-1E+10	1	-1E+10	1	-1E+10	1
4902551	38	C	08/27/2021	06:10	-134.898	49.546	0	322.70	0	4.7920	0	33.9200	0	26.845	0	319.697	0	55.1	4	17.7	4	-1E+10	1	-1E+10	1	-1E+10	1	-1E+10	1	-1E+10	1	-1E+10	1
4902551	38	C	08/27/2021	06:10	-134.898	49.546	0	323.90	0	4.7810	0	33.9220	0	26.848	0	320.885	0	54.7	4	17.6	4	-1E+10	1	-1E+10	1	-1E+10	1	-1E+10	1	-1E+10	1	-1E+10	1
4902551	38	C	08/27/2021	06:10	-134.898	49.546	0	325.10	0	4.7720	0	33.9240	0	26.851	0	322.073	0	54.4	4	17.5	4	-1E+10	1	-1E+10	1	-1E+10	1	-1E+10	1	-1E+10	1	-1E+10	1
4902551	38	C	08/27/2021	06:10	-134.898	49.546	0	325.90	0	4.7620	0	33.9260	0	26.853	0	322.865	0	54.2	4	17.4	4	-1E+10	1	-1E+10	1	-1E+10	1	-1E+10	1	-1E+10	1	-1E+10	1
4902551	38	C	08/27/2021	06:10	-134.898	49.546	0	326.80	0	4.7540	0	33.9270	0	26.855	0	323.756	0	54.0	4	17.3	4	-1E+10	1	-1E+10	1	-1E+10	1	-1E+10	1	-1E+10	1	-1E+10	1
4902551	38	C	08/27/2021	06:10	-134.898	49.546	0	328.00	0	4.7490	0	33.9270	0	26.856	0	324.944	0	53.7	4	17.2	4	-1E+10	1	-1E+10	1	-1E+10	1	-1E+10	1	-1E+10	1	-1E+10	1
4902551	38	C	08/27/2021	06:10	-134.898	49.546	0	329.30	0	4.7350	0	33.9260	0	26.856	0	326.231	0	53.4	4	17.1	4	-1E+10	1	-1E+10	1	-1E+10	1	-1E+10	1	-1E+10	1	-1E+10	1
4902551	38	C	08/27/2021	06:10	-134.898	49.546	0	330.10	0	4.7230	0	33.9300	0	26.861	0	327.022	0	53.3	4	17.1	4	-1E+10	1	-1E+10	1	-1E+10	1	-1E+10	1	-1E+10	1	-1E+10	1
4902551	38	C	08/27/2021	06:10	-134.898	49.546	0	331.00	0	4.7190	0	33.9310	0	26.862	0	327.913	0	53.2	4	17.1	4	-1E+10	1	-1E+10	1	-1E+10	1	-1E+10	1	-1E+10	1	-1E+10	1
4902551	38	C	08/27/2021	06:10	-134.898	49.546	0	331.80	0	4.7170	0	33.9320	0	26.863	0	328.705	0	53.1	4	17.0	4	-1E+10	1	-1E+10	1	-1E+10	1	-1E+10	1	-1E+10	1	-1E+10	1
4902551	38	C	08/27/2021	06:10	-134.898	49.546	0	332.70	0	4.7160	0	33.9320	0	26.863	0	329.596	0	52.9	4	17.0	4	-1E+10	1	-1E+10	1	-1E+10	1	-1E+10	1	-1E+10	1	-1E+10	1
4902551	38	C	08/27/2021	06:10	-134.898	49.546	0	333.90	0	4.6980	0	33.9330	0	26.866	0	330.784	0	52.8	4	16.9	4	-1E+10	1	-1E+10	1	-1E+10	1	-1E+10	1	-1E+10	1	-1E+10	1
4902551	38	C	08/27/2021	06:10	-134.898	49.546	0	335.30	0	4.6830	0	33.9320	0	26.867	0	332.170	0	52.6	4	16.8	4	-1E+10	1	-1E+10	1	-1E+10	1	-1E+10	1	-1E+10	1	-1E+10	1
4902551	38	C	08/27/2021	06:10	-134.898	49.546	0	336.10	0	4.6740	0	33.9320	0	26.868	0	332.962	0	52.4	4	16.8	4	-1E+10	1	-1E+10	1	-1E+10	1	-1E+10	1	-1E+10	1	-1E+10	1
4902551	38	C	08/27/2021	06:10	-134.898	49.546	0	337.00	0	4.6680	0	33.9320	0	26.869	0	333.853	0	52.2	4	16.7	4	-1E+10	1	-1E+10	1	-1E+10	1	-1E+10	1	-1E+10	1	-1E+10	1
4902551	38	C	08/27/2021	06:10	-134.898	49.546	0	337.90	0	4.6680	0	33.9320	0	26.869	0	334.743	0	52.0	4	16.7	4	-1E+10	1	-1E+10	1	-1E+10	1	-1E+10	1	-1E+10	1	-1E+10	1
4902551	38	C	08/27/2021	06:10	-134.898	49.546	0	338.80	0	4.6600	0	33.9330	0	26.870	0	335.634	0	51.8	4	16.6	4	-1E+10	1	-1E+10	1	-1E+10	1	-1E+10	1	-1E+10	1	-1E+10	1
4902551	38	C	08/27/2021	06:10	-134.898	49.546	0	339.60	0	4.6570	0	33.9340	0	26.871	0	336.426	0	51.6	4	16.5	4	-1E+10	1	-1E+10	1	-1E+10	1	-1E+10	1	-1E+10	1	-1E+10	1
4902551	38	C	08/27/2021	06:10	-134.898	49.546	0	340.90	0	4.6510	0	33.9350	0	26.873	0	337.713	0	51.3	4	16.4	4	-1E+10	1	-1E+10	1	-1E+10	1	-1E+10	1	-1E+10	1	-1E+10	1
4902551	38	C	08/27/2021	06:10	-134.898	49.546	0	342.30	0	4.6420	0	33.9350	0	26.874	0	339.099	0	51.0	4	16.3	4	-1E+10	1	-1E+10	1	-1E+10	1	-1E+10	1	-1E+10	1	-1E+10	1
4902551	38	C	08/27/2021	06:10	-134.898	49.546	0	343.20	0	4.6380	0	33.9360	0	26.875	0	339.990	0	50.7	4	16.2	4	-1E+10	1	-1E+10	1	-1E+10	1	-1E+10	1	-1E+10	1	-1E+10	1
4902551	38	C	08/27/2021	06:10	-134.898	49.546	0	344.10	0	4.6360	0	33.9400	0	26.879	0	340.880	0	50.5	4	16.2	4	-1E+10	1	-1E+10	1	-1E+10	1	-1E+10	1	-1E+10	1	-1E+10	1
4902551	38	C	08/27/2021	06:10	-134.898	49.546	0	345.00	0	4.6300	0	33.9400	0	26.879	0	341.771	0	50.3	4	16.1	4	-1E+10	1	-1E+10	1	-1E+10	1	-1E+10	1	-1E+10	1	-1E+10	1
4902551	38	C	08/27/2021	06:10	-134.898	49.546	0	345.90	0	4.6260	0	33.9400	0	26.880	0	342.662	0	50.1	4	16.0	4	-1E+10	1	-1E+10	1	-1E+10	1	-1E+10	1	-1E+10	1	-1E+10	1
4902551	38	C	08/27/2021	06:10	-134.898	49.546	0	346.80	0	4.6180	0	33.9410	0	26.881	0	343.553	0	49.9	4	16.0	4	-1E+10	1	-1E+10	1	-1E+10	1	-1E+10	1	-1E+10	1	-1E+10	1
4902551	38	C	08/27/2021	06:10	-134.898	49.546	0	347.70	0	4.6130	0	33.9400	0	26.881	0	344.444	0	49.7	4	15.9	4	-1E+10	1	-1E+10	1	-1E+10	1	-1E+10	1	-1E+10	1	-1E+10	1
4902551	38	C	08/27/2021	06:10	-134.898	49.546	0	348.60	0	4.6110	0	33.9400	0	26.881	0	345.335	0	49.5	4	15.8	4	-1E+10	1	-1E+10	1	-1E+10	1	-1E+10	1	-1E+10	1	-1E+10	1
4902551	38	C	08/27/2021	06:10	-134.898	49.546	0	349.60	0	4.6020	0	33.9420	0	26.884	0	346.324	0	49.3	4	15.8	4	-1E+10	1	-1E+10	1	-1E+10	1	-1E+10	1	-1E+10	1	-1E+10	1
4902551	38	C	08/27/2021	06:10	-134.898	49.546	0	352.80	0	4.5840	0	33.9450	0	26.888	0	349.492	0	48.5	4	15.5	4	-1E+10	1	-1E+10	1	-1E+10	1	-1E+10	1	-1E+10	1	-1E+10	1
4902551	38	C	08/27/2021	06:10	-134.898	49.546	0	357.80	0	4.5530	0	33.9520	0	26.897	0	354.441	0	47.6	4	15.2	4	-1E+10	1	-1E+10	1	-1E+10	1	-1E+10	1	-1E+10	1	-1E+10	1
4902551	38	C	08/27/2021	06:10	-134.898	49.546	0	363.00	0	4.5430	0	33.9570	0	26.902	0	359.587	0	46.7	4	14.9	4	-1E+10	1	-1E+10	1	-1E+10	1	-1E+10	1	-1E+10	1	-1E+10	1
4902551	38	C	08/27/2021	06:10	-134.898	49.546	0	368.30	0	4.5340	0	33.9630	0	26.908	0	364.833	0	45.7	4	14.6	4	-1E+10	1	-1E+10	1	-1E+10	1	-1E+10	1	-1E+10	1	-1E+10	1
4902551	38	C	08/27/2021	06:10	-134.898	49.546	0	373.30	0	4.5180	0	33.9700	0	26.915	0	369.781	0	45.0	4	14.4	4	-1E+10	1	-1E+10	1	-1E+10	1	-1E+10	1	-1E+10	1	-1E+10	1
4902551	38	C	08/27/2021	06:10	-134.898	49.546	0	378.30	0	4.5040	0	33.9730	0	26.919	0	374.730	0	44.5	4	14.2	4	-1E+10	1	-1E+10	1	-1E+10	1	-1E+10	1	-1E+10	1	-1E+10	1
4902551	38	C	08/27/2021	06:10	-134.898	49.546	0	383.30	0	4.4880	0	33.9780	0	26.925	0	379.678	0	44.1	4	14.1	4	-1E+10	1	-1E+10	1	-1E+10	1	-1E+10	1	-1E+10	1	-1E+10	1
4902551	38	C	08/27/2021	06:10	-134.898	49.546	0	387.90	0	4.4480	0	33.9820	0	26.933	0	384.230	0	43.9	4	14.0	4	-1E+10	1	-1E+10	1	-1E+10	1	-1E+10	1	-1E+10	1	-1E+10	1
4902551	38	C	08/27/2021	06:10	-134.898	49.546	0	392.50	0	4.4010	0	33.9810	0	26.937	0	388.782	0	43.4	4	13.8	4	-1E+10	1	-1E+10	1	-1E+10	1	-1E+10	1	-1E+10	1	-1E+10	1
4902551	38	C	08/27/2021	06:10	-134.898	49.546	0	397.80	0	4.3740	0	33.9870	0	26.944	0	394.027	0	42.3	4	13.5	4	-1E+10	1	-1E+10	1	-1E+10	1	-1E+10	1	-1E+10	1	-1E+10	1
4902551	38	C	08/27/2021	06:10	-134.898	49.546	0	403.00	0	4.3570	0	33.9940	0	26.952	0	399.173	0	41.2	4	13.1	4	-1E+10	1	-1E+10	1	-1E+10	1	-1E+10	1	-1E+10	1	-1E+10	1
4902551	38	C	08/27/2021	06:10	-134.898	49.546	0	407.80	0	4.3410	0	34.0000	0	26.958	0	403.922	0	40.3	4	12.8	4	-1E+10	1	-1E+10	1	-1E+10	1	-1E+10	1	-1E+10	1	-1E+10	1
4902551	38	C	08/27/2021	06:10	-134.898	49.546	0	412.90	0	4.3250	0	34.0070	0	26.966	0	408.969	0	39.4	4	12.5	4	-1E+10	1	-1E+10	1	-1E+10	1	-1E+10	1	-1E+10	1	-1E+10	1
4902551	38	C	08/27/2021	06:10	-134.898	49.546	0	417.80	0	4.3110	0	34.0140	0	26.973	0	413.817	0	38.5	4	12.2	4	-1E+10	1	-1E+10	1	-1E+10	1	-1E+10	1	-1E+10	1	-1E+10	1
4902551	38	C	08/27/2021	06:10	-134.898	49.546	0	422.90	0	4.3020	0	34.0180	0	26.977	0	418.864	0	37.7	4	12.0	4	-1E+10	1	-1E+10	1	-1E+10	1	-1E+10	1	-1E+10	1	-1E+10	1
4902551	38	C	08/27/2021	06:10	-134.898	49.546	0	428.10	0	4.2890	0	34.0250	0	26.984	0	424.009	0	36.9	4	11.7	4	-1E+10	1	-1E+10	1	-1E+10	1	-1E+10	1	-1E+10	1	-1E+10	1
4902551	38	C	08/27/2021	06:10	-134.898	49.546	0	433.00	0	4.2790	0	34.0290	0	26.988	0	428.857	0	36.5	4	11.6	4	-1E+10	1	-1E+10	1	-1E+10	1	-1E+10	1	-1E+10	1	-1E+10	1
4902551	38	C	08/27/2021	06:10	-134.898	49.546	0	438.10	0	4.2770	0	34.0310	0	26.990	0	433.903	0	35.9	4	11.4	4	-1E+10	1	-1E+10	1	-1E+10	1	-1E+10	1	-1E+10	1	-1E+10	1
4902551	38	C	08/27/2021	06:10	-134.898	49.546	0	443.10	0	4.2740	0	34.0330	0	26.992	0	438.849	0	35.1	4	11.1	4	-1E+10	1	-1E+10	1	-1E+10	1	-1E+10	1	-1E+10	1	-1E+10	1
4902551	38	C	08/27/2021	06:10	-134.898	49.546	0	447.80	0	4.2670	0	34.0360	0	26.995	0	443.499	0	34.0	4	10.8	4	-1E+10	1	-1E+10	1	-1E+10	1	-1E+10	1	-1E+10	1	-1E+10	1
4902551	38	C	08/27/2021	06:10	-134.898	49.546	0	452.60	0	4.2340	0	34.0470	0	27.007	0	448.248	0	33.2	4	10.5	4	-1E+10	1	-1E+10	1	-1E+10	1	-1E+10	1	-1E+10	1	-1E+10	1
4902551	38	C	08/27/2021	06:10	-134.898	49.546	0	458.00	0	4.2200	0	34.0520	0	27.013	0	453.590	0	32.6	4	10.3	4	-1E+10	1	-1E+10	1	-1E+10	1	-1E+10	1	-1E+10	1	-1E+10	1
4902551	38	C	08/27/2021	06:10	-134.898	49.546	0	463.00	0	4.2100	0	34.0570	0	27.018	0	458.537	0	31.9	4	10.1	4	-1E+10	1	-1E+10	1	-1E+10	1	-1E+10	1	-1E+10	1	-1E+10	1
4902551	38	C	08/27/2021	06:10	-134.898	49.546	0	467.80	0	4.1970	0	34.0620	0	27.023	0	463.285	0	31.3	4	9.9	4	-1E+10	1	-1E+10	1	-1E+10	1	-1E+10	1	-1E+10	1	-1E+10	1
4902551	38	C	08/27/2021	06:10	-134.898	49.546	0	472.90	0	4.1790	0	34.0680	0	27.030	0	468.330	0	30.9	4	9.8	4	-1E+10	1	-1E+10	1	-1E+10	1	-1E+10	1	-1E+10	1	-1E+10	1
4902551	38	C	08/27/2021	06:10	-134.898	49.546	0	477.90	0	4.1710	0	34.0710	0	27.033	0	473.276	0	30.6	4	9.7	4	-1E+10	1	-1E+10	1	-1E+10	1	-1E+10	1	-1E+10	1	-1E+10	1
4902551	38	C	08/27/2021	06:10	-134.898	49.546	0	483.00	0	4.1640	0	34.0740	0	27.036	0	478.321	0	30.5	4	9.7	4	-1E+10	1	-1E+10	1	-1E+10	1	-1E+10	1	-1E+10	1	-1E+10	1
4902551	38	C	08/27/2021	06:10	-134.898	49.546	0	487.90	0	4.1530	0	34.0750	0	27.038	0	483.168	0	30.2	4	9.6	4	-1E+10	1	-1E+10	1	-1E+10	1	-1E+10	1	-1E+10	1	-1E+10	1
4902551	38	C	08/27/2021	06:10	-134.898	49.546	0	492.90	0	4.1410	0	34.0790	0	27.043	0	488.113	0	29.7	4	9.4	4	-1E+10	1	-1E+10	1	-1E+10	1	-1E+10	1	-1E+10	1	-1E+10	1
4902551	38	C	08/27/2021	06:10	-134.898	49.546	0	497.90	0	4.1270	0	34.0840	0	27.048	0	493.059	0	29.3	4	9.3	4	-1E+10	1	-1E+10	1	-1E+10	1	-1E+10	1	-1E+10	1	-1E+10	1
4902551	38	C	08/27/2021	06:10	-134.898	49.546	0	502.90	0	4.1040	0	34.0910	0	27.056	0	498.004	0	29.0	4	9.2	4	-1E+10	1	-1E+10	1	-1E+10	1	-1E+10	1	-1E+10	1	-1E+10	1
4902551	38	C	08/27/2021	06:10	-134.898	49.546	0	507.80	0	4.0930	0	34.0940	0	27.060	0	502.850	0	28.7	4	9.1	4	-1E+10	1	-1E+10	1	-1E+10	1	-1E+10	1	-1E+10	1	-1E+10	1
4902551	38	C	08/27/2021	06:10	-134.898	49.546	0	512.80	0	4.0780	0	34.0980	0	27.064	0	507.796	0	28.3	4	9.0	4	-1E+10	1	-1E+10	1	-1E+10	1	-1E+10	1	-1E+10	1	-1E+10	1
4902551	38	C	08/27/2021	06:10	-134.898	49.546	0	517.70	0	4.0640	0	34.1030	0	27.070	0	512.642	0	28.0	4	8.8	4	-1E+10	1	-1E+10	1	-1E+10	1	-1E+10	1	-1E+10	1	-1E+10	1
4902551	38	C	08/27/2021	06:10	-134.898	49.546	0	522.80	0	4.0540	0	34.1050	0	27.073	0	517.686	0	27.6	4	8.7	4	-1E+10	1	-1E+10	1	-1E+10	1	-1E+10	1	-1E+10	1	-1E+10	1
4902551	38	C	08/27/2021	06:10	-134.898	49.546	0	527.90	0	4.0450	0	34.1100	0	27.078	0	522.729	0	27.1	4	8.6	4	-1E+10	1	-1E+10	1	-1E+10	1	-1E+10	1	-1E+10	1	-1E+10	1
4902551	38	C	08/27/2021	06:10	-134.898	49.546	0	533.00	0	4.0370	0	34.1130	0	27.081	0	527.773	0	26.8	4	8.5	4	-1E+10	1	-1E+10	1	-1E+10	1	-1E+10	1	-1E+10	1	-1E+10	1
4902551	38	C	08/27/2021	06:10	-134.898	49.546	0	537.80	0	4.0240	0	34.1150	0	27.084	0	532.520	0	26.4	4	8.3	4	-1E+10	1	-1E+10	1	-1E+10	1	-1E+10	1	-1E+10	1	-1E+10	1
4902551	38	C	08/27/2021	06:10	-134.898	49.546	0	542.60	0	4.0110	0	34.1210	0	27.090	0	537.266	0	26.1	4	8.2	4	-1E+10	1	-1E+10	1	-1E+10	1	-1E+10	1	-1E+10	1	-1E+10	1
4902551	38	C	08/27/2021	06:10	-134.898	49.546	0	547.50	0	3.9910	0	34.1250	0	27.095	0	542.112	0	25.8	4	8.2	4	-1E+10	1	-1E+10	1	-1E+10	1	-1E+10	1	-1E+10	1	-1E+10	1
4902551	38	C	08/27/2021	06:10	-134.898	49.546	0	552.50	0	3.9830	0	34.1280	0	27.098	0	547.056	0	25.4	4	8.0	4	-1E+10	1	-1E+10	1	-1E+10	1	-1E+10	1	-1E+10	1	-1E+10	1
4902551	38	C	08/27/2021	06:10	-134.898	49.546	0	557.50	0	3.9680	0	34.1320	0	27.103	0	552.000	0	24.9	4	7.9	4	-1E+10	1	-1E+10	1	-1E+10	1	-1E+10	1	-1E+10	1	-1E+10	1
4902551	38	C	08/27/2021	06:10	-134.898	49.546	0	562.50	0	3.9540	0	34.1370	0	27.109	0	556.944	0	24.4	4	7.7	4	-1E+10	1	-1E+10	1	-1E+10	1	-1E+10	1	-1E+10	1	-1E+10	1
4902551	38	C	08/27/2021	06:10	-134.898	49.546	0	567.60	0	3.9310	0	34.1440	0	27.116	0	561.987	0	23.8	4	7.5	4	-1E+10	1	-1E+10	1	-1E+10	1	-1E+10	1	-1E+10	1	-1E+10	1
4902551	38	C	08/27/2021	06:10	-134.898	49.546	0	572.60	0	3.9120	0	34.1500	0	27.123	0	566.931	0	23.4	4	7.4	4	-1E+10	1	-1E+10	1	-1E+10	1	-1E+10	1	-1E+10	1	-1E+10	1
4902551	38	C	08/27/2021	06:10	-134.898	49.546	0	577.80	0	3.8980	0	34.1550	0	27.129	0	572.072	0	23.0	4	7.3	4	-1E+10	1	-1E+10	1	-1E+10	1	-1E+10	1	-1E+10	1	-1E+10	1
4902551	38	C	08/27/2021	06:10	-134.898	49.546	0	583.10	0	3.8800	0	34.1600	0	27.134	0	577.312	0	22.8	4	7.2	4	-1E+10	1	-1E+10	1	-1E+10	1	-1E+10	1	-1E+10	1	-1E+10	1
4902551	38	C	08/27/2021	06:10	-134.898	49.546	0	587.90	0	3.8670	0	34.1630	0	27.138	0	582.058	0	22.6	4	7.1	4	-1E+10	1	-1E+10	1	-1E+10	1	-1E+10	1	-1E+10	1	-1E+10	1
4902551	38	C	08/27/2021	06:10	-134.898	49.546	0	592.70	0	3.8590	0	34.1660	0	27.141	0	586.803	0	22.4	4	7.0	4	-1E+10	1	-1E+10	1	-1E+10	1	-1E+10	1	-1E+10	1	-1E+10	1
4902551	38	C	08/27/2021	06:10	-134.898	49.546	0	598.00	0	3.8480	0	34.1690	0	27.145	0	592.043	0	22.1	4	7.0	4	-1E+10	1	-1E+10	1	-1E+10	1	-1E+10	1	-1E+10	1	-1E+10	1
4902551	38	C	08/27/2021	06:10	-134.898	49.546	0	602.90	0	3.8390	0	34.1710	0	27.147	0	596.887	0	21.9	4	6.9	4	-1E+10	1	-1E+10	1	-1E+10	1	-1E+10	1	-1E+10	1	-1E+10	1
4902551	38	C	08/27/2021	06:10	-134.898	49.546	0	607.70	0	3.8250	0	34.1760	0	27.153	0	601.632	0	21.7	4	6.8	4	-1E+10	1	-1E+10	1	-1E+10	1	-1E+10	1	-1E+10	1	-1E+10	1
4902551	38	C	08/27/2021	06:10	-134.898	49.546	0	613.10	0	3.8130	0	34.1790	0	27.156	0	606.971	0	21.5	4	6.7	4	-1E+10	1	-1E+10	1	-1E+10	1	-1E+10	1	-1E+10	1	-1E+10	1
4902551	38	C	08/27/2021	06:10	-134.898	49.546	0	618.00	0	3.8020	0	34.1820	0	27.160	0	611.814	0	21.3	4	6.7	4	-1E+10	1	-1E+10	1	-1E+10	1	-1E+10	1	-1E+10	1	-1E+10	1
4902551	38	C	08/27/2021	06:10	-134.898	49.546	0	623.00	0	3.7940	0	34.1830	0	27.162	0	616.757	0	21.1	4	6.6	4	-1E+10	1	-1E+10	1	-1E+10	1	-1E+10	1	-1E+10	1	-1E+10	1
4902551	38	C	08/27/2021	06:10	-134.898	49.546	0	627.90	0	3.7860	0	34.1860	0	27.165	0	621.601	0	20.9	4	6.6	4	-1E+10	1	-1E+10	1	-1E+10	1	-1E+10	1	-1E+10	1	-1E+10	1
4902551	38	C	08/27/2021	06:10	-134.898	49.546	0	632.90	0	3.7780	0	34.1880	0	27.167	0	626.543	0	20.8	4	6.5	4	-1E+10	1	-1E+10	1	-1E+10	1	-1E+10	1	-1E+10	1	-1E+10	1
4902551	38	C	08/27/2021	06:10	-134.898	49.546	0	637.90	0	3.7690	0	34.1910	0	27.171	0	631.485	0	20.6	4	6.5	4	-1E+10	1	-1E+10	1	-1E+10	1	-1E+10	1	-1E+10	1	-1E+10	1
4902551	38	C	08/27/2021	06:10	-134.898	49.546	0	642.90	0	3.7630	0	34.1920	0	27.172	0	636.427	0	20.5	4	6.4	4	-1E+10	1	-1E+10	1	-1E+10	1	-1E+10	1	-1E+10	1	-1E+10	1
4902551	38	C	08/27/2021	06:10	-134.898	49.546	0	647.80	0	3.7590	0	34.1930	0	27.173	0	641.270	0	20.3	4	6.4	4	-1E+10	1	-1E+10	1	-1E+10	1	-1E+10	1	-1E+10	1	-1E+10	1
4902551	38	C	08/27/2021	06:10	-134.898	49.546	0	652.80	0	3.7530	0	34.1950	0	27.175	0	646.212	0	20.2	4	6.3	4	-1E+10	1	-1E+10	1	-1E+10	1	-1E+10	1	-1E+10	1	-1E+10	1
4902551	38	C	08/27/2021	06:10	-134.898	49.546	0	657.70	0	3.7420	0	34.1980	0	27.179	0	651.055	0	20.0	4	6.3	4	-1E+10	1	-1E+10	1	-1E+10	1	-1E+10	1	-1E+10	1	-1E+10	1
4902551	38	C	08/27/2021	06:10	-134.898	49.546	0	662.60	0	3.7370	0	34.2000	0	27.181	0	655.898	0	19.8	4	6.2	4	-1E+10	1	-1E+10	1	-1E+10	1	-1E+10	1	-1E+10	1	-1E+10	1
4902551	38	C	08/27/2021	06:10	-134.898	49.546	0	668.00	0	3.7320	0	34.2010	0	27.182	0	661.235	0	19.6	4	6.1	4	-1E+10	1	-1E+10	1	-1E+10	1	-1E+10	1	-1E+10	1	-1E+10	1
4902551	38	C	08/27/2021	06:10	-134.898	49.546	0	672.80	0	3.7230	0	34.2030	0	27.185	0	665.978	0	19.3	4	6.0	4	-1E+10	1	-1E+10	1	-1E+10	1	-1E+10	1	-1E+10	1	-1E+10	1
4902551	38	C	08/27/2021	06:10	-134.898	49.546	0	677.60	0	3.7120	0	34.2070	0	27.189	0	670.722	0	19.0	4	5.9	4	-1E+10	1	-1E+10	1	-1E+10	1	-1E+10	1	-1E+10	1	-1E+10	1
4902551	38	C	08/27/2021	06:10	-134.898	49.546	0	683.00	0	3.7040	0	34.2100	0	27.192	0	676.058	0	18.7	4	5.9	4	-1E+10	1	-1E+10	1	-1E+10	1	-1E+10	1	-1E+10	1	-1E+10	1
4902551	38	C	08/27/2021	06:10	-134.898	49.546	0	687.80	0	3.6930	0	34.2130	0	27.196	0	680.802	0	18.4	4	5.8	4	-1E+10	1	-1E+10	1	-1E+10	1	-1E+10	1	-1E+10	1	-1E+10	1
4902551	38	C	08/27/2021	06:10	-134.898	49.546	0	693.10	0	3.6760	0	34.2170	0	27.201	0	686.039	0	18.1	4	5.7	4	-1E+10	1	-1E+10	1	-1E+10	1	-1E+10	1	-1E+10	1	-1E+10	1
4902551	38	C	08/27/2021	06:10	-134.898	49.546	0	698.20	0	3.6610	0	34.2210	0	27.206	0	691.079	0	17.6	4	5.5	4	-1E+10	1	-1E+10	1	-1E+10	1	-1E+10	1	-1E+10	1	-1E+10	1
4902551	38	C	08/27/2021	06:10	-134.898	49.546	0	703.00	0	3.6590	0	34.2250	0	27.209	0	695.822	0	17.2	4	5.4	4	-1E+10	1	-1E+10	1	-1E+10	1	-1E+10	1	-1E+10	1	-1E+10	1
4902551	38	C	08/27/2021	06:10	-134.898	49.546	0	707.90	0	3.6470	0	34.2290	0	27.213	0	700.663	0	16.9	4	5.3	4	-1E+10	1	-1E+10	1	-1E+10	1	-1E+10	1	-1E+10	1	-1E+10	1
4902551	38	C	08/27/2021	06:10	-134.898	49.546	0	712.80	0	3.6360	0	34.2330	0	27.218	0	705.505	0	16.6	4	5.2	4	-1E+10	1	-1E+10	1	-1E+10	1	-1E+10	1	-1E+10	1	-1E+10	1
4902551	38	C	08/27/2021	06:10	-134.898	49.546	0	717.80	0	3.6130	0	34.2390	0	27.225	0	710.445	0	16.3	4	5.1	4	-1E+10	1	-1E+10	1	-1E+10	1	-1E+10	1	-1E+10	1	-1E+10	1
4902551	38	C	08/27/2021	06:10	-134.898	49.546	0	722.90	0	3.5860	0	34.2460	0	27.233	0	715.484	0	16.1	4	5.0	4	-1E+10	1	-1E+10	1	-1E+10	1	-1E+10	1	-1E+10	1	-1E+10	1
4902551	38	C	08/27/2021	06:10	-134.898	49.546	0	728.10	0	3.5650	0	34.2500	0	27.238	0	720.622	0	16.0	4	5.0	4	-1E+10	1	-1E+10	1	-1E+10	1	-1E+10	1	-1E+10	1	-1E+10	1
4902551	38	C	08/27/2021	06:10	-134.898	49.546	0	732.90	0	3.5550	0	34.2530	0	27.242	0	725.364	0	15.9	4	5.0	4	-1E+10	1	-1E+10	1	-1E+10	1	-1E+10	1	-1E+10	1	-1E+10	1
4902551	38	C	08/27/2021	06:10	-134.898	49.546	0	737.90	0	3.5430	0	34.2550	0	27.244	0	730.304	0	15.7	4	4.9	4	-1E+10	1	-1E+10	1	-1E+10	1	-1E+10	1	-1E+10	1	-1E+10	1
4902551	38	C	08/27/2021	06:10	-134.898	49.546	0	742.90	0	3.5340	0	34.2580	0	27.248	0	735.244	0	15.6	4	4.9	4	-1E+10	1	-1E+10	1	-1E+10	1	-1E+10	1	-1E+10	1	-1E+10	1
4902551	38	C	08/27/2021	06:10	-134.898	49.546	0	747.60	0	3.5230	0	34.2600	0	27.250	0	739.887	0	15.4	4	4.8	4	-1E+10	1	-1E+10	1	-1E+10	1	-1E+10	1	-1E+10	1	-1E+10	1
4902551	38	C	08/27/2021	06:10	-134.898	49.546	0	752.90	0	3.5010	0	34.2650	0	27.256	0	745.123	0	15.3	4	4.8	4	-1E+10	1	-1E+10	1	-1E+10	1	-1E+10	1	-1E+10	1	-1E+10	1
4902551	38	C	08/27/2021	06:10	-134.898	49.546	0	758.40	0	3.4910	0	34.2680	0	27.260	0	750.556	0	15.2	4	4.7	4	-1E+10	1	-1E+10	1	-1E+10	1	-1E+10	1	-1E+10	1	-1E+10	1
4902551	38	C	08/27/2021	06:10	-134.898	49.546	0	762.90	0	3.4810	0	34.2700	0	27.262	0	755.002	0	15.1	4	4.7	4	-1E+10	1	-1E+10	1	-1E+10	1	-1E+10	1	-1E+10	1	-1E+10	1
4902551	38	C	08/27/2021	06:10	-134.898	49.546	0	767.60	0	3.4740	0	34.2710	0	27.264	0	759.644	0	15.0	4	4.7	4	-1E+10	1	-1E+10	1	-1E+10	1	-1E+10	1	-1E+10	1	-1E+10	1
4902551	38	C	08/27/2021	06:10	-134.898	49.546	0	772.80	0	3.4630	0	34.2740	0	27.267	0	764.781	0	14.9	4	4.6	4	-1E+10	1	-1E+10	1	-1E+10	1	-1E+10	1	-1E+10	1	-1E+10	1
4902551	38	C	08/27/2021	06:10	-134.898	49.546	0	777.90	0	3.4520	0	34.2780	0	27.272	0	769.819	0	14.8	4	4.6	4	-1E+10	1	-1E+10	1	-1E+10	1	-1E+10	1	-1E+10	1	-1E+10	1
4902551	38	C	08/27/2021	06:10	-134.898	49.546	0	783.00	0	3.4440	0	34.2800	0	27.274	0	774.856	0	14.7	4	4.6	4	-1E+10	1	-1E+10	1	-1E+10	1	-1E+10	1	-1E+10	1	-1E+10	1
4902551	38	C	08/27/2021	06:10	-134.898	49.546	0	788.00	0	3.4370	0	34.2810	0	27.276	0	779.795	0	14.7	4	4.6	4	-1E+10	1	-1E+10	1	-1E+10	1	-1E+10	1	-1E+10	1	-1E+10	1
4902551	38	C	08/27/2021	06:10	-134.898	49.546	0	793.20	0	3.4260	0	34.2840	0	27.279	0	784.931	0	14.6	4	4.5	4	-1E+10	1	-1E+10	1	-1E+10	1	-1E+10	1	-1E+10	1	-1E+10	1
4902551	38	C	08/27/2021	06:10	-134.898	49.546	0	798.10	0	3.4140	0	34.2860	0	27.282	0	789.771	0	14.5	4	4.5	4	-1E+10	1	-1E+10	1	-1E+10	1	-1E+10	1	-1E+10	1	-1E+10	1
4902551	38	C	08/27/2021	06:10	-134.898	49.546	0	803.20	0	3.4110	0	34.2870	0	27.283	0	794.808	0	14.5	4	4.5	4	-1E+10	1	-1E+10	1	-1E+10	1	-1E+10	1	-1E+10	1	-1E+10	1
4902551	38	C	08/27/2021	06:10	-134.898	49.546	0	807.90	0	3.4080	0	34.2880	0	27.284	0	799.450	0	14.5	4	4.5	4	-1E+10	1	-1E+10	1	-1E+10	1	-1E+10	1	-1E+10	1	-1E+10	1
4902551	38	C	08/27/2021	06:10	-134.898	49.546	0	812.70	0	3.3980	0	34.2890	0	27.286	0	804.190	0	14.4	4	4.5	4	-1E+10	1	-1E+10	1	-1E+10	1	-1E+10	1	-1E+10	1	-1E+10	1
4902551	38	C	08/27/2021	06:10	-134.898	49.546	0	818.10	0	3.3880	0	34.2910	0	27.288	0	809.523	0	14.4	4	4.5	4	-1E+10	1	-1E+10	1	-1E+10	1	-1E+10	1	-1E+10	1	-1E+10	1
4902551	38	C	08/27/2021	06:10	-134.898	49.546	0	823.10	0	3.3790	0	34.2920	0	27.290	0	814.461	0	14.3	4	4.5	4	-1E+10	1	-1E+10	1	-1E+10	1	-1E+10	1	-1E+10	1	-1E+10	1
4902551	38	C	08/27/2021	06:10	-134.898	49.546	0	828.00	0	3.3650	0	34.2950	0	27.294	0	819.300	0	14.3	4	4.4	4	-1E+10	1	-1E+10	1	-1E+10	1	-1E+10	1	-1E+10	1	-1E+10	1
4902551	38	C	08/27/2021	06:10	-134.898	49.546	0	833.00	0	3.3590	0	34.2970	0	27.296	0	824.238	0	14.2	4	4.4	4	-1E+10	1	-1E+10	1	-1E+10	1	-1E+10	1	-1E+10	1	-1E+10	1
4902551	38	C	08/27/2021	06:10	-134.898	49.546	0	838.00	0	3.3520	0	34.2980	0	27.298	0	829.175	0	14.2	4	4.4	4	-1E+10	1	-1E+10	1	-1E+10	1	-1E+10	1	-1E+10	1	-1E+10	1
4902551	38	C	08/27/2021	06:10	-134.898	49.546	0	843.10	0	3.3430	0	34.3000	0	27.300	0	834.211	0	14.1	4	4.4	4	-1E+10	1	-1E+10	1	-1E+10	1	-1E+10	1	-1E+10	1	-1E+10	1
4902551	38	C	08/27/2021	06:10	-134.898	49.546	0	847.70	0	3.3350	0	34.3020	0	27.302	0	838.754	0	14.0	4	4.4	4	-1E+10	1	-1E+10	1	-1E+10	1	-1E+10	1	-1E+10	1	-1E+10	1
4902551	38	C	08/27/2021	06:10	-134.898	49.546	0	852.70	0	3.3240	0	34.3040	0	27.305	0	843.691	0	14.0	4	4.3	4	-1E+10	1	-1E+10	1	-1E+10	1	-1E+10	1	-1E+10	1	-1E+10	1
4902551	38	C	08/27/2021	06:10	-134.898	49.546	0	857.80	0	3.3150	0	34.3060	0	27.307	0	848.726	0	13.9	4	4.3	4	-1E+10	1	-1E+10	1	-1E+10	1	-1E+10	1	-1E+10	1	-1E+10	1
4902551	38	C	08/27/2021	06:10	-134.898	49.546	0	862.80	0	3.3070	0	34.3080	0	27.310	0	853.663	0	13.9	4	4.3	4	-1E+10	1	-1E+10	1	-1E+10	1	-1E+10	1	-1E+10	1	-1E+10	1
4902551	38	C	08/27/2021	06:10	-134.898	49.546	0	867.80	0	3.2990	0	34.3100	0	27.312	0	858.600	0	13.8	4	4.3	4	-1E+10	1	-1E+10	1	-1E+10	1	-1E+10	1	-1E+10	1	-1E+10	1
4902551	38	C	08/27/2021	06:10	-134.898	49.546	0	872.80	0	3.2920	0	34.3120	0	27.315	0	863.537	0	13.8	4	4.3	4	-1E+10	1	-1E+10	1	-1E+10	1	-1E+10	1	-1E+10	1	-1E+10	1
4902551	38	C	08/27/2021	06:10	-134.898	49.546	0	877.80	0	3.2810	0	34.3140	0	27.317	0	868.473	0	13.8	4	4.3	4	-1E+10	1	-1E+10	1	-1E+10	1	-1E+10	1	-1E+10	1	-1E+10	1
4902551	38	C	08/27/2021	06:10	-134.898	49.546	0	882.70	0	3.2750	0	34.3150	0	27.319	0	873.311	0	13.7	4	4.3	4	-1E+10	1	-1E+10	1	-1E+10	1	-1E+10	1	-1E+10	1	-1E+10	1
4902551	38	C	08/27/2021	06:10	-134.898	49.546	0	888.00	0	3.2690	0	34.3160	0	27.320	0	878.544	0	13.7	4	4.2	4	-1E+10	1	-1E+10	1	-1E+10	1	-1E+10	1	-1E+10	1	-1E+10	1
4902551	38	C	08/27/2021	06:10	-134.898	49.546	0	893.20	0	3.2570	0	34.3180	0	27.323	0	883.677	0	13.6	4	4.2	4	-1E+10	1	-1E+10	1	-1E+10	1	-1E+10	1	-1E+10	1	-1E+10	1
4902551	38	C	08/27/2021	06:10	-134.898	49.546	0	898.00	0	3.2440	0	34.3210	0	27.326	0	888.416	0	13.6	4	4.2	4	-1E+10	1	-1E+10	1	-1E+10	1	-1E+10	1	-1E+10	1	-1E+10	1
4902551	38	C	08/27/2021	06:10	-134.898	49.546	0	902.80	0	3.2370	0	34.3230	0	27.329	0	893.154	0	13.5	4	4.2	4	-1E+10	1	-1E+10	1	-1E+10	1	-1E+10	1	-1E+10	1	-1E+10	1
4902551	38	C	08/27/2021	06:10	-134.898	49.546	0	907.80	0	3.2300	0	34.3240	0	27.330	0	898.090	0	13.5	4	4.2	4	-1E+10	1	-1E+10	1	-1E+10	1	-1E+10	1	-1E+10	1	-1E+10	1
4902551	38	C	08/27/2021	06:10	-134.898	49.546	0	912.60	0	3.2240	0	34.3250	0	27.331	0	902.829	0	13.5	4	4.2	4	-1E+10	1	-1E+10	1	-1E+10	1	-1E+10	1	-1E+10	1	-1E+10	1
4902551	38	C	08/27/2021	06:10	-134.898	49.546	0	918.10	0	3.2150	0	34.3280	0	27.335	0	908.258	0	13.4	4	4.2	4	-1E+10	1	-1E+10	1	-1E+10	1	-1E+10	1	-1E+10	1	-1E+10	1
4902551	38	C	08/27/2021	06:10	-134.898	49.546	0	923.10	0	3.2090	0	34.3290	0	27.336	0	913.193	0	13.4	4	4.2	4	-1E+10	1	-1E+10	1	-1E+10	1	-1E+10	1	-1E+10	1	-1E+10	1
4902551	38	C	08/27/2021	06:10	-134.898	49.546	0	927.70	0	3.2030	0	34.3300	0	27.338	0	917.734	0	13.4	4	4.1	4	-1E+10	1	-1E+10	1	-1E+10	1	-1E+10	1	-1E+10	1	-1E+10	1
4902551	38	C	08/27/2021	06:10	-134.898	49.546	0	932.60	0	3.1900	0	34.3330	0	27.341	0	922.570	0	13.3	4	4.1	4	-1E+10	1	-1E+10	1	-1E+10	1	-1E+10	1	-1E+10	1	-1E+10	1
4902551	38	C	08/27/2021	06:10	-134.898	49.546	0	938.00	0	3.1770	0	34.3360	0	27.345	0	927.900	0	13.2	4	4.1	4	-1E+10	1	-1E+10	1	-1E+10	1	-1E+10	1	-1E+10	1	-1E+10	1
4902551	38	C	08/27/2021	06:10	-134.898	49.546	0	943.00	0	3.1580	0	34.3400	0	27.350	0	932.835	0	13.2	4	4.1	4	-1E+10	1	-1E+10	1	-1E+10	1	-1E+10	1	-1E+10	1	-1E+10	1
4902551	38	C	08/27/2021	06:10	-134.898	49.546	0	947.60	0	3.1480	0	34.3420	0	27.352	0	937.376	0	13.2	4	4.1	4	-1E+10	1	-1E+10	1	-1E+10	1	-1E+10	1	-1E+10	1	-1E+10	1
4902551	38	C	08/27/2021	06:10	-134.898	49.546	0	952.80	0	3.1450	0	34.3420	0	27.353	0	942.508	0	13.1	4	4.1	4	-1E+10	1	-1E+10	1	-1E+10	1	-1E+10	1	-1E+10	1	-1E+10	1
4902551	38	C	08/27/2021	06:10	-134.898	49.546	0	958.10	0	3.1340	0	34.3450	0	27.356	0	947.738	0	13.1	4	4.1	4	-1E+10	1	-1E+10	1	-1E+10	1	-1E+10	1	-1E+10	1	-1E+10	1
4902551	38	C	08/27/2021	06:10	-134.898	49.546	0	963.00	0	3.1300	0	34.3460	0	27.357	0	952.574	0	13.1	4	4.0	4	-1E+10	1	-1E+10	1	-1E+10	1	-1E+10	1	-1E+10	1	-1E+10	1
4902551	38	C	08/27/2021	06:10	-134.898	49.546	0	968.00	0	3.1190	0	34.3490	0	27.361	0	957.509	0	13.0	4	4.0	4	-1E+10	1	-1E+10	1	-1E+10	1	-1E+10	1	-1E+10	1	-1E+10	1
4902551	38	C	08/27/2021	06:10	-134.898	49.546	0	973.00	0	3.1090	0	34.3510	0	27.363	0	962.443	0	13.0	4	4.0	4	-1E+10	1	-1E+10	1	-1E+10	1	-1E+10	1	-1E+10	1	-1E+10	1
4902551	38	C	08/27/2021	06:10	-134.898	49.546	0	978.20	0	3.1010	0	34.3530	0	27.366	0	967.575	0	12.9	4	4.0	4	-1E+10	1	-1E+10	1	-1E+10	1	-1E+10	1	-1E+10	1	-1E+10	1
4902551	38	C	08/27/2021	06:10	-134.898	49.546	0	983.00	0	3.0930	0	34.3550	0	27.368	0	972.311	0	12.9	4	4.0	4	-1E+10	1	-1E+10	1	-1E+10	1	-1E+10	1	-1E+10	1	-1E+10	1
4902551	38	C	08/27/2021	06:10	-134.898	49.546	0	987.80	0	3.0880	0	34.3560	0	27.369	0	977.048	0	12.9	4	4.0	4	-1E+10	1	-1E+10	1	-1E+10	1	-1E+10	1	-1E+10	1	-1E+10	1
4902551	38	C	08/27/2021	06:10	-134.898	49.546	0	992.70	0	3.0850	0	34.3570	0	27.370	0	981.883	0	12.9	4	4.0	4	-1E+10	1	-1E+10	1	-1E+10	1	-1E+10	1	-1E+10	1	-1E+10	1
4902551	38	C	08/27/2021	06:10	-134.898	49.546	0	997.90	0	3.0750	0	34.3600	0	27.374	0	987.014	0	12.9	4	4.0	4	-1E+10	1	-1E+10	1	-1E+10	1	-1E+10	1	-1E+10	1	-1E+10	1
4902551	38	C	08/27/2021	06:10	-134.898	49.546	0	1005.60	0	3.0630	0	34.3610	0	27.376	0	994.612	0	12.9	4	4.0	4	-1E+10	1	-1E+10	1	-1E+10	1	-1E+10	1	-1E+10	1	-1E+10	1
4902551	38	C	08/27/2021	06:10	-134.898	49.546	0	1015.70	0	3.0460	0	34.3650	0	27.380	0	1004.578	0	12.9	4	4.0	4	-1E+10	1	-1E+10	1	-1E+10	1	-1E+10	1	-1E+10	1	-1E+10	1
4902551	38	C	08/27/2021	06:10	-134.898	49.546	0	1025.50	0	3.0350	0	34.3670	0	27.383	0	1014.247	0	12.9	4	4.0	4	-1E+10	1	-1E+10	1	-1E+10	1	-1E+10	1	-1E+10	1	-1E+10	1
4902551	38	C	08/27/2021	06:10	-134.898	49.546	0	1035.40	0	3.0180	0	34.3700	0	27.387	0	1024.014	0	12.9	4	4.0	4	-1E+10	1	-1E+10	1	-1E+10	1	-1E+10	1	-1E+10	1	-1E+10	1
4902551	38	C	08/27/2021	06:10	-134.898	49.546	0	1045.40	0	3.0000	0	34.3740	0	27.392	0	1033.879	0	12.8	4	4.0	4	-1E+10	1	-1E+10	1	-1E+10	1	-1E+10	1	-1E+10	1	-1E+10	1
4902551	38	C	08/27/2021	06:10	-134.898	49.546	0	1055.50	0	2.9840	0	34.3780	0	27.397	0	1043.843	0	12.8	4	3.9	4	-1E+10	1	-1E+10	1	-1E+10	1	-1E+10	1	-1E+10	1	-1E+10	1
4902551	38	C	08/27/2021	06:10	-134.898	49.546	0	1065.80	0	2.9680	0	34.3820	0	27.401	0	1054.003	0	12.8	4	3.9	4	-1E+10	1	-1E+10	1	-1E+10	1	-1E+10	1	-1E+10	1	-1E+10	1
4902551	38	C	08/27/2021	06:10	-134.898	49.546	0	1075.70	0	2.9550	0	34.3850	0	27.405	0	1063.768	0	12.8	4	3.9	4	-1E+10	1	-1E+10	1	-1E+10	1	-1E+10	1	-1E+10	1	-1E+10	1
4902551	38	C	08/27/2021	06:10	-134.898	49.546	0	1085.50	0	2.9360	0	34.3880	0	27.409	0	1073.435	0	12.8	4	4.0	4	-1E+10	1	-1E+10	1	-1E+10	1	-1E+10	1	-1E+10	1	-1E+10	1
4902551	38	C	08/27/2021	06:10	-134.898	49.546	0	1095.20	0	2.9260	0	34.3900	0	27.412	0	1083.002	0	12.8	4	3.9	4	-1E+10	1	-1E+10	1	-1E+10	1	-1E+10	1	-1E+10	1	-1E+10	1
4902551	38	C	08/27/2021	06:10	-134.898	49.546	0	1105.50	0	2.9170	0	34.3930	0	27.415	0	1093.160	0	12.8	4	3.9	4	-1E+10	1	-1E+10	1	-1E+10	1	-1E+10	1	-1E+10	1	-1E+10	1
4902551	38	C	08/27/2021	06:10	-134.898	49.546	0	1115.30	0	2.9070	0	34.3950	0	27.417	0	1102.825	0	12.8	4	3.9	4	-1E+10	1	-1E+10	1	-1E+10	1	-1E+10	1	-1E+10	1	-1E+10	1
4902551	38	C	08/27/2021	06:10	-134.898	49.546	0	1125.10	0	2.8850	0	34.3990	0	27.423	0	1112.490	0	12.8	4	4.0	4	-1E+10	1	-1E+10	1	-1E+10	1	-1E+10	1	-1E+10	1	-1E+10	1
4902551	38	C	08/27/2021	06:10	-134.898	49.546	0	1135.20	0	2.8730	0	34.4040	0	27.428	0	1122.449	0	12.9	4	4.0	4	-1E+10	1	-1E+10	1	-1E+10	1	-1E+10	1	-1E+10	1	-1E+10	1
4902551	38	C	08/27/2021	06:10	-134.898	49.546	0	1145.50	0	2.8590	0	34.4060	0	27.431	0	1132.606	0	12.9	4	4.0	4	-1E+10	1	-1E+10	1	-1E+10	1	-1E+10	1	-1E+10	1	-1E+10	1
4902551	38	C	08/27/2021	06:10	-134.898	49.546	0	1155.60	0	2.8360	0	34.4110	0	27.437	0	1142.565	0	13.0	4	4.0	4	-1E+10	1	-1E+10	1	-1E+10	1	-1E+10	1	-1E+10	1	-1E+10	1
4902551	38	C	08/27/2021	06:10	-134.898	49.546	0	1165.50	0	2.8210	0	34.4140	0	27.440	0	1152.326	0	13.1	4	4.0	4	-1E+10	1	-1E+10	1	-1E+10	1	-1E+10	1	-1E+10	1	-1E+10	1
4902551	38	C	08/27/2021	06:10	-134.898	49.546	0	1175.30	0	2.8080	0	34.4170	0	27.444	0	1161.988	0	13.2	4	4.1	4	-1E+10	1	-1E+10	1	-1E+10	1	-1E+10	1	-1E+10	1	-1E+10	1
4902551	38	C	08/27/2021	06:10	-134.898	49.546	0	1185.10	0	2.7880	0	34.4210	0	27.449	0	1171.650	0	13.3	4	4.1	4	-1E+10	1	-1E+10	1	-1E+10	1	-1E+10	1	-1E+10	1	-1E+10	1
4902551	38	C	08/27/2021	06:10	-134.898	49.546	0	1195.30	0	2.7750	0	34.4240	0	27.453	0	1181.706	0	13.4	4	4.1	4	-1E+10	1	-1E+10	1	-1E+10	1	-1E+10	1	-1E+10	1	-1E+10	1
4902551	38	C	08/27/2021	06:10	-134.898	49.546	0	1205.70	0	2.7650	0	34.4280	0	27.457	0	1191.958	0	13.6	4	4.2	4	-1E+10	1	-1E+10	1	-1E+10	1	-1E+10	1	-1E+10	1	-1E+10	1
4902551	38	C	08/27/2021	06:10	-134.898	49.546	0	1215.40	0	2.7500	0	34.4300	0	27.460	0	1201.520	0	13.7	4	4.2	4	-1E+10	1	-1E+10	1	-1E+10	1	-1E+10	1	-1E+10	1	-1E+10	1
4902551	38	C	08/27/2021	06:10	-134.898	49.546	0	1225.50	0	2.7390	0	34.4330	0	27.463	0	1211.475	0	13.8	4	4.2	4	-1E+10	1	-1E+10	1	-1E+10	1	-1E+10	1	-1E+10	1	-1E+10	1
4902551	38	C	08/27/2021	06:10	-134.898	49.546	0	1235.70	0	2.7300	0	34.4360	0	27.466	0	1221.529	0	14.0	4	4.3	4	-1E+10	1	-1E+10	1	-1E+10	1	-1E+10	1	-1E+10	1	-1E+10	1
4902551	38	C	08/27/2021	06:10	-134.898	49.546	0	1245.80	0	2.7160	0	34.4390	0	27.470	0	1231.483	0	14.1	4	4.3	4	-1E+10	1	-1E+10	1	-1E+10	1	-1E+10	1	-1E+10	1	-1E+10	1
4902551	38	C	08/27/2021	06:10	-134.898	49.546	0	1255.20	0	2.7080	0	34.4400	0	27.472	0	1240.748	0	14.3	4	4.4	4	-1E+10	1	-1E+10	1	-1E+10	1	-1E+10	1	-1E+10	1	-1E+10	1
4902551	38	C	08/27/2021	06:10	-134.898	49.546	0	1265.20	0	2.6930	0	34.4430	0	27.475	0	1250.603	0	14.5	4	4.5	4	-1E+10	1	-1E+10	1	-1E+10	1	-1E+10	1	-1E+10	1	-1E+10	1
4902551	38	C	08/27/2021	06:10	-134.898	49.546	0	1275.20	0	2.6810	0	34.4450	0	27.478	0	1260.458	0	14.8	4	4.5	4	-1E+10	1	-1E+10	1	-1E+10	1	-1E+10	1	-1E+10	1	-1E+10	1
4902551	38	C	08/27/2021	06:10	-134.898	49.546	0	1285.30	0	2.6680	0	34.4480	0	27.482	0	1270.410	0	15.0	4	4.6	4	-1E+10	1	-1E+10	1	-1E+10	1	-1E+10	1	-1E+10	1	-1E+10	1
4902551	38	C	08/27/2021	06:10	-134.898	49.546	0	1295.20	0	2.6510	0	34.4500	0	27.485	0	1280.166	0	15.2	4	4.7	4	-1E+10	1	-1E+10	1	-1E+10	1	-1E+10	1	-1E+10	1	-1E+10	1
4902551	38	C	08/27/2021	06:10	-134.898	49.546	0	1305.50	0	2.6330	0	34.4530	0	27.489	0	1290.315	0	15.5	4	4.7	4	-1E+10	1	-1E+10	1	-1E+10	1	-1E+10	1	-1E+10	1	-1E+10	1
4902551	38	C	08/27/2021	06:10	-134.898	49.546	0	1315.50	0	2.6130	0	34.4560	0	27.493	0	1300.167	0	15.7	4	4.8	4	-1E+10	1	-1E+10	1	-1E+10	1	-1E+10	1	-1E+10	1	-1E+10	1
4902551	38	C	08/27/2021	06:10	-134.898	49.546	0	1325.20	0	2.5950	0	34.4590	0	27.497	0	1309.724	0	16.0	4	4.9	4	-1E+10	1	-1E+10	1	-1E+10	1	-1E+10	1	-1E+10	1	-1E+10	1
4902551	38	C	08/27/2021	06:10	-134.898	49.546	0	1335.20	0	2.5850	0	34.4610	0	27.499	0	1319.576	0	16.3	4	5.0	4	-1E+10	1	-1E+10	1	-1E+10	1	-1E+10	1	-1E+10	1	-1E+10	1
4902551	38	C	08/27/2021	06:10	-134.898	49.546	0	1345.60	0	2.5710	0	34.4630	0	27.502	0	1329.822	0	16.6	4	5.1	4	-1E+10	1	-1E+10	1	-1E+10	1	-1E+10	1	-1E+10	1	-1E+10	1
4902551	38	C	08/27/2021	06:10	-134.898	49.546	0	1355.70	0	2.5580	0	34.4660	0	27.506	0	1339.771	0	17.0	4	5.2	4	-1E+10	1	-1E+10	1	-1E+10	1	-1E+10	1	-1E+10	1	-1E+10	1
4902551	38	C	08/27/2021	06:10	-134.898	49.546	0	1365.90	0	2.5470	0	34.4680	0	27.508	0	1349.819	0	17.3	4	5.3	4	-1E+10	1	-1E+10	1	-1E+10	1	-1E+10	1	-1E+10	1	-1E+10	1
4902551	38	C	08/27/2021	06:10	-134.898	49.546	0	1375.50	0	2.5350	0	34.4710	0	27.512	0	1359.275	0	17.7	4	5.4	4	-1E+10	1	-1E+10	1	-1E+10	1	-1E+10	1	-1E+10	1	-1E+10	1
4902551	38	C	08/27/2021	06:10	-134.898	49.546	0	1385.30	0	2.5230	0	34.4730	0	27.514	0	1368.927	0	18.0	4	5.5	4	-1E+10	1	-1E+10	1	-1E+10	1	-1E+10	1	-1E+10	1	-1E+10	1
4902551	38	C	08/27/2021	06:10	-134.898	49.546	0	1395.40	0	2.5110	0	34.4760	0	27.518	0	1378.875	0	18.4	4	5.6	4	-1E+10	1	-1E+10	1	-1E+10	1	-1E+10	1	-1E+10	1	-1E+10	1
4902551	38	C	08/27/2021	06:10	-134.898	49.546	0	1405.40	0	2.5070	0	34.4780	0	27.520	0	1388.724	0	18.7	4	5.7	4	-1E+10	1	-1E+10	1	-1E+10	1	-1E+10	1	-1E+10	1	-1E+10	1
4902551	38	C	08/27/2021	06:10	-134.898	49.546	0	1415.20	0	2.4970	0	34.4800	0	27.522	0	1398.375	0	19.1	4	5.8	4	-1E+10	1	-1E+10	1	-1E+10	1	-1E+10	1	-1E+10	1	-1E+10	1
4902551	38	C	08/27/2021	06:10	-134.898	49.546	0	1425.10	0	2.4890	0	34.4820	0	27.525	0	1408.124	0	19.3	4	5.9	4	-1E+10	1	-1E+10	1	-1E+10	1	-1E+10	1	-1E+10	1	-1E+10	1
4902551	38	C	08/27/2021	06:10	-134.898	49.546	0	1435.20	0	2.4820	0	34.4830	0	27.526	0	1418.070	0	19.6	4	6.0	4	-1E+10	1	-1E+10	1	-1E+10	1	-1E+10	1	-1E+10	1	-1E+10	1
4902551	38	C	08/27/2021	06:10	-134.898	49.546	0	1445.40	0	2.4710	0	34.4850	0	27.529	0	1428.114	0	20.1	4	6.1	4	-1E+10	1	-1E+10	1	-1E+10	1	-1E+10	1	-1E+10	1	-1E+10	1
4902551	38	C	08/27/2021	06:10	-134.898	49.546	0	1455.40	0	2.4600	0	34.4870	0	27.531	0	1437.960	0	20.5	4	6.2	4	-1E+10	1	-1E+10	1	-1E+10	1	-1E+10	1	-1E+10	1	-1E+10	1
4902551	38	C	08/27/2021	06:10	-134.898	49.546	0	1465.30	0	2.4470	0	34.4890	0	27.534	0	1447.708	0	20.8	4	6.3	4	-1E+10	1	-1E+10	1	-1E+10	1	-1E+10	1	-1E+10	1	-1E+10	1
4902551	38	C	08/27/2021	06:10	-134.898	49.546	0	1475.60	0	2.4360	0	34.4910	0	27.537	0	1457.848	0	21.3	4	6.5	4	-1E+10	1	-1E+10	1	-1E+10	1	-1E+10	1	-1E+10	1	-1E+10	1
4902551	38	C	08/27/2021	06:10	-134.898	49.546	0	1485.70	0	2.4240	0	34.4940	0	27.540	0	1467.792	0	21.6	4	6.6	4	-1E+10	1	-1E+10	1	-1E+10	1	-1E+10	1	-1E+10	1	-1E+10	1
4902551	38	C	08/27/2021	06:10	-134.898	49.546	0	1495.80	0	2.4160	0	34.4950	0	27.542	0	1477.735	0	22.1	4	6.7	4	-1E+10	1	-1E+10	1	-1E+10	1	-1E+10	1	-1E+10	1	-1E+10	1
4902551	38	C	08/27/2021	06:10	-134.898	49.546	0	1505.70	0	2.4020	0	34.4970	0	27.544	0	1487.480	0	22.8	4	6.9	4	-1E+10	1	-1E+10	1	-1E+10	1	-1E+10	1	-1E+10	1	-1E+10	1
4902551	38	C	08/27/2021	06:10	-134.898	49.546	0	1515.70	0	2.3830	0	34.5000	0	27.548	0	1497.324	0	23.5	4	7.1	4	-1E+10	1	-1E+10	1	-1E+10	1	-1E+10	1	-1E+10	1	-1E+10	1
4902551	38	C	08/27/2021	06:10	-134.898	49.546	0	1525.50	0	2.3620	0	34.5040	0	27.553	0	1506.970	0	24.2	4	7.4	4	-1E+10	1	-1E+10	1	-1E+10	1	-1E+10	1	-1E+10	1	-1E+10	1
4902551	38	C	08/27/2021	06:10	-134.898	49.546	0	1535.40	0	2.3430	0	34.5070	0	27.557	0	1516.715	0	24.9	4	7.6	4	-1E+10	1	-1E+10	1	-1E+10	1	-1E+10	1	-1E+10	1	-1E+10	1
4902551	38	C	08/27/2021	06:10	-134.898	49.546	0	1545.30	0	2.3300	0	34.5090	0	27.560	0	1526.458	0	25.4	4	7.7	4	-1E+10	1	-1E+10	1	-1E+10	1	-1E+10	1	-1E+10	1	-1E+10	1
4902551	38	C	08/27/2021	06:10	-134.898	49.546	0	1555.20	0	2.3160	0	34.5120	0	27.564	0	1536.202	0	26.0	4	7.9	4	-1E+10	1	-1E+10	1	-1E+10	1	-1E+10	1	-1E+10	1	-1E+10	1
4902551	38	C	08/27/2021	06:10	-134.898	49.546	0	1565.40	0	2.3030	0	34.5140	0	27.566	0	1546.240	0	26.6	4	8.1	4	-1E+10	1	-1E+10	1	-1E+10	1	-1E+10	1	-1E+10	1	-1E+10	1
4902551	38	C	08/27/2021	06:10	-134.898	49.546	0	1575.60	0	2.2890	0	34.5160	0	27.569	0	1556.277	0	27.3	4	8.3	4	-1E+10	1	-1E+10	1	-1E+10	1	-1E+10	1	-1E+10	1	-1E+10	1
4902551	38	C	08/27/2021	06:10	-134.898	49.546	0	1585.40	0	2.2750	0	34.5190	0	27.573	0	1565.921	0	28.2	4	8.5	4	-1E+10	1	-1E+10	1	-1E+10	1	-1E+10	1	-1E+10	1	-1E+10	1
4902551	38	C	08/27/2021	06:10	-134.898	49.546	0	1595.40	0	2.2570	0	34.5220	0	27.577	0	1575.761	0	29.0	4	8.8	4	-1E+10	1	-1E+10	1	-1E+10	1	-1E+10	1	-1E+10	1	-1E+10	1
4902551	38	C	08/27/2021	06:10	-134.898	49.546	0	1605.60	0	2.2440	0	34.5250	0	27.580	0	1585.797	0	29.6	4	9.0	4	-1E+10	1	-1E+10	1	-1E+10	1	-1E+10	1	-1E+10	1	-1E+10	1
4902551	38	C	08/27/2021	06:10	-134.898	49.546	0	1615.50	0	2.2360	0	34.5260	0	27.582	0	1595.538	0	29.9	4	9.1	4	-1E+10	1	-1E+10	1	-1E+10	1	-1E+10	1	-1E+10	1	-1E+10	1
4902551	38	C	08/27/2021	06:10	-134.898	49.546	0	1625.10	0	2.2290	0	34.5270	0	27.583	0	1604.983	0	30.3	4	9.2	4	-1E+10	1	-1E+10	1	-1E+10	1	-1E+10	1	-1E+10	1	-1E+10	1
4902551	38	C	08/27/2021	06:10	-134.898	49.546	0	1635.30	0	2.2200	0	34.5290	0	27.586	0	1615.018	0	30.7	4	9.3	4	-1E+10	1	-1E+10	1	-1E+10	1	-1E+10	1	-1E+10	1	-1E+10	1
4902551	38	C	08/27/2021	06:10	-134.898	49.546	0	1645.70	0	2.2130	0	34.5300	0	27.587	0	1625.249	0	31.2	4	9.5	4	-1E+10	1	-1E+10	1	-1E+10	1	-1E+10	1	-1E+10	1	-1E+10	1
4902551	38	C	08/27/2021	06:10	-134.898	49.546	0	1655.30	0	2.2050	0	34.5320	0	27.589	0	1634.693	0	31.8	4	9.6	4	-1E+10	1	-1E+10	1	-1E+10	1	-1E+10	1	-1E+10	1	-1E+10	1
4902551	38	C	08/27/2021	06:10	-134.898	49.546	0	1665.60	0	2.1930	0	34.5340	0	27.592	0	1644.824	0	32.3	4	9.8	4	-1E+10	1	-1E+10	1	-1E+10	1	-1E+10	1	-1E+10	1	-1E+10	1
4902551	38	C	08/27/2021	06:10	-134.898	49.546	0	1675.60	0	2.1860	0	34.5360	0	27.594	0	1654.661	0	32.9	4	10.0	4	-1E+10	1	-1E+10	1	-1E+10	1	-1E+10	1	-1E+10	1	-1E+10	1
4902551	38	C	08/27/2021	06:10	-134.898	49.546	0	1685.70	0	2.1750	0	34.5380	0	27.597	0	1664.595	0	33.6	4	10.2	4	-1E+10	1	-1E+10	1	-1E+10	1	-1E+10	1	-1E+10	1	-1E+10	1
4902551	38	C	08/27/2021	06:10	-134.898	49.546	0	1695.50	0	2.1680	0	34.5390	0	27.598	0	1674.233	0	33.9	4	10.2	4	-1E+10	1	-1E+10	1	-1E+10	1	-1E+10	1	-1E+10	1	-1E+10	1
4902551	38	C	08/27/2021	06:10	-134.898	49.546	0	1705.60	0	2.1640	0	34.5400	0	27.599	0	1684.167	0	34.3	4	10.4	4	-1E+10	1	-1E+10	1	-1E+10	1	-1E+10	1	-1E+10	1	-1E+10	1
4902551	38	C	08/27/2021	06:10	-134.898	49.546	0	1715.70	0	2.1530	0	34.5430	0	27.603	0	1694.099	0	35.0	4	10.6	4	-1E+10	1	-1E+10	1	-1E+10	1	-1E+10	1	-1E+10	1	-1E+10	1
4902551	38	C	08/27/2021	06:10	-134.898	49.546	0	1725.40	0	2.1440	0	34.5440	0	27.604	0	1703.638	0	35.5	4	10.8	4	-1E+10	1	-1E+10	1	-1E+10	1	-1E+10	1	-1E+10	1	-1E+10	1
4902551	38	C	08/27/2021	06:10	-134.898	49.546	0	1735.40	0	2.1390	0	34.5450	0	27.605	0	1713.472	0	36.0	4	10.9	4	-1E+10	1	-1E+10	1	-1E+10	1	-1E+10	1	-1E+10	1	-1E+10	1
4902551	38	C	08/27/2021	06:10	-134.898	49.546	0	1745.20	0	2.1340	0	34.5460	0	27.607	0	1723.108	0	36.3	4	11.0	4	-1E+10	1	-1E+10	1	-1E+10	1	-1E+10	1	-1E+10	1	-1E+10	1
4902551	38	C	08/27/2021	06:10	-134.898	49.546	0	1755.20	0	2.1310	0	34.5470	0	27.608	0	1732.941	0	36.9	4	11.1	4	-1E+10	1	-1E+10	1	-1E+10	1	-1E+10	1	-1E+10	1	-1E+10	1
4902551	38	C	08/27/2021	06:10	-134.898	49.546	0	1765.50	0	2.1210	0	34.5490	0	27.610	0	1743.068	0	37.6	4	11.4	4	-1E+10	1	-1E+10	1	-1E+10	1	-1E+10	1	-1E+10	1	-1E+10	1
4902551	38	C	08/27/2021	06:10	-134.898	49.546	0	1775.50	0	2.1100	0	34.5500	0	27.612	0	1752.900	0	38.3	4	11.6	4	-1E+10	1	-1E+10	1	-1E+10	1	-1E+10	1	-1E+10	1	-1E+10	1
4902551	38	C	08/27/2021	06:10	-134.898	49.546	0	1785.20	0	2.1010	0	34.5520	0	27.614	0	1762.436	0	39.0	4	11.8	4	-1E+10	1	-1E+10	1	-1E+10	1	-1E+10	1	-1E+10	1	-1E+10	1
4902551	38	C	08/27/2021	06:10	-134.898	49.546	0	1795.50	0	2.0880	0	34.5540	0	27.617	0	1772.562	0	39.8	4	12.0	4	-1E+10	1	-1E+10	1	-1E+10	1	-1E+10	1	-1E+10	1	-1E+10	1
4902551	38	C	08/27/2021	06:10	-134.898	49.546	0	1805.80	0	2.0790	0	34.5560	0	27.619	0	1782.687	0	40.5	4	12.2	4	-1E+10	1	-1E+10	1	-1E+10	1	-1E+10	1	-1E+10	1	-1E+10	1
4902551	38	C	08/27/2021	06:10	-134.898	49.546	0	1815.80	0	2.0700	0	34.5580	0	27.622	0	1792.517	0	41.5	4	12.5	4	-1E+10	1	-1E+10	1	-1E+10	1	-1E+10	1	-1E+10	1	-1E+10	1
4902551	38	C	08/27/2021	06:10	-134.898	49.546	0	1825.40	0	2.0560	0	34.5600	0	27.624	0	1801.953	0	42.4	4	12.8	4	-1E+10	1	-1E+10	1	-1E+10	1	-1E+10	1	-1E+10	1	-1E+10	1
4902551	38	C	08/27/2021	06:10	-134.898	49.546	0	1835.20	0	2.0440	0	34.5630	0	27.628	0	1811.585	0	43.1	4	13.0	4	-1E+10	1	-1E+10	1	-1E+10	1	-1E+10	1	-1E+10	1	-1E+10	1
4902551	38	C	08/27/2021	06:10	-134.898	49.546	0	1845.10	0	2.0370	0	34.5640	0	27.629	0	1821.316	0	43.7	4	13.2	4	-1E+10	1	-1E+10	1	-1E+10	1	-1E+10	1	-1E+10	1	-1E+10	1
4902551	38	C	08/27/2021	06:10	-134.898	49.546	0	1855.40	0	2.0310	0	34.5660	0	27.631	0	1831.439	0	44.4	4	13.4	4	-1E+10	1	-1E+10	1	-1E+10	1	-1E+10	1	-1E+10	1	-1E+10	1
4902551	38	C	08/27/2021	06:10	-134.898	49.546	0	1865.70	0	2.0240	0	34.5670	0	27.633	0	1841.561	0	44.9	4	13.6	4	-1E+10	1	-1E+10	1	-1E+10	1	-1E+10	1	-1E+10	1	-1E+10	1
4902551	38	C	08/27/2021	06:10	-134.898	49.546	0	1875.50	0	2.0200	0	34.5690	0	27.635	0	1851.192	0	45.4	4	13.7	4	-1E+10	1	-1E+10	1	-1E+10	1	-1E+10	1	-1E+10	1	-1E+10	1
4902551	38	C	08/27/2021	06:10	-134.898	49.546	0	1885.20	0	2.0140	0	34.5700	0	27.636	0	1860.723	0	46.0	4	13.9	4	-1E+10	1	-1E+10	1	-1E+10	1	-1E+10	1	-1E+10	1	-1E+10	1
4902551	38	C	08/27/2021	06:10	-134.898	49.546	0	1895.40	0	2.0070	0	34.5710	0	27.637	0	1870.746	0	46.5	4	14.0	4	-1E+10	1	-1E+10	1	-1E+10	1	-1E+10	1	-1E+10	1	-1E+10	1
4902551	38	C	08/27/2021	06:10	-134.898	49.546	0	1905.60	0	2.0010	0	34.5720	0	27.639	0	1880.768	0	47.1	4	14.2	4	-1E+10	1	-1E+10	1	-1E+10	1	-1E+10	1	-1E+10	1	-1E+10	1
4902551	38	C	08/27/2021	06:10	-134.898	49.546	0	1915.40	0	1.9930	0	34.5730	0	27.640	0	1890.397	0	47.6	4	14.3	4	-1E+10	1	-1E+10	1	-1E+10	1	-1E+10	1	-1E+10	1	-1E+10	1
4902551	38	C	08/27/2021	06:10	-134.898	49.546	0	1925.40	0	1.9880	0	34.5750	0	27.642	0	1900.222	0	48.0	4	14.5	4	-1E+10	1	-1E+10	1	-1E+10	1	-1E+10	1	-1E+10	1	-1E+10	1
4902551	38	C	08/27/2021	06:10	-134.898	49.546	0	1935.40	0	1.9830	0	34.5750	0	27.643	0	1910.047	0	48.6	4	14.7	4	-1E+10	1	-1E+10	1	-1E+10	1	-1E+10	1	-1E+10	1	-1E+10	1
4902551	38	C	08/27/2021	06:10	-134.898	49.546	0	1945.40	0	1.9760	0	34.5770	0	27.645	0	1919.870	0	49.2	4	14.8	4	-1E+10	1	-1E+10	1	-1E+10	1	-1E+10	1	-1E+10	1	-1E+10	1
4902551	38	C	08/27/2021	06:10	-134.898	49.546	0	1955.50	0	1.9680	0	34.5790	0	27.647	0	1929.792	0	49.6	4	15.0	4	-1E+10	1	-1E+10	1	-1E+10	1	-1E+10	1	-1E+10	1	-1E+10	1
4902551	38	C	08/27/2021	06:10	-134.898	49.546	0	1965.20	0	1.9650	0	34.5790	0	27.647	0	1939.320	0	50.0	4	15.1	4	-1E+10	1	-1E+10	1	-1E+10	1	-1E+10	1	-1E+10	1	-1E+10	1
4902551	38	C	08/27/2021	06:10	-134.898	49.546	0	1975.00	0	1.9590	0	34.5800	0	27.649	0	1948.947	0	50.5	4	15.2	4	-1E+10	1	-1E+10	1	-1E+10	1	-1E+10	1	-1E+10	1	-1E+10	1
4902551	38	C	08/27/2021	06:10	-134.898	49.546	0	1985.40	0	1.9540	0	34.5810	0	27.650	0	1959.162	0	51.1	4	15.4	4	-1E+10	1	-1E+10	1	-1E+10	1	-1E+10	1	-1E+10	1	-1E+10	1
4902551	38	C	08/27/2021	06:10	-134.898	49.546	0	1995.80	0	1.9480	0	34.5830	0	27.652	0	1969.376	0	51.6	4	15.5	4	-1E+10	1	-1E+10	1	-1E+10	1	-1E+10	1	-1E+10	1	-1E+10	1
4902551	38	C	08/27/2021	06:10	-134.898	49.546	0	2005.70	0	1.9430	0	34.5840	0	27.653	0	1979.099	0	51.9	4	15.6	4	-1E+10	1	-1E+10	1	-1E+10	1	-1E+10	1	-1E+10	1	-1E+10	1
4902551	38	C	08/27/2021	06:10	-134.898	49.546	0	2016.10	0	1.9380	0	34.5850	0	27.655	0	1989.313	0	51.6	4	15.5	4	-1E+10	1	-1E+10	1	-1E+10	1	-1E+10	1	-1E+10	1	-1E+10	1
4902551	38	C	08/27/2021	06:10	-134.898	49.546	0	2021.70	0	1.9360	0	34.5860	0	27.656	0	1994.812	0	51.0	4	15.4	4	-1E+10	1	-1E+10	1	-1E+10	1	-1E+10	1	-1E+10	1	-1E+10	1
4902551	38	C	08/27/2021	06:10	-134.898	49.546	0																										
4902551	39	C	09/06/2021	10:54	-134.816	49.567	0	0.00	0	15.4790	0	32.2080	0	23.717	0	0.000	0	244.5	4	97.7	4	-1E+10	1	-1E+10	1	-1E+10	1	-1E+10	1	-1E+10	1	-1E+10	1
4902551	39	C	09/06/2021	10:54	-134.816	49.567	0	0.80	0	15.4800	0	32.2070	0	23.716	0	0.793	0	244.6	4	97.7	4	-1E+10	1	-1E+10	1	-1E+10	1	-1E+10	1	-1E+10	1	-1E+10	1
4902551	39	C	09/06/2021	10:54	-134.816	49.567	0	1.80	0	15.4820	0	32.2070	0	23.716	0	1.785	0	244.6	4	97.8	4	-1E+10	1	-1E+10	1	-1E+10	1	-1E+10	1	-1E+10	1	-1E+10	1
4902551	39	C	09/06/2021	10:54	-134.816	49.567	0	2.80	0	15.4820	0	32.2070	0	23.716	0	2.776	0	244.6	4	97.8	4	-1E+10	1	-1E+10	1	-1E+10	1	-1E+10	1	-1E+10	1	-1E+10	1
4902551	39	C	09/06/2021	10:54	-134.816	49.567	0	3.90	0	15.4820	0	32.2080	0	23.717	0	3.867	0	244.7	4	97.8	4	-1E+10	1	-1E+10	1	-1E+10	1	-1E+10	1	-1E+10	1	-1E+10	1
4902551	39	C	09/06/2021	10:54	-134.816	49.567	0	4.90	0	15.4820	0	32.2090	0	23.718	0	4.858	0	244.7	4	97.8	4	-1E+10	1	-1E+10	1	-1E+10	1	-1E+10	1	-1E+10	1	-1E+10	1
4902551	39	C	09/06/2021	10:54	-134.816	49.567	0	6.00	0	15.4820	0	32.2100	0	23.718	0	5.949	0	244.8	4	97.8	4	-1E+10	1	-1E+10	1	-1E+10	1	-1E+10	1	-1E+10	1	-1E+10	1
4902551	39	C	09/06/2021	10:54	-134.816	49.567	0	6.80	0	15.4820	0	32.2100	0	23.718	0	6.742	0	244.9	4	97.9	4	-1E+10	1	-1E+10	1	-1E+10	1	-1E+10	1	-1E+10	1	-1E+10	1
4902551	39	C	09/06/2021	10:54	-134.816	49.567	0	7.70	0	15.4830	0	32.2050	0	23.714	0	7.634	0	244.9	4	97.9	4	-1E+10	1	-1E+10	1	-1E+10	1	-1E+10	1	-1E+10	1	-1E+10	1
4902551	39	C	09/06/2021	10:54	-134.816	49.567	0	8.90	0	15.4840	0	32.2110	0	23.719	0	8.824	0	245.0	4	97.9	4	-1E+10	1	-1E+10	1	-1E+10	1	-1E+10	1	-1E+10	1	-1E+10	1
4902551	39	C	09/06/2021	10:54	-134.816	49.567	0	10.20	0	15.4850	0	32.2110	0	23.719	0	10.113	0	245.1	4	98.0	4	-1E+10	1	-1E+10	1	-1E+10	1	-1E+10	1	-1E+10	1	-1E+10	1
4902551	39	C	09/06/2021	10:54	-134.816	49.567	0	11.00	0	15.4850	0	32.2110	0	23.719	0	10.906	0	245.1	4	98.0	4	-1E+10	1	-1E+10	1	-1E+10	1	-1E+10	1	-1E+10	1	-1E+10	1
4902551	39	C	09/06/2021	10:54	-134.816	49.567	0	11.80	0	15.4840	0	32.2110	0	23.719	0	11.699	0	245.1	4	98.0	4	-1E+10	1	-1E+10	1	-1E+10	1	-1E+10	1	-1E+10	1	-1E+10	1
4902551	39	C	09/06/2021	10:54	-134.816	49.567	0	13.00	0	15.4810	0	32.2110	0	23.720	0	12.889	0	245.3	4	98.0	4	-1E+10	1	-1E+10	1	-1E+10	1	-1E+10	1	-1E+10	1	-1E+10	1
4902551	39	C	09/06/2021	10:54	-134.816	49.567	0	14.20	0	15.4810	0	32.2110	0	23.720	0	14.078	0	245.4	4	98.1	4	-1E+10	1	-1E+10	1	-1E+10	1	-1E+10	1	-1E+10	1	-1E+10	1
4902551	39	C	09/06/2021	10:54	-134.816	49.567	0	15.00	0	15.4810	0	32.2110	0	23.720	0	14.871	0	245.5	4	98.1	4	-1E+10	1	-1E+10	1	-1E+10	1	-1E+10	1	-1E+10	1	-1E+10	1
4902551	39	C	09/06/2021	10:54	-134.816	49.567	0	15.80	0	15.4820	0	32.2120	0	23.720	0	15.665	0	245.7	4	98.2	4	-1E+10	1	-1E+10	1	-1E+10	1	-1E+10	1	-1E+10	1	-1E+10	1
4902551	39	C	09/06/2021	10:54	-134.816	49.567	0	16.90	0	15.4750	0	32.2120	0	23.722	0	16.755	0	245.8	4	98.2	4	-1E+10	1	-1E+10	1	-1E+10	1	-1E+10	1	-1E+10	1	-1E+10	1
4902551	39	C	09/06/2021	10:54	-134.816	49.567	0	18.00	0	15.4720	0	32.2120	0	23.722	0	17.846	0	246.1	4	98.3	4	-1E+10	1	-1E+10	1	-1E+10	1	-1E+10	1	-1E+10	1	-1E+10	1
4902551	39	C	09/06/2021	10:54	-134.816	49.567	0	19.00	0	15.4670	0	32.2100	0	23.722	0	18.837	0	246.4	4	98.4	4	-1E+10	1	-1E+10	1	-1E+10	1	-1E+10	1	-1E+10	1	-1E+10	1
4902551	39	C	09/06/2021	10:54	-134.816	49.567	0	20.10	0	15.4590	0	32.2110	0	23.725	0	19.928	0	246.7	4	98.6	4	-1E+10	1	-1E+10	1	-1E+10	1	-1E+10	1	-1E+10	1	-1E+10	1
4902551	39	C	09/06/2021	10:54	-134.816	49.567	0	21.00	0	15.4470	0	32.2130	0	23.729	0	20.820	0	247.2	4	98.7	4	-1E+10	1	-1E+10	1	-1E+10	1	-1E+10	1	-1E+10	1	-1E+10	1
4902551	39	C	09/06/2021	10:54	-134.816	49.567	0	22.00	0	15.4390	0	32.2100	0	23.728	0	21.811	0	247.7	4	98.9	4	-1E+10	1	-1E+10	1	-1E+10	1	-1E+10	1	-1E+10	1	-1E+10	1
4902551	39	C	09/06/2021	10:54	-134.816	49.567	0	22.90	0	15.4380	0	32.2090	0	23.728	0	22.703	0	248.3	4	99.1	4	-1E+10	1	-1E+10	1	-1E+10	1	-1E+10	1	-1E+10	1	-1E+10	1
4902551	39	C	09/06/2021	10:54	-134.816	49.567	0	24.10	0	15.4230	0	32.2110	0	23.733	0	23.893	0	249.7	4	99.7	4	-1E+10	1	-1E+10	1	-1E+10	1	-1E+10	1	-1E+10	1	-1E+10	1
4902551	39	C	09/06/2021	10:54	-134.816	49.567	0	24.90	0	15.3880	0	32.2080	0	23.738	0	24.686	0	252.6	4	100.7	4	-1E+10	1	-1E+10	1	-1E+10	1	-1E+10	1	-1E+10	1	-1E+10	1
4902551	39	C	09/06/2021	10:54	-134.816	49.567	0	25.80	0	15.2370	0	32.2160	0	23.777	0	25.578	0	256.7	4	102.1	4	-1E+10	1	-1E+10	1	-1E+10	1	-1E+10	1	-1E+10	1	-1E+10	1
4902551	39	C	09/06/2021	10:54	-134.816	49.567	0	26.90	0	14.8520	0	32.2330	0	23.873	0	26.669	0	261.7	4	103.3	4	-1E+10	1	-1E+10	1	-1E+10	1	-1E+10	1	-1E+10	1	-1E+10	1
4902551	39	C	09/06/2021	10:54	-134.816	49.567	0	28.00	0	14.4530	0	32.2410	0	23.963	0	27.759	0	267.9	4	104.9	4	-1E+10	1	-1E+10	1	-1E+10	1	-1E+10	1	-1E+10	1	-1E+10	1
4902551	39	C	09/06/2021	10:54	-134.816	49.567	0	28.80	0	14.1230	0	32.2430	0	24.034	0	28.552	0	273.3	4	106.4	4	-1E+10	1	-1E+10	1	-1E+10	1	-1E+10	1	-1E+10	1	-1E+10	1
4902551	39	C	09/06/2021	10:54	-134.816	49.567	0	29.80	0	13.4040	0	32.2810	0	24.209	0	29.544	0	279.3	4	107.1	4	-1E+10	1	-1E+10	1	-1E+10	1	-1E+10	1	-1E+10	1	-1E+10	1
4902551	39	C	09/06/2021	10:54	-134.816	49.567	0	31.10	0	12.5410	0	32.2950	0	24.388	0	30.832	0	284.8	4	107.3	4	-1E+10	1	-1E+10	1	-1E+10	1	-1E+10	1	-1E+10	1	-1E+10	1
4902551	39	C	09/06/2021	10:54	-134.816	49.567	0	32.00	0	11.6780	0	32.3560	0	24.597	0	31.724	0	289.7	4	107.3	4	-1E+10	1	-1E+10	1	-1E+10	1	-1E+10	1	-1E+10	1	-1E+10	1
4902551	39	C	09/06/2021	10:54	-134.816	49.567	0	33.00	0	10.9500	0	32.3210	0	24.700	0	32.716	0	292.3	4	106.6	4	-1E+10	1	-1E+10	1	-1E+10	1	-1E+10	1	-1E+10	1	-1E+10	1
4902551	39	C	09/06/2021	10:54	-134.816	49.567	0	33.90	0	10.6300	0	32.3280	0	24.761	0	33.608	0	292.1	4	105.8	4	-1E+10	1	-1E+10	1	-1E+10	1	-1E+10	1	-1E+10	1	-1E+10	1
4902551	39	C	09/06/2021	10:54	-134.816	49.567	0	35.10	0	10.2990	0	32.3440	0	24.830	0	34.798	0	291.7	4	104.9	4	-1E+10	1	-1E+10	1	-1E+10	1	-1E+10	1	-1E+10	1	-1E+10	1
4902551	39	C	09/06/2021	10:54	-134.816	49.567	0	35.80	0	10.1180	0	32.3470	0	24.862	0	35.491	0	291.2	4	104.3	4	-1E+10	1	-1E+10	1	-1E+10	1	-1E+10	1	-1E+10	1	-1E+10	1
4902551	39	C	09/06/2021	10:54	-134.816	49.567	0	36.90	0	10.0030	0	32.3470	0	24.882	0	36.582	0	289.5	4	103.5	4	-1E+10	1	-1E+10	1	-1E+10	1	-1E+10	1	-1E+10	1	-1E+10	1
4902551	39	C	09/06/2021	10:54	-134.816	49.567	0	37.90	0	9.9390	0	32.3450	0	24.891	0	37.573	0	287.8	4	102.7	4	-1E+10	1	-1E+10	1	-1E+10	1	-1E+10	1	-1E+10	1	-1E+10	1
4902551	39	C	09/06/2021	10:54	-134.816	49.567	0	39.10	0	9.8230	0	32.3420	0	24.907	0	38.763	0	285.9	4	101.7	4	-1E+10	1	-1E+10	1	-1E+10	1	-1E+10	1	-1E+10	1	-1E+10	1
4902551	39	C	09/06/2021	10:54	-134.816	49.567	0	39.90	0	9.4590	0	32.3530	0	24.975	0	39.556	0	285.4	4	100.8	4	-1E+10	1	-1E+10	1	-1E+10	1	-1E+10	1	-1E+10	1	-1E+10	1
4902551	39	C	09/06/2021	10:54	-134.816	49.567	0	41.10	0	9.1260	0	32.3650	0	25.037	0	40.745	0	285.0	4	99.9	4	-1E+10	1	-1E+10	1	-1E+10	1	-1E+10	1	-1E+10	1	-1E+10	1
4902551	39	C	09/06/2021	10:54	-134.816	49.567	0	42.00	0	9.0470	0	32.3690	0	25.052	0	41.637	0	284.2	4	99.5	4	-1E+10	1	-1E+10	1	-1E+10	1	-1E+10	1	-1E+10	1	-1E+10	1
4902551	39	C	09/06/2021	10:54	-134.816	49.567	0	43.00	0	8.8410	0	32.3760	0	25.089	0	42.629	0	284.2	4	99.0	4	-1E+10	1	-1E+10	1	-1E+10	1	-1E+10	1	-1E+10	1	-1E+10	1
4902551	39	C	09/06/2021	10:54	-134.816	49.567	0	44.00	0	8.7740	0	32.3730	0	25.097	0	43.620	0	283.7	4	98.7	4	-1E+10	1	-1E+10	1	-1E+10	1	-1E+10	1	-1E+10	1	-1E+10	1
4902551	39	C	09/06/2021	10:54	-134.816	49.567	0	45.00	0	8.5850	0	32.3860	0	25.136	0	44.611	0	283.7	4	98.3	4	-1E+10	1	-1E+10	1	-1E+10	1	-1E+10	1	-1E+10	1	-1E+10	1
4902551	39	C	09/06/2021	10:54	-134.816	49.567	0	46.10	0	8.4790	0	32.3870	0	25.153	0	45.701	0	283.5	4	98.0	4	-1E+10	1	-1E+10	1	-1E+10	1	-1E+10	1	-1E+10	1	-1E+10	1
4902551	39	C	09/06/2021	10:54	-134.816	49.567	0	47.30	0	8.3890	0	32.3890	0	25.168	0	46.891	0	283.0	4	97.6	4	-1E+10	1	-1E+10	1	-1E+10	1	-1E+10	1	-1E+10	1	-1E+10	1
4902551	39	C	09/06/2021	10:54	-134.816	49.567	0	48.20	0	8.3210	0	32.3920	0	25.180	0	47.783	0	282.7	4	97.4	4	-1E+10	1	-1E+10	1	-1E+10	1	-1E+10	1	-1E+10	1	-1E+10	1
4902551	39	C	09/06/2021	10:54	-134.816	49.567	0	49.00	0	8.2220	0	32.3910	0	25.194	0	48.576	0	282.6	4	97.1	4	-1E+10	1	-1E+10	1	-1E+10	1	-1E+10	1	-1E+10	1	-1E+10	1
4902551	39	C	09/06/2021	10:54	-134.816	49.567	0	50.00	0	8.0670	0	32.3970	0	25.221	0	49.567	0	282.3	4	96.7	4	-1E+10	1	-1E+10	1	-1E+10	1	-1E+10	1	-1E+10	1	-1E+10	1
4902551	39	C	09/06/2021	10:54	-134.816	49.567	0	50.90	0	8.0120	0	32.3970	0	25.229	0	50.459	0	281.9	4	96.4	4	-1E+10	1	-1E+10	1	-1E+10	1	-1E+10	1	-1E+10	1	-1E+10	1
4902551	39	C	09/06/2021	10:54	-134.816	49.567	0	51.80	0	7.9580	0	32.4010	0	25.240	0	51.352	0	281.5	4	96.2	4	-1E+10	1	-1E+10	1	-1E+10	1	-1E+10	1	-1E+10	1	-1E+10	1
4902551	39	C	09/06/2021	10:54	-134.816	49.567	0	52.90	0	7.8990	0	32.4030	0	25.250	0	52.442	0	281.3	4	96.0	4	-1E+10	1	-1E+10	1	-1E+10	1	-1E+10	1	-1E+10	1	-1E+10	1
4902551	39	C	09/06/2021	10:54	-134.816	49.567	0	54.10	0	7.8460	0	32.4050	0	25.259	0	53.631	0	281.1	4	95.8	4	-1E+10	1	-1E+10	1	-1E+10	1	-1E+10	1	-1E+10	1	-1E+10	1
4902551	39	C	09/06/2021	10:54	-134.816	49.567	0	54.90	0	7.8170	0	32.4050	0	25.264	0	54.424	0	281.0	4	95.7	4	-1E+10	1	-1E+10	1	-1E+10	1	-1E+10	1	-1E+10	1	-1E+10	1
4902551	39	C	09/06/2021	10:54	-134.816	49.567	0	56.20	0	7.7790	0	32.4040	0	25.268	0	55.713	0	280.6	4	95.5	4	-1E+10	1	-1E+10	1	-1E+10	1	-1E+10	1	-1E+10	1	-1E+10	1
4902551	39	C	09/06/2021	10:54	-134.816	49.567	0	57.10	0	7.7730	0	32.4050	0	25.270	0	56.605	0	280.3	4	95.4	4	-1E+10	1	-1E+10	1	-1E+10	1	-1E+10	1	-1E+10	1	-1E+10	1
4902551	39	C	09/06/2021	10:54	-134.816	49.567	0	57.80	0	7.7480	0	32.4050	0	25.273	0	57.299	0	280.2	4	95.3	4	-1E+10	1	-1E+10	1	-1E+10	1	-1E+10	1	-1E+10	1	-1E+10	1
4902551	39	C	09/06/2021	10:54	-134.816	49.567	0	58.90	0	7.6800	0	32.4080	0	25.285	0	58.389	0	280.1	4	95.1	4	-1E+10	1	-1E+10	1	-1E+10	1	-1E+10	1	-1E+10	1	-1E+10	1
4902551	39	C	09/06/2021	10:54	-134.816	49.567	0	60.30	0	7.6190	0	32.4110	0	25.296	0	59.777	0	279.7	4	94.8	4	-1E+10	1	-1E+10	1	-1E+10	1	-1E+10	1	-1E+10	1	-1E+10	1
4902551	39	C	09/06/2021	10:54	-134.816	49.567	0	61.00	0	7.6090	0	32.4100	0	25.297	0	60.471	0	279.4	4	94.7	4	-1E+10	1	-1E+10	1	-1E+10	1	-1E+10	1	-1E+10	1	-1E+10	1
4902551	39	C	09/06/2021	10:54	-134.816	49.567	0	61.90	0	7.6010	0	32.4100	0	25.298	0	61.363	0	279.0	4	94.6	4	-1E+10	1	-1E+10	1	-1E+10	1	-1E+10	1	-1E+10	1	-1E+10	1
4902551	39	C	09/06/2021	10:54	-134.816	49.567	0	62.80	0	7.5940	0	32.4090	0	25.298	0	62.255	0	278.6	4	94.4	4	-1E+10	1	-1E+10	1	-1E+10	1	-1E+10	1	-1E+10	1	-1E+10	1
4902551	39	C	09/06/2021	10:54	-134.816	49.567	0	63.90	0	7.5600	0	32.4090	0	25.303	0	63.345	0	278.1	4	94.2	4	-1E+10	1	-1E+10	1	-1E+10	1	-1E+10	1	-1E+10	1	-1E+10	1
4902551	39	C	09/06/2021	10:54	-134.816	49.567	0	65.20	0	7.4830	0	32.4110	0	25.315	0	64.633	0	277.7	4	93.9	4	-1E+10	1	-1E+10	1	-1E+10	1	-1E+10	1	-1E+10	1	-1E+10	1
4902551	39	C	09/06/2021	10:54	-134.816	49.567	0	66.00	0	7.3690	0	32.4170	0	25.336	0	65.426	0	277.7	4	93.6	4	-1E+10	1	-1E+10	1	-1E+10	1	-1E+10	1	-1E+10	1	-1E+10	1
4902551	39	C	09/06/2021	10:54	-134.816	49.567	0	66.90	0	7.3080	0	32.4170	0	25.344	0	66.318	0	277.4	4	93.4	4	-1E+10	1	-1E+10	1	-1E+10	1	-1E+10	1	-1E+10	1	-1E+10	1
4902551	39	C	09/06/2021	10:54	-134.816	49.567	0	68.20	0	7.2340	0	32.4210	0	25.357	0	67.607	0	276.8	4	93.1	4	-1E+10	1	-1E+10	1	-1E+10	1	-1E+10	1	-1E+10	1	-1E+10	1
4902551	39	C	09/06/2021	10:54	-134.816	49.567	0	69.00	0	7.2000	0	32.4220	0	25.363	0	68.400	0	276.4	4	92.9	4	-1E+10	1	-1E+10	1	-1E+10	1	-1E+10	1	-1E+10	1	-1E+10	1
4902551	39	C	09/06/2021	10:54	-134.816	49.567	0	70.20	0	7.1250	0	32.4240	0	25.374	0	69.589	0	276.1	4	92.6	4	-1E+10	1	-1E+10	1	-1E+10	1	-1E+10	1	-1E+10	1	-1E+10	1
4902551	39	C	09/06/2021	10:54	-134.816	49.567	0	71.10	0	7.0730	0	32.4250	0	25.382	0	70.481	0	275.7	4	92.4	4	-1E+10	1	-1E+10	1	-1E+10	1	-1E+10	1	-1E+10	1	-1E+10	1
4902551	39	C	09/06/2021	10:54	-134.816	49.567	0	71.90	0	7.0190	0	32.4280	0	25.392	0	71.274	0	275.4	4	92.1	4	-1E+10	1	-1E+10	1	-1E+10	1	-1E+10	1	-1E+10	1	-1E+10	1
4902551	39	C	09/06/2021	10:54	-134.816	49.567	0	73.10	0	6.9780	0	32.4290	0	25.398	0	72.463	0	275.0	4	91.9	4	-1E+10	1	-1E+10	1	-1E+10	1	-1E+10	1	-1E+10	1	-1E+10	1
4902551	39	C	09/06/2021	10:54	-134.816	49.567	0	73.90	0	6.9590	0	32.4290	0	25.401	0	73.256	0	274.6	4	91.7	4	-1E+10	1	-1E+10	1	-1E+10	1	-1E+10	1	-1E+10	1	-1E+10	1
4902551	39	C	09/06/2021	10:54	-134.816	49.567	0	75.10	0	6.9150	0	32.4310	0	25.408	0	74.446	0	274.0	4	91.4	4	-1E+10	1	-1E+10	1	-1E+10	1	-1E+10	1	-1E+10	1	-1E+10	1
4902551	39	C	09/06/2021	10:54	-134.816	49.567	0	76.10	0	6.8860	0	32.4310	0	25.412	0	75.437	0	273.3	4	91.2	4	-1E+10	1	-1E+10	1	-1E+10	1	-1E+10	1	-1E+10	1	-1E+10	1
4902551	39	C	09/06/2021	10:54	-134.816	49.567	0	77.00	0	6.8450	0	32.4320	0	25.418	0	76.329	0	272.9	4	90.9	4	-1E+10	1	-1E+10	1	-1E+10	1	-1E+10	1	-1E+10	1	-1E+10	1
4902551	39	C	09/06/2021	10:54	-134.816	49.567	0	77.90	0	6.7740	0	32.4360	0	25.430	0	77.221	0	272.9	4	90.8	4	-1E+10	1	-1E+10	1	-1E+10	1	-1E+10	1	-1E+10	1	-1E+10	1
4902551	39	C	09/06/2021	10:54	-134.816	49.567	0	78.90	0	6.7130	0	32.4390	0	25.441	0	78.212	0	272.9	4	90.7	4	-1E+10	1	-1E+10	1	-1E+10	1	-1E+10	1	-1E+10	1	-1E+10	1
4902551	39	C	09/06/2021	10:54	-134.816	49.567	0	79.80	0	6.6840	0	32.4410	0	25.446	0	79.104	0	272.6	4	90.5	4	-1E+10	1	-1E+10	1	-1E+10	1	-1E+10	1	-1E+10	1	-1E+10	1
4902551	39	C	09/06/2021	10:54	-134.816	49.567	0	80.80	0	6.6500	0	32.4420	0	25.451	0	80.095	0	272.5	4	90.4	4	-1E+10	1	-1E+10	1	-1E+10	1	-1E+10	1	-1E+10	1	-1E+10	1
4902551	39	C	09/06/2021	10:54	-134.816	49.567	0	82.10	0	6.6030	0	32.4440	0	25.459	0	81.383	0	272.3	4	90.2	4	-1E+10	1	-1E+10	1	-1E+10	1	-1E+10	1	-1E+10	1	-1E+10	1
4902551	39	C	09/06/2021	10:54	-134.816	49.567	0	82.90	0	6.5570	0	32.4470	0	25.467	0	82.176	0	272.4	4	90.2	4	-1E+10	1	-1E+10	1	-1E+10	1	-1E+10	1	-1E+10	1	-1E+10	1
4902551	39	C	09/06/2021	10:54	-134.816	49.567	0	84.00	0	6.5340	0	32.4480	0	25.471	0	83.266	0	272.2	4	90.1	4	-1E+10	1	-1E+10	1	-1E+10	1	-1E+10	1	-1E+10	1	-1E+10	1
4902551	39	C	09/06/2021	10:54	-134.816	49.567	0	85.00	0	6.5070	0	32.4500	0	25.476	0	84.257	0	272.1	4	90.0	4	-1E+10	1	-1E+10	1	-1E+10	1	-1E+10	1	-1E+10	1	-1E+10	1
4902551	39	C	09/06/2021	10:54	-134.816	49.567	0	86.10	0	6.4720	0	32.4540	0	25.484	0	85.347	0	271.8	4	89.8	4	-1E+10	1	-1E+10	1	-1E+10	1	-1E+10	1	-1E+10	1	-1E+10	1
4902551	39	C	09/06/2021	10:54	-134.816	49.567	0	87.00	0	6.4570	0	32.4550	0	25.486	0	86.239	0	271.5	4	89.7	4	-1E+10	1	-1E+10	1	-1E+10	1	-1E+10	1	-1E+10	1	-1E+10	1
4902551	39	C	09/06/2021	10:54	-134.816	49.567	0	87.90	0	6.4260	0	32.4580	0	25.493	0	87.131	0	271.4	4	89.6	4	-1E+10	1	-1E+10	1	-1E+10	1	-1E+10	1	-1E+10	1	-1E+10	1
4902551	39	C	09/06/2021	10:54	-134.816	49.567	0	89.10	0	6.3880	0	32.4620	0	25.501	0	88.321	0	271.2	4	89.4	4	-1E+10	1	-1E+10	1	-1E+10	1	-1E+10	1	-1E+10	1	-1E+10	1
4902551	39	C	09/06/2021	10:54	-134.816	49.567	0	90.00	0	6.3720	0	32.4640	0	25.504	0	89.213	0	270.9	4	89.3	4	-1E+10	1	-1E+10	1	-1E+10	1	-1E+10	1	-1E+10	1	-1E+10	1
4902551	39	C	09/06/2021	10:54	-134.816	49.567	0	90.90	0	6.3560	0	32.4650	0	25.507	0	90.104	0	270.6	4	89.2	4	-1E+10	1	-1E+10	1	-1E+10	1	-1E+10	1	-1E+10	1	-1E+10	1
4902551	39	C	09/06/2021	10:54	-134.816	49.567	0	91.90	0	6.3450	0	32.4660	0	25.509	0	91.095	0	270.2	4	89.0	4	-1E+10	1	-1E+10	1	-1E+10	1	-1E+10	1	-1E+10	1	-1E+10	1
4902551	39	C	09/06/2021	10:54	-134.816	49.567	0	92.80	0	6.3190	0	32.4700	0	25.516	0	91.987	0	269.7	4	88.8	4	-1E+10	1	-1E+10	1	-1E+10	1	-1E+10	1	-1E+10	1	-1E+10	1
4902551	39	C	09/06/2021	10:54	-134.816	49.567	0	94.10	0	6.2810	0	32.4710	0	25.521	0	93.276	0	268.8	4	88.4	4	-1E+10	1	-1E+10	1	-1E+10	1	-1E+10	1	-1E+10	1	-1E+10	1
4902551	39	C	09/06/2021	10:54	-134.816	49.567	0	95.10	0	6.2650	0	32.4720	0	25.524	0	94.267	0	267.6	4	88.0	4	-1E+10	1	-1E+10	1	-1E+10	1	-1E+10	1	-1E+10	1	-1E+10	1
4902551	39	C	09/06/2021	10:54	-134.816	49.567	0	96.00	0	6.2330	0	32.4750	0	25.530	0	95.159	0	266.7	4	87.7	4	-1E+10	1	-1E+10	1	-1E+10	1	-1E+10	1	-1E+10	1	-1E+10	1
4902551	39	C	09/06/2021	10:54	-134.816	49.567	0	97.00	0	6.2470	0	32.4840	0	25.536	0	96.150	0	265.9	4	87.4	4	-1E+10	1	-1E+10	1	-1E+10	1	-1E+10	1	-1E+10	1	-1E+10	1
4902551	39	C	09/06/2021	10:54	-134.816	49.567	0	97.90	0	6.2450	0	32.4870	0	25.538	0	97.042	0	265.0	4	87.1	4	-1E+10	1	-1E+10	1	-1E+10	1	-1E+10	1	-1E+10	1	-1E+10	1
4902551	39	C	09/06/2021	10:54	-134.816	49.567	0	98.90	0	6.2230	0	32.4900	0	25.543	0	98.033	0	264.0	4	86.8	4	-1E+10	1	-1E+10	1	-1E+10	1	-1E+10	1	-1E+10	1	-1E+10	1
4902551	39	C	09/06/2021	10:54	-134.816	49.567	0	99.80	0	6.2040	0	32.4920	0	25.547	0	98.924	0	263.0	4	86.4	4	-1E+10	1	-1E+10	1	-1E+10	1	-1E+10	1	-1E+10	1	-1E+10	1
4902551	39	C	09/06/2021	10:54	-134.816	49.567	0	101.00	0	6.1900	0	32.4970	0	25.553	0	100.114	0	261.2	4	85.8	4	-1E+10	1	-1E+10	1	-1E+10	1	-1E+10	1	-1E+10	1	-1E+10	1
4902551	39	C	09/06/2021	10:54	-134.816	49.567	0	102.10	0	6.1280	0	32.5100	0	25.571	0	101.204	0	259.5	4	85.1	4	-1E+10	1	-1E+10	1	-1E+10	1	-1E+10	1	-1E+10	1	-1E+10	1
4902551	39	C	09/06/2021	10:54	-134.816	49.567	0	103.10	0	6.0810	0	32.5170	0	25.582	0	102.195	0	257.5	4	84.3	4	-1E+10	1	-1E+10	1	-1E+10	1	-1E+10	1	-1E+10	1	-1E+10	1
4902551	39	C	09/06/2021	10:54	-134.816	49.567	0	104.10	0	6.0700	0	32.5260	0	25.591	0	103.186	0	254.6	4	83.4	4	-1E+10	1	-1E+10	1	-1E+10	1	-1E+10	1	-1E+10	1	-1E+10	1
4902551	39	C	09/06/2021	10:54	-134.816	49.567	0	105.10	0	6.0730	0	32.5470	0	25.607	0	104.177	0	250.0	4	81.9	4	-1E+10	1	-1E+10	1	-1E+10	1	-1E+10	1	-1E+10	1	-1E+10	1
4902551	39	C	09/06/2021	10:54	-134.816	49.567	0	106.10	0	6.0830	0	32.5700	0	25.624	0	105.168	0	242.9	4	79.6	4	-1E+10	1	-1E+10	1	-1E+10	1	-1E+10	1	-1E+10	1	-1E+10	1
4902551	39	C	09/06/2021	10:54	-134.816	49.567	0	107.00	0	6.0880	0	32.5890	0	25.638	0	106.059	0	236.7	4	77.6	4	-1E+10	1	-1E+10	1	-1E+10	1	-1E+10	1	-1E+10	1	-1E+10	1
4902551	39	C	09/06/2021	10:54	-134.816	49.567	0	108.10	0	6.1480	0	32.6690	0	25.694	0	107.149	0	231.2	4	75.9	4	-1E+10	1	-1E+10	1	-1E+10	1	-1E+10	1	-1E+10	1	-1E+10	1
4902551	39	C	09/06/2021	10:54	-134.816	49.567	0	109.10	0	6.1600	0	32.7230	0	25.735	0	108.140	0	228.1	4	75.0	4	-1E+10	1	-1E+10	1	-1E+10	1	-1E+10	1	-1E+10	1	-1E+10	1
4902551	39	C	09/06/2021	10:54	-134.816	49.567	0	110.10	0	6.1590	0	32.7530	0	25.759	0	109.131	0	225.8	4	74.3	4	-1E+10	1	-1E+10	1	-1E+10	1	-1E+10	1	-1E+10	1	-1E+10	1
4902551	39	C	09/06/2021	10:54	-134.816	49.567	0	111.00	0	6.1440	0	32.7780	0	25.781	0	110.023	0	224.0	4	73.6	4	-1E+10	1	-1E+10	1	-1E+10	1	-1E+10	1	-1E+10	1	-1E+10	1
4902551	39	C	09/06/2021	10:54	-134.816	49.567	0	111.90	0	6.1350	0	32.8090	0	25.806	0	110.915	0	222.2	4	73.0	4	-1E+10	1	-1E+10	1	-1E+10	1	-1E+10	1	-1E+10	1	-1E+10	1
4902551	39	C	09/06/2021	10:54	-134.816	49.567	0	112.90	0	6.1340	0	32.8190	0	25.814	0	111.906	0	220.4	4	72.4	4	-1E+10	1	-1E+10	1	-1E+10	1	-1E+10	1	-1E+10	1	-1E+10	1
4902551	39	C	09/06/2021	10:54	-134.816	49.567	0	113.80	0	6.1340	0	32.8400	0	25.831	0	112.798	0	218.5	4	71.8	4	-1E+10	1	-1E+10	1	-1E+10	1	-1E+10	1	-1E+10	1	-1E+10	1
4902551	39	C	09/06/2021	10:54	-134.816	49.567	0	114.90	0	6.1330	0	32.8560	0	25.844	0	113.888	0	216.3	4	71.1	4	-1E+10	1	-1E+10	1	-1E+10	1	-1E+10	1	-1E+10	1	-1E+10	1
4902551	39	C	09/06/2021	10:54	-134.816	49.567	0	115.90	0	6.1320	0	32.8650	0	25.851	0	114.879	0	214.3	4	70.5	4	-1E+10	1	-1E+10	1	-1E+10	1	-1E+10	1	-1E+10	1	-1E+10	1
4902551	39	C	09/06/2021	10:54	-134.816	49.567	0	117.00	0	6.1300	0	32.8730	0	25.857	0	115.969	0	212.1	4	69.8	4	-1E+10	1	-1E+10	1	-1E+10	1	-1E+10	1	-1E+10	1	-1E+10	1
4902551	39	C	09/06/2021	10:54	-134.816	49.567	0	117.70	0	6.1270	0	32.8840	0	25.867	0	116.662	0	210.3	4	69.2	4	-1E+10	1	-1E+10	1	-1E+10	1	-1E+10	1	-1E+10	1	-1E+10	1
4902551	39	C	09/06/2021	10:54	-134.816	49.567	0	118.80	0	6.1190	0	32.8940	0	25.875	0	117.752	0	207.9	4	68.3	4	-1E+10	1	-1E+10	1	-1E+10	1	-1E+10	1	-1E+10	1	-1E+10	1
4902551	39	C	09/06/2021	10:54	-134.816	49.567	0	120.00	0	6.1140	0	32.9030	0	25.883	0	118.941	0	205.3	4	67.5	4	-1E+10	1	-1E+10	1	-1E+10	1	-1E+10	1	-1E+10	1	-1E+10	1
4902551	39	C	09/06/2021	10:54	-134.816	49.567	0	121.00	0	6.1070	0	32.9120	0	25.891	0	119.932	0	202.5	4	66.6	4	-1E+10	1	-1E+10	1	-1E+10	1	-1E+10	1	-1E+10	1	-1E+10	1
4902551	39	C	09/06/2021	10:54	-134.816	49.567	0	122.20	0	6.0950	0	32.9200	0	25.899	0	121.121	0	198.9	4	65.4	4	-1E+10	1	-1E+10	1	-1E+10	1	-1E+10	1	-1E+10	1	-1E+10	1
4902551	39	C	09/06/2021	10:54	-134.816	49.567	0	123.00	0	6.0910	0	32.9580	0	25.929	0	121.914	0	196.2	4	64.5	4	-1E+10	1	-1E+10	1	-1E+10	1	-1E+10	1	-1E+10	1	-1E+10	1
4902551	39	C	09/06/2021	10:54	-134.816	49.567	0	123.80	0	6.0930	0	32.9720	0	25.940	0	122.707	0	193.4	4	63.6	4	-1E+10	1	-1E+10	1	-1E+10	1	-1E+10	1	-1E+10	1	-1E+10	1
4902551	39	C	09/06/2021	10:54	-134.816	49.567	0	124.60	0	6.0930	0	32.9840	0	25.950	0	123.499	0	189.9	4	62.5	4	-1E+10	1	-1E+10	1	-1E+10	1	-1E+10	1	-1E+10	1	-1E+10	1
4902551	39	C	09/06/2021	10:54	-134.816	49.567	0	125.90	0	6.1650	0	33.0820	0	26.018	0	124.788	0	185.6	4	61.2	4	-1E+10	1	-1E+10	1	-1E+10	1	-1E+10	1	-1E+10	1	-1E+10	1
4902551	39	C	09/06/2021	10:54	-134.816	49.567	0	127.20	0	6.2020	0	33.1470	0	26.065	0	126.076	0	182.8	4	60.3	4	-1E+10	1	-1E+10	1	-1E+10	1	-1E+10	1	-1E+10	1	-1E+10	1
4902551	39	C	09/06/2021	10:54	-134.816	49.567	0	128.10	0	6.2030	0	33.1630	0	26.077	0	126.967	0	181.0	4	59.8	4	-1E+10	1	-1E+10	1	-1E+10	1	-1E+10	1	-1E+10	1	-1E+10	1
4902551	39	C	09/06/2021	10:54	-134.816	49.567	0	128.90	0	6.2010	0	33.1790	0	26.090	0	127.760	0	179.3	4	59.2	4	-1E+10	1	-1E+10	1	-1E+10	1	-1E+10	1	-1E+10	1	-1E+10	1
4902551	39	C	09/06/2021	10:54	-134.816	49.567	0	129.80	0	6.2090	0	33.1880	0	26.096	0	128.652	0	177.5	4	58.6	4	-1E+10	1	-1E+10	1	-1E+10	1	-1E+10	1	-1E+10	1	-1E+10	1
4902551	39	C	09/06/2021	10:54	-134.816	49.567	0	131.00	0	6.2360	0	33.1960	0	26.099	0	129.841	0	174.1	4	57.5	4	-1E+10	1	-1E+10	1	-1E+10	1	-1E+10	1	-1E+10	1	-1E+10	1
4902551	39	C	09/06/2021	10:54	-134.816	49.567	0	132.30	0	6.2450	0	33.2200	0	26.117	0	131.129	0	170.9	4	56.5	4	-1E+10	1	-1E+10	1	-1E+10	1	-1E+10	1	-1E+10	1	-1E+10	1
4902551	39	C	09/06/2021	10:54	-134.816	49.567	0	133.10	0	6.2460	0	33.2460	0	26.138	0	131.922	0	168.4	4	55.7	4	-1E+10	1	-1E+10	1	-1E+10	1	-1E+10	1	-1E+10	1	-1E+10	1
4902551	39	C	09/06/2021	10:54	-134.816	49.567	0	133.90	0	6.2660	0	33.2860	0	26.167	0	132.714	0	166.1	4	55.0	4	-1E+10	1	-1E+10	1	-1E+10	1	-1E+10	1	-1E+10	1	-1E+10	1
4902551	39	C	09/06/2021	10:54	-134.816	49.567	0	134.80	0	6.2520	0	33.3110	0	26.188	0	133.606	0	164.1	4	54.3	4	-1E+10	1	-1E+10	1	-1E+10	1	-1E+10	1	-1E+10	1	-1E+10	1
4902551	39	C	09/06/2021	10:54	-134.816	49.567	0	135.70	0	6.2130	0	33.3430	0	26.218	0	134.498	0	162.8	4	53.8	4	-1E+10	1	-1E+10	1	-1E+10	1	-1E+10	1	-1E+10	1	-1E+10	1
4902551	39	C	09/06/2021	10:54	-134.816	49.567	0	137.00	0	6.1570	0	33.3650	0	26.243	0	135.786	0	161.1	4	53.2	4	-1E+10	1	-1E+10	1	-1E+10	1	-1E+10	1	-1E+10	1	-1E+10	1
4902551	39	C	09/06/2021	10:54	-134.816	49.567	0	138.30	0	6.1380	0	33.3690	0	26.248	0	137.074	0	158.8	4	52.4	4	-1E+10	1	-1E+10	1	-1E+10	1	-1E+10	1	-1E+10	1	-1E+10	1
4902551	39	C	09/06/2021	10:54	-134.816	49.567	0	139.20	0	6.1160	0	33.3910	0	26.268	0	137.966	0	157.4	4	52.0	4	-1E+10	1	-1E+10	1	-1E+10	1	-1E+10	1	-1E+10	1	-1E+10	1
4902551	39	C	09/06/2021	10:54	-134.816	49.567	0	140.10	0	6.1130	0	33.4040	0	26.279	0	138.857	0	156.2	4	51.5	4	-1E+10	1	-1E+10	1	-1E+10	1	-1E+10	1	-1E+10	1	-1E+10	1
4902551	39	C	09/06/2021	10:54	-134.816	49.567	0	140.90	0	6.1140	0	33.4190	0	26.291	0	139.650	0	155.0	4	51.1	4	-1E+10	1	-1E+10	1	-1E+10	1	-1E+10	1	-1E+10	1	-1E+10	1
4902551	39	C	09/06/2021	10:54	-134.816	49.567	0	141.80	0	6.1130	0	33.4270	0	26.297	0	140.542	0	153.6	4	50.7	4	-1E+10	1	-1E+10	1	-1E+10	1	-1E+10	1	-1E+10	1	-1E+10	1
4902551	39	C	09/06/2021	10:54	-134.816	49.567	0	142.60	0	6.1060	0	33.4420	0	26.310	0	141.334	0	152.3	4	50.3	4	-1E+10	1	-1E+10	1	-1E+10	1	-1E+10	1	-1E+10	1	-1E+10	1
4902551	39	C	09/06/2021	10:54	-134.816	49.567	0	143.90	0	6.0960	0	33.4620	0	26.327	0	142.622	0	150.3	4	49.6	4	-1E+10	1	-1E+10	1	-1E+10	1	-1E+10	1	-1E+10	1	-1E+10	1
4902551	39	C	09/06/2021	10:54	-134.816	49.567	0	145.30	0	6.0890	0	33.4720	0	26.336	0	144.009	0	148.0	4	48.9	4	-1E+10	1	-1E+10	1	-1E+10	1	-1E+10	1	-1E+10	1	-1E+10	1
4902551	39	C	09/06/2021	10:54	-134.816	49.567	0	146.20	0	6.0850	0	33.4880	0	26.349	0	144.901	0	146.6	4	48.4	4	-1E+10	1	-1E+10	1	-1E+10	1	-1E+10	1	-1E+10	1	-1E+10	1
4902551	39	C	09/06/2021	10:54	-134.816	49.567	0	147.10	0	6.0810	0	33.5000	0	26.359	0	145.793	0	145.5	4	48.0	4	-1E+10	1	-1E+10	1	-1E+10	1	-1E+10	1	-1E+10	1	-1E+10	1
4902551	39	C	09/06/2021	10:54	-134.816	49.567	0	148.10	0	6.0710	0	33.5230	0	26.378	0	146.784	0	144.4	4	47.7	4	-1E+10	1	-1E+10	1	-1E+10	1	-1E+10	1	-1E+10	1	-1E+10	1
4902551	39	C	09/06/2021	10:54	-134.816	49.567	0	149.00	0	6.0820	0	33.5280	0	26.381	0	147.675	0	143.2	4	47.3	4	-1E+10	1	-1E+10	1	-1E+10	1	-1E+10	1	-1E+10	1	-1E+10	1
4902551	39	C	09/06/2021	10:54	-134.816	49.567	0	150.00	0	6.0860	0	33.5310	0	26.383	0	148.666	0	141.9	4	46.8	4	-1E+10	1	-1E+10	1	-1E+10	1	-1E+10	1	-1E+10	1	-1E+10	1
4902551	39	C	09/06/2021	10:54	-134.816	49.567	0	150.90	0	6.0620	0	33.5600	0	26.409	0	149.558	0	140.6	4	46.4	4	-1E+10	1	-1E+10	1	-1E+10	1	-1E+10	1	-1E+10	1	-1E+10	1
4902551	39	C	09/06/2021	10:54	-134.816	49.567	0	151.90	0	6.0560	0	33.5810	0	26.426	0	150.548	0	139.3	4	46.0	4	-1E+10	1	-1E+10	1	-1E+10	1	-1E+10	1	-1E+10	1	-1E+10	1
4902551	39	C	09/06/2021	10:54	-134.816	49.567	0	152.80	0	6.0460	0	33.6000	0	26.442	0	151.440	0	138.3	4	45.7	4	-1E+10	1	-1E+10	1	-1E+10	1	-1E+10	1	-1E+10	1	-1E+10	1
4902551	39	C	09/06/2021	10:54	-134.816	49.567	0	153.80	0	6.0440	0	33.6060	0	26.447	0	152.431	0	137.0	4	45.2	4	-1E+10	1	-1E+10	1	-1E+10	1	-1E+10	1	-1E+10	1	-1E+10	1
4902551	39	C	09/06/2021	10:54	-134.816	49.567	0	154.90	0	6.0400	0	33.6210	0	26.460	0	153.521	0	135.7	4	44.8	4	-1E+10	1	-1E+10	1	-1E+10	1	-1E+10	1	-1E+10	1	-1E+10	1
4902551	39	C	09/06/2021	10:54	-134.816	49.567	0	156.10	0	6.0360	0	33.6350	0	26.471	0	154.709	0	134.6	4	44.4	4	-1E+10	1	-1E+10	1	-1E+10	1	-1E+10	1	-1E+10	1	-1E+10	1
4902551	39	C	09/06/2021	10:54	-134.816	49.567	0	156.90	0	6.0390	0	33.6410	0	26.476	0	155.502	0	133.8	4	44.2	4	-1E+10	1	-1E+10	1	-1E+10	1	-1E+10	1	-1E+10	1	-1E+10	1
4902551	39	C	09/06/2021	10:54	-134.816	49.567	0	158.00	0	6.0470	0	33.6490	0	26.481	0	156.592	0	132.7	4	43.8	4	-1E+10	1	-1E+10	1	-1E+10	1	-1E+10	1	-1E+10	1	-1E+10	1
4902551	39	C	09/06/2021	10:54	-134.816	49.567	0	159.30	0	6.0490	0	33.6630	0	26.492	0	157.880	0	131.8	4	43.5	4	-1E+10	1	-1E+10	1	-1E+10	1	-1E+10	1	-1E+10	1	-1E+10	1
4902551	39	C	09/06/2021	10:54	-134.816	49.567	0	160.00	0	6.0430	0	33.6660	0	26.495	0	158.573	0	131.2	4	43.3	4	-1E+10	1	-1E+10	1	-1E+10	1	-1E+10	1	-1E+10	1	-1E+10	1
4902551	39	C	09/06/2021	10:54	-134.816	49.567	0	160.90	0	6.0410	0	33.6670	0	26.496	0	159.465	0	130.6	4	43.1	4	-1E+10	1	-1E+10	1	-1E+10	1	-1E+10	1	-1E+10	1	-1E+10	1
4902551	39	C	09/06/2021	10:54	-134.816	49.567	0	161.70	0	6.0370	0	33.6720	0	26.501	0	160.257	0	130.0	4	42.9	4	-1E+10	1	-1E+10	1	-1E+10	1	-1E+10	1	-1E+10	1	-1E+10	1
4902551	39	C	09/06/2021	10:54	-134.816	49.567	0	162.90	0	6.0190	0	33.6840	0	26.512	0	161.446	0	129.2	4	42.6	4	-1E+10	1	-1E+10	1	-1E+10	1	-1E+10	1	-1E+10	1	-1E+10	1
4902551	39	C	09/06/2021	10:54	-134.816	49.567	0	164.20	0	6.0060	0	33.6870	0	26.516	0	162.734	0	128.2	4	42.3	4	-1E+10	1	-1E+10	1	-1E+10	1	-1E+10	1	-1E+10	1	-1E+10	1
4902551	39	C	09/06/2021	10:54	-134.816	49.567	0	165.10	0	6.0030	0	33.6890	0	26.518	0	163.626	0	127.5	4	42.0	4	-1E+10	1	-1E+10	1	-1E+10	1	-1E+10	1	-1E+10	1	-1E+10	1
4902551	39	C	09/06/2021	10:54	-134.816	49.567	0	165.90	0	6.0010	0	33.6910	0	26.520	0	164.418	0	126.7	4	41.8	4	-1E+10	1	-1E+10	1	-1E+10	1	-1E+10	1	-1E+10	1	-1E+10	1
4902551	39	C	09/06/2021	10:54	-134.816	49.567	0	166.80	0	5.9860	0	33.6980	0	26.527	0	165.310	0	125.9	4	41.5	4	-1E+10	1	-1E+10	1	-1E+10	1	-1E+10	1	-1E+10	1	-1E+10	1
4902551	39	C	09/06/2021	10:54	-134.816	49.567	0	167.70	0	5.9580	0	33.6990	0	26.532	0	166.201	0	125.0	4	41.2	4	-1E+10	1	-1E+10	1	-1E+10	1	-1E+10	1	-1E+10	1	-1E+10	1
4902551	39	C	09/06/2021	10:54	-134.816	49.567	0	169.00	0	6.0380	0	33.7160	0	26.535	0	167.489	0	124.0	4	40.9	4	-1E+10	1	-1E+10	1	-1E+10	1	-1E+10	1	-1E+10	1	-1E+10	1
4902551	39	C	09/06/2021	10:54	-134.816	49.567	0	170.30	0	6.0610	0	33.7250	0	26.539	0	168.777	0	123.4	4	40.8	4	-1E+10	1	-1E+10	1	-1E+10	1	-1E+10	1	-1E+10	1	-1E+10	1
4902551	39	C	09/06/2021	10:54	-134.816	49.567	0	171.20	0	6.0510	0	33.7270	0	26.542	0	169.669	0	123.0	4	40.6	4	-1E+10	1	-1E+10	1	-1E+10	1	-1E+10	1	-1E+10	1	-1E+10	1
4902551	39	C	09/06/2021	10:54	-134.816	49.567	0	172.10	0	6.0310	0	33.7290	0	26.546	0	170.560	0	122.7	4	40.5	4	-1E+10	1	-1E+10	1	-1E+10	1	-1E+10	1	-1E+10	1	-1E+10	1
4902551	39	C	09/06/2021	10:54	-134.816	49.567	0	173.00	0	6.0210	0	33.7400	0	26.556	0	171.452	0	122.4	4	40.4	4	-1E+10	1	-1E+10	1	-1E+10	1	-1E+10	1	-1E+10	1	-1E+10	1
4902551	39	C	09/06/2021	10:54	-134.816	49.567	0	174.00	0	6.0070	0	33.7430	0	26.561	0	172.442	0	122.1	4	40.3	4	-1E+10	1	-1E+10	1	-1E+10	1	-1E+10	1	-1E+10	1	-1E+10	1
4902551	39	C	09/06/2021	10:54	-134.816	49.567	0	174.90	0	5.9870	0	33.7400	0	26.561	0	173.334	0	121.7	4	40.2	4	-1E+10	1	-1E+10	1	-1E+10	1	-1E+10	1	-1E+10	1	-1E+10	1
4902551	39	C	09/06/2021	10:54	-134.816	49.567	0	175.80	0	5.9760	0	33.7430	0	26.564	0	174.226	0	121.4	4	40.0	4	-1E+10	1	-1E+10	1	-1E+10	1	-1E+10	1	-1E+10	1	-1E+10	1
4902551	39	C	09/06/2021	10:54	-134.816	49.567	0	176.80	0	5.9740	0	33.7460	0	26.567	0	175.216	0	121.0	4	39.9	4	-1E+10	1	-1E+10	1	-1E+10	1	-1E+10	1	-1E+10	1	-1E+10	1
4902551	39	C	09/06/2021	10:54	-134.816	49.567	0	177.70	0	5.9780	0	33.7480	0	26.568	0	176.108	0	120.6	4	39.8	4	-1E+10	1	-1E+10	1	-1E+10	1	-1E+10	1	-1E+10	1	-1E+10	1
4902551	39	C	09/06/2021	10:54	-134.816	49.567	0	178.60	0	5.9860	0	33.7520	0	26.570	0	176.999	0	120.4	4	39.7	4	-1E+10	1	-1E+10	1	-1E+10	1	-1E+10	1	-1E+10	1	-1E+10	1
4902551	39	C	09/06/2021	10:54	-134.816	49.567	0	179.50	0	5.9520	0	33.7510	0	26.574	0	177.891	0	120.1	4	39.6	4	-1E+10	1	-1E+10	1	-1E+10	1	-1E+10	1	-1E+10	1	-1E+10	1
4902551	39	C	09/06/2021	10:54	-134.816	49.567	0	180.90	0	5.8780	0	33.7530	0	26.584	0	179.278	0	119.6	4	39.4	4	-1E+10	1	-1E+10	1	-1E+10	1	-1E+10	1	-1E+10	1	-1E+10	1
4902551	39	C	09/06/2021	10:54	-134.816	49.567	0	182.40	0	5.8380	0	33.7540	0	26.590	0	180.764	0	119.0	4	39.1	4	-1E+10	1	-1E+10	1	-1E+10	1	-1E+10	1	-1E+10	1	-1E+10	1
4902551	39	C	09/06/2021	10:54	-134.816	49.567	0	183.30	0	5.8310	0	33.7590	0	26.595	0	181.655	0	118.6	4	39.0	4	-1E+10	1	-1E+10	1	-1E+10	1	-1E+10	1	-1E+10	1	-1E+10	1
4902551	39	C	09/06/2021	10:54	-134.816	49.567	0	184.20	0	5.7960	0	33.7740	0	26.611	0	182.547	0	118.1	4	38.8	4	-1E+10	1	-1E+10	1	-1E+10	1	-1E+10	1	-1E+10	1	-1E+10	1
4902551	39	C	09/06/2021	10:54	-134.816	49.567	0	185.10	0	5.7900	0	33.7630	0	26.603	0	183.438	0	117.6	4	38.6	4	-1E+10	1	-1E+10	1	-1E+10	1	-1E+10	1	-1E+10	1	-1E+10	1
4902551	39	C	09/06/2021	10:54	-134.816	49.567	0	186.10	0	5.7820	0	33.7620	0	26.603	0	184.429	0	116.9	4	38.4	4	-1E+10	1	-1E+10	1	-1E+10	1	-1E+10	1	-1E+10	1	-1E+10	1
4902551	39	C	09/06/2021	10:54	-134.816	49.567	0	187.00	0	5.7790	0	33.7620	0	26.604	0	185.320	0	116.2	4	38.1	4	-1E+10	1	-1E+10	1	-1E+10	1	-1E+10	1	-1E+10	1	-1E+10	1
4902551	39	C	09/06/2021	10:54	-134.816	49.567	0	187.90	0	5.7710	0	33.7640	0	26.606	0	186.212	0	115.5	4	37.9	4	-1E+10	1	-1E+10	1	-1E+10	1	-1E+10	1	-1E+10	1	-1E+10	1
4902551	39	C	09/06/2021	10:54	-134.816	49.567	0	188.90	0	5.7600	0	33.7660	0	26.609	0	187.202	0	114.8	4	37.7	4	-1E+10	1	-1E+10	1	-1E+10	1	-1E+10	1	-1E+10	1	-1E+10	1
4902551	39	C	09/06/2021	10:54	-134.816	49.567	0	189.80	0	5.7410	0	33.7740	0	26.618	0	188.094	0	114.2	4	37.5	4	-1E+10	1	-1E+10	1	-1E+10	1	-1E+10	1	-1E+10	1	-1E+10	1
4902551	39	C	09/06/2021	10:54	-134.816	49.567	0	190.70	0	5.7330	0	33.7760	0	26.621	0	188.985	0	113.8	4	37.3	4	-1E+10	1	-1E+10	1	-1E+10	1	-1E+10	1	-1E+10	1	-1E+10	1
4902551	39	C	09/06/2021	10:54	-134.816	49.567	0	191.60	0	5.7330	0	33.7750	0	26.620	0	189.877	0	113.3	4	37.2	4	-1E+10	1	-1E+10	1	-1E+10	1	-1E+10	1	-1E+10	1	-1E+10	1
4902551	39	C	09/06/2021	10:54	-134.816	49.567	0	192.60	0	5.7170	0	33.7830	0	26.628	0	190.867	0	112.9	4	37.0	4	-1E+10	1	-1E+10	1	-1E+10	1	-1E+10	1	-1E+10	1	-1E+10	1
4902551	39	C	09/06/2021	10:54	-134.816	49.567	0	193.50	0	5.7050	0	33.7860	0	26.632	0	191.759	0	112.5	4	36.9	4	-1E+10	1	-1E+10	1	-1E+10	1	-1E+10	1	-1E+10	1	-1E+10	1
4902551	39	C	09/06/2021	10:54	-134.816	49.567	0	194.90	0	5.6970	0	33.7850	0	26.632	0	193.146	0	111.9	4	36.7	4	-1E+10	1	-1E+10	1	-1E+10	1	-1E+10	1	-1E+10	1	-1E+10	1
4902551	39	C	09/06/2021	10:54	-134.816	49.567	0	196.30	0	5.6890	0	33.7860	0	26.634	0	194.532	0	111.3	4	36.5	4	-1E+10	1	-1E+10	1	-1E+10	1	-1E+10	1	-1E+10	1	-1E+10	1
4902551	39	C	09/06/2021	10:54	-134.816	49.567	0	197.30	0	5.6850	0	33.7870	0	26.635	0	195.523	0	110.8	4	36.3	4	-1E+10	1	-1E+10	1	-1E+10	1	-1E+10	1	-1E+10	1	-1E+10	1
4902551	39	C	09/06/2021	10:54	-134.816	49.567	0	198.20	0	5.6810	0	33.7870	0	26.636	0	196.414	0	110.4	4	36.2	4	-1E+10	1	-1E+10	1	-1E+10	1	-1E+10	1	-1E+10	1	-1E+10	1
4902551	39	C	09/06/2021	10:54	-134.816	49.567	0	199.10	0	5.6730	0	33.7880	0	26.637	0	197.306	0	109.9	4	36.0	4	-1E+10	1	-1E+10	1	-1E+10	1	-1E+10	1	-1E+10	1	-1E+10	1
4902551	39	C	09/06/2021	10:54	-134.816	49.567	0	200.10	0	5.6590	0	33.7890	0	26.640	0	198.296	0	109.4	4	35.8	4	-1E+10	1	-1E+10	1	-1E+10	1	-1E+10	1	-1E+10	1	-1E+10	1
4902551	39	C	09/06/2021	10:54	-134.816	49.567	0	201.00	0	5.6370	0	33.7930	0	26.646	0	199.188	0	109.1	4	35.7	4	-1E+10	1	-1E+10	1	-1E+10	1	-1E+10	1	-1E+10	1	-1E+10	1
4902551	39	C	09/06/2021	10:54	-134.816	49.567	0	202.00	0	5.6190	0	33.7950	0	26.649	0	200.178	0	108.7	4	35.6	4	-1E+10	1	-1E+10	1	-1E+10	1	-1E+10	1	-1E+10	1	-1E+10	1
4902551	39	C	09/06/2021	10:54	-134.816	49.567	0	202.90	0	5.5880	0	33.7970	0	26.655	0	201.070	0	108.4	4	35.4	4	-1E+10	1	-1E+10	1	-1E+10	1	-1E+10	1	-1E+10	1	-1E+10	1
4902551	39	C	09/06/2021	10:54	-134.816	49.567	0	203.80	0	5.5860	0	33.7970	0	26.655	0	201.961	0	108.0	4	35.3	4	-1E+10	1	-1E+10	1	-1E+10	1	-1E+10	1	-1E+10	1	-1E+10	1
4902551	39	C	09/06/2021	10:54	-134.816	49.567	0	204.70	0	5.5800	0	33.7990	0	26.657	0	202.853	0	107.7	4	35.2	4	-1E+10	1	-1E+10	1	-1E+10	1	-1E+10	1	-1E+10	1	-1E+10	1
4902551	39	C	09/06/2021	10:54	-134.816	49.567	0	205.60	0	5.5760	0	33.7990	0	26.658	0	203.744	0	107.3	4	35.1	4	-1E+10	1	-1E+10	1	-1E+10	1	-1E+10	1	-1E+10	1	-1E+10	1
4902551	39	C	09/06/2021	10:54	-134.816	49.567	0	206.60	0	5.5650	0	33.7990	0	26.659	0	204.735	0	107.0	4	35.0	4	-1E+10	1	-1E+10	1	-1E+10	1	-1E+10	1	-1E+10	1	-1E+10	1
4902551	39	C	09/06/2021	10:54	-134.816	49.567	0	207.90	0	5.5520	0	33.8000	0	26.662	0	206.022	0	106.3	4	34.7	4	-1E+10	1	-1E+10	1	-1E+10	1	-1E+10	1	-1E+10	1	-1E+10	1
4902551	39	C	09/06/2021	10:54	-134.816	49.567	0	209.30	0	5.5310	0	33.8030	0	26.666	0	207.409	0	105.8	4	34.6	4	-1E+10	1	-1E+10	1	-1E+10	1	-1E+10	1	-1E+10	1	-1E+10	1
4902551	39	C	09/06/2021	10:54	-134.816	49.567	0	210.20	0	5.5120	0	33.8020	0	26.668	0	208.300	0	105.5	4	34.4	4	-1E+10	1	-1E+10	1	-1E+10	1	-1E+10	1	-1E+10	1	-1E+10	1
4902551	39	C	09/06/2021	10:54	-134.816	49.567	0	211.10	0	5.5090	0	33.8020	0	26.668	0	209.192	0	105.0	4	34.3	4	-1E+10	1	-1E+10	1	-1E+10	1	-1E+10	1	-1E+10	1	-1E+10	1
4902551	39	C	09/06/2021	10:54	-134.816	49.567	0	212.00	0	5.5090	0	33.8020	0	26.668	0	210.083	0	104.5	4	34.1	4	-1E+10	1	-1E+10	1	-1E+10	1	-1E+10	1	-1E+10	1	-1E+10	1
4902551	39	C	09/06/2021	10:54	-134.816	49.567	0	212.90	0	5.5070	0	33.8020	0	26.669	0	210.974	0	104.0	4	34.0	4	-1E+10	1	-1E+10	1	-1E+10	1	-1E+10	1	-1E+10	1	-1E+10	1
4902551	39	C	09/06/2021	10:54	-134.816	49.567	0	213.80	0	5.4960	0	33.8040	0	26.671	0	211.866	0	103.5	4	33.8	4	-1E+10	1	-1E+10	1	-1E+10	1	-1E+10	1	-1E+10	1	-1E+10	1
4902551	39	C	09/06/2021	10:54	-134.816	49.567	0	214.70	0	5.4910	0	33.8040	0	26.672	0	212.757	0	103.1	4	33.6	4	-1E+10	1	-1E+10	1	-1E+10	1	-1E+10	1	-1E+10	1	-1E+10	1
4902551	39	C	09/06/2021	10:54	-134.816	49.567	0	215.60	0	5.4840	0	33.8050	0	26.674	0	213.649	0	102.6	4	33.5	4	-1E+10	1	-1E+10	1	-1E+10	1	-1E+10	1	-1E+10	1	-1E+10	1
4902551	39	C	09/06/2021	10:54	-134.816	49.567	0	216.90	0	5.4580	0	33.8080	0	26.679	0	214.936	0	101.9	4	33.2	4	-1E+10	1	-1E+10	1	-1E+10	1	-1E+10	1	-1E+10	1	-1E+10	1
4902551	39	C	09/06/2021	10:54	-134.816	49.567	0	218.40	0	5.4410	0	33.8080	0	26.681	0	216.422	0	101.1	4	32.9	4	-1E+10	1	-1E+10	1	-1E+10	1	-1E+10	1	-1E+10	1	-1E+10	1
4902551	39	C	09/06/2021	10:54	-134.816	49.567	0	219.30	0	5.4330	0	33.8080	0	26.682	0	217.313	0	100.5	4	32.7	4	-1E+10	1	-1E+10	1	-1E+10	1	-1E+10	1	-1E+10	1	-1E+10	1
4902551	39	C	09/06/2021	10:54	-134.816	49.567	0	220.20	0	5.4130	0	33.8100	0	26.686	0	218.205	0	100.0	4	32.6	4	-1E+10	1	-1E+10	1	-1E+10	1	-1E+10	1	-1E+10	1	-1E+10	1
4902551	39	C	09/06/2021	10:54	-134.816	49.567	0	221.20	0	5.4080	0	33.8100	0	26.687	0	219.195	0	99.5	4	32.4	4	-1E+10	1	-1E+10	1	-1E+10	1	-1E+10	1	-1E+10	1	-1E+10	1
4902551	39	C	09/06/2021	10:54	-134.816	49.567	0	222.10	0	5.3930	0	33.8120	0	26.690	0	220.086	0	99.1	4	32.3	4	-1E+10	1	-1E+10	1	-1E+10	1	-1E+10	1	-1E+10	1	-1E+10	1
4902551	39	C	09/06/2021	10:54	-134.816	49.567	0	223.10	0	5.3800	0	33.8140	0	26.693	0	221.077	0	98.7	4	32.1	4	-1E+10	1	-1E+10	1	-1E+10	1	-1E+10	1	-1E+10	1	-1E+10	1
4902551	39	C	09/06/2021	10:54	-134.816	49.567	0	224.00	0	5.3620	0	33.8160	0	26.697	0	221.968	0	98.3	4	32.0	4	-1E+10	1	-1E+10	1	-1E+10	1	-1E+10	1	-1E+10	1	-1E+10	1
4902551	39	C	09/06/2021	10:54	-134.816	49.567	0	225.00	0	5.3610	0	33.8150	0	26.696	0	222.958	0	97.8	4	31.8	4	-1E+10	1	-1E+10	1	-1E+10	1	-1E+10	1	-1E+10	1	-1E+10	1
4902551	39	C	09/06/2021	10:54	-134.816	49.567	0	226.00	0	5.3610	0	33.8150	0	26.696	0	223.949	0	97.2	4	31.6	4	-1E+10	1	-1E+10	1	-1E+10	1	-1E+10	1	-1E+10	1	-1E+10	1
4902551	39	C	09/06/2021	10:54	-134.816	49.567	0	226.90	0	5.3560	0	33.8160	0	26.698	0	224.840	0	96.7	4	31.5	4	-1E+10	1	-1E+10	1	-1E+10	1	-1E+10	1	-1E+10	1	-1E+10	1
4902551	39	C	09/06/2021	10:54	-134.816	49.567	0	227.90	0	5.3400	0	33.8180	0	26.701	0	225.831	0	96.3	4	31.3	4	-1E+10	1	-1E+10	1	-1E+10	1	-1E+10	1	-1E+10	1	-1E+10	1
4902551	39	C	09/06/2021	10:54	-134.816	49.567	0	228.90	0	5.3330	0	33.8200	0	26.704	0	226.821	0	95.8	4	31.1	4	-1E+10	1	-1E+10	1	-1E+10	1	-1E+10	1	-1E+10	1	-1E+10	1
4902551	39	C	09/06/2021	10:54	-134.816	49.567	0	229.80	0	5.3320	0	33.8200	0	26.704	0	227.712	0	95.3	4	31.0	4	-1E+10	1	-1E+10	1	-1E+10	1	-1E+10	1	-1E+10	1	-1E+10	1
4902551	39	C	09/06/2021	10:54	-134.816	49.567	0	230.80	0	5.3320	0	33.8200	0	26.704	0	228.703	0	94.8	4	30.8	4	-1E+10	1	-1E+10	1	-1E+10	1	-1E+10	1	-1E+10	1	-1E+10	1
4902551	39	C	09/06/2021	10:54	-134.816	49.567	0	231.70	0	5.3300	0	33.8210	0	26.705	0	229.594	0	94.2	4	30.6	4	-1E+10	1	-1E+10	1	-1E+10	1	-1E+10	1	-1E+10	1	-1E+10	1
4902551	39	C	09/06/2021	10:54	-134.816	49.567	0	232.70	0	5.3270	0	33.8230	0	26.707	0	230.584	0	93.7	4	30.4	4	-1E+10	1	-1E+10	1	-1E+10	1	-1E+10	1	-1E+10	1	-1E+10	1
4902551	39	C	09/06/2021	10:54	-134.816	49.567	0	233.60	0	5.3300	0	33.8220	0	26.705	0	231.476	0	93.1	4	30.3	4	-1E+10	1	-1E+10	1	-1E+10	1	-1E+10	1	-1E+10	1	-1E+10	1
4902551	39	C	09/06/2021	10:54	-134.816	49.567	0	234.60	0	5.3500	0	33.8330	0	26.712	0	232.466	0	92.7	4	30.2	4	-1E+10	1	-1E+10	1	-1E+10	1	-1E+10	1	-1E+10	1	-1E+10	1
4902551	39	C	09/06/2021	10:54	-134.816	49.567	0	235.60	0	5.3820	0	33.8330	0	26.708	0	233.456	0	92.5	4	30.1	4	-1E+10	1	-1E+10	1	-1E+10	1	-1E+10	1	-1E+10	1	-1E+10	1
4902551	39	C	09/06/2021	10:54	-134.816	49.567	0	236.50	0	5.3360	0	33.8320	0	26.713	0	234.348	0	92.2	4	30.0	4	-1E+10	1	-1E+10	1	-1E+10	1	-1E+10	1	-1E+10	1	-1E+10	1
4902551	39	C	09/06/2021	10:54	-134.816	49.567	0	237.50	0	5.2940	0	33.8290	0	26.715	0	235.338	0	91.8	4	29.8	4	-1E+10	1	-1E+10	1	-1E+10	1	-1E+10	1	-1E+10	1	-1E+10	1
4902551	39	C	09/06/2021	10:54	-134.816	49.567	0	238.50	0	5.2800	0	33.8290	0	26.717	0	236.328	0	91.4	4	29.7	4	-1E+10	1	-1E+10	1	-1E+10	1	-1E+10	1	-1E+10	1	-1E+10	1
4902551	39	C	09/06/2021	10:54	-134.816	49.567	0	239.50	0	5.2870	0	33.8400	0	26.725	0	237.319	0	91.0	4	29.5	4	-1E+10	1	-1E+10	1	-1E+10	1	-1E+10	1	-1E+10	1	-1E+10	1
4902551	39	C	09/06/2021	10:54	-134.816	49.567	0	240.50	0	5.2740	0	33.8300	0	26.718	0	238.309	0	90.6	4	29.4	4	-1E+10	1	-1E+10	1	-1E+10	1	-1E+10	1	-1E+10	1	-1E+10	1
4902551	39	C	09/06/2021	10:54	-134.816	49.567	0	241.50	0	5.2480	0	33.8340	0	26.725	0	239.299	0	90.2	4	29.3	4	-1E+10	1	-1E+10	1	-1E+10	1	-1E+10	1	-1E+10	1	-1E+10	1
4902551	39	C	09/06/2021	10:54	-134.816	49.567	0	242.50	0	5.2370	0	33.8300	0	26.723	0	240.290	0	89.8	4	29.1	4	-1E+10	1	-1E+10	1	-1E+10	1	-1E+10	1	-1E+10	1	-1E+10	1
4902551	39	C	09/06/2021	10:54	-134.816	49.567	0	243.50	0	5.2320	0	33.8310	0	26.724	0	241.280	0	89.3	4	29.0	4	-1E+10	1	-1E+10	1	-1E+10	1	-1E+10	1	-1E+10	1	-1E+10	1
4902551	39	C	09/06/2021	10:54	-134.816	49.567	0	244.50	0	5.2210	0	33.8310	0	26.725	0	242.270	0	88.8	4	28.8	4	-1E+10	1	-1E+10	1	-1E+10	1	-1E+10	1	-1E+10	1	-1E+10	1
4902551	39	C	09/06/2021	10:54	-134.816	49.567	0	245.50	0	5.2170	0	33.8320	0	26.727	0	243.260	0	88.3	4	28.6	4	-1E+10	1	-1E+10	1	-1E+10	1	-1E+10	1	-1E+10	1	-1E+10	1
4902551	39	C	09/06/2021	10:54	-134.816	49.567	0	246.50	0	5.2090	0	33.8330	0	26.728	0	244.251	0	87.8	4	28.5	4	-1E+10	1	-1E+10	1	-1E+10	1	-1E+10	1	-1E+10	1	-1E+10	1
4902551	39	C	09/06/2021	10:54	-134.816	49.567	0	247.50	0	5.2070	0	33.8330	0	26.729	0	245.241	0	87.3	4	28.3	4	-1E+10	1	-1E+10	1	-1E+10	1	-1E+10	1	-1E+10	1	-1E+10	1
4902551	39	C	09/06/2021	10:54	-134.816	49.567	0	248.50	0	5.2040	0	33.8330	0	26.729	0	246.231	0	86.6	4	28.1	4	-1E+10	1	-1E+10	1	-1E+10	1	-1E+10	1	-1E+10	1	-1E+10	1
4902551	39	C	09/06/2021	10:54	-134.816	49.567	0	249.50	0	5.1970	0	33.8340	0	26.731	0	247.222	0	86.0	4	27.9	4	-1E+10	1	-1E+10	1	-1E+10	1	-1E+10	1	-1E+10	1	-1E+10	1
4902551	39	C	09/06/2021	10:54	-134.816	49.567	0	250.50	0	5.1920	0	33.8340	0	26.731	0	248.212	0	85.4	4	27.7	4	-1E+10	1	-1E+10	1	-1E+10	1	-1E+10	1	-1E+10	1	-1E+10	1
4902551	39	C	09/06/2021	10:54	-134.816	49.567	0	251.50	0	5.1800	0	33.8350	0	26.733	0	249.202	0	84.7	4	27.4	4	-1E+10	1	-1E+10	1	-1E+10	1	-1E+10	1	-1E+10	1	-1E+10	1
4902551	39	C	09/06/2021	10:54	-134.816	49.567	0	252.50	0	5.1700	0	33.8360	0	26.735	0	250.192	0	84.0	4	27.2	4	-1E+10	1	-1E+10	1	-1E+10	1	-1E+10	1	-1E+10	1	-1E+10	1
4902551	39	C	09/06/2021	10:54	-134.816	49.567	0	253.50	0	5.1630	0	33.8360	0	26.736	0	251.183	0	83.3	4	27.0	4	-1E+10	1	-1E+10	1	-1E+10	1	-1E+10	1	-1E+10	1	-1E+10	1
4902551	39	C	09/06/2021	10:54	-134.816	49.567	0	254.50	0	5.1550	0	33.8410	0	26.741	0	252.173	0	82.5	4	26.7	4	-1E+10	1	-1E+10	1	-1E+10	1	-1E+10	1	-1E+10	1	-1E+10	1
4902551	39	C	09/06/2021	10:54	-134.816	49.567	0	255.50	0	5.1430	0	33.8400	0	26.742	0	253.163	0	81.8	4	26.5	4	-1E+10	1	-1E+10	1	-1E+10	1	-1E+10	1	-1E+10	1	-1E+10	1
4902551	39	C	09/06/2021	10:54	-134.816	49.567	0	256.50	0	5.1350	0	33.8420	0	26.744	0	254.153	0	81.0	4	26.2	4	-1E+10	1	-1E+10	1	-1E+10	1	-1E+10	1	-1E+10	1	-1E+10	1
4902551	39	C	09/06/2021	10:54	-134.816	49.567	0	257.60	0	5.1290	0	33.8450	0	26.747	0	255.243	0	80.3	4	26.0	4	-1E+10	1	-1E+10	1	-1E+10	1	-1E+10	1	-1E+10	1	-1E+10	1
4902551	39	C	09/06/2021	10:54	-134.816	49.567	0	258.50	0	5.1250	0	33.8460	0	26.748	0	256.134	0	79.6	4	25.8	4	-1E+10	1	-1E+10	1	-1E+10	1	-1E+10	1	-1E+10	1	-1E+10	1
4902551	39	C	09/06/2021	10:54	-134.816	49.567	0	259.60	0	5.1210	0	33.8460	0	26.749	0	257.223	0	78.9	4	25.5	4	-1E+10	1	-1E+10	1	-1E+10	1	-1E+10	1	-1E+10	1	-1E+10	1
4902551	39	C	09/06/2021	10:54	-134.816	49.567	0	260.60	0	5.1130	0	33.8480	0	26.751	0	258.213	0	78.2	4	25.3	4	-1E+10	1	-1E+10	1	-1E+10	1	-1E+10	1	-1E+10	1	-1E+10	1
4902551	39	C	09/06/2021	10:54	-134.816	49.567	0	261.60	0	5.0850	0	33.8500	0	26.756	0	259.203	0	77.6	4	25.1	4	-1E+10	1	-1E+10	1	-1E+10	1	-1E+10	1	-1E+10	1	-1E+10	1
4902551	39	C	09/06/2021	10:54	-134.816	49.567	0	262.60	0	5.0920	0	33.8560	0	26.760	0	260.194	0	77.0	4	24.9	4	-1E+10	1	-1E+10	1	-1E+10	1	-1E+10	1	-1E+10	1	-1E+10	1
4902551	39	C	09/06/2021	10:54	-134.816	49.567	0	263.60	0	5.0980	0	33.8570	0	26.760	0	261.184	0	76.4	4	24.7	4	-1E+10	1	-1E+10	1	-1E+10	1	-1E+10	1	-1E+10	1	-1E+10	1
4902551	39	C	09/06/2021	10:54	-134.816	49.567	0	264.60	0	5.0960	0	33.8600	0	26.763	0	262.174	0	75.9	4	24.5	4	-1E+10	1	-1E+10	1	-1E+10	1	-1E+10	1	-1E+10	1	-1E+10	1
4902551	39	C	09/06/2021	10:54	-134.816	49.567	0	265.60	0	5.0930	0	33.8620	0	26.765	0	263.164	0	75.4	4	24.4	4	-1E+10	1	-1E+10	1	-1E+10	1	-1E+10	1	-1E+10	1	-1E+10	1
4902551	39	C	09/06/2021	10:54	-134.816	49.567	0	266.70	0	5.0790	0	33.8630	0	26.767	0	264.253	0	74.9	4	24.2	4	-1E+10	1	-1E+10	1	-1E+10	1	-1E+10	1	-1E+10	1	-1E+10	1
4902551	39	C	09/06/2021	10:54	-134.816	49.567	0	267.70	0	5.0710	0	33.8620	0	26.767	0	265.244	0	74.3	4	24.0	4	-1E+10	1	-1E+10	1	-1E+10	1	-1E+10	1	-1E+10	1	-1E+10	1
4902551	39	C	09/06/2021	10:54	-134.816	49.567	0	268.70	0	5.0840	0	33.8650	0	26.768	0	266.234	0	73.8	4	23.9	4	-1E+10	1	-1E+10	1	-1E+10	1	-1E+10	1	-1E+10	1	-1E+10	1
4902551	39	C	09/06/2021	10:54	-134.816	49.567	0	269.70	0	5.0690	0	33.8650	0	26.770	0	267.224	0	73.3	4	23.7	4	-1E+10	1	-1E+10	1	-1E+10	1	-1E+10	1	-1E+10	1	-1E+10	1
4902551	39	C	09/06/2021	10:54	-134.816	49.567	0	270.70	0	5.0610	0	33.8670	0	26.773	0	268.214	0	72.8	4	23.5	4	-1E+10	1	-1E+10	1	-1E+10	1	-1E+10	1	-1E+10	1	-1E+10	1
4902551	39	C	09/06/2021	10:54	-134.816	49.567	0	271.70	0	5.0590	0	33.8680	0	26.774	0	269.204	0	72.3	4	23.4	4	-1E+10	1	-1E+10	1	-1E+10	1	-1E+10	1	-1E+10	1	-1E+10	1
4902551	39	C	09/06/2021	10:54	-134.816	49.567	0	272.70	0	5.0550	0	33.8680	0	26.774	0	270.195	0	71.8	4	23.2	4	-1E+10	1	-1E+10	1	-1E+10	1	-1E+10	1	-1E+10	1	-1E+10	1
4902551	39	C	09/06/2021	10:54	-134.816	49.567	0	273.80	0	5.0520	0	33.8700	0	26.776	0	271.284	0	71.3	4	23.0	4	-1E+10	1	-1E+10	1	-1E+10	1	-1E+10	1	-1E+10	1	-1E+10	1
4902551	39	C	09/06/2021	10:54	-134.816	49.567	0	274.70	0	5.0450	0	33.8710	0	26.778	0	272.175	0	70.9	4	22.9	4	-1E+10	1	-1E+10	1	-1E+10	1	-1E+10	1	-1E+10	1	-1E+10	1
4902551	39	C	09/06/2021	10:54	-134.816	49.567	0	275.80	0	5.0330	0	33.8740	0	26.781	0	273.264	0	70.5	4	22.8	4	-1E+10	1	-1E+10	1	-1E+10	1	-1E+10	1	-1E+10	1	-1E+10	1
4902551	39	C	09/06/2021	10:54	-134.816	49.567	0	276.80	0	5.0230	0	33.8760	0	26.784	0	274.254	0	70.1	4	22.6	4	-1E+10	1	-1E+10	1	-1E+10	1	-1E+10	1	-1E+10	1	-1E+10	1
4902551	39	C	09/06/2021	10:54	-134.816	49.567	0	277.80	0	5.0170	0	33.8760	0	26.785	0	275.244	0	69.7	4	22.5	4	-1E+10	1	-1E+10	1	-1E+10	1	-1E+10	1	-1E+10	1	-1E+10	1
4902551	39	C	09/06/2021	10:54	-134.816	49.567	0	278.80	0	5.0140	0	33.8760	0	26.785	0	276.234	0	69.3	4	22.4	4	-1E+10	1	-1E+10	1	-1E+10	1	-1E+10	1	-1E+10	1	-1E+10	1
4902551	39	C	09/06/2021	10:54	-134.816	49.567	0	279.80	0	5.0100	0	33.8760	0	26.786	0	277.225	0	69.0	4	22.3	4	-1E+10	1	-1E+10	1	-1E+10	1	-1E+10	1	-1E+10	1	-1E+10	1
4902551	39	C	09/06/2021	10:54	-134.816	49.567	0	280.80	0	4.9940	0	33.8800	0	26.791	0	278.215	0	68.6	4	22.1	4	-1E+10	1	-1E+10	1	-1E+10	1	-1E+10	1	-1E+10	1	-1E+10	1
4902551	39	C	09/06/2021	10:54	-134.816	49.567	0	281.80	0	4.9850	0	33.8800	0	26.792	0	279.205	0	68.3	4	22.0	4	-1E+10	1	-1E+10	1	-1E+10	1	-1E+10	1	-1E+10	1	-1E+10	1
4902551	39	C	09/06/2021	10:54	-134.816	49.567	0	282.80	0	4.9830	0	33.8820	0	26.793	0	280.195	0	67.9	4	21.9	4	-1E+10	1	-1E+10	1	-1E+10	1	-1E+10	1	-1E+10	1	-1E+10	1
4902551	39	C	09/06/2021	10:54	-134.816	49.567	0	283.80	0	4.9800	0	33.8810	0	26.793	0	281.185	0	67.6	4	21.8	4	-1E+10	1	-1E+10	1	-1E+10	1	-1E+10	1	-1E+10	1	-1E+10	1
4902551	39	C	09/06/2021	10:54	-134.816	49.567	0	284.80	0	4.9790	0	33.8810	0	26.793	0	282.175	0	67.2	4	21.7	4	-1E+10	1	-1E+10	1	-1E+10	1	-1E+10	1	-1E+10	1	-1E+10	1
4902551	39	C	09/06/2021	10:54	-134.816	49.567	0	285.80	0	4.9640	0	33.8810	0	26.795	0	283.165	0	66.8	4	21.5	4	-1E+10	1	-1E+10	1	-1E+10	1	-1E+10	1	-1E+10	1	-1E+10	1
4902551	39	C	09/06/2021	10:54	-134.816	49.567	0	286.80	0	4.9620	0	33.8840	0	26.797	0	284.155	0	66.4	4	21.4	4	-1E+10	1	-1E+10	1	-1E+10	1	-1E+10	1	-1E+10	1	-1E+10	1
4902551	39	C	09/06/2021	10:54	-134.816	49.567	0	287.80	0	4.9600	0	33.8840	0	26.798	0	285.145	0	66.0	4	21.3	4	-1E+10	1	-1E+10	1	-1E+10	1	-1E+10	1	-1E+10	1	-1E+10	1
4902551	39	C	09/06/2021	10:54	-134.816	49.567	0	288.80	0	4.9590	0	33.8840	0	26.798	0	286.135	0	65.5	4	21.1	4	-1E+10	1	-1E+10	1	-1E+10	1	-1E+10	1	-1E+10	1	-1E+10	1
4902551	39	C	09/06/2021	10:54	-134.816	49.567	0	289.80	0	4.9580	0	33.8840	0	26.798	0	287.126	0	65.0	4	21.0	4	-1E+10	1	-1E+10	1	-1E+10	1	-1E+10	1	-1E+10	1	-1E+10	1
4902551	39	C	09/06/2021	10:54	-134.816	49.567	0	290.70	0	4.9500	0	33.8860	0	26.800	0	288.017	0	64.5	4	20.8	4	-1E+10	1	-1E+10	1	-1E+10	1	-1E+10	1	-1E+10	1	-1E+10	1
4902551	39	C	09/06/2021	10:54	-134.816	49.567	0	291.70	0	4.9300	0	33.8890	0	26.805	0	289.007	0	64.0	4	20.6	4	-1E+10	1	-1E+10	1	-1E+10	1	-1E+10	1	-1E+10	1	-1E+10	1
4902551	39	C	09/06/2021	10:54	-134.816	49.567	0	292.70	0	4.9220	0	33.8920	0	26.808	0	289.997	0	63.6	4	20.5	4	-1E+10	1	-1E+10	1	-1E+10	1	-1E+10	1	-1E+10	1	-1E+10	1
4902551	39	C	09/06/2021	10:54	-134.816	49.567	0	293.80	0	4.9210	0	33.8920	0	26.808	0	291.086	0	63.2	4	20.4	4	-1E+10	1	-1E+10	1	-1E+10	1	-1E+10	1	-1E+10	1	-1E+10	1
4902551	39	C	09/06/2021	10:54	-134.816	49.567	0	294.80	0	4.9200	0	33.8930	0	26.809	0	292.076	0	62.8	4	20.2	4	-1E+10	1	-1E+10	1	-1E+10	1	-1E+10	1	-1E+10	1	-1E+10	1
4902551	39	C	09/06/2021	10:54	-134.816	49.567	0	295.70	0	4.9170	0	33.8950	0	26.811	0	292.967	0	62.4	4	20.1	4	-1E+10	1	-1E+10	1	-1E+10	1	-1E+10	1	-1E+10	1	-1E+10	1
4902551	39	C	09/06/2021	10:54	-134.816	49.567	0	296.70	0	4.9140	0	33.8980	0	26.814	0	293.957	0	62.0	4	20.0	4	-1E+10	1	-1E+10	1	-1E+10	1	-1E+10	1	-1E+10	1	-1E+10	1
4902551	39	C	09/06/2021	10:54	-134.816	49.567	0	297.70	0	4.9140	0	33.8990	0	26.815	0	294.947	0	61.7	4	19.9	4	-1E+10	1	-1E+10	1	-1E+10	1	-1E+10	1	-1E+10	1	-1E+10	1
4902551	39	C	09/06/2021	10:54	-134.816	49.567	0	298.70	0	4.9090	0	33.9030	0	26.819	0	295.937	0	61.4	4	19.8	4	-1E+10	1	-1E+10	1	-1E+10	1	-1E+10	1	-1E+10	1	-1E+10	1
4902551	39	C	09/06/2021	10:54	-134.816	49.567	0	299.70	0	4.9030	0	33.9050	0	26.821	0	296.927	0	61.1	4	19.7	4	-1E+10	1	-1E+10	1	-1E+10	1	-1E+10	1	-1E+10	1	-1E+10	1
4902551	39	C	09/06/2021	10:54	-134.816	49.567	0	300.70	0	4.8960	0	33.9080	0	26.824	0	297.917	0	61.0	4	19.6	4	-1E+10	1	-1E+10	1	-1E+10	1	-1E+10	1	-1E+10	1	-1E+10	1
4902551	39	C	09/06/2021	10:54	-134.816	49.567	0	301.70	0	4.8930	0	33.9080	0	26.824	0	298.907	0	60.8	4	19.6	4	-1E+10	1	-1E+10	1	-1E+10	1	-1E+10	1	-1E+10	1	-1E+10	1
4902551	39	C	09/06/2021	10:54	-134.816	49.567	0	302.70	0	4.8900	0	33.9090	0	26.825	0	299.897	0	60.6	4	19.5	4	-1E+10	1	-1E+10	1	-1E+10	1	-1E+10	1	-1E+10	1	-1E+10	1
4902551	39	C	09/06/2021	10:54	-134.816	49.567	0	303.70	0	4.8850	0	33.9090	0	26.826	0	300.887	0	60.4	4	19.4	4	-1E+10	1	-1E+10	1	-1E+10	1	-1E+10	1	-1E+10	1	-1E+10	1
4902551	39	C	09/06/2021	10:54	-134.816	49.567	0	304.70	0	4.8810	0	33.9100	0	26.827	0	301.877	0	60.2	4	19.4	4	-1E+10	1	-1E+10	1	-1E+10	1	-1E+10	1	-1E+10	1	-1E+10	1
4902551	39	C	09/06/2021	10:54	-134.816	49.567	0	305.70	0	4.8730	0	33.9100	0	26.828	0	302.867	0	60.0	4	19.3	4	-1E+10	1	-1E+10	1	-1E+10	1	-1E+10	1	-1E+10	1	-1E+10	1
4902551	39	C	09/06/2021	10:54	-134.816	49.567	0	306.70	0	4.8720	0	33.9100	0	26.828	0	303.857	0	59.8	4	19.2	4	-1E+10	1	-1E+10	1	-1E+10	1	-1E+10	1	-1E+10	1	-1E+10	1
4902551	39	C	09/06/2021	10:54	-134.816	49.567	0	307.70	0	4.8710	0	33.9100	0	26.828	0	304.847	0	59.6	4	19.2	4	-1E+10	1	-1E+10	1	-1E+10	1	-1E+10	1	-1E+10	1	-1E+10	1
4902551	39	C	09/06/2021	10:54	-134.816	49.567	0	308.70	0	4.8700	0	33.9100	0	26.829	0	305.837	0	59.3	4	19.1	4	-1E+10	1	-1E+10	1	-1E+10	1	-1E+10	1	-1E+10	1	-1E+10	1
4902551	39	C	09/06/2021	10:54	-134.816	49.567	0	309.70	0	4.8640	0	33.9110	0	26.830	0	306.827	0	59.0	4	19.0	4	-1E+10	1	-1E+10	1	-1E+10	1	-1E+10	1	-1E+10	1	-1E+10	1
4902551	39	C	09/06/2021	10:54	-134.816	49.567	0	310.70	0	4.8500	0	33.9120	0	26.832	0	307.817	0	58.8	4	18.9	4	-1E+10	1	-1E+10	1	-1E+10	1	-1E+10	1	-1E+10	1	-1E+10	1
4902551	39	C	09/06/2021	10:54	-134.816	49.567	0	311.70	0	4.8440	0	33.9110	0	26.832	0	308.807	0	58.5	4	18.8	4	-1E+10	1	-1E+10	1	-1E+10	1	-1E+10	1	-1E+10	1	-1E+10	1
4902551	39	C	09/06/2021	10:54	-134.816	49.567	0	312.60	0	4.8350	0	33.9140	0	26.836	0	309.698	0	58.3	4	18.7	4	-1E+10	1	-1E+10	1	-1E+10	1	-1E+10	1	-1E+10	1	-1E+10	1
4902551	39	C	09/06/2021	10:54	-134.816	49.567	0	313.80	0	4.8240	0	33.9150	0	26.838	0	310.886	0	58.0	4	18.6	4	-1E+10	1	-1E+10	1	-1E+10	1	-1E+10	1	-1E+10	1	-1E+10	1
4902551	39	C	09/06/2021	10:54	-134.816	49.567	0	314.90	0	4.8070	0	33.9160	0	26.840	0	311.975	0	57.8	4	18.6	4	-1E+10	1	-1E+10	1	-1E+10	1	-1E+10	1	-1E+10	1	-1E+10	1
4902551	39	C	09/06/2021	10:54	-134.816	49.567	0	316.10	0	4.8050	0	33.9150	0	26.840	0	313.163	0	57.6	4	18.5	4	-1E+10	1	-1E+10	1	-1E+10	1	-1E+10	1	-1E+10	1	-1E+10	1
4902551	39	C	09/06/2021	10:54	-134.816	49.567	0	316.90	0	4.7980	0	33.9170	0	26.842	0	313.955	0	57.4	4	18.4	4	-1E+10	1	-1E+10	1	-1E+10	1	-1E+10	1	-1E+10	1	-1E+10	1
4902551	39	C	09/06/2021	10:54	-134.816	49.567	0	317.70	0	4.7920	0	33.9180	0	26.844	0	314.747	0	57.3	4	18.4	4	-1E+10	1	-1E+10	1	-1E+10	1	-1E+10	1	-1E+10	1	-1E+10	1
4902551	39	C	09/06/2021	10:54	-134.816	49.567	0	318.90	0	4.7830	0	33.9190	0	26.845	0	315.935	0	57.1	4	18.3	4	-1E+10	1	-1E+10	1	-1E+10	1	-1E+10	1	-1E+10	1	-1E+10	1
4902551	39	C	09/06/2021	10:54	-134.816	49.567	0	320.10	0	4.7790	0	33.9200	0	26.847	0	317.123	0	56.8	4	18.2	4	-1E+10	1	-1E+10	1	-1E+10	1	-1E+10	1	-1E+10	1	-1E+10	1
4902551	39	C	09/06/2021	10:54	-134.816	49.567	0	320.90	0	4.7770	0	33.9210	0	26.848	0	317.915	0	56.7	4	18.2	4	-1E+10	1	-1E+10	1	-1E+10	1	-1E+10	1	-1E+10	1	-1E+10	1
4902551	39	C	09/06/2021	10:54	-134.816	49.567	0	321.70	0	4.7760	0	33.9210	0	26.848	0	318.707	0	56.5	4	18.1	4	-1E+10	1	-1E+10	1	-1E+10	1	-1E+10	1	-1E+10	1	-1E+10	1
4902551	39	C	09/06/2021	10:54	-134.816	49.567	0	322.90	0	4.7770	0	33.9220	0	26.849	0	319.895	0	56.2	4	18.0	4	-1E+10	1	-1E+10	1	-1E+10	1	-1E+10	1	-1E+10	1	-1E+10	1
4902551	39	C	09/06/2021	10:54	-134.816	49.567	0	324.20	0	4.7640	0	33.9260	0	26.853	0	321.181	0	56.0	4	18.0	4	-1E+10	1	-1E+10	1	-1E+10	1	-1E+10	1	-1E+10	1	-1E+10	1
4902551	39	C	09/06/2021	10:54	-134.816	49.567	0	325.10	0	4.7620	0	33.9250	0	26.853	0	322.072	0	55.9	4	17.9	4	-1E+10	1	-1E+10	1	-1E+10	1	-1E+10	1	-1E+10	1	-1E+10	1
4902551	39	C	09/06/2021	10:54	-134.816	49.567	0	325.90	0	4.7610	0	33.9250	0	26.853	0	322.864	0	55.7	4	17.9	4	-1E+10	1	-1E+10	1	-1E+10	1	-1E+10	1	-1E+10	1	-1E+10	1
4902551	39	C	09/06/2021	10:54	-134.816	49.567	0	326.80	0	4.7590	0	33.9250	0	26.853	0	323.755	0	55.5	4	17.8	4	-1E+10	1	-1E+10	1	-1E+10	1	-1E+10	1	-1E+10	1	-1E+10	1
4902551	39	C	09/06/2021	10:54	-134.816	49.567	0	327.60	0	4.7590	0	33.9250	0	26.853	0	324.547	0	55.3	4	17.8	4	-1E+10	1	-1E+10	1	-1E+10	1	-1E+10	1	-1E+10	1	-1E+10	1
4902551	39	C	09/06/2021	10:54	-134.816	49.567	0	328.90	0	4.7510	0	33.9260	0	26.855	0	325.834	0	55.1	4	17.7	4	-1E+10	1	-1E+10	1	-1E+10	1	-1E+10	1	-1E+10	1	-1E+10	1
4902551	39	C	09/06/2021	10:54	-134.816	49.567	0	330.20	0	4.7480	0	33.9280	0	26.857	0	327.121	0	54.8	4	17.6	4	-1E+10	1	-1E+10	1	-1E+10	1	-1E+10	1	-1E+10	1	-1E+10	1
4902551	39	C	09/06/2021	10:54	-134.816	49.567	0	331.00	0	4.7480	0	33.9280	0	26.857	0	327.913	0	54.5	4	17.5	4	-1E+10	1	-1E+10	1	-1E+10	1	-1E+10	1	-1E+10	1	-1E+10	1
4902551	39	C	09/06/2021	10:54	-134.816	49.567	0	331.90	0	4.7480	0	33.9270	0	26.856	0	328.804	0	54.3	4	17.4	4	-1E+10	1	-1E+10	1	-1E+10	1	-1E+10	1	-1E+10	1	-1E+10	1
4902551	39	C	09/06/2021	10:54	-134.816	49.567	0	332.80	0	4.7470	0	33.9280	0	26.857	0	329.694	0	54.0	4	17.3	4	-1E+10	1	-1E+10	1	-1E+10	1	-1E+10	1	-1E+10	1	-1E+10	1
4902551	39	C	09/06/2021	10:54	-134.816	49.567	0	333.70	0	4.7350	0	33.9300	0	26.860	0	330.585	0	53.8	4	17.3	4	-1E+10	1	-1E+10	1	-1E+10	1	-1E+10	1	-1E+10	1	-1E+10	1
4902551	39	C	09/06/2021	10:54	-134.816	49.567	0	334.90	0	4.7220	0	33.9320	0	26.863	0	331.773	0	53.5	4	17.2	4	-1E+10	1	-1E+10	1	-1E+10	1	-1E+10	1	-1E+10	1	-1E+10	1
4902551	39	C	09/06/2021	10:54	-134.816	49.567	0	336.30	0	4.7140	0	33.9340	0	26.865	0	333.159	0	53.3	4	17.1	4	-1E+10	1	-1E+10	1	-1E+10	1	-1E+10	1	-1E+10	1	-1E+10	1
4902551	39	C	09/06/2021	10:54	-134.816	49.567	0	337.20	0	4.7120	0	33.9350	0	26.866	0	334.050	0	53.1	4	17.0	4	-1E+10	1	-1E+10	1	-1E+10	1	-1E+10	1	-1E+10	1	-1E+10	1
4902551	39	C	09/06/2021	10:54	-134.816	49.567	0	338.10	0	4.7110	0	33.9350	0	26.866	0	334.941	0	52.9	4	17.0	4	-1E+10	1	-1E+10	1	-1E+10	1	-1E+10	1	-1E+10	1	-1E+10	1
4902551	39	C	09/06/2021	10:54	-134.816	49.567	0	339.00	0	4.7100	0	33.9350	0	26.866	0	335.832	0	52.7	4	16.9	4	-1E+10	1	-1E+10	1	-1E+10	1	-1E+10	1	-1E+10	1	-1E+10	1
4902551	39	C	09/06/2021	10:54	-134.816	49.567	0	339.90	0	4.7030	0	33.9350	0	26.867	0	336.722	0	52.6	4	16.8	4	-1E+10	1	-1E+10	1	-1E+10	1	-1E+10	1	-1E+10	1	-1E+10	1
4902551	39	C	09/06/2021	10:54	-134.816	49.567	0	340.80	0	4.6890	0	33.9360	0	26.870	0	337.613	0	52.4	4	16.8	4	-1E+10	1	-1E+10	1	-1E+10	1	-1E+10	1	-1E+10	1	-1E+10	1
4902551	39	C	09/06/2021	10:54	-134.816	49.567	0	341.70	0	4.6780	0	33.9360	0	26.871	0	338.504	0	52.2	4	16.7	4	-1E+10	1	-1E+10	1	-1E+10	1	-1E+10	1	-1E+10	1	-1E+10	1
4902551	39	C	09/06/2021	10:54	-134.816	49.567	0	342.60	0	4.6700	0	33.9360	0	26.872	0	339.395	0	52.0	4	16.6	4	-1E+10	1	-1E+10	1	-1E+10	1	-1E+10	1	-1E+10	1	-1E+10	1
4902551	39	C	09/06/2021	10:54	-134.816	49.567	0	343.90	0	4.6530	0	33.9380	0	26.875	0	340.682	0	51.7	4	16.5	4	-1E+10	1	-1E+10	1	-1E+10	1	-1E+10	1	-1E+10	1	-1E+10	1
4902551	39	C	09/06/2021	10:54	-134.816	49.567	0	345.30	0	4.6490	0	33.9390	0	26.876	0	342.068	0	51.4	4	16.4	4	-1E+10	1	-1E+10	1	-1E+10	1	-1E+10	1	-1E+10	1	-1E+10	1
4902551	39	C	09/06/2021	10:54	-134.816	49.567	0	346.30	0	4.6320	0	33.9390	0	26.878	0	343.057	0	51.1	4	16.4	4	-1E+10	1	-1E+10	1	-1E+10	1	-1E+10	1	-1E+10	1	-1E+10	1
4902551	39	C	09/06/2021	10:54	-134.816	49.567	0	347.20	0	4.6230	0	33.9390	0	26.879	0	343.948	0	50.9	4	16.3	4	-1E+10	1	-1E+10	1	-1E+10	1	-1E+10	1	-1E+10	1	-1E+10	1
4902551	39	C	09/06/2021	10:54	-134.816	49.567	0	348.10	0	4.6150	0	33.9420	0	26.882	0	344.839	0	50.7	4	16.2	4	-1E+10	1	-1E+10	1	-1E+10	1	-1E+10	1	-1E+10	1	-1E+10	1
4902551	39	C	09/06/2021	10:54	-134.816	49.567	0	349.00	0	4.6090	0	33.9410	0	26.882	0	345.730	0	50.4	4	16.1	4	-1E+10	1	-1E+10	1	-1E+10	1	-1E+10	1	-1E+10	1	-1E+10	1
4902551	39	C	09/06/2021	10:54	-134.816	49.567	0	349.90	0	4.6030	0	33.9400	0	26.882	0	346.621	0	50.1	4	16.0	4	-1E+10	1	-1E+10	1	-1E+10	1	-1E+10	1	-1E+10	1	-1E+10	1
4902551	39	C	09/06/2021	10:54	-134.816	49.567	0	353.10	0	4.5770	0	33.9460	0	26.890	0	349.788	0	49.5	4	15.8	4	-1E+10	1	-1E+10	1	-1E+10	1	-1E+10	1	-1E+10	1	-1E+10	1
4902551	39	C	09/06/2021	10:54	-134.816	49.567	0	358.20	0	4.5400	0	33.9530	0	26.899	0	354.836	0	48.7	4	15.6	4	-1E+10	1	-1E+10	1	-1E+10	1	-1E+10	1	-1E+10	1	-1E+10	1
4902551	39	C	09/06/2021	10:54	-134.816	49.567	0	362.90	0	4.5170	0	33.9550	0	26.903	0	359.488	0	48.1	4	15.4	4	-1E+10	1	-1E+10	1	-1E+10	1	-1E+10	1	-1E+10	1	-1E+10	1
4902551	39	C	09/06/2021	10:54	-134.816	49.567	0	367.70	0	4.4860	0	33.9590	0	26.910	0	364.238	0	47.4	4	15.1	4	-1E+10	1	-1E+10	1	-1E+10	1	-1E+10	1	-1E+10	1	-1E+10	1
4902551	39	C	09/06/2021	10:54	-134.816	49.567	0	372.60	0	4.4680	0	33.9630	0	26.915	0	369.088	0	46.5	4	14.8	4	-1E+10	1	-1E+10	1	-1E+10	1	-1E+10	1	-1E+10	1	-1E+10	1
4902551	39	C	09/06/2021	10:54	-134.816	49.567	0	377.60	0	4.4470	0	33.9680	0	26.921	0	374.036	0	45.5	4	14.5	4	-1E+10	1	-1E+10	1	-1E+10	1	-1E+10	1	-1E+10	1	-1E+10	1
4902551	39	C	09/06/2021	10:54	-134.816	49.567	0	382.50	0	4.4340	0	33.9740	0	26.928	0	378.885	0	44.6	4	14.2	4	-1E+10	1	-1E+10	1	-1E+10	1	-1E+10	1	-1E+10	1	-1E+10	1
4902551	39	C	09/06/2021	10:54	-134.816	49.567	0	387.50	0	4.4130	0	33.9790	0	26.934	0	383.833	0	43.9	4	14.0	4	-1E+10	1	-1E+10	1	-1E+10	1	-1E+10	1	-1E+10	1	-1E+10	1
4902551	39	C	09/06/2021	10:54	-134.816	49.567	0	392.60	0	4.3970	0	33.9840	0	26.940	0	388.880	0	43.2	4	13.8	4	-1E+10	1	-1E+10	1	-1E+10	1	-1E+10	1	-1E+10	1	-1E+10	1
4902551	39	C	09/06/2021	10:54	-134.816	49.567	0	397.70	0	4.3890	0	33.9870	0	26.943	0	393.927	0	42.4	4	13.5	4	-1E+10	1	-1E+10	1	-1E+10	1	-1E+10	1	-1E+10	1	-1E+10	1
4902551	39	C	09/06/2021	10:54	-134.816	49.567	0	402.90	0	4.3770	0	33.9910	0	26.947	0	399.073	0	41.4	4	13.2	4	-1E+10	1	-1E+10	1	-1E+10	1	-1E+10	1	-1E+10	1	-1E+10	1
4902551	39	C	09/06/2021	10:54	-134.816	49.567	0	408.20	0	4.3640	0	33.9980	0	26.954	0	404.317	0	40.3	4	12.8	4	-1E+10	1	-1E+10	1	-1E+10	1	-1E+10	1	-1E+10	1	-1E+10	1
4902551	39	C	09/06/2021	10:54	-134.816	49.567	0	413.00	0	4.3490	0	34.0070	0	26.963	0	409.067	0	39.7	4	12.6	4	-1E+10	1	-1E+10	1	-1E+10	1	-1E+10	1	-1E+10	1	-1E+10	1
4902551	39	C	09/06/2021	10:54	-134.816	49.567	0	418.00	0	4.3450	0	34.0090	0	26.965	0	414.014	0	39.0	4	12.4	4	-1E+10	1	-1E+10	1	-1E+10	1	-1E+10	1	-1E+10	1	-1E+10	1
4902551	39	C	09/06/2021	10:54	-134.816	49.567	0	423.10	0	4.3400	0	34.0120	0	26.968	0	419.061	0	38.3	4	12.2	4	-1E+10	1	-1E+10	1	-1E+10	1	-1E+10	1	-1E+10	1	-1E+10	1
4902551	39	C	09/06/2021	10:54	-134.816	49.567	0	428.00	0	4.3270	0	34.0160	0	26.973	0	423.909	0	37.5	4	11.9	4	-1E+10	1	-1E+10	1	-1E+10	1	-1E+10	1	-1E+10	1	-1E+10	1
4902551	39	C	09/06/2021	10:54	-134.816	49.567	0	432.90	0	4.3080	0	34.0230	0	26.980	0	428.757	0	36.7	4	11.7	4	-1E+10	1	-1E+10	1	-1E+10	1	-1E+10	1	-1E+10	1	-1E+10	1
4902551	39	C	09/06/2021	10:54	-134.816	49.567	0	437.90	0	4.2920	0	34.0290	0	26.987	0	433.704	0	36.2	4	11.5	4	-1E+10	1	-1E+10	1	-1E+10	1	-1E+10	1	-1E+10	1	-1E+10	1
4902551	39	C	09/06/2021	10:54	-134.816	49.567	0	442.80	0	4.2870	0	34.0300	0	26.988	0	438.552	0	35.7	4	11.3	4	-1E+10	1	-1E+10	1	-1E+10	1	-1E+10	1	-1E+10	1	-1E+10	1
4902551	39	C	09/06/2021	10:54	-134.816	49.567	0	447.80	0	4.2770	0	34.0350	0	26.993	0	443.498	0	35.1	4	11.2	4	-1E+10	1	-1E+10	1	-1E+10	1	-1E+10	1	-1E+10	1	-1E+10	1
4902551	39	C	09/06/2021	10:54	-134.816	49.567	0	452.90	0	4.2690	0	34.0380	0	26.997	0	448.544	0	34.7	4	11.0	4	-1E+10	1	-1E+10	1	-1E+10	1	-1E+10	1	-1E+10	1	-1E+10	1
4902551	39	C	09/06/2021	10:54	-134.816	49.567	0	457.80	0	4.2600	0	34.0410	0	27.000	0	453.391	0	34.2	4	10.8	4	-1E+10	1	-1E+10	1	-1E+10	1	-1E+10	1	-1E+10	1	-1E+10	1
4902551	39	C	09/06/2021	10:54	-134.816	49.567	0	463.20	0	4.2550	0	34.0430	0	27.002	0	458.734	0	33.5	4	10.6	4	-1E+10	1	-1E+10	1	-1E+10	1	-1E+10	1	-1E+10	1	-1E+10	1
4902551	39	C	09/06/2021	10:54	-134.816	49.567	0	468.00	0	4.2440	0	34.0480	0	27.007	0	463.482	0	32.8	4	10.4	4	-1E+10	1	-1E+10	1	-1E+10	1	-1E+10	1	-1E+10	1	-1E+10	1
4902551	39	C	09/06/2021	10:54	-134.816	49.567	0	473.10	0	4.2320	0	34.0520	0	27.012	0	468.527	0	32.1	4	10.2	4	-1E+10	1	-1E+10	1	-1E+10	1	-1E+10	1	-1E+10	1	-1E+10	1
4902551	39	C	09/06/2021	10:54	-134.816	49.567	0	477.90	0	4.2120	0	34.0600	0	27.020	0	473.275	0	31.4	4	10.0	4	-1E+10	1	-1E+10	1	-1E+10	1	-1E+10	1	-1E+10	1	-1E+10	1
4902551	39	C	09/06/2021	10:54	-134.816	49.567	0	482.80	0	4.2010	0	34.0630	0	27.024	0	478.122	0	31.0	4	9.8	4	-1E+10	1	-1E+10	1	-1E+10	1	-1E+10	1	-1E+10	1	-1E+10	1
4902551	39	C	09/06/2021	10:54	-134.816	49.567	0	488.10	0	4.2000	0	34.0640	0	27.025	0	483.364	0	30.4	4	9.6	4	-1E+10	1	-1E+10	1	-1E+10	1	-1E+10	1	-1E+10	1	-1E+10	1
4902551	39	C	09/06/2021	10:54	-134.816	49.567	0	492.90	0	4.1840	0	34.0700	0	27.031	0	488.112	0	29.8	4	9.4	4	-1E+10	1	-1E+10	1	-1E+10	1	-1E+10	1	-1E+10	1	-1E+10	1
4902551	39	C	09/06/2021	10:54	-134.816	49.567	0	497.70	0	4.1720	0	34.0730	0	27.035	0	492.860	0	29.2	4	9.2	4	-1E+10	1	-1E+10	1	-1E+10	1	-1E+10	1	-1E+10	1	-1E+10	1
4902551	39	C	09/06/2021	10:54	-134.816	49.567	0	502.90	0	4.1490	0	34.0800	0	27.043	0	498.003	0	28.3	4	9.0	4	-1E+10	1	-1E+10	1	-1E+10	1	-1E+10	1	-1E+10	1	-1E+10	1
4902551	39	C	09/06/2021	10:54	-134.816	49.567	0	508.20	0	4.1250	0	34.0890	0	27.052	0	503.245	0	27.8	4	8.8	4	-1E+10	1	-1E+10	1	-1E+10	1	-1E+10	1	-1E+10	1	-1E+10	1
4902551	39	C	09/06/2021	10:54	-134.816	49.567	0	512.90	0	4.1110	0	34.0940	0	27.058	0	507.894	0	27.2	4	8.6	4	-1E+10	1	-1E+10	1	-1E+10	1	-1E+10	1	-1E+10	1	-1E+10	1
4902551	39	C	09/06/2021	10:54	-134.816	49.567	0	517.70	0	4.0970	0	34.0990	0	27.063	0	512.641	0	26.9	4	8.5	4	-1E+10	1	-1E+10	1	-1E+10	1	-1E+10	1	-1E+10	1	-1E+10	1
4902551	39	C	09/06/2021	10:54	-134.816	49.567	0	523.00	0	4.0830	0	34.1030	0	27.068	0	517.882	0	26.6	4	8.4	4	-1E+10	1	-1E+10	1	-1E+10	1	-1E+10	1	-1E+10	1	-1E+10	1
4902551	39	C	09/06/2021	10:54	-134.816	49.567	0	527.80	0	4.0680	0	34.1070	0	27.073	0	522.629	0	26.2	4	8.3	4	-1E+10	1	-1E+10	1	-1E+10	1	-1E+10	1	-1E+10	1	-1E+10	1
4902551	39	C	09/06/2021	10:54	-134.816	49.567	0	532.80	0	4.0510	0	34.1120	0	27.079	0	527.574	0	25.9	4	8.2	4	-1E+10	1	-1E+10	1	-1E+10	1	-1E+10	1	-1E+10	1	-1E+10	1
4902551	39	C	09/06/2021	10:54	-134.816	49.567	0	537.90	0	4.0370	0	34.1160	0	27.083	0	532.618	0	25.7	4	8.1	4	-1E+10	1	-1E+10	1	-1E+10	1	-1E+10	1	-1E+10	1	-1E+10	1
4902551	39	C	09/06/2021	10:54	-134.816	49.567	0	542.70	0	4.0220	0	34.1200	0	27.088	0	537.364	0	25.5	4	8.1	4	-1E+10	1	-1E+10	1	-1E+10	1	-1E+10	1	-1E+10	1	-1E+10	1
4902551	39	C	09/06/2021	10:54	-134.816	49.567	0	547.60	0	4.0100	0	34.1230	0	27.092	0	542.210	0	25.4	4	8.0	4	-1E+10	1	-1E+10	1	-1E+10	1	-1E+10	1	-1E+10	1	-1E+10	1
4902551	39	C	09/06/2021	10:54	-134.816	49.567	0	552.60	0	4.0030	0	34.1260	0	27.095	0	547.154	0	25.2	4	8.0	4	-1E+10	1	-1E+10	1	-1E+10	1	-1E+10	1	-1E+10	1	-1E+10	1
4902551	39	C	09/06/2021	10:54	-134.816	49.567	0	557.60	0	3.9960	0	34.1270	0	27.096	0	552.098	0	25.0	4	7.9	4	-1E+10	1	-1E+10	1	-1E+10	1	-1E+10	1	-1E+10	1	-1E+10	1
4902551	39	C	09/06/2021	10:54	-134.816	49.567	0	562.80	0	3.9770	0	34.1330	0	27.103	0	557.240	0	24.9	4	7.8	4	-1E+10	1	-1E+10	1	-1E+10	1	-1E+10	1	-1E+10	1	-1E+10	1
4902551	39	C	09/06/2021	10:54	-134.816	49.567	0	568.00	0	3.9710	0	34.1340	0	27.104	0	562.381	0	24.7	4	7.8	4	-1E+10	1	-1E+10	1	-1E+10	1	-1E+10	1	-1E+10	1	-1E+10	1
4902551	39	C	09/06/2021	10:54	-134.816	49.567	0	573.00	0	3.9620	0	34.1370	0	27.108	0	567.325	0	24.5	4	7.7	4	-1E+10	1	-1E+10	1	-1E+10	1	-1E+10	1	-1E+10	1	-1E+10	1
4902551	39	C	09/06/2021	10:54	-134.816	49.567	0	578.00	0	3.9480	0	34.1400	0	27.112	0	572.269	0	24.2	4	7.6	4	-1E+10	1	-1E+10	1	-1E+10	1	-1E+10	1	-1E+10	1	-1E+10	1
4902551	39	C	09/06/2021	10:54	-134.816	49.567	0	583.30	0	3.9210	0	34.1470	0	27.120	0	577.509	0	23.9	4	7.5	4	-1E+10	1	-1E+10	1	-1E+10	1	-1E+10	1	-1E+10	1	-1E+10	1
4902551	39	C	09/06/2021	10:54	-134.816	49.567	0	588.20	0	3.9100	0	34.1510	0	27.124	0	582.353	0	23.6	4	7.4	4	-1E+10	1	-1E+10	1	-1E+10	1	-1E+10	1	-1E+10	1	-1E+10	1
4902551	39	C	09/06/2021	10:54	-134.816	49.567	0	593.30	0	3.8980	0	34.1540	0	27.128	0	587.395	0	23.4	4	7.4	4	-1E+10	1	-1E+10	1	-1E+10	1	-1E+10	1	-1E+10	1	-1E+10	1
4902551	39	C	09/06/2021	10:54	-134.816	49.567	0	598.30	0	3.8850	0	34.1570	0	27.132	0	592.338	0	23.3	4	7.3	4	-1E+10	1	-1E+10	1	-1E+10	1	-1E+10	1	-1E+10	1	-1E+10	1
4902551	39	C	09/06/2021	10:54	-134.816	49.567	0	603.40	0	3.8730	0	34.1600	0	27.135	0	597.380	0	23.1	4	7.3	4	-1E+10	1	-1E+10	1	-1E+10	1	-1E+10	1	-1E+10	1	-1E+10	1
4902551	39	C	09/06/2021	10:54	-134.816	49.567	0	608.00	0	3.8670	0	34.1620	0	27.138	0	601.928	0	22.9	4	7.2	4	-1E+10	1	-1E+10	1	-1E+10	1	-1E+10	1	-1E+10	1	-1E+10	1
4902551	39	C	09/06/2021	10:54	-134.816	49.567	0	612.60	0	3.8590	0	34.1640	0	27.140	0	606.475	0	22.7	4	7.1	4	-1E+10	1	-1E+10	1	-1E+10	1	-1E+10	1	-1E+10	1	-1E+10	1
4902551	39	C	09/06/2021	10:54	-134.816	49.567	0	617.80	0	3.8490	0	34.1670	0	27.143	0	611.615	0	22.5	4	7.1	4	-1E+10	1	-1E+10	1	-1E+10	1	-1E+10	1	-1E+10	1	-1E+10	1
4902551	39	C	09/06/2021	10:54	-134.816	49.567	0	623.10	0	3.8380	0	34.1700	0	27.147	0	616.855	0	22.3	4	7.0	4	-1E+10	1	-1E+10	1	-1E+10	1	-1E+10	1	-1E+10	1	-1E+10	1
4902551	39	C	09/06/2021	10:54	-134.816	49.567	0	628.10	0	3.8310	0	34.1720	0	27.149	0	621.797	0	22.1	4	6.9	4	-1E+10	1	-1E+10	1	-1E+10	1	-1E+10	1	-1E+10	1	-1E+10	1
4902551	39	C	09/06/2021	10:54	-134.816	49.567	0	632.90	0	3.8240	0	34.1740	0	27.152	0	626.542	0	21.9	4	6.9	4	-1E+10	1	-1E+10	1	-1E+10	1	-1E+10	1	-1E+10	1	-1E+10	1
4902551	39	C	09/06/2021	10:54	-134.816	49.567	0	637.80	0	3.8130	0	34.1770	0	27.155	0	631.385	0	21.6	4	6.8	4	-1E+10	1	-1E+10	1	-1E+10	1	-1E+10	1	-1E+10	1	-1E+10	1
4902551	39	C	09/06/2021	10:54	-134.816	49.567	0	642.80	0	3.8080	0	34.1790	0	27.157	0	636.327	0	21.4	4	6.7	4	-1E+10	1	-1E+10	1	-1E+10	1	-1E+10	1	-1E+10	1	-1E+10	1
4902551	39	C	09/06/2021	10:54	-134.816	49.567	0	647.80	0	3.7990	0	34.1810	0	27.160	0	641.269	0	21.1	4	6.6	4	-1E+10	1	-1E+10	1	-1E+10	1	-1E+10	1	-1E+10	1	-1E+10	1
4902551	39	C	09/06/2021	10:54	-134.816	49.567	0	652.90	0	3.7900	0	34.1840	0	27.163	0	646.310	0	20.8	4	6.5	4	-1E+10	1	-1E+10	1	-1E+10	1	-1E+10	1	-1E+10	1	-1E+10	1
4902551	39	C	09/06/2021	10:54	-134.816	49.567	0	658.10	0	3.7800	0	34.1870	0	27.166	0	651.449	0	20.5	4	6.4	4	-1E+10	1	-1E+10	1	-1E+10	1	-1E+10	1	-1E+10	1	-1E+10	1
4902551	39	C	09/06/2021	10:54	-134.816	49.567	0	663.20	0	3.7670	0	34.1910	0	27.171	0	656.490	0	20.1	4	6.3	4	-1E+10	1	-1E+10	1	-1E+10	1	-1E+10	1	-1E+10	1	-1E+10	1
4902551	39	C	09/06/2021	10:54	-134.816	49.567	0	667.90	0	3.7570	0	34.1940	0	27.174	0	661.135	0	19.9	4	6.2	4	-1E+10	1	-1E+10	1	-1E+10	1	-1E+10	1	-1E+10	1	-1E+10	1
4902551	39	C	09/06/2021	10:54	-134.816	49.567	0	672.60	0	3.7520	0	34.1980	0	27.178	0	665.779	0	19.7	4	6.2	4	-1E+10	1	-1E+10	1	-1E+10	1	-1E+10	1	-1E+10	1	-1E+10	1
4902551	39	C	09/06/2021	10:54	-134.816	49.567	0	677.70	0	3.7400	0	34.1990	0	27.180	0	670.819	0	19.7	4	6.2	4	-1E+10	1	-1E+10	1	-1E+10	1	-1E+10	1	-1E+10	1	-1E+10	1
4902551	39	C	09/06/2021	10:54	-134.816	49.567	0	682.80	0	3.7300	0	34.2020	0	27.184	0	675.859	0	19.5	4	6.1	4	-1E+10	1	-1E+10	1	-1E+10	1	-1E+10	1	-1E+10	1	-1E+10	1
4902551	39	C	09/06/2021	10:54	-134.816	49.567	0	687.80	0	3.7220	0	34.2040	0	27.186	0	680.800	0	19.3	4	6.1	4	-1E+10	1	-1E+10	1	-1E+10	1	-1E+10	1	-1E+10	1	-1E+10	1
4902551	39	C	09/06/2021	10:54	-134.816	49.567	0	692.80	0	3.7070	0	34.2080	0	27.191	0	685.741	0	19.0	4	6.0	4	-1E+10	1	-1E+10	1	-1E+10	1	-1E+10	1	-1E+10	1	-1E+10	1
4902551	39	C	09/06/2021	10:54	-134.816	49.567	0	697.90	0	3.6930	0	34.2110	0	27.194	0	690.781	0	18.7	4	5.8	4	-1E+10	1	-1E+10	1	-1E+10	1	-1E+10	1	-1E+10	1	-1E+10	1
4902551	39	C	09/06/2021	10:54	-134.816	49.567	0	702.90	0	3.6820	0	34.2150	0	27.199	0	695.722	0	18.3	4	5.7	4	-1E+10	1	-1E+10	1	-1E+10	1	-1E+10	1	-1E+10	1	-1E+10	1
4902551	39	C	09/06/2021	10:54	-134.816	49.567	0	708.00	0	3.6650	0	34.2200	0	27.204	0	700.761	0	18.1	4	5.7	4	-1E+10	1	-1E+10	1	-1E+10	1	-1E+10	1	-1E+10	1	-1E+10	1
4902551	39	C	09/06/2021	10:54	-134.816	49.567	0	713.10	0	3.6500	0	34.2240	0	27.209	0	705.800	0	17.9	4	5.6	4	-1E+10	1	-1E+10	1	-1E+10	1	-1E+10	1	-1E+10	1	-1E+10	1
4902551	39	C	09/06/2021	10:54	-134.816	49.567	0	717.90	0	3.6360	0	34.2270	0	27.213	0	710.543	0	17.8	4	5.6	4	-1E+10	1	-1E+10	1	-1E+10	1	-1E+10	1	-1E+10	1	-1E+10	1
4902551	39	C	09/06/2021	10:54	-134.816	49.567	0	722.70	0	3.6250	0	34.2300	0	27.216	0	715.285	0	17.6	4	5.5	4	-1E+10	1	-1E+10	1	-1E+10	1	-1E+10	1	-1E+10	1	-1E+10	1
4902551	39	C	09/06/2021	10:54	-134.816	49.567	0	728.00	0	3.6130	0	34.2330	0	27.220	0	720.522	0	17.4	4	5.4	4	-1E+10	1	-1E+10	1	-1E+10	1	-1E+10	1	-1E+10	1	-1E+10	1
4902551	39	C	09/06/2021	10:54	-134.816	49.567	0	732.90	0	3.5990	0	34.2360	0	27.224	0	725.363	0	17.2	4	5.4	4	-1E+10	1	-1E+10	1	-1E+10	1	-1E+10	1	-1E+10	1	-1E+10	1
4902551	39	C	09/06/2021	10:54	-134.816	49.567	0	737.80	0	3.5900	0	34.2390	0	27.227	0	730.204	0	17.0	4	5.3	4	-1E+10	1	-1E+10	1	-1E+10	1	-1E+10	1	-1E+10	1	-1E+10	1
4902551	39	C	09/06/2021	10:54	-134.816	49.567	0	743.10	0	3.5780	0	34.2420	0	27.231	0	735.440	0	16.7	4	5.2	4	-1E+10	1	-1E+10	1	-1E+10	1	-1E+10	1	-1E+10	1	-1E+10	1
4902551	39	C	09/06/2021	10:54	-134.816	49.567	0	748.10	0	3.5650	0	34.2460	0	27.235	0	740.380	0	16.4	4	5.1	4	-1E+10	1	-1E+10	1	-1E+10	1	-1E+10	1	-1E+10	1	-1E+10	1
4902551	39	C	09/06/2021	10:54	-134.816	49.567	0	752.70	0	3.5570	0	34.2490	0	27.238	0	744.924	0	16.1	4	5.0	4	-1E+10	1	-1E+10	1	-1E+10	1	-1E+10	1	-1E+10	1	-1E+10	1
4902551	39	C	09/06/2021	10:54	-134.816	49.567	0	757.80	0	3.5510	0	34.2520	0	27.241	0	749.962	0	15.9	4	5.0	4	-1E+10	1	-1E+10	1	-1E+10	1	-1E+10	1	-1E+10	1	-1E+10	1
4902551	39	C	09/06/2021	10:54	-134.816	49.567	0	763.00	0	3.5420	0	34.2550	0	27.245	0	755.099	0	15.6	4	4.9	4	-1E+10	1	-1E+10	1	-1E+10	1	-1E+10	1	-1E+10	1	-1E+10	1
4902551	39	C	09/06/2021	10:54	-134.816	49.567	0	767.80	0	3.5160	0	34.2610	0	27.252	0	759.841	0	15.4	4	4.8	4	-1E+10	1	-1E+10	1	-1E+10	1	-1E+10	1	-1E+10	1	-1E+10	1
4902551	39	C	09/06/2021	10:54	-134.816	49.567	0	772.70	0	3.4970	0	34.2660	0	27.258	0	764.681	0	15.3	4	4.8	4	-1E+10	1	-1E+10	1	-1E+10	1	-1E+10	1	-1E+10	1	-1E+10	1
4902551	39	C	09/06/2021	10:54	-134.816	49.567	0	777.60	0	3.4880	0	34.2670	0	27.259	0	769.521	0	15.2	4	4.7	4	-1E+10	1	-1E+10	1	-1E+10	1	-1E+10	1	-1E+10	1	-1E+10	1
4902551	39	C	09/06/2021	10:54	-134.816	49.567	0	782.60	0	3.4700	0	34.2710	0	27.264	0	774.460	0	15.0	4	4.7	4	-1E+10	1	-1E+10	1	-1E+10	1	-1E+10	1	-1E+10	1	-1E+10	1
4902551	39	C	09/06/2021	10:54	-134.816	49.567	0	787.60	0	3.4570	0	34.2740	0	27.268	0	779.398	0	14.9	4	4.7	4	-1E+10	1	-1E+10	1	-1E+10	1	-1E+10	1	-1E+10	1	-1E+10	1
4902551	39	C	09/06/2021	10:54	-134.816	49.567	0	792.60	0	3.4430	0	34.2770	0	27.272	0	784.337	0	14.9	4	4.6	4	-1E+10	1	-1E+10	1	-1E+10	1	-1E+10	1	-1E+10	1	-1E+10	1
4902551	39	C	09/06/2021	10:54	-134.816	49.567	0	797.80	0	3.4340	0	34.2790	0	27.274	0	789.473	0	14.8	4	4.6	4	-1E+10	1	-1E+10	1	-1E+10	1	-1E+10	1	-1E+10	1	-1E+10	1
4902551	39	C	09/06/2021	10:54	-134.816	49.567	0	803.10	0	3.4260	0	34.2810	0	27.277	0	794.708	0	14.7	4	4.6	4	-1E+10	1	-1E+10	1	-1E+10	1	-1E+10	1	-1E+10	1	-1E+10	1
4902551	39	C	09/06/2021	10:54	-134.816	49.567	0	807.90	0	3.4150	0	34.2830	0	27.279	0	799.448	0	14.6	4	4.6	4	-1E+10	1	-1E+10	1	-1E+10	1	-1E+10	1	-1E+10	1	-1E+10	1
4902551	39	C	09/06/2021	10:54	-134.816	49.567	0	812.70	0	3.4110	0	34.2840	0	27.281	0	804.189	0	14.6	4	4.5	4	-1E+10	1	-1E+10	1	-1E+10	1	-1E+10	1	-1E+10	1	-1E+10	1
4902551	39	C	09/06/2021	10:54	-134.816	49.567	0	818.00	0	3.4040	0	34.2860	0	27.283	0	809.423	0	14.5	4	4.5	4	-1E+10	1	-1E+10	1	-1E+10	1	-1E+10	1	-1E+10	1	-1E+10	1
4902551	39	C	09/06/2021	10:54	-134.816	49.567	0	823.20	0	3.3950	0	34.2880	0	27.285	0	814.558	0	14.4	4	4.5	4	-1E+10	1	-1E+10	1	-1E+10	1	-1E+10	1	-1E+10	1	-1E+10	1
4902551	39	C	09/06/2021	10:54	-134.816	49.567	0	828.10	0	3.3800	0	34.2910	0	27.289	0	819.397	0	14.3	4	4.5	4	-1E+10	1	-1E+10	1	-1E+10	1	-1E+10	1	-1E+10	1	-1E+10	1
4902551	39	C	09/06/2021	10:54	-134.816	49.567	0	832.90	0	3.3680	0	34.2940	0	27.293	0	824.137	0	14.2	4	4.4	4	-1E+10	1	-1E+10	1	-1E+10	1	-1E+10	1	-1E+10	1	-1E+10	1
4902551	39	C	09/06/2021	10:54	-134.816	49.567	0	837.90	0	3.3590	0	34.2960	0	27.295	0	829.075	0	14.2	4	4.4	4	-1E+10	1	-1E+10	1	-1E+10	1	-1E+10	1	-1E+10	1	-1E+10	1
4902551	39	C	09/06/2021	10:54	-134.816	49.567	0	842.60	0	3.3530	0	34.2980	0	27.297	0	833.716	0	14.1	4	4.4	4	-1E+10	1	-1E+10	1	-1E+10	1	-1E+10	1	-1E+10	1	-1E+10	1
4902551	39	C	09/06/2021	10:54	-134.816	49.567	0	847.70	0	3.3440	0	34.3000	0	27.300	0	838.752	0	14.1	4	4.4	4	-1E+10	1	-1E+10	1	-1E+10	1	-1E+10	1	-1E+10	1	-1E+10	1
4902551	39	C	09/06/2021	10:54	-134.816	49.567	0	853.00	0	3.3350	0	34.3020	0	27.302	0	843.985	0	14.0	4	4.3	4	-1E+10	1	-1E+10	1	-1E+10	1	-1E+10	1	-1E+10	1	-1E+10	1
4902551	39	C	09/06/2021	10:54	-134.816	49.567	0	857.90	0	3.3190	0	34.3050	0	27.306	0	848.824	0	13.9	4	4.3	4	-1E+10	1	-1E+10	1	-1E+10	1	-1E+10	1	-1E+10	1	-1E+10	1
4902551	39	C	09/06/2021	10:54	-134.816	49.567	0	862.80	0	3.3100	0	34.3070	0	27.309	0	853.662	0	13.9	4	4.3	4	-1E+10	1	-1E+10	1	-1E+10	1	-1E+10	1	-1E+10	1	-1E+10	1
4902551	39	C	09/06/2021	10:54	-134.816	49.567	0	867.90	0	3.3020	0	34.3090	0	27.311	0	858.697	0	13.8	4	4.3	4	-1E+10	1	-1E+10	1	-1E+10	1	-1E+10	1	-1E+10	1	-1E+10	1
4902551	39	C	09/06/2021	10:54	-134.816	49.567	0	873.00	0	3.2960	0	34.3110	0	27.313	0	863.733	0	13.8	4	4.3	4	-1E+10	1	-1E+10	1	-1E+10	1	-1E+10	1	-1E+10	1	-1E+10	1
4902551	39	C	09/06/2021	10:54	-134.816	49.567	0	878.10	0	3.2880	0	34.3120	0	27.315	0	868.768	0	13.7	4	4.3	4	-1E+10	1	-1E+10	1	-1E+10	1	-1E+10	1	-1E+10	1	-1E+10	1
4902551	39	C	09/06/2021	10:54	-134.816	49.567	0	882.70	0	3.2780	0	34.3140	0	27.317	0	873.310	0	13.7	4	4.3	4	-1E+10	1	-1E+10	1	-1E+10	1	-1E+10	1	-1E+10	1	-1E+10	1
4902551	39	C	09/06/2021	10:54	-134.816	49.567	0	887.90	0	3.2650	0	34.3170	0	27.321	0	878.443	0	13.6	4	4.2	4	-1E+10	1	-1E+10	1	-1E+10	1	-1E+10	1	-1E+10	1	-1E+10	1
4902551	39	C	09/06/2021	10:54	-134.816	49.567	0	893.00	0	3.2580	0	34.3180	0	27.323	0	883.478	0	13.6	4	4.2	4	-1E+10	1	-1E+10	1	-1E+10	1	-1E+10	1	-1E+10	1	-1E+10	1
4902551	39	C	09/06/2021	10:54	-134.816	49.567	0	897.70	0	3.2470	0	34.3210	0	27.326	0	888.118	0	13.5	4	4.2	4	-1E+10	1	-1E+10	1	-1E+10	1	-1E+10	1	-1E+10	1	-1E+10	1
4902551	39	C	09/06/2021	10:54	-134.816	49.567	0	902.60	0	3.2320	0	34.3230	0	27.329	0	892.955	0	13.5	4	4.2	4	-1E+10	1	-1E+10	1	-1E+10	1	-1E+10	1	-1E+10	1	-1E+10	1
4902551	39	C	09/06/2021	10:54	-134.816	49.567	0	907.90	0	3.2180	0	34.3270	0	27.334	0	898.187	0	13.4	4	4.2	4	-1E+10	1	-1E+10	1	-1E+10	1	-1E+10	1	-1E+10	1	-1E+10	1
4902551	39	C	09/06/2021	10:54	-134.816	49.567	0	913.30	0	3.2090	0	34.3290	0	27.336	0	903.518	0	13.4	4	4.2	4	-1E+10	1	-1E+10	1	-1E+10	1	-1E+10	1	-1E+10	1	-1E+10	1
4902551	39	C	09/06/2021	10:54	-134.816	49.567	0	918.30	0	3.2020	0	34.3300	0	27.338	0	908.454	0	13.4	4	4.1	4	-1E+10	1	-1E+10	1	-1E+10	1	-1E+10	1	-1E+10	1	-1E+10	1
4902551	39	C	09/06/2021	10:54	-134.816	49.567	0	923.20	0	3.1950	0	34.3320	0	27.340	0	913.290	0	13.3	4	4.1	4	-1E+10	1	-1E+10	1	-1E+10	1	-1E+10	1	-1E+10	1	-1E+10	1
4902551	39	C	09/06/2021	10:54	-134.816	49.567	0	928.20	0	3.1870	0	34.3340	0	27.342	0	918.226	0	13.3	4	4.1	4	-1E+10	1	-1E+10	1	-1E+10	1	-1E+10	1	-1E+10	1	-1E+10	1
4902551	39	C	09/06/2021	10:54	-134.816	49.567	0	933.20	0	3.1830	0	34.3350	0	27.343	0	923.161	0	13.2	4	4.1	4	-1E+10	1	-1E+10	1	-1E+10	1	-1E+10	1	-1E+10	1	-1E+10	1
4902551	39	C	09/06/2021	10:54	-134.816	49.567	0	938.20	0	3.1720	0	34.3370	0	27.346	0	928.096	0	13.2	4	4.1	4	-1E+10	1	-1E+10	1	-1E+10	1	-1E+10	1	-1E+10	1	-1E+10	1
4902551	39	C	09/06/2021	10:54	-134.816	49.567	0	942.90	0	3.1650	0	34.3390	0	27.348	0	932.735	0	13.1	4	4.1	4	-1E+10	1	-1E+10	1	-1E+10	1	-1E+10	1	-1E+10	1	-1E+10	1
4902551	39	C	09/06/2021	10:54	-134.816	49.567	0	947.50	0	3.1530	0	34.3410	0	27.351	0	937.275	0	13.1	4	4.1	4	-1E+10	1	-1E+10	1	-1E+10	1	-1E+10	1	-1E+10	1	-1E+10	1
4902551	39	C	09/06/2021	10:54	-134.816	49.567	0	952.70	0	3.1400	0	34.3450	0	27.355	0	942.407	0	13.0	4	4.0	4	-1E+10	1	-1E+10	1	-1E+10	1	-1E+10	1	-1E+10	1	-1E+10	1
4902551	39	C	09/06/2021	10:54	-134.816	49.567	0	957.90	0	3.1320	0	34.3460	0	27.357	0	947.539	0	13.0	4	4.0	4	-1E+10	1	-1E+10	1	-1E+10	1	-1E+10	1	-1E+10	1	-1E+10	1
4902551	39	C	09/06/2021	10:54	-134.816	49.567	0	963.00	0	3.1230	0	34.3480	0	27.359	0	952.573	0	13.0	4	4.0	4	-1E+10	1	-1E+10	1	-1E+10	1	-1E+10	1	-1E+10	1	-1E+10	1
4902551	39	C	09/06/2021	10:54	-134.816	49.567	0	968.20	0	3.1170	0	34.3500	0	27.362	0	957.704	0	12.9	4	4.0	4	-1E+10	1	-1E+10	1	-1E+10	1	-1E+10	1	-1E+10	1	-1E+10	1
4902551	39	C	09/06/2021	10:54	-134.816	49.567	0	972.80	0	3.1120	0	34.3510	0	27.363	0	962.244	0	12.9	4	4.0	4	-1E+10	1	-1E+10	1	-1E+10	1	-1E+10	1	-1E+10	1	-1E+10	1
4902551	39	C	09/06/2021	10:54	-134.816	49.567	0	977.50	0	3.1030	0	34.3540	0	27.366	0	966.882	0	12.9	4	4.0	4	-1E+10	1	-1E+10	1	-1E+10	1	-1E+10	1	-1E+10	1	-1E+10	1
4902551	39	C	09/06/2021	10:54	-134.816	49.567	0	982.80	0	3.0980	0	34.3550	0	27.367	0	972.112	0	12.8	4	4.0	4	-1E+10	1	-1E+10	1	-1E+10	1	-1E+10	1	-1E+10	1	-1E+10	1
4902551	39	C	09/06/2021	10:54	-134.816	49.567	0	988.00	0	3.0930	0	34.3570	0	27.370	0	977.244	0	12.8	4	4.0	4	-1E+10	1	-1E+10	1	-1E+10	1	-1E+10	1	-1E+10	1	-1E+10	1
4902551	39	C	09/06/2021	10:54	-134.816	49.567	0	993.30	0	3.0910	0	34.3570	0	27.370	0	982.473	0	12.8	4	4.0	4	-1E+10	1	-1E+10	1	-1E+10	1	-1E+10	1	-1E+10	1	-1E+10	1
4902551	39	C	09/06/2021	10:54	-134.816	49.567	0	998.00	0	3.0870	0	34.3580	0	27.371	0	987.111	0	12.8	4	3.9	4	-1E+10	1	-1E+10	1	-1E+10	1	-1E+10	1	-1E+10	1	-1E+10	1
4902551	39	C	09/06/2021	10:54	-134.816	49.567	0	1005.40	0	3.0770	0	34.3600	0	27.373	0	994.413	0	12.8	4	4.0	4	-1E+10	1	-1E+10	1	-1E+10	1	-1E+10	1	-1E+10	1	-1E+10	1
4902551	39	C	09/06/2021	10:54	-134.816	49.567	0	1015.40	0	3.0580	0	34.3620	0	27.377	0	1004.280	0	12.9	4	4.0	4	-1E+10	1	-1E+10	1	-1E+10	1	-1E+10	1	-1E+10	1	-1E+10	1
4902551	39	C	09/06/2021	10:54	-134.816	49.567	0	1025.40	0	3.0320	0	34.3670	0	27.383	0	1014.146	0	12.9	4	4.0	4	-1E+10	1	-1E+10	1	-1E+10	1	-1E+10	1	-1E+10	1	-1E+10	1
4902551	39	C	09/06/2021	10:54	-134.816	49.567	0	1035.20	0	3.0180	0	34.3700	0	27.387	0	1023.814	0	12.9	4	4.0	4	-1E+10	1	-1E+10	1	-1E+10	1	-1E+10	1	-1E+10	1	-1E+10	1
4902551	39	C	09/06/2021	10:54	-134.816	49.567	0	1045.10	0	3.0080	0	34.3720	0	27.390	0	1033.581	0	12.8	4	4.0	4	-1E+10	1	-1E+10	1	-1E+10	1	-1E+10	1	-1E+10	1	-1E+10	1
4902551	39	C	09/06/2021	10:54	-134.816	49.567	0	1055.40	0	2.9880	0	34.3770	0	27.395	0	1043.742	0	12.7	4	3.9	4	-1E+10	1	-1E+10	1	-1E+10	1	-1E+10	1	-1E+10	1	-1E+10	1
4902551	39	C	09/06/2021	10:54	-134.816	49.567	0	1065.40	0	2.9730	0	34.3820	0	27.401	0	1053.607	0	12.6	4	3.9	4	-1E+10	1	-1E+10	1	-1E+10	1	-1E+10	1	-1E+10	1	-1E+10	1
4902551	39	C	09/06/2021	10:54	-134.816	49.567	0	1075.40	0	2.9620	0	34.3850	0	27.404	0	1063.471	0	12.6	4	3.9	4	-1E+10	1	-1E+10	1	-1E+10	1	-1E+10	1	-1E+10	1	-1E+10	1
4902551	39	C	09/06/2021	10:54	-134.816	49.567	0	1085.70	0	2.9530	0	34.3900	0	27.409	0	1073.630	0	12.5	4	3.8	4	-1E+10	1	-1E+10	1	-1E+10	1	-1E+10	1	-1E+10	1	-1E+10	1
4902551	39	C	09/06/2021	10:54	-134.816	49.567	0	1095.50	0	2.9360	0	34.3940	0	27.414	0	1083.296	0	12.5	4	3.9	4	-1E+10	1	-1E+10	1	-1E+10	1	-1E+10	1	-1E+10	1	-1E+10	1
4902551	39	C	09/06/2021	10:54	-134.816	49.567	0	1105.50	0	2.9180	0	34.3980	0	27.419	0	1093.158	0	12.6	4	3.9	4	-1E+10	1	-1E+10	1	-1E+10	1	-1E+10	1	-1E+10	1	-1E+10	1
4902551	39	C	09/06/2021	10:54	-134.816	49.567	0	1115.40	0	2.9000	0	34.4000	0	27.422	0	1102.922	0	12.7	4	3.9	4	-1E+10	1	-1E+10	1	-1E+10	1	-1E+10	1	-1E+10	1	-1E+10	1
4902551	39	C	09/06/2021	10:54	-134.816	49.567	0	1125.50	0	2.8790	0	34.4020	0	27.426	0	1112.882	0	12.8	4	3.9	4	-1E+10	1	-1E+10	1	-1E+10	1	-1E+10	1	-1E+10	1	-1E+10	1
4902551	39	C	09/06/2021	10:54	-134.816	49.567	0	1135.50	0	2.8690	0	34.4050	0	27.429	0	1122.743	0	12.8	4	3.9	4	-1E+10	1	-1E+10	1	-1E+10	1	-1E+10	1	-1E+10	1	-1E+10	1
4902551	39	C	09/06/2021	10:54	-134.816	49.567	0	1145.40	0	2.8620	0	34.4080	0	27.432	0	1132.505	0	12.8	4	3.9	4	-1E+10	1	-1E+10	1	-1E+10	1	-1E+10	1	-1E+10	1	-1E+10	1
4902551	39	C	09/06/2021	10:54	-134.816	49.567	0	1155.60	0	2.8520	0	34.4110	0	27.435	0	1142.563	0	12.9	4	4.0	4	-1E+10	1	-1E+10	1	-1E+10	1	-1E+10	1	-1E+10	1	-1E+10	1
4902551	39	C	09/06/2021	10:54	-134.816	49.567	0	1165.60	0	2.8370	0	34.4140	0	27.439	0	1152.422	0	13.0	4	4.0	4	-1E+10	1	-1E+10	1	-1E+10	1	-1E+10	1	-1E+10	1	-1E+10	1
4902551	39	C	09/06/2021	10:54	-134.816	49.567	0	1175.30	0	2.8250	0	34.4170	0	27.443	0	1161.986	0	13.1	4	4.0	4	-1E+10	1	-1E+10	1	-1E+10	1	-1E+10	1	-1E+10	1	-1E+10	1
4902551	39	C	09/06/2021	10:54	-134.816	49.567	0	1185.30	0	2.8120	0	34.4200	0	27.446	0	1171.845	0	13.2	4	4.1	4	-1E+10	1	-1E+10	1	-1E+10	1	-1E+10	1	-1E+10	1	-1E+10	1
4902551	39	C	09/06/2021	10:54	-134.816	49.567	0	1195.40	0	2.7960	0	34.4230	0	27.450	0	1181.802	0	13.4	4	4.1	4	-1E+10	1	-1E+10	1	-1E+10	1	-1E+10	1	-1E+10	1	-1E+10	1
4902551	39	C	09/06/2021	10:54	-134.816	49.567	0	1205.30	0	2.7770	0	34.4280	0	27.456	0	1191.561	0	13.5	4	4.2	4	-1E+10	1	-1E+10	1	-1E+10	1	-1E+10	1	-1E+10	1	-1E+10	1
4902551	39	C	09/06/2021	10:54	-134.816	49.567	0	1215.50	0	2.7580	0	34.4310	0	27.460	0	1201.616	0	13.7	4	4.2	4	-1E+10	1	-1E+10	1	-1E+10	1	-1E+10	1	-1E+10	1	-1E+10	1
4902551	39	C	09/06/2021	10:54	-134.816	49.567	0	1225.60	0	2.7510	0	34.4330	0	27.462	0	1211.571	0	13.8	4	4.2	4	-1E+10	1	-1E+10	1	-1E+10	1	-1E+10	1	-1E+10	1	-1E+10	1
4902551	39	C	09/06/2021	10:54	-134.816	49.567	0	1235.30	0	2.7390	0	34.4350	0	27.465	0	1221.132	0	14.0	4	4.3	4	-1E+10	1	-1E+10	1	-1E+10	1	-1E+10	1	-1E+10	1	-1E+10	1
4902551	39	C	09/06/2021	10:54	-134.816	49.567	0	1245.00	0	2.7250	0	34.4380	0	27.468	0	1230.693	0	14.2	4	4.3	4	-1E+10	1	-1E+10	1	-1E+10	1	-1E+10	1	-1E+10	1	-1E+10	1
4902551	39	C	09/06/2021	10:54	-134.816	49.567	0	1254.90	0	2.7110	0	34.4410	0	27.472	0	1240.450	0	14.4	4	4.4	4	-1E+10	1	-1E+10	1	-1E+10	1	-1E+10	1	-1E+10	1	-1E+10	1
4902551	39	C	09/06/2021	10:54	-134.816	49.567	0	1265.40	0	2.6930	0	34.4440	0	27.476	0	1250.798	0	14.6	4	4.5	4	-1E+10	1	-1E+10	1	-1E+10	1	-1E+10	1	-1E+10	1	-1E+10	1
4902551	39	C	09/06/2021	10:54	-134.816	49.567	0	1275.80	0	2.6750	0	34.4470	0	27.480	0	1261.047	0	14.9	4	4.5	4	-1E+10	1	-1E+10	1	-1E+10	1	-1E+10	1	-1E+10	1	-1E+10	1
4902551	39	C	09/06/2021	10:54	-134.816	49.567	0	1285.60	0	2.6590	0	34.4490	0	27.483	0	1270.704	0	15.1	4	4.6	4	-1E+10	1	-1E+10	1	-1E+10	1	-1E+10	1	-1E+10	1	-1E+10	1
4902551	39	C	09/06/2021	10:54	-134.816	49.567	0	1295.40	0	2.6450	0	34.4510	0	27.486	0	1280.360	0	15.3	4	4.7	4	-1E+10	1	-1E+10	1	-1E+10	1	-1E+10	1	-1E+10	1	-1E+10	1
4902551	39	C	09/06/2021	10:54	-134.816	49.567	0	1305.20	0	2.6300	0	34.4530	0	27.489	0	1290.016	0	15.5	4	4.7	4	-1E+10	1	-1E+10	1	-1E+10	1	-1E+10	1	-1E+10	1	-1E+10	1
4902551	39	C	09/06/2021	10:54	-134.816	49.567	0	1315.40	0	2.6150	0	34.4560	0	27.493	0	1300.066	0	15.8	4	4.8	4	-1E+10	1	-1E+10	1	-1E+10	1	-1E+10	1	-1E+10	1	-1E+10	1
4902551	39	C	09/06/2021	10:54	-134.816	49.567	0	1326.00	0	2.5980	0	34.4590	0	27.497	0	1310.510	0	16.1	4	4.9	4	-1E+10	1	-1E+10	1	-1E+10	1	-1E+10	1	-1E+10	1	-1E+10	1
4902551	39	C	09/06/2021	10:54	-134.816	49.567	0	1335.50	0	2.5830	0	34.4620	0	27.500	0	1319.869	0	16.5	4	5.0	4	-1E+10	1	-1E+10	1	-1E+10	1	-1E+10	1	-1E+10	1	-1E+10	1
4902551	39	C	09/06/2021	10:54	-134.816	49.567	0	1345.30	0	2.5620	0	34.4660	0	27.505	0	1329.524	0	16.8	4	5.1	4	-1E+10	1	-1E+10	1	-1E+10	1	-1E+10	1	-1E+10	1	-1E+10	1
4902551	39	C	09/06/2021	10:54	-134.816	49.567	0	1355.40	0	2.5540	0	34.4670	0	27.507	0	1339.473	0	17.1	4	5.2	4	-1E+10	1	-1E+10	1	-1E+10	1	-1E+10	1	-1E+10	1	-1E+10	1
4902551	39	C	09/06/2021	10:54	-134.816	49.567	0	1365.60	0	2.5460	0	34.4690	0	27.509	0	1349.521	0	17.4	4	5.3	4	-1E+10	1	-1E+10	1	-1E+10	1	-1E+10	1	-1E+10	1	-1E+10	1
4902551	39	C	09/06/2021	10:54	-134.816	49.567	0	1375.60	0	2.5330	0	34.4720	0	27.513	0	1359.371	0	17.9	4	5.5	4	-1E+10	1	-1E+10	1	-1E+10	1	-1E+10	1	-1E+10	1	-1E+10	1
4902551	39	C	09/06/2021	10:54	-134.816	49.567	0	1385.40	0	2.5250	0	34.4750	0	27.516	0	1369.023	0	18.4	4	5.6	4	-1E+10	1	-1E+10	1	-1E+10	1	-1E+10	1	-1E+10	1	-1E+10	1
4902551	39	C	09/06/2021	10:54	-134.816	49.567	0	1395.50	0	2.5120	0	34.4780	0	27.519	0	1378.971	0	18.8	4	5.7	4	-1E+10	1	-1E+10	1	-1E+10	1	-1E+10	1	-1E+10	1	-1E+10	1
4902551	39	C	09/06/2021	10:54	-134.816	49.567	0	1405.60	0	2.5010	0	34.4800	0	27.522	0	1388.918	0	19.1	4	5.8	4	-1E+10	1	-1E+10	1	-1E+10	1	-1E+10	1	-1E+10	1	-1E+10	1
4902551	39	C	09/06/2021	10:54	-134.816	49.567	0	1415.60	0	2.4900	0	34.4820	0	27.525	0	1398.766	0	19.5	4	5.9	4	-1E+10	1	-1E+10	1	-1E+10	1	-1E+10	1	-1E+10	1	-1E+10	1
4902551	39	C	09/06/2021	10:54	-134.816	49.567	0	1425.30	0	2.4800	0	34.4830	0	27.526	0	1408.319	0	19.9	4	6.1	4	-1E+10	1	-1E+10	1	-1E+10	1	-1E+10	1	-1E+10	1	-1E+10	1
4902551	39	C	09/06/2021	10:54	-134.816	49.567	0	1435.20	0	2.4620	0	34.4870	0	27.531	0	1418.067	0	20.5	4	6.2	4	-1E+10	1	-1E+10	1	-1E+10	1	-1E+10	1	-1E+10	1	-1E+10	1
4902551	39	C	09/06/2021	10:54	-134.816	49.567	0	1445.30	0	2.4480	0	34.4890	0	27.534	0	1428.013	0	21.0	4	6.4	4	-1E+10	1	-1E+10	1	-1E+10	1	-1E+10	1	-1E+10	1	-1E+10	1
4902551	39	C	09/06/2021	10:54	-134.816	49.567	0	1455.90	0	2.4260	0	34.4930	0	27.539	0	1438.450	0	21.6	4	6.6	4	-1E+10	1	-1E+10	1	-1E+10	1	-1E+10	1	-1E+10	1	-1E+10	1
4902551	39	C	09/06/2021	10:54	-134.816	49.567	0	1465.60	0	2.4130	0	34.4950	0	27.542	0	1448.000	0	22.0	4	6.7	4	-1E+10	1	-1E+10	1	-1E+10	1	-1E+10	1	-1E+10	1	-1E+10	1
4902551	39	C	09/06/2021	10:54	-134.816	49.567	0	1475.30	0	2.4040	0	34.4970	0	27.544	0	1457.550	0	22.3	4	6.8	4	-1E+10	1	-1E+10	1	-1E+10	1	-1E+10	1	-1E+10	1	-1E+10	1
4902551	39	C	09/06/2021	10:54	-134.816	49.567	0	1485.40	0	2.3930	0	34.4990	0	27.547	0	1467.494	0	22.7	4	6.9	4	-1E+10	1	-1E+10	1	-1E+10	1	-1E+10	1	-1E+10	1	-1E+10	1
4902551	39	C	09/06/2021	10:54	-134.816	49.567	0	1495.30	0	2.3850	0	34.5000	0	27.548	0	1477.240	0	23.1	4	7.0	4	-1E+10	1	-1E+10	1	-1E+10	1	-1E+10	1	-1E+10	1	-1E+10	1
4902551	39	C	09/06/2021	10:54	-134.816	49.567	0	1505.10	0	2.3720	0	34.5020	0	27.551	0	1486.887	0	23.5	4	7.1	4	-1E+10	1	-1E+10	1	-1E+10	1	-1E+10	1	-1E+10	1	-1E+10	1
4902551	39	C	09/06/2021	10:54	-134.816	49.567	0	1515.00	0	2.3620	0	34.5030	0	27.553	0	1496.632	0	23.7	4	7.2	4	-1E+10	1	-1E+10	1	-1E+10	1	-1E+10	1	-1E+10	1	-1E+10	1
4902551	39	C	09/06/2021	10:54	-134.816	49.567	0	1525.00	0	2.3520	0	34.5050	0	27.555	0	1506.475	0	24.2	4	7.4	4	-1E+10	1	-1E+10	1	-1E+10	1	-1E+10	1	-1E+10	1	-1E+10	1
4902551	39	C	09/06/2021	10:54	-134.816	49.567	0	1535.20	0	2.3390	0	34.5070	0	27.558	0	1516.515	0	24.8	4	7.5	4	-1E+10	1	-1E+10	1	-1E+10	1	-1E+10	1	-1E+10	1	-1E+10	1
4902551	39	C	09/06/2021	10:54	-134.816	49.567	0	1545.60	0	2.3200	0	34.5100	0	27.562	0	1526.751	0	25.5	4	7.7	4	-1E+10	1	-1E+10	1	-1E+10	1	-1E+10	1	-1E+10	1	-1E+10	1
4902551	39	C	09/06/2021	10:54	-134.816	49.567	0	1555.60	0	2.3050	0	34.5130	0	27.565	0	1536.592	0	26.0	4	7.9	4	-1E+10	1	-1E+10	1	-1E+10	1	-1E+10	1	-1E+10	1	-1E+10	1
4902551	39	C	09/06/2021	10:54	-134.816	49.567	0	1565.40	0	2.2980	0	34.5140	0	27.567	0	1546.237	0	26.5	4	8.0	4	-1E+10	1	-1E+10	1	-1E+10	1	-1E+10	1	-1E+10	1	-1E+10	1
4902551	39	C	09/06/2021	10:54	-134.816	49.567	0	1575.40	0	2.2890	0	34.5160	0	27.569	0	1556.078	0	27.1	4	8.2	4	-1E+10	1	-1E+10	1	-1E+10	1	-1E+10	1	-1E+10	1	-1E+10	1
4902551	39	C	09/06/2021	10:54	-134.816	49.567	0	1585.50	0	2.2790	0	34.5180	0	27.572	0	1566.017	0	27.7	4	8.4	4	-1E+10	1	-1E+10	1	-1E+10	1	-1E+10	1	-1E+10	1	-1E+10	1
4902551	39	C	09/06/2021	10:54	-134.816	49.567	0	1595.70	0	2.2660	0	34.5210	0	27.575	0	1576.053	0	28.4	4	8.6	4	-1E+10	1	-1E+10	1	-1E+10	1	-1E+10	1	-1E+10	1	-1E+10	1
4902551	39	C	09/06/2021	10:54	-134.816	49.567	0	1605.40	0	2.2540	0	34.5230	0	27.578	0	1585.598	0	29.0	4	8.8	4	-1E+10	1	-1E+10	1	-1E+10	1	-1E+10	1	-1E+10	1	-1E+10	1
4902551	39	C	09/06/2021	10:54	-134.816	49.567	0	1615.10	0	2.2450	0	34.5240	0	27.579	0	1595.141	0	29.6	4	9.0	4	-1E+10	1	-1E+10	1	-1E+10	1	-1E+10	1	-1E+10	1	-1E+10	1
4902551	39	C	09/06/2021	10:54	-134.816	49.567	0	1625.40	0	2.2340	0	34.5260	0	27.582	0	1605.275	0	30.2	4	9.2	4	-1E+10	1	-1E+10	1	-1E+10	1	-1E+10	1	-1E+10	1	-1E+10	1
4902551	39	C	09/06/2021	10:54	-134.816	49.567	0	1635.50	0	2.2240	0	34.5280	0	27.584	0	1615.211	0	30.7	4	9.3	4	-1E+10	1	-1E+10	1	-1E+10	1	-1E+10	1	-1E+10	1	-1E+10	1
4902551	39	C	09/06/2021	10:54	-134.816	49.567	0	1645.50	0	2.2150	0	34.5300	0	27.587	0	1625.049	0	31.4	4	9.5	4	-1E+10	1	-1E+10	1	-1E+10	1	-1E+10	1	-1E+10	1	-1E+10	1
4902551	39	C	09/06/2021	10:54	-134.816	49.567	0	1655.40	0	2.2030	0	34.5320	0	27.589	0	1634.788	0	32.2	4	9.8	4	-1E+10	1	-1E+10	1	-1E+10	1	-1E+10	1	-1E+10	1	-1E+10	1
4902551	39	C	09/06/2021	10:54	-134.816	49.567	0	1665.30	0	2.1880	0	34.5350	0	27.593	0	1644.526	0	32.9	4	10.0	4	-1E+10	1	-1E+10	1	-1E+10	1	-1E+10	1	-1E+10	1	-1E+10	1
4902551	39	C	09/06/2021	10:54	-134.816	49.567	0	1675.00	0	2.1790	0	34.5370	0	27.595	0	1654.067	0	33.4	4	10.1	4	-1E+10	1	-1E+10	1	-1E+10	1	-1E+10	1	-1E+10	1	-1E+10	1
4902551	39	C	09/06/2021	10:54	-134.816	49.567	0	1685.40	0	2.1720	0	34.5380	0	27.597	0	1664.297	0	33.9	4	10.2	4	-1E+10	1	-1E+10	1	-1E+10	1	-1E+10	1	-1E+10	1	-1E+10	1
4902551	39	C	09/06/2021	10:54	-134.816	49.567	0	1695.80	0	2.1640	0	34.5390	0	27.598	0	1674.525	0	34.5	4	10.4	4	-1E+10	1	-1E+10	1	-1E+10	1	-1E+10	1	-1E+10	1	-1E+10	1
4902551	39	C	09/06/2021	10:54	-134.816	49.567	0	1705.70	0	2.1530	0	34.5410	0	27.601	0	1684.262	0	35.0	4	10.6	4	-1E+10	1	-1E+10	1	-1E+10	1	-1E+10	1	-1E+10	1	-1E+10	1
4902551	39	C	09/06/2021	10:54	-134.816	49.567	0	1715.70	0	2.1460	0	34.5430	0	27.603	0	1694.096	0	35.5	4	10.7	4	-1E+10	1	-1E+10	1	-1E+10	1	-1E+10	1	-1E+10	1	-1E+10	1
4902551	39	C	09/06/2021	10:54	-134.816	49.567	0	1725.90	0	2.1400	0	34.5440	0	27.604	0	1704.127	0	36.0	4	10.9	4	-1E+10	1	-1E+10	1	-1E+10	1	-1E+10	1	-1E+10	1	-1E+10	1
4902551	39	C	09/06/2021	10:54	-134.816	49.567	0	1735.40	0	2.1340	0	34.5460	0	27.607	0	1713.469	0	36.4	4	11.0	4	-1E+10	1	-1E+10	1	-1E+10	1	-1E+10	1	-1E+10	1	-1E+10	1
4902551	39	C	09/06/2021	10:54	-134.816	49.567	0	1745.50	0	2.1260	0	34.5470	0	27.608	0	1723.400	0	37.0	4	11.2	4	-1E+10	1	-1E+10	1	-1E+10	1	-1E+10	1	-1E+10	1	-1E+10	1
4902551	39	C	09/06/2021	10:54	-134.816	49.567	0	1755.80	0	2.1170	0	34.5490	0	27.610	0	1733.528	0	37.6	4	11.4	4	-1E+10	1	-1E+10	1	-1E+10	1	-1E+10	1	-1E+10	1	-1E+10	1
4902551	39	C	09/06/2021	10:54	-134.816	49.567	0	1765.50	0	2.1080	0	34.5510	0	27.613	0	1743.065	0	38.2	4	11.6	4	-1E+10	1	-1E+10	1	-1E+10	1	-1E+10	1	-1E+10	1	-1E+10	1
4902551	39	C	09/06/2021	10:54	-134.816	49.567	0	1775.40	0	2.1010	0	34.5530	0	27.615	0	1752.798	0	38.7	4	11.7	4	-1E+10	1	-1E+10	1	-1E+10	1	-1E+10	1	-1E+10	1	-1E+10	1
4902551	39	C	09/06/2021	10:54	-134.816	49.567	0	1785.50	0	2.0960	0	34.5540	0	27.616	0	1762.728	0	39.2	4	11.9	4	-1E+10	1	-1E+10	1	-1E+10	1	-1E+10	1	-1E+10	1	-1E+10	1
4902551	39	C	09/06/2021	10:54	-134.816	49.567	0	1795.50	0	2.0880	0	34.5550	0	27.618	0	1772.558	0	39.8	4	12.0	4	-1E+10	1	-1E+10	1	-1E+10	1	-1E+10	1	-1E+10	1	-1E+10	1
4902551	39	C	09/06/2021	10:54	-134.816	49.567	0	1805.70	0	2.0810	0	34.5570	0	27.620	0	1782.585	0	40.4	4	12.2	4	-1E+10	1	-1E+10	1	-1E+10	1	-1E+10	1	-1E+10	1	-1E+10	1
4902551	39	C	09/06/2021	10:54	-134.816	49.567	0	1815.60	0	2.0740	0	34.5590	0	27.622	0	1792.317	0	41.1	4	12.4	4	-1E+10	1	-1E+10	1	-1E+10	1	-1E+10	1	-1E+10	1	-1E+10	1
4902551	39	C	09/06/2021	10:54	-134.816	49.567	0	1825.50	0	2.0630	0	34.5600	0	27.624	0	1802.048	0	41.7	4	12.6	4	-1E+10	1	-1E+10	1	-1E+10	1	-1E+10	1	-1E+10	1	-1E+10	1
4902551	39	C	09/06/2021	10:54	-134.816	49.567	0	1835.70	0	2.0570	0	34.5620	0	27.626	0	1812.073	0	42.3	4	12.8	4	-1E+10	1	-1E+10	1	-1E+10	1	-1E+10	1	-1E+10	1	-1E+10	1
4902551	39	C	09/06/2021	10:54	-134.816	49.567	0	1845.50	0	2.0500	0	34.5630	0	27.627	0	1821.705	0	43.0	4	13.0	4	-1E+10	1	-1E+10	1	-1E+10	1	-1E+10	1	-1E+10	1	-1E+10	1
4902551	39	C	09/06/2021	10:54	-134.816	49.567	0	1855.50	0	2.0420	0	34.5650	0	27.630	0	1831.533	0	43.6	4	13.2	4	-1E+10	1	-1E+10	1	-1E+10	1	-1E+10	1	-1E+10	1	-1E+10	1
4902551	39	C	09/06/2021	10:54	-134.816	49.567	0	1865.30	0	2.0320	0	34.5670	0	27.632	0	1841.164	0	44.2	4	13.3	4	-1E+10	1	-1E+10	1	-1E+10	1	-1E+10	1	-1E+10	1	-1E+10	1
4902551	39	C	09/06/2021	10:54	-134.816	49.567	0	1875.50	0	2.0280	0	34.5680	0	27.633	0	1851.188	0	44.7	4	13.5	4	-1E+10	1	-1E+10	1	-1E+10	1	-1E+10	1	-1E+10	1	-1E+10	1
4902551	39	C	09/06/2021	10:54	-134.816	49.567	0	1885.50	0	2.0230	0	34.5690	0	27.635	0	1861.015	0	45.4	4	13.7	4	-1E+10	1	-1E+10	1	-1E+10	1	-1E+10	1	-1E+10	1	-1E+10	1
4902551	39	C	09/06/2021	10:54	-134.816	49.567	0	1895.30	0	2.0130	0	34.5710	0	27.637	0	1870.644	0	46.0	4	13.9	4	-1E+10	1	-1E+10	1	-1E+10	1	-1E+10	1	-1E+10	1	-1E+10	1
4902551	39	C	09/06/2021	10:54	-134.816	49.567	0	1905.20	0	2.0070	0	34.5720	0	27.638	0	1880.372	0	46.5	4	14.0	4	-1E+10	1	-1E+10	1	-1E+10	1	-1E+10	1	-1E+10	1	-1E+10	1
4902551	39	C	09/06/2021	10:54	-134.816	49.567	0	1915.30	0	2.0010	0	34.5730	0	27.640	0	1890.295	0	47.1	4	14.2	4	-1E+10	1	-1E+10	1	-1E+10	1	-1E+10	1	-1E+10	1	-1E+10	1
4902551	39	C	09/06/2021	10:54	-134.816	49.567	0	1925.30	0	1.9950	0	34.5740	0	27.641	0	1900.120	0	47.6	4	14.3	4	-1E+10	1	-1E+10	1	-1E+10	1	-1E+10	1	-1E+10	1	-1E+10	1
4902551	39	C	09/06/2021	10:54	-134.816	49.567	0	1935.10	0	1.9900	0	34.5750	0	27.642	0	1909.748	0	48.0	4	14.5	4	-1E+10	1	-1E+10	1	-1E+10	1	-1E+10	1	-1E+10	1	-1E+10	1
4902551	39	C	09/06/2021	10:54	-134.816	49.567	0	1945.10	0	1.9860	0	34.5760	0	27.643	0	1919.572	0	48.4	4	14.6	4	-1E+10	1	-1E+10	1	-1E+10	1	-1E+10	1	-1E+10	1	-1E+10	1
4902551	39	C	09/06/2021	10:54	-134.816	49.567	0	1955.10	0	1.9830	0	34.5770	0	27.644	0	1929.396	0	48.9	4	14.7	4	-1E+10	1	-1E+10	1	-1E+10	1	-1E+10	1	-1E+10	1	-1E+10	1
4902551	39	C	09/06/2021	10:54	-134.816	49.567	0	1965.20	0	1.9770	0	34.5780	0	27.646	0	1939.317	0	49.7	4	15.0	4	-1E+10	1	-1E+10	1	-1E+10	1	-1E+10	1	-1E+10	1	-1E+10	1
4902551	39	C	09/06/2021	10:54	-134.816	49.567	0	1975.40	0	1.9650	0	34.5800	0	27.648	0	1949.336	0	50.5	4	15.2	4	-1E+10	1	-1E+10	1	-1E+10	1	-1E+10	1	-1E+10	1	-1E+10	1
4902551	39	C	09/06/2021	10:54	-134.816	49.567	0	1985.60	0	1.9570	0	34.5810	0	27.650	0	1959.354	0	51.2	4	15.4	4	-1E+10	1	-1E+10	1	-1E+10	1	-1E+10	1	-1E+10	1	-1E+10	1
4902551	39	C	09/06/2021	10:54	-134.816	49.567	0	1995.50	0	1.9480	0	34.5830	0	27.652	0	1969.078	0	51.7	4	15.6	4	-1E+10	1	-1E+10	1	-1E+10	1	-1E+10	1	-1E+10	1	-1E+10	1
4902551	39	C	09/06/2021	10:54	-134.816	49.567	0	2005.40	0	1.9450	0	34.5840	0	27.653	0	1978.801	0	52.2	4	15.7	4	-1E+10	1	-1E+10	1	-1E+10	1	-1E+10	1	-1E+10	1	-1E+10	1
4902551	39	C	09/06/2021	10:54	-134.816	49.567	0	2015.50	0	1.9390	0	34.5850	0	27.655	0	1988.720	0	52.6	4	15.8	4	-1E+10	1	-1E+10	1	-1E+10	1	-1E+10	1	-1E+10	1	-1E+10	1
4902551	39	C	09/06/2021	10:54	-134.816	49.567	0	2025.60	0	1.9340	0	34.5860	0	27.656	0	1998.638	0	53.1	4	16.0	4	-1E+10	1	-1E+10	1	-1E+10	1	-1E+10	1	-1E+10	1	-1E+10	1
4902551	39	C	09/06/2021	10:54	-134.816	49.567	0	2035.20	0	1.9280	0	34.5870	0	27.657	0	2008.065	0	53.4	4	16.1	4	-1E+10	1	-1E+10	1	-1E+10	1	-1E+10	1	-1E+10	1	-1E+10	1
4902551	39	C	09/06/2021	10:54	-134.816	49.567	0																										
4902551	40	C	09/16/2021	15:59	-134.730	49.584	0	0.40	0	15.0130	0	32.2300	0	23.835	0	0.397	0	246.3	4	97.5	4	-1E+10	1	-1E+10	1	-1E+10	1	-1E+10	1	-1E+10	1	-1E+10	1
4902551	40	C	09/16/2021	15:59	-134.730	49.584	0	1.10	0	15.0130	0	32.2280	0	23.834	0	1.091	0	246.3	4	97.6	4	-1E+10	1	-1E+10	1	-1E+10	1	-1E+10	1	-1E+10	1	-1E+10	1
4902551	40	C	09/16/2021	15:59	-134.730	49.584	0	1.90	0	15.0140	0	32.2280	0	23.834	0	1.884	0	246.3	4	97.5	4	-1E+10	1	-1E+10	1	-1E+10	1	-1E+10	1	-1E+10	1	-1E+10	1
4902551	40	C	09/16/2021	15:59	-134.730	49.584	0	2.80	0	15.0140	0	32.2310	0	23.836	0	2.776	0	246.3	4	97.5	4	-1E+10	1	-1E+10	1	-1E+10	1	-1E+10	1	-1E+10	1	-1E+10	1
4902551	40	C	09/16/2021	15:59	-134.730	49.584	0	3.90	0	15.0150	0	32.2310	0	23.836	0	3.867	0	246.3	4	97.5	4	-1E+10	1	-1E+10	1	-1E+10	1	-1E+10	1	-1E+10	1	-1E+10	1
4902551	40	C	09/16/2021	15:59	-134.730	49.584	0	4.90	0	15.0150	0	32.2320	0	23.837	0	4.858	0	246.3	4	97.5	4	-1E+10	1	-1E+10	1	-1E+10	1	-1E+10	1	-1E+10	1	-1E+10	1
4902551	40	C	09/16/2021	15:59	-134.730	49.584	0	6.00	0	15.0150	0	32.2320	0	23.837	0	5.949	0	246.3	4	97.6	4	-1E+10	1	-1E+10	1	-1E+10	1	-1E+10	1	-1E+10	1	-1E+10	1
4902551	40	C	09/16/2021	15:59	-134.730	49.584	0	7.10	0	15.0170	0	32.2320	0	23.836	0	7.039	0	246.4	4	97.6	4	-1E+10	1	-1E+10	1	-1E+10	1	-1E+10	1	-1E+10	1	-1E+10	1
4902551	40	C	09/16/2021	15:59	-134.730	49.584	0	7.90	0	15.0170	0	32.2320	0	23.836	0	7.832	0	246.3	4	97.6	4	-1E+10	1	-1E+10	1	-1E+10	1	-1E+10	1	-1E+10	1	-1E+10	1
4902551	40	C	09/16/2021	15:59	-134.730	49.584	0	8.90	0	15.0170	0	32.2330	0	23.837	0	8.824	0	246.3	4	97.6	4	-1E+10	1	-1E+10	1	-1E+10	1	-1E+10	1	-1E+10	1	-1E+10	1
4902551	40	C	09/16/2021	15:59	-134.730	49.584	0	10.00	0	15.0170	0	32.2320	0	23.836	0	9.914	0	246.4	4	97.6	4	-1E+10	1	-1E+10	1	-1E+10	1	-1E+10	1	-1E+10	1	-1E+10	1
4902551	40	C	09/16/2021	15:59	-134.730	49.584	0	11.10	0	15.0170	0	32.2320	0	23.836	0	11.005	0	246.4	4	97.6	4	-1E+10	1	-1E+10	1	-1E+10	1	-1E+10	1	-1E+10	1	-1E+10	1
4902551	40	C	09/16/2021	15:59	-134.730	49.584	0	12.10	0	15.0180	0	32.2320	0	23.836	0	11.996	0	246.4	4	97.6	4	-1E+10	1	-1E+10	1	-1E+10	1	-1E+10	1	-1E+10	1	-1E+10	1
4902551	40	C	09/16/2021	15:59	-134.730	49.584	0	13.00	0	15.0180	0	32.2320	0	23.836	0	12.889	0	246.5	4	97.6	4	-1E+10	1	-1E+10	1	-1E+10	1	-1E+10	1	-1E+10	1	-1E+10	1
4902551	40	C	09/16/2021	15:59	-134.730	49.584	0	13.90	0	15.0190	0	32.2320	0	23.836	0	13.781	0	246.5	4	97.6	4	-1E+10	1	-1E+10	1	-1E+10	1	-1E+10	1	-1E+10	1	-1E+10	1
4902551	40	C	09/16/2021	15:59	-134.730	49.584	0	14.70	0	15.0200	0	32.2320	0	23.836	0	14.574	0	246.6	4	97.7	4	-1E+10	1	-1E+10	1	-1E+10	1	-1E+10	1	-1E+10	1	-1E+10	1
4902551	40	C	09/16/2021	15:59	-134.730	49.584	0	15.90	0	15.0170	0	32.2320	0	23.836	0	15.764	0	246.6	4	97.7	4	-1E+10	1	-1E+10	1	-1E+10	1	-1E+10	1	-1E+10	1	-1E+10	1
4902551	40	C	09/16/2021	15:59	-134.730	49.584	0	17.10	0	15.0160	0	32.2320	0	23.837	0	16.953	0	246.7	4	97.7	4	-1E+10	1	-1E+10	1	-1E+10	1	-1E+10	1	-1E+10	1	-1E+10	1
4902551	40	C	09/16/2021	15:59	-134.730	49.584	0	18.00	0	15.0190	0	32.2320	0	23.836	0	17.846	0	246.8	4	97.8	4	-1E+10	1	-1E+10	1	-1E+10	1	-1E+10	1	-1E+10	1	-1E+10	1
4902551	40	C	09/16/2021	15:59	-134.730	49.584	0	18.90	0	15.0170	0	32.2330	0	23.837	0	18.738	0	246.8	4	97.8	4	-1E+10	1	-1E+10	1	-1E+10	1	-1E+10	1	-1E+10	1	-1E+10	1
4902551	40	C	09/16/2021	15:59	-134.730	49.584	0	20.10	0	15.0160	0	32.2330	0	23.838	0	19.927	0	247.0	4	97.8	4	-1E+10	1	-1E+10	1	-1E+10	1	-1E+10	1	-1E+10	1	-1E+10	1
4902551	40	C	09/16/2021	15:59	-134.730	49.584	0	20.90	0	15.0180	0	32.2330	0	23.837	0	20.721	0	247.1	4	97.9	4	-1E+10	1	-1E+10	1	-1E+10	1	-1E+10	1	-1E+10	1	-1E+10	1
4902551	40	C	09/16/2021	15:59	-134.730	49.584	0	21.80	0	15.0170	0	32.2320	0	23.837	0	21.613	0	247.2	4	97.9	4	-1E+10	1	-1E+10	1	-1E+10	1	-1E+10	1	-1E+10	1	-1E+10	1
4902551	40	C	09/16/2021	15:59	-134.730	49.584	0	23.00	0	15.0100	0	32.2330	0	23.839	0	22.802	0	247.5	4	98.0	4	-1E+10	1	-1E+10	1	-1E+10	1	-1E+10	1	-1E+10	1	-1E+10	1
4902551	40	C	09/16/2021	15:59	-134.730	49.584	0	23.90	0	15.0110	0	32.2350	0	23.840	0	23.695	0	247.6	4	98.0	4	-1E+10	1	-1E+10	1	-1E+10	1	-1E+10	1	-1E+10	1	-1E+10	1
4902551	40	C	09/16/2021	15:59	-134.730	49.584	0	24.80	0	15.0110	0	32.2340	0	23.840	0	24.587	0	247.8	4	98.1	4	-1E+10	1	-1E+10	1	-1E+10	1	-1E+10	1	-1E+10	1	-1E+10	1
4902551	40	C	09/16/2021	15:59	-134.730	49.584	0	26.00	0	15.0140	0	32.2310	0	23.837	0	25.776	0	248.1	4	98.2	4	-1E+10	1	-1E+10	1	-1E+10	1	-1E+10	1	-1E+10	1	-1E+10	1
4902551	40	C	09/16/2021	15:59	-134.730	49.584	0	27.00	0	15.0110	0	32.2320	0	23.838	0	26.768	0	248.6	4	98.4	4	-1E+10	1	-1E+10	1	-1E+10	1	-1E+10	1	-1E+10	1	-1E+10	1
4902551	40	C	09/16/2021	15:59	-134.730	49.584	0	28.00	0	15.0100	0	32.2320	0	23.838	0	27.759	0	249.1	4	98.6	4	-1E+10	1	-1E+10	1	-1E+10	1	-1E+10	1	-1E+10	1	-1E+10	1
4902551	40	C	09/16/2021	15:59	-134.730	49.584	0	29.10	0	15.0110	0	32.2310	0	23.837	0	28.850	0	249.9	4	99.0	4	-1E+10	1	-1E+10	1	-1E+10	1	-1E+10	1	-1E+10	1	-1E+10	1
4902551	40	C	09/16/2021	15:59	-134.730	49.584	0	29.90	0	15.0060	0	32.2290	0	23.837	0	29.643	0	251.0	4	99.4	4	-1E+10	1	-1E+10	1	-1E+10	1	-1E+10	1	-1E+10	1	-1E+10	1
4902551	40	C	09/16/2021	15:59	-134.730	49.584	0	31.10	0	14.9680	0	32.2300	0	23.846	0	30.832	0	253.2	4	100.2	4	-1E+10	1	-1E+10	1	-1E+10	1	-1E+10	1	-1E+10	1	-1E+10	1
4902551	40	C	09/16/2021	15:59	-134.730	49.584	0	31.90	0	14.7310	0	32.2250	0	23.893	0	31.625	0	256.2	4	100.9	4	-1E+10	1	-1E+10	1	-1E+10	1	-1E+10	1	-1E+10	1	-1E+10	1
4902551	40	C	09/16/2021	15:59	-134.730	49.584	0	33.10	0	14.3390	0	32.2520	0	23.996	0	32.815	0	261.0	4	102.0	4	-1E+10	1	-1E+10	1	-1E+10	1	-1E+10	1	-1E+10	1	-1E+10	1
4902551	40	C	09/16/2021	15:59	-134.730	49.584	0	34.00	0	13.9460	0	32.2590	0	24.082	0	33.707	0	267.1	4	103.6	4	-1E+10	1	-1E+10	1	-1E+10	1	-1E+10	1	-1E+10	1	-1E+10	1
4902551	40	C	09/16/2021	15:59	-134.730	49.584	0	35.00	0	13.4690	0	32.2590	0	24.179	0	34.698	0	272.8	4	104.7	4	-1E+10	1	-1E+10	1	-1E+10	1	-1E+10	1	-1E+10	1	-1E+10	1
4902551	40	C	09/16/2021	15:59	-134.730	49.584	0	36.10	0	12.2820	0	32.2870	0	24.431	0	35.789	0	277.6	4	104.1	4	-1E+10	1	-1E+10	1	-1E+10	1	-1E+10	1	-1E+10	1	-1E+10	1
4902551	40	C	09/16/2021	15:59	-134.730	49.584	0	37.10	0	11.6320	0	32.3000	0	24.562	0	36.780	0	280.3	4	103.7	4	-1E+10	1	-1E+10	1	-1E+10	1	-1E+10	1	-1E+10	1	-1E+10	1
4902551	40	C	09/16/2021	15:59	-134.730	49.584	0	38.00	0	11.3520	0	32.3070	0	24.618	0	37.672	0	281.3	4	103.4	4	-1E+10	1	-1E+10	1	-1E+10	1	-1E+10	1	-1E+10	1	-1E+10	1
4902551	40	C	09/16/2021	15:59	-134.730	49.584	0	38.90	0	10.7920	0	32.3180	0	24.725	0	38.564	0	282.8	4	102.8	4	-1E+10	1	-1E+10	1	-1E+10	1	-1E+10	1	-1E+10	1	-1E+10	1
4902551	40	C	09/16/2021	15:59	-134.730	49.584	0	40.00	0	10.2710	0	32.3550	0	24.843	0	39.655	0	283.2	4	101.8	4	-1E+10	1	-1E+10	1	-1E+10	1	-1E+10	1	-1E+10	1	-1E+10	1
4902551	40	C	09/16/2021	15:59	-134.730	49.584	0	41.10	0	9.5530	0	32.3610	0	24.966	0	40.745	0	285.2	4	100.9	4	-1E+10	1	-1E+10	1	-1E+10	1	-1E+10	1	-1E+10	1	-1E+10	1
4902551	40	C	09/16/2021	15:59	-134.730	49.584	0	42.00	0	9.3290	0	32.3740	0	25.012	0	41.637	0	285.3	4	100.5	4	-1E+10	1	-1E+10	1	-1E+10	1	-1E+10	1	-1E+10	1	-1E+10	1
4902551	40	C	09/16/2021	15:59	-134.730	49.584	0	42.80	0	9.1990	0	32.3620	0	25.023	0	42.430	0	285.4	4	100.2	4	-1E+10	1	-1E+10	1	-1E+10	1	-1E+10	1	-1E+10	1	-1E+10	1
4902551	40	C	09/16/2021	15:59	-134.730	49.584	0	43.90	0	9.0970	0	32.3680	0	25.044	0	43.521	0	284.9	4	99.8	4	-1E+10	1	-1E+10	1	-1E+10	1	-1E+10	1	-1E+10	1	-1E+10	1
4902551	40	C	09/16/2021	15:59	-134.730	49.584	0	44.80	0	9.0740	0	32.3670	0	25.046	0	44.413	0	284.1	4	99.5	4	-1E+10	1	-1E+10	1	-1E+10	1	-1E+10	1	-1E+10	1	-1E+10	1
4902551	40	C	09/16/2021	15:59	-134.730	49.584	0	46.00	0	9.0510	0	32.3660	0	25.049	0	45.602	0	283.1	4	99.1	4	-1E+10	1	-1E+10	1	-1E+10	1	-1E+10	1	-1E+10	1	-1E+10	1
4902551	40	C	09/16/2021	15:59	-134.730	49.584	0	47.10	0	8.8810	0	32.3680	0	25.077	0	46.693	0	282.6	4	98.6	4	-1E+10	1	-1E+10	1	-1E+10	1	-1E+10	1	-1E+10	1	-1E+10	1
4902551	40	C	09/16/2021	15:59	-134.730	49.584	0	47.90	0	8.7600	0	32.3740	0	25.100	0	47.486	0	282.2	4	98.1	4	-1E+10	1	-1E+10	1	-1E+10	1	-1E+10	1	-1E+10	1	-1E+10	1
4902551	40	C	09/16/2021	15:59	-134.730	49.584	0	48.90	0	8.6410	0	32.3800	0	25.123	0	48.477	0	281.8	4	97.8	4	-1E+10	1	-1E+10	1	-1E+10	1	-1E+10	1	-1E+10	1	-1E+10	1
4902551	40	C	09/16/2021	15:59	-134.730	49.584	0	50.10	0	8.4850	0	32.3820	0	25.148	0	49.666	0	281.3	4	97.2	4	-1E+10	1	-1E+10	1	-1E+10	1	-1E+10	1	-1E+10	1	-1E+10	1
4902551	40	C	09/16/2021	15:59	-134.730	49.584	0	51.00	0	8.3980	0	32.3840	0	25.163	0	50.558	0	280.8	4	96.9	4	-1E+10	1	-1E+10	1	-1E+10	1	-1E+10	1	-1E+10	1	-1E+10	1
4902551	40	C	09/16/2021	15:59	-134.730	49.584	0	51.90	0	8.3380	0	32.3830	0	25.171	0	51.451	0	280.2	4	96.6	4	-1E+10	1	-1E+10	1	-1E+10	1	-1E+10	1	-1E+10	1	-1E+10	1
4902551	40	C	09/16/2021	15:59	-134.730	49.584	0	52.90	0	8.1560	0	32.3900	0	25.203	0	52.442	0	279.9	4	96.0	4	-1E+10	1	-1E+10	1	-1E+10	1	-1E+10	1	-1E+10	1	-1E+10	1
4902551	40	C	09/16/2021	15:59	-134.730	49.584	0	54.10	0	7.9420	0	32.3960	0	25.239	0	53.631	0	279.9	4	95.6	4	-1E+10	1	-1E+10	1	-1E+10	1	-1E+10	1	-1E+10	1	-1E+10	1
4902551	40	C	09/16/2021	15:59	-134.730	49.584	0	55.10	0	7.8260	0	32.4050	0	25.262	0	54.622	0	279.6	4	95.3	4	-1E+10	1	-1E+10	1	-1E+10	1	-1E+10	1	-1E+10	1	-1E+10	1
4902551	40	C	09/16/2021	15:59	-134.730	49.584	0	56.20	0	7.7200	0	32.4050	0	25.277	0	55.713	0	279.5	4	95.0	4	-1E+10	1	-1E+10	1	-1E+10	1	-1E+10	1	-1E+10	1	-1E+10	1
4902551	40	C	09/16/2021	15:59	-134.730	49.584	0	57.00	0	7.6990	0	32.4060	0	25.281	0	56.506	0	279.2	4	94.9	4	-1E+10	1	-1E+10	1	-1E+10	1	-1E+10	1	-1E+10	1	-1E+10	1
4902551	40	C	09/16/2021	15:59	-134.730	49.584	0	57.90	0	7.6800	0	32.4050	0	25.283	0	57.398	0	278.9	4	94.7	4	-1E+10	1	-1E+10	1	-1E+10	1	-1E+10	1	-1E+10	1	-1E+10	1
4902551	40	C	09/16/2021	15:59	-134.730	49.584	0	59.20	0	7.6340	0	32.4080	0	25.292	0	58.686	0	278.4	4	94.4	4	-1E+10	1	-1E+10	1	-1E+10	1	-1E+10	1	-1E+10	1	-1E+10	1
4902551	40	C	09/16/2021	15:59	-134.730	49.584	0	60.10	0	7.6190	0	32.4070	0	25.293	0	59.578	0	278.1	4	94.3	4	-1E+10	1	-1E+10	1	-1E+10	1	-1E+10	1	-1E+10	1	-1E+10	1
4902551	40	C	09/16/2021	15:59	-134.730	49.584	0	61.00	0	7.6050	0	32.4080	0	25.296	0	60.470	0	277.6	4	94.1	4	-1E+10	1	-1E+10	1	-1E+10	1	-1E+10	1	-1E+10	1	-1E+10	1
4902551	40	C	09/16/2021	15:59	-134.730	49.584	0	61.90	0	7.5890	0	32.4070	0	25.297	0	61.362	0	277.1	4	93.9	4	-1E+10	1	-1E+10	1	-1E+10	1	-1E+10	1	-1E+10	1	-1E+10	1
4902551	40	C	09/16/2021	15:59	-134.730	49.584	0	63.00	0	7.5720	0	32.4080	0	25.301	0	62.453	0	276.3	4	93.6	4	-1E+10	1	-1E+10	1	-1E+10	1	-1E+10	1	-1E+10	1	-1E+10	1
4902551	40	C	09/16/2021	15:59	-134.730	49.584	0	64.00	0	7.5130	0	32.4120	0	25.312	0	63.444	0	275.7	4	93.3	4	-1E+10	1	-1E+10	1	-1E+10	1	-1E+10	1	-1E+10	1	-1E+10	1
4902551	40	C	09/16/2021	15:59	-134.730	49.584	0	65.00	0	7.4050	0	32.4120	0	25.327	0	64.435	0	275.0	4	92.8	4	-1E+10	1	-1E+10	1	-1E+10	1	-1E+10	1	-1E+10	1	-1E+10	1
4902551	40	C	09/16/2021	15:59	-134.730	49.584	0	66.10	0	7.3100	0	32.4130	0	25.341	0	65.525	0	274.5	4	92.4	4	-1E+10	1	-1E+10	1	-1E+10	1	-1E+10	1	-1E+10	1	-1E+10	1
4902551	40	C	09/16/2021	15:59	-134.730	49.584	0	67.00	0	7.2160	0	32.4200	0	25.359	0	66.417	0	274.5	4	92.2	4	-1E+10	1	-1E+10	1	-1E+10	1	-1E+10	1	-1E+10	1	-1E+10	1
4902551	40	C	09/16/2021	15:59	-134.730	49.584	0	67.70	0	7.1700	0	32.4210	0	25.366	0	67.111	0	274.5	4	92.1	4	-1E+10	1	-1E+10	1	-1E+10	1	-1E+10	1	-1E+10	1	-1E+10	1
4902551	40	C	09/16/2021	15:59	-134.730	49.584	0	68.90	0	7.1110	0	32.4240	0	25.376	0	68.301	0	274.5	4	92.0	4	-1E+10	1	-1E+10	1	-1E+10	1	-1E+10	1	-1E+10	1	-1E+10	1
4902551	40	C	09/16/2021	15:59	-134.730	49.584	0	70.00	0	7.0760	0	32.4270	0	25.383	0	69.391	0	274.4	4	91.9	4	-1E+10	1	-1E+10	1	-1E+10	1	-1E+10	1	-1E+10	1	-1E+10	1
4902551	40	C	09/16/2021	15:59	-134.730	49.584	0	71.10	0	7.0480	0	32.4280	0	25.388	0	70.481	0	274.2	4	91.8	4	-1E+10	1	-1E+10	1	-1E+10	1	-1E+10	1	-1E+10	1	-1E+10	1
4902551	40	C	09/16/2021	15:59	-134.730	49.584	0	72.00	0	7.0390	0	32.4290	0	25.390	0	71.373	0	274.1	4	91.7	4	-1E+10	1	-1E+10	1	-1E+10	1	-1E+10	1	-1E+10	1	-1E+10	1
4902551	40	C	09/16/2021	15:59	-134.730	49.584	0	72.80	0	7.0360	0	32.4280	0	25.389	0	72.166	0	273.9	4	91.7	4	-1E+10	1	-1E+10	1	-1E+10	1	-1E+10	1	-1E+10	1	-1E+10	1
4902551	40	C	09/16/2021	15:59	-134.730	49.584	0	73.80	0	7.0260	0	32.4290	0	25.392	0	73.157	0	273.7	4	91.6	4	-1E+10	1	-1E+10	1	-1E+10	1	-1E+10	1	-1E+10	1	-1E+10	1
4902551	40	C	09/16/2021	15:59	-134.730	49.584	0	74.90	0	7.0170	0	32.4280	0	25.392	0	74.247	0	273.4	4	91.5	4	-1E+10	1	-1E+10	1	-1E+10	1	-1E+10	1	-1E+10	1	-1E+10	1
4902551	40	C	09/16/2021	15:59	-134.730	49.584	0	75.90	0	6.9860	0	32.4300	0	25.398	0	75.238	0	273.3	4	91.4	4	-1E+10	1	-1E+10	1	-1E+10	1	-1E+10	1	-1E+10	1	-1E+10	1
4902551	40	C	09/16/2021	15:59	-134.730	49.584	0	76.90	0	6.9420	0	32.4310	0	25.404	0	76.229	0	273.2	4	91.2	4	-1E+10	1	-1E+10	1	-1E+10	1	-1E+10	1	-1E+10	1	-1E+10	1
4902551	40	C	09/16/2021	15:59	-134.730	49.584	0	77.90	0	6.8970	0	32.4330	0	25.412	0	77.221	0	273.3	4	91.2	4	-1E+10	1	-1E+10	1	-1E+10	1	-1E+10	1	-1E+10	1	-1E+10	1
4902551	40	C	09/16/2021	15:59	-134.730	49.584	0	79.00	0	6.8390	0	32.4350	0	25.421	0	78.311	0	273.5	4	91.1	4	-1E+10	1	-1E+10	1	-1E+10	1	-1E+10	1	-1E+10	1	-1E+10	1
4902551	40	C	09/16/2021	15:59	-134.730	49.584	0	80.10	0	6.7630	0	32.4410	0	25.436	0	79.401	0	273.6	4	91.0	4	-1E+10	1	-1E+10	1	-1E+10	1	-1E+10	1	-1E+10	1	-1E+10	1
4902551	40	C	09/16/2021	15:59	-134.730	49.584	0	80.90	0	6.7420	0	32.4430	0	25.440	0	80.194	0	273.7	4	91.0	4	-1E+10	1	-1E+10	1	-1E+10	1	-1E+10	1	-1E+10	1	-1E+10	1
4902551	40	C	09/16/2021	15:59	-134.730	49.584	0	81.70	0	6.6840	0	32.4430	0	25.448	0	80.987	0	273.8	4	90.9	4	-1E+10	1	-1E+10	1	-1E+10	1	-1E+10	1	-1E+10	1	-1E+10	1
4902551	40	C	09/16/2021	15:59	-134.730	49.584	0	82.80	0	6.6290	0	32.4460	0	25.457	0	82.077	0	273.8	4	90.8	4	-1E+10	1	-1E+10	1	-1E+10	1	-1E+10	1	-1E+10	1	-1E+10	1
4902551	40	C	09/16/2021	15:59	-134.730	49.584	0	84.00	0	6.6190	0	32.4460	0	25.458	0	83.266	0	273.8	4	90.8	4	-1E+10	1	-1E+10	1	-1E+10	1	-1E+10	1	-1E+10	1	-1E+10	1
4902551	40	C	09/16/2021	15:59	-134.730	49.584	0	85.00	0	6.6190	0	32.4460	0	25.458	0	84.257	0	273.7	4	90.7	4	-1E+10	1	-1E+10	1	-1E+10	1	-1E+10	1	-1E+10	1	-1E+10	1
4902551	40	C	09/16/2021	15:59	-134.730	49.584	0	86.10	0	6.6170	0	32.4440	0	25.457	0	85.347	0	273.7	4	90.7	4	-1E+10	1	-1E+10	1	-1E+10	1	-1E+10	1	-1E+10	1	-1E+10	1
4902551	40	C	09/16/2021	15:59	-134.730	49.584	0	87.00	0	6.5530	0	32.4570	0	25.476	0	86.239	0	273.7	4	90.6	4	-1E+10	1	-1E+10	1	-1E+10	1	-1E+10	1	-1E+10	1	-1E+10	1
4902551	40	C	09/16/2021	15:59	-134.730	49.584	0	87.80	0	6.5020	0	32.4530	0	25.479	0	87.032	0	274.0	4	90.6	4	-1E+10	1	-1E+10	1	-1E+10	1	-1E+10	1	-1E+10	1	-1E+10	1
4902551	40	C	09/16/2021	15:59	-134.730	49.584	0	88.90	0	6.4710	0	32.4540	0	25.484	0	88.122	0	274.1	4	90.6	4	-1E+10	1	-1E+10	1	-1E+10	1	-1E+10	1	-1E+10	1	-1E+10	1
4902551	40	C	09/16/2021	15:59	-134.730	49.584	0	90.00	0	6.4410	0	32.4570	0	25.490	0	89.212	0	274.0	4	90.5	4	-1E+10	1	-1E+10	1	-1E+10	1	-1E+10	1	-1E+10	1	-1E+10	1
4902551	40	C	09/16/2021	15:59	-134.730	49.584	0	91.10	0	6.4200	0	32.4590	0	25.494	0	90.303	0	274.0	4	90.4	4	-1E+10	1	-1E+10	1	-1E+10	1	-1E+10	1	-1E+10	1	-1E+10	1
4902551	40	C	09/16/2021	15:59	-134.730	49.584	0	92.00	0	6.4140	0	32.4590	0	25.495	0	91.194	0	273.8	4	90.3	4	-1E+10	1	-1E+10	1	-1E+10	1	-1E+10	1	-1E+10	1	-1E+10	1
4902551	40	C	09/16/2021	15:59	-134.730	49.584	0	92.80	0	6.4120	0	32.4590	0	25.495	0	91.987	0	273.7	4	90.3	4	-1E+10	1	-1E+10	1	-1E+10	1	-1E+10	1	-1E+10	1	-1E+10	1
4902551	40	C	09/16/2021	15:59	-134.730	49.584	0	93.90	0	6.3980	0	32.4610	0	25.499	0	93.077	0	273.5	4	90.2	4	-1E+10	1	-1E+10	1	-1E+10	1	-1E+10	1	-1E+10	1	-1E+10	1
4902551	40	C	09/16/2021	15:59	-134.730	49.584	0	95.00	0	6.3920	0	32.4610	0	25.499	0	94.167	0	273.2	4	90.1	4	-1E+10	1	-1E+10	1	-1E+10	1	-1E+10	1	-1E+10	1	-1E+10	1
4902551	40	C	09/16/2021	15:59	-134.730	49.584	0	96.10	0	6.3750	0	32.4620	0	25.502	0	95.258	0	272.9	4	90.0	4	-1E+10	1	-1E+10	1	-1E+10	1	-1E+10	1	-1E+10	1	-1E+10	1
4902551	40	C	09/16/2021	15:59	-134.730	49.584	0	96.90	0	6.3430	0	32.4650	0	25.509	0	96.050	0	272.7	4	89.8	4	-1E+10	1	-1E+10	1	-1E+10	1	-1E+10	1	-1E+10	1	-1E+10	1
4902551	40	C	09/16/2021	15:59	-134.730	49.584	0	97.80	0	6.3220	0	32.4670	0	25.513	0	96.942	0	272.3	4	89.7	4	-1E+10	1	-1E+10	1	-1E+10	1	-1E+10	1	-1E+10	1	-1E+10	1
4902551	40	C	09/16/2021	15:59	-134.730	49.584	0	99.00	0	6.2800	0	32.4720	0	25.522	0	98.131	0	272.0	4	89.5	4	-1E+10	1	-1E+10	1	-1E+10	1	-1E+10	1	-1E+10	1	-1E+10	1
4902551	40	C	09/16/2021	15:59	-134.730	49.584	0	100.10	0	6.2530	0	32.4740	0	25.527	0	99.222	0	271.7	4	89.3	4	-1E+10	1	-1E+10	1	-1E+10	1	-1E+10	1	-1E+10	1	-1E+10	1
4902551	40	C	09/16/2021	15:59	-134.730	49.584	0	101.00	0	6.2400	0	32.4750	0	25.529	0	100.113	0	271.4	4	89.2	4	-1E+10	1	-1E+10	1	-1E+10	1	-1E+10	1	-1E+10	1	-1E+10	1
4902551	40	C	09/16/2021	15:59	-134.730	49.584	0	101.90	0	6.2300	0	32.4770	0	25.532	0	101.005	0	271.0	4	89.1	4	-1E+10	1	-1E+10	1	-1E+10	1	-1E+10	1	-1E+10	1	-1E+10	1
4902551	40	C	09/16/2021	15:59	-134.730	49.584	0	103.00	0	6.2160	0	32.4790	0	25.536	0	102.095	0	270.4	4	88.8	4	-1E+10	1	-1E+10	1	-1E+10	1	-1E+10	1	-1E+10	1	-1E+10	1
4902551	40	C	09/16/2021	15:59	-134.730	49.584	0	104.10	0	6.2000	0	32.4820	0	25.540	0	103.185	0	269.7	4	88.6	4	-1E+10	1	-1E+10	1	-1E+10	1	-1E+10	1	-1E+10	1	-1E+10	1
4902551	40	C	09/16/2021	15:59	-134.730	49.584	0	105.30	0	6.1810	0	32.4860	0	25.545	0	104.375	0	269.0	4	88.3	4	-1E+10	1	-1E+10	1	-1E+10	1	-1E+10	1	-1E+10	1	-1E+10	1
4902551	40	C	09/16/2021	15:59	-134.730	49.584	0	106.00	0	6.1550	0	32.4860	0	25.549	0	105.068	0	268.4	4	88.1	4	-1E+10	1	-1E+10	1	-1E+10	1	-1E+10	1	-1E+10	1	-1E+10	1
4902551	40	C	09/16/2021	15:59	-134.730	49.584	0	106.90	0	6.1200	0	32.4940	0	25.559	0	105.960	0	267.3	4	87.6	4	-1E+10	1	-1E+10	1	-1E+10	1	-1E+10	1	-1E+10	1	-1E+10	1
4902551	40	C	09/16/2021	15:59	-134.730	49.584	0	108.10	0	6.0970	0	32.5000	0	25.567	0	107.149	0	265.5	4	87.0	4	-1E+10	1	-1E+10	1	-1E+10	1	-1E+10	1	-1E+10	1	-1E+10	1
4902551	40	C	09/16/2021	15:59	-134.730	49.584	0	109.00	0	6.0860	0	32.5040	0	25.571	0	108.041	0	264.1	4	86.5	4	-1E+10	1	-1E+10	1	-1E+10	1	-1E+10	1	-1E+10	1	-1E+10	1
4902551	40	C	09/16/2021	15:59	-134.730	49.584	0	109.90	0	6.0760	0	32.5070	0	25.575	0	108.933	0	262.2	4	85.9	4	-1E+10	1	-1E+10	1	-1E+10	1	-1E+10	1	-1E+10	1	-1E+10	1
4902551	40	C	09/16/2021	15:59	-134.730	49.584	0	110.80	0	6.0700	0	32.5090	0	25.577	0	109.825	0	259.3	4	84.9	4	-1E+10	1	-1E+10	1	-1E+10	1	-1E+10	1	-1E+10	1	-1E+10	1
4902551	40	C	09/16/2021	15:59	-134.730	49.584	0	111.80	0	6.0640	0	32.5120	0	25.580	0	110.816	0	255.1	4	83.5	4	-1E+10	1	-1E+10	1	-1E+10	1	-1E+10	1	-1E+10	1	-1E+10	1
4902551	40	C	09/16/2021	15:59	-134.730	49.584	0	113.00	0	6.0540	0	32.5190	0	25.587	0	112.005	0	251.1	4	82.2	4	-1E+10	1	-1E+10	1	-1E+10	1	-1E+10	1	-1E+10	1	-1E+10	1
4902551	40	C	09/16/2021	15:59	-134.730	49.584	0	114.30	0	6.0390	0	32.5320	0	25.599	0	113.293	0	247.0	4	80.9	4	-1E+10	1	-1E+10	1	-1E+10	1	-1E+10	1	-1E+10	1	-1E+10	1
4902551	40	C	09/16/2021	15:59	-134.730	49.584	0	115.00	0	6.0320	0	32.5360	0	25.603	0	113.987	0	244.2	4	79.9	4	-1E+10	1	-1E+10	1	-1E+10	1	-1E+10	1	-1E+10	1	-1E+10	1
4902551	40	C	09/16/2021	15:59	-134.730	49.584	0	116.00	0	6.0980	0	32.5740	0	25.625	0	114.978	0	240.9	4	79.0	4	-1E+10	1	-1E+10	1	-1E+10	1	-1E+10	1	-1E+10	1	-1E+10	1
4902551	40	C	09/16/2021	15:59	-134.730	49.584	0	117.10	0	6.1640	0	32.6000	0	25.638	0	116.068	0	237.4	4	78.0	4	-1E+10	1	-1E+10	1	-1E+10	1	-1E+10	1	-1E+10	1	-1E+10	1
4902551	40	C	09/16/2021	15:59	-134.730	49.584	0	118.00	0	6.2170	0	32.6200	0	25.647	0	116.959	0	234.8	4	77.2	4	-1E+10	1	-1E+10	1	-1E+10	1	-1E+10	1	-1E+10	1	-1E+10	1
4902551	40	C	09/16/2021	15:59	-134.730	49.584	0	118.90	0	6.2710	0	32.6640	0	25.675	0	117.851	0	232.6	4	76.6	4	-1E+10	1	-1E+10	1	-1E+10	1	-1E+10	1	-1E+10	1	-1E+10	1
4902551	40	C	09/16/2021	15:59	-134.730	49.584	0	120.10	0	6.3080	0	32.6850	0	25.687	0	119.040	0	229.7	4	75.8	4	-1E+10	1	-1E+10	1	-1E+10	1	-1E+10	1	-1E+10	1	-1E+10	1
4902551	40	C	09/16/2021	15:59	-134.730	49.584	0	120.90	0	6.3210	0	32.6940	0	25.692	0	119.833	0	227.4	4	75.0	4	-1E+10	1	-1E+10	1	-1E+10	1	-1E+10	1	-1E+10	1	-1E+10	1
4902551	40	C	09/16/2021	15:59	-134.730	49.584	0	121.80	0	6.3380	0	32.7040	0	25.698	0	120.725	0	224.2	4	74.0	4	-1E+10	1	-1E+10	1	-1E+10	1	-1E+10	1	-1E+10	1	-1E+10	1
4902551	40	C	09/16/2021	15:59	-134.730	49.584	0	123.00	0	6.3670	0	32.7390	0	25.722	0	121.914	0	220.5	4	72.8	4	-1E+10	1	-1E+10	1	-1E+10	1	-1E+10	1	-1E+10	1	-1E+10	1
4902551	40	C	09/16/2021	15:59	-134.730	49.584	0	123.90	0	6.3690	0	32.7420	0	25.724	0	122.806	0	216.7	4	71.6	4	-1E+10	1	-1E+10	1	-1E+10	1	-1E+10	1	-1E+10	1	-1E+10	1
4902551	40	C	09/16/2021	15:59	-134.730	49.584	0	124.90	0	6.3420	0	32.8060	0	25.778	0	123.796	0	211.9	4	70.0	4	-1E+10	1	-1E+10	1	-1E+10	1	-1E+10	1	-1E+10	1	-1E+10	1
4902551	40	C	09/16/2021	15:59	-134.730	49.584	0	126.00	0	6.2940	0	32.8630	0	25.829	0	124.886	0	207.7	4	68.6	4	-1E+10	1	-1E+10	1	-1E+10	1	-1E+10	1	-1E+10	1	-1E+10	1
4902551	40	C	09/16/2021	15:59	-134.730	49.584	0	126.80	0	6.2830	0	32.8940	0	25.855	0	125.679	0	206.2	4	68.1	4	-1E+10	1	-1E+10	1	-1E+10	1	-1E+10	1	-1E+10	1	-1E+10	1
4902551	40	C	09/16/2021	15:59	-134.730	49.584	0	127.90	0	6.2810	0	32.9120	0	25.869	0	126.769	0	203.6	4	67.2	4	-1E+10	1	-1E+10	1	-1E+10	1	-1E+10	1	-1E+10	1	-1E+10	1
4902551	40	C	09/16/2021	15:59	-134.730	49.584	0	129.00	0	6.2610	0	32.9310	0	25.887	0	127.859	0	201.0	4	66.3	4	-1E+10	1	-1E+10	1	-1E+10	1	-1E+10	1	-1E+10	1	-1E+10	1
4902551	40	C	09/16/2021	15:59	-134.730	49.584	0	130.00	0	6.2540	0	32.9540	0	25.906	0	128.850	0	198.2	4	65.4	4	-1E+10	1	-1E+10	1	-1E+10	1	-1E+10	1	-1E+10	1	-1E+10	1
4902551	40	C	09/16/2021	15:59	-134.730	49.584	0	131.00	0	6.2690	0	32.9950	0	25.937	0	129.841	0	195.1	4	64.4	4	-1E+10	1	-1E+10	1	-1E+10	1	-1E+10	1	-1E+10	1	-1E+10	1
4902551	40	C	09/16/2021	15:59	-134.730	49.584	0	131.80	0	6.2410	0	33.0190	0	25.959	0	130.633	0	192.9	4	63.7	4	-1E+10	1	-1E+10	1	-1E+10	1	-1E+10	1	-1E+10	1	-1E+10	1
4902551	40	C	09/16/2021	15:59	-134.730	49.584	0	132.80	0	6.2270	0	33.0390	0	25.977	0	131.624	0	189.5	4	62.5	4	-1E+10	1	-1E+10	1	-1E+10	1	-1E+10	1	-1E+10	1	-1E+10	1
4902551	40	C	09/16/2021	15:59	-134.730	49.584	0	133.90	0	6.2450	0	33.0590	0	25.990	0	132.714	0	186.0	4	61.4	4	-1E+10	1	-1E+10	1	-1E+10	1	-1E+10	1	-1E+10	1	-1E+10	1
4902551	40	C	09/16/2021	15:59	-134.730	49.584	0	134.80	0	6.1930	0	33.0730	0	26.008	0	133.606	0	182.0	4	60.0	4	-1E+10	1	-1E+10	1	-1E+10	1	-1E+10	1	-1E+10	1	-1E+10	1
4902551	40	C	09/16/2021	15:59	-134.730	49.584	0	135.90	0	6.2640	0	33.1180	0	26.034	0	134.696	0	177.3	4	58.6	4	-1E+10	1	-1E+10	1	-1E+10	1	-1E+10	1	-1E+10	1	-1E+10	1
4902551	40	C	09/16/2021	15:59	-134.730	49.584	0	137.00	0	6.1160	0	33.1750	0	26.098	0	135.786	0	173.5	4	57.2	4	-1E+10	1	-1E+10	1	-1E+10	1	-1E+10	1	-1E+10	1	-1E+10	1
4902551	40	C	09/16/2021	15:59	-134.730	49.584	0	138.20	0	6.0820	0	33.1920	0	26.116	0	136.975	0	169.8	4	55.9	4	-1E+10	1	-1E+10	1	-1E+10	1	-1E+10	1	-1E+10	1	-1E+10	1
4902551	40	C	09/16/2021	15:59	-134.730	49.584	0	139.00	0	6.0710	0	33.2240	0	26.142	0	137.767	0	167.6	4	55.2	4	-1E+10	1	-1E+10	1	-1E+10	1	-1E+10	1	-1E+10	1	-1E+10	1
4902551	40	C	09/16/2021	15:59	-134.730	49.584	0	139.80	0	6.0670	0	33.2340	0	26.151	0	138.560	0	165.4	4	54.4	4	-1E+10	1	-1E+10	1	-1E+10	1	-1E+10	1	-1E+10	1	-1E+10	1
4902551	40	C	09/16/2021	15:59	-134.730	49.584	0	140.90	0	6.0570	0	33.2680	0	26.179	0	139.650	0	162.2	4	53.4	4	-1E+10	1	-1E+10	1	-1E+10	1	-1E+10	1	-1E+10	1	-1E+10	1
4902551	40	C	09/16/2021	15:59	-134.730	49.584	0	142.20	0	6.0410	0	33.3450	0	26.242	0	140.938	0	159.8	4	52.6	4	-1E+10	1	-1E+10	1	-1E+10	1	-1E+10	1	-1E+10	1	-1E+10	1
4902551	40	C	09/16/2021	15:59	-134.730	49.584	0	143.00	0	6.0410	0	33.3560	0	26.250	0	141.730	0	158.2	4	52.1	4	-1E+10	1	-1E+10	1	-1E+10	1	-1E+10	1	-1E+10	1	-1E+10	1
4902551	40	C	09/16/2021	15:59	-134.730	49.584	0	143.80	0	6.0400	0	33.3660	0	26.258	0	142.523	0	156.6	4	51.6	4	-1E+10	1	-1E+10	1	-1E+10	1	-1E+10	1	-1E+10	1	-1E+10	1
4902551	40	C	09/16/2021	15:59	-134.730	49.584	0	144.60	0	6.0660	0	33.3760	0	26.263	0	143.316	0	154.9	4	51.1	4	-1E+10	1	-1E+10	1	-1E+10	1	-1E+10	1	-1E+10	1	-1E+10	1
4902551	40	C	09/16/2021	15:59	-134.730	49.584	0	145.90	0	6.0580	0	33.4120	0	26.292	0	144.604	0	152.2	4	50.2	4	-1E+10	1	-1E+10	1	-1E+10	1	-1E+10	1	-1E+10	1	-1E+10	1
4902551	40	C	09/16/2021	15:59	-134.730	49.584	0	147.10	0	6.0520	0	33.4500	0	26.323	0	145.793	0	150.3	4	49.5	4	-1E+10	1	-1E+10	1	-1E+10	1	-1E+10	1	-1E+10	1	-1E+10	1
4902551	40	C	09/16/2021	15:59	-134.730	49.584	0	148.00	0	6.0490	0	33.4610	0	26.332	0	146.684	0	148.9	4	49.1	4	-1E+10	1	-1E+10	1	-1E+10	1	-1E+10	1	-1E+10	1	-1E+10	1
4902551	40	C	09/16/2021	15:59	-134.730	49.584	0	148.80	0	6.0600	0	33.4790	0	26.345	0	147.477	0	147.6	4	48.7	4	-1E+10	1	-1E+10	1	-1E+10	1	-1E+10	1	-1E+10	1	-1E+10	1
4902551	40	C	09/16/2021	15:59	-134.730	49.584	0	149.70	0	6.0620	0	33.4840	0	26.349	0	148.368	0	146.3	4	48.3	4	-1E+10	1	-1E+10	1	-1E+10	1	-1E+10	1	-1E+10	1	-1E+10	1
4902551	40	C	09/16/2021	15:59	-134.730	49.584	0	150.90	0	6.0620	0	33.5050	0	26.365	0	149.557	0	144.3	4	47.6	4	-1E+10	1	-1E+10	1	-1E+10	1	-1E+10	1	-1E+10	1	-1E+10	1
4902551	40	C	09/16/2021	15:59	-134.730	49.584	0	152.30	0	6.0530	0	33.5290	0	26.385	0	150.944	0	142.5	4	47.0	4	-1E+10	1	-1E+10	1	-1E+10	1	-1E+10	1	-1E+10	1	-1E+10	1
4902551	40	C	09/16/2021	15:59	-134.730	49.584	0	153.20	0	6.0500	0	33.5400	0	26.395	0	151.836	0	141.4	4	46.6	4	-1E+10	1	-1E+10	1	-1E+10	1	-1E+10	1	-1E+10	1	-1E+10	1
4902551	40	C	09/16/2021	15:59	-134.730	49.584	0	154.10	0	6.0470	0	33.5530	0	26.405	0	152.728	0	140.2	4	46.3	4	-1E+10	1	-1E+10	1	-1E+10	1	-1E+10	1	-1E+10	1	-1E+10	1
4902551	40	C	09/16/2021	15:59	-134.730	49.584	0	154.80	0	6.0490	0	33.5630	0	26.413	0	153.421	0	139.1	4	45.9	4	-1E+10	1	-1E+10	1	-1E+10	1	-1E+10	1	-1E+10	1	-1E+10	1
4902551	40	C	09/16/2021	15:59	-134.730	49.584	0	156.10	0	6.0590	0	33.5840	0	26.428	0	154.709	0	137.1	4	45.3	4	-1E+10	1	-1E+10	1	-1E+10	1	-1E+10	1	-1E+10	1	-1E+10	1
4902551	40	C	09/16/2021	15:59	-134.730	49.584	0	157.00	0	6.0500	0	33.5870	0	26.432	0	155.601	0	135.4	4	44.7	4	-1E+10	1	-1E+10	1	-1E+10	1	-1E+10	1	-1E+10	1	-1E+10	1
4902551	40	C	09/16/2021	15:59	-134.730	49.584	0	157.90	0	6.0280	0	33.6110	0	26.453	0	156.492	0	133.7	4	44.1	4	-1E+10	1	-1E+10	1	-1E+10	1	-1E+10	1	-1E+10	1	-1E+10	1
4902551	40	C	09/16/2021	15:59	-134.730	49.584	0	158.90	0	6.0120	0	33.6330	0	26.473	0	157.483	0	132.2	4	43.6	4	-1E+10	1	-1E+10	1	-1E+10	1	-1E+10	1	-1E+10	1	-1E+10	1
4902551	40	C	09/16/2021	15:59	-134.730	49.584	0	159.90	0	6.0040	0	33.6470	0	26.485	0	158.474	0	130.8	4	43.1	4	-1E+10	1	-1E+10	1	-1E+10	1	-1E+10	1	-1E+10	1	-1E+10	1
4902551	40	C	09/16/2021	15:59	-134.730	49.584	0	161.00	0	5.9900	0	33.6760	0	26.510	0	159.564	0	129.5	4	42.7	4	-1E+10	1	-1E+10	1	-1E+10	1	-1E+10	1	-1E+10	1	-1E+10	1
4902551	40	C	09/16/2021	15:59	-134.730	49.584	0	162.00	0	5.9660	0	33.6890	0	26.523	0	160.554	0	128.7	4	42.4	4	-1E+10	1	-1E+10	1	-1E+10	1	-1E+10	1	-1E+10	1	-1E+10	1
4902551	40	C	09/16/2021	15:59	-134.730	49.584	0	163.20	0	5.9460	0	33.6970	0	26.532	0	161.743	0	127.8	4	42.1	4	-1E+10	1	-1E+10	1	-1E+10	1	-1E+10	1	-1E+10	1	-1E+10	1
4902551	40	C	09/16/2021	15:59	-134.730	49.584	0	164.00	0	5.9390	0	33.7090	0	26.542	0	162.536	0	127.5	4	42.0	4	-1E+10	1	-1E+10	1	-1E+10	1	-1E+10	1	-1E+10	1	-1E+10	1
4902551	40	C	09/16/2021	15:59	-134.730	49.584	0	164.80	0	5.9330	0	33.7180	0	26.550	0	163.328	0	127.2	4	41.9	4	-1E+10	1	-1E+10	1	-1E+10	1	-1E+10	1	-1E+10	1	-1E+10	1
4902551	40	C	09/16/2021	15:59	-134.730	49.584	0	166.00	0	5.9290	0	33.7180	0	26.550	0	164.517	0	126.7	4	41.7	4	-1E+10	1	-1E+10	1	-1E+10	1	-1E+10	1	-1E+10	1	-1E+10	1
4902551	40	C	09/16/2021	15:59	-134.730	49.584	0	167.20	0	5.9290	0	33.7190	0	26.551	0	165.706	0	126.1	4	41.5	4	-1E+10	1	-1E+10	1	-1E+10	1	-1E+10	1	-1E+10	1	-1E+10	1
4902551	40	C	09/16/2021	15:59	-134.730	49.584	0	168.00	0	5.9290	0	33.7190	0	26.551	0	166.498	0	125.6	4	41.4	4	-1E+10	1	-1E+10	1	-1E+10	1	-1E+10	1	-1E+10	1	-1E+10	1
4902551	40	C	09/16/2021	15:59	-134.730	49.584	0	168.80	0	5.9240	0	33.7190	0	26.552	0	167.291	0	125.1	4	41.2	4	-1E+10	1	-1E+10	1	-1E+10	1	-1E+10	1	-1E+10	1	-1E+10	1
4902551	40	C	09/16/2021	15:59	-134.730	49.584	0	170.00	0	5.9220	0	33.7190	0	26.552	0	168.480	0	124.3	4	40.9	4	-1E+10	1	-1E+10	1	-1E+10	1	-1E+10	1	-1E+10	1	-1E+10	1
4902551	40	C	09/16/2021	15:59	-134.730	49.584	0	171.20	0	5.9200	0	33.7200	0	26.553	0	169.668	0	123.3	4	40.6	4	-1E+10	1	-1E+10	1	-1E+10	1	-1E+10	1	-1E+10	1	-1E+10	1
4902551	40	C	09/16/2021	15:59	-134.730	49.584	0	172.00	0	5.9150	0	33.7220	0	26.555	0	170.461	0	122.7	4	40.4	4	-1E+10	1	-1E+10	1	-1E+10	1	-1E+10	1	-1E+10	1	-1E+10	1
4902551	40	C	09/16/2021	15:59	-134.730	49.584	0	172.80	0	5.9060	0	33.7270	0	26.560	0	171.253	0	122.0	4	40.2	4	-1E+10	1	-1E+10	1	-1E+10	1	-1E+10	1	-1E+10	1	-1E+10	1
4902551	40	C	09/16/2021	15:59	-134.730	49.584	0	174.00	0	5.8850	0	33.7270	0	26.563	0	172.442	0	121.1	4	39.9	4	-1E+10	1	-1E+10	1	-1E+10	1	-1E+10	1	-1E+10	1	-1E+10	1
4902551	40	C	09/16/2021	15:59	-134.730	49.584	0	175.30	0	5.8730	0	33.7350	0	26.571	0	173.730	0	120.3	4	39.6	4	-1E+10	1	-1E+10	1	-1E+10	1	-1E+10	1	-1E+10	1	-1E+10	1
4902551	40	C	09/16/2021	15:59	-134.730	49.584	0	176.20	0	5.8630	0	33.7450	0	26.580	0	174.622	0	119.7	4	39.4	4	-1E+10	1	-1E+10	1	-1E+10	1	-1E+10	1	-1E+10	1	-1E+10	1
4902551	40	C	09/16/2021	15:59	-134.730	49.584	0	177.10	0	5.8590	0	33.7460	0	26.581	0	175.513	0	119.2	4	39.2	4	-1E+10	1	-1E+10	1	-1E+10	1	-1E+10	1	-1E+10	1	-1E+10	1
4902551	40	C	09/16/2021	15:59	-134.730	49.584	0	178.00	0	5.8400	0	33.7490	0	26.586	0	176.405	0	118.7	4	39.0	4	-1E+10	1	-1E+10	1	-1E+10	1	-1E+10	1	-1E+10	1	-1E+10	1
4902551	40	C	09/16/2021	15:59	-134.730	49.584	0	178.90	0	5.8210	0	33.7560	0	26.594	0	177.296	0	118.1	4	38.8	4	-1E+10	1	-1E+10	1	-1E+10	1	-1E+10	1	-1E+10	1	-1E+10	1
4902551	40	C	09/16/2021	15:59	-134.730	49.584	0	179.90	0	5.8220	0	33.7570	0	26.595	0	178.287	0	117.6	4	38.6	4	-1E+10	1	-1E+10	1	-1E+10	1	-1E+10	1	-1E+10	1	-1E+10	1
4902551	40	C	09/16/2021	15:59	-134.730	49.584	0	180.80	0	5.8210	0	33.7570	0	26.595	0	179.178	0	117.0	4	38.4	4	-1E+10	1	-1E+10	1	-1E+10	1	-1E+10	1	-1E+10	1	-1E+10	1
4902551	40	C	09/16/2021	15:59	-134.730	49.584	0	181.80	0	5.8220	0	33.7580	0	26.595	0	180.169	0	116.3	4	38.2	4	-1E+10	1	-1E+10	1	-1E+10	1	-1E+10	1	-1E+10	1	-1E+10	1
4902551	40	C	09/16/2021	15:59	-134.730	49.584	0	182.80	0	5.8180	0	33.7630	0	26.600	0	181.160	0	115.6	4	38.0	4	-1E+10	1	-1E+10	1	-1E+10	1	-1E+10	1	-1E+10	1	-1E+10	1
4902551	40	C	09/16/2021	15:59	-134.730	49.584	0	183.70	0	5.8040	0	33.7670	0	26.605	0	182.051	0	115.1	4	37.8	4	-1E+10	1	-1E+10	1	-1E+10	1	-1E+10	1	-1E+10	1	-1E+10	1
4902551	40	C	09/16/2021	15:59	-134.730	49.584	0	184.70	0	5.7990	0	33.7690	0	26.607	0	183.042	0	114.4	4	37.6	4	-1E+10	1	-1E+10	1	-1E+10	1	-1E+10	1	-1E+10	1	-1E+10	1
4902551	40	C	09/16/2021	15:59	-134.730	49.584	0	185.70	0	5.7930	0	33.7690	0	26.608	0	184.032	0	113.8	4	37.4	4	-1E+10	1	-1E+10	1	-1E+10	1	-1E+10	1	-1E+10	1	-1E+10	1
4902551	40	C	09/16/2021	15:59	-134.730	49.584	0	186.70	0	5.7920	0	33.7710	0	26.609	0	185.023	0	113.1	4	37.2	4	-1E+10	1	-1E+10	1	-1E+10	1	-1E+10	1	-1E+10	1	-1E+10	1
4902551	40	C	09/16/2021	15:59	-134.730	49.584	0	187.70	0	5.7900	0	33.7720	0	26.610	0	186.013	0	112.4	4	36.9	4	-1E+10	1	-1E+10	1	-1E+10	1	-1E+10	1	-1E+10	1	-1E+10	1
4902551	40	C	09/16/2021	15:59	-134.730	49.584	0	188.60	0	5.7880	0	33.7720	0	26.611	0	186.905	0	111.6	4	36.6	4	-1E+10	1	-1E+10	1	-1E+10	1	-1E+10	1	-1E+10	1	-1E+10	1
4902551	40	C	09/16/2021	15:59	-134.730	49.584	0	189.60	0	5.7800	0	33.7760	0	26.615	0	187.895	0	110.8	4	36.4	4	-1E+10	1	-1E+10	1	-1E+10	1	-1E+10	1	-1E+10	1	-1E+10	1
4902551	40	C	09/16/2021	15:59	-134.730	49.584	0	190.60	0	5.7610	0	33.7830	0	26.623	0	188.886	0	110.1	4	36.2	4	-1E+10	1	-1E+10	1	-1E+10	1	-1E+10	1	-1E+10	1	-1E+10	1
4902551	40	C	09/16/2021	15:59	-134.730	49.584	0	191.60	0	5.7460	0	33.7860	0	26.627	0	189.877	0	109.5	4	35.9	4	-1E+10	1	-1E+10	1	-1E+10	1	-1E+10	1	-1E+10	1	-1E+10	1
4902551	40	C	09/16/2021	15:59	-134.730	49.584	0	192.60	0	5.7360	0	33.7890	0	26.630	0	190.867	0	108.8	4	35.7	4	-1E+10	1	-1E+10	1	-1E+10	1	-1E+10	1	-1E+10	1	-1E+10	1
4902551	40	C	09/16/2021	15:59	-134.730	49.584	0	193.60	0	5.7330	0	33.7910	0	26.632	0	191.858	0	108.2	4	35.5	4	-1E+10	1	-1E+10	1	-1E+10	1	-1E+10	1	-1E+10	1	-1E+10	1
4902551	40	C	09/16/2021	15:59	-134.730	49.584	0	194.60	0	5.7290	0	33.7930	0	26.635	0	192.848	0	107.5	4	35.3	4	-1E+10	1	-1E+10	1	-1E+10	1	-1E+10	1	-1E+10	1	-1E+10	1
4902551	40	C	09/16/2021	15:59	-134.730	49.584	0	195.60	0	5.7290	0	33.7940	0	26.635	0	193.839	0	106.8	4	35.0	4	-1E+10	1	-1E+10	1	-1E+10	1	-1E+10	1	-1E+10	1	-1E+10	1
4902551	40	C	09/16/2021	15:59	-134.730	49.584	0	196.60	0	5.7270	0	33.7980	0	26.639	0	194.829	0	106.2	4	34.8	4	-1E+10	1	-1E+10	1	-1E+10	1	-1E+10	1	-1E+10	1	-1E+10	1
4902551	40	C	09/16/2021	15:59	-134.730	49.584	0	197.60	0	5.7280	0	33.8000	0	26.640	0	195.820	0	105.5	4	34.6	4	-1E+10	1	-1E+10	1	-1E+10	1	-1E+10	1	-1E+10	1	-1E+10	1
4902551	40	C	09/16/2021	15:59	-134.730	49.584	0	198.60	0	5.7270	0	33.8020	0	26.642	0	196.810	0	104.9	4	34.4	4	-1E+10	1	-1E+10	1	-1E+10	1	-1E+10	1	-1E+10	1	-1E+10	1
4902551	40	C	09/16/2021	15:59	-134.730	49.584	0	199.70	0	5.7160	0	33.8020	0	26.643	0	197.900	0	104.3	4	34.2	4	-1E+10	1	-1E+10	1	-1E+10	1	-1E+10	1	-1E+10	1	-1E+10	1
4902551	40	C	09/16/2021	15:59	-134.730	49.584	0	200.70	0	5.7080	0	33.8020	0	26.644	0	198.890	0	103.5	4	33.9	4	-1E+10	1	-1E+10	1	-1E+10	1	-1E+10	1	-1E+10	1	-1E+10	1
4902551	40	C	09/16/2021	15:59	-134.730	49.584	0	201.70	0	5.6970	0	33.8030	0	26.646	0	199.881	0	102.8	4	33.7	4	-1E+10	1	-1E+10	1	-1E+10	1	-1E+10	1	-1E+10	1	-1E+10	1
4902551	40	C	09/16/2021	15:59	-134.730	49.584	0	202.70	0	5.6850	0	33.8040	0	26.649	0	200.871	0	102.0	4	33.4	4	-1E+10	1	-1E+10	1	-1E+10	1	-1E+10	1	-1E+10	1	-1E+10	1
4902551	40	C	09/16/2021	15:59	-134.730	49.584	0	203.80	0	5.6800	0	33.8070	0	26.652	0	201.961	0	101.2	4	33.1	4	-1E+10	1	-1E+10	1	-1E+10	1	-1E+10	1	-1E+10	1	-1E+10	1
4902551	40	C	09/16/2021	15:59	-134.730	49.584	0	204.80	0	5.6380	0	33.8160	0	26.664	0	202.951	0	100.6	4	32.9	4	-1E+10	1	-1E+10	1	-1E+10	1	-1E+10	1	-1E+10	1	-1E+10	1
4902551	40	C	09/16/2021	15:59	-134.730	49.584	0	205.90	0	5.5970	0	33.8110	0	26.665	0	204.041	0	99.9	4	32.7	4	-1E+10	1	-1E+10	1	-1E+10	1	-1E+10	1	-1E+10	1	-1E+10	1
4902551	40	C	09/16/2021	15:59	-134.730	49.584	0	206.90	0	5.6020	0	33.8080	0	26.662	0	205.031	0	99.1	4	32.4	4	-1E+10	1	-1E+10	1	-1E+10	1	-1E+10	1	-1E+10	1	-1E+10	1
4902551	40	C	09/16/2021	15:59	-134.730	49.584	0	208.00	0	5.6240	0	33.8170	0	26.666	0	206.121	0	98.4	4	32.2	4	-1E+10	1	-1E+10	1	-1E+10	1	-1E+10	1	-1E+10	1	-1E+10	1
4902551	40	C	09/16/2021	15:59	-134.730	49.584	0	209.00	0	5.6380	0	33.8230	0	26.669	0	207.111	0	97.8	4	32.0	4	-1E+10	1	-1E+10	1	-1E+10	1	-1E+10	1	-1E+10	1	-1E+10	1
4902551	40	C	09/16/2021	15:59	-134.730	49.584	0	210.00	0	5.6190	0	33.8260	0	26.674	0	208.102	0	97.3	4	31.8	4	-1E+10	1	-1E+10	1	-1E+10	1	-1E+10	1	-1E+10	1	-1E+10	1
4902551	40	C	09/16/2021	15:59	-134.730	49.584	0	211.10	0	5.6020	0	33.8290	0	26.679	0	209.191	0	97.0	4	31.7	4	-1E+10	1	-1E+10	1	-1E+10	1	-1E+10	1	-1E+10	1	-1E+10	1
4902551	40	C	09/16/2021	15:59	-134.730	49.584	0	212.20	0	5.6000	0	33.8290	0	26.679	0	210.281	0	96.5	4	31.6	4	-1E+10	1	-1E+10	1	-1E+10	1	-1E+10	1	-1E+10	1	-1E+10	1
4902551	40	C	09/16/2021	15:59	-134.730	49.584	0	213.20	0	5.6040	0	33.8300	0	26.679	0	211.271	0	96.1	4	31.4	4	-1E+10	1	-1E+10	1	-1E+10	1	-1E+10	1	-1E+10	1	-1E+10	1
4902551	40	C	09/16/2021	15:59	-134.730	49.584	0	214.30	0	5.6070	0	33.8310	0	26.680	0	212.361	0	95.7	4	31.3	4	-1E+10	1	-1E+10	1	-1E+10	1	-1E+10	1	-1E+10	1	-1E+10	1
4902551	40	C	09/16/2021	15:59	-134.730	49.584	0	215.30	0	5.5960	0	33.8350	0	26.684	0	213.351	0	95.4	4	31.2	4	-1E+10	1	-1E+10	1	-1E+10	1	-1E+10	1	-1E+10	1	-1E+10	1
4902551	40	C	09/16/2021	15:59	-134.730	49.584	0	216.40	0	5.5960	0	33.8360	0	26.685	0	214.441	0	95.1	4	31.1	4	-1E+10	1	-1E+10	1	-1E+10	1	-1E+10	1	-1E+10	1	-1E+10	1
4902551	40	C	09/16/2021	15:59	-134.730	49.584	0	217.50	0	5.5920	0	33.8370	0	26.686	0	215.530	0	94.9	4	31.1	4	-1E+10	1	-1E+10	1	-1E+10	1	-1E+10	1	-1E+10	1	-1E+10	1
4902551	40	C	09/16/2021	15:59	-134.730	49.584	0	218.50	0	5.5770	0	33.8370	0	26.688	0	216.520	0	94.7	4	31.0	4	-1E+10	1	-1E+10	1	-1E+10	1	-1E+10	1	-1E+10	1	-1E+10	1
4902551	40	C	09/16/2021	15:59	-134.730	49.584	0	219.60	0	5.5690	0	33.8360	0	26.688	0	217.610	0	94.4	4	30.9	4	-1E+10	1	-1E+10	1	-1E+10	1	-1E+10	1	-1E+10	1	-1E+10	1
4902551	40	C	09/16/2021	15:59	-134.730	49.584	0	220.70	0	5.5630	0	33.8360	0	26.689	0	218.699	0	94.2	4	30.8	4	-1E+10	1	-1E+10	1	-1E+10	1	-1E+10	1	-1E+10	1	-1E+10	1
4902551	40	C	09/16/2021	15:59	-134.730	49.584	0	221.70	0	5.5620	0	33.8360	0	26.689	0	219.690	0	93.9	4	30.7	4	-1E+10	1	-1E+10	1	-1E+10	1	-1E+10	1	-1E+10	1	-1E+10	1
4902551	40	C	09/16/2021	15:59	-134.730	49.584	0	222.80	0	5.5330	0	33.8370	0	26.693	0	220.779	0	93.5	4	30.5	4	-1E+10	1	-1E+10	1	-1E+10	1	-1E+10	1	-1E+10	1	-1E+10	1
4902551	40	C	09/16/2021	15:59	-134.730	49.584	0	223.90	0	5.5130	0	33.8370	0	26.696	0	221.869	0	93.1	4	30.4	4	-1E+10	1	-1E+10	1	-1E+10	1	-1E+10	1	-1E+10	1	-1E+10	1
4902551	40	C	09/16/2021	15:59	-134.730	49.584	0	225.00	0	5.5060	0	33.8330	0	26.693	0	222.958	0	92.6	4	30.2	4	-1E+10	1	-1E+10	1	-1E+10	1	-1E+10	1	-1E+10	1	-1E+10	1
4902551	40	C	09/16/2021	15:59	-134.730	49.584	0	226.00	0	5.4870	0	33.8310	0	26.694	0	223.948	0	92.1	4	30.0	4	-1E+10	1	-1E+10	1	-1E+10	1	-1E+10	1	-1E+10	1	-1E+10	1
4902551	40	C	09/16/2021	15:59	-134.730	49.584	0	227.10	0	5.4780	0	33.8340	0	26.697	0	225.038	0	91.4	4	29.8	4	-1E+10	1	-1E+10	1	-1E+10	1	-1E+10	1	-1E+10	1	-1E+10	1
4902551	40	C	09/16/2021	15:59	-134.730	49.584	0	228.20	0	5.4570	0	33.8370	0	26.702	0	226.127	0	90.8	4	29.6	4	-1E+10	1	-1E+10	1	-1E+10	1	-1E+10	1	-1E+10	1	-1E+10	1
4902551	40	C	09/16/2021	15:59	-134.730	49.584	0	229.20	0	5.4400	0	33.8340	0	26.702	0	227.118	0	90.2	4	29.4	4	-1E+10	1	-1E+10	1	-1E+10	1	-1E+10	1	-1E+10	1	-1E+10	1
4902551	40	C	09/16/2021	15:59	-134.730	49.584	0	230.30	0	5.4470	0	33.8380	0	26.704	0	228.207	0	89.6	4	29.2	4	-1E+10	1	-1E+10	1	-1E+10	1	-1E+10	1	-1E+10	1	-1E+10	1
4902551	40	C	09/16/2021	15:59	-134.730	49.584	0	231.30	0	5.4300	0	33.8430	0	26.710	0	229.197	0	89.2	4	29.1	4	-1E+10	1	-1E+10	1	-1E+10	1	-1E+10	1	-1E+10	1	-1E+10	1
4902551	40	C	09/16/2021	15:59	-134.730	49.584	0	232.30	0	5.4060	0	33.8430	0	26.713	0	230.188	0	88.8	4	28.9	4	-1E+10	1	-1E+10	1	-1E+10	1	-1E+10	1	-1E+10	1	-1E+10	1
4902551	40	C	09/16/2021	15:59	-134.730	49.584	0	233.40	0	5.3940	0	33.8430	0	26.715	0	231.277	0	88.5	4	28.8	4	-1E+10	1	-1E+10	1	-1E+10	1	-1E+10	1	-1E+10	1	-1E+10	1
4902551	40	C	09/16/2021	15:59	-134.730	49.584	0	234.50	0	5.3920	0	33.8450	0	26.716	0	232.367	0	88.1	4	28.7	4	-1E+10	1	-1E+10	1	-1E+10	1	-1E+10	1	-1E+10	1	-1E+10	1
4902551	40	C	09/16/2021	15:59	-134.730	49.584	0	235.50	0	5.3920	0	33.8470	0	26.718	0	233.357	0	87.8	4	28.6	4	-1E+10	1	-1E+10	1	-1E+10	1	-1E+10	1	-1E+10	1	-1E+10	1
4902551	40	C	09/16/2021	15:59	-134.730	49.584	0	236.50	0	5.3840	0	33.8520	0	26.723	0	234.347	0	87.6	4	28.5	4	-1E+10	1	-1E+10	1	-1E+10	1	-1E+10	1	-1E+10	1	-1E+10	1
4902551	40	C	09/16/2021	15:59	-134.730	49.584	0	237.60	0	5.3740	0	33.8470	0	26.720	0	235.437	0	87.4	4	28.4	4	-1E+10	1	-1E+10	1	-1E+10	1	-1E+10	1	-1E+10	1	-1E+10	1
4902551	40	C	09/16/2021	15:59	-134.730	49.584	0	238.60	0	5.3560	0	33.8470	0	26.722	0	236.427	0	87.2	4	28.3	4	-1E+10	1	-1E+10	1	-1E+10	1	-1E+10	1	-1E+10	1	-1E+10	1
4902551	40	C	09/16/2021	15:59	-134.730	49.584	0	239.60	0	5.3200	0	33.8490	0	26.728	0	237.417	0	86.9	4	28.3	4	-1E+10	1	-1E+10	1	-1E+10	1	-1E+10	1	-1E+10	1	-1E+10	1
4902551	40	C	09/16/2021	15:59	-134.730	49.584	0	240.70	0	5.2970	0	33.8450	0	26.728	0	238.507	0	86.7	4	28.2	4	-1E+10	1	-1E+10	1	-1E+10	1	-1E+10	1	-1E+10	1	-1E+10	1
4902551	40	C	09/16/2021	15:59	-134.730	49.584	0	241.70	0	5.2720	0	33.8460	0	26.731	0	239.497	0	86.3	4	28.0	4	-1E+10	1	-1E+10	1	-1E+10	1	-1E+10	1	-1E+10	1	-1E+10	1
4902551	40	C	09/16/2021	15:59	-134.730	49.584	0	242.80	0	5.2390	0	33.8440	0	26.734	0	240.586	0	86.0	4	27.9	4	-1E+10	1	-1E+10	1	-1E+10	1	-1E+10	1	-1E+10	1	-1E+10	1
4902551	40	C	09/16/2021	15:59	-134.730	49.584	0	243.90	0	5.2390	0	33.8430	0	26.733	0	241.676	0	85.6	4	27.8	4	-1E+10	1	-1E+10	1	-1E+10	1	-1E+10	1	-1E+10	1	-1E+10	1
4902551	40	C	09/16/2021	15:59	-134.730	49.584	0	244.90	0	5.2380	0	33.8440	0	26.734	0	242.666	0	85.2	4	27.6	4	-1E+10	1	-1E+10	1	-1E+10	1	-1E+10	1	-1E+10	1	-1E+10	1
4902551	40	C	09/16/2021	15:59	-134.730	49.584	0	245.90	0	5.2370	0	33.8430	0	26.733	0	243.656	0	84.7	4	27.5	4	-1E+10	1	-1E+10	1	-1E+10	1	-1E+10	1	-1E+10	1	-1E+10	1
4902551	40	C	09/16/2021	15:59	-134.730	49.584	0	247.00	0	5.2370	0	33.8430	0	26.733	0	244.745	0	84.1	4	27.3	4	-1E+10	1	-1E+10	1	-1E+10	1	-1E+10	1	-1E+10	1	-1E+10	1
4902551	40	C	09/16/2021	15:59	-134.730	49.584	0	248.00	0	5.2270	0	33.8460	0	26.737	0	245.736	0	83.5	4	27.1	4	-1E+10	1	-1E+10	1	-1E+10	1	-1E+10	1	-1E+10	1	-1E+10	1
4902551	40	C	09/16/2021	15:59	-134.730	49.584	0	249.10	0	5.2180	0	33.8470	0	26.738	0	246.825	0	83.0	4	26.9	4	-1E+10	1	-1E+10	1	-1E+10	1	-1E+10	1	-1E+10	1	-1E+10	1
4902551	40	C	09/16/2021	15:59	-134.730	49.584	0	250.10	0	5.2150	0	33.8490	0	26.740	0	247.815	0	82.4	4	26.7	4	-1E+10	1	-1E+10	1	-1E+10	1	-1E+10	1	-1E+10	1	-1E+10	1
4902551	40	C	09/16/2021	15:59	-134.730	49.584	0	251.20	0	5.2100	0	33.8490	0	26.741	0	248.905	0	81.8	4	26.5	4	-1E+10	1	-1E+10	1	-1E+10	1	-1E+10	1	-1E+10	1	-1E+10	1
4902551	40	C	09/16/2021	15:59	-134.730	49.584	0	252.20	0	5.2140	0	33.8510	0	26.742	0	249.895	0	81.2	4	26.3	4	-1E+10	1	-1E+10	1	-1E+10	1	-1E+10	1	-1E+10	1	-1E+10	1
4902551	40	C	09/16/2021	15:59	-134.730	49.584	0	253.20	0	5.2250	0	33.8520	0	26.742	0	250.885	0	80.7	4	26.2	4	-1E+10	1	-1E+10	1	-1E+10	1	-1E+10	1	-1E+10	1	-1E+10	1
4902551	40	C	09/16/2021	15:59	-134.730	49.584	0	254.20	0	5.2450	0	33.8590	0	26.745	0	251.875	0	80.1	4	26.0	4	-1E+10	1	-1E+10	1	-1E+10	1	-1E+10	1	-1E+10	1	-1E+10	1
4902551	40	C	09/16/2021	15:59	-134.730	49.584	0	255.30	0	5.2510	0	33.8550	0	26.741	0	252.965	0	79.6	4	25.8	4	-1E+10	1	-1E+10	1	-1E+10	1	-1E+10	1	-1E+10	1	-1E+10	1
4902551	40	C	09/16/2021	15:59	-134.730	49.584	0	256.30	0	5.2740	0	33.8610	0	26.743	0	253.955	0	79.1	4	25.7	4	-1E+10	1	-1E+10	1	-1E+10	1	-1E+10	1	-1E+10	1	-1E+10	1
4902551	40	C	09/16/2021	15:59	-134.730	49.584	0	257.30	0	5.2560	0	33.8670	0	26.750	0	254.945	0	78.6	4	25.5	4	-1E+10	1	-1E+10	1	-1E+10	1	-1E+10	1	-1E+10	1	-1E+10	1
4902551	40	C	09/16/2021	15:59	-134.730	49.584	0	258.40	0	5.2560	0	33.8680	0	26.751	0	256.034	0	78.2	4	25.4	4	-1E+10	1	-1E+10	1	-1E+10	1	-1E+10	1	-1E+10	1	-1E+10	1
4902551	40	C	09/16/2021	15:59	-134.730	49.584	0	259.40	0	5.2510	0	33.8670	0	26.751	0	257.025	0	77.8	4	25.2	4	-1E+10	1	-1E+10	1	-1E+10	1	-1E+10	1	-1E+10	1	-1E+10	1
4902551	40	C	09/16/2021	15:59	-134.730	49.584	0	260.40	0	5.2480	0	33.8670	0	26.751	0	258.015	0	77.5	4	25.1	4	-1E+10	1	-1E+10	1	-1E+10	1	-1E+10	1	-1E+10	1	-1E+10	1
4902551	40	C	09/16/2021	15:59	-134.730	49.584	0	261.40	0	5.2410	0	33.8680	0	26.753	0	259.005	0	77.1	4	25.0	4	-1E+10	1	-1E+10	1	-1E+10	1	-1E+10	1	-1E+10	1	-1E+10	1
4902551	40	C	09/16/2021	15:59	-134.730	49.584	0	262.40	0	5.2290	0	33.8680	0	26.754	0	259.995	0	76.7	4	24.9	4	-1E+10	1	-1E+10	1	-1E+10	1	-1E+10	1	-1E+10	1	-1E+10	1
4902551	40	C	09/16/2021	15:59	-134.730	49.584	0	263.40	0	5.2160	0	33.8710	0	26.758	0	260.985	0	76.3	4	24.7	4	-1E+10	1	-1E+10	1	-1E+10	1	-1E+10	1	-1E+10	1	-1E+10	1
4902551	40	C	09/16/2021	15:59	-134.730	49.584	0	264.40	0	5.2090	0	33.8700	0	26.758	0	261.976	0	76.0	4	24.6	4	-1E+10	1	-1E+10	1	-1E+10	1	-1E+10	1	-1E+10	1	-1E+10	1
4902551	40	C	09/16/2021	15:59	-134.730	49.584	0	265.50	0	5.1960	0	33.8720	0	26.761	0	263.065	0	75.7	4	24.5	4	-1E+10	1	-1E+10	1	-1E+10	1	-1E+10	1	-1E+10	1	-1E+10	1
4902551	40	C	09/16/2021	15:59	-134.730	49.584	0	266.50	0	5.1780	0	33.8750	0	26.765	0	264.055	0	75.3	4	24.4	4	-1E+10	1	-1E+10	1	-1E+10	1	-1E+10	1	-1E+10	1	-1E+10	1
4902551	40	C	09/16/2021	15:59	-134.730	49.584	0	267.50	0	5.1690	0	33.8720	0	26.764	0	265.045	0	75.0	4	24.3	4	-1E+10	1	-1E+10	1	-1E+10	1	-1E+10	1	-1E+10	1	-1E+10	1
4902551	40	C	09/16/2021	15:59	-134.730	49.584	0	268.50	0	5.1640	0	33.8720	0	26.765	0	266.035	0	74.7	4	24.2	4	-1E+10	1	-1E+10	1	-1E+10	1	-1E+10	1	-1E+10	1	-1E+10	1
4902551	40	C	09/16/2021	15:59	-134.730	49.584	0	269.90	0	5.1450	0	33.8740	0	26.768	0	267.422	0	74.2	4	24.0	4	-1E+10	1	-1E+10	1	-1E+10	1	-1E+10	1	-1E+10	1	-1E+10	1
4902551	40	C	09/16/2021	15:59	-134.730	49.584	0	271.80	0	5.1150	0	33.8750	0	26.773	0	269.303	0	73.5	4	23.8	4	-1E+10	1	-1E+10	1	-1E+10	1	-1E+10	1	-1E+10	1	-1E+10	1
4902551	40	C	09/16/2021	15:59	-134.730	49.584	0	273.00	0	5.0970	0	33.8730	0	26.773	0	270.491	0	73.2	4	23.7	4	-1E+10	1	-1E+10	1	-1E+10	1	-1E+10	1	-1E+10	1	-1E+10	1
4902551	40	C	09/16/2021	15:59	-134.730	49.584	0	273.80	0	5.0770	0	33.8750	0	26.777	0	271.283	0	73.0	4	23.6	4	-1E+10	1	-1E+10	1	-1E+10	1	-1E+10	1	-1E+10	1	-1E+10	1
4902551	40	C	09/16/2021	15:59	-134.730	49.584	0	274.90	0	5.0600	0	33.8720	0	26.777	0	272.372	0	72.5	4	23.4	4	-1E+10	1	-1E+10	1	-1E+10	1	-1E+10	1	-1E+10	1	-1E+10	1
4902551	40	C	09/16/2021	15:59	-134.730	49.584	0	276.00	0	5.0500	0	33.8730	0	26.779	0	273.462	0	72.1	4	23.3	4	-1E+10	1	-1E+10	1	-1E+10	1	-1E+10	1	-1E+10	1	-1E+10	1
4902551	40	C	09/16/2021	15:59	-134.730	49.584	0	276.80	0	5.0540	0	33.8770	0	26.781	0	274.254	0	71.8	4	23.2	4	-1E+10	1	-1E+10	1	-1E+10	1	-1E+10	1	-1E+10	1	-1E+10	1
4902551	40	C	09/16/2021	15:59	-134.730	49.584	0	278.00	0	5.0550	0	33.8750	0	26.780	0	275.442	0	71.3	4	23.0	4	-1E+10	1	-1E+10	1	-1E+10	1	-1E+10	1	-1E+10	1	-1E+10	1
4902551	40	C	09/16/2021	15:59	-134.730	49.584	0	279.20	0	5.0560	0	33.8780	0	26.782	0	276.630	0	70.9	4	22.9	4	-1E+10	1	-1E+10	1	-1E+10	1	-1E+10	1	-1E+10	1	-1E+10	1
4902551	40	C	09/16/2021	15:59	-134.730	49.584	0	280.00	0	5.0530	0	33.8770	0	26.781	0	277.422	0	70.5	4	22.8	4	-1E+10	1	-1E+10	1	-1E+10	1	-1E+10	1	-1E+10	1	-1E+10	1
4902551	40	C	09/16/2021	15:59	-134.730	49.584	0	280.80	0	5.0480	0	33.8780	0	26.783	0	278.214	0	70.1	4	22.7	4	-1E+10	1	-1E+10	1	-1E+10	1	-1E+10	1	-1E+10	1	-1E+10	1
4902551	40	C	09/16/2021	15:59	-134.730	49.584	0	282.00	0	5.0430	0	33.8790	0	26.784	0	279.402	0	69.6	4	22.5	4	-1E+10	1	-1E+10	1	-1E+10	1	-1E+10	1	-1E+10	1	-1E+10	1
4902551	40	C	09/16/2021	15:59	-134.730	49.584	0	283.20	0	5.0380	0	33.8810	0	26.786	0	280.590	0	69.1	4	22.3	4	-1E+10	1	-1E+10	1	-1E+10	1	-1E+10	1	-1E+10	1	-1E+10	1
4902551	40	C	09/16/2021	15:59	-134.730	49.584	0	284.00	0	5.0340	0	33.8810	0	26.787	0	281.383	0	68.7	4	22.2	4	-1E+10	1	-1E+10	1	-1E+10	1	-1E+10	1	-1E+10	1	-1E+10	1
4902551	40	C	09/16/2021	15:59	-134.730	49.584	0	284.80	0	5.0290	0	33.8830	0	26.789	0	282.175	0	68.3	4	22.1	4	-1E+10	1	-1E+10	1	-1E+10	1	-1E+10	1	-1E+10	1	-1E+10	1
4902551	40	C	09/16/2021	15:59	-134.730	49.584	0	286.00	0	5.0200	0	33.8860	0	26.792	0	283.363	0	67.8	4	21.9	4	-1E+10	1	-1E+10	1	-1E+10	1	-1E+10	1	-1E+10	1	-1E+10	1
4902551	40	C	09/16/2021	15:59	-134.730	49.584	0	287.20	0	5.0050	0	33.8870	0	26.795	0	284.551	0	67.3	4	21.7	4	-1E+10	1	-1E+10	1	-1E+10	1	-1E+10	1	-1E+10	1	-1E+10	1
4902551	40	C	09/16/2021	15:59	-134.730	49.584	0	288.00	0	4.9910	0	33.8880	0	26.797	0	285.343	0	67.1	4	21.6	4	-1E+10	1	-1E+10	1	-1E+10	1	-1E+10	1	-1E+10	1	-1E+10	1
4902551	40	C	09/16/2021	15:59	-134.730	49.584	0	288.90	0	4.9730	0	33.8940	0	26.804	0	286.234	0	66.8	4	21.5	4	-1E+10	1	-1E+10	1	-1E+10	1	-1E+10	1	-1E+10	1	-1E+10	1
4902551	40	C	09/16/2021	15:59	-134.730	49.584	0	289.70	0	4.9600	0	33.8920	0	26.804	0	287.026	0	66.6	4	21.5	4	-1E+10	1	-1E+10	1	-1E+10	1	-1E+10	1	-1E+10	1	-1E+10	1
4902551	40	C	09/16/2021	15:59	-134.730	49.584	0	290.90	0	4.9460	0	33.8930	0	26.806	0	288.214	0	66.4	4	21.4	4	-1E+10	1	-1E+10	1	-1E+10	1	-1E+10	1	-1E+10	1	-1E+10	1
4902551	40	C	09/16/2021	15:59	-134.730	49.584	0	292.20	0	4.9380	0	33.8930	0	26.807	0	289.501	0	66.2	4	21.3	4	-1E+10	1	-1E+10	1	-1E+10	1	-1E+10	1	-1E+10	1	-1E+10	1
4902551	40	C	09/16/2021	15:59	-134.730	49.584	0	293.10	0	4.9360	0	33.8920	0	26.807	0	290.392	0	66.1	4	21.3	4	-1E+10	1	-1E+10	1	-1E+10	1	-1E+10	1	-1E+10	1	-1E+10	1
4902551	40	C	09/16/2021	15:59	-134.730	49.584	0	294.00	0	4.9310	0	33.8940	0	26.809	0	291.283	0	65.9	4	21.2	4	-1E+10	1	-1E+10	1	-1E+10	1	-1E+10	1	-1E+10	1	-1E+10	1
4902551	40	C	09/16/2021	15:59	-134.730	49.584	0	294.80	0	4.9260	0	33.8940	0	26.809	0	292.075	0	65.7	4	21.2	4	-1E+10	1	-1E+10	1	-1E+10	1	-1E+10	1	-1E+10	1	-1E+10	1
4902551	40	C	09/16/2021	15:59	-134.730	49.584	0	295.70	0	4.9220	0	33.8950	0	26.811	0	292.966	0	65.5	4	21.1	4	-1E+10	1	-1E+10	1	-1E+10	1	-1E+10	1	-1E+10	1	-1E+10	1
4902551	40	C	09/16/2021	15:59	-134.730	49.584	0	296.60	0	4.9190	0	33.8950	0	26.811	0	293.858	0	65.4	4	21.0	4	-1E+10	1	-1E+10	1	-1E+10	1	-1E+10	1	-1E+10	1	-1E+10	1
4902551	40	C	09/16/2021	15:59	-134.730	49.584	0	297.90	0	4.9120	0	33.8950	0	26.812	0	295.145	0	65.1	4	21.0	4	-1E+10	1	-1E+10	1	-1E+10	1	-1E+10	1	-1E+10	1	-1E+10	1
4902551	40	C	09/16/2021	15:59	-134.730	49.584	0	299.20	0	4.9100	0	33.8960	0	26.813	0	296.432	0	64.8	4	20.9	4	-1E+10	1	-1E+10	1	-1E+10	1	-1E+10	1	-1E+10	1	-1E+10	1
4902551	40	C	09/16/2021	15:59	-134.730	49.584	0	300.10	0	4.9080	0	33.8960	0	26.813	0	297.323	0	64.6	4	20.8	4	-1E+10	1	-1E+10	1	-1E+10	1	-1E+10	1	-1E+10	1	-1E+10	1
4902551	40	C	09/16/2021	15:59	-134.730	49.584	0	301.00	0	4.9060	0	33.8960	0	26.813	0	298.214	0	64.4	4	20.7	4	-1E+10	1	-1E+10	1	-1E+10	1	-1E+10	1	-1E+10	1	-1E+10	1
4902551	40	C	09/16/2021	15:59	-134.730	49.584	0	301.90	0	4.9020	0	33.8970	0	26.815	0	299.105	0	64.1	4	20.6	4	-1E+10	1	-1E+10	1	-1E+10	1	-1E+10	1	-1E+10	1	-1E+10	1
4902551	40	C	09/16/2021	15:59	-134.730	49.584	0	302.80	0	4.8960	0	33.8980	0	26.816	0	299.996	0	63.8	4	20.5	4	-1E+10	1	-1E+10	1	-1E+10	1	-1E+10	1	-1E+10	1	-1E+10	1
4902551	40	C	09/16/2021	15:59	-134.730	49.584	0	303.70	0	4.8920	0	33.8980	0	26.817	0	300.887	0	63.6	4	20.5	4	-1E+10	1	-1E+10	1	-1E+10	1	-1E+10	1	-1E+10	1	-1E+10	1
4902551	40	C	09/16/2021	15:59	-134.730	49.584	0	304.60	0	4.8900	0	33.8980	0	26.817	0	301.778	0	63.3	4	20.4	4	-1E+10	1	-1E+10	1	-1E+10	1	-1E+10	1	-1E+10	1	-1E+10	1
4902551	40	C	09/16/2021	15:59	-134.730	49.584	0	305.90	0	4.8860	0	33.8980	0	26.817	0	303.065	0	62.8	4	20.2	4	-1E+10	1	-1E+10	1	-1E+10	1	-1E+10	1	-1E+10	1	-1E+10	1
4902551	40	C	09/16/2021	15:59	-134.730	49.584	0	307.30	0	4.8800	0	33.8990	0	26.819	0	304.451	0	62.3	4	20.0	4	-1E+10	1	-1E+10	1	-1E+10	1	-1E+10	1	-1E+10	1	-1E+10	1
4902551	40	C	09/16/2021	15:59	-134.730	49.584	0	308.20	0	4.8780	0	33.8990	0	26.819	0	305.342	0	61.9	4	19.9	4	-1E+10	1	-1E+10	1	-1E+10	1	-1E+10	1	-1E+10	1	-1E+10	1
4902551	40	C	09/16/2021	15:59	-134.730	49.584	0	309.20	0	4.8710	0	33.9000	0	26.821	0	306.332	0	61.5	4	19.8	4	-1E+10	1	-1E+10	1	-1E+10	1	-1E+10	1	-1E+10	1	-1E+10	1
4902551	40	C	09/16/2021	15:59	-134.730	49.584	0	310.10	0	4.8670	0	33.9010	0	26.822	0	307.223	0	61.1	4	19.7	4	-1E+10	1	-1E+10	1	-1E+10	1	-1E+10	1	-1E+10	1	-1E+10	1
4902551	40	C	09/16/2021	15:59	-134.730	49.584	0	311.00	0	4.8630	0	33.9020	0	26.823	0	308.114	0	60.7	4	19.5	4	-1E+10	1	-1E+10	1	-1E+10	1	-1E+10	1	-1E+10	1	-1E+10	1
4902551	40	C	09/16/2021	15:59	-134.730	49.584	0	311.90	0	4.8540	0	33.9030	0	26.825	0	309.005	0	60.3	4	19.4	4	-1E+10	1	-1E+10	1	-1E+10	1	-1E+10	1	-1E+10	1	-1E+10	1
4902551	40	C	09/16/2021	15:59	-134.730	49.584	0	312.80	0	4.8450	0	33.9050	0	26.827	0	309.896	0	59.9	4	19.3	4	-1E+10	1	-1E+10	1	-1E+10	1	-1E+10	1	-1E+10	1	-1E+10	1
4902551	40	C	09/16/2021	15:59	-134.730	49.584	0	313.80	0	4.8390	0	33.9050	0	26.828	0	310.886	0	59.5	4	19.1	4	-1E+10	1	-1E+10	1	-1E+10	1	-1E+10	1	-1E+10	1	-1E+10	1
4902551	40	C	09/16/2021	15:59	-134.730	49.584	0	314.70	0	4.8380	0	33.9060	0	26.829	0	311.777	0	59.0	4	19.0	4	-1E+10	1	-1E+10	1	-1E+10	1	-1E+10	1	-1E+10	1	-1E+10	1
4902551	40	C	09/16/2021	15:59	-134.730	49.584	0	315.60	0	4.8320	0	33.9100	0	26.833	0	312.667	0	58.7	4	18.9	4	-1E+10	1	-1E+10	1	-1E+10	1	-1E+10	1	-1E+10	1	-1E+10	1
4902551	40	C	09/16/2021	15:59	-134.730	49.584	0	316.60	0	4.8270	0	33.9100	0	26.833	0	313.657	0	58.4	4	18.8	4	-1E+10	1	-1E+10	1	-1E+10	1	-1E+10	1	-1E+10	1	-1E+10	1
4902551	40	C	09/16/2021	15:59	-134.730	49.584	0	317.50	0	4.8230	0	33.9100	0	26.834	0	314.548	0	58.1	4	18.7	4	-1E+10	1	-1E+10	1	-1E+10	1	-1E+10	1	-1E+10	1	-1E+10	1
4902551	40	C	09/16/2021	15:59	-134.730	49.584	0	318.90	0	4.8190	0	33.9110	0	26.835	0	315.934	0	57.7	4	18.5	4	-1E+10	1	-1E+10	1	-1E+10	1	-1E+10	1	-1E+10	1	-1E+10	1
4902551	40	C	09/16/2021	15:59	-134.730	49.584	0	320.40	0	4.8100	0	33.9130	0	26.838	0	317.419	0	57.2	4	18.4	4	-1E+10	1	-1E+10	1	-1E+10	1	-1E+10	1	-1E+10	1	-1E+10	1
4902551	40	C	09/16/2021	15:59	-134.730	49.584	0	321.30	0	4.8090	0	33.9130	0	26.838	0	318.310	0	56.9	4	18.3	4	-1E+10	1	-1E+10	1	-1E+10	1	-1E+10	1	-1E+10	1	-1E+10	1
4902551	40	C	09/16/2021	15:59	-134.730	49.584	0	322.30	0	4.8070	0	33.9140	0	26.839	0	319.300	0	56.6	4	18.2	4	-1E+10	1	-1E+10	1	-1E+10	1	-1E+10	1	-1E+10	1	-1E+10	1
4902551	40	C	09/16/2021	15:59	-134.730	49.584	0	323.30	0	4.8020	0	33.9160	0	26.841	0	320.290	0	56.3	4	18.1	4	-1E+10	1	-1E+10	1	-1E+10	1	-1E+10	1	-1E+10	1	-1E+10	1
4902551	40	C	09/16/2021	15:59	-134.730	49.584	0	324.20	0	4.7980	0	33.9180	0	26.843	0	321.181	0	56.1	4	18.0	4	-1E+10	1	-1E+10	1	-1E+10	1	-1E+10	1	-1E+10	1	-1E+10	1
4902551	40	C	09/16/2021	15:59	-134.730	49.584	0	325.20	0	4.7950	0	33.9190	0	26.844	0	322.171	0	55.8	4	17.9	4	-1E+10	1	-1E+10	1	-1E+10	1	-1E+10	1	-1E+10	1	-1E+10	1
4902551	40	C	09/16/2021	15:59	-134.730	49.584	0	326.10	0	4.7920	0	33.9200	0	26.845	0	323.062	0	55.6	4	17.9	4	-1E+10	1	-1E+10	1	-1E+10	1	-1E+10	1	-1E+10	1	-1E+10	1
4902551	40	C	09/16/2021	15:59	-134.730	49.584	0	327.10	0	4.7900	0	33.9200	0	26.846	0	324.052	0	55.4	4	17.8	4	-1E+10	1	-1E+10	1	-1E+10	1	-1E+10	1	-1E+10	1	-1E+10	1
4902551	40	C	09/16/2021	15:59	-134.730	49.584	0	328.00	0	4.7860	0	33.9220	0	26.848	0	324.943	0	55.1	4	17.7	4	-1E+10	1	-1E+10	1	-1E+10	1	-1E+10	1	-1E+10	1	-1E+10	1
4902551	40	C	09/16/2021	15:59	-134.730	49.584	0	329.00	0	4.7810	0	33.9230	0	26.849	0	325.932	0	54.9	4	17.6	4	-1E+10	1	-1E+10	1	-1E+10	1	-1E+10	1	-1E+10	1	-1E+10	1
4902551	40	C	09/16/2021	15:59	-134.730	49.584	0	330.00	0	4.7770	0	33.9230	0	26.849	0	326.922	0	54.7	4	17.6	4	-1E+10	1	-1E+10	1	-1E+10	1	-1E+10	1	-1E+10	1	-1E+10	1
4902551	40	C	09/16/2021	15:59	-134.730	49.584	0	330.90	0	4.7760	0	33.9240	0	26.850	0	327.813	0	54.5	4	17.5	4	-1E+10	1	-1E+10	1	-1E+10	1	-1E+10	1	-1E+10	1	-1E+10	1
4902551	40	C	09/16/2021	15:59	-134.730	49.584	0	331.90	0	4.7760	0	33.9230	0	26.850	0	328.803	0	54.3	4	17.4	4	-1E+10	1	-1E+10	1	-1E+10	1	-1E+10	1	-1E+10	1	-1E+10	1
4902551	40	C	09/16/2021	15:59	-134.730	49.584	0	332.90	0	4.7740	0	33.9240	0	26.851	0	329.793	0	54.0	4	17.3	4	-1E+10	1	-1E+10	1	-1E+10	1	-1E+10	1	-1E+10	1	-1E+10	1
4902551	40	C	09/16/2021	15:59	-134.730	49.584	0	333.80	0	4.7730	0	33.9240	0	26.851	0	330.684	0	53.7	4	17.3	4	-1E+10	1	-1E+10	1	-1E+10	1	-1E+10	1	-1E+10	1	-1E+10	1
4902551	40	C	09/16/2021	15:59	-134.730	49.584	0	334.80	0	4.7670	0	33.9260	0	26.853	0	331.674	0	53.5	4	17.2	4	-1E+10	1	-1E+10	1	-1E+10	1	-1E+10	1	-1E+10	1	-1E+10	1
4902551	40	C	09/16/2021	15:59	-134.730	49.584	0	335.70	0	4.7610	0	33.9280	0	26.855	0	332.565	0	53.2	4	17.1	4	-1E+10	1	-1E+10	1	-1E+10	1	-1E+10	1	-1E+10	1	-1E+10	1
4902551	40	C	09/16/2021	15:59	-134.730	49.584	0	336.70	0	4.7560	0	33.9290	0	26.857	0	333.554	0	53.1	4	17.0	4	-1E+10	1	-1E+10	1	-1E+10	1	-1E+10	1	-1E+10	1	-1E+10	1
4902551	40	C	09/16/2021	15:59	-134.730	49.584	0	337.60	0	4.7510	0	33.9300	0	26.858	0	334.445	0	52.9	4	17.0	4	-1E+10	1	-1E+10	1	-1E+10	1	-1E+10	1	-1E+10	1	-1E+10	1
4902551	40	C	09/16/2021	15:59	-134.730	49.584	0	338.60	0	4.7430	0	33.9310	0	26.860	0	335.435	0	52.7	4	16.9	4	-1E+10	1	-1E+10	1	-1E+10	1	-1E+10	1	-1E+10	1	-1E+10	1
4902551	40	C	09/16/2021	15:59	-134.730	49.584	0	339.50	0	4.7370	0	33.9330	0	26.862	0	336.326	0	52.6	4	16.9	4	-1E+10	1	-1E+10	1	-1E+10	1	-1E+10	1	-1E+10	1	-1E+10	1
4902551	40	C	09/16/2021	15:59	-134.730	49.584	0	340.50	0	4.7330	0	33.9330	0	26.862	0	337.316	0	52.4	4	16.8	4	-1E+10	1	-1E+10	1	-1E+10	1	-1E+10	1	-1E+10	1	-1E+10	1
4902551	40	C	09/16/2021	15:59	-134.730	49.584	0	341.50	0	4.7290	0	33.9340	0	26.864	0	338.306	0	52.3	4	16.8	4	-1E+10	1	-1E+10	1	-1E+10	1	-1E+10	1	-1E+10	1	-1E+10	1
4902551	40	C	09/16/2021	15:59	-134.730	49.584	0	342.90	0	4.7230	0	33.9350	0	26.865	0	339.691	0	52.1	4	16.7	4	-1E+10	1	-1E+10	1	-1E+10	1	-1E+10	1	-1E+10	1	-1E+10	1
4902551	40	C	09/16/2021	15:59	-134.730	49.584	0	344.40	0	4.7190	0	33.9350	0	26.865	0	341.176	0	51.9	4	16.6	4	-1E+10	1	-1E+10	1	-1E+10	1	-1E+10	1	-1E+10	1	-1E+10	1
4902551	40	C	09/16/2021	15:59	-134.730	49.584	0	345.40	0	4.7130	0	33.9350	0	26.866	0	342.166	0	51.7	4	16.6	4	-1E+10	1	-1E+10	1	-1E+10	1	-1E+10	1	-1E+10	1	-1E+10	1
4902551	40	C	09/16/2021	15:59	-134.730	49.584	0	346.40	0	4.7110	0	33.9360	0	26.867	0	343.156	0	51.6	4	16.5	4	-1E+10	1	-1E+10	1	-1E+10	1	-1E+10	1	-1E+10	1	-1E+10	1
4902551	40	C	09/16/2021	15:59	-134.730	49.584	0	347.40	0	4.7040	0	33.9380	0	26.870	0	344.146	0	51.5	4	16.5	4	-1E+10	1	-1E+10	1	-1E+10	1	-1E+10	1	-1E+10	1	-1E+10	1
4902551	40	C	09/16/2021	15:59	-134.730	49.584	0	348.40	0	4.7030	0	33.9380	0	26.870	0	345.135	0	51.4	4	16.5	4	-1E+10	1	-1E+10	1	-1E+10	1	-1E+10	1	-1E+10	1	-1E+10	1
4902551	40	C	09/16/2021	15:59	-134.730	49.584	0	349.40	0	4.7030	0	33.9390	0	26.870	0	346.125	0	51.3	4	16.4	4	-1E+10	1	-1E+10	1	-1E+10	1	-1E+10	1	-1E+10	1	-1E+10	1
4902551	40	C	09/16/2021	15:59	-134.730	49.584	0	350.40	0	4.7010	0	33.9390	0	26.871	0	347.115	0	51.2	4	16.4	4	-1E+10	1	-1E+10	1	-1E+10	1	-1E+10	1	-1E+10	1	-1E+10	1
4902551	40	C	09/16/2021	15:59	-134.730	49.584	0	353.30	0	4.6900	0	33.9400	0	26.873	0	349.985	0	50.9	4	16.3	4	-1E+10	1	-1E+10	1	-1E+10	1	-1E+10	1	-1E+10	1	-1E+10	1
4902551	40	C	09/16/2021	15:59	-134.730	49.584	0	358.20	0	4.6760	0	33.9400	0	26.874	0	354.835	0	50.5	4	16.2	4	-1E+10	1	-1E+10	1	-1E+10	1	-1E+10	1	-1E+10	1	-1E+10	1
4902551	40	C	09/16/2021	15:59	-134.730	49.584	0	363.20	0	4.6390	0	33.9400	0	26.878	0	359.784	0	49.8	4	16.0	4	-1E+10	1	-1E+10	1	-1E+10	1	-1E+10	1	-1E+10	1	-1E+10	1
4902551	40	C	09/16/2021	15:59	-134.730	49.584	0	368.10	0	4.6120	0	33.9420	0	26.883	0	364.633	0	49.0	4	15.7	4	-1E+10	1	-1E+10	1	-1E+10	1	-1E+10	1	-1E+10	1	-1E+10	1
4902551	40	C	09/16/2021	15:59	-134.730	49.584	0	373.10	0	4.5730	0	33.9460	0	26.890	0	369.582	0	48.0	4	15.3	4	-1E+10	1	-1E+10	1	-1E+10	1	-1E+10	1	-1E+10	1	-1E+10	1
4902551	40	C	09/16/2021	15:59	-134.730	49.584	0	378.30	0	4.5530	0	33.9510	0	26.897	0	374.728	0	46.9	4	15.0	4	-1E+10	1	-1E+10	1	-1E+10	1	-1E+10	1	-1E+10	1	-1E+10	1
4902551	40	C	09/16/2021	15:59	-134.730	49.584	0	383.00	0	4.5290	0	33.9550	0	26.902	0	379.380	0	46.0	4	14.7	4	-1E+10	1	-1E+10	1	-1E+10	1	-1E+10	1	-1E+10	1	-1E+10	1
4902551	40	C	09/16/2021	15:59	-134.730	49.584	0	387.60	0	4.5060	0	33.9590	0	26.908	0	383.932	0	45.1	4	14.4	4	-1E+10	1	-1E+10	1	-1E+10	1	-1E+10	1	-1E+10	1	-1E+10	1
4902551	40	C	09/16/2021	15:59	-134.730	49.584	0	392.80	0	4.4830	0	33.9650	0	26.915	0	389.078	0	44.3	4	14.1	4	-1E+10	1	-1E+10	1	-1E+10	1	-1E+10	1	-1E+10	1	-1E+10	1
4902551	40	C	09/16/2021	15:59	-134.730	49.584	0	397.90	0	4.4660	0	33.9710	0	26.922	0	394.125	0	43.6	4	13.9	4	-1E+10	1	-1E+10	1	-1E+10	1	-1E+10	1	-1E+10	1	-1E+10	1
4902551	40	C	09/16/2021	15:59	-134.730	49.584	0	403.10	0	4.4580	0	33.9740	0	26.925	0	399.270	0	43.0	4	13.7	4	-1E+10	1	-1E+10	1	-1E+10	1	-1E+10	1	-1E+10	1	-1E+10	1
4902551	40	C	09/16/2021	15:59	-134.730	49.584	0	407.80	0	4.4520	0	33.9760	0	26.928	0	403.921	0	42.4	4	13.5	4	-1E+10	1	-1E+10	1	-1E+10	1	-1E+10	1	-1E+10	1	-1E+10	1
4902551	40	C	09/16/2021	15:59	-134.730	49.584	0	412.50	0	4.4450	0	33.9790	0	26.931	0	408.572	0	41.6	4	13.3	4	-1E+10	1	-1E+10	1	-1E+10	1	-1E+10	1	-1E+10	1	-1E+10	1
4902551	40	C	09/16/2021	15:59	-134.730	49.584	0	417.70	0	4.4280	0	33.9850	0	26.937	0	413.717	0	40.8	4	13.0	4	-1E+10	1	-1E+10	1	-1E+10	1	-1E+10	1	-1E+10	1	-1E+10	1
4902551	40	C	09/16/2021	15:59	-134.730	49.584	0	422.90	0	4.4140	0	33.9900	0	26.943	0	418.862	0	40.0	4	12.7	4	-1E+10	1	-1E+10	1	-1E+10	1	-1E+10	1	-1E+10	1	-1E+10	1
4902551	40	C	09/16/2021	15:59	-134.730	49.584	0	428.10	0	4.4050	0	33.9950	0	26.948	0	424.007	0	39.1	4	12.4	4	-1E+10	1	-1E+10	1	-1E+10	1	-1E+10	1	-1E+10	1	-1E+10	1
4902551	40	C	09/16/2021	15:59	-134.730	49.584	0	433.30	0	4.3890	0	34.0030	0	26.956	0	429.152	0	38.4	4	12.2	4	-1E+10	1	-1E+10	1	-1E+10	1	-1E+10	1	-1E+10	1	-1E+10	1
4902551	40	C	09/16/2021	15:59	-134.730	49.584	0	438.00	0	4.3820	0	34.0070	0	26.960	0	433.802	0	37.9	4	12.1	4	-1E+10	1	-1E+10	1	-1E+10	1	-1E+10	1	-1E+10	1	-1E+10	1
4902551	40	C	09/16/2021	15:59	-134.730	49.584	0	442.70	0	4.3550	0	34.0140	0	26.968	0	438.452	0	37.1	4	11.8	4	-1E+10	1	-1E+10	1	-1E+10	1	-1E+10	1	-1E+10	1	-1E+10	1
4902551	40	C	09/16/2021	15:59	-134.730	49.584	0	447.90	0	4.3390	0	34.0190	0	26.974	0	443.597	0	36.2	4	11.5	4	-1E+10	1	-1E+10	1	-1E+10	1	-1E+10	1	-1E+10	1	-1E+10	1
4902551	40	C	09/16/2021	15:59	-134.730	49.584	0	453.00	0	4.3200	0	34.0250	0	26.981	0	448.642	0	35.1	4	11.2	4	-1E+10	1	-1E+10	1	-1E+10	1	-1E+10	1	-1E+10	1	-1E+10	1
4902551	40	C	09/16/2021	15:59	-134.730	49.584	0	458.10	0	4.3030	0	34.0320	0	26.988	0	453.688	0	33.9	4	10.8	4	-1E+10	1	-1E+10	1	-1E+10	1	-1E+10	1	-1E+10	1	-1E+10	1
4902551	40	C	09/16/2021	15:59	-134.730	49.584	0	463.30	0	4.2770	0	34.0430	0	27.000	0	458.832	0	33.1	4	10.5	4	-1E+10	1	-1E+10	1	-1E+10	1	-1E+10	1	-1E+10	1	-1E+10	1
4902551	40	C	09/16/2021	15:59	-134.730	49.584	0	468.50	0	4.2600	0	34.0490	0	27.006	0	463.976	0	32.6	4	10.3	4	-1E+10	1	-1E+10	1	-1E+10	1	-1E+10	1	-1E+10	1	-1E+10	1
4902551	40	C	09/16/2021	15:59	-134.730	49.584	0	473.00	0	4.2520	0	34.0510	0	27.009	0	468.427	0	32.0	4	10.2	4	-1E+10	1	-1E+10	1	-1E+10	1	-1E+10	1	-1E+10	1	-1E+10	1
4902551	40	C	09/16/2021	15:59	-134.730	49.584	0	477.70	0	4.2350	0	34.0560	0	27.015	0	473.076	0	31.4	4	10.0	4	-1E+10	1	-1E+10	1	-1E+10	1	-1E+10	1	-1E+10	1	-1E+10	1
4902551	40	C	09/16/2021	15:59	-134.730	49.584	0	482.90	0	4.2130	0	34.0630	0	27.022	0	478.220	0	30.8	4	9.8	4	-1E+10	1	-1E+10	1	-1E+10	1	-1E+10	1	-1E+10	1	-1E+10	1
4902551	40	C	09/16/2021	15:59	-134.730	49.584	0	488.20	0	4.2040	0	34.0650	0	27.025	0	483.463	0	30.3	4	9.6	4	-1E+10	1	-1E+10	1	-1E+10	1	-1E+10	1	-1E+10	1	-1E+10	1
4902551	40	C	09/16/2021	15:59	-134.730	49.584	0	493.10	0	4.1910	0	34.0690	0	27.030	0	488.309	0	29.9	4	9.5	4	-1E+10	1	-1E+10	1	-1E+10	1	-1E+10	1	-1E+10	1	-1E+10	1
4902551	40	C	09/16/2021	15:59	-134.730	49.584	0	498.10	0	4.1770	0	34.0740	0	27.035	0	493.255	0	29.5	4	9.3	4	-1E+10	1	-1E+10	1	-1E+10	1	-1E+10	1	-1E+10	1	-1E+10	1
4902551	40	C	09/16/2021	15:59	-134.730	49.584	0	502.90	0	4.1690	0	34.0770	0	27.038	0	498.002	0	29.1	4	9.2	4	-1E+10	1	-1E+10	1	-1E+10	1	-1E+10	1	-1E+10	1	-1E+10	1
4902551	40	C	09/16/2021	15:59	-134.730	49.584	0	507.70	0	4.1560	0	34.0810	0	27.043	0	502.750	0	28.8	4	9.1	4	-1E+10	1	-1E+10	1	-1E+10	1	-1E+10	1	-1E+10	1	-1E+10	1
4902551	40	C	09/16/2021	15:59	-134.730	49.584	0	513.00	0	4.1460	0	34.0840	0	27.046	0	507.992	0	28.6	4	9.1	4	-1E+10	1	-1E+10	1	-1E+10	1	-1E+10	1	-1E+10	1	-1E+10	1
4902551	40	C	09/16/2021	15:59	-134.730	49.584	0	517.90	0	4.1440	0	34.0850	0	27.047	0	512.838	0	28.5	4	9.0	4	-1E+10	1	-1E+10	1	-1E+10	1	-1E+10	1	-1E+10	1	-1E+10	1
4902551	40	C	09/16/2021	15:59	-134.730	49.584	0	522.90	0	4.1420	0	34.0850	0	27.048	0	517.783	0	28.3	4	9.0	4	-1E+10	1	-1E+10	1	-1E+10	1	-1E+10	1	-1E+10	1	-1E+10	1
4902551	40	C	09/16/2021	15:59	-134.730	49.584	0	527.90	0	4.1410	0	34.0860	0	27.049	0	522.728	0	28.0	4	8.9	4	-1E+10	1	-1E+10	1	-1E+10	1	-1E+10	1	-1E+10	1	-1E+10	1
4902551	40	C	09/16/2021	15:59	-134.730	49.584	0	532.80	0	4.1280	0	34.0900	0	27.053	0	527.573	0	27.6	4	8.7	4	-1E+10	1	-1E+10	1	-1E+10	1	-1E+10	1	-1E+10	1	-1E+10	1
4902551	40	C	09/16/2021	15:59	-134.730	49.584	0	537.90	0	4.1120	0	34.0940	0	27.058	0	532.617	0	27.3	4	8.6	4	-1E+10	1	-1E+10	1	-1E+10	1	-1E+10	1	-1E+10	1	-1E+10	1
4902551	40	C	09/16/2021	15:59	-134.730	49.584	0	543.00	0	4.1000	0	34.0970	0	27.062	0	537.660	0	27.0	4	8.5	4	-1E+10	1	-1E+10	1	-1E+10	1	-1E+10	1	-1E+10	1	-1E+10	1
4902551	40	C	09/16/2021	15:59	-134.730	49.584	0	548.10	0	4.0940	0	34.1000	0	27.065	0	542.703	0	26.7	4	8.5	4	-1E+10	1	-1E+10	1	-1E+10	1	-1E+10	1	-1E+10	1	-1E+10	1
4902551	40	C	09/16/2021	15:59	-134.730	49.584	0	552.80	0	4.0820	0	34.1040	0	27.069	0	547.351	0	26.5	4	8.4	4	-1E+10	1	-1E+10	1	-1E+10	1	-1E+10	1	-1E+10	1	-1E+10	1
4902551	40	C	09/16/2021	15:59	-134.730	49.584	0	557.60	0	4.0660	0	34.1080	0	27.074	0	552.097	0	26.2	4	8.3	4	-1E+10	1	-1E+10	1	-1E+10	1	-1E+10	1	-1E+10	1	-1E+10	1
4902551	40	C	09/16/2021	15:59	-134.730	49.584	0	562.90	0	4.0500	0	34.1120	0	27.079	0	557.338	0	26.0	4	8.2	4	-1E+10	1	-1E+10	1	-1E+10	1	-1E+10	1	-1E+10	1	-1E+10	1
4902551	40	C	09/16/2021	15:59	-134.730	49.584	0	568.30	0	4.0320	0	34.1170	0	27.085	0	562.677	0	25.8	4	8.1	4	-1E+10	1	-1E+10	1	-1E+10	1	-1E+10	1	-1E+10	1	-1E+10	1
4902551	40	C	09/16/2021	15:59	-134.730	49.584	0	573.20	0	4.0230	0	34.1190	0	27.087	0	567.522	0	25.5	4	8.1	4	-1E+10	1	-1E+10	1	-1E+10	1	-1E+10	1	-1E+10	1	-1E+10	1
4902551	40	C	09/16/2021	15:59	-134.730	49.584	0	578.20	0	4.0090	0	34.1230	0	27.092	0	572.465	0	25.2	4	8.0	4	-1E+10	1	-1E+10	1	-1E+10	1	-1E+10	1	-1E+10	1	-1E+10	1
4902551	40	C	09/16/2021	15:59	-134.730	49.584	0	583.20	0	3.9970	0	34.1260	0	27.096	0	577.409	0	24.9	4	7.8	4	-1E+10	1	-1E+10	1	-1E+10	1	-1E+10	1	-1E+10	1	-1E+10	1
4902551	40	C	09/16/2021	15:59	-134.730	49.584	0	587.90	0	3.9820	0	34.1310	0	27.101	0	582.056	0	24.5	4	7.7	4	-1E+10	1	-1E+10	1	-1E+10	1	-1E+10	1	-1E+10	1	-1E+10	1
4902551	40	C	09/16/2021	15:59	-134.730	49.584	0	592.60	0	3.9710	0	34.1340	0	27.105	0	586.702	0	24.1	4	7.6	4	-1E+10	1	-1E+10	1	-1E+10	1	-1E+10	1	-1E+10	1	-1E+10	1
4902551	40	C	09/16/2021	15:59	-134.730	49.584	0	597.70	0	3.9590	0	34.1390	0	27.110	0	591.744	0	23.6	4	7.4	4	-1E+10	1	-1E+10	1	-1E+10	1	-1E+10	1	-1E+10	1	-1E+10	1
4902551	40	C	09/16/2021	15:59	-134.730	49.584	0	603.00	0	3.9460	0	34.1440	0	27.115	0	596.984	0	23.3	4	7.4	4	-1E+10	1	-1E+10	1	-1E+10	1	-1E+10	1	-1E+10	1	-1E+10	1
4902551	40	C	09/16/2021	15:59	-134.730	49.584	0	608.20	0	3.9310	0	34.1480	0	27.120	0	602.125	0	23.1	4	7.3	4	-1E+10	1	-1E+10	1	-1E+10	1	-1E+10	1	-1E+10	1	-1E+10	1
4902551	40	C	09/16/2021	15:59	-134.730	49.584	0	613.00	0	3.9140	0	34.1510	0	27.124	0	606.870	0	22.5	4	7.1	4	-1E+10	1	-1E+10	1	-1E+10	1	-1E+10	1	-1E+10	1	-1E+10	1
4902551	40	C	09/16/2021	15:59	-134.730	49.584	0	617.70	0	3.9050	0	34.1560	0	27.129	0	611.516	0	21.9	4	6.9	4	-1E+10	1	-1E+10	1	-1E+10	1	-1E+10	1	-1E+10	1	-1E+10	1
4902551	40	C	09/16/2021	15:59	-134.730	49.584	0	623.00	0	3.8870	0	34.1620	0	27.136	0	616.755	0	21.4	4	6.7	4	-1E+10	1	-1E+10	1	-1E+10	1	-1E+10	1	-1E+10	1	-1E+10	1
4902551	40	C	09/16/2021	15:59	-134.730	49.584	0	627.80	0	3.8780	0	34.1670	0	27.141	0	621.499	0	21.1	4	6.7	4	-1E+10	1	-1E+10	1	-1E+10	1	-1E+10	1	-1E+10	1	-1E+10	1
4902551	40	C	09/16/2021	15:59	-134.730	49.584	0	632.60	0	3.8680	0	34.1700	0	27.144	0	626.244	0	21.1	4	6.6	4	-1E+10	1	-1E+10	1	-1E+10	1	-1E+10	1	-1E+10	1	-1E+10	1
4902551	40	C	09/16/2021	15:59	-134.730	49.584	0	638.00	0	3.8520	0	34.1730	0	27.148	0	631.582	0	20.8	4	6.5	4	-1E+10	1	-1E+10	1	-1E+10	1	-1E+10	1	-1E+10	1	-1E+10	1
4902551	40	C	09/16/2021	15:59	-134.730	49.584	0	642.90	0	3.8410	0	34.1760	0	27.152	0	636.425	0	20.4	4	6.4	4	-1E+10	1	-1E+10	1	-1E+10	1	-1E+10	1	-1E+10	1	-1E+10	1
4902551	40	C	09/16/2021	15:59	-134.730	49.584	0	647.70	0	3.8240	0	34.1810	0	27.157	0	641.169	0	20.4	4	6.4	4	-1E+10	1	-1E+10	1	-1E+10	1	-1E+10	1	-1E+10	1	-1E+10	1
4902551	40	C	09/16/2021	15:59	-134.730	49.584	0	653.10	0	3.8050	0	34.1850	0	27.162	0	646.506	0	20.1	4	6.3	4	-1E+10	1	-1E+10	1	-1E+10	1	-1E+10	1	-1E+10	1	-1E+10	1
4902551	40	C	09/16/2021	15:59	-134.730	49.584	0	657.90	0	3.7950	0	34.1870	0	27.165	0	651.250	0	19.8	4	6.2	4	-1E+10	1	-1E+10	1	-1E+10	1	-1E+10	1	-1E+10	1	-1E+10	1
4902551	40	C	09/16/2021	15:59	-134.730	49.584	0	662.70	0	3.7880	0	34.1910	0	27.169	0	655.994	0	19.6	4	6.2	4	-1E+10	1	-1E+10	1	-1E+10	1	-1E+10	1	-1E+10	1	-1E+10	1
4902551	40	C	09/16/2021	15:59	-134.730	49.584	0	668.10	0	3.7710	0	34.1940	0	27.173	0	661.331	0	19.5	4	6.1	4	-1E+10	1	-1E+10	1	-1E+10	1	-1E+10	1	-1E+10	1	-1E+10	1
4902551	40	C	09/16/2021	15:59	-134.730	49.584	0	672.90	0	3.7580	0	34.1980	0	27.178	0	666.075	0	19.3	4	6.1	4	-1E+10	1	-1E+10	1	-1E+10	1	-1E+10	1	-1E+10	1	-1E+10	1
4902551	40	C	09/16/2021	15:59	-134.730	49.584	0	677.80	0	3.7340	0	34.2020	0	27.183	0	670.917	0	19.1	4	6.0	4	-1E+10	1	-1E+10	1	-1E+10	1	-1E+10	1	-1E+10	1	-1E+10	1
4902551	40	C	09/16/2021	15:59	-134.730	49.584	0	683.10	0	3.7170	0	34.2060	0	27.188	0	676.155	0	18.9	4	5.9	4	-1E+10	1	-1E+10	1	-1E+10	1	-1E+10	1	-1E+10	1	-1E+10	1
4902551	40	C	09/16/2021	15:59	-134.730	49.584	0	687.90	0	3.7070	0	34.2100	0	27.192	0	680.898	0	18.7	4	5.9	4	-1E+10	1	-1E+10	1	-1E+10	1	-1E+10	1	-1E+10	1	-1E+10	1
4902551	40	C	09/16/2021	15:59	-134.730	49.584	0	692.90	0	3.6970	0	34.2130	0	27.196	0	685.839	0	18.4	4	5.8	4	-1E+10	1	-1E+10	1	-1E+10	1	-1E+10	1	-1E+10	1	-1E+10	1
4902551	40	C	09/16/2021	15:59	-134.730	49.584	0	698.00	0	3.6670	0	34.2190	0	27.203	0	690.879	0	18.1	4	5.7	4	-1E+10	1	-1E+10	1	-1E+10	1	-1E+10	1	-1E+10	1	-1E+10	1
4902551	40	C	09/16/2021	15:59	-134.730	49.584	0	702.80	0	3.6540	0	34.2220	0	27.207	0	695.622	0	17.9	4	5.6	4	-1E+10	1	-1E+10	1	-1E+10	1	-1E+10	1	-1E+10	1	-1E+10	1
4902551	40	C	09/16/2021	15:59	-134.730	49.584	0	707.70	0	3.6450	0	34.2250	0	27.210	0	700.463	0	17.7	4	5.5	4	-1E+10	1	-1E+10	1	-1E+10	1	-1E+10	1	-1E+10	1	-1E+10	1
4902551	40	C	09/16/2021	15:59	-134.730	49.584	0	712.70	0	3.6360	0	34.2280	0	27.214	0	705.404	0	17.5	4	5.5	4	-1E+10	1	-1E+10	1	-1E+10	1	-1E+10	1	-1E+10	1	-1E+10	1
4902551	40	C	09/16/2021	15:59	-134.730	49.584	0	717.80	0	3.6210	0	34.2320	0	27.218	0	710.443	0	17.2	4	5.4	4	-1E+10	1	-1E+10	1	-1E+10	1	-1E+10	1	-1E+10	1	-1E+10	1
4902551	40	C	09/16/2021	15:59	-134.730	49.584	0	723.10	0	3.6040	0	34.2360	0	27.223	0	715.679	0	17.0	4	5.3	4	-1E+10	1	-1E+10	1	-1E+10	1	-1E+10	1	-1E+10	1	-1E+10	1
4902551	40	C	09/16/2021	15:59	-134.730	49.584	0	728.00	0	3.5930	0	34.2400	0	27.228	0	720.521	0	16.7	4	5.2	4	-1E+10	1	-1E+10	1	-1E+10	1	-1E+10	1	-1E+10	1	-1E+10	1
4902551	40	C	09/16/2021	15:59	-134.730	49.584	0	732.90	0	3.5780	0	34.2440	0	27.232	0	725.362	0	16.6	4	5.2	4	-1E+10	1	-1E+10	1	-1E+10	1	-1E+10	1	-1E+10	1	-1E+10	1
4902551	40	C	09/16/2021	15:59	-134.730	49.584	0	738.00	0	3.5660	0	34.2470	0	27.236	0	730.401	0	16.5	4	5.2	4	-1E+10	1	-1E+10	1	-1E+10	1	-1E+10	1	-1E+10	1	-1E+10	1
4902551	40	C	09/16/2021	15:59	-134.730	49.584	0	742.70	0	3.5550	0	34.2490	0	27.238	0	735.044	0	16.3	4	5.1	4	-1E+10	1	-1E+10	1	-1E+10	1	-1E+10	1	-1E+10	1	-1E+10	1
4902551	40	C	09/16/2021	15:59	-134.730	49.584	0	747.90	0	3.5500	0	34.2510	0	27.241	0	740.181	0	16.2	4	5.1	4	-1E+10	1	-1E+10	1	-1E+10	1	-1E+10	1	-1E+10	1	-1E+10	1
4902551	40	C	09/16/2021	15:59	-134.730	49.584	0	753.40	0	3.5400	0	34.2530	0	27.243	0	745.614	0	16.1	4	5.0	4	-1E+10	1	-1E+10	1	-1E+10	1	-1E+10	1	-1E+10	1	-1E+10	1
4902551	40	C	09/16/2021	15:59	-134.730	49.584	0	757.90	0	3.5310	0	34.2550	0	27.246	0	750.060	0	16.0	4	5.0	4	-1E+10	1	-1E+10	1	-1E+10	1	-1E+10	1	-1E+10	1	-1E+10	1
4902551	40	C	09/16/2021	15:59	-134.730	49.584	0	762.50	0	3.5290	0	34.2560	0	27.247	0	754.604	0	15.9	4	5.0	4	-1E+10	1	-1E+10	1	-1E+10	1	-1E+10	1	-1E+10	1	-1E+10	1
4902551	40	C	09/16/2021	15:59	-134.730	49.584	0	767.80	0	3.5280	0	34.2560	0	27.247	0	759.839	0	15.8	4	4.9	4	-1E+10	1	-1E+10	1	-1E+10	1	-1E+10	1	-1E+10	1	-1E+10	1
4902551	40	C	09/16/2021	15:59	-134.730	49.584	0	773.10	0	3.5090	0	34.2610	0	27.253	0	765.075	0	15.6	4	4.9	4	-1E+10	1	-1E+10	1	-1E+10	1	-1E+10	1	-1E+10	1	-1E+10	1
4902551	40	C	09/16/2021	15:59	-134.730	49.584	0	777.90	0	3.5010	0	34.2630	0	27.255	0	769.816	0	15.5	4	4.8	4	-1E+10	1	-1E+10	1	-1E+10	1	-1E+10	1	-1E+10	1	-1E+10	1
4902551	40	C	09/16/2021	15:59	-134.730	49.584	0	782.80	0	3.4930	0	34.2650	0	27.257	0	774.656	0	15.4	4	4.8	4	-1E+10	1	-1E+10	1	-1E+10	1	-1E+10	1	-1E+10	1	-1E+10	1
4902551	40	C	09/16/2021	15:59	-134.730	49.584	0	788.20	0	3.4870	0	34.2670	0	27.260	0	779.990	0	15.3	4	4.8	4	-1E+10	1	-1E+10	1	-1E+10	1	-1E+10	1	-1E+10	1	-1E+10	1
4902551	40	C	09/16/2021	15:59	-134.730	49.584	0	793.10	0	3.4800	0	34.2690	0	27.262	0	784.830	0	15.1	4	4.7	4	-1E+10	1	-1E+10	1	-1E+10	1	-1E+10	1	-1E+10	1	-1E+10	1
4902551	40	C	09/16/2021	15:59	-134.730	49.584	0	798.00	0	3.4660	0	34.2730	0	27.267	0	789.669	0	15.0	4	4.7	4	-1E+10	1	-1E+10	1	-1E+10	1	-1E+10	1	-1E+10	1	-1E+10	1
4902551	40	C	09/16/2021	15:59	-134.730	49.584	0	803.30	0	3.4610	0	34.2740	0	27.268	0	794.904	0	14.9	4	4.7	4	-1E+10	1	-1E+10	1	-1E+10	1	-1E+10	1	-1E+10	1	-1E+10	1
4902551	40	C	09/16/2021	15:59	-134.730	49.584	0	808.10	0	3.4560	0	34.2760	0	27.270	0	799.644	0	14.8	4	4.6	4	-1E+10	1	-1E+10	1	-1E+10	1	-1E+10	1	-1E+10	1	-1E+10	1
4902551	40	C	09/16/2021	15:59	-134.730	49.584	0	813.10	0	3.4420	0	34.2790	0	27.274	0	804.582	0	14.8	4	4.6	4	-1E+10	1	-1E+10	1	-1E+10	1	-1E+10	1	-1E+10	1	-1E+10	1
4902551	40	C	09/16/2021	15:59	-134.730	49.584	0	818.20	0	3.4330	0	34.2800	0	27.275	0	809.619	0	14.7	4	4.6	4	-1E+10	1	-1E+10	1	-1E+10	1	-1E+10	1	-1E+10	1	-1E+10	1
4902551	40	C	09/16/2021	15:59	-134.730	49.584	0	822.90	0	3.4220	0	34.2830	0	27.279	0	814.261	0	14.7	4	4.6	4	-1E+10	1	-1E+10	1	-1E+10	1	-1E+10	1	-1E+10	1	-1E+10	1
4902551	40	C	09/16/2021	15:59	-134.730	49.584	0	827.70	0	3.4150	0	34.2840	0	27.280	0	819.001	0	14.6	4	4.5	4	-1E+10	1	-1E+10	1	-1E+10	1	-1E+10	1	-1E+10	1	-1E+10	1
4902551	40	C	09/16/2021	15:59	-134.730	49.584	0	832.90	0	3.4040	0	34.2870	0	27.284	0	824.136	0	14.5	4	4.5	4	-1E+10	1	-1E+10	1	-1E+10	1	-1E+10	1	-1E+10	1	-1E+10	1
4902551	40	C	09/16/2021	15:59	-134.730	49.584	0	838.10	0	3.3930	0	34.2890	0	27.286	0	829.271	0	14.4	4	4.5	4	-1E+10	1	-1E+10	1	-1E+10	1	-1E+10	1	-1E+10	1	-1E+10	1
4902551	40	C	09/16/2021	15:59	-134.730	49.584	0	842.90	0	3.3860	0	34.2910	0	27.289	0	834.011	0	14.3	4	4.5	4	-1E+10	1	-1E+10	1	-1E+10	1	-1E+10	1	-1E+10	1	-1E+10	1
4902551	40	C	09/16/2021	15:59	-134.730	49.584	0	847.70	0	3.3780	0	34.2920	0	27.290	0	838.751	0	14.3	4	4.4	4	-1E+10	1	-1E+10	1	-1E+10	1	-1E+10	1	-1E+10	1	-1E+10	1
4902551	40	C	09/16/2021	15:59	-134.730	49.584	0	853.00	0	3.3690	0	34.2940	0	27.293	0	843.984	0	14.2	4	4.4	4	-1E+10	1	-1E+10	1	-1E+10	1	-1E+10	1	-1E+10	1	-1E+10	1
4902551	40	C	09/16/2021	15:59	-134.730	49.584	0	857.90	0	3.3530	0	34.2970	0	27.297	0	848.822	0	14.1	4	4.4	4	-1E+10	1	-1E+10	1	-1E+10	1	-1E+10	1	-1E+10	1	-1E+10	1
4902551	40	C	09/16/2021	15:59	-134.730	49.584	0	862.80	0	3.3470	0	34.2990	0	27.299	0	853.660	0	14.1	4	4.4	4	-1E+10	1	-1E+10	1	-1E+10	1	-1E+10	1	-1E+10	1	-1E+10	1
4902551	40	C	09/16/2021	15:59	-134.730	49.584	0	867.80	0	3.3340	0	34.3020	0	27.303	0	858.597	0	14.0	4	4.4	4	-1E+10	1	-1E+10	1	-1E+10	1	-1E+10	1	-1E+10	1	-1E+10	1
4902551	40	C	09/16/2021	15:59	-134.730	49.584	0	872.80	0	3.3270	0	34.3030	0	27.304	0	863.534	0	14.0	4	4.3	4	-1E+10	1	-1E+10	1	-1E+10	1	-1E+10	1	-1E+10	1	-1E+10	1
4902551	40	C	09/16/2021	15:59	-134.730	49.584	0	877.80	0	3.3220	0	34.3040	0	27.305	0	868.470	0	13.9	4	4.3	4	-1E+10	1	-1E+10	1	-1E+10	1	-1E+10	1	-1E+10	1	-1E+10	1
4902551	40	C	09/16/2021	15:59	-134.730	49.584	0	882.70	0	3.3120	0	34.3060	0	27.308	0	873.308	0	13.8	4	4.3	4	-1E+10	1	-1E+10	1	-1E+10	1	-1E+10	1	-1E+10	1	-1E+10	1
4902551	40	C	09/16/2021	15:59	-134.730	49.584	0	887.70	0	3.2990	0	34.3090	0	27.312	0	878.244	0	13.7	4	4.3	4	-1E+10	1	-1E+10	1	-1E+10	1	-1E+10	1	-1E+10	1	-1E+10	1
4902551	40	C	09/16/2021	15:59	-134.730	49.584	0	892.70	0	3.2810	0	34.3130	0	27.316	0	883.181	0	13.7	4	4.3	4	-1E+10	1	-1E+10	1	-1E+10	1	-1E+10	1	-1E+10	1	-1E+10	1
4902551	40	C	09/16/2021	15:59	-134.730	49.584	0	897.80	0	3.2700	0	34.3160	0	27.320	0	888.215	0	13.6	4	4.2	4	-1E+10	1	-1E+10	1	-1E+10	1	-1E+10	1	-1E+10	1	-1E+10	1
4902551	40	C	09/16/2021	15:59	-134.730	49.584	0	902.80	0	3.2610	0	34.3170	0	27.322	0	893.151	0	13.6	4	4.2	4	-1E+10	1	-1E+10	1	-1E+10	1	-1E+10	1	-1E+10	1	-1E+10	1
4902551	40	C	09/16/2021	15:59	-134.730	49.584	0	907.80	0	3.2430	0	34.3220	0	27.327	0	898.087	0	13.5	4	4.2	4	-1E+10	1	-1E+10	1	-1E+10	1	-1E+10	1	-1E+10	1	-1E+10	1
4902551	40	C	09/16/2021	15:59	-134.730	49.584	0	912.90	0	3.2380	0	34.3230	0	27.329	0	903.122	0	13.5	4	4.2	4	-1E+10	1	-1E+10	1	-1E+10	1	-1E+10	1	-1E+10	1	-1E+10	1
4902551	40	C	09/16/2021	15:59	-134.730	49.584	0	918.00	0	3.2320	0	34.3240	0	27.330	0	908.156	0	13.5	4	4.2	4	-1E+10	1	-1E+10	1	-1E+10	1	-1E+10	1	-1E+10	1	-1E+10	1
4902551	40	C	09/16/2021	15:59	-134.730	49.584	0	923.10	0	3.2260	0	34.3250	0	27.331	0	913.190	0	13.4	4	4.2	4	-1E+10	1	-1E+10	1	-1E+10	1	-1E+10	1	-1E+10	1	-1E+10	1
4902551	40	C	09/16/2021	15:59	-134.730	49.584	0	928.20	0	3.2190	0	34.3270	0	27.334	0	918.224	0	13.4	4	4.2	4	-1E+10	1	-1E+10	1	-1E+10	1	-1E+10	1	-1E+10	1	-1E+10	1
4902551	40	C	09/16/2021	15:59	-134.730	49.584	0	932.80	0	3.2130	0	34.3280	0	27.335	0	922.765	0	13.4	4	4.1	4	-1E+10	1	-1E+10	1	-1E+10	1	-1E+10	1	-1E+10	1	-1E+10	1
4902551	40	C	09/16/2021	15:59	-134.730	49.584	0	937.90	0	3.2050	0	34.3300	0	27.337	0	927.798	0	13.3	4	4.1	4	-1E+10	1	-1E+10	1	-1E+10	1	-1E+10	1	-1E+10	1	-1E+10	1
4902551	40	C	09/16/2021	15:59	-134.730	49.584	0	943.10	0	3.1950	0	34.3320	0	27.340	0	932.931	0	13.3	4	4.1	4	-1E+10	1	-1E+10	1	-1E+10	1	-1E+10	1	-1E+10	1	-1E+10	1
4902551	40	C	09/16/2021	15:59	-134.730	49.584	0	947.80	0	3.1850	0	34.3340	0	27.342	0	937.570	0	13.3	4	4.1	4	-1E+10	1	-1E+10	1	-1E+10	1	-1E+10	1	-1E+10	1	-1E+10	1
4902551	40	C	09/16/2021	15:59	-134.730	49.584	0	953.00	0	3.1770	0	34.3360	0	27.345	0	942.702	0	13.2	4	4.1	4	-1E+10	1	-1E+10	1	-1E+10	1	-1E+10	1	-1E+10	1	-1E+10	1
4902551	40	C	09/16/2021	15:59	-134.730	49.584	0	958.20	0	3.1640	0	34.3390	0	27.348	0	947.834	0	13.2	4	4.1	4	-1E+10	1	-1E+10	1	-1E+10	1	-1E+10	1	-1E+10	1	-1E+10	1
4902551	40	C	09/16/2021	15:59	-134.730	49.584	0	963.00	0	3.1600	0	34.3400	0	27.350	0	952.571	0	13.2	4	4.1	4	-1E+10	1	-1E+10	1	-1E+10	1	-1E+10	1	-1E+10	1	-1E+10	1
4902551	40	C	09/16/2021	15:59	-134.730	49.584	0	967.70	0	3.1550	0	34.3410	0	27.351	0	957.209	0	13.1	4	4.1	4	-1E+10	1	-1E+10	1	-1E+10	1	-1E+10	1	-1E+10	1	-1E+10	1
4902551	40	C	09/16/2021	15:59	-134.730	49.584	0	972.90	0	3.1420	0	34.3430	0	27.354	0	962.341	0	13.1	4	4.0	4	-1E+10	1	-1E+10	1	-1E+10	1	-1E+10	1	-1E+10	1	-1E+10	1
4902551	40	C	09/16/2021	15:59	-134.730	49.584	0	978.20	0	3.1330	0	34.3450	0	27.356	0	967.571	0	13.0	4	4.0	4	-1E+10	1	-1E+10	1	-1E+10	1	-1E+10	1	-1E+10	1	-1E+10	1
4902551	40	C	09/16/2021	15:59	-134.730	49.584	0	982.80	0	3.1240	0	34.3470	0	27.359	0	972.111	0	13.0	4	4.0	4	-1E+10	1	-1E+10	1	-1E+10	1	-1E+10	1	-1E+10	1	-1E+10	1
4902551	40	C	09/16/2021	15:59	-134.730	49.584	0	988.00	0	3.1100	0	34.3510	0	27.363	0	977.242	0	12.9	4	4.0	4	-1E+10	1	-1E+10	1	-1E+10	1	-1E+10	1	-1E+10	1	-1E+10	1
4902551	40	C	09/16/2021	15:59	-134.730	49.584	0	993.10	0	3.0960	0	34.3540	0	27.367	0	982.275	0	12.9	4	4.0	4	-1E+10	1	-1E+10	1	-1E+10	1	-1E+10	1	-1E+10	1	-1E+10	1
4902551	40	C	09/16/2021	15:59	-134.730	49.584	0	997.80	0	3.0850	0	34.3570	0	27.370	0	986.912	0	12.9	4	4.0	4	-1E+10	1	-1E+10	1	-1E+10	1	-1E+10	1	-1E+10	1	-1E+10	1
4902551	40	C	09/16/2021	15:59	-134.730	49.584	0	1005.20	0	3.0710	0	34.3600	0	27.374	0	994.214	0	12.9	4	4.0	4	-1E+10	1	-1E+10	1	-1E+10	1	-1E+10	1	-1E+10	1	-1E+10	1
4902551	40	C	09/16/2021	15:59	-134.730	49.584	0	1015.20	0	3.0560	0	34.3620	0	27.377	0	1004.081	0	12.9	4	4.0	4	-1E+10	1	-1E+10	1	-1E+10	1	-1E+10	1	-1E+10	1	-1E+10	1
4902551	40	C	09/16/2021	15:59	-134.730	49.584	0	1025.40	0	3.0380	0	34.3650	0	27.381	0	1014.144	0	12.9	4	4.0	4	-1E+10	1	-1E+10	1	-1E+10	1	-1E+10	1	-1E+10	1	-1E+10	1
4902551	40	C	09/16/2021	15:59	-134.730	49.584	0	1035.70	0	3.0200	0	34.3690	0	27.386	0	1024.306	0	12.8	4	4.0	4	-1E+10	1	-1E+10	1	-1E+10	1	-1E+10	1	-1E+10	1	-1E+10	1
4902551	40	C	09/16/2021	15:59	-134.730	49.584	0	1045.70	0	3.0100	0	34.3730	0	27.390	0	1034.171	0	12.8	4	3.9	4	-1E+10	1	-1E+10	1	-1E+10	1	-1E+10	1	-1E+10	1	-1E+10	1
4902551	40	C	09/16/2021	15:59	-134.730	49.584	0	1055.30	0	2.9970	0	34.3760	0	27.394	0	1043.642	0	12.7	4	3.9	4	-1E+10	1	-1E+10	1	-1E+10	1	-1E+10	1	-1E+10	1	-1E+10	1
4902551	40	C	09/16/2021	15:59	-134.730	49.584	0	1065.10	0	2.9770	0	34.3800	0	27.399	0	1053.309	0	12.6	4	3.9	4	-1E+10	1	-1E+10	1	-1E+10	1	-1E+10	1	-1E+10	1	-1E+10	1
4902551	40	C	09/16/2021	15:59	-134.730	49.584	0	1075.20	0	2.9660	0	34.3850	0	27.404	0	1063.271	0	12.5	4	3.9	4	-1E+10	1	-1E+10	1	-1E+10	1	-1E+10	1	-1E+10	1	-1E+10	1
4902551	40	C	09/16/2021	15:59	-134.730	49.584	0	1085.60	0	2.9550	0	34.3880	0	27.407	0	1073.530	0	12.5	4	3.9	4	-1E+10	1	-1E+10	1	-1E+10	1	-1E+10	1	-1E+10	1	-1E+10	1
4902551	40	C	09/16/2021	15:59	-134.730	49.584	0	1095.90	0	2.9450	0	34.3920	0	27.411	0	1083.688	0	12.5	4	3.8	4	-1E+10	1	-1E+10	1	-1E+10	1	-1E+10	1	-1E+10	1	-1E+10	1
4902551	40	C	09/16/2021	15:59	-134.730	49.584	0	1105.50	0	2.9330	0	34.3950	0	27.415	0	1093.156	0	12.5	4	3.8	4	-1E+10	1	-1E+10	1	-1E+10	1	-1E+10	1	-1E+10	1	-1E+10	1
4902551	40	C	09/16/2021	15:59	-134.730	49.584	0	1115.40	0	2.9160	0	34.3980	0	27.419	0	1102.920	0	12.6	4	3.9	4	-1E+10	1	-1E+10	1	-1E+10	1	-1E+10	1	-1E+10	1	-1E+10	1
4902551	40	C	09/16/2021	15:59	-134.730	49.584	0	1125.10	0	2.9020	0	34.4000	0	27.422	0	1112.486	0	12.6	4	3.9	4	-1E+10	1	-1E+10	1	-1E+10	1	-1E+10	1	-1E+10	1	-1E+10	1
4902551	40	C	09/16/2021	15:59	-134.730	49.584	0	1135.20	0	2.8920	0	34.4020	0	27.424	0	1122.445	0	12.7	4	3.9	4	-1E+10	1	-1E+10	1	-1E+10	1	-1E+10	1	-1E+10	1	-1E+10	1
4902551	40	C	09/16/2021	15:59	-134.730	49.584	0	1145.40	0	2.8800	0	34.4040	0	27.427	0	1132.503	0	12.7	4	3.9	4	-1E+10	1	-1E+10	1	-1E+10	1	-1E+10	1	-1E+10	1	-1E+10	1
4902551	40	C	09/16/2021	15:59	-134.730	49.584	0	1155.60	0	2.8660	0	34.4080	0	27.432	0	1142.561	0	12.8	4	3.9	4	-1E+10	1	-1E+10	1	-1E+10	1	-1E+10	1	-1E+10	1	-1E+10	1
4902551	40	C	09/16/2021	15:59	-134.730	49.584	0	1165.40	0	2.8470	0	34.4100	0	27.435	0	1152.223	0	12.9	4	4.0	4	-1E+10	1	-1E+10	1	-1E+10	1	-1E+10	1	-1E+10	1	-1E+10	1
4902551	40	C	09/16/2021	15:59	-134.730	49.584	0	1175.40	0	2.8380	0	34.4100	0	27.436	0	1162.083	0	13.0	4	4.0	4	-1E+10	1	-1E+10	1	-1E+10	1	-1E+10	1	-1E+10	1	-1E+10	1
4902551	40	C	09/16/2021	15:59	-134.730	49.584	0	1185.60	0	2.8300	0	34.4130	0	27.439	0	1172.139	0	13.0	4	4.0	4	-1E+10	1	-1E+10	1	-1E+10	1	-1E+10	1	-1E+10	1	-1E+10	1
4902551	40	C	09/16/2021	15:59	-134.730	49.584	0	1195.40	0	2.8200	0	34.4170	0	27.443	0	1181.800	0	13.1	4	4.0	4	-1E+10	1	-1E+10	1	-1E+10	1	-1E+10	1	-1E+10	1	-1E+10	1
4902551	40	C	09/16/2021	15:59	-134.730	49.584	0	1205.20	0	2.8010	0	34.4210	0	27.448	0	1191.461	0	13.3	4	4.1	4	-1E+10	1	-1E+10	1	-1E+10	1	-1E+10	1	-1E+10	1	-1E+10	1
4902551	40	C	09/16/2021	15:59	-134.730	49.584	0	1215.20	0	2.7860	0	34.4240	0	27.452	0	1201.318	0	13.4	4	4.1	4	-1E+10	1	-1E+10	1	-1E+10	1	-1E+10	1	-1E+10	1	-1E+10	1
4902551	40	C	09/16/2021	15:59	-134.730	49.584	0	1225.10	0	2.7680	0	34.4280	0	27.457	0	1211.077	0	13.6	4	4.2	4	-1E+10	1	-1E+10	1	-1E+10	1	-1E+10	1	-1E+10	1	-1E+10	1
4902551	40	C	09/16/2021	15:59	-134.730	49.584	0	1235.10	0	2.7480	0	34.4320	0	27.462	0	1220.933	0	13.8	4	4.2	4	-1E+10	1	-1E+10	1	-1E+10	1	-1E+10	1	-1E+10	1	-1E+10	1
4902551	40	C	09/16/2021	15:59	-134.730	49.584	0	1245.00	0	2.7310	0	34.4360	0	27.466	0	1230.691	0	14.0	4	4.3	4	-1E+10	1	-1E+10	1	-1E+10	1	-1E+10	1	-1E+10	1	-1E+10	1
4902551	40	C	09/16/2021	15:59	-134.730	49.584	0	1255.10	0	2.7170	0	34.4380	0	27.469	0	1240.645	0	14.2	4	4.4	4	-1E+10	1	-1E+10	1	-1E+10	1	-1E+10	1	-1E+10	1	-1E+10	1
4902551	40	C	09/16/2021	15:59	-134.730	49.584	0	1265.30	0	2.7010	0	34.4420	0	27.474	0	1250.697	0	14.4	4	4.4	4	-1E+10	1	-1E+10	1	-1E+10	1	-1E+10	1	-1E+10	1	-1E+10	1
4902551	40	C	09/16/2021	15:59	-134.730	49.584	0	1275.60	0	2.6860	0	34.4440	0	27.477	0	1260.847	0	14.7	4	4.5	4	-1E+10	1	-1E+10	1	-1E+10	1	-1E+10	1	-1E+10	1	-1E+10	1
4902551	40	C	09/16/2021	15:59	-134.730	49.584	0	1285.90	0	2.6720	0	34.4470	0	27.480	0	1270.997	0	14.9	4	4.5	4	-1E+10	1	-1E+10	1	-1E+10	1	-1E+10	1	-1E+10	1	-1E+10	1
4902551	40	C	09/16/2021	15:59	-134.730	49.584	0	1295.30	0	2.6580	0	34.4490	0	27.483	0	1280.260	0	15.1	4	4.6	4	-1E+10	1	-1E+10	1	-1E+10	1	-1E+10	1	-1E+10	1	-1E+10	1
4902551	40	C	09/16/2021	15:59	-134.730	49.584	0	1305.10	0	2.6420	0	34.4520	0	27.487	0	1289.916	0	15.4	4	4.7	4	-1E+10	1	-1E+10	1	-1E+10	1	-1E+10	1	-1E+10	1	-1E+10	1
4902551	40	C	09/16/2021	15:59	-134.730	49.584	0	1315.30	0	2.6290	0	34.4540	0	27.490	0	1299.966	0	15.6	4	4.8	4	-1E+10	1	-1E+10	1	-1E+10	1	-1E+10	1	-1E+10	1	-1E+10	1
4902551	40	C	09/16/2021	15:59	-134.730	49.584	0	1325.40	0	2.6080	0	34.4580	0	27.495	0	1309.917	0	16.0	4	4.9	4	-1E+10	1	-1E+10	1	-1E+10	1	-1E+10	1	-1E+10	1	-1E+10	1
4902551	40	C	09/16/2021	15:59	-134.730	49.584	0	1335.40	0	2.5920	0	34.4610	0	27.499	0	1319.769	0	16.3	4	5.0	4	-1E+10	1	-1E+10	1	-1E+10	1	-1E+10	1	-1E+10	1	-1E+10	1
4902551	40	C	09/16/2021	15:59	-134.730	49.584	0	1345.60	0	2.5770	0	34.4630	0	27.502	0	1329.817	0	16.6	4	5.1	4	-1E+10	1	-1E+10	1	-1E+10	1	-1E+10	1	-1E+10	1	-1E+10	1
4902551	40	C	09/16/2021	15:59	-134.730	49.584	0	1355.50	0	2.5670	0	34.4660	0	27.505	0	1339.569	0	17.0	4	5.2	4	-1E+10	1	-1E+10	1	-1E+10	1	-1E+10	1	-1E+10	1	-1E+10	1
4902551	40	C	09/16/2021	15:59	-134.730	49.584	0	1365.10	0	2.5560	0	34.4690	0	27.508	0	1349.026	0	17.4	4	5.3	4	-1E+10	1	-1E+10	1	-1E+10	1	-1E+10	1	-1E+10	1	-1E+10	1
4902551	40	C	09/16/2021	15:59	-134.730	49.584	0	1375.00	0	2.5450	0	34.4710	0	27.511	0	1358.777	0	17.7	4	5.4	4	-1E+10	1	-1E+10	1	-1E+10	1	-1E+10	1	-1E+10	1	-1E+10	1
4902551	40	C	09/16/2021	15:59	-134.730	49.584	0	1385.10	0	2.5370	0	34.4730	0	27.513	0	1368.725	0	18.0	4	5.5	4	-1E+10	1	-1E+10	1	-1E+10	1	-1E+10	1	-1E+10	1	-1E+10	1
4902551	40	C	09/16/2021	15:59	-134.730	49.584	0	1395.40	0	2.5270	0	34.4750	0	27.516	0	1378.870	0	18.5	4	5.6	4	-1E+10	1	-1E+10	1	-1E+10	1	-1E+10	1	-1E+10	1	-1E+10	1
4902551	40	C	09/16/2021	15:59	-134.730	49.584	0	1405.80	0	2.5140	0	34.4780	0	27.519	0	1389.113	0	19.0	4	5.8	4	-1E+10	1	-1E+10	1	-1E+10	1	-1E+10	1	-1E+10	1	-1E+10	1
4902551	40	C	09/16/2021	15:59	-134.730	49.584	0	1415.80	0	2.4980	0	34.4810	0	27.523	0	1398.961	0	19.5	4	5.9	4	-1E+10	1	-1E+10	1	-1E+10	1	-1E+10	1	-1E+10	1	-1E+10	1
4902551	40	C	09/16/2021	15:59	-134.730	49.584	0	1425.40	0	2.4780	0	34.4840	0	27.527	0	1408.415	0	20.0	4	6.1	4	-1E+10	1	-1E+10	1	-1E+10	1	-1E+10	1	-1E+10	1	-1E+10	1
4902551	40	C	09/16/2021	15:59	-134.730	49.584	0	1435.10	0	2.4620	0	34.4870	0	27.531	0	1417.966	0	20.4	4	6.2	4	-1E+10	1	-1E+10	1	-1E+10	1	-1E+10	1	-1E+10	1	-1E+10	1
4902551	40	C	09/16/2021	15:59	-134.730	49.584	0	1445.10	0	2.4510	0	34.4880	0	27.533	0	1427.813	0	20.7	4	6.3	4	-1E+10	1	-1E+10	1	-1E+10	1	-1E+10	1	-1E+10	1	-1E+10	1
4902551	40	C	09/16/2021	15:59	-134.730	49.584	0	1455.20	0	2.4430	0	34.4900	0	27.535	0	1437.758	0	21.0	4	6.4	4	-1E+10	1	-1E+10	1	-1E+10	1	-1E+10	1	-1E+10	1	-1E+10	1
4902551	40	C	09/16/2021	15:59	-134.730	49.584	0	1465.50	0	2.4340	0	34.4910	0	27.537	0	1447.899	0	21.4	4	6.5	4	-1E+10	1	-1E+10	1	-1E+10	1	-1E+10	1	-1E+10	1	-1E+10	1
4902551	40	C	09/16/2021	15:59	-134.730	49.584	0	1475.40	0	2.4230	0	34.4930	0	27.539	0	1457.646	0	21.9	4	6.7	4	-1E+10	1	-1E+10	1	-1E+10	1	-1E+10	1	-1E+10	1	-1E+10	1
4902551	40	C	09/16/2021	15:59	-134.730	49.584	0	1485.40	0	2.4050	0	34.4960	0	27.543	0	1467.491	0	22.5	4	6.9	4	-1E+10	1	-1E+10	1	-1E+10	1	-1E+10	1	-1E+10	1	-1E+10	1
4902551	40	C	09/16/2021	15:59	-134.730	49.584	0	1495.70	0	2.3870	0	34.4990	0	27.547	0	1477.631	0	23.2	4	7.1	4	-1E+10	1	-1E+10	1	-1E+10	1	-1E+10	1	-1E+10	1	-1E+10	1
4902551	40	C	09/16/2021	15:59	-134.730	49.584	0	1505.60	0	2.3660	0	34.5030	0	27.552	0	1487.377	0	23.8	4	7.2	4	-1E+10	1	-1E+10	1	-1E+10	1	-1E+10	1	-1E+10	1	-1E+10	1
4902551	40	C	09/16/2021	15:59	-134.730	49.584	0	1515.40	0	2.3540	0	34.5050	0	27.555	0	1497.023	0	24.3	4	7.4	4	-1E+10	1	-1E+10	1	-1E+10	1	-1E+10	1	-1E+10	1	-1E+10	1
4902551	40	C	09/16/2021	15:59	-134.730	49.584	0	1525.30	0	2.3440	0	34.5070	0	27.557	0	1506.768	0	24.9	4	7.6	4	-1E+10	1	-1E+10	1	-1E+10	1	-1E+10	1	-1E+10	1	-1E+10	1
4902551	40	C	09/16/2021	15:59	-134.730	49.584	0	1535.20	0	2.3270	0	34.5100	0	27.561	0	1516.512	0	25.5	4	7.7	4	-1E+10	1	-1E+10	1	-1E+10	1	-1E+10	1	-1E+10	1	-1E+10	1
4902551	40	C	09/16/2021	15:59	-134.730	49.584	0	1545.40	0	2.3140	0	34.5120	0	27.564	0	1526.551	0	25.9	4	7.9	4	-1E+10	1	-1E+10	1	-1E+10	1	-1E+10	1	-1E+10	1	-1E+10	1
4902551	40	C	09/16/2021	15:59	-134.730	49.584	0	1555.60	0	2.3070	0	34.5130	0	27.565	0	1536.590	0	26.3	4	8.0	4	-1E+10	1	-1E+10	1	-1E+10	1	-1E+10	1	-1E+10	1	-1E+10	1
4902551	40	C	09/16/2021	15:59	-134.730	49.584	0	1565.40	0	2.2920	0	34.5160	0	27.569	0	1546.234	0	26.9	4	8.2	4	-1E+10	1	-1E+10	1	-1E+10	1	-1E+10	1	-1E+10	1	-1E+10	1
4902551	40	C	09/16/2021	15:59	-134.730	49.584	0	1575.40	0	2.2820	0	34.5170	0	27.571	0	1556.075	0	27.3	4	8.3	4	-1E+10	1	-1E+10	1	-1E+10	1	-1E+10	1	-1E+10	1	-1E+10	1
4902551	40	C	09/16/2021	15:59	-134.730	49.584	0	1585.40	0	2.2760	0	34.5180	0	27.572	0	1565.916	0	27.7	4	8.4	4	-1E+10	1	-1E+10	1	-1E+10	1	-1E+10	1	-1E+10	1	-1E+10	1
4902551	40	C	09/16/2021	15:59	-134.730	49.584	0	1595.10	0	2.2670	0	34.5200	0	27.574	0	1575.460	0	28.2	4	8.6	4	-1E+10	1	-1E+10	1	-1E+10	1	-1E+10	1	-1E+10	1	-1E+10	1
4902551	40	C	09/16/2021	15:59	-134.730	49.584	0	1605.40	0	2.2580	0	34.5220	0	27.577	0	1585.595	0	28.8	4	8.7	4	-1E+10	1	-1E+10	1	-1E+10	1	-1E+10	1	-1E+10	1	-1E+10	1
4902551	40	C	09/16/2021	15:59	-134.730	49.584	0	1615.40	0	2.2500	0	34.5240	0	27.579	0	1595.434	0	29.2	4	8.8	4	-1E+10	1	-1E+10	1	-1E+10	1	-1E+10	1	-1E+10	1	-1E+10	1
4902551	40	C	09/16/2021	15:59	-134.730	49.584	0	1625.00	0	2.2440	0	34.5250	0	27.580	0	1604.879	0	29.6	4	9.0	4	-1E+10	1	-1E+10	1	-1E+10	1	-1E+10	1	-1E+10	1	-1E+10	1
4902551	40	C	09/16/2021	15:59	-134.730	49.584	0	1635.40	0	2.2340	0	34.5260	0	27.582	0	1615.111	0	30.2	4	9.1	4	-1E+10	1	-1E+10	1	-1E+10	1	-1E+10	1	-1E+10	1	-1E+10	1
4902551	40	C	09/16/2021	15:59	-134.730	49.584	0	1645.20	0	2.2260	0	34.5280	0	27.584	0	1624.751	0	30.7	4	9.3	4	-1E+10	1	-1E+10	1	-1E+10	1	-1E+10	1	-1E+10	1	-1E+10	1
4902551	40	C	09/16/2021	15:59	-134.730	49.584	0	1655.30	0	2.2140	0	34.5300	0	27.587	0	1634.687	0	31.2	4	9.5	4	-1E+10	1	-1E+10	1	-1E+10	1	-1E+10	1	-1E+10	1	-1E+10	1
4902551	40	C	09/16/2021	15:59	-134.730	49.584	0	1665.30	0	2.2070	0	34.5310	0	27.588	0	1644.524	0	31.8	4	9.6	4	-1E+10	1	-1E+10	1	-1E+10	1	-1E+10	1	-1E+10	1	-1E+10	1
4902551	40	C	09/16/2021	15:59	-134.730	49.584	0	1675.70	0	2.1950	0	34.5330	0	27.591	0	1654.753	0	32.5	4	9.8	4	-1E+10	1	-1E+10	1	-1E+10	1	-1E+10	1	-1E+10	1	-1E+10	1
4902551	40	C	09/16/2021	15:59	-134.730	49.584	0	1685.40	0	2.1840	0	34.5360	0	27.594	0	1664.294	0	33.1	4	10.0	4	-1E+10	1	-1E+10	1	-1E+10	1	-1E+10	1	-1E+10	1	-1E+10	1
4902551	40	C	09/16/2021	15:59	-134.730	49.584	0	1695.50	0	2.1770	0	34.5370	0	27.596	0	1674.228	0	33.5	4	10.2	4	-1E+10	1	-1E+10	1	-1E+10	1	-1E+10	1	-1E+10	1	-1E+10	1
4902551	40	C	09/16/2021	15:59	-134.730	49.584	0	1705.70	0	2.1680	0	34.5390	0	27.598	0	1684.259	0	34.3	4	10.4	4	-1E+10	1	-1E+10	1	-1E+10	1	-1E+10	1	-1E+10	1	-1E+10	1
4902551	40	C	09/16/2021	15:59	-134.730	49.584	0	1715.50	0	2.1550	0	34.5410	0	27.601	0	1693.897	0	35.0	4	10.6	4	-1E+10	1	-1E+10	1	-1E+10	1	-1E+10	1	-1E+10	1	-1E+10	1
4902551	40	C	09/16/2021	15:59	-134.730	49.584	0	1725.50	0	2.1480	0	34.5430	0	27.603	0	1703.731	0	35.4	4	10.7	4	-1E+10	1	-1E+10	1	-1E+10	1	-1E+10	1	-1E+10	1	-1E+10	1
4902551	40	C	09/16/2021	15:59	-134.730	49.584	0	1735.30	0	2.1420	0	34.5440	0	27.604	0	1713.368	0	36.0	4	10.9	4	-1E+10	1	-1E+10	1	-1E+10	1	-1E+10	1	-1E+10	1	-1E+10	1
4902551	40	C	09/16/2021	15:59	-134.730	49.584	0	1745.20	0	2.1320	0	34.5460	0	27.607	0	1723.102	0	36.5	4	11.0	4	-1E+10	1	-1E+10	1	-1E+10	1	-1E+10	1	-1E+10	1	-1E+10	1
4902551	40	C	09/16/2021	15:59	-134.730	49.584	0	1755.30	0	2.1270	0	34.5470	0	27.608	0	1733.033	0	37.1	4	11.2	4	-1E+10	1	-1E+10	1	-1E+10	1	-1E+10	1	-1E+10	1	-1E+10	1
4902551	40	C	09/16/2021	15:59	-134.730	49.584	0	1765.20	0	2.1180	0	34.5490	0	27.610	0	1742.767	0	37.8	4	11.4	4	-1E+10	1	-1E+10	1	-1E+10	1	-1E+10	1	-1E+10	1	-1E+10	1
4902551	40	C	09/16/2021	15:59	-134.730	49.584	0	1775.10	0	2.1070	0	34.5510	0	27.613	0	1752.500	0	38.7	4	11.7	4	-1E+10	1	-1E+10	1	-1E+10	1	-1E+10	1	-1E+10	1	-1E+10	1
4902551	40	C	09/16/2021	15:59	-134.730	49.584	0	1785.20	0	2.0940	0	34.5530	0	27.616	0	1762.430	0	39.6	4	12.0	4	-1E+10	1	-1E+10	1	-1E+10	1	-1E+10	1	-1E+10	1	-1E+10	1
4902551	40	C	09/16/2021	15:59	-134.730	49.584	0	1795.40	0	2.0840	0	34.5550	0	27.618	0	1772.457	0	40.3	4	12.2	4	-1E+10	1	-1E+10	1	-1E+10	1	-1E+10	1	-1E+10	1	-1E+10	1
4902551	40	C	09/16/2021	15:59	-134.730	49.584	0	1805.30	0	2.0760	0	34.5570	0	27.620	0	1782.189	0	41.1	4	12.4	4	-1E+10	1	-1E+10	1	-1E+10	1	-1E+10	1	-1E+10	1	-1E+10	1
4902551	40	C	09/16/2021	15:59	-134.730	49.584	0	1815.30	0	2.0620	0	34.5600	0	27.624	0	1792.019	0	42.0	4	12.7	4	-1E+10	1	-1E+10	1	-1E+10	1	-1E+10	1	-1E+10	1	-1E+10	1
4902551	40	C	09/16/2021	15:59	-134.730	49.584	0	1825.40	0	2.0520	0	34.5610	0	27.626	0	1801.947	0	42.7	4	12.9	4	-1E+10	1	-1E+10	1	-1E+10	1	-1E+10	1	-1E+10	1	-1E+10	1
4902551	40	C	09/16/2021	15:59	-134.730	49.584	0	1835.20	0	2.0420	0	34.5640	0	27.629	0	1811.579	0	43.5	4	13.1	4	-1E+10	1	-1E+10	1	-1E+10	1	-1E+10	1	-1E+10	1	-1E+10	1
4902551	40	C	09/16/2021	15:59	-134.730	49.584	0	1845.00	0	2.0330	0	34.5650	0	27.630	0	1821.211	0	44.2	4	13.3	4	-1E+10	1	-1E+10	1	-1E+10	1	-1E+10	1	-1E+10	1	-1E+10	1
4902551	40	C	09/16/2021	15:59	-134.730	49.584	0	1855.00	0	2.0250	0	34.5670	0	27.633	0	1831.039	0	45.0	4	13.6	4	-1E+10	1	-1E+10	1	-1E+10	1	-1E+10	1	-1E+10	1	-1E+10	1
4902551	40	C	09/16/2021	15:59	-134.730	49.584	0	1865.30	0	2.0150	0	34.5690	0	27.635	0	1841.161	0	45.9	4	13.8	4	-1E+10	1	-1E+10	1	-1E+10	1	-1E+10	1	-1E+10	1	-1E+10	1
4902551	40	C	09/16/2021	15:59	-134.730	49.584	0	1875.50	0	2.0030	0	34.5710	0	27.638	0	1851.185	0	46.5	4	14.0	4	-1E+10	1	-1E+10	1	-1E+10	1	-1E+10	1	-1E+10	1	-1E+10	1
4902551	40	C	09/16/2021	15:59	-134.730	49.584	0	1885.10	0	1.9970	0	34.5720	0	27.639	0	1860.619	0	47.0	4	14.2	4	-1E+10	1	-1E+10	1	-1E+10	1	-1E+10	1	-1E+10	1	-1E+10	1
4902551	40	C	09/16/2021	15:59	-134.730	49.584	0	1895.10	0	1.9930	0	34.5730	0	27.640	0	1870.445	0	47.4	4	14.3	4	-1E+10	1	-1E+10	1	-1E+10	1	-1E+10	1	-1E+10	1	-1E+10	1
4902551	40	C	09/16/2021	15:59	-134.730	49.584	0	1905.30	0	1.9880	0	34.5740	0	27.641	0	1880.467	0	47.9	4	14.4	4	-1E+10	1	-1E+10	1	-1E+10	1	-1E+10	1	-1E+10	1	-1E+10	1
4902551	40	C	09/16/2021	15:59	-134.730	49.584	0	1915.30	0	1.9810	0	34.5750	0	27.643	0	1890.292	0	48.4	4	14.6	4	-1E+10	1	-1E+10	1	-1E+10	1	-1E+10	1	-1E+10	1	-1E+10	1
4902551	40	C	09/16/2021	15:59	-134.730	49.584	0	1925.30	0	1.9730	0	34.5760	0	27.644	0	1900.117	0	48.8	4	14.7	4	-1E+10	1	-1E+10	1	-1E+10	1	-1E+10	1	-1E+10	1	-1E+10	1
4902551	40	C	09/16/2021	15:59	-134.730	49.584	0	1935.50	0	1.9670	0	34.5770	0	27.646	0	1910.138	0	49.4	4	14.9	4	-1E+10	1	-1E+10	1	-1E+10	1	-1E+10	1	-1E+10	1	-1E+10	1
4902551	40	C	09/16/2021	15:59	-134.730	49.584	0	1945.60	0	1.9620	0	34.5790	0	27.648	0	1920.060	0	49.9	4	15.0	4	-1E+10	1	-1E+10	1	-1E+10	1	-1E+10	1	-1E+10	1	-1E+10	1
4902551	40	C	09/16/2021	15:59	-134.730	49.584	0	1955.30	0	1.9540	0	34.5800	0	27.649	0	1929.589	0	50.4	4	15.2	4	-1E+10	1	-1E+10	1	-1E+10	1	-1E+10	1	-1E+10	1	-1E+10	1
4902551	40	C	09/16/2021	15:59	-134.730	49.584	0	1965.10	0	1.9480	0	34.5810	0	27.650	0	1939.215	0	50.7	4	15.3	4	-1E+10	1	-1E+10	1	-1E+10	1	-1E+10	1	-1E+10	1	-1E+10	1
4902551	40	C	09/16/2021	15:59	-134.730	49.584	0	1975.60	0	1.9460	0	34.5820	0	27.651	0	1949.529	0	51.0	4	15.4	4	-1E+10	1	-1E+10	1	-1E+10	1	-1E+10	1	-1E+10	1	-1E+10	1
4902551	40	C	09/16/2021	15:59	-134.730	49.584	0	1985.80	0	1.9420	0	34.5820	0	27.652	0	1959.548	0	51.5	4	15.5	4	-1E+10	1	-1E+10	1	-1E+10	1	-1E+10	1	-1E+10	1	-1E+10	1
4902551	40	C	09/16/2021	15:59	-134.730	49.584	0	1995.70	0	1.9360	0	34.5840	0	27.654	0	1969.271	0	51.9	4	15.6	4	-1E+10	1	-1E+10	1	-1E+10	1	-1E+10	1	-1E+10	1	-1E+10	1
4902551	40	C	09/16/2021	15:59	-134.730	49.584	0	2005.70	0	1.9320	0	34.5850	0	27.655	0	1979.092	0	52.1	4	15.7	4	-1E+10	1	-1E+10	1	-1E+10	1	-1E+10	1	-1E+10	1	-1E+10	1
4902551	40	C	09/16/2021	15:59	-134.730	49.584	0	2015.90	0	1.9270	0	34.5860	0	27.656	0	1989.109	0	51.9	4	15.6	4	-1E+10	1	-1E+10	1	-1E+10	1	-1E+10	1	-1E+10	1	-1E+10	1
4902551	40	C	09/16/2021	15:59	-134.730	49.584	0	2020.70	0	1.9260	0	34.5860	0	27.656	0	1993.823	0	51.5	4	15.5	4	-1E+10	1	-1E+10	1	-1E+10	1	-1E+10	1	-1E+10	1	-1E+10	1
4902551	40	C	09/16/2021	15:59	-134.730	49.584	0																										
4902551	41	C	09/26/2021	21:08	-134.581	49.593	0	0.40	0	14.5800	0	32.1910	0	23.897	0	0.397	0	245.4	4	96.3	4	-1E+10	1	-1E+10	1	-1E+10	1	-1E+10	1	-1E+10	1	-1E+10	1
4902551	41	C	09/26/2021	21:08	-134.581	49.593	0	1.10	0	14.5790	0	32.1890	0	23.896	0	1.091	0	245.6	4	96.4	4	-1E+10	1	-1E+10	1	-1E+10	1	-1E+10	1	-1E+10	1	-1E+10	1
4902551	41	C	09/26/2021	21:08	-134.581	49.593	0	2.00	0	14.5770	0	32.1920	0	23.899	0	1.983	0	245.5	4	96.4	4	-1E+10	1	-1E+10	1	-1E+10	1	-1E+10	1	-1E+10	1	-1E+10	1
4902551	41	C	09/26/2021	21:08	-134.581	49.593	0	2.90	0	14.5760	0	32.1930	0	23.900	0	2.875	0	245.4	4	96.3	4	-1E+10	1	-1E+10	1	-1E+10	1	-1E+10	1	-1E+10	1	-1E+10	1
4902551	41	C	09/26/2021	21:08	-134.581	49.593	0	3.90	0	14.5750	0	32.1940	0	23.901	0	3.867	0	245.4	4	96.3	4	-1E+10	1	-1E+10	1	-1E+10	1	-1E+10	1	-1E+10	1	-1E+10	1
4902551	41	C	09/26/2021	21:08	-134.581	49.593	0	4.80	0	14.5700	0	32.1990	0	23.906	0	4.759	0	245.4	4	96.3	4	-1E+10	1	-1E+10	1	-1E+10	1	-1E+10	1	-1E+10	1	-1E+10	1
4902551	41	C	09/26/2021	21:08	-134.581	49.593	0	5.80	0	14.5710	0	32.1980	0	23.905	0	5.750	0	245.5	4	96.3	4	-1E+10	1	-1E+10	1	-1E+10	1	-1E+10	1	-1E+10	1	-1E+10	1
4902551	41	C	09/26/2021	21:08	-134.581	49.593	0	7.10	0	14.5700	0	32.1980	0	23.905	0	7.039	0	245.5	4	96.3	4	-1E+10	1	-1E+10	1	-1E+10	1	-1E+10	1	-1E+10	1	-1E+10	1
4902551	41	C	09/26/2021	21:08	-134.581	49.593	0	8.10	0	14.5700	0	32.1980	0	23.905	0	8.031	0	245.5	4	96.4	4	-1E+10	1	-1E+10	1	-1E+10	1	-1E+10	1	-1E+10	1	-1E+10	1
4902551	41	C	09/26/2021	21:08	-134.581	49.593	0	8.80	0	14.5710	0	32.1990	0	23.906	0	8.725	0	245.4	4	96.3	4	-1E+10	1	-1E+10	1	-1E+10	1	-1E+10	1	-1E+10	1	-1E+10	1
4902551	41	C	09/26/2021	21:08	-134.581	49.593	0	9.80	0	14.5660	0	32.1990	0	23.907	0	9.716	0	245.6	4	96.4	4	-1E+10	1	-1E+10	1	-1E+10	1	-1E+10	1	-1E+10	1	-1E+10	1
4902551	41	C	09/26/2021	21:08	-134.581	49.593	0	11.00	0	14.5650	0	32.2000	0	23.908	0	10.906	0	245.6	4	96.4	4	-1E+10	1	-1E+10	1	-1E+10	1	-1E+10	1	-1E+10	1	-1E+10	1
4902551	41	C	09/26/2021	21:08	-134.581	49.593	0	11.80	0	14.5660	0	32.1990	0	23.907	0	11.699	0	245.5	4	96.4	4	-1E+10	1	-1E+10	1	-1E+10	1	-1E+10	1	-1E+10	1	-1E+10	1
4902551	41	C	09/26/2021	21:08	-134.581	49.593	0	12.90	0	14.5680	0	32.1980	0	23.906	0	12.789	0	245.6	4	96.4	4	-1E+10	1	-1E+10	1	-1E+10	1	-1E+10	1	-1E+10	1	-1E+10	1
4902551	41	C	09/26/2021	21:08	-134.581	49.593	0	14.10	0	14.5700	0	32.1990	0	23.906	0	13.979	0	245.5	4	96.4	4	-1E+10	1	-1E+10	1	-1E+10	1	-1E+10	1	-1E+10	1	-1E+10	1
4902551	41	C	09/26/2021	21:08	-134.581	49.593	0	14.80	0	14.5700	0	32.1990	0	23.906	0	14.673	0	245.6	4	96.4	4	-1E+10	1	-1E+10	1	-1E+10	1	-1E+10	1	-1E+10	1	-1E+10	1
4902551	41	C	09/26/2021	21:08	-134.581	49.593	0	15.80	0	14.5700	0	32.1980	0	23.905	0	15.665	0	245.6	4	96.4	4	-1E+10	1	-1E+10	1	-1E+10	1	-1E+10	1	-1E+10	1	-1E+10	1
4902551	41	C	09/26/2021	21:08	-134.581	49.593	0	17.00	0	14.5680	0	32.1990	0	23.907	0	16.854	0	245.6	4	96.4	4	-1E+10	1	-1E+10	1	-1E+10	1	-1E+10	1	-1E+10	1	-1E+10	1
4902551	41	C	09/26/2021	21:08	-134.581	49.593	0	17.90	0	14.5660	0	32.1990	0	23.907	0	17.746	0	245.6	4	96.4	4	-1E+10	1	-1E+10	1	-1E+10	1	-1E+10	1	-1E+10	1	-1E+10	1
4902551	41	C	09/26/2021	21:08	-134.581	49.593	0	18.80	0	14.5680	0	32.1990	0	23.907	0	18.639	0	245.7	4	96.4	4	-1E+10	1	-1E+10	1	-1E+10	1	-1E+10	1	-1E+10	1	-1E+10	1
4902551	41	C	09/26/2021	21:08	-134.581	49.593	0	19.90	0	14.5680	0	32.1990	0	23.907	0	19.729	0	245.7	4	96.4	4	-1E+10	1	-1E+10	1	-1E+10	1	-1E+10	1	-1E+10	1	-1E+10	1
4902551	41	C	09/26/2021	21:08	-134.581	49.593	0	20.80	0	14.5640	0	32.1990	0	23.908	0	20.621	0	245.8	4	96.4	4	-1E+10	1	-1E+10	1	-1E+10	1	-1E+10	1	-1E+10	1	-1E+10	1
4902551	41	C	09/26/2021	21:08	-134.581	49.593	0	21.80	0	14.5640	0	32.1990	0	23.908	0	21.613	0	245.8	4	96.5	4	-1E+10	1	-1E+10	1	-1E+10	1	-1E+10	1	-1E+10	1	-1E+10	1
4902551	41	C	09/26/2021	21:08	-134.581	49.593	0	22.90	0	14.5660	0	32.1990	0	23.907	0	22.703	0	245.9	4	96.5	4	-1E+10	1	-1E+10	1	-1E+10	1	-1E+10	1	-1E+10	1	-1E+10	1
4902551	41	C	09/26/2021	21:08	-134.581	49.593	0	23.80	0	14.5650	0	32.1990	0	23.907	0	23.595	0	246.0	4	96.5	4	-1E+10	1	-1E+10	1	-1E+10	1	-1E+10	1	-1E+10	1	-1E+10	1
4902551	41	C	09/26/2021	21:08	-134.581	49.593	0	24.80	0	14.5670	0	32.2000	0	23.908	0	24.587	0	246.1	4	96.6	4	-1E+10	1	-1E+10	1	-1E+10	1	-1E+10	1	-1E+10	1	-1E+10	1
4902551	41	C	09/26/2021	21:08	-134.581	49.593	0	25.80	0	14.5620	0	32.2000	0	23.909	0	25.578	0	246.2	4	96.6	4	-1E+10	1	-1E+10	1	-1E+10	1	-1E+10	1	-1E+10	1	-1E+10	1
4902551	41	C	09/26/2021	21:08	-134.581	49.593	0	26.80	0	14.5710	0	32.1990	0	23.906	0	26.570	0	246.3	4	96.7	4	-1E+10	1	-1E+10	1	-1E+10	1	-1E+10	1	-1E+10	1	-1E+10	1
4902551	41	C	09/26/2021	21:08	-134.581	49.593	0	27.80	0	14.5630	0	32.2000	0	23.909	0	27.561	0	246.5	4	96.7	4	-1E+10	1	-1E+10	1	-1E+10	1	-1E+10	1	-1E+10	1	-1E+10	1
4902551	41	C	09/26/2021	21:08	-134.581	49.593	0	29.10	0	14.5600	0	32.2000	0	23.909	0	28.850	0	246.7	4	96.8	4	-1E+10	1	-1E+10	1	-1E+10	1	-1E+10	1	-1E+10	1	-1E+10	1
4902551	41	C	09/26/2021	21:08	-134.581	49.593	0	30.00	0	14.5620	0	32.2000	0	23.909	0	29.742	0	246.9	4	96.9	4	-1E+10	1	-1E+10	1	-1E+10	1	-1E+10	1	-1E+10	1	-1E+10	1
4902551	41	C	09/26/2021	21:08	-134.581	49.593	0	30.80	0	14.5610	0	32.2000	0	23.909	0	30.535	0	247.2	4	97.0	4	-1E+10	1	-1E+10	1	-1E+10	1	-1E+10	1	-1E+10	1	-1E+10	1
4902551	41	C	09/26/2021	21:08	-134.581	49.593	0	32.10	0	14.5660	0	32.1980	0	23.907	0	31.824	0	247.9	4	97.3	4	-1E+10	1	-1E+10	1	-1E+10	1	-1E+10	1	-1E+10	1	-1E+10	1
4902551	41	C	09/26/2021	21:08	-134.581	49.593	0	32.90	0	14.5360	0	32.2040	0	23.918	0	32.617	0	248.4	4	97.4	4	-1E+10	1	-1E+10	1	-1E+10	1	-1E+10	1	-1E+10	1	-1E+10	1
4902551	41	C	09/26/2021	21:08	-134.581	49.593	0	33.90	0	14.4720	0	32.2120	0	23.937	0	33.608	0	249.2	4	97.6	4	-1E+10	1	-1E+10	1	-1E+10	1	-1E+10	1	-1E+10	1	-1E+10	1
4902551	41	C	09/26/2021	21:08	-134.581	49.593	0	35.20	0	14.4640	0	32.2100	0	23.937	0	34.897	0	250.3	4	98.0	4	-1E+10	1	-1E+10	1	-1E+10	1	-1E+10	1	-1E+10	1	-1E+10	1
4902551	41	C	09/26/2021	21:08	-134.581	49.593	0	35.90	0	14.4650	0	32.2090	0	23.936	0	35.590	0	251.0	4	98.3	4	-1E+10	1	-1E+10	1	-1E+10	1	-1E+10	1	-1E+10	1	-1E+10	1
4902551	41	C	09/26/2021	21:08	-134.581	49.593	0	36.90	0	14.3340	0	32.2200	0	23.972	0	36.582	0	252.8	4	98.7	4	-1E+10	1	-1E+10	1	-1E+10	1	-1E+10	1	-1E+10	1	-1E+10	1
4902551	41	C	09/26/2021	21:08	-134.581	49.593	0	38.00	0	13.4160	0	32.2550	0	24.187	0	37.672	0	263.3	4	101.0	4	-1E+10	1	-1E+10	1	-1E+10	1	-1E+10	1	-1E+10	1	-1E+10	1
4902551	41	C	09/26/2021	21:08	-134.581	49.593	0	38.80	0	13.0020	0	32.2630	0	24.275	0	38.465	0	267.2	4	101.6	4	-1E+10	1	-1E+10	1	-1E+10	1	-1E+10	1	-1E+10	1	-1E+10	1
4902551	41	C	09/26/2021	21:08	-134.581	49.593	0	39.70	0	12.6520	0	32.2780	0	24.354	0	39.357	0	269.5	4	101.8	4	-1E+10	1	-1E+10	1	-1E+10	1	-1E+10	1	-1E+10	1	-1E+10	1
4902551	41	C	09/26/2021	21:08	-134.581	49.593	0	40.90	0	11.9830	0	32.3100	0	24.505	0	40.547	0	272.3	4	101.4	4	-1E+10	1	-1E+10	1	-1E+10	1	-1E+10	1	-1E+10	1	-1E+10	1
4902551	41	C	09/26/2021	21:08	-134.581	49.593	0	42.00	0	11.6210	0	32.3100	0	24.572	0	41.637	0	273.8	4	101.3	4	-1E+10	1	-1E+10	1	-1E+10	1	-1E+10	1	-1E+10	1	-1E+10	1
4902551	41	C	09/26/2021	21:08	-134.581	49.593	0	42.90	0	11.2240	0	32.2990	0	24.635	0	42.529	0	276.0	4	101.2	4	-1E+10	1	-1E+10	1	-1E+10	1	-1E+10	1	-1E+10	1	-1E+10	1
4902551	41	C	09/26/2021	21:08	-134.581	49.593	0	44.10	0	9.5880	0	32.3570	0	24.957	0	43.719	0	281.5	4	99.7	4	-1E+10	1	-1E+10	1	-1E+10	1	-1E+10	1	-1E+10	1	-1E+10	1
4902551	41	C	09/26/2021	21:08	-134.581	49.593	0	45.00	0	9.2270	0	32.3670	0	25.023	0	44.611	0	282.2	4	99.2	4	-1E+10	1	-1E+10	1	-1E+10	1	-1E+10	1	-1E+10	1	-1E+10	1
4902551	41	C	09/26/2021	21:08	-134.581	49.593	0	45.90	0	9.1570	0	32.3670	0	25.034	0	45.503	0	281.9	4	98.9	4	-1E+10	1	-1E+10	1	-1E+10	1	-1E+10	1	-1E+10	1	-1E+10	1
4902551	41	C	09/26/2021	21:08	-134.581	49.593	0	46.90	0	9.1300	0	32.3660	0	25.037	0	46.494	0	281.2	4	98.6	4	-1E+10	1	-1E+10	1	-1E+10	1	-1E+10	1	-1E+10	1	-1E+10	1
4902551	41	C	09/26/2021	21:08	-134.581	49.593	0	48.00	0	9.0520	0	32.3670	0	25.050	0	47.585	0	280.4	4	98.1	4	-1E+10	1	-1E+10	1	-1E+10	1	-1E+10	1	-1E+10	1	-1E+10	1
4902551	41	C	09/26/2021	21:08	-134.581	49.593	0	48.90	0	8.9960	0	32.3650	0	25.057	0	48.477	0	279.8	4	97.8	4	-1E+10	1	-1E+10	1	-1E+10	1	-1E+10	1	-1E+10	1	-1E+10	1
4902551	41	C	09/26/2021	21:08	-134.581	49.593	0	49.70	0	8.9240	0	32.3740	0	25.075	0	49.270	0	279.4	4	97.5	4	-1E+10	1	-1E+10	1	-1E+10	1	-1E+10	1	-1E+10	1	-1E+10	1
4902551	41	C	09/26/2021	21:08	-134.581	49.593	0	50.90	0	8.6670	0	32.3800	0	25.119	0	50.459	0	279.5	4	97.0	4	-1E+10	1	-1E+10	1	-1E+10	1	-1E+10	1	-1E+10	1	-1E+10	1
4902551	41	C	09/26/2021	21:08	-134.581	49.593	0	52.00	0	8.5280	0	32.3880	0	25.146	0	51.550	0	279.2	4	96.6	4	-1E+10	1	-1E+10	1	-1E+10	1	-1E+10	1	-1E+10	1	-1E+10	1
4902551	41	C	09/26/2021	21:08	-134.581	49.593	0	52.90	0	8.4110	0	32.3870	0	25.163	0	52.442	0	278.9	4	96.3	4	-1E+10	1	-1E+10	1	-1E+10	1	-1E+10	1	-1E+10	1	-1E+10	1
4902551	41	C	09/26/2021	21:08	-134.581	49.593	0	53.70	0	8.2970	0	32.3890	0	25.182	0	53.235	0	278.8	4	96.0	4	-1E+10	1	-1E+10	1	-1E+10	1	-1E+10	1	-1E+10	1	-1E+10	1
4902551	41	C	09/26/2021	21:08	-134.581	49.593	0	54.80	0	8.1010	0	32.3970	0	25.217	0	54.325	0	278.6	4	95.5	4	-1E+10	1	-1E+10	1	-1E+10	1	-1E+10	1	-1E+10	1	-1E+10	1
4902551	41	C	09/26/2021	21:08	-134.581	49.593	0	55.80	0	8.0770	0	32.3940	0	25.218	0	55.316	0	277.9	4	95.2	4	-1E+10	1	-1E+10	1	-1E+10	1	-1E+10	1	-1E+10	1	-1E+10	1
4902551	41	C	09/26/2021	21:08	-134.581	49.593	0	57.00	0	8.0010	0	32.4010	0	25.234	0	56.506	0	277.2	4	94.8	4	-1E+10	1	-1E+10	1	-1E+10	1	-1E+10	1	-1E+10	1	-1E+10	1
4902551	41	C	09/26/2021	21:08	-134.581	49.593	0	57.80	0	7.9250	0	32.3980	0	25.243	0	57.299	0	277.1	4	94.6	4	-1E+10	1	-1E+10	1	-1E+10	1	-1E+10	1	-1E+10	1	-1E+10	1
4902551	41	C	09/26/2021	21:08	-134.581	49.593	0	58.80	0	7.8490	0	32.4000	0	25.255	0	58.290	0	276.4	4	94.2	4	-1E+10	1	-1E+10	1	-1E+10	1	-1E+10	1	-1E+10	1	-1E+10	1
4902551	41	C	09/26/2021	21:08	-134.581	49.593	0	59.90	0	7.7620	0	32.4040	0	25.271	0	59.380	0	275.9	4	93.9	4	-1E+10	1	-1E+10	1	-1E+10	1	-1E+10	1	-1E+10	1	-1E+10	1
4902551	41	C	09/26/2021	21:08	-134.581	49.593	0	60.90	0	7.6530	0	32.4080	0	25.289	0	60.371	0	275.8	4	93.6	4	-1E+10	1	-1E+10	1	-1E+10	1	-1E+10	1	-1E+10	1	-1E+10	1
4902551	41	C	09/26/2021	21:08	-134.581	49.593	0	61.90	0	7.5810	0	32.4090	0	25.300	0	61.362	0	275.5	4	93.3	4	-1E+10	1	-1E+10	1	-1E+10	1	-1E+10	1	-1E+10	1	-1E+10	1
4902551	41	C	09/26/2021	21:08	-134.581	49.593	0	63.00	0	7.5060	0	32.4130	0	25.314	0	62.453	0	275.1	4	93.1	4	-1E+10	1	-1E+10	1	-1E+10	1	-1E+10	1	-1E+10	1	-1E+10	1
4902551	41	C	09/26/2021	21:08	-134.581	49.593	0	64.10	0	7.4710	0	32.4120	0	25.318	0	63.543	0	274.8	4	92.9	4	-1E+10	1	-1E+10	1	-1E+10	1	-1E+10	1	-1E+10	1	-1E+10	1
4902551	41	C	09/26/2021	21:08	-134.581	49.593	0	65.00	0	7.4110	0	32.4130	0	25.327	0	64.435	0	274.5	4	92.6	4	-1E+10	1	-1E+10	1	-1E+10	1	-1E+10	1	-1E+10	1	-1E+10	1
4902551	41	C	09/26/2021	21:08	-134.581	49.593	0	66.10	0	7.3390	0	32.4180	0	25.341	0	65.525	0	274.1	4	92.4	4	-1E+10	1	-1E+10	1	-1E+10	1	-1E+10	1	-1E+10	1	-1E+10	1
4902551	41	C	09/26/2021	21:08	-134.581	49.593	0	66.80	0	7.2960	0	32.4190	0	25.347	0	66.219	0	273.7	4	92.2	4	-1E+10	1	-1E+10	1	-1E+10	1	-1E+10	1	-1E+10	1	-1E+10	1
4902551	41	C	09/26/2021	21:08	-134.581	49.593	0	68.00	0	7.2340	0	32.4220	0	25.358	0	67.408	0	273.3	4	91.9	4	-1E+10	1	-1E+10	1	-1E+10	1	-1E+10	1	-1E+10	1	-1E+10	1
4902551	41	C	09/26/2021	21:08	-134.581	49.593	0	69.30	0	7.1780	0	32.4250	0	25.368	0	68.697	0	272.9	4	91.6	4	-1E+10	1	-1E+10	1	-1E+10	1	-1E+10	1	-1E+10	1	-1E+10	1
4902551	41	C	09/26/2021	21:08	-134.581	49.593	0	70.10	0	7.1350	0	32.4260	0	25.375	0	69.490	0	272.9	4	91.5	4	-1E+10	1	-1E+10	1	-1E+10	1	-1E+10	1	-1E+10	1	-1E+10	1
4902551	41	C	09/26/2021	21:08	-134.581	49.593	0	70.90	0	7.0750	0	32.4290	0	25.385	0	70.283	0	272.7	4	91.4	4	-1E+10	1	-1E+10	1	-1E+10	1	-1E+10	1	-1E+10	1	-1E+10	1
4902551	41	C	09/26/2021	21:08	-134.581	49.593	0	72.00	0	7.0340	0	32.4300	0	25.391	0	71.373	0	272.6	4	91.2	4	-1E+10	1	-1E+10	1	-1E+10	1	-1E+10	1	-1E+10	1	-1E+10	1
4902551	41	C	09/26/2021	21:08	-134.581	49.593	0	73.10	0	7.0090	0	32.4310	0	25.395	0	72.463	0	272.4	4	91.1	4	-1E+10	1	-1E+10	1	-1E+10	1	-1E+10	1	-1E+10	1	-1E+10	1
4902551	41	C	09/26/2021	21:08	-134.581	49.593	0	73.80	0	6.9890	0	32.4330	0	25.400	0	73.157	0	272.4	4	91.1	4	-1E+10	1	-1E+10	1	-1E+10	1	-1E+10	1	-1E+10	1	-1E+10	1
4902551	41	C	09/26/2021	21:08	-134.581	49.593	0	74.70	0	6.9500	0	32.4340	0	25.406	0	74.049	0	272.3	4	91.0	4	-1E+10	1	-1E+10	1	-1E+10	1	-1E+10	1	-1E+10	1	-1E+10	1
4902551	41	C	09/26/2021	21:08	-134.581	49.593	0	76.10	0	6.9310	0	32.4340	0	25.408	0	75.436	0	272.3	4	90.9	4	-1E+10	1	-1E+10	1	-1E+10	1	-1E+10	1	-1E+10	1	-1E+10	1
4902551	41	C	09/26/2021	21:08	-134.581	49.593	0	77.10	0	6.9140	0	32.4350	0	25.411	0	76.428	0	272.2	4	90.9	4	-1E+10	1	-1E+10	1	-1E+10	1	-1E+10	1	-1E+10	1	-1E+10	1
4902551	41	C	09/26/2021	21:08	-134.581	49.593	0	78.10	0	6.8910	0	32.4370	0	25.416	0	77.419	0	272.2	4	90.8	4	-1E+10	1	-1E+10	1	-1E+10	1	-1E+10	1	-1E+10	1	-1E+10	1
4902551	41	C	09/26/2021	21:08	-134.581	49.593	0	79.30	0	6.8790	0	32.4370	0	25.417	0	78.608	0	271.8	4	90.7	4	-1E+10	1	-1E+10	1	-1E+10	1	-1E+10	1	-1E+10	1	-1E+10	1
4902551	41	C	09/26/2021	21:08	-134.581	49.593	0	80.00	0	6.8720	0	32.4360	0	25.418	0	79.302	0	271.9	4	90.7	4	-1E+10	1	-1E+10	1	-1E+10	1	-1E+10	1	-1E+10	1	-1E+10	1
4902551	41	C	09/26/2021	21:08	-134.581	49.593	0	80.90	0	6.8650	0	32.4360	0	25.419	0	80.194	0	271.7	4	90.6	4	-1E+10	1	-1E+10	1	-1E+10	1	-1E+10	1	-1E+10	1	-1E+10	1
4902551	41	C	09/26/2021	21:08	-134.581	49.593	0	82.10	0	6.8410	0	32.4370	0	25.422	0	81.383	0	271.3	4	90.4	4	-1E+10	1	-1E+10	1	-1E+10	1	-1E+10	1	-1E+10	1	-1E+10	1
4902551	41	C	09/26/2021	21:08	-134.581	49.593	0	82.80	0	6.7790	0	32.4420	0	25.435	0	82.077	0	271.3	4	90.3	4	-1E+10	1	-1E+10	1	-1E+10	1	-1E+10	1	-1E+10	1	-1E+10	1
4902551	41	C	09/26/2021	21:08	-134.581	49.593	0	83.90	0	6.7270	0	32.4430	0	25.442	0	83.167	0	271.3	4	90.2	4	-1E+10	1	-1E+10	1	-1E+10	1	-1E+10	1	-1E+10	1	-1E+10	1
4902551	41	C	09/26/2021	21:08	-134.581	49.593	0	84.80	0	6.6750	0	32.4460	0	25.451	0	84.059	0	271.3	4	90.0	4	-1E+10	1	-1E+10	1	-1E+10	1	-1E+10	1	-1E+10	1	-1E+10	1
4902551	41	C	09/26/2021	21:08	-134.581	49.593	0	85.80	0	6.6350	0	32.4500	0	25.460	0	85.050	0	271.3	4	90.0	4	-1E+10	1	-1E+10	1	-1E+10	1	-1E+10	1	-1E+10	1	-1E+10	1
4902551	41	C	09/26/2021	21:08	-134.581	49.593	0	86.80	0	6.6220	0	32.4510	0	25.462	0	86.041	0	271.2	4	89.9	4	-1E+10	1	-1E+10	1	-1E+10	1	-1E+10	1	-1E+10	1	-1E+10	1
4902551	41	C	09/26/2021	21:08	-134.581	49.593	0	87.80	0	6.6190	0	32.4510	0	25.462	0	87.032	0	270.9	4	89.8	4	-1E+10	1	-1E+10	1	-1E+10	1	-1E+10	1	-1E+10	1	-1E+10	1
4902551	41	C	09/26/2021	21:08	-134.581	49.593	0	88.80	0	6.6050	0	32.4520	0	25.465	0	88.023	0	270.8	4	89.8	4	-1E+10	1	-1E+10	1	-1E+10	1	-1E+10	1	-1E+10	1	-1E+10	1
4902551	41	C	09/26/2021	21:08	-134.581	49.593	0	89.80	0	6.5890	0	32.4530	0	25.468	0	89.014	0	270.6	4	89.6	4	-1E+10	1	-1E+10	1	-1E+10	1	-1E+10	1	-1E+10	1	-1E+10	1
4902551	41	C	09/26/2021	21:08	-134.581	49.593	0	90.70	0	6.5700	0	32.4540	0	25.471	0	89.906	0	270.2	4	89.5	4	-1E+10	1	-1E+10	1	-1E+10	1	-1E+10	1	-1E+10	1	-1E+10	1
4902551	41	C	09/26/2021	21:08	-134.581	49.593	0	91.70	0	6.5360	0	32.4560	0	25.477	0	90.897	0	269.9	4	89.3	4	-1E+10	1	-1E+10	1	-1E+10	1	-1E+10	1	-1E+10	1	-1E+10	1
4902551	41	C	09/26/2021	21:08	-134.581	49.593	0	92.70	0	6.5210	0	32.4570	0	25.480	0	91.888	0	269.5	4	89.1	4	-1E+10	1	-1E+10	1	-1E+10	1	-1E+10	1	-1E+10	1	-1E+10	1
4902551	41	C	09/26/2021	21:08	-134.581	49.593	0	93.70	0	6.4870	0	32.4630	0	25.489	0	92.879	0	269.0	4	88.9	4	-1E+10	1	-1E+10	1	-1E+10	1	-1E+10	1	-1E+10	1	-1E+10	1
4902551	41	C	09/26/2021	21:08	-134.581	49.593	0	94.80	0	6.4240	0	32.4720	0	25.504	0	93.969	0	268.9	4	88.8	4	-1E+10	1	-1E+10	1	-1E+10	1	-1E+10	1	-1E+10	1	-1E+10	1
4902551	41	C	09/26/2021	21:08	-134.581	49.593	0	95.80	0	6.3870	0	32.4770	0	25.513	0	94.960	0	268.4	4	88.5	4	-1E+10	1	-1E+10	1	-1E+10	1	-1E+10	1	-1E+10	1	-1E+10	1
4902551	41	C	09/26/2021	21:08	-134.581	49.593	0	96.80	0	6.3770	0	32.4760	0	25.513	0	95.951	0	267.9	4	88.3	4	-1E+10	1	-1E+10	1	-1E+10	1	-1E+10	1	-1E+10	1	-1E+10	1
4902551	41	C	09/26/2021	21:08	-134.581	49.593	0	97.90	0	6.3290	0	32.4820	0	25.524	0	97.041	0	266.9	4	87.9	4	-1E+10	1	-1E+10	1	-1E+10	1	-1E+10	1	-1E+10	1	-1E+10	1
4902551	41	C	09/26/2021	21:08	-134.581	49.593	0	99.00	0	6.2920	0	32.4870	0	25.532	0	98.131	0	264.8	4	87.2	4	-1E+10	1	-1E+10	1	-1E+10	1	-1E+10	1	-1E+10	1	-1E+10	1
4902551	41	C	09/26/2021	21:08	-134.581	49.593	0	99.80	0	6.2740	0	32.4920	0	25.539	0	98.924	0	263.0	4	86.5	4	-1E+10	1	-1E+10	1	-1E+10	1	-1E+10	1	-1E+10	1	-1E+10	1
4902551	41	C	09/26/2021	21:08	-134.581	49.593	0	101.00	0	6.2390	0	32.5000	0	25.549	0	100.113	0	260.8	4	85.7	4	-1E+10	1	-1E+10	1	-1E+10	1	-1E+10	1	-1E+10	1	-1E+10	1
4902551	41	C	09/26/2021	21:08	-134.581	49.593	0	102.10	0	6.2250	0	32.5110	0	25.560	0	101.203	0	258.7	4	85.0	4	-1E+10	1	-1E+10	1	-1E+10	1	-1E+10	1	-1E+10	1	-1E+10	1
4902551	41	C	09/26/2021	21:08	-134.581	49.593	0	103.00	0	6.2290	0	32.5160	0	25.563	0	102.095	0	256.8	4	84.4	4	-1E+10	1	-1E+10	1	-1E+10	1	-1E+10	1	-1E+10	1	-1E+10	1
4902551	41	C	09/26/2021	21:08	-134.581	49.593	0	103.90	0	6.2260	0	32.5240	0	25.570	0	102.987	0	254.8	4	83.8	4	-1E+10	1	-1E+10	1	-1E+10	1	-1E+10	1	-1E+10	1	-1E+10	1
4902551	41	C	09/26/2021	21:08	-134.581	49.593	0	104.90	0	6.2270	0	32.5570	0	25.596	0	103.978	0	252.9	4	83.1	4	-1E+10	1	-1E+10	1	-1E+10	1	-1E+10	1	-1E+10	1	-1E+10	1
4902551	41	C	09/26/2021	21:08	-134.581	49.593	0	106.00	0	6.2290	0	32.5660	0	25.603	0	105.068	0	250.3	4	82.3	4	-1E+10	1	-1E+10	1	-1E+10	1	-1E+10	1	-1E+10	1	-1E+10	1
4902551	41	C	09/26/2021	21:08	-134.581	49.593	0	107.20	0	6.2640	0	32.5880	0	25.616	0	106.257	0	248.0	4	81.6	4	-1E+10	1	-1E+10	1	-1E+10	1	-1E+10	1	-1E+10	1	-1E+10	1
4902551	41	C	09/26/2021	21:08	-134.581	49.593	0	107.90	0	6.2620	0	32.5980	0	25.624	0	106.951	0	246.6	4	81.2	4	-1E+10	1	-1E+10	1	-1E+10	1	-1E+10	1	-1E+10	1	-1E+10	1
4902551	41	C	09/26/2021	21:08	-134.581	49.593	0	109.00	0	6.2420	0	32.6130	0	25.638	0	108.041	0	244.2	4	80.4	4	-1E+10	1	-1E+10	1	-1E+10	1	-1E+10	1	-1E+10	1	-1E+10	1
4902551	41	C	09/26/2021	21:08	-134.581	49.593	0	110.10	0	6.2280	0	32.6200	0	25.645	0	109.131	0	241.3	4	79.4	4	-1E+10	1	-1E+10	1	-1E+10	1	-1E+10	1	-1E+10	1	-1E+10	1
4902551	41	C	09/26/2021	21:08	-134.581	49.593	0	110.90	0	6.2300	0	32.6450	0	25.665	0	109.924	0	239.1	4	78.7	4	-1E+10	1	-1E+10	1	-1E+10	1	-1E+10	1	-1E+10	1	-1E+10	1
4902551	41	C	09/26/2021	21:08	-134.581	49.593	0	112.10	0	6.2490	0	32.6660	0	25.679	0	111.113	0	235.4	4	77.5	4	-1E+10	1	-1E+10	1	-1E+10	1	-1E+10	1	-1E+10	1	-1E+10	1
4902551	41	C	09/26/2021	21:08	-134.581	49.593	0	112.90	0	6.2570	0	32.6800	0	25.689	0	111.906	0	232.6	4	76.6	4	-1E+10	1	-1E+10	1	-1E+10	1	-1E+10	1	-1E+10	1	-1E+10	1
4902551	41	C	09/26/2021	21:08	-134.581	49.593	0	113.90	0	6.2650	0	32.6980	0	25.702	0	112.897	0	228.9	4	75.4	4	-1E+10	1	-1E+10	1	-1E+10	1	-1E+10	1	-1E+10	1	-1E+10	1
4902551	41	C	09/26/2021	21:08	-134.581	49.593	0	114.80	0	6.2720	0	32.7160	0	25.716	0	113.788	0	225.8	4	74.4	4	-1E+10	1	-1E+10	1	-1E+10	1	-1E+10	1	-1E+10	1	-1E+10	1
4902551	41	C	09/26/2021	21:08	-134.581	49.593	0	116.00	0	6.2790	0	32.7410	0	25.735	0	114.977	0	221.6	4	73.1	4	-1E+10	1	-1E+10	1	-1E+10	1	-1E+10	1	-1E+10	1	-1E+10	1
4902551	41	C	09/26/2021	21:08	-134.581	49.593	0	116.80	0	6.3010	0	32.7820	0	25.764	0	115.770	0	219.2	4	72.3	4	-1E+10	1	-1E+10	1	-1E+10	1	-1E+10	1	-1E+10	1	-1E+10	1
4902551	41	C	09/26/2021	21:08	-134.581	49.593	0	117.80	0	6.3210	0	32.8270	0	25.797	0	116.761	0	216.4	4	71.4	4	-1E+10	1	-1E+10	1	-1E+10	1	-1E+10	1	-1E+10	1	-1E+10	1
4902551	41	C	09/26/2021	21:08	-134.581	49.593	0	119.00	0	6.3310	0	32.8780	0	25.836	0	117.950	0	213.5	4	70.5	4	-1E+10	1	-1E+10	1	-1E+10	1	-1E+10	1	-1E+10	1	-1E+10	1
4902551	41	C	09/26/2021	21:08	-134.581	49.593	0	119.90	0	6.2920	0	32.8940	0	25.854	0	118.842	0	210.5	4	69.5	4	-1E+10	1	-1E+10	1	-1E+10	1	-1E+10	1	-1E+10	1	-1E+10	1
4902551	41	C	09/26/2021	21:08	-134.581	49.593	0	121.00	0	6.2310	0	32.9110	0	25.875	0	119.932	0	207.6	4	68.4	4	-1E+10	1	-1E+10	1	-1E+10	1	-1E+10	1	-1E+10	1	-1E+10	1
4902551	41	C	09/26/2021	21:08	-134.581	49.593	0	122.10	0	6.1830	0	32.9220	0	25.890	0	121.022	0	203.7	4	67.1	4	-1E+10	1	-1E+10	1	-1E+10	1	-1E+10	1	-1E+10	1	-1E+10	1
4902551	41	C	09/26/2021	21:08	-134.581	49.593	0	123.10	0	6.1260	0	32.9690	0	25.934	0	122.013	0	199.5	4	65.6	4	-1E+10	1	-1E+10	1	-1E+10	1	-1E+10	1	-1E+10	1	-1E+10	1
4902551	41	C	09/26/2021	21:08	-134.581	49.593	0	123.80	0	6.1240	0	32.9820	0	25.944	0	122.706	0	197.2	4	64.9	4	-1E+10	1	-1E+10	1	-1E+10	1	-1E+10	1	-1E+10	1	-1E+10	1
4902551	41	C	09/26/2021	21:08	-134.581	49.593	0	124.90	0	6.1310	0	33.0390	0	25.988	0	123.796	0	194.6	4	64.1	4	-1E+10	1	-1E+10	1	-1E+10	1	-1E+10	1	-1E+10	1	-1E+10	1
4902551	41	C	09/26/2021	21:08	-134.581	49.593	0	125.90	0	6.1310	0	33.0460	0	25.994	0	124.787	0	192.4	4	63.4	4	-1E+10	1	-1E+10	1	-1E+10	1	-1E+10	1	-1E+10	1	-1E+10	1
4902551	41	C	09/26/2021	21:08	-134.581	49.593	0	127.00	0	6.1330	0	33.0640	0	26.008	0	125.877	0	189.6	4	62.5	4	-1E+10	1	-1E+10	1	-1E+10	1	-1E+10	1	-1E+10	1	-1E+10	1
4902551	41	C	09/26/2021	21:08	-134.581	49.593	0	127.70	0	6.1440	0	33.1050	0	26.039	0	126.571	0	187.8	4	61.9	4	-1E+10	1	-1E+10	1	-1E+10	1	-1E+10	1	-1E+10	1	-1E+10	1
4902551	41	C	09/26/2021	21:08	-134.581	49.593	0	128.90	0	6.1510	0	33.1230	0	26.052	0	127.760	0	184.3	4	60.8	4	-1E+10	1	-1E+10	1	-1E+10	1	-1E+10	1	-1E+10	1	-1E+10	1
4902551	41	C	09/26/2021	21:08	-134.581	49.593	0	130.10	0	6.1550	0	33.1310	0	26.058	0	128.949	0	180.3	4	59.4	4	-1E+10	1	-1E+10	1	-1E+10	1	-1E+10	1	-1E+10	1	-1E+10	1
4902551	41	C	09/26/2021	21:08	-134.581	49.593	0	130.90	0	6.1620	0	33.1610	0	26.081	0	129.741	0	178.0	4	58.7	4	-1E+10	1	-1E+10	1	-1E+10	1	-1E+10	1	-1E+10	1	-1E+10	1
4902551	41	C	09/26/2021	21:08	-134.581	49.593	0	131.80	0	6.1790	0	33.2190	0	26.125	0	130.633	0	176.0	4	58.1	4	-1E+10	1	-1E+10	1	-1E+10	1	-1E+10	1	-1E+10	1	-1E+10	1
4902551	41	C	09/26/2021	21:08	-134.581	49.593	0	133.00	0	6.1740	0	33.2440	0	26.145	0	131.822	0	173.4	4	57.2	4	-1E+10	1	-1E+10	1	-1E+10	1	-1E+10	1	-1E+10	1	-1E+10	1
4902551	41	C	09/26/2021	21:08	-134.581	49.593	0	133.90	0	6.1720	0	33.2760	0	26.171	0	132.714	0	171.7	4	56.7	4	-1E+10	1	-1E+10	1	-1E+10	1	-1E+10	1	-1E+10	1	-1E+10	1
4902551	41	C	09/26/2021	21:08	-134.581	49.593	0	134.80	0	6.1680	0	33.2970	0	26.188	0	133.606	0	170.0	4	56.1	4	-1E+10	1	-1E+10	1	-1E+10	1	-1E+10	1	-1E+10	1	-1E+10	1
4902551	41	C	09/26/2021	21:08	-134.581	49.593	0	135.80	0	6.1830	0	33.3110	0	26.197	0	134.597	0	168.2	4	55.6	4	-1E+10	1	-1E+10	1	-1E+10	1	-1E+10	1	-1E+10	1	-1E+10	1
4902551	41	C	09/26/2021	21:08	-134.581	49.593	0	136.80	0	6.2110	0	33.3260	0	26.205	0	135.587	0	166.0	4	54.9	4	-1E+10	1	-1E+10	1	-1E+10	1	-1E+10	1	-1E+10	1	-1E+10	1
4902551	41	C	09/26/2021	21:08	-134.581	49.593	0	137.80	0	6.2310	0	33.3460	0	26.218	0	136.578	0	164.1	4	54.3	4	-1E+10	1	-1E+10	1	-1E+10	1	-1E+10	1	-1E+10	1	-1E+10	1
4902551	41	C	09/26/2021	21:08	-134.581	49.593	0	138.80	0	6.2330	0	33.3770	0	26.243	0	137.569	0	162.7	4	53.8	4	-1E+10	1	-1E+10	1	-1E+10	1	-1E+10	1	-1E+10	1	-1E+10	1
4902551	41	C	09/26/2021	21:08	-134.581	49.593	0	139.90	0	6.2170	0	33.4050	0	26.267	0	138.659	0	161.2	4	53.3	4	-1E+10	1	-1E+10	1	-1E+10	1	-1E+10	1	-1E+10	1	-1E+10	1
4902551	41	C	09/26/2021	21:08	-134.581	49.593	0	141.00	0	6.2180	0	33.4140	0	26.274	0	139.749	0	159.6	4	52.8	4	-1E+10	1	-1E+10	1	-1E+10	1	-1E+10	1	-1E+10	1	-1E+10	1
4902551	41	C	09/26/2021	21:08	-134.581	49.593	0	142.10	0	6.2180	0	33.4220	0	26.280	0	140.839	0	157.8	4	52.2	4	-1E+10	1	-1E+10	1	-1E+10	1	-1E+10	1	-1E+10	1	-1E+10	1
4902551	41	C	09/26/2021	21:08	-134.581	49.593	0	142.90	0	6.2120	0	33.4340	0	26.290	0	141.631	0	156.8	4	51.9	4	-1E+10	1	-1E+10	1	-1E+10	1	-1E+10	1	-1E+10	1	-1E+10	1
4902551	41	C	09/26/2021	21:08	-134.581	49.593	0	143.70	0	6.2080	0	33.4460	0	26.300	0	142.424	0	155.9	4	51.6	4	-1E+10	1	-1E+10	1	-1E+10	1	-1E+10	1	-1E+10	1	-1E+10	1
4902551	41	C	09/26/2021	21:08	-134.581	49.593	0	144.80	0	6.2080	0	33.4800	0	26.327	0	143.514	0	154.7	4	51.2	4	-1E+10	1	-1E+10	1	-1E+10	1	-1E+10	1	-1E+10	1	-1E+10	1
4902551	41	C	09/26/2021	21:08	-134.581	49.593	0	146.00	0	6.2090	0	33.4900	0	26.335	0	144.703	0	153.5	4	50.8	4	-1E+10	1	-1E+10	1	-1E+10	1	-1E+10	1	-1E+10	1	-1E+10	1
4902551	41	C	09/26/2021	21:08	-134.581	49.593	0	146.90	0	6.2080	0	33.4990	0	26.342	0	145.594	0	152.7	4	50.5	4	-1E+10	1	-1E+10	1	-1E+10	1	-1E+10	1	-1E+10	1	-1E+10	1
4902551	41	C	09/26/2021	21:08	-134.581	49.593	0	148.00	0	6.2040	0	33.5030	0	26.346	0	146.684	0	151.3	4	50.1	4	-1E+10	1	-1E+10	1	-1E+10	1	-1E+10	1	-1E+10	1	-1E+10	1
4902551	41	C	09/26/2021	21:08	-134.581	49.593	0	149.30	0	6.2010	0	33.5160	0	26.357	0	147.972	0	150.0	4	49.6	4	-1E+10	1	-1E+10	1	-1E+10	1	-1E+10	1	-1E+10	1	-1E+10	1
4902551	41	C	09/26/2021	21:08	-134.581	49.593	0	150.10	0	6.1950	0	33.5290	0	26.368	0	148.765	0	149.1	4	49.3	4	-1E+10	1	-1E+10	1	-1E+10	1	-1E+10	1	-1E+10	1	-1E+10	1
4902551	41	C	09/26/2021	21:08	-134.581	49.593	0	150.90	0	6.1930	0	33.5340	0	26.372	0	149.557	0	148.2	4	49.0	4	-1E+10	1	-1E+10	1	-1E+10	1	-1E+10	1	-1E+10	1	-1E+10	1
4902551	41	C	09/26/2021	21:08	-134.581	49.593	0	151.70	0	6.1920	0	33.5360	0	26.374	0	150.350	0	147.3	4	48.7	4	-1E+10	1	-1E+10	1	-1E+10	1	-1E+10	1	-1E+10	1	-1E+10	1
4902551	41	C	09/26/2021	21:08	-134.581	49.593	0	152.90	0	6.1890	0	33.5640	0	26.396	0	151.539	0	145.6	4	48.2	4	-1E+10	1	-1E+10	1	-1E+10	1	-1E+10	1	-1E+10	1	-1E+10	1
4902551	41	C	09/26/2021	21:08	-134.581	49.593	0	154.20	0	6.1690	0	33.5960	0	26.424	0	152.827	0	144.4	4	47.8	4	-1E+10	1	-1E+10	1	-1E+10	1	-1E+10	1	-1E+10	1	-1E+10	1
4902551	41	C	09/26/2021	21:08	-134.581	49.593	0	155.10	0	6.1600	0	33.6030	0	26.431	0	153.718	0	143.8	4	47.6	4	-1E+10	1	-1E+10	1	-1E+10	1	-1E+10	1	-1E+10	1	-1E+10	1
4902551	41	C	09/26/2021	21:08	-134.581	49.593	0	156.00	0	6.1550	0	33.6110	0	26.437	0	154.610	0	143.2	4	47.4	4	-1E+10	1	-1E+10	1	-1E+10	1	-1E+10	1	-1E+10	1	-1E+10	1
4902551	41	C	09/26/2021	21:08	-134.581	49.593	0	156.90	0	6.1540	0	33.6160	0	26.442	0	155.502	0	142.5	4	47.2	4	-1E+10	1	-1E+10	1	-1E+10	1	-1E+10	1	-1E+10	1	-1E+10	1
4902551	41	C	09/26/2021	21:08	-134.581	49.593	0	157.80	0	6.1360	0	33.6350	0	26.459	0	156.393	0	142.0	4	47.0	4	-1E+10	1	-1E+10	1	-1E+10	1	-1E+10	1	-1E+10	1	-1E+10	1
4902551	41	C	09/26/2021	21:08	-134.581	49.593	0	158.70	0	6.1350	0	33.6370	0	26.461	0	157.285	0	141.6	4	46.8	4	-1E+10	1	-1E+10	1	-1E+10	1	-1E+10	1	-1E+10	1	-1E+10	1
4902551	41	C	09/26/2021	21:08	-134.581	49.593	0	159.60	0	6.1260	0	33.6460	0	26.469	0	158.176	0	141.2	4	46.7	4	-1E+10	1	-1E+10	1	-1E+10	1	-1E+10	1	-1E+10	1	-1E+10	1
4902551	41	C	09/26/2021	21:08	-134.581	49.593	0	160.60	0	6.1200	0	33.6530	0	26.475	0	159.167	0	140.7	4	46.5	4	-1E+10	1	-1E+10	1	-1E+10	1	-1E+10	1	-1E+10	1	-1E+10	1
4902551	41	C	09/26/2021	21:08	-134.581	49.593	0	161.90	0	6.1110	0	33.6620	0	26.483	0	160.455	0	139.9	4	46.2	4	-1E+10	1	-1E+10	1	-1E+10	1	-1E+10	1	-1E+10	1	-1E+10	1
4902551	41	C	09/26/2021	21:08	-134.581	49.593	0	163.40	0	6.0990	0	33.6730	0	26.494	0	161.941	0	139.0	4	46.0	4	-1E+10	1	-1E+10	1	-1E+10	1	-1E+10	1	-1E+10	1	-1E+10	1
4902551	41	C	09/26/2021	21:08	-134.581	49.593	0	164.30	0	6.0980	0	33.6750	0	26.495	0	162.833	0	138.5	4	45.8	4	-1E+10	1	-1E+10	1	-1E+10	1	-1E+10	1	-1E+10	1	-1E+10	1
4902551	41	C	09/26/2021	21:08	-134.581	49.593	0	165.20	0	6.0870	0	33.6790	0	26.500	0	163.724	0	138.0	4	45.6	4	-1E+10	1	-1E+10	1	-1E+10	1	-1E+10	1	-1E+10	1	-1E+10	1
4902551	41	C	09/26/2021	21:08	-134.581	49.593	0	166.10	0	6.0800	0	33.6820	0	26.503	0	164.616	0	137.6	4	45.5	4	-1E+10	1	-1E+10	1	-1E+10	1	-1E+10	1	-1E+10	1	-1E+10	1
4902551	41	C	09/26/2021	21:08	-134.581	49.593	0	167.10	0	6.0680	0	33.6880	0	26.509	0	165.607	0	137.1	4	45.3	4	-1E+10	1	-1E+10	1	-1E+10	1	-1E+10	1	-1E+10	1	-1E+10	1
4902551	41	C	09/26/2021	21:08	-134.581	49.593	0	168.00	0	6.0610	0	33.6910	0	26.513	0	166.498	0	136.7	4	45.1	4	-1E+10	1	-1E+10	1	-1E+10	1	-1E+10	1	-1E+10	1	-1E+10	1
4902551	41	C	09/26/2021	21:08	-134.581	49.593	0	168.80	0	6.0620	0	33.6920	0	26.513	0	167.291	0	136.1	4	45.0	4	-1E+10	1	-1E+10	1	-1E+10	1	-1E+10	1	-1E+10	1	-1E+10	1
4902551	41	C	09/26/2021	21:08	-134.581	49.593	0	169.80	0	6.0490	0	33.7010	0	26.522	0	168.281	0	135.5	4	44.7	4	-1E+10	1	-1E+10	1	-1E+10	1	-1E+10	1	-1E+10	1	-1E+10	1
4902551	41	C	09/26/2021	21:08	-134.581	49.593	0	170.60	0	6.0390	0	33.7050	0	26.526	0	169.074	0	134.7	4	44.5	4	-1E+10	1	-1E+10	1	-1E+10	1	-1E+10	1	-1E+10	1	-1E+10	1
4902551	41	C	09/26/2021	21:08	-134.581	49.593	0	171.60	0	6.0320	0	33.7070	0	26.529	0	170.065	0	134.0	4	44.2	4	-1E+10	1	-1E+10	1	-1E+10	1	-1E+10	1	-1E+10	1	-1E+10	1
4902551	41	C	09/26/2021	21:08	-134.581	49.593	0	172.90	0	6.0090	0	33.7170	0	26.540	0	171.352	0	132.7	4	43.8	4	-1E+10	1	-1E+10	1	-1E+10	1	-1E+10	1	-1E+10	1	-1E+10	1
4902551	41	C	09/26/2021	21:08	-134.581	49.593	0	174.40	0	5.9670	0	33.7280	0	26.554	0	172.838	0	131.6	4	43.4	4	-1E+10	1	-1E+10	1	-1E+10	1	-1E+10	1	-1E+10	1	-1E+10	1
4902551	41	C	09/26/2021	21:08	-134.581	49.593	0	175.30	0	5.9530	0	33.7290	0	26.556	0	173.730	0	131.0	4	43.2	4	-1E+10	1	-1E+10	1	-1E+10	1	-1E+10	1	-1E+10	1	-1E+10	1
4902551	41	C	09/26/2021	21:08	-134.581	49.593	0	176.20	0	5.9340	0	33.7330	0	26.562	0	174.621	0	130.2	4	42.9	4	-1E+10	1	-1E+10	1	-1E+10	1	-1E+10	1	-1E+10	1	-1E+10	1
4902551	41	C	09/26/2021	21:08	-134.581	49.593	0	177.20	0	5.9310	0	33.7330	0	26.562	0	175.612	0	129.4	4	42.6	4	-1E+10	1	-1E+10	1	-1E+10	1	-1E+10	1	-1E+10	1	-1E+10	1
4902551	41	C	09/26/2021	21:08	-134.581	49.593	0	178.10	0	5.9280	0	33.7340	0	26.563	0	176.504	0	128.5	4	42.3	4	-1E+10	1	-1E+10	1	-1E+10	1	-1E+10	1	-1E+10	1	-1E+10	1
4902551	41	C	09/26/2021	21:08	-134.581	49.593	0	179.00	0	5.9260	0	33.7350	0	26.564	0	177.395	0	127.6	4	42.0	4	-1E+10	1	-1E+10	1	-1E+10	1	-1E+10	1	-1E+10	1	-1E+10	1
4902551	41	C	09/26/2021	21:08	-134.581	49.593	0	180.00	0	5.9200	0	33.7360	0	26.566	0	178.386	0	126.6	4	41.7	4	-1E+10	1	-1E+10	1	-1E+10	1	-1E+10	1	-1E+10	1	-1E+10	1
4902551	41	C	09/26/2021	21:08	-134.581	49.593	0	180.90	0	5.9040	0	33.7420	0	26.573	0	179.277	0	125.8	4	41.4	4	-1E+10	1	-1E+10	1	-1E+10	1	-1E+10	1	-1E+10	1	-1E+10	1
4902551	41	C	09/26/2021	21:08	-134.581	49.593	0	181.80	0	5.8950	0	33.7440	0	26.575	0	180.169	0	125.2	4	41.2	4	-1E+10	1	-1E+10	1	-1E+10	1	-1E+10	1	-1E+10	1	-1E+10	1
4902551	41	C	09/26/2021	21:08	-134.581	49.593	0	182.70	0	5.8870	0	33.7460	0	26.578	0	181.060	0	124.6	4	41.0	4	-1E+10	1	-1E+10	1	-1E+10	1	-1E+10	1	-1E+10	1	-1E+10	1
4902551	41	C	09/26/2021	21:08	-134.581	49.593	0	183.70	0	5.8860	0	33.7460	0	26.578	0	182.051	0	124.0	4	40.8	4	-1E+10	1	-1E+10	1	-1E+10	1	-1E+10	1	-1E+10	1	-1E+10	1
4902551	41	C	09/26/2021	21:08	-134.581	49.593	0	184.60	0	5.8860	0	33.7450	0	26.577	0	182.942	0	123.3	4	40.6	4	-1E+10	1	-1E+10	1	-1E+10	1	-1E+10	1	-1E+10	1	-1E+10	1
4902551	41	C	09/26/2021	21:08	-134.581	49.593	0	185.50	0	5.8790	0	33.7460	0	26.579	0	183.834	0	122.5	4	40.3	4	-1E+10	1	-1E+10	1	-1E+10	1	-1E+10	1	-1E+10	1	-1E+10	1
4902551	41	C	09/26/2021	21:08	-134.581	49.593	0	186.90	0	5.8280	0	33.7620	0	26.598	0	185.221	0	121.7	4	40.0	4	-1E+10	1	-1E+10	1	-1E+10	1	-1E+10	1	-1E+10	1	-1E+10	1
4902551	41	C	09/26/2021	21:08	-134.581	49.593	0	188.40	0	5.8030	0	33.7640	0	26.602	0	186.707	0	121.0	4	39.7	4	-1E+10	1	-1E+10	1	-1E+10	1	-1E+10	1	-1E+10	1	-1E+10	1
4902551	41	C	09/26/2021	21:08	-134.581	49.593	0	189.30	0	5.7980	0	33.7650	0	26.604	0	187.598	0	120.7	4	39.6	4	-1E+10	1	-1E+10	1	-1E+10	1	-1E+10	1	-1E+10	1	-1E+10	1
4902551	41	C	09/26/2021	21:08	-134.581	49.593	0	190.30	0	5.7890	0	33.7660	0	26.606	0	188.589	0	120.3	4	39.5	4	-1E+10	1	-1E+10	1	-1E+10	1	-1E+10	1	-1E+10	1	-1E+10	1
4902551	41	C	09/26/2021	21:08	-134.581	49.593	0	191.30	0	5.7750	0	33.7690	0	26.610	0	189.579	0	120.0	4	39.4	4	-1E+10	1	-1E+10	1	-1E+10	1	-1E+10	1	-1E+10	1	-1E+10	1
4902551	41	C	09/26/2021	21:08	-134.581	49.593	0	192.20	0	5.7680	0	33.7700	0	26.612	0	190.471	0	119.6	4	39.3	4	-1E+10	1	-1E+10	1	-1E+10	1	-1E+10	1	-1E+10	1	-1E+10	1
4902551	41	C	09/26/2021	21:08	-134.581	49.593	0	193.20	0	5.7620	0	33.7710	0	26.613	0	191.461	0	119.3	4	39.2	4	-1E+10	1	-1E+10	1	-1E+10	1	-1E+10	1	-1E+10	1	-1E+10	1
4902551	41	C	09/26/2021	21:08	-134.581	49.593	0	194.20	0	5.7560	0	33.7720	0	26.615	0	192.452	0	119.0	4	39.1	4	-1E+10	1	-1E+10	1	-1E+10	1	-1E+10	1	-1E+10	1	-1E+10	1
4902551	41	C	09/26/2021	21:08	-134.581	49.593	0	195.10	0	5.7460	0	33.7730	0	26.617	0	193.343	0	118.7	4	38.9	4	-1E+10	1	-1E+10	1	-1E+10	1	-1E+10	1	-1E+10	1	-1E+10	1
4902551	41	C	09/26/2021	21:08	-134.581	49.593	0	196.10	0	5.7390	0	33.7730	0	26.617	0	194.334	0	118.4	4	38.8	4	-1E+10	1	-1E+10	1	-1E+10	1	-1E+10	1	-1E+10	1	-1E+10	1
4902551	41	C	09/26/2021	21:08	-134.581	49.593	0	197.10	0	5.7320	0	33.7750	0	26.620	0	195.324	0	117.9	4	38.7	4	-1E+10	1	-1E+10	1	-1E+10	1	-1E+10	1	-1E+10	1	-1E+10	1
4902551	41	C	09/26/2021	21:08	-134.581	49.593	0	198.10	0	5.7240	0	33.7740	0	26.620	0	196.315	0	117.4	4	38.5	4	-1E+10	1	-1E+10	1	-1E+10	1	-1E+10	1	-1E+10	1	-1E+10	1
4902551	41	C	09/26/2021	21:08	-134.581	49.593	0	199.00	0	5.7180	0	33.7750	0	26.622	0	197.206	0	116.8	4	38.3	4	-1E+10	1	-1E+10	1	-1E+10	1	-1E+10	1	-1E+10	1	-1E+10	1
4902551	41	C	09/26/2021	21:08	-134.581	49.593	0	200.00	0	5.7160	0	33.7750	0	26.622	0	198.197	0	116.2	4	38.1	4	-1E+10	1	-1E+10	1	-1E+10	1	-1E+10	1	-1E+10	1	-1E+10	1
4902551	41	C	09/26/2021	21:08	-134.581	49.593	0	201.00	0	5.7080	0	33.7780	0	26.625	0	199.187	0	115.7	4	37.9	4	-1E+10	1	-1E+10	1	-1E+10	1	-1E+10	1	-1E+10	1	-1E+10	1
4902551	41	C	09/26/2021	21:08	-134.581	49.593	0	202.00	0	5.7040	0	33.7790	0	26.627	0	200.178	0	115.2	4	37.8	4	-1E+10	1	-1E+10	1	-1E+10	1	-1E+10	1	-1E+10	1	-1E+10	1
4902551	41	C	09/26/2021	21:08	-134.581	49.593	0	203.00	0	5.6980	0	33.7800	0	26.628	0	201.168	0	114.7	4	37.6	4	-1E+10	1	-1E+10	1	-1E+10	1	-1E+10	1	-1E+10	1	-1E+10	1
4902551	41	C	09/26/2021	21:08	-134.581	49.593	0	204.00	0	5.6900	0	33.7820	0	26.631	0	202.159	0	114.3	4	37.5	4	-1E+10	1	-1E+10	1	-1E+10	1	-1E+10	1	-1E+10	1	-1E+10	1
4902551	41	C	09/26/2021	21:08	-134.581	49.593	0	205.00	0	5.6780	0	33.7820	0	26.632	0	203.149	0	113.9	4	37.3	4	-1E+10	1	-1E+10	1	-1E+10	1	-1E+10	1	-1E+10	1	-1E+10	1
4902551	41	C	09/26/2021	21:08	-134.581	49.593	0	206.00	0	5.6610	0	33.7840	0	26.636	0	204.140	0	113.5	4	37.2	4	-1E+10	1	-1E+10	1	-1E+10	1	-1E+10	1	-1E+10	1	-1E+10	1
4902551	41	C	09/26/2021	21:08	-134.581	49.593	0	207.00	0	5.6560	0	33.7850	0	26.637	0	205.130	0	113.1	4	37.0	4	-1E+10	1	-1E+10	1	-1E+10	1	-1E+10	1	-1E+10	1	-1E+10	1
4902551	41	C	09/26/2021	21:08	-134.581	49.593	0	208.00	0	5.6430	0	33.7860	0	26.640	0	206.121	0	112.6	4	36.9	4	-1E+10	1	-1E+10	1	-1E+10	1	-1E+10	1	-1E+10	1	-1E+10	1
4902551	41	C	09/26/2021	21:08	-134.581	49.593	0	209.00	0	5.6210	0	33.7890	0	26.645	0	207.111	0	112.2	4	36.7	4	-1E+10	1	-1E+10	1	-1E+10	1	-1E+10	1	-1E+10	1	-1E+10	1
4902551	41	C	09/26/2021	21:08	-134.581	49.593	0	210.00	0	5.6150	0	33.7890	0	26.645	0	208.102	0	111.8	4	36.6	4	-1E+10	1	-1E+10	1	-1E+10	1	-1E+10	1	-1E+10	1	-1E+10	1
4902551	41	C	09/26/2021	21:08	-134.581	49.593	0	211.00	0	5.6080	0	33.7900	0	26.647	0	209.092	0	111.3	4	36.4	4	-1E+10	1	-1E+10	1	-1E+10	1	-1E+10	1	-1E+10	1	-1E+10	1
4902551	41	C	09/26/2021	21:08	-134.581	49.593	0	212.00	0	5.6000	0	33.7900	0	26.648	0	210.082	0	110.8	4	36.2	4	-1E+10	1	-1E+10	1	-1E+10	1	-1E+10	1	-1E+10	1	-1E+10	1
4902551	41	C	09/26/2021	21:08	-134.581	49.593	0	213.00	0	5.5940	0	33.7910	0	26.649	0	211.073	0	110.3	4	36.1	4	-1E+10	1	-1E+10	1	-1E+10	1	-1E+10	1	-1E+10	1	-1E+10	1
4902551	41	C	09/26/2021	21:08	-134.581	49.593	0	214.00	0	5.5790	0	33.7930	0	26.653	0	212.063	0	109.7	4	35.9	4	-1E+10	1	-1E+10	1	-1E+10	1	-1E+10	1	-1E+10	1	-1E+10	1
4902551	41	C	09/26/2021	21:08	-134.581	49.593	0	215.00	0	5.5650	0	33.7930	0	26.655	0	213.054	0	109.3	4	35.7	4	-1E+10	1	-1E+10	1	-1E+10	1	-1E+10	1	-1E+10	1	-1E+10	1
4902551	41	C	09/26/2021	21:08	-134.581	49.593	0	216.00	0	5.5510	0	33.7960	0	26.659	0	214.044	0	108.8	4	35.5	4	-1E+10	1	-1E+10	1	-1E+10	1	-1E+10	1	-1E+10	1	-1E+10	1
4902551	41	C	09/26/2021	21:08	-134.581	49.593	0	216.90	0	5.5410	0	33.7970	0	26.661	0	214.936	0	108.4	4	35.4	4	-1E+10	1	-1E+10	1	-1E+10	1	-1E+10	1	-1E+10	1	-1E+10	1
4902551	41	C	09/26/2021	21:08	-134.581	49.593	0	217.90	0	5.5330	0	33.7990	0	26.663	0	215.926	0	107.8	4	35.2	4	-1E+10	1	-1E+10	1	-1E+10	1	-1E+10	1	-1E+10	1	-1E+10	1
4902551	41	C	09/26/2021	21:08	-134.581	49.593	0	219.00	0	5.5080	0	33.8050	0	26.671	0	217.016	0	107.4	4	35.1	4	-1E+10	1	-1E+10	1	-1E+10	1	-1E+10	1	-1E+10	1	-1E+10	1
4902551	41	C	09/26/2021	21:08	-134.581	49.593	0	219.90	0	5.5010	0	33.8010	0	26.669	0	217.907	0	107.0	4	34.9	4	-1E+10	1	-1E+10	1	-1E+10	1	-1E+10	1	-1E+10	1	-1E+10	1
4902551	41	C	09/26/2021	21:08	-134.581	49.593	0	220.90	0	5.4900	0	33.8030	0	26.671	0	218.897	0	106.7	4	34.8	4	-1E+10	1	-1E+10	1	-1E+10	1	-1E+10	1	-1E+10	1	-1E+10	1
4902551	41	C	09/26/2021	21:08	-134.581	49.593	0	222.00	0	5.4820	0	33.8040	0	26.673	0	219.987	0	106.3	4	34.7	4	-1E+10	1	-1E+10	1	-1E+10	1	-1E+10	1	-1E+10	1	-1E+10	1
4902551	41	C	09/26/2021	21:08	-134.581	49.593	0	223.00	0	5.4700	0	33.8060	0	26.676	0	220.977	0	105.9	4	34.5	4	-1E+10	1	-1E+10	1	-1E+10	1	-1E+10	1	-1E+10	1	-1E+10	1
4902551	41	C	09/26/2021	21:08	-134.581	49.593	0	224.00	0	5.4570	0	33.8050	0	26.677	0	221.968	0	105.5	4	34.4	4	-1E+10	1	-1E+10	1	-1E+10	1	-1E+10	1	-1E+10	1	-1E+10	1
4902551	41	C	09/26/2021	21:08	-134.581	49.593	0	225.00	0	5.4470	0	33.8050	0	26.678	0	222.958	0	105.1	4	34.3	4	-1E+10	1	-1E+10	1	-1E+10	1	-1E+10	1	-1E+10	1	-1E+10	1
4902551	41	C	09/26/2021	21:08	-134.581	49.593	0	226.00	0	5.4440	0	33.8060	0	26.679	0	223.948	0	104.7	4	34.1	4	-1E+10	1	-1E+10	1	-1E+10	1	-1E+10	1	-1E+10	1	-1E+10	1
4902551	41	C	09/26/2021	21:08	-134.581	49.593	0	227.00	0	5.4310	0	33.8080	0	26.682	0	224.939	0	104.3	4	34.0	4	-1E+10	1	-1E+10	1	-1E+10	1	-1E+10	1	-1E+10	1	-1E+10	1
4902551	41	C	09/26/2021	21:08	-134.581	49.593	0	228.00	0	5.4130	0	33.8090	0	26.685	0	225.929	0	104.0	4	33.8	4	-1E+10	1	-1E+10	1	-1E+10	1	-1E+10	1	-1E+10	1	-1E+10	1
4902551	41	C	09/26/2021	21:08	-134.581	49.593	0	229.00	0	5.3880	0	33.8120	0	26.691	0	226.919	0	103.6	4	33.7	4	-1E+10	1	-1E+10	1	-1E+10	1	-1E+10	1	-1E+10	1	-1E+10	1
4902551	41	C	09/26/2021	21:08	-134.581	49.593	0	230.10	0	5.3710	0	33.8120	0	26.693	0	228.009	0	103.4	4	33.6	4	-1E+10	1	-1E+10	1	-1E+10	1	-1E+10	1	-1E+10	1	-1E+10	1
4902551	41	C	09/26/2021	21:08	-134.581	49.593	0	231.10	0	5.3650	0	33.8130	0	26.694	0	228.999	0	103.1	4	33.5	4	-1E+10	1	-1E+10	1	-1E+10	1	-1E+10	1	-1E+10	1	-1E+10	1
4902551	41	C	09/26/2021	21:08	-134.581	49.593	0	232.10	0	5.3650	0	33.8120	0	26.693	0	229.990	0	102.8	4	33.4	4	-1E+10	1	-1E+10	1	-1E+10	1	-1E+10	1	-1E+10	1	-1E+10	1
4902551	41	C	09/26/2021	21:08	-134.581	49.593	0	233.10	0	5.3650	0	33.8120	0	26.693	0	230.980	0	102.4	4	33.3	4	-1E+10	1	-1E+10	1	-1E+10	1	-1E+10	1	-1E+10	1	-1E+10	1
4902551	41	C	09/26/2021	21:08	-134.581	49.593	0	234.10	0	5.3590	0	33.8130	0	26.695	0	231.970	0	102.1	4	33.2	4	-1E+10	1	-1E+10	1	-1E+10	1	-1E+10	1	-1E+10	1	-1E+10	1
4902551	41	C	09/26/2021	21:08	-134.581	49.593	0	235.10	0	5.3520	0	33.8130	0	26.696	0	232.961	0	101.7	4	33.1	4	-1E+10	1	-1E+10	1	-1E+10	1	-1E+10	1	-1E+10	1	-1E+10	1
4902551	41	C	09/26/2021	21:08	-134.581	49.593	0	236.20	0	5.3410	0	33.8150	0	26.699	0	234.050	0	101.5	4	33.0	4	-1E+10	1	-1E+10	1	-1E+10	1	-1E+10	1	-1E+10	1	-1E+10	1
4902551	41	C	09/26/2021	21:08	-134.581	49.593	0	237.20	0	5.3260	0	33.8150	0	26.700	0	235.040	0	101.2	4	32.9	4	-1E+10	1	-1E+10	1	-1E+10	1	-1E+10	1	-1E+10	1	-1E+10	1
4902551	41	C	09/26/2021	21:08	-134.581	49.593	0	238.20	0	5.3120	0	33.8160	0	26.703	0	236.031	0	101.0	4	32.8	4	-1E+10	1	-1E+10	1	-1E+10	1	-1E+10	1	-1E+10	1	-1E+10	1
4902551	41	C	09/26/2021	21:08	-134.581	49.593	0	239.20	0	5.2850	0	33.8190	0	26.708	0	237.021	0	100.9	4	32.7	4	-1E+10	1	-1E+10	1	-1E+10	1	-1E+10	1	-1E+10	1	-1E+10	1
4902551	41	C	09/26/2021	21:08	-134.581	49.593	0	240.20	0	5.2830	0	33.8170	0	26.707	0	238.011	0	100.7	4	32.7	4	-1E+10	1	-1E+10	1	-1E+10	1	-1E+10	1	-1E+10	1	-1E+10	1
4902551	41	C	09/26/2021	21:08	-134.581	49.593	0	241.30	0	5.2690	0	33.8190	0	26.710	0	239.101	0	100.5	4	32.6	4	-1E+10	1	-1E+10	1	-1E+10	1	-1E+10	1	-1E+10	1	-1E+10	1
4902551	41	C	09/26/2021	21:08	-134.581	49.593	0	242.30	0	5.2610	0	33.8180	0	26.710	0	240.091	0	100.4	4	32.6	4	-1E+10	1	-1E+10	1	-1E+10	1	-1E+10	1	-1E+10	1	-1E+10	1
4902551	41	C	09/26/2021	21:08	-134.581	49.593	0	243.30	0	5.2610	0	33.8180	0	26.710	0	241.081	0	100.2	4	32.5	4	-1E+10	1	-1E+10	1	-1E+10	1	-1E+10	1	-1E+10	1	-1E+10	1
4902551	41	C	09/26/2021	21:08	-134.581	49.593	0	244.40	0	5.2610	0	33.8170	0	26.710	0	242.170	0	100.0	4	32.4	4	-1E+10	1	-1E+10	1	-1E+10	1	-1E+10	1	-1E+10	1	-1E+10	1
4902551	41	C	09/26/2021	21:08	-134.581	49.593	0	245.40	0	5.2380	0	33.8180	0	26.713	0	243.161	0	99.8	4	32.4	4	-1E+10	1	-1E+10	1	-1E+10	1	-1E+10	1	-1E+10	1	-1E+10	1
4902551	41	C	09/26/2021	21:08	-134.581	49.593	0	246.50	0	5.2130	0	33.8230	0	26.720	0	244.250	0	99.6	4	32.3	4	-1E+10	1	-1E+10	1	-1E+10	1	-1E+10	1	-1E+10	1	-1E+10	1
4902551	41	C	09/26/2021	21:08	-134.581	49.593	0	247.50	0	5.1880	0	33.8190	0	26.720	0	245.240	0	99.4	4	32.2	4	-1E+10	1	-1E+10	1	-1E+10	1	-1E+10	1	-1E+10	1	-1E+10	1
4902551	41	C	09/26/2021	21:08	-134.581	49.593	0	248.60	0	5.1810	0	33.8190	0	26.721	0	246.330	0	99.1	4	32.1	4	-1E+10	1	-1E+10	1	-1E+10	1	-1E+10	1	-1E+10	1	-1E+10	1
4902551	41	C	09/26/2021	21:08	-134.581	49.593	0	249.60	0	5.1690	0	33.8250	0	26.727	0	247.320	0	98.8	4	32.0	4	-1E+10	1	-1E+10	1	-1E+10	1	-1E+10	1	-1E+10	1	-1E+10	1
4902551	41	C	09/26/2021	21:08	-134.581	49.593	0	250.70	0	5.1570	0	33.8200	0	26.724	0	248.409	0	98.5	4	31.9	4	-1E+10	1	-1E+10	1	-1E+10	1	-1E+10	1	-1E+10	1	-1E+10	1
4902551	41	C	09/26/2021	21:08	-134.581	49.593	0	251.70	0	5.1530	0	33.8200	0	26.725	0	249.399	0	98.2	4	31.8	4	-1E+10	1	-1E+10	1	-1E+10	1	-1E+10	1	-1E+10	1	-1E+10	1
4902551	41	C	09/26/2021	21:08	-134.581	49.593	0	252.80	0	5.1410	0	33.8230	0	26.728	0	250.489	0	97.9	4	31.7	4	-1E+10	1	-1E+10	1	-1E+10	1	-1E+10	1	-1E+10	1	-1E+10	1
4902551	41	C	09/26/2021	21:08	-134.581	49.593	0	253.80	0	5.1310	0	33.8220	0	26.729	0	251.479	0	97.5	4	31.6	4	-1E+10	1	-1E+10	1	-1E+10	1	-1E+10	1	-1E+10	1	-1E+10	1
4902551	41	C	09/26/2021	21:08	-134.581	49.593	0	254.80	0	5.1170	0	33.8220	0	26.730	0	252.469	0	97.2	4	31.4	4	-1E+10	1	-1E+10	1	-1E+10	1	-1E+10	1	-1E+10	1	-1E+10	1
4902551	41	C	09/26/2021	21:08	-134.581	49.593	0	255.90	0	5.1080	0	33.8220	0	26.731	0	253.559	0	96.9	4	31.3	4	-1E+10	1	-1E+10	1	-1E+10	1	-1E+10	1	-1E+10	1	-1E+10	1
4902551	41	C	09/26/2021	21:08	-134.581	49.593	0	256.90	0	5.1010	0	33.8230	0	26.733	0	254.549	0	96.5	4	31.2	4	-1E+10	1	-1E+10	1	-1E+10	1	-1E+10	1	-1E+10	1	-1E+10	1
4902551	41	C	09/26/2021	21:08	-134.581	49.593	0	258.00	0	5.0880	0	33.8220	0	26.734	0	255.638	0	96.0	4	31.0	4	-1E+10	1	-1E+10	1	-1E+10	1	-1E+10	1	-1E+10	1	-1E+10	1
4902551	41	C	09/26/2021	21:08	-134.581	49.593	0	259.00	0	5.0760	0	33.8240	0	26.737	0	256.628	0	95.5	4	30.9	4	-1E+10	1	-1E+10	1	-1E+10	1	-1E+10	1	-1E+10	1	-1E+10	1
4902551	41	C	09/26/2021	21:08	-134.581	49.593	0	260.10	0	5.0470	0	33.8250	0	26.741	0	257.717	0	95.1	4	30.7	4	-1E+10	1	-1E+10	1	-1E+10	1	-1E+10	1	-1E+10	1	-1E+10	1
4902551	41	C	09/26/2021	21:08	-134.581	49.593	0	261.20	0	5.0400	0	33.8280	0	26.744	0	258.807	0	94.6	4	30.5	4	-1E+10	1	-1E+10	1	-1E+10	1	-1E+10	1	-1E+10	1	-1E+10	1
4902551	41	C	09/26/2021	21:08	-134.581	49.593	0	262.20	0	5.0330	0	33.8260	0	26.743	0	259.797	0	94.2	4	30.4	4	-1E+10	1	-1E+10	1	-1E+10	1	-1E+10	1	-1E+10	1	-1E+10	1
4902551	41	C	09/26/2021	21:08	-134.581	49.593	0	263.30	0	5.0280	0	33.8270	0	26.745	0	260.886	0	93.7	4	30.2	4	-1E+10	1	-1E+10	1	-1E+10	1	-1E+10	1	-1E+10	1	-1E+10	1
4902551	41	C	09/26/2021	21:08	-134.581	49.593	0	264.30	0	5.0260	0	33.8270	0	26.745	0	261.876	0	93.1	4	30.0	4	-1E+10	1	-1E+10	1	-1E+10	1	-1E+10	1	-1E+10	1	-1E+10	1
4902551	41	C	09/26/2021	21:08	-134.581	49.593	0	265.40	0	5.0230	0	33.8280	0	26.746	0	262.966	0	92.5	4	29.9	4	-1E+10	1	-1E+10	1	-1E+10	1	-1E+10	1	-1E+10	1	-1E+10	1
4902551	41	C	09/26/2021	21:08	-134.581	49.593	0	266.40	0	5.0170	0	33.8280	0	26.747	0	263.956	0	91.9	4	29.6	4	-1E+10	1	-1E+10	1	-1E+10	1	-1E+10	1	-1E+10	1	-1E+10	1
4902551	41	C	09/26/2021	21:08	-134.581	49.593	0	267.50	0	4.9850	0	33.8330	0	26.754	0	265.045	0	91.4	4	29.5	4	-1E+10	1	-1E+10	1	-1E+10	1	-1E+10	1	-1E+10	1	-1E+10	1
4902551	41	C	09/26/2021	21:08	-134.581	49.593	0	268.60	0	4.9840	0	33.8320	0	26.754	0	266.134	0	90.9	4	29.3	4	-1E+10	1	-1E+10	1	-1E+10	1	-1E+10	1	-1E+10	1	-1E+10	1
4902551	41	C	09/26/2021	21:08	-134.581	49.593	0	269.60	0	4.9820	0	33.8320	0	26.754	0	267.124	0	90.4	4	29.1	4	-1E+10	1	-1E+10	1	-1E+10	1	-1E+10	1	-1E+10	1	-1E+10	1
4902551	41	C	09/26/2021	21:08	-134.581	49.593	0	270.70	0	4.9720	0	33.8350	0	26.757	0	268.214	0	89.8	4	29.0	4	-1E+10	1	-1E+10	1	-1E+10	1	-1E+10	1	-1E+10	1	-1E+10	1
4902551	41	C	09/26/2021	21:08	-134.581	49.593	0	271.80	0	4.9710	0	33.8350	0	26.757	0	269.303	0	89.3	4	28.8	4	-1E+10	1	-1E+10	1	-1E+10	1	-1E+10	1	-1E+10	1	-1E+10	1
4902551	41	C	09/26/2021	21:08	-134.581	49.593	0	272.80	0	4.9680	0	33.8380	0	26.760	0	270.293	0	88.9	4	28.6	4	-1E+10	1	-1E+10	1	-1E+10	1	-1E+10	1	-1E+10	1	-1E+10	1
4902551	41	C	09/26/2021	21:08	-134.581	49.593	0	273.90	0	4.9610	0	33.8400	0	26.763	0	271.382	0	88.5	4	28.5	4	-1E+10	1	-1E+10	1	-1E+10	1	-1E+10	1	-1E+10	1	-1E+10	1
4902551	41	C	09/26/2021	21:08	-134.581	49.593	0	275.00	0	4.9590	0	33.8390	0	26.762	0	272.471	0	88.0	4	28.4	4	-1E+10	1	-1E+10	1	-1E+10	1	-1E+10	1	-1E+10	1	-1E+10	1
4902551	41	C	09/26/2021	21:08	-134.581	49.593	0	276.00	0	4.9570	0	33.8400	0	26.763	0	273.461	0	87.5	4	28.2	4	-1E+10	1	-1E+10	1	-1E+10	1	-1E+10	1	-1E+10	1	-1E+10	1
4902551	41	C	09/26/2021	21:08	-134.581	49.593	0	277.10	0	4.9490	0	33.8410	0	26.765	0	274.551	0	86.9	4	28.0	4	-1E+10	1	-1E+10	1	-1E+10	1	-1E+10	1	-1E+10	1	-1E+10	1
4902551	41	C	09/26/2021	21:08	-134.581	49.593	0	278.10	0	4.9440	0	33.8420	0	26.766	0	275.541	0	86.4	4	27.8	4	-1E+10	1	-1E+10	1	-1E+10	1	-1E+10	1	-1E+10	1	-1E+10	1
4902551	41	C	09/26/2021	21:08	-134.581	49.593	0	279.10	0	4.9420	0	33.8420	0	26.766	0	276.531	0	85.9	4	27.7	4	-1E+10	1	-1E+10	1	-1E+10	1	-1E+10	1	-1E+10	1	-1E+10	1
4902551	41	C	09/26/2021	21:08	-134.581	49.593	0	280.20	0	4.9420	0	33.8400	0	26.765	0	277.620	0	85.4	4	27.5	4	-1E+10	1	-1E+10	1	-1E+10	1	-1E+10	1	-1E+10	1	-1E+10	1
4902551	41	C	09/26/2021	21:08	-134.581	49.593	0	281.10	0	4.9330	0	33.8420	0	26.767	0	278.511	0	84.8	4	27.3	4	-1E+10	1	-1E+10	1	-1E+10	1	-1E+10	1	-1E+10	1	-1E+10	1
4902551	41	C	09/26/2021	21:08	-134.581	49.593	0	282.10	0	4.9030	0	33.8510	0	26.778	0	279.501	0	84.5	4	27.2	4	-1E+10	1	-1E+10	1	-1E+10	1	-1E+10	1	-1E+10	1	-1E+10	1
4902551	41	C	09/26/2021	21:08	-134.581	49.593	0	283.20	0	4.8980	0	33.8480	0	26.776	0	280.590	0	84.2	4	27.1	4	-1E+10	1	-1E+10	1	-1E+10	1	-1E+10	1	-1E+10	1	-1E+10	1
4902551	41	C	09/26/2021	21:08	-134.581	49.593	0	283.90	0	4.8980	0	33.8480	0	26.776	0	281.283	0	83.9	4	27.0	4	-1E+10	1	-1E+10	1	-1E+10	1	-1E+10	1	-1E+10	1	-1E+10	1
4902551	41	C	09/26/2021	21:08	-134.581	49.593	0	285.00	0	4.8950	0	33.8480	0	26.776	0	282.372	0	83.5	4	26.9	4	-1E+10	1	-1E+10	1	-1E+10	1	-1E+10	1	-1E+10	1	-1E+10	1
4902551	41	C	09/26/2021	21:08	-134.581	49.593	0	286.20	0	4.8830	0	33.8490	0	26.779	0	283.561	0	83.0	4	26.7	4	-1E+10	1	-1E+10	1	-1E+10	1	-1E+10	1	-1E+10	1	-1E+10	1
4902551	41	C	09/26/2021	21:08	-134.581	49.593	0	287.00	0	4.8780	0	33.8500	0	26.780	0	284.353	0	82.7	4	26.6	4	-1E+10	1	-1E+10	1	-1E+10	1	-1E+10	1	-1E+10	1	-1E+10	1
4902551	41	C	09/26/2021	21:08	-134.581	49.593	0	287.70	0	4.8750	0	33.8510	0	26.781	0	285.046	0	82.4	4	26.5	4	-1E+10	1	-1E+10	1	-1E+10	1	-1E+10	1	-1E+10	1	-1E+10	1
4902551	41	C	09/26/2021	21:08	-134.581	49.593	0	288.80	0	4.8660	0	33.8510	0	26.782	0	286.135	0	81.9	4	26.3	4	-1E+10	1	-1E+10	1	-1E+10	1	-1E+10	1	-1E+10	1	-1E+10	1
4902551	41	C	09/26/2021	21:08	-134.581	49.593	0	290.00	0	4.8530	0	33.8530	0	26.785	0	287.323	0	81.4	4	26.2	4	-1E+10	1	-1E+10	1	-1E+10	1	-1E+10	1	-1E+10	1	-1E+10	1
4902551	41	C	09/26/2021	21:08	-134.581	49.593	0	290.80	0	4.8420	0	33.8540	0	26.787	0	288.115	0	81.2	4	26.1	4	-1E+10	1	-1E+10	1	-1E+10	1	-1E+10	1	-1E+10	1	-1E+10	1
4902551	41	C	09/26/2021	21:08	-134.581	49.593	0	291.90	0	4.8290	0	33.8560	0	26.790	0	289.204	0	80.8	4	26.0	4	-1E+10	1	-1E+10	1	-1E+10	1	-1E+10	1	-1E+10	1	-1E+10	1
4902551	41	C	09/26/2021	21:08	-134.581	49.593	0	293.10	0	4.8160	0	33.8590	0	26.794	0	290.392	0	80.5	4	25.9	4	-1E+10	1	-1E+10	1	-1E+10	1	-1E+10	1	-1E+10	1	-1E+10	1
4902551	41	C	09/26/2021	21:08	-134.581	49.593	0	293.90	0	4.8120	0	33.8590	0	26.794	0	291.184	0	80.4	4	25.8	4	-1E+10	1	-1E+10	1	-1E+10	1	-1E+10	1	-1E+10	1	-1E+10	1
4902551	41	C	09/26/2021	21:08	-134.581	49.593	0	294.70	0	4.8060	0	33.8600	0	26.796	0	291.976	0	80.2	4	25.8	4	-1E+10	1	-1E+10	1	-1E+10	1	-1E+10	1	-1E+10	1	-1E+10	1
4902551	41	C	09/26/2021	21:08	-134.581	49.593	0	295.90	0	4.8020	0	33.8610	0	26.797	0	293.164	0	80.0	4	25.7	4	-1E+10	1	-1E+10	1	-1E+10	1	-1E+10	1	-1E+10	1	-1E+10	1
4902551	41	C	09/26/2021	21:08	-134.581	49.593	0	297.10	0	4.8010	0	33.8610	0	26.797	0	294.352	0	79.7	4	25.6	4	-1E+10	1	-1E+10	1	-1E+10	1	-1E+10	1	-1E+10	1	-1E+10	1
4902551	41	C	09/26/2021	21:08	-134.581	49.593	0	297.90	0	4.7940	0	33.8620	0	26.799	0	295.144	0	79.5	4	25.5	4	-1E+10	1	-1E+10	1	-1E+10	1	-1E+10	1	-1E+10	1	-1E+10	1
4902551	41	C	09/26/2021	21:08	-134.581	49.593	0	298.70	0	4.7900	0	33.8620	0	26.799	0	295.936	0	79.3	4	25.5	4	-1E+10	1	-1E+10	1	-1E+10	1	-1E+10	1	-1E+10	1	-1E+10	1
4902551	41	C	09/26/2021	21:08	-134.581	49.593	0	299.90	0	4.7800	0	33.8640	0	26.802	0	297.124	0	78.9	4	25.3	4	-1E+10	1	-1E+10	1	-1E+10	1	-1E+10	1	-1E+10	1	-1E+10	1
4902551	41	C	09/26/2021	21:08	-134.581	49.593	0	301.10	0	4.7590	0	33.8670	0	26.807	0	298.312	0	78.6	4	25.2	4	-1E+10	1	-1E+10	1	-1E+10	1	-1E+10	1	-1E+10	1	-1E+10	1
4902551	41	C	09/26/2021	21:08	-134.581	49.593	0	301.90	0	4.7470	0	33.8690	0	26.810	0	299.104	0	78.5	4	25.2	4	-1E+10	1	-1E+10	1	-1E+10	1	-1E+10	1	-1E+10	1	-1E+10	1
4902551	41	C	09/26/2021	21:08	-134.581	49.593	0	302.70	0	4.7460	0	33.8690	0	26.810	0	299.896	0	78.2	4	25.1	4	-1E+10	1	-1E+10	1	-1E+10	1	-1E+10	1	-1E+10	1	-1E+10	1
4902551	41	C	09/26/2021	21:08	-134.581	49.593	0	303.90	0	4.7450	0	33.8690	0	26.810	0	301.084	0	78.0	4	25.0	4	-1E+10	1	-1E+10	1	-1E+10	1	-1E+10	1	-1E+10	1	-1E+10	1
4902551	41	C	09/26/2021	21:08	-134.581	49.593	0	305.10	0	4.7440	0	33.8690	0	26.810	0	302.272	0	77.7	4	24.9	4	-1E+10	1	-1E+10	1	-1E+10	1	-1E+10	1	-1E+10	1	-1E+10	1
4902551	41	C	09/26/2021	21:08	-134.581	49.593	0	305.90	0	4.7430	0	33.8700	0	26.811	0	303.064	0	77.4	4	24.8	4	-1E+10	1	-1E+10	1	-1E+10	1	-1E+10	1	-1E+10	1	-1E+10	1
4902551	41	C	09/26/2021	21:08	-134.581	49.593	0	306.70	0	4.7380	0	33.8700	0	26.811	0	303.856	0	77.2	4	24.8	4	-1E+10	1	-1E+10	1	-1E+10	1	-1E+10	1	-1E+10	1	-1E+10	1
4902551	41	C	09/26/2021	21:08	-134.581	49.593	0	307.90	0	4.7340	0	33.8710	0	26.813	0	305.044	0	76.8	4	24.6	4	-1E+10	1	-1E+10	1	-1E+10	1	-1E+10	1	-1E+10	1	-1E+10	1
4902551	41	C	09/26/2021	21:08	-134.581	49.593	0	309.10	0	4.7320	0	33.8710	0	26.813	0	306.232	0	76.2	4	24.4	4	-1E+10	1	-1E+10	1	-1E+10	1	-1E+10	1	-1E+10	1	-1E+10	1
4902551	41	C	09/26/2021	21:08	-134.581	49.593	0	310.00	0	4.7280	0	33.8720	0	26.814	0	307.123	0	75.9	4	24.3	4	-1E+10	1	-1E+10	1	-1E+10	1	-1E+10	1	-1E+10	1	-1E+10	1
4902551	41	C	09/26/2021	21:08	-134.581	49.593	0	310.80	0	4.7210	0	33.8720	0	26.815	0	307.915	0	75.3	4	24.1	4	-1E+10	1	-1E+10	1	-1E+10	1	-1E+10	1	-1E+10	1	-1E+10	1
4902551	41	C	09/26/2021	21:08	-134.581	49.593	0	311.60	0	4.7050	0	33.8740	0	26.818	0	308.707	0	74.8	4	24.0	4	-1E+10	1	-1E+10	1	-1E+10	1	-1E+10	1	-1E+10	1	-1E+10	1
4902551	41	C	09/26/2021	21:08	-134.581	49.593	0	312.90	0	4.6930	0	33.8770	0	26.822	0	309.994	0	74.1	4	23.7	4	-1E+10	1	-1E+10	1	-1E+10	1	-1E+10	1	-1E+10	1	-1E+10	1
4902551	41	C	09/26/2021	21:08	-134.581	49.593	0	314.10	0	4.6890	0	33.8790	0	26.824	0	311.182	0	73.5	4	23.5	4	-1E+10	1	-1E+10	1	-1E+10	1	-1E+10	1	-1E+10	1	-1E+10	1
4902551	41	C	09/26/2021	21:08	-134.581	49.593	0	314.90	0	4.6830	0	33.8800	0	26.826	0	311.974	0	73.0	4	23.4	4	-1E+10	1	-1E+10	1	-1E+10	1	-1E+10	1	-1E+10	1	-1E+10	1
4902551	41	C	09/26/2021	21:08	-134.581	49.593	0	315.80	0	4.6790	0	33.8810	0	26.827	0	312.865	0	72.6	4	23.2	4	-1E+10	1	-1E+10	1	-1E+10	1	-1E+10	1	-1E+10	1	-1E+10	1
4902551	41	C	09/26/2021	21:08	-134.581	49.593	0	317.00	0	4.6730	0	33.8830	0	26.829	0	314.053	0	71.9	4	23.0	4	-1E+10	1	-1E+10	1	-1E+10	1	-1E+10	1	-1E+10	1	-1E+10	1
4902551	41	C	09/26/2021	21:08	-134.581	49.593	0	318.30	0	4.6700	0	33.8840	0	26.830	0	315.340	0	71.3	4	22.8	4	-1E+10	1	-1E+10	1	-1E+10	1	-1E+10	1	-1E+10	1	-1E+10	1
4902551	41	C	09/26/2021	21:08	-134.581	49.593	0	319.10	0	4.6650	0	33.8850	0	26.831	0	316.132	0	70.9	4	22.7	4	-1E+10	1	-1E+10	1	-1E+10	1	-1E+10	1	-1E+10	1	-1E+10	1
4902551	41	C	09/26/2021	21:08	-134.581	49.593	0	320.00	0	4.6520	0	33.8870	0	26.835	0	317.023	0	70.4	4	22.5	4	-1E+10	1	-1E+10	1	-1E+10	1	-1E+10	1	-1E+10	1	-1E+10	1
4902551	41	C	09/26/2021	21:08	-134.581	49.593	0	320.90	0	4.6470	0	33.8880	0	26.836	0	317.914	0	69.8	4	22.3	4	-1E+10	1	-1E+10	1	-1E+10	1	-1E+10	1	-1E+10	1	-1E+10	1
4902551	41	C	09/26/2021	21:08	-134.581	49.593	0	321.70	0	4.6460	0	33.8890	0	26.837	0	318.706	0	69.3	4	22.2	4	-1E+10	1	-1E+10	1	-1E+10	1	-1E+10	1	-1E+10	1	-1E+10	1
4902551	41	C	09/26/2021	21:08	-134.581	49.593	0	322.60	0	4.6440	0	33.8910	0	26.839	0	319.597	0	68.8	4	22.0	4	-1E+10	1	-1E+10	1	-1E+10	1	-1E+10	1	-1E+10	1	-1E+10	1
4902551	41	C	09/26/2021	21:08	-134.581	49.593	0	323.90	0	4.6410	0	33.8930	0	26.841	0	320.884	0	68.3	4	21.8	4	-1E+10	1	-1E+10	1	-1E+10	1	-1E+10	1	-1E+10	1	-1E+10	1
4902551	41	C	09/26/2021	21:08	-134.581	49.593	0	325.20	0	4.6380	0	33.8960	0	26.843	0	322.171	0	68.0	4	21.7	4	-1E+10	1	-1E+10	1	-1E+10	1	-1E+10	1	-1E+10	1	-1E+10	1
4902551	41	C	09/26/2021	21:08	-134.581	49.593	0	326.10	0	4.6240	0	33.8980	0	26.846	0	323.061	0	67.7	4	21.7	4	-1E+10	1	-1E+10	1	-1E+10	1	-1E+10	1	-1E+10	1	-1E+10	1
4902551	41	C	09/26/2021	21:08	-134.581	49.593	0	327.00	0	4.6170	0	33.9010	0	26.849	0	323.952	0	67.4	4	21.6	4	-1E+10	1	-1E+10	1	-1E+10	1	-1E+10	1	-1E+10	1	-1E+10	1
4902551	41	C	09/26/2021	21:08	-134.581	49.593	0	327.80	0	4.6150	0	33.9010	0	26.850	0	324.744	0	67.3	4	21.5	4	-1E+10	1	-1E+10	1	-1E+10	1	-1E+10	1	-1E+10	1	-1E+10	1
4902551	41	C	09/26/2021	21:08	-134.581	49.593	0	328.70	0	4.6080	0	33.9040	0	26.853	0	325.635	0	67.1	4	21.5	4	-1E+10	1	-1E+10	1	-1E+10	1	-1E+10	1	-1E+10	1	-1E+10	1
4902551	41	C	09/26/2021	21:08	-134.581	49.593	0	329.60	0	4.6020	0	33.9040	0	26.854	0	326.526	0	66.9	4	21.4	4	-1E+10	1	-1E+10	1	-1E+10	1	-1E+10	1	-1E+10	1	-1E+10	1
4902551	41	C	09/26/2021	21:08	-134.581	49.593	0	330.90	0	4.5970	0	33.9040	0	26.854	0	327.813	0	66.5	4	21.2	4	-1E+10	1	-1E+10	1	-1E+10	1	-1E+10	1	-1E+10	1	-1E+10	1
4902551	41	C	09/26/2021	21:08	-134.581	49.593	0	332.30	0	4.5910	0	33.9060	0	26.856	0	329.199	0	66.0	4	21.1	4	-1E+10	1	-1E+10	1	-1E+10	1	-1E+10	1	-1E+10	1	-1E+10	1
4902551	41	C	09/26/2021	21:08	-134.581	49.593	0	333.10	0	4.5870	0	33.9080	0	26.858	0	329.991	0	65.6	4	21.0	4	-1E+10	1	-1E+10	1	-1E+10	1	-1E+10	1	-1E+10	1	-1E+10	1
4902551	41	C	09/26/2021	21:08	-134.581	49.593	0	334.00	0	4.5860	0	33.9080	0	26.858	0	330.882	0	65.3	4	20.9	4	-1E+10	1	-1E+10	1	-1E+10	1	-1E+10	1	-1E+10	1	-1E+10	1
4902551	41	C	09/26/2021	21:08	-134.581	49.593	0	334.90	0	4.5830	0	33.9100	0	26.860	0	331.772	0	65.1	4	20.8	4	-1E+10	1	-1E+10	1	-1E+10	1	-1E+10	1	-1E+10	1	-1E+10	1
4902551	41	C	09/26/2021	21:08	-134.581	49.593	0	335.80	0	4.5780	0	33.9120	0	26.863	0	332.663	0	64.8	4	20.7	4	-1E+10	1	-1E+10	1	-1E+10	1	-1E+10	1	-1E+10	1	-1E+10	1
4902551	41	C	09/26/2021	21:08	-134.581	49.593	0	336.70	0	4.5760	0	33.9120	0	26.863	0	333.554	0	64.6	4	20.6	4	-1E+10	1	-1E+10	1	-1E+10	1	-1E+10	1	-1E+10	1	-1E+10	1
4902551	41	C	09/26/2021	21:08	-134.581	49.593	0	337.60	0	4.5740	0	33.9130	0	26.864	0	334.445	0	64.3	4	20.5	4	-1E+10	1	-1E+10	1	-1E+10	1	-1E+10	1	-1E+10	1	-1E+10	1
4902551	41	C	09/26/2021	21:08	-134.581	49.593	0	338.90	0	4.5640	0	33.9160	0	26.867	0	335.732	0	63.9	4	20.4	4	-1E+10	1	-1E+10	1	-1E+10	1	-1E+10	1	-1E+10	1	-1E+10	1
4902551	41	C	09/26/2021	21:08	-134.581	49.593	0	340.30	0	4.5620	0	33.9170	0	26.868	0	337.118	0	63.5	4	20.3	4	-1E+10	1	-1E+10	1	-1E+10	1	-1E+10	1	-1E+10	1	-1E+10	1
4902551	41	C	09/26/2021	21:08	-134.581	49.593	0	341.20	0	4.5600	0	33.9180	0	26.869	0	338.008	0	63.3	4	20.2	4	-1E+10	1	-1E+10	1	-1E+10	1	-1E+10	1	-1E+10	1	-1E+10	1
4902551	41	C	09/26/2021	21:08	-134.581	49.593	0	342.10	0	4.5600	0	33.9180	0	26.869	0	338.899	0	63.1	4	20.2	4	-1E+10	1	-1E+10	1	-1E+10	1	-1E+10	1	-1E+10	1	-1E+10	1
4902551	41	C	09/26/2021	21:08	-134.581	49.593	0	343.00	0	4.5600	0	33.9190	0	26.870	0	339.790	0	62.9	4	20.1	4	-1E+10	1	-1E+10	1	-1E+10	1	-1E+10	1	-1E+10	1	-1E+10	1
4902551	41	C	09/26/2021	21:08	-134.581	49.593	0	343.90	0	4.5570	0	33.9210	0	26.872	0	340.681	0	62.8	4	20.0	4	-1E+10	1	-1E+10	1	-1E+10	1	-1E+10	1	-1E+10	1	-1E+10	1
4902551	41	C	09/26/2021	21:08	-134.581	49.593	0	344.80	0	4.5550	0	33.9220	0	26.873	0	341.572	0	62.7	4	20.0	4	-1E+10	1	-1E+10	1	-1E+10	1	-1E+10	1	-1E+10	1	-1E+10	1
4902551	41	C	09/26/2021	21:08	-134.581	49.593	0	345.80	0	4.5480	0	33.9240	0	26.875	0	342.562	0	62.5	4	20.0	4	-1E+10	1	-1E+10	1	-1E+10	1	-1E+10	1	-1E+10	1	-1E+10	1
4902551	41	C	09/26/2021	21:08	-134.581	49.593	0	346.70	0	4.5450	0	33.9240	0	26.876	0	343.452	0	62.5	4	19.9	4	-1E+10	1	-1E+10	1	-1E+10	1	-1E+10	1	-1E+10	1	-1E+10	1
4902551	41	C	09/26/2021	21:08	-134.581	49.593	0	347.60	0	4.5440	0	33.9240	0	26.876	0	344.343	0	62.4	4	19.9	4	-1E+10	1	-1E+10	1	-1E+10	1	-1E+10	1	-1E+10	1	-1E+10	1
4902551	41	C	09/26/2021	21:08	-134.581	49.593	0	348.60	0	4.5440	0	33.9240	0	26.876	0	345.333	0	62.3	4	19.9	4	-1E+10	1	-1E+10	1	-1E+10	1	-1E+10	1	-1E+10	1	-1E+10	1
4902551	41	C	09/26/2021	21:08	-134.581	49.593	0	349.90	0	4.5430	0	33.9250	0	26.877	0	346.620	0	62.2	4	19.8	4	-1E+10	1	-1E+10	1	-1E+10	1	-1E+10	1	-1E+10	1	-1E+10	1
4902551	41	C	09/26/2021	21:08	-134.581	49.593	0	353.20	0	4.5360	0	33.9260	0	26.878	0	349.886	0	61.6	4	19.7	4	-1E+10	1	-1E+10	1	-1E+10	1	-1E+10	1	-1E+10	1	-1E+10	1
4902551	41	C	09/26/2021	21:08	-134.581	49.593	0	357.90	0	4.5200	0	33.9320	0	26.885	0	354.538	0	60.3	4	19.2	4	-1E+10	1	-1E+10	1	-1E+10	1	-1E+10	1	-1E+10	1	-1E+10	1
4902551	41	C	09/26/2021	21:08	-134.581	49.593	0	362.80	0	4.5090	0	33.9380	0	26.891	0	359.388	0	58.7	4	18.7	4	-1E+10	1	-1E+10	1	-1E+10	1	-1E+10	1	-1E+10	1	-1E+10	1
4902551	41	C	09/26/2021	21:08	-134.581	49.593	0	367.70	0	4.4950	0	33.9450	0	26.898	0	364.237	0	57.5	4	18.3	4	-1E+10	1	-1E+10	1	-1E+10	1	-1E+10	1	-1E+10	1	-1E+10	1
4902551	41	C	09/26/2021	21:08	-134.581	49.593	0	372.60	0	4.4830	0	33.9500	0	26.903	0	369.087	0	56.4	4	18.0	4	-1E+10	1	-1E+10	1	-1E+10	1	-1E+10	1	-1E+10	1	-1E+10	1
4902551	41	C	09/26/2021	21:08	-134.581	49.593	0	377.50	0	4.4730	0	33.9540	0	26.908	0	373.936	0	55.2	4	17.6	4	-1E+10	1	-1E+10	1	-1E+10	1	-1E+10	1	-1E+10	1	-1E+10	1
4902551	41	C	09/26/2021	21:08	-134.581	49.593	0	382.50	0	4.4620	0	33.9590	0	26.913	0	378.884	0	53.8	4	17.2	4	-1E+10	1	-1E+10	1	-1E+10	1	-1E+10	1	-1E+10	1	-1E+10	1
4902551	41	C	09/26/2021	21:08	-134.581	49.593	0	387.50	0	4.4490	0	33.9640	0	26.918	0	383.833	0	52.8	4	16.8	4	-1E+10	1	-1E+10	1	-1E+10	1	-1E+10	1	-1E+10	1	-1E+10	1
4902551	41	C	09/26/2021	21:08	-134.581	49.593	0	392.60	0	4.4360	0	33.9680	0	26.923	0	388.879	0	52.2	4	16.6	4	-1E+10	1	-1E+10	1	-1E+10	1	-1E+10	1	-1E+10	1	-1E+10	1
4902551	41	C	09/26/2021	21:08	-134.581	49.593	0	397.80	0	4.4280	0	33.9710	0	26.926	0	394.025	0	51.8	4	16.5	4	-1E+10	1	-1E+10	1	-1E+10	1	-1E+10	1	-1E+10	1	-1E+10	1
4902551	41	C	09/26/2021	21:08	-134.581	49.593	0	403.00	0	4.4250	0	33.9720	0	26.927	0	399.171	0	51.3	4	16.3	4	-1E+10	1	-1E+10	1	-1E+10	1	-1E+10	1	-1E+10	1	-1E+10	1
4902551	41	C	09/26/2021	21:08	-134.581	49.593	0	408.30	0	4.4210	0	33.9740	0	26.929	0	404.415	0	50.5	4	16.1	4	-1E+10	1	-1E+10	1	-1E+10	1	-1E+10	1	-1E+10	1	-1E+10	1
4902551	41	C	09/26/2021	21:08	-134.581	49.593	0	412.90	0	4.4120	0	33.9780	0	26.933	0	408.967	0	49.7	4	15.8	4	-1E+10	1	-1E+10	1	-1E+10	1	-1E+10	1	-1E+10	1	-1E+10	1
4902551	41	C	09/26/2021	21:08	-134.581	49.593	0	417.70	0	4.4000	0	33.9820	0	26.938	0	413.717	0	49.0	4	15.6	4	-1E+10	1	-1E+10	1	-1E+10	1	-1E+10	1	-1E+10	1	-1E+10	1
4902551	41	C	09/26/2021	21:08	-134.581	49.593	0	422.90	0	4.3840	0	33.9870	0	26.944	0	418.862	0	48.2	4	15.3	4	-1E+10	1	-1E+10	1	-1E+10	1	-1E+10	1	-1E+10	1	-1E+10	1
4902551	41	C	09/26/2021	21:08	-134.581	49.593	0	428.20	0	4.3710	0	33.9920	0	26.949	0	424.106	0	47.4	4	15.1	4	-1E+10	1	-1E+10	1	-1E+10	1	-1E+10	1	-1E+10	1	-1E+10	1
4902551	41	C	09/26/2021	21:08	-134.581	49.593	0	433.10	0	4.3580	0	33.9950	0	26.953	0	428.954	0	46.6	4	14.8	4	-1E+10	1	-1E+10	1	-1E+10	1	-1E+10	1	-1E+10	1	-1E+10	1
4902551	41	C	09/26/2021	21:08	-134.581	49.593	0	437.80	0	4.3460	0	33.9990	0	26.957	0	433.604	0	45.7	4	14.5	4	-1E+10	1	-1E+10	1	-1E+10	1	-1E+10	1	-1E+10	1	-1E+10	1
4902551	41	C	09/26/2021	21:08	-134.581	49.593	0	443.00	0	4.3250	0	34.0060	0	26.965	0	438.749	0	44.4	4	14.1	4	-1E+10	1	-1E+10	1	-1E+10	1	-1E+10	1	-1E+10	1	-1E+10	1
4902551	41	C	09/26/2021	21:08	-134.581	49.593	0	448.10	0	4.3080	0	34.0140	0	26.973	0	443.794	0	43.4	4	13.8	4	-1E+10	1	-1E+10	1	-1E+10	1	-1E+10	1	-1E+10	1	-1E+10	1
4902551	41	C	09/26/2021	21:08	-134.581	49.593	0	452.80	0	4.2930	0	34.0180	0	26.978	0	448.444	0	43.1	4	13.7	4	-1E+10	1	-1E+10	1	-1E+10	1	-1E+10	1	-1E+10	1	-1E+10	1
4902551	41	C	09/26/2021	21:08	-134.581	49.593	0	457.90	0	4.2740	0	34.0250	0	26.986	0	453.489	0	42.3	4	13.4	4	-1E+10	1	-1E+10	1	-1E+10	1	-1E+10	1	-1E+10	1	-1E+10	1
4902551	41	C	09/26/2021	21:08	-134.581	49.593	0	463.10	0	4.2650	0	34.0290	0	26.990	0	458.634	0	42.1	4	13.4	4	-1E+10	1	-1E+10	1	-1E+10	1	-1E+10	1	-1E+10	1	-1E+10	1
4902551	41	C	09/26/2021	21:08	-134.581	49.593	0	468.00	0	4.2570	0	34.0310	0	26.992	0	463.481	0	41.7	4	13.2	4	-1E+10	1	-1E+10	1	-1E+10	1	-1E+10	1	-1E+10	1	-1E+10	1
4902551	41	C	09/26/2021	21:08	-134.581	49.593	0	473.10	0	4.2500	0	34.0340	0	26.995	0	468.526	0	41.0	4	13.0	4	-1E+10	1	-1E+10	1	-1E+10	1	-1E+10	1	-1E+10	1	-1E+10	1
4902551	41	C	09/26/2021	21:08	-134.581	49.593	0	478.20	0	4.2400	0	34.0380	0	27.000	0	473.571	0	40.2	4	12.7	4	-1E+10	1	-1E+10	1	-1E+10	1	-1E+10	1	-1E+10	1	-1E+10	1
4902551	41	C	09/26/2021	21:08	-134.581	49.593	0	483.00	0	4.2200	0	34.0440	0	27.007	0	478.319	0	39.4	4	12.5	4	-1E+10	1	-1E+10	1	-1E+10	1	-1E+10	1	-1E+10	1	-1E+10	1
4902551	41	C	09/26/2021	21:08	-134.581	49.593	0	487.90	0	4.2070	0	34.0490	0	27.012	0	483.165	0	38.5	4	12.2	4	-1E+10	1	-1E+10	1	-1E+10	1	-1E+10	1	-1E+10	1	-1E+10	1
4902551	41	C	09/26/2021	21:08	-134.581	49.593	0	492.90	0	4.1960	0	34.0530	0	27.016	0	488.111	0	37.5	4	11.9	4	-1E+10	1	-1E+10	1	-1E+10	1	-1E+10	1	-1E+10	1	-1E+10	1
4902551	41	C	09/26/2021	21:08	-134.581	49.593	0	497.90	0	4.1810	0	34.0590	0	27.023	0	493.057	0	36.3	4	11.5	4	-1E+10	1	-1E+10	1	-1E+10	1	-1E+10	1	-1E+10	1	-1E+10	1
4902551	41	C	09/26/2021	21:08	-134.581	49.593	0	502.90	0	4.1610	0	34.0660	0	27.030	0	498.002	0	35.1	4	11.1	4	-1E+10	1	-1E+10	1	-1E+10	1	-1E+10	1	-1E+10	1	-1E+10	1
4902551	41	C	09/26/2021	21:08	-134.581	49.593	0	508.00	0	4.1470	0	34.0720	0	27.037	0	503.046	0	33.8	4	10.7	4	-1E+10	1	-1E+10	1	-1E+10	1	-1E+10	1	-1E+10	1	-1E+10	1
4902551	41	C	09/26/2021	21:08	-134.581	49.593	0	513.20	0	4.1420	0	34.0740	0	27.039	0	508.189	0	31.8	4	10.1	4	-1E+10	1	-1E+10	1	-1E+10	1	-1E+10	1	-1E+10	1	-1E+10	1
4902551	41	C	09/26/2021	21:08	-134.581	49.593	0	517.90	0	4.1400	0	34.0800	0	27.044	0	512.837	0	29.8	4	9.4	4	-1E+10	1	-1E+10	1	-1E+10	1	-1E+10	1	-1E+10	1	-1E+10	1
4902551	41	C	09/26/2021	21:08	-134.581	49.593	0	522.70	0	4.1290	0	34.0850	0	27.049	0	517.584	0	28.5	4	9.0	4	-1E+10	1	-1E+10	1	-1E+10	1	-1E+10	1	-1E+10	1	-1E+10	1
4902551	41	C	09/26/2021	21:08	-134.581	49.593	0	527.60	0	4.1210	0	34.0910	0	27.055	0	522.430	0	27.1	4	8.6	4	-1E+10	1	-1E+10	1	-1E+10	1	-1E+10	1	-1E+10	1	-1E+10	1
4902551	41	C	09/26/2021	21:08	-134.581	49.593	0	532.90	0	4.1010	0	34.1000	0	27.064	0	527.672	0	26.3	4	8.3	4	-1E+10	1	-1E+10	1	-1E+10	1	-1E+10	1	-1E+10	1	-1E+10	1
4902551	41	C	09/26/2021	21:08	-134.581	49.593	0	538.20	0	4.0840	0	34.1060	0	27.070	0	532.913	0	25.9	4	8.2	4	-1E+10	1	-1E+10	1	-1E+10	1	-1E+10	1	-1E+10	1	-1E+10	1
4902551	41	C	09/26/2021	21:08	-134.581	49.593	0	543.00	0	4.0660	0	34.1110	0	27.076	0	537.660	0	25.6	4	8.1	4	-1E+10	1	-1E+10	1	-1E+10	1	-1E+10	1	-1E+10	1	-1E+10	1
4902551	41	C	09/26/2021	21:08	-134.581	49.593	0	547.90	0	4.0560	0	34.1130	0	27.079	0	542.505	0	25.3	4	8.0	4	-1E+10	1	-1E+10	1	-1E+10	1	-1E+10	1	-1E+10	1	-1E+10	1
4902551	41	C	09/26/2021	21:08	-134.581	49.593	0	552.80	0	4.0430	0	34.1180	0	27.084	0	547.350	0	24.9	4	7.9	4	-1E+10	1	-1E+10	1	-1E+10	1	-1E+10	1	-1E+10	1	-1E+10	1
4902551	41	C	09/26/2021	21:08	-134.581	49.593	0	557.70	0	4.0250	0	34.1230	0	27.090	0	552.195	0	24.7	4	7.8	4	-1E+10	1	-1E+10	1	-1E+10	1	-1E+10	1	-1E+10	1	-1E+10	1
4902551	41	C	09/26/2021	21:08	-134.581	49.593	0	562.60	0	4.0210	0	34.1240	0	27.091	0	557.041	0	24.4	4	7.7	4	-1E+10	1	-1E+10	1	-1E+10	1	-1E+10	1	-1E+10	1	-1E+10	1
4902551	41	C	09/26/2021	21:08	-134.581	49.593	0	567.50	0	4.0020	0	34.1300	0	27.098	0	561.886	0	24.1	4	7.6	4	-1E+10	1	-1E+10	1	-1E+10	1	-1E+10	1	-1E+10	1	-1E+10	1
4902551	41	C	09/26/2021	21:08	-134.581	49.593	0	572.50	0	3.9880	0	34.1330	0	27.102	0	566.829	0	24.0	4	7.6	4	-1E+10	1	-1E+10	1	-1E+10	1	-1E+10	1	-1E+10	1	-1E+10	1
4902551	41	C	09/26/2021	21:08	-134.581	49.593	0	577.50	0	3.9710	0	34.1370	0	27.107	0	571.773	0	23.7	4	7.5	4	-1E+10	1	-1E+10	1	-1E+10	1	-1E+10	1	-1E+10	1	-1E+10	1
4902551	41	C	09/26/2021	21:08	-134.581	49.593	0	582.50	0	3.9660	0	34.1390	0	27.109	0	576.716	0	23.5	4	7.4	4	-1E+10	1	-1E+10	1	-1E+10	1	-1E+10	1	-1E+10	1	-1E+10	1
4902551	41	C	09/26/2021	21:08	-134.581	49.593	0	587.60	0	3.9480	0	34.1430	0	27.114	0	581.759	0	23.2	4	7.3	4	-1E+10	1	-1E+10	1	-1E+10	1	-1E+10	1	-1E+10	1	-1E+10	1
4902551	41	C	09/26/2021	21:08	-134.581	49.593	0	592.60	0	3.9400	0	34.1460	0	27.117	0	586.702	0	22.9	4	7.2	4	-1E+10	1	-1E+10	1	-1E+10	1	-1E+10	1	-1E+10	1	-1E+10	1
4902551	41	C	09/26/2021	21:08	-134.581	49.593	0	597.90	0	3.9310	0	34.1490	0	27.121	0	591.942	0	22.8	4	7.2	4	-1E+10	1	-1E+10	1	-1E+10	1	-1E+10	1	-1E+10	1	-1E+10	1
4902551	41	C	09/26/2021	21:08	-134.581	49.593	0	603.30	0	3.9110	0	34.1540	0	27.127	0	597.280	0	22.7	4	7.1	4	-1E+10	1	-1E+10	1	-1E+10	1	-1E+10	1	-1E+10	1	-1E+10	1
4902551	41	C	09/26/2021	21:08	-134.581	49.593	0	608.10	0	3.9050	0	34.1560	0	27.129	0	602.025	0	22.6	4	7.1	4	-1E+10	1	-1E+10	1	-1E+10	1	-1E+10	1	-1E+10	1	-1E+10	1
4902551	41	C	09/26/2021	21:08	-134.581	49.593	0	613.00	0	3.8940	0	34.1580	0	27.132	0	606.869	0	22.3	4	7.0	4	-1E+10	1	-1E+10	1	-1E+10	1	-1E+10	1	-1E+10	1	-1E+10	1
4902551	41	C	09/26/2021	21:08	-134.581	49.593	0	618.00	0	3.8800	0	34.1620	0	27.136	0	611.812	0	22.1	4	7.0	4	-1E+10	1	-1E+10	1	-1E+10	1	-1E+10	1	-1E+10	1	-1E+10	1
4902551	41	C	09/26/2021	21:08	-134.581	49.593	0	623.00	0	3.8690	0	34.1650	0	27.140	0	616.754	0	22.0	4	6.9	4	-1E+10	1	-1E+10	1	-1E+10	1	-1E+10	1	-1E+10	1	-1E+10	1
4902551	41	C	09/26/2021	21:08	-134.581	49.593	0	628.00	0	3.8610	0	34.1670	0	27.142	0	621.697	0	21.8	4	6.9	4	-1E+10	1	-1E+10	1	-1E+10	1	-1E+10	1	-1E+10	1	-1E+10	1
4902551	41	C	09/26/2021	21:08	-134.581	49.593	0	633.00	0	3.8490	0	34.1700	0	27.146	0	626.639	0	21.5	4	6.8	4	-1E+10	1	-1E+10	1	-1E+10	1	-1E+10	1	-1E+10	1	-1E+10	1
4902551	41	C	09/26/2021	21:08	-134.581	49.593	0	637.90	0	3.8250	0	34.1760	0	27.153	0	631.482	0	21.2	4	6.7	4	-1E+10	1	-1E+10	1	-1E+10	1	-1E+10	1	-1E+10	1	-1E+10	1
4902551	41	C	09/26/2021	21:08	-134.581	49.593	0	643.10	0	3.8010	0	34.1820	0	27.160	0	636.622	0	20.9	4	6.6	4	-1E+10	1	-1E+10	1	-1E+10	1	-1E+10	1	-1E+10	1	-1E+10	1
4902551	41	C	09/26/2021	21:08	-134.581	49.593	0	648.20	0	3.7890	0	34.1860	0	27.165	0	641.663	0	20.7	4	6.5	4	-1E+10	1	-1E+10	1	-1E+10	1	-1E+10	1	-1E+10	1	-1E+10	1
4902551	41	C	09/26/2021	21:08	-134.581	49.593	0	653.00	0	3.7820	0	34.1870	0	27.166	0	646.407	0	20.4	4	6.4	4	-1E+10	1	-1E+10	1	-1E+10	1	-1E+10	1	-1E+10	1	-1E+10	1
4902551	41	C	09/26/2021	21:08	-134.581	49.593	0	658.00	0	3.7700	0	34.1910	0	27.171	0	651.349	0	20.1	4	6.3	4	-1E+10	1	-1E+10	1	-1E+10	1	-1E+10	1	-1E+10	1	-1E+10	1
4902551	41	C	09/26/2021	21:08	-134.581	49.593	0	663.00	0	3.7590	0	34.1940	0	27.174	0	656.290	0	19.8	4	6.2	4	-1E+10	1	-1E+10	1	-1E+10	1	-1E+10	1	-1E+10	1	-1E+10	1
4902551	41	C	09/26/2021	21:08	-134.581	49.593	0	668.20	0	3.7450	0	34.1980	0	27.179	0	661.429	0	19.6	4	6.2	4	-1E+10	1	-1E+10	1	-1E+10	1	-1E+10	1	-1E+10	1	-1E+10	1
4902551	41	C	09/26/2021	21:08	-134.581	49.593	0	673.00	0	3.7370	0	34.2000	0	27.181	0	666.173	0	19.4	4	6.1	4	-1E+10	1	-1E+10	1	-1E+10	1	-1E+10	1	-1E+10	1	-1E+10	1
4902551	41	C	09/26/2021	21:08	-134.581	49.593	0	677.90	0	3.7270	0	34.2030	0	27.185	0	671.015	0	19.2	4	6.0	4	-1E+10	1	-1E+10	1	-1E+10	1	-1E+10	1	-1E+10	1	-1E+10	1
4902551	41	C	09/26/2021	21:08	-134.581	49.593	0	682.80	0	3.7150	0	34.2060	0	27.188	0	675.858	0	19.1	4	6.0	4	-1E+10	1	-1E+10	1	-1E+10	1	-1E+10	1	-1E+10	1	-1E+10	1
4902551	41	C	09/26/2021	21:08	-134.581	49.593	0	687.70	0	3.7080	0	34.2080	0	27.191	0	680.700	0	18.9	4	5.9	4	-1E+10	1	-1E+10	1	-1E+10	1	-1E+10	1	-1E+10	1	-1E+10	1
4902551	41	C	09/26/2021	21:08	-134.581	49.593	0	692.80	0	3.6970	0	34.2110	0	27.194	0	685.740	0	18.7	4	5.9	4	-1E+10	1	-1E+10	1	-1E+10	1	-1E+10	1	-1E+10	1	-1E+10	1
4902551	41	C	09/26/2021	21:08	-134.581	49.593	0	697.80	0	3.6880	0	34.2130	0	27.197	0	690.680	0	18.4	4	5.8	4	-1E+10	1	-1E+10	1	-1E+10	1	-1E+10	1	-1E+10	1	-1E+10	1
4902551	41	C	09/26/2021	21:08	-134.581	49.593	0	702.90	0	3.6730	0	34.2170	0	27.201	0	695.720	0	18.2	4	5.7	4	-1E+10	1	-1E+10	1	-1E+10	1	-1E+10	1	-1E+10	1	-1E+10	1
4902551	41	C	09/26/2021	21:08	-134.581	49.593	0	707.60	0	3.6610	0	34.2210	0	27.206	0	700.364	0	18.0	4	5.6	4	-1E+10	1	-1E+10	1	-1E+10	1	-1E+10	1	-1E+10	1	-1E+10	1
4902551	41	C	09/26/2021	21:08	-134.581	49.593	0	712.90	0	3.6520	0	34.2230	0	27.208	0	705.601	0	17.8	4	5.6	4	-1E+10	1	-1E+10	1	-1E+10	1	-1E+10	1	-1E+10	1	-1E+10	1
4902551	41	C	09/26/2021	21:08	-134.581	49.593	0	718.10	0	3.6350	0	34.2270	0	27.213	0	710.739	0	17.4	4	5.5	4	-1E+10	1	-1E+10	1	-1E+10	1	-1E+10	1	-1E+10	1	-1E+10	1
4902551	41	C	09/26/2021	21:08	-134.581	49.593	0	722.90	0	3.6220	0	34.2300	0	27.217	0	715.481	0	17.1	4	5.3	4	-1E+10	1	-1E+10	1	-1E+10	1	-1E+10	1	-1E+10	1	-1E+10	1
4902551	41	C	09/26/2021	21:08	-134.581	49.593	0	727.90	0	3.6190	0	34.2340	0	27.220	0	720.421	0	16.8	4	5.3	4	-1E+10	1	-1E+10	1	-1E+10	1	-1E+10	1	-1E+10	1	-1E+10	1
4902551	41	C	09/26/2021	21:08	-134.581	49.593	0	732.80	0	3.6120	0	34.2360	0	27.223	0	725.262	0	16.8	4	5.3	4	-1E+10	1	-1E+10	1	-1E+10	1	-1E+10	1	-1E+10	1	-1E+10	1
4902551	41	C	09/26/2021	21:08	-134.581	49.593	0	737.80	0	3.5890	0	34.2400	0	27.228	0	730.202	0	16.7	4	5.2	4	-1E+10	1	-1E+10	1	-1E+10	1	-1E+10	1	-1E+10	1	-1E+10	1
4902551	41	C	09/26/2021	21:08	-134.581	49.593	0	742.80	0	3.5670	0	34.2450	0	27.234	0	735.142	0	16.4	4	5.1	4	-1E+10	1	-1E+10	1	-1E+10	1	-1E+10	1	-1E+10	1	-1E+10	1
4902551	41	C	09/26/2021	21:08	-134.581	49.593	0	748.00	0	3.5540	0	34.2490	0	27.239	0	740.279	0	16.3	4	5.1	4	-1E+10	1	-1E+10	1	-1E+10	1	-1E+10	1	-1E+10	1	-1E+10	1
4902551	41	C	09/26/2021	21:08	-134.581	49.593	0	753.10	0	3.5430	0	34.2510	0	27.241	0	745.317	0	16.1	4	5.0	4	-1E+10	1	-1E+10	1	-1E+10	1	-1E+10	1	-1E+10	1	-1E+10	1
4902551	41	C	09/26/2021	21:08	-134.581	49.593	0	757.80	0	3.5340	0	34.2540	0	27.245	0	749.960	0	15.9	4	5.0	4	-1E+10	1	-1E+10	1	-1E+10	1	-1E+10	1	-1E+10	1	-1E+10	1
4902551	41	C	09/26/2021	21:08	-134.581	49.593	0	762.50	0	3.5280	0	34.2550	0	27.246	0	754.603	0	15.8	4	4.9	4	-1E+10	1	-1E+10	1	-1E+10	1	-1E+10	1	-1E+10	1	-1E+10	1
4902551	41	C	09/26/2021	21:08	-134.581	49.593	0	767.70	0	3.5130	0	34.2600	0	27.251	0	759.740	0	15.7	4	4.9	4	-1E+10	1	-1E+10	1	-1E+10	1	-1E+10	1	-1E+10	1	-1E+10	1
4902551	41	C	09/26/2021	21:08	-134.581	49.593	0	773.00	0	3.5010	0	34.2610	0	27.253	0	764.975	0	15.6	4	4.9	4	-1E+10	1	-1E+10	1	-1E+10	1	-1E+10	1	-1E+10	1	-1E+10	1
4902551	41	C	09/26/2021	21:08	-134.581	49.593	0	777.80	0	3.4900	0	34.2640	0	27.257	0	769.717	0	15.5	4	4.8	4	-1E+10	1	-1E+10	1	-1E+10	1	-1E+10	1	-1E+10	1	-1E+10	1
4902551	41	C	09/26/2021	21:08	-134.581	49.593	0	782.50	0	3.4840	0	34.2670	0	27.260	0	774.359	0	15.3	4	4.8	4	-1E+10	1	-1E+10	1	-1E+10	1	-1E+10	1	-1E+10	1	-1E+10	1
4902551	41	C	09/26/2021	21:08	-134.581	49.593	0	787.80	0	3.4750	0	34.2700	0	27.263	0	779.594	0	15.2	4	4.8	4	-1E+10	1	-1E+10	1	-1E+10	1	-1E+10	1	-1E+10	1	-1E+10	1
4902551	41	C	09/26/2021	21:08	-134.581	49.593	0	793.10	0	3.4660	0	34.2710	0	27.265	0	784.829	0	15.1	4	4.7	4	-1E+10	1	-1E+10	1	-1E+10	1	-1E+10	1	-1E+10	1	-1E+10	1
4902551	41	C	09/26/2021	21:08	-134.581	49.593	0	797.90	0	3.4620	0	34.2730	0	27.267	0	789.570	0	15.0	4	4.7	4	-1E+10	1	-1E+10	1	-1E+10	1	-1E+10	1	-1E+10	1	-1E+10	1
4902551	41	C	09/26/2021	21:08	-134.581	49.593	0	802.60	0	3.4540	0	34.2750	0	27.269	0	794.212	0	14.9	4	4.7	4	-1E+10	1	-1E+10	1	-1E+10	1	-1E+10	1	-1E+10	1	-1E+10	1
4902551	41	C	09/26/2021	21:08	-134.581	49.593	0	807.80	0	3.4460	0	34.2770	0	27.272	0	799.347	0	14.9	4	4.6	4	-1E+10	1	-1E+10	1	-1E+10	1	-1E+10	1	-1E+10	1	-1E+10	1
4902551	41	C	09/26/2021	21:08	-134.581	49.593	0	813.00	0	3.4380	0	34.2790	0	27.274	0	804.483	0	14.7	4	4.6	4	-1E+10	1	-1E+10	1	-1E+10	1	-1E+10	1	-1E+10	1	-1E+10	1
4902551	41	C	09/26/2021	21:08	-134.581	49.593	0	818.20	0	3.4230	0	34.2820	0	27.278	0	809.619	0	14.6	4	4.6	4	-1E+10	1	-1E+10	1	-1E+10	1	-1E+10	1	-1E+10	1	-1E+10	1
4902551	41	C	09/26/2021	21:08	-134.581	49.593	0	822.90	0	3.4110	0	34.2840	0	27.281	0	814.260	0	14.5	4	4.5	4	-1E+10	1	-1E+10	1	-1E+10	1	-1E+10	1	-1E+10	1	-1E+10	1
4902551	41	C	09/26/2021	21:08	-134.581	49.593	0	827.50	0	3.4010	0	34.2870	0	27.284	0	818.803	0	14.5	4	4.5	4	-1E+10	1	-1E+10	1	-1E+10	1	-1E+10	1	-1E+10	1	-1E+10	1
4902551	41	C	09/26/2021	21:08	-134.581	49.593	0	832.80	0	3.3870	0	34.2900	0	27.288	0	824.037	0	14.4	4	4.5	4	-1E+10	1	-1E+10	1	-1E+10	1	-1E+10	1	-1E+10	1	-1E+10	1
4902551	41	C	09/26/2021	21:08	-134.581	49.593	0	838.00	0	3.3760	0	34.2920	0	27.290	0	829.172	0	14.3	4	4.4	4	-1E+10	1	-1E+10	1	-1E+10	1	-1E+10	1	-1E+10	1	-1E+10	1
4902551	41	C	09/26/2021	21:08	-134.581	49.593	0	843.30	0	3.3660	0	34.2940	0	27.293	0	834.405	0	14.2	4	4.4	4	-1E+10	1	-1E+10	1	-1E+10	1	-1E+10	1	-1E+10	1	-1E+10	1
4902551	41	C	09/26/2021	21:08	-134.581	49.593	0	848.00	0	3.3580	0	34.2960	0	27.295	0	839.046	0	14.1	4	4.4	4	-1E+10	1	-1E+10	1	-1E+10	1	-1E+10	1	-1E+10	1	-1E+10	1
4902551	41	C	09/26/2021	21:08	-134.581	49.593	0	852.50	0	3.3470	0	34.2990	0	27.299	0	843.490	0	14.1	4	4.4	4	-1E+10	1	-1E+10	1	-1E+10	1	-1E+10	1	-1E+10	1	-1E+10	1
4902551	41	C	09/26/2021	21:08	-134.581	49.593	0	857.90	0	3.3330	0	34.3020	0	27.303	0	848.822	0	14.0	4	4.3	4	-1E+10	1	-1E+10	1	-1E+10	1	-1E+10	1	-1E+10	1	-1E+10	1
4902551	41	C	09/26/2021	21:08	-134.581	49.593	0	863.20	0	3.3210	0	34.3040	0	27.305	0	854.055	0	13.9	4	4.3	4	-1E+10	1	-1E+10	1	-1E+10	1	-1E+10	1	-1E+10	1	-1E+10	1
4902551	41	C	09/26/2021	21:08	-134.581	49.593	0	868.20	0	3.3110	0	34.3060	0	27.308	0	858.991	0	13.9	4	4.3	4	-1E+10	1	-1E+10	1	-1E+10	1	-1E+10	1	-1E+10	1	-1E+10	1
4902551	41	C	09/26/2021	21:08	-134.581	49.593	0	873.30	0	3.3000	0	34.3090	0	27.311	0	864.027	0	13.8	4	4.3	4	-1E+10	1	-1E+10	1	-1E+10	1	-1E+10	1	-1E+10	1	-1E+10	1
4902551	41	C	09/26/2021	21:08	-134.581	49.593	0	877.90	0	3.2920	0	34.3110	0	27.314	0	868.568	0	13.8	4	4.3	4	-1E+10	1	-1E+10	1	-1E+10	1	-1E+10	1	-1E+10	1	-1E+10	1
4902551	41	C	09/26/2021	21:08	-134.581	49.593	0	882.70	0	3.2830	0	34.3130	0	27.316	0	873.307	0	13.7	4	4.3	4	-1E+10	1	-1E+10	1	-1E+10	1	-1E+10	1	-1E+10	1	-1E+10	1
4902551	41	C	09/26/2021	21:08	-134.581	49.593	0	888.00	0	3.2750	0	34.3140	0	27.318	0	878.540	0	13.6	4	4.2	4	-1E+10	1	-1E+10	1	-1E+10	1	-1E+10	1	-1E+10	1	-1E+10	1
4902551	41	C	09/26/2021	21:08	-134.581	49.593	0	893.20	0	3.2640	0	34.3170	0	27.321	0	883.673	0	13.6	4	4.2	4	-1E+10	1	-1E+10	1	-1E+10	1	-1E+10	1	-1E+10	1	-1E+10	1
4902551	41	C	09/26/2021	21:08	-134.581	49.593	0	898.10	0	3.2570	0	34.3180	0	27.323	0	888.511	0	13.6	4	4.2	4	-1E+10	1	-1E+10	1	-1E+10	1	-1E+10	1	-1E+10	1	-1E+10	1
4902551	41	C	09/26/2021	21:08	-134.581	49.593	0	902.90	0	3.2530	0	34.3190	0	27.324	0	893.249	0	13.5	4	4.2	4	-1E+10	1	-1E+10	1	-1E+10	1	-1E+10	1	-1E+10	1	-1E+10	1
4902551	41	C	09/26/2021	21:08	-134.581	49.593	0	907.90	0	3.2460	0	34.3210	0	27.326	0	898.185	0	13.5	4	4.2	4	-1E+10	1	-1E+10	1	-1E+10	1	-1E+10	1	-1E+10	1	-1E+10	1
4902551	41	C	09/26/2021	21:08	-134.581	49.593	0	913.00	0	3.2380	0	34.3220	0	27.328	0	903.220	0	13.5	4	4.2	4	-1E+10	1	-1E+10	1	-1E+10	1	-1E+10	1	-1E+10	1	-1E+10	1
4902551	41	C	09/26/2021	21:08	-134.581	49.593	0	918.10	0	3.2320	0	34.3240	0	27.330	0	908.254	0	13.4	4	4.2	4	-1E+10	1	-1E+10	1	-1E+10	1	-1E+10	1	-1E+10	1	-1E+10	1
4902551	41	C	09/26/2021	21:08	-134.581	49.593	0	922.80	0	3.2180	0	34.3270	0	27.334	0	912.893	0	13.4	4	4.1	4	-1E+10	1	-1E+10	1	-1E+10	1	-1E+10	1	-1E+10	1	-1E+10	1
4902551	41	C	09/26/2021	21:08	-134.581	49.593	0	927.60	0	3.2090	0	34.3290	0	27.336	0	917.631	0	13.3	4	4.1	4	-1E+10	1	-1E+10	1	-1E+10	1	-1E+10	1	-1E+10	1	-1E+10	1
4902551	41	C	09/26/2021	21:08	-134.581	49.593	0	932.80	0	3.2030	0	34.3300	0	27.338	0	922.764	0	13.3	4	4.1	4	-1E+10	1	-1E+10	1	-1E+10	1	-1E+10	1	-1E+10	1	-1E+10	1
4902551	41	C	09/26/2021	21:08	-134.581	49.593	0	938.00	0	3.1910	0	34.3330	0	27.341	0	927.896	0	13.2	4	4.1	4	-1E+10	1	-1E+10	1	-1E+10	1	-1E+10	1	-1E+10	1	-1E+10	1
4902551	41	C	09/26/2021	21:08	-134.581	49.593	0	942.90	0	3.1810	0	34.3350	0	27.344	0	932.733	0	13.2	4	4.1	4	-1E+10	1	-1E+10	1	-1E+10	1	-1E+10	1	-1E+10	1	-1E+10	1
4902551	41	C	09/26/2021	21:08	-134.581	49.593	0	947.70	0	3.1700	0	34.3380	0	27.347	0	937.470	0	13.1	4	4.1	4	-1E+10	1	-1E+10	1	-1E+10	1	-1E+10	1	-1E+10	1	-1E+10	1
4902551	41	C	09/26/2021	21:08	-134.581	49.593	0	952.70	0	3.1620	0	34.3400	0	27.349	0	942.405	0	13.1	4	4.0	4	-1E+10	1	-1E+10	1	-1E+10	1	-1E+10	1	-1E+10	1	-1E+10	1
4902551	41	C	09/26/2021	21:08	-134.581	49.593	0	957.70	0	3.1550	0	34.3420	0	27.352	0	947.340	0	13.0	4	4.0	4	-1E+10	1	-1E+10	1	-1E+10	1	-1E+10	1	-1E+10	1	-1E+10	1
4902551	41	C	09/26/2021	21:08	-134.581	49.593	0	962.80	0	3.1420	0	34.3450	0	27.355	0	952.373	0	13.0	4	4.0	4	-1E+10	1	-1E+10	1	-1E+10	1	-1E+10	1	-1E+10	1	-1E+10	1
4902551	41	C	09/26/2021	21:08	-134.581	49.593	0	968.00	0	3.1370	0	34.3460	0	27.357	0	957.505	0	12.9	4	4.0	4	-1E+10	1	-1E+10	1	-1E+10	1	-1E+10	1	-1E+10	1	-1E+10	1
4902551	41	C	09/26/2021	21:08	-134.581	49.593	0	973.20	0	3.1240	0	34.3480	0	27.359	0	962.636	0	12.9	4	4.0	4	-1E+10	1	-1E+10	1	-1E+10	1	-1E+10	1	-1E+10	1	-1E+10	1
4902551	41	C	09/26/2021	21:08	-134.581	49.593	0	978.00	0	3.1130	0	34.3510	0	27.363	0	967.373	0	12.9	4	4.0	4	-1E+10	1	-1E+10	1	-1E+10	1	-1E+10	1	-1E+10	1	-1E+10	1
4902551	41	C	09/26/2021	21:08	-134.581	49.593	0	982.90	0	3.1020	0	34.3530	0	27.365	0	972.209	0	12.8	4	4.0	4	-1E+10	1	-1E+10	1	-1E+10	1	-1E+10	1	-1E+10	1	-1E+10	1
4902551	41	C	09/26/2021	21:08	-134.581	49.593	0	987.80	0	3.0930	0	34.3560	0	27.369	0	977.044	0	12.8	4	4.0	4	-1E+10	1	-1E+10	1	-1E+10	1	-1E+10	1	-1E+10	1	-1E+10	1
4902551	41	C	09/26/2021	21:08	-134.581	49.593	0	992.70	0	3.0870	0	34.3570	0	27.370	0	981.879	0	12.8	4	4.0	4	-1E+10	1	-1E+10	1	-1E+10	1	-1E+10	1	-1E+10	1	-1E+10	1
4902551	41	C	09/26/2021	21:08	-134.581	49.593	0	998.00	0	3.0760	0	34.3590	0	27.373	0	987.109	0	12.8	4	3.9	4	-1E+10	1	-1E+10	1	-1E+10	1	-1E+10	1	-1E+10	1	-1E+10	1
4902551	41	C	09/26/2021	21:08	-134.581	49.593	0	1005.80	0	3.0650	0	34.3620	0	27.376	0	994.805	0	12.7	4	3.9	4	-1E+10	1	-1E+10	1	-1E+10	1	-1E+10	1	-1E+10	1	-1E+10	1
4902551	41	C	09/26/2021	21:08	-134.581	49.593	0	1015.40	0	3.0560	0	34.3650	0	27.379	0	1004.277	0	12.7	4	3.9	4	-1E+10	1	-1E+10	1	-1E+10	1	-1E+10	1	-1E+10	1	-1E+10	1
4902551	41	C	09/26/2021	21:08	-134.581	49.593	0	1025.10	0	3.0490	0	34.3670	0	27.382	0	1013.847	0	12.6	4	3.9	4	-1E+10	1	-1E+10	1	-1E+10	1	-1E+10	1	-1E+10	1	-1E+10	1
4902551	41	C	09/26/2021	21:08	-134.581	49.593	0	1035.20	0	3.0430	0	34.3680	0	27.383	0	1023.812	0	12.6	4	3.9	4	-1E+10	1	-1E+10	1	-1E+10	1	-1E+10	1	-1E+10	1	-1E+10	1
4902551	41	C	09/26/2021	21:08	-134.581	49.593	0	1045.40	0	3.0290	0	34.3720	0	27.388	0	1033.875	0	12.5	4	3.9	4	-1E+10	1	-1E+10	1	-1E+10	1	-1E+10	1	-1E+10	1	-1E+10	1
4902551	41	C	09/26/2021	21:08	-134.581	49.593	0	1055.50	0	3.0120	0	34.3760	0	27.392	0	1043.838	0	12.4	4	3.8	4	-1E+10	1	-1E+10	1	-1E+10	1	-1E+10	1	-1E+10	1	-1E+10	1
4902551	41	C	09/26/2021	21:08	-134.581	49.593	0	1065.30	0	2.9970	0	34.3810	0	27.398	0	1053.505	0	12.4	4	3.8	4	-1E+10	1	-1E+10	1	-1E+10	1	-1E+10	1	-1E+10	1	-1E+10	1
4902551	41	C	09/26/2021	21:08	-134.581	49.593	0	1075.30	0	2.9880	0	34.3830	0	27.400	0	1063.369	0	12.4	4	3.8	4	-1E+10	1	-1E+10	1	-1E+10	1	-1E+10	1	-1E+10	1	-1E+10	1
4902551	41	C	09/26/2021	21:08	-134.581	49.593	0	1085.30	0	2.9690	0	34.3880	0	27.406	0	1073.233	0	12.4	4	3.8	4	-1E+10	1	-1E+10	1	-1E+10	1	-1E+10	1	-1E+10	1	-1E+10	1
4902551	41	C	09/26/2021	21:08	-134.581	49.593	0	1095.40	0	2.9550	0	34.3910	0	27.410	0	1083.194	0	12.4	4	3.8	4	-1E+10	1	-1E+10	1	-1E+10	1	-1E+10	1	-1E+10	1	-1E+10	1
4902551	41	C	09/26/2021	21:08	-134.581	49.593	0	1105.30	0	2.9420	0	34.3950	0	27.414	0	1092.958	0	12.4	4	3.8	4	-1E+10	1	-1E+10	1	-1E+10	1	-1E+10	1	-1E+10	1	-1E+10	1
4902551	41	C	09/26/2021	21:08	-134.581	49.593	0	1115.30	0	2.9270	0	34.3980	0	27.418	0	1102.820	0	12.5	4	3.8	4	-1E+10	1	-1E+10	1	-1E+10	1	-1E+10	1	-1E+10	1	-1E+10	1
4902551	41	C	09/26/2021	21:08	-134.581	49.593	0	1125.40	0	2.9070	0	34.4020	0	27.423	0	1112.781	0	12.6	4	3.9	4	-1E+10	1	-1E+10	1	-1E+10	1	-1E+10	1	-1E+10	1	-1E+10	1
4902551	41	C	09/26/2021	21:08	-134.581	49.593	0	1135.60	0	2.8860	0	34.4040	0	27.427	0	1122.839	0	12.7	4	3.9	4	-1E+10	1	-1E+10	1	-1E+10	1	-1E+10	1	-1E+10	1	-1E+10	1
4902551	41	C	09/26/2021	21:08	-134.581	49.593	0	1145.70	0	2.8760	0	34.4060	0	27.429	0	1132.798	0	12.7	4	3.9	4	-1E+10	1	-1E+10	1	-1E+10	1	-1E+10	1	-1E+10	1	-1E+10	1
4902551	41	C	09/26/2021	21:08	-134.581	49.593	0	1155.40	0	2.8580	0	34.4100	0	27.434	0	1142.363	0	12.8	4	3.9	4	-1E+10	1	-1E+10	1	-1E+10	1	-1E+10	1	-1E+10	1	-1E+10	1
4902551	41	C	09/26/2021	21:08	-134.581	49.593	0	1165.20	0	2.8470	0	34.4130	0	27.437	0	1152.025	0	12.9	4	4.0	4	-1E+10	1	-1E+10	1	-1E+10	1	-1E+10	1	-1E+10	1	-1E+10	1
4902551	41	C	09/26/2021	21:08	-134.581	49.593	0	1175.20	0	2.8330	0	34.4150	0	27.440	0	1161.885	0	13.0	4	4.0	4	-1E+10	1	-1E+10	1	-1E+10	1	-1E+10	1	-1E+10	1	-1E+10	1
4902551	41	C	09/26/2021	21:08	-134.581	49.593	0	1185.50	0	2.8200	0	34.4190	0	27.445	0	1172.039	0	13.1	4	4.0	4	-1E+10	1	-1E+10	1	-1E+10	1	-1E+10	1	-1E+10	1	-1E+10	1
4902551	41	C	09/26/2021	21:08	-134.581	49.593	0	1195.90	0	2.8020	0	34.4230	0	27.449	0	1182.292	0	13.2	4	4.1	4	-1E+10	1	-1E+10	1	-1E+10	1	-1E+10	1	-1E+10	1	-1E+10	1
4902551	41	C	09/26/2021	21:08	-134.581	49.593	0	1205.90	0	2.7900	0	34.4260	0	27.453	0	1192.150	0	13.4	4	4.1	4	-1E+10	1	-1E+10	1	-1E+10	1	-1E+10	1	-1E+10	1	-1E+10	1
4902551	41	C	09/26/2021	21:08	-134.581	49.593	0	1215.70	0	2.7670	0	34.4300	0	27.458	0	1201.810	0	13.6	4	4.2	4	-1E+10	1	-1E+10	1	-1E+10	1	-1E+10	1	-1E+10	1	-1E+10	1
4902551	41	C	09/26/2021	21:08	-134.581	49.593	0	1225.60	0	2.7440	0	34.4340	0	27.463	0	1211.568	0	13.9	4	4.3	4	-1E+10	1	-1E+10	1	-1E+10	1	-1E+10	1	-1E+10	1	-1E+10	1
4902551	41	C	09/26/2021	21:08	-134.581	49.593	0	1235.50	0	2.7310	0	34.4370	0	27.467	0	1221.326	0	14.0	4	4.3	4	-1E+10	1	-1E+10	1	-1E+10	1	-1E+10	1	-1E+10	1	-1E+10	1
4902551	41	C	09/26/2021	21:08	-134.581	49.593	0	1245.40	0	2.7180	0	34.4390	0	27.470	0	1231.084	0	14.2	4	4.4	4	-1E+10	1	-1E+10	1	-1E+10	1	-1E+10	1	-1E+10	1	-1E+10	1
4902551	41	C	09/26/2021	21:08	-134.581	49.593	0	1255.40	0	2.7060	0	34.4410	0	27.473	0	1240.939	0	14.4	4	4.4	4	-1E+10	1	-1E+10	1	-1E+10	1	-1E+10	1	-1E+10	1	-1E+10	1
4902551	41	C	09/26/2021	21:08	-134.581	49.593	0	1265.40	0	2.6990	0	34.4430	0	27.475	0	1250.795	0	14.6	4	4.5	4	-1E+10	1	-1E+10	1	-1E+10	1	-1E+10	1	-1E+10	1	-1E+10	1
4902551	41	C	09/26/2021	21:08	-134.581	49.593	0	1275.80	0	2.6710	0	34.4470	0	27.480	0	1261.043	0	14.9	4	4.6	4	-1E+10	1	-1E+10	1	-1E+10	1	-1E+10	1	-1E+10	1	-1E+10	1
4902551	41	C	09/26/2021	21:08	-134.581	49.593	0	1285.70	0	2.6560	0	34.4500	0	27.484	0	1270.799	0	15.1	4	4.6	4	-1E+10	1	-1E+10	1	-1E+10	1	-1E+10	1	-1E+10	1	-1E+10	1
4902551	41	C	09/26/2021	21:08	-134.581	49.593	0	1295.60	0	2.6520	0	34.4510	0	27.485	0	1280.554	0	15.1	4	4.6	4	-1E+10	1	-1E+10	1	-1E+10	1	-1E+10	1	-1E+10	1	-1E+10	1
4902551	41	C	09/26/2021	21:08	-134.581	49.593	0	1305.60	0	2.6510	0	34.4520	0	27.486	0	1290.407	0	15.3	4	4.7	4	-1E+10	1	-1E+10	1	-1E+10	1	-1E+10	1	-1E+10	1	-1E+10	1
4902551	41	C	09/26/2021	21:08	-134.581	49.593	0	1315.60	0	2.6360	0	34.4540	0	27.489	0	1300.260	0	15.5	4	4.7	4	-1E+10	1	-1E+10	1	-1E+10	1	-1E+10	1	-1E+10	1	-1E+10	1
4902551	41	C	09/26/2021	21:08	-134.581	49.593	0	1325.70	0	2.6270	0	34.4550	0	27.491	0	1310.211	0	15.7	4	4.8	4	-1E+10	1	-1E+10	1	-1E+10	1	-1E+10	1	-1E+10	1	-1E+10	1
4902551	41	C	09/26/2021	21:08	-134.581	49.593	0	1335.60	0	2.6160	0	34.4580	0	27.494	0	1319.964	0	15.9	4	4.9	4	-1E+10	1	-1E+10	1	-1E+10	1	-1E+10	1	-1E+10	1	-1E+10	1
4902551	41	C	09/26/2021	21:08	-134.581	49.593	0	1345.70	0	2.6060	0	34.4600	0	27.497	0	1329.914	0	16.2	4	5.0	4	-1E+10	1	-1E+10	1	-1E+10	1	-1E+10	1	-1E+10	1	-1E+10	1
4902551	41	C	09/26/2021	21:08	-134.581	49.593	0	1355.80	0	2.5960	0	34.4620	0	27.499	0	1339.864	0	16.5	4	5.1	4	-1E+10	1	-1E+10	1	-1E+10	1	-1E+10	1	-1E+10	1	-1E+10	1
4902551	41	C	09/26/2021	21:08	-134.581	49.593	0	1365.80	0	2.5820	0	34.4650	0	27.503	0	1349.714	0	17.1	4	5.2	4	-1E+10	1	-1E+10	1	-1E+10	1	-1E+10	1	-1E+10	1	-1E+10	1
4902551	41	C	09/26/2021	21:08	-134.581	49.593	0	1375.80	0	2.5550	0	34.4700	0	27.509	0	1359.564	0	17.7	4	5.4	4	-1E+10	1	-1E+10	1	-1E+10	1	-1E+10	1	-1E+10	1	-1E+10	1
4902551	41	C	09/26/2021	21:08	-134.581	49.593	0	1385.50	0	2.5350	0	34.4730	0	27.513	0	1369.118	0	18.1	4	5.5	4	-1E+10	1	-1E+10	1	-1E+10	1	-1E+10	1	-1E+10	1	-1E+10	1
4902551	41	C	09/26/2021	21:08	-134.581	49.593	0	1395.30	0	2.5210	0	34.4760	0	27.517	0	1378.771	0	18.5	4	5.7	4	-1E+10	1	-1E+10	1	-1E+10	1	-1E+10	1	-1E+10	1	-1E+10	1
4902551	41	C	09/26/2021	21:08	-134.581	49.593	0	1405.50	0	2.5090	0	34.4780	0	27.520	0	1388.816	0	19.0	4	5.8	4	-1E+10	1	-1E+10	1	-1E+10	1	-1E+10	1	-1E+10	1	-1E+10	1
4902551	41	C	09/26/2021	21:08	-134.581	49.593	0	1415.40	0	2.4930	0	34.4810	0	27.524	0	1398.566	0	19.5	4	5.9	4	-1E+10	1	-1E+10	1	-1E+10	1	-1E+10	1	-1E+10	1	-1E+10	1
4902551	41	C	09/26/2021	21:08	-134.581	49.593	0	1425.90	0	2.4770	0	34.4840	0	27.527	0	1408.906	0	20.0	4	6.1	4	-1E+10	1	-1E+10	1	-1E+10	1	-1E+10	1	-1E+10	1	-1E+10	1
4902551	41	C	09/26/2021	21:08	-134.581	49.593	0	1435.30	0	2.4630	0	34.4870	0	27.531	0	1418.162	0	20.4	4	6.2	4	-1E+10	1	-1E+10	1	-1E+10	1	-1E+10	1	-1E+10	1	-1E+10	1
4902551	41	C	09/26/2021	21:08	-134.581	49.593	0	1445.40	0	2.4530	0	34.4880	0	27.533	0	1428.108	0	20.9	4	6.4	4	-1E+10	1	-1E+10	1	-1E+10	1	-1E+10	1	-1E+10	1	-1E+10	1
4902551	41	C	09/26/2021	21:08	-134.581	49.593	0	1455.50	0	2.4340	0	34.4920	0	27.537	0	1438.052	0	21.4	4	6.5	4	-1E+10	1	-1E+10	1	-1E+10	1	-1E+10	1	-1E+10	1	-1E+10	1
4902551	41	C	09/26/2021	21:08	-134.581	49.593	0	1465.50	0	2.4190	0	34.4940	0	27.540	0	1447.898	0	21.9	4	6.7	4	-1E+10	1	-1E+10	1	-1E+10	1	-1E+10	1	-1E+10	1	-1E+10	1
4902551	41	C	09/26/2021	21:08	-134.581	49.593	0	1475.40	0	2.4030	0	34.4960	0	27.543	0	1457.645	0	22.5	4	6.8	4	-1E+10	1	-1E+10	1	-1E+10	1	-1E+10	1	-1E+10	1	-1E+10	1
4902551	41	C	09/26/2021	21:08	-134.581	49.593	0	1485.30	0	2.3870	0	34.4990	0	27.547	0	1467.392	0	23.1	4	7.0	4	-1E+10	1	-1E+10	1	-1E+10	1	-1E+10	1	-1E+10	1	-1E+10	1
4902551	41	C	09/26/2021	21:08	-134.581	49.593	0	1495.80	0	2.3660	0	34.5020	0	27.551	0	1477.728	0	23.8	4	7.2	4	-1E+10	1	-1E+10	1	-1E+10	1	-1E+10	1	-1E+10	1	-1E+10	1
4902551	41	C	09/26/2021	21:08	-134.581	49.593	0	1505.50	0	2.3490	0	34.5060	0	27.556	0	1487.277	0	24.5	4	7.5	4	-1E+10	1	-1E+10	1	-1E+10	1	-1E+10	1	-1E+10	1	-1E+10	1
4902551	41	C	09/26/2021	21:08	-134.581	49.593	0	1515.50	0	2.3320	0	34.5090	0	27.560	0	1497.121	0	25.0	4	7.6	4	-1E+10	1	-1E+10	1	-1E+10	1	-1E+10	1	-1E+10	1	-1E+10	1
4902551	41	C	09/26/2021	21:08	-134.581	49.593	0	1525.40	0	2.3260	0	34.5100	0	27.561	0	1506.865	0	25.3	4	7.7	4	-1E+10	1	-1E+10	1	-1E+10	1	-1E+10	1	-1E+10	1	-1E+10	1
4902551	41	C	09/26/2021	21:08	-134.581	49.593	0	1535.50	0	2.3190	0	34.5110	0	27.563	0	1516.806	0	25.7	4	7.8	4	-1E+10	1	-1E+10	1	-1E+10	1	-1E+10	1	-1E+10	1	-1E+10	1
4902551	41	C	09/26/2021	21:08	-134.581	49.593	0	1545.60	0	2.3070	0	34.5130	0	27.565	0	1526.747	0	26.3	4	8.0	4	-1E+10	1	-1E+10	1	-1E+10	1	-1E+10	1	-1E+10	1	-1E+10	1
4902551	41	C	09/26/2021	21:08	-134.581	49.593	0	1555.70	0	2.2970	0	34.5150	0	27.568	0	1536.687	0	26.6	4	8.1	4	-1E+10	1	-1E+10	1	-1E+10	1	-1E+10	1	-1E+10	1	-1E+10	1
4902551	41	C	09/26/2021	21:08	-134.581	49.593	0	1565.50	0	2.2920	0	34.5160	0	27.569	0	1546.332	0	26.9	4	8.2	4	-1E+10	1	-1E+10	1	-1E+10	1	-1E+10	1	-1E+10	1	-1E+10	1
4902551	41	C	09/26/2021	21:08	-134.581	49.593	0	1575.40	0	2.2860	0	34.5170	0	27.570	0	1556.074	0	27.2	4	8.2	4	-1E+10	1	-1E+10	1	-1E+10	1	-1E+10	1	-1E+10	1	-1E+10	1
4902551	41	C	09/26/2021	21:08	-134.581	49.593	0	1585.40	0	2.2800	0	34.5180	0	27.572	0	1565.914	0	27.5	4	8.3	4	-1E+10	1	-1E+10	1	-1E+10	1	-1E+10	1	-1E+10	1	-1E+10	1
4902551	41	C	09/26/2021	21:08	-134.581	49.593	0	1595.60	0	2.2730	0	34.5190	0	27.573	0	1575.951	0	27.8	4	8.4	4	-1E+10	1	-1E+10	1	-1E+10	1	-1E+10	1	-1E+10	1	-1E+10	1
4902551	41	C	09/26/2021	21:08	-134.581	49.593	0	1605.40	0	2.2700	0	34.5200	0	27.574	0	1585.594	0	28.1	4	8.5	4	-1E+10	1	-1E+10	1	-1E+10	1	-1E+10	1	-1E+10	1	-1E+10	1
4902551	41	C	09/26/2021	21:08	-134.581	49.593	0	1615.10	0	2.2600	0	34.5220	0	27.577	0	1595.137	0	28.6	4	8.7	4	-1E+10	1	-1E+10	1	-1E+10	1	-1E+10	1	-1E+10	1	-1E+10	1
4902551	41	C	09/26/2021	21:08	-134.581	49.593	0	1625.30	0	2.2460	0	34.5240	0	27.579	0	1605.173	0	29.3	4	8.9	4	-1E+10	1	-1E+10	1	-1E+10	1	-1E+10	1	-1E+10	1	-1E+10	1
4902551	41	C	09/26/2021	21:08	-134.581	49.593	0	1635.50	0	2.2370	0	34.5260	0	27.582	0	1615.208	0	30.0	4	9.1	4	-1E+10	1	-1E+10	1	-1E+10	1	-1E+10	1	-1E+10	1	-1E+10	1
4902551	41	C	09/26/2021	21:08	-134.581	49.593	0	1645.70	0	2.2280	0	34.5280	0	27.584	0	1625.242	0	30.7	4	9.3	4	-1E+10	1	-1E+10	1	-1E+10	1	-1E+10	1	-1E+10	1	-1E+10	1
4902551	41	C	09/26/2021	21:08	-134.581	49.593	0	1655.80	0	2.2120	0	34.5300	0	27.587	0	1635.177	0	31.4	4	9.5	4	-1E+10	1	-1E+10	1	-1E+10	1	-1E+10	1	-1E+10	1	-1E+10	1
4902551	41	C	09/26/2021	21:08	-134.581	49.593	0	1665.50	0	2.2050	0	34.5320	0	27.589	0	1644.719	0	31.9	4	9.7	4	-1E+10	1	-1E+10	1	-1E+10	1	-1E+10	1	-1E+10	1	-1E+10	1
4902551	41	C	09/26/2021	21:08	-134.581	49.593	0	1675.30	0	2.1920	0	34.5340	0	27.592	0	1654.359	0	32.5	4	9.9	4	-1E+10	1	-1E+10	1	-1E+10	1	-1E+10	1	-1E+10	1	-1E+10	1
4902551	41	C	09/26/2021	21:08	-134.581	49.593	0	1685.50	0	2.1820	0	34.5360	0	27.594	0	1664.391	0	33.2	4	10.0	4	-1E+10	1	-1E+10	1	-1E+10	1	-1E+10	1	-1E+10	1	-1E+10	1
4902551	41	C	09/26/2021	21:08	-134.581	49.593	0	1695.40	0	2.1730	0	34.5380	0	27.597	0	1674.128	0	33.8	4	10.2	4	-1E+10	1	-1E+10	1	-1E+10	1	-1E+10	1	-1E+10	1	-1E+10	1
4902551	41	C	09/26/2021	21:08	-134.581	49.593	0	1705.10	0	2.1650	0	34.5390	0	27.598	0	1683.668	0	34.3	4	10.4	4	-1E+10	1	-1E+10	1	-1E+10	1	-1E+10	1	-1E+10	1	-1E+10	1
4902551	41	C	09/26/2021	21:08	-134.581	49.593	0	1715.30	0	2.1570	0	34.5410	0	27.601	0	1693.699	0	34.9	4	10.6	4	-1E+10	1	-1E+10	1	-1E+10	1	-1E+10	1	-1E+10	1	-1E+10	1
4902551	41	C	09/26/2021	21:08	-134.581	49.593	0	1725.40	0	2.1480	0	34.5420	0	27.602	0	1703.631	0	35.5	4	10.8	4	-1E+10	1	-1E+10	1	-1E+10	1	-1E+10	1	-1E+10	1	-1E+10	1
4902551	41	C	09/26/2021	21:08	-134.581	49.593	0	1735.50	0	2.1370	0	34.5450	0	27.606	0	1713.563	0	36.3	4	11.0	4	-1E+10	1	-1E+10	1	-1E+10	1	-1E+10	1	-1E+10	1	-1E+10	1
4902551	41	C	09/26/2021	21:08	-134.581	49.593	0	1745.60	0	2.1240	0	34.5470	0	27.608	0	1723.494	0	36.9	4	11.2	4	-1E+10	1	-1E+10	1	-1E+10	1	-1E+10	1	-1E+10	1	-1E+10	1
4902551	41	C	09/26/2021	21:08	-134.581	49.593	0	1755.40	0	2.1200	0	34.5480	0	27.609	0	1733.130	0	37.3	4	11.3	4	-1E+10	1	-1E+10	1	-1E+10	1	-1E+10	1	-1E+10	1	-1E+10	1
4902551	41	C	09/26/2021	21:08	-134.581	49.593	0	1765.30	0	2.1130	0	34.5490	0	27.611	0	1742.864	0	37.8	4	11.4	4	-1E+10	1	-1E+10	1	-1E+10	1	-1E+10	1	-1E+10	1	-1E+10	1
4902551	41	C	09/26/2021	21:08	-134.581	49.593	0	1775.40	0	2.1050	0	34.5510	0	27.613	0	1752.794	0	38.3	4	11.6	4	-1E+10	1	-1E+10	1	-1E+10	1	-1E+10	1	-1E+10	1	-1E+10	1
4902551	41	C	09/26/2021	21:08	-134.581	49.593	0	1785.20	0	2.1000	0	34.5520	0	27.614	0	1762.428	0	38.7	4	11.7	4	-1E+10	1	-1E+10	1	-1E+10	1	-1E+10	1	-1E+10	1	-1E+10	1
4902551	41	C	09/26/2021	21:08	-134.581	49.593	0	1795.10	0	2.0950	0	34.5530	0	27.616	0	1772.161	0	39.4	4	11.9	4	-1E+10	1	-1E+10	1	-1E+10	1	-1E+10	1	-1E+10	1	-1E+10	1
4902551	41	C	09/26/2021	21:08	-134.581	49.593	0	1805.40	0	2.0830	0	34.5550	0	27.618	0	1782.286	0	40.3	4	12.2	4	-1E+10	1	-1E+10	1	-1E+10	1	-1E+10	1	-1E+10	1	-1E+10	1
4902551	41	C	09/26/2021	21:08	-134.581	49.593	0	1815.50	0	2.0720	0	34.5570	0	27.621	0	1792.214	0	41.0	4	12.4	4	-1E+10	1	-1E+10	1	-1E+10	1	-1E+10	1	-1E+10	1	-1E+10	1
4902551	41	C	09/26/2021	21:08	-134.581	49.593	0	1825.20	0	2.0640	0	34.5590	0	27.623	0	1801.749	0	41.6	4	12.6	4	-1E+10	1	-1E+10	1	-1E+10	1	-1E+10	1	-1E+10	1	-1E+10	1
4902551	41	C	09/26/2021	21:08	-134.581	49.593	0	1835.40	0	2.0550	0	34.5610	0	27.625	0	1811.774	0	42.3	4	12.8	4	-1E+10	1	-1E+10	1	-1E+10	1	-1E+10	1	-1E+10	1	-1E+10	1
4902551	41	C	09/26/2021	21:08	-134.581	49.593	0	1845.70	0	2.0490	0	34.5620	0	27.627	0	1821.897	0	42.9	4	12.9	4	-1E+10	1	-1E+10	1	-1E+10	1	-1E+10	1	-1E+10	1	-1E+10	1
4902551	41	C	09/26/2021	21:08	-134.581	49.593	0	1855.60	0	2.0410	0	34.5640	0	27.629	0	1831.627	0	43.4	4	13.1	4	-1E+10	1	-1E+10	1	-1E+10	1	-1E+10	1	-1E+10	1	-1E+10	1
4902551	41	C	09/26/2021	21:08	-134.581	49.593	0	1865.70	0	2.0360	0	34.5650	0	27.630	0	1841.553	0	43.9	4	13.3	4	-1E+10	1	-1E+10	1	-1E+10	1	-1E+10	1	-1E+10	1	-1E+10	1
4902551	41	C	09/26/2021	21:08	-134.581	49.593	0	1875.40	0	2.0290	0	34.5660	0	27.632	0	1851.085	0	44.6	4	13.5	4	-1E+10	1	-1E+10	1	-1E+10	1	-1E+10	1	-1E+10	1	-1E+10	1
4902551	41	C	09/26/2021	21:08	-134.581	49.593	0	1885.20	0	2.0200	0	34.5680	0	27.634	0	1860.715	0	45.2	4	13.6	4	-1E+10	1	-1E+10	1	-1E+10	1	-1E+10	1	-1E+10	1	-1E+10	1
4902551	41	C	09/26/2021	21:08	-134.581	49.593	0	1895.20	0	2.0140	0	34.5690	0	27.635	0	1870.542	0	45.7	4	13.8	4	-1E+10	1	-1E+10	1	-1E+10	1	-1E+10	1	-1E+10	1	-1E+10	1
4902551	41	C	09/26/2021	21:08	-134.581	49.593	0	1905.10	0	2.0080	0	34.5710	0	27.637	0	1880.269	0	46.3	4	14.0	4	-1E+10	1	-1E+10	1	-1E+10	1	-1E+10	1	-1E+10	1	-1E+10	1
4902551	41	C	09/26/2021	21:08	-134.581	49.593	0	1915.40	0	2.0000	0	34.5720	0	27.639	0	1890.389	0	47.1	4	14.2	4	-1E+10	1	-1E+10	1	-1E+10	1	-1E+10	1	-1E+10	1	-1E+10	1
4902551	41	C	09/26/2021	21:08	-134.581	49.593	0	1925.40	0	1.9880	0	34.5750	0	27.642	0	1900.214	0	48.0	4	14.5	4	-1E+10	1	-1E+10	1	-1E+10	1	-1E+10	1	-1E+10	1	-1E+10	1
4902551	41	C	09/26/2021	21:08	-134.581	49.593	0	1935.20	0	1.9830	0	34.5760	0	27.644	0	1909.842	0	48.5	4	14.6	4	-1E+10	1	-1E+10	1	-1E+10	1	-1E+10	1	-1E+10	1	-1E+10	1
4902551	41	C	09/26/2021	21:08	-134.581	49.593	0	1945.10	0	1.9760	0	34.5770	0	27.645	0	1919.567	0	49.2	4	14.8	4	-1E+10	1	-1E+10	1	-1E+10	1	-1E+10	1	-1E+10	1	-1E+10	1
4902551	41	C	09/26/2021	21:08	-134.581	49.593	0	1955.30	0	1.9660	0	34.5800	0	27.648	0	1929.587	0	50.0	4	15.1	4	-1E+10	1	-1E+10	1	-1E+10	1	-1E+10	1	-1E+10	1	-1E+10	1
4902551	41	C	09/26/2021	21:08	-134.581	49.593	0	1965.80	0	1.9540	0	34.5820	0	27.651	0	1939.902	0	50.4	4	15.2	4	-1E+10	1	-1E+10	1	-1E+10	1	-1E+10	1	-1E+10	1	-1E+10	1
4902551	41	C	09/26/2021	21:08	-134.581	49.593	0	1972.80	0	1.9520	0	34.5830	0	27.652	0	1946.777	0	50.0	4	15.0	4	-1E+10	1	-1E+10	1	-1E+10	1	-1E+10	1	-1E+10	1	-1E+10	1
4902551	41	C	09/26/2021	21:08	-134.581	49.593	0																										
4902551	42	C	10/07/2021	01:51	-134.407	49.626	0	1.00	0	12.8520	0	32.2170	0	24.267	0	0.991	0	253.1	4	96.0	4	-1E+10	1	-1E+10	1	-1E+10	1	-1E+10	1	-1E+10	1	-1E+10	1
4902551	42	C	10/07/2021	01:51	-134.407	49.626	0	2.00	0	12.8520	0	32.2180	0	24.268	0	1.983	0	253.0	4	95.9	4	-1E+10	1	-1E+10	1	-1E+10	1	-1E+10	1	-1E+10	1	-1E+10	1
4902551	42	C	10/07/2021	01:51	-134.407	49.626	0	3.10	0	12.8540	0	32.2180	0	24.268	0	3.074	0	253.0	4	95.9	4	-1E+10	1	-1E+10	1	-1E+10	1	-1E+10	1	-1E+10	1	-1E+10	1
4902551	42	C	10/07/2021	01:51	-134.407	49.626	0	4.10	0	12.8550	0	32.2180	0	24.267	0	4.065	0	253.0	4	95.9	4	-1E+10	1	-1E+10	1	-1E+10	1	-1E+10	1	-1E+10	1	-1E+10	1
4902551	42	C	10/07/2021	01:51	-134.407	49.626	0	5.10	0	12.8550	0	32.2190	0	24.268	0	5.056	0	253.0	4	95.9	4	-1E+10	1	-1E+10	1	-1E+10	1	-1E+10	1	-1E+10	1	-1E+10	1
4902551	42	C	10/07/2021	01:51	-134.407	49.626	0	5.90	0	12.8560	0	32.2190	0	24.268	0	5.850	0	252.9	4	95.9	4	-1E+10	1	-1E+10	1	-1E+10	1	-1E+10	1	-1E+10	1	-1E+10	1
4902551	42	C	10/07/2021	01:51	-134.407	49.626	0	7.00	0	12.8560	0	32.2190	0	24.268	0	6.940	0	252.9	4	95.9	4	-1E+10	1	-1E+10	1	-1E+10	1	-1E+10	1	-1E+10	1	-1E+10	1
4902551	42	C	10/07/2021	01:51	-134.407	49.626	0	8.00	0	12.8560	0	32.2190	0	24.268	0	7.932	0	252.9	4	95.9	4	-1E+10	1	-1E+10	1	-1E+10	1	-1E+10	1	-1E+10	1	-1E+10	1
4902551	42	C	10/07/2021	01:51	-134.407	49.626	0	8.90	0	12.8540	0	32.2190	0	24.269	0	8.824	0	252.8	4	95.8	4	-1E+10	1	-1E+10	1	-1E+10	1	-1E+10	1	-1E+10	1	-1E+10	1
4902551	42	C	10/07/2021	01:51	-134.407	49.626	0	9.90	0	12.8490	0	32.2190	0	24.270	0	9.815	0	252.7	4	95.8	4	-1E+10	1	-1E+10	1	-1E+10	1	-1E+10	1	-1E+10	1	-1E+10	1
4902551	42	C	10/07/2021	01:51	-134.407	49.626	0	11.00	0	12.8560	0	32.2190	0	24.268	0	10.906	0	252.7	4	95.8	4	-1E+10	1	-1E+10	1	-1E+10	1	-1E+10	1	-1E+10	1	-1E+10	1
4902551	42	C	10/07/2021	01:51	-134.407	49.626	0	11.90	0	12.8530	0	32.2180	0	24.268	0	11.798	0	252.7	4	95.8	4	-1E+10	1	-1E+10	1	-1E+10	1	-1E+10	1	-1E+10	1	-1E+10	1
4902551	42	C	10/07/2021	01:51	-134.407	49.626	0	13.00	0	12.8130	0	32.2200	0	24.277	0	12.889	0	252.7	4	95.7	4	-1E+10	1	-1E+10	1	-1E+10	1	-1E+10	1	-1E+10	1	-1E+10	1
4902551	42	C	10/07/2021	01:51	-134.407	49.626	0	14.20	0	12.8030	0	32.2180	0	24.278	0	14.078	0	252.7	4	95.7	4	-1E+10	1	-1E+10	1	-1E+10	1	-1E+10	1	-1E+10	1	-1E+10	1
4902551	42	C	10/07/2021	01:51	-134.407	49.626	0	15.10	0	12.7960	0	32.2190	0	24.280	0	14.971	0	252.5	4	95.6	4	-1E+10	1	-1E+10	1	-1E+10	1	-1E+10	1	-1E+10	1	-1E+10	1
4902551	42	C	10/07/2021	01:51	-134.407	49.626	0	15.90	0	12.7940	0	32.2190	0	24.280	0	15.764	0	252.6	4	95.6	4	-1E+10	1	-1E+10	1	-1E+10	1	-1E+10	1	-1E+10	1	-1E+10	1
4902551	42	C	10/07/2021	01:51	-134.407	49.626	0	17.10	0	12.7910	0	32.2200	0	24.282	0	16.953	0	252.5	4	95.6	4	-1E+10	1	-1E+10	1	-1E+10	1	-1E+10	1	-1E+10	1	-1E+10	1
4902551	42	C	10/07/2021	01:51	-134.407	49.626	0	18.00	0	12.7910	0	32.2200	0	24.282	0	17.846	0	252.3	4	95.5	4	-1E+10	1	-1E+10	1	-1E+10	1	-1E+10	1	-1E+10	1	-1E+10	1
4902551	42	C	10/07/2021	01:51	-134.407	49.626	0	18.90	0	12.7900	0	32.2200	0	24.282	0	18.738	0	252.3	4	95.5	4	-1E+10	1	-1E+10	1	-1E+10	1	-1E+10	1	-1E+10	1	-1E+10	1
4902551	42	C	10/07/2021	01:51	-134.407	49.626	0	19.80	0	12.7880	0	32.2200	0	24.282	0	19.630	0	252.2	4	95.5	4	-1E+10	1	-1E+10	1	-1E+10	1	-1E+10	1	-1E+10	1	-1E+10	1
4902551	42	C	10/07/2021	01:51	-134.407	49.626	0	20.90	0	12.7860	0	32.2210	0	24.284	0	20.720	0	252.2	4	95.5	4	-1E+10	1	-1E+10	1	-1E+10	1	-1E+10	1	-1E+10	1	-1E+10	1
4902551	42	C	10/07/2021	01:51	-134.407	49.626	0	22.30	0	12.7840	0	32.2200	0	24.283	0	22.108	0	252.1	4	95.5	4	-1E+10	1	-1E+10	1	-1E+10	1	-1E+10	1	-1E+10	1	-1E+10	1
4902551	42	C	10/07/2021	01:51	-134.407	49.626	0	23.00	0	12.7840	0	32.2210	0	24.284	0	22.802	0	252.1	4	95.4	4	-1E+10	1	-1E+10	1	-1E+10	1	-1E+10	1	-1E+10	1	-1E+10	1
4902551	42	C	10/07/2021	01:51	-134.407	49.626	0	24.10	0	12.7830	0	32.2200	0	24.283	0	23.893	0	252.0	4	95.4	4	-1E+10	1	-1E+10	1	-1E+10	1	-1E+10	1	-1E+10	1	-1E+10	1
4902551	42	C	10/07/2021	01:51	-134.407	49.626	0	25.00	0	12.7830	0	32.2200	0	24.284	0	24.785	0	252.0	4	95.4	4	-1E+10	1	-1E+10	1	-1E+10	1	-1E+10	1	-1E+10	1	-1E+10	1
4902551	42	C	10/07/2021	01:51	-134.407	49.626	0	25.90	0	12.7820	0	32.2200	0	24.284	0	25.677	0	252.0	4	95.4	4	-1E+10	1	-1E+10	1	-1E+10	1	-1E+10	1	-1E+10	1	-1E+10	1
4902551	42	C	10/07/2021	01:51	-134.407	49.626	0	27.20	0	12.7820	0	32.2210	0	24.285	0	26.966	0	251.9	4	95.4	4	-1E+10	1	-1E+10	1	-1E+10	1	-1E+10	1	-1E+10	1	-1E+10	1
4902551	42	C	10/07/2021	01:51	-134.407	49.626	0	28.00	0	12.7820	0	32.2210	0	24.285	0	27.759	0	251.8	4	95.3	4	-1E+10	1	-1E+10	1	-1E+10	1	-1E+10	1	-1E+10	1	-1E+10	1
4902551	42	C	10/07/2021	01:51	-134.407	49.626	0	29.20	0	12.7810	0	32.2210	0	24.285	0	28.949	0	251.8	4	95.3	4	-1E+10	1	-1E+10	1	-1E+10	1	-1E+10	1	-1E+10	1	-1E+10	1
4902551	42	C	10/07/2021	01:51	-134.407	49.626	0	29.80	0	12.7800	0	32.2210	0	24.285	0	29.543	0	251.9	4	95.3	4	-1E+10	1	-1E+10	1	-1E+10	1	-1E+10	1	-1E+10	1	-1E+10	1
4902551	42	C	10/07/2021	01:51	-134.407	49.626	0	30.80	0	12.7790	0	32.2210	0	24.285	0	30.535	0	251.8	4	95.3	4	-1E+10	1	-1E+10	1	-1E+10	1	-1E+10	1	-1E+10	1	-1E+10	1
4902551	42	C	10/07/2021	01:51	-134.407	49.626	0	32.00	0	12.7790	0	32.2220	0	24.286	0	31.724	0	251.8	4	95.3	4	-1E+10	1	-1E+10	1	-1E+10	1	-1E+10	1	-1E+10	1	-1E+10	1
4902551	42	C	10/07/2021	01:51	-134.407	49.626	0	33.00	0	12.7790	0	32.2220	0	24.286	0	32.716	0	251.8	4	95.3	4	-1E+10	1	-1E+10	1	-1E+10	1	-1E+10	1	-1E+10	1	-1E+10	1
4902551	42	C	10/07/2021	01:51	-134.407	49.626	0	34.10	0	12.7780	0	32.2220	0	24.286	0	33.806	0	251.8	4	95.3	4	-1E+10	1	-1E+10	1	-1E+10	1	-1E+10	1	-1E+10	1	-1E+10	1
4902551	42	C	10/07/2021	01:51	-134.407	49.626	0	34.90	0	12.7790	0	32.2210	0	24.285	0	34.599	0	251.8	4	95.3	4	-1E+10	1	-1E+10	1	-1E+10	1	-1E+10	1	-1E+10	1	-1E+10	1
4902551	42	C	10/07/2021	01:51	-134.407	49.626	0	36.10	0	12.7780	0	32.2200	0	24.285	0	35.789	0	251.9	4	95.3	4	-1E+10	1	-1E+10	1	-1E+10	1	-1E+10	1	-1E+10	1	-1E+10	1
4902551	42	C	10/07/2021	01:51	-134.407	49.626	0	36.90	0	12.7780	0	32.2220	0	24.286	0	36.582	0	251.9	4	95.3	4	-1E+10	1	-1E+10	1	-1E+10	1	-1E+10	1	-1E+10	1	-1E+10	1
4902551	42	C	10/07/2021	01:51	-134.407	49.626	0	37.90	0	12.7770	0	32.2210	0	24.286	0	37.573	0	251.9	4	95.3	4	-1E+10	1	-1E+10	1	-1E+10	1	-1E+10	1	-1E+10	1	-1E+10	1
4902551	42	C	10/07/2021	01:51	-134.407	49.626	0	39.00	0	12.7760	0	32.2220	0	24.287	0	38.663	0	252.0	4	95.4	4	-1E+10	1	-1E+10	1	-1E+10	1	-1E+10	1	-1E+10	1	-1E+10	1
4902551	42	C	10/07/2021	01:51	-134.407	49.626	0	40.30	0	12.7750	0	32.2230	0	24.288	0	39.952	0	252.2	4	95.4	4	-1E+10	1	-1E+10	1	-1E+10	1	-1E+10	1	-1E+10	1	-1E+10	1
4902551	42	C	10/07/2021	01:51	-134.407	49.626	0	41.10	0	12.7750	0	32.2230	0	24.288	0	40.745	0	252.3	4	95.5	4	-1E+10	1	-1E+10	1	-1E+10	1	-1E+10	1	-1E+10	1	-1E+10	1
4902551	42	C	10/07/2021	01:51	-134.407	49.626	0	41.80	0	12.7730	0	32.2230	0	24.288	0	41.439	0	252.5	4	95.6	4	-1E+10	1	-1E+10	1	-1E+10	1	-1E+10	1	-1E+10	1	-1E+10	1
4902551	42	C	10/07/2021	01:51	-134.407	49.626	0	42.90	0	12.7720	0	32.2220	0	24.288	0	42.529	0	252.9	4	95.7	4	-1E+10	1	-1E+10	1	-1E+10	1	-1E+10	1	-1E+10	1	-1E+10	1
4902551	42	C	10/07/2021	01:51	-134.407	49.626	0	43.80	0	12.7710	0	32.2230	0	24.289	0	43.421	0	253.4	4	95.9	4	-1E+10	1	-1E+10	1	-1E+10	1	-1E+10	1	-1E+10	1	-1E+10	1
4902551	42	C	10/07/2021	01:51	-134.407	49.626	0	45.10	0	12.7660	0	32.2220	0	24.289	0	44.710	0	254.3	4	96.2	4	-1E+10	1	-1E+10	1	-1E+10	1	-1E+10	1	-1E+10	1	-1E+10	1
4902551	42	C	10/07/2021	01:51	-134.407	49.626	0	46.00	0	12.7560	0	32.2190	0	24.288	0	45.602	0	255.3	4	96.6	4	-1E+10	1	-1E+10	1	-1E+10	1	-1E+10	1	-1E+10	1	-1E+10	1
4902551	42	C	10/07/2021	01:51	-134.407	49.626	0	46.90	0	12.6800	0	32.2150	0	24.300	0	46.494	0	256.4	4	96.9	4	-1E+10	1	-1E+10	1	-1E+10	1	-1E+10	1	-1E+10	1	-1E+10	1
4902551	42	C	10/07/2021	01:51	-134.407	49.626	0	48.10	0	12.0420	0	32.2320	0	24.434	0	47.684	0	259.0	4	96.6	4	-1E+10	1	-1E+10	1	-1E+10	1	-1E+10	1	-1E+10	1	-1E+10	1
4902551	42	C	10/07/2021	01:51	-134.407	49.626	0	49.20	0	11.5110	0	32.2750	0	24.565	0	48.774	0	261.2	4	96.3	4	-1E+10	1	-1E+10	1	-1E+10	1	-1E+10	1	-1E+10	1	-1E+10	1
4902551	42	C	10/07/2021	01:51	-134.407	49.626	0	49.80	0	11.2470	0	32.2730	0	24.610	0	49.369	0	262.5	4	96.3	4	-1E+10	1	-1E+10	1	-1E+10	1	-1E+10	1	-1E+10	1	-1E+10	1
4902551	42	C	10/07/2021	01:51	-134.407	49.626	0	51.10	0	11.0730	0	32.2930	0	24.657	0	50.657	0	263.5	4	96.3	4	-1E+10	1	-1E+10	1	-1E+10	1	-1E+10	1	-1E+10	1	-1E+10	1
4902551	42	C	10/07/2021	01:51	-134.407	49.626	0	52.10	0	10.7930	0	32.2840	0	24.699	0	51.649	0	264.9	4	96.2	4	-1E+10	1	-1E+10	1	-1E+10	1	-1E+10	1	-1E+10	1	-1E+10	1
4902551	42	C	10/07/2021	01:51	-134.407	49.626	0	53.00	0	10.7300	0	32.3000	0	24.722	0	52.541	0	266.2	4	96.6	4	-1E+10	1	-1E+10	1	-1E+10	1	-1E+10	1	-1E+10	1	-1E+10	1
4902551	42	C	10/07/2021	01:51	-134.407	49.626	0	54.00	0	10.2610	0	32.3110	0	24.811	0	53.532	0	268.6	4	96.5	4	-1E+10	1	-1E+10	1	-1E+10	1	-1E+10	1	-1E+10	1	-1E+10	1
4902551	42	C	10/07/2021	01:51	-134.407	49.626	0	54.90	0	9.5200	0	32.3530	0	24.965	0	54.424	0	272.6	4	96.4	4	-1E+10	1	-1E+10	1	-1E+10	1	-1E+10	1	-1E+10	1	-1E+10	1
4902551	42	C	10/07/2021	01:51	-134.407	49.626	0	55.90	0	8.9280	0	32.4010	0	25.096	0	55.415	0	275.1	4	96.1	4	-1E+10	1	-1E+10	1	-1E+10	1	-1E+10	1	-1E+10	1	-1E+10	1
4902551	42	C	10/07/2021	01:51	-134.407	49.626	0	56.90	0	8.5310	0	32.3820	0	25.141	0	56.406	0	275.6	4	95.4	4	-1E+10	1	-1E+10	1	-1E+10	1	-1E+10	1	-1E+10	1	-1E+10	1
4902551	42	C	10/07/2021	01:51	-134.407	49.626	0	57.90	0	8.2890	0	32.3860	0	25.180	0	57.398	0	275.9	4	95.0	4	-1E+10	1	-1E+10	1	-1E+10	1	-1E+10	1	-1E+10	1	-1E+10	1
4902551	42	C	10/07/2021	01:51	-134.407	49.626	0	59.10	0	8.1040	0	32.3930	0	25.213	0	58.587	0	275.9	4	94.6	4	-1E+10	1	-1E+10	1	-1E+10	1	-1E+10	1	-1E+10	1	-1E+10	1
4902551	42	C	10/07/2021	01:51	-134.407	49.626	0	60.10	0	7.8210	0	32.3970	0	25.257	0	59.578	0	276.4	4	94.2	4	-1E+10	1	-1E+10	1	-1E+10	1	-1E+10	1	-1E+10	1	-1E+10	1
4902551	42	C	10/07/2021	01:51	-134.407	49.626	0	61.10	0	7.7150	0	32.3970	0	25.272	0	60.569	0	275.8	4	93.7	4	-1E+10	1	-1E+10	1	-1E+10	1	-1E+10	1	-1E+10	1	-1E+10	1
4902551	42	C	10/07/2021	01:51	-134.407	49.626	0	62.10	0	7.6740	0	32.3980	0	25.278	0	61.560	0	275.1	4	93.4	4	-1E+10	1	-1E+10	1	-1E+10	1	-1E+10	1	-1E+10	1	-1E+10	1
4902551	42	C	10/07/2021	01:51	-134.407	49.626	0	63.00	0	7.6270	0	32.3990	0	25.286	0	62.453	0	274.6	4	93.1	4	-1E+10	1	-1E+10	1	-1E+10	1	-1E+10	1	-1E+10	1	-1E+10	1
4902551	42	C	10/07/2021	01:51	-134.407	49.626	0	64.20	0	7.5540	0	32.4010	0	25.298	0	63.642	0	274.1	4	92.8	4	-1E+10	1	-1E+10	1	-1E+10	1	-1E+10	1	-1E+10	1	-1E+10	1
4902551	42	C	10/07/2021	01:51	-134.407	49.626	0	65.10	0	7.5030	0	32.4020	0	25.305	0	64.534	0	273.9	4	92.6	4	-1E+10	1	-1E+10	1	-1E+10	1	-1E+10	1	-1E+10	1	-1E+10	1
4902551	42	C	10/07/2021	01:51	-134.407	49.626	0	65.70	0	7.4340	0	32.4050	0	25.317	0	65.129	0	273.8	4	92.5	4	-1E+10	1	-1E+10	1	-1E+10	1	-1E+10	1	-1E+10	1	-1E+10	1
4902551	42	C	10/07/2021	01:51	-134.407	49.626	0	67.10	0	7.3410	0	32.4210	0	25.343	0	66.516	0	273.2	4	92.1	4	-1E+10	1	-1E+10	1	-1E+10	1	-1E+10	1	-1E+10	1	-1E+10	1
4902551	42	C	10/07/2021	01:51	-134.407	49.626	0	68.30	0	7.3310	0	32.4110	0	25.336	0	67.706	0	272.5	4	91.8	4	-1E+10	1	-1E+10	1	-1E+10	1	-1E+10	1	-1E+10	1	-1E+10	1
4902551	42	C	10/07/2021	01:51	-134.407	49.626	0	68.90	0	7.3260	0	32.4090	0	25.335	0	68.300	0	271.9	4	91.6	4	-1E+10	1	-1E+10	1	-1E+10	1	-1E+10	1	-1E+10	1	-1E+10	1
4902551	42	C	10/07/2021	01:51	-134.407	49.626	0	69.80	0	7.2480	0	32.4130	0	25.349	0	69.192	0	271.4	4	91.3	4	-1E+10	1	-1E+10	1	-1E+10	1	-1E+10	1	-1E+10	1	-1E+10	1
4902551	42	C	10/07/2021	01:51	-134.407	49.626	0	70.90	0	7.1220	0	32.4210	0	25.372	0	70.283	0	271.1	4	90.9	4	-1E+10	1	-1E+10	1	-1E+10	1	-1E+10	1	-1E+10	1	-1E+10	1
4902551	42	C	10/07/2021	01:51	-134.407	49.626	0	72.30	0	7.0070	0	32.4200	0	25.387	0	71.670	0	270.7	4	90.5	4	-1E+10	1	-1E+10	1	-1E+10	1	-1E+10	1	-1E+10	1	-1E+10	1
4902551	42	C	10/07/2021	01:51	-134.407	49.626	0	73.20	0	6.9250	0	32.4250	0	25.402	0	72.562	0	270.7	4	90.4	4	-1E+10	1	-1E+10	1	-1E+10	1	-1E+10	1	-1E+10	1	-1E+10	1
4902551	42	C	10/07/2021	01:51	-134.407	49.626	0	73.90	0	6.8800	0	32.4280	0	25.410	0	73.256	0	270.5	4	90.2	4	-1E+10	1	-1E+10	1	-1E+10	1	-1E+10	1	-1E+10	1	-1E+10	1
4902551	42	C	10/07/2021	01:51	-134.407	49.626	0	74.80	0	6.8260	0	32.4320	0	25.420	0	74.148	0	270.5	4	90.1	4	-1E+10	1	-1E+10	1	-1E+10	1	-1E+10	1	-1E+10	1	-1E+10	1
4902551	42	C	10/07/2021	01:51	-134.407	49.626	0	75.80	0	6.8090	0	32.4320	0	25.423	0	75.139	0	270.3	4	90.0	4	-1E+10	1	-1E+10	1	-1E+10	1	-1E+10	1	-1E+10	1	-1E+10	1
4902551	42	C	10/07/2021	01:51	-134.407	49.626	0	76.70	0	6.7660	0	32.4370	0	25.432	0	76.031	0	270.2	4	89.9	4	-1E+10	1	-1E+10	1	-1E+10	1	-1E+10	1	-1E+10	1	-1E+10	1
4902551	42	C	10/07/2021	01:51	-134.407	49.626	0	77.90	0	6.7510	0	32.4360	0	25.433	0	77.220	0	269.9	4	89.7	4	-1E+10	1	-1E+10	1	-1E+10	1	-1E+10	1	-1E+10	1	-1E+10	1
4902551	42	C	10/07/2021	01:51	-134.407	49.626	0	79.10	0	6.7290	0	32.4380	0	25.438	0	78.410	0	269.6	4	89.6	4	-1E+10	1	-1E+10	1	-1E+10	1	-1E+10	1	-1E+10	1	-1E+10	1
4902551	42	C	10/07/2021	01:51	-134.407	49.626	0	80.20	0	6.7110	0	32.4390	0	25.441	0	79.500	0	269.2	4	89.4	4	-1E+10	1	-1E+10	1	-1E+10	1	-1E+10	1	-1E+10	1	-1E+10	1
4902551	42	C	10/07/2021	01:51	-134.407	49.626	0	81.00	0	6.6900	0	32.4400	0	25.444	0	80.293	0	268.8	4	89.3	4	-1E+10	1	-1E+10	1	-1E+10	1	-1E+10	1	-1E+10	1	-1E+10	1
4902551	42	C	10/07/2021	01:51	-134.407	49.626	0	81.90	0	6.6780	0	32.4400	0	25.446	0	81.185	0	268.3	4	89.1	4	-1E+10	1	-1E+10	1	-1E+10	1	-1E+10	1	-1E+10	1	-1E+10	1
4902551	42	C	10/07/2021	01:51	-134.407	49.626	0	83.10	0	6.6430	0	32.4430	0	25.453	0	82.374	0	267.3	4	88.7	4	-1E+10	1	-1E+10	1	-1E+10	1	-1E+10	1	-1E+10	1	-1E+10	1
4902551	42	C	10/07/2021	01:51	-134.407	49.626	0	84.00	0	6.6200	0	32.4450	0	25.458	0	83.266	0	266.6	4	88.4	4	-1E+10	1	-1E+10	1	-1E+10	1	-1E+10	1	-1E+10	1	-1E+10	1
4902551	42	C	10/07/2021	01:51	-134.407	49.626	0	84.70	0	6.5970	0	32.4470	0	25.462	0	83.960	0	266.0	4	88.1	4	-1E+10	1	-1E+10	1	-1E+10	1	-1E+10	1	-1E+10	1	-1E+10	1
4902551	42	C	10/07/2021	01:51	-134.407	49.626	0	85.70	0	6.5300	0	32.4540	0	25.476	0	84.951	0	265.3	4	87.8	4	-1E+10	1	-1E+10	1	-1E+10	1	-1E+10	1	-1E+10	1	-1E+10	1
4902551	42	C	10/07/2021	01:51	-134.407	49.626	0	86.70	0	6.4840	0	32.4600	0	25.487	0	85.942	0	264.5	4	87.4	4	-1E+10	1	-1E+10	1	-1E+10	1	-1E+10	1	-1E+10	1	-1E+10	1
4902551	42	C	10/07/2021	01:51	-134.407	49.626	0	87.70	0	6.4680	0	32.4620	0	25.490	0	86.933	0	263.4	4	87.0	4	-1E+10	1	-1E+10	1	-1E+10	1	-1E+10	1	-1E+10	1	-1E+10	1
4902551	42	C	10/07/2021	01:51	-134.407	49.626	0	88.80	0	6.4390	0	32.4690	0	25.500	0	88.023	0	262.5	4	86.7	4	-1E+10	1	-1E+10	1	-1E+10	1	-1E+10	1	-1E+10	1	-1E+10	1
4902551	42	C	10/07/2021	01:51	-134.407	49.626	0	89.80	0	6.4020	0	32.4810	0	25.514	0	89.014	0	261.6	4	86.3	4	-1E+10	1	-1E+10	1	-1E+10	1	-1E+10	1	-1E+10	1	-1E+10	1
4902551	42	C	10/07/2021	01:51	-134.407	49.626	0	90.90	0	6.3850	0	32.4870	0	25.521	0	90.104	0	260.3	4	85.9	4	-1E+10	1	-1E+10	1	-1E+10	1	-1E+10	1	-1E+10	1	-1E+10	1
4902551	42	C	10/07/2021	01:51	-134.407	49.626	0	92.00	0	6.3760	0	32.4900	0	25.524	0	91.194	0	258.7	4	85.3	4	-1E+10	1	-1E+10	1	-1E+10	1	-1E+10	1	-1E+10	1	-1E+10	1
4902551	42	C	10/07/2021	01:51	-134.407	49.626	0	93.00	0	6.3510	0	32.5010	0	25.536	0	92.185	0	256.8	4	84.6	4	-1E+10	1	-1E+10	1	-1E+10	1	-1E+10	1	-1E+10	1	-1E+10	1
4902551	42	C	10/07/2021	01:51	-134.407	49.626	0	94.00	0	6.3400	0	32.5040	0	25.540	0	93.176	0	254.9	4	84.0	4	-1E+10	1	-1E+10	1	-1E+10	1	-1E+10	1	-1E+10	1	-1E+10	1
4902551	42	C	10/07/2021	01:51	-134.407	49.626	0	95.20	0	6.3160	0	32.5120	0	25.549	0	94.365	0	252.5	4	83.2	4	-1E+10	1	-1E+10	1	-1E+10	1	-1E+10	1	-1E+10	1	-1E+10	1
4902551	42	C	10/07/2021	01:51	-134.407	49.626	0	96.00	0	6.3170	0	32.5270	0	25.561	0	95.158	0	250.8	4	82.6	4	-1E+10	1	-1E+10	1	-1E+10	1	-1E+10	1	-1E+10	1	-1E+10	1
4902551	42	C	10/07/2021	01:51	-134.407	49.626	0	97.10	0	6.2880	0	32.5580	0	25.589	0	96.248	0	246.9	4	81.3	4	-1E+10	1	-1E+10	1	-1E+10	1	-1E+10	1	-1E+10	1	-1E+10	1
4902551	42	C	10/07/2021	01:51	-134.407	49.626	0	97.90	0	6.2680	0	32.5880	0	25.615	0	97.041	0	244.1	4	80.4	4	-1E+10	1	-1E+10	1	-1E+10	1	-1E+10	1	-1E+10	1	-1E+10	1
4902551	42	C	10/07/2021	01:51	-134.407	49.626	0	99.00	0	6.2560	0	32.6130	0	25.636	0	98.131	0	240.9	4	79.3	4	-1E+10	1	-1E+10	1	-1E+10	1	-1E+10	1	-1E+10	1	-1E+10	1
4902551	42	C	10/07/2021	01:51	-134.407	49.626	0	99.90	0	6.2490	0	32.6400	0	25.659	0	99.023	0	239.1	4	78.7	4	-1E+10	1	-1E+10	1	-1E+10	1	-1E+10	1	-1E+10	1	-1E+10	1
4902551	42	C	10/07/2021	01:51	-134.407	49.626	0	100.90	0	6.2410	0	32.6580	0	25.674	0	100.014	0	237.1	4	78.0	4	-1E+10	1	-1E+10	1	-1E+10	1	-1E+10	1	-1E+10	1	-1E+10	1
4902551	42	C	10/07/2021	01:51	-134.407	49.626	0	101.90	0	6.2360	0	32.6710	0	25.685	0	101.005	0	234.7	4	77.3	4	-1E+10	1	-1E+10	1	-1E+10	1	-1E+10	1	-1E+10	1	-1E+10	1
4902551	42	C	10/07/2021	01:51	-134.407	49.626	0	103.10	0	6.2350	0	32.6760	0	25.689	0	102.194	0	231.9	4	76.3	4	-1E+10	1	-1E+10	1	-1E+10	1	-1E+10	1	-1E+10	1	-1E+10	1
4902551	42	C	10/07/2021	01:51	-134.407	49.626	0	103.90	0	6.2320	0	32.6870	0	25.698	0	102.987	0	230.0	4	75.7	4	-1E+10	1	-1E+10	1	-1E+10	1	-1E+10	1	-1E+10	1	-1E+10	1
4902551	42	C	10/07/2021	01:51	-134.407	49.626	0	105.20	0	6.2190	0	32.7130	0	25.720	0	104.275	0	226.1	4	74.4	4	-1E+10	1	-1E+10	1	-1E+10	1	-1E+10	1	-1E+10	1	-1E+10	1
4902551	42	C	10/07/2021	01:51	-134.407	49.626	0	105.80	0	6.2090	0	32.7290	0	25.734	0	104.870	0	223.5	4	73.5	4	-1E+10	1	-1E+10	1	-1E+10	1	-1E+10	1	-1E+10	1	-1E+10	1
4902551	42	C	10/07/2021	01:51	-134.407	49.626	0	106.80	0	6.2150	0	32.7530	0	25.752	0	105.861	0	219.8	4	72.4	4	-1E+10	1	-1E+10	1	-1E+10	1	-1E+10	1	-1E+10	1	-1E+10	1
4902551	42	C	10/07/2021	01:51	-134.407	49.626	0	107.90	0	6.2280	0	32.7840	0	25.775	0	106.951	0	216.5	4	71.3	4	-1E+10	1	-1E+10	1	-1E+10	1	-1E+10	1	-1E+10	1	-1E+10	1
4902551	42	C	10/07/2021	01:51	-134.407	49.626	0	108.90	0	6.2270	0	32.8050	0	25.792	0	107.942	0	213.4	4	70.3	4	-1E+10	1	-1E+10	1	-1E+10	1	-1E+10	1	-1E+10	1	-1E+10	1
4902551	42	C	10/07/2021	01:51	-134.407	49.626	0	109.90	0	6.2320	0	32.8180	0	25.801	0	108.933	0	210.2	4	69.3	4	-1E+10	1	-1E+10	1	-1E+10	1	-1E+10	1	-1E+10	1	-1E+10	1
4902551	42	C	10/07/2021	01:51	-134.407	49.626	0	111.00	0	6.2410	0	32.8500	0	25.825	0	110.023	0	206.7	4	68.1	4	-1E+10	1	-1E+10	1	-1E+10	1	-1E+10	1	-1E+10	1	-1E+10	1
4902551	42	C	10/07/2021	01:51	-134.407	49.626	0	112.10	0	6.2430	0	32.8710	0	25.842	0	111.113	0	203.0	4	66.9	4	-1E+10	1	-1E+10	1	-1E+10	1	-1E+10	1	-1E+10	1	-1E+10	1
4902551	42	C	10/07/2021	01:51	-134.407	49.626	0	113.10	0	6.2350	0	32.8980	0	25.864	0	112.104	0	198.2	4	65.3	4	-1E+10	1	-1E+10	1	-1E+10	1	-1E+10	1	-1E+10	1	-1E+10	1
4902551	42	C	10/07/2021	01:51	-134.407	49.626	0	114.10	0	6.2310	0	32.9160	0	25.879	0	113.094	0	192.9	4	63.6	4	-1E+10	1	-1E+10	1	-1E+10	1	-1E+10	1	-1E+10	1	-1E+10	1
4902551	42	C	10/07/2021	01:51	-134.407	49.626	0	115.00	0	6.2320	0	32.9430	0	25.900	0	113.986	0	188.6	4	62.2	4	-1E+10	1	-1E+10	1	-1E+10	1	-1E+10	1	-1E+10	1	-1E+10	1
4902551	42	C	10/07/2021	01:51	-134.407	49.626	0	115.80	0	6.2390	0	32.9810	0	25.929	0	114.779	0	184.0	4	60.7	4	-1E+10	1	-1E+10	1	-1E+10	1	-1E+10	1	-1E+10	1	-1E+10	1
4902551	42	C	10/07/2021	01:51	-134.407	49.626	0	117.10	0	6.2460	0	33.0230	0	25.961	0	116.067	0	179.0	4	59.1	4	-1E+10	1	-1E+10	1	-1E+10	1	-1E+10	1	-1E+10	1	-1E+10	1
4902551	42	C	10/07/2021	01:51	-134.407	49.626	0	118.00	0	6.2490	0	33.0960	0	26.019	0	116.959	0	175.6	4	58.0	4	-1E+10	1	-1E+10	1	-1E+10	1	-1E+10	1	-1E+10	1	-1E+10	1
4902551	42	C	10/07/2021	01:51	-134.407	49.626	0	119.00	0	6.2470	0	33.1250	0	26.042	0	117.950	0	172.2	4	56.9	4	-1E+10	1	-1E+10	1	-1E+10	1	-1E+10	1	-1E+10	1	-1E+10	1
4902551	42	C	10/07/2021	01:51	-134.407	49.626	0	120.10	0	6.2470	0	33.1690	0	26.077	0	119.040	0	168.5	4	55.7	4	-1E+10	1	-1E+10	1	-1E+10	1	-1E+10	1	-1E+10	1	-1E+10	1
4902551	42	C	10/07/2021	01:51	-134.407	49.626	0	120.90	0	6.2420	0	33.2030	0	26.104	0	119.833	0	165.9	4	54.8	4	-1E+10	1	-1E+10	1	-1E+10	1	-1E+10	1	-1E+10	1	-1E+10	1
4902551	42	C	10/07/2021	01:51	-134.407	49.626	0	122.00	0	6.2400	0	33.2600	0	26.149	0	120.922	0	162.7	4	53.8	4	-1E+10	1	-1E+10	1	-1E+10	1	-1E+10	1	-1E+10	1	-1E+10	1
4902551	42	C	10/07/2021	01:51	-134.407	49.626	0	123.20	0	6.2340	0	33.2980	0	26.180	0	122.112	0	159.2	4	52.6	4	-1E+10	1	-1E+10	1	-1E+10	1	-1E+10	1	-1E+10	1	-1E+10	1
4902551	42	C	10/07/2021	01:51	-134.407	49.626	0	124.00	0	6.2270	0	33.3430	0	26.216	0	122.904	0	157.3	4	52.0	4	-1E+10	1	-1E+10	1	-1E+10	1	-1E+10	1	-1E+10	1	-1E+10	1
4902551	42	C	10/07/2021	01:51	-134.407	49.626	0	124.80	0	6.2250	0	33.3590	0	26.229	0	123.697	0	155.9	4	51.6	4	-1E+10	1	-1E+10	1	-1E+10	1	-1E+10	1	-1E+10	1	-1E+10	1
4902551	42	C	10/07/2021	01:51	-134.407	49.626	0	125.60	0	6.2180	0	33.3880	0	26.253	0	124.490	0	154.6	4	51.1	4	-1E+10	1	-1E+10	1	-1E+10	1	-1E+10	1	-1E+10	1	-1E+10	1
4902551	42	C	10/07/2021	01:51	-134.407	49.626	0	126.90	0	6.2130	0	33.4090	0	26.270	0	125.778	0	152.7	4	50.5	4	-1E+10	1	-1E+10	1	-1E+10	1	-1E+10	1	-1E+10	1	-1E+10	1
4902551	42	C	10/07/2021	01:51	-134.407	49.626	0	128.20	0	6.2050	0	33.4510	0	26.305	0	127.066	0	151.0	4	50.0	4	-1E+10	1	-1E+10	1	-1E+10	1	-1E+10	1	-1E+10	1	-1E+10	1
4902551	42	C	10/07/2021	01:51	-134.407	49.626	0	129.10	0	6.2010	0	33.4590	0	26.311	0	127.958	0	149.9	4	49.6	4	-1E+10	1	-1E+10	1	-1E+10	1	-1E+10	1	-1E+10	1	-1E+10	1
4902551	42	C	10/07/2021	01:51	-134.407	49.626	0	130.00	0	6.1900	0	33.4880	0	26.336	0	128.849	0	149.0	4	49.3	4	-1E+10	1	-1E+10	1	-1E+10	1	-1E+10	1	-1E+10	1	-1E+10	1
4902551	42	C	10/07/2021	01:51	-134.407	49.626	0	130.80	0	6.1870	0	33.4940	0	26.341	0	129.642	0	148.1	4	49.0	4	-1E+10	1	-1E+10	1	-1E+10	1	-1E+10	1	-1E+10	1	-1E+10	1
4902551	42	C	10/07/2021	01:51	-134.407	49.626	0	131.70	0	6.1800	0	33.5090	0	26.354	0	130.534	0	147.1	4	48.7	4	-1E+10	1	-1E+10	1	-1E+10	1	-1E+10	1	-1E+10	1	-1E+10	1
4902551	42	C	10/07/2021	01:51	-134.407	49.626	0	132.60	0	6.1750	0	33.5230	0	26.365	0	131.426	0	146.4	4	48.4	4	-1E+10	1	-1E+10	1	-1E+10	1	-1E+10	1	-1E+10	1	-1E+10	1
4902551	42	C	10/07/2021	01:51	-134.407	49.626	0	133.90	0	6.1660	0	33.5390	0	26.379	0	132.714	0	145.1	4	48.0	4	-1E+10	1	-1E+10	1	-1E+10	1	-1E+10	1	-1E+10	1	-1E+10	1
4902551	42	C	10/07/2021	01:51	-134.407	49.626	0	135.30	0	6.1590	0	33.5500	0	26.389	0	134.101	0	144.0	4	47.6	4	-1E+10	1	-1E+10	1	-1E+10	1	-1E+10	1	-1E+10	1	-1E+10	1
4902551	42	C	10/07/2021	01:51	-134.407	49.626	0	136.20	0	6.1550	0	33.5560	0	26.394	0	134.992	0	143.3	4	47.4	4	-1E+10	1	-1E+10	1	-1E+10	1	-1E+10	1	-1E+10	1	-1E+10	1
4902551	42	C	10/07/2021	01:51	-134.407	49.626	0	137.10	0	6.1520	0	33.5590	0	26.397	0	135.884	0	142.5	4	47.1	4	-1E+10	1	-1E+10	1	-1E+10	1	-1E+10	1	-1E+10	1	-1E+10	1
4902551	42	C	10/07/2021	01:51	-134.407	49.626	0	138.00	0	6.1490	0	33.5650	0	26.402	0	136.776	0	141.7	4	46.9	4	-1E+10	1	-1E+10	1	-1E+10	1	-1E+10	1	-1E+10	1	-1E+10	1
4902551	42	C	10/07/2021	01:51	-134.407	49.626	0	138.90	0	6.1450	0	33.5700	0	26.406	0	137.668	0	140.9	4	46.6	4	-1E+10	1	-1E+10	1	-1E+10	1	-1E+10	1	-1E+10	1	-1E+10	1
4902551	42	C	10/07/2021	01:51	-134.407	49.626	0	139.80	0	6.1420	0	33.5750	0	26.411	0	138.559	0	140.1	4	46.3	4	-1E+10	1	-1E+10	1	-1E+10	1	-1E+10	1	-1E+10	1	-1E+10	1
4902551	42	C	10/07/2021	01:51	-134.407	49.626	0	140.70	0	6.1380	0	33.5800	0	26.415	0	139.451	0	139.2	4	46.0	4	-1E+10	1	-1E+10	1	-1E+10	1	-1E+10	1	-1E+10	1	-1E+10	1
4902551	42	C	10/07/2021	01:51	-134.407	49.626	0	142.00	0	6.1310	0	33.5900	0	26.424	0	140.739	0	137.9	4	45.6	4	-1E+10	1	-1E+10	1	-1E+10	1	-1E+10	1	-1E+10	1	-1E+10	1
4902551	42	C	10/07/2021	01:51	-134.407	49.626	0	143.30	0	6.1180	0	33.6080	0	26.440	0	142.027	0	136.7	4	45.2	4	-1E+10	1	-1E+10	1	-1E+10	1	-1E+10	1	-1E+10	1	-1E+10	1
4902551	42	C	10/07/2021	01:51	-134.407	49.626	0	144.20	0	6.1120	0	33.6160	0	26.447	0	142.919	0	135.9	4	44.9	4	-1E+10	1	-1E+10	1	-1E+10	1	-1E+10	1	-1E+10	1	-1E+10	1
4902551	42	C	10/07/2021	01:51	-134.407	49.626	0	145.20	0	6.0900	0	33.6370	0	26.466	0	143.910	0	135.3	4	44.7	4	-1E+10	1	-1E+10	1	-1E+10	1	-1E+10	1	-1E+10	1	-1E+10	1
4902551	42	C	10/07/2021	01:51	-134.407	49.626	0	146.10	0	6.0750	0	33.6510	0	26.479	0	144.801	0	134.7	4	44.5	4	-1E+10	1	-1E+10	1	-1E+10	1	-1E+10	1	-1E+10	1	-1E+10	1
4902551	42	C	10/07/2021	01:51	-134.407	49.626	0	147.10	0	6.0530	0	33.6670	0	26.494	0	145.792	0	134.4	4	44.4	4	-1E+10	1	-1E+10	1	-1E+10	1	-1E+10	1	-1E+10	1	-1E+10	1
4902551	42	C	10/07/2021	01:51	-134.407	49.626	0	148.00	0	6.0410	0	33.6750	0	26.502	0	146.684	0	134.2	4	44.3	4	-1E+10	1	-1E+10	1	-1E+10	1	-1E+10	1	-1E+10	1	-1E+10	1
4902551	42	C	10/07/2021	01:51	-134.407	49.626	0	149.00	0	6.0370	0	33.6780	0	26.505	0	147.674	0	134.0	4	44.2	4	-1E+10	1	-1E+10	1	-1E+10	1	-1E+10	1	-1E+10	1	-1E+10	1
4902551	42	C	10/07/2021	01:51	-134.407	49.626	0	149.90	0	6.0190	0	33.6940	0	26.520	0	148.566	0	133.9	4	44.2	4	-1E+10	1	-1E+10	1	-1E+10	1	-1E+10	1	-1E+10	1	-1E+10	1
4902551	42	C	10/07/2021	01:51	-134.407	49.626	0	150.90	0	6.0160	0	33.6960	0	26.522	0	149.557	0	133.8	4	44.1	4	-1E+10	1	-1E+10	1	-1E+10	1	-1E+10	1	-1E+10	1	-1E+10	1
4902551	42	C	10/07/2021	01:51	-134.407	49.626	0	151.90	0	6.0120	0	33.7000	0	26.526	0	150.548	0	133.6	4	44.1	4	-1E+10	1	-1E+10	1	-1E+10	1	-1E+10	1	-1E+10	1	-1E+10	1
4902551	42	C	10/07/2021	01:51	-134.407	49.626	0	152.80	0	6.0110	0	33.7010	0	26.527	0	151.439	0	133.5	4	44.0	4	-1E+10	1	-1E+10	1	-1E+10	1	-1E+10	1	-1E+10	1	-1E+10	1
4902551	42	C	10/07/2021	01:51	-134.407	49.626	0	153.80	0	6.0100	0	33.7020	0	26.528	0	152.430	0	133.3	4	44.0	4	-1E+10	1	-1E+10	1	-1E+10	1	-1E+10	1	-1E+10	1	-1E+10	1
4902551	42	C	10/07/2021	01:51	-134.407	49.626	0	154.50	0	6.0100	0	33.7020	0	26.528	0	153.123	0	133.2	4	43.9	4	-1E+10	1	-1E+10	1	-1E+10	1	-1E+10	1	-1E+10	1	-1E+10	1
4902551	42	C	10/07/2021	01:51	-134.407	49.626	0	155.90	0	6.0030	0	33.7060	0	26.532	0	154.510	0	132.7	4	43.8	4	-1E+10	1	-1E+10	1	-1E+10	1	-1E+10	1	-1E+10	1	-1E+10	1
4902551	42	C	10/07/2021	01:51	-134.407	49.626	0	157.10	0	6.0000	0	33.7090	0	26.534	0	155.699	0	132.4	4	43.7	4	-1E+10	1	-1E+10	1	-1E+10	1	-1E+10	1	-1E+10	1	-1E+10	1
4902551	42	C	10/07/2021	01:51	-134.407	49.626	0	157.80	0	5.9990	0	33.7090	0	26.534	0	156.393	0	132.1	4	43.6	4	-1E+10	1	-1E+10	1	-1E+10	1	-1E+10	1	-1E+10	1	-1E+10	1
4902551	42	C	10/07/2021	01:51	-134.407	49.626	0	159.00	0	5.9920	0	33.7130	0	26.539	0	157.582	0	131.4	4	43.3	4	-1E+10	1	-1E+10	1	-1E+10	1	-1E+10	1	-1E+10	1	-1E+10	1
4902551	42	C	10/07/2021	01:51	-134.407	49.626	0	160.20	0	5.9750	0	33.7210	0	26.547	0	158.770	0	130.8	4	43.1	4	-1E+10	1	-1E+10	1	-1E+10	1	-1E+10	1	-1E+10	1	-1E+10	1
4902551	42	C	10/07/2021	01:51	-134.407	49.626	0	161.00	0	5.9680	0	33.7230	0	26.549	0	159.563	0	130.3	4	43.0	4	-1E+10	1	-1E+10	1	-1E+10	1	-1E+10	1	-1E+10	1	-1E+10	1
4902551	42	C	10/07/2021	01:51	-134.407	49.626	0	161.80	0	5.9630	0	33.7250	0	26.552	0	160.356	0	129.9	4	42.8	4	-1E+10	1	-1E+10	1	-1E+10	1	-1E+10	1	-1E+10	1	-1E+10	1
4902551	42	C	10/07/2021	01:51	-134.407	49.626	0	162.60	0	5.9600	0	33.7260	0	26.553	0	161.148	0	129.4	4	42.7	4	-1E+10	1	-1E+10	1	-1E+10	1	-1E+10	1	-1E+10	1	-1E+10	1
4902551	42	C	10/07/2021	01:51	-134.407	49.626	0	163.90	0	5.9500	0	33.7290	0	26.556	0	162.436	0	128.7	4	42.4	4	-1E+10	1	-1E+10	1	-1E+10	1	-1E+10	1	-1E+10	1	-1E+10	1
4902551	42	C	10/07/2021	01:51	-134.407	49.626	0	165.20	0	5.9380	0	33.7330	0	26.561	0	163.724	0	128.0	4	42.2	4	-1E+10	1	-1E+10	1	-1E+10	1	-1E+10	1	-1E+10	1	-1E+10	1
4902551	42	C	10/07/2021	01:51	-134.407	49.626	0	166.10	0	5.9270	0	33.7360	0	26.565	0	164.615	0	127.5	4	42.0	4	-1E+10	1	-1E+10	1	-1E+10	1	-1E+10	1	-1E+10	1	-1E+10	1
4902551	42	C	10/07/2021	01:51	-134.407	49.626	0	167.00	0	5.9240	0	33.7370	0	26.566	0	165.507	0	127.0	4	41.8	4	-1E+10	1	-1E+10	1	-1E+10	1	-1E+10	1	-1E+10	1	-1E+10	1
4902551	42	C	10/07/2021	01:51	-134.407	49.626	0	167.90	0	5.9230	0	33.7370	0	26.566	0	166.399	0	126.4	4	41.6	4	-1E+10	1	-1E+10	1	-1E+10	1	-1E+10	1	-1E+10	1	-1E+10	1
4902551	42	C	10/07/2021	01:51	-134.407	49.626	0	168.80	0	5.9150	0	33.7390	0	26.569	0	167.290	0	125.7	4	41.4	4	-1E+10	1	-1E+10	1	-1E+10	1	-1E+10	1	-1E+10	1	-1E+10	1
4902551	42	C	10/07/2021	01:51	-134.407	49.626	0	169.70	0	5.9090	0	33.7410	0	26.571	0	168.182	0	125.2	4	41.2	4	-1E+10	1	-1E+10	1	-1E+10	1	-1E+10	1	-1E+10	1	-1E+10	1
4902551	42	C	10/07/2021	01:51	-134.407	49.626	0	170.60	0	5.8900	0	33.7470	0	26.578	0	169.073	0	124.7	4	41.0	4	-1E+10	1	-1E+10	1	-1E+10	1	-1E+10	1	-1E+10	1	-1E+10	1
4902551	42	C	10/07/2021	01:51	-134.407	49.626	0	171.60	0	5.8840	0	33.7490	0	26.580	0	170.064	0	124.1	4	40.9	4	-1E+10	1	-1E+10	1	-1E+10	1	-1E+10	1	-1E+10	1	-1E+10	1
4902551	42	C	10/07/2021	01:51	-134.407	49.626	0	172.90	0	5.8810	0	33.7490	0	26.581	0	171.352	0	123.3	4	40.6	4	-1E+10	1	-1E+10	1	-1E+10	1	-1E+10	1	-1E+10	1	-1E+10	1
4902551	42	C	10/07/2021	01:51	-134.407	49.626	0	174.40	0	5.8720	0	33.7510	0	26.584	0	172.838	0	122.4	4	40.3	4	-1E+10	1	-1E+10	1	-1E+10	1	-1E+10	1	-1E+10	1	-1E+10	1
4902551	42	C	10/07/2021	01:51	-134.407	49.626	0	175.30	0	5.8520	0	33.7560	0	26.590	0	173.729	0	121.7	4	40.0	4	-1E+10	1	-1E+10	1	-1E+10	1	-1E+10	1	-1E+10	1	-1E+10	1
4902551	42	C	10/07/2021	01:51	-134.407	49.626	0	176.20	0	5.8410	0	33.7550	0	26.591	0	174.621	0	121.1	4	39.8	4	-1E+10	1	-1E+10	1	-1E+10	1	-1E+10	1	-1E+10	1	-1E+10	1
4902551	42	C	10/07/2021	01:51	-134.407	49.626	0	177.20	0	5.8280	0	33.7590	0	26.595	0	175.612	0	120.3	4	39.5	4	-1E+10	1	-1E+10	1	-1E+10	1	-1E+10	1	-1E+10	1	-1E+10	1
4902551	42	C	10/07/2021	01:51	-134.407	49.626	0	178.20	0	5.8000	0	33.7660	0	26.604	0	176.602	0	119.7	4	39.3	4	-1E+10	1	-1E+10	1	-1E+10	1	-1E+10	1	-1E+10	1	-1E+10	1
4902551	42	C	10/07/2021	01:51	-134.407	49.626	0	179.10	0	5.7870	0	33.7660	0	26.606	0	177.494	0	119.2	4	39.1	4	-1E+10	1	-1E+10	1	-1E+10	1	-1E+10	1	-1E+10	1	-1E+10	1
4902551	42	C	10/07/2021	01:51	-134.407	49.626	0	180.10	0	5.7800	0	33.7680	0	26.608	0	178.484	0	118.6	4	39.0	4	-1E+10	1	-1E+10	1	-1E+10	1	-1E+10	1	-1E+10	1	-1E+10	1
4902551	42	C	10/07/2021	01:51	-134.407	49.626	0	181.10	0	5.7760	0	33.7670	0	26.608	0	179.475	0	118.1	4	38.8	4	-1E+10	1	-1E+10	1	-1E+10	1	-1E+10	1	-1E+10	1	-1E+10	1
4902551	42	C	10/07/2021	01:51	-134.407	49.626	0	182.00	0	5.7590	0	33.7710	0	26.613	0	180.366	0	117.5	4	38.6	4	-1E+10	1	-1E+10	1	-1E+10	1	-1E+10	1	-1E+10	1	-1E+10	1
4902551	42	C	10/07/2021	01:51	-134.407	49.626	0	183.00	0	5.7450	0	33.7730	0	26.617	0	181.357	0	117.0	4	38.4	4	-1E+10	1	-1E+10	1	-1E+10	1	-1E+10	1	-1E+10	1	-1E+10	1
4902551	42	C	10/07/2021	01:51	-134.407	49.626	0	183.90	0	5.7340	0	33.7750	0	26.620	0	182.248	0	116.4	4	38.2	4	-1E+10	1	-1E+10	1	-1E+10	1	-1E+10	1	-1E+10	1	-1E+10	1
4902551	42	C	10/07/2021	01:51	-134.407	49.626	0	184.90	0	5.7300	0	33.7750	0	26.620	0	183.239	0	115.8	4	38.0	4	-1E+10	1	-1E+10	1	-1E+10	1	-1E+10	1	-1E+10	1	-1E+10	1
4902551	42	C	10/07/2021	01:51	-134.407	49.626	0	185.90	0	5.7280	0	33.7750	0	26.620	0	184.230	0	115.2	4	37.8	4	-1E+10	1	-1E+10	1	-1E+10	1	-1E+10	1	-1E+10	1	-1E+10	1
4902551	42	C	10/07/2021	01:51	-134.407	49.626	0	186.80	0	5.7050	0	33.7790	0	26.626	0	185.121	0	114.7	4	37.6	4	-1E+10	1	-1E+10	1	-1E+10	1	-1E+10	1	-1E+10	1	-1E+10	1
4902551	42	C	10/07/2021	01:51	-134.407	49.626	0	187.80	0	5.6960	0	33.7790	0	26.627	0	186.112	0	114.2	4	37.4	4	-1E+10	1	-1E+10	1	-1E+10	1	-1E+10	1	-1E+10	1	-1E+10	1
4902551	42	C	10/07/2021	01:51	-134.407	49.626	0	188.70	0	5.6820	0	33.7820	0	26.631	0	187.003	0	113.6	4	37.2	4	-1E+10	1	-1E+10	1	-1E+10	1	-1E+10	1	-1E+10	1	-1E+10	1
4902551	42	C	10/07/2021	01:51	-134.407	49.626	0	189.70	0	5.6670	0	33.7830	0	26.634	0	187.994	0	113.0	4	37.0	4	-1E+10	1	-1E+10	1	-1E+10	1	-1E+10	1	-1E+10	1	-1E+10	1
4902551	42	C	10/07/2021	01:51	-134.407	49.626	0	190.60	0	5.6540	0	33.7840	0	26.636	0	188.885	0	112.5	4	36.8	4	-1E+10	1	-1E+10	1	-1E+10	1	-1E+10	1	-1E+10	1	-1E+10	1
4902551	42	C	10/07/2021	01:51	-134.407	49.626	0	191.50	0	5.6520	0	33.7840	0	26.637	0	189.777	0	111.9	4	36.6	4	-1E+10	1	-1E+10	1	-1E+10	1	-1E+10	1	-1E+10	1	-1E+10	1
4902551	42	C	10/07/2021	01:51	-134.407	49.626	0	192.50	0	5.6300	0	33.7890	0	26.643	0	190.767	0	111.3	4	36.4	4	-1E+10	1	-1E+10	1	-1E+10	1	-1E+10	1	-1E+10	1	-1E+10	1
4902551	42	C	10/07/2021	01:51	-134.407	49.626	0	193.90	0	5.6090	0	33.7910	0	26.647	0	192.154	0	110.7	4	36.2	4	-1E+10	1	-1E+10	1	-1E+10	1	-1E+10	1	-1E+10	1	-1E+10	1
4902551	42	C	10/07/2021	01:51	-134.407	49.626	0	195.30	0	5.5860	0	33.7920	0	26.651	0	193.541	0	110.0	4	36.0	4	-1E+10	1	-1E+10	1	-1E+10	1	-1E+10	1	-1E+10	1	-1E+10	1
4902551	42	C	10/07/2021	01:51	-134.407	49.626	0	196.30	0	5.5810	0	33.7920	0	26.652	0	194.531	0	109.5	4	35.8	4	-1E+10	1	-1E+10	1	-1E+10	1	-1E+10	1	-1E+10	1	-1E+10	1
4902551	42	C	10/07/2021	01:51	-134.407	49.626	0	197.20	0	5.5740	0	33.7920	0	26.652	0	195.423	0	109.0	4	35.6	4	-1E+10	1	-1E+10	1	-1E+10	1	-1E+10	1	-1E+10	1	-1E+10	1
4902551	42	C	10/07/2021	01:51	-134.407	49.626	0	198.20	0	5.5440	0	33.7950	0	26.658	0	196.413	0	108.5	4	35.4	4	-1E+10	1	-1E+10	1	-1E+10	1	-1E+10	1	-1E+10	1	-1E+10	1
4902551	42	C	10/07/2021	01:51	-134.407	49.626	0	199.20	0	5.5300	0	33.7980	0	26.663	0	197.404	0	108.1	4	35.3	4	-1E+10	1	-1E+10	1	-1E+10	1	-1E+10	1	-1E+10	1	-1E+10	1
4902551	42	C	10/07/2021	01:51	-134.407	49.626	0	200.10	0	5.5130	0	33.7990	0	26.665	0	198.295	0	107.7	4	35.1	4	-1E+10	1	-1E+10	1	-1E+10	1	-1E+10	1	-1E+10	1	-1E+10	1
4902551	42	C	10/07/2021	01:51	-134.407	49.626	0	201.10	0	5.5130	0	33.7980	0	26.665	0	199.286	0	107.2	4	35.0	4	-1E+10	1	-1E+10	1	-1E+10	1	-1E+10	1	-1E+10	1	-1E+10	1
4902551	42	C	10/07/2021	01:51	-134.407	49.626	0	202.00	0	5.4970	0	33.8020	0	26.670	0	200.177	0	106.8	4	34.8	4	-1E+10	1	-1E+10	1	-1E+10	1	-1E+10	1	-1E+10	1	-1E+10	1
4902551	42	C	10/07/2021	01:51	-134.407	49.626	0	202.90	0	5.4900	0	33.8000	0	26.669	0	201.069	0	106.3	4	34.7	4	-1E+10	1	-1E+10	1	-1E+10	1	-1E+10	1	-1E+10	1	-1E+10	1
4902551	42	C	10/07/2021	01:51	-134.407	49.626	0	203.90	0	5.4750	0	33.8020	0	26.672	0	202.059	0	105.9	4	34.5	4	-1E+10	1	-1E+10	1	-1E+10	1	-1E+10	1	-1E+10	1	-1E+10	1
4902551	42	C	10/07/2021	01:51	-134.407	49.626	0	204.90	0	5.4510	0	33.8040	0	26.677	0	203.050	0	105.5	4	34.4	4	-1E+10	1	-1E+10	1	-1E+10	1	-1E+10	1	-1E+10	1	-1E+10	1
4902551	42	C	10/07/2021	01:51	-134.407	49.626	0	205.80	0	5.4470	0	33.8040	0	26.677	0	203.941	0	105.1	4	34.3	4	-1E+10	1	-1E+10	1	-1E+10	1	-1E+10	1	-1E+10	1	-1E+10	1
4902551	42	C	10/07/2021	01:51	-134.407	49.626	0	206.80	0	5.4350	0	33.8050	0	26.679	0	204.931	0	104.7	4	34.1	4	-1E+10	1	-1E+10	1	-1E+10	1	-1E+10	1	-1E+10	1	-1E+10	1
4902551	42	C	10/07/2021	01:51	-134.407	49.626	0	207.80	0	5.4300	0	33.8050	0	26.680	0	205.922	0	104.3	4	34.0	4	-1E+10	1	-1E+10	1	-1E+10	1	-1E+10	1	-1E+10	1	-1E+10	1
4902551	42	C	10/07/2021	01:51	-134.407	49.626	0	208.70	0	5.4000	0	33.8090	0	26.687	0	206.813	0	104.0	4	33.8	4	-1E+10	1	-1E+10	1	-1E+10	1	-1E+10	1	-1E+10	1	-1E+10	1
4902551	42	C	10/07/2021	01:51	-134.407	49.626	0	209.60	0	5.3950	0	33.8080	0	26.687	0	207.705	0	103.7	4	33.7	4	-1E+10	1	-1E+10	1	-1E+10	1	-1E+10	1	-1E+10	1	-1E+10	1
4902551	42	C	10/07/2021	01:51	-134.407	49.626	0	210.60	0	5.3770	0	33.8100	0	26.690	0	208.695	0	103.4	4	33.6	4	-1E+10	1	-1E+10	1	-1E+10	1	-1E+10	1	-1E+10	1	-1E+10	1
4902551	42	C	10/07/2021	01:51	-134.407	49.626	0	211.60	0	5.3710	0	33.8100	0	26.691	0	209.686	0	103.0	4	33.5	4	-1E+10	1	-1E+10	1	-1E+10	1	-1E+10	1	-1E+10	1	-1E+10	1
4902551	42	C	10/07/2021	01:51	-134.407	49.626	0	212.60	0	5.3620	0	33.8120	0	26.694	0	210.676	0	102.6	4	33.4	4	-1E+10	1	-1E+10	1	-1E+10	1	-1E+10	1	-1E+10	1	-1E+10	1
4902551	42	C	10/07/2021	01:51	-134.407	49.626	0	213.60	0	5.3520	0	33.8120	0	26.695	0	211.667	0	102.3	4	33.3	4	-1E+10	1	-1E+10	1	-1E+10	1	-1E+10	1	-1E+10	1	-1E+10	1
4902551	42	C	10/07/2021	01:51	-134.407	49.626	0	214.60	0	5.3420	0	33.8120	0	26.696	0	212.657	0	101.9	4	33.1	4	-1E+10	1	-1E+10	1	-1E+10	1	-1E+10	1	-1E+10	1	-1E+10	1
4902551	42	C	10/07/2021	01:51	-134.407	49.626	0	215.60	0	5.3370	0	33.8130	0	26.697	0	213.647	0	101.6	4	33.0	4	-1E+10	1	-1E+10	1	-1E+10	1	-1E+10	1	-1E+10	1	-1E+10	1
4902551	42	C	10/07/2021	01:51	-134.407	49.626	0	216.50	0	5.3140	0	33.8180	0	26.704	0	214.539	0	101.4	4	32.9	4	-1E+10	1	-1E+10	1	-1E+10	1	-1E+10	1	-1E+10	1	-1E+10	1
4902551	42	C	10/07/2021	01:51	-134.407	49.626	0	217.50	0	5.2940	0	33.8160	0	26.705	0	215.529	0	101.2	4	32.9	4	-1E+10	1	-1E+10	1	-1E+10	1	-1E+10	1	-1E+10	1	-1E+10	1
4902551	42	C	10/07/2021	01:51	-134.407	49.626	0	218.50	0	5.2830	0	33.8160	0	26.706	0	216.520	0	100.9	4	32.8	4	-1E+10	1	-1E+10	1	-1E+10	1	-1E+10	1	-1E+10	1	-1E+10	1
4902551	42	C	10/07/2021	01:51	-134.407	49.626	0	219.50	0	5.2770	0	33.8160	0	26.707	0	217.510	0	100.7	4	32.7	4	-1E+10	1	-1E+10	1	-1E+10	1	-1E+10	1	-1E+10	1	-1E+10	1
4902551	42	C	10/07/2021	01:51	-134.407	49.626	0	220.90	0	5.2720	0	33.8160	0	26.707	0	218.897	0	100.3	4	32.5	4	-1E+10	1	-1E+10	1	-1E+10	1	-1E+10	1	-1E+10	1	-1E+10	1
4902551	42	C	10/07/2021	01:51	-134.407	49.626	0	222.40	0	5.2690	0	33.8160	0	26.708	0	220.382	0	99.9	4	32.4	4	-1E+10	1	-1E+10	1	-1E+10	1	-1E+10	1	-1E+10	1	-1E+10	1
4902551	42	C	10/07/2021	01:51	-134.407	49.626	0	223.40	0	5.2630	0	33.8150	0	26.708	0	221.373	0	99.6	4	32.3	4	-1E+10	1	-1E+10	1	-1E+10	1	-1E+10	1	-1E+10	1	-1E+10	1
4902551	42	C	10/07/2021	01:51	-134.407	49.626	0	224.40	0	5.2450	0	33.8160	0	26.711	0	222.363	0	99.3	4	32.2	4	-1E+10	1	-1E+10	1	-1E+10	1	-1E+10	1	-1E+10	1	-1E+10	1
4902551	42	C	10/07/2021	01:51	-134.407	49.626	0	225.40	0	5.2410	0	33.8170	0	26.712	0	223.353	0	99.0	4	32.1	4	-1E+10	1	-1E+10	1	-1E+10	1	-1E+10	1	-1E+10	1	-1E+10	1
4902551	42	C	10/07/2021	01:51	-134.407	49.626	0	226.30	0	5.2380	0	33.8160	0	26.711	0	224.245	0	98.7	4	32.0	4	-1E+10	1	-1E+10	1	-1E+10	1	-1E+10	1	-1E+10	1	-1E+10	1
4902551	42	C	10/07/2021	01:51	-134.407	49.626	0	227.30	0	5.2190	0	33.8170	0	26.714	0	225.235	0	98.4	4	31.9	4	-1E+10	1	-1E+10	1	-1E+10	1	-1E+10	1	-1E+10	1	-1E+10	1
4902551	42	C	10/07/2021	01:51	-134.407	49.626	0	228.30	0	5.1800	0	33.8210	0	26.722	0	226.225	0	98.2	4	31.8	4	-1E+10	1	-1E+10	1	-1E+10	1	-1E+10	1	-1E+10	1	-1E+10	1
4902551	42	C	10/07/2021	01:51	-134.407	49.626	0	229.30	0	5.1760	0	33.8210	0	26.723	0	227.216	0	97.9	4	31.7	4	-1E+10	1	-1E+10	1	-1E+10	1	-1E+10	1	-1E+10	1	-1E+10	1
4902551	42	C	10/07/2021	01:51	-134.407	49.626	0	230.30	0	5.1740	0	33.8200	0	26.722	0	228.206	0	97.6	4	31.6	4	-1E+10	1	-1E+10	1	-1E+10	1	-1E+10	1	-1E+10	1	-1E+10	1
4902551	42	C	10/07/2021	01:51	-134.407	49.626	0	231.20	0	5.1650	0	33.8230	0	26.725	0	229.098	0	97.4	4	31.5	4	-1E+10	1	-1E+10	1	-1E+10	1	-1E+10	1	-1E+10	1	-1E+10	1
4902551	42	C	10/07/2021	01:51	-134.407	49.626	0	232.20	0	5.1480	0	33.8220	0	26.727	0	230.088	0	97.1	4	31.4	4	-1E+10	1	-1E+10	1	-1E+10	1	-1E+10	1	-1E+10	1	-1E+10	1
4902551	42	C	10/07/2021	01:51	-134.407	49.626	0	233.20	0	5.1260	0	33.8240	0	26.731	0	231.078	0	97.0	4	31.4	4	-1E+10	1	-1E+10	1	-1E+10	1	-1E+10	1	-1E+10	1	-1E+10	1
4902551	42	C	10/07/2021	01:51	-134.407	49.626	0	234.20	0	5.1160	0	33.8260	0	26.733	0	232.069	0	96.8	4	31.3	4	-1E+10	1	-1E+10	1	-1E+10	1	-1E+10	1	-1E+10	1	-1E+10	1
4902551	42	C	10/07/2021	01:51	-134.407	49.626	0	235.20	0	5.1140	0	33.8250	0	26.733	0	233.059	0	96.7	4	31.3	4	-1E+10	1	-1E+10	1	-1E+10	1	-1E+10	1	-1E+10	1	-1E+10	1
4902551	42	C	10/07/2021	01:51	-134.407	49.626	0	236.20	0	5.1090	0	33.8260	0	26.734	0	234.049	0	96.5	4	31.2	4	-1E+10	1	-1E+10	1	-1E+10	1	-1E+10	1	-1E+10	1	-1E+10	1
4902551	42	C	10/07/2021	01:51	-134.407	49.626	0	237.10	0	5.1060	0	33.8260	0	26.735	0	234.941	0	96.3	4	31.1	4	-1E+10	1	-1E+10	1	-1E+10	1	-1E+10	1	-1E+10	1	-1E+10	1
4902551	42	C	10/07/2021	01:51	-134.407	49.626	0	238.10	0	5.1050	0	33.8260	0	26.735	0	235.931	0	96.1	4	31.1	4	-1E+10	1	-1E+10	1	-1E+10	1	-1E+10	1	-1E+10	1	-1E+10	1
4902551	42	C	10/07/2021	01:51	-134.407	49.626	0	239.10	0	5.1020	0	33.8260	0	26.735	0	236.921	0	95.9	4	31.0	4	-1E+10	1	-1E+10	1	-1E+10	1	-1E+10	1	-1E+10	1	-1E+10	1
4902551	42	C	10/07/2021	01:51	-134.407	49.626	0	240.10	0	5.0930	0	33.8260	0	26.736	0	237.911	0	95.7	4	30.9	4	-1E+10	1	-1E+10	1	-1E+10	1	-1E+10	1	-1E+10	1	-1E+10	1
4902551	42	C	10/07/2021	01:51	-134.407	49.626	0	241.00	0	5.0850	0	33.8270	0	26.738	0	238.803	0	95.5	4	30.9	4	-1E+10	1	-1E+10	1	-1E+10	1	-1E+10	1	-1E+10	1	-1E+10	1
4902551	42	C	10/07/2021	01:51	-134.407	49.626	0	242.00	0	5.0690	0	33.8300	0	26.742	0	239.793	0	95.3	4	30.8	4	-1E+10	1	-1E+10	1	-1E+10	1	-1E+10	1	-1E+10	1	-1E+10	1
4902551	42	C	10/07/2021	01:51	-134.407	49.626	0	243.00	0	5.0590	0	33.8310	0	26.744	0	240.783	0	95.1	4	30.7	4	-1E+10	1	-1E+10	1	-1E+10	1	-1E+10	1	-1E+10	1	-1E+10	1
4902551	42	C	10/07/2021	01:51	-134.407	49.626	0	244.00	0	5.0560	0	33.8300	0	26.744	0	241.774	0	94.8	4	30.6	4	-1E+10	1	-1E+10	1	-1E+10	1	-1E+10	1	-1E+10	1	-1E+10	1
4902551	42	C	10/07/2021	01:51	-134.407	49.626	0	245.00	0	5.0530	0	33.8300	0	26.744	0	242.764	0	94.5	4	30.5	4	-1E+10	1	-1E+10	1	-1E+10	1	-1E+10	1	-1E+10	1	-1E+10	1
4902551	42	C	10/07/2021	01:51	-134.407	49.626	0	246.00	0	5.0480	0	33.8300	0	26.745	0	243.754	0	94.2	4	30.4	4	-1E+10	1	-1E+10	1	-1E+10	1	-1E+10	1	-1E+10	1	-1E+10	1
4902551	42	C	10/07/2021	01:51	-134.407	49.626	0	247.00	0	5.0450	0	33.8310	0	26.746	0	244.744	0	93.8	4	30.3	4	-1E+10	1	-1E+10	1	-1E+10	1	-1E+10	1	-1E+10	1	-1E+10	1
4902551	42	C	10/07/2021	01:51	-134.407	49.626	0	248.00	0	5.0350	0	33.8310	0	26.747	0	245.735	0	93.4	4	30.2	4	-1E+10	1	-1E+10	1	-1E+10	1	-1E+10	1	-1E+10	1	-1E+10	1
4902551	42	C	10/07/2021	01:51	-134.407	49.626	0	249.00	0	5.0300	0	33.8320	0	26.748	0	246.725	0	93.0	4	30.0	4	-1E+10	1	-1E+10	1	-1E+10	1	-1E+10	1	-1E+10	1	-1E+10	1
4902551	42	C	10/07/2021	01:51	-134.407	49.626	0	250.00	0	5.0120	0	33.8330	0	26.751	0	247.715	0	92.6	4	29.9	4	-1E+10	1	-1E+10	1	-1E+10	1	-1E+10	1	-1E+10	1	-1E+10	1
4902551	42	C	10/07/2021	01:51	-134.407	49.626	0	251.00	0	4.9960	0	33.8340	0	26.754	0	248.706	0	92.1	4	29.7	4	-1E+10	1	-1E+10	1	-1E+10	1	-1E+10	1	-1E+10	1	-1E+10	1
4902551	42	C	10/07/2021	01:51	-134.407	49.626	0	252.00	0	4.9930	0	33.8350	0	26.755	0	249.696	0	91.7	4	29.6	4	-1E+10	1	-1E+10	1	-1E+10	1	-1E+10	1	-1E+10	1	-1E+10	1
4902551	42	C	10/07/2021	01:51	-134.407	49.626	0	253.00	0	4.9840	0	33.8370	0	26.757	0	250.686	0	91.5	4	29.5	4	-1E+10	1	-1E+10	1	-1E+10	1	-1E+10	1	-1E+10	1	-1E+10	1
4902551	42	C	10/07/2021	01:51	-134.407	49.626	0	254.00	0	4.9780	0	33.8370	0	26.758	0	251.676	0	91.4	4	29.5	4	-1E+10	1	-1E+10	1	-1E+10	1	-1E+10	1	-1E+10	1	-1E+10	1
4902551	42	C	10/07/2021	01:51	-134.407	49.626	0	255.00	0	4.9750	0	33.8370	0	26.758	0	252.667	0	91.2	4	29.4	4	-1E+10	1	-1E+10	1	-1E+10	1	-1E+10	1	-1E+10	1	-1E+10	1
4902551	42	C	10/07/2021	01:51	-134.407	49.626	0	256.00	0	4.9650	0	33.8400	0	26.762	0	253.657	0	91.2	4	29.4	4	-1E+10	1	-1E+10	1	-1E+10	1	-1E+10	1	-1E+10	1	-1E+10	1
4902551	42	C	10/07/2021	01:51	-134.407	49.626	0	257.00	0	4.9610	0	33.8390	0	26.762	0	254.647	0	91.1	4	29.4	4	-1E+10	1	-1E+10	1	-1E+10	1	-1E+10	1	-1E+10	1	-1E+10	1
4902551	42	C	10/07/2021	01:51	-134.407	49.626	0	258.10	0	4.9560	0	33.8390	0	26.762	0	255.736	0	91.0	4	29.3	4	-1E+10	1	-1E+10	1	-1E+10	1	-1E+10	1	-1E+10	1	-1E+10	1
4902551	42	C	10/07/2021	01:51	-134.407	49.626	0	259.10	0	4.9530	0	33.8400	0	26.763	0	256.727	0	90.9	4	29.3	4	-1E+10	1	-1E+10	1	-1E+10	1	-1E+10	1	-1E+10	1	-1E+10	1
4902551	42	C	10/07/2021	01:51	-134.407	49.626	0	260.10	0	4.9470	0	33.8400	0	26.764	0	257.717	0	90.7	4	29.2	4	-1E+10	1	-1E+10	1	-1E+10	1	-1E+10	1	-1E+10	1	-1E+10	1
4902551	42	C	10/07/2021	01:51	-134.407	49.626	0	261.10	0	4.9430	0	33.8410	0	26.765	0	258.707	0	90.6	4	29.2	4	-1E+10	1	-1E+10	1	-1E+10	1	-1E+10	1	-1E+10	1	-1E+10	1
4902551	42	C	10/07/2021	01:51	-134.407	49.626	0	262.10	0	4.9390	0	33.8400	0	26.765	0	259.697	0	90.4	4	29.1	4	-1E+10	1	-1E+10	1	-1E+10	1	-1E+10	1	-1E+10	1	-1E+10	1
4902551	42	C	10/07/2021	01:51	-134.407	49.626	0	263.10	0	4.9300	0	33.8410	0	26.767	0	260.687	0	90.2	4	29.0	4	-1E+10	1	-1E+10	1	-1E+10	1	-1E+10	1	-1E+10	1	-1E+10	1
4902551	42	C	10/07/2021	01:51	-134.407	49.626	0	264.10	0	4.9240	0	33.8410	0	26.767	0	261.678	0	90.0	4	29.0	4	-1E+10	1	-1E+10	1	-1E+10	1	-1E+10	1	-1E+10	1	-1E+10	1
4902551	42	C	10/07/2021	01:51	-134.407	49.626	0	265.10	0	4.9140	0	33.8420	0	26.769	0	262.668	0	89.7	4	28.9	4	-1E+10	1	-1E+10	1	-1E+10	1	-1E+10	1	-1E+10	1	-1E+10	1
4902551	42	C	10/07/2021	01:51	-134.407	49.626	0	266.10	0	4.9080	0	33.8410	0	26.769	0	263.658	0	89.3	4	28.8	4	-1E+10	1	-1E+10	1	-1E+10	1	-1E+10	1	-1E+10	1	-1E+10	1
4902551	42	C	10/07/2021	01:51	-134.407	49.626	0	267.20	0	4.9000	0	33.8430	0	26.772	0	264.747	0	89.0	4	28.6	4	-1E+10	1	-1E+10	1	-1E+10	1	-1E+10	1	-1E+10	1	-1E+10	1
4902551	42	C	10/07/2021	01:51	-134.407	49.626	0	268.20	0	4.8890	0	33.8460	0	26.775	0	265.737	0	88.7	4	28.5	4	-1E+10	1	-1E+10	1	-1E+10	1	-1E+10	1	-1E+10	1	-1E+10	1
4902551	42	C	10/07/2021	01:51	-134.407	49.626	0	269.20	0	4.8790	0	33.8480	0	26.778	0	266.727	0	88.3	4	28.4	4	-1E+10	1	-1E+10	1	-1E+10	1	-1E+10	1	-1E+10	1	-1E+10	1
4902551	42	C	10/07/2021	01:51	-134.407	49.626	0	270.20	0	4.8780	0	33.8440	0	26.775	0	267.718	0	88.0	4	28.3	4	-1E+10	1	-1E+10	1	-1E+10	1	-1E+10	1	-1E+10	1	-1E+10	1
4902551	42	C	10/07/2021	01:51	-134.407	49.626	0	271.20	0	4.8650	0	33.8460	0	26.778	0	268.708	0	87.5	4	28.1	4	-1E+10	1	-1E+10	1	-1E+10	1	-1E+10	1	-1E+10	1	-1E+10	1
4902551	42	C	10/07/2021	01:51	-134.407	49.626	0	272.20	0	4.8620	0	33.8470	0	26.779	0	269.698	0	87.2	4	28.0	4	-1E+10	1	-1E+10	1	-1E+10	1	-1E+10	1	-1E+10	1	-1E+10	1
4902551	42	C	10/07/2021	01:51	-134.407	49.626	0	273.20	0	4.8580	0	33.8480	0	26.780	0	270.688	0	86.9	4	27.9	4	-1E+10	1	-1E+10	1	-1E+10	1	-1E+10	1	-1E+10	1	-1E+10	1
4902551	42	C	10/07/2021	01:51	-134.407	49.626	0	274.20	0	4.8520	0	33.8470	0	26.780	0	271.678	0	86.5	4	27.8	4	-1E+10	1	-1E+10	1	-1E+10	1	-1E+10	1	-1E+10	1	-1E+10	1
4902551	42	C	10/07/2021	01:51	-134.407	49.626	0	275.20	0	4.8300	0	33.8500	0	26.785	0	272.668	0	86.0	4	27.6	4	-1E+10	1	-1E+10	1	-1E+10	1	-1E+10	1	-1E+10	1	-1E+10	1
4902551	42	C	10/07/2021	01:51	-134.407	49.626	0	276.20	0	4.8240	0	33.8500	0	26.786	0	273.659	0	85.6	4	27.5	4	-1E+10	1	-1E+10	1	-1E+10	1	-1E+10	1	-1E+10	1	-1E+10	1
4902551	42	C	10/07/2021	01:51	-134.407	49.626	0	277.20	0	4.8200	0	33.8510	0	26.787	0	274.649	0	85.1	4	27.3	4	-1E+10	1	-1E+10	1	-1E+10	1	-1E+10	1	-1E+10	1	-1E+10	1
4902551	42	C	10/07/2021	01:51	-134.407	49.626	0	278.20	0	4.8180	0	33.8510	0	26.787	0	275.639	0	84.6	4	27.2	4	-1E+10	1	-1E+10	1	-1E+10	1	-1E+10	1	-1E+10	1	-1E+10	1
4902551	42	C	10/07/2021	01:51	-134.407	49.626	0	279.20	0	4.8160	0	33.8510	0	26.788	0	276.629	0	83.9	4	27.0	4	-1E+10	1	-1E+10	1	-1E+10	1	-1E+10	1	-1E+10	1	-1E+10	1
4902551	42	C	10/07/2021	01:51	-134.407	49.626	0	280.20	0	4.8080	0	33.8520	0	26.789	0	277.619	0	83.4	4	26.8	4	-1E+10	1	-1E+10	1	-1E+10	1	-1E+10	1	-1E+10	1	-1E+10	1
4902551	42	C	10/07/2021	01:51	-134.407	49.626	0	281.20	0	4.7880	0	33.8560	0	26.795	0	278.609	0	82.9	4	26.6	4	-1E+10	1	-1E+10	1	-1E+10	1	-1E+10	1	-1E+10	1	-1E+10	1
4902551	42	C	10/07/2021	01:51	-134.407	49.626	0	282.20	0	4.7820	0	33.8560	0	26.795	0	279.599	0	82.6	4	26.5	4	-1E+10	1	-1E+10	1	-1E+10	1	-1E+10	1	-1E+10	1	-1E+10	1
4902551	42	C	10/07/2021	01:51	-134.407	49.626	0	283.30	0	4.7800	0	33.8570	0	26.796	0	280.688	0	82.2	4	26.4	4	-1E+10	1	-1E+10	1	-1E+10	1	-1E+10	1	-1E+10	1	-1E+10	1
4902551	42	C	10/07/2021	01:51	-134.407	49.626	0	284.30	0	4.7750	0	33.8580	0	26.798	0	281.679	0	81.8	4	26.2	4	-1E+10	1	-1E+10	1	-1E+10	1	-1E+10	1	-1E+10	1	-1E+10	1
4902551	42	C	10/07/2021	01:51	-134.407	49.626	0	285.30	0	4.7730	0	33.8590	0	26.799	0	282.669	0	81.3	4	26.1	4	-1E+10	1	-1E+10	1	-1E+10	1	-1E+10	1	-1E+10	1	-1E+10	1
4902551	42	C	10/07/2021	01:51	-134.407	49.626	0	286.30	0	4.7660	0	33.8600	0	26.800	0	283.659	0	80.9	4	25.9	4	-1E+10	1	-1E+10	1	-1E+10	1	-1E+10	1	-1E+10	1	-1E+10	1
4902551	42	C	10/07/2021	01:51	-134.407	49.626	0	287.40	0	4.7600	0	33.8610	0	26.802	0	284.748	0	80.4	4	25.8	4	-1E+10	1	-1E+10	1	-1E+10	1	-1E+10	1	-1E+10	1	-1E+10	1
4902551	42	C	10/07/2021	01:51	-134.407	49.626	0	288.40	0	4.7570	0	33.8620	0	26.803	0	285.738	0	79.9	4	25.6	4	-1E+10	1	-1E+10	1	-1E+10	1	-1E+10	1	-1E+10	1	-1E+10	1
4902551	42	C	10/07/2021	01:51	-134.407	49.626	0	289.40	0	4.7550	0	33.8620	0	26.803	0	286.728	0	79.4	4	25.5	4	-1E+10	1	-1E+10	1	-1E+10	1	-1E+10	1	-1E+10	1	-1E+10	1
4902551	42	C	10/07/2021	01:51	-134.407	49.626	0	290.40	0	4.7440	0	33.8640	0	26.806	0	287.718	0	78.9	4	25.3	4	-1E+10	1	-1E+10	1	-1E+10	1	-1E+10	1	-1E+10	1	-1E+10	1
4902551	42	C	10/07/2021	01:51	-134.407	49.626	0	291.40	0	4.7350	0	33.8650	0	26.808	0	288.708	0	78.4	4	25.1	4	-1E+10	1	-1E+10	1	-1E+10	1	-1E+10	1	-1E+10	1	-1E+10	1
4902551	42	C	10/07/2021	01:51	-134.407	49.626	0	292.50	0	4.7200	0	33.8690	0	26.813	0	289.797	0	78.2	4	25.0	4	-1E+10	1	-1E+10	1	-1E+10	1	-1E+10	1	-1E+10	1	-1E+10	1
4902551	42	C	10/07/2021	01:51	-134.407	49.626	0	293.50	0	4.7160	0	33.8700	0	26.814	0	290.787	0	77.8	4	24.9	4	-1E+10	1	-1E+10	1	-1E+10	1	-1E+10	1	-1E+10	1	-1E+10	1
4902551	42	C	10/07/2021	01:51	-134.407	49.626	0	294.50	0	4.7140	0	33.8710	0	26.815	0	291.777	0	77.6	4	24.9	4	-1E+10	1	-1E+10	1	-1E+10	1	-1E+10	1	-1E+10	1	-1E+10	1
4902551	42	C	10/07/2021	01:51	-134.407	49.626	0	295.50	0	4.7050	0	33.8730	0	26.817	0	292.767	0	77.3	4	24.8	4	-1E+10	1	-1E+10	1	-1E+10	1	-1E+10	1	-1E+10	1	-1E+10	1
4902551	42	C	10/07/2021	01:51	-134.407	49.626	0	296.60	0	4.7020	0	33.8730	0	26.818	0	293.856	0	77.1	4	24.7	4	-1E+10	1	-1E+10	1	-1E+10	1	-1E+10	1	-1E+10	1	-1E+10	1
4902551	42	C	10/07/2021	01:51	-134.407	49.626	0	297.60	0	4.6980	0	33.8750	0	26.820	0	294.846	0	76.9	4	24.6	4	-1E+10	1	-1E+10	1	-1E+10	1	-1E+10	1	-1E+10	1	-1E+10	1
4902551	42	C	10/07/2021	01:51	-134.407	49.626	0	298.60	0	4.6960	0	33.8750	0	26.820	0	295.836	0	76.7	4	24.6	4	-1E+10	1	-1E+10	1	-1E+10	1	-1E+10	1	-1E+10	1	-1E+10	1
4902551	42	C	10/07/2021	01:51	-134.407	49.626	0	299.60	0	4.6940	0	33.8760	0	26.821	0	296.826	0	76.5	4	24.5	4	-1E+10	1	-1E+10	1	-1E+10	1	-1E+10	1	-1E+10	1	-1E+10	1
4902551	42	C	10/07/2021	01:51	-134.407	49.626	0	300.70	0	4.6910	0	33.8770	0	26.822	0	297.916	0	76.3	4	24.4	4	-1E+10	1	-1E+10	1	-1E+10	1	-1E+10	1	-1E+10	1	-1E+10	1
4902551	42	C	10/07/2021	01:51	-134.407	49.626	0	301.70	0	4.6900	0	33.8760	0	26.821	0	298.906	0	76.1	4	24.4	4	-1E+10	1	-1E+10	1	-1E+10	1	-1E+10	1	-1E+10	1	-1E+10	1
4902551	42	C	10/07/2021	01:51	-134.407	49.626	0	302.70	0	4.6900	0	33.8760	0	26.821	0	299.896	0	75.8	4	24.3	4	-1E+10	1	-1E+10	1	-1E+10	1	-1E+10	1	-1E+10	1	-1E+10	1
4902551	42	C	10/07/2021	01:51	-134.407	49.626	0	303.80	0	4.6900	0	33.8760	0	26.821	0	300.985	0	75.5	4	24.2	4	-1E+10	1	-1E+10	1	-1E+10	1	-1E+10	1	-1E+10	1	-1E+10	1
4902551	42	C	10/07/2021	01:51	-134.407	49.626	0	304.80	0	4.6860	0	33.8770	0	26.823	0	301.975	0	75.2	4	24.1	4	-1E+10	1	-1E+10	1	-1E+10	1	-1E+10	1	-1E+10	1	-1E+10	1
4902551	42	C	10/07/2021	01:51	-134.407	49.626	0	305.80	0	4.6760	0	33.8800	0	26.826	0	302.965	0	74.9	4	24.0	4	-1E+10	1	-1E+10	1	-1E+10	1	-1E+10	1	-1E+10	1	-1E+10	1
4902551	42	C	10/07/2021	01:51	-134.407	49.626	0	306.90	0	4.6740	0	33.8810	0	26.827	0	304.054	0	74.7	4	23.9	4	-1E+10	1	-1E+10	1	-1E+10	1	-1E+10	1	-1E+10	1	-1E+10	1
4902551	42	C	10/07/2021	01:51	-134.407	49.626	0	307.90	0	4.6700	0	33.8810	0	26.828	0	305.044	0	74.4	4	23.8	4	-1E+10	1	-1E+10	1	-1E+10	1	-1E+10	1	-1E+10	1	-1E+10	1
4902551	42	C	10/07/2021	01:51	-134.407	49.626	0	308.90	0	4.6660	0	33.8820	0	26.829	0	306.034	0	74.1	4	23.7	4	-1E+10	1	-1E+10	1	-1E+10	1	-1E+10	1	-1E+10	1	-1E+10	1
4902551	42	C	10/07/2021	01:51	-134.407	49.626	0	310.00	0	4.6600	0	33.8830	0	26.830	0	307.122	0	73.8	4	23.6	4	-1E+10	1	-1E+10	1	-1E+10	1	-1E+10	1	-1E+10	1	-1E+10	1
4902551	42	C	10/07/2021	01:51	-134.407	49.626	0	311.00	0	4.6520	0	33.8840	0	26.832	0	308.112	0	73.4	4	23.5	4	-1E+10	1	-1E+10	1	-1E+10	1	-1E+10	1	-1E+10	1	-1E+10	1
4902551	42	C	10/07/2021	01:51	-134.407	49.626	0	312.00	0	4.6500	0	33.8840	0	26.832	0	309.102	0	72.9	4	23.3	4	-1E+10	1	-1E+10	1	-1E+10	1	-1E+10	1	-1E+10	1	-1E+10	1
4902551	42	C	10/07/2021	01:51	-134.407	49.626	0	313.00	0	4.6510	0	33.8830	0	26.831	0	310.092	0	72.5	4	23.2	4	-1E+10	1	-1E+10	1	-1E+10	1	-1E+10	1	-1E+10	1	-1E+10	1
4902551	42	C	10/07/2021	01:51	-134.407	49.626	0	314.00	0	4.6510	0	33.8860	0	26.834	0	311.082	0	72.1	4	23.1	4	-1E+10	1	-1E+10	1	-1E+10	1	-1E+10	1	-1E+10	1	-1E+10	1
4902551	42	C	10/07/2021	01:51	-134.407	49.626	0	315.10	0	4.6460	0	33.8890	0	26.837	0	312.171	0	71.7	4	23.0	4	-1E+10	1	-1E+10	1	-1E+10	1	-1E+10	1	-1E+10	1	-1E+10	1
4902551	42	C	10/07/2021	01:51	-134.407	49.626	0	316.10	0	4.6370	0	33.8910	0	26.839	0	313.161	0	71.4	4	22.9	4	-1E+10	1	-1E+10	1	-1E+10	1	-1E+10	1	-1E+10	1	-1E+10	1
4902551	42	C	10/07/2021	01:51	-134.407	49.626	0	317.10	0	4.6320	0	33.8920	0	26.841	0	314.151	0	71.1	4	22.7	4	-1E+10	1	-1E+10	1	-1E+10	1	-1E+10	1	-1E+10	1	-1E+10	1
4902551	42	C	10/07/2021	01:51	-134.407	49.626	0	317.80	0	4.6300	0	33.8930	0	26.842	0	314.844	0	70.9	4	22.7	4	-1E+10	1	-1E+10	1	-1E+10	1	-1E+10	1	-1E+10	1	-1E+10	1
4902551	42	C	10/07/2021	01:51	-134.407	49.626	0	319.00	0	4.6300	0	33.8940	0	26.842	0	316.032	0	70.6	4	22.6	4	-1E+10	1	-1E+10	1	-1E+10	1	-1E+10	1	-1E+10	1	-1E+10	1
4902551	42	C	10/07/2021	01:51	-134.407	49.626	0	319.70	0	4.6300	0	33.8960	0	26.844	0	316.725	0	70.4	4	22.5	4	-1E+10	1	-1E+10	1	-1E+10	1	-1E+10	1	-1E+10	1	-1E+10	1
4902551	42	C	10/07/2021	01:51	-134.407	49.626	0	320.90	0	4.6240	0	33.8970	0	26.846	0	317.913	0	70.1	4	22.4	4	-1E+10	1	-1E+10	1	-1E+10	1	-1E+10	1	-1E+10	1	-1E+10	1
4902551	42	C	10/07/2021	01:51	-134.407	49.626	0	322.10	0	4.6150	0	33.8980	0	26.847	0	319.101	0	69.7	4	22.3	4	-1E+10	1	-1E+10	1	-1E+10	1	-1E+10	1	-1E+10	1	-1E+10	1
4902551	42	C	10/07/2021	01:51	-134.407	49.626	0	322.80	0	4.6100	0	33.8970	0	26.847	0	319.794	0	69.3	4	22.2	4	-1E+10	1	-1E+10	1	-1E+10	1	-1E+10	1	-1E+10	1	-1E+10	1
4902551	42	C	10/07/2021	01:51	-134.407	49.626	0	324.00	0	4.6030	0	33.8980	0	26.849	0	320.982	0	68.8	4	22.0	4	-1E+10	1	-1E+10	1	-1E+10	1	-1E+10	1	-1E+10	1	-1E+10	1
4902551	42	C	10/07/2021	01:51	-134.407	49.626	0	325.20	0	4.5980	0	33.9030	0	26.853	0	322.170	0	68.6	4	21.9	4	-1E+10	1	-1E+10	1	-1E+10	1	-1E+10	1	-1E+10	1	-1E+10	1
4902551	42	C	10/07/2021	01:51	-134.407	49.626	0	326.00	0	4.5940	0	33.9030	0	26.854	0	322.962	0	68.5	4	21.9	4	-1E+10	1	-1E+10	1	-1E+10	1	-1E+10	1	-1E+10	1	-1E+10	1
4902551	42	C	10/07/2021	01:51	-134.407	49.626	0	326.80	0	4.5910	0	33.9040	0	26.855	0	323.753	0	68.4	4	21.9	4	-1E+10	1	-1E+10	1	-1E+10	1	-1E+10	1	-1E+10	1	-1E+10	1
4902551	42	C	10/07/2021	01:51	-134.407	49.626	0	327.90	0	4.5780	0	33.9050	0	26.857	0	324.842	0	68.1	4	21.8	4	-1E+10	1	-1E+10	1	-1E+10	1	-1E+10	1	-1E+10	1	-1E+10	1
4902551	42	C	10/07/2021	01:51	-134.407	49.626	0	329.10	0	4.5650	0	33.9080	0	26.861	0	326.030	0	67.7	4	21.6	4	-1E+10	1	-1E+10	1	-1E+10	1	-1E+10	1	-1E+10	1	-1E+10	1
4902551	42	C	10/07/2021	01:51	-134.407	49.626	0	329.90	0	4.5630	0	33.9090	0	26.862	0	326.822	0	67.6	4	21.6	4	-1E+10	1	-1E+10	1	-1E+10	1	-1E+10	1	-1E+10	1	-1E+10	1
4902551	42	C	10/07/2021	01:51	-134.407	49.626	0	330.70	0	4.5570	0	33.9110	0	26.864	0	327.614	0	67.5	4	21.5	4	-1E+10	1	-1E+10	1	-1E+10	1	-1E+10	1	-1E+10	1	-1E+10	1
4902551	42	C	10/07/2021	01:51	-134.407	49.626	0	331.90	0	4.5440	0	33.9150	0	26.869	0	328.802	0	67.2	4	21.5	4	-1E+10	1	-1E+10	1	-1E+10	1	-1E+10	1	-1E+10	1	-1E+10	1
4902551	42	C	10/07/2021	01:51	-134.407	49.626	0	333.10	0	4.5410	0	33.9160	0	26.870	0	329.990	0	66.9	4	21.3	4	-1E+10	1	-1E+10	1	-1E+10	1	-1E+10	1	-1E+10	1	-1E+10	1
4902551	42	C	10/07/2021	01:51	-134.407	49.626	0	333.80	0	4.5410	0	33.9160	0	26.870	0	330.683	0	66.7	4	21.3	4	-1E+10	1	-1E+10	1	-1E+10	1	-1E+10	1	-1E+10	1	-1E+10	1
4902551	42	C	10/07/2021	01:51	-134.407	49.626	0	334.70	0	4.5400	0	33.9160	0	26.870	0	331.573	0	66.4	4	21.2	4	-1E+10	1	-1E+10	1	-1E+10	1	-1E+10	1	-1E+10	1	-1E+10	1
4902551	42	C	10/07/2021	01:51	-134.407	49.626	0	335.90	0	4.5390	0	33.9160	0	26.870	0	332.761	0	66.0	4	21.1	4	-1E+10	1	-1E+10	1	-1E+10	1	-1E+10	1	-1E+10	1	-1E+10	1
4902551	42	C	10/07/2021	01:51	-134.407	49.626	0	337.00	0	4.5340	0	33.9180	0	26.872	0	333.850	0	65.6	4	20.9	4	-1E+10	1	-1E+10	1	-1E+10	1	-1E+10	1	-1E+10	1	-1E+10	1
4902551	42	C	10/07/2021	01:51	-134.407	49.626	0	337.80	0	4.5340	0	33.9180	0	26.872	0	334.642	0	65.4	4	20.9	4	-1E+10	1	-1E+10	1	-1E+10	1	-1E+10	1	-1E+10	1	-1E+10	1
4902551	42	C	10/07/2021	01:51	-134.407	49.626	0	339.00	0	4.5290	0	33.9200	0	26.874	0	335.830	0	65.1	4	20.8	4	-1E+10	1	-1E+10	1	-1E+10	1	-1E+10	1	-1E+10	1	-1E+10	1
4902551	42	C	10/07/2021	01:51	-134.407	49.626	0	340.30	0	4.5270	0	33.9210	0	26.875	0	337.117	0	64.8	4	20.7	4	-1E+10	1	-1E+10	1	-1E+10	1	-1E+10	1	-1E+10	1	-1E+10	1
4902551	42	C	10/07/2021	01:51	-134.407	49.626	0	341.10	0	4.5240	0	33.9230	0	26.877	0	337.908	0	64.6	4	20.6	4	-1E+10	1	-1E+10	1	-1E+10	1	-1E+10	1	-1E+10	1	-1E+10	1
4902551	42	C	10/07/2021	01:51	-134.407	49.626	0	341.90	0	4.5240	0	33.9230	0	26.877	0	338.700	0	64.5	4	20.6	4	-1E+10	1	-1E+10	1	-1E+10	1	-1E+10	1	-1E+10	1	-1E+10	1
4902551	42	C	10/07/2021	01:51	-134.407	49.626	0	342.70	0	4.5240	0	33.9240	0	26.878	0	339.492	0	64.4	4	20.5	4	-1E+10	1	-1E+10	1	-1E+10	1	-1E+10	1	-1E+10	1	-1E+10	1
4902551	42	C	10/07/2021	01:51	-134.407	49.626	0	343.90	0	4.5230	0	33.9240	0	26.878	0	340.680	0	64.2	4	20.5	4	-1E+10	1	-1E+10	1	-1E+10	1	-1E+10	1	-1E+10	1	-1E+10	1
4902551	42	C	10/07/2021	01:51	-134.407	49.626	0	345.10	0	4.5210	0	33.9250	0	26.879	0	341.868	0	64.0	4	20.4	4	-1E+10	1	-1E+10	1	-1E+10	1	-1E+10	1	-1E+10	1	-1E+10	1
4902551	42	C	10/07/2021	01:51	-134.407	49.626	0	345.90	0	4.5210	0	33.9250	0	26.879	0	342.660	0	63.8	4	20.4	4	-1E+10	1	-1E+10	1	-1E+10	1	-1E+10	1	-1E+10	1	-1E+10	1
4902551	42	C	10/07/2021	01:51	-134.407	49.626	0	346.70	0	4.5180	0	33.9260	0	26.880	0	343.451	0	63.6	4	20.3	4	-1E+10	1	-1E+10	1	-1E+10	1	-1E+10	1	-1E+10	1	-1E+10	1
4902551	42	C	10/07/2021	01:51	-134.407	49.626	0	348.00	0	4.5160	0	33.9270	0	26.881	0	344.738	0	63.3	4	20.2	4	-1E+10	1	-1E+10	1	-1E+10	1	-1E+10	1	-1E+10	1	-1E+10	1
4902551	42	C	10/07/2021	01:51	-134.407	49.626	0	349.20	0	4.5150	0	33.9270	0	26.881	0	345.926	0	63.0	4	20.1	4	-1E+10	1	-1E+10	1	-1E+10	1	-1E+10	1	-1E+10	1	-1E+10	1
4902551	42	C	10/07/2021	01:51	-134.407	49.626	0	350.10	0	4.5130	0	33.9290	0	26.883	0	346.817	0	62.8	4	20.0	4	-1E+10	1	-1E+10	1	-1E+10	1	-1E+10	1	-1E+10	1	-1E+10	1
4902551	42	C	10/07/2021	01:51	-134.407	49.626	0	352.90	0	4.5020	0	33.9330	0	26.888	0	349.588	0	62.2	4	19.8	4	-1E+10	1	-1E+10	1	-1E+10	1	-1E+10	1	-1E+10	1	-1E+10	1
4902551	42	C	10/07/2021	01:51	-134.407	49.626	0	357.90	0	4.4940	0	33.9380	0	26.892	0	354.537	0	61.1	4	19.5	4	-1E+10	1	-1E+10	1	-1E+10	1	-1E+10	1	-1E+10	1	-1E+10	1
4902551	42	C	10/07/2021	01:51	-134.407	49.626	0	362.90	0	4.4850	0	33.9400	0	26.895	0	359.486	0	60.2	4	19.2	4	-1E+10	1	-1E+10	1	-1E+10	1	-1E+10	1	-1E+10	1	-1E+10	1
4902551	42	C	10/07/2021	01:51	-134.407	49.626	0	368.00	0	4.4760	0	33.9440	0	26.899	0	364.533	0	59.2	4	18.9	4	-1E+10	1	-1E+10	1	-1E+10	1	-1E+10	1	-1E+10	1	-1E+10	1
4902551	42	C	10/07/2021	01:51	-134.407	49.626	0	373.10	0	4.4650	0	33.9500	0	26.905	0	369.581	0	58.4	4	18.6	4	-1E+10	1	-1E+10	1	-1E+10	1	-1E+10	1	-1E+10	1	-1E+10	1
4902551	42	C	10/07/2021	01:51	-134.407	49.626	0	378.10	0	4.4560	0	33.9560	0	26.911	0	374.529	0	57.7	4	18.4	4	-1E+10	1	-1E+10	1	-1E+10	1	-1E+10	1	-1E+10	1	-1E+10	1
4902551	42	C	10/07/2021	01:51	-134.407	49.626	0	382.70	0	4.4480	0	33.9580	0	26.913	0	379.081	0	56.8	4	18.1	4	-1E+10	1	-1E+10	1	-1E+10	1	-1E+10	1	-1E+10	1	-1E+10	1
4902551	42	C	10/07/2021	01:51	-134.407	49.626	0	388.00	0	4.4360	0	33.9620	0	26.918	0	384.326	0	55.8	4	17.8	4	-1E+10	1	-1E+10	1	-1E+10	1	-1E+10	1	-1E+10	1	-1E+10	1
4902551	42	C	10/07/2021	01:51	-134.407	49.626	0	393.30	0	4.4230	0	33.9680	0	26.924	0	389.571	0	54.7	4	17.4	4	-1E+10	1	-1E+10	1	-1E+10	1	-1E+10	1	-1E+10	1	-1E+10	1
4902551	42	C	10/07/2021	01:51	-134.407	49.626	0	398.20	0	4.4130	0	33.9720	0	26.928	0	394.420	0	53.5	4	17.0	4	-1E+10	1	-1E+10	1	-1E+10	1	-1E+10	1	-1E+10	1	-1E+10	1
4902551	42	C	10/07/2021	01:51	-134.407	49.626	0	403.20	0	4.4070	0	33.9730	0	26.930	0	399.368	0	52.5	4	16.7	4	-1E+10	1	-1E+10	1	-1E+10	1	-1E+10	1	-1E+10	1	-1E+10	1
4902551	42	C	10/07/2021	01:51	-134.407	49.626	0	408.30	0	4.3990	0	33.9760	0	26.933	0	404.414	0	51.1	4	16.3	4	-1E+10	1	-1E+10	1	-1E+10	1	-1E+10	1	-1E+10	1	-1E+10	1
4902551	42	C	10/07/2021	01:51	-134.407	49.626	0	413.30	0	4.3760	0	33.9860	0	26.944	0	409.362	0	49.7	4	15.8	4	-1E+10	1	-1E+10	1	-1E+10	1	-1E+10	1	-1E+10	1	-1E+10	1
4902551	42	C	10/07/2021	01:51	-134.407	49.626	0	417.80	0	4.3630	0	33.9910	0	26.949	0	413.814	0	48.9	4	15.5	4	-1E+10	1	-1E+10	1	-1E+10	1	-1E+10	1	-1E+10	1	-1E+10	1
4902551	42	C	10/07/2021	01:51	-134.407	49.626	0	422.80	0	4.3440	0	33.9980	0	26.957	0	418.762	0	48.2	4	15.3	4	-1E+10	1	-1E+10	1	-1E+10	1	-1E+10	1	-1E+10	1	-1E+10	1
4902551	42	C	10/07/2021	01:51	-134.407	49.626	0	428.00	0	4.3320	0	34.0020	0	26.961	0	423.907	0	47.3	4	15.0	4	-1E+10	1	-1E+10	1	-1E+10	1	-1E+10	1	-1E+10	1	-1E+10	1
4902551	42	C	10/07/2021	01:51	-134.407	49.626	0	432.90	0	4.3250	0	34.0050	0	26.964	0	428.755	0	45.8	4	14.5	4	-1E+10	1	-1E+10	1	-1E+10	1	-1E+10	1	-1E+10	1	-1E+10	1
4902551	42	C	10/07/2021	01:51	-134.407	49.626	0	437.80	0	4.3090	0	34.0110	0	26.971	0	433.603	0	43.9	4	13.9	4	-1E+10	1	-1E+10	1	-1E+10	1	-1E+10	1	-1E+10	1	-1E+10	1
4902551	42	C	10/07/2021	01:51	-134.407	49.626	0	442.90	0	4.2860	0	34.0200	0	26.980	0	438.648	0	42.5	4	13.5	4	-1E+10	1	-1E+10	1	-1E+10	1	-1E+10	1	-1E+10	1	-1E+10	1
4902551	42	C	10/07/2021	01:51	-134.407	49.626	0	448.00	0	4.2780	0	34.0240	0	26.984	0	443.694	0	41.9	4	13.3	4	-1E+10	1	-1E+10	1	-1E+10	1	-1E+10	1	-1E+10	1	-1E+10	1
4902551	42	C	10/07/2021	01:51	-134.407	49.626	0	453.20	0	4.2640	0	34.0290	0	26.990	0	448.838	0	41.7	4	13.2	4	-1E+10	1	-1E+10	1	-1E+10	1	-1E+10	1	-1E+10	1	-1E+10	1
4902551	42	C	10/07/2021	01:51	-134.407	49.626	0	458.00	0	4.2550	0	34.0320	0	26.993	0	453.587	0	41.4	4	13.1	4	-1E+10	1	-1E+10	1	-1E+10	1	-1E+10	1	-1E+10	1	-1E+10	1
4902551	42	C	10/07/2021	01:51	-134.407	49.626	0	462.90	0	4.2490	0	34.0340	0	26.996	0	458.434	0	40.7	4	12.9	4	-1E+10	1	-1E+10	1	-1E+10	1	-1E+10	1	-1E+10	1	-1E+10	1
4902551	42	C	10/07/2021	01:51	-134.407	49.626	0	467.80	0	4.2440	0	34.0360	0	26.998	0	463.282	0	39.7	4	12.6	4	-1E+10	1	-1E+10	1	-1E+10	1	-1E+10	1	-1E+10	1	-1E+10	1
4902551	42	C	10/07/2021	01:51	-134.407	49.626	0	472.70	0	4.2380	0	34.0380	0	27.000	0	468.129	0	38.4	4	12.2	4	-1E+10	1	-1E+10	1	-1E+10	1	-1E+10	1	-1E+10	1	-1E+10	1
4902551	42	C	10/07/2021	01:51	-134.407	49.626	0	478.00	0	4.2240	0	34.0430	0	27.005	0	473.371	0	37.4	4	11.9	4	-1E+10	1	-1E+10	1	-1E+10	1	-1E+10	1	-1E+10	1	-1E+10	1
4902551	42	C	10/07/2021	01:51	-134.407	49.626	0	482.80	0	4.2160	0	34.0470	0	27.009	0	478.119	0	36.5	4	11.6	4	-1E+10	1	-1E+10	1	-1E+10	1	-1E+10	1	-1E+10	1	-1E+10	1
4902551	42	C	10/07/2021	01:51	-134.407	49.626	0	487.60	0	4.2090	0	34.0500	0	27.013	0	482.867	0	35.7	4	11.3	4	-1E+10	1	-1E+10	1	-1E+10	1	-1E+10	1	-1E+10	1	-1E+10	1
4902551	42	C	10/07/2021	01:51	-134.407	49.626	0	492.80	0	4.1930	0	34.0550	0	27.018	0	488.011	0	34.8	4	11.0	4	-1E+10	1	-1E+10	1	-1E+10	1	-1E+10	1	-1E+10	1	-1E+10	1
4902551	42	C	10/07/2021	01:51	-134.407	49.626	0	498.00	0	4.1760	0	34.0610	0	27.025	0	493.154	0	34.0	4	10.8	4	-1E+10	1	-1E+10	1	-1E+10	1	-1E+10	1	-1E+10	1	-1E+10	1
4902551	42	C	10/07/2021	01:51	-134.407	49.626	0	503.10	0	4.1510	0	34.0680	0	27.033	0	498.198	0	33.3	4	10.6	4	-1E+10	1	-1E+10	1	-1E+10	1	-1E+10	1	-1E+10	1	-1E+10	1
4902551	42	C	10/07/2021	01:51	-134.407	49.626	0	507.80	0	4.1360	0	34.0730	0	27.039	0	502.847	0	32.8	4	10.4	4	-1E+10	1	-1E+10	1	-1E+10	1	-1E+10	1	-1E+10	1	-1E+10	1
4902551	42	C	10/07/2021	01:51	-134.407	49.626	0	512.70	0	4.1240	0	34.0780	0	27.044	0	507.693	0	32.3	4	10.2	4	-1E+10	1	-1E+10	1	-1E+10	1	-1E+10	1	-1E+10	1	-1E+10	1
4902551	42	C	10/07/2021	01:51	-134.407	49.626	0	517.90	0	4.1140	0	34.0810	0	27.047	0	512.836	0	31.6	4	10.0	4	-1E+10	1	-1E+10	1	-1E+10	1	-1E+10	1	-1E+10	1	-1E+10	1
4902551	42	C	10/07/2021	01:51	-134.407	49.626	0	523.10	0	4.0970	0	34.0860	0	27.053	0	517.978	0	30.8	4	9.7	4	-1E+10	1	-1E+10	1	-1E+10	1	-1E+10	1	-1E+10	1	-1E+10	1
4902551	42	C	10/07/2021	01:51	-134.407	49.626	0	528.10	0	4.0780	0	34.0930	0	27.061	0	522.923	0	30.2	4	9.5	4	-1E+10	1	-1E+10	1	-1E+10	1	-1E+10	1	-1E+10	1	-1E+10	1
4902551	42	C	10/07/2021	01:51	-134.407	49.626	0	533.00	0	4.0610	0	34.0980	0	27.066	0	527.769	0	29.8	4	9.4	4	-1E+10	1	-1E+10	1	-1E+10	1	-1E+10	1	-1E+10	1	-1E+10	1
4902551	42	C	10/07/2021	01:51	-134.407	49.626	0	538.00	0	4.0480	0	34.1030	0	27.072	0	532.714	0	29.3	4	9.3	4	-1E+10	1	-1E+10	1	-1E+10	1	-1E+10	1	-1E+10	1	-1E+10	1
4902551	42	C	10/07/2021	01:51	-134.407	49.626	0	542.70	0	4.0410	0	34.1060	0	27.075	0	537.361	0	29.0	4	9.2	4	-1E+10	1	-1E+10	1	-1E+10	1	-1E+10	1	-1E+10	1	-1E+10	1
4902551	42	C	10/07/2021	01:51	-134.407	49.626	0	547.80	0	4.0360	0	34.1070	0	27.076	0	542.404	0	28.7	4	9.1	4	-1E+10	1	-1E+10	1	-1E+10	1	-1E+10	1	-1E+10	1	-1E+10	1
4902551	42	C	10/07/2021	01:51	-134.407	49.626	0	552.90	0	4.0230	0	34.1110	0	27.081	0	547.448	0	28.2	4	8.9	4	-1E+10	1	-1E+10	1	-1E+10	1	-1E+10	1	-1E+10	1	-1E+10	1
4902551	42	C	10/07/2021	01:51	-134.407	49.626	0	557.60	0	4.0130	0	34.1150	0	27.085	0	552.095	0	27.8	4	8.8	4	-1E+10	1	-1E+10	1	-1E+10	1	-1E+10	1	-1E+10	1	-1E+10	1
4902551	42	C	10/07/2021	01:51	-134.407	49.626	0	562.80	0	3.9930	0	34.1210	0	27.092	0	557.237	0	27.4	4	8.7	4	-1E+10	1	-1E+10	1	-1E+10	1	-1E+10	1	-1E+10	1	-1E+10	1
4902551	42	C	10/07/2021	01:51	-134.407	49.626	0	568.00	0	3.9850	0	34.1240	0	27.095	0	562.378	0	27.1	4	8.5	4	-1E+10	1	-1E+10	1	-1E+10	1	-1E+10	1	-1E+10	1	-1E+10	1
4902551	42	C	10/07/2021	01:51	-134.407	49.626	0	572.80	0	3.9800	0	34.1260	0	27.097	0	567.124	0	26.8	4	8.4	4	-1E+10	1	-1E+10	1	-1E+10	1	-1E+10	1	-1E+10	1	-1E+10	1
4902551	42	C	10/07/2021	01:51	-134.407	49.626	0	577.70	0	3.9760	0	34.1280	0	27.099	0	571.969	0	26.4	4	8.3	4	-1E+10	1	-1E+10	1	-1E+10	1	-1E+10	1	-1E+10	1	-1E+10	1
4902551	42	C	10/07/2021	01:51	-134.407	49.626	0	582.50	0	3.9690	0	34.1300	0	27.102	0	576.715	0	25.9	4	8.2	4	-1E+10	1	-1E+10	1	-1E+10	1	-1E+10	1	-1E+10	1	-1E+10	1
4902551	42	C	10/07/2021	01:51	-134.407	49.626	0	587.50	0	3.9570	0	34.1330	0	27.105	0	581.658	0	25.4	4	8.0	4	-1E+10	1	-1E+10	1	-1E+10	1	-1E+10	1	-1E+10	1	-1E+10	1
4902551	42	C	10/07/2021	01:51	-134.407	49.626	0	592.90	0	3.9460	0	34.1370	0	27.110	0	586.997	0	24.8	4	7.8	4	-1E+10	1	-1E+10	1	-1E+10	1	-1E+10	1	-1E+10	1	-1E+10	1
4902551	42	C	10/07/2021	01:51	-134.407	49.626	0	598.40	0	3.9330	0	34.1410	0	27.114	0	592.434	0	24.1	4	7.6	4	-1E+10	1	-1E+10	1	-1E+10	1	-1E+10	1	-1E+10	1	-1E+10	1
4902551	42	C	10/07/2021	01:51	-134.407	49.626	0	603.40	0	3.9130	0	34.1480	0	27.122	0	597.377	0	23.4	4	7.4	4	-1E+10	1	-1E+10	1	-1E+10	1	-1E+10	1	-1E+10	1	-1E+10	1
4902551	42	C	10/07/2021	01:51	-134.407	49.626	0	608.40	0	3.8990	0	34.1530	0	27.127	0	602.320	0	23.0	4	7.2	4	-1E+10	1	-1E+10	1	-1E+10	1	-1E+10	1	-1E+10	1	-1E+10	1
4902551	42	C	10/07/2021	01:51	-134.407	49.626	0	613.40	0	3.8890	0	34.1560	0	27.131	0	607.263	0	22.5	4	7.1	4	-1E+10	1	-1E+10	1	-1E+10	1	-1E+10	1	-1E+10	1	-1E+10	1
4902551	42	C	10/07/2021	01:51	-134.407	49.626	0	618.40	0	3.8740	0	34.1620	0	27.137	0	612.205	0	22.1	4	7.0	4	-1E+10	1	-1E+10	1	-1E+10	1	-1E+10	1	-1E+10	1	-1E+10	1
4902551	42	C	10/07/2021	01:51	-134.407	49.626	0	623.40	0	3.8610	0	34.1660	0	27.141	0	617.148	0	21.8	4	6.9	4	-1E+10	1	-1E+10	1	-1E+10	1	-1E+10	1	-1E+10	1	-1E+10	1
4902551	42	C	10/07/2021	01:51	-134.407	49.626	0	628.40	0	3.8490	0	34.1700	0	27.146	0	622.090	0	21.6	4	6.8	4	-1E+10	1	-1E+10	1	-1E+10	1	-1E+10	1	-1E+10	1	-1E+10	1
4902551	42	C	10/07/2021	01:51	-134.407	49.626	0	633.40	0	3.8430	0	34.1720	0	27.148	0	627.032	0	21.5	4	6.8	4	-1E+10	1	-1E+10	1	-1E+10	1	-1E+10	1	-1E+10	1	-1E+10	1
4902551	42	C	10/07/2021	01:51	-134.407	49.626	0	638.40	0	3.8410	0	34.1730	0	27.149	0	631.975	0	21.4	4	6.7	4	-1E+10	1	-1E+10	1	-1E+10	1	-1E+10	1	-1E+10	1	-1E+10	1
4902551	42	C	10/07/2021	01:51	-134.407	49.626	0	643.40	0	3.8360	0	34.1740	0	27.150	0	636.917	0	21.2	4	6.7	4	-1E+10	1	-1E+10	1	-1E+10	1	-1E+10	1	-1E+10	1	-1E+10	1
4902551	42	C	10/07/2021	01:51	-134.407	49.626	0	648.40	0	3.8300	0	34.1760	0	27.153	0	641.859	0	21.1	4	6.6	4	-1E+10	1	-1E+10	1	-1E+10	1	-1E+10	1	-1E+10	1	-1E+10	1
4902551	42	C	10/07/2021	01:51	-134.407	49.626	0	653.40	0	3.8160	0	34.1810	0	27.158	0	646.800	0	21.0	4	6.6	4	-1E+10	1	-1E+10	1	-1E+10	1	-1E+10	1	-1E+10	1	-1E+10	1
4902551	42	C	10/07/2021	01:51	-134.407	49.626	0	658.40	0	3.7960	0	34.1840	0	27.162	0	651.742	0	21.1	4	6.6	4	-1E+10	1	-1E+10	1	-1E+10	1	-1E+10	1	-1E+10	1	-1E+10	1
4902551	42	C	10/07/2021	01:51	-134.407	49.626	0	663.40	0	3.7860	0	34.1860	0	27.165	0	656.684	0	20.8	4	6.5	4	-1E+10	1	-1E+10	1	-1E+10	1	-1E+10	1	-1E+10	1	-1E+10	1
4902551	42	C	10/07/2021	01:51	-134.407	49.626	0	668.30	0	3.7740	0	34.1890	0	27.169	0	661.526	0	20.6	4	6.5	4	-1E+10	1	-1E+10	1	-1E+10	1	-1E+10	1	-1E+10	1	-1E+10	1
4902551	42	C	10/07/2021	01:51	-134.407	49.626	0	672.90	0	3.7560	0	34.1940	0	27.175	0	666.072	0	20.5	4	6.4	4	-1E+10	1	-1E+10	1	-1E+10	1	-1E+10	1	-1E+10	1	-1E+10	1
4902551	42	C	10/07/2021	01:51	-134.407	49.626	0	677.50	0	3.7510	0	34.1940	0	27.175	0	670.618	0	20.3	4	6.4	4	-1E+10	1	-1E+10	1	-1E+10	1	-1E+10	1	-1E+10	1	-1E+10	1
4902551	42	C	10/07/2021	01:51	-134.407	49.626	0	682.70	0	3.7380	0	34.1980	0	27.180	0	675.757	0	19.9	4	6.3	4	-1E+10	1	-1E+10	1	-1E+10	1	-1E+10	1	-1E+10	1	-1E+10	1
4902551	42	C	10/07/2021	01:51	-134.407	49.626	0	687.80	0	3.7280	0	34.2010	0	27.183	0	680.797	0	19.6	4	6.2	4	-1E+10	1	-1E+10	1	-1E+10	1	-1E+10	1	-1E+10	1	-1E+10	1
4902551	42	C	10/07/2021	01:51	-134.407	49.626	0	692.70	0	3.7180	0	34.2040	0	27.186	0	685.639	0	19.4	4	6.1	4	-1E+10	1	-1E+10	1	-1E+10	1	-1E+10	1	-1E+10	1	-1E+10	1
4902551	42	C	10/07/2021	01:51	-134.407	49.626	0	697.80	0	3.7100	0	34.2060	0	27.189	0	690.678	0	19.1	4	6.0	4	-1E+10	1	-1E+10	1	-1E+10	1	-1E+10	1	-1E+10	1	-1E+10	1
4902551	42	C	10/07/2021	01:51	-134.407	49.626	0	703.00	0	3.6960	0	34.2100	0	27.193	0	695.817	0	18.7	4	5.9	4	-1E+10	1	-1E+10	1	-1E+10	1	-1E+10	1	-1E+10	1	-1E+10	1
4902551	42	C	10/07/2021	01:51	-134.407	49.626	0	707.80	0	3.6810	0	34.2140	0	27.198	0	700.559	0	18.4	4	5.8	4	-1E+10	1	-1E+10	1	-1E+10	1	-1E+10	1	-1E+10	1	-1E+10	1
4902551	42	C	10/07/2021	01:51	-134.407	49.626	0	712.80	0	3.6610	0	34.2200	0	27.205	0	705.500	0	18.0	4	5.6	4	-1E+10	1	-1E+10	1	-1E+10	1	-1E+10	1	-1E+10	1	-1E+10	1
4902551	42	C	10/07/2021	01:51	-134.407	49.626	0	717.80	0	3.6470	0	34.2240	0	27.209	0	710.440	0	17.7	4	5.6	4	-1E+10	1	-1E+10	1	-1E+10	1	-1E+10	1	-1E+10	1	-1E+10	1
4902551	42	C	10/07/2021	01:51	-134.407	49.626	0	722.90	0	3.6360	0	34.2270	0	27.213	0	715.479	0	17.5	4	5.5	4	-1E+10	1	-1E+10	1	-1E+10	1	-1E+10	1	-1E+10	1	-1E+10	1
4902551	42	C	10/07/2021	01:51	-134.407	49.626	0	728.00	0	3.6310	0	34.2290	0	27.215	0	720.518	0	17.2	4	5.4	4	-1E+10	1	-1E+10	1	-1E+10	1	-1E+10	1	-1E+10	1	-1E+10	1
4902551	42	C	10/07/2021	01:51	-134.407	49.626	0	733.20	0	3.6240	0	34.2320	0	27.218	0	725.656	0	17.0	4	5.3	4	-1E+10	1	-1E+10	1	-1E+10	1	-1E+10	1	-1E+10	1	-1E+10	1
4902551	42	C	10/07/2021	01:51	-134.407	49.626	0	738.00	0	3.6190	0	34.2330	0	27.219	0	730.398	0	16.7	4	5.2	4	-1E+10	1	-1E+10	1	-1E+10	1	-1E+10	1	-1E+10	1	-1E+10	1
4902551	42	C	10/07/2021	01:51	-134.407	49.626	0	742.80	0	3.6090	0	34.2360	0	27.223	0	735.140	0	16.4	4	5.1	4	-1E+10	1	-1E+10	1	-1E+10	1	-1E+10	1	-1E+10	1	-1E+10	1
4902551	42	C	10/07/2021	01:51	-134.407	49.626	0	748.10	0	3.5810	0	34.2440	0	27.232	0	740.376	0	16.2	4	5.1	4	-1E+10	1	-1E+10	1	-1E+10	1	-1E+10	1	-1E+10	1	-1E+10	1
4902551	42	C	10/07/2021	01:51	-134.407	49.626	0	753.20	0	3.5680	0	34.2480	0	27.236	0	745.414	0	16.1	4	5.0	4	-1E+10	1	-1E+10	1	-1E+10	1	-1E+10	1	-1E+10	1	-1E+10	1
4902551	42	C	10/07/2021	01:51	-134.407	49.626	0	757.80	0	3.5510	0	34.2500	0	27.240	0	749.958	0	16.1	4	5.0	4	-1E+10	1	-1E+10	1	-1E+10	1	-1E+10	1	-1E+10	1	-1E+10	1
4902551	42	C	10/07/2021	01:51	-134.407	49.626	0	762.90	0	3.5390	0	34.2520	0	27.243	0	754.996	0	16.0	4	5.0	4	-1E+10	1	-1E+10	1	-1E+10	1	-1E+10	1	-1E+10	1	-1E+10	1
4902551	42	C	10/07/2021	01:51	-134.407	49.626	0	768.00	0	3.5330	0	34.2540	0	27.245	0	760.034	0	15.7	4	4.9	4	-1E+10	1	-1E+10	1	-1E+10	1	-1E+10	1	-1E+10	1	-1E+10	1
4902551	42	C	10/07/2021	01:51	-134.407	49.626	0	772.80	0	3.5170	0	34.2580	0	27.250	0	764.775	0	15.5	4	4.8	4	-1E+10	1	-1E+10	1	-1E+10	1	-1E+10	1	-1E+10	1	-1E+10	1
4902551	42	C	10/07/2021	01:51	-134.407	49.626	0	777.60	0	3.5000	0	34.2620	0	27.254	0	769.517	0	15.3	4	4.8	4	-1E+10	1	-1E+10	1	-1E+10	1	-1E+10	1	-1E+10	1	-1E+10	1
4902551	42	C	10/07/2021	01:51	-134.407	49.626	0	782.90	0	3.4810	0	34.2670	0	27.260	0	774.752	0	15.1	4	4.7	4	-1E+10	1	-1E+10	1	-1E+10	1	-1E+10	1	-1E+10	1	-1E+10	1
4902551	42	C	10/07/2021	01:51	-134.407	49.626	0	788.30	0	3.4640	0	34.2710	0	27.265	0	780.086	0	14.8	4	4.6	4	-1E+10	1	-1E+10	1	-1E+10	1	-1E+10	1	-1E+10	1	-1E+10	1
4902551	42	C	10/07/2021	01:51	-134.407	49.626	0	793.10	0	3.4580	0	34.2730	0	27.267	0	784.827	0	14.6	4	4.5	4	-1E+10	1	-1E+10	1	-1E+10	1	-1E+10	1	-1E+10	1	-1E+10	1
4902551	42	C	10/07/2021	01:51	-134.407	49.626	0	798.00	0	3.4500	0	34.2770	0	27.271	0	789.666	0	14.5	4	4.5	4	-1E+10	1	-1E+10	1	-1E+10	1	-1E+10	1	-1E+10	1	-1E+10	1
4902551	42	C	10/07/2021	01:51	-134.407	49.626	0	803.00	0	3.4430	0	34.2790	0	27.274	0	794.604	0	14.5	4	4.5	4	-1E+10	1	-1E+10	1	-1E+10	1	-1E+10	1	-1E+10	1	-1E+10	1
4902551	42	C	10/07/2021	01:51	-134.407	49.626	0	808.00	0	3.4320	0	34.2800	0	27.275	0	799.543	0	14.6	4	4.5	4	-1E+10	1	-1E+10	1	-1E+10	1	-1E+10	1	-1E+10	1	-1E+10	1
4902551	42	C	10/07/2021	01:51	-134.407	49.626	0	813.00	0	3.4220	0	34.2810	0	27.277	0	804.481	0	14.5	4	4.5	4	-1E+10	1	-1E+10	1	-1E+10	1	-1E+10	1	-1E+10	1	-1E+10	1
4902551	42	C	10/07/2021	01:51	-134.407	49.626	0	818.10	0	3.4060	0	34.2840	0	27.281	0	809.517	0	14.5	4	4.5	4	-1E+10	1	-1E+10	1	-1E+10	1	-1E+10	1	-1E+10	1	-1E+10	1
4902551	42	C	10/07/2021	01:51	-134.407	49.626	0	823.10	0	3.3920	0	34.2870	0	27.285	0	814.455	0	14.4	4	4.5	4	-1E+10	1	-1E+10	1	-1E+10	1	-1E+10	1	-1E+10	1	-1E+10	1
4902551	42	C	10/07/2021	01:51	-134.407	49.626	0	828.10	0	3.3810	0	34.2900	0	27.288	0	819.393	0	14.3	4	4.4	4	-1E+10	1	-1E+10	1	-1E+10	1	-1E+10	1	-1E+10	1	-1E+10	1
4902551	42	C	10/07/2021	01:51	-134.407	49.626	0	833.30	0	3.3740	0	34.2920	0	27.291	0	824.528	0	14.2	4	4.4	4	-1E+10	1	-1E+10	1	-1E+10	1	-1E+10	1	-1E+10	1	-1E+10	1
4902551	42	C	10/07/2021	01:51	-134.407	49.626	0	837.90	0	3.3650	0	34.2930	0	27.292	0	829.070	0	14.1	4	4.4	4	-1E+10	1	-1E+10	1	-1E+10	1	-1E+10	1	-1E+10	1	-1E+10	1
4902551	42	C	10/07/2021	01:51	-134.407	49.626	0	842.90	0	3.3480	0	34.2970	0	27.297	0	834.008	0	14.1	4	4.4	4	-1E+10	1	-1E+10	1	-1E+10	1	-1E+10	1	-1E+10	1	-1E+10	1
4902551	42	C	10/07/2021	01:51	-134.407	49.626	0	847.90	0	3.3380	0	34.3000	0	27.300	0	838.945	0	14.0	4	4.3	4	-1E+10	1	-1E+10	1	-1E+10	1	-1E+10	1	-1E+10	1	-1E+10	1
4902551	42	C	10/07/2021	01:51	-134.407	49.626	0	852.70	0	3.3310	0	34.3010	0	27.302	0	843.685	0	13.8	4	4.3	4	-1E+10	1	-1E+10	1	-1E+10	1	-1E+10	1	-1E+10	1	-1E+10	1
4902551	42	C	10/07/2021	01:51	-134.407	49.626	0	857.90	0	3.3230	0	34.3030	0	27.304	0	848.819	0	13.8	4	4.3	4	-1E+10	1	-1E+10	1	-1E+10	1	-1E+10	1	-1E+10	1	-1E+10	1
4902551	42	C	10/07/2021	01:51	-134.407	49.626	0	863.30	0	3.3170	0	34.3040	0	27.306	0	854.151	0	13.7	4	4.3	4	-1E+10	1	-1E+10	1	-1E+10	1	-1E+10	1	-1E+10	1	-1E+10	1
4902551	42	C	10/07/2021	01:51	-134.407	49.626	0	867.90	0	3.3080	0	34.3060	0	27.308	0	858.693	0	13.6	4	4.2	4	-1E+10	1	-1E+10	1	-1E+10	1	-1E+10	1	-1E+10	1	-1E+10	1
4902551	42	C	10/07/2021	01:51	-134.407	49.626	0	872.70	0	3.3000	0	34.3080	0	27.311	0	863.432	0	13.6	4	4.2	4	-1E+10	1	-1E+10	1	-1E+10	1	-1E+10	1	-1E+10	1	-1E+10	1
4902551	42	C	10/07/2021	01:51	-134.407	49.626	0	877.90	0	3.2880	0	34.3110	0	27.314	0	868.566	0	13.5	4	4.2	4	-1E+10	1	-1E+10	1	-1E+10	1	-1E+10	1	-1E+10	1	-1E+10	1
4902551	42	C	10/07/2021	01:51	-134.407	49.626	0	882.90	0	3.2790	0	34.3130	0	27.317	0	873.502	0	13.5	4	4.2	4	-1E+10	1	-1E+10	1	-1E+10	1	-1E+10	1	-1E+10	1	-1E+10	1
4902551	42	C	10/07/2021	01:51	-134.407	49.626	0	887.90	0	3.2700	0	34.3140	0	27.318	0	878.439	0	13.5	4	4.2	4	-1E+10	1	-1E+10	1	-1E+10	1	-1E+10	1	-1E+10	1	-1E+10	1
4902551	42	C	10/07/2021	01:51	-134.407	49.626	0	893.10	0	3.2590	0	34.3170	0	27.322	0	883.572	0	13.5	4	4.2	4	-1E+10	1	-1E+10	1	-1E+10	1	-1E+10	1	-1E+10	1	-1E+10	1
4902551	42	C	10/07/2021	01:51	-134.407	49.626	0	897.80	0	3.2510	0	34.3190	0	27.324	0	888.212	0	13.5	4	4.2	4	-1E+10	1	-1E+10	1	-1E+10	1	-1E+10	1	-1E+10	1	-1E+10	1
4902551	42	C	10/07/2021	01:51	-134.407	49.626	0	903.00	0	3.2460	0	34.3200	0	27.325	0	893.345	0	13.4	4	4.2	4	-1E+10	1	-1E+10	1	-1E+10	1	-1E+10	1	-1E+10	1	-1E+10	1
4902551	42	C	10/07/2021	01:51	-134.407	49.626	0	908.20	0	3.2330	0	34.3240	0	27.330	0	898.479	0	13.4	4	4.2	4	-1E+10	1	-1E+10	1	-1E+10	1	-1E+10	1	-1E+10	1	-1E+10	1
4902551	42	C	10/07/2021	01:51	-134.407	49.626	0	913.10	0	3.2260	0	34.3250	0	27.331	0	903.316	0	13.4	4	4.1	4	-1E+10	1	-1E+10	1	-1E+10	1	-1E+10	1	-1E+10	1	-1E+10	1
4902551	42	C	10/07/2021	01:51	-134.407	49.626	0	918.00	0	3.2190	0	34.3260	0	27.333	0	908.152	0	13.3	4	4.1	4	-1E+10	1	-1E+10	1	-1E+10	1	-1E+10	1	-1E+10	1	-1E+10	1
4902551	42	C	10/07/2021	01:51	-134.407	49.626	0	922.90	0	3.2140	0	34.3280	0	27.335	0	912.989	0	13.2	4	4.1	4	-1E+10	1	-1E+10	1	-1E+10	1	-1E+10	1	-1E+10	1	-1E+10	1
4902551	42	C	10/07/2021	01:51	-134.407	49.626	0	927.90	0	3.2020	0	34.3300	0	27.338	0	917.925	0	13.2	4	4.1	4	-1E+10	1	-1E+10	1	-1E+10	1	-1E+10	1	-1E+10	1	-1E+10	1
4902551	42	C	10/07/2021	01:51	-134.407	49.626	0	932.90	0	3.1990	0	34.3310	0	27.339	0	922.860	0	13.2	4	4.1	4	-1E+10	1	-1E+10	1	-1E+10	1	-1E+10	1	-1E+10	1	-1E+10	1
4902551	42	C	10/07/2021	01:51	-134.407	49.626	0	938.00	0	3.1970	0	34.3310	0	27.339	0	927.894	0	13.2	4	4.1	4	-1E+10	1	-1E+10	1	-1E+10	1	-1E+10	1	-1E+10	1	-1E+10	1
4902551	42	C	10/07/2021	01:51	-134.407	49.626	0	943.10	0	3.1910	0	34.3330	0	27.341	0	932.927	0	13.2	4	4.1	4	-1E+10	1	-1E+10	1	-1E+10	1	-1E+10	1	-1E+10	1	-1E+10	1
4902551	42	C	10/07/2021	01:51	-134.407	49.626	0	948.20	0	3.1790	0	34.3360	0	27.345	0	937.961	0	13.1	4	4.1	4	-1E+10	1	-1E+10	1	-1E+10	1	-1E+10	1	-1E+10	1	-1E+10	1
4902551	42	C	10/07/2021	01:51	-134.407	49.626	0	953.30	0	3.1740	0	34.3370	0	27.346	0	942.994	0	13.1	4	4.1	4	-1E+10	1	-1E+10	1	-1E+10	1	-1E+10	1	-1E+10	1	-1E+10	1
4902551	42	C	10/07/2021	01:51	-134.407	49.626	0	958.40	0	3.1680	0	34.3390	0	27.348	0	948.028	0	13.1	4	4.0	4	-1E+10	1	-1E+10	1	-1E+10	1	-1E+10	1	-1E+10	1	-1E+10	1
4902551	42	C	10/07/2021	01:51	-134.407	49.626	0	963.40	0	3.1650	0	34.3400	0	27.349	0	952.962	0	13.0	4	4.0	4	-1E+10	1	-1E+10	1	-1E+10	1	-1E+10	1	-1E+10	1	-1E+10	1
4902551	42	C	10/07/2021	01:51	-134.407	49.626	0	968.30	0	3.1550	0	34.3420	0	27.352	0	957.798	0	13.0	4	4.0	4	-1E+10	1	-1E+10	1	-1E+10	1	-1E+10	1	-1E+10	1	-1E+10	1
4902551	42	C	10/07/2021	01:51	-134.407	49.626	0	973.20	0	3.1500	0	34.3430	0	27.353	0	962.633	0	12.9	4	4.0	4	-1E+10	1	-1E+10	1	-1E+10	1	-1E+10	1	-1E+10	1	-1E+10	1
4902551	42	C	10/07/2021	01:51	-134.407	49.626	0	978.00	0	3.1420	0	34.3450	0	27.355	0	967.370	0	12.9	4	4.0	4	-1E+10	1	-1E+10	1	-1E+10	1	-1E+10	1	-1E+10	1	-1E+10	1
4902551	42	C	10/07/2021	01:51	-134.407	49.626	0	982.80	0	3.1300	0	34.3480	0	27.359	0	972.107	0	12.8	4	4.0	4	-1E+10	1	-1E+10	1	-1E+10	1	-1E+10	1	-1E+10	1	-1E+10	1
4902551	42	C	10/07/2021	01:51	-134.407	49.626	0	987.60	0	3.1090	0	34.3520	0	27.364	0	976.844	0	12.8	4	4.0	4	-1E+10	1	-1E+10	1	-1E+10	1	-1E+10	1	-1E+10	1	-1E+10	1
4902551	42	C	10/07/2021	01:51	-134.407	49.626	0	992.90	0	3.0980	0	34.3550	0	27.368	0	982.073	0	12.8	4	4.0	4	-1E+10	1	-1E+10	1	-1E+10	1	-1E+10	1	-1E+10	1	-1E+10	1
4902551	42	C	10/07/2021	01:51	-134.407	49.626	0	998.20	0	3.0860	0	34.3580	0	27.371	0	987.303	0	12.7	4	3.9	4	-1E+10	1	-1E+10	1	-1E+10	1	-1E+10	1	-1E+10	1	-1E+10	1
4902551	42	C	10/07/2021	01:51	-134.407	49.626	0	1005.60	0	3.0710	0	34.3610	0	27.375	0	994.605	0	12.7	4	3.9	4	-1E+10	1	-1E+10	1	-1E+10	1	-1E+10	1	-1E+10	1	-1E+10	1
4902551	42	C	10/07/2021	01:51	-134.407	49.626	0	1015.50	0	3.0600	0	34.3630	0	27.377	0	1004.373	0	12.7	4	3.9	4	-1E+10	1	-1E+10	1	-1E+10	1	-1E+10	1	-1E+10	1	-1E+10	1
4902551	42	C	10/07/2021	01:51	-134.407	49.626	0	1025.60	0	3.0510	0	34.3660	0	27.381	0	1014.338	0	12.6	4	3.9	4	-1E+10	1	-1E+10	1	-1E+10	1	-1E+10	1	-1E+10	1	-1E+10	1
4902551	42	C	10/07/2021	01:51	-134.407	49.626	0	1036.00	0	3.0310	0	34.3710	0	27.387	0	1024.598	0	12.6	4	3.9	4	-1E+10	1	-1E+10	1	-1E+10	1	-1E+10	1	-1E+10	1	-1E+10	1
4902551	42	C	10/07/2021	01:51	-134.407	49.626	0	1045.40	0	3.0130	0	34.3740	0	27.391	0	1033.872	0	12.6	4	3.9	4	-1E+10	1	-1E+10	1	-1E+10	1	-1E+10	1	-1E+10	1	-1E+10	1
4902551	42	C	10/07/2021	01:51	-134.407	49.626	0	1055.30	0	3.0010	0	34.3770	0	27.394	0	1043.638	0	12.6	4	3.9	4	-1E+10	1	-1E+10	1	-1E+10	1	-1E+10	1	-1E+10	1	-1E+10	1
4902551	42	C	10/07/2021	01:51	-134.407	49.626	0	1065.60	0	2.9920	0	34.3790	0	27.397	0	1053.798	0	12.5	4	3.9	4	-1E+10	1	-1E+10	1	-1E+10	1	-1E+10	1	-1E+10	1	-1E+10	1
4902551	42	C	10/07/2021	01:51	-134.407	49.626	0	1075.50	0	2.9800	0	34.3830	0	27.401	0	1063.563	0	12.5	4	3.9	4	-1E+10	1	-1E+10	1	-1E+10	1	-1E+10	1	-1E+10	1	-1E+10	1
4902551	42	C	10/07/2021	01:51	-134.407	49.626	0	1085.30	0	2.9630	0	34.3860	0	27.405	0	1073.230	0	12.5	4	3.8	4	-1E+10	1	-1E+10	1	-1E+10	1	-1E+10	1	-1E+10	1	-1E+10	1
4902551	42	C	10/07/2021	01:51	-134.407	49.626	0	1095.50	0	2.9500	0	34.3910	0	27.410	0	1083.290	0	12.5	4	3.8	4	-1E+10	1	-1E+10	1	-1E+10	1	-1E+10	1	-1E+10	1	-1E+10	1
4902551	42	C	10/07/2021	01:51	-134.407	49.626	0	1105.50	0	2.9300	0	34.3940	0	27.414	0	1093.152	0	12.5	4	3.9	4	-1E+10	1	-1E+10	1	-1E+10	1	-1E+10	1	-1E+10	1	-1E+10	1
4902551	42	C	10/07/2021	01:51	-134.407	49.626	0	1115.30	0	2.9200	0	34.3960	0	27.417	0	1102.817	0	12.6	4	3.9	4	-1E+10	1	-1E+10	1	-1E+10	1	-1E+10	1	-1E+10	1	-1E+10	1
4902551	42	C	10/07/2021	01:51	-134.407	49.626	0	1125.20	0	2.9090	0	34.3980	0	27.420	0	1112.580	0	12.6	4	3.9	4	-1E+10	1	-1E+10	1	-1E+10	1	-1E+10	1	-1E+10	1	-1E+10	1
4902551	42	C	10/07/2021	01:51	-134.407	49.626	0	1135.40	0	2.8950	0	34.4020	0	27.424	0	1122.638	0	12.6	4	3.9	4	-1E+10	1	-1E+10	1	-1E+10	1	-1E+10	1	-1E+10	1	-1E+10	1
4902551	42	C	10/07/2021	01:51	-134.407	49.626	0	1145.50	0	2.8790	0	34.4050	0	27.428	0	1132.598	0	12.7	4	3.9	4	-1E+10	1	-1E+10	1	-1E+10	1	-1E+10	1	-1E+10	1	-1E+10	1
4902551	42	C	10/07/2021	01:51	-134.407	49.626	0	1155.70	0	2.8590	0	34.4090	0	27.433	0	1142.655	0	12.8	4	3.9	4	-1E+10	1	-1E+10	1	-1E+10	1	-1E+10	1	-1E+10	1	-1E+10	1
4902551	42	C	10/07/2021	01:51	-134.407	49.626	0	1165.40	0	2.8440	0	34.4130	0	27.438	0	1152.219	0	12.9	4	4.0	4	-1E+10	1	-1E+10	1	-1E+10	1	-1E+10	1	-1E+10	1	-1E+10	1
4902551	42	C	10/07/2021	01:51	-134.407	49.626	0	1175.30	0	2.8350	0	34.4150	0	27.440	0	1161.980	0	12.9	4	4.0	4	-1E+10	1	-1E+10	1	-1E+10	1	-1E+10	1	-1E+10	1	-1E+10	1
4902551	42	C	10/07/2021	01:51	-134.407	49.626	0	1185.70	0	2.8220	0	34.4180	0	27.444	0	1172.233	0	13.0	4	4.0	4	-1E+10	1	-1E+10	1	-1E+10	1	-1E+10	1	-1E+10	1	-1E+10	1
4902551	42	C	10/07/2021	01:51	-134.407	49.626	0	1195.50	0	2.8120	0	34.4200	0	27.446	0	1181.894	0	13.2	4	4.0	4	-1E+10	1	-1E+10	1	-1E+10	1	-1E+10	1	-1E+10	1	-1E+10	1
4902551	42	C	10/07/2021	01:51	-134.407	49.626	0	1205.40	0	2.7940	0	34.4240	0	27.451	0	1191.653	0	13.3	4	4.1	4	-1E+10	1	-1E+10	1	-1E+10	1	-1E+10	1	-1E+10	1	-1E+10	1
4902551	42	C	10/07/2021	01:51	-134.407	49.626	0	1215.40	0	2.7840	0	34.4260	0	27.454	0	1201.511	0	13.4	4	4.1	4	-1E+10	1	-1E+10	1	-1E+10	1	-1E+10	1	-1E+10	1	-1E+10	1
4902551	42	C	10/07/2021	01:51	-134.407	49.626	0	1225.50	0	2.7760	0	34.4280	0	27.456	0	1211.466	0	13.4	4	4.1	4	-1E+10	1	-1E+10	1	-1E+10	1	-1E+10	1	-1E+10	1	-1E+10	1
4902551	42	C	10/07/2021	01:51	-134.407	49.626	0	1235.60	0	2.7680	0	34.4290	0	27.457	0	1221.421	0	13.6	4	4.2	4	-1E+10	1	-1E+10	1	-1E+10	1	-1E+10	1	-1E+10	1	-1E+10	1
4902551	42	C	10/07/2021	01:51	-134.407	49.626	0	1245.30	0	2.7550	0	34.4320	0	27.461	0	1230.982	0	13.8	4	4.2	4	-1E+10	1	-1E+10	1	-1E+10	1	-1E+10	1	-1E+10	1	-1E+10	1
4902551	42	C	10/07/2021	01:51	-134.407	49.626	0	1255.40	0	2.7400	0	34.4340	0	27.464	0	1240.936	0	14.0	4	4.3	4	-1E+10	1	-1E+10	1	-1E+10	1	-1E+10	1	-1E+10	1	-1E+10	1
4902551	42	C	10/07/2021	01:51	-134.407	49.626	0	1265.40	0	2.7220	0	34.4380	0	27.469	0	1250.791	0	14.2	4	4.4	4	-1E+10	1	-1E+10	1	-1E+10	1	-1E+10	1	-1E+10	1	-1E+10	1
4902551	42	C	10/07/2021	01:51	-134.407	49.626	0	1275.40	0	2.7030	0	34.4410	0	27.473	0	1260.645	0	14.4	4	4.4	4	-1E+10	1	-1E+10	1	-1E+10	1	-1E+10	1	-1E+10	1	-1E+10	1
4902551	42	C	10/07/2021	01:51	-134.407	49.626	0	1285.30	0	2.6930	0	34.4430	0	27.475	0	1270.401	0	14.6	4	4.5	4	-1E+10	1	-1E+10	1	-1E+10	1	-1E+10	1	-1E+10	1	-1E+10	1
4902551	42	C	10/07/2021	01:51	-134.407	49.626	0	1295.30	0	2.6720	0	34.4470	0	27.481	0	1280.255	0	14.9	4	4.6	4	-1E+10	1	-1E+10	1	-1E+10	1	-1E+10	1	-1E+10	1	-1E+10	1
4902551	42	C	10/07/2021	01:51	-134.407	49.626	0	1305.70	0	2.6550	0	34.4500	0	27.484	0	1290.502	0	15.2	4	4.7	4	-1E+10	1	-1E+10	1	-1E+10	1	-1E+10	1	-1E+10	1	-1E+10	1
4902551	42	C	10/07/2021	01:51	-134.407	49.626	0	1315.60	0	2.6400	0	34.4530	0	27.488	0	1300.256	0	15.4	4	4.7	4	-1E+10	1	-1E+10	1	-1E+10	1	-1E+10	1	-1E+10	1	-1E+10	1
4902551	42	C	10/07/2021	01:51	-134.407	49.626	0	1325.50	0	2.6300	0	34.4550	0	27.491	0	1310.010	0	15.7	4	4.8	4	-1E+10	1	-1E+10	1	-1E+10	1	-1E+10	1	-1E+10	1	-1E+10	1
4902551	42	C	10/07/2021	01:51	-134.407	49.626	0	1335.50	0	2.6170	0	34.4570	0	27.493	0	1319.862	0	16.0	4	4.9	4	-1E+10	1	-1E+10	1	-1E+10	1	-1E+10	1	-1E+10	1	-1E+10	1
4902551	42	C	10/07/2021	01:51	-134.407	49.626	0	1345.10	0	2.5990	0	34.4610	0	27.498	0	1329.319	0	16.5	4	5.0	4	-1E+10	1	-1E+10	1	-1E+10	1	-1E+10	1	-1E+10	1	-1E+10	1
4902551	42	C	10/07/2021	01:51	-134.407	49.626	0	1355.40	0	2.5770	0	34.4650	0	27.503	0	1339.466	0	17.0	4	5.2	4	-1E+10	1	-1E+10	1	-1E+10	1	-1E+10	1	-1E+10	1	-1E+10	1
4902551	42	C	10/07/2021	01:51	-134.407	49.626	0	1365.90	0	2.5660	0	34.4680	0	27.507	0	1349.809	0	17.3	4	5.3	4	-1E+10	1	-1E+10	1	-1E+10	1	-1E+10	1	-1E+10	1	-1E+10	1
4902551	42	C	10/07/2021	01:51	-134.407	49.626	0	1375.40	0	2.5510	0	34.4700	0	27.510	0	1359.166	0	17.7	4	5.4	4	-1E+10	1	-1E+10	1	-1E+10	1	-1E+10	1	-1E+10	1	-1E+10	1
4902551	42	C	10/07/2021	01:51	-134.407	49.626	0	1385.00	0	2.5390	0	34.4730	0	27.513	0	1368.622	0	18.1	4	5.5	4	-1E+10	1	-1E+10	1	-1E+10	1	-1E+10	1	-1E+10	1	-1E+10	1
4902551	42	C	10/07/2021	01:51	-134.407	49.626	0	1395.20	0	2.5200	0	34.4760	0	27.517	0	1378.668	0	18.7	4	5.7	4	-1E+10	1	-1E+10	1	-1E+10	1	-1E+10	1	-1E+10	1	-1E+10	1
4902551	42	C	10/07/2021	01:51	-134.407	49.626	0	1405.50	0	2.5020	0	34.4800	0	27.522	0	1388.812	0	19.0	4	5.8	4	-1E+10	1	-1E+10	1	-1E+10	1	-1E+10	1	-1E+10	1	-1E+10	1
4902551	42	C	10/07/2021	01:51	-134.407	49.626	0	1416.20	0	2.4930	0	34.4810	0	27.524	0	1399.349	0	19.3	4	5.9	4	-1E+10	1	-1E+10	1	-1E+10	1	-1E+10	1	-1E+10	1	-1E+10	1
4902551	42	C	10/07/2021	01:51	-134.407	49.626	0	1425.30	0	2.4850	0	34.4830	0	27.526	0	1408.311	0	19.5	4	6.0	4	-1E+10	1	-1E+10	1	-1E+10	1	-1E+10	1	-1E+10	1	-1E+10	1
4902551	42	C	10/07/2021	01:51	-134.407	49.626	0	1435.30	0	2.4780	0	34.4840	0	27.527	0	1418.158	0	19.8	4	6.0	4	-1E+10	1	-1E+10	1	-1E+10	1	-1E+10	1	-1E+10	1	-1E+10	1
4902551	42	C	10/07/2021	01:51	-134.407	49.626	0	1445.00	0	2.4690	0	34.4850	0	27.529	0	1427.709	0	20.3	4	6.2	4	-1E+10	1	-1E+10	1	-1E+10	1	-1E+10	1	-1E+10	1	-1E+10	1
4902551	42	C	10/07/2021	01:51	-134.407	49.626	0	1455.20	0	2.4530	0	34.4880	0	27.533	0	1437.753	0	20.8	4	6.3	4	-1E+10	1	-1E+10	1	-1E+10	1	-1E+10	1	-1E+10	1	-1E+10	1
4902551	42	C	10/07/2021	01:51	-134.407	49.626	0	1465.60	0	2.4370	0	34.4910	0	27.537	0	1447.992	0	21.3	4	6.5	4	-1E+10	1	-1E+10	1	-1E+10	1	-1E+10	1	-1E+10	1	-1E+10	1
4902551	42	C	10/07/2021	01:51	-134.407	49.626	0	1475.80	0	2.4210	0	34.4940	0	27.540	0	1458.035	0	21.9	4	6.7	4	-1E+10	1	-1E+10	1	-1E+10	1	-1E+10	1	-1E+10	1	-1E+10	1
4902551	42	C	10/07/2021	01:51	-134.407	49.626	0	1485.50	0	2.4040	0	34.4960	0	27.543	0	1467.584	0	22.5	4	6.8	4	-1E+10	1	-1E+10	1	-1E+10	1	-1E+10	1	-1E+10	1	-1E+10	1
4902551	42	C	10/07/2021	01:51	-134.407	49.626	0	1495.20	0	2.3880	0	34.4990	0	27.547	0	1477.133	0	23.0	4	7.0	4	-1E+10	1	-1E+10	1	-1E+10	1	-1E+10	1	-1E+10	1	-1E+10	1
4902551	42	C	10/07/2021	01:51	-134.407	49.626	0	1505.20	0	2.3720	0	34.5020	0	27.551	0	1486.977	0	23.6	4	7.2	4	-1E+10	1	-1E+10	1	-1E+10	1	-1E+10	1	-1E+10	1	-1E+10	1
4902551	42	C	10/07/2021	01:51	-134.407	49.626	0	1515.50	0	2.3600	0	34.5040	0	27.554	0	1497.116	0	23.9	4	7.3	4	-1E+10	1	-1E+10	1	-1E+10	1	-1E+10	1	-1E+10	1	-1E+10	1
4902551	42	C	10/07/2021	01:51	-134.407	49.626	0	1525.30	0	2.3510	0	34.5050	0	27.555	0	1506.762	0	24.4	4	7.4	4	-1E+10	1	-1E+10	1	-1E+10	1	-1E+10	1	-1E+10	1	-1E+10	1
4902551	42	C	10/07/2021	01:51	-134.407	49.626	0	1535.30	0	2.3360	0	34.5070	0	27.558	0	1516.605	0	25.0	4	7.6	4	-1E+10	1	-1E+10	1	-1E+10	1	-1E+10	1	-1E+10	1	-1E+10	1
4902551	42	C	10/07/2021	01:51	-134.407	49.626	0	1545.50	0	2.3250	0	34.5100	0	27.561	0	1526.644	0	25.5	4	7.8	4	-1E+10	1	-1E+10	1	-1E+10	1	-1E+10	1	-1E+10	1	-1E+10	1
4902551	42	C	10/07/2021	01:51	-134.407	49.626	0	1555.10	0	2.3120	0	34.5120	0	27.564	0	1536.092	0	26.1	4	7.9	4	-1E+10	1	-1E+10	1	-1E+10	1	-1E+10	1	-1E+10	1	-1E+10	1
4902551	42	C	10/07/2021	01:51	-134.407	49.626	0	1565.50	0	2.3020	0	34.5140	0	27.567	0	1546.327	0	26.6	4	8.1	4	-1E+10	1	-1E+10	1	-1E+10	1	-1E+10	1	-1E+10	1	-1E+10	1
4902551	42	C	10/07/2021	01:51	-134.407	49.626	0	1575.90	0	2.2890	0	34.5160	0	27.569	0	1556.561	0	27.3	4	8.3	4	-1E+10	1	-1E+10	1	-1E+10	1	-1E+10	1	-1E+10	1	-1E+10	1
4902551	42	C	10/07/2021	01:51	-134.407	49.626	0	1585.70	0	2.2730	0	34.5190	0	27.573	0	1566.205	0	27.9	4	8.5	4	-1E+10	1	-1E+10	1	-1E+10	1	-1E+10	1	-1E+10	1	-1E+10	1
4902551	42	C	10/07/2021	01:51	-134.407	49.626	0	1595.70	0	2.2580	0	34.5210	0	27.576	0	1576.045	0	28.4	4	8.6	4	-1E+10	1	-1E+10	1	-1E+10	1	-1E+10	1	-1E+10	1	-1E+10	1
4902551	42	C	10/07/2021	01:51	-134.407	49.626	0	1605.30	0	2.2490	0	34.5230	0	27.578	0	1585.491	0	28.8	4	8.7	4	-1E+10	1	-1E+10	1	-1E+10	1	-1E+10	1	-1E+10	1	-1E+10	1
4902551	42	C	10/07/2021	01:51	-134.407	49.626	0	1615.60	0	2.2410	0	34.5250	0	27.581	0	1595.625	0	29.3	4	8.9	4	-1E+10	1	-1E+10	1	-1E+10	1	-1E+10	1	-1E+10	1	-1E+10	1
4902551	42	C	10/07/2021	01:51	-134.407	49.626	0	1625.70	0	2.2330	0	34.5260	0	27.582	0	1605.561	0	29.7	4	9.0	4	-1E+10	1	-1E+10	1	-1E+10	1	-1E+10	1	-1E+10	1	-1E+10	1
4902551	42	C	10/07/2021	01:51	-134.407	49.626	0	1635.40	0	2.2220	0	34.5270	0	27.584	0	1615.104	0	30.1	4	9.1	4	-1E+10	1	-1E+10	1	-1E+10	1	-1E+10	1	-1E+10	1	-1E+10	1
4902551	42	C	10/07/2021	01:51	-134.407	49.626	0	1645.00	0	2.2160	0	34.5290	0	27.586	0	1624.548	0	30.5	4	9.3	4	-1E+10	1	-1E+10	1	-1E+10	1	-1E+10	1	-1E+10	1	-1E+10	1
4902551	42	C	10/07/2021	01:51	-134.407	49.626	0	1655.20	0	2.2060	0	34.5300	0	27.588	0	1634.582	0	31.1	4	9.4	4	-1E+10	1	-1E+10	1	-1E+10	1	-1E+10	1	-1E+10	1	-1E+10	1
4902551	42	C	10/07/2021	01:51	-134.407	49.626	0	1665.40	0	2.1950	0	34.5320	0	27.590	0	1644.616	0	31.8	4	9.6	4	-1E+10	1	-1E+10	1	-1E+10	1	-1E+10	1	-1E+10	1	-1E+10	1
4902551	42	C	10/07/2021	01:51	-134.407	49.626	0	1675.70	0	2.1840	0	34.5340	0	27.593	0	1654.747	0	32.3	4	9.8	4	-1E+10	1	-1E+10	1	-1E+10	1	-1E+10	1	-1E+10	1	-1E+10	1
4902551	42	C	10/07/2021	01:51	-134.407	49.626	0	1685.50	0	2.1800	0	34.5350	0	27.594	0	1664.386	0	32.8	4	9.9	4	-1E+10	1	-1E+10	1	-1E+10	1	-1E+10	1	-1E+10	1	-1E+10	1
4902551	42	C	10/07/2021	01:51	-134.407	49.626	0	1695.20	0	2.1700	0	34.5370	0	27.596	0	1673.926	0	33.5	4	10.1	4	-1E+10	1	-1E+10	1	-1E+10	1	-1E+10	1	-1E+10	1	-1E+10	1
4902551	42	C	10/07/2021	01:51	-134.407	49.626	0	1705.50	0	2.1580	0	34.5390	0	27.599	0	1684.056	0	34.1	4	10.3	4	-1E+10	1	-1E+10	1	-1E+10	1	-1E+10	1	-1E+10	1	-1E+10	1
4902551	42	C	10/07/2021	01:51	-134.407	49.626	0	1715.30	0	2.1530	0	34.5410	0	27.601	0	1693.694	0	34.6	4	10.5	4	-1E+10	1	-1E+10	1	-1E+10	1	-1E+10	1	-1E+10	1	-1E+10	1
4902551	42	C	10/07/2021	01:51	-134.407	49.626	0	1725.10	0	2.1430	0	34.5420	0	27.603	0	1703.331	0	35.3	4	10.7	4	-1E+10	1	-1E+10	1	-1E+10	1	-1E+10	1	-1E+10	1	-1E+10	1
4902551	42	C	10/07/2021	01:51	-134.407	49.626	0	1735.50	0	2.1370	0	34.5440	0	27.605	0	1713.558	0	35.8	4	10.8	4	-1E+10	1	-1E+10	1	-1E+10	1	-1E+10	1	-1E+10	1	-1E+10	1
4902551	42	C	10/07/2021	01:51	-134.407	49.626	0	1745.40	0	2.1280	0	34.5460	0	27.607	0	1723.292	0	36.6	4	11.1	4	-1E+10	1	-1E+10	1	-1E+10	1	-1E+10	1	-1E+10	1	-1E+10	1
4902551	42	C	10/07/2021	01:51	-134.407	49.626	0	1755.30	0	2.1190	0	34.5480	0	27.609	0	1733.027	0	37.3	4	11.3	4	-1E+10	1	-1E+10	1	-1E+10	1	-1E+10	1	-1E+10	1	-1E+10	1
4902551	42	C	10/07/2021	01:51	-134.407	49.626	0	1765.60	0	2.1130	0	34.5490	0	27.611	0	1743.154	0	37.9	4	11.5	4	-1E+10	1	-1E+10	1	-1E+10	1	-1E+10	1	-1E+10	1	-1E+10	1
4902551	42	C	10/07/2021	01:51	-134.407	49.626	0	1775.50	0	2.1010	0	34.5510	0	27.613	0	1752.887	0	38.8	4	11.7	4	-1E+10	1	-1E+10	1	-1E+10	1	-1E+10	1	-1E+10	1	-1E+10	1
4902551	42	C	10/07/2021	01:51	-134.407	49.626	0	1785.40	0	2.0870	0	34.5540	0	27.617	0	1762.620	0	39.6	4	12.0	4	-1E+10	1	-1E+10	1	-1E+10	1	-1E+10	1	-1E+10	1	-1E+10	1
4902551	42	C	10/07/2021	01:51	-134.407	49.626	0	1795.30	0	2.0810	0	34.5550	0	27.618	0	1772.352	0	40.2	4	12.2	4	-1E+10	1	-1E+10	1	-1E+10	1	-1E+10	1	-1E+10	1	-1E+10	1
4902551	42	C	10/07/2021	01:51	-134.407	49.626	0	1805.40	0	2.0710	0	34.5570	0	27.621	0	1782.281	0	41.0	4	12.4	4	-1E+10	1	-1E+10	1	-1E+10	1	-1E+10	1	-1E+10	1	-1E+10	1
4902551	42	C	10/07/2021	01:51	-134.407	49.626	0	1815.50	0	2.0600	0	34.5590	0	27.623	0	1792.209	0	41.6	4	12.5	4	-1E+10	1	-1E+10	1	-1E+10	1	-1E+10	1	-1E+10	1	-1E+10	1
4902551	42	C	10/07/2021	01:51	-134.407	49.626	0	1825.40	0	2.0570	0	34.5600	0	27.624	0	1801.940	0	41.9	4	12.6	4	-1E+10	1	-1E+10	1	-1E+10	1	-1E+10	1	-1E+10	1	-1E+10	1
4902551	42	C	10/07/2021	01:51	-134.407	49.626	0	1835.50	0	2.0540	0	34.5600	0	27.625	0	1811.867	0	42.3	4	12.8	4	-1E+10	1	-1E+10	1	-1E+10	1	-1E+10	1	-1E+10	1	-1E+10	1
4902551	42	C	10/07/2021	01:51	-134.407	49.626	0	1845.70	0	2.0450	0	34.5620	0	27.627	0	1821.892	0	43.1	4	13.0	4	-1E+10	1	-1E+10	1	-1E+10	1	-1E+10	1	-1E+10	1	-1E+10	1
4902551	42	C	10/07/2021	01:51	-134.407	49.626	0	1855.50	0	2.0350	0	34.5640	0	27.629	0	1831.523	0	43.7	4	13.2	4	-1E+10	1	-1E+10	1	-1E+10	1	-1E+10	1	-1E+10	1	-1E+10	1
4902551	42	C	10/07/2021	01:51	-134.407	49.626	0	1865.50	0	2.0250	0	34.5660	0	27.632	0	1841.351	0	44.2	4	13.3	4	-1E+10	1	-1E+10	1	-1E+10	1	-1E+10	1	-1E+10	1	-1E+10	1
4902551	42	C	10/07/2021	01:51	-134.407	49.626	0	1875.80	0	2.0220	0	34.5660	0	27.632	0	1851.473	0	44.5	4	13.4	4	-1E+10	1	-1E+10	1	-1E+10	1	-1E+10	1	-1E+10	1	-1E+10	1
4902551	42	C	10/07/2021	01:51	-134.407	49.626	0	1885.40	0	2.0200	0	34.5670	0	27.633	0	1860.906	0	45.0	4	13.6	4	-1E+10	1	-1E+10	1	-1E+10	1	-1E+10	1	-1E+10	1	-1E+10	1
4902551	42	C	10/07/2021	01:51	-134.407	49.626	0	1895.20	0	2.0130	0	34.5690	0	27.635	0	1870.536	0	45.8	4	13.8	4	-1E+10	1	-1E+10	1	-1E+10	1	-1E+10	1	-1E+10	1	-1E+10	1
4902551	42	C	10/07/2021	01:51	-134.407	49.626	0	1905.40	0	2.0050	0	34.5710	0	27.638	0	1880.558	0	46.6	4	14.0	4	-1E+10	1	-1E+10	1	-1E+10	1	-1E+10	1	-1E+10	1	-1E+10	1
4902551	42	C	10/07/2021	01:51	-134.407	49.626	0	1915.50	0	2.0000	0	34.5720	0	27.639	0	1890.482	0	47.1	4	14.2	4	-1E+10	1	-1E+10	1	-1E+10	1	-1E+10	1	-1E+10	1	-1E+10	1
4902551	42	C	10/07/2021	01:51	-134.407	49.626	0	1925.20	0	1.9940	0	34.5740	0	27.641	0	1900.012	0	47.4	4	14.3	4	-1E+10	1	-1E+10	1	-1E+10	1	-1E+10	1	-1E+10	1	-1E+10	1
4902551	42	C	10/07/2021	01:51	-134.407	49.626	0	1935.40	0	1.9930	0	34.5740	0	27.641	0	1910.033	0	47.7	4	14.4	4	-1E+10	1	-1E+10	1	-1E+10	1	-1E+10	1	-1E+10	1	-1E+10	1
4902551	42	C	10/07/2021	01:51	-134.407	49.626	0	1945.40	0	1.9900	0	34.5740	0	27.641	0	1919.856	0	48.2	4	14.5	4	-1E+10	1	-1E+10	1	-1E+10	1	-1E+10	1	-1E+10	1	-1E+10	1
4902551	42	C	10/07/2021	01:51	-134.407	49.626	0	1955.50	0	1.9840	0	34.5760	0	27.644	0	1929.778	0	49.0	4	14.8	4	-1E+10	1	-1E+10	1	-1E+10	1	-1E+10	1	-1E+10	1	-1E+10	1
4902551	42	C	10/07/2021	01:51	-134.407	49.626	0	1965.30	0	1.9730	0	34.5780	0	27.646	0	1939.405	0	49.8	4	15.0	4	-1E+10	1	-1E+10	1	-1E+10	1	-1E+10	1	-1E+10	1	-1E+10	1
4902551	42	C	10/07/2021	01:51	-134.407	49.626	0	1975.50	0	1.9660	0	34.5790	0	27.647	0	1949.424	0	50.4	4	15.2	4	-1E+10	1	-1E+10	1	-1E+10	1	-1E+10	1	-1E+10	1	-1E+10	1
4902551	42	C	10/07/2021	01:51	-134.407	49.626	0	1985.50	0	1.9590	0	34.5810	0	27.650	0	1959.246	0	51.1	4	15.4	4	-1E+10	1	-1E+10	1	-1E+10	1	-1E+10	1	-1E+10	1	-1E+10	1
4902551	42	C	10/07/2021	01:51	-134.407	49.626	0	1995.50	0	1.9480	0	34.5830	0	27.652	0	1969.067	0	51.8	4	15.6	4	-1E+10	1	-1E+10	1	-1E+10	1	-1E+10	1	-1E+10	1	-1E+10	1
4902551	42	C	10/07/2021	01:51	-134.407	49.626	0	2005.60	0	1.9420	0	34.5840	0	27.654	0	1978.986	0	52.2	4	15.7	4	-1E+10	1	-1E+10	1	-1E+10	1	-1E+10	1	-1E+10	1	-1E+10	1
4902551	42	C	10/07/2021	01:51	-134.407	49.626	0	2015.10	0	1.9370	0	34.5850	0	27.655	0	1988.316	0	52.7	4	15.9	4	-1E+10	1	-1E+10	1	-1E+10	1	-1E+10	1	-1E+10	1	-1E+10	1
4902551	42	C	10/07/2021	01:51	-134.407	49.626	0	2025.60	0	1.9290	0	34.5860	0	27.656	0	1998.627	0	53.1	4	16.0	4	-1E+10	1	-1E+10	1	-1E+10	1	-1E+10	1	-1E+10	1	-1E+10	1
4902551	42	C	10/07/2021	01:51	-134.407	49.626	0	2033.90	0	1.9240	0	34.5870	0	27.657	0	2006.778	0	53.3	4	16.0	4	-1E+10	1	-1E+10	1	-1E+10	1	-1E+10	1	-1E+10	1	-1E+10	1
4902551	42	C	10/07/2021	01:51	-134.407	49.626	0																										
4902551	43	C	10/17/2021	07:05	-134.301	49.667	0	0.20	0	12.0850	0	32.1740	0	24.380	0	0.198	0	255.3	4	95.2	4	-1E+10	1	-1E+10	1	-1E+10	1	-1E+10	1	-1E+10	1	-1E+10	1
4902551	43	C	10/17/2021	07:05	-134.301	49.667	0	0.90	0	12.0880	0	32.1730	0	24.378	0	0.892	0	255.2	4	95.2	4	-1E+10	1	-1E+10	1	-1E+10	1	-1E+10	1	-1E+10	1	-1E+10	1
4902551	43	C	10/17/2021	07:05	-134.301	49.667	0	2.00	0	12.0970	0	32.1660	0	24.371	0	1.983	0	255.3	4	95.2	4	-1E+10	1	-1E+10	1	-1E+10	1	-1E+10	1	-1E+10	1	-1E+10	1
4902551	43	C	10/17/2021	07:05	-134.301	49.667	0	3.00	0	12.0970	0	32.1670	0	24.372	0	2.974	0	255.2	4	95.2	4	-1E+10	1	-1E+10	1	-1E+10	1	-1E+10	1	-1E+10	1	-1E+10	1
4902551	43	C	10/17/2021	07:05	-134.301	49.667	0	3.90	0	12.0980	0	32.1670	0	24.372	0	3.867	0	255.2	4	95.2	4	-1E+10	1	-1E+10	1	-1E+10	1	-1E+10	1	-1E+10	1	-1E+10	1
4902551	43	C	10/17/2021	07:05	-134.301	49.667	0	4.80	0	12.0990	0	32.1670	0	24.372	0	4.759	0	255.2	4	95.2	4	-1E+10	1	-1E+10	1	-1E+10	1	-1E+10	1	-1E+10	1	-1E+10	1
4902551	43	C	10/17/2021	07:05	-134.301	49.667	0	5.80	0	12.0990	0	32.1680	0	24.373	0	5.750	0	255.2	4	95.2	4	-1E+10	1	-1E+10	1	-1E+10	1	-1E+10	1	-1E+10	1	-1E+10	1
4902551	43	C	10/17/2021	07:05	-134.301	49.667	0	6.80	0	12.0990	0	32.1670	0	24.372	0	6.742	0	255.2	4	95.2	4	-1E+10	1	-1E+10	1	-1E+10	1	-1E+10	1	-1E+10	1	-1E+10	1
4902551	43	C	10/17/2021	07:05	-134.301	49.667	0	7.80	0	12.1000	0	32.1670	0	24.372	0	7.733	0	255.1	4	95.2	4	-1E+10	1	-1E+10	1	-1E+10	1	-1E+10	1	-1E+10	1	-1E+10	1
4902551	43	C	10/17/2021	07:05	-134.301	49.667	0	8.80	0	12.0990	0	32.1670	0	24.372	0	8.725	0	255.1	4	95.2	4	-1E+10	1	-1E+10	1	-1E+10	1	-1E+10	1	-1E+10	1	-1E+10	1
4902551	43	C	10/17/2021	07:05	-134.301	49.667	0	9.90	0	12.0990	0	32.1670	0	24.372	0	9.815	0	255.1	4	95.2	4	-1E+10	1	-1E+10	1	-1E+10	1	-1E+10	1	-1E+10	1	-1E+10	1
4902551	43	C	10/17/2021	07:05	-134.301	49.667	0	10.90	0	12.0990	0	32.1670	0	24.372	0	10.807	0	255.2	4	95.2	4	-1E+10	1	-1E+10	1	-1E+10	1	-1E+10	1	-1E+10	1	-1E+10	1
4902551	43	C	10/17/2021	07:05	-134.301	49.667	0	12.00	0	12.0990	0	32.1670	0	24.372	0	11.897	0	255.1	4	95.2	4	-1E+10	1	-1E+10	1	-1E+10	1	-1E+10	1	-1E+10	1	-1E+10	1
4902551	43	C	10/17/2021	07:05	-134.301	49.667	0	13.00	0	12.0990	0	32.1670	0	24.372	0	12.889	0	255.1	4	95.2	4	-1E+10	1	-1E+10	1	-1E+10	1	-1E+10	1	-1E+10	1	-1E+10	1
4902551	43	C	10/17/2021	07:05	-134.301	49.667	0	14.00	0	12.0990	0	32.1670	0	24.372	0	13.880	0	255.1	4	95.2	4	-1E+10	1	-1E+10	1	-1E+10	1	-1E+10	1	-1E+10	1	-1E+10	1
4902551	43	C	10/17/2021	07:05	-134.301	49.667	0	15.00	0	12.1000	0	32.1670	0	24.372	0	14.871	0	255.1	4	95.2	4	-1E+10	1	-1E+10	1	-1E+10	1	-1E+10	1	-1E+10	1	-1E+10	1
4902551	43	C	10/17/2021	07:05	-134.301	49.667	0	16.00	0	12.1000	0	32.1680	0	24.373	0	15.863	0	255.1	4	95.2	4	-1E+10	1	-1E+10	1	-1E+10	1	-1E+10	1	-1E+10	1	-1E+10	1
4902551	43	C	10/17/2021	07:05	-134.301	49.667	0	17.00	0	12.0990	0	32.1670	0	24.372	0	16.854	0	255.1	4	95.2	4	-1E+10	1	-1E+10	1	-1E+10	1	-1E+10	1	-1E+10	1	-1E+10	1
4902551	43	C	10/17/2021	07:05	-134.301	49.667	0	18.10	0	12.1000	0	32.1670	0	24.372	0	17.945	0	255.1	4	95.2	4	-1E+10	1	-1E+10	1	-1E+10	1	-1E+10	1	-1E+10	1	-1E+10	1
4902551	43	C	10/17/2021	07:05	-134.301	49.667	0	18.80	0	12.0990	0	32.1630	0	24.369	0	18.639	0	255.1	4	95.2	4	-1E+10	1	-1E+10	1	-1E+10	1	-1E+10	1	-1E+10	1	-1E+10	1
4902551	43	C	10/17/2021	07:05	-134.301	49.667	0	19.80	0	12.1000	0	32.1670	0	24.372	0	19.630	0	255.1	4	95.2	4	-1E+10	1	-1E+10	1	-1E+10	1	-1E+10	1	-1E+10	1	-1E+10	1
4902551	43	C	10/17/2021	07:05	-134.301	49.667	0	20.90	0	12.1010	0	32.1680	0	24.373	0	20.720	0	255.2	4	95.2	4	-1E+10	1	-1E+10	1	-1E+10	1	-1E+10	1	-1E+10	1	-1E+10	1
4902551	43	C	10/17/2021	07:05	-134.301	49.667	0	22.00	0	12.1010	0	32.1670	0	24.372	0	21.811	0	255.1	4	95.2	4	-1E+10	1	-1E+10	1	-1E+10	1	-1E+10	1	-1E+10	1	-1E+10	1
4902551	43	C	10/17/2021	07:05	-134.301	49.667	0	23.00	0	12.1010	0	32.1670	0	24.372	0	22.802	0	255.1	4	95.2	4	-1E+10	1	-1E+10	1	-1E+10	1	-1E+10	1	-1E+10	1	-1E+10	1
4902551	43	C	10/17/2021	07:05	-134.301	49.667	0	24.00	0	12.1010	0	32.1680	0	24.373	0	23.794	0	255.1	4	95.2	4	-1E+10	1	-1E+10	1	-1E+10	1	-1E+10	1	-1E+10	1	-1E+10	1
4902551	43	C	10/17/2021	07:05	-134.301	49.667	0	25.00	0	12.1010	0	32.1670	0	24.372	0	24.785	0	255.1	4	95.2	4	-1E+10	1	-1E+10	1	-1E+10	1	-1E+10	1	-1E+10	1	-1E+10	1
4902551	43	C	10/17/2021	07:05	-134.301	49.667	0	25.90	0	12.1010	0	32.1670	0	24.372	0	25.677	0	255.0	4	95.2	4	-1E+10	1	-1E+10	1	-1E+10	1	-1E+10	1	-1E+10	1	-1E+10	1
4902551	43	C	10/17/2021	07:05	-134.301	49.667	0	26.90	0	12.1010	0	32.1680	0	24.373	0	26.668	0	255.0	4	95.1	4	-1E+10	1	-1E+10	1	-1E+10	1	-1E+10	1	-1E+10	1	-1E+10	1
4902551	43	C	10/17/2021	07:05	-134.301	49.667	0	27.80	0	12.1010	0	32.1680	0	24.373	0	27.561	0	255.1	4	95.2	4	-1E+10	1	-1E+10	1	-1E+10	1	-1E+10	1	-1E+10	1	-1E+10	1
4902551	43	C	10/17/2021	07:05	-134.301	49.667	0	29.10	0	12.1010	0	32.1680	0	24.373	0	28.849	0	255.0	4	95.2	4	-1E+10	1	-1E+10	1	-1E+10	1	-1E+10	1	-1E+10	1	-1E+10	1
4902551	43	C	10/17/2021	07:05	-134.301	49.667	0	30.00	0	12.1010	0	32.1670	0	24.372	0	29.742	0	255.1	4	95.2	4	-1E+10	1	-1E+10	1	-1E+10	1	-1E+10	1	-1E+10	1	-1E+10	1
4902551	43	C	10/17/2021	07:05	-134.301	49.667	0	31.00	0	12.1020	0	32.1670	0	24.372	0	30.733	0	255.0	4	95.1	4	-1E+10	1	-1E+10	1	-1E+10	1	-1E+10	1	-1E+10	1	-1E+10	1
4902551	43	C	10/17/2021	07:05	-134.301	49.667	0	32.00	0	12.1020	0	32.1670	0	24.372	0	31.724	0	255.1	4	95.2	4	-1E+10	1	-1E+10	1	-1E+10	1	-1E+10	1	-1E+10	1	-1E+10	1
4902551	43	C	10/17/2021	07:05	-134.301	49.667	0	32.90	0	12.1020	0	32.1670	0	24.372	0	32.616	0	255.0	4	95.1	4	-1E+10	1	-1E+10	1	-1E+10	1	-1E+10	1	-1E+10	1	-1E+10	1
4902551	43	C	10/17/2021	07:05	-134.301	49.667	0	34.00	0	12.1020	0	32.1670	0	24.372	0	33.707	0	255.0	4	95.2	4	-1E+10	1	-1E+10	1	-1E+10	1	-1E+10	1	-1E+10	1	-1E+10	1
4902551	43	C	10/17/2021	07:05	-134.301	49.667	0	34.90	0	12.1020	0	32.1680	0	24.373	0	34.599	0	255.0	4	95.2	4	-1E+10	1	-1E+10	1	-1E+10	1	-1E+10	1	-1E+10	1	-1E+10	1
4902551	43	C	10/17/2021	07:05	-134.301	49.667	0	35.90	0	12.1020	0	32.1670	0	24.372	0	35.590	0	255.0	4	95.2	4	-1E+10	1	-1E+10	1	-1E+10	1	-1E+10	1	-1E+10	1	-1E+10	1
4902551	43	C	10/17/2021	07:05	-134.301	49.667	0	36.90	0	12.1020	0	32.1680	0	24.373	0	36.582	0	255.1	4	95.2	4	-1E+10	1	-1E+10	1	-1E+10	1	-1E+10	1	-1E+10	1	-1E+10	1
4902551	43	C	10/17/2021	07:05	-134.301	49.667	0	37.80	0	12.1010	0	32.1680	0	24.373	0	37.474	0	255.0	4	95.2	4	-1E+10	1	-1E+10	1	-1E+10	1	-1E+10	1	-1E+10	1	-1E+10	1
4902551	43	C	10/17/2021	07:05	-134.301	49.667	0	38.70	0	12.1000	0	32.1680	0	24.373	0	38.366	0	255.1	4	95.2	4	-1E+10	1	-1E+10	1	-1E+10	1	-1E+10	1	-1E+10	1	-1E+10	1
4902551	43	C	10/17/2021	07:05	-134.301	49.667	0	39.90	0	12.1000	0	32.1670	0	24.372	0	39.555	0	255.1	4	95.2	4	-1E+10	1	-1E+10	1	-1E+10	1	-1E+10	1	-1E+10	1	-1E+10	1
4902551	43	C	10/17/2021	07:05	-134.301	49.667	0	41.00	0	12.0930	0	32.1700	0	24.376	0	40.646	0	255.2	4	95.2	4	-1E+10	1	-1E+10	1	-1E+10	1	-1E+10	1	-1E+10	1	-1E+10	1
4902551	43	C	10/17/2021	07:05	-134.301	49.667	0	42.00	0	12.0880	0	32.1680	0	24.376	0	41.637	0	255.3	4	95.2	4	-1E+10	1	-1E+10	1	-1E+10	1	-1E+10	1	-1E+10	1	-1E+10	1
4902551	43	C	10/17/2021	07:05	-134.301	49.667	0	43.10	0	12.0750	0	32.1690	0	24.379	0	42.727	0	255.9	4	95.4	4	-1E+10	1	-1E+10	1	-1E+10	1	-1E+10	1	-1E+10	1	-1E+10	1
4902551	43	C	10/17/2021	07:05	-134.301	49.667	0	44.10	0	11.9850	0	32.1690	0	24.396	0	43.719	0	257.7	4	95.9	4	-1E+10	1	-1E+10	1	-1E+10	1	-1E+10	1	-1E+10	1	-1E+10	1
4902551	43	C	10/17/2021	07:05	-134.301	49.667	0	45.00	0	11.6790	0	32.1970	0	24.473	0	44.611	0	259.4	4	96.0	4	-1E+10	1	-1E+10	1	-1E+10	1	-1E+10	1	-1E+10	1	-1E+10	1
4902551	43	C	10/17/2021	07:05	-134.301	49.667	0	45.90	0	11.3380	0	32.2190	0	24.552	0	45.503	0	260.9	4	95.9	4	-1E+10	1	-1E+10	1	-1E+10	1	-1E+10	1	-1E+10	1	-1E+10	1
4902551	43	C	10/17/2021	07:05	-134.301	49.667	0	46.80	0	10.9110	0	32.2600	0	24.660	0	46.395	0	262.5	4	95.6	4	-1E+10	1	-1E+10	1	-1E+10	1	-1E+10	1	-1E+10	1	-1E+10	1
4902551	43	C	10/17/2021	07:05	-134.301	49.667	0	47.90	0	10.5150	0	32.2710	0	24.736	0	47.485	0	264.0	4	95.3	4	-1E+10	1	-1E+10	1	-1E+10	1	-1E+10	1	-1E+10	1	-1E+10	1
4902551	43	C	10/17/2021	07:05	-134.301	49.667	0	49.00	0	10.1730	0	32.2960	0	24.814	0	48.576	0	266.2	4	95.4	4	-1E+10	1	-1E+10	1	-1E+10	1	-1E+10	1	-1E+10	1	-1E+10	1
4902551	43	C	10/17/2021	07:05	-134.301	49.667	0	50.00	0	9.6340	0	32.3200	0	24.921	0	49.567	0	268.4	4	95.1	4	-1E+10	1	-1E+10	1	-1E+10	1	-1E+10	1	-1E+10	1	-1E+10	1
4902551	43	C	10/17/2021	07:05	-134.301	49.667	0	50.90	0	9.1930	0	32.3540	0	25.018	0	50.459	0	269.7	4	94.7	4	-1E+10	1	-1E+10	1	-1E+10	1	-1E+10	1	-1E+10	1	-1E+10	1
4902551	43	C	10/17/2021	07:05	-134.301	49.667	0	52.10	0	8.9960	0	32.3590	0	25.052	0	51.648	0	270.7	4	94.6	4	-1E+10	1	-1E+10	1	-1E+10	1	-1E+10	1	-1E+10	1	-1E+10	1
4902551	43	C	10/17/2021	07:05	-134.301	49.667	0	53.00	0	8.6790	0	32.3800	0	25.117	0	52.540	0	271.8	4	94.4	4	-1E+10	1	-1E+10	1	-1E+10	1	-1E+10	1	-1E+10	1	-1E+10	1
4902551	43	C	10/17/2021	07:05	-134.301	49.667	0	54.00	0	8.1360	0	32.3860	0	25.203	0	53.532	0	272.8	4	93.6	4	-1E+10	1	-1E+10	1	-1E+10	1	-1E+10	1	-1E+10	1	-1E+10	1
4902551	43	C	10/17/2021	07:05	-134.301	49.667	0	55.00	0	7.7530	0	32.4020	0	25.270	0	54.523	0	273.8	4	93.1	4	-1E+10	1	-1E+10	1	-1E+10	1	-1E+10	1	-1E+10	1	-1E+10	1
4902551	43	C	10/17/2021	07:05	-134.301	49.667	0	56.00	0	7.4410	0	32.4200	0	25.328	0	55.514	0	274.6	4	92.7	4	-1E+10	1	-1E+10	1	-1E+10	1	-1E+10	1	-1E+10	1	-1E+10	1
4902551	43	C	10/17/2021	07:05	-134.301	49.667	0	57.00	0	7.2450	0	32.4250	0	25.359	0	56.505	0	274.9	4	92.4	4	-1E+10	1	-1E+10	1	-1E+10	1	-1E+10	1	-1E+10	1	-1E+10	1
4902551	43	C	10/17/2021	07:05	-134.301	49.667	0	57.90	0	7.2040	0	32.4250	0	25.364	0	57.397	0	274.8	4	92.3	4	-1E+10	1	-1E+10	1	-1E+10	1	-1E+10	1	-1E+10	1	-1E+10	1
4902551	43	C	10/17/2021	07:05	-134.301	49.667	0	59.00	0	7.1490	0	32.4270	0	25.373	0	58.488	0	274.8	4	92.2	4	-1E+10	1	-1E+10	1	-1E+10	1	-1E+10	1	-1E+10	1	-1E+10	1
4902551	43	C	10/17/2021	07:05	-134.301	49.667	0	60.10	0	7.1300	0	32.4260	0	25.375	0	59.578	0	274.7	4	92.1	4	-1E+10	1	-1E+10	1	-1E+10	1	-1E+10	1	-1E+10	1	-1E+10	1
4902551	43	C	10/17/2021	07:05	-134.301	49.667	0	61.00	0	7.1220	0	32.4260	0	25.376	0	60.470	0	274.6	4	92.1	4	-1E+10	1	-1E+10	1	-1E+10	1	-1E+10	1	-1E+10	1	-1E+10	1
4902551	43	C	10/17/2021	07:05	-134.301	49.667	0	61.90	0	7.1110	0	32.4280	0	25.379	0	61.362	0	274.4	4	92.0	4	-1E+10	1	-1E+10	1	-1E+10	1	-1E+10	1	-1E+10	1	-1E+10	1
4902551	43	C	10/17/2021	07:05	-134.301	49.667	0	62.90	0	7.0930	0	32.4290	0	25.383	0	62.353	0	274.4	4	92.0	4	-1E+10	1	-1E+10	1	-1E+10	1	-1E+10	1	-1E+10	1	-1E+10	1
4902551	43	C	10/17/2021	07:05	-134.301	49.667	0	64.00	0	7.0690	0	32.4280	0	25.385	0	63.443	0	274.4	4	91.9	4	-1E+10	1	-1E+10	1	-1E+10	1	-1E+10	1	-1E+10	1	-1E+10	1
4902551	43	C	10/17/2021	07:05	-134.301	49.667	0	65.10	0	7.0450	0	32.4300	0	25.390	0	64.534	0	274.3	4	91.8	4	-1E+10	1	-1E+10	1	-1E+10	1	-1E+10	1	-1E+10	1	-1E+10	1
4902551	43	C	10/17/2021	07:05	-134.301	49.667	0	65.90	0	7.0320	0	32.4300	0	25.391	0	65.327	0	274.3	4	91.8	4	-1E+10	1	-1E+10	1	-1E+10	1	-1E+10	1	-1E+10	1	-1E+10	1
4902551	43	C	10/17/2021	07:05	-134.301	49.667	0	67.00	0	7.0120	0	32.4310	0	25.395	0	66.417	0	274.3	4	91.8	4	-1E+10	1	-1E+10	1	-1E+10	1	-1E+10	1	-1E+10	1	-1E+10	1
4902551	43	C	10/17/2021	07:05	-134.301	49.667	0	68.20	0	6.9980	0	32.4300	0	25.396	0	67.606	0	274.4	4	91.8	4	-1E+10	1	-1E+10	1	-1E+10	1	-1E+10	1	-1E+10	1	-1E+10	1
4902551	43	C	10/17/2021	07:05	-134.301	49.667	0	68.90	0	6.9740	0	32.4320	0	25.401	0	68.300	0	274.5	4	91.7	4	-1E+10	1	-1E+10	1	-1E+10	1	-1E+10	1	-1E+10	1	-1E+10	1
4902551	43	C	10/17/2021	07:05	-134.301	49.667	0	70.00	0	6.9190	0	32.4390	0	25.414	0	69.390	0	274.7	4	91.7	4	-1E+10	1	-1E+10	1	-1E+10	1	-1E+10	1	-1E+10	1	-1E+10	1
4902551	43	C	10/17/2021	07:05	-134.301	49.667	0	71.20	0	6.8910	0	32.4370	0	25.416	0	70.580	0	274.8	4	91.7	4	-1E+10	1	-1E+10	1	-1E+10	1	-1E+10	1	-1E+10	1	-1E+10	1
4902551	43	C	10/17/2021	07:05	-134.301	49.667	0	71.90	0	6.8580	0	32.4380	0	25.421	0	71.273	0	274.8	4	91.6	4	-1E+10	1	-1E+10	1	-1E+10	1	-1E+10	1	-1E+10	1	-1E+10	1
4902551	43	C	10/17/2021	07:05	-134.301	49.667	0	72.90	0	6.8310	0	32.4390	0	25.425	0	72.264	0	274.7	4	91.5	4	-1E+10	1	-1E+10	1	-1E+10	1	-1E+10	1	-1E+10	1	-1E+10	1
4902551	43	C	10/17/2021	07:05	-134.301	49.667	0	73.90	0	6.7870	0	32.4410	0	25.433	0	73.256	0	274.7	4	91.4	4	-1E+10	1	-1E+10	1	-1E+10	1	-1E+10	1	-1E+10	1	-1E+10	1
4902551	43	C	10/17/2021	07:05	-134.301	49.667	0	74.90	0	6.7670	0	32.4420	0	25.436	0	74.247	0	274.7	4	91.4	4	-1E+10	1	-1E+10	1	-1E+10	1	-1E+10	1	-1E+10	1	-1E+10	1
4902551	43	C	10/17/2021	07:05	-134.301	49.667	0	76.10	0	6.7250	0	32.4460	0	25.445	0	75.436	0	274.4	4	91.2	4	-1E+10	1	-1E+10	1	-1E+10	1	-1E+10	1	-1E+10	1	-1E+10	1
4902551	43	C	10/17/2021	07:05	-134.301	49.667	0	77.00	0	6.6930	0	32.4450	0	25.448	0	76.328	0	274.2	4	91.0	4	-1E+10	1	-1E+10	1	-1E+10	1	-1E+10	1	-1E+10	1	-1E+10	1
4902551	43	C	10/17/2021	07:05	-134.301	49.667	0	77.90	0	6.6920	0	32.4450	0	25.448	0	77.220	0	273.7	4	90.9	4	-1E+10	1	-1E+10	1	-1E+10	1	-1E+10	1	-1E+10	1	-1E+10	1
4902551	43	C	10/17/2021	07:05	-134.301	49.667	0	78.80	0	6.6900	0	32.4440	0	25.448	0	78.112	0	273.3	4	90.7	4	-1E+10	1	-1E+10	1	-1E+10	1	-1E+10	1	-1E+10	1	-1E+10	1
4902551	43	C	10/17/2021	07:05	-134.301	49.667	0	79.80	0	6.6560	0	32.4450	0	25.453	0	79.103	0	272.9	4	90.5	4	-1E+10	1	-1E+10	1	-1E+10	1	-1E+10	1	-1E+10	1	-1E+10	1
4902551	43	C	10/17/2021	07:05	-134.301	49.667	0	80.90	0	6.5150	0	32.4550	0	25.479	0	80.193	0	273.1	4	90.3	4	-1E+10	1	-1E+10	1	-1E+10	1	-1E+10	1	-1E+10	1	-1E+10	1
4902551	43	C	10/17/2021	07:05	-134.301	49.667	0	82.10	0	6.4600	0	32.4550	0	25.486	0	81.382	0	273.2	4	90.2	4	-1E+10	1	-1E+10	1	-1E+10	1	-1E+10	1	-1E+10	1	-1E+10	1
4902551	43	C	10/17/2021	07:05	-134.301	49.667	0	82.90	0	6.4350	0	32.4590	0	25.492	0	82.175	0	273.2	4	90.2	4	-1E+10	1	-1E+10	1	-1E+10	1	-1E+10	1	-1E+10	1	-1E+10	1
4902551	43	C	10/17/2021	07:05	-134.301	49.667	0	83.90	0	6.3930	0	32.4600	0	25.498	0	83.166	0	273.3	4	90.2	4	-1E+10	1	-1E+10	1	-1E+10	1	-1E+10	1	-1E+10	1	-1E+10	1
4902551	43	C	10/17/2021	07:05	-134.301	49.667	0	85.00	0	6.3620	0	32.4630	0	25.505	0	84.257	0	273.3	4	90.1	4	-1E+10	1	-1E+10	1	-1E+10	1	-1E+10	1	-1E+10	1	-1E+10	1
4902551	43	C	10/17/2021	07:05	-134.301	49.667	0	86.30	0	6.3350	0	32.4660	0	25.510	0	85.545	0	273.4	4	90.0	4	-1E+10	1	-1E+10	1	-1E+10	1	-1E+10	1	-1E+10	1	-1E+10	1
4902551	43	C	10/17/2021	07:05	-134.301	49.667	0	86.90	0	6.3330	0	32.4660	0	25.511	0	86.139	0	273.3	4	90.0	4	-1E+10	1	-1E+10	1	-1E+10	1	-1E+10	1	-1E+10	1	-1E+10	1
4902551	43	C	10/17/2021	07:05	-134.301	49.667	0	88.00	0	6.3300	0	32.4660	0	25.511	0	87.230	0	273.3	4	90.0	4	-1E+10	1	-1E+10	1	-1E+10	1	-1E+10	1	-1E+10	1	-1E+10	1
4902551	43	C	10/17/2021	07:05	-134.301	49.667	0	89.10	0	6.3240	0	32.4660	0	25.512	0	88.320	0	273.4	4	90.1	4	-1E+10	1	-1E+10	1	-1E+10	1	-1E+10	1	-1E+10	1	-1E+10	1
4902551	43	C	10/17/2021	07:05	-134.301	49.667	0	90.20	0	6.3200	0	32.4660	0	25.512	0	89.410	0	273.6	4	90.1	4	-1E+10	1	-1E+10	1	-1E+10	1	-1E+10	1	-1E+10	1	-1E+10	1
4902551	43	C	10/17/2021	07:05	-134.301	49.667	0	90.90	0	6.3140	0	32.4660	0	25.513	0	90.104	0	273.7	4	90.1	4	-1E+10	1	-1E+10	1	-1E+10	1	-1E+10	1	-1E+10	1	-1E+10	1
4902551	43	C	10/17/2021	07:05	-134.301	49.667	0	91.80	0	6.2880	0	32.4670	0	25.517	0	90.996	0	273.8	4	90.1	4	-1E+10	1	-1E+10	1	-1E+10	1	-1E+10	1	-1E+10	1	-1E+10	1
4902551	43	C	10/17/2021	07:05	-134.301	49.667	0	92.80	0	6.2090	0	32.4740	0	25.532	0	91.987	0	274.2	4	90.1	4	-1E+10	1	-1E+10	1	-1E+10	1	-1E+10	1	-1E+10	1	-1E+10	1
4902551	43	C	10/17/2021	07:05	-134.301	49.667	0	94.00	0	6.1770	0	32.4720	0	25.535	0	93.176	0	274.3	4	90.0	4	-1E+10	1	-1E+10	1	-1E+10	1	-1E+10	1	-1E+10	1	-1E+10	1
4902551	43	C	10/17/2021	07:05	-134.301	49.667	0	94.70	0	6.1580	0	32.4730	0	25.538	0	93.869	0	274.3	4	90.0	4	-1E+10	1	-1E+10	1	-1E+10	1	-1E+10	1	-1E+10	1	-1E+10	1
4902551	43	C	10/17/2021	07:05	-134.301	49.667	0	96.00	0	6.1360	0	32.4740	0	25.541	0	95.158	0	274.4	4	90.0	4	-1E+10	1	-1E+10	1	-1E+10	1	-1E+10	1	-1E+10	1	-1E+10	1
4902551	43	C	10/17/2021	07:05	-134.301	49.667	0	96.70	0	6.1130	0	32.4740	0	25.544	0	95.851	0	274.3	4	89.9	4	-1E+10	1	-1E+10	1	-1E+10	1	-1E+10	1	-1E+10	1	-1E+10	1
4902551	43	C	10/17/2021	07:05	-134.301	49.667	0	97.80	0	6.0740	0	32.4750	0	25.550	0	96.942	0	274.4	4	89.8	4	-1E+10	1	-1E+10	1	-1E+10	1	-1E+10	1	-1E+10	1	-1E+10	1
4902551	43	C	10/17/2021	07:05	-134.301	49.667	0	98.80	0	6.0610	0	32.4750	0	25.552	0	97.933	0	274.2	4	89.8	4	-1E+10	1	-1E+10	1	-1E+10	1	-1E+10	1	-1E+10	1	-1E+10	1
4902551	43	C	10/17/2021	07:05	-134.301	49.667	0	99.90	0	6.0400	0	32.4770	0	25.556	0	99.023	0	274.0	4	89.7	4	-1E+10	1	-1E+10	1	-1E+10	1	-1E+10	1	-1E+10	1	-1E+10	1
4902551	43	C	10/17/2021	07:05	-134.301	49.667	0	100.90	0	6.0160	0	32.4780	0	25.559	0	100.014	0	273.7	4	89.5	4	-1E+10	1	-1E+10	1	-1E+10	1	-1E+10	1	-1E+10	1	-1E+10	1
4902551	43	C	10/17/2021	07:05	-134.301	49.667	0	101.90	0	5.9830	0	32.4780	0	25.563	0	101.005	0	273.5	4	89.4	4	-1E+10	1	-1E+10	1	-1E+10	1	-1E+10	1	-1E+10	1	-1E+10	1
4902551	43	C	10/17/2021	07:05	-134.301	49.667	0	102.90	0	5.9710	0	32.4800	0	25.566	0	101.996	0	273.1	4	89.2	4	-1E+10	1	-1E+10	1	-1E+10	1	-1E+10	1	-1E+10	1	-1E+10	1
4902551	43	C	10/17/2021	07:05	-134.301	49.667	0	104.10	0	5.9620	0	32.4820	0	25.569	0	103.185	0	272.4	4	89.0	4	-1E+10	1	-1E+10	1	-1E+10	1	-1E+10	1	-1E+10	1	-1E+10	1
4902551	43	C	10/17/2021	07:05	-134.301	49.667	0	104.80	0	5.9420	0	32.4820	0	25.572	0	103.878	0	272.0	4	88.8	4	-1E+10	1	-1E+10	1	-1E+10	1	-1E+10	1	-1E+10	1	-1E+10	1
4902551	43	C	10/17/2021	07:05	-134.301	49.667	0	105.80	0	5.8960	0	32.4850	0	25.580	0	104.869	0	271.4	4	88.5	4	-1E+10	1	-1E+10	1	-1E+10	1	-1E+10	1	-1E+10	1	-1E+10	1
4902551	43	C	10/17/2021	07:05	-134.301	49.667	0	106.90	0	5.8730	0	32.4870	0	25.584	0	105.959	0	270.5	4	88.2	4	-1E+10	1	-1E+10	1	-1E+10	1	-1E+10	1	-1E+10	1	-1E+10	1
4902551	43	C	10/17/2021	07:05	-134.301	49.667	0	108.10	0	5.8530	0	32.4910	0	25.589	0	107.148	0	269.4	4	87.8	4	-1E+10	1	-1E+10	1	-1E+10	1	-1E+10	1	-1E+10	1	-1E+10	1
4902551	43	C	10/17/2021	07:05	-134.301	49.667	0	109.00	0	5.8270	0	32.4960	0	25.597	0	108.040	0	268.7	4	87.5	4	-1E+10	1	-1E+10	1	-1E+10	1	-1E+10	1	-1E+10	1	-1E+10	1
4902551	43	C	10/17/2021	07:05	-134.301	49.667	0	109.90	0	5.8040	0	32.5020	0	25.604	0	108.932	0	267.6	4	87.1	4	-1E+10	1	-1E+10	1	-1E+10	1	-1E+10	1	-1E+10	1	-1E+10	1
4902551	43	C	10/17/2021	07:05	-134.301	49.667	0	110.90	0	5.7930	0	32.5080	0	25.610	0	109.923	0	266.2	4	86.6	4	-1E+10	1	-1E+10	1	-1E+10	1	-1E+10	1	-1E+10	1	-1E+10	1
4902551	43	C	10/17/2021	07:05	-134.301	49.667	0	112.10	0	5.7900	0	32.5090	0	25.611	0	111.112	0	264.1	4	85.9	4	-1E+10	1	-1E+10	1	-1E+10	1	-1E+10	1	-1E+10	1	-1E+10	1
4902551	43	C	10/17/2021	07:05	-134.301	49.667	0	113.00	0	5.7870	0	32.5110	0	25.613	0	112.004	0	262.1	4	85.3	4	-1E+10	1	-1E+10	1	-1E+10	1	-1E+10	1	-1E+10	1	-1E+10	1
4902551	43	C	10/17/2021	07:05	-134.301	49.667	0	114.30	0	5.7890	0	32.5130	0	25.615	0	113.292	0	258.6	4	84.1	4	-1E+10	1	-1E+10	1	-1E+10	1	-1E+10	1	-1E+10	1	-1E+10	1
4902551	43	C	10/17/2021	07:05	-134.301	49.667	0	115.20	0	5.7790	0	32.5420	0	25.639	0	114.184	0	255.1	4	83.0	4	-1E+10	1	-1E+10	1	-1E+10	1	-1E+10	1	-1E+10	1	-1E+10	1
4902551	43	C	10/17/2021	07:05	-134.301	49.667	0	116.10	0	5.7570	0	32.5510	0	25.648	0	115.076	0	251.9	4	81.9	4	-1E+10	1	-1E+10	1	-1E+10	1	-1E+10	1	-1E+10	1	-1E+10	1
4902551	43	C	10/17/2021	07:05	-134.301	49.667	0	117.10	0	5.7540	0	32.5560	0	25.653	0	116.067	0	245.2	4	79.7	4	-1E+10	1	-1E+10	1	-1E+10	1	-1E+10	1	-1E+10	1	-1E+10	1
4902551	43	C	10/17/2021	07:05	-134.301	49.667	0	118.10	0	5.7780	0	32.5920	0	25.678	0	117.058	0	237.5	4	77.3	4	-1E+10	1	-1E+10	1	-1E+10	1	-1E+10	1	-1E+10	1	-1E+10	1
4902551	43	C	10/17/2021	07:05	-134.301	49.667	0	119.10	0	5.7990	0	32.6430	0	25.716	0	118.048	0	230.6	4	75.1	4	-1E+10	1	-1E+10	1	-1E+10	1	-1E+10	1	-1E+10	1	-1E+10	1
4902551	43	C	10/17/2021	07:05	-134.301	49.667	0	120.00	0	5.8120	0	32.6750	0	25.740	0	118.940	0	225.6	4	73.5	4	-1E+10	1	-1E+10	1	-1E+10	1	-1E+10	1	-1E+10	1	-1E+10	1
4902551	43	C	10/17/2021	07:05	-134.301	49.667	0	121.00	0	5.8290	0	32.7080	0	25.764	0	119.931	0	219.8	4	71.7	4	-1E+10	1	-1E+10	1	-1E+10	1	-1E+10	1	-1E+10	1	-1E+10	1
4902551	43	C	10/17/2021	07:05	-134.301	49.667	0	122.20	0	5.9600	0	32.8130	0	25.831	0	121.120	0	213.4	4	69.8	4	-1E+10	1	-1E+10	1	-1E+10	1	-1E+10	1	-1E+10	1	-1E+10	1
4902551	43	C	10/17/2021	07:05	-134.301	49.667	0	122.90	0	6.0060	0	32.8490	0	25.854	0	121.814	0	209.8	4	68.8	4	-1E+10	1	-1E+10	1	-1E+10	1	-1E+10	1	-1E+10	1	-1E+10	1
4902551	43	C	10/17/2021	07:05	-134.301	49.667	0	124.10	0	6.0570	0	32.8970	0	25.885	0	123.003	0	199.5	4	65.5	4	-1E+10	1	-1E+10	1	-1E+10	1	-1E+10	1	-1E+10	1	-1E+10	1
4902551	43	C	10/17/2021	07:05	-134.301	49.667	0	125.00	0	6.0820	0	32.9670	0	25.938	0	123.895	0	192.6	4	63.3	4	-1E+10	1	-1E+10	1	-1E+10	1	-1E+10	1	-1E+10	1	-1E+10	1
4902551	43	C	10/17/2021	07:05	-134.301	49.667	0	125.90	0	6.0900	0	33.0160	0	25.975	0	124.786	0	187.5	4	61.7	4	-1E+10	1	-1E+10	1	-1E+10	1	-1E+10	1	-1E+10	1	-1E+10	1
4902551	43	C	10/17/2021	07:05	-134.301	49.667	0	126.80	0	6.0980	0	33.0720	0	26.019	0	125.678	0	183.0	4	60.2	4	-1E+10	1	-1E+10	1	-1E+10	1	-1E+10	1	-1E+10	1	-1E+10	1
4902551	43	C	10/17/2021	07:05	-134.301	49.667	0	128.00	0	6.1070	0	33.1350	0	26.067	0	126.867	0	179.8	4	59.2	4	-1E+10	1	-1E+10	1	-1E+10	1	-1E+10	1	-1E+10	1	-1E+10	1
4902551	43	C	10/17/2021	07:05	-134.301	49.667	0	129.00	0	6.1110	0	33.1640	0	26.090	0	127.858	0	177.1	4	58.3	4	-1E+10	1	-1E+10	1	-1E+10	1	-1E+10	1	-1E+10	1	-1E+10	1
4902551	43	C	10/17/2021	07:05	-134.301	49.667	0	129.90	0	6.1140	0	33.1860	0	26.107	0	128.750	0	174.9	4	57.6	4	-1E+10	1	-1E+10	1	-1E+10	1	-1E+10	1	-1E+10	1	-1E+10	1
4902551	43	C	10/17/2021	07:05	-134.301	49.667	0	131.00	0	6.1200	0	33.2620	0	26.166	0	129.840	0	172.9	4	57.0	4	-1E+10	1	-1E+10	1	-1E+10	1	-1E+10	1	-1E+10	1	-1E+10	1
4902551	43	C	10/17/2021	07:05	-134.301	49.667	0	132.10	0	6.1220	0	33.2970	0	26.193	0	130.930	0	171.2	4	56.5	4	-1E+10	1	-1E+10	1	-1E+10	1	-1E+10	1	-1E+10	1	-1E+10	1
4902551	43	C	10/17/2021	07:05	-134.301	49.667	0	132.90	0	6.1220	0	33.3040	0	26.199	0	131.722	0	169.9	4	56.0	4	-1E+10	1	-1E+10	1	-1E+10	1	-1E+10	1	-1E+10	1	-1E+10	1
4902551	43	C	10/17/2021	07:05	-134.301	49.667	0	133.70	0	6.1220	0	33.3040	0	26.199	0	132.515	0	168.2	4	55.5	4	-1E+10	1	-1E+10	1	-1E+10	1	-1E+10	1	-1E+10	1	-1E+10	1
4902551	43	C	10/17/2021	07:05	-134.301	49.667	0	134.70	0	6.1210	0	33.3090	0	26.203	0	133.506	0	165.7	4	54.7	4	-1E+10	1	-1E+10	1	-1E+10	1	-1E+10	1	-1E+10	1	-1E+10	1
4902551	43	C	10/17/2021	07:05	-134.301	49.667	0	135.70	0	6.1210	0	33.3200	0	26.212	0	134.497	0	163.3	4	53.9	4	-1E+10	1	-1E+10	1	-1E+10	1	-1E+10	1	-1E+10	1	-1E+10	1
4902551	43	C	10/17/2021	07:05	-134.301	49.667	0	136.70	0	6.1200	0	33.3630	0	26.246	0	135.487	0	161.0	4	53.1	4	-1E+10	1	-1E+10	1	-1E+10	1	-1E+10	1	-1E+10	1	-1E+10	1
4902551	43	C	10/17/2021	07:05	-134.301	49.667	0	137.80	0	6.1140	0	33.4010	0	26.277	0	136.577	0	158.9	4	52.4	4	-1E+10	1	-1E+10	1	-1E+10	1	-1E+10	1	-1E+10	1	-1E+10	1
4902551	43	C	10/17/2021	07:05	-134.301	49.667	0	139.00	0	6.1110	0	33.4260	0	26.297	0	137.766	0	157.0	4	51.8	4	-1E+10	1	-1E+10	1	-1E+10	1	-1E+10	1	-1E+10	1	-1E+10	1
4902551	43	C	10/17/2021	07:05	-134.301	49.667	0	139.90	0	6.1050	0	33.4540	0	26.320	0	138.658	0	155.9	4	51.5	4	-1E+10	1	-1E+10	1	-1E+10	1	-1E+10	1	-1E+10	1	-1E+10	1
4902551	43	C	10/17/2021	07:05	-134.301	49.667	0	140.80	0	6.1030	0	33.4680	0	26.331	0	139.550	0	154.8	4	51.1	4	-1E+10	1	-1E+10	1	-1E+10	1	-1E+10	1	-1E+10	1	-1E+10	1
4902551	43	C	10/17/2021	07:05	-134.301	49.667	0	141.90	0	6.1030	0	33.4710	0	26.333	0	140.639	0	153.1	4	50.5	4	-1E+10	1	-1E+10	1	-1E+10	1	-1E+10	1	-1E+10	1	-1E+10	1
4902551	43	C	10/17/2021	07:05	-134.301	49.667	0	143.10	0	6.1000	0	33.4860	0	26.346	0	141.828	0	151.3	4	49.9	4	-1E+10	1	-1E+10	1	-1E+10	1	-1E+10	1	-1E+10	1	-1E+10	1
4902551	43	C	10/17/2021	07:05	-134.301	49.667	0	144.00	0	6.0970	0	33.4930	0	26.351	0	142.720	0	149.7	4	49.4	4	-1E+10	1	-1E+10	1	-1E+10	1	-1E+10	1	-1E+10	1	-1E+10	1
4902551	43	C	10/17/2021	07:05	-134.301	49.667	0	144.80	0	6.0950	0	33.4980	0	26.356	0	143.513	0	148.0	4	48.9	4	-1E+10	1	-1E+10	1	-1E+10	1	-1E+10	1	-1E+10	1	-1E+10	1
4902551	43	C	10/17/2021	07:05	-134.301	49.667	0	146.10	0	6.0840	0	33.5290	0	26.382	0	144.801	0	145.9	4	48.2	4	-1E+10	1	-1E+10	1	-1E+10	1	-1E+10	1	-1E+10	1	-1E+10	1
4902551	43	C	10/17/2021	07:05	-134.301	49.667	0	147.10	0	6.0780	0	33.5460	0	26.396	0	145.791	0	144.5	4	47.7	4	-1E+10	1	-1E+10	1	-1E+10	1	-1E+10	1	-1E+10	1	-1E+10	1
4902551	43	C	10/17/2021	07:05	-134.301	49.667	0	148.00	0	6.0740	0	33.5550	0	26.403	0	146.683	0	143.3	4	47.3	4	-1E+10	1	-1E+10	1	-1E+10	1	-1E+10	1	-1E+10	1	-1E+10	1
4902551	43	C	10/17/2021	07:05	-134.301	49.667	0	149.10	0	6.0700	0	33.5650	0	26.412	0	147.773	0	142.0	4	46.9	4	-1E+10	1	-1E+10	1	-1E+10	1	-1E+10	1	-1E+10	1	-1E+10	1
4902551	43	C	10/17/2021	07:05	-134.301	49.667	0	150.10	0	6.0650	0	33.5730	0	26.419	0	148.764	0	140.5	4	46.4	4	-1E+10	1	-1E+10	1	-1E+10	1	-1E+10	1	-1E+10	1	-1E+10	1
4902551	43	C	10/17/2021	07:05	-134.301	49.667	0	151.10	0	6.0640	0	33.5740	0	26.420	0	149.754	0	138.9	4	45.8	4	-1E+10	1	-1E+10	1	-1E+10	1	-1E+10	1	-1E+10	1	-1E+10	1
4902551	43	C	10/17/2021	07:05	-134.301	49.667	0	151.80	0	6.0620	0	33.5770	0	26.422	0	150.448	0	137.8	4	45.5	4	-1E+10	1	-1E+10	1	-1E+10	1	-1E+10	1	-1E+10	1	-1E+10	1
4902551	43	C	10/17/2021	07:05	-134.301	49.667	0	153.00	0	6.0300	0	33.6160	0	26.457	0	151.637	0	136.2	4	44.9	4	-1E+10	1	-1E+10	1	-1E+10	1	-1E+10	1	-1E+10	1	-1E+10	1
4902551	43	C	10/17/2021	07:05	-134.301	49.667	0	154.20	0	6.0280	0	33.6330	0	26.471	0	152.826	0	134.9	4	44.5	4	-1E+10	1	-1E+10	1	-1E+10	1	-1E+10	1	-1E+10	1	-1E+10	1
4902551	43	C	10/17/2021	07:05	-134.301	49.667	0	155.00	0	6.0240	0	33.6430	0	26.479	0	153.618	0	134.0	4	44.2	4	-1E+10	1	-1E+10	1	-1E+10	1	-1E+10	1	-1E+10	1	-1E+10	1
4902551	43	C	10/17/2021	07:05	-134.301	49.667	0	155.80	0	6.0180	0	33.6490	0	26.485	0	154.411	0	133.1	4	43.9	4	-1E+10	1	-1E+10	1	-1E+10	1	-1E+10	1	-1E+10	1	-1E+10	1
4902551	43	C	10/17/2021	07:05	-134.301	49.667	0	157.00	0	6.0110	0	33.6550	0	26.490	0	155.600	0	131.9	4	43.5	4	-1E+10	1	-1E+10	1	-1E+10	1	-1E+10	1	-1E+10	1	-1E+10	1
4902551	43	C	10/17/2021	07:05	-134.301	49.667	0	158.30	0	6.0030	0	33.6620	0	26.497	0	156.888	0	130.6	4	43.1	4	-1E+10	1	-1E+10	1	-1E+10	1	-1E+10	1	-1E+10	1	-1E+10	1
4902551	43	C	10/17/2021	07:05	-134.301	49.667	0	159.10	0	5.9880	0	33.6720	0	26.507	0	157.680	0	129.8	4	42.8	4	-1E+10	1	-1E+10	1	-1E+10	1	-1E+10	1	-1E+10	1	-1E+10	1
4902551	43	C	10/17/2021	07:05	-134.301	49.667	0	159.90	0	5.9580	0	33.6860	0	26.521	0	158.473	0	129.2	4	42.6	4	-1E+10	1	-1E+10	1	-1E+10	1	-1E+10	1	-1E+10	1	-1E+10	1
4902551	43	C	10/17/2021	07:05	-134.301	49.667	0	160.80	0	5.9570	0	33.6870	0	26.522	0	159.364	0	128.6	4	42.4	4	-1E+10	1	-1E+10	1	-1E+10	1	-1E+10	1	-1E+10	1	-1E+10	1
4902551	43	C	10/17/2021	07:05	-134.301	49.667	0	161.60	0	5.9520	0	33.6900	0	26.525	0	160.157	0	127.8	4	42.1	4	-1E+10	1	-1E+10	1	-1E+10	1	-1E+10	1	-1E+10	1	-1E+10	1
4902551	43	C	10/17/2021	07:05	-134.301	49.667	0	162.90	0	5.9340	0	33.7040	0	26.539	0	161.445	0	126.9	4	41.8	4	-1E+10	1	-1E+10	1	-1E+10	1	-1E+10	1	-1E+10	1	-1E+10	1
4902551	43	C	10/17/2021	07:05	-134.301	49.667	0	164.30	0	5.9290	0	33.7070	0	26.542	0	162.832	0	125.9	4	41.5	4	-1E+10	1	-1E+10	1	-1E+10	1	-1E+10	1	-1E+10	1	-1E+10	1
4902551	43	C	10/17/2021	07:05	-134.301	49.667	0	165.20	0	5.9180	0	33.7140	0	26.549	0	163.723	0	125.3	4	41.3	4	-1E+10	1	-1E+10	1	-1E+10	1	-1E+10	1	-1E+10	1	-1E+10	1
4902551	43	C	10/17/2021	07:05	-134.301	49.667	0	166.10	0	5.9070	0	33.7180	0	26.553	0	164.615	0	124.9	4	41.1	4	-1E+10	1	-1E+10	1	-1E+10	1	-1E+10	1	-1E+10	1	-1E+10	1
4902551	43	C	10/17/2021	07:05	-134.301	49.667	0	167.00	0	5.8940	0	33.7230	0	26.559	0	165.506	0	124.5	4	41.0	4	-1E+10	1	-1E+10	1	-1E+10	1	-1E+10	1	-1E+10	1	-1E+10	1
4902551	43	C	10/17/2021	07:05	-134.301	49.667	0	168.00	0	5.8920	0	33.7250	0	26.560	0	166.497	0	124.0	4	40.8	4	-1E+10	1	-1E+10	1	-1E+10	1	-1E+10	1	-1E+10	1	-1E+10	1
4902551	43	C	10/17/2021	07:05	-134.301	49.667	0	168.90	0	5.8870	0	33.7270	0	26.563	0	167.389	0	123.4	4	40.6	4	-1E+10	1	-1E+10	1	-1E+10	1	-1E+10	1	-1E+10	1	-1E+10	1
4902551	43	C	10/17/2021	07:05	-134.301	49.667	0	169.80	0	5.8810	0	33.7300	0	26.566	0	168.280	0	122.8	4	40.4	4	-1E+10	1	-1E+10	1	-1E+10	1	-1E+10	1	-1E+10	1	-1E+10	1
4902551	43	C	10/17/2021	07:05	-134.301	49.667	0	170.80	0	5.8760	0	33.7320	0	26.568	0	169.271	0	122.2	4	40.2	4	-1E+10	1	-1E+10	1	-1E+10	1	-1E+10	1	-1E+10	1	-1E+10	1
4902551	43	C	10/17/2021	07:05	-134.301	49.667	0	171.80	0	5.8730	0	33.7320	0	26.568	0	170.262	0	121.6	4	40.0	4	-1E+10	1	-1E+10	1	-1E+10	1	-1E+10	1	-1E+10	1	-1E+10	1
4902551	43	C	10/17/2021	07:05	-134.301	49.667	0	172.80	0	5.8660	0	33.7340	0	26.571	0	171.252	0	121.0	4	39.8	4	-1E+10	1	-1E+10	1	-1E+10	1	-1E+10	1	-1E+10	1	-1E+10	1
4902551	43	C	10/17/2021	07:05	-134.301	49.667	0	173.80	0	5.8640	0	33.7340	0	26.571	0	172.243	0	120.4	4	39.6	4	-1E+10	1	-1E+10	1	-1E+10	1	-1E+10	1	-1E+10	1	-1E+10	1
4902551	43	C	10/17/2021	07:05	-134.301	49.667	0	174.80	0	5.8610	0	33.7340	0	26.572	0	173.233	0	119.7	4	39.4	4	-1E+10	1	-1E+10	1	-1E+10	1	-1E+10	1	-1E+10	1	-1E+10	1
4902551	43	C	10/17/2021	07:05	-134.301	49.667	0	175.80	0	5.8380	0	33.7400	0	26.579	0	174.224	0	119.0	4	39.1	4	-1E+10	1	-1E+10	1	-1E+10	1	-1E+10	1	-1E+10	1	-1E+10	1
4902551	43	C	10/17/2021	07:05	-134.301	49.667	0	176.90	0	5.8270	0	33.7470	0	26.586	0	175.314	0	118.5	4	38.9	4	-1E+10	1	-1E+10	1	-1E+10	1	-1E+10	1	-1E+10	1	-1E+10	1
4902551	43	C	10/17/2021	07:05	-134.301	49.667	0	177.90	0	5.8110	0	33.7500	0	26.590	0	176.304	0	117.9	4	38.7	4	-1E+10	1	-1E+10	1	-1E+10	1	-1E+10	1	-1E+10	1	-1E+10	1
4902551	43	C	10/17/2021	07:05	-134.301	49.667	0	178.90	0	5.8020	0	33.7490	0	26.591	0	177.295	0	117.3	4	38.5	4	-1E+10	1	-1E+10	1	-1E+10	1	-1E+10	1	-1E+10	1	-1E+10	1
4902551	43	C	10/17/2021	07:05	-134.301	49.667	0	180.00	0	5.7660	0	33.7580	0	26.602	0	178.385	0	117.0	4	38.4	4	-1E+10	1	-1E+10	1	-1E+10	1	-1E+10	1	-1E+10	1	-1E+10	1
4902551	43	C	10/17/2021	07:05	-134.301	49.667	0	181.10	0	5.7530	0	33.7610	0	26.606	0	179.474	0	116.7	4	38.3	4	-1E+10	1	-1E+10	1	-1E+10	1	-1E+10	1	-1E+10	1	-1E+10	1
4902551	43	C	10/17/2021	07:05	-134.301	49.667	0	182.10	0	5.7530	0	33.7610	0	26.606	0	180.465	0	116.3	4	38.2	4	-1E+10	1	-1E+10	1	-1E+10	1	-1E+10	1	-1E+10	1	-1E+10	1
4902551	43	C	10/17/2021	07:05	-134.301	49.667	0	183.10	0	5.7520	0	33.7620	0	26.607	0	181.455	0	115.9	4	38.0	4	-1E+10	1	-1E+10	1	-1E+10	1	-1E+10	1	-1E+10	1	-1E+10	1
4902551	43	C	10/17/2021	07:05	-134.301	49.667	0	184.20	0	5.7510	0	33.7620	0	26.607	0	182.545	0	115.5	4	37.9	4	-1E+10	1	-1E+10	1	-1E+10	1	-1E+10	1	-1E+10	1	-1E+10	1
4902551	43	C	10/17/2021	07:05	-134.301	49.667	0	185.20	0	5.7510	0	33.7620	0	26.607	0	183.536	0	115.1	4	37.8	4	-1E+10	1	-1E+10	1	-1E+10	1	-1E+10	1	-1E+10	1	-1E+10	1
4902551	43	C	10/17/2021	07:05	-134.301	49.667	0	186.30	0	5.7500	0	33.7630	0	26.608	0	184.625	0	114.5	4	37.6	4	-1E+10	1	-1E+10	1	-1E+10	1	-1E+10	1	-1E+10	1	-1E+10	1
4902551	43	C	10/17/2021	07:05	-134.301	49.667	0	187.40	0	5.7440	0	33.7640	0	26.610	0	185.715	0	113.8	4	37.3	4	-1E+10	1	-1E+10	1	-1E+10	1	-1E+10	1	-1E+10	1	-1E+10	1
4902551	43	C	10/17/2021	07:05	-134.301	49.667	0	188.40	0	5.7260	0	33.7710	0	26.617	0	186.705	0	113.2	4	37.1	4	-1E+10	1	-1E+10	1	-1E+10	1	-1E+10	1	-1E+10	1	-1E+10	1
4902551	43	C	10/17/2021	07:05	-134.301	49.667	0	189.50	0	5.7190	0	33.7720	0	26.619	0	187.795	0	112.6	4	36.9	4	-1E+10	1	-1E+10	1	-1E+10	1	-1E+10	1	-1E+10	1	-1E+10	1
4902551	43	C	10/17/2021	07:05	-134.301	49.667	0	190.60	0	5.7120	0	33.7730	0	26.621	0	188.885	0	112.0	4	36.7	4	-1E+10	1	-1E+10	1	-1E+10	1	-1E+10	1	-1E+10	1	-1E+10	1
4902551	43	C	10/17/2021	07:05	-134.301	49.667	0	191.70	0	5.6940	0	33.7760	0	26.625	0	189.974	0	111.5	4	36.5	4	-1E+10	1	-1E+10	1	-1E+10	1	-1E+10	1	-1E+10	1	-1E+10	1
4902551	43	C	10/17/2021	07:05	-134.301	49.667	0	192.80	0	5.6720	0	33.7820	0	26.633	0	191.064	0	111.0	4	36.4	4	-1E+10	1	-1E+10	1	-1E+10	1	-1E+10	1	-1E+10	1	-1E+10	1
4902551	43	C	10/17/2021	07:05	-134.301	49.667	0	193.90	0	5.6600	0	33.7830	0	26.635	0	192.153	0	110.6	4	36.2	4	-1E+10	1	-1E+10	1	-1E+10	1	-1E+10	1	-1E+10	1	-1E+10	1
4902551	43	C	10/17/2021	07:05	-134.301	49.667	0	195.00	0	5.6580	0	33.7830	0	26.635	0	193.243	0	110.3	4	36.1	4	-1E+10	1	-1E+10	1	-1E+10	1	-1E+10	1	-1E+10	1	-1E+10	1
4902551	43	C	10/17/2021	07:05	-134.301	49.667	0	196.10	0	5.6500	0	33.7850	0	26.638	0	194.332	0	109.9	4	36.0	4	-1E+10	1	-1E+10	1	-1E+10	1	-1E+10	1	-1E+10	1	-1E+10	1
4902551	43	C	10/17/2021	07:05	-134.301	49.667	0	197.20	0	5.6420	0	33.7860	0	26.640	0	195.422	0	109.5	4	35.8	4	-1E+10	1	-1E+10	1	-1E+10	1	-1E+10	1	-1E+10	1	-1E+10	1
4902551	43	C	10/17/2021	07:05	-134.301	49.667	0	198.30	0	5.6420	0	33.7850	0	26.639	0	196.512	0	109.0	4	35.7	4	-1E+10	1	-1E+10	1	-1E+10	1	-1E+10	1	-1E+10	1	-1E+10	1
4902551	43	C	10/17/2021	07:05	-134.301	49.667	0	199.40	0	5.6380	0	33.7860	0	26.640	0	197.601	0	108.6	4	35.5	4	-1E+10	1	-1E+10	1	-1E+10	1	-1E+10	1	-1E+10	1	-1E+10	1
4902551	43	C	10/17/2021	07:05	-134.301	49.667	0	200.50	0	5.6150	0	33.7890	0	26.645	0	198.691	0	108.1	4	35.4	4	-1E+10	1	-1E+10	1	-1E+10	1	-1E+10	1	-1E+10	1	-1E+10	1
4902551	43	C	10/17/2021	07:05	-134.301	49.667	0	201.50	0	5.6130	0	33.7890	0	26.645	0	199.681	0	107.7	4	35.2	4	-1E+10	1	-1E+10	1	-1E+10	1	-1E+10	1	-1E+10	1	-1E+10	1
4902551	43	C	10/17/2021	07:05	-134.301	49.667	0	202.60	0	5.6070	0	33.7910	0	26.648	0	200.771	0	107.3	4	35.1	4	-1E+10	1	-1E+10	1	-1E+10	1	-1E+10	1	-1E+10	1	-1E+10	1
4902551	43	C	10/17/2021	07:05	-134.301	49.667	0	203.70	0	5.5980	0	33.7930	0	26.650	0	201.860	0	106.9	4	34.9	4	-1E+10	1	-1E+10	1	-1E+10	1	-1E+10	1	-1E+10	1	-1E+10	1
4902551	43	C	10/17/2021	07:05	-134.301	49.667	0	204.80	0	5.5900	0	33.7940	0	26.652	0	202.950	0	106.5	4	34.8	4	-1E+10	1	-1E+10	1	-1E+10	1	-1E+10	1	-1E+10	1	-1E+10	1
4902551	43	C	10/17/2021	07:05	-134.301	49.667	0	205.80	0	5.5900	0	33.7940	0	26.652	0	203.940	0	106.0	4	34.6	4	-1E+10	1	-1E+10	1	-1E+10	1	-1E+10	1	-1E+10	1	-1E+10	1
4902551	43	C	10/17/2021	07:05	-134.301	49.667	0	206.90	0	5.5890	0	33.7950	0	26.653	0	205.030	0	105.4	4	34.5	4	-1E+10	1	-1E+10	1	-1E+10	1	-1E+10	1	-1E+10	1	-1E+10	1
4902551	43	C	10/17/2021	07:05	-134.301	49.667	0	207.90	0	5.5880	0	33.7940	0	26.652	0	206.020	0	104.9	4	34.3	4	-1E+10	1	-1E+10	1	-1E+10	1	-1E+10	1	-1E+10	1	-1E+10	1
4902551	43	C	10/17/2021	07:05	-134.301	49.667	0	209.00	0	5.5850	0	33.7950	0	26.654	0	207.110	0	104.2	4	34.1	4	-1E+10	1	-1E+10	1	-1E+10	1	-1E+10	1	-1E+10	1	-1E+10	1
4902551	43	C	10/17/2021	07:05	-134.301	49.667	0	210.00	0	5.5650	0	33.8000	0	26.660	0	208.100	0	103.8	4	33.9	4	-1E+10	1	-1E+10	1	-1E+10	1	-1E+10	1	-1E+10	1	-1E+10	1
4902551	43	C	10/17/2021	07:05	-134.301	49.667	0	211.10	0	5.5610	0	33.8010	0	26.661	0	209.190	0	103.3	4	33.7	4	-1E+10	1	-1E+10	1	-1E+10	1	-1E+10	1	-1E+10	1	-1E+10	1
4902551	43	C	10/17/2021	07:05	-134.301	49.667	0	212.10	0	5.5490	0	33.8050	0	26.666	0	210.180	0	102.8	4	33.6	4	-1E+10	1	-1E+10	1	-1E+10	1	-1E+10	1	-1E+10	1	-1E+10	1
4902551	43	C	10/17/2021	07:05	-134.301	49.667	0	213.20	0	5.5480	0	33.8030	0	26.664	0	211.270	0	102.2	4	33.4	4	-1E+10	1	-1E+10	1	-1E+10	1	-1E+10	1	-1E+10	1	-1E+10	1
4902551	43	C	10/17/2021	07:05	-134.301	49.667	0	214.20	0	5.5400	0	33.8050	0	26.667	0	212.260	0	101.7	4	33.2	4	-1E+10	1	-1E+10	1	-1E+10	1	-1E+10	1	-1E+10	1	-1E+10	1
4902551	43	C	10/17/2021	07:05	-134.301	49.667	0	215.30	0	5.5290	0	33.8090	0	26.671	0	213.350	0	101.1	4	33.0	4	-1E+10	1	-1E+10	1	-1E+10	1	-1E+10	1	-1E+10	1	-1E+10	1
4902551	43	C	10/17/2021	07:05	-134.301	49.667	0	216.30	0	5.5180	0	33.8090	0	26.673	0	214.340	0	100.6	4	32.8	4	-1E+10	1	-1E+10	1	-1E+10	1	-1E+10	1	-1E+10	1	-1E+10	1
4902551	43	C	10/17/2021	07:05	-134.301	49.667	0	217.40	0	5.5160	0	33.8100	0	26.674	0	215.429	0	100.1	4	32.7	4	-1E+10	1	-1E+10	1	-1E+10	1	-1E+10	1	-1E+10	1	-1E+10	1
4902551	43	C	10/17/2021	07:05	-134.301	49.667	0	218.40	0	5.5160	0	33.8090	0	26.673	0	216.420	0	99.5	4	32.5	4	-1E+10	1	-1E+10	1	-1E+10	1	-1E+10	1	-1E+10	1	-1E+10	1
4902551	43	C	10/17/2021	07:05	-134.301	49.667	0	219.40	0	5.5050	0	33.8120	0	26.677	0	217.410	0	98.9	4	32.3	4	-1E+10	1	-1E+10	1	-1E+10	1	-1E+10	1	-1E+10	1	-1E+10	1
4902551	43	C	10/17/2021	07:05	-134.301	49.667	0	220.40	0	5.4980	0	33.8120	0	26.678	0	218.401	0	98.3	4	32.1	4	-1E+10	1	-1E+10	1	-1E+10	1	-1E+10	1	-1E+10	1	-1E+10	1
4902551	43	C	10/17/2021	07:05	-134.301	49.667	0	221.40	0	5.4890	0	33.8140	0	26.680	0	219.391	0	97.8	4	31.9	4	-1E+10	1	-1E+10	1	-1E+10	1	-1E+10	1	-1E+10	1	-1E+10	1
4902551	43	C	10/17/2021	07:05	-134.301	49.667	0	222.40	0	5.4790	0	33.8160	0	26.683	0	220.381	0	97.2	4	31.7	4	-1E+10	1	-1E+10	1	-1E+10	1	-1E+10	1	-1E+10	1	-1E+10	1
4902551	43	C	10/17/2021	07:05	-134.301	49.667	0	223.40	0	5.4630	0	33.8210	0	26.689	0	221.372	0	96.7	4	31.5	4	-1E+10	1	-1E+10	1	-1E+10	1	-1E+10	1	-1E+10	1	-1E+10	1
4902551	43	C	10/17/2021	07:05	-134.301	49.667	0	224.30	0	5.4430	0	33.8200	0	26.691	0	222.263	0	96.2	4	31.3	4	-1E+10	1	-1E+10	1	-1E+10	1	-1E+10	1	-1E+10	1	-1E+10	1
4902551	43	C	10/17/2021	07:05	-134.301	49.667	0	225.30	0	5.4240	0	33.8220	0	26.694	0	223.254	0	95.8	4	31.2	4	-1E+10	1	-1E+10	1	-1E+10	1	-1E+10	1	-1E+10	1	-1E+10	1
4902551	43	C	10/17/2021	07:05	-134.301	49.667	0	226.30	0	5.3840	0	33.8260	0	26.702	0	224.244	0	95.6	4	31.1	4	-1E+10	1	-1E+10	1	-1E+10	1	-1E+10	1	-1E+10	1	-1E+10	1
4902551	43	C	10/17/2021	07:05	-134.301	49.667	0	227.30	0	5.3820	0	33.8280	0	26.704	0	225.234	0	95.5	4	31.1	4	-1E+10	1	-1E+10	1	-1E+10	1	-1E+10	1	-1E+10	1	-1E+10	1
4902551	43	C	10/17/2021	07:05	-134.301	49.667	0	228.30	0	5.3780	0	33.8290	0	26.705	0	226.225	0	95.5	4	31.1	4	-1E+10	1	-1E+10	1	-1E+10	1	-1E+10	1	-1E+10	1	-1E+10	1
4902551	43	C	10/17/2021	07:05	-134.301	49.667	0	229.30	0	5.3710	0	33.8320	0	26.709	0	227.215	0	95.5	4	31.1	4	-1E+10	1	-1E+10	1	-1E+10	1	-1E+10	1	-1E+10	1	-1E+10	1
4902551	43	C	10/17/2021	07:05	-134.301	49.667	0	230.20	0	5.3590	0	33.8310	0	26.709	0	228.106	0	95.5	4	31.1	4	-1E+10	1	-1E+10	1	-1E+10	1	-1E+10	1	-1E+10	1	-1E+10	1
4902551	43	C	10/17/2021	07:05	-134.301	49.667	0	231.20	0	5.2950	0	33.8320	0	26.717	0	229.097	0	95.5	4	31.0	4	-1E+10	1	-1E+10	1	-1E+10	1	-1E+10	1	-1E+10	1	-1E+10	1
4902551	43	C	10/17/2021	07:05	-134.301	49.667	0	232.10	0	5.2880	0	33.8280	0	26.715	0	229.988	0	95.4	4	31.0	4	-1E+10	1	-1E+10	1	-1E+10	1	-1E+10	1	-1E+10	1	-1E+10	1
4902551	43	C	10/17/2021	07:05	-134.301	49.667	0	233.10	0	5.2860	0	33.8280	0	26.715	0	230.978	0	95.2	4	30.9	4	-1E+10	1	-1E+10	1	-1E+10	1	-1E+10	1	-1E+10	1	-1E+10	1
4902551	43	C	10/17/2021	07:05	-134.301	49.667	0	234.00	0	5.2860	0	33.8280	0	26.715	0	231.870	0	95.1	4	30.9	4	-1E+10	1	-1E+10	1	-1E+10	1	-1E+10	1	-1E+10	1	-1E+10	1
4902551	43	C	10/17/2021	07:05	-134.301	49.667	0	235.00	0	5.2620	0	33.8290	0	26.719	0	232.860	0	95.0	4	30.8	4	-1E+10	1	-1E+10	1	-1E+10	1	-1E+10	1	-1E+10	1	-1E+10	1
4902551	43	C	10/17/2021	07:05	-134.301	49.667	0	235.90	0	5.2470	0	33.8270	0	26.719	0	233.751	0	94.8	4	30.7	4	-1E+10	1	-1E+10	1	-1E+10	1	-1E+10	1	-1E+10	1	-1E+10	1
4902551	43	C	10/17/2021	07:05	-134.301	49.667	0	236.80	0	5.2270	0	33.8260	0	26.721	0	234.643	0	94.4	4	30.6	4	-1E+10	1	-1E+10	1	-1E+10	1	-1E+10	1	-1E+10	1	-1E+10	1
4902551	43	C	10/17/2021	07:05	-134.301	49.667	0	237.70	0	5.2110	0	33.8250	0	26.722	0	235.534	0	94.0	4	30.5	4	-1E+10	1	-1E+10	1	-1E+10	1	-1E+10	1	-1E+10	1	-1E+10	1
4902551	43	C	10/17/2021	07:05	-134.301	49.667	0	238.70	0	5.1970	0	33.8250	0	26.723	0	236.524	0	93.5	4	30.3	4	-1E+10	1	-1E+10	1	-1E+10	1	-1E+10	1	-1E+10	1	-1E+10	1
4902551	43	C	10/17/2021	07:05	-134.301	49.667	0	239.60	0	5.1920	0	33.8250	0	26.724	0	237.415	0	93.1	4	30.1	4	-1E+10	1	-1E+10	1	-1E+10	1	-1E+10	1	-1E+10	1	-1E+10	1
4902551	43	C	10/17/2021	07:05	-134.301	49.667	0	240.50	0	5.1850	0	33.8270	0	26.726	0	238.307	0	92.5	4	30.0	4	-1E+10	1	-1E+10	1	-1E+10	1	-1E+10	1	-1E+10	1	-1E+10	1
4902551	43	C	10/17/2021	07:05	-134.301	49.667	0	241.90	0	5.1860	0	33.8270	0	26.726	0	239.693	0	91.6	4	29.7	4	-1E+10	1	-1E+10	1	-1E+10	1	-1E+10	1	-1E+10	1	-1E+10	1
4902551	43	C	10/17/2021	07:05	-134.301	49.667	0	243.30	0	5.1890	0	33.8280	0	26.727	0	241.080	0	90.7	4	29.4	4	-1E+10	1	-1E+10	1	-1E+10	1	-1E+10	1	-1E+10	1	-1E+10	1
4902551	43	C	10/17/2021	07:05	-134.301	49.667	0	244.30	0	5.1880	0	33.8280	0	26.727	0	242.070	0	90.0	4	29.2	4	-1E+10	1	-1E+10	1	-1E+10	1	-1E+10	1	-1E+10	1	-1E+10	1
4902551	43	C	10/17/2021	07:05	-134.301	49.667	0	245.20	0	5.1780	0	33.8310	0	26.730	0	242.961	0	89.4	4	28.9	4	-1E+10	1	-1E+10	1	-1E+10	1	-1E+10	1	-1E+10	1	-1E+10	1
4902551	43	C	10/17/2021	07:05	-134.301	49.667	0	246.10	0	5.1650	0	33.8350	0	26.735	0	243.852	0	88.6	4	28.7	4	-1E+10	1	-1E+10	1	-1E+10	1	-1E+10	1	-1E+10	1	-1E+10	1
4902551	43	C	10/17/2021	07:05	-134.301	49.667	0	247.10	0	5.1690	0	33.8340	0	26.734	0	244.843	0	88.1	4	28.5	4	-1E+10	1	-1E+10	1	-1E+10	1	-1E+10	1	-1E+10	1	-1E+10	1
4902551	43	C	10/17/2021	07:05	-134.301	49.667	0	248.00	0	5.1750	0	33.8380	0	26.736	0	245.734	0	87.8	4	28.4	4	-1E+10	1	-1E+10	1	-1E+10	1	-1E+10	1	-1E+10	1	-1E+10	1
4902551	43	C	10/17/2021	07:05	-134.301	49.667	0	249.00	0	5.1700	0	33.8400	0	26.738	0	246.724	0	87.3	4	28.3	4	-1E+10	1	-1E+10	1	-1E+10	1	-1E+10	1	-1E+10	1	-1E+10	1
4902551	43	C	10/17/2021	07:05	-134.301	49.667	0	249.90	0	5.1650	0	33.8410	0	26.740	0	247.615	0	87.1	4	28.2	4	-1E+10	1	-1E+10	1	-1E+10	1	-1E+10	1	-1E+10	1	-1E+10	1
4902551	43	C	10/17/2021	07:05	-134.301	49.667	0	250.80	0	5.1610	0	33.8430	0	26.742	0	248.507	0	87.0	4	28.2	4	-1E+10	1	-1E+10	1	-1E+10	1	-1E+10	1	-1E+10	1	-1E+10	1
4902551	43	C	10/17/2021	07:05	-134.301	49.667	0	251.80	0	5.1370	0	33.8480	0	26.749	0	249.497	0	87.0	4	28.2	4	-1E+10	1	-1E+10	1	-1E+10	1	-1E+10	1	-1E+10	1	-1E+10	1
4902551	43	C	10/17/2021	07:05	-134.301	49.667	0	252.70	0	5.1370	0	33.8480	0	26.749	0	250.388	0	87.1	4	28.2	4	-1E+10	1	-1E+10	1	-1E+10	1	-1E+10	1	-1E+10	1	-1E+10	1
4902551	43	C	10/17/2021	07:05	-134.301	49.667	0	253.70	0	5.1240	0	33.8470	0	26.749	0	251.378	0	87.2	4	28.2	4	-1E+10	1	-1E+10	1	-1E+10	1	-1E+10	1	-1E+10	1	-1E+10	1
4902551	43	C	10/17/2021	07:05	-134.301	49.667	0	254.60	0	5.0840	0	33.8410	0	26.749	0	252.270	0	87.2	4	28.2	4	-1E+10	1	-1E+10	1	-1E+10	1	-1E+10	1	-1E+10	1	-1E+10	1
4902551	43	C	10/17/2021	07:05	-134.301	49.667	0	255.70	0	5.0820	0	33.8420	0	26.750	0	253.359	0	87.1	4	28.2	4	-1E+10	1	-1E+10	1	-1E+10	1	-1E+10	1	-1E+10	1	-1E+10	1
4902551	43	C	10/17/2021	07:05	-134.301	49.667	0	256.60	0	5.0360	0	33.8420	0	26.755	0	254.250	0	87.0	4	28.1	4	-1E+10	1	-1E+10	1	-1E+10	1	-1E+10	1	-1E+10	1	-1E+10	1
4902551	43	C	10/17/2021	07:05	-134.301	49.667	0	257.60	0	5.0310	0	33.8420	0	26.756	0	255.240	0	86.7	4	28.0	4	-1E+10	1	-1E+10	1	-1E+10	1	-1E+10	1	-1E+10	1	-1E+10	1
4902551	43	C	10/17/2021	07:05	-134.301	49.667	0	258.70	0	5.0250	0	33.8420	0	26.757	0	256.329	0	86.5	4	27.9	4	-1E+10	1	-1E+10	1	-1E+10	1	-1E+10	1	-1E+10	1	-1E+10	1
4902551	43	C	10/17/2021	07:05	-134.301	49.667	0	259.70	0	5.0240	0	33.8410	0	26.756	0	257.320	0	86.2	4	27.8	4	-1E+10	1	-1E+10	1	-1E+10	1	-1E+10	1	-1E+10	1	-1E+10	1
4902551	43	C	10/17/2021	07:05	-134.301	49.667	0	260.70	0	5.0220	0	33.8410	0	26.756	0	258.310	0	85.8	4	27.7	4	-1E+10	1	-1E+10	1	-1E+10	1	-1E+10	1	-1E+10	1	-1E+10	1
4902551	43	C	10/17/2021	07:05	-134.301	49.667	0	261.70	0	5.0090	0	33.8420	0	26.759	0	259.300	0	85.5	4	27.6	4	-1E+10	1	-1E+10	1	-1E+10	1	-1E+10	1	-1E+10	1	-1E+10	1
4902551	43	C	10/17/2021	07:05	-134.301	49.667	0	262.70	0	4.9890	0	33.8440	0	26.762	0	260.290	0	85.3	4	27.5	4	-1E+10	1	-1E+10	1	-1E+10	1	-1E+10	1	-1E+10	1	-1E+10	1
4902551	43	C	10/17/2021	07:05	-134.301	49.667	0	263.70	0	4.9760	0	33.8430	0	26.763	0	261.280	0	85.0	4	27.4	4	-1E+10	1	-1E+10	1	-1E+10	1	-1E+10	1	-1E+10	1	-1E+10	1
4902551	43	C	10/17/2021	07:05	-134.301	49.667	0	264.80	0	4.9700	0	33.8430	0	26.764	0	262.370	0	84.6	4	27.3	4	-1E+10	1	-1E+10	1	-1E+10	1	-1E+10	1	-1E+10	1	-1E+10	1
4902551	43	C	10/17/2021	07:05	-134.301	49.667	0	265.70	0	4.9570	0	33.8440	0	26.766	0	263.261	0	84.3	4	27.2	4	-1E+10	1	-1E+10	1	-1E+10	1	-1E+10	1	-1E+10	1	-1E+10	1
4902551	43	C	10/17/2021	07:05	-134.301	49.667	0	266.70	0	4.9490	0	33.8450	0	26.768	0	264.251	0	83.9	4	27.0	4	-1E+10	1	-1E+10	1	-1E+10	1	-1E+10	1	-1E+10	1	-1E+10	1
4902551	43	C	10/17/2021	07:05	-134.301	49.667	0	267.60	0	4.9450	0	33.8450	0	26.768	0	265.142	0	83.6	4	26.9	4	-1E+10	1	-1E+10	1	-1E+10	1	-1E+10	1	-1E+10	1	-1E+10	1
4902551	43	C	10/17/2021	07:05	-134.301	49.667	0	268.70	0	4.9390	0	33.8460	0	26.770	0	266.231	0	83.2	4	26.8	4	-1E+10	1	-1E+10	1	-1E+10	1	-1E+10	1	-1E+10	1	-1E+10	1
4902551	43	C	10/17/2021	07:05	-134.301	49.667	0	269.80	0	4.9310	0	33.8490	0	26.773	0	267.321	0	82.8	4	26.7	4	-1E+10	1	-1E+10	1	-1E+10	1	-1E+10	1	-1E+10	1	-1E+10	1
4902551	43	C	10/17/2021	07:05	-134.301	49.667	0	271.00	0	4.9270	0	33.8500	0	26.774	0	268.509	0	82.5	4	26.6	4	-1E+10	1	-1E+10	1	-1E+10	1	-1E+10	1	-1E+10	1	-1E+10	1
4902551	43	C	10/17/2021	07:05	-134.301	49.667	0	271.80	0	4.9280	0	33.8500	0	26.774	0	269.301	0	82.2	4	26.5	4	-1E+10	1	-1E+10	1	-1E+10	1	-1E+10	1	-1E+10	1	-1E+10	1
4902551	43	C	10/17/2021	07:05	-134.301	49.667	0	272.90	0	4.9280	0	33.8510	0	26.775	0	270.390	0	81.9	4	26.4	4	-1E+10	1	-1E+10	1	-1E+10	1	-1E+10	1	-1E+10	1	-1E+10	1
4902551	43	C	10/17/2021	07:05	-134.301	49.667	0	274.10	0	4.9290	0	33.8510	0	26.775	0	271.578	0	81.5	4	26.3	4	-1E+10	1	-1E+10	1	-1E+10	1	-1E+10	1	-1E+10	1	-1E+10	1
4902551	43	C	10/17/2021	07:05	-134.301	49.667	0	274.90	0	4.9290	0	33.8520	0	26.776	0	272.370	0	81.2	4	26.2	4	-1E+10	1	-1E+10	1	-1E+10	1	-1E+10	1	-1E+10	1	-1E+10	1
4902551	43	C	10/17/2021	07:05	-134.301	49.667	0	276.00	0	4.9290	0	33.8510	0	26.775	0	273.460	0	80.8	4	26.0	4	-1E+10	1	-1E+10	1	-1E+10	1	-1E+10	1	-1E+10	1	-1E+10	1
4902551	43	C	10/17/2021	07:05	-134.301	49.667	0	277.20	0	4.9270	0	33.8520	0	26.776	0	274.648	0	80.3	4	25.9	4	-1E+10	1	-1E+10	1	-1E+10	1	-1E+10	1	-1E+10	1	-1E+10	1
4902551	43	C	10/17/2021	07:05	-134.301	49.667	0	278.00	0	4.9180	0	33.8550	0	26.779	0	275.440	0	80.0	4	25.8	4	-1E+10	1	-1E+10	1	-1E+10	1	-1E+10	1	-1E+10	1	-1E+10	1
4902551	43	C	10/17/2021	07:05	-134.301	49.667	0	278.80	0	4.9110	0	33.8550	0	26.780	0	276.232	0	79.8	4	25.7	4	-1E+10	1	-1E+10	1	-1E+10	1	-1E+10	1	-1E+10	1	-1E+10	1
4902551	43	C	10/17/2021	07:05	-134.301	49.667	0	280.00	0	4.9050	0	33.8550	0	26.781	0	277.420	0	79.3	4	25.5	4	-1E+10	1	-1E+10	1	-1E+10	1	-1E+10	1	-1E+10	1	-1E+10	1
4902551	43	C	10/17/2021	07:05	-134.301	49.667	0	281.20	0	4.9010	0	33.8550	0	26.781	0	278.608	0	78.8	4	25.4	4	-1E+10	1	-1E+10	1	-1E+10	1	-1E+10	1	-1E+10	1	-1E+10	1
4902551	43	C	10/17/2021	07:05	-134.301	49.667	0	282.00	0	4.8930	0	33.8540	0	26.781	0	279.400	0	78.5	4	25.3	4	-1E+10	1	-1E+10	1	-1E+10	1	-1E+10	1	-1E+10	1	-1E+10	1
4902551	43	C	10/17/2021	07:05	-134.301	49.667	0	282.80	0	4.8840	0	33.8570	0	26.785	0	280.192	0	78.2	4	25.1	4	-1E+10	1	-1E+10	1	-1E+10	1	-1E+10	1	-1E+10	1	-1E+10	1
4902551	43	C	10/17/2021	07:05	-134.301	49.667	0	284.00	0	4.8750	0	33.8590	0	26.787	0	281.380	0	77.8	4	25.0	4	-1E+10	1	-1E+10	1	-1E+10	1	-1E+10	1	-1E+10	1	-1E+10	1
4902551	43	C	10/17/2021	07:05	-134.301	49.667	0	285.30	0	4.8670	0	33.8610	0	26.790	0	282.668	0	77.4	4	24.9	4	-1E+10	1	-1E+10	1	-1E+10	1	-1E+10	1	-1E+10	1	-1E+10	1
4902551	43	C	10/17/2021	07:05	-134.301	49.667	0	286.10	0	4.8620	0	33.8620	0	26.791	0	283.460	0	77.2	4	24.8	4	-1E+10	1	-1E+10	1	-1E+10	1	-1E+10	1	-1E+10	1	-1E+10	1
4902551	43	C	10/17/2021	07:05	-134.301	49.667	0	286.90	0	4.8540	0	33.8640	0	26.794	0	284.252	0	77.0	4	24.8	4	-1E+10	1	-1E+10	1	-1E+10	1	-1E+10	1	-1E+10	1	-1E+10	1
4902551	43	C	10/17/2021	07:05	-134.301	49.667	0	287.80	0	4.8480	0	33.8640	0	26.794	0	285.143	0	76.9	4	24.7	4	-1E+10	1	-1E+10	1	-1E+10	1	-1E+10	1	-1E+10	1	-1E+10	1
4902551	43	C	10/17/2021	07:05	-134.301	49.667	0	288.60	0	4.8410	0	33.8650	0	26.796	0	285.935	0	76.8	4	24.7	4	-1E+10	1	-1E+10	1	-1E+10	1	-1E+10	1	-1E+10	1	-1E+10	1
4902551	43	C	10/17/2021	07:05	-134.301	49.667	0	289.90	0	4.8380	0	33.8650	0	26.796	0	287.222	0	76.6	4	24.6	4	-1E+10	1	-1E+10	1	-1E+10	1	-1E+10	1	-1E+10	1	-1E+10	1
4902551	43	C	10/17/2021	07:05	-134.301	49.667	0	291.20	0	4.8370	0	33.8660	0	26.797	0	288.509	0	76.4	4	24.5	4	-1E+10	1	-1E+10	1	-1E+10	1	-1E+10	1	-1E+10	1	-1E+10	1
4902551	43	C	10/17/2021	07:05	-134.301	49.667	0	292.00	0	4.8360	0	33.8660	0	26.797	0	289.301	0	76.2	4	24.5	4	-1E+10	1	-1E+10	1	-1E+10	1	-1E+10	1	-1E+10	1	-1E+10	1
4902551	43	C	10/17/2021	07:05	-134.301	49.667	0	292.90	0	4.8360	0	33.8660	0	26.797	0	290.192	0	76.1	4	24.4	4	-1E+10	1	-1E+10	1	-1E+10	1	-1E+10	1	-1E+10	1	-1E+10	1
4902551	43	C	10/17/2021	07:05	-134.301	49.667	0	293.70	0	4.8350	0	33.8660	0	26.797	0	290.984	0	75.9	4	24.4	4	-1E+10	1	-1E+10	1	-1E+10	1	-1E+10	1	-1E+10	1	-1E+10	1
4902551	43	C	10/17/2021	07:05	-134.301	49.667	0	294.60	0	4.8350	0	33.8660	0	26.797	0	291.875	0	75.7	4	24.3	4	-1E+10	1	-1E+10	1	-1E+10	1	-1E+10	1	-1E+10	1	-1E+10	1
4902551	43	C	10/17/2021	07:05	-134.301	49.667	0	295.90	0	4.8320	0	33.8660	0	26.798	0	293.162	0	75.3	4	24.2	4	-1E+10	1	-1E+10	1	-1E+10	1	-1E+10	1	-1E+10	1	-1E+10	1
4902551	43	C	10/17/2021	07:05	-134.301	49.667	0	297.20	0	4.8300	0	33.8660	0	26.798	0	294.449	0	75.0	4	24.1	4	-1E+10	1	-1E+10	1	-1E+10	1	-1E+10	1	-1E+10	1	-1E+10	1
4902551	43	C	10/17/2021	07:05	-134.301	49.667	0	298.00	0	4.8280	0	33.8670	0	26.799	0	295.241	0	74.6	4	24.0	4	-1E+10	1	-1E+10	1	-1E+10	1	-1E+10	1	-1E+10	1	-1E+10	1
4902551	43	C	10/17/2021	07:05	-134.301	49.667	0	298.90	0	4.8280	0	33.8670	0	26.799	0	296.132	0	74.3	4	23.9	4	-1E+10	1	-1E+10	1	-1E+10	1	-1E+10	1	-1E+10	1	-1E+10	1
4902551	43	C	10/17/2021	07:05	-134.301	49.667	0	299.70	0	4.8270	0	33.8670	0	26.799	0	296.924	0	74.0	4	23.8	4	-1E+10	1	-1E+10	1	-1E+10	1	-1E+10	1	-1E+10	1	-1E+10	1
4902551	43	C	10/17/2021	07:05	-134.301	49.667	0	300.60	0	4.8260	0	33.8680	0	26.800	0	297.815	0	73.6	4	23.7	4	-1E+10	1	-1E+10	1	-1E+10	1	-1E+10	1	-1E+10	1	-1E+10	1
4902551	43	C	10/17/2021	07:05	-134.301	49.667	0	301.90	0	4.8150	0	33.8700	0	26.803	0	299.102	0	73.2	4	23.5	4	-1E+10	1	-1E+10	1	-1E+10	1	-1E+10	1	-1E+10	1	-1E+10	1
4902551	43	C	10/17/2021	07:05	-134.301	49.667	0	303.20	0	4.8090	0	33.8730	0	26.806	0	300.389	0	72.9	4	23.4	4	-1E+10	1	-1E+10	1	-1E+10	1	-1E+10	1	-1E+10	1	-1E+10	1
4902551	43	C	10/17/2021	07:05	-134.301	49.667	0	304.10	0	4.8000	0	33.8740	0	26.808	0	301.280	0	72.7	4	23.4	4	-1E+10	1	-1E+10	1	-1E+10	1	-1E+10	1	-1E+10	1	-1E+10	1
4902551	43	C	10/17/2021	07:05	-134.301	49.667	0	304.90	0	4.7930	0	33.8750	0	26.809	0	302.072	0	72.6	4	23.3	4	-1E+10	1	-1E+10	1	-1E+10	1	-1E+10	1	-1E+10	1	-1E+10	1
4902551	43	C	10/17/2021	07:05	-134.301	49.667	0	305.80	0	4.7820	0	33.8760	0	26.811	0	302.963	0	72.4	4	23.2	4	-1E+10	1	-1E+10	1	-1E+10	1	-1E+10	1	-1E+10	1	-1E+10	1
4902551	43	C	10/17/2021	07:05	-134.301	49.667	0	306.70	0	4.7760	0	33.8770	0	26.813	0	303.854	0	72.3	4	23.2	4	-1E+10	1	-1E+10	1	-1E+10	1	-1E+10	1	-1E+10	1	-1E+10	1
4902551	43	C	10/17/2021	07:05	-134.301	49.667	0	307.60	0	4.7750	0	33.8780	0	26.814	0	304.745	0	72.1	4	23.2	4	-1E+10	1	-1E+10	1	-1E+10	1	-1E+10	1	-1E+10	1	-1E+10	1
4902551	43	C	10/17/2021	07:05	-134.301	49.667	0	308.90	0	4.7760	0	33.8780	0	26.814	0	306.032	0	72.0	4	23.1	4	-1E+10	1	-1E+10	1	-1E+10	1	-1E+10	1	-1E+10	1	-1E+10	1
4902551	43	C	10/17/2021	07:05	-134.301	49.667	0	310.30	0	4.7680	0	33.8780	0	26.815	0	307.418	0	71.8	4	23.0	4	-1E+10	1	-1E+10	1	-1E+10	1	-1E+10	1	-1E+10	1	-1E+10	1
4902551	43	C	10/17/2021	07:05	-134.301	49.667	0	311.30	0	4.7610	0	33.8800	0	26.817	0	308.408	0	71.7	4	23.0	4	-1E+10	1	-1E+10	1	-1E+10	1	-1E+10	1	-1E+10	1	-1E+10	1
4902551	43	C	10/17/2021	07:05	-134.301	49.667	0	312.20	0	4.7560	0	33.8790	0	26.817	0	309.299	0	71.6	4	23.0	4	-1E+10	1	-1E+10	1	-1E+10	1	-1E+10	1	-1E+10	1	-1E+10	1
4902551	43	C	10/17/2021	07:05	-134.301	49.667	0	313.10	0	4.7470	0	33.8800	0	26.818	0	310.190	0	71.5	4	22.9	4	-1E+10	1	-1E+10	1	-1E+10	1	-1E+10	1	-1E+10	1	-1E+10	1
4902551	43	C	10/17/2021	07:05	-134.301	49.667	0	314.00	0	4.7480	0	33.8800	0	26.818	0	311.081	0	71.3	4	22.9	4	-1E+10	1	-1E+10	1	-1E+10	1	-1E+10	1	-1E+10	1	-1E+10	1
4902551	43	C	10/17/2021	07:05	-134.301	49.667	0	314.90	0	4.7480	0	33.8800	0	26.818	0	311.972	0	71.2	4	22.8	4	-1E+10	1	-1E+10	1	-1E+10	1	-1E+10	1	-1E+10	1	-1E+10	1
4902551	43	C	10/17/2021	07:05	-134.301	49.667	0	315.90	0	4.7500	0	33.8810	0	26.819	0	312.962	0	71.1	4	22.8	4	-1E+10	1	-1E+10	1	-1E+10	1	-1E+10	1	-1E+10	1	-1E+10	1
4902551	43	C	10/17/2021	07:05	-134.301	49.667	0	316.80	0	4.7520	0	33.8810	0	26.819	0	313.853	0	71.0	4	22.8	4	-1E+10	1	-1E+10	1	-1E+10	1	-1E+10	1	-1E+10	1	-1E+10	1
4902551	43	C	10/17/2021	07:05	-134.301	49.667	0	317.70	0	4.7500	0	33.8820	0	26.820	0	314.744	0	70.9	4	22.8	4	-1E+10	1	-1E+10	1	-1E+10	1	-1E+10	1	-1E+10	1	-1E+10	1
4902551	43	C	10/17/2021	07:05	-134.301	49.667	0	318.70	0	4.7340	0	33.8820	0	26.822	0	315.734	0	70.8	4	22.7	4	-1E+10	1	-1E+10	1	-1E+10	1	-1E+10	1	-1E+10	1	-1E+10	1
4902551	43	C	10/17/2021	07:05	-134.301	49.667	0	319.60	0	4.7340	0	33.8820	0	26.822	0	316.625	0	70.6	4	22.6	4	-1E+10	1	-1E+10	1	-1E+10	1	-1E+10	1	-1E+10	1	-1E+10	1
4902551	43	C	10/17/2021	07:05	-134.301	49.667	0	320.50	0	4.7320	0	33.8820	0	26.822	0	317.516	0	70.5	4	22.6	4	-1E+10	1	-1E+10	1	-1E+10	1	-1E+10	1	-1E+10	1	-1E+10	1
4902551	43	C	10/17/2021	07:05	-134.301	49.667	0	321.90	0	4.7180	0	33.8820	0	26.823	0	318.902	0	70.2	4	22.5	4	-1E+10	1	-1E+10	1	-1E+10	1	-1E+10	1	-1E+10	1	-1E+10	1
4902551	43	C	10/17/2021	07:05	-134.301	49.667	0	323.30	0	4.7000	0	33.8820	0	26.825	0	320.288	0	69.8	4	22.4	4	-1E+10	1	-1E+10	1	-1E+10	1	-1E+10	1	-1E+10	1	-1E+10	1
4902551	43	C	10/17/2021	07:05	-134.301	49.667	0	324.30	0	4.6770	0	33.8890	0	26.833	0	321.277	0	69.6	4	22.3	4	-1E+10	1	-1E+10	1	-1E+10	1	-1E+10	1	-1E+10	1	-1E+10	1
4902551	43	C	10/17/2021	07:05	-134.301	49.667	0	325.30	0	4.6700	0	33.8900	0	26.835	0	322.267	0	69.5	4	22.3	4	-1E+10	1	-1E+10	1	-1E+10	1	-1E+10	1	-1E+10	1	-1E+10	1
4902551	43	C	10/17/2021	07:05	-134.301	49.667	0	326.30	0	4.6680	0	33.8900	0	26.835	0	323.257	0	69.4	4	22.2	4	-1E+10	1	-1E+10	1	-1E+10	1	-1E+10	1	-1E+10	1	-1E+10	1
4902551	43	C	10/17/2021	07:05	-134.301	49.667	0	327.20	0	4.6660	0	33.8900	0	26.835	0	324.148	0	69.2	4	22.2	4	-1E+10	1	-1E+10	1	-1E+10	1	-1E+10	1	-1E+10	1	-1E+10	1
4902551	43	C	10/17/2021	07:05	-134.301	49.667	0	328.20	0	4.6670	0	33.8890	0	26.835	0	325.138	0	69.0	4	22.1	4	-1E+10	1	-1E+10	1	-1E+10	1	-1E+10	1	-1E+10	1	-1E+10	1
4902551	43	C	10/17/2021	07:05	-134.301	49.667	0	329.20	0	4.6660	0	33.8900	0	26.835	0	326.128	0	68.9	4	22.0	4	-1E+10	1	-1E+10	1	-1E+10	1	-1E+10	1	-1E+10	1	-1E+10	1
4902551	43	C	10/17/2021	07:05	-134.301	49.667	0	330.10	0	4.6660	0	33.8890	0	26.835	0	327.019	0	68.6	4	22.0	4	-1E+10	1	-1E+10	1	-1E+10	1	-1E+10	1	-1E+10	1	-1E+10	1
4902551	43	C	10/17/2021	07:05	-134.301	49.667	0	331.10	0	4.6640	0	33.8900	0	26.836	0	328.009	0	68.4	4	21.9	4	-1E+10	1	-1E+10	1	-1E+10	1	-1E+10	1	-1E+10	1	-1E+10	1
4902551	43	C	10/17/2021	07:05	-134.301	49.667	0	332.10	0	4.6600	0	33.8910	0	26.837	0	328.999	0	68.2	4	21.8	4	-1E+10	1	-1E+10	1	-1E+10	1	-1E+10	1	-1E+10	1	-1E+10	1
4902551	43	C	10/17/2021	07:05	-134.301	49.667	0	333.10	0	4.6550	0	33.8930	0	26.839	0	329.988	0	68.0	4	21.8	4	-1E+10	1	-1E+10	1	-1E+10	1	-1E+10	1	-1E+10	1	-1E+10	1
4902551	43	C	10/17/2021	07:05	-134.301	49.667	0	334.00	0	4.6510	0	33.8930	0	26.839	0	330.879	0	67.8	4	21.7	4	-1E+10	1	-1E+10	1	-1E+10	1	-1E+10	1	-1E+10	1	-1E+10	1
4902551	43	C	10/17/2021	07:05	-134.301	49.667	0	335.00	0	4.6510	0	33.8930	0	26.840	0	331.869	0	67.5	4	21.6	4	-1E+10	1	-1E+10	1	-1E+10	1	-1E+10	1	-1E+10	1	-1E+10	1
4902551	43	C	10/17/2021	07:05	-134.301	49.667	0	336.00	0	4.6460	0	33.8940	0	26.841	0	332.859	0	67.3	4	21.5	4	-1E+10	1	-1E+10	1	-1E+10	1	-1E+10	1	-1E+10	1	-1E+10	1
4902551	43	C	10/17/2021	07:05	-134.301	49.667	0	337.00	0	4.6450	0	33.8950	0	26.842	0	333.849	0	67.1	4	21.5	4	-1E+10	1	-1E+10	1	-1E+10	1	-1E+10	1	-1E+10	1	-1E+10	1
4902551	43	C	10/17/2021	07:05	-134.301	49.667	0	338.00	0	4.6420	0	33.8960	0	26.843	0	334.839	0	66.9	4	21.4	4	-1E+10	1	-1E+10	1	-1E+10	1	-1E+10	1	-1E+10	1	-1E+10	1
4902551	43	C	10/17/2021	07:05	-134.301	49.667	0	339.00	0	4.6380	0	33.8980	0	26.845	0	335.829	0	66.7	4	21.3	4	-1E+10	1	-1E+10	1	-1E+10	1	-1E+10	1	-1E+10	1	-1E+10	1
4902551	43	C	10/17/2021	07:05	-134.301	49.667	0	340.00	0	4.6380	0	33.8970	0	26.844	0	336.818	0	66.5	4	21.3	4	-1E+10	1	-1E+10	1	-1E+10	1	-1E+10	1	-1E+10	1	-1E+10	1
4902551	43	C	10/17/2021	07:05	-134.301	49.667	0	341.00	0	4.6380	0	33.8970	0	26.844	0	337.808	0	66.3	4	21.2	4	-1E+10	1	-1E+10	1	-1E+10	1	-1E+10	1	-1E+10	1	-1E+10	1
4902551	43	C	10/17/2021	07:05	-134.301	49.667	0	342.00	0	4.6370	0	33.8980	0	26.845	0	338.798	0	66.1	4	21.2	4	-1E+10	1	-1E+10	1	-1E+10	1	-1E+10	1	-1E+10	1	-1E+10	1
4902551	43	C	10/17/2021	07:05	-134.301	49.667	0	343.00	0	4.6340	0	33.8980	0	26.845	0	339.788	0	65.9	4	21.1	4	-1E+10	1	-1E+10	1	-1E+10	1	-1E+10	1	-1E+10	1	-1E+10	1
4902551	43	C	10/17/2021	07:05	-134.301	49.667	0	344.00	0	4.6320	0	33.8980	0	26.846	0	340.778	0	65.6	4	21.0	4	-1E+10	1	-1E+10	1	-1E+10	1	-1E+10	1	-1E+10	1	-1E+10	1
4902551	43	C	10/17/2021	07:05	-134.301	49.667	0	345.00	0	4.6290	0	33.8990	0	26.847	0	341.767	0	65.3	4	20.9	4	-1E+10	1	-1E+10	1	-1E+10	1	-1E+10	1	-1E+10	1	-1E+10	1
4902551	43	C	10/17/2021	07:05	-134.301	49.667	0	346.00	0	4.6240	0	33.9010	0	26.849	0	342.757	0	65.1	4	20.8	4	-1E+10	1	-1E+10	1	-1E+10	1	-1E+10	1	-1E+10	1	-1E+10	1
4902551	43	C	10/17/2021	07:05	-134.301	49.667	0	347.00	0	4.6220	0	33.9010	0	26.849	0	343.747	0	64.8	4	20.7	4	-1E+10	1	-1E+10	1	-1E+10	1	-1E+10	1	-1E+10	1	-1E+10	1
4902551	43	C	10/17/2021	07:05	-134.301	49.667	0	348.00	0	4.6210	0	33.9020	0	26.850	0	344.737	0	64.5	4	20.6	4	-1E+10	1	-1E+10	1	-1E+10	1	-1E+10	1	-1E+10	1	-1E+10	1
4902551	43	C	10/17/2021	07:05	-134.301	49.667	0	349.00	0	4.6200	0	33.9030	0	26.851	0	345.727	0	64.3	4	20.6	4	-1E+10	1	-1E+10	1	-1E+10	1	-1E+10	1	-1E+10	1	-1E+10	1
4902551	43	C	10/17/2021	07:05	-134.301	49.667	0	350.00	0	4.6190	0	33.9030	0	26.851	0	346.716	0	64.1	4	20.5	4	-1E+10	1	-1E+10	1	-1E+10	1	-1E+10	1	-1E+10	1	-1E+10	1
4902551	43	C	10/17/2021	07:05	-134.301	49.667	0	353.00	0	4.6040	0	33.9060	0	26.855	0	349.686	0	63.2	4	20.2	4	-1E+10	1	-1E+10	1	-1E+10	1	-1E+10	1	-1E+10	1	-1E+10	1
4902551	43	C	10/17/2021	07:05	-134.301	49.667	0	358.00	0	4.5770	0	33.9130	0	26.864	0	354.635	0	62.0	4	19.8	4	-1E+10	1	-1E+10	1	-1E+10	1	-1E+10	1	-1E+10	1	-1E+10	1
4902551	43	C	10/17/2021	07:05	-134.301	49.667	0	363.10	0	4.5560	0	33.9190	0	26.871	0	359.682	0	60.8	4	19.4	4	-1E+10	1	-1E+10	1	-1E+10	1	-1E+10	1	-1E+10	1	-1E+10	1
4902551	43	C	10/17/2021	07:05	-134.301	49.667	0	368.20	0	4.5370	0	33.9250	0	26.878	0	364.730	0	59.9	4	19.1	4	-1E+10	1	-1E+10	1	-1E+10	1	-1E+10	1	-1E+10	1	-1E+10	1
4902551	43	C	10/17/2021	07:05	-134.301	49.667	0	373.20	0	4.5230	0	33.9290	0	26.882	0	369.678	0	59.2	4	18.9	4	-1E+10	1	-1E+10	1	-1E+10	1	-1E+10	1	-1E+10	1	-1E+10	1
4902551	43	C	10/17/2021	07:05	-134.301	49.667	0	378.20	0	4.5050	0	33.9350	0	26.889	0	374.626	0	58.4	4	18.6	4	-1E+10	1	-1E+10	1	-1E+10	1	-1E+10	1	-1E+10	1	-1E+10	1
4902551	43	C	10/17/2021	07:05	-134.301	49.667	0	383.10	0	4.4870	0	33.9420	0	26.897	0	379.476	0	57.5	4	18.3	4	-1E+10	1	-1E+10	1	-1E+10	1	-1E+10	1	-1E+10	1	-1E+10	1
4902551	43	C	10/17/2021	07:05	-134.301	49.667	0	388.10	0	4.4700	0	33.9480	0	26.903	0	384.424	0	56.5	4	18.0	4	-1E+10	1	-1E+10	1	-1E+10	1	-1E+10	1	-1E+10	1	-1E+10	1
4902551	43	C	10/17/2021	07:05	-134.301	49.667	0	392.90	0	4.4590	0	33.9530	0	26.908	0	389.174	0	55.6	4	17.7	4	-1E+10	1	-1E+10	1	-1E+10	1	-1E+10	1	-1E+10	1	-1E+10	1
4902551	43	C	10/17/2021	07:05	-134.301	49.667	0	397.80	0	4.4510	0	33.9590	0	26.914	0	394.023	0	54.6	4	17.4	4	-1E+10	1	-1E+10	1	-1E+10	1	-1E+10	1	-1E+10	1	-1E+10	1
4902551	43	C	10/17/2021	07:05	-134.301	49.667	0	402.70	0	4.4440	0	33.9640	0	26.919	0	398.871	0	53.2	4	17.0	4	-1E+10	1	-1E+10	1	-1E+10	1	-1E+10	1	-1E+10	1	-1E+10	1
4902551	43	C	10/17/2021	07:05	-134.301	49.667	0	407.60	0	4.4330	0	33.9700	0	26.925	0	403.720	0	51.7	4	16.5	4	-1E+10	1	-1E+10	1	-1E+10	1	-1E+10	1	-1E+10	1	-1E+10	1
4902551	43	C	10/17/2021	07:05	-134.301	49.667	0	412.90	0	4.4160	0	33.9760	0	26.931	0	408.964	0	50.2	4	16.0	4	-1E+10	1	-1E+10	1	-1E+10	1	-1E+10	1	-1E+10	1	-1E+10	1
4902551	43	C	10/17/2021	07:05	-134.301	49.667	0	418.30	0	4.4040	0	33.9810	0	26.937	0	414.307	0	48.6	4	15.5	4	-1E+10	1	-1E+10	1	-1E+10	1	-1E+10	1	-1E+10	1	-1E+10	1
4902551	43	C	10/17/2021	07:05	-134.301	49.667	0	423.20	0	4.3830	0	33.9880	0	26.945	0	419.156	0	47.3	4	15.0	4	-1E+10	1	-1E+10	1	-1E+10	1	-1E+10	1	-1E+10	1	-1E+10	1
4902551	43	C	10/17/2021	07:05	-134.301	49.667	0	428.00	0	4.3660	0	33.9950	0	26.952	0	423.905	0	46.3	4	14.7	4	-1E+10	1	-1E+10	1	-1E+10	1	-1E+10	1	-1E+10	1	-1E+10	1
4902551	43	C	10/17/2021	07:05	-134.301	49.667	0	432.90	0	4.3450	0	34.0010	0	26.959	0	428.753	0	45.6	4	14.5	4	-1E+10	1	-1E+10	1	-1E+10	1	-1E+10	1	-1E+10	1	-1E+10	1
4902551	43	C	10/17/2021	07:05	-134.301	49.667	0	437.80	0	4.3290	0	34.0060	0	26.965	0	433.601	0	44.8	4	14.3	4	-1E+10	1	-1E+10	1	-1E+10	1	-1E+10	1	-1E+10	1	-1E+10	1
4902551	43	C	10/17/2021	07:05	-134.301	49.667	0	442.70	0	4.3150	0	34.0110	0	26.970	0	438.449	0	43.8	4	13.9	4	-1E+10	1	-1E+10	1	-1E+10	1	-1E+10	1	-1E+10	1	-1E+10	1
4902551	43	C	10/17/2021	07:05	-134.301	49.667	0	447.60	0	4.2970	0	34.0160	0	26.976	0	443.297	0	42.9	4	13.6	4	-1E+10	1	-1E+10	1	-1E+10	1	-1E+10	1	-1E+10	1	-1E+10	1
4902551	43	C	10/17/2021	07:05	-134.301	49.667	0	452.50	0	4.2860	0	34.0210	0	26.981	0	448.144	0	42.1	4	13.4	4	-1E+10	1	-1E+10	1	-1E+10	1	-1E+10	1	-1E+10	1	-1E+10	1
4902551	43	C	10/17/2021	07:05	-134.301	49.667	0	457.90	0	4.2700	0	34.0270	0	26.988	0	453.486	0	41.1	4	13.0	4	-1E+10	1	-1E+10	1	-1E+10	1	-1E+10	1	-1E+10	1	-1E+10	1
4902551	43	C	10/17/2021	07:05	-134.301	49.667	0	463.10	0	4.2600	0	34.0310	0	26.992	0	458.630	0	40.1	4	12.7	4	-1E+10	1	-1E+10	1	-1E+10	1	-1E+10	1	-1E+10	1	-1E+10	1
4902551	43	C	10/17/2021	07:05	-134.301	49.667	0	467.90	0	4.2500	0	34.0340	0	26.995	0	463.379	0	39.2	4	12.4	4	-1E+10	1	-1E+10	1	-1E+10	1	-1E+10	1	-1E+10	1	-1E+10	1
4902551	43	C	10/17/2021	07:05	-134.301	49.667	0	472.90	0	4.2380	0	34.0390	0	27.001	0	468.325	0	38.4	4	12.2	4	-1E+10	1	-1E+10	1	-1E+10	1	-1E+10	1	-1E+10	1	-1E+10	1
4902551	43	C	10/17/2021	07:05	-134.301	49.667	0	477.80	0	4.2290	0	34.0420	0	27.004	0	473.172	0	37.7	4	12.0	4	-1E+10	1	-1E+10	1	-1E+10	1	-1E+10	1	-1E+10	1	-1E+10	1
4902551	43	C	10/17/2021	07:05	-134.301	49.667	0	482.70	0	4.2210	0	34.0450	0	27.007	0	478.019	0	37.1	4	11.8	4	-1E+10	1	-1E+10	1	-1E+10	1	-1E+10	1	-1E+10	1	-1E+10	1
4902551	43	C	10/17/2021	07:05	-134.301	49.667	0	487.80	0	4.2130	0	34.0480	0	27.011	0	483.063	0	36.5	4	11.6	4	-1E+10	1	-1E+10	1	-1E+10	1	-1E+10	1	-1E+10	1	-1E+10	1
4902551	43	C	10/17/2021	07:05	-134.301	49.667	0	493.00	0	4.2020	0	34.0520	0	27.015	0	488.207	0	35.7	4	11.3	4	-1E+10	1	-1E+10	1	-1E+10	1	-1E+10	1	-1E+10	1	-1E+10	1
4902551	43	C	10/17/2021	07:05	-134.301	49.667	0	497.90	0	4.1870	0	34.0580	0	27.021	0	493.053	0	34.8	4	11.0	4	-1E+10	1	-1E+10	1	-1E+10	1	-1E+10	1	-1E+10	1	-1E+10	1
4902551	43	C	10/17/2021	07:05	-134.301	49.667	0	502.90	0	4.1720	0	34.0630	0	27.027	0	497.999	0	33.9	4	10.7	4	-1E+10	1	-1E+10	1	-1E+10	1	-1E+10	1	-1E+10	1	-1E+10	1
4902551	43	C	10/17/2021	07:05	-134.301	49.667	0	508.00	0	4.1610	0	34.0680	0	27.032	0	503.043	0	32.9	4	10.4	4	-1E+10	1	-1E+10	1	-1E+10	1	-1E+10	1	-1E+10	1	-1E+10	1
4902551	43	C	10/17/2021	07:05	-134.301	49.667	0	512.80	0	4.1460	0	34.0740	0	27.038	0	507.790	0	32.1	4	10.2	4	-1E+10	1	-1E+10	1	-1E+10	1	-1E+10	1	-1E+10	1	-1E+10	1
4902551	43	C	10/17/2021	07:05	-134.301	49.667	0	517.70	0	4.1310	0	34.0790	0	27.044	0	512.636	0	31.5	4	10.0	4	-1E+10	1	-1E+10	1	-1E+10	1	-1E+10	1	-1E+10	1	-1E+10	1
4902551	43	C	10/17/2021	07:05	-134.301	49.667	0	522.70	0	4.1200	0	34.0830	0	27.048	0	517.581	0	30.9	4	9.8	4	-1E+10	1	-1E+10	1	-1E+10	1	-1E+10	1	-1E+10	1	-1E+10	1
4902551	43	C	10/17/2021	07:05	-134.301	49.667	0	527.70	0	4.1080	0	34.0870	0	27.053	0	522.526	0	30.4	4	9.6	4	-1E+10	1	-1E+10	1	-1E+10	1	-1E+10	1	-1E+10	1	-1E+10	1
4902551	43	C	10/17/2021	07:05	-134.301	49.667	0	532.90	0	4.0940	0	34.0920	0	27.058	0	527.668	0	29.9	4	9.5	4	-1E+10	1	-1E+10	1	-1E+10	1	-1E+10	1	-1E+10	1	-1E+10	1
4902551	43	C	10/17/2021	07:05	-134.301	49.667	0	538.10	0	4.0780	0	34.0960	0	27.063	0	532.810	0	29.5	4	9.3	4	-1E+10	1	-1E+10	1	-1E+10	1	-1E+10	1	-1E+10	1	-1E+10	1
4902551	43	C	10/17/2021	07:05	-134.301	49.667	0	542.90	0	4.0590	0	34.1010	0	27.069	0	537.557	0	29.1	4	9.2	4	-1E+10	1	-1E+10	1	-1E+10	1	-1E+10	1	-1E+10	1	-1E+10	1
4902551	43	C	10/17/2021	07:05	-134.301	49.667	0	547.60	0	4.0440	0	34.1060	0	27.075	0	542.205	0	28.7	4	9.1	4	-1E+10	1	-1E+10	1	-1E+10	1	-1E+10	1	-1E+10	1	-1E+10	1
4902551	43	C	10/17/2021	07:05	-134.301	49.667	0	552.90	0	4.0370	0	34.1080	0	27.077	0	547.445	0	28.2	4	8.9	4	-1E+10	1	-1E+10	1	-1E+10	1	-1E+10	1	-1E+10	1	-1E+10	1
4902551	43	C	10/17/2021	07:05	-134.301	49.667	0	558.20	0	4.0220	0	34.1140	0	27.083	0	552.686	0	27.9	4	8.8	4	-1E+10	1	-1E+10	1	-1E+10	1	-1E+10	1	-1E+10	1	-1E+10	1
4902551	43	C	10/17/2021	07:05	-134.301	49.667	0	562.80	0	4.0170	0	34.1150	0	27.085	0	557.235	0	27.7	4	8.7	4	-1E+10	1	-1E+10	1	-1E+10	1	-1E+10	1	-1E+10	1	-1E+10	1
4902551	43	C	10/17/2021	07:05	-134.301	49.667	0	567.50	0	4.0120	0	34.1170	0	27.087	0	561.882	0	27.5	4	8.7	4	-1E+10	1	-1E+10	1	-1E+10	1	-1E+10	1	-1E+10	1	-1E+10	1
4902551	43	C	10/17/2021	07:05	-134.301	49.667	0	572.70	0	4.0060	0	34.1190	0	27.089	0	567.023	0	27.2	4	8.6	4	-1E+10	1	-1E+10	1	-1E+10	1	-1E+10	1	-1E+10	1	-1E+10	1
4902551	43	C	10/17/2021	07:05	-134.301	49.667	0	577.90	0	3.9950	0	34.1220	0	27.093	0	572.165	0	26.9	4	8.5	4	-1E+10	1	-1E+10	1	-1E+10	1	-1E+10	1	-1E+10	1	-1E+10	1
4902551	43	C	10/17/2021	07:05	-134.301	49.667	0	583.10	0	3.9860	0	34.1240	0	27.095	0	577.306	0	26.6	4	8.4	4	-1E+10	1	-1E+10	1	-1E+10	1	-1E+10	1	-1E+10	1	-1E+10	1
4902551	43	C	10/17/2021	07:05	-134.301	49.667	0	587.80	0	3.9800	0	34.1270	0	27.098	0	581.952	0	26.3	4	8.3	4	-1E+10	1	-1E+10	1	-1E+10	1	-1E+10	1	-1E+10	1	-1E+10	1
4902551	43	C	10/17/2021	07:05	-134.301	49.667	0	592.50	0	3.9690	0	34.1290	0	27.101	0	586.599	0	25.9	4	8.2	4	-1E+10	1	-1E+10	1	-1E+10	1	-1E+10	1	-1E+10	1	-1E+10	1
4902551	43	C	10/17/2021	07:05	-134.301	49.667	0	597.80	0	3.9610	0	34.1330	0	27.105	0	591.839	0	25.4	4	8.0	4	-1E+10	1	-1E+10	1	-1E+10	1	-1E+10	1	-1E+10	1	-1E+10	1
4902551	43	C	10/17/2021	07:05	-134.301	49.667	0	602.90	0	3.9490	0	34.1370	0	27.109	0	596.881	0	24.9	4	7.8	4	-1E+10	1	-1E+10	1	-1E+10	1	-1E+10	1	-1E+10	1	-1E+10	1
4902551	43	C	10/17/2021	07:05	-134.301	49.667	0	608.00	0	3.9330	0	34.1410	0	27.114	0	601.922	0	24.4	4	7.7	4	-1E+10	1	-1E+10	1	-1E+10	1	-1E+10	1	-1E+10	1	-1E+10	1
4902551	43	C	10/17/2021	07:05	-134.301	49.667	0	613.10	0	3.9130	0	34.1490	0	27.123	0	606.964	0	23.9	4	7.5	4	-1E+10	1	-1E+10	1	-1E+10	1	-1E+10	1	-1E+10	1	-1E+10	1
4902551	43	C	10/17/2021	07:05	-134.301	49.667	0	618.00	0	3.8990	0	34.1530	0	27.127	0	611.808	0	23.5	4	7.4	4	-1E+10	1	-1E+10	1	-1E+10	1	-1E+10	1	-1E+10	1	-1E+10	1
4902551	43	C	10/17/2021	07:05	-134.301	49.667	0	623.00	0	3.8830	0	34.1580	0	27.133	0	616.750	0	23.1	4	7.3	4	-1E+10	1	-1E+10	1	-1E+10	1	-1E+10	1	-1E+10	1	-1E+10	1
4902551	43	C	10/17/2021	07:05	-134.301	49.667	0	628.00	0	3.8680	0	34.1630	0	27.138	0	621.692	0	22.8	4	7.2	4	-1E+10	1	-1E+10	1	-1E+10	1	-1E+10	1	-1E+10	1	-1E+10	1
4902551	43	C	10/17/2021	07:05	-134.301	49.667	0	632.90	0	3.8590	0	34.1650	0	27.141	0	626.536	0	22.4	4	7.1	4	-1E+10	1	-1E+10	1	-1E+10	1	-1E+10	1	-1E+10	1	-1E+10	1
4902551	43	C	10/17/2021	07:05	-134.301	49.667	0	637.90	0	3.8380	0	34.1710	0	27.148	0	631.478	0	22.1	4	6.9	4	-1E+10	1	-1E+10	1	-1E+10	1	-1E+10	1	-1E+10	1	-1E+10	1
4902551	43	C	10/17/2021	07:05	-134.301	49.667	0	642.90	0	3.8270	0	34.1740	0	27.151	0	636.420	0	21.8	4	6.8	4	-1E+10	1	-1E+10	1	-1E+10	1	-1E+10	1	-1E+10	1	-1E+10	1
4902551	43	C	10/17/2021	07:05	-134.301	49.667	0	647.80	0	3.8150	0	34.1770	0	27.155	0	641.263	0	21.4	4	6.7	4	-1E+10	1	-1E+10	1	-1E+10	1	-1E+10	1	-1E+10	1	-1E+10	1
4902551	43	C	10/17/2021	07:05	-134.301	49.667	0	652.70	0	3.8040	0	34.1800	0	27.158	0	646.106	0	21.1	4	6.6	4	-1E+10	1	-1E+10	1	-1E+10	1	-1E+10	1	-1E+10	1	-1E+10	1
4902551	43	C	10/17/2021	07:05	-134.301	49.667	0	657.60	0	3.7920	0	34.1830	0	27.162	0	650.949	0	20.8	4	6.5	4	-1E+10	1	-1E+10	1	-1E+10	1	-1E+10	1	-1E+10	1	-1E+10	1
4902551	43	C	10/17/2021	07:05	-134.301	49.667	0	662.90	0	3.7800	0	34.1880	0	27.167	0	656.187	0	20.3	4	6.4	4	-1E+10	1	-1E+10	1	-1E+10	1	-1E+10	1	-1E+10	1	-1E+10	1
4902551	43	C	10/17/2021	07:05	-134.301	49.667	0	668.40	0	3.7630	0	34.1920	0	27.172	0	661.623	0	20.1	4	6.3	4	-1E+10	1	-1E+10	1	-1E+10	1	-1E+10	1	-1E+10	1	-1E+10	1
4902551	43	C	10/17/2021	07:05	-134.301	49.667	0	673.30	0	3.7450	0	34.1960	0	27.177	0	666.465	0	19.8	4	6.2	4	-1E+10	1	-1E+10	1	-1E+10	1	-1E+10	1	-1E+10	1	-1E+10	1
4902551	43	C	10/17/2021	07:05	-134.301	49.667	0	678.40	0	3.7260	0	34.2020	0	27.184	0	671.505	0	19.5	4	6.1	4	-1E+10	1	-1E+10	1	-1E+10	1	-1E+10	1	-1E+10	1	-1E+10	1
4902551	43	C	10/17/2021	07:05	-134.301	49.667	0	683.40	0	3.7070	0	34.2070	0	27.190	0	676.446	0	19.3	4	6.0	4	-1E+10	1	-1E+10	1	-1E+10	1	-1E+10	1	-1E+10	1	-1E+10	1
4902551	43	C	10/17/2021	07:05	-134.301	49.667	0	687.90	0	3.6940	0	34.2100	0	27.193	0	680.893	0	19.1	4	6.0	4	-1E+10	1	-1E+10	1	-1E+10	1	-1E+10	1	-1E+10	1	-1E+10	1
4902551	43	C	10/17/2021	07:05	-134.301	49.667	0	692.50	0	3.6900	0	34.2110	0	27.195	0	685.439	0	19.0	4	6.0	4	-1E+10	1	-1E+10	1	-1E+10	1	-1E+10	1	-1E+10	1	-1E+10	1
4902551	43	C	10/17/2021	07:05	-134.301	49.667	0	697.50	0	3.6820	0	34.2130	0	27.197	0	690.379	0	18.7	4	5.9	4	-1E+10	1	-1E+10	1	-1E+10	1	-1E+10	1	-1E+10	1	-1E+10	1
4902551	43	C	10/17/2021	07:05	-134.301	49.667	0	702.60	0	3.6660	0	34.2170	0	27.202	0	695.419	0	18.5	4	5.8	4	-1E+10	1	-1E+10	1	-1E+10	1	-1E+10	1	-1E+10	1	-1E+10	1
4902551	43	C	10/17/2021	07:05	-134.301	49.667	0	707.80	0	3.6550	0	34.2200	0	27.205	0	700.557	0	18.2	4	5.7	4	-1E+10	1	-1E+10	1	-1E+10	1	-1E+10	1	-1E+10	1	-1E+10	1
4902551	43	C	10/17/2021	07:05	-134.301	49.667	0	713.00	0	3.6410	0	34.2250	0	27.211	0	705.695	0	17.8	4	5.6	4	-1E+10	1	-1E+10	1	-1E+10	1	-1E+10	1	-1E+10	1	-1E+10	1
4902551	43	C	10/17/2021	07:05	-134.301	49.667	0	718.20	0	3.6270	0	34.2280	0	27.215	0	710.833	0	17.6	4	5.5	4	-1E+10	1	-1E+10	1	-1E+10	1	-1E+10	1	-1E+10	1	-1E+10	1
4902551	43	C	10/17/2021	07:05	-134.301	49.667	0	723.10	0	3.6210	0	34.2300	0	27.217	0	715.674	0	17.3	4	5.4	4	-1E+10	1	-1E+10	1	-1E+10	1	-1E+10	1	-1E+10	1	-1E+10	1
4902551	43	C	10/17/2021	07:05	-134.301	49.667	0	728.10	0	3.6110	0	34.2330	0	27.220	0	720.614	0	17.0	4	5.3	4	-1E+10	1	-1E+10	1	-1E+10	1	-1E+10	1	-1E+10	1	-1E+10	1
4902551	43	C	10/17/2021	07:05	-134.301	49.667	0	732.80	0	3.6010	0	34.2370	0	27.224	0	725.258	0	16.7	4	5.2	4	-1E+10	1	-1E+10	1	-1E+10	1	-1E+10	1	-1E+10	1	-1E+10	1
4902551	43	C	10/17/2021	07:05	-134.301	49.667	0	737.60	0	3.5900	0	34.2390	0	27.227	0	730.000	0	16.4	4	5.1	4	-1E+10	1	-1E+10	1	-1E+10	1	-1E+10	1	-1E+10	1	-1E+10	1
4902551	43	C	10/17/2021	07:05	-134.301	49.667	0	742.90	0	3.5730	0	34.2450	0	27.234	0	735.236	0	16.0	4	5.0	4	-1E+10	1	-1E+10	1	-1E+10	1	-1E+10	1	-1E+10	1	-1E+10	1
4902551	43	C	10/17/2021	07:05	-134.301	49.667	0	747.90	0	3.5600	0	34.2490	0	27.238	0	740.175	0	15.8	4	4.9	4	-1E+10	1	-1E+10	1	-1E+10	1	-1E+10	1	-1E+10	1	-1E+10	1
4902551	43	C	10/17/2021	07:05	-134.301	49.667	0	752.60	0	3.5510	0	34.2520	0	27.241	0	744.818	0	15.7	4	4.9	4	-1E+10	1	-1E+10	1	-1E+10	1	-1E+10	1	-1E+10	1	-1E+10	1
4902551	43	C	10/17/2021	07:05	-134.301	49.667	0	757.80	0	3.5400	0	34.2550	0	27.245	0	749.955	0	15.6	4	4.9	4	-1E+10	1	-1E+10	1	-1E+10	1	-1E+10	1	-1E+10	1	-1E+10	1
4902551	43	C	10/17/2021	07:05	-134.301	49.667	0	763.10	0	3.5340	0	34.2560	0	27.246	0	755.191	0	15.6	4	4.9	4	-1E+10	1	-1E+10	1	-1E+10	1	-1E+10	1	-1E+10	1	-1E+10	1
4902551	43	C	10/17/2021	07:05	-134.301	49.667	0	768.00	0	3.5160	0	34.2590	0	27.250	0	760.031	0	15.5	4	4.8	4	-1E+10	1	-1E+10	1	-1E+10	1	-1E+10	1	-1E+10	1	-1E+10	1
4902551	43	C	10/17/2021	07:05	-134.301	49.667	0	772.90	0	3.5080	0	34.2610	0	27.253	0	764.871	0	15.3	4	4.8	4	-1E+10	1	-1E+10	1	-1E+10	1	-1E+10	1	-1E+10	1	-1E+10	1
4902551	43	C	10/17/2021	07:05	-134.301	49.667	0	777.90	0	3.5000	0	34.2630	0	27.255	0	769.810	0	15.0	4	4.7	4	-1E+10	1	-1E+10	1	-1E+10	1	-1E+10	1	-1E+10	1	-1E+10	1
4902551	43	C	10/17/2021	07:05	-134.301	49.667	0	782.90	0	3.4940	0	34.2670	0	27.259	0	774.749	0	14.8	4	4.6	4	-1E+10	1	-1E+10	1	-1E+10	1	-1E+10	1	-1E+10	1	-1E+10	1
4902551	43	C	10/17/2021	07:05	-134.301	49.667	0	788.00	0	3.4930	0	34.2680	0	27.260	0	779.786	0	14.6	4	4.6	4	-1E+10	1	-1E+10	1	-1E+10	1	-1E+10	1	-1E+10	1	-1E+10	1
4902551	43	C	10/17/2021	07:05	-134.301	49.667	0	793.20	0	3.4870	0	34.2710	0	27.263	0	784.922	0	14.5	4	4.5	4	-1E+10	1	-1E+10	1	-1E+10	1	-1E+10	1	-1E+10	1	-1E+10	1
4902551	43	C	10/17/2021	07:05	-134.301	49.667	0	798.00	0	3.4790	0	34.2730	0	27.265	0	789.663	0	14.5	4	4.5	4	-1E+10	1	-1E+10	1	-1E+10	1	-1E+10	1	-1E+10	1	-1E+10	1
4902551	43	C	10/17/2021	07:05	-134.301	49.667	0	802.80	0	3.4680	0	34.2740	0	27.267	0	794.404	0	14.6	4	4.5	4	-1E+10	1	-1E+10	1	-1E+10	1	-1E+10	1	-1E+10	1	-1E+10	1
4902551	43	C	10/17/2021	07:05	-134.301	49.667	0	808.20	0	3.4550	0	34.2760	0	27.270	0	799.737	0	14.5	4	4.5	4	-1E+10	1	-1E+10	1	-1E+10	1	-1E+10	1	-1E+10	1	-1E+10	1
4902551	43	C	10/17/2021	07:05	-134.301	49.667	0	813.10	0	3.4440	0	34.2780	0	27.273	0	804.576	0	14.5	4	4.5	4	-1E+10	1	-1E+10	1	-1E+10	1	-1E+10	1	-1E+10	1	-1E+10	1
4902551	43	C	10/17/2021	07:05	-134.301	49.667	0	817.80	0	3.4360	0	34.2790	0	27.274	0	809.218	0	14.5	4	4.5	4	-1E+10	1	-1E+10	1	-1E+10	1	-1E+10	1	-1E+10	1	-1E+10	1
4902551	43	C	10/17/2021	07:05	-134.301	49.667	0	822.70	0	3.4300	0	34.2810	0	27.276	0	814.057	0	14.4	4	4.5	4	-1E+10	1	-1E+10	1	-1E+10	1	-1E+10	1	-1E+10	1	-1E+10	1
4902551	43	C	10/17/2021	07:05	-134.301	49.667	0	827.80	0	3.4290	0	34.2810	0	27.277	0	819.094	0	14.4	4	4.5	4	-1E+10	1	-1E+10	1	-1E+10	1	-1E+10	1	-1E+10	1	-1E+10	1
4902551	43	C	10/17/2021	07:05	-134.301	49.667	0	833.00	0	3.4200	0	34.2830	0	27.279	0	824.229	0	14.4	4	4.5	4	-1E+10	1	-1E+10	1	-1E+10	1	-1E+10	1	-1E+10	1	-1E+10	1
4902551	43	C	10/17/2021	07:05	-134.301	49.667	0	837.70	0	3.4070	0	34.2850	0	27.282	0	828.870	0	14.4	4	4.5	4	-1E+10	1	-1E+10	1	-1E+10	1	-1E+10	1	-1E+10	1	-1E+10	1
4902551	43	C	10/17/2021	07:05	-134.301	49.667	0	842.90	0	3.3930	0	34.2870	0	27.285	0	834.005	0	14.4	4	4.5	4	-1E+10	1	-1E+10	1	-1E+10	1	-1E+10	1	-1E+10	1	-1E+10	1
4902551	43	C	10/17/2021	07:05	-134.301	49.667	0	848.30	0	3.3850	0	34.2890	0	27.287	0	839.337	0	14.3	4	4.4	4	-1E+10	1	-1E+10	1	-1E+10	1	-1E+10	1	-1E+10	1	-1E+10	1
4902551	43	C	10/17/2021	07:05	-134.301	49.667	0	852.90	0	3.3790	0	34.2910	0	27.289	0	843.879	0	14.1	4	4.4	4	-1E+10	1	-1E+10	1	-1E+10	1	-1E+10	1	-1E+10	1	-1E+10	1
4902551	43	C	10/17/2021	07:05	-134.301	49.667	0	857.60	0	3.3570	0	34.2960	0	27.296	0	848.520	0	14.0	4	4.4	4	-1E+10	1	-1E+10	1	-1E+10	1	-1E+10	1	-1E+10	1	-1E+10	1
4902551	43	C	10/17/2021	07:05	-134.301	49.667	0	862.70	0	3.3480	0	34.2980	0	27.298	0	853.555	0	14.0	4	4.3	4	-1E+10	1	-1E+10	1	-1E+10	1	-1E+10	1	-1E+10	1	-1E+10	1
4902551	43	C	10/17/2021	07:05	-134.301	49.667	0	867.80	0	3.3340	0	34.3010	0	27.302	0	858.591	0	13.8	4	4.3	4	-1E+10	1	-1E+10	1	-1E+10	1	-1E+10	1	-1E+10	1	-1E+10	1
4902551	43	C	10/17/2021	07:05	-134.301	49.667	0	873.00	0	3.3180	0	34.3040	0	27.306	0	863.725	0	13.7	4	4.3	4	-1E+10	1	-1E+10	1	-1E+10	1	-1E+10	1	-1E+10	1	-1E+10	1
4902551	43	C	10/17/2021	07:05	-134.301	49.667	0	877.80	0	3.3100	0	34.3060	0	27.308	0	868.464	0	13.6	4	4.2	4	-1E+10	1	-1E+10	1	-1E+10	1	-1E+10	1	-1E+10	1	-1E+10	1
4902551	43	C	10/17/2021	07:05	-134.301	49.667	0	882.70	0	3.3050	0	34.3070	0	27.309	0	873.301	0	13.5	4	4.2	4	-1E+10	1	-1E+10	1	-1E+10	1	-1E+10	1	-1E+10	1	-1E+10	1
4902551	43	C	10/17/2021	07:05	-134.301	49.667	0	887.70	0	3.2950	0	34.3090	0	27.312	0	878.238	0	13.5	4	4.2	4	-1E+10	1	-1E+10	1	-1E+10	1	-1E+10	1	-1E+10	1	-1E+10	1
4902551	43	C	10/17/2021	07:05	-134.301	49.667	0	892.80	0	3.2780	0	34.3130	0	27.317	0	883.273	0	13.4	4	4.2	4	-1E+10	1	-1E+10	1	-1E+10	1	-1E+10	1	-1E+10	1	-1E+10	1
4902551	43	C	10/17/2021	07:05	-134.301	49.667	0	897.90	0	3.2710	0	34.3150	0	27.319	0	888.307	0	13.3	4	4.1	4	-1E+10	1	-1E+10	1	-1E+10	1	-1E+10	1	-1E+10	1	-1E+10	1
4902551	43	C	10/17/2021	07:05	-134.301	49.667	0	902.60	0	3.2660	0	34.3160	0	27.320	0	892.947	0	13.3	4	4.1	4	-1E+10	1	-1E+10	1	-1E+10	1	-1E+10	1	-1E+10	1	-1E+10	1
4902551	43	C	10/17/2021	07:05	-134.301	49.667	0	907.90	0	3.2550	0	34.3180	0	27.323	0	898.179	0	13.2	4	4.1	4	-1E+10	1	-1E+10	1	-1E+10	1	-1E+10	1	-1E+10	1	-1E+10	1
4902551	43	C	10/17/2021	07:05	-134.301	49.667	0	913.20	0	3.2410	0	34.3220	0	27.328	0	903.411	0	13.2	4	4.1	4	-1E+10	1	-1E+10	1	-1E+10	1	-1E+10	1	-1E+10	1	-1E+10	1
4902551	43	C	10/17/2021	07:05	-134.301	49.667	0	918.10	0	3.2300	0	34.3240	0	27.330	0	908.248	0	13.2	4	4.1	4	-1E+10	1	-1E+10	1	-1E+10	1	-1E+10	1	-1E+10	1	-1E+10	1
4902551	43	C	10/17/2021	07:05	-134.301	49.667	0	923.00	0	3.2190	0	34.3260	0	27.333	0	913.084	0	13.1	4	4.1	4	-1E+10	1	-1E+10	1	-1E+10	1	-1E+10	1	-1E+10	1	-1E+10	1
4902551	43	C	10/17/2021	07:05	-134.301	49.667	0	927.80	0	3.2140	0	34.3270	0	27.334	0	917.822	0	13.1	4	4.1	4	-1E+10	1	-1E+10	1	-1E+10	1	-1E+10	1	-1E+10	1	-1E+10	1
4902551	43	C	10/17/2021	07:05	-134.301	49.667	0	932.70	0	3.2070	0	34.3290	0	27.336	0	922.659	0	13.1	4	4.1	4	-1E+10	1	-1E+10	1	-1E+10	1	-1E+10	1	-1E+10	1	-1E+10	1
4902551	43	C	10/17/2021	07:05	-134.301	49.667	0	937.70	0	3.1920	0	34.3320	0	27.340	0	927.594	0	13.0	4	4.0	4	-1E+10	1	-1E+10	1	-1E+10	1	-1E+10	1	-1E+10	1	-1E+10	1
4902551	43	C	10/17/2021	07:05	-134.301	49.667	0	942.60	0	3.1830	0	34.3340	0	27.343	0	932.430	0	13.0	4	4.0	4	-1E+10	1	-1E+10	1	-1E+10	1	-1E+10	1	-1E+10	1	-1E+10	1
4902551	43	C	10/17/2021	07:05	-134.301	49.667	0	947.70	0	3.1760	0	34.3360	0	27.345	0	937.464	0	13.0	4	4.0	4	-1E+10	1	-1E+10	1	-1E+10	1	-1E+10	1	-1E+10	1	-1E+10	1
4902551	43	C	10/17/2021	07:05	-134.301	49.667	0	952.70	0	3.1700	0	34.3380	0	27.347	0	942.399	0	12.9	4	4.0	4	-1E+10	1	-1E+10	1	-1E+10	1	-1E+10	1	-1E+10	1	-1E+10	1
4902551	43	C	10/17/2021	07:05	-134.301	49.667	0	957.70	0	3.1590	0	34.3390	0	27.349	0	947.333	0	12.9	4	4.0	4	-1E+10	1	-1E+10	1	-1E+10	1	-1E+10	1	-1E+10	1	-1E+10	1
4902551	43	C	10/17/2021	07:05	-134.301	49.667	0	962.70	0	3.1450	0	34.3430	0	27.353	0	952.268	0	12.8	4	4.0	4	-1E+10	1	-1E+10	1	-1E+10	1	-1E+10	1	-1E+10	1	-1E+10	1
4902551	43	C	10/17/2021	07:05	-134.301	49.667	0	967.80	0	3.1310	0	34.3460	0	27.357	0	957.301	0	12.8	4	3.9	4	-1E+10	1	-1E+10	1	-1E+10	1	-1E+10	1	-1E+10	1	-1E+10	1
4902551	43	C	10/17/2021	07:05	-134.301	49.667	0	972.90	0	3.1220	0	34.3480	0	27.360	0	962.334	0	12.7	4	3.9	4	-1E+10	1	-1E+10	1	-1E+10	1	-1E+10	1	-1E+10	1	-1E+10	1
4902551	43	C	10/17/2021	07:05	-134.301	49.667	0	978.10	0	3.1090	0	34.3510	0	27.363	0	967.465	0	12.7	4	3.9	4	-1E+10	1	-1E+10	1	-1E+10	1	-1E+10	1	-1E+10	1	-1E+10	1
4902551	43	C	10/17/2021	07:05	-134.301	49.667	0	983.20	0	3.1000	0	34.3530	0	27.366	0	972.498	0	12.7	4	3.9	4	-1E+10	1	-1E+10	1	-1E+10	1	-1E+10	1	-1E+10	1	-1E+10	1
4902551	43	C	10/17/2021	07:05	-134.301	49.667	0	988.30	0	3.0940	0	34.3540	0	27.367	0	977.531	0	12.7	4	3.9	4	-1E+10	1	-1E+10	1	-1E+10	1	-1E+10	1	-1E+10	1	-1E+10	1
4902551	43	C	10/17/2021	07:05	-134.301	49.667	0	992.90	0	3.0820	0	34.3570	0	27.371	0	982.070	0	12.6	4	3.9	4	-1E+10	1	-1E+10	1	-1E+10	1	-1E+10	1	-1E+10	1	-1E+10	1
4902551	43	C	10/17/2021	07:05	-134.301	49.667	0	997.50	0	3.0750	0	34.3580	0	27.372	0	986.609	0	12.6	4	3.9	4	-1E+10	1	-1E+10	1	-1E+10	1	-1E+10	1	-1E+10	1	-1E+10	1
4902551	43	C	10/17/2021	07:05	-134.301	49.667	0	1005.20	0	3.0660	0	34.3600	0	27.374	0	994.206	0	12.6	4	3.9	4	-1E+10	1	-1E+10	1	-1E+10	1	-1E+10	1	-1E+10	1	-1E+10	1
4902551	43	C	10/17/2021	07:05	-134.301	49.667	0	1015.60	0	3.0470	0	34.3650	0	27.380	0	1004.468	0	12.6	4	3.9	4	-1E+10	1	-1E+10	1	-1E+10	1	-1E+10	1	-1E+10	1	-1E+10	1
4902551	43	C	10/17/2021	07:05	-134.301	49.667	0	1025.40	0	3.0250	0	34.3700	0	27.386	0	1014.137	0	12.6	4	3.9	4	-1E+10	1	-1E+10	1	-1E+10	1	-1E+10	1	-1E+10	1	-1E+10	1
4902551	43	C	10/17/2021	07:05	-134.301	49.667	0	1035.20	0	3.0070	0	34.3740	0	27.391	0	1023.805	0	12.6	4	3.9	4	-1E+10	1	-1E+10	1	-1E+10	1	-1E+10	1	-1E+10	1	-1E+10	1
4902551	43	C	10/17/2021	07:05	-134.301	49.667	0	1045.60	0	2.9890	0	34.3780	0	27.396	0	1034.065	0	12.5	4	3.9	4	-1E+10	1	-1E+10	1	-1E+10	1	-1E+10	1	-1E+10	1	-1E+10	1
4902551	43	C	10/17/2021	07:05	-134.301	49.667	0	1055.50	0	2.9760	0	34.3820	0	27.400	0	1043.831	0	12.5	4	3.9	4	-1E+10	1	-1E+10	1	-1E+10	1	-1E+10	1	-1E+10	1	-1E+10	1
4902551	43	C	10/17/2021	07:05	-134.301	49.667	0	1065.10	0	2.9610	0	34.3850	0	27.404	0	1053.301	0	12.5	4	3.9	4	-1E+10	1	-1E+10	1	-1E+10	1	-1E+10	1	-1E+10	1	-1E+10	1
4902551	43	C	10/17/2021	07:05	-134.301	49.667	0	1075.20	0	2.9450	0	34.3890	0	27.409	0	1063.263	0	12.5	4	3.9	4	-1E+10	1	-1E+10	1	-1E+10	1	-1E+10	1	-1E+10	1	-1E+10	1
4902551	43	C	10/17/2021	07:05	-134.301	49.667	0	1085.70	0	2.9350	0	34.3920	0	27.412	0	1073.620	0	12.5	4	3.8	4	-1E+10	1	-1E+10	1	-1E+10	1	-1E+10	1	-1E+10	1	-1E+10	1
4902551	43	C	10/17/2021	07:05	-134.301	49.667	0	1095.90	0	2.9250	0	34.3950	0	27.416	0	1083.680	0	12.5	4	3.9	4	-1E+10	1	-1E+10	1	-1E+10	1	-1E+10	1	-1E+10	1	-1E+10	1
4902551	43	C	10/17/2021	07:05	-134.301	49.667	0	1105.20	0	2.9170	0	34.3960	0	27.417	0	1092.852	0	12.5	4	3.9	4	-1E+10	1	-1E+10	1	-1E+10	1	-1E+10	1	-1E+10	1	-1E+10	1
4902551	43	C	10/17/2021	07:05	-134.301	49.667	0	1115.40	0	2.8910	0	34.4030	0	27.425	0	1102.912	0	12.6	4	3.9	4	-1E+10	1	-1E+10	1	-1E+10	1	-1E+10	1	-1E+10	1	-1E+10	1
4902551	43	C	10/17/2021	07:05	-134.301	49.667	0	1125.50	0	2.8730	0	34.4070	0	27.430	0	1112.872	0	12.7	4	3.9	4	-1E+10	1	-1E+10	1	-1E+10	1	-1E+10	1	-1E+10	1	-1E+10	1
4902551	43	C	10/17/2021	07:05	-134.301	49.667	0	1135.30	0	2.8640	0	34.4090	0	27.432	0	1122.536	0	12.7	4	3.9	4	-1E+10	1	-1E+10	1	-1E+10	1	-1E+10	1	-1E+10	1	-1E+10	1
4902551	43	C	10/17/2021	07:05	-134.301	49.667	0	1145.20	0	2.8490	0	34.4120	0	27.436	0	1132.298	0	12.8	4	3.9	4	-1E+10	1	-1E+10	1	-1E+10	1	-1E+10	1	-1E+10	1	-1E+10	1
4902551	43	C	10/17/2021	07:05	-134.301	49.667	0	1155.20	0	2.8380	0	34.4140	0	27.439	0	1142.158	0	12.9	4	4.0	4	-1E+10	1	-1E+10	1	-1E+10	1	-1E+10	1	-1E+10	1	-1E+10	1
4902551	43	C	10/17/2021	07:05	-134.301	49.667	0	1165.60	0	2.8250	0	34.4170	0	27.442	0	1152.412	0	13.0	4	4.0	4	-1E+10	1	-1E+10	1	-1E+10	1	-1E+10	1	-1E+10	1	-1E+10	1
4902551	43	C	10/17/2021	07:05	-134.301	49.667	0	1175.50	0	2.8120	0	34.4200	0	27.446	0	1162.173	0	13.1	4	4.0	4	-1E+10	1	-1E+10	1	-1E+10	1	-1E+10	1	-1E+10	1	-1E+10	1
4902551	43	C	10/17/2021	07:05	-134.301	49.667	0	1185.30	0	2.8010	0	34.4220	0	27.449	0	1171.834	0	13.2	4	4.1	4	-1E+10	1	-1E+10	1	-1E+10	1	-1E+10	1	-1E+10	1	-1E+10	1
4902551	43	C	10/17/2021	07:05	-134.301	49.667	0	1195.30	0	2.7830	0	34.4260	0	27.454	0	1181.692	0	13.4	4	4.1	4	-1E+10	1	-1E+10	1	-1E+10	1	-1E+10	1	-1E+10	1	-1E+10	1
4902551	43	C	10/17/2021	07:05	-134.301	49.667	0	1205.40	0	2.7710	0	34.4280	0	27.456	0	1191.649	0	13.5	4	4.1	4	-1E+10	1	-1E+10	1	-1E+10	1	-1E+10	1	-1E+10	1	-1E+10	1
4902551	43	C	10/17/2021	07:05	-134.301	49.667	0	1215.70	0	2.7540	0	34.4310	0	27.460	0	1201.802	0	13.7	4	4.2	4	-1E+10	1	-1E+10	1	-1E+10	1	-1E+10	1	-1E+10	1	-1E+10	1
4902551	43	C	10/17/2021	07:05	-134.301	49.667	0	1225.60	0	2.7400	0	34.4340	0	27.464	0	1211.560	0	13.8	4	4.2	4	-1E+10	1	-1E+10	1	-1E+10	1	-1E+10	1	-1E+10	1	-1E+10	1
4902551	43	C	10/17/2021	07:05	-134.301	49.667	0	1235.60	0	2.7310	0	34.4360	0	27.466	0	1221.417	0	14.0	4	4.3	4	-1E+10	1	-1E+10	1	-1E+10	1	-1E+10	1	-1E+10	1	-1E+10	1
4902551	43	C	10/17/2021	07:05	-134.301	49.667	0	1245.50	0	2.7130	0	34.4390	0	27.470	0	1231.174	0	14.2	4	4.4	4	-1E+10	1	-1E+10	1	-1E+10	1	-1E+10	1	-1E+10	1	-1E+10	1
4902551	43	C	10/17/2021	07:05	-134.301	49.667	0	1255.40	0	2.7020	0	34.4410	0	27.473	0	1240.931	0	14.4	4	4.4	4	-1E+10	1	-1E+10	1	-1E+10	1	-1E+10	1	-1E+10	1	-1E+10	1
4902551	43	C	10/17/2021	07:05	-134.301	49.667	0	1265.40	0	2.6850	0	34.4440	0	27.477	0	1250.786	0	14.7	4	4.5	4	-1E+10	1	-1E+10	1	-1E+10	1	-1E+10	1	-1E+10	1	-1E+10	1
4902551	43	C	10/17/2021	07:05	-134.301	49.667	0	1275.40	0	2.6690	0	34.4470	0	27.481	0	1260.641	0	14.8	4	4.5	4	-1E+10	1	-1E+10	1	-1E+10	1	-1E+10	1	-1E+10	1	-1E+10	1
4902551	43	C	10/17/2021	07:05	-134.301	49.667	0	1285.10	0	2.6610	0	34.4490	0	27.483	0	1270.199	0	15.0	4	4.6	4	-1E+10	1	-1E+10	1	-1E+10	1	-1E+10	1	-1E+10	1	-1E+10	1
4902551	43	C	10/17/2021	07:05	-134.301	49.667	0	1295.20	0	2.6470	0	34.4510	0	27.486	0	1280.151	0	15.2	4	4.6	4	-1E+10	1	-1E+10	1	-1E+10	1	-1E+10	1	-1E+10	1	-1E+10	1
4902551	43	C	10/17/2021	07:05	-134.301	49.667	0	1305.30	0	2.6380	0	34.4530	0	27.488	0	1290.103	0	15.3	4	4.7	4	-1E+10	1	-1E+10	1	-1E+10	1	-1E+10	1	-1E+10	1	-1E+10	1
4902551	43	C	10/17/2021	07:05	-134.301	49.667	0	1315.60	0	2.6260	0	34.4540	0	27.490	0	1300.251	0	15.5	4	4.7	4	-1E+10	1	-1E+10	1	-1E+10	1	-1E+10	1	-1E+10	1	-1E+10	1
4902551	43	C	10/17/2021	07:05	-134.301	49.667	0	1325.70	0	2.6190	0	34.4550	0	27.492	0	1310.202	0	15.6	4	4.8	4	-1E+10	1	-1E+10	1	-1E+10	1	-1E+10	1	-1E+10	1	-1E+10	1
4902551	43	C	10/17/2021	07:05	-134.301	49.667	0	1335.30	0	2.6130	0	34.4570	0	27.494	0	1319.660	0	15.8	4	4.8	4	-1E+10	1	-1E+10	1	-1E+10	1	-1E+10	1	-1E+10	1	-1E+10	1
4902551	43	C	10/17/2021	07:05	-134.301	49.667	0	1345.50	0	2.6030	0	34.4590	0	27.496	0	1329.708	0	16.0	4	4.9	4	-1E+10	1	-1E+10	1	-1E+10	1	-1E+10	1	-1E+10	1	-1E+10	1
4902551	43	C	10/17/2021	07:05	-134.301	49.667	0	1355.70	0	2.5940	0	34.4610	0	27.499	0	1339.756	0	16.2	4	5.0	4	-1E+10	1	-1E+10	1	-1E+10	1	-1E+10	1	-1E+10	1	-1E+10	1
4902551	43	C	10/17/2021	07:05	-134.301	49.667	0	1365.60	0	2.5860	0	34.4620	0	27.500	0	1349.508	0	16.5	4	5.1	4	-1E+10	1	-1E+10	1	-1E+10	1	-1E+10	1	-1E+10	1	-1E+10	1
4902551	43	C	10/17/2021	07:05	-134.301	49.667	0	1375.70	0	2.5700	0	34.4650	0	27.504	0	1359.457	0	17.0	4	5.2	4	-1E+10	1	-1E+10	1	-1E+10	1	-1E+10	1	-1E+10	1	-1E+10	1
4902551	43	C	10/17/2021	07:05	-134.301	49.667	0	1385.30	0	2.5570	0	34.4680	0	27.508	0	1368.912	0	17.4	4	5.3	4	-1E+10	1	-1E+10	1	-1E+10	1	-1E+10	1	-1E+10	1	-1E+10	1
4902551	43	C	10/17/2021	07:05	-134.301	49.667	0	1395.10	0	2.5410	0	34.4720	0	27.512	0	1378.564	0	17.7	4	5.4	4	-1E+10	1	-1E+10	1	-1E+10	1	-1E+10	1	-1E+10	1	-1E+10	1
4902551	43	C	10/17/2021	07:05	-134.301	49.667	0	1405.40	0	2.5330	0	34.4730	0	27.514	0	1388.708	0	18.0	4	5.5	4	-1E+10	1	-1E+10	1	-1E+10	1	-1E+10	1	-1E+10	1	-1E+10	1
4902551	43	C	10/17/2021	07:05	-134.301	49.667	0	1415.30	0	2.5260	0	34.4750	0	27.516	0	1398.458	0	18.1	4	5.5	4	-1E+10	1	-1E+10	1	-1E+10	1	-1E+10	1	-1E+10	1	-1E+10	1
4902551	43	C	10/17/2021	07:05	-134.301	49.667	0	1425.10	0	2.5180	0	34.4760	0	27.518	0	1408.109	0	18.4	4	5.6	4	-1E+10	1	-1E+10	1	-1E+10	1	-1E+10	1	-1E+10	1	-1E+10	1
4902551	43	C	10/17/2021	07:05	-134.301	49.667	0	1435.10	0	2.5110	0	34.4770	0	27.519	0	1417.956	0	18.7	4	5.7	4	-1E+10	1	-1E+10	1	-1E+10	1	-1E+10	1	-1E+10	1	-1E+10	1
4902551	43	C	10/17/2021	07:05	-134.301	49.667	0	1445.70	0	2.5060	0	34.4790	0	27.521	0	1428.393	0	19.0	4	5.8	4	-1E+10	1	-1E+10	1	-1E+10	1	-1E+10	1	-1E+10	1	-1E+10	1
4902551	43	C	10/17/2021	07:05	-134.301	49.667	0	1455.50	0	2.4960	0	34.4810	0	27.524	0	1438.043	0	19.5	4	5.9	4	-1E+10	1	-1E+10	1	-1E+10	1	-1E+10	1	-1E+10	1	-1E+10	1
4902551	43	C	10/17/2021	07:05	-134.301	49.667	0	1465.10	0	2.4820	0	34.4830	0	27.526	0	1447.495	0	20.1	4	6.1	4	-1E+10	1	-1E+10	1	-1E+10	1	-1E+10	1	-1E+10	1	-1E+10	1
4902551	43	C	10/17/2021	07:05	-134.301	49.667	0	1475.40	0	2.4590	0	34.4880	0	27.532	0	1457.635	0	20.7	4	6.3	4	-1E+10	1	-1E+10	1	-1E+10	1	-1E+10	1	-1E+10	1	-1E+10	1
4902551	43	C	10/17/2021	07:05	-134.301	49.667	0	1485.70	0	2.4480	0	34.4890	0	27.534	0	1467.776	0	21.2	4	6.5	4	-1E+10	1	-1E+10	1	-1E+10	1	-1E+10	1	-1E+10	1	-1E+10	1
4902551	43	C	10/17/2021	07:05	-134.301	49.667	0	1495.40	0	2.4240	0	34.4930	0	27.539	0	1477.325	0	21.9	4	6.7	4	-1E+10	1	-1E+10	1	-1E+10	1	-1E+10	1	-1E+10	1	-1E+10	1
4902551	43	C	10/17/2021	07:05	-134.301	49.667	0	1505.10	0	2.4080	0	34.4960	0	27.543	0	1486.873	0	22.4	4	6.8	4	-1E+10	1	-1E+10	1	-1E+10	1	-1E+10	1	-1E+10	1	-1E+10	1
4902551	43	C	10/17/2021	07:05	-134.301	49.667	0	1515.50	0	2.4000	0	34.4970	0	27.545	0	1497.111	0	22.8	4	6.9	4	-1E+10	1	-1E+10	1	-1E+10	1	-1E+10	1	-1E+10	1	-1E+10	1
4902551	43	C	10/17/2021	07:05	-134.301	49.667	0	1525.80	0	2.3870	0	34.5000	0	27.548	0	1507.249	0	23.5	4	7.2	4	-1E+10	1	-1E+10	1	-1E+10	1	-1E+10	1	-1E+10	1	-1E+10	1
4902551	43	C	10/17/2021	07:05	-134.301	49.667	0	1535.40	0	2.3680	0	34.5030	0	27.552	0	1516.698	0	24.0	4	7.3	4	-1E+10	1	-1E+10	1	-1E+10	1	-1E+10	1	-1E+10	1	-1E+10	1
4902551	43	C	10/17/2021	07:05	-134.301	49.667	0	1545.30	0	2.3570	0	34.5050	0	27.555	0	1526.441	0	24.4	4	7.4	4	-1E+10	1	-1E+10	1	-1E+10	1	-1E+10	1	-1E+10	1	-1E+10	1
4902551	43	C	10/17/2021	07:05	-134.301	49.667	0	1555.30	0	2.3460	0	34.5070	0	27.557	0	1536.283	0	24.9	4	7.6	4	-1E+10	1	-1E+10	1	-1E+10	1	-1E+10	1	-1E+10	1	-1E+10	1
4902551	43	C	10/17/2021	07:05	-134.301	49.667	0	1565.40	0	2.3290	0	34.5100	0	27.561	0	1546.223	0	25.5	4	7.7	4	-1E+10	1	-1E+10	1	-1E+10	1	-1E+10	1	-1E+10	1	-1E+10	1
4902551	43	C	10/17/2021	07:05	-134.301	49.667	0	1575.60	0	2.3160	0	34.5120	0	27.564	0	1556.260	0	25.9	4	7.9	4	-1E+10	1	-1E+10	1	-1E+10	1	-1E+10	1	-1E+10	1	-1E+10	1
4902551	43	C	10/17/2021	07:05	-134.301	49.667	0	1585.40	0	2.3010	0	34.5140	0	27.567	0	1565.904	0	26.5	4	8.0	4	-1E+10	1	-1E+10	1	-1E+10	1	-1E+10	1	-1E+10	1	-1E+10	1
4902551	43	C	10/17/2021	07:05	-134.301	49.667	0	1595.60	0	2.2920	0	34.5160	0	27.569	0	1575.940	0	27.0	4	8.2	4	-1E+10	1	-1E+10	1	-1E+10	1	-1E+10	1	-1E+10	1	-1E+10	1
4902551	43	C	10/17/2021	07:05	-134.301	49.667	0	1605.50	0	2.2790	0	34.5180	0	27.572	0	1585.681	0	27.7	4	8.4	4	-1E+10	1	-1E+10	1	-1E+10	1	-1E+10	1	-1E+10	1	-1E+10	1
4902551	43	C	10/17/2021	07:05	-134.301	49.667	0	1615.40	0	2.2700	0	34.5200	0	27.574	0	1595.422	0	28.1	4	8.5	4	-1E+10	1	-1E+10	1	-1E+10	1	-1E+10	1	-1E+10	1	-1E+10	1
4902551	43	C	10/17/2021	07:05	-134.301	49.667	0	1625.60	0	2.2640	0	34.5210	0	27.576	0	1605.457	0	28.8	4	8.7	4	-1E+10	1	-1E+10	1	-1E+10	1	-1E+10	1	-1E+10	1	-1E+10	1
4902551	43	C	10/17/2021	07:05	-134.301	49.667	0	1635.30	0	2.2480	0	34.5240	0	27.579	0	1615.000	0	29.7	4	9.0	4	-1E+10	1	-1E+10	1	-1E+10	1	-1E+10	1	-1E+10	1	-1E+10	1
4902551	43	C	10/17/2021	07:05	-134.301	49.667	0	1645.20	0	2.2280	0	34.5270	0	27.583	0	1624.739	0	30.5	4	9.2	4	-1E+10	1	-1E+10	1	-1E+10	1	-1E+10	1	-1E+10	1	-1E+10	1
4902551	43	C	10/17/2021	07:05	-134.301	49.667	0	1655.20	0	2.2200	0	34.5290	0	27.586	0	1634.576	0	31.0	4	9.4	4	-1E+10	1	-1E+10	1	-1E+10	1	-1E+10	1	-1E+10	1	-1E+10	1
4902551	43	C	10/17/2021	07:05	-134.301	49.667	0	1665.20	0	2.2090	0	34.5310	0	27.588	0	1644.413	0	31.7	4	9.6	4	-1E+10	1	-1E+10	1	-1E+10	1	-1E+10	1	-1E+10	1	-1E+10	1
4902551	43	C	10/17/2021	07:05	-134.301	49.667	0	1675.60	0	2.1980	0	34.5330	0	27.591	0	1654.642	0	32.5	4	9.8	4	-1E+10	1	-1E+10	1	-1E+10	1	-1E+10	1	-1E+10	1	-1E+10	1
4902551	43	C	10/17/2021	07:05	-134.301	49.667	0	1685.50	0	2.1850	0	34.5360	0	27.594	0	1664.380	0	33.1	4	10.0	4	-1E+10	1	-1E+10	1	-1E+10	1	-1E+10	1	-1E+10	1	-1E+10	1
4902551	43	C	10/17/2021	07:05	-134.301	49.667	0	1695.20	0	2.1750	0	34.5370	0	27.596	0	1673.920	0	33.7	4	10.2	4	-1E+10	1	-1E+10	1	-1E+10	1	-1E+10	1	-1E+10	1	-1E+10	1
4902551	43	C	10/17/2021	07:05	-134.301	49.667	0	1705.20	0	2.1640	0	34.5390	0	27.598	0	1683.755	0	34.3	4	10.4	4	-1E+10	1	-1E+10	1	-1E+10	1	-1E+10	1	-1E+10	1	-1E+10	1
4902551	43	C	10/17/2021	07:05	-134.301	49.667	0	1715.50	0	2.1560	0	34.5410	0	27.601	0	1693.884	0	34.7	4	10.5	4	-1E+10	1	-1E+10	1	-1E+10	1	-1E+10	1	-1E+10	1	-1E+10	1
4902551	43	C	10/17/2021	07:05	-134.301	49.667	0	1725.20	0	2.1470	0	34.5420	0	27.602	0	1703.423	0	35.3	4	10.7	4	-1E+10	1	-1E+10	1	-1E+10	1	-1E+10	1	-1E+10	1	-1E+10	1
4902551	43	C	10/17/2021	07:05	-134.301	49.667	0	1735.30	0	2.1420	0	34.5440	0	27.604	0	1713.355	0	35.8	4	10.8	4	-1E+10	1	-1E+10	1	-1E+10	1	-1E+10	1	-1E+10	1	-1E+10	1
4902551	43	C	10/17/2021	07:05	-134.301	49.667	0	1745.40	0	2.1340	0	34.5450	0	27.606	0	1723.286	0	36.4	4	11.0	4	-1E+10	1	-1E+10	1	-1E+10	1	-1E+10	1	-1E+10	1	-1E+10	1
4902551	43	C	10/17/2021	07:05	-134.301	49.667	0	1755.30	0	2.1230	0	34.5470	0	27.608	0	1733.020	0	37.0	4	11.2	4	-1E+10	1	-1E+10	1	-1E+10	1	-1E+10	1	-1E+10	1	-1E+10	1
4902551	43	C	10/17/2021	07:05	-134.301	49.667	0	1765.30	0	2.1140	0	34.5480	0	27.610	0	1742.852	0	37.7	4	11.4	4	-1E+10	1	-1E+10	1	-1E+10	1	-1E+10	1	-1E+10	1	-1E+10	1
4902551	43	C	10/17/2021	07:05	-134.301	49.667	0	1775.40	0	2.1040	0	34.5510	0	27.613	0	1752.782	0	38.4	4	11.6	4	-1E+10	1	-1E+10	1	-1E+10	1	-1E+10	1	-1E+10	1	-1E+10	1
4902551	43	C	10/17/2021	07:05	-134.301	49.667	0	1785.50	0	2.0960	0	34.5530	0	27.615	0	1762.711	0	39.1	4	11.8	4	-1E+10	1	-1E+10	1	-1E+10	1	-1E+10	1	-1E+10	1	-1E+10	1
4902551	43	C	10/17/2021	07:05	-134.301	49.667	0	1795.40	0	2.0860	0	34.5550	0	27.618	0	1772.444	0	39.7	4	12.0	4	-1E+10	1	-1E+10	1	-1E+10	1	-1E+10	1	-1E+10	1	-1E+10	1
4902551	43	C	10/17/2021	07:05	-134.301	49.667	0	1805.40	0	2.0820	0	34.5560	0	27.619	0	1782.274	0	40.2	4	12.1	4	-1E+10	1	-1E+10	1	-1E+10	1	-1E+10	1	-1E+10	1	-1E+10	1
4902551	43	C	10/17/2021	07:05	-134.301	49.667	0	1815.60	0	2.0750	0	34.5570	0	27.620	0	1792.300	0	40.8	4	12.3	4	-1E+10	1	-1E+10	1	-1E+10	1	-1E+10	1	-1E+10	1	-1E+10	1
4902551	43	C	10/17/2021	07:05	-134.301	49.667	0	1825.40	0	2.0660	0	34.5590	0	27.623	0	1801.933	0	41.5	4	12.5	4	-1E+10	1	-1E+10	1	-1E+10	1	-1E+10	1	-1E+10	1	-1E+10	1
4902551	43	C	10/17/2021	07:05	-134.301	49.667	0	1835.40	0	2.0580	0	34.5600	0	27.624	0	1811.762	0	42.1	4	12.7	4	-1E+10	1	-1E+10	1	-1E+10	1	-1E+10	1	-1E+10	1	-1E+10	1
4902551	43	C	10/17/2021	07:05	-134.301	49.667	0	1845.80	0	2.0460	0	34.5620	0	27.627	0	1821.984	0	43.0	4	13.0	4	-1E+10	1	-1E+10	1	-1E+10	1	-1E+10	1	-1E+10	1	-1E+10	1
4902551	43	C	10/17/2021	07:05	-134.301	49.667	0	1855.60	0	2.0370	0	34.5640	0	27.629	0	1831.615	0	43.6	4	13.1	4	-1E+10	1	-1E+10	1	-1E+10	1	-1E+10	1	-1E+10	1	-1E+10	1
4902551	43	C	10/17/2021	07:05	-134.301	49.667	0	1865.70	0	2.0320	0	34.5650	0	27.631	0	1841.541	0	44.1	4	13.3	4	-1E+10	1	-1E+10	1	-1E+10	1	-1E+10	1	-1E+10	1	-1E+10	1
4902551	43	C	10/17/2021	07:05	-134.301	49.667	0	1875.50	0	2.0210	0	34.5670	0	27.633	0	1851.171	0	44.9	4	13.5	4	-1E+10	1	-1E+10	1	-1E+10	1	-1E+10	1	-1E+10	1	-1E+10	1
4902551	43	C	10/17/2021	07:05	-134.301	49.667	0	1885.50	0	2.0130	0	34.5680	0	27.635	0	1860.998	0	45.3	4	13.7	4	-1E+10	1	-1E+10	1	-1E+10	1	-1E+10	1	-1E+10	1	-1E+10	1
4902551	43	C	10/17/2021	07:05	-134.301	49.667	0	1895.80	0	2.0080	0	34.5700	0	27.637	0	1871.119	0	45.9	4	13.9	4	-1E+10	1	-1E+10	1	-1E+10	1	-1E+10	1	-1E+10	1	-1E+10	1
4902551	43	C	10/17/2021	07:05	-134.301	49.667	0	1905.50	0	2.0010	0	34.5710	0	27.638	0	1880.649	0	46.3	4	13.9	4	-1E+10	1	-1E+10	1	-1E+10	1	-1E+10	1	-1E+10	1	-1E+10	1
4902551	43	C	10/17/2021	07:05	-134.301	49.667	0	1915.40	0	2.0000	0	34.5720	0	27.639	0	1890.376	0	46.5	4	14.0	4	-1E+10	1	-1E+10	1	-1E+10	1	-1E+10	1	-1E+10	1	-1E+10	1
4902551	43	C	10/17/2021	07:05	-134.301	49.667	0	1925.20	0	1.9980	0	34.5720	0	27.639	0	1900.005	0	46.8	4	14.1	4	-1E+10	1	-1E+10	1	-1E+10	1	-1E+10	1	-1E+10	1	-1E+10	1
4902551	43	C	10/17/2021	07:05	-134.301	49.667	0	1935.10	0	1.9960	0	34.5730	0	27.640	0	1909.731	0	47.0	4	14.2	4	-1E+10	1	-1E+10	1	-1E+10	1	-1E+10	1	-1E+10	1	-1E+10	1
4902551	43	C	10/17/2021	07:05	-134.301	49.667	0	1945.40	0	1.9950	0	34.5730	0	27.640	0	1919.849	0	47.3	4	14.3	4	-1E+10	1	-1E+10	1	-1E+10	1	-1E+10	1	-1E+10	1	-1E+10	1
4902551	43	C	10/17/2021	07:05	-134.301	49.667	0	1955.60	0	1.9890	0	34.5740	0	27.642	0	1929.869	0	47.9	4	14.4	4	-1E+10	1	-1E+10	1	-1E+10	1	-1E+10	1	-1E+10	1	-1E+10	1
4902551	43	C	10/17/2021	07:05	-134.301	49.667	0	1965.30	0	1.9810	0	34.5750	0	27.643	0	1939.397	0	48.5	4	14.6	4	-1E+10	1	-1E+10	1	-1E+10	1	-1E+10	1	-1E+10	1	-1E+10	1
4902551	43	C	10/17/2021	07:05	-134.301	49.667	0	1975.40	0	1.9770	0	34.5760	0	27.644	0	1949.318	0	49.0	4	14.8	4	-1E+10	1	-1E+10	1	-1E+10	1	-1E+10	1	-1E+10	1	-1E+10	1
4902551	43	C	10/17/2021	07:05	-134.301	49.667	0	1985.50	0	1.9670	0	34.5780	0	27.647	0	1959.238	0	49.7	4	15.0	4	-1E+10	1	-1E+10	1	-1E+10	1	-1E+10	1	-1E+10	1	-1E+10	1
4902551	43	C	10/17/2021	07:05	-134.301	49.667	0	1995.20	0	1.9620	0	34.5790	0	27.648	0	1968.765	0	50.1	4	15.1	4	-1E+10	1	-1E+10	1	-1E+10	1	-1E+10	1	-1E+10	1	-1E+10	1
4902551	43	C	10/17/2021	07:05	-134.301	49.667	0	2005.00	0	1.9570	0	34.5810	0	27.650	0	1978.390	0	50.5	4	15.2	4	-1E+10	1	-1E+10	1	-1E+10	1	-1E+10	1	-1E+10	1	-1E+10	1
4902551	43	C	10/17/2021	07:05	-134.301	49.667	0	2015.30	0	1.9550	0	34.5810	0	27.650	0	1988.505	0	50.6	4	15.2	4	-1E+10	1	-1E+10	1	-1E+10	1	-1E+10	1	-1E+10	1	-1E+10	1
4902551	43	C	10/17/2021	07:05	-134.301	49.667	0	2025.20	0	1.9520	0	34.5820	0	27.651	0	1998.227	0	50.6	4	15.2	4	-1E+10	1	-1E+10	1	-1E+10	1	-1E+10	1	-1E+10	1	-1E+10	1
4902551	43	C	10/17/2021	07:05	-134.301	49.667	0																										
4902551	44	C	10/27/2021	11:57	-134.166	49.735	0	0.40	0	10.9460	0	32.2200	0	24.621	0	0.397	0	255.4	4	93.1	4	-1E+10	1	-1E+10	1	-1E+10	1	-1E+10	1	-1E+10	1	-1E+10	1
4902551	44	C	10/27/2021	11:57	-134.166	49.735	0	1.10	0	10.9450	0	32.2200	0	24.622	0	1.091	0	255.4	4	93.0	4	-1E+10	1	-1E+10	1	-1E+10	1	-1E+10	1	-1E+10	1	-1E+10	1
4902551	44	C	10/27/2021	11:57	-134.166	49.735	0	2.00	0	10.9450	0	32.2210	0	24.622	0	1.983	0	255.4	4	93.0	4	-1E+10	1	-1E+10	1	-1E+10	1	-1E+10	1	-1E+10	1	-1E+10	1
4902551	44	C	10/27/2021	11:57	-134.166	49.735	0	3.00	0	10.9460	0	32.2200	0	24.621	0	2.974	0	255.3	4	93.0	4	-1E+10	1	-1E+10	1	-1E+10	1	-1E+10	1	-1E+10	1	-1E+10	1
4902551	44	C	10/27/2021	11:57	-134.166	49.735	0	4.00	0	10.9460	0	32.2210	0	24.622	0	3.966	0	255.3	4	93.0	4	-1E+10	1	-1E+10	1	-1E+10	1	-1E+10	1	-1E+10	1	-1E+10	1
4902551	44	C	10/27/2021	11:57	-134.166	49.735	0	5.00	0	10.9450	0	32.2200	0	24.622	0	4.957	0	255.3	4	93.0	4	-1E+10	1	-1E+10	1	-1E+10	1	-1E+10	1	-1E+10	1	-1E+10	1
4902551	44	C	10/27/2021	11:57	-134.166	49.735	0	6.00	0	10.9450	0	32.2220	0	24.623	0	5.949	0	255.2	4	93.0	4	-1E+10	1	-1E+10	1	-1E+10	1	-1E+10	1	-1E+10	1	-1E+10	1
4902551	44	C	10/27/2021	11:57	-134.166	49.735	0	7.00	0	10.9450	0	32.2220	0	24.623	0	6.940	0	255.2	4	93.0	4	-1E+10	1	-1E+10	1	-1E+10	1	-1E+10	1	-1E+10	1	-1E+10	1
4902551	44	C	10/27/2021	11:57	-134.166	49.735	0	8.40	0	10.9460	0	32.2220	0	24.623	0	8.328	0	255.2	4	93.0	4	-1E+10	1	-1E+10	1	-1E+10	1	-1E+10	1	-1E+10	1	-1E+10	1
4902551	44	C	10/27/2021	11:57	-134.166	49.735	0	9.00	0	10.9450	0	32.2220	0	24.623	0	8.923	0	255.2	4	93.0	4	-1E+10	1	-1E+10	1	-1E+10	1	-1E+10	1	-1E+10	1	-1E+10	1
4902551	44	C	10/27/2021	11:57	-134.166	49.735	0	9.80	0	10.9480	0	32.2220	0	24.623	0	9.716	0	255.2	4	93.0	4	-1E+10	1	-1E+10	1	-1E+10	1	-1E+10	1	-1E+10	1	-1E+10	1
4902551	44	C	10/27/2021	11:57	-134.166	49.735	0	10.90	0	10.9480	0	32.2220	0	24.623	0	10.807	0	255.1	4	92.9	4	-1E+10	1	-1E+10	1	-1E+10	1	-1E+10	1	-1E+10	1	-1E+10	1
4902551	44	C	10/27/2021	11:57	-134.166	49.735	0	12.00	0	10.9490	0	32.2220	0	24.623	0	11.897	0	255.1	4	93.0	4	-1E+10	1	-1E+10	1	-1E+10	1	-1E+10	1	-1E+10	1	-1E+10	1
4902551	44	C	10/27/2021	11:57	-134.166	49.735	0	13.00	0	10.9480	0	32.2230	0	24.624	0	12.888	0	255.1	4	92.9	4	-1E+10	1	-1E+10	1	-1E+10	1	-1E+10	1	-1E+10	1	-1E+10	1
4902551	44	C	10/27/2021	11:57	-134.166	49.735	0	13.90	0	10.9480	0	32.2220	0	24.623	0	13.781	0	255.2	4	93.0	4	-1E+10	1	-1E+10	1	-1E+10	1	-1E+10	1	-1E+10	1	-1E+10	1
4902551	44	C	10/27/2021	11:57	-134.166	49.735	0	14.90	0	10.9470	0	32.2220	0	24.623	0	14.772	0	255.1	4	92.9	4	-1E+10	1	-1E+10	1	-1E+10	1	-1E+10	1	-1E+10	1	-1E+10	1
4902551	44	C	10/27/2021	11:57	-134.166	49.735	0	15.90	0	10.9470	0	32.2230	0	24.624	0	15.763	0	255.0	4	92.9	4	-1E+10	1	-1E+10	1	-1E+10	1	-1E+10	1	-1E+10	1	-1E+10	1
4902551	44	C	10/27/2021	11:57	-134.166	49.735	0	17.00	0	10.9480	0	32.2220	0	24.623	0	16.854	0	255.1	4	92.9	4	-1E+10	1	-1E+10	1	-1E+10	1	-1E+10	1	-1E+10	1	-1E+10	1
4902551	44	C	10/27/2021	11:57	-134.166	49.735	0	17.80	0	10.9480	0	32.2230	0	24.624	0	17.647	0	255.1	4	92.9	4	-1E+10	1	-1E+10	1	-1E+10	1	-1E+10	1	-1E+10	1	-1E+10	1
4902551	44	C	10/27/2021	11:57	-134.166	49.735	0	18.80	0	10.9480	0	32.2230	0	24.624	0	18.638	0	255.1	4	92.9	4	-1E+10	1	-1E+10	1	-1E+10	1	-1E+10	1	-1E+10	1	-1E+10	1
4902551	44	C	10/27/2021	11:57	-134.166	49.735	0	20.10	0	10.9480	0	32.2220	0	24.623	0	19.927	0	255.1	4	92.9	4	-1E+10	1	-1E+10	1	-1E+10	1	-1E+10	1	-1E+10	1	-1E+10	1
4902551	44	C	10/27/2021	11:57	-134.166	49.735	0	21.00	0	10.9480	0	32.2220	0	24.623	0	20.819	0	255.1	4	92.9	4	-1E+10	1	-1E+10	1	-1E+10	1	-1E+10	1	-1E+10	1	-1E+10	1
4902551	44	C	10/27/2021	11:57	-134.166	49.735	0	22.00	0	10.9500	0	32.2190	0	24.620	0	21.811	0	255.0	4	92.9	4	-1E+10	1	-1E+10	1	-1E+10	1	-1E+10	1	-1E+10	1	-1E+10	1
4902551	44	C	10/27/2021	11:57	-134.166	49.735	0	23.00	0	10.9480	0	32.2230	0	24.624	0	22.802	0	255.1	4	92.9	4	-1E+10	1	-1E+10	1	-1E+10	1	-1E+10	1	-1E+10	1	-1E+10	1
4902551	44	C	10/27/2021	11:57	-134.166	49.735	0	23.90	0	10.9520	0	32.2200	0	24.621	0	23.694	0	255.0	4	92.9	4	-1E+10	1	-1E+10	1	-1E+10	1	-1E+10	1	-1E+10	1	-1E+10	1
4902551	44	C	10/27/2021	11:57	-134.166	49.735	0	24.90	0	10.9500	0	32.2220	0	24.623	0	24.686	0	255.1	4	92.9	4	-1E+10	1	-1E+10	1	-1E+10	1	-1E+10	1	-1E+10	1	-1E+10	1
4902551	44	C	10/27/2021	11:57	-134.166	49.735	0	25.90	0	10.9490	0	32.2230	0	24.624	0	25.677	0	255.0	4	92.9	4	-1E+10	1	-1E+10	1	-1E+10	1	-1E+10	1	-1E+10	1	-1E+10	1
4902551	44	C	10/27/2021	11:57	-134.166	49.735	0	26.80	0	10.9490	0	32.2210	0	24.622	0	26.569	0	255.0	4	92.9	4	-1E+10	1	-1E+10	1	-1E+10	1	-1E+10	1	-1E+10	1	-1E+10	1
4902551	44	C	10/27/2021	11:57	-134.166	49.735	0	28.00	0	10.9520	0	32.2220	0	24.622	0	27.759	0	255.1	4	92.9	4	-1E+10	1	-1E+10	1	-1E+10	1	-1E+10	1	-1E+10	1	-1E+10	1
4902551	44	C	10/27/2021	11:57	-134.166	49.735	0	28.90	0	10.9500	0	32.2220	0	24.623	0	28.651	0	255.0	4	92.9	4	-1E+10	1	-1E+10	1	-1E+10	1	-1E+10	1	-1E+10	1	-1E+10	1
4902551	44	C	10/27/2021	11:57	-134.166	49.735	0	29.90	0	10.9470	0	32.2220	0	24.623	0	29.642	0	255.1	4	92.9	4	-1E+10	1	-1E+10	1	-1E+10	1	-1E+10	1	-1E+10	1	-1E+10	1
4902551	44	C	10/27/2021	11:57	-134.166	49.735	0	30.80	0	10.9470	0	32.2230	0	24.624	0	30.534	0	255.0	4	92.9	4	-1E+10	1	-1E+10	1	-1E+10	1	-1E+10	1	-1E+10	1	-1E+10	1
4902551	44	C	10/27/2021	11:57	-134.166	49.735	0	32.00	0	10.9490	0	32.2230	0	24.624	0	31.724	0	255.0	4	92.9	4	-1E+10	1	-1E+10	1	-1E+10	1	-1E+10	1	-1E+10	1	-1E+10	1
4902551	44	C	10/27/2021	11:57	-134.166	49.735	0	33.00	0	10.9490	0	32.2220	0	24.623	0	32.715	0	255.0	4	92.9	4	-1E+10	1	-1E+10	1	-1E+10	1	-1E+10	1	-1E+10	1	-1E+10	1
4902551	44	C	10/27/2021	11:57	-134.166	49.735	0	34.20	0	10.9510	0	32.2230	0	24.624	0	33.905	0	255.0	4	92.9	4	-1E+10	1	-1E+10	1	-1E+10	1	-1E+10	1	-1E+10	1	-1E+10	1
4902551	44	C	10/27/2021	11:57	-134.166	49.735	0	35.00	0	10.9510	0	32.2230	0	24.624	0	34.698	0	255.0	4	92.9	4	-1E+10	1	-1E+10	1	-1E+10	1	-1E+10	1	-1E+10	1	-1E+10	1
4902551	44	C	10/27/2021	11:57	-134.166	49.735	0	35.90	0	10.9510	0	32.2230	0	24.624	0	35.590	0	254.9	4	92.9	4	-1E+10	1	-1E+10	1	-1E+10	1	-1E+10	1	-1E+10	1	-1E+10	1
4902551	44	C	10/27/2021	11:57	-134.166	49.735	0	36.70	0	10.9510	0	32.2220	0	24.623	0	36.383	0	255.0	4	92.9	4	-1E+10	1	-1E+10	1	-1E+10	1	-1E+10	1	-1E+10	1	-1E+10	1
4902551	44	C	10/27/2021	11:57	-134.166	49.735	0	37.60	0	10.9510	0	32.2210	0	24.622	0	37.275	0	255.0	4	92.9	4	-1E+10	1	-1E+10	1	-1E+10	1	-1E+10	1	-1E+10	1	-1E+10	1
4902551	44	C	10/27/2021	11:57	-134.166	49.735	0	38.60	0	10.9510	0	32.2220	0	24.623	0	38.266	0	255.0	4	92.9	4	-1E+10	1	-1E+10	1	-1E+10	1	-1E+10	1	-1E+10	1	-1E+10	1
4902551	44	C	10/27/2021	11:57	-134.166	49.735	0	39.70	0	10.9510	0	32.2220	0	24.623	0	39.357	0	254.9	4	92.9	4	-1E+10	1	-1E+10	1	-1E+10	1	-1E+10	1	-1E+10	1	-1E+10	1
4902551	44	C	10/27/2021	11:57	-134.166	49.735	0	40.90	0	10.9510	0	32.2230	0	24.624	0	40.546	0	254.9	4	92.9	4	-1E+10	1	-1E+10	1	-1E+10	1	-1E+10	1	-1E+10	1	-1E+10	1
4902551	44	C	10/27/2021	11:57	-134.166	49.735	0	42.40	0	10.9510	0	32.2220	0	24.623	0	42.033	0	255.0	4	92.9	4	-1E+10	1	-1E+10	1	-1E+10	1	-1E+10	1	-1E+10	1	-1E+10	1
4902551	44	C	10/27/2021	11:57	-134.166	49.735	0	43.20	0	10.9510	0	32.2230	0	24.624	0	42.826	0	255.0	4	92.9	4	-1E+10	1	-1E+10	1	-1E+10	1	-1E+10	1	-1E+10	1	-1E+10	1
4902551	44	C	10/27/2021	11:57	-134.166	49.735	0	44.10	0	10.9520	0	32.2230	0	24.624	0	43.718	0	254.9	4	92.9	4	-1E+10	1	-1E+10	1	-1E+10	1	-1E+10	1	-1E+10	1	-1E+10	1
4902551	44	C	10/27/2021	11:57	-134.166	49.735	0	45.10	0	10.9510	0	32.2230	0	24.624	0	44.710	0	255.0	4	92.9	4	-1E+10	1	-1E+10	1	-1E+10	1	-1E+10	1	-1E+10	1	-1E+10	1
4902551	44	C	10/27/2021	11:57	-134.166	49.735	0	46.00	0	10.9510	0	32.2230	0	24.624	0	45.602	0	255.0	4	92.9	4	-1E+10	1	-1E+10	1	-1E+10	1	-1E+10	1	-1E+10	1	-1E+10	1
4902551	44	C	10/27/2021	11:57	-134.166	49.735	0	46.80	0	10.9520	0	32.2230	0	24.624	0	46.395	0	255.0	4	92.9	4	-1E+10	1	-1E+10	1	-1E+10	1	-1E+10	1	-1E+10	1	-1E+10	1
4902551	44	C	10/27/2021	11:57	-134.166	49.735	0	47.60	0	10.9520	0	32.2230	0	24.624	0	47.188	0	255.0	4	92.9	4	-1E+10	1	-1E+10	1	-1E+10	1	-1E+10	1	-1E+10	1	-1E+10	1
4902551	44	C	10/27/2021	11:57	-134.166	49.735	0	48.90	0	10.9520	0	32.2230	0	24.624	0	48.476	0	255.0	4	92.9	4	-1E+10	1	-1E+10	1	-1E+10	1	-1E+10	1	-1E+10	1	-1E+10	1
4902551	44	C	10/27/2021	11:57	-134.166	49.735	0	50.10	0	10.9520	0	32.2230	0	24.624	0	49.666	0	255.0	4	92.9	4	-1E+10	1	-1E+10	1	-1E+10	1	-1E+10	1	-1E+10	1	-1E+10	1
4902551	44	C	10/27/2021	11:57	-134.166	49.735	0	50.90	0	10.9530	0	32.2230	0	24.624	0	50.459	0	255.0	4	92.9	4	-1E+10	1	-1E+10	1	-1E+10	1	-1E+10	1	-1E+10	1	-1E+10	1
4902551	44	C	10/27/2021	11:57	-134.166	49.735	0	51.80	0	10.9530	0	32.2240	0	24.624	0	51.351	0	255.0	4	92.9	4	-1E+10	1	-1E+10	1	-1E+10	1	-1E+10	1	-1E+10	1	-1E+10	1
4902551	44	C	10/27/2021	11:57	-134.166	49.735	0	52.90	0	10.9530	0	32.2230	0	24.624	0	52.441	0	255.1	4	92.9	4	-1E+10	1	-1E+10	1	-1E+10	1	-1E+10	1	-1E+10	1	-1E+10	1
4902551	44	C	10/27/2021	11:57	-134.166	49.735	0	53.90	0	10.8670	0	32.2300	0	24.644	0	53.432	0	256.0	4	93.1	4	-1E+10	1	-1E+10	1	-1E+10	1	-1E+10	1	-1E+10	1	-1E+10	1
4902551	44	C	10/27/2021	11:57	-134.166	49.735	0	55.10	0	10.6910	0	32.2390	0	24.682	0	54.622	0	257.8	4	93.4	4	-1E+10	1	-1E+10	1	-1E+10	1	-1E+10	1	-1E+10	1	-1E+10	1
4902551	44	C	10/27/2021	11:57	-134.166	49.735	0	56.10	0	10.5420	0	32.2400	0	24.708	0	55.613	0	259.3	4	93.7	4	-1E+10	1	-1E+10	1	-1E+10	1	-1E+10	1	-1E+10	1	-1E+10	1
4902551	44	C	10/27/2021	11:57	-134.166	49.735	0	57.10	0	9.9460	0	32.2740	0	24.834	0	56.604	0	261.4	4	93.2	4	-1E+10	1	-1E+10	1	-1E+10	1	-1E+10	1	-1E+10	1	-1E+10	1
4902551	44	C	10/27/2021	11:57	-134.166	49.735	0	58.00	0	9.6180	0	32.2980	0	24.907	0	57.496	0	262.9	4	93.1	4	-1E+10	1	-1E+10	1	-1E+10	1	-1E+10	1	-1E+10	1	-1E+10	1
4902551	44	C	10/27/2021	11:57	-134.166	49.735	0	59.00	0	8.8090	0	32.3350	0	25.063	0	58.487	0	266.1	4	92.6	4	-1E+10	1	-1E+10	1	-1E+10	1	-1E+10	1	-1E+10	1	-1E+10	1
4902551	44	C	10/27/2021	11:57	-134.166	49.735	0	60.00	0	7.9580	0	32.3760	0	25.221	0	59.478	0	268.0	4	91.6	4	-1E+10	1	-1E+10	1	-1E+10	1	-1E+10	1	-1E+10	1	-1E+10	1
4902551	44	C	10/27/2021	11:57	-134.166	49.735	0	60.80	0	7.5800	0	32.4160	0	25.306	0	60.271	0	269.0	4	91.2	4	-1E+10	1	-1E+10	1	-1E+10	1	-1E+10	1	-1E+10	1	-1E+10	1
4902551	44	C	10/27/2021	11:57	-134.166	49.735	0	61.90	0	7.3850	0	32.4230	0	25.338	0	61.362	0	269.5	4	90.9	4	-1E+10	1	-1E+10	1	-1E+10	1	-1E+10	1	-1E+10	1	-1E+10	1
4902551	44	C	10/27/2021	11:57	-134.166	49.735	0	62.90	0	7.3100	0	32.4240	0	25.349	0	62.353	0	269.7	4	90.8	4	-1E+10	1	-1E+10	1	-1E+10	1	-1E+10	1	-1E+10	1	-1E+10	1
4902551	44	C	10/27/2021	11:57	-134.166	49.735	0	64.10	0	7.1330	0	32.4320	0	25.380	0	63.542	0	270.2	4	90.6	4	-1E+10	1	-1E+10	1	-1E+10	1	-1E+10	1	-1E+10	1	-1E+10	1
4902551	44	C	10/27/2021	11:57	-134.166	49.735	0	65.00	0	7.0450	0	32.4350	0	25.394	0	64.434	0	270.3	4	90.5	4	-1E+10	1	-1E+10	1	-1E+10	1	-1E+10	1	-1E+10	1	-1E+10	1
4902551	44	C	10/27/2021	11:57	-134.166	49.735	0	65.90	0	6.9800	0	32.4430	0	25.409	0	65.326	0	270.4	4	90.4	4	-1E+10	1	-1E+10	1	-1E+10	1	-1E+10	1	-1E+10	1	-1E+10	1
4902551	44	C	10/27/2021	11:57	-134.166	49.735	0	66.90	0	6.9050	0	32.4400	0	25.416	0	66.317	0	270.6	4	90.3	4	-1E+10	1	-1E+10	1	-1E+10	1	-1E+10	1	-1E+10	1	-1E+10	1
4902551	44	C	10/27/2021	11:57	-134.166	49.735	0	67.70	0	6.8720	0	32.4420	0	25.422	0	67.110	0	270.6	4	90.2	4	-1E+10	1	-1E+10	1	-1E+10	1	-1E+10	1	-1E+10	1	-1E+10	1
4902551	44	C	10/27/2021	11:57	-134.166	49.735	0	68.80	0	6.8410	0	32.4420	0	25.426	0	68.200	0	270.7	4	90.2	4	-1E+10	1	-1E+10	1	-1E+10	1	-1E+10	1	-1E+10	1	-1E+10	1
4902551	44	C	10/27/2021	11:57	-134.166	49.735	0	69.90	0	6.8000	0	32.4420	0	25.432	0	69.291	0	270.7	4	90.1	4	-1E+10	1	-1E+10	1	-1E+10	1	-1E+10	1	-1E+10	1	-1E+10	1
4902551	44	C	10/27/2021	11:57	-134.166	49.735	0	71.00	0	6.7720	0	32.4440	0	25.437	0	70.381	0	270.8	4	90.1	4	-1E+10	1	-1E+10	1	-1E+10	1	-1E+10	1	-1E+10	1	-1E+10	1
4902551	44	C	10/27/2021	11:57	-134.166	49.735	0	71.90	0	6.7520	0	32.4460	0	25.441	0	71.273	0	270.9	4	90.1	4	-1E+10	1	-1E+10	1	-1E+10	1	-1E+10	1	-1E+10	1	-1E+10	1
4902551	44	C	10/27/2021	11:57	-134.166	49.735	0	72.80	0	6.7100	0	32.4450	0	25.446	0	72.165	0	271.0	4	90.0	4	-1E+10	1	-1E+10	1	-1E+10	1	-1E+10	1	-1E+10	1	-1E+10	1
4902551	44	C	10/27/2021	11:57	-134.166	49.735	0	73.90	0	6.6500	0	32.4480	0	25.456	0	73.255	0	271.1	4	89.9	4	-1E+10	1	-1E+10	1	-1E+10	1	-1E+10	1	-1E+10	1	-1E+10	1
4902551	44	C	10/27/2021	11:57	-134.166	49.735	0	75.10	0	6.6220	0	32.4490	0	25.460	0	74.444	0	271.1	4	89.9	4	-1E+10	1	-1E+10	1	-1E+10	1	-1E+10	1	-1E+10	1	-1E+10	1
4902551	44	C	10/27/2021	11:57	-134.166	49.735	0	75.90	0	6.6020	0	32.4510	0	25.464	0	75.237	0	271.1	4	89.8	4	-1E+10	1	-1E+10	1	-1E+10	1	-1E+10	1	-1E+10	1	-1E+10	1
4902551	44	C	10/27/2021	11:57	-134.166	49.735	0	76.80	0	6.5820	0	32.4510	0	25.467	0	76.129	0	271.1	4	89.8	4	-1E+10	1	-1E+10	1	-1E+10	1	-1E+10	1	-1E+10	1	-1E+10	1
4902551	44	C	10/27/2021	11:57	-134.166	49.735	0	77.80	0	6.5720	0	32.4490	0	25.467	0	77.120	0	271.1	4	89.8	4	-1E+10	1	-1E+10	1	-1E+10	1	-1E+10	1	-1E+10	1	-1E+10	1
4902551	44	C	10/27/2021	11:57	-134.166	49.735	0	79.00	0	6.5370	0	32.4530	0	25.474	0	78.310	0	271.1	4	89.7	4	-1E+10	1	-1E+10	1	-1E+10	1	-1E+10	1	-1E+10	1	-1E+10	1
4902551	44	C	10/27/2021	11:57	-134.166	49.735	0	80.10	0	6.5100	0	32.4540	0	25.479	0	79.400	0	271.1	4	89.7	4	-1E+10	1	-1E+10	1	-1E+10	1	-1E+10	1	-1E+10	1	-1E+10	1
4902551	44	C	10/27/2021	11:57	-134.166	49.735	0	80.90	0	6.5060	0	32.4530	0	25.478	0	80.193	0	271.0	4	89.6	4	-1E+10	1	-1E+10	1	-1E+10	1	-1E+10	1	-1E+10	1	-1E+10	1
4902551	44	C	10/27/2021	11:57	-134.166	49.735	0	81.80	0	6.4760	0	32.4570	0	25.485	0	81.085	0	271.0	4	89.5	4	-1E+10	1	-1E+10	1	-1E+10	1	-1E+10	1	-1E+10	1	-1E+10	1
4902551	44	C	10/27/2021	11:57	-134.166	49.735	0	82.90	0	6.4450	0	32.4600	0	25.492	0	82.175	0	270.9	4	89.5	4	-1E+10	1	-1E+10	1	-1E+10	1	-1E+10	1	-1E+10	1	-1E+10	1
4902551	44	C	10/27/2021	11:57	-134.166	49.735	0	84.00	0	6.4210	0	32.4610	0	25.496	0	83.265	0	270.8	4	89.4	4	-1E+10	1	-1E+10	1	-1E+10	1	-1E+10	1	-1E+10	1	-1E+10	1
4902551	44	C	10/27/2021	11:57	-134.166	49.735	0	85.10	0	6.3840	0	32.4650	0	25.503	0	84.355	0	270.7	4	89.3	4	-1E+10	1	-1E+10	1	-1E+10	1	-1E+10	1	-1E+10	1	-1E+10	1
4902551	44	C	10/27/2021	11:57	-134.166	49.735	0	86.10	0	6.3650	0	32.4670	0	25.507	0	85.346	0	270.6	4	89.2	4	-1E+10	1	-1E+10	1	-1E+10	1	-1E+10	1	-1E+10	1	-1E+10	1
4902551	44	C	10/27/2021	11:57	-134.166	49.735	0	86.90	0	6.3380	0	32.4690	0	25.512	0	86.139	0	270.5	4	89.1	4	-1E+10	1	-1E+10	1	-1E+10	1	-1E+10	1	-1E+10	1	-1E+10	1
4902551	44	C	10/27/2021	11:57	-134.166	49.735	0	87.90	0	6.3270	0	32.4690	0	25.514	0	87.130	0	270.4	4	89.0	4	-1E+10	1	-1E+10	1	-1E+10	1	-1E+10	1	-1E+10	1	-1E+10	1
4902551	44	C	10/27/2021	11:57	-134.166	49.735	0	88.90	0	6.3230	0	32.4690	0	25.514	0	88.121	0	270.1	4	88.9	4	-1E+10	1	-1E+10	1	-1E+10	1	-1E+10	1	-1E+10	1	-1E+10	1
4902551	44	C	10/27/2021	11:57	-134.166	49.735	0	90.00	0	6.3220	0	32.4690	0	25.514	0	89.211	0	269.7	4	88.8	4	-1E+10	1	-1E+10	1	-1E+10	1	-1E+10	1	-1E+10	1	-1E+10	1
4902551	44	C	10/27/2021	11:57	-134.166	49.735	0	91.00	0	6.3180	0	32.4690	0	25.515	0	90.202	0	269.3	4	88.7	4	-1E+10	1	-1E+10	1	-1E+10	1	-1E+10	1	-1E+10	1	-1E+10	1
4902551	44	C	10/27/2021	11:57	-134.166	49.735	0	92.10	0	6.2910	0	32.4720	0	25.521	0	91.292	0	268.9	4	88.5	4	-1E+10	1	-1E+10	1	-1E+10	1	-1E+10	1	-1E+10	1	-1E+10	1
4902551	44	C	10/27/2021	11:57	-134.166	49.735	0	93.00	0	6.2500	0	32.4770	0	25.530	0	92.184	0	268.4	4	88.3	4	-1E+10	1	-1E+10	1	-1E+10	1	-1E+10	1	-1E+10	1	-1E+10	1
4902551	44	C	10/27/2021	11:57	-134.166	49.735	0	93.80	0	6.2030	0	32.4870	0	25.543	0	92.977	0	268.1	4	88.1	4	-1E+10	1	-1E+10	1	-1E+10	1	-1E+10	1	-1E+10	1	-1E+10	1
4902551	44	C	10/27/2021	11:57	-134.166	49.735	0	94.90	0	6.2000	0	32.4920	0	25.548	0	94.067	0	267.5	4	87.9	4	-1E+10	1	-1E+10	1	-1E+10	1	-1E+10	1	-1E+10	1	-1E+10	1
4902551	44	C	10/27/2021	11:57	-134.166	49.735	0	96.00	0	6.1980	0	32.4920	0	25.548	0	95.157	0	266.7	4	87.6	4	-1E+10	1	-1E+10	1	-1E+10	1	-1E+10	1	-1E+10	1	-1E+10	1
4902551	44	C	10/27/2021	11:57	-134.166	49.735	0	97.00	0	6.1810	0	32.4940	0	25.552	0	96.148	0	265.8	4	87.3	4	-1E+10	1	-1E+10	1	-1E+10	1	-1E+10	1	-1E+10	1	-1E+10	1
4902551	44	C	10/27/2021	11:57	-134.166	49.735	0	98.00	0	6.1580	0	32.4990	0	25.559	0	97.139	0	264.7	4	86.9	4	-1E+10	1	-1E+10	1	-1E+10	1	-1E+10	1	-1E+10	1	-1E+10	1
4902551	44	C	10/27/2021	11:57	-134.166	49.735	0	99.00	0	6.1290	0	32.5010	0	25.564	0	98.130	0	263.5	4	86.4	4	-1E+10	1	-1E+10	1	-1E+10	1	-1E+10	1	-1E+10	1	-1E+10	1
4902551	44	C	10/27/2021	11:57	-134.166	49.735	0	100.10	0	6.1180	0	32.5040	0	25.567	0	99.220	0	261.9	4	85.9	4	-1E+10	1	-1E+10	1	-1E+10	1	-1E+10	1	-1E+10	1	-1E+10	1
4902551	44	C	10/27/2021	11:57	-134.166	49.735	0	101.10	0	6.1160	0	32.5250	0	25.584	0	100.211	0	259.4	4	85.0	4	-1E+10	1	-1E+10	1	-1E+10	1	-1E+10	1	-1E+10	1	-1E+10	1
4902551	44	C	10/27/2021	11:57	-134.166	49.735	0	102.00	0	6.1390	0	32.5600	0	25.609	0	101.103	0	256.3	4	84.1	4	-1E+10	1	-1E+10	1	-1E+10	1	-1E+10	1	-1E+10	1	-1E+10	1
4902551	44	C	10/27/2021	11:57	-134.166	49.735	0	103.10	0	6.1410	0	32.5720	0	25.618	0	102.193	0	253.9	4	83.3	4	-1E+10	1	-1E+10	1	-1E+10	1	-1E+10	1	-1E+10	1	-1E+10	1
4902551	44	C	10/27/2021	11:57	-134.166	49.735	0	104.00	0	6.1240	0	32.6050	0	25.646	0	103.085	0	251.5	4	82.5	4	-1E+10	1	-1E+10	1	-1E+10	1	-1E+10	1	-1E+10	1	-1E+10	1
4902551	44	C	10/27/2021	11:57	-134.166	49.735	0	105.00	0	6.1290	0	32.6120	0	25.651	0	104.076	0	249.6	4	81.9	4	-1E+10	1	-1E+10	1	-1E+10	1	-1E+10	1	-1E+10	1	-1E+10	1
4902551	44	C	10/27/2021	11:57	-134.166	49.735	0	106.00	0	6.1330	0	32.6180	0	25.656	0	105.067	0	247.4	4	81.2	4	-1E+10	1	-1E+10	1	-1E+10	1	-1E+10	1	-1E+10	1	-1E+10	1
4902551	44	C	10/27/2021	11:57	-134.166	49.735	0	107.00	0	6.1300	0	32.6310	0	25.666	0	106.058	0	244.9	4	80.4	4	-1E+10	1	-1E+10	1	-1E+10	1	-1E+10	1	-1E+10	1	-1E+10	1
4902551	44	C	10/27/2021	11:57	-134.166	49.735	0	108.20	0	6.1250	0	32.6420	0	25.676	0	107.247	0	242.1	4	79.5	4	-1E+10	1	-1E+10	1	-1E+10	1	-1E+10	1	-1E+10	1	-1E+10	1
4902551	44	C	10/27/2021	11:57	-134.166	49.735	0	109.00	0	6.1240	0	32.6450	0	25.678	0	108.040	0	239.9	4	78.7	4	-1E+10	1	-1E+10	1	-1E+10	1	-1E+10	1	-1E+10	1	-1E+10	1
4902551	44	C	10/27/2021	11:57	-134.166	49.735	0	110.00	0	6.1210	0	32.6600	0	25.690	0	109.031	0	236.9	4	77.8	4	-1E+10	1	-1E+10	1	-1E+10	1	-1E+10	1	-1E+10	1	-1E+10	1
4902551	44	C	10/27/2021	11:57	-134.166	49.735	0	111.00	0	6.1400	0	32.6840	0	25.707	0	110.021	0	234.1	4	76.9	4	-1E+10	1	-1E+10	1	-1E+10	1	-1E+10	1	-1E+10	1	-1E+10	1
4902551	44	C	10/27/2021	11:57	-134.166	49.735	0	112.10	0	6.1250	0	32.7090	0	25.729	0	111.111	0	231.0	4	75.9	4	-1E+10	1	-1E+10	1	-1E+10	1	-1E+10	1	-1E+10	1	-1E+10	1
4902551	44	C	10/27/2021	11:57	-134.166	49.735	0	112.90	0	6.1230	0	32.7190	0	25.737	0	111.904	0	228.9	4	75.2	4	-1E+10	1	-1E+10	1	-1E+10	1	-1E+10	1	-1E+10	1	-1E+10	1
4902551	44	C	10/27/2021	11:57	-134.166	49.735	0	113.70	0	6.1320	0	32.7410	0	25.753	0	112.697	0	227.0	4	74.6	4	-1E+10	1	-1E+10	1	-1E+10	1	-1E+10	1	-1E+10	1	-1E+10	1
4902551	44	C	10/27/2021	11:57	-134.166	49.735	0	114.90	0	6.1430	0	32.7750	0	25.778	0	113.886	0	224.5	4	73.8	4	-1E+10	1	-1E+10	1	-1E+10	1	-1E+10	1	-1E+10	1	-1E+10	1
4902551	44	C	10/27/2021	11:57	-134.166	49.735	0	116.00	0	6.1410	0	32.7830	0	25.785	0	114.976	0	221.8	4	72.9	4	-1E+10	1	-1E+10	1	-1E+10	1	-1E+10	1	-1E+10	1	-1E+10	1
4902551	44	C	10/27/2021	11:57	-134.166	49.735	0	117.00	0	6.1380	0	32.7840	0	25.786	0	115.967	0	218.6	4	71.8	4	-1E+10	1	-1E+10	1	-1E+10	1	-1E+10	1	-1E+10	1	-1E+10	1
4902551	44	C	10/27/2021	11:57	-134.166	49.735	0	118.00	0	6.1350	0	32.7880	0	25.790	0	116.958	0	214.9	4	70.6	4	-1E+10	1	-1E+10	1	-1E+10	1	-1E+10	1	-1E+10	1	-1E+10	1
4902551	44	C	10/27/2021	11:57	-134.166	49.735	0	118.90	0	6.1240	0	32.8000	0	25.801	0	117.850	0	210.8	4	69.3	4	-1E+10	1	-1E+10	1	-1E+10	1	-1E+10	1	-1E+10	1	-1E+10	1
4902551	44	C	10/27/2021	11:57	-134.166	49.735	0	120.00	0	6.1340	0	32.8470	0	25.836	0	118.940	0	206.9	4	68.0	4	-1E+10	1	-1E+10	1	-1E+10	1	-1E+10	1	-1E+10	1	-1E+10	1
4902551	44	C	10/27/2021	11:57	-134.166	49.735	0	121.10	0	6.1510	0	32.8870	0	25.866	0	120.030	0	202.9	4	66.8	4	-1E+10	1	-1E+10	1	-1E+10	1	-1E+10	1	-1E+10	1	-1E+10	1
4902551	44	C	10/27/2021	11:57	-134.166	49.735	0	121.90	0	6.1630	0	32.9100	0	25.883	0	120.822	0	199.6	4	65.7	4	-1E+10	1	-1E+10	1	-1E+10	1	-1E+10	1	-1E+10	1	-1E+10	1
4902551	44	C	10/27/2021	11:57	-134.166	49.735	0	122.80	0	6.1710	0	32.9500	0	25.913	0	121.714	0	195.8	4	64.5	4	-1E+10	1	-1E+10	1	-1E+10	1	-1E+10	1	-1E+10	1	-1E+10	1
4902551	44	C	10/27/2021	11:57	-134.166	49.735	0	124.00	0	6.1780	0	33.0000	0	25.952	0	122.903	0	191.2	4	63.0	4	-1E+10	1	-1E+10	1	-1E+10	1	-1E+10	1	-1E+10	1	-1E+10	1
4902551	44	C	10/27/2021	11:57	-134.166	49.735	0	125.00	0	6.1830	0	33.0290	0	25.974	0	123.894	0	187.7	4	61.9	4	-1E+10	1	-1E+10	1	-1E+10	1	-1E+10	1	-1E+10	1	-1E+10	1
4902551	44	C	10/27/2021	11:57	-134.166	49.735	0	126.00	0	6.1900	0	33.0790	0	26.013	0	124.885	0	184.8	4	61.0	4	-1E+10	1	-1E+10	1	-1E+10	1	-1E+10	1	-1E+10	1	-1E+10	1
4902551	44	C	10/27/2021	11:57	-134.166	49.735	0	127.10	0	6.1940	0	33.1000	0	26.029	0	125.975	0	181.7	4	59.9	4	-1E+10	1	-1E+10	1	-1E+10	1	-1E+10	1	-1E+10	1	-1E+10	1
4902551	44	C	10/27/2021	11:57	-134.166	49.735	0	127.90	0	6.1970	0	33.1180	0	26.043	0	126.767	0	179.7	4	59.3	4	-1E+10	1	-1E+10	1	-1E+10	1	-1E+10	1	-1E+10	1	-1E+10	1
4902551	44	C	10/27/2021	11:57	-134.166	49.735	0	128.80	0	6.1970	0	33.1520	0	26.069	0	127.659	0	177.8	4	58.7	4	-1E+10	1	-1E+10	1	-1E+10	1	-1E+10	1	-1E+10	1	-1E+10	1
4902551	44	C	10/27/2021	11:57	-134.166	49.735	0	130.00	0	6.1950	0	33.1820	0	26.093	0	128.848	0	175.1	4	57.8	4	-1E+10	1	-1E+10	1	-1E+10	1	-1E+10	1	-1E+10	1	-1E+10	1
4902551	44	C	10/27/2021	11:57	-134.166	49.735	0	131.30	0	6.1990	0	33.2170	0	26.121	0	130.136	0	172.4	4	56.9	4	-1E+10	1	-1E+10	1	-1E+10	1	-1E+10	1	-1E+10	1	-1E+10	1
4902551	44	C	10/27/2021	11:57	-134.166	49.735	0	132.30	0	6.2010	0	33.2440	0	26.142	0	131.127	0	170.6	4	56.3	4	-1E+10	1	-1E+10	1	-1E+10	1	-1E+10	1	-1E+10	1	-1E+10	1
4902551	44	C	10/27/2021	11:57	-134.166	49.735	0	133.20	0	6.2010	0	33.2650	0	26.158	0	132.019	0	169.1	4	55.8	4	-1E+10	1	-1E+10	1	-1E+10	1	-1E+10	1	-1E+10	1	-1E+10	1
4902551	44	C	10/27/2021	11:57	-134.166	49.735	0	134.10	0	6.2030	0	33.2710	0	26.163	0	132.910	0	167.4	4	55.3	4	-1E+10	1	-1E+10	1	-1E+10	1	-1E+10	1	-1E+10	1	-1E+10	1
4902551	44	C	10/27/2021	11:57	-134.166	49.735	0	135.10	0	6.2080	0	33.2790	0	26.168	0	133.901	0	165.8	4	54.8	4	-1E+10	1	-1E+10	1	-1E+10	1	-1E+10	1	-1E+10	1	-1E+10	1
4902551	44	C	10/27/2021	11:57	-134.166	49.735	0	136.00	0	6.2040	0	33.3010	0	26.186	0	134.793	0	164.1	4	54.2	4	-1E+10	1	-1E+10	1	-1E+10	1	-1E+10	1	-1E+10	1	-1E+10	1
4902551	44	C	10/27/2021	11:57	-134.166	49.735	0	137.00	0	6.1980	0	33.3220	0	26.204	0	135.784	0	162.4	4	53.7	4	-1E+10	1	-1E+10	1	-1E+10	1	-1E+10	1	-1E+10	1	-1E+10	1
4902551	44	C	10/27/2021	11:57	-134.166	49.735	0	138.00	0	6.1970	0	33.3260	0	26.207	0	136.775	0	160.7	4	53.1	4	-1E+10	1	-1E+10	1	-1E+10	1	-1E+10	1	-1E+10	1	-1E+10	1
4902551	44	C	10/27/2021	11:57	-134.166	49.735	0	138.90	0	6.1980	0	33.3320	0	26.212	0	137.666	0	158.8	4	52.5	4	-1E+10	1	-1E+10	1	-1E+10	1	-1E+10	1	-1E+10	1	-1E+10	1
4902551	44	C	10/27/2021	11:57	-134.166	49.735	0	139.90	0	6.1960	0	33.3370	0	26.216	0	138.657	0	156.8	4	51.8	4	-1E+10	1	-1E+10	1	-1E+10	1	-1E+10	1	-1E+10	1	-1E+10	1
4902551	44	C	10/27/2021	11:57	-134.166	49.735	0	140.90	0	6.1950	0	33.3400	0	26.218	0	139.648	0	154.6	4	51.1	4	-1E+10	1	-1E+10	1	-1E+10	1	-1E+10	1	-1E+10	1	-1E+10	1
4902551	44	C	10/27/2021	11:57	-134.166	49.735	0	141.80	0	6.1850	0	33.3730	0	26.246	0	140.539	0	152.2	4	50.3	4	-1E+10	1	-1E+10	1	-1E+10	1	-1E+10	1	-1E+10	1	-1E+10	1
4902551	44	C	10/27/2021	11:57	-134.166	49.735	0	142.80	0	6.1670	0	33.4050	0	26.273	0	141.530	0	150.2	4	49.6	4	-1E+10	1	-1E+10	1	-1E+10	1	-1E+10	1	-1E+10	1	-1E+10	1
4902551	44	C	10/27/2021	11:57	-134.166	49.735	0	143.80	0	6.1330	0	33.4610	0	26.322	0	142.521	0	148.8	4	49.1	4	-1E+10	1	-1E+10	1	-1E+10	1	-1E+10	1	-1E+10	1	-1E+10	1
4902551	44	C	10/27/2021	11:57	-134.166	49.735	0	144.80	0	6.1270	0	33.4850	0	26.341	0	143.512	0	147.6	4	48.8	4	-1E+10	1	-1E+10	1	-1E+10	1	-1E+10	1	-1E+10	1	-1E+10	1
4902551	44	C	10/27/2021	11:57	-134.166	49.735	0	145.70	0	6.1250	0	33.4920	0	26.347	0	144.403	0	146.4	4	48.4	4	-1E+10	1	-1E+10	1	-1E+10	1	-1E+10	1	-1E+10	1	-1E+10	1
4902551	44	C	10/27/2021	11:57	-134.166	49.735	0	146.70	0	6.1250	0	33.4970	0	26.351	0	145.394	0	144.9	4	47.9	4	-1E+10	1	-1E+10	1	-1E+10	1	-1E+10	1	-1E+10	1	-1E+10	1
4902551	44	C	10/27/2021	11:57	-134.166	49.735	0	147.70	0	6.1110	0	33.5550	0	26.399	0	146.385	0	143.8	4	47.5	4	-1E+10	1	-1E+10	1	-1E+10	1	-1E+10	1	-1E+10	1	-1E+10	1
4902551	44	C	10/27/2021	11:57	-134.166	49.735	0	148.70	0	6.1090	0	33.5600	0	26.403	0	147.376	0	143.0	4	47.2	4	-1E+10	1	-1E+10	1	-1E+10	1	-1E+10	1	-1E+10	1	-1E+10	1
4902551	44	C	10/27/2021	11:57	-134.166	49.735	0	149.70	0	6.1070	0	33.5680	0	26.409	0	148.366	0	142.1	4	47.0	4	-1E+10	1	-1E+10	1	-1E+10	1	-1E+10	1	-1E+10	1	-1E+10	1
4902551	44	C	10/27/2021	11:57	-134.166	49.735	0	150.70	0	6.1060	0	33.5700	0	26.411	0	149.357	0	141.3	4	46.7	4	-1E+10	1	-1E+10	1	-1E+10	1	-1E+10	1	-1E+10	1	-1E+10	1
4902551	44	C	10/27/2021	11:57	-134.166	49.735	0	151.70	0	6.1050	0	33.5770	0	26.417	0	150.348	0	140.6	4	46.4	4	-1E+10	1	-1E+10	1	-1E+10	1	-1E+10	1	-1E+10	1	-1E+10	1
4902551	44	C	10/27/2021	11:57	-134.166	49.735	0	152.70	0	6.1030	0	33.5870	0	26.425	0	151.339	0	139.8	4	46.2	4	-1E+10	1	-1E+10	1	-1E+10	1	-1E+10	1	-1E+10	1	-1E+10	1
4902551	44	C	10/27/2021	11:57	-134.166	49.735	0	153.70	0	6.1020	0	33.5970	0	26.433	0	152.329	0	139.0	4	45.9	4	-1E+10	1	-1E+10	1	-1E+10	1	-1E+10	1	-1E+10	1	-1E+10	1
4902551	44	C	10/27/2021	11:57	-134.166	49.735	0	154.70	0	6.0990	0	33.6020	0	26.437	0	153.320	0	138.1	4	45.6	4	-1E+10	1	-1E+10	1	-1E+10	1	-1E+10	1	-1E+10	1	-1E+10	1
4902551	44	C	10/27/2021	11:57	-134.166	49.735	0	155.60	0	6.0980	0	33.6040	0	26.439	0	154.212	0	137.2	4	45.3	4	-1E+10	1	-1E+10	1	-1E+10	1	-1E+10	1	-1E+10	1	-1E+10	1
4902551	44	C	10/27/2021	11:57	-134.166	49.735	0	156.60	0	6.0940	0	33.6110	0	26.445	0	155.202	0	136.3	4	45.0	4	-1E+10	1	-1E+10	1	-1E+10	1	-1E+10	1	-1E+10	1	-1E+10	1
4902551	44	C	10/27/2021	11:57	-134.166	49.735	0	157.50	0	6.0940	0	33.6150	0	26.448	0	156.094	0	135.4	4	44.7	4	-1E+10	1	-1E+10	1	-1E+10	1	-1E+10	1	-1E+10	1	-1E+10	1
4902551	44	C	10/27/2021	11:57	-134.166	49.735	0	158.80	0	6.0910	0	33.6250	0	26.457	0	157.382	0	134.0	4	44.3	4	-1E+10	1	-1E+10	1	-1E+10	1	-1E+10	1	-1E+10	1	-1E+10	1
4902551	44	C	10/27/2021	11:57	-134.166	49.735	0	159.90	0	6.0890	0	33.6300	0	26.461	0	158.472	0	132.7	4	43.8	4	-1E+10	1	-1E+10	1	-1E+10	1	-1E+10	1	-1E+10	1	-1E+10	1
4902551	44	C	10/27/2021	11:57	-134.166	49.735	0	160.90	0	6.0850	0	33.6370	0	26.467	0	159.462	0	131.3	4	43.4	4	-1E+10	1	-1E+10	1	-1E+10	1	-1E+10	1	-1E+10	1	-1E+10	1
4902551	44	C	10/27/2021	11:57	-134.166	49.735	0	162.00	0	6.0830	0	33.6430	0	26.472	0	160.552	0	130.0	4	42.9	4	-1E+10	1	-1E+10	1	-1E+10	1	-1E+10	1	-1E+10	1	-1E+10	1
4902551	44	C	10/27/2021	11:57	-134.166	49.735	0	162.70	0	6.0810	0	33.6470	0	26.475	0	161.246	0	129.1	4	42.7	4	-1E+10	1	-1E+10	1	-1E+10	1	-1E+10	1	-1E+10	1	-1E+10	1
4902551	44	C	10/27/2021	11:57	-134.166	49.735	0	163.80	0	6.0770	0	33.6540	0	26.481	0	162.335	0	127.7	4	42.2	4	-1E+10	1	-1E+10	1	-1E+10	1	-1E+10	1	-1E+10	1	-1E+10	1
4902551	44	C	10/27/2021	11:57	-134.166	49.735	0	164.90	0	6.0750	0	33.6580	0	26.485	0	163.425	0	126.2	4	41.7	4	-1E+10	1	-1E+10	1	-1E+10	1	-1E+10	1	-1E+10	1	-1E+10	1
4902551	44	C	10/27/2021	11:57	-134.166	49.735	0	166.00	0	6.0690	0	33.6740	0	26.498	0	164.515	0	124.7	4	41.2	4	-1E+10	1	-1E+10	1	-1E+10	1	-1E+10	1	-1E+10	1	-1E+10	1
4902551	44	C	10/27/2021	11:57	-134.166	49.735	0	167.10	0	6.0540	0	33.6940	0	26.516	0	165.604	0	123.3	4	40.7	4	-1E+10	1	-1E+10	1	-1E+10	1	-1E+10	1	-1E+10	1	-1E+10	1
4902551	44	C	10/27/2021	11:57	-134.166	49.735	0	167.90	0	6.0280	0	33.7180	0	26.538	0	166.397	0	122.5	4	40.4	4	-1E+10	1	-1E+10	1	-1E+10	1	-1E+10	1	-1E+10	1	-1E+10	1
4902551	44	C	10/27/2021	11:57	-134.166	49.735	0	168.70	0	6.0160	0	33.7240	0	26.544	0	167.189	0	121.7	4	40.2	4	-1E+10	1	-1E+10	1	-1E+10	1	-1E+10	1	-1E+10	1	-1E+10	1
4902551	44	C	10/27/2021	11:57	-134.166	49.735	0	170.00	0	6.0050	0	33.7300	0	26.550	0	168.477	0	120.9	4	39.9	4	-1E+10	1	-1E+10	1	-1E+10	1	-1E+10	1	-1E+10	1	-1E+10	1
4902551	44	C	10/27/2021	11:57	-134.166	49.735	0	171.20	0	5.9910	0	33.7380	0	26.559	0	169.666	0	120.1	4	39.6	4	-1E+10	1	-1E+10	1	-1E+10	1	-1E+10	1	-1E+10	1	-1E+10	1
4902551	44	C	10/27/2021	11:57	-134.166	49.735	0	172.10	0	5.9810	0	33.7420	0	26.563	0	170.558	0	119.5	4	39.4	4	-1E+10	1	-1E+10	1	-1E+10	1	-1E+10	1	-1E+10	1	-1E+10	1
4902551	44	C	10/27/2021	11:57	-134.166	49.735	0	172.90	0	5.9720	0	33.7450	0	26.566	0	171.350	0	118.9	4	39.2	4	-1E+10	1	-1E+10	1	-1E+10	1	-1E+10	1	-1E+10	1	-1E+10	1
4902551	44	C	10/27/2021	11:57	-134.166	49.735	0	173.80	0	5.9660	0	33.7460	0	26.568	0	172.242	0	118.2	4	39.0	4	-1E+10	1	-1E+10	1	-1E+10	1	-1E+10	1	-1E+10	1	-1E+10	1
4902551	44	C	10/27/2021	11:57	-134.166	49.735	0	175.00	0	5.9550	0	33.7490	0	26.572	0	173.430	0	117.3	4	38.7	4	-1E+10	1	-1E+10	1	-1E+10	1	-1E+10	1	-1E+10	1	-1E+10	1
4902551	44	C	10/27/2021	11:57	-134.166	49.735	0	176.20	0	5.9420	0	33.7520	0	26.576	0	174.619	0	116.4	4	38.3	4	-1E+10	1	-1E+10	1	-1E+10	1	-1E+10	1	-1E+10	1	-1E+10	1
4902551	44	C	10/27/2021	11:57	-134.166	49.735	0	177.10	0	5.9240	0	33.7580	0	26.583	0	175.511	0	115.7	4	38.1	4	-1E+10	1	-1E+10	1	-1E+10	1	-1E+10	1	-1E+10	1	-1E+10	1
4902551	44	C	10/27/2021	11:57	-134.166	49.735	0	177.90	0	5.9100	0	33.7600	0	26.586	0	176.303	0	115.1	4	37.9	4	-1E+10	1	-1E+10	1	-1E+10	1	-1E+10	1	-1E+10	1	-1E+10	1
4902551	44	C	10/27/2021	11:57	-134.166	49.735	0	178.80	0	5.8980	0	33.7620	0	26.589	0	177.195	0	114.5	4	37.7	4	-1E+10	1	-1E+10	1	-1E+10	1	-1E+10	1	-1E+10	1	-1E+10	1
4902551	44	C	10/27/2021	11:57	-134.166	49.735	0	179.60	0	5.8860	0	33.7650	0	26.593	0	177.987	0	113.9	4	37.5	4	-1E+10	1	-1E+10	1	-1E+10	1	-1E+10	1	-1E+10	1	-1E+10	1
4902551	44	C	10/27/2021	11:57	-134.166	49.735	0	180.90	0	5.8780	0	33.7740	0	26.601	0	179.275	0	113.3	4	37.3	4	-1E+10	1	-1E+10	1	-1E+10	1	-1E+10	1	-1E+10	1	-1E+10	1
4902551	44	C	10/27/2021	11:57	-134.166	49.735	0	182.30	0	5.8650	0	33.7800	0	26.607	0	180.662	0	112.8	4	37.1	4	-1E+10	1	-1E+10	1	-1E+10	1	-1E+10	1	-1E+10	1	-1E+10	1
4902551	44	C	10/27/2021	11:57	-134.166	49.735	0	183.20	0	5.8430	0	33.7850	0	26.614	0	181.553	0	112.5	4	37.0	4	-1E+10	1	-1E+10	1	-1E+10	1	-1E+10	1	-1E+10	1	-1E+10	1
4902551	44	C	10/27/2021	11:57	-134.166	49.735	0	184.00	0	5.8360	0	33.7850	0	26.615	0	182.346	0	112.2	4	36.9	4	-1E+10	1	-1E+10	1	-1E+10	1	-1E+10	1	-1E+10	1	-1E+10	1
4902551	44	C	10/27/2021	11:57	-134.166	49.735	0	184.90	0	5.8330	0	33.7850	0	26.615	0	183.237	0	111.9	4	36.8	4	-1E+10	1	-1E+10	1	-1E+10	1	-1E+10	1	-1E+10	1	-1E+10	1
4902551	44	C	10/27/2021	11:57	-134.166	49.735	0	185.80	0	5.8250	0	33.7870	0	26.618	0	184.129	0	111.6	4	36.7	4	-1E+10	1	-1E+10	1	-1E+10	1	-1E+10	1	-1E+10	1	-1E+10	1
4902551	44	C	10/27/2021	11:57	-134.166	49.735	0	186.70	0	5.8100	0	33.7860	0	26.619	0	185.020	0	111.4	4	36.6	4	-1E+10	1	-1E+10	1	-1E+10	1	-1E+10	1	-1E+10	1	-1E+10	1
4902551	44	C	10/27/2021	11:57	-134.166	49.735	0	187.60	0	5.8030	0	33.7860	0	26.620	0	185.912	0	111.1	4	36.5	4	-1E+10	1	-1E+10	1	-1E+10	1	-1E+10	1	-1E+10	1	-1E+10	1
4902551	44	C	10/27/2021	11:57	-134.166	49.735	0	188.90	0	5.7810	0	33.7870	0	26.623	0	187.199	0	110.6	4	36.3	4	-1E+10	1	-1E+10	1	-1E+10	1	-1E+10	1	-1E+10	1	-1E+10	1
4902551	44	C	10/27/2021	11:57	-134.166	49.735	0	190.30	0	5.7640	0	33.7870	0	26.625	0	188.586	0	110.0	4	36.1	4	-1E+10	1	-1E+10	1	-1E+10	1	-1E+10	1	-1E+10	1	-1E+10	1
4902551	44	C	10/27/2021	11:57	-134.166	49.735	0	191.20	0	5.7500	0	33.7860	0	26.626	0	189.478	0	109.6	4	36.0	4	-1E+10	1	-1E+10	1	-1E+10	1	-1E+10	1	-1E+10	1	-1E+10	1
4902551	44	C	10/27/2021	11:57	-134.166	49.735	0	192.10	0	5.7440	0	33.7880	0	26.629	0	190.369	0	109.1	4	35.8	4	-1E+10	1	-1E+10	1	-1E+10	1	-1E+10	1	-1E+10	1	-1E+10	1
4902551	44	C	10/27/2021	11:57	-134.166	49.735	0	193.00	0	5.7290	0	33.7900	0	26.632	0	191.261	0	108.7	4	35.7	4	-1E+10	1	-1E+10	1	-1E+10	1	-1E+10	1	-1E+10	1	-1E+10	1
4902551	44	C	10/27/2021	11:57	-134.166	49.735	0	194.00	0	5.7110	0	33.7910	0	26.635	0	192.251	0	108.3	4	35.5	4	-1E+10	1	-1E+10	1	-1E+10	1	-1E+10	1	-1E+10	1	-1E+10	1
4902551	44	C	10/27/2021	11:57	-134.166	49.735	0	194.90	0	5.6880	0	33.7920	0	26.639	0	193.143	0	107.8	4	35.3	4	-1E+10	1	-1E+10	1	-1E+10	1	-1E+10	1	-1E+10	1	-1E+10	1
4902551	44	C	10/27/2021	11:57	-134.166	49.735	0	195.80	0	5.6810	0	33.7920	0	26.640	0	194.034	0	107.4	4	35.2	4	-1E+10	1	-1E+10	1	-1E+10	1	-1E+10	1	-1E+10	1	-1E+10	1
4902551	44	C	10/27/2021	11:57	-134.166	49.735	0	196.70	0	5.6750	0	33.7930	0	26.641	0	194.926	0	106.8	4	35.0	4	-1E+10	1	-1E+10	1	-1E+10	1	-1E+10	1	-1E+10	1	-1E+10	1
4902551	44	C	10/27/2021	11:57	-134.166	49.735	0	197.70	0	5.6510	0	33.7940	0	26.645	0	195.916	0	106.4	4	34.8	4	-1E+10	1	-1E+10	1	-1E+10	1	-1E+10	1	-1E+10	1	-1E+10	1
4902551	44	C	10/27/2021	11:57	-134.166	49.735	0	198.60	0	5.6400	0	33.7960	0	26.648	0	196.808	0	105.9	4	34.7	4	-1E+10	1	-1E+10	1	-1E+10	1	-1E+10	1	-1E+10	1	-1E+10	1
4902551	44	C	10/27/2021	11:57	-134.166	49.735	0	199.90	0	5.6380	0	33.7980	0	26.650	0	198.095	0	105.1	4	34.4	4	-1E+10	1	-1E+10	1	-1E+10	1	-1E+10	1	-1E+10	1	-1E+10	1
4902551	44	C	10/27/2021	11:57	-134.166	49.735	0	201.30	0	5.6310	0	33.7990	0	26.651	0	199.482	0	104.2	4	34.1	4	-1E+10	1	-1E+10	1	-1E+10	1	-1E+10	1	-1E+10	1	-1E+10	1
4902551	44	C	10/27/2021	11:57	-134.166	49.735	0	202.30	0	5.6150	0	33.8000	0	26.654	0	200.472	0	103.6	4	33.9	4	-1E+10	1	-1E+10	1	-1E+10	1	-1E+10	1	-1E+10	1	-1E+10	1
4902551	44	C	10/27/2021	11:57	-134.166	49.735	0	203.20	0	5.5690	0	33.8110	0	26.668	0	201.364	0	103.3	4	33.7	4	-1E+10	1	-1E+10	1	-1E+10	1	-1E+10	1	-1E+10	1	-1E+10	1
4902551	44	C	10/27/2021	11:57	-134.166	49.735	0	204.20	0	5.5440	0	33.8090	0	26.670	0	202.354	0	103.0	4	33.6	4	-1E+10	1	-1E+10	1	-1E+10	1	-1E+10	1	-1E+10	1	-1E+10	1
4902551	44	C	10/27/2021	11:57	-134.166	49.735	0	205.20	0	5.5410	0	33.8090	0	26.670	0	203.345	0	102.7	4	33.5	4	-1E+10	1	-1E+10	1	-1E+10	1	-1E+10	1	-1E+10	1	-1E+10	1
4902551	44	C	10/27/2021	11:57	-134.166	49.735	0	206.10	0	5.5360	0	33.8100	0	26.671	0	204.236	0	102.4	4	33.4	4	-1E+10	1	-1E+10	1	-1E+10	1	-1E+10	1	-1E+10	1	-1E+10	1
4902551	44	C	10/27/2021	11:57	-134.166	49.735	0	207.10	0	5.5320	0	33.8090	0	26.671	0	205.227	0	102.1	4	33.3	4	-1E+10	1	-1E+10	1	-1E+10	1	-1E+10	1	-1E+10	1	-1E+10	1
4902551	44	C	10/27/2021	11:57	-134.166	49.735	0	208.10	0	5.5310	0	33.8100	0	26.672	0	206.217	0	101.8	4	33.2	4	-1E+10	1	-1E+10	1	-1E+10	1	-1E+10	1	-1E+10	1	-1E+10	1
4902551	44	C	10/27/2021	11:57	-134.166	49.735	0	209.00	0	5.5240	0	33.8100	0	26.673	0	207.108	0	101.3	4	33.1	4	-1E+10	1	-1E+10	1	-1E+10	1	-1E+10	1	-1E+10	1	-1E+10	1
4902551	44	C	10/27/2021	11:57	-134.166	49.735	0	210.00	0	5.5150	0	33.8090	0	26.673	0	208.099	0	100.9	4	32.9	4	-1E+10	1	-1E+10	1	-1E+10	1	-1E+10	1	-1E+10	1	-1E+10	1
4902551	44	C	10/27/2021	11:57	-134.166	49.735	0	210.90	0	5.4950	0	33.8110	0	26.677	0	208.990	0	100.6	4	32.8	4	-1E+10	1	-1E+10	1	-1E+10	1	-1E+10	1	-1E+10	1	-1E+10	1
4902551	44	C	10/27/2021	11:57	-134.166	49.735	0	211.90	0	5.4880	0	33.8120	0	26.679	0	209.981	0	100.2	4	32.7	4	-1E+10	1	-1E+10	1	-1E+10	1	-1E+10	1	-1E+10	1	-1E+10	1
4902551	44	C	10/27/2021	11:57	-134.166	49.735	0	212.80	0	5.4840	0	33.8120	0	26.679	0	210.872	0	99.8	4	32.6	4	-1E+10	1	-1E+10	1	-1E+10	1	-1E+10	1	-1E+10	1	-1E+10	1
4902551	44	C	10/27/2021	11:57	-134.166	49.735	0	213.80	0	5.4740	0	33.8130	0	26.681	0	211.863	0	99.4	4	32.4	4	-1E+10	1	-1E+10	1	-1E+10	1	-1E+10	1	-1E+10	1	-1E+10	1
4902551	44	C	10/27/2021	11:57	-134.166	49.735	0	214.80	0	5.4430	0	33.8140	0	26.686	0	212.853	0	99.1	4	32.3	4	-1E+10	1	-1E+10	1	-1E+10	1	-1E+10	1	-1E+10	1	-1E+10	1
4902551	44	C	10/27/2021	11:57	-134.166	49.735	0	215.80	0	5.4230	0	33.8140	0	26.688	0	213.843	0	98.7	4	32.2	4	-1E+10	1	-1E+10	1	-1E+10	1	-1E+10	1	-1E+10	1	-1E+10	1
4902551	44	C	10/27/2021	11:57	-134.166	49.735	0	216.80	0	5.3920	0	33.8150	0	26.693	0	214.834	0	98.5	4	32.0	4	-1E+10	1	-1E+10	1	-1E+10	1	-1E+10	1	-1E+10	1	-1E+10	1
4902551	44	C	10/27/2021	11:57	-134.166	49.735	0	217.70	0	5.3810	0	33.8160	0	26.695	0	215.725	0	98.2	4	32.0	4	-1E+10	1	-1E+10	1	-1E+10	1	-1E+10	1	-1E+10	1	-1E+10	1
4902551	44	C	10/27/2021	11:57	-134.166	49.735	0	218.70	0	5.3780	0	33.8170	0	26.696	0	216.716	0	98.0	4	31.9	4	-1E+10	1	-1E+10	1	-1E+10	1	-1E+10	1	-1E+10	1	-1E+10	1
4902551	44	C	10/27/2021	11:57	-134.166	49.735	0	219.70	0	5.3750	0	33.8160	0	26.695	0	217.706	0	97.8	4	31.8	4	-1E+10	1	-1E+10	1	-1E+10	1	-1E+10	1	-1E+10	1	-1E+10	1
4902551	44	C	10/27/2021	11:57	-134.166	49.735	0	220.70	0	5.3730	0	33.8180	0	26.697	0	218.696	0	97.5	4	31.7	4	-1E+10	1	-1E+10	1	-1E+10	1	-1E+10	1	-1E+10	1	-1E+10	1
4902551	44	C	10/27/2021	11:57	-134.166	49.735	0	221.70	0	5.3700	0	33.8170	0	26.697	0	219.687	0	97.2	4	31.6	4	-1E+10	1	-1E+10	1	-1E+10	1	-1E+10	1	-1E+10	1	-1E+10	1
4902551	44	C	10/27/2021	11:57	-134.166	49.735	0	222.70	0	5.3690	0	33.8170	0	26.697	0	220.677	0	96.9	4	31.5	4	-1E+10	1	-1E+10	1	-1E+10	1	-1E+10	1	-1E+10	1	-1E+10	1
4902551	44	C	10/27/2021	11:57	-134.166	49.735	0	223.70	0	5.3680	0	33.8160	0	26.696	0	221.668	0	96.5	4	31.4	4	-1E+10	1	-1E+10	1	-1E+10	1	-1E+10	1	-1E+10	1	-1E+10	1
4902551	44	C	10/27/2021	11:57	-134.166	49.735	0	224.70	0	5.3630	0	33.8170	0	26.698	0	222.658	0	96.1	4	31.3	4	-1E+10	1	-1E+10	1	-1E+10	1	-1E+10	1	-1E+10	1	-1E+10	1
4902551	44	C	10/27/2021	11:57	-134.166	49.735	0	225.70	0	5.3480	0	33.8200	0	26.702	0	223.648	0	95.7	4	31.1	4	-1E+10	1	-1E+10	1	-1E+10	1	-1E+10	1	-1E+10	1	-1E+10	1
4902551	44	C	10/27/2021	11:57	-134.166	49.735	0	226.70	0	5.3000	0	33.8170	0	26.705	0	224.639	0	95.4	4	31.0	4	-1E+10	1	-1E+10	1	-1E+10	1	-1E+10	1	-1E+10	1	-1E+10	1
4902551	44	C	10/27/2021	11:57	-134.166	49.735	0	227.70	0	5.2270	0	33.8090	0	26.707	0	225.629	0	95.1	4	30.8	4	-1E+10	1	-1E+10	1	-1E+10	1	-1E+10	1	-1E+10	1	-1E+10	1
4902551	44	C	10/27/2021	11:57	-134.166	49.735	0	228.70	0	5.2220	0	33.8100	0	26.709	0	226.619	0	94.5	4	30.6	4	-1E+10	1	-1E+10	1	-1E+10	1	-1E+10	1	-1E+10	1	-1E+10	1
4902551	44	C	10/27/2021	11:57	-134.166	49.735	0	229.70	0	5.1890	0	33.8130	0	26.715	0	227.610	0	94.0	4	30.5	4	-1E+10	1	-1E+10	1	-1E+10	1	-1E+10	1	-1E+10	1	-1E+10	1
4902551	44	C	10/27/2021	11:57	-134.166	49.735	0	230.80	0	5.1740	0	33.8100	0	26.714	0	228.699	0	93.5	4	30.3	4	-1E+10	1	-1E+10	1	-1E+10	1	-1E+10	1	-1E+10	1	-1E+10	1
4902551	44	C	10/27/2021	11:57	-134.166	49.735	0	231.80	0	5.1630	0	33.8100	0	26.715	0	229.689	0	92.9	4	30.1	4	-1E+10	1	-1E+10	1	-1E+10	1	-1E+10	1	-1E+10	1	-1E+10	1
4902551	44	C	10/27/2021	11:57	-134.166	49.735	0	232.90	0	5.1610	0	33.8110	0	26.716	0	230.779	0	92.4	4	29.9	4	-1E+10	1	-1E+10	1	-1E+10	1	-1E+10	1	-1E+10	1	-1E+10	1
4902551	44	C	10/27/2021	11:57	-134.166	49.735	0	233.90	0	5.1570	0	33.8120	0	26.718	0	231.769	0	91.7	4	29.7	4	-1E+10	1	-1E+10	1	-1E+10	1	-1E+10	1	-1E+10	1	-1E+10	1
4902551	44	C	10/27/2021	11:57	-134.166	49.735	0	234.90	0	5.1570	0	33.8130	0	26.718	0	232.759	0	90.9	4	29.4	4	-1E+10	1	-1E+10	1	-1E+10	1	-1E+10	1	-1E+10	1	-1E+10	1
4902551	44	C	10/27/2021	11:57	-134.166	49.735	0	235.90	0	5.1570	0	33.8120	0	26.718	0	233.750	0	90.1	4	29.2	4	-1E+10	1	-1E+10	1	-1E+10	1	-1E+10	1	-1E+10	1	-1E+10	1
4902551	44	C	10/27/2021	11:57	-134.166	49.735	0	236.90	0	5.1480	0	33.8130	0	26.720	0	234.740	0	89.2	4	28.9	4	-1E+10	1	-1E+10	1	-1E+10	1	-1E+10	1	-1E+10	1	-1E+10	1
4902551	44	C	10/27/2021	11:57	-134.166	49.735	0	237.90	0	5.1360	0	33.8130	0	26.721	0	235.730	0	88.3	4	28.6	4	-1E+10	1	-1E+10	1	-1E+10	1	-1E+10	1	-1E+10	1	-1E+10	1
4902551	44	C	10/27/2021	11:57	-134.166	49.735	0	238.90	0	5.1540	0	33.8230	0	26.727	0	236.721	0	87.3	4	28.3	4	-1E+10	1	-1E+10	1	-1E+10	1	-1E+10	1	-1E+10	1	-1E+10	1
4902551	44	C	10/27/2021	11:57	-134.166	49.735	0	240.00	0	5.2200	0	33.8350	0	26.729	0	237.810	0	86.6	4	28.1	4	-1E+10	1	-1E+10	1	-1E+10	1	-1E+10	1	-1E+10	1	-1E+10	1
4902551	44	C	10/27/2021	11:57	-134.166	49.735	0	241.00	0	5.2160	0	33.8390	0	26.732	0	238.800	0	86.1	4	27.9	4	-1E+10	1	-1E+10	1	-1E+10	1	-1E+10	1	-1E+10	1	-1E+10	1
4902551	44	C	10/27/2021	11:57	-134.166	49.735	0	242.00	0	5.2110	0	33.8390	0	26.733	0	239.791	0	85.7	4	27.8	4	-1E+10	1	-1E+10	1	-1E+10	1	-1E+10	1	-1E+10	1	-1E+10	1
4902551	44	C	10/27/2021	11:57	-134.166	49.735	0	243.00	0	5.2040	0	33.8400	0	26.735	0	240.781	0	85.3	4	27.6	4	-1E+10	1	-1E+10	1	-1E+10	1	-1E+10	1	-1E+10	1	-1E+10	1
4902551	44	C	10/27/2021	11:57	-134.166	49.735	0	244.00	0	5.1840	0	33.8430	0	26.739	0	241.771	0	84.9	4	27.5	4	-1E+10	1	-1E+10	1	-1E+10	1	-1E+10	1	-1E+10	1	-1E+10	1
4902551	44	C	10/27/2021	11:57	-134.166	49.735	0	245.00	0	5.1770	0	33.8430	0	26.740	0	242.762	0	84.5	4	27.4	4	-1E+10	1	-1E+10	1	-1E+10	1	-1E+10	1	-1E+10	1	-1E+10	1
4902551	44	C	10/27/2021	11:57	-134.166	49.735	0	246.00	0	5.1750	0	33.8450	0	26.742	0	243.752	0	84.2	4	27.3	4	-1E+10	1	-1E+10	1	-1E+10	1	-1E+10	1	-1E+10	1	-1E+10	1
4902551	44	C	10/27/2021	11:57	-134.166	49.735	0	247.00	0	5.1720	0	33.8420	0	26.740	0	244.742	0	83.7	4	27.1	4	-1E+10	1	-1E+10	1	-1E+10	1	-1E+10	1	-1E+10	1	-1E+10	1
4902551	44	C	10/27/2021	11:57	-134.166	49.735	0	248.00	0	5.1680	0	33.8420	0	26.740	0	245.732	0	83.3	4	27.0	4	-1E+10	1	-1E+10	1	-1E+10	1	-1E+10	1	-1E+10	1	-1E+10	1
4902551	44	C	10/27/2021	11:57	-134.166	49.735	0	249.10	0	5.1580	0	33.8440	0	26.743	0	246.822	0	82.8	4	26.8	4	-1E+10	1	-1E+10	1	-1E+10	1	-1E+10	1	-1E+10	1	-1E+10	1
4902551	44	C	10/27/2021	11:57	-134.166	49.735	0	250.10	0	5.1520	0	33.8440	0	26.744	0	247.812	0	82.4	4	26.7	4	-1E+10	1	-1E+10	1	-1E+10	1	-1E+10	1	-1E+10	1	-1E+10	1
4902551	44	C	10/27/2021	11:57	-134.166	49.735	0	251.10	0	5.1360	0	33.8470	0	26.748	0	248.802	0	82.0	4	26.5	4	-1E+10	1	-1E+10	1	-1E+10	1	-1E+10	1	-1E+10	1	-1E+10	1
4902551	44	C	10/27/2021	11:57	-134.166	49.735	0	252.10	0	5.1270	0	33.8500	0	26.751	0	249.792	0	81.7	4	26.4	4	-1E+10	1	-1E+10	1	-1E+10	1	-1E+10	1	-1E+10	1	-1E+10	1
4902551	44	C	10/27/2021	11:57	-134.166	49.735	0	253.10	0	5.1170	0	33.8480	0	26.751	0	250.783	0	81.3	4	26.3	4	-1E+10	1	-1E+10	1	-1E+10	1	-1E+10	1	-1E+10	1	-1E+10	1
4902551	44	C	10/27/2021	11:57	-134.166	49.735	0	254.10	0	5.1110	0	33.8490	0	26.752	0	251.773	0	80.9	4	26.1	4	-1E+10	1	-1E+10	1	-1E+10	1	-1E+10	1	-1E+10	1	-1E+10	1
4902551	44	C	10/27/2021	11:57	-134.166	49.735	0	255.10	0	5.1070	0	33.8490	0	26.753	0	252.763	0	80.4	4	26.0	4	-1E+10	1	-1E+10	1	-1E+10	1	-1E+10	1	-1E+10	1	-1E+10	1
4902551	44	C	10/27/2021	11:57	-134.166	49.735	0	256.20	0	5.1020	0	33.8500	0	26.754	0	253.852	0	79.9	4	25.8	4	-1E+10	1	-1E+10	1	-1E+10	1	-1E+10	1	-1E+10	1	-1E+10	1
4902551	44	C	10/27/2021	11:57	-134.166	49.735	0	257.20	0	5.1010	0	33.8500	0	26.754	0	254.843	0	79.4	4	25.7	4	-1E+10	1	-1E+10	1	-1E+10	1	-1E+10	1	-1E+10	1	-1E+10	1
4902551	44	C	10/27/2021	11:57	-134.166	49.735	0	258.20	0	5.0970	0	33.8500	0	26.755	0	255.833	0	78.9	4	25.5	4	-1E+10	1	-1E+10	1	-1E+10	1	-1E+10	1	-1E+10	1	-1E+10	1
4902551	44	C	10/27/2021	11:57	-134.166	49.735	0	259.20	0	5.0890	0	33.8520	0	26.757	0	256.823	0	78.4	4	25.3	4	-1E+10	1	-1E+10	1	-1E+10	1	-1E+10	1	-1E+10	1	-1E+10	1
4902551	44	C	10/27/2021	11:57	-134.166	49.735	0	260.20	0	5.0860	0	33.8520	0	26.758	0	257.813	0	77.8	4	25.1	4	-1E+10	1	-1E+10	1	-1E+10	1	-1E+10	1	-1E+10	1	-1E+10	1
4902551	44	C	10/27/2021	11:57	-134.166	49.735	0	261.20	0	5.0830	0	33.8530	0	26.759	0	258.803	0	77.2	4	24.9	4	-1E+10	1	-1E+10	1	-1E+10	1	-1E+10	1	-1E+10	1	-1E+10	1
4902551	44	C	10/27/2021	11:57	-134.166	49.735	0	262.10	0	5.0790	0	33.8550	0	26.761	0	259.695	0	76.5	4	24.7	4	-1E+10	1	-1E+10	1	-1E+10	1	-1E+10	1	-1E+10	1	-1E+10	1
4902551	44	C	10/27/2021	11:57	-134.166	49.735	0	263.20	0	5.0670	0	33.8580	0	26.765	0	260.784	0	76.0	4	24.5	4	-1E+10	1	-1E+10	1	-1E+10	1	-1E+10	1	-1E+10	1	-1E+10	1
4902551	44	C	10/27/2021	11:57	-134.166	49.735	0	264.20	0	5.0650	0	33.8580	0	26.765	0	261.774	0	75.4	4	24.4	4	-1E+10	1	-1E+10	1	-1E+10	1	-1E+10	1	-1E+10	1	-1E+10	1
4902551	44	C	10/27/2021	11:57	-134.166	49.735	0	265.20	0	5.0540	0	33.8620	0	26.769	0	262.764	0	74.9	4	24.2	4	-1E+10	1	-1E+10	1	-1E+10	1	-1E+10	1	-1E+10	1	-1E+10	1
4902551	44	C	10/27/2021	11:57	-134.166	49.735	0	266.20	0	5.0340	0	33.8640	0	26.773	0	263.754	0	74.5	4	24.1	4	-1E+10	1	-1E+10	1	-1E+10	1	-1E+10	1	-1E+10	1	-1E+10	1
4902551	44	C	10/27/2021	11:57	-134.166	49.735	0	267.20	0	5.0300	0	33.8650	0	26.774	0	264.745	0	74.2	4	23.9	4	-1E+10	1	-1E+10	1	-1E+10	1	-1E+10	1	-1E+10	1	-1E+10	1
4902551	44	C	10/27/2021	11:57	-134.166	49.735	0	268.30	0	5.0210	0	33.8670	0	26.777	0	265.834	0	73.8	4	23.8	4	-1E+10	1	-1E+10	1	-1E+10	1	-1E+10	1	-1E+10	1	-1E+10	1
4902551	44	C	10/27/2021	11:57	-134.166	49.735	0	269.30	0	5.0190	0	33.8670	0	26.777	0	266.824	0	73.5	4	23.7	4	-1E+10	1	-1E+10	1	-1E+10	1	-1E+10	1	-1E+10	1	-1E+10	1
4902551	44	C	10/27/2021	11:57	-134.166	49.735	0	270.30	0	5.0170	0	33.8670	0	26.778	0	267.814	0	73.1	4	23.6	4	-1E+10	1	-1E+10	1	-1E+10	1	-1E+10	1	-1E+10	1	-1E+10	1
4902551	44	C	10/27/2021	11:57	-134.166	49.735	0	271.40	0	5.0160	0	33.8670	0	26.778	0	268.903	0	72.7	4	23.5	4	-1E+10	1	-1E+10	1	-1E+10	1	-1E+10	1	-1E+10	1	-1E+10	1
4902551	44	C	10/27/2021	11:57	-134.166	49.735	0	272.40	0	5.0090	0	33.8690	0	26.780	0	269.893	0	72.3	4	23.3	4	-1E+10	1	-1E+10	1	-1E+10	1	-1E+10	1	-1E+10	1	-1E+10	1
4902551	44	C	10/27/2021	11:57	-134.166	49.735	0	273.50	0	5.0070	0	33.8690	0	26.780	0	270.982	0	71.8	4	23.2	4	-1E+10	1	-1E+10	1	-1E+10	1	-1E+10	1	-1E+10	1	-1E+10	1
4902551	44	C	10/27/2021	11:57	-134.166	49.735	0	274.90	0	4.9900	0	33.8730	0	26.785	0	272.369	0	71.3	4	23.0	4	-1E+10	1	-1E+10	1	-1E+10	1	-1E+10	1	-1E+10	1	-1E+10	1
4902551	44	C	10/27/2021	11:57	-134.166	49.735	0	276.50	0	4.9830	0	33.8740	0	26.787	0	273.953	0	70.9	4	22.9	4	-1E+10	1	-1E+10	1	-1E+10	1	-1E+10	1	-1E+10	1	-1E+10	1
4902551	44	C	10/27/2021	11:57	-134.166	49.735	0	277.50	0	4.9680	0	33.8770	0	26.791	0	274.943	0	70.6	4	22.8	4	-1E+10	1	-1E+10	1	-1E+10	1	-1E+10	1	-1E+10	1	-1E+10	1
4902551	44	C	10/27/2021	11:57	-134.166	49.735	0	278.50	0	4.9610	0	33.8770	0	26.792	0	275.933	0	70.4	4	22.7	4	-1E+10	1	-1E+10	1	-1E+10	1	-1E+10	1	-1E+10	1	-1E+10	1
4902551	44	C	10/27/2021	11:57	-134.166	49.735	0	279.50	0	4.9570	0	33.8770	0	26.792	0	276.923	0	70.2	4	22.6	4	-1E+10	1	-1E+10	1	-1E+10	1	-1E+10	1	-1E+10	1	-1E+10	1
4902551	44	C	10/27/2021	11:57	-134.166	49.735	0	280.50	0	4.9510	0	33.8790	0	26.795	0	277.913	0	69.9	4	22.5	4	-1E+10	1	-1E+10	1	-1E+10	1	-1E+10	1	-1E+10	1	-1E+10	1
4902551	44	C	10/27/2021	11:57	-134.166	49.735	0	281.50	0	4.9450	0	33.8800	0	26.796	0	278.903	0	69.7	4	22.5	4	-1E+10	1	-1E+10	1	-1E+10	1	-1E+10	1	-1E+10	1	-1E+10	1
4902551	44	C	10/27/2021	11:57	-134.166	49.735	0	282.60	0	4.9450	0	33.8790	0	26.795	0	279.993	0	69.5	4	22.4	4	-1E+10	1	-1E+10	1	-1E+10	1	-1E+10	1	-1E+10	1	-1E+10	1
4902551	44	C	10/27/2021	11:57	-134.166	49.735	0	283.60	0	4.9450	0	33.8790	0	26.795	0	280.983	0	69.3	4	22.3	4	-1E+10	1	-1E+10	1	-1E+10	1	-1E+10	1	-1E+10	1	-1E+10	1
4902551	44	C	10/27/2021	11:57	-134.166	49.735	0	284.60	0	4.9390	0	33.8800	0	26.797	0	281.973	0	69.0	4	22.2	4	-1E+10	1	-1E+10	1	-1E+10	1	-1E+10	1	-1E+10	1	-1E+10	1
4902551	44	C	10/27/2021	11:57	-134.166	49.735	0	285.70	0	4.9350	0	33.8810	0	26.798	0	283.062	0	68.7	4	22.1	4	-1E+10	1	-1E+10	1	-1E+10	1	-1E+10	1	-1E+10	1	-1E+10	1
4902551	44	C	10/27/2021	11:57	-134.166	49.735	0	286.80	0	4.9340	0	33.8810	0	26.798	0	284.151	0	68.4	4	22.0	4	-1E+10	1	-1E+10	1	-1E+10	1	-1E+10	1	-1E+10	1	-1E+10	1
4902551	44	C	10/27/2021	11:57	-134.166	49.735	0	287.80	0	4.9320	0	33.8810	0	26.798	0	285.141	0	68.1	4	21.9	4	-1E+10	1	-1E+10	1	-1E+10	1	-1E+10	1	-1E+10	1	-1E+10	1
4902551	44	C	10/27/2021	11:57	-134.166	49.735	0	288.80	0	4.9300	0	33.8810	0	26.799	0	286.131	0	67.8	4	21.8	4	-1E+10	1	-1E+10	1	-1E+10	1	-1E+10	1	-1E+10	1	-1E+10	1
4902551	44	C	10/27/2021	11:57	-134.166	49.735	0	289.80	0	4.9260	0	33.8810	0	26.799	0	287.121	0	67.4	4	21.7	4	-1E+10	1	-1E+10	1	-1E+10	1	-1E+10	1	-1E+10	1	-1E+10	1
4902551	44	C	10/27/2021	11:57	-134.166	49.735	0	290.90	0	4.9200	0	33.8830	0	26.801	0	288.210	0	67.0	4	21.6	4	-1E+10	1	-1E+10	1	-1E+10	1	-1E+10	1	-1E+10	1	-1E+10	1
4902551	44	C	10/27/2021	11:57	-134.166	49.735	0	291.90	0	4.9150	0	33.8840	0	26.803	0	289.200	0	66.6	4	21.4	4	-1E+10	1	-1E+10	1	-1E+10	1	-1E+10	1	-1E+10	1	-1E+10	1
4902551	44	C	10/27/2021	11:57	-134.166	49.735	0	292.90	0	4.9140	0	33.8830	0	26.802	0	290.190	0	66.2	4	21.3	4	-1E+10	1	-1E+10	1	-1E+10	1	-1E+10	1	-1E+10	1	-1E+10	1
4902551	44	C	10/27/2021	11:57	-134.166	49.735	0	293.90	0	4.8920	0	33.8920	0	26.812	0	291.180	0	65.8	4	21.2	4	-1E+10	1	-1E+10	1	-1E+10	1	-1E+10	1	-1E+10	1	-1E+10	1
4902551	44	C	10/27/2021	11:57	-134.166	49.735	0	295.00	0	4.8720	0	33.8880	0	26.811	0	292.269	0	65.5	4	21.1	4	-1E+10	1	-1E+10	1	-1E+10	1	-1E+10	1	-1E+10	1	-1E+10	1
4902551	44	C	10/27/2021	11:57	-134.166	49.735	0	296.00	0	4.8700	0	33.8890	0	26.812	0	293.259	0	65.2	4	21.0	4	-1E+10	1	-1E+10	1	-1E+10	1	-1E+10	1	-1E+10	1	-1E+10	1
4902551	44	C	10/27/2021	11:57	-134.166	49.735	0	297.10	0	4.8680	0	33.8890	0	26.812	0	294.348	0	64.9	4	20.9	4	-1E+10	1	-1E+10	1	-1E+10	1	-1E+10	1	-1E+10	1	-1E+10	1
4902551	44	C	10/27/2021	11:57	-134.166	49.735	0	298.10	0	4.8680	0	33.8880	0	26.811	0	295.339	0	64.5	4	20.8	4	-1E+10	1	-1E+10	1	-1E+10	1	-1E+10	1	-1E+10	1	-1E+10	1
4902551	44	C	10/27/2021	11:57	-134.166	49.735	0	299.10	0	4.8670	0	33.8880	0	26.811	0	296.329	0	64.2	4	20.7	4	-1E+10	1	-1E+10	1	-1E+10	1	-1E+10	1	-1E+10	1	-1E+10	1
4902551	44	C	10/27/2021	11:57	-134.166	49.735	0	300.20	0	4.8500	0	33.8920	0	26.816	0	297.418	0	63.9	4	20.5	4	-1E+10	1	-1E+10	1	-1E+10	1	-1E+10	1	-1E+10	1	-1E+10	1
4902551	44	C	10/27/2021	11:57	-134.166	49.735	0	301.20	0	4.8360	0	33.8920	0	26.818	0	298.408	0	63.6	4	20.4	4	-1E+10	1	-1E+10	1	-1E+10	1	-1E+10	1	-1E+10	1	-1E+10	1
4902551	44	C	10/27/2021	11:57	-134.166	49.735	0	302.30	0	4.8300	0	33.8930	0	26.819	0	299.497	0	63.4	4	20.4	4	-1E+10	1	-1E+10	1	-1E+10	1	-1E+10	1	-1E+10	1	-1E+10	1
4902551	44	C	10/27/2021	11:57	-134.166	49.735	0	303.30	0	4.8190	0	33.8950	0	26.822	0	300.487	0	63.1	4	20.3	4	-1E+10	1	-1E+10	1	-1E+10	1	-1E+10	1	-1E+10	1	-1E+10	1
4902551	44	C	10/27/2021	11:57	-134.166	49.735	0	304.40	0	4.8080	0	33.8950	0	26.824	0	301.576	0	62.8	4	20.2	4	-1E+10	1	-1E+10	1	-1E+10	1	-1E+10	1	-1E+10	1	-1E+10	1
4902551	44	C	10/27/2021	11:57	-134.166	49.735	0	305.40	0	4.8080	0	33.8950	0	26.824	0	302.566	0	62.6	4	20.1	4	-1E+10	1	-1E+10	1	-1E+10	1	-1E+10	1	-1E+10	1	-1E+10	1
4902551	44	C	10/27/2021	11:57	-134.166	49.735	0	306.40	0	4.8060	0	33.8950	0	26.824	0	303.556	0	62.2	4	20.0	4	-1E+10	1	-1E+10	1	-1E+10	1	-1E+10	1	-1E+10	1	-1E+10	1
4902551	44	C	10/27/2021	11:57	-134.166	49.735	0	307.40	0	4.7880	0	33.9030	0	26.832	0	304.546	0	62.0	4	19.9	4	-1E+10	1	-1E+10	1	-1E+10	1	-1E+10	1	-1E+10	1	-1E+10	1
4902551	44	C	10/27/2021	11:57	-134.166	49.735	0	308.50	0	4.7790	0	33.8980	0	26.829	0	305.634	0	61.7	4	19.8	4	-1E+10	1	-1E+10	1	-1E+10	1	-1E+10	1	-1E+10	1	-1E+10	1
4902551	44	C	10/27/2021	11:57	-134.166	49.735	0	309.50	0	4.7780	0	33.8980	0	26.829	0	306.624	0	61.5	4	19.7	4	-1E+10	1	-1E+10	1	-1E+10	1	-1E+10	1	-1E+10	1	-1E+10	1
4902551	44	C	10/27/2021	11:57	-134.166	49.735	0	310.60	0	4.7770	0	33.8980	0	26.829	0	307.713	0	61.1	4	19.6	4	-1E+10	1	-1E+10	1	-1E+10	1	-1E+10	1	-1E+10	1	-1E+10	1
4902551	44	C	10/27/2021	11:57	-134.166	49.735	0	311.60	0	4.7750	0	33.8980	0	26.830	0	308.703	0	60.9	4	19.5	4	-1E+10	1	-1E+10	1	-1E+10	1	-1E+10	1	-1E+10	1	-1E+10	1
4902551	44	C	10/27/2021	11:57	-134.166	49.735	0	312.60	0	4.7550	0	33.9030	0	26.836	0	309.693	0	60.6	4	19.4	4	-1E+10	1	-1E+10	1	-1E+10	1	-1E+10	1	-1E+10	1	-1E+10	1
4902551	44	C	10/27/2021	11:57	-134.166	49.735	0	313.70	0	4.7470	0	33.9040	0	26.838	0	310.782	0	60.4	4	19.4	4	-1E+10	1	-1E+10	1	-1E+10	1	-1E+10	1	-1E+10	1	-1E+10	1
4902551	44	C	10/27/2021	11:57	-134.166	49.735	0	314.70	0	4.7460	0	33.9040	0	26.838	0	311.772	0	60.2	4	19.3	4	-1E+10	1	-1E+10	1	-1E+10	1	-1E+10	1	-1E+10	1	-1E+10	1
4902551	44	C	10/27/2021	11:57	-134.166	49.735	0	315.80	0	4.7420	0	33.9040	0	26.838	0	312.861	0	59.9	4	19.2	4	-1E+10	1	-1E+10	1	-1E+10	1	-1E+10	1	-1E+10	1	-1E+10	1
4902551	44	C	10/27/2021	11:57	-134.166	49.735	0	316.80	0	4.7400	0	33.9050	0	26.839	0	313.851	0	59.8	4	19.2	4	-1E+10	1	-1E+10	1	-1E+10	1	-1E+10	1	-1E+10	1	-1E+10	1
4902551	44	C	10/27/2021	11:57	-134.166	49.735	0	317.80	0	4.7370	0	33.9050	0	26.839	0	314.841	0	59.5	4	19.1	4	-1E+10	1	-1E+10	1	-1E+10	1	-1E+10	1	-1E+10	1	-1E+10	1
4902551	44	C	10/27/2021	11:57	-134.166	49.735	0	318.80	0	4.7340	0	33.9060	0	26.841	0	315.831	0	59.3	4	19.0	4	-1E+10	1	-1E+10	1	-1E+10	1	-1E+10	1	-1E+10	1	-1E+10	1
4902551	44	C	10/27/2021	11:57	-134.166	49.735	0	319.90	0	4.7200	0	33.9080	0	26.844	0	316.920	0	59.1	4	18.9	4	-1E+10	1	-1E+10	1	-1E+10	1	-1E+10	1	-1E+10	1	-1E+10	1
4902551	44	C	10/27/2021	11:57	-134.166	49.735	0	320.70	0	4.7180	0	33.9080	0	26.844	0	317.712	0	58.9	4	18.9	4	-1E+10	1	-1E+10	1	-1E+10	1	-1E+10	1	-1E+10	1	-1E+10	1
4902551	44	C	10/27/2021	11:57	-134.166	49.735	0	321.90	0	4.7100	0	33.9100	0	26.846	0	318.900	0	58.7	4	18.8	4	-1E+10	1	-1E+10	1	-1E+10	1	-1E+10	1	-1E+10	1	-1E+10	1
4902551	44	C	10/27/2021	11:57	-134.166	49.735	0	323.10	0	4.7090	0	33.9090	0	26.846	0	320.088	0	58.5	4	18.7	4	-1E+10	1	-1E+10	1	-1E+10	1	-1E+10	1	-1E+10	1	-1E+10	1
4902551	44	C	10/27/2021	11:57	-134.166	49.735	0	323.90	0	4.7090	0	33.9090	0	26.846	0	320.880	0	58.3	4	18.7	4	-1E+10	1	-1E+10	1	-1E+10	1	-1E+10	1	-1E+10	1	-1E+10	1
4902551	44	C	10/27/2021	11:57	-134.166	49.735	0	325.00	0	4.7010	0	33.9100	0	26.847	0	321.968	0	58.0	4	18.6	4	-1E+10	1	-1E+10	1	-1E+10	1	-1E+10	1	-1E+10	1	-1E+10	1
4902551	44	C	10/27/2021	11:57	-134.166	49.735	0	326.20	0	4.6980	0	33.9100	0	26.848	0	323.156	0	57.7	4	18.5	4	-1E+10	1	-1E+10	1	-1E+10	1	-1E+10	1	-1E+10	1	-1E+10	1
4902551	44	C	10/27/2021	11:57	-134.166	49.735	0	327.00	0	4.6980	0	33.9100	0	26.848	0	323.948	0	57.5	4	18.4	4	-1E+10	1	-1E+10	1	-1E+10	1	-1E+10	1	-1E+10	1	-1E+10	1
4902551	44	C	10/27/2021	11:57	-134.166	49.735	0	327.80	0	4.6970	0	33.9110	0	26.849	0	324.740	0	57.2	4	18.3	4	-1E+10	1	-1E+10	1	-1E+10	1	-1E+10	1	-1E+10	1	-1E+10	1
4902551	44	C	10/27/2021	11:57	-134.166	49.735	0	329.00	0	4.6880	0	33.9120	0	26.850	0	325.928	0	56.8	4	18.2	4	-1E+10	1	-1E+10	1	-1E+10	1	-1E+10	1	-1E+10	1	-1E+10	1
4902551	44	C	10/27/2021	11:57	-134.166	49.735	0	330.20	0	4.6810	0	33.9130	0	26.852	0	327.116	0	56.5	4	18.1	4	-1E+10	1	-1E+10	1	-1E+10	1	-1E+10	1	-1E+10	1	-1E+10	1
4902551	44	C	10/27/2021	11:57	-134.166	49.735	0	331.00	0	4.6740	0	33.9160	0	26.855	0	327.908	0	56.2	4	18.0	4	-1E+10	1	-1E+10	1	-1E+10	1	-1E+10	1	-1E+10	1	-1E+10	1
4902551	44	C	10/27/2021	11:57	-134.166	49.735	0	331.80	0	4.6700	0	33.9150	0	26.855	0	328.700	0	56.0	4	17.9	4	-1E+10	1	-1E+10	1	-1E+10	1	-1E+10	1	-1E+10	1	-1E+10	1
4902551	44	C	10/27/2021	11:57	-134.166	49.735	0	333.00	0	4.6680	0	33.9140	0	26.854	0	329.887	0	55.6	4	17.8	4	-1E+10	1	-1E+10	1	-1E+10	1	-1E+10	1	-1E+10	1	-1E+10	1
4902551	44	C	10/27/2021	11:57	-134.166	49.735	0	334.20	0	4.6610	0	33.9160	0	26.857	0	331.075	0	55.1	4	17.6	4	-1E+10	1	-1E+10	1	-1E+10	1	-1E+10	1	-1E+10	1	-1E+10	1
4902551	44	C	10/27/2021	11:57	-134.166	49.735	0	335.10	0	4.6570	0	33.9170	0	26.858	0	331.966	0	54.8	4	17.5	4	-1E+10	1	-1E+10	1	-1E+10	1	-1E+10	1	-1E+10	1	-1E+10	1
4902551	44	C	10/27/2021	11:57	-134.166	49.735	0	335.90	0	4.6540	0	33.9180	0	26.859	0	332.758	0	54.5	4	17.4	4	-1E+10	1	-1E+10	1	-1E+10	1	-1E+10	1	-1E+10	1	-1E+10	1
4902551	44	C	10/27/2021	11:57	-134.166	49.735	0	336.70	0	4.6490	0	33.9190	0	26.860	0	333.550	0	54.1	4	17.3	4	-1E+10	1	-1E+10	1	-1E+10	1	-1E+10	1	-1E+10	1	-1E+10	1
4902551	44	C	10/27/2021	11:57	-134.166	49.735	0	337.90	0	4.6430	0	33.9200	0	26.862	0	334.738	0	53.7	4	17.2	4	-1E+10	1	-1E+10	1	-1E+10	1	-1E+10	1	-1E+10	1	-1E+10	1
4902551	44	C	10/27/2021	11:57	-134.166	49.735	0	339.10	0	4.6370	0	33.9220	0	26.864	0	335.925	0	53.3	4	17.0	4	-1E+10	1	-1E+10	1	-1E+10	1	-1E+10	1	-1E+10	1	-1E+10	1
4902551	44	C	10/27/2021	11:57	-134.166	49.735	0	339.90	0	4.6340	0	33.9240	0	26.866	0	336.717	0	53.0	4	16.9	4	-1E+10	1	-1E+10	1	-1E+10	1	-1E+10	1	-1E+10	1	-1E+10	1
4902551	44	C	10/27/2021	11:57	-134.166	49.735	0	340.70	0	4.6330	0	33.9250	0	26.867	0	337.509	0	52.7	4	16.9	4	-1E+10	1	-1E+10	1	-1E+10	1	-1E+10	1	-1E+10	1	-1E+10	1
4902551	44	C	10/27/2021	11:57	-134.166	49.735	0	341.90	0	4.6260	0	33.9280	0	26.870	0	338.697	0	52.3	4	16.7	4	-1E+10	1	-1E+10	1	-1E+10	1	-1E+10	1	-1E+10	1	-1E+10	1
4902551	44	C	10/27/2021	11:57	-134.166	49.735	0	343.20	0	4.6090	0	33.9310	0	26.874	0	339.984	0	51.9	4	16.6	4	-1E+10	1	-1E+10	1	-1E+10	1	-1E+10	1	-1E+10	1	-1E+10	1
4902551	44	C	10/27/2021	11:57	-134.166	49.735	0	344.00	0	4.5940	0	33.9330	0	26.878	0	340.776	0	51.8	4	16.5	4	-1E+10	1	-1E+10	1	-1E+10	1	-1E+10	1	-1E+10	1	-1E+10	1
4902551	44	C	10/27/2021	11:57	-134.166	49.735	0	344.80	0	4.5910	0	33.9340	0	26.879	0	341.567	0	51.7	4	16.5	4	-1E+10	1	-1E+10	1	-1E+10	1	-1E+10	1	-1E+10	1	-1E+10	1
4902551	44	C	10/27/2021	11:57	-134.166	49.735	0	345.70	0	4.5890	0	33.9340	0	26.879	0	342.458	0	51.5	4	16.5	4	-1E+10	1	-1E+10	1	-1E+10	1	-1E+10	1	-1E+10	1	-1E+10	1
4902551	44	C	10/27/2021	11:57	-134.166	49.735	0	346.90	0	4.5800	0	33.9380	0	26.883	0	343.646	0	51.4	4	16.4	4	-1E+10	1	-1E+10	1	-1E+10	1	-1E+10	1	-1E+10	1	-1E+10	1
4902551	44	C	10/27/2021	11:57	-134.166	49.735	0	348.20	0	4.5780	0	33.9390	0	26.884	0	344.933	0	51.3	4	16.4	4	-1E+10	1	-1E+10	1	-1E+10	1	-1E+10	1	-1E+10	1	-1E+10	1
4902551	44	C	10/27/2021	11:57	-134.166	49.735	0	349.10	0	4.5770	0	33.9390	0	26.884	0	345.824	0	51.3	4	16.4	4	-1E+10	1	-1E+10	1	-1E+10	1	-1E+10	1	-1E+10	1	-1E+10	1
4902551	44	C	10/27/2021	11:57	-134.166	49.735	0	349.90	0	4.5760	0	33.9390	0	26.884	0	346.615	0	51.2	4	16.4	4	-1E+10	1	-1E+10	1	-1E+10	1	-1E+10	1	-1E+10	1	-1E+10	1
4902551	44	C	10/27/2021	11:57	-134.166	49.735	0	352.90	0	4.5740	0	33.9390	0	26.885	0	349.585	0	51.0	4	16.3	4	-1E+10	1	-1E+10	1	-1E+10	1	-1E+10	1	-1E+10	1	-1E+10	1
4902551	44	C	10/27/2021	11:57	-134.166	49.735	0	358.00	0	4.5670	0	33.9410	0	26.887	0	354.632	0	50.5	4	16.1	4	-1E+10	1	-1E+10	1	-1E+10	1	-1E+10	1	-1E+10	1	-1E+10	1
4902551	44	C	10/27/2021	11:57	-134.166	49.735	0	363.20	0	4.5600	0	33.9420	0	26.889	0	359.779	0	49.4	4	15.8	4	-1E+10	1	-1E+10	1	-1E+10	1	-1E+10	1	-1E+10	1	-1E+10	1
4902551	44	C	10/27/2021	11:57	-134.166	49.735	0	368.00	0	4.5540	0	33.9450	0	26.892	0	364.530	0	48.3	4	15.4	4	-1E+10	1	-1E+10	1	-1E+10	1	-1E+10	1	-1E+10	1	-1E+10	1
4902551	44	C	10/27/2021	11:57	-134.166	49.735	0	372.80	0	4.5290	0	33.9520	0	26.900	0	369.280	0	47.3	4	15.1	4	-1E+10	1	-1E+10	1	-1E+10	1	-1E+10	1	-1E+10	1	-1E+10	1
4902551	44	C	10/27/2021	11:57	-134.166	49.735	0	377.80	0	4.5140	0	33.9570	0	26.906	0	374.228	0	46.4	4	14.8	4	-1E+10	1	-1E+10	1	-1E+10	1	-1E+10	1	-1E+10	1	-1E+10	1
4902551	44	C	10/27/2021	11:57	-134.166	49.735	0	382.80	0	4.4850	0	33.9650	0	26.915	0	379.176	0	45.7	4	14.6	4	-1E+10	1	-1E+10	1	-1E+10	1	-1E+10	1	-1E+10	1	-1E+10	1
4902551	44	C	10/27/2021	11:57	-134.166	49.735	0	388.00	0	4.4710	0	33.9680	0	26.919	0	384.322	0	45.3	4	14.4	4	-1E+10	1	-1E+10	1	-1E+10	1	-1E+10	1	-1E+10	1	-1E+10	1
4902551	44	C	10/27/2021	11:57	-134.166	49.735	0	393.00	0	4.4620	0	33.9710	0	26.922	0	389.270	0	45.0	4	14.3	4	-1E+10	1	-1E+10	1	-1E+10	1	-1E+10	1	-1E+10	1	-1E+10	1
4902551	44	C	10/27/2021	11:57	-134.166	49.735	0	398.10	0	4.4540	0	33.9730	0	26.925	0	394.317	0	44.7	4	14.2	4	-1E+10	1	-1E+10	1	-1E+10	1	-1E+10	1	-1E+10	1	-1E+10	1
4902551	44	C	10/27/2021	11:57	-134.166	49.735	0	402.70	0	4.4420	0	33.9760	0	26.929	0	398.869	0	44.3	4	14.1	4	-1E+10	1	-1E+10	1	-1E+10	1	-1E+10	1	-1E+10	1	-1E+10	1
4902551	44	C	10/27/2021	11:57	-134.166	49.735	0	407.90	0	4.4210	0	33.9810	0	26.935	0	404.014	0	43.4	4	13.8	4	-1E+10	1	-1E+10	1	-1E+10	1	-1E+10	1	-1E+10	1	-1E+10	1
4902551	44	C	10/27/2021	11:57	-134.166	49.735	0	413.10	0	4.4090	0	33.9860	0	26.940	0	409.160	0	42.2	4	13.4	4	-1E+10	1	-1E+10	1	-1E+10	1	-1E+10	1	-1E+10	1	-1E+10	1
4902551	44	C	10/27/2021	11:57	-134.166	49.735	0	417.70	0	4.3960	0	33.9920	0	26.946	0	413.711	0	41.3	4	13.1	4	-1E+10	1	-1E+10	1	-1E+10	1	-1E+10	1	-1E+10	1	-1E+10	1
4902551	44	C	10/27/2021	11:57	-134.166	49.735	0	422.80	0	4.3780	0	33.9990	0	26.954	0	418.757	0	40.3	4	12.8	4	-1E+10	1	-1E+10	1	-1E+10	1	-1E+10	1	-1E+10	1	-1E+10	1
4902551	44	C	10/27/2021	11:57	-134.166	49.735	0	428.10	0	4.3550	0	34.0070	0	26.963	0	424.001	0	39.5	4	12.6	4	-1E+10	1	-1E+10	1	-1E+10	1	-1E+10	1	-1E+10	1	-1E+10	1
4902551	44	C	10/27/2021	11:57	-134.166	49.735	0	432.80	0	4.3440	0	34.0110	0	26.967	0	428.651	0	38.7	4	12.3	4	-1E+10	1	-1E+10	1	-1E+10	1	-1E+10	1	-1E+10	1	-1E+10	1
4902551	44	C	10/27/2021	11:57	-134.166	49.735	0	437.70	0	4.3280	0	34.0160	0	26.973	0	433.499	0	37.8	4	12.0	4	-1E+10	1	-1E+10	1	-1E+10	1	-1E+10	1	-1E+10	1	-1E+10	1
4902551	44	C	10/27/2021	11:57	-134.166	49.735	0	442.50	0	4.3100	0	34.0230	0	26.980	0	438.248	0	36.7	4	11.7	4	-1E+10	1	-1E+10	1	-1E+10	1	-1E+10	1	-1E+10	1	-1E+10	1
4902551	44	C	10/27/2021	11:57	-134.166	49.735	0	447.90	0	4.2880	0	34.0320	0	26.990	0	443.591	0	36.1	4	11.5	4	-1E+10	1	-1E+10	1	-1E+10	1	-1E+10	1	-1E+10	1	-1E+10	1
4902551	44	C	10/27/2021	11:57	-134.166	49.735	0	453.30	0	4.2580	0	34.0400	0	26.999	0	448.933	0	35.9	4	11.4	4	-1E+10	1	-1E+10	1	-1E+10	1	-1E+10	1	-1E+10	1	-1E+10	1
4902551	44	C	10/27/2021	11:57	-134.166	49.735	0	458.30	0	4.2290	0	34.0470	0	27.008	0	453.879	0	35.7	4	11.3	4	-1E+10	1	-1E+10	1	-1E+10	1	-1E+10	1	-1E+10	1	-1E+10	1
4902551	44	C	10/27/2021	11:57	-134.166	49.735	0	463.30	0	4.2140	0	34.0520	0	27.013	0	458.825	0	35.1	4	11.1	4	-1E+10	1	-1E+10	1	-1E+10	1	-1E+10	1	-1E+10	1	-1E+10	1
4902551	44	C	10/27/2021	11:57	-134.166	49.735	0	468.40	0	4.2030	0	34.0550	0	27.017	0	463.870	0	34.5	4	10.9	4	-1E+10	1	-1E+10	1	-1E+10	1	-1E+10	1	-1E+10	1	-1E+10	1
4902551	44	C	10/27/2021	11:57	-134.166	49.735	0	472.90	0	4.1970	0	34.0590	0	27.021	0	468.322	0	33.9	4	10.7	4	-1E+10	1	-1E+10	1	-1E+10	1	-1E+10	1	-1E+10	1	-1E+10	1
4902551	44	C	10/27/2021	11:57	-134.166	49.735	0	477.50	0	4.1820	0	34.0630	0	27.026	0	472.872	0	33.2	4	10.5	4	-1E+10	1	-1E+10	1	-1E+10	1	-1E+10	1	-1E+10	1	-1E+10	1
4902551	44	C	10/27/2021	11:57	-134.166	49.735	0	483.00	0	4.1600	0	34.0700	0	27.034	0	478.313	0	32.4	4	10.3	4	-1E+10	1	-1E+10	1	-1E+10	1	-1E+10	1	-1E+10	1	-1E+10	1
4902551	44	C	10/27/2021	11:57	-134.166	49.735	0	488.00	0	4.1470	0	34.0750	0	27.039	0	483.258	0	31.8	4	10.1	4	-1E+10	1	-1E+10	1	-1E+10	1	-1E+10	1	-1E+10	1	-1E+10	1
4902551	44	C	10/27/2021	11:57	-134.166	49.735	0	493.00	0	4.1330	0	34.0800	0	27.044	0	488.204	0	31.1	4	9.8	4	-1E+10	1	-1E+10	1	-1E+10	1	-1E+10	1	-1E+10	1	-1E+10	1
4902551	44	C	10/27/2021	11:57	-134.166	49.735	0	498.20	0	4.1100	0	34.0870	0	27.052	0	493.347	0	30.5	4	9.6	4	-1E+10	1	-1E+10	1	-1E+10	1	-1E+10	1	-1E+10	1	-1E+10	1
4902551	44	C	10/27/2021	11:57	-134.166	49.735	0	503.00	0	4.0940	0	34.0920	0	27.058	0	498.094	0	30.1	4	9.5	4	-1E+10	1	-1E+10	1	-1E+10	1	-1E+10	1	-1E+10	1	-1E+10	1
4902551	44	C	10/27/2021	11:57	-134.166	49.735	0	508.00	0	4.0890	0	34.0940	0	27.060	0	503.040	0	29.7	4	9.4	4	-1E+10	1	-1E+10	1	-1E+10	1	-1E+10	1	-1E+10	1	-1E+10	1
4902551	44	C	10/27/2021	11:57	-134.166	49.735	0	513.00	0	4.0810	0	34.0960	0	27.063	0	507.985	0	29.1	4	9.2	4	-1E+10	1	-1E+10	1	-1E+10	1	-1E+10	1	-1E+10	1	-1E+10	1
4902551	44	C	10/27/2021	11:57	-134.166	49.735	0	518.20	0	4.0690	0	34.1000	0	27.067	0	513.127	0	28.5	4	9.0	4	-1E+10	1	-1E+10	1	-1E+10	1	-1E+10	1	-1E+10	1	-1E+10	1
4902551	44	C	10/27/2021	11:57	-134.166	49.735	0	523.00	0	4.0520	0	34.1060	0	27.074	0	517.874	0	28.1	4	8.9	4	-1E+10	1	-1E+10	1	-1E+10	1	-1E+10	1	-1E+10	1	-1E+10	1
4902551	44	C	10/27/2021	11:57	-134.166	49.735	0	527.80	0	4.0380	0	34.1100	0	27.078	0	522.621	0	27.8	4	8.8	4	-1E+10	1	-1E+10	1	-1E+10	1	-1E+10	1	-1E+10	1	-1E+10	1
4902551	44	C	10/27/2021	11:57	-134.166	49.735	0	532.80	0	4.0230	0	34.1150	0	27.084	0	527.566	0	27.4	4	8.7	4	-1E+10	1	-1E+10	1	-1E+10	1	-1E+10	1	-1E+10	1	-1E+10	1
4902551	44	C	10/27/2021	11:57	-134.166	49.735	0	537.70	0	4.0160	0	34.1170	0	27.086	0	532.412	0	27.1	4	8.6	4	-1E+10	1	-1E+10	1	-1E+10	1	-1E+10	1	-1E+10	1	-1E+10	1
4902551	44	C	10/27/2021	11:57	-134.166	49.735	0	543.10	0	4.0050	0	34.1200	0	27.090	0	537.752	0	26.8	4	8.5	4	-1E+10	1	-1E+10	1	-1E+10	1	-1E+10	1	-1E+10	1	-1E+10	1
4902551	44	C	10/27/2021	11:57	-134.166	49.735	0	547.90	0	3.9980	0	34.1230	0	27.093	0	542.498	0	26.4	4	8.3	4	-1E+10	1	-1E+10	1	-1E+10	1	-1E+10	1	-1E+10	1	-1E+10	1
4902551	44	C	10/27/2021	11:57	-134.166	49.735	0	552.80	0	3.9860	0	34.1270	0	27.097	0	547.343	0	26.0	4	8.2	4	-1E+10	1	-1E+10	1	-1E+10	1	-1E+10	1	-1E+10	1	-1E+10	1
4902551	44	C	10/27/2021	11:57	-134.166	49.735	0	557.70	0	3.9750	0	34.1300	0	27.101	0	552.188	0	25.8	4	8.1	4	-1E+10	1	-1E+10	1	-1E+10	1	-1E+10	1	-1E+10	1	-1E+10	1
4902551	44	C	10/27/2021	11:57	-134.166	49.735	0	562.60	0	3.9660	0	34.1320	0	27.103	0	557.033	0	25.5	4	8.0	4	-1E+10	1	-1E+10	1	-1E+10	1	-1E+10	1	-1E+10	1	-1E+10	1
4902551	44	C	10/27/2021	11:57	-134.166	49.735	0	568.00	0	3.9490	0	34.1370	0	27.109	0	562.373	0	25.2	4	7.9	4	-1E+10	1	-1E+10	1	-1E+10	1	-1E+10	1	-1E+10	1	-1E+10	1
4902551	44	C	10/27/2021	11:57	-134.166	49.735	0	572.80	0	3.9360	0	34.1420	0	27.114	0	567.119	0	24.9	4	7.8	4	-1E+10	1	-1E+10	1	-1E+10	1	-1E+10	1	-1E+10	1	-1E+10	1
4902551	44	C	10/27/2021	11:57	-134.166	49.735	0	577.70	0	3.9270	0	34.1440	0	27.117	0	571.963	0	24.6	4	7.7	4	-1E+10	1	-1E+10	1	-1E+10	1	-1E+10	1	-1E+10	1	-1E+10	1
4902551	44	C	10/27/2021	11:57	-134.166	49.735	0	583.10	0	3.9150	0	34.1480	0	27.121	0	577.302	0	24.2	4	7.6	4	-1E+10	1	-1E+10	1	-1E+10	1	-1E+10	1	-1E+10	1	-1E+10	1
4902551	44	C	10/27/2021	11:57	-134.166	49.735	0	588.20	0	3.9040	0	34.1510	0	27.125	0	582.344	0	23.9	4	7.5	4	-1E+10	1	-1E+10	1	-1E+10	1	-1E+10	1	-1E+10	1	-1E+10	1
4902551	44	C	10/27/2021	11:57	-134.166	49.735	0	592.80	0	3.8940	0	34.1540	0	27.128	0	586.892	0	23.6	4	7.4	4	-1E+10	1	-1E+10	1	-1E+10	1	-1E+10	1	-1E+10	1	-1E+10	1
4902551	44	C	10/27/2021	11:57	-134.166	49.735	0	598.00	0	3.8840	0	34.1570	0	27.132	0	592.033	0	23.2	4	7.3	4	-1E+10	1	-1E+10	1	-1E+10	1	-1E+10	1	-1E+10	1	-1E+10	1
4902551	44	C	10/27/2021	11:57	-134.166	49.735	0	603.30	0	3.8720	0	34.1610	0	27.136	0	597.272	0	22.9	4	7.2	4	-1E+10	1	-1E+10	1	-1E+10	1	-1E+10	1	-1E+10	1	-1E+10	1
4902551	44	C	10/27/2021	11:57	-134.166	49.735	0	608.10	0	3.8610	0	34.1640	0	27.140	0	602.017	0	22.5	4	7.1	4	-1E+10	1	-1E+10	1	-1E+10	1	-1E+10	1	-1E+10	1	-1E+10	1
4902551	44	C	10/27/2021	11:57	-134.166	49.735	0	612.90	0	3.8550	0	34.1660	0	27.142	0	606.762	0	22.1	4	6.9	4	-1E+10	1	-1E+10	1	-1E+10	1	-1E+10	1	-1E+10	1	-1E+10	1
4902551	44	C	10/27/2021	11:57	-134.166	49.735	0	617.80	0	3.8350	0	34.1720	0	27.149	0	611.606	0	21.7	4	6.8	4	-1E+10	1	-1E+10	1	-1E+10	1	-1E+10	1	-1E+10	1	-1E+10	1
4902551	44	C	10/27/2021	11:57	-134.166	49.735	0	622.80	0	3.8190	0	34.1760	0	27.154	0	616.549	0	21.5	4	6.8	4	-1E+10	1	-1E+10	1	-1E+10	1	-1E+10	1	-1E+10	1	-1E+10	1
4902551	44	C	10/27/2021	11:57	-134.166	49.735	0	627.80	0	3.8120	0	34.1780	0	27.156	0	621.491	0	21.3	4	6.7	4	-1E+10	1	-1E+10	1	-1E+10	1	-1E+10	1	-1E+10	1	-1E+10	1
4902551	44	C	10/27/2021	11:57	-134.166	49.735	0	632.80	0	3.8070	0	34.1800	0	27.158	0	626.433	0	21.1	4	6.6	4	-1E+10	1	-1E+10	1	-1E+10	1	-1E+10	1	-1E+10	1	-1E+10	1
4902551	44	C	10/27/2021	11:57	-134.166	49.735	0	637.70	0	3.7930	0	34.1840	0	27.163	0	631.276	0	20.8	4	6.5	4	-1E+10	1	-1E+10	1	-1E+10	1	-1E+10	1	-1E+10	1	-1E+10	1
4902551	44	C	10/27/2021	11:57	-134.166	49.735	0	642.60	0	3.7800	0	34.1870	0	27.166	0	636.120	0	20.6	4	6.5	4	-1E+10	1	-1E+10	1	-1E+10	1	-1E+10	1	-1E+10	1	-1E+10	1
4902551	44	C	10/27/2021	11:57	-134.166	49.735	0	647.60	0	3.7700	0	34.1900	0	27.170	0	641.061	0	20.3	4	6.4	4	-1E+10	1	-1E+10	1	-1E+10	1	-1E+10	1	-1E+10	1	-1E+10	1
4902551	44	C	10/27/2021	11:57	-134.166	49.735	0	652.60	0	3.7600	0	34.1930	0	27.173	0	646.003	0	20.0	4	6.3	4	-1E+10	1	-1E+10	1	-1E+10	1	-1E+10	1	-1E+10	1	-1E+10	1
4902551	44	C	10/27/2021	11:57	-134.166	49.735	0	658.10	0	3.7450	0	34.1970	0	27.178	0	651.439	0	19.7	4	6.2	4	-1E+10	1	-1E+10	1	-1E+10	1	-1E+10	1	-1E+10	1	-1E+10	1
4902551	44	C	10/27/2021	11:57	-134.166	49.735	0	663.00	0	3.7280	0	34.2010	0	27.183	0	656.282	0	19.5	4	6.1	4	-1E+10	1	-1E+10	1	-1E+10	1	-1E+10	1	-1E+10	1	-1E+10	1
4902551	44	C	10/27/2021	11:57	-134.166	49.735	0	667.70	0	3.7070	0	34.2060	0	27.189	0	660.927	0	19.2	4	6.0	4	-1E+10	1	-1E+10	1	-1E+10	1	-1E+10	1	-1E+10	1	-1E+10	1
4902551	44	C	10/27/2021	11:57	-134.166	49.735	0	672.90	0	3.6950	0	34.2100	0	27.193	0	666.066	0	19.0	4	6.0	4	-1E+10	1	-1E+10	1	-1E+10	1	-1E+10	1	-1E+10	1	-1E+10	1
4902551	44	C	10/27/2021	11:57	-134.166	49.735	0	678.00	0	3.6870	0	34.2120	0	27.196	0	671.106	0	18.7	4	5.9	4	-1E+10	1	-1E+10	1	-1E+10	1	-1E+10	1	-1E+10	1	-1E+10	1
4902551	44	C	10/27/2021	11:57	-134.166	49.735	0	682.50	0	3.6750	0	34.2150	0	27.199	0	675.553	0	18.5	4	5.8	4	-1E+10	1	-1E+10	1	-1E+10	1	-1E+10	1	-1E+10	1	-1E+10	1
4902551	44	C	10/27/2021	11:57	-134.166	49.735	0	687.60	0	3.6660	0	34.2180	0	27.203	0	680.592	0	18.3	4	5.7	4	-1E+10	1	-1E+10	1	-1E+10	1	-1E+10	1	-1E+10	1	-1E+10	1
4902551	44	C	10/27/2021	11:57	-134.166	49.735	0	692.80	0	3.6550	0	34.2210	0	27.206	0	685.731	0	18.0	4	5.6	4	-1E+10	1	-1E+10	1	-1E+10	1	-1E+10	1	-1E+10	1	-1E+10	1
4902551	44	C	10/27/2021	11:57	-134.166	49.735	0	698.10	0	3.6500	0	34.2230	0	27.208	0	690.968	0	17.8	4	5.6	4	-1E+10	1	-1E+10	1	-1E+10	1	-1E+10	1	-1E+10	1	-1E+10	1
4902551	44	C	10/27/2021	11:57	-134.166	49.735	0	702.90	0	3.6450	0	34.2250	0	27.210	0	695.711	0	17.5	4	5.5	4	-1E+10	1	-1E+10	1	-1E+10	1	-1E+10	1	-1E+10	1	-1E+10	1
4902551	44	C	10/27/2021	11:57	-134.166	49.735	0	707.80	0	3.6360	0	34.2270	0	27.213	0	700.553	0	17.2	4	5.4	4	-1E+10	1	-1E+10	1	-1E+10	1	-1E+10	1	-1E+10	1	-1E+10	1
4902551	44	C	10/27/2021	11:57	-134.166	49.735	0	712.80	0	3.6180	0	34.2320	0	27.219	0	705.493	0	16.8	4	5.3	4	-1E+10	1	-1E+10	1	-1E+10	1	-1E+10	1	-1E+10	1	-1E+10	1
4902551	44	C	10/27/2021	11:57	-134.166	49.735	0	717.90	0	3.5990	0	34.2380	0	27.225	0	710.532	0	16.6	4	5.2	4	-1E+10	1	-1E+10	1	-1E+10	1	-1E+10	1	-1E+10	1	-1E+10	1
4902551	44	C	10/27/2021	11:57	-134.166	49.735	0	723.00	0	3.5950	0	34.2390	0	27.226	0	715.571	0	16.4	4	5.1	4	-1E+10	1	-1E+10	1	-1E+10	1	-1E+10	1	-1E+10	1	-1E+10	1
4902551	44	C	10/27/2021	11:57	-134.166	49.735	0	727.70	0	3.5850	0	34.2420	0	27.230	0	720.214	0	16.3	4	5.1	4	-1E+10	1	-1E+10	1	-1E+10	1	-1E+10	1	-1E+10	1	-1E+10	1
4902551	44	C	10/27/2021	11:57	-134.166	49.735	0	732.70	0	3.5770	0	34.2450	0	27.233	0	725.154	0	16.1	4	5.0	4	-1E+10	1	-1E+10	1	-1E+10	1	-1E+10	1	-1E+10	1	-1E+10	1
4902551	44	C	10/27/2021	11:57	-134.166	49.735	0	737.60	0	3.5680	0	34.2470	0	27.236	0	729.995	0	16.1	4	5.0	4	-1E+10	1	-1E+10	1	-1E+10	1	-1E+10	1	-1E+10	1	-1E+10	1
4902551	44	C	10/27/2021	11:57	-134.166	49.735	0	742.60	0	3.5510	0	34.2500	0	27.240	0	734.935	0	16.0	4	5.0	4	-1E+10	1	-1E+10	1	-1E+10	1	-1E+10	1	-1E+10	1	-1E+10	1
4902551	44	C	10/27/2021	11:57	-134.166	49.735	0	747.60	0	3.5390	0	34.2530	0	27.243	0	739.874	0	15.9	4	5.0	4	-1E+10	1	-1E+10	1	-1E+10	1	-1E+10	1	-1E+10	1	-1E+10	1
4902551	44	C	10/27/2021	11:57	-134.166	49.735	0	752.60	0	3.5340	0	34.2550	0	27.245	0	744.814	0	15.8	4	4.9	4	-1E+10	1	-1E+10	1	-1E+10	1	-1E+10	1	-1E+10	1	-1E+10	1
4902551	44	C	10/27/2021	11:57	-134.166	49.735	0	757.70	0	3.5290	0	34.2560	0	27.247	0	749.852	0	15.7	4	4.9	4	-1E+10	1	-1E+10	1	-1E+10	1	-1E+10	1	-1E+10	1	-1E+10	1
4902551	44	C	10/27/2021	11:57	-134.166	49.735	0	762.80	0	3.5120	0	34.2600	0	27.252	0	754.890	0	15.5	4	4.8	4	-1E+10	1	-1E+10	1	-1E+10	1	-1E+10	1	-1E+10	1	-1E+10	1
4902551	44	C	10/27/2021	11:57	-134.166	49.735	0	768.10	0	3.4980	0	34.2640	0	27.256	0	760.125	0	15.3	4	4.8	4	-1E+10	1	-1E+10	1	-1E+10	1	-1E+10	1	-1E+10	1	-1E+10	1
4902551	44	C	10/27/2021	11:57	-134.166	49.735	0	772.90	0	3.4820	0	34.2680	0	27.261	0	764.867	0	15.2	4	4.7	4	-1E+10	1	-1E+10	1	-1E+10	1	-1E+10	1	-1E+10	1	-1E+10	1
4902551	44	C	10/27/2021	11:57	-134.166	49.735	0	777.70	0	3.4740	0	34.2690	0	27.262	0	769.608	0	15.1	4	4.7	4	-1E+10	1	-1E+10	1	-1E+10	1	-1E+10	1	-1E+10	1	-1E+10	1
4902551	44	C	10/27/2021	11:57	-134.166	49.735	0	782.90	0	3.4630	0	34.2720	0	27.266	0	774.744	0	15.0	4	4.7	4	-1E+10	1	-1E+10	1	-1E+10	1	-1E+10	1	-1E+10	1	-1E+10	1
4902551	44	C	10/27/2021	11:57	-134.166	49.735	0	788.20	0	3.4500	0	34.2750	0	27.270	0	779.979	0	14.9	4	4.6	4	-1E+10	1	-1E+10	1	-1E+10	1	-1E+10	1	-1E+10	1	-1E+10	1
4902551	44	C	10/27/2021	11:57	-134.166	49.735	0	792.90	0	3.4430	0	34.2770	0	27.272	0	784.621	0	14.7	4	4.6	4	-1E+10	1	-1E+10	1	-1E+10	1	-1E+10	1	-1E+10	1	-1E+10	1
4902551	44	C	10/27/2021	11:57	-134.166	49.735	0	797.80	0	3.4260	0	34.2810	0	27.277	0	789.461	0	14.6	4	4.5	4	-1E+10	1	-1E+10	1	-1E+10	1	-1E+10	1	-1E+10	1	-1E+10	1
4902551	44	C	10/27/2021	11:57	-134.166	49.735	0	803.10	0	3.4060	0	34.2850	0	27.282	0	794.695	0	14.4	4	4.5	4	-1E+10	1	-1E+10	1	-1E+10	1	-1E+10	1	-1E+10	1	-1E+10	1
4902551	44	C	10/27/2021	11:57	-134.166	49.735	0	808.10	0	3.3940	0	34.2880	0	27.285	0	799.633	0	14.3	4	4.5	4	-1E+10	1	-1E+10	1	-1E+10	1	-1E+10	1	-1E+10	1	-1E+10	1
4902551	44	C	10/27/2021	11:57	-134.166	49.735	0	813.10	0	3.3800	0	34.2910	0	27.289	0	804.571	0	14.2	4	4.4	4	-1E+10	1	-1E+10	1	-1E+10	1	-1E+10	1	-1E+10	1	-1E+10	1
4902551	44	C	10/27/2021	11:57	-134.166	49.735	0	818.30	0	3.3660	0	34.2940	0	27.293	0	809.707	0	14.2	4	4.4	4	-1E+10	1	-1E+10	1	-1E+10	1	-1E+10	1	-1E+10	1	-1E+10	1
4902551	44	C	10/27/2021	11:57	-134.166	49.735	0	823.10	0	3.3570	0	34.2960	0	27.295	0	814.447	0	14.1	4	4.4	4	-1E+10	1	-1E+10	1	-1E+10	1	-1E+10	1	-1E+10	1	-1E+10	1
4902551	44	C	10/27/2021	11:57	-134.166	49.735	0	827.90	0	3.3470	0	34.2980	0	27.298	0	819.187	0	14.0	4	4.3	4	-1E+10	1	-1E+10	1	-1E+10	1	-1E+10	1	-1E+10	1	-1E+10	1
4902551	44	C	10/27/2021	11:57	-134.166	49.735	0	832.90	0	3.3360	0	34.3010	0	27.301	0	824.125	0	13.9	4	4.3	4	-1E+10	1	-1E+10	1	-1E+10	1	-1E+10	1	-1E+10	1	-1E+10	1
4902551	44	C	10/27/2021	11:57	-134.166	49.735	0	837.90	0	3.3260	0	34.3020	0	27.303	0	829.062	0	13.8	4	4.3	4	-1E+10	1	-1E+10	1	-1E+10	1	-1E+10	1	-1E+10	1	-1E+10	1
4902551	44	C	10/27/2021	11:57	-134.166	49.735	0	843.10	0	3.3190	0	34.3040	0	27.305	0	834.197	0	13.7	4	4.3	4	-1E+10	1	-1E+10	1	-1E+10	1	-1E+10	1	-1E+10	1	-1E+10	1
4902551	44	C	10/27/2021	11:57	-134.166	49.735	0	848.10	0	3.3060	0	34.3060	0	27.308	0	839.134	0	13.6	4	4.2	4	-1E+10	1	-1E+10	1	-1E+10	1	-1E+10	1	-1E+10	1	-1E+10	1
4902551	44	C	10/27/2021	11:57	-134.166	49.735	0	853.10	0	3.2900	0	34.3100	0	27.313	0	844.071	0	13.5	4	4.2	4	-1E+10	1	-1E+10	1	-1E+10	1	-1E+10	1	-1E+10	1	-1E+10	1
4902551	44	C	10/27/2021	11:57	-134.166	49.735	0	858.20	0	3.2760	0	34.3130	0	27.317	0	849.107	0	13.5	4	4.2	4	-1E+10	1	-1E+10	1	-1E+10	1	-1E+10	1	-1E+10	1	-1E+10	1
4902551	44	C	10/27/2021	11:57	-134.166	49.735	0	863.20	0	3.2710	0	34.3150	0	27.319	0	854.044	0	13.4	4	4.2	4	-1E+10	1	-1E+10	1	-1E+10	1	-1E+10	1	-1E+10	1	-1E+10	1
4902551	44	C	10/27/2021	11:57	-134.166	49.735	0	868.30	0	3.2640	0	34.3160	0	27.320	0	859.079	0	13.3	4	4.1	4	-1E+10	1	-1E+10	1	-1E+10	1	-1E+10	1	-1E+10	1	-1E+10	1
4902551	44	C	10/27/2021	11:57	-134.166	49.735	0	872.90	0	3.2550	0	34.3180	0	27.323	0	863.621	0	13.3	4	4.1	4	-1E+10	1	-1E+10	1	-1E+10	1	-1E+10	1	-1E+10	1	-1E+10	1
4902551	44	C	10/27/2021	11:57	-134.166	49.735	0	877.60	0	3.2450	0	34.3210	0	27.326	0	868.261	0	13.3	4	4.1	4	-1E+10	1	-1E+10	1	-1E+10	1	-1E+10	1	-1E+10	1	-1E+10	1
4902551	44	C	10/27/2021	11:57	-134.166	49.735	0	882.60	0	3.2350	0	34.3220	0	27.328	0	873.197	0	13.2	4	4.1	4	-1E+10	1	-1E+10	1	-1E+10	1	-1E+10	1	-1E+10	1	-1E+10	1
4902551	44	C	10/27/2021	11:57	-134.166	49.735	0	887.70	0	3.2220	0	34.3250	0	27.331	0	878.232	0	13.2	4	4.1	4	-1E+10	1	-1E+10	1	-1E+10	1	-1E+10	1	-1E+10	1	-1E+10	1
4902551	44	C	10/27/2021	11:57	-134.166	49.735	0	892.80	0	3.2070	0	34.3290	0	27.336	0	883.267	0	13.1	4	4.1	4	-1E+10	1	-1E+10	1	-1E+10	1	-1E+10	1	-1E+10	1	-1E+10	1
4902551	44	C	10/27/2021	11:57	-134.166	49.735	0	898.10	0	3.2020	0	34.3300	0	27.337	0	888.499	0	13.1	4	4.1	4	-1E+10	1	-1E+10	1	-1E+10	1	-1E+10	1	-1E+10	1	-1E+10	1
4902551	44	C	10/27/2021	11:57	-134.166	49.735	0	903.10	0	3.2000	0	34.3310	0	27.338	0	893.435	0	13.0	4	4.0	4	-1E+10	1	-1E+10	1	-1E+10	1	-1E+10	1	-1E+10	1	-1E+10	1
4902551	44	C	10/27/2021	11:57	-134.166	49.735	0	908.00	0	3.1960	0	34.3320	0	27.340	0	898.272	0	13.0	4	4.0	4	-1E+10	1	-1E+10	1	-1E+10	1	-1E+10	1	-1E+10	1	-1E+10	1
4902551	44	C	10/27/2021	11:57	-134.166	49.735	0	913.00	0	3.1940	0	34.3330	0	27.341	0	903.208	0	13.0	4	4.0	4	-1E+10	1	-1E+10	1	-1E+10	1	-1E+10	1	-1E+10	1	-1E+10	1
4902551	44	C	10/27/2021	11:57	-134.166	49.735	0	918.10	0	3.1900	0	34.3330	0	27.341	0	908.242	0	13.0	4	4.0	4	-1E+10	1	-1E+10	1	-1E+10	1	-1E+10	1	-1E+10	1	-1E+10	1
4902551	44	C	10/27/2021	11:57	-134.166	49.735	0	923.10	0	3.1780	0	34.3360	0	27.345	0	913.178	0	13.0	4	4.0	4	-1E+10	1	-1E+10	1	-1E+10	1	-1E+10	1	-1E+10	1	-1E+10	1
4902551	44	C	10/27/2021	11:57	-134.166	49.735	0	927.70	0	3.1610	0	34.3400	0	27.349	0	917.718	0	12.9	4	4.0	4	-1E+10	1	-1E+10	1	-1E+10	1	-1E+10	1	-1E+10	1	-1E+10	1
4902551	44	C	10/27/2021	11:57	-134.166	49.735	0	932.80	0	3.1510	0	34.3420	0	27.352	0	922.752	0	12.9	4	4.0	4	-1E+10	1	-1E+10	1	-1E+10	1	-1E+10	1	-1E+10	1	-1E+10	1
4902551	44	C	10/27/2021	11:57	-134.166	49.735	0	937.90	0	3.1480	0	34.3430	0	27.353	0	927.786	0	12.8	4	4.0	4	-1E+10	1	-1E+10	1	-1E+10	1	-1E+10	1	-1E+10	1	-1E+10	1
4902551	44	C	10/27/2021	11:57	-134.166	49.735	0	943.00	0	3.1450	0	34.3430	0	27.353	0	932.819	0	12.8	4	4.0	4	-1E+10	1	-1E+10	1	-1E+10	1	-1E+10	1	-1E+10	1	-1E+10	1
4902551	44	C	10/27/2021	11:57	-134.166	49.735	0	948.10	0	3.1380	0	34.3450	0	27.356	0	937.853	0	12.8	4	3.9	4	-1E+10	1	-1E+10	1	-1E+10	1	-1E+10	1	-1E+10	1	-1E+10	1
4902551	44	C	10/27/2021	11:57	-134.166	49.735	0	952.70	0	3.1300	0	34.3460	0	27.357	0	942.393	0	12.7	4	3.9	4	-1E+10	1	-1E+10	1	-1E+10	1	-1E+10	1	-1E+10	1	-1E+10	1
4902551	44	C	10/27/2021	11:57	-134.166	49.735	0	957.90	0	3.1240	0	34.3480	0	27.359	0	947.525	0	12.7	4	3.9	4	-1E+10	1	-1E+10	1	-1E+10	1	-1E+10	1	-1E+10	1	-1E+10	1
4902551	44	C	10/27/2021	11:57	-134.166	49.735	0	963.10	0	3.1210	0	34.3490	0	27.360	0	952.657	0	12.7	4	3.9	4	-1E+10	1	-1E+10	1	-1E+10	1	-1E+10	1	-1E+10	1	-1E+10	1
4902551	44	C	10/27/2021	11:57	-134.166	49.735	0	967.90	0	3.1140	0	34.3500	0	27.362	0	957.394	0	12.6	4	3.9	4	-1E+10	1	-1E+10	1	-1E+10	1	-1E+10	1	-1E+10	1	-1E+10	1
4902551	44	C	10/27/2021	11:57	-134.166	49.735	0	972.70	0	3.1030	0	34.3530	0	27.365	0	962.131	0	12.6	4	3.9	4	-1E+10	1	-1E+10	1	-1E+10	1	-1E+10	1	-1E+10	1	-1E+10	1
4902551	44	C	10/27/2021	11:57	-134.166	49.735	0	977.50	0	3.0960	0	34.3540	0	27.367	0	966.867	0	12.6	4	3.9	4	-1E+10	1	-1E+10	1	-1E+10	1	-1E+10	1	-1E+10	1	-1E+10	1
4902551	44	C	10/27/2021	11:57	-134.166	49.735	0	982.90	0	3.0910	0	34.3550	0	27.368	0	972.196	0	12.6	4	3.9	4	-1E+10	1	-1E+10	1	-1E+10	1	-1E+10	1	-1E+10	1	-1E+10	1
4902551	44	C	10/27/2021	11:57	-134.166	49.735	0	988.20	0	3.0850	0	34.3570	0	27.370	0	977.426	0	12.6	4	3.9	4	-1E+10	1	-1E+10	1	-1E+10	1	-1E+10	1	-1E+10	1	-1E+10	1
4902551	44	C	10/27/2021	11:57	-134.166	49.735	0	993.10	0	3.0790	0	34.3580	0	27.372	0	982.261	0	12.6	4	3.9	4	-1E+10	1	-1E+10	1	-1E+10	1	-1E+10	1	-1E+10	1	-1E+10	1
4902551	44	C	10/27/2021	11:57	-134.166	49.735	0	998.00	0	3.0740	0	34.3590	0	27.373	0	987.096	0	12.6	4	3.9	4	-1E+10	1	-1E+10	1	-1E+10	1	-1E+10	1	-1E+10	1	-1E+10	1
4902551	44	C	10/27/2021	11:57	-134.166	49.735	0	1005.40	0	3.0610	0	34.3620	0	27.377	0	994.398	0	12.6	4	3.9	4	-1E+10	1	-1E+10	1	-1E+10	1	-1E+10	1	-1E+10	1	-1E+10	1
4902551	44	C	10/27/2021	11:57	-134.166	49.735	0	1015.40	0	3.0450	0	34.3660	0	27.381	0	1004.264	0	12.5	4	3.9	4	-1E+10	1	-1E+10	1	-1E+10	1	-1E+10	1	-1E+10	1	-1E+10	1
4902551	44	C	10/27/2021	11:57	-134.166	49.735	0	1025.30	0	3.0280	0	34.3700	0	27.386	0	1014.032	0	12.5	4	3.9	4	-1E+10	1	-1E+10	1	-1E+10	1	-1E+10	1	-1E+10	1	-1E+10	1
4902551	44	C	10/27/2021	11:57	-134.166	49.735	0	1035.50	0	3.0120	0	34.3740	0	27.391	0	1024.095	0	12.5	4	3.9	4	-1E+10	1	-1E+10	1	-1E+10	1	-1E+10	1	-1E+10	1	-1E+10	1
4902551	44	C	10/27/2021	11:57	-134.166	49.735	0	1045.60	0	2.9990	0	34.3770	0	27.394	0	1034.059	0	12.4	4	3.8	4	-1E+10	1	-1E+10	1	-1E+10	1	-1E+10	1	-1E+10	1	-1E+10	1
4902551	44	C	10/27/2021	11:57	-134.166	49.735	0	1055.60	0	2.9860	0	34.3820	0	27.400	0	1043.923	0	12.4	4	3.8	4	-1E+10	1	-1E+10	1	-1E+10	1	-1E+10	1	-1E+10	1	-1E+10	1
4902551	44	C	10/27/2021	11:57	-134.166	49.735	0	1065.30	0	2.9790	0	34.3850	0	27.403	0	1053.492	0	12.4	4	3.8	4	-1E+10	1	-1E+10	1	-1E+10	1	-1E+10	1	-1E+10	1	-1E+10	1
4902551	44	C	10/27/2021	11:57	-134.166	49.735	0	1075.10	0	2.9660	0	34.3880	0	27.406	0	1063.158	0	12.4	4	3.8	4	-1E+10	1	-1E+10	1	-1E+10	1	-1E+10	1	-1E+10	1	-1E+10	1
4902551	44	C	10/27/2021	11:57	-134.166	49.735	0	1085.50	0	2.9430	0	34.3930	0	27.412	0	1073.416	0	12.4	4	3.8	4	-1E+10	1	-1E+10	1	-1E+10	1	-1E+10	1	-1E+10	1	-1E+10	1
4902551	44	C	10/27/2021	11:57	-134.166	49.735	0	1095.90	0	2.9280	0	34.3960	0	27.416	0	1083.674	0	12.4	4	3.8	4	-1E+10	1	-1E+10	1	-1E+10	1	-1E+10	1	-1E+10	1	-1E+10	1
4902551	44	C	10/27/2021	11:57	-134.166	49.735	0	1105.60	0	2.9110	0	34.4000	0	27.421	0	1093.240	0	12.5	4	3.8	4	-1E+10	1	-1E+10	1	-1E+10	1	-1E+10	1	-1E+10	1	-1E+10	1
4902551	44	C	10/27/2021	11:57	-134.166	49.735	0	1115.40	0	2.9020	0	34.4030	0	27.424	0	1102.905	0	12.5	4	3.8	4	-1E+10	1	-1E+10	1	-1E+10	1	-1E+10	1	-1E+10	1	-1E+10	1
4902551	44	C	10/27/2021	11:57	-134.166	49.735	0	1125.20	0	2.8900	0	34.4050	0	27.427	0	1112.569	0	12.5	4	3.9	4	-1E+10	1	-1E+10	1	-1E+10	1	-1E+10	1	-1E+10	1	-1E+10	1
4902551	44	C	10/27/2021	11:57	-134.166	49.735	0	1135.20	0	2.8760	0	34.4090	0	27.431	0	1122.430	0	12.6	4	3.9	4	-1E+10	1	-1E+10	1	-1E+10	1	-1E+10	1	-1E+10	1	-1E+10	1
4902551	44	C	10/27/2021	11:57	-134.166	49.735	0	1145.40	0	2.8630	0	34.4110	0	27.434	0	1132.488	0	12.7	4	3.9	4	-1E+10	1	-1E+10	1	-1E+10	1	-1E+10	1	-1E+10	1	-1E+10	1
4902551	44	C	10/27/2021	11:57	-134.166	49.735	0	1155.40	0	2.8510	0	34.4140	0	27.438	0	1142.348	0	12.8	4	3.9	4	-1E+10	1	-1E+10	1	-1E+10	1	-1E+10	1	-1E+10	1	-1E+10	1
4902551	44	C	10/27/2021	11:57	-134.166	49.735	0	1165.50	0	2.8420	0	34.4160	0	27.440	0	1152.306	0	12.8	4	3.9	4	-1E+10	1	-1E+10	1	-1E+10	1	-1E+10	1	-1E+10	1	-1E+10	1
4902551	44	C	10/27/2021	11:57	-134.166	49.735	0	1175.60	0	2.8360	0	34.4160	0	27.441	0	1162.264	0	12.9	4	4.0	4	-1E+10	1	-1E+10	1	-1E+10	1	-1E+10	1	-1E+10	1	-1E+10	1
4902551	44	C	10/27/2021	11:57	-134.166	49.735	0	1185.70	0	2.8170	0	34.4200	0	27.446	0	1172.221	0	13.1	4	4.0	4	-1E+10	1	-1E+10	1	-1E+10	1	-1E+10	1	-1E+10	1	-1E+10	1
4902551	44	C	10/27/2021	11:57	-134.166	49.735	0	1195.60	0	2.8010	0	34.4230	0	27.450	0	1181.981	0	13.2	4	4.1	4	-1E+10	1	-1E+10	1	-1E+10	1	-1E+10	1	-1E+10	1	-1E+10	1
4902551	44	C	10/27/2021	11:57	-134.166	49.735	0	1205.60	0	2.7800	0	34.4270	0	27.455	0	1191.839	0	13.4	4	4.1	4	-1E+10	1	-1E+10	1	-1E+10	1	-1E+10	1	-1E+10	1	-1E+10	1
4902551	44	C	10/27/2021	11:57	-134.166	49.735	0	1215.60	0	2.7610	0	34.4300	0	27.459	0	1201.696	0	13.6	4	4.2	4	-1E+10	1	-1E+10	1	-1E+10	1	-1E+10	1	-1E+10	1	-1E+10	1
4902551	44	C	10/27/2021	11:57	-134.166	49.735	0	1225.40	0	2.7480	0	34.4320	0	27.462	0	1211.356	0	13.7	4	4.2	4	-1E+10	1	-1E+10	1	-1E+10	1	-1E+10	1	-1E+10	1	-1E+10	1
4902551	44	C	10/27/2021	11:57	-134.166	49.735	0	1235.60	0	2.7370	0	34.4350	0	27.465	0	1221.409	0	13.9	4	4.3	4	-1E+10	1	-1E+10	1	-1E+10	1	-1E+10	1	-1E+10	1	-1E+10	1
4902551	44	C	10/27/2021	11:57	-134.166	49.735	0	1245.40	0	2.7230	0	34.4370	0	27.468	0	1231.068	0	14.0	4	4.3	4	-1E+10	1	-1E+10	1	-1E+10	1	-1E+10	1	-1E+10	1	-1E+10	1
4902551	44	C	10/27/2021	11:57	-134.166	49.735	0	1255.20	0	2.7120	0	34.4390	0	27.470	0	1240.726	0	14.2	4	4.3	4	-1E+10	1	-1E+10	1	-1E+10	1	-1E+10	1	-1E+10	1	-1E+10	1
4902551	44	C	10/27/2021	11:57	-134.166	49.735	0	1265.30	0	2.6980	0	34.4420	0	27.474	0	1250.680	0	14.4	4	4.4	4	-1E+10	1	-1E+10	1	-1E+10	1	-1E+10	1	-1E+10	1	-1E+10	1
4902551	44	C	10/27/2021	11:57	-134.166	49.735	0	1275.60	0	2.6830	0	34.4440	0	27.477	0	1260.830	0	14.6	4	4.5	4	-1E+10	1	-1E+10	1	-1E+10	1	-1E+10	1	-1E+10	1	-1E+10	1
4902551	44	C	10/27/2021	11:57	-134.166	49.735	0	1285.50	0	2.6740	0	34.4460	0	27.479	0	1270.586	0	14.8	4	4.5	4	-1E+10	1	-1E+10	1	-1E+10	1	-1E+10	1	-1E+10	1	-1E+10	1
4902551	44	C	10/27/2021	11:57	-134.166	49.735	0	1295.30	0	2.6600	0	34.4490	0	27.483	0	1280.242	0	14.9	4	4.6	4	-1E+10	1	-1E+10	1	-1E+10	1	-1E+10	1	-1E+10	1	-1E+10	1
4902551	44	C	10/27/2021	11:57	-134.166	49.735	0	1305.50	0	2.6480	0	34.4500	0	27.485	0	1290.292	0	15.1	4	4.6	4	-1E+10	1	-1E+10	1	-1E+10	1	-1E+10	1	-1E+10	1	-1E+10	1
4902551	44	C	10/27/2021	11:57	-134.166	49.735	0	1315.50	0	2.6430	0	34.4520	0	27.487	0	1300.145	0	15.2	4	4.7	4	-1E+10	1	-1E+10	1	-1E+10	1	-1E+10	1	-1E+10	1	-1E+10	1
4902551	44	C	10/27/2021	11:57	-134.166	49.735	0	1325.50	0	2.6320	0	34.4530	0	27.489	0	1309.997	0	15.4	4	4.7	4	-1E+10	1	-1E+10	1	-1E+10	1	-1E+10	1	-1E+10	1	-1E+10	1
4902551	44	C	10/27/2021	11:57	-134.166	49.735	0	1335.60	0	2.6150	0	34.4560	0	27.493	0	1319.947	0	15.8	4	4.8	4	-1E+10	1	-1E+10	1	-1E+10	1	-1E+10	1	-1E+10	1	-1E+10	1
4902551	44	C	10/27/2021	11:57	-134.166	49.735	0	1345.20	0	2.6020	0	34.4590	0	27.496	0	1329.405	0	16.1	4	4.9	4	-1E+10	1	-1E+10	1	-1E+10	1	-1E+10	1	-1E+10	1	-1E+10	1
4902551	44	C	10/27/2021	11:57	-134.166	49.735	0	1355.40	0	2.5900	0	34.4620	0	27.500	0	1339.453	0	16.4	4	5.0	4	-1E+10	1	-1E+10	1	-1E+10	1	-1E+10	1	-1E+10	1	-1E+10	1
4902551	44	C	10/27/2021	11:57	-134.166	49.735	0	1365.40	0	2.5770	0	34.4640	0	27.503	0	1349.303	0	16.6	4	5.1	4	-1E+10	1	-1E+10	1	-1E+10	1	-1E+10	1	-1E+10	1	-1E+10	1
4902551	44	C	10/27/2021	11:57	-134.166	49.735	0	1375.60	0	2.5650	0	34.4660	0	27.505	0	1359.350	0	16.8	4	5.1	4	-1E+10	1	-1E+10	1	-1E+10	1	-1E+10	1	-1E+10	1	-1E+10	1
4902551	44	C	10/27/2021	11:57	-134.166	49.735	0	1385.70	0	2.5540	0	34.4670	0	27.507	0	1369.298	0	17.1	4	5.2	4	-1E+10	1	-1E+10	1	-1E+10	1	-1E+10	1	-1E+10	1	-1E+10	1
4902551	44	C	10/27/2021	11:57	-134.166	49.735	0	1395.40	0	2.5440	0	34.4690	0	27.510	0	1378.851	0	17.6	4	5.4	4	-1E+10	1	-1E+10	1	-1E+10	1	-1E+10	1	-1E+10	1	-1E+10	1
4902551	44	C	10/27/2021	11:57	-134.166	49.735	0	1405.40	0	2.5340	0	34.4730	0	27.514	0	1388.700	0	18.2	4	5.5	4	-1E+10	1	-1E+10	1	-1E+10	1	-1E+10	1	-1E+10	1	-1E+10	1
4902551	44	C	10/27/2021	11:57	-134.166	49.735	0	1415.50	0	2.5200	0	34.4760	0	27.517	0	1398.646	0	18.7	4	5.7	4	-1E+10	1	-1E+10	1	-1E+10	1	-1E+10	1	-1E+10	1	-1E+10	1
4902551	44	C	10/27/2021	11:57	-134.166	49.735	0	1425.10	0	2.5040	0	34.4800	0	27.522	0	1408.100	0	19.1	4	5.8	4	-1E+10	1	-1E+10	1	-1E+10	1	-1E+10	1	-1E+10	1	-1E+10	1
4902551	44	C	10/27/2021	11:57	-134.166	49.735	0	1434.90	0	2.4960	0	34.4810	0	27.523	0	1417.750	0	19.6	4	6.0	4	-1E+10	1	-1E+10	1	-1E+10	1	-1E+10	1	-1E+10	1	-1E+10	1
4902551	44	C	10/27/2021	11:57	-134.166	49.735	0	1445.00	0	2.4730	0	34.4850	0	27.529	0	1427.695	0	20.3	4	6.2	4	-1E+10	1	-1E+10	1	-1E+10	1	-1E+10	1	-1E+10	1	-1E+10	1
4902551	44	C	10/27/2021	11:57	-134.166	49.735	0	1455.10	0	2.4540	0	34.4880	0	27.533	0	1437.640	0	20.8	4	6.4	4	-1E+10	1	-1E+10	1	-1E+10	1	-1E+10	1	-1E+10	1	-1E+10	1
4902551	44	C	10/27/2021	11:57	-134.166	49.735	0	1465.40	0	2.4370	0	34.4910	0	27.537	0	1447.781	0	21.5	4	6.6	4	-1E+10	1	-1E+10	1	-1E+10	1	-1E+10	1	-1E+10	1	-1E+10	1
4902551	44	C	10/27/2021	11:57	-134.166	49.735	0	1475.40	0	2.4170	0	34.4940	0	27.541	0	1457.626	0	22.0	4	6.7	4	-1E+10	1	-1E+10	1	-1E+10	1	-1E+10	1	-1E+10	1	-1E+10	1
4902551	44	C	10/27/2021	11:57	-134.166	49.735	0	1485.50	0	2.4030	0	34.4970	0	27.544	0	1467.570	0	22.6	4	6.9	4	-1E+10	1	-1E+10	1	-1E+10	1	-1E+10	1	-1E+10	1	-1E+10	1
4902551	44	C	10/27/2021	11:57	-134.166	49.735	0	1495.70	0	2.3860	0	34.5000	0	27.548	0	1477.611	0	23.1	4	7.0	4	-1E+10	1	-1E+10	1	-1E+10	1	-1E+10	1	-1E+10	1	-1E+10	1
4902551	44	C	10/27/2021	11:57	-134.166	49.735	0	1505.10	0	2.3760	0	34.5010	0	27.550	0	1486.864	0	23.5	4	7.2	4	-1E+10	1	-1E+10	1	-1E+10	1	-1E+10	1	-1E+10	1	-1E+10	1
4902551	44	C	10/27/2021	11:57	-134.166	49.735	0	1515.20	0	2.3630	0	34.5040	0	27.553	0	1496.806	0	24.0	4	7.3	4	-1E+10	1	-1E+10	1	-1E+10	1	-1E+10	1	-1E+10	1	-1E+10	1
4902551	44	C	10/27/2021	11:57	-134.166	49.735	0	1525.20	0	2.3530	0	34.5050	0	27.555	0	1506.649	0	24.6	4	7.5	4	-1E+10	1	-1E+10	1	-1E+10	1	-1E+10	1	-1E+10	1	-1E+10	1
4902551	44	C	10/27/2021	11:57	-134.166	49.735	0	1535.40	0	2.3350	0	34.5080	0	27.559	0	1516.688	0	25.2	4	7.7	4	-1E+10	1	-1E+10	1	-1E+10	1	-1E+10	1	-1E+10	1	-1E+10	1
4902551	44	C	10/27/2021	11:57	-134.166	49.735	0	1545.40	0	2.3210	0	34.5110	0	27.562	0	1526.531	0	25.7	4	7.8	4	-1E+10	1	-1E+10	1	-1E+10	1	-1E+10	1	-1E+10	1	-1E+10	1
4902551	44	C	10/27/2021	11:57	-134.166	49.735	0	1555.20	0	2.3130	0	34.5130	0	27.565	0	1536.175	0	26.0	4	7.9	4	-1E+10	1	-1E+10	1	-1E+10	1	-1E+10	1	-1E+10	1	-1E+10	1
4902551	44	C	10/27/2021	11:57	-134.166	49.735	0	1565.50	0	2.3050	0	34.5140	0	27.566	0	1546.312	0	26.3	4	8.0	4	-1E+10	1	-1E+10	1	-1E+10	1	-1E+10	1	-1E+10	1	-1E+10	1
4902551	44	C	10/27/2021	11:57	-134.166	49.735	0	1575.60	0	2.2970	0	34.5150	0	27.568	0	1556.251	0	26.7	4	8.1	4	-1E+10	1	-1E+10	1	-1E+10	1	-1E+10	1	-1E+10	1	-1E+10	1
4902551	44	C	10/27/2021	11:57	-134.166	49.735	0	1585.30	0	2.2880	0	34.5160	0	27.569	0	1565.796	0	27.1	4	8.2	4	-1E+10	1	-1E+10	1	-1E+10	1	-1E+10	1	-1E+10	1	-1E+10	1
4902551	44	C	10/27/2021	11:57	-134.166	49.735	0	1595.50	0	2.2780	0	34.5180	0	27.572	0	1575.832	0	27.7	4	8.4	4	-1E+10	1	-1E+10	1	-1E+10	1	-1E+10	1	-1E+10	1	-1E+10	1
4902551	44	C	10/27/2021	11:57	-134.166	49.735	0	1605.50	0	2.2650	0	34.5210	0	27.575	0	1585.672	0	28.3	4	8.6	4	-1E+10	1	-1E+10	1	-1E+10	1	-1E+10	1	-1E+10	1	-1E+10	1
4902551	44	C	10/27/2021	11:57	-134.166	49.735	0	1615.40	0	2.2560	0	34.5220	0	27.577	0	1595.412	0	28.8	4	8.7	4	-1E+10	1	-1E+10	1	-1E+10	1	-1E+10	1	-1E+10	1	-1E+10	1
4902551	44	C	10/27/2021	11:57	-134.166	49.735	0	1625.40	0	2.2490	0	34.5240	0	27.579	0	1605.250	0	29.3	4	8.9	4	-1E+10	1	-1E+10	1	-1E+10	1	-1E+10	1	-1E+10	1	-1E+10	1
4902551	44	C	10/27/2021	11:57	-134.166	49.735	0	1635.50	0	2.2390	0	34.5250	0	27.581	0	1615.187	0	30.2	4	9.1	4	-1E+10	1	-1E+10	1	-1E+10	1	-1E+10	1	-1E+10	1	-1E+10	1
4902551	44	C	10/27/2021	11:57	-134.166	49.735	0	1645.80	0	2.2190	0	34.5290	0	27.586	0	1625.319	0	31.2	4	9.5	4	-1E+10	1	-1E+10	1	-1E+10	1	-1E+10	1	-1E+10	1	-1E+10	1
4902551	44	C	10/27/2021	11:57	-134.166	49.735	0	1655.80	0	2.2020	0	34.5320	0	27.590	0	1635.156	0	31.8	4	9.6	4	-1E+10	1	-1E+10	1	-1E+10	1	-1E+10	1	-1E+10	1	-1E+10	1
4902551	44	C	10/27/2021	11:57	-134.166	49.735	0	1665.80	0	2.1940	0	34.5340	0	27.592	0	1644.993	0	32.4	4	9.8	4	-1E+10	1	-1E+10	1	-1E+10	1	-1E+10	1	-1E+10	1	-1E+10	1
4902551	44	C	10/27/2021	11:57	-134.166	49.735	0	1675.80	0	2.1820	0	34.5360	0	27.594	0	1654.829	0	33.2	4	10.1	4	-1E+10	1	-1E+10	1	-1E+10	1	-1E+10	1	-1E+10	1	-1E+10	1
4902551	44	C	10/27/2021	11:57	-134.166	49.735	0	1685.50	0	2.1710	0	34.5380	0	27.597	0	1664.370	0	33.9	4	10.3	4	-1E+10	1	-1E+10	1	-1E+10	1	-1E+10	1	-1E+10	1	-1E+10	1
4902551	44	C	10/27/2021	11:57	-134.166	49.735	0	1695.20	0	2.1600	0	34.5400	0	27.599	0	1673.910	0	34.6	4	10.5	4	-1E+10	1	-1E+10	1	-1E+10	1	-1E+10	1	-1E+10	1	-1E+10	1
4902551	44	C	10/27/2021	11:57	-134.166	49.735	0	1705.50	0	2.1480	0	34.5420	0	27.602	0	1684.039	0	35.3	4	10.7	4	-1E+10	1	-1E+10	1	-1E+10	1	-1E+10	1	-1E+10	1	-1E+10	1
4902551	44	C	10/27/2021	11:57	-134.166	49.735	0	1715.40	0	2.1390	0	34.5440	0	27.604	0	1693.775	0	35.9	4	10.9	4	-1E+10	1	-1E+10	1	-1E+10	1	-1E+10	1	-1E+10	1	-1E+10	1
4902551	44	C	10/27/2021	11:57	-134.166	49.735	0	1725.50	0	2.1300	0	34.5460	0	27.607	0	1703.707	0	36.5	4	11.0	4	-1E+10	1	-1E+10	1	-1E+10	1	-1E+10	1	-1E+10	1	-1E+10	1
4902551	44	C	10/27/2021	11:57	-134.166	49.735	0	1735.80	0	2.1200	0	34.5470	0	27.608	0	1713.836	0	37.0	4	11.2	4	-1E+10	1	-1E+10	1	-1E+10	1	-1E+10	1	-1E+10	1	-1E+10	1
4902551	44	C	10/27/2021	11:57	-134.166	49.735	0	1745.40	0	2.1130	0	34.5490	0	27.611	0	1723.275	0	37.5	4	11.3	4	-1E+10	1	-1E+10	1	-1E+10	1	-1E+10	1	-1E+10	1	-1E+10	1
4902551	44	C	10/27/2021	11:57	-134.166	49.735	0	1755.30	0	2.1050	0	34.5500	0	27.612	0	1733.010	0	38.1	4	11.5	4	-1E+10	1	-1E+10	1	-1E+10	1	-1E+10	1	-1E+10	1	-1E+10	1
4902551	44	C	10/27/2021	11:57	-134.166	49.735	0	1765.50	0	2.0960	0	34.5520	0	27.615	0	1743.038	0	38.7	4	11.7	4	-1E+10	1	-1E+10	1	-1E+10	1	-1E+10	1	-1E+10	1	-1E+10	1
4902551	44	C	10/27/2021	11:57	-134.166	49.735	0	1775.50	0	2.0870	0	34.5540	0	27.617	0	1752.870	0	39.4	4	11.9	4	-1E+10	1	-1E+10	1	-1E+10	1	-1E+10	1	-1E+10	1	-1E+10	1
4902551	44	C	10/27/2021	11:57	-134.166	49.735	0	1785.20	0	2.0790	0	34.5550	0	27.618	0	1762.406	0	39.9	4	12.1	4	-1E+10	1	-1E+10	1	-1E+10	1	-1E+10	1	-1E+10	1	-1E+10	1
4902551	44	C	10/27/2021	11:57	-134.166	49.735	0	1795.10	0	2.0730	0	34.5560	0	27.620	0	1772.138	0	40.6	4	12.3	4	-1E+10	1	-1E+10	1	-1E+10	1	-1E+10	1	-1E+10	1	-1E+10	1
4902551	44	C	10/27/2021	11:57	-134.166	49.735	0	1805.20	0	2.0650	0	34.5580	0	27.622	0	1782.066	0	41.2	4	12.4	4	-1E+10	1	-1E+10	1	-1E+10	1	-1E+10	1	-1E+10	1	-1E+10	1
4902551	44	C	10/27/2021	11:57	-134.166	49.735	0	1815.30	0	2.0590	0	34.5590	0	27.623	0	1791.995	0	41.9	4	12.7	4	-1E+10	1	-1E+10	1	-1E+10	1	-1E+10	1	-1E+10	1	-1E+10	1
4902551	44	C	10/27/2021	11:57	-134.166	49.735	0	1825.20	0	2.0480	0	34.5620	0	27.627	0	1801.725	0	42.7	4	12.9	4	-1E+10	1	-1E+10	1	-1E+10	1	-1E+10	1	-1E+10	1	-1E+10	1
4902551	44	C	10/27/2021	11:57	-134.166	49.735	0	1835.30	0	2.0410	0	34.5630	0	27.628	0	1811.653	0	43.3	4	13.1	4	-1E+10	1	-1E+10	1	-1E+10	1	-1E+10	1	-1E+10	1	-1E+10	1
4902551	44	C	10/27/2021	11:57	-134.166	49.735	0	1845.60	0	2.0350	0	34.5640	0	27.629	0	1821.776	0	43.7	4	13.2	4	-1E+10	1	-1E+10	1	-1E+10	1	-1E+10	1	-1E+10	1	-1E+10	1
4902551	44	C	10/27/2021	11:57	-134.166	49.735	0	1855.60	0	2.0310	0	34.5650	0	27.631	0	1831.604	0	44.1	4	13.3	4	-1E+10	1	-1E+10	1	-1E+10	1	-1E+10	1	-1E+10	1	-1E+10	1
4902551	44	C	10/27/2021	11:57	-134.166	49.735	0	1865.10	0	2.0280	0	34.5660	0	27.632	0	1840.940	0	44.5	4	13.4	4	-1E+10	1	-1E+10	1	-1E+10	1	-1E+10	1	-1E+10	1	-1E+10	1
4902551	44	C	10/27/2021	11:57	-134.166	49.735	0	1875.30	0	2.0220	0	34.5670	0	27.633	0	1850.963	0	45.1	4	13.6	4	-1E+10	1	-1E+10	1	-1E+10	1	-1E+10	1	-1E+10	1	-1E+10	1
4902551	44	C	10/27/2021	11:57	-134.166	49.735	0	1885.40	0	2.0130	0	34.5690	0	27.635	0	1860.888	0	45.7	4	13.8	4	-1E+10	1	-1E+10	1	-1E+10	1	-1E+10	1	-1E+10	1	-1E+10	1
4902551	44	C	10/27/2021	11:57	-134.166	49.735	0	1895.40	0	2.0080	0	34.5700	0	27.637	0	1870.714	0	46.2	4	13.9	4	-1E+10	1	-1E+10	1	-1E+10	1	-1E+10	1	-1E+10	1	-1E+10	1
4902551	44	C	10/27/2021	11:57	-134.166	49.735	0	1905.70	0	2.0000	0	34.5710	0	27.638	0	1880.834	0	46.9	4	14.2	4	-1E+10	1	-1E+10	1	-1E+10	1	-1E+10	1	-1E+10	1	-1E+10	1
4902551	44	C	10/27/2021	11:57	-134.166	49.735	0	1915.40	0	1.9910	0	34.5730	0	27.640	0	1890.365	0	47.8	4	14.4	4	-1E+10	1	-1E+10	1	-1E+10	1	-1E+10	1	-1E+10	1	-1E+10	1
4902551	44	C	10/27/2021	11:57	-134.166	49.735	0	1925.70	0	1.9810	0	34.5750	0	27.643	0	1900.484	0	48.4	4	14.6	4	-1E+10	1	-1E+10	1	-1E+10	1	-1E+10	1	-1E+10	1	-1E+10	1
4902551	44	C	10/27/2021	11:57	-134.166	49.735	0	1935.60	0	1.9750	0	34.5760	0	27.644	0	1910.210	0	48.8	4	14.7	4	-1E+10	1	-1E+10	1	-1E+10	1	-1E+10	1	-1E+10	1	-1E+10	1
4902551	44	C	10/27/2021	11:57	-134.166	49.735	0	1945.40	0	1.9690	0	34.5770	0	27.645	0	1919.837	0	49.3	4	14.9	4	-1E+10	1	-1E+10	1	-1E+10	1	-1E+10	1	-1E+10	1	-1E+10	1
4902551	44	C	10/27/2021	11:57	-134.166	49.735	0	1955.20	0	1.9650	0	34.5780	0	27.647	0	1929.464	0	50.1	4	15.1	4	-1E+10	1	-1E+10	1	-1E+10	1	-1E+10	1	-1E+10	1	-1E+10	1
4902551	44	C	10/27/2021	11:57	-134.166	49.735	0	1965.30	0	1.9530	0	34.5810	0	27.650	0	1939.385	0	51.2	4	15.4	4	-1E+10	1	-1E+10	1	-1E+10	1	-1E+10	1	-1E+10	1	-1E+10	1
4902551	44	C	10/27/2021	11:57	-134.166	49.735	0	1975.20	0	1.9440	0	34.5830	0	27.652	0	1949.110	0	51.9	4	15.6	4	-1E+10	1	-1E+10	1	-1E+10	1	-1E+10	1	-1E+10	1	-1E+10	1
4902551	44	C	10/27/2021	11:57	-134.166	49.735	0	1985.30	0	1.9370	0	34.5850	0	27.655	0	1959.030	0	52.6	4	15.8	4	-1E+10	1	-1E+10	1	-1E+10	1	-1E+10	1	-1E+10	1	-1E+10	1
4902551	44	C	10/27/2021	11:57	-134.166	49.735	0	1995.40	0	1.9290	0	34.5860	0	27.656	0	1968.950	0	53.0	4	16.0	4	-1E+10	1	-1E+10	1	-1E+10	1	-1E+10	1	-1E+10	1	-1E+10	1
4902551	44	C	10/27/2021	11:57	-134.166	49.735	0	2005.10	0	1.9270	0	34.5870	0	27.657	0	1978.476	0	53.2	4	16.0	4	-1E+10	1	-1E+10	1	-1E+10	1	-1E+10	1	-1E+10	1	-1E+10	1
4902551	44	C	10/27/2021	11:57	-134.166	49.735	0	2015.10	0	1.9250	0	34.5870	0	27.657	0	1988.297	0	53.4	4	16.1	4	-1E+10	1	-1E+10	1	-1E+10	1	-1E+10	1	-1E+10	1	-1E+10	1
4902551	44	C	10/27/2021	11:57	-134.166	49.735	0	2025.60	0	1.9180	0	34.5880	0	27.659	0	1998.608	0	53.2	4	16.0	4	-1E+10	1	-1E+10	1	-1E+10	1	-1E+10	1	-1E+10	1	-1E+10	1
4902551	44	C	10/27/2021	11:57	-134.166	49.735	0																										
4902551	45	C	11/06/2021	17:01	-133.889	49.729	0	0.30	0	10.2930	0	32.1700	0	24.694	0	0.297	0	258.5	4	92.8	4	-1E+10	1	-1E+10	1	-1E+10	1	-1E+10	1	-1E+10	1	-1E+10	1
4902551	45	C	11/06/2021	17:01	-133.889	49.729	0	0.90	0	10.2920	0	32.1700	0	24.695	0	0.892	0	258.4	4	92.8	4	-1E+10	1	-1E+10	1	-1E+10	1	-1E+10	1	-1E+10	1	-1E+10	1
4902551	45	C	11/06/2021	17:01	-133.889	49.729	0	1.80	0	10.2910	0	32.1720	0	24.696	0	1.785	0	258.5	4	92.8	4	-1E+10	1	-1E+10	1	-1E+10	1	-1E+10	1	-1E+10	1	-1E+10	1
4902551	45	C	11/06/2021	17:01	-133.889	49.729	0	2.70	0	10.2920	0	32.1720	0	24.696	0	2.677	0	258.4	4	92.8	4	-1E+10	1	-1E+10	1	-1E+10	1	-1E+10	1	-1E+10	1	-1E+10	1
4902551	45	C	11/06/2021	17:01	-133.889	49.729	0	3.70	0	10.2910	0	32.1730	0	24.697	0	3.668	0	258.4	4	92.8	4	-1E+10	1	-1E+10	1	-1E+10	1	-1E+10	1	-1E+10	1	-1E+10	1
4902551	45	C	11/06/2021	17:01	-133.889	49.729	0	4.90	0	10.2920	0	32.1720	0	24.696	0	4.858	0	258.4	4	92.8	4	-1E+10	1	-1E+10	1	-1E+10	1	-1E+10	1	-1E+10	1	-1E+10	1
4902551	45	C	11/06/2021	17:01	-133.889	49.729	0	5.80	0	10.2930	0	32.1720	0	24.696	0	5.750	0	258.3	4	92.8	4	-1E+10	1	-1E+10	1	-1E+10	1	-1E+10	1	-1E+10	1	-1E+10	1
4902551	45	C	11/06/2021	17:01	-133.889	49.729	0	6.80	0	10.2910	0	32.1730	0	24.697	0	6.742	0	258.3	4	92.8	4	-1E+10	1	-1E+10	1	-1E+10	1	-1E+10	1	-1E+10	1	-1E+10	1
4902551	45	C	11/06/2021	17:01	-133.889	49.729	0	8.00	0	10.2940	0	32.1720	0	24.696	0	7.931	0	258.3	4	92.8	4	-1E+10	1	-1E+10	1	-1E+10	1	-1E+10	1	-1E+10	1	-1E+10	1
4902551	45	C	11/06/2021	17:01	-133.889	49.729	0	8.90	0	10.2950	0	32.1730	0	24.697	0	8.824	0	258.3	4	92.8	4	-1E+10	1	-1E+10	1	-1E+10	1	-1E+10	1	-1E+10	1	-1E+10	1
4902551	45	C	11/06/2021	17:01	-133.889	49.729	0	9.70	0	10.2930	0	32.1730	0	24.697	0	9.617	0	258.3	4	92.8	4	-1E+10	1	-1E+10	1	-1E+10	1	-1E+10	1	-1E+10	1	-1E+10	1
4902551	45	C	11/06/2021	17:01	-133.889	49.729	0	11.10	0	10.2900	0	32.1730	0	24.698	0	11.005	0	258.3	4	92.7	4	-1E+10	1	-1E+10	1	-1E+10	1	-1E+10	1	-1E+10	1	-1E+10	1
4902551	45	C	11/06/2021	17:01	-133.889	49.729	0	12.20	0	10.2900	0	32.1730	0	24.698	0	12.095	0	258.3	4	92.7	4	-1E+10	1	-1E+10	1	-1E+10	1	-1E+10	1	-1E+10	1	-1E+10	1
4902551	45	C	11/06/2021	17:01	-133.889	49.729	0	13.10	0	10.2900	0	32.1730	0	24.698	0	12.988	0	258.3	4	92.7	4	-1E+10	1	-1E+10	1	-1E+10	1	-1E+10	1	-1E+10	1	-1E+10	1
4902551	45	C	11/06/2021	17:01	-133.889	49.729	0	14.10	0	10.2940	0	32.1720	0	24.696	0	13.979	0	258.2	4	92.7	4	-1E+10	1	-1E+10	1	-1E+10	1	-1E+10	1	-1E+10	1	-1E+10	1
4902551	45	C	11/06/2021	17:01	-133.889	49.729	0	15.00	0	10.2950	0	32.1730	0	24.697	0	14.871	0	258.2	4	92.7	4	-1E+10	1	-1E+10	1	-1E+10	1	-1E+10	1	-1E+10	1	-1E+10	1
4902551	45	C	11/06/2021	17:01	-133.889	49.729	0	15.90	0	10.2930	0	32.1730	0	24.697	0	15.763	0	258.2	4	92.7	4	-1E+10	1	-1E+10	1	-1E+10	1	-1E+10	1	-1E+10	1	-1E+10	1
4902551	45	C	11/06/2021	17:01	-133.889	49.729	0	17.10	0	10.2920	0	32.1730	0	24.697	0	16.953	0	258.2	4	92.7	4	-1E+10	1	-1E+10	1	-1E+10	1	-1E+10	1	-1E+10	1	-1E+10	1
4902551	45	C	11/06/2021	17:01	-133.889	49.729	0	18.00	0	10.2940	0	32.1720	0	24.696	0	17.845	0	258.2	4	92.7	4	-1E+10	1	-1E+10	1	-1E+10	1	-1E+10	1	-1E+10	1	-1E+10	1
4902551	45	C	11/06/2021	17:01	-133.889	49.729	0	18.80	0	10.2950	0	32.1730	0	24.697	0	18.638	0	258.1	4	92.7	4	-1E+10	1	-1E+10	1	-1E+10	1	-1E+10	1	-1E+10	1	-1E+10	1
4902551	45	C	11/06/2021	17:01	-133.889	49.729	0	20.00	0	10.2940	0	32.1730	0	24.697	0	19.828	0	258.2	4	92.7	4	-1E+10	1	-1E+10	1	-1E+10	1	-1E+10	1	-1E+10	1	-1E+10	1
4902551	45	C	11/06/2021	17:01	-133.889	49.729	0	20.90	0	10.2960	0	32.1730	0	24.697	0	20.720	0	258.2	4	92.7	4	-1E+10	1	-1E+10	1	-1E+10	1	-1E+10	1	-1E+10	1	-1E+10	1
4902551	45	C	11/06/2021	17:01	-133.889	49.729	0	21.70	0	10.2960	0	32.1730	0	24.697	0	21.513	0	258.2	4	92.7	4	-1E+10	1	-1E+10	1	-1E+10	1	-1E+10	1	-1E+10	1	-1E+10	1
4902551	45	C	11/06/2021	17:01	-133.889	49.729	0	22.70	0	10.2960	0	32.1730	0	24.697	0	22.505	0	258.1	4	92.7	4	-1E+10	1	-1E+10	1	-1E+10	1	-1E+10	1	-1E+10	1	-1E+10	1
4902551	45	C	11/06/2021	17:01	-133.889	49.729	0	23.90	0	10.2960	0	32.1720	0	24.696	0	23.694	0	258.1	4	92.7	4	-1E+10	1	-1E+10	1	-1E+10	1	-1E+10	1	-1E+10	1	-1E+10	1
4902551	45	C	11/06/2021	17:01	-133.889	49.729	0	25.00	0	10.2980	0	32.1720	0	24.696	0	24.785	0	258.1	4	92.7	4	-1E+10	1	-1E+10	1	-1E+10	1	-1E+10	1	-1E+10	1	-1E+10	1
4902551	45	C	11/06/2021	17:01	-133.889	49.729	0	25.90	0	10.2970	0	32.1720	0	24.696	0	25.677	0	258.0	4	92.7	4	-1E+10	1	-1E+10	1	-1E+10	1	-1E+10	1	-1E+10	1	-1E+10	1
4902551	45	C	11/06/2021	17:01	-133.889	49.729	0	26.90	0	10.3000	0	32.1710	0	24.695	0	26.668	0	258.0	4	92.7	4	-1E+10	1	-1E+10	1	-1E+10	1	-1E+10	1	-1E+10	1	-1E+10	1
4902551	45	C	11/06/2021	17:01	-133.889	49.729	0	27.90	0	10.2980	0	32.1730	0	24.696	0	27.660	0	258.0	4	92.6	4	-1E+10	1	-1E+10	1	-1E+10	1	-1E+10	1	-1E+10	1	-1E+10	1
4902551	45	C	11/06/2021	17:01	-133.889	49.729	0	29.00	0	10.2940	0	32.1740	0	24.698	0	28.750	0	257.9	4	92.6	4	-1E+10	1	-1E+10	1	-1E+10	1	-1E+10	1	-1E+10	1	-1E+10	1
4902551	45	C	11/06/2021	17:01	-133.889	49.729	0	30.20	0	10.2950	0	32.1720	0	24.696	0	29.940	0	258.1	4	92.7	4	-1E+10	1	-1E+10	1	-1E+10	1	-1E+10	1	-1E+10	1	-1E+10	1
4902551	45	C	11/06/2021	17:01	-133.889	49.729	0	31.00	0	10.2940	0	32.1730	0	24.697	0	30.733	0	258.0	4	92.6	4	-1E+10	1	-1E+10	1	-1E+10	1	-1E+10	1	-1E+10	1	-1E+10	1
4902551	45	C	11/06/2021	17:01	-133.889	49.729	0	31.90	0	10.2940	0	32.1730	0	24.697	0	31.625	0	258.0	4	92.6	4	-1E+10	1	-1E+10	1	-1E+10	1	-1E+10	1	-1E+10	1	-1E+10	1
4902551	45	C	11/06/2021	17:01	-133.889	49.729	0	32.70	0	10.2940	0	32.1730	0	24.697	0	32.418	0	257.9	4	92.6	4	-1E+10	1	-1E+10	1	-1E+10	1	-1E+10	1	-1E+10	1	-1E+10	1
4902551	45	C	11/06/2021	17:01	-133.889	49.729	0	33.60	0	10.2940	0	32.1720	0	24.696	0	33.310	0	257.9	4	92.6	4	-1E+10	1	-1E+10	1	-1E+10	1	-1E+10	1	-1E+10	1	-1E+10	1
4902551	45	C	11/06/2021	17:01	-133.889	49.729	0	34.90	0	10.2940	0	32.1730	0	24.697	0	34.599	0	258.0	4	92.6	4	-1E+10	1	-1E+10	1	-1E+10	1	-1E+10	1	-1E+10	1	-1E+10	1
4902551	45	C	11/06/2021	17:01	-133.889	49.729	0	36.20	0	10.2940	0	32.1720	0	24.697	0	35.887	0	257.8	4	92.6	4	-1E+10	1	-1E+10	1	-1E+10	1	-1E+10	1	-1E+10	1	-1E+10	1
4902551	45	C	11/06/2021	17:01	-133.889	49.729	0	37.00	0	10.2930	0	32.1730	0	24.698	0	36.680	0	257.8	4	92.6	4	-1E+10	1	-1E+10	1	-1E+10	1	-1E+10	1	-1E+10	1	-1E+10	1
4902551	45	C	11/06/2021	17:01	-133.889	49.729	0	37.80	0	10.2940	0	32.1730	0	24.697	0	37.473	0	257.8	4	92.6	4	-1E+10	1	-1E+10	1	-1E+10	1	-1E+10	1	-1E+10	1	-1E+10	1
4902551	45	C	11/06/2021	17:01	-133.889	49.729	0	38.70	0	10.2940	0	32.1730	0	24.697	0	38.366	0	257.7	4	92.6	4	-1E+10	1	-1E+10	1	-1E+10	1	-1E+10	1	-1E+10	1	-1E+10	1
4902551	45	C	11/06/2021	17:01	-133.889	49.729	0	39.90	0	10.2950	0	32.1720	0	24.696	0	39.555	0	257.8	4	92.6	4	-1E+10	1	-1E+10	1	-1E+10	1	-1E+10	1	-1E+10	1	-1E+10	1
4902551	45	C	11/06/2021	17:01	-133.889	49.729	0	41.10	0	10.2970	0	32.1720	0	24.696	0	40.745	0	257.7	4	92.6	4	-1E+10	1	-1E+10	1	-1E+10	1	-1E+10	1	-1E+10	1	-1E+10	1
4902551	45	C	11/06/2021	17:01	-133.889	49.729	0	41.90	0	10.2950	0	32.1720	0	24.696	0	41.538	0	257.7	4	92.5	4	-1E+10	1	-1E+10	1	-1E+10	1	-1E+10	1	-1E+10	1	-1E+10	1
4902551	45	C	11/06/2021	17:01	-133.889	49.729	0	42.70	0	10.2950	0	32.1730	0	24.697	0	42.331	0	257.7	4	92.5	4	-1E+10	1	-1E+10	1	-1E+10	1	-1E+10	1	-1E+10	1	-1E+10	1
4902551	45	C	11/06/2021	17:01	-133.889	49.729	0	43.90	0	10.2960	0	32.1720	0	24.696	0	43.520	0	257.6	4	92.5	4	-1E+10	1	-1E+10	1	-1E+10	1	-1E+10	1	-1E+10	1	-1E+10	1
4902551	45	C	11/06/2021	17:01	-133.889	49.729	0	45.00	0	10.2970	0	32.1720	0	24.696	0	44.610	0	257.5	4	92.5	4	-1E+10	1	-1E+10	1	-1E+10	1	-1E+10	1	-1E+10	1	-1E+10	1
4902551	45	C	11/06/2021	17:01	-133.889	49.729	0	46.00	0	10.2970	0	32.1720	0	24.696	0	45.602	0	257.4	4	92.4	4	-1E+10	1	-1E+10	1	-1E+10	1	-1E+10	1	-1E+10	1	-1E+10	1
4902551	45	C	11/06/2021	17:01	-133.889	49.729	0	47.10	0	10.2990	0	32.1730	0	24.697	0	46.692	0	257.3	4	92.4	4	-1E+10	1	-1E+10	1	-1E+10	1	-1E+10	1	-1E+10	1	-1E+10	1
4902551	45	C	11/06/2021	17:01	-133.889	49.729	0	48.10	0	10.2990	0	32.1720	0	24.696	0	47.683	0	257.2	4	92.4	4	-1E+10	1	-1E+10	1	-1E+10	1	-1E+10	1	-1E+10	1	-1E+10	1
4902551	45	C	11/06/2021	17:01	-133.889	49.729	0	49.30	0	10.2990	0	32.1720	0	24.696	0	48.873	0	257.0	4	92.3	4	-1E+10	1	-1E+10	1	-1E+10	1	-1E+10	1	-1E+10	1	-1E+10	1
4902551	45	C	11/06/2021	17:01	-133.889	49.729	0	49.90	0	10.2970	0	32.1700	0	24.695	0	49.467	0	257.0	4	92.3	4	-1E+10	1	-1E+10	1	-1E+10	1	-1E+10	1	-1E+10	1	-1E+10	1
4902551	45	C	11/06/2021	17:01	-133.889	49.729	0	51.10	0	10.1620	0	32.1930	0	24.735	0	50.657	0	257.5	4	92.2	4	-1E+10	1	-1E+10	1	-1E+10	1	-1E+10	1	-1E+10	1	-1E+10	1
4902551	45	C	11/06/2021	17:01	-133.889	49.729	0	52.00	0	9.8920	0	32.2210	0	24.802	0	51.549	0	258.2	4	91.9	4	-1E+10	1	-1E+10	1	-1E+10	1	-1E+10	1	-1E+10	1	-1E+10	1
4902551	45	C	11/06/2021	17:01	-133.889	49.729	0	52.90	0	9.6580	0	32.2410	0	24.856	0	52.441	0	260.2	4	92.2	4	-1E+10	1	-1E+10	1	-1E+10	1	-1E+10	1	-1E+10	1	-1E+10	1
4902551	45	C	11/06/2021	17:01	-133.889	49.729	0	54.10	0	8.8240	0	32.3100	0	25.041	0	53.631	0	263.0	4	91.6	4	-1E+10	1	-1E+10	1	-1E+10	1	-1E+10	1	-1E+10	1	-1E+10	1
4902551	45	C	11/06/2021	17:01	-133.889	49.729	0	55.20	0	8.4280	0	32.3400	0	25.124	0	54.721	0	264.7	4	91.4	4	-1E+10	1	-1E+10	1	-1E+10	1	-1E+10	1	-1E+10	1	-1E+10	1
4902551	45	C	11/06/2021	17:01	-133.889	49.729	0	56.00	0	7.9790	0	32.3820	0	25.222	0	55.514	0	265.5	4	90.7	4	-1E+10	1	-1E+10	1	-1E+10	1	-1E+10	1	-1E+10	1	-1E+10	1
4902551	45	C	11/06/2021	17:01	-133.889	49.729	0	57.10	0	7.8150	0	32.3790	0	25.243	0	56.604	0	266.5	4	90.8	4	-1E+10	1	-1E+10	1	-1E+10	1	-1E+10	1	-1E+10	1	-1E+10	1
4902551	45	C	11/06/2021	17:01	-133.889	49.729	0	57.90	0	7.5480	0	32.4090	0	25.305	0	57.397	0	267.2	4	90.5	4	-1E+10	1	-1E+10	1	-1E+10	1	-1E+10	1	-1E+10	1	-1E+10	1
4902551	45	C	11/06/2021	17:01	-133.889	49.729	0	58.70	0	7.2610	0	32.4270	0	25.358	0	58.190	0	268.1	4	90.2	4	-1E+10	1	-1E+10	1	-1E+10	1	-1E+10	1	-1E+10	1	-1E+10	1
4902551	45	C	11/06/2021	17:01	-133.889	49.729	0	59.90	0	7.1530	0	32.4280	0	25.374	0	59.379	0	268.6	4	90.1	4	-1E+10	1	-1E+10	1	-1E+10	1	-1E+10	1	-1E+10	1	-1E+10	1
4902551	45	C	11/06/2021	17:01	-133.889	49.729	0	61.00	0	7.0290	0	32.4350	0	25.396	0	60.470	0	269.1	4	90.0	4	-1E+10	1	-1E+10	1	-1E+10	1	-1E+10	1	-1E+10	1	-1E+10	1
4902551	45	C	11/06/2021	17:01	-133.889	49.729	0	61.90	0	6.9850	0	32.4370	0	25.403	0	61.362	0	269.2	4	90.0	4	-1E+10	1	-1E+10	1	-1E+10	1	-1E+10	1	-1E+10	1	-1E+10	1
4902551	45	C	11/06/2021	17:01	-133.889	49.729	0	62.80	0	6.9240	0	32.4410	0	25.414	0	62.254	0	269.4	4	89.9	4	-1E+10	1	-1E+10	1	-1E+10	1	-1E+10	1	-1E+10	1	-1E+10	1
4902551	45	C	11/06/2021	17:01	-133.889	49.729	0	64.00	0	6.8490	0	32.4430	0	25.426	0	63.443	0	269.6	4	89.9	4	-1E+10	1	-1E+10	1	-1E+10	1	-1E+10	1	-1E+10	1	-1E+10	1
4902551	45	C	11/06/2021	17:01	-133.889	49.729	0	64.90	0	6.8170	0	32.4440	0	25.431	0	64.335	0	269.7	4	89.8	4	-1E+10	1	-1E+10	1	-1E+10	1	-1E+10	1	-1E+10	1	-1E+10	1
4902551	45	C	11/06/2021	17:01	-133.889	49.729	0	65.80	0	6.7970	0	32.4430	0	25.433	0	65.227	0	269.8	4	89.8	4	-1E+10	1	-1E+10	1	-1E+10	1	-1E+10	1	-1E+10	1	-1E+10	1
4902551	45	C	11/06/2021	17:01	-133.889	49.729	0	67.00	0	6.7650	0	32.4460	0	25.439	0	66.416	0	269.8	4	89.7	4	-1E+10	1	-1E+10	1	-1E+10	1	-1E+10	1	-1E+10	1	-1E+10	1
4902551	45	C	11/06/2021	17:01	-133.889	49.729	0	67.90	0	6.7630	0	32.4460	0	25.440	0	67.308	0	269.7	4	89.7	4	-1E+10	1	-1E+10	1	-1E+10	1	-1E+10	1	-1E+10	1	-1E+10	1
4902551	45	C	11/06/2021	17:01	-133.889	49.729	0	68.80	0	6.7440	0	32.4470	0	25.443	0	68.201	0	269.7	4	89.7	4	-1E+10	1	-1E+10	1	-1E+10	1	-1E+10	1	-1E+10	1	-1E+10	1
4902551	45	C	11/06/2021	17:01	-133.889	49.729	0	70.00	0	6.6960	0	32.4480	0	25.450	0	69.390	0	269.8	4	89.6	4	-1E+10	1	-1E+10	1	-1E+10	1	-1E+10	1	-1E+10	1	-1E+10	1
4902551	45	C	11/06/2021	17:01	-133.889	49.729	0	71.00	0	6.6650	0	32.4500	0	25.455	0	70.381	0	269.8	4	89.6	4	-1E+10	1	-1E+10	1	-1E+10	1	-1E+10	1	-1E+10	1	-1E+10	1
4902551	45	C	11/06/2021	17:01	-133.889	49.729	0	71.90	0	6.6600	0	32.4490	0	25.455	0	71.273	0	269.8	4	89.5	4	-1E+10	1	-1E+10	1	-1E+10	1	-1E+10	1	-1E+10	1	-1E+10	1
4902551	45	C	11/06/2021	17:01	-133.889	49.729	0	73.10	0	6.6310	0	32.4500	0	25.460	0	72.462	0	269.8	4	89.5	4	-1E+10	1	-1E+10	1	-1E+10	1	-1E+10	1	-1E+10	1	-1E+10	1
4902551	45	C	11/06/2021	17:01	-133.889	49.729	0	74.00	0	6.5820	0	32.4500	0	25.466	0	73.354	0	269.9	4	89.4	4	-1E+10	1	-1E+10	1	-1E+10	1	-1E+10	1	-1E+10	1	-1E+10	1
4902551	45	C	11/06/2021	17:01	-133.889	49.729	0	74.90	0	6.5190	0	32.4560	0	25.479	0	74.246	0	269.9	4	89.3	4	-1E+10	1	-1E+10	1	-1E+10	1	-1E+10	1	-1E+10	1	-1E+10	1
4902551	45	C	11/06/2021	17:01	-133.889	49.729	0	76.10	0	6.5050	0	32.4570	0	25.482	0	75.436	0	269.7	4	89.2	4	-1E+10	1	-1E+10	1	-1E+10	1	-1E+10	1	-1E+10	1	-1E+10	1
4902551	45	C	11/06/2021	17:01	-133.889	49.729	0	77.00	0	6.5000	0	32.4550	0	25.481	0	76.328	0	269.5	4	89.1	4	-1E+10	1	-1E+10	1	-1E+10	1	-1E+10	1	-1E+10	1	-1E+10	1
4902551	45	C	11/06/2021	17:01	-133.889	49.729	0	77.90	0	6.4770	0	32.4560	0	25.484	0	77.220	0	269.3	4	89.0	4	-1E+10	1	-1E+10	1	-1E+10	1	-1E+10	1	-1E+10	1	-1E+10	1
4902551	45	C	11/06/2021	17:01	-133.889	49.729	0	78.80	0	6.4520	0	32.4580	0	25.489	0	78.111	0	269.1	4	88.9	4	-1E+10	1	-1E+10	1	-1E+10	1	-1E+10	1	-1E+10	1	-1E+10	1
4902551	45	C	11/06/2021	17:01	-133.889	49.729	0	79.80	0	6.4100	0	32.4630	0	25.498	0	79.103	0	268.8	4	88.7	4	-1E+10	1	-1E+10	1	-1E+10	1	-1E+10	1	-1E+10	1	-1E+10	1
4902551	45	C	11/06/2021	17:01	-133.889	49.729	0	80.90	0	6.3640	0	32.4660	0	25.507	0	80.193	0	268.5	4	88.5	4	-1E+10	1	-1E+10	1	-1E+10	1	-1E+10	1	-1E+10	1	-1E+10	1
4902551	45	C	11/06/2021	17:01	-133.889	49.729	0	82.00	0	6.3270	0	32.4700	0	25.514	0	81.283	0	268.0	4	88.3	4	-1E+10	1	-1E+10	1	-1E+10	1	-1E+10	1	-1E+10	1	-1E+10	1
4902551	45	C	11/06/2021	17:01	-133.889	49.729	0	83.10	0	6.3080	0	32.4720	0	25.518	0	82.373	0	267.4	4	88.0	4	-1E+10	1	-1E+10	1	-1E+10	1	-1E+10	1	-1E+10	1	-1E+10	1
4902551	45	C	11/06/2021	17:01	-133.889	49.729	0	83.80	0	6.2880	0	32.4750	0	25.523	0	83.067	0	267.1	4	87.9	4	-1E+10	1	-1E+10	1	-1E+10	1	-1E+10	1	-1E+10	1	-1E+10	1
4902551	45	C	11/06/2021	17:01	-133.889	49.729	0	85.00	0	6.2740	0	32.4770	0	25.527	0	84.256	0	266.3	4	87.6	4	-1E+10	1	-1E+10	1	-1E+10	1	-1E+10	1	-1E+10	1	-1E+10	1
4902551	45	C	11/06/2021	17:01	-133.889	49.729	0	86.20	0	6.2540	0	32.4830	0	25.534	0	85.445	0	265.6	4	87.3	4	-1E+10	1	-1E+10	1	-1E+10	1	-1E+10	1	-1E+10	1	-1E+10	1
4902551	45	C	11/06/2021	17:01	-133.889	49.729	0	86.90	0	6.2390	0	32.4830	0	25.536	0	86.139	0	265.0	4	87.1	4	-1E+10	1	-1E+10	1	-1E+10	1	-1E+10	1	-1E+10	1	-1E+10	1
4902551	45	C	11/06/2021	17:01	-133.889	49.729	0	88.10	0	6.2090	0	32.4910	0	25.546	0	87.328	0	263.8	4	86.7	4	-1E+10	1	-1E+10	1	-1E+10	1	-1E+10	1	-1E+10	1	-1E+10	1
4902551	45	C	11/06/2021	17:01	-133.889	49.729	0	88.90	0	6.1850	0	32.4960	0	25.553	0	88.121	0	262.5	4	86.2	4	-1E+10	1	-1E+10	1	-1E+10	1	-1E+10	1	-1E+10	1	-1E+10	1
4902551	45	C	11/06/2021	17:01	-133.889	49.729	0	90.20	0	6.1650	0	32.5020	0	25.560	0	89.409	0	260.6	4	85.5	4	-1E+10	1	-1E+10	1	-1E+10	1	-1E+10	1	-1E+10	1	-1E+10	1
4902551	45	C	11/06/2021	17:01	-133.889	49.729	0	91.00	0	6.1380	0	32.5130	0	25.572	0	90.202	0	259.2	4	85.0	4	-1E+10	1	-1E+10	1	-1E+10	1	-1E+10	1	-1E+10	1	-1E+10	1
4902551	45	C	11/06/2021	17:01	-133.889	49.729	0	92.30	0	6.1040	0	32.5270	0	25.587	0	91.491	0	256.5	4	84.1	4	-1E+10	1	-1E+10	1	-1E+10	1	-1E+10	1	-1E+10	1	-1E+10	1
4902551	45	C	11/06/2021	17:01	-133.889	49.729	0	93.10	0	6.1030	0	32.5300	0	25.590	0	92.283	0	254.6	4	83.5	4	-1E+10	1	-1E+10	1	-1E+10	1	-1E+10	1	-1E+10	1	-1E+10	1
4902551	45	C	11/06/2021	17:01	-133.889	49.729	0	94.00	0	6.0980	0	32.5470	0	25.604	0	93.175	0	252.7	4	82.8	4	-1E+10	1	-1E+10	1	-1E+10	1	-1E+10	1	-1E+10	1	-1E+10	1
4902551	45	C	11/06/2021	17:01	-133.889	49.729	0	95.20	0	6.0900	0	32.5640	0	25.618	0	94.364	0	249.7	4	81.9	4	-1E+10	1	-1E+10	1	-1E+10	1	-1E+10	1	-1E+10	1	-1E+10	1
4902551	45	C	11/06/2021	17:01	-133.889	49.729	0	95.90	0	6.0800	0	32.5790	0	25.631	0	95.058	0	247.8	4	81.2	4	-1E+10	1	-1E+10	1	-1E+10	1	-1E+10	1	-1E+10	1	-1E+10	1
4902551	45	C	11/06/2021	17:01	-133.889	49.729	0	97.00	0	6.0730	0	32.6160	0	25.661	0	96.148	0	245.0	4	80.3	4	-1E+10	1	-1E+10	1	-1E+10	1	-1E+10	1	-1E+10	1	-1E+10	1
4902551	45	C	11/06/2021	17:01	-133.889	49.729	0	98.00	0	6.0750	0	32.6530	0	25.690	0	97.139	0	242.5	4	79.5	4	-1E+10	1	-1E+10	1	-1E+10	1	-1E+10	1	-1E+10	1	-1E+10	1
4902551	45	C	11/06/2021	17:01	-133.889	49.729	0	99.10	0	6.0790	0	32.6800	0	25.711	0	98.229	0	239.9	4	78.7	4	-1E+10	1	-1E+10	1	-1E+10	1	-1E+10	1	-1E+10	1	-1E+10	1
4902551	45	C	11/06/2021	17:01	-133.889	49.729	0	100.10	0	6.0850	0	32.7100	0	25.734	0	99.220	0	237.7	4	78.0	4	-1E+10	1	-1E+10	1	-1E+10	1	-1E+10	1	-1E+10	1	-1E+10	1
4902551	45	C	11/06/2021	17:01	-133.889	49.729	0	101.00	0	6.0860	0	32.7120	0	25.736	0	100.112	0	236.1	4	77.5	4	-1E+10	1	-1E+10	1	-1E+10	1	-1E+10	1	-1E+10	1	-1E+10	1
4902551	45	C	11/06/2021	17:01	-133.889	49.729	0	101.90	0	6.0880	0	32.7200	0	25.742	0	101.004	0	233.3	4	76.6	4	-1E+10	1	-1E+10	1	-1E+10	1	-1E+10	1	-1E+10	1	-1E+10	1
4902551	45	C	11/06/2021	17:01	-133.889	49.729	0	102.90	0	6.0890	0	32.7310	0	25.750	0	101.995	0	230.0	4	75.5	4	-1E+10	1	-1E+10	1	-1E+10	1	-1E+10	1	-1E+10	1	-1E+10	1
4902551	45	C	11/06/2021	17:01	-133.889	49.729	0	104.00	0	6.0890	0	32.7350	0	25.753	0	103.085	0	226.0	4	74.2	4	-1E+10	1	-1E+10	1	-1E+10	1	-1E+10	1	-1E+10	1	-1E+10	1
4902551	45	C	11/06/2021	17:01	-133.889	49.729	0	105.10	0	6.0910	0	32.7430	0	25.759	0	104.175	0	221.7	4	72.8	4	-1E+10	1	-1E+10	1	-1E+10	1	-1E+10	1	-1E+10	1	-1E+10	1
4902551	45	C	11/06/2021	17:01	-133.889	49.729	0	106.10	0	6.0970	0	32.7590	0	25.771	0	105.166	0	217.6	4	71.4	4	-1E+10	1	-1E+10	1	-1E+10	1	-1E+10	1	-1E+10	1	-1E+10	1
4902551	45	C	11/06/2021	17:01	-133.889	49.729	0	107.20	0	6.1120	0	32.8080	0	25.808	0	106.256	0	213.5	4	70.1	4	-1E+10	1	-1E+10	1	-1E+10	1	-1E+10	1	-1E+10	1	-1E+10	1
4902551	45	C	11/06/2021	17:01	-133.889	49.729	0	108.10	0	6.1210	0	32.8330	0	25.827	0	107.148	0	210.5	4	69.2	4	-1E+10	1	-1E+10	1	-1E+10	1	-1E+10	1	-1E+10	1	-1E+10	1
4902551	45	C	11/06/2021	17:01	-133.889	49.729	0	108.80	0	6.1280	0	32.8500	0	25.839	0	107.842	0	207.6	4	68.2	4	-1E+10	1	-1E+10	1	-1E+10	1	-1E+10	1	-1E+10	1	-1E+10	1
4902551	45	C	11/06/2021	17:01	-133.889	49.729	0	109.80	0	6.1520	0	32.9300	0	25.900	0	108.832	0	204.0	4	67.2	4	-1E+10	1	-1E+10	1	-1E+10	1	-1E+10	1	-1E+10	1	-1E+10	1
4902551	45	C	11/06/2021	17:01	-133.889	49.729	0	110.80	0	6.1590	0	32.9850	0	25.942	0	109.823	0	200.6	4	66.1	4	-1E+10	1	-1E+10	1	-1E+10	1	-1E+10	1	-1E+10	1	-1E+10	1
4902551	45	C	11/06/2021	17:01	-133.889	49.729	0	112.00	0	6.1540	0	33.0220	0	25.972	0	111.012	0	198.3	4	65.3	4	-1E+10	1	-1E+10	1	-1E+10	1	-1E+10	1	-1E+10	1	-1E+10	1
4902551	45	C	11/06/2021	17:01	-133.889	49.729	0	113.10	0	6.1540	0	33.0550	0	25.998	0	112.102	0	195.9	4	64.5	4	-1E+10	1	-1E+10	1	-1E+10	1	-1E+10	1	-1E+10	1	-1E+10	1
4902551	45	C	11/06/2021	17:01	-133.889	49.729	0	114.00	0	6.1550	0	33.0810	0	26.019	0	112.994	0	193.6	4	63.8	4	-1E+10	1	-1E+10	1	-1E+10	1	-1E+10	1	-1E+10	1	-1E+10	1
4902551	45	C	11/06/2021	17:01	-133.889	49.729	0	115.00	0	6.1560	0	33.1060	0	26.038	0	113.985	0	191.6	4	63.2	4	-1E+10	1	-1E+10	1	-1E+10	1	-1E+10	1	-1E+10	1	-1E+10	1
4902551	45	C	11/06/2021	17:01	-133.889	49.729	0	116.00	0	6.1570	0	33.1130	0	26.044	0	114.976	0	190.1	4	62.7	4	-1E+10	1	-1E+10	1	-1E+10	1	-1E+10	1	-1E+10	1	-1E+10	1
4902551	45	C	11/06/2021	17:01	-133.889	49.729	0	116.90	0	6.1570	0	33.1230	0	26.051	0	115.868	0	188.8	4	62.2	4	-1E+10	1	-1E+10	1	-1E+10	1	-1E+10	1	-1E+10	1	-1E+10	1
4902551	45	C	11/06/2021	17:01	-133.889	49.729	0	118.00	0	6.1580	0	33.1480	0	26.071	0	116.958	0	187.3	4	61.8	4	-1E+10	1	-1E+10	1	-1E+10	1	-1E+10	1	-1E+10	1	-1E+10	1
4902551	45	C	11/06/2021	17:01	-133.889	49.729	0	119.00	0	6.1580	0	33.1580	0	26.079	0	117.949	0	186.0	4	61.3	4	-1E+10	1	-1E+10	1	-1E+10	1	-1E+10	1	-1E+10	1	-1E+10	1
4902551	45	C	11/06/2021	17:01	-133.889	49.729	0	119.90	0	6.1570	0	33.1700	0	26.089	0	118.841	0	185.0	4	61.0	4	-1E+10	1	-1E+10	1	-1E+10	1	-1E+10	1	-1E+10	1	-1E+10	1
4902551	45	C	11/06/2021	17:01	-133.889	49.729	0	120.80	0	6.1560	0	33.1750	0	26.093	0	119.732	0	183.8	4	60.6	4	-1E+10	1	-1E+10	1	-1E+10	1	-1E+10	1	-1E+10	1	-1E+10	1
4902551	45	C	11/06/2021	17:01	-133.889	49.729	0	121.70	0	6.1560	0	33.1790	0	26.096	0	120.624	0	182.5	4	60.2	4	-1E+10	1	-1E+10	1	-1E+10	1	-1E+10	1	-1E+10	1	-1E+10	1
4902551	45	C	11/06/2021	17:01	-133.889	49.729	0	122.70	0	6.1580	0	33.1840	0	26.100	0	121.615	0	181.0	4	59.7	4	-1E+10	1	-1E+10	1	-1E+10	1	-1E+10	1	-1E+10	1	-1E+10	1
4902551	45	C	11/06/2021	17:01	-133.889	49.729	0	123.70	0	6.1570	0	33.1890	0	26.104	0	122.606	0	179.1	4	59.1	4	-1E+10	1	-1E+10	1	-1E+10	1	-1E+10	1	-1E+10	1	-1E+10	1
4902551	45	C	11/06/2021	17:01	-133.889	49.729	0	124.80	0	6.1580	0	33.2100	0	26.120	0	123.696	0	177.0	4	58.4	4	-1E+10	1	-1E+10	1	-1E+10	1	-1E+10	1	-1E+10	1	-1E+10	1
4902551	45	C	11/06/2021	17:01	-133.889	49.729	0	125.90	0	6.1520	0	33.2440	0	26.148	0	124.786	0	174.7	4	57.6	4	-1E+10	1	-1E+10	1	-1E+10	1	-1E+10	1	-1E+10	1	-1E+10	1
4902551	45	C	11/06/2021	17:01	-133.889	49.729	0	127.00	0	6.1440	0	33.2560	0	26.158	0	125.876	0	173.0	4	57.1	4	-1E+10	1	-1E+10	1	-1E+10	1	-1E+10	1	-1E+10	1	-1E+10	1
4902551	45	C	11/06/2021	17:01	-133.889	49.729	0	128.10	0	6.1380	0	33.2710	0	26.171	0	126.966	0	171.5	4	56.6	4	-1E+10	1	-1E+10	1	-1E+10	1	-1E+10	1	-1E+10	1	-1E+10	1
4902551	45	C	11/06/2021	17:01	-133.889	49.729	0	129.00	0	6.1380	0	33.2790	0	26.177	0	127.857	0	170.1	4	56.1	4	-1E+10	1	-1E+10	1	-1E+10	1	-1E+10	1	-1E+10	1	-1E+10	1
4902551	45	C	11/06/2021	17:01	-133.889	49.729	0	129.70	0	6.1340	0	33.2870	0	26.184	0	128.551	0	168.7	4	55.7	4	-1E+10	1	-1E+10	1	-1E+10	1	-1E+10	1	-1E+10	1	-1E+10	1
4902551	45	C	11/06/2021	17:01	-133.889	49.729	0	130.80	0	6.1340	0	33.2900	0	26.186	0	129.641	0	166.8	4	55.0	4	-1E+10	1	-1E+10	1	-1E+10	1	-1E+10	1	-1E+10	1	-1E+10	1
4902551	45	C	11/06/2021	17:01	-133.889	49.729	0	131.80	0	6.1320	0	33.3050	0	26.198	0	130.632	0	164.7	4	54.3	4	-1E+10	1	-1E+10	1	-1E+10	1	-1E+10	1	-1E+10	1	-1E+10	1
4902551	45	C	11/06/2021	17:01	-133.889	49.729	0	132.90	0	6.1270	0	33.3370	0	26.224	0	131.722	0	162.5	4	53.6	4	-1E+10	1	-1E+10	1	-1E+10	1	-1E+10	1	-1E+10	1	-1E+10	1
4902551	45	C	11/06/2021	17:01	-133.889	49.729	0	134.00	0	6.1220	0	33.3520	0	26.237	0	132.811	0	159.7	4	52.7	4	-1E+10	1	-1E+10	1	-1E+10	1	-1E+10	1	-1E+10	1	-1E+10	1
4902551	45	C	11/06/2021	17:01	-133.889	49.729	0	134.90	0	6.1170	0	33.3710	0	26.252	0	133.703	0	157.7	4	52.0	4	-1E+10	1	-1E+10	1	-1E+10	1	-1E+10	1	-1E+10	1	-1E+10	1
4902551	45	C	11/06/2021	17:01	-133.889	49.729	0	135.80	0	6.1380	0	33.4110	0	26.281	0	134.595	0	156.2	4	51.6	4	-1E+10	1	-1E+10	1	-1E+10	1	-1E+10	1	-1E+10	1	-1E+10	1
4902551	45	C	11/06/2021	17:01	-133.889	49.729	0	137.00	0	6.1380	0	33.4310	0	26.297	0	135.784	0	154.3	4	51.0	4	-1E+10	1	-1E+10	1	-1E+10	1	-1E+10	1	-1E+10	1	-1E+10	1
4902551	45	C	11/06/2021	17:01	-133.889	49.729	0	137.90	0	6.1370	0	33.4500	0	26.312	0	136.676	0	152.9	4	50.5	4	-1E+10	1	-1E+10	1	-1E+10	1	-1E+10	1	-1E+10	1	-1E+10	1
4902551	45	C	11/06/2021	17:01	-133.889	49.729	0	138.80	0	6.1380	0	33.4670	0	26.326	0	137.567	0	151.5	4	50.0	4	-1E+10	1	-1E+10	1	-1E+10	1	-1E+10	1	-1E+10	1	-1E+10	1
4902551	45	C	11/06/2021	17:01	-133.889	49.729	0	140.00	0	6.1420	0	33.4860	0	26.340	0	138.756	0	149.5	4	49.4	4	-1E+10	1	-1E+10	1	-1E+10	1	-1E+10	1	-1E+10	1	-1E+10	1
4902551	45	C	11/06/2021	17:01	-133.889	49.729	0	140.90	0	6.1410	0	33.4920	0	26.345	0	139.648	0	148.0	4	48.9	4	-1E+10	1	-1E+10	1	-1E+10	1	-1E+10	1	-1E+10	1	-1E+10	1
4902551	45	C	11/06/2021	17:01	-133.889	49.729	0	141.80	0	6.1260	0	33.5090	0	26.360	0	140.540	0	146.6	4	48.4	4	-1E+10	1	-1E+10	1	-1E+10	1	-1E+10	1	-1E+10	1	-1E+10	1
4902551	45	C	11/06/2021	17:01	-133.889	49.729	0	142.80	0	6.1270	0	33.5280	0	26.375	0	141.530	0	145.1	4	47.9	4	-1E+10	1	-1E+10	1	-1E+10	1	-1E+10	1	-1E+10	1	-1E+10	1
4902551	45	C	11/06/2021	17:01	-133.889	49.729	0	143.80	0	6.1250	0	33.5460	0	26.390	0	142.521	0	143.7	4	47.5	4	-1E+10	1	-1E+10	1	-1E+10	1	-1E+10	1	-1E+10	1	-1E+10	1
4902551	45	C	11/06/2021	17:01	-133.889	49.729	0	145.10	0	6.1200	0	33.5640	0	26.405	0	143.809	0	142.0	4	46.9	4	-1E+10	1	-1E+10	1	-1E+10	1	-1E+10	1	-1E+10	1	-1E+10	1
4902551	45	C	11/06/2021	17:01	-133.889	49.729	0	146.10	0	6.1180	0	33.5740	0	26.413	0	144.800	0	140.6	4	46.5	4	-1E+10	1	-1E+10	1	-1E+10	1	-1E+10	1	-1E+10	1	-1E+10	1
4902551	45	C	11/06/2021	17:01	-133.889	49.729	0	146.80	0	6.1170	0	33.5750	0	26.414	0	145.493	0	139.6	4	46.1	4	-1E+10	1	-1E+10	1	-1E+10	1	-1E+10	1	-1E+10	1	-1E+10	1
4902551	45	C	11/06/2021	17:01	-133.889	49.729	0	147.80	0	6.1030	0	33.6040	0	26.438	0	146.484	0	138.5	4	45.7	4	-1E+10	1	-1E+10	1	-1E+10	1	-1E+10	1	-1E+10	1	-1E+10	1
4902551	45	C	11/06/2021	17:01	-133.889	49.729	0	148.90	0	6.0960	0	33.6170	0	26.450	0	147.574	0	137.6	4	45.5	4	-1E+10	1	-1E+10	1	-1E+10	1	-1E+10	1	-1E+10	1	-1E+10	1
4902551	45	C	11/06/2021	17:01	-133.889	49.729	0	150.00	0	6.0890	0	33.6270	0	26.458	0	148.664	0	136.8	4	45.2	4	-1E+10	1	-1E+10	1	-1E+10	1	-1E+10	1	-1E+10	1	-1E+10	1
4902551	45	C	11/06/2021	17:01	-133.889	49.729	0	151.20	0	6.0880	0	33.6280	0	26.459	0	149.853	0	136.0	4	44.9	4	-1E+10	1	-1E+10	1	-1E+10	1	-1E+10	1	-1E+10	1	-1E+10	1
4902551	45	C	11/06/2021	17:01	-133.889	49.729	0	151.90	0	6.0860	0	33.6310	0	26.462	0	150.546	0	135.4	4	44.7	4	-1E+10	1	-1E+10	1	-1E+10	1	-1E+10	1	-1E+10	1	-1E+10	1
4902551	45	C	11/06/2021	17:01	-133.889	49.729	0	153.00	0	6.0820	0	33.6380	0	26.468	0	151.636	0	134.6	4	44.5	4	-1E+10	1	-1E+10	1	-1E+10	1	-1E+10	1	-1E+10	1	-1E+10	1
4902551	45	C	11/06/2021	17:01	-133.889	49.729	0	154.20	0	6.0800	0	33.6410	0	26.471	0	152.825	0	133.6	4	44.1	4	-1E+10	1	-1E+10	1	-1E+10	1	-1E+10	1	-1E+10	1	-1E+10	1
4902551	45	C	11/06/2021	17:01	-133.889	49.729	0	154.90	0	6.0780	0	33.6430	0	26.472	0	153.518	0	133.0	4	43.9	4	-1E+10	1	-1E+10	1	-1E+10	1	-1E+10	1	-1E+10	1	-1E+10	1
4902551	45	C	11/06/2021	17:01	-133.889	49.729	0	156.00	0	6.0750	0	33.6470	0	26.476	0	154.608	0	131.9	4	43.6	4	-1E+10	1	-1E+10	1	-1E+10	1	-1E+10	1	-1E+10	1	-1E+10	1
4902551	45	C	11/06/2021	17:01	-133.889	49.729	0	157.20	0	6.0710	0	33.6530	0	26.481	0	155.797	0	130.7	4	43.2	4	-1E+10	1	-1E+10	1	-1E+10	1	-1E+10	1	-1E+10	1	-1E+10	1
4902551	45	C	11/06/2021	17:01	-133.889	49.729	0	157.90	0	6.0690	0	33.6560	0	26.484	0	156.490	0	129.8	4	42.9	4	-1E+10	1	-1E+10	1	-1E+10	1	-1E+10	1	-1E+10	1	-1E+10	1
4902551	45	C	11/06/2021	17:01	-133.889	49.729	0	158.70	0	6.0650	0	33.6630	0	26.490	0	157.283	0	128.9	4	42.6	4	-1E+10	1	-1E+10	1	-1E+10	1	-1E+10	1	-1E+10	1	-1E+10	1
4902551	45	C	11/06/2021	17:01	-133.889	49.729	0	159.90	0	6.0560	0	33.6750	0	26.501	0	158.472	0	127.6	4	42.1	4	-1E+10	1	-1E+10	1	-1E+10	1	-1E+10	1	-1E+10	1	-1E+10	1
4902551	45	C	11/06/2021	17:01	-133.889	49.729	0	161.20	0	6.0530	0	33.6800	0	26.505	0	159.760	0	126.2	4	41.7	4	-1E+10	1	-1E+10	1	-1E+10	1	-1E+10	1	-1E+10	1	-1E+10	1
4902551	45	C	11/06/2021	17:01	-133.889	49.729	0	162.10	0	6.0520	0	33.6830	0	26.507	0	160.651	0	125.1	4	41.3	4	-1E+10	1	-1E+10	1	-1E+10	1	-1E+10	1	-1E+10	1	-1E+10	1
4902551	45	C	11/06/2021	17:01	-133.889	49.729	0	162.90	0	6.0500	0	33.6850	0	26.509	0	161.444	0	124.0	4	40.9	4	-1E+10	1	-1E+10	1	-1E+10	1	-1E+10	1	-1E+10	1	-1E+10	1
4902551	45	C	11/06/2021	17:01	-133.889	49.729	0	163.70	0	6.0360	0	33.7010	0	26.524	0	162.236	0	123.1	4	40.6	4	-1E+10	1	-1E+10	1	-1E+10	1	-1E+10	1	-1E+10	1	-1E+10	1
4902551	45	C	11/06/2021	17:01	-133.889	49.729	0	165.00	0	6.0220	0	33.7130	0	26.535	0	163.524	0	122.0	4	40.3	4	-1E+10	1	-1E+10	1	-1E+10	1	-1E+10	1	-1E+10	1	-1E+10	1
4902551	45	C	11/06/2021	17:01	-133.889	49.729	0	166.30	0	6.0150	0	33.7200	0	26.541	0	164.812	0	120.9	4	39.9	4	-1E+10	1	-1E+10	1	-1E+10	1	-1E+10	1	-1E+10	1	-1E+10	1
4902551	45	C	11/06/2021	17:01	-133.889	49.729	0	167.10	0	6.0120	0	33.7220	0	26.543	0	165.605	0	120.0	4	39.6	4	-1E+10	1	-1E+10	1	-1E+10	1	-1E+10	1	-1E+10	1	-1E+10	1
4902551	45	C	11/06/2021	17:01	-133.889	49.729	0	168.00	0	6.0060	0	33.7250	0	26.546	0	166.496	0	119.2	4	39.3	4	-1E+10	1	-1E+10	1	-1E+10	1	-1E+10	1	-1E+10	1	-1E+10	1
4902551	45	C	11/06/2021	17:01	-133.889	49.729	0	168.90	0	5.9850	0	33.7340	0	26.556	0	167.388	0	118.4	4	39.1	4	-1E+10	1	-1E+10	1	-1E+10	1	-1E+10	1	-1E+10	1	-1E+10	1
4902551	45	C	11/06/2021	17:01	-133.889	49.729	0	169.70	0	5.9790	0	33.7370	0	26.559	0	168.180	0	117.7	4	38.8	4	-1E+10	1	-1E+10	1	-1E+10	1	-1E+10	1	-1E+10	1	-1E+10	1
4902551	45	C	11/06/2021	17:01	-133.889	49.729	0	170.90	0	5.9500	0	33.7460	0	26.570	0	169.369	0	116.5	4	38.4	4	-1E+10	1	-1E+10	1	-1E+10	1	-1E+10	1	-1E+10	1	-1E+10	1
4902551	45	C	11/06/2021	17:01	-133.889	49.729	0	172.30	0	5.9170	0	33.7600	0	26.585	0	170.756	0	115.7	4	38.1	4	-1E+10	1	-1E+10	1	-1E+10	1	-1E+10	1	-1E+10	1	-1E+10	1
4902551	45	C	11/06/2021	17:01	-133.889	49.729	0	173.20	0	5.9140	0	33.7620	0	26.587	0	171.647	0	115.2	4	37.9	4	-1E+10	1	-1E+10	1	-1E+10	1	-1E+10	1	-1E+10	1	-1E+10	1
4902551	45	C	11/06/2021	17:01	-133.889	49.729	0	174.10	0	5.9080	0	33.7630	0	26.589	0	172.539	0	114.7	4	37.8	4	-1E+10	1	-1E+10	1	-1E+10	1	-1E+10	1	-1E+10	1	-1E+10	1
4902551	45	C	11/06/2021	17:01	-133.889	49.729	0	175.00	0	5.8920	0	33.7680	0	26.595	0	173.431	0	114.2	4	37.6	4	-1E+10	1	-1E+10	1	-1E+10	1	-1E+10	1	-1E+10	1	-1E+10	1
4902551	45	C	11/06/2021	17:01	-133.889	49.729	0	175.80	0	5.8850	0	33.7680	0	26.595	0	174.223	0	113.6	4	37.4	4	-1E+10	1	-1E+10	1	-1E+10	1	-1E+10	1	-1E+10	1	-1E+10	1
4902551	45	C	11/06/2021	17:01	-133.889	49.729	0	176.80	0	5.8800	0	33.7690	0	26.597	0	175.214	0	113.0	4	37.2	4	-1E+10	1	-1E+10	1	-1E+10	1	-1E+10	1	-1E+10	1	-1E+10	1
4902551	45	C	11/06/2021	17:01	-133.889	49.729	0	177.70	0	5.8530	0	33.7770	0	26.607	0	176.105	0	112.4	4	37.0	4	-1E+10	1	-1E+10	1	-1E+10	1	-1E+10	1	-1E+10	1	-1E+10	1
4902551	45	C	11/06/2021	17:01	-133.889	49.729	0	178.60	0	5.8210	0	33.7780	0	26.611	0	176.997	0	112.1	4	36.8	4	-1E+10	1	-1E+10	1	-1E+10	1	-1E+10	1	-1E+10	1	-1E+10	1
4902551	45	C	11/06/2021	17:01	-133.889	49.729	0	179.90	0	5.8010	0	33.7810	0	26.616	0	178.284	0	111.4	4	36.6	4	-1E+10	1	-1E+10	1	-1E+10	1	-1E+10	1	-1E+10	1	-1E+10	1
4902551	45	C	11/06/2021	17:01	-133.889	49.729	0	181.30	0	5.7890	0	33.7840	0	26.620	0	179.671	0	110.8	4	36.4	4	-1E+10	1	-1E+10	1	-1E+10	1	-1E+10	1	-1E+10	1	-1E+10	1
4902551	45	C	11/06/2021	17:01	-133.889	49.729	0	182.20	0	5.7820	0	33.7850	0	26.622	0	180.563	0	110.4	4	36.3	4	-1E+10	1	-1E+10	1	-1E+10	1	-1E+10	1	-1E+10	1	-1E+10	1
4902551	45	C	11/06/2021	17:01	-133.889	49.729	0	183.10	0	5.7820	0	33.7850	0	26.622	0	181.454	0	109.9	4	36.1	4	-1E+10	1	-1E+10	1	-1E+10	1	-1E+10	1	-1E+10	1	-1E+10	1
4902551	45	C	11/06/2021	17:01	-133.889	49.729	0	184.10	0	5.7750	0	33.7870	0	26.624	0	182.445	0	109.4	4	35.9	4	-1E+10	1	-1E+10	1	-1E+10	1	-1E+10	1	-1E+10	1	-1E+10	1
4902551	45	C	11/06/2021	17:01	-133.889	49.729	0	185.00	0	5.7530	0	33.7910	0	26.630	0	183.336	0	109.0	4	35.8	4	-1E+10	1	-1E+10	1	-1E+10	1	-1E+10	1	-1E+10	1	-1E+10	1
4902551	45	C	11/06/2021	17:01	-133.889	49.729	0	185.90	0	5.7500	0	33.7900	0	26.629	0	184.228	0	108.5	4	35.6	4	-1E+10	1	-1E+10	1	-1E+10	1	-1E+10	1	-1E+10	1	-1E+10	1
4902551	45	C	11/06/2021	17:01	-133.889	49.729	0	186.80	0	5.7380	0	33.7920	0	26.633	0	185.119	0	108.1	4	35.5	4	-1E+10	1	-1E+10	1	-1E+10	1	-1E+10	1	-1E+10	1	-1E+10	1
4902551	45	C	11/06/2021	17:01	-133.889	49.729	0	187.60	0	5.7150	0	33.7940	0	26.637	0	185.912	0	107.7	4	35.3	4	-1E+10	1	-1E+10	1	-1E+10	1	-1E+10	1	-1E+10	1	-1E+10	1
4902551	45	C	11/06/2021	17:01	-133.889	49.729	0	188.90	0	5.7060	0	33.7940	0	26.638	0	187.200	0	107.1	4	35.1	4	-1E+10	1	-1E+10	1	-1E+10	1	-1E+10	1	-1E+10	1	-1E+10	1
4902551	45	C	11/06/2021	17:01	-133.889	49.729	0	190.30	0	5.6990	0	33.7970	0	26.641	0	188.586	0	106.3	4	34.8	4	-1E+10	1	-1E+10	1	-1E+10	1	-1E+10	1	-1E+10	1	-1E+10	1
4902551	45	C	11/06/2021	17:01	-133.889	49.729	0	191.20	0	5.6870	0	33.7960	0	26.642	0	189.478	0	105.8	4	34.7	4	-1E+10	1	-1E+10	1	-1E+10	1	-1E+10	1	-1E+10	1	-1E+10	1
4902551	45	C	11/06/2021	17:01	-133.889	49.729	0	192.10	0	5.6800	0	33.7950	0	26.642	0	190.369	0	105.2	4	34.5	4	-1E+10	1	-1E+10	1	-1E+10	1	-1E+10	1	-1E+10	1	-1E+10	1
4902551	45	C	11/06/2021	17:01	-133.889	49.729	0	193.00	0	5.6230	0	33.7980	0	26.651	0	191.261	0	104.8	4	34.3	4	-1E+10	1	-1E+10	1	-1E+10	1	-1E+10	1	-1E+10	1	-1E+10	1
4902551	45	C	11/06/2021	17:01	-133.889	49.729	0	193.90	0	5.6150	0	33.7970	0	26.651	0	192.152	0	104.3	4	34.1	4	-1E+10	1	-1E+10	1	-1E+10	1	-1E+10	1	-1E+10	1	-1E+10	1
4902551	45	C	11/06/2021	17:01	-133.889	49.729	0	194.80	0	5.6130	0	33.7970	0	26.652	0	193.044	0	103.6	4	33.9	4	-1E+10	1	-1E+10	1	-1E+10	1	-1E+10	1	-1E+10	1	-1E+10	1
4902551	45	C	11/06/2021	17:01	-133.889	49.729	0	195.60	0	5.6030	0	33.7990	0	26.655	0	193.836	0	102.8	4	33.6	4	-1E+10	1	-1E+10	1	-1E+10	1	-1E+10	1	-1E+10	1	-1E+10	1
4902551	45	C	11/06/2021	17:01	-133.889	49.729	0	196.90	0	5.5890	0	33.8020	0	26.659	0	195.124	0	101.9	4	33.3	4	-1E+10	1	-1E+10	1	-1E+10	1	-1E+10	1	-1E+10	1	-1E+10	1
4902551	45	C	11/06/2021	17:01	-133.889	49.729	0	198.30	0	5.5650	0	33.8040	0	26.663	0	196.510	0	101.0	4	33.0	4	-1E+10	1	-1E+10	1	-1E+10	1	-1E+10	1	-1E+10	1	-1E+10	1
4902551	45	C	11/06/2021	17:01	-133.889	49.729	0	199.20	0	5.5280	0	33.8070	0	26.670	0	197.402	0	100.6	4	32.9	4	-1E+10	1	-1E+10	1	-1E+10	1	-1E+10	1	-1E+10	1	-1E+10	1
4902551	45	C	11/06/2021	17:01	-133.889	49.729	0	200.00	0	5.5030	0	33.8110	0	26.676	0	198.194	0	100.3	4	32.7	4	-1E+10	1	-1E+10	1	-1E+10	1	-1E+10	1	-1E+10	1	-1E+10	1
4902551	45	C	11/06/2021	17:01	-133.889	49.729	0	200.90	0	5.4870	0	33.8130	0	26.680	0	199.086	0	100.0	4	32.6	4	-1E+10	1	-1E+10	1	-1E+10	1	-1E+10	1	-1E+10	1	-1E+10	1
4902551	45	C	11/06/2021	17:01	-133.889	49.729	0	201.90	0	5.4790	0	33.8120	0	26.680	0	200.076	0	99.7	4	32.5	4	-1E+10	1	-1E+10	1	-1E+10	1	-1E+10	1	-1E+10	1	-1E+10	1
4902551	45	C	11/06/2021	17:01	-133.889	49.729	0	202.70	0	5.4750	0	33.8130	0	26.681	0	200.869	0	99.4	4	32.4	4	-1E+10	1	-1E+10	1	-1E+10	1	-1E+10	1	-1E+10	1	-1E+10	1
4902551	45	C	11/06/2021	17:01	-133.889	49.729	0	203.60	0	5.4670	0	33.8140	0	26.683	0	201.760	0	99.1	4	32.3	4	-1E+10	1	-1E+10	1	-1E+10	1	-1E+10	1	-1E+10	1	-1E+10	1
4902551	45	C	11/06/2021	17:01	-133.889	49.729	0	204.90	0	5.4560	0	33.8150	0	26.685	0	203.048	0	98.6	4	32.1	4	-1E+10	1	-1E+10	1	-1E+10	1	-1E+10	1	-1E+10	1	-1E+10	1
4902551	45	C	11/06/2021	17:01	-133.889	49.729	0	206.40	0	5.4450	0	33.8160	0	26.687	0	204.533	0	98.0	4	31.9	4	-1E+10	1	-1E+10	1	-1E+10	1	-1E+10	1	-1E+10	1	-1E+10	1
4902551	45	C	11/06/2021	17:01	-133.889	49.729	0	207.30	0	5.4420	0	33.8160	0	26.687	0	205.425	0	97.6	4	31.8	4	-1E+10	1	-1E+10	1	-1E+10	1	-1E+10	1	-1E+10	1	-1E+10	1
4902551	45	C	11/06/2021	17:01	-133.889	49.729	0	208.20	0	5.4350	0	33.8160	0	26.688	0	206.316	0	97.1	4	31.6	4	-1E+10	1	-1E+10	1	-1E+10	1	-1E+10	1	-1E+10	1	-1E+10	1
4902551	45	C	11/06/2021	17:01	-133.889	49.729	0	209.10	0	5.4300	0	33.8160	0	26.689	0	207.208	0	96.7	4	31.5	4	-1E+10	1	-1E+10	1	-1E+10	1	-1E+10	1	-1E+10	1	-1E+10	1
4902551	45	C	11/06/2021	17:01	-133.889	49.729	0	210.00	0	5.4160	0	33.8190	0	26.693	0	208.099	0	96.1	4	31.3	4	-1E+10	1	-1E+10	1	-1E+10	1	-1E+10	1	-1E+10	1	-1E+10	1
4902551	45	C	11/06/2021	17:01	-133.889	49.729	0	210.90	0	5.4060	0	33.8190	0	26.694	0	208.990	0	95.7	4	31.1	4	-1E+10	1	-1E+10	1	-1E+10	1	-1E+10	1	-1E+10	1	-1E+10	1
4902551	45	C	11/06/2021	17:01	-133.889	49.729	0	211.90	0	5.4000	0	33.8190	0	26.695	0	209.981	0	95.1	4	31.0	4	-1E+10	1	-1E+10	1	-1E+10	1	-1E+10	1	-1E+10	1	-1E+10	1
4902551	45	C	11/06/2021	17:01	-133.889	49.729	0	212.80	0	5.3950	0	33.8200	0	26.696	0	210.872	0	94.6	4	30.8	4	-1E+10	1	-1E+10	1	-1E+10	1	-1E+10	1	-1E+10	1	-1E+10	1
4902551	45	C	11/06/2021	17:01	-133.889	49.729	0	213.70	0	5.3920	0	33.8200	0	26.696	0	211.764	0	94.0	4	30.6	4	-1E+10	1	-1E+10	1	-1E+10	1	-1E+10	1	-1E+10	1	-1E+10	1
4902551	45	C	11/06/2021	17:01	-133.889	49.729	0	214.60	0	5.3730	0	33.8210	0	26.699	0	212.655	0	93.4	4	30.4	4	-1E+10	1	-1E+10	1	-1E+10	1	-1E+10	1	-1E+10	1	-1E+10	1
4902551	45	C	11/06/2021	17:01	-133.889	49.729	0	215.60	0	5.3620	0	33.8210	0	26.701	0	213.645	0	92.9	4	30.2	4	-1E+10	1	-1E+10	1	-1E+10	1	-1E+10	1	-1E+10	1	-1E+10	1
4902551	45	C	11/06/2021	17:01	-133.889	49.729	0	216.50	0	5.3420	0	33.8280	0	26.709	0	214.537	0	92.4	4	30.0	4	-1E+10	1	-1E+10	1	-1E+10	1	-1E+10	1	-1E+10	1	-1E+10	1
4902551	45	C	11/06/2021	17:01	-133.889	49.729	0	217.90	0	5.3270	0	33.8270	0	26.710	0	215.923	0	91.7	4	29.8	4	-1E+10	1	-1E+10	1	-1E+10	1	-1E+10	1	-1E+10	1	-1E+10	1
4902551	45	C	11/06/2021	17:01	-133.889	49.729	0	219.30	0	5.3100	0	33.8300	0	26.714	0	217.310	0	91.1	4	29.6	4	-1E+10	1	-1E+10	1	-1E+10	1	-1E+10	1	-1E+10	1	-1E+10	1
4902551	45	C	11/06/2021	17:01	-133.889	49.729	0	220.30	0	5.2810	0	33.8310	0	26.718	0	218.300	0	90.7	4	29.4	4	-1E+10	1	-1E+10	1	-1E+10	1	-1E+10	1	-1E+10	1	-1E+10	1
4902551	45	C	11/06/2021	17:01	-133.889	49.729	0	221.20	0	5.2780	0	33.8310	0	26.719	0	219.192	0	90.3	4	29.3	4	-1E+10	1	-1E+10	1	-1E+10	1	-1E+10	1	-1E+10	1	-1E+10	1
4902551	45	C	11/06/2021	17:01	-133.889	49.729	0	222.20	0	5.2670	0	33.8330	0	26.721	0	220.182	0	90.0	4	29.2	4	-1E+10	1	-1E+10	1	-1E+10	1	-1E+10	1	-1E+10	1	-1E+10	1
4902551	45	C	11/06/2021	17:01	-133.889	49.729	0	223.20	0	5.2610	0	33.8330	0	26.722	0	221.172	0	89.7	4	29.1	4	-1E+10	1	-1E+10	1	-1E+10	1	-1E+10	1	-1E+10	1	-1E+10	1
4902551	45	C	11/06/2021	17:01	-133.889	49.729	0	224.20	0	5.2710	0	33.8360	0	26.723	0	222.163	0	89.5	4	29.0	4	-1E+10	1	-1E+10	1	-1E+10	1	-1E+10	1	-1E+10	1	-1E+10	1
4902551	45	C	11/06/2021	17:01	-133.889	49.729	0	225.10	0	5.2610	0	33.8380	0	26.726	0	223.054	0	89.2	4	28.9	4	-1E+10	1	-1E+10	1	-1E+10	1	-1E+10	1	-1E+10	1	-1E+10	1
4902551	45	C	11/06/2021	17:01	-133.889	49.729	0	226.10	0	5.2490	0	33.8360	0	26.726	0	224.045	0	88.9	4	28.8	4	-1E+10	1	-1E+10	1	-1E+10	1	-1E+10	1	-1E+10	1	-1E+10	1
4902551	45	C	11/06/2021	17:01	-133.889	49.729	0	227.10	0	5.2560	0	33.8350	0	26.724	0	225.035	0	88.7	4	28.8	4	-1E+10	1	-1E+10	1	-1E+10	1	-1E+10	1	-1E+10	1	-1E+10	1
4902551	45	C	11/06/2021	17:01	-133.889	49.729	0	228.00	0	5.2570	0	33.8380	0	26.727	0	225.926	0	88.4	4	28.7	4	-1E+10	1	-1E+10	1	-1E+10	1	-1E+10	1	-1E+10	1	-1E+10	1
4902551	45	C	11/06/2021	17:01	-133.889	49.729	0	229.00	0	5.2570	0	33.8380	0	26.727	0	226.917	0	88.1	4	28.6	4	-1E+10	1	-1E+10	1	-1E+10	1	-1E+10	1	-1E+10	1	-1E+10	1
4902551	45	C	11/06/2021	17:01	-133.889	49.729	0	230.00	0	5.2480	0	33.8390	0	26.728	0	227.907	0	87.7	4	28.5	4	-1E+10	1	-1E+10	1	-1E+10	1	-1E+10	1	-1E+10	1	-1E+10	1
4902551	45	C	11/06/2021	17:01	-133.889	49.729	0	231.00	0	5.2260	0	33.8380	0	26.730	0	228.897	0	87.3	4	28.3	4	-1E+10	1	-1E+10	1	-1E+10	1	-1E+10	1	-1E+10	1	-1E+10	1
4902551	45	C	11/06/2021	17:01	-133.889	49.729	0	232.00	0	5.2150	0	33.8390	0	26.732	0	229.888	0	86.8	4	28.1	4	-1E+10	1	-1E+10	1	-1E+10	1	-1E+10	1	-1E+10	1	-1E+10	1
4902551	45	C	11/06/2021	17:01	-133.889	49.729	0	233.00	0	5.1930	0	33.8390	0	26.735	0	230.878	0	86.4	4	28.0	4	-1E+10	1	-1E+10	1	-1E+10	1	-1E+10	1	-1E+10	1	-1E+10	1
4902551	45	C	11/06/2021	17:01	-133.889	49.729	0	234.00	0	5.1840	0	33.8390	0	26.736	0	231.868	0	85.7	4	27.8	4	-1E+10	1	-1E+10	1	-1E+10	1	-1E+10	1	-1E+10	1	-1E+10	1
4902551	45	C	11/06/2021	17:01	-133.889	49.729	0	235.00	0	5.1870	0	33.8410	0	26.737	0	232.859	0	85.2	4	27.6	4	-1E+10	1	-1E+10	1	-1E+10	1	-1E+10	1	-1E+10	1	-1E+10	1
4902551	45	C	11/06/2021	17:01	-133.889	49.729	0	236.00	0	5.1880	0	33.8450	0	26.740	0	233.849	0	84.8	4	27.5	4	-1E+10	1	-1E+10	1	-1E+10	1	-1E+10	1	-1E+10	1	-1E+10	1
4902551	45	C	11/06/2021	17:01	-133.889	49.729	0	237.00	0	5.1930	0	33.8460	0	26.740	0	234.839	0	84.4	4	27.4	4	-1E+10	1	-1E+10	1	-1E+10	1	-1E+10	1	-1E+10	1	-1E+10	1
4902551	45	C	11/06/2021	17:01	-133.889	49.729	0	238.00	0	5.1910	0	33.8470	0	26.742	0	235.830	0	84.2	4	27.3	4	-1E+10	1	-1E+10	1	-1E+10	1	-1E+10	1	-1E+10	1	-1E+10	1
4902551	45	C	11/06/2021	17:01	-133.889	49.729	0	239.00	0	5.1850	0	33.8480	0	26.743	0	236.820	0	84.0	4	27.2	4	-1E+10	1	-1E+10	1	-1E+10	1	-1E+10	1	-1E+10	1	-1E+10	1
4902551	45	C	11/06/2021	17:01	-133.889	49.729	0	240.00	0	5.1750	0	33.8480	0	26.744	0	237.810	0	83.8	4	27.1	4	-1E+10	1	-1E+10	1	-1E+10	1	-1E+10	1	-1E+10	1	-1E+10	1
4902551	45	C	11/06/2021	17:01	-133.889	49.729	0	241.00	0	5.1480	0	33.8470	0	26.746	0	238.801	0	83.6	4	27.1	4	-1E+10	1	-1E+10	1	-1E+10	1	-1E+10	1	-1E+10	1	-1E+10	1
4902551	45	C	11/06/2021	17:01	-133.889	49.729	0	242.10	0	5.1280	0	33.8460	0	26.748	0	239.890	0	83.2	4	26.9	4	-1E+10	1	-1E+10	1	-1E+10	1	-1E+10	1	-1E+10	1	-1E+10	1
4902551	45	C	11/06/2021	17:01	-133.889	49.729	0	243.10	0	5.1210	0	33.8460	0	26.749	0	240.880	0	82.7	4	26.8	4	-1E+10	1	-1E+10	1	-1E+10	1	-1E+10	1	-1E+10	1	-1E+10	1
4902551	45	C	11/06/2021	17:01	-133.889	49.729	0	244.10	0	5.1190	0	33.8470	0	26.750	0	241.870	0	82.2	4	26.6	4	-1E+10	1	-1E+10	1	-1E+10	1	-1E+10	1	-1E+10	1	-1E+10	1
4902551	45	C	11/06/2021	17:01	-133.889	49.729	0	245.10	0	5.1120	0	33.8460	0	26.750	0	242.861	0	81.6	4	26.4	4	-1E+10	1	-1E+10	1	-1E+10	1	-1E+10	1	-1E+10	1	-1E+10	1
4902551	45	C	11/06/2021	17:01	-133.889	49.729	0	246.10	0	5.1060	0	33.8470	0	26.751	0	243.851	0	80.8	4	26.1	4	-1E+10	1	-1E+10	1	-1E+10	1	-1E+10	1	-1E+10	1	-1E+10	1
4902551	45	C	11/06/2021	17:01	-133.889	49.729	0	247.20	0	5.1010	0	33.8420	0	26.748	0	244.940	0	80.3	4	26.0	4	-1E+10	1	-1E+10	1	-1E+10	1	-1E+10	1	-1E+10	1	-1E+10	1
4902551	45	C	11/06/2021	17:01	-133.889	49.729	0	248.20	0	5.1160	0	33.8510	0	26.753	0	245.931	0	79.6	4	25.8	4	-1E+10	1	-1E+10	1	-1E+10	1	-1E+10	1	-1E+10	1	-1E+10	1
4902551	45	C	11/06/2021	17:01	-133.889	49.729	0	249.20	0	5.1240	0	33.8500	0	26.752	0	246.921	0	79.0	4	25.6	4	-1E+10	1	-1E+10	1	-1E+10	1	-1E+10	1	-1E+10	1	-1E+10	1
4902551	45	C	11/06/2021	17:01	-133.889	49.729	0	250.20	0	5.1080	0	33.8520	0	26.755	0	247.911	0	78.5	4	25.4	4	-1E+10	1	-1E+10	1	-1E+10	1	-1E+10	1	-1E+10	1	-1E+10	1
4902551	45	C	11/06/2021	17:01	-133.889	49.729	0	251.20	0	5.1040	0	33.8540	0	26.757	0	248.901	0	77.8	4	25.1	4	-1E+10	1	-1E+10	1	-1E+10	1	-1E+10	1	-1E+10	1	-1E+10	1
4902551	45	C	11/06/2021	17:01	-133.889	49.729	0	252.20	0	5.0930	0	33.8560	0	26.760	0	249.892	0	77.2	4	25.0	4	-1E+10	1	-1E+10	1	-1E+10	1	-1E+10	1	-1E+10	1	-1E+10	1
4902551	45	C	11/06/2021	17:01	-133.889	49.729	0	253.20	0	5.0870	0	33.8560	0	26.761	0	250.882	0	76.7	4	24.8	4	-1E+10	1	-1E+10	1	-1E+10	1	-1E+10	1	-1E+10	1	-1E+10	1
4902551	45	C	11/06/2021	17:01	-133.889	49.729	0	254.20	0	5.0650	0	33.8620	0	26.768	0	251.872	0	76.2	4	24.6	4	-1E+10	1	-1E+10	1	-1E+10	1	-1E+10	1	-1E+10	1	-1E+10	1
4902551	45	C	11/06/2021	17:01	-133.889	49.729	0	255.20	0	5.0470	0	33.8610	0	26.769	0	252.862	0	75.9	4	24.5	4	-1E+10	1	-1E+10	1	-1E+10	1	-1E+10	1	-1E+10	1	-1E+10	1
4902551	45	C	11/06/2021	17:01	-133.889	49.729	0	256.20	0	5.0420	0	33.8620	0	26.771	0	253.852	0	75.6	4	24.4	4	-1E+10	1	-1E+10	1	-1E+10	1	-1E+10	1	-1E+10	1	-1E+10	1
4902551	45	C	11/06/2021	17:01	-133.889	49.729	0	257.30	0	5.0390	0	33.8620	0	26.771	0	254.942	0	75.2	4	24.3	4	-1E+10	1	-1E+10	1	-1E+10	1	-1E+10	1	-1E+10	1	-1E+10	1
4902551	45	C	11/06/2021	17:01	-133.889	49.729	0	258.30	0	5.0320	0	33.8640	0	26.773	0	255.932	0	74.8	4	24.1	4	-1E+10	1	-1E+10	1	-1E+10	1	-1E+10	1	-1E+10	1	-1E+10	1
4902551	45	C	11/06/2021	17:01	-133.889	49.729	0	259.40	0	5.0270	0	33.8640	0	26.774	0	257.021	0	74.4	4	24.0	4	-1E+10	1	-1E+10	1	-1E+10	1	-1E+10	1	-1E+10	1	-1E+10	1
4902551	45	C	11/06/2021	17:01	-133.889	49.729	0	260.40	0	5.0230	0	33.8630	0	26.774	0	258.011	0	74.0	4	23.9	4	-1E+10	1	-1E+10	1	-1E+10	1	-1E+10	1	-1E+10	1	-1E+10	1
4902551	45	C	11/06/2021	17:01	-133.889	49.729	0	261.40	0	5.0140	0	33.8670	0	26.778	0	259.002	0	73.5	4	23.7	4	-1E+10	1	-1E+10	1	-1E+10	1	-1E+10	1	-1E+10	1	-1E+10	1
4902551	45	C	11/06/2021	17:01	-133.889	49.729	0	262.50	0	4.9990	0	33.8670	0	26.780	0	260.091	0	73.2	4	23.6	4	-1E+10	1	-1E+10	1	-1E+10	1	-1E+10	1	-1E+10	1	-1E+10	1
4902551	45	C	11/06/2021	17:01	-133.889	49.729	0	263.50	0	4.9970	0	33.8670	0	26.780	0	261.081	0	72.8	4	23.5	4	-1E+10	1	-1E+10	1	-1E+10	1	-1E+10	1	-1E+10	1	-1E+10	1
4902551	45	C	11/06/2021	17:01	-133.889	49.729	0	264.60	0	4.9920	0	33.8690	0	26.782	0	262.170	0	72.5	4	23.4	4	-1E+10	1	-1E+10	1	-1E+10	1	-1E+10	1	-1E+10	1	-1E+10	1
4902551	45	C	11/06/2021	17:01	-133.889	49.729	0	265.60	0	4.9850	0	33.8690	0	26.783	0	263.160	0	72.1	4	23.3	4	-1E+10	1	-1E+10	1	-1E+10	1	-1E+10	1	-1E+10	1	-1E+10	1
4902551	45	C	11/06/2021	17:01	-133.889	49.729	0	266.70	0	4.9840	0	33.8700	0	26.784	0	264.250	0	71.8	4	23.2	4	-1E+10	1	-1E+10	1	-1E+10	1	-1E+10	1	-1E+10	1	-1E+10	1
4902551	45	C	11/06/2021	17:01	-133.889	49.729	0	267.70	0	4.9760	0	33.8720	0	26.786	0	265.240	0	71.4	4	23.0	4	-1E+10	1	-1E+10	1	-1E+10	1	-1E+10	1	-1E+10	1	-1E+10	1
4902551	45	C	11/06/2021	17:01	-133.889	49.729	0	268.80	0	4.9710	0	33.8720	0	26.787	0	266.329	0	71.1	4	22.9	4	-1E+10	1	-1E+10	1	-1E+10	1	-1E+10	1	-1E+10	1	-1E+10	1
4902551	45	C	11/06/2021	17:01	-133.889	49.729	0	269.80	0	4.9650	0	33.8730	0	26.788	0	267.319	0	70.8	4	22.8	4	-1E+10	1	-1E+10	1	-1E+10	1	-1E+10	1	-1E+10	1	-1E+10	1
4902551	45	C	11/06/2021	17:01	-133.889	49.729	0	270.90	0	4.9550	0	33.8750	0	26.791	0	268.408	0	70.5	4	22.7	4	-1E+10	1	-1E+10	1	-1E+10	1	-1E+10	1	-1E+10	1	-1E+10	1
4902551	45	C	11/06/2021	17:01	-133.889	49.729	0	271.90	0	4.9550	0	33.8740	0	26.790	0	269.398	0	70.1	4	22.6	4	-1E+10	1	-1E+10	1	-1E+10	1	-1E+10	1	-1E+10	1	-1E+10	1
4902551	45	C	11/06/2021	17:01	-133.889	49.729	0	272.90	0	4.9520	0	33.8740	0	26.790	0	270.389	0	69.7	4	22.5	4	-1E+10	1	-1E+10	1	-1E+10	1	-1E+10	1	-1E+10	1	-1E+10	1
4902551	45	C	11/06/2021	17:01	-133.889	49.729	0	274.00	0	4.9430	0	33.8760	0	26.793	0	271.478	0	69.4	4	22.4	4	-1E+10	1	-1E+10	1	-1E+10	1	-1E+10	1	-1E+10	1	-1E+10	1
4902551	45	C	11/06/2021	17:01	-133.889	49.729	0	275.00	0	4.9290	0	33.8780	0	26.796	0	272.468	0	69.2	4	22.3	4	-1E+10	1	-1E+10	1	-1E+10	1	-1E+10	1	-1E+10	1	-1E+10	1
4902551	45	C	11/06/2021	17:01	-133.889	49.729	0	276.10	0	4.9100	0	33.8820	0	26.802	0	273.557	0	69.1	4	22.2	4	-1E+10	1	-1E+10	1	-1E+10	1	-1E+10	1	-1E+10	1	-1E+10	1
4902551	45	C	11/06/2021	17:01	-133.889	49.729	0	277.20	0	4.9100	0	33.8820	0	26.802	0	274.646	0	69.0	4	22.2	4	-1E+10	1	-1E+10	1	-1E+10	1	-1E+10	1	-1E+10	1	-1E+10	1
4902551	45	C	11/06/2021	17:01	-133.889	49.729	0	278.20	0	4.9090	0	33.8820	0	26.802	0	275.636	0	68.8	4	22.2	4	-1E+10	1	-1E+10	1	-1E+10	1	-1E+10	1	-1E+10	1	-1E+10	1
4902551	45	C	11/06/2021	17:01	-133.889	49.729	0	279.30	0	4.9090	0	33.8820	0	26.802	0	276.725	0	68.6	4	22.1	4	-1E+10	1	-1E+10	1	-1E+10	1	-1E+10	1	-1E+10	1	-1E+10	1
4902551	45	C	11/06/2021	17:01	-133.889	49.729	0	280.30	0	4.9090	0	33.8820	0	26.802	0	277.715	0	68.5	4	22.0	4	-1E+10	1	-1E+10	1	-1E+10	1	-1E+10	1	-1E+10	1	-1E+10	1
4902551	45	C	11/06/2021	17:01	-133.889	49.729	0	281.30	0	4.9100	0	33.8810	0	26.801	0	278.706	0	68.3	4	22.0	4	-1E+10	1	-1E+10	1	-1E+10	1	-1E+10	1	-1E+10	1	-1E+10	1
4902551	45	C	11/06/2021	17:01	-133.889	49.729	0	282.30	0	4.9100	0	33.8810	0	26.801	0	279.696	0	68.0	4	21.9	4	-1E+10	1	-1E+10	1	-1E+10	1	-1E+10	1	-1E+10	1	-1E+10	1
4902551	45	C	11/06/2021	17:01	-133.889	49.729	0	283.30	0	4.8920	0	33.8830	0	26.804	0	280.686	0	67.9	4	21.8	4	-1E+10	1	-1E+10	1	-1E+10	1	-1E+10	1	-1E+10	1	-1E+10	1
4902551	45	C	11/06/2021	17:01	-133.889	49.729	0	284.30	0	4.8860	0	33.8840	0	26.806	0	281.676	0	67.6	4	21.8	4	-1E+10	1	-1E+10	1	-1E+10	1	-1E+10	1	-1E+10	1	-1E+10	1
4902551	45	C	11/06/2021	17:01	-133.889	49.729	0	285.30	0	4.8830	0	33.8840	0	26.806	0	282.666	0	67.5	4	21.7	4	-1E+10	1	-1E+10	1	-1E+10	1	-1E+10	1	-1E+10	1	-1E+10	1
4902551	45	C	11/06/2021	17:01	-133.889	49.729	0	286.40	0	4.8820	0	33.8860	0	26.808	0	283.755	0	67.3	4	21.6	4	-1E+10	1	-1E+10	1	-1E+10	1	-1E+10	1	-1E+10	1	-1E+10	1
4902551	45	C	11/06/2021	17:01	-133.889	49.729	0	287.40	0	4.8710	0	33.8860	0	26.809	0	284.745	0	67.1	4	21.6	4	-1E+10	1	-1E+10	1	-1E+10	1	-1E+10	1	-1E+10	1	-1E+10	1
4902551	45	C	11/06/2021	17:01	-133.889	49.729	0	288.40	0	4.8690	0	33.8860	0	26.809	0	285.735	0	66.9	4	21.5	4	-1E+10	1	-1E+10	1	-1E+10	1	-1E+10	1	-1E+10	1	-1E+10	1
4902551	45	C	11/06/2021	17:01	-133.889	49.729	0	289.40	0	4.8660	0	33.8870	0	26.811	0	286.725	0	66.7	4	21.4	4	-1E+10	1	-1E+10	1	-1E+10	1	-1E+10	1	-1E+10	1	-1E+10	1
4902551	45	C	11/06/2021	17:01	-133.889	49.729	0	290.30	0	4.8630	0	33.8870	0	26.811	0	287.616	0	66.5	4	21.4	4	-1E+10	1	-1E+10	1	-1E+10	1	-1E+10	1	-1E+10	1	-1E+10	1
4902551	45	C	11/06/2021	17:01	-133.889	49.729	0	291.90	0	4.8620	0	33.8880	0	26.812	0	289.200	0	66.1	4	21.3	4	-1E+10	1	-1E+10	1	-1E+10	1	-1E+10	1	-1E+10	1	-1E+10	1
4902551	45	C	11/06/2021	17:01	-133.889	49.729	0	293.10	0	4.8550	0	33.8890	0	26.813	0	290.388	0	65.9	4	21.2	4	-1E+10	1	-1E+10	1	-1E+10	1	-1E+10	1	-1E+10	1	-1E+10	1
4902551	45	C	11/06/2021	17:01	-133.889	49.729	0	293.90	0	4.8460	0	33.8900	0	26.815	0	291.181	0	65.8	4	21.1	4	-1E+10	1	-1E+10	1	-1E+10	1	-1E+10	1	-1E+10	1	-1E+10	1
4902551	45	C	11/06/2021	17:01	-133.889	49.729	0	294.70	0	4.8410	0	33.8910	0	26.817	0	291.973	0	65.6	4	21.1	4	-1E+10	1	-1E+10	1	-1E+10	1	-1E+10	1	-1E+10	1	-1E+10	1
4902551	45	C	11/06/2021	17:01	-133.889	49.729	0	295.80	0	4.8330	0	33.8910	0	26.818	0	293.062	0	65.4	4	21.0	4	-1E+10	1	-1E+10	1	-1E+10	1	-1E+10	1	-1E+10	1	-1E+10	1
4902551	45	C	11/06/2021	17:01	-133.889	49.729	0	297.00	0	4.8290	0	33.8920	0	26.819	0	294.250	0	65.2	4	20.9	4	-1E+10	1	-1E+10	1	-1E+10	1	-1E+10	1	-1E+10	1	-1E+10	1
4902551	45	C	11/06/2021	17:01	-133.889	49.729	0	297.80	0	4.8280	0	33.8910	0	26.818	0	295.042	0	65.0	4	20.9	4	-1E+10	1	-1E+10	1	-1E+10	1	-1E+10	1	-1E+10	1	-1E+10	1
4902551	45	C	11/06/2021	17:01	-133.889	49.729	0	299.00	0	4.8220	0	33.8920	0	26.820	0	296.230	0	64.8	4	20.8	4	-1E+10	1	-1E+10	1	-1E+10	1	-1E+10	1	-1E+10	1	-1E+10	1
4902551	45	C	11/06/2021	17:01	-133.889	49.729	0	300.20	0	4.8140	0	33.8930	0	26.821	0	297.418	0	64.5	4	20.7	4	-1E+10	1	-1E+10	1	-1E+10	1	-1E+10	1	-1E+10	1	-1E+10	1
4902551	45	C	11/06/2021	17:01	-133.889	49.729	0	301.00	0	4.8120	0	33.8930	0	26.821	0	298.210	0	64.4	4	20.7	4	-1E+10	1	-1E+10	1	-1E+10	1	-1E+10	1	-1E+10	1	-1E+10	1
4902551	45	C	11/06/2021	17:01	-133.889	49.729	0	301.80	0	4.8060	0	33.8940	0	26.823	0	299.002	0	64.2	4	20.6	4	-1E+10	1	-1E+10	1	-1E+10	1	-1E+10	1	-1E+10	1	-1E+10	1
4902551	45	C	11/06/2021	17:01	-133.889	49.729	0	303.00	0	4.7950	0	33.8940	0	26.824	0	300.190	0	64.0	4	20.5	4	-1E+10	1	-1E+10	1	-1E+10	1	-1E+10	1	-1E+10	1	-1E+10	1
4902551	45	C	11/06/2021	17:01	-133.889	49.729	0	304.20	0	4.7840	0	33.8960	0	26.827	0	301.378	0	63.8	4	20.5	4	-1E+10	1	-1E+10	1	-1E+10	1	-1E+10	1	-1E+10	1	-1E+10	1
4902551	45	C	11/06/2021	17:01	-133.889	49.729	0	305.00	0	4.7820	0	33.8970	0	26.828	0	302.170	0	63.8	4	20.5	4	-1E+10	1	-1E+10	1	-1E+10	1	-1E+10	1	-1E+10	1	-1E+10	1
4902551	45	C	11/06/2021	17:01	-133.889	49.729	0	305.80	0	4.7720	0	33.8980	0	26.830	0	302.962	0	63.7	4	20.5	4	-1E+10	1	-1E+10	1	-1E+10	1	-1E+10	1	-1E+10	1	-1E+10	1
4902551	45	C	11/06/2021	17:01	-133.889	49.729	0	307.00	0	4.7630	0	33.8990	0	26.832	0	304.150	0	63.7	4	20.4	4	-1E+10	1	-1E+10	1	-1E+10	1	-1E+10	1	-1E+10	1	-1E+10	1
4902551	45	C	11/06/2021	17:01	-133.889	49.729	0	308.20	0	4.7420	0	33.8990	0	26.834	0	305.338	0	63.6	4	20.4	4	-1E+10	1	-1E+10	1	-1E+10	1	-1E+10	1	-1E+10	1	-1E+10	1
4902551	45	C	11/06/2021	17:01	-133.889	49.729	0	309.10	0	4.7390	0	33.8990	0	26.834	0	306.229	0	63.5	4	20.4	4	-1E+10	1	-1E+10	1	-1E+10	1	-1E+10	1	-1E+10	1	-1E+10	1
4902551	45	C	11/06/2021	17:01	-133.889	49.729	0	309.90	0	4.7350	0	33.9010	0	26.836	0	307.021	0	63.4	4	20.3	4	-1E+10	1	-1E+10	1	-1E+10	1	-1E+10	1	-1E+10	1	-1E+10	1
4902551	45	C	11/06/2021	17:01	-133.889	49.729	0	310.80	0	4.7340	0	33.9000	0	26.836	0	307.912	0	63.4	4	20.3	4	-1E+10	1	-1E+10	1	-1E+10	1	-1E+10	1	-1E+10	1	-1E+10	1
4902551	45	C	11/06/2021	17:01	-133.889	49.729	0	312.00	0	4.7270	0	33.8990	0	26.836	0	309.100	0	63.2	4	20.3	4	-1E+10	1	-1E+10	1	-1E+10	1	-1E+10	1	-1E+10	1	-1E+10	1
4902551	45	C	11/06/2021	17:01	-133.889	49.729	0	313.30	0	4.7230	0	33.9000	0	26.837	0	310.386	0	63.0	4	20.2	4	-1E+10	1	-1E+10	1	-1E+10	1	-1E+10	1	-1E+10	1	-1E+10	1
4902551	45	C	11/06/2021	17:01	-133.889	49.729	0	314.10	0	4.7220	0	33.8990	0	26.836	0	311.178	0	62.8	4	20.1	4	-1E+10	1	-1E+10	1	-1E+10	1	-1E+10	1	-1E+10	1	-1E+10	1
4902551	45	C	11/06/2021	17:01	-133.889	49.729	0	315.00	0	4.7190	0	33.9000	0	26.837	0	312.069	0	62.6	4	20.1	4	-1E+10	1	-1E+10	1	-1E+10	1	-1E+10	1	-1E+10	1	-1E+10	1
4902551	45	C	11/06/2021	17:01	-133.889	49.729	0	315.80	0	4.7140	0	33.9000	0	26.838	0	312.861	0	62.3	4	20.0	4	-1E+10	1	-1E+10	1	-1E+10	1	-1E+10	1	-1E+10	1	-1E+10	1
4902551	45	C	11/06/2021	17:01	-133.889	49.729	0	316.70	0	4.7080	0	33.8990	0	26.838	0	313.752	0	62.1	4	19.9	4	-1E+10	1	-1E+10	1	-1E+10	1	-1E+10	1	-1E+10	1	-1E+10	1
4902551	45	C	11/06/2021	17:01	-133.889	49.729	0	317.90	0	4.7060	0	33.9000	0	26.839	0	314.940	0	61.6	4	19.7	4	-1E+10	1	-1E+10	1	-1E+10	1	-1E+10	1	-1E+10	1	-1E+10	1
4902551	45	C	11/06/2021	17:01	-133.889	49.729	0	319.30	0	4.6870	0	33.9020	0	26.843	0	316.326	0	61.1	4	19.6	4	-1E+10	1	-1E+10	1	-1E+10	1	-1E+10	1	-1E+10	1	-1E+10	1
4902551	45	C	11/06/2021	17:01	-133.889	49.729	0	320.10	0	4.6800	0	33.9040	0	26.845	0	317.118	0	60.8	4	19.5	4	-1E+10	1	-1E+10	1	-1E+10	1	-1E+10	1	-1E+10	1	-1E+10	1
4902551	45	C	11/06/2021	17:01	-133.889	49.729	0	321.00	0	4.6690	0	33.9040	0	26.846	0	318.009	0	60.4	4	19.3	4	-1E+10	1	-1E+10	1	-1E+10	1	-1E+10	1	-1E+10	1	-1E+10	1
4902551	45	C	11/06/2021	17:01	-133.889	49.729	0	321.90	0	4.6670	0	33.9050	0	26.847	0	318.900	0	59.9	4	19.2	4	-1E+10	1	-1E+10	1	-1E+10	1	-1E+10	1	-1E+10	1	-1E+10	1
4902551	45	C	11/06/2021	17:01	-133.889	49.729	0	322.80	0	4.6630	0	33.9060	0	26.848	0	319.791	0	59.5	4	19.0	4	-1E+10	1	-1E+10	1	-1E+10	1	-1E+10	1	-1E+10	1	-1E+10	1
4902551	45	C	11/06/2021	17:01	-133.889	49.729	0	323.70	0	4.6700	0	33.9080	0	26.849	0	320.682	0	59.2	4	19.0	4	-1E+10	1	-1E+10	1	-1E+10	1	-1E+10	1	-1E+10	1	-1E+10	1
4902551	45	C	11/06/2021	17:01	-133.889	49.729	0	324.90	0	4.6610	0	33.9080	0	26.850	0	321.870	0	58.7	4	18.8	4	-1E+10	1	-1E+10	1	-1E+10	1	-1E+10	1	-1E+10	1	-1E+10	1
4902551	45	C	11/06/2021	17:01	-133.889	49.729	0	326.30	0	4.6570	0	33.9110	0	26.853	0	323.255	0	58.3	4	18.7	4	-1E+10	1	-1E+10	1	-1E+10	1	-1E+10	1	-1E+10	1	-1E+10	1
4902551	45	C	11/06/2021	17:01	-133.889	49.729	0	327.20	0	4.6500	0	33.9110	0	26.854	0	324.146	0	58.0	4	18.6	4	-1E+10	1	-1E+10	1	-1E+10	1	-1E+10	1	-1E+10	1	-1E+10	1
4902551	45	C	11/06/2021	17:01	-133.889	49.729	0	328.10	0	4.6440	0	33.9120	0	26.855	0	325.037	0	57.7	4	18.5	4	-1E+10	1	-1E+10	1	-1E+10	1	-1E+10	1	-1E+10	1	-1E+10	1
4902551	45	C	11/06/2021	17:01	-133.889	49.729	0	329.00	0	4.6420	0	33.9140	0	26.857	0	325.928	0	57.3	4	18.4	4	-1E+10	1	-1E+10	1	-1E+10	1	-1E+10	1	-1E+10	1	-1E+10	1
4902551	45	C	11/06/2021	17:01	-133.889	49.729	0	329.90	0	4.6410	0	33.9140	0	26.857	0	326.819	0	57.0	4	18.2	4	-1E+10	1	-1E+10	1	-1E+10	1	-1E+10	1	-1E+10	1	-1E+10	1
4902551	45	C	11/06/2021	17:01	-133.889	49.729	0	330.80	0	4.6400	0	33.9140	0	26.857	0	327.710	0	56.6	4	18.1	4	-1E+10	1	-1E+10	1	-1E+10	1	-1E+10	1	-1E+10	1	-1E+10	1
4902551	45	C	11/06/2021	17:01	-133.889	49.729	0	331.70	0	4.6380	0	33.9150	0	26.858	0	328.601	0	56.2	4	18.0	4	-1E+10	1	-1E+10	1	-1E+10	1	-1E+10	1	-1E+10	1	-1E+10	1
4902551	45	C	11/06/2021	17:01	-133.889	49.729	0	332.60	0	4.6380	0	33.9160	0	26.859	0	329.492	0	55.7	4	17.8	4	-1E+10	1	-1E+10	1	-1E+10	1	-1E+10	1	-1E+10	1	-1E+10	1
4902551	45	C	11/06/2021	17:01	-133.889	49.729	0	333.50	0	4.6370	0	33.9160	0	26.859	0	330.383	0	55.3	4	17.7	4	-1E+10	1	-1E+10	1	-1E+10	1	-1E+10	1	-1E+10	1	-1E+10	1
4902551	45	C	11/06/2021	17:01	-133.889	49.729	0	334.90	0	4.6370	0	33.9190	0	26.862	0	331.768	0	54.7	4	17.5	4	-1E+10	1	-1E+10	1	-1E+10	1	-1E+10	1	-1E+10	1	-1E+10	1
4902551	45	C	11/06/2021	17:01	-133.889	49.729	0	336.40	0	4.6340	0	33.9230	0	26.865	0	333.253	0	54.3	4	17.4	4	-1E+10	1	-1E+10	1	-1E+10	1	-1E+10	1	-1E+10	1	-1E+10	1
4902551	45	C	11/06/2021	17:01	-133.889	49.729	0	337.30	0	4.6310	0	33.9240	0	26.866	0	334.144	0	54.0	4	17.3	4	-1E+10	1	-1E+10	1	-1E+10	1	-1E+10	1	-1E+10	1	-1E+10	1
4902551	45	C	11/06/2021	17:01	-133.889	49.729	0	338.20	0	4.6260	0	33.9250	0	26.868	0	335.035	0	53.8	4	17.2	4	-1E+10	1	-1E+10	1	-1E+10	1	-1E+10	1	-1E+10	1	-1E+10	1
4902551	45	C	11/06/2021	17:01	-133.889	49.729	0	339.20	0	4.6170	0	33.9270	0	26.870	0	336.025	0	53.5	4	17.1	4	-1E+10	1	-1E+10	1	-1E+10	1	-1E+10	1	-1E+10	1	-1E+10	1
4902551	45	C	11/06/2021	17:01	-133.889	49.729	0	340.10	0	4.6140	0	33.9270	0	26.871	0	336.915	0	53.4	4	17.1	4	-1E+10	1	-1E+10	1	-1E+10	1	-1E+10	1	-1E+10	1	-1E+10	1
4902551	45	C	11/06/2021	17:01	-133.889	49.729	0	341.00	0	4.6070	0	33.9280	0	26.872	0	337.806	0	53.2	4	17.0	4	-1E+10	1	-1E+10	1	-1E+10	1	-1E+10	1	-1E+10	1	-1E+10	1
4902551	45	C	11/06/2021	17:01	-133.889	49.729	0	342.00	0	4.5900	0	33.9300	0	26.876	0	338.796	0	53.0	4	16.9	4	-1E+10	1	-1E+10	1	-1E+10	1	-1E+10	1	-1E+10	1	-1E+10	1
4902551	45	C	11/06/2021	17:01	-133.889	49.729	0	342.90	0	4.5840	0	33.9320	0	26.878	0	339.687	0	52.7	4	16.9	4	-1E+10	1	-1E+10	1	-1E+10	1	-1E+10	1	-1E+10	1	-1E+10	1
4902551	45	C	11/06/2021	17:01	-133.889	49.729	0	343.90	0	4.5810	0	33.9330	0	26.879	0	340.677	0	52.5	4	16.8	4	-1E+10	1	-1E+10	1	-1E+10	1	-1E+10	1	-1E+10	1	-1E+10	1
4902551	45	C	11/06/2021	17:01	-133.889	49.729	0	344.80	0	4.5800	0	33.9320	0	26.878	0	341.568	0	52.3	4	16.7	4	-1E+10	1	-1E+10	1	-1E+10	1	-1E+10	1	-1E+10	1	-1E+10	1
4902551	45	C	11/06/2021	17:01	-133.889	49.729	0	345.80	0	4.5740	0	33.9340	0	26.881	0	342.557	0	52.0	4	16.6	4	-1E+10	1	-1E+10	1	-1E+10	1	-1E+10	1	-1E+10	1	-1E+10	1
4902551	45	C	11/06/2021	17:01	-133.889	49.729	0	346.70	0	4.5700	0	33.9350	0	26.882	0	343.448	0	51.7	4	16.5	4	-1E+10	1	-1E+10	1	-1E+10	1	-1E+10	1	-1E+10	1	-1E+10	1
4902551	45	C	11/06/2021	17:01	-133.889	49.729	0	347.70	0	4.5680	0	33.9360	0	26.883	0	344.438	0	51.4	4	16.4	4	-1E+10	1	-1E+10	1	-1E+10	1	-1E+10	1	-1E+10	1	-1E+10	1
4902551	45	C	11/06/2021	17:01	-133.889	49.729	0	348.60	0	4.5670	0	33.9350	0	26.882	0	345.329	0	51.1	4	16.3	4	-1E+10	1	-1E+10	1	-1E+10	1	-1E+10	1	-1E+10	1	-1E+10	1
4902551	45	C	11/06/2021	17:01	-133.889	49.729	0	349.60	0	4.5610	0	33.9370	0	26.884	0	346.319	0	50.8	4	16.2	4	-1E+10	1	-1E+10	1	-1E+10	1	-1E+10	1	-1E+10	1	-1E+10	1
4902551	45	C	11/06/2021	17:01	-133.889	49.729	0	352.90	0	4.5410	0	33.9420	0	26.890	0	349.585	0	49.9	4	15.9	4	-1E+10	1	-1E+10	1	-1E+10	1	-1E+10	1	-1E+10	1	-1E+10	1
4902551	45	C	11/06/2021	17:01	-133.889	49.729	0	358.30	0	4.5160	0	33.9500	0	26.900	0	354.929	0	48.3	4	15.4	4	-1E+10	1	-1E+10	1	-1E+10	1	-1E+10	1	-1E+10	1	-1E+10	1
4902551	45	C	11/06/2021	17:01	-133.889	49.729	0	363.20	0	4.5000	0	33.9560	0	26.906	0	359.779	0	47.3	4	15.1	4	-1E+10	1	-1E+10	1	-1E+10	1	-1E+10	1	-1E+10	1	-1E+10	1
4902551	45	C	11/06/2021	17:01	-133.889	49.729	0	368.10	0	4.4900	0	33.9590	0	26.910	0	364.629	0	46.5	4	14.8	4	-1E+10	1	-1E+10	1	-1E+10	1	-1E+10	1	-1E+10	1	-1E+10	1
4902551	45	C	11/06/2021	17:01	-133.889	49.729	0	373.10	0	4.4720	0	33.9650	0	26.916	0	369.577	0	45.8	4	14.6	4	-1E+10	1	-1E+10	1	-1E+10	1	-1E+10	1	-1E+10	1	-1E+10	1
4902551	45	C	11/06/2021	17:01	-133.889	49.729	0	378.10	0	4.4530	0	33.9710	0	26.923	0	374.525	0	45.2	4	14.4	4	-1E+10	1	-1E+10	1	-1E+10	1	-1E+10	1	-1E+10	1	-1E+10	1
4902551	45	C	11/06/2021	17:01	-133.889	49.729	0	383.20	0	4.4410	0	33.9740	0	26.927	0	379.572	0	44.7	4	14.3	4	-1E+10	1	-1E+10	1	-1E+10	1	-1E+10	1	-1E+10	1	-1E+10	1
4902551	45	C	11/06/2021	17:01	-133.889	49.729	0	387.90	0	4.4280	0	33.9790	0	26.932	0	384.224	0	44.3	4	14.1	4	-1E+10	1	-1E+10	1	-1E+10	1	-1E+10	1	-1E+10	1	-1E+10	1
4902551	45	C	11/06/2021	17:01	-133.889	49.729	0	392.70	0	4.4120	0	33.9840	0	26.938	0	388.974	0	44.1	4	14.1	4	-1E+10	1	-1E+10	1	-1E+10	1	-1E+10	1	-1E+10	1	-1E+10	1
4902551	45	C	11/06/2021	17:01	-133.889	49.729	0	398.00	0	4.4020	0	33.9870	0	26.941	0	394.218	0	44.3	4	14.1	4	-1E+10	1	-1E+10	1	-1E+10	1	-1E+10	1	-1E+10	1	-1E+10	1
4902551	45	C	11/06/2021	17:01	-133.889	49.729	0	402.80	0	4.3900	0	33.9920	0	26.947	0	398.968	0	44.8	4	14.3	4	-1E+10	1	-1E+10	1	-1E+10	1	-1E+10	1	-1E+10	1	-1E+10	1
4902551	45	C	11/06/2021	17:01	-133.889	49.729	0	407.70	0	4.3780	0	33.9960	0	26.951	0	403.817	0	45.9	4	14.6	4	-1E+10	1	-1E+10	1	-1E+10	1	-1E+10	1	-1E+10	1	-1E+10	1
4902551	45	C	11/06/2021	17:01	-133.889	49.729	0	413.10	0	4.3640	0	33.9980	0	26.954	0	409.160	0	46.4	4	14.8	4	-1E+10	1	-1E+10	1	-1E+10	1	-1E+10	1	-1E+10	1	-1E+10	1
4902551	45	C	11/06/2021	17:01	-133.889	49.729	0	417.90	0	4.3510	0	34.0020	0	26.959	0	413.909	0	46.0	4	14.6	4	-1E+10	1	-1E+10	1	-1E+10	1	-1E+10	1	-1E+10	1	-1E+10	1
4902551	45	C	11/06/2021	17:01	-133.889	49.729	0	422.80	0	4.3460	0	34.0040	0	26.961	0	418.758	0	45.1	4	14.3	4	-1E+10	1	-1E+10	1	-1E+10	1	-1E+10	1	-1E+10	1	-1E+10	1
4902551	45	C	11/06/2021	17:01	-133.889	49.729	0	427.70	0	4.3310	0	34.0090	0	26.967	0	423.606	0	44.3	4	14.1	4	-1E+10	1	-1E+10	1	-1E+10	1	-1E+10	1	-1E+10	1	-1E+10	1
4902551	45	C	11/06/2021	17:01	-133.889	49.729	0	432.60	0	4.3250	0	34.0110	0	26.969	0	428.454	0	43.4	4	13.8	4	-1E+10	1	-1E+10	1	-1E+10	1	-1E+10	1	-1E+10	1	-1E+10	1
4902551	45	C	11/06/2021	17:01	-133.889	49.729	0	438.00	0	4.3150	0	34.0140	0	26.972	0	433.796	0	42.3	4	13.5	4	-1E+10	1	-1E+10	1	-1E+10	1	-1E+10	1	-1E+10	1	-1E+10	1
4902551	45	C	11/06/2021	17:01	-133.889	49.729	0	442.80	0	4.3000	0	34.0200	0	26.979	0	438.545	0	41.4	4	13.1	4	-1E+10	1	-1E+10	1	-1E+10	1	-1E+10	1	-1E+10	1	-1E+10	1
4902551	45	C	11/06/2021	17:01	-133.889	49.729	0	447.60	0	4.2920	0	34.0230	0	26.982	0	443.294	0	40.6	4	12.9	4	-1E+10	1	-1E+10	1	-1E+10	1	-1E+10	1	-1E+10	1	-1E+10	1
4902551	45	C	11/06/2021	17:01	-133.889	49.729	0	452.90	0	4.2820	0	34.0270	0	26.986	0	448.537	0	39.8	4	12.6	4	-1E+10	1	-1E+10	1	-1E+10	1	-1E+10	1	-1E+10	1	-1E+10	1
4902551	45	C	11/06/2021	17:01	-133.889	49.729	0	458.20	0	4.2770	0	34.0290	0	26.989	0	453.781	0	39.2	4	12.5	4	-1E+10	1	-1E+10	1	-1E+10	1	-1E+10	1	-1E+10	1	-1E+10	1
4902551	45	C	11/06/2021	17:01	-133.889	49.729	0	463.00	0	4.2720	0	34.0300	0	26.990	0	458.529	0	38.3	4	12.1	4	-1E+10	1	-1E+10	1	-1E+10	1	-1E+10	1	-1E+10	1	-1E+10	1
4902551	45	C	11/06/2021	17:01	-133.889	49.729	0	467.90	0	4.2640	0	34.0340	0	26.994	0	463.376	0	37.2	4	11.8	4	-1E+10	1	-1E+10	1	-1E+10	1	-1E+10	1	-1E+10	1	-1E+10	1
4902551	45	C	11/06/2021	17:01	-133.889	49.729	0	472.90	0	4.2540	0	34.0380	0	26.998	0	468.322	0	36.0	4	11.4	4	-1E+10	1	-1E+10	1	-1E+10	1	-1E+10	1	-1E+10	1	-1E+10	1
4902551	45	C	11/06/2021	17:01	-133.889	49.729	0	477.70	0	4.2500	0	34.0420	0	27.002	0	473.070	0	35.2	4	11.2	4	-1E+10	1	-1E+10	1	-1E+10	1	-1E+10	1	-1E+10	1	-1E+10	1
4902551	45	C	11/06/2021	17:01	-133.889	49.729	0	482.90	0	4.2380	0	34.0460	0	27.006	0	478.214	0	34.3	4	10.9	4	-1E+10	1	-1E+10	1	-1E+10	1	-1E+10	1	-1E+10	1	-1E+10	1
4902551	45	C	11/06/2021	17:01	-133.889	49.729	0	488.00	0	4.2230	0	34.0510	0	27.012	0	483.258	0	33.2	4	10.5	4	-1E+10	1	-1E+10	1	-1E+10	1	-1E+10	1	-1E+10	1	-1E+10	1
4902551	45	C	11/06/2021	17:01	-133.889	49.729	0	492.90	0	4.2020	0	34.0600	0	27.021	0	488.105	0	32.4	4	10.3	4	-1E+10	1	-1E+10	1	-1E+10	1	-1E+10	1	-1E+10	1	-1E+10	1
4902551	45	C	11/06/2021	17:01	-133.889	49.729	0	497.80	0	4.1910	0	34.0640	0	27.026	0	492.952	0	32.0	4	10.1	4	-1E+10	1	-1E+10	1	-1E+10	1	-1E+10	1	-1E+10	1	-1E+10	1
4902551	45	C	11/06/2021	17:01	-133.889	49.729	0	502.80	0	4.1800	0	34.0690	0	27.031	0	497.897	0	31.5	4	10.0	4	-1E+10	1	-1E+10	1	-1E+10	1	-1E+10	1	-1E+10	1	-1E+10	1
4902551	45	C	11/06/2021	17:01	-133.889	49.729	0	507.90	0	4.1700	0	34.0720	0	27.034	0	502.941	0	31.1	4	9.9	4	-1E+10	1	-1E+10	1	-1E+10	1	-1E+10	1	-1E+10	1	-1E+10	1
4902551	45	C	11/06/2021	17:01	-133.889	49.729	0	513.10	0	4.1630	0	34.0750	0	27.037	0	508.084	0	30.8	4	9.7	4	-1E+10	1	-1E+10	1	-1E+10	1	-1E+10	1	-1E+10	1	-1E+10	1
4902551	45	C	11/06/2021	17:01	-133.889	49.729	0	517.90	0	4.1520	0	34.0780	0	27.041	0	512.831	0	30.4	4	9.6	4	-1E+10	1	-1E+10	1	-1E+10	1	-1E+10	1	-1E+10	1	-1E+10	1
4902551	45	C	11/06/2021	17:01	-133.889	49.729	0	522.70	0	4.1430	0	34.0800	0	27.044	0	517.578	0	30.0	4	9.5	4	-1E+10	1	-1E+10	1	-1E+10	1	-1E+10	1	-1E+10	1	-1E+10	1
4902551	45	C	11/06/2021	17:01	-133.889	49.729	0	527.80	0	4.1320	0	34.0840	0	27.048	0	522.622	0	29.4	4	9.3	4	-1E+10	1	-1E+10	1	-1E+10	1	-1E+10	1	-1E+10	1	-1E+10	1
4902551	45	C	11/06/2021	17:01	-133.889	49.729	0	532.80	0	4.1140	0	34.0890	0	27.054	0	527.566	0	28.7	4	9.1	4	-1E+10	1	-1E+10	1	-1E+10	1	-1E+10	1	-1E+10	1	-1E+10	1
4902551	45	C	11/06/2021	17:01	-133.889	49.729	0	538.00	0	4.0810	0	34.0980	0	27.064	0	532.709	0	27.9	4	8.8	4	-1E+10	1	-1E+10	1	-1E+10	1	-1E+10	1	-1E+10	1	-1E+10	1
4902551	45	C	11/06/2021	17:01	-133.889	49.729	0	542.70	0	4.0590	0	34.1060	0	27.073	0	537.356	0	27.4	4	8.7	4	-1E+10	1	-1E+10	1	-1E+10	1	-1E+10	1	-1E+10	1	-1E+10	1
4902551	45	C	11/06/2021	17:01	-133.889	49.729	0	547.50	0	4.0460	0	34.1090	0	27.077	0	542.103	0	27.1	4	8.6	4	-1E+10	1	-1E+10	1	-1E+10	1	-1E+10	1	-1E+10	1	-1E+10	1
4902551	45	C	11/06/2021	17:01	-133.889	49.729	0	552.80	0	4.0330	0	34.1130	0	27.081	0	547.343	0	26.7	4	8.4	4	-1E+10	1	-1E+10	1	-1E+10	1	-1E+10	1	-1E+10	1	-1E+10	1
4902551	45	C	11/06/2021	17:01	-133.889	49.729	0	558.10	0	4.0200	0	34.1180	0	27.087	0	552.584	0	26.3	4	8.3	4	-1E+10	1	-1E+10	1	-1E+10	1	-1E+10	1	-1E+10	1	-1E+10	1
4902551	45	C	11/06/2021	17:01	-133.889	49.729	0	562.90	0	4.0060	0	34.1220	0	27.091	0	557.330	0	26.1	4	8.2	4	-1E+10	1	-1E+10	1	-1E+10	1	-1E+10	1	-1E+10	1	-1E+10	1
4902551	45	C	11/06/2021	17:01	-133.889	49.729	0	567.70	0	3.9970	0	34.1240	0	27.094	0	562.076	0	25.8	4	8.1	4	-1E+10	1	-1E+10	1	-1E+10	1	-1E+10	1	-1E+10	1	-1E+10	1
4902551	45	C	11/06/2021	17:01	-133.889	49.729	0	572.90	0	3.9870	0	34.1270	0	27.097	0	567.218	0	25.4	4	8.0	4	-1E+10	1	-1E+10	1	-1E+10	1	-1E+10	1	-1E+10	1	-1E+10	1
4902551	45	C	11/06/2021	17:01	-133.889	49.729	0	578.10	0	3.9740	0	34.1310	0	27.102	0	572.359	0	24.9	4	7.8	4	-1E+10	1	-1E+10	1	-1E+10	1	-1E+10	1	-1E+10	1	-1E+10	1
4902551	45	C	11/06/2021	17:01	-133.889	49.729	0	582.90	0	3.9570	0	34.1360	0	27.108	0	577.105	0	24.3	4	7.7	4	-1E+10	1	-1E+10	1	-1E+10	1	-1E+10	1	-1E+10	1	-1E+10	1
4902551	45	C	11/06/2021	17:01	-133.889	49.729	0	587.60	0	3.9450	0	34.1410	0	27.113	0	581.751	0	23.8	4	7.5	4	-1E+10	1	-1E+10	1	-1E+10	1	-1E+10	1	-1E+10	1	-1E+10	1
4902551	45	C	11/06/2021	17:01	-133.889	49.729	0	592.80	0	3.9230	0	34.1480	0	27.121	0	586.892	0	23.4	4	7.4	4	-1E+10	1	-1E+10	1	-1E+10	1	-1E+10	1	-1E+10	1	-1E+10	1
4902551	45	C	11/06/2021	17:01	-133.889	49.729	0	598.00	0	3.9110	0	34.1510	0	27.124	0	592.033	0	23.2	4	7.3	4	-1E+10	1	-1E+10	1	-1E+10	1	-1E+10	1	-1E+10	1	-1E+10	1
4902551	45	C	11/06/2021	17:01	-133.889	49.729	0	602.80	0	3.9040	0	34.1530	0	27.127	0	596.778	0	22.9	4	7.2	4	-1E+10	1	-1E+10	1	-1E+10	1	-1E+10	1	-1E+10	1	-1E+10	1
4902551	45	C	11/06/2021	17:01	-133.889	49.729	0	607.60	0	3.8840	0	34.1580	0	27.133	0	601.523	0	22.5	4	7.1	4	-1E+10	1	-1E+10	1	-1E+10	1	-1E+10	1	-1E+10	1	-1E+10	1
4902551	45	C	11/06/2021	17:01	-133.889	49.729	0	612.90	0	3.8550	0	34.1660	0	27.142	0	606.763	0	22.2	4	7.0	4	-1E+10	1	-1E+10	1	-1E+10	1	-1E+10	1	-1E+10	1	-1E+10	1
4902551	45	C	11/06/2021	17:01	-133.889	49.729	0	618.30	0	3.8490	0	34.1680	0	27.144	0	612.101	0	21.9	4	6.9	4	-1E+10	1	-1E+10	1	-1E+10	1	-1E+10	1	-1E+10	1	-1E+10	1
4902551	45	C	11/06/2021	17:01	-133.889	49.729	0	623.10	0	3.8380	0	34.1710	0	27.148	0	616.845	0	21.5	4	6.8	4	-1E+10	1	-1E+10	1	-1E+10	1	-1E+10	1	-1E+10	1	-1E+10	1
4902551	45	C	11/06/2021	17:01	-133.889	49.729	0	628.00	0	3.8220	0	34.1750	0	27.153	0	621.689	0	21.1	4	6.6	4	-1E+10	1	-1E+10	1	-1E+10	1	-1E+10	1	-1E+10	1	-1E+10	1
4902551	45	C	11/06/2021	17:01	-133.889	49.729	0	632.90	0	3.8040	0	34.1800	0	27.158	0	626.532	0	20.7	4	6.5	4	-1E+10	1	-1E+10	1	-1E+10	1	-1E+10	1	-1E+10	1	-1E+10	1
4902551	45	C	11/06/2021	17:01	-133.889	49.729	0	638.00	0	3.7830	0	34.1860	0	27.165	0	631.573	0	20.2	4	6.3	4	-1E+10	1	-1E+10	1	-1E+10	1	-1E+10	1	-1E+10	1	-1E+10	1
4902551	45	C	11/06/2021	17:01	-133.889	49.729	0	643.20	0	3.7790	0	34.1900	0	27.169	0	636.713	0	19.8	4	6.2	4	-1E+10	1	-1E+10	1	-1E+10	1	-1E+10	1	-1E+10	1	-1E+10	1
4902551	45	C	11/06/2021	17:01	-133.889	49.729	0	647.80	0	3.7700	0	34.1930	0	27.172	0	641.260	0	19.7	4	6.2	4	-1E+10	1	-1E+10	1	-1E+10	1	-1E+10	1	-1E+10	1	-1E+10	1
4902551	45	C	11/06/2021	17:01	-133.889	49.729	0	652.90	0	3.7430	0	34.1980	0	27.179	0	646.300	0	19.5	4	6.1	4	-1E+10	1	-1E+10	1	-1E+10	1	-1E+10	1	-1E+10	1	-1E+10	1
4902551	45	C	11/06/2021	17:01	-133.889	49.729	0	658.10	0	3.7280	0	34.2020	0	27.184	0	651.439	0	19.1	4	6.0	4	-1E+10	1	-1E+10	1	-1E+10	1	-1E+10	1	-1E+10	1	-1E+10	1
4902551	45	C	11/06/2021	17:01	-133.889	49.729	0	663.10	0	3.7140	0	34.2060	0	27.188	0	656.381	0	18.8	4	5.9	4	-1E+10	1	-1E+10	1	-1E+10	1	-1E+10	1	-1E+10	1	-1E+10	1
4902551	45	C	11/06/2021	17:01	-133.889	49.729	0	668.20	0	3.6990	0	34.2110	0	27.194	0	661.421	0	18.3	4	5.8	4	-1E+10	1	-1E+10	1	-1E+10	1	-1E+10	1	-1E+10	1	-1E+10	1
4902551	45	C	11/06/2021	17:01	-133.889	49.729	0	673.00	0	3.6840	0	34.2150	0	27.198	0	666.165	0	18.0	4	5.7	4	-1E+10	1	-1E+10	1	-1E+10	1	-1E+10	1	-1E+10	1	-1E+10	1
4902551	45	C	11/06/2021	17:01	-133.889	49.729	0	678.00	0	3.6730	0	34.2190	0	27.203	0	671.106	0	17.8	4	5.6	4	-1E+10	1	-1E+10	1	-1E+10	1	-1E+10	1	-1E+10	1	-1E+10	1
4902551	45	C	11/06/2021	17:01	-133.889	49.729	0	683.00	0	3.6630	0	34.2220	0	27.206	0	676.047	0	17.5	4	5.5	4	-1E+10	1	-1E+10	1	-1E+10	1	-1E+10	1	-1E+10	1	-1E+10	1
4902551	45	C	11/06/2021	17:01	-133.889	49.729	0	687.60	0	3.6540	0	34.2260	0	27.210	0	680.593	0	17.3	4	5.4	4	-1E+10	1	-1E+10	1	-1E+10	1	-1E+10	1	-1E+10	1	-1E+10	1
4902551	45	C	11/06/2021	17:01	-133.889	49.729	0	692.80	0	3.6490	0	34.2270	0	27.211	0	685.731	0	17.2	4	5.4	4	-1E+10	1	-1E+10	1	-1E+10	1	-1E+10	1	-1E+10	1	-1E+10	1
4902551	45	C	11/06/2021	17:01	-133.889	49.729	0	698.00	0	3.6420	0	34.2290	0	27.214	0	690.869	0	16.9	4	5.3	4	-1E+10	1	-1E+10	1	-1E+10	1	-1E+10	1	-1E+10	1	-1E+10	1
4902551	45	C	11/06/2021	17:01	-133.889	49.729	0	702.70	0	3.6300	0	34.2320	0	27.217	0	695.514	0	16.8	4	5.3	4	-1E+10	1	-1E+10	1	-1E+10	1	-1E+10	1	-1E+10	1	-1E+10	1
4902551	45	C	11/06/2021	17:01	-133.889	49.729	0	707.90	0	3.6260	0	34.2340	0	27.219	0	700.652	0	16.6	4	5.2	4	-1E+10	1	-1E+10	1	-1E+10	1	-1E+10	1	-1E+10	1	-1E+10	1
4902551	45	C	11/06/2021	17:01	-133.889	49.729	0	713.10	0	3.6160	0	34.2360	0	27.222	0	705.790	0	16.3	4	5.1	4	-1E+10	1	-1E+10	1	-1E+10	1	-1E+10	1	-1E+10	1	-1E+10	1
4902551	45	C	11/06/2021	17:01	-133.889	49.729	0	717.90	0	3.6010	0	34.2410	0	27.227	0	710.532	0	16.1	4	5.0	4	-1E+10	1	-1E+10	1	-1E+10	1	-1E+10	1	-1E+10	1	-1E+10	1
4902551	45	C	11/06/2021	17:01	-133.889	49.729	0	722.60	0	3.5850	0	34.2460	0	27.233	0	715.176	0	15.9	4	5.0	4	-1E+10	1	-1E+10	1	-1E+10	1	-1E+10	1	-1E+10	1	-1E+10	1
4902551	45	C	11/06/2021	17:01	-133.889	49.729	0	727.90	0	3.5750	0	34.2470	0	27.235	0	720.412	0	15.8	4	4.9	4	-1E+10	1	-1E+10	1	-1E+10	1	-1E+10	1	-1E+10	1	-1E+10	1
4902551	45	C	11/06/2021	17:01	-133.889	49.729	0	733.10	0	3.5670	0	34.2500	0	27.238	0	725.550	0	15.5	4	4.9	4	-1E+10	1	-1E+10	1	-1E+10	1	-1E+10	1	-1E+10	1	-1E+10	1
4902551	45	C	11/06/2021	17:01	-133.889	49.729	0	737.80	0	3.5600	0	34.2520	0	27.240	0	730.193	0	15.2	4	4.8	4	-1E+10	1	-1E+10	1	-1E+10	1	-1E+10	1	-1E+10	1	-1E+10	1
4902551	45	C	11/06/2021	17:01	-133.889	49.729	0	742.60	0	3.5540	0	34.2560	0	27.244	0	734.935	0	15.0	4	4.7	4	-1E+10	1	-1E+10	1	-1E+10	1	-1E+10	1	-1E+10	1	-1E+10	1
4902551	45	C	11/06/2021	17:01	-133.889	49.729	0	747.50	0	3.5510	0	34.2580	0	27.246	0	739.776	0	14.9	4	4.7	4	-1E+10	1	-1E+10	1	-1E+10	1	-1E+10	1	-1E+10	1	-1E+10	1
4902551	45	C	11/06/2021	17:01	-133.889	49.729	0	752.90	0	3.5480	0	34.2590	0	27.247	0	745.111	0	14.7	4	4.6	4	-1E+10	1	-1E+10	1	-1E+10	1	-1E+10	1	-1E+10	1	-1E+10	1
4902551	45	C	11/06/2021	17:01	-133.889	49.729	0	758.30	0	3.5410	0	34.2620	0	27.250	0	750.445	0	14.6	4	4.6	4	-1E+10	1	-1E+10	1	-1E+10	1	-1E+10	1	-1E+10	1	-1E+10	1
4902551	45	C	11/06/2021	17:01	-133.889	49.729	0	763.30	0	3.5340	0	34.2650	0	27.253	0	755.384	0	14.6	4	4.6	4	-1E+10	1	-1E+10	1	-1E+10	1	-1E+10	1	-1E+10	1	-1E+10	1
4902551	45	C	11/06/2021	17:01	-133.889	49.729	0	768.30	0	3.5250	0	34.2660	0	27.255	0	760.323	0	14.6	4	4.6	4	-1E+10	1	-1E+10	1	-1E+10	1	-1E+10	1	-1E+10	1	-1E+10	1
4902551	45	C	11/06/2021	17:01	-133.889	49.729	0	773.30	0	3.5070	0	34.2670	0	27.258	0	765.262	0	14.6	4	4.5	4	-1E+10	1	-1E+10	1	-1E+10	1	-1E+10	1	-1E+10	1	-1E+10	1
4902551	45	C	11/06/2021	17:01	-133.889	49.729	0	778.30	0	3.4810	0	34.2700	0	27.263	0	770.201	0	14.4	4	4.5	4	-1E+10	1	-1E+10	1	-1E+10	1	-1E+10	1	-1E+10	1	-1E+10	1
4902551	45	C	11/06/2021	17:01	-133.889	49.729	0	783.40	0	3.4670	0	34.2750	0	27.268	0	775.239	0	14.2	4	4.4	4	-1E+10	1	-1E+10	1	-1E+10	1	-1E+10	1	-1E+10	1	-1E+10	1
4902551	45	C	11/06/2021	17:01	-133.889	49.729	0	788.00	0	3.4590	0	34.2770	0	27.270	0	779.782	0	14.1	4	4.4	4	-1E+10	1	-1E+10	1	-1E+10	1	-1E+10	1	-1E+10	1	-1E+10	1
4902551	45	C	11/06/2021	17:01	-133.889	49.729	0	792.70	0	3.4560	0	34.2790	0	27.272	0	784.424	0	14.0	4	4.4	4	-1E+10	1	-1E+10	1	-1E+10	1	-1E+10	1	-1E+10	1	-1E+10	1
4902551	45	C	11/06/2021	17:01	-133.889	49.729	0	797.90	0	3.4540	0	34.2810	0	27.274	0	789.560	0	13.9	4	4.3	4	-1E+10	1	-1E+10	1	-1E+10	1	-1E+10	1	-1E+10	1	-1E+10	1
4902551	45	C	11/06/2021	17:01	-133.889	49.729	0	803.20	0	3.4440	0	34.2830	0	27.277	0	794.795	0	13.8	4	4.3	4	-1E+10	1	-1E+10	1	-1E+10	1	-1E+10	1	-1E+10	1	-1E+10	1
4902551	45	C	11/06/2021	17:01	-133.889	49.729	0	808.00	0	3.4380	0	34.2830	0	27.277	0	799.535	0	13.7	4	4.3	4	-1E+10	1	-1E+10	1	-1E+10	1	-1E+10	1	-1E+10	1	-1E+10	1
4902551	45	C	11/06/2021	17:01	-133.889	49.729	0	812.80	0	3.4370	0	34.2860	0	27.280	0	804.276	0	13.6	4	4.2	4	-1E+10	1	-1E+10	1	-1E+10	1	-1E+10	1	-1E+10	1	-1E+10	1
4902551	45	C	11/06/2021	17:01	-133.889	49.729	0	818.00	0	3.4280	0	34.2880	0	27.282	0	809.411	0	13.5	4	4.2	4	-1E+10	1	-1E+10	1	-1E+10	1	-1E+10	1	-1E+10	1	-1E+10	1
4902551	45	C	11/06/2021	17:01	-133.889	49.729	0	822.80	0	3.4210	0	34.2900	0	27.285	0	814.151	0	13.4	4	4.2	4	-1E+10	1	-1E+10	1	-1E+10	1	-1E+10	1	-1E+10	1	-1E+10	1
4902551	45	C	11/06/2021	17:01	-133.889	49.729	0	827.60	0	3.4200	0	34.2920	0	27.286	0	818.891	0	13.3	4	4.2	4	-1E+10	1	-1E+10	1	-1E+10	1	-1E+10	1	-1E+10	1	-1E+10	1
4902551	45	C	11/06/2021	17:01	-133.889	49.729	0	832.80	0	3.4100	0	34.2930	0	27.288	0	824.026	0	13.3	4	4.1	4	-1E+10	1	-1E+10	1	-1E+10	1	-1E+10	1	-1E+10	1	-1E+10	1
4902551	45	C	11/06/2021	17:01	-133.889	49.729	0	838.10	0	3.4040	0	34.2950	0	27.290	0	829.260	0	13.2	4	4.1	4	-1E+10	1	-1E+10	1	-1E+10	1	-1E+10	1	-1E+10	1	-1E+10	1
4902551	45	C	11/06/2021	17:01	-133.889	49.729	0	842.90	0	3.3990	0	34.2970	0	27.292	0	834.000	0	13.2	4	4.1	4	-1E+10	1	-1E+10	1	-1E+10	1	-1E+10	1	-1E+10	1	-1E+10	1
4902551	45	C	11/06/2021	17:01	-133.889	49.729	0	847.60	0	3.3870	0	34.2990	0	27.295	0	838.641	0	13.1	4	4.1	4	-1E+10	1	-1E+10	1	-1E+10	1	-1E+10	1	-1E+10	1	-1E+10	1
4902551	45	C	11/06/2021	17:01	-133.889	49.729	0	852.80	0	3.3820	0	34.3010	0	27.297	0	843.775	0	13.0	4	4.1	4	-1E+10	1	-1E+10	1	-1E+10	1	-1E+10	1	-1E+10	1	-1E+10	1
4902551	45	C	11/06/2021	17:01	-133.889	49.729	0	858.10	0	3.3770	0	34.3020	0	27.298	0	849.009	0	13.0	4	4.0	4	-1E+10	1	-1E+10	1	-1E+10	1	-1E+10	1	-1E+10	1	-1E+10	1
4902551	45	C	11/06/2021	17:01	-133.889	49.729	0	862.90	0	3.3730	0	34.3030	0	27.300	0	853.748	0	12.9	4	4.0	4	-1E+10	1	-1E+10	1	-1E+10	1	-1E+10	1	-1E+10	1	-1E+10	1
4902551	45	C	11/06/2021	17:01	-133.889	49.729	0	867.50	0	3.3570	0	34.3060	0	27.304	0	858.290	0	12.8	4	4.0	4	-1E+10	1	-1E+10	1	-1E+10	1	-1E+10	1	-1E+10	1	-1E+10	1
4902551	45	C	11/06/2021	17:01	-133.889	49.729	0	872.70	0	3.3450	0	34.3090	0	27.307	0	863.424	0	12.7	4	4.0	4	-1E+10	1	-1E+10	1	-1E+10	1	-1E+10	1	-1E+10	1	-1E+10	1
4902551	45	C	11/06/2021	17:01	-133.889	49.729	0	877.80	0	3.3330	0	34.3120	0	27.311	0	868.459	0	12.7	4	3.9	4	-1E+10	1	-1E+10	1	-1E+10	1	-1E+10	1	-1E+10	1	-1E+10	1
4902551	45	C	11/06/2021	17:01	-133.889	49.729	0	883.00	0	3.3240	0	34.3130	0	27.312	0	873.593	0	12.6	4	3.9	4	-1E+10	1	-1E+10	1	-1E+10	1	-1E+10	1	-1E+10	1	-1E+10	1
4902551	45	C	11/06/2021	17:01	-133.889	49.729	0	888.10	0	3.3140	0	34.3160	0	27.316	0	878.628	0	12.4	4	3.9	4	-1E+10	1	-1E+10	1	-1E+10	1	-1E+10	1	-1E+10	1	-1E+10	1
4902551	45	C	11/06/2021	17:01	-133.889	49.729	0	893.30	0	3.3120	0	34.3190	0	27.318	0	883.761	0	12.3	4	3.8	4	-1E+10	1	-1E+10	1	-1E+10	1	-1E+10	1	-1E+10	1	-1E+10	1
4902551	45	C	11/06/2021	17:01	-133.889	49.729	0	898.40	0	3.3050	0	34.3210	0	27.321	0	888.796	0	12.2	4	3.8	4	-1E+10	1	-1E+10	1	-1E+10	1	-1E+10	1	-1E+10	1	-1E+10	1
4902551	45	C	11/06/2021	17:01	-133.889	49.729	0	902.90	0	3.2980	0	34.3250	0	27.325	0	893.238	0	12.1	4	3.7	4	-1E+10	1	-1E+10	1	-1E+10	1	-1E+10	1	-1E+10	1	-1E+10	1
4902551	45	C	11/06/2021	17:01	-133.889	49.729	0	907.50	0	3.2940	0	34.3260	0	27.326	0	897.779	0	12.0	4	3.7	4	-1E+10	1	-1E+10	1	-1E+10	1	-1E+10	1	-1E+10	1	-1E+10	1
4902551	45	C	11/06/2021	17:01	-133.889	49.729	0	912.40	0	3.2830	0	34.3290	0	27.329	0	902.616	0	11.9	4	3.7	4	-1E+10	1	-1E+10	1	-1E+10	1	-1E+10	1	-1E+10	1	-1E+10	1
4902551	45	C	11/06/2021	17:01	-133.889	49.729	0	917.50	0	3.2750	0	34.3330	0	27.333	0	907.650	0	11.8	4	3.7	4	-1E+10	1	-1E+10	1	-1E+10	1	-1E+10	1	-1E+10	1	-1E+10	1
4902551	45	C	11/06/2021	17:01	-133.889	49.729	0	922.50	0	3.2720	0	34.3350	0	27.335	0	912.586	0	11.8	4	3.7	4	-1E+10	1	-1E+10	1	-1E+10	1	-1E+10	1	-1E+10	1	-1E+10	1
4902551	45	C	11/06/2021	17:01	-133.889	49.729	0	927.60	0	3.2590	0	34.3370	0	27.338	0	917.620	0	11.8	4	3.7	4	-1E+10	1	-1E+10	1	-1E+10	1	-1E+10	1	-1E+10	1	-1E+10	1
4902551	45	C	11/06/2021	17:01	-133.889	49.729	0	932.80	0	3.2550	0	34.3380	0	27.339	0	922.752	0	11.7	4	3.6	4	-1E+10	1	-1E+10	1	-1E+10	1	-1E+10	1	-1E+10	1	-1E+10	1
4902551	45	C	11/06/2021	17:01	-133.889	49.729	0	937.90	0	3.2460	0	34.3400	0	27.342	0	927.786	0	11.6	4	3.6	4	-1E+10	1	-1E+10	1	-1E+10	1	-1E+10	1	-1E+10	1	-1E+10	1
4902551	45	C	11/06/2021	17:01	-133.889	49.729	0	943.00	0	3.2400	0	34.3420	0	27.344	0	932.820	0	11.6	4	3.6	4	-1E+10	1	-1E+10	1	-1E+10	1	-1E+10	1	-1E+10	1	-1E+10	1
4902551	45	C	11/06/2021	17:01	-133.889	49.729	0	948.30	0	3.2270	0	34.3450	0	27.347	0	938.051	0	11.6	4	3.6	4	-1E+10	1	-1E+10	1	-1E+10	1	-1E+10	1	-1E+10	1	-1E+10	1
4902551	45	C	11/06/2021	17:01	-133.889	49.729	0	953.00	0	3.2140	0	34.3470	0	27.350	0	942.689	0	11.6	4	3.6	4	-1E+10	1	-1E+10	1	-1E+10	1	-1E+10	1	-1E+10	1	-1E+10	1
4902551	45	C	11/06/2021	17:01	-133.889	49.729	0	957.60	0	3.2010	0	34.3510	0	27.355	0	947.229	0	11.6	4	3.6	4	-1E+10	1	-1E+10	1	-1E+10	1	-1E+10	1	-1E+10	1	-1E+10	1
4902551	45	C	11/06/2021	17:01	-133.889	49.729	0	962.80	0	3.1850	0	34.3530	0	27.358	0	952.361	0	11.6	4	3.6	4	-1E+10	1	-1E+10	1	-1E+10	1	-1E+10	1	-1E+10	1	-1E+10	1
4902551	45	C	11/06/2021	17:01	-133.889	49.729	0	967.70	0	3.1770	0	34.3550	0	27.360	0	957.197	0	11.7	4	3.6	4	-1E+10	1	-1E+10	1	-1E+10	1	-1E+10	1	-1E+10	1	-1E+10	1
4902551	45	C	11/06/2021	17:01	-133.889	49.729	0	972.50	0	3.1700	0	34.3560	0	27.362	0	961.934	0	11.8	4	3.7	4	-1E+10	1	-1E+10	1	-1E+10	1	-1E+10	1	-1E+10	1	-1E+10	1
4902551	45	C	11/06/2021	17:01	-133.889	49.729	0	977.90	0	3.1580	0	34.3580	0	27.364	0	967.263	0	12.1	4	3.7	4	-1E+10	1	-1E+10	1	-1E+10	1	-1E+10	1	-1E+10	1	-1E+10	1
4902551	45	C	11/06/2021	17:01	-133.889	49.729	0	983.30	0	3.1150	0	34.3560	0	27.367	0	972.591	0	12.2	4	3.8	4	-1E+10	1	-1E+10	1	-1E+10	1	-1E+10	1	-1E+10	1	-1E+10	1
4902551	45	C	11/06/2021	17:01	-133.889	49.729	0	987.90	0	3.1010	0	34.3590	0	27.370	0	977.130	0	12.2	4	3.8	4	-1E+10	1	-1E+10	1	-1E+10	1	-1E+10	1	-1E+10	1	-1E+10	1
4902551	45	C	11/06/2021	17:01	-133.889	49.729	0	992.60	0	3.0930	0	34.3610	0	27.373	0	981.768	0	12.1	4	3.7	4	-1E+10	1	-1E+10	1	-1E+10	1	-1E+10	1	-1E+10	1	-1E+10	1
4902551	45	C	11/06/2021	17:01	-133.889	49.729	0	997.80	0	3.0900	0	34.3630	0	27.375	0	986.899	0	12.1	4	3.7	4	-1E+10	1	-1E+10	1	-1E+10	1	-1E+10	1	-1E+10	1	-1E+10	1
4902551	45	C	11/06/2021	17:01	-133.889	49.729	0	1005.30	0	3.0610	0	34.3660	0	27.380	0	994.299	0	12.3	4	3.8	4	-1E+10	1	-1E+10	1	-1E+10	1	-1E+10	1	-1E+10	1	-1E+10	1
4902551	45	C	11/06/2021	17:01	-133.889	49.729	0	1015.30	0	3.0390	0	34.3700	0	27.385	0	1004.166	0	12.4	4	3.8	4	-1E+10	1	-1E+10	1	-1E+10	1	-1E+10	1	-1E+10	1	-1E+10	1
4902551	45	C	11/06/2021	17:01	-133.889	49.729	0	1025.30	0	3.0220	0	34.3720	0	27.388	0	1014.032	0	12.4	4	3.8	4	-1E+10	1	-1E+10	1	-1E+10	1	-1E+10	1	-1E+10	1	-1E+10	1
4902551	45	C	11/06/2021	17:01	-133.889	49.729	0	1035.30	0	3.0140	0	34.3740	0	27.391	0	1023.898	0	12.5	4	3.9	4	-1E+10	1	-1E+10	1	-1E+10	1	-1E+10	1	-1E+10	1	-1E+10	1
4902551	45	C	11/06/2021	17:01	-133.889	49.729	0	1045.60	0	3.0030	0	34.3770	0	27.394	0	1034.059	0	12.4	4	3.8	4	-1E+10	1	-1E+10	1	-1E+10	1	-1E+10	1	-1E+10	1	-1E+10	1
4902551	45	C	11/06/2021	17:01	-133.889	49.729	0	1055.40	0	2.9860	0	34.3810	0	27.399	0	1043.727	0	12.4	4	3.8	4	-1E+10	1	-1E+10	1	-1E+10	1	-1E+10	1	-1E+10	1	-1E+10	1
4902551	45	C	11/06/2021	17:01	-133.889	49.729	0	1065.50	0	2.9690	0	34.3850	0	27.404	0	1053.690	0	12.4	4	3.8	4	-1E+10	1	-1E+10	1	-1E+10	1	-1E+10	1	-1E+10	1	-1E+10	1
4902551	45	C	11/06/2021	17:01	-133.889	49.729	0	1075.60	0	2.9480	0	34.3900	0	27.409	0	1063.652	0	12.4	4	3.8	4	-1E+10	1	-1E+10	1	-1E+10	1	-1E+10	1	-1E+10	1	-1E+10	1
4902551	45	C	11/06/2021	17:01	-133.889	49.729	0	1085.50	0	2.9420	0	34.3930	0	27.412	0	1073.417	0	12.4	4	3.8	4	-1E+10	1	-1E+10	1	-1E+10	1	-1E+10	1	-1E+10	1	-1E+10	1
4902551	45	C	11/06/2021	17:01	-133.889	49.729	0	1095.20	0	2.9320	0	34.3950	0	27.415	0	1082.984	0	12.4	4	3.8	4	-1E+10	1	-1E+10	1	-1E+10	1	-1E+10	1	-1E+10	1	-1E+10	1
4902551	45	C	11/06/2021	17:01	-133.889	49.729	0	1105.30	0	2.9160	0	34.3970	0	27.418	0	1092.945	0	12.5	4	3.8	4	-1E+10	1	-1E+10	1	-1E+10	1	-1E+10	1	-1E+10	1	-1E+10	1
4902551	45	C	11/06/2021	17:01	-133.889	49.729	0	1115.40	0	2.8980	0	34.4000	0	27.422	0	1102.905	0	12.6	4	3.9	4	-1E+10	1	-1E+10	1	-1E+10	1	-1E+10	1	-1E+10	1	-1E+10	1
4902551	45	C	11/06/2021	17:01	-133.889	49.729	0	1125.40	0	2.8860	0	34.4020	0	27.425	0	1112.767	0	12.6	4	3.9	4	-1E+10	1	-1E+10	1	-1E+10	1	-1E+10	1	-1E+10	1	-1E+10	1
4902551	45	C	11/06/2021	17:01	-133.889	49.729	0	1135.60	0	2.8730	0	34.4060	0	27.429	0	1122.825	0	12.6	4	3.9	4	-1E+10	1	-1E+10	1	-1E+10	1	-1E+10	1	-1E+10	1	-1E+10	1
4902551	45	C	11/06/2021	17:01	-133.889	49.729	0	1145.40	0	2.8590	0	34.4080	0	27.432	0	1132.489	0	12.7	4	3.9	4	-1E+10	1	-1E+10	1	-1E+10	1	-1E+10	1	-1E+10	1	-1E+10	1
4902551	45	C	11/06/2021	17:01	-133.889	49.729	0	1155.30	0	2.8470	0	34.4110	0	27.436	0	1142.250	0	12.8	4	3.9	4	-1E+10	1	-1E+10	1	-1E+10	1	-1E+10	1	-1E+10	1	-1E+10	1
4902551	45	C	11/06/2021	17:01	-133.889	49.729	0	1165.30	0	2.8340	0	34.4130	0	27.439	0	1152.110	0	12.9	4	4.0	4	-1E+10	1	-1E+10	1	-1E+10	1	-1E+10	1	-1E+10	1	-1E+10	1
4902551	45	C	11/06/2021	17:01	-133.889	49.729	0	1175.20	0	2.8230	0	34.4160	0	27.442	0	1161.870	0	13.0	4	4.0	4	-1E+10	1	-1E+10	1	-1E+10	1	-1E+10	1	-1E+10	1	-1E+10	1
4902551	45	C	11/06/2021	17:01	-133.889	49.729	0	1185.60	0	2.8030	0	34.4200	0	27.447	0	1172.123	0	13.1	4	4.0	4	-1E+10	1	-1E+10	1	-1E+10	1	-1E+10	1	-1E+10	1	-1E+10	1
4902551	45	C	11/06/2021	17:01	-133.889	49.729	0	1195.50	0	2.7950	0	34.4220	0	27.449	0	1181.883	0	13.2	4	4.0	4	-1E+10	1	-1E+10	1	-1E+10	1	-1E+10	1	-1E+10	1	-1E+10	1
4902551	45	C	11/06/2021	17:01	-133.889	49.729	0	1205.40	0	2.7890	0	34.4240	0	27.451	0	1191.642	0	13.3	4	4.1	4	-1E+10	1	-1E+10	1	-1E+10	1	-1E+10	1	-1E+10	1	-1E+10	1
4902551	45	C	11/06/2021	17:01	-133.889	49.729	0	1215.70	0	2.7780	0	34.4270	0	27.455	0	1201.795	0	13.4	4	4.1	4	-1E+10	1	-1E+10	1	-1E+10	1	-1E+10	1	-1E+10	1	-1E+10	1
4902551	45	C	11/06/2021	17:01	-133.889	49.729	0	1225.50	0	2.7670	0	34.4290	0	27.458	0	1211.455	0	13.5	4	4.1	4	-1E+10	1	-1E+10	1	-1E+10	1	-1E+10	1	-1E+10	1	-1E+10	1
4902551	45	C	11/06/2021	17:01	-133.889	49.729	0	1235.30	0	2.7550	0	34.4310	0	27.460	0	1221.114	0	13.7	4	4.2	4	-1E+10	1	-1E+10	1	-1E+10	1	-1E+10	1	-1E+10	1	-1E+10	1
4902551	45	C	11/06/2021	17:01	-133.889	49.729	0	1245.60	0	2.7400	0	34.4340	0	27.464	0	1231.266	0	13.8	4	4.2	4	-1E+10	1	-1E+10	1	-1E+10	1	-1E+10	1	-1E+10	1	-1E+10	1
4902551	45	C	11/06/2021	17:01	-133.889	49.729	0	1255.40	0	2.7270	0	34.4360	0	27.467	0	1240.924	0	14.0	4	4.3	4	-1E+10	1	-1E+10	1	-1E+10	1	-1E+10	1	-1E+10	1	-1E+10	1
4902551	45	C	11/06/2021	17:01	-133.889	49.729	0	1265.20	0	2.7160	0	34.4380	0	27.469	0	1250.582	0	14.2	4	4.4	4	-1E+10	1	-1E+10	1	-1E+10	1	-1E+10	1	-1E+10	1	-1E+10	1
4902551	45	C	11/06/2021	17:01	-133.889	49.729	0	1275.60	0	2.6900	0	34.4430	0	27.476	0	1260.831	0	14.5	4	4.5	4	-1E+10	1	-1E+10	1	-1E+10	1	-1E+10	1	-1E+10	1	-1E+10	1
4902551	45	C	11/06/2021	17:01	-133.889	49.729	0	1285.50	0	2.6740	0	34.4450	0	27.479	0	1270.586	0	14.8	4	4.5	4	-1E+10	1	-1E+10	1	-1E+10	1	-1E+10	1	-1E+10	1	-1E+10	1
4902551	45	C	11/06/2021	17:01	-133.889	49.729	0	1295.20	0	2.6580	0	34.4480	0	27.483	0	1280.144	0	15.0	4	4.6	4	-1E+10	1	-1E+10	1	-1E+10	1	-1E+10	1	-1E+10	1	-1E+10	1
4902551	45	C	11/06/2021	17:01	-133.889	49.729	0	1305.60	0	2.6420	0	34.4510	0	27.486	0	1290.391	0	15.3	4	4.7	4	-1E+10	1	-1E+10	1	-1E+10	1	-1E+10	1	-1E+10	1	-1E+10	1
4902551	45	C	11/06/2021	17:01	-133.889	49.729	0	1315.90	0	2.6280	0	34.4550	0	27.491	0	1300.540	0	15.6	4	4.8	4	-1E+10	1	-1E+10	1	-1E+10	1	-1E+10	1	-1E+10	1	-1E+10	1
4902551	45	C	11/06/2021	17:01	-133.889	49.729	0	1325.60	0	2.6200	0	34.4560	0	27.492	0	1310.096	0	15.9	4	4.9	4	-1E+10	1	-1E+10	1	-1E+10	1	-1E+10	1	-1E+10	1	-1E+10	1
4902551	45	C	11/06/2021	17:01	-133.889	49.729	0	1335.50	0	2.6020	0	34.4600	0	27.497	0	1319.850	0	16.3	4	5.0	4	-1E+10	1	-1E+10	1	-1E+10	1	-1E+10	1	-1E+10	1	-1E+10	1
4902551	45	C	11/06/2021	17:01	-133.889	49.729	0	1345.50	0	2.5880	0	34.4630	0	27.501	0	1329.701	0	16.7	4	5.1	4	-1E+10	1	-1E+10	1	-1E+10	1	-1E+10	1	-1E+10	1	-1E+10	1
4902551	45	C	11/06/2021	17:01	-133.889	49.729	0	1355.30	0	2.5730	0	34.4660	0	27.504	0	1339.355	0	17.0	4	5.2	4	-1E+10	1	-1E+10	1	-1E+10	1	-1E+10	1	-1E+10	1	-1E+10	1
4902551	45	C	11/06/2021	17:01	-133.889	49.729	0	1365.30	0	2.5620	0	34.4680	0	27.507	0	1349.205	0	17.3	4	5.3	4	-1E+10	1	-1E+10	1	-1E+10	1	-1E+10	1	-1E+10	1	-1E+10	1
4902551	45	C	11/06/2021	17:01	-133.889	49.729	0	1375.70	0	2.5470	0	34.4710	0	27.511	0	1359.449	0	17.7	4	5.4	4	-1E+10	1	-1E+10	1	-1E+10	1	-1E+10	1	-1E+10	1	-1E+10	1
4902551	45	C	11/06/2021	17:01	-133.889	49.729	0	1385.40	0	2.5370	0	34.4730	0	27.513	0	1369.003	0	18.0	4	5.5	4	-1E+10	1	-1E+10	1	-1E+10	1	-1E+10	1	-1E+10	1	-1E+10	1
4902551	45	C	11/06/2021	17:01	-133.889	49.729	0	1395.10	0	2.5250	0	34.4750	0	27.516	0	1378.556	0	18.4	4	5.6	4	-1E+10	1	-1E+10	1	-1E+10	1	-1E+10	1	-1E+10	1	-1E+10	1
4902551	45	C	11/06/2021	17:01	-133.889	49.729	0	1405.50	0	2.5160	0	34.4770	0	27.518	0	1388.799	0	18.8	4	5.7	4	-1E+10	1	-1E+10	1	-1E+10	1	-1E+10	1	-1E+10	1	-1E+10	1
4902551	45	C	11/06/2021	17:01	-133.889	49.729	0	1415.50	0	2.4940	0	34.4810	0	27.523	0	1398.647	0	19.4	4	5.9	4	-1E+10	1	-1E+10	1	-1E+10	1	-1E+10	1	-1E+10	1	-1E+10	1
4902551	45	C	11/06/2021	17:01	-133.889	49.729	0	1425.20	0	2.4830	0	34.4830	0	27.526	0	1408.199	0	19.8	4	6.0	4	-1E+10	1	-1E+10	1	-1E+10	1	-1E+10	1	-1E+10	1	-1E+10	1
4902551	45	C	11/06/2021	17:01	-133.889	49.729	0	1435.10	0	2.4710	0	34.4850	0	27.529	0	1417.948	0	20.4	4	6.2	4	-1E+10	1	-1E+10	1	-1E+10	1	-1E+10	1	-1E+10	1	-1E+10	1
4902551	45	C	11/06/2021	17:01	-133.889	49.729	0	1445.20	0	2.4520	0	34.4880	0	27.533	0	1427.893	0	21.1	4	6.4	4	-1E+10	1	-1E+10	1	-1E+10	1	-1E+10	1	-1E+10	1	-1E+10	1
4902551	45	C	11/06/2021	17:01	-133.889	49.729	0	1455.40	0	2.4310	0	34.4920	0	27.538	0	1437.936	0	21.9	4	6.7	4	-1E+10	1	-1E+10	1	-1E+10	1	-1E+10	1	-1E+10	1	-1E+10	1
4902551	45	C	11/06/2021	17:01	-133.889	49.729	0	1465.30	0	2.4090	0	34.4960	0	27.543	0	1447.683	0	22.6	4	6.9	4	-1E+10	1	-1E+10	1	-1E+10	1	-1E+10	1	-1E+10	1	-1E+10	1
4902551	45	C	11/06/2021	17:01	-133.889	49.729	0	1475.60	0	2.3910	0	34.4990	0	27.547	0	1457.824	0	23.2	4	7.1	4	-1E+10	1	-1E+10	1	-1E+10	1	-1E+10	1	-1E+10	1	-1E+10	1
4902551	45	C	11/06/2021	17:01	-133.889	49.729	0	1485.30	0	2.3770	0	34.5010	0	27.550	0	1467.374	0	23.9	4	7.3	4	-1E+10	1	-1E+10	1	-1E+10	1	-1E+10	1	-1E+10	1	-1E+10	1
4902551	45	C	11/06/2021	17:01	-133.889	49.729	0	1495.30	0	2.3580	0	34.5040	0	27.554	0	1477.218	0	24.7	4	7.5	4	-1E+10	1	-1E+10	1	-1E+10	1	-1E+10	1	-1E+10	1	-1E+10	1
4902551	45	C	11/06/2021	17:01	-133.889	49.729	0	1505.60	0	2.3380	0	34.5080	0	27.558	0	1487.357	0	25.3	4	7.7	4	-1E+10	1	-1E+10	1	-1E+10	1	-1E+10	1	-1E+10	1	-1E+10	1
4902551	45	C	11/06/2021	17:01	-133.889	49.729	0	1515.50	0	2.3230	0	34.5100	0	27.561	0	1497.102	0	25.9	4	7.9	4	-1E+10	1	-1E+10	1	-1E+10	1	-1E+10	1	-1E+10	1	-1E+10	1
4902551	45	C	11/06/2021	17:01	-133.889	49.729	0	1525.60	0	2.3050	0	34.5130	0	27.565	0	1507.043	0	26.4	4	8.0	4	-1E+10	1	-1E+10	1	-1E+10	1	-1E+10	1	-1E+10	1	-1E+10	1
4902551	45	C	11/06/2021	17:01	-133.889	49.729	0	1535.50	0	2.2950	0	34.5150	0	27.568	0	1516.788	0	26.9	4	8.2	4	-1E+10	1	-1E+10	1	-1E+10	1	-1E+10	1	-1E+10	1	-1E+10	1
4902551	45	C	11/06/2021	17:01	-133.889	49.729	0	1545.40	0	2.2820	0	34.5170	0	27.570	0	1526.531	0	27.3	4	8.3	4	-1E+10	1	-1E+10	1	-1E+10	1	-1E+10	1	-1E+10	1	-1E+10	1
4902551	45	C	11/06/2021	17:01	-133.889	49.729	0	1555.50	0	2.2740	0	34.5190	0	27.573	0	1536.471	0	27.8	4	8.4	4	-1E+10	1	-1E+10	1	-1E+10	1	-1E+10	1	-1E+10	1	-1E+10	1
4902551	45	C	11/06/2021	17:01	-133.889	49.729	0	1565.30	0	2.2640	0	34.5200	0	27.574	0	1546.116	0	28.4	4	8.6	4	-1E+10	1	-1E+10	1	-1E+10	1	-1E+10	1	-1E+10	1	-1E+10	1
4902551	45	C	11/06/2021	17:01	-133.889	49.729	0	1575.00	0	2.2530	0	34.5230	0	27.578	0	1555.661	0	29.0	4	8.8	4	-1E+10	1	-1E+10	1	-1E+10	1	-1E+10	1	-1E+10	1	-1E+10	1
4902551	45	C	11/06/2021	17:01	-133.889	49.729	0	1585.00	0	2.2430	0	34.5240	0	27.579	0	1565.501	0	29.5	4	8.9	4	-1E+10	1	-1E+10	1	-1E+10	1	-1E+10	1	-1E+10	1	-1E+10	1
4902551	45	C	11/06/2021	17:01	-133.889	49.729	0	1595.00	0	2.2340	0	34.5260	0	27.582	0	1575.341	0	30.1	4	9.1	4	-1E+10	1	-1E+10	1	-1E+10	1	-1E+10	1	-1E+10	1	-1E+10	1
4902551	45	C	11/06/2021	17:01	-133.889	49.729	0	1605.40	0	2.2210	0	34.5280	0	27.584	0	1585.574	0	30.7	4	9.3	4	-1E+10	1	-1E+10	1	-1E+10	1	-1E+10	1	-1E+10	1	-1E+10	1
4902551	45	C	11/06/2021	17:01	-133.889	49.729	0	1615.40	0	2.2110	0	34.5300	0	27.587	0	1595.413	0	31.3	4	9.5	4	-1E+10	1	-1E+10	1	-1E+10	1	-1E+10	1	-1E+10	1	-1E+10	1
4902551	45	C	11/06/2021	17:01	-133.889	49.729	0	1625.00	0	2.2010	0	34.5320	0	27.589	0	1604.858	0	31.8	4	9.6	4	-1E+10	1	-1E+10	1	-1E+10	1	-1E+10	1	-1E+10	1	-1E+10	1
4902551	45	C	11/06/2021	17:01	-133.889	49.729	0	1635.10	0	2.1930	0	34.5330	0	27.591	0	1614.794	0	32.4	4	9.8	4	-1E+10	1	-1E+10	1	-1E+10	1	-1E+10	1	-1E+10	1	-1E+10	1
4902551	45	C	11/06/2021	17:01	-133.889	49.729	0	1645.70	0	2.1800	0	34.5360	0	27.594	0	1625.222	0	33.1	4	10.0	4	-1E+10	1	-1E+10	1	-1E+10	1	-1E+10	1	-1E+10	1	-1E+10	1
4902551	45	C	11/06/2021	17:01	-133.889	49.729	0	1655.60	0	2.1690	0	34.5380	0	27.597	0	1634.960	0	33.6	4	10.2	4	-1E+10	1	-1E+10	1	-1E+10	1	-1E+10	1	-1E+10	1	-1E+10	1
4902551	45	C	11/06/2021	17:01	-133.889	49.729	0	1665.30	0	2.1610	0	34.5390	0	27.598	0	1644.502	0	34.0	4	10.3	4	-1E+10	1	-1E+10	1	-1E+10	1	-1E+10	1	-1E+10	1	-1E+10	1
4902551	45	C	11/06/2021	17:01	-133.889	49.729	0	1675.30	0	2.1570	0	34.5400	0	27.600	0	1654.338	0	34.2	4	10.4	4	-1E+10	1	-1E+10	1	-1E+10	1	-1E+10	1	-1E+10	1	-1E+10	1
4902551	45	C	11/06/2021	17:01	-133.889	49.729	0	1685.20	0	2.1540	0	34.5410	0	27.601	0	1664.075	0	34.6	4	10.5	4	-1E+10	1	-1E+10	1	-1E+10	1	-1E+10	1	-1E+10	1	-1E+10	1
4902551	45	C	11/06/2021	17:01	-133.889	49.729	0	1695.40	0	2.1490	0	34.5420	0	27.602	0	1674.107	0	35.0	4	10.6	4	-1E+10	1	-1E+10	1	-1E+10	1	-1E+10	1	-1E+10	1	-1E+10	1
4902551	45	C	11/06/2021	17:01	-133.889	49.729	0	1705.50	0	2.1420	0	34.5430	0	27.603	0	1684.040	0	35.4	4	10.7	4	-1E+10	1	-1E+10	1	-1E+10	1	-1E+10	1	-1E+10	1	-1E+10	1
4902551	45	C	11/06/2021	17:01	-133.889	49.729	0	1715.50	0	2.1350	0	34.5440	0	27.605	0	1693.875	0	35.9	4	10.9	4	-1E+10	1	-1E+10	1	-1E+10	1	-1E+10	1	-1E+10	1	-1E+10	1
4902551	45	C	11/06/2021	17:01	-133.889	49.729	0	1725.60	0	2.1270	0	34.5460	0	27.607	0	1703.807	0	36.4	4	11.0	4	-1E+10	1	-1E+10	1	-1E+10	1	-1E+10	1	-1E+10	1	-1E+10	1
4902551	45	C	11/06/2021	17:01	-133.889	49.729	0	1735.30	0	2.1230	0	34.5470	0	27.608	0	1713.345	0	36.9	4	11.2	4	-1E+10	1	-1E+10	1	-1E+10	1	-1E+10	1	-1E+10	1	-1E+10	1
4902551	45	C	11/06/2021	17:01	-133.889	49.729	0	1745.50	0	2.1160	0	34.5480	0	27.610	0	1723.375	0	37.6	4	11.4	4	-1E+10	1	-1E+10	1	-1E+10	1	-1E+10	1	-1E+10	1	-1E+10	1
4902551	45	C	11/06/2021	17:01	-133.889	49.729	0	1755.70	0	2.1040	0	34.5510	0	27.613	0	1733.404	0	38.4	4	11.6	4	-1E+10	1	-1E+10	1	-1E+10	1	-1E+10	1	-1E+10	1	-1E+10	1
4902551	45	C	11/06/2021	17:01	-133.889	49.729	0	1765.50	0	2.0960	0	34.5520	0	27.615	0	1743.039	0	39.0	4	11.8	4	-1E+10	1	-1E+10	1	-1E+10	1	-1E+10	1	-1E+10	1	-1E+10	1
4902551	45	C	11/06/2021	17:01	-133.889	49.729	0	1775.50	0	2.0860	0	34.5540	0	27.617	0	1752.870	0	39.5	4	11.9	4	-1E+10	1	-1E+10	1	-1E+10	1	-1E+10	1	-1E+10	1	-1E+10	1
4902551	45	C	11/06/2021	17:01	-133.889	49.729	0	1785.60	0	2.0800	0	34.5550	0	27.618	0	1762.800	0	39.9	4	12.1	4	-1E+10	1	-1E+10	1	-1E+10	1	-1E+10	1	-1E+10	1	-1E+10	1
4902551	45	C	11/06/2021	17:01	-133.889	49.729	0	1795.60	0	2.0760	0	34.5560	0	27.619	0	1772.630	0	40.5	4	12.2	4	-1E+10	1	-1E+10	1	-1E+10	1	-1E+10	1	-1E+10	1	-1E+10	1
4902551	45	C	11/06/2021	17:01	-133.889	49.729	0	1805.60	0	2.0670	0	34.5580	0	27.622	0	1782.461	0	41.1	4	12.4	4	-1E+10	1	-1E+10	1	-1E+10	1	-1E+10	1	-1E+10	1	-1E+10	1
4902551	45	C	11/06/2021	17:01	-133.889	49.729	0	1815.50	0	2.0610	0	34.5590	0	27.623	0	1792.192	0	41.5	4	12.5	4	-1E+10	1	-1E+10	1	-1E+10	1	-1E+10	1	-1E+10	1	-1E+10	1
4902551	45	C	11/06/2021	17:01	-133.889	49.729	0	1825.40	0	2.0540	0	34.5600	0	27.625	0	1801.923	0	42.1	4	12.7	4	-1E+10	1	-1E+10	1	-1E+10	1	-1E+10	1	-1E+10	1	-1E+10	1
4902551	45	C	11/06/2021	17:01	-133.889	49.729	0	1835.40	0	2.0480	0	34.5620	0	27.627	0	1811.752	0	42.5	4	12.8	4	-1E+10	1	-1E+10	1	-1E+10	1	-1E+10	1	-1E+10	1	-1E+10	1
4902551	45	C	11/06/2021	17:01	-133.889	49.729	0	1845.40	0	2.0460	0	34.5620	0	27.627	0	1821.580	0	43.0	4	13.0	4	-1E+10	1	-1E+10	1	-1E+10	1	-1E+10	1	-1E+10	1	-1E+10	1
4902551	45	C	11/06/2021	17:01	-133.889	49.729	0	1855.20	0	2.0370	0	34.5640	0	27.629	0	1831.211	0	43.7	4	13.2	4	-1E+10	1	-1E+10	1	-1E+10	1	-1E+10	1	-1E+10	1	-1E+10	1
4902551	45	C	11/06/2021	17:01	-133.889	49.729	0	1865.10	0	2.0290	0	34.5650	0	27.631	0	1840.941	0	44.3	4	13.4	4	-1E+10	1	-1E+10	1	-1E+10	1	-1E+10	1	-1E+10	1	-1E+10	1
4902551	45	C	11/06/2021	17:01	-133.889	49.729	0	1875.20	0	2.0240	0	34.5670	0	27.633	0	1850.866	0	45.0	4	13.6	4	-1E+10	1	-1E+10	1	-1E+10	1	-1E+10	1	-1E+10	1	-1E+10	1
4902551	45	C	11/06/2021	17:01	-133.889	49.729	0	1885.30	0	2.0160	0	34.5690	0	27.635	0	1860.791	0	45.8	4	13.8	4	-1E+10	1	-1E+10	1	-1E+10	1	-1E+10	1	-1E+10	1	-1E+10	1
4902551	45	C	11/06/2021	17:01	-133.889	49.729	0	1895.20	0	2.0070	0	34.5700	0	27.637	0	1870.518	0	46.4	4	14.0	4	-1E+10	1	-1E+10	1	-1E+10	1	-1E+10	1	-1E+10	1	-1E+10	1
4902551	45	C	11/06/2021	17:01	-133.889	49.729	0	1905.10	0	2.0020	0	34.5710	0	27.638	0	1880.246	0	47.0	4	14.2	4	-1E+10	1	-1E+10	1	-1E+10	1	-1E+10	1	-1E+10	1	-1E+10	1
4902551	45	C	11/06/2021	17:01	-133.889	49.729	0	1915.10	0	1.9920	0	34.5730	0	27.640	0	1890.071	0	47.8	4	14.4	4	-1E+10	1	-1E+10	1	-1E+10	1	-1E+10	1	-1E+10	1	-1E+10	1
4902551	45	C	11/06/2021	17:01	-133.889	49.729	0	1925.10	0	1.9820	0	34.5750	0	27.643	0	1899.896	0	48.7	4	14.7	4	-1E+10	1	-1E+10	1	-1E+10	1	-1E+10	1	-1E+10	1	-1E+10	1
4902551	45	C	11/06/2021	17:01	-133.889	49.729	0	1935.20	0	1.9740	0	34.5770	0	27.645	0	1909.818	0	49.4	4	14.9	4	-1E+10	1	-1E+10	1	-1E+10	1	-1E+10	1	-1E+10	1	-1E+10	1
4902551	45	C	11/06/2021	17:01	-133.889	49.729	0	1945.60	0	1.9670	0	34.5790	0	27.647	0	1920.035	0	50.0	4	15.1	4	-1E+10	1	-1E+10	1	-1E+10	1	-1E+10	1	-1E+10	1	-1E+10	1
4902551	45	C	11/06/2021	17:01	-133.889	49.729	0	1955.70	0	1.9600	0	34.5800	0	27.649	0	1929.956	0	50.8	4	15.3	4	-1E+10	1	-1E+10	1	-1E+10	1	-1E+10	1	-1E+10	1	-1E+10	1
4902551	45	C	11/06/2021	17:01	-133.889	49.729	0	1965.30	0	1.9500	0	34.5820	0	27.651	0	1939.386	0	51.5	4	15.5	4	-1E+10	1	-1E+10	1	-1E+10	1	-1E+10	1	-1E+10	1	-1E+10	1
4902551	45	C	11/06/2021	17:01	-133.889	49.729	0	1975.40	0	1.9410	0	34.5830	0	27.653	0	1949.307	0	52.3	4	15.7	4	-1E+10	1	-1E+10	1	-1E+10	1	-1E+10	1	-1E+10	1	-1E+10	1
4902551	45	C	11/06/2021	17:01	-133.889	49.729	0	1985.20	0	1.9320	0	34.5850	0	27.655	0	1958.932	0	53.1	4	16.0	4	-1E+10	1	-1E+10	1	-1E+10	1	-1E+10	1	-1E+10	1	-1E+10	1
4902551	45	C	11/06/2021	17:01	-133.889	49.729	0	1995.10	0	1.9250	0	34.5860	0	27.656	0	1968.656	0	53.9	4	16.2	4	-1E+10	1	-1E+10	1	-1E+10	1	-1E+10	1	-1E+10	1	-1E+10	1
4902551	45	C	11/06/2021	17:01	-133.889	49.729	0	2005.20	0	1.9130	0	34.5880	0	27.659	0	1978.575	0	54.8	4	16.5	4	-1E+10	1	-1E+10	1	-1E+10	1	-1E+10	1	-1E+10	1	-1E+10	1
4902551	45	C	11/06/2021	17:01	-133.889	49.729	0	2015.20	0	1.9050	0	34.5900	0	27.661	0	1988.396	0	55.4	4	16.7	4	-1E+10	1	-1E+10	1	-1E+10	1	-1E+10	1	-1E+10	1	-1E+10	1
4902551	45	C	11/06/2021	17:01	-133.889	49.729	0	2025.90	0	1.8990	0	34.5910	0	27.662	0	1998.903	0	55.3	4	16.6	4	-1E+10	1	-1E+10	1	-1E+10	1	-1E+10	1	-1E+10	1	-1E+10	1
4902551	45	C	11/06/2021	17:01	-133.889	49.729	0	2031.40	0	1.8960	0	34.5920	0	27.664	0	2004.304	0	54.7	4	16.4	4	-1E+10	1	-1E+10	1	-1E+10	1	-1E+10	1	-1E+10	1	-1E+10	1
4902551	45	C	11/06/2021	17:01	-133.889	49.729	0																										
4902551	46	C	11/16/2021	22:04	-133.772	49.709	0	0.90	0	9.3430	0	32.2200	0	24.889	0	0.892	0	265.7	4	93.5	4	-1E+10	1	-1E+10	1	-1E+10	1	-1E+10	1	-1E+10	1	-1E+10	1
4902551	46	C	11/16/2021	22:04	-133.772	49.709	0	1.90	0	9.3420	0	32.2200	0	24.889	0	1.884	0	265.7	4	93.5	4	-1E+10	1	-1E+10	1	-1E+10	1	-1E+10	1	-1E+10	1	-1E+10	1
4902551	46	C	11/16/2021	22:04	-133.772	49.709	0	2.80	0	9.3420	0	32.2200	0	24.889	0	2.776	0	265.7	4	93.5	4	-1E+10	1	-1E+10	1	-1E+10	1	-1E+10	1	-1E+10	1	-1E+10	1
4902551	46	C	11/16/2021	22:04	-133.772	49.709	0	3.90	0	9.3410	0	32.2200	0	24.889	0	3.867	0	265.7	4	93.5	4	-1E+10	1	-1E+10	1	-1E+10	1	-1E+10	1	-1E+10	1	-1E+10	1
4902551	46	C	11/16/2021	22:04	-133.772	49.709	0	5.10	0	9.3390	0	32.2230	0	24.892	0	5.056	0	265.5	4	93.4	4	-1E+10	1	-1E+10	1	-1E+10	1	-1E+10	1	-1E+10	1	-1E+10	1
4902551	46	C	11/16/2021	22:04	-133.772	49.709	0	6.10	0	9.3390	0	32.2220	0	24.891	0	6.048	0	265.5	4	93.4	4	-1E+10	1	-1E+10	1	-1E+10	1	-1E+10	1	-1E+10	1	-1E+10	1
4902551	46	C	11/16/2021	22:04	-133.772	49.709	0	7.10	0	9.3390	0	32.2220	0	24.891	0	7.039	0	265.5	4	93.4	4	-1E+10	1	-1E+10	1	-1E+10	1	-1E+10	1	-1E+10	1	-1E+10	1
4902551	46	C	11/16/2021	22:04	-133.772	49.709	0	7.80	0	9.3380	0	32.2220	0	24.891	0	7.733	0	265.5	4	93.4	4	-1E+10	1	-1E+10	1	-1E+10	1	-1E+10	1	-1E+10	1	-1E+10	1
4902551	46	C	11/16/2021	22:04	-133.772	49.709	0	9.00	0	9.3390	0	32.2220	0	24.891	0	8.923	0	265.4	4	93.4	4	-1E+10	1	-1E+10	1	-1E+10	1	-1E+10	1	-1E+10	1	-1E+10	1
4902551	46	C	11/16/2021	22:04	-133.772	49.709	0	10.00	0	9.3380	0	32.2220	0	24.891	0	9.914	0	265.3	4	93.3	4	-1E+10	1	-1E+10	1	-1E+10	1	-1E+10	1	-1E+10	1	-1E+10	1
4902551	46	C	11/16/2021	22:04	-133.772	49.709	0	11.00	0	9.3380	0	32.2220	0	24.891	0	10.906	0	265.3	4	93.4	4	-1E+10	1	-1E+10	1	-1E+10	1	-1E+10	1	-1E+10	1	-1E+10	1
4902551	46	C	11/16/2021	22:04	-133.772	49.709	0	12.00	0	9.3360	0	32.2220	0	24.891	0	11.897	0	265.2	4	93.3	4	-1E+10	1	-1E+10	1	-1E+10	1	-1E+10	1	-1E+10	1	-1E+10	1
4902551	46	C	11/16/2021	22:04	-133.772	49.709	0	13.10	0	9.3350	0	32.2220	0	24.892	0	12.988	0	265.2	4	93.3	4	-1E+10	1	-1E+10	1	-1E+10	1	-1E+10	1	-1E+10	1	-1E+10	1
4902551	46	C	11/16/2021	22:04	-133.772	49.709	0	14.00	0	9.3360	0	32.2230	0	24.892	0	13.880	0	265.2	4	93.3	4	-1E+10	1	-1E+10	1	-1E+10	1	-1E+10	1	-1E+10	1	-1E+10	1
4902551	46	C	11/16/2021	22:04	-133.772	49.709	0	14.80	0	9.3350	0	32.2220	0	24.892	0	14.673	0	265.1	4	93.3	4	-1E+10	1	-1E+10	1	-1E+10	1	-1E+10	1	-1E+10	1	-1E+10	1
4902551	46	C	11/16/2021	22:04	-133.772	49.709	0	15.90	0	9.3350	0	32.2220	0	24.892	0	15.764	0	265.1	4	93.3	4	-1E+10	1	-1E+10	1	-1E+10	1	-1E+10	1	-1E+10	1	-1E+10	1
4902551	46	C	11/16/2021	22:04	-133.772	49.709	0	17.00	0	9.3350	0	32.2220	0	24.892	0	16.854	0	265.0	4	93.2	4	-1E+10	1	-1E+10	1	-1E+10	1	-1E+10	1	-1E+10	1	-1E+10	1
4902551	46	C	11/16/2021	22:04	-133.772	49.709	0	18.10	0	9.3350	0	32.2220	0	24.892	0	17.945	0	265.1	4	93.3	4	-1E+10	1	-1E+10	1	-1E+10	1	-1E+10	1	-1E+10	1	-1E+10	1
4902551	46	C	11/16/2021	22:04	-133.772	49.709	0	19.00	0	9.3360	0	32.2220	0	24.892	0	18.837	0	265.1	4	93.3	4	-1E+10	1	-1E+10	1	-1E+10	1	-1E+10	1	-1E+10	1	-1E+10	1
4902551	46	C	11/16/2021	22:04	-133.772	49.709	0	19.80	0	9.3360	0	32.2210	0	24.891	0	19.630	0	265.0	4	93.2	4	-1E+10	1	-1E+10	1	-1E+10	1	-1E+10	1	-1E+10	1	-1E+10	1
4902551	46	C	11/16/2021	22:04	-133.772	49.709	0	21.00	0	9.3360	0	32.2220	0	24.892	0	20.819	0	264.9	4	93.2	4	-1E+10	1	-1E+10	1	-1E+10	1	-1E+10	1	-1E+10	1	-1E+10	1
4902551	46	C	11/16/2021	22:04	-133.772	49.709	0	22.00	0	9.3360	0	32.2220	0	24.892	0	21.811	0	265.0	4	93.2	4	-1E+10	1	-1E+10	1	-1E+10	1	-1E+10	1	-1E+10	1	-1E+10	1
4902551	46	C	11/16/2021	22:04	-133.772	49.709	0	22.70	0	9.3360	0	32.2230	0	24.892	0	22.505	0	264.9	4	93.2	4	-1E+10	1	-1E+10	1	-1E+10	1	-1E+10	1	-1E+10	1	-1E+10	1
4902551	46	C	11/16/2021	22:04	-133.772	49.709	0	23.80	0	9.3360	0	32.2230	0	24.892	0	23.595	0	264.8	4	93.2	4	-1E+10	1	-1E+10	1	-1E+10	1	-1E+10	1	-1E+10	1	-1E+10	1
4902551	46	C	11/16/2021	22:04	-133.772	49.709	0	24.90	0	9.3360	0	32.2220	0	24.892	0	24.686	0	264.9	4	93.2	4	-1E+10	1	-1E+10	1	-1E+10	1	-1E+10	1	-1E+10	1	-1E+10	1
4902551	46	C	11/16/2021	22:04	-133.772	49.709	0	25.90	0	9.3360	0	32.2220	0	24.892	0	25.677	0	264.8	4	93.2	4	-1E+10	1	-1E+10	1	-1E+10	1	-1E+10	1	-1E+10	1	-1E+10	1
4902551	46	C	11/16/2021	22:04	-133.772	49.709	0	26.90	0	9.3370	0	32.2220	0	24.892	0	26.668	0	264.7	4	93.1	4	-1E+10	1	-1E+10	1	-1E+10	1	-1E+10	1	-1E+10	1	-1E+10	1
4902551	46	C	11/16/2021	22:04	-133.772	49.709	0	27.80	0	9.3360	0	32.2230	0	24.892	0	27.561	0	264.8	4	93.2	4	-1E+10	1	-1E+10	1	-1E+10	1	-1E+10	1	-1E+10	1	-1E+10	1
4902551	46	C	11/16/2021	22:04	-133.772	49.709	0	29.00	0	9.3360	0	32.2220	0	24.892	0	28.750	0	264.8	4	93.2	4	-1E+10	1	-1E+10	1	-1E+10	1	-1E+10	1	-1E+10	1	-1E+10	1
4902551	46	C	11/16/2021	22:04	-133.772	49.709	0	30.00	0	9.3360	0	32.2230	0	24.893	0	29.741	0	264.8	4	93.2	4	-1E+10	1	-1E+10	1	-1E+10	1	-1E+10	1	-1E+10	1	-1E+10	1
4902551	46	C	11/16/2021	22:04	-133.772	49.709	0	31.00	0	9.3360	0	32.2230	0	24.893	0	30.733	0	264.7	4	93.1	4	-1E+10	1	-1E+10	1	-1E+10	1	-1E+10	1	-1E+10	1	-1E+10	1
4902551	46	C	11/16/2021	22:04	-133.772	49.709	0	32.10	0	9.3370	0	32.2230	0	24.892	0	31.823	0	264.8	4	93.2	4	-1E+10	1	-1E+10	1	-1E+10	1	-1E+10	1	-1E+10	1	-1E+10	1
4902551	46	C	11/16/2021	22:04	-133.772	49.709	0	32.80	0	9.3370	0	32.2230	0	24.892	0	32.517	0	264.8	4	93.2	4	-1E+10	1	-1E+10	1	-1E+10	1	-1E+10	1	-1E+10	1	-1E+10	1
4902551	46	C	11/16/2021	22:04	-133.772	49.709	0	33.80	0	9.3370	0	32.2230	0	24.892	0	33.508	0	264.7	4	93.1	4	-1E+10	1	-1E+10	1	-1E+10	1	-1E+10	1	-1E+10	1	-1E+10	1
4902551	46	C	11/16/2021	22:04	-133.772	49.709	0	35.00	0	9.3370	0	32.2230	0	24.892	0	34.698	0	264.7	4	93.1	4	-1E+10	1	-1E+10	1	-1E+10	1	-1E+10	1	-1E+10	1	-1E+10	1
4902551	46	C	11/16/2021	22:04	-133.772	49.709	0	36.00	0	9.3380	0	32.2230	0	24.892	0	35.689	0	264.7	4	93.1	4	-1E+10	1	-1E+10	1	-1E+10	1	-1E+10	1	-1E+10	1	-1E+10	1
4902551	46	C	11/16/2021	22:04	-133.772	49.709	0	37.00	0	9.3380	0	32.2220	0	24.892	0	36.680	0	264.6	4	93.1	4	-1E+10	1	-1E+10	1	-1E+10	1	-1E+10	1	-1E+10	1	-1E+10	1
4902551	46	C	11/16/2021	22:04	-133.772	49.709	0	37.90	0	9.3380	0	32.2220	0	24.892	0	37.573	0	264.5	4	93.1	4	-1E+10	1	-1E+10	1	-1E+10	1	-1E+10	1	-1E+10	1	-1E+10	1
4902551	46	C	11/16/2021	22:04	-133.772	49.709	0	39.00	0	9.3380	0	32.2220	0	24.892	0	38.663	0	264.5	4	93.1	4	-1E+10	1	-1E+10	1	-1E+10	1	-1E+10	1	-1E+10	1	-1E+10	1
4902551	46	C	11/16/2021	22:04	-133.772	49.709	0	40.10	0	9.3380	0	32.2220	0	24.892	0	39.753	0	264.4	4	93.0	4	-1E+10	1	-1E+10	1	-1E+10	1	-1E+10	1	-1E+10	1	-1E+10	1
4902551	46	C	11/16/2021	22:04	-133.772	49.709	0	41.00	0	9.3380	0	32.2230	0	24.892	0	40.646	0	264.2	4	92.9	4	-1E+10	1	-1E+10	1	-1E+10	1	-1E+10	1	-1E+10	1	-1E+10	1
4902551	46	C	11/16/2021	22:04	-133.772	49.709	0	41.90	0	9.3380	0	32.2230	0	24.892	0	41.538	0	264.2	4	92.9	4	-1E+10	1	-1E+10	1	-1E+10	1	-1E+10	1	-1E+10	1	-1E+10	1
4902551	46	C	11/16/2021	22:04	-133.772	49.709	0	43.10	0	9.3390	0	32.2240	0	24.893	0	42.727	0	264.0	4	92.9	4	-1E+10	1	-1E+10	1	-1E+10	1	-1E+10	1	-1E+10	1	-1E+10	1
4902551	46	C	11/16/2021	22:04	-133.772	49.709	0	44.00	0	9.3390	0	32.2240	0	24.893	0	43.619	0	264.0	4	92.9	4	-1E+10	1	-1E+10	1	-1E+10	1	-1E+10	1	-1E+10	1	-1E+10	1
4902551	46	C	11/16/2021	22:04	-133.772	49.709	0	44.90	0	9.3410	0	32.2250	0	24.894	0	44.511	0	264.0	4	92.9	4	-1E+10	1	-1E+10	1	-1E+10	1	-1E+10	1	-1E+10	1	-1E+10	1
4902551	46	C	11/16/2021	22:04	-133.772	49.709	0	45.80	0	9.3420	0	32.2260	0	24.894	0	45.404	0	263.8	4	92.8	4	-1E+10	1	-1E+10	1	-1E+10	1	-1E+10	1	-1E+10	1	-1E+10	1
4902551	46	C	11/16/2021	22:04	-133.772	49.709	0	46.80	0	9.3430	0	32.2250	0	24.893	0	46.395	0	263.8	4	92.8	4	-1E+10	1	-1E+10	1	-1E+10	1	-1E+10	1	-1E+10	1	-1E+10	1
4902551	46	C	11/16/2021	22:04	-133.772	49.709	0	48.00	0	9.3440	0	32.2250	0	24.893	0	47.584	0	263.8	4	92.8	4	-1E+10	1	-1E+10	1	-1E+10	1	-1E+10	1	-1E+10	1	-1E+10	1
4902551	46	C	11/16/2021	22:04	-133.772	49.709	0	48.90	0	9.3440	0	32.2270	0	24.895	0	48.476	0	263.7	4	92.8	4	-1E+10	1	-1E+10	1	-1E+10	1	-1E+10	1	-1E+10	1	-1E+10	1
4902551	46	C	11/16/2021	22:04	-133.772	49.709	0	49.90	0	9.3440	0	32.2270	0	24.895	0	49.468	0	263.7	4	92.8	4	-1E+10	1	-1E+10	1	-1E+10	1	-1E+10	1	-1E+10	1	-1E+10	1
4902551	46	C	11/16/2021	22:04	-133.772	49.709	0	50.80	0	9.3430	0	32.2270	0	24.895	0	50.360	0	263.7	4	92.8	4	-1E+10	1	-1E+10	1	-1E+10	1	-1E+10	1	-1E+10	1	-1E+10	1
4902551	46	C	11/16/2021	22:04	-133.772	49.709	0	51.80	0	9.3430	0	32.2270	0	24.895	0	51.351	0	263.7	4	92.8	4	-1E+10	1	-1E+10	1	-1E+10	1	-1E+10	1	-1E+10	1	-1E+10	1
4902551	46	C	11/16/2021	22:04	-133.772	49.709	0	53.10	0	9.3430	0	32.2280	0	24.896	0	52.639	0	263.5	4	92.7	4	-1E+10	1	-1E+10	1	-1E+10	1	-1E+10	1	-1E+10	1	-1E+10	1
4902551	46	C	11/16/2021	22:04	-133.772	49.709	0	54.10	0	9.3430	0	32.2280	0	24.896	0	53.631	0	263.6	4	92.8	4	-1E+10	1	-1E+10	1	-1E+10	1	-1E+10	1	-1E+10	1	-1E+10	1
4902551	46	C	11/16/2021	22:04	-133.772	49.709	0	55.00	0	9.3430	0	32.2270	0	24.895	0	54.523	0	263.5	4	92.7	4	-1E+10	1	-1E+10	1	-1E+10	1	-1E+10	1	-1E+10	1	-1E+10	1
4902551	46	C	11/16/2021	22:04	-133.772	49.709	0	56.00	0	9.3420	0	32.2280	0	24.896	0	55.514	0	263.5	4	92.7	4	-1E+10	1	-1E+10	1	-1E+10	1	-1E+10	1	-1E+10	1	-1E+10	1
4902551	46	C	11/16/2021	22:04	-133.772	49.709	0	57.00	0	9.3410	0	32.2280	0	24.896	0	56.505	0	263.4	4	92.7	4	-1E+10	1	-1E+10	1	-1E+10	1	-1E+10	1	-1E+10	1	-1E+10	1
4902551	46	C	11/16/2021	22:04	-133.772	49.709	0	58.00	0	9.3410	0	32.2280	0	24.896	0	57.496	0	263.4	4	92.7	4	-1E+10	1	-1E+10	1	-1E+10	1	-1E+10	1	-1E+10	1	-1E+10	1
4902551	46	C	11/16/2021	22:04	-133.772	49.709	0	59.00	0	9.3380	0	32.2280	0	24.897	0	58.487	0	263.4	4	92.7	4	-1E+10	1	-1E+10	1	-1E+10	1	-1E+10	1	-1E+10	1	-1E+10	1
4902551	46	C	11/16/2021	22:04	-133.772	49.709	0	60.00	0	9.3380	0	32.2290	0	24.897	0	59.479	0	263.3	4	92.6	4	-1E+10	1	-1E+10	1	-1E+10	1	-1E+10	1	-1E+10	1	-1E+10	1
4902551	46	C	11/16/2021	22:04	-133.772	49.709	0	61.00	0	9.3350	0	32.2290	0	24.898	0	60.470	0	263.2	4	92.6	4	-1E+10	1	-1E+10	1	-1E+10	1	-1E+10	1	-1E+10	1	-1E+10	1
4902551	46	C	11/16/2021	22:04	-133.772	49.709	0	62.00	0	9.3350	0	32.2300	0	24.899	0	61.461	0	263.2	4	92.6	4	-1E+10	1	-1E+10	1	-1E+10	1	-1E+10	1	-1E+10	1	-1E+10	1
4902551	46	C	11/16/2021	22:04	-133.772	49.709	0	63.00	0	9.3340	0	32.2300	0	24.899	0	62.452	0	263.1	4	92.6	4	-1E+10	1	-1E+10	1	-1E+10	1	-1E+10	1	-1E+10	1	-1E+10	1
4902551	46	C	11/16/2021	22:04	-133.772	49.709	0	64.00	0	9.3330	0	32.2300	0	24.899	0	63.443	0	263.1	4	92.6	4	-1E+10	1	-1E+10	1	-1E+10	1	-1E+10	1	-1E+10	1	-1E+10	1
4902551	46	C	11/16/2021	22:04	-133.772	49.709	0	65.00	0	9.3330	0	32.2300	0	24.899	0	64.434	0	263.0	4	92.5	4	-1E+10	1	-1E+10	1	-1E+10	1	-1E+10	1	-1E+10	1	-1E+10	1
4902551	46	C	11/16/2021	22:04	-133.772	49.709	0	66.00	0	9.3330	0	32.2310	0	24.900	0	65.425	0	262.8	4	92.5	4	-1E+10	1	-1E+10	1	-1E+10	1	-1E+10	1	-1E+10	1	-1E+10	1
4902551	46	C	11/16/2021	22:04	-133.772	49.709	0	66.90	0	9.3320	0	32.2310	0	24.900	0	66.317	0	262.8	4	92.5	4	-1E+10	1	-1E+10	1	-1E+10	1	-1E+10	1	-1E+10	1	-1E+10	1
4902551	46	C	11/16/2021	22:04	-133.772	49.709	0	67.90	0	9.3320	0	32.2310	0	24.900	0	67.309	0	262.6	4	92.4	4	-1E+10	1	-1E+10	1	-1E+10	1	-1E+10	1	-1E+10	1	-1E+10	1
4902551	46	C	11/16/2021	22:04	-133.772	49.709	0	68.90	0	9.3320	0	32.2320	0	24.901	0	68.300	0	262.5	4	92.4	4	-1E+10	1	-1E+10	1	-1E+10	1	-1E+10	1	-1E+10	1	-1E+10	1
4902551	46	C	11/16/2021	22:04	-133.772	49.709	0	70.10	0	9.3320	0	32.2320	0	24.901	0	69.489	0	262.4	4	92.3	4	-1E+10	1	-1E+10	1	-1E+10	1	-1E+10	1	-1E+10	1	-1E+10	1
4902551	46	C	11/16/2021	22:04	-133.772	49.709	0	71.00	0	9.3310	0	32.2320	0	24.901	0	70.381	0	262.3	4	92.3	4	-1E+10	1	-1E+10	1	-1E+10	1	-1E+10	1	-1E+10	1	-1E+10	1
4902551	46	C	11/16/2021	22:04	-133.772	49.709	0	71.80	0	9.3290	0	32.2320	0	24.901	0	71.174	0	262.1	4	92.2	4	-1E+10	1	-1E+10	1	-1E+10	1	-1E+10	1	-1E+10	1	-1E+10	1
4902551	46	C	11/16/2021	22:04	-133.772	49.709	0	72.90	0	9.3280	0	32.2320	0	24.902	0	72.264	0	261.8	4	92.1	4	-1E+10	1	-1E+10	1	-1E+10	1	-1E+10	1	-1E+10	1	-1E+10	1
4902551	46	C	11/16/2021	22:04	-133.772	49.709	0	73.90	0	9.3260	0	32.2290	0	24.900	0	73.255	0	261.4	4	92.0	4	-1E+10	1	-1E+10	1	-1E+10	1	-1E+10	1	-1E+10	1	-1E+10	1
4902551	46	C	11/16/2021	22:04	-133.772	49.709	0	74.80	0	9.3180	0	32.2320	0	24.903	0	74.147	0	261.0	4	91.8	4	-1E+10	1	-1E+10	1	-1E+10	1	-1E+10	1	-1E+10	1	-1E+10	1
4902551	46	C	11/16/2021	22:04	-133.772	49.709	0	75.90	0	9.2920	0	32.2350	0	24.910	0	75.237	0	260.5	4	91.6	4	-1E+10	1	-1E+10	1	-1E+10	1	-1E+10	1	-1E+10	1	-1E+10	1
4902551	46	C	11/16/2021	22:04	-133.772	49.709	0	77.00	0	9.2570	0	32.2370	0	24.917	0	76.328	0	260.1	4	91.4	4	-1E+10	1	-1E+10	1	-1E+10	1	-1E+10	1	-1E+10	1	-1E+10	1
4902551	46	C	11/16/2021	22:04	-133.772	49.709	0	78.10	0	9.0260	0	32.2590	0	24.970	0	77.418	0	259.8	4	90.8	4	-1E+10	1	-1E+10	1	-1E+10	1	-1E+10	1	-1E+10	1	-1E+10	1
4902551	46	C	11/16/2021	22:04	-133.772	49.709	0	79.00	0	8.4810	0	32.3060	0	25.090	0	78.310	0	261.3	4	90.3	4	-1E+10	1	-1E+10	1	-1E+10	1	-1E+10	1	-1E+10	1	-1E+10	1
4902551	46	C	11/16/2021	22:04	-133.772	49.709	0	79.90	0	7.8490	0	32.3700	0	25.232	0	79.202	0	262.8	4	89.5	4	-1E+10	1	-1E+10	1	-1E+10	1	-1E+10	1	-1E+10	1	-1E+10	1
4902551	46	C	11/16/2021	22:04	-133.772	49.709	0	81.10	0	7.5580	0	32.3820	0	25.282	0	80.391	0	263.8	4	89.3	4	-1E+10	1	-1E+10	1	-1E+10	1	-1E+10	1	-1E+10	1	-1E+10	1
4902551	46	C	11/16/2021	22:04	-133.772	49.709	0	81.90	0	7.1930	0	32.4070	0	25.352	0	81.184	0	264.9	4	88.9	4	-1E+10	1	-1E+10	1	-1E+10	1	-1E+10	1	-1E+10	1	-1E+10	1
4902551	46	C	11/16/2021	22:04	-133.772	49.709	0	83.00	0	6.9550	0	32.4270	0	25.400	0	82.274	0	265.5	4	88.7	4	-1E+10	1	-1E+10	1	-1E+10	1	-1E+10	1	-1E+10	1	-1E+10	1
4902551	46	C	11/16/2021	22:04	-133.772	49.709	0	84.10	0	6.8080	0	32.4380	0	25.428	0	83.364	0	265.8	4	88.5	4	-1E+10	1	-1E+10	1	-1E+10	1	-1E+10	1	-1E+10	1	-1E+10	1
4902551	46	C	11/16/2021	22:04	-133.772	49.709	0	84.90	0	6.7580	0	32.4400	0	25.436	0	84.157	0	265.8	4	88.4	4	-1E+10	1	-1E+10	1	-1E+10	1	-1E+10	1	-1E+10	1	-1E+10	1
4902551	46	C	11/16/2021	22:04	-133.772	49.709	0	86.10	0	6.7040	0	32.4480	0	25.449	0	85.346	0	265.7	4	88.2	4	-1E+10	1	-1E+10	1	-1E+10	1	-1E+10	1	-1E+10	1	-1E+10	1
4902551	46	C	11/16/2021	22:04	-133.772	49.709	0	86.90	0	6.6880	0	32.4450	0	25.449	0	86.139	0	265.6	4	88.2	4	-1E+10	1	-1E+10	1	-1E+10	1	-1E+10	1	-1E+10	1	-1E+10	1
4902551	46	C	11/16/2021	22:04	-133.772	49.709	0	88.00	0	6.6110	0	32.4530	0	25.465	0	87.229	0	265.6	4	88.0	4	-1E+10	1	-1E+10	1	-1E+10	1	-1E+10	1	-1E+10	1	-1E+10	1
4902551	46	C	11/16/2021	22:04	-133.772	49.709	0	88.90	0	6.4930	0	32.4610	0	25.486	0	88.121	0	265.4	4	87.7	4	-1E+10	1	-1E+10	1	-1E+10	1	-1E+10	1	-1E+10	1	-1E+10	1
4902551	46	C	11/16/2021	22:04	-133.772	49.709	0	89.80	0	6.4610	0	32.4650	0	25.494	0	89.013	0	264.8	4	87.5	4	-1E+10	1	-1E+10	1	-1E+10	1	-1E+10	1	-1E+10	1	-1E+10	1
4902551	46	C	11/16/2021	22:04	-133.772	49.709	0	90.90	0	6.4460	0	32.4660	0	25.496	0	90.103	0	264.0	4	87.2	4	-1E+10	1	-1E+10	1	-1E+10	1	-1E+10	1	-1E+10	1	-1E+10	1
4902551	46	C	11/16/2021	22:04	-133.772	49.709	0	91.90	0	6.4090	0	32.4700	0	25.504	0	91.094	0	263.2	4	86.9	4	-1E+10	1	-1E+10	1	-1E+10	1	-1E+10	1	-1E+10	1	-1E+10	1
4902551	46	C	11/16/2021	22:04	-133.772	49.709	0	93.00	0	6.3230	0	32.4810	0	25.524	0	92.184	0	262.3	4	86.4	4	-1E+10	1	-1E+10	1	-1E+10	1	-1E+10	1	-1E+10	1	-1E+10	1
4902551	46	C	11/16/2021	22:04	-133.772	49.709	0	94.20	0	6.2700	0	32.4920	0	25.539	0	93.374	0	260.6	4	85.7	4	-1E+10	1	-1E+10	1	-1E+10	1	-1E+10	1	-1E+10	1	-1E+10	1
4902551	46	C	11/16/2021	22:04	-133.772	49.709	0	95.10	0	6.2460	0	32.5000	0	25.548	0	94.265	0	259.2	4	85.2	4	-1E+10	1	-1E+10	1	-1E+10	1	-1E+10	1	-1E+10	1	-1E+10	1
4902551	46	C	11/16/2021	22:04	-133.772	49.709	0	95.90	0	6.2290	0	32.5080	0	25.557	0	95.058	0	257.9	4	84.8	4	-1E+10	1	-1E+10	1	-1E+10	1	-1E+10	1	-1E+10	1	-1E+10	1
4902551	46	C	11/16/2021	22:04	-133.772	49.709	0	97.20	0	6.1930	0	32.5260	0	25.575	0	96.347	0	256.2	4	84.1	4	-1E+10	1	-1E+10	1	-1E+10	1	-1E+10	1	-1E+10	1	-1E+10	1
4902551	46	C	11/16/2021	22:04	-133.772	49.709	0	97.90	0	6.1750	0	32.5360	0	25.586	0	97.040	0	255.2	4	83.8	4	-1E+10	1	-1E+10	1	-1E+10	1	-1E+10	1	-1E+10	1	-1E+10	1
4902551	46	C	11/16/2021	22:04	-133.772	49.709	0	98.80	0	6.1640	0	32.5410	0	25.591	0	97.932	0	253.8	4	83.3	4	-1E+10	1	-1E+10	1	-1E+10	1	-1E+10	1	-1E+10	1	-1E+10	1
4902551	46	C	11/16/2021	22:04	-133.772	49.709	0	99.70	0	6.1530	0	32.5460	0	25.596	0	98.824	0	252.1	4	82.7	4	-1E+10	1	-1E+10	1	-1E+10	1	-1E+10	1	-1E+10	1	-1E+10	1
4902551	46	C	11/16/2021	22:04	-133.772	49.709	0	101.10	0	6.1200	0	32.5700	0	25.619	0	100.211	0	249.1	4	81.7	4	-1E+10	1	-1E+10	1	-1E+10	1	-1E+10	1	-1E+10	1	-1E+10	1
4902551	46	C	11/16/2021	22:04	-133.772	49.709	0	102.30	0	6.0850	0	32.6140	0	25.658	0	101.401	0	246.9	4	81.0	4	-1E+10	1	-1E+10	1	-1E+10	1	-1E+10	1	-1E+10	1	-1E+10	1
4902551	46	C	11/16/2021	22:04	-133.772	49.709	0	103.20	0	6.0830	0	32.6240	0	25.667	0	102.292	0	245.2	4	80.4	4	-1E+10	1	-1E+10	1	-1E+10	1	-1E+10	1	-1E+10	1	-1E+10	1
4902551	46	C	11/16/2021	22:04	-133.772	49.709	0	104.00	0	6.0830	0	32.6290	0	25.670	0	103.085	0	243.5	4	79.8	4	-1E+10	1	-1E+10	1	-1E+10	1	-1E+10	1	-1E+10	1	-1E+10	1
4902551	46	C	11/16/2021	22:04	-133.772	49.709	0	105.10	0	6.0790	0	32.6430	0	25.682	0	104.175	0	240.6	4	78.9	4	-1E+10	1	-1E+10	1	-1E+10	1	-1E+10	1	-1E+10	1	-1E+10	1
4902551	46	C	11/16/2021	22:04	-133.772	49.709	0	105.90	0	6.0760	0	32.6490	0	25.687	0	104.968	0	237.5	4	77.9	4	-1E+10	1	-1E+10	1	-1E+10	1	-1E+10	1	-1E+10	1	-1E+10	1
4902551	46	C	11/16/2021	22:04	-133.772	49.709	0	106.90	0	6.0720	0	32.6510	0	25.689	0	105.959	0	233.4	4	76.5	4	-1E+10	1	-1E+10	1	-1E+10	1	-1E+10	1	-1E+10	1	-1E+10	1
4902551	46	C	11/16/2021	22:04	-133.772	49.709	0	107.90	0	6.0640	0	32.6670	0	25.703	0	106.950	0	229.5	4	75.2	4	-1E+10	1	-1E+10	1	-1E+10	1	-1E+10	1	-1E+10	1	-1E+10	1
4902551	46	C	11/16/2021	22:04	-133.772	49.709	0	109.00	0	6.0680	0	32.7070	0	25.734	0	108.040	0	224.2	4	73.5	4	-1E+10	1	-1E+10	1	-1E+10	1	-1E+10	1	-1E+10	1	-1E+10	1
4902551	46	C	11/16/2021	22:04	-133.772	49.709	0	110.00	0	6.0760	0	32.7370	0	25.757	0	109.031	0	220.4	4	72.3	4	-1E+10	1	-1E+10	1	-1E+10	1	-1E+10	1	-1E+10	1	-1E+10	1
4902551	46	C	11/16/2021	22:04	-133.772	49.709	0	110.90	0	6.0820	0	32.7820	0	25.791	0	109.923	0	217.3	4	71.3	4	-1E+10	1	-1E+10	1	-1E+10	1	-1E+10	1	-1E+10	1	-1E+10	1
4902551	46	C	11/16/2021	22:04	-133.772	49.709	0	112.00	0	6.0900	0	32.8070	0	25.810	0	111.013	0	214.1	4	70.3	4	-1E+10	1	-1E+10	1	-1E+10	1	-1E+10	1	-1E+10	1	-1E+10	1
4902551	46	C	11/16/2021	22:04	-133.772	49.709	0	112.90	0	6.1050	0	32.8550	0	25.846	0	111.904	0	212.1	4	69.7	4	-1E+10	1	-1E+10	1	-1E+10	1	-1E+10	1	-1E+10	1	-1E+10	1
4902551	46	C	11/16/2021	22:04	-133.772	49.709	0	113.80	0	6.1240	0	32.8860	0	25.868	0	112.796	0	210.7	4	69.3	4	-1E+10	1	-1E+10	1	-1E+10	1	-1E+10	1	-1E+10	1	-1E+10	1
4902551	46	C	11/16/2021	22:04	-133.772	49.709	0	115.00	0	6.1440	0	32.9050	0	25.881	0	113.985	0	208.2	4	68.5	4	-1E+10	1	-1E+10	1	-1E+10	1	-1E+10	1	-1E+10	1	-1E+10	1
4902551	46	C	11/16/2021	22:04	-133.772	49.709	0	116.00	0	6.1550	0	32.9300	0	25.899	0	114.976	0	206.3	4	67.9	4	-1E+10	1	-1E+10	1	-1E+10	1	-1E+10	1	-1E+10	1	-1E+10	1
4902551	46	C	11/16/2021	22:04	-133.772	49.709	0	116.90	0	6.1580	0	32.9450	0	25.911	0	115.868	0	204.4	4	67.3	4	-1E+10	1	-1E+10	1	-1E+10	1	-1E+10	1	-1E+10	1	-1E+10	1
4902551	46	C	11/16/2021	22:04	-133.772	49.709	0	118.20	0	6.1610	0	32.9660	0	25.927	0	117.156	0	201.7	4	66.4	4	-1E+10	1	-1E+10	1	-1E+10	1	-1E+10	1	-1E+10	1	-1E+10	1
4902551	46	C	11/16/2021	22:04	-133.772	49.709	0	119.00	0	6.1630	0	32.9730	0	25.932	0	117.949	0	199.5	4	65.7	4	-1E+10	1	-1E+10	1	-1E+10	1	-1E+10	1	-1E+10	1	-1E+10	1
4902551	46	C	11/16/2021	22:04	-133.772	49.709	0	119.80	0	6.1650	0	32.9850	0	25.942	0	118.742	0	196.1	4	64.6	4	-1E+10	1	-1E+10	1	-1E+10	1	-1E+10	1	-1E+10	1	-1E+10	1
4902551	46	C	11/16/2021	22:04	-133.772	49.709	0	121.00	0	6.1680	0	33.0070	0	25.959	0	119.931	0	192.1	4	63.3	4	-1E+10	1	-1E+10	1	-1E+10	1	-1E+10	1	-1E+10	1	-1E+10	1
4902551	46	C	11/16/2021	22:04	-133.772	49.709	0	122.00	0	6.1770	0	33.0650	0	26.003	0	120.922	0	187.8	4	61.9	4	-1E+10	1	-1E+10	1	-1E+10	1	-1E+10	1	-1E+10	1	-1E+10	1
4902551	46	C	11/16/2021	22:04	-133.772	49.709	0	122.90	0	6.1790	0	33.0930	0	26.025	0	121.813	0	183.9	4	60.6	4	-1E+10	1	-1E+10	1	-1E+10	1	-1E+10	1	-1E+10	1	-1E+10	1
4902551	46	C	11/16/2021	22:04	-133.772	49.709	0	123.80	0	6.1830	0	33.1310	0	26.055	0	122.705	0	179.7	4	59.3	4	-1E+10	1	-1E+10	1	-1E+10	1	-1E+10	1	-1E+10	1	-1E+10	1
4902551	46	C	11/16/2021	22:04	-133.772	49.709	0	124.90	0	6.1850	0	33.2020	0	26.110	0	123.795	0	176.1	4	58.1	4	-1E+10	1	-1E+10	1	-1E+10	1	-1E+10	1	-1E+10	1	-1E+10	1
4902551	46	C	11/16/2021	22:04	-133.772	49.709	0	126.10	0	6.1840	0	33.2610	0	26.157	0	124.984	0	174.0	4	57.5	4	-1E+10	1	-1E+10	1	-1E+10	1	-1E+10	1	-1E+10	1	-1E+10	1
4902551	46	C	11/16/2021	22:04	-133.772	49.709	0	127.00	0	6.1830	0	33.2800	0	26.172	0	125.876	0	172.8	4	57.1	4	-1E+10	1	-1E+10	1	-1E+10	1	-1E+10	1	-1E+10	1	-1E+10	1
4902551	46	C	11/16/2021	22:04	-133.772	49.709	0	128.20	0	6.1820	0	33.2960	0	26.185	0	127.065	0	170.6	4	56.3	4	-1E+10	1	-1E+10	1	-1E+10	1	-1E+10	1	-1E+10	1	-1E+10	1
4902551	46	C	11/16/2021	22:04	-133.772	49.709	0	128.90	0	6.1810	0	33.2970	0	26.186	0	127.758	0	168.4	4	55.6	4	-1E+10	1	-1E+10	1	-1E+10	1	-1E+10	1	-1E+10	1	-1E+10	1
4902551	46	C	11/16/2021	22:04	-133.772	49.709	0	130.00	0	6.1800	0	33.3000	0	26.188	0	128.848	0	164.5	4	54.3	4	-1E+10	1	-1E+10	1	-1E+10	1	-1E+10	1	-1E+10	1	-1E+10	1
4902551	46	C	11/16/2021	22:04	-133.772	49.709	0	131.20	0	6.1760	0	33.3220	0	26.206	0	130.037	0	160.1	4	52.9	4	-1E+10	1	-1E+10	1	-1E+10	1	-1E+10	1	-1E+10	1	-1E+10	1
4902551	46	C	11/16/2021	22:04	-133.772	49.709	0	132.10	0	6.1710	0	33.3590	0	26.236	0	130.929	0	157.7	4	52.1	4	-1E+10	1	-1E+10	1	-1E+10	1	-1E+10	1	-1E+10	1	-1E+10	1
4902551	46	C	11/16/2021	22:04	-133.772	49.709	0	132.80	0	6.1700	0	33.3650	0	26.241	0	131.623	0	155.9	4	51.5	4	-1E+10	1	-1E+10	1	-1E+10	1	-1E+10	1	-1E+10	1	-1E+10	1
4902551	46	C	11/16/2021	22:04	-133.772	49.709	0	133.80	0	6.1650	0	33.3960	0	26.266	0	132.613	0	152.8	4	50.5	4	-1E+10	1	-1E+10	1	-1E+10	1	-1E+10	1	-1E+10	1	-1E+10	1
4902551	46	C	11/16/2021	22:04	-133.772	49.709	0	134.90	0	6.1570	0	33.4390	0	26.301	0	133.703	0	150.0	4	49.6	4	-1E+10	1	-1E+10	1	-1E+10	1	-1E+10	1	-1E+10	1	-1E+10	1
4902551	46	C	11/16/2021	22:04	-133.772	49.709	0	136.10	0	6.1490	0	33.4720	0	26.328	0	134.892	0	147.7	4	48.8	4	-1E+10	1	-1E+10	1	-1E+10	1	-1E+10	1	-1E+10	1	-1E+10	1
4902551	46	C	11/16/2021	22:04	-133.772	49.709	0	137.00	0	6.1360	0	33.5110	0	26.361	0	135.784	0	146.3	4	48.3	4	-1E+10	1	-1E+10	1	-1E+10	1	-1E+10	1	-1E+10	1	-1E+10	1
4902551	46	C	11/16/2021	22:04	-133.772	49.709	0	137.90	0	6.1310	0	33.5260	0	26.373	0	136.676	0	144.9	4	47.9	4	-1E+10	1	-1E+10	1	-1E+10	1	-1E+10	1	-1E+10	1	-1E+10	1
4902551	46	C	11/16/2021	22:04	-133.772	49.709	0	138.90	0	6.1260	0	33.5420	0	26.386	0	137.667	0	143.3	4	47.4	4	-1E+10	1	-1E+10	1	-1E+10	1	-1E+10	1	-1E+10	1	-1E+10	1
4902551	46	C	11/16/2021	22:04	-133.772	49.709	0	139.90	0	6.1210	0	33.5520	0	26.395	0	138.657	0	141.8	4	46.9	4	-1E+10	1	-1E+10	1	-1E+10	1	-1E+10	1	-1E+10	1	-1E+10	1
4902551	46	C	11/16/2021	22:04	-133.772	49.709	0	140.90	0	6.1160	0	33.5640	0	26.405	0	139.648	0	140.6	4	46.4	4	-1E+10	1	-1E+10	1	-1E+10	1	-1E+10	1	-1E+10	1	-1E+10	1
4902551	46	C	11/16/2021	22:04	-133.772	49.709	0	142.00	0	6.1110	0	33.5720	0	26.412	0	140.738	0	139.2	4	46.0	4	-1E+10	1	-1E+10	1	-1E+10	1	-1E+10	1	-1E+10	1	-1E+10	1
4902551	46	C	11/16/2021	22:04	-133.772	49.709	0	143.10	0	6.0960	0	33.5990	0	26.435	0	141.828	0	138.1	4	45.6	4	-1E+10	1	-1E+10	1	-1E+10	1	-1E+10	1	-1E+10	1	-1E+10	1
4902551	46	C	11/16/2021	22:04	-133.772	49.709	0	143.90	0	6.0820	0	33.6230	0	26.456	0	142.620	0	137.5	4	45.4	4	-1E+10	1	-1E+10	1	-1E+10	1	-1E+10	1	-1E+10	1	-1E+10	1
4902551	46	C	11/16/2021	22:04	-133.772	49.709	0	145.00	0	6.0760	0	33.6310	0	26.463	0	143.710	0	136.6	4	45.1	4	-1E+10	1	-1E+10	1	-1E+10	1	-1E+10	1	-1E+10	1	-1E+10	1
4902551	46	C	11/16/2021	22:04	-133.772	49.709	0	146.10	0	6.0730	0	33.6350	0	26.467	0	144.800	0	135.7	4	44.8	4	-1E+10	1	-1E+10	1	-1E+10	1	-1E+10	1	-1E+10	1	-1E+10	1
4902551	46	C	11/16/2021	22:04	-133.772	49.709	0	146.90	0	6.0730	0	33.6360	0	26.467	0	145.593	0	135.0	4	44.6	4	-1E+10	1	-1E+10	1	-1E+10	1	-1E+10	1	-1E+10	1	-1E+10	1
4902551	46	C	11/16/2021	22:04	-133.772	49.709	0	148.00	0	6.0630	0	33.6470	0	26.477	0	146.683	0	134.1	4	44.3	4	-1E+10	1	-1E+10	1	-1E+10	1	-1E+10	1	-1E+10	1	-1E+10	1
4902551	46	C	11/16/2021	22:04	-133.772	49.709	0	149.20	0	6.0490	0	33.6620	0	26.491	0	147.871	0	133.3	4	44.0	4	-1E+10	1	-1E+10	1	-1E+10	1	-1E+10	1	-1E+10	1	-1E+10	1
4902551	46	C	11/16/2021	22:04	-133.772	49.709	0	150.00	0	6.0430	0	33.6680	0	26.497	0	148.664	0	132.7	4	43.8	4	-1E+10	1	-1E+10	1	-1E+10	1	-1E+10	1	-1E+10	1	-1E+10	1
4902551	46	C	11/16/2021	22:04	-133.772	49.709	0	150.70	0	6.0380	0	33.6730	0	26.501	0	149.358	0	132.2	4	43.6	4	-1E+10	1	-1E+10	1	-1E+10	1	-1E+10	1	-1E+10	1	-1E+10	1
4902551	46	C	11/16/2021	22:04	-133.772	49.709	0	151.90	0	6.0350	0	33.6770	0	26.505	0	150.546	0	131.3	4	43.3	4	-1E+10	1	-1E+10	1	-1E+10	1	-1E+10	1	-1E+10	1	-1E+10	1
4902551	46	C	11/16/2021	22:04	-133.772	49.709	0	153.10	0	6.0340	0	33.6790	0	26.506	0	151.735	0	130.2	4	43.0	4	-1E+10	1	-1E+10	1	-1E+10	1	-1E+10	1	-1E+10	1	-1E+10	1
4902551	46	C	11/16/2021	22:04	-133.772	49.709	0	153.90	0	6.0300	0	33.6830	0	26.510	0	152.528	0	129.5	4	42.7	4	-1E+10	1	-1E+10	1	-1E+10	1	-1E+10	1	-1E+10	1	-1E+10	1
4902551	46	C	11/16/2021	22:04	-133.772	49.709	0	154.70	0	6.0260	0	33.6870	0	26.514	0	153.320	0	128.8	4	42.5	4	-1E+10	1	-1E+10	1	-1E+10	1	-1E+10	1	-1E+10	1	-1E+10	1
4902551	46	C	11/16/2021	22:04	-133.772	49.709	0	155.90	0	6.0220	0	33.6890	0	26.516	0	154.509	0	127.8	4	42.2	4	-1E+10	1	-1E+10	1	-1E+10	1	-1E+10	1	-1E+10	1	-1E+10	1
4902551	46	C	11/16/2021	22:04	-133.772	49.709	0	157.10	0	6.0210	0	33.6900	0	26.517	0	155.698	0	126.5	4	41.8	4	-1E+10	1	-1E+10	1	-1E+10	1	-1E+10	1	-1E+10	1	-1E+10	1
4902551	46	C	11/16/2021	22:04	-133.772	49.709	0	157.90	0	6.0190	0	33.6900	0	26.517	0	156.491	0	125.6	4	41.5	4	-1E+10	1	-1E+10	1	-1E+10	1	-1E+10	1	-1E+10	1	-1E+10	1
4902551	46	C	11/16/2021	22:04	-133.772	49.709	0	158.70	0	6.0160	0	33.6910	0	26.518	0	157.283	0	124.7	4	41.2	4	-1E+10	1	-1E+10	1	-1E+10	1	-1E+10	1	-1E+10	1	-1E+10	1
4902551	46	C	11/16/2021	22:04	-133.772	49.709	0	159.90	0	5.9970	0	33.7040	0	26.531	0	158.472	0	123.3	4	40.7	4	-1E+10	1	-1E+10	1	-1E+10	1	-1E+10	1	-1E+10	1	-1E+10	1
4902551	46	C	11/16/2021	22:04	-133.772	49.709	0	161.20	0	5.9820	0	33.7160	0	26.542	0	159.760	0	122.1	4	40.3	4	-1E+10	1	-1E+10	1	-1E+10	1	-1E+10	1	-1E+10	1	-1E+10	1
4902551	46	C	11/16/2021	22:04	-133.772	49.709	0	162.00	0	5.9760	0	33.7200	0	26.546	0	160.552	0	121.3	4	40.0	4	-1E+10	1	-1E+10	1	-1E+10	1	-1E+10	1	-1E+10	1	-1E+10	1
4902551	46	C	11/16/2021	22:04	-133.772	49.709	0	162.90	0	5.9560	0	33.7300	0	26.556	0	161.444	0	120.7	4	39.8	4	-1E+10	1	-1E+10	1	-1E+10	1	-1E+10	1	-1E+10	1	-1E+10	1
4902551	46	C	11/16/2021	22:04	-133.772	49.709	0	163.80	0	5.9400	0	33.7370	0	26.564	0	162.336	0	120.2	4	39.6	4	-1E+10	1	-1E+10	1	-1E+10	1	-1E+10	1	-1E+10	1	-1E+10	1
4902551	46	C	11/16/2021	22:04	-133.772	49.709	0	164.70	0	5.9340	0	33.7410	0	26.568	0	163.227	0	119.6	4	39.4	4	-1E+10	1	-1E+10	1	-1E+10	1	-1E+10	1	-1E+10	1	-1E+10	1
4902551	46	C	11/16/2021	22:04	-133.772	49.709	0	166.00	0	5.9190	0	33.7470	0	26.575	0	164.515	0	118.9	4	39.2	4	-1E+10	1	-1E+10	1	-1E+10	1	-1E+10	1	-1E+10	1	-1E+10	1
4902551	46	C	11/16/2021	22:04	-133.772	49.709	0	167.30	0	5.9090	0	33.7510	0	26.579	0	165.803	0	118.2	4	38.9	4	-1E+10	1	-1E+10	1	-1E+10	1	-1E+10	1	-1E+10	1	-1E+10	1
4902551	46	C	11/16/2021	22:04	-133.772	49.709	0	168.20	0	5.9070	0	33.7510	0	26.579	0	166.695	0	117.7	4	38.8	4	-1E+10	1	-1E+10	1	-1E+10	1	-1E+10	1	-1E+10	1	-1E+10	1
4902551	46	C	11/16/2021	22:04	-133.772	49.709	0	169.10	0	5.9030	0	33.7520	0	26.580	0	167.586	0	117.1	4	38.6	4	-1E+10	1	-1E+10	1	-1E+10	1	-1E+10	1	-1E+10	1	-1E+10	1
4902551	46	C	11/16/2021	22:04	-133.772	49.709	0	170.00	0	5.8950	0	33.7550	0	26.584	0	168.478	0	116.5	4	38.3	4	-1E+10	1	-1E+10	1	-1E+10	1	-1E+10	1	-1E+10	1	-1E+10	1
4902551	46	C	11/16/2021	22:04	-133.772	49.709	0	170.90	0	5.8920	0	33.7560	0	26.585	0	169.369	0	115.8	4	38.1	4	-1E+10	1	-1E+10	1	-1E+10	1	-1E+10	1	-1E+10	1	-1E+10	1
4902551	46	C	11/16/2021	22:04	-133.772	49.709	0	171.80	0	5.8900	0	33.7560	0	26.585	0	170.261	0	115.1	4	37.9	4	-1E+10	1	-1E+10	1	-1E+10	1	-1E+10	1	-1E+10	1	-1E+10	1
4902551	46	C	11/16/2021	22:04	-133.772	49.709	0	172.70	0	5.8880	0	33.7570	0	26.586	0	171.152	0	114.4	4	37.7	4	-1E+10	1	-1E+10	1	-1E+10	1	-1E+10	1	-1E+10	1	-1E+10	1
4902551	46	C	11/16/2021	22:04	-133.772	49.709	0	173.60	0	5.8840	0	33.7580	0	26.588	0	172.044	0	113.6	4	37.4	4	-1E+10	1	-1E+10	1	-1E+10	1	-1E+10	1	-1E+10	1	-1E+10	1
4902551	46	C	11/16/2021	22:04	-133.772	49.709	0	174.90	0	5.8640	0	33.7670	0	26.597	0	173.332	0	112.4	4	37.0	4	-1E+10	1	-1E+10	1	-1E+10	1	-1E+10	1	-1E+10	1	-1E+10	1
4902551	46	C	11/16/2021	22:04	-133.772	49.709	0	176.30	0	5.8430	0	33.7730	0	26.605	0	174.719	0	111.4	4	36.6	4	-1E+10	1	-1E+10	1	-1E+10	1	-1E+10	1	-1E+10	1	-1E+10	1
4902551	46	C	11/16/2021	22:04	-133.772	49.709	0	177.20	0	5.8320	0	33.7760	0	26.608	0	175.610	0	110.7	4	36.4	4	-1E+10	1	-1E+10	1	-1E+10	1	-1E+10	1	-1E+10	1	-1E+10	1
4902551	46	C	11/16/2021	22:04	-133.772	49.709	0	178.10	0	5.8130	0	33.7790	0	26.613	0	176.502	0	110.1	4	36.2	4	-1E+10	1	-1E+10	1	-1E+10	1	-1E+10	1	-1E+10	1	-1E+10	1
4902551	46	C	11/16/2021	22:04	-133.772	49.709	0	179.00	0	5.8050	0	33.7820	0	26.616	0	177.393	0	109.4	4	35.9	4	-1E+10	1	-1E+10	1	-1E+10	1	-1E+10	1	-1E+10	1	-1E+10	1
4902551	46	C	11/16/2021	22:04	-133.772	49.709	0	179.90	0	5.8000	0	33.7800	0	26.615	0	178.285	0	108.6	4	35.7	4	-1E+10	1	-1E+10	1	-1E+10	1	-1E+10	1	-1E+10	1	-1E+10	1
4902551	46	C	11/16/2021	22:04	-133.772	49.709	0	180.80	0	5.7960	0	33.7820	0	26.617	0	179.176	0	107.8	4	35.4	4	-1E+10	1	-1E+10	1	-1E+10	1	-1E+10	1	-1E+10	1	-1E+10	1
4902551	46	C	11/16/2021	22:04	-133.772	49.709	0	181.80	0	5.7780	0	33.7970	0	26.632	0	180.167	0	107.0	4	35.1	4	-1E+10	1	-1E+10	1	-1E+10	1	-1E+10	1	-1E+10	1	-1E+10	1
4902551	46	C	11/16/2021	22:04	-133.772	49.709	0	182.70	0	5.7380	0	33.7980	0	26.637	0	181.058	0	106.5	4	35.0	4	-1E+10	1	-1E+10	1	-1E+10	1	-1E+10	1	-1E+10	1	-1E+10	1
4902551	46	C	11/16/2021	22:04	-133.772	49.709	0	183.60	0	5.7140	0	33.8000	0	26.642	0	181.950	0	106.2	4	34.8	4	-1E+10	1	-1E+10	1	-1E+10	1	-1E+10	1	-1E+10	1	-1E+10	1
4902551	46	C	11/16/2021	22:04	-133.772	49.709	0	184.60	0	5.7120	0	33.8000	0	26.642	0	182.941	0	105.7	4	34.7	4	-1E+10	1	-1E+10	1	-1E+10	1	-1E+10	1	-1E+10	1	-1E+10	1
4902551	46	C	11/16/2021	22:04	-133.772	49.709	0	185.90	0	5.7070	0	33.8010	0	26.643	0	184.228	0	105.0	4	34.4	4	-1E+10	1	-1E+10	1	-1E+10	1	-1E+10	1	-1E+10	1	-1E+10	1
4902551	46	C	11/16/2021	22:04	-133.772	49.709	0	187.40	0	5.6970	0	33.8050	0	26.648	0	185.714	0	104.4	4	34.2	4	-1E+10	1	-1E+10	1	-1E+10	1	-1E+10	1	-1E+10	1	-1E+10	1
4902551	46	C	11/16/2021	22:04	-133.772	49.709	0	188.30	0	5.6910	0	33.8060	0	26.649	0	186.606	0	103.9	4	34.1	4	-1E+10	1	-1E+10	1	-1E+10	1	-1E+10	1	-1E+10	1	-1E+10	1
4902551	46	C	11/16/2021	22:04	-133.772	49.709	0	189.20	0	5.6850	0	33.8080	0	26.652	0	187.497	0	103.6	4	33.9	4	-1E+10	1	-1E+10	1	-1E+10	1	-1E+10	1	-1E+10	1	-1E+10	1
4902551	46	C	11/16/2021	22:04	-133.772	49.709	0	190.20	0	5.6740	0	33.8110	0	26.655	0	188.488	0	103.3	4	33.8	4	-1E+10	1	-1E+10	1	-1E+10	1	-1E+10	1	-1E+10	1	-1E+10	1
4902551	46	C	11/16/2021	22:04	-133.772	49.709	0	191.10	0	5.6470	0	33.8120	0	26.659	0	189.379	0	103.1	4	33.7	4	-1E+10	1	-1E+10	1	-1E+10	1	-1E+10	1	-1E+10	1	-1E+10	1
4902551	46	C	11/16/2021	22:04	-133.772	49.709	0	192.00	0	5.6490	0	33.8100	0	26.658	0	190.271	0	102.8	4	33.7	4	-1E+10	1	-1E+10	1	-1E+10	1	-1E+10	1	-1E+10	1	-1E+10	1
4902551	46	C	11/16/2021	22:04	-133.772	49.709	0	192.90	0	5.6420	0	33.8110	0	26.659	0	191.162	0	102.4	4	33.5	4	-1E+10	1	-1E+10	1	-1E+10	1	-1E+10	1	-1E+10	1	-1E+10	1
4902551	46	C	11/16/2021	22:04	-133.772	49.709	0	193.90	0	5.6250	0	33.8200	0	26.668	0	192.153	0	102.2	4	33.4	4	-1E+10	1	-1E+10	1	-1E+10	1	-1E+10	1	-1E+10	1	-1E+10	1
4902551	46	C	11/16/2021	22:04	-133.772	49.709	0	194.80	0	5.6210	0	33.8140	0	26.664	0	193.044	0	101.9	4	33.3	4	-1E+10	1	-1E+10	1	-1E+10	1	-1E+10	1	-1E+10	1	-1E+10	1
4902551	46	C	11/16/2021	22:04	-133.772	49.709	0	195.70	0	5.6140	0	33.8130	0	26.664	0	193.936	0	101.6	4	33.2	4	-1E+10	1	-1E+10	1	-1E+10	1	-1E+10	1	-1E+10	1	-1E+10	1
4902551	46	C	11/16/2021	22:04	-133.772	49.709	0	196.60	0	5.6090	0	33.8180	0	26.669	0	194.827	0	101.2	4	33.1	4	-1E+10	1	-1E+10	1	-1E+10	1	-1E+10	1	-1E+10	1	-1E+10	1
4902551	46	C	11/16/2021	22:04	-133.772	49.709	0	197.60	0	5.6060	0	33.8130	0	26.665	0	195.818	0	100.8	4	33.0	4	-1E+10	1	-1E+10	1	-1E+10	1	-1E+10	1	-1E+10	1	-1E+10	1
4902551	46	C	11/16/2021	22:04	-133.772	49.709	0	198.90	0	5.5990	0	33.8130	0	26.666	0	197.105	0	100.2	4	32.8	4	-1E+10	1	-1E+10	1	-1E+10	1	-1E+10	1	-1E+10	1	-1E+10	1
4902551	46	C	11/16/2021	22:04	-133.772	49.709	0	200.30	0	5.5460	0	33.8190	0	26.677	0	198.492	0	99.7	4	32.6	4	-1E+10	1	-1E+10	1	-1E+10	1	-1E+10	1	-1E+10	1	-1E+10	1
4902551	46	C	11/16/2021	22:04	-133.772	49.709	0	201.20	0	5.5340	0	33.8180	0	26.678	0	199.383	0	99.4	4	32.5	4	-1E+10	1	-1E+10	1	-1E+10	1	-1E+10	1	-1E+10	1	-1E+10	1
4902551	46	C	11/16/2021	22:04	-133.772	49.709	0	202.10	0	5.5230	0	33.8200	0	26.681	0	200.275	0	99.1	4	32.4	4	-1E+10	1	-1E+10	1	-1E+10	1	-1E+10	1	-1E+10	1	-1E+10	1
4902551	46	C	11/16/2021	22:04	-133.772	49.709	0	203.00	0	5.5070	0	33.8170	0	26.680	0	201.166	0	98.8	4	32.2	4	-1E+10	1	-1E+10	1	-1E+10	1	-1E+10	1	-1E+10	1	-1E+10	1
4902551	46	C	11/16/2021	22:04	-133.772	49.709	0	204.00	0	5.4890	0	33.8170	0	26.682	0	202.157	0	98.4	4	32.1	4	-1E+10	1	-1E+10	1	-1E+10	1	-1E+10	1	-1E+10	1	-1E+10	1
4902551	46	C	11/16/2021	22:04	-133.772	49.709	0	204.90	0	5.4830	0	33.8180	0	26.684	0	203.048	0	98.0	4	32.0	4	-1E+10	1	-1E+10	1	-1E+10	1	-1E+10	1	-1E+10	1	-1E+10	1
4902551	46	C	11/16/2021	22:04	-133.772	49.709	0	205.90	0	5.4700	0	33.8170	0	26.685	0	204.039	0	97.6	4	31.8	4	-1E+10	1	-1E+10	1	-1E+10	1	-1E+10	1	-1E+10	1	-1E+10	1
4902551	46	C	11/16/2021	22:04	-133.772	49.709	0	206.80	0	5.4610	0	33.8200	0	26.688	0	204.930	0	97.2	4	31.7	4	-1E+10	1	-1E+10	1	-1E+10	1	-1E+10	1	-1E+10	1	-1E+10	1
4902551	46	C	11/16/2021	22:04	-133.772	49.709	0	207.80	0	5.4540	0	33.8200	0	26.689	0	205.920	0	96.8	4	31.6	4	-1E+10	1	-1E+10	1	-1E+10	1	-1E+10	1	-1E+10	1	-1E+10	1
4902551	46	C	11/16/2021	22:04	-133.772	49.709	0	208.70	0	5.4520	0	33.8210	0	26.690	0	206.812	0	96.4	4	31.4	4	-1E+10	1	-1E+10	1	-1E+10	1	-1E+10	1	-1E+10	1	-1E+10	1
4902551	46	C	11/16/2021	22:04	-133.772	49.709	0	209.70	0	5.4520	0	33.8200	0	26.689	0	207.802	0	95.9	4	31.3	4	-1E+10	1	-1E+10	1	-1E+10	1	-1E+10	1	-1E+10	1	-1E+10	1
4902551	46	C	11/16/2021	22:04	-133.772	49.709	0	210.60	0	5.4510	0	33.8220	0	26.691	0	208.694	0	95.5	4	31.1	4	-1E+10	1	-1E+10	1	-1E+10	1	-1E+10	1	-1E+10	1	-1E+10	1
4902551	46	C	11/16/2021	22:04	-133.772	49.709	0	211.50	0	5.4480	0	33.8220	0	26.691	0	209.585	0	95.0	4	31.0	4	-1E+10	1	-1E+10	1	-1E+10	1	-1E+10	1	-1E+10	1	-1E+10	1
4902551	46	C	11/16/2021	22:04	-133.772	49.709	0	212.50	0	5.4380	0	33.8220	0	26.693	0	210.576	0	94.6	4	30.8	4	-1E+10	1	-1E+10	1	-1E+10	1	-1E+10	1	-1E+10	1	-1E+10	1
4902551	46	C	11/16/2021	22:04	-133.772	49.709	0	213.90	0	5.3950	0	33.8260	0	26.701	0	211.962	0	94.1	4	30.6	4	-1E+10	1	-1E+10	1	-1E+10	1	-1E+10	1	-1E+10	1	-1E+10	1
4902551	46	C	11/16/2021	22:04	-133.772	49.709	0	215.40	0	5.3700	0	33.8280	0	26.705	0	213.448	0	93.8	4	30.5	4	-1E+10	1	-1E+10	1	-1E+10	1	-1E+10	1	-1E+10	1	-1E+10	1
4902551	46	C	11/16/2021	22:04	-133.772	49.709	0	216.30	0	5.3450	0	33.8270	0	26.708	0	214.339	0	93.7	4	30.5	4	-1E+10	1	-1E+10	1	-1E+10	1	-1E+10	1	-1E+10	1	-1E+10	1
4902551	46	C	11/16/2021	22:04	-133.772	49.709	0	217.30	0	5.3480	0	33.8280	0	26.708	0	215.330	0	93.5	4	30.4	4	-1E+10	1	-1E+10	1	-1E+10	1	-1E+10	1	-1E+10	1	-1E+10	1
4902551	46	C	11/16/2021	22:04	-133.772	49.709	0	218.30	0	5.3400	0	33.8280	0	26.709	0	216.320	0	93.3	4	30.3	4	-1E+10	1	-1E+10	1	-1E+10	1	-1E+10	1	-1E+10	1	-1E+10	1
4902551	46	C	11/16/2021	22:04	-133.772	49.709	0	219.30	0	5.3220	0	33.8370	0	26.718	0	217.310	0	93.1	4	30.3	4	-1E+10	1	-1E+10	1	-1E+10	1	-1E+10	1	-1E+10	1	-1E+10	1
4902551	46	C	11/16/2021	22:04	-133.772	49.709	0	220.30	0	5.2890	0	33.8250	0	26.713	0	218.301	0	92.9	4	30.2	4	-1E+10	1	-1E+10	1	-1E+10	1	-1E+10	1	-1E+10	1	-1E+10	1
4902551	46	C	11/16/2021	22:04	-133.772	49.709	0	221.30	0	5.2720	0	33.8290	0	26.718	0	219.291	0	92.7	4	30.1	4	-1E+10	1	-1E+10	1	-1E+10	1	-1E+10	1	-1E+10	1	-1E+10	1
4902551	46	C	11/16/2021	22:04	-133.772	49.709	0	222.30	0	5.2380	0	33.8220	0	26.716	0	220.282	0	92.3	4	29.9	4	-1E+10	1	-1E+10	1	-1E+10	1	-1E+10	1	-1E+10	1	-1E+10	1
4902551	46	C	11/16/2021	22:04	-133.772	49.709	0	223.30	0	5.2050	0	33.8190	0	26.718	0	221.272	0	91.8	4	29.7	4	-1E+10	1	-1E+10	1	-1E+10	1	-1E+10	1	-1E+10	1	-1E+10	1
4902551	46	C	11/16/2021	22:04	-133.772	49.709	0	224.30	0	5.1910	0	33.8180	0	26.718	0	222.262	0	91.2	4	29.6	4	-1E+10	1	-1E+10	1	-1E+10	1	-1E+10	1	-1E+10	1	-1E+10	1
4902551	46	C	11/16/2021	22:04	-133.772	49.709	0	225.30	0	5.1870	0	33.8200	0	26.720	0	223.253	0	90.7	4	29.4	4	-1E+10	1	-1E+10	1	-1E+10	1	-1E+10	1	-1E+10	1	-1E+10	1
4902551	46	C	11/16/2021	22:04	-133.772	49.709	0	226.30	0	5.1940	0	33.8230	0	26.722	0	224.243	0	90.2	4	29.2	4	-1E+10	1	-1E+10	1	-1E+10	1	-1E+10	1	-1E+10	1	-1E+10	1
4902551	46	C	11/16/2021	22:04	-133.772	49.709	0	227.30	0	5.1850	0	33.8240	0	26.724	0	225.233	0	89.7	4	29.1	4	-1E+10	1	-1E+10	1	-1E+10	1	-1E+10	1	-1E+10	1	-1E+10	1
4902551	46	C	11/16/2021	22:04	-133.772	49.709	0	228.30	0	5.1640	0	33.8270	0	26.729	0	226.224	0	89.4	4	28.9	4	-1E+10	1	-1E+10	1	-1E+10	1	-1E+10	1	-1E+10	1	-1E+10	1
4902551	46	C	11/16/2021	22:04	-133.772	49.709	0	229.30	0	5.1170	0	33.8230	0	26.731	0	227.214	0	89.0	4	28.8	4	-1E+10	1	-1E+10	1	-1E+10	1	-1E+10	1	-1E+10	1	-1E+10	1
4902551	46	C	11/16/2021	22:04	-133.772	49.709	0	230.30	0	5.1030	0	33.8220	0	26.732	0	228.204	0	88.5	4	28.6	4	-1E+10	1	-1E+10	1	-1E+10	1	-1E+10	1	-1E+10	1	-1E+10	1
4902551	46	C	11/16/2021	22:04	-133.772	49.709	0	231.40	0	5.0970	0	33.8220	0	26.732	0	229.294	0	88.0	4	28.4	4	-1E+10	1	-1E+10	1	-1E+10	1	-1E+10	1	-1E+10	1	-1E+10	1
4902551	46	C	11/16/2021	22:04	-133.772	49.709	0	232.40	0	5.0970	0	33.8230	0	26.733	0	230.284	0	87.3	4	28.2	4	-1E+10	1	-1E+10	1	-1E+10	1	-1E+10	1	-1E+10	1	-1E+10	1
4902551	46	C	11/16/2021	22:04	-133.772	49.709	0	233.40	0	5.1030	0	33.8260	0	26.735	0	231.275	0	86.8	4	28.1	4	-1E+10	1	-1E+10	1	-1E+10	1	-1E+10	1	-1E+10	1	-1E+10	1
4902551	46	C	11/16/2021	22:04	-133.772	49.709	0	234.40	0	5.1100	0	33.8270	0	26.735	0	232.265	0	86.2	4	27.9	4	-1E+10	1	-1E+10	1	-1E+10	1	-1E+10	1	-1E+10	1	-1E+10	1
4902551	46	C	11/16/2021	22:04	-133.772	49.709	0	235.40	0	5.1180	0	33.8280	0	26.735	0	233.255	0	85.5	4	27.6	4	-1E+10	1	-1E+10	1	-1E+10	1	-1E+10	1	-1E+10	1	-1E+10	1
4902551	46	C	11/16/2021	22:04	-133.772	49.709	0	236.50	0	5.1360	0	33.8310	0	26.735	0	234.345	0	84.8	4	27.5	4	-1E+10	1	-1E+10	1	-1E+10	1	-1E+10	1	-1E+10	1	-1E+10	1
4902551	46	C	11/16/2021	22:04	-133.772	49.709	0	237.50	0	5.1590	0	33.8350	0	26.736	0	235.335	0	84.3	4	27.3	4	-1E+10	1	-1E+10	1	-1E+10	1	-1E+10	1	-1E+10	1	-1E+10	1
4902551	46	C	11/16/2021	22:04	-133.772	49.709	0	238.50	0	5.0930	0	33.8340	0	26.742	0	236.325	0	83.8	4	27.1	4	-1E+10	1	-1E+10	1	-1E+10	1	-1E+10	1	-1E+10	1	-1E+10	1
4902551	46	C	11/16/2021	22:04	-133.772	49.709	0	239.60	0	5.0920	0	33.8340	0	26.743	0	237.415	0	83.4	4	27.0	4	-1E+10	1	-1E+10	1	-1E+10	1	-1E+10	1	-1E+10	1	-1E+10	1
4902551	46	C	11/16/2021	22:04	-133.772	49.709	0	240.60	0	5.0060	0	33.8380	0	26.756	0	238.405	0	83.3	4	26.9	4	-1E+10	1	-1E+10	1	-1E+10	1	-1E+10	1	-1E+10	1	-1E+10	1
4902551	46	C	11/16/2021	22:04	-133.772	49.709	0	241.70	0	5.0030	0	33.8380	0	26.756	0	239.494	0	83.1	4	26.8	4	-1E+10	1	-1E+10	1	-1E+10	1	-1E+10	1	-1E+10	1	-1E+10	1
4902551	46	C	11/16/2021	22:04	-133.772	49.709	0	242.70	0	4.9930	0	33.8390	0	26.758	0	240.484	0	82.9	4	26.7	4	-1E+10	1	-1E+10	1	-1E+10	1	-1E+10	1	-1E+10	1	-1E+10	1
4902551	46	C	11/16/2021	22:04	-133.772	49.709	0	243.60	0	4.9900	0	33.8380	0	26.757	0	241.376	0	82.7	4	26.7	4	-1E+10	1	-1E+10	1	-1E+10	1	-1E+10	1	-1E+10	1	-1E+10	1
4902551	46	C	11/16/2021	22:04	-133.772	49.709	0	244.80	0	4.9780	0	33.8380	0	26.759	0	242.564	0	82.4	4	26.6	4	-1E+10	1	-1E+10	1	-1E+10	1	-1E+10	1	-1E+10	1	-1E+10	1
4902551	46	C	11/16/2021	22:04	-133.772	49.709	0	246.00	0	4.9710	0	33.8380	0	26.760	0	243.752	0	82.0	4	26.4	4	-1E+10	1	-1E+10	1	-1E+10	1	-1E+10	1	-1E+10	1	-1E+10	1
4902551	46	C	11/16/2021	22:04	-133.772	49.709	0	247.20	0	4.9660	0	33.8380	0	26.760	0	244.941	0	81.6	4	26.3	4	-1E+10	1	-1E+10	1	-1E+10	1	-1E+10	1	-1E+10	1	-1E+10	1
4902551	46	C	11/16/2021	22:04	-133.772	49.709	0	248.00	0	4.9620	0	33.8390	0	26.761	0	245.733	0	81.3	4	26.2	4	-1E+10	1	-1E+10	1	-1E+10	1	-1E+10	1	-1E+10	1	-1E+10	1
4902551	46	C	11/16/2021	22:04	-133.772	49.709	0	248.80	0	4.9540	0	33.8400	0	26.763	0	246.525	0	81.1	4	26.1	4	-1E+10	1	-1E+10	1	-1E+10	1	-1E+10	1	-1E+10	1	-1E+10	1
4902551	46	C	11/16/2021	22:04	-133.772	49.709	0	250.00	0	4.9510	0	33.8410	0	26.764	0	247.713	0	80.8	4	26.0	4	-1E+10	1	-1E+10	1	-1E+10	1	-1E+10	1	-1E+10	1	-1E+10	1
4902551	46	C	11/16/2021	22:04	-133.772	49.709	0	251.20	0	4.9470	0	33.8420	0	26.765	0	248.902	0	80.4	4	25.9	4	-1E+10	1	-1E+10	1	-1E+10	1	-1E+10	1	-1E+10	1	-1E+10	1
4902551	46	C	11/16/2021	22:04	-133.772	49.709	0	252.00	0	4.9470	0	33.8420	0	26.766	0	249.694	0	80.2	4	25.8	4	-1E+10	1	-1E+10	1	-1E+10	1	-1E+10	1	-1E+10	1	-1E+10	1
4902551	46	C	11/16/2021	22:04	-133.772	49.709	0	252.80	0	4.9460	0	33.8420	0	26.766	0	250.486	0	80.0	4	25.8	4	-1E+10	1	-1E+10	1	-1E+10	1	-1E+10	1	-1E+10	1	-1E+10	1
4902551	46	C	11/16/2021	22:04	-133.772	49.709	0	254.00	0	4.9460	0	33.8420	0	26.766	0	251.674	0	79.6	4	25.6	4	-1E+10	1	-1E+10	1	-1E+10	1	-1E+10	1	-1E+10	1	-1E+10	1
4902551	46	C	11/16/2021	22:04	-133.772	49.709	0	255.20	0	4.9450	0	33.8420	0	26.766	0	252.863	0	79.1	4	25.5	4	-1E+10	1	-1E+10	1	-1E+10	1	-1E+10	1	-1E+10	1	-1E+10	1
4902551	46	C	11/16/2021	22:04	-133.772	49.709	0	256.00	0	4.9380	0	33.8440	0	26.768	0	253.655	0	78.9	4	25.4	4	-1E+10	1	-1E+10	1	-1E+10	1	-1E+10	1	-1E+10	1	-1E+10	1
4902551	46	C	11/16/2021	22:04	-133.772	49.709	0	256.80	0	4.9320	0	33.8450	0	26.770	0	254.447	0	78.6	4	25.3	4	-1E+10	1	-1E+10	1	-1E+10	1	-1E+10	1	-1E+10	1	-1E+10	1
4902551	46	C	11/16/2021	22:04	-133.772	49.709	0	257.70	0	4.9290	0	33.8460	0	26.771	0	255.338	0	78.3	4	25.2	4	-1E+10	1	-1E+10	1	-1E+10	1	-1E+10	1	-1E+10	1	-1E+10	1
4902551	46	C	11/16/2021	22:04	-133.772	49.709	0	258.90	0	4.9280	0	33.8460	0	26.771	0	256.527	0	77.9	4	25.1	4	-1E+10	1	-1E+10	1	-1E+10	1	-1E+10	1	-1E+10	1	-1E+10	1
4902551	46	C	11/16/2021	22:04	-133.772	49.709	0	260.10	0	4.9270	0	33.8460	0	26.771	0	257.715	0	77.4	4	24.9	4	-1E+10	1	-1E+10	1	-1E+10	1	-1E+10	1	-1E+10	1	-1E+10	1
4902551	46	C	11/16/2021	22:04	-133.772	49.709	0	261.00	0	4.9240	0	33.8480	0	26.773	0	258.606	0	76.9	4	24.8	4	-1E+10	1	-1E+10	1	-1E+10	1	-1E+10	1	-1E+10	1	-1E+10	1
4902551	46	C	11/16/2021	22:04	-133.772	49.709	0	261.80	0	4.9220	0	33.8470	0	26.772	0	259.398	0	76.7	4	24.7	4	-1E+10	1	-1E+10	1	-1E+10	1	-1E+10	1	-1E+10	1	-1E+10	1
4902551	46	C	11/16/2021	22:04	-133.772	49.709	0	263.00	0	4.9160	0	33.8490	0	26.775	0	260.586	0	76.2	4	24.5	4	-1E+10	1	-1E+10	1	-1E+10	1	-1E+10	1	-1E+10	1	-1E+10	1
4902551	46	C	11/16/2021	22:04	-133.772	49.709	0	264.20	0	4.9100	0	33.8520	0	26.778	0	261.775	0	75.9	4	24.4	4	-1E+10	1	-1E+10	1	-1E+10	1	-1E+10	1	-1E+10	1	-1E+10	1
4902551	46	C	11/16/2021	22:04	-133.772	49.709	0	265.00	0	4.9090	0	33.8530	0	26.779	0	262.567	0	75.6	4	24.3	4	-1E+10	1	-1E+10	1	-1E+10	1	-1E+10	1	-1E+10	1	-1E+10	1
4902551	46	C	11/16/2021	22:04	-133.772	49.709	0	265.90	0	4.9080	0	33.8540	0	26.780	0	263.458	0	75.4	4	24.3	4	-1E+10	1	-1E+10	1	-1E+10	1	-1E+10	1	-1E+10	1	-1E+10	1
4902551	46	C	11/16/2021	22:04	-133.772	49.709	0	266.70	0	4.9010	0	33.8570	0	26.783	0	264.250	0	75.1	4	24.2	4	-1E+10	1	-1E+10	1	-1E+10	1	-1E+10	1	-1E+10	1	-1E+10	1
4902551	46	C	11/16/2021	22:04	-133.772	49.709	0	267.90	0	4.8960	0	33.8560	0	26.782	0	265.438	0	74.8	4	24.1	4	-1E+10	1	-1E+10	1	-1E+10	1	-1E+10	1	-1E+10	1	-1E+10	1
4902551	46	C	11/16/2021	22:04	-133.772	49.709	0	269.10	0	4.8940	0	33.8570	0	26.783	0	266.626	0	74.5	4	24.0	4	-1E+10	1	-1E+10	1	-1E+10	1	-1E+10	1	-1E+10	1	-1E+10	1
4902551	46	C	11/16/2021	22:04	-133.772	49.709	0	269.90	0	4.8890	0	33.8580	0	26.785	0	267.419	0	74.2	4	23.9	4	-1E+10	1	-1E+10	1	-1E+10	1	-1E+10	1	-1E+10	1	-1E+10	1
4902551	46	C	11/16/2021	22:04	-133.772	49.709	0	270.80	0	4.8850	0	33.8590	0	26.786	0	268.310	0	74.0	4	23.8	4	-1E+10	1	-1E+10	1	-1E+10	1	-1E+10	1	-1E+10	1	-1E+10	1
4902551	46	C	11/16/2021	22:04	-133.772	49.709	0	272.00	0	4.8810	0	33.8580	0	26.786	0	269.498	0	73.6	4	23.7	4	-1E+10	1	-1E+10	1	-1E+10	1	-1E+10	1	-1E+10	1	-1E+10	1
4902551	46	C	11/16/2021	22:04	-133.772	49.709	0	273.30	0	4.8750	0	33.8590	0	26.787	0	270.785	0	73.2	4	23.5	4	-1E+10	1	-1E+10	1	-1E+10	1	-1E+10	1	-1E+10	1	-1E+10	1
4902551	46	C	11/16/2021	22:04	-133.772	49.709	0	274.10	0	4.8740	0	33.8590	0	26.787	0	271.577	0	72.9	4	23.4	4	-1E+10	1	-1E+10	1	-1E+10	1	-1E+10	1	-1E+10	1	-1E+10	1
4902551	46	C	11/16/2021	22:04	-133.772	49.709	0	275.00	0	4.8720	0	33.8600	0	26.788	0	272.468	0	72.5	4	23.3	4	-1E+10	1	-1E+10	1	-1E+10	1	-1E+10	1	-1E+10	1	-1E+10	1
4902551	46	C	11/16/2021	22:04	-133.772	49.709	0	275.80	0	4.8680	0	33.8620	0	26.790	0	273.260	0	72.2	4	23.2	4	-1E+10	1	-1E+10	1	-1E+10	1	-1E+10	1	-1E+10	1	-1E+10	1
4902551	46	C	11/16/2021	22:04	-133.772	49.709	0	276.70	0	4.8620	0	33.8630	0	26.792	0	274.152	0	71.9	4	23.1	4	-1E+10	1	-1E+10	1	-1E+10	1	-1E+10	1	-1E+10	1	-1E+10	1
4902551	46	C	11/16/2021	22:04	-133.772	49.709	0	277.90	0	4.8590	0	33.8630	0	26.792	0	275.340	0	71.5	4	23.0	4	-1E+10	1	-1E+10	1	-1E+10	1	-1E+10	1	-1E+10	1	-1E+10	1
4902551	46	C	11/16/2021	22:04	-133.772	49.709	0	279.20	0	4.8540	0	33.8650	0	26.794	0	276.627	0	71.0	4	22.8	4	-1E+10	1	-1E+10	1	-1E+10	1	-1E+10	1	-1E+10	1	-1E+10	1
4902551	46	C	11/16/2021	22:04	-133.772	49.709	0	280.10	0	4.8520	0	33.8650	0	26.795	0	277.518	0	70.7	4	22.7	4	-1E+10	1	-1E+10	1	-1E+10	1	-1E+10	1	-1E+10	1	-1E+10	1
4902551	46	C	11/16/2021	22:04	-133.772	49.709	0	280.90	0	4.8470	0	33.8660	0	26.796	0	278.310	0	70.4	4	22.6	4	-1E+10	1	-1E+10	1	-1E+10	1	-1E+10	1	-1E+10	1	-1E+10	1
4902551	46	C	11/16/2021	22:04	-133.772	49.709	0	281.80	0	4.8390	0	33.8680	0	26.798	0	279.201	0	70.1	4	22.5	4	-1E+10	1	-1E+10	1	-1E+10	1	-1E+10	1	-1E+10	1	-1E+10	1
4902551	46	C	11/16/2021	22:04	-133.772	49.709	0	282.60	0	4.8370	0	33.8690	0	26.800	0	279.993	0	69.8	4	22.4	4	-1E+10	1	-1E+10	1	-1E+10	1	-1E+10	1	-1E+10	1	-1E+10	1
4902551	46	C	11/16/2021	22:04	-133.772	49.709	0	283.90	0	4.8350	0	33.8690	0	26.800	0	281.280	0	69.2	4	22.2	4	-1E+10	1	-1E+10	1	-1E+10	1	-1E+10	1	-1E+10	1	-1E+10	1
4902551	46	C	11/16/2021	22:04	-133.772	49.709	0	285.20	0	4.8300	0	33.8700	0	26.801	0	282.567	0	68.7	4	22.1	4	-1E+10	1	-1E+10	1	-1E+10	1	-1E+10	1	-1E+10	1	-1E+10	1
4902551	46	C	11/16/2021	22:04	-133.772	49.709	0	286.10	0	4.8280	0	33.8730	0	26.804	0	283.459	0	68.4	4	22.0	4	-1E+10	1	-1E+10	1	-1E+10	1	-1E+10	1	-1E+10	1	-1E+10	1
4902551	46	C	11/16/2021	22:04	-133.772	49.709	0	287.00	0	4.8240	0	33.8760	0	26.807	0	284.350	0	68.2	4	21.9	4	-1E+10	1	-1E+10	1	-1E+10	1	-1E+10	1	-1E+10	1	-1E+10	1
4902551	46	C	11/16/2021	22:04	-133.772	49.709	0	287.90	0	4.8230	0	33.8780	0	26.808	0	285.241	0	68.0	4	21.8	4	-1E+10	1	-1E+10	1	-1E+10	1	-1E+10	1	-1E+10	1	-1E+10	1
4902551	46	C	11/16/2021	22:04	-133.772	49.709	0	288.70	0	4.8220	0	33.8780	0	26.808	0	286.033	0	67.8	4	21.8	4	-1E+10	1	-1E+10	1	-1E+10	1	-1E+10	1	-1E+10	1	-1E+10	1
4902551	46	C	11/16/2021	22:04	-133.772	49.709	0	289.60	0	4.8220	0	33.8780	0	26.808	0	286.924	0	67.5	4	21.7	4	-1E+10	1	-1E+10	1	-1E+10	1	-1E+10	1	-1E+10	1	-1E+10	1
4902551	46	C	11/16/2021	22:04	-133.772	49.709	0	290.90	0	4.8180	0	33.8790	0	26.810	0	288.211	0	67.2	4	21.6	4	-1E+10	1	-1E+10	1	-1E+10	1	-1E+10	1	-1E+10	1	-1E+10	1
4902551	46	C	11/16/2021	22:04	-133.772	49.709	0	292.30	0	4.7970	0	33.8810	0	26.814	0	289.597	0	66.8	4	21.5	4	-1E+10	1	-1E+10	1	-1E+10	1	-1E+10	1	-1E+10	1	-1E+10	1
4902551	46	C	11/16/2021	22:04	-133.772	49.709	0	293.20	0	4.7960	0	33.8790	0	26.812	0	290.488	0	66.6	4	21.4	4	-1E+10	1	-1E+10	1	-1E+10	1	-1E+10	1	-1E+10	1	-1E+10	1
4902551	46	C	11/16/2021	22:04	-133.772	49.709	0	294.10	0	4.7960	0	33.8800	0	26.813	0	291.379	0	66.3	4	21.3	4	-1E+10	1	-1E+10	1	-1E+10	1	-1E+10	1	-1E+10	1	-1E+10	1
4902551	46	C	11/16/2021	22:04	-133.772	49.709	0	295.00	0	4.7950	0	33.8800	0	26.813	0	292.270	0	66.0	4	21.2	4	-1E+10	1	-1E+10	1	-1E+10	1	-1E+10	1	-1E+10	1	-1E+10	1
4902551	46	C	11/16/2021	22:04	-133.772	49.709	0	295.90	0	4.7910	0	33.8800	0	26.813	0	293.161	0	65.7	4	21.1	4	-1E+10	1	-1E+10	1	-1E+10	1	-1E+10	1	-1E+10	1	-1E+10	1
4902551	46	C	11/16/2021	22:04	-133.772	49.709	0	296.80	0	4.7850	0	33.8810	0	26.815	0	294.052	0	65.3	4	21.0	4	-1E+10	1	-1E+10	1	-1E+10	1	-1E+10	1	-1E+10	1	-1E+10	1
4902551	46	C	11/16/2021	22:04	-133.772	49.709	0	297.60	0	4.7830	0	33.8810	0	26.815	0	294.844	0	64.9	4	20.8	4	-1E+10	1	-1E+10	1	-1E+10	1	-1E+10	1	-1E+10	1	-1E+10	1
4902551	46	C	11/16/2021	22:04	-133.772	49.709	0	298.90	0	4.7790	0	33.8810	0	26.816	0	296.131	0	64.3	4	20.6	4	-1E+10	1	-1E+10	1	-1E+10	1	-1E+10	1	-1E+10	1	-1E+10	1
4902551	46	C	11/16/2021	22:04	-133.772	49.709	0	300.30	0	4.7680	0	33.8840	0	26.819	0	297.517	0	63.6	4	20.4	4	-1E+10	1	-1E+10	1	-1E+10	1	-1E+10	1	-1E+10	1	-1E+10	1
4902551	46	C	11/16/2021	22:04	-133.772	49.709	0	301.20	0	4.7710	0	33.8870	0	26.821	0	298.408	0	63.2	4	20.3	4	-1E+10	1	-1E+10	1	-1E+10	1	-1E+10	1	-1E+10	1	-1E+10	1
4902551	46	C	11/16/2021	22:04	-133.772	49.709	0	302.10	0	4.7740	0	33.8910	0	26.824	0	299.299	0	63.0	4	20.2	4	-1E+10	1	-1E+10	1	-1E+10	1	-1E+10	1	-1E+10	1	-1E+10	1
4902551	46	C	11/16/2021	22:04	-133.772	49.709	0	303.00	0	4.7740	0	33.8920	0	26.825	0	300.190	0	62.7	4	20.1	4	-1E+10	1	-1E+10	1	-1E+10	1	-1E+10	1	-1E+10	1	-1E+10	1
4902551	46	C	11/16/2021	22:04	-133.772	49.709	0	303.90	0	4.7760	0	33.8940	0	26.826	0	301.081	0	62.5	4	20.0	4	-1E+10	1	-1E+10	1	-1E+10	1	-1E+10	1	-1E+10	1	-1E+10	1
4902551	46	C	11/16/2021	22:04	-133.772	49.709	0	304.70	0	4.7770	0	33.8950	0	26.827	0	301.873	0	62.2	4	20.0	4	-1E+10	1	-1E+10	1	-1E+10	1	-1E+10	1	-1E+10	1	-1E+10	1
4902551	46	C	11/16/2021	22:04	-133.772	49.709	0	305.60	0	4.7720	0	33.8960	0	26.828	0	302.764	0	62.0	4	19.9	4	-1E+10	1	-1E+10	1	-1E+10	1	-1E+10	1	-1E+10	1	-1E+10	1
4902551	46	C	11/16/2021	22:04	-133.772	49.709	0	306.90	0	4.7700	0	33.8960	0	26.829	0	304.051	0	61.7	4	19.8	4	-1E+10	1	-1E+10	1	-1E+10	1	-1E+10	1	-1E+10	1	-1E+10	1
4902551	46	C	11/16/2021	22:04	-133.772	49.709	0	308.40	0	4.7610	0	33.8980	0	26.831	0	305.536	0	61.3	4	19.7	4	-1E+10	1	-1E+10	1	-1E+10	1	-1E+10	1	-1E+10	1	-1E+10	1
4902551	46	C	11/16/2021	22:04	-133.772	49.709	0	309.20	0	4.7560	0	33.9000	0	26.833	0	306.328	0	61.1	4	19.6	4	-1E+10	1	-1E+10	1	-1E+10	1	-1E+10	1	-1E+10	1	-1E+10	1
4902551	46	C	11/16/2021	22:04	-133.772	49.709	0	310.10	0	4.7530	0	33.9000	0	26.834	0	307.219	0	61.0	4	19.6	4	-1E+10	1	-1E+10	1	-1E+10	1	-1E+10	1	-1E+10	1	-1E+10	1
4902551	46	C	11/16/2021	22:04	-133.772	49.709	0	311.10	0	4.7510	0	33.9000	0	26.834	0	308.209	0	60.9	4	19.5	4	-1E+10	1	-1E+10	1	-1E+10	1	-1E+10	1	-1E+10	1	-1E+10	1
4902551	46	C	11/16/2021	22:04	-133.772	49.709	0	312.00	0	4.7480	0	33.9010	0	26.835	0	309.100	0	60.7	4	19.5	4	-1E+10	1	-1E+10	1	-1E+10	1	-1E+10	1	-1E+10	1	-1E+10	1
4902551	46	C	11/16/2021	22:04	-133.772	49.709	0	312.90	0	4.7440	0	33.9020	0	26.836	0	309.991	0	60.6	4	19.4	4	-1E+10	1	-1E+10	1	-1E+10	1	-1E+10	1	-1E+10	1	-1E+10	1
4902551	46	C	11/16/2021	22:04	-133.772	49.709	0	313.80	0	4.7390	0	33.9030	0	26.838	0	310.882	0	60.4	4	19.4	4	-1E+10	1	-1E+10	1	-1E+10	1	-1E+10	1	-1E+10	1	-1E+10	1
4902551	46	C	11/16/2021	22:04	-133.772	49.709	0	314.80	0	4.7390	0	33.9030	0	26.838	0	311.872	0	60.2	4	19.3	4	-1E+10	1	-1E+10	1	-1E+10	1	-1E+10	1	-1E+10	1	-1E+10	1
4902551	46	C	11/16/2021	22:04	-133.772	49.709	0	315.70	0	4.7350	0	33.9040	0	26.839	0	312.763	0	60.1	4	19.3	4	-1E+10	1	-1E+10	1	-1E+10	1	-1E+10	1	-1E+10	1	-1E+10	1
4902551	46	C	11/16/2021	22:04	-133.772	49.709	0	316.60	0	4.7310	0	33.9050	0	26.840	0	313.654	0	60.0	4	19.2	4	-1E+10	1	-1E+10	1	-1E+10	1	-1E+10	1	-1E+10	1	-1E+10	1
4902551	46	C	11/16/2021	22:04	-133.772	49.709	0	317.60	0	4.7300	0	33.9050	0	26.840	0	314.644	0	59.8	4	19.2	4	-1E+10	1	-1E+10	1	-1E+10	1	-1E+10	1	-1E+10	1	-1E+10	1
4902551	46	C	11/16/2021	22:04	-133.772	49.709	0	318.90	0	4.7290	0	33.9060	0	26.841	0	315.931	0	59.5	4	19.1	4	-1E+10	1	-1E+10	1	-1E+10	1	-1E+10	1	-1E+10	1	-1E+10	1
4902551	46	C	11/16/2021	22:04	-133.772	49.709	0	320.40	0	4.7280	0	33.9050	0	26.840	0	317.416	0	59.3	4	19.0	4	-1E+10	1	-1E+10	1	-1E+10	1	-1E+10	1	-1E+10	1	-1E+10	1
4902551	46	C	11/16/2021	22:04	-133.772	49.709	0	321.30	0	4.7270	0	33.9050	0	26.841	0	318.307	0	59.1	4	19.0	4	-1E+10	1	-1E+10	1	-1E+10	1	-1E+10	1	-1E+10	1	-1E+10	1
4902551	46	C	11/16/2021	22:04	-133.772	49.709	0	322.20	0	4.7270	0	33.9060	0	26.841	0	319.197	0	58.9	4	18.9	4	-1E+10	1	-1E+10	1	-1E+10	1	-1E+10	1	-1E+10	1	-1E+10	1
4902551	46	C	11/16/2021	22:04	-133.772	49.709	0	323.20	0	4.7270	0	33.9060	0	26.841	0	320.187	0	58.6	4	18.8	4	-1E+10	1	-1E+10	1	-1E+10	1	-1E+10	1	-1E+10	1	-1E+10	1
4902551	46	C	11/16/2021	22:04	-133.772	49.709	0	324.10	0	4.7270	0	33.9060	0	26.841	0	321.078	0	58.3	4	18.7	4	-1E+10	1	-1E+10	1	-1E+10	1	-1E+10	1	-1E+10	1	-1E+10	1
4902551	46	C	11/16/2021	22:04	-133.772	49.709	0	325.00	0	4.7260	0	33.9060	0	26.842	0	321.969	0	58.0	4	18.6	4	-1E+10	1	-1E+10	1	-1E+10	1	-1E+10	1	-1E+10	1	-1E+10	1
4902551	46	C	11/16/2021	22:04	-133.772	49.709	0	326.00	0	4.7260	0	33.9060	0	26.842	0	322.959	0	57.6	4	18.5	4	-1E+10	1	-1E+10	1	-1E+10	1	-1E+10	1	-1E+10	1	-1E+10	1
4902551	46	C	11/16/2021	22:04	-133.772	49.709	0	326.90	0	4.7240	0	33.9060	0	26.842	0	323.850	0	57.3	4	18.4	4	-1E+10	1	-1E+10	1	-1E+10	1	-1E+10	1	-1E+10	1	-1E+10	1
4902551	46	C	11/16/2021	22:04	-133.772	49.709	0	327.80	0	4.7100	0	33.9100	0	26.846	0	324.741	0	57.0	4	18.3	4	-1E+10	1	-1E+10	1	-1E+10	1	-1E+10	1	-1E+10	1	-1E+10	1
4902551	46	C	11/16/2021	22:04	-133.772	49.709	0	328.80	0	4.7020	0	33.9120	0	26.849	0	325.731	0	56.8	4	18.2	4	-1E+10	1	-1E+10	1	-1E+10	1	-1E+10	1	-1E+10	1	-1E+10	1
4902551	46	C	11/16/2021	22:04	-133.772	49.709	0	329.70	0	4.6980	0	33.9130	0	26.850	0	326.622	0	56.5	4	18.1	4	-1E+10	1	-1E+10	1	-1E+10	1	-1E+10	1	-1E+10	1	-1E+10	1
4902551	46	C	11/16/2021	22:04	-133.772	49.709	0	330.70	0	4.6950	0	33.9140	0	26.851	0	327.612	0	56.3	4	18.0	4	-1E+10	1	-1E+10	1	-1E+10	1	-1E+10	1	-1E+10	1	-1E+10	1
4902551	46	C	11/16/2021	22:04	-133.772	49.709	0	331.60	0	4.6920	0	33.9150	0	26.852	0	328.502	0	56.1	4	18.0	4	-1E+10	1	-1E+10	1	-1E+10	1	-1E+10	1	-1E+10	1	-1E+10	1
4902551	46	C	11/16/2021	22:04	-133.772	49.709	0	332.50	0	4.6900	0	33.9140	0	26.852	0	329.393	0	55.8	4	17.9	4	-1E+10	1	-1E+10	1	-1E+10	1	-1E+10	1	-1E+10	1	-1E+10	1
4902551	46	C	11/16/2021	22:04	-133.772	49.709	0	333.90	0	4.6810	0	33.9170	0	26.855	0	330.779	0	55.5	4	17.8	4	-1E+10	1	-1E+10	1	-1E+10	1	-1E+10	1	-1E+10	1	-1E+10	1
4902551	46	C	11/16/2021	22:04	-133.772	49.709	0	335.40	0	4.6730	0	33.9180	0	26.857	0	332.264	0	55.1	4	17.7	4	-1E+10	1	-1E+10	1	-1E+10	1	-1E+10	1	-1E+10	1	-1E+10	1
4902551	46	C	11/16/2021	22:04	-133.772	49.709	0	336.30	0	4.6710	0	33.9180	0	26.857	0	333.155	0	54.9	4	17.6	4	-1E+10	1	-1E+10	1	-1E+10	1	-1E+10	1	-1E+10	1	-1E+10	1
4902551	46	C	11/16/2021	22:04	-133.772	49.709	0	337.20	0	4.6690	0	33.9190	0	26.858	0	334.046	0	54.7	4	17.5	4	-1E+10	1	-1E+10	1	-1E+10	1	-1E+10	1	-1E+10	1	-1E+10	1
4902551	46	C	11/16/2021	22:04	-133.772	49.709	0	338.20	0	4.6650	0	33.9190	0	26.859	0	335.035	0	54.4	4	17.4	4	-1E+10	1	-1E+10	1	-1E+10	1	-1E+10	1	-1E+10	1	-1E+10	1
4902551	46	C	11/16/2021	22:04	-133.772	49.709	0	339.10	0	4.6610	0	33.9200	0	26.860	0	335.926	0	54.1	4	17.3	4	-1E+10	1	-1E+10	1	-1E+10	1	-1E+10	1	-1E+10	1	-1E+10	1
4902551	46	C	11/16/2021	22:04	-133.772	49.709	0	340.10	0	4.6580	0	33.9210	0	26.861	0	336.916	0	53.8	4	17.2	4	-1E+10	1	-1E+10	1	-1E+10	1	-1E+10	1	-1E+10	1	-1E+10	1
4902551	46	C	11/16/2021	22:04	-133.772	49.709	0	341.00	0	4.6540	0	33.9210	0	26.861	0	337.807	0	53.5	4	17.1	4	-1E+10	1	-1E+10	1	-1E+10	1	-1E+10	1	-1E+10	1	-1E+10	1
4902551	46	C	11/16/2021	22:04	-133.772	49.709	0	341.90	0	4.6500	0	33.9220	0	26.863	0	338.698	0	53.2	4	17.0	4	-1E+10	1	-1E+10	1	-1E+10	1	-1E+10	1	-1E+10	1	-1E+10	1
4902551	46	C	11/16/2021	22:04	-133.772	49.709	0	342.90	0	4.6470	0	33.9230	0	26.864	0	339.688	0	52.9	4	16.9	4	-1E+10	1	-1E+10	1	-1E+10	1	-1E+10	1	-1E+10	1	-1E+10	1
4902551	46	C	11/16/2021	22:04	-133.772	49.709	0	343.80	0	4.6400	0	33.9250	0	26.866	0	340.578	0	52.6	4	16.8	4	-1E+10	1	-1E+10	1	-1E+10	1	-1E+10	1	-1E+10	1	-1E+10	1
4902551	46	C	11/16/2021	22:04	-133.772	49.709	0	344.80	0	4.6350	0	33.9250	0	26.867	0	341.568	0	52.3	4	16.7	4	-1E+10	1	-1E+10	1	-1E+10	1	-1E+10	1	-1E+10	1	-1E+10	1
4902551	46	C	11/16/2021	22:04	-133.772	49.709	0	345.70	0	4.6260	0	33.9270	0	26.869	0	342.459	0	52.0	4	16.6	4	-1E+10	1	-1E+10	1	-1E+10	1	-1E+10	1	-1E+10	1	-1E+10	1
4902551	46	C	11/16/2021	22:04	-133.772	49.709	0	346.70	0	4.6200	0	33.9280	0	26.871	0	343.449	0	51.7	4	16.5	4	-1E+10	1	-1E+10	1	-1E+10	1	-1E+10	1	-1E+10	1	-1E+10	1
4902551	46	C	11/16/2021	22:04	-133.772	49.709	0	347.60	0	4.6160	0	33.9290	0	26.872	0	344.340	0	51.4	4	16.4	4	-1E+10	1	-1E+10	1	-1E+10	1	-1E+10	1	-1E+10	1	-1E+10	1
4902551	46	C	11/16/2021	22:04	-133.772	49.709	0	348.60	0	4.6110	0	33.9300	0	26.873	0	345.329	0	51.1	4	16.3	4	-1E+10	1	-1E+10	1	-1E+10	1	-1E+10	1	-1E+10	1	-1E+10	1
4902551	46	C	11/16/2021	22:04	-133.772	49.709	0	349.50	0	4.6070	0	33.9310	0	26.875	0	346.220	0	50.8	4	16.2	4	-1E+10	1	-1E+10	1	-1E+10	1	-1E+10	1	-1E+10	1	-1E+10	1
4902551	46	C	11/16/2021	22:04	-133.772	49.709	0	352.80	0	4.5800	0	33.9370	0	26.882	0	349.486	0	49.9	4	16.0	4	-1E+10	1	-1E+10	1	-1E+10	1	-1E+10	1	-1E+10	1	-1E+10	1
4902551	46	C	11/16/2021	22:04	-133.772	49.709	0	358.00	0	4.5570	0	33.9420	0	26.889	0	354.633	0	48.8	4	15.6	4	-1E+10	1	-1E+10	1	-1E+10	1	-1E+10	1	-1E+10	1	-1E+10	1
4902551	46	C	11/16/2021	22:04	-133.772	49.709	0	362.80	0	4.5330	0	33.9500	0	26.898	0	359.384	0	47.9	4	15.3	4	-1E+10	1	-1E+10	1	-1E+10	1	-1E+10	1	-1E+10	1	-1E+10	1
4902551	46	C	11/16/2021	22:04	-133.772	49.709	0	368.00	0	4.5120	0	33.9540	0	26.903	0	364.530	0	46.9	4	15.0	4	-1E+10	1	-1E+10	1	-1E+10	1	-1E+10	1	-1E+10	1	-1E+10	1
4902551	46	C	11/16/2021	22:04	-133.772	49.709	0	373.20	0	4.4920	0	33.9600	0	26.910	0	369.677	0	46.1	4	14.7	4	-1E+10	1	-1E+10	1	-1E+10	1	-1E+10	1	-1E+10	1	-1E+10	1
4902551	46	C	11/16/2021	22:04	-133.772	49.709	0	378.00	0	4.4700	0	33.9650	0	26.917	0	374.427	0	45.5	4	14.5	4	-1E+10	1	-1E+10	1	-1E+10	1	-1E+10	1	-1E+10	1	-1E+10	1
4902551	46	C	11/16/2021	22:04	-133.772	49.709	0	382.70	0	4.4610	0	33.9680	0	26.920	0	379.078	0	44.9	4	14.3	4	-1E+10	1	-1E+10	1	-1E+10	1	-1E+10	1	-1E+10	1	-1E+10	1
4902551	46	C	11/16/2021	22:04	-133.772	49.709	0	388.00	0	4.4440	0	33.9730	0	26.926	0	384.323	0	43.5	4	13.9	4	-1E+10	1	-1E+10	1	-1E+10	1	-1E+10	1	-1E+10	1	-1E+10	1
4902551	46	C	11/16/2021	22:04	-133.772	49.709	0	393.30	0	4.4230	0	33.9810	0	26.934	0	389.568	0	42.4	4	13.5	4	-1E+10	1	-1E+10	1	-1E+10	1	-1E+10	1	-1E+10	1	-1E+10	1
4902551	46	C	11/16/2021	22:04	-133.772	49.709	0	398.20	0	4.4040	0	33.9880	0	26.942	0	394.417	0	42.0	4	13.4	4	-1E+10	1	-1E+10	1	-1E+10	1	-1E+10	1	-1E+10	1	-1E+10	1
4902551	46	C	11/16/2021	22:04	-133.772	49.709	0	403.10	0	4.3990	0	33.9890	0	26.943	0	399.266	0	41.5	4	13.2	4	-1E+10	1	-1E+10	1	-1E+10	1	-1E+10	1	-1E+10	1	-1E+10	1
4902551	46	C	11/16/2021	22:04	-133.772	49.709	0	408.20	0	4.3860	0	33.9920	0	26.947	0	404.312	0	40.8	4	13.0	4	-1E+10	1	-1E+10	1	-1E+10	1	-1E+10	1	-1E+10	1	-1E+10	1
4902551	46	C	11/16/2021	22:04	-133.772	49.709	0	413.30	0	4.3740	0	33.9970	0	26.953	0	409.359	0	40.1	4	12.7	4	-1E+10	1	-1E+10	1	-1E+10	1	-1E+10	1	-1E+10	1	-1E+10	1
4902551	46	C	11/16/2021	22:04	-133.772	49.709	0	418.00	0	4.3640	0	34.0030	0	26.958	0	414.009	0	39.6	4	12.6	4	-1E+10	1	-1E+10	1	-1E+10	1	-1E+10	1	-1E+10	1	-1E+10	1
4902551	46	C	11/16/2021	22:04	-133.772	49.709	0	422.70	0	4.3520	0	34.0070	0	26.963	0	418.659	0	39.3	4	12.5	4	-1E+10	1	-1E+10	1	-1E+10	1	-1E+10	1	-1E+10	1	-1E+10	1
4902551	46	C	11/16/2021	22:04	-133.772	49.709	0	428.00	0	4.3390	0	34.0110	0	26.967	0	423.903	0	38.4	4	12.2	4	-1E+10	1	-1E+10	1	-1E+10	1	-1E+10	1	-1E+10	1	-1E+10	1
4902551	46	C	11/16/2021	22:04	-133.772	49.709	0	433.30	0	4.3220	0	34.0190	0	26.976	0	429.147	0	37.4	4	11.9	4	-1E+10	1	-1E+10	1	-1E+10	1	-1E+10	1	-1E+10	1	-1E+10	1
4902551	46	C	11/16/2021	22:04	-133.772	49.709	0	438.00	0	4.3130	0	34.0230	0	26.980	0	433.797	0	37.1	4	11.8	4	-1E+10	1	-1E+10	1	-1E+10	1	-1E+10	1	-1E+10	1	-1E+10	1
4902551	46	C	11/16/2021	22:04	-133.772	49.709	0	442.60	0	4.2950	0	34.0260	0	26.984	0	438.348	0	36.5	4	11.6	4	-1E+10	1	-1E+10	1	-1E+10	1	-1E+10	1	-1E+10	1	-1E+10	1
4902551	46	C	11/16/2021	22:04	-133.772	49.709	0	447.70	0	4.2800	0	34.0320	0	26.991	0	443.394	0	35.1	4	11.1	4	-1E+10	1	-1E+10	1	-1E+10	1	-1E+10	1	-1E+10	1	-1E+10	1
4902551	46	C	11/16/2021	22:04	-133.772	49.709	0	452.90	0	4.2670	0	34.0380	0	26.997	0	448.538	0	33.8	4	10.7	4	-1E+10	1	-1E+10	1	-1E+10	1	-1E+10	1	-1E+10	1	-1E+10	1
4902551	46	C	11/16/2021	22:04	-133.772	49.709	0	458.00	0	4.2500	0	34.0470	0	27.006	0	453.583	0	32.6	4	10.4	4	-1E+10	1	-1E+10	1	-1E+10	1	-1E+10	1	-1E+10	1	-1E+10	1
4902551	46	C	11/16/2021	22:04	-133.772	49.709	0	462.80	0	4.2370	0	34.0520	0	27.011	0	458.332	0	32.3	4	10.2	4	-1E+10	1	-1E+10	1	-1E+10	1	-1E+10	1	-1E+10	1	-1E+10	1
4902551	46	C	11/16/2021	22:04	-133.772	49.709	0	468.00	0	4.2250	0	34.0550	0	27.015	0	463.476	0	31.8	4	10.1	4	-1E+10	1	-1E+10	1	-1E+10	1	-1E+10	1	-1E+10	1	-1E+10	1
4902551	46	C	11/16/2021	22:04	-133.772	49.709	0	473.30	0	4.2040	0	34.0620	0	27.023	0	468.719	0	30.9	4	9.8	4	-1E+10	1	-1E+10	1	-1E+10	1	-1E+10	1	-1E+10	1	-1E+10	1
4902551	46	C	11/16/2021	22:04	-133.772	49.709	0	478.10	0	4.1860	0	34.0680	0	27.029	0	473.467	0	30.0	4	9.5	4	-1E+10	1	-1E+10	1	-1E+10	1	-1E+10	1	-1E+10	1	-1E+10	1
4902551	46	C	11/16/2021	22:04	-133.772	49.709	0	483.20	0	4.1710	0	34.0760	0	27.037	0	478.511	0	29.1	4	9.2	4	-1E+10	1	-1E+10	1	-1E+10	1	-1E+10	1	-1E+10	1	-1E+10	1
4902551	46	C	11/16/2021	22:04	-133.772	49.709	0	488.20	0	4.1680	0	34.0790	0	27.040	0	483.457	0	28.8	4	9.1	4	-1E+10	1	-1E+10	1	-1E+10	1	-1E+10	1	-1E+10	1	-1E+10	1
4902551	46	C	11/16/2021	22:04	-133.772	49.709	0	492.90	0	4.1620	0	34.0790	0	27.041	0	488.106	0	28.4	4	9.0	4	-1E+10	1	-1E+10	1	-1E+10	1	-1E+10	1	-1E+10	1	-1E+10	1
4902551	46	C	11/16/2021	22:04	-133.772	49.709	0	497.70	0	4.1460	0	34.0860	0	27.048	0	492.854	0	28.2	4	8.9	4	-1E+10	1	-1E+10	1	-1E+10	1	-1E+10	1	-1E+10	1	-1E+10	1
4902551	46	C	11/16/2021	22:04	-133.772	49.709	0	502.90	0	4.1330	0	34.0890	0	27.052	0	497.997	0	28.0	4	8.9	4	-1E+10	1	-1E+10	1	-1E+10	1	-1E+10	1	-1E+10	1	-1E+10	1
4902551	46	C	11/16/2021	22:04	-133.772	49.709	0	508.20	0	4.1240	0	34.0910	0	27.054	0	503.239	0	27.7	4	8.8	4	-1E+10	1	-1E+10	1	-1E+10	1	-1E+10	1	-1E+10	1	-1E+10	1
4902551	46	C	11/16/2021	22:04	-133.772	49.709	0	513.10	0	4.1120	0	34.0950	0	27.059	0	508.085	0	27.4	4	8.7	4	-1E+10	1	-1E+10	1	-1E+10	1	-1E+10	1	-1E+10	1	-1E+10	1
4902551	46	C	11/16/2021	22:04	-133.772	49.709	0	518.00	0	4.1040	0	34.0970	0	27.061	0	512.931	0	27.2	4	8.6	4	-1E+10	1	-1E+10	1	-1E+10	1	-1E+10	1	-1E+10	1	-1E+10	1
4902551	46	C	11/16/2021	22:04	-133.772	49.709	0	523.00	0	4.0940	0	34.1000	0	27.065	0	517.876	0	27.0	4	8.5	4	-1E+10	1	-1E+10	1	-1E+10	1	-1E+10	1	-1E+10	1	-1E+10	1
4902551	46	C	11/16/2021	22:04	-133.772	49.709	0	528.00	0	4.0840	0	34.1030	0	27.068	0	522.820	0	26.9	4	8.5	4	-1E+10	1	-1E+10	1	-1E+10	1	-1E+10	1	-1E+10	1	-1E+10	1
4902551	46	C	11/16/2021	22:04	-133.772	49.709	0	533.10	0	4.0750	0	34.1050	0	27.071	0	527.864	0	26.7	4	8.4	4	-1E+10	1	-1E+10	1	-1E+10	1	-1E+10	1	-1E+10	1	-1E+10	1
4902551	46	C	11/16/2021	22:04	-133.772	49.709	0	538.10	0	4.0660	0	34.1080	0	27.074	0	532.808	0	26.5	4	8.4	4	-1E+10	1	-1E+10	1	-1E+10	1	-1E+10	1	-1E+10	1	-1E+10	1
4902551	46	C	11/16/2021	22:04	-133.772	49.709	0	543.20	0	4.0510	0	34.1110	0	27.078	0	537.852	0	26.3	4	8.3	4	-1E+10	1	-1E+10	1	-1E+10	1	-1E+10	1	-1E+10	1	-1E+10	1
4902551	46	C	11/16/2021	22:04	-133.772	49.709	0	548.10	0	4.0350	0	34.1160	0	27.083	0	542.697	0	26.1	4	8.3	4	-1E+10	1	-1E+10	1	-1E+10	1	-1E+10	1	-1E+10	1	-1E+10	1
4902551	46	C	11/16/2021	22:04	-133.772	49.709	0	553.10	0	4.0210	0	34.1190	0	27.087	0	547.641	0	26.0	4	8.2	4	-1E+10	1	-1E+10	1	-1E+10	1	-1E+10	1	-1E+10	1	-1E+10	1
4902551	46	C	11/16/2021	22:04	-133.772	49.709	0	558.00	0	4.0030	0	34.1230	0	27.092	0	552.486	0	25.8	4	8.2	4	-1E+10	1	-1E+10	1	-1E+10	1	-1E+10	1	-1E+10	1	-1E+10	1
4902551	46	C	11/16/2021	22:04	-133.772	49.709	0	563.00	0	3.9860	0	34.1270	0	27.097	0	557.430	0	25.6	4	8.1	4	-1E+10	1	-1E+10	1	-1E+10	1	-1E+10	1	-1E+10	1	-1E+10	1
4902551	46	C	11/16/2021	22:04	-133.772	49.709	0	568.00	0	3.9790	0	34.1300	0	27.100	0	562.374	0	25.4	4	8.0	4	-1E+10	1	-1E+10	1	-1E+10	1	-1E+10	1	-1E+10	1	-1E+10	1
4902551	46	C	11/16/2021	22:04	-133.772	49.709	0	573.00	0	3.9710	0	34.1320	0	27.103	0	567.318	0	25.1	4	7.9	4	-1E+10	1	-1E+10	1	-1E+10	1	-1E+10	1	-1E+10	1	-1E+10	1
4902551	46	C	11/16/2021	22:04	-133.772	49.709	0	577.70	0	3.9600	0	34.1350	0	27.106	0	571.965	0	24.9	4	7.9	4	-1E+10	1	-1E+10	1	-1E+10	1	-1E+10	1	-1E+10	1	-1E+10	1
4902551	46	C	11/16/2021	22:04	-133.772	49.709	0	582.80	0	3.9510	0	34.1380	0	27.110	0	577.007	0	24.6	4	7.8	4	-1E+10	1	-1E+10	1	-1E+10	1	-1E+10	1	-1E+10	1	-1E+10	1
4902551	46	C	11/16/2021	22:04	-133.772	49.709	0	588.00	0	3.9360	0	34.1420	0	27.115	0	582.148	0	24.3	4	7.6	4	-1E+10	1	-1E+10	1	-1E+10	1	-1E+10	1	-1E+10	1	-1E+10	1
4902551	46	C	11/16/2021	22:04	-133.772	49.709	0	592.70	0	3.9250	0	34.1450	0	27.118	0	586.795	0	23.9	4	7.5	4	-1E+10	1	-1E+10	1	-1E+10	1	-1E+10	1	-1E+10	1	-1E+10	1
4902551	46	C	11/16/2021	22:04	-133.772	49.709	0	598.00	0	3.9100	0	34.1500	0	27.124	0	592.034	0	23.3	4	7.4	4	-1E+10	1	-1E+10	1	-1E+10	1	-1E+10	1	-1E+10	1	-1E+10	1
4902551	46	C	11/16/2021	22:04	-133.772	49.709	0	603.30	0	3.8880	0	34.1560	0	27.131	0	597.274	0	22.9	4	7.2	4	-1E+10	1	-1E+10	1	-1E+10	1	-1E+10	1	-1E+10	1	-1E+10	1
4902551	46	C	11/16/2021	22:04	-133.772	49.709	0	607.80	0	3.8810	0	34.1580	0	27.133	0	601.722	0	22.6	4	7.1	4	-1E+10	1	-1E+10	1	-1E+10	1	-1E+10	1	-1E+10	1	-1E+10	1
4902551	46	C	11/16/2021	22:04	-133.772	49.709	0	612.70	0	3.8630	0	34.1630	0	27.139	0	606.566	0	22.0	4	6.9	4	-1E+10	1	-1E+10	1	-1E+10	1	-1E+10	1	-1E+10	1	-1E+10	1
4902551	46	C	11/16/2021	22:04	-133.772	49.709	0	618.20	0	3.8380	0	34.1710	0	27.148	0	612.003	0	21.4	4	6.7	4	-1E+10	1	-1E+10	1	-1E+10	1	-1E+10	1	-1E+10	1	-1E+10	1
4902551	46	C	11/16/2021	22:04	-133.772	49.709	0	622.70	0	3.8270	0	34.1740	0	27.151	0	616.451	0	21.0	4	6.6	4	-1E+10	1	-1E+10	1	-1E+10	1	-1E+10	1	-1E+10	1	-1E+10	1
4902551	46	C	11/16/2021	22:04	-133.772	49.709	0	627.50	0	3.8020	0	34.1810	0	27.159	0	621.196	0	20.7	4	6.5	4	-1E+10	1	-1E+10	1	-1E+10	1	-1E+10	1	-1E+10	1	-1E+10	1
4902551	46	C	11/16/2021	22:04	-133.772	49.709	0	632.70	0	3.7850	0	34.1860	0	27.165	0	626.336	0	20.5	4	6.4	4	-1E+10	1	-1E+10	1	-1E+10	1	-1E+10	1	-1E+10	1	-1E+10	1
4902551	46	C	11/16/2021	22:04	-133.772	49.709	0	637.90	0	3.7780	0	34.1880	0	27.167	0	631.476	0	20.3	4	6.4	4	-1E+10	1	-1E+10	1	-1E+10	1	-1E+10	1	-1E+10	1	-1E+10	1
4902551	46	C	11/16/2021	22:04	-133.772	49.709	0	642.80	0	3.7610	0	34.1930	0	27.173	0	636.319	0	20.1	4	6.3	4	-1E+10	1	-1E+10	1	-1E+10	1	-1E+10	1	-1E+10	1	-1E+10	1
4902551	46	C	11/16/2021	22:04	-133.772	49.709	0	648.00	0	3.7560	0	34.1940	0	27.174	0	641.458	0	19.8	4	6.2	4	-1E+10	1	-1E+10	1	-1E+10	1	-1E+10	1	-1E+10	1	-1E+10	1
4902551	46	C	11/16/2021	22:04	-133.772	49.709	0	653.30	0	3.7450	0	34.1980	0	27.179	0	646.697	0	19.6	4	6.2	4	-1E+10	1	-1E+10	1	-1E+10	1	-1E+10	1	-1E+10	1	-1E+10	1
4902551	46	C	11/16/2021	22:04	-133.772	49.709	0	658.20	0	3.7320	0	34.2010	0	27.182	0	651.539	0	19.5	4	6.1	4	-1E+10	1	-1E+10	1	-1E+10	1	-1E+10	1	-1E+10	1	-1E+10	1
4902551	46	C	11/16/2021	22:04	-133.772	49.709	0	663.30	0	3.7190	0	34.2040	0	27.186	0	656.580	0	19.4	4	6.1	4	-1E+10	1	-1E+10	1	-1E+10	1	-1E+10	1	-1E+10	1	-1E+10	1
4902551	46	C	11/16/2021	22:04	-133.772	49.709	0	667.90	0	3.7130	0	34.2050	0	27.187	0	661.126	0	19.2	4	6.0	4	-1E+10	1	-1E+10	1	-1E+10	1	-1E+10	1	-1E+10	1	-1E+10	1
4902551	46	C	11/16/2021	22:04	-133.772	49.709	0	672.70	0	3.7040	0	34.2070	0	27.190	0	665.870	0	19.0	4	6.0	4	-1E+10	1	-1E+10	1	-1E+10	1	-1E+10	1	-1E+10	1	-1E+10	1
4902551	46	C	11/16/2021	22:04	-133.772	49.709	0	678.00	0	3.6950	0	34.2100	0	27.193	0	671.107	0	18.7	4	5.9	4	-1E+10	1	-1E+10	1	-1E+10	1	-1E+10	1	-1E+10	1	-1E+10	1
4902551	46	C	11/16/2021	22:04	-133.772	49.709	0	683.00	0	3.6920	0	34.2110	0	27.194	0	676.048	0	18.3	4	5.7	4	-1E+10	1	-1E+10	1	-1E+10	1	-1E+10	1	-1E+10	1	-1E+10	1
4902551	46	C	11/16/2021	22:04	-133.772	49.709	0	687.90	0	3.6860	0	34.2150	0	27.198	0	680.890	0	18.1	4	5.7	4	-1E+10	1	-1E+10	1	-1E+10	1	-1E+10	1	-1E+10	1	-1E+10	1
4902551	46	C	11/16/2021	22:04	-133.772	49.709	0	693.10	0	3.6730	0	34.2180	0	27.202	0	686.029	0	17.9	4	5.6	4	-1E+10	1	-1E+10	1	-1E+10	1	-1E+10	1	-1E+10	1	-1E+10	1
4902551	46	C	11/16/2021	22:04	-133.772	49.709	0	697.80	0	3.6660	0	34.2220	0	27.206	0	690.673	0	17.8	4	5.6	4	-1E+10	1	-1E+10	1	-1E+10	1	-1E+10	1	-1E+10	1	-1E+10	1
4902551	46	C	11/16/2021	22:04	-133.772	49.709	0	702.90	0	3.6540	0	34.2230	0	27.208	0	695.713	0	17.7	4	5.5	4	-1E+10	1	-1E+10	1	-1E+10	1	-1E+10	1	-1E+10	1	-1E+10	1
4902551	46	C	11/16/2021	22:04	-133.772	49.709	0	708.10	0	3.6390	0	34.2260	0	27.212	0	700.851	0	17.5	4	5.5	4	-1E+10	1	-1E+10	1	-1E+10	1	-1E+10	1	-1E+10	1	-1E+10	1
4902551	46	C	11/16/2021	22:04	-133.772	49.709	0	712.80	0	3.6280	0	34.2300	0	27.216	0	705.495	0	17.3	4	5.4	4	-1E+10	1	-1E+10	1	-1E+10	1	-1E+10	1	-1E+10	1	-1E+10	1
4902551	46	C	11/16/2021	22:04	-133.772	49.709	0	717.90	0	3.6170	0	34.2320	0	27.219	0	710.534	0	17.1	4	5.4	4	-1E+10	1	-1E+10	1	-1E+10	1	-1E+10	1	-1E+10	1	-1E+10	1
4902551	46	C	11/16/2021	22:04	-133.772	49.709	0	723.00	0	3.6110	0	34.2340	0	27.221	0	715.573	0	16.9	4	5.3	4	-1E+10	1	-1E+10	1	-1E+10	1	-1E+10	1	-1E+10	1	-1E+10	1
4902551	46	C	11/16/2021	22:04	-133.772	49.709	0	727.70	0	3.6000	0	34.2370	0	27.224	0	720.216	0	16.7	4	5.2	4	-1E+10	1	-1E+10	1	-1E+10	1	-1E+10	1	-1E+10	1	-1E+10	1
4902551	46	C	11/16/2021	22:04	-133.772	49.709	0	733.00	0	3.5860	0	34.2410	0	27.229	0	725.452	0	16.5	4	5.2	4	-1E+10	1	-1E+10	1	-1E+10	1	-1E+10	1	-1E+10	1	-1E+10	1
4902551	46	C	11/16/2021	22:04	-133.772	49.709	0	738.20	0	3.5780	0	34.2430	0	27.231	0	730.590	0	16.3	4	5.1	4	-1E+10	1	-1E+10	1	-1E+10	1	-1E+10	1	-1E+10	1	-1E+10	1
4902551	46	C	11/16/2021	22:04	-133.772	49.709	0	742.90	0	3.5680	0	34.2460	0	27.235	0	735.233	0	15.9	4	5.0	4	-1E+10	1	-1E+10	1	-1E+10	1	-1E+10	1	-1E+10	1	-1E+10	1
4902551	46	C	11/16/2021	22:04	-133.772	49.709	0	747.70	0	3.5570	0	34.2500	0	27.239	0	739.975	0	15.7	4	4.9	4	-1E+10	1	-1E+10	1	-1E+10	1	-1E+10	1	-1E+10	1	-1E+10	1
4902551	46	C	11/16/2021	22:04	-133.772	49.709	0	752.50	0	3.5440	0	34.2540	0	27.244	0	744.717	0	15.5	4	4.8	4	-1E+10	1	-1E+10	1	-1E+10	1	-1E+10	1	-1E+10	1	-1E+10	1
4902551	46	C	11/16/2021	22:04	-133.772	49.709	0	757.90	0	3.5340	0	34.2570	0	27.247	0	750.051	0	15.3	4	4.8	4	-1E+10	1	-1E+10	1	-1E+10	1	-1E+10	1	-1E+10	1	-1E+10	1
4902551	46	C	11/16/2021	22:04	-133.772	49.709	0	763.20	0	3.5210	0	34.2600	0	27.251	0	755.287	0	15.2	4	4.7	4	-1E+10	1	-1E+10	1	-1E+10	1	-1E+10	1	-1E+10	1	-1E+10	1
4902551	46	C	11/16/2021	22:04	-133.772	49.709	0	768.10	0	3.5090	0	34.2620	0	27.253	0	760.127	0	15.1	4	4.7	4	-1E+10	1	-1E+10	1	-1E+10	1	-1E+10	1	-1E+10	1	-1E+10	1
4902551	46	C	11/16/2021	22:04	-133.772	49.709	0	773.10	0	3.4930	0	34.2660	0	27.258	0	765.066	0	14.9	4	4.6	4	-1E+10	1	-1E+10	1	-1E+10	1	-1E+10	1	-1E+10	1	-1E+10	1
4902551	46	C	11/16/2021	22:04	-133.772	49.709	0	778.10	0	3.4860	0	34.2690	0	27.261	0	770.005	0	14.8	4	4.6	4	-1E+10	1	-1E+10	1	-1E+10	1	-1E+10	1	-1E+10	1	-1E+10	1
4902551	46	C	11/16/2021	22:04	-133.772	49.709	0	783.10	0	3.4730	0	34.2710	0	27.264	0	774.944	0	14.7	4	4.6	4	-1E+10	1	-1E+10	1	-1E+10	1	-1E+10	1	-1E+10	1	-1E+10	1
4902551	46	C	11/16/2021	22:04	-133.772	49.709	0	787.80	0	3.4600	0	34.2740	0	27.268	0	779.586	0	14.6	4	4.6	4	-1E+10	1	-1E+10	1	-1E+10	1	-1E+10	1	-1E+10	1	-1E+10	1
4902551	46	C	11/16/2021	22:04	-133.772	49.709	0	792.50	0	3.4550	0	34.2750	0	27.269	0	784.228	0	14.5	4	4.5	4	-1E+10	1	-1E+10	1	-1E+10	1	-1E+10	1	-1E+10	1	-1E+10	1
4902551	46	C	11/16/2021	22:04	-133.772	49.709	0	797.90	0	3.4450	0	34.2780	0	27.272	0	789.562	0	14.4	4	4.5	4	-1E+10	1	-1E+10	1	-1E+10	1	-1E+10	1	-1E+10	1	-1E+10	1
4902551	46	C	11/16/2021	22:04	-133.772	49.709	0	802.70	0	3.4320	0	34.2810	0	27.276	0	794.302	0	14.3	4	4.5	4	-1E+10	1	-1E+10	1	-1E+10	1	-1E+10	1	-1E+10	1	-1E+10	1
4902551	46	C	11/16/2021	22:04	-133.772	49.709	0	807.60	0	3.4280	0	34.2820	0	27.277	0	799.142	0	14.2	4	4.4	4	-1E+10	1	-1E+10	1	-1E+10	1	-1E+10	1	-1E+10	1	-1E+10	1
4902551	46	C	11/16/2021	22:04	-133.772	49.709	0	812.90	0	3.4160	0	34.2850	0	27.281	0	804.376	0	14.2	4	4.4	4	-1E+10	1	-1E+10	1	-1E+10	1	-1E+10	1	-1E+10	1	-1E+10	1
4902551	46	C	11/16/2021	22:04	-133.772	49.709	0	817.80	0	3.4020	0	34.2870	0	27.284	0	809.215	0	14.1	4	4.4	4	-1E+10	1	-1E+10	1	-1E+10	1	-1E+10	1	-1E+10	1	-1E+10	1
4902551	46	C	11/16/2021	22:04	-133.772	49.709	0	822.70	0	3.3860	0	34.2900	0	27.288	0	814.054	0	13.9	4	4.3	4	-1E+10	1	-1E+10	1	-1E+10	1	-1E+10	1	-1E+10	1	-1E+10	1
4902551	46	C	11/16/2021	22:04	-133.772	49.709	0	827.70	0	3.3730	0	34.2940	0	27.292	0	818.992	0	13.7	4	4.3	4	-1E+10	1	-1E+10	1	-1E+10	1	-1E+10	1	-1E+10	1	-1E+10	1
4902551	46	C	11/16/2021	22:04	-133.772	49.709	0	832.60	0	3.3670	0	34.2970	0	27.295	0	823.830	0	13.6	4	4.2	4	-1E+10	1	-1E+10	1	-1E+10	1	-1E+10	1	-1E+10	1	-1E+10	1
4902551	46	C	11/16/2021	22:04	-133.772	49.709	0	837.60	0	3.3550	0	34.3000	0	27.299	0	828.768	0	13.6	4	4.2	4	-1E+10	1	-1E+10	1	-1E+10	1	-1E+10	1	-1E+10	1	-1E+10	1
4902551	46	C	11/16/2021	22:04	-133.772	49.709	0	842.70	0	3.3390	0	34.3020	0	27.302	0	833.804	0	13.6	4	4.2	4	-1E+10	1	-1E+10	1	-1E+10	1	-1E+10	1	-1E+10	1	-1E+10	1
4902551	46	C	11/16/2021	22:04	-133.772	49.709	0	847.70	0	3.3330	0	34.3030	0	27.303	0	838.741	0	13.5	4	4.2	4	-1E+10	1	-1E+10	1	-1E+10	1	-1E+10	1	-1E+10	1	-1E+10	1
4902551	46	C	11/16/2021	22:04	-133.772	49.709	0	852.80	0	3.3230	0	34.3050	0	27.306	0	843.777	0	13.3	4	4.1	4	-1E+10	1	-1E+10	1	-1E+10	1	-1E+10	1	-1E+10	1	-1E+10	1
4902551	46	C	11/16/2021	22:04	-133.772	49.709	0	858.00	0	3.3160	0	34.3080	0	27.309	0	848.911	0	13.0	4	4.1	4	-1E+10	1	-1E+10	1	-1E+10	1	-1E+10	1	-1E+10	1	-1E+10	1
4902551	46	C	11/16/2021	22:04	-133.772	49.709	0	862.80	0	3.3100	0	34.3100	0	27.311	0	853.651	0	12.7	4	4.0	4	-1E+10	1	-1E+10	1	-1E+10	1	-1E+10	1	-1E+10	1	-1E+10	1
4902551	46	C	11/16/2021	22:04	-133.772	49.709	0	867.60	0	3.3080	0	34.3150	0	27.315	0	858.390	0	12.4	4	3.8	4	-1E+10	1	-1E+10	1	-1E+10	1	-1E+10	1	-1E+10	1	-1E+10	1
4902551	46	C	11/16/2021	22:04	-133.772	49.709	0	872.80	0	3.3040	0	34.3220	0	27.321	0	863.524	0	12.2	4	3.8	4	-1E+10	1	-1E+10	1	-1E+10	1	-1E+10	1	-1E+10	1	-1E+10	1
4902551	46	C	11/16/2021	22:04	-133.772	49.709	0	878.00	0	3.2970	0	34.3250	0	27.324	0	868.658	0	12.1	4	3.8	4	-1E+10	1	-1E+10	1	-1E+10	1	-1E+10	1	-1E+10	1	-1E+10	1
4902551	46	C	11/16/2021	22:04	-133.772	49.709	0	883.10	0	3.2940	0	34.3260	0	27.326	0	873.693	0	12.1	4	3.7	4	-1E+10	1	-1E+10	1	-1E+10	1	-1E+10	1	-1E+10	1	-1E+10	1
4902551	46	C	11/16/2021	22:04	-133.772	49.709	0	887.80	0	3.2890	0	34.3280	0	27.328	0	878.333	0	12.0	4	3.7	4	-1E+10	1	-1E+10	1	-1E+10	1	-1E+10	1	-1E+10	1	-1E+10	1
4902551	46	C	11/16/2021	22:04	-133.772	49.709	0	892.60	0	3.2750	0	34.3310	0	27.331	0	883.072	0	12.0	4	3.7	4	-1E+10	1	-1E+10	1	-1E+10	1	-1E+10	1	-1E+10	1	-1E+10	1
4902551	46	C	11/16/2021	22:04	-133.772	49.709	0	897.90	0	3.2570	0	34.3350	0	27.336	0	888.304	0	12.0	4	3.7	4	-1E+10	1	-1E+10	1	-1E+10	1	-1E+10	1	-1E+10	1	-1E+10	1
4902551	46	C	11/16/2021	22:04	-133.772	49.709	0	902.90	0	3.2410	0	34.3360	0	27.339	0	893.240	0	12.0	4	3.7	4	-1E+10	1	-1E+10	1	-1E+10	1	-1E+10	1	-1E+10	1	-1E+10	1
4902551	46	C	11/16/2021	22:04	-133.772	49.709	0	907.90	0	3.2400	0	34.3370	0	27.340	0	898.176	0	12.0	4	3.7	4	-1E+10	1	-1E+10	1	-1E+10	1	-1E+10	1	-1E+10	1	-1E+10	1
4902551	46	C	11/16/2021	22:04	-133.772	49.709	0	913.00	0	3.2250	0	34.3390	0	27.343	0	903.210	0	12.0	4	3.7	4	-1E+10	1	-1E+10	1	-1E+10	1	-1E+10	1	-1E+10	1	-1E+10	1
4902551	46	C	11/16/2021	22:04	-133.772	49.709	0	918.10	0	3.2110	0	34.3410	0	27.345	0	908.244	0	11.9	4	3.7	4	-1E+10	1	-1E+10	1	-1E+10	1	-1E+10	1	-1E+10	1	-1E+10	1
4902551	46	C	11/16/2021	22:04	-133.772	49.709	0	923.20	0	3.1960	0	34.3440	0	27.349	0	913.278	0	11.8	4	3.7	4	-1E+10	1	-1E+10	1	-1E+10	1	-1E+10	1	-1E+10	1	-1E+10	1
4902551	46	C	11/16/2021	22:04	-133.772	49.709	0	928.00	0	3.1900	0	34.3470	0	27.352	0	918.016	0	11.8	4	3.6	4	-1E+10	1	-1E+10	1	-1E+10	1	-1E+10	1	-1E+10	1	-1E+10	1
4902551	46	C	11/16/2021	22:04	-133.772	49.709	0	932.80	0	3.1870	0	34.3490	0	27.354	0	922.754	0	11.7	4	3.6	4	-1E+10	1	-1E+10	1	-1E+10	1	-1E+10	1	-1E+10	1	-1E+10	1
4902551	46	C	11/16/2021	22:04	-133.772	49.709	0	937.60	0	3.1830	0	34.3510	0	27.356	0	927.492	0	11.8	4	3.6	4	-1E+10	1	-1E+10	1	-1E+10	1	-1E+10	1	-1E+10	1	-1E+10	1
4902551	46	C	11/16/2021	22:04	-133.772	49.709	0	942.60	0	3.1790	0	34.3510	0	27.357	0	932.427	0	11.7	4	3.6	4	-1E+10	1	-1E+10	1	-1E+10	1	-1E+10	1	-1E+10	1	-1E+10	1
4902551	46	C	11/16/2021	22:04	-133.772	49.709	0	947.70	0	3.1800	0	34.3530	0	27.358	0	937.460	0	11.7	4	3.6	4	-1E+10	1	-1E+10	1	-1E+10	1	-1E+10	1	-1E+10	1	-1E+10	1
4902551	46	C	11/16/2021	22:04	-133.772	49.709	0	952.90	0	3.1740	0	34.3550	0	27.360	0	942.592	0	11.9	4	3.7	4	-1E+10	1	-1E+10	1	-1E+10	1	-1E+10	1	-1E+10	1	-1E+10	1
4902551	46	C	11/16/2021	22:04	-133.772	49.709	0	958.10	0	3.1560	0	34.3540	0	27.361	0	947.724	0	11.9	4	3.7	4	-1E+10	1	-1E+10	1	-1E+10	1	-1E+10	1	-1E+10	1	-1E+10	1
4902551	46	C	11/16/2021	22:04	-133.772	49.709	0	962.90	0	3.1400	0	34.3560	0	27.364	0	952.462	0	12.0	4	3.7	4	-1E+10	1	-1E+10	1	-1E+10	1	-1E+10	1	-1E+10	1	-1E+10	1
4902551	46	C	11/16/2021	22:04	-133.772	49.709	0	967.70	0	3.1300	0	34.3580	0	27.367	0	957.199	0	12.0	4	3.7	4	-1E+10	1	-1E+10	1	-1E+10	1	-1E+10	1	-1E+10	1	-1E+10	1
4902551	46	C	11/16/2021	22:04	-133.772	49.709	0	972.90	0	3.1060	0	34.3590	0	27.370	0	962.330	0	12.0	4	3.7	4	-1E+10	1	-1E+10	1	-1E+10	1	-1E+10	1	-1E+10	1	-1E+10	1
4902551	46	C	11/16/2021	22:04	-133.772	49.709	0	977.80	0	3.1090	0	34.3610	0	27.371	0	967.166	0	11.9	4	3.7	4	-1E+10	1	-1E+10	1	-1E+10	1	-1E+10	1	-1E+10	1	-1E+10	1
4902551	46	C	11/16/2021	22:04	-133.772	49.709	0	983.00	0	3.1010	0	34.3630	0	27.374	0	972.297	0	12.0	4	3.7	4	-1E+10	1	-1E+10	1	-1E+10	1	-1E+10	1	-1E+10	1	-1E+10	1
4902551	46	C	11/16/2021	22:04	-133.772	49.709	0	988.10	0	3.1000	0	34.3630	0	27.374	0	977.330	0	12.0	4	3.7	4	-1E+10	1	-1E+10	1	-1E+10	1	-1E+10	1	-1E+10	1	-1E+10	1
4902551	46	C	11/16/2021	22:04	-133.772	49.709	0	993.00	0	3.0950	0	34.3630	0	27.374	0	982.165	0	12.0	4	3.7	4	-1E+10	1	-1E+10	1	-1E+10	1	-1E+10	1	-1E+10	1	-1E+10	1
4902551	46	C	11/16/2021	22:04	-133.772	49.709	0	997.80	0	3.0840	0	34.3640	0	27.376	0	986.901	0	12.1	4	3.8	4	-1E+10	1	-1E+10	1	-1E+10	1	-1E+10	1	-1E+10	1	-1E+10	1
4902551	46	C	11/16/2021	22:04	-133.772	49.709	0	1005.20	0	3.0610	0	34.3660	0	27.380	0	994.203	0	12.3	4	3.8	4	-1E+10	1	-1E+10	1	-1E+10	1	-1E+10	1	-1E+10	1	-1E+10	1
4902551	46	C	11/16/2021	22:04	-133.772	49.709	0	1015.40	0	3.0490	0	34.3670	0	27.382	0	1004.267	0	12.3	4	3.8	4	-1E+10	1	-1E+10	1	-1E+10	1	-1E+10	1	-1E+10	1	-1E+10	1
4902551	46	C	11/16/2021	22:04	-133.772	49.709	0	1025.30	0	3.0310	0	34.3700	0	27.386	0	1014.034	0	12.3	4	3.8	4	-1E+10	1	-1E+10	1	-1E+10	1	-1E+10	1	-1E+10	1	-1E+10	1
4902551	46	C	11/16/2021	22:04	-133.772	49.709	0	1035.40	0	3.0130	0	34.3740	0	27.391	0	1023.999	0	12.3	4	3.8	4	-1E+10	1	-1E+10	1	-1E+10	1	-1E+10	1	-1E+10	1	-1E+10	1
4902551	46	C	11/16/2021	22:04	-133.772	49.709	0	1045.40	0	2.9920	0	34.3800	0	27.397	0	1033.864	0	12.3	4	3.8	4	-1E+10	1	-1E+10	1	-1E+10	1	-1E+10	1	-1E+10	1	-1E+10	1
4902551	46	C	11/16/2021	22:04	-133.772	49.709	0	1055.20	0	2.9840	0	34.3830	0	27.401	0	1043.531	0	12.3	4	3.8	4	-1E+10	1	-1E+10	1	-1E+10	1	-1E+10	1	-1E+10	1	-1E+10	1
4902551	46	C	11/16/2021	22:04	-133.772	49.709	0	1065.20	0	2.9690	0	34.3870	0	27.405	0	1053.396	0	12.3	4	3.8	4	-1E+10	1	-1E+10	1	-1E+10	1	-1E+10	1	-1E+10	1	-1E+10	1
4902551	46	C	11/16/2021	22:04	-133.772	49.709	0	1075.10	0	2.9560	0	34.3900	0	27.409	0	1063.161	0	12.4	4	3.8	4	-1E+10	1	-1E+10	1	-1E+10	1	-1E+10	1	-1E+10	1	-1E+10	1
4902551	46	C	11/16/2021	22:04	-133.772	49.709	0	1085.10	0	2.9420	0	34.3930	0	27.412	0	1073.024	0	12.4	4	3.8	4	-1E+10	1	-1E+10	1	-1E+10	1	-1E+10	1	-1E+10	1	-1E+10	1
4902551	46	C	11/16/2021	22:04	-133.772	49.709	0	1095.20	0	2.9310	0	34.3950	0	27.415	0	1082.986	0	12.4	4	3.8	4	-1E+10	1	-1E+10	1	-1E+10	1	-1E+10	1	-1E+10	1	-1E+10	1
4902551	46	C	11/16/2021	22:04	-133.772	49.709	0	1105.30	0	2.9200	0	34.3970	0	27.418	0	1092.947	0	12.5	4	3.8	4	-1E+10	1	-1E+10	1	-1E+10	1	-1E+10	1	-1E+10	1	-1E+10	1
4902551	46	C	11/16/2021	22:04	-133.772	49.709	0	1115.30	0	2.9140	0	34.3990	0	27.420	0	1102.809	0	12.5	4	3.8	4	-1E+10	1	-1E+10	1	-1E+10	1	-1E+10	1	-1E+10	1	-1E+10	1
4902551	46	C	11/16/2021	22:04	-133.772	49.709	0	1125.30	0	2.9020	0	34.4020	0	27.423	0	1112.670	0	12.5	4	3.9	4	-1E+10	1	-1E+10	1	-1E+10	1	-1E+10	1	-1E+10	1	-1E+10	1
4902551	46	C	11/16/2021	22:04	-133.772	49.709	0	1135.20	0	2.8850	0	34.4050	0	27.427	0	1122.433	0	12.6	4	3.9	4	-1E+10	1	-1E+10	1	-1E+10	1	-1E+10	1	-1E+10	1	-1E+10	1
4902551	46	C	11/16/2021	22:04	-133.772	49.709	0	1145.40	0	2.8700	0	34.4080	0	27.431	0	1132.491	0	12.6	4	3.9	4	-1E+10	1	-1E+10	1	-1E+10	1	-1E+10	1	-1E+10	1	-1E+10	1
4902551	46	C	11/16/2021	22:04	-133.772	49.709	0	1155.50	0	2.8610	0	34.4100	0	27.434	0	1142.449	0	12.7	4	3.9	4	-1E+10	1	-1E+10	1	-1E+10	1	-1E+10	1	-1E+10	1	-1E+10	1
4902551	46	C	11/16/2021	22:04	-133.772	49.709	0	1165.20	0	2.8530	0	34.4120	0	27.436	0	1152.013	0	12.8	4	3.9	4	-1E+10	1	-1E+10	1	-1E+10	1	-1E+10	1	-1E+10	1	-1E+10	1
4902551	46	C	11/16/2021	22:04	-133.772	49.709	0	1175.30	0	2.8320	0	34.4160	0	27.441	0	1161.971	0	13.0	4	4.0	4	-1E+10	1	-1E+10	1	-1E+10	1	-1E+10	1	-1E+10	1	-1E+10	1
4902551	46	C	11/16/2021	22:04	-133.772	49.709	0	1185.60	0	2.8100	0	34.4200	0	27.446	0	1172.125	0	13.1	4	4.0	4	-1E+10	1	-1E+10	1	-1E+10	1	-1E+10	1	-1E+10	1	-1E+10	1
4902551	46	C	11/16/2021	22:04	-133.772	49.709	0	1195.60	0	2.7880	0	34.4240	0	27.451	0	1181.984	0	13.3	4	4.1	4	-1E+10	1	-1E+10	1	-1E+10	1	-1E+10	1	-1E+10	1	-1E+10	1
4902551	46	C	11/16/2021	22:04	-133.772	49.709	0	1205.60	0	2.7720	0	34.4270	0	27.455	0	1191.841	0	13.5	4	4.1	4	-1E+10	1	-1E+10	1	-1E+10	1	-1E+10	1	-1E+10	1	-1E+10	1
4902551	46	C	11/16/2021	22:04	-133.772	49.709	0	1215.70	0	2.7560	0	34.4300	0	27.459	0	1201.797	0	13.6	4	4.2	4	-1E+10	1	-1E+10	1	-1E+10	1	-1E+10	1	-1E+10	1	-1E+10	1
4902551	46	C	11/16/2021	22:04	-133.772	49.709	0	1225.90	0	2.7380	0	34.4330	0	27.463	0	1211.851	0	13.8	4	4.2	4	-1E+10	1	-1E+10	1	-1E+10	1	-1E+10	1	-1E+10	1	-1E+10	1
4902551	46	C	11/16/2021	22:04	-133.772	49.709	0	1235.60	0	2.7230	0	34.4360	0	27.467	0	1221.412	0	14.0	4	4.3	4	-1E+10	1	-1E+10	1	-1E+10	1	-1E+10	1	-1E+10	1	-1E+10	1
4902551	46	C	11/16/2021	22:04	-133.772	49.709	0	1245.60	0	2.7070	0	34.4390	0	27.471	0	1231.268	0	14.2	4	4.4	4	-1E+10	1	-1E+10	1	-1E+10	1	-1E+10	1	-1E+10	1	-1E+10	1
4902551	46	C	11/16/2021	22:04	-133.772	49.709	0	1255.40	0	2.6940	0	34.4420	0	27.474	0	1240.926	0	14.4	4	4.4	4	-1E+10	1	-1E+10	1	-1E+10	1	-1E+10	1	-1E+10	1	-1E+10	1
4902551	46	C	11/16/2021	22:04	-133.772	49.709	0	1265.50	0	2.6830	0	34.4440	0	27.477	0	1250.880	0	14.6	4	4.5	4	-1E+10	1	-1E+10	1	-1E+10	1	-1E+10	1	-1E+10	1	-1E+10	1
4902551	46	C	11/16/2021	22:04	-133.772	49.709	0	1275.30	0	2.6730	0	34.4460	0	27.480	0	1260.537	0	14.7	4	4.5	4	-1E+10	1	-1E+10	1	-1E+10	1	-1E+10	1	-1E+10	1	-1E+10	1
4902551	46	C	11/16/2021	22:04	-133.772	49.709	0	1285.40	0	2.6650	0	34.4470	0	27.481	0	1270.490	0	14.9	4	4.6	4	-1E+10	1	-1E+10	1	-1E+10	1	-1E+10	1	-1E+10	1	-1E+10	1
4902551	46	C	11/16/2021	22:04	-133.772	49.709	0	1295.70	0	2.6530	0	34.4500	0	27.485	0	1280.639	0	15.2	4	4.6	4	-1E+10	1	-1E+10	1	-1E+10	1	-1E+10	1	-1E+10	1	-1E+10	1
4902551	46	C	11/16/2021	22:04	-133.772	49.709	0	1305.40	0	2.6320	0	34.4530	0	27.489	0	1290.197	0	15.5	4	4.8	4	-1E+10	1	-1E+10	1	-1E+10	1	-1E+10	1	-1E+10	1	-1E+10	1
4902551	46	C	11/16/2021	22:04	-133.772	49.709	0	1315.40	0	2.6110	0	34.4570	0	27.494	0	1300.050	0	15.9	4	4.8	4	-1E+10	1	-1E+10	1	-1E+10	1	-1E+10	1	-1E+10	1	-1E+10	1
4902551	46	C	11/16/2021	22:04	-133.772	49.709	0	1325.50	0	2.5940	0	34.4600	0	27.498	0	1310.000	0	16.1	4	4.9	4	-1E+10	1	-1E+10	1	-1E+10	1	-1E+10	1	-1E+10	1	-1E+10	1
4902551	46	C	11/16/2021	22:04	-133.772	49.709	0	1335.30	0	2.5870	0	34.4610	0	27.499	0	1319.655	0	16.3	4	5.0	4	-1E+10	1	-1E+10	1	-1E+10	1	-1E+10	1	-1E+10	1	-1E+10	1
4902551	46	C	11/16/2021	22:04	-133.772	49.709	0	1345.20	0	2.5740	0	34.4630	0	27.502	0	1329.408	0	16.7	4	5.1	4	-1E+10	1	-1E+10	1	-1E+10	1	-1E+10	1	-1E+10	1	-1E+10	1
4902551	46	C	11/16/2021	22:04	-133.772	49.709	0	1355.20	0	2.5550	0	34.4670	0	27.507	0	1339.259	0	17.0	4	5.2	4	-1E+10	1	-1E+10	1	-1E+10	1	-1E+10	1	-1E+10	1	-1E+10	1
4902551	46	C	11/16/2021	22:04	-133.772	49.709	0	1365.40	0	2.5420	0	34.4690	0	27.510	0	1349.306	0	17.4	4	5.3	4	-1E+10	1	-1E+10	1	-1E+10	1	-1E+10	1	-1E+10	1	-1E+10	1
4902551	46	C	11/16/2021	22:04	-133.772	49.709	0	1375.60	0	2.5320	0	34.4720	0	27.513	0	1359.353	0	17.8	4	5.4	4	-1E+10	1	-1E+10	1	-1E+10	1	-1E+10	1	-1E+10	1	-1E+10	1
4902551	46	C	11/16/2021	22:04	-133.772	49.709	0	1385.30	0	2.5210	0	34.4740	0	27.515	0	1368.907	0	18.1	4	5.5	4	-1E+10	1	-1E+10	1	-1E+10	1	-1E+10	1	-1E+10	1	-1E+10	1
4902551	46	C	11/16/2021	22:04	-133.772	49.709	0	1395.30	0	2.5050	0	34.4770	0	27.519	0	1378.756	0	18.5	4	5.6	4	-1E+10	1	-1E+10	1	-1E+10	1	-1E+10	1	-1E+10	1	-1E+10	1
4902551	46	C	11/16/2021	22:04	-133.772	49.709	0	1405.40	0	2.4920	0	34.4790	0	27.522	0	1388.703	0	18.9	4	5.8	4	-1E+10	1	-1E+10	1	-1E+10	1	-1E+10	1	-1E+10	1	-1E+10	1
4902551	46	C	11/16/2021	22:04	-133.772	49.709	0	1415.50	0	2.4800	0	34.4820	0	27.525	0	1398.650	0	19.3	4	5.9	4	-1E+10	1	-1E+10	1	-1E+10	1	-1E+10	1	-1E+10	1	-1E+10	1
4902551	46	C	11/16/2021	22:04	-133.772	49.709	0	1425.20	0	2.4670	0	34.4840	0	27.528	0	1408.202	0	19.7	4	6.0	4	-1E+10	1	-1E+10	1	-1E+10	1	-1E+10	1	-1E+10	1	-1E+10	1
4902551	46	C	11/16/2021	22:04	-133.772	49.709	0	1435.00	0	2.4520	0	34.4860	0	27.531	0	1417.852	0	20.1	4	6.1	4	-1E+10	1	-1E+10	1	-1E+10	1	-1E+10	1	-1E+10	1	-1E+10	1
4902551	46	C	11/16/2021	22:04	-133.772	49.709	0	1445.10	0	2.4370	0	34.4890	0	27.535	0	1427.797	0	20.6	4	6.3	4	-1E+10	1	-1E+10	1	-1E+10	1	-1E+10	1	-1E+10	1	-1E+10	1
4902551	46	C	11/16/2021	22:04	-133.772	49.709	0	1455.10	0	2.4230	0	34.4920	0	27.538	0	1437.643	0	21.2	4	6.4	4	-1E+10	1	-1E+10	1	-1E+10	1	-1E+10	1	-1E+10	1	-1E+10	1
4902551	46	C	11/16/2021	22:04	-133.772	49.709	0	1465.10	0	2.4130	0	34.4940	0	27.541	0	1447.489	0	21.7	4	6.6	4	-1E+10	1	-1E+10	1	-1E+10	1	-1E+10	1	-1E+10	1	-1E+10	1
4902551	46	C	11/16/2021	22:04	-133.772	49.709	0	1475.40	0	2.3940	0	34.4970	0	27.545	0	1457.630	0	22.3	4	6.8	4	-1E+10	1	-1E+10	1	-1E+10	1	-1E+10	1	-1E+10	1	-1E+10	1
4902551	46	C	11/16/2021	22:04	-133.772	49.709	0	1485.70	0	2.3810	0	34.4990	0	27.548	0	1467.770	0	23.0	4	7.0	4	-1E+10	1	-1E+10	1	-1E+10	1	-1E+10	1	-1E+10	1	-1E+10	1
4902551	46	C	11/16/2021	22:04	-133.772	49.709	0	1495.30	0	2.3700	0	34.5020	0	27.551	0	1477.221	0	23.6	4	7.2	4	-1E+10	1	-1E+10	1	-1E+10	1	-1E+10	1	-1E+10	1	-1E+10	1
4902551	46	C	11/16/2021	22:04	-133.772	49.709	0	1505.20	0	2.3540	0	34.5040	0	27.554	0	1486.966	0	24.0	4	7.3	4	-1E+10	1	-1E+10	1	-1E+10	1	-1E+10	1	-1E+10	1	-1E+10	1
4902551	46	C	11/16/2021	22:04	-133.772	49.709	0	1515.30	0	2.3390	0	34.5070	0	27.558	0	1496.908	0	24.6	4	7.5	4	-1E+10	1	-1E+10	1	-1E+10	1	-1E+10	1	-1E+10	1	-1E+10	1
4902551	46	C	11/16/2021	22:04	-133.772	49.709	0	1525.50	0	2.3230	0	34.5100	0	27.561	0	1506.948	0	25.2	4	7.7	4	-1E+10	1	-1E+10	1	-1E+10	1	-1E+10	1	-1E+10	1	-1E+10	1
4902551	46	C	11/16/2021	22:04	-133.772	49.709	0	1535.40	0	2.3130	0	34.5110	0	27.563	0	1516.692	0	25.8	4	7.8	4	-1E+10	1	-1E+10	1	-1E+10	1	-1E+10	1	-1E+10	1	-1E+10	1
4902551	46	C	11/16/2021	22:04	-133.772	49.709	0	1545.40	0	2.2950	0	34.5140	0	27.567	0	1526.534	0	26.4	4	8.0	4	-1E+10	1	-1E+10	1	-1E+10	1	-1E+10	1	-1E+10	1	-1E+10	1
4902551	46	C	11/16/2021	22:04	-133.772	49.709	0	1555.80	0	2.2910	0	34.5150	0	27.568	0	1536.769	0	26.8	4	8.1	4	-1E+10	1	-1E+10	1	-1E+10	1	-1E+10	1	-1E+10	1	-1E+10	1
4902551	46	C	11/16/2021	22:04	-133.772	49.709	0	1565.70	0	2.2780	0	34.5170	0	27.571	0	1546.512	0	27.4	4	8.3	4	-1E+10	1	-1E+10	1	-1E+10	1	-1E+10	1	-1E+10	1	-1E+10	1
4902551	46	C	11/16/2021	22:04	-133.772	49.709	0	1575.40	0	2.2680	0	34.5190	0	27.573	0	1556.058	0	27.9	4	8.5	4	-1E+10	1	-1E+10	1	-1E+10	1	-1E+10	1	-1E+10	1	-1E+10	1
4902551	46	C	11/16/2021	22:04	-133.772	49.709	0	1585.20	0	2.2550	0	34.5210	0	27.576	0	1565.701	0	28.4	4	8.6	4	-1E+10	1	-1E+10	1	-1E+10	1	-1E+10	1	-1E+10	1	-1E+10	1
4902551	46	C	11/16/2021	22:04	-133.772	49.709	0	1595.30	0	2.2480	0	34.5230	0	27.578	0	1575.639	0	29.0	4	8.8	4	-1E+10	1	-1E+10	1	-1E+10	1	-1E+10	1	-1E+10	1	-1E+10	1
4902551	46	C	11/16/2021	22:04	-133.772	49.709	0	1605.30	0	2.2370	0	34.5250	0	27.581	0	1585.479	0	29.4	4	8.9	4	-1E+10	1	-1E+10	1	-1E+10	1	-1E+10	1	-1E+10	1	-1E+10	1
4902551	46	C	11/16/2021	22:04	-133.772	49.709	0	1615.40	0	2.2340	0	34.5260	0	27.582	0	1595.416	0	29.7	4	9.0	4	-1E+10	1	-1E+10	1	-1E+10	1	-1E+10	1	-1E+10	1	-1E+10	1
4902551	46	C	11/16/2021	22:04	-133.772	49.709	0	1625.60	0	2.2260	0	34.5270	0	27.583	0	1605.451	0	30.2	4	9.2	4	-1E+10	1	-1E+10	1	-1E+10	1	-1E+10	1	-1E+10	1	-1E+10	1
4902551	46	C	11/16/2021	22:04	-133.772	49.709	0	1635.50	0	2.2160	0	34.5290	0	27.586	0	1615.191	0	30.5	4	9.3	4	-1E+10	1	-1E+10	1	-1E+10	1	-1E+10	1	-1E+10	1	-1E+10	1
4902551	46	C	11/16/2021	22:04	-133.772	49.709	0	1645.40	0	2.2150	0	34.5290	0	27.586	0	1624.930	0	30.8	4	9.3	4	-1E+10	1	-1E+10	1	-1E+10	1	-1E+10	1	-1E+10	1	-1E+10	1
4902551	46	C	11/16/2021	22:04	-133.772	49.709	0	1655.30	0	2.2070	0	34.5310	0	27.588	0	1634.668	0	31.2	4	9.5	4	-1E+10	1	-1E+10	1	-1E+10	1	-1E+10	1	-1E+10	1	-1E+10	1
4902551	46	C	11/16/2021	22:04	-133.772	49.709	0	1665.30	0	2.2000	0	34.5320	0	27.590	0	1644.505	0	31.7	4	9.6	4	-1E+10	1	-1E+10	1	-1E+10	1	-1E+10	1	-1E+10	1	-1E+10	1
4902551	46	C	11/16/2021	22:04	-133.772	49.709	0	1675.30	0	2.1880	0	34.5340	0	27.592	0	1654.341	0	32.5	4	9.8	4	-1E+10	1	-1E+10	1	-1E+10	1	-1E+10	1	-1E+10	1	-1E+10	1
4902551	46	C	11/16/2021	22:04	-133.772	49.709	0	1685.50	0	2.1750	0	34.5360	0	27.595	0	1664.373	0	33.3	4	10.1	4	-1E+10	1	-1E+10	1	-1E+10	1	-1E+10	1	-1E+10	1	-1E+10	1
4902551	46	C	11/16/2021	22:04	-133.772	49.709	0	1695.50	0	2.1580	0	34.5390	0	27.599	0	1674.209	0	34.3	4	10.4	4	-1E+10	1	-1E+10	1	-1E+10	1	-1E+10	1	-1E+10	1	-1E+10	1
4902551	46	C	11/16/2021	22:04	-133.772	49.709	0	1705.70	0	2.1420	0	34.5420	0	27.603	0	1684.240	0	35.0	4	10.6	4	-1E+10	1	-1E+10	1	-1E+10	1	-1E+10	1	-1E+10	1	-1E+10	1
4902551	46	C	11/16/2021	22:04	-133.772	49.709	0	1715.40	0	2.1350	0	34.5440	0	27.605	0	1693.779	0	35.7	4	10.8	4	-1E+10	1	-1E+10	1	-1E+10	1	-1E+10	1	-1E+10	1	-1E+10	1
4902551	46	C	11/16/2021	22:04	-133.772	49.709	0	1725.50	0	2.1260	0	34.5460	0	27.607	0	1703.711	0	36.4	4	11.0	4	-1E+10	1	-1E+10	1	-1E+10	1	-1E+10	1	-1E+10	1	-1E+10	1
4902551	46	C	11/16/2021	22:04	-133.772	49.709	0	1735.70	0	2.1200	0	34.5470	0	27.608	0	1713.741	0	37.0	4	11.2	4	-1E+10	1	-1E+10	1	-1E+10	1	-1E+10	1	-1E+10	1	-1E+10	1
4902551	46	C	11/16/2021	22:04	-133.772	49.709	0	1745.70	0	2.1130	0	34.5490	0	27.611	0	1723.574	0	37.6	4	11.4	4	-1E+10	1	-1E+10	1	-1E+10	1	-1E+10	1	-1E+10	1	-1E+10	1
4902551	46	C	11/16/2021	22:04	-133.772	49.709	0	1755.60	0	2.1050	0	34.5500	0	27.612	0	1733.308	0	38.3	4	11.6	4	-1E+10	1	-1E+10	1	-1E+10	1	-1E+10	1	-1E+10	1	-1E+10	1
4902551	46	C	11/16/2021	22:04	-133.772	49.709	0	1765.70	0	2.0930	0	34.5530	0	27.616	0	1743.239	0	39.2	4	11.8	4	-1E+10	1	-1E+10	1	-1E+10	1	-1E+10	1	-1E+10	1	-1E+10	1
4902551	46	C	11/16/2021	22:04	-133.772	49.709	0	1775.40	0	2.0830	0	34.5550	0	27.618	0	1752.775	0	40.0	4	12.1	4	-1E+10	1	-1E+10	1	-1E+10	1	-1E+10	1	-1E+10	1	-1E+10	1
4902551	46	C	11/16/2021	22:04	-133.772	49.709	0	1785.30	0	2.0730	0	34.5570	0	27.620	0	1762.508	0	40.7	4	12.3	4	-1E+10	1	-1E+10	1	-1E+10	1	-1E+10	1	-1E+10	1	-1E+10	1
4902551	46	C	11/16/2021	22:04	-133.772	49.709	0	1795.40	0	2.0660	0	34.5580	0	27.622	0	1772.437	0	41.7	4	12.6	4	-1E+10	1	-1E+10	1	-1E+10	1	-1E+10	1	-1E+10	1	-1E+10	1
4902551	46	C	11/16/2021	22:04	-133.772	49.709	0	1805.40	0	2.0480	0	34.5610	0	27.626	0	1782.267	0	42.4	4	12.8	4	-1E+10	1	-1E+10	1	-1E+10	1	-1E+10	1	-1E+10	1	-1E+10	1
4902551	46	C	11/16/2021	22:04	-133.772	49.709	0	1815.40	0	2.0450	0	34.5620	0	27.627	0	1792.097	0	43.0	4	13.0	4	-1E+10	1	-1E+10	1	-1E+10	1	-1E+10	1	-1E+10	1	-1E+10	1
4902551	46	C	11/16/2021	22:04	-133.772	49.709	0	1825.50	0	2.0330	0	34.5640	0	27.629	0	1802.025	0	43.8	4	13.2	4	-1E+10	1	-1E+10	1	-1E+10	1	-1E+10	1	-1E+10	1	-1E+10	1
4902551	46	C	11/16/2021	22:04	-133.772	49.709	0	1835.70	0	2.0250	0	34.5660	0	27.632	0	1812.050	0	44.5	4	13.4	4	-1E+10	1	-1E+10	1	-1E+10	1	-1E+10	1	-1E+10	1	-1E+10	1
4902551	46	C	11/16/2021	22:04	-133.772	49.709	0	1845.50	0	2.0190	0	34.5670	0	27.633	0	1821.682	0	45.1	4	13.6	4	-1E+10	1	-1E+10	1	-1E+10	1	-1E+10	1	-1E+10	1	-1E+10	1
4902551	46	C	11/16/2021	22:04	-133.772	49.709	0	1855.20	0	2.0130	0	34.5690	0	27.635	0	1831.215	0	45.6	4	13.8	4	-1E+10	1	-1E+10	1	-1E+10	1	-1E+10	1	-1E+10	1	-1E+10	1
4902551	46	C	11/16/2021	22:04	-133.772	49.709	0	1865.50	0	2.0070	0	34.5700	0	27.636	0	1841.337	0	46.4	4	14.0	4	-1E+10	1	-1E+10	1	-1E+10	1	-1E+10	1	-1E+10	1	-1E+10	1
4902551	46	C	11/16/2021	22:04	-133.772	49.709	0	1875.40	0	1.9960	0	34.5720	0	27.639	0	1851.066	0	47.3	4	14.2	4	-1E+10	1	-1E+10	1	-1E+10	1	-1E+10	1	-1E+10	1	-1E+10	1
4902551	46	C	11/16/2021	22:04	-133.772	49.709	0	1885.40	0	1.9880	0	34.5740	0	27.641	0	1860.892	0	48.0	4	14.5	4	-1E+10	1	-1E+10	1	-1E+10	1	-1E+10	1	-1E+10	1	-1E+10	1
4902551	46	C	11/16/2021	22:04	-133.772	49.709	0	1895.40	0	1.9790	0	34.5750	0	27.643	0	1870.718	0	48.6	4	14.7	4	-1E+10	1	-1E+10	1	-1E+10	1	-1E+10	1	-1E+10	1	-1E+10	1
4902551	46	C	11/16/2021	22:04	-133.772	49.709	0	1905.50	0	1.9720	0	34.5770	0	27.645	0	1880.642	0	49.0	4	14.8	4	-1E+10	1	-1E+10	1	-1E+10	1	-1E+10	1	-1E+10	1	-1E+10	1
4902551	46	C	11/16/2021	22:04	-133.772	49.709	0	1915.30	0	1.9700	0	34.5770	0	27.645	0	1890.271	0	49.5	4	14.9	4	-1E+10	1	-1E+10	1	-1E+10	1	-1E+10	1	-1E+10	1	-1E+10	1
4902551	46	C	11/16/2021	22:04	-133.772	49.709	0	1925.50	0	1.9650	0	34.5780	0	27.646	0	1900.292	0	50.3	4	15.1	4	-1E+10	1	-1E+10	1	-1E+10	1	-1E+10	1	-1E+10	1	-1E+10	1
4902551	46	C	11/16/2021	22:04	-133.772	49.709	0	1935.60	0	1.9540	0	34.5810	0	27.650	0	1910.215	0	50.7	4	15.3	4	-1E+10	1	-1E+10	1	-1E+10	1	-1E+10	1	-1E+10	1	-1E+10	1
4902551	46	C	11/16/2021	22:04	-133.772	49.709	0	1945.70	0	1.9480	0	34.5810	0	27.650	0	1920.137	0	51.0	4	15.4	4	-1E+10	1	-1E+10	1	-1E+10	1	-1E+10	1	-1E+10	1	-1E+10	1
4902551	46	C	11/16/2021	22:04	-133.772	49.709	0	1955.50	0	1.9470	0	34.5820	0	27.651	0	1929.763	0	51.4	4	15.5	4	-1E+10	1	-1E+10	1	-1E+10	1	-1E+10	1	-1E+10	1	-1E+10	1
4902551	46	C	11/16/2021	22:04	-133.772	49.709	0	1965.50	0	1.9420	0	34.5830	0	27.652	0	1939.586	0	52.0	4	15.7	4	-1E+10	1	-1E+10	1	-1E+10	1	-1E+10	1	-1E+10	1	-1E+10	1
4902551	46	C	11/16/2021	22:04	-133.772	49.709	0	1975.40	0	1.9360	0	34.5840	0	27.654	0	1949.311	0	52.6	4	15.8	4	-1E+10	1	-1E+10	1	-1E+10	1	-1E+10	1	-1E+10	1	-1E+10	1
4902551	46	C	11/16/2021	22:04	-133.772	49.709	0	1985.40	0	1.9280	0	34.5860	0	27.656	0	1959.133	0	53.4	4	16.1	4	-1E+10	1	-1E+10	1	-1E+10	1	-1E+10	1	-1E+10	1	-1E+10	1
4902551	46	C	11/16/2021	22:04	-133.772	49.709	0	1995.60	0	1.9180	0	34.5880	0	27.658	0	1969.150	0	54.3	4	16.3	4	-1E+10	1	-1E+10	1	-1E+10	1	-1E+10	1	-1E+10	1	-1E+10	1
4902551	46	C	11/16/2021	22:04	-133.772	49.709	0	2005.90	0	1.9110	0	34.5900	0	27.661	0	1979.266	0	54.9	4	16.5	4	-1E+10	1	-1E+10	1	-1E+10	1	-1E+10	1	-1E+10	1	-1E+10	1
4902551	46	C	11/16/2021	22:04	-133.772	49.709	0	2011.00	0	1.9060	0	34.5910	0	27.662	0	1984.275	0	55.0	4	16.5	4	-1E+10	1	-1E+10	1	-1E+10	1	-1E+10	1	-1E+10	1	-1E+10	1
4902551	46	C	11/16/2021	22:04	-133.772	49.709	0																										
4902551	47	C	11/27/2021	03:02	-133.699	49.703	0	0.30	0	8.7480	0	32.2580	0	25.011	0	0.297	0	268.8	4	93.4	4	-1E+10	1	-1E+10	1	-1E+10	1	-1E+10	1	-1E+10	1	-1E+10	1
4902551	47	C	11/27/2021	03:02	-133.699	49.703	0	1.00	0	8.7460	0	32.2640	0	25.016	0	0.991	0	268.8	4	93.4	4	-1E+10	1	-1E+10	1	-1E+10	1	-1E+10	1	-1E+10	1	-1E+10	1
4902551	47	C	11/27/2021	03:02	-133.699	49.703	0	2.00	0	8.7510	0	32.2620	0	25.013	0	1.983	0	268.7	4	93.4	4	-1E+10	1	-1E+10	1	-1E+10	1	-1E+10	1	-1E+10	1	-1E+10	1
4902551	47	C	11/27/2021	03:02	-133.699	49.703	0	3.00	0	8.7530	0	32.2610	0	25.012	0	2.974	0	268.7	4	93.4	4	-1E+10	1	-1E+10	1	-1E+10	1	-1E+10	1	-1E+10	1	-1E+10	1
4902551	47	C	11/27/2021	03:02	-133.699	49.703	0	3.80	0	8.7530	0	32.2610	0	25.012	0	3.767	0	268.7	4	93.3	4	-1E+10	1	-1E+10	1	-1E+10	1	-1E+10	1	-1E+10	1	-1E+10	1
4902551	47	C	11/27/2021	03:02	-133.699	49.703	0	5.10	0	8.7530	0	32.2620	0	25.013	0	5.056	0	268.6	4	93.3	4	-1E+10	1	-1E+10	1	-1E+10	1	-1E+10	1	-1E+10	1	-1E+10	1
4902551	47	C	11/27/2021	03:02	-133.699	49.703	0	6.10	0	8.7540	0	32.2620	0	25.013	0	6.048	0	268.5	4	93.3	4	-1E+10	1	-1E+10	1	-1E+10	1	-1E+10	1	-1E+10	1	-1E+10	1
4902551	47	C	11/27/2021	03:02	-133.699	49.703	0	7.10	0	8.7540	0	32.2620	0	25.013	0	7.039	0	268.5	4	93.3	4	-1E+10	1	-1E+10	1	-1E+10	1	-1E+10	1	-1E+10	1	-1E+10	1
4902551	47	C	11/27/2021	03:02	-133.699	49.703	0	8.10	0	8.7540	0	32.2620	0	25.013	0	8.031	0	268.5	4	93.3	4	-1E+10	1	-1E+10	1	-1E+10	1	-1E+10	1	-1E+10	1	-1E+10	1
4902551	47	C	11/27/2021	03:02	-133.699	49.703	0	9.00	0	8.7540	0	32.2630	0	25.014	0	8.923	0	268.5	4	93.3	4	-1E+10	1	-1E+10	1	-1E+10	1	-1E+10	1	-1E+10	1	-1E+10	1
4902551	47	C	11/27/2021	03:02	-133.699	49.703	0	9.90	0	8.7540	0	32.2620	0	25.013	0	9.815	0	268.6	4	93.3	4	-1E+10	1	-1E+10	1	-1E+10	1	-1E+10	1	-1E+10	1	-1E+10	1
4902551	47	C	11/27/2021	03:02	-133.699	49.703	0	11.00	0	8.7540	0	32.2620	0	25.013	0	10.906	0	268.5	4	93.3	4	-1E+10	1	-1E+10	1	-1E+10	1	-1E+10	1	-1E+10	1	-1E+10	1
4902551	47	C	11/27/2021	03:02	-133.699	49.703	0	12.00	0	8.7540	0	32.2620	0	25.013	0	11.897	0	268.5	4	93.3	4	-1E+10	1	-1E+10	1	-1E+10	1	-1E+10	1	-1E+10	1	-1E+10	1
4902551	47	C	11/27/2021	03:02	-133.699	49.703	0	13.10	0	8.7540	0	32.2620	0	25.013	0	12.988	0	268.6	4	93.3	4	-1E+10	1	-1E+10	1	-1E+10	1	-1E+10	1	-1E+10	1	-1E+10	1
4902551	47	C	11/27/2021	03:02	-133.699	49.703	0	14.00	0	8.7540	0	32.2620	0	25.013	0	13.880	0	268.5	4	93.3	4	-1E+10	1	-1E+10	1	-1E+10	1	-1E+10	1	-1E+10	1	-1E+10	1
4902551	47	C	11/27/2021	03:02	-133.699	49.703	0	14.90	0	8.7540	0	32.2620	0	25.013	0	14.772	0	268.5	4	93.3	4	-1E+10	1	-1E+10	1	-1E+10	1	-1E+10	1	-1E+10	1	-1E+10	1
4902551	47	C	11/27/2021	03:02	-133.699	49.703	0	15.80	0	8.7540	0	32.2620	0	25.013	0	15.664	0	268.5	4	93.3	4	-1E+10	1	-1E+10	1	-1E+10	1	-1E+10	1	-1E+10	1	-1E+10	1
4902551	47	C	11/27/2021	03:02	-133.699	49.703	0	16.90	0	8.7550	0	32.2620	0	25.013	0	16.755	0	268.5	4	93.3	4	-1E+10	1	-1E+10	1	-1E+10	1	-1E+10	1	-1E+10	1	-1E+10	1
4902551	47	C	11/27/2021	03:02	-133.699	49.703	0	18.00	0	8.7550	0	32.2620	0	25.013	0	17.845	0	268.5	4	93.3	4	-1E+10	1	-1E+10	1	-1E+10	1	-1E+10	1	-1E+10	1	-1E+10	1
4902551	47	C	11/27/2021	03:02	-133.699	49.703	0	18.90	0	8.7550	0	32.2630	0	25.014	0	18.738	0	268.5	4	93.3	4	-1E+10	1	-1E+10	1	-1E+10	1	-1E+10	1	-1E+10	1	-1E+10	1
4902551	47	C	11/27/2021	03:02	-133.699	49.703	0	20.00	0	8.7560	0	32.2630	0	25.014	0	19.828	0	268.4	4	93.3	4	-1E+10	1	-1E+10	1	-1E+10	1	-1E+10	1	-1E+10	1	-1E+10	1
4902551	47	C	11/27/2021	03:02	-133.699	49.703	0	21.10	0	8.7560	0	32.2630	0	25.014	0	20.919	0	268.5	4	93.3	4	-1E+10	1	-1E+10	1	-1E+10	1	-1E+10	1	-1E+10	1	-1E+10	1
4902551	47	C	11/27/2021	03:02	-133.699	49.703	0	22.30	0	8.7550	0	32.2630	0	25.014	0	22.108	0	268.5	4	93.3	4	-1E+10	1	-1E+10	1	-1E+10	1	-1E+10	1	-1E+10	1	-1E+10	1
4902551	47	C	11/27/2021	03:02	-133.699	49.703	0	23.20	0	8.7550	0	32.2620	0	25.013	0	23.000	0	268.4	4	93.3	4	-1E+10	1	-1E+10	1	-1E+10	1	-1E+10	1	-1E+10	1	-1E+10	1
4902551	47	C	11/27/2021	03:02	-133.699	49.703	0	23.90	0	8.7550	0	32.2620	0	25.013	0	23.694	0	268.5	4	93.3	4	-1E+10	1	-1E+10	1	-1E+10	1	-1E+10	1	-1E+10	1	-1E+10	1
4902551	47	C	11/27/2021	03:02	-133.699	49.703	0	24.90	0	8.7540	0	32.2620	0	25.013	0	24.686	0	268.5	4	93.3	4	-1E+10	1	-1E+10	1	-1E+10	1	-1E+10	1	-1E+10	1	-1E+10	1
4902551	47	C	11/27/2021	03:02	-133.699	49.703	0	26.00	0	8.7540	0	32.2620	0	25.013	0	25.776	0	268.4	4	93.3	4	-1E+10	1	-1E+10	1	-1E+10	1	-1E+10	1	-1E+10	1	-1E+10	1
4902551	47	C	11/27/2021	03:02	-133.699	49.703	0	27.00	0	8.7570	0	32.2630	0	25.014	0	26.768	0	268.3	4	93.2	4	-1E+10	1	-1E+10	1	-1E+10	1	-1E+10	1	-1E+10	1	-1E+10	1
4902551	47	C	11/27/2021	03:02	-133.699	49.703	0	28.00	0	8.7570	0	32.2630	0	25.014	0	27.759	0	268.3	4	93.2	4	-1E+10	1	-1E+10	1	-1E+10	1	-1E+10	1	-1E+10	1	-1E+10	1
4902551	47	C	11/27/2021	03:02	-133.699	49.703	0	28.70	0	8.7570	0	32.2630	0	25.014	0	28.453	0	268.3	4	93.2	4	-1E+10	1	-1E+10	1	-1E+10	1	-1E+10	1	-1E+10	1	-1E+10	1
4902551	47	C	11/27/2021	03:02	-133.699	49.703	0	29.60	0	8.7580	0	32.2630	0	25.013	0	29.345	0	268.3	4	93.2	4	-1E+10	1	-1E+10	1	-1E+10	1	-1E+10	1	-1E+10	1	-1E+10	1
4902551	47	C	11/27/2021	03:02	-133.699	49.703	0	30.90	0	8.7580	0	32.2630	0	25.013	0	30.634	0	268.3	4	93.2	4	-1E+10	1	-1E+10	1	-1E+10	1	-1E+10	1	-1E+10	1	-1E+10	1
4902551	47	C	11/27/2021	03:02	-133.699	49.703	0	32.30	0	8.7580	0	32.2630	0	25.014	0	32.021	0	268.3	4	93.2	4	-1E+10	1	-1E+10	1	-1E+10	1	-1E+10	1	-1E+10	1	-1E+10	1
4902551	47	C	11/27/2021	03:02	-133.699	49.703	0	33.10	0	8.7580	0	32.2630	0	25.014	0	32.814	0	268.3	4	93.2	4	-1E+10	1	-1E+10	1	-1E+10	1	-1E+10	1	-1E+10	1	-1E+10	1
4902551	47	C	11/27/2021	03:02	-133.699	49.703	0	34.10	0	8.7590	0	32.2630	0	25.013	0	33.806	0	268.3	4	93.2	4	-1E+10	1	-1E+10	1	-1E+10	1	-1E+10	1	-1E+10	1	-1E+10	1
4902551	47	C	11/27/2021	03:02	-133.699	49.703	0	35.10	0	8.7580	0	32.2630	0	25.014	0	34.797	0	268.3	4	93.2	4	-1E+10	1	-1E+10	1	-1E+10	1	-1E+10	1	-1E+10	1	-1E+10	1
4902551	47	C	11/27/2021	03:02	-133.699	49.703	0	36.10	0	8.7580	0	32.2630	0	25.014	0	35.788	0	268.3	4	93.2	4	-1E+10	1	-1E+10	1	-1E+10	1	-1E+10	1	-1E+10	1	-1E+10	1
4902551	47	C	11/27/2021	03:02	-133.699	49.703	0	37.10	0	8.7580	0	32.2630	0	25.014	0	36.780	0	268.2	4	93.2	4	-1E+10	1	-1E+10	1	-1E+10	1	-1E+10	1	-1E+10	1	-1E+10	1
4902551	47	C	11/27/2021	03:02	-133.699	49.703	0	38.10	0	8.7580	0	32.2630	0	25.014	0	37.771	0	268.2	4	93.2	4	-1E+10	1	-1E+10	1	-1E+10	1	-1E+10	1	-1E+10	1	-1E+10	1
4902551	47	C	11/27/2021	03:02	-133.699	49.703	0	39.10	0	8.7590	0	32.2630	0	25.013	0	38.762	0	268.1	4	93.2	4	-1E+10	1	-1E+10	1	-1E+10	1	-1E+10	1	-1E+10	1	-1E+10	1
4902551	47	C	11/27/2021	03:02	-133.699	49.703	0	39.90	0	8.7590	0	32.2630	0	25.013	0	39.555	0	268.1	4	93.2	4	-1E+10	1	-1E+10	1	-1E+10	1	-1E+10	1	-1E+10	1	-1E+10	1
4902551	47	C	11/27/2021	03:02	-133.699	49.703	0	40.90	0	8.7590	0	32.2630	0	25.013	0	40.546	0	268.0	4	93.1	4	-1E+10	1	-1E+10	1	-1E+10	1	-1E+10	1	-1E+10	1	-1E+10	1
4902551	47	C	11/27/2021	03:02	-133.699	49.703	0	41.80	0	8.7590	0	32.2630	0	25.013	0	41.439	0	268.0	4	93.1	4	-1E+10	1	-1E+10	1	-1E+10	1	-1E+10	1	-1E+10	1	-1E+10	1
4902551	47	C	11/27/2021	03:02	-133.699	49.703	0	43.10	0	8.7590	0	32.2630	0	25.014	0	42.727	0	267.9	4	93.1	4	-1E+10	1	-1E+10	1	-1E+10	1	-1E+10	1	-1E+10	1	-1E+10	1
4902551	47	C	11/27/2021	03:02	-133.699	49.703	0	44.10	0	8.7600	0	32.2630	0	25.013	0	43.718	0	267.9	4	93.1	4	-1E+10	1	-1E+10	1	-1E+10	1	-1E+10	1	-1E+10	1	-1E+10	1
4902551	47	C	11/27/2021	03:02	-133.699	49.703	0	45.10	0	8.7600	0	32.2630	0	25.013	0	44.710	0	267.8	4	93.1	4	-1E+10	1	-1E+10	1	-1E+10	1	-1E+10	1	-1E+10	1	-1E+10	1
4902551	47	C	11/27/2021	03:02	-133.699	49.703	0	46.00	0	8.7610	0	32.2630	0	25.013	0	45.602	0	267.7	4	93.0	4	-1E+10	1	-1E+10	1	-1E+10	1	-1E+10	1	-1E+10	1	-1E+10	1
4902551	47	C	11/27/2021	03:02	-133.699	49.703	0	46.90	0	8.7610	0	32.2640	0	25.014	0	46.494	0	267.7	4	93.0	4	-1E+10	1	-1E+10	1	-1E+10	1	-1E+10	1	-1E+10	1	-1E+10	1
4902551	47	C	11/27/2021	03:02	-133.699	49.703	0	48.10	0	8.7600	0	32.2630	0	25.013	0	47.683	0	267.6	4	93.0	4	-1E+10	1	-1E+10	1	-1E+10	1	-1E+10	1	-1E+10	1	-1E+10	1
4902551	47	C	11/27/2021	03:02	-133.699	49.703	0	49.10	0	8.7600	0	32.2640	0	25.014	0	48.675	0	267.5	4	93.0	4	-1E+10	1	-1E+10	1	-1E+10	1	-1E+10	1	-1E+10	1	-1E+10	1
4902551	47	C	11/27/2021	03:02	-133.699	49.703	0	50.10	0	8.7610	0	32.2640	0	25.014	0	49.666	0	267.6	4	93.0	4	-1E+10	1	-1E+10	1	-1E+10	1	-1E+10	1	-1E+10	1	-1E+10	1
4902551	47	C	11/27/2021	03:02	-133.699	49.703	0	51.00	0	8.7610	0	32.2630	0	25.013	0	50.558	0	267.5	4	93.0	4	-1E+10	1	-1E+10	1	-1E+10	1	-1E+10	1	-1E+10	1	-1E+10	1
4902551	47	C	11/27/2021	03:02	-133.699	49.703	0	52.00	0	8.7610	0	32.2640	0	25.014	0	51.549	0	267.4	4	92.9	4	-1E+10	1	-1E+10	1	-1E+10	1	-1E+10	1	-1E+10	1	-1E+10	1
4902551	47	C	11/27/2021	03:02	-133.699	49.703	0	52.70	0	8.7610	0	32.2630	0	25.013	0	52.243	0	267.4	4	92.9	4	-1E+10	1	-1E+10	1	-1E+10	1	-1E+10	1	-1E+10	1	-1E+10	1
4902551	47	C	11/27/2021	03:02	-133.699	49.703	0	53.90	0	8.7620	0	32.2630	0	25.013	0	53.432	0	267.3	4	92.9	4	-1E+10	1	-1E+10	1	-1E+10	1	-1E+10	1	-1E+10	1	-1E+10	1
4902551	47	C	11/27/2021	03:02	-133.699	49.703	0	55.20	0	8.7620	0	32.2640	0	25.014	0	54.721	0	267.3	4	92.9	4	-1E+10	1	-1E+10	1	-1E+10	1	-1E+10	1	-1E+10	1	-1E+10	1
4902551	47	C	11/27/2021	03:02	-133.699	49.703	0	56.00	0	8.7630	0	32.2640	0	25.014	0	55.514	0	267.2	4	92.9	4	-1E+10	1	-1E+10	1	-1E+10	1	-1E+10	1	-1E+10	1	-1E+10	1
4902551	47	C	11/27/2021	03:02	-133.699	49.703	0	56.80	0	8.7630	0	32.2640	0	25.014	0	56.307	0	267.2	4	92.9	4	-1E+10	1	-1E+10	1	-1E+10	1	-1E+10	1	-1E+10	1	-1E+10	1
4902551	47	C	11/27/2021	03:02	-133.699	49.703	0	58.00	0	8.7630	0	32.2640	0	25.014	0	57.496	0	267.1	4	92.8	4	-1E+10	1	-1E+10	1	-1E+10	1	-1E+10	1	-1E+10	1	-1E+10	1
4902551	47	C	11/27/2021	03:02	-133.699	49.703	0	59.20	0	8.7630	0	32.2640	0	25.014	0	58.686	0	267.1	4	92.8	4	-1E+10	1	-1E+10	1	-1E+10	1	-1E+10	1	-1E+10	1	-1E+10	1
4902551	47	C	11/27/2021	03:02	-133.699	49.703	0	60.00	0	8.7640	0	32.2640	0	25.014	0	59.479	0	267.0	4	92.8	4	-1E+10	1	-1E+10	1	-1E+10	1	-1E+10	1	-1E+10	1	-1E+10	1
4902551	47	C	11/27/2021	03:02	-133.699	49.703	0	60.80	0	8.7640	0	32.2640	0	25.014	0	60.272	0	267.0	4	92.8	4	-1E+10	1	-1E+10	1	-1E+10	1	-1E+10	1	-1E+10	1	-1E+10	1
4902551	47	C	11/27/2021	03:02	-133.699	49.703	0	62.00	0	8.7640	0	32.2640	0	25.014	0	61.461	0	267.0	4	92.8	4	-1E+10	1	-1E+10	1	-1E+10	1	-1E+10	1	-1E+10	1	-1E+10	1
4902551	47	C	11/27/2021	03:02	-133.699	49.703	0	63.20	0	8.7640	0	32.2630	0	25.013	0	62.650	0	266.9	4	92.8	4	-1E+10	1	-1E+10	1	-1E+10	1	-1E+10	1	-1E+10	1	-1E+10	1
4902551	47	C	11/27/2021	03:02	-133.699	49.703	0	64.00	0	8.7650	0	32.2640	0	25.014	0	63.443	0	266.9	4	92.8	4	-1E+10	1	-1E+10	1	-1E+10	1	-1E+10	1	-1E+10	1	-1E+10	1
4902551	47	C	11/27/2021	03:02	-133.699	49.703	0	64.90	0	8.7640	0	32.2640	0	25.014	0	64.335	0	266.8	4	92.7	4	-1E+10	1	-1E+10	1	-1E+10	1	-1E+10	1	-1E+10	1	-1E+10	1
4902551	47	C	11/27/2021	03:02	-133.699	49.703	0	65.90	0	8.7640	0	32.2640	0	25.014	0	65.326	0	266.7	4	92.7	4	-1E+10	1	-1E+10	1	-1E+10	1	-1E+10	1	-1E+10	1	-1E+10	1
4902551	47	C	11/27/2021	03:02	-133.699	49.703	0	66.90	0	8.7640	0	32.2630	0	25.013	0	66.318	0	266.6	4	92.7	4	-1E+10	1	-1E+10	1	-1E+10	1	-1E+10	1	-1E+10	1	-1E+10	1
4902551	47	C	11/27/2021	03:02	-133.699	49.703	0	68.10	0	8.7640	0	32.2630	0	25.013	0	67.507	0	266.5	4	92.6	4	-1E+10	1	-1E+10	1	-1E+10	1	-1E+10	1	-1E+10	1	-1E+10	1
4902551	47	C	11/27/2021	03:02	-133.699	49.703	0	68.90	0	8.7630	0	32.2640	0	25.014	0	68.300	0	266.4	4	92.6	4	-1E+10	1	-1E+10	1	-1E+10	1	-1E+10	1	-1E+10	1	-1E+10	1
4902551	47	C	11/27/2021	03:02	-133.699	49.703	0	70.10	0	8.7640	0	32.2630	0	25.013	0	69.489	0	266.2	4	92.5	4	-1E+10	1	-1E+10	1	-1E+10	1	-1E+10	1	-1E+10	1	-1E+10	1
4902551	47	C	11/27/2021	03:02	-133.699	49.703	0	71.30	0	8.7640	0	32.2640	0	25.014	0	70.678	0	266.0	4	92.4	4	-1E+10	1	-1E+10	1	-1E+10	1	-1E+10	1	-1E+10	1	-1E+10	1
4902551	47	C	11/27/2021	03:02	-133.699	49.703	0	72.00	0	8.7600	0	32.2640	0	25.015	0	71.372	0	265.8	4	92.4	4	-1E+10	1	-1E+10	1	-1E+10	1	-1E+10	1	-1E+10	1	-1E+10	1
4902551	47	C	11/27/2021	03:02	-133.699	49.703	0	72.90	0	8.7580	0	32.2640	0	25.015	0	72.264	0	265.5	4	92.3	4	-1E+10	1	-1E+10	1	-1E+10	1	-1E+10	1	-1E+10	1	-1E+10	1
4902551	47	C	11/27/2021	03:02	-133.699	49.703	0	74.10	0	8.7540	0	32.2610	0	25.013	0	73.454	0	265.2	4	92.2	4	-1E+10	1	-1E+10	1	-1E+10	1	-1E+10	1	-1E+10	1	-1E+10	1
4902551	47	C	11/27/2021	03:02	-133.699	49.703	0	74.80	0	8.7400	0	32.2650	0	25.018	0	74.147	0	264.9	4	92.0	4	-1E+10	1	-1E+10	1	-1E+10	1	-1E+10	1	-1E+10	1	-1E+10	1
4902551	47	C	11/27/2021	03:02	-133.699	49.703	0	75.70	0	8.7480	0	32.2640	0	25.016	0	75.039	0	264.4	4	91.9	4	-1E+10	1	-1E+10	1	-1E+10	1	-1E+10	1	-1E+10	1	-1E+10	1
4902551	47	C	11/27/2021	03:02	-133.699	49.703	0	76.70	0	8.7140	0	32.2690	0	25.026	0	76.030	0	264.1	4	91.7	4	-1E+10	1	-1E+10	1	-1E+10	1	-1E+10	1	-1E+10	1	-1E+10	1
4902551	47	C	11/27/2021	03:02	-133.699	49.703	0	77.70	0	8.6610	0	32.2730	0	25.037	0	77.021	0	263.9	4	91.5	4	-1E+10	1	-1E+10	1	-1E+10	1	-1E+10	1	-1E+10	1	-1E+10	1
4902551	47	C	11/27/2021	03:02	-133.699	49.703	0	78.70	0	8.5630	0	32.2870	0	25.062	0	78.013	0	264.0	4	91.3	4	-1E+10	1	-1E+10	1	-1E+10	1	-1E+10	1	-1E+10	1	-1E+10	1
4902551	47	C	11/27/2021	03:02	-133.699	49.703	0	79.90	0	8.5030	0	32.2930	0	25.076	0	79.202	0	263.7	4	91.1	4	-1E+10	1	-1E+10	1	-1E+10	1	-1E+10	1	-1E+10	1	-1E+10	1
4902551	47	C	11/27/2021	03:02	-133.699	49.703	0	81.20	0	8.4620	0	32.2970	0	25.085	0	80.490	0	263.3	4	90.9	4	-1E+10	1	-1E+10	1	-1E+10	1	-1E+10	1	-1E+10	1	-1E+10	1
4902551	47	C	11/27/2021	03:02	-133.699	49.703	0	81.90	0	8.4170	0	32.2990	0	25.094	0	81.184	0	263.1	4	90.7	4	-1E+10	1	-1E+10	1	-1E+10	1	-1E+10	1	-1E+10	1	-1E+10	1
4902551	47	C	11/27/2021	03:02	-133.699	49.703	0	83.00	0	8.1790	0	32.3290	0	25.152	0	82.274	0	263.0	4	90.3	4	-1E+10	1	-1E+10	1	-1E+10	1	-1E+10	1	-1E+10	1	-1E+10	1
4902551	47	C	11/27/2021	03:02	-133.699	49.703	0	84.10	0	8.0190	0	32.3510	0	25.193	0	83.364	0	262.7	4	89.9	4	-1E+10	1	-1E+10	1	-1E+10	1	-1E+10	1	-1E+10	1	-1E+10	1
4902551	47	C	11/27/2021	03:02	-133.699	49.703	0	85.00	0	7.6370	0	32.3850	0	25.274	0	84.256	0	263.2	4	89.3	4	-1E+10	1	-1E+10	1	-1E+10	1	-1E+10	1	-1E+10	1	-1E+10	1
4902551	47	C	11/27/2021	03:02	-133.699	49.703	0	86.10	0	7.3620	0	32.4050	0	25.327	0	85.346	0	263.8	4	88.9	4	-1E+10	1	-1E+10	1	-1E+10	1	-1E+10	1	-1E+10	1	-1E+10	1
4902551	47	C	11/27/2021	03:02	-133.699	49.703	0	87.20	0	7.1130	0	32.4290	0	25.380	0	86.437	0	264.6	4	88.7	4	-1E+10	1	-1E+10	1	-1E+10	1	-1E+10	1	-1E+10	1	-1E+10	1
4902551	47	C	11/27/2021	03:02	-133.699	49.703	0	87.80	0	6.9920	0	32.4360	0	25.402	0	87.031	0	264.7	4	88.5	4	-1E+10	1	-1E+10	1	-1E+10	1	-1E+10	1	-1E+10	1	-1E+10	1
4902551	47	C	11/27/2021	03:02	-133.699	49.703	0	88.80	0	6.6270	0	32.4830	0	25.487	0	88.022	0	265.1	4	87.9	4	-1E+10	1	-1E+10	1	-1E+10	1	-1E+10	1	-1E+10	1	-1E+10	1
4902551	47	C	11/27/2021	03:02	-133.699	49.703	0	89.90	0	6.5460	0	32.4740	0	25.490	0	89.112	0	264.9	4	87.7	4	-1E+10	1	-1E+10	1	-1E+10	1	-1E+10	1	-1E+10	1	-1E+10	1
4902551	47	C	11/27/2021	03:02	-133.699	49.703	0	91.00	0	6.4940	0	32.4810	0	25.502	0	90.202	0	264.6	4	87.5	4	-1E+10	1	-1E+10	1	-1E+10	1	-1E+10	1	-1E+10	1	-1E+10	1
4902551	47	C	11/27/2021	03:02	-133.699	49.703	0	92.10	0	6.4690	0	32.4860	0	25.509	0	91.293	0	264.2	4	87.3	4	-1E+10	1	-1E+10	1	-1E+10	1	-1E+10	1	-1E+10	1	-1E+10	1
4902551	47	C	11/27/2021	03:02	-133.699	49.703	0	92.90	0	6.4530	0	32.4890	0	25.514	0	92.085	0	263.9	4	87.2	4	-1E+10	1	-1E+10	1	-1E+10	1	-1E+10	1	-1E+10	1	-1E+10	1
4902551	47	C	11/27/2021	03:02	-133.699	49.703	0	93.80	0	6.4280	0	32.4940	0	25.521	0	92.977	0	263.4	4	87.0	4	-1E+10	1	-1E+10	1	-1E+10	1	-1E+10	1	-1E+10	1	-1E+10	1
4902551	47	C	11/27/2021	03:02	-133.699	49.703	0	94.90	0	6.3910	0	32.5020	0	25.532	0	94.067	0	263.0	4	86.8	4	-1E+10	1	-1E+10	1	-1E+10	1	-1E+10	1	-1E+10	1	-1E+10	1
4902551	47	C	11/27/2021	03:02	-133.699	49.703	0	96.10	0	6.3520	0	32.5160	0	25.548	0	95.257	0	262.5	4	86.5	4	-1E+10	1	-1E+10	1	-1E+10	1	-1E+10	1	-1E+10	1	-1E+10	1
4902551	47	C	11/27/2021	03:02	-133.699	49.703	0	97.00	0	6.3440	0	32.5200	0	25.552	0	96.148	0	262.0	4	86.4	4	-1E+10	1	-1E+10	1	-1E+10	1	-1E+10	1	-1E+10	1	-1E+10	1
4902551	47	C	11/27/2021	03:02	-133.699	49.703	0	97.90	0	6.3420	0	32.5200	0	25.552	0	97.040	0	261.6	4	86.2	4	-1E+10	1	-1E+10	1	-1E+10	1	-1E+10	1	-1E+10	1	-1E+10	1
4902551	47	C	11/27/2021	03:02	-133.699	49.703	0	99.10	0	6.3380	0	32.5210	0	25.553	0	98.230	0	260.8	4	86.0	4	-1E+10	1	-1E+10	1	-1E+10	1	-1E+10	1	-1E+10	1	-1E+10	1
4902551	47	C	11/27/2021	03:02	-133.699	49.703	0	100.00	0	6.3320	0	32.5210	0	25.554	0	99.121	0	260.2	4	85.7	4	-1E+10	1	-1E+10	1	-1E+10	1	-1E+10	1	-1E+10	1	-1E+10	1
4902551	47	C	11/27/2021	03:02	-133.699	49.703	0	100.90	0	6.2730	0	32.5340	0	25.572	0	100.013	0	259.7	4	85.5	4	-1E+10	1	-1E+10	1	-1E+10	1	-1E+10	1	-1E+10	1	-1E+10	1
4902551	47	C	11/27/2021	03:02	-133.699	49.703	0	101.90	0	6.2270	0	32.5480	0	25.589	0	101.004	0	259.1	4	85.2	4	-1E+10	1	-1E+10	1	-1E+10	1	-1E+10	1	-1E+10	1	-1E+10	1
4902551	47	C	11/27/2021	03:02	-133.699	49.703	0	102.80	0	6.2080	0	32.5540	0	25.596	0	101.896	0	258.3	4	84.9	4	-1E+10	1	-1E+10	1	-1E+10	1	-1E+10	1	-1E+10	1	-1E+10	1
4902551	47	C	11/27/2021	03:02	-133.699	49.703	0	103.80	0	6.1650	0	32.5600	0	25.606	0	102.887	0	257.5	4	84.6	4	-1E+10	1	-1E+10	1	-1E+10	1	-1E+10	1	-1E+10	1	-1E+10	1
4902551	47	C	11/27/2021	03:02	-133.699	49.703	0	104.80	0	6.1510	0	32.5610	0	25.608	0	103.878	0	256.3	4	84.1	4	-1E+10	1	-1E+10	1	-1E+10	1	-1E+10	1	-1E+10	1	-1E+10	1
4902551	47	C	11/27/2021	03:02	-133.699	49.703	0	106.00	0	6.0900	0	32.5590	0	25.614	0	105.067	0	254.5	4	83.4	4	-1E+10	1	-1E+10	1	-1E+10	1	-1E+10	1	-1E+10	1	-1E+10	1
4902551	47	C	11/27/2021	03:02	-133.699	49.703	0	107.00	0	6.0660	0	32.5610	0	25.619	0	106.058	0	252.8	4	82.8	4	-1E+10	1	-1E+10	1	-1E+10	1	-1E+10	1	-1E+10	1	-1E+10	1
4902551	47	C	11/27/2021	03:02	-133.699	49.703	0	107.80	0	6.0650	0	32.5620	0	25.620	0	106.851	0	251.2	4	82.3	4	-1E+10	1	-1E+10	1	-1E+10	1	-1E+10	1	-1E+10	1	-1E+10	1
4902551	47	C	11/27/2021	03:02	-133.699	49.703	0	108.90	0	6.0500	0	32.5700	0	25.628	0	107.941	0	248.9	4	81.5	4	-1E+10	1	-1E+10	1	-1E+10	1	-1E+10	1	-1E+10	1	-1E+10	1
4902551	47	C	11/27/2021	03:02	-133.699	49.703	0	109.90	0	6.0180	0	32.5940	0	25.651	0	108.932	0	246.6	4	80.7	4	-1E+10	1	-1E+10	1	-1E+10	1	-1E+10	1	-1E+10	1	-1E+10	1
4902551	47	C	11/27/2021	03:02	-133.699	49.703	0	110.90	0	6.0120	0	32.6000	0	25.656	0	109.923	0	243.9	4	79.8	4	-1E+10	1	-1E+10	1	-1E+10	1	-1E+10	1	-1E+10	1	-1E+10	1
4902551	47	C	11/27/2021	03:02	-133.699	49.703	0	111.90	0	6.0050	0	32.6120	0	25.667	0	110.914	0	240.1	4	78.6	4	-1E+10	1	-1E+10	1	-1E+10	1	-1E+10	1	-1E+10	1	-1E+10	1
4902551	47	C	11/27/2021	03:02	-133.699	49.703	0	112.80	0	5.9900	0	32.6450	0	25.695	0	111.805	0	234.9	4	76.8	4	-1E+10	1	-1E+10	1	-1E+10	1	-1E+10	1	-1E+10	1	-1E+10	1
4902551	47	C	11/27/2021	03:02	-133.699	49.703	0	113.80	0	5.9800	0	32.6640	0	25.711	0	112.796	0	227.7	4	74.5	4	-1E+10	1	-1E+10	1	-1E+10	1	-1E+10	1	-1E+10	1	-1E+10	1
4902551	47	C	11/27/2021	03:02	-133.699	49.703	0	115.10	0	5.9710	0	32.7130	0	25.751	0	114.085	0	218.6	4	71.5	4	-1E+10	1	-1E+10	1	-1E+10	1	-1E+10	1	-1E+10	1	-1E+10	1
4902551	47	C	11/27/2021	03:02	-133.699	49.703	0	116.10	0	5.9760	0	32.7850	0	25.807	0	115.075	0	211.3	4	69.2	4	-1E+10	1	-1E+10	1	-1E+10	1	-1E+10	1	-1E+10	1	-1E+10	1
4902551	47	C	11/27/2021	03:02	-133.699	49.703	0	117.10	0	6.0470	0	32.9210	0	25.906	0	116.066	0	203.2	4	66.7	4	-1E+10	1	-1E+10	1	-1E+10	1	-1E+10	1	-1E+10	1	-1E+10	1
4902551	47	C	11/27/2021	03:02	-133.699	49.703	0	118.10	0	6.0470	0	32.9790	0	25.951	0	117.057	0	198.8	4	65.3	4	-1E+10	1	-1E+10	1	-1E+10	1	-1E+10	1	-1E+10	1	-1E+10	1
4902551	47	C	11/27/2021	03:02	-133.699	49.703	0	119.00	0	6.0530	0	33.0170	0	25.981	0	117.949	0	195.0	4	64.1	4	-1E+10	1	-1E+10	1	-1E+10	1	-1E+10	1	-1E+10	1	-1E+10	1
4902551	47	C	11/27/2021	03:02	-133.699	49.703	0	119.90	0	6.0670	0	33.0610	0	26.014	0	118.841	0	190.3	4	62.6	4	-1E+10	1	-1E+10	1	-1E+10	1	-1E+10	1	-1E+10	1	-1E+10	1
4902551	47	C	11/27/2021	03:02	-133.699	49.703	0	121.10	0	6.0650	0	33.0870	0	26.035	0	120.030	0	185.7	4	61.1	4	-1E+10	1	-1E+10	1	-1E+10	1	-1E+10	1	-1E+10	1	-1E+10	1
4902551	47	C	11/27/2021	03:02	-133.699	49.703	0	122.00	0	6.0620	0	33.1000	0	26.045	0	120.922	0	182.2	4	59.9	4	-1E+10	1	-1E+10	1	-1E+10	1	-1E+10	1	-1E+10	1	-1E+10	1
4902551	47	C	11/27/2021	03:02	-133.699	49.703	0	123.10	0	6.0640	0	33.1240	0	26.064	0	122.012	0	179.0	4	58.9	4	-1E+10	1	-1E+10	1	-1E+10	1	-1E+10	1	-1E+10	1	-1E+10	1
4902551	47	C	11/27/2021	03:02	-133.699	49.703	0	123.80	0	6.0850	0	33.1690	0	26.097	0	122.705	0	177.0	4	58.3	4	-1E+10	1	-1E+10	1	-1E+10	1	-1E+10	1	-1E+10	1	-1E+10	1
4902551	47	C	11/27/2021	03:02	-133.699	49.703	0	124.90	0	6.1230	0	33.2020	0	26.118	0	123.795	0	174.4	4	57.5	4	-1E+10	1	-1E+10	1	-1E+10	1	-1E+10	1	-1E+10	1	-1E+10	1
4902551	47	C	11/27/2021	03:02	-133.699	49.703	0	126.10	0	6.1420	0	33.2270	0	26.136	0	124.984	0	171.8	4	56.7	4	-1E+10	1	-1E+10	1	-1E+10	1	-1E+10	1	-1E+10	1	-1E+10	1
4902551	47	C	11/27/2021	03:02	-133.699	49.703	0	127.00	0	6.1530	0	33.2490	0	26.152	0	125.876	0	169.6	4	56.0	4	-1E+10	1	-1E+10	1	-1E+10	1	-1E+10	1	-1E+10	1	-1E+10	1
4902551	47	C	11/27/2021	03:02	-133.699	49.703	0	128.00	0	6.1030	0	33.2650	0	26.170	0	126.867	0	167.5	4	55.2	4	-1E+10	1	-1E+10	1	-1E+10	1	-1E+10	1	-1E+10	1	-1E+10	1
4902551	47	C	11/27/2021	03:02	-133.699	49.703	0	129.00	0	6.1190	0	33.3270	0	26.217	0	127.858	0	165.4	4	54.6	4	-1E+10	1	-1E+10	1	-1E+10	1	-1E+10	1	-1E+10	1	-1E+10	1
4902551	47	C	11/27/2021	03:02	-133.699	49.703	0	130.00	0	6.1040	0	33.3330	0	26.224	0	128.848	0	163.5	4	53.9	4	-1E+10	1	-1E+10	1	-1E+10	1	-1E+10	1	-1E+10	1	-1E+10	1
4902551	47	C	11/27/2021	03:02	-133.699	49.703	0	131.10	0	6.0910	0	33.3440	0	26.234	0	129.938	0	161.6	4	53.3	4	-1E+10	1	-1E+10	1	-1E+10	1	-1E+10	1	-1E+10	1	-1E+10	1
4902551	47	C	11/27/2021	03:02	-133.699	49.703	0	132.00	0	6.1010	0	33.3490	0	26.237	0	130.830	0	159.7	4	52.7	4	-1E+10	1	-1E+10	1	-1E+10	1	-1E+10	1	-1E+10	1	-1E+10	1
4902551	47	C	11/27/2021	03:02	-133.699	49.703	0	133.10	0	6.1350	0	33.3780	0	26.256	0	131.920	0	158.0	4	52.2	4	-1E+10	1	-1E+10	1	-1E+10	1	-1E+10	1	-1E+10	1	-1E+10	1
4902551	47	C	11/27/2021	03:02	-133.699	49.703	0	133.80	0	6.1350	0	33.4030	0	26.275	0	132.614	0	156.8	4	51.8	4	-1E+10	1	-1E+10	1	-1E+10	1	-1E+10	1	-1E+10	1	-1E+10	1
4902551	47	C	11/27/2021	03:02	-133.699	49.703	0	134.80	0	6.1340	0	33.4170	0	26.287	0	133.604	0	155.1	4	51.2	4	-1E+10	1	-1E+10	1	-1E+10	1	-1E+10	1	-1E+10	1	-1E+10	1
4902551	47	C	11/27/2021	03:02	-133.699	49.703	0	135.90	0	6.1340	0	33.4310	0	26.298	0	134.694	0	153.2	4	50.6	4	-1E+10	1	-1E+10	1	-1E+10	1	-1E+10	1	-1E+10	1	-1E+10	1
4902551	47	C	11/27/2021	03:02	-133.699	49.703	0	137.00	0	6.1330	0	33.4670	0	26.326	0	135.784	0	151.8	4	50.1	4	-1E+10	1	-1E+10	1	-1E+10	1	-1E+10	1	-1E+10	1	-1E+10	1
4902551	47	C	11/27/2021	03:02	-133.699	49.703	0	138.10	0	6.1340	0	33.4790	0	26.336	0	136.874	0	150.6	4	49.8	4	-1E+10	1	-1E+10	1	-1E+10	1	-1E+10	1	-1E+10	1	-1E+10	1
4902551	47	C	11/27/2021	03:02	-133.699	49.703	0	138.80	0	6.1310	0	33.4850	0	26.341	0	137.568	0	149.9	4	49.5	4	-1E+10	1	-1E+10	1	-1E+10	1	-1E+10	1	-1E+10	1	-1E+10	1
4902551	47	C	11/27/2021	03:02	-133.699	49.703	0	139.90	0	6.1280	0	33.4930	0	26.348	0	138.657	0	148.7	4	49.1	4	-1E+10	1	-1E+10	1	-1E+10	1	-1E+10	1	-1E+10	1	-1E+10	1
4902551	47	C	11/27/2021	03:02	-133.699	49.703	0	141.00	0	6.1240	0	33.5050	0	26.358	0	139.747	0	147.2	4	48.6	4	-1E+10	1	-1E+10	1	-1E+10	1	-1E+10	1	-1E+10	1	-1E+10	1
4902551	47	C	11/27/2021	03:02	-133.699	49.703	0	141.80	0	6.1210	0	33.5120	0	26.363	0	140.540	0	146.3	4	48.3	4	-1E+10	1	-1E+10	1	-1E+10	1	-1E+10	1	-1E+10	1	-1E+10	1
4902551	47	C	11/27/2021	03:02	-133.699	49.703	0	142.80	0	6.1210	0	33.5190	0	26.369	0	141.531	0	145.0	4	47.9	4	-1E+10	1	-1E+10	1	-1E+10	1	-1E+10	1	-1E+10	1	-1E+10	1
4902551	47	C	11/27/2021	03:02	-133.699	49.703	0	143.90	0	6.1220	0	33.5270	0	26.375	0	142.621	0	143.5	4	47.4	4	-1E+10	1	-1E+10	1	-1E+10	1	-1E+10	1	-1E+10	1	-1E+10	1
4902551	47	C	11/27/2021	03:02	-133.699	49.703	0	145.00	0	6.1140	0	33.5680	0	26.409	0	143.710	0	142.6	4	47.1	4	-1E+10	1	-1E+10	1	-1E+10	1	-1E+10	1	-1E+10	1	-1E+10	1
4902551	47	C	11/27/2021	03:02	-133.699	49.703	0	146.10	0	6.1110	0	33.5800	0	26.418	0	144.800	0	141.7	4	46.8	4	-1E+10	1	-1E+10	1	-1E+10	1	-1E+10	1	-1E+10	1	-1E+10	1
4902551	47	C	11/27/2021	03:02	-133.699	49.703	0	146.80	0	6.1090	0	33.5830	0	26.421	0	145.494	0	141.0	4	46.6	4	-1E+10	1	-1E+10	1	-1E+10	1	-1E+10	1	-1E+10	1	-1E+10	1
4902551	47	C	11/27/2021	03:02	-133.699	49.703	0	147.90	0	6.0980	0	33.5950	0	26.432	0	146.584	0	139.9	4	46.2	4	-1E+10	1	-1E+10	1	-1E+10	1	-1E+10	1	-1E+10	1	-1E+10	1
4902551	47	C	11/27/2021	03:02	-133.699	49.703	0	149.10	0	6.0890	0	33.6090	0	26.444	0	147.772	0	138.9	4	45.9	4	-1E+10	1	-1E+10	1	-1E+10	1	-1E+10	1	-1E+10	1	-1E+10	1
4902551	47	C	11/27/2021	03:02	-133.699	49.703	0	149.90	0	6.0830	0	33.6130	0	26.448	0	148.565	0	138.3	4	45.7	4	-1E+10	1	-1E+10	1	-1E+10	1	-1E+10	1	-1E+10	1	-1E+10	1
4902551	47	C	11/27/2021	03:02	-133.699	49.703	0	151.00	0	6.0730	0	33.6210	0	26.456	0	149.655	0	137.1	4	45.3	4	-1E+10	1	-1E+10	1	-1E+10	1	-1E+10	1	-1E+10	1	-1E+10	1
4902551	47	C	11/27/2021	03:02	-133.699	49.703	0	152.20	0	6.0650	0	33.6300	0	26.464	0	150.844	0	136.0	4	44.9	4	-1E+10	1	-1E+10	1	-1E+10	1	-1E+10	1	-1E+10	1	-1E+10	1
4902551	47	C	11/27/2021	03:02	-133.699	49.703	0	153.10	0	6.0540	0	33.6430	0	26.475	0	151.735	0	135.1	4	44.6	4	-1E+10	1	-1E+10	1	-1E+10	1	-1E+10	1	-1E+10	1	-1E+10	1
4902551	47	C	11/27/2021	03:02	-133.699	49.703	0	153.90	0	6.0410	0	33.6620	0	26.492	0	152.528	0	134.8	4	44.5	4	-1E+10	1	-1E+10	1	-1E+10	1	-1E+10	1	-1E+10	1	-1E+10	1
4902551	47	C	11/27/2021	03:02	-133.699	49.703	0	154.80	0	6.0360	0	33.6690	0	26.498	0	153.420	0	134.5	4	44.4	4	-1E+10	1	-1E+10	1	-1E+10	1	-1E+10	1	-1E+10	1	-1E+10	1
4902551	47	C	11/27/2021	03:02	-133.699	49.703	0	155.60	0	6.0350	0	33.6700	0	26.499	0	154.212	0	134.2	4	44.3	4	-1E+10	1	-1E+10	1	-1E+10	1	-1E+10	1	-1E+10	1	-1E+10	1
4902551	47	C	11/27/2021	03:02	-133.699	49.703	0	156.90	0	6.0330	0	33.6710	0	26.500	0	155.500	0	133.8	4	44.1	4	-1E+10	1	-1E+10	1	-1E+10	1	-1E+10	1	-1E+10	1	-1E+10	1
4902551	47	C	11/27/2021	03:02	-133.699	49.703	0	158.30	0	6.0320	0	33.6730	0	26.502	0	156.887	0	133.3	4	44.0	4	-1E+10	1	-1E+10	1	-1E+10	1	-1E+10	1	-1E+10	1	-1E+10	1
4902551	47	C	11/27/2021	03:02	-133.699	49.703	0	159.20	0	6.0280	0	33.6760	0	26.505	0	157.779	0	132.9	4	43.9	4	-1E+10	1	-1E+10	1	-1E+10	1	-1E+10	1	-1E+10	1	-1E+10	1
4902551	47	C	11/27/2021	03:02	-133.699	49.703	0	160.00	0	6.0240	0	33.6790	0	26.508	0	158.571	0	132.6	4	43.8	4	-1E+10	1	-1E+10	1	-1E+10	1	-1E+10	1	-1E+10	1	-1E+10	1
4902551	47	C	11/27/2021	03:02	-133.699	49.703	0	160.90	0	6.0230	0	33.6800	0	26.509	0	159.463	0	132.4	4	43.7	4	-1E+10	1	-1E+10	1	-1E+10	1	-1E+10	1	-1E+10	1	-1E+10	1
4902551	47	C	11/27/2021	03:02	-133.699	49.703	0	161.80	0	6.0220	0	33.6800	0	26.509	0	160.354	0	132.0	4	43.6	4	-1E+10	1	-1E+10	1	-1E+10	1	-1E+10	1	-1E+10	1	-1E+10	1
4902551	47	C	11/27/2021	03:02	-133.699	49.703	0	162.70	0	6.0180	0	33.6830	0	26.512	0	161.246	0	131.6	4	43.4	4	-1E+10	1	-1E+10	1	-1E+10	1	-1E+10	1	-1E+10	1	-1E+10	1
4902551	47	C	11/27/2021	03:02	-133.699	49.703	0	163.60	0	6.0170	0	33.6840	0	26.513	0	162.138	0	131.3	4	43.3	4	-1E+10	1	-1E+10	1	-1E+10	1	-1E+10	1	-1E+10	1	-1E+10	1
4902551	47	C	11/27/2021	03:02	-133.699	49.703	0	164.90	0	6.0150	0	33.6850	0	26.514	0	163.425	0	130.6	4	43.1	4	-1E+10	1	-1E+10	1	-1E+10	1	-1E+10	1	-1E+10	1	-1E+10	1
4902551	47	C	11/27/2021	03:02	-133.699	49.703	0	166.30	0	6.0140	0	33.6850	0	26.514	0	164.812	0	129.9	4	42.9	4	-1E+10	1	-1E+10	1	-1E+10	1	-1E+10	1	-1E+10	1	-1E+10	1
4902551	47	C	11/27/2021	03:02	-133.699	49.703	0	167.30	0	6.0010	0	33.6940	0	26.522	0	165.803	0	129.5	4	42.7	4	-1E+10	1	-1E+10	1	-1E+10	1	-1E+10	1	-1E+10	1	-1E+10	1
4902551	47	C	11/27/2021	03:02	-133.699	49.703	0	168.20	0	5.9880	0	33.7030	0	26.531	0	166.695	0	129.1	4	42.6	4	-1E+10	1	-1E+10	1	-1E+10	1	-1E+10	1	-1E+10	1	-1E+10	1
4902551	47	C	11/27/2021	03:02	-133.699	49.703	0	169.10	0	5.9870	0	33.7030	0	26.531	0	167.586	0	128.7	4	42.4	4	-1E+10	1	-1E+10	1	-1E+10	1	-1E+10	1	-1E+10	1	-1E+10	1
4902551	47	C	11/27/2021	03:02	-133.699	49.703	0	170.00	0	5.9850	0	33.7040	0	26.532	0	168.478	0	128.3	4	42.3	4	-1E+10	1	-1E+10	1	-1E+10	1	-1E+10	1	-1E+10	1	-1E+10	1
4902551	47	C	11/27/2021	03:02	-133.699	49.703	0	170.90	0	5.9580	0	33.7180	0	26.547	0	169.369	0	127.9	4	42.2	4	-1E+10	1	-1E+10	1	-1E+10	1	-1E+10	1	-1E+10	1	-1E+10	1
4902551	47	C	11/27/2021	03:02	-133.699	49.703	0	171.90	0	5.9490	0	33.7190	0	26.549	0	170.360	0	127.6	4	42.0	4	-1E+10	1	-1E+10	1	-1E+10	1	-1E+10	1	-1E+10	1	-1E+10	1
4902551	47	C	11/27/2021	03:02	-133.699	49.703	0	172.80	0	5.9470	0	33.7190	0	26.549	0	171.252	0	127.3	4	41.9	4	-1E+10	1	-1E+10	1	-1E+10	1	-1E+10	1	-1E+10	1	-1E+10	1
4902551	47	C	11/27/2021	03:02	-133.699	49.703	0	173.70	0	5.9470	0	33.7190	0	26.549	0	172.143	0	126.9	4	41.8	4	-1E+10	1	-1E+10	1	-1E+10	1	-1E+10	1	-1E+10	1	-1E+10	1
4902551	47	C	11/27/2021	03:02	-133.699	49.703	0	174.60	0	5.9440	0	33.7200	0	26.550	0	173.035	0	126.5	4	41.7	4	-1E+10	1	-1E+10	1	-1E+10	1	-1E+10	1	-1E+10	1	-1E+10	1
4902551	47	C	11/27/2021	03:02	-133.699	49.703	0	175.50	0	5.9420	0	33.7210	0	26.551	0	173.926	0	126.0	4	41.5	4	-1E+10	1	-1E+10	1	-1E+10	1	-1E+10	1	-1E+10	1	-1E+10	1
4902551	47	C	11/27/2021	03:02	-133.699	49.703	0	176.90	0	5.9280	0	33.7260	0	26.557	0	175.313	0	125.3	4	41.3	4	-1E+10	1	-1E+10	1	-1E+10	1	-1E+10	1	-1E+10	1	-1E+10	1
4902551	47	C	11/27/2021	03:02	-133.699	49.703	0	178.30	0	5.9190	0	33.7300	0	26.561	0	176.700	0	124.6	4	41.0	4	-1E+10	1	-1E+10	1	-1E+10	1	-1E+10	1	-1E+10	1	-1E+10	1
4902551	47	C	11/27/2021	03:02	-133.699	49.703	0	179.20	0	5.9170	0	33.7310	0	26.562	0	177.591	0	124.2	4	40.9	4	-1E+10	1	-1E+10	1	-1E+10	1	-1E+10	1	-1E+10	1	-1E+10	1
4902551	47	C	11/27/2021	03:02	-133.699	49.703	0	180.20	0	5.9130	0	33.7330	0	26.564	0	178.582	0	123.8	4	40.8	4	-1E+10	1	-1E+10	1	-1E+10	1	-1E+10	1	-1E+10	1	-1E+10	1
4902551	47	C	11/27/2021	03:02	-133.699	49.703	0	181.10	0	5.9100	0	33.7340	0	26.566	0	179.474	0	123.3	4	40.6	4	-1E+10	1	-1E+10	1	-1E+10	1	-1E+10	1	-1E+10	1	-1E+10	1
4902551	47	C	11/27/2021	03:02	-133.699	49.703	0	182.00	0	5.9080	0	33.7350	0	26.567	0	180.365	0	122.8	4	40.4	4	-1E+10	1	-1E+10	1	-1E+10	1	-1E+10	1	-1E+10	1	-1E+10	1
4902551	47	C	11/27/2021	03:02	-133.699	49.703	0	182.90	0	5.8990	0	33.7380	0	26.570	0	181.257	0	122.4	4	40.3	4	-1E+10	1	-1E+10	1	-1E+10	1	-1E+10	1	-1E+10	1	-1E+10	1
4902551	47	C	11/27/2021	03:02	-133.699	49.703	0	183.80	0	5.8920	0	33.7390	0	26.572	0	182.148	0	121.9	4	40.1	4	-1E+10	1	-1E+10	1	-1E+10	1	-1E+10	1	-1E+10	1	-1E+10	1
4902551	47	C	11/27/2021	03:02	-133.699	49.703	0	184.80	0	5.8820	0	33.7440	0	26.577	0	183.139	0	121.3	4	39.9	4	-1E+10	1	-1E+10	1	-1E+10	1	-1E+10	1	-1E+10	1	-1E+10	1
4902551	47	C	11/27/2021	03:02	-133.699	49.703	0	185.70	0	5.8690	0	33.7460	0	26.580	0	184.030	0	120.7	4	39.7	4	-1E+10	1	-1E+10	1	-1E+10	1	-1E+10	1	-1E+10	1	-1E+10	1
4902551	47	C	11/27/2021	03:02	-133.699	49.703	0	186.60	0	5.8610	0	33.7500	0	26.584	0	184.922	0	120.3	4	39.6	4	-1E+10	1	-1E+10	1	-1E+10	1	-1E+10	1	-1E+10	1	-1E+10	1
4902551	47	C	11/27/2021	03:02	-133.699	49.703	0	187.60	0	5.8580	0	33.7500	0	26.585	0	185.912	0	119.7	4	39.4	4	-1E+10	1	-1E+10	1	-1E+10	1	-1E+10	1	-1E+10	1	-1E+10	1
4902551	47	C	11/27/2021	03:02	-133.699	49.703	0	188.50	0	5.8520	0	33.7530	0	26.588	0	186.804	0	119.2	4	39.2	4	-1E+10	1	-1E+10	1	-1E+10	1	-1E+10	1	-1E+10	1	-1E+10	1
4902551	47	C	11/27/2021	03:02	-133.699	49.703	0	189.90	0	5.8400	0	33.7550	0	26.591	0	188.191	0	118.5	4	39.0	4	-1E+10	1	-1E+10	1	-1E+10	1	-1E+10	1	-1E+10	1	-1E+10	1
4902551	47	C	11/27/2021	03:02	-133.699	49.703	0	191.30	0	5.8320	0	33.7580	0	26.594	0	189.577	0	117.7	4	38.7	4	-1E+10	1	-1E+10	1	-1E+10	1	-1E+10	1	-1E+10	1	-1E+10	1
4902551	47	C	11/27/2021	03:02	-133.699	49.703	0	192.30	0	5.8150	0	33.7610	0	26.599	0	190.568	0	117.2	4	38.5	4	-1E+10	1	-1E+10	1	-1E+10	1	-1E+10	1	-1E+10	1	-1E+10	1
4902551	47	C	11/27/2021	03:02	-133.699	49.703	0	193.20	0	5.8100	0	33.7620	0	26.600	0	191.459	0	116.7	4	38.3	4	-1E+10	1	-1E+10	1	-1E+10	1	-1E+10	1	-1E+10	1	-1E+10	1
4902551	47	C	11/27/2021	03:02	-133.699	49.703	0	194.10	0	5.8030	0	33.7630	0	26.602	0	192.351	0	116.2	4	38.2	4	-1E+10	1	-1E+10	1	-1E+10	1	-1E+10	1	-1E+10	1	-1E+10	1
4902551	47	C	11/27/2021	03:02	-133.699	49.703	0	195.00	0	5.7970	0	33.7640	0	26.603	0	193.242	0	115.5	4	37.9	4	-1E+10	1	-1E+10	1	-1E+10	1	-1E+10	1	-1E+10	1	-1E+10	1
4902551	47	C	11/27/2021	03:02	-133.699	49.703	0	195.90	0	5.7830	0	33.7690	0	26.609	0	194.134	0	114.9	4	37.7	4	-1E+10	1	-1E+10	1	-1E+10	1	-1E+10	1	-1E+10	1	-1E+10	1
4902551	47	C	11/27/2021	03:02	-133.699	49.703	0	196.90	0	5.7730	0	33.7700	0	26.611	0	195.124	0	114.3	4	37.5	4	-1E+10	1	-1E+10	1	-1E+10	1	-1E+10	1	-1E+10	1	-1E+10	1
4902551	47	C	11/27/2021	03:02	-133.699	49.703	0	197.80	0	5.7630	0	33.7730	0	26.615	0	196.016	0	113.7	4	37.3	4	-1E+10	1	-1E+10	1	-1E+10	1	-1E+10	1	-1E+10	1	-1E+10	1
4902551	47	C	11/27/2021	03:02	-133.699	49.703	0	198.70	0	5.7550	0	33.7740	0	26.616	0	196.907	0	113.1	4	37.1	4	-1E+10	1	-1E+10	1	-1E+10	1	-1E+10	1	-1E+10	1	-1E+10	1
4902551	47	C	11/27/2021	03:02	-133.699	49.703	0	199.60	0	5.7400	0	33.7770	0	26.621	0	197.799	0	112.6	4	36.9	4	-1E+10	1	-1E+10	1	-1E+10	1	-1E+10	1	-1E+10	1	-1E+10	1
4902551	47	C	11/27/2021	03:02	-133.699	49.703	0	200.90	0	5.7270	0	33.7780	0	26.623	0	199.086	0	111.8	4	36.7	4	-1E+10	1	-1E+10	1	-1E+10	1	-1E+10	1	-1E+10	1	-1E+10	1
4902551	47	C	11/27/2021	03:02	-133.699	49.703	0	202.30	0	5.7160	0	33.7800	0	26.626	0	200.473	0	111.0	4	36.4	4	-1E+10	1	-1E+10	1	-1E+10	1	-1E+10	1	-1E+10	1	-1E+10	1
4902551	47	C	11/27/2021	03:02	-133.699	49.703	0	203.10	0	5.7090	0	33.7820	0	26.628	0	201.265	0	110.4	4	36.2	4	-1E+10	1	-1E+10	1	-1E+10	1	-1E+10	1	-1E+10	1	-1E+10	1
4902551	47	C	11/27/2021	03:02	-133.699	49.703	0	204.00	0	5.7030	0	33.7820	0	26.629	0	202.157	0	109.9	4	36.0	4	-1E+10	1	-1E+10	1	-1E+10	1	-1E+10	1	-1E+10	1	-1E+10	1
4902551	47	C	11/27/2021	03:02	-133.699	49.703	0	204.90	0	5.6890	0	33.7890	0	26.636	0	203.048	0	109.5	4	35.9	4	-1E+10	1	-1E+10	1	-1E+10	1	-1E+10	1	-1E+10	1	-1E+10	1
4902551	47	C	11/27/2021	03:02	-133.699	49.703	0	205.80	0	5.6830	0	33.7920	0	26.639	0	203.940	0	109.0	4	35.7	4	-1E+10	1	-1E+10	1	-1E+10	1	-1E+10	1	-1E+10	1	-1E+10	1
4902551	47	C	11/27/2021	03:02	-133.699	49.703	0	206.70	0	5.6760	0	33.7960	0	26.643	0	204.831	0	108.8	4	35.6	4	-1E+10	1	-1E+10	1	-1E+10	1	-1E+10	1	-1E+10	1	-1E+10	1
4902551	47	C	11/27/2021	03:02	-133.699	49.703	0	208.00	0	5.6730	0	33.7960	0	26.644	0	206.119	0	108.3	4	35.5	4	-1E+10	1	-1E+10	1	-1E+10	1	-1E+10	1	-1E+10	1	-1E+10	1
4902551	47	C	11/27/2021	03:02	-133.699	49.703	0	209.30	0	5.6670	0	33.7980	0	26.646	0	207.406	0	107.8	4	35.3	4	-1E+10	1	-1E+10	1	-1E+10	1	-1E+10	1	-1E+10	1	-1E+10	1
4902551	47	C	11/27/2021	03:02	-133.699	49.703	0	210.20	0	5.6500	0	33.7970	0	26.647	0	208.298	0	107.4	4	35.2	4	-1E+10	1	-1E+10	1	-1E+10	1	-1E+10	1	-1E+10	1	-1E+10	1
4902551	47	C	11/27/2021	03:02	-133.699	49.703	0	211.10	0	5.6570	0	33.7990	0	26.648	0	209.189	0	107.0	4	35.1	4	-1E+10	1	-1E+10	1	-1E+10	1	-1E+10	1	-1E+10	1	-1E+10	1
4902551	47	C	11/27/2021	03:02	-133.699	49.703	0	212.00	0	5.6560	0	33.7990	0	26.648	0	210.080	0	106.7	4	34.9	4	-1E+10	1	-1E+10	1	-1E+10	1	-1E+10	1	-1E+10	1	-1E+10	1
4902551	47	C	11/27/2021	03:02	-133.699	49.703	0	212.80	0	5.6540	0	33.7990	0	26.649	0	210.873	0	106.2	4	34.8	4	-1E+10	1	-1E+10	1	-1E+10	1	-1E+10	1	-1E+10	1	-1E+10	1
4902551	47	C	11/27/2021	03:02	-133.699	49.703	0	213.70	0	5.6530	0	33.7990	0	26.649	0	211.764	0	105.8	4	34.6	4	-1E+10	1	-1E+10	1	-1E+10	1	-1E+10	1	-1E+10	1	-1E+10	1
4902551	47	C	11/27/2021	03:02	-133.699	49.703	0	214.60	0	5.6370	0	33.8010	0	26.652	0	212.656	0	105.3	4	34.5	4	-1E+10	1	-1E+10	1	-1E+10	1	-1E+10	1	-1E+10	1	-1E+10	1
4902551	47	C	11/27/2021	03:02	-133.699	49.703	0	215.90	0	5.5940	0	33.7990	0	26.656	0	213.943	0	104.6	4	34.2	4	-1E+10	1	-1E+10	1	-1E+10	1	-1E+10	1	-1E+10	1	-1E+10	1
4902551	47	C	11/27/2021	03:02	-133.699	49.703	0	217.30	0	5.5840	0	33.8070	0	26.663	0	215.330	0	104.1	4	34.0	4	-1E+10	1	-1E+10	1	-1E+10	1	-1E+10	1	-1E+10	1	-1E+10	1
4902551	47	C	11/27/2021	03:02	-133.699	49.703	0	218.20	0	5.5440	0	33.8070	0	26.668	0	216.221	0	103.8	4	33.9	4	-1E+10	1	-1E+10	1	-1E+10	1	-1E+10	1	-1E+10	1	-1E+10	1
4902551	47	C	11/27/2021	03:02	-133.699	49.703	0	219.00	0	5.5240	0	33.8100	0	26.673	0	217.013	0	103.5	4	33.8	4	-1E+10	1	-1E+10	1	-1E+10	1	-1E+10	1	-1E+10	1	-1E+10	1
4902551	47	C	11/27/2021	03:02	-133.699	49.703	0	219.90	0	5.5060	0	33.8070	0	26.673	0	217.905	0	103.1	4	33.7	4	-1E+10	1	-1E+10	1	-1E+10	1	-1E+10	1	-1E+10	1	-1E+10	1
4902551	47	C	11/27/2021	03:02	-133.699	49.703	0	220.80	0	5.5040	0	33.8100	0	26.675	0	218.796	0	102.9	4	33.6	4	-1E+10	1	-1E+10	1	-1E+10	1	-1E+10	1	-1E+10	1	-1E+10	1
4902551	47	C	11/27/2021	03:02	-133.699	49.703	0	221.70	0	5.5030	0	33.8120	0	26.677	0	219.687	0	102.7	4	33.5	4	-1E+10	1	-1E+10	1	-1E+10	1	-1E+10	1	-1E+10	1	-1E+10	1
4902551	47	C	11/27/2021	03:02	-133.699	49.703	0	222.60	0	5.4920	0	33.8130	0	26.679	0	220.579	0	102.6	4	33.5	4	-1E+10	1	-1E+10	1	-1E+10	1	-1E+10	1	-1E+10	1	-1E+10	1
4902551	47	C	11/27/2021	03:02	-133.699	49.703	0	223.90	0	5.4890	0	33.8120	0	26.679	0	221.866	0	102.3	4	33.4	4	-1E+10	1	-1E+10	1	-1E+10	1	-1E+10	1	-1E+10	1	-1E+10	1
4902551	47	C	11/27/2021	03:02	-133.699	49.703	0	225.30	0	5.4860	0	33.8130	0	26.680	0	223.253	0	101.9	4	33.2	4	-1E+10	1	-1E+10	1	-1E+10	1	-1E+10	1	-1E+10	1	-1E+10	1
4902551	47	C	11/27/2021	03:02	-133.699	49.703	0	226.20	0	5.4810	0	33.8130	0	26.680	0	224.144	0	101.6	4	33.2	4	-1E+10	1	-1E+10	1	-1E+10	1	-1E+10	1	-1E+10	1	-1E+10	1
4902551	47	C	11/27/2021	03:02	-133.699	49.703	0	227.10	0	5.4760	0	33.8140	0	26.682	0	225.035	0	101.4	4	33.1	4	-1E+10	1	-1E+10	1	-1E+10	1	-1E+10	1	-1E+10	1	-1E+10	1
4902551	47	C	11/27/2021	03:02	-133.699	49.703	0	228.00	0	5.4690	0	33.8130	0	26.682	0	225.927	0	101.1	4	33.0	4	-1E+10	1	-1E+10	1	-1E+10	1	-1E+10	1	-1E+10	1	-1E+10	1
4902551	47	C	11/27/2021	03:02	-133.699	49.703	0	228.90	0	5.4670	0	33.8140	0	26.683	0	226.818	0	100.7	4	32.8	4	-1E+10	1	-1E+10	1	-1E+10	1	-1E+10	1	-1E+10	1	-1E+10	1
4902551	47	C	11/27/2021	03:02	-133.699	49.703	0	229.80	0	5.4660	0	33.8140	0	26.683	0	227.709	0	100.4	4	32.7	4	-1E+10	1	-1E+10	1	-1E+10	1	-1E+10	1	-1E+10	1	-1E+10	1
4902551	47	C	11/27/2021	03:02	-133.699	49.703	0	230.80	0	5.4580	0	33.8150	0	26.685	0	228.700	0	100.0	4	32.6	4	-1E+10	1	-1E+10	1	-1E+10	1	-1E+10	1	-1E+10	1	-1E+10	1
4902551	47	C	11/27/2021	03:02	-133.699	49.703	0	231.70	0	5.4570	0	33.8140	0	26.684	0	229.591	0	99.6	4	32.5	4	-1E+10	1	-1E+10	1	-1E+10	1	-1E+10	1	-1E+10	1	-1E+10	1
4902551	47	C	11/27/2021	03:02	-133.699	49.703	0	232.60	0	5.4550	0	33.8150	0	26.685	0	230.482	0	99.1	4	32.3	4	-1E+10	1	-1E+10	1	-1E+10	1	-1E+10	1	-1E+10	1	-1E+10	1
4902551	47	C	11/27/2021	03:02	-133.699	49.703	0	233.90	0	5.4490	0	33.8170	0	26.688	0	231.770	0	98.6	4	32.1	4	-1E+10	1	-1E+10	1	-1E+10	1	-1E+10	1	-1E+10	1	-1E+10	1
4902551	47	C	11/27/2021	03:02	-133.699	49.703	0	235.30	0	5.4340	0	33.8200	0	26.692	0	233.156	0	98.2	4	32.0	4	-1E+10	1	-1E+10	1	-1E+10	1	-1E+10	1	-1E+10	1	-1E+10	1
4902551	47	C	11/27/2021	03:02	-133.699	49.703	0	236.30	0	5.4270	0	33.8230	0	26.695	0	234.147	0	98.0	4	31.9	4	-1E+10	1	-1E+10	1	-1E+10	1	-1E+10	1	-1E+10	1	-1E+10	1
4902551	47	C	11/27/2021	03:02	-133.699	49.703	0	237.20	0	5.4210	0	33.8220	0	26.695	0	235.038	0	97.8	4	31.9	4	-1E+10	1	-1E+10	1	-1E+10	1	-1E+10	1	-1E+10	1	-1E+10	1
4902551	47	C	11/27/2021	03:02	-133.699	49.703	0	238.20	0	5.4190	0	33.8210	0	26.694	0	236.028	0	97.6	4	31.8	4	-1E+10	1	-1E+10	1	-1E+10	1	-1E+10	1	-1E+10	1	-1E+10	1
4902551	47	C	11/27/2021	03:02	-133.699	49.703	0	239.10	0	5.4080	0	33.8220	0	26.696	0	236.920	0	97.3	4	31.7	4	-1E+10	1	-1E+10	1	-1E+10	1	-1E+10	1	-1E+10	1	-1E+10	1
4902551	47	C	11/27/2021	03:02	-133.699	49.703	0	240.00	0	5.4150	0	33.8210	0	26.695	0	237.811	0	96.9	4	31.6	4	-1E+10	1	-1E+10	1	-1E+10	1	-1E+10	1	-1E+10	1	-1E+10	1
4902551	47	C	11/27/2021	03:02	-133.699	49.703	0	240.90	0	5.4060	0	33.8210	0	26.696	0	238.702	0	96.6	4	31.4	4	-1E+10	1	-1E+10	1	-1E+10	1	-1E+10	1	-1E+10	1	-1E+10	1
4902551	47	C	11/27/2021	03:02	-133.699	49.703	0	241.90	0	5.4040	0	33.8220	0	26.697	0	239.692	0	96.2	4	31.3	4	-1E+10	1	-1E+10	1	-1E+10	1	-1E+10	1	-1E+10	1	-1E+10	1
4902551	47	C	11/27/2021	03:02	-133.699	49.703	0	242.80	0	5.3840	0	33.8210	0	26.698	0	240.584	0	95.8	4	31.2	4	-1E+10	1	-1E+10	1	-1E+10	1	-1E+10	1	-1E+10	1	-1E+10	1
4902551	47	C	11/27/2021	03:02	-133.699	49.703	0	243.70	0	5.3840	0	33.8220	0	26.699	0	241.475	0	95.4	4	31.0	4	-1E+10	1	-1E+10	1	-1E+10	1	-1E+10	1	-1E+10	1	-1E+10	1
4902551	47	C	11/27/2021	03:02	-133.699	49.703	0	244.70	0	5.3710	0	33.8260	0	26.704	0	242.465	0	94.9	4	30.9	4	-1E+10	1	-1E+10	1	-1E+10	1	-1E+10	1	-1E+10	1	-1E+10	1
4902551	47	C	11/27/2021	03:02	-133.699	49.703	0	245.70	0	5.3380	0	33.8230	0	26.705	0	243.455	0	94.5	4	30.7	4	-1E+10	1	-1E+10	1	-1E+10	1	-1E+10	1	-1E+10	1	-1E+10	1
4902551	47	C	11/27/2021	03:02	-133.699	49.703	0	246.60	0	5.3260	0	33.8200	0	26.704	0	244.347	0	93.9	4	30.5	4	-1E+10	1	-1E+10	1	-1E+10	1	-1E+10	1	-1E+10	1	-1E+10	1
4902551	47	C	11/27/2021	03:02	-133.699	49.703	0	247.60	0	5.3100	0	33.8200	0	26.706	0	245.337	0	93.4	4	30.3	4	-1E+10	1	-1E+10	1	-1E+10	1	-1E+10	1	-1E+10	1	-1E+10	1
4902551	47	C	11/27/2021	03:02	-133.699	49.703	0	248.50	0	5.2630	0	33.8190	0	26.711	0	246.228	0	92.8	4	30.1	4	-1E+10	1	-1E+10	1	-1E+10	1	-1E+10	1	-1E+10	1	-1E+10	1
4902551	47	C	11/27/2021	03:02	-133.699	49.703	0	249.50	0	5.2510	0	33.8190	0	26.712	0	247.218	0	92.1	4	29.9	4	-1E+10	1	-1E+10	1	-1E+10	1	-1E+10	1	-1E+10	1	-1E+10	1
4902551	47	C	11/27/2021	03:02	-133.699	49.703	0	250.50	0	5.2400	0	33.8190	0	26.714	0	248.209	0	91.4	4	29.6	4	-1E+10	1	-1E+10	1	-1E+10	1	-1E+10	1	-1E+10	1	-1E+10	1
4902551	47	C	11/27/2021	03:02	-133.699	49.703	0	251.50	0	5.2200	0	33.8230	0	26.719	0	249.199	0	90.8	4	29.4	4	-1E+10	1	-1E+10	1	-1E+10	1	-1E+10	1	-1E+10	1	-1E+10	1
4902551	47	C	11/27/2021	03:02	-133.699	49.703	0	252.90	0	5.1950	0	33.8250	0	26.724	0	250.585	0	89.9	4	29.1	4	-1E+10	1	-1E+10	1	-1E+10	1	-1E+10	1	-1E+10	1	-1E+10	1
4902551	47	C	11/27/2021	03:02	-133.699	49.703	0	254.40	0	5.1860	0	33.8270	0	26.726	0	252.071	0	89.0	4	28.8	4	-1E+10	1	-1E+10	1	-1E+10	1	-1E+10	1	-1E+10	1	-1E+10	1
4902551	47	C	11/27/2021	03:02	-133.699	49.703	0	255.40	0	5.1870	0	33.8310	0	26.729	0	253.061	0	88.4	4	28.6	4	-1E+10	1	-1E+10	1	-1E+10	1	-1E+10	1	-1E+10	1	-1E+10	1
4902551	47	C	11/27/2021	03:02	-133.699	49.703	0	256.40	0	5.1700	0	33.8320	0	26.732	0	254.051	0	87.9	4	28.5	4	-1E+10	1	-1E+10	1	-1E+10	1	-1E+10	1	-1E+10	1	-1E+10	1
4902551	47	C	11/27/2021	03:02	-133.699	49.703	0	257.10	0	5.1650	0	33.8320	0	26.733	0	254.744	0	87.5	4	28.3	4	-1E+10	1	-1E+10	1	-1E+10	1	-1E+10	1	-1E+10	1	-1E+10	1
4902551	47	C	11/27/2021	03:02	-133.699	49.703	0	258.20	0	5.1640	0	33.8310	0	26.732	0	255.834	0	86.7	4	28.1	4	-1E+10	1	-1E+10	1	-1E+10	1	-1E+10	1	-1E+10	1	-1E+10	1
4902551	47	C	11/27/2021	03:02	-133.699	49.703	0	259.00	0	5.1530	0	33.8320	0	26.734	0	256.626	0	86.2	4	27.9	4	-1E+10	1	-1E+10	1	-1E+10	1	-1E+10	1	-1E+10	1	-1E+10	1
4902551	47	C	11/27/2021	03:02	-133.699	49.703	0	259.70	0	5.1440	0	33.8320	0	26.735	0	257.319	0	85.7	4	27.7	4	-1E+10	1	-1E+10	1	-1E+10	1	-1E+10	1	-1E+10	1	-1E+10	1
4902551	47	C	11/27/2021	03:02	-133.699	49.703	0	260.80	0	5.1310	0	33.8320	0	26.737	0	258.408	0	84.8	4	27.4	4	-1E+10	1	-1E+10	1	-1E+10	1	-1E+10	1	-1E+10	1	-1E+10	1
4902551	47	C	11/27/2021	03:02	-133.699	49.703	0	262.00	0	5.0780	0	33.8360	0	26.746	0	259.596	0	84.0	4	27.1	4	-1E+10	1	-1E+10	1	-1E+10	1	-1E+10	1	-1E+10	1	-1E+10	1
4902551	47	C	11/27/2021	03:02	-133.699	49.703	0	262.70	0	5.0550	0	33.8400	0	26.752	0	260.289	0	83.7	4	27.0	4	-1E+10	1	-1E+10	1	-1E+10	1	-1E+10	1	-1E+10	1	-1E+10	1
4902551	47	C	11/27/2021	03:02	-133.699	49.703	0	263.90	0	5.0310	0	33.8410	0	26.755	0	261.478	0	83.2	4	26.9	4	-1E+10	1	-1E+10	1	-1E+10	1	-1E+10	1	-1E+10	1	-1E+10	1
4902551	47	C	11/27/2021	03:02	-133.699	49.703	0	265.00	0	5.0240	0	33.8420	0	26.757	0	262.567	0	82.8	4	26.7	4	-1E+10	1	-1E+10	1	-1E+10	1	-1E+10	1	-1E+10	1	-1E+10	1
4902551	47	C	11/27/2021	03:02	-133.699	49.703	0	265.80	0	5.0170	0	33.8420	0	26.758	0	263.359	0	82.5	4	26.6	4	-1E+10	1	-1E+10	1	-1E+10	1	-1E+10	1	-1E+10	1	-1E+10	1
4902551	47	C	11/27/2021	03:02	-133.699	49.703	0	267.00	0	5.0080	0	33.8430	0	26.760	0	264.547	0	82.0	4	26.4	4	-1E+10	1	-1E+10	1	-1E+10	1	-1E+10	1	-1E+10	1	-1E+10	1
4902551	47	C	11/27/2021	03:02	-133.699	49.703	0	268.20	0	5.0020	0	33.8430	0	26.760	0	265.735	0	81.5	4	26.3	4	-1E+10	1	-1E+10	1	-1E+10	1	-1E+10	1	-1E+10	1	-1E+10	1
4902551	47	C	11/27/2021	03:02	-133.699	49.703	0	269.00	0	4.9990	0	33.8430	0	26.761	0	266.528	0	81.2	4	26.2	4	-1E+10	1	-1E+10	1	-1E+10	1	-1E+10	1	-1E+10	1	-1E+10	1
4902551	47	C	11/27/2021	03:02	-133.699	49.703	0	269.80	0	4.9940	0	33.8450	0	26.763	0	267.320	0	80.8	4	26.1	4	-1E+10	1	-1E+10	1	-1E+10	1	-1E+10	1	-1E+10	1	-1E+10	1
4902551	47	C	11/27/2021	03:02	-133.699	49.703	0	271.00	0	4.9870	0	33.8440	0	26.763	0	268.508	0	80.3	4	25.9	4	-1E+10	1	-1E+10	1	-1E+10	1	-1E+10	1	-1E+10	1	-1E+10	1
4902551	47	C	11/27/2021	03:02	-133.699	49.703	0	272.10	0	4.9780	0	33.8450	0	26.765	0	269.597	0	79.7	4	25.7	4	-1E+10	1	-1E+10	1	-1E+10	1	-1E+10	1	-1E+10	1	-1E+10	1
4902551	47	C	11/27/2021	03:02	-133.699	49.703	0	272.90	0	4.9760	0	33.8460	0	26.766	0	270.389	0	79.3	4	25.6	4	-1E+10	1	-1E+10	1	-1E+10	1	-1E+10	1	-1E+10	1	-1E+10	1
4902551	47	C	11/27/2021	03:02	-133.699	49.703	0	273.70	0	4.9690	0	33.8460	0	26.766	0	271.181	0	78.9	4	25.4	4	-1E+10	1	-1E+10	1	-1E+10	1	-1E+10	1	-1E+10	1	-1E+10	1
4902551	47	C	11/27/2021	03:02	-133.699	49.703	0	275.00	0	4.9660	0	33.8460	0	26.767	0	272.468	0	78.1	4	25.2	4	-1E+10	1	-1E+10	1	-1E+10	1	-1E+10	1	-1E+10	1	-1E+10	1
4902551	47	C	11/27/2021	03:02	-133.699	49.703	0	276.20	0	4.9610	0	33.8450	0	26.767	0	273.657	0	77.4	4	24.9	4	-1E+10	1	-1E+10	1	-1E+10	1	-1E+10	1	-1E+10	1	-1E+10	1
4902551	47	C	11/27/2021	03:02	-133.699	49.703	0	277.00	0	4.9570	0	33.8460	0	26.768	0	274.449	0	76.8	4	24.7	4	-1E+10	1	-1E+10	1	-1E+10	1	-1E+10	1	-1E+10	1	-1E+10	1
4902551	47	C	11/27/2021	03:02	-133.699	49.703	0	277.70	0	4.9560	0	33.8460	0	26.768	0	275.142	0	76.2	4	24.6	4	-1E+10	1	-1E+10	1	-1E+10	1	-1E+10	1	-1E+10	1	-1E+10	1
4902551	47	C	11/27/2021	03:02	-133.699	49.703	0	278.90	0	4.9430	0	33.8470	0	26.770	0	276.330	0	75.3	4	24.3	4	-1E+10	1	-1E+10	1	-1E+10	1	-1E+10	1	-1E+10	1	-1E+10	1
4902551	47	C	11/27/2021	03:02	-133.699	49.703	0	280.10	0	4.9120	0	33.8520	0	26.778	0	277.518	0	74.6	4	24.0	4	-1E+10	1	-1E+10	1	-1E+10	1	-1E+10	1	-1E+10	1	-1E+10	1
4902551	47	C	11/27/2021	03:02	-133.699	49.703	0	281.00	0	4.9020	0	33.8530	0	26.780	0	278.409	0	74.1	4	23.9	4	-1E+10	1	-1E+10	1	-1E+10	1	-1E+10	1	-1E+10	1	-1E+10	1
4902551	47	C	11/27/2021	03:02	-133.699	49.703	0	281.80	0	4.8940	0	33.8540	0	26.781	0	279.201	0	73.7	4	23.7	4	-1E+10	1	-1E+10	1	-1E+10	1	-1E+10	1	-1E+10	1	-1E+10	1
4902551	47	C	11/27/2021	03:02	-133.699	49.703	0	282.60	0	4.8850	0	33.8560	0	26.784	0	279.993	0	73.3	4	23.6	4	-1E+10	1	-1E+10	1	-1E+10	1	-1E+10	1	-1E+10	1	-1E+10	1
4902551	47	C	11/27/2021	03:02	-133.699	49.703	0	283.90	0	4.8760	0	33.8570	0	26.786	0	281.281	0	72.7	4	23.4	4	-1E+10	1	-1E+10	1	-1E+10	1	-1E+10	1	-1E+10	1	-1E+10	1
4902551	47	C	11/27/2021	03:02	-133.699	49.703	0	285.20	0	4.8710	0	33.8590	0	26.788	0	282.568	0	72.1	4	23.2	4	-1E+10	1	-1E+10	1	-1E+10	1	-1E+10	1	-1E+10	1	-1E+10	1
4902551	47	C	11/27/2021	03:02	-133.699	49.703	0	286.10	0	4.8710	0	33.8590	0	26.788	0	283.459	0	71.6	4	23.0	4	-1E+10	1	-1E+10	1	-1E+10	1	-1E+10	1	-1E+10	1	-1E+10	1
4902551	47	C	11/27/2021	03:02	-133.699	49.703	0	286.90	0	4.8690	0	33.8600	0	26.789	0	284.251	0	71.1	4	22.9	4	-1E+10	1	-1E+10	1	-1E+10	1	-1E+10	1	-1E+10	1	-1E+10	1
4902551	47	C	11/27/2021	03:02	-133.699	49.703	0	287.80	0	4.8680	0	33.8620	0	26.791	0	285.142	0	70.7	4	22.7	4	-1E+10	1	-1E+10	1	-1E+10	1	-1E+10	1	-1E+10	1	-1E+10	1
4902551	47	C	11/27/2021	03:02	-133.699	49.703	0	288.70	0	4.8630	0	33.8650	0	26.793	0	286.033	0	70.3	4	22.6	4	-1E+10	1	-1E+10	1	-1E+10	1	-1E+10	1	-1E+10	1	-1E+10	1
4902551	47	C	11/27/2021	03:02	-133.699	49.703	0	289.60	0	4.8500	0	33.8680	0	26.797	0	286.924	0	70.0	4	22.5	4	-1E+10	1	-1E+10	1	-1E+10	1	-1E+10	1	-1E+10	1	-1E+10	1
4902551	47	C	11/27/2021	03:02	-133.699	49.703	0	290.90	0	4.8470	0	33.8690	0	26.798	0	288.211	0	69.5	4	22.3	4	-1E+10	1	-1E+10	1	-1E+10	1	-1E+10	1	-1E+10	1	-1E+10	1
4902551	47	C	11/27/2021	03:02	-133.699	49.703	0	292.30	0	4.8430	0	33.8700	0	26.800	0	289.597	0	69.1	4	22.2	4	-1E+10	1	-1E+10	1	-1E+10	1	-1E+10	1	-1E+10	1	-1E+10	1
4902551	47	C	11/27/2021	03:02	-133.699	49.703	0	293.20	0	4.8390	0	33.8730	0	26.803	0	290.488	0	68.8	4	22.1	4	-1E+10	1	-1E+10	1	-1E+10	1	-1E+10	1	-1E+10	1	-1E+10	1
4902551	47	C	11/27/2021	03:02	-133.699	49.703	0	294.10	0	4.8270	0	33.8730	0	26.804	0	291.379	0	68.5	4	22.0	4	-1E+10	1	-1E+10	1	-1E+10	1	-1E+10	1	-1E+10	1	-1E+10	1
4902551	47	C	11/27/2021	03:02	-133.699	49.703	0	295.00	0	4.8210	0	33.8740	0	26.805	0	292.270	0	68.2	4	21.9	4	-1E+10	1	-1E+10	1	-1E+10	1	-1E+10	1	-1E+10	1	-1E+10	1
4902551	47	C	11/27/2021	03:02	-133.699	49.703	0	295.90	0	4.8230	0	33.8750	0	26.806	0	293.161	0	68.0	4	21.8	4	-1E+10	1	-1E+10	1	-1E+10	1	-1E+10	1	-1E+10	1	-1E+10	1
4902551	47	C	11/27/2021	03:02	-133.699	49.703	0	296.80	0	4.8260	0	33.8750	0	26.806	0	294.052	0	67.7	4	21.8	4	-1E+10	1	-1E+10	1	-1E+10	1	-1E+10	1	-1E+10	1	-1E+10	1
4902551	47	C	11/27/2021	03:02	-133.699	49.703	0	297.70	0	4.8160	0	33.8770	0	26.808	0	294.943	0	67.5	4	21.7	4	-1E+10	1	-1E+10	1	-1E+10	1	-1E+10	1	-1E+10	1	-1E+10	1
4902551	47	C	11/27/2021	03:02	-133.699	49.703	0	298.60	0	4.8060	0	33.8760	0	26.809	0	295.834	0	67.2	4	21.6	4	-1E+10	1	-1E+10	1	-1E+10	1	-1E+10	1	-1E+10	1	-1E+10	1
4902551	47	C	11/27/2021	03:02	-133.699	49.703	0	299.90	0	4.8060	0	33.8770	0	26.809	0	297.121	0	66.8	4	21.4	4	-1E+10	1	-1E+10	1	-1E+10	1	-1E+10	1	-1E+10	1	-1E+10	1
4902551	47	C	11/27/2021	03:02	-133.699	49.703	0	301.30	0	4.7980	0	33.8780	0	26.811	0	298.507	0	66.3	4	21.3	4	-1E+10	1	-1E+10	1	-1E+10	1	-1E+10	1	-1E+10	1	-1E+10	1
4902551	47	C	11/27/2021	03:02	-133.699	49.703	0	302.20	0	4.7970	0	33.8780	0	26.811	0	299.398	0	66.1	4	21.2	4	-1E+10	1	-1E+10	1	-1E+10	1	-1E+10	1	-1E+10	1	-1E+10	1
4902551	47	C	11/27/2021	03:02	-133.699	49.703	0	303.10	0	4.7930	0	33.8790	0	26.813	0	300.289	0	65.8	4	21.1	4	-1E+10	1	-1E+10	1	-1E+10	1	-1E+10	1	-1E+10	1	-1E+10	1
4902551	47	C	11/27/2021	03:02	-133.699	49.703	0	304.00	0	4.7880	0	33.8800	0	26.814	0	301.180	0	65.5	4	21.0	4	-1E+10	1	-1E+10	1	-1E+10	1	-1E+10	1	-1E+10	1	-1E+10	1
4902551	47	C	11/27/2021	03:02	-133.699	49.703	0	304.90	0	4.7840	0	33.8810	0	26.815	0	302.071	0	65.2	4	20.9	4	-1E+10	1	-1E+10	1	-1E+10	1	-1E+10	1	-1E+10	1	-1E+10	1
4902551	47	C	11/27/2021	03:02	-133.699	49.703	0	305.80	0	4.7780	0	33.8810	0	26.816	0	302.962	0	64.8	4	20.8	4	-1E+10	1	-1E+10	1	-1E+10	1	-1E+10	1	-1E+10	1	-1E+10	1
4902551	47	C	11/27/2021	03:02	-133.699	49.703	0	306.80	0	4.7750	0	33.8800	0	26.815	0	303.952	0	64.4	4	20.7	4	-1E+10	1	-1E+10	1	-1E+10	1	-1E+10	1	-1E+10	1	-1E+10	1
4902551	47	C	11/27/2021	03:02	-133.699	49.703	0	307.70	0	4.7640	0	33.8810	0	26.817	0	304.843	0	64.0	4	20.5	4	-1E+10	1	-1E+10	1	-1E+10	1	-1E+10	1	-1E+10	1	-1E+10	1
4902551	47	C	11/27/2021	03:02	-133.699	49.703	0	308.60	0	4.7640	0	33.8810	0	26.817	0	305.734	0	63.7	4	20.4	4	-1E+10	1	-1E+10	1	-1E+10	1	-1E+10	1	-1E+10	1	-1E+10	1
4902551	47	C	11/27/2021	03:02	-133.699	49.703	0	309.60	0	4.7510	0	33.8850	0	26.822	0	306.724	0	63.3	4	20.3	4	-1E+10	1	-1E+10	1	-1E+10	1	-1E+10	1	-1E+10	1	-1E+10	1
4902551	47	C	11/27/2021	03:02	-133.699	49.703	0	310.90	0	4.7380	0	33.8850	0	26.823	0	308.011	0	62.8	4	20.1	4	-1E+10	1	-1E+10	1	-1E+10	1	-1E+10	1	-1E+10	1	-1E+10	1
4902551	47	C	11/27/2021	03:02	-133.699	49.703	0	312.40	0	4.7320	0	33.8860	0	26.825	0	309.496	0	62.4	4	20.0	4	-1E+10	1	-1E+10	1	-1E+10	1	-1E+10	1	-1E+10	1	-1E+10	1
4902551	47	C	11/27/2021	03:02	-133.699	49.703	0	313.30	0	4.7290	0	33.8870	0	26.826	0	310.387	0	62.1	4	19.9	4	-1E+10	1	-1E+10	1	-1E+10	1	-1E+10	1	-1E+10	1	-1E+10	1
4902551	47	C	11/27/2021	03:02	-133.699	49.703	0	314.30	0	4.7220	0	33.8900	0	26.829	0	311.377	0	61.8	4	19.8	4	-1E+10	1	-1E+10	1	-1E+10	1	-1E+10	1	-1E+10	1	-1E+10	1
4902551	47	C	11/27/2021	03:02	-133.699	49.703	0	315.20	0	4.7160	0	33.8910	0	26.831	0	312.268	0	61.5	4	19.7	4	-1E+10	1	-1E+10	1	-1E+10	1	-1E+10	1	-1E+10	1	-1E+10	1
4902551	47	C	11/27/2021	03:02	-133.699	49.703	0	316.20	0	4.7120	0	33.8920	0	26.832	0	313.258	0	61.2	4	19.6	4	-1E+10	1	-1E+10	1	-1E+10	1	-1E+10	1	-1E+10	1	-1E+10	1
4902551	47	C	11/27/2021	03:02	-133.699	49.703	0	317.10	0	4.7090	0	33.8950	0	26.835	0	314.149	0	60.9	4	19.5	4	-1E+10	1	-1E+10	1	-1E+10	1	-1E+10	1	-1E+10	1	-1E+10	1
4902551	47	C	11/27/2021	03:02	-133.699	49.703	0	318.10	0	4.6930	0	33.8970	0	26.838	0	315.139	0	60.6	4	19.4	4	-1E+10	1	-1E+10	1	-1E+10	1	-1E+10	1	-1E+10	1	-1E+10	1
4902551	47	C	11/27/2021	03:02	-133.699	49.703	0	319.10	0	4.6920	0	33.8970	0	26.838	0	316.129	0	60.4	4	19.4	4	-1E+10	1	-1E+10	1	-1E+10	1	-1E+10	1	-1E+10	1	-1E+10	1
4902551	47	C	11/27/2021	03:02	-133.699	49.703	0	320.00	0	4.6920	0	33.8970	0	26.838	0	317.020	0	60.2	4	19.3	4	-1E+10	1	-1E+10	1	-1E+10	1	-1E+10	1	-1E+10	1	-1E+10	1
4902551	47	C	11/27/2021	03:02	-133.699	49.703	0	321.00	0	4.6800	0	33.9000	0	26.842	0	318.010	0	60.0	4	19.2	4	-1E+10	1	-1E+10	1	-1E+10	1	-1E+10	1	-1E+10	1	-1E+10	1
4902551	47	C	11/27/2021	03:02	-133.699	49.703	0	322.00	0	4.6730	0	33.9010	0	26.843	0	319.000	0	59.8	4	19.1	4	-1E+10	1	-1E+10	1	-1E+10	1	-1E+10	1	-1E+10	1	-1E+10	1
4902551	47	C	11/27/2021	03:02	-133.699	49.703	0	323.00	0	4.6720	0	33.9000	0	26.843	0	319.990	0	59.6	4	19.1	4	-1E+10	1	-1E+10	1	-1E+10	1	-1E+10	1	-1E+10	1	-1E+10	1
4902551	47	C	11/27/2021	03:02	-133.699	49.703	0	323.90	0	4.6720	0	33.9010	0	26.843	0	320.880	0	59.3	4	19.0	4	-1E+10	1	-1E+10	1	-1E+10	1	-1E+10	1	-1E+10	1	-1E+10	1
4902551	47	C	11/27/2021	03:02	-133.699	49.703	0	324.90	0	4.6710	0	33.9010	0	26.844	0	321.870	0	59.1	4	18.9	4	-1E+10	1	-1E+10	1	-1E+10	1	-1E+10	1	-1E+10	1	-1E+10	1
4902551	47	C	11/27/2021	03:02	-133.699	49.703	0	325.80	0	4.6710	0	33.9020	0	26.844	0	322.761	0	58.8	4	18.8	4	-1E+10	1	-1E+10	1	-1E+10	1	-1E+10	1	-1E+10	1	-1E+10	1
4902551	47	C	11/27/2021	03:02	-133.699	49.703	0	326.80	0	4.6720	0	33.9030	0	26.845	0	323.751	0	58.5	4	18.7	4	-1E+10	1	-1E+10	1	-1E+10	1	-1E+10	1	-1E+10	1	-1E+10	1
4902551	47	C	11/27/2021	03:02	-133.699	49.703	0	327.80	0	4.6690	0	33.9050	0	26.847	0	324.741	0	58.2	4	18.6	4	-1E+10	1	-1E+10	1	-1E+10	1	-1E+10	1	-1E+10	1	-1E+10	1
4902551	47	C	11/27/2021	03:02	-133.699	49.703	0	328.70	0	4.6640	0	33.9050	0	26.848	0	325.632	0	57.9	4	18.5	4	-1E+10	1	-1E+10	1	-1E+10	1	-1E+10	1	-1E+10	1	-1E+10	1
4902551	47	C	11/27/2021	03:02	-133.699	49.703	0	329.70	0	4.6640	0	33.9060	0	26.848	0	326.622	0	57.6	4	18.5	4	-1E+10	1	-1E+10	1	-1E+10	1	-1E+10	1	-1E+10	1	-1E+10	1
4902551	47	C	11/27/2021	03:02	-133.699	49.703	0	330.60	0	4.6600	0	33.9070	0	26.850	0	327.513	0	57.3	4	18.4	4	-1E+10	1	-1E+10	1	-1E+10	1	-1E+10	1	-1E+10	1	-1E+10	1
4902551	47	C	11/27/2021	03:02	-133.699	49.703	0	331.60	0	4.6600	0	33.9070	0	26.850	0	328.503	0	57.0	4	18.3	4	-1E+10	1	-1E+10	1	-1E+10	1	-1E+10	1	-1E+10	1	-1E+10	1
4902551	47	C	11/27/2021	03:02	-133.699	49.703	0	332.90	0	4.6520	0	33.9080	0	26.851	0	329.789	0	56.5	4	18.1	4	-1E+10	1	-1E+10	1	-1E+10	1	-1E+10	1	-1E+10	1	-1E+10	1
4902551	47	C	11/27/2021	03:02	-133.699	49.703	0	334.40	0	4.6430	0	33.9130	0	26.856	0	331.274	0	56.1	4	17.9	4	-1E+10	1	-1E+10	1	-1E+10	1	-1E+10	1	-1E+10	1	-1E+10	1
4902551	47	C	11/27/2021	03:02	-133.699	49.703	0	335.30	0	4.6310	0	33.9140	0	26.858	0	332.165	0	55.9	4	17.9	4	-1E+10	1	-1E+10	1	-1E+10	1	-1E+10	1	-1E+10	1	-1E+10	1
4902551	47	C	11/27/2021	03:02	-133.699	49.703	0	336.30	0	4.6230	0	33.9180	0	26.862	0	333.155	0	55.7	4	17.8	4	-1E+10	1	-1E+10	1	-1E+10	1	-1E+10	1	-1E+10	1	-1E+10	1
4902551	47	C	11/27/2021	03:02	-133.699	49.703	0	337.30	0	4.6220	0	33.9170	0	26.862	0	334.145	0	55.5	4	17.8	4	-1E+10	1	-1E+10	1	-1E+10	1	-1E+10	1	-1E+10	1	-1E+10	1
4902551	47	C	11/27/2021	03:02	-133.699	49.703	0	338.20	0	4.6210	0	33.9170	0	26.862	0	335.036	0	55.3	4	17.7	4	-1E+10	1	-1E+10	1	-1E+10	1	-1E+10	1	-1E+10	1	-1E+10	1
4902551	47	C	11/27/2021	03:02	-133.699	49.703	0	339.10	0	4.6210	0	33.9170	0	26.862	0	335.926	0	55.1	4	17.6	4	-1E+10	1	-1E+10	1	-1E+10	1	-1E+10	1	-1E+10	1	-1E+10	1
4902551	47	C	11/27/2021	03:02	-133.699	49.703	0	340.10	0	4.6210	0	33.9170	0	26.862	0	336.916	0	54.8	4	17.5	4	-1E+10	1	-1E+10	1	-1E+10	1	-1E+10	1	-1E+10	1	-1E+10	1
4902551	47	C	11/27/2021	03:02	-133.699	49.703	0	341.10	0	4.6200	0	33.9170	0	26.862	0	337.906	0	54.5	4	17.4	4	-1E+10	1	-1E+10	1	-1E+10	1	-1E+10	1	-1E+10	1	-1E+10	1
4902551	47	C	11/27/2021	03:02	-133.699	49.703	0	342.00	0	4.6160	0	33.9180	0	26.863	0	338.797	0	54.3	4	17.4	4	-1E+10	1	-1E+10	1	-1E+10	1	-1E+10	1	-1E+10	1	-1E+10	1
4902551	47	C	11/27/2021	03:02	-133.699	49.703	0	342.90	0	4.6140	0	33.9190	0	26.864	0	339.688	0	54.0	4	17.3	4	-1E+10	1	-1E+10	1	-1E+10	1	-1E+10	1	-1E+10	1	-1E+10	1
4902551	47	C	11/27/2021	03:02	-133.699	49.703	0	343.90	0	4.6080	0	33.9210	0	26.866	0	340.678	0	53.8	4	17.2	4	-1E+10	1	-1E+10	1	-1E+10	1	-1E+10	1	-1E+10	1	-1E+10	1
4902551	47	C	11/27/2021	03:02	-133.699	49.703	0	344.90	0	4.6060	0	33.9210	0	26.867	0	341.667	0	53.5	4	17.1	4	-1E+10	1	-1E+10	1	-1E+10	1	-1E+10	1	-1E+10	1	-1E+10	1
4902551	47	C	11/27/2021	03:02	-133.699	49.703	0	345.80	0	4.6050	0	33.9210	0	26.867	0	342.558	0	53.2	4	17.0	4	-1E+10	1	-1E+10	1	-1E+10	1	-1E+10	1	-1E+10	1	-1E+10	1
4902551	47	C	11/27/2021	03:02	-133.699	49.703	0	346.80	0	4.6020	0	33.9220	0	26.868	0	343.548	0	53.0	4	16.9	4	-1E+10	1	-1E+10	1	-1E+10	1	-1E+10	1	-1E+10	1	-1E+10	1
4902551	47	C	11/27/2021	03:02	-133.699	49.703	0	347.80	0	4.5970	0	33.9240	0	26.870	0	344.538	0	52.6	4	16.8	4	-1E+10	1	-1E+10	1	-1E+10	1	-1E+10	1	-1E+10	1	-1E+10	1
4902551	47	C	11/27/2021	03:02	-133.699	49.703	0	348.70	0	4.5950	0	33.9250	0	26.871	0	345.429	0	52.4	4	16.7	4	-1E+10	1	-1E+10	1	-1E+10	1	-1E+10	1	-1E+10	1	-1E+10	1
4902551	47	C	11/27/2021	03:02	-133.699	49.703	0	349.70	0	4.5950	0	33.9260	0	26.872	0	346.418	0	52.1	4	16.6	4	-1E+10	1	-1E+10	1	-1E+10	1	-1E+10	1	-1E+10	1	-1E+10	1
4902551	47	C	11/27/2021	03:02	-133.699	49.703	0	352.90	0	4.5780	0	33.9300	0	26.877	0	349.586	0	51.0	4	16.3	4	-1E+10	1	-1E+10	1	-1E+10	1	-1E+10	1	-1E+10	1	-1E+10	1
4902551	47	C	11/27/2021	03:02	-133.699	49.703	0	358.20	0	4.5550	0	33.9370	0	26.885	0	354.831	0	49.4	4	15.8	4	-1E+10	1	-1E+10	1	-1E+10	1	-1E+10	1	-1E+10	1	-1E+10	1
4902551	47	C	11/27/2021	03:02	-133.699	49.703	0	362.90	0	4.5370	0	33.9430	0	26.892	0	359.483	0	47.9	4	15.3	4	-1E+10	1	-1E+10	1	-1E+10	1	-1E+10	1	-1E+10	1	-1E+10	1
4902551	47	C	11/27/2021	03:02	-133.699	49.703	0	367.70	0	4.5060	0	33.9530	0	26.903	0	364.234	0	46.9	4	14.9	4	-1E+10	1	-1E+10	1	-1E+10	1	-1E+10	1	-1E+10	1	-1E+10	1
4902551	47	C	11/27/2021	03:02	-133.699	49.703	0	372.50	0	4.4920	0	33.9570	0	26.908	0	368.984	0	46.0	4	14.7	4	-1E+10	1	-1E+10	1	-1E+10	1	-1E+10	1	-1E+10	1	-1E+10	1
4902551	47	C	11/27/2021	03:02	-133.699	49.703	0	377.90	0	4.4700	0	33.9640	0	26.916	0	374.328	0	45.2	4	14.4	4	-1E+10	1	-1E+10	1	-1E+10	1	-1E+10	1	-1E+10	1	-1E+10	1
4902551	47	C	11/27/2021	03:02	-133.699	49.703	0	383.30	0	4.4500	0	33.9690	0	26.922	0	379.672	0	44.6	4	14.2	4	-1E+10	1	-1E+10	1	-1E+10	1	-1E+10	1	-1E+10	1	-1E+10	1
4902551	47	C	11/27/2021	03:02	-133.699	49.703	0	388.30	0	4.4430	0	33.9710	0	26.924	0	384.620	0	44.0	4	14.0	4	-1E+10	1	-1E+10	1	-1E+10	1	-1E+10	1	-1E+10	1	-1E+10	1
4902551	47	C	11/27/2021	03:02	-133.699	49.703	0	393.30	0	4.4330	0	33.9740	0	26.928	0	389.568	0	43.3	4	13.8	4	-1E+10	1	-1E+10	1	-1E+10	1	-1E+10	1	-1E+10	1	-1E+10	1
4902551	47	C	11/27/2021	03:02	-133.699	49.703	0	398.30	0	4.4160	0	33.9800	0	26.934	0	394.516	0	42.3	4	13.5	4	-1E+10	1	-1E+10	1	-1E+10	1	-1E+10	1	-1E+10	1	-1E+10	1
4902551	47	C	11/27/2021	03:02	-133.699	49.703	0	403.00	0	4.4170	0	33.9840	0	26.938	0	399.167	0	41.7	4	13.3	4	-1E+10	1	-1E+10	1	-1E+10	1	-1E+10	1	-1E+10	1	-1E+10	1
4902551	47	C	11/27/2021	03:02	-133.699	49.703	0	407.70	0	4.4160	0	33.9880	0	26.941	0	403.818	0	41.0	4	13.1	4	-1E+10	1	-1E+10	1	-1E+10	1	-1E+10	1	-1E+10	1	-1E+10	1
4902551	47	C	11/27/2021	03:02	-133.699	49.703	0	413.00	0	4.4080	0	33.9920	0	26.945	0	409.062	0	40.4	4	12.9	4	-1E+10	1	-1E+10	1	-1E+10	1	-1E+10	1	-1E+10	1	-1E+10	1
4902551	47	C	11/27/2021	03:02	-133.699	49.703	0	417.80	0	4.3910	0	33.9970	0	26.951	0	413.811	0	39.9	4	12.7	4	-1E+10	1	-1E+10	1	-1E+10	1	-1E+10	1	-1E+10	1	-1E+10	1
4902551	47	C	11/27/2021	03:02	-133.699	49.703	0	422.90	0	4.3740	0	34.0020	0	26.957	0	418.858	0	39.2	4	12.5	4	-1E+10	1	-1E+10	1	-1E+10	1	-1E+10	1	-1E+10	1	-1E+10	1
4902551	47	C	11/27/2021	03:02	-133.699	49.703	0	428.20	0	4.3630	0	34.0060	0	26.961	0	424.102	0	38.7	4	12.3	4	-1E+10	1	-1E+10	1	-1E+10	1	-1E+10	1	-1E+10	1	-1E+10	1
4902551	47	C	11/27/2021	03:02	-133.699	49.703	0	433.00	0	4.3550	0	34.0090	0	26.964	0	428.851	0	38.0	4	12.1	4	-1E+10	1	-1E+10	1	-1E+10	1	-1E+10	1	-1E+10	1	-1E+10	1
4902551	47	C	11/27/2021	03:02	-133.699	49.703	0	437.90	0	4.3440	0	34.0130	0	26.969	0	433.699	0	37.2	4	11.8	4	-1E+10	1	-1E+10	1	-1E+10	1	-1E+10	1	-1E+10	1	-1E+10	1
4902551	47	C	11/27/2021	03:02	-133.699	49.703	0	442.80	0	4.3310	0	34.0190	0	26.975	0	438.546	0	36.5	4	11.6	4	-1E+10	1	-1E+10	1	-1E+10	1	-1E+10	1	-1E+10	1	-1E+10	1
4902551	47	C	11/27/2021	03:02	-133.699	49.703	0	447.80	0	4.3170	0	34.0240	0	26.980	0	443.493	0	35.7	4	11.3	4	-1E+10	1	-1E+10	1	-1E+10	1	-1E+10	1	-1E+10	1	-1E+10	1
4902551	47	C	11/27/2021	03:02	-133.699	49.703	0	453.00	0	4.3050	0	34.0280	0	26.985	0	448.637	0	35.0	4	11.1	4	-1E+10	1	-1E+10	1	-1E+10	1	-1E+10	1	-1E+10	1	-1E+10	1
4902551	47	C	11/27/2021	03:02	-133.699	49.703	0	458.10	0	4.2940	0	34.0320	0	26.989	0	453.683	0	34.1	4	10.8	4	-1E+10	1	-1E+10	1	-1E+10	1	-1E+10	1	-1E+10	1	-1E+10	1
4902551	47	C	11/27/2021	03:02	-133.699	49.703	0	462.90	0	4.2760	0	34.0380	0	26.996	0	458.431	0	33.3	4	10.6	4	-1E+10	1	-1E+10	1	-1E+10	1	-1E+10	1	-1E+10	1	-1E+10	1
4902551	47	C	11/27/2021	03:02	-133.699	49.703	0	467.80	0	4.2550	0	34.0460	0	27.004	0	463.278	0	32.5	4	10.3	4	-1E+10	1	-1E+10	1	-1E+10	1	-1E+10	1	-1E+10	1	-1E+10	1
4902551	47	C	11/27/2021	03:02	-133.699	49.703	0	472.70	0	4.2410	0	34.0520	0	27.011	0	468.125	0	32.1	4	10.2	4	-1E+10	1	-1E+10	1	-1E+10	1	-1E+10	1	-1E+10	1	-1E+10	1
4902551	47	C	11/27/2021	03:02	-133.699	49.703	0	477.80	0	4.2330	0	34.0540	0	27.013	0	473.170	0	31.8	4	10.1	4	-1E+10	1	-1E+10	1	-1E+10	1	-1E+10	1	-1E+10	1	-1E+10	1
4902551	47	C	11/27/2021	03:02	-133.699	49.703	0	482.90	0	4.2160	0	34.0600	0	27.020	0	478.215	0	31.5	4	10.0	4	-1E+10	1	-1E+10	1	-1E+10	1	-1E+10	1	-1E+10	1	-1E+10	1
4902551	47	C	11/27/2021	03:02	-133.699	49.703	0	487.60	0	4.2080	0	34.0620	0	27.022	0	482.864	0	31.2	4	9.9	4	-1E+10	1	-1E+10	1	-1E+10	1	-1E+10	1	-1E+10	1	-1E+10	1
4902551	47	C	11/27/2021	03:02	-133.699	49.703	0	492.80	0	4.1940	0	34.0650	0	27.026	0	488.007	0	30.6	4	9.7	4	-1E+10	1	-1E+10	1	-1E+10	1	-1E+10	1	-1E+10	1	-1E+10	1
4902551	47	C	11/27/2021	03:02	-133.699	49.703	0	498.10	0	4.1800	0	34.0700	0	27.032	0	493.249	0	29.5	4	9.4	4	-1E+10	1	-1E+10	1	-1E+10	1	-1E+10	1	-1E+10	1	-1E+10	1
4902551	47	C	11/27/2021	03:02	-133.699	49.703	0	502.80	0	4.1620	0	34.0780	0	27.040	0	497.898	0	28.5	4	9.0	4	-1E+10	1	-1E+10	1	-1E+10	1	-1E+10	1	-1E+10	1	-1E+10	1
4902551	47	C	11/27/2021	03:02	-133.699	49.703	0	507.70	0	4.1490	0	34.0850	0	27.047	0	502.744	0	28.1	4	8.9	4	-1E+10	1	-1E+10	1	-1E+10	1	-1E+10	1	-1E+10	1	-1E+10	1
4902551	47	C	11/27/2021	03:02	-133.699	49.703	0	512.50	0	4.1410	0	34.0870	0	27.049	0	507.492	0	28.0	4	8.9	4	-1E+10	1	-1E+10	1	-1E+10	1	-1E+10	1	-1E+10	1	-1E+10	1
4902551	47	C	11/27/2021	03:02	-133.699	49.703	0	517.90	0	4.1200	0	34.0930	0	27.056	0	512.832	0	28.0	4	8.8	4	-1E+10	1	-1E+10	1	-1E+10	1	-1E+10	1	-1E+10	1	-1E+10	1
4902551	47	C	11/27/2021	03:02	-133.699	49.703	0	523.40	0	4.1050	0	34.0960	0	27.060	0	518.272	0	27.9	4	8.8	4	-1E+10	1	-1E+10	1	-1E+10	1	-1E+10	1	-1E+10	1	-1E+10	1
4902551	47	C	11/27/2021	03:02	-133.699	49.703	0	528.30	0	4.0910	0	34.0990	0	27.064	0	523.117	0	27.9	4	8.8	4	-1E+10	1	-1E+10	1	-1E+10	1	-1E+10	1	-1E+10	1	-1E+10	1
4902551	47	C	11/27/2021	03:02	-133.699	49.703	0	533.40	0	4.0850	0	34.1010	0	27.066	0	528.161	0	27.8	4	8.8	4	-1E+10	1	-1E+10	1	-1E+10	1	-1E+10	1	-1E+10	1	-1E+10	1
4902551	47	C	11/27/2021	03:02	-133.699	49.703	0	537.90	0	4.0700	0	34.1040	0	27.070	0	532.611	0	27.8	4	8.8	4	-1E+10	1	-1E+10	1	-1E+10	1	-1E+10	1	-1E+10	1	-1E+10	1
4902551	47	C	11/27/2021	03:02	-133.699	49.703	0	542.50	0	4.0580	0	34.1060	0	27.073	0	537.160	0	27.7	4	8.8	4	-1E+10	1	-1E+10	1	-1E+10	1	-1E+10	1	-1E+10	1	-1E+10	1
4902551	47	C	11/27/2021	03:02	-133.699	49.703	0	547.70	0	4.0530	0	34.1070	0	27.074	0	542.302	0	27.5	4	8.7	4	-1E+10	1	-1E+10	1	-1E+10	1	-1E+10	1	-1E+10	1	-1E+10	1
4902551	47	C	11/27/2021	03:02	-133.699	49.703	0	553.00	0	4.0440	0	34.1100	0	27.078	0	547.543	0	27.2	4	8.6	4	-1E+10	1	-1E+10	1	-1E+10	1	-1E+10	1	-1E+10	1	-1E+10	1
4902551	47	C	11/27/2021	03:02	-133.699	49.703	0	557.80	0	4.0260	0	34.1140	0	27.083	0	552.289	0	27.0	4	8.5	4	-1E+10	1	-1E+10	1	-1E+10	1	-1E+10	1	-1E+10	1	-1E+10	1
4902551	47	C	11/27/2021	03:02	-133.699	49.703	0	562.50	0	4.0120	0	34.1180	0	27.088	0	556.936	0	26.7	4	8.4	4	-1E+10	1	-1E+10	1	-1E+10	1	-1E+10	1	-1E+10	1	-1E+10	1
4902551	47	C	11/27/2021	03:02	-133.699	49.703	0	567.70	0	4.0030	0	34.1210	0	27.091	0	562.078	0	26.3	4	8.3	4	-1E+10	1	-1E+10	1	-1E+10	1	-1E+10	1	-1E+10	1	-1E+10	1
4902551	47	C	11/27/2021	03:02	-133.699	49.703	0	572.80	0	3.9950	0	34.1240	0	27.094	0	567.120	0	25.8	4	8.2	4	-1E+10	1	-1E+10	1	-1E+10	1	-1E+10	1	-1E+10	1	-1E+10	1
4902551	47	C	11/27/2021	03:02	-133.699	49.703	0	578.00	0	3.9810	0	34.1280	0	27.099	0	572.262	0	25.4	4	8.0	4	-1E+10	1	-1E+10	1	-1E+10	1	-1E+10	1	-1E+10	1	-1E+10	1
4902551	47	C	11/27/2021	03:02	-133.699	49.703	0	583.10	0	3.9680	0	34.1310	0	27.103	0	577.304	0	24.9	4	7.8	4	-1E+10	1	-1E+10	1	-1E+10	1	-1E+10	1	-1E+10	1	-1E+10	1
4902551	47	C	11/27/2021	03:02	-133.699	49.703	0	587.90	0	3.9450	0	34.1390	0	27.111	0	582.049	0	24.4	4	7.7	4	-1E+10	1	-1E+10	1	-1E+10	1	-1E+10	1	-1E+10	1	-1E+10	1
4902551	47	C	11/27/2021	03:02	-133.699	49.703	0	592.60	0	3.9340	0	34.1420	0	27.115	0	586.696	0	24.0	4	7.6	4	-1E+10	1	-1E+10	1	-1E+10	1	-1E+10	1	-1E+10	1	-1E+10	1
4902551	47	C	11/27/2021	03:02	-133.699	49.703	0	597.70	0	3.9150	0	34.1480	0	27.121	0	591.738	0	23.6	4	7.4	4	-1E+10	1	-1E+10	1	-1E+10	1	-1E+10	1	-1E+10	1	-1E+10	1
4902551	47	C	11/27/2021	03:02	-133.699	49.703	0	602.90	0	3.9110	0	34.1490	0	27.123	0	596.879	0	23.1	4	7.3	4	-1E+10	1	-1E+10	1	-1E+10	1	-1E+10	1	-1E+10	1	-1E+10	1
4902551	47	C	11/27/2021	03:02	-133.699	49.703	0	608.20	0	3.8930	0	34.1550	0	27.129	0	602.118	0	22.5	4	7.1	4	-1E+10	1	-1E+10	1	-1E+10	1	-1E+10	1	-1E+10	1	-1E+10	1
4902551	47	C	11/27/2021	03:02	-133.699	49.703	0	612.90	0	3.8720	0	34.1620	0	27.137	0	606.764	0	22.1	4	7.0	4	-1E+10	1	-1E+10	1	-1E+10	1	-1E+10	1	-1E+10	1	-1E+10	1
4902551	47	C	11/27/2021	03:02	-133.699	49.703	0	617.60	0	3.8600	0	34.1660	0	27.141	0	611.410	0	21.8	4	6.9	4	-1E+10	1	-1E+10	1	-1E+10	1	-1E+10	1	-1E+10	1	-1E+10	1
4902551	47	C	11/27/2021	03:02	-133.699	49.703	0	622.80	0	3.8480	0	34.1690	0	27.145	0	616.550	0	21.5	4	6.8	4	-1E+10	1	-1E+10	1	-1E+10	1	-1E+10	1	-1E+10	1	-1E+10	1
4902551	47	C	11/27/2021	03:02	-133.699	49.703	0	627.90	0	3.8380	0	34.1730	0	27.149	0	621.592	0	21.1	4	6.6	4	-1E+10	1	-1E+10	1	-1E+10	1	-1E+10	1	-1E+10	1	-1E+10	1
4902551	47	C	11/27/2021	03:02	-133.699	49.703	0	632.80	0	3.8320	0	34.1760	0	27.152	0	626.435	0	20.8	4	6.5	4	-1E+10	1	-1E+10	1	-1E+10	1	-1E+10	1	-1E+10	1	-1E+10	1
4902551	47	C	11/27/2021	03:02	-133.699	49.703	0	637.90	0	3.8180	0	34.1790	0	27.156	0	631.476	0	20.5	4	6.5	4	-1E+10	1	-1E+10	1	-1E+10	1	-1E+10	1	-1E+10	1	-1E+10	1
4902551	47	C	11/27/2021	03:02	-133.699	49.703	0	643.10	0	3.8030	0	34.1830	0	27.161	0	636.616	0	20.2	4	6.3	4	-1E+10	1	-1E+10	1	-1E+10	1	-1E+10	1	-1E+10	1	-1E+10	1
4902551	47	C	11/27/2021	03:02	-133.699	49.703	0	647.90	0	3.7900	0	34.1870	0	27.165	0	641.360	0	19.9	4	6.2	4	-1E+10	1	-1E+10	1	-1E+10	1	-1E+10	1	-1E+10	1	-1E+10	1
4902551	47	C	11/27/2021	03:02	-133.699	49.703	0	652.80	0	3.7810	0	34.1900	0	27.169	0	646.203	0	19.6	4	6.2	4	-1E+10	1	-1E+10	1	-1E+10	1	-1E+10	1	-1E+10	1	-1E+10	1
4902551	47	C	11/27/2021	03:02	-133.699	49.703	0	657.70	0	3.7730	0	34.1920	0	27.171	0	651.046	0	19.3	4	6.1	4	-1E+10	1	-1E+10	1	-1E+10	1	-1E+10	1	-1E+10	1	-1E+10	1
4902551	47	C	11/27/2021	03:02	-133.699	49.703	0	662.60	0	3.7590	0	34.1970	0	27.177	0	655.888	0	18.9	4	5.9	4	-1E+10	1	-1E+10	1	-1E+10	1	-1E+10	1	-1E+10	1	-1E+10	1
4902551	47	C	11/27/2021	03:02	-133.699	49.703	0	667.60	0	3.7380	0	34.2030	0	27.183	0	660.830	0	18.4	4	5.8	4	-1E+10	1	-1E+10	1	-1E+10	1	-1E+10	1	-1E+10	1	-1E+10	1
4902551	47	C	11/27/2021	03:02	-133.699	49.703	0	672.60	0	3.7250	0	34.2070	0	27.188	0	665.771	0	18.1	4	5.7	4	-1E+10	1	-1E+10	1	-1E+10	1	-1E+10	1	-1E+10	1	-1E+10	1
4902551	47	C	11/27/2021	03:02	-133.699	49.703	0	677.70	0	3.7160	0	34.2110	0	27.192	0	670.811	0	17.7	4	5.6	4	-1E+10	1	-1E+10	1	-1E+10	1	-1E+10	1	-1E+10	1	-1E+10	1
4902551	47	C	11/27/2021	03:02	-133.699	49.703	0	682.80	0	3.7050	0	34.2150	0	27.196	0	675.851	0	17.5	4	5.5	4	-1E+10	1	-1E+10	1	-1E+10	1	-1E+10	1	-1E+10	1	-1E+10	1
4902551	47	C	11/27/2021	03:02	-133.699	49.703	0	688.00	0	3.6960	0	34.2180	0	27.200	0	680.990	0	17.2	4	5.4	4	-1E+10	1	-1E+10	1	-1E+10	1	-1E+10	1	-1E+10	1	-1E+10	1
4902551	47	C	11/27/2021	03:02	-133.699	49.703	0	693.00	0	3.6830	0	34.2220	0	27.204	0	685.930	0	17.1	4	5.4	4	-1E+10	1	-1E+10	1	-1E+10	1	-1E+10	1	-1E+10	1	-1E+10	1
4902551	47	C	11/27/2021	03:02	-133.699	49.703	0	697.90	0	3.6680	0	34.2250	0	27.208	0	690.772	0	17.0	4	5.3	4	-1E+10	1	-1E+10	1	-1E+10	1	-1E+10	1	-1E+10	1	-1E+10	1
4902551	47	C	11/27/2021	03:02	-133.699	49.703	0	702.90	0	3.6540	0	34.2280	0	27.212	0	695.713	0	17.0	4	5.3	4	-1E+10	1	-1E+10	1	-1E+10	1	-1E+10	1	-1E+10	1	-1E+10	1
4902551	47	C	11/27/2021	03:02	-133.699	49.703	0	707.90	0	3.6210	0	34.2320	0	27.218	0	700.653	0	16.9	4	5.3	4	-1E+10	1	-1E+10	1	-1E+10	1	-1E+10	1	-1E+10	1	-1E+10	1
4902551	47	C	11/27/2021	03:02	-133.699	49.703	0	713.10	0	3.6110	0	34.2360	0	27.222	0	705.791	0	16.7	4	5.2	4	-1E+10	1	-1E+10	1	-1E+10	1	-1E+10	1	-1E+10	1	-1E+10	1
4902551	47	C	11/27/2021	03:02	-133.699	49.703	0	717.90	0	3.6080	0	34.2370	0	27.224	0	710.534	0	16.6	4	5.2	4	-1E+10	1	-1E+10	1	-1E+10	1	-1E+10	1	-1E+10	1	-1E+10	1
4902551	47	C	11/27/2021	03:02	-133.699	49.703	0	722.70	0	3.6030	0	34.2380	0	27.225	0	715.277	0	16.4	4	5.1	4	-1E+10	1	-1E+10	1	-1E+10	1	-1E+10	1	-1E+10	1	-1E+10	1
4902551	47	C	11/27/2021	03:02	-133.699	49.703	0	728.00	0	3.5970	0	34.2400	0	27.227	0	720.513	0	16.2	4	5.1	4	-1E+10	1	-1E+10	1	-1E+10	1	-1E+10	1	-1E+10	1	-1E+10	1
4902551	47	C	11/27/2021	03:02	-133.699	49.703	0	733.20	0	3.5890	0	34.2420	0	27.230	0	725.650	0	15.9	4	5.0	4	-1E+10	1	-1E+10	1	-1E+10	1	-1E+10	1	-1E+10	1	-1E+10	1
4902551	47	C	11/27/2021	03:02	-133.699	49.703	0	738.10	0	3.5670	0	34.2490	0	27.237	0	730.491	0	15.5	4	4.8	4	-1E+10	1	-1E+10	1	-1E+10	1	-1E+10	1	-1E+10	1	-1E+10	1
4902551	47	C	11/27/2021	03:02	-133.699	49.703	0	743.00	0	3.5530	0	34.2530	0	27.242	0	735.332	0	15.3	4	4.8	4	-1E+10	1	-1E+10	1	-1E+10	1	-1E+10	1	-1E+10	1	-1E+10	1
4902551	47	C	11/27/2021	03:02	-133.699	49.703	0	747.90	0	3.5410	0	34.2570	0	27.246	0	740.173	0	15.2	4	4.7	4	-1E+10	1	-1E+10	1	-1E+10	1	-1E+10	1	-1E+10	1	-1E+10	1
4902551	47	C	11/27/2021	03:02	-133.699	49.703	0	752.90	0	3.5200	0	34.2600	0	27.251	0	745.112	0	15.1	4	4.7	4	-1E+10	1	-1E+10	1	-1E+10	1	-1E+10	1	-1E+10	1	-1E+10	1
4902551	47	C	11/27/2021	03:02	-133.699	49.703	0	757.90	0	3.4970	0	34.2650	0	27.257	0	750.052	0	14.9	4	4.7	4	-1E+10	1	-1E+10	1	-1E+10	1	-1E+10	1	-1E+10	1	-1E+10	1
4902551	47	C	11/27/2021	03:02	-133.699	49.703	0	763.00	0	3.4890	0	34.2670	0	27.259	0	755.090	0	14.8	4	4.6	4	-1E+10	1	-1E+10	1	-1E+10	1	-1E+10	1	-1E+10	1	-1E+10	1
4902551	47	C	11/27/2021	03:02	-133.699	49.703	0	768.10	0	3.4820	0	34.2690	0	27.262	0	760.128	0	14.6	4	4.5	4	-1E+10	1	-1E+10	1	-1E+10	1	-1E+10	1	-1E+10	1	-1E+10	1
4902551	47	C	11/27/2021	03:02	-133.699	49.703	0	772.90	0	3.4690	0	34.2740	0	27.267	0	764.869	0	14.5	4	4.5	4	-1E+10	1	-1E+10	1	-1E+10	1	-1E+10	1	-1E+10	1	-1E+10	1
4902551	47	C	11/27/2021	03:02	-133.699	49.703	0	777.90	0	3.4600	0	34.2760	0	27.269	0	769.808	0	14.3	4	4.5	4	-1E+10	1	-1E+10	1	-1E+10	1	-1E+10	1	-1E+10	1	-1E+10	1
4902551	47	C	11/27/2021	03:02	-133.699	49.703	0	783.10	0	3.4490	0	34.2780	0	27.272	0	774.944	0	14.1	4	4.4	4	-1E+10	1	-1E+10	1	-1E+10	1	-1E+10	1	-1E+10	1	-1E+10	1
4902551	47	C	11/27/2021	03:02	-133.699	49.703	0	788.00	0	3.4430	0	34.2810	0	27.275	0	779.784	0	14.0	4	4.4	4	-1E+10	1	-1E+10	1	-1E+10	1	-1E+10	1	-1E+10	1	-1E+10	1
4902551	47	C	11/27/2021	03:02	-133.699	49.703	0	793.10	0	3.4360	0	34.2840	0	27.278	0	784.821	0	14.0	4	4.4	4	-1E+10	1	-1E+10	1	-1E+10	1	-1E+10	1	-1E+10	1	-1E+10	1
4902551	47	C	11/27/2021	03:02	-133.699	49.703	0	798.20	0	3.4290	0	34.2850	0	27.280	0	789.858	0	14.0	4	4.4	4	-1E+10	1	-1E+10	1	-1E+10	1	-1E+10	1	-1E+10	1	-1E+10	1
4902551	47	C	11/27/2021	03:02	-133.699	49.703	0	802.90	0	3.4200	0	34.2860	0	27.281	0	794.500	0	14.0	4	4.4	4	-1E+10	1	-1E+10	1	-1E+10	1	-1E+10	1	-1E+10	1	-1E+10	1
4902551	47	C	11/27/2021	03:02	-133.699	49.703	0	807.60	0	3.4070	0	34.2880	0	27.284	0	799.142	0	14.0	4	4.4	4	-1E+10	1	-1E+10	1	-1E+10	1	-1E+10	1	-1E+10	1	-1E+10	1
4902551	47	C	11/27/2021	03:02	-133.699	49.703	0	812.80	0	3.3870	0	34.2910	0	27.288	0	804.278	0	13.9	4	4.3	4	-1E+10	1	-1E+10	1	-1E+10	1	-1E+10	1	-1E+10	1	-1E+10	1
4902551	47	C	11/27/2021	03:02	-133.699	49.703	0	818.00	0	3.3700	0	34.2950	0	27.293	0	809.413	0	13.8	4	4.3	4	-1E+10	1	-1E+10	1	-1E+10	1	-1E+10	1	-1E+10	1	-1E+10	1
4902551	47	C	11/27/2021	03:02	-133.699	49.703	0	823.00	0	3.3610	0	34.2970	0	27.296	0	814.351	0	13.7	4	4.3	4	-1E+10	1	-1E+10	1	-1E+10	1	-1E+10	1	-1E+10	1	-1E+10	1
4902551	47	C	11/27/2021	03:02	-133.699	49.703	0	827.80	0	3.3540	0	34.2990	0	27.298	0	819.091	0	13.6	4	4.2	4	-1E+10	1	-1E+10	1	-1E+10	1	-1E+10	1	-1E+10	1	-1E+10	1
4902551	47	C	11/27/2021	03:02	-133.699	49.703	0	833.10	0	3.3500	0	34.3000	0	27.299	0	824.325	0	13.5	4	4.2	4	-1E+10	1	-1E+10	1	-1E+10	1	-1E+10	1	-1E+10	1	-1E+10	1
4902551	47	C	11/27/2021	03:02	-133.699	49.703	0	838.20	0	3.3450	0	34.3010	0	27.301	0	829.361	0	13.4	4	4.2	4	-1E+10	1	-1E+10	1	-1E+10	1	-1E+10	1	-1E+10	1	-1E+10	1
4902551	47	C	11/27/2021	03:02	-133.699	49.703	0	842.80	0	3.3360	0	34.3040	0	27.304	0	833.903	0	13.2	4	4.1	4	-1E+10	1	-1E+10	1	-1E+10	1	-1E+10	1	-1E+10	1	-1E+10	1
4902551	47	C	11/27/2021	03:02	-133.699	49.703	0	847.90	0	3.3280	0	34.3070	0	27.307	0	838.939	0	13.0	4	4.1	4	-1E+10	1	-1E+10	1	-1E+10	1	-1E+10	1	-1E+10	1	-1E+10	1
4902551	47	C	11/27/2021	03:02	-133.699	49.703	0	853.00	0	3.3220	0	34.3110	0	27.311	0	843.975	0	12.9	4	4.0	4	-1E+10	1	-1E+10	1	-1E+10	1	-1E+10	1	-1E+10	1	-1E+10	1
4902551	47	C	11/27/2021	03:02	-133.699	49.703	0	857.70	0	3.3160	0	34.3130	0	27.313	0	848.616	0	12.9	4	4.0	4	-1E+10	1	-1E+10	1	-1E+10	1	-1E+10	1	-1E+10	1	-1E+10	1
4902551	47	C	11/27/2021	03:02	-133.699	49.703	0	862.90	0	3.3050	0	34.3150	0	27.316	0	853.750	0	12.9	4	4.0	4	-1E+10	1	-1E+10	1	-1E+10	1	-1E+10	1	-1E+10	1	-1E+10	1
4902551	47	C	11/27/2021	03:02	-133.699	49.703	0	868.20	0	3.2880	0	34.3180	0	27.320	0	858.983	0	13.1	4	4.1	4	-1E+10	1	-1E+10	1	-1E+10	1	-1E+10	1	-1E+10	1	-1E+10	1
4902551	47	C	11/27/2021	03:02	-133.699	49.703	0	873.10	0	3.2670	0	34.3190	0	27.322	0	863.821	0	13.1	4	4.1	4	-1E+10	1	-1E+10	1	-1E+10	1	-1E+10	1	-1E+10	1	-1E+10	1
4902551	47	C	11/27/2021	03:02	-133.699	49.703	0	878.00	0	3.2590	0	34.3200	0	27.324	0	868.658	0	13.0	4	4.0	4	-1E+10	1	-1E+10	1	-1E+10	1	-1E+10	1	-1E+10	1	-1E+10	1
4902551	47	C	11/27/2021	03:02	-133.699	49.703	0	883.00	0	3.2510	0	34.3230	0	27.327	0	873.595	0	13.0	4	4.0	4	-1E+10	1	-1E+10	1	-1E+10	1	-1E+10	1	-1E+10	1	-1E+10	1
4902551	47	C	11/27/2021	03:02	-133.699	49.703	0	888.10	0	3.2440	0	34.3240	0	27.329	0	878.630	0	12.9	4	4.0	4	-1E+10	1	-1E+10	1	-1E+10	1	-1E+10	1	-1E+10	1	-1E+10	1
4902551	47	C	11/27/2021	03:02	-133.699	49.703	0	893.30	0	3.2370	0	34.3270	0	27.332	0	883.763	0	12.8	4	4.0	4	-1E+10	1	-1E+10	1	-1E+10	1	-1E+10	1	-1E+10	1	-1E+10	1
4902551	47	C	11/27/2021	03:02	-133.699	49.703	0	897.90	0	3.2270	0	34.3300	0	27.335	0	888.305	0	12.7	4	3.9	4	-1E+10	1	-1E+10	1	-1E+10	1	-1E+10	1	-1E+10	1	-1E+10	1
4902551	47	C	11/27/2021	03:02	-133.699	49.703	0	902.70	0	3.2170	0	34.3310	0	27.337	0	893.043	0	12.7	4	3.9	4	-1E+10	1	-1E+10	1	-1E+10	1	-1E+10	1	-1E+10	1	-1E+10	1
4902551	47	C	11/27/2021	03:02	-133.699	49.703	0	908.10	0	3.2100	0	34.3330	0	27.339	0	898.374	0	12.7	4	3.9	4	-1E+10	1	-1E+10	1	-1E+10	1	-1E+10	1	-1E+10	1	-1E+10	1
4902551	47	C	11/27/2021	03:02	-133.699	49.703	0	913.00	0	3.2030	0	34.3330	0	27.340	0	903.211	0	12.7	4	3.9	4	-1E+10	1	-1E+10	1	-1E+10	1	-1E+10	1	-1E+10	1	-1E+10	1
4902551	47	C	11/27/2021	03:02	-133.699	49.703	0	917.90	0	3.1950	0	34.3350	0	27.342	0	908.047	0	12.7	4	3.9	4	-1E+10	1	-1E+10	1	-1E+10	1	-1E+10	1	-1E+10	1	-1E+10	1
4902551	47	C	11/27/2021	03:02	-133.699	49.703	0	922.80	0	3.1900	0	34.3370	0	27.344	0	912.884	0	12.6	4	3.9	4	-1E+10	1	-1E+10	1	-1E+10	1	-1E+10	1	-1E+10	1	-1E+10	1
4902551	47	C	11/27/2021	03:02	-133.699	49.703	0	927.60	0	3.1880	0	34.3380	0	27.345	0	917.622	0	12.5	4	3.9	4	-1E+10	1	-1E+10	1	-1E+10	1	-1E+10	1	-1E+10	1	-1E+10	1
4902551	47	C	11/27/2021	03:02	-133.699	49.703	0	933.00	0	3.1850	0	34.3390	0	27.346	0	922.952	0	12.4	4	3.9	4	-1E+10	1	-1E+10	1	-1E+10	1	-1E+10	1	-1E+10	1	-1E+10	1
4902551	47	C	11/27/2021	03:02	-133.699	49.703	0	937.80	0	3.1800	0	34.3410	0	27.348	0	927.690	0	12.3	4	3.8	4	-1E+10	1	-1E+10	1	-1E+10	1	-1E+10	1	-1E+10	1	-1E+10	1
4902551	47	C	11/27/2021	03:02	-133.699	49.703	0	942.70	0	3.1770	0	34.3420	0	27.350	0	932.526	0	12.2	4	3.8	4	-1E+10	1	-1E+10	1	-1E+10	1	-1E+10	1	-1E+10	1	-1E+10	1
4902551	47	C	11/27/2021	03:02	-133.699	49.703	0	948.10	0	3.1720	0	34.3430	0	27.351	0	937.856	0	12.2	4	3.8	4	-1E+10	1	-1E+10	1	-1E+10	1	-1E+10	1	-1E+10	1	-1E+10	1
4902551	47	C	11/27/2021	03:02	-133.699	49.703	0	952.90	0	3.1690	0	34.3450	0	27.353	0	942.593	0	12.1	4	3.7	4	-1E+10	1	-1E+10	1	-1E+10	1	-1E+10	1	-1E+10	1	-1E+10	1
4902551	47	C	11/27/2021	03:02	-133.699	49.703	0	957.80	0	3.1620	0	34.3480	0	27.356	0	947.429	0	12.1	4	3.7	4	-1E+10	1	-1E+10	1	-1E+10	1	-1E+10	1	-1E+10	1	-1E+10	1
4902551	47	C	11/27/2021	03:02	-133.699	49.703	0	963.10	0	3.1510	0	34.3500	0	27.358	0	952.659	0	12.1	4	3.7	4	-1E+10	1	-1E+10	1	-1E+10	1	-1E+10	1	-1E+10	1	-1E+10	1
4902551	47	C	11/27/2021	03:02	-133.699	49.703	0	968.00	0	3.1430	0	34.3510	0	27.360	0	957.495	0	12.1	4	3.7	4	-1E+10	1	-1E+10	1	-1E+10	1	-1E+10	1	-1E+10	1	-1E+10	1
4902551	47	C	11/27/2021	03:02	-133.699	49.703	0	972.80	0	3.1400	0	34.3530	0	27.362	0	962.232	0	12.1	4	3.7	4	-1E+10	1	-1E+10	1	-1E+10	1	-1E+10	1	-1E+10	1	-1E+10	1
4902551	47	C	11/27/2021	03:02	-133.699	49.703	0	977.90	0	3.1330	0	34.3550	0	27.364	0	967.265	0	12.3	4	3.8	4	-1E+10	1	-1E+10	1	-1E+10	1	-1E+10	1	-1E+10	1	-1E+10	1
4902551	47	C	11/27/2021	03:02	-133.699	49.703	0	982.80	0	3.1140	0	34.3560	0	27.367	0	972.100	0	12.5	4	3.9	4	-1E+10	1	-1E+10	1	-1E+10	1	-1E+10	1	-1E+10	1	-1E+10	1
4902551	47	C	11/27/2021	03:02	-133.699	49.703	0	988.00	0	3.0860	0	34.3590	0	27.372	0	977.231	0	12.5	4	3.9	4	-1E+10	1	-1E+10	1	-1E+10	1	-1E+10	1	-1E+10	1	-1E+10	1
4902551	47	C	11/27/2021	03:02	-133.699	49.703	0	992.80	0	3.0830	0	34.3610	0	27.374	0	981.968	0	12.5	4	3.9	4	-1E+10	1	-1E+10	1	-1E+10	1	-1E+10	1	-1E+10	1	-1E+10	1
4902551	47	C	11/27/2021	03:02	-133.699	49.703	0	997.60	0	3.0690	0	34.3630	0	27.377	0	986.704	0	12.5	4	3.9	4	-1E+10	1	-1E+10	1	-1E+10	1	-1E+10	1	-1E+10	1	-1E+10	1
4902551	47	C	11/27/2021	03:02	-133.699	49.703	0	1005.10	0	3.0560	0	34.3650	0	27.379	0	994.105	0	12.6	4	3.9	4	-1E+10	1	-1E+10	1	-1E+10	1	-1E+10	1	-1E+10	1	-1E+10	1
4902551	47	C	11/27/2021	03:02	-133.699	49.703	0	1015.20	0	3.0430	0	34.3670	0	27.382	0	1004.070	0	12.5	4	3.9	4	-1E+10	1	-1E+10	1	-1E+10	1	-1E+10	1	-1E+10	1	-1E+10	1
4902551	47	C	11/27/2021	03:02	-133.699	49.703	0	1025.60	0	3.0340	0	34.3700	0	27.385	0	1014.331	0	12.5	4	3.9	4	-1E+10	1	-1E+10	1	-1E+10	1	-1E+10	1	-1E+10	1	-1E+10	1
4902551	47	C	11/27/2021	03:02	-133.699	49.703	0	1035.70	0	3.0310	0	34.3710	0	27.387	0	1024.295	0	12.4	4	3.8	4	-1E+10	1	-1E+10	1	-1E+10	1	-1E+10	1	-1E+10	1	-1E+10	1
4902551	47	C	11/27/2021	03:02	-133.699	49.703	0	1045.50	0	3.0240	0	34.3730	0	27.389	0	1033.963	0	12.4	4	3.8	4	-1E+10	1	-1E+10	1	-1E+10	1	-1E+10	1	-1E+10	1	-1E+10	1
4902551	47	C	11/27/2021	03:02	-133.699	49.703	0	1055.40	0	3.0110	0	34.3770	0	27.393	0	1043.729	0	12.3	4	3.8	4	-1E+10	1	-1E+10	1	-1E+10	1	-1E+10	1	-1E+10	1	-1E+10	1
4902551	47	C	11/27/2021	03:02	-133.699	49.703	0	1065.50	0	3.0020	0	34.3790	0	27.396	0	1053.692	0	12.3	4	3.8	4	-1E+10	1	-1E+10	1	-1E+10	1	-1E+10	1	-1E+10	1	-1E+10	1
4902551	47	C	11/27/2021	03:02	-133.699	49.703	0	1075.40	0	2.9920	0	34.3820	0	27.399	0	1063.457	0	12.3	4	3.8	4	-1E+10	1	-1E+10	1	-1E+10	1	-1E+10	1	-1E+10	1	-1E+10	1
4902551	47	C	11/27/2021	03:02	-133.699	49.703	0	1085.20	0	2.9760	0	34.3860	0	27.404	0	1073.123	0	12.3	4	3.8	4	-1E+10	1	-1E+10	1	-1E+10	1	-1E+10	1	-1E+10	1	-1E+10	1
4902551	47	C	11/27/2021	03:02	-133.699	49.703	0	1095.40	0	2.9570	0	34.3900	0	27.409	0	1083.184	0	12.3	4	3.8	4	-1E+10	1	-1E+10	1	-1E+10	1	-1E+10	1	-1E+10	1	-1E+10	1
4902551	47	C	11/27/2021	03:02	-133.699	49.703	0	1105.30	0	2.9440	0	34.3930	0	27.412	0	1092.947	0	12.4	4	3.8	4	-1E+10	1	-1E+10	1	-1E+10	1	-1E+10	1	-1E+10	1	-1E+10	1
4902551	47	C	11/27/2021	03:02	-133.699	49.703	0	1115.30	0	2.9310	0	34.3950	0	27.415	0	1102.809	0	12.4	4	3.8	4	-1E+10	1	-1E+10	1	-1E+10	1	-1E+10	1	-1E+10	1	-1E+10	1
4902551	47	C	11/27/2021	03:02	-133.699	49.703	0	1125.60	0	2.9090	0	34.4000	0	27.421	0	1112.967	0	12.5	4	3.8	4	-1E+10	1	-1E+10	1	-1E+10	1	-1E+10	1	-1E+10	1	-1E+10	1
4902551	47	C	11/27/2021	03:02	-133.699	49.703	0	1135.50	0	2.8950	0	34.4030	0	27.425	0	1122.729	0	12.6	4	3.9	4	-1E+10	1	-1E+10	1	-1E+10	1	-1E+10	1	-1E+10	1	-1E+10	1
4902551	47	C	11/27/2021	03:02	-133.699	49.703	0	1145.60	0	2.8670	0	34.4080	0	27.431	0	1132.688	0	12.7	4	3.9	4	-1E+10	1	-1E+10	1	-1E+10	1	-1E+10	1	-1E+10	1	-1E+10	1
4902551	47	C	11/27/2021	03:02	-133.699	49.703	0	1155.40	0	2.8510	0	34.4100	0	27.435	0	1142.351	0	12.8	4	3.9	4	-1E+10	1	-1E+10	1	-1E+10	1	-1E+10	1	-1E+10	1	-1E+10	1
4902551	47	C	11/27/2021	03:02	-133.699	49.703	0	1165.50	0	2.8410	0	34.4130	0	27.438	0	1152.310	0	12.8	4	4.0	4	-1E+10	1	-1E+10	1	-1E+10	1	-1E+10	1	-1E+10	1	-1E+10	1
4902551	47	C	11/27/2021	03:02	-133.699	49.703	0	1176.00	0	2.8270	0	34.4160	0	27.442	0	1162.662	0	12.9	4	4.0	4	-1E+10	1	-1E+10	1	-1E+10	1	-1E+10	1	-1E+10	1	-1E+10	1
4902551	47	C	11/27/2021	03:02	-133.699	49.703	0	1185.30	0	2.8170	0	34.4180	0	27.444	0	1171.830	0	13.1	4	4.0	4	-1E+10	1	-1E+10	1	-1E+10	1	-1E+10	1	-1E+10	1	-1E+10	1
4902551	47	C	11/27/2021	03:02	-133.699	49.703	0	1195.30	0	2.7970	0	34.4220	0	27.449	0	1181.689	0	13.2	4	4.1	4	-1E+10	1	-1E+10	1	-1E+10	1	-1E+10	1	-1E+10	1	-1E+10	1
4902551	47	C	11/27/2021	03:02	-133.699	49.703	0	1205.50	0	2.7730	0	34.4270	0	27.455	0	1191.744	0	13.4	4	4.1	4	-1E+10	1	-1E+10	1	-1E+10	1	-1E+10	1	-1E+10	1	-1E+10	1
4902551	47	C	11/27/2021	03:02	-133.699	49.703	0	1215.40	0	2.7570	0	34.4300	0	27.459	0	1201.502	0	13.5	4	4.1	4	-1E+10	1	-1E+10	1	-1E+10	1	-1E+10	1	-1E+10	1	-1E+10	1
4902551	47	C	11/27/2021	03:02	-133.699	49.703	0	1225.60	0	2.7490	0	34.4320	0	27.461	0	1211.556	0	13.6	4	4.2	4	-1E+10	1	-1E+10	1	-1E+10	1	-1E+10	1	-1E+10	1	-1E+10	1
4902551	47	C	11/27/2021	03:02	-133.699	49.703	0	1235.60	0	2.7390	0	34.4340	0	27.464	0	1221.413	0	13.8	4	4.2	4	-1E+10	1	-1E+10	1	-1E+10	1	-1E+10	1	-1E+10	1	-1E+10	1
4902551	47	C	11/27/2021	03:02	-133.699	49.703	0	1245.50	0	2.7210	0	34.4370	0	27.468	0	1231.170	0	13.9	4	4.3	4	-1E+10	1	-1E+10	1	-1E+10	1	-1E+10	1	-1E+10	1	-1E+10	1
4902551	47	C	11/27/2021	03:02	-133.699	49.703	0	1255.60	0	2.7110	0	34.4390	0	27.471	0	1241.124	0	14.1	4	4.3	4	-1E+10	1	-1E+10	1	-1E+10	1	-1E+10	1	-1E+10	1	-1E+10	1
4902551	47	C	11/27/2021	03:02	-133.699	49.703	0	1265.30	0	2.6990	0	34.4410	0	27.473	0	1250.684	0	14.3	4	4.4	4	-1E+10	1	-1E+10	1	-1E+10	1	-1E+10	1	-1E+10	1	-1E+10	1
4902551	47	C	11/27/2021	03:02	-133.699	49.703	0	1275.40	0	2.6870	0	34.4440	0	27.477	0	1260.637	0	14.5	4	4.4	4	-1E+10	1	-1E+10	1	-1E+10	1	-1E+10	1	-1E+10	1	-1E+10	1
4902551	47	C	11/27/2021	03:02	-133.699	49.703	0	1285.70	0	2.6740	0	34.4460	0	27.479	0	1270.786	0	14.7	4	4.5	4	-1E+10	1	-1E+10	1	-1E+10	1	-1E+10	1	-1E+10	1	-1E+10	1
4902551	47	C	11/27/2021	03:02	-133.699	49.703	0	1295.60	0	2.6590	0	34.4480	0	27.482	0	1280.541	0	14.9	4	4.6	4	-1E+10	1	-1E+10	1	-1E+10	1	-1E+10	1	-1E+10	1	-1E+10	1
4902551	47	C	11/27/2021	03:02	-133.699	49.703	0	1305.50	0	2.6480	0	34.4500	0	27.485	0	1290.296	0	15.1	4	4.6	4	-1E+10	1	-1E+10	1	-1E+10	1	-1E+10	1	-1E+10	1	-1E+10	1
4902551	47	C	11/27/2021	03:02	-133.699	49.703	0	1315.30	0	2.6350	0	34.4530	0	27.489	0	1299.952	0	15.3	4	4.7	4	-1E+10	1	-1E+10	1	-1E+10	1	-1E+10	1	-1E+10	1	-1E+10	1
4902551	47	C	11/27/2021	03:02	-133.699	49.703	0	1325.10	0	2.6260	0	34.4550	0	27.491	0	1309.607	0	15.6	4	4.8	4	-1E+10	1	-1E+10	1	-1E+10	1	-1E+10	1	-1E+10	1	-1E+10	1
4902551	47	C	11/27/2021	03:02	-133.699	49.703	0	1335.40	0	2.6090	0	34.4580	0	27.495	0	1319.754	0	15.9	4	4.9	4	-1E+10	1	-1E+10	1	-1E+10	1	-1E+10	1	-1E+10	1	-1E+10	1
4902551	47	C	11/27/2021	03:02	-133.699	49.703	0	1345.80	0	2.5950	0	34.4600	0	27.498	0	1330.000	0	16.2	4	4.9	4	-1E+10	1	-1E+10	1	-1E+10	1	-1E+10	1	-1E+10	1	-1E+10	1
4902551	47	C	11/27/2021	03:02	-133.699	49.703	0	1355.50	0	2.5830	0	34.4630	0	27.501	0	1339.555	0	16.6	4	5.1	4	-1E+10	1	-1E+10	1	-1E+10	1	-1E+10	1	-1E+10	1	-1E+10	1
4902551	47	C	11/27/2021	03:02	-133.699	49.703	0	1365.20	0	2.5660	0	34.4660	0	27.505	0	1349.110	0	17.0	4	5.2	4	-1E+10	1	-1E+10	1	-1E+10	1	-1E+10	1	-1E+10	1	-1E+10	1
4902551	47	C	11/27/2021	03:02	-133.699	49.703	0	1375.30	0	2.5520	0	34.4690	0	27.509	0	1359.058	0	17.5	4	5.3	4	-1E+10	1	-1E+10	1	-1E+10	1	-1E+10	1	-1E+10	1	-1E+10	1
4902551	47	C	11/27/2021	03:02	-133.699	49.703	0	1385.40	0	2.5370	0	34.4720	0	27.513	0	1369.006	0	17.8	4	5.4	4	-1E+10	1	-1E+10	1	-1E+10	1	-1E+10	1	-1E+10	1	-1E+10	1
4902551	47	C	11/27/2021	03:02	-133.699	49.703	0	1395.40	0	2.5260	0	34.4750	0	27.516	0	1378.855	0	18.2	4	5.5	4	-1E+10	1	-1E+10	1	-1E+10	1	-1E+10	1	-1E+10	1	-1E+10	1
4902551	47	C	11/27/2021	03:02	-133.699	49.703	0	1405.40	0	2.5200	0	34.4760	0	27.517	0	1388.704	0	18.5	4	5.6	4	-1E+10	1	-1E+10	1	-1E+10	1	-1E+10	1	-1E+10	1	-1E+10	1
4902551	47	C	11/27/2021	03:02	-133.699	49.703	0	1415.40	0	2.5070	0	34.4780	0	27.520	0	1398.552	0	18.9	4	5.8	4	-1E+10	1	-1E+10	1	-1E+10	1	-1E+10	1	-1E+10	1	-1E+10	1
4902551	47	C	11/27/2021	03:02	-133.699	49.703	0	1425.40	0	2.4950	0	34.4800	0	27.523	0	1408.399	0	19.5	4	5.9	4	-1E+10	1	-1E+10	1	-1E+10	1	-1E+10	1	-1E+10	1	-1E+10	1
4902551	47	C	11/27/2021	03:02	-133.699	49.703	0	1435.50	0	2.4720	0	34.4840	0	27.528	0	1418.345	0	20.3	4	6.2	4	-1E+10	1	-1E+10	1	-1E+10	1	-1E+10	1	-1E+10	1	-1E+10	1
4902551	47	C	11/27/2021	03:02	-133.699	49.703	0	1445.60	0	2.4450	0	34.4890	0	27.534	0	1428.290	0	21.2	4	6.5	4	-1E+10	1	-1E+10	1	-1E+10	1	-1E+10	1	-1E+10	1	-1E+10	1
4902551	47	C	11/27/2021	03:02	-133.699	49.703	0	1455.80	0	2.4190	0	34.4940	0	27.540	0	1438.333	0	21.9	4	6.7	4	-1E+10	1	-1E+10	1	-1E+10	1	-1E+10	1	-1E+10	1	-1E+10	1
4902551	47	C	11/27/2021	03:02	-133.699	49.703	0	1465.50	0	2.4030	0	34.4970	0	27.544	0	1447.884	0	22.5	4	6.9	4	-1E+10	1	-1E+10	1	-1E+10	1	-1E+10	1	-1E+10	1	-1E+10	1
4902551	47	C	11/27/2021	03:02	-133.699	49.703	0	1475.50	0	2.3870	0	34.4990	0	27.547	0	1457.729	0	23.1	4	7.0	4	-1E+10	1	-1E+10	1	-1E+10	1	-1E+10	1	-1E+10	1	-1E+10	1
4902551	47	C	11/27/2021	03:02	-133.699	49.703	0	1485.30	0	2.3760	0	34.5010	0	27.550	0	1467.377	0	23.4	4	7.1	4	-1E+10	1	-1E+10	1	-1E+10	1	-1E+10	1	-1E+10	1	-1E+10	1
4902551	47	C	11/27/2021	03:02	-133.699	49.703	0	1495.20	0	2.3740	0	34.5020	0	27.551	0	1477.123	0	23.8	4	7.2	4	-1E+10	1	-1E+10	1	-1E+10	1	-1E+10	1	-1E+10	1	-1E+10	1
4902551	47	C	11/27/2021	03:02	-133.699	49.703	0	1505.30	0	2.3580	0	34.5050	0	27.554	0	1487.065	0	24.5	4	7.5	4	-1E+10	1	-1E+10	1	-1E+10	1	-1E+10	1	-1E+10	1	-1E+10	1
4902551	47	C	11/27/2021	03:02	-133.699	49.703	0	1515.60	0	2.3420	0	34.5070	0	27.557	0	1497.204	0	25.2	4	7.7	4	-1E+10	1	-1E+10	1	-1E+10	1	-1E+10	1	-1E+10	1	-1E+10	1
4902551	47	C	11/27/2021	03:02	-133.699	49.703	0	1525.70	0	2.3200	0	34.5110	0	27.562	0	1507.146	0	26.1	4	7.9	4	-1E+10	1	-1E+10	1	-1E+10	1	-1E+10	1	-1E+10	1	-1E+10	1
4902551	47	C	11/27/2021	03:02	-133.699	49.703	0	1535.50	0	2.2980	0	34.5140	0	27.567	0	1516.791	0	26.7	4	8.1	4	-1E+10	1	-1E+10	1	-1E+10	1	-1E+10	1	-1E+10	1	-1E+10	1
4902551	47	C	11/27/2021	03:02	-133.699	49.703	0	1545.60	0	2.2870	0	34.5170	0	27.570	0	1526.732	0	27.3	4	8.3	4	-1E+10	1	-1E+10	1	-1E+10	1	-1E+10	1	-1E+10	1	-1E+10	1
4902551	47	C	11/27/2021	03:02	-133.699	49.703	0	1555.50	0	2.2760	0	34.5190	0	27.573	0	1536.475	0	27.8	4	8.4	4	-1E+10	1	-1E+10	1	-1E+10	1	-1E+10	1	-1E+10	1	-1E+10	1
4902551	47	C	11/27/2021	03:02	-133.699	49.703	0	1565.20	0	2.2670	0	34.5200	0	27.574	0	1546.021	0	28.4	4	8.6	4	-1E+10	1	-1E+10	1	-1E+10	1	-1E+10	1	-1E+10	1	-1E+10	1
4902551	47	C	11/27/2021	03:02	-133.699	49.703	0	1575.20	0	2.2520	0	34.5230	0	27.578	0	1555.862	0	29.1	4	8.8	4	-1E+10	1	-1E+10	1	-1E+10	1	-1E+10	1	-1E+10	1	-1E+10	1
4902551	47	C	11/27/2021	03:02	-133.699	49.703	0	1585.60	0	2.2360	0	34.5250	0	27.581	0	1566.095	0	29.7	4	9.0	4	-1E+10	1	-1E+10	1	-1E+10	1	-1E+10	1	-1E+10	1	-1E+10	1
4902551	47	C	11/27/2021	03:02	-133.699	49.703	0	1595.90	0	2.2280	0	34.5270	0	27.583	0	1576.230	0	30.2	4	9.1	4	-1E+10	1	-1E+10	1	-1E+10	1	-1E+10	1	-1E+10	1	-1E+10	1
4902551	47	C	11/27/2021	03:02	-133.699	49.703	0	1605.40	0	2.2220	0	34.5280	0	27.584	0	1585.578	0	30.5	4	9.3	4	-1E+10	1	-1E+10	1	-1E+10	1	-1E+10	1	-1E+10	1	-1E+10	1
4902551	47	C	11/27/2021	03:02	-133.699	49.703	0	1615.20	0	2.2130	0	34.5300	0	27.587	0	1595.220	0	31.1	4	9.4	4	-1E+10	1	-1E+10	1	-1E+10	1	-1E+10	1	-1E+10	1	-1E+10	1
4902551	47	C	11/27/2021	03:02	-133.699	49.703	0	1625.20	0	2.2030	0	34.5310	0	27.588	0	1605.058	0	31.6	4	9.6	4	-1E+10	1	-1E+10	1	-1E+10	1	-1E+10	1	-1E+10	1	-1E+10	1
4902551	47	C	11/27/2021	03:02	-133.699	49.703	0	1635.10	0	2.1970	0	34.5330	0	27.591	0	1614.798	0	32.0	4	9.7	4	-1E+10	1	-1E+10	1	-1E+10	1	-1E+10	1	-1E+10	1	-1E+10	1
4902551	47	C	11/27/2021	03:02	-133.699	49.703	0	1645.30	0	2.1880	0	34.5340	0	27.592	0	1624.832	0	32.6	4	9.9	4	-1E+10	1	-1E+10	1	-1E+10	1	-1E+10	1	-1E+10	1	-1E+10	1
4902551	47	C	11/27/2021	03:02	-133.699	49.703	0	1655.30	0	2.1760	0	34.5360	0	27.595	0	1634.669	0	33.0	4	10.0	4	-1E+10	1	-1E+10	1	-1E+10	1	-1E+10	1	-1E+10	1	-1E+10	1
4902551	47	C	11/27/2021	03:02	-133.699	49.703	0	1665.30	0	2.1700	0	34.5370	0	27.596	0	1644.506	0	33.4	4	10.1	4	-1E+10	1	-1E+10	1	-1E+10	1	-1E+10	1	-1E+10	1	-1E+10	1
4902551	47	C	11/27/2021	03:02	-133.699	49.703	0	1675.30	0	2.1610	0	34.5390	0	27.598	0	1654.342	0	34.1	4	10.3	4	-1E+10	1	-1E+10	1	-1E+10	1	-1E+10	1	-1E+10	1	-1E+10	1
4902551	47	C	11/27/2021	03:02	-133.699	49.703	0	1685.40	0	2.1450	0	34.5420	0	27.602	0	1664.276	0	34.8	4	10.5	4	-1E+10	1	-1E+10	1	-1E+10	1	-1E+10	1	-1E+10	1	-1E+10	1
4902551	47	C	11/27/2021	03:02	-133.699	49.703	0	1695.80	0	2.1370	0	34.5430	0	27.604	0	1674.505	0	35.4	4	10.7	4	-1E+10	1	-1E+10	1	-1E+10	1	-1E+10	1	-1E+10	1	-1E+10	1
4902551	47	C	11/27/2021	03:02	-133.699	49.703	0	1705.60	0	2.1310	0	34.5440	0	27.605	0	1684.143	0	36.0	4	10.9	4	-1E+10	1	-1E+10	1	-1E+10	1	-1E+10	1	-1E+10	1	-1E+10	1
4902551	47	C	11/27/2021	03:02	-133.699	49.703	0	1715.40	0	2.1220	0	34.5460	0	27.607	0	1693.780	0	36.7	4	11.1	4	-1E+10	1	-1E+10	1	-1E+10	1	-1E+10	1	-1E+10	1	-1E+10	1
4902551	47	C	11/27/2021	03:02	-133.699	49.703	0	1725.30	0	2.1130	0	34.5480	0	27.610	0	1703.516	0	37.2	4	11.3	4	-1E+10	1	-1E+10	1	-1E+10	1	-1E+10	1	-1E+10	1	-1E+10	1
4902551	47	C	11/27/2021	03:02	-133.699	49.703	0	1735.20	0	2.1090	0	34.5490	0	27.611	0	1713.251	0	37.7	4	11.4	4	-1E+10	1	-1E+10	1	-1E+10	1	-1E+10	1	-1E+10	1	-1E+10	1
4902551	47	C	11/27/2021	03:02	-133.699	49.703	0	1745.00	0	2.1010	0	34.5510	0	27.613	0	1722.887	0	38.3	4	11.6	4	-1E+10	1	-1E+10	1	-1E+10	1	-1E+10	1	-1E+10	1	-1E+10	1
4902551	47	C	11/27/2021	03:02	-133.699	49.703	0	1755.40	0	2.0940	0	34.5520	0	27.615	0	1733.113	0	38.9	4	11.8	4	-1E+10	1	-1E+10	1	-1E+10	1	-1E+10	1	-1E+10	1	-1E+10	1
4902551	47	C	11/27/2021	03:02	-133.699	49.703	0	1765.40	0	2.0880	0	34.5540	0	27.617	0	1742.945	0	39.4	4	11.9	4	-1E+10	1	-1E+10	1	-1E+10	1	-1E+10	1	-1E+10	1	-1E+10	1
4902551	47	C	11/27/2021	03:02	-133.699	49.703	0	1775.00	0	2.0820	0	34.5550	0	27.618	0	1752.383	0	39.9	4	12.1	4	-1E+10	1	-1E+10	1	-1E+10	1	-1E+10	1	-1E+10	1	-1E+10	1
4902551	47	C	11/27/2021	03:02	-133.699	49.703	0	1785.10	0	2.0770	0	34.5560	0	27.619	0	1762.313	0	40.6	4	12.3	4	-1E+10	1	-1E+10	1	-1E+10	1	-1E+10	1	-1E+10	1	-1E+10	1
4902551	47	C	11/27/2021	03:02	-133.699	49.703	0	1795.10	0	2.0670	0	34.5580	0	27.622	0	1772.143	0	41.5	4	12.5	4	-1E+10	1	-1E+10	1	-1E+10	1	-1E+10	1	-1E+10	1	-1E+10	1
4902551	47	C	11/27/2021	03:02	-133.699	49.703	0	1805.30	0	2.0560	0	34.5610	0	27.625	0	1782.170	0	42.3	4	12.8	4	-1E+10	1	-1E+10	1	-1E+10	1	-1E+10	1	-1E+10	1	-1E+10	1
4902551	47	C	11/27/2021	03:02	-133.699	49.703	0	1815.40	0	2.0440	0	34.5630	0	27.628	0	1792.098	0	43.3	4	13.1	4	-1E+10	1	-1E+10	1	-1E+10	1	-1E+10	1	-1E+10	1	-1E+10	1
4902551	47	C	11/27/2021	03:02	-133.699	49.703	0	1825.60	0	2.0310	0	34.5650	0	27.630	0	1802.124	0	44.3	4	13.4	4	-1E+10	1	-1E+10	1	-1E+10	1	-1E+10	1	-1E+10	1	-1E+10	1
4902551	47	C	11/27/2021	03:02	-133.699	49.703	0	1835.40	0	2.0200	0	34.5670	0	27.633	0	1811.756	0	45.0	4	13.6	4	-1E+10	1	-1E+10	1	-1E+10	1	-1E+10	1	-1E+10	1	-1E+10	1
4902551	47	C	11/27/2021	03:02	-133.699	49.703	0	1845.30	0	2.0120	0	34.5690	0	27.635	0	1821.486	0	45.6	4	13.7	4	-1E+10	1	-1E+10	1	-1E+10	1	-1E+10	1	-1E+10	1	-1E+10	1
4902551	47	C	11/27/2021	03:02	-133.699	49.703	0	1855.30	0	2.0070	0	34.5700	0	27.636	0	1831.314	0	46.2	4	13.9	4	-1E+10	1	-1E+10	1	-1E+10	1	-1E+10	1	-1E+10	1	-1E+10	1
4902551	47	C	11/27/2021	03:02	-133.699	49.703	0	1865.40	0	1.9960	0	34.5720	0	27.639	0	1841.240	0	46.9	4	14.1	4	-1E+10	1	-1E+10	1	-1E+10	1	-1E+10	1	-1E+10	1	-1E+10	1
4902551	47	C	11/27/2021	03:02	-133.699	49.703	0	1875.60	0	1.9900	0	34.5730	0	27.640	0	1851.263	0	47.5	4	14.3	4	-1E+10	1	-1E+10	1	-1E+10	1	-1E+10	1	-1E+10	1	-1E+10	1
4902551	47	C	11/27/2021	03:02	-133.699	49.703	0	1885.40	0	1.9820	0	34.5750	0	27.642	0	1860.893	0	48.2	4	14.5	4	-1E+10	1	-1E+10	1	-1E+10	1	-1E+10	1	-1E+10	1	-1E+10	1
4902551	47	C	11/27/2021	03:02	-133.699	49.703	0	1895.30	0	1.9750	0	34.5760	0	27.644	0	1870.621	0	48.9	4	14.7	4	-1E+10	1	-1E+10	1	-1E+10	1	-1E+10	1	-1E+10	1	-1E+10	1
4902551	47	C	11/27/2021	03:02	-133.699	49.703	0	1905.60	0	1.9640	0	34.5780	0	27.646	0	1880.742	0	49.4	4	14.9	4	-1E+10	1	-1E+10	1	-1E+10	1	-1E+10	1	-1E+10	1	-1E+10	1
4902551	47	C	11/27/2021	03:02	-133.699	49.703	0	1915.40	0	1.9630	0	34.5790	0	27.647	0	1890.370	0	49.5	4	14.9	4	-1E+10	1	-1E+10	1	-1E+10	1	-1E+10	1	-1E+10	1	-1E+10	1
4902551	47	C	11/27/2021	03:02	-133.699	49.703	0	1925.00	0	1.9640	0	34.5790	0	27.647	0	1899.802	0	49.7	4	15.0	4	-1E+10	1	-1E+10	1	-1E+10	1	-1E+10	1	-1E+10	1	-1E+10	1
4902551	47	C	11/27/2021	03:02	-133.699	49.703	0	1935.40	0	1.9600	0	34.5790	0	27.648	0	1910.019	0	50.1	4	15.1	4	-1E+10	1	-1E+10	1	-1E+10	1	-1E+10	1	-1E+10	1	-1E+10	1
4902551	47	C	11/27/2021	03:02	-133.699	49.703	0	1945.40	0	1.9540	0	34.5810	0	27.650	0	1919.843	0	50.6	4	15.2	4	-1E+10	1	-1E+10	1	-1E+10	1	-1E+10	1	-1E+10	1	-1E+10	1
4902551	47	C	11/27/2021	03:02	-133.699	49.703	0	1955.00	0	1.9490	0	34.5820	0	27.651	0	1929.273	0	51.0	4	15.3	4	-1E+10	1	-1E+10	1	-1E+10	1	-1E+10	1	-1E+10	1	-1E+10	1
4902551	47	C	11/27/2021	03:02	-133.699	49.703	0	1965.50	0	1.9430	0	34.5830	0	27.652	0	1939.587	0	51.2	4	15.4	4	-1E+10	1	-1E+10	1	-1E+10	1	-1E+10	1	-1E+10	1	-1E+10	1
4902551	47	C	11/27/2021	03:02	-133.699	49.703	0	1971.90	0	1.9360	0	34.5850	0	27.655	0	1945.874	0	50.7	4	15.3	4	-1E+10	1	-1E+10	1	-1E+10	1	-1E+10	1	-1E+10	1	-1E+10	1
4902551	47	C	11/27/2021	03:02	-133.699	49.703	0																										
4902551	48	C	12/07/2021	08:00	-133.626	49.641	0	0.30	0	8.3550	0	32.2710	0	25.080	0	0.297	0	271.9	4	93.6	4	-1E+10	1	-1E+10	1	-1E+10	1	-1E+10	1	-1E+10	1	-1E+10	1
4902551	48	C	12/07/2021	08:00	-133.626	49.641	0	1.10	0	8.3540	0	32.2730	0	25.081	0	1.091	0	271.8	4	93.6	4	-1E+10	1	-1E+10	1	-1E+10	1	-1E+10	1	-1E+10	1	-1E+10	1
4902551	48	C	12/07/2021	08:00	-133.626	49.641	0	1.90	0	8.3540	0	32.2740	0	25.082	0	1.884	0	271.8	4	93.6	4	-1E+10	1	-1E+10	1	-1E+10	1	-1E+10	1	-1E+10	1	-1E+10	1
4902551	48	C	12/07/2021	08:00	-133.626	49.641	0	3.00	0	8.3590	0	32.2710	0	25.079	0	2.974	0	271.8	4	93.6	4	-1E+10	1	-1E+10	1	-1E+10	1	-1E+10	1	-1E+10	1	-1E+10	1
4902551	48	C	12/07/2021	08:00	-133.626	49.641	0	3.90	0	8.3580	0	32.2720	0	25.080	0	3.867	0	271.8	4	93.6	4	-1E+10	1	-1E+10	1	-1E+10	1	-1E+10	1	-1E+10	1	-1E+10	1
4902551	48	C	12/07/2021	08:00	-133.626	49.641	0	4.90	0	8.3600	0	32.2710	0	25.079	0	4.858	0	271.7	4	93.6	4	-1E+10	1	-1E+10	1	-1E+10	1	-1E+10	1	-1E+10	1	-1E+10	1
4902551	48	C	12/07/2021	08:00	-133.626	49.641	0	5.90	0	8.3610	0	32.2710	0	25.079	0	5.850	0	271.7	4	93.6	4	-1E+10	1	-1E+10	1	-1E+10	1	-1E+10	1	-1E+10	1	-1E+10	1
4902551	48	C	12/07/2021	08:00	-133.626	49.641	0	7.00	0	8.3610	0	32.2710	0	25.079	0	6.940	0	271.7	4	93.6	4	-1E+10	1	-1E+10	1	-1E+10	1	-1E+10	1	-1E+10	1	-1E+10	1
4902551	48	C	12/07/2021	08:00	-133.626	49.641	0	8.20	0	8.3620	0	32.2710	0	25.079	0	8.130	0	271.6	4	93.6	4	-1E+10	1	-1E+10	1	-1E+10	1	-1E+10	1	-1E+10	1	-1E+10	1
4902551	48	C	12/07/2021	08:00	-133.626	49.641	0	8.90	0	8.3610	0	32.2710	0	25.079	0	8.824	0	271.6	4	93.6	4	-1E+10	1	-1E+10	1	-1E+10	1	-1E+10	1	-1E+10	1	-1E+10	1
4902551	48	C	12/07/2021	08:00	-133.626	49.641	0	10.10	0	8.3620	0	32.2710	0	25.079	0	10.013	0	271.6	4	93.5	4	-1E+10	1	-1E+10	1	-1E+10	1	-1E+10	1	-1E+10	1	-1E+10	1
4902551	48	C	12/07/2021	08:00	-133.626	49.641	0	10.90	0	8.3620	0	32.2710	0	25.079	0	10.807	0	271.6	4	93.5	4	-1E+10	1	-1E+10	1	-1E+10	1	-1E+10	1	-1E+10	1	-1E+10	1
4902551	48	C	12/07/2021	08:00	-133.626	49.641	0	12.20	0	8.3620	0	32.2710	0	25.079	0	12.095	0	271.5	4	93.5	4	-1E+10	1	-1E+10	1	-1E+10	1	-1E+10	1	-1E+10	1	-1E+10	1
4902551	48	C	12/07/2021	08:00	-133.626	49.641	0	12.80	0	8.3620	0	32.2710	0	25.079	0	12.690	0	271.5	4	93.5	4	-1E+10	1	-1E+10	1	-1E+10	1	-1E+10	1	-1E+10	1	-1E+10	1
4902551	48	C	12/07/2021	08:00	-133.626	49.641	0	14.10	0	8.3620	0	32.2710	0	25.079	0	13.979	0	271.5	4	93.5	4	-1E+10	1	-1E+10	1	-1E+10	1	-1E+10	1	-1E+10	1	-1E+10	1
4902551	48	C	12/07/2021	08:00	-133.626	49.641	0	15.30	0	8.3630	0	32.2710	0	25.079	0	15.169	0	271.5	4	93.5	4	-1E+10	1	-1E+10	1	-1E+10	1	-1E+10	1	-1E+10	1	-1E+10	1
4902551	48	C	12/07/2021	08:00	-133.626	49.641	0	15.90	0	8.3640	0	32.2710	0	25.079	0	15.764	0	271.5	4	93.5	4	-1E+10	1	-1E+10	1	-1E+10	1	-1E+10	1	-1E+10	1	-1E+10	1
4902551	48	C	12/07/2021	08:00	-133.626	49.641	0	17.10	0	8.3620	0	32.2710	0	25.079	0	16.953	0	271.5	4	93.5	4	-1E+10	1	-1E+10	1	-1E+10	1	-1E+10	1	-1E+10	1	-1E+10	1
4902551	48	C	12/07/2021	08:00	-133.626	49.641	0	18.00	0	8.3640	0	32.2710	0	25.079	0	17.845	0	271.5	4	93.5	4	-1E+10	1	-1E+10	1	-1E+10	1	-1E+10	1	-1E+10	1	-1E+10	1
4902551	48	C	12/07/2021	08:00	-133.626	49.641	0	19.00	0	8.3640	0	32.2710	0	25.079	0	18.837	0	271.4	4	93.5	4	-1E+10	1	-1E+10	1	-1E+10	1	-1E+10	1	-1E+10	1	-1E+10	1
4902551	48	C	12/07/2021	08:00	-133.626	49.641	0	20.10	0	8.3640	0	32.2710	0	25.079	0	19.927	0	271.3	4	93.5	4	-1E+10	1	-1E+10	1	-1E+10	1	-1E+10	1	-1E+10	1	-1E+10	1
4902551	48	C	12/07/2021	08:00	-133.626	49.641	0	20.90	0	8.3640	0	32.2710	0	25.079	0	20.720	0	271.4	4	93.5	4	-1E+10	1	-1E+10	1	-1E+10	1	-1E+10	1	-1E+10	1	-1E+10	1
4902551	48	C	12/07/2021	08:00	-133.626	49.641	0	22.00	0	8.3640	0	32.2710	0	25.079	0	21.811	0	271.4	4	93.5	4	-1E+10	1	-1E+10	1	-1E+10	1	-1E+10	1	-1E+10	1	-1E+10	1
4902551	48	C	12/07/2021	08:00	-133.626	49.641	0	23.20	0	8.3640	0	32.2710	0	25.079	0	23.001	0	271.4	4	93.5	4	-1E+10	1	-1E+10	1	-1E+10	1	-1E+10	1	-1E+10	1	-1E+10	1
4902551	48	C	12/07/2021	08:00	-133.626	49.641	0	23.90	0	8.3640	0	32.2710	0	25.079	0	23.695	0	271.4	4	93.5	4	-1E+10	1	-1E+10	1	-1E+10	1	-1E+10	1	-1E+10	1	-1E+10	1
4902551	48	C	12/07/2021	08:00	-133.626	49.641	0	24.90	0	8.3630	0	32.2710	0	25.079	0	24.686	0	271.3	4	93.5	4	-1E+10	1	-1E+10	1	-1E+10	1	-1E+10	1	-1E+10	1	-1E+10	1
4902551	48	C	12/07/2021	08:00	-133.626	49.641	0	26.00	0	8.3630	0	32.2710	0	25.079	0	25.776	0	271.4	4	93.5	4	-1E+10	1	-1E+10	1	-1E+10	1	-1E+10	1	-1E+10	1	-1E+10	1
4902551	48	C	12/07/2021	08:00	-133.626	49.641	0	26.90	0	8.3630	0	32.2710	0	25.079	0	26.669	0	271.3	4	93.5	4	-1E+10	1	-1E+10	1	-1E+10	1	-1E+10	1	-1E+10	1	-1E+10	1
4902551	48	C	12/07/2021	08:00	-133.626	49.641	0	28.00	0	8.3630	0	32.2710	0	25.079	0	27.759	0	271.3	4	93.4	4	-1E+10	1	-1E+10	1	-1E+10	1	-1E+10	1	-1E+10	1	-1E+10	1
4902551	48	C	12/07/2021	08:00	-133.626	49.641	0	29.10	0	8.3630	0	32.2710	0	25.079	0	28.849	0	271.3	4	93.4	4	-1E+10	1	-1E+10	1	-1E+10	1	-1E+10	1	-1E+10	1	-1E+10	1
4902551	48	C	12/07/2021	08:00	-133.626	49.641	0	29.80	0	8.3640	0	32.2710	0	25.079	0	29.543	0	271.2	4	93.4	4	-1E+10	1	-1E+10	1	-1E+10	1	-1E+10	1	-1E+10	1	-1E+10	1
4902551	48	C	12/07/2021	08:00	-133.626	49.641	0	31.00	0	8.3620	0	32.2710	0	25.079	0	30.733	0	271.2	4	93.4	4	-1E+10	1	-1E+10	1	-1E+10	1	-1E+10	1	-1E+10	1	-1E+10	1
4902551	48	C	12/07/2021	08:00	-133.626	49.641	0	32.20	0	8.3620	0	32.2710	0	25.079	0	31.923	0	271.2	4	93.4	4	-1E+10	1	-1E+10	1	-1E+10	1	-1E+10	1	-1E+10	1	-1E+10	1
4902551	48	C	12/07/2021	08:00	-133.626	49.641	0	33.00	0	8.3580	0	32.2720	0	25.081	0	32.716	0	271.2	4	93.4	4	-1E+10	1	-1E+10	1	-1E+10	1	-1E+10	1	-1E+10	1	-1E+10	1
4902551	48	C	12/07/2021	08:00	-133.626	49.641	0	34.30	0	8.3580	0	32.2720	0	25.081	0	34.004	0	271.1	4	93.4	4	-1E+10	1	-1E+10	1	-1E+10	1	-1E+10	1	-1E+10	1	-1E+10	1
4902551	48	C	12/07/2021	08:00	-133.626	49.641	0	34.90	0	8.3580	0	32.2720	0	25.081	0	34.599	0	271.2	4	93.4	4	-1E+10	1	-1E+10	1	-1E+10	1	-1E+10	1	-1E+10	1	-1E+10	1
4902551	48	C	12/07/2021	08:00	-133.626	49.641	0	36.10	0	8.3570	0	32.2720	0	25.081	0	35.789	0	271.2	4	93.4	4	-1E+10	1	-1E+10	1	-1E+10	1	-1E+10	1	-1E+10	1	-1E+10	1
4902551	48	C	12/07/2021	08:00	-133.626	49.641	0	37.00	0	8.3570	0	32.2720	0	25.081	0	36.681	0	271.1	4	93.4	4	-1E+10	1	-1E+10	1	-1E+10	1	-1E+10	1	-1E+10	1	-1E+10	1
4902551	48	C	12/07/2021	08:00	-133.626	49.641	0	37.90	0	8.3580	0	32.2720	0	25.081	0	37.573	0	271.1	4	93.4	4	-1E+10	1	-1E+10	1	-1E+10	1	-1E+10	1	-1E+10	1	-1E+10	1
4902551	48	C	12/07/2021	08:00	-133.626	49.641	0	39.10	0	8.3580	0	32.2720	0	25.081	0	38.762	0	271.0	4	93.3	4	-1E+10	1	-1E+10	1	-1E+10	1	-1E+10	1	-1E+10	1	-1E+10	1
4902551	48	C	12/07/2021	08:00	-133.626	49.641	0	40.00	0	8.3580	0	32.2710	0	25.080	0	39.655	0	271.0	4	93.3	4	-1E+10	1	-1E+10	1	-1E+10	1	-1E+10	1	-1E+10	1	-1E+10	1
4902551	48	C	12/07/2021	08:00	-133.626	49.641	0	41.00	0	8.3590	0	32.2720	0	25.080	0	40.646	0	271.0	4	93.3	4	-1E+10	1	-1E+10	1	-1E+10	1	-1E+10	1	-1E+10	1	-1E+10	1
4902551	48	C	12/07/2021	08:00	-133.626	49.641	0	42.20	0	8.3560	0	32.2720	0	25.081	0	41.835	0	270.9	4	93.3	4	-1E+10	1	-1E+10	1	-1E+10	1	-1E+10	1	-1E+10	1	-1E+10	1
4902551	48	C	12/07/2021	08:00	-133.626	49.641	0	42.90	0	8.3570	0	32.2720	0	25.081	0	42.529	0	270.9	4	93.3	4	-1E+10	1	-1E+10	1	-1E+10	1	-1E+10	1	-1E+10	1	-1E+10	1
4902551	48	C	12/07/2021	08:00	-133.626	49.641	0	43.80	0	8.3560	0	32.2720	0	25.081	0	43.421	0	270.9	4	93.3	4	-1E+10	1	-1E+10	1	-1E+10	1	-1E+10	1	-1E+10	1	-1E+10	1
4902551	48	C	12/07/2021	08:00	-133.626	49.641	0	45.00	0	8.3550	0	32.2720	0	25.081	0	44.611	0	270.8	4	93.3	4	-1E+10	1	-1E+10	1	-1E+10	1	-1E+10	1	-1E+10	1	-1E+10	1
4902551	48	C	12/07/2021	08:00	-133.626	49.641	0	45.70	0	8.3560	0	32.2720	0	25.081	0	45.305	0	270.7	4	93.2	4	-1E+10	1	-1E+10	1	-1E+10	1	-1E+10	1	-1E+10	1	-1E+10	1
4902551	48	C	12/07/2021	08:00	-133.626	49.641	0	46.90	0	8.3560	0	32.2720	0	25.081	0	46.494	0	270.6	4	93.2	4	-1E+10	1	-1E+10	1	-1E+10	1	-1E+10	1	-1E+10	1	-1E+10	1
4902551	48	C	12/07/2021	08:00	-133.626	49.641	0	48.10	0	8.3560	0	32.2720	0	25.081	0	47.684	0	270.6	4	93.2	4	-1E+10	1	-1E+10	1	-1E+10	1	-1E+10	1	-1E+10	1	-1E+10	1
4902551	48	C	12/07/2021	08:00	-133.626	49.641	0	49.10	0	8.3540	0	32.2720	0	25.081	0	48.675	0	270.5	4	93.1	4	-1E+10	1	-1E+10	1	-1E+10	1	-1E+10	1	-1E+10	1	-1E+10	1
4902551	48	C	12/07/2021	08:00	-133.626	49.641	0	50.10	0	8.3540	0	32.2720	0	25.081	0	49.666	0	270.5	4	93.2	4	-1E+10	1	-1E+10	1	-1E+10	1	-1E+10	1	-1E+10	1	-1E+10	1
4902551	48	C	12/07/2021	08:00	-133.626	49.641	0	51.10	0	8.3540	0	32.2720	0	25.081	0	50.657	0	270.5	4	93.1	4	-1E+10	1	-1E+10	1	-1E+10	1	-1E+10	1	-1E+10	1	-1E+10	1
4902551	48	C	12/07/2021	08:00	-133.626	49.641	0	52.00	0	8.3540	0	32.2720	0	25.081	0	51.549	0	270.5	4	93.1	4	-1E+10	1	-1E+10	1	-1E+10	1	-1E+10	1	-1E+10	1	-1E+10	1
4902551	48	C	12/07/2021	08:00	-133.626	49.641	0	52.70	0	8.3530	0	32.2720	0	25.082	0	52.243	0	270.4	4	93.1	4	-1E+10	1	-1E+10	1	-1E+10	1	-1E+10	1	-1E+10	1	-1E+10	1
4902551	48	C	12/07/2021	08:00	-133.626	49.641	0	53.70	0	8.3530	0	32.2720	0	25.082	0	53.234	0	270.3	4	93.1	4	-1E+10	1	-1E+10	1	-1E+10	1	-1E+10	1	-1E+10	1	-1E+10	1
4902551	48	C	12/07/2021	08:00	-133.626	49.641	0	54.80	0	8.3530	0	32.2720	0	25.082	0	54.325	0	270.2	4	93.1	4	-1E+10	1	-1E+10	1	-1E+10	1	-1E+10	1	-1E+10	1	-1E+10	1
4902551	48	C	12/07/2021	08:00	-133.626	49.641	0	55.80	0	8.3520	0	32.2720	0	25.082	0	55.316	0	270.1	4	93.0	4	-1E+10	1	-1E+10	1	-1E+10	1	-1E+10	1	-1E+10	1	-1E+10	1
4902551	48	C	12/07/2021	08:00	-133.626	49.641	0	56.90	0	8.3520	0	32.2720	0	25.082	0	56.406	0	270.1	4	93.0	4	-1E+10	1	-1E+10	1	-1E+10	1	-1E+10	1	-1E+10	1	-1E+10	1
4902551	48	C	12/07/2021	08:00	-133.626	49.641	0	57.90	0	8.3510	0	32.2720	0	25.082	0	57.397	0	270.0	4	93.0	4	-1E+10	1	-1E+10	1	-1E+10	1	-1E+10	1	-1E+10	1	-1E+10	1
4902551	48	C	12/07/2021	08:00	-133.626	49.641	0	59.00	0	8.3500	0	32.2720	0	25.082	0	58.488	0	269.9	4	93.0	4	-1E+10	1	-1E+10	1	-1E+10	1	-1E+10	1	-1E+10	1	-1E+10	1
4902551	48	C	12/07/2021	08:00	-133.626	49.641	0	60.10	0	8.3500	0	32.2720	0	25.082	0	59.578	0	269.9	4	92.9	4	-1E+10	1	-1E+10	1	-1E+10	1	-1E+10	1	-1E+10	1	-1E+10	1
4902551	48	C	12/07/2021	08:00	-133.626	49.641	0	61.10	0	8.3490	0	32.2720	0	25.082	0	60.569	0	269.7	4	92.9	4	-1E+10	1	-1E+10	1	-1E+10	1	-1E+10	1	-1E+10	1	-1E+10	1
4902551	48	C	12/07/2021	08:00	-133.626	49.641	0	61.90	0	8.3500	0	32.2730	0	25.083	0	61.362	0	269.7	4	92.9	4	-1E+10	1	-1E+10	1	-1E+10	1	-1E+10	1	-1E+10	1	-1E+10	1
4902551	48	C	12/07/2021	08:00	-133.626	49.641	0	62.90	0	8.3490	0	32.2730	0	25.083	0	62.353	0	269.6	4	92.8	4	-1E+10	1	-1E+10	1	-1E+10	1	-1E+10	1	-1E+10	1	-1E+10	1
4902551	48	C	12/07/2021	08:00	-133.626	49.641	0	63.70	0	8.3480	0	32.2730	0	25.083	0	63.146	0	269.4	4	92.8	4	-1E+10	1	-1E+10	1	-1E+10	1	-1E+10	1	-1E+10	1	-1E+10	1
4902551	48	C	12/07/2021	08:00	-133.626	49.641	0	64.70	0	8.3470	0	32.2730	0	25.083	0	64.137	0	269.3	4	92.7	4	-1E+10	1	-1E+10	1	-1E+10	1	-1E+10	1	-1E+10	1	-1E+10	1
4902551	48	C	12/07/2021	08:00	-133.626	49.641	0	65.70	0	8.3470	0	32.2730	0	25.083	0	65.129	0	269.0	4	92.6	4	-1E+10	1	-1E+10	1	-1E+10	1	-1E+10	1	-1E+10	1	-1E+10	1
4902551	48	C	12/07/2021	08:00	-133.626	49.641	0	66.70	0	8.3460	0	32.2730	0	25.084	0	66.120	0	268.8	4	92.6	4	-1E+10	1	-1E+10	1	-1E+10	1	-1E+10	1	-1E+10	1	-1E+10	1
4902551	48	C	12/07/2021	08:00	-133.626	49.641	0	67.90	0	8.3430	0	32.2730	0	25.084	0	67.309	0	268.6	4	92.5	4	-1E+10	1	-1E+10	1	-1E+10	1	-1E+10	1	-1E+10	1	-1E+10	1
4902551	48	C	12/07/2021	08:00	-133.626	49.641	0	69.30	0	8.3330	0	32.2750	0	25.087	0	68.697	0	268.1	4	92.3	4	-1E+10	1	-1E+10	1	-1E+10	1	-1E+10	1	-1E+10	1	-1E+10	1
4902551	48	C	12/07/2021	08:00	-133.626	49.641	0	69.90	0	8.3290	0	32.2750	0	25.088	0	69.291	0	267.8	4	92.2	4	-1E+10	1	-1E+10	1	-1E+10	1	-1E+10	1	-1E+10	1	-1E+10	1
4902551	48	C	12/07/2021	08:00	-133.626	49.641	0	71.00	0	8.2970	0	32.2800	0	25.096	0	70.382	0	267.5	4	92.0	4	-1E+10	1	-1E+10	1	-1E+10	1	-1E+10	1	-1E+10	1	-1E+10	1
4902551	48	C	12/07/2021	08:00	-133.626	49.641	0	72.20	0	8.2670	0	32.2850	0	25.105	0	71.571	0	266.9	4	91.7	4	-1E+10	1	-1E+10	1	-1E+10	1	-1E+10	1	-1E+10	1	-1E+10	1
4902551	48	C	12/07/2021	08:00	-133.626	49.641	0	73.10	0	8.2520	0	32.2870	0	25.108	0	72.463	0	266.5	4	91.6	4	-1E+10	1	-1E+10	1	-1E+10	1	-1E+10	1	-1E+10	1	-1E+10	1
4902551	48	C	12/07/2021	08:00	-133.626	49.641	0	73.90	0	8.2390	0	32.2880	0	25.111	0	73.256	0	266.0	4	91.4	4	-1E+10	1	-1E+10	1	-1E+10	1	-1E+10	1	-1E+10	1	-1E+10	1
4902551	48	C	12/07/2021	08:00	-133.626	49.641	0	75.00	0	8.2170	0	32.2910	0	25.117	0	74.346	0	265.3	4	91.1	4	-1E+10	1	-1E+10	1	-1E+10	1	-1E+10	1	-1E+10	1	-1E+10	1
4902551	48	C	12/07/2021	08:00	-133.626	49.641	0	76.10	0	8.1800	0	32.2970	0	25.127	0	75.436	0	264.7	4	90.8	4	-1E+10	1	-1E+10	1	-1E+10	1	-1E+10	1	-1E+10	1	-1E+10	1
4902551	48	C	12/07/2021	08:00	-133.626	49.641	0	77.10	0	8.1590	0	32.2990	0	25.132	0	76.427	0	263.9	4	90.5	4	-1E+10	1	-1E+10	1	-1E+10	1	-1E+10	1	-1E+10	1	-1E+10	1
4902551	48	C	12/07/2021	08:00	-133.626	49.641	0	78.10	0	8.1090	0	32.2940	0	25.135	0	77.418	0	262.3	4	89.9	4	-1E+10	1	-1E+10	1	-1E+10	1	-1E+10	1	-1E+10	1	-1E+10	1
4902551	48	C	12/07/2021	08:00	-133.626	49.641	0	79.10	0	7.6940	0	32.3550	0	25.242	0	78.409	0	263.2	4	89.4	4	-1E+10	1	-1E+10	1	-1E+10	1	-1E+10	1	-1E+10	1	-1E+10	1
4902551	48	C	12/07/2021	08:00	-133.626	49.641	0	79.90	0	7.4740	0	32.3850	0	25.296	0	79.202	0	263.8	4	89.1	4	-1E+10	1	-1E+10	1	-1E+10	1	-1E+10	1	-1E+10	1	-1E+10	1
4902551	48	C	12/07/2021	08:00	-133.626	49.641	0	80.90	0	7.3510	0	32.3920	0	25.319	0	80.193	0	263.8	4	88.9	4	-1E+10	1	-1E+10	1	-1E+10	1	-1E+10	1	-1E+10	1	-1E+10	1
4902551	48	C	12/07/2021	08:00	-133.626	49.641	0	82.10	0	7.1100	0	32.4130	0	25.368	0	81.383	0	264.3	4	88.6	4	-1E+10	1	-1E+10	1	-1E+10	1	-1E+10	1	-1E+10	1	-1E+10	1
4902551	48	C	12/07/2021	08:00	-133.626	49.641	0	82.80	0	6.9520	0	32.4230	0	25.397	0	82.076	0	264.6	4	88.4	4	-1E+10	1	-1E+10	1	-1E+10	1	-1E+10	1	-1E+10	1	-1E+10	1
4902551	48	C	12/07/2021	08:00	-133.626	49.641	0	83.80	0	6.6590	0	32.4790	0	25.479	0	83.067	0	265.0	4	88.0	4	-1E+10	1	-1E+10	1	-1E+10	1	-1E+10	1	-1E+10	1	-1E+10	1
4902551	48	C	12/07/2021	08:00	-133.626	49.641	0	85.10	0	6.4020	0	32.4890	0	25.520	0	84.356	0	265.2	4	87.5	4	-1E+10	1	-1E+10	1	-1E+10	1	-1E+10	1	-1E+10	1	-1E+10	1
4902551	48	C	12/07/2021	08:00	-133.626	49.641	0	86.00	0	6.3100	0	32.5010	0	25.541	0	85.248	0	265.0	4	87.3	4	-1E+10	1	-1E+10	1	-1E+10	1	-1E+10	1	-1E+10	1	-1E+10	1
4902551	48	C	12/07/2021	08:00	-133.626	49.641	0	86.90	0	6.2890	0	32.5030	0	25.545	0	86.140	0	264.8	4	87.2	4	-1E+10	1	-1E+10	1	-1E+10	1	-1E+10	1	-1E+10	1	-1E+10	1
4902551	48	C	12/07/2021	08:00	-133.626	49.641	0	88.10	0	6.2670	0	32.5060	0	25.550	0	87.329	0	264.4	4	87.0	4	-1E+10	1	-1E+10	1	-1E+10	1	-1E+10	1	-1E+10	1	-1E+10	1
4902551	48	C	12/07/2021	08:00	-133.626	49.641	0	89.00	0	6.2490	0	32.5080	0	25.554	0	88.221	0	263.8	4	86.8	4	-1E+10	1	-1E+10	1	-1E+10	1	-1E+10	1	-1E+10	1	-1E+10	1
4902551	48	C	12/07/2021	08:00	-133.626	49.641	0	89.90	0	6.2370	0	32.5090	0	25.557	0	89.113	0	263.4	4	86.6	4	-1E+10	1	-1E+10	1	-1E+10	1	-1E+10	1	-1E+10	1	-1E+10	1
4902551	48	C	12/07/2021	08:00	-133.626	49.641	0	91.00	0	6.2160	0	32.5120	0	25.562	0	90.203	0	262.7	4	86.3	4	-1E+10	1	-1E+10	1	-1E+10	1	-1E+10	1	-1E+10	1	-1E+10	1
4902551	48	C	12/07/2021	08:00	-133.626	49.641	0	91.90	0	6.2100	0	32.5120	0	25.562	0	91.095	0	262.1	4	86.1	4	-1E+10	1	-1E+10	1	-1E+10	1	-1E+10	1	-1E+10	1	-1E+10	1
4902551	48	C	12/07/2021	08:00	-133.626	49.641	0	92.70	0	6.2010	0	32.5130	0	25.564	0	91.888	0	261.3	4	85.8	4	-1E+10	1	-1E+10	1	-1E+10	1	-1E+10	1	-1E+10	1	-1E+10	1
4902551	48	C	12/07/2021	08:00	-133.626	49.641	0	93.80	0	6.1600	0	32.5190	0	25.574	0	92.978	0	260.2	4	85.4	4	-1E+10	1	-1E+10	1	-1E+10	1	-1E+10	1	-1E+10	1	-1E+10	1
4902551	48	C	12/07/2021	08:00	-133.626	49.641	0	94.90	0	6.0810	0	32.5370	0	25.598	0	94.068	0	259.2	4	84.9	4	-1E+10	1	-1E+10	1	-1E+10	1	-1E+10	1	-1E+10	1	-1E+10	1
4902551	48	C	12/07/2021	08:00	-133.626	49.641	0	96.00	0	6.0260	0	32.5520	0	25.617	0	95.158	0	258.1	4	84.5	4	-1E+10	1	-1E+10	1	-1E+10	1	-1E+10	1	-1E+10	1	-1E+10	1
4902551	48	C	12/07/2021	08:00	-133.626	49.641	0	97.00	0	6.0110	0	32.5570	0	25.622	0	96.149	0	256.9	4	84.0	4	-1E+10	1	-1E+10	1	-1E+10	1	-1E+10	1	-1E+10	1	-1E+10	1
4902551	48	C	12/07/2021	08:00	-133.626	49.641	0	98.00	0	5.9990	0	32.5660	0	25.631	0	97.140	0	255.4	4	83.5	4	-1E+10	1	-1E+10	1	-1E+10	1	-1E+10	1	-1E+10	1	-1E+10	1
4902551	48	C	12/07/2021	08:00	-133.626	49.641	0	99.10	0	5.9790	0	32.5760	0	25.641	0	98.230	0	253.0	4	82.7	4	-1E+10	1	-1E+10	1	-1E+10	1	-1E+10	1	-1E+10	1	-1E+10	1
4902551	48	C	12/07/2021	08:00	-133.626	49.641	0	99.90	0	5.9580	0	32.6050	0	25.667	0	99.023	0	251.5	4	82.2	4	-1E+10	1	-1E+10	1	-1E+10	1	-1E+10	1	-1E+10	1	-1E+10	1
4902551	48	C	12/07/2021	08:00	-133.626	49.641	0	100.80	0	5.9460	0	32.6310	0	25.689	0	99.915	0	249.7	4	81.6	4	-1E+10	1	-1E+10	1	-1E+10	1	-1E+10	1	-1E+10	1	-1E+10	1
4902551	48	C	12/07/2021	08:00	-133.626	49.641	0	101.80	0	5.9370	0	32.6490	0	25.704	0	100.906	0	247.9	4	81.0	4	-1E+10	1	-1E+10	1	-1E+10	1	-1E+10	1	-1E+10	1	-1E+10	1
4902551	48	C	12/07/2021	08:00	-133.626	49.641	0	102.80	0	5.9340	0	32.6640	0	25.716	0	101.897	0	246.0	4	80.4	4	-1E+10	1	-1E+10	1	-1E+10	1	-1E+10	1	-1E+10	1	-1E+10	1
4902551	48	C	12/07/2021	08:00	-133.626	49.641	0	103.80	0	5.9330	0	32.6770	0	25.727	0	102.888	0	243.8	4	79.7	4	-1E+10	1	-1E+10	1	-1E+10	1	-1E+10	1	-1E+10	1	-1E+10	1
4902551	48	C	12/07/2021	08:00	-133.626	49.641	0	104.90	0	5.9350	0	32.6810	0	25.730	0	103.978	0	241.4	4	78.9	4	-1E+10	1	-1E+10	1	-1E+10	1	-1E+10	1	-1E+10	1	-1E+10	1
4902551	48	C	12/07/2021	08:00	-133.626	49.641	0	106.00	0	5.9380	0	32.6970	0	25.742	0	105.068	0	238.5	4	78.0	4	-1E+10	1	-1E+10	1	-1E+10	1	-1E+10	1	-1E+10	1	-1E+10	1
4902551	48	C	12/07/2021	08:00	-133.626	49.641	0	107.10	0	5.9440	0	32.7050	0	25.748	0	106.158	0	234.8	4	76.8	4	-1E+10	1	-1E+10	1	-1E+10	1	-1E+10	1	-1E+10	1	-1E+10	1
4902551	48	C	12/07/2021	08:00	-133.626	49.641	0	107.90	0	5.9590	0	32.7370	0	25.771	0	106.951	0	231.9	4	75.9	4	-1E+10	1	-1E+10	1	-1E+10	1	-1E+10	1	-1E+10	1	-1E+10	1
4902551	48	C	12/07/2021	08:00	-133.626	49.641	0	109.20	0	5.9710	0	32.7930	0	25.814	0	108.239	0	228.6	4	74.8	4	-1E+10	1	-1E+10	1	-1E+10	1	-1E+10	1	-1E+10	1	-1E+10	1
4902551	48	C	12/07/2021	08:00	-133.626	49.641	0	110.00	0	5.9820	0	32.8320	0	25.843	0	109.031	0	227.4	4	74.5	4	-1E+10	1	-1E+10	1	-1E+10	1	-1E+10	1	-1E+10	1	-1E+10	1
4902551	48	C	12/07/2021	08:00	-133.626	49.641	0	111.00	0	5.9900	0	32.8630	0	25.867	0	110.022	0	225.8	4	74.0	4	-1E+10	1	-1E+10	1	-1E+10	1	-1E+10	1	-1E+10	1	-1E+10	1
4902551	48	C	12/07/2021	08:00	-133.626	49.641	0	112.10	0	5.9870	0	32.8690	0	25.872	0	111.112	0	224.5	4	73.6	4	-1E+10	1	-1E+10	1	-1E+10	1	-1E+10	1	-1E+10	1	-1E+10	1
4902551	48	C	12/07/2021	08:00	-133.626	49.641	0	113.10	0	5.9870	0	32.8730	0	25.875	0	112.103	0	222.6	4	73.0	4	-1E+10	1	-1E+10	1	-1E+10	1	-1E+10	1	-1E+10	1	-1E+10	1
4902551	48	C	12/07/2021	08:00	-133.626	49.641	0	113.90	0	5.9880	0	32.8750	0	25.876	0	112.896	0	221.0	4	72.4	4	-1E+10	1	-1E+10	1	-1E+10	1	-1E+10	1	-1E+10	1	-1E+10	1
4902551	48	C	12/07/2021	08:00	-133.626	49.641	0	114.70	0	5.9880	0	32.8780	0	25.879	0	113.689	0	219.1	4	71.8	4	-1E+10	1	-1E+10	1	-1E+10	1	-1E+10	1	-1E+10	1	-1E+10	1
4902551	48	C	12/07/2021	08:00	-133.626	49.641	0	115.90	0	5.9900	0	32.8820	0	25.882	0	114.878	0	215.9	4	70.8	4	-1E+10	1	-1E+10	1	-1E+10	1	-1E+10	1	-1E+10	1	-1E+10	1
4902551	48	C	12/07/2021	08:00	-133.626	49.641	0	117.10	0	5.9920	0	32.8870	0	25.886	0	116.067	0	211.6	4	69.4	4	-1E+10	1	-1E+10	1	-1E+10	1	-1E+10	1	-1E+10	1	-1E+10	1
4902551	48	C	12/07/2021	08:00	-133.626	49.641	0	117.90	0	5.9930	0	32.8910	0	25.889	0	116.860	0	206.6	4	67.7	4	-1E+10	1	-1E+10	1	-1E+10	1	-1E+10	1	-1E+10	1	-1E+10	1
4902551	48	C	12/07/2021	08:00	-133.626	49.641	0	119.10	0	6.0070	0	32.9270	0	25.915	0	118.049	0	199.1	4	65.3	4	-1E+10	1	-1E+10	1	-1E+10	1	-1E+10	1	-1E+10	1	-1E+10	1
4902551	48	C	12/07/2021	08:00	-133.626	49.641	0	120.00	0	6.0240	0	32.9660	0	25.944	0	118.941	0	193.0	4	63.3	4	-1E+10	1	-1E+10	1	-1E+10	1	-1E+10	1	-1E+10	1	-1E+10	1
4902551	48	C	12/07/2021	08:00	-133.626	49.641	0	121.20	0	6.0570	0	33.0370	0	25.996	0	120.130	0	185.9	4	61.1	4	-1E+10	1	-1E+10	1	-1E+10	1	-1E+10	1	-1E+10	1	-1E+10	1
4902551	48	C	12/07/2021	08:00	-133.626	49.641	0	121.80	0	6.0770	0	33.0820	0	26.029	0	120.724	0	182.7	4	60.1	4	-1E+10	1	-1E+10	1	-1E+10	1	-1E+10	1	-1E+10	1	-1E+10	1
4902551	48	C	12/07/2021	08:00	-133.626	49.641	0	122.70	0	6.0940	0	33.1350	0	26.069	0	121.616	0	178.8	4	58.9	4	-1E+10	1	-1E+10	1	-1E+10	1	-1E+10	1	-1E+10	1	-1E+10	1
4902551	48	C	12/07/2021	08:00	-133.626	49.641	0	123.80	0	6.1200	0	33.2120	0	26.126	0	122.706	0	176.0	4	58.0	4	-1E+10	1	-1E+10	1	-1E+10	1	-1E+10	1	-1E+10	1	-1E+10	1
4902551	48	C	12/07/2021	08:00	-133.626	49.641	0	124.90	0	6.1270	0	33.2350	0	26.144	0	123.796	0	174.0	4	57.4	4	-1E+10	1	-1E+10	1	-1E+10	1	-1E+10	1	-1E+10	1	-1E+10	1
4902551	48	C	12/07/2021	08:00	-133.626	49.641	0	126.00	0	6.1340	0	33.2660	0	26.167	0	124.886	0	171.8	4	56.7	4	-1E+10	1	-1E+10	1	-1E+10	1	-1E+10	1	-1E+10	1	-1E+10	1
4902551	48	C	12/07/2021	08:00	-133.626	49.641	0	126.90	0	6.1370	0	33.2800	0	26.178	0	125.778	0	170.1	4	56.1	4	-1E+10	1	-1E+10	1	-1E+10	1	-1E+10	1	-1E+10	1	-1E+10	1
4902551	48	C	12/07/2021	08:00	-133.626	49.641	0	127.80	0	6.1390	0	33.3100	0	26.201	0	126.669	0	168.6	4	55.6	4	-1E+10	1	-1E+10	1	-1E+10	1	-1E+10	1	-1E+10	1	-1E+10	1
4902551	48	C	12/07/2021	08:00	-133.626	49.641	0	128.80	0	6.1380	0	33.3420	0	26.227	0	127.660	0	167.6	4	55.3	4	-1E+10	1	-1E+10	1	-1E+10	1	-1E+10	1	-1E+10	1	-1E+10	1
4902551	48	C	12/07/2021	08:00	-133.626	49.641	0	129.80	0	6.1360	0	33.3530	0	26.236	0	128.651	0	166.6	4	55.0	4	-1E+10	1	-1E+10	1	-1E+10	1	-1E+10	1	-1E+10	1	-1E+10	1
4902551	48	C	12/07/2021	08:00	-133.626	49.641	0	131.10	0	6.1350	0	33.3670	0	26.247	0	129.939	0	165.1	4	54.5	4	-1E+10	1	-1E+10	1	-1E+10	1	-1E+10	1	-1E+10	1	-1E+10	1
4902551	48	C	12/07/2021	08:00	-133.626	49.641	0	132.10	0	6.1350	0	33.3740	0	26.253	0	130.930	0	164.0	4	54.1	4	-1E+10	1	-1E+10	1	-1E+10	1	-1E+10	1	-1E+10	1	-1E+10	1
4902551	48	C	12/07/2021	08:00	-133.626	49.641	0	133.00	0	6.1340	0	33.3870	0	26.263	0	131.822	0	163.0	4	53.8	4	-1E+10	1	-1E+10	1	-1E+10	1	-1E+10	1	-1E+10	1	-1E+10	1
4902551	48	C	12/07/2021	08:00	-133.626	49.641	0	133.90	0	6.1330	0	33.3920	0	26.267	0	132.713	0	162.0	4	53.5	4	-1E+10	1	-1E+10	1	-1E+10	1	-1E+10	1	-1E+10	1	-1E+10	1
4902551	48	C	12/07/2021	08:00	-133.626	49.641	0	134.80	0	6.1330	0	33.4000	0	26.273	0	133.605	0	160.7	4	53.0	4	-1E+10	1	-1E+10	1	-1E+10	1	-1E+10	1	-1E+10	1	-1E+10	1
4902551	48	C	12/07/2021	08:00	-133.626	49.641	0	136.10	0	6.1360	0	33.4110	0	26.282	0	134.893	0	158.8	4	52.4	4	-1E+10	1	-1E+10	1	-1E+10	1	-1E+10	1	-1E+10	1	-1E+10	1
4902551	48	C	12/07/2021	08:00	-133.626	49.641	0	137.00	0	6.1400	0	33.4130	0	26.283	0	135.785	0	157.1	4	51.9	4	-1E+10	1	-1E+10	1	-1E+10	1	-1E+10	1	-1E+10	1	-1E+10	1
4902551	48	C	12/07/2021	08:00	-133.626	49.641	0	138.00	0	6.1480	0	33.4270	0	26.293	0	136.776	0	155.5	4	51.4	4	-1E+10	1	-1E+10	1	-1E+10	1	-1E+10	1	-1E+10	1	-1E+10	1
4902551	48	C	12/07/2021	08:00	-133.626	49.641	0	139.00	0	6.1470	0	33.4320	0	26.297	0	137.766	0	153.7	4	50.8	4	-1E+10	1	-1E+10	1	-1E+10	1	-1E+10	1	-1E+10	1	-1E+10	1
4902551	48	C	12/07/2021	08:00	-133.626	49.641	0	139.90	0	6.1440	0	33.4690	0	26.327	0	138.658	0	152.0	4	50.2	4	-1E+10	1	-1E+10	1	-1E+10	1	-1E+10	1	-1E+10	1	-1E+10	1
4902551	48	C	12/07/2021	08:00	-133.626	49.641	0	141.10	0	6.1380	0	33.4940	0	26.347	0	139.847	0	150.8	4	49.8	4	-1E+10	1	-1E+10	1	-1E+10	1	-1E+10	1	-1E+10	1	-1E+10	1
4902551	48	C	12/07/2021	08:00	-133.626	49.641	0	141.80	0	6.1350	0	33.5000	0	26.352	0	140.541	0	150.0	4	49.6	4	-1E+10	1	-1E+10	1	-1E+10	1	-1E+10	1	-1E+10	1	-1E+10	1
4902551	48	C	12/07/2021	08:00	-133.626	49.641	0	142.80	0	6.1200	0	33.5150	0	26.366	0	141.531	0	148.8	4	49.2	4	-1E+10	1	-1E+10	1	-1E+10	1	-1E+10	1	-1E+10	1	-1E+10	1
4902551	48	C	12/07/2021	08:00	-133.626	49.641	0	144.00	0	6.1090	0	33.5240	0	26.374	0	142.720	0	147.5	4	48.7	4	-1E+10	1	-1E+10	1	-1E+10	1	-1E+10	1	-1E+10	1	-1E+10	1
4902551	48	C	12/07/2021	08:00	-133.626	49.641	0	145.00	0	6.0950	0	33.5500	0	26.397	0	143.711	0	146.4	4	48.4	4	-1E+10	1	-1E+10	1	-1E+10	1	-1E+10	1	-1E+10	1	-1E+10	1
4902551	48	C	12/07/2021	08:00	-133.626	49.641	0	146.20	0	6.0970	0	33.5540	0	26.400	0	144.900	0	145.5	4	48.0	4	-1E+10	1	-1E+10	1	-1E+10	1	-1E+10	1	-1E+10	1	-1E+10	1
4902551	48	C	12/07/2021	08:00	-133.626	49.641	0	147.00	0	6.0980	0	33.5650	0	26.408	0	145.693	0	144.8	4	47.8	4	-1E+10	1	-1E+10	1	-1E+10	1	-1E+10	1	-1E+10	1	-1E+10	1
4902551	48	C	12/07/2021	08:00	-133.626	49.641	0	147.80	0	6.0870	0	33.5830	0	26.424	0	146.485	0	144.3	4	47.6	4	-1E+10	1	-1E+10	1	-1E+10	1	-1E+10	1	-1E+10	1	-1E+10	1
4902551	48	C	12/07/2021	08:00	-133.626	49.641	0	148.60	0	6.0750	0	33.5960	0	26.436	0	147.278	0	143.8	4	47.5	4	-1E+10	1	-1E+10	1	-1E+10	1	-1E+10	1	-1E+10	1	-1E+10	1
4902551	48	C	12/07/2021	08:00	-133.626	49.641	0	149.90	0	6.0400	0	33.6110	0	26.452	0	148.566	0	143.2	4	47.2	4	-1E+10	1	-1E+10	1	-1E+10	1	-1E+10	1	-1E+10	1	-1E+10	1
4902551	48	C	12/07/2021	08:00	-133.626	49.641	0	151.10	0	6.0010	0	33.6190	0	26.463	0	149.755	0	142.5	4	47.0	4	-1E+10	1	-1E+10	1	-1E+10	1	-1E+10	1	-1E+10	1	-1E+10	1
4902551	48	C	12/07/2021	08:00	-133.626	49.641	0	152.00	0	6.0180	0	33.6220	0	26.463	0	150.646	0	142.0	4	46.8	4	-1E+10	1	-1E+10	1	-1E+10	1	-1E+10	1	-1E+10	1	-1E+10	1
4902551	48	C	12/07/2021	08:00	-133.626	49.641	0	152.80	0	6.0150	0	33.6240	0	26.465	0	151.439	0	141.6	4	46.7	4	-1E+10	1	-1E+10	1	-1E+10	1	-1E+10	1	-1E+10	1	-1E+10	1
4902551	48	C	12/07/2021	08:00	-133.626	49.641	0	154.00	0	5.9980	0	33.6270	0	26.470	0	152.628	0	140.9	4	46.4	4	-1E+10	1	-1E+10	1	-1E+10	1	-1E+10	1	-1E+10	1	-1E+10	1
4902551	48	C	12/07/2021	08:00	-133.626	49.641	0	155.20	0	5.9990	0	33.6310	0	26.473	0	153.817	0	140.1	4	46.2	4	-1E+10	1	-1E+10	1	-1E+10	1	-1E+10	1	-1E+10	1	-1E+10	1
4902551	48	C	12/07/2021	08:00	-133.626	49.641	0	156.10	0	6.0020	0	33.6340	0	26.475	0	154.708	0	139.6	4	46.0	4	-1E+10	1	-1E+10	1	-1E+10	1	-1E+10	1	-1E+10	1	-1E+10	1
4902551	48	C	12/07/2021	08:00	-133.626	49.641	0	156.90	0	6.0030	0	33.6370	0	26.477	0	155.501	0	139.0	4	45.8	4	-1E+10	1	-1E+10	1	-1E+10	1	-1E+10	1	-1E+10	1	-1E+10	1
4902551	48	C	12/07/2021	08:00	-133.626	49.641	0	157.70	0	6.0030	0	33.6390	0	26.479	0	156.293	0	138.4	4	45.6	4	-1E+10	1	-1E+10	1	-1E+10	1	-1E+10	1	-1E+10	1	-1E+10	1
4902551	48	C	12/07/2021	08:00	-133.626	49.641	0	158.90	0	6.0040	0	33.6390	0	26.479	0	157.482	0	137.3	4	45.3	4	-1E+10	1	-1E+10	1	-1E+10	1	-1E+10	1	-1E+10	1	-1E+10	1
4902551	48	C	12/07/2021	08:00	-133.626	49.641	0	160.10	0	6.0040	0	33.6410	0	26.480	0	158.671	0	136.1	4	44.9	4	-1E+10	1	-1E+10	1	-1E+10	1	-1E+10	1	-1E+10	1	-1E+10	1
4902551	48	C	12/07/2021	08:00	-133.626	49.641	0	160.90	0	6.0020	0	33.6450	0	26.484	0	159.464	0	135.3	4	44.6	4	-1E+10	1	-1E+10	1	-1E+10	1	-1E+10	1	-1E+10	1	-1E+10	1
4902551	48	C	12/07/2021	08:00	-133.626	49.641	0	161.70	0	5.9990	0	33.6500	0	26.488	0	160.256	0	134.5	4	44.4	4	-1E+10	1	-1E+10	1	-1E+10	1	-1E+10	1	-1E+10	1	-1E+10	1
4902551	48	C	12/07/2021	08:00	-133.626	49.641	0	162.90	0	5.9800	0	33.6640	0	26.501	0	161.445	0	133.4	4	44.0	4	-1E+10	1	-1E+10	1	-1E+10	1	-1E+10	1	-1E+10	1	-1E+10	1
4902551	48	C	12/07/2021	08:00	-133.626	49.641	0	164.20	0	5.9630	0	33.6790	0	26.515	0	162.733	0	132.2	4	43.6	4	-1E+10	1	-1E+10	1	-1E+10	1	-1E+10	1	-1E+10	1	-1E+10	1
4902551	48	C	12/07/2021	08:00	-133.626	49.641	0	165.00	0	5.9590	0	33.6820	0	26.518	0	163.525	0	131.4	4	43.3	4	-1E+10	1	-1E+10	1	-1E+10	1	-1E+10	1	-1E+10	1	-1E+10	1
4902551	48	C	12/07/2021	08:00	-133.626	49.641	0	165.80	0	5.9570	0	33.6820	0	26.518	0	164.318	0	130.7	4	43.1	4	-1E+10	1	-1E+10	1	-1E+10	1	-1E+10	1	-1E+10	1	-1E+10	1
4902551	48	C	12/07/2021	08:00	-133.626	49.641	0	167.00	0	5.9530	0	33.6850	0	26.521	0	165.507	0	129.4	4	42.6	4	-1E+10	1	-1E+10	1	-1E+10	1	-1E+10	1	-1E+10	1	-1E+10	1
4902551	48	C	12/07/2021	08:00	-133.626	49.641	0	168.20	0	5.9460	0	33.6890	0	26.525	0	166.696	0	128.2	4	42.2	4	-1E+10	1	-1E+10	1	-1E+10	1	-1E+10	1	-1E+10	1	-1E+10	1
4902551	48	C	12/07/2021	08:00	-133.626	49.641	0	169.00	0	5.9380	0	33.6950	0	26.531	0	167.488	0	127.2	4	41.9	4	-1E+10	1	-1E+10	1	-1E+10	1	-1E+10	1	-1E+10	1	-1E+10	1
4902551	48	C	12/07/2021	08:00	-133.626	49.641	0	169.90	0	5.9310	0	33.6990	0	26.535	0	168.380	0	126.3	4	41.6	4	-1E+10	1	-1E+10	1	-1E+10	1	-1E+10	1	-1E+10	1	-1E+10	1
4902551	48	C	12/07/2021	08:00	-133.626	49.641	0	170.70	0	5.9180	0	33.7070	0	26.543	0	169.172	0	125.4	4	41.3	4	-1E+10	1	-1E+10	1	-1E+10	1	-1E+10	1	-1E+10	1	-1E+10	1
4902551	48	C	12/07/2021	08:00	-133.626	49.641	0	172.00	0	5.8960	0	33.7150	0	26.552	0	170.460	0	124.0	4	40.8	4	-1E+10	1	-1E+10	1	-1E+10	1	-1E+10	1	-1E+10	1	-1E+10	1
4902551	48	C	12/07/2021	08:00	-133.626	49.641	0	173.30	0	5.8910	0	33.7180	0	26.555	0	171.748	0	122.3	4	40.2	4	-1E+10	1	-1E+10	1	-1E+10	1	-1E+10	1	-1E+10	1	-1E+10	1
4902551	48	C	12/07/2021	08:00	-133.626	49.641	0	174.20	0	5.8890	0	33.7190	0	26.556	0	172.639	0	121.1	4	39.9	4	-1E+10	1	-1E+10	1	-1E+10	1	-1E+10	1	-1E+10	1	-1E+10	1
4902551	48	C	12/07/2021	08:00	-133.626	49.641	0	175.00	0	5.8680	0	33.7360	0	26.572	0	173.432	0	120.3	4	39.6	4	-1E+10	1	-1E+10	1	-1E+10	1	-1E+10	1	-1E+10	1	-1E+10	1
4902551	48	C	12/07/2021	08:00	-133.626	49.641	0	175.90	0	5.8420	0	33.7460	0	26.583	0	174.323	0	120.0	4	39.5	4	-1E+10	1	-1E+10	1	-1E+10	1	-1E+10	1	-1E+10	1	-1E+10	1
4902551	48	C	12/07/2021	08:00	-133.626	49.641	0	176.80	0	5.8330	0	33.7500	0	26.588	0	175.215	0	119.6	4	39.3	4	-1E+10	1	-1E+10	1	-1E+10	1	-1E+10	1	-1E+10	1	-1E+10	1
4902551	48	C	12/07/2021	08:00	-133.626	49.641	0	177.60	0	5.8210	0	33.7520	0	26.591	0	176.008	0	119.2	4	39.2	4	-1E+10	1	-1E+10	1	-1E+10	1	-1E+10	1	-1E+10	1	-1E+10	1
4902551	48	C	12/07/2021	08:00	-133.626	49.641	0	178.90	0	5.7880	0	33.7590	0	26.600	0	177.295	0	118.6	4	38.9	4	-1E+10	1	-1E+10	1	-1E+10	1	-1E+10	1	-1E+10	1	-1E+10	1
4902551	48	C	12/07/2021	08:00	-133.626	49.641	0	180.30	0	5.7830	0	33.7610	0	26.602	0	178.682	0	117.8	4	38.7	4	-1E+10	1	-1E+10	1	-1E+10	1	-1E+10	1	-1E+10	1	-1E+10	1
4902551	48	C	12/07/2021	08:00	-133.626	49.641	0	181.20	0	5.7770	0	33.7610	0	26.603	0	179.574	0	117.3	4	38.5	4	-1E+10	1	-1E+10	1	-1E+10	1	-1E+10	1	-1E+10	1	-1E+10	1
4902551	48	C	12/07/2021	08:00	-133.626	49.641	0	182.10	0	5.7570	0	33.7650	0	26.609	0	180.465	0	116.7	4	38.3	4	-1E+10	1	-1E+10	1	-1E+10	1	-1E+10	1	-1E+10	1	-1E+10	1
4902551	48	C	12/07/2021	08:00	-133.626	49.641	0	183.00	0	5.7460	0	33.7670	0	26.612	0	181.357	0	116.2	4	38.1	4	-1E+10	1	-1E+10	1	-1E+10	1	-1E+10	1	-1E+10	1	-1E+10	1
4902551	48	C	12/07/2021	08:00	-133.626	49.641	0	183.90	0	5.7370	0	33.7700	0	26.615	0	182.248	0	115.8	4	38.0	4	-1E+10	1	-1E+10	1	-1E+10	1	-1E+10	1	-1E+10	1	-1E+10	1
4902551	48	C	12/07/2021	08:00	-133.626	49.641	0	184.80	0	5.7210	0	33.7720	0	26.619	0	183.140	0	115.4	4	37.8	4	-1E+10	1	-1E+10	1	-1E+10	1	-1E+10	1	-1E+10	1	-1E+10	1
4902551	48	C	12/07/2021	08:00	-133.626	49.641	0	185.70	0	5.7210	0	33.7720	0	26.619	0	184.031	0	114.9	4	37.7	4	-1E+10	1	-1E+10	1	-1E+10	1	-1E+10	1	-1E+10	1	-1E+10	1
4902551	48	C	12/07/2021	08:00	-133.626	49.641	0	186.90	0	5.7180	0	33.7720	0	26.619	0	185.220	0	114.1	4	37.4	4	-1E+10	1	-1E+10	1	-1E+10	1	-1E+10	1	-1E+10	1	-1E+10	1
4902551	48	C	12/07/2021	08:00	-133.626	49.641	0	188.30	0	5.7140	0	33.7710	0	26.619	0	186.607	0	113.1	4	37.1	4	-1E+10	1	-1E+10	1	-1E+10	1	-1E+10	1	-1E+10	1	-1E+10	1
4902551	48	C	12/07/2021	08:00	-133.626	49.641	0	189.10	0	5.7080	0	33.7730	0	26.621	0	187.399	0	112.5	4	36.9	4	-1E+10	1	-1E+10	1	-1E+10	1	-1E+10	1	-1E+10	1	-1E+10	1
4902551	48	C	12/07/2021	08:00	-133.626	49.641	0	190.00	0	5.7050	0	33.7730	0	26.622	0	188.291	0	111.8	4	36.6	4	-1E+10	1	-1E+10	1	-1E+10	1	-1E+10	1	-1E+10	1	-1E+10	1
4902551	48	C	12/07/2021	08:00	-133.626	49.641	0	190.80	0	5.7020	0	33.7730	0	26.622	0	189.083	0	111.0	4	36.4	4	-1E+10	1	-1E+10	1	-1E+10	1	-1E+10	1	-1E+10	1	-1E+10	1
4902551	48	C	12/07/2021	08:00	-133.626	49.641	0	191.70	0	5.6760	0	33.7800	0	26.631	0	189.975	0	110.3	4	36.1	4	-1E+10	1	-1E+10	1	-1E+10	1	-1E+10	1	-1E+10	1	-1E+10	1
4902551	48	C	12/07/2021	08:00	-133.626	49.641	0	192.60	0	5.6310	0	33.7840	0	26.639	0	190.866	0	109.8	4	35.9	4	-1E+10	1	-1E+10	1	-1E+10	1	-1E+10	1	-1E+10	1	-1E+10	1
4902551	48	C	12/07/2021	08:00	-133.626	49.641	0	193.90	0	5.6020	0	33.7880	0	26.646	0	192.154	0	109.1	4	35.7	4	-1E+10	1	-1E+10	1	-1E+10	1	-1E+10	1	-1E+10	1	-1E+10	1
4902551	48	C	12/07/2021	08:00	-133.626	49.641	0	195.20	0	5.5790	0	33.7910	0	26.651	0	193.441	0	108.4	4	35.4	4	-1E+10	1	-1E+10	1	-1E+10	1	-1E+10	1	-1E+10	1	-1E+10	1
4902551	48	C	12/07/2021	08:00	-133.626	49.641	0	196.10	0	5.5660	0	33.7930	0	26.654	0	194.333	0	107.9	4	35.3	4	-1E+10	1	-1E+10	1	-1E+10	1	-1E+10	1	-1E+10	1	-1E+10	1
4902551	48	C	12/07/2021	08:00	-133.626	49.641	0	197.00	0	5.5580	0	33.7920	0	26.654	0	195.224	0	107.5	4	35.1	4	-1E+10	1	-1E+10	1	-1E+10	1	-1E+10	1	-1E+10	1	-1E+10	1
4902551	48	C	12/07/2021	08:00	-133.626	49.641	0	197.90	0	5.5120	0	33.7980	0	26.665	0	196.116	0	107.2	4	35.0	4	-1E+10	1	-1E+10	1	-1E+10	1	-1E+10	1	-1E+10	1	-1E+10	1
4902551	48	C	12/07/2021	08:00	-133.626	49.641	0	198.80	0	5.5070	0	33.7970	0	26.664	0	197.007	0	106.8	4	34.9	4	-1E+10	1	-1E+10	1	-1E+10	1	-1E+10	1	-1E+10	1	-1E+10	1
4902551	48	C	12/07/2021	08:00	-133.626	49.641	0	199.70	0	5.5040	0	33.7990	0	26.666	0	197.899	0	106.5	4	34.7	4	-1E+10	1	-1E+10	1	-1E+10	1	-1E+10	1	-1E+10	1	-1E+10	1
4902551	48	C	12/07/2021	08:00	-133.626	49.641	0	200.60	0	5.4860	0	33.7990	0	26.669	0	198.790	0	106.1	4	34.6	4	-1E+10	1	-1E+10	1	-1E+10	1	-1E+10	1	-1E+10	1	-1E+10	1
4902551	48	C	12/07/2021	08:00	-133.626	49.641	0	201.90	0	5.4650	0	33.7990	0	26.671	0	200.078	0	105.6	4	34.4	4	-1E+10	1	-1E+10	1	-1E+10	1	-1E+10	1	-1E+10	1	-1E+10	1
4902551	48	C	12/07/2021	08:00	-133.626	49.641	0	203.30	0	5.4440	0	33.8010	0	26.675	0	201.465	0	105.1	4	34.3	4	-1E+10	1	-1E+10	1	-1E+10	1	-1E+10	1	-1E+10	1	-1E+10	1
4902551	48	C	12/07/2021	08:00	-133.626	49.641	0	204.30	0	5.4310	0	33.8020	0	26.677	0	202.455	0	104.8	4	34.1	4	-1E+10	1	-1E+10	1	-1E+10	1	-1E+10	1	-1E+10	1	-1E+10	1
4902551	48	C	12/07/2021	08:00	-133.626	49.641	0	205.20	0	5.4220	0	33.8020	0	26.679	0	203.346	0	104.4	4	34.0	4	-1E+10	1	-1E+10	1	-1E+10	1	-1E+10	1	-1E+10	1	-1E+10	1
4902551	48	C	12/07/2021	08:00	-133.626	49.641	0	206.10	0	5.4210	0	33.8020	0	26.679	0	204.238	0	104.0	4	33.9	4	-1E+10	1	-1E+10	1	-1E+10	1	-1E+10	1	-1E+10	1	-1E+10	1
4902551	48	C	12/07/2021	08:00	-133.626	49.641	0	207.00	0	5.4060	0	33.8030	0	26.681	0	205.129	0	103.6	4	33.7	4	-1E+10	1	-1E+10	1	-1E+10	1	-1E+10	1	-1E+10	1	-1E+10	1
4902551	48	C	12/07/2021	08:00	-133.626	49.641	0	208.00	0	5.3780	0	33.8100	0	26.690	0	206.120	0	103.3	4	33.6	4	-1E+10	1	-1E+10	1	-1E+10	1	-1E+10	1	-1E+10	1	-1E+10	1
4902551	48	C	12/07/2021	08:00	-133.626	49.641	0	208.90	0	5.3620	0	33.8080	0	26.690	0	207.011	0	102.9	4	33.5	4	-1E+10	1	-1E+10	1	-1E+10	1	-1E+10	1	-1E+10	1	-1E+10	1
4902551	48	C	12/07/2021	08:00	-133.626	49.641	0	209.90	0	5.3610	0	33.8050	0	26.688	0	208.002	0	102.6	4	33.4	4	-1E+10	1	-1E+10	1	-1E+10	1	-1E+10	1	-1E+10	1	-1E+10	1
4902551	48	C	12/07/2021	08:00	-133.626	49.641	0	210.80	0	5.3460	0	33.8050	0	26.690	0	208.893	0	102.1	4	33.2	4	-1E+10	1	-1E+10	1	-1E+10	1	-1E+10	1	-1E+10	1	-1E+10	1
4902551	48	C	12/07/2021	08:00	-133.626	49.641	0	211.80	0	5.3270	0	33.8070	0	26.694	0	209.884	0	101.7	4	33.1	4	-1E+10	1	-1E+10	1	-1E+10	1	-1E+10	1	-1E+10	1	-1E+10	1
4902551	48	C	12/07/2021	08:00	-133.626	49.641	0	212.80	0	5.3190	0	33.8080	0	26.695	0	210.874	0	101.3	4	32.9	4	-1E+10	1	-1E+10	1	-1E+10	1	-1E+10	1	-1E+10	1	-1E+10	1
4902551	48	C	12/07/2021	08:00	-133.626	49.641	0	213.70	0	5.3120	0	33.8070	0	26.696	0	211.765	0	100.9	4	32.8	4	-1E+10	1	-1E+10	1	-1E+10	1	-1E+10	1	-1E+10	1	-1E+10	1
4902551	48	C	12/07/2021	08:00	-133.626	49.641	0	214.70	0	5.2980	0	33.8100	0	26.700	0	212.756	0	100.5	4	32.6	4	-1E+10	1	-1E+10	1	-1E+10	1	-1E+10	1	-1E+10	1	-1E+10	1
4902551	48	C	12/07/2021	08:00	-133.626	49.641	0	215.60	0	5.2920	0	33.8080	0	26.699	0	213.647	0	100.0	4	32.5	4	-1E+10	1	-1E+10	1	-1E+10	1	-1E+10	1	-1E+10	1	-1E+10	1
4902551	48	C	12/07/2021	08:00	-133.626	49.641	0	216.60	0	5.2470	0	33.8150	0	26.709	0	214.638	0	99.6	4	32.3	4	-1E+10	1	-1E+10	1	-1E+10	1	-1E+10	1	-1E+10	1	-1E+10	1
4902551	48	C	12/07/2021	08:00	-133.626	49.641	0	217.60	0	5.2320	0	33.8130	0	26.710	0	215.628	0	99.2	4	32.2	4	-1E+10	1	-1E+10	1	-1E+10	1	-1E+10	1	-1E+10	1	-1E+10	1
4902551	48	C	12/07/2021	08:00	-133.626	49.641	0	218.50	0	5.2300	0	33.8140	0	26.711	0	216.519	0	98.9	4	32.1	4	-1E+10	1	-1E+10	1	-1E+10	1	-1E+10	1	-1E+10	1	-1E+10	1
4902551	48	C	12/07/2021	08:00	-133.626	49.641	0	219.50	0	5.2260	0	33.8130	0	26.710	0	217.510	0	98.5	4	31.9	4	-1E+10	1	-1E+10	1	-1E+10	1	-1E+10	1	-1E+10	1	-1E+10	1
4902551	48	C	12/07/2021	08:00	-133.626	49.641	0	220.90	0	5.2060	0	33.8160	0	26.715	0	218.896	0	97.9	4	31.7	4	-1E+10	1	-1E+10	1	-1E+10	1	-1E+10	1	-1E+10	1	-1E+10	1
4902551	48	C	12/07/2021	08:00	-133.626	49.641	0	222.40	0	5.1630	0	33.8200	0	26.723	0	220.382	0	97.5	4	31.6	4	-1E+10	1	-1E+10	1	-1E+10	1	-1E+10	1	-1E+10	1	-1E+10	1
4902551	48	C	12/07/2021	08:00	-133.626	49.641	0	223.40	0	5.1610	0	33.8200	0	26.723	0	221.372	0	97.2	4	31.5	4	-1E+10	1	-1E+10	1	-1E+10	1	-1E+10	1	-1E+10	1	-1E+10	1
4902551	48	C	12/07/2021	08:00	-133.626	49.641	0	224.40	0	5.1560	0	33.8190	0	26.723	0	222.363	0	96.9	4	31.4	4	-1E+10	1	-1E+10	1	-1E+10	1	-1E+10	1	-1E+10	1	-1E+10	1
4902551	48	C	12/07/2021	08:00	-133.626	49.641	0	225.40	0	5.1450	0	33.8220	0	26.727	0	223.353	0	96.7	4	31.3	4	-1E+10	1	-1E+10	1	-1E+10	1	-1E+10	1	-1E+10	1	-1E+10	1
4902551	48	C	12/07/2021	08:00	-133.626	49.641	0	226.40	0	5.1420	0	33.8200	0	26.726	0	224.343	0	96.4	4	31.2	4	-1E+10	1	-1E+10	1	-1E+10	1	-1E+10	1	-1E+10	1	-1E+10	1
4902551	48	C	12/07/2021	08:00	-133.626	49.641	0	227.40	0	5.1350	0	33.8210	0	26.727	0	225.334	0	96.1	4	31.1	4	-1E+10	1	-1E+10	1	-1E+10	1	-1E+10	1	-1E+10	1	-1E+10	1
4902551	48	C	12/07/2021	08:00	-133.626	49.641	0	228.40	0	5.1290	0	33.8210	0	26.728	0	226.324	0	95.9	4	31.0	4	-1E+10	1	-1E+10	1	-1E+10	1	-1E+10	1	-1E+10	1	-1E+10	1
4902551	48	C	12/07/2021	08:00	-133.626	49.641	0	229.40	0	5.1250	0	33.8220	0	26.729	0	227.315	0	95.5	4	30.9	4	-1E+10	1	-1E+10	1	-1E+10	1	-1E+10	1	-1E+10	1	-1E+10	1
4902551	48	C	12/07/2021	08:00	-133.626	49.641	0	230.40	0	5.1220	0	33.8220	0	26.730	0	228.305	0	95.2	4	30.8	4	-1E+10	1	-1E+10	1	-1E+10	1	-1E+10	1	-1E+10	1	-1E+10	1
4902551	48	C	12/07/2021	08:00	-133.626	49.641	0	231.40	0	5.1190	0	33.8220	0	26.730	0	229.295	0	94.8	4	30.7	4	-1E+10	1	-1E+10	1	-1E+10	1	-1E+10	1	-1E+10	1	-1E+10	1
4902551	48	C	12/07/2021	08:00	-133.626	49.641	0	232.40	0	5.1120	0	33.8230	0	26.732	0	230.286	0	94.4	4	30.5	4	-1E+10	1	-1E+10	1	-1E+10	1	-1E+10	1	-1E+10	1	-1E+10	1
4902551	48	C	12/07/2021	08:00	-133.626	49.641	0	233.40	0	5.1060	0	33.8230	0	26.732	0	231.276	0	94.1	4	30.4	4	-1E+10	1	-1E+10	1	-1E+10	1	-1E+10	1	-1E+10	1	-1E+10	1
4902551	48	C	12/07/2021	08:00	-133.626	49.641	0	234.40	0	5.0960	0	33.8250	0	26.735	0	232.266	0	93.7	4	30.3	4	-1E+10	1	-1E+10	1	-1E+10	1	-1E+10	1	-1E+10	1	-1E+10	1
4902551	48	C	12/07/2021	08:00	-133.626	49.641	0	235.40	0	5.0900	0	33.8250	0	26.736	0	233.257	0	93.3	4	30.1	4	-1E+10	1	-1E+10	1	-1E+10	1	-1E+10	1	-1E+10	1	-1E+10	1
4902551	48	C	12/07/2021	08:00	-133.626	49.641	0	236.40	0	5.0890	0	33.8250	0	26.736	0	234.247	0	92.9	4	30.0	4	-1E+10	1	-1E+10	1	-1E+10	1	-1E+10	1	-1E+10	1	-1E+10	1
4902551	48	C	12/07/2021	08:00	-133.626	49.641	0	237.50	0	5.0850	0	33.8260	0	26.737	0	235.336	0	92.4	4	29.9	4	-1E+10	1	-1E+10	1	-1E+10	1	-1E+10	1	-1E+10	1	-1E+10	1
4902551	48	C	12/07/2021	08:00	-133.626	49.641	0	238.50	0	5.0760	0	33.8260	0	26.738	0	236.327	0	91.9	4	29.7	4	-1E+10	1	-1E+10	1	-1E+10	1	-1E+10	1	-1E+10	1	-1E+10	1
4902551	48	C	12/07/2021	08:00	-133.626	49.641	0	239.50	0	5.0650	0	33.8280	0	26.741	0	237.317	0	91.4	4	29.5	4	-1E+10	1	-1E+10	1	-1E+10	1	-1E+10	1	-1E+10	1	-1E+10	1
4902551	48	C	12/07/2021	08:00	-133.626	49.641	0	240.60	0	5.0600	0	33.8290	0	26.742	0	238.406	0	91.0	4	29.4	4	-1E+10	1	-1E+10	1	-1E+10	1	-1E+10	1	-1E+10	1	-1E+10	1
4902551	48	C	12/07/2021	08:00	-133.626	49.641	0	241.60	0	5.0490	0	33.8310	0	26.745	0	239.397	0	90.6	4	29.3	4	-1E+10	1	-1E+10	1	-1E+10	1	-1E+10	1	-1E+10	1	-1E+10	1
4902551	48	C	12/07/2021	08:00	-133.626	49.641	0	242.60	0	5.0440	0	33.8310	0	26.746	0	240.387	0	90.2	4	29.1	4	-1E+10	1	-1E+10	1	-1E+10	1	-1E+10	1	-1E+10	1	-1E+10	1
4902551	48	C	12/07/2021	08:00	-133.626	49.641	0	243.60	0	5.0360	0	33.8330	0	26.748	0	241.377	0	89.8	4	29.0	4	-1E+10	1	-1E+10	1	-1E+10	1	-1E+10	1	-1E+10	1	-1E+10	1
4902551	48	C	12/07/2021	08:00	-133.626	49.641	0	244.70	0	5.0330	0	33.8340	0	26.749	0	242.467	0	89.4	4	28.9	4	-1E+10	1	-1E+10	1	-1E+10	1	-1E+10	1	-1E+10	1	-1E+10	1
4902551	48	C	12/07/2021	08:00	-133.626	49.641	0	245.70	0	5.0300	0	33.8330	0	26.749	0	243.457	0	89.0	4	28.7	4	-1E+10	1	-1E+10	1	-1E+10	1	-1E+10	1	-1E+10	1	-1E+10	1
4902551	48	C	12/07/2021	08:00	-133.626	49.641	0	246.70	0	5.0230	0	33.8350	0	26.751	0	244.447	0	88.7	4	28.6	4	-1E+10	1	-1E+10	1	-1E+10	1	-1E+10	1	-1E+10	1	-1E+10	1
4902551	48	C	12/07/2021	08:00	-133.626	49.641	0	247.70	0	5.0160	0	33.8360	0	26.753	0	245.437	0	88.4	4	28.5	4	-1E+10	1	-1E+10	1	-1E+10	1	-1E+10	1	-1E+10	1	-1E+10	1
4902551	48	C	12/07/2021	08:00	-133.626	49.641	0	248.70	0	4.9980	0	33.8380	0	26.757	0	246.428	0	88.1	4	28.4	4	-1E+10	1	-1E+10	1	-1E+10	1	-1E+10	1	-1E+10	1	-1E+10	1
4902551	48	C	12/07/2021	08:00	-133.626	49.641	0	249.80	0	4.9840	0	33.8370	0	26.757	0	247.517	0	87.5	4	28.2	4	-1E+10	1	-1E+10	1	-1E+10	1	-1E+10	1	-1E+10	1	-1E+10	1
4902551	48	C	12/07/2021	08:00	-133.626	49.641	0	251.00	0	4.9850	0	33.8360	0	26.756	0	248.705	0	86.8	4	28.0	4	-1E+10	1	-1E+10	1	-1E+10	1	-1E+10	1	-1E+10	1	-1E+10	1
4902551	48	C	12/07/2021	08:00	-133.626	49.641	0	252.10	0	4.9830	0	33.8370	0	26.757	0	249.795	0	86.1	4	27.8	4	-1E+10	1	-1E+10	1	-1E+10	1	-1E+10	1	-1E+10	1	-1E+10	1
4902551	48	C	12/07/2021	08:00	-133.626	49.641	0	252.90	0	4.9830	0	33.8360	0	26.757	0	250.587	0	85.5	4	27.6	4	-1E+10	1	-1E+10	1	-1E+10	1	-1E+10	1	-1E+10	1	-1E+10	1
4902551	48	C	12/07/2021	08:00	-133.626	49.641	0	253.70	0	4.9760	0	33.8380	0	26.759	0	251.379	0	84.8	4	27.3	4	-1E+10	1	-1E+10	1	-1E+10	1	-1E+10	1	-1E+10	1	-1E+10	1
4902551	48	C	12/07/2021	08:00	-133.626	49.641	0	254.90	0	4.9680	0	33.8380	0	26.760	0	252.567	0	84.0	4	27.1	4	-1E+10	1	-1E+10	1	-1E+10	1	-1E+10	1	-1E+10	1	-1E+10	1
4902551	48	C	12/07/2021	08:00	-133.626	49.641	0	256.10	0	4.9610	0	33.8390	0	26.762	0	253.755	0	83.4	4	26.9	4	-1E+10	1	-1E+10	1	-1E+10	1	-1E+10	1	-1E+10	1	-1E+10	1
4902551	48	C	12/07/2021	08:00	-133.626	49.641	0	256.90	0	4.9590	0	33.8370	0	26.760	0	254.548	0	83.1	4	26.8	4	-1E+10	1	-1E+10	1	-1E+10	1	-1E+10	1	-1E+10	1	-1E+10	1
4902551	48	C	12/07/2021	08:00	-133.626	49.641	0	257.70	0	4.9510	0	33.8390	0	26.763	0	255.340	0	82.8	4	26.7	4	-1E+10	1	-1E+10	1	-1E+10	1	-1E+10	1	-1E+10	1	-1E+10	1
4902551	48	C	12/07/2021	08:00	-133.626	49.641	0	258.90	0	4.9400	0	33.8390	0	26.764	0	256.528	0	82.4	4	26.5	4	-1E+10	1	-1E+10	1	-1E+10	1	-1E+10	1	-1E+10	1	-1E+10	1
4902551	48	C	12/07/2021	08:00	-133.626	49.641	0	260.10	0	4.9340	0	33.8390	0	26.765	0	257.716	0	82.0	4	26.4	4	-1E+10	1	-1E+10	1	-1E+10	1	-1E+10	1	-1E+10	1	-1E+10	1
4902551	48	C	12/07/2021	08:00	-133.626	49.641	0	260.90	0	4.9240	0	33.8400	0	26.767	0	258.509	0	81.7	4	26.3	4	-1E+10	1	-1E+10	1	-1E+10	1	-1E+10	1	-1E+10	1	-1E+10	1
4902551	48	C	12/07/2021	08:00	-133.626	49.641	0	261.70	0	4.9130	0	33.8410	0	26.769	0	259.301	0	81.4	4	26.2	4	-1E+10	1	-1E+10	1	-1E+10	1	-1E+10	1	-1E+10	1	-1E+10	1
4902551	48	C	12/07/2021	08:00	-133.626	49.641	0	262.90	0	4.9050	0	33.8390	0	26.768	0	260.489	0	81.0	4	26.1	4	-1E+10	1	-1E+10	1	-1E+10	1	-1E+10	1	-1E+10	1	-1E+10	1
4902551	48	C	12/07/2021	08:00	-133.626	49.641	0	264.20	0	4.8930	0	33.8400	0	26.770	0	261.776	0	80.7	4	26.0	4	-1E+10	1	-1E+10	1	-1E+10	1	-1E+10	1	-1E+10	1	-1E+10	1
4902551	48	C	12/07/2021	08:00	-133.626	49.641	0	265.00	0	4.8930	0	33.8400	0	26.770	0	262.568	0	80.4	4	25.9	4	-1E+10	1	-1E+10	1	-1E+10	1	-1E+10	1	-1E+10	1	-1E+10	1
4902551	48	C	12/07/2021	08:00	-133.626	49.641	0	265.80	0	4.8870	0	33.8420	0	26.772	0	263.360	0	80.1	4	25.8	4	-1E+10	1	-1E+10	1	-1E+10	1	-1E+10	1	-1E+10	1	-1E+10	1
4902551	48	C	12/07/2021	08:00	-133.626	49.641	0	266.60	0	4.8860	0	33.8420	0	26.772	0	264.153	0	79.9	4	25.7	4	-1E+10	1	-1E+10	1	-1E+10	1	-1E+10	1	-1E+10	1	-1E+10	1
4902551	48	C	12/07/2021	08:00	-133.626	49.641	0	267.90	0	4.8870	0	33.8430	0	26.773	0	265.440	0	79.4	4	25.5	4	-1E+10	1	-1E+10	1	-1E+10	1	-1E+10	1	-1E+10	1	-1E+10	1
4902551	48	C	12/07/2021	08:00	-133.626	49.641	0	269.10	0	4.8890	0	33.8440	0	26.774	0	266.628	0	78.9	4	25.4	4	-1E+10	1	-1E+10	1	-1E+10	1	-1E+10	1	-1E+10	1	-1E+10	1
4902551	48	C	12/07/2021	08:00	-133.626	49.641	0	269.90	0	4.8880	0	33.8450	0	26.775	0	267.420	0	78.5	4	25.3	4	-1E+10	1	-1E+10	1	-1E+10	1	-1E+10	1	-1E+10	1	-1E+10	1
4902551	48	C	12/07/2021	08:00	-133.626	49.641	0	270.70	0	4.8850	0	33.8450	0	26.775	0	268.212	0	78.1	4	25.1	4	-1E+10	1	-1E+10	1	-1E+10	1	-1E+10	1	-1E+10	1	-1E+10	1
4902551	48	C	12/07/2021	08:00	-133.626	49.641	0	272.00	0	4.8720	0	33.8460	0	26.777	0	269.500	0	77.6	4	25.0	4	-1E+10	1	-1E+10	1	-1E+10	1	-1E+10	1	-1E+10	1	-1E+10	1
4902551	48	C	12/07/2021	08:00	-133.626	49.641	0	273.20	0	4.8670	0	33.8480	0	26.779	0	270.688	0	77.2	4	24.8	4	-1E+10	1	-1E+10	1	-1E+10	1	-1E+10	1	-1E+10	1	-1E+10	1
4902551	48	C	12/07/2021	08:00	-133.626	49.641	0	274.00	0	4.8570	0	33.8500	0	26.782	0	271.480	0	76.9	4	24.7	4	-1E+10	1	-1E+10	1	-1E+10	1	-1E+10	1	-1E+10	1	-1E+10	1
4902551	48	C	12/07/2021	08:00	-133.626	49.641	0	274.90	0	4.8520	0	33.8520	0	26.784	0	272.371	0	76.7	4	24.6	4	-1E+10	1	-1E+10	1	-1E+10	1	-1E+10	1	-1E+10	1	-1E+10	1
4902551	48	C	12/07/2021	08:00	-133.626	49.641	0	275.70	0	4.8430	0	33.8530	0	26.786	0	273.163	0	76.4	4	24.6	4	-1E+10	1	-1E+10	1	-1E+10	1	-1E+10	1	-1E+10	1	-1E+10	1
4902551	48	C	12/07/2021	08:00	-133.626	49.641	0	277.00	0	4.8320	0	33.8520	0	26.787	0	274.450	0	76.1	4	24.5	4	-1E+10	1	-1E+10	1	-1E+10	1	-1E+10	1	-1E+10	1	-1E+10	1
4902551	48	C	12/07/2021	08:00	-133.626	49.641	0	278.20	0	4.8200	0	33.8540	0	26.789	0	275.638	0	75.9	4	24.4	4	-1E+10	1	-1E+10	1	-1E+10	1	-1E+10	1	-1E+10	1	-1E+10	1
4902551	48	C	12/07/2021	08:00	-133.626	49.641	0	279.10	0	4.8180	0	33.8550	0	26.790	0	276.530	0	75.7	4	24.3	4	-1E+10	1	-1E+10	1	-1E+10	1	-1E+10	1	-1E+10	1	-1E+10	1
4902551	48	C	12/07/2021	08:00	-133.626	49.641	0	279.90	0	4.8180	0	33.8540	0	26.790	0	277.322	0	75.5	4	24.3	4	-1E+10	1	-1E+10	1	-1E+10	1	-1E+10	1	-1E+10	1	-1E+10	1
4902551	48	C	12/07/2021	08:00	-133.626	49.641	0	280.70	0	4.8170	0	33.8540	0	26.790	0	278.114	0	75.3	4	24.2	4	-1E+10	1	-1E+10	1	-1E+10	1	-1E+10	1	-1E+10	1	-1E+10	1
4902551	48	C	12/07/2021	08:00	-133.626	49.641	0	282.00	0	4.8150	0	33.8540	0	26.790	0	279.401	0	74.9	4	24.1	4	-1E+10	1	-1E+10	1	-1E+10	1	-1E+10	1	-1E+10	1	-1E+10	1
4902551	48	C	12/07/2021	08:00	-133.626	49.641	0	283.30	0	4.8090	0	33.8540	0	26.791	0	280.688	0	74.6	4	23.9	4	-1E+10	1	-1E+10	1	-1E+10	1	-1E+10	1	-1E+10	1	-1E+10	1
4902551	48	C	12/07/2021	08:00	-133.626	49.641	0	284.10	0	4.8050	0	33.8550	0	26.792	0	281.480	0	74.3	4	23.9	4	-1E+10	1	-1E+10	1	-1E+10	1	-1E+10	1	-1E+10	1	-1E+10	1
4902551	48	C	12/07/2021	08:00	-133.626	49.641	0	285.00	0	4.8000	0	33.8550	0	26.793	0	282.371	0	74.1	4	23.8	4	-1E+10	1	-1E+10	1	-1E+10	1	-1E+10	1	-1E+10	1	-1E+10	1
4902551	48	C	12/07/2021	08:00	-133.626	49.641	0	285.90	0	4.8010	0	33.8550	0	26.792	0	283.262	0	73.9	4	23.7	4	-1E+10	1	-1E+10	1	-1E+10	1	-1E+10	1	-1E+10	1	-1E+10	1
4902551	48	C	12/07/2021	08:00	-133.626	49.641	0	286.70	0	4.8000	0	33.8560	0	26.793	0	284.054	0	73.6	4	23.6	4	-1E+10	1	-1E+10	1	-1E+10	1	-1E+10	1	-1E+10	1	-1E+10	1
4902551	48	C	12/07/2021	08:00	-133.626	49.641	0	287.60	0	4.7980	0	33.8560	0	26.794	0	284.945	0	73.3	4	23.5	4	-1E+10	1	-1E+10	1	-1E+10	1	-1E+10	1	-1E+10	1	-1E+10	1
4902551	48	C	12/07/2021	08:00	-133.626	49.641	0	288.90	0	4.7960	0	33.8560	0	26.794	0	286.233	0	72.8	4	23.4	4	-1E+10	1	-1E+10	1	-1E+10	1	-1E+10	1	-1E+10	1	-1E+10	1
4902551	48	C	12/07/2021	08:00	-133.626	49.641	0	290.30	0	4.7940	0	33.8560	0	26.794	0	287.619	0	72.2	4	23.2	4	-1E+10	1	-1E+10	1	-1E+10	1	-1E+10	1	-1E+10	1	-1E+10	1
4902551	48	C	12/07/2021	08:00	-133.626	49.641	0	291.20	0	4.7910	0	33.8570	0	26.795	0	288.510	0	71.8	4	23.1	4	-1E+10	1	-1E+10	1	-1E+10	1	-1E+10	1	-1E+10	1	-1E+10	1
4902551	48	C	12/07/2021	08:00	-133.626	49.641	0	292.10	0	4.7820	0	33.8590	0	26.798	0	289.401	0	71.5	4	23.0	4	-1E+10	1	-1E+10	1	-1E+10	1	-1E+10	1	-1E+10	1	-1E+10	1
4902551	48	C	12/07/2021	08:00	-133.626	49.641	0	293.00	0	4.7740	0	33.8610	0	26.800	0	290.292	0	71.3	4	22.9	4	-1E+10	1	-1E+10	1	-1E+10	1	-1E+10	1	-1E+10	1	-1E+10	1
4902551	48	C	12/07/2021	08:00	-133.626	49.641	0	293.90	0	4.7740	0	33.8620	0	26.801	0	291.183	0	71.0	4	22.8	4	-1E+10	1	-1E+10	1	-1E+10	1	-1E+10	1	-1E+10	1	-1E+10	1
4902551	48	C	12/07/2021	08:00	-133.626	49.641	0	294.80	0	4.7730	0	33.8620	0	26.801	0	292.074	0	70.7	4	22.7	4	-1E+10	1	-1E+10	1	-1E+10	1	-1E+10	1	-1E+10	1	-1E+10	1
4902551	48	C	12/07/2021	08:00	-133.626	49.641	0	295.70	0	4.7700	0	33.8630	0	26.802	0	292.965	0	70.4	4	22.6	4	-1E+10	1	-1E+10	1	-1E+10	1	-1E+10	1	-1E+10	1	-1E+10	1
4902551	48	C	12/07/2021	08:00	-133.626	49.641	0	296.60	0	4.7670	0	33.8640	0	26.803	0	293.856	0	70.1	4	22.5	4	-1E+10	1	-1E+10	1	-1E+10	1	-1E+10	1	-1E+10	1	-1E+10	1
4902551	48	C	12/07/2021	08:00	-133.626	49.641	0	297.90	0	4.7660	0	33.8640	0	26.804	0	295.143	0	69.6	4	22.3	4	-1E+10	1	-1E+10	1	-1E+10	1	-1E+10	1	-1E+10	1	-1E+10	1
4902551	48	C	12/07/2021	08:00	-133.626	49.641	0	299.30	0	4.7640	0	33.8650	0	26.805	0	296.529	0	69.0	4	22.1	4	-1E+10	1	-1E+10	1	-1E+10	1	-1E+10	1	-1E+10	1	-1E+10	1
4902551	48	C	12/07/2021	08:00	-133.626	49.641	0	300.20	0	4.7560	0	33.8680	0	26.808	0	297.420	0	68.7	4	22.0	4	-1E+10	1	-1E+10	1	-1E+10	1	-1E+10	1	-1E+10	1	-1E+10	1
4902551	48	C	12/07/2021	08:00	-133.626	49.641	0	301.10	0	4.7500	0	33.8720	0	26.812	0	298.311	0	68.4	4	21.9	4	-1E+10	1	-1E+10	1	-1E+10	1	-1E+10	1	-1E+10	1	-1E+10	1
4902551	48	C	12/07/2021	08:00	-133.626	49.641	0	302.00	0	4.7480	0	33.8740	0	26.814	0	299.202	0	68.1	4	21.8	4	-1E+10	1	-1E+10	1	-1E+10	1	-1E+10	1	-1E+10	1	-1E+10	1
4902551	48	C	12/07/2021	08:00	-133.626	49.641	0	303.00	0	4.7450	0	33.8740	0	26.814	0	300.192	0	67.9	4	21.8	4	-1E+10	1	-1E+10	1	-1E+10	1	-1E+10	1	-1E+10	1	-1E+10	1
4902551	48	C	12/07/2021	08:00	-133.626	49.641	0	303.90	0	4.7430	0	33.8730	0	26.813	0	301.083	0	67.6	4	21.7	4	-1E+10	1	-1E+10	1	-1E+10	1	-1E+10	1	-1E+10	1	-1E+10	1
4902551	48	C	12/07/2021	08:00	-133.626	49.641	0	304.80	0	4.7370	0	33.8770	0	26.817	0	301.974	0	67.3	4	21.6	4	-1E+10	1	-1E+10	1	-1E+10	1	-1E+10	1	-1E+10	1	-1E+10	1
4902551	48	C	12/07/2021	08:00	-133.626	49.641	0	305.70	0	4.7340	0	33.8770	0	26.817	0	302.865	0	67.0	4	21.5	4	-1E+10	1	-1E+10	1	-1E+10	1	-1E+10	1	-1E+10	1	-1E+10	1
4902551	48	C	12/07/2021	08:00	-133.626	49.641	0	306.60	0	4.7340	0	33.8780	0	26.818	0	303.756	0	66.8	4	21.4	4	-1E+10	1	-1E+10	1	-1E+10	1	-1E+10	1	-1E+10	1	-1E+10	1
4902551	48	C	12/07/2021	08:00	-133.626	49.641	0	307.60	0	4.7340	0	33.8790	0	26.819	0	304.746	0	66.6	4	21.4	4	-1E+10	1	-1E+10	1	-1E+10	1	-1E+10	1	-1E+10	1	-1E+10	1
4902551	48	C	12/07/2021	08:00	-133.626	49.641	0	308.50	0	4.7330	0	33.8790	0	26.819	0	305.637	0	66.4	4	21.3	4	-1E+10	1	-1E+10	1	-1E+10	1	-1E+10	1	-1E+10	1	-1E+10	1
4902551	48	C	12/07/2021	08:00	-133.626	49.641	0	309.90	0	4.7320	0	33.8800	0	26.820	0	307.023	0	66.0	4	21.2	4	-1E+10	1	-1E+10	1	-1E+10	1	-1E+10	1	-1E+10	1	-1E+10	1
4902551	48	C	12/07/2021	08:00	-133.626	49.641	0	311.30	0	4.7310	0	33.8800	0	26.820	0	308.409	0	65.6	4	21.0	4	-1E+10	1	-1E+10	1	-1E+10	1	-1E+10	1	-1E+10	1	-1E+10	1
4902551	48	C	12/07/2021	08:00	-133.626	49.641	0	312.30	0	4.7300	0	33.8810	0	26.821	0	309.399	0	65.3	4	20.9	4	-1E+10	1	-1E+10	1	-1E+10	1	-1E+10	1	-1E+10	1	-1E+10	1
4902551	48	C	12/07/2021	08:00	-133.626	49.641	0	313.30	0	4.7270	0	33.8810	0	26.821	0	310.389	0	65.0	4	20.8	4	-1E+10	1	-1E+10	1	-1E+10	1	-1E+10	1	-1E+10	1	-1E+10	1
4902551	48	C	12/07/2021	08:00	-133.626	49.641	0	314.20	0	4.7250	0	33.8820	0	26.822	0	311.280	0	64.8	4	20.8	4	-1E+10	1	-1E+10	1	-1E+10	1	-1E+10	1	-1E+10	1	-1E+10	1
4902551	48	C	12/07/2021	08:00	-133.626	49.641	0	315.20	0	4.7240	0	33.8830	0	26.823	0	312.270	0	64.4	4	20.7	4	-1E+10	1	-1E+10	1	-1E+10	1	-1E+10	1	-1E+10	1	-1E+10	1
4902551	48	C	12/07/2021	08:00	-133.626	49.641	0	316.20	0	4.7230	0	33.8840	0	26.824	0	313.260	0	64.1	4	20.5	4	-1E+10	1	-1E+10	1	-1E+10	1	-1E+10	1	-1E+10	1	-1E+10	1
4902551	48	C	12/07/2021	08:00	-133.626	49.641	0	317.10	0	4.7230	0	33.8840	0	26.824	0	314.151	0	63.7	4	20.4	4	-1E+10	1	-1E+10	1	-1E+10	1	-1E+10	1	-1E+10	1	-1E+10	1
4902551	48	C	12/07/2021	08:00	-133.626	49.641	0	318.10	0	4.7220	0	33.8840	0	26.824	0	315.141	0	63.3	4	20.3	4	-1E+10	1	-1E+10	1	-1E+10	1	-1E+10	1	-1E+10	1	-1E+10	1
4902551	48	C	12/07/2021	08:00	-133.626	49.641	0	319.00	0	4.7170	0	33.8880	0	26.828	0	316.032	0	63.0	4	20.2	4	-1E+10	1	-1E+10	1	-1E+10	1	-1E+10	1	-1E+10	1	-1E+10	1
4902551	48	C	12/07/2021	08:00	-133.626	49.641	0	320.00	0	4.7140	0	33.8890	0	26.829	0	317.022	0	62.6	4	20.1	4	-1E+10	1	-1E+10	1	-1E+10	1	-1E+10	1	-1E+10	1	-1E+10	1
4902551	48	C	12/07/2021	08:00	-133.626	49.641	0	320.90	0	4.7090	0	33.8920	0	26.832	0	317.913	0	62.4	4	20.0	4	-1E+10	1	-1E+10	1	-1E+10	1	-1E+10	1	-1E+10	1	-1E+10	1
4902551	48	C	12/07/2021	08:00	-133.626	49.641	0	321.90	0	4.7060	0	33.8940	0	26.834	0	318.902	0	62.1	4	19.9	4	-1E+10	1	-1E+10	1	-1E+10	1	-1E+10	1	-1E+10	1	-1E+10	1
4902551	48	C	12/07/2021	08:00	-133.626	49.641	0	322.90	0	4.7030	0	33.8940	0	26.835	0	319.892	0	61.8	4	19.8	4	-1E+10	1	-1E+10	1	-1E+10	1	-1E+10	1	-1E+10	1	-1E+10	1
4902551	48	C	12/07/2021	08:00	-133.626	49.641	0	323.90	0	4.7020	0	33.8950	0	26.835	0	320.882	0	61.5	4	19.7	4	-1E+10	1	-1E+10	1	-1E+10	1	-1E+10	1	-1E+10	1	-1E+10	1
4902551	48	C	12/07/2021	08:00	-133.626	49.641	0	324.90	0	4.7020	0	33.8940	0	26.835	0	321.872	0	61.2	4	19.6	4	-1E+10	1	-1E+10	1	-1E+10	1	-1E+10	1	-1E+10	1	-1E+10	1
4902551	48	C	12/07/2021	08:00	-133.626	49.641	0	325.80	0	4.7010	0	33.8950	0	26.836	0	322.763	0	60.9	4	19.5	4	-1E+10	1	-1E+10	1	-1E+10	1	-1E+10	1	-1E+10	1	-1E+10	1
4902551	48	C	12/07/2021	08:00	-133.626	49.641	0	326.80	0	4.7000	0	33.8960	0	26.836	0	323.753	0	60.5	4	19.4	4	-1E+10	1	-1E+10	1	-1E+10	1	-1E+10	1	-1E+10	1	-1E+10	1
4902551	48	C	12/07/2021	08:00	-133.626	49.641	0	327.80	0	4.6990	0	33.8970	0	26.837	0	324.743	0	60.2	4	19.3	4	-1E+10	1	-1E+10	1	-1E+10	1	-1E+10	1	-1E+10	1	-1E+10	1
4902551	48	C	12/07/2021	08:00	-133.626	49.641	0	328.80	0	4.6920	0	33.8980	0	26.839	0	325.733	0	59.8	4	19.2	4	-1E+10	1	-1E+10	1	-1E+10	1	-1E+10	1	-1E+10	1	-1E+10	1
4902551	48	C	12/07/2021	08:00	-133.626	49.641	0	329.80	0	4.6860	0	33.8990	0	26.840	0	326.723	0	59.5	4	19.1	4	-1E+10	1	-1E+10	1	-1E+10	1	-1E+10	1	-1E+10	1	-1E+10	1
4902551	48	C	12/07/2021	08:00	-133.626	49.641	0	330.80	0	4.6810	0	33.8990	0	26.841	0	327.713	0	59.2	4	19.0	4	-1E+10	1	-1E+10	1	-1E+10	1	-1E+10	1	-1E+10	1	-1E+10	1
4902551	48	C	12/07/2021	08:00	-133.626	49.641	0	331.80	0	4.6820	0	33.9020	0	26.843	0	328.702	0	58.9	4	18.9	4	-1E+10	1	-1E+10	1	-1E+10	1	-1E+10	1	-1E+10	1	-1E+10	1
4902551	48	C	12/07/2021	08:00	-133.626	49.641	0	332.80	0	4.6820	0	33.9040	0	26.845	0	329.692	0	58.5	4	18.7	4	-1E+10	1	-1E+10	1	-1E+10	1	-1E+10	1	-1E+10	1	-1E+10	1
4902551	48	C	12/07/2021	08:00	-133.626	49.641	0	333.80	0	4.6830	0	33.9060	0	26.846	0	330.682	0	58.1	4	18.6	4	-1E+10	1	-1E+10	1	-1E+10	1	-1E+10	1	-1E+10	1	-1E+10	1
4902551	48	C	12/07/2021	08:00	-133.626	49.641	0	334.90	0	4.6800	0	33.9070	0	26.847	0	331.771	0	57.8	4	18.5	4	-1E+10	1	-1E+10	1	-1E+10	1	-1E+10	1	-1E+10	1	-1E+10	1
4902551	48	C	12/07/2021	08:00	-133.626	49.641	0	335.90	0	4.6780	0	33.9070	0	26.848	0	332.761	0	57.4	4	18.4	4	-1E+10	1	-1E+10	1	-1E+10	1	-1E+10	1	-1E+10	1	-1E+10	1
4902551	48	C	12/07/2021	08:00	-133.626	49.641	0	336.90	0	4.6730	0	33.9080	0	26.849	0	333.751	0	57.0	4	18.2	4	-1E+10	1	-1E+10	1	-1E+10	1	-1E+10	1	-1E+10	1	-1E+10	1
4902551	48	C	12/07/2021	08:00	-133.626	49.641	0	337.90	0	4.6630	0	33.9110	0	26.853	0	334.741	0	56.6	4	18.1	4	-1E+10	1	-1E+10	1	-1E+10	1	-1E+10	1	-1E+10	1	-1E+10	1
4902551	48	C	12/07/2021	08:00	-133.626	49.641	0	338.90	0	4.6620	0	33.9100	0	26.852	0	335.730	0	56.3	4	18.0	4	-1E+10	1	-1E+10	1	-1E+10	1	-1E+10	1	-1E+10	1	-1E+10	1
4902551	48	C	12/07/2021	08:00	-133.626	49.641	0	339.90	0	4.6620	0	33.9110	0	26.853	0	336.720	0	55.9	4	17.9	4	-1E+10	1	-1E+10	1	-1E+10	1	-1E+10	1	-1E+10	1	-1E+10	1
4902551	48	C	12/07/2021	08:00	-133.626	49.641	0	340.90	0	4.6620	0	33.9110	0	26.853	0	337.710	0	55.4	4	17.7	4	-1E+10	1	-1E+10	1	-1E+10	1	-1E+10	1	-1E+10	1	-1E+10	1
4902551	48	C	12/07/2021	08:00	-133.626	49.641	0	342.00	0	4.6600	0	33.9100	0	26.852	0	338.799	0	55.0	4	17.6	4	-1E+10	1	-1E+10	1	-1E+10	1	-1E+10	1	-1E+10	1	-1E+10	1
4902551	48	C	12/07/2021	08:00	-133.626	49.641	0	343.00	0	4.6380	0	33.9180	0	26.861	0	339.789	0	54.6	4	17.5	4	-1E+10	1	-1E+10	1	-1E+10	1	-1E+10	1	-1E+10	1	-1E+10	1
4902551	48	C	12/07/2021	08:00	-133.626	49.641	0	344.00	0	4.6350	0	33.9170	0	26.860	0	340.778	0	54.2	4	17.3	4	-1E+10	1	-1E+10	1	-1E+10	1	-1E+10	1	-1E+10	1	-1E+10	1
4902551	48	C	12/07/2021	08:00	-133.626	49.641	0	345.00	0	4.6300	0	33.9180	0	26.862	0	341.768	0	53.9	4	17.2	4	-1E+10	1	-1E+10	1	-1E+10	1	-1E+10	1	-1E+10	1	-1E+10	1
4902551	48	C	12/07/2021	08:00	-133.626	49.641	0	346.00	0	4.6270	0	33.9190	0	26.863	0	342.758	0	53.6	4	17.1	4	-1E+10	1	-1E+10	1	-1E+10	1	-1E+10	1	-1E+10	1	-1E+10	1
4902551	48	C	12/07/2021	08:00	-133.626	49.641	0	347.00	0	4.6250	0	33.9200	0	26.864	0	343.748	0	53.2	4	17.0	4	-1E+10	1	-1E+10	1	-1E+10	1	-1E+10	1	-1E+10	1	-1E+10	1
4902551	48	C	12/07/2021	08:00	-133.626	49.641	0	348.10	0	4.6190	0	33.9210	0	26.865	0	344.837	0	52.9	4	16.9	4	-1E+10	1	-1E+10	1	-1E+10	1	-1E+10	1	-1E+10	1	-1E+10	1
4902551	48	C	12/07/2021	08:00	-133.626	49.641	0	349.10	0	4.6110	0	33.9230	0	26.868	0	345.826	0	52.6	4	16.8	4	-1E+10	1	-1E+10	1	-1E+10	1	-1E+10	1	-1E+10	1	-1E+10	1
4902551	48	C	12/07/2021	08:00	-133.626	49.641	0	350.10	0	4.6050	0	33.9250	0	26.870	0	346.816	0	52.3	4	16.7	4	-1E+10	1	-1E+10	1	-1E+10	1	-1E+10	1	-1E+10	1	-1E+10	1
4902551	48	C	12/07/2021	08:00	-133.626	49.641	0	353.10	0	4.5940	0	33.9280	0	26.874	0	349.786	0	51.4	4	16.4	4	-1E+10	1	-1E+10	1	-1E+10	1	-1E+10	1	-1E+10	1	-1E+10	1
4902551	48	C	12/07/2021	08:00	-133.626	49.641	0	358.10	0	4.5730	0	33.9340	0	26.881	0	354.734	0	49.9	4	16.0	4	-1E+10	1	-1E+10	1	-1E+10	1	-1E+10	1	-1E+10	1	-1E+10	1
4902551	48	C	12/07/2021	08:00	-133.626	49.641	0	363.00	0	4.5450	0	33.9430	0	26.891	0	359.584	0	48.7	4	15.5	4	-1E+10	1	-1E+10	1	-1E+10	1	-1E+10	1	-1E+10	1	-1E+10	1
4902551	48	C	12/07/2021	08:00	-133.626	49.641	0	367.90	0	4.5260	0	33.9490	0	26.898	0	364.434	0	47.9	4	15.3	4	-1E+10	1	-1E+10	1	-1E+10	1	-1E+10	1	-1E+10	1	-1E+10	1
4902551	48	C	12/07/2021	08:00	-133.626	49.641	0	372.70	0	4.5160	0	33.9530	0	26.902	0	369.184	0	47.3	4	15.1	4	-1E+10	1	-1E+10	1	-1E+10	1	-1E+10	1	-1E+10	1	-1E+10	1
4902551	48	C	12/07/2021	08:00	-133.626	49.641	0	377.90	0	4.5100	0	33.9540	0	26.904	0	374.330	0	46.8	4	14.9	4	-1E+10	1	-1E+10	1	-1E+10	1	-1E+10	1	-1E+10	1	-1E+10	1
4902551	48	C	12/07/2021	08:00	-133.626	49.641	0	383.00	0	4.4940	0	33.9580	0	26.909	0	379.378	0	46.1	4	14.7	4	-1E+10	1	-1E+10	1	-1E+10	1	-1E+10	1	-1E+10	1	-1E+10	1
4902551	48	C	12/07/2021	08:00	-133.626	49.641	0	387.80	0	4.4810	0	33.9620	0	26.913	0	384.128	0	45.3	4	14.4	4	-1E+10	1	-1E+10	1	-1E+10	1	-1E+10	1	-1E+10	1	-1E+10	1
4902551	48	C	12/07/2021	08:00	-133.626	49.641	0	392.90	0	4.4660	0	33.9680	0	26.920	0	389.175	0	44.6	4	14.2	4	-1E+10	1	-1E+10	1	-1E+10	1	-1E+10	1	-1E+10	1	-1E+10	1
4902551	48	C	12/07/2021	08:00	-133.626	49.641	0	398.10	0	4.4590	0	33.9700	0	26.922	0	394.320	0	43.9	4	14.0	4	-1E+10	1	-1E+10	1	-1E+10	1	-1E+10	1	-1E+10	1	-1E+10	1
4902551	48	C	12/07/2021	08:00	-133.626	49.641	0	402.80	0	4.4420	0	33.9750	0	26.928	0	398.971	0	43.2	4	13.8	4	-1E+10	1	-1E+10	1	-1E+10	1	-1E+10	1	-1E+10	1	-1E+10	1
4902551	48	C	12/07/2021	08:00	-133.626	49.641	0	407.90	0	4.4280	0	33.9790	0	26.932	0	404.018	0	42.7	4	13.6	4	-1E+10	1	-1E+10	1	-1E+10	1	-1E+10	1	-1E+10	1	-1E+10	1
4902551	48	C	12/07/2021	08:00	-133.626	49.641	0	413.10	0	4.4180	0	33.9820	0	26.936	0	409.163	0	42.1	4	13.4	4	-1E+10	1	-1E+10	1	-1E+10	1	-1E+10	1	-1E+10	1	-1E+10	1
4902551	48	C	12/07/2021	08:00	-133.626	49.641	0	417.70	0	4.4080	0	33.9860	0	26.940	0	413.715	0	41.5	4	13.2	4	-1E+10	1	-1E+10	1	-1E+10	1	-1E+10	1	-1E+10	1	-1E+10	1
4902551	48	C	12/07/2021	08:00	-133.626	49.641	0	422.80	0	4.3920	0	33.9910	0	26.946	0	418.761	0	41.2	4	13.1	4	-1E+10	1	-1E+10	1	-1E+10	1	-1E+10	1	-1E+10	1	-1E+10	1
4902551	48	C	12/07/2021	08:00	-133.626	49.641	0	428.00	0	4.3690	0	33.9960	0	26.952	0	423.906	0	40.8	4	13.0	4	-1E+10	1	-1E+10	1	-1E+10	1	-1E+10	1	-1E+10	1	-1E+10	1
4902551	48	C	12/07/2021	08:00	-133.626	49.641	0	432.70	0	4.3560	0	34.0000	0	26.957	0	428.556	0	39.9	4	12.7	4	-1E+10	1	-1E+10	1	-1E+10	1	-1E+10	1	-1E+10	1	-1E+10	1
4902551	48	C	12/07/2021	08:00	-133.626	49.641	0	437.50	0	4.3470	0	34.0040	0	26.961	0	433.305	0	38.9	4	12.4	4	-1E+10	1	-1E+10	1	-1E+10	1	-1E+10	1	-1E+10	1	-1E+10	1
4902551	48	C	12/07/2021	08:00	-133.626	49.641	0	442.90	0	4.3340	0	34.0100	0	26.967	0	438.648	0	37.6	4	11.9	4	-1E+10	1	-1E+10	1	-1E+10	1	-1E+10	1	-1E+10	1	-1E+10	1
4902551	48	C	12/07/2021	08:00	-133.626	49.641	0	448.40	0	4.3160	0	34.0180	0	26.976	0	444.089	0	36.4	4	11.6	4	-1E+10	1	-1E+10	1	-1E+10	1	-1E+10	1	-1E+10	1	-1E+10	1
4902551	48	C	12/07/2021	08:00	-133.626	49.641	0	453.40	0	4.3020	0	34.0240	0	26.982	0	449.036	0	35.5	4	11.3	4	-1E+10	1	-1E+10	1	-1E+10	1	-1E+10	1	-1E+10	1	-1E+10	1
4902551	48	C	12/07/2021	08:00	-133.626	49.641	0	458.00	0	4.2840	0	34.0310	0	26.989	0	453.586	0	34.7	4	11.0	4	-1E+10	1	-1E+10	1	-1E+10	1	-1E+10	1	-1E+10	1	-1E+10	1
4902551	48	C	12/07/2021	08:00	-133.626	49.641	0	462.80	0	4.2690	0	34.0370	0	26.996	0	458.335	0	33.7	4	10.7	4	-1E+10	1	-1E+10	1	-1E+10	1	-1E+10	1	-1E+10	1	-1E+10	1
4902551	48	C	12/07/2021	08:00	-133.626	49.641	0	467.80	0	4.2530	0	34.0440	0	27.003	0	463.281	0	32.7	4	10.4	4	-1E+10	1	-1E+10	1	-1E+10	1	-1E+10	1	-1E+10	1	-1E+10	1
4902551	48	C	12/07/2021	08:00	-133.626	49.641	0	472.60	0	4.2500	0	34.0490	0	27.007	0	468.029	0	32.3	4	10.2	4	-1E+10	1	-1E+10	1	-1E+10	1	-1E+10	1	-1E+10	1	-1E+10	1
4902551	48	C	12/07/2021	08:00	-133.626	49.641	0	477.50	0	4.2480	0	34.0500	0	27.008	0	472.876	0	32.1	4	10.2	4	-1E+10	1	-1E+10	1	-1E+10	1	-1E+10	1	-1E+10	1	-1E+10	1
4902551	48	C	12/07/2021	08:00	-133.626	49.641	0	482.60	0	4.2410	0	34.0520	0	27.011	0	477.921	0	32.1	4	10.2	4	-1E+10	1	-1E+10	1	-1E+10	1	-1E+10	1	-1E+10	1	-1E+10	1
4902551	48	C	12/07/2021	08:00	-133.626	49.641	0	487.80	0	4.2210	0	34.0560	0	27.016	0	483.064	0	31.7	4	10.0	4	-1E+10	1	-1E+10	1	-1E+10	1	-1E+10	1	-1E+10	1	-1E+10	1
4902551	48	C	12/07/2021	08:00	-133.626	49.641	0	493.10	0	4.2050	0	34.0600	0	27.021	0	488.307	0	31.0	4	9.8	4	-1E+10	1	-1E+10	1	-1E+10	1	-1E+10	1	-1E+10	1	-1E+10	1
4902551	48	C	12/07/2021	08:00	-133.626	49.641	0	498.10	0	4.1920	0	34.0660	0	27.027	0	493.252	0	30.3	4	9.6	4	-1E+10	1	-1E+10	1	-1E+10	1	-1E+10	1	-1E+10	1	-1E+10	1
4902551	48	C	12/07/2021	08:00	-133.626	49.641	0	502.70	0	4.1750	0	34.0710	0	27.033	0	497.802	0	29.7	4	9.4	4	-1E+10	1	-1E+10	1	-1E+10	1	-1E+10	1	-1E+10	1	-1E+10	1
4902551	48	C	12/07/2021	08:00	-133.626	49.641	0	507.90	0	4.1620	0	34.0760	0	27.038	0	502.945	0	28.8	4	9.1	4	-1E+10	1	-1E+10	1	-1E+10	1	-1E+10	1	-1E+10	1	-1E+10	1
4902551	48	C	12/07/2021	08:00	-133.626	49.641	0	513.10	0	4.1550	0	34.0800	0	27.042	0	508.088	0	27.9	4	8.8	4	-1E+10	1	-1E+10	1	-1E+10	1	-1E+10	1	-1E+10	1	-1E+10	1
4902551	48	C	12/07/2021	08:00	-133.626	49.641	0	517.80	0	4.1500	0	34.0830	0	27.045	0	512.736	0	26.9	4	8.5	4	-1E+10	1	-1E+10	1	-1E+10	1	-1E+10	1	-1E+10	1	-1E+10	1
4902551	48	C	12/07/2021	08:00	-133.626	49.641	0	523.00	0	4.1400	0	34.0880	0	27.050	0	517.879	0	26.1	4	8.3	4	-1E+10	1	-1E+10	1	-1E+10	1	-1E+10	1	-1E+10	1	-1E+10	1
4902551	48	C	12/07/2021	08:00	-133.626	49.641	0	528.20	0	4.1250	0	34.0940	0	27.057	0	523.021	0	25.0	4	7.9	4	-1E+10	1	-1E+10	1	-1E+10	1	-1E+10	1	-1E+10	1	-1E+10	1
4902551	48	C	12/07/2021	08:00	-133.626	49.641	0	533.10	0	4.1030	0	34.1040	0	27.067	0	527.867	0	24.4	4	7.7	4	-1E+10	1	-1E+10	1	-1E+10	1	-1E+10	1	-1E+10	1	-1E+10	1
4902551	48	C	12/07/2021	08:00	-133.626	49.641	0	538.10	0	4.0910	0	34.1080	0	27.071	0	532.812	0	24.0	4	7.6	4	-1E+10	1	-1E+10	1	-1E+10	1	-1E+10	1	-1E+10	1	-1E+10	1
4902551	48	C	12/07/2021	08:00	-133.626	49.641	0	543.20	0	4.0760	0	34.1120	0	27.076	0	537.855	0	23.5	4	7.4	4	-1E+10	1	-1E+10	1	-1E+10	1	-1E+10	1	-1E+10	1	-1E+10	1
4902551	48	C	12/07/2021	08:00	-133.626	49.641	0	547.80	0	4.0620	0	34.1170	0	27.082	0	542.404	0	23.0	4	7.3	4	-1E+10	1	-1E+10	1	-1E+10	1	-1E+10	1	-1E+10	1	-1E+10	1
4902551	48	C	12/07/2021	08:00	-133.626	49.641	0	552.60	0	4.0460	0	34.1230	0	27.088	0	547.150	0	22.7	4	7.2	4	-1E+10	1	-1E+10	1	-1E+10	1	-1E+10	1	-1E+10	1	-1E+10	1
4902551	48	C	12/07/2021	08:00	-133.626	49.641	0	557.90	0	4.0350	0	34.1280	0	27.093	0	552.391	0	22.4	4	7.1	4	-1E+10	1	-1E+10	1	-1E+10	1	-1E+10	1	-1E+10	1	-1E+10	1
4902551	48	C	12/07/2021	08:00	-133.626	49.641	0	562.80	0	4.0260	0	34.1310	0	27.096	0	557.236	0	22.1	4	7.0	4	-1E+10	1	-1E+10	1	-1E+10	1	-1E+10	1	-1E+10	1	-1E+10	1
4902551	48	C	12/07/2021	08:00	-133.626	49.641	0	567.60	0	4.0130	0	34.1340	0	27.100	0	561.982	0	21.8	4	6.9	4	-1E+10	1	-1E+10	1	-1E+10	1	-1E+10	1	-1E+10	1	-1E+10	1
4902551	48	C	12/07/2021	08:00	-133.626	49.641	0	573.00	0	3.9910	0	34.1410	0	27.108	0	567.321	0	21.6	4	6.8	4	-1E+10	1	-1E+10	1	-1E+10	1	-1E+10	1	-1E+10	1	-1E+10	1
4902551	48	C	12/07/2021	08:00	-133.626	49.641	0	577.80	0	3.9860	0	34.1420	0	27.109	0	572.067	0	21.4	4	6.8	4	-1E+10	1	-1E+10	1	-1E+10	1	-1E+10	1	-1E+10	1	-1E+10	1
4902551	48	C	12/07/2021	08:00	-133.626	49.641	0	582.60	0	3.9730	0	34.1460	0	27.114	0	576.813	0	21.2	4	6.7	4	-1E+10	1	-1E+10	1	-1E+10	1	-1E+10	1	-1E+10	1	-1E+10	1
4902551	48	C	12/07/2021	08:00	-133.626	49.641	0	588.00	0	3.9610	0	34.1490	0	27.118	0	582.152	0	20.9	4	6.6	4	-1E+10	1	-1E+10	1	-1E+10	1	-1E+10	1	-1E+10	1	-1E+10	1
4902551	48	C	12/07/2021	08:00	-133.626	49.641	0	592.80	0	3.9530	0	34.1520	0	27.121	0	586.897	0	20.7	4	6.5	4	-1E+10	1	-1E+10	1	-1E+10	1	-1E+10	1	-1E+10	1	-1E+10	1
4902551	48	C	12/07/2021	08:00	-133.626	49.641	0	597.70	0	3.9400	0	34.1560	0	27.125	0	591.741	0	20.6	4	6.5	4	-1E+10	1	-1E+10	1	-1E+10	1	-1E+10	1	-1E+10	1	-1E+10	1
4902551	48	C	12/07/2021	08:00	-133.626	49.641	0	603.00	0	3.9310	0	34.1580	0	27.128	0	596.981	0	20.5	4	6.5	4	-1E+10	1	-1E+10	1	-1E+10	1	-1E+10	1	-1E+10	1	-1E+10	1
4902551	48	C	12/07/2021	08:00	-133.626	49.641	0	607.90	0	3.9220	0	34.1600	0	27.130	0	601.825	0	20.5	4	6.5	4	-1E+10	1	-1E+10	1	-1E+10	1	-1E+10	1	-1E+10	1	-1E+10	1
4902551	48	C	12/07/2021	08:00	-133.626	49.641	0	612.60	0	3.9080	0	34.1630	0	27.134	0	606.471	0	20.3	4	6.4	4	-1E+10	1	-1E+10	1	-1E+10	1	-1E+10	1	-1E+10	1	-1E+10	1
4902551	48	C	12/07/2021	08:00	-133.626	49.641	0	617.90	0	3.8890	0	34.1680	0	27.140	0	611.710	0	20.2	4	6.4	4	-1E+10	1	-1E+10	1	-1E+10	1	-1E+10	1	-1E+10	1	-1E+10	1
4902551	48	C	12/07/2021	08:00	-133.626	49.641	0	623.10	0	3.8760	0	34.1710	0	27.144	0	616.850	0	20.1	4	6.3	4	-1E+10	1	-1E+10	1	-1E+10	1	-1E+10	1	-1E+10	1	-1E+10	1
4902551	48	C	12/07/2021	08:00	-133.626	49.641	0	628.20	0	3.8750	0	34.1710	0	27.144	0	621.892	0	19.9	4	6.3	4	-1E+10	1	-1E+10	1	-1E+10	1	-1E+10	1	-1E+10	1	-1E+10	1
4902551	48	C	12/07/2021	08:00	-133.626	49.641	0	633.00	0	3.8550	0	34.1760	0	27.150	0	626.636	0	19.7	4	6.2	4	-1E+10	1	-1E+10	1	-1E+10	1	-1E+10	1	-1E+10	1	-1E+10	1
4902551	48	C	12/07/2021	08:00	-133.626	49.641	0	637.70	0	3.8480	0	34.1790	0	27.153	0	631.282	0	19.7	4	6.2	4	-1E+10	1	-1E+10	1	-1E+10	1	-1E+10	1	-1E+10	1	-1E+10	1
4902551	48	C	12/07/2021	08:00	-133.626	49.641	0	643.00	0	3.8370	0	34.1810	0	27.156	0	636.520	0	19.6	4	6.2	4	-1E+10	1	-1E+10	1	-1E+10	1	-1E+10	1	-1E+10	1	-1E+10	1
4902551	48	C	12/07/2021	08:00	-133.626	49.641	0	648.20	0	3.8200	0	34.1850	0	27.161	0	641.660	0	19.6	4	6.2	4	-1E+10	1	-1E+10	1	-1E+10	1	-1E+10	1	-1E+10	1	-1E+10	1
4902551	48	C	12/07/2021	08:00	-133.626	49.641	0	653.00	0	3.7970	0	34.1890	0	27.166	0	646.404	0	19.5	4	6.1	4	-1E+10	1	-1E+10	1	-1E+10	1	-1E+10	1	-1E+10	1	-1E+10	1
4902551	48	C	12/07/2021	08:00	-133.626	49.641	0	657.80	0	3.7800	0	34.1920	0	27.170	0	651.148	0	19.3	4	6.1	4	-1E+10	1	-1E+10	1	-1E+10	1	-1E+10	1	-1E+10	1	-1E+10	1
4902551	48	C	12/07/2021	08:00	-133.626	49.641	0	662.70	0	3.7530	0	34.1980	0	27.178	0	655.991	0	19.1	4	6.0	4	-1E+10	1	-1E+10	1	-1E+10	1	-1E+10	1	-1E+10	1	-1E+10	1
4902551	48	C	12/07/2021	08:00	-133.626	49.641	0	667.70	0	3.7350	0	34.2020	0	27.183	0	660.932	0	18.9	4	5.9	4	-1E+10	1	-1E+10	1	-1E+10	1	-1E+10	1	-1E+10	1	-1E+10	1
4902551	48	C	12/07/2021	08:00	-133.626	49.641	0	672.80	0	3.7190	0	34.2070	0	27.189	0	665.973	0	18.7	4	5.9	4	-1E+10	1	-1E+10	1	-1E+10	1	-1E+10	1	-1E+10	1	-1E+10	1
4902551	48	C	12/07/2021	08:00	-133.626	49.641	0	677.90	0	3.7040	0	34.2100	0	27.192	0	671.013	0	18.6	4	5.8	4	-1E+10	1	-1E+10	1	-1E+10	1	-1E+10	1	-1E+10	1	-1E+10	1
4902551	48	C	12/07/2021	08:00	-133.626	49.641	0	683.00	0	3.6980	0	34.2120	0	27.195	0	676.052	0	18.5	4	5.8	4	-1E+10	1	-1E+10	1	-1E+10	1	-1E+10	1	-1E+10	1	-1E+10	1
4902551	48	C	12/07/2021	08:00	-133.626	49.641	0	688.20	0	3.6860	0	34.2140	0	27.197	0	681.191	0	18.2	4	5.7	4	-1E+10	1	-1E+10	1	-1E+10	1	-1E+10	1	-1E+10	1	-1E+10	1
4902551	48	C	12/07/2021	08:00	-133.626	49.641	0	693.00	0	3.6700	0	34.2180	0	27.202	0	685.934	0	18.0	4	5.6	4	-1E+10	1	-1E+10	1	-1E+10	1	-1E+10	1	-1E+10	1	-1E+10	1
4902551	48	C	12/07/2021	08:00	-133.626	49.641	0	697.80	0	3.6520	0	34.2230	0	27.208	0	690.677	0	17.9	4	5.6	4	-1E+10	1	-1E+10	1	-1E+10	1	-1E+10	1	-1E+10	1	-1E+10	1
4902551	48	C	12/07/2021	08:00	-133.626	49.641	0	703.10	0	3.6460	0	34.2240	0	27.209	0	695.914	0	17.7	4	5.5	4	-1E+10	1	-1E+10	1	-1E+10	1	-1E+10	1	-1E+10	1	-1E+10	1
4902551	48	C	12/07/2021	08:00	-133.626	49.641	0	708.10	0	3.6370	0	34.2270	0	27.213	0	700.855	0	17.5	4	5.5	4	-1E+10	1	-1E+10	1	-1E+10	1	-1E+10	1	-1E+10	1	-1E+10	1
4902551	48	C	12/07/2021	08:00	-133.626	49.641	0	713.00	0	3.6250	0	34.2300	0	27.216	0	705.697	0	17.4	4	5.4	4	-1E+10	1	-1E+10	1	-1E+10	1	-1E+10	1	-1E+10	1	-1E+10	1
4902551	48	C	12/07/2021	08:00	-133.626	49.641	0	718.10	0	3.6200	0	34.2310	0	27.218	0	710.736	0	17.3	4	5.4	4	-1E+10	1	-1E+10	1	-1E+10	1	-1E+10	1	-1E+10	1	-1E+10	1
4902551	48	C	12/07/2021	08:00	-133.626	49.641	0	722.70	0	3.6140	0	34.2330	0	27.220	0	715.281	0	17.1	4	5.4	4	-1E+10	1	-1E+10	1	-1E+10	1	-1E+10	1	-1E+10	1	-1E+10	1
4902551	48	C	12/07/2021	08:00	-133.626	49.641	0	727.80	0	3.6070	0	34.2350	0	27.222	0	720.319	0	16.9	4	5.3	4	-1E+10	1	-1E+10	1	-1E+10	1	-1E+10	1	-1E+10	1	-1E+10	1
4902551	48	C	12/07/2021	08:00	-133.626	49.641	0	733.00	0	3.5960	0	34.2380	0	27.226	0	725.457	0	16.7	4	5.2	4	-1E+10	1	-1E+10	1	-1E+10	1	-1E+10	1	-1E+10	1	-1E+10	1
4902551	48	C	12/07/2021	08:00	-133.626	49.641	0	737.80	0	3.5900	0	34.2390	0	27.227	0	730.199	0	16.5	4	5.2	4	-1E+10	1	-1E+10	1	-1E+10	1	-1E+10	1	-1E+10	1	-1E+10	1
4902551	48	C	12/07/2021	08:00	-133.626	49.641	0	742.60	0	3.5740	0	34.2440	0	27.233	0	734.941	0	16.3	4	5.1	4	-1E+10	1	-1E+10	1	-1E+10	1	-1E+10	1	-1E+10	1	-1E+10	1
4902551	48	C	12/07/2021	08:00	-133.626	49.641	0	747.80	0	3.5660	0	34.2460	0	27.235	0	740.078	0	16.1	4	5.0	4	-1E+10	1	-1E+10	1	-1E+10	1	-1E+10	1	-1E+10	1	-1E+10	1
4902551	48	C	12/07/2021	08:00	-133.626	49.641	0	753.20	0	3.5590	0	34.2480	0	27.237	0	745.413	0	15.9	4	5.0	4	-1E+10	1	-1E+10	1	-1E+10	1	-1E+10	1	-1E+10	1	-1E+10	1
4902551	48	C	12/07/2021	08:00	-133.626	49.641	0	758.00	0	3.5440	0	34.2520	0	27.242	0	750.155	0	15.7	4	4.9	4	-1E+10	1	-1E+10	1	-1E+10	1	-1E+10	1	-1E+10	1	-1E+10	1
4902551	48	C	12/07/2021	08:00	-133.626	49.641	0	762.90	0	3.5320	0	34.2560	0	27.246	0	754.995	0	15.5	4	4.8	4	-1E+10	1	-1E+10	1	-1E+10	1	-1E+10	1	-1E+10	1	-1E+10	1
4902551	48	C	12/07/2021	08:00	-133.626	49.641	0	767.90	0	3.5180	0	34.2600	0	27.251	0	759.934	0	15.3	4	4.8	4	-1E+10	1	-1E+10	1	-1E+10	1	-1E+10	1	-1E+10	1	-1E+10	1
4902551	48	C	12/07/2021	08:00	-133.626	49.641	0	772.90	0	3.5050	0	34.2630	0	27.255	0	764.873	0	15.1	4	4.7	4	-1E+10	1	-1E+10	1	-1E+10	1	-1E+10	1	-1E+10	1	-1E+10	1
4902551	48	C	12/07/2021	08:00	-133.626	49.641	0	778.00	0	3.4930	0	34.2660	0	27.258	0	769.911	0	15.0	4	4.7	4	-1E+10	1	-1E+10	1	-1E+10	1	-1E+10	1	-1E+10	1	-1E+10	1
4902551	48	C	12/07/2021	08:00	-133.626	49.641	0	783.20	0	3.4830	0	34.2690	0	27.262	0	775.047	0	14.8	4	4.6	4	-1E+10	1	-1E+10	1	-1E+10	1	-1E+10	1	-1E+10	1	-1E+10	1
4902551	48	C	12/07/2021	08:00	-133.626	49.641	0	787.90	0	3.4710	0	34.2710	0	27.264	0	779.690	0	14.7	4	4.6	4	-1E+10	1	-1E+10	1	-1E+10	1	-1E+10	1	-1E+10	1	-1E+10	1
4902551	48	C	12/07/2021	08:00	-133.626	49.641	0	792.60	0	3.4660	0	34.2730	0	27.266	0	784.332	0	14.7	4	4.6	4	-1E+10	1	-1E+10	1	-1E+10	1	-1E+10	1	-1E+10	1	-1E+10	1
4902551	48	C	12/07/2021	08:00	-133.626	49.641	0	797.90	0	3.4560	0	34.2750	0	27.269	0	789.566	0	14.6	4	4.5	4	-1E+10	1	-1E+10	1	-1E+10	1	-1E+10	1	-1E+10	1	-1E+10	1
4902551	48	C	12/07/2021	08:00	-133.626	49.641	0	802.70	0	3.4500	0	34.2770	0	27.271	0	794.307	0	14.5	4	4.5	4	-1E+10	1	-1E+10	1	-1E+10	1	-1E+10	1	-1E+10	1	-1E+10	1
4902551	48	C	12/07/2021	08:00	-133.626	49.641	0	807.90	0	3.4440	0	34.2780	0	27.273	0	799.443	0	14.4	4	4.5	4	-1E+10	1	-1E+10	1	-1E+10	1	-1E+10	1	-1E+10	1	-1E+10	1
4902551	48	C	12/07/2021	08:00	-133.626	49.641	0	813.30	0	3.4360	0	34.2800	0	27.275	0	804.776	0	14.2	4	4.4	4	-1E+10	1	-1E+10	1	-1E+10	1	-1E+10	1	-1E+10	1	-1E+10	1
4902551	48	C	12/07/2021	08:00	-133.626	49.641	0	817.90	0	3.4230	0	34.2830	0	27.279	0	809.319	0	14.1	4	4.4	4	-1E+10	1	-1E+10	1	-1E+10	1	-1E+10	1	-1E+10	1	-1E+10	1
4902551	48	C	12/07/2021	08:00	-133.626	49.641	0	822.60	0	3.4070	0	34.2870	0	27.283	0	813.960	0	14.0	4	4.3	4	-1E+10	1	-1E+10	1	-1E+10	1	-1E+10	1	-1E+10	1	-1E+10	1
4902551	48	C	12/07/2021	08:00	-133.626	49.641	0	827.80	0	3.3920	0	34.2910	0	27.288	0	819.095	0	13.9	4	4.3	4	-1E+10	1	-1E+10	1	-1E+10	1	-1E+10	1	-1E+10	1	-1E+10	1
4902551	48	C	12/07/2021	08:00	-133.626	49.641	0	832.80	0	3.3850	0	34.2930	0	27.290	0	824.033	0	13.8	4	4.3	4	-1E+10	1	-1E+10	1	-1E+10	1	-1E+10	1	-1E+10	1	-1E+10	1
4902551	48	C	12/07/2021	08:00	-133.626	49.641	0	837.60	0	3.3700	0	34.2950	0	27.293	0	828.773	0	13.8	4	4.3	4	-1E+10	1	-1E+10	1	-1E+10	1	-1E+10	1	-1E+10	1	-1E+10	1
4902551	48	C	12/07/2021	08:00	-133.626	49.641	0	843.10	0	3.3570	0	34.2980	0	27.297	0	834.204	0	13.7	4	4.3	4	-1E+10	1	-1E+10	1	-1E+10	1	-1E+10	1	-1E+10	1	-1E+10	1
4902551	48	C	12/07/2021	08:00	-133.626	49.641	0	848.10	0	3.3470	0	34.3000	0	27.300	0	839.141	0	13.6	4	4.2	4	-1E+10	1	-1E+10	1	-1E+10	1	-1E+10	1	-1E+10	1	-1E+10	1
4902551	48	C	12/07/2021	08:00	-133.626	49.641	0	852.80	0	3.3380	0	34.3020	0	27.302	0	843.782	0	13.6	4	4.2	4	-1E+10	1	-1E+10	1	-1E+10	1	-1E+10	1	-1E+10	1	-1E+10	1
4902551	48	C	12/07/2021	08:00	-133.626	49.641	0	857.90	0	3.3180	0	34.3060	0	27.307	0	848.818	0	13.6	4	4.2	4	-1E+10	1	-1E+10	1	-1E+10	1	-1E+10	1	-1E+10	1	-1E+10	1
4902551	48	C	12/07/2021	08:00	-133.626	49.641	0	863.10	0	3.3050	0	34.3080	0	27.310	0	853.952	0	13.5	4	4.2	4	-1E+10	1	-1E+10	1	-1E+10	1	-1E+10	1	-1E+10	1	-1E+10	1
4902551	48	C	12/07/2021	08:00	-133.626	49.641	0	867.80	0	3.2980	0	34.3100	0	27.312	0	858.593	0	13.5	4	4.2	4	-1E+10	1	-1E+10	1	-1E+10	1	-1E+10	1	-1E+10	1	-1E+10	1
4902551	48	C	12/07/2021	08:00	-133.626	49.641	0	872.60	0	3.2870	0	34.3120	0	27.315	0	863.332	0	13.4	4	4.2	4	-1E+10	1	-1E+10	1	-1E+10	1	-1E+10	1	-1E+10	1	-1E+10	1
4902551	48	C	12/07/2021	08:00	-133.626	49.641	0	877.90	0	3.2770	0	34.3140	0	27.318	0	868.565	0	13.4	4	4.2	4	-1E+10	1	-1E+10	1	-1E+10	1	-1E+10	1	-1E+10	1	-1E+10	1
4902551	48	C	12/07/2021	08:00	-133.626	49.641	0	883.20	0	3.2670	0	34.3160	0	27.320	0	873.797	0	13.3	4	4.1	4	-1E+10	1	-1E+10	1	-1E+10	1	-1E+10	1	-1E+10	1	-1E+10	1
4902551	48	C	12/07/2021	08:00	-133.626	49.641	0	888.00	0	3.2590	0	34.3180	0	27.322	0	878.536	0	13.3	4	4.1	4	-1E+10	1	-1E+10	1	-1E+10	1	-1E+10	1	-1E+10	1	-1E+10	1
4902551	48	C	12/07/2021	08:00	-133.626	49.641	0	892.90	0	3.2450	0	34.3210	0	27.326	0	883.374	0	13.3	4	4.1	4	-1E+10	1	-1E+10	1	-1E+10	1	-1E+10	1	-1E+10	1	-1E+10	1
4902551	48	C	12/07/2021	08:00	-133.626	49.641	0	897.80	0	3.2350	0	34.3230	0	27.329	0	888.211	0	13.2	4	4.1	4	-1E+10	1	-1E+10	1	-1E+10	1	-1E+10	1	-1E+10	1	-1E+10	1
4902551	48	C	12/07/2021	08:00	-133.626	49.641	0	902.70	0	3.2300	0	34.3240	0	27.330	0	893.048	0	13.2	4	4.1	4	-1E+10	1	-1E+10	1	-1E+10	1	-1E+10	1	-1E+10	1	-1E+10	1
4902551	48	C	12/07/2021	08:00	-133.626	49.641	0	907.60	0	3.2170	0	34.3270	0	27.334	0	897.885	0	13.1	4	4.1	4	-1E+10	1	-1E+10	1	-1E+10	1	-1E+10	1	-1E+10	1	-1E+10	1
4902551	48	C	12/07/2021	08:00	-133.626	49.641	0	912.50	0	3.2110	0	34.3280	0	27.335	0	902.722	0	13.1	4	4.0	4	-1E+10	1	-1E+10	1	-1E+10	1	-1E+10	1	-1E+10	1	-1E+10	1
4902551	48	C	12/07/2021	08:00	-133.626	49.641	0	917.50	0	3.2020	0	34.3300	0	27.338	0	907.658	0	13.0	4	4.0	4	-1E+10	1	-1E+10	1	-1E+10	1	-1E+10	1	-1E+10	1	-1E+10	1
4902551	48	C	12/07/2021	08:00	-133.626	49.641	0	922.90	0	3.1920	0	34.3320	0	27.340	0	912.988	0	12.9	4	4.0	4	-1E+10	1	-1E+10	1	-1E+10	1	-1E+10	1	-1E+10	1	-1E+10	1
4902551	48	C	12/07/2021	08:00	-133.626	49.641	0	928.40	0	3.1820	0	34.3350	0	27.343	0	918.417	0	12.8	4	4.0	4	-1E+10	1	-1E+10	1	-1E+10	1	-1E+10	1	-1E+10	1	-1E+10	1
4902551	48	C	12/07/2021	08:00	-133.626	49.641	0	933.30	0	3.1710	0	34.3370	0	27.346	0	923.253	0	12.8	4	4.0	4	-1E+10	1	-1E+10	1	-1E+10	1	-1E+10	1	-1E+10	1	-1E+10	1
4902551	48	C	12/07/2021	08:00	-133.626	49.641	0	938.30	0	3.1630	0	34.3390	0	27.348	0	928.188	0	12.8	4	4.0	4	-1E+10	1	-1E+10	1	-1E+10	1	-1E+10	1	-1E+10	1	-1E+10	1
4902551	48	C	12/07/2021	08:00	-133.626	49.641	0	943.30	0	3.1570	0	34.3400	0	27.350	0	933.123	0	12.7	4	3.9	4	-1E+10	1	-1E+10	1	-1E+10	1	-1E+10	1	-1E+10	1	-1E+10	1
4902551	48	C	12/07/2021	08:00	-133.626	49.641	0	948.30	0	3.1500	0	34.3420	0	27.352	0	938.058	0	12.7	4	3.9	4	-1E+10	1	-1E+10	1	-1E+10	1	-1E+10	1	-1E+10	1	-1E+10	1
4902551	48	C	12/07/2021	08:00	-133.626	49.641	0	953.40	0	3.1390	0	34.3450	0	27.356	0	943.092	0	12.7	4	3.9	4	-1E+10	1	-1E+10	1	-1E+10	1	-1E+10	1	-1E+10	1	-1E+10	1
4902551	48	C	12/07/2021	08:00	-133.626	49.641	0	958.00	0	3.1310	0	34.3470	0	27.358	0	947.632	0	12.6	4	3.9	4	-1E+10	1	-1E+10	1	-1E+10	1	-1E+10	1	-1E+10	1	-1E+10	1
4902551	48	C	12/07/2021	08:00	-133.626	49.641	0	962.60	0	3.1240	0	34.3480	0	27.359	0	952.171	0	12.6	4	3.9	4	-1E+10	1	-1E+10	1	-1E+10	1	-1E+10	1	-1E+10	1	-1E+10	1
4902551	48	C	12/07/2021	08:00	-133.626	49.641	0	967.70	0	3.1110	0	34.3510	0	27.363	0	957.204	0	12.6	4	3.9	4	-1E+10	1	-1E+10	1	-1E+10	1	-1E+10	1	-1E+10	1	-1E+10	1
4902551	48	C	12/07/2021	08:00	-133.626	49.641	0	972.90	0	3.1060	0	34.3520	0	27.364	0	962.336	0	12.6	4	3.9	4	-1E+10	1	-1E+10	1	-1E+10	1	-1E+10	1	-1E+10	1	-1E+10	1
4902551	48	C	12/07/2021	08:00	-133.626	49.641	0	978.20	0	3.1000	0	34.3530	0	27.366	0	967.566	0	12.6	4	3.9	4	-1E+10	1	-1E+10	1	-1E+10	1	-1E+10	1	-1E+10	1	-1E+10	1
4902551	48	C	12/07/2021	08:00	-133.626	49.641	0	982.90	0	3.0920	0	34.3560	0	27.369	0	972.204	0	12.5	4	3.9	4	-1E+10	1	-1E+10	1	-1E+10	1	-1E+10	1	-1E+10	1	-1E+10	1
4902551	48	C	12/07/2021	08:00	-133.626	49.641	0	987.60	0	3.0780	0	34.3590	0	27.372	0	976.842	0	12.5	4	3.9	4	-1E+10	1	-1E+10	1	-1E+10	1	-1E+10	1	-1E+10	1	-1E+10	1
4902551	48	C	12/07/2021	08:00	-133.626	49.641	0	993.00	0	3.0650	0	34.3620	0	27.376	0	982.171	0	12.5	4	3.9	4	-1E+10	1	-1E+10	1	-1E+10	1	-1E+10	1	-1E+10	1	-1E+10	1
4902551	48	C	12/07/2021	08:00	-133.626	49.641	0	998.20	0	3.0590	0	34.3630	0	27.377	0	987.302	0	12.5	4	3.9	4	-1E+10	1	-1E+10	1	-1E+10	1	-1E+10	1	-1E+10	1	-1E+10	1
4902551	48	C	12/07/2021	08:00	-133.626	49.641	0	1005.60	0	3.0500	0	34.3650	0	27.380	0	994.603	0	12.5	4	3.9	4	-1E+10	1	-1E+10	1	-1E+10	1	-1E+10	1	-1E+10	1	-1E+10	1
4902551	48	C	12/07/2021	08:00	-133.626	49.641	0	1015.40	0	3.0320	0	34.3700	0	27.386	0	1004.273	0	12.4	4	3.8	4	-1E+10	1	-1E+10	1	-1E+10	1	-1E+10	1	-1E+10	1	-1E+10	1
4902551	48	C	12/07/2021	08:00	-133.626	49.641	0	1025.40	0	3.0150	0	34.3750	0	27.391	0	1014.139	0	12.3	4	3.8	4	-1E+10	1	-1E+10	1	-1E+10	1	-1E+10	1	-1E+10	1	-1E+10	1
4902551	48	C	12/07/2021	08:00	-133.626	49.641	0	1035.50	0	3.0020	0	34.3780	0	27.395	0	1024.104	0	12.3	4	3.8	4	-1E+10	1	-1E+10	1	-1E+10	1	-1E+10	1	-1E+10	1	-1E+10	1
4902551	48	C	12/07/2021	08:00	-133.626	49.641	0	1045.40	0	2.9880	0	34.3820	0	27.399	0	1033.870	0	12.3	4	3.8	4	-1E+10	1	-1E+10	1	-1E+10	1	-1E+10	1	-1E+10	1	-1E+10	1
4902551	48	C	12/07/2021	08:00	-133.626	49.641	0	1055.50	0	2.9760	0	34.3850	0	27.403	0	1043.834	0	12.3	4	3.8	4	-1E+10	1	-1E+10	1	-1E+10	1	-1E+10	1	-1E+10	1	-1E+10	1
4902551	48	C	12/07/2021	08:00	-133.626	49.641	0	1065.50	0	2.9610	0	34.3880	0	27.407	0	1053.698	0	12.3	4	3.8	4	-1E+10	1	-1E+10	1	-1E+10	1	-1E+10	1	-1E+10	1	-1E+10	1
4902551	48	C	12/07/2021	08:00	-133.626	49.641	0	1075.70	0	2.9420	0	34.3920	0	27.412	0	1063.759	0	12.4	4	3.8	4	-1E+10	1	-1E+10	1	-1E+10	1	-1E+10	1	-1E+10	1	-1E+10	1
4902551	48	C	12/07/2021	08:00	-133.626	49.641	0	1085.60	0	2.9300	0	34.3950	0	27.415	0	1073.524	0	12.4	4	3.8	4	-1E+10	1	-1E+10	1	-1E+10	1	-1E+10	1	-1E+10	1	-1E+10	1
4902551	48	C	12/07/2021	08:00	-133.626	49.641	0	1095.20	0	2.9200	0	34.3970	0	27.418	0	1082.992	0	12.4	4	3.8	4	-1E+10	1	-1E+10	1	-1E+10	1	-1E+10	1	-1E+10	1	-1E+10	1
4902551	48	C	12/07/2021	08:00	-133.626	49.641	0	1105.30	0	2.9120	0	34.3980	0	27.419	0	1092.954	0	12.4	4	3.8	4	-1E+10	1	-1E+10	1	-1E+10	1	-1E+10	1	-1E+10	1	-1E+10	1
4902551	48	C	12/07/2021	08:00	-133.626	49.641	0	1115.50	0	2.9020	0	34.4000	0	27.422	0	1103.013	0	12.5	4	3.8	4	-1E+10	1	-1E+10	1	-1E+10	1	-1E+10	1	-1E+10	1	-1E+10	1
4902551	48	C	12/07/2021	08:00	-133.626	49.641	0	1125.30	0	2.8870	0	34.4030	0	27.426	0	1112.677	0	12.5	4	3.9	4	-1E+10	1	-1E+10	1	-1E+10	1	-1E+10	1	-1E+10	1	-1E+10	1
4902551	48	C	12/07/2021	08:00	-133.626	49.641	0	1135.10	0	2.8770	0	34.4060	0	27.429	0	1122.341	0	12.6	4	3.9	4	-1E+10	1	-1E+10	1	-1E+10	1	-1E+10	1	-1E+10	1	-1E+10	1
4902551	48	C	12/07/2021	08:00	-133.626	49.641	0	1145.20	0	2.8630	0	34.4090	0	27.433	0	1132.300	0	12.7	4	3.9	4	-1E+10	1	-1E+10	1	-1E+10	1	-1E+10	1	-1E+10	1	-1E+10	1
4902551	48	C	12/07/2021	08:00	-133.626	49.641	0	1155.40	0	2.8500	0	34.4110	0	27.435	0	1142.358	0	12.8	4	3.9	4	-1E+10	1	-1E+10	1	-1E+10	1	-1E+10	1	-1E+10	1	-1E+10	1
4902551	48	C	12/07/2021	08:00	-133.626	49.641	0	1165.50	0	2.8350	0	34.4150	0	27.440	0	1152.316	0	12.8	4	3.9	4	-1E+10	1	-1E+10	1	-1E+10	1	-1E+10	1	-1E+10	1	-1E+10	1
4902551	48	C	12/07/2021	08:00	-133.626	49.641	0	1175.70	0	2.8250	0	34.4170	0	27.443	0	1162.372	0	12.9	4	3.9	4	-1E+10	1	-1E+10	1	-1E+10	1	-1E+10	1	-1E+10	1	-1E+10	1
4902551	48	C	12/07/2021	08:00	-133.626	49.641	0	1185.20	0	2.8170	0	34.4200	0	27.446	0	1171.738	0	12.9	4	4.0	4	-1E+10	1	-1E+10	1	-1E+10	1	-1E+10	1	-1E+10	1	-1E+10	1
4902551	48	C	12/07/2021	08:00	-133.626	49.641	0	1195.50	0	2.8040	0	34.4220	0	27.449	0	1181.892	0	13.0	4	4.0	4	-1E+10	1	-1E+10	1	-1E+10	1	-1E+10	1	-1E+10	1	-1E+10	1
4902551	48	C	12/07/2021	08:00	-133.626	49.641	0	1205.70	0	2.7900	0	34.4250	0	27.452	0	1191.947	0	13.2	4	4.0	4	-1E+10	1	-1E+10	1	-1E+10	1	-1E+10	1	-1E+10	1	-1E+10	1
4902551	48	C	12/07/2021	08:00	-133.626	49.641	0	1215.50	0	2.7750	0	34.4280	0	27.456	0	1201.608	0	13.3	4	4.1	4	-1E+10	1	-1E+10	1	-1E+10	1	-1E+10	1	-1E+10	1	-1E+10	1
4902551	48	C	12/07/2021	08:00	-133.626	49.641	0	1225.20	0	2.7660	0	34.4300	0	27.458	0	1211.169	0	13.4	4	4.1	4	-1E+10	1	-1E+10	1	-1E+10	1	-1E+10	1	-1E+10	1	-1E+10	1
4902551	48	C	12/07/2021	08:00	-133.626	49.641	0	1235.50	0	2.7520	0	34.4320	0	27.461	0	1221.321	0	13.6	4	4.2	4	-1E+10	1	-1E+10	1	-1E+10	1	-1E+10	1	-1E+10	1	-1E+10	1
4902551	48	C	12/07/2021	08:00	-133.626	49.641	0	1246.00	0	2.7390	0	34.4340	0	27.464	0	1231.670	0	13.7	4	4.2	4	-1E+10	1	-1E+10	1	-1E+10	1	-1E+10	1	-1E+10	1	-1E+10	1
4902551	48	C	12/07/2021	08:00	-133.626	49.641	0	1255.60	0	2.7290	0	34.4360	0	27.467	0	1241.131	0	13.8	4	4.2	4	-1E+10	1	-1E+10	1	-1E+10	1	-1E+10	1	-1E+10	1	-1E+10	1
4902551	48	C	12/07/2021	08:00	-133.626	49.641	0	1265.50	0	2.7140	0	34.4390	0	27.470	0	1250.888	0	14.1	4	4.3	4	-1E+10	1	-1E+10	1	-1E+10	1	-1E+10	1	-1E+10	1	-1E+10	1
4902551	48	C	12/07/2021	08:00	-133.626	49.641	0	1275.70	0	2.6930	0	34.4430	0	27.475	0	1260.939	0	14.3	4	4.4	4	-1E+10	1	-1E+10	1	-1E+10	1	-1E+10	1	-1E+10	1	-1E+10	1
4902551	48	C	12/07/2021	08:00	-133.626	49.641	0	1285.50	0	2.6800	0	34.4450	0	27.478	0	1270.596	0	14.6	4	4.5	4	-1E+10	1	-1E+10	1	-1E+10	1	-1E+10	1	-1E+10	1	-1E+10	1
4902551	48	C	12/07/2021	08:00	-133.626	49.641	0	1295.30	0	2.6600	0	34.4490	0	27.483	0	1280.253	0	15.0	4	4.6	4	-1E+10	1	-1E+10	1	-1E+10	1	-1E+10	1	-1E+10	1	-1E+10	1
4902551	48	C	12/07/2021	08:00	-133.626	49.641	0	1305.40	0	2.6400	0	34.4520	0	27.487	0	1290.205	0	15.3	4	4.7	4	-1E+10	1	-1E+10	1	-1E+10	1	-1E+10	1	-1E+10	1	-1E+10	1
4902551	48	C	12/07/2021	08:00	-133.626	49.641	0	1315.60	0	2.6270	0	34.4550	0	27.491	0	1300.255	0	15.5	4	4.7	4	-1E+10	1	-1E+10	1	-1E+10	1	-1E+10	1	-1E+10	1	-1E+10	1
4902551	48	C	12/07/2021	08:00	-133.626	49.641	0	1325.30	0	2.6150	0	34.4570	0	27.494	0	1309.811	0	15.7	4	4.8	4	-1E+10	1	-1E+10	1	-1E+10	1	-1E+10	1	-1E+10	1	-1E+10	1
4902551	48	C	12/07/2021	08:00	-133.626	49.641	0	1335.30	0	2.6070	0	34.4580	0	27.495	0	1319.663	0	15.9	4	4.9	4	-1E+10	1	-1E+10	1	-1E+10	1	-1E+10	1	-1E+10	1	-1E+10	1
4902551	48	C	12/07/2021	08:00	-133.626	49.641	0	1345.80	0	2.5950	0	34.4600	0	27.498	0	1330.007	0	16.2	4	5.0	4	-1E+10	1	-1E+10	1	-1E+10	1	-1E+10	1	-1E+10	1	-1E+10	1
4902551	48	C	12/07/2021	08:00	-133.626	49.641	0	1355.80	0	2.5810	0	34.4630	0	27.501	0	1339.858	0	16.5	4	5.0	4	-1E+10	1	-1E+10	1	-1E+10	1	-1E+10	1	-1E+10	1	-1E+10	1
4902551	48	C	12/07/2021	08:00	-133.626	49.641	0	1365.40	0	2.5700	0	34.4650	0	27.504	0	1349.314	0	16.8	4	5.1	4	-1E+10	1	-1E+10	1	-1E+10	1	-1E+10	1	-1E+10	1	-1E+10	1
4902551	48	C	12/07/2021	08:00	-133.626	49.641	0	1375.40	0	2.5570	0	34.4680	0	27.508	0	1359.164	0	17.2	4	5.2	4	-1E+10	1	-1E+10	1	-1E+10	1	-1E+10	1	-1E+10	1	-1E+10	1
4902551	48	C	12/07/2021	08:00	-133.626	49.641	0	1385.40	0	2.5410	0	34.4710	0	27.511	0	1369.014	0	17.5	4	5.3	4	-1E+10	1	-1E+10	1	-1E+10	1	-1E+10	1	-1E+10	1	-1E+10	1
4902551	48	C	12/07/2021	08:00	-133.626	49.641	0	1395.40	0	2.5310	0	34.4730	0	27.514	0	1378.863	0	17.7	4	5.4	4	-1E+10	1	-1E+10	1	-1E+10	1	-1E+10	1	-1E+10	1	-1E+10	1
4902551	48	C	12/07/2021	08:00	-133.626	49.641	0	1405.20	0	2.5250	0	34.4740	0	27.515	0	1388.515	0	18.0	4	5.5	4	-1E+10	1	-1E+10	1	-1E+10	1	-1E+10	1	-1E+10	1	-1E+10	1
4902551	48	C	12/07/2021	08:00	-133.626	49.641	0	1415.30	0	2.5170	0	34.4750	0	27.517	0	1398.461	0	18.3	4	5.6	4	-1E+10	1	-1E+10	1	-1E+10	1	-1E+10	1	-1E+10	1	-1E+10	1
4902551	48	C	12/07/2021	08:00	-133.626	49.641	0	1425.20	0	2.5060	0	34.4770	0	27.519	0	1408.210	0	18.6	4	5.7	4	-1E+10	1	-1E+10	1	-1E+10	1	-1E+10	1	-1E+10	1	-1E+10	1
4902551	48	C	12/07/2021	08:00	-133.626	49.641	0	1435.40	0	2.5000	0	34.4790	0	27.522	0	1418.255	0	18.9	4	5.8	4	-1E+10	1	-1E+10	1	-1E+10	1	-1E+10	1	-1E+10	1	-1E+10	1
4902551	48	C	12/07/2021	08:00	-133.626	49.641	0	1445.30	0	2.4890	0	34.4810	0	27.524	0	1428.003	0	19.4	4	5.9	4	-1E+10	1	-1E+10	1	-1E+10	1	-1E+10	1	-1E+10	1	-1E+10	1
4902551	48	C	12/07/2021	08:00	-133.626	49.641	0	1455.40	0	2.4760	0	34.4830	0	27.527	0	1437.948	0	19.8	4	6.0	4	-1E+10	1	-1E+10	1	-1E+10	1	-1E+10	1	-1E+10	1	-1E+10	1
4902551	48	C	12/07/2021	08:00	-133.626	49.641	0	1465.60	0	2.4590	0	34.4860	0	27.531	0	1447.990	0	20.2	4	6.2	4	-1E+10	1	-1E+10	1	-1E+10	1	-1E+10	1	-1E+10	1	-1E+10	1
4902551	48	C	12/07/2021	08:00	-133.626	49.641	0	1475.40	0	2.4470	0	34.4880	0	27.533	0	1457.639	0	20.6	4	6.3	4	-1E+10	1	-1E+10	1	-1E+10	1	-1E+10	1	-1E+10	1	-1E+10	1
4902551	48	C	12/07/2021	08:00	-133.626	49.641	0	1485.30	0	2.4360	0	34.4900	0	27.536	0	1467.385	0	21.1	4	6.4	4	-1E+10	1	-1E+10	1	-1E+10	1	-1E+10	1	-1E+10	1	-1E+10	1
4902551	48	C	12/07/2021	08:00	-133.626	49.641	0	1495.20	0	2.4180	0	34.4930	0	27.540	0	1477.131	0	21.7	4	6.6	4	-1E+10	1	-1E+10	1	-1E+10	1	-1E+10	1	-1E+10	1	-1E+10	1
4902551	48	C	12/07/2021	08:00	-133.626	49.641	0	1505.20	0	2.4010	0	34.4960	0	27.544	0	1486.975	0	22.1	4	6.7	4	-1E+10	1	-1E+10	1	-1E+10	1	-1E+10	1	-1E+10	1	-1E+10	1
4902551	48	C	12/07/2021	08:00	-133.626	49.641	0	1515.50	0	2.3870	0	34.4980	0	27.547	0	1497.114	0	22.5	4	6.9	4	-1E+10	1	-1E+10	1	-1E+10	1	-1E+10	1	-1E+10	1	-1E+10	1
4902551	48	C	12/07/2021	08:00	-133.626	49.641	0	1525.60	0	2.3770	0	34.5000	0	27.549	0	1507.056	0	23.0	4	7.0	4	-1E+10	1	-1E+10	1	-1E+10	1	-1E+10	1	-1E+10	1	-1E+10	1
4902551	48	C	12/07/2021	08:00	-133.626	49.641	0	1535.60	0	2.3670	0	34.5020	0	27.551	0	1516.898	0	23.6	4	7.2	4	-1E+10	1	-1E+10	1	-1E+10	1	-1E+10	1	-1E+10	1	-1E+10	1
4902551	48	C	12/07/2021	08:00	-133.626	49.641	0	1545.60	0	2.3490	0	34.5050	0	27.555	0	1526.740	0	24.3	4	7.4	4	-1E+10	1	-1E+10	1	-1E+10	1	-1E+10	1	-1E+10	1	-1E+10	1
4902551	48	C	12/07/2021	08:00	-133.626	49.641	0	1555.40	0	2.3330	0	34.5080	0	27.559	0	1536.385	0	25.0	4	7.6	4	-1E+10	1	-1E+10	1	-1E+10	1	-1E+10	1	-1E+10	1	-1E+10	1
4902551	48	C	12/07/2021	08:00	-133.626	49.641	0	1565.60	0	2.3200	0	34.5100	0	27.562	0	1546.423	0	25.6	4	7.8	4	-1E+10	1	-1E+10	1	-1E+10	1	-1E+10	1	-1E+10	1	-1E+10	1
4902551	48	C	12/07/2021	08:00	-133.626	49.641	0	1575.60	0	2.3020	0	34.5130	0	27.566	0	1556.264	0	26.2	4	8.0	4	-1E+10	1	-1E+10	1	-1E+10	1	-1E+10	1	-1E+10	1	-1E+10	1
4902551	48	C	12/07/2021	08:00	-133.626	49.641	0	1585.60	0	2.2910	0	34.5160	0	27.569	0	1566.104	0	26.6	4	8.1	4	-1E+10	1	-1E+10	1	-1E+10	1	-1E+10	1	-1E+10	1	-1E+10	1
4902551	48	C	12/07/2021	08:00	-133.626	49.641	0	1595.70	0	2.2830	0	34.5170	0	27.571	0	1576.043	0	27.1	4	8.2	4	-1E+10	1	-1E+10	1	-1E+10	1	-1E+10	1	-1E+10	1	-1E+10	1
4902551	48	C	12/07/2021	08:00	-133.626	49.641	0	1605.50	0	2.2740	0	34.5190	0	27.573	0	1585.685	0	27.6	4	8.4	4	-1E+10	1	-1E+10	1	-1E+10	1	-1E+10	1	-1E+10	1	-1E+10	1
4902551	48	C	12/07/2021	08:00	-133.626	49.641	0	1615.30	0	2.2680	0	34.5200	0	27.574	0	1595.327	0	28.1	4	8.5	4	-1E+10	1	-1E+10	1	-1E+10	1	-1E+10	1	-1E+10	1	-1E+10	1
4902551	48	C	12/07/2021	08:00	-133.626	49.641	0	1625.10	0	2.2570	0	34.5220	0	27.577	0	1604.969	0	28.7	4	8.7	4	-1E+10	1	-1E+10	1	-1E+10	1	-1E+10	1	-1E+10	1	-1E+10	1
4902551	48	C	12/07/2021	08:00	-133.626	49.641	0	1635.40	0	2.2440	0	34.5240	0	27.580	0	1615.102	0	29.4	4	8.9	4	-1E+10	1	-1E+10	1	-1E+10	1	-1E+10	1	-1E+10	1	-1E+10	1
4902551	48	C	12/07/2021	08:00	-133.626	49.641	0	1645.70	0	2.2320	0	34.5260	0	27.582	0	1625.235	0	30.0	4	9.1	4	-1E+10	1	-1E+10	1	-1E+10	1	-1E+10	1	-1E+10	1	-1E+10	1
4902551	48	C	12/07/2021	08:00	-133.626	49.641	0	1655.60	0	2.2240	0	34.5280	0	27.585	0	1634.974	0	30.5	4	9.2	4	-1E+10	1	-1E+10	1	-1E+10	1	-1E+10	1	-1E+10	1	-1E+10	1
4902551	48	C	12/07/2021	08:00	-133.626	49.641	0	1665.60	0	2.2140	0	34.5300	0	27.587	0	1644.810	0	31.2	4	9.4	4	-1E+10	1	-1E+10	1	-1E+10	1	-1E+10	1	-1E+10	1	-1E+10	1
4902551	48	C	12/07/2021	08:00	-133.626	49.641	0	1675.50	0	2.2010	0	34.5320	0	27.590	0	1654.548	0	31.7	4	9.6	4	-1E+10	1	-1E+10	1	-1E+10	1	-1E+10	1	-1E+10	1	-1E+10	1
4902551	48	C	12/07/2021	08:00	-133.626	49.641	0	1685.30	0	2.1920	0	34.5340	0	27.592	0	1664.187	0	32.3	4	9.8	4	-1E+10	1	-1E+10	1	-1E+10	1	-1E+10	1	-1E+10	1	-1E+10	1
4902551	48	C	12/07/2021	08:00	-133.626	49.641	0	1695.30	0	2.1840	0	34.5350	0	27.594	0	1674.022	0	32.8	4	9.9	4	-1E+10	1	-1E+10	1	-1E+10	1	-1E+10	1	-1E+10	1	-1E+10	1
4902551	48	C	12/07/2021	08:00	-133.626	49.641	0	1705.50	0	2.1750	0	34.5370	0	27.596	0	1684.054	0	33.3	4	10.1	4	-1E+10	1	-1E+10	1	-1E+10	1	-1E+10	1	-1E+10	1	-1E+10	1
4902551	48	C	12/07/2021	08:00	-133.626	49.641	0	1715.50	0	2.1690	0	34.5380	0	27.597	0	1693.888	0	33.9	4	10.3	4	-1E+10	1	-1E+10	1	-1E+10	1	-1E+10	1	-1E+10	1	-1E+10	1
4902551	48	C	12/07/2021	08:00	-133.626	49.641	0	1725.40	0	2.1560	0	34.5400	0	27.600	0	1703.624	0	34.7	4	10.5	4	-1E+10	1	-1E+10	1	-1E+10	1	-1E+10	1	-1E+10	1	-1E+10	1
4902551	48	C	12/07/2021	08:00	-133.626	49.641	0	1735.50	0	2.1410	0	34.5430	0	27.604	0	1713.555	0	35.4	4	10.7	4	-1E+10	1	-1E+10	1	-1E+10	1	-1E+10	1	-1E+10	1	-1E+10	1
4902551	48	C	12/07/2021	08:00	-133.626	49.641	0	1745.60	0	2.1320	0	34.5450	0	27.606	0	1723.487	0	36.1	4	10.9	4	-1E+10	1	-1E+10	1	-1E+10	1	-1E+10	1	-1E+10	1	-1E+10	1
4902551	48	C	12/07/2021	08:00	-133.626	49.641	0	1755.50	0	2.1220	0	34.5470	0	27.608	0	1733.221	0	36.8	4	11.1	4	-1E+10	1	-1E+10	1	-1E+10	1	-1E+10	1	-1E+10	1	-1E+10	1
4902551	48	C	12/07/2021	08:00	-133.626	49.641	0	1765.10	0	2.1130	0	34.5490	0	27.611	0	1742.660	0	37.4	4	11.3	4	-1E+10	1	-1E+10	1	-1E+10	1	-1E+10	1	-1E+10	1	-1E+10	1
4902551	48	C	12/07/2021	08:00	-133.626	49.641	0	1775.50	0	2.1070	0	34.5500	0	27.612	0	1752.885	0	38.1	4	11.5	4	-1E+10	1	-1E+10	1	-1E+10	1	-1E+10	1	-1E+10	1	-1E+10	1
4902551	48	C	12/07/2021	08:00	-133.626	49.641	0	1785.30	0	2.0970	0	34.5520	0	27.615	0	1762.519	0	38.7	4	11.7	4	-1E+10	1	-1E+10	1	-1E+10	1	-1E+10	1	-1E+10	1	-1E+10	1
4902551	48	C	12/07/2021	08:00	-133.626	49.641	0	1795.10	0	2.0930	0	34.5530	0	27.616	0	1772.153	0	39.2	4	11.9	4	-1E+10	1	-1E+10	1	-1E+10	1	-1E+10	1	-1E+10	1	-1E+10	1
4902551	48	C	12/07/2021	08:00	-133.626	49.641	0	1805.40	0	2.0850	0	34.5550	0	27.618	0	1782.278	0	39.9	4	12.1	4	-1E+10	1	-1E+10	1	-1E+10	1	-1E+10	1	-1E+10	1	-1E+10	1
4902551	48	C	12/07/2021	08:00	-133.626	49.641	0	1815.80	0	2.0760	0	34.5560	0	27.620	0	1792.501	0	40.7	4	12.3	4	-1E+10	1	-1E+10	1	-1E+10	1	-1E+10	1	-1E+10	1	-1E+10	1
4902551	48	C	12/07/2021	08:00	-133.626	49.641	0	1825.30	0	2.0640	0	34.5580	0	27.622	0	1801.839	0	41.6	4	12.6	4	-1E+10	1	-1E+10	1	-1E+10	1	-1E+10	1	-1E+10	1	-1E+10	1
4902551	48	C	12/07/2021	08:00	-133.626	49.641	0	1835.30	0	2.0510	0	34.5610	0	27.626	0	1811.668	0	42.5	4	12.8	4	-1E+10	1	-1E+10	1	-1E+10	1	-1E+10	1	-1E+10	1	-1E+10	1
4902551	48	C	12/07/2021	08:00	-133.626	49.641	0	1845.60	0	2.0430	0	34.5630	0	27.628	0	1821.791	0	43.1	4	13.0	4	-1E+10	1	-1E+10	1	-1E+10	1	-1E+10	1	-1E+10	1	-1E+10	1
4902551	48	C	12/07/2021	08:00	-133.626	49.641	0	1855.70	0	2.0340	0	34.5640	0	27.630	0	1831.717	0	43.8	4	13.2	4	-1E+10	1	-1E+10	1	-1E+10	1	-1E+10	1	-1E+10	1	-1E+10	1
4902551	48	C	12/07/2021	08:00	-133.626	49.641	0	1865.50	0	2.0280	0	34.5660	0	27.632	0	1841.348	0	44.5	4	13.4	4	-1E+10	1	-1E+10	1	-1E+10	1	-1E+10	1	-1E+10	1	-1E+10	1
4902551	48	C	12/07/2021	08:00	-133.626	49.641	0	1875.20	0	2.0220	0	34.5670	0	27.633	0	1850.881	0	45.2	4	13.6	4	-1E+10	1	-1E+10	1	-1E+10	1	-1E+10	1	-1E+10	1	-1E+10	1
4902551	48	C	12/07/2021	08:00	-133.626	49.641	0	1885.20	0	2.0140	0	34.5690	0	27.635	0	1860.707	0	45.8	4	13.8	4	-1E+10	1	-1E+10	1	-1E+10	1	-1E+10	1	-1E+10	1	-1E+10	1
4902551	48	C	12/07/2021	08:00	-133.626	49.641	0	1895.30	0	2.0070	0	34.5710	0	27.637	0	1870.632	0	46.4	4	14.0	4	-1E+10	1	-1E+10	1	-1E+10	1	-1E+10	1	-1E+10	1	-1E+10	1
4902551	48	C	12/07/2021	08:00	-133.626	49.641	0	1905.20	0	2.0020	0	34.5720	0	27.639	0	1880.359	0	46.9	4	14.1	4	-1E+10	1	-1E+10	1	-1E+10	1	-1E+10	1	-1E+10	1	-1E+10	1
4902551	48	C	12/07/2021	08:00	-133.626	49.641	0	1915.20	0	1.9960	0	34.5730	0	27.640	0	1890.184	0	47.3	4	14.3	4	-1E+10	1	-1E+10	1	-1E+10	1	-1E+10	1	-1E+10	1	-1E+10	1
4902551	48	C	12/07/2021	08:00	-133.626	49.641	0	1925.30	0	1.9900	0	34.5740	0	27.641	0	1900.107	0	47.8	4	14.4	4	-1E+10	1	-1E+10	1	-1E+10	1	-1E+10	1	-1E+10	1	-1E+10	1
4902551	48	C	12/07/2021	08:00	-133.626	49.641	0	1935.10	0	1.9870	0	34.5750	0	27.642	0	1909.735	0	48.2	4	14.5	4	-1E+10	1	-1E+10	1	-1E+10	1	-1E+10	1	-1E+10	1	-1E+10	1
4902551	48	C	12/07/2021	08:00	-133.626	49.641	0	1945.00	0	1.9810	0	34.5760	0	27.644	0	1919.461	0	48.6	4	14.6	4	-1E+10	1	-1E+10	1	-1E+10	1	-1E+10	1	-1E+10	1	-1E+10	1
4902551	48	C	12/07/2021	08:00	-133.626	49.641	0	1955.10	0	1.9760	0	34.5770	0	27.645	0	1929.382	0	48.9	4	14.7	4	-1E+10	1	-1E+10	1	-1E+10	1	-1E+10	1	-1E+10	1	-1E+10	1
4902551	48	C	12/07/2021	08:00	-133.626	49.641	0	1965.70	0	1.9710	0	34.5780	0	27.646	0	1939.795	0	48.8	4	14.7	4	-1E+10	1	-1E+10	1	-1E+10	1	-1E+10	1	-1E+10	1	-1E+10	1
4902551	48	C	12/07/2021	08:00	-133.626	49.641	0	1971.70	0	1.9700	0	34.5790	0	27.647	0	1945.688	0	48.4	4	14.6	4	-1E+10	1	-1E+10	1	-1E+10	1	-1E+10	1	-1E+10	1	-1E+10	1
4902551	48	C	12/07/2021	08:00	-133.626	49.641	0																										
4902551	49	C	12/17/2021	13:06	-133.504	49.566	0	0.30	0	7.9180	0	32.2860	0	25.155	0	0.297	0	271.8	4	92.7	4	-1E+10	1	-1E+10	1	-1E+10	1	-1E+10	1	-1E+10	1	-1E+10	1
4902551	49	C	12/17/2021	13:06	-133.504	49.566	0	0.80	0	7.9190	0	32.2850	0	25.154	0	0.793	0	271.7	4	92.7	4	-1E+10	1	-1E+10	1	-1E+10	1	-1E+10	1	-1E+10	1	-1E+10	1
4902551	49	C	12/17/2021	13:06	-133.504	49.566	0	2.00	0	7.9180	0	32.2870	0	25.156	0	1.983	0	271.8	4	92.7	4	-1E+10	1	-1E+10	1	-1E+10	1	-1E+10	1	-1E+10	1	-1E+10	1
4902551	49	C	12/17/2021	13:06	-133.504	49.566	0	3.00	0	7.9180	0	32.2870	0	25.156	0	2.974	0	271.8	4	92.7	4	-1E+10	1	-1E+10	1	-1E+10	1	-1E+10	1	-1E+10	1	-1E+10	1
4902551	49	C	12/17/2021	13:06	-133.504	49.566	0	3.90	0	7.9180	0	32.2880	0	25.157	0	3.867	0	271.8	4	92.7	4	-1E+10	1	-1E+10	1	-1E+10	1	-1E+10	1	-1E+10	1	-1E+10	1
4902551	49	C	12/17/2021	13:06	-133.504	49.566	0	5.00	0	7.9180	0	32.2880	0	25.157	0	4.957	0	271.7	4	92.7	4	-1E+10	1	-1E+10	1	-1E+10	1	-1E+10	1	-1E+10	1	-1E+10	1
4902551	49	C	12/17/2021	13:06	-133.504	49.566	0	5.90	0	7.9180	0	32.2880	0	25.157	0	5.850	0	271.6	4	92.6	4	-1E+10	1	-1E+10	1	-1E+10	1	-1E+10	1	-1E+10	1	-1E+10	1
4902551	49	C	12/17/2021	13:06	-133.504	49.566	0	7.00	0	7.9210	0	32.2900	0	25.158	0	6.940	0	271.5	4	92.6	4	-1E+10	1	-1E+10	1	-1E+10	1	-1E+10	1	-1E+10	1	-1E+10	1
4902551	49	C	12/17/2021	13:06	-133.504	49.566	0	8.20	0	7.9210	0	32.2920	0	25.159	0	8.130	0	271.4	4	92.6	4	-1E+10	1	-1E+10	1	-1E+10	1	-1E+10	1	-1E+10	1	-1E+10	1
4902551	49	C	12/17/2021	13:06	-133.504	49.566	0	8.80	0	7.9220	0	32.2920	0	25.159	0	8.725	0	271.5	4	92.6	4	-1E+10	1	-1E+10	1	-1E+10	1	-1E+10	1	-1E+10	1	-1E+10	1
4902551	49	C	12/17/2021	13:06	-133.504	49.566	0	9.90	0	7.9220	0	32.2920	0	25.159	0	9.815	0	271.4	4	92.6	4	-1E+10	1	-1E+10	1	-1E+10	1	-1E+10	1	-1E+10	1	-1E+10	1
4902551	49	C	12/17/2021	13:06	-133.504	49.566	0	11.10	0	7.9230	0	32.2910	0	25.158	0	11.005	0	271.4	4	92.6	4	-1E+10	1	-1E+10	1	-1E+10	1	-1E+10	1	-1E+10	1	-1E+10	1
4902551	49	C	12/17/2021	13:06	-133.504	49.566	0	11.80	0	7.9220	0	32.2910	0	25.159	0	11.699	0	271.4	4	92.6	4	-1E+10	1	-1E+10	1	-1E+10	1	-1E+10	1	-1E+10	1	-1E+10	1
4902551	49	C	12/17/2021	13:06	-133.504	49.566	0	12.90	0	7.9230	0	32.2910	0	25.158	0	12.790	0	271.4	4	92.6	4	-1E+10	1	-1E+10	1	-1E+10	1	-1E+10	1	-1E+10	1	-1E+10	1
4902551	49	C	12/17/2021	13:06	-133.504	49.566	0	13.90	0	7.9220	0	32.2910	0	25.159	0	13.781	0	271.4	4	92.6	4	-1E+10	1	-1E+10	1	-1E+10	1	-1E+10	1	-1E+10	1	-1E+10	1
4902551	49	C	12/17/2021	13:06	-133.504	49.566	0	14.80	0	7.9220	0	32.2920	0	25.159	0	14.673	0	271.3	4	92.6	4	-1E+10	1	-1E+10	1	-1E+10	1	-1E+10	1	-1E+10	1	-1E+10	1
4902551	49	C	12/17/2021	13:06	-133.504	49.566	0	15.80	0	7.9230	0	32.2920	0	25.159	0	15.665	0	271.3	4	92.5	4	-1E+10	1	-1E+10	1	-1E+10	1	-1E+10	1	-1E+10	1	-1E+10	1
4902551	49	C	12/17/2021	13:06	-133.504	49.566	0	17.00	0	7.9220	0	32.2920	0	25.159	0	16.854	0	271.3	4	92.5	4	-1E+10	1	-1E+10	1	-1E+10	1	-1E+10	1	-1E+10	1	-1E+10	1
4902551	49	C	12/17/2021	13:06	-133.504	49.566	0	18.20	0	7.9210	0	32.2920	0	25.160	0	18.044	0	271.3	4	92.5	4	-1E+10	1	-1E+10	1	-1E+10	1	-1E+10	1	-1E+10	1	-1E+10	1
4902551	49	C	12/17/2021	13:06	-133.504	49.566	0	18.80	0	7.9220	0	32.2920	0	25.159	0	18.639	0	271.3	4	92.5	4	-1E+10	1	-1E+10	1	-1E+10	1	-1E+10	1	-1E+10	1	-1E+10	1
4902551	49	C	12/17/2021	13:06	-133.504	49.566	0	19.90	0	7.9230	0	32.2920	0	25.159	0	19.729	0	271.2	4	92.5	4	-1E+10	1	-1E+10	1	-1E+10	1	-1E+10	1	-1E+10	1	-1E+10	1
4902551	49	C	12/17/2021	13:06	-133.504	49.566	0	20.90	0	7.9230	0	32.2920	0	25.159	0	20.721	0	271.2	4	92.5	4	-1E+10	1	-1E+10	1	-1E+10	1	-1E+10	1	-1E+10	1	-1E+10	1
4902551	49	C	12/17/2021	13:06	-133.504	49.566	0	22.00	0	7.9230	0	32.2930	0	25.160	0	21.811	0	271.2	4	92.5	4	-1E+10	1	-1E+10	1	-1E+10	1	-1E+10	1	-1E+10	1	-1E+10	1
4902551	49	C	12/17/2021	13:06	-133.504	49.566	0	23.10	0	7.9240	0	32.2920	0	25.159	0	22.902	0	271.1	4	92.5	4	-1E+10	1	-1E+10	1	-1E+10	1	-1E+10	1	-1E+10	1	-1E+10	1
4902551	49	C	12/17/2021	13:06	-133.504	49.566	0	23.90	0	7.9230	0	32.2920	0	25.159	0	23.695	0	271.2	4	92.5	4	-1E+10	1	-1E+10	1	-1E+10	1	-1E+10	1	-1E+10	1	-1E+10	1
4902551	49	C	12/17/2021	13:06	-133.504	49.566	0	25.20	0	7.9230	0	32.2930	0	25.160	0	24.983	0	271.2	4	92.5	4	-1E+10	1	-1E+10	1	-1E+10	1	-1E+10	1	-1E+10	1	-1E+10	1
4902551	49	C	12/17/2021	13:06	-133.504	49.566	0	26.00	0	7.9230	0	32.2930	0	25.160	0	25.777	0	271.2	4	92.5	4	-1E+10	1	-1E+10	1	-1E+10	1	-1E+10	1	-1E+10	1	-1E+10	1
4902551	49	C	12/17/2021	13:06	-133.504	49.566	0	26.90	0	7.9210	0	32.2920	0	25.160	0	26.669	0	271.2	4	92.5	4	-1E+10	1	-1E+10	1	-1E+10	1	-1E+10	1	-1E+10	1	-1E+10	1
4902551	49	C	12/17/2021	13:06	-133.504	49.566	0	27.70	0	7.9210	0	32.2920	0	25.160	0	27.462	0	271.2	4	92.5	4	-1E+10	1	-1E+10	1	-1E+10	1	-1E+10	1	-1E+10	1	-1E+10	1
4902551	49	C	12/17/2021	13:06	-133.504	49.566	0	28.90	0	7.9210	0	32.2920	0	25.160	0	28.651	0	271.1	4	92.5	4	-1E+10	1	-1E+10	1	-1E+10	1	-1E+10	1	-1E+10	1	-1E+10	1
4902551	49	C	12/17/2021	13:06	-133.504	49.566	0	30.10	0	7.9210	0	32.2910	0	25.159	0	29.841	0	271.1	4	92.5	4	-1E+10	1	-1E+10	1	-1E+10	1	-1E+10	1	-1E+10	1	-1E+10	1
4902551	49	C	12/17/2021	13:06	-133.504	49.566	0	31.00	0	7.9210	0	32.2920	0	25.160	0	30.733	0	271.1	4	92.5	4	-1E+10	1	-1E+10	1	-1E+10	1	-1E+10	1	-1E+10	1	-1E+10	1
4902551	49	C	12/17/2021	13:06	-133.504	49.566	0	32.20	0	7.9200	0	32.2930	0	25.161	0	31.923	0	271.0	4	92.4	4	-1E+10	1	-1E+10	1	-1E+10	1	-1E+10	1	-1E+10	1	-1E+10	1
4902551	49	C	12/17/2021	13:06	-133.504	49.566	0	32.90	0	7.9180	0	32.2910	0	25.159	0	32.617	0	271.1	4	92.5	4	-1E+10	1	-1E+10	1	-1E+10	1	-1E+10	1	-1E+10	1	-1E+10	1
4902551	49	C	12/17/2021	13:06	-133.504	49.566	0	34.00	0	7.9190	0	32.2920	0	25.160	0	33.707	0	271.0	4	92.4	4	-1E+10	1	-1E+10	1	-1E+10	1	-1E+10	1	-1E+10	1	-1E+10	1
4902551	49	C	12/17/2021	13:06	-133.504	49.566	0	35.10	0	7.9210	0	32.2920	0	25.160	0	34.798	0	271.0	4	92.4	4	-1E+10	1	-1E+10	1	-1E+10	1	-1E+10	1	-1E+10	1	-1E+10	1
4902551	49	C	12/17/2021	13:06	-133.504	49.566	0	36.00	0	7.9210	0	32.2920	0	25.160	0	35.690	0	271.0	4	92.4	4	-1E+10	1	-1E+10	1	-1E+10	1	-1E+10	1	-1E+10	1	-1E+10	1
4902551	49	C	12/17/2021	13:06	-133.504	49.566	0	36.70	0	7.9210	0	32.2920	0	25.160	0	36.384	0	270.9	4	92.4	4	-1E+10	1	-1E+10	1	-1E+10	1	-1E+10	1	-1E+10	1	-1E+10	1
4902551	49	C	12/17/2021	13:06	-133.504	49.566	0	37.90	0	7.9200	0	32.2920	0	25.160	0	37.573	0	270.9	4	92.4	4	-1E+10	1	-1E+10	1	-1E+10	1	-1E+10	1	-1E+10	1	-1E+10	1
4902551	49	C	12/17/2021	13:06	-133.504	49.566	0	39.00	0	7.9210	0	32.2920	0	25.160	0	38.664	0	270.9	4	92.4	4	-1E+10	1	-1E+10	1	-1E+10	1	-1E+10	1	-1E+10	1	-1E+10	1
4902551	49	C	12/17/2021	13:06	-133.504	49.566	0	39.90	0	7.9210	0	32.2930	0	25.161	0	39.556	0	271.0	4	92.4	4	-1E+10	1	-1E+10	1	-1E+10	1	-1E+10	1	-1E+10	1	-1E+10	1
4902551	49	C	12/17/2021	13:06	-133.504	49.566	0	40.80	0	7.9220	0	32.2920	0	25.160	0	40.448	0	270.9	4	92.4	4	-1E+10	1	-1E+10	1	-1E+10	1	-1E+10	1	-1E+10	1	-1E+10	1
4902551	49	C	12/17/2021	13:06	-133.504	49.566	0	41.90	0	7.9230	0	32.2920	0	25.160	0	41.538	0	270.8	4	92.4	4	-1E+10	1	-1E+10	1	-1E+10	1	-1E+10	1	-1E+10	1	-1E+10	1
4902551	49	C	12/17/2021	13:06	-133.504	49.566	0	43.00	0	7.9240	0	32.2920	0	25.159	0	42.629	0	270.8	4	92.4	4	-1E+10	1	-1E+10	1	-1E+10	1	-1E+10	1	-1E+10	1	-1E+10	1
4902551	49	C	12/17/2021	13:06	-133.504	49.566	0	44.00	0	7.9240	0	32.2920	0	25.159	0	43.620	0	270.7	4	92.4	4	-1E+10	1	-1E+10	1	-1E+10	1	-1E+10	1	-1E+10	1	-1E+10	1
4902551	49	C	12/17/2021	13:06	-133.504	49.566	0	44.90	0	7.9240	0	32.2920	0	25.159	0	44.512	0	270.6	4	92.3	4	-1E+10	1	-1E+10	1	-1E+10	1	-1E+10	1	-1E+10	1	-1E+10	1
4902551	49	C	12/17/2021	13:06	-133.504	49.566	0	46.00	0	7.9240	0	32.2920	0	25.159	0	45.602	0	270.6	4	92.3	4	-1E+10	1	-1E+10	1	-1E+10	1	-1E+10	1	-1E+10	1	-1E+10	1
4902551	49	C	12/17/2021	13:06	-133.504	49.566	0	47.20	0	7.9210	0	32.2950	0	25.162	0	46.792	0	270.6	4	92.3	4	-1E+10	1	-1E+10	1	-1E+10	1	-1E+10	1	-1E+10	1	-1E+10	1
4902551	49	C	12/17/2021	13:06	-133.504	49.566	0	48.10	0	7.9240	0	32.2910	0	25.159	0	47.684	0	270.5	4	92.3	4	-1E+10	1	-1E+10	1	-1E+10	1	-1E+10	1	-1E+10	1	-1E+10	1
4902551	49	C	12/17/2021	13:06	-133.504	49.566	0	48.80	0	7.9250	0	32.2920	0	25.159	0	48.378	0	270.4	4	92.2	4	-1E+10	1	-1E+10	1	-1E+10	1	-1E+10	1	-1E+10	1	-1E+10	1
4902551	49	C	12/17/2021	13:06	-133.504	49.566	0	50.00	0	7.9230	0	32.2910	0	25.159	0	49.567	0	270.2	4	92.2	4	-1E+10	1	-1E+10	1	-1E+10	1	-1E+10	1	-1E+10	1	-1E+10	1
4902551	49	C	12/17/2021	13:06	-133.504	49.566	0	50.90	0	7.9140	0	32.2940	0	25.163	0	50.459	0	270.3	4	92.2	4	-1E+10	1	-1E+10	1	-1E+10	1	-1E+10	1	-1E+10	1	-1E+10	1
4902551	49	C	12/17/2021	13:06	-133.504	49.566	0	52.10	0	7.8820	0	32.2960	0	25.169	0	51.649	0	270.3	4	92.1	4	-1E+10	1	-1E+10	1	-1E+10	1	-1E+10	1	-1E+10	1	-1E+10	1
4902551	49	C	12/17/2021	13:06	-133.504	49.566	0	53.00	0	7.8710	0	32.2820	0	25.159	0	52.541	0	270.3	4	92.1	4	-1E+10	1	-1E+10	1	-1E+10	1	-1E+10	1	-1E+10	1	-1E+10	1
4902551	49	C	12/17/2021	13:06	-133.504	49.566	0	54.00	0	7.8800	0	32.2800	0	25.156	0	53.532	0	270.2	4	92.1	4	-1E+10	1	-1E+10	1	-1E+10	1	-1E+10	1	-1E+10	1	-1E+10	1
4902551	49	C	12/17/2021	13:06	-133.504	49.566	0	55.00	0	7.8810	0	32.2870	0	25.162	0	54.523	0	270.1	4	92.0	4	-1E+10	1	-1E+10	1	-1E+10	1	-1E+10	1	-1E+10	1	-1E+10	1
4902551	49	C	12/17/2021	13:06	-133.504	49.566	0	56.00	0	7.8560	0	32.2900	0	25.168	0	55.515	0	270.0	4	92.0	4	-1E+10	1	-1E+10	1	-1E+10	1	-1E+10	1	-1E+10	1	-1E+10	1
4902551	49	C	12/17/2021	13:06	-133.504	49.566	0	57.10	0	7.8160	0	32.2900	0	25.173	0	56.605	0	270.0	4	91.9	4	-1E+10	1	-1E+10	1	-1E+10	1	-1E+10	1	-1E+10	1	-1E+10	1
4902551	49	C	12/17/2021	13:06	-133.504	49.566	0	57.90	0	7.8110	0	32.2830	0	25.169	0	57.398	0	270.1	4	91.9	4	-1E+10	1	-1E+10	1	-1E+10	1	-1E+10	1	-1E+10	1	-1E+10	1
4902551	49	C	12/17/2021	13:06	-133.504	49.566	0	58.70	0	7.8040	0	32.2830	0	25.170	0	58.191	0	270.0	4	91.9	4	-1E+10	1	-1E+10	1	-1E+10	1	-1E+10	1	-1E+10	1	-1E+10	1
4902551	49	C	12/17/2021	13:06	-133.504	49.566	0	59.80	0	7.7990	0	32.2810	0	25.169	0	59.281	0	269.9	4	91.8	4	-1E+10	1	-1E+10	1	-1E+10	1	-1E+10	1	-1E+10	1	-1E+10	1
4902551	49	C	12/17/2021	13:06	-133.504	49.566	0	61.00	0	7.7970	0	32.2810	0	25.169	0	60.471	0	269.9	4	91.8	4	-1E+10	1	-1E+10	1	-1E+10	1	-1E+10	1	-1E+10	1	-1E+10	1
4902551	49	C	12/17/2021	13:06	-133.504	49.566	0	62.10	0	7.7960	0	32.2810	0	25.169	0	61.561	0	269.7	4	91.7	4	-1E+10	1	-1E+10	1	-1E+10	1	-1E+10	1	-1E+10	1	-1E+10	1
4902551	49	C	12/17/2021	13:06	-133.504	49.566	0	63.00	0	7.7920	0	32.2820	0	25.171	0	62.453	0	269.6	4	91.7	4	-1E+10	1	-1E+10	1	-1E+10	1	-1E+10	1	-1E+10	1	-1E+10	1
4902551	49	C	12/17/2021	13:06	-133.504	49.566	0	63.80	0	7.7910	0	32.2800	0	25.169	0	63.246	0	269.6	4	91.7	4	-1E+10	1	-1E+10	1	-1E+10	1	-1E+10	1	-1E+10	1	-1E+10	1
4902551	49	C	12/17/2021	13:06	-133.504	49.566	0	65.00	0	7.7890	0	32.2810	0	25.170	0	64.435	0	269.4	4	91.6	4	-1E+10	1	-1E+10	1	-1E+10	1	-1E+10	1	-1E+10	1	-1E+10	1
4902551	49	C	12/17/2021	13:06	-133.504	49.566	0	65.90	0	7.7900	0	32.2800	0	25.169	0	65.327	0	269.3	4	91.6	4	-1E+10	1	-1E+10	1	-1E+10	1	-1E+10	1	-1E+10	1	-1E+10	1
4902551	49	C	12/17/2021	13:06	-133.504	49.566	0	66.70	0	7.7900	0	32.2800	0	25.169	0	66.120	0	269.1	4	91.5	4	-1E+10	1	-1E+10	1	-1E+10	1	-1E+10	1	-1E+10	1	-1E+10	1
4902551	49	C	12/17/2021	13:06	-133.504	49.566	0	67.90	0	7.7880	0	32.2810	0	25.170	0	67.309	0	268.9	4	91.4	4	-1E+10	1	-1E+10	1	-1E+10	1	-1E+10	1	-1E+10	1	-1E+10	1
4902551	49	C	12/17/2021	13:06	-133.504	49.566	0	69.10	0	7.7750	0	32.2860	0	25.176	0	68.499	0	268.6	4	91.3	4	-1E+10	1	-1E+10	1	-1E+10	1	-1E+10	1	-1E+10	1	-1E+10	1
4902551	49	C	12/17/2021	13:06	-133.504	49.566	0	69.90	0	7.7730	0	32.2860	0	25.177	0	69.292	0	268.5	4	91.3	4	-1E+10	1	-1E+10	1	-1E+10	1	-1E+10	1	-1E+10	1	-1E+10	1
4902551	49	C	12/17/2021	13:06	-133.504	49.566	0	70.80	0	7.7710	0	32.2870	0	25.178	0	70.184	0	268.3	4	91.2	4	-1E+10	1	-1E+10	1	-1E+10	1	-1E+10	1	-1E+10	1	-1E+10	1
4902551	49	C	12/17/2021	13:06	-133.504	49.566	0	71.90	0	7.7660	0	32.2870	0	25.178	0	71.274	0	268.0	4	91.1	4	-1E+10	1	-1E+10	1	-1E+10	1	-1E+10	1	-1E+10	1	-1E+10	1
4902551	49	C	12/17/2021	13:06	-133.504	49.566	0	73.00	0	7.7600	0	32.2900	0	25.182	0	72.364	0	267.7	4	91.0	4	-1E+10	1	-1E+10	1	-1E+10	1	-1E+10	1	-1E+10	1	-1E+10	1
4902551	49	C	12/17/2021	13:06	-133.504	49.566	0	74.00	0	7.7290	0	32.2990	0	25.193	0	73.355	0	267.4	4	90.8	4	-1E+10	1	-1E+10	1	-1E+10	1	-1E+10	1	-1E+10	1	-1E+10	1
4902551	49	C	12/17/2021	13:06	-133.504	49.566	0	75.10	0	7.7170	0	32.3000	0	25.196	0	74.446	0	267.0	4	90.7	4	-1E+10	1	-1E+10	1	-1E+10	1	-1E+10	1	-1E+10	1	-1E+10	1
4902551	49	C	12/17/2021	13:06	-133.504	49.566	0	76.10	0	7.7040	0	32.3020	0	25.199	0	75.437	0	266.6	4	90.5	4	-1E+10	1	-1E+10	1	-1E+10	1	-1E+10	1	-1E+10	1	-1E+10	1
4902551	49	C	12/17/2021	13:06	-133.504	49.566	0	77.10	0	7.6820	0	32.3100	0	25.208	0	76.428	0	266.1	4	90.3	4	-1E+10	1	-1E+10	1	-1E+10	1	-1E+10	1	-1E+10	1	-1E+10	1
4902551	49	C	12/17/2021	13:06	-133.504	49.566	0	78.30	0	7.6700	0	32.3110	0	25.211	0	77.617	0	265.3	4	90.0	4	-1E+10	1	-1E+10	1	-1E+10	1	-1E+10	1	-1E+10	1	-1E+10	1
4902551	49	C	12/17/2021	13:06	-133.504	49.566	0	79.00	0	7.6570	0	32.3130	0	25.214	0	78.311	0	264.9	4	89.8	4	-1E+10	1	-1E+10	1	-1E+10	1	-1E+10	1	-1E+10	1	-1E+10	1
4902551	49	C	12/17/2021	13:06	-133.504	49.566	0	79.90	0	7.5610	0	32.3330	0	25.243	0	79.203	0	264.5	4	89.5	4	-1E+10	1	-1E+10	1	-1E+10	1	-1E+10	1	-1E+10	1	-1E+10	1
4902551	49	C	12/17/2021	13:06	-133.504	49.566	0	81.10	0	7.3890	0	32.3790	0	25.303	0	80.392	0	264.3	4	89.1	4	-1E+10	1	-1E+10	1	-1E+10	1	-1E+10	1	-1E+10	1	-1E+10	1
4902551	49	C	12/17/2021	13:06	-133.504	49.566	0	82.00	0	7.3090	0	32.3790	0	25.314	0	81.284	0	263.9	4	88.8	4	-1E+10	1	-1E+10	1	-1E+10	1	-1E+10	1	-1E+10	1	-1E+10	1
4902551	49	C	12/17/2021	13:06	-133.504	49.566	0	83.10	0	7.2230	0	32.3920	0	25.336	0	82.374	0	262.8	4	88.3	4	-1E+10	1	-1E+10	1	-1E+10	1	-1E+10	1	-1E+10	1	-1E+10	1
4902551	49	C	12/17/2021	13:06	-133.504	49.566	0	84.10	0	7.0920	0	32.4160	0	25.373	0	83.365	0	261.6	4	87.6	4	-1E+10	1	-1E+10	1	-1E+10	1	-1E+10	1	-1E+10	1	-1E+10	1
4902551	49	C	12/17/2021	13:06	-133.504	49.566	0	84.90	0	6.9400	0	32.4380	0	25.410	0	84.158	0	261.3	4	87.3	4	-1E+10	1	-1E+10	1	-1E+10	1	-1E+10	1	-1E+10	1	-1E+10	1
4902551	49	C	12/17/2021	13:06	-133.504	49.566	0	85.90	0	6.7570	0	32.4710	0	25.460	0	85.149	0	261.2	4	86.9	4	-1E+10	1	-1E+10	1	-1E+10	1	-1E+10	1	-1E+10	1	-1E+10	1
4902551	49	C	12/17/2021	13:06	-133.504	49.566	0	87.00	0	6.6060	0	32.4860	0	25.492	0	86.239	0	261.0	4	86.5	4	-1E+10	1	-1E+10	1	-1E+10	1	-1E+10	1	-1E+10	1	-1E+10	1
4902551	49	C	12/17/2021	13:06	-133.504	49.566	0	88.10	0	6.5850	0	32.4850	0	25.494	0	87.330	0	260.3	4	86.3	4	-1E+10	1	-1E+10	1	-1E+10	1	-1E+10	1	-1E+10	1	-1E+10	1
4902551	49	C	12/17/2021	13:06	-133.504	49.566	0	89.10	0	6.5120	0	32.5010	0	25.516	0	88.321	0	259.6	4	85.9	4	-1E+10	1	-1E+10	1	-1E+10	1	-1E+10	1	-1E+10	1	-1E+10	1
4902551	49	C	12/17/2021	13:06	-133.504	49.566	0	90.10	0	6.4180	0	32.5100	0	25.535	0	89.312	0	259.1	4	85.5	4	-1E+10	1	-1E+10	1	-1E+10	1	-1E+10	1	-1E+10	1	-1E+10	1
4902551	49	C	12/17/2021	13:06	-133.504	49.566	0	91.00	0	6.3870	0	32.5100	0	25.539	0	90.204	0	258.5	4	85.3	4	-1E+10	1	-1E+10	1	-1E+10	1	-1E+10	1	-1E+10	1	-1E+10	1
4902551	49	C	12/17/2021	13:06	-133.504	49.566	0	91.80	0	6.3700	0	32.5120	0	25.542	0	90.996	0	257.7	4	85.0	4	-1E+10	1	-1E+10	1	-1E+10	1	-1E+10	1	-1E+10	1	-1E+10	1
4902551	49	C	12/17/2021	13:06	-133.504	49.566	0	92.90	0	6.2810	0	32.5300	0	25.568	0	92.086	0	256.8	4	84.5	4	-1E+10	1	-1E+10	1	-1E+10	1	-1E+10	1	-1E+10	1	-1E+10	1
4902551	49	C	12/17/2021	13:06	-133.504	49.566	0	94.10	0	6.0840	0	32.5760	0	25.628	0	93.276	0	256.1	4	83.9	4	-1E+10	1	-1E+10	1	-1E+10	1	-1E+10	1	-1E+10	1	-1E+10	1
4902551	49	C	12/17/2021	13:06	-133.504	49.566	0	94.90	0	6.0320	0	32.5840	0	25.641	0	94.069	0	255.7	4	83.7	4	-1E+10	1	-1E+10	1	-1E+10	1	-1E+10	1	-1E+10	1	-1E+10	1
4902551	49	C	12/17/2021	13:06	-133.504	49.566	0	95.80	0	6.0230	0	32.5840	0	25.642	0	94.960	0	255.2	4	83.5	4	-1E+10	1	-1E+10	1	-1E+10	1	-1E+10	1	-1E+10	1	-1E+10	1
4902551	49	C	12/17/2021	13:06	-133.504	49.566	0	96.90	0	6.0070	0	32.5860	0	25.646	0	96.051	0	254.2	4	83.2	4	-1E+10	1	-1E+10	1	-1E+10	1	-1E+10	1	-1E+10	1	-1E+10	1
4902551	49	C	12/17/2021	13:06	-133.504	49.566	0	98.00	0	5.9900	0	32.5980	0	25.657	0	97.141	0	253.2	4	82.8	4	-1E+10	1	-1E+10	1	-1E+10	1	-1E+10	1	-1E+10	1	-1E+10	1
4902551	49	C	12/17/2021	13:06	-133.504	49.566	0	99.00	0	5.9870	0	32.6010	0	25.660	0	98.132	0	252.2	4	82.5	4	-1E+10	1	-1E+10	1	-1E+10	1	-1E+10	1	-1E+10	1	-1E+10	1
4902551	49	C	12/17/2021	13:06	-133.504	49.566	0	100.00	0	5.9790	0	32.6080	0	25.667	0	99.123	0	250.8	4	82.0	4	-1E+10	1	-1E+10	1	-1E+10	1	-1E+10	1	-1E+10	1	-1E+10	1
4902551	49	C	12/17/2021	13:06	-133.504	49.566	0	101.00	0	5.9820	0	32.6250	0	25.680	0	100.114	0	249.4	4	81.6	4	-1E+10	1	-1E+10	1	-1E+10	1	-1E+10	1	-1E+10	1	-1E+10	1
4902551	49	C	12/17/2021	13:06	-133.504	49.566	0	102.10	0	5.9910	0	32.6380	0	25.689	0	101.204	0	246.9	4	80.8	4	-1E+10	1	-1E+10	1	-1E+10	1	-1E+10	1	-1E+10	1	-1E+10	1
4902551	49	C	12/17/2021	13:06	-133.504	49.566	0	103.10	0	5.9970	0	32.6430	0	25.692	0	102.195	0	243.2	4	79.6	4	-1E+10	1	-1E+10	1	-1E+10	1	-1E+10	1	-1E+10	1	-1E+10	1
4902551	49	C	12/17/2021	13:06	-133.504	49.566	0	103.90	0	5.9990	0	32.6480	0	25.696	0	102.987	0	240.7	4	78.8	4	-1E+10	1	-1E+10	1	-1E+10	1	-1E+10	1	-1E+10	1	-1E+10	1
4902551	49	C	12/17/2021	13:06	-133.504	49.566	0	105.00	0	5.9870	0	32.6820	0	25.724	0	104.077	0	238.1	4	77.9	4	-1E+10	1	-1E+10	1	-1E+10	1	-1E+10	1	-1E+10	1	-1E+10	1
4902551	49	C	12/17/2021	13:06	-133.504	49.566	0	105.90	0	5.9860	0	32.6980	0	25.737	0	104.969	0	236.5	4	77.4	4	-1E+10	1	-1E+10	1	-1E+10	1	-1E+10	1	-1E+10	1	-1E+10	1
4902551	49	C	12/17/2021	13:06	-133.504	49.566	0	106.80	0	5.9860	0	32.7190	0	25.753	0	105.861	0	234.9	4	76.9	4	-1E+10	1	-1E+10	1	-1E+10	1	-1E+10	1	-1E+10	1	-1E+10	1
4902551	49	C	12/17/2021	13:06	-133.504	49.566	0	107.80	0	5.9910	0	32.7440	0	25.773	0	106.852	0	232.5	4	76.1	4	-1E+10	1	-1E+10	1	-1E+10	1	-1E+10	1	-1E+10	1	-1E+10	1
4902551	49	C	12/17/2021	13:06	-133.504	49.566	0	109.00	0	5.9960	0	32.7590	0	25.784	0	108.041	0	229.4	4	75.1	4	-1E+10	1	-1E+10	1	-1E+10	1	-1E+10	1	-1E+10	1	-1E+10	1
4902551	49	C	12/17/2021	13:06	-133.504	49.566	0	110.20	0	6.0070	0	32.7820	0	25.801	0	109.230	0	225.0	4	73.7	4	-1E+10	1	-1E+10	1	-1E+10	1	-1E+10	1	-1E+10	1	-1E+10	1
4902551	49	C	12/17/2021	13:06	-133.504	49.566	0	110.90	0	6.0110	0	32.8030	0	25.817	0	109.924	0	222.5	4	72.9	4	-1E+10	1	-1E+10	1	-1E+10	1	-1E+10	1	-1E+10	1	-1E+10	1
4902551	49	C	12/17/2021	13:06	-133.504	49.566	0	111.90	0	6.0200	0	32.8320	0	25.839	0	110.915	0	219.4	4	71.9	4	-1E+10	1	-1E+10	1	-1E+10	1	-1E+10	1	-1E+10	1	-1E+10	1
4902551	49	C	12/17/2021	13:06	-133.504	49.566	0	113.00	0	6.0250	0	32.8530	0	25.855	0	112.005	0	216.6	4	71.1	4	-1E+10	1	-1E+10	1	-1E+10	1	-1E+10	1	-1E+10	1	-1E+10	1
4902551	49	C	12/17/2021	13:06	-133.504	49.566	0	114.00	0	6.0260	0	32.8670	0	25.866	0	112.996	0	214.4	4	70.3	4	-1E+10	1	-1E+10	1	-1E+10	1	-1E+10	1	-1E+10	1	-1E+10	1
4902551	49	C	12/17/2021	13:06	-133.504	49.566	0	115.10	0	6.0350	0	32.8740	0	25.870	0	114.086	0	212.3	4	69.6	4	-1E+10	1	-1E+10	1	-1E+10	1	-1E+10	1	-1E+10	1	-1E+10	1
4902551	49	C	12/17/2021	13:06	-133.504	49.566	0	116.10	0	6.0460	0	32.9000	0	25.889	0	115.077	0	209.4	4	68.7	4	-1E+10	1	-1E+10	1	-1E+10	1	-1E+10	1	-1E+10	1	-1E+10	1
4902551	49	C	12/17/2021	13:06	-133.504	49.566	0	117.40	0	6.0540	0	32.9220	0	25.906	0	116.365	0	205.1	4	67.4	4	-1E+10	1	-1E+10	1	-1E+10	1	-1E+10	1	-1E+10	1	-1E+10	1
4902551	49	C	12/17/2021	13:06	-133.504	49.566	0	118.10	0	6.0640	0	32.9480	0	25.925	0	117.059	0	202.3	4	66.5	4	-1E+10	1	-1E+10	1	-1E+10	1	-1E+10	1	-1E+10	1	-1E+10	1
4902551	49	C	12/17/2021	13:06	-133.504	49.566	0	119.10	0	6.0820	0	32.9990	0	25.963	0	118.050	0	199.3	4	65.5	4	-1E+10	1	-1E+10	1	-1E+10	1	-1E+10	1	-1E+10	1	-1E+10	1
4902551	49	C	12/17/2021	13:06	-133.504	49.566	0	120.30	0	6.0880	0	33.0440	0	25.998	0	119.239	0	196.1	4	64.5	4	-1E+10	1	-1E+10	1	-1E+10	1	-1E+10	1	-1E+10	1	-1E+10	1
4902551	49	C	12/17/2021	13:06	-133.504	49.566	0	121.20	0	6.0900	0	33.0600	0	26.010	0	120.130	0	193.5	4	63.7	4	-1E+10	1	-1E+10	1	-1E+10	1	-1E+10	1	-1E+10	1	-1E+10	1
4902551	49	C	12/17/2021	13:06	-133.504	49.566	0	122.00	0	6.1060	0	33.0970	0	26.037	0	120.923	0	191.2	4	62.9	4	-1E+10	1	-1E+10	1	-1E+10	1	-1E+10	1	-1E+10	1	-1E+10	1
4902551	49	C	12/17/2021	13:06	-133.504	49.566	0	123.10	0	6.1240	0	33.1750	0	26.097	0	122.013	0	186.2	4	61.4	4	-1E+10	1	-1E+10	1	-1E+10	1	-1E+10	1	-1E+10	1	-1E+10	1
4902551	49	C	12/17/2021	13:06	-133.504	49.566	0	123.90	0	6.1320	0	33.2130	0	26.126	0	122.806	0	181.2	4	59.7	4	-1E+10	1	-1E+10	1	-1E+10	1	-1E+10	1	-1E+10	1	-1E+10	1
4902551	49	C	12/17/2021	13:06	-133.504	49.566	0	124.90	0	6.1370	0	33.2390	0	26.146	0	123.797	0	175.6	4	57.9	4	-1E+10	1	-1E+10	1	-1E+10	1	-1E+10	1	-1E+10	1	-1E+10	1
4902551	49	C	12/17/2021	13:06	-133.504	49.566	0	125.90	0	6.1410	0	33.3070	0	26.199	0	124.788	0	171.4	4	56.5	4	-1E+10	1	-1E+10	1	-1E+10	1	-1E+10	1	-1E+10	1	-1E+10	1
4902551	49	C	12/17/2021	13:06	-133.504	49.566	0	126.80	0	6.1390	0	33.3580	0	26.239	0	125.679	0	169.5	4	55.9	4	-1E+10	1	-1E+10	1	-1E+10	1	-1E+10	1	-1E+10	1	-1E+10	1
4902551	49	C	12/17/2021	13:06	-133.504	49.566	0	127.80	0	6.1380	0	33.3790	0	26.256	0	126.670	0	167.5	4	55.3	4	-1E+10	1	-1E+10	1	-1E+10	1	-1E+10	1	-1E+10	1	-1E+10	1
4902551	49	C	12/17/2021	13:06	-133.504	49.566	0	128.80	0	6.1370	0	33.3940	0	26.268	0	127.661	0	165.3	4	54.6	4	-1E+10	1	-1E+10	1	-1E+10	1	-1E+10	1	-1E+10	1	-1E+10	1
4902551	49	C	12/17/2021	13:06	-133.504	49.566	0	129.90	0	6.1350	0	33.4150	0	26.285	0	128.751	0	162.9	4	53.8	4	-1E+10	1	-1E+10	1	-1E+10	1	-1E+10	1	-1E+10	1	-1E+10	1
4902551	49	C	12/17/2021	13:06	-133.504	49.566	0	131.10	0	6.1330	0	33.4340	0	26.300	0	129.940	0	159.9	4	52.8	4	-1E+10	1	-1E+10	1	-1E+10	1	-1E+10	1	-1E+10	1	-1E+10	1
4902551	49	C	12/17/2021	13:06	-133.504	49.566	0	132.00	0	6.1310	0	33.4580	0	26.319	0	130.832	0	157.8	4	52.1	4	-1E+10	1	-1E+10	1	-1E+10	1	-1E+10	1	-1E+10	1	-1E+10	1
4902551	49	C	12/17/2021	13:06	-133.504	49.566	0	133.00	0	6.1260	0	33.4720	0	26.331	0	131.823	0	156.0	4	51.5	4	-1E+10	1	-1E+10	1	-1E+10	1	-1E+10	1	-1E+10	1	-1E+10	1
4902551	49	C	12/17/2021	13:06	-133.504	49.566	0	134.00	0	6.1140	0	33.5010	0	26.356	0	132.813	0	154.4	4	51.0	4	-1E+10	1	-1E+10	1	-1E+10	1	-1E+10	1	-1E+10	1	-1E+10	1
4902551	49	C	12/17/2021	13:06	-133.504	49.566	0	135.00	0	6.1120	0	33.5150	0	26.367	0	133.804	0	153.3	4	50.6	4	-1E+10	1	-1E+10	1	-1E+10	1	-1E+10	1	-1E+10	1	-1E+10	1
4902551	49	C	12/17/2021	13:06	-133.504	49.566	0	136.10	0	6.1090	0	33.5230	0	26.374	0	134.894	0	152.3	4	50.3	4	-1E+10	1	-1E+10	1	-1E+10	1	-1E+10	1	-1E+10	1	-1E+10	1
4902551	49	C	12/17/2021	13:06	-133.504	49.566	0	136.80	0	6.1080	0	33.5270	0	26.377	0	135.588	0	151.5	4	50.0	4	-1E+10	1	-1E+10	1	-1E+10	1	-1E+10	1	-1E+10	1	-1E+10	1
4902551	49	C	12/17/2021	13:06	-133.504	49.566	0	137.90	0	6.1030	0	33.5380	0	26.386	0	136.678	0	150.6	4	49.7	4	-1E+10	1	-1E+10	1	-1E+10	1	-1E+10	1	-1E+10	1	-1E+10	1
4902551	49	C	12/17/2021	13:06	-133.504	49.566	0	139.00	0	6.1010	0	33.5470	0	26.394	0	137.767	0	149.5	4	49.4	4	-1E+10	1	-1E+10	1	-1E+10	1	-1E+10	1	-1E+10	1	-1E+10	1
4902551	49	C	12/17/2021	13:06	-133.504	49.566	0	139.70	0	6.1000	0	33.5480	0	26.394	0	138.461	0	148.6	4	49.1	4	-1E+10	1	-1E+10	1	-1E+10	1	-1E+10	1	-1E+10	1	-1E+10	1
4902551	49	C	12/17/2021	13:06	-133.504	49.566	0	140.80	0	6.0910	0	33.5620	0	26.407	0	139.551	0	147.3	4	48.6	4	-1E+10	1	-1E+10	1	-1E+10	1	-1E+10	1	-1E+10	1	-1E+10	1
4902551	49	C	12/17/2021	13:06	-133.504	49.566	0	141.90	0	6.0890	0	33.5670	0	26.411	0	140.641	0	145.8	4	48.1	4	-1E+10	1	-1E+10	1	-1E+10	1	-1E+10	1	-1E+10	1	-1E+10	1
4902551	49	C	12/17/2021	13:06	-133.504	49.566	0	143.00	0	6.0860	0	33.5720	0	26.415	0	141.731	0	144.1	4	47.6	4	-1E+10	1	-1E+10	1	-1E+10	1	-1E+10	1	-1E+10	1	-1E+10	1
4902551	49	C	12/17/2021	13:06	-133.504	49.566	0	144.10	0	6.0820	0	33.5800	0	26.422	0	142.820	0	142.3	4	47.0	4	-1E+10	1	-1E+10	1	-1E+10	1	-1E+10	1	-1E+10	1	-1E+10	1
4902551	49	C	12/17/2021	13:06	-133.504	49.566	0	144.80	0	6.0780	0	33.5850	0	26.426	0	143.514	0	141.1	4	46.6	4	-1E+10	1	-1E+10	1	-1E+10	1	-1E+10	1	-1E+10	1	-1E+10	1
4902551	49	C	12/17/2021	13:06	-133.504	49.566	0	146.00	0	6.0410	0	33.6310	0	26.467	0	144.703	0	139.9	4	46.2	4	-1E+10	1	-1E+10	1	-1E+10	1	-1E+10	1	-1E+10	1	-1E+10	1
4902551	49	C	12/17/2021	13:06	-133.504	49.566	0	147.20	0	6.0350	0	33.6430	0	26.478	0	145.892	0	139.0	4	45.9	4	-1E+10	1	-1E+10	1	-1E+10	1	-1E+10	1	-1E+10	1	-1E+10	1
4902551	49	C	12/17/2021	13:06	-133.504	49.566	0	148.00	0	6.0350	0	33.6430	0	26.478	0	146.684	0	138.3	4	45.7	4	-1E+10	1	-1E+10	1	-1E+10	1	-1E+10	1	-1E+10	1	-1E+10	1
4902551	49	C	12/17/2021	13:06	-133.504	49.566	0	148.80	0	6.0340	0	33.6430	0	26.478	0	147.477	0	137.6	4	45.4	4	-1E+10	1	-1E+10	1	-1E+10	1	-1E+10	1	-1E+10	1	-1E+10	1
4902551	49	C	12/17/2021	13:06	-133.504	49.566	0	150.00	0	6.0220	0	33.6550	0	26.489	0	148.666	0	136.5	4	45.0	4	-1E+10	1	-1E+10	1	-1E+10	1	-1E+10	1	-1E+10	1	-1E+10	1
4902551	49	C	12/17/2021	13:06	-133.504	49.566	0	151.30	0	6.0030	0	33.6690	0	26.502	0	149.954	0	135.6	4	44.7	4	-1E+10	1	-1E+10	1	-1E+10	1	-1E+10	1	-1E+10	1	-1E+10	1
4902551	49	C	12/17/2021	13:06	-133.504	49.566	0	152.10	0	5.9980	0	33.6720	0	26.505	0	150.746	0	135.1	4	44.6	4	-1E+10	1	-1E+10	1	-1E+10	1	-1E+10	1	-1E+10	1	-1E+10	1
4902551	49	C	12/17/2021	13:06	-133.504	49.566	0	153.00	0	5.9900	0	33.6770	0	26.510	0	151.638	0	134.6	4	44.4	4	-1E+10	1	-1E+10	1	-1E+10	1	-1E+10	1	-1E+10	1	-1E+10	1
4902551	49	C	12/17/2021	13:06	-133.504	49.566	0	153.80	0	5.9830	0	33.6820	0	26.515	0	152.431	0	134.2	4	44.2	4	-1E+10	1	-1E+10	1	-1E+10	1	-1E+10	1	-1E+10	1	-1E+10	1
4902551	49	C	12/17/2021	13:06	-133.504	49.566	0	154.70	0	5.9800	0	33.6830	0	26.516	0	153.322	0	133.8	4	44.1	4	-1E+10	1	-1E+10	1	-1E+10	1	-1E+10	1	-1E+10	1	-1E+10	1
4902551	49	C	12/17/2021	13:06	-133.504	49.566	0	155.90	0	5.9640	0	33.6900	0	26.524	0	154.511	0	132.9	4	43.8	4	-1E+10	1	-1E+10	1	-1E+10	1	-1E+10	1	-1E+10	1	-1E+10	1
4902551	49	C	12/17/2021	13:06	-133.504	49.566	0	157.20	0	5.9610	0	33.6920	0	26.526	0	155.799	0	131.8	4	43.4	4	-1E+10	1	-1E+10	1	-1E+10	1	-1E+10	1	-1E+10	1	-1E+10	1
4902551	49	C	12/17/2021	13:06	-133.504	49.566	0	158.10	0	5.9590	0	33.6930	0	26.527	0	156.691	0	131.1	4	43.2	4	-1E+10	1	-1E+10	1	-1E+10	1	-1E+10	1	-1E+10	1	-1E+10	1
4902551	49	C	12/17/2021	13:06	-133.504	49.566	0	158.90	0	5.9550	0	33.6960	0	26.530	0	157.483	0	130.3	4	42.9	4	-1E+10	1	-1E+10	1	-1E+10	1	-1E+10	1	-1E+10	1	-1E+10	1
4902551	49	C	12/17/2021	13:06	-133.504	49.566	0	159.80	0	5.9330	0	33.7080	0	26.542	0	158.375	0	129.7	4	42.7	4	-1E+10	1	-1E+10	1	-1E+10	1	-1E+10	1	-1E+10	1	-1E+10	1
4902551	49	C	12/17/2021	13:06	-133.504	49.566	0	160.60	0	5.9200	0	33.7150	0	26.549	0	159.168	0	129.0	4	42.5	4	-1E+10	1	-1E+10	1	-1E+10	1	-1E+10	1	-1E+10	1	-1E+10	1
4902551	49	C	12/17/2021	13:06	-133.504	49.566	0	161.90	0	5.8840	0	33.7250	0	26.561	0	160.455	0	128.2	4	42.2	4	-1E+10	1	-1E+10	1	-1E+10	1	-1E+10	1	-1E+10	1	-1E+10	1
4902551	49	C	12/17/2021	13:06	-133.504	49.566	0	163.30	0	5.8470	0	33.7310	0	26.571	0	161.842	0	127.5	4	41.9	4	-1E+10	1	-1E+10	1	-1E+10	1	-1E+10	1	-1E+10	1	-1E+10	1
4902551	49	C	12/17/2021	13:06	-133.504	49.566	0	164.20	0	5.8390	0	33.7340	0	26.574	0	162.734	0	127.1	4	41.8	4	-1E+10	1	-1E+10	1	-1E+10	1	-1E+10	1	-1E+10	1	-1E+10	1
4902551	49	C	12/17/2021	13:06	-133.504	49.566	0	165.00	0	5.8260	0	33.7380	0	26.579	0	163.527	0	126.7	4	41.6	4	-1E+10	1	-1E+10	1	-1E+10	1	-1E+10	1	-1E+10	1	-1E+10	1
4902551	49	C	12/17/2021	13:06	-133.504	49.566	0	165.90	0	5.8140	0	33.7410	0	26.583	0	164.418	0	126.3	4	41.5	4	-1E+10	1	-1E+10	1	-1E+10	1	-1E+10	1	-1E+10	1	-1E+10	1
4902551	49	C	12/17/2021	13:06	-133.504	49.566	0	166.80	0	5.8090	0	33.7420	0	26.584	0	165.310	0	125.9	4	41.3	4	-1E+10	1	-1E+10	1	-1E+10	1	-1E+10	1	-1E+10	1	-1E+10	1
4902551	49	C	12/17/2021	13:06	-133.504	49.566	0	167.70	0	5.8020	0	33.7430	0	26.586	0	166.201	0	125.4	4	41.2	4	-1E+10	1	-1E+10	1	-1E+10	1	-1E+10	1	-1E+10	1	-1E+10	1
4902551	49	C	12/17/2021	13:06	-133.504	49.566	0	168.90	0	5.7930	0	33.7450	0	26.588	0	167.390	0	124.8	4	41.0	4	-1E+10	1	-1E+10	1	-1E+10	1	-1E+10	1	-1E+10	1	-1E+10	1
4902551	49	C	12/17/2021	13:06	-133.504	49.566	0	170.30	0	5.7900	0	33.7460	0	26.590	0	168.777	0	124.2	4	40.8	4	-1E+10	1	-1E+10	1	-1E+10	1	-1E+10	1	-1E+10	1	-1E+10	1
4902551	49	C	12/17/2021	13:06	-133.504	49.566	0	171.20	0	5.7870	0	33.7460	0	26.590	0	169.669	0	123.6	4	40.6	4	-1E+10	1	-1E+10	1	-1E+10	1	-1E+10	1	-1E+10	1	-1E+10	1
4902551	49	C	12/17/2021	13:06	-133.504	49.566	0	172.00	0	5.7850	0	33.7460	0	26.590	0	170.461	0	123.0	4	40.4	4	-1E+10	1	-1E+10	1	-1E+10	1	-1E+10	1	-1E+10	1	-1E+10	1
4902551	49	C	12/17/2021	13:06	-133.504	49.566	0	172.90	0	5.7750	0	33.7520	0	26.596	0	171.353	0	122.5	4	40.2	4	-1E+10	1	-1E+10	1	-1E+10	1	-1E+10	1	-1E+10	1	-1E+10	1
4902551	49	C	12/17/2021	13:06	-133.504	49.566	0	173.80	0	5.7600	0	33.7540	0	26.600	0	172.244	0	121.9	4	40.0	4	-1E+10	1	-1E+10	1	-1E+10	1	-1E+10	1	-1E+10	1	-1E+10	1
4902551	49	C	12/17/2021	13:06	-133.504	49.566	0	174.70	0	5.7480	0	33.7550	0	26.602	0	173.136	0	121.4	4	39.8	4	-1E+10	1	-1E+10	1	-1E+10	1	-1E+10	1	-1E+10	1	-1E+10	1
4902551	49	C	12/17/2021	13:06	-133.504	49.566	0	175.90	0	5.7360	0	33.7590	0	26.607	0	174.325	0	120.5	4	39.5	4	-1E+10	1	-1E+10	1	-1E+10	1	-1E+10	1	-1E+10	1	-1E+10	1
4902551	49	C	12/17/2021	13:06	-133.504	49.566	0	177.30	0	5.7120	0	33.7630	0	26.613	0	175.712	0	119.8	4	39.3	4	-1E+10	1	-1E+10	1	-1E+10	1	-1E+10	1	-1E+10	1	-1E+10	1
4902551	49	C	12/17/2021	13:06	-133.504	49.566	0	178.20	0	5.7050	0	33.7640	0	26.614	0	176.603	0	119.3	4	39.1	4	-1E+10	1	-1E+10	1	-1E+10	1	-1E+10	1	-1E+10	1	-1E+10	1
4902551	49	C	12/17/2021	13:06	-133.504	49.566	0	179.10	0	5.6990	0	33.7660	0	26.617	0	177.495	0	118.9	4	39.0	4	-1E+10	1	-1E+10	1	-1E+10	1	-1E+10	1	-1E+10	1	-1E+10	1
4902551	49	C	12/17/2021	13:06	-133.504	49.566	0	180.00	0	5.6770	0	33.7740	0	26.626	0	178.386	0	118.5	4	38.8	4	-1E+10	1	-1E+10	1	-1E+10	1	-1E+10	1	-1E+10	1	-1E+10	1
4902551	49	C	12/17/2021	13:06	-133.504	49.566	0	180.90	0	5.6590	0	33.7730	0	26.627	0	179.278	0	118.2	4	38.7	4	-1E+10	1	-1E+10	1	-1E+10	1	-1E+10	1	-1E+10	1	-1E+10	1
4902551	49	C	12/17/2021	13:06	-133.504	49.566	0	181.90	0	5.6520	0	33.7730	0	26.628	0	180.268	0	118.0	4	38.6	4	-1E+10	1	-1E+10	1	-1E+10	1	-1E+10	1	-1E+10	1	-1E+10	1
4902551	49	C	12/17/2021	13:06	-133.504	49.566	0	182.80	0	5.6490	0	33.7740	0	26.629	0	181.160	0	117.7	4	38.5	4	-1E+10	1	-1E+10	1	-1E+10	1	-1E+10	1	-1E+10	1	-1E+10	1
4902551	49	C	12/17/2021	13:06	-133.504	49.566	0	183.70	0	5.6450	0	33.7750	0	26.630	0	182.051	0	117.4	4	38.4	4	-1E+10	1	-1E+10	1	-1E+10	1	-1E+10	1	-1E+10	1	-1E+10	1
4902551	49	C	12/17/2021	13:06	-133.504	49.566	0	184.60	0	5.6440	0	33.7740	0	26.630	0	182.943	0	117.1	4	38.3	4	-1E+10	1	-1E+10	1	-1E+10	1	-1E+10	1	-1E+10	1	-1E+10	1
4902551	49	C	12/17/2021	13:06	-133.504	49.566	0	185.90	0	5.6400	0	33.7750	0	26.631	0	184.231	0	116.5	4	38.1	4	-1E+10	1	-1E+10	1	-1E+10	1	-1E+10	1	-1E+10	1	-1E+10	1
4902551	49	C	12/17/2021	13:06	-133.504	49.566	0	187.30	0	5.6370	0	33.7750	0	26.631	0	185.617	0	115.9	4	37.9	4	-1E+10	1	-1E+10	1	-1E+10	1	-1E+10	1	-1E+10	1	-1E+10	1
4902551	49	C	12/17/2021	13:06	-133.504	49.566	0	188.20	0	5.6370	0	33.7750	0	26.631	0	186.509	0	115.4	4	37.8	4	-1E+10	1	-1E+10	1	-1E+10	1	-1E+10	1	-1E+10	1	-1E+10	1
4902551	49	C	12/17/2021	13:06	-133.504	49.566	0	189.20	0	5.6280	0	33.7770	0	26.634	0	187.500	0	114.8	4	37.6	4	-1E+10	1	-1E+10	1	-1E+10	1	-1E+10	1	-1E+10	1	-1E+10	1
4902551	49	C	12/17/2021	13:06	-133.504	49.566	0	190.10	0	5.6250	0	33.7770	0	26.634	0	188.391	0	114.3	4	37.4	4	-1E+10	1	-1E+10	1	-1E+10	1	-1E+10	1	-1E+10	1	-1E+10	1
4902551	49	C	12/17/2021	13:06	-133.504	49.566	0	191.00	0	5.6190	0	33.7780	0	26.636	0	189.283	0	113.7	4	37.2	4	-1E+10	1	-1E+10	1	-1E+10	1	-1E+10	1	-1E+10	1	-1E+10	1
4902551	49	C	12/17/2021	13:06	-133.504	49.566	0	191.90	0	5.6080	0	33.7790	0	26.638	0	190.174	0	113.2	4	37.0	4	-1E+10	1	-1E+10	1	-1E+10	1	-1E+10	1	-1E+10	1	-1E+10	1
4902551	49	C	12/17/2021	13:06	-133.504	49.566	0	192.80	0	5.5930	0	33.7830	0	26.643	0	191.065	0	112.6	4	36.8	4	-1E+10	1	-1E+10	1	-1E+10	1	-1E+10	1	-1E+10	1	-1E+10	1
4902551	49	C	12/17/2021	13:06	-133.504	49.566	0	193.70	0	5.5820	0	33.7830	0	26.644	0	191.957	0	112.1	4	36.6	4	-1E+10	1	-1E+10	1	-1E+10	1	-1E+10	1	-1E+10	1	-1E+10	1
4902551	49	C	12/17/2021	13:06	-133.504	49.566	0	194.70	0	5.5520	0	33.7880	0	26.652	0	192.948	0	111.7	4	36.5	4	-1E+10	1	-1E+10	1	-1E+10	1	-1E+10	1	-1E+10	1	-1E+10	1
4902551	49	C	12/17/2021	13:06	-133.504	49.566	0	195.60	0	5.5300	0	33.7940	0	26.659	0	193.839	0	111.4	4	36.4	4	-1E+10	1	-1E+10	1	-1E+10	1	-1E+10	1	-1E+10	1	-1E+10	1
4902551	49	C	12/17/2021	13:06	-133.504	49.566	0	196.50	0	5.5120	0	33.7900	0	26.658	0	194.730	0	111.1	4	36.3	4	-1E+10	1	-1E+10	1	-1E+10	1	-1E+10	1	-1E+10	1	-1E+10	1
4902551	49	C	12/17/2021	13:06	-133.504	49.566	0	197.90	0	5.5060	0	33.7900	0	26.659	0	196.117	0	110.7	4	36.1	4	-1E+10	1	-1E+10	1	-1E+10	1	-1E+10	1	-1E+10	1	-1E+10	1
4902551	49	C	12/17/2021	13:06	-133.504	49.566	0	199.30	0	5.5030	0	33.7910	0	26.660	0	197.504	0	110.2	4	36.0	4	-1E+10	1	-1E+10	1	-1E+10	1	-1E+10	1	-1E+10	1	-1E+10	1
4902551	49	C	12/17/2021	13:06	-133.504	49.566	0	200.30	0	5.5020	0	33.7900	0	26.660	0	198.494	0	109.9	4	35.8	4	-1E+10	1	-1E+10	1	-1E+10	1	-1E+10	1	-1E+10	1	-1E+10	1
4902551	49	C	12/17/2021	13:06	-133.504	49.566	0	201.20	0	5.5010	0	33.7900	0	26.660	0	199.386	0	109.5	4	35.7	4	-1E+10	1	-1E+10	1	-1E+10	1	-1E+10	1	-1E+10	1	-1E+10	1
4902551	49	C	12/17/2021	13:06	-133.504	49.566	0	202.20	0	5.5000	0	33.7910	0	26.661	0	200.376	0	109.0	4	35.6	4	-1E+10	1	-1E+10	1	-1E+10	1	-1E+10	1	-1E+10	1	-1E+10	1
4902551	49	C	12/17/2021	13:06	-133.504	49.566	0	203.10	0	5.4990	0	33.7900	0	26.660	0	201.268	0	108.5	4	35.4	4	-1E+10	1	-1E+10	1	-1E+10	1	-1E+10	1	-1E+10	1	-1E+10	1
4902551	49	C	12/17/2021	13:06	-133.504	49.566	0	204.00	0	5.4990	0	33.7900	0	26.660	0	202.159	0	107.9	4	35.2	4	-1E+10	1	-1E+10	1	-1E+10	1	-1E+10	1	-1E+10	1	-1E+10	1
4902551	49	C	12/17/2021	13:06	-133.504	49.566	0	205.00	0	5.4950	0	33.7920	0	26.662	0	203.150	0	107.3	4	35.0	4	-1E+10	1	-1E+10	1	-1E+10	1	-1E+10	1	-1E+10	1	-1E+10	1
4902551	49	C	12/17/2021	13:06	-133.504	49.566	0	205.90	0	5.4720	0	33.7970	0	26.669	0	204.041	0	106.8	4	34.8	4	-1E+10	1	-1E+10	1	-1E+10	1	-1E+10	1	-1E+10	1	-1E+10	1
4902551	49	C	12/17/2021	13:06	-133.504	49.566	0	206.80	0	5.4650	0	33.7930	0	26.666	0	204.933	0	106.2	4	34.6	4	-1E+10	1	-1E+10	1	-1E+10	1	-1E+10	1	-1E+10	1	-1E+10	1
4902551	49	C	12/17/2021	13:06	-133.504	49.566	0	207.80	0	5.4600	0	33.7940	0	26.668	0	205.923	0	105.6	4	34.4	4	-1E+10	1	-1E+10	1	-1E+10	1	-1E+10	1	-1E+10	1	-1E+10	1
4902551	49	C	12/17/2021	13:06	-133.504	49.566	0	208.70	0	5.4430	0	33.8040	0	26.678	0	206.814	0	105.0	4	34.2	4	-1E+10	1	-1E+10	1	-1E+10	1	-1E+10	1	-1E+10	1	-1E+10	1
4902551	49	C	12/17/2021	13:06	-133.504	49.566	0	209.60	0	5.4060	0	33.8030	0	26.681	0	207.706	0	104.7	4	34.1	4	-1E+10	1	-1E+10	1	-1E+10	1	-1E+10	1	-1E+10	1	-1E+10	1
4902551	49	C	12/17/2021	13:06	-133.504	49.566	0	210.60	0	5.4000	0	33.8010	0	26.680	0	208.696	0	104.4	4	34.0	4	-1E+10	1	-1E+10	1	-1E+10	1	-1E+10	1	-1E+10	1	-1E+10	1
4902551	49	C	12/17/2021	13:06	-133.504	49.566	0	211.90	0	5.3800	0	33.8070	0	26.688	0	209.984	0	103.9	4	33.8	4	-1E+10	1	-1E+10	1	-1E+10	1	-1E+10	1	-1E+10	1	-1E+10	1
4902551	49	C	12/17/2021	13:06	-133.504	49.566	0	213.40	0	5.3640	0	33.8080	0	26.690	0	211.470	0	103.6	4	33.7	4	-1E+10	1	-1E+10	1	-1E+10	1	-1E+10	1	-1E+10	1	-1E+10	1
4902551	49	C	12/17/2021	13:06	-133.504	49.566	0	214.30	0	5.3570	0	33.8090	0	26.692	0	212.361	0	103.3	4	33.6	4	-1E+10	1	-1E+10	1	-1E+10	1	-1E+10	1	-1E+10	1	-1E+10	1
4902551	49	C	12/17/2021	13:06	-133.504	49.566	0	215.30	0	5.3460	0	33.8070	0	26.692	0	213.351	0	103.1	4	33.5	4	-1E+10	1	-1E+10	1	-1E+10	1	-1E+10	1	-1E+10	1	-1E+10	1
4902551	49	C	12/17/2021	13:06	-133.504	49.566	0	216.20	0	5.3450	0	33.8060	0	26.691	0	214.243	0	102.8	4	33.4	4	-1E+10	1	-1E+10	1	-1E+10	1	-1E+10	1	-1E+10	1	-1E+10	1
4902551	49	C	12/17/2021	13:06	-133.504	49.566	0	217.20	0	5.3430	0	33.8080	0	26.693	0	215.233	0	102.5	4	33.3	4	-1E+10	1	-1E+10	1	-1E+10	1	-1E+10	1	-1E+10	1	-1E+10	1
4902551	49	C	12/17/2021	13:06	-133.504	49.566	0	218.10	0	5.3350	0	33.8090	0	26.694	0	216.125	0	102.2	4	33.2	4	-1E+10	1	-1E+10	1	-1E+10	1	-1E+10	1	-1E+10	1	-1E+10	1
4902551	49	C	12/17/2021	13:06	-133.504	49.566	0	219.00	0	5.3290	0	33.8080	0	26.694	0	217.016	0	101.9	4	33.1	4	-1E+10	1	-1E+10	1	-1E+10	1	-1E+10	1	-1E+10	1	-1E+10	1
4902551	49	C	12/17/2021	13:06	-133.504	49.566	0	220.00	0	5.3270	0	33.8080	0	26.695	0	218.006	0	101.6	4	33.0	4	-1E+10	1	-1E+10	1	-1E+10	1	-1E+10	1	-1E+10	1	-1E+10	1
4902551	49	C	12/17/2021	13:06	-133.504	49.566	0	220.90	0	5.3270	0	33.8090	0	26.695	0	218.898	0	101.2	4	32.9	4	-1E+10	1	-1E+10	1	-1E+10	1	-1E+10	1	-1E+10	1	-1E+10	1
4902551	49	C	12/17/2021	13:06	-133.504	49.566	0	221.80	0	5.3230	0	33.8080	0	26.695	0	219.789	0	100.9	4	32.8	4	-1E+10	1	-1E+10	1	-1E+10	1	-1E+10	1	-1E+10	1	-1E+10	1
4902551	49	C	12/17/2021	13:06	-133.504	49.566	0	222.80	0	5.3220	0	33.8090	0	26.696	0	220.780	0	100.5	4	32.7	4	-1E+10	1	-1E+10	1	-1E+10	1	-1E+10	1	-1E+10	1	-1E+10	1
4902551	49	C	12/17/2021	13:06	-133.504	49.566	0	223.70	0	5.3130	0	33.8110	0	26.699	0	221.671	0	100.1	4	32.5	4	-1E+10	1	-1E+10	1	-1E+10	1	-1E+10	1	-1E+10	1	-1E+10	1
4902551	49	C	12/17/2021	13:06	-133.504	49.566	0	224.70	0	5.3020	0	33.8120	0	26.701	0	222.661	0	99.7	4	32.4	4	-1E+10	1	-1E+10	1	-1E+10	1	-1E+10	1	-1E+10	1	-1E+10	1
4902551	49	C	12/17/2021	13:06	-133.504	49.566	0	225.60	0	5.2890	0	33.8130	0	26.703	0	223.553	0	99.3	4	32.2	4	-1E+10	1	-1E+10	1	-1E+10	1	-1E+10	1	-1E+10	1	-1E+10	1
4902551	49	C	12/17/2021	13:06	-133.504	49.566	0	226.50	0	5.2830	0	33.8120	0	26.703	0	224.444	0	99.0	4	32.1	4	-1E+10	1	-1E+10	1	-1E+10	1	-1E+10	1	-1E+10	1	-1E+10	1
4902551	49	C	12/17/2021	13:06	-133.504	49.566	0	227.90	0	5.2710	0	33.8140	0	26.706	0	225.831	0	98.4	4	31.9	4	-1E+10	1	-1E+10	1	-1E+10	1	-1E+10	1	-1E+10	1	-1E+10	1
4902551	49	C	12/17/2021	13:06	-133.504	49.566	0	229.30	0	5.2550	0	33.8160	0	26.709	0	227.217	0	97.8	4	31.7	4	-1E+10	1	-1E+10	1	-1E+10	1	-1E+10	1	-1E+10	1	-1E+10	1
4902551	49	C	12/17/2021	13:06	-133.504	49.566	0	230.20	0	5.2400	0	33.8180	0	26.713	0	228.108	0	97.5	4	31.6	4	-1E+10	1	-1E+10	1	-1E+10	1	-1E+10	1	-1E+10	1	-1E+10	1
4902551	49	C	12/17/2021	13:06	-133.504	49.566	0	231.10	0	5.2320	0	33.8180	0	26.714	0	229.000	0	97.2	4	31.5	4	-1E+10	1	-1E+10	1	-1E+10	1	-1E+10	1	-1E+10	1	-1E+10	1
4902551	49	C	12/17/2021	13:06	-133.504	49.566	0	232.10	0	5.2260	0	33.8180	0	26.714	0	229.990	0	96.9	4	31.4	4	-1E+10	1	-1E+10	1	-1E+10	1	-1E+10	1	-1E+10	1	-1E+10	1
4902551	49	C	12/17/2021	13:06	-133.504	49.566	0	233.00	0	5.2200	0	33.8200	0	26.717	0	230.881	0	96.6	4	31.3	4	-1E+10	1	-1E+10	1	-1E+10	1	-1E+10	1	-1E+10	1	-1E+10	1
4902551	49	C	12/17/2021	13:06	-133.504	49.566	0	233.90	0	5.2050	0	33.8200	0	26.718	0	231.773	0	96.3	4	31.2	4	-1E+10	1	-1E+10	1	-1E+10	1	-1E+10	1	-1E+10	1	-1E+10	1
4902551	49	C	12/17/2021	13:06	-133.504	49.566	0	234.80	0	5.1960	0	33.8200	0	26.720	0	232.664	0	95.9	4	31.1	4	-1E+10	1	-1E+10	1	-1E+10	1	-1E+10	1	-1E+10	1	-1E+10	1
4902551	49	C	12/17/2021	13:06	-133.504	49.566	0	235.70	0	5.1910	0	33.8210	0	26.721	0	233.555	0	95.6	4	31.0	4	-1E+10	1	-1E+10	1	-1E+10	1	-1E+10	1	-1E+10	1	-1E+10	1
4902551	49	C	12/17/2021	13:06	-133.504	49.566	0	236.70	0	5.1860	0	33.8210	0	26.721	0	234.546	0	95.2	4	30.8	4	-1E+10	1	-1E+10	1	-1E+10	1	-1E+10	1	-1E+10	1	-1E+10	1
4902551	49	C	12/17/2021	13:06	-133.504	49.566	0	237.60	0	5.1810	0	33.8200	0	26.721	0	235.437	0	94.8	4	30.7	4	-1E+10	1	-1E+10	1	-1E+10	1	-1E+10	1	-1E+10	1	-1E+10	1
4902551	49	C	12/17/2021	13:06	-133.504	49.566	0	238.90	0	5.1690	0	33.8220	0	26.724	0	236.724	0	94.2	4	30.5	4	-1E+10	1	-1E+10	1	-1E+10	1	-1E+10	1	-1E+10	1	-1E+10	1
4902551	49	C	12/17/2021	13:06	-133.504	49.566	0	240.40	0	5.1530	0	33.8240	0	26.728	0	238.210	0	93.5	4	30.3	4	-1E+10	1	-1E+10	1	-1E+10	1	-1E+10	1	-1E+10	1	-1E+10	1
4902551	49	C	12/17/2021	13:06	-133.504	49.566	0	241.30	0	5.1430	0	33.8230	0	26.728	0	239.101	0	93.0	4	30.1	4	-1E+10	1	-1E+10	1	-1E+10	1	-1E+10	1	-1E+10	1	-1E+10	1
4902551	49	C	12/17/2021	13:06	-133.504	49.566	0	242.20	0	5.1240	0	33.8290	0	26.735	0	239.992	0	92.6	4	29.9	4	-1E+10	1	-1E+10	1	-1E+10	1	-1E+10	1	-1E+10	1	-1E+10	1
4902551	49	C	12/17/2021	13:06	-133.504	49.566	0	243.20	0	5.1120	0	33.8260	0	26.734	0	240.983	0	92.2	4	29.8	4	-1E+10	1	-1E+10	1	-1E+10	1	-1E+10	1	-1E+10	1	-1E+10	1
4902551	49	C	12/17/2021	13:06	-133.504	49.566	0	244.10	0	5.1100	0	33.8260	0	26.734	0	241.874	0	91.8	4	29.7	4	-1E+10	1	-1E+10	1	-1E+10	1	-1E+10	1	-1E+10	1	-1E+10	1
4902551	49	C	12/17/2021	13:06	-133.504	49.566	0	245.00	0	5.1090	0	33.8270	0	26.735	0	242.765	0	91.4	4	29.5	4	-1E+10	1	-1E+10	1	-1E+10	1	-1E+10	1	-1E+10	1	-1E+10	1
4902551	49	C	12/17/2021	13:06	-133.504	49.566	0	245.90	0	5.1080	0	33.8270	0	26.735	0	243.657	0	90.9	4	29.4	4	-1E+10	1	-1E+10	1	-1E+10	1	-1E+10	1	-1E+10	1	-1E+10	1
4902551	49	C	12/17/2021	13:06	-133.504	49.566	0	246.80	0	5.1050	0	33.8270	0	26.736	0	244.548	0	90.4	4	29.2	4	-1E+10	1	-1E+10	1	-1E+10	1	-1E+10	1	-1E+10	1	-1E+10	1
4902551	49	C	12/17/2021	13:06	-133.504	49.566	0	247.70	0	5.0930	0	33.8310	0	26.740	0	245.439	0	89.9	4	29.1	4	-1E+10	1	-1E+10	1	-1E+10	1	-1E+10	1	-1E+10	1	-1E+10	1
4902551	49	C	12/17/2021	13:06	-133.504	49.566	0	248.60	0	5.0870	0	33.8300	0	26.740	0	246.330	0	89.5	4	28.9	4	-1E+10	1	-1E+10	1	-1E+10	1	-1E+10	1	-1E+10	1	-1E+10	1
4902551	49	C	12/17/2021	13:06	-133.504	49.566	0	249.60	0	5.0820	0	33.8310	0	26.741	0	247.321	0	89.0	4	28.8	4	-1E+10	1	-1E+10	1	-1E+10	1	-1E+10	1	-1E+10	1	-1E+10	1
4902551	49	C	12/17/2021	13:06	-133.504	49.566	0	250.90	0	5.0700	0	33.8340	0	26.745	0	248.608	0	88.4	4	28.6	4	-1E+10	1	-1E+10	1	-1E+10	1	-1E+10	1	-1E+10	1	-1E+10	1
4902551	49	C	12/17/2021	13:06	-133.504	49.566	0	252.40	0	5.0520	0	33.8340	0	26.747	0	250.093	0	87.7	4	28.3	4	-1E+10	1	-1E+10	1	-1E+10	1	-1E+10	1	-1E+10	1	-1E+10	1
4902551	49	C	12/17/2021	13:06	-133.504	49.566	0	253.30	0	5.0470	0	33.8350	0	26.749	0	250.985	0	87.3	4	28.2	4	-1E+10	1	-1E+10	1	-1E+10	1	-1E+10	1	-1E+10	1	-1E+10	1
4902551	49	C	12/17/2021	13:06	-133.504	49.566	0	254.20	0	5.0400	0	33.8350	0	26.749	0	251.876	0	86.7	4	28.0	4	-1E+10	1	-1E+10	1	-1E+10	1	-1E+10	1	-1E+10	1	-1E+10	1
4902551	49	C	12/17/2021	13:06	-133.504	49.566	0	255.20	0	5.0200	0	33.8350	0	26.752	0	252.866	0	86.2	4	27.8	4	-1E+10	1	-1E+10	1	-1E+10	1	-1E+10	1	-1E+10	1	-1E+10	1
4902551	49	C	12/17/2021	13:06	-133.504	49.566	0	256.10	0	5.0120	0	33.8360	0	26.753	0	253.757	0	85.6	4	27.6	4	-1E+10	1	-1E+10	1	-1E+10	1	-1E+10	1	-1E+10	1	-1E+10	1
4902551	49	C	12/17/2021	13:06	-133.504	49.566	0	257.00	0	5.0110	0	33.8350	0	26.753	0	254.648	0	84.9	4	27.4	4	-1E+10	1	-1E+10	1	-1E+10	1	-1E+10	1	-1E+10	1	-1E+10	1
4902551	49	C	12/17/2021	13:06	-133.504	49.566	0	258.00	0	5.0060	0	33.8390	0	26.757	0	255.639	0	84.3	4	27.2	4	-1E+10	1	-1E+10	1	-1E+10	1	-1E+10	1	-1E+10	1	-1E+10	1
4902551	49	C	12/17/2021	13:06	-133.504	49.566	0	258.90	0	4.9940	0	33.8430	0	26.761	0	256.530	0	83.8	4	27.0	4	-1E+10	1	-1E+10	1	-1E+10	1	-1E+10	1	-1E+10	1	-1E+10	1
4902551	49	C	12/17/2021	13:06	-133.504	49.566	0	259.80	0	4.9650	0	33.8440	0	26.765	0	257.421	0	83.3	4	26.9	4	-1E+10	1	-1E+10	1	-1E+10	1	-1E+10	1	-1E+10	1	-1E+10	1
4902551	49	C	12/17/2021	13:06	-133.504	49.566	0	260.80	0	4.9540	0	33.8450	0	26.767	0	258.411	0	82.9	4	26.7	4	-1E+10	1	-1E+10	1	-1E+10	1	-1E+10	1	-1E+10	1	-1E+10	1
4902551	49	C	12/17/2021	13:06	-133.504	49.566	0	261.80	0	4.9390	0	33.8470	0	26.770	0	259.401	0	82.4	4	26.5	4	-1E+10	1	-1E+10	1	-1E+10	1	-1E+10	1	-1E+10	1	-1E+10	1
4902551	49	C	12/17/2021	13:06	-133.504	49.566	0	262.70	0	4.9310	0	33.8480	0	26.772	0	260.293	0	81.9	4	26.4	4	-1E+10	1	-1E+10	1	-1E+10	1	-1E+10	1	-1E+10	1	-1E+10	1
4902551	49	C	12/17/2021	13:06	-133.504	49.566	0	263.70	0	4.9290	0	33.8500	0	26.774	0	261.283	0	81.5	4	26.2	4	-1E+10	1	-1E+10	1	-1E+10	1	-1E+10	1	-1E+10	1	-1E+10	1
4902551	49	C	12/17/2021	13:06	-133.504	49.566	0	264.60	0	4.9180	0	33.8510	0	26.776	0	262.174	0	81.1	4	26.1	4	-1E+10	1	-1E+10	1	-1E+10	1	-1E+10	1	-1E+10	1	-1E+10	1
4902551	49	C	12/17/2021	13:06	-133.504	49.566	0	265.60	0	4.9080	0	33.8520	0	26.778	0	263.164	0	80.8	4	26.0	4	-1E+10	1	-1E+10	1	-1E+10	1	-1E+10	1	-1E+10	1	-1E+10	1
4902551	49	C	12/17/2021	13:06	-133.504	49.566	0	266.60	0	4.9030	0	33.8510	0	26.778	0	264.154	0	80.4	4	25.9	4	-1E+10	1	-1E+10	1	-1E+10	1	-1E+10	1	-1E+10	1	-1E+10	1
4902551	49	C	12/17/2021	13:06	-133.504	49.566	0	267.90	0	4.8850	0	33.8550	0	26.783	0	265.442	0	79.7	4	25.6	4	-1E+10	1	-1E+10	1	-1E+10	1	-1E+10	1	-1E+10	1	-1E+10	1
4902551	49	C	12/17/2021	13:06	-133.504	49.566	0	269.30	0	4.8640	0	33.8570	0	26.787	0	266.828	0	79.1	4	25.4	4	-1E+10	1	-1E+10	1	-1E+10	1	-1E+10	1	-1E+10	1	-1E+10	1
4902551	49	C	12/17/2021	13:06	-133.504	49.566	0	270.30	0	4.8510	0	33.8580	0	26.789	0	267.818	0	78.8	4	25.3	4	-1E+10	1	-1E+10	1	-1E+10	1	-1E+10	1	-1E+10	1	-1E+10	1
4902551	49	C	12/17/2021	13:06	-133.504	49.566	0	271.00	0	4.8470	0	33.8590	0	26.790	0	268.511	0	78.5	4	25.2	4	-1E+10	1	-1E+10	1	-1E+10	1	-1E+10	1	-1E+10	1	-1E+10	1
4902551	49	C	12/17/2021	13:06	-133.504	49.566	0	272.00	0	4.8460	0	33.8570	0	26.789	0	269.501	0	78.0	4	25.1	4	-1E+10	1	-1E+10	1	-1E+10	1	-1E+10	1	-1E+10	1	-1E+10	1
4902551	49	C	12/17/2021	13:06	-133.504	49.566	0	273.20	0	4.8450	0	33.8570	0	26.789	0	270.690	0	77.5	4	24.9	4	-1E+10	1	-1E+10	1	-1E+10	1	-1E+10	1	-1E+10	1	-1E+10	1
4902551	49	C	12/17/2021	13:06	-133.504	49.566	0	273.90	0	4.8420	0	33.8580	0	26.790	0	271.383	0	77.1	4	24.8	4	-1E+10	1	-1E+10	1	-1E+10	1	-1E+10	1	-1E+10	1	-1E+10	1
4902551	49	C	12/17/2021	13:06	-133.504	49.566	0	275.00	0	4.8320	0	33.8610	0	26.794	0	272.472	0	76.5	4	24.6	4	-1E+10	1	-1E+10	1	-1E+10	1	-1E+10	1	-1E+10	1	-1E+10	1
4902551	49	C	12/17/2021	13:06	-133.504	49.566	0	276.10	0	4.8180	0	33.8630	0	26.797	0	273.561	0	76.1	4	24.4	4	-1E+10	1	-1E+10	1	-1E+10	1	-1E+10	1	-1E+10	1	-1E+10	1
4902551	49	C	12/17/2021	13:06	-133.504	49.566	0	276.80	0	4.8130	0	33.8630	0	26.797	0	274.254	0	75.8	4	24.3	4	-1E+10	1	-1E+10	1	-1E+10	1	-1E+10	1	-1E+10	1	-1E+10	1
4902551	49	C	12/17/2021	13:06	-133.504	49.566	0	278.00	0	4.8000	0	33.8650	0	26.800	0	275.442	0	75.4	4	24.2	4	-1E+10	1	-1E+10	1	-1E+10	1	-1E+10	1	-1E+10	1	-1E+10	1
4902551	49	C	12/17/2021	13:06	-133.504	49.566	0	279.10	0	4.7900	0	33.8670	0	26.803	0	276.531	0	75.0	4	24.1	4	-1E+10	1	-1E+10	1	-1E+10	1	-1E+10	1	-1E+10	1	-1E+10	1
4902551	49	C	12/17/2021	13:06	-133.504	49.566	0	279.90	0	4.7780	0	33.8690	0	26.806	0	277.324	0	74.9	4	24.0	4	-1E+10	1	-1E+10	1	-1E+10	1	-1E+10	1	-1E+10	1	-1E+10	1
4902551	49	C	12/17/2021	13:06	-133.504	49.566	0	280.70	0	4.7670	0	33.8710	0	26.809	0	278.116	0	74.6	4	23.9	4	-1E+10	1	-1E+10	1	-1E+10	1	-1E+10	1	-1E+10	1	-1E+10	1
4902551	49	C	12/17/2021	13:06	-133.504	49.566	0	281.90	0	4.7530	0	33.8720	0	26.811	0	279.304	0	74.4	4	23.9	4	-1E+10	1	-1E+10	1	-1E+10	1	-1E+10	1	-1E+10	1	-1E+10	1
4902551	49	C	12/17/2021	13:06	-133.504	49.566	0	283.10	0	4.7440	0	33.8730	0	26.813	0	280.492	0	74.2	4	23.8	4	-1E+10	1	-1E+10	1	-1E+10	1	-1E+10	1	-1E+10	1	-1E+10	1
4902551	49	C	12/17/2021	13:06	-133.504	49.566	0	283.90	0	4.7420	0	33.8730	0	26.813	0	281.284	0	74.1	4	23.8	4	-1E+10	1	-1E+10	1	-1E+10	1	-1E+10	1	-1E+10	1	-1E+10	1
4902551	49	C	12/17/2021	13:06	-133.504	49.566	0	284.70	0	4.7400	0	33.8740	0	26.814	0	282.076	0	73.9	4	23.7	4	-1E+10	1	-1E+10	1	-1E+10	1	-1E+10	1	-1E+10	1	-1E+10	1
4902551	49	C	12/17/2021	13:06	-133.504	49.566	0	285.90	0	4.7350	0	33.8740	0	26.815	0	283.264	0	73.7	4	23.6	4	-1E+10	1	-1E+10	1	-1E+10	1	-1E+10	1	-1E+10	1	-1E+10	1
4902551	49	C	12/17/2021	13:06	-133.504	49.566	0	287.10	0	4.7300	0	33.8750	0	26.816	0	284.452	0	73.5	4	23.6	4	-1E+10	1	-1E+10	1	-1E+10	1	-1E+10	1	-1E+10	1	-1E+10	1
4902551	49	C	12/17/2021	13:06	-133.504	49.566	0	287.90	0	4.7230	0	33.8760	0	26.818	0	285.244	0	73.4	4	23.5	4	-1E+10	1	-1E+10	1	-1E+10	1	-1E+10	1	-1E+10	1	-1E+10	1
4902551	49	C	12/17/2021	13:06	-133.504	49.566	0	288.80	0	4.7200	0	33.8760	0	26.818	0	286.135	0	73.2	4	23.5	4	-1E+10	1	-1E+10	1	-1E+10	1	-1E+10	1	-1E+10	1	-1E+10	1
4902551	49	C	12/17/2021	13:06	-133.504	49.566	0	290.00	0	4.7180	0	33.8760	0	26.818	0	287.324	0	72.9	4	23.4	4	-1E+10	1	-1E+10	1	-1E+10	1	-1E+10	1	-1E+10	1	-1E+10	1
4902551	49	C	12/17/2021	13:06	-133.504	49.566	0	291.30	0	4.7180	0	33.8760	0	26.818	0	288.611	0	72.5	4	23.2	4	-1E+10	1	-1E+10	1	-1E+10	1	-1E+10	1	-1E+10	1	-1E+10	1
4902551	49	C	12/17/2021	13:06	-133.504	49.566	0	292.10	0	4.7180	0	33.8760	0	26.818	0	289.403	0	72.3	4	23.2	4	-1E+10	1	-1E+10	1	-1E+10	1	-1E+10	1	-1E+10	1	-1E+10	1
4902551	49	C	12/17/2021	13:06	-133.504	49.566	0	293.00	0	4.7170	0	33.8770	0	26.819	0	290.294	0	72.1	4	23.1	4	-1E+10	1	-1E+10	1	-1E+10	1	-1E+10	1	-1E+10	1	-1E+10	1
4902551	49	C	12/17/2021	13:06	-133.504	49.566	0	293.80	0	4.7130	0	33.8780	0	26.820	0	291.086	0	71.8	4	23.0	4	-1E+10	1	-1E+10	1	-1E+10	1	-1E+10	1	-1E+10	1	-1E+10	1
4902551	49	C	12/17/2021	13:06	-133.504	49.566	0	294.70	0	4.7090	0	33.8780	0	26.821	0	291.977	0	71.5	4	22.9	4	-1E+10	1	-1E+10	1	-1E+10	1	-1E+10	1	-1E+10	1	-1E+10	1
4902551	49	C	12/17/2021	13:06	-133.504	49.566	0	295.90	0	4.7030	0	33.8810	0	26.824	0	293.165	0	71.2	4	22.8	4	-1E+10	1	-1E+10	1	-1E+10	1	-1E+10	1	-1E+10	1	-1E+10	1
4902551	49	C	12/17/2021	13:06	-133.504	49.566	0	297.20	0	4.7000	0	33.8810	0	26.824	0	294.452	0	70.8	4	22.7	4	-1E+10	1	-1E+10	1	-1E+10	1	-1E+10	1	-1E+10	1	-1E+10	1
4902551	49	C	12/17/2021	13:06	-133.504	49.566	0	298.10	0	4.7000	0	33.8810	0	26.824	0	295.343	0	70.5	4	22.6	4	-1E+10	1	-1E+10	1	-1E+10	1	-1E+10	1	-1E+10	1	-1E+10	1
4902551	49	C	12/17/2021	13:06	-133.504	49.566	0	299.00	0	4.7000	0	33.8820	0	26.825	0	296.234	0	70.2	4	22.5	4	-1E+10	1	-1E+10	1	-1E+10	1	-1E+10	1	-1E+10	1	-1E+10	1
4902551	49	C	12/17/2021	13:06	-133.504	49.566	0	299.80	0	4.7000	0	33.8820	0	26.825	0	297.026	0	69.9	4	22.4	4	-1E+10	1	-1E+10	1	-1E+10	1	-1E+10	1	-1E+10	1	-1E+10	1
4902551	49	C	12/17/2021	13:06	-133.504	49.566	0	300.70	0	4.7000	0	33.8820	0	26.825	0	297.917	0	69.4	4	22.2	4	-1E+10	1	-1E+10	1	-1E+10	1	-1E+10	1	-1E+10	1	-1E+10	1
4902551	49	C	12/17/2021	13:06	-133.504	49.566	0	301.90	0	4.7000	0	33.8820	0	26.825	0	299.105	0	68.7	4	22.0	4	-1E+10	1	-1E+10	1	-1E+10	1	-1E+10	1	-1E+10	1	-1E+10	1
4902551	49	C	12/17/2021	13:06	-133.504	49.566	0	303.20	0	4.6880	0	33.8900	0	26.833	0	300.392	0	68.1	4	21.8	4	-1E+10	1	-1E+10	1	-1E+10	1	-1E+10	1	-1E+10	1	-1E+10	1
4902551	49	C	12/17/2021	13:06	-133.504	49.566	0	304.10	0	4.6860	0	33.8890	0	26.832	0	301.283	0	67.9	4	21.7	4	-1E+10	1	-1E+10	1	-1E+10	1	-1E+10	1	-1E+10	1	-1E+10	1
4902551	49	C	12/17/2021	13:06	-133.504	49.566	0	305.00	0	4.6870	0	33.8890	0	26.832	0	302.174	0	67.6	4	21.6	4	-1E+10	1	-1E+10	1	-1E+10	1	-1E+10	1	-1E+10	1	-1E+10	1
4902551	49	C	12/17/2021	13:06	-133.504	49.566	0	305.80	0	4.6870	0	33.8890	0	26.832	0	302.966	0	67.2	4	21.5	4	-1E+10	1	-1E+10	1	-1E+10	1	-1E+10	1	-1E+10	1	-1E+10	1
4902551	49	C	12/17/2021	13:06	-133.504	49.566	0	306.70	0	4.6790	0	33.8920	0	26.835	0	303.857	0	66.9	4	21.4	4	-1E+10	1	-1E+10	1	-1E+10	1	-1E+10	1	-1E+10	1	-1E+10	1
4902551	49	C	12/17/2021	13:06	-133.504	49.566	0	307.60	0	4.6740	0	33.8930	0	26.837	0	304.748	0	66.7	4	21.4	4	-1E+10	1	-1E+10	1	-1E+10	1	-1E+10	1	-1E+10	1	-1E+10	1
4902551	49	C	12/17/2021	13:06	-133.504	49.566	0	308.90	0	4.6720	0	33.8930	0	26.837	0	306.035	0	66.3	4	21.2	4	-1E+10	1	-1E+10	1	-1E+10	1	-1E+10	1	-1E+10	1	-1E+10	1
4902551	49	C	12/17/2021	13:06	-133.504	49.566	0	310.20	0	4.6690	0	33.8940	0	26.838	0	307.322	0	65.9	4	21.1	4	-1E+10	1	-1E+10	1	-1E+10	1	-1E+10	1	-1E+10	1	-1E+10	1
4902551	49	C	12/17/2021	13:06	-133.504	49.566	0	311.10	0	4.6670	0	33.8950	0	26.839	0	308.213	0	65.6	4	21.0	4	-1E+10	1	-1E+10	1	-1E+10	1	-1E+10	1	-1E+10	1	-1E+10	1
4902551	49	C	12/17/2021	13:06	-133.504	49.566	0	312.00	0	4.6650	0	33.8950	0	26.839	0	309.104	0	65.3	4	20.9	4	-1E+10	1	-1E+10	1	-1E+10	1	-1E+10	1	-1E+10	1	-1E+10	1
4902551	49	C	12/17/2021	13:06	-133.504	49.566	0	312.80	0	4.6620	0	33.8960	0	26.840	0	309.896	0	65.0	4	20.8	4	-1E+10	1	-1E+10	1	-1E+10	1	-1E+10	1	-1E+10	1	-1E+10	1
4902551	49	C	12/17/2021	13:06	-133.504	49.566	0	313.70	0	4.6570	0	33.8970	0	26.842	0	310.787	0	64.6	4	20.7	4	-1E+10	1	-1E+10	1	-1E+10	1	-1E+10	1	-1E+10	1	-1E+10	1
4902551	49	C	12/17/2021	13:06	-133.504	49.566	0	314.60	0	4.6560	0	33.8970	0	26.842	0	311.678	0	64.2	4	20.6	4	-1E+10	1	-1E+10	1	-1E+10	1	-1E+10	1	-1E+10	1	-1E+10	1
4902551	49	C	12/17/2021	13:06	-133.504	49.566	0	315.90	0	4.6550	0	33.8970	0	26.842	0	312.965	0	63.7	4	20.4	4	-1E+10	1	-1E+10	1	-1E+10	1	-1E+10	1	-1E+10	1	-1E+10	1
4902551	49	C	12/17/2021	13:06	-133.504	49.566	0	317.20	0	4.6530	0	33.8970	0	26.842	0	314.252	0	62.9	4	20.1	4	-1E+10	1	-1E+10	1	-1E+10	1	-1E+10	1	-1E+10	1	-1E+10	1
4902551	49	C	12/17/2021	13:06	-133.504	49.566	0	318.10	0	4.6450	0	33.9000	0	26.846	0	315.143	0	62.5	4	20.0	4	-1E+10	1	-1E+10	1	-1E+10	1	-1E+10	1	-1E+10	1	-1E+10	1
4902551	49	C	12/17/2021	13:06	-133.504	49.566	0	319.00	0	4.6380	0	33.9020	0	26.848	0	316.034	0	62.1	4	19.9	4	-1E+10	1	-1E+10	1	-1E+10	1	-1E+10	1	-1E+10	1	-1E+10	1
4902551	49	C	12/17/2021	13:06	-133.504	49.566	0	319.90	0	4.6320	0	33.9020	0	26.849	0	316.925	0	61.7	4	19.8	4	-1E+10	1	-1E+10	1	-1E+10	1	-1E+10	1	-1E+10	1	-1E+10	1
4902551	49	C	12/17/2021	13:06	-133.504	49.566	0	320.90	0	4.6220	0	33.9060	0	26.853	0	317.915	0	61.4	4	19.6	4	-1E+10	1	-1E+10	1	-1E+10	1	-1E+10	1	-1E+10	1	-1E+10	1
4902551	49	C	12/17/2021	13:06	-133.504	49.566	0	321.70	0	4.6120	0	33.9080	0	26.856	0	318.707	0	61.1	4	19.5	4	-1E+10	1	-1E+10	1	-1E+10	1	-1E+10	1	-1E+10	1	-1E+10	1
4902551	49	C	12/17/2021	13:06	-133.504	49.566	0	322.60	0	4.6100	0	33.9080	0	26.856	0	319.598	0	60.9	4	19.5	4	-1E+10	1	-1E+10	1	-1E+10	1	-1E+10	1	-1E+10	1	-1E+10	1
4902551	49	C	12/17/2021	13:06	-133.504	49.566	0	323.60	0	4.6100	0	33.9080	0	26.856	0	320.587	0	60.5	4	19.4	4	-1E+10	1	-1E+10	1	-1E+10	1	-1E+10	1	-1E+10	1	-1E+10	1
4902551	49	C	12/17/2021	13:06	-133.504	49.566	0	324.90	0	4.6010	0	33.9100	0	26.858	0	321.874	0	59.9	4	19.2	4	-1E+10	1	-1E+10	1	-1E+10	1	-1E+10	1	-1E+10	1	-1E+10	1
4902551	49	C	12/17/2021	13:06	-133.504	49.566	0	326.30	0	4.5890	0	33.9130	0	26.862	0	323.260	0	59.4	4	19.0	4	-1E+10	1	-1E+10	1	-1E+10	1	-1E+10	1	-1E+10	1	-1E+10	1
4902551	49	C	12/17/2021	13:06	-133.504	49.566	0	327.20	0	4.5860	0	33.9140	0	26.863	0	324.151	0	59.0	4	18.9	4	-1E+10	1	-1E+10	1	-1E+10	1	-1E+10	1	-1E+10	1	-1E+10	1
4902551	49	C	12/17/2021	13:06	-133.504	49.566	0	328.10	0	4.5850	0	33.9140	0	26.863	0	325.042	0	58.6	4	18.7	4	-1E+10	1	-1E+10	1	-1E+10	1	-1E+10	1	-1E+10	1	-1E+10	1
4902551	49	C	12/17/2021	13:06	-133.504	49.566	0	329.00	0	4.5800	0	33.9160	0	26.865	0	325.933	0	58.4	4	18.7	4	-1E+10	1	-1E+10	1	-1E+10	1	-1E+10	1	-1E+10	1	-1E+10	1
4902551	49	C	12/17/2021	13:06	-133.504	49.566	0	329.90	0	4.5790	0	33.9160	0	26.866	0	326.824	0	58.1	4	18.6	4	-1E+10	1	-1E+10	1	-1E+10	1	-1E+10	1	-1E+10	1	-1E+10	1
4902551	49	C	12/17/2021	13:06	-133.504	49.566	0	330.70	0	4.5750	0	33.9180	0	26.868	0	327.616	0	57.9	4	18.5	4	-1E+10	1	-1E+10	1	-1E+10	1	-1E+10	1	-1E+10	1	-1E+10	1
4902551	49	C	12/17/2021	13:06	-133.504	49.566	0	331.60	0	4.5680	0	33.9190	0	26.869	0	328.507	0	57.7	4	18.4	4	-1E+10	1	-1E+10	1	-1E+10	1	-1E+10	1	-1E+10	1	-1E+10	1
4902551	49	C	12/17/2021	13:06	-133.504	49.566	0	332.90	0	4.5620	0	33.9210	0	26.871	0	329.793	0	57.4	4	18.3	4	-1E+10	1	-1E+10	1	-1E+10	1	-1E+10	1	-1E+10	1	-1E+10	1
4902551	49	C	12/17/2021	13:06	-133.504	49.566	0	334.40	0	4.5580	0	33.9220	0	26.873	0	331.278	0	57.1	4	18.2	4	-1E+10	1	-1E+10	1	-1E+10	1	-1E+10	1	-1E+10	1	-1E+10	1
4902551	49	C	12/17/2021	13:06	-133.504	49.566	0	335.30	0	4.5560	0	33.9230	0	26.874	0	332.169	0	56.9	4	18.2	4	-1E+10	1	-1E+10	1	-1E+10	1	-1E+10	1	-1E+10	1	-1E+10	1
4902551	49	C	12/17/2021	13:06	-133.504	49.566	0	336.20	0	4.5530	0	33.9230	0	26.874	0	333.060	0	56.7	4	18.1	4	-1E+10	1	-1E+10	1	-1E+10	1	-1E+10	1	-1E+10	1	-1E+10	1
4902551	49	C	12/17/2021	13:06	-133.504	49.566	0	337.10	0	4.5520	0	33.9250	0	26.876	0	333.951	0	56.5	4	18.0	4	-1E+10	1	-1E+10	1	-1E+10	1	-1E+10	1	-1E+10	1	-1E+10	1
4902551	49	C	12/17/2021	13:06	-133.504	49.566	0	338.00	0	4.5500	0	33.9240	0	26.875	0	334.842	0	56.3	4	18.0	4	-1E+10	1	-1E+10	1	-1E+10	1	-1E+10	1	-1E+10	1	-1E+10	1
4902551	49	C	12/17/2021	13:06	-133.504	49.566	0	338.90	0	4.5490	0	33.9250	0	26.876	0	335.733	0	56.0	4	17.9	4	-1E+10	1	-1E+10	1	-1E+10	1	-1E+10	1	-1E+10	1	-1E+10	1
4902551	49	C	12/17/2021	13:06	-133.504	49.566	0	339.80	0	4.5500	0	33.9250	0	26.876	0	336.623	0	55.8	4	17.8	4	-1E+10	1	-1E+10	1	-1E+10	1	-1E+10	1	-1E+10	1	-1E+10	1
4902551	49	C	12/17/2021	13:06	-133.504	49.566	0	340.70	0	4.5500	0	33.9260	0	26.877	0	337.514	0	55.6	4	17.8	4	-1E+10	1	-1E+10	1	-1E+10	1	-1E+10	1	-1E+10	1	-1E+10	1
4902551	49	C	12/17/2021	13:06	-133.504	49.566	0	341.60	0	4.5490	0	33.9260	0	26.877	0	338.405	0	55.4	4	17.7	4	-1E+10	1	-1E+10	1	-1E+10	1	-1E+10	1	-1E+10	1	-1E+10	1
4902551	49	C	12/17/2021	13:06	-133.504	49.566	0	342.90	0	4.5480	0	33.9270	0	26.878	0	339.692	0	55.1	4	17.6	4	-1E+10	1	-1E+10	1	-1E+10	1	-1E+10	1	-1E+10	1	-1E+10	1
4902551	49	C	12/17/2021	13:06	-133.504	49.566	0	344.30	0	4.5430	0	33.9280	0	26.879	0	341.078	0	54.7	4	17.5	4	-1E+10	1	-1E+10	1	-1E+10	1	-1E+10	1	-1E+10	1	-1E+10	1
4902551	49	C	12/17/2021	13:06	-133.504	49.566	0	345.20	0	4.5420	0	33.9280	0	26.879	0	341.969	0	54.4	4	17.4	4	-1E+10	1	-1E+10	1	-1E+10	1	-1E+10	1	-1E+10	1	-1E+10	1
4902551	49	C	12/17/2021	13:06	-133.504	49.566	0	346.10	0	4.5420	0	33.9290	0	26.880	0	342.859	0	54.1	4	17.3	4	-1E+10	1	-1E+10	1	-1E+10	1	-1E+10	1	-1E+10	1	-1E+10	1
4902551	49	C	12/17/2021	13:06	-133.504	49.566	0	347.00	0	4.5360	0	33.9330	0	26.884	0	343.750	0	53.9	4	17.2	4	-1E+10	1	-1E+10	1	-1E+10	1	-1E+10	1	-1E+10	1	-1E+10	1
4902551	49	C	12/17/2021	13:06	-133.504	49.566	0	347.90	0	4.5330	0	33.9340	0	26.885	0	344.641	0	53.7	4	17.1	4	-1E+10	1	-1E+10	1	-1E+10	1	-1E+10	1	-1E+10	1	-1E+10	1
4902551	49	C	12/17/2021	13:06	-133.504	49.566	0	348.80	0	4.5290	0	33.9350	0	26.886	0	345.532	0	53.5	4	17.1	4	-1E+10	1	-1E+10	1	-1E+10	1	-1E+10	1	-1E+10	1	-1E+10	1
4902551	49	C	12/17/2021	13:06	-133.504	49.566	0	349.70	0	4.5270	0	33.9360	0	26.887	0	346.423	0	53.3	4	17.0	4	-1E+10	1	-1E+10	1	-1E+10	1	-1E+10	1	-1E+10	1	-1E+10	1
4902551	49	C	12/17/2021	13:06	-133.504	49.566	0	352.90	0	4.5230	0	33.9370	0	26.888	0	349.590	0	52.6	4	16.8	4	-1E+10	1	-1E+10	1	-1E+10	1	-1E+10	1	-1E+10	1	-1E+10	1
4902551	49	C	12/17/2021	13:06	-133.504	49.566	0	357.90	0	4.5070	0	33.9430	0	26.895	0	354.539	0	51.8	4	16.5	4	-1E+10	1	-1E+10	1	-1E+10	1	-1E+10	1	-1E+10	1	-1E+10	1
4902551	49	C	12/17/2021	13:06	-133.504	49.566	0	363.10	0	4.4790	0	33.9490	0	26.903	0	359.685	0	51.3	4	16.3	4	-1E+10	1	-1E+10	1	-1E+10	1	-1E+10	1	-1E+10	1	-1E+10	1
4902551	49	C	12/17/2021	13:06	-133.504	49.566	0	368.20	0	4.4610	0	33.9550	0	26.910	0	364.733	0	50.5	4	16.1	4	-1E+10	1	-1E+10	1	-1E+10	1	-1E+10	1	-1E+10	1	-1E+10	1
4902551	49	C	12/17/2021	13:06	-133.504	49.566	0	372.90	0	4.4540	0	33.9580	0	26.913	0	369.385	0	49.7	4	15.8	4	-1E+10	1	-1E+10	1	-1E+10	1	-1E+10	1	-1E+10	1	-1E+10	1
4902551	49	C	12/17/2021	13:06	-133.504	49.566	0	378.00	0	4.4430	0	33.9620	0	26.917	0	374.432	0	48.6	4	15.5	4	-1E+10	1	-1E+10	1	-1E+10	1	-1E+10	1	-1E+10	1	-1E+10	1
4902551	49	C	12/17/2021	13:06	-133.504	49.566	0	383.10	0	4.4270	0	33.9690	0	26.924	0	379.479	0	47.7	4	15.2	4	-1E+10	1	-1E+10	1	-1E+10	1	-1E+10	1	-1E+10	1	-1E+10	1
4902551	49	C	12/17/2021	13:06	-133.504	49.566	0	388.00	0	4.4200	0	33.9710	0	26.927	0	384.328	0	46.9	4	14.9	4	-1E+10	1	-1E+10	1	-1E+10	1	-1E+10	1	-1E+10	1	-1E+10	1
4902551	49	C	12/17/2021	13:06	-133.504	49.566	0	392.70	0	4.4010	0	33.9780	0	26.934	0	388.979	0	46.4	4	14.8	4	-1E+10	1	-1E+10	1	-1E+10	1	-1E+10	1	-1E+10	1	-1E+10	1
4902551	49	C	12/17/2021	13:06	-133.504	49.566	0	397.80	0	4.3830	0	33.9830	0	26.940	0	394.026	0	45.9	4	14.6	4	-1E+10	1	-1E+10	1	-1E+10	1	-1E+10	1	-1E+10	1	-1E+10	1
4902551	49	C	12/17/2021	13:06	-133.504	49.566	0	402.90	0	4.3710	0	33.9860	0	26.944	0	399.073	0	45.0	4	14.3	4	-1E+10	1	-1E+10	1	-1E+10	1	-1E+10	1	-1E+10	1	-1E+10	1
4902551	49	C	12/17/2021	13:06	-133.504	49.566	0	407.60	0	4.3570	0	33.9920	0	26.950	0	403.724	0	44.0	4	14.0	4	-1E+10	1	-1E+10	1	-1E+10	1	-1E+10	1	-1E+10	1	-1E+10	1
4902551	49	C	12/17/2021	13:06	-133.504	49.566	0	412.80	0	4.3450	0	33.9960	0	26.955	0	408.869	0	42.9	4	13.6	4	-1E+10	1	-1E+10	1	-1E+10	1	-1E+10	1	-1E+10	1	-1E+10	1
4902551	49	C	12/17/2021	13:06	-133.504	49.566	0	417.90	0	4.3330	0	34.0030	0	26.962	0	413.915	0	41.6	4	13.2	4	-1E+10	1	-1E+10	1	-1E+10	1	-1E+10	1	-1E+10	1	-1E+10	1
4902551	49	C	12/17/2021	13:06	-133.504	49.566	0	422.70	0	4.3240	0	34.0070	0	26.966	0	418.665	0	40.8	4	13.0	4	-1E+10	1	-1E+10	1	-1E+10	1	-1E+10	1	-1E+10	1	-1E+10	1
4902551	49	C	12/17/2021	13:06	-133.504	49.566	0	427.60	0	4.3110	0	34.0130	0	26.972	0	423.513	0	40.0	4	12.7	4	-1E+10	1	-1E+10	1	-1E+10	1	-1E+10	1	-1E+10	1	-1E+10	1
4902551	49	C	12/17/2021	13:06	-133.504	49.566	0	432.60	0	4.2980	0	34.0180	0	26.977	0	428.460	0	39.3	4	12.5	4	-1E+10	1	-1E+10	1	-1E+10	1	-1E+10	1	-1E+10	1	-1E+10	1
4902551	49	C	12/17/2021	13:06	-133.504	49.566	0	437.60	0	4.2900	0	34.0210	0	26.981	0	433.407	0	38.5	4	12.2	4	-1E+10	1	-1E+10	1	-1E+10	1	-1E+10	1	-1E+10	1	-1E+10	1
4902551	49	C	12/17/2021	13:06	-133.504	49.566	0	442.60	0	4.2750	0	34.0270	0	26.987	0	438.354	0	37.6	4	11.9	4	-1E+10	1	-1E+10	1	-1E+10	1	-1E+10	1	-1E+10	1	-1E+10	1
4902551	49	C	12/17/2021	13:06	-133.504	49.566	0	447.60	0	4.2700	0	34.0300	0	26.990	0	443.301	0	36.5	4	11.6	4	-1E+10	1	-1E+10	1	-1E+10	1	-1E+10	1	-1E+10	1	-1E+10	1
4902551	49	C	12/17/2021	13:06	-133.504	49.566	0	452.70	0	4.2530	0	34.0360	0	26.997	0	448.346	0	34.8	4	11.1	4	-1E+10	1	-1E+10	1	-1E+10	1	-1E+10	1	-1E+10	1	-1E+10	1
4902551	49	C	12/17/2021	13:06	-133.504	49.566	0	457.70	0	4.2390	0	34.0450	0	27.005	0	453.293	0	33.7	4	10.7	4	-1E+10	1	-1E+10	1	-1E+10	1	-1E+10	1	-1E+10	1	-1E+10	1
4902551	49	C	12/17/2021	13:06	-133.504	49.566	0	462.80	0	4.2300	0	34.0490	0	27.009	0	458.338	0	33.4	4	10.6	4	-1E+10	1	-1E+10	1	-1E+10	1	-1E+10	1	-1E+10	1	-1E+10	1
4902551	49	C	12/17/2021	13:06	-133.504	49.566	0	468.00	0	4.2190	0	34.0530	0	27.014	0	463.482	0	33.0	4	10.5	4	-1E+10	1	-1E+10	1	-1E+10	1	-1E+10	1	-1E+10	1	-1E+10	1
4902551	49	C	12/17/2021	13:06	-133.504	49.566	0	472.70	0	4.2110	0	34.0560	0	27.017	0	468.131	0	32.5	4	10.3	4	-1E+10	1	-1E+10	1	-1E+10	1	-1E+10	1	-1E+10	1	-1E+10	1
4902551	49	C	12/17/2021	13:06	-133.504	49.566	0	477.90	0	4.2050	0	34.0580	0	27.019	0	473.275	0	32.1	4	10.2	4	-1E+10	1	-1E+10	1	-1E+10	1	-1E+10	1	-1E+10	1	-1E+10	1
4902551	49	C	12/17/2021	13:06	-133.504	49.566	0	483.10	0	4.1920	0	34.0630	0	27.025	0	478.419	0	31.7	4	10.1	4	-1E+10	1	-1E+10	1	-1E+10	1	-1E+10	1	-1E+10	1	-1E+10	1
4902551	49	C	12/17/2021	13:06	-133.504	49.566	0	487.80	0	4.1700	0	34.0690	0	27.032	0	483.068	0	31.3	4	9.9	4	-1E+10	1	-1E+10	1	-1E+10	1	-1E+10	1	-1E+10	1	-1E+10	1
4902551	49	C	12/17/2021	13:06	-133.504	49.566	0	492.80	0	4.1620	0	34.0720	0	27.035	0	488.013	0	30.4	4	9.6	4	-1E+10	1	-1E+10	1	-1E+10	1	-1E+10	1	-1E+10	1	-1E+10	1
4902551	49	C	12/17/2021	13:06	-133.504	49.566	0	497.80	0	4.1520	0	34.0760	0	27.039	0	492.959	0	29.2	4	9.2	4	-1E+10	1	-1E+10	1	-1E+10	1	-1E+10	1	-1E+10	1	-1E+10	1
4902551	49	C	12/17/2021	13:06	-133.504	49.566	0	502.70	0	4.1440	0	34.0820	0	27.045	0	497.805	0	27.7	4	8.8	4	-1E+10	1	-1E+10	1	-1E+10	1	-1E+10	1	-1E+10	1	-1E+10	1
4902551	49	C	12/17/2021	13:06	-133.504	49.566	0	507.80	0	4.1380	0	34.0880	0	27.050	0	502.850	0	26.8	4	8.5	4	-1E+10	1	-1E+10	1	-1E+10	1	-1E+10	1	-1E+10	1	-1E+10	1
4902551	49	C	12/17/2021	13:06	-133.504	49.566	0	512.90	0	4.1280	0	34.0920	0	27.055	0	507.894	0	26.1	4	8.3	4	-1E+10	1	-1E+10	1	-1E+10	1	-1E+10	1	-1E+10	1	-1E+10	1
4902551	49	C	12/17/2021	13:06	-133.504	49.566	0	518.00	0	4.1160	0	34.0970	0	27.060	0	512.938	0	25.5	4	8.1	4	-1E+10	1	-1E+10	1	-1E+10	1	-1E+10	1	-1E+10	1	-1E+10	1
4902551	49	C	12/17/2021	13:06	-133.504	49.566	0	523.10	0	4.0990	0	34.1020	0	27.066	0	517.981	0	24.9	4	7.9	4	-1E+10	1	-1E+10	1	-1E+10	1	-1E+10	1	-1E+10	1	-1E+10	1
4902551	49	C	12/17/2021	13:06	-133.504	49.566	0	527.90	0	4.0790	0	34.1090	0	27.073	0	522.728	0	24.5	4	7.7	4	-1E+10	1	-1E+10	1	-1E+10	1	-1E+10	1	-1E+10	1	-1E+10	1
4902551	49	C	12/17/2021	13:06	-133.504	49.566	0	532.60	0	4.0700	0	34.1120	0	27.077	0	527.376	0	24.2	4	7.6	4	-1E+10	1	-1E+10	1	-1E+10	1	-1E+10	1	-1E+10	1	-1E+10	1
4902551	49	C	12/17/2021	13:06	-133.504	49.566	0	537.80	0	4.0590	0	34.1150	0	27.080	0	532.519	0	23.8	4	7.5	4	-1E+10	1	-1E+10	1	-1E+10	1	-1E+10	1	-1E+10	1	-1E+10	1
4902551	49	C	12/17/2021	13:06	-133.504	49.566	0	543.10	0	4.0470	0	34.1200	0	27.085	0	537.760	0	23.4	4	7.4	4	-1E+10	1	-1E+10	1	-1E+10	1	-1E+10	1	-1E+10	1	-1E+10	1
4902551	49	C	12/17/2021	13:06	-133.504	49.566	0	548.00	0	4.0400	0	34.1230	0	27.089	0	542.605	0	23.1	4	7.3	4	-1E+10	1	-1E+10	1	-1E+10	1	-1E+10	1	-1E+10	1	-1E+10	1
4902551	49	C	12/17/2021	13:06	-133.504	49.566	0	552.80	0	4.0260	0	34.1270	0	27.093	0	547.352	0	23.0	4	7.3	4	-1E+10	1	-1E+10	1	-1E+10	1	-1E+10	1	-1E+10	1	-1E+10	1
4902551	49	C	12/17/2021	13:06	-133.504	49.566	0	557.80	0	4.0160	0	34.1290	0	27.096	0	552.296	0	22.7	4	7.2	4	-1E+10	1	-1E+10	1	-1E+10	1	-1E+10	1	-1E+10	1	-1E+10	1
4902551	49	C	12/17/2021	13:06	-133.504	49.566	0	562.80	0	4.0060	0	34.1320	0	27.099	0	557.240	0	22.3	4	7.0	4	-1E+10	1	-1E+10	1	-1E+10	1	-1E+10	1	-1E+10	1	-1E+10	1
4902551	49	C	12/17/2021	13:06	-133.504	49.566	0	567.90	0	3.9920	0	34.1370	0	27.105	0	562.282	0	21.9	4	6.9	4	-1E+10	1	-1E+10	1	-1E+10	1	-1E+10	1	-1E+10	1	-1E+10	1
4902551	49	C	12/17/2021	13:06	-133.504	49.566	0	572.70	0	3.9770	0	34.1420	0	27.110	0	567.028	0	21.6	4	6.8	4	-1E+10	1	-1E+10	1	-1E+10	1	-1E+10	1	-1E+10	1	-1E+10	1
4902551	49	C	12/17/2021	13:06	-133.504	49.566	0	577.50	0	3.9690	0	34.1450	0	27.113	0	571.774	0	21.4	4	6.8	4	-1E+10	1	-1E+10	1	-1E+10	1	-1E+10	1	-1E+10	1	-1E+10	1
4902551	49	C	12/17/2021	13:06	-133.504	49.566	0	582.90	0	3.9670	0	34.1460	0	27.115	0	577.113	0	21.2	4	6.7	4	-1E+10	1	-1E+10	1	-1E+10	1	-1E+10	1	-1E+10	1	-1E+10	1
4902551	49	C	12/17/2021	13:06	-133.504	49.566	0	588.20	0	3.9630	0	34.1470	0	27.116	0	582.353	0	21.0	4	6.6	4	-1E+10	1	-1E+10	1	-1E+10	1	-1E+10	1	-1E+10	1	-1E+10	1
4902551	49	C	12/17/2021	13:06	-133.504	49.566	0	593.20	0	3.9540	0	34.1510	0	27.120	0	587.296	0	20.8	4	6.6	4	-1E+10	1	-1E+10	1	-1E+10	1	-1E+10	1	-1E+10	1	-1E+10	1
4902551	49	C	12/17/2021	13:06	-133.504	49.566	0	598.20	0	3.9350	0	34.1560	0	27.126	0	592.240	0	20.6	4	6.5	4	-1E+10	1	-1E+10	1	-1E+10	1	-1E+10	1	-1E+10	1	-1E+10	1
4902551	49	C	12/17/2021	13:06	-133.504	49.566	0	603.30	0	3.9280	0	34.1580	0	27.128	0	597.281	0	20.5	4	6.4	4	-1E+10	1	-1E+10	1	-1E+10	1	-1E+10	1	-1E+10	1	-1E+10	1
4902551	49	C	12/17/2021	13:06	-133.504	49.566	0	608.20	0	3.9200	0	34.1600	0	27.131	0	602.125	0	20.3	4	6.4	4	-1E+10	1	-1E+10	1	-1E+10	1	-1E+10	1	-1E+10	1	-1E+10	1
4902551	49	C	12/17/2021	13:06	-133.504	49.566	0	613.20	0	3.9090	0	34.1630	0	27.134	0	607.068	0	20.2	4	6.4	4	-1E+10	1	-1E+10	1	-1E+10	1	-1E+10	1	-1E+10	1	-1E+10	1
4902551	49	C	12/17/2021	13:06	-133.504	49.566	0	618.30	0	3.9010	0	34.1650	0	27.137	0	612.110	0	20.1	4	6.3	4	-1E+10	1	-1E+10	1	-1E+10	1	-1E+10	1	-1E+10	1	-1E+10	1
4902551	49	C	12/17/2021	13:06	-133.504	49.566	0	623.30	0	3.8900	0	34.1680	0	27.140	0	617.052	0	20.0	4	6.3	4	-1E+10	1	-1E+10	1	-1E+10	1	-1E+10	1	-1E+10	1	-1E+10	1
4902551	49	C	12/17/2021	13:06	-133.504	49.566	0	628.40	0	3.8710	0	34.1730	0	27.146	0	622.094	0	19.9	4	6.3	4	-1E+10	1	-1E+10	1	-1E+10	1	-1E+10	1	-1E+10	1	-1E+10	1
4902551	49	C	12/17/2021	13:06	-133.504	49.566	0	632.90	0	3.8430	0	34.1790	0	27.154	0	626.542	0	19.8	4	6.2	4	-1E+10	1	-1E+10	1	-1E+10	1	-1E+10	1	-1E+10	1	-1E+10	1
4902551	49	C	12/17/2021	13:06	-133.504	49.566	0	637.50	0	3.8310	0	34.1810	0	27.156	0	631.088	0	19.7	4	6.2	4	-1E+10	1	-1E+10	1	-1E+10	1	-1E+10	1	-1E+10	1	-1E+10	1
4902551	49	C	12/17/2021	13:06	-133.504	49.566	0	642.70	0	3.8130	0	34.1850	0	27.161	0	636.228	0	19.6	4	6.1	4	-1E+10	1	-1E+10	1	-1E+10	1	-1E+10	1	-1E+10	1	-1E+10	1
4902551	49	C	12/17/2021	13:06	-133.504	49.566	0	647.80	0	3.7910	0	34.1900	0	27.168	0	641.269	0	19.3	4	6.1	4	-1E+10	1	-1E+10	1	-1E+10	1	-1E+10	1	-1E+10	1	-1E+10	1
4902551	49	C	12/17/2021	13:06	-133.504	49.566	0	653.00	0	3.7780	0	34.1940	0	27.172	0	646.409	0	19.0	4	6.0	4	-1E+10	1	-1E+10	1	-1E+10	1	-1E+10	1	-1E+10	1	-1E+10	1
4902551	49	C	12/17/2021	13:06	-133.504	49.566	0	657.80	0	3.7680	0	34.1970	0	27.176	0	651.153	0	19.0	4	6.0	4	-1E+10	1	-1E+10	1	-1E+10	1	-1E+10	1	-1E+10	1	-1E+10	1
4902551	49	C	12/17/2021	13:06	-133.504	49.566	0	663.00	0	3.7530	0	34.1990	0	27.179	0	656.292	0	19.0	4	6.0	4	-1E+10	1	-1E+10	1	-1E+10	1	-1E+10	1	-1E+10	1	-1E+10	1
4902551	49	C	12/17/2021	13:06	-133.504	49.566	0	668.20	0	3.7410	0	34.2020	0	27.182	0	661.431	0	18.9	4	5.9	4	-1E+10	1	-1E+10	1	-1E+10	1	-1E+10	1	-1E+10	1	-1E+10	1
4902551	49	C	12/17/2021	13:06	-133.504	49.566	0	673.00	0	3.7270	0	34.2050	0	27.186	0	666.175	0	18.7	4	5.9	4	-1E+10	1	-1E+10	1	-1E+10	1	-1E+10	1	-1E+10	1	-1E+10	1
4902551	49	C	12/17/2021	13:06	-133.504	49.566	0	677.90	0	3.7130	0	34.2080	0	27.190	0	671.017	0	18.6	4	5.8	4	-1E+10	1	-1E+10	1	-1E+10	1	-1E+10	1	-1E+10	1	-1E+10	1
4902551	49	C	12/17/2021	13:06	-133.504	49.566	0	683.00	0	3.7020	0	34.2110	0	27.193	0	676.057	0	18.5	4	5.8	4	-1E+10	1	-1E+10	1	-1E+10	1	-1E+10	1	-1E+10	1	-1E+10	1
4902551	49	C	12/17/2021	13:06	-133.504	49.566	0	687.80	0	3.6890	0	34.2140	0	27.197	0	680.800	0	18.3	4	5.7	4	-1E+10	1	-1E+10	1	-1E+10	1	-1E+10	1	-1E+10	1	-1E+10	1
4902551	49	C	12/17/2021	13:06	-133.504	49.566	0	692.70	0	3.6750	0	34.2170	0	27.201	0	685.643	0	18.1	4	5.7	4	-1E+10	1	-1E+10	1	-1E+10	1	-1E+10	1	-1E+10	1	-1E+10	1
4902551	49	C	12/17/2021	13:06	-133.504	49.566	0	697.70	0	3.6630	0	34.2200	0	27.205	0	690.583	0	17.9	4	5.6	4	-1E+10	1	-1E+10	1	-1E+10	1	-1E+10	1	-1E+10	1	-1E+10	1
4902551	49	C	12/17/2021	13:06	-133.504	49.566	0	702.80	0	3.6470	0	34.2240	0	27.209	0	695.623	0	17.6	4	5.5	4	-1E+10	1	-1E+10	1	-1E+10	1	-1E+10	1	-1E+10	1	-1E+10	1
4902551	49	C	12/17/2021	13:06	-133.504	49.566	0	708.00	0	3.6370	0	34.2270	0	27.213	0	700.761	0	17.4	4	5.5	4	-1E+10	1	-1E+10	1	-1E+10	1	-1E+10	1	-1E+10	1	-1E+10	1
4902551	49	C	12/17/2021	13:06	-133.504	49.566	0	712.70	0	3.6250	0	34.2300	0	27.216	0	705.405	0	17.3	4	5.4	4	-1E+10	1	-1E+10	1	-1E+10	1	-1E+10	1	-1E+10	1	-1E+10	1
4902551	49	C	12/17/2021	13:06	-133.504	49.566	0	717.60	0	3.6210	0	34.2310	0	27.218	0	710.246	0	17.1	4	5.4	4	-1E+10	1	-1E+10	1	-1E+10	1	-1E+10	1	-1E+10	1	-1E+10	1
4902551	49	C	12/17/2021	13:06	-133.504	49.566	0	722.90	0	3.6100	0	34.2340	0	27.221	0	715.483	0	16.9	4	5.3	4	-1E+10	1	-1E+10	1	-1E+10	1	-1E+10	1	-1E+10	1	-1E+10	1
4902551	49	C	12/17/2021	13:06	-133.504	49.566	0	728.30	0	3.5990	0	34.2370	0	27.225	0	720.818	0	16.7	4	5.2	4	-1E+10	1	-1E+10	1	-1E+10	1	-1E+10	1	-1E+10	1	-1E+10	1
4902551	49	C	12/17/2021	13:06	-133.504	49.566	0	732.90	0	3.5840	0	34.2410	0	27.229	0	725.363	0	16.4	4	5.1	4	-1E+10	1	-1E+10	1	-1E+10	1	-1E+10	1	-1E+10	1	-1E+10	1
4902551	49	C	12/17/2021	13:06	-133.504	49.566	0	737.50	0	3.5700	0	34.2450	0	27.234	0	729.908	0	16.3	4	5.1	4	-1E+10	1	-1E+10	1	-1E+10	1	-1E+10	1	-1E+10	1	-1E+10	1
4902551	49	C	12/17/2021	13:06	-133.504	49.566	0	742.60	0	3.5610	0	34.2470	0	27.236	0	734.946	0	16.2	4	5.1	4	-1E+10	1	-1E+10	1	-1E+10	1	-1E+10	1	-1E+10	1	-1E+10	1
4902551	49	C	12/17/2021	13:06	-133.504	49.566	0	747.90	0	3.5560	0	34.2490	0	27.238	0	740.182	0	16.1	4	5.0	4	-1E+10	1	-1E+10	1	-1E+10	1	-1E+10	1	-1E+10	1	-1E+10	1
4902551	49	C	12/17/2021	13:06	-133.504	49.566	0	753.10	0	3.5450	0	34.2510	0	27.241	0	745.319	0	16.0	4	5.0	4	-1E+10	1	-1E+10	1	-1E+10	1	-1E+10	1	-1E+10	1	-1E+10	1
4902551	49	C	12/17/2021	13:06	-133.504	49.566	0	757.90	0	3.5410	0	34.2530	0	27.243	0	750.061	0	15.8	4	5.0	4	-1E+10	1	-1E+10	1	-1E+10	1	-1E+10	1	-1E+10	1	-1E+10	1
4902551	49	C	12/17/2021	13:06	-133.504	49.566	0	762.60	0	3.5370	0	34.2540	0	27.244	0	754.704	0	15.7	4	4.9	4	-1E+10	1	-1E+10	1	-1E+10	1	-1E+10	1	-1E+10	1	-1E+10	1
4902551	49	C	12/17/2021	13:06	-133.504	49.566	0	767.90	0	3.5330	0	34.2550	0	27.246	0	759.939	0	15.6	4	4.9	4	-1E+10	1	-1E+10	1	-1E+10	1	-1E+10	1	-1E+10	1	-1E+10	1
4902551	49	C	12/17/2021	13:06	-133.504	49.566	0	773.10	0	3.5220	0	34.2580	0	27.249	0	765.076	0	15.4	4	4.8	4	-1E+10	1	-1E+10	1	-1E+10	1	-1E+10	1	-1E+10	1	-1E+10	1
4902551	49	C	12/17/2021	13:06	-133.504	49.566	0	777.90	0	3.5120	0	34.2610	0	27.252	0	769.817	0	15.2	4	4.8	4	-1E+10	1	-1E+10	1	-1E+10	1	-1E+10	1	-1E+10	1	-1E+10	1
4902551	49	C	12/17/2021	13:06	-133.504	49.566	0	782.60	0	3.5020	0	34.2640	0	27.256	0	774.460	0	15.1	4	4.7	4	-1E+10	1	-1E+10	1	-1E+10	1	-1E+10	1	-1E+10	1	-1E+10	1
4902551	49	C	12/17/2021	13:06	-133.504	49.566	0	787.90	0	3.4920	0	34.2660	0	27.258	0	779.695	0	14.9	4	4.6	4	-1E+10	1	-1E+10	1	-1E+10	1	-1E+10	1	-1E+10	1	-1E+10	1
4902551	49	C	12/17/2021	13:06	-133.504	49.566	0	793.20	0	3.4840	0	34.2680	0	27.261	0	784.930	0	14.7	4	4.6	4	-1E+10	1	-1E+10	1	-1E+10	1	-1E+10	1	-1E+10	1	-1E+10	1
4902551	49	C	12/17/2021	13:06	-133.504	49.566	0	797.90	0	3.4710	0	34.2730	0	27.266	0	789.572	0	14.6	4	4.5	4	-1E+10	1	-1E+10	1	-1E+10	1	-1E+10	1	-1E+10	1	-1E+10	1
4902551	49	C	12/17/2021	13:06	-133.504	49.566	0	802.50	0	3.4660	0	34.2740	0	27.267	0	794.115	0	14.5	4	4.5	4	-1E+10	1	-1E+10	1	-1E+10	1	-1E+10	1	-1E+10	1	-1E+10	1
4902551	49	C	12/17/2021	13:06	-133.504	49.566	0	807.70	0	3.4550	0	34.2770	0	27.271	0	799.251	0	14.4	4	4.5	4	-1E+10	1	-1E+10	1	-1E+10	1	-1E+10	1	-1E+10	1	-1E+10	1
4902551	49	C	12/17/2021	13:06	-133.504	49.566	0	812.80	0	3.4400	0	34.2800	0	27.275	0	804.288	0	14.4	4	4.5	4	-1E+10	1	-1E+10	1	-1E+10	1	-1E+10	1	-1E+10	1	-1E+10	1
4902551	49	C	12/17/2021	13:06	-133.504	49.566	0	818.00	0	3.4350	0	34.2810	0	27.276	0	809.423	0	14.4	4	4.5	4	-1E+10	1	-1E+10	1	-1E+10	1	-1E+10	1	-1E+10	1	-1E+10	1
4902551	49	C	12/17/2021	13:06	-133.504	49.566	0	823.20	0	3.4330	0	34.2810	0	27.276	0	814.558	0	14.3	4	4.5	4	-1E+10	1	-1E+10	1	-1E+10	1	-1E+10	1	-1E+10	1	-1E+10	1
4902551	49	C	12/17/2021	13:06	-133.504	49.566	0	827.80	0	3.4290	0	34.2820	0	27.277	0	819.101	0	14.2	4	4.4	4	-1E+10	1	-1E+10	1	-1E+10	1	-1E+10	1	-1E+10	1	-1E+10	1
4902551	49	C	12/17/2021	13:06	-133.504	49.566	0	832.50	0	3.4220	0	34.2840	0	27.280	0	823.742	0	14.2	4	4.4	4	-1E+10	1	-1E+10	1	-1E+10	1	-1E+10	1	-1E+10	1	-1E+10	1
4902551	49	C	12/17/2021	13:06	-133.504	49.566	0	837.60	0	3.4170	0	34.2850	0	27.281	0	828.779	0	14.1	4	4.4	4	-1E+10	1	-1E+10	1	-1E+10	1	-1E+10	1	-1E+10	1	-1E+10	1
4902551	49	C	12/17/2021	13:06	-133.504	49.566	0	842.70	0	3.4110	0	34.2870	0	27.283	0	833.815	0	14.0	4	4.4	4	-1E+10	1	-1E+10	1	-1E+10	1	-1E+10	1	-1E+10	1	-1E+10	1
4902551	49	C	12/17/2021	13:06	-133.504	49.566	0	847.80	0	3.4070	0	34.2880	0	27.284	0	838.851	0	13.9	4	4.3	4	-1E+10	1	-1E+10	1	-1E+10	1	-1E+10	1	-1E+10	1	-1E+10	1
4902551	49	C	12/17/2021	13:06	-133.504	49.566	0	852.90	0	3.4060	0	34.2890	0	27.285	0	843.887	0	13.7	4	4.3	4	-1E+10	1	-1E+10	1	-1E+10	1	-1E+10	1	-1E+10	1	-1E+10	1
4902551	49	C	12/17/2021	13:06	-133.504	49.566	0	858.10	0	3.3990	0	34.2910	0	27.288	0	849.021	0	13.5	4	4.2	4	-1E+10	1	-1E+10	1	-1E+10	1	-1E+10	1	-1E+10	1	-1E+10	1
4902551	49	C	12/17/2021	13:06	-133.504	49.566	0	863.10	0	3.3810	0	34.2960	0	27.293	0	853.958	0	13.4	4	4.2	4	-1E+10	1	-1E+10	1	-1E+10	1	-1E+10	1	-1E+10	1	-1E+10	1
4902551	49	C	12/17/2021	13:06	-133.504	49.566	0	868.20	0	3.3740	0	34.2990	0	27.296	0	858.994	0	13.4	4	4.2	4	-1E+10	1	-1E+10	1	-1E+10	1	-1E+10	1	-1E+10	1	-1E+10	1
4902551	49	C	12/17/2021	13:06	-133.504	49.566	0	873.30	0	3.3590	0	34.3020	0	27.300	0	864.029	0	13.4	4	4.2	4	-1E+10	1	-1E+10	1	-1E+10	1	-1E+10	1	-1E+10	1	-1E+10	1
4902551	49	C	12/17/2021	13:06	-133.504	49.566	0	878.40	0	3.3430	0	34.3030	0	27.303	0	869.064	0	13.3	4	4.1	4	-1E+10	1	-1E+10	1	-1E+10	1	-1E+10	1	-1E+10	1	-1E+10	1
4902551	49	C	12/17/2021	13:06	-133.504	49.566	0	882.90	0	3.3310	0	34.3070	0	27.307	0	873.507	0	13.2	4	4.1	4	-1E+10	1	-1E+10	1	-1E+10	1	-1E+10	1	-1E+10	1	-1E+10	1
4902551	49	C	12/17/2021	13:06	-133.504	49.566	0	887.50	0	3.3140	0	34.3100	0	27.311	0	878.048	0	13.1	4	4.1	4	-1E+10	1	-1E+10	1	-1E+10	1	-1E+10	1	-1E+10	1	-1E+10	1
4902551	49	C	12/17/2021	13:06	-133.504	49.566	0	892.90	0	3.2940	0	34.3140	0	27.316	0	883.379	0	13.0	4	4.1	4	-1E+10	1	-1E+10	1	-1E+10	1	-1E+10	1	-1E+10	1	-1E+10	1
4902551	49	C	12/17/2021	13:06	-133.504	49.566	0	898.00	0	3.2850	0	34.3170	0	27.319	0	888.414	0	12.9	4	4.0	4	-1E+10	1	-1E+10	1	-1E+10	1	-1E+10	1	-1E+10	1	-1E+10	1
4902551	49	C	12/17/2021	13:06	-133.504	49.566	0	902.80	0	3.2760	0	34.3200	0	27.323	0	893.153	0	12.9	4	4.0	4	-1E+10	1	-1E+10	1	-1E+10	1	-1E+10	1	-1E+10	1	-1E+10	1
4902551	49	C	12/17/2021	13:06	-133.504	49.566	0	907.60	0	3.2650	0	34.3220	0	27.325	0	897.891	0	12.9	4	4.0	4	-1E+10	1	-1E+10	1	-1E+10	1	-1E+10	1	-1E+10	1	-1E+10	1
4902551	49	C	12/17/2021	13:06	-133.504	49.566	0	912.90	0	3.2560	0	34.3230	0	27.327	0	903.123	0	12.9	4	4.0	4	-1E+10	1	-1E+10	1	-1E+10	1	-1E+10	1	-1E+10	1	-1E+10	1
4902551	49	C	12/17/2021	13:06	-133.504	49.566	0	917.90	0	3.2490	0	34.3250	0	27.329	0	908.059	0	12.9	4	4.0	4	-1E+10	1	-1E+10	1	-1E+10	1	-1E+10	1	-1E+10	1	-1E+10	1
4902551	49	C	12/17/2021	13:06	-133.504	49.566	0	922.60	0	3.2400	0	34.3260	0	27.331	0	912.698	0	12.8	4	4.0	4	-1E+10	1	-1E+10	1	-1E+10	1	-1E+10	1	-1E+10	1	-1E+10	1
4902551	49	C	12/17/2021	13:06	-133.504	49.566	0	927.70	0	3.2300	0	34.3290	0	27.334	0	917.732	0	12.9	4	4.0	4	-1E+10	1	-1E+10	1	-1E+10	1	-1E+10	1	-1E+10	1	-1E+10	1
4902551	49	C	12/17/2021	13:06	-133.504	49.566	0	932.90	0	3.2020	0	34.3310	0	27.338	0	922.865	0	12.9	4	4.0	4	-1E+10	1	-1E+10	1	-1E+10	1	-1E+10	1	-1E+10	1	-1E+10	1
4902551	49	C	12/17/2021	13:06	-133.504	49.566	0	938.20	0	3.1990	0	34.3330	0	27.340	0	928.096	0	12.8	4	4.0	4	-1E+10	1	-1E+10	1	-1E+10	1	-1E+10	1	-1E+10	1	-1E+10	1
4902551	49	C	12/17/2021	13:06	-133.504	49.566	0	943.00	0	3.1940	0	34.3350	0	27.342	0	932.834	0	12.8	4	4.0	4	-1E+10	1	-1E+10	1	-1E+10	1	-1E+10	1	-1E+10	1	-1E+10	1
4902551	49	C	12/17/2021	13:06	-133.504	49.566	0	947.90	0	3.1880	0	34.3360	0	27.344	0	937.670	0	12.8	4	4.0	4	-1E+10	1	-1E+10	1	-1E+10	1	-1E+10	1	-1E+10	1	-1E+10	1
4902551	49	C	12/17/2021	13:06	-133.504	49.566	0	952.80	0	3.1740	0	34.3390	0	27.348	0	942.506	0	12.8	4	4.0	4	-1E+10	1	-1E+10	1	-1E+10	1	-1E+10	1	-1E+10	1	-1E+10	1
4902551	49	C	12/17/2021	13:06	-133.504	49.566	0	957.90	0	3.1620	0	34.3400	0	27.349	0	947.539	0	12.8	4	4.0	4	-1E+10	1	-1E+10	1	-1E+10	1	-1E+10	1	-1E+10	1	-1E+10	1
4902551	49	C	12/17/2021	13:06	-133.504	49.566	0	963.10	0	3.1440	0	34.3430	0	27.354	0	952.671	0	12.8	4	4.0	4	-1E+10	1	-1E+10	1	-1E+10	1	-1E+10	1	-1E+10	1	-1E+10	1
4902551	49	C	12/17/2021	13:06	-133.504	49.566	0	967.80	0	3.1380	0	34.3450	0	27.356	0	957.310	0	12.8	4	4.0	4	-1E+10	1	-1E+10	1	-1E+10	1	-1E+10	1	-1E+10	1	-1E+10	1
4902551	49	C	12/17/2021	13:06	-133.504	49.566	0	972.60	0	3.1340	0	34.3460	0	27.357	0	962.047	0	12.7	4	3.9	4	-1E+10	1	-1E+10	1	-1E+10	1	-1E+10	1	-1E+10	1	-1E+10	1
4902551	49	C	12/17/2021	13:06	-133.504	49.566	0	977.50	0	3.1250	0	34.3480	0	27.359	0	966.882	0	12.7	4	3.9	4	-1E+10	1	-1E+10	1	-1E+10	1	-1E+10	1	-1E+10	1	-1E+10	1
4902551	49	C	12/17/2021	13:06	-133.504	49.566	0	982.90	0	3.1150	0	34.3510	0	27.363	0	972.211	0	12.6	4	3.9	4	-1E+10	1	-1E+10	1	-1E+10	1	-1E+10	1	-1E+10	1	-1E+10	1
4902551	49	C	12/17/2021	13:06	-133.504	49.566	0	987.90	0	3.1060	0	34.3530	0	27.365	0	977.145	0	12.6	4	3.9	4	-1E+10	1	-1E+10	1	-1E+10	1	-1E+10	1	-1E+10	1	-1E+10	1
4902551	49	C	12/17/2021	13:06	-133.504	49.566	0	992.50	0	3.0960	0	34.3550	0	27.368	0	981.684	0	12.6	4	3.9	4	-1E+10	1	-1E+10	1	-1E+10	1	-1E+10	1	-1E+10	1	-1E+10	1
4902551	49	C	12/17/2021	13:06	-133.504	49.566	0	997.70	0	3.0880	0	34.3570	0	27.370	0	986.815	0	12.5	4	3.9	4	-1E+10	1	-1E+10	1	-1E+10	1	-1E+10	1	-1E+10	1	-1E+10	1
4902551	49	C	12/17/2021	13:06	-133.504	49.566	0	1005.10	0	3.0780	0	34.3600	0	27.373	0	994.117	0	12.5	4	3.9	4	-1E+10	1	-1E+10	1	-1E+10	1	-1E+10	1	-1E+10	1	-1E+10	1
4902551	49	C	12/17/2021	13:06	-133.504	49.566	0	1015.40	0	3.0610	0	34.3630	0	27.377	0	1004.280	0	12.4	4	3.8	4	-1E+10	1	-1E+10	1	-1E+10	1	-1E+10	1	-1E+10	1	-1E+10	1
4902551	49	C	12/17/2021	13:06	-133.504	49.566	0	1025.90	0	3.0430	0	34.3680	0	27.383	0	1014.639	0	12.4	4	3.8	4	-1E+10	1	-1E+10	1	-1E+10	1	-1E+10	1	-1E+10	1	-1E+10	1
4902551	49	C	12/17/2021	13:06	-133.504	49.566	0	1035.80	0	3.0260	0	34.3730	0	27.389	0	1024.406	0	12.3	4	3.8	4	-1E+10	1	-1E+10	1	-1E+10	1	-1E+10	1	-1E+10	1	-1E+10	1
4902551	49	C	12/17/2021	13:06	-133.504	49.566	0	1045.60	0	3.0160	0	34.3770	0	27.393	0	1034.074	0	12.2	4	3.8	4	-1E+10	1	-1E+10	1	-1E+10	1	-1E+10	1	-1E+10	1	-1E+10	1
4902551	49	C	12/17/2021	13:06	-133.504	49.566	0	1055.40	0	3.0040	0	34.3810	0	27.397	0	1043.742	0	12.2	4	3.8	4	-1E+10	1	-1E+10	1	-1E+10	1	-1E+10	1	-1E+10	1	-1E+10	1
4902551	49	C	12/17/2021	13:06	-133.504	49.566	0	1065.20	0	2.9850	0	34.3840	0	27.401	0	1053.409	0	12.3	4	3.8	4	-1E+10	1	-1E+10	1	-1E+10	1	-1E+10	1	-1E+10	1	-1E+10	1
4902551	49	C	12/17/2021	13:06	-133.504	49.566	0	1075.30	0	2.9610	0	34.3880	0	27.407	0	1063.372	0	12.3	4	3.8	4	-1E+10	1	-1E+10	1	-1E+10	1	-1E+10	1	-1E+10	1	-1E+10	1
4902551	49	C	12/17/2021	13:06	-133.504	49.566	0	1085.90	0	2.9460	0	34.3910	0	27.411	0	1073.827	0	12.3	4	3.8	4	-1E+10	1	-1E+10	1	-1E+10	1	-1E+10	1	-1E+10	1	-1E+10	1
4902551	49	C	12/17/2021	13:06	-133.504	49.566	0	1095.50	0	2.9360	0	34.3940	0	27.414	0	1083.296	0	12.3	4	3.8	4	-1E+10	1	-1E+10	1	-1E+10	1	-1E+10	1	-1E+10	1	-1E+10	1
4902551	49	C	12/17/2021	13:06	-133.504	49.566	0	1105.30	0	2.9270	0	34.3960	0	27.416	0	1092.961	0	12.4	4	3.8	4	-1E+10	1	-1E+10	1	-1E+10	1	-1E+10	1	-1E+10	1	-1E+10	1
4902551	49	C	12/17/2021	13:06	-133.504	49.566	0	1115.20	0	2.9110	0	34.3990	0	27.420	0	1102.724	0	12.5	4	3.8	4	-1E+10	1	-1E+10	1	-1E+10	1	-1E+10	1	-1E+10	1	-1E+10	1
4902551	49	C	12/17/2021	13:06	-133.504	49.566	0	1125.20	0	2.8960	0	34.4020	0	27.424	0	1112.586	0	12.5	4	3.9	4	-1E+10	1	-1E+10	1	-1E+10	1	-1E+10	1	-1E+10	1	-1E+10	1
4902551	49	C	12/17/2021	13:06	-133.504	49.566	0	1135.20	0	2.8800	0	34.4060	0	27.429	0	1122.447	0	12.6	4	3.9	4	-1E+10	1	-1E+10	1	-1E+10	1	-1E+10	1	-1E+10	1	-1E+10	1
4902551	49	C	12/17/2021	13:06	-133.504	49.566	0	1145.20	0	2.8700	0	34.4080	0	27.431	0	1132.308	0	12.6	4	3.9	4	-1E+10	1	-1E+10	1	-1E+10	1	-1E+10	1	-1E+10	1	-1E+10	1
4902551	49	C	12/17/2021	13:06	-133.504	49.566	0	1155.00	0	2.8590	0	34.4110	0	27.435	0	1141.971	0	12.7	4	3.9	4	-1E+10	1	-1E+10	1	-1E+10	1	-1E+10	1	-1E+10	1	-1E+10	1
4902551	49	C	12/17/2021	13:06	-133.504	49.566	0	1165.20	0	2.8470	0	34.4130	0	27.437	0	1152.028	0	12.8	4	3.9	4	-1E+10	1	-1E+10	1	-1E+10	1	-1E+10	1	-1E+10	1	-1E+10	1
4902551	49	C	12/17/2021	13:06	-133.504	49.566	0	1175.20	0	2.8370	0	34.4150	0	27.440	0	1161.887	0	12.8	4	3.9	4	-1E+10	1	-1E+10	1	-1E+10	1	-1E+10	1	-1E+10	1	-1E+10	1
4902551	49	C	12/17/2021	13:06	-133.504	49.566	0	1185.30	0	2.8230	0	34.4180	0	27.444	0	1171.845	0	13.0	4	4.0	4	-1E+10	1	-1E+10	1	-1E+10	1	-1E+10	1	-1E+10	1	-1E+10	1
4902551	49	C	12/17/2021	13:06	-133.504	49.566	0	1195.80	0	2.7980	0	34.4230	0	27.450	0	1182.196	0	13.2	4	4.1	4	-1E+10	1	-1E+10	1	-1E+10	1	-1E+10	1	-1E+10	1	-1E+10	1
4902551	49	C	12/17/2021	13:06	-133.504	49.566	0	1205.40	0	2.7800	0	34.4250	0	27.453	0	1191.660	0	13.4	4	4.1	4	-1E+10	1	-1E+10	1	-1E+10	1	-1E+10	1	-1E+10	1	-1E+10	1
4902551	49	C	12/17/2021	13:06	-133.504	49.566	0	1215.20	0	2.7620	0	34.4290	0	27.458	0	1201.320	0	13.5	4	4.1	4	-1E+10	1	-1E+10	1	-1E+10	1	-1E+10	1	-1E+10	1	-1E+10	1
4902551	49	C	12/17/2021	13:06	-133.504	49.566	0	1225.30	0	2.7450	0	34.4320	0	27.462	0	1211.276	0	13.6	4	4.2	4	-1E+10	1	-1E+10	1	-1E+10	1	-1E+10	1	-1E+10	1	-1E+10	1
4902551	49	C	12/17/2021	13:06	-133.504	49.566	0	1235.30	0	2.7320	0	34.4350	0	27.465	0	1221.132	0	13.8	4	4.2	4	-1E+10	1	-1E+10	1	-1E+10	1	-1E+10	1	-1E+10	1	-1E+10	1
4902551	49	C	12/17/2021	13:06	-133.504	49.566	0	1245.10	0	2.7190	0	34.4370	0	27.468	0	1230.791	0	13.9	4	4.3	4	-1E+10	1	-1E+10	1	-1E+10	1	-1E+10	1	-1E+10	1	-1E+10	1
4902551	49	C	12/17/2021	13:06	-133.504	49.566	0	1255.00	0	2.7070	0	34.4400	0	27.472	0	1240.548	0	14.2	4	4.3	4	-1E+10	1	-1E+10	1	-1E+10	1	-1E+10	1	-1E+10	1	-1E+10	1
4902551	49	C	12/17/2021	13:06	-133.504	49.566	0	1265.00	0	2.6860	0	34.4430	0	27.476	0	1250.403	0	14.4	4	4.4	4	-1E+10	1	-1E+10	1	-1E+10	1	-1E+10	1	-1E+10	1	-1E+10	1
4902551	49	C	12/17/2021	13:06	-133.504	49.566	0	1275.00	0	2.6720	0	34.4460	0	27.480	0	1260.258	0	14.6	4	4.5	4	-1E+10	1	-1E+10	1	-1E+10	1	-1E+10	1	-1E+10	1	-1E+10	1
4902551	49	C	12/17/2021	13:06	-133.504	49.566	0	1285.10	0	2.6590	0	34.4490	0	27.483	0	1270.211	0	14.9	4	4.6	4	-1E+10	1	-1E+10	1	-1E+10	1	-1E+10	1	-1E+10	1	-1E+10	1
4902551	49	C	12/17/2021	13:06	-133.504	49.566	0	1295.10	0	2.6420	0	34.4520	0	27.487	0	1280.065	0	15.1	4	4.6	4	-1E+10	1	-1E+10	1	-1E+10	1	-1E+10	1	-1E+10	1	-1E+10	1
4902551	49	C	12/17/2021	13:06	-133.504	49.566	0	1305.40	0	2.6300	0	34.4540	0	27.490	0	1290.214	0	15.3	4	4.7	4	-1E+10	1	-1E+10	1	-1E+10	1	-1E+10	1	-1E+10	1	-1E+10	1
4902551	49	C	12/17/2021	13:06	-133.504	49.566	0	1315.40	0	2.6170	0	34.4570	0	27.493	0	1300.066	0	15.5	4	4.8	4	-1E+10	1	-1E+10	1	-1E+10	1	-1E+10	1	-1E+10	1	-1E+10	1
4902551	49	C	12/17/2021	13:06	-133.504	49.566	0	1325.10	0	2.6080	0	34.4580	0	27.495	0	1309.623	0	15.7	4	4.8	4	-1E+10	1	-1E+10	1	-1E+10	1	-1E+10	1	-1E+10	1	-1E+10	1
4902551	49	C	12/17/2021	13:06	-133.504	49.566	0	1335.40	0	2.5970	0	34.4600	0	27.498	0	1319.771	0	15.9	4	4.9	4	-1E+10	1	-1E+10	1	-1E+10	1	-1E+10	1	-1E+10	1	-1E+10	1
4902551	49	C	12/17/2021	13:06	-133.504	49.566	0	1345.40	0	2.5900	0	34.4620	0	27.500	0	1329.622	0	16.1	4	4.9	4	-1E+10	1	-1E+10	1	-1E+10	1	-1E+10	1	-1E+10	1	-1E+10	1
4902551	49	C	12/17/2021	13:06	-133.504	49.566	0	1355.40	0	2.5830	0	34.4630	0	27.501	0	1339.473	0	16.4	4	5.0	4	-1E+10	1	-1E+10	1	-1E+10	1	-1E+10	1	-1E+10	1	-1E+10	1
4902551	49	C	12/17/2021	13:06	-133.504	49.566	0	1365.70	0	2.5700	0	34.4650	0	27.504	0	1349.619	0	16.8	4	5.1	4	-1E+10	1	-1E+10	1	-1E+10	1	-1E+10	1	-1E+10	1	-1E+10	1
4902551	49	C	12/17/2021	13:06	-133.504	49.566	0	1375.60	0	2.5500	0	34.4690	0	27.509	0	1359.371	0	17.3	4	5.3	4	-1E+10	1	-1E+10	1	-1E+10	1	-1E+10	1	-1E+10	1	-1E+10	1
4902551	49	C	12/17/2021	13:06	-133.504	49.566	0	1385.60	0	2.5310	0	34.4720	0	27.513	0	1369.220	0	17.7	4	5.4	4	-1E+10	1	-1E+10	1	-1E+10	1	-1E+10	1	-1E+10	1	-1E+10	1
4902551	49	C	12/17/2021	13:06	-133.504	49.566	0	1395.70	0	2.5130	0	34.4750	0	27.517	0	1379.168	0	18.2	4	5.6	4	-1E+10	1	-1E+10	1	-1E+10	1	-1E+10	1	-1E+10	1	-1E+10	1
4902551	49	C	12/17/2021	13:06	-133.504	49.566	0	1405.50	0	2.4970	0	34.4780	0	27.521	0	1388.819	0	18.8	4	5.7	4	-1E+10	1	-1E+10	1	-1E+10	1	-1E+10	1	-1E+10	1	-1E+10	1
4902551	49	C	12/17/2021	13:06	-133.504	49.566	0	1415.40	0	2.4790	0	34.4810	0	27.525	0	1398.569	0	19.2	4	5.9	4	-1E+10	1	-1E+10	1	-1E+10	1	-1E+10	1	-1E+10	1	-1E+10	1
4902551	49	C	12/17/2021	13:06	-133.504	49.566	0	1425.70	0	2.4630	0	34.4840	0	27.529	0	1408.712	0	19.7	4	6.0	4	-1E+10	1	-1E+10	1	-1E+10	1	-1E+10	1	-1E+10	1	-1E+10	1
4902551	49	C	12/17/2021	13:06	-133.504	49.566	0	1435.70	0	2.4440	0	34.4870	0	27.533	0	1418.560	0	20.2	4	6.1	4	-1E+10	1	-1E+10	1	-1E+10	1	-1E+10	1	-1E+10	1	-1E+10	1
4902551	49	C	12/17/2021	13:06	-133.504	49.566	0	1445.40	0	2.4280	0	34.4900	0	27.536	0	1428.111	0	20.7	4	6.3	4	-1E+10	1	-1E+10	1	-1E+10	1	-1E+10	1	-1E+10	1	-1E+10	1
4902551	49	C	12/17/2021	13:06	-133.504	49.566	0	1455.60	0	2.4150	0	34.4920	0	27.539	0	1438.154	0	21.1	4	6.4	4	-1E+10	1	-1E+10	1	-1E+10	1	-1E+10	1	-1E+10	1	-1E+10	1
4902551	49	C	12/17/2021	13:06	-133.504	49.566	0	1465.40	0	2.4040	0	34.4940	0	27.542	0	1447.803	0	21.7	4	6.6	4	-1E+10	1	-1E+10	1	-1E+10	1	-1E+10	1	-1E+10	1	-1E+10	1
4902551	49	C	12/17/2021	13:06	-133.504	49.566	0	1475.10	0	2.3860	0	34.4980	0	27.546	0	1457.353	0	22.2	4	6.8	4	-1E+10	1	-1E+10	1	-1E+10	1	-1E+10	1	-1E+10	1	-1E+10	1
4902551	49	C	12/17/2021	13:06	-133.504	49.566	0	1485.00	0	2.3770	0	34.4990	0	27.548	0	1467.100	0	22.6	4	6.9	4	-1E+10	1	-1E+10	1	-1E+10	1	-1E+10	1	-1E+10	1	-1E+10	1
4902551	49	C	12/17/2021	13:06	-133.504	49.566	0	1495.10	0	2.3670	0	34.5010	0	27.550	0	1477.043	0	23.1	4	7.0	4	-1E+10	1	-1E+10	1	-1E+10	1	-1E+10	1	-1E+10	1	-1E+10	1
4902551	49	C	12/17/2021	13:06	-133.504	49.566	0	1505.40	0	2.3560	0	34.5030	0	27.553	0	1487.182	0	23.5	4	7.2	4	-1E+10	1	-1E+10	1	-1E+10	1	-1E+10	1	-1E+10	1	-1E+10	1
4902551	49	C	12/17/2021	13:06	-133.504	49.566	0	1515.30	0	2.3490	0	34.5050	0	27.555	0	1496.927	0	23.9	4	7.3	4	-1E+10	1	-1E+10	1	-1E+10	1	-1E+10	1	-1E+10	1	-1E+10	1
4902551	49	C	12/17/2021	13:06	-133.504	49.566	0	1525.50	0	2.3390	0	34.5070	0	27.558	0	1506.967	0	24.3	4	7.4	4	-1E+10	1	-1E+10	1	-1E+10	1	-1E+10	1	-1E+10	1	-1E+10	1
4902551	49	C	12/17/2021	13:06	-133.504	49.566	0	1535.80	0	2.3290	0	34.5080	0	27.559	0	1517.105	0	24.7	4	7.5	4	-1E+10	1	-1E+10	1	-1E+10	1	-1E+10	1	-1E+10	1	-1E+10	1
4902551	49	C	12/17/2021	13:06	-133.504	49.566	0	1545.80	0	2.3230	0	34.5100	0	27.562	0	1526.948	0	25.0	4	7.6	4	-1E+10	1	-1E+10	1	-1E+10	1	-1E+10	1	-1E+10	1	-1E+10	1
4902551	49	C	12/17/2021	13:06	-133.504	49.566	0	1555.60	0	2.3150	0	34.5110	0	27.563	0	1536.592	0	25.4	4	7.7	4	-1E+10	1	-1E+10	1	-1E+10	1	-1E+10	1	-1E+10	1	-1E+10	1
4902551	49	C	12/17/2021	13:06	-133.504	49.566	0	1565.40	0	2.3030	0	34.5130	0	27.566	0	1546.237	0	25.9	4	7.9	4	-1E+10	1	-1E+10	1	-1E+10	1	-1E+10	1	-1E+10	1	-1E+10	1
4902551	49	C	12/17/2021	13:06	-133.504	49.566	0	1575.50	0	2.2960	0	34.5140	0	27.567	0	1556.176	0	26.3	4	8.0	4	-1E+10	1	-1E+10	1	-1E+10	1	-1E+10	1	-1E+10	1	-1E+10	1
4902551	49	C	12/17/2021	13:06	-133.504	49.566	0	1585.60	0	2.2890	0	34.5160	0	27.569	0	1566.115	0	26.7	4	8.1	4	-1E+10	1	-1E+10	1	-1E+10	1	-1E+10	1	-1E+10	1	-1E+10	1
4902551	49	C	12/17/2021	13:06	-133.504	49.566	0	1595.20	0	2.2750	0	34.5180	0	27.572	0	1575.561	0	27.2	4	8.3	4	-1E+10	1	-1E+10	1	-1E+10	1	-1E+10	1	-1E+10	1	-1E+10	1
4902551	49	C	12/17/2021	13:06	-133.504	49.566	0	1605.50	0	2.2650	0	34.5200	0	27.575	0	1585.696	0	28.0	4	8.5	4	-1E+10	1	-1E+10	1	-1E+10	1	-1E+10	1	-1E+10	1	-1E+10	1
4902551	49	C	12/17/2021	13:06	-133.504	49.566	0	1615.80	0	2.2490	0	34.5230	0	27.578	0	1595.830	0	28.8	4	8.7	4	-1E+10	1	-1E+10	1	-1E+10	1	-1E+10	1	-1E+10	1	-1E+10	1
4902551	49	C	12/17/2021	13:06	-133.504	49.566	0	1625.40	0	2.2390	0	34.5250	0	27.581	0	1605.275	0	29.3	4	8.9	4	-1E+10	1	-1E+10	1	-1E+10	1	-1E+10	1	-1E+10	1	-1E+10	1
4902551	49	C	12/17/2021	13:06	-133.504	49.566	0	1635.30	0	2.2310	0	34.5260	0	27.582	0	1615.015	0	29.9	4	9.1	4	-1E+10	1	-1E+10	1	-1E+10	1	-1E+10	1	-1E+10	1	-1E+10	1
4902551	49	C	12/17/2021	13:06	-133.504	49.566	0	1645.30	0	2.2200	0	34.5280	0	27.585	0	1624.852	0	30.5	4	9.2	4	-1E+10	1	-1E+10	1	-1E+10	1	-1E+10	1	-1E+10	1	-1E+10	1
4902551	49	C	12/17/2021	13:06	-133.504	49.566	0	1655.10	0	2.2110	0	34.5300	0	27.587	0	1634.493	0	31.1	4	9.4	4	-1E+10	1	-1E+10	1	-1E+10	1	-1E+10	1	-1E+10	1	-1E+10	1
4902551	49	C	12/17/2021	13:06	-133.504	49.566	0	1665.00	0	2.2010	0	34.5320	0	27.590	0	1644.231	0	31.7	4	9.6	4	-1E+10	1	-1E+10	1	-1E+10	1	-1E+10	1	-1E+10	1	-1E+10	1
4902551	49	C	12/17/2021	13:06	-133.504	49.566	0	1675.00	0	2.1880	0	34.5340	0	27.592	0	1654.067	0	32.4	4	9.8	4	-1E+10	1	-1E+10	1	-1E+10	1	-1E+10	1	-1E+10	1	-1E+10	1
4902551	49	C	12/17/2021	13:06	-133.504	49.566	0	1685.10	0	2.1790	0	34.5360	0	27.595	0	1664.002	0	33.3	4	10.1	4	-1E+10	1	-1E+10	1	-1E+10	1	-1E+10	1	-1E+10	1	-1E+10	1
4902551	49	C	12/17/2021	13:06	-133.504	49.566	0	1695.20	0	2.1640	0	34.5390	0	27.598	0	1673.935	0	34.1	4	10.3	4	-1E+10	1	-1E+10	1	-1E+10	1	-1E+10	1	-1E+10	1	-1E+10	1
4902551	49	C	12/17/2021	13:06	-133.504	49.566	0	1705.40	0	2.1520	0	34.5410	0	27.601	0	1683.967	0	34.9	4	10.6	4	-1E+10	1	-1E+10	1	-1E+10	1	-1E+10	1	-1E+10	1	-1E+10	1
4902551	49	C	12/17/2021	13:06	-133.504	49.566	0	1715.30	0	2.1410	0	34.5430	0	27.603	0	1693.703	0	35.5	4	10.7	4	-1E+10	1	-1E+10	1	-1E+10	1	-1E+10	1	-1E+10	1	-1E+10	1
4902551	49	C	12/17/2021	13:06	-133.504	49.566	0	1725.50	0	2.1310	0	34.5450	0	27.606	0	1703.734	0	36.1	4	10.9	4	-1E+10	1	-1E+10	1	-1E+10	1	-1E+10	1	-1E+10	1	-1E+10	1
4902551	49	C	12/17/2021	13:06	-133.504	49.566	0	1735.60	0	2.1210	0	34.5470	0	27.608	0	1713.665	0	36.6	4	11.1	4	-1E+10	1	-1E+10	1	-1E+10	1	-1E+10	1	-1E+10	1	-1E+10	1
4902551	49	C	12/17/2021	13:06	-133.504	49.566	0	1745.50	0	2.1180	0	34.5480	0	27.609	0	1723.400	0	37.1	4	11.2	4	-1E+10	1	-1E+10	1	-1E+10	1	-1E+10	1	-1E+10	1	-1E+10	1
4902551	49	C	12/17/2021	13:06	-133.504	49.566	0	1755.70	0	2.1100	0	34.5490	0	27.611	0	1733.429	0	37.8	4	11.4	4	-1E+10	1	-1E+10	1	-1E+10	1	-1E+10	1	-1E+10	1	-1E+10	1
4902551	49	C	12/17/2021	13:06	-133.504	49.566	0	1765.60	0	2.0990	0	34.5510	0	27.614	0	1743.163	0	38.6	4	11.7	4	-1E+10	1	-1E+10	1	-1E+10	1	-1E+10	1	-1E+10	1	-1E+10	1
4902551	49	C	12/17/2021	13:06	-133.504	49.566	0	1775.50	0	2.0890	0	34.5530	0	27.616	0	1752.896	0	39.2	4	11.9	4	-1E+10	1	-1E+10	1	-1E+10	1	-1E+10	1	-1E+10	1	-1E+10	1
4902551	49	C	12/17/2021	13:06	-133.504	49.566	0	1785.60	0	2.0830	0	34.5550	0	27.618	0	1762.826	0	39.7	4	12.0	4	-1E+10	1	-1E+10	1	-1E+10	1	-1E+10	1	-1E+10	1	-1E+10	1
4902551	49	C	12/17/2021	13:06	-133.504	49.566	0	1795.40	0	2.0790	0	34.5560	0	27.619	0	1772.460	0	40.2	4	12.2	4	-1E+10	1	-1E+10	1	-1E+10	1	-1E+10	1	-1E+10	1	-1E+10	1
4902551	49	C	12/17/2021	13:06	-133.504	49.566	0	1805.40	0	2.0680	0	34.5570	0	27.621	0	1782.290	0	40.9	4	12.3	4	-1E+10	1	-1E+10	1	-1E+10	1	-1E+10	1	-1E+10	1	-1E+10	1
4902551	49	C	12/17/2021	13:06	-133.504	49.566	0	1815.50	0	2.0640	0	34.5590	0	27.623	0	1792.219	0	41.4	4	12.5	4	-1E+10	1	-1E+10	1	-1E+10	1	-1E+10	1	-1E+10	1	-1E+10	1
4902551	49	C	12/17/2021	13:06	-133.504	49.566	0	1825.30	0	2.0560	0	34.5600	0	27.624	0	1801.851	0	42.2	4	12.8	4	-1E+10	1	-1E+10	1	-1E+10	1	-1E+10	1	-1E+10	1	-1E+10	1
4902551	49	C	12/17/2021	13:06	-133.504	49.566	0	1835.10	0	2.0450	0	34.5620	0	27.627	0	1811.484	0	42.9	4	13.0	4	-1E+10	1	-1E+10	1	-1E+10	1	-1E+10	1	-1E+10	1	-1E+10	1
4902551	49	C	12/17/2021	13:06	-133.504	49.566	0	1845.10	0	2.0390	0	34.5640	0	27.629	0	1821.312	0	43.5	4	13.1	4	-1E+10	1	-1E+10	1	-1E+10	1	-1E+10	1	-1E+10	1	-1E+10	1
4902551	49	C	12/17/2021	13:06	-133.504	49.566	0	1855.10	0	2.0320	0	34.5650	0	27.630	0	1831.140	0	44.2	4	13.3	4	-1E+10	1	-1E+10	1	-1E+10	1	-1E+10	1	-1E+10	1	-1E+10	1
4902551	49	C	12/17/2021	13:06	-133.504	49.566	0	1865.20	0	2.0240	0	34.5670	0	27.633	0	1841.066	0	44.8	4	13.5	4	-1E+10	1	-1E+10	1	-1E+10	1	-1E+10	1	-1E+10	1	-1E+10	1
4902551	49	C	12/17/2021	13:06	-133.504	49.566	0	1875.30	0	2.0160	0	34.5680	0	27.634	0	1850.992	0	45.6	4	13.8	4	-1E+10	1	-1E+10	1	-1E+10	1	-1E+10	1	-1E+10	1	-1E+10	1
4902551	49	C	12/17/2021	13:06	-133.504	49.566	0	1885.60	0	2.0070	0	34.5700	0	27.637	0	1861.113	0	46.3	4	14.0	4	-1E+10	1	-1E+10	1	-1E+10	1	-1E+10	1	-1E+10	1	-1E+10	1
4902551	49	C	12/17/2021	13:06	-133.504	49.566	0	1895.40	0	2.0010	0	34.5710	0	27.638	0	1870.743	0	47.0	4	14.2	4	-1E+10	1	-1E+10	1	-1E+10	1	-1E+10	1	-1E+10	1	-1E+10	1
4902551	49	C	12/17/2021	13:06	-133.504	49.566	0	1905.30	0	1.9910	0	34.5730	0	27.640	0	1880.470	0	47.6	4	14.3	4	-1E+10	1	-1E+10	1	-1E+10	1	-1E+10	1	-1E+10	1	-1E+10	1
4902551	49	C	12/17/2021	13:06	-133.504	49.566	0	1915.30	0	1.9850	0	34.5750	0	27.642	0	1890.295	0	48.0	4	14.5	4	-1E+10	1	-1E+10	1	-1E+10	1	-1E+10	1	-1E+10	1	-1E+10	1
4902551	49	C	12/17/2021	13:06	-133.504	49.566	0	1925.20	0	1.9810	0	34.5750	0	27.643	0	1900.022	0	48.5	4	14.6	4	-1E+10	1	-1E+10	1	-1E+10	1	-1E+10	1	-1E+10	1	-1E+10	1
4902551	49	C	12/17/2021	13:06	-133.504	49.566	0	1935.80	0	1.9760	0	34.5770	0	27.645	0	1910.436	0	49.0	4	14.8	4	-1E+10	1	-1E+10	1	-1E+10	1	-1E+10	1	-1E+10	1	-1E+10	1
4902551	49	C	12/17/2021	13:06	-133.504	49.566	0	1945.50	0	1.9710	0	34.5780	0	27.646	0	1919.965	0	49.6	4	15.0	4	-1E+10	1	-1E+10	1	-1E+10	1	-1E+10	1	-1E+10	1	-1E+10	1
4902551	49	C	12/17/2021	13:06	-133.504	49.566	0	1955.50	0	1.9620	0	34.5790	0	27.648	0	1929.789	0	50.4	4	15.2	4	-1E+10	1	-1E+10	1	-1E+10	1	-1E+10	1	-1E+10	1	-1E+10	1
4902551	49	C	12/17/2021	13:06	-133.504	49.566	0	1965.70	0	1.9540	0	34.5810	0	27.650	0	1939.808	0	50.9	4	15.3	4	-1E+10	1	-1E+10	1	-1E+10	1	-1E+10	1	-1E+10	1	-1E+10	1
4902551	49	C	12/17/2021	13:06	-133.504	49.566	0	1975.50	0	1.9510	0	34.5820	0	27.651	0	1949.434	0	51.2	4	15.4	4	-1E+10	1	-1E+10	1	-1E+10	1	-1E+10	1	-1E+10	1	-1E+10	1
4902551	49	C	12/17/2021	13:06	-133.504	49.566	0	1985.20	0	1.9470	0	34.5830	0	27.652	0	1958.962	0	51.6	4	15.5	4	-1E+10	1	-1E+10	1	-1E+10	1	-1E+10	1	-1E+10	1	-1E+10	1
4902551	49	C	12/17/2021	13:06	-133.504	49.566	0	1995.10	0	1.9440	0	34.5830	0	27.652	0	1968.685	0	51.9	4	15.6	4	-1E+10	1	-1E+10	1	-1E+10	1	-1E+10	1	-1E+10	1	-1E+10	1
4902551	49	C	12/17/2021	13:06	-133.504	49.566	0	2005.30	0	1.9420	0	34.5840	0	27.654	0	1978.703	0	52.3	4	15.7	4	-1E+10	1	-1E+10	1	-1E+10	1	-1E+10	1	-1E+10	1	-1E+10	1
4902551	49	C	12/17/2021	13:06	-133.504	49.566	0	2015.60	0	1.9360	0	34.5850	0	27.655	0	1988.818	0	52.9	4	15.9	4	-1E+10	1	-1E+10	1	-1E+10	1	-1E+10	1	-1E+10	1	-1E+10	1
4902551	49	C	12/17/2021	13:06	-133.504	49.566	0	2023.60	0	1.9310	0	34.5860	0	27.656	0	1996.674	0	53.2	4	16.0	4	-1E+10	1	-1E+10	1	-1E+10	1	-1E+10	1	-1E+10	1	-1E+10	1
4902551	49	C	12/17/2021	13:06	-133.504	49.566	0																										
4902551	50	C	12/27/2021	18:02	-133.330	49.482	0	0.30	0	7.3210	0	32.3280	0	25.271	0	0.297	0	275.8	4	92.8	4	-1E+10	1	-1E+10	1	-1E+10	1	-1E+10	1	-1E+10	1	-1E+10	1
4902551	50	C	12/27/2021	18:02	-133.330	49.482	0	1.10	0	7.3220	0	32.3270	0	25.271	0	1.091	0	275.7	4	92.8	4	-1E+10	1	-1E+10	1	-1E+10	1	-1E+10	1	-1E+10	1	-1E+10	1
4902551	50	C	12/27/2021	18:02	-133.330	49.482	0	2.00	0	7.3230	0	32.3270	0	25.270	0	1.983	0	275.7	4	92.8	4	-1E+10	1	-1E+10	1	-1E+10	1	-1E+10	1	-1E+10	1	-1E+10	1
4902551	50	C	12/27/2021	18:02	-133.330	49.482	0	3.10	0	7.3230	0	32.3280	0	25.271	0	3.074	0	275.6	4	92.8	4	-1E+10	1	-1E+10	1	-1E+10	1	-1E+10	1	-1E+10	1	-1E+10	1
4902551	50	C	12/27/2021	18:02	-133.330	49.482	0	3.90	0	7.3230	0	32.3280	0	25.271	0	3.867	0	275.6	4	92.8	4	-1E+10	1	-1E+10	1	-1E+10	1	-1E+10	1	-1E+10	1	-1E+10	1
4902551	50	C	12/27/2021	18:02	-133.330	49.482	0	5.10	0	7.3240	0	32.3280	0	25.271	0	5.056	0	275.6	4	92.8	4	-1E+10	1	-1E+10	1	-1E+10	1	-1E+10	1	-1E+10	1	-1E+10	1
4902551	50	C	12/27/2021	18:02	-133.330	49.482	0	5.80	0	7.3240	0	32.3280	0	25.271	0	5.750	0	275.6	4	92.8	4	-1E+10	1	-1E+10	1	-1E+10	1	-1E+10	1	-1E+10	1	-1E+10	1
4902551	50	C	12/27/2021	18:02	-133.330	49.482	0	6.90	0	7.3240	0	32.3280	0	25.271	0	6.841	0	275.6	4	92.8	4	-1E+10	1	-1E+10	1	-1E+10	1	-1E+10	1	-1E+10	1	-1E+10	1
4902551	50	C	12/27/2021	18:02	-133.330	49.482	0	7.80	0	7.3240	0	32.3280	0	25.271	0	7.733	0	275.5	4	92.7	4	-1E+10	1	-1E+10	1	-1E+10	1	-1E+10	1	-1E+10	1	-1E+10	1
4902551	50	C	12/27/2021	18:02	-133.330	49.482	0	8.80	0	7.3240	0	32.3280	0	25.271	0	8.725	0	275.5	4	92.8	4	-1E+10	1	-1E+10	1	-1E+10	1	-1E+10	1	-1E+10	1	-1E+10	1
4902551	50	C	12/27/2021	18:02	-133.330	49.482	0	10.00	0	7.3240	0	32.3280	0	25.271	0	9.915	0	275.5	4	92.7	4	-1E+10	1	-1E+10	1	-1E+10	1	-1E+10	1	-1E+10	1	-1E+10	1
4902551	50	C	12/27/2021	18:02	-133.330	49.482	0	11.10	0	7.3240	0	32.3280	0	25.271	0	11.005	0	275.5	4	92.7	4	-1E+10	1	-1E+10	1	-1E+10	1	-1E+10	1	-1E+10	1	-1E+10	1
4902551	50	C	12/27/2021	18:02	-133.330	49.482	0	12.10	0	7.3230	0	32.3280	0	25.271	0	11.996	0	275.4	4	92.7	4	-1E+10	1	-1E+10	1	-1E+10	1	-1E+10	1	-1E+10	1	-1E+10	1
4902551	50	C	12/27/2021	18:02	-133.330	49.482	0	13.10	0	7.3240	0	32.3280	0	25.271	0	12.988	0	275.4	4	92.7	4	-1E+10	1	-1E+10	1	-1E+10	1	-1E+10	1	-1E+10	1	-1E+10	1
4902551	50	C	12/27/2021	18:02	-133.330	49.482	0	14.10	0	7.3240	0	32.3280	0	25.271	0	13.979	0	275.3	4	92.7	4	-1E+10	1	-1E+10	1	-1E+10	1	-1E+10	1	-1E+10	1	-1E+10	1
4902551	50	C	12/27/2021	18:02	-133.330	49.482	0	15.20	0	7.3240	0	32.3280	0	25.271	0	15.070	0	275.3	4	92.7	4	-1E+10	1	-1E+10	1	-1E+10	1	-1E+10	1	-1E+10	1	-1E+10	1
4902551	50	C	12/27/2021	18:02	-133.330	49.482	0	16.10	0	7.3240	0	32.3280	0	25.271	0	15.962	0	275.3	4	92.7	4	-1E+10	1	-1E+10	1	-1E+10	1	-1E+10	1	-1E+10	1	-1E+10	1
4902551	50	C	12/27/2021	18:02	-133.330	49.482	0	17.00	0	7.3240	0	32.3280	0	25.271	0	16.854	0	275.3	4	92.7	4	-1E+10	1	-1E+10	1	-1E+10	1	-1E+10	1	-1E+10	1	-1E+10	1
4902551	50	C	12/27/2021	18:02	-133.330	49.482	0	18.10	0	7.3240	0	32.3280	0	25.271	0	17.945	0	275.2	4	92.7	4	-1E+10	1	-1E+10	1	-1E+10	1	-1E+10	1	-1E+10	1	-1E+10	1
4902551	50	C	12/27/2021	18:02	-133.330	49.482	0	19.10	0	7.3250	0	32.3280	0	25.271	0	18.936	0	275.3	4	92.7	4	-1E+10	1	-1E+10	1	-1E+10	1	-1E+10	1	-1E+10	1	-1E+10	1
4902551	50	C	12/27/2021	18:02	-133.330	49.482	0	20.00	0	7.3240	0	32.3280	0	25.271	0	19.829	0	275.2	4	92.6	4	-1E+10	1	-1E+10	1	-1E+10	1	-1E+10	1	-1E+10	1	-1E+10	1
4902551	50	C	12/27/2021	18:02	-133.330	49.482	0	21.00	0	7.3240	0	32.3280	0	25.271	0	20.820	0	275.2	4	92.7	4	-1E+10	1	-1E+10	1	-1E+10	1	-1E+10	1	-1E+10	1	-1E+10	1
4902551	50	C	12/27/2021	18:02	-133.330	49.482	0	22.00	0	7.3240	0	32.3280	0	25.271	0	21.811	0	275.2	4	92.7	4	-1E+10	1	-1E+10	1	-1E+10	1	-1E+10	1	-1E+10	1	-1E+10	1
4902551	50	C	12/27/2021	18:02	-133.330	49.482	0	23.00	0	7.3240	0	32.3280	0	25.271	0	22.803	0	275.2	4	92.7	4	-1E+10	1	-1E+10	1	-1E+10	1	-1E+10	1	-1E+10	1	-1E+10	1
4902551	50	C	12/27/2021	18:02	-133.330	49.482	0	24.10	0	7.3240	0	32.3280	0	25.271	0	23.893	0	275.2	4	92.6	4	-1E+10	1	-1E+10	1	-1E+10	1	-1E+10	1	-1E+10	1	-1E+10	1
4902551	50	C	12/27/2021	18:02	-133.330	49.482	0	24.80	0	7.3240	0	32.3280	0	25.271	0	24.587	0	275.2	4	92.6	4	-1E+10	1	-1E+10	1	-1E+10	1	-1E+10	1	-1E+10	1	-1E+10	1
4902551	50	C	12/27/2021	18:02	-133.330	49.482	0	25.80	0	7.3240	0	32.3280	0	25.271	0	25.578	0	275.2	4	92.7	4	-1E+10	1	-1E+10	1	-1E+10	1	-1E+10	1	-1E+10	1	-1E+10	1
4902551	50	C	12/27/2021	18:02	-133.330	49.482	0	26.80	0	7.3250	0	32.3280	0	25.271	0	26.570	0	275.2	4	92.6	4	-1E+10	1	-1E+10	1	-1E+10	1	-1E+10	1	-1E+10	1	-1E+10	1
4902551	50	C	12/27/2021	18:02	-133.330	49.482	0	27.80	0	7.3260	0	32.3280	0	25.271	0	27.561	0	275.2	4	92.6	4	-1E+10	1	-1E+10	1	-1E+10	1	-1E+10	1	-1E+10	1	-1E+10	1
4902551	50	C	12/27/2021	18:02	-133.330	49.482	0	29.10	0	7.3240	0	32.3280	0	25.271	0	28.850	0	275.1	4	92.6	4	-1E+10	1	-1E+10	1	-1E+10	1	-1E+10	1	-1E+10	1	-1E+10	1
4902551	50	C	12/27/2021	18:02	-133.330	49.482	0	30.10	0	7.3240	0	32.3280	0	25.271	0	29.841	0	275.1	4	92.6	4	-1E+10	1	-1E+10	1	-1E+10	1	-1E+10	1	-1E+10	1	-1E+10	1
4902551	50	C	12/27/2021	18:02	-133.330	49.482	0	31.00	0	7.3230	0	32.3280	0	25.272	0	30.733	0	275.2	4	92.6	4	-1E+10	1	-1E+10	1	-1E+10	1	-1E+10	1	-1E+10	1	-1E+10	1
4902551	50	C	12/27/2021	18:02	-133.330	49.482	0	32.00	0	7.3240	0	32.3290	0	25.272	0	31.725	0	275.1	4	92.6	4	-1E+10	1	-1E+10	1	-1E+10	1	-1E+10	1	-1E+10	1	-1E+10	1
4902551	50	C	12/27/2021	18:02	-133.330	49.482	0	33.00	0	7.3230	0	32.3280	0	25.272	0	32.716	0	275.1	4	92.6	4	-1E+10	1	-1E+10	1	-1E+10	1	-1E+10	1	-1E+10	1	-1E+10	1
4902551	50	C	12/27/2021	18:02	-133.330	49.482	0	34.10	0	7.3230	0	32.3280	0	25.272	0	33.806	0	275.1	4	92.6	4	-1E+10	1	-1E+10	1	-1E+10	1	-1E+10	1	-1E+10	1	-1E+10	1
4902551	50	C	12/27/2021	18:02	-133.330	49.482	0	34.80	0	7.3240	0	32.3280	0	25.271	0	34.500	0	275.1	4	92.6	4	-1E+10	1	-1E+10	1	-1E+10	1	-1E+10	1	-1E+10	1	-1E+10	1
4902551	50	C	12/27/2021	18:02	-133.330	49.482	0	35.90	0	7.3230	0	32.3280	0	25.272	0	35.591	0	275.1	4	92.6	4	-1E+10	1	-1E+10	1	-1E+10	1	-1E+10	1	-1E+10	1	-1E+10	1
4902551	50	C	12/27/2021	18:02	-133.330	49.482	0	37.00	0	7.3240	0	32.3280	0	25.271	0	36.681	0	275.0	4	92.6	4	-1E+10	1	-1E+10	1	-1E+10	1	-1E+10	1	-1E+10	1	-1E+10	1
4902551	50	C	12/27/2021	18:02	-133.330	49.482	0	37.80	0	7.3240	0	32.3280	0	25.272	0	37.474	0	275.0	4	92.6	4	-1E+10	1	-1E+10	1	-1E+10	1	-1E+10	1	-1E+10	1	-1E+10	1
4902551	50	C	12/27/2021	18:02	-133.330	49.482	0	38.80	0	7.3240	0	32.3280	0	25.272	0	38.466	0	275.0	4	92.6	4	-1E+10	1	-1E+10	1	-1E+10	1	-1E+10	1	-1E+10	1	-1E+10	1
4902551	50	C	12/27/2021	18:02	-133.330	49.482	0	40.00	0	7.3240	0	32.3280	0	25.272	0	39.655	0	275.0	4	92.6	4	-1E+10	1	-1E+10	1	-1E+10	1	-1E+10	1	-1E+10	1	-1E+10	1
4902551	50	C	12/27/2021	18:02	-133.330	49.482	0	41.00	0	7.3240	0	32.3280	0	25.272	0	40.646	0	275.0	4	92.6	4	-1E+10	1	-1E+10	1	-1E+10	1	-1E+10	1	-1E+10	1	-1E+10	1
4902551	50	C	12/27/2021	18:02	-133.330	49.482	0	42.20	0	7.3240	0	32.3280	0	25.272	0	41.836	0	275.0	4	92.6	4	-1E+10	1	-1E+10	1	-1E+10	1	-1E+10	1	-1E+10	1	-1E+10	1
4902551	50	C	12/27/2021	18:02	-133.330	49.482	0	42.90	0	7.3250	0	32.3290	0	25.272	0	42.530	0	274.9	4	92.5	4	-1E+10	1	-1E+10	1	-1E+10	1	-1E+10	1	-1E+10	1	-1E+10	1
4902551	50	C	12/27/2021	18:02	-133.330	49.482	0	43.90	0	7.3250	0	32.3280	0	25.271	0	43.521	0	274.9	4	92.6	4	-1E+10	1	-1E+10	1	-1E+10	1	-1E+10	1	-1E+10	1	-1E+10	1
4902551	50	C	12/27/2021	18:02	-133.330	49.482	0	45.00	0	7.3250	0	32.3290	0	25.272	0	44.611	0	274.9	4	92.5	4	-1E+10	1	-1E+10	1	-1E+10	1	-1E+10	1	-1E+10	1	-1E+10	1
4902551	50	C	12/27/2021	18:02	-133.330	49.482	0	45.70	0	7.3250	0	32.3280	0	25.271	0	45.305	0	274.8	4	92.5	4	-1E+10	1	-1E+10	1	-1E+10	1	-1E+10	1	-1E+10	1	-1E+10	1
4902551	50	C	12/27/2021	18:02	-133.330	49.482	0	46.80	0	7.3250	0	32.3280	0	25.271	0	46.396	0	274.9	4	92.5	4	-1E+10	1	-1E+10	1	-1E+10	1	-1E+10	1	-1E+10	1	-1E+10	1
4902551	50	C	12/27/2021	18:02	-133.330	49.482	0	47.90	0	7.3250	0	32.3280	0	25.271	0	47.486	0	274.8	4	92.5	4	-1E+10	1	-1E+10	1	-1E+10	1	-1E+10	1	-1E+10	1	-1E+10	1
4902551	50	C	12/27/2021	18:02	-133.330	49.482	0	48.90	0	7.3250	0	32.3280	0	25.272	0	48.477	0	274.8	4	92.5	4	-1E+10	1	-1E+10	1	-1E+10	1	-1E+10	1	-1E+10	1	-1E+10	1
4902551	50	C	12/27/2021	18:02	-133.330	49.482	0	50.00	0	7.3250	0	32.3280	0	25.272	0	49.568	0	274.8	4	92.5	4	-1E+10	1	-1E+10	1	-1E+10	1	-1E+10	1	-1E+10	1	-1E+10	1
4902551	50	C	12/27/2021	18:02	-133.330	49.482	0	51.00	0	7.3250	0	32.3280	0	25.272	0	50.559	0	274.8	4	92.5	4	-1E+10	1	-1E+10	1	-1E+10	1	-1E+10	1	-1E+10	1	-1E+10	1
4902551	50	C	12/27/2021	18:02	-133.330	49.482	0	52.00	0	7.3250	0	32.3280	0	25.272	0	51.550	0	274.7	4	92.5	4	-1E+10	1	-1E+10	1	-1E+10	1	-1E+10	1	-1E+10	1	-1E+10	1
4902551	50	C	12/27/2021	18:02	-133.330	49.482	0	52.90	0	7.3260	0	32.3280	0	25.271	0	52.442	0	274.7	4	92.5	4	-1E+10	1	-1E+10	1	-1E+10	1	-1E+10	1	-1E+10	1	-1E+10	1
4902551	50	C	12/27/2021	18:02	-133.330	49.482	0	54.10	0	7.3260	0	32.3280	0	25.271	0	53.632	0	274.7	4	92.5	4	-1E+10	1	-1E+10	1	-1E+10	1	-1E+10	1	-1E+10	1	-1E+10	1
4902551	50	C	12/27/2021	18:02	-133.330	49.482	0	55.00	0	7.3270	0	32.3280	0	25.271	0	54.524	0	274.7	4	92.5	4	-1E+10	1	-1E+10	1	-1E+10	1	-1E+10	1	-1E+10	1	-1E+10	1
4902551	50	C	12/27/2021	18:02	-133.330	49.482	0	55.80	0	7.3260	0	32.3280	0	25.271	0	55.317	0	274.6	4	92.4	4	-1E+10	1	-1E+10	1	-1E+10	1	-1E+10	1	-1E+10	1	-1E+10	1
4902551	50	C	12/27/2021	18:02	-133.330	49.482	0	57.00	0	7.3260	0	32.3280	0	25.271	0	56.506	0	274.6	4	92.4	4	-1E+10	1	-1E+10	1	-1E+10	1	-1E+10	1	-1E+10	1	-1E+10	1
4902551	50	C	12/27/2021	18:02	-133.330	49.482	0	57.90	0	7.3260	0	32.3280	0	25.271	0	57.398	0	274.6	4	92.4	4	-1E+10	1	-1E+10	1	-1E+10	1	-1E+10	1	-1E+10	1	-1E+10	1
4902551	50	C	12/27/2021	18:02	-133.330	49.482	0	58.70	0	7.3260	0	32.3280	0	25.271	0	58.191	0	274.5	4	92.4	4	-1E+10	1	-1E+10	1	-1E+10	1	-1E+10	1	-1E+10	1	-1E+10	1
4902551	50	C	12/27/2021	18:02	-133.330	49.482	0	59.90	0	7.3260	0	32.3280	0	25.272	0	59.381	0	274.5	4	92.4	4	-1E+10	1	-1E+10	1	-1E+10	1	-1E+10	1	-1E+10	1	-1E+10	1
4902551	50	C	12/27/2021	18:02	-133.330	49.482	0	61.10	0	7.3260	0	32.3280	0	25.272	0	60.570	0	274.4	4	92.4	4	-1E+10	1	-1E+10	1	-1E+10	1	-1E+10	1	-1E+10	1	-1E+10	1
4902551	50	C	12/27/2021	18:02	-133.330	49.482	0	62.00	0	7.3260	0	32.3280	0	25.272	0	61.462	0	274.3	4	92.4	4	-1E+10	1	-1E+10	1	-1E+10	1	-1E+10	1	-1E+10	1	-1E+10	1
4902551	50	C	12/27/2021	18:02	-133.330	49.482	0	62.80	0	7.3250	0	32.3280	0	25.272	0	62.255	0	274.4	4	92.4	4	-1E+10	1	-1E+10	1	-1E+10	1	-1E+10	1	-1E+10	1	-1E+10	1
4902551	50	C	12/27/2021	18:02	-133.330	49.482	0	63.90	0	7.3250	0	32.3280	0	25.272	0	63.345	0	274.3	4	92.4	4	-1E+10	1	-1E+10	1	-1E+10	1	-1E+10	1	-1E+10	1	-1E+10	1
4902551	50	C	12/27/2021	18:02	-133.330	49.482	0	65.00	0	7.3250	0	32.3290	0	25.272	0	64.436	0	274.2	4	92.3	4	-1E+10	1	-1E+10	1	-1E+10	1	-1E+10	1	-1E+10	1	-1E+10	1
4902551	50	C	12/27/2021	18:02	-133.330	49.482	0	66.10	0	7.3250	0	32.3290	0	25.273	0	65.526	0	274.1	4	92.3	4	-1E+10	1	-1E+10	1	-1E+10	1	-1E+10	1	-1E+10	1	-1E+10	1
4902551	50	C	12/27/2021	18:02	-133.330	49.482	0	66.90	0	7.3260	0	32.3290	0	25.272	0	66.319	0	274.0	4	92.3	4	-1E+10	1	-1E+10	1	-1E+10	1	-1E+10	1	-1E+10	1	-1E+10	1
4902551	50	C	12/27/2021	18:02	-133.330	49.482	0	67.70	0	7.3260	0	32.3290	0	25.272	0	67.112	0	274.0	4	92.2	4	-1E+10	1	-1E+10	1	-1E+10	1	-1E+10	1	-1E+10	1	-1E+10	1
4902551	50	C	12/27/2021	18:02	-133.330	49.482	0	68.80	0	7.3270	0	32.3280	0	25.271	0	68.202	0	273.9	4	92.2	4	-1E+10	1	-1E+10	1	-1E+10	1	-1E+10	1	-1E+10	1	-1E+10	1
4902551	50	C	12/27/2021	18:02	-133.330	49.482	0	69.90	0	7.3260	0	32.3280	0	25.272	0	69.292	0	273.8	4	92.2	4	-1E+10	1	-1E+10	1	-1E+10	1	-1E+10	1	-1E+10	1	-1E+10	1
4902551	50	C	12/27/2021	18:02	-133.330	49.482	0	71.00	0	7.3270	0	32.3280	0	25.272	0	70.383	0	273.7	4	92.1	4	-1E+10	1	-1E+10	1	-1E+10	1	-1E+10	1	-1E+10	1	-1E+10	1
4902551	50	C	12/27/2021	18:02	-133.330	49.482	0	72.10	0	7.3260	0	32.3280	0	25.272	0	71.473	0	273.5	4	92.1	4	-1E+10	1	-1E+10	1	-1E+10	1	-1E+10	1	-1E+10	1	-1E+10	1
4902551	50	C	12/27/2021	18:02	-133.330	49.482	0	72.90	0	7.3260	0	32.3290	0	25.272	0	72.266	0	273.5	4	92.1	4	-1E+10	1	-1E+10	1	-1E+10	1	-1E+10	1	-1E+10	1	-1E+10	1
4902551	50	C	12/27/2021	18:02	-133.330	49.482	0	73.70	0	7.3250	0	32.3290	0	25.273	0	73.059	0	273.3	4	92.0	4	-1E+10	1	-1E+10	1	-1E+10	1	-1E+10	1	-1E+10	1	-1E+10	1
4902551	50	C	12/27/2021	18:02	-133.330	49.482	0	74.80	0	7.3250	0	32.3290	0	25.273	0	74.149	0	273.2	4	92.0	4	-1E+10	1	-1E+10	1	-1E+10	1	-1E+10	1	-1E+10	1	-1E+10	1
4902551	50	C	12/27/2021	18:02	-133.330	49.482	0	75.80	0	7.3250	0	32.3290	0	25.273	0	75.140	0	273.0	4	91.9	4	-1E+10	1	-1E+10	1	-1E+10	1	-1E+10	1	-1E+10	1	-1E+10	1
4902551	50	C	12/27/2021	18:02	-133.330	49.482	0	76.90	0	7.3250	0	32.3290	0	25.273	0	76.230	0	272.7	4	91.8	4	-1E+10	1	-1E+10	1	-1E+10	1	-1E+10	1	-1E+10	1	-1E+10	1
4902551	50	C	12/27/2021	18:02	-133.330	49.482	0	77.90	0	7.3250	0	32.3290	0	25.273	0	77.221	0	272.6	4	91.8	4	-1E+10	1	-1E+10	1	-1E+10	1	-1E+10	1	-1E+10	1	-1E+10	1
4902551	50	C	12/27/2021	18:02	-133.330	49.482	0	79.10	0	7.3240	0	32.3290	0	25.273	0	78.411	0	272.3	4	91.7	4	-1E+10	1	-1E+10	1	-1E+10	1	-1E+10	1	-1E+10	1	-1E+10	1
4902551	50	C	12/27/2021	18:02	-133.330	49.482	0	79.90	0	7.3240	0	32.3290	0	25.273	0	79.203	0	272.0	4	91.6	4	-1E+10	1	-1E+10	1	-1E+10	1	-1E+10	1	-1E+10	1	-1E+10	1
4902551	50	C	12/27/2021	18:02	-133.330	49.482	0	80.80	0	7.3240	0	32.3290	0	25.273	0	80.095	0	271.7	4	91.5	4	-1E+10	1	-1E+10	1	-1E+10	1	-1E+10	1	-1E+10	1	-1E+10	1
4902551	50	C	12/27/2021	18:02	-133.330	49.482	0	82.00	0	7.3240	0	32.3290	0	25.273	0	81.285	0	271.3	4	91.3	4	-1E+10	1	-1E+10	1	-1E+10	1	-1E+10	1	-1E+10	1	-1E+10	1
4902551	50	C	12/27/2021	18:02	-133.330	49.482	0	82.90	0	7.3240	0	32.3290	0	25.273	0	82.177	0	271.1	4	91.3	4	-1E+10	1	-1E+10	1	-1E+10	1	-1E+10	1	-1E+10	1	-1E+10	1
4902551	50	C	12/27/2021	18:02	-133.330	49.482	0	83.80	0	7.3240	0	32.3290	0	25.273	0	83.069	0	270.8	4	91.2	4	-1E+10	1	-1E+10	1	-1E+10	1	-1E+10	1	-1E+10	1	-1E+10	1
4902551	50	C	12/27/2021	18:02	-133.330	49.482	0	85.00	0	7.3240	0	32.3290	0	25.273	0	84.258	0	270.3	4	91.0	4	-1E+10	1	-1E+10	1	-1E+10	1	-1E+10	1	-1E+10	1	-1E+10	1
4902551	50	C	12/27/2021	18:02	-133.330	49.482	0	85.90	0	7.3250	0	32.3300	0	25.274	0	85.150	0	269.9	4	90.9	4	-1E+10	1	-1E+10	1	-1E+10	1	-1E+10	1	-1E+10	1	-1E+10	1
4902551	50	C	12/27/2021	18:02	-133.330	49.482	0	86.80	0	7.3250	0	32.3300	0	25.274	0	86.042	0	269.5	4	90.7	4	-1E+10	1	-1E+10	1	-1E+10	1	-1E+10	1	-1E+10	1	-1E+10	1
4902551	50	C	12/27/2021	18:02	-133.330	49.482	0	88.10	0	7.3250	0	32.3300	0	25.274	0	87.330	0	268.7	4	90.5	4	-1E+10	1	-1E+10	1	-1E+10	1	-1E+10	1	-1E+10	1	-1E+10	1
4902551	50	C	12/27/2021	18:02	-133.330	49.482	0	89.00	0	7.3250	0	32.3300	0	25.274	0	88.222	0	268.1	4	90.3	4	-1E+10	1	-1E+10	1	-1E+10	1	-1E+10	1	-1E+10	1	-1E+10	1
4902551	50	C	12/27/2021	18:02	-133.330	49.482	0	89.90	0	7.3240	0	32.3310	0	25.275	0	89.114	0	267.4	4	90.0	4	-1E+10	1	-1E+10	1	-1E+10	1	-1E+10	1	-1E+10	1	-1E+10	1
4902551	50	C	12/27/2021	18:02	-133.330	49.482	0	91.00	0	7.3230	0	32.3300	0	25.274	0	90.204	0	266.4	4	89.7	4	-1E+10	1	-1E+10	1	-1E+10	1	-1E+10	1	-1E+10	1	-1E+10	1
4902551	50	C	12/27/2021	18:02	-133.330	49.482	0	92.10	0	7.3210	0	32.3310	0	25.275	0	91.294	0	265.3	4	89.3	4	-1E+10	1	-1E+10	1	-1E+10	1	-1E+10	1	-1E+10	1	-1E+10	1
4902551	50	C	12/27/2021	18:02	-133.330	49.482	0	92.90	0	7.3180	0	32.3330	0	25.277	0	92.087	0	264.3	4	89.0	4	-1E+10	1	-1E+10	1	-1E+10	1	-1E+10	1	-1E+10	1	-1E+10	1
4902551	50	C	12/27/2021	18:02	-133.330	49.482	0	94.10	0	7.2570	0	32.3520	0	25.300	0	93.276	0	262.8	4	88.4	4	-1E+10	1	-1E+10	1	-1E+10	1	-1E+10	1	-1E+10	1	-1E+10	1
4902551	50	C	12/27/2021	18:02	-133.330	49.482	0	95.10	0	7.2300	0	32.3590	0	25.309	0	94.267	0	261.6	4	87.9	4	-1E+10	1	-1E+10	1	-1E+10	1	-1E+10	1	-1E+10	1	-1E+10	1
4902551	50	C	12/27/2021	18:02	-133.330	49.482	0	96.00	0	7.1690	0	32.3740	0	25.329	0	95.159	0	259.0	4	86.9	4	-1E+10	1	-1E+10	1	-1E+10	1	-1E+10	1	-1E+10	1	-1E+10	1
4902551	50	C	12/27/2021	18:02	-133.330	49.482	0	97.00	0	7.0700	0	32.3970	0	25.361	0	96.150	0	256.6	4	85.9	4	-1E+10	1	-1E+10	1	-1E+10	1	-1E+10	1	-1E+10	1	-1E+10	1
4902551	50	C	12/27/2021	18:02	-133.330	49.482	0	98.10	0	6.9170	0	32.4370	0	25.413	0	97.240	0	253.1	4	84.5	4	-1E+10	1	-1E+10	1	-1E+10	1	-1E+10	1	-1E+10	1	-1E+10	1
4902551	50	C	12/27/2021	18:02	-133.330	49.482	0	99.10	0	6.7030	0	32.4900	0	25.482	0	98.231	0	249.8	4	83.0	4	-1E+10	1	-1E+10	1	-1E+10	1	-1E+10	1	-1E+10	1	-1E+10	1
4902551	50	C	12/27/2021	18:02	-133.330	49.482	0	99.90	0	6.5680	0	32.5260	0	25.528	0	99.024	0	248.1	4	82.2	4	-1E+10	1	-1E+10	1	-1E+10	1	-1E+10	1	-1E+10	1	-1E+10	1
4902551	50	C	12/27/2021	18:02	-133.330	49.482	0	101.00	0	6.3540	0	32.5930	0	25.608	0	100.114	0	246.2	4	81.2	4	-1E+10	1	-1E+10	1	-1E+10	1	-1E+10	1	-1E+10	1	-1E+10	1
4902551	50	C	12/27/2021	18:02	-133.330	49.482	0	102.00	0	6.2490	0	32.6260	0	25.647	0	101.105	0	244.0	4	80.3	4	-1E+10	1	-1E+10	1	-1E+10	1	-1E+10	1	-1E+10	1	-1E+10	1
4902551	50	C	12/27/2021	18:02	-133.330	49.482	0	103.00	0	6.2210	0	32.6360	0	25.659	0	102.096	0	241.5	4	79.5	4	-1E+10	1	-1E+10	1	-1E+10	1	-1E+10	1	-1E+10	1	-1E+10	1
4902551	50	C	12/27/2021	18:02	-133.330	49.482	0	104.10	0	6.1770	0	32.6540	0	25.679	0	103.186	0	240.0	4	78.9	4	-1E+10	1	-1E+10	1	-1E+10	1	-1E+10	1	-1E+10	1	-1E+10	1
4902551	50	C	12/27/2021	18:02	-133.330	49.482	0	105.00	0	6.1210	0	32.6820	0	25.708	0	104.078	0	239.0	4	78.5	4	-1E+10	1	-1E+10	1	-1E+10	1	-1E+10	1	-1E+10	1	-1E+10	1
4902551	50	C	12/27/2021	18:02	-133.330	49.482	0	106.10	0	6.0540	0	32.7290	0	25.753	0	105.168	0	238.1	4	78.1	4	-1E+10	1	-1E+10	1	-1E+10	1	-1E+10	1	-1E+10	1	-1E+10	1
4902551	50	C	12/27/2021	18:02	-133.330	49.482	0	106.90	0	6.0440	0	32.7360	0	25.760	0	105.961	0	237.6	4	77.9	4	-1E+10	1	-1E+10	1	-1E+10	1	-1E+10	1	-1E+10	1	-1E+10	1
4902551	50	C	12/27/2021	18:02	-133.330	49.482	0	107.90	0	6.0280	0	32.7490	0	25.772	0	106.952	0	236.7	4	77.6	4	-1E+10	1	-1E+10	1	-1E+10	1	-1E+10	1	-1E+10	1	-1E+10	1
4902551	50	C	12/27/2021	18:02	-133.330	49.482	0	108.90	0	6.0170	0	32.7570	0	25.780	0	107.943	0	235.3	4	77.1	4	-1E+10	1	-1E+10	1	-1E+10	1	-1E+10	1	-1E+10	1	-1E+10	1
4902551	50	C	12/27/2021	18:02	-133.330	49.482	0	109.90	0	6.0120	0	32.7620	0	25.784	0	108.934	0	233.7	4	76.6	4	-1E+10	1	-1E+10	1	-1E+10	1	-1E+10	1	-1E+10	1	-1E+10	1
4902551	50	C	12/27/2021	18:02	-133.330	49.482	0	110.80	0	6.0060	0	32.7710	0	25.792	0	109.826	0	232.0	4	76.0	4	-1E+10	1	-1E+10	1	-1E+10	1	-1E+10	1	-1E+10	1	-1E+10	1
4902551	50	C	12/27/2021	18:02	-133.330	49.482	0	111.90	0	6.0040	0	32.7890	0	25.807	0	110.916	0	230.1	4	75.4	4	-1E+10	1	-1E+10	1	-1E+10	1	-1E+10	1	-1E+10	1	-1E+10	1
4902551	50	C	12/27/2021	18:02	-133.330	49.482	0	113.00	0	6.0060	0	32.8120	0	25.825	0	112.006	0	228.2	4	74.8	4	-1E+10	1	-1E+10	1	-1E+10	1	-1E+10	1	-1E+10	1	-1E+10	1
4902551	50	C	12/27/2021	18:02	-133.330	49.482	0	114.10	0	6.0060	0	32.8140	0	25.826	0	113.096	0	225.9	4	74.1	4	-1E+10	1	-1E+10	1	-1E+10	1	-1E+10	1	-1E+10	1	-1E+10	1
4902551	50	C	12/27/2021	18:02	-133.330	49.482	0	114.90	0	6.0070	0	32.8160	0	25.828	0	113.889	0	223.6	4	73.3	4	-1E+10	1	-1E+10	1	-1E+10	1	-1E+10	1	-1E+10	1	-1E+10	1
4902551	50	C	12/27/2021	18:02	-133.330	49.482	0	116.10	0	6.0090	0	32.8430	0	25.849	0	115.078	0	219.1	4	71.8	4	-1E+10	1	-1E+10	1	-1E+10	1	-1E+10	1	-1E+10	1	-1E+10	1
4902551	50	C	12/27/2021	18:02	-133.330	49.482	0	117.00	0	6.0100	0	32.8460	0	25.851	0	115.970	0	216.1	4	70.9	4	-1E+10	1	-1E+10	1	-1E+10	1	-1E+10	1	-1E+10	1	-1E+10	1
4902551	50	C	12/27/2021	18:02	-133.330	49.482	0	118.10	0	6.0230	0	32.9010	0	25.893	0	117.060	0	211.6	4	69.4	4	-1E+10	1	-1E+10	1	-1E+10	1	-1E+10	1	-1E+10	1	-1E+10	1
4902551	50	C	12/27/2021	18:02	-133.330	49.482	0	119.10	0	6.0460	0	32.9900	0	25.960	0	118.050	0	209.2	4	68.7	4	-1E+10	1	-1E+10	1	-1E+10	1	-1E+10	1	-1E+10	1	-1E+10	1
4902551	50	C	12/27/2021	18:02	-133.330	49.482	0	120.30	0	6.0630	0	33.0490	0	26.005	0	119.240	0	208.1	4	68.4	4	-1E+10	1	-1E+10	1	-1E+10	1	-1E+10	1	-1E+10	1	-1E+10	1
4902551	50	C	12/27/2021	18:02	-133.330	49.482	0	121.00	0	6.0640	0	33.0490	0	26.005	0	119.933	0	207.3	4	68.1	4	-1E+10	1	-1E+10	1	-1E+10	1	-1E+10	1	-1E+10	1	-1E+10	1
4902551	50	C	12/27/2021	18:02	-133.330	49.482	0	122.10	0	6.0650	0	33.0510	0	26.006	0	121.023	0	204.8	4	67.3	4	-1E+10	1	-1E+10	1	-1E+10	1	-1E+10	1	-1E+10	1	-1E+10	1
4902551	50	C	12/27/2021	18:02	-133.330	49.482	0	123.00	0	6.0710	0	33.0700	0	26.020	0	121.915	0	203.4	4	66.9	4	-1E+10	1	-1E+10	1	-1E+10	1	-1E+10	1	-1E+10	1	-1E+10	1
4902551	50	C	12/27/2021	18:02	-133.330	49.482	0	124.10	0	6.0770	0	33.0920	0	26.037	0	123.005	0	202.4	4	66.6	4	-1E+10	1	-1E+10	1	-1E+10	1	-1E+10	1	-1E+10	1	-1E+10	1
4902551	50	C	12/27/2021	18:02	-133.330	49.482	0	125.00	0	6.0780	0	33.0980	0	26.042	0	123.897	0	201.6	4	66.3	4	-1E+10	1	-1E+10	1	-1E+10	1	-1E+10	1	-1E+10	1	-1E+10	1
4902551	50	C	12/27/2021	18:02	-133.330	49.482	0	125.90	0	6.0800	0	33.1030	0	26.045	0	124.789	0	200.5	4	66.0	4	-1E+10	1	-1E+10	1	-1E+10	1	-1E+10	1	-1E+10	1	-1E+10	1
4902551	50	C	12/27/2021	18:02	-133.330	49.482	0	126.80	0	6.0830	0	33.1070	0	26.048	0	125.680	0	199.1	4	65.5	4	-1E+10	1	-1E+10	1	-1E+10	1	-1E+10	1	-1E+10	1	-1E+10	1
4902551	50	C	12/27/2021	18:02	-133.330	49.482	0	127.90	0	6.0850	0	33.1140	0	26.053	0	126.770	0	197.3	4	64.9	4	-1E+10	1	-1E+10	1	-1E+10	1	-1E+10	1	-1E+10	1	-1E+10	1
4902551	50	C	12/27/2021	18:02	-133.330	49.482	0	129.10	0	6.0860	0	33.1210	0	26.059	0	127.959	0	195.3	4	64.3	4	-1E+10	1	-1E+10	1	-1E+10	1	-1E+10	1	-1E+10	1	-1E+10	1
4902551	50	C	12/27/2021	18:02	-133.330	49.482	0	129.90	0	6.0910	0	33.1430	0	26.076	0	128.752	0	194.2	4	63.9	4	-1E+10	1	-1E+10	1	-1E+10	1	-1E+10	1	-1E+10	1	-1E+10	1
4902551	50	C	12/27/2021	18:02	-133.330	49.482	0	131.20	0	6.0960	0	33.1650	0	26.092	0	130.040	0	192.8	4	63.5	4	-1E+10	1	-1E+10	1	-1E+10	1	-1E+10	1	-1E+10	1	-1E+10	1
4902551	50	C	12/27/2021	18:02	-133.330	49.482	0	132.00	0	6.0980	0	33.1720	0	26.098	0	130.833	0	191.6	4	63.1	4	-1E+10	1	-1E+10	1	-1E+10	1	-1E+10	1	-1E+10	1	-1E+10	1
4902551	50	C	12/27/2021	18:02	-133.330	49.482	0	132.90	0	6.0990	0	33.1800	0	26.104	0	131.724	0	190.5	4	62.7	4	-1E+10	1	-1E+10	1	-1E+10	1	-1E+10	1	-1E+10	1	-1E+10	1
4902551	50	C	12/27/2021	18:02	-133.330	49.482	0	134.20	0	6.1030	0	33.1910	0	26.112	0	133.013	0	188.4	4	62.1	4	-1E+10	1	-1E+10	1	-1E+10	1	-1E+10	1	-1E+10	1	-1E+10	1
4902551	50	C	12/27/2021	18:02	-133.330	49.482	0	135.00	0	6.1050	0	33.2060	0	26.124	0	133.805	0	186.9	4	61.6	4	-1E+10	1	-1E+10	1	-1E+10	1	-1E+10	1	-1E+10	1	-1E+10	1
4902551	50	C	12/27/2021	18:02	-133.330	49.482	0	135.90	0	6.1070	0	33.2100	0	26.127	0	134.697	0	185.4	4	61.1	4	-1E+10	1	-1E+10	1	-1E+10	1	-1E+10	1	-1E+10	1	-1E+10	1
4902551	50	C	12/27/2021	18:02	-133.330	49.482	0	137.10	0	6.1110	0	33.2210	0	26.135	0	135.886	0	183.1	4	60.3	4	-1E+10	1	-1E+10	1	-1E+10	1	-1E+10	1	-1E+10	1	-1E+10	1
4902551	50	C	12/27/2021	18:02	-133.330	49.482	0	137.90	0	6.1130	0	33.2400	0	26.150	0	136.679	0	181.5	4	59.8	4	-1E+10	1	-1E+10	1	-1E+10	1	-1E+10	1	-1E+10	1	-1E+10	1
4902551	50	C	12/27/2021	18:02	-133.330	49.482	0	139.10	0	6.1160	0	33.2560	0	26.162	0	137.868	0	179.0	4	59.0	4	-1E+10	1	-1E+10	1	-1E+10	1	-1E+10	1	-1E+10	1	-1E+10	1
4902551	50	C	12/27/2021	18:02	-133.330	49.482	0	139.80	0	6.1200	0	33.2740	0	26.176	0	138.561	0	177.8	4	58.6	4	-1E+10	1	-1E+10	1	-1E+10	1	-1E+10	1	-1E+10	1	-1E+10	1
4902551	50	C	12/27/2021	18:02	-133.330	49.482	0	140.80	0	6.1290	0	33.3050	0	26.199	0	139.552	0	176.1	4	58.1	4	-1E+10	1	-1E+10	1	-1E+10	1	-1E+10	1	-1E+10	1	-1E+10	1
4902551	50	C	12/27/2021	18:02	-133.330	49.482	0	141.90	0	6.1340	0	33.3300	0	26.218	0	140.642	0	174.4	4	57.6	4	-1E+10	1	-1E+10	1	-1E+10	1	-1E+10	1	-1E+10	1	-1E+10	1
4902551	50	C	12/27/2021	18:02	-133.330	49.482	0	143.00	0	6.1360	0	33.3410	0	26.227	0	141.732	0	172.4	4	56.9	4	-1E+10	1	-1E+10	1	-1E+10	1	-1E+10	1	-1E+10	1	-1E+10	1
4902551	50	C	12/27/2021	18:02	-133.330	49.482	0	144.10	0	6.1390	0	33.3650	0	26.245	0	142.822	0	170.4	4	56.2	4	-1E+10	1	-1E+10	1	-1E+10	1	-1E+10	1	-1E+10	1	-1E+10	1
4902551	50	C	12/27/2021	18:02	-133.330	49.482	0	145.00	0	6.1400	0	33.3710	0	26.250	0	143.713	0	168.7	4	55.7	4	-1E+10	1	-1E+10	1	-1E+10	1	-1E+10	1	-1E+10	1	-1E+10	1
4902551	50	C	12/27/2021	18:02	-133.330	49.482	0	145.80	0	6.1400	0	33.3780	0	26.255	0	144.506	0	166.9	4	55.1	4	-1E+10	1	-1E+10	1	-1E+10	1	-1E+10	1	-1E+10	1	-1E+10	1
4902551	50	C	12/27/2021	18:02	-133.330	49.482	0	147.00	0	6.1410	0	33.3830	0	26.259	0	145.695	0	164.4	4	54.3	4	-1E+10	1	-1E+10	1	-1E+10	1	-1E+10	1	-1E+10	1	-1E+10	1
4902551	50	C	12/27/2021	18:02	-133.330	49.482	0	148.00	0	6.1410	0	33.3950	0	26.269	0	146.686	0	162.3	4	53.6	4	-1E+10	1	-1E+10	1	-1E+10	1	-1E+10	1	-1E+10	1	-1E+10	1
4902551	50	C	12/27/2021	18:02	-133.330	49.482	0	149.00	0	6.1340	0	33.4740	0	26.332	0	147.676	0	160.9	4	53.2	4	-1E+10	1	-1E+10	1	-1E+10	1	-1E+10	1	-1E+10	1	-1E+10	1
4902551	50	C	12/27/2021	18:02	-133.330	49.482	0	150.10	0	6.1240	0	33.5130	0	26.364	0	148.766	0	159.7	4	52.8	4	-1E+10	1	-1E+10	1	-1E+10	1	-1E+10	1	-1E+10	1	-1E+10	1
4902551	50	C	12/27/2021	18:02	-133.330	49.482	0	150.90	0	6.1230	0	33.5140	0	26.365	0	149.559	0	158.8	4	52.5	4	-1E+10	1	-1E+10	1	-1E+10	1	-1E+10	1	-1E+10	1	-1E+10	1
4902551	50	C	12/27/2021	18:02	-133.330	49.482	0	152.00	0	6.1190	0	33.5200	0	26.370	0	150.649	0	157.4	4	52.0	4	-1E+10	1	-1E+10	1	-1E+10	1	-1E+10	1	-1E+10	1	-1E+10	1
4902551	50	C	12/27/2021	18:02	-133.330	49.482	0	153.20	0	6.1170	0	33.5230	0	26.373	0	151.837	0	156.0	4	51.5	4	-1E+10	1	-1E+10	1	-1E+10	1	-1E+10	1	-1E+10	1	-1E+10	1
4902551	50	C	12/27/2021	18:02	-133.330	49.482	0	154.00	0	6.1100	0	33.5340	0	26.382	0	152.630	0	155.2	4	51.3	4	-1E+10	1	-1E+10	1	-1E+10	1	-1E+10	1	-1E+10	1	-1E+10	1
4902551	50	C	12/27/2021	18:02	-133.330	49.482	0	154.80	0	6.1070	0	33.5400	0	26.387	0	153.423	0	154.2	4	50.9	4	-1E+10	1	-1E+10	1	-1E+10	1	-1E+10	1	-1E+10	1	-1E+10	1
4902551	50	C	12/27/2021	18:02	-133.330	49.482	0	156.00	0	6.0970	0	33.5500	0	26.397	0	154.612	0	152.7	4	50.4	4	-1E+10	1	-1E+10	1	-1E+10	1	-1E+10	1	-1E+10	1	-1E+10	1
4902551	50	C	12/27/2021	18:02	-133.330	49.482	0	157.30	0	6.0730	0	33.5780	0	26.422	0	155.899	0	151.1	4	49.9	4	-1E+10	1	-1E+10	1	-1E+10	1	-1E+10	1	-1E+10	1	-1E+10	1
4902551	50	C	12/27/2021	18:02	-133.330	49.482	0	158.20	0	6.0730	0	33.5790	0	26.423	0	156.791	0	149.9	4	49.5	4	-1E+10	1	-1E+10	1	-1E+10	1	-1E+10	1	-1E+10	1	-1E+10	1
4902551	50	C	12/27/2021	18:02	-133.330	49.482	0	159.00	0	6.0720	0	33.5820	0	26.425	0	157.584	0	148.7	4	49.1	4	-1E+10	1	-1E+10	1	-1E+10	1	-1E+10	1	-1E+10	1	-1E+10	1
4902551	50	C	12/27/2021	18:02	-133.330	49.482	0	159.90	0	6.0710	0	33.5830	0	26.426	0	158.475	0	147.3	4	48.6	4	-1E+10	1	-1E+10	1	-1E+10	1	-1E+10	1	-1E+10	1	-1E+10	1
4902551	50	C	12/27/2021	18:02	-133.330	49.482	0	160.80	0	6.0680	0	33.5860	0	26.429	0	159.367	0	145.8	4	48.1	4	-1E+10	1	-1E+10	1	-1E+10	1	-1E+10	1	-1E+10	1	-1E+10	1
4902551	50	C	12/27/2021	18:02	-133.330	49.482	0	161.70	0	6.0460	0	33.6100	0	26.450	0	160.259	0	144.4	4	47.7	4	-1E+10	1	-1E+10	1	-1E+10	1	-1E+10	1	-1E+10	1	-1E+10	1
4902551	50	C	12/27/2021	18:02	-133.330	49.482	0	162.90	0	6.0310	0	33.6220	0	26.462	0	161.447	0	142.4	4	47.0	4	-1E+10	1	-1E+10	1	-1E+10	1	-1E+10	1	-1E+10	1	-1E+10	1
4902551	50	C	12/27/2021	18:02	-133.330	49.482	0	164.30	0	6.0070	0	33.6420	0	26.481	0	162.834	0	140.5	4	46.3	4	-1E+10	1	-1E+10	1	-1E+10	1	-1E+10	1	-1E+10	1	-1E+10	1
4902551	50	C	12/27/2021	18:02	-133.330	49.482	0	165.20	0	5.9980	0	33.6480	0	26.486	0	163.726	0	139.3	4	45.9	4	-1E+10	1	-1E+10	1	-1E+10	1	-1E+10	1	-1E+10	1	-1E+10	1
4902551	50	C	12/27/2021	18:02	-133.330	49.482	0	166.10	0	5.9940	0	33.6510	0	26.489	0	164.618	0	138.1	4	45.5	4	-1E+10	1	-1E+10	1	-1E+10	1	-1E+10	1	-1E+10	1	-1E+10	1
4902551	50	C	12/27/2021	18:02	-133.330	49.482	0	167.00	0	5.9870	0	33.6560	0	26.494	0	165.509	0	136.9	4	45.1	4	-1E+10	1	-1E+10	1	-1E+10	1	-1E+10	1	-1E+10	1	-1E+10	1
4902551	50	C	12/27/2021	18:02	-133.330	49.482	0	167.80	0	5.9570	0	33.6810	0	26.518	0	166.302	0	135.9	4	44.8	4	-1E+10	1	-1E+10	1	-1E+10	1	-1E+10	1	-1E+10	1	-1E+10	1
4902551	50	C	12/27/2021	18:02	-133.330	49.482	0	168.70	0	5.9280	0	33.6930	0	26.531	0	167.193	0	135.5	4	44.6	4	-1E+10	1	-1E+10	1	-1E+10	1	-1E+10	1	-1E+10	1	-1E+10	1
4902551	50	C	12/27/2021	18:02	-133.330	49.482	0	169.60	0	5.9090	0	33.7000	0	26.539	0	168.085	0	135.0	4	44.4	4	-1E+10	1	-1E+10	1	-1E+10	1	-1E+10	1	-1E+10	1	-1E+10	1
4902551	50	C	12/27/2021	18:02	-133.330	49.482	0	170.90	0	5.9020	0	33.7030	0	26.542	0	169.373	0	134.2	4	44.2	4	-1E+10	1	-1E+10	1	-1E+10	1	-1E+10	1	-1E+10	1	-1E+10	1
4902551	50	C	12/27/2021	18:02	-133.330	49.482	0	172.30	0	5.8910	0	33.7100	0	26.549	0	170.760	0	133.5	4	43.9	4	-1E+10	1	-1E+10	1	-1E+10	1	-1E+10	1	-1E+10	1	-1E+10	1
4902551	50	C	12/27/2021	18:02	-133.330	49.482	0	173.20	0	5.8890	0	33.7110	0	26.550	0	171.651	0	133.0	4	43.8	4	-1E+10	1	-1E+10	1	-1E+10	1	-1E+10	1	-1E+10	1	-1E+10	1
4902551	50	C	12/27/2021	18:02	-133.330	49.482	0	174.00	0	5.8890	0	33.7110	0	26.550	0	172.444	0	132.6	4	43.6	4	-1E+10	1	-1E+10	1	-1E+10	1	-1E+10	1	-1E+10	1	-1E+10	1
4902551	50	C	12/27/2021	18:02	-133.330	49.482	0	174.90	0	5.8880	0	33.7120	0	26.551	0	173.335	0	132.1	4	43.5	4	-1E+10	1	-1E+10	1	-1E+10	1	-1E+10	1	-1E+10	1	-1E+10	1
4902551	50	C	12/27/2021	18:02	-133.330	49.482	0	175.70	0	5.8880	0	33.7110	0	26.550	0	174.128	0	131.5	4	43.3	4	-1E+10	1	-1E+10	1	-1E+10	1	-1E+10	1	-1E+10	1	-1E+10	1
4902551	50	C	12/27/2021	18:02	-133.330	49.482	0	177.00	0	5.8840	0	33.7130	0	26.552	0	175.416	0	130.5	4	42.9	4	-1E+10	1	-1E+10	1	-1E+10	1	-1E+10	1	-1E+10	1	-1E+10	1
4902551	50	C	12/27/2021	18:02	-133.330	49.482	0	178.30	0	5.8700	0	33.7190	0	26.559	0	176.704	0	129.6	4	42.6	4	-1E+10	1	-1E+10	1	-1E+10	1	-1E+10	1	-1E+10	1	-1E+10	1
4902551	50	C	12/27/2021	18:02	-133.330	49.482	0	179.20	0	5.8550	0	33.7240	0	26.564	0	177.595	0	129.1	4	42.5	4	-1E+10	1	-1E+10	1	-1E+10	1	-1E+10	1	-1E+10	1	-1E+10	1
4902551	50	C	12/27/2021	18:02	-133.330	49.482	0	180.10	0	5.8470	0	33.7270	0	26.568	0	178.487	0	128.6	4	42.3	4	-1E+10	1	-1E+10	1	-1E+10	1	-1E+10	1	-1E+10	1	-1E+10	1
4902551	50	C	12/27/2021	18:02	-133.330	49.482	0	181.00	0	5.8380	0	33.7310	0	26.572	0	179.378	0	128.3	4	42.2	4	-1E+10	1	-1E+10	1	-1E+10	1	-1E+10	1	-1E+10	1	-1E+10	1
4902551	50	C	12/27/2021	18:02	-133.330	49.482	0	181.90	0	5.8360	0	33.7320	0	26.573	0	180.270	0	127.8	4	42.0	4	-1E+10	1	-1E+10	1	-1E+10	1	-1E+10	1	-1E+10	1	-1E+10	1
4902551	50	C	12/27/2021	18:02	-133.330	49.482	0	182.70	0	5.8320	0	33.7330	0	26.574	0	181.062	0	127.4	4	41.9	4	-1E+10	1	-1E+10	1	-1E+10	1	-1E+10	1	-1E+10	1	-1E+10	1
4902551	50	C	12/27/2021	18:02	-133.330	49.482	0	183.60	0	5.8280	0	33.7350	0	26.576	0	181.954	0	126.9	4	41.7	4	-1E+10	1	-1E+10	1	-1E+10	1	-1E+10	1	-1E+10	1	-1E+10	1
4902551	50	C	12/27/2021	18:02	-133.330	49.482	0	184.90	0	5.8260	0	33.7360	0	26.577	0	183.241	0	126.2	4	41.5	4	-1E+10	1	-1E+10	1	-1E+10	1	-1E+10	1	-1E+10	1	-1E+10	1
4902551	50	C	12/27/2021	18:02	-133.330	49.482	0	186.30	0	5.8250	0	33.7370	0	26.578	0	184.628	0	125.4	4	41.2	4	-1E+10	1	-1E+10	1	-1E+10	1	-1E+10	1	-1E+10	1	-1E+10	1
4902551	50	C	12/27/2021	18:02	-133.330	49.482	0	187.20	0	5.8230	0	33.7370	0	26.579	0	185.520	0	124.8	4	41.0	4	-1E+10	1	-1E+10	1	-1E+10	1	-1E+10	1	-1E+10	1	-1E+10	1
4902551	50	C	12/27/2021	18:02	-133.330	49.482	0	188.10	0	5.8200	0	33.7380	0	26.580	0	186.411	0	124.2	4	40.8	4	-1E+10	1	-1E+10	1	-1E+10	1	-1E+10	1	-1E+10	1	-1E+10	1
4902551	50	C	12/27/2021	18:02	-133.330	49.482	0	188.90	0	5.8140	0	33.7400	0	26.582	0	187.204	0	123.6	4	40.6	4	-1E+10	1	-1E+10	1	-1E+10	1	-1E+10	1	-1E+10	1	-1E+10	1
4902551	50	C	12/27/2021	18:02	-133.330	49.482	0	189.80	0	5.8040	0	33.7420	0	26.585	0	188.095	0	123.0	4	40.4	4	-1E+10	1	-1E+10	1	-1E+10	1	-1E+10	1	-1E+10	1	-1E+10	1
4902551	50	C	12/27/2021	18:02	-133.330	49.482	0	190.70	0	5.7960	0	33.7460	0	26.589	0	188.987	0	122.4	4	40.2	4	-1E+10	1	-1E+10	1	-1E+10	1	-1E+10	1	-1E+10	1	-1E+10	1
4902551	50	C	12/27/2021	18:02	-133.330	49.482	0	191.60	0	5.7840	0	33.7480	0	26.592	0	189.878	0	121.8	4	40.0	4	-1E+10	1	-1E+10	1	-1E+10	1	-1E+10	1	-1E+10	1	-1E+10	1
4902551	50	C	12/27/2021	18:02	-133.330	49.482	0	192.90	0	5.7720	0	33.7510	0	26.596	0	191.166	0	120.8	4	39.7	4	-1E+10	1	-1E+10	1	-1E+10	1	-1E+10	1	-1E+10	1	-1E+10	1
4902551	50	C	12/27/2021	18:02	-133.330	49.482	0	194.30	0	5.7510	0	33.7540	0	26.601	0	192.553	0	119.8	4	39.3	4	-1E+10	1	-1E+10	1	-1E+10	1	-1E+10	1	-1E+10	1	-1E+10	1
4902551	50	C	12/27/2021	18:02	-133.330	49.482	0	195.20	0	5.7310	0	33.7620	0	26.610	0	193.444	0	119.1	4	39.1	4	-1E+10	1	-1E+10	1	-1E+10	1	-1E+10	1	-1E+10	1	-1E+10	1
4902551	50	C	12/27/2021	18:02	-133.330	49.482	0	196.10	0	5.7120	0	33.7630	0	26.613	0	194.336	0	118.6	4	38.9	4	-1E+10	1	-1E+10	1	-1E+10	1	-1E+10	1	-1E+10	1	-1E+10	1
4902551	50	C	12/27/2021	18:02	-133.330	49.482	0	197.00	0	5.7070	0	33.7640	0	26.614	0	195.227	0	118.0	4	38.7	4	-1E+10	1	-1E+10	1	-1E+10	1	-1E+10	1	-1E+10	1	-1E+10	1
4902551	50	C	12/27/2021	18:02	-133.330	49.482	0	198.00	0	5.7000	0	33.7670	0	26.618	0	196.218	0	117.5	4	38.5	4	-1E+10	1	-1E+10	1	-1E+10	1	-1E+10	1	-1E+10	1	-1E+10	1
4902551	50	C	12/27/2021	18:02	-133.330	49.482	0	198.90	0	5.6980	0	33.7670	0	26.618	0	197.109	0	117.0	4	38.3	4	-1E+10	1	-1E+10	1	-1E+10	1	-1E+10	1	-1E+10	1	-1E+10	1
4902551	50	C	12/27/2021	18:02	-133.330	49.482	0	199.80	0	5.6930	0	33.7680	0	26.619	0	198.001	0	116.4	4	38.1	4	-1E+10	1	-1E+10	1	-1E+10	1	-1E+10	1	-1E+10	1	-1E+10	1
4902551	50	C	12/27/2021	18:02	-133.330	49.482	0	200.80	0	5.6900	0	33.7680	0	26.620	0	198.991	0	115.7	4	37.9	4	-1E+10	1	-1E+10	1	-1E+10	1	-1E+10	1	-1E+10	1	-1E+10	1
4902551	50	C	12/27/2021	18:02	-133.330	49.482	0	201.80	0	5.6870	0	33.7680	0	26.620	0	199.982	0	115.1	4	37.7	4	-1E+10	1	-1E+10	1	-1E+10	1	-1E+10	1	-1E+10	1	-1E+10	1
4902551	50	C	12/27/2021	18:02	-133.330	49.482	0	202.70	0	5.6690	0	33.7700	0	26.624	0	200.873	0	114.5	4	37.5	4	-1E+10	1	-1E+10	1	-1E+10	1	-1E+10	1	-1E+10	1	-1E+10	1
4902551	50	C	12/27/2021	18:02	-133.330	49.482	0	203.70	0	5.6380	0	33.7770	0	26.633	0	201.864	0	114.1	4	37.3	4	-1E+10	1	-1E+10	1	-1E+10	1	-1E+10	1	-1E+10	1	-1E+10	1
4902551	50	C	12/27/2021	18:02	-133.330	49.482	0	204.60	0	5.6250	0	33.7780	0	26.635	0	202.755	0	113.6	4	37.2	4	-1E+10	1	-1E+10	1	-1E+10	1	-1E+10	1	-1E+10	1	-1E+10	1
4902551	50	C	12/27/2021	18:02	-133.330	49.482	0	205.60	0	5.6120	0	33.7800	0	26.639	0	203.746	0	113.1	4	37.0	4	-1E+10	1	-1E+10	1	-1E+10	1	-1E+10	1	-1E+10	1	-1E+10	1
4902551	50	C	12/27/2021	18:02	-133.330	49.482	0	206.60	0	5.6020	0	33.7800	0	26.640	0	204.736	0	112.8	4	36.9	4	-1E+10	1	-1E+10	1	-1E+10	1	-1E+10	1	-1E+10	1	-1E+10	1
4902551	50	C	12/27/2021	18:02	-133.330	49.482	0	207.60	0	5.5960	0	33.7810	0	26.641	0	205.727	0	112.3	4	36.7	4	-1E+10	1	-1E+10	1	-1E+10	1	-1E+10	1	-1E+10	1	-1E+10	1
4902551	50	C	12/27/2021	18:02	-133.330	49.482	0	208.60	0	5.5790	0	33.7840	0	26.646	0	206.717	0	111.8	4	36.5	4	-1E+10	1	-1E+10	1	-1E+10	1	-1E+10	1	-1E+10	1	-1E+10	1
4902551	50	C	12/27/2021	18:02	-133.330	49.482	0	209.60	0	5.5720	0	33.7840	0	26.647	0	207.708	0	111.2	4	36.3	4	-1E+10	1	-1E+10	1	-1E+10	1	-1E+10	1	-1E+10	1	-1E+10	1
4902551	50	C	12/27/2021	18:02	-133.330	49.482	0	210.60	0	5.5650	0	33.7850	0	26.648	0	208.698	0	110.7	4	36.2	4	-1E+10	1	-1E+10	1	-1E+10	1	-1E+10	1	-1E+10	1	-1E+10	1
4902551	50	C	12/27/2021	18:02	-133.330	49.482	0	211.60	0	5.5610	0	33.7850	0	26.649	0	209.688	0	110.1	4	36.0	4	-1E+10	1	-1E+10	1	-1E+10	1	-1E+10	1	-1E+10	1	-1E+10	1
4902551	50	C	12/27/2021	18:02	-133.330	49.482	0	212.60	0	5.5550	0	33.7850	0	26.649	0	210.679	0	109.4	4	35.7	4	-1E+10	1	-1E+10	1	-1E+10	1	-1E+10	1	-1E+10	1	-1E+10	1
4902551	50	C	12/27/2021	18:02	-133.330	49.482	0	213.60	0	5.5410	0	33.7880	0	26.653	0	211.669	0	108.7	4	35.5	4	-1E+10	1	-1E+10	1	-1E+10	1	-1E+10	1	-1E+10	1	-1E+10	1
4902551	50	C	12/27/2021	18:02	-133.330	49.482	0	214.60	0	5.5170	0	33.7900	0	26.658	0	212.660	0	108.1	4	35.3	4	-1E+10	1	-1E+10	1	-1E+10	1	-1E+10	1	-1E+10	1	-1E+10	1
4902551	50	C	12/27/2021	18:02	-133.330	49.482	0	215.70	0	5.5020	0	33.7920	0	26.661	0	213.749	0	107.6	4	35.1	4	-1E+10	1	-1E+10	1	-1E+10	1	-1E+10	1	-1E+10	1	-1E+10	1
4902551	50	C	12/27/2021	18:02	-133.330	49.482	0	216.70	0	5.4990	0	33.7910	0	26.661	0	214.740	0	107.0	4	34.9	4	-1E+10	1	-1E+10	1	-1E+10	1	-1E+10	1	-1E+10	1	-1E+10	1
4902551	50	C	12/27/2021	18:02	-133.330	49.482	0	217.70	0	5.4910	0	33.7920	0	26.663	0	215.730	0	106.3	4	34.7	4	-1E+10	1	-1E+10	1	-1E+10	1	-1E+10	1	-1E+10	1	-1E+10	1
4902551	50	C	12/27/2021	18:02	-133.330	49.482	0	218.70	0	5.4610	0	33.7980	0	26.671	0	216.721	0	105.8	4	34.5	4	-1E+10	1	-1E+10	1	-1E+10	1	-1E+10	1	-1E+10	1	-1E+10	1
4902551	50	C	12/27/2021	18:02	-133.330	49.482	0	219.80	0	5.4440	0	33.7980	0	26.673	0	217.810	0	105.2	4	34.3	4	-1E+10	1	-1E+10	1	-1E+10	1	-1E+10	1	-1E+10	1	-1E+10	1
4902551	50	C	12/27/2021	18:02	-133.330	49.482	0	220.80	0	5.4370	0	33.7970	0	26.673	0	218.800	0	104.7	4	34.1	4	-1E+10	1	-1E+10	1	-1E+10	1	-1E+10	1	-1E+10	1	-1E+10	1
4902551	50	C	12/27/2021	18:02	-133.330	49.482	0	221.80	0	5.4100	0	33.8030	0	26.681	0	219.791	0	104.3	4	34.0	4	-1E+10	1	-1E+10	1	-1E+10	1	-1E+10	1	-1E+10	1	-1E+10	1
4902551	50	C	12/27/2021	18:02	-133.330	49.482	0	222.90	0	5.4050	0	33.8020	0	26.681	0	220.880	0	103.9	4	33.8	4	-1E+10	1	-1E+10	1	-1E+10	1	-1E+10	1	-1E+10	1	-1E+10	1
4902551	50	C	12/27/2021	18:02	-133.330	49.482	0	223.90	0	5.4030	0	33.8020	0	26.681	0	221.871	0	103.5	4	33.7	4	-1E+10	1	-1E+10	1	-1E+10	1	-1E+10	1	-1E+10	1	-1E+10	1
4902551	50	C	12/27/2021	18:02	-133.330	49.482	0	225.00	0	5.4000	0	33.8020	0	26.681	0	222.960	0	103.0	4	33.5	4	-1E+10	1	-1E+10	1	-1E+10	1	-1E+10	1	-1E+10	1	-1E+10	1
4902551	50	C	12/27/2021	18:02	-133.330	49.482	0	226.10	0	5.3910	0	33.8030	0	26.683	0	224.050	0	102.5	4	33.4	4	-1E+10	1	-1E+10	1	-1E+10	1	-1E+10	1	-1E+10	1	-1E+10	1
4902551	50	C	12/27/2021	18:02	-133.330	49.482	0	227.10	0	5.3640	0	33.8070	0	26.690	0	225.040	0	102.1	4	33.2	4	-1E+10	1	-1E+10	1	-1E+10	1	-1E+10	1	-1E+10	1	-1E+10	1
4902551	50	C	12/27/2021	18:02	-133.330	49.482	0	228.20	0	5.3620	0	33.8060	0	26.689	0	226.129	0	101.6	4	33.1	4	-1E+10	1	-1E+10	1	-1E+10	1	-1E+10	1	-1E+10	1	-1E+10	1
4902551	50	C	12/27/2021	18:02	-133.330	49.482	0	229.30	0	5.3430	0	33.8070	0	26.692	0	227.219	0	101.2	4	32.9	4	-1E+10	1	-1E+10	1	-1E+10	1	-1E+10	1	-1E+10	1	-1E+10	1
4902551	50	C	12/27/2021	18:02	-133.330	49.482	0	230.30	0	5.3340	0	33.8080	0	26.694	0	228.209	0	100.8	4	32.8	4	-1E+10	1	-1E+10	1	-1E+10	1	-1E+10	1	-1E+10	1	-1E+10	1
4902551	50	C	12/27/2021	18:02	-133.330	49.482	0	231.40	0	5.3260	0	33.8090	0	26.696	0	229.299	0	100.4	4	32.6	4	-1E+10	1	-1E+10	1	-1E+10	1	-1E+10	1	-1E+10	1	-1E+10	1
4902551	50	C	12/27/2021	18:02	-133.330	49.482	0	232.50	0	5.3170	0	33.8100	0	26.697	0	230.388	0	99.9	4	32.5	4	-1E+10	1	-1E+10	1	-1E+10	1	-1E+10	1	-1E+10	1	-1E+10	1
4902551	50	C	12/27/2021	18:02	-133.330	49.482	0	233.50	0	5.3120	0	33.8100	0	26.698	0	231.378	0	99.5	4	32.3	4	-1E+10	1	-1E+10	1	-1E+10	1	-1E+10	1	-1E+10	1	-1E+10	1
4902551	50	C	12/27/2021	18:02	-133.330	49.482	0	234.60	0	5.3070	0	33.8100	0	26.699	0	232.468	0	99.0	4	32.2	4	-1E+10	1	-1E+10	1	-1E+10	1	-1E+10	1	-1E+10	1	-1E+10	1
4902551	50	C	12/27/2021	18:02	-133.330	49.482	0	235.60	0	5.3030	0	33.8100	0	26.699	0	233.458	0	98.5	4	32.0	4	-1E+10	1	-1E+10	1	-1E+10	1	-1E+10	1	-1E+10	1	-1E+10	1
4902551	50	C	12/27/2021	18:02	-133.330	49.482	0	236.70	0	5.2880	0	33.8130	0	26.703	0	234.547	0	97.9	4	31.8	4	-1E+10	1	-1E+10	1	-1E+10	1	-1E+10	1	-1E+10	1	-1E+10	1
4902551	50	C	12/27/2021	18:02	-133.330	49.482	0	237.70	0	5.2840	0	33.8120	0	26.703	0	235.538	0	97.4	4	31.6	4	-1E+10	1	-1E+10	1	-1E+10	1	-1E+10	1	-1E+10	1	-1E+10	1
4902551	50	C	12/27/2021	18:02	-133.330	49.482	0	238.80	0	5.2790	0	33.8130	0	26.704	0	236.627	0	96.9	4	31.4	4	-1E+10	1	-1E+10	1	-1E+10	1	-1E+10	1	-1E+10	1	-1E+10	1
4902551	50	C	12/27/2021	18:02	-133.330	49.482	0	239.80	0	5.2520	0	33.8150	0	26.709	0	237.618	0	96.4	4	31.3	4	-1E+10	1	-1E+10	1	-1E+10	1	-1E+10	1	-1E+10	1	-1E+10	1
4902551	50	C	12/27/2021	18:02	-133.330	49.482	0	240.80	0	5.2440	0	33.8170	0	26.712	0	238.608	0	96.0	4	31.1	4	-1E+10	1	-1E+10	1	-1E+10	1	-1E+10	1	-1E+10	1	-1E+10	1
4902551	50	C	12/27/2021	18:02	-133.330	49.482	0	241.90	0	5.2080	0	33.8210	0	26.719	0	239.697	0	95.6	4	31.0	4	-1E+10	1	-1E+10	1	-1E+10	1	-1E+10	1	-1E+10	1	-1E+10	1
4902551	50	C	12/27/2021	18:02	-133.330	49.482	0	242.90	0	5.1900	0	33.8190	0	26.719	0	240.687	0	95.3	4	30.9	4	-1E+10	1	-1E+10	1	-1E+10	1	-1E+10	1	-1E+10	1	-1E+10	1
4902551	50	C	12/27/2021	18:02	-133.330	49.482	0	244.00	0	5.1800	0	33.8190	0	26.721	0	241.777	0	94.9	4	30.7	4	-1E+10	1	-1E+10	1	-1E+10	1	-1E+10	1	-1E+10	1	-1E+10	1
4902551	50	C	12/27/2021	18:02	-133.330	49.482	0	245.00	0	5.1700	0	33.8210	0	26.723	0	242.767	0	94.5	4	30.6	4	-1E+10	1	-1E+10	1	-1E+10	1	-1E+10	1	-1E+10	1	-1E+10	1
4902551	50	C	12/27/2021	18:02	-133.330	49.482	0	246.00	0	5.1570	0	33.8220	0	26.726	0	243.757	0	94.1	4	30.5	4	-1E+10	1	-1E+10	1	-1E+10	1	-1E+10	1	-1E+10	1	-1E+10	1
4902551	50	C	12/27/2021	18:02	-133.330	49.482	0	247.10	0	5.1450	0	33.8210	0	26.726	0	244.847	0	93.7	4	30.3	4	-1E+10	1	-1E+10	1	-1E+10	1	-1E+10	1	-1E+10	1	-1E+10	1
4902551	50	C	12/27/2021	18:02	-133.330	49.482	0	248.10	0	5.1300	0	33.8230	0	26.730	0	245.837	0	93.4	4	30.2	4	-1E+10	1	-1E+10	1	-1E+10	1	-1E+10	1	-1E+10	1	-1E+10	1
4902551	50	C	12/27/2021	18:02	-133.330	49.482	0	249.10	0	5.1220	0	33.8240	0	26.731	0	246.827	0	93.0	4	30.1	4	-1E+10	1	-1E+10	1	-1E+10	1	-1E+10	1	-1E+10	1	-1E+10	1
4902551	50	C	12/27/2021	18:02	-133.330	49.482	0	250.20	0	5.1090	0	33.8250	0	26.734	0	247.917	0	92.7	4	30.0	4	-1E+10	1	-1E+10	1	-1E+10	1	-1E+10	1	-1E+10	1	-1E+10	1
4902551	50	C	12/27/2021	18:02	-133.330	49.482	0	251.20	0	5.1030	0	33.8250	0	26.734	0	248.907	0	92.4	4	29.9	4	-1E+10	1	-1E+10	1	-1E+10	1	-1E+10	1	-1E+10	1	-1E+10	1
4902551	50	C	12/27/2021	18:02	-133.330	49.482	0	252.20	0	5.0950	0	33.8260	0	26.736	0	249.897	0	92.1	4	29.8	4	-1E+10	1	-1E+10	1	-1E+10	1	-1E+10	1	-1E+10	1	-1E+10	1
4902551	50	C	12/27/2021	18:02	-133.330	49.482	0	253.20	0	5.0930	0	33.8260	0	26.736	0	250.887	0	91.7	4	29.7	4	-1E+10	1	-1E+10	1	-1E+10	1	-1E+10	1	-1E+10	1	-1E+10	1
4902551	50	C	12/27/2021	18:02	-133.330	49.482	0	254.30	0	5.0900	0	33.8260	0	26.737	0	251.977	0	91.3	4	29.5	4	-1E+10	1	-1E+10	1	-1E+10	1	-1E+10	1	-1E+10	1	-1E+10	1
4902551	50	C	12/27/2021	18:02	-133.330	49.482	0	255.30	0	5.0880	0	33.8260	0	26.737	0	252.967	0	90.9	4	29.4	4	-1E+10	1	-1E+10	1	-1E+10	1	-1E+10	1	-1E+10	1	-1E+10	1
4902551	50	C	12/27/2021	18:02	-133.330	49.482	0	256.30	0	5.0850	0	33.8260	0	26.737	0	253.957	0	90.4	4	29.2	4	-1E+10	1	-1E+10	1	-1E+10	1	-1E+10	1	-1E+10	1	-1E+10	1
4902551	50	C	12/27/2021	18:02	-133.330	49.482	0	257.30	0	5.0780	0	33.8260	0	26.738	0	254.947	0	89.9	4	29.0	4	-1E+10	1	-1E+10	1	-1E+10	1	-1E+10	1	-1E+10	1	-1E+10	1
4902551	50	C	12/27/2021	18:02	-133.330	49.482	0	258.30	0	5.0550	0	33.8290	0	26.743	0	255.938	0	89.4	4	28.9	4	-1E+10	1	-1E+10	1	-1E+10	1	-1E+10	1	-1E+10	1	-1E+10	1
4902551	50	C	12/27/2021	18:02	-133.330	49.482	0	259.30	0	5.0480	0	33.8330	0	26.747	0	256.928	0	89.0	4	28.7	4	-1E+10	1	-1E+10	1	-1E+10	1	-1E+10	1	-1E+10	1	-1E+10	1
4902551	50	C	12/27/2021	18:02	-133.330	49.482	0	260.40	0	5.0310	0	33.8320	0	26.748	0	258.017	0	88.6	4	28.6	4	-1E+10	1	-1E+10	1	-1E+10	1	-1E+10	1	-1E+10	1	-1E+10	1
4902551	50	C	12/27/2021	18:02	-133.330	49.482	0	261.40	0	5.0260	0	33.8320	0	26.749	0	259.007	0	88.2	4	28.4	4	-1E+10	1	-1E+10	1	-1E+10	1	-1E+10	1	-1E+10	1	-1E+10	1
4902551	50	C	12/27/2021	18:02	-133.330	49.482	0	262.40	0	5.0230	0	33.8330	0	26.750	0	259.998	0	87.7	4	28.3	4	-1E+10	1	-1E+10	1	-1E+10	1	-1E+10	1	-1E+10	1	-1E+10	1
4902551	50	C	12/27/2021	18:02	-133.330	49.482	0	263.40	0	5.0230	0	33.8320	0	26.749	0	260.988	0	87.1	4	28.1	4	-1E+10	1	-1E+10	1	-1E+10	1	-1E+10	1	-1E+10	1	-1E+10	1
4902551	50	C	12/27/2021	18:02	-133.330	49.482	0	264.50	0	5.0190	0	33.8330	0	26.750	0	262.077	0	86.6	4	27.9	4	-1E+10	1	-1E+10	1	-1E+10	1	-1E+10	1	-1E+10	1	-1E+10	1
4902551	50	C	12/27/2021	18:02	-133.330	49.482	0	265.50	0	5.0120	0	33.8350	0	26.753	0	263.067	0	86.1	4	27.8	4	-1E+10	1	-1E+10	1	-1E+10	1	-1E+10	1	-1E+10	1	-1E+10	1
4902551	50	C	12/27/2021	18:02	-133.330	49.482	0	266.50	0	4.9930	0	33.8370	0	26.756	0	264.057	0	85.6	4	27.6	4	-1E+10	1	-1E+10	1	-1E+10	1	-1E+10	1	-1E+10	1	-1E+10	1
4902551	50	C	12/27/2021	18:02	-133.330	49.482	0	267.50	0	4.9900	0	33.8360	0	26.756	0	265.048	0	84.9	4	27.4	4	-1E+10	1	-1E+10	1	-1E+10	1	-1E+10	1	-1E+10	1	-1E+10	1
4902551	50	C	12/27/2021	18:02	-133.330	49.482	0	268.60	0	4.9820	0	33.8380	0	26.759	0	266.137	0	84.4	4	27.2	4	-1E+10	1	-1E+10	1	-1E+10	1	-1E+10	1	-1E+10	1	-1E+10	1
4902551	50	C	12/27/2021	18:02	-133.330	49.482	0	269.60	0	4.9710	0	33.8420	0	26.763	0	267.127	0	84.0	4	27.1	4	-1E+10	1	-1E+10	1	-1E+10	1	-1E+10	1	-1E+10	1	-1E+10	1
4902551	50	C	12/27/2021	18:02	-133.330	49.482	0	270.60	0	4.9630	0	33.8450	0	26.766	0	268.117	0	83.6	4	27.0	4	-1E+10	1	-1E+10	1	-1E+10	1	-1E+10	1	-1E+10	1	-1E+10	1
4902551	50	C	12/27/2021	18:02	-133.330	49.482	0	271.70	0	4.9580	0	33.8440	0	26.766	0	269.206	0	83.2	4	26.8	4	-1E+10	1	-1E+10	1	-1E+10	1	-1E+10	1	-1E+10	1	-1E+10	1
4902551	50	C	12/27/2021	18:02	-133.330	49.482	0	272.70	0	4.9590	0	33.8440	0	26.766	0	270.197	0	82.8	4	26.7	4	-1E+10	1	-1E+10	1	-1E+10	1	-1E+10	1	-1E+10	1	-1E+10	1
4902551	50	C	12/27/2021	18:02	-133.330	49.482	0	273.70	0	4.9560	0	33.8460	0	26.768	0	271.187	0	82.4	4	26.5	4	-1E+10	1	-1E+10	1	-1E+10	1	-1E+10	1	-1E+10	1	-1E+10	1
4902551	50	C	12/27/2021	18:02	-133.330	49.482	0	274.70	0	4.9540	0	33.8470	0	26.769	0	272.177	0	82.0	4	26.4	4	-1E+10	1	-1E+10	1	-1E+10	1	-1E+10	1	-1E+10	1	-1E+10	1
4902551	50	C	12/27/2021	18:02	-133.330	49.482	0	275.80	0	4.9530	0	33.8470	0	26.769	0	273.266	0	81.5	4	26.3	4	-1E+10	1	-1E+10	1	-1E+10	1	-1E+10	1	-1E+10	1	-1E+10	1
4902551	50	C	12/27/2021	18:02	-133.330	49.482	0	276.80	0	4.9520	0	33.8470	0	26.769	0	274.256	0	81.1	4	26.1	4	-1E+10	1	-1E+10	1	-1E+10	1	-1E+10	1	-1E+10	1	-1E+10	1
4902551	50	C	12/27/2021	18:02	-133.330	49.482	0	277.80	0	4.9420	0	33.8510	0	26.773	0	275.246	0	80.6	4	26.0	4	-1E+10	1	-1E+10	1	-1E+10	1	-1E+10	1	-1E+10	1	-1E+10	1
4902551	50	C	12/27/2021	18:02	-133.330	49.482	0	278.80	0	4.9270	0	33.8490	0	26.774	0	276.237	0	80.1	4	25.8	4	-1E+10	1	-1E+10	1	-1E+10	1	-1E+10	1	-1E+10	1	-1E+10	1
4902551	50	C	12/27/2021	18:02	-133.330	49.482	0	279.80	0	4.9200	0	33.8520	0	26.777	0	277.227	0	79.7	4	25.7	4	-1E+10	1	-1E+10	1	-1E+10	1	-1E+10	1	-1E+10	1	-1E+10	1
4902551	50	C	12/27/2021	18:02	-133.330	49.482	0	280.90	0	4.9170	0	33.8520	0	26.777	0	278.316	0	79.3	4	25.5	4	-1E+10	1	-1E+10	1	-1E+10	1	-1E+10	1	-1E+10	1	-1E+10	1
4902551	50	C	12/27/2021	18:02	-133.330	49.482	0	281.90	0	4.9160	0	33.8520	0	26.777	0	279.306	0	78.8	4	25.4	4	-1E+10	1	-1E+10	1	-1E+10	1	-1E+10	1	-1E+10	1	-1E+10	1
4902551	50	C	12/27/2021	18:02	-133.330	49.482	0	282.90	0	4.9150	0	33.8520	0	26.777	0	280.296	0	78.3	4	25.2	4	-1E+10	1	-1E+10	1	-1E+10	1	-1E+10	1	-1E+10	1	-1E+10	1
4902551	50	C	12/27/2021	18:02	-133.330	49.482	0	283.90	0	4.9100	0	33.8540	0	26.779	0	281.286	0	77.8	4	25.0	4	-1E+10	1	-1E+10	1	-1E+10	1	-1E+10	1	-1E+10	1	-1E+10	1
4902551	50	C	12/27/2021	18:02	-133.330	49.482	0	285.00	0	4.9060	0	33.8540	0	26.780	0	282.375	0	77.2	4	24.8	4	-1E+10	1	-1E+10	1	-1E+10	1	-1E+10	1	-1E+10	1	-1E+10	1
4902551	50	C	12/27/2021	18:02	-133.330	49.482	0	286.00	0	4.8900	0	33.8580	0	26.785	0	283.365	0	76.6	4	24.7	4	-1E+10	1	-1E+10	1	-1E+10	1	-1E+10	1	-1E+10	1	-1E+10	1
4902551	50	C	12/27/2021	18:02	-133.330	49.482	0	287.00	0	4.8760	0	33.8590	0	26.787	0	284.356	0	76.2	4	24.5	4	-1E+10	1	-1E+10	1	-1E+10	1	-1E+10	1	-1E+10	1	-1E+10	1
4902551	50	C	12/27/2021	18:02	-133.330	49.482	0	288.00	0	4.8690	0	33.8590	0	26.788	0	285.346	0	75.7	4	24.3	4	-1E+10	1	-1E+10	1	-1E+10	1	-1E+10	1	-1E+10	1	-1E+10	1
4902551	50	C	12/27/2021	18:02	-133.330	49.482	0	289.10	0	4.8670	0	33.8580	0	26.787	0	286.435	0	75.0	4	24.1	4	-1E+10	1	-1E+10	1	-1E+10	1	-1E+10	1	-1E+10	1	-1E+10	1
4902551	50	C	12/27/2021	18:02	-133.330	49.482	0	290.10	0	4.8530	0	33.8600	0	26.791	0	287.425	0	74.4	4	23.9	4	-1E+10	1	-1E+10	1	-1E+10	1	-1E+10	1	-1E+10	1	-1E+10	1
4902551	50	C	12/27/2021	18:02	-133.330	49.482	0	291.00	0	4.8430	0	33.8610	0	26.793	0	288.316	0	73.8	4	23.7	4	-1E+10	1	-1E+10	1	-1E+10	1	-1E+10	1	-1E+10	1	-1E+10	1
4902551	50	C	12/27/2021	18:02	-133.330	49.482	0	292.00	0	4.8370	0	33.8620	0	26.794	0	289.306	0	73.2	4	23.5	4	-1E+10	1	-1E+10	1	-1E+10	1	-1E+10	1	-1E+10	1	-1E+10	1
4902551	50	C	12/27/2021	18:02	-133.330	49.482	0	293.00	0	4.8330	0	33.8630	0	26.795	0	290.296	0	72.6	4	23.3	4	-1E+10	1	-1E+10	1	-1E+10	1	-1E+10	1	-1E+10	1	-1E+10	1
4902551	50	C	12/27/2021	18:02	-133.330	49.482	0	294.00	0	4.8120	0	33.8690	0	26.802	0	291.286	0	72.1	4	23.2	4	-1E+10	1	-1E+10	1	-1E+10	1	-1E+10	1	-1E+10	1	-1E+10	1
4902551	50	C	12/27/2021	18:02	-133.330	49.482	0	295.00	0	4.8010	0	33.8690	0	26.804	0	292.276	0	71.7	4	23.0	4	-1E+10	1	-1E+10	1	-1E+10	1	-1E+10	1	-1E+10	1	-1E+10	1
4902551	50	C	12/27/2021	18:02	-133.330	49.482	0	296.00	0	4.7700	0	33.8750	0	26.812	0	293.266	0	71.4	4	22.9	4	-1E+10	1	-1E+10	1	-1E+10	1	-1E+10	1	-1E+10	1	-1E+10	1
4902551	50	C	12/27/2021	18:02	-133.330	49.482	0	297.00	0	4.7580	0	33.8750	0	26.813	0	294.256	0	71.1	4	22.8	4	-1E+10	1	-1E+10	1	-1E+10	1	-1E+10	1	-1E+10	1	-1E+10	1
4902551	50	C	12/27/2021	18:02	-133.330	49.482	0	298.00	0	4.7510	0	33.8760	0	26.815	0	295.246	0	70.8	4	22.7	4	-1E+10	1	-1E+10	1	-1E+10	1	-1E+10	1	-1E+10	1	-1E+10	1
4902551	50	C	12/27/2021	18:02	-133.330	49.482	0	299.10	0	4.7350	0	33.8780	0	26.818	0	296.335	0	70.5	4	22.6	4	-1E+10	1	-1E+10	1	-1E+10	1	-1E+10	1	-1E+10	1	-1E+10	1
4902551	50	C	12/27/2021	18:02	-133.330	49.482	0	300.10	0	4.7310	0	33.8790	0	26.819	0	297.325	0	70.2	4	22.5	4	-1E+10	1	-1E+10	1	-1E+10	1	-1E+10	1	-1E+10	1	-1E+10	1
4902551	50	C	12/27/2021	18:02	-133.330	49.482	0	301.10	0	4.7230	0	33.8800	0	26.821	0	298.315	0	69.9	4	22.4	4	-1E+10	1	-1E+10	1	-1E+10	1	-1E+10	1	-1E+10	1	-1E+10	1
4902551	50	C	12/27/2021	18:02	-133.330	49.482	0	302.10	0	4.7200	0	33.8800	0	26.821	0	299.305	0	69.5	4	22.3	4	-1E+10	1	-1E+10	1	-1E+10	1	-1E+10	1	-1E+10	1	-1E+10	1
4902551	50	C	12/27/2021	18:02	-133.330	49.482	0	303.20	0	4.7160	0	33.8810	0	26.823	0	300.395	0	69.2	4	22.2	4	-1E+10	1	-1E+10	1	-1E+10	1	-1E+10	1	-1E+10	1	-1E+10	1
4902551	50	C	12/27/2021	18:02	-133.330	49.482	0	304.20	0	4.7130	0	33.8810	0	26.823	0	301.385	0	68.7	4	22.0	4	-1E+10	1	-1E+10	1	-1E+10	1	-1E+10	1	-1E+10	1	-1E+10	1
4902551	50	C	12/27/2021	18:02	-133.330	49.482	0	305.30	0	4.7110	0	33.8810	0	26.823	0	302.474	0	68.3	4	21.9	4	-1E+10	1	-1E+10	1	-1E+10	1	-1E+10	1	-1E+10	1	-1E+10	1
4902551	50	C	12/27/2021	18:02	-133.330	49.482	0	306.30	0	4.6990	0	33.8830	0	26.826	0	303.464	0	67.8	4	21.7	4	-1E+10	1	-1E+10	1	-1E+10	1	-1E+10	1	-1E+10	1	-1E+10	1
4902551	50	C	12/27/2021	18:02	-133.330	49.482	0	307.40	0	4.6760	0	33.8880	0	26.833	0	304.553	0	67.5	4	21.6	4	-1E+10	1	-1E+10	1	-1E+10	1	-1E+10	1	-1E+10	1	-1E+10	1
4902551	50	C	12/27/2021	18:02	-133.330	49.482	0	308.40	0	4.6730	0	33.8890	0	26.834	0	305.543	0	67.2	4	21.5	4	-1E+10	1	-1E+10	1	-1E+10	1	-1E+10	1	-1E+10	1	-1E+10	1
4902551	50	C	12/27/2021	18:02	-133.330	49.482	0	309.40	0	4.6640	0	33.8920	0	26.837	0	306.533	0	66.9	4	21.4	4	-1E+10	1	-1E+10	1	-1E+10	1	-1E+10	1	-1E+10	1	-1E+10	1
4902551	50	C	12/27/2021	18:02	-133.330	49.482	0	310.40	0	4.6610	0	33.8920	0	26.837	0	307.523	0	66.7	4	21.3	4	-1E+10	1	-1E+10	1	-1E+10	1	-1E+10	1	-1E+10	1	-1E+10	1
4902551	50	C	12/27/2021	18:02	-133.330	49.482	0	311.40	0	4.6610	0	33.8920	0	26.837	0	308.513	0	66.4	4	21.3	4	-1E+10	1	-1E+10	1	-1E+10	1	-1E+10	1	-1E+10	1	-1E+10	1
4902551	50	C	12/27/2021	18:02	-133.330	49.482	0	312.90	0	4.6540	0	33.8940	0	26.840	0	309.997	0	66.0	4	21.1	4	-1E+10	1	-1E+10	1	-1E+10	1	-1E+10	1	-1E+10	1	-1E+10	1
4902551	50	C	12/27/2021	18:02	-133.330	49.482	0	314.10	0	4.6530	0	33.8930	0	26.839	0	311.185	0	65.6	4	21.0	4	-1E+10	1	-1E+10	1	-1E+10	1	-1E+10	1	-1E+10	1	-1E+10	1
4902551	50	C	12/27/2021	18:02	-133.330	49.482	0	315.00	0	4.6520	0	33.8930	0	26.839	0	312.076	0	65.4	4	20.9	4	-1E+10	1	-1E+10	1	-1E+10	1	-1E+10	1	-1E+10	1	-1E+10	1
4902551	50	C	12/27/2021	18:02	-133.330	49.482	0	315.70	0	4.6450	0	33.8960	0	26.842	0	312.769	0	65.1	4	20.8	4	-1E+10	1	-1E+10	1	-1E+10	1	-1E+10	1	-1E+10	1	-1E+10	1
4902551	50	C	12/27/2021	18:02	-133.330	49.482	0	316.90	0	4.6360	0	33.8970	0	26.844	0	313.957	0	64.7	4	20.7	4	-1E+10	1	-1E+10	1	-1E+10	1	-1E+10	1	-1E+10	1	-1E+10	1
4902551	50	C	12/27/2021	18:02	-133.330	49.482	0	318.20	0	4.6300	0	33.8980	0	26.846	0	315.244	0	64.3	4	20.6	4	-1E+10	1	-1E+10	1	-1E+10	1	-1E+10	1	-1E+10	1	-1E+10	1
4902551	50	C	12/27/2021	18:02	-133.330	49.482	0	319.00	0	4.6250	0	33.8990	0	26.847	0	316.036	0	64.1	4	20.5	4	-1E+10	1	-1E+10	1	-1E+10	1	-1E+10	1	-1E+10	1	-1E+10	1
4902551	50	C	12/27/2021	18:02	-133.330	49.482	0	319.80	0	4.6220	0	33.9000	0	26.848	0	316.828	0	63.8	4	20.4	4	-1E+10	1	-1E+10	1	-1E+10	1	-1E+10	1	-1E+10	1	-1E+10	1
4902551	50	C	12/27/2021	18:02	-133.330	49.482	0	321.00	0	4.6170	0	33.9000	0	26.849	0	318.016	0	63.4	4	20.3	4	-1E+10	1	-1E+10	1	-1E+10	1	-1E+10	1	-1E+10	1	-1E+10	1
4902551	50	C	12/27/2021	18:02	-133.330	49.482	0	322.30	0	4.6140	0	33.9000	0	26.849	0	319.303	0	62.9	4	20.1	4	-1E+10	1	-1E+10	1	-1E+10	1	-1E+10	1	-1E+10	1	-1E+10	1
4902551	50	C	12/27/2021	18:02	-133.330	49.482	0	323.10	0	4.6070	0	33.9030	0	26.852	0	320.095	0	62.6	4	20.0	4	-1E+10	1	-1E+10	1	-1E+10	1	-1E+10	1	-1E+10	1	-1E+10	1
4902551	50	C	12/27/2021	18:02	-133.330	49.482	0	323.90	0	4.6010	0	33.9030	0	26.853	0	320.887	0	62.2	4	19.9	4	-1E+10	1	-1E+10	1	-1E+10	1	-1E+10	1	-1E+10	1	-1E+10	1
4902551	50	C	12/27/2021	18:02	-133.330	49.482	0	324.80	0	4.5970	0	33.9040	0	26.854	0	321.778	0	61.8	4	19.8	4	-1E+10	1	-1E+10	1	-1E+10	1	-1E+10	1	-1E+10	1	-1E+10	1
4902551	50	C	12/27/2021	18:02	-133.330	49.482	0	326.00	0	4.5880	0	33.9070	0	26.857	0	322.966	0	61.2	4	19.6	4	-1E+10	1	-1E+10	1	-1E+10	1	-1E+10	1	-1E+10	1	-1E+10	1
4902551	50	C	12/27/2021	18:02	-133.330	49.482	0	327.30	0	4.5780	0	33.9090	0	26.860	0	324.253	0	60.8	4	19.4	4	-1E+10	1	-1E+10	1	-1E+10	1	-1E+10	1	-1E+10	1	-1E+10	1
4902551	50	C	12/27/2021	18:02	-133.330	49.482	0	328.10	0	4.5840	0	33.9090	0	26.859	0	325.045	0	60.6	4	19.4	4	-1E+10	1	-1E+10	1	-1E+10	1	-1E+10	1	-1E+10	1	-1E+10	1
4902551	50	C	12/27/2021	18:02	-133.330	49.482	0	329.00	0	4.5740	0	33.9130	0	26.864	0	325.935	0	60.4	4	19.3	4	-1E+10	1	-1E+10	1	-1E+10	1	-1E+10	1	-1E+10	1	-1E+10	1
4902551	50	C	12/27/2021	18:02	-133.330	49.482	0	329.80	0	4.5690	0	33.9160	0	26.867	0	326.727	0	60.3	4	19.3	4	-1E+10	1	-1E+10	1	-1E+10	1	-1E+10	1	-1E+10	1	-1E+10	1
4902551	50	C	12/27/2021	18:02	-133.330	49.482	0	330.60	0	4.5620	0	33.9160	0	26.867	0	327.519	0	60.1	4	19.2	4	-1E+10	1	-1E+10	1	-1E+10	1	-1E+10	1	-1E+10	1	-1E+10	1
4902551	50	C	12/27/2021	18:02	-133.330	49.482	0	331.90	0	4.5620	0	33.9150	0	26.867	0	328.806	0	59.8	4	19.1	4	-1E+10	1	-1E+10	1	-1E+10	1	-1E+10	1	-1E+10	1	-1E+10	1
4902551	50	C	12/27/2021	18:02	-133.330	49.482	0	333.20	0	4.5620	0	33.9160	0	26.867	0	330.093	0	59.5	4	19.0	4	-1E+10	1	-1E+10	1	-1E+10	1	-1E+10	1	-1E+10	1	-1E+10	1
4902551	50	C	12/27/2021	18:02	-133.330	49.482	0	334.10	0	4.5470	0	33.9170	0	26.870	0	330.984	0	59.2	4	18.9	4	-1E+10	1	-1E+10	1	-1E+10	1	-1E+10	1	-1E+10	1	-1E+10	1
4902551	50	C	12/27/2021	18:02	-133.330	49.482	0	334.90	0	4.5410	0	33.9190	0	26.872	0	331.776	0	58.8	4	18.8	4	-1E+10	1	-1E+10	1	-1E+10	1	-1E+10	1	-1E+10	1	-1E+10	1
4902551	50	C	12/27/2021	18:02	-133.330	49.482	0	335.80	0	4.5280	0	33.9220	0	26.876	0	332.667	0	58.5	4	18.7	4	-1E+10	1	-1E+10	1	-1E+10	1	-1E+10	1	-1E+10	1	-1E+10	1
4902551	50	C	12/27/2021	18:02	-133.330	49.482	0	336.60	0	4.5240	0	33.9220	0	26.876	0	333.459	0	58.2	4	18.6	4	-1E+10	1	-1E+10	1	-1E+10	1	-1E+10	1	-1E+10	1	-1E+10	1
4902551	50	C	12/27/2021	18:02	-133.330	49.482	0	337.90	0	4.5100	0	33.9280	0	26.883	0	334.745	0	57.9	4	18.5	4	-1E+10	1	-1E+10	1	-1E+10	1	-1E+10	1	-1E+10	1	-1E+10	1
4902551	50	C	12/27/2021	18:02	-133.330	49.482	0	339.20	0	4.4950	0	33.9330	0	26.888	0	336.032	0	57.6	4	18.4	4	-1E+10	1	-1E+10	1	-1E+10	1	-1E+10	1	-1E+10	1	-1E+10	1
4902551	50	C	12/27/2021	18:02	-133.330	49.482	0	340.10	0	4.4940	0	33.9330	0	26.888	0	336.923	0	57.5	4	18.3	4	-1E+10	1	-1E+10	1	-1E+10	1	-1E+10	1	-1E+10	1	-1E+10	1
4902551	50	C	12/27/2021	18:02	-133.330	49.482	0	341.00	0	4.4930	0	33.9330	0	26.888	0	337.814	0	57.4	4	18.3	4	-1E+10	1	-1E+10	1	-1E+10	1	-1E+10	1	-1E+10	1	-1E+10	1
4902551	50	C	12/27/2021	18:02	-133.330	49.482	0	341.90	0	4.4930	0	33.9340	0	26.889	0	338.705	0	57.2	4	18.2	4	-1E+10	1	-1E+10	1	-1E+10	1	-1E+10	1	-1E+10	1	-1E+10	1
4902551	50	C	12/27/2021	18:02	-133.330	49.482	0	342.70	0	4.4930	0	33.9330	0	26.888	0	339.497	0	57.0	4	18.2	4	-1E+10	1	-1E+10	1	-1E+10	1	-1E+10	1	-1E+10	1	-1E+10	1
4902551	50	C	12/27/2021	18:02	-133.330	49.482	0	343.60	0	4.4930	0	33.9340	0	26.889	0	340.387	0	56.8	4	18.1	4	-1E+10	1	-1E+10	1	-1E+10	1	-1E+10	1	-1E+10	1	-1E+10	1
4902551	50	C	12/27/2021	18:02	-133.330	49.482	0	344.90	0	4.4930	0	33.9340	0	26.889	0	341.674	0	56.5	4	18.0	4	-1E+10	1	-1E+10	1	-1E+10	1	-1E+10	1	-1E+10	1	-1E+10	1
4902551	50	C	12/27/2021	18:02	-133.330	49.482	0	346.30	0	4.4910	0	33.9350	0	26.890	0	343.060	0	56.2	4	17.9	4	-1E+10	1	-1E+10	1	-1E+10	1	-1E+10	1	-1E+10	1	-1E+10	1
4902551	50	C	12/27/2021	18:02	-133.330	49.482	0	347.20	0	4.4910	0	33.9350	0	26.890	0	343.951	0	56.0	4	17.8	4	-1E+10	1	-1E+10	1	-1E+10	1	-1E+10	1	-1E+10	1	-1E+10	1
4902551	50	C	12/27/2021	18:02	-133.330	49.482	0	348.10	0	4.4880	0	33.9380	0	26.893	0	344.842	0	55.9	4	17.8	4	-1E+10	1	-1E+10	1	-1E+10	1	-1E+10	1	-1E+10	1	-1E+10	1
4902551	50	C	12/27/2021	18:02	-133.330	49.482	0	349.00	0	4.4790	0	33.9410	0	26.896	0	345.733	0	55.7	4	17.8	4	-1E+10	1	-1E+10	1	-1E+10	1	-1E+10	1	-1E+10	1	-1E+10	1
4902551	50	C	12/27/2021	18:02	-133.330	49.482	0	349.90	0	4.4780	0	33.9410	0	26.896	0	346.623	0	55.7	4	17.8	4	-1E+10	1	-1E+10	1	-1E+10	1	-1E+10	1	-1E+10	1	-1E+10	1
4902551	50	C	12/27/2021	18:02	-133.330	49.482	0	353.00	0	4.4730	0	33.9430	0	26.899	0	349.692	0	55.6	4	17.7	4	-1E+10	1	-1E+10	1	-1E+10	1	-1E+10	1	-1E+10	1	-1E+10	1
4902551	50	C	12/27/2021	18:02	-133.330	49.482	0	358.10	0	4.4520	0	33.9460	0	26.903	0	354.740	0	55.0	4	17.5	4	-1E+10	1	-1E+10	1	-1E+10	1	-1E+10	1	-1E+10	1	-1E+10	1
4902551	50	C	12/27/2021	18:02	-133.330	49.482	0	362.70	0	4.4490	0	33.9490	0	26.906	0	359.292	0	54.3	4	17.3	4	-1E+10	1	-1E+10	1	-1E+10	1	-1E+10	1	-1E+10	1	-1E+10	1
4902551	50	C	12/27/2021	18:02	-133.330	49.482	0	367.70	0	4.4280	0	33.9540	0	26.912	0	364.241	0	53.3	4	17.0	4	-1E+10	1	-1E+10	1	-1E+10	1	-1E+10	1	-1E+10	1	-1E+10	1
4902551	50	C	12/27/2021	18:02	-133.330	49.482	0	372.80	0	4.4190	0	33.9590	0	26.917	0	369.288	0	51.8	4	16.5	4	-1E+10	1	-1E+10	1	-1E+10	1	-1E+10	1	-1E+10	1	-1E+10	1
4902551	50	C	12/27/2021	18:02	-133.330	49.482	0	378.00	0	4.4100	0	33.9650	0	26.923	0	374.435	0	50.5	4	16.1	4	-1E+10	1	-1E+10	1	-1E+10	1	-1E+10	1	-1E+10	1	-1E+10	1
4902551	50	C	12/27/2021	18:02	-133.330	49.482	0	383.10	0	4.4060	0	33.9700	0	26.927	0	379.482	0	49.1	4	15.6	4	-1E+10	1	-1E+10	1	-1E+10	1	-1E+10	1	-1E+10	1	-1E+10	1
4902551	50	C	12/27/2021	18:02	-133.330	49.482	0	387.90	0	4.3910	0	33.9750	0	26.933	0	384.232	0	48.0	4	15.3	4	-1E+10	1	-1E+10	1	-1E+10	1	-1E+10	1	-1E+10	1	-1E+10	1
4902551	50	C	12/27/2021	18:02	-133.330	49.482	0	392.60	0	4.3800	0	33.9790	0	26.937	0	388.883	0	46.3	4	14.7	4	-1E+10	1	-1E+10	1	-1E+10	1	-1E+10	1	-1E+10	1	-1E+10	1
4902551	50	C	12/27/2021	18:02	-133.330	49.482	0	397.80	0	4.3830	0	33.9850	0	26.942	0	394.029	0	44.5	4	14.2	4	-1E+10	1	-1E+10	1	-1E+10	1	-1E+10	1	-1E+10	1	-1E+10	1
4902551	50	C	12/27/2021	18:02	-133.330	49.482	0	403.00	0	4.3770	0	33.9900	0	26.947	0	399.175	0	43.9	4	14.0	4	-1E+10	1	-1E+10	1	-1E+10	1	-1E+10	1	-1E+10	1	-1E+10	1
4902551	50	C	12/27/2021	18:02	-133.330	49.482	0	407.80	0	4.3530	0	33.9960	0	26.954	0	403.925	0	44.2	4	14.0	4	-1E+10	1	-1E+10	1	-1E+10	1	-1E+10	1	-1E+10	1	-1E+10	1
4902551	50	C	12/27/2021	18:02	-133.330	49.482	0	413.00	0	4.3260	0	34.0020	0	26.962	0	409.070	0	44.0	4	14.0	4	-1E+10	1	-1E+10	1	-1E+10	1	-1E+10	1	-1E+10	1	-1E+10	1
4902551	50	C	12/27/2021	18:02	-133.330	49.482	0	418.20	0	4.3160	0	34.0050	0	26.965	0	414.216	0	43.3	4	13.8	4	-1E+10	1	-1E+10	1	-1E+10	1	-1E+10	1	-1E+10	1	-1E+10	1
4902551	50	C	12/27/2021	18:02	-133.330	49.482	0	423.00	0	4.3070	0	34.0080	0	26.968	0	418.965	0	42.5	4	13.5	4	-1E+10	1	-1E+10	1	-1E+10	1	-1E+10	1	-1E+10	1	-1E+10	1
4902551	50	C	12/27/2021	18:02	-133.330	49.482	0	427.70	0	4.2970	0	34.0130	0	26.973	0	423.615	0	41.4	4	13.1	4	-1E+10	1	-1E+10	1	-1E+10	1	-1E+10	1	-1E+10	1	-1E+10	1
4902551	50	C	12/27/2021	18:02	-133.330	49.482	0	432.80	0	4.2850	0	34.0190	0	26.980	0	428.661	0	40.1	4	12.7	4	-1E+10	1	-1E+10	1	-1E+10	1	-1E+10	1	-1E+10	1	-1E+10	1
4902551	50	C	12/27/2021	18:02	-133.330	49.482	0	438.00	0	4.2710	0	34.0250	0	26.986	0	433.806	0	38.8	4	12.3	4	-1E+10	1	-1E+10	1	-1E+10	1	-1E+10	1	-1E+10	1	-1E+10	1
4902551	50	C	12/27/2021	18:02	-133.330	49.482	0	442.80	0	4.2680	0	34.0310	0	26.991	0	438.555	0	38.5	4	12.2	4	-1E+10	1	-1E+10	1	-1E+10	1	-1E+10	1	-1E+10	1	-1E+10	1
4902551	50	C	12/27/2021	18:02	-133.330	49.482	0	447.70	0	4.2550	0	34.0340	0	26.995	0	443.403	0	38.8	4	12.3	4	-1E+10	1	-1E+10	1	-1E+10	1	-1E+10	1	-1E+10	1	-1E+10	1
4902551	50	C	12/27/2021	18:02	-133.330	49.482	0	452.60	0	4.2370	0	34.0380	0	27.000	0	448.251	0	38.4	4	12.2	4	-1E+10	1	-1E+10	1	-1E+10	1	-1E+10	1	-1E+10	1	-1E+10	1
4902551	50	C	12/27/2021	18:02	-133.330	49.482	0	457.60	0	4.2250	0	34.0410	0	27.004	0	453.197	0	37.6	4	11.9	4	-1E+10	1	-1E+10	1	-1E+10	1	-1E+10	1	-1E+10	1	-1E+10	1
4902551	50	C	12/27/2021	18:02	-133.330	49.482	0	462.70	0	4.2080	0	34.0480	0	27.011	0	458.242	0	36.9	4	11.7	4	-1E+10	1	-1E+10	1	-1E+10	1	-1E+10	1	-1E+10	1	-1E+10	1
4902551	50	C	12/27/2021	18:02	-133.330	49.482	0	467.70	0	4.1880	0	34.0540	0	27.018	0	463.189	0	36.2	4	11.5	4	-1E+10	1	-1E+10	1	-1E+10	1	-1E+10	1	-1E+10	1	-1E+10	1
4902551	50	C	12/27/2021	18:02	-133.330	49.482	0	472.70	0	4.1720	0	34.0590	0	27.023	0	468.135	0	35.5	4	11.2	4	-1E+10	1	-1E+10	1	-1E+10	1	-1E+10	1	-1E+10	1	-1E+10	1
4902551	50	C	12/27/2021	18:02	-133.330	49.482	0	477.70	0	4.1600	0	34.0640	0	27.029	0	473.081	0	34.7	4	11.0	4	-1E+10	1	-1E+10	1	-1E+10	1	-1E+10	1	-1E+10	1	-1E+10	1
4902551	50	C	12/27/2021	18:02	-133.330	49.482	0	482.80	0	4.1480	0	34.0690	0	27.034	0	478.126	0	33.5	4	10.6	4	-1E+10	1	-1E+10	1	-1E+10	1	-1E+10	1	-1E+10	1	-1E+10	1
4902551	50	C	12/27/2021	18:02	-133.330	49.482	0	487.80	0	4.1300	0	34.0760	0	27.041	0	483.071	0	32.1	4	10.2	4	-1E+10	1	-1E+10	1	-1E+10	1	-1E+10	1	-1E+10	1	-1E+10	1
4902551	50	C	12/27/2021	18:02	-133.330	49.482	0	492.90	0	4.1150	0	34.0820	0	27.048	0	488.116	0	30.7	4	9.7	4	-1E+10	1	-1E+10	1	-1E+10	1	-1E+10	1	-1E+10	1	-1E+10	1
4902551	50	C	12/27/2021	18:02	-133.330	49.482	0	498.10	0	4.0980	0	34.0910	0	27.057	0	493.259	0	29.7	4	9.4	4	-1E+10	1	-1E+10	1	-1E+10	1	-1E+10	1	-1E+10	1	-1E+10	1
4902551	50	C	12/27/2021	18:02	-133.330	49.482	0	503.20	0	4.0880	0	34.0960	0	27.062	0	498.304	0	29.1	4	9.2	4	-1E+10	1	-1E+10	1	-1E+10	1	-1E+10	1	-1E+10	1	-1E+10	1
4902551	50	C	12/27/2021	18:02	-133.330	49.482	0	508.10	0	4.0790	0	34.0990	0	27.065	0	503.150	0	28.7	4	9.1	4	-1E+10	1	-1E+10	1	-1E+10	1	-1E+10	1	-1E+10	1	-1E+10	1
4902551	50	C	12/27/2021	18:02	-133.330	49.482	0	512.90	0	4.0690	0	34.1030	0	27.069	0	507.898	0	28.5	4	9.0	4	-1E+10	1	-1E+10	1	-1E+10	1	-1E+10	1	-1E+10	1	-1E+10	1
4902551	50	C	12/27/2021	18:02	-133.330	49.482	0	517.90	0	4.0650	0	34.1040	0	27.071	0	512.843	0	28.2	4	8.9	4	-1E+10	1	-1E+10	1	-1E+10	1	-1E+10	1	-1E+10	1	-1E+10	1
4902551	50	C	12/27/2021	18:02	-133.330	49.482	0	522.80	0	4.0610	0	34.1050	0	27.072	0	517.689	0	27.9	4	8.8	4	-1E+10	1	-1E+10	1	-1E+10	1	-1E+10	1	-1E+10	1	-1E+10	1
4902551	50	C	12/27/2021	18:02	-133.330	49.482	0	527.80	0	4.0550	0	34.1080	0	27.075	0	522.633	0	27.6	4	8.7	4	-1E+10	1	-1E+10	1	-1E+10	1	-1E+10	1	-1E+10	1	-1E+10	1
4902551	50	C	12/27/2021	18:02	-133.330	49.482	0	532.80	0	4.0470	0	34.1110	0	27.078	0	527.578	0	27.3	4	8.6	4	-1E+10	1	-1E+10	1	-1E+10	1	-1E+10	1	-1E+10	1	-1E+10	1
4902551	50	C	12/27/2021	18:02	-133.330	49.482	0	537.90	0	4.0300	0	34.1160	0	27.084	0	532.622	0	27.0	4	8.5	4	-1E+10	1	-1E+10	1	-1E+10	1	-1E+10	1	-1E+10	1	-1E+10	1
4902551	50	C	12/27/2021	18:02	-133.330	49.482	0	543.00	0	4.0160	0	34.1190	0	27.088	0	537.665	0	26.3	4	8.3	4	-1E+10	1	-1E+10	1	-1E+10	1	-1E+10	1	-1E+10	1	-1E+10	1
4902551	50	C	12/27/2021	18:02	-133.330	49.482	0	548.20	0	4.0010	0	34.1250	0	27.094	0	542.807	0	25.3	4	8.0	4	-1E+10	1	-1E+10	1	-1E+10	1	-1E+10	1	-1E+10	1	-1E+10	1
4902551	50	C	12/27/2021	18:02	-133.330	49.482	0	553.00	0	3.9970	0	34.1280	0	27.097	0	547.554	0	24.7	4	7.8	4	-1E+10	1	-1E+10	1	-1E+10	1	-1E+10	1	-1E+10	1	-1E+10	1
4902551	50	C	12/27/2021	18:02	-133.330	49.482	0	557.90	0	3.9850	0	34.1320	0	27.101	0	552.399	0	24.1	4	7.6	4	-1E+10	1	-1E+10	1	-1E+10	1	-1E+10	1	-1E+10	1	-1E+10	1
4902551	50	C	12/27/2021	18:02	-133.330	49.482	0	562.70	0	3.9780	0	34.1350	0	27.105	0	557.145	0	23.3	4	7.4	4	-1E+10	1	-1E+10	1	-1E+10	1	-1E+10	1	-1E+10	1	-1E+10	1
4902551	50	C	12/27/2021	18:02	-133.330	49.482	0	568.00	0	3.9580	0	34.1420	0	27.112	0	562.386	0	22.6	4	7.1	4	-1E+10	1	-1E+10	1	-1E+10	1	-1E+10	1	-1E+10	1	-1E+10	1
4902551	50	C	12/27/2021	18:02	-133.330	49.482	0	573.30	0	3.9430	0	34.1480	0	27.118	0	567.626	0	21.9	4	6.9	4	-1E+10	1	-1E+10	1	-1E+10	1	-1E+10	1	-1E+10	1	-1E+10	1
4902551	50	C	12/27/2021	18:02	-133.330	49.482	0	578.20	0	3.9380	0	34.1500	0	27.121	0	572.471	0	21.2	4	6.7	4	-1E+10	1	-1E+10	1	-1E+10	1	-1E+10	1	-1E+10	1	-1E+10	1
4902551	50	C	12/27/2021	18:02	-133.330	49.482	0	583.00	0	3.9280	0	34.1560	0	27.126	0	577.217	0	20.5	4	6.5	4	-1E+10	1	-1E+10	1	-1E+10	1	-1E+10	1	-1E+10	1	-1E+10	1
4902551	50	C	12/27/2021	18:02	-133.330	49.482	0	587.80	0	3.9190	0	34.1600	0	27.131	0	581.962	0	20.2	4	6.4	4	-1E+10	1	-1E+10	1	-1E+10	1	-1E+10	1	-1E+10	1	-1E+10	1
4902551	50	C	12/27/2021	18:02	-133.330	49.482	0	592.60	0	3.9050	0	34.1640	0	27.135	0	586.708	0	20.0	4	6.3	4	-1E+10	1	-1E+10	1	-1E+10	1	-1E+10	1	-1E+10	1	-1E+10	1
4902551	50	C	12/27/2021	18:02	-133.330	49.482	0	597.50	0	3.8930	0	34.1680	0	27.140	0	591.552	0	19.8	4	6.2	4	-1E+10	1	-1E+10	1	-1E+10	1	-1E+10	1	-1E+10	1	-1E+10	1
4902551	50	C	12/27/2021	18:02	-133.330	49.482	0	602.90	0	3.8710	0	34.1730	0	27.146	0	596.891	0	19.6	4	6.2	4	-1E+10	1	-1E+10	1	-1E+10	1	-1E+10	1	-1E+10	1	-1E+10	1
4902551	50	C	12/27/2021	18:02	-133.330	49.482	0	608.30	0	3.8530	0	34.1780	0	27.152	0	602.229	0	19.5	4	6.1	4	-1E+10	1	-1E+10	1	-1E+10	1	-1E+10	1	-1E+10	1	-1E+10	1
4902551	50	C	12/27/2021	18:02	-133.330	49.482	0	613.30	0	3.8370	0	34.1810	0	27.156	0	607.172	0	19.4	4	6.1	4	-1E+10	1	-1E+10	1	-1E+10	1	-1E+10	1	-1E+10	1	-1E+10	1
4902551	50	C	12/27/2021	18:02	-133.330	49.482	0	618.30	0	3.8150	0	34.1860	0	27.162	0	612.114	0	19.3	4	6.1	4	-1E+10	1	-1E+10	1	-1E+10	1	-1E+10	1	-1E+10	1	-1E+10	1
4902551	50	C	12/27/2021	18:02	-133.330	49.482	0	623.30	0	3.8030	0	34.1890	0	27.166	0	617.057	0	19.1	4	6.0	4	-1E+10	1	-1E+10	1	-1E+10	1	-1E+10	1	-1E+10	1	-1E+10	1
4902551	50	C	12/27/2021	18:02	-133.330	49.482	0	627.90	0	3.7960	0	34.1910	0	27.168	0	621.604	0	19.0	4	6.0	4	-1E+10	1	-1E+10	1	-1E+10	1	-1E+10	1	-1E+10	1	-1E+10	1
4902551	50	C	12/27/2021	18:02	-133.330	49.482	0	632.50	0	3.7870	0	34.1930	0	27.170	0	626.151	0	19.0	4	6.0	4	-1E+10	1	-1E+10	1	-1E+10	1	-1E+10	1	-1E+10	1	-1E+10	1
4902551	50	C	12/27/2021	18:02	-133.330	49.482	0	637.90	0	3.7800	0	34.1950	0	27.173	0	631.489	0	18.9	4	5.9	4	-1E+10	1	-1E+10	1	-1E+10	1	-1E+10	1	-1E+10	1	-1E+10	1
4902551	50	C	12/27/2021	18:02	-133.330	49.482	0	643.00	0	3.7720	0	34.1970	0	27.175	0	636.530	0	18.8	4	5.9	4	-1E+10	1	-1E+10	1	-1E+10	1	-1E+10	1	-1E+10	1	-1E+10	1
4902551	50	C	12/27/2021	18:02	-133.330	49.482	0	647.80	0	3.7640	0	34.1980	0	27.177	0	641.274	0	18.7	4	5.9	4	-1E+10	1	-1E+10	1	-1E+10	1	-1E+10	1	-1E+10	1	-1E+10	1
4902551	50	C	12/27/2021	18:02	-133.330	49.482	0	652.70	0	3.7550	0	34.2010	0	27.180	0	646.117	0	18.5	4	5.8	4	-1E+10	1	-1E+10	1	-1E+10	1	-1E+10	1	-1E+10	1	-1E+10	1
4902551	50	C	12/27/2021	18:02	-133.330	49.482	0	657.60	0	3.7410	0	34.2040	0	27.184	0	650.960	0	18.3	4	5.8	4	-1E+10	1	-1E+10	1	-1E+10	1	-1E+10	1	-1E+10	1	-1E+10	1
4902551	50	C	12/27/2021	18:02	-133.330	49.482	0	662.60	0	3.7190	0	34.2090	0	27.190	0	655.902	0	18.2	4	5.7	4	-1E+10	1	-1E+10	1	-1E+10	1	-1E+10	1	-1E+10	1	-1E+10	1
4902551	50	C	12/27/2021	18:02	-133.330	49.482	0	667.60	0	3.7020	0	34.2130	0	27.195	0	660.843	0	18.1	4	5.7	4	-1E+10	1	-1E+10	1	-1E+10	1	-1E+10	1	-1E+10	1	-1E+10	1
4902551	50	C	12/27/2021	18:02	-133.330	49.482	0	672.70	0	3.6950	0	34.2150	0	27.197	0	665.883	0	17.9	4	5.6	4	-1E+10	1	-1E+10	1	-1E+10	1	-1E+10	1	-1E+10	1	-1E+10	1
4902551	50	C	12/27/2021	18:02	-133.330	49.482	0	677.90	0	3.6900	0	34.2160	0	27.199	0	671.022	0	17.8	4	5.6	4	-1E+10	1	-1E+10	1	-1E+10	1	-1E+10	1	-1E+10	1	-1E+10	1
4902551	50	C	12/27/2021	18:02	-133.330	49.482	0	683.10	0	3.6750	0	34.2200	0	27.203	0	676.161	0	17.7	4	5.5	4	-1E+10	1	-1E+10	1	-1E+10	1	-1E+10	1	-1E+10	1	-1E+10	1
4902551	50	C	12/27/2021	18:02	-133.330	49.482	0	688.10	0	3.6600	0	34.2230	0	27.207	0	681.102	0	17.6	4	5.5	4	-1E+10	1	-1E+10	1	-1E+10	1	-1E+10	1	-1E+10	1	-1E+10	1
4902551	50	C	12/27/2021	18:02	-133.330	49.482	0	693.00	0	3.6480	0	34.2250	0	27.210	0	685.944	0	17.4	4	5.5	4	-1E+10	1	-1E+10	1	-1E+10	1	-1E+10	1	-1E+10	1	-1E+10	1
4902551	50	C	12/27/2021	18:02	-133.330	49.482	0	697.90	0	3.6340	0	34.2290	0	27.215	0	690.786	0	17.2	4	5.4	4	-1E+10	1	-1E+10	1	-1E+10	1	-1E+10	1	-1E+10	1	-1E+10	1
4902551	50	C	12/27/2021	18:02	-133.330	49.482	0	702.80	0	3.6230	0	34.2310	0	27.217	0	695.628	0	17.0	4	5.3	4	-1E+10	1	-1E+10	1	-1E+10	1	-1E+10	1	-1E+10	1	-1E+10	1
4902551	50	C	12/27/2021	18:02	-133.330	49.482	0	707.80	0	3.6100	0	34.2340	0	27.221	0	700.569	0	16.8	4	5.3	4	-1E+10	1	-1E+10	1	-1E+10	1	-1E+10	1	-1E+10	1	-1E+10	1
4902551	50	C	12/27/2021	18:02	-133.330	49.482	0	712.80	0	3.5980	0	34.2380	0	27.225	0	705.509	0	16.7	4	5.2	4	-1E+10	1	-1E+10	1	-1E+10	1	-1E+10	1	-1E+10	1	-1E+10	1
4902551	50	C	12/27/2021	18:02	-133.330	49.482	0	717.90	0	3.5860	0	34.2410	0	27.229	0	710.548	0	16.5	4	5.2	4	-1E+10	1	-1E+10	1	-1E+10	1	-1E+10	1	-1E+10	1	-1E+10	1
4902551	50	C	12/27/2021	18:02	-133.330	49.482	0	722.60	0	3.5730	0	34.2450	0	27.233	0	715.192	0	16.3	4	5.1	4	-1E+10	1	-1E+10	1	-1E+10	1	-1E+10	1	-1E+10	1	-1E+10	1
4902551	50	C	12/27/2021	18:02	-133.330	49.482	0	727.90	0	3.5590	0	34.2480	0	27.237	0	720.429	0	16.2	4	5.1	4	-1E+10	1	-1E+10	1	-1E+10	1	-1E+10	1	-1E+10	1	-1E+10	1
4902551	50	C	12/27/2021	18:02	-133.330	49.482	0	733.20	0	3.5520	0	34.2500	0	27.239	0	725.665	0	16.0	4	5.0	4	-1E+10	1	-1E+10	1	-1E+10	1	-1E+10	1	-1E+10	1	-1E+10	1
4902551	50	C	12/27/2021	18:02	-133.330	49.482	0	738.10	0	3.5430	0	34.2530	0	27.243	0	730.506	0	15.9	4	5.0	4	-1E+10	1	-1E+10	1	-1E+10	1	-1E+10	1	-1E+10	1	-1E+10	1
4902551	50	C	12/27/2021	18:02	-133.330	49.482	0	743.00	0	3.5370	0	34.2540	0	27.244	0	735.347	0	15.8	4	4.9	4	-1E+10	1	-1E+10	1	-1E+10	1	-1E+10	1	-1E+10	1	-1E+10	1
4902551	50	C	12/27/2021	18:02	-133.330	49.482	0	748.00	0	3.5270	0	34.2560	0	27.247	0	740.287	0	15.6	4	4.9	4	-1E+10	1	-1E+10	1	-1E+10	1	-1E+10	1	-1E+10	1	-1E+10	1
4902551	50	C	12/27/2021	18:02	-133.330	49.482	0	753.00	0	3.5210	0	34.2590	0	27.250	0	745.226	0	15.5	4	4.8	4	-1E+10	1	-1E+10	1	-1E+10	1	-1E+10	1	-1E+10	1	-1E+10	1
4902551	50	C	12/27/2021	18:02	-133.330	49.482	0	758.00	0	3.5130	0	34.2600	0	27.251	0	750.166	0	15.4	4	4.8	4	-1E+10	1	-1E+10	1	-1E+10	1	-1E+10	1	-1E+10	1	-1E+10	1
4902551	50	C	12/27/2021	18:02	-133.330	49.482	0	763.10	0	3.5030	0	34.2620	0	27.254	0	755.204	0	15.3	4	4.8	4	-1E+10	1	-1E+10	1	-1E+10	1	-1E+10	1	-1E+10	1	-1E+10	1
4902551	50	C	12/27/2021	18:02	-133.330	49.482	0	768.10	0	3.4920	0	34.2650	0	27.257	0	760.143	0	15.1	4	4.7	4	-1E+10	1	-1E+10	1	-1E+10	1	-1E+10	1	-1E+10	1	-1E+10	1
4902551	50	C	12/27/2021	18:02	-133.330	49.482	0	773.20	0	3.4860	0	34.2670	0	27.260	0	765.181	0	15.0	4	4.7	4	-1E+10	1	-1E+10	1	-1E+10	1	-1E+10	1	-1E+10	1	-1E+10	1
4902551	50	C	12/27/2021	18:02	-133.330	49.482	0	778.20	0	3.4800	0	34.2690	0	27.262	0	770.120	0	14.9	4	4.6	4	-1E+10	1	-1E+10	1	-1E+10	1	-1E+10	1	-1E+10	1	-1E+10	1
4902551	50	C	12/27/2021	18:02	-133.330	49.482	0	782.80	0	3.4720	0	34.2720	0	27.265	0	774.663	0	14.8	4	4.6	4	-1E+10	1	-1E+10	1	-1E+10	1	-1E+10	1	-1E+10	1	-1E+10	1
4902551	50	C	12/27/2021	18:02	-133.330	49.482	0	787.50	0	3.4660	0	34.2730	0	27.266	0	779.306	0	14.8	4	4.6	4	-1E+10	1	-1E+10	1	-1E+10	1	-1E+10	1	-1E+10	1	-1E+10	1
4902551	50	C	12/27/2021	18:02	-133.330	49.482	0	792.70	0	3.4570	0	34.2750	0	27.269	0	784.442	0	14.7	4	4.6	4	-1E+10	1	-1E+10	1	-1E+10	1	-1E+10	1	-1E+10	1	-1E+10	1
4902551	50	C	12/27/2021	18:02	-133.330	49.482	0	798.00	0	3.4500	0	34.2770	0	27.271	0	789.677	0	14.6	4	4.6	4	-1E+10	1	-1E+10	1	-1E+10	1	-1E+10	1	-1E+10	1	-1E+10	1
4902551	50	C	12/27/2021	18:02	-133.330	49.482	0	803.30	0	3.4430	0	34.2780	0	27.273	0	794.911	0	14.5	4	4.5	4	-1E+10	1	-1E+10	1	-1E+10	1	-1E+10	1	-1E+10	1	-1E+10	1
4902551	50	C	12/27/2021	18:02	-133.330	49.482	0	808.00	0	3.4320	0	34.2800	0	27.275	0	799.553	0	14.5	4	4.5	4	-1E+10	1	-1E+10	1	-1E+10	1	-1E+10	1	-1E+10	1	-1E+10	1
4902551	50	C	12/27/2021	18:02	-133.330	49.482	0	812.60	0	3.4200	0	34.2830	0	27.279	0	804.096	0	14.5	4	4.5	4	-1E+10	1	-1E+10	1	-1E+10	1	-1E+10	1	-1E+10	1	-1E+10	1
4902551	50	C	12/27/2021	18:02	-133.330	49.482	0	817.70	0	3.4140	0	34.2840	0	27.280	0	809.133	0	14.4	4	4.5	4	-1E+10	1	-1E+10	1	-1E+10	1	-1E+10	1	-1E+10	1	-1E+10	1
4902551	50	C	12/27/2021	18:02	-133.330	49.482	0	822.80	0	3.4080	0	34.2860	0	27.283	0	814.170	0	14.3	4	4.5	4	-1E+10	1	-1E+10	1	-1E+10	1	-1E+10	1	-1E+10	1	-1E+10	1
4902551	50	C	12/27/2021	18:02	-133.330	49.482	0	828.00	0	3.3990	0	34.2870	0	27.284	0	819.305	0	14.3	4	4.4	4	-1E+10	1	-1E+10	1	-1E+10	1	-1E+10	1	-1E+10	1	-1E+10	1
4902551	50	C	12/27/2021	18:02	-133.330	49.482	0	833.10	0	3.3860	0	34.2910	0	27.289	0	824.341	0	14.2	4	4.4	4	-1E+10	1	-1E+10	1	-1E+10	1	-1E+10	1	-1E+10	1	-1E+10	1
4902551	50	C	12/27/2021	18:02	-133.330	49.482	0	838.20	0	3.3820	0	34.2920	0	27.290	0	829.378	0	14.1	4	4.4	4	-1E+10	1	-1E+10	1	-1E+10	1	-1E+10	1	-1E+10	1	-1E+10	1
4902551	50	C	12/27/2021	18:02	-133.330	49.482	0	843.20	0	3.3680	0	34.2940	0	27.293	0	834.315	0	14.0	4	4.3	4	-1E+10	1	-1E+10	1	-1E+10	1	-1E+10	1	-1E+10	1	-1E+10	1
4902551	50	C	12/27/2021	18:02	-133.330	49.482	0	848.30	0	3.3600	0	34.2960	0	27.295	0	839.351	0	13.9	4	4.3	4	-1E+10	1	-1E+10	1	-1E+10	1	-1E+10	1	-1E+10	1	-1E+10	1
4902551	50	C	12/27/2021	18:02	-133.330	49.482	0	852.90	0	3.3560	0	34.2970	0	27.296	0	843.893	0	13.8	4	4.3	4	-1E+10	1	-1E+10	1	-1E+10	1	-1E+10	1	-1E+10	1	-1E+10	1
4902551	50	C	12/27/2021	18:02	-133.330	49.482	0	857.50	0	3.3420	0	34.3010	0	27.301	0	848.435	0	13.7	4	4.3	4	-1E+10	1	-1E+10	1	-1E+10	1	-1E+10	1	-1E+10	1	-1E+10	1
4902551	50	C	12/27/2021	18:02	-133.330	49.482	0	862.50	0	3.3310	0	34.3030	0	27.304	0	853.372	0	13.6	4	4.2	4	-1E+10	1	-1E+10	1	-1E+10	1	-1E+10	1	-1E+10	1	-1E+10	1
4902551	50	C	12/27/2021	18:02	-133.330	49.482	0	867.50	0	3.3220	0	34.3050	0	27.306	0	858.309	0	13.5	4	4.2	4	-1E+10	1	-1E+10	1	-1E+10	1	-1E+10	1	-1E+10	1	-1E+10	1
4902551	50	C	12/27/2021	18:02	-133.330	49.482	0	872.50	0	3.3070	0	34.3090	0	27.311	0	863.246	0	13.4	4	4.2	4	-1E+10	1	-1E+10	1	-1E+10	1	-1E+10	1	-1E+10	1	-1E+10	1
4902551	50	C	12/27/2021	18:02	-133.330	49.482	0	877.60	0	3.2960	0	34.3110	0	27.313	0	868.281	0	13.3	4	4.1	4	-1E+10	1	-1E+10	1	-1E+10	1	-1E+10	1	-1E+10	1	-1E+10	1
4902551	50	C	12/27/2021	18:02	-133.330	49.482	0	882.70	0	3.2820	0	34.3140	0	27.317	0	873.316	0	13.2	4	4.1	4	-1E+10	1	-1E+10	1	-1E+10	1	-1E+10	1	-1E+10	1	-1E+10	1
4902551	50	C	12/27/2021	18:02	-133.330	49.482	0	887.70	0	3.2590	0	34.3190	0	27.323	0	878.253	0	13.1	4	4.1	4	-1E+10	1	-1E+10	1	-1E+10	1	-1E+10	1	-1E+10	1	-1E+10	1
4902551	50	C	12/27/2021	18:02	-133.330	49.482	0	892.80	0	3.2500	0	34.3210	0	27.326	0	883.288	0	13.1	4	4.1	4	-1E+10	1	-1E+10	1	-1E+10	1	-1E+10	1	-1E+10	1	-1E+10	1
4902551	50	C	12/27/2021	18:02	-133.330	49.482	0	897.80	0	3.2380	0	34.3240	0	27.329	0	888.224	0	13.0	4	4.0	4	-1E+10	1	-1E+10	1	-1E+10	1	-1E+10	1	-1E+10	1	-1E+10	1
4902551	50	C	12/27/2021	18:02	-133.330	49.482	0	903.00	0	3.2300	0	34.3260	0	27.332	0	893.357	0	12.9	4	4.0	4	-1E+10	1	-1E+10	1	-1E+10	1	-1E+10	1	-1E+10	1	-1E+10	1
4902551	50	C	12/27/2021	18:02	-133.330	49.482	0	908.10	0	3.2140	0	34.3290	0	27.336	0	898.392	0	12.9	4	4.0	4	-1E+10	1	-1E+10	1	-1E+10	1	-1E+10	1	-1E+10	1	-1E+10	1
4902551	50	C	12/27/2021	18:02	-133.330	49.482	0	912.90	0	3.1960	0	34.3320	0	27.340	0	903.130	0	12.7	4	4.0	4	-1E+10	1	-1E+10	1	-1E+10	1	-1E+10	1	-1E+10	1	-1E+10	1
4902551	50	C	12/27/2021	18:02	-133.330	49.482	0	917.90	0	3.1830	0	34.3350	0	27.343	0	908.066	0	12.6	4	3.9	4	-1E+10	1	-1E+10	1	-1E+10	1	-1E+10	1	-1E+10	1	-1E+10	1
4902551	50	C	12/27/2021	18:02	-133.330	49.482	0	922.90	0	3.1780	0	34.3390	0	27.347	0	913.001	0	12.4	4	3.8	4	-1E+10	1	-1E+10	1	-1E+10	1	-1E+10	1	-1E+10	1	-1E+10	1
4902551	50	C	12/27/2021	18:02	-133.330	49.482	0	928.00	0	3.1760	0	34.3420	0	27.350	0	918.035	0	12.3	4	3.8	4	-1E+10	1	-1E+10	1	-1E+10	1	-1E+10	1	-1E+10	1	-1E+10	1
4902551	50	C	12/27/2021	18:02	-133.330	49.482	0	933.10	0	3.1710	0	34.3440	0	27.352	0	923.069	0	12.4	4	3.8	4	-1E+10	1	-1E+10	1	-1E+10	1	-1E+10	1	-1E+10	1	-1E+10	1
4902551	50	C	12/27/2021	18:02	-133.330	49.482	0	937.80	0	3.1570	0	34.3450	0	27.354	0	927.708	0	12.4	4	3.8	4	-1E+10	1	-1E+10	1	-1E+10	1	-1E+10	1	-1E+10	1	-1E+10	1
4902551	50	C	12/27/2021	18:02	-133.330	49.482	0	942.60	0	3.1530	0	34.3460	0	27.355	0	932.446	0	12.4	4	3.9	4	-1E+10	1	-1E+10	1	-1E+10	1	-1E+10	1	-1E+10	1	-1E+10	1
4902551	50	C	12/27/2021	18:02	-133.330	49.482	0	948.00	0	3.1400	0	34.3480	0	27.358	0	937.776	0	12.5	4	3.9	4	-1E+10	1	-1E+10	1	-1E+10	1	-1E+10	1	-1E+10	1	-1E+10	1
4902551	50	C	12/27/2021	18:02	-133.330	49.482	0	953.00	0	3.1260	0	34.3490	0	27.360	0	942.711	0	12.5	4	3.9	4	-1E+10	1	-1E+10	1	-1E+10	1	-1E+10	1	-1E+10	1	-1E+10	1
4902551	50	C	12/27/2021	18:02	-133.330	49.482	0	958.00	0	3.1230	0	34.3510	0	27.362	0	947.645	0	12.5	4	3.9	4	-1E+10	1	-1E+10	1	-1E+10	1	-1E+10	1	-1E+10	1	-1E+10	1
4902551	50	C	12/27/2021	18:02	-133.330	49.482	0	963.30	0	3.1190	0	34.3530	0	27.364	0	952.876	0	12.5	4	3.9	4	-1E+10	1	-1E+10	1	-1E+10	1	-1E+10	1	-1E+10	1	-1E+10	1
4902551	50	C	12/27/2021	18:02	-133.330	49.482	0	968.10	0	3.1110	0	34.3540	0	27.365	0	957.613	0	12.5	4	3.9	4	-1E+10	1	-1E+10	1	-1E+10	1	-1E+10	1	-1E+10	1	-1E+10	1
4902551	50	C	12/27/2021	18:02	-133.330	49.482	0	973.00	0	3.1100	0	34.3550	0	27.366	0	962.449	0	12.5	4	3.9	4	-1E+10	1	-1E+10	1	-1E+10	1	-1E+10	1	-1E+10	1	-1E+10	1
4902551	50	C	12/27/2021	18:02	-133.330	49.482	0	977.90	0	3.1020	0	34.3570	0	27.369	0	967.284	0	12.4	4	3.8	4	-1E+10	1	-1E+10	1	-1E+10	1	-1E+10	1	-1E+10	1	-1E+10	1
4902551	50	C	12/27/2021	18:02	-133.330	49.482	0	983.00	0	3.0900	0	34.3590	0	27.371	0	972.317	0	12.4	4	3.8	4	-1E+10	1	-1E+10	1	-1E+10	1	-1E+10	1	-1E+10	1	-1E+10	1
4902551	50	C	12/27/2021	18:02	-133.330	49.482	0	988.10	0	3.0820	0	34.3610	0	27.374	0	977.350	0	12.4	4	3.8	4	-1E+10	1	-1E+10	1	-1E+10	1	-1E+10	1	-1E+10	1	-1E+10	1
4902551	50	C	12/27/2021	18:02	-133.330	49.482	0	993.20	0	3.0790	0	34.3620	0	27.375	0	982.382	0	12.4	4	3.8	4	-1E+10	1	-1E+10	1	-1E+10	1	-1E+10	1	-1E+10	1	-1E+10	1
4902551	50	C	12/27/2021	18:02	-133.330	49.482	0	997.90	0	3.0670	0	34.3640	0	27.378	0	987.020	0	12.4	4	3.8	4	-1E+10	1	-1E+10	1	-1E+10	1	-1E+10	1	-1E+10	1	-1E+10	1
4902551	50	C	12/27/2021	18:02	-133.330	49.482	0	1005.20	0	3.0610	0	34.3660	0	27.380	0	994.223	0	12.4	4	3.8	4	-1E+10	1	-1E+10	1	-1E+10	1	-1E+10	1	-1E+10	1	-1E+10	1
4902551	50	C	12/27/2021	18:02	-133.330	49.482	0	1015.30	0	3.0480	0	34.3690	0	27.383	0	1004.189	0	12.5	4	3.9	4	-1E+10	1	-1E+10	1	-1E+10	1	-1E+10	1	-1E+10	1	-1E+10	1
4902551	50	C	12/27/2021	18:02	-133.330	49.482	0	1025.30	0	3.0260	0	34.3730	0	27.389	0	1014.055	0	12.7	4	3.9	4	-1E+10	1	-1E+10	1	-1E+10	1	-1E+10	1	-1E+10	1	-1E+10	1
4902551	50	C	12/27/2021	18:02	-133.330	49.482	0	1035.40	0	3.0100	0	34.3750	0	27.392	0	1024.020	0	12.7	4	3.9	4	-1E+10	1	-1E+10	1	-1E+10	1	-1E+10	1	-1E+10	1	-1E+10	1
4902551	50	C	12/27/2021	18:02	-133.330	49.482	0	1045.70	0	2.9930	0	34.3790	0	27.396	0	1034.181	0	12.7	4	3.9	4	-1E+10	1	-1E+10	1	-1E+10	1	-1E+10	1	-1E+10	1	-1E+10	1
4902551	50	C	12/27/2021	18:02	-133.330	49.482	0	1055.40	0	2.9780	0	34.3820	0	27.400	0	1043.750	0	12.7	4	3.9	4	-1E+10	1	-1E+10	1	-1E+10	1	-1E+10	1	-1E+10	1	-1E+10	1
4902551	50	C	12/27/2021	18:02	-133.330	49.482	0	1065.30	0	2.9620	0	34.3850	0	27.404	0	1053.516	0	12.7	4	3.9	4	-1E+10	1	-1E+10	1	-1E+10	1	-1E+10	1	-1E+10	1	-1E+10	1
4902551	50	C	12/27/2021	18:02	-133.330	49.482	0	1075.50	0	2.9460	0	34.3880	0	27.408	0	1063.577	0	12.7	4	3.9	4	-1E+10	1	-1E+10	1	-1E+10	1	-1E+10	1	-1E+10	1	-1E+10	1
4902551	50	C	12/27/2021	18:02	-133.330	49.482	0	1085.50	0	2.9360	0	34.3910	0	27.411	0	1073.441	0	12.6	4	3.9	4	-1E+10	1	-1E+10	1	-1E+10	1	-1E+10	1	-1E+10	1	-1E+10	1
4902551	50	C	12/27/2021	18:02	-133.330	49.482	0	1095.20	0	2.9220	0	34.3940	0	27.415	0	1083.008	0	12.7	4	3.9	4	-1E+10	1	-1E+10	1	-1E+10	1	-1E+10	1	-1E+10	1	-1E+10	1
4902551	50	C	12/27/2021	18:02	-133.330	49.482	0	1105.10	0	2.9090	0	34.3970	0	27.419	0	1092.772	0	12.8	4	3.9	4	-1E+10	1	-1E+10	1	-1E+10	1	-1E+10	1	-1E+10	1	-1E+10	1
4902551	50	C	12/27/2021	18:02	-133.330	49.482	0	1115.30	0	2.8950	0	34.4000	0	27.422	0	1102.832	0	12.8	4	3.9	4	-1E+10	1	-1E+10	1	-1E+10	1	-1E+10	1	-1E+10	1	-1E+10	1
4902551	50	C	12/27/2021	18:02	-133.330	49.482	0	1125.50	0	2.8780	0	34.4030	0	27.426	0	1112.891	0	12.9	4	4.0	4	-1E+10	1	-1E+10	1	-1E+10	1	-1E+10	1	-1E+10	1	-1E+10	1
4902551	50	C	12/27/2021	18:02	-133.330	49.482	0	1135.40	0	2.8650	0	34.4050	0	27.429	0	1122.653	0	12.9	4	4.0	4	-1E+10	1	-1E+10	1	-1E+10	1	-1E+10	1	-1E+10	1	-1E+10	1
4902551	50	C	12/27/2021	18:02	-133.330	49.482	0	1145.30	0	2.8510	0	34.4080	0	27.433	0	1132.415	0	12.9	4	4.0	4	-1E+10	1	-1E+10	1	-1E+10	1	-1E+10	1	-1E+10	1	-1E+10	1
4902551	50	C	12/27/2021	18:02	-133.330	49.482	0	1155.30	0	2.8470	0	34.4110	0	27.436	0	1142.276	0	12.9	4	4.0	4	-1E+10	1	-1E+10	1	-1E+10	1	-1E+10	1	-1E+10	1	-1E+10	1
4902551	50	C	12/27/2021	18:02	-133.330	49.482	0	1165.20	0	2.8330	0	34.4150	0	27.440	0	1152.037	0	13.0	4	4.0	4	-1E+10	1	-1E+10	1	-1E+10	1	-1E+10	1	-1E+10	1	-1E+10	1
4902551	50	C	12/27/2021	18:02	-133.330	49.482	0	1175.20	0	2.8110	0	34.4180	0	27.445	0	1161.896	0	13.1	4	4.0	4	-1E+10	1	-1E+10	1	-1E+10	1	-1E+10	1	-1E+10	1	-1E+10	1
4902551	50	C	12/27/2021	18:02	-133.330	49.482	0	1185.40	0	2.7930	0	34.4220	0	27.449	0	1171.953	0	13.2	4	4.1	4	-1E+10	1	-1E+10	1	-1E+10	1	-1E+10	1	-1E+10	1	-1E+10	1
4902551	50	C	12/27/2021	18:02	-133.330	49.482	0	1195.60	0	2.7820	0	34.4250	0	27.453	0	1182.008	0	13.4	4	4.1	4	-1E+10	1	-1E+10	1	-1E+10	1	-1E+10	1	-1E+10	1	-1E+10	1
4902551	50	C	12/27/2021	18:02	-133.330	49.482	0	1205.30	0	2.7690	0	34.4270	0	27.456	0	1191.570	0	13.5	4	4.1	4	-1E+10	1	-1E+10	1	-1E+10	1	-1E+10	1	-1E+10	1	-1E+10	1
4902551	50	C	12/27/2021	18:02	-133.330	49.482	0	1215.50	0	2.7510	0	34.4290	0	27.459	0	1201.625	0	13.7	4	4.2	4	-1E+10	1	-1E+10	1	-1E+10	1	-1E+10	1	-1E+10	1	-1E+10	1
4902551	50	C	12/27/2021	18:02	-133.330	49.482	0	1225.60	0	2.7310	0	34.4330	0	27.464	0	1211.581	0	13.9	4	4.3	4	-1E+10	1	-1E+10	1	-1E+10	1	-1E+10	1	-1E+10	1	-1E+10	1
4902551	50	C	12/27/2021	18:02	-133.330	49.482	0	1235.10	0	2.7120	0	34.4370	0	27.469	0	1220.945	0	14.1	4	4.3	4	-1E+10	1	-1E+10	1	-1E+10	1	-1E+10	1	-1E+10	1	-1E+10	1
4902551	50	C	12/27/2021	18:02	-133.330	49.482	0	1245.30	0	2.6980	0	34.4390	0	27.472	0	1230.998	0	14.4	4	4.4	4	-1E+10	1	-1E+10	1	-1E+10	1	-1E+10	1	-1E+10	1	-1E+10	1
4902551	50	C	12/27/2021	18:02	-133.330	49.482	0	1255.50	0	2.6820	0	34.4420	0	27.475	0	1241.051	0	14.5	4	4.4	4	-1E+10	1	-1E+10	1	-1E+10	1	-1E+10	1	-1E+10	1	-1E+10	1
4902551	50	C	12/27/2021	18:02	-133.330	49.482	0	1265.40	0	2.6740	0	34.4430	0	27.477	0	1250.807	0	14.7	4	4.5	4	-1E+10	1	-1E+10	1	-1E+10	1	-1E+10	1	-1E+10	1	-1E+10	1
4902551	50	C	12/27/2021	18:02	-133.330	49.482	0	1275.50	0	2.6600	0	34.4450	0	27.480	0	1260.761	0	15.0	4	4.6	4	-1E+10	1	-1E+10	1	-1E+10	1	-1E+10	1	-1E+10	1	-1E+10	1
4902551	50	C	12/27/2021	18:02	-133.330	49.482	0	1285.50	0	2.6450	0	34.4480	0	27.484	0	1270.615	0	15.4	4	4.7	4	-1E+10	1	-1E+10	1	-1E+10	1	-1E+10	1	-1E+10	1	-1E+10	1
4902551	50	C	12/27/2021	18:02	-133.330	49.482	0	1295.60	0	2.6230	0	34.4520	0	27.489	0	1280.567	0	15.7	4	4.8	4	-1E+10	1	-1E+10	1	-1E+10	1	-1E+10	1	-1E+10	1	-1E+10	1
4902551	50	C	12/27/2021	18:02	-133.330	49.482	0	1305.60	0	2.6040	0	34.4550	0	27.493	0	1290.421	0	16.1	4	4.9	4	-1E+10	1	-1E+10	1	-1E+10	1	-1E+10	1	-1E+10	1	-1E+10	1
4902551	50	C	12/27/2021	18:02	-133.330	49.482	0	1315.70	0	2.5860	0	34.4590	0	27.498	0	1300.372	0	16.5	4	5.0	4	-1E+10	1	-1E+10	1	-1E+10	1	-1E+10	1	-1E+10	1	-1E+10	1
4902551	50	C	12/27/2021	18:02	-133.330	49.482	0	1325.80	0	2.5700	0	34.4620	0	27.501	0	1310.323	0	16.9	4	5.2	4	-1E+10	1	-1E+10	1	-1E+10	1	-1E+10	1	-1E+10	1	-1E+10	1
4902551	50	C	12/27/2021	18:02	-133.330	49.482	0	1335.30	0	2.5570	0	34.4640	0	27.504	0	1319.682	0	17.2	4	5.2	4	-1E+10	1	-1E+10	1	-1E+10	1	-1E+10	1	-1E+10	1	-1E+10	1
4902551	50	C	12/27/2021	18:02	-133.330	49.482	0	1345.30	0	2.5440	0	34.4660	0	27.507	0	1329.534	0	17.6	4	5.4	4	-1E+10	1	-1E+10	1	-1E+10	1	-1E+10	1	-1E+10	1	-1E+10	1
4902551	50	C	12/27/2021	18:02	-133.330	49.482	0	1355.30	0	2.5270	0	34.4690	0	27.511	0	1339.385	0	18.1	4	5.5	4	-1E+10	1	-1E+10	1	-1E+10	1	-1E+10	1	-1E+10	1	-1E+10	1
4902551	50	C	12/27/2021	18:02	-133.330	49.482	0	1365.10	0	2.5120	0	34.4720	0	27.514	0	1349.038	0	18.5	4	5.6	4	-1E+10	1	-1E+10	1	-1E+10	1	-1E+10	1	-1E+10	1	-1E+10	1
4902551	50	C	12/27/2021	18:02	-133.330	49.482	0	1375.20	0	2.4990	0	34.4750	0	27.518	0	1358.987	0	18.9	4	5.8	4	-1E+10	1	-1E+10	1	-1E+10	1	-1E+10	1	-1E+10	1	-1E+10	1
4902551	50	C	12/27/2021	18:02	-133.330	49.482	0	1385.10	0	2.4850	0	34.4770	0	27.521	0	1368.738	0	19.4	4	5.9	4	-1E+10	1	-1E+10	1	-1E+10	1	-1E+10	1	-1E+10	1	-1E+10	1
4902551	50	C	12/27/2021	18:02	-133.330	49.482	0	1395.30	0	2.4720	0	34.4800	0	27.524	0	1378.785	0	19.8	4	6.0	4	-1E+10	1	-1E+10	1	-1E+10	1	-1E+10	1	-1E+10	1	-1E+10	1
4902551	50	C	12/27/2021	18:02	-133.330	49.482	0	1405.70	0	2.4620	0	34.4820	0	27.527	0	1389.027	0	20.2	4	6.1	4	-1E+10	1	-1E+10	1	-1E+10	1	-1E+10	1	-1E+10	1	-1E+10	1
4902551	50	C	12/27/2021	18:02	-133.330	49.482	0	1415.80	0	2.4530	0	34.4830	0	27.528	0	1398.974	0	20.6	4	6.3	4	-1E+10	1	-1E+10	1	-1E+10	1	-1E+10	1	-1E+10	1	-1E+10	1
4902551	50	C	12/27/2021	18:02	-133.330	49.482	0	1425.50	0	2.4360	0	34.4870	0	27.533	0	1408.526	0	21.0	4	6.4	4	-1E+10	1	-1E+10	1	-1E+10	1	-1E+10	1	-1E+10	1	-1E+10	1
4902551	50	C	12/27/2021	18:02	-133.330	49.482	0	1435.10	0	2.4290	0	34.4880	0	27.535	0	1417.980	0	21.5	4	6.5	4	-1E+10	1	-1E+10	1	-1E+10	1	-1E+10	1	-1E+10	1	-1E+10	1
4902551	50	C	12/27/2021	18:02	-133.330	49.482	0	1445.40	0	2.4130	0	34.4910	0	27.538	0	1428.122	0	22.3	4	6.8	4	-1E+10	1	-1E+10	1	-1E+10	1	-1E+10	1	-1E+10	1	-1E+10	1
4902551	50	C	12/27/2021	18:02	-133.330	49.482	0	1455.30	0	2.3920	0	34.4950	0	27.543	0	1437.870	0	22.8	4	6.9	4	-1E+10	1	-1E+10	1	-1E+10	1	-1E+10	1	-1E+10	1	-1E+10	1
4902551	50	C	12/27/2021	18:02	-133.330	49.482	0	1465.40	0	2.3820	0	34.4970	0	27.546	0	1447.814	0	23.4	4	7.1	4	-1E+10	1	-1E+10	1	-1E+10	1	-1E+10	1	-1E+10	1	-1E+10	1
4902551	50	C	12/27/2021	18:02	-133.330	49.482	0	1475.40	0	2.3690	0	34.4990	0	27.549	0	1457.660	0	24.0	4	7.3	4	-1E+10	1	-1E+10	1	-1E+10	1	-1E+10	1	-1E+10	1	-1E+10	1
4902551	50	C	12/27/2021	18:02	-133.330	49.482	0	1485.40	0	2.3470	0	34.5040	0	27.554	0	1467.505	0	24.6	4	7.5	4	-1E+10	1	-1E+10	1	-1E+10	1	-1E+10	1	-1E+10	1	-1E+10	1
4902551	50	C	12/27/2021	18:02	-133.330	49.482	0	1495.30	0	2.3380	0	34.5050	0	27.556	0	1477.251	0	25.0	4	7.6	4	-1E+10	1	-1E+10	1	-1E+10	1	-1E+10	1	-1E+10	1	-1E+10	1
4902551	50	C	12/27/2021	18:02	-133.330	49.482	0	1505.60	0	2.3230	0	34.5080	0	27.560	0	1487.391	0	25.3	4	7.7	4	-1E+10	1	-1E+10	1	-1E+10	1	-1E+10	1	-1E+10	1	-1E+10	1
4902551	50	C	12/27/2021	18:02	-133.330	49.482	0	1515.60	0	2.3180	0	34.5090	0	27.561	0	1497.234	0	25.4	4	7.7	4	-1E+10	1	-1E+10	1	-1E+10	1	-1E+10	1	-1E+10	1	-1E+10	1
4902551	50	C	12/27/2021	18:02	-133.330	49.482	0	1525.30	0	2.3060	0	34.5110	0	27.564	0	1506.782	0	25.7	4	7.8	4	-1E+10	1	-1E+10	1	-1E+10	1	-1E+10	1	-1E+10	1	-1E+10	1
4902551	50	C	12/27/2021	18:02	-133.330	49.482	0	1535.10	0	2.2950	0	34.5130	0	27.566	0	1516.428	0	26.3	4	8.0	4	-1E+10	1	-1E+10	1	-1E+10	1	-1E+10	1	-1E+10	1	-1E+10	1
4902551	50	C	12/27/2021	18:02	-133.330	49.482	0	1545.40	0	2.2850	0	34.5150	0	27.569	0	1526.566	0	26.9	4	8.2	4	-1E+10	1	-1E+10	1	-1E+10	1	-1E+10	1	-1E+10	1	-1E+10	1
4902551	50	C	12/27/2021	18:02	-133.330	49.482	0	1555.60	0	2.2770	0	34.5160	0	27.570	0	1536.604	0	27.3	4	8.3	4	-1E+10	1	-1E+10	1	-1E+10	1	-1E+10	1	-1E+10	1	-1E+10	1
4902551	50	C	12/27/2021	18:02	-133.330	49.482	0	1565.40	0	2.2680	0	34.5180	0	27.572	0	1546.249	0	27.7	4	8.4	4	-1E+10	1	-1E+10	1	-1E+10	1	-1E+10	1	-1E+10	1	-1E+10	1
4902551	50	C	12/27/2021	18:02	-133.330	49.482	0	1575.50	0	2.2600	0	34.5200	0	27.575	0	1556.188	0	28.3	4	8.6	4	-1E+10	1	-1E+10	1	-1E+10	1	-1E+10	1	-1E+10	1	-1E+10	1
4902551	50	C	12/27/2021	18:02	-133.330	49.482	0	1585.30	0	2.2510	0	34.5220	0	27.577	0	1565.832	0	28.7	4	8.7	4	-1E+10	1	-1E+10	1	-1E+10	1	-1E+10	1	-1E+10	1	-1E+10	1
4902551	50	C	12/27/2021	18:02	-133.330	49.482	0	1595.20	0	2.2460	0	34.5230	0	27.578	0	1575.573	0	29.1	4	8.8	4	-1E+10	1	-1E+10	1	-1E+10	1	-1E+10	1	-1E+10	1	-1E+10	1
4902551	50	C	12/27/2021	18:02	-133.330	49.482	0	1605.10	0	2.2380	0	34.5250	0	27.581	0	1585.315	0	29.5	4	9.0	4	-1E+10	1	-1E+10	1	-1E+10	1	-1E+10	1	-1E+10	1	-1E+10	1
4902551	50	C	12/27/2021	18:02	-133.330	49.482	0	1614.90	0	2.2290	0	34.5270	0	27.583	0	1594.957	0	30.1	4	9.1	4	-1E+10	1	-1E+10	1	-1E+10	1	-1E+10	1	-1E+10	1	-1E+10	1
4902551	50	C	12/27/2021	18:02	-133.330	49.482	0	1624.90	0	2.2180	0	34.5280	0	27.585	0	1604.796	0	30.8	4	9.3	4	-1E+10	1	-1E+10	1	-1E+10	1	-1E+10	1	-1E+10	1	-1E+10	1
4902551	50	C	12/27/2021	18:02	-133.330	49.482	0	1635.10	0	2.2050	0	34.5310	0	27.588	0	1614.830	0	31.5	4	9.5	4	-1E+10	1	-1E+10	1	-1E+10	1	-1E+10	1	-1E+10	1	-1E+10	1
4902551	50	C	12/27/2021	18:02	-133.330	49.482	0	1645.50	0	2.1930	0	34.5330	0	27.591	0	1625.062	0	32.1	4	9.7	4	-1E+10	1	-1E+10	1	-1E+10	1	-1E+10	1	-1E+10	1	-1E+10	1
4902551	50	C	12/27/2021	18:02	-133.330	49.482	0	1656.10	0	2.1830	0	34.5350	0	27.593	0	1635.489	0	32.8	4	9.9	4	-1E+10	1	-1E+10	1	-1E+10	1	-1E+10	1	-1E+10	1	-1E+10	1
4902551	50	C	12/27/2021	18:02	-133.330	49.482	0	1665.70	0	2.1730	0	34.5370	0	27.596	0	1644.932	0	33.6	4	10.2	4	-1E+10	1	-1E+10	1	-1E+10	1	-1E+10	1	-1E+10	1	-1E+10	1
4902551	50	C	12/27/2021	18:02	-133.330	49.482	0	1675.60	0	2.1650	0	34.5390	0	27.598	0	1654.670	0	34.3	4	10.4	4	-1E+10	1	-1E+10	1	-1E+10	1	-1E+10	1	-1E+10	1	-1E+10	1
4902551	50	C	12/27/2021	18:02	-133.330	49.482	0	1685.60	0	2.1550	0	34.5410	0	27.601	0	1664.506	0	34.9	4	10.6	4	-1E+10	1	-1E+10	1	-1E+10	1	-1E+10	1	-1E+10	1	-1E+10	1
4902551	50	C	12/27/2021	18:02	-133.330	49.482	0	1695.20	0	2.1490	0	34.5420	0	27.602	0	1673.948	0	35.4	4	10.7	4	-1E+10	1	-1E+10	1	-1E+10	1	-1E+10	1	-1E+10	1	-1E+10	1
4902551	50	C	12/27/2021	18:02	-133.330	49.482	0	1705.40	0	2.1420	0	34.5430	0	27.603	0	1683.980	0	36.0	4	10.9	4	-1E+10	1	-1E+10	1	-1E+10	1	-1E+10	1	-1E+10	1	-1E+10	1
4902551	50	C	12/27/2021	18:02	-133.330	49.482	0	1715.40	0	2.1360	0	34.5440	0	27.605	0	1693.814	0	36.6	4	11.1	4	-1E+10	1	-1E+10	1	-1E+10	1	-1E+10	1	-1E+10	1	-1E+10	1
4902551	50	C	12/27/2021	18:02	-133.330	49.482	0	1725.00	0	2.1250	0	34.5470	0	27.608	0	1703.255	0	37.2	4	11.3	4	-1E+10	1	-1E+10	1	-1E+10	1	-1E+10	1	-1E+10	1	-1E+10	1
4902551	50	C	12/27/2021	18:02	-133.330	49.482	0	1735.40	0	2.1160	0	34.5480	0	27.610	0	1713.482	0	37.9	4	11.4	4	-1E+10	1	-1E+10	1	-1E+10	1	-1E+10	1	-1E+10	1	-1E+10	1
4902551	50	C	12/27/2021	18:02	-133.330	49.482	0	1745.40	0	2.1110	0	34.5500	0	27.612	0	1723.315	0	38.6	4	11.7	4	-1E+10	1	-1E+10	1	-1E+10	1	-1E+10	1	-1E+10	1	-1E+10	1
4902551	50	C	12/27/2021	18:02	-133.330	49.482	0	1755.10	0	2.1030	0	34.5510	0	27.613	0	1732.853	0	39.3	4	11.9	4	-1E+10	1	-1E+10	1	-1E+10	1	-1E+10	1	-1E+10	1	-1E+10	1
4902551	50	C	12/27/2021	18:02	-133.330	49.482	0	1765.40	0	2.0940	0	34.5530	0	27.615	0	1742.980	0	40.0	4	12.1	4	-1E+10	1	-1E+10	1	-1E+10	1	-1E+10	1	-1E+10	1	-1E+10	1
4902551	50	C	12/27/2021	18:02	-133.330	49.482	0	1775.70	0	2.0840	0	34.5550	0	27.618	0	1753.107	0	40.7	4	12.3	4	-1E+10	1	-1E+10	1	-1E+10	1	-1E+10	1	-1E+10	1	-1E+10	1
4902551	50	C	12/27/2021	18:02	-133.330	49.482	0	1785.60	0	2.0740	0	34.5570	0	27.620	0	1762.840	0	41.3	4	12.5	4	-1E+10	1	-1E+10	1	-1E+10	1	-1E+10	1	-1E+10	1	-1E+10	1
4902551	50	C	12/27/2021	18:02	-133.330	49.482	0	1795.50	0	2.0660	0	34.5590	0	27.623	0	1772.572	0	41.9	4	12.7	4	-1E+10	1	-1E+10	1	-1E+10	1	-1E+10	1	-1E+10	1	-1E+10	1
4902551	50	C	12/27/2021	18:02	-133.330	49.482	0	1805.20	0	2.0600	0	34.5590	0	27.623	0	1782.108	0	42.3	4	12.8	4	-1E+10	1	-1E+10	1	-1E+10	1	-1E+10	1	-1E+10	1	-1E+10	1
4902551	50	C	12/27/2021	18:02	-133.330	49.482	0	1815.20	0	2.0570	0	34.5600	0	27.624	0	1791.937	0	42.7	4	12.9	4	-1E+10	1	-1E+10	1	-1E+10	1	-1E+10	1	-1E+10	1	-1E+10	1
4902551	50	C	12/27/2021	18:02	-133.330	49.482	0	1825.50	0	2.0500	0	34.5620	0	27.626	0	1802.062	0	43.1	4	13.0	4	-1E+10	1	-1E+10	1	-1E+10	1	-1E+10	1	-1E+10	1	-1E+10	1
4902551	50	C	12/27/2021	18:02	-133.330	49.482	0	1835.40	0	2.0480	0	34.5620	0	27.627	0	1811.793	0	43.6	4	13.2	4	-1E+10	1	-1E+10	1	-1E+10	1	-1E+10	1	-1E+10	1	-1E+10	1
4902551	50	C	12/27/2021	18:02	-133.330	49.482	0	1845.20	0	2.0390	0	34.5640	0	27.629	0	1821.425	0	44.3	4	13.4	4	-1E+10	1	-1E+10	1	-1E+10	1	-1E+10	1	-1E+10	1	-1E+10	1
4902551	50	C	12/27/2021	18:02	-133.330	49.482	0	1855.50	0	2.0310	0	34.5650	0	27.631	0	1831.548	0	45.0	4	13.6	4	-1E+10	1	-1E+10	1	-1E+10	1	-1E+10	1	-1E+10	1	-1E+10	1
4902551	50	C	12/27/2021	18:02	-133.330	49.482	0	1865.70	0	2.0220	0	34.5670	0	27.633	0	1841.572	0	45.8	4	13.8	4	-1E+10	1	-1E+10	1	-1E+10	1	-1E+10	1	-1E+10	1	-1E+10	1
4902551	50	C	12/27/2021	18:02	-133.330	49.482	0	1875.50	0	2.0140	0	34.5690	0	27.635	0	1851.202	0	46.5	4	14.0	4	-1E+10	1	-1E+10	1	-1E+10	1	-1E+10	1	-1E+10	1	-1E+10	1
4902551	50	C	12/27/2021	18:02	-133.330	49.482	0	1885.40	0	2.0050	0	34.5710	0	27.638	0	1860.931	0	47.1	4	14.2	4	-1E+10	1	-1E+10	1	-1E+10	1	-1E+10	1	-1E+10	1	-1E+10	1
4902551	50	C	12/27/2021	18:02	-133.330	49.482	0	1895.40	0	1.9960	0	34.5720	0	27.639	0	1870.757	0	47.9	4	14.4	4	-1E+10	1	-1E+10	1	-1E+10	1	-1E+10	1	-1E+10	1	-1E+10	1
4902551	50	C	12/27/2021	18:02	-133.330	49.482	0	1905.20	0	1.9850	0	34.5740	0	27.642	0	1880.386	0	48.4	4	14.6	4	-1E+10	1	-1E+10	1	-1E+10	1	-1E+10	1	-1E+10	1	-1E+10	1
4902551	50	C	12/27/2021	18:02	-133.330	49.482	0	1915.30	0	1.9790	0	34.5760	0	27.644	0	1890.310	0	48.6	4	14.7	4	-1E+10	1	-1E+10	1	-1E+10	1	-1E+10	1	-1E+10	1	-1E+10	1
4902551	50	C	12/27/2021	18:02	-133.330	49.482	0	1925.20	0	1.9700	0	34.5760	0	27.644	0	1900.037	0	49.0	4	14.8	4	-1E+10	1	-1E+10	1	-1E+10	1	-1E+10	1	-1E+10	1	-1E+10	1
4902551	50	C	12/27/2021	18:02	-133.330	49.482	0	1935.30	0	1.9650	0	34.5770	0	27.646	0	1909.959	0	49.6	4	14.9	4	-1E+10	1	-1E+10	1	-1E+10	1	-1E+10	1	-1E+10	1	-1E+10	1
4902551	50	C	12/27/2021	18:02	-133.330	49.482	0	1945.20	0	1.9580	0	34.5780	0	27.647	0	1919.685	0	50.3	4	15.1	4	-1E+10	1	-1E+10	1	-1E+10	1	-1E+10	1	-1E+10	1	-1E+10	1
4902551	50	C	12/27/2021	18:02	-133.330	49.482	0	1955.30	0	1.9510	0	34.5800	0	27.649	0	1929.607	0	51.0	4	15.4	4	-1E+10	1	-1E+10	1	-1E+10	1	-1E+10	1	-1E+10	1	-1E+10	1
4902551	50	C	12/27/2021	18:02	-133.330	49.482	0	1965.40	0	1.9430	0	34.5820	0	27.652	0	1939.528	0	51.6	4	15.5	4	-1E+10	1	-1E+10	1	-1E+10	1	-1E+10	1	-1E+10	1	-1E+10	1
4902551	50	C	12/27/2021	18:02	-133.330	49.482	0	1975.20	0	1.9340	0	34.5830	0	27.653	0	1949.154	0	52.1	4	15.7	4	-1E+10	1	-1E+10	1	-1E+10	1	-1E+10	1	-1E+10	1	-1E+10	1
4902551	50	C	12/27/2021	18:02	-133.330	49.482	0	1985.20	0	1.9310	0	34.5840	0	27.654	0	1958.977	0	52.5	4	15.8	4	-1E+10	1	-1E+10	1	-1E+10	1	-1E+10	1	-1E+10	1	-1E+10	1
4902551	50	C	12/27/2021	18:02	-133.330	49.482	0	1995.20	0	1.9280	0	34.5850	0	27.655	0	1968.798	0	52.9	4	15.9	4	-1E+10	1	-1E+10	1	-1E+10	1	-1E+10	1	-1E+10	1	-1E+10	1
4902551	50	C	12/27/2021	18:02	-133.330	49.482	0	2005.30	0	1.9220	0	34.5860	0	27.657	0	1978.718	0	53.4	4	16.1	4	-1E+10	1	-1E+10	1	-1E+10	1	-1E+10	1	-1E+10	1	-1E+10	1
4902551	50	C	12/27/2021	18:02	-133.330	49.482	0	2015.50	0	1.9160	0	34.5870	0	27.658	0	1988.735	0	53.8	4	16.2	4	-1E+10	1	-1E+10	1	-1E+10	1	-1E+10	1	-1E+10	1	-1E+10	1
4902551	50	C	12/27/2021	18:02	-133.330	49.482	0	2024.70	0	1.9110	0	34.5880	0	27.659	0	1997.770	0	53.7	4	16.2	4	-1E+10	1	-1E+10	1	-1E+10	1	-1E+10	1	-1E+10	1	-1E+10	1
4902551	50	C	12/27/2021	18:02	-133.330	49.482	0																										
4902551	51	C	01/06/2022	22:59	-133.147	49.496	0	0.20	0	7.0030	0	32.3250	0	25.312	0	0.198	0	277.4	4	92.7	4	-1E+10	1	-1E+10	1	-1E+10	1	-1E+10	1	-1E+10	1	-1E+10	1
4902551	51	C	01/06/2022	22:59	-133.147	49.496	0	0.30	0	7.0020	0	32.3260	0	25.313	0	0.297	0	284.5	4	95.1	4	-1E+10	1	-1E+10	1	-1E+10	1	-1E+10	1	-1E+10	1	-1E+10	1
4902551	51	C	01/06/2022	22:59	-133.147	49.496	0	0.40	0	7.0020	0	32.3270	0	25.314	0	0.397	0	284.5	4	95.1	4	-1E+10	1	-1E+10	1	-1E+10	1	-1E+10	1	-1E+10	1	-1E+10	1
4902551	51	C	01/06/2022	22:59	-133.147	49.496	0	1.10	0	7.0070	0	32.3250	0	25.311	0	1.091	0	-1e10	1	-1e10	1	-1E+10	1	-1E+10	1	-1E+10	1	-1E+10	1	-1E+10	1	-1E+10	1
4902551	51	C	01/06/2022	22:59	-133.147	49.496	0	2.00	0	7.0070	0	32.3260	0	25.312	0	1.983	0	277.3	4	92.7	4	-1E+10	1	-1E+10	1	-1E+10	1	-1E+10	1	-1E+10	1	-1E+10	1
4902551	51	C	01/06/2022	22:59	-133.147	49.496	0	3.00	0	7.0080	0	32.3240	0	25.311	0	2.974	0	277.2	4	92.7	4	-1E+10	1	-1E+10	1	-1E+10	1	-1E+10	1	-1E+10	1	-1E+10	1
4902551	51	C	01/06/2022	22:59	-133.147	49.496	0	4.00	0	7.0060	0	32.3250	0	25.312	0	3.966	0	277.3	4	92.7	4	-1E+10	1	-1E+10	1	-1E+10	1	-1E+10	1	-1E+10	1	-1E+10	1
4902551	51	C	01/06/2022	22:59	-133.147	49.496	0	4.80	0	7.0050	0	32.3260	0	25.313	0	4.759	0	277.2	4	92.6	4	-1E+10	1	-1E+10	1	-1E+10	1	-1E+10	1	-1E+10	1	-1E+10	1
4902551	51	C	01/06/2022	22:59	-133.147	49.496	0	6.10	0	7.0080	0	32.3260	0	25.312	0	6.048	0	277.1	4	92.6	4	-1E+10	1	-1E+10	1	-1E+10	1	-1E+10	1	-1E+10	1	-1E+10	1
4902551	51	C	01/06/2022	22:59	-133.147	49.496	0	7.20	0	7.0090	0	32.3260	0	25.312	0	7.138	0	277.1	4	92.6	4	-1E+10	1	-1E+10	1	-1E+10	1	-1E+10	1	-1E+10	1	-1E+10	1
4902551	51	C	01/06/2022	22:59	-133.147	49.496	0	8.10	0	7.0080	0	32.3260	0	25.312	0	8.031	0	277.0	4	92.6	4	-1E+10	1	-1E+10	1	-1E+10	1	-1E+10	1	-1E+10	1	-1E+10	1
4902551	51	C	01/06/2022	22:59	-133.147	49.496	0	8.90	0	7.0080	0	32.3260	0	25.312	0	8.824	0	276.9	4	92.6	4	-1E+10	1	-1E+10	1	-1E+10	1	-1E+10	1	-1E+10	1	-1E+10	1
4902551	51	C	01/06/2022	22:59	-133.147	49.496	0	9.90	0	7.0080	0	32.3260	0	25.312	0	9.815	0	276.9	4	92.6	4	-1E+10	1	-1E+10	1	-1E+10	1	-1E+10	1	-1E+10	1	-1E+10	1
4902551	51	C	01/06/2022	22:59	-133.147	49.496	0	10.80	0	7.0080	0	32.3260	0	25.312	0	10.708	0	276.9	4	92.6	4	-1E+10	1	-1E+10	1	-1E+10	1	-1E+10	1	-1E+10	1	-1E+10	1
4902551	51	C	01/06/2022	22:59	-133.147	49.496	0	11.70	0	7.0080	0	32.3260	0	25.312	0	11.600	0	276.9	4	92.5	4	-1E+10	1	-1E+10	1	-1E+10	1	-1E+10	1	-1E+10	1	-1E+10	1
4902551	51	C	01/06/2022	22:59	-133.147	49.496	0	12.80	0	7.0080	0	32.3260	0	25.312	0	12.690	0	276.8	4	92.5	4	-1E+10	1	-1E+10	1	-1E+10	1	-1E+10	1	-1E+10	1	-1E+10	1
4902551	51	C	01/06/2022	22:59	-133.147	49.496	0	14.00	0	7.0080	0	32.3260	0	25.312	0	13.880	0	276.8	4	92.5	4	-1E+10	1	-1E+10	1	-1E+10	1	-1E+10	1	-1E+10	1	-1E+10	1
4902551	51	C	01/06/2022	22:59	-133.147	49.496	0	15.10	0	7.0080	0	32.3260	0	25.312	0	14.971	0	276.7	4	92.5	4	-1E+10	1	-1E+10	1	-1E+10	1	-1E+10	1	-1E+10	1	-1E+10	1
4902551	51	C	01/06/2022	22:59	-133.147	49.496	0	16.00	0	7.0080	0	32.3260	0	25.312	0	15.863	0	276.7	4	92.5	4	-1E+10	1	-1E+10	1	-1E+10	1	-1E+10	1	-1E+10	1	-1E+10	1
4902551	51	C	01/06/2022	22:59	-133.147	49.496	0	16.90	0	7.0080	0	32.3260	0	25.312	0	16.755	0	276.7	4	92.5	4	-1E+10	1	-1E+10	1	-1E+10	1	-1E+10	1	-1E+10	1	-1E+10	1
4902551	51	C	01/06/2022	22:59	-133.147	49.496	0	18.00	0	7.0080	0	32.3260	0	25.312	0	17.846	0	276.7	4	92.5	4	-1E+10	1	-1E+10	1	-1E+10	1	-1E+10	1	-1E+10	1	-1E+10	1
4902551	51	C	01/06/2022	22:59	-133.147	49.496	0	18.90	0	7.0080	0	32.3260	0	25.312	0	18.738	0	276.7	4	92.5	4	-1E+10	1	-1E+10	1	-1E+10	1	-1E+10	1	-1E+10	1	-1E+10	1
4902551	51	C	01/06/2022	22:59	-133.147	49.496	0	19.80	0	7.0080	0	32.3260	0	25.312	0	19.630	0	276.6	4	92.4	4	-1E+10	1	-1E+10	1	-1E+10	1	-1E+10	1	-1E+10	1	-1E+10	1
4902551	51	C	01/06/2022	22:59	-133.147	49.496	0	20.90	0	7.0090	0	32.3260	0	25.312	0	20.721	0	276.6	4	92.5	4	-1E+10	1	-1E+10	1	-1E+10	1	-1E+10	1	-1E+10	1	-1E+10	1
4902551	51	C	01/06/2022	22:59	-133.147	49.496	0	21.80	0	7.0090	0	32.3260	0	25.312	0	21.613	0	276.6	4	92.5	4	-1E+10	1	-1E+10	1	-1E+10	1	-1E+10	1	-1E+10	1	-1E+10	1
4902551	51	C	01/06/2022	22:59	-133.147	49.496	0	22.90	0	7.0090	0	32.3260	0	25.312	0	22.703	0	276.6	4	92.4	4	-1E+10	1	-1E+10	1	-1E+10	1	-1E+10	1	-1E+10	1	-1E+10	1
4902551	51	C	01/06/2022	22:59	-133.147	49.496	0	24.10	0	7.0090	0	32.3260	0	25.312	0	23.893	0	276.6	4	92.4	4	-1E+10	1	-1E+10	1	-1E+10	1	-1E+10	1	-1E+10	1	-1E+10	1
4902551	51	C	01/06/2022	22:59	-133.147	49.496	0	25.00	0	7.0090	0	32.3260	0	25.312	0	24.785	0	276.5	4	92.4	4	-1E+10	1	-1E+10	1	-1E+10	1	-1E+10	1	-1E+10	1	-1E+10	1
4902551	51	C	01/06/2022	22:59	-133.147	49.496	0	25.90	0	7.0090	0	32.3260	0	25.312	0	25.678	0	276.5	4	92.4	4	-1E+10	1	-1E+10	1	-1E+10	1	-1E+10	1	-1E+10	1	-1E+10	1
4902551	51	C	01/06/2022	22:59	-133.147	49.496	0	27.00	0	7.0090	0	32.3260	0	25.312	0	26.768	0	276.5	4	92.4	4	-1E+10	1	-1E+10	1	-1E+10	1	-1E+10	1	-1E+10	1	-1E+10	1
4902551	51	C	01/06/2022	22:59	-133.147	49.496	0	28.10	0	7.0090	0	32.3260	0	25.312	0	27.858	0	276.5	4	92.4	4	-1E+10	1	-1E+10	1	-1E+10	1	-1E+10	1	-1E+10	1	-1E+10	1
4902551	51	C	01/06/2022	22:59	-133.147	49.496	0	29.10	0	7.0090	0	32.3260	0	25.312	0	28.850	0	276.4	4	92.4	4	-1E+10	1	-1E+10	1	-1E+10	1	-1E+10	1	-1E+10	1	-1E+10	1
4902551	51	C	01/06/2022	22:59	-133.147	49.496	0	30.00	0	7.0090	0	32.3260	0	25.312	0	29.742	0	276.4	4	92.4	4	-1E+10	1	-1E+10	1	-1E+10	1	-1E+10	1	-1E+10	1	-1E+10	1
4902551	51	C	01/06/2022	22:59	-133.147	49.496	0	31.00	0	7.0090	0	32.3260	0	25.312	0	30.733	0	276.3	4	92.4	4	-1E+10	1	-1E+10	1	-1E+10	1	-1E+10	1	-1E+10	1	-1E+10	1
4902551	51	C	01/06/2022	22:59	-133.147	49.496	0	32.10	0	7.0090	0	32.3260	0	25.312	0	31.824	0	276.4	4	92.4	4	-1E+10	1	-1E+10	1	-1E+10	1	-1E+10	1	-1E+10	1	-1E+10	1
4902551	51	C	01/06/2022	22:59	-133.147	49.496	0	33.10	0	7.0090	0	32.3260	0	25.312	0	32.815	0	276.2	4	92.3	4	-1E+10	1	-1E+10	1	-1E+10	1	-1E+10	1	-1E+10	1	-1E+10	1
4902551	51	C	01/06/2022	22:59	-133.147	49.496	0	34.00	0	7.0090	0	32.3260	0	25.312	0	33.707	0	276.2	4	92.3	4	-1E+10	1	-1E+10	1	-1E+10	1	-1E+10	1	-1E+10	1	-1E+10	1
4902551	51	C	01/06/2022	22:59	-133.147	49.496	0	34.70	0	7.0090	0	32.3260	0	25.312	0	34.401	0	276.2	4	92.3	4	-1E+10	1	-1E+10	1	-1E+10	1	-1E+10	1	-1E+10	1	-1E+10	1
4902551	51	C	01/06/2022	22:59	-133.147	49.496	0	35.80	0	7.0080	0	32.3260	0	25.312	0	35.492	0	276.1	4	92.3	4	-1E+10	1	-1E+10	1	-1E+10	1	-1E+10	1	-1E+10	1	-1E+10	1
4902551	51	C	01/06/2022	22:59	-133.147	49.496	0	36.90	0	7.0080	0	32.3260	0	25.312	0	36.582	0	276.2	4	92.3	4	-1E+10	1	-1E+10	1	-1E+10	1	-1E+10	1	-1E+10	1	-1E+10	1
4902551	51	C	01/06/2022	22:59	-133.147	49.496	0	38.00	0	7.0090	0	32.3260	0	25.312	0	37.672	0	276.2	4	92.3	4	-1E+10	1	-1E+10	1	-1E+10	1	-1E+10	1	-1E+10	1	-1E+10	1
4902551	51	C	01/06/2022	22:59	-133.147	49.496	0	39.00	0	7.0090	0	32.3260	0	25.312	0	38.664	0	276.1	4	92.3	4	-1E+10	1	-1E+10	1	-1E+10	1	-1E+10	1	-1E+10	1	-1E+10	1
4902551	51	C	01/06/2022	22:59	-133.147	49.496	0	40.00	0	7.0090	0	32.3260	0	25.312	0	39.655	0	276.0	4	92.3	4	-1E+10	1	-1E+10	1	-1E+10	1	-1E+10	1	-1E+10	1	-1E+10	1
4902551	51	C	01/06/2022	22:59	-133.147	49.496	0	41.10	0	7.0090	0	32.3260	0	25.312	0	40.745	0	276.0	4	92.2	4	-1E+10	1	-1E+10	1	-1E+10	1	-1E+10	1	-1E+10	1	-1E+10	1
4902551	51	C	01/06/2022	22:59	-133.147	49.496	0	42.00	0	7.0090	0	32.3260	0	25.312	0	41.638	0	276.0	4	92.2	4	-1E+10	1	-1E+10	1	-1E+10	1	-1E+10	1	-1E+10	1	-1E+10	1
4902551	51	C	01/06/2022	22:59	-133.147	49.496	0	42.80	0	7.0100	0	32.3260	0	25.312	0	42.431	0	276.0	4	92.2	4	-1E+10	1	-1E+10	1	-1E+10	1	-1E+10	1	-1E+10	1	-1E+10	1
4902551	51	C	01/06/2022	22:59	-133.147	49.496	0	43.80	0	7.0100	0	32.3260	0	25.312	0	43.422	0	275.9	4	92.2	4	-1E+10	1	-1E+10	1	-1E+10	1	-1E+10	1	-1E+10	1	-1E+10	1
4902551	51	C	01/06/2022	22:59	-133.147	49.496	0	44.90	0	7.0100	0	32.3260	0	25.312	0	44.512	0	275.8	4	92.2	4	-1E+10	1	-1E+10	1	-1E+10	1	-1E+10	1	-1E+10	1	-1E+10	1
4902551	51	C	01/06/2022	22:59	-133.147	49.496	0	46.00	0	7.0100	0	32.3260	0	25.312	0	45.603	0	275.7	4	92.2	4	-1E+10	1	-1E+10	1	-1E+10	1	-1E+10	1	-1E+10	1	-1E+10	1
4902551	51	C	01/06/2022	22:59	-133.147	49.496	0	47.10	0	7.0100	0	32.3260	0	25.312	0	46.693	0	275.6	4	92.1	4	-1E+10	1	-1E+10	1	-1E+10	1	-1E+10	1	-1E+10	1	-1E+10	1
4902551	51	C	01/06/2022	22:59	-133.147	49.496	0	48.00	0	7.0100	0	32.3260	0	25.312	0	47.585	0	275.6	4	92.1	4	-1E+10	1	-1E+10	1	-1E+10	1	-1E+10	1	-1E+10	1	-1E+10	1
4902551	51	C	01/06/2022	22:59	-133.147	49.496	0	48.70	0	7.0100	0	32.3260	0	25.312	0	48.279	0	275.6	4	92.1	4	-1E+10	1	-1E+10	1	-1E+10	1	-1E+10	1	-1E+10	1	-1E+10	1
4902551	51	C	01/06/2022	22:59	-133.147	49.496	0	49.80	0	7.0110	0	32.3260	0	25.312	0	49.369	0	275.4	4	92.1	4	-1E+10	1	-1E+10	1	-1E+10	1	-1E+10	1	-1E+10	1	-1E+10	1
4902551	51	C	01/06/2022	22:59	-133.147	49.496	0	51.00	0	7.0110	0	32.3260	0	25.312	0	50.559	0	275.4	4	92.0	4	-1E+10	1	-1E+10	1	-1E+10	1	-1E+10	1	-1E+10	1	-1E+10	1
4902551	51	C	01/06/2022	22:59	-133.147	49.496	0	52.00	0	7.0090	0	32.3270	0	25.313	0	51.550	0	275.2	4	92.0	4	-1E+10	1	-1E+10	1	-1E+10	1	-1E+10	1	-1E+10	1	-1E+10	1
4902551	51	C	01/06/2022	22:59	-133.147	49.496	0	52.80	0	7.0090	0	32.3260	0	25.313	0	52.343	0	275.2	4	92.0	4	-1E+10	1	-1E+10	1	-1E+10	1	-1E+10	1	-1E+10	1	-1E+10	1
4902551	51	C	01/06/2022	22:59	-133.147	49.496	0	53.90	0	7.0100	0	32.3260	0	25.312	0	53.433	0	275.1	4	92.0	4	-1E+10	1	-1E+10	1	-1E+10	1	-1E+10	1	-1E+10	1	-1E+10	1
4902551	51	C	01/06/2022	22:59	-133.147	49.496	0	54.90	0	7.0100	0	32.3260	0	25.312	0	54.425	0	275.0	4	91.9	4	-1E+10	1	-1E+10	1	-1E+10	1	-1E+10	1	-1E+10	1	-1E+10	1
4902551	51	C	01/06/2022	22:59	-133.147	49.496	0	56.00	0	7.0100	0	32.3260	0	25.312	0	55.515	0	274.9	4	91.9	4	-1E+10	1	-1E+10	1	-1E+10	1	-1E+10	1	-1E+10	1	-1E+10	1
4902551	51	C	01/06/2022	22:59	-133.147	49.496	0	57.00	0	7.0090	0	32.3260	0	25.313	0	56.506	0	274.8	4	91.8	4	-1E+10	1	-1E+10	1	-1E+10	1	-1E+10	1	-1E+10	1	-1E+10	1
4902551	51	C	01/06/2022	22:59	-133.147	49.496	0	58.10	0	7.0100	0	32.3270	0	25.313	0	57.596	0	274.7	4	91.8	4	-1E+10	1	-1E+10	1	-1E+10	1	-1E+10	1	-1E+10	1	-1E+10	1
4902551	51	C	01/06/2022	22:59	-133.147	49.496	0	59.10	0	7.0090	0	32.3270	0	25.313	0	58.588	0	274.6	4	91.8	4	-1E+10	1	-1E+10	1	-1E+10	1	-1E+10	1	-1E+10	1	-1E+10	1
4902551	51	C	01/06/2022	22:59	-133.147	49.496	0	60.10	0	7.0100	0	32.3270	0	25.313	0	59.579	0	274.5	4	91.7	4	-1E+10	1	-1E+10	1	-1E+10	1	-1E+10	1	-1E+10	1	-1E+10	1
4902551	51	C	01/06/2022	22:59	-133.147	49.496	0	60.80	0	7.0100	0	32.3270	0	25.313	0	60.273	0	274.4	4	91.7	4	-1E+10	1	-1E+10	1	-1E+10	1	-1E+10	1	-1E+10	1	-1E+10	1
4902551	51	C	01/06/2022	22:59	-133.147	49.496	0	61.90	0	7.0090	0	32.3270	0	25.313	0	61.363	0	274.3	4	91.7	4	-1E+10	1	-1E+10	1	-1E+10	1	-1E+10	1	-1E+10	1	-1E+10	1
4902551	51	C	01/06/2022	22:59	-133.147	49.496	0	63.10	0	7.0100	0	32.3270	0	25.313	0	62.552	0	274.2	4	91.6	4	-1E+10	1	-1E+10	1	-1E+10	1	-1E+10	1	-1E+10	1	-1E+10	1
4902551	51	C	01/06/2022	22:59	-133.147	49.496	0	63.90	0	7.0110	0	32.3270	0	25.313	0	63.345	0	274.1	4	91.6	4	-1E+10	1	-1E+10	1	-1E+10	1	-1E+10	1	-1E+10	1	-1E+10	1
4902551	51	C	01/06/2022	22:59	-133.147	49.496	0	64.90	0	7.0110	0	32.3260	0	25.312	0	64.336	0	273.8	4	91.5	4	-1E+10	1	-1E+10	1	-1E+10	1	-1E+10	1	-1E+10	1	-1E+10	1
4902551	51	C	01/06/2022	22:59	-133.147	49.496	0	66.00	0	7.0110	0	32.3270	0	25.313	0	65.427	0	273.7	4	91.5	4	-1E+10	1	-1E+10	1	-1E+10	1	-1E+10	1	-1E+10	1	-1E+10	1
4902551	51	C	01/06/2022	22:59	-133.147	49.496	0	67.00	0	7.0110	0	32.3260	0	25.312	0	66.418	0	273.5	4	91.4	4	-1E+10	1	-1E+10	1	-1E+10	1	-1E+10	1	-1E+10	1	-1E+10	1
4902551	51	C	01/06/2022	22:59	-133.147	49.496	0	68.10	0	7.0120	0	32.3270	0	25.313	0	67.508	0	273.2	4	91.3	4	-1E+10	1	-1E+10	1	-1E+10	1	-1E+10	1	-1E+10	1	-1E+10	1
4902551	51	C	01/06/2022	22:59	-133.147	49.496	0	68.80	0	7.0120	0	32.3260	0	25.312	0	68.202	0	273.1	4	91.3	4	-1E+10	1	-1E+10	1	-1E+10	1	-1E+10	1	-1E+10	1	-1E+10	1
4902551	51	C	01/06/2022	22:59	-133.147	49.496	0	69.90	0	7.0100	0	32.3270	0	25.313	0	69.292	0	272.8	4	91.2	4	-1E+10	1	-1E+10	1	-1E+10	1	-1E+10	1	-1E+10	1	-1E+10	1
4902551	51	C	01/06/2022	22:59	-133.147	49.496	0	71.10	0	7.0100	0	32.3270	0	25.313	0	70.482	0	272.5	4	91.1	4	-1E+10	1	-1E+10	1	-1E+10	1	-1E+10	1	-1E+10	1	-1E+10	1
4902551	51	C	01/06/2022	22:59	-133.147	49.496	0	71.90	0	7.0100	0	32.3270	0	25.313	0	71.274	0	272.2	4	91.0	4	-1E+10	1	-1E+10	1	-1E+10	1	-1E+10	1	-1E+10	1	-1E+10	1
4902551	51	C	01/06/2022	22:59	-133.147	49.496	0	72.90	0	7.0100	0	32.3270	0	25.313	0	72.266	0	271.8	4	90.8	4	-1E+10	1	-1E+10	1	-1E+10	1	-1E+10	1	-1E+10	1	-1E+10	1
4902551	51	C	01/06/2022	22:59	-133.147	49.496	0	74.00	0	7.0100	0	32.3270	0	25.313	0	73.356	0	271.4	4	90.7	4	-1E+10	1	-1E+10	1	-1E+10	1	-1E+10	1	-1E+10	1	-1E+10	1
4902551	51	C	01/06/2022	22:59	-133.147	49.496	0	75.00	0	7.0110	0	32.3270	0	25.313	0	74.347	0	271.0	4	90.6	4	-1E+10	1	-1E+10	1	-1E+10	1	-1E+10	1	-1E+10	1	-1E+10	1
4902551	51	C	01/06/2022	22:59	-133.147	49.496	0	75.90	0	7.0120	0	32.3270	0	25.313	0	75.239	0	270.6	4	90.4	4	-1E+10	1	-1E+10	1	-1E+10	1	-1E+10	1	-1E+10	1	-1E+10	1
4902551	51	C	01/06/2022	22:59	-133.147	49.496	0	76.90	0	7.0110	0	32.3270	0	25.313	0	76.230	0	269.7	4	90.2	4	-1E+10	1	-1E+10	1	-1E+10	1	-1E+10	1	-1E+10	1	-1E+10	1
4902551	51	C	01/06/2022	22:59	-133.147	49.496	0	78.30	0	7.0110	0	32.3270	0	25.313	0	77.618	0	268.4	4	89.7	4	-1E+10	1	-1E+10	1	-1E+10	1	-1E+10	1	-1E+10	1	-1E+10	1
4902551	51	C	01/06/2022	22:59	-133.147	49.496	0	79.00	0	7.0110	0	32.3270	0	25.313	0	78.311	0	267.2	4	89.3	4	-1E+10	1	-1E+10	1	-1E+10	1	-1E+10	1	-1E+10	1	-1E+10	1
4902551	51	C	01/06/2022	22:59	-133.147	49.496	0	80.10	0	7.0120	0	32.3270	0	25.313	0	79.402	0	264.8	4	88.5	4	-1E+10	1	-1E+10	1	-1E+10	1	-1E+10	1	-1E+10	1	-1E+10	1
4902551	51	C	01/06/2022	22:59	-133.147	49.496	0	80.80	0	7.0080	0	32.3270	0	25.314	0	80.095	0	262.5	4	87.7	4	-1E+10	1	-1E+10	1	-1E+10	1	-1E+10	1	-1E+10	1	-1E+10	1
4902551	51	C	01/06/2022	22:59	-133.147	49.496	0	81.90	0	7.0040	0	32.3310	0	25.317	0	81.186	0	258.8	4	86.5	4	-1E+10	1	-1E+10	1	-1E+10	1	-1E+10	1	-1E+10	1	-1E+10	1
4902551	51	C	01/06/2022	22:59	-133.147	49.496	0	82.90	0	6.9630	0	32.3670	0	25.351	0	82.177	0	254.1	4	84.9	4	-1E+10	1	-1E+10	1	-1E+10	1	-1E+10	1	-1E+10	1	-1E+10	1
4902551	51	C	01/06/2022	22:59	-133.147	49.496	0	84.00	0	6.8680	0	32.4220	0	25.407	0	83.267	0	255.5	4	85.2	4	-1E+10	1	-1E+10	1	-1E+10	1	-1E+10	1	-1E+10	1	-1E+10	1
4902551	51	C	01/06/2022	22:59	-133.147	49.496	0	85.00	0	6.7050	0	32.5060	0	25.495	0	84.258	0	252.9	4	84.0	4	-1E+10	1	-1E+10	1	-1E+10	1	-1E+10	1	-1E+10	1	-1E+10	1
4902551	51	C	01/06/2022	22:59	-133.147	49.496	0	86.00	0	6.5380	0	32.5780	0	25.573	0	85.249	0	250.3	4	82.9	4	-1E+10	1	-1E+10	1	-1E+10	1	-1E+10	1	-1E+10	1	-1E+10	1
4902551	51	C	01/06/2022	22:59	-133.147	49.496	0	87.00	0	6.4460	0	32.6190	0	25.617	0	86.240	0	247.1	4	81.7	4	-1E+10	1	-1E+10	1	-1E+10	1	-1E+10	1	-1E+10	1	-1E+10	1
4902551	51	C	01/06/2022	22:59	-133.147	49.496	0	88.00	0	6.4250	0	32.6270	0	25.626	0	87.231	0	243.4	4	80.4	4	-1E+10	1	-1E+10	1	-1E+10	1	-1E+10	1	-1E+10	1	-1E+10	1
4902551	51	C	01/06/2022	22:59	-133.147	49.496	0	88.90	0	6.4180	0	32.6280	0	25.628	0	88.123	0	240.3	4	79.4	4	-1E+10	1	-1E+10	1	-1E+10	1	-1E+10	1	-1E+10	1	-1E+10	1
4902551	51	C	01/06/2022	22:59	-133.147	49.496	0	90.00	0	6.3320	0	32.6690	0	25.671	0	89.213	0	237.2	4	78.2	4	-1E+10	1	-1E+10	1	-1E+10	1	-1E+10	1	-1E+10	1	-1E+10	1
4902551	51	C	01/06/2022	22:59	-133.147	49.496	0	91.20	0	6.2110	0	32.7290	0	25.733	0	90.402	0	234.5	4	77.2	4	-1E+10	1	-1E+10	1	-1E+10	1	-1E+10	1	-1E+10	1	-1E+10	1
4902551	51	C	01/06/2022	22:59	-133.147	49.496	0	92.10	0	6.1860	0	32.7400	0	25.745	0	91.294	0	232.3	4	76.4	4	-1E+10	1	-1E+10	1	-1E+10	1	-1E+10	1	-1E+10	1	-1E+10	1
4902551	51	C	01/06/2022	22:59	-133.147	49.496	0	92.70	0	6.1530	0	32.7610	0	25.766	0	91.889	0	230.5	4	75.8	4	-1E+10	1	-1E+10	1	-1E+10	1	-1E+10	1	-1E+10	1	-1E+10	1
4902551	51	C	01/06/2022	22:59	-133.147	49.496	0	93.90	0	6.1200	0	32.7850	0	25.789	0	93.078	0	227.9	4	74.9	4	-1E+10	1	-1E+10	1	-1E+10	1	-1E+10	1	-1E+10	1	-1E+10	1
4902551	51	C	01/06/2022	22:59	-133.147	49.496	0	95.00	0	6.0980	0	32.8080	0	25.810	0	94.168	0	225.4	4	74.0	4	-1E+10	1	-1E+10	1	-1E+10	1	-1E+10	1	-1E+10	1	-1E+10	1
4902551	51	C	01/06/2022	22:59	-133.147	49.496	0	95.90	0	6.0700	0	32.8510	0	25.847	0	95.060	0	223.2	4	73.3	4	-1E+10	1	-1E+10	1	-1E+10	1	-1E+10	1	-1E+10	1	-1E+10	1
4902551	51	C	01/06/2022	22:59	-133.147	49.496	0	97.00	0	6.0640	0	32.8720	0	25.865	0	96.150	0	220.7	4	72.5	4	-1E+10	1	-1E+10	1	-1E+10	1	-1E+10	1	-1E+10	1	-1E+10	1
4902551	51	C	01/06/2022	22:59	-133.147	49.496	0	98.10	0	6.0640	0	32.8770	0	25.869	0	97.240	0	217.3	4	71.3	4	-1E+10	1	-1E+10	1	-1E+10	1	-1E+10	1	-1E+10	1	-1E+10	1
4902551	51	C	01/06/2022	22:59	-133.147	49.496	0	99.00	0	6.0630	0	32.8810	0	25.872	0	98.132	0	214.7	4	70.5	4	-1E+10	1	-1E+10	1	-1E+10	1	-1E+10	1	-1E+10	1	-1E+10	1
4902551	51	C	01/06/2022	22:59	-133.147	49.496	0	100.10	0	6.0600	0	32.8990	0	25.886	0	99.222	0	211.9	4	69.6	4	-1E+10	1	-1E+10	1	-1E+10	1	-1E+10	1	-1E+10	1	-1E+10	1
4902551	51	C	01/06/2022	22:59	-133.147	49.496	0	100.90	0	6.0550	0	32.9260	0	25.908	0	100.015	0	209.2	4	68.7	4	-1E+10	1	-1E+10	1	-1E+10	1	-1E+10	1	-1E+10	1	-1E+10	1
4902551	51	C	01/06/2022	22:59	-133.147	49.496	0	101.90	0	6.0550	0	32.9390	0	25.919	0	101.006	0	206.0	4	67.6	4	-1E+10	1	-1E+10	1	-1E+10	1	-1E+10	1	-1E+10	1	-1E+10	1
4902551	51	C	01/06/2022	22:59	-133.147	49.496	0	102.90	0	6.0560	0	32.9680	0	25.941	0	101.997	0	202.4	4	66.5	4	-1E+10	1	-1E+10	1	-1E+10	1	-1E+10	1	-1E+10	1	-1E+10	1
4902551	51	C	01/06/2022	22:59	-133.147	49.496	0	104.10	0	6.0670	0	33.0360	0	25.994	0	103.186	0	198.7	4	65.3	4	-1E+10	1	-1E+10	1	-1E+10	1	-1E+10	1	-1E+10	1	-1E+10	1
4902551	51	C	01/06/2022	22:59	-133.147	49.496	0	104.80	0	6.0700	0	33.0500	0	26.005	0	103.880	0	195.9	4	64.4	4	-1E+10	1	-1E+10	1	-1E+10	1	-1E+10	1	-1E+10	1	-1E+10	1
4902551	51	C	01/06/2022	22:59	-133.147	49.496	0	105.90	0	6.0750	0	33.0680	0	26.018	0	104.970	0	191.6	4	63.0	4	-1E+10	1	-1E+10	1	-1E+10	1	-1E+10	1	-1E+10	1	-1E+10	1
4902551	51	C	01/06/2022	22:59	-133.147	49.496	0	106.90	0	6.0790	0	33.0880	0	26.033	0	105.961	0	187.4	4	61.7	4	-1E+10	1	-1E+10	1	-1E+10	1	-1E+10	1	-1E+10	1	-1E+10	1
4902551	51	C	01/06/2022	22:59	-133.147	49.496	0	108.00	0	6.0880	0	33.1350	0	26.069	0	107.051	0	182.2	4	60.0	4	-1E+10	1	-1E+10	1	-1E+10	1	-1E+10	1	-1E+10	1	-1E+10	1
4902551	51	C	01/06/2022	22:59	-133.147	49.496	0	109.30	0	6.1000	0	33.2350	0	26.147	0	108.339	0	176.3	4	58.1	4	-1E+10	1	-1E+10	1	-1E+10	1	-1E+10	1	-1E+10	1	-1E+10	1
4902551	51	C	01/06/2022	22:59	-133.147	49.496	0	110.00	0	6.1100	0	33.3150	0	26.209	0	109.033	0	174.5	4	57.6	4	-1E+10	1	-1E+10	1	-1E+10	1	-1E+10	1	-1E+10	1	-1E+10	1
4902551	51	C	01/06/2022	22:59	-133.147	49.496	0	111.20	0	6.1100	0	33.3340	0	26.224	0	110.222	0	171.9	4	56.7	4	-1E+10	1	-1E+10	1	-1E+10	1	-1E+10	1	-1E+10	1	-1E+10	1
4902551	51	C	01/06/2022	22:59	-133.147	49.496	0	111.90	0	6.1090	0	33.3520	0	26.238	0	110.916	0	169.8	4	56.0	4	-1E+10	1	-1E+10	1	-1E+10	1	-1E+10	1	-1E+10	1	-1E+10	1
4902551	51	C	01/06/2022	22:59	-133.147	49.496	0	113.00	0	6.1070	0	33.3790	0	26.260	0	112.006	0	166.9	4	55.0	4	-1E+10	1	-1E+10	1	-1E+10	1	-1E+10	1	-1E+10	1	-1E+10	1
4902551	51	C	01/06/2022	22:59	-133.147	49.496	0	113.90	0	6.1080	0	33.3970	0	26.274	0	112.898	0	164.6	4	54.3	4	-1E+10	1	-1E+10	1	-1E+10	1	-1E+10	1	-1E+10	1	-1E+10	1
4902551	51	C	01/06/2022	22:59	-133.147	49.496	0	114.80	0	6.1070	0	33.4180	0	26.291	0	113.789	0	162.4	4	53.6	4	-1E+10	1	-1E+10	1	-1E+10	1	-1E+10	1	-1E+10	1	-1E+10	1
4902551	51	C	01/06/2022	22:59	-133.147	49.496	0	115.80	0	6.1000	0	33.4550	0	26.321	0	114.780	0	160.5	4	53.0	4	-1E+10	1	-1E+10	1	-1E+10	1	-1E+10	1	-1E+10	1	-1E+10	1
4902551	51	C	01/06/2022	22:59	-133.147	49.496	0	116.80	0	6.0930	0	33.4810	0	26.342	0	115.771	0	159.5	4	52.6	4	-1E+10	1	-1E+10	1	-1E+10	1	-1E+10	1	-1E+10	1	-1E+10	1
4902551	51	C	01/06/2022	22:59	-133.147	49.496	0	118.10	0	6.0880	0	33.4980	0	26.356	0	117.059	0	158.2	4	52.2	4	-1E+10	1	-1E+10	1	-1E+10	1	-1E+10	1	-1E+10	1	-1E+10	1
4902551	51	C	01/06/2022	22:59	-133.147	49.496	0	119.10	0	6.0870	0	33.5060	0	26.363	0	118.050	0	157.2	4	51.9	4	-1E+10	1	-1E+10	1	-1E+10	1	-1E+10	1	-1E+10	1	-1E+10	1
4902551	51	C	01/06/2022	22:59	-133.147	49.496	0	120.00	0	6.0850	0	33.5130	0	26.368	0	118.942	0	156.0	4	51.5	4	-1E+10	1	-1E+10	1	-1E+10	1	-1E+10	1	-1E+10	1	-1E+10	1
4902551	51	C	01/06/2022	22:59	-133.147	49.496	0	121.10	0	6.0820	0	33.5240	0	26.378	0	120.032	0	154.7	4	51.1	4	-1E+10	1	-1E+10	1	-1E+10	1	-1E+10	1	-1E+10	1	-1E+10	1
4902551	51	C	01/06/2022	22:59	-133.147	49.496	0	121.80	0	6.0790	0	33.5310	0	26.383	0	120.726	0	153.9	4	50.8	4	-1E+10	1	-1E+10	1	-1E+10	1	-1E+10	1	-1E+10	1	-1E+10	1
4902551	51	C	01/06/2022	22:59	-133.147	49.496	0	122.90	0	6.0730	0	33.5440	0	26.395	0	121.816	0	152.5	4	50.3	4	-1E+10	1	-1E+10	1	-1E+10	1	-1E+10	1	-1E+10	1	-1E+10	1
4902551	51	C	01/06/2022	22:59	-133.147	49.496	0	124.00	0	6.0570	0	33.5750	0	26.421	0	122.906	0	151.4	4	50.0	4	-1E+10	1	-1E+10	1	-1E+10	1	-1E+10	1	-1E+10	1	-1E+10	1
4902551	51	C	01/06/2022	22:59	-133.147	49.496	0	124.80	0	6.0540	0	33.5830	0	26.428	0	123.698	0	150.7	4	49.7	4	-1E+10	1	-1E+10	1	-1E+10	1	-1E+10	1	-1E+10	1	-1E+10	1
4902551	51	C	01/06/2022	22:59	-133.147	49.496	0	126.00	0	6.0460	0	33.5940	0	26.437	0	124.887	0	149.8	4	49.4	4	-1E+10	1	-1E+10	1	-1E+10	1	-1E+10	1	-1E+10	1	-1E+10	1
4902551	51	C	01/06/2022	22:59	-133.147	49.496	0	127.20	0	6.0440	0	33.5960	0	26.439	0	126.076	0	148.9	4	49.1	4	-1E+10	1	-1E+10	1	-1E+10	1	-1E+10	1	-1E+10	1	-1E+10	1
4902551	51	C	01/06/2022	22:59	-133.147	49.496	0	128.00	0	6.0430	0	33.5980	0	26.441	0	126.869	0	148.3	4	48.9	4	-1E+10	1	-1E+10	1	-1E+10	1	-1E+10	1	-1E+10	1	-1E+10	1
4902551	51	C	01/06/2022	22:59	-133.147	49.496	0	128.80	0	6.0350	0	33.6060	0	26.448	0	127.662	0	147.8	4	48.8	4	-1E+10	1	-1E+10	1	-1E+10	1	-1E+10	1	-1E+10	1	-1E+10	1
4902551	51	C	01/06/2022	22:59	-133.147	49.496	0	130.00	0	6.0230	0	33.6190	0	26.460	0	128.851	0	147.4	4	48.6	4	-1E+10	1	-1E+10	1	-1E+10	1	-1E+10	1	-1E+10	1	-1E+10	1
4902551	51	C	01/06/2022	22:59	-133.147	49.496	0	131.30	0	6.0200	0	33.6230	0	26.464	0	130.139	0	146.9	4	48.4	4	-1E+10	1	-1E+10	1	-1E+10	1	-1E+10	1	-1E+10	1	-1E+10	1
4902551	51	C	01/06/2022	22:59	-133.147	49.496	0	132.10	0	6.0200	0	33.6230	0	26.464	0	130.932	0	146.5	4	48.3	4	-1E+10	1	-1E+10	1	-1E+10	1	-1E+10	1	-1E+10	1	-1E+10	1
4902551	51	C	01/06/2022	22:59	-133.147	49.496	0	132.90	0	6.0170	0	33.6260	0	26.466	0	131.724	0	146.1	4	48.2	4	-1E+10	1	-1E+10	1	-1E+10	1	-1E+10	1	-1E+10	1	-1E+10	1
4902551	51	C	01/06/2022	22:59	-133.147	49.496	0	133.80	0	6.0120	0	33.6340	0	26.473	0	132.616	0	145.6	4	48.0	4	-1E+10	1	-1E+10	1	-1E+10	1	-1E+10	1	-1E+10	1	-1E+10	1
4902551	51	C	01/06/2022	22:59	-133.147	49.496	0	134.60	0	6.0090	0	33.6380	0	26.477	0	133.409	0	145.1	4	47.8	4	-1E+10	1	-1E+10	1	-1E+10	1	-1E+10	1	-1E+10	1	-1E+10	1
4902551	51	C	01/06/2022	22:59	-133.147	49.496	0	135.90	0	6.0040	0	33.6430	0	26.481	0	134.697	0	144.2	4	47.6	4	-1E+10	1	-1E+10	1	-1E+10	1	-1E+10	1	-1E+10	1	-1E+10	1
4902551	51	C	01/06/2022	22:59	-133.147	49.496	0	137.20	0	5.9990	0	33.6480	0	26.486	0	135.985	0	143.2	4	47.2	4	-1E+10	1	-1E+10	1	-1E+10	1	-1E+10	1	-1E+10	1	-1E+10	1
4902551	51	C	01/06/2022	22:59	-133.147	49.496	0	138.10	0	5.9940	0	33.6510	0	26.489	0	136.877	0	142.6	4	47.0	4	-1E+10	1	-1E+10	1	-1E+10	1	-1E+10	1	-1E+10	1	-1E+10	1
4902551	51	C	01/06/2022	22:59	-133.147	49.496	0	139.00	0	5.9860	0	33.6600	0	26.497	0	137.768	0	142.0	4	46.8	4	-1E+10	1	-1E+10	1	-1E+10	1	-1E+10	1	-1E+10	1	-1E+10	1
4902551	51	C	01/06/2022	22:59	-133.147	49.496	0	139.90	0	5.9840	0	33.6620	0	26.499	0	138.660	0	141.3	4	46.6	4	-1E+10	1	-1E+10	1	-1E+10	1	-1E+10	1	-1E+10	1	-1E+10	1
4902551	51	C	01/06/2022	22:59	-133.147	49.496	0	140.80	0	5.9840	0	33.6620	0	26.499	0	139.552	0	140.6	4	46.3	4	-1E+10	1	-1E+10	1	-1E+10	1	-1E+10	1	-1E+10	1	-1E+10	1
4902551	51	C	01/06/2022	22:59	-133.147	49.496	0	141.70	0	5.9830	0	33.6630	0	26.500	0	140.443	0	139.8	4	46.1	4	-1E+10	1	-1E+10	1	-1E+10	1	-1E+10	1	-1E+10	1	-1E+10	1
4902551	51	C	01/06/2022	22:59	-133.147	49.496	0	142.60	0	5.9800	0	33.6660	0	26.503	0	141.335	0	138.8	4	45.7	4	-1E+10	1	-1E+10	1	-1E+10	1	-1E+10	1	-1E+10	1	-1E+10	1
4902551	51	C	01/06/2022	22:59	-133.147	49.496	0	143.90	0	5.9740	0	33.6700	0	26.507	0	142.623	0	137.2	4	45.2	4	-1E+10	1	-1E+10	1	-1E+10	1	-1E+10	1	-1E+10	1	-1E+10	1
4902551	51	C	01/06/2022	22:59	-133.147	49.496	0	145.40	0	5.9690	0	33.6730	0	26.510	0	144.109	0	135.7	4	44.7	4	-1E+10	1	-1E+10	1	-1E+10	1	-1E+10	1	-1E+10	1	-1E+10	1
4902551	51	C	01/06/2022	22:59	-133.147	49.496	0	146.30	0	5.9550	0	33.6830	0	26.519	0	145.001	0	134.8	4	44.4	4	-1E+10	1	-1E+10	1	-1E+10	1	-1E+10	1	-1E+10	1	-1E+10	1
4902551	51	C	01/06/2022	22:59	-133.147	49.496	0	147.20	0	5.9490	0	33.6860	0	26.522	0	145.893	0	133.9	4	44.1	4	-1E+10	1	-1E+10	1	-1E+10	1	-1E+10	1	-1E+10	1	-1E+10	1
4902551	51	C	01/06/2022	22:59	-133.147	49.496	0	148.10	0	5.9430	0	33.6900	0	26.526	0	146.784	0	133.0	4	43.8	4	-1E+10	1	-1E+10	1	-1E+10	1	-1E+10	1	-1E+10	1	-1E+10	1
4902551	51	C	01/06/2022	22:59	-133.147	49.496	0	149.10	0	5.9390	0	33.6930	0	26.529	0	147.775	0	132.1	4	43.5	4	-1E+10	1	-1E+10	1	-1E+10	1	-1E+10	1	-1E+10	1	-1E+10	1
4902551	51	C	01/06/2022	22:59	-133.147	49.496	0	150.00	0	5.9140	0	33.7030	0	26.540	0	148.667	0	131.3	4	43.2	4	-1E+10	1	-1E+10	1	-1E+10	1	-1E+10	1	-1E+10	1	-1E+10	1
4902551	51	C	01/06/2022	22:59	-133.147	49.496	0	151.00	0	5.9050	0	33.7080	0	26.545	0	149.658	0	130.5	4	43.0	4	-1E+10	1	-1E+10	1	-1E+10	1	-1E+10	1	-1E+10	1	-1E+10	1
4902551	51	C	01/06/2022	22:59	-133.147	49.496	0	151.90	0	5.8990	0	33.7110	0	26.548	0	150.549	0	129.7	4	42.7	4	-1E+10	1	-1E+10	1	-1E+10	1	-1E+10	1	-1E+10	1	-1E+10	1
4902551	51	C	01/06/2022	22:59	-133.147	49.496	0	152.90	0	5.8920	0	33.7120	0	26.550	0	151.540	0	128.9	4	42.4	4	-1E+10	1	-1E+10	1	-1E+10	1	-1E+10	1	-1E+10	1	-1E+10	1
4902551	51	C	01/06/2022	22:59	-133.147	49.496	0	153.90	0	5.8510	0	33.7270	0	26.567	0	152.531	0	128.3	4	42.2	4	-1E+10	1	-1E+10	1	-1E+10	1	-1E+10	1	-1E+10	1	-1E+10	1
4902551	51	C	01/06/2022	22:59	-133.147	49.496	0	154.80	0	5.8350	0	33.7310	0	26.572	0	153.422	0	127.6	4	42.0	4	-1E+10	1	-1E+10	1	-1E+10	1	-1E+10	1	-1E+10	1	-1E+10	1
4902551	51	C	01/06/2022	22:59	-133.147	49.496	0	155.80	0	5.8210	0	33.7330	0	26.575	0	154.413	0	126.9	4	41.7	4	-1E+10	1	-1E+10	1	-1E+10	1	-1E+10	1	-1E+10	1	-1E+10	1
4902551	51	C	01/06/2022	22:59	-133.147	49.496	0	156.80	0	5.7960	0	33.7410	0	26.585	0	155.404	0	126.4	4	41.5	4	-1E+10	1	-1E+10	1	-1E+10	1	-1E+10	1	-1E+10	1	-1E+10	1
4902551	51	C	01/06/2022	22:59	-133.147	49.496	0	157.70	0	5.7740	0	33.7470	0	26.592	0	156.296	0	126.0	4	41.4	4	-1E+10	1	-1E+10	1	-1E+10	1	-1E+10	1	-1E+10	1	-1E+10	1
4902551	51	C	01/06/2022	22:59	-133.147	49.496	0	158.70	0	5.7700	0	33.7470	0	26.593	0	157.286	0	125.6	4	41.2	4	-1E+10	1	-1E+10	1	-1E+10	1	-1E+10	1	-1E+10	1	-1E+10	1
4902551	51	C	01/06/2022	22:59	-133.147	49.496	0	159.70	0	5.7600	0	33.7500	0	26.596	0	158.277	0	125.1	4	41.1	4	-1E+10	1	-1E+10	1	-1E+10	1	-1E+10	1	-1E+10	1	-1E+10	1
4902551	51	C	01/06/2022	22:59	-133.147	49.496	0	160.70	0	5.7560	0	33.7510	0	26.598	0	159.268	0	124.7	4	40.9	4	-1E+10	1	-1E+10	1	-1E+10	1	-1E+10	1	-1E+10	1	-1E+10	1
4902551	51	C	01/06/2022	22:59	-133.147	49.496	0	161.70	0	5.7550	0	33.7510	0	26.598	0	160.258	0	124.1	4	40.7	4	-1E+10	1	-1E+10	1	-1E+10	1	-1E+10	1	-1E+10	1	-1E+10	1
4902551	51	C	01/06/2022	22:59	-133.147	49.496	0	162.60	0	5.7500	0	33.7520	0	26.599	0	161.150	0	123.6	4	40.5	4	-1E+10	1	-1E+10	1	-1E+10	1	-1E+10	1	-1E+10	1	-1E+10	1
4902551	51	C	01/06/2022	22:59	-133.147	49.496	0	163.50	0	5.7450	0	33.7530	0	26.601	0	162.042	0	123.0	4	40.4	4	-1E+10	1	-1E+10	1	-1E+10	1	-1E+10	1	-1E+10	1	-1E+10	1
4902551	51	C	01/06/2022	22:59	-133.147	49.496	0	164.90	0	5.7370	0	33.7560	0	26.604	0	163.429	0	122.2	4	40.1	4	-1E+10	1	-1E+10	1	-1E+10	1	-1E+10	1	-1E+10	1	-1E+10	1
4902551	51	C	01/06/2022	22:59	-133.147	49.496	0	166.40	0	5.7300	0	33.7580	0	26.606	0	164.915	0	121.4	4	39.8	4	-1E+10	1	-1E+10	1	-1E+10	1	-1E+10	1	-1E+10	1	-1E+10	1
4902551	51	C	01/06/2022	22:59	-133.147	49.496	0	167.30	0	5.7240	0	33.7580	0	26.607	0	165.806	0	120.9	4	39.6	4	-1E+10	1	-1E+10	1	-1E+10	1	-1E+10	1	-1E+10	1	-1E+10	1
4902551	51	C	01/06/2022	22:59	-133.147	49.496	0	168.30	0	5.7040	0	33.7640	0	26.614	0	166.797	0	120.4	4	39.5	4	-1E+10	1	-1E+10	1	-1E+10	1	-1E+10	1	-1E+10	1	-1E+10	1
4902551	51	C	01/06/2022	22:59	-133.147	49.496	0	169.20	0	5.6820	0	33.7680	0	26.620	0	167.688	0	120.0	4	39.3	4	-1E+10	1	-1E+10	1	-1E+10	1	-1E+10	1	-1E+10	1	-1E+10	1
4902551	51	C	01/06/2022	22:59	-133.147	49.496	0	170.10	0	5.6780	0	33.7670	0	26.620	0	168.580	0	119.5	4	39.2	4	-1E+10	1	-1E+10	1	-1E+10	1	-1E+10	1	-1E+10	1	-1E+10	1
4902551	51	C	01/06/2022	22:59	-133.147	49.496	0	171.10	0	5.6780	0	33.7670	0	26.620	0	169.571	0	119.1	4	39.0	4	-1E+10	1	-1E+10	1	-1E+10	1	-1E+10	1	-1E+10	1	-1E+10	1
4902551	51	C	01/06/2022	22:59	-133.147	49.496	0	172.00	0	5.6780	0	33.7670	0	26.620	0	170.462	0	118.5	4	38.8	4	-1E+10	1	-1E+10	1	-1E+10	1	-1E+10	1	-1E+10	1	-1E+10	1
4902551	51	C	01/06/2022	22:59	-133.147	49.496	0	173.00	0	5.6590	0	33.7730	0	26.627	0	171.453	0	118.0	4	38.6	4	-1E+10	1	-1E+10	1	-1E+10	1	-1E+10	1	-1E+10	1	-1E+10	1
4902551	51	C	01/06/2022	22:59	-133.147	49.496	0	173.90	0	5.6380	0	33.7740	0	26.630	0	172.344	0	117.7	4	38.5	4	-1E+10	1	-1E+10	1	-1E+10	1	-1E+10	1	-1E+10	1	-1E+10	1
4902551	51	C	01/06/2022	22:59	-133.147	49.496	0	174.80	0	5.6370	0	33.7740	0	26.630	0	173.236	0	117.3	4	38.4	4	-1E+10	1	-1E+10	1	-1E+10	1	-1E+10	1	-1E+10	1	-1E+10	1
4902551	51	C	01/06/2022	22:59	-133.147	49.496	0	175.70	0	5.6370	0	33.7740	0	26.630	0	174.128	0	116.8	4	38.2	4	-1E+10	1	-1E+10	1	-1E+10	1	-1E+10	1	-1E+10	1	-1E+10	1
4902551	51	C	01/06/2022	22:59	-133.147	49.496	0	176.70	0	5.6280	0	33.7760	0	26.633	0	175.118	0	116.4	4	38.1	4	-1E+10	1	-1E+10	1	-1E+10	1	-1E+10	1	-1E+10	1	-1E+10	1
4902551	51	C	01/06/2022	22:59	-133.147	49.496	0	177.60	0	5.6210	0	33.7770	0	26.635	0	176.010	0	116.0	4	37.9	4	-1E+10	1	-1E+10	1	-1E+10	1	-1E+10	1	-1E+10	1	-1E+10	1
4902551	51	C	01/06/2022	22:59	-133.147	49.496	0	178.90	0	5.6180	0	33.7770	0	26.635	0	177.298	0	115.2	4	37.7	4	-1E+10	1	-1E+10	1	-1E+10	1	-1E+10	1	-1E+10	1	-1E+10	1
4902551	51	C	01/06/2022	22:59	-133.147	49.496	0	180.30	0	5.6120	0	33.7780	0	26.637	0	178.684	0	114.4	4	37.4	4	-1E+10	1	-1E+10	1	-1E+10	1	-1E+10	1	-1E+10	1	-1E+10	1
4902551	51	C	01/06/2022	22:59	-133.147	49.496	0	181.20	0	5.6040	0	33.7790	0	26.638	0	179.576	0	113.8	4	37.2	4	-1E+10	1	-1E+10	1	-1E+10	1	-1E+10	1	-1E+10	1	-1E+10	1
4902551	51	C	01/06/2022	22:59	-133.147	49.496	0	182.00	0	5.5860	0	33.7830	0	26.644	0	180.369	0	113.2	4	37.0	4	-1E+10	1	-1E+10	1	-1E+10	1	-1E+10	1	-1E+10	1	-1E+10	1
4902551	51	C	01/06/2022	22:59	-133.147	49.496	0	182.90	0	5.5780	0	33.7830	0	26.645	0	181.260	0	112.6	4	36.8	4	-1E+10	1	-1E+10	1	-1E+10	1	-1E+10	1	-1E+10	1	-1E+10	1
4902551	51	C	01/06/2022	22:59	-133.147	49.496	0	183.80	0	5.5670	0	33.7840	0	26.647	0	182.152	0	112.0	4	36.6	4	-1E+10	1	-1E+10	1	-1E+10	1	-1E+10	1	-1E+10	1	-1E+10	1
4902551	51	C	01/06/2022	22:59	-133.147	49.496	0	184.60	0	5.5560	0	33.7840	0	26.648	0	182.944	0	111.4	4	36.4	4	-1E+10	1	-1E+10	1	-1E+10	1	-1E+10	1	-1E+10	1	-1E+10	1
4902551	51	C	01/06/2022	22:59	-133.147	49.496	0	185.90	0	5.5200	0	33.7890	0	26.656	0	184.232	0	110.6	4	36.1	4	-1E+10	1	-1E+10	1	-1E+10	1	-1E+10	1	-1E+10	1	-1E+10	1
4902551	51	C	01/06/2022	22:59	-133.147	49.496	0	187.20	0	5.4800	0	33.7940	0	26.665	0	185.520	0	109.9	4	35.8	4	-1E+10	1	-1E+10	1	-1E+10	1	-1E+10	1	-1E+10	1	-1E+10	1
4902551	51	C	01/06/2022	22:59	-133.147	49.496	0	188.10	0	5.4790	0	33.7940	0	26.665	0	186.411	0	109.5	4	35.7	4	-1E+10	1	-1E+10	1	-1E+10	1	-1E+10	1	-1E+10	1	-1E+10	1
4902551	51	C	01/06/2022	22:59	-133.147	49.496	0	188.90	0	5.4740	0	33.7940	0	26.666	0	187.204	0	109.0	4	35.5	4	-1E+10	1	-1E+10	1	-1E+10	1	-1E+10	1	-1E+10	1	-1E+10	1
4902551	51	C	01/06/2022	22:59	-133.147	49.496	0	189.80	0	5.4700	0	33.7930	0	26.666	0	188.095	0	108.5	4	35.4	4	-1E+10	1	-1E+10	1	-1E+10	1	-1E+10	1	-1E+10	1	-1E+10	1
4902551	51	C	01/06/2022	22:59	-133.147	49.496	0	190.60	0	5.4590	0	33.7950	0	26.668	0	188.888	0	107.9	4	35.2	4	-1E+10	1	-1E+10	1	-1E+10	1	-1E+10	1	-1E+10	1	-1E+10	1
4902551	51	C	01/06/2022	22:59	-133.147	49.496	0	191.90	0	5.4500	0	33.7950	0	26.670	0	190.175	0	107.0	4	34.9	4	-1E+10	1	-1E+10	1	-1E+10	1	-1E+10	1	-1E+10	1	-1E+10	1
4902551	51	C	01/06/2022	22:59	-133.147	49.496	0	193.20	0	5.4160	0	33.8020	0	26.679	0	191.463	0	106.3	4	34.6	4	-1E+10	1	-1E+10	1	-1E+10	1	-1E+10	1	-1E+10	1	-1E+10	1
4902551	51	C	01/06/2022	22:59	-133.147	49.496	0	194.00	0	5.4060	0	33.7990	0	26.678	0	192.255	0	105.8	4	34.4	4	-1E+10	1	-1E+10	1	-1E+10	1	-1E+10	1	-1E+10	1	-1E+10	1
4902551	51	C	01/06/2022	22:59	-133.147	49.496	0	194.90	0	5.3940	0	33.8020	0	26.682	0	193.147	0	105.3	4	34.3	4	-1E+10	1	-1E+10	1	-1E+10	1	-1E+10	1	-1E+10	1	-1E+10	1
4902551	51	C	01/06/2022	22:59	-133.147	49.496	0	195.70	0	5.3850	0	33.8020	0	26.683	0	193.939	0	104.8	4	34.1	4	-1E+10	1	-1E+10	1	-1E+10	1	-1E+10	1	-1E+10	1	-1E+10	1
4902551	51	C	01/06/2022	22:59	-133.147	49.496	0	197.00	0	5.3710	0	33.8030	0	26.685	0	195.227	0	103.9	4	33.8	4	-1E+10	1	-1E+10	1	-1E+10	1	-1E+10	1	-1E+10	1	-1E+10	1
4902551	51	C	01/06/2022	22:59	-133.147	49.496	0	198.30	0	5.3620	0	33.8030	0	26.686	0	196.515	0	103.0	4	33.5	4	-1E+10	1	-1E+10	1	-1E+10	1	-1E+10	1	-1E+10	1	-1E+10	1
4902551	51	C	01/06/2022	22:59	-133.147	49.496	0	199.10	0	5.3510	0	33.8040	0	26.688	0	197.307	0	102.5	4	33.3	4	-1E+10	1	-1E+10	1	-1E+10	1	-1E+10	1	-1E+10	1	-1E+10	1
4902551	51	C	01/06/2022	22:59	-133.147	49.496	0	200.00	0	5.3120	0	33.8070	0	26.695	0	198.199	0	102.0	4	33.1	4	-1E+10	1	-1E+10	1	-1E+10	1	-1E+10	1	-1E+10	1	-1E+10	1
4902551	51	C	01/06/2022	22:59	-133.147	49.496	0	200.80	0	5.2980	0	33.8090	0	26.699	0	198.991	0	101.5	4	33.0	4	-1E+10	1	-1E+10	1	-1E+10	1	-1E+10	1	-1E+10	1	-1E+10	1
4902551	51	C	01/06/2022	22:59	-133.147	49.496	0	201.60	0	5.2860	0	33.8090	0	26.700	0	199.783	0	101.0	4	32.8	4	-1E+10	1	-1E+10	1	-1E+10	1	-1E+10	1	-1E+10	1	-1E+10	1
4902551	51	C	01/06/2022	22:59	-133.147	49.496	0	202.90	0	5.2710	0	33.8100	0	26.703	0	201.071	0	100.2	4	32.5	4	-1E+10	1	-1E+10	1	-1E+10	1	-1E+10	1	-1E+10	1	-1E+10	1
4902551	51	C	01/06/2022	22:59	-133.147	49.496	0	204.10	0	5.2520	0	33.8130	0	26.707	0	202.260	0	99.3	4	32.2	4	-1E+10	1	-1E+10	1	-1E+10	1	-1E+10	1	-1E+10	1	-1E+10	1
4902551	51	C	01/06/2022	22:59	-133.147	49.496	0	205.00	0	5.2450	0	33.8110	0	26.706	0	203.151	0	98.6	4	32.0	4	-1E+10	1	-1E+10	1	-1E+10	1	-1E+10	1	-1E+10	1	-1E+10	1
4902551	51	C	01/06/2022	22:59	-133.147	49.496	0	205.80	0	5.2090	0	33.8170	0	26.715	0	203.943	0	98.1	4	31.8	4	-1E+10	1	-1E+10	1	-1E+10	1	-1E+10	1	-1E+10	1	-1E+10	1
4902551	51	C	01/06/2022	22:59	-133.147	49.496	0	206.70	0	5.2000	0	33.8170	0	26.716	0	204.835	0	97.7	4	31.7	4	-1E+10	1	-1E+10	1	-1E+10	1	-1E+10	1	-1E+10	1	-1E+10	1
4902551	51	C	01/06/2022	22:59	-133.147	49.496	0	207.90	0	5.1940	0	33.8180	0	26.718	0	206.023	0	97.1	4	31.5	4	-1E+10	1	-1E+10	1	-1E+10	1	-1E+10	1	-1E+10	1	-1E+10	1
4902551	51	C	01/06/2022	22:59	-133.147	49.496	0	209.30	0	5.1820	0	33.8190	0	26.720	0	207.410	0	96.4	4	31.2	4	-1E+10	1	-1E+10	1	-1E+10	1	-1E+10	1	-1E+10	1	-1E+10	1
4902551	51	C	01/06/2022	22:59	-133.147	49.496	0	210.10	0	5.1790	0	33.8180	0	26.720	0	208.202	0	95.9	4	31.1	4	-1E+10	1	-1E+10	1	-1E+10	1	-1E+10	1	-1E+10	1	-1E+10	1
4902551	51	C	01/06/2022	22:59	-133.147	49.496	0	211.00	0	5.1730	0	33.8180	0	26.720	0	209.094	0	95.4	4	30.9	4	-1E+10	1	-1E+10	1	-1E+10	1	-1E+10	1	-1E+10	1	-1E+10	1
4902551	51	C	01/06/2022	22:59	-133.147	49.496	0	211.90	0	5.1710	0	33.8180	0	26.721	0	209.985	0	94.8	4	30.7	4	-1E+10	1	-1E+10	1	-1E+10	1	-1E+10	1	-1E+10	1	-1E+10	1
4902551	51	C	01/06/2022	22:59	-133.147	49.496	0	212.80	0	5.1550	0	33.8200	0	26.724	0	210.877	0	94.2	4	30.5	4	-1E+10	1	-1E+10	1	-1E+10	1	-1E+10	1	-1E+10	1	-1E+10	1
4902551	51	C	01/06/2022	22:59	-133.147	49.496	0	213.60	0	5.1450	0	33.8210	0	26.726	0	211.669	0	93.7	4	30.3	4	-1E+10	1	-1E+10	1	-1E+10	1	-1E+10	1	-1E+10	1	-1E+10	1
4902551	51	C	01/06/2022	22:59	-133.147	49.496	0	214.90	0	5.1260	0	33.8240	0	26.731	0	212.957	0	92.9	4	30.1	4	-1E+10	1	-1E+10	1	-1E+10	1	-1E+10	1	-1E+10	1	-1E+10	1
4902551	51	C	01/06/2022	22:59	-133.147	49.496	0	216.30	0	5.1080	0	33.8260	0	26.734	0	214.343	0	92.2	4	29.8	4	-1E+10	1	-1E+10	1	-1E+10	1	-1E+10	1	-1E+10	1	-1E+10	1
4902551	51	C	01/06/2022	22:59	-133.147	49.496	0	217.20	0	5.0980	0	33.8270	0	26.736	0	215.235	0	91.8	4	29.7	4	-1E+10	1	-1E+10	1	-1E+10	1	-1E+10	1	-1E+10	1	-1E+10	1
4902551	51	C	01/06/2022	22:59	-133.147	49.496	0	218.10	0	5.0900	0	33.8280	0	26.738	0	216.126	0	91.3	4	29.5	4	-1E+10	1	-1E+10	1	-1E+10	1	-1E+10	1	-1E+10	1	-1E+10	1
4902551	51	C	01/06/2022	22:59	-133.147	49.496	0	219.00	0	5.0850	0	33.8280	0	26.738	0	217.017	0	90.7	4	29.3	4	-1E+10	1	-1E+10	1	-1E+10	1	-1E+10	1	-1E+10	1	-1E+10	1
4902551	51	C	01/06/2022	22:59	-133.147	49.496	0	219.90	0	5.0760	0	33.8280	0	26.739	0	217.909	0	90.3	4	29.2	4	-1E+10	1	-1E+10	1	-1E+10	1	-1E+10	1	-1E+10	1	-1E+10	1
4902551	51	C	01/06/2022	22:59	-133.147	49.496	0	220.80	0	5.0650	0	33.8310	0	26.743	0	218.800	0	89.8	4	29.0	4	-1E+10	1	-1E+10	1	-1E+10	1	-1E+10	1	-1E+10	1	-1E+10	1
4902551	51	C	01/06/2022	22:59	-133.147	49.496	0	221.70	0	5.0570	0	33.8310	0	26.744	0	219.692	0	89.3	4	28.8	4	-1E+10	1	-1E+10	1	-1E+10	1	-1E+10	1	-1E+10	1	-1E+10	1
4902551	51	C	01/06/2022	22:59	-133.147	49.496	0	222.60	0	5.0340	0	33.8360	0	26.751	0	220.583	0	88.9	4	28.7	4	-1E+10	1	-1E+10	1	-1E+10	1	-1E+10	1	-1E+10	1	-1E+10	1
4902551	51	C	01/06/2022	22:59	-133.147	49.496	0	223.90	0	5.0160	0	33.8360	0	26.753	0	221.870	0	88.3	4	28.5	4	-1E+10	1	-1E+10	1	-1E+10	1	-1E+10	1	-1E+10	1	-1E+10	1
4902551	51	C	01/06/2022	22:59	-133.147	49.496	0	225.30	0	5.0090	0	33.8370	0	26.754	0	223.257	0	87.8	4	28.3	4	-1E+10	1	-1E+10	1	-1E+10	1	-1E+10	1	-1E+10	1	-1E+10	1
4902551	51	C	01/06/2022	22:59	-133.147	49.496	0	226.30	0	5.0070	0	33.8380	0	26.755	0	224.247	0	87.3	4	28.2	4	-1E+10	1	-1E+10	1	-1E+10	1	-1E+10	1	-1E+10	1	-1E+10	1
4902551	51	C	01/06/2022	22:59	-133.147	49.496	0	227.20	0	4.9950	0	33.8390	0	26.757	0	225.139	0	86.9	4	28.0	4	-1E+10	1	-1E+10	1	-1E+10	1	-1E+10	1	-1E+10	1	-1E+10	1
4902551	51	C	01/06/2022	22:59	-133.147	49.496	0	228.20	0	4.9920	0	33.8390	0	26.758	0	226.129	0	86.4	4	27.9	4	-1E+10	1	-1E+10	1	-1E+10	1	-1E+10	1	-1E+10	1	-1E+10	1
4902551	51	C	01/06/2022	22:59	-133.147	49.496	0	229.10	0	4.9900	0	33.8390	0	26.758	0	227.020	0	85.9	4	27.7	4	-1E+10	1	-1E+10	1	-1E+10	1	-1E+10	1	-1E+10	1	-1E+10	1
4902551	51	C	01/06/2022	22:59	-133.147	49.496	0	230.00	0	4.9810	0	33.8410	0	26.761	0	227.912	0	85.4	4	27.5	4	-1E+10	1	-1E+10	1	-1E+10	1	-1E+10	1	-1E+10	1	-1E+10	1
4902551	51	C	01/06/2022	22:59	-133.147	49.496	0	230.90	0	4.9740	0	33.8410	0	26.761	0	228.803	0	85.0	4	27.4	4	-1E+10	1	-1E+10	1	-1E+10	1	-1E+10	1	-1E+10	1	-1E+10	1
4902551	51	C	01/06/2022	22:59	-133.147	49.496	0	231.90	0	4.9670	0	33.8420	0	26.763	0	229.793	0	84.6	4	27.3	4	-1E+10	1	-1E+10	1	-1E+10	1	-1E+10	1	-1E+10	1	-1E+10	1
4902551	51	C	01/06/2022	22:59	-133.147	49.496	0	232.80	0	4.9560	0	33.8460	0	26.767	0	230.685	0	84.1	4	27.1	4	-1E+10	1	-1E+10	1	-1E+10	1	-1E+10	1	-1E+10	1	-1E+10	1
4902551	51	C	01/06/2022	22:59	-133.147	49.496	0	233.80	0	4.9430	0	33.8470	0	26.770	0	231.675	0	83.8	4	27.0	4	-1E+10	1	-1E+10	1	-1E+10	1	-1E+10	1	-1E+10	1	-1E+10	1
4902551	51	C	01/06/2022	22:59	-133.147	49.496	0	234.70	0	4.9360	0	33.8480	0	26.771	0	232.566	0	83.4	4	26.9	4	-1E+10	1	-1E+10	1	-1E+10	1	-1E+10	1	-1E+10	1	-1E+10	1
4902551	51	C	01/06/2022	22:59	-133.147	49.496	0	235.70	0	4.9290	0	33.8490	0	26.773	0	233.557	0	82.9	4	26.7	4	-1E+10	1	-1E+10	1	-1E+10	1	-1E+10	1	-1E+10	1	-1E+10	1
4902551	51	C	01/06/2022	22:59	-133.147	49.496	0	236.60	0	4.9220	0	33.8500	0	26.775	0	234.448	0	82.6	4	26.6	4	-1E+10	1	-1E+10	1	-1E+10	1	-1E+10	1	-1E+10	1	-1E+10	1
4902551	51	C	01/06/2022	22:59	-133.147	49.496	0	237.60	0	4.9140	0	33.8530	0	26.778	0	235.438	0	82.3	4	26.5	4	-1E+10	1	-1E+10	1	-1E+10	1	-1E+10	1	-1E+10	1	-1E+10	1
4902551	51	C	01/06/2022	22:59	-133.147	49.496	0	238.60	0	4.9100	0	33.8520	0	26.777	0	236.429	0	82.0	4	26.4	4	-1E+10	1	-1E+10	1	-1E+10	1	-1E+10	1	-1E+10	1	-1E+10	1
4902551	51	C	01/06/2022	22:59	-133.147	49.496	0	239.50	0	4.9070	0	33.8520	0	26.778	0	237.320	0	81.7	4	26.3	4	-1E+10	1	-1E+10	1	-1E+10	1	-1E+10	1	-1E+10	1	-1E+10	1
4902551	51	C	01/06/2022	22:59	-133.147	49.496	0	240.50	0	4.8980	0	33.8540	0	26.780	0	238.310	0	81.4	4	26.2	4	-1E+10	1	-1E+10	1	-1E+10	1	-1E+10	1	-1E+10	1	-1E+10	1
4902551	51	C	01/06/2022	22:59	-133.147	49.496	0	241.90	0	4.8960	0	33.8530	0	26.780	0	239.697	0	80.9	4	26.0	4	-1E+10	1	-1E+10	1	-1E+10	1	-1E+10	1	-1E+10	1	-1E+10	1
4902551	51	C	01/06/2022	22:59	-133.147	49.496	0	243.40	0	4.8880	0	33.8540	0	26.782	0	241.182	0	80.3	4	25.8	4	-1E+10	1	-1E+10	1	-1E+10	1	-1E+10	1	-1E+10	1	-1E+10	1
4902551	51	C	01/06/2022	22:59	-133.147	49.496	0	244.40	0	4.8800	0	33.8560	0	26.784	0	242.173	0	80.0	4	25.7	4	-1E+10	1	-1E+10	1	-1E+10	1	-1E+10	1	-1E+10	1	-1E+10	1
4902551	51	C	01/06/2022	22:59	-133.147	49.496	0	245.40	0	4.8770	0	33.8570	0	26.785	0	243.163	0	79.6	4	25.6	4	-1E+10	1	-1E+10	1	-1E+10	1	-1E+10	1	-1E+10	1	-1E+10	1
4902551	51	C	01/06/2022	22:59	-133.147	49.496	0	246.30	0	4.8720	0	33.8580	0	26.787	0	244.054	0	79.3	4	25.5	4	-1E+10	1	-1E+10	1	-1E+10	1	-1E+10	1	-1E+10	1	-1E+10	1
4902551	51	C	01/06/2022	22:59	-133.147	49.496	0	247.30	0	4.8660	0	33.8600	0	26.789	0	245.044	0	79.0	4	25.4	4	-1E+10	1	-1E+10	1	-1E+10	1	-1E+10	1	-1E+10	1	-1E+10	1
4902551	51	C	01/06/2022	22:59	-133.147	49.496	0	248.20	0	4.8530	0	33.8610	0	26.791	0	245.936	0	78.8	4	25.3	4	-1E+10	1	-1E+10	1	-1E+10	1	-1E+10	1	-1E+10	1	-1E+10	1
4902551	51	C	01/06/2022	22:59	-133.147	49.496	0	249.20	0	4.8530	0	33.8600	0	26.790	0	246.926	0	78.5	4	25.2	4	-1E+10	1	-1E+10	1	-1E+10	1	-1E+10	1	-1E+10	1	-1E+10	1
4902551	51	C	01/06/2022	22:59	-133.147	49.496	0	250.10	0	4.8400	0	33.8630	0	26.794	0	247.817	0	78.3	4	25.2	4	-1E+10	1	-1E+10	1	-1E+10	1	-1E+10	1	-1E+10	1	-1E+10	1
4902551	51	C	01/06/2022	22:59	-133.147	49.496	0	251.00	0	4.8380	0	33.8630	0	26.794	0	248.709	0	78.1	4	25.1	4	-1E+10	1	-1E+10	1	-1E+10	1	-1E+10	1	-1E+10	1	-1E+10	1
4902551	51	C	01/06/2022	22:59	-133.147	49.496	0	252.10	0	4.8340	0	33.8640	0	26.796	0	249.798	0	77.8	4	25.0	4	-1E+10	1	-1E+10	1	-1E+10	1	-1E+10	1	-1E+10	1	-1E+10	1
4902551	51	C	01/06/2022	22:59	-133.147	49.496	0	252.90	0	4.8260	0	33.8650	0	26.797	0	250.590	0	77.7	4	24.9	4	-1E+10	1	-1E+10	1	-1E+10	1	-1E+10	1	-1E+10	1	-1E+10	1
4902551	51	C	01/06/2022	22:59	-133.147	49.496	0	253.90	0	4.8220	0	33.8650	0	26.798	0	251.580	0	77.4	4	24.9	4	-1E+10	1	-1E+10	1	-1E+10	1	-1E+10	1	-1E+10	1	-1E+10	1
4902551	51	C	01/06/2022	22:59	-133.147	49.496	0	255.10	0	4.8140	0	33.8660	0	26.799	0	252.769	0	77.1	4	24.8	4	-1E+10	1	-1E+10	1	-1E+10	1	-1E+10	1	-1E+10	1	-1E+10	1
4902551	51	C	01/06/2022	22:59	-133.147	49.496	0	255.90	0	4.8140	0	33.8660	0	26.799	0	253.561	0	77.0	4	24.7	4	-1E+10	1	-1E+10	1	-1E+10	1	-1E+10	1	-1E+10	1	-1E+10	1
4902551	51	C	01/06/2022	22:59	-133.147	49.496	0	257.00	0	4.8050	0	33.8670	0	26.801	0	254.650	0	76.8	4	24.6	4	-1E+10	1	-1E+10	1	-1E+10	1	-1E+10	1	-1E+10	1	-1E+10	1
4902551	51	C	01/06/2022	22:59	-133.147	49.496	0	258.10	0	4.8010	0	33.8680	0	26.803	0	255.739	0	76.5	4	24.5	4	-1E+10	1	-1E+10	1	-1E+10	1	-1E+10	1	-1E+10	1	-1E+10	1
4902551	51	C	01/06/2022	22:59	-133.147	49.496	0	258.90	0	4.7970	0	33.8700	0	26.805	0	256.531	0	76.2	4	24.5	4	-1E+10	1	-1E+10	1	-1E+10	1	-1E+10	1	-1E+10	1	-1E+10	1
4902551	51	C	01/06/2022	22:59	-133.147	49.496	0	260.00	0	4.7960	0	33.8680	0	26.803	0	257.621	0	75.8	4	24.3	4	-1E+10	1	-1E+10	1	-1E+10	1	-1E+10	1	-1E+10	1	-1E+10	1
4902551	51	C	01/06/2022	22:59	-133.147	49.496	0	261.20	0	4.7940	0	33.8680	0	26.803	0	258.809	0	75.4	4	24.2	4	-1E+10	1	-1E+10	1	-1E+10	1	-1E+10	1	-1E+10	1	-1E+10	1
4902551	51	C	01/06/2022	22:59	-133.147	49.496	0	262.00	0	4.7900	0	33.8690	0	26.805	0	259.601	0	75.1	4	24.1	4	-1E+10	1	-1E+10	1	-1E+10	1	-1E+10	1	-1E+10	1	-1E+10	1
4902551	51	C	01/06/2022	22:59	-133.147	49.496	0	262.80	0	4.7890	0	33.8690	0	26.805	0	260.393	0	74.7	4	24.0	4	-1E+10	1	-1E+10	1	-1E+10	1	-1E+10	1	-1E+10	1	-1E+10	1
4902551	51	C	01/06/2022	22:59	-133.147	49.496	0	263.90	0	4.7850	0	33.8690	0	26.805	0	261.483	0	74.1	4	23.8	4	-1E+10	1	-1E+10	1	-1E+10	1	-1E+10	1	-1E+10	1	-1E+10	1
4902551	51	C	01/06/2022	22:59	-133.147	49.496	0	265.10	0	4.7710	0	33.8720	0	26.809	0	262.671	0	73.6	4	23.6	4	-1E+10	1	-1E+10	1	-1E+10	1	-1E+10	1	-1E+10	1	-1E+10	1
4902551	51	C	01/06/2022	22:59	-133.147	49.496	0	265.90	0	4.7680	0	33.8720	0	26.809	0	263.463	0	73.2	4	23.5	4	-1E+10	1	-1E+10	1	-1E+10	1	-1E+10	1	-1E+10	1	-1E+10	1
4902551	51	C	01/06/2022	22:59	-133.147	49.496	0	266.70	0	4.7650	0	33.8720	0	26.810	0	264.255	0	72.9	4	23.4	4	-1E+10	1	-1E+10	1	-1E+10	1	-1E+10	1	-1E+10	1	-1E+10	1
4902551	51	C	01/06/2022	22:59	-133.147	49.496	0	267.90	0	4.7490	0	33.8750	0	26.814	0	265.443	0	72.3	4	23.2	4	-1E+10	1	-1E+10	1	-1E+10	1	-1E+10	1	-1E+10	1	-1E+10	1
4902551	51	C	01/06/2022	22:59	-133.147	49.496	0	269.20	0	4.7330	0	33.8790	0	26.819	0	266.731	0	71.8	4	23.0	4	-1E+10	1	-1E+10	1	-1E+10	1	-1E+10	1	-1E+10	1	-1E+10	1
4902551	51	C	01/06/2022	22:59	-133.147	49.496	0	270.00	0	4.7290	0	33.8790	0	26.819	0	267.523	0	71.5	4	22.9	4	-1E+10	1	-1E+10	1	-1E+10	1	-1E+10	1	-1E+10	1	-1E+10	1
4902551	51	C	01/06/2022	22:59	-133.147	49.496	0	270.80	0	4.7290	0	33.8790	0	26.819	0	268.315	0	71.1	4	22.8	4	-1E+10	1	-1E+10	1	-1E+10	1	-1E+10	1	-1E+10	1	-1E+10	1
4902551	51	C	01/06/2022	22:59	-133.147	49.496	0	271.70	0	4.7260	0	33.8790	0	26.820	0	269.206	0	70.7	4	22.7	4	-1E+10	1	-1E+10	1	-1E+10	1	-1E+10	1	-1E+10	1	-1E+10	1
4902551	51	C	01/06/2022	22:59	-133.147	49.496	0	272.90	0	4.7200	0	33.8810	0	26.822	0	270.394	0	70.2	4	22.5	4	-1E+10	1	-1E+10	1	-1E+10	1	-1E+10	1	-1E+10	1	-1E+10	1
4902551	51	C	01/06/2022	22:59	-133.147	49.496	0	274.20	0	4.7190	0	33.8820	0	26.823	0	271.682	0	69.7	4	22.3	4	-1E+10	1	-1E+10	1	-1E+10	1	-1E+10	1	-1E+10	1	-1E+10	1
4902551	51	C	01/06/2022	22:59	-133.147	49.496	0	275.10	0	4.7180	0	33.8810	0	26.822	0	272.573	0	69.3	4	22.2	4	-1E+10	1	-1E+10	1	-1E+10	1	-1E+10	1	-1E+10	1	-1E+10	1
4902551	51	C	01/06/2022	22:59	-133.147	49.496	0	275.90	0	4.7040	0	33.8860	0	26.828	0	273.365	0	68.8	4	22.1	4	-1E+10	1	-1E+10	1	-1E+10	1	-1E+10	1	-1E+10	1	-1E+10	1
4902551	51	C	01/06/2022	22:59	-133.147	49.496	0	276.80	0	4.6990	0	33.8860	0	26.828	0	274.256	0	68.5	4	22.0	4	-1E+10	1	-1E+10	1	-1E+10	1	-1E+10	1	-1E+10	1	-1E+10	1
4902551	51	C	01/06/2022	22:59	-133.147	49.496	0	277.60	0	4.6830	0	33.8900	0	26.833	0	275.048	0	68.2	4	21.9	4	-1E+10	1	-1E+10	1	-1E+10	1	-1E+10	1	-1E+10	1	-1E+10	1
4902551	51	C	01/06/2022	22:59	-133.147	49.496	0	278.90	0	4.6750	0	33.8920	0	26.836	0	276.335	0	67.9	4	21.7	4	-1E+10	1	-1E+10	1	-1E+10	1	-1E+10	1	-1E+10	1	-1E+10	1
4902551	51	C	01/06/2022	22:59	-133.147	49.496	0	280.30	0	4.6740	0	33.8920	0	26.836	0	277.721	0	67.6	4	21.6	4	-1E+10	1	-1E+10	1	-1E+10	1	-1E+10	1	-1E+10	1	-1E+10	1
4902551	51	C	01/06/2022	22:59	-133.147	49.496	0	281.20	0	4.6730	0	33.8930	0	26.837	0	278.612	0	67.4	4	21.6	4	-1E+10	1	-1E+10	1	-1E+10	1	-1E+10	1	-1E+10	1	-1E+10	1
4902551	51	C	01/06/2022	22:59	-133.147	49.496	0	282.10	0	4.6720	0	33.8930	0	26.837	0	279.504	0	67.2	4	21.5	4	-1E+10	1	-1E+10	1	-1E+10	1	-1E+10	1	-1E+10	1	-1E+10	1
4902551	51	C	01/06/2022	22:59	-133.147	49.496	0	282.90	0	4.6710	0	33.8930	0	26.837	0	280.296	0	66.9	4	21.4	4	-1E+10	1	-1E+10	1	-1E+10	1	-1E+10	1	-1E+10	1	-1E+10	1
4902551	51	C	01/06/2022	22:59	-133.147	49.496	0	283.90	0	4.6710	0	33.8930	0	26.837	0	281.286	0	66.6	4	21.3	4	-1E+10	1	-1E+10	1	-1E+10	1	-1E+10	1	-1E+10	1	-1E+10	1
4902551	51	C	01/06/2022	22:59	-133.147	49.496	0	284.80	0	4.6690	0	33.8930	0	26.837	0	282.177	0	66.3	4	21.2	4	-1E+10	1	-1E+10	1	-1E+10	1	-1E+10	1	-1E+10	1	-1E+10	1
4902551	51	C	01/06/2022	22:59	-133.147	49.496	0	285.70	0	4.6650	0	33.8940	0	26.838	0	283.068	0	66.0	4	21.1	4	-1E+10	1	-1E+10	1	-1E+10	1	-1E+10	1	-1E+10	1	-1E+10	1
4902551	51	C	01/06/2022	22:59	-133.147	49.496	0	286.60	0	4.6620	0	33.8960	0	26.840	0	283.959	0	65.6	4	21.0	4	-1E+10	1	-1E+10	1	-1E+10	1	-1E+10	1	-1E+10	1	-1E+10	1
4902551	51	C	01/06/2022	22:59	-133.147	49.496	0	287.60	0	4.6610	0	33.8960	0	26.840	0	284.949	0	65.2	4	20.9	4	-1E+10	1	-1E+10	1	-1E+10	1	-1E+10	1	-1E+10	1	-1E+10	1
4902551	51	C	01/06/2022	22:59	-133.147	49.496	0	288.60	0	4.6550	0	33.8970	0	26.842	0	285.939	0	65.0	4	20.8	4	-1E+10	1	-1E+10	1	-1E+10	1	-1E+10	1	-1E+10	1	-1E+10	1
4902551	51	C	01/06/2022	22:59	-133.147	49.496	0	289.90	0	4.6520	0	33.8970	0	26.842	0	287.226	0	64.5	4	20.6	4	-1E+10	1	-1E+10	1	-1E+10	1	-1E+10	1	-1E+10	1	-1E+10	1
4902551	51	C	01/06/2022	22:59	-133.147	49.496	0	291.40	0	4.6500	0	33.8980	0	26.843	0	288.712	0	64.0	4	20.5	4	-1E+10	1	-1E+10	1	-1E+10	1	-1E+10	1	-1E+10	1	-1E+10	1
4902551	51	C	01/06/2022	22:59	-133.147	49.496	0	292.30	0	4.6500	0	33.8980	0	26.843	0	289.603	0	63.5	4	20.3	4	-1E+10	1	-1E+10	1	-1E+10	1	-1E+10	1	-1E+10	1	-1E+10	1
4902551	51	C	01/06/2022	22:59	-133.147	49.496	0	293.30	0	4.6490	0	33.8970	0	26.843	0	290.593	0	63.1	4	20.2	4	-1E+10	1	-1E+10	1	-1E+10	1	-1E+10	1	-1E+10	1	-1E+10	1
4902551	51	C	01/06/2022	22:59	-133.147	49.496	0	294.20	0	4.6350	0	33.9000	0	26.846	0	291.484	0	62.6	4	20.0	4	-1E+10	1	-1E+10	1	-1E+10	1	-1E+10	1	-1E+10	1	-1E+10	1
4902551	51	C	01/06/2022	22:59	-133.147	49.496	0	295.20	0	4.6180	0	33.9020	0	26.850	0	292.474	0	62.1	4	19.8	4	-1E+10	1	-1E+10	1	-1E+10	1	-1E+10	1	-1E+10	1	-1E+10	1
4902551	51	C	01/06/2022	22:59	-133.147	49.496	0	296.20	0	4.6190	0	33.9020	0	26.850	0	293.464	0	61.5	4	19.7	4	-1E+10	1	-1E+10	1	-1E+10	1	-1E+10	1	-1E+10	1	-1E+10	1
4902551	51	C	01/06/2022	22:59	-133.147	49.496	0	297.20	0	4.6210	0	33.9030	0	26.850	0	294.454	0	61.0	4	19.5	4	-1E+10	1	-1E+10	1	-1E+10	1	-1E+10	1	-1E+10	1	-1E+10	1
4902551	51	C	01/06/2022	22:59	-133.147	49.496	0	298.20	0	4.6090	0	33.9070	0	26.855	0	295.444	0	60.5	4	19.3	4	-1E+10	1	-1E+10	1	-1E+10	1	-1E+10	1	-1E+10	1	-1E+10	1
4902551	51	C	01/06/2022	22:59	-133.147	49.496	0	299.10	0	4.6080	0	33.9090	0	26.857	0	296.335	0	60.1	4	19.2	4	-1E+10	1	-1E+10	1	-1E+10	1	-1E+10	1	-1E+10	1	-1E+10	1
4902551	51	C	01/06/2022	22:59	-133.147	49.496	0	300.20	0	4.6090	0	33.9100	0	26.857	0	297.424	0	59.8	4	19.1	4	-1E+10	1	-1E+10	1	-1E+10	1	-1E+10	1	-1E+10	1	-1E+10	1
4902551	51	C	01/06/2022	22:59	-133.147	49.496	0	301.10	0	4.6090	0	33.9110	0	26.858	0	298.315	0	59.5	4	19.0	4	-1E+10	1	-1E+10	1	-1E+10	1	-1E+10	1	-1E+10	1	-1E+10	1
4902551	51	C	01/06/2022	22:59	-133.147	49.496	0	302.10	0	4.6060	0	33.9130	0	26.860	0	299.305	0	59.2	4	18.9	4	-1E+10	1	-1E+10	1	-1E+10	1	-1E+10	1	-1E+10	1	-1E+10	1
4902551	51	C	01/06/2022	22:59	-133.147	49.496	0	303.10	0	4.6060	0	33.9140	0	26.861	0	300.295	0	59.0	4	18.9	4	-1E+10	1	-1E+10	1	-1E+10	1	-1E+10	1	-1E+10	1	-1E+10	1
4902551	51	C	01/06/2022	22:59	-133.147	49.496	0	304.20	0	4.6040	0	33.9150	0	26.862	0	301.384	0	58.8	4	18.8	4	-1E+10	1	-1E+10	1	-1E+10	1	-1E+10	1	-1E+10	1	-1E+10	1
4902551	51	C	01/06/2022	22:59	-133.147	49.496	0	305.20	0	4.6030	0	33.9160	0	26.863	0	302.374	0	58.5	4	18.7	4	-1E+10	1	-1E+10	1	-1E+10	1	-1E+10	1	-1E+10	1	-1E+10	1
4902551	51	C	01/06/2022	22:59	-133.147	49.496	0	306.20	0	4.6030	0	33.9160	0	26.863	0	303.364	0	58.3	4	18.6	4	-1E+10	1	-1E+10	1	-1E+10	1	-1E+10	1	-1E+10	1	-1E+10	1
4902551	51	C	01/06/2022	22:59	-133.147	49.496	0	307.20	0	4.5970	0	33.9180	0	26.865	0	304.354	0	58.1	4	18.6	4	-1E+10	1	-1E+10	1	-1E+10	1	-1E+10	1	-1E+10	1	-1E+10	1
4902551	51	C	01/06/2022	22:59	-133.147	49.496	0	308.20	0	4.5910	0	33.9180	0	26.866	0	305.344	0	57.9	4	18.5	4	-1E+10	1	-1E+10	1	-1E+10	1	-1E+10	1	-1E+10	1	-1E+10	1
4902551	51	C	01/06/2022	22:59	-133.147	49.496	0	309.30	0	4.5880	0	33.9200	0	26.868	0	306.433	0	57.7	4	18.4	4	-1E+10	1	-1E+10	1	-1E+10	1	-1E+10	1	-1E+10	1	-1E+10	1
4902551	51	C	01/06/2022	22:59	-133.147	49.496	0	310.30	0	4.5830	0	33.9210	0	26.869	0	307.423	0	57.5	4	18.4	4	-1E+10	1	-1E+10	1	-1E+10	1	-1E+10	1	-1E+10	1	-1E+10	1
4902551	51	C	01/06/2022	22:59	-133.147	49.496	0	311.30	0	4.5820	0	33.9210	0	26.869	0	308.413	0	57.3	4	18.3	4	-1E+10	1	-1E+10	1	-1E+10	1	-1E+10	1	-1E+10	1	-1E+10	1
4902551	51	C	01/06/2022	22:59	-133.147	49.496	0	312.30	0	4.5730	0	33.9240	0	26.872	0	309.403	0	57.1	4	18.2	4	-1E+10	1	-1E+10	1	-1E+10	1	-1E+10	1	-1E+10	1	-1E+10	1
4902551	51	C	01/06/2022	22:59	-133.147	49.496	0	313.40	0	4.5720	0	33.9230	0	26.872	0	310.492	0	56.9	4	18.2	4	-1E+10	1	-1E+10	1	-1E+10	1	-1E+10	1	-1E+10	1	-1E+10	1
4902551	51	C	01/06/2022	22:59	-133.147	49.496	0	314.40	0	4.5710	0	33.9240	0	26.873	0	311.482	0	56.7	4	18.1	4	-1E+10	1	-1E+10	1	-1E+10	1	-1E+10	1	-1E+10	1	-1E+10	1
4902551	51	C	01/06/2022	22:59	-133.147	49.496	0	315.50	0	4.5690	0	33.9250	0	26.874	0	312.571	0	56.5	4	18.0	4	-1E+10	1	-1E+10	1	-1E+10	1	-1E+10	1	-1E+10	1	-1E+10	1
4902551	51	C	01/06/2022	22:59	-133.147	49.496	0	316.50	0	4.5690	0	33.9250	0	26.874	0	313.561	0	56.3	4	18.0	4	-1E+10	1	-1E+10	1	-1E+10	1	-1E+10	1	-1E+10	1	-1E+10	1
4902551	51	C	01/06/2022	22:59	-133.147	49.496	0	317.50	0	4.5690	0	33.9260	0	26.874	0	314.551	0	56.1	4	17.9	4	-1E+10	1	-1E+10	1	-1E+10	1	-1E+10	1	-1E+10	1	-1E+10	1
4902551	51	C	01/06/2022	22:59	-133.147	49.496	0	318.60	0	4.5670	0	33.9270	0	26.875	0	315.640	0	56.0	4	17.9	4	-1E+10	1	-1E+10	1	-1E+10	1	-1E+10	1	-1E+10	1	-1E+10	1
4902551	51	C	01/06/2022	22:59	-133.147	49.496	0	319.60	0	4.5640	0	33.9280	0	26.877	0	316.630	0	55.8	4	17.8	4	-1E+10	1	-1E+10	1	-1E+10	1	-1E+10	1	-1E+10	1	-1E+10	1
4902551	51	C	01/06/2022	22:59	-133.147	49.496	0	320.70	0	4.5630	0	33.9280	0	26.877	0	317.719	0	55.7	4	17.8	4	-1E+10	1	-1E+10	1	-1E+10	1	-1E+10	1	-1E+10	1	-1E+10	1
4902551	51	C	01/06/2022	22:59	-133.147	49.496	0	321.80	0	4.5630	0	33.9280	0	26.877	0	318.808	0	55.5	4	17.7	4	-1E+10	1	-1E+10	1	-1E+10	1	-1E+10	1	-1E+10	1	-1E+10	1
4902551	51	C	01/06/2022	22:59	-133.147	49.496	0	322.80	0	4.5620	0	33.9290	0	26.878	0	319.798	0	55.4	4	17.7	4	-1E+10	1	-1E+10	1	-1E+10	1	-1E+10	1	-1E+10	1	-1E+10	1
4902551	51	C	01/06/2022	22:59	-133.147	49.496	0	323.90	0	4.5610	0	33.9290	0	26.878	0	320.886	0	55.2	4	17.6	4	-1E+10	1	-1E+10	1	-1E+10	1	-1E+10	1	-1E+10	1	-1E+10	1
4902551	51	C	01/06/2022	22:59	-133.147	49.496	0	324.90	0	4.5620	0	33.9290	0	26.878	0	321.876	0	55.1	4	17.6	4	-1E+10	1	-1E+10	1	-1E+10	1	-1E+10	1	-1E+10	1	-1E+10	1
4902551	51	C	01/06/2022	22:59	-133.147	49.496	0	326.00	0	4.5610	0	33.9290	0	26.878	0	322.965	0	54.9	4	17.5	4	-1E+10	1	-1E+10	1	-1E+10	1	-1E+10	1	-1E+10	1	-1E+10	1
4902551	51	C	01/06/2022	22:59	-133.147	49.496	0	327.10	0	4.5600	0	33.9300	0	26.879	0	324.054	0	54.7	4	17.5	4	-1E+10	1	-1E+10	1	-1E+10	1	-1E+10	1	-1E+10	1	-1E+10	1
4902551	51	C	01/06/2022	22:59	-133.147	49.496	0	328.10	0	4.5570	0	33.9310	0	26.880	0	325.044	0	54.5	4	17.4	4	-1E+10	1	-1E+10	1	-1E+10	1	-1E+10	1	-1E+10	1	-1E+10	1
4902551	51	C	01/06/2022	22:59	-133.147	49.496	0	329.20	0	4.5510	0	33.9320	0	26.881	0	326.133	0	54.3	4	17.4	4	-1E+10	1	-1E+10	1	-1E+10	1	-1E+10	1	-1E+10	1	-1E+10	1
4902551	51	C	01/06/2022	22:59	-133.147	49.496	0	330.20	0	4.5460	0	33.9340	0	26.883	0	327.123	0	54.2	4	17.3	4	-1E+10	1	-1E+10	1	-1E+10	1	-1E+10	1	-1E+10	1	-1E+10	1
4902551	51	C	01/06/2022	22:59	-133.147	49.496	0	331.30	0	4.5420	0	33.9340	0	26.884	0	328.212	0	54.0	4	17.3	4	-1E+10	1	-1E+10	1	-1E+10	1	-1E+10	1	-1E+10	1	-1E+10	1
4902551	51	C	01/06/2022	22:59	-133.147	49.496	0	332.40	0	4.5410	0	33.9340	0	26.884	0	329.301	0	53.9	4	17.2	4	-1E+10	1	-1E+10	1	-1E+10	1	-1E+10	1	-1E+10	1	-1E+10	1
4902551	51	C	01/06/2022	22:59	-133.147	49.496	0	333.50	0	4.5350	0	33.9360	0	26.886	0	330.390	0	53.7	4	17.1	4	-1E+10	1	-1E+10	1	-1E+10	1	-1E+10	1	-1E+10	1	-1E+10	1
4902551	51	C	01/06/2022	22:59	-133.147	49.496	0	334.60	0	4.5330	0	33.9370	0	26.887	0	331.478	0	53.5	4	17.1	4	-1E+10	1	-1E+10	1	-1E+10	1	-1E+10	1	-1E+10	1	-1E+10	1
4902551	51	C	01/06/2022	22:59	-133.147	49.496	0	335.60	0	4.5310	0	33.9370	0	26.887	0	332.468	0	53.4	4	17.0	4	-1E+10	1	-1E+10	1	-1E+10	1	-1E+10	1	-1E+10	1	-1E+10	1
4902551	51	C	01/06/2022	22:59	-133.147	49.496	0	336.70	0	4.5180	0	33.9410	0	26.892	0	333.557	0	53.2	4	17.0	4	-1E+10	1	-1E+10	1	-1E+10	1	-1E+10	1	-1E+10	1	-1E+10	1
4902551	51	C	01/06/2022	22:59	-133.147	49.496	0	337.80	0	4.5120	0	33.9420	0	26.893	0	334.646	0	53.1	4	16.9	4	-1E+10	1	-1E+10	1	-1E+10	1	-1E+10	1	-1E+10	1	-1E+10	1
4902551	51	C	01/06/2022	22:59	-133.147	49.496	0	338.90	0	4.5080	0	33.9430	0	26.895	0	335.735	0	52.9	4	16.9	4	-1E+10	1	-1E+10	1	-1E+10	1	-1E+10	1	-1E+10	1	-1E+10	1
4902551	51	C	01/06/2022	22:59	-133.147	49.496	0	339.90	0	4.5070	0	33.9430	0	26.895	0	336.725	0	52.8	4	16.8	4	-1E+10	1	-1E+10	1	-1E+10	1	-1E+10	1	-1E+10	1	-1E+10	1
4902551	51	C	01/06/2022	22:59	-133.147	49.496	0	341.00	0	4.5050	0	33.9440	0	26.896	0	337.813	0	52.6	4	16.8	4	-1E+10	1	-1E+10	1	-1E+10	1	-1E+10	1	-1E+10	1	-1E+10	1
4902551	51	C	01/06/2022	22:59	-133.147	49.496	0	342.10	0	4.5040	0	33.9440	0	26.896	0	338.902	0	52.4	4	16.7	4	-1E+10	1	-1E+10	1	-1E+10	1	-1E+10	1	-1E+10	1	-1E+10	1
4902551	51	C	01/06/2022	22:59	-133.147	49.496	0	343.10	0	4.5000	0	33.9450	0	26.897	0	339.892	0	52.2	4	16.6	4	-1E+10	1	-1E+10	1	-1E+10	1	-1E+10	1	-1E+10	1	-1E+10	1
4902551	51	C	01/06/2022	22:59	-133.147	49.496	0	344.20	0	4.4970	0	33.9450	0	26.898	0	340.981	0	51.9	4	16.6	4	-1E+10	1	-1E+10	1	-1E+10	1	-1E+10	1	-1E+10	1	-1E+10	1
4902551	51	C	01/06/2022	22:59	-133.147	49.496	0	345.30	0	4.4960	0	33.9460	0	26.898	0	342.070	0	51.7	4	16.5	4	-1E+10	1	-1E+10	1	-1E+10	1	-1E+10	1	-1E+10	1	-1E+10	1
4902551	51	C	01/06/2022	22:59	-133.147	49.496	0	346.40	0	4.4950	0	33.9470	0	26.899	0	343.159	0	51.6	4	16.4	4	-1E+10	1	-1E+10	1	-1E+10	1	-1E+10	1	-1E+10	1	-1E+10	1
4902551	51	C	01/06/2022	22:59	-133.147	49.496	0	347.50	0	4.4940	0	33.9480	0	26.900	0	344.247	0	51.4	4	16.4	4	-1E+10	1	-1E+10	1	-1E+10	1	-1E+10	1	-1E+10	1	-1E+10	1
4902551	51	C	01/06/2022	22:59	-133.147	49.496	0	348.60	0	4.4920	0	33.9480	0	26.900	0	345.336	0	51.2	4	16.3	4	-1E+10	1	-1E+10	1	-1E+10	1	-1E+10	1	-1E+10	1	-1E+10	1
4902551	51	C	01/06/2022	22:59	-133.147	49.496	0	349.60	0	4.4900	0	33.9490	0	26.902	0	346.326	0	51.0	4	16.3	4	-1E+10	1	-1E+10	1	-1E+10	1	-1E+10	1	-1E+10	1	-1E+10	1
4902551	51	C	01/06/2022	22:59	-133.147	49.496	0	352.80	0	4.4750	0	33.9520	0	26.906	0	349.493	0	50.2	4	16.0	4	-1E+10	1	-1E+10	1	-1E+10	1	-1E+10	1	-1E+10	1	-1E+10	1
4902551	51	C	01/06/2022	22:59	-133.147	49.496	0	358.10	0	4.4680	0	33.9580	0	26.911	0	354.739	0	49.2	4	15.7	4	-1E+10	1	-1E+10	1	-1E+10	1	-1E+10	1	-1E+10	1	-1E+10	1
4902551	51	C	01/06/2022	22:59	-133.147	49.496	0	363.00	0	4.4590	0	33.9610	0	26.914	0	359.589	0	48.6	4	15.5	4	-1E+10	1	-1E+10	1	-1E+10	1	-1E+10	1	-1E+10	1	-1E+10	1
4902551	51	C	01/06/2022	22:59	-133.147	49.496	0	367.70	0	4.4430	0	33.9650	0	26.919	0	364.241	0	47.9	4	15.3	4	-1E+10	1	-1E+10	1	-1E+10	1	-1E+10	1	-1E+10	1	-1E+10	1
4902551	51	C	01/06/2022	22:59	-133.147	49.496	0	373.00	0	4.4160	0	33.9730	0	26.929	0	369.486	0	47.2	4	15.0	4	-1E+10	1	-1E+10	1	-1E+10	1	-1E+10	1	-1E+10	1	-1E+10	1
4902551	51	C	01/06/2022	22:59	-133.147	49.496	0	377.80	0	4.4040	0	33.9780	0	26.934	0	374.236	0	46.4	4	14.8	4	-1E+10	1	-1E+10	1	-1E+10	1	-1E+10	1	-1E+10	1	-1E+10	1
4902551	51	C	01/06/2022	22:59	-133.147	49.496	0	382.60	0	4.3840	0	33.9860	0	26.942	0	378.987	0	46.1	4	14.7	4	-1E+10	1	-1E+10	1	-1E+10	1	-1E+10	1	-1E+10	1	-1E+10	1
4902551	51	C	01/06/2022	22:59	-133.147	49.496	0	387.80	0	4.3700	0	33.9880	0	26.946	0	384.133	0	45.6	4	14.5	4	-1E+10	1	-1E+10	1	-1E+10	1	-1E+10	1	-1E+10	1	-1E+10	1
4902551	51	C	01/06/2022	22:59	-133.147	49.496	0	393.00	0	4.3540	0	33.9930	0	26.951	0	389.279	0	44.7	4	14.2	4	-1E+10	1	-1E+10	1	-1E+10	1	-1E+10	1	-1E+10	1	-1E+10	1
4902551	51	C	01/06/2022	22:59	-133.147	49.496	0	397.80	0	4.3450	0	33.9970	0	26.955	0	394.029	0	44.0	4	14.0	4	-1E+10	1	-1E+10	1	-1E+10	1	-1E+10	1	-1E+10	1	-1E+10	1
4902551	51	C	01/06/2022	22:59	-133.147	49.496	0	402.50	0	4.3420	0	33.9990	0	26.957	0	398.680	0	43.2	4	13.7	4	-1E+10	1	-1E+10	1	-1E+10	1	-1E+10	1	-1E+10	1	-1E+10	1
4902551	51	C	01/06/2022	22:59	-133.147	49.496	0	407.90	0	4.3350	0	34.0030	0	26.961	0	404.023	0	42.1	4	13.4	4	-1E+10	1	-1E+10	1	-1E+10	1	-1E+10	1	-1E+10	1	-1E+10	1
4902551	51	C	01/06/2022	22:59	-133.147	49.496	0	413.00	0	4.3280	0	34.0080	0	26.966	0	409.070	0	41.5	4	13.2	4	-1E+10	1	-1E+10	1	-1E+10	1	-1E+10	1	-1E+10	1	-1E+10	1
4902551	51	C	01/06/2022	22:59	-133.147	49.496	0	417.80	0	4.3160	0	34.0120	0	26.971	0	413.819	0	40.7	4	12.9	4	-1E+10	1	-1E+10	1	-1E+10	1	-1E+10	1	-1E+10	1	-1E+10	1
4902551	51	C	01/06/2022	22:59	-133.147	49.496	0	422.60	0	4.3090	0	34.0160	0	26.975	0	418.569	0	39.6	4	12.6	4	-1E+10	1	-1E+10	1	-1E+10	1	-1E+10	1	-1E+10	1	-1E+10	1
4902551	51	C	01/06/2022	22:59	-133.147	49.496	0	427.50	0	4.2970	0	34.0230	0	26.981	0	423.417	0	39.1	4	12.4	4	-1E+10	1	-1E+10	1	-1E+10	1	-1E+10	1	-1E+10	1	-1E+10	1
4902551	51	C	01/06/2022	22:59	-133.147	49.496	0	432.50	0	4.2740	0	34.0270	0	26.987	0	428.364	0	38.4	4	12.2	4	-1E+10	1	-1E+10	1	-1E+10	1	-1E+10	1	-1E+10	1	-1E+10	1
4902551	51	C	01/06/2022	22:59	-133.147	49.496	0	437.60	0	4.2620	0	34.0320	0	26.992	0	433.410	0	37.1	4	11.8	4	-1E+10	1	-1E+10	1	-1E+10	1	-1E+10	1	-1E+10	1	-1E+10	1
4902551	51	C	01/06/2022	22:59	-133.147	49.496	0	442.80	0	4.2510	0	34.0370	0	26.998	0	438.555	0	36.0	4	11.4	4	-1E+10	1	-1E+10	1	-1E+10	1	-1E+10	1	-1E+10	1	-1E+10	1
4902551	51	C	01/06/2022	22:59	-133.147	49.496	0	448.00	0	4.2440	0	34.0430	0	27.003	0	443.699	0	34.8	4	11.0	4	-1E+10	1	-1E+10	1	-1E+10	1	-1E+10	1	-1E+10	1	-1E+10	1
4902551	51	C	01/06/2022	22:59	-133.147	49.496	0	452.90	0	4.2340	0	34.0480	0	27.008	0	448.547	0	34.1	4	10.8	4	-1E+10	1	-1E+10	1	-1E+10	1	-1E+10	1	-1E+10	1	-1E+10	1
4902551	51	C	01/06/2022	22:59	-133.147	49.496	0	457.80	0	4.2220	0	34.0520	0	27.013	0	453.394	0	33.3	4	10.6	4	-1E+10	1	-1E+10	1	-1E+10	1	-1E+10	1	-1E+10	1	-1E+10	1
4902551	51	C	01/06/2022	22:59	-133.147	49.496	0	462.90	0	4.2050	0	34.0580	0	27.019	0	458.440	0	32.8	4	10.4	4	-1E+10	1	-1E+10	1	-1E+10	1	-1E+10	1	-1E+10	1	-1E+10	1
4902551	51	C	01/06/2022	22:59	-133.147	49.496	0	468.00	0	4.1960	0	34.0620	0	27.023	0	463.485	0	32.3	4	10.2	4	-1E+10	1	-1E+10	1	-1E+10	1	-1E+10	1	-1E+10	1	-1E+10	1
4902551	51	C	01/06/2022	22:59	-133.147	49.496	0	473.20	0	4.1840	0	34.0660	0	27.028	0	468.629	0	31.3	4	9.9	4	-1E+10	1	-1E+10	1	-1E+10	1	-1E+10	1	-1E+10	1	-1E+10	1
4902551	51	C	01/06/2022	22:59	-133.147	49.496	0	478.10	0	4.1740	0	34.0720	0	27.034	0	473.476	0	30.7	4	9.7	4	-1E+10	1	-1E+10	1	-1E+10	1	-1E+10	1	-1E+10	1	-1E+10	1
4902551	51	C	01/06/2022	22:59	-133.147	49.496	0	482.90	0	4.1710	0	34.0750	0	27.036	0	478.224	0	30.3	4	9.6	4	-1E+10	1	-1E+10	1	-1E+10	1	-1E+10	1	-1E+10	1	-1E+10	1
4902551	51	C	01/06/2022	22:59	-133.147	49.496	0	487.80	0	4.1670	0	34.0750	0	27.037	0	483.071	0	29.8	4	9.4	4	-1E+10	1	-1E+10	1	-1E+10	1	-1E+10	1	-1E+10	1	-1E+10	1
4902551	51	C	01/06/2022	22:59	-133.147	49.496	0	492.70	0	4.1590	0	34.0800	0	27.042	0	487.918	0	29.3	4	9.3	4	-1E+10	1	-1E+10	1	-1E+10	1	-1E+10	1	-1E+10	1	-1E+10	1
4902551	51	C	01/06/2022	22:59	-133.147	49.496	0	497.70	0	4.1450	0	34.0840	0	27.046	0	492.863	0	29.0	4	9.2	4	-1E+10	1	-1E+10	1	-1E+10	1	-1E+10	1	-1E+10	1	-1E+10	1
4902551	51	C	01/06/2022	22:59	-133.147	49.496	0	502.70	0	4.1240	0	34.0890	0	27.053	0	497.809	0	28.6	4	9.0	4	-1E+10	1	-1E+10	1	-1E+10	1	-1E+10	1	-1E+10	1	-1E+10	1
4902551	51	C	01/06/2022	22:59	-133.147	49.496	0	507.70	0	4.1160	0	34.0930	0	27.057	0	502.754	0	27.9	4	8.8	4	-1E+10	1	-1E+10	1	-1E+10	1	-1E+10	1	-1E+10	1	-1E+10	1
4902551	51	C	01/06/2022	22:59	-133.147	49.496	0	512.70	0	4.1120	0	34.0960	0	27.059	0	507.699	0	27.6	4	8.7	4	-1E+10	1	-1E+10	1	-1E+10	1	-1E+10	1	-1E+10	1	-1E+10	1
4902551	51	C	01/06/2022	22:59	-133.147	49.496	0	517.60	0	4.1020	0	34.0990	0	27.063	0	512.545	0	27.5	4	8.7	4	-1E+10	1	-1E+10	1	-1E+10	1	-1E+10	1	-1E+10	1	-1E+10	1
4902551	51	C	01/06/2022	22:59	-133.147	49.496	0	522.60	0	4.0830	0	34.1020	0	27.067	0	517.490	0	27.3	4	8.6	4	-1E+10	1	-1E+10	1	-1E+10	1	-1E+10	1	-1E+10	1	-1E+10	1
4902551	51	C	01/06/2022	22:59	-133.147	49.496	0	527.90	0	4.0740	0	34.1050	0	27.071	0	522.732	0	26.8	4	8.5	4	-1E+10	1	-1E+10	1	-1E+10	1	-1E+10	1	-1E+10	1	-1E+10	1
4902551	51	C	01/06/2022	22:59	-133.147	49.496	0	533.30	0	4.0650	0	34.1080	0	27.074	0	528.072	0	26.3	4	8.3	4	-1E+10	1	-1E+10	1	-1E+10	1	-1E+10	1	-1E+10	1	-1E+10	1
4902551	51	C	01/06/2022	22:59	-133.147	49.496	0	538.10	0	4.0620	0	34.1100	0	27.076	0	532.819	0	25.6	4	8.1	4	-1E+10	1	-1E+10	1	-1E+10	1	-1E+10	1	-1E+10	1	-1E+10	1
4902551	51	C	01/06/2022	22:59	-133.147	49.496	0	542.90	0	4.0460	0	34.1170	0	27.083	0	537.565	0	25.0	4	7.9	4	-1E+10	1	-1E+10	1	-1E+10	1	-1E+10	1	-1E+10	1	-1E+10	1
4902551	51	C	01/06/2022	22:59	-133.147	49.496	0	547.90	0	4.0320	0	34.1210	0	27.088	0	542.510	0	24.7	4	7.8	4	-1E+10	1	-1E+10	1	-1E+10	1	-1E+10	1	-1E+10	1	-1E+10	1
4902551	51	C	01/06/2022	22:59	-133.147	49.496	0	552.80	0	4.0160	0	34.1250	0	27.093	0	547.355	0	24.2	4	7.6	4	-1E+10	1	-1E+10	1	-1E+10	1	-1E+10	1	-1E+10	1	-1E+10	1
4902551	51	C	01/06/2022	22:59	-133.147	49.496	0	557.80	0	4.0040	0	34.1310	0	27.099	0	552.299	0	23.6	4	7.5	4	-1E+10	1	-1E+10	1	-1E+10	1	-1E+10	1	-1E+10	1	-1E+10	1
4902551	51	C	01/06/2022	22:59	-133.147	49.496	0	562.90	0	3.9890	0	34.1340	0	27.103	0	557.342	0	23.0	4	7.3	4	-1E+10	1	-1E+10	1	-1E+10	1	-1E+10	1	-1E+10	1	-1E+10	1
4902551	51	C	01/06/2022	22:59	-133.147	49.496	0	568.00	0	3.9850	0	34.1390	0	27.107	0	562.385	0	22.4	4	7.1	4	-1E+10	1	-1E+10	1	-1E+10	1	-1E+10	1	-1E+10	1	-1E+10	1
4902551	51	C	01/06/2022	22:59	-133.147	49.496	0	573.20	0	3.9750	0	34.1430	0	27.111	0	567.526	0	22.1	4	7.0	4	-1E+10	1	-1E+10	1	-1E+10	1	-1E+10	1	-1E+10	1	-1E+10	1
4902551	51	C	01/06/2022	22:59	-133.147	49.496	0	577.90	0	3.9660	0	34.1460	0	27.115	0	572.173	0	21.9	4	6.9	4	-1E+10	1	-1E+10	1	-1E+10	1	-1E+10	1	-1E+10	1	-1E+10	1
4902551	51	C	01/06/2022	22:59	-133.147	49.496	0	582.60	0	3.9540	0	34.1490	0	27.118	0	576.820	0	21.7	4	6.8	4	-1E+10	1	-1E+10	1	-1E+10	1	-1E+10	1	-1E+10	1	-1E+10	1
4902551	51	C	01/06/2022	22:59	-133.147	49.496	0	587.90	0	3.9460	0	34.1520	0	27.121	0	582.060	0	21.4	4	6.8	4	-1E+10	1	-1E+10	1	-1E+10	1	-1E+10	1	-1E+10	1	-1E+10	1
4902551	51	C	01/06/2022	22:59	-133.147	49.496	0	593.10	0	3.9350	0	34.1550	0	27.125	0	587.201	0	21.2	4	6.7	4	-1E+10	1	-1E+10	1	-1E+10	1	-1E+10	1	-1E+10	1	-1E+10	1
4902551	51	C	01/06/2022	22:59	-133.147	49.496	0	598.20	0	3.9160	0	34.1610	0	27.132	0	592.243	0	21.0	4	6.6	4	-1E+10	1	-1E+10	1	-1E+10	1	-1E+10	1	-1E+10	1	-1E+10	1
4902551	51	C	01/06/2022	22:59	-133.147	49.496	0	603.20	0	3.8950	0	34.1650	0	27.137	0	597.186	0	20.9	4	6.6	4	-1E+10	1	-1E+10	1	-1E+10	1	-1E+10	1	-1E+10	1	-1E+10	1
4902551	51	C	01/06/2022	22:59	-133.147	49.496	0	607.80	0	3.8880	0	34.1670	0	27.139	0	601.734	0	20.8	4	6.5	4	-1E+10	1	-1E+10	1	-1E+10	1	-1E+10	1	-1E+10	1	-1E+10	1
4902551	51	C	01/06/2022	22:59	-133.147	49.496	0	612.40	0	3.8720	0	34.1710	0	27.144	0	606.281	0	20.7	4	6.5	4	-1E+10	1	-1E+10	1	-1E+10	1	-1E+10	1	-1E+10	1	-1E+10	1
4902551	51	C	01/06/2022	22:59	-133.147	49.496	0	617.50	0	3.8560	0	34.1740	0	27.148	0	611.323	0	20.6	4	6.5	4	-1E+10	1	-1E+10	1	-1E+10	1	-1E+10	1	-1E+10	1	-1E+10	1
4902551	51	C	01/06/2022	22:59	-133.147	49.496	0	622.70	0	3.8390	0	34.1780	0	27.153	0	616.463	0	20.4	4	6.4	4	-1E+10	1	-1E+10	1	-1E+10	1	-1E+10	1	-1E+10	1	-1E+10	1
4902551	51	C	01/06/2022	22:59	-133.147	49.496	0	628.00	0	3.8210	0	34.1820	0	27.158	0	621.702	0	20.2	4	6.4	4	-1E+10	1	-1E+10	1	-1E+10	1	-1E+10	1	-1E+10	1	-1E+10	1
4902551	51	C	01/06/2022	22:59	-133.147	49.496	0	632.80	0	3.7950	0	34.1880	0	27.166	0	626.447	0	20.1	4	6.3	4	-1E+10	1	-1E+10	1	-1E+10	1	-1E+10	1	-1E+10	1	-1E+10	1
4902551	51	C	01/06/2022	22:59	-133.147	49.496	0	637.60	0	3.7800	0	34.1920	0	27.170	0	631.191	0	20.0	4	6.3	4	-1E+10	1	-1E+10	1	-1E+10	1	-1E+10	1	-1E+10	1	-1E+10	1
4902551	51	C	01/06/2022	22:59	-133.147	49.496	0	642.90	0	3.7710	0	34.1930	0	27.172	0	636.430	0	19.9	4	6.2	4	-1E+10	1	-1E+10	1	-1E+10	1	-1E+10	1	-1E+10	1	-1E+10	1
4902551	51	C	01/06/2022	22:59	-133.147	49.496	0	648.00	0	3.7610	0	34.1960	0	27.175	0	641.471	0	19.7	4	6.2	4	-1E+10	1	-1E+10	1	-1E+10	1	-1E+10	1	-1E+10	1	-1E+10	1
4902551	51	C	01/06/2022	22:59	-133.147	49.496	0	652.70	0	3.7480	0	34.1990	0	27.179	0	646.116	0	19.5	4	6.1	4	-1E+10	1	-1E+10	1	-1E+10	1	-1E+10	1	-1E+10	1	-1E+10	1
4902551	51	C	01/06/2022	22:59	-133.147	49.496	0	658.00	0	3.7330	0	34.2030	0	27.184	0	651.354	0	19.3	4	6.1	4	-1E+10	1	-1E+10	1	-1E+10	1	-1E+10	1	-1E+10	1	-1E+10	1
4902551	51	C	01/06/2022	22:59	-133.147	49.496	0	663.10	0	3.7150	0	34.2070	0	27.189	0	656.395	0	19.1	4	6.0	4	-1E+10	1	-1E+10	1	-1E+10	1	-1E+10	1	-1E+10	1	-1E+10	1
4902551	51	C	01/06/2022	22:59	-133.147	49.496	0	668.00	0	3.7070	0	34.2090	0	27.191	0	661.238	0	19.0	4	6.0	4	-1E+10	1	-1E+10	1	-1E+10	1	-1E+10	1	-1E+10	1	-1E+10	1
4902551	51	C	01/06/2022	22:59	-133.147	49.496	0	673.10	0	3.7040	0	34.2100	0	27.192	0	666.278	0	18.8	4	5.9	4	-1E+10	1	-1E+10	1	-1E+10	1	-1E+10	1	-1E+10	1	-1E+10	1
4902551	51	C	01/06/2022	22:59	-133.147	49.496	0	677.80	0	3.6850	0	34.2150	0	27.198	0	670.923	0	18.6	4	5.8	4	-1E+10	1	-1E+10	1	-1E+10	1	-1E+10	1	-1E+10	1	-1E+10	1
4902551	51	C	01/06/2022	22:59	-133.147	49.496	0	682.60	0	3.6800	0	34.2160	0	27.200	0	675.666	0	18.4	4	5.8	4	-1E+10	1	-1E+10	1	-1E+10	1	-1E+10	1	-1E+10	1	-1E+10	1
4902551	51	C	01/06/2022	22:59	-133.147	49.496	0	687.90	0	3.6740	0	34.2180	0	27.202	0	680.904	0	18.1	4	5.7	4	-1E+10	1	-1E+10	1	-1E+10	1	-1E+10	1	-1E+10	1	-1E+10	1
4902551	51	C	01/06/2022	22:59	-133.147	49.496	0	693.30	0	3.6630	0	34.2210	0	27.205	0	686.240	0	17.8	4	5.6	4	-1E+10	1	-1E+10	1	-1E+10	1	-1E+10	1	-1E+10	1	-1E+10	1
4902551	51	C	01/06/2022	22:59	-133.147	49.496	0	698.30	0	3.6540	0	34.2260	0	27.210	0	691.181	0	17.6	4	5.5	4	-1E+10	1	-1E+10	1	-1E+10	1	-1E+10	1	-1E+10	1	-1E+10	1
4902551	51	C	01/06/2022	22:59	-133.147	49.496	0	703.30	0	3.6430	0	34.2270	0	27.212	0	696.121	0	17.5	4	5.5	4	-1E+10	1	-1E+10	1	-1E+10	1	-1E+10	1	-1E+10	1	-1E+10	1
4902551	51	C	01/06/2022	22:59	-133.147	49.496	0	708.30	0	3.6380	0	34.2290	0	27.214	0	701.062	0	17.2	4	5.4	4	-1E+10	1	-1E+10	1	-1E+10	1	-1E+10	1	-1E+10	1	-1E+10	1
4902551	51	C	01/06/2022	22:59	-133.147	49.496	0	713.30	0	3.6320	0	34.2330	0	27.218	0	706.002	0	16.9	4	5.3	4	-1E+10	1	-1E+10	1	-1E+10	1	-1E+10	1	-1E+10	1	-1E+10	1
4902551	51	C	01/06/2022	22:59	-133.147	49.496	0	718.30	0	3.6210	0	34.2360	0	27.222	0	710.943	0	16.8	4	5.3	4	-1E+10	1	-1E+10	1	-1E+10	1	-1E+10	1	-1E+10	1	-1E+10	1
4902551	51	C	01/06/2022	22:59	-133.147	49.496	0	723.00	0	3.6110	0	34.2400	0	27.226	0	715.586	0	16.8	4	5.3	4	-1E+10	1	-1E+10	1	-1E+10	1	-1E+10	1	-1E+10	1	-1E+10	1
4902551	51	C	01/06/2022	22:59	-133.147	49.496	0	727.50	0	3.5890	0	34.2410	0	27.229	0	720.033	0	16.7	4	5.2	4	-1E+10	1	-1E+10	1	-1E+10	1	-1E+10	1	-1E+10	1	-1E+10	1
4902551	51	C	01/06/2022	22:59	-133.147	49.496	0	732.70	0	3.5740	0	34.2450	0	27.233	0	725.170	0	16.5	4	5.2	4	-1E+10	1	-1E+10	1	-1E+10	1	-1E+10	1	-1E+10	1	-1E+10	1
4902551	51	C	01/06/2022	22:59	-133.147	49.496	0	738.00	0	3.5540	0	34.2490	0	27.239	0	730.406	0	16.4	4	5.1	4	-1E+10	1	-1E+10	1	-1E+10	1	-1E+10	1	-1E+10	1	-1E+10	1
4902551	51	C	01/06/2022	22:59	-133.147	49.496	0	743.00	0	3.5460	0	34.2510	0	27.241	0	735.346	0	16.3	4	5.1	4	-1E+10	1	-1E+10	1	-1E+10	1	-1E+10	1	-1E+10	1	-1E+10	1
4902551	51	C	01/06/2022	22:59	-133.147	49.496	0	748.10	0	3.5390	0	34.2530	0	27.243	0	740.385	0	16.1	4	5.0	4	-1E+10	1	-1E+10	1	-1E+10	1	-1E+10	1	-1E+10	1	-1E+10	1
4902551	51	C	01/06/2022	22:59	-133.147	49.496	0	753.20	0	3.5290	0	34.2560	0	27.247	0	745.423	0	15.9	4	5.0	4	-1E+10	1	-1E+10	1	-1E+10	1	-1E+10	1	-1E+10	1	-1E+10	1
4902551	51	C	01/06/2022	22:59	-133.147	49.496	0	758.20	0	3.5170	0	34.2590	0	27.250	0	750.362	0	15.8	4	4.9	4	-1E+10	1	-1E+10	1	-1E+10	1	-1E+10	1	-1E+10	1	-1E+10	1
4902551	51	C	01/06/2022	22:59	-133.147	49.496	0	763.20	0	3.5060	0	34.2620	0	27.254	0	755.302	0	15.6	4	4.9	4	-1E+10	1	-1E+10	1	-1E+10	1	-1E+10	1	-1E+10	1	-1E+10	1
4902551	51	C	01/06/2022	22:59	-133.147	49.496	0	768.30	0	3.4960	0	34.2650	0	27.257	0	760.339	0	15.4	4	4.8	4	-1E+10	1	-1E+10	1	-1E+10	1	-1E+10	1	-1E+10	1	-1E+10	1
4902551	51	C	01/06/2022	22:59	-133.147	49.496	0	773.30	0	3.4870	0	34.2680	0	27.260	0	765.278	0	15.2	4	4.8	4	-1E+10	1	-1E+10	1	-1E+10	1	-1E+10	1	-1E+10	1	-1E+10	1
4902551	51	C	01/06/2022	22:59	-133.147	49.496	0	778.30	0	3.4820	0	34.2700	0	27.262	0	770.217	0	15.2	4	4.7	4	-1E+10	1	-1E+10	1	-1E+10	1	-1E+10	1	-1E+10	1	-1E+10	1
4902551	51	C	01/06/2022	22:59	-133.147	49.496	0	782.90	0	3.4710	0	34.2720	0	27.265	0	774.761	0	15.0	4	4.7	4	-1E+10	1	-1E+10	1	-1E+10	1	-1E+10	1	-1E+10	1	-1E+10	1
4902551	51	C	01/06/2022	22:59	-133.147	49.496	0	787.40	0	3.4630	0	34.2740	0	27.268	0	779.206	0	14.9	4	4.7	4	-1E+10	1	-1E+10	1	-1E+10	1	-1E+10	1	-1E+10	1	-1E+10	1
4902551	51	C	01/06/2022	22:59	-133.147	49.496	0	792.50	0	3.4590	0	34.2750	0	27.269	0	784.243	0	14.8	4	4.6	4	-1E+10	1	-1E+10	1	-1E+10	1	-1E+10	1	-1E+10	1	-1E+10	1
4902551	51	C	01/06/2022	22:59	-133.147	49.496	0	797.50	0	3.4520	0	34.2780	0	27.272	0	789.182	0	14.6	4	4.5	4	-1E+10	1	-1E+10	1	-1E+10	1	-1E+10	1	-1E+10	1	-1E+10	1
4902551	51	C	01/06/2022	22:59	-133.147	49.496	0	802.50	0	3.4400	0	34.2820	0	27.276	0	794.120	0	14.4	4	4.5	4	-1E+10	1	-1E+10	1	-1E+10	1	-1E+10	1	-1E+10	1	-1E+10	1
4902551	51	C	01/06/2022	22:59	-133.147	49.496	0	807.50	0	3.4340	0	34.2840	0	27.278	0	799.058	0	14.2	4	4.4	4	-1E+10	1	-1E+10	1	-1E+10	1	-1E+10	1	-1E+10	1	-1E+10	1
4902551	51	C	01/06/2022	22:59	-133.147	49.496	0	812.60	0	3.4270	0	34.2870	0	27.281	0	804.095	0	14.1	4	4.4	4	-1E+10	1	-1E+10	1	-1E+10	1	-1E+10	1	-1E+10	1	-1E+10	1
4902551	51	C	01/06/2022	22:59	-133.147	49.496	0	817.60	0	3.4130	0	34.2900	0	27.285	0	809.033	0	14.1	4	4.4	4	-1E+10	1	-1E+10	1	-1E+10	1	-1E+10	1	-1E+10	1	-1E+10	1
4902551	51	C	01/06/2022	22:59	-133.147	49.496	0	822.80	0	3.4070	0	34.2910	0	27.287	0	814.169	0	14.1	4	4.4	4	-1E+10	1	-1E+10	1	-1E+10	1	-1E+10	1	-1E+10	1	-1E+10	1
4902551	51	C	01/06/2022	22:59	-133.147	49.496	0	827.90	0	3.3880	0	34.2940	0	27.291	0	819.205	0	14.2	4	4.4	4	-1E+10	1	-1E+10	1	-1E+10	1	-1E+10	1	-1E+10	1	-1E+10	1
4902551	51	C	01/06/2022	22:59	-133.147	49.496	0	833.10	0	3.3690	0	34.2960	0	27.294	0	824.340	0	14.1	4	4.4	4	-1E+10	1	-1E+10	1	-1E+10	1	-1E+10	1	-1E+10	1	-1E+10	1
4902551	51	C	01/06/2022	22:59	-133.147	49.496	0	838.00	0	3.3670	0	34.2970	0	27.295	0	829.179	0	14.0	4	4.4	4	-1E+10	1	-1E+10	1	-1E+10	1	-1E+10	1	-1E+10	1	-1E+10	1
4902551	51	C	01/06/2022	22:59	-133.147	49.496	0	843.10	0	3.3650	0	34.2990	0	27.297	0	834.215	0	13.9	4	4.3	4	-1E+10	1	-1E+10	1	-1E+10	1	-1E+10	1	-1E+10	1	-1E+10	1
4902551	51	C	01/06/2022	22:59	-133.147	49.496	0	848.20	0	3.3590	0	34.3010	0	27.299	0	839.251	0	13.8	4	4.3	4	-1E+10	1	-1E+10	1	-1E+10	1	-1E+10	1	-1E+10	1	-1E+10	1
4902551	51	C	01/06/2022	22:59	-133.147	49.496	0	852.90	0	3.3520	0	34.3030	0	27.302	0	843.892	0	13.7	4	4.3	4	-1E+10	1	-1E+10	1	-1E+10	1	-1E+10	1	-1E+10	1	-1E+10	1
4902551	51	C	01/06/2022	22:59	-133.147	49.496	0	857.70	0	3.3380	0	34.3060	0	27.305	0	848.632	0	13.7	4	4.3	4	-1E+10	1	-1E+10	1	-1E+10	1	-1E+10	1	-1E+10	1	-1E+10	1
4902551	51	C	01/06/2022	22:59	-133.147	49.496	0	863.10	0	3.3260	0	34.3090	0	27.309	0	853.963	0	13.6	4	4.2	4	-1E+10	1	-1E+10	1	-1E+10	1	-1E+10	1	-1E+10	1	-1E+10	1
4902551	51	C	01/06/2022	22:59	-133.147	49.496	0	868.10	0	3.3190	0	34.3110	0	27.311	0	858.900	0	13.6	4	4.2	4	-1E+10	1	-1E+10	1	-1E+10	1	-1E+10	1	-1E+10	1	-1E+10	1
4902551	51	C	01/06/2022	22:59	-133.147	49.496	0	872.70	0	3.3120	0	34.3120	0	27.313	0	863.442	0	13.5	4	4.2	4	-1E+10	1	-1E+10	1	-1E+10	1	-1E+10	1	-1E+10	1	-1E+10	1
4902551	51	C	01/06/2022	22:59	-133.147	49.496	0	877.80	0	3.3050	0	34.3140	0	27.315	0	868.477	0	13.5	4	4.2	4	-1E+10	1	-1E+10	1	-1E+10	1	-1E+10	1	-1E+10	1	-1E+10	1
4902551	51	C	01/06/2022	22:59	-133.147	49.496	0	883.00	0	3.2920	0	34.3160	0	27.318	0	873.611	0	13.5	4	4.2	4	-1E+10	1	-1E+10	1	-1E+10	1	-1E+10	1	-1E+10	1	-1E+10	1
4902551	51	C	01/06/2022	22:59	-133.147	49.496	0	887.80	0	3.2680	0	34.3190	0	27.322	0	878.350	0	13.5	4	4.2	4	-1E+10	1	-1E+10	1	-1E+10	1	-1E+10	1	-1E+10	1	-1E+10	1
4902551	51	C	01/06/2022	22:59	-133.147	49.496	0	892.70	0	3.2590	0	34.3210	0	27.325	0	883.188	0	13.4	4	4.2	4	-1E+10	1	-1E+10	1	-1E+10	1	-1E+10	1	-1E+10	1	-1E+10	1
4902551	51	C	01/06/2022	22:59	-133.147	49.496	0	897.60	0	3.2510	0	34.3220	0	27.326	0	888.025	0	13.4	4	4.2	4	-1E+10	1	-1E+10	1	-1E+10	1	-1E+10	1	-1E+10	1	-1E+10	1
4902551	51	C	01/06/2022	22:59	-133.147	49.496	0	902.60	0	3.2380	0	34.3240	0	27.329	0	892.961	0	13.4	4	4.2	4	-1E+10	1	-1E+10	1	-1E+10	1	-1E+10	1	-1E+10	1	-1E+10	1
4902551	51	C	01/06/2022	22:59	-133.147	49.496	0	907.60	0	3.2250	0	34.3260	0	27.332	0	897.897	0	13.3	4	4.1	4	-1E+10	1	-1E+10	1	-1E+10	1	-1E+10	1	-1E+10	1	-1E+10	1
4902551	51	C	01/06/2022	22:59	-133.147	49.496	0	912.60	0	3.2190	0	34.3270	0	27.334	0	902.833	0	13.2	4	4.1	4	-1E+10	1	-1E+10	1	-1E+10	1	-1E+10	1	-1E+10	1	-1E+10	1
4902551	51	C	01/06/2022	22:59	-133.147	49.496	0	917.70	0	3.2110	0	34.3300	0	27.337	0	907.867	0	13.1	4	4.1	4	-1E+10	1	-1E+10	1	-1E+10	1	-1E+10	1	-1E+10	1	-1E+10	1
4902551	51	C	01/06/2022	22:59	-133.147	49.496	0	922.70	0	3.2030	0	34.3320	0	27.339	0	912.803	0	13.0	4	4.0	4	-1E+10	1	-1E+10	1	-1E+10	1	-1E+10	1	-1E+10	1	-1E+10	1
4902551	51	C	01/06/2022	22:59	-133.147	49.496	0	927.80	0	3.2040	0	34.3350	0	27.341	0	917.837	0	12.9	4	4.0	4	-1E+10	1	-1E+10	1	-1E+10	1	-1E+10	1	-1E+10	1	-1E+10	1
4902551	51	C	01/06/2022	22:59	-133.147	49.496	0	932.80	0	3.1940	0	34.3370	0	27.344	0	922.772	0	13.0	4	4.0	4	-1E+10	1	-1E+10	1	-1E+10	1	-1E+10	1	-1E+10	1	-1E+10	1
4902551	51	C	01/06/2022	22:59	-133.147	49.496	0	937.90	0	3.1840	0	34.3380	0	27.346	0	927.806	0	12.9	4	4.0	4	-1E+10	1	-1E+10	1	-1E+10	1	-1E+10	1	-1E+10	1	-1E+10	1
4902551	51	C	01/06/2022	22:59	-133.147	49.496	0	943.00	0	3.1810	0	34.3390	0	27.347	0	932.840	0	12.8	4	4.0	4	-1E+10	1	-1E+10	1	-1E+10	1	-1E+10	1	-1E+10	1	-1E+10	1
4902551	51	C	01/06/2022	22:59	-133.147	49.496	0	948.10	0	3.1780	0	34.3420	0	27.350	0	937.873	0	12.9	4	4.0	4	-1E+10	1	-1E+10	1	-1E+10	1	-1E+10	1	-1E+10	1	-1E+10	1
4902551	51	C	01/06/2022	22:59	-133.147	49.496	0	953.30	0	3.1650	0	34.3450	0	27.353	0	943.005	0	12.8	4	4.0	4	-1E+10	1	-1E+10	1	-1E+10	1	-1E+10	1	-1E+10	1	-1E+10	1
4902551	51	C	01/06/2022	22:59	-133.147	49.496	0	957.90	0	3.1580	0	34.3470	0	27.355	0	947.545	0	12.7	4	3.9	4	-1E+10	1	-1E+10	1	-1E+10	1	-1E+10	1	-1E+10	1	-1E+10	1
4902551	51	C	01/06/2022	22:59	-133.147	49.496	0	962.60	0	3.1490	0	34.3500	0	27.359	0	952.184	0	12.6	4	3.9	4	-1E+10	1	-1E+10	1	-1E+10	1	-1E+10	1	-1E+10	1	-1E+10	1
4902551	51	C	01/06/2022	22:59	-133.147	49.496	0	967.90	0	3.1380	0	34.3520	0	27.361	0	957.414	0	12.7	4	3.9	4	-1E+10	1	-1E+10	1	-1E+10	1	-1E+10	1	-1E+10	1	-1E+10	1
4902551	51	C	01/06/2022	22:59	-133.147	49.496	0	973.20	0	3.1340	0	34.3530	0	27.363	0	962.645	0	12.7	4	3.9	4	-1E+10	1	-1E+10	1	-1E+10	1	-1E+10	1	-1E+10	1	-1E+10	1
4902551	51	C	01/06/2022	22:59	-133.147	49.496	0	977.90	0	3.1250	0	34.3550	0	27.365	0	967.283	0	12.9	4	4.0	4	-1E+10	1	-1E+10	1	-1E+10	1	-1E+10	1	-1E+10	1	-1E+10	1
4902551	51	C	01/06/2022	22:59	-133.147	49.496	0	982.70	0	3.1110	0	34.3560	0	27.367	0	972.020	0	12.9	4	4.0	4	-1E+10	1	-1E+10	1	-1E+10	1	-1E+10	1	-1E+10	1	-1E+10	1
4902551	51	C	01/06/2022	22:59	-133.147	49.496	0	988.00	0	3.0980	0	34.3580	0	27.370	0	977.250	0	12.8	4	4.0	4	-1E+10	1	-1E+10	1	-1E+10	1	-1E+10	1	-1E+10	1	-1E+10	1
4902551	51	C	01/06/2022	22:59	-133.147	49.496	0	992.80	0	3.0890	0	34.3600	0	27.372	0	981.986	0	12.7	4	3.9	4	-1E+10	1	-1E+10	1	-1E+10	1	-1E+10	1	-1E+10	1	-1E+10	1
4902551	51	C	01/06/2022	22:59	-133.147	49.496	0	997.60	0	3.0810	0	34.3620	0	27.375	0	986.723	0	12.8	4	3.9	4	-1E+10	1	-1E+10	1	-1E+10	1	-1E+10	1	-1E+10	1	-1E+10	1
4902551	51	C	01/06/2022	22:59	-133.147	49.496	0	1005.70	0	3.0620	0	34.3670	0	27.380	0	994.715	0	12.9	4	4.0	4	-1E+10	1	-1E+10	1	-1E+10	1	-1E+10	1	-1E+10	1	-1E+10	1
4902551	51	C	01/06/2022	22:59	-133.147	49.496	0	1015.30	0	3.0360	0	34.3710	0	27.386	0	1004.187	0	13.1	4	4.0	4	-1E+10	1	-1E+10	1	-1E+10	1	-1E+10	1	-1E+10	1	-1E+10	1
4902551	51	C	01/06/2022	22:59	-133.147	49.496	0	1025.30	0	3.0140	0	34.3740	0	27.390	0	1014.054	0	13.1	4	4.0	4	-1E+10	1	-1E+10	1	-1E+10	1	-1E+10	1	-1E+10	1	-1E+10	1
4902551	51	C	01/06/2022	22:59	-133.147	49.496	0	1035.50	0	3.0080	0	34.3760	0	27.393	0	1024.117	0	13.1	4	4.0	4	-1E+10	1	-1E+10	1	-1E+10	1	-1E+10	1	-1E+10	1	-1E+10	1
4902551	51	C	01/06/2022	22:59	-133.147	49.496	0	1045.60	0	2.9950	0	34.3780	0	27.396	0	1034.081	0	13.1	4	4.0	4	-1E+10	1	-1E+10	1	-1E+10	1	-1E+10	1	-1E+10	1	-1E+10	1
4902551	51	C	01/06/2022	22:59	-133.147	49.496	0	1055.60	0	2.9730	0	34.3830	0	27.402	0	1043.946	0	13.1	4	4.0	4	-1E+10	1	-1E+10	1	-1E+10	1	-1E+10	1	-1E+10	1	-1E+10	1
4902551	51	C	01/06/2022	22:59	-133.147	49.496	0	1065.30	0	2.9560	0	34.3860	0	27.406	0	1053.515	0	13.1	4	4.0	4	-1E+10	1	-1E+10	1	-1E+10	1	-1E+10	1	-1E+10	1	-1E+10	1
4902551	51	C	01/06/2022	22:59	-133.147	49.496	0	1075.40	0	2.9390	0	34.3900	0	27.410	0	1063.477	0	13.2	4	4.1	4	-1E+10	1	-1E+10	1	-1E+10	1	-1E+10	1	-1E+10	1	-1E+10	1
4902551	51	C	01/06/2022	22:59	-133.147	49.496	0	1085.50	0	2.9260	0	34.3930	0	27.414	0	1073.440	0	13.2	4	4.1	4	-1E+10	1	-1E+10	1	-1E+10	1	-1E+10	1	-1E+10	1	-1E+10	1
4902551	51	C	01/06/2022	22:59	-133.147	49.496	0	1095.50	0	2.9100	0	34.3950	0	27.417	0	1083.303	0	13.3	4	4.1	4	-1E+10	1	-1E+10	1	-1E+10	1	-1E+10	1	-1E+10	1	-1E+10	1
4902551	51	C	01/06/2022	22:59	-133.147	49.496	0	1105.50	0	2.8920	0	34.3990	0	27.422	0	1093.165	0	13.3	4	4.1	4	-1E+10	1	-1E+10	1	-1E+10	1	-1E+10	1	-1E+10	1	-1E+10	1
4902551	51	C	01/06/2022	22:59	-133.147	49.496	0	1115.50	0	2.8770	0	34.4030	0	27.426	0	1103.027	0	13.3	4	4.1	4	-1E+10	1	-1E+10	1	-1E+10	1	-1E+10	1	-1E+10	1	-1E+10	1
4902551	51	C	01/06/2022	22:59	-133.147	49.496	0	1125.20	0	2.8670	0	34.4050	0	27.429	0	1112.593	0	13.3	4	4.1	4	-1E+10	1	-1E+10	1	-1E+10	1	-1E+10	1	-1E+10	1	-1E+10	1
4902551	51	C	01/06/2022	22:59	-133.147	49.496	0	1135.10	0	2.8550	0	34.4070	0	27.432	0	1122.356	0	13.4	4	4.1	4	-1E+10	1	-1E+10	1	-1E+10	1	-1E+10	1	-1E+10	1	-1E+10	1
4902551	51	C	01/06/2022	22:59	-133.147	49.496	0	1145.50	0	2.8400	0	34.4100	0	27.435	0	1132.611	0	13.3	4	4.1	4	-1E+10	1	-1E+10	1	-1E+10	1	-1E+10	1	-1E+10	1	-1E+10	1
4902551	51	C	01/06/2022	22:59	-133.147	49.496	0	1155.50	0	2.8290	0	34.4130	0	27.439	0	1142.471	0	13.3	4	4.1	4	-1E+10	1	-1E+10	1	-1E+10	1	-1E+10	1	-1E+10	1	-1E+10	1
4902551	51	C	01/06/2022	22:59	-133.147	49.496	0	1165.50	0	2.8150	0	34.4160	0	27.443	0	1152.331	0	13.4	4	4.1	4	-1E+10	1	-1E+10	1	-1E+10	1	-1E+10	1	-1E+10	1	-1E+10	1
4902551	51	C	01/06/2022	22:59	-133.147	49.496	0	1175.70	0	2.7980	0	34.4200	0	27.447	0	1162.388	0	13.5	4	4.2	4	-1E+10	1	-1E+10	1	-1E+10	1	-1E+10	1	-1E+10	1	-1E+10	1
4902551	51	C	01/06/2022	22:59	-133.147	49.496	0	1185.60	0	2.7810	0	34.4230	0	27.451	0	1172.148	0	13.7	4	4.2	4	-1E+10	1	-1E+10	1	-1E+10	1	-1E+10	1	-1E+10	1	-1E+10	1
4902551	51	C	01/06/2022	22:59	-133.147	49.496	0	1195.70	0	2.7660	0	34.4260	0	27.455	0	1182.105	0	13.7	4	4.2	4	-1E+10	1	-1E+10	1	-1E+10	1	-1E+10	1	-1E+10	1	-1E+10	1
4902551	51	C	01/06/2022	22:59	-133.147	49.496	0	1205.40	0	2.7560	0	34.4290	0	27.458	0	1191.667	0	13.8	4	4.2	4	-1E+10	1	-1E+10	1	-1E+10	1	-1E+10	1	-1E+10	1	-1E+10	1
4902551	51	C	01/06/2022	22:59	-133.147	49.496	0	1215.50	0	2.7370	0	34.4330	0	27.463	0	1201.624	0	14.0	4	4.3	4	-1E+10	1	-1E+10	1	-1E+10	1	-1E+10	1	-1E+10	1	-1E+10	1
4902551	51	C	01/06/2022	22:59	-133.147	49.496	0	1225.30	0	2.7260	0	34.4350	0	27.466	0	1211.284	0	14.1	4	4.3	4	-1E+10	1	-1E+10	1	-1E+10	1	-1E+10	1	-1E+10	1	-1E+10	1
4902551	51	C	01/06/2022	22:59	-133.147	49.496	0	1235.40	0	2.7130	0	34.4360	0	27.468	0	1221.239	0	14.3	4	4.4	4	-1E+10	1	-1E+10	1	-1E+10	1	-1E+10	1	-1E+10	1	-1E+10	1
4902551	51	C	01/06/2022	22:59	-133.147	49.496	0	1245.50	0	2.7000	0	34.4390	0	27.471	0	1231.193	0	14.5	4	4.5	4	-1E+10	1	-1E+10	1	-1E+10	1	-1E+10	1	-1E+10	1	-1E+10	1
4902551	51	C	01/06/2022	22:59	-133.147	49.496	0	1255.20	0	2.6850	0	34.4400	0	27.474	0	1240.753	0	14.8	4	4.5	4	-1E+10	1	-1E+10	1	-1E+10	1	-1E+10	1	-1E+10	1	-1E+10	1
4902551	51	C	01/06/2022	22:59	-133.147	49.496	0	1265.10	0	2.6690	0	34.4430	0	27.477	0	1250.510	0	15.0	4	4.6	4	-1E+10	1	-1E+10	1	-1E+10	1	-1E+10	1	-1E+10	1	-1E+10	1
4902551	51	C	01/06/2022	22:59	-133.147	49.496	0	1275.30	0	2.6510	0	34.4460	0	27.481	0	1260.562	0	15.3	4	4.7	4	-1E+10	1	-1E+10	1	-1E+10	1	-1E+10	1	-1E+10	1	-1E+10	1
4902551	51	C	01/06/2022	22:59	-133.147	49.496	0	1285.40	0	2.6330	0	34.4490	0	27.485	0	1270.515	0	15.5	4	4.8	4	-1E+10	1	-1E+10	1	-1E+10	1	-1E+10	1	-1E+10	1	-1E+10	1
4902551	51	C	01/06/2022	22:59	-133.147	49.496	0	1295.30	0	2.6210	0	34.4510	0	27.488	0	1280.270	0	15.7	4	4.8	4	-1E+10	1	-1E+10	1	-1E+10	1	-1E+10	1	-1E+10	1	-1E+10	1
4902551	51	C	01/06/2022	22:59	-133.147	49.496	0	1305.20	0	2.6100	0	34.4530	0	27.491	0	1290.025	0	16.0	4	4.9	4	-1E+10	1	-1E+10	1	-1E+10	1	-1E+10	1	-1E+10	1	-1E+10	1
4902551	51	C	01/06/2022	22:59	-133.147	49.496	0	1315.30	0	2.5890	0	34.4560	0	27.495	0	1299.976	0	16.3	4	5.0	4	-1E+10	1	-1E+10	1	-1E+10	1	-1E+10	1	-1E+10	1	-1E+10	1
4902551	51	C	01/06/2022	22:59	-133.147	49.496	0	1325.60	0	2.5760	0	34.4590	0	27.498	0	1310.124	0	16.6	4	5.1	4	-1E+10	1	-1E+10	1	-1E+10	1	-1E+10	1	-1E+10	1	-1E+10	1
4902551	51	C	01/06/2022	22:59	-133.147	49.496	0	1335.70	0	2.5630	0	34.4610	0	27.501	0	1320.075	0	16.9	4	5.1	4	-1E+10	1	-1E+10	1	-1E+10	1	-1E+10	1	-1E+10	1	-1E+10	1
4902551	51	C	01/06/2022	22:59	-133.147	49.496	0	1345.60	0	2.5510	0	34.4630	0	27.504	0	1329.828	0	17.1	4	5.2	4	-1E+10	1	-1E+10	1	-1E+10	1	-1E+10	1	-1E+10	1	-1E+10	1
4902551	51	C	01/06/2022	22:59	-133.147	49.496	0	1355.40	0	2.5360	0	34.4660	0	27.508	0	1339.482	0	17.4	4	5.3	4	-1E+10	1	-1E+10	1	-1E+10	1	-1E+10	1	-1E+10	1	-1E+10	1
4902551	51	C	01/06/2022	22:59	-133.147	49.496	0	1365.70	0	2.5230	0	34.4680	0	27.510	0	1349.628	0	17.7	4	5.4	4	-1E+10	1	-1E+10	1	-1E+10	1	-1E+10	1	-1E+10	1	-1E+10	1
4902551	51	C	01/06/2022	22:59	-133.147	49.496	0	1375.40	0	2.5150	0	34.4700	0	27.513	0	1359.182	0	17.9	4	5.5	4	-1E+10	1	-1E+10	1	-1E+10	1	-1E+10	1	-1E+10	1	-1E+10	1
4902551	51	C	01/06/2022	22:59	-133.147	49.496	0	1385.20	0	2.5040	0	34.4720	0	27.515	0	1368.835	0	18.3	4	5.6	4	-1E+10	1	-1E+10	1	-1E+10	1	-1E+10	1	-1E+10	1	-1E+10	1
4902551	51	C	01/06/2022	22:59	-133.147	49.496	0	1395.40	0	2.4950	0	34.4740	0	27.518	0	1378.881	0	18.5	4	5.7	4	-1E+10	1	-1E+10	1	-1E+10	1	-1E+10	1	-1E+10	1	-1E+10	1
4902551	51	C	01/06/2022	22:59	-133.147	49.496	0	1405.60	0	2.4870	0	34.4770	0	27.521	0	1388.927	0	18.8	4	5.7	4	-1E+10	1	-1E+10	1	-1E+10	1	-1E+10	1	-1E+10	1	-1E+10	1
4902551	51	C	01/06/2022	22:59	-133.147	49.496	0	1415.40	0	2.4810	0	34.4770	0	27.521	0	1398.578	0	19.0	4	5.8	4	-1E+10	1	-1E+10	1	-1E+10	1	-1E+10	1	-1E+10	1	-1E+10	1
4902551	51	C	01/06/2022	22:59	-133.147	49.496	0	1425.10	0	2.4740	0	34.4790	0	27.524	0	1408.131	0	19.3	4	5.9	4	-1E+10	1	-1E+10	1	-1E+10	1	-1E+10	1	-1E+10	1	-1E+10	1
4902551	51	C	01/06/2022	22:59	-133.147	49.496	0	1435.30	0	2.4630	0	34.4810	0	27.526	0	1418.175	0	19.7	4	6.0	4	-1E+10	1	-1E+10	1	-1E+10	1	-1E+10	1	-1E+10	1	-1E+10	1
4902551	51	C	01/06/2022	22:59	-133.147	49.496	0	1445.70	0	2.4490	0	34.4830	0	27.529	0	1428.416	0	20.2	4	6.2	4	-1E+10	1	-1E+10	1	-1E+10	1	-1E+10	1	-1E+10	1	-1E+10	1
4902551	51	C	01/06/2022	22:59	-133.147	49.496	0	1455.50	0	2.4330	0	34.4860	0	27.533	0	1438.065	0	20.7	4	6.3	4	-1E+10	1	-1E+10	1	-1E+10	1	-1E+10	1	-1E+10	1	-1E+10	1
4902551	51	C	01/06/2022	22:59	-133.147	49.496	0	1465.40	0	2.4200	0	34.4880	0	27.536	0	1447.813	0	21.1	4	6.4	4	-1E+10	1	-1E+10	1	-1E+10	1	-1E+10	1	-1E+10	1	-1E+10	1
4902551	51	C	01/06/2022	22:59	-133.147	49.496	0	1475.30	0	2.4060	0	34.4920	0	27.540	0	1457.560	0	21.7	4	6.6	4	-1E+10	1	-1E+10	1	-1E+10	1	-1E+10	1	-1E+10	1	-1E+10	1
4902551	51	C	01/06/2022	22:59	-133.147	49.496	0	1485.20	0	2.3970	0	34.4930	0	27.542	0	1467.306	0	21.9	4	6.7	4	-1E+10	1	-1E+10	1	-1E+10	1	-1E+10	1	-1E+10	1	-1E+10	1
4902551	51	C	01/06/2022	22:59	-133.147	49.496	0	1495.20	0	2.3870	0	34.4950	0	27.544	0	1477.151	0	22.3	4	6.8	4	-1E+10	1	-1E+10	1	-1E+10	1	-1E+10	1	-1E+10	1	-1E+10	1
4902551	51	C	01/06/2022	22:59	-133.147	49.496	0	1505.10	0	2.3770	0	34.4970	0	27.546	0	1486.896	0	22.6	4	6.9	4	-1E+10	1	-1E+10	1	-1E+10	1	-1E+10	1	-1E+10	1	-1E+10	1
4902551	51	C	01/06/2022	22:59	-133.147	49.496	0	1515.30	0	2.3690	0	34.4980	0	27.548	0	1496.937	0	22.9	4	7.0	4	-1E+10	1	-1E+10	1	-1E+10	1	-1E+10	1	-1E+10	1	-1E+10	1
4902551	51	C	01/06/2022	22:59	-133.147	49.496	0	1525.60	0	2.3590	0	34.5000	0	27.550	0	1507.075	0	23.3	4	7.1	4	-1E+10	1	-1E+10	1	-1E+10	1	-1E+10	1	-1E+10	1	-1E+10	1
4902551	51	C	01/06/2022	22:59	-133.147	49.496	0	1535.20	0	2.3510	0	34.5010	0	27.552	0	1516.524	0	23.8	4	7.2	4	-1E+10	1	-1E+10	1	-1E+10	1	-1E+10	1	-1E+10	1	-1E+10	1
4902551	51	C	01/06/2022	22:59	-133.147	49.496	0	1545.30	0	2.3390	0	34.5040	0	27.555	0	1526.465	0	24.5	4	7.4	4	-1E+10	1	-1E+10	1	-1E+10	1	-1E+10	1	-1E+10	1	-1E+10	1
4902551	51	C	01/06/2022	22:59	-133.147	49.496	0	1555.40	0	2.3260	0	34.5060	0	27.558	0	1536.405	0	25.2	4	7.7	4	-1E+10	1	-1E+10	1	-1E+10	1	-1E+10	1	-1E+10	1	-1E+10	1
4902551	51	C	01/06/2022	22:59	-133.147	49.496	0	1565.20	0	2.3140	0	34.5090	0	27.562	0	1546.050	0	25.8	4	7.8	4	-1E+10	1	-1E+10	1	-1E+10	1	-1E+10	1	-1E+10	1	-1E+10	1
4902551	51	C	01/06/2022	22:59	-133.147	49.496	0	1575.00	0	2.3010	0	34.5120	0	27.565	0	1555.694	0	26.6	4	8.1	4	-1E+10	1	-1E+10	1	-1E+10	1	-1E+10	1	-1E+10	1	-1E+10	1
4902551	51	C	01/06/2022	22:59	-133.147	49.496	0	1585.30	0	2.2860	0	34.5140	0	27.568	0	1565.830	0	27.3	4	8.3	4	-1E+10	1	-1E+10	1	-1E+10	1	-1E+10	1	-1E+10	1	-1E+10	1
4902551	51	C	01/06/2022	22:59	-133.147	49.496	0	1595.50	0	2.2730	0	34.5170	0	27.571	0	1575.867	0	28.0	4	8.5	4	-1E+10	1	-1E+10	1	-1E+10	1	-1E+10	1	-1E+10	1	-1E+10	1
4902551	51	C	01/06/2022	22:59	-133.147	49.496	0	1605.30	0	2.2590	0	34.5190	0	27.574	0	1585.509	0	28.8	4	8.7	4	-1E+10	1	-1E+10	1	-1E+10	1	-1E+10	1	-1E+10	1	-1E+10	1
4902551	51	C	01/06/2022	22:59	-133.147	49.496	0	1615.40	0	2.2420	0	34.5220	0	27.578	0	1595.447	0	29.5	4	9.0	4	-1E+10	1	-1E+10	1	-1E+10	1	-1E+10	1	-1E+10	1	-1E+10	1
4902551	51	C	01/06/2022	22:59	-133.147	49.496	0	1625.50	0	2.2340	0	34.5240	0	27.580	0	1605.384	0	30.3	4	9.2	4	-1E+10	1	-1E+10	1	-1E+10	1	-1E+10	1	-1E+10	1	-1E+10	1
4902551	51	C	01/06/2022	22:59	-133.147	49.496	0	1635.30	0	2.2180	0	34.5270	0	27.584	0	1615.025	0	31.3	4	9.5	4	-1E+10	1	-1E+10	1	-1E+10	1	-1E+10	1	-1E+10	1	-1E+10	1
4902551	51	C	01/06/2022	22:59	-133.147	49.496	0	1645.30	0	2.2040	0	34.5300	0	27.588	0	1624.863	0	32.1	4	9.7	4	-1E+10	1	-1E+10	1	-1E+10	1	-1E+10	1	-1E+10	1	-1E+10	1
4902551	51	C	01/06/2022	22:59	-133.147	49.496	0	1655.50	0	2.1920	0	34.5320	0	27.590	0	1634.897	0	32.9	4	10.0	4	-1E+10	1	-1E+10	1	-1E+10	1	-1E+10	1	-1E+10	1	-1E+10	1
4902551	51	C	01/06/2022	22:59	-133.147	49.496	0	1665.70	0	2.1790	0	34.5350	0	27.594	0	1644.930	0	33.5	4	10.2	4	-1E+10	1	-1E+10	1	-1E+10	1	-1E+10	1	-1E+10	1	-1E+10	1
4902551	51	C	01/06/2022	22:59	-133.147	49.496	0	1675.50	0	2.1700	0	34.5360	0	27.595	0	1654.570	0	34.2	4	10.3	4	-1E+10	1	-1E+10	1	-1E+10	1	-1E+10	1	-1E+10	1	-1E+10	1
4902551	51	C	01/06/2022	22:59	-133.147	49.496	0	1685.60	0	2.1610	0	34.5380	0	27.598	0	1664.504	0	35.0	4	10.6	4	-1E+10	1	-1E+10	1	-1E+10	1	-1E+10	1	-1E+10	1	-1E+10	1
4902551	51	C	01/06/2022	22:59	-133.147	49.496	0	1695.70	0	2.1500	0	34.5410	0	27.601	0	1674.438	0	35.8	4	10.8	4	-1E+10	1	-1E+10	1	-1E+10	1	-1E+10	1	-1E+10	1	-1E+10	1
4902551	51	C	01/06/2022	22:59	-133.147	49.496	0	1705.60	0	2.1420	0	34.5420	0	27.603	0	1684.174	0	36.4	4	11.0	4	-1E+10	1	-1E+10	1	-1E+10	1	-1E+10	1	-1E+10	1	-1E+10	1
4902551	51	C	01/06/2022	22:59	-133.147	49.496	0	1715.40	0	2.1310	0	34.5440	0	27.605	0	1693.812	0	37.0	4	11.2	4	-1E+10	1	-1E+10	1	-1E+10	1	-1E+10	1	-1E+10	1	-1E+10	1
4902551	51	C	01/06/2022	22:59	-133.147	49.496	0	1725.30	0	2.1240	0	34.5450	0	27.606	0	1703.548	0	37.4	4	11.3	4	-1E+10	1	-1E+10	1	-1E+10	1	-1E+10	1	-1E+10	1	-1E+10	1
4902551	51	C	01/06/2022	22:59	-133.147	49.496	0	1735.40	0	2.1190	0	34.5470	0	27.609	0	1713.480	0	37.8	4	11.4	4	-1E+10	1	-1E+10	1	-1E+10	1	-1E+10	1	-1E+10	1	-1E+10	1
4902551	51	C	01/06/2022	22:59	-133.147	49.496	0	1745.20	0	2.1140	0	34.5470	0	27.609	0	1723.116	0	38.2	4	11.6	4	-1E+10	1	-1E+10	1	-1E+10	1	-1E+10	1	-1E+10	1	-1E+10	1
4902551	51	C	01/06/2022	22:59	-133.147	49.496	0	1755.30	0	2.1080	0	34.5490	0	27.611	0	1733.047	0	38.8	4	11.7	4	-1E+10	1	-1E+10	1	-1E+10	1	-1E+10	1	-1E+10	1	-1E+10	1
4902551	51	C	01/06/2022	22:59	-133.147	49.496	0	1765.40	0	2.0990	0	34.5500	0	27.613	0	1742.978	0	39.4	4	11.9	4	-1E+10	1	-1E+10	1	-1E+10	1	-1E+10	1	-1E+10	1	-1E+10	1
4902551	51	C	01/06/2022	22:59	-133.147	49.496	0	1775.30	0	2.0910	0	34.5520	0	27.615	0	1752.711	0	40.0	4	12.1	4	-1E+10	1	-1E+10	1	-1E+10	1	-1E+10	1	-1E+10	1	-1E+10	1
4902551	51	C	01/06/2022	22:59	-133.147	49.496	0	1785.40	0	2.0840	0	34.5530	0	27.616	0	1762.641	0	40.5	4	12.2	4	-1E+10	1	-1E+10	1	-1E+10	1	-1E+10	1	-1E+10	1	-1E+10	1
4902551	51	C	01/06/2022	22:59	-133.147	49.496	0	1795.90	0	2.0770	0	34.5540	0	27.618	0	1772.963	0	41.2	4	12.4	4	-1E+10	1	-1E+10	1	-1E+10	1	-1E+10	1	-1E+10	1	-1E+10	1
4902551	51	C	01/06/2022	22:59	-133.147	49.496	0	1805.40	0	2.0670	0	34.5560	0	27.620	0	1782.302	0	41.9	4	12.7	4	-1E+10	1	-1E+10	1	-1E+10	1	-1E+10	1	-1E+10	1	-1E+10	1
4902551	51	C	01/06/2022	22:59	-133.147	49.496	0	1815.10	0	2.0600	0	34.5580	0	27.622	0	1791.837	0	42.5	4	12.8	4	-1E+10	1	-1E+10	1	-1E+10	1	-1E+10	1	-1E+10	1	-1E+10	1
4902551	51	C	01/06/2022	22:59	-133.147	49.496	0	1825.20	0	2.0510	0	34.5590	0	27.624	0	1801.765	0	43.2	4	13.0	4	-1E+10	1	-1E+10	1	-1E+10	1	-1E+10	1	-1E+10	1	-1E+10	1
4902551	51	C	01/06/2022	22:59	-133.147	49.496	0	1835.20	0	2.0450	0	34.5610	0	27.626	0	1811.594	0	43.8	4	13.2	4	-1E+10	1	-1E+10	1	-1E+10	1	-1E+10	1	-1E+10	1	-1E+10	1
4902551	51	C	01/06/2022	22:59	-133.147	49.496	0	1845.40	0	2.0370	0	34.5620	0	27.628	0	1821.619	0	44.6	4	13.5	4	-1E+10	1	-1E+10	1	-1E+10	1	-1E+10	1	-1E+10	1	-1E+10	1
4902551	51	C	01/06/2022	22:59	-133.147	49.496	0	1855.70	0	2.0240	0	34.5650	0	27.631	0	1831.742	0	45.5	4	13.7	4	-1E+10	1	-1E+10	1	-1E+10	1	-1E+10	1	-1E+10	1	-1E+10	1
4902551	51	C	01/06/2022	22:59	-133.147	49.496	0	1865.70	0	2.0150	0	34.5660	0	27.633	0	1841.569	0	46.1	4	13.9	4	-1E+10	1	-1E+10	1	-1E+10	1	-1E+10	1	-1E+10	1	-1E+10	1
4902551	51	C	01/06/2022	22:59	-133.147	49.496	0	1875.30	0	2.0110	0	34.5670	0	27.634	0	1851.003	0	46.5	4	14.0	4	-1E+10	1	-1E+10	1	-1E+10	1	-1E+10	1	-1E+10	1	-1E+10	1
4902551	51	C	01/06/2022	22:59	-133.147	49.496	0	1885.10	0	2.0050	0	34.5680	0	27.635	0	1860.634	0	47.1	4	14.2	4	-1E+10	1	-1E+10	1	-1E+10	1	-1E+10	1	-1E+10	1	-1E+10	1
4902551	51	C	01/06/2022	22:59	-133.147	49.496	0	1895.60	0	1.9970	0	34.5700	0	27.637	0	1870.951	0	47.9	4	14.4	4	-1E+10	1	-1E+10	1	-1E+10	1	-1E+10	1	-1E+10	1	-1E+10	1
4902551	51	C	01/06/2022	22:59	-133.147	49.496	0	1905.60	0	1.9900	0	34.5710	0	27.639	0	1880.777	0	48.6	4	14.7	4	-1E+10	1	-1E+10	1	-1E+10	1	-1E+10	1	-1E+10	1	-1E+10	1
4902551	51	C	01/06/2022	22:59	-133.147	49.496	0	1915.10	0	1.9830	0	34.5730	0	27.641	0	1890.111	0	49.2	4	14.8	4	-1E+10	1	-1E+10	1	-1E+10	1	-1E+10	1	-1E+10	1	-1E+10	1
4902551	51	C	01/06/2022	22:59	-133.147	49.496	0	1925.20	0	1.9790	0	34.5740	0	27.642	0	1900.034	0	49.6	4	14.9	4	-1E+10	1	-1E+10	1	-1E+10	1	-1E+10	1	-1E+10	1	-1E+10	1
4902551	51	C	01/06/2022	22:59	-133.147	49.496	0	1935.30	0	1.9750	0	34.5750	0	27.643	0	1909.957	0	50.0	4	15.1	4	-1E+10	1	-1E+10	1	-1E+10	1	-1E+10	1	-1E+10	1	-1E+10	1
4902551	51	C	01/06/2022	22:59	-133.147	49.496	0	1945.00	0	1.9700	0	34.5760	0	27.645	0	1919.486	0	50.4	4	15.2	4	-1E+10	1	-1E+10	1	-1E+10	1	-1E+10	1	-1E+10	1	-1E+10	1
4902551	51	C	01/06/2022	22:59	-133.147	49.496	0	1955.40	0	1.9660	0	34.5770	0	27.646	0	1929.703	0	50.9	4	15.3	4	-1E+10	1	-1E+10	1	-1E+10	1	-1E+10	1	-1E+10	1	-1E+10	1
4902551	51	C	01/06/2022	22:59	-133.147	49.496	0	1965.60	0	1.9590	0	34.5780	0	27.647	0	1939.722	0	51.2	4	15.4	4	-1E+10	1	-1E+10	1	-1E+10	1	-1E+10	1	-1E+10	1	-1E+10	1
4902551	51	C	01/06/2022	22:59	-133.147	49.496	0	1973.50	0	1.9540	0	34.5800	0	27.649	0	1947.482	0	50.9	4	15.3	4	-1E+10	1	-1E+10	1	-1E+10	1	-1E+10	1	-1E+10	1	-1E+10	1
4902551	51	C	01/06/2022	22:59	-133.147	49.496	0																										
4902551	52	C	01/17/2022	04:11	-133.104	49.478	0	0.40	0	6.7980	0	32.3120	0	25.329	0	0.397	0	280.6	4	93.3	4	-1E+10	1	-1E+10	1	-1E+10	1	-1E+10	1	-1E+10	1	-1E+10	1
4902551	52	C	01/17/2022	04:11	-133.104	49.478	0	0.50	0	6.7980	0	32.3120	0	25.329	0	0.496	0	280.6	4	93.3	4	-1E+10	1	-1E+10	1	-1E+10	1	-1E+10	1	-1E+10	1	-1E+10	1
4902551	52	C	01/17/2022	04:11	-133.104	49.478	0	0.90	0	6.7980	0	32.3120	0	25.329	0	0.892	0	280.6	4	93.3	4	-1E+10	1	-1E+10	1	-1E+10	1	-1E+10	1	-1E+10	1	-1E+10	1
4902551	52	C	01/17/2022	04:11	-133.104	49.478	0	2.00	0	6.7980	0	32.3120	0	25.329	0	1.983	0	280.6	4	93.3	4	-1E+10	1	-1E+10	1	-1E+10	1	-1E+10	1	-1E+10	1	-1E+10	1
4902551	52	C	01/17/2022	04:11	-133.104	49.478	0	2.90	0	6.7970	0	32.3120	0	25.329	0	2.875	0	280.6	4	93.3	4	-1E+10	1	-1E+10	1	-1E+10	1	-1E+10	1	-1E+10	1	-1E+10	1
4902551	52	C	01/17/2022	04:11	-133.104	49.478	0	4.20	0	6.7960	0	32.3140	0	25.331	0	4.164	0	280.5	4	93.3	4	-1E+10	1	-1E+10	1	-1E+10	1	-1E+10	1	-1E+10	1	-1E+10	1
4902551	52	C	01/17/2022	04:11	-133.104	49.478	0	4.80	0	6.7970	0	32.3140	0	25.330	0	4.759	0	280.5	4	93.3	4	-1E+10	1	-1E+10	1	-1E+10	1	-1E+10	1	-1E+10	1	-1E+10	1
4902551	52	C	01/17/2022	04:11	-133.104	49.478	0	5.90	0	6.7980	0	32.3140	0	25.330	0	5.850	0	280.4	4	93.3	4	-1E+10	1	-1E+10	1	-1E+10	1	-1E+10	1	-1E+10	1	-1E+10	1
4902551	52	C	01/17/2022	04:11	-133.104	49.478	0	7.10	0	6.7980	0	32.3140	0	25.330	0	7.039	0	280.5	4	93.3	4	-1E+10	1	-1E+10	1	-1E+10	1	-1E+10	1	-1E+10	1	-1E+10	1
4902551	52	C	01/17/2022	04:11	-133.104	49.478	0	8.10	0	6.7980	0	32.3140	0	25.330	0	8.031	0	280.5	4	93.3	4	-1E+10	1	-1E+10	1	-1E+10	1	-1E+10	1	-1E+10	1	-1E+10	1
4902551	52	C	01/17/2022	04:11	-133.104	49.478	0	9.00	0	6.7990	0	32.3140	0	25.330	0	8.923	0	280.5	4	93.3	4	-1E+10	1	-1E+10	1	-1E+10	1	-1E+10	1	-1E+10	1	-1E+10	1
4902551	52	C	01/17/2022	04:11	-133.104	49.478	0	10.10	0	6.7980	0	32.3140	0	25.330	0	10.014	0	280.4	4	93.3	4	-1E+10	1	-1E+10	1	-1E+10	1	-1E+10	1	-1E+10	1	-1E+10	1
4902551	52	C	01/17/2022	04:11	-133.104	49.478	0	10.90	0	6.7980	0	32.3140	0	25.330	0	10.807	0	280.4	4	93.2	4	-1E+10	1	-1E+10	1	-1E+10	1	-1E+10	1	-1E+10	1	-1E+10	1
4902551	52	C	01/17/2022	04:11	-133.104	49.478	0	11.70	0	6.7980	0	32.3140	0	25.330	0	11.600	0	280.4	4	93.3	4	-1E+10	1	-1E+10	1	-1E+10	1	-1E+10	1	-1E+10	1	-1E+10	1
4902551	52	C	01/17/2022	04:11	-133.104	49.478	0	12.80	0	6.7990	0	32.3140	0	25.330	0	12.690	0	280.3	4	93.2	4	-1E+10	1	-1E+10	1	-1E+10	1	-1E+10	1	-1E+10	1	-1E+10	1
4902551	52	C	01/17/2022	04:11	-133.104	49.478	0	13.90	0	6.7990	0	32.3140	0	25.330	0	13.781	0	280.3	4	93.2	4	-1E+10	1	-1E+10	1	-1E+10	1	-1E+10	1	-1E+10	1	-1E+10	1
4902551	52	C	01/17/2022	04:11	-133.104	49.478	0	15.00	0	6.7990	0	32.3140	0	25.330	0	14.872	0	280.3	4	93.2	4	-1E+10	1	-1E+10	1	-1E+10	1	-1E+10	1	-1E+10	1	-1E+10	1
4902551	52	C	01/17/2022	04:11	-133.104	49.478	0	15.80	0	6.7990	0	32.3140	0	25.330	0	15.665	0	280.3	4	93.2	4	-1E+10	1	-1E+10	1	-1E+10	1	-1E+10	1	-1E+10	1	-1E+10	1
4902551	52	C	01/17/2022	04:11	-133.104	49.478	0	17.00	0	6.7990	0	32.3140	0	25.330	0	16.854	0	280.2	4	93.2	4	-1E+10	1	-1E+10	1	-1E+10	1	-1E+10	1	-1E+10	1	-1E+10	1
4902551	52	C	01/17/2022	04:11	-133.104	49.478	0	18.00	0	6.7990	0	32.3140	0	25.330	0	17.846	0	280.2	4	93.2	4	-1E+10	1	-1E+10	1	-1E+10	1	-1E+10	1	-1E+10	1	-1E+10	1
4902551	52	C	01/17/2022	04:11	-133.104	49.478	0	18.90	0	6.7970	0	32.3140	0	25.331	0	18.738	0	280.1	4	93.2	4	-1E+10	1	-1E+10	1	-1E+10	1	-1E+10	1	-1E+10	1	-1E+10	1
4902551	52	C	01/17/2022	04:11	-133.104	49.478	0	20.10	0	6.7950	0	32.3140	0	25.331	0	19.928	0	280.1	4	93.1	4	-1E+10	1	-1E+10	1	-1E+10	1	-1E+10	1	-1E+10	1	-1E+10	1
4902551	52	C	01/17/2022	04:11	-133.104	49.478	0	21.10	0	6.7960	0	32.3140	0	25.331	0	20.919	0	280.1	4	93.2	4	-1E+10	1	-1E+10	1	-1E+10	1	-1E+10	1	-1E+10	1	-1E+10	1
4902551	52	C	01/17/2022	04:11	-133.104	49.478	0	21.80	0	6.7950	0	32.3140	0	25.331	0	21.613	0	280.1	4	93.1	4	-1E+10	1	-1E+10	1	-1E+10	1	-1E+10	1	-1E+10	1	-1E+10	1
4902551	52	C	01/17/2022	04:11	-133.104	49.478	0	22.90	0	6.7950	0	32.3140	0	25.331	0	22.704	0	280.1	4	93.1	4	-1E+10	1	-1E+10	1	-1E+10	1	-1E+10	1	-1E+10	1	-1E+10	1
4902551	52	C	01/17/2022	04:11	-133.104	49.478	0	24.00	0	6.7930	0	32.3140	0	25.331	0	23.794	0	280.0	4	93.1	4	-1E+10	1	-1E+10	1	-1E+10	1	-1E+10	1	-1E+10	1	-1E+10	1
4902551	52	C	01/17/2022	04:11	-133.104	49.478	0	25.10	0	6.7940	0	32.3140	0	25.331	0	24.884	0	280.0	4	93.1	4	-1E+10	1	-1E+10	1	-1E+10	1	-1E+10	1	-1E+10	1	-1E+10	1
4902551	52	C	01/17/2022	04:11	-133.104	49.478	0	25.80	0	6.7930	0	32.3140	0	25.331	0	25.578	0	279.9	4	93.1	4	-1E+10	1	-1E+10	1	-1E+10	1	-1E+10	1	-1E+10	1	-1E+10	1
4902551	52	C	01/17/2022	04:11	-133.104	49.478	0	26.90	0	6.7930	0	32.3140	0	25.331	0	26.669	0	279.9	4	93.1	4	-1E+10	1	-1E+10	1	-1E+10	1	-1E+10	1	-1E+10	1	-1E+10	1
4902551	52	C	01/17/2022	04:11	-133.104	49.478	0	28.00	0	6.7910	0	32.3140	0	25.332	0	27.759	0	279.9	4	93.1	4	-1E+10	1	-1E+10	1	-1E+10	1	-1E+10	1	-1E+10	1	-1E+10	1
4902551	52	C	01/17/2022	04:11	-133.104	49.478	0	29.20	0	6.7940	0	32.3130	0	25.330	0	28.949	0	279.8	4	93.1	4	-1E+10	1	-1E+10	1	-1E+10	1	-1E+10	1	-1E+10	1	-1E+10	1
4902551	52	C	01/17/2022	04:11	-133.104	49.478	0	30.00	0	6.7890	0	32.3140	0	25.332	0	29.742	0	279.8	4	93.0	4	-1E+10	1	-1E+10	1	-1E+10	1	-1E+10	1	-1E+10	1	-1E+10	1
4902551	52	C	01/17/2022	04:11	-133.104	49.478	0	31.10	0	6.7740	0	32.3150	0	25.335	0	30.833	0	279.8	4	93.0	4	-1E+10	1	-1E+10	1	-1E+10	1	-1E+10	1	-1E+10	1	-1E+10	1
4902551	52	C	01/17/2022	04:11	-133.104	49.478	0	31.80	0	6.7740	0	32.3140	0	25.334	0	31.526	0	279.8	4	93.0	4	-1E+10	1	-1E+10	1	-1E+10	1	-1E+10	1	-1E+10	1	-1E+10	1
4902551	52	C	01/17/2022	04:11	-133.104	49.478	0	33.00	0	6.7720	0	32.3140	0	25.334	0	32.716	0	279.8	4	93.0	4	-1E+10	1	-1E+10	1	-1E+10	1	-1E+10	1	-1E+10	1	-1E+10	1
4902551	52	C	01/17/2022	04:11	-133.104	49.478	0	34.20	0	6.7700	0	32.3140	0	25.334	0	33.906	0	279.7	4	93.0	4	-1E+10	1	-1E+10	1	-1E+10	1	-1E+10	1	-1E+10	1	-1E+10	1
4902551	52	C	01/17/2022	04:11	-133.104	49.478	0	35.00	0	6.7710	0	32.3140	0	25.334	0	34.699	0	279.7	4	93.0	4	-1E+10	1	-1E+10	1	-1E+10	1	-1E+10	1	-1E+10	1	-1E+10	1
4902551	52	C	01/17/2022	04:11	-133.104	49.478	0	36.00	0	6.7720	0	32.3140	0	25.334	0	35.690	0	279.7	4	93.0	4	-1E+10	1	-1E+10	1	-1E+10	1	-1E+10	1	-1E+10	1	-1E+10	1
4902551	52	C	01/17/2022	04:11	-133.104	49.478	0	37.10	0	6.7720	0	32.3150	0	25.335	0	36.780	0	279.7	4	93.0	4	-1E+10	1	-1E+10	1	-1E+10	1	-1E+10	1	-1E+10	1	-1E+10	1
4902551	52	C	01/17/2022	04:11	-133.104	49.478	0	37.90	0	6.7720	0	32.3140	0	25.334	0	37.573	0	279.6	4	92.9	4	-1E+10	1	-1E+10	1	-1E+10	1	-1E+10	1	-1E+10	1	-1E+10	1
4902551	52	C	01/17/2022	04:11	-133.104	49.478	0	39.10	0	6.7730	0	32.3140	0	25.334	0	38.763	0	279.6	4	92.9	4	-1E+10	1	-1E+10	1	-1E+10	1	-1E+10	1	-1E+10	1	-1E+10	1
4902551	52	C	01/17/2022	04:11	-133.104	49.478	0	39.90	0	6.7720	0	32.3140	0	25.334	0	39.556	0	279.6	4	92.9	4	-1E+10	1	-1E+10	1	-1E+10	1	-1E+10	1	-1E+10	1	-1E+10	1
4902551	52	C	01/17/2022	04:11	-133.104	49.478	0	40.90	0	6.7710	0	32.3140	0	25.334	0	40.547	0	279.5	4	92.9	4	-1E+10	1	-1E+10	1	-1E+10	1	-1E+10	1	-1E+10	1	-1E+10	1
4902551	52	C	01/17/2022	04:11	-133.104	49.478	0	42.00	0	6.7690	0	32.3140	0	25.335	0	41.638	0	279.5	4	92.9	4	-1E+10	1	-1E+10	1	-1E+10	1	-1E+10	1	-1E+10	1	-1E+10	1
4902551	52	C	01/17/2022	04:11	-133.104	49.478	0	43.10	0	6.7690	0	32.3140	0	25.335	0	42.728	0	279.4	4	92.9	4	-1E+10	1	-1E+10	1	-1E+10	1	-1E+10	1	-1E+10	1	-1E+10	1
4902551	52	C	01/17/2022	04:11	-133.104	49.478	0	43.80	0	6.7670	0	32.3140	0	25.335	0	43.422	0	279.3	4	92.8	4	-1E+10	1	-1E+10	1	-1E+10	1	-1E+10	1	-1E+10	1	-1E+10	1
4902551	52	C	01/17/2022	04:11	-133.104	49.478	0	44.80	0	6.7650	0	32.3140	0	25.335	0	44.413	0	279.3	4	92.8	4	-1E+10	1	-1E+10	1	-1E+10	1	-1E+10	1	-1E+10	1	-1E+10	1
4902551	52	C	01/17/2022	04:11	-133.104	49.478	0	45.90	0	6.7630	0	32.3150	0	25.336	0	45.504	0	279.2	4	92.8	4	-1E+10	1	-1E+10	1	-1E+10	1	-1E+10	1	-1E+10	1	-1E+10	1
4902551	52	C	01/17/2022	04:11	-133.104	49.478	0	47.00	0	6.7620	0	32.3150	0	25.336	0	46.594	0	279.2	4	92.8	4	-1E+10	1	-1E+10	1	-1E+10	1	-1E+10	1	-1E+10	1	-1E+10	1
4902551	52	C	01/17/2022	04:11	-133.104	49.478	0	48.10	0	6.7600	0	32.3160	0	25.337	0	47.684	0	279.1	4	92.7	4	-1E+10	1	-1E+10	1	-1E+10	1	-1E+10	1	-1E+10	1	-1E+10	1
4902551	52	C	01/17/2022	04:11	-133.104	49.478	0	48.80	0	6.7600	0	32.3150	0	25.337	0	48.378	0	279.0	4	92.7	4	-1E+10	1	-1E+10	1	-1E+10	1	-1E+10	1	-1E+10	1	-1E+10	1
4902551	52	C	01/17/2022	04:11	-133.104	49.478	0	49.90	0	6.7590	0	32.3160	0	25.337	0	49.469	0	279.0	4	92.7	4	-1E+10	1	-1E+10	1	-1E+10	1	-1E+10	1	-1E+10	1	-1E+10	1
4902551	52	C	01/17/2022	04:11	-133.104	49.478	0	51.00	0	6.7580	0	32.3160	0	25.338	0	50.559	0	279.0	4	92.7	4	-1E+10	1	-1E+10	1	-1E+10	1	-1E+10	1	-1E+10	1	-1E+10	1
4902551	52	C	01/17/2022	04:11	-133.104	49.478	0	52.20	0	6.7580	0	32.3160	0	25.338	0	51.748	0	278.9	4	92.7	4	-1E+10	1	-1E+10	1	-1E+10	1	-1E+10	1	-1E+10	1	-1E+10	1
4902551	52	C	01/17/2022	04:11	-133.104	49.478	0	53.00	0	6.7580	0	32.3160	0	25.338	0	52.541	0	278.9	4	92.7	4	-1E+10	1	-1E+10	1	-1E+10	1	-1E+10	1	-1E+10	1	-1E+10	1
4902551	52	C	01/17/2022	04:11	-133.104	49.478	0	54.20	0	6.7580	0	32.3160	0	25.338	0	53.731	0	278.7	4	92.6	4	-1E+10	1	-1E+10	1	-1E+10	1	-1E+10	1	-1E+10	1	-1E+10	1
4902551	52	C	01/17/2022	04:11	-133.104	49.478	0	55.00	0	6.7570	0	32.3160	0	25.338	0	54.524	0	278.7	4	92.6	4	-1E+10	1	-1E+10	1	-1E+10	1	-1E+10	1	-1E+10	1	-1E+10	1
4902551	52	C	01/17/2022	04:11	-133.104	49.478	0	56.20	0	6.7570	0	32.3160	0	25.338	0	55.713	0	278.7	4	92.6	4	-1E+10	1	-1E+10	1	-1E+10	1	-1E+10	1	-1E+10	1	-1E+10	1
4902551	52	C	01/17/2022	04:11	-133.104	49.478	0	57.00	0	6.7570	0	32.3160	0	25.338	0	56.506	0	278.6	4	92.6	4	-1E+10	1	-1E+10	1	-1E+10	1	-1E+10	1	-1E+10	1	-1E+10	1
4902551	52	C	01/17/2022	04:11	-133.104	49.478	0	58.20	0	6.7570	0	32.3160	0	25.338	0	57.696	0	278.6	4	92.6	4	-1E+10	1	-1E+10	1	-1E+10	1	-1E+10	1	-1E+10	1	-1E+10	1
4902551	52	C	01/17/2022	04:11	-133.104	49.478	0	59.00	0	6.7570	0	32.3160	0	25.338	0	58.489	0	278.7	4	92.6	4	-1E+10	1	-1E+10	1	-1E+10	1	-1E+10	1	-1E+10	1	-1E+10	1
4902551	52	C	01/17/2022	04:11	-133.104	49.478	0	60.20	0	6.7570	0	32.3160	0	25.338	0	59.678	0	278.6	4	92.6	4	-1E+10	1	-1E+10	1	-1E+10	1	-1E+10	1	-1E+10	1	-1E+10	1
4902551	52	C	01/17/2022	04:11	-133.104	49.478	0	60.90	0	6.7560	0	32.3160	0	25.338	0	60.372	0	278.5	4	92.5	4	-1E+10	1	-1E+10	1	-1E+10	1	-1E+10	1	-1E+10	1	-1E+10	1
4902551	52	C	01/17/2022	04:11	-133.104	49.478	0	62.10	0	6.7560	0	32.3160	0	25.338	0	61.561	0	278.4	4	92.5	4	-1E+10	1	-1E+10	1	-1E+10	1	-1E+10	1	-1E+10	1	-1E+10	1
4902551	52	C	01/17/2022	04:11	-133.104	49.478	0	62.80	0	6.7560	0	32.3160	0	25.338	0	62.255	0	278.2	4	92.5	4	-1E+10	1	-1E+10	1	-1E+10	1	-1E+10	1	-1E+10	1	-1E+10	1
4902551	52	C	01/17/2022	04:11	-133.104	49.478	0	63.90	0	6.7550	0	32.3160	0	25.338	0	63.345	0	278.2	4	92.4	4	-1E+10	1	-1E+10	1	-1E+10	1	-1E+10	1	-1E+10	1	-1E+10	1
4902551	52	C	01/17/2022	04:11	-133.104	49.478	0	65.00	0	6.7540	0	32.3160	0	25.338	0	64.436	0	278.1	4	92.4	4	-1E+10	1	-1E+10	1	-1E+10	1	-1E+10	1	-1E+10	1	-1E+10	1
4902551	52	C	01/17/2022	04:11	-133.104	49.478	0	66.20	0	6.7540	0	32.3160	0	25.338	0	65.625	0	277.9	4	92.3	4	-1E+10	1	-1E+10	1	-1E+10	1	-1E+10	1	-1E+10	1	-1E+10	1
4902551	52	C	01/17/2022	04:11	-133.104	49.478	0	66.90	0	6.7530	0	32.3170	0	25.339	0	66.319	0	277.8	4	92.3	4	-1E+10	1	-1E+10	1	-1E+10	1	-1E+10	1	-1E+10	1	-1E+10	1
4902551	52	C	01/17/2022	04:11	-133.104	49.478	0	68.00	0	6.7520	0	32.3170	0	25.339	0	67.409	0	277.7	4	92.3	4	-1E+10	1	-1E+10	1	-1E+10	1	-1E+10	1	-1E+10	1	-1E+10	1
4902551	52	C	01/17/2022	04:11	-133.104	49.478	0	69.10	0	6.7520	0	32.3170	0	25.339	0	68.499	0	277.5	4	92.2	4	-1E+10	1	-1E+10	1	-1E+10	1	-1E+10	1	-1E+10	1	-1E+10	1
4902551	52	C	01/17/2022	04:11	-133.104	49.478	0	69.80	0	6.7520	0	32.3170	0	25.339	0	69.193	0	277.5	4	92.2	4	-1E+10	1	-1E+10	1	-1E+10	1	-1E+10	1	-1E+10	1	-1E+10	1
4902551	52	C	01/17/2022	04:11	-133.104	49.478	0	70.90	0	6.7520	0	32.3170	0	25.339	0	70.283	0	277.4	4	92.2	4	-1E+10	1	-1E+10	1	-1E+10	1	-1E+10	1	-1E+10	1	-1E+10	1
4902551	52	C	01/17/2022	04:11	-133.104	49.478	0	72.00	0	6.7510	0	32.3170	0	25.340	0	71.374	0	277.2	4	92.1	4	-1E+10	1	-1E+10	1	-1E+10	1	-1E+10	1	-1E+10	1	-1E+10	1
4902551	52	C	01/17/2022	04:11	-133.104	49.478	0	73.20	0	6.7510	0	32.3170	0	25.340	0	72.563	0	277.0	4	92.0	4	-1E+10	1	-1E+10	1	-1E+10	1	-1E+10	1	-1E+10	1	-1E+10	1
4902551	52	C	01/17/2022	04:11	-133.104	49.478	0	73.90	0	6.7510	0	32.3170	0	25.340	0	73.257	0	277.0	4	92.0	4	-1E+10	1	-1E+10	1	-1E+10	1	-1E+10	1	-1E+10	1	-1E+10	1
4902551	52	C	01/17/2022	04:11	-133.104	49.478	0	75.10	0	6.7510	0	32.3180	0	25.340	0	74.446	0	276.7	4	91.9	4	-1E+10	1	-1E+10	1	-1E+10	1	-1E+10	1	-1E+10	1	-1E+10	1
4902551	52	C	01/17/2022	04:11	-133.104	49.478	0	75.80	0	6.7500	0	32.3180	0	25.341	0	75.140	0	276.6	4	91.9	4	-1E+10	1	-1E+10	1	-1E+10	1	-1E+10	1	-1E+10	1	-1E+10	1
4902551	52	C	01/17/2022	04:11	-133.104	49.478	0	76.90	0	6.7500	0	32.3180	0	25.341	0	76.230	0	276.3	4	91.8	4	-1E+10	1	-1E+10	1	-1E+10	1	-1E+10	1	-1E+10	1	-1E+10	1
4902551	52	C	01/17/2022	04:11	-133.104	49.478	0	78.10	0	6.7500	0	32.3180	0	25.341	0	77.419	0	276.1	4	91.7	4	-1E+10	1	-1E+10	1	-1E+10	1	-1E+10	1	-1E+10	1	-1E+10	1
4902551	52	C	01/17/2022	04:11	-133.104	49.478	0	78.80	0	6.7500	0	32.3180	0	25.341	0	78.113	0	276.0	4	91.7	4	-1E+10	1	-1E+10	1	-1E+10	1	-1E+10	1	-1E+10	1	-1E+10	1
4902551	52	C	01/17/2022	04:11	-133.104	49.478	0	79.90	0	6.7500	0	32.3190	0	25.341	0	79.203	0	275.7	4	91.6	4	-1E+10	1	-1E+10	1	-1E+10	1	-1E+10	1	-1E+10	1	-1E+10	1
4902551	52	C	01/17/2022	04:11	-133.104	49.478	0	80.90	0	6.7490	0	32.3190	0	25.342	0	80.195	0	275.4	4	91.5	4	-1E+10	1	-1E+10	1	-1E+10	1	-1E+10	1	-1E+10	1	-1E+10	1
4902551	52	C	01/17/2022	04:11	-133.104	49.478	0	82.00	0	6.7490	0	32.3190	0	25.342	0	81.285	0	275.1	4	91.4	4	-1E+10	1	-1E+10	1	-1E+10	1	-1E+10	1	-1E+10	1	-1E+10	1
4902551	52	C	01/17/2022	04:11	-133.104	49.478	0	83.10	0	6.7490	0	32.3190	0	25.342	0	82.375	0	274.8	4	91.3	4	-1E+10	1	-1E+10	1	-1E+10	1	-1E+10	1	-1E+10	1	-1E+10	1
4902551	52	C	01/17/2022	04:11	-133.104	49.478	0	83.80	0	6.7480	0	32.3190	0	25.342	0	83.069	0	281.2	4	93.4	4	-1E+10	1	-1E+10	1	-1E+10	1	-1E+10	1	-1E+10	1	-1E+10	1
4902551	52	C	01/17/2022	04:11	-133.104	49.478	0	84.80	0	6.7470	0	32.3200	0	25.343	0	84.060	0	280.6	4	93.2	4	-1E+10	1	-1E+10	1	-1E+10	1	-1E+10	1	-1E+10	1	-1E+10	1
4902551	52	C	01/17/2022	04:11	-133.104	49.478	0	85.90	0	6.7470	0	32.3200	0	25.343	0	85.150	0	279.8	4	93.0	4	-1E+10	1	-1E+10	1	-1E+10	1	-1E+10	1	-1E+10	1	-1E+10	1
4902551	52	C	01/17/2022	04:11	-133.104	49.478	0	87.00	0	6.7470	0	32.3210	0	25.343	0	86.240	0	278.9	4	92.7	4	-1E+10	1	-1E+10	1	-1E+10	1	-1E+10	1	-1E+10	1	-1E+10	1
4902551	52	C	01/17/2022	04:11	-133.104	49.478	0	88.20	0	6.7450	0	32.3240	0	25.346	0	87.429	0	277.9	4	92.3	4	-1E+10	1	-1E+10	1	-1E+10	1	-1E+10	1	-1E+10	1	-1E+10	1
4902551	52	C	01/17/2022	04:11	-133.104	49.478	0	89.00	0	6.7450	0	32.3240	0	25.346	0	88.222	0	277.1	4	92.0	4	-1E+10	1	-1E+10	1	-1E+10	1	-1E+10	1	-1E+10	1	-1E+10	1
4902551	52	C	01/17/2022	04:11	-133.104	49.478	0	90.20	0	6.7440	0	32.3260	0	25.348	0	89.411	0	275.6	4	91.6	4	-1E+10	1	-1E+10	1	-1E+10	1	-1E+10	1	-1E+10	1	-1E+10	1
4902551	52	C	01/17/2022	04:11	-133.104	49.478	0	91.00	0	6.7420	0	32.3270	0	25.349	0	90.204	0	274.6	4	91.2	4	-1E+10	1	-1E+10	1	-1E+10	1	-1E+10	1	-1E+10	1	-1E+10	1
4902551	52	C	01/17/2022	04:11	-133.104	49.478	0	92.20	0	6.7370	0	32.3350	0	25.356	0	91.394	0	273.0	4	90.7	4	-1E+10	1	-1E+10	1	-1E+10	1	-1E+10	1	-1E+10	1	-1E+10	1
4902551	52	C	01/17/2022	04:11	-133.104	49.478	0	92.80	0	6.7360	0	32.3360	0	25.357	0	91.988	0	272.1	4	90.4	4	-1E+10	1	-1E+10	1	-1E+10	1	-1E+10	1	-1E+10	1	-1E+10	1
4902551	52	C	01/17/2022	04:11	-133.104	49.478	0	93.90	0	6.7310	0	32.3430	0	25.363	0	93.078	0	269.7	4	89.6	4	-1E+10	1	-1E+10	1	-1E+10	1	-1E+10	1	-1E+10	1	-1E+10	1
4902551	52	C	01/17/2022	04:11	-133.104	49.478	0	95.30	0	6.7230	0	32.3510	0	25.370	0	94.466	0	266.3	4	88.4	4	-1E+10	1	-1E+10	1	-1E+10	1	-1E+10	1	-1E+10	1	-1E+10	1
4902551	52	C	01/17/2022	04:11	-133.104	49.478	0	96.20	0	6.7170	0	32.3550	0	25.374	0	95.358	0	263.5	4	87.5	4	-1E+10	1	-1E+10	1	-1E+10	1	-1E+10	1	-1E+10	1	-1E+10	1
4902551	52	C	01/17/2022	04:11	-133.104	49.478	0	96.90	0	6.7110	0	32.3580	0	25.377	0	96.051	0	260.9	4	86.6	4	-1E+10	1	-1E+10	1	-1E+10	1	-1E+10	1	-1E+10	1	-1E+10	1
4902551	52	C	01/17/2022	04:11	-133.104	49.478	0	97.80	0	6.7010	0	32.3660	0	25.385	0	96.943	0	257.6	4	85.5	4	-1E+10	1	-1E+10	1	-1E+10	1	-1E+10	1	-1E+10	1	-1E+10	1
4902551	52	C	01/17/2022	04:11	-133.104	49.478	0	99.00	0	6.6440	0	32.4230	0	25.437	0	98.132	0	254.5	4	84.4	4	-1E+10	1	-1E+10	1	-1E+10	1	-1E+10	1	-1E+10	1	-1E+10	1
4902551	52	C	01/17/2022	04:11	-133.104	49.478	0	100.10	0	6.5830	0	32.4900	0	25.498	0	99.223	0	251.5	4	83.3	4	-1E+10	1	-1E+10	1	-1E+10	1	-1E+10	1	-1E+10	1	-1E+10	1
4902551	52	C	01/17/2022	04:11	-133.104	49.478	0	101.10	0	6.5650	0	32.5080	0	25.514	0	100.214	0	246.5	4	81.7	4	-1E+10	1	-1E+10	1	-1E+10	1	-1E+10	1	-1E+10	1	-1E+10	1
4902551	52	C	01/17/2022	04:11	-133.104	49.478	0	102.00	0	6.5230	0	32.5490	0	25.552	0	101.105	0	239.4	4	79.3	4	-1E+10	1	-1E+10	1	-1E+10	1	-1E+10	1	-1E+10	1	-1E+10	1
4902551	52	C	01/17/2022	04:11	-133.104	49.478	0	103.00	0	6.4800	0	32.5940	0	25.593	0	102.096	0	234.3	4	77.5	4	-1E+10	1	-1E+10	1	-1E+10	1	-1E+10	1	-1E+10	1	-1E+10	1
4902551	52	C	01/17/2022	04:11	-133.104	49.478	0	104.10	0	6.3740	0	32.7010	0	25.691	0	103.186	0	230.7	4	76.2	4	-1E+10	1	-1E+10	1	-1E+10	1	-1E+10	1	-1E+10	1	-1E+10	1
4902551	52	C	01/17/2022	04:11	-133.104	49.478	0	105.10	0	6.2930	0	32.7890	0	25.771	0	104.177	0	228.6	4	75.4	4	-1E+10	1	-1E+10	1	-1E+10	1	-1E+10	1	-1E+10	1	-1E+10	1
4902551	52	C	01/17/2022	04:11	-133.104	49.478	0	106.00	0	6.2660	0	32.8220	0	25.800	0	105.069	0	227.2	4	74.9	4	-1E+10	1	-1E+10	1	-1E+10	1	-1E+10	1	-1E+10	1	-1E+10	1
4902551	52	C	01/17/2022	04:11	-133.104	49.478	0	106.70	0	6.2580	0	32.8270	0	25.805	0	105.763	0	225.4	4	74.3	4	-1E+10	1	-1E+10	1	-1E+10	1	-1E+10	1	-1E+10	1	-1E+10	1
4902551	52	C	01/17/2022	04:11	-133.104	49.478	0	107.80	0	6.2570	0	32.8290	0	25.807	0	106.853	0	222.9	4	73.5	4	-1E+10	1	-1E+10	1	-1E+10	1	-1E+10	1	-1E+10	1	-1E+10	1
4902551	52	C	01/17/2022	04:11	-133.104	49.478	0	109.00	0	6.2510	0	32.8340	0	25.811	0	108.042	0	220.3	4	72.6	4	-1E+10	1	-1E+10	1	-1E+10	1	-1E+10	1	-1E+10	1	-1E+10	1
4902551	52	C	01/17/2022	04:11	-133.104	49.478	0	109.90	0	6.2250	0	32.8740	0	25.846	0	108.934	0	218.3	4	72.0	4	-1E+10	1	-1E+10	1	-1E+10	1	-1E+10	1	-1E+10	1	-1E+10	1
4902551	52	C	01/17/2022	04:11	-133.104	49.478	0	110.80	0	6.2070	0	32.9060	0	25.874	0	109.826	0	216.2	4	71.2	4	-1E+10	1	-1E+10	1	-1E+10	1	-1E+10	1	-1E+10	1	-1E+10	1
4902551	52	C	01/17/2022	04:11	-133.104	49.478	0	112.00	0	6.2030	0	32.9160	0	25.882	0	111.015	0	213.3	4	70.3	4	-1E+10	1	-1E+10	1	-1E+10	1	-1E+10	1	-1E+10	1	-1E+10	1
4902551	52	C	01/17/2022	04:11	-133.104	49.478	0	113.00	0	6.1950	0	32.9320	0	25.896	0	112.006	0	211.0	4	69.5	4	-1E+10	1	-1E+10	1	-1E+10	1	-1E+10	1	-1E+10	1	-1E+10	1
4902551	52	C	01/17/2022	04:11	-133.104	49.478	0	113.90	0	6.1870	0	32.9510	0	25.912	0	112.898	0	208.5	4	68.7	4	-1E+10	1	-1E+10	1	-1E+10	1	-1E+10	1	-1E+10	1	-1E+10	1
4902551	52	C	01/17/2022	04:11	-133.104	49.478	0	114.80	0	6.1790	0	32.9880	0	25.942	0	113.790	0	206.0	4	67.9	4	-1E+10	1	-1E+10	1	-1E+10	1	-1E+10	1	-1E+10	1	-1E+10	1
4902551	52	C	01/17/2022	04:11	-133.104	49.478	0	115.80	0	6.1730	0	33.0280	0	25.974	0	114.781	0	203.8	4	67.2	4	-1E+10	1	-1E+10	1	-1E+10	1	-1E+10	1	-1E+10	1	-1E+10	1
4902551	52	C	01/17/2022	04:11	-133.104	49.478	0	116.80	0	6.1730	0	33.0560	0	25.997	0	115.771	0	201.6	4	66.4	4	-1E+10	1	-1E+10	1	-1E+10	1	-1E+10	1	-1E+10	1	-1E+10	1
4902551	52	C	01/17/2022	04:11	-133.104	49.478	0	117.90	0	6.1710	0	33.0890	0	26.023	0	116.861	0	199.5	4	65.8	4	-1E+10	1	-1E+10	1	-1E+10	1	-1E+10	1	-1E+10	1	-1E+10	1
4902551	52	C	01/17/2022	04:11	-133.104	49.478	0	119.00	0	6.1710	0	33.1110	0	26.040	0	117.951	0	197.4	4	65.1	4	-1E+10	1	-1E+10	1	-1E+10	1	-1E+10	1	-1E+10	1	-1E+10	1
4902551	52	C	01/17/2022	04:11	-133.104	49.478	0	119.80	0	6.1710	0	33.1180	0	26.046	0	118.744	0	195.9	4	64.6	4	-1E+10	1	-1E+10	1	-1E+10	1	-1E+10	1	-1E+10	1	-1E+10	1
4902551	52	C	01/17/2022	04:11	-133.104	49.478	0	120.80	0	6.1680	0	33.1210	0	26.049	0	119.735	0	193.5	4	63.8	4	-1E+10	1	-1E+10	1	-1E+10	1	-1E+10	1	-1E+10	1	-1E+10	1
4902551	52	C	01/17/2022	04:11	-133.104	49.478	0	121.90	0	6.1650	0	33.1250	0	26.052	0	120.825	0	190.7	4	62.9	4	-1E+10	1	-1E+10	1	-1E+10	1	-1E+10	1	-1E+10	1	-1E+10	1
4902551	52	C	01/17/2022	04:11	-133.104	49.478	0	122.90	0	6.1620	0	33.1300	0	26.056	0	121.816	0	187.3	4	61.8	4	-1E+10	1	-1E+10	1	-1E+10	1	-1E+10	1	-1E+10	1	-1E+10	1
4902551	52	C	01/17/2022	04:11	-133.104	49.478	0	124.10	0	6.1610	0	33.2280	0	26.134	0	123.005	0	184.4	4	60.9	4	-1E+10	1	-1E+10	1	-1E+10	1	-1E+10	1	-1E+10	1	-1E+10	1
4902551	52	C	01/17/2022	04:11	-133.104	49.478	0	124.80	0	6.1640	0	33.2520	0	26.153	0	123.699	0	182.9	4	60.4	4	-1E+10	1	-1E+10	1	-1E+10	1	-1E+10	1	-1E+10	1	-1E+10	1
4902551	52	C	01/17/2022	04:11	-133.104	49.478	0	126.00	0	6.1700	0	33.2960	0	26.187	0	124.888	0	181.2	4	59.8	4	-1E+10	1	-1E+10	1	-1E+10	1	-1E+10	1	-1E+10	1	-1E+10	1
4902551	52	C	01/17/2022	04:11	-133.104	49.478	0	127.20	0	6.1700	0	33.3360	0	26.218	0	126.077	0	179.7	4	59.4	4	-1E+10	1	-1E+10	1	-1E+10	1	-1E+10	1	-1E+10	1	-1E+10	1
4902551	52	C	01/17/2022	04:11	-133.104	49.478	0	128.00	0	6.1700	0	33.3380	0	26.220	0	126.869	0	178.8	4	59.1	4	-1E+10	1	-1E+10	1	-1E+10	1	-1E+10	1	-1E+10	1	-1E+10	1
4902551	52	C	01/17/2022	04:11	-133.104	49.478	0	128.80	0	6.1690	0	33.3400	0	26.221	0	127.662	0	177.9	4	58.8	4	-1E+10	1	-1E+10	1	-1E+10	1	-1E+10	1	-1E+10	1	-1E+10	1
4902551	52	C	01/17/2022	04:11	-133.104	49.478	0	129.90	0	6.1670	0	33.3500	0	26.230	0	128.752	0	176.4	4	58.3	4	-1E+10	1	-1E+10	1	-1E+10	1	-1E+10	1	-1E+10	1	-1E+10	1
4902551	52	C	01/17/2022	04:11	-133.104	49.478	0	131.10	0	6.1670	0	33.3580	0	26.236	0	129.941	0	174.9	4	57.8	4	-1E+10	1	-1E+10	1	-1E+10	1	-1E+10	1	-1E+10	1	-1E+10	1
4902551	52	C	01/17/2022	04:11	-133.104	49.478	0	131.90	0	6.1670	0	33.3610	0	26.238	0	130.734	0	173.7	4	57.4	4	-1E+10	1	-1E+10	1	-1E+10	1	-1E+10	1	-1E+10	1	-1E+10	1
4902551	52	C	01/17/2022	04:11	-133.104	49.478	0	132.60	0	6.1650	0	33.3710	0	26.246	0	131.427	0	172.5	4	57.0	4	-1E+10	1	-1E+10	1	-1E+10	1	-1E+10	1	-1E+10	1	-1E+10	1
4902551	52	C	01/17/2022	04:11	-133.104	49.478	0	133.90	0	6.1600	0	33.3950	0	26.266	0	132.715	0	170.9	4	56.4	4	-1E+10	1	-1E+10	1	-1E+10	1	-1E+10	1	-1E+10	1	-1E+10	1
4902551	52	C	01/17/2022	04:11	-133.104	49.478	0	135.10	0	6.1560	0	33.4160	0	26.283	0	133.904	0	169.3	4	55.9	4	-1E+10	1	-1E+10	1	-1E+10	1	-1E+10	1	-1E+10	1	-1E+10	1
4902551	52	C	01/17/2022	04:11	-133.104	49.478	0	135.90	0	6.1550	0	33.4190	0	26.286	0	134.697	0	168.2	4	55.6	4	-1E+10	1	-1E+10	1	-1E+10	1	-1E+10	1	-1E+10	1	-1E+10	1
4902551	52	C	01/17/2022	04:11	-133.104	49.478	0	136.70	0	6.1530	0	33.4230	0	26.289	0	135.490	0	167.1	4	55.2	4	-1E+10	1	-1E+10	1	-1E+10	1	-1E+10	1	-1E+10	1	-1E+10	1
4902551	52	C	01/17/2022	04:11	-133.104	49.478	0	137.90	0	6.1460	0	33.4420	0	26.305	0	136.679	0	165.3	4	54.6	4	-1E+10	1	-1E+10	1	-1E+10	1	-1E+10	1	-1E+10	1	-1E+10	1
4902551	52	C	01/17/2022	04:11	-133.104	49.478	0	139.20	0	6.1440	0	33.4530	0	26.314	0	137.967	0	163.0	4	53.9	4	-1E+10	1	-1E+10	1	-1E+10	1	-1E+10	1	-1E+10	1	-1E+10	1
4902551	52	C	01/17/2022	04:11	-133.104	49.478	0	140.00	0	6.1400	0	33.4650	0	26.324	0	138.759	0	161.4	4	53.3	4	-1E+10	1	-1E+10	1	-1E+10	1	-1E+10	1	-1E+10	1	-1E+10	1
4902551	52	C	01/17/2022	04:11	-133.104	49.478	0	140.80	0	6.1400	0	33.4660	0	26.325	0	139.552	0	159.9	4	52.8	4	-1E+10	1	-1E+10	1	-1E+10	1	-1E+10	1	-1E+10	1	-1E+10	1
4902551	52	C	01/17/2022	04:11	-133.104	49.478	0	141.60	0	6.1350	0	33.4720	0	26.330	0	140.345	0	157.9	4	52.2	4	-1E+10	1	-1E+10	1	-1E+10	1	-1E+10	1	-1E+10	1	-1E+10	1
4902551	52	C	01/17/2022	04:11	-133.104	49.478	0	142.90	0	6.1010	0	33.5240	0	26.375	0	141.633	0	155.5	4	51.3	4	-1E+10	1	-1E+10	1	-1E+10	1	-1E+10	1	-1E+10	1	-1E+10	1
4902551	52	C	01/17/2022	04:11	-133.104	49.478	0	144.20	0	6.0910	0	33.5400	0	26.389	0	142.921	0	153.5	4	50.7	4	-1E+10	1	-1E+10	1	-1E+10	1	-1E+10	1	-1E+10	1	-1E+10	1
4902551	52	C	01/17/2022	04:11	-133.104	49.478	0	145.10	0	6.0830	0	33.5530	0	26.401	0	143.812	0	152.4	4	50.3	4	-1E+10	1	-1E+10	1	-1E+10	1	-1E+10	1	-1E+10	1	-1E+10	1
4902551	52	C	01/17/2022	04:11	-133.104	49.478	0	146.00	0	6.0660	0	33.5620	0	26.410	0	144.704	0	151.2	4	49.9	4	-1E+10	1	-1E+10	1	-1E+10	1	-1E+10	1	-1E+10	1	-1E+10	1
4902551	52	C	01/17/2022	04:11	-133.104	49.478	0	147.00	0	6.0360	0	33.5930	0	26.438	0	145.695	0	150.2	4	49.6	4	-1E+10	1	-1E+10	1	-1E+10	1	-1E+10	1	-1E+10	1	-1E+10	1
4902551	52	C	01/17/2022	04:11	-133.104	49.478	0	147.90	0	6.0150	0	33.6110	0	26.455	0	146.587	0	149.4	4	49.3	4	-1E+10	1	-1E+10	1	-1E+10	1	-1E+10	1	-1E+10	1	-1E+10	1
4902551	52	C	01/17/2022	04:11	-133.104	49.478	0	148.90	0	6.0110	0	33.6140	0	26.458	0	147.577	0	148.7	4	49.0	4	-1E+10	1	-1E+10	1	-1E+10	1	-1E+10	1	-1E+10	1	-1E+10	1
4902551	52	C	01/17/2022	04:11	-133.104	49.478	0	149.90	0	5.9970	0	33.6250	0	26.468	0	148.568	0	147.9	4	48.8	4	-1E+10	1	-1E+10	1	-1E+10	1	-1E+10	1	-1E+10	1	-1E+10	1
4902551	52	C	01/17/2022	04:11	-133.104	49.478	0	150.80	0	5.9910	0	33.6280	0	26.471	0	149.460	0	147.3	4	48.6	4	-1E+10	1	-1E+10	1	-1E+10	1	-1E+10	1	-1E+10	1	-1E+10	1
4902551	52	C	01/17/2022	04:11	-133.104	49.478	0	151.80	0	5.9850	0	33.6320	0	26.475	0	150.450	0	146.7	4	48.3	4	-1E+10	1	-1E+10	1	-1E+10	1	-1E+10	1	-1E+10	1	-1E+10	1
4902551	52	C	01/17/2022	04:11	-133.104	49.478	0	152.70	0	5.9810	0	33.6350	0	26.478	0	151.342	0	146.0	4	48.1	4	-1E+10	1	-1E+10	1	-1E+10	1	-1E+10	1	-1E+10	1	-1E+10	1
4902551	52	C	01/17/2022	04:11	-133.104	49.478	0	153.80	0	5.9790	0	33.6360	0	26.479	0	152.432	0	145.1	4	47.8	4	-1E+10	1	-1E+10	1	-1E+10	1	-1E+10	1	-1E+10	1	-1E+10	1
4902551	52	C	01/17/2022	04:11	-133.104	49.478	0	155.00	0	5.9620	0	33.6460	0	26.489	0	153.621	0	144.2	4	47.5	4	-1E+10	1	-1E+10	1	-1E+10	1	-1E+10	1	-1E+10	1	-1E+10	1
4902551	52	C	01/17/2022	04:11	-133.104	49.478	0	156.10	0	5.9490	0	33.6550	0	26.498	0	154.711	0	143.3	4	47.2	4	-1E+10	1	-1E+10	1	-1E+10	1	-1E+10	1	-1E+10	1	-1E+10	1
4902551	52	C	01/17/2022	04:11	-133.104	49.478	0	156.90	0	5.9470	0	33.6550	0	26.498	0	155.503	0	142.8	4	47.0	4	-1E+10	1	-1E+10	1	-1E+10	1	-1E+10	1	-1E+10	1	-1E+10	1
4902551	52	C	01/17/2022	04:11	-133.104	49.478	0	158.00	0	5.9400	0	33.6590	0	26.502	0	156.593	0	141.8	4	46.7	4	-1E+10	1	-1E+10	1	-1E+10	1	-1E+10	1	-1E+10	1	-1E+10	1
4902551	52	C	01/17/2022	04:11	-133.104	49.478	0	159.20	0	5.9310	0	33.6640	0	26.507	0	157.782	0	140.9	4	46.4	4	-1E+10	1	-1E+10	1	-1E+10	1	-1E+10	1	-1E+10	1	-1E+10	1
4902551	52	C	01/17/2022	04:11	-133.104	49.478	0	160.00	0	5.9230	0	33.6680	0	26.512	0	158.574	0	140.3	4	46.2	4	-1E+10	1	-1E+10	1	-1E+10	1	-1E+10	1	-1E+10	1	-1E+10	1
4902551	52	C	01/17/2022	04:11	-133.104	49.478	0	160.80	0	5.9030	0	33.6790	0	26.523	0	159.367	0	139.7	4	46.0	4	-1E+10	1	-1E+10	1	-1E+10	1	-1E+10	1	-1E+10	1	-1E+10	1
4902551	52	C	01/17/2022	04:11	-133.104	49.478	0	161.70	0	5.8940	0	33.6820	0	26.526	0	160.259	0	139.2	4	45.8	4	-1E+10	1	-1E+10	1	-1E+10	1	-1E+10	1	-1E+10	1	-1E+10	1
4902551	52	C	01/17/2022	04:11	-133.104	49.478	0	162.90	0	5.8830	0	33.6870	0	26.532	0	161.447	0	138.3	4	45.5	4	-1E+10	1	-1E+10	1	-1E+10	1	-1E+10	1	-1E+10	1	-1E+10	1
4902551	52	C	01/17/2022	04:11	-133.104	49.478	0	164.30	0	5.8710	0	33.6920	0	26.537	0	162.834	0	137.5	4	45.2	4	-1E+10	1	-1E+10	1	-1E+10	1	-1E+10	1	-1E+10	1	-1E+10	1
4902551	52	C	01/17/2022	04:11	-133.104	49.478	0	165.10	0	5.8650	0	33.6940	0	26.539	0	163.627	0	136.9	4	45.0	4	-1E+10	1	-1E+10	1	-1E+10	1	-1E+10	1	-1E+10	1	-1E+10	1
4902551	52	C	01/17/2022	04:11	-133.104	49.478	0	166.00	0	5.8610	0	33.6950	0	26.541	0	164.519	0	136.2	4	44.8	4	-1E+10	1	-1E+10	1	-1E+10	1	-1E+10	1	-1E+10	1	-1E+10	1
4902551	52	C	01/17/2022	04:11	-133.104	49.478	0	166.90	0	5.8460	0	33.7030	0	26.549	0	165.410	0	135.6	4	44.6	4	-1E+10	1	-1E+10	1	-1E+10	1	-1E+10	1	-1E+10	1	-1E+10	1
4902551	52	C	01/17/2022	04:11	-133.104	49.478	0	167.80	0	5.8420	0	33.7030	0	26.549	0	166.302	0	135.0	4	44.4	4	-1E+10	1	-1E+10	1	-1E+10	1	-1E+10	1	-1E+10	1	-1E+10	1
4902551	52	C	01/17/2022	04:11	-133.104	49.478	0	168.60	0	5.8340	0	33.7060	0	26.553	0	167.094	0	134.3	4	44.1	4	-1E+10	1	-1E+10	1	-1E+10	1	-1E+10	1	-1E+10	1	-1E+10	1
4902551	52	C	01/17/2022	04:11	-133.104	49.478	0	169.90	0	5.8250	0	33.7090	0	26.556	0	168.382	0	133.3	4	43.8	4	-1E+10	1	-1E+10	1	-1E+10	1	-1E+10	1	-1E+10	1	-1E+10	1
4902551	52	C	01/17/2022	04:11	-133.104	49.478	0	171.20	0	5.8040	0	33.7180	0	26.566	0	169.670	0	132.3	4	43.5	4	-1E+10	1	-1E+10	1	-1E+10	1	-1E+10	1	-1E+10	1	-1E+10	1
4902551	52	C	01/17/2022	04:11	-133.104	49.478	0	172.00	0	5.7960	0	33.7200	0	26.568	0	170.463	0	131.5	4	43.2	4	-1E+10	1	-1E+10	1	-1E+10	1	-1E+10	1	-1E+10	1	-1E+10	1
4902551	52	C	01/17/2022	04:11	-133.104	49.478	0	173.00	0	5.7700	0	33.7300	0	26.579	0	171.453	0	131.0	4	43.0	4	-1E+10	1	-1E+10	1	-1E+10	1	-1E+10	1	-1E+10	1	-1E+10	1
4902551	52	C	01/17/2022	04:11	-133.104	49.478	0	173.80	0	5.7650	0	33.7320	0	26.582	0	172.246	0	130.5	4	42.8	4	-1E+10	1	-1E+10	1	-1E+10	1	-1E+10	1	-1E+10	1	-1E+10	1
4902551	52	C	01/17/2022	04:11	-133.104	49.478	0	174.70	0	5.7640	0	33.7320	0	26.582	0	173.137	0	129.9	4	42.6	4	-1E+10	1	-1E+10	1	-1E+10	1	-1E+10	1	-1E+10	1	-1E+10	1
4902551	52	C	01/17/2022	04:11	-133.104	49.478	0	175.60	0	5.7620	0	33.7330	0	26.583	0	174.029	0	129.4	4	42.5	4	-1E+10	1	-1E+10	1	-1E+10	1	-1E+10	1	-1E+10	1	-1E+10	1
4902551	52	C	01/17/2022	04:11	-133.104	49.478	0	176.90	0	5.7560	0	33.7340	0	26.584	0	175.317	0	128.4	4	42.1	4	-1E+10	1	-1E+10	1	-1E+10	1	-1E+10	1	-1E+10	1	-1E+10	1
4902551	52	C	01/17/2022	04:11	-133.104	49.478	0	178.30	0	5.7490	0	33.7370	0	26.588	0	176.704	0	127.4	4	41.8	4	-1E+10	1	-1E+10	1	-1E+10	1	-1E+10	1	-1E+10	1	-1E+10	1
4902551	52	C	01/17/2022	04:11	-133.104	49.478	0	179.20	0	5.7440	0	33.7380	0	26.589	0	177.595	0	126.7	4	41.6	4	-1E+10	1	-1E+10	1	-1E+10	1	-1E+10	1	-1E+10	1	-1E+10	1
4902551	52	C	01/17/2022	04:11	-133.104	49.478	0	180.10	0	5.7350	0	33.7420	0	26.593	0	178.487	0	126.1	4	41.4	4	-1E+10	1	-1E+10	1	-1E+10	1	-1E+10	1	-1E+10	1	-1E+10	1
4902551	52	C	01/17/2022	04:11	-133.104	49.478	0	181.00	0	5.7200	0	33.7480	0	26.600	0	179.378	0	125.5	4	41.1	4	-1E+10	1	-1E+10	1	-1E+10	1	-1E+10	1	-1E+10	1	-1E+10	1
4902551	52	C	01/17/2022	04:11	-133.104	49.478	0	181.90	0	5.7130	0	33.7480	0	26.601	0	180.270	0	125.0	4	41.0	4	-1E+10	1	-1E+10	1	-1E+10	1	-1E+10	1	-1E+10	1	-1E+10	1
4902551	52	C	01/17/2022	04:11	-133.104	49.478	0	182.80	0	5.7090	0	33.7480	0	26.601	0	181.161	0	124.4	4	40.8	4	-1E+10	1	-1E+10	1	-1E+10	1	-1E+10	1	-1E+10	1	-1E+10	1
4902551	52	C	01/17/2022	04:11	-133.104	49.478	0	183.60	0	5.7070	0	33.7490	0	26.602	0	181.954	0	123.7	4	40.5	4	-1E+10	1	-1E+10	1	-1E+10	1	-1E+10	1	-1E+10	1	-1E+10	1
4902551	52	C	01/17/2022	04:11	-133.104	49.478	0	184.90	0	5.7000	0	33.7500	0	26.604	0	183.242	0	122.7	4	40.2	4	-1E+10	1	-1E+10	1	-1E+10	1	-1E+10	1	-1E+10	1	-1E+10	1
4902551	52	C	01/17/2022	04:11	-133.104	49.478	0	186.30	0	5.6950	0	33.7510	0	26.605	0	184.628	0	121.6	4	39.8	4	-1E+10	1	-1E+10	1	-1E+10	1	-1E+10	1	-1E+10	1	-1E+10	1
4902551	52	C	01/17/2022	04:11	-133.104	49.478	0	187.20	0	5.6800	0	33.7540	0	26.610	0	185.520	0	120.9	4	39.6	4	-1E+10	1	-1E+10	1	-1E+10	1	-1E+10	1	-1E+10	1	-1E+10	1
4902551	52	C	01/17/2022	04:11	-133.104	49.478	0	188.10	0	5.6610	0	33.7600	0	26.617	0	186.411	0	120.3	4	39.4	4	-1E+10	1	-1E+10	1	-1E+10	1	-1E+10	1	-1E+10	1	-1E+10	1
4902551	52	C	01/17/2022	04:11	-133.104	49.478	0	188.90	0	5.6450	0	33.7630	0	26.621	0	187.204	0	119.7	4	39.2	4	-1E+10	1	-1E+10	1	-1E+10	1	-1E+10	1	-1E+10	1	-1E+10	1
4902551	52	C	01/17/2022	04:11	-133.104	49.478	0	189.80	0	5.6360	0	33.7640	0	26.623	0	188.095	0	119.0	4	39.0	4	-1E+10	1	-1E+10	1	-1E+10	1	-1E+10	1	-1E+10	1	-1E+10	1
4902551	52	C	01/17/2022	04:11	-133.104	49.478	0	190.70	0	5.6320	0	33.7670	0	26.626	0	188.987	0	118.5	4	38.8	4	-1E+10	1	-1E+10	1	-1E+10	1	-1E+10	1	-1E+10	1	-1E+10	1
4902551	52	C	01/17/2022	04:11	-133.104	49.478	0	191.90	0	5.6040	0	33.7720	0	26.633	0	190.176	0	117.9	4	38.5	4	-1E+10	1	-1E+10	1	-1E+10	1	-1E+10	1	-1E+10	1	-1E+10	1
4902551	52	C	01/17/2022	04:11	-133.104	49.478	0	193.30	0	5.5930	0	33.7740	0	26.636	0	191.562	0	117.2	4	38.3	4	-1E+10	1	-1E+10	1	-1E+10	1	-1E+10	1	-1E+10	1	-1E+10	1
4902551	52	C	01/17/2022	04:11	-133.104	49.478	0	194.10	0	5.5900	0	33.7740	0	26.636	0	192.355	0	116.7	4	38.1	4	-1E+10	1	-1E+10	1	-1E+10	1	-1E+10	1	-1E+10	1	-1E+10	1
4902551	52	C	01/17/2022	04:11	-133.104	49.478	0	195.00	0	5.5750	0	33.7780	0	26.641	0	193.246	0	116.2	4	38.0	4	-1E+10	1	-1E+10	1	-1E+10	1	-1E+10	1	-1E+10	1	-1E+10	1
4902551	52	C	01/17/2022	04:11	-133.104	49.478	0	195.90	0	5.5590	0	33.7790	0	26.644	0	194.138	0	115.8	4	37.8	4	-1E+10	1	-1E+10	1	-1E+10	1	-1E+10	1	-1E+10	1	-1E+10	1
4902551	52	C	01/17/2022	04:11	-133.104	49.478	0	196.70	0	5.5360	0	33.7830	0	26.650	0	194.930	0	115.5	4	37.7	4	-1E+10	1	-1E+10	1	-1E+10	1	-1E+10	1	-1E+10	1	-1E+10	1
4902551	52	C	01/17/2022	04:11	-133.104	49.478	0	197.60	0	5.5300	0	33.7820	0	26.650	0	195.822	0	115.2	4	37.6	4	-1E+10	1	-1E+10	1	-1E+10	1	-1E+10	1	-1E+10	1	-1E+10	1
4902551	52	C	01/17/2022	04:11	-133.104	49.478	0	198.90	0	5.5270	0	33.7820	0	26.650	0	197.109	0	114.6	4	37.4	4	-1E+10	1	-1E+10	1	-1E+10	1	-1E+10	1	-1E+10	1	-1E+10	1
4902551	52	C	01/17/2022	04:11	-133.104	49.478	0	200.20	0	5.5090	0	33.7830	0	26.653	0	198.397	0	114.0	4	37.2	4	-1E+10	1	-1E+10	1	-1E+10	1	-1E+10	1	-1E+10	1	-1E+10	1
4902551	52	C	01/17/2022	04:11	-133.104	49.478	0	201.00	0	5.5100	0	33.7830	0	26.653	0	199.189	0	113.6	4	37.1	4	-1E+10	1	-1E+10	1	-1E+10	1	-1E+10	1	-1E+10	1	-1E+10	1
4902551	52	C	01/17/2022	04:11	-133.104	49.478	0	201.80	0	5.4940	0	33.7880	0	26.659	0	199.982	0	113.1	4	36.9	4	-1E+10	1	-1E+10	1	-1E+10	1	-1E+10	1	-1E+10	1	-1E+10	1
4902551	52	C	01/17/2022	04:11	-133.104	49.478	0	202.70	0	5.4700	0	33.7850	0	26.659	0	200.873	0	112.7	4	36.8	4	-1E+10	1	-1E+10	1	-1E+10	1	-1E+10	1	-1E+10	1	-1E+10	1
4902551	52	C	01/17/2022	04:11	-133.104	49.478	0	203.90	0	5.4540	0	33.7870	0	26.663	0	202.062	0	112.1	4	36.5	4	-1E+10	1	-1E+10	1	-1E+10	1	-1E+10	1	-1E+10	1	-1E+10	1
4902551	52	C	01/17/2022	04:11	-133.104	49.478	0	205.30	0	5.4560	0	33.7910	0	26.666	0	203.449	0	111.6	4	36.4	4	-1E+10	1	-1E+10	1	-1E+10	1	-1E+10	1	-1E+10	1	-1E+10	1
4902551	52	C	01/17/2022	04:11	-133.104	49.478	0	206.20	0	5.4560	0	33.7900	0	26.665	0	204.340	0	111.3	4	36.3	4	-1E+10	1	-1E+10	1	-1E+10	1	-1E+10	1	-1E+10	1	-1E+10	1
4902551	52	C	01/17/2022	04:11	-133.104	49.478	0	207.00	0	5.4340	0	33.7960	0	26.672	0	205.132	0	111.0	4	36.1	4	-1E+10	1	-1E+10	1	-1E+10	1	-1E+10	1	-1E+10	1	-1E+10	1
4902551	52	C	01/17/2022	04:11	-133.104	49.478	0	207.90	0	5.4230	0	33.7910	0	26.670	0	206.024	0	110.7	4	36.0	4	-1E+10	1	-1E+10	1	-1E+10	1	-1E+10	1	-1E+10	1	-1E+10	1
4902551	52	C	01/17/2022	04:11	-133.104	49.478	0	208.80	0	5.4190	0	33.7930	0	26.672	0	206.915	0	110.3	4	35.9	4	-1E+10	1	-1E+10	1	-1E+10	1	-1E+10	1	-1E+10	1	-1E+10	1
4902551	52	C	01/17/2022	04:11	-133.104	49.478	0	209.70	0	5.4150	0	33.7910	0	26.671	0	207.807	0	109.8	4	35.8	4	-1E+10	1	-1E+10	1	-1E+10	1	-1E+10	1	-1E+10	1	-1E+10	1
4902551	52	C	01/17/2022	04:11	-133.104	49.478	0	210.90	0	5.4130	0	33.7920	0	26.672	0	208.995	0	109.1	4	35.5	4	-1E+10	1	-1E+10	1	-1E+10	1	-1E+10	1	-1E+10	1	-1E+10	1
4902551	52	C	01/17/2022	04:11	-133.104	49.478	0	212.30	0	5.4040	0	33.7900	0	26.671	0	210.382	0	108.3	4	35.2	4	-1E+10	1	-1E+10	1	-1E+10	1	-1E+10	1	-1E+10	1	-1E+10	1
4902551	52	C	01/17/2022	04:11	-133.104	49.478	0	213.10	0	5.3820	0	33.7950	0	26.678	0	211.174	0	107.8	4	35.1	4	-1E+10	1	-1E+10	1	-1E+10	1	-1E+10	1	-1E+10	1	-1E+10	1
4902551	52	C	01/17/2022	04:11	-133.104	49.478	0	214.00	0	5.3870	0	33.7960	0	26.678	0	212.066	0	107.3	4	34.9	4	-1E+10	1	-1E+10	1	-1E+10	1	-1E+10	1	-1E+10	1	-1E+10	1
4902551	52	C	01/17/2022	04:11	-133.104	49.478	0	214.90	0	5.3830	0	33.8000	0	26.682	0	212.957	0	106.9	4	34.8	4	-1E+10	1	-1E+10	1	-1E+10	1	-1E+10	1	-1E+10	1	-1E+10	1
4902551	52	C	01/17/2022	04:11	-133.104	49.478	0	215.80	0	5.3580	0	33.8000	0	26.685	0	213.848	0	106.6	4	34.7	4	-1E+10	1	-1E+10	1	-1E+10	1	-1E+10	1	-1E+10	1	-1E+10	1
4902551	52	C	01/17/2022	04:11	-133.104	49.478	0	216.70	0	5.3490	0	33.7980	0	26.684	0	214.740	0	106.1	4	34.5	4	-1E+10	1	-1E+10	1	-1E+10	1	-1E+10	1	-1E+10	1	-1E+10	1
4902551	52	C	01/17/2022	04:11	-133.104	49.478	0	218.00	0	5.3380	0	33.8010	0	26.688	0	216.027	0	105.4	4	34.3	4	-1E+10	1	-1E+10	1	-1E+10	1	-1E+10	1	-1E+10	1	-1E+10	1
4902551	52	C	01/17/2022	04:11	-133.104	49.478	0	219.30	0	5.3110	0	33.8030	0	26.693	0	217.315	0	104.8	4	34.0	4	-1E+10	1	-1E+10	1	-1E+10	1	-1E+10	1	-1E+10	1	-1E+10	1
4902551	52	C	01/17/2022	04:11	-133.104	49.478	0	220.20	0	5.3020	0	33.8030	0	26.694	0	218.206	0	104.4	4	33.9	4	-1E+10	1	-1E+10	1	-1E+10	1	-1E+10	1	-1E+10	1	-1E+10	1
4902551	52	C	01/17/2022	04:11	-133.104	49.478	0	221.10	0	5.2750	0	33.8040	0	26.698	0	219.098	0	104.1	4	33.8	4	-1E+10	1	-1E+10	1	-1E+10	1	-1E+10	1	-1E+10	1	-1E+10	1
4902551	52	C	01/17/2022	04:11	-133.104	49.478	0	222.10	0	5.2680	0	33.8060	0	26.700	0	220.088	0	103.9	4	33.7	4	-1E+10	1	-1E+10	1	-1E+10	1	-1E+10	1	-1E+10	1	-1E+10	1
4902551	52	C	01/17/2022	04:11	-133.104	49.478	0	223.00	0	5.2590	0	33.8090	0	26.703	0	220.979	0	103.6	4	33.6	4	-1E+10	1	-1E+10	1	-1E+10	1	-1E+10	1	-1E+10	1	-1E+10	1
4902551	52	C	01/17/2022	04:11	-133.104	49.478	0	223.90	0	5.2470	0	33.8070	0	26.703	0	221.871	0	103.4	4	33.5	4	-1E+10	1	-1E+10	1	-1E+10	1	-1E+10	1	-1E+10	1	-1E+10	1
4902551	52	C	01/17/2022	04:11	-133.104	49.478	0	224.80	0	5.2420	0	33.8080	0	26.705	0	222.762	0	103.1	4	33.4	4	-1E+10	1	-1E+10	1	-1E+10	1	-1E+10	1	-1E+10	1	-1E+10	1
4902551	52	C	01/17/2022	04:11	-133.104	49.478	0	225.70	0	5.2390	0	33.8080	0	26.705	0	223.654	0	102.9	4	33.4	4	-1E+10	1	-1E+10	1	-1E+10	1	-1E+10	1	-1E+10	1	-1E+10	1
4902551	52	C	01/17/2022	04:11	-133.104	49.478	0	226.70	0	5.2370	0	33.8080	0	26.705	0	224.644	0	102.6	4	33.3	4	-1E+10	1	-1E+10	1	-1E+10	1	-1E+10	1	-1E+10	1	-1E+10	1
4902551	52	C	01/17/2022	04:11	-133.104	49.478	0	227.60	0	5.2350	0	33.8080	0	26.705	0	225.535	0	102.3	4	33.2	4	-1E+10	1	-1E+10	1	-1E+10	1	-1E+10	1	-1E+10	1	-1E+10	1
4902551	52	C	01/17/2022	04:11	-133.104	49.478	0	228.50	0	5.2330	0	33.8080	0	26.706	0	226.427	0	102.0	4	33.1	4	-1E+10	1	-1E+10	1	-1E+10	1	-1E+10	1	-1E+10	1	-1E+10	1
4902551	52	C	01/17/2022	04:11	-133.104	49.478	0	229.90	0	5.2220	0	33.8090	0	26.708	0	227.813	0	101.5	4	32.9	4	-1E+10	1	-1E+10	1	-1E+10	1	-1E+10	1	-1E+10	1	-1E+10	1
4902551	52	C	01/17/2022	04:11	-133.104	49.478	0	231.30	0	5.2150	0	33.8110	0	26.710	0	229.200	0	101.0	4	32.7	4	-1E+10	1	-1E+10	1	-1E+10	1	-1E+10	1	-1E+10	1	-1E+10	1
4902551	52	C	01/17/2022	04:11	-133.104	49.478	0	232.30	0	5.2090	0	33.8100	0	26.710	0	230.190	0	100.7	4	32.6	4	-1E+10	1	-1E+10	1	-1E+10	1	-1E+10	1	-1E+10	1	-1E+10	1
4902551	52	C	01/17/2022	04:11	-133.104	49.478	0	233.20	0	5.2010	0	33.8120	0	26.713	0	231.081	0	100.3	4	32.5	4	-1E+10	1	-1E+10	1	-1E+10	1	-1E+10	1	-1E+10	1	-1E+10	1
4902551	52	C	01/17/2022	04:11	-133.104	49.478	0	234.20	0	5.1790	0	33.8110	0	26.714	0	232.072	0	100.0	4	32.4	4	-1E+10	1	-1E+10	1	-1E+10	1	-1E+10	1	-1E+10	1	-1E+10	1
4902551	52	C	01/17/2022	04:11	-133.104	49.478	0	235.10	0	5.1780	0	33.8110	0	26.714	0	232.963	0	99.7	4	32.3	4	-1E+10	1	-1E+10	1	-1E+10	1	-1E+10	1	-1E+10	1	-1E+10	1
4902551	52	C	01/17/2022	04:11	-133.104	49.478	0	236.10	0	5.1760	0	33.8110	0	26.715	0	233.953	0	99.3	4	32.2	4	-1E+10	1	-1E+10	1	-1E+10	1	-1E+10	1	-1E+10	1	-1E+10	1
4902551	52	C	01/17/2022	04:11	-133.104	49.478	0	237.00	0	5.1620	0	33.8120	0	26.717	0	234.845	0	98.9	4	32.0	4	-1E+10	1	-1E+10	1	-1E+10	1	-1E+10	1	-1E+10	1	-1E+10	1
4902551	52	C	01/17/2022	04:11	-133.104	49.478	0	238.00	0	5.1580	0	33.8120	0	26.718	0	235.835	0	98.5	4	31.9	4	-1E+10	1	-1E+10	1	-1E+10	1	-1E+10	1	-1E+10	1	-1E+10	1
4902551	52	C	01/17/2022	04:11	-133.104	49.478	0	238.90	0	5.1550	0	33.8120	0	26.718	0	236.726	0	98.1	4	31.8	4	-1E+10	1	-1E+10	1	-1E+10	1	-1E+10	1	-1E+10	1	-1E+10	1
4902551	52	C	01/17/2022	04:11	-133.104	49.478	0	239.90	0	5.1460	0	33.8130	0	26.720	0	237.717	0	97.7	4	31.6	4	-1E+10	1	-1E+10	1	-1E+10	1	-1E+10	1	-1E+10	1	-1E+10	1
4902551	52	C	01/17/2022	04:11	-133.104	49.478	0	240.80	0	5.1390	0	33.8130	0	26.721	0	238.608	0	97.3	4	31.5	4	-1E+10	1	-1E+10	1	-1E+10	1	-1E+10	1	-1E+10	1	-1E+10	1
4902551	52	C	01/17/2022	04:11	-133.104	49.478	0	241.80	0	5.1330	0	33.8130	0	26.721	0	239.598	0	96.8	4	31.3	4	-1E+10	1	-1E+10	1	-1E+10	1	-1E+10	1	-1E+10	1	-1E+10	1
4902551	52	C	01/17/2022	04:11	-133.104	49.478	0	242.70	0	5.1240	0	33.8130	0	26.722	0	240.490	0	96.3	4	31.1	4	-1E+10	1	-1E+10	1	-1E+10	1	-1E+10	1	-1E+10	1	-1E+10	1
4902551	52	C	01/17/2022	04:11	-133.104	49.478	0	243.70	0	5.1120	0	33.8140	0	26.724	0	241.480	0	95.8	4	31.0	4	-1E+10	1	-1E+10	1	-1E+10	1	-1E+10	1	-1E+10	1	-1E+10	1
4902551	52	C	01/17/2022	04:11	-133.104	49.478	0	244.60	0	5.1110	0	33.8150	0	26.725	0	242.371	0	95.2	4	30.8	4	-1E+10	1	-1E+10	1	-1E+10	1	-1E+10	1	-1E+10	1	-1E+10	1
4902551	52	C	01/17/2022	04:11	-133.104	49.478	0	245.60	0	5.1040	0	33.8150	0	26.726	0	243.361	0	94.6	4	30.6	4	-1E+10	1	-1E+10	1	-1E+10	1	-1E+10	1	-1E+10	1	-1E+10	1
4902551	52	C	01/17/2022	04:11	-133.104	49.478	0	246.50	0	5.0950	0	33.8140	0	26.726	0	244.253	0	94.1	4	30.4	4	-1E+10	1	-1E+10	1	-1E+10	1	-1E+10	1	-1E+10	1	-1E+10	1
4902551	52	C	01/17/2022	04:11	-133.104	49.478	0	247.50	0	5.0690	0	33.8160	0	26.731	0	245.243	0	93.5	4	30.2	4	-1E+10	1	-1E+10	1	-1E+10	1	-1E+10	1	-1E+10	1	-1E+10	1
4902551	52	C	01/17/2022	04:11	-133.104	49.478	0	248.90	0	5.0230	0	33.8210	0	26.740	0	246.629	0	93.0	4	30.0	4	-1E+10	1	-1E+10	1	-1E+10	1	-1E+10	1	-1E+10	1	-1E+10	1
4902551	52	C	01/17/2022	04:11	-133.104	49.478	0	250.40	0	5.0050	0	33.8220	0	26.743	0	248.115	0	92.4	4	29.8	4	-1E+10	1	-1E+10	1	-1E+10	1	-1E+10	1	-1E+10	1	-1E+10	1
4902551	52	C	01/17/2022	04:11	-133.104	49.478	0	251.40	0	4.9930	0	33.8230	0	26.745	0	249.105	0	92.1	4	29.7	4	-1E+10	1	-1E+10	1	-1E+10	1	-1E+10	1	-1E+10	1	-1E+10	1
4902551	52	C	01/17/2022	04:11	-133.104	49.478	0	252.40	0	4.9790	0	33.8260	0	26.749	0	250.095	0	91.8	4	29.6	4	-1E+10	1	-1E+10	1	-1E+10	1	-1E+10	1	-1E+10	1	-1E+10	1
4902551	52	C	01/17/2022	04:11	-133.104	49.478	0	253.40	0	4.9760	0	33.8260	0	26.750	0	251.086	0	91.5	4	29.5	4	-1E+10	1	-1E+10	1	-1E+10	1	-1E+10	1	-1E+10	1	-1E+10	1
4902551	52	C	01/17/2022	04:11	-133.104	49.478	0	254.40	0	4.9760	0	33.8260	0	26.750	0	252.076	0	91.1	4	29.4	4	-1E+10	1	-1E+10	1	-1E+10	1	-1E+10	1	-1E+10	1	-1E+10	1
4902551	52	C	01/17/2022	04:11	-133.104	49.478	0	255.30	0	4.9740	0	33.8260	0	26.750	0	252.967	0	90.8	4	29.3	4	-1E+10	1	-1E+10	1	-1E+10	1	-1E+10	1	-1E+10	1	-1E+10	1
4902551	52	C	01/17/2022	04:11	-133.104	49.478	0	256.30	0	4.9700	0	33.8290	0	26.753	0	253.957	0	90.4	4	29.1	4	-1E+10	1	-1E+10	1	-1E+10	1	-1E+10	1	-1E+10	1	-1E+10	1
4902551	52	C	01/17/2022	04:11	-133.104	49.478	0	257.30	0	4.9630	0	33.8310	0	26.755	0	254.948	0	90.1	4	29.0	4	-1E+10	1	-1E+10	1	-1E+10	1	-1E+10	1	-1E+10	1	-1E+10	1
4902551	52	C	01/17/2022	04:11	-133.104	49.478	0	258.30	0	4.9590	0	33.8300	0	26.755	0	255.938	0	89.8	4	28.9	4	-1E+10	1	-1E+10	1	-1E+10	1	-1E+10	1	-1E+10	1	-1E+10	1
4902551	52	C	01/17/2022	04:11	-133.104	49.478	0	259.30	0	4.9580	0	33.8300	0	26.755	0	256.928	0	89.4	4	28.8	4	-1E+10	1	-1E+10	1	-1E+10	1	-1E+10	1	-1E+10	1	-1E+10	1
4902551	52	C	01/17/2022	04:11	-133.104	49.478	0	260.30	0	4.9570	0	33.8300	0	26.755	0	257.918	0	89.0	4	28.7	4	-1E+10	1	-1E+10	1	-1E+10	1	-1E+10	1	-1E+10	1	-1E+10	1
4902551	52	C	01/17/2022	04:11	-133.104	49.478	0	261.20	0	4.9580	0	33.8290	0	26.754	0	258.809	0	88.6	4	28.5	4	-1E+10	1	-1E+10	1	-1E+10	1	-1E+10	1	-1E+10	1	-1E+10	1
4902551	52	C	01/17/2022	04:11	-133.104	49.478	0	262.20	0	4.9560	0	33.8290	0	26.754	0	259.800	0	88.1	4	28.4	4	-1E+10	1	-1E+10	1	-1E+10	1	-1E+10	1	-1E+10	1	-1E+10	1
4902551	52	C	01/17/2022	04:11	-133.104	49.478	0	263.20	0	4.9490	0	33.8310	0	26.757	0	260.790	0	87.6	4	28.2	4	-1E+10	1	-1E+10	1	-1E+10	1	-1E+10	1	-1E+10	1	-1E+10	1
4902551	52	C	01/17/2022	04:11	-133.104	49.478	0	264.20	0	4.9470	0	33.8350	0	26.760	0	261.780	0	87.2	4	28.1	4	-1E+10	1	-1E+10	1	-1E+10	1	-1E+10	1	-1E+10	1	-1E+10	1
4902551	52	C	01/17/2022	04:11	-133.104	49.478	0	265.10	0	4.9460	0	33.8360	0	26.761	0	262.671	0	86.7	4	27.9	4	-1E+10	1	-1E+10	1	-1E+10	1	-1E+10	1	-1E+10	1	-1E+10	1
4902551	52	C	01/17/2022	04:11	-133.104	49.478	0	266.10	0	4.9410	0	33.8360	0	26.762	0	263.661	0	86.3	4	27.8	4	-1E+10	1	-1E+10	1	-1E+10	1	-1E+10	1	-1E+10	1	-1E+10	1
4902551	52	C	01/17/2022	04:11	-133.104	49.478	0	267.00	0	4.9360	0	33.8350	0	26.761	0	264.553	0	85.8	4	27.6	4	-1E+10	1	-1E+10	1	-1E+10	1	-1E+10	1	-1E+10	1	-1E+10	1
4902551	52	C	01/17/2022	04:11	-133.104	49.478	0	268.00	0	4.9320	0	33.8350	0	26.762	0	265.543	0	85.3	4	27.5	4	-1E+10	1	-1E+10	1	-1E+10	1	-1E+10	1	-1E+10	1	-1E+10	1
4902551	52	C	01/17/2022	04:11	-133.104	49.478	0	269.00	0	4.9260	0	33.8360	0	26.763	0	266.533	0	84.8	4	27.3	4	-1E+10	1	-1E+10	1	-1E+10	1	-1E+10	1	-1E+10	1	-1E+10	1
4902551	52	C	01/17/2022	04:11	-133.104	49.478	0	269.90	0	4.9120	0	33.8400	0	26.768	0	267.424	0	84.3	4	27.1	4	-1E+10	1	-1E+10	1	-1E+10	1	-1E+10	1	-1E+10	1	-1E+10	1
4902551	52	C	01/17/2022	04:11	-133.104	49.478	0	270.90	0	4.9100	0	33.8410	0	26.769	0	268.414	0	83.9	4	27.0	4	-1E+10	1	-1E+10	1	-1E+10	1	-1E+10	1	-1E+10	1	-1E+10	1
4902551	52	C	01/17/2022	04:11	-133.104	49.478	0	271.90	0	4.9100	0	33.8410	0	26.769	0	269.405	0	83.3	4	26.8	4	-1E+10	1	-1E+10	1	-1E+10	1	-1E+10	1	-1E+10	1	-1E+10	1
4902551	52	C	01/17/2022	04:11	-133.104	49.478	0	272.90	0	4.9060	0	33.8430	0	26.771	0	270.395	0	82.9	4	26.7	4	-1E+10	1	-1E+10	1	-1E+10	1	-1E+10	1	-1E+10	1	-1E+10	1
4902551	52	C	01/17/2022	04:11	-133.104	49.478	0	273.80	0	4.9010	0	33.8420	0	26.771	0	271.286	0	82.3	4	26.5	4	-1E+10	1	-1E+10	1	-1E+10	1	-1E+10	1	-1E+10	1	-1E+10	1
4902551	52	C	01/17/2022	04:11	-133.104	49.478	0	274.80	0	4.8990	0	33.8430	0	26.772	0	272.276	0	81.8	4	26.3	4	-1E+10	1	-1E+10	1	-1E+10	1	-1E+10	1	-1E+10	1	-1E+10	1
4902551	52	C	01/17/2022	04:11	-133.104	49.478	0	275.70	0	4.8760	0	33.8470	0	26.778	0	273.167	0	81.3	4	26.2	4	-1E+10	1	-1E+10	1	-1E+10	1	-1E+10	1	-1E+10	1	-1E+10	1
4902551	52	C	01/17/2022	04:11	-133.104	49.478	0	276.70	0	4.8670	0	33.8480	0	26.779	0	274.157	0	80.9	4	26.0	4	-1E+10	1	-1E+10	1	-1E+10	1	-1E+10	1	-1E+10	1	-1E+10	1
4902551	52	C	01/17/2022	04:11	-133.104	49.478	0	277.70	0	4.8630	0	33.8480	0	26.780	0	275.147	0	80.5	4	25.9	4	-1E+10	1	-1E+10	1	-1E+10	1	-1E+10	1	-1E+10	1	-1E+10	1
4902551	52	C	01/17/2022	04:11	-133.104	49.478	0	278.60	0	4.8450	0	33.8510	0	26.784	0	276.039	0	80.0	4	25.7	4	-1E+10	1	-1E+10	1	-1E+10	1	-1E+10	1	-1E+10	1	-1E+10	1
4902551	52	C	01/17/2022	04:11	-133.104	49.478	0	279.60	0	4.8240	0	33.8530	0	26.788	0	277.029	0	79.6	4	25.6	4	-1E+10	1	-1E+10	1	-1E+10	1	-1E+10	1	-1E+10	1	-1E+10	1
4902551	52	C	01/17/2022	04:11	-133.104	49.478	0	280.60	0	4.8140	0	33.8540	0	26.790	0	278.019	0	79.3	4	25.5	4	-1E+10	1	-1E+10	1	-1E+10	1	-1E+10	1	-1E+10	1	-1E+10	1
4902551	52	C	01/17/2022	04:11	-133.104	49.478	0	281.60	0	4.8150	0	33.8560	0	26.792	0	279.009	0	79.1	4	25.4	4	-1E+10	1	-1E+10	1	-1E+10	1	-1E+10	1	-1E+10	1	-1E+10	1
4902551	52	C	01/17/2022	04:11	-133.104	49.478	0	282.60	0	4.8170	0	33.8570	0	26.792	0	279.999	0	78.8	4	25.3	4	-1E+10	1	-1E+10	1	-1E+10	1	-1E+10	1	-1E+10	1	-1E+10	1
4902551	52	C	01/17/2022	04:11	-133.104	49.478	0	283.60	0	4.8170	0	33.8570	0	26.792	0	280.989	0	78.5	4	25.2	4	-1E+10	1	-1E+10	1	-1E+10	1	-1E+10	1	-1E+10	1	-1E+10	1
4902551	52	C	01/17/2022	04:11	-133.104	49.478	0	284.60	0	4.8130	0	33.8580	0	26.793	0	281.979	0	78.2	4	25.1	4	-1E+10	1	-1E+10	1	-1E+10	1	-1E+10	1	-1E+10	1	-1E+10	1
4902551	52	C	01/17/2022	04:11	-133.104	49.478	0	285.60	0	4.8130	0	33.8580	0	26.793	0	282.969	0	77.9	4	25.0	4	-1E+10	1	-1E+10	1	-1E+10	1	-1E+10	1	-1E+10	1	-1E+10	1
4902551	52	C	01/17/2022	04:11	-133.104	49.478	0	286.50	0	4.8120	0	33.8580	0	26.794	0	283.861	0	77.6	4	24.9	4	-1E+10	1	-1E+10	1	-1E+10	1	-1E+10	1	-1E+10	1	-1E+10	1
4902551	52	C	01/17/2022	04:11	-133.104	49.478	0	287.50	0	4.8050	0	33.8600	0	26.796	0	284.851	0	77.2	4	24.8	4	-1E+10	1	-1E+10	1	-1E+10	1	-1E+10	1	-1E+10	1	-1E+10	1
4902551	52	C	01/17/2022	04:11	-133.104	49.478	0	288.50	0	4.7990	0	33.8600	0	26.797	0	285.841	0	76.8	4	24.7	4	-1E+10	1	-1E+10	1	-1E+10	1	-1E+10	1	-1E+10	1	-1E+10	1
4902551	52	C	01/17/2022	04:11	-133.104	49.478	0	289.50	0	4.7960	0	33.8610	0	26.798	0	286.831	0	76.5	4	24.6	4	-1E+10	1	-1E+10	1	-1E+10	1	-1E+10	1	-1E+10	1	-1E+10	1
4902551	52	C	01/17/2022	04:11	-133.104	49.478	0	290.50	0	4.7850	0	33.8630	0	26.801	0	287.821	0	76.1	4	24.4	4	-1E+10	1	-1E+10	1	-1E+10	1	-1E+10	1	-1E+10	1	-1E+10	1
4902551	52	C	01/17/2022	04:11	-133.104	49.478	0	291.90	0	4.7830	0	33.8620	0	26.800	0	289.207	0	75.6	4	24.3	4	-1E+10	1	-1E+10	1	-1E+10	1	-1E+10	1	-1E+10	1	-1E+10	1
4902551	52	C	01/17/2022	04:11	-133.104	49.478	0	293.40	0	4.7810	0	33.8620	0	26.800	0	290.692	0	74.9	4	24.0	4	-1E+10	1	-1E+10	1	-1E+10	1	-1E+10	1	-1E+10	1	-1E+10	1
4902551	52	C	01/17/2022	04:11	-133.104	49.478	0	294.40	0	4.7710	0	33.8640	0	26.803	0	291.682	0	74.5	4	23.9	4	-1E+10	1	-1E+10	1	-1E+10	1	-1E+10	1	-1E+10	1	-1E+10	1
4902551	52	C	01/17/2022	04:11	-133.104	49.478	0	295.40	0	4.7610	0	33.8640	0	26.804	0	292.672	0	74.1	4	23.8	4	-1E+10	1	-1E+10	1	-1E+10	1	-1E+10	1	-1E+10	1	-1E+10	1
4902551	52	C	01/17/2022	04:11	-133.104	49.478	0	296.30	0	4.7450	0	33.8650	0	26.807	0	293.563	0	73.9	4	23.7	4	-1E+10	1	-1E+10	1	-1E+10	1	-1E+10	1	-1E+10	1	-1E+10	1
4902551	52	C	01/17/2022	04:11	-133.104	49.478	0	297.30	0	4.7270	0	33.8680	0	26.811	0	294.553	0	73.6	4	23.6	4	-1E+10	1	-1E+10	1	-1E+10	1	-1E+10	1	-1E+10	1	-1E+10	1
4902551	52	C	01/17/2022	04:11	-133.104	49.478	0	298.30	0	4.7260	0	33.8680	0	26.811	0	295.543	0	73.3	4	23.5	4	-1E+10	1	-1E+10	1	-1E+10	1	-1E+10	1	-1E+10	1	-1E+10	1
4902551	52	C	01/17/2022	04:11	-133.104	49.478	0	299.30	0	4.7240	0	33.8680	0	26.811	0	296.533	0	73.0	4	23.4	4	-1E+10	1	-1E+10	1	-1E+10	1	-1E+10	1	-1E+10	1	-1E+10	1
4902551	52	C	01/17/2022	04:11	-133.104	49.478	0	300.40	0	4.7190	0	33.8690	0	26.813	0	297.623	0	72.7	4	23.3	4	-1E+10	1	-1E+10	1	-1E+10	1	-1E+10	1	-1E+10	1	-1E+10	1
4902551	52	C	01/17/2022	04:11	-133.104	49.478	0	301.40	0	4.7150	0	33.8700	0	26.814	0	298.613	0	72.3	4	23.2	4	-1E+10	1	-1E+10	1	-1E+10	1	-1E+10	1	-1E+10	1	-1E+10	1
4902551	52	C	01/17/2022	04:11	-133.104	49.478	0	302.40	0	4.7150	0	33.8700	0	26.814	0	299.603	0	72.0	4	23.1	4	-1E+10	1	-1E+10	1	-1E+10	1	-1E+10	1	-1E+10	1	-1E+10	1
4902551	52	C	01/17/2022	04:11	-133.104	49.478	0	303.40	0	4.7060	0	33.8750	0	26.819	0	300.593	0	71.8	4	23.0	4	-1E+10	1	-1E+10	1	-1E+10	1	-1E+10	1	-1E+10	1	-1E+10	1
4902551	52	C	01/17/2022	04:11	-133.104	49.478	0	304.40	0	4.7010	0	33.8720	0	26.817	0	301.583	0	71.5	4	22.9	4	-1E+10	1	-1E+10	1	-1E+10	1	-1E+10	1	-1E+10	1	-1E+10	1
4902551	52	C	01/17/2022	04:11	-133.104	49.478	0	305.40	0	4.7000	0	33.8720	0	26.817	0	302.573	0	71.1	4	22.8	4	-1E+10	1	-1E+10	1	-1E+10	1	-1E+10	1	-1E+10	1	-1E+10	1
4902551	52	C	01/17/2022	04:11	-133.104	49.478	0	306.50	0	4.7000	0	33.8720	0	26.817	0	303.662	0	70.7	4	22.7	4	-1E+10	1	-1E+10	1	-1E+10	1	-1E+10	1	-1E+10	1	-1E+10	1
4902551	52	C	01/17/2022	04:11	-133.104	49.478	0	307.50	0	4.6940	0	33.8740	0	26.819	0	304.652	0	70.4	4	22.5	4	-1E+10	1	-1E+10	1	-1E+10	1	-1E+10	1	-1E+10	1	-1E+10	1
4902551	52	C	01/17/2022	04:11	-133.104	49.478	0	308.50	0	4.6890	0	33.8760	0	26.822	0	305.642	0	70.1	4	22.4	4	-1E+10	1	-1E+10	1	-1E+10	1	-1E+10	1	-1E+10	1	-1E+10	1
4902551	52	C	01/17/2022	04:11	-133.104	49.478	0	309.50	0	4.6890	0	33.8760	0	26.822	0	306.632	0	69.7	4	22.3	4	-1E+10	1	-1E+10	1	-1E+10	1	-1E+10	1	-1E+10	1	-1E+10	1
4902551	52	C	01/17/2022	04:11	-133.104	49.478	0	310.50	0	4.6870	0	33.8780	0	26.823	0	307.622	0	69.3	4	22.2	4	-1E+10	1	-1E+10	1	-1E+10	1	-1E+10	1	-1E+10	1	-1E+10	1
4902551	52	C	01/17/2022	04:11	-133.104	49.478	0	311.60	0	4.6840	0	33.8790	0	26.825	0	308.711	0	69.0	4	22.1	4	-1E+10	1	-1E+10	1	-1E+10	1	-1E+10	1	-1E+10	1	-1E+10	1
4902551	52	C	01/17/2022	04:11	-133.104	49.478	0	312.60	0	4.6830	0	33.8790	0	26.825	0	309.701	0	68.7	4	22.0	4	-1E+10	1	-1E+10	1	-1E+10	1	-1E+10	1	-1E+10	1	-1E+10	1
4902551	52	C	01/17/2022	04:11	-133.104	49.478	0	313.60	0	4.6830	0	33.8790	0	26.825	0	310.691	0	68.2	4	21.9	4	-1E+10	1	-1E+10	1	-1E+10	1	-1E+10	1	-1E+10	1	-1E+10	1
4902551	52	C	01/17/2022	04:11	-133.104	49.478	0	314.60	0	4.6840	0	33.8790	0	26.825	0	311.681	0	67.8	4	21.7	4	-1E+10	1	-1E+10	1	-1E+10	1	-1E+10	1	-1E+10	1	-1E+10	1
4902551	52	C	01/17/2022	04:11	-133.104	49.478	0	315.70	0	4.6780	0	33.8810	0	26.827	0	312.770	0	67.3	4	21.5	4	-1E+10	1	-1E+10	1	-1E+10	1	-1E+10	1	-1E+10	1	-1E+10	1
4902551	52	C	01/17/2022	04:11	-133.104	49.478	0	316.70	0	4.6740	0	33.8810	0	26.827	0	313.759	0	66.8	4	21.4	4	-1E+10	1	-1E+10	1	-1E+10	1	-1E+10	1	-1E+10	1	-1E+10	1
4902551	52	C	01/17/2022	04:11	-133.104	49.478	0	317.70	0	4.6590	0	33.8850	0	26.832	0	314.749	0	66.4	4	21.2	4	-1E+10	1	-1E+10	1	-1E+10	1	-1E+10	1	-1E+10	1	-1E+10	1
4902551	52	C	01/17/2022	04:11	-133.104	49.478	0	319.00	0	4.6490	0	33.8860	0	26.834	0	316.036	0	65.9	4	21.1	4	-1E+10	1	-1E+10	1	-1E+10	1	-1E+10	1	-1E+10	1	-1E+10	1
4902551	52	C	01/17/2022	04:11	-133.104	49.478	0	321.00	0	4.6390	0	33.8890	0	26.838	0	318.016	0	65.3	4	20.9	4	-1E+10	1	-1E+10	1	-1E+10	1	-1E+10	1	-1E+10	1	-1E+10	1
4902551	52	C	01/17/2022	04:11	-133.104	49.478	0	322.10	0	4.6350	0	33.8900	0	26.839	0	319.105	0	64.8	4	20.7	4	-1E+10	1	-1E+10	1	-1E+10	1	-1E+10	1	-1E+10	1	-1E+10	1
4902551	52	C	01/17/2022	04:11	-133.104	49.478	0	322.90	0	4.6320	0	33.8910	0	26.840	0	319.897	0	64.6	4	20.6	4	-1E+10	1	-1E+10	1	-1E+10	1	-1E+10	1	-1E+10	1	-1E+10	1
4902551	52	C	01/17/2022	04:11	-133.104	49.478	0	324.00	0	4.6270	0	33.8930	0	26.842	0	320.986	0	64.1	4	20.5	4	-1E+10	1	-1E+10	1	-1E+10	1	-1E+10	1	-1E+10	1	-1E+10	1
4902551	52	C	01/17/2022	04:11	-133.104	49.478	0	325.20	0	4.6170	0	33.8940	0	26.844	0	322.174	0	63.6	4	20.3	4	-1E+10	1	-1E+10	1	-1E+10	1	-1E+10	1	-1E+10	1	-1E+10	1
4902551	52	C	01/17/2022	04:11	-133.104	49.478	0	326.00	0	4.6150	0	33.8950	0	26.845	0	322.966	0	63.3	4	20.3	4	-1E+10	1	-1E+10	1	-1E+10	1	-1E+10	1	-1E+10	1	-1E+10	1
4902551	52	C	01/17/2022	04:11	-133.104	49.478	0	326.80	0	4.6140	0	33.8950	0	26.845	0	323.758	0	63.0	4	20.2	4	-1E+10	1	-1E+10	1	-1E+10	1	-1E+10	1	-1E+10	1	-1E+10	1
4902551	52	C	01/17/2022	04:11	-133.104	49.478	0	327.90	0	4.6130	0	33.8940	0	26.844	0	324.847	0	62.5	4	20.0	4	-1E+10	1	-1E+10	1	-1E+10	1	-1E+10	1	-1E+10	1	-1E+10	1
4902551	52	C	01/17/2022	04:11	-133.104	49.478	0	329.10	0	4.6090	0	33.8960	0	26.846	0	326.035	0	61.9	4	19.8	4	-1E+10	1	-1E+10	1	-1E+10	1	-1E+10	1	-1E+10	1	-1E+10	1
4902551	52	C	01/17/2022	04:11	-133.104	49.478	0	329.90	0	4.6080	0	33.8960	0	26.847	0	326.827	0	61.4	4	19.6	4	-1E+10	1	-1E+10	1	-1E+10	1	-1E+10	1	-1E+10	1	-1E+10	1
4902551	52	C	01/17/2022	04:11	-133.104	49.478	0	331.00	0	4.5900	0	33.8980	0	26.850	0	327.915	0	60.8	4	19.4	4	-1E+10	1	-1E+10	1	-1E+10	1	-1E+10	1	-1E+10	1	-1E+10	1
4902551	52	C	01/17/2022	04:11	-133.104	49.478	0	332.20	0	4.5850	0	33.8980	0	26.851	0	329.103	0	60.2	4	19.2	4	-1E+10	1	-1E+10	1	-1E+10	1	-1E+10	1	-1E+10	1	-1E+10	1
4902551	52	C	01/17/2022	04:11	-133.104	49.478	0	333.00	0	4.5830	0	33.8990	0	26.852	0	329.895	0	59.8	4	19.1	4	-1E+10	1	-1E+10	1	-1E+10	1	-1E+10	1	-1E+10	1	-1E+10	1
4902551	52	C	01/17/2022	04:11	-133.104	49.478	0	333.80	0	4.5770	0	33.9030	0	26.855	0	330.687	0	59.4	4	19.0	4	-1E+10	1	-1E+10	1	-1E+10	1	-1E+10	1	-1E+10	1	-1E+10	1
4902551	52	C	01/17/2022	04:11	-133.104	49.478	0	335.00	0	4.5710	0	33.9060	0	26.859	0	331.875	0	58.8	4	18.8	4	-1E+10	1	-1E+10	1	-1E+10	1	-1E+10	1	-1E+10	1	-1E+10	1
4902551	52	C	01/17/2022	04:11	-133.104	49.478	0	336.20	0	4.5660	0	33.9080	0	26.861	0	333.063	0	58.3	4	18.6	4	-1E+10	1	-1E+10	1	-1E+10	1	-1E+10	1	-1E+10	1	-1E+10	1
4902551	52	C	01/17/2022	04:11	-133.104	49.478	0	337.00	0	4.5640	0	33.9110	0	26.863	0	333.855	0	57.9	4	18.5	4	-1E+10	1	-1E+10	1	-1E+10	1	-1E+10	1	-1E+10	1	-1E+10	1
4902551	52	C	01/17/2022	04:11	-133.104	49.478	0	337.80	0	4.5630	0	33.9120	0	26.864	0	334.647	0	57.6	4	18.4	4	-1E+10	1	-1E+10	1	-1E+10	1	-1E+10	1	-1E+10	1	-1E+10	1
4902551	52	C	01/17/2022	04:11	-133.104	49.478	0	338.70	0	4.5600	0	33.9130	0	26.865	0	335.537	0	57.3	4	18.3	4	-1E+10	1	-1E+10	1	-1E+10	1	-1E+10	1	-1E+10	1	-1E+10	1
4902551	52	C	01/17/2022	04:11	-133.104	49.478	0	339.90	0	4.5530	0	33.9140	0	26.867	0	336.725	0	56.8	4	18.1	4	-1E+10	1	-1E+10	1	-1E+10	1	-1E+10	1	-1E+10	1	-1E+10	1
4902551	52	C	01/17/2022	04:11	-133.104	49.478	0	341.20	0	4.5490	0	33.9140	0	26.867	0	338.012	0	56.3	4	18.0	4	-1E+10	1	-1E+10	1	-1E+10	1	-1E+10	1	-1E+10	1	-1E+10	1
4902551	52	C	01/17/2022	04:11	-133.104	49.478	0	342.00	0	4.5490	0	33.9180	0	26.870	0	338.804	0	56.0	4	17.9	4	-1E+10	1	-1E+10	1	-1E+10	1	-1E+10	1	-1E+10	1	-1E+10	1
4902551	52	C	01/17/2022	04:11	-133.104	49.478	0	342.90	0	4.5460	0	33.9180	0	26.871	0	339.695	0	55.6	4	17.8	4	-1E+10	1	-1E+10	1	-1E+10	1	-1E+10	1	-1E+10	1	-1E+10	1
4902551	52	C	01/17/2022	04:11	-133.104	49.478	0	343.70	0	4.5440	0	33.9190	0	26.872	0	340.487	0	55.2	4	17.6	4	-1E+10	1	-1E+10	1	-1E+10	1	-1E+10	1	-1E+10	1	-1E+10	1
4902551	52	C	01/17/2022	04:11	-133.104	49.478	0	345.00	0	4.5380	0	33.9220	0	26.875	0	341.773	0	54.7	4	17.5	4	-1E+10	1	-1E+10	1	-1E+10	1	-1E+10	1	-1E+10	1	-1E+10	1
4902551	52	C	01/17/2022	04:11	-133.104	49.478	0	346.30	0	4.5370	0	33.9230	0	26.876	0	343.060	0	54.3	4	17.3	4	-1E+10	1	-1E+10	1	-1E+10	1	-1E+10	1	-1E+10	1	-1E+10	1
4902551	52	C	01/17/2022	04:11	-133.104	49.478	0	347.10	0	4.5360	0	33.9230	0	26.876	0	343.852	0	54.0	4	17.2	4	-1E+10	1	-1E+10	1	-1E+10	1	-1E+10	1	-1E+10	1	-1E+10	1
4902551	52	C	01/17/2022	04:11	-133.104	49.478	0	348.00	0	4.5340	0	33.9240	0	26.877	0	344.743	0	53.7	4	17.1	4	-1E+10	1	-1E+10	1	-1E+10	1	-1E+10	1	-1E+10	1	-1E+10	1
4902551	52	C	01/17/2022	04:11	-133.104	49.478	0	348.90	0	4.5320	0	33.9250	0	26.878	0	345.634	0	53.4	4	17.0	4	-1E+10	1	-1E+10	1	-1E+10	1	-1E+10	1	-1E+10	1	-1E+10	1
4902551	52	C	01/17/2022	04:11	-133.104	49.478	0	349.70	0	4.5300	0	33.9250	0	26.878	0	346.426	0	53.0	4	16.9	4	-1E+10	1	-1E+10	1	-1E+10	1	-1E+10	1	-1E+10	1	-1E+10	1
4902551	52	C	01/17/2022	04:11	-133.104	49.478	0	352.70	0	4.5160	0	33.9310	0	26.884	0	349.395	0	51.9	4	16.5	4	-1E+10	1	-1E+10	1	-1E+10	1	-1E+10	1	-1E+10	1	-1E+10	1
4902551	52	C	01/17/2022	04:11	-133.104	49.478	0	358.00	0	4.5080	0	33.9390	0	26.892	0	354.641	0	50.0	4	15.9	4	-1E+10	1	-1E+10	1	-1E+10	1	-1E+10	1	-1E+10	1	-1E+10	1
4902551	52	C	01/17/2022	04:11	-133.104	49.478	0	363.00	0	4.4940	0	33.9500	0	26.902	0	359.589	0	48.6	4	15.5	4	-1E+10	1	-1E+10	1	-1E+10	1	-1E+10	1	-1E+10	1	-1E+10	1
4902551	52	C	01/17/2022	04:11	-133.104	49.478	0	367.70	0	4.4840	0	33.9530	0	26.905	0	364.241	0	47.5	4	15.1	4	-1E+10	1	-1E+10	1	-1E+10	1	-1E+10	1	-1E+10	1	-1E+10	1
4902551	52	C	01/17/2022	04:11	-133.104	49.478	0	372.90	0	4.4660	0	33.9610	0	26.914	0	369.388	0	46.2	4	14.7	4	-1E+10	1	-1E+10	1	-1E+10	1	-1E+10	1	-1E+10	1	-1E+10	1
4902551	52	C	01/17/2022	04:11	-133.104	49.478	0	378.00	0	4.4490	0	33.9680	0	26.921	0	374.435	0	44.7	4	14.3	4	-1E+10	1	-1E+10	1	-1E+10	1	-1E+10	1	-1E+10	1	-1E+10	1
4902551	52	C	01/17/2022	04:11	-133.104	49.478	0	382.70	0	4.4300	0	33.9750	0	26.929	0	379.086	0	43.8	4	13.9	4	-1E+10	1	-1E+10	1	-1E+10	1	-1E+10	1	-1E+10	1	-1E+10	1
4902551	52	C	01/17/2022	04:11	-133.104	49.478	0	387.60	0	4.4140	0	33.9810	0	26.935	0	383.936	0	42.7	4	13.6	4	-1E+10	1	-1E+10	1	-1E+10	1	-1E+10	1	-1E+10	1	-1E+10	1
4902551	52	C	01/17/2022	04:11	-133.104	49.478	0	392.60	0	4.3960	0	33.9870	0	26.942	0	388.884	0	41.8	4	13.3	4	-1E+10	1	-1E+10	1	-1E+10	1	-1E+10	1	-1E+10	1	-1E+10	1
4902551	52	C	01/17/2022	04:11	-133.104	49.478	0	397.70	0	4.3800	0	33.9930	0	26.949	0	393.930	0	41.0	4	13.1	4	-1E+10	1	-1E+10	1	-1E+10	1	-1E+10	1	-1E+10	1	-1E+10	1
4902551	52	C	01/17/2022	04:11	-133.104	49.478	0	403.00	0	4.3680	0	33.9980	0	26.954	0	399.175	0	40.3	4	12.8	4	-1E+10	1	-1E+10	1	-1E+10	1	-1E+10	1	-1E+10	1	-1E+10	1
4902551	52	C	01/17/2022	04:11	-133.104	49.478	0	407.80	0	4.3570	0	34.0030	0	26.959	0	403.925	0	39.6	4	12.6	4	-1E+10	1	-1E+10	1	-1E+10	1	-1E+10	1	-1E+10	1	-1E+10	1
4902551	52	C	01/17/2022	04:11	-133.104	49.478	0	412.50	0	4.3470	0	34.0070	0	26.963	0	408.576	0	39.0	4	12.4	4	-1E+10	1	-1E+10	1	-1E+10	1	-1E+10	1	-1E+10	1	-1E+10	1
4902551	52	C	01/17/2022	04:11	-133.104	49.478	0	417.90	0	4.3370	0	34.0110	0	26.968	0	413.919	0	38.4	4	12.2	4	-1E+10	1	-1E+10	1	-1E+10	1	-1E+10	1	-1E+10	1	-1E+10	1
4902551	52	C	01/17/2022	04:11	-133.104	49.478	0	422.70	0	4.3270	0	34.0160	0	26.973	0	418.668	0	37.9	4	12.0	4	-1E+10	1	-1E+10	1	-1E+10	1	-1E+10	1	-1E+10	1	-1E+10	1
4902551	52	C	01/17/2022	04:11	-133.104	49.478	0	427.60	0	4.3230	0	34.0170	0	26.974	0	423.517	0	37.3	4	11.9	4	-1E+10	1	-1E+10	1	-1E+10	1	-1E+10	1	-1E+10	1	-1E+10	1
4902551	52	C	01/17/2022	04:11	-133.104	49.478	0	433.00	0	4.3120	0	34.0220	0	26.979	0	428.859	0	36.5	4	11.6	4	-1E+10	1	-1E+10	1	-1E+10	1	-1E+10	1	-1E+10	1	-1E+10	1
4902551	52	C	01/17/2022	04:11	-133.104	49.478	0	437.90	0	4.2980	0	34.0280	0	26.985	0	433.707	0	35.7	4	11.3	4	-1E+10	1	-1E+10	1	-1E+10	1	-1E+10	1	-1E+10	1	-1E+10	1
4902551	52	C	01/17/2022	04:11	-133.104	49.478	0	443.00	0	4.2910	0	34.0320	0	26.989	0	438.753	0	34.7	4	11.0	4	-1E+10	1	-1E+10	1	-1E+10	1	-1E+10	1	-1E+10	1	-1E+10	1
4902551	52	C	01/17/2022	04:11	-133.104	49.478	0	448.20	0	4.2800	0	34.0370	0	26.995	0	443.898	0	33.9	4	10.8	4	-1E+10	1	-1E+10	1	-1E+10	1	-1E+10	1	-1E+10	1	-1E+10	1
4902551	52	C	01/17/2022	04:11	-133.104	49.478	0	453.10	0	4.2690	0	34.0410	0	26.999	0	448.745	0	33.2	4	10.6	4	-1E+10	1	-1E+10	1	-1E+10	1	-1E+10	1	-1E+10	1	-1E+10	1
4902551	52	C	01/17/2022	04:11	-133.104	49.478	0	458.00	0	4.2600	0	34.0460	0	27.004	0	453.593	0	32.5	4	10.3	4	-1E+10	1	-1E+10	1	-1E+10	1	-1E+10	1	-1E+10	1	-1E+10	1
4902551	52	C	01/17/2022	04:11	-133.104	49.478	0	463.00	0	4.2540	0	34.0500	0	27.008	0	458.539	0	31.9	4	10.1	4	-1E+10	1	-1E+10	1	-1E+10	1	-1E+10	1	-1E+10	1	-1E+10	1
4902551	52	C	01/17/2022	04:11	-133.104	49.478	0	468.00	0	4.2450	0	34.0540	0	27.012	0	463.486	0	31.4	4	10.0	4	-1E+10	1	-1E+10	1	-1E+10	1	-1E+10	1	-1E+10	1	-1E+10	1
4902551	52	C	01/17/2022	04:11	-133.104	49.478	0	473.10	0	4.2360	0	34.0570	0	27.015	0	468.531	0	31.1	4	9.9	4	-1E+10	1	-1E+10	1	-1E+10	1	-1E+10	1	-1E+10	1	-1E+10	1
4902551	52	C	01/17/2022	04:11	-133.104	49.478	0	478.10	0	4.2240	0	34.0620	0	27.020	0	473.477	0	30.7	4	9.7	4	-1E+10	1	-1E+10	1	-1E+10	1	-1E+10	1	-1E+10	1	-1E+10	1
4902551	52	C	01/17/2022	04:11	-133.104	49.478	0	482.90	0	4.2160	0	34.0650	0	27.024	0	478.225	0	30.6	4	9.7	4	-1E+10	1	-1E+10	1	-1E+10	1	-1E+10	1	-1E+10	1	-1E+10	1
4902551	52	C	01/17/2022	04:11	-133.104	49.478	0	487.60	0	4.1960	0	34.0700	0	27.030	0	482.874	0	30.3	4	9.6	4	-1E+10	1	-1E+10	1	-1E+10	1	-1E+10	1	-1E+10	1	-1E+10	1
4902551	52	C	01/17/2022	04:11	-133.104	49.478	0	492.80	0	4.1820	0	34.0740	0	27.035	0	488.017	0	29.8	4	9.4	4	-1E+10	1	-1E+10	1	-1E+10	1	-1E+10	1	-1E+10	1	-1E+10	1
4902551	52	C	01/17/2022	04:11	-133.104	49.478	0	498.00	0	4.1720	0	34.0780	0	27.039	0	493.161	0	29.4	4	9.3	4	-1E+10	1	-1E+10	1	-1E+10	1	-1E+10	1	-1E+10	1	-1E+10	1
4902551	52	C	01/17/2022	04:11	-133.104	49.478	0	502.80	0	4.1550	0	34.0830	0	27.045	0	497.908	0	29.3	4	9.3	4	-1E+10	1	-1E+10	1	-1E+10	1	-1E+10	1	-1E+10	1	-1E+10	1
4902551	52	C	01/17/2022	04:11	-133.104	49.478	0	507.70	0	4.1410	0	34.0870	0	27.049	0	502.755	0	29.1	4	9.2	4	-1E+10	1	-1E+10	1	-1E+10	1	-1E+10	1	-1E+10	1	-1E+10	1
4902551	52	C	01/17/2022	04:11	-133.104	49.478	0	513.00	0	4.1270	0	34.0900	0	27.053	0	507.997	0	28.9	4	9.1	4	-1E+10	1	-1E+10	1	-1E+10	1	-1E+10	1	-1E+10	1	-1E+10	1
4902551	52	C	01/17/2022	04:11	-133.104	49.478	0	517.90	0	4.1160	0	34.0940	0	27.057	0	512.843	0	28.7	4	9.1	4	-1E+10	1	-1E+10	1	-1E+10	1	-1E+10	1	-1E+10	1	-1E+10	1
4902551	52	C	01/17/2022	04:11	-133.104	49.478	0	522.80	0	4.1050	0	34.0960	0	27.060	0	517.689	0	28.8	4	9.1	4	-1E+10	1	-1E+10	1	-1E+10	1	-1E+10	1	-1E+10	1	-1E+10	1
4902551	52	C	01/17/2022	04:11	-133.104	49.478	0	528.10	0	4.0930	0	34.0980	0	27.063	0	522.930	0	28.8	4	9.1	4	-1E+10	1	-1E+10	1	-1E+10	1	-1E+10	1	-1E+10	1	-1E+10	1
4902551	52	C	01/17/2022	04:11	-133.104	49.478	0	532.90	0	4.0820	0	34.1010	0	27.067	0	527.677	0	28.7	4	9.1	4	-1E+10	1	-1E+10	1	-1E+10	1	-1E+10	1	-1E+10	1	-1E+10	1
4902551	52	C	01/17/2022	04:11	-133.104	49.478	0	537.80	0	4.0780	0	34.1020	0	27.068	0	532.523	0	28.4	4	9.0	4	-1E+10	1	-1E+10	1	-1E+10	1	-1E+10	1	-1E+10	1	-1E+10	1
4902551	52	C	01/17/2022	04:11	-133.104	49.478	0	543.10	0	4.0630	0	34.1050	0	27.072	0	537.764	0	27.8	4	8.8	4	-1E+10	1	-1E+10	1	-1E+10	1	-1E+10	1	-1E+10	1	-1E+10	1
4902551	52	C	01/17/2022	04:11	-133.104	49.478	0	548.10	0	4.0430	0	34.1120	0	27.079	0	542.708	0	27.3	4	8.6	4	-1E+10	1	-1E+10	1	-1E+10	1	-1E+10	1	-1E+10	1	-1E+10	1
4902551	52	C	01/17/2022	04:11	-133.104	49.478	0	553.10	0	4.0290	0	34.1170	0	27.085	0	547.653	0	27.0	4	8.5	4	-1E+10	1	-1E+10	1	-1E+10	1	-1E+10	1	-1E+10	1	-1E+10	1
4902551	52	C	01/17/2022	04:11	-133.104	49.478	0	558.20	0	4.0230	0	34.1180	0	27.086	0	552.696	0	26.7	4	8.4	4	-1E+10	1	-1E+10	1	-1E+10	1	-1E+10	1	-1E+10	1	-1E+10	1
4902551	52	C	01/17/2022	04:11	-133.104	49.478	0	562.80	0	4.0160	0	34.1200	0	27.089	0	557.244	0	26.3	4	8.3	4	-1E+10	1	-1E+10	1	-1E+10	1	-1E+10	1	-1E+10	1	-1E+10	1
4902551	52	C	01/17/2022	04:11	-133.104	49.478	0	567.90	0	4.0090	0	34.1230	0	27.092	0	562.287	0	25.8	4	8.2	4	-1E+10	1	-1E+10	1	-1E+10	1	-1E+10	1	-1E+10	1	-1E+10	1
4902551	52	C	01/17/2022	04:11	-133.104	49.478	0	573.10	0	3.9970	0	34.1280	0	27.097	0	567.428	0	25.4	4	8.0	4	-1E+10	1	-1E+10	1	-1E+10	1	-1E+10	1	-1E+10	1	-1E+10	1
4902551	52	C	01/17/2022	04:11	-133.104	49.478	0	577.90	0	3.9850	0	34.1310	0	27.101	0	572.174	0	25.2	4	7.9	4	-1E+10	1	-1E+10	1	-1E+10	1	-1E+10	1	-1E+10	1	-1E+10	1
4902551	52	C	01/17/2022	04:11	-133.104	49.478	0	582.60	0	3.9810	0	34.1320	0	27.102	0	576.821	0	24.9	4	7.8	4	-1E+10	1	-1E+10	1	-1E+10	1	-1E+10	1	-1E+10	1	-1E+10	1
4902551	52	C	01/17/2022	04:11	-133.104	49.478	0	587.50	0	3.9700	0	34.1350	0	27.106	0	581.666	0	24.4	4	7.7	4	-1E+10	1	-1E+10	1	-1E+10	1	-1E+10	1	-1E+10	1	-1E+10	1
4902551	52	C	01/17/2022	04:11	-133.104	49.478	0	592.90	0	3.9570	0	34.1390	0	27.110	0	587.005	0	23.4	4	7.4	4	-1E+10	1	-1E+10	1	-1E+10	1	-1E+10	1	-1E+10	1	-1E+10	1
4902551	52	C	01/17/2022	04:11	-133.104	49.478	0	598.20	0	3.9540	0	34.1450	0	27.115	0	592.244	0	22.5	4	7.1	4	-1E+10	1	-1E+10	1	-1E+10	1	-1E+10	1	-1E+10	1	-1E+10	1
4902551	52	C	01/17/2022	04:11	-133.104	49.478	0	603.10	0	3.9540	0	34.1470	0	27.117	0	597.089	0	22.3	4	7.0	4	-1E+10	1	-1E+10	1	-1E+10	1	-1E+10	1	-1E+10	1	-1E+10	1
4902551	52	C	01/17/2022	04:11	-133.104	49.478	0	608.10	0	3.9290	0	34.1530	0	27.124	0	602.031	0	22.2	4	7.0	4	-1E+10	1	-1E+10	1	-1E+10	1	-1E+10	1	-1E+10	1	-1E+10	1
4902551	52	C	01/17/2022	04:11	-133.104	49.478	0	613.10	0	3.9040	0	34.1590	0	27.131	0	606.974	0	22.1	4	7.0	4	-1E+10	1	-1E+10	1	-1E+10	1	-1E+10	1	-1E+10	1	-1E+10	1
4902551	52	C	01/17/2022	04:11	-133.104	49.478	0	618.10	0	3.8840	0	34.1630	0	27.137	0	611.917	0	21.9	4	6.9	4	-1E+10	1	-1E+10	1	-1E+10	1	-1E+10	1	-1E+10	1	-1E+10	1
4902551	52	C	01/17/2022	04:11	-133.104	49.478	0	623.20	0	3.8690	0	34.1660	0	27.141	0	616.958	0	21.6	4	6.8	4	-1E+10	1	-1E+10	1	-1E+10	1	-1E+10	1	-1E+10	1	-1E+10	1
4902551	52	C	01/17/2022	04:11	-133.104	49.478	0	628.10	0	3.8590	0	34.1700	0	27.145	0	621.802	0	21.1	4	6.6	4	-1E+10	1	-1E+10	1	-1E+10	1	-1E+10	1	-1E+10	1	-1E+10	1
4902551	52	C	01/17/2022	04:11	-133.104	49.478	0	633.20	0	3.8440	0	34.1750	0	27.150	0	626.843	0	20.7	4	6.5	4	-1E+10	1	-1E+10	1	-1E+10	1	-1E+10	1	-1E+10	1	-1E+10	1
4902551	52	C	01/17/2022	04:11	-133.104	49.478	0	638.20	0	3.8340	0	34.1810	0	27.156	0	631.785	0	20.5	4	6.4	4	-1E+10	1	-1E+10	1	-1E+10	1	-1E+10	1	-1E+10	1	-1E+10	1
4902551	52	C	01/17/2022	04:11	-133.104	49.478	0	643.30	0	3.8180	0	34.1830	0	27.159	0	636.826	0	20.5	4	6.4	4	-1E+10	1	-1E+10	1	-1E+10	1	-1E+10	1	-1E+10	1	-1E+10	1
4902551	52	C	01/17/2022	04:11	-133.104	49.478	0	648.40	0	3.7920	0	34.1870	0	27.165	0	641.867	0	20.4	4	6.4	4	-1E+10	1	-1E+10	1	-1E+10	1	-1E+10	1	-1E+10	1	-1E+10	1
4902551	52	C	01/17/2022	04:11	-133.104	49.478	0	653.40	0	3.7810	0	34.1900	0	27.169	0	646.809	0	20.1	4	6.3	4	-1E+10	1	-1E+10	1	-1E+10	1	-1E+10	1	-1E+10	1	-1E+10	1
4902551	52	C	01/17/2022	04:11	-133.104	49.478	0	658.40	0	3.7660	0	34.1940	0	27.173	0	651.751	0	19.9	4	6.2	4	-1E+10	1	-1E+10	1	-1E+10	1	-1E+10	1	-1E+10	1	-1E+10	1
4902551	52	C	01/17/2022	04:11	-133.104	49.478	0	663.40	0	3.7540	0	34.1970	0	27.177	0	656.693	0	19.7	4	6.2	4	-1E+10	1	-1E+10	1	-1E+10	1	-1E+10	1	-1E+10	1	-1E+10	1
4902551	52	C	01/17/2022	04:11	-133.104	49.478	0	668.30	0	3.7510	0	34.1980	0	27.178	0	661.535	0	19.6	4	6.1	4	-1E+10	1	-1E+10	1	-1E+10	1	-1E+10	1	-1E+10	1	-1E+10	1
4902551	52	C	01/17/2022	04:11	-133.104	49.478	0	673.30	0	3.7470	0	34.1990	0	27.179	0	666.477	0	19.3	4	6.1	4	-1E+10	1	-1E+10	1	-1E+10	1	-1E+10	1	-1E+10	1	-1E+10	1
4902551	52	C	01/17/2022	04:11	-133.104	49.478	0	678.30	0	3.7350	0	34.2030	0	27.184	0	671.418	0	19.0	4	6.0	4	-1E+10	1	-1E+10	1	-1E+10	1	-1E+10	1	-1E+10	1	-1E+10	1
4902551	52	C	01/17/2022	04:11	-133.104	49.478	0	682.90	0	3.7180	0	34.2080	0	27.189	0	675.964	0	18.8	4	5.9	4	-1E+10	1	-1E+10	1	-1E+10	1	-1E+10	1	-1E+10	1	-1E+10	1
4902551	52	C	01/17/2022	04:11	-133.104	49.478	0	687.50	0	3.7100	0	34.2100	0	27.192	0	680.509	0	18.6	4	5.8	4	-1E+10	1	-1E+10	1	-1E+10	1	-1E+10	1	-1E+10	1	-1E+10	1
4902551	52	C	01/17/2022	04:11	-133.104	49.478	0	692.70	0	3.6980	0	34.2140	0	27.196	0	685.648	0	18.4	4	5.8	4	-1E+10	1	-1E+10	1	-1E+10	1	-1E+10	1	-1E+10	1	-1E+10	1
4902551	52	C	01/17/2022	04:11	-133.104	49.478	0	697.80	0	3.6930	0	34.2150	0	27.198	0	690.688	0	18.1	4	5.7	4	-1E+10	1	-1E+10	1	-1E+10	1	-1E+10	1	-1E+10	1	-1E+10	1
4902551	52	C	01/17/2022	04:11	-133.104	49.478	0	703.00	0	3.6790	0	34.2190	0	27.202	0	695.826	0	17.8	4	5.6	4	-1E+10	1	-1E+10	1	-1E+10	1	-1E+10	1	-1E+10	1	-1E+10	1
4902551	52	C	01/17/2022	04:11	-133.104	49.478	0	708.30	0	3.6590	0	34.2250	0	27.209	0	701.063	0	17.4	4	5.5	4	-1E+10	1	-1E+10	1	-1E+10	1	-1E+10	1	-1E+10	1	-1E+10	1
4902551	52	C	01/17/2022	04:11	-133.104	49.478	0	713.00	0	3.6450	0	34.2300	0	27.214	0	705.707	0	17.3	4	5.4	4	-1E+10	1	-1E+10	1	-1E+10	1	-1E+10	1	-1E+10	1	-1E+10	1
4902551	52	C	01/17/2022	04:11	-133.104	49.478	0	717.60	0	3.6430	0	34.2300	0	27.215	0	710.252	0	17.2	4	5.4	4	-1E+10	1	-1E+10	1	-1E+10	1	-1E+10	1	-1E+10	1	-1E+10	1
4902551	52	C	01/17/2022	04:11	-133.104	49.478	0	723.10	0	3.6380	0	34.2310	0	27.216	0	715.686	0	17.0	4	5.3	4	-1E+10	1	-1E+10	1	-1E+10	1	-1E+10	1	-1E+10	1	-1E+10	1
4902551	52	C	01/17/2022	04:11	-133.104	49.478	0	728.00	0	3.6290	0	34.2350	0	27.220	0	720.528	0	16.8	4	5.3	4	-1E+10	1	-1E+10	1	-1E+10	1	-1E+10	1	-1E+10	1	-1E+10	1
4902551	52	C	01/17/2022	04:11	-133.104	49.478	0	732.80	0	3.6220	0	34.2380	0	27.223	0	725.270	0	16.6	4	5.2	4	-1E+10	1	-1E+10	1	-1E+10	1	-1E+10	1	-1E+10	1	-1E+10	1
4902551	52	C	01/17/2022	04:11	-133.104	49.478	0	737.60	0	3.6180	0	34.2390	0	27.224	0	730.012	0	16.5	4	5.2	4	-1E+10	1	-1E+10	1	-1E+10	1	-1E+10	1	-1E+10	1	-1E+10	1
4902551	52	C	01/17/2022	04:11	-133.104	49.478	0	742.90	0	3.6130	0	34.2400	0	27.226	0	735.249	0	16.4	4	5.1	4	-1E+10	1	-1E+10	1	-1E+10	1	-1E+10	1	-1E+10	1	-1E+10	1
4902551	52	C	01/17/2022	04:11	-133.104	49.478	0	748.00	0	3.5990	0	34.2440	0	27.230	0	740.287	0	16.2	4	5.1	4	-1E+10	1	-1E+10	1	-1E+10	1	-1E+10	1	-1E+10	1	-1E+10	1
4902551	52	C	01/17/2022	04:11	-133.104	49.478	0	752.90	0	3.5830	0	34.2470	0	27.234	0	745.128	0	16.1	4	5.0	4	-1E+10	1	-1E+10	1	-1E+10	1	-1E+10	1	-1E+10	1	-1E+10	1
4902551	52	C	01/17/2022	04:11	-133.104	49.478	0	757.80	0	3.5730	0	34.2500	0	27.238	0	749.968	0	15.9	4	5.0	4	-1E+10	1	-1E+10	1	-1E+10	1	-1E+10	1	-1E+10	1	-1E+10	1
4902551	52	C	01/17/2022	04:11	-133.104	49.478	0	762.90	0	3.5600	0	34.2520	0	27.241	0	755.006	0	15.7	4	4.9	4	-1E+10	1	-1E+10	1	-1E+10	1	-1E+10	1	-1E+10	1	-1E+10	1
4902551	52	C	01/17/2022	04:11	-133.104	49.478	0	768.10	0	3.5470	0	34.2560	0	27.245	0	760.143	0	15.5	4	4.8	4	-1E+10	1	-1E+10	1	-1E+10	1	-1E+10	1	-1E+10	1	-1E+10	1
4902551	52	C	01/17/2022	04:11	-133.104	49.478	0	773.10	0	3.5360	0	34.2610	0	27.250	0	765.082	0	15.3	4	4.8	4	-1E+10	1	-1E+10	1	-1E+10	1	-1E+10	1	-1E+10	1	-1E+10	1
4902551	52	C	01/17/2022	04:11	-133.104	49.478	0	777.80	0	3.5260	0	34.2630	0	27.253	0	769.725	0	15.2	4	4.7	4	-1E+10	1	-1E+10	1	-1E+10	1	-1E+10	1	-1E+10	1	-1E+10	1
4902551	52	C	01/17/2022	04:11	-133.104	49.478	0	783.00	0	3.5140	0	34.2660	0	27.256	0	774.861	0	15.1	4	4.7	4	-1E+10	1	-1E+10	1	-1E+10	1	-1E+10	1	-1E+10	1	-1E+10	1
4902551	52	C	01/17/2022	04:11	-133.104	49.478	0	788.40	0	3.5040	0	34.2680	0	27.259	0	780.195	0	14.8	4	4.6	4	-1E+10	1	-1E+10	1	-1E+10	1	-1E+10	1	-1E+10	1	-1E+10	1
4902551	52	C	01/17/2022	04:11	-133.104	49.478	0	793.40	0	3.4940	0	34.2720	0	27.263	0	785.134	0	14.7	4	4.6	4	-1E+10	1	-1E+10	1	-1E+10	1	-1E+10	1	-1E+10	1	-1E+10	1
4902551	52	C	01/17/2022	04:11	-133.104	49.478	0	797.90	0	3.4840	0	34.2750	0	27.266	0	789.578	0	14.6	4	4.6	4	-1E+10	1	-1E+10	1	-1E+10	1	-1E+10	1	-1E+10	1	-1E+10	1
4902551	52	C	01/17/2022	04:11	-133.104	49.478	0	802.60	0	3.4740	0	34.2770	0	27.269	0	794.220	0	14.6	4	4.6	4	-1E+10	1	-1E+10	1	-1E+10	1	-1E+10	1	-1E+10	1	-1E+10	1
4902551	52	C	01/17/2022	04:11	-133.104	49.478	0	808.10	0	3.4590	0	34.2800	0	27.273	0	799.652	0	14.6	4	4.6	4	-1E+10	1	-1E+10	1	-1E+10	1	-1E+10	1	-1E+10	1	-1E+10	1
4902551	52	C	01/17/2022	04:11	-133.104	49.478	0	813.10	0	3.4390	0	34.2810	0	27.276	0	804.590	0	14.6	4	4.5	4	-1E+10	1	-1E+10	1	-1E+10	1	-1E+10	1	-1E+10	1	-1E+10	1
4902551	52	C	01/17/2022	04:11	-133.104	49.478	0	817.90	0	3.4320	0	34.2830	0	27.278	0	809.331	0	14.5	4	4.5	4	-1E+10	1	-1E+10	1	-1E+10	1	-1E+10	1	-1E+10	1	-1E+10	1
4902551	52	C	01/17/2022	04:11	-133.104	49.478	0	822.80	0	3.4240	0	34.2850	0	27.280	0	814.170	0	14.4	4	4.5	4	-1E+10	1	-1E+10	1	-1E+10	1	-1E+10	1	-1E+10	1	-1E+10	1
4902551	52	C	01/17/2022	04:11	-133.104	49.478	0	827.80	0	3.4180	0	34.2870	0	27.282	0	819.108	0	14.3	4	4.5	4	-1E+10	1	-1E+10	1	-1E+10	1	-1E+10	1	-1E+10	1	-1E+10	1
4902551	52	C	01/17/2022	04:11	-133.104	49.478	0	833.00	0	3.4080	0	34.2890	0	27.285	0	824.243	0	14.2	4	4.4	4	-1E+10	1	-1E+10	1	-1E+10	1	-1E+10	1	-1E+10	1	-1E+10	1
4902551	52	C	01/17/2022	04:11	-133.104	49.478	0	837.80	0	3.3980	0	34.2920	0	27.288	0	828.983	0	14.1	4	4.4	4	-1E+10	1	-1E+10	1	-1E+10	1	-1E+10	1	-1E+10	1	-1E+10	1
4902551	52	C	01/17/2022	04:11	-133.104	49.478	0	842.70	0	3.3880	0	34.2940	0	27.291	0	833.822	0	14.0	4	4.4	4	-1E+10	1	-1E+10	1	-1E+10	1	-1E+10	1	-1E+10	1	-1E+10	1
4902551	52	C	01/17/2022	04:11	-133.104	49.478	0	848.00	0	3.3770	0	34.2970	0	27.294	0	839.055	0	14.0	4	4.3	4	-1E+10	1	-1E+10	1	-1E+10	1	-1E+10	1	-1E+10	1	-1E+10	1
4902551	52	C	01/17/2022	04:11	-133.104	49.478	0	853.00	0	3.3710	0	34.2980	0	27.296	0	843.992	0	13.9	4	4.3	4	-1E+10	1	-1E+10	1	-1E+10	1	-1E+10	1	-1E+10	1	-1E+10	1
4902551	52	C	01/17/2022	04:11	-133.104	49.478	0	858.00	0	3.3610	0	34.3010	0	27.299	0	848.929	0	13.8	4	4.3	4	-1E+10	1	-1E+10	1	-1E+10	1	-1E+10	1	-1E+10	1	-1E+10	1
4902551	52	C	01/17/2022	04:11	-133.104	49.478	0	863.10	0	3.3460	0	34.3040	0	27.303	0	853.965	0	13.7	4	4.3	4	-1E+10	1	-1E+10	1	-1E+10	1	-1E+10	1	-1E+10	1	-1E+10	1
4902551	52	C	01/17/2022	04:11	-133.104	49.478	0	867.70	0	3.3360	0	34.3060	0	27.306	0	858.507	0	13.7	4	4.3	4	-1E+10	1	-1E+10	1	-1E+10	1	-1E+10	1	-1E+10	1	-1E+10	1
4902551	52	C	01/17/2022	04:11	-133.104	49.478	0	872.90	0	3.3280	0	34.3080	0	27.308	0	863.641	0	13.6	4	4.2	4	-1E+10	1	-1E+10	1	-1E+10	1	-1E+10	1	-1E+10	1	-1E+10	1
4902551	52	C	01/17/2022	04:11	-133.104	49.478	0	877.90	0	3.3230	0	34.3100	0	27.310	0	868.578	0	13.6	4	4.2	4	-1E+10	1	-1E+10	1	-1E+10	1	-1E+10	1	-1E+10	1	-1E+10	1
4902551	52	C	01/17/2022	04:11	-133.104	49.478	0	882.90	0	3.3140	0	34.3120	0	27.313	0	873.514	0	13.5	4	4.2	4	-1E+10	1	-1E+10	1	-1E+10	1	-1E+10	1	-1E+10	1	-1E+10	1
4902551	52	C	01/17/2022	04:11	-133.104	49.478	0	887.90	0	3.3060	0	34.3140	0	27.315	0	878.450	0	13.4	4	4.2	4	-1E+10	1	-1E+10	1	-1E+10	1	-1E+10	1	-1E+10	1	-1E+10	1
4902551	52	C	01/17/2022	04:11	-133.104	49.478	0	892.70	0	3.2930	0	34.3170	0	27.319	0	883.189	0	13.4	4	4.2	4	-1E+10	1	-1E+10	1	-1E+10	1	-1E+10	1	-1E+10	1	-1E+10	1
4902551	52	C	01/17/2022	04:11	-133.104	49.478	0	898.10	0	3.2860	0	34.3180	0	27.320	0	888.520	0	13.3	4	4.1	4	-1E+10	1	-1E+10	1	-1E+10	1	-1E+10	1	-1E+10	1	-1E+10	1
4902551	52	C	01/17/2022	04:11	-133.104	49.478	0	902.90	0	3.2680	0	34.3220	0	27.325	0	893.259	0	13.3	4	4.1	4	-1E+10	1	-1E+10	1	-1E+10	1	-1E+10	1	-1E+10	1	-1E+10	1
4902551	52	C	01/17/2022	04:11	-133.104	49.478	0	907.70	0	3.2560	0	34.3240	0	27.328	0	897.997	0	13.3	4	4.1	4	-1E+10	1	-1E+10	1	-1E+10	1	-1E+10	1	-1E+10	1	-1E+10	1
4902551	52	C	01/17/2022	04:11	-133.104	49.478	0	912.90	0	3.2410	0	34.3260	0	27.331	0	903.130	0	13.2	4	4.1	4	-1E+10	1	-1E+10	1	-1E+10	1	-1E+10	1	-1E+10	1	-1E+10	1
4902551	52	C	01/17/2022	04:11	-133.104	49.478	0	918.10	0	3.2290	0	34.3290	0	27.334	0	908.263	0	13.2	4	4.1	4	-1E+10	1	-1E+10	1	-1E+10	1	-1E+10	1	-1E+10	1	-1E+10	1
4902551	52	C	01/17/2022	04:11	-133.104	49.478	0	922.90	0	3.2170	0	34.3310	0	27.337	0	913.002	0	13.1	4	4.1	4	-1E+10	1	-1E+10	1	-1E+10	1	-1E+10	1	-1E+10	1	-1E+10	1
4902551	52	C	01/17/2022	04:11	-133.104	49.478	0	927.70	0	3.2110	0	34.3330	0	27.339	0	917.740	0	13.1	4	4.1	4	-1E+10	1	-1E+10	1	-1E+10	1	-1E+10	1	-1E+10	1	-1E+10	1
4902551	52	C	01/17/2022	04:11	-133.104	49.478	0	932.90	0	3.2010	0	34.3350	0	27.342	0	922.872	0	13.1	4	4.0	4	-1E+10	1	-1E+10	1	-1E+10	1	-1E+10	1	-1E+10	1	-1E+10	1
4902551	52	C	01/17/2022	04:11	-133.104	49.478	0	938.10	0	3.1930	0	34.3380	0	27.345	0	928.005	0	13.0	4	4.0	4	-1E+10	1	-1E+10	1	-1E+10	1	-1E+10	1	-1E+10	1	-1E+10	1
4902551	52	C	01/17/2022	04:11	-133.104	49.478	0	943.00	0	3.1850	0	34.3400	0	27.347	0	932.841	0	13.0	4	4.0	4	-1E+10	1	-1E+10	1	-1E+10	1	-1E+10	1	-1E+10	1	-1E+10	1
4902551	52	C	01/17/2022	04:11	-133.104	49.478	0	947.80	0	3.1750	0	34.3420	0	27.350	0	937.579	0	13.0	4	4.0	4	-1E+10	1	-1E+10	1	-1E+10	1	-1E+10	1	-1E+10	1	-1E+10	1
4902551	52	C	01/17/2022	04:11	-133.104	49.478	0	953.00	0	3.1640	0	34.3430	0	27.352	0	942.711	0	13.0	4	4.0	4	-1E+10	1	-1E+10	1	-1E+10	1	-1E+10	1	-1E+10	1	-1E+10	1
4902551	52	C	01/17/2022	04:11	-133.104	49.478	0	958.10	0	3.1600	0	34.3440	0	27.353	0	947.744	0	13.0	4	4.0	4	-1E+10	1	-1E+10	1	-1E+10	1	-1E+10	1	-1E+10	1	-1E+10	1
4902551	52	C	01/17/2022	04:11	-133.104	49.478	0	963.20	0	3.1480	0	34.3460	0	27.356	0	952.778	0	12.9	4	4.0	4	-1E+10	1	-1E+10	1	-1E+10	1	-1E+10	1	-1E+10	1	-1E+10	1
4902551	52	C	01/17/2022	04:11	-133.104	49.478	0	967.90	0	3.1430	0	34.3480	0	27.358	0	957.416	0	13.0	4	4.0	4	-1E+10	1	-1E+10	1	-1E+10	1	-1E+10	1	-1E+10	1	-1E+10	1
4902551	52	C	01/17/2022	04:11	-133.104	49.478	0	972.70	0	3.1280	0	34.3520	0	27.362	0	962.153	0	13.0	4	4.0	4	-1E+10	1	-1E+10	1	-1E+10	1	-1E+10	1	-1E+10	1	-1E+10	1
4902551	52	C	01/17/2022	04:11	-133.104	49.478	0	977.90	0	3.1180	0	34.3540	0	27.365	0	967.285	0	13.0	4	4.0	4	-1E+10	1	-1E+10	1	-1E+10	1	-1E+10	1	-1E+10	1	-1E+10	1
4902551	52	C	01/17/2022	04:11	-133.104	49.478	0	982.80	0	3.1060	0	34.3560	0	27.368	0	972.120	0	12.9	4	4.0	4	-1E+10	1	-1E+10	1	-1E+10	1	-1E+10	1	-1E+10	1	-1E+10	1
4902551	52	C	01/17/2022	04:11	-133.104	49.478	0	987.70	0	3.0980	0	34.3580	0	27.370	0	976.955	0	12.9	4	4.0	4	-1E+10	1	-1E+10	1	-1E+10	1	-1E+10	1	-1E+10	1	-1E+10	1
4902551	52	C	01/17/2022	04:11	-133.104	49.478	0	992.70	0	3.0890	0	34.3600	0	27.372	0	981.889	0	12.8	4	4.0	4	-1E+10	1	-1E+10	1	-1E+10	1	-1E+10	1	-1E+10	1	-1E+10	1
4902551	52	C	01/17/2022	04:11	-133.104	49.478	0	997.70	0	3.0820	0	34.3610	0	27.374	0	986.823	0	12.8	4	4.0	4	-1E+10	1	-1E+10	1	-1E+10	1	-1E+10	1	-1E+10	1	-1E+10	1
4902551	52	C	01/17/2022	04:11	-133.104	49.478	0	1005.60	0	3.0730	0	34.3640	0	27.377	0	994.618	0	12.8	4	4.0	4	-1E+10	1	-1E+10	1	-1E+10	1	-1E+10	1	-1E+10	1	-1E+10	1
4902551	52	C	01/17/2022	04:11	-133.104	49.478	0	1015.40	0	3.0530	0	34.3680	0	27.382	0	1004.288	0	12.9	4	4.0	4	-1E+10	1	-1E+10	1	-1E+10	1	-1E+10	1	-1E+10	1	-1E+10	1
4902551	52	C	01/17/2022	04:11	-133.104	49.478	0	1025.30	0	3.0240	0	34.3730	0	27.389	0	1014.056	0	13.0	4	4.0	4	-1E+10	1	-1E+10	1	-1E+10	1	-1E+10	1	-1E+10	1	-1E+10	1
4902551	52	C	01/17/2022	04:11	-133.104	49.478	0	1035.40	0	3.0010	0	34.3780	0	27.395	0	1024.020	0	12.9	4	4.0	4	-1E+10	1	-1E+10	1	-1E+10	1	-1E+10	1	-1E+10	1	-1E+10	1
4902551	52	C	01/17/2022	04:11	-133.104	49.478	0	1045.30	0	2.9870	0	34.3810	0	27.399	0	1033.787	0	13.0	4	4.0	4	-1E+10	1	-1E+10	1	-1E+10	1	-1E+10	1	-1E+10	1	-1E+10	1
4902551	52	C	01/17/2022	04:11	-133.104	49.478	0	1055.60	0	2.9740	0	34.3840	0	27.402	0	1043.948	0	13.0	4	4.0	4	-1E+10	1	-1E+10	1	-1E+10	1	-1E+10	1	-1E+10	1	-1E+10	1
4902551	52	C	01/17/2022	04:11	-133.104	49.478	0	1065.10	0	2.9580	0	34.3870	0	27.406	0	1053.319	0	13.1	4	4.0	4	-1E+10	1	-1E+10	1	-1E+10	1	-1E+10	1	-1E+10	1	-1E+10	1
4902551	52	C	01/17/2022	04:11	-133.104	49.478	0	1075.50	0	2.9430	0	34.3890	0	27.409	0	1063.578	0	13.2	4	4.1	4	-1E+10	1	-1E+10	1	-1E+10	1	-1E+10	1	-1E+10	1	-1E+10	1
4902551	52	C	01/17/2022	04:11	-133.104	49.478	0	1085.30	0	2.9230	0	34.3930	0	27.414	0	1073.244	0	13.2	4	4.1	4	-1E+10	1	-1E+10	1	-1E+10	1	-1E+10	1	-1E+10	1	-1E+10	1
4902551	52	C	01/17/2022	04:11	-133.104	49.478	0	1095.30	0	2.9010	0	34.3970	0	27.419	0	1083.107	0	13.3	4	4.1	4	-1E+10	1	-1E+10	1	-1E+10	1	-1E+10	1	-1E+10	1	-1E+10	1
4902551	52	C	01/17/2022	04:11	-133.104	49.478	0	1105.40	0	2.8820	0	34.4010	0	27.424	0	1093.069	0	13.4	4	4.1	4	-1E+10	1	-1E+10	1	-1E+10	1	-1E+10	1	-1E+10	1	-1E+10	1
4902551	52	C	01/17/2022	04:11	-133.104	49.478	0	1115.20	0	2.8710	0	34.4030	0	27.427	0	1102.733	0	13.4	4	4.1	4	-1E+10	1	-1E+10	1	-1E+10	1	-1E+10	1	-1E+10	1	-1E+10	1
4902551	52	C	01/17/2022	04:11	-133.104	49.478	0	1125.30	0	2.8610	0	34.4050	0	27.429	0	1112.694	0	13.5	4	4.1	4	-1E+10	1	-1E+10	1	-1E+10	1	-1E+10	1	-1E+10	1	-1E+10	1
4902551	52	C	01/17/2022	04:11	-133.104	49.478	0	1135.50	0	2.8480	0	34.4080	0	27.433	0	1122.752	0	13.6	4	4.2	4	-1E+10	1	-1E+10	1	-1E+10	1	-1E+10	1	-1E+10	1	-1E+10	1
4902551	52	C	01/17/2022	04:11	-133.104	49.478	0	1145.50	0	2.8260	0	34.4110	0	27.437	0	1132.613	0	13.6	4	4.2	4	-1E+10	1	-1E+10	1	-1E+10	1	-1E+10	1	-1E+10	1	-1E+10	1
4902551	52	C	01/17/2022	04:11	-133.104	49.478	0	1155.30	0	2.8110	0	34.4160	0	27.443	0	1142.276	0	13.6	4	4.2	4	-1E+10	1	-1E+10	1	-1E+10	1	-1E+10	1	-1E+10	1	-1E+10	1
4902551	52	C	01/17/2022	04:11	-133.104	49.478	0	1165.20	0	2.7920	0	34.4200	0	27.448	0	1152.037	0	13.8	4	4.2	4	-1E+10	1	-1E+10	1	-1E+10	1	-1E+10	1	-1E+10	1	-1E+10	1
4902551	52	C	01/17/2022	04:11	-133.104	49.478	0	1175.10	0	2.7690	0	34.4230	0	27.452	0	1161.798	0	13.9	4	4.3	4	-1E+10	1	-1E+10	1	-1E+10	1	-1E+10	1	-1E+10	1	-1E+10	1
4902551	52	C	01/17/2022	04:11	-133.104	49.478	0	1185.30	0	2.7530	0	34.4270	0	27.457	0	1171.854	0	14.0	4	4.3	4	-1E+10	1	-1E+10	1	-1E+10	1	-1E+10	1	-1E+10	1	-1E+10	1
4902551	52	C	01/17/2022	04:11	-133.104	49.478	0	1195.60	0	2.7370	0	34.4300	0	27.461	0	1182.009	0	14.2	4	4.3	4	-1E+10	1	-1E+10	1	-1E+10	1	-1E+10	1	-1E+10	1	-1E+10	1
4902551	52	C	01/17/2022	04:11	-133.104	49.478	0	1205.40	0	2.7230	0	34.4330	0	27.464	0	1191.669	0	14.3	4	4.4	4	-1E+10	1	-1E+10	1	-1E+10	1	-1E+10	1	-1E+10	1	-1E+10	1
4902551	52	C	01/17/2022	04:11	-133.104	49.478	0	1215.20	0	2.7130	0	34.4350	0	27.467	0	1201.330	0	14.4	4	4.4	4	-1E+10	1	-1E+10	1	-1E+10	1	-1E+10	1	-1E+10	1	-1E+10	1
4902551	52	C	01/17/2022	04:11	-133.104	49.478	0	1225.10	0	2.7050	0	34.4370	0	27.469	0	1211.088	0	14.5	4	4.5	4	-1E+10	1	-1E+10	1	-1E+10	1	-1E+10	1	-1E+10	1	-1E+10	1
4902551	52	C	01/17/2022	04:11	-133.104	49.478	0	1235.10	0	2.6900	0	34.4390	0	27.472	0	1220.945	0	14.7	4	4.5	4	-1E+10	1	-1E+10	1	-1E+10	1	-1E+10	1	-1E+10	1	-1E+10	1
4902551	52	C	01/17/2022	04:11	-133.104	49.478	0	1245.10	0	2.6750	0	34.4420	0	27.476	0	1230.801	0	14.9	4	4.6	4	-1E+10	1	-1E+10	1	-1E+10	1	-1E+10	1	-1E+10	1	-1E+10	1
4902551	52	C	01/17/2022	04:11	-133.104	49.478	0	1255.10	0	2.6630	0	34.4440	0	27.479	0	1240.657	0	15.1	4	4.6	4	-1E+10	1	-1E+10	1	-1E+10	1	-1E+10	1	-1E+10	1	-1E+10	1
4902551	52	C	01/17/2022	04:11	-133.104	49.478	0	1265.30	0	2.6490	0	34.4470	0	27.482	0	1250.709	0	15.3	4	4.7	4	-1E+10	1	-1E+10	1	-1E+10	1	-1E+10	1	-1E+10	1	-1E+10	1
4902551	52	C	01/17/2022	04:11	-133.104	49.478	0	1275.50	0	2.6360	0	34.4500	0	27.486	0	1260.761	0	15.5	4	4.8	4	-1E+10	1	-1E+10	1	-1E+10	1	-1E+10	1	-1E+10	1	-1E+10	1
4902551	52	C	01/17/2022	04:11	-133.104	49.478	0	1285.30	0	2.6250	0	34.4520	0	27.488	0	1270.418	0	15.8	4	4.8	4	-1E+10	1	-1E+10	1	-1E+10	1	-1E+10	1	-1E+10	1	-1E+10	1
4902551	52	C	01/17/2022	04:11	-133.104	49.478	0	1295.50	0	2.6070	0	34.4550	0	27.492	0	1280.469	0	16.2	4	4.9	4	-1E+10	1	-1E+10	1	-1E+10	1	-1E+10	1	-1E+10	1	-1E+10	1
4902551	52	C	01/17/2022	04:11	-133.104	49.478	0	1305.60	0	2.5870	0	34.4590	0	27.497	0	1290.421	0	16.6	4	5.1	4	-1E+10	1	-1E+10	1	-1E+10	1	-1E+10	1	-1E+10	1	-1E+10	1
4902551	52	C	01/17/2022	04:11	-133.104	49.478	0	1315.60	0	2.5700	0	34.4620	0	27.501	0	1300.274	0	16.9	4	5.2	4	-1E+10	1	-1E+10	1	-1E+10	1	-1E+10	1	-1E+10	1	-1E+10	1
4902551	52	C	01/17/2022	04:11	-133.104	49.478	0	1325.70	0	2.5590	0	34.4640	0	27.504	0	1310.225	0	17.1	4	5.2	4	-1E+10	1	-1E+10	1	-1E+10	1	-1E+10	1	-1E+10	1	-1E+10	1
4902551	52	C	01/17/2022	04:11	-133.104	49.478	0	1335.60	0	2.5460	0	34.4670	0	27.507	0	1319.978	0	17.4	4	5.3	4	-1E+10	1	-1E+10	1	-1E+10	1	-1E+10	1	-1E+10	1	-1E+10	1
4902551	52	C	01/17/2022	04:11	-133.104	49.478	0	1345.30	0	2.5360	0	34.4690	0	27.510	0	1329.534	0	17.6	4	5.4	4	-1E+10	1	-1E+10	1	-1E+10	1	-1E+10	1	-1E+10	1	-1E+10	1
4902551	52	C	01/17/2022	04:11	-133.104	49.478	0	1355.30	0	2.5290	0	34.4700	0	27.511	0	1339.385	0	17.8	4	5.4	4	-1E+10	1	-1E+10	1	-1E+10	1	-1E+10	1	-1E+10	1	-1E+10	1
4902551	52	C	01/17/2022	04:11	-133.104	49.478	0	1365.20	0	2.5180	0	34.4710	0	27.513	0	1349.137	0	18.1	4	5.5	4	-1E+10	1	-1E+10	1	-1E+10	1	-1E+10	1	-1E+10	1	-1E+10	1
4902551	52	C	01/17/2022	04:11	-133.104	49.478	0	1375.20	0	2.5050	0	34.4740	0	27.517	0	1358.988	0	18.5	4	5.6	4	-1E+10	1	-1E+10	1	-1E+10	1	-1E+10	1	-1E+10	1	-1E+10	1
4902551	52	C	01/17/2022	04:11	-133.104	49.478	0	1385.40	0	2.4850	0	34.4760	0	27.520	0	1369.034	0	18.9	4	5.8	4	-1E+10	1	-1E+10	1	-1E+10	1	-1E+10	1	-1E+10	1	-1E+10	1
4902551	52	C	01/17/2022	04:11	-133.104	49.478	0	1395.30	0	2.4640	0	34.4790	0	27.524	0	1378.785	0	19.3	4	5.9	4	-1E+10	1	-1E+10	1	-1E+10	1	-1E+10	1	-1E+10	1	-1E+10	1
4902551	52	C	01/17/2022	04:11	-133.104	49.478	0	1405.40	0	2.4530	0	34.4810	0	27.527	0	1388.732	0	19.7	4	6.0	4	-1E+10	1	-1E+10	1	-1E+10	1	-1E+10	1	-1E+10	1	-1E+10	1
4902551	52	C	01/17/2022	04:11	-133.104	49.478	0	1415.50	0	2.4430	0	34.4830	0	27.529	0	1398.679	0	20.1	4	6.1	4	-1E+10	1	-1E+10	1	-1E+10	1	-1E+10	1	-1E+10	1	-1E+10	1
4902551	52	C	01/17/2022	04:11	-133.104	49.478	0	1425.40	0	2.4300	0	34.4860	0	27.533	0	1408.428	0	20.4	4	6.2	4	-1E+10	1	-1E+10	1	-1E+10	1	-1E+10	1	-1E+10	1	-1E+10	1
4902551	52	C	01/17/2022	04:11	-133.104	49.478	0	1435.50	0	2.4190	0	34.4880	0	27.535	0	1418.374	0	20.8	4	6.3	4	-1E+10	1	-1E+10	1	-1E+10	1	-1E+10	1	-1E+10	1	-1E+10	1
4902551	52	C	01/17/2022	04:11	-133.104	49.478	0	1445.70	0	2.4070	0	34.4890	0	27.537	0	1428.418	0	21.2	4	6.5	4	-1E+10	1	-1E+10	1	-1E+10	1	-1E+10	1	-1E+10	1	-1E+10	1
4902551	52	C	01/17/2022	04:11	-133.104	49.478	0	1456.10	0	2.3960	0	34.4920	0	27.541	0	1438.658	0	21.7	4	6.6	4	-1E+10	1	-1E+10	1	-1E+10	1	-1E+10	1	-1E+10	1	-1E+10	1
4902551	52	C	01/17/2022	04:11	-133.104	49.478	0	1465.40	0	2.3840	0	34.4930	0	27.542	0	1447.815	0	22.1	4	6.7	4	-1E+10	1	-1E+10	1	-1E+10	1	-1E+10	1	-1E+10	1	-1E+10	1
4902551	52	C	01/17/2022	04:11	-133.104	49.478	0	1475.20	0	2.3720	0	34.4960	0	27.546	0	1457.464	0	22.6	4	6.9	4	-1E+10	1	-1E+10	1	-1E+10	1	-1E+10	1	-1E+10	1	-1E+10	1
4902551	52	C	01/17/2022	04:11	-133.104	49.478	0	1485.10	0	2.3610	0	34.4980	0	27.548	0	1467.210	0	23.0	4	7.0	4	-1E+10	1	-1E+10	1	-1E+10	1	-1E+10	1	-1E+10	1	-1E+10	1
4902551	52	C	01/17/2022	04:11	-133.104	49.478	0	1495.20	0	2.3510	0	34.5000	0	27.551	0	1477.153	0	23.7	4	7.2	4	-1E+10	1	-1E+10	1	-1E+10	1	-1E+10	1	-1E+10	1	-1E+10	1
4902551	52	C	01/17/2022	04:11	-133.104	49.478	0	1505.50	0	2.3370	0	34.5030	0	27.555	0	1487.293	0	24.2	4	7.4	4	-1E+10	1	-1E+10	1	-1E+10	1	-1E+10	1	-1E+10	1	-1E+10	1
4902551	52	C	01/17/2022	04:11	-133.104	49.478	0	1515.40	0	2.3240	0	34.5050	0	27.557	0	1497.038	0	24.8	4	7.5	4	-1E+10	1	-1E+10	1	-1E+10	1	-1E+10	1	-1E+10	1	-1E+10	1
4902551	52	C	01/17/2022	04:11	-133.104	49.478	0	1525.20	0	2.3130	0	34.5080	0	27.561	0	1506.684	0	25.1	4	7.6	4	-1E+10	1	-1E+10	1	-1E+10	1	-1E+10	1	-1E+10	1	-1E+10	1
4902551	52	C	01/17/2022	04:11	-133.104	49.478	0	1535.20	0	2.3080	0	34.5090	0	27.562	0	1516.527	0	25.5	4	7.7	4	-1E+10	1	-1E+10	1	-1E+10	1	-1E+10	1	-1E+10	1	-1E+10	1
4902551	52	C	01/17/2022	04:11	-133.104	49.478	0	1545.40	0	2.3020	0	34.5100	0	27.563	0	1526.566	0	25.7	4	7.8	4	-1E+10	1	-1E+10	1	-1E+10	1	-1E+10	1	-1E+10	1	-1E+10	1
4902551	52	C	01/17/2022	04:11	-133.104	49.478	0	1555.30	0	2.2990	0	34.5110	0	27.564	0	1536.310	0	26.0	4	7.9	4	-1E+10	1	-1E+10	1	-1E+10	1	-1E+10	1	-1E+10	1	-1E+10	1
4902551	52	C	01/17/2022	04:11	-133.104	49.478	0	1565.30	0	2.2930	0	34.5120	0	27.566	0	1546.151	0	26.5	4	8.1	4	-1E+10	1	-1E+10	1	-1E+10	1	-1E+10	1	-1E+10	1	-1E+10	1
4902551	52	C	01/17/2022	04:11	-133.104	49.478	0	1575.40	0	2.2840	0	34.5130	0	27.567	0	1556.090	0	27.2	4	8.3	4	-1E+10	1	-1E+10	1	-1E+10	1	-1E+10	1	-1E+10	1	-1E+10	1
4902551	52	C	01/17/2022	04:11	-133.104	49.478	0	1585.30	0	2.2680	0	34.5170	0	27.572	0	1565.832	0	27.8	4	8.4	4	-1E+10	1	-1E+10	1	-1E+10	1	-1E+10	1	-1E+10	1	-1E+10	1
4902551	52	C	01/17/2022	04:11	-133.104	49.478	0	1595.40	0	2.2610	0	34.5180	0	27.573	0	1575.771	0	28.3	4	8.6	4	-1E+10	1	-1E+10	1	-1E+10	1	-1E+10	1	-1E+10	1	-1E+10	1
4902551	52	C	01/17/2022	04:11	-133.104	49.478	0	1605.10	0	2.2540	0	34.5200	0	27.575	0	1585.315	0	28.8	4	8.7	4	-1E+10	1	-1E+10	1	-1E+10	1	-1E+10	1	-1E+10	1	-1E+10	1
4902551	52	C	01/17/2022	04:11	-133.104	49.478	0	1615.40	0	2.2440	0	34.5220	0	27.578	0	1595.449	0	29.5	4	9.0	4	-1E+10	1	-1E+10	1	-1E+10	1	-1E+10	1	-1E+10	1	-1E+10	1
4902551	52	C	01/17/2022	04:11	-133.104	49.478	0	1625.80	0	2.2310	0	34.5240	0	27.581	0	1605.682	0	30.2	4	9.2	4	-1E+10	1	-1E+10	1	-1E+10	1	-1E+10	1	-1E+10	1	-1E+10	1
4902551	52	C	01/17/2022	04:11	-133.104	49.478	0	1635.70	0	2.2210	0	34.5260	0	27.583	0	1615.421	0	30.7	4	9.3	4	-1E+10	1	-1E+10	1	-1E+10	1	-1E+10	1	-1E+10	1	-1E+10	1
4902551	52	C	01/17/2022	04:11	-133.104	49.478	0	1645.60	0	2.2150	0	34.5280	0	27.585	0	1625.161	0	31.3	4	9.5	4	-1E+10	1	-1E+10	1	-1E+10	1	-1E+10	1	-1E+10	1	-1E+10	1
4902551	52	C	01/17/2022	04:11	-133.104	49.478	0	1655.50	0	2.2040	0	34.5300	0	27.588	0	1634.900	0	31.8	4	9.6	4	-1E+10	1	-1E+10	1	-1E+10	1	-1E+10	1	-1E+10	1	-1E+10	1
4902551	52	C	01/17/2022	04:11	-133.104	49.478	0	1665.40	0	2.1980	0	34.5310	0	27.589	0	1644.638	0	32.3	4	9.8	4	-1E+10	1	-1E+10	1	-1E+10	1	-1E+10	1	-1E+10	1	-1E+10	1
4902551	52	C	01/17/2022	04:11	-133.104	49.478	0	1675.30	0	2.1920	0	34.5320	0	27.590	0	1654.376	0	32.8	4	9.9	4	-1E+10	1	-1E+10	1	-1E+10	1	-1E+10	1	-1E+10	1	-1E+10	1
4902551	52	C	01/17/2022	04:11	-133.104	49.478	0	1685.50	0	2.1840	0	34.5340	0	27.593	0	1664.409	0	33.4	4	10.1	4	-1E+10	1	-1E+10	1	-1E+10	1	-1E+10	1	-1E+10	1	-1E+10	1
4902551	52	C	01/17/2022	04:11	-133.104	49.478	0	1695.40	0	2.1750	0	34.5350	0	27.594	0	1674.146	0	34.0	4	10.3	4	-1E+10	1	-1E+10	1	-1E+10	1	-1E+10	1	-1E+10	1	-1E+10	1
4902551	52	C	01/17/2022	04:11	-133.104	49.478	0	1705.10	0	2.1660	0	34.5370	0	27.597	0	1683.685	0	34.6	4	10.5	4	-1E+10	1	-1E+10	1	-1E+10	1	-1E+10	1	-1E+10	1	-1E+10	1
4902551	52	C	01/17/2022	04:11	-133.104	49.478	0	1715.50	0	2.1560	0	34.5390	0	27.599	0	1693.913	0	35.1	4	10.6	4	-1E+10	1	-1E+10	1	-1E+10	1	-1E+10	1	-1E+10	1	-1E+10	1
4902551	52	C	01/17/2022	04:11	-133.104	49.478	0	1725.70	0	2.1510	0	34.5400	0	27.600	0	1703.944	0	35.6	4	10.8	4	-1E+10	1	-1E+10	1	-1E+10	1	-1E+10	1	-1E+10	1	-1E+10	1
4902551	52	C	01/17/2022	04:11	-133.104	49.478	0	1735.30	0	2.1420	0	34.5420	0	27.603	0	1713.384	0	36.2	4	10.9	4	-1E+10	1	-1E+10	1	-1E+10	1	-1E+10	1	-1E+10	1	-1E+10	1
4902551	52	C	01/17/2022	04:11	-133.104	49.478	0	1745.50	0	2.1360	0	34.5430	0	27.604	0	1723.414	0	36.7	4	11.1	4	-1E+10	1	-1E+10	1	-1E+10	1	-1E+10	1	-1E+10	1	-1E+10	1
4902551	52	C	01/17/2022	04:11	-133.104	49.478	0	1755.40	0	2.1320	0	34.5440	0	27.605	0	1733.148	0	37.1	4	11.2	4	-1E+10	1	-1E+10	1	-1E+10	1	-1E+10	1	-1E+10	1	-1E+10	1
4902551	52	C	01/17/2022	04:11	-133.104	49.478	0	1765.30	0	2.1250	0	34.5460	0	27.607	0	1742.882	0	37.7	4	11.4	4	-1E+10	1	-1E+10	1	-1E+10	1	-1E+10	1	-1E+10	1	-1E+10	1
4902551	52	C	01/17/2022	04:11	-133.104	49.478	0	1775.20	0	2.1150	0	34.5470	0	27.609	0	1752.616	0	38.4	4	11.6	4	-1E+10	1	-1E+10	1	-1E+10	1	-1E+10	1	-1E+10	1	-1E+10	1
4902551	52	C	01/17/2022	04:11	-133.104	49.478	0	1785.30	0	2.1020	0	34.5500	0	27.613	0	1762.545	0	39.3	4	11.9	4	-1E+10	1	-1E+10	1	-1E+10	1	-1E+10	1	-1E+10	1	-1E+10	1
4902551	52	C	01/17/2022	04:11	-133.104	49.478	0	1795.20	0	2.0940	0	34.5510	0	27.614	0	1772.278	0	39.9	4	12.0	4	-1E+10	1	-1E+10	1	-1E+10	1	-1E+10	1	-1E+10	1	-1E+10	1
4902551	52	C	01/17/2022	04:11	-133.104	49.478	0	1805.20	0	2.0860	0	34.5530	0	27.616	0	1782.108	0	40.5	4	12.2	4	-1E+10	1	-1E+10	1	-1E+10	1	-1E+10	1	-1E+10	1	-1E+10	1
4902551	52	C	01/17/2022	04:11	-133.104	49.478	0	1815.20	0	2.0790	0	34.5550	0	27.619	0	1791.938	0	41.2	4	12.4	4	-1E+10	1	-1E+10	1	-1E+10	1	-1E+10	1	-1E+10	1	-1E+10	1
4902551	52	C	01/17/2022	04:11	-133.104	49.478	0	1825.30	0	2.0710	0	34.5560	0	27.620	0	1801.866	0	41.9	4	12.7	4	-1E+10	1	-1E+10	1	-1E+10	1	-1E+10	1	-1E+10	1	-1E+10	1
4902551	52	C	01/17/2022	04:11	-133.104	49.478	0	1835.70	0	2.0620	0	34.5580	0	27.622	0	1812.088	0	42.7	4	12.9	4	-1E+10	1	-1E+10	1	-1E+10	1	-1E+10	1	-1E+10	1	-1E+10	1
4902551	52	C	01/17/2022	04:11	-133.104	49.478	0	1845.70	0	2.0530	0	34.5600	0	27.625	0	1821.917	0	43.4	4	13.1	4	-1E+10	1	-1E+10	1	-1E+10	1	-1E+10	1	-1E+10	1	-1E+10	1
4902551	52	C	01/17/2022	04:11	-133.104	49.478	0	1855.80	0	2.0460	0	34.5610	0	27.626	0	1831.843	0	44.1	4	13.3	4	-1E+10	1	-1E+10	1	-1E+10	1	-1E+10	1	-1E+10	1	-1E+10	1
4902551	52	C	01/17/2022	04:11	-133.104	49.478	0	1865.50	0	2.0380	0	34.5630	0	27.628	0	1841.376	0	44.7	4	13.5	4	-1E+10	1	-1E+10	1	-1E+10	1	-1E+10	1	-1E+10	1	-1E+10	1
4902551	52	C	01/17/2022	04:11	-133.104	49.478	0	1875.30	0	2.0290	0	34.5640	0	27.630	0	1851.007	0	45.4	4	13.7	4	-1E+10	1	-1E+10	1	-1E+10	1	-1E+10	1	-1E+10	1	-1E+10	1
4902551	52	C	01/17/2022	04:11	-133.104	49.478	0	1885.60	0	2.0220	0	34.5660	0	27.632	0	1861.128	0	46.1	4	13.9	4	-1E+10	1	-1E+10	1	-1E+10	1	-1E+10	1	-1E+10	1	-1E+10	1
4902551	52	C	01/17/2022	04:11	-133.104	49.478	0	1895.60	0	2.0120	0	34.5680	0	27.635	0	1870.954	0	46.9	4	14.1	4	-1E+10	1	-1E+10	1	-1E+10	1	-1E+10	1	-1E+10	1	-1E+10	1
4902551	52	C	01/17/2022	04:11	-133.104	49.478	0	1905.50	0	2.0040	0	34.5690	0	27.636	0	1880.682	0	47.6	4	14.3	4	-1E+10	1	-1E+10	1	-1E+10	1	-1E+10	1	-1E+10	1	-1E+10	1
4902551	52	C	01/17/2022	04:11	-133.104	49.478	0	1915.60	0	1.9960	0	34.5710	0	27.638	0	1890.605	0	48.4	4	14.6	4	-1E+10	1	-1E+10	1	-1E+10	1	-1E+10	1	-1E+10	1	-1E+10	1
4902551	52	C	01/17/2022	04:11	-133.104	49.478	0	1925.40	0	1.9870	0	34.5730	0	27.641	0	1900.234	0	49.1	4	14.8	4	-1E+10	1	-1E+10	1	-1E+10	1	-1E+10	1	-1E+10	1	-1E+10	1
4902551	52	C	01/17/2022	04:11	-133.104	49.478	0	1935.20	0	1.9790	0	34.5740	0	27.642	0	1909.862	0	49.8	4	15.0	4	-1E+10	1	-1E+10	1	-1E+10	1	-1E+10	1	-1E+10	1	-1E+10	1
4902551	52	C	01/17/2022	04:11	-133.104	49.478	0	1945.40	0	1.9730	0	34.5750	0	27.644	0	1919.882	0	50.3	4	15.2	4	-1E+10	1	-1E+10	1	-1E+10	1	-1E+10	1	-1E+10	1	-1E+10	1
4902551	52	C	01/17/2022	04:11	-133.104	49.478	0	1955.20	0	1.9670	0	34.5770	0	27.646	0	1929.509	0	51.0	4	15.4	4	-1E+10	1	-1E+10	1	-1E+10	1	-1E+10	1	-1E+10	1	-1E+10	1
4902551	52	C	01/17/2022	04:11	-133.104	49.478	0	1965.30	0	1.9590	0	34.5780	0	27.647	0	1939.431	0	51.6	4	15.5	4	-1E+10	1	-1E+10	1	-1E+10	1	-1E+10	1	-1E+10	1	-1E+10	1
4902551	52	C	01/17/2022	04:11	-133.104	49.478	0	1975.70	0	1.9520	0	34.5800	0	27.649	0	1949.646	0	52.2	4	15.7	4	-1E+10	1	-1E+10	1	-1E+10	1	-1E+10	1	-1E+10	1	-1E+10	1
4902551	52	C	01/17/2022	04:11	-133.104	49.478	0	1985.50	0	1.9480	0	34.5810	0	27.651	0	1959.272	0	52.6	4	15.9	4	-1E+10	1	-1E+10	1	-1E+10	1	-1E+10	1	-1E+10	1	-1E+10	1
4902551	52	C	01/17/2022	04:11	-133.104	49.478	0	1995.50	0	1.9430	0	34.5820	0	27.652	0	1969.094	0	53.1	4	16.0	4	-1E+10	1	-1E+10	1	-1E+10	1	-1E+10	1	-1E+10	1	-1E+10	1
4902551	52	C	01/17/2022	04:11	-133.104	49.478	0	2005.60	0	1.9380	0	34.5830	0	27.653	0	1979.013	0	53.6	4	16.1	4	-1E+10	1	-1E+10	1	-1E+10	1	-1E+10	1	-1E+10	1	-1E+10	1
4902551	52	C	01/17/2022	04:11	-133.104	49.478	0	2015.30	0	1.9300	0	34.5840	0	27.654	0	1988.540	0	54.0	4	16.3	4	-1E+10	1	-1E+10	1	-1E+10	1	-1E+10	1	-1E+10	1	-1E+10	1
4902551	52	C	01/17/2022	04:11	-133.104	49.478	0	2024.20	0	1.9270	0	34.5850	0	27.656	0	1997.280	0	54.1	4	16.3	4	-1E+10	1	-1E+10	1	-1E+10	1	-1E+10	1	-1E+10	1	-1E+10	1
4902551	52	C	01/17/2022	04:11	-133.104	49.478	0																										
4902551	53	C	01/27/2022	09:05	-132.966	49.494	0	0.50	0	7.0570	0	32.3290	0	25.308	0	0.496	0	289.1	4	96.7	4	-1E+10	1	-1E+10	1	-1E+10	1	-1E+10	1	-1E+10	1	-1E+10	1
4902551	53	C	01/27/2022	09:05	-132.966	49.494	0	0.60	0	7.0630	0	32.3260	0	25.305	0	0.595	0	289.1	4	96.7	4	-1E+10	1	-1E+10	1	-1E+10	1	-1E+10	1	-1E+10	1	-1E+10	1
4902551	53	C	01/27/2022	09:05	-132.966	49.494	0	1.30	0	7.0630	0	32.3260	0	25.305	0	1.289	0	289.0	4	96.7	4	-1E+10	1	-1E+10	1	-1E+10	1	-1E+10	1	-1E+10	1	-1E+10	1
4902551	53	C	01/27/2022	09:05	-132.966	49.494	0	1.80	0	7.0630	0	32.3260	0	25.305	0	1.785	0	288.9	4	96.7	4	-1E+10	1	-1E+10	1	-1E+10	1	-1E+10	1	-1E+10	1	-1E+10	1
4902551	53	C	01/27/2022	09:05	-132.966	49.494	0	2.30	0	7.0640	0	32.3260	0	25.305	0	2.280	0	-1e10	1	-1e10	1	-1E+10	1	-1E+10	1	-1E+10	1	-1E+10	1	-1E+10	1	-1E+10	1
4902551	53	C	01/27/2022	09:05	-132.966	49.494	0	3.10	0	7.0640	0	32.3250	0	25.304	0	3.074	0	281.8	4	94.3	4	-1E+10	1	-1E+10	1	-1E+10	1	-1E+10	1	-1E+10	1	-1E+10	1
4902551	53	C	01/27/2022	09:05	-132.966	49.494	0	4.00	0	7.0640	0	32.3260	0	25.305	0	3.966	0	281.7	4	94.3	4	-1E+10	1	-1E+10	1	-1E+10	1	-1E+10	1	-1E+10	1	-1E+10	1
4902551	53	C	01/27/2022	09:05	-132.966	49.494	0	5.10	0	7.0640	0	32.3270	0	25.305	0	5.056	0	281.7	4	94.3	4	-1E+10	1	-1E+10	1	-1E+10	1	-1E+10	1	-1E+10	1	-1E+10	1
4902551	53	C	01/27/2022	09:05	-132.966	49.494	0	6.10	0	7.0650	0	32.3270	0	25.305	0	6.048	0	281.7	4	94.3	4	-1E+10	1	-1E+10	1	-1E+10	1	-1E+10	1	-1E+10	1	-1E+10	1
4902551	53	C	01/27/2022	09:05	-132.966	49.494	0	7.00	0	7.0650	0	32.3270	0	25.305	0	6.940	0	281.6	4	94.3	4	-1E+10	1	-1E+10	1	-1E+10	1	-1E+10	1	-1E+10	1	-1E+10	1
4902551	53	C	01/27/2022	09:05	-132.966	49.494	0	8.00	0	7.0650	0	32.3270	0	25.305	0	7.932	0	281.6	4	94.2	4	-1E+10	1	-1E+10	1	-1E+10	1	-1E+10	1	-1E+10	1	-1E+10	1
4902551	53	C	01/27/2022	09:05	-132.966	49.494	0	9.00	0	7.0650	0	32.3270	0	25.305	0	8.923	0	281.6	4	94.2	4	-1E+10	1	-1E+10	1	-1E+10	1	-1E+10	1	-1E+10	1	-1E+10	1
4902551	53	C	01/27/2022	09:05	-132.966	49.494	0	10.00	0	7.0680	0	32.3270	0	25.305	0	9.914	0	281.5	4	94.2	4	-1E+10	1	-1E+10	1	-1E+10	1	-1E+10	1	-1E+10	1	-1E+10	1
4902551	53	C	01/27/2022	09:05	-132.966	49.494	0	11.00	0	7.0670	0	32.3270	0	25.305	0	10.906	0	281.5	4	94.2	4	-1E+10	1	-1E+10	1	-1E+10	1	-1E+10	1	-1E+10	1	-1E+10	1
4902551	53	C	01/27/2022	09:05	-132.966	49.494	0	11.90	0	7.0670	0	32.3270	0	25.305	0	11.798	0	281.5	4	94.2	4	-1E+10	1	-1E+10	1	-1E+10	1	-1E+10	1	-1E+10	1	-1E+10	1
4902551	53	C	01/27/2022	09:05	-132.966	49.494	0	13.10	0	7.0660	0	32.3270	0	25.305	0	12.988	0	281.4	4	94.2	4	-1E+10	1	-1E+10	1	-1E+10	1	-1E+10	1	-1E+10	1	-1E+10	1
4902551	53	C	01/27/2022	09:05	-132.966	49.494	0	13.80	0	7.0660	0	32.3270	0	25.305	0	13.682	0	281.3	4	94.2	4	-1E+10	1	-1E+10	1	-1E+10	1	-1E+10	1	-1E+10	1	-1E+10	1
4902551	53	C	01/27/2022	09:05	-132.966	49.494	0	14.80	0	7.0660	0	32.3270	0	25.305	0	14.673	0	281.4	4	94.2	4	-1E+10	1	-1E+10	1	-1E+10	1	-1E+10	1	-1E+10	1	-1E+10	1
4902551	53	C	01/27/2022	09:05	-132.966	49.494	0	15.80	0	7.0650	0	32.3270	0	25.305	0	15.665	0	281.4	4	94.2	4	-1E+10	1	-1E+10	1	-1E+10	1	-1E+10	1	-1E+10	1	-1E+10	1
4902551	53	C	01/27/2022	09:05	-132.966	49.494	0	16.90	0	7.0610	0	32.3270	0	25.306	0	16.755	0	281.3	4	94.1	4	-1E+10	1	-1E+10	1	-1E+10	1	-1E+10	1	-1E+10	1	-1E+10	1
4902551	53	C	01/27/2022	09:05	-132.966	49.494	0	17.90	0	7.0500	0	32.3270	0	25.307	0	17.747	0	281.4	4	94.1	4	-1E+10	1	-1E+10	1	-1E+10	1	-1E+10	1	-1E+10	1	-1E+10	1
4902551	53	C	01/27/2022	09:05	-132.966	49.494	0	18.80	0	7.0520	0	32.3230	0	25.304	0	18.639	0	281.4	4	94.1	4	-1E+10	1	-1E+10	1	-1E+10	1	-1E+10	1	-1E+10	1	-1E+10	1
4902551	53	C	01/27/2022	09:05	-132.966	49.494	0	19.90	0	7.0570	0	32.3240	0	25.304	0	19.729	0	281.4	4	94.1	4	-1E+10	1	-1E+10	1	-1E+10	1	-1E+10	1	-1E+10	1	-1E+10	1
4902551	53	C	01/27/2022	09:05	-132.966	49.494	0	20.90	0	7.0570	0	32.3270	0	25.307	0	20.721	0	281.4	4	94.1	4	-1E+10	1	-1E+10	1	-1E+10	1	-1E+10	1	-1E+10	1	-1E+10	1
4902551	53	C	01/27/2022	09:05	-132.966	49.494	0	21.80	0	7.0510	0	32.3240	0	25.305	0	21.613	0	281.3	4	94.1	4	-1E+10	1	-1E+10	1	-1E+10	1	-1E+10	1	-1E+10	1	-1E+10	1
4902551	53	C	01/27/2022	09:05	-132.966	49.494	0	22.90	0	7.0460	0	32.3260	0	25.307	0	22.703	0	281.3	4	94.1	4	-1E+10	1	-1E+10	1	-1E+10	1	-1E+10	1	-1E+10	1	-1E+10	1
4902551	53	C	01/27/2022	09:05	-132.966	49.494	0	24.20	0	7.0370	0	32.3270	0	25.309	0	23.992	0	281.3	4	94.1	4	-1E+10	1	-1E+10	1	-1E+10	1	-1E+10	1	-1E+10	1	-1E+10	1
4902551	53	C	01/27/2022	09:05	-132.966	49.494	0	24.80	0	7.0340	0	32.3260	0	25.309	0	24.587	0	281.3	4	94.1	4	-1E+10	1	-1E+10	1	-1E+10	1	-1E+10	1	-1E+10	1	-1E+10	1
4902551	53	C	01/27/2022	09:05	-132.966	49.494	0	26.10	0	7.0150	0	32.3260	0	25.311	0	25.876	0	281.3	4	94.0	4	-1E+10	1	-1E+10	1	-1E+10	1	-1E+10	1	-1E+10	1	-1E+10	1
4902551	53	C	01/27/2022	09:05	-132.966	49.494	0	27.30	0	7.0130	0	32.3260	0	25.312	0	27.065	0	281.2	4	94.0	4	-1E+10	1	-1E+10	1	-1E+10	1	-1E+10	1	-1E+10	1	-1E+10	1
4902551	53	C	01/27/2022	09:05	-132.966	49.494	0	28.00	0	7.0100	0	32.3270	0	25.313	0	27.759	0	281.1	4	94.0	4	-1E+10	1	-1E+10	1	-1E+10	1	-1E+10	1	-1E+10	1	-1E+10	1
4902551	53	C	01/27/2022	09:05	-132.966	49.494	0	29.00	0	6.9930	0	32.3260	0	25.314	0	28.751	0	281.2	4	93.9	4	-1E+10	1	-1E+10	1	-1E+10	1	-1E+10	1	-1E+10	1	-1E+10	1
4902551	53	C	01/27/2022	09:05	-132.966	49.494	0	29.90	0	6.9920	0	32.3250	0	25.314	0	29.643	0	281.1	4	93.9	4	-1E+10	1	-1E+10	1	-1E+10	1	-1E+10	1	-1E+10	1	-1E+10	1
4902551	53	C	01/27/2022	09:05	-132.966	49.494	0	30.90	0	6.9830	0	32.3260	0	25.316	0	30.634	0	281.1	4	93.9	4	-1E+10	1	-1E+10	1	-1E+10	1	-1E+10	1	-1E+10	1	-1E+10	1
4902551	53	C	01/27/2022	09:05	-132.966	49.494	0	31.90	0	6.9770	0	32.3260	0	25.317	0	31.626	0	281.0	4	93.9	4	-1E+10	1	-1E+10	1	-1E+10	1	-1E+10	1	-1E+10	1	-1E+10	1
4902551	53	C	01/27/2022	09:05	-132.966	49.494	0	33.00	0	6.9600	0	32.3260	0	25.319	0	32.716	0	281.0	4	93.8	4	-1E+10	1	-1E+10	1	-1E+10	1	-1E+10	1	-1E+10	1	-1E+10	1
4902551	53	C	01/27/2022	09:05	-132.966	49.494	0	34.00	0	6.9580	0	32.3260	0	25.319	0	33.707	0	280.9	4	93.8	4	-1E+10	1	-1E+10	1	-1E+10	1	-1E+10	1	-1E+10	1	-1E+10	1
4902551	53	C	01/27/2022	09:05	-132.966	49.494	0	35.00	0	6.9560	0	32.3260	0	25.319	0	34.699	0	281.0	4	93.8	4	-1E+10	1	-1E+10	1	-1E+10	1	-1E+10	1	-1E+10	1	-1E+10	1
4902551	53	C	01/27/2022	09:05	-132.966	49.494	0	36.10	0	6.9550	0	32.3250	0	25.319	0	35.789	0	280.9	4	93.8	4	-1E+10	1	-1E+10	1	-1E+10	1	-1E+10	1	-1E+10	1	-1E+10	1
4902551	53	C	01/27/2022	09:05	-132.966	49.494	0	36.90	0	6.9550	0	32.3250	0	25.319	0	36.582	0	281.0	4	93.8	4	-1E+10	1	-1E+10	1	-1E+10	1	-1E+10	1	-1E+10	1	-1E+10	1
4902551	53	C	01/27/2022	09:05	-132.966	49.494	0	37.70	0	6.9540	0	32.3250	0	25.319	0	37.375	0	280.9	4	93.8	4	-1E+10	1	-1E+10	1	-1E+10	1	-1E+10	1	-1E+10	1	-1E+10	1
4902551	53	C	01/27/2022	09:05	-132.966	49.494	0	38.70	0	6.9550	0	32.3250	0	25.319	0	38.366	0	280.9	4	93.8	4	-1E+10	1	-1E+10	1	-1E+10	1	-1E+10	1	-1E+10	1	-1E+10	1
4902551	53	C	01/27/2022	09:05	-132.966	49.494	0	39.70	0	6.9540	0	32.3260	0	25.320	0	39.358	0	280.8	4	93.7	4	-1E+10	1	-1E+10	1	-1E+10	1	-1E+10	1	-1E+10	1	-1E+10	1
4902551	53	C	01/27/2022	09:05	-132.966	49.494	0	40.80	0	6.9540	0	32.3260	0	25.320	0	40.448	0	280.8	4	93.7	4	-1E+10	1	-1E+10	1	-1E+10	1	-1E+10	1	-1E+10	1	-1E+10	1
4902551	53	C	01/27/2022	09:05	-132.966	49.494	0	41.80	0	6.9540	0	32.3250	0	25.319	0	41.439	0	280.8	4	93.7	4	-1E+10	1	-1E+10	1	-1E+10	1	-1E+10	1	-1E+10	1	-1E+10	1
4902551	53	C	01/27/2022	09:05	-132.966	49.494	0	42.80	0	6.9520	0	32.3250	0	25.319	0	42.431	0	280.8	4	93.7	4	-1E+10	1	-1E+10	1	-1E+10	1	-1E+10	1	-1E+10	1	-1E+10	1
4902551	53	C	01/27/2022	09:05	-132.966	49.494	0	43.90	0	6.9520	0	32.3260	0	25.320	0	43.521	0	280.6	4	93.7	4	-1E+10	1	-1E+10	1	-1E+10	1	-1E+10	1	-1E+10	1	-1E+10	1
4902551	53	C	01/27/2022	09:05	-132.966	49.494	0	45.00	0	6.9520	0	32.3250	0	25.319	0	44.611	0	280.6	4	93.7	4	-1E+10	1	-1E+10	1	-1E+10	1	-1E+10	1	-1E+10	1	-1E+10	1
4902551	53	C	01/27/2022	09:05	-132.966	49.494	0	46.00	0	6.9500	0	32.3260	0	25.320	0	45.603	0	280.6	4	93.7	4	-1E+10	1	-1E+10	1	-1E+10	1	-1E+10	1	-1E+10	1	-1E+10	1
4902551	53	C	01/27/2022	09:05	-132.966	49.494	0	47.10	0	6.9490	0	32.3250	0	25.320	0	46.693	0	280.5	4	93.6	4	-1E+10	1	-1E+10	1	-1E+10	1	-1E+10	1	-1E+10	1	-1E+10	1
4902551	53	C	01/27/2022	09:05	-132.966	49.494	0	47.90	0	6.9490	0	32.3260	0	25.320	0	47.486	0	280.5	4	93.6	4	-1E+10	1	-1E+10	1	-1E+10	1	-1E+10	1	-1E+10	1	-1E+10	1
4902551	53	C	01/27/2022	09:05	-132.966	49.494	0	48.70	0	6.9490	0	32.3250	0	25.320	0	48.279	0	280.4	4	93.6	4	-1E+10	1	-1E+10	1	-1E+10	1	-1E+10	1	-1E+10	1	-1E+10	1
4902551	53	C	01/27/2022	09:05	-132.966	49.494	0	49.80	0	6.9480	0	32.3250	0	25.320	0	49.369	0	280.4	4	93.6	4	-1E+10	1	-1E+10	1	-1E+10	1	-1E+10	1	-1E+10	1	-1E+10	1
4902551	53	C	01/27/2022	09:05	-132.966	49.494	0	50.90	0	6.9480	0	32.3250	0	25.320	0	50.460	0	280.3	4	93.6	4	-1E+10	1	-1E+10	1	-1E+10	1	-1E+10	1	-1E+10	1	-1E+10	1
4902551	53	C	01/27/2022	09:05	-132.966	49.494	0	52.10	0	6.9480	0	32.3260	0	25.321	0	51.649	0	280.2	4	93.5	4	-1E+10	1	-1E+10	1	-1E+10	1	-1E+10	1	-1E+10	1	-1E+10	1
4902551	53	C	01/27/2022	09:05	-132.966	49.494	0	52.90	0	6.9470	0	32.3260	0	25.321	0	52.442	0	280.1	4	93.5	4	-1E+10	1	-1E+10	1	-1E+10	1	-1E+10	1	-1E+10	1	-1E+10	1
4902551	53	C	01/27/2022	09:05	-132.966	49.494	0	53.70	0	6.9460	0	32.3260	0	25.321	0	53.235	0	280.2	4	93.5	4	-1E+10	1	-1E+10	1	-1E+10	1	-1E+10	1	-1E+10	1	-1E+10	1
4902551	53	C	01/27/2022	09:05	-132.966	49.494	0	54.80	0	6.9460	0	32.3250	0	25.320	0	54.325	0	280.1	4	93.5	4	-1E+10	1	-1E+10	1	-1E+10	1	-1E+10	1	-1E+10	1	-1E+10	1
4902551	53	C	01/27/2022	09:05	-132.966	49.494	0	56.00	0	6.9460	0	32.3250	0	25.320	0	55.515	0	280.0	4	93.5	4	-1E+10	1	-1E+10	1	-1E+10	1	-1E+10	1	-1E+10	1	-1E+10	1
4902551	53	C	01/27/2022	09:05	-132.966	49.494	0	57.10	0	6.9450	0	32.3250	0	25.320	0	56.605	0	279.9	4	93.4	4	-1E+10	1	-1E+10	1	-1E+10	1	-1E+10	1	-1E+10	1	-1E+10	1
4902551	53	C	01/27/2022	09:05	-132.966	49.494	0	57.90	0	6.9450	0	32.3260	0	25.321	0	57.398	0	279.9	4	93.4	4	-1E+10	1	-1E+10	1	-1E+10	1	-1E+10	1	-1E+10	1	-1E+10	1
4902551	53	C	01/27/2022	09:05	-132.966	49.494	0	58.80	0	6.9450	0	32.3250	0	25.320	0	58.290	0	279.8	4	93.4	4	-1E+10	1	-1E+10	1	-1E+10	1	-1E+10	1	-1E+10	1	-1E+10	1
4902551	53	C	01/27/2022	09:05	-132.966	49.494	0	59.90	0	6.9430	0	32.3250	0	25.321	0	59.381	0	279.7	4	93.3	4	-1E+10	1	-1E+10	1	-1E+10	1	-1E+10	1	-1E+10	1	-1E+10	1
4902551	53	C	01/27/2022	09:05	-132.966	49.494	0	61.00	0	6.9420	0	32.3250	0	25.321	0	60.471	0	279.7	4	93.3	4	-1E+10	1	-1E+10	1	-1E+10	1	-1E+10	1	-1E+10	1	-1E+10	1
4902551	53	C	01/27/2022	09:05	-132.966	49.494	0	61.90	0	6.9420	0	32.3250	0	25.321	0	61.363	0	279.6	4	93.3	4	-1E+10	1	-1E+10	1	-1E+10	1	-1E+10	1	-1E+10	1	-1E+10	1
4902551	53	C	01/27/2022	09:05	-132.966	49.494	0	62.70	0	6.9400	0	32.3250	0	25.321	0	62.156	0	279.5	4	93.3	4	-1E+10	1	-1E+10	1	-1E+10	1	-1E+10	1	-1E+10	1	-1E+10	1
4902551	53	C	01/27/2022	09:05	-132.966	49.494	0	63.90	0	6.9390	0	32.3250	0	25.321	0	63.345	0	279.3	4	93.2	4	-1E+10	1	-1E+10	1	-1E+10	1	-1E+10	1	-1E+10	1	-1E+10	1
4902551	53	C	01/27/2022	09:05	-132.966	49.494	0	65.00	0	6.9370	0	32.3250	0	25.321	0	64.436	0	279.2	4	93.2	4	-1E+10	1	-1E+10	1	-1E+10	1	-1E+10	1	-1E+10	1	-1E+10	1
4902551	53	C	01/27/2022	09:05	-132.966	49.494	0	66.10	0	6.9350	0	32.3250	0	25.322	0	65.526	0	279.1	4	93.1	4	-1E+10	1	-1E+10	1	-1E+10	1	-1E+10	1	-1E+10	1	-1E+10	1
4902551	53	C	01/27/2022	09:05	-132.966	49.494	0	67.00	0	6.9340	0	32.3250	0	25.322	0	66.418	0	279.0	4	93.1	4	-1E+10	1	-1E+10	1	-1E+10	1	-1E+10	1	-1E+10	1	-1E+10	1
4902551	53	C	01/27/2022	09:05	-132.966	49.494	0	67.80	0	6.9310	0	32.3260	0	25.323	0	67.211	0	278.8	4	93.0	4	-1E+10	1	-1E+10	1	-1E+10	1	-1E+10	1	-1E+10	1	-1E+10	1
4902551	53	C	01/27/2022	09:05	-132.966	49.494	0	69.00	0	6.9280	0	32.3260	0	25.323	0	68.400	0	278.7	4	93.0	4	-1E+10	1	-1E+10	1	-1E+10	1	-1E+10	1	-1E+10	1	-1E+10	1
4902551	53	C	01/27/2022	09:05	-132.966	49.494	0	70.10	0	6.9260	0	32.3250	0	25.323	0	69.490	0	278.6	4	92.9	4	-1E+10	1	-1E+10	1	-1E+10	1	-1E+10	1	-1E+10	1	-1E+10	1
4902551	53	C	01/27/2022	09:05	-132.966	49.494	0	71.00	0	6.9240	0	32.3260	0	25.324	0	70.382	0	278.5	4	92.9	4	-1E+10	1	-1E+10	1	-1E+10	1	-1E+10	1	-1E+10	1	-1E+10	1
4902551	53	C	01/27/2022	09:05	-132.966	49.494	0	71.80	0	6.9220	0	32.3250	0	25.323	0	71.175	0	278.4	4	92.9	4	-1E+10	1	-1E+10	1	-1E+10	1	-1E+10	1	-1E+10	1	-1E+10	1
4902551	53	C	01/27/2022	09:05	-132.966	49.494	0	72.90	0	6.9180	0	32.3260	0	25.325	0	72.266	0	278.2	4	92.8	4	-1E+10	1	-1E+10	1	-1E+10	1	-1E+10	1	-1E+10	1	-1E+10	1
4902551	53	C	01/27/2022	09:05	-132.966	49.494	0	74.10	0	6.9160	0	32.3260	0	25.325	0	73.455	0	278.0	4	92.7	4	-1E+10	1	-1E+10	1	-1E+10	1	-1E+10	1	-1E+10	1	-1E+10	1
4902551	53	C	01/27/2022	09:05	-132.966	49.494	0	75.00	0	6.9160	0	32.3260	0	25.325	0	74.347	0	277.8	4	92.7	4	-1E+10	1	-1E+10	1	-1E+10	1	-1E+10	1	-1E+10	1	-1E+10	1
4902551	53	C	01/27/2022	09:05	-132.966	49.494	0	75.80	0	6.9150	0	32.3260	0	25.325	0	75.140	0	277.7	4	92.6	4	-1E+10	1	-1E+10	1	-1E+10	1	-1E+10	1	-1E+10	1	-1E+10	1
4902551	53	C	01/27/2022	09:05	-132.966	49.494	0	76.90	0	6.9140	0	32.3260	0	25.325	0	76.230	0	277.5	4	92.5	4	-1E+10	1	-1E+10	1	-1E+10	1	-1E+10	1	-1E+10	1	-1E+10	1
4902551	53	C	01/27/2022	09:05	-132.966	49.494	0	78.10	0	6.9140	0	32.3260	0	25.325	0	77.419	0	277.2	4	92.4	4	-1E+10	1	-1E+10	1	-1E+10	1	-1E+10	1	-1E+10	1	-1E+10	1
4902551	53	C	01/27/2022	09:05	-132.966	49.494	0	78.90	0	6.9140	0	32.3260	0	25.325	0	78.212	0	276.9	4	92.4	4	-1E+10	1	-1E+10	1	-1E+10	1	-1E+10	1	-1E+10	1	-1E+10	1
4902551	53	C	01/27/2022	09:05	-132.966	49.494	0	79.80	0	6.9130	0	32.3270	0	25.326	0	79.104	0	276.7	4	92.3	4	-1E+10	1	-1E+10	1	-1E+10	1	-1E+10	1	-1E+10	1	-1E+10	1
4902551	53	C	01/27/2022	09:05	-132.966	49.494	0	80.90	0	6.9110	0	32.3270	0	25.327	0	80.194	0	276.4	4	92.2	4	-1E+10	1	-1E+10	1	-1E+10	1	-1E+10	1	-1E+10	1	-1E+10	1
4902551	53	C	01/27/2022	09:05	-132.966	49.494	0	82.00	0	6.9110	0	32.3270	0	25.327	0	81.285	0	276.0	4	92.0	4	-1E+10	1	-1E+10	1	-1E+10	1	-1E+10	1	-1E+10	1	-1E+10	1
4902551	53	C	01/27/2022	09:05	-132.966	49.494	0	83.10	0	6.9110	0	32.3270	0	25.327	0	82.375	0	275.5	4	91.9	4	-1E+10	1	-1E+10	1	-1E+10	1	-1E+10	1	-1E+10	1	-1E+10	1
4902551	53	C	01/27/2022	09:05	-132.966	49.494	0	84.00	0	6.9100	0	32.3270	0	25.327	0	83.267	0	275.1	4	91.7	4	-1E+10	1	-1E+10	1	-1E+10	1	-1E+10	1	-1E+10	1	-1E+10	1
4902551	53	C	01/27/2022	09:05	-132.966	49.494	0	84.80	0	6.9060	0	32.3290	0	25.329	0	84.060	0	274.8	4	91.6	4	-1E+10	1	-1E+10	1	-1E+10	1	-1E+10	1	-1E+10	1	-1E+10	1
4902551	53	C	01/27/2022	09:05	-132.966	49.494	0	85.90	0	6.8970	0	32.3320	0	25.332	0	85.150	0	281.3	4	93.8	4	-1E+10	1	-1E+10	1	-1E+10	1	-1E+10	1	-1E+10	1	-1E+10	1
4902551	53	C	01/27/2022	09:05	-132.966	49.494	0	86.90	0	6.8920	0	32.3330	0	25.334	0	86.141	0	280.8	4	93.6	4	-1E+10	1	-1E+10	1	-1E+10	1	-1E+10	1	-1E+10	1	-1E+10	1
4902551	53	C	01/27/2022	09:05	-132.966	49.494	0	88.00	0	6.8850	0	32.3340	0	25.336	0	87.231	0	280.4	4	93.5	4	-1E+10	1	-1E+10	1	-1E+10	1	-1E+10	1	-1E+10	1	-1E+10	1
4902551	53	C	01/27/2022	09:05	-132.966	49.494	0	89.10	0	6.8580	0	32.3360	0	25.341	0	88.321	0	279.9	4	93.2	4	-1E+10	1	-1E+10	1	-1E+10	1	-1E+10	1	-1E+10	1	-1E+10	1
4902551	53	C	01/27/2022	09:05	-132.966	49.494	0	89.90	0	6.8600	0	32.3380	0	25.342	0	89.114	0	279.4	4	93.1	4	-1E+10	1	-1E+10	1	-1E+10	1	-1E+10	1	-1E+10	1	-1E+10	1
4902551	53	C	01/27/2022	09:05	-132.966	49.494	0	90.70	0	6.8500	0	32.3380	0	25.343	0	89.907	0	278.8	4	92.9	4	-1E+10	1	-1E+10	1	-1E+10	1	-1E+10	1	-1E+10	1	-1E+10	1
4902551	53	C	01/27/2022	09:05	-132.966	49.494	0	91.80	0	6.8320	0	32.3400	0	25.347	0	90.997	0	278.0	4	92.6	4	-1E+10	1	-1E+10	1	-1E+10	1	-1E+10	1	-1E+10	1	-1E+10	1
4902551	53	C	01/27/2022	09:05	-132.966	49.494	0	92.90	0	6.8120	0	32.3440	0	25.353	0	92.087	0	277.0	4	92.2	4	-1E+10	1	-1E+10	1	-1E+10	1	-1E+10	1	-1E+10	1	-1E+10	1
4902551	53	C	01/27/2022	09:05	-132.966	49.494	0	94.00	0	6.8140	0	32.3450	0	25.354	0	93.177	0	275.8	4	91.8	4	-1E+10	1	-1E+10	1	-1E+10	1	-1E+10	1	-1E+10	1	-1E+10	1
4902551	53	C	01/27/2022	09:05	-132.966	49.494	0	95.00	0	6.8150	0	32.3470	0	25.355	0	94.168	0	274.6	4	91.4	4	-1E+10	1	-1E+10	1	-1E+10	1	-1E+10	1	-1E+10	1	-1E+10	1
4902551	53	C	01/27/2022	09:05	-132.966	49.494	0	96.00	0	6.8120	0	32.3480	0	25.356	0	95.159	0	272.8	4	90.8	4	-1E+10	1	-1E+10	1	-1E+10	1	-1E+10	1	-1E+10	1	-1E+10	1
4902551	53	C	01/27/2022	09:05	-132.966	49.494	0	96.90	0	6.8010	0	32.3520	0	25.361	0	96.051	0	270.9	4	90.1	4	-1E+10	1	-1E+10	1	-1E+10	1	-1E+10	1	-1E+10	1	-1E+10	1
4902551	53	C	01/27/2022	09:05	-132.966	49.494	0	97.90	0	6.7830	0	32.3570	0	25.367	0	97.042	0	268.0	4	89.1	4	-1E+10	1	-1E+10	1	-1E+10	1	-1E+10	1	-1E+10	1	-1E+10	1
4902551	53	C	01/27/2022	09:05	-132.966	49.494	0	99.10	0	6.7480	0	32.3760	0	25.387	0	98.231	0	262.8	4	87.3	4	-1E+10	1	-1E+10	1	-1E+10	1	-1E+10	1	-1E+10	1	-1E+10	1
4902551	53	C	01/27/2022	09:05	-132.966	49.494	0	99.90	0	6.7020	0	32.4190	0	25.427	0	99.024	0	258.9	4	86.0	4	-1E+10	1	-1E+10	1	-1E+10	1	-1E+10	1	-1E+10	1	-1E+10	1
4902551	53	C	01/27/2022	09:05	-132.966	49.494	0	100.90	0	6.6600	0	32.4830	0	25.482	0	100.015	0	252.0	4	83.6	4	-1E+10	1	-1E+10	1	-1E+10	1	-1E+10	1	-1E+10	1	-1E+10	1
4902551	53	C	01/27/2022	09:05	-132.966	49.494	0	101.80	0	6.6070	0	32.5360	0	25.531	0	100.907	0	247.3	4	82.0	4	-1E+10	1	-1E+10	1	-1E+10	1	-1E+10	1	-1E+10	1	-1E+10	1
4902551	53	C	01/27/2022	09:05	-132.966	49.494	0	103.00	0	6.4640	0	32.6390	0	25.631	0	102.096	0	244.4	4	80.9	4	-1E+10	1	-1E+10	1	-1E+10	1	-1E+10	1	-1E+10	1	-1E+10	1
4902551	53	C	01/27/2022	09:05	-132.966	49.494	0	104.00	0	6.4070	0	32.6800	0	25.670	0	103.087	0	242.2	4	80.0	4	-1E+10	1	-1E+10	1	-1E+10	1	-1E+10	1	-1E+10	1	-1E+10	1
4902551	53	C	01/27/2022	09:05	-132.966	49.494	0	105.00	0	6.3760	0	32.7040	0	25.693	0	104.078	0	240.0	4	79.3	4	-1E+10	1	-1E+10	1	-1E+10	1	-1E+10	1	-1E+10	1	-1E+10	1
4902551	53	C	01/27/2022	09:05	-132.966	49.494	0	105.90	0	6.3400	0	32.7360	0	25.723	0	104.970	0	236.2	4	78.0	4	-1E+10	1	-1E+10	1	-1E+10	1	-1E+10	1	-1E+10	1	-1E+10	1
4902551	53	C	01/27/2022	09:05	-132.966	49.494	0	107.00	0	6.3210	0	32.7570	0	25.742	0	106.060	0	232.8	4	76.8	4	-1E+10	1	-1E+10	1	-1E+10	1	-1E+10	1	-1E+10	1	-1E+10	1
4902551	53	C	01/27/2022	09:05	-132.966	49.494	0	107.80	0	6.3150	0	32.7630	0	25.747	0	106.853	0	229.7	4	75.8	4	-1E+10	1	-1E+10	1	-1E+10	1	-1E+10	1	-1E+10	1	-1E+10	1
4902551	53	C	01/27/2022	09:05	-132.966	49.494	0	108.80	0	6.3110	0	32.7670	0	25.751	0	107.844	0	225.7	4	74.5	4	-1E+10	1	-1E+10	1	-1E+10	1	-1E+10	1	-1E+10	1	-1E+10	1
4902551	53	C	01/27/2022	09:05	-132.966	49.494	0	109.90	0	6.2880	0	32.7940	0	25.775	0	108.934	0	221.8	4	73.1	4	-1E+10	1	-1E+10	1	-1E+10	1	-1E+10	1	-1E+10	1	-1E+10	1
4902551	53	C	01/27/2022	09:05	-132.966	49.494	0	111.20	0	6.2250	0	32.8700	0	25.843	0	110.222	0	218.8	4	72.1	4	-1E+10	1	-1E+10	1	-1E+10	1	-1E+10	1	-1E+10	1	-1E+10	1
4902551	53	C	01/27/2022	09:05	-132.966	49.494	0	111.90	0	6.2020	0	32.8950	0	25.866	0	110.916	0	217.7	4	71.7	4	-1E+10	1	-1E+10	1	-1E+10	1	-1E+10	1	-1E+10	1	-1E+10	1
4902551	53	C	01/27/2022	09:05	-132.966	49.494	0	112.90	0	6.1740	0	32.9230	0	25.891	0	111.907	0	216.2	4	71.2	4	-1E+10	1	-1E+10	1	-1E+10	1	-1E+10	1	-1E+10	1	-1E+10	1
4902551	53	C	01/27/2022	09:05	-132.966	49.494	0	114.00	0	6.1460	0	32.9410	0	25.909	0	112.997	0	214.5	4	70.6	4	-1E+10	1	-1E+10	1	-1E+10	1	-1E+10	1	-1E+10	1	-1E+10	1
4902551	53	C	01/27/2022	09:05	-132.966	49.494	0	115.10	0	6.1300	0	32.9500	0	25.918	0	114.087	0	212.9	4	70.1	4	-1E+10	1	-1E+10	1	-1E+10	1	-1E+10	1	-1E+10	1	-1E+10	1
4902551	53	C	01/27/2022	09:05	-132.966	49.494	0	115.90	0	6.1070	0	32.9690	0	25.936	0	114.879	0	211.6	4	69.6	4	-1E+10	1	-1E+10	1	-1E+10	1	-1E+10	1	-1E+10	1	-1E+10	1
4902551	53	C	01/27/2022	09:05	-132.966	49.494	0	116.70	0	6.1010	0	32.9870	0	25.951	0	115.672	0	210.3	4	69.2	4	-1E+10	1	-1E+10	1	-1E+10	1	-1E+10	1	-1E+10	1	-1E+10	1
4902551	53	C	01/27/2022	09:05	-132.966	49.494	0	117.90	0	6.0960	0	33.0110	0	25.971	0	116.861	0	208.6	4	68.6	4	-1E+10	1	-1E+10	1	-1E+10	1	-1E+10	1	-1E+10	1	-1E+10	1
4902551	53	C	01/27/2022	09:05	-132.966	49.494	0	119.10	0	6.0900	0	33.0410	0	25.995	0	118.050	0	206.7	4	68.0	4	-1E+10	1	-1E+10	1	-1E+10	1	-1E+10	1	-1E+10	1	-1E+10	1
4902551	53	C	01/27/2022	09:05	-132.966	49.494	0	120.30	0	6.0850	0	33.0540	0	26.006	0	119.239	0	205.0	4	67.4	4	-1E+10	1	-1E+10	1	-1E+10	1	-1E+10	1	-1E+10	1	-1E+10	1
4902551	53	C	01/27/2022	09:05	-132.966	49.494	0	121.00	0	6.0820	0	33.0670	0	26.017	0	119.933	0	204.2	4	67.2	4	-1E+10	1	-1E+10	1	-1E+10	1	-1E+10	1	-1E+10	1	-1E+10	1
4902551	53	C	01/27/2022	09:05	-132.966	49.494	0	121.90	0	6.0860	0	33.0820	0	26.028	0	120.825	0	203.1	4	66.8	4	-1E+10	1	-1E+10	1	-1E+10	1	-1E+10	1	-1E+10	1	-1E+10	1
4902551	53	C	01/27/2022	09:05	-132.966	49.494	0	122.90	0	6.0900	0	33.0920	0	26.035	0	121.816	0	201.6	4	66.3	4	-1E+10	1	-1E+10	1	-1E+10	1	-1E+10	1	-1E+10	1	-1E+10	1
4902551	53	C	01/27/2022	09:05	-132.966	49.494	0	124.10	0	6.0960	0	33.1040	0	26.044	0	123.005	0	199.2	4	65.6	4	-1E+10	1	-1E+10	1	-1E+10	1	-1E+10	1	-1E+10	1	-1E+10	1
4902551	53	C	01/27/2022	09:05	-132.966	49.494	0	125.00	0	6.1000	0	33.1120	0	26.050	0	123.897	0	197.2	4	64.9	4	-1E+10	1	-1E+10	1	-1E+10	1	-1E+10	1	-1E+10	1	-1E+10	1
4902551	53	C	01/27/2022	09:05	-132.966	49.494	0	125.90	0	6.1020	0	33.1190	0	26.055	0	124.788	0	195.1	4	64.2	4	-1E+10	1	-1E+10	1	-1E+10	1	-1E+10	1	-1E+10	1	-1E+10	1
4902551	53	C	01/27/2022	09:05	-132.966	49.494	0	127.10	0	6.1060	0	33.1460	0	26.076	0	125.977	0	191.8	4	63.2	4	-1E+10	1	-1E+10	1	-1E+10	1	-1E+10	1	-1E+10	1	-1E+10	1
4902551	53	C	01/27/2022	09:05	-132.966	49.494	0	128.00	0	6.1080	0	33.1790	0	26.102	0	126.869	0	187.8	4	61.9	4	-1E+10	1	-1E+10	1	-1E+10	1	-1E+10	1	-1E+10	1	-1E+10	1
4902551	53	C	01/27/2022	09:05	-132.966	49.494	0	129.00	0	6.1130	0	33.2220	0	26.135	0	127.860	0	182.7	4	60.2	4	-1E+10	1	-1E+10	1	-1E+10	1	-1E+10	1	-1E+10	1	-1E+10	1
4902551	53	C	01/27/2022	09:05	-132.966	49.494	0	130.10	0	6.1130	0	33.2640	0	26.168	0	128.950	0	178.1	4	58.7	4	-1E+10	1	-1E+10	1	-1E+10	1	-1E+10	1	-1E+10	1	-1E+10	1
4902551	53	C	01/27/2022	09:05	-132.966	49.494	0	130.90	0	6.1150	0	33.3020	0	26.198	0	129.743	0	175.3	4	57.8	4	-1E+10	1	-1E+10	1	-1E+10	1	-1E+10	1	-1E+10	1	-1E+10	1
4902551	53	C	01/27/2022	09:05	-132.966	49.494	0	132.20	0	6.1020	0	33.3470	0	26.235	0	131.031	0	172.0	4	56.7	4	-1E+10	1	-1E+10	1	-1E+10	1	-1E+10	1	-1E+10	1	-1E+10	1
4902551	53	C	01/27/2022	09:05	-132.966	49.494	0	133.00	0	6.0980	0	33.3630	0	26.249	0	131.823	0	170.1	4	56.1	4	-1E+10	1	-1E+10	1	-1E+10	1	-1E+10	1	-1E+10	1	-1E+10	1
4902551	53	C	01/27/2022	09:05	-132.966	49.494	0	134.00	0	6.0980	0	33.3840	0	26.265	0	132.814	0	167.6	4	55.3	4	-1E+10	1	-1E+10	1	-1E+10	1	-1E+10	1	-1E+10	1	-1E+10	1
4902551	53	C	01/27/2022	09:05	-132.966	49.494	0	134.90	0	6.0830	0	33.4190	0	26.295	0	133.706	0	166.2	4	54.8	4	-1E+10	1	-1E+10	1	-1E+10	1	-1E+10	1	-1E+10	1	-1E+10	1
4902551	53	C	01/27/2022	09:05	-132.966	49.494	0	135.90	0	6.0710	0	33.4500	0	26.321	0	134.697	0	165.2	4	54.5	4	-1E+10	1	-1E+10	1	-1E+10	1	-1E+10	1	-1E+10	1	-1E+10	1
4902551	53	C	01/27/2022	09:05	-132.966	49.494	0	136.90	0	6.0660	0	33.4640	0	26.332	0	135.688	0	164.3	4	54.2	4	-1E+10	1	-1E+10	1	-1E+10	1	-1E+10	1	-1E+10	1	-1E+10	1
4902551	53	C	01/27/2022	09:05	-132.966	49.494	0	137.90	0	6.0650	0	33.4640	0	26.332	0	136.678	0	163.1	4	53.8	4	-1E+10	1	-1E+10	1	-1E+10	1	-1E+10	1	-1E+10	1	-1E+10	1
4902551	53	C	01/27/2022	09:05	-132.966	49.494	0	138.90	0	6.0630	0	33.4720	0	26.339	0	137.669	0	161.8	4	53.3	4	-1E+10	1	-1E+10	1	-1E+10	1	-1E+10	1	-1E+10	1	-1E+10	1
4902551	53	C	01/27/2022	09:05	-132.966	49.494	0	139.90	0	6.0620	0	33.4790	0	26.345	0	138.660	0	160.3	4	52.9	4	-1E+10	1	-1E+10	1	-1E+10	1	-1E+10	1	-1E+10	1	-1E+10	1
4902551	53	C	01/27/2022	09:05	-132.966	49.494	0	140.90	0	6.0610	0	33.4840	0	26.349	0	139.651	0	158.8	4	52.4	4	-1E+10	1	-1E+10	1	-1E+10	1	-1E+10	1	-1E+10	1	-1E+10	1
4902551	53	C	01/27/2022	09:05	-132.966	49.494	0	141.90	0	6.0590	0	33.4890	0	26.353	0	140.642	0	157.4	4	51.9	4	-1E+10	1	-1E+10	1	-1E+10	1	-1E+10	1	-1E+10	1	-1E+10	1
4902551	53	C	01/27/2022	09:05	-132.966	49.494	0	143.00	0	6.0580	0	33.4970	0	26.359	0	141.732	0	156.0	4	51.4	4	-1E+10	1	-1E+10	1	-1E+10	1	-1E+10	1	-1E+10	1	-1E+10	1
4902551	53	C	01/27/2022	09:05	-132.966	49.494	0	144.10	0	6.0520	0	33.5200	0	26.378	0	142.821	0	154.5	4	50.9	4	-1E+10	1	-1E+10	1	-1E+10	1	-1E+10	1	-1E+10	1	-1E+10	1
4902551	53	C	01/27/2022	09:05	-132.966	49.494	0	145.00	0	6.0500	0	33.5310	0	26.387	0	143.713	0	153.4	4	50.6	4	-1E+10	1	-1E+10	1	-1E+10	1	-1E+10	1	-1E+10	1	-1E+10	1
4902551	53	C	01/27/2022	09:05	-132.966	49.494	0	145.80	0	6.0470	0	33.5370	0	26.392	0	144.506	0	152.1	4	50.2	4	-1E+10	1	-1E+10	1	-1E+10	1	-1E+10	1	-1E+10	1	-1E+10	1
4902551	53	C	01/27/2022	09:05	-132.966	49.494	0	147.10	0	6.0430	0	33.5450	0	26.399	0	145.794	0	150.4	4	49.6	4	-1E+10	1	-1E+10	1	-1E+10	1	-1E+10	1	-1E+10	1	-1E+10	1
4902551	53	C	01/27/2022	09:05	-132.966	49.494	0	148.10	0	6.0380	0	33.5520	0	26.405	0	146.784	0	148.8	4	49.1	4	-1E+10	1	-1E+10	1	-1E+10	1	-1E+10	1	-1E+10	1	-1E+10	1
4902551	53	C	01/27/2022	09:05	-132.966	49.494	0	148.80	0	6.0300	0	33.5680	0	26.419	0	147.478	0	147.8	4	48.8	4	-1E+10	1	-1E+10	1	-1E+10	1	-1E+10	1	-1E+10	1	-1E+10	1
4902551	53	C	01/27/2022	09:05	-132.966	49.494	0	149.90	0	6.0020	0	33.6070	0	26.453	0	148.568	0	146.6	4	48.3	4	-1E+10	1	-1E+10	1	-1E+10	1	-1E+10	1	-1E+10	1	-1E+10	1
4902551	53	C	01/27/2022	09:05	-132.966	49.494	0	151.00	0	5.9880	0	33.6270	0	26.471	0	149.658	0	145.9	4	48.1	4	-1E+10	1	-1E+10	1	-1E+10	1	-1E+10	1	-1E+10	1	-1E+10	1
4902551	53	C	01/27/2022	09:05	-132.966	49.494	0	151.80	0	5.9840	0	33.6320	0	26.475	0	150.450	0	145.4	4	47.9	4	-1E+10	1	-1E+10	1	-1E+10	1	-1E+10	1	-1E+10	1	-1E+10	1
4902551	53	C	01/27/2022	09:05	-132.966	49.494	0	153.00	0	5.9800	0	33.6360	0	26.479	0	151.639	0	144.7	4	47.7	4	-1E+10	1	-1E+10	1	-1E+10	1	-1E+10	1	-1E+10	1	-1E+10	1
4902551	53	C	01/27/2022	09:05	-132.966	49.494	0	154.10	0	5.9750	0	33.6390	0	26.482	0	152.729	0	143.7	4	47.4	4	-1E+10	1	-1E+10	1	-1E+10	1	-1E+10	1	-1E+10	1	-1E+10	1
4902551	53	C	01/27/2022	09:05	-132.966	49.494	0	155.00	0	5.9670	0	33.6470	0	26.489	0	153.621	0	143.1	4	47.2	4	-1E+10	1	-1E+10	1	-1E+10	1	-1E+10	1	-1E+10	1	-1E+10	1
4902551	53	C	01/27/2022	09:05	-132.966	49.494	0	155.80	0	5.9640	0	33.6490	0	26.491	0	154.413	0	142.5	4	47.0	4	-1E+10	1	-1E+10	1	-1E+10	1	-1E+10	1	-1E+10	1	-1E+10	1
4902551	53	C	01/27/2022	09:05	-132.966	49.494	0	157.00	0	5.9550	0	33.6560	0	26.498	0	155.602	0	141.5	4	46.6	4	-1E+10	1	-1E+10	1	-1E+10	1	-1E+10	1	-1E+10	1	-1E+10	1
4902551	53	C	01/27/2022	09:05	-132.966	49.494	0	158.30	0	5.9470	0	33.6600	0	26.502	0	156.890	0	140.5	4	46.3	4	-1E+10	1	-1E+10	1	-1E+10	1	-1E+10	1	-1E+10	1	-1E+10	1
4902551	53	C	01/27/2022	09:05	-132.966	49.494	0	159.10	0	5.9400	0	33.6640	0	26.506	0	157.683	0	139.8	4	46.0	4	-1E+10	1	-1E+10	1	-1E+10	1	-1E+10	1	-1E+10	1	-1E+10	1
4902551	53	C	01/27/2022	09:05	-132.966	49.494	0	160.00	0	5.9350	0	33.6670	0	26.509	0	158.574	0	139.2	4	45.8	4	-1E+10	1	-1E+10	1	-1E+10	1	-1E+10	1	-1E+10	1	-1E+10	1
4902551	53	C	01/27/2022	09:05	-132.966	49.494	0	160.90	0	5.9300	0	33.6700	0	26.512	0	159.466	0	138.5	4	45.6	4	-1E+10	1	-1E+10	1	-1E+10	1	-1E+10	1	-1E+10	1	-1E+10	1
4902551	53	C	01/27/2022	09:05	-132.966	49.494	0	161.70	0	5.9270	0	33.6710	0	26.513	0	160.258	0	137.7	4	45.3	4	-1E+10	1	-1E+10	1	-1E+10	1	-1E+10	1	-1E+10	1	-1E+10	1
4902551	53	C	01/27/2022	09:05	-132.966	49.494	0	162.60	0	5.9230	0	33.6730	0	26.516	0	161.150	0	136.9	4	45.1	4	-1E+10	1	-1E+10	1	-1E+10	1	-1E+10	1	-1E+10	1	-1E+10	1
4902551	53	C	01/27/2022	09:05	-132.966	49.494	0	163.90	0	5.9060	0	33.6810	0	26.524	0	162.438	0	135.9	4	44.7	4	-1E+10	1	-1E+10	1	-1E+10	1	-1E+10	1	-1E+10	1	-1E+10	1
4902551	53	C	01/27/2022	09:05	-132.966	49.494	0	165.30	0	5.8760	0	33.6960	0	26.540	0	163.825	0	134.9	4	44.4	4	-1E+10	1	-1E+10	1	-1E+10	1	-1E+10	1	-1E+10	1	-1E+10	1
4902551	53	C	01/27/2022	09:05	-132.966	49.494	0	166.30	0	5.8680	0	33.6990	0	26.543	0	164.816	0	134.1	4	44.1	4	-1E+10	1	-1E+10	1	-1E+10	1	-1E+10	1	-1E+10	1	-1E+10	1
4902551	53	C	01/27/2022	09:05	-132.966	49.494	0	167.20	0	5.8530	0	33.7060	0	26.550	0	165.707	0	133.5	4	43.9	4	-1E+10	1	-1E+10	1	-1E+10	1	-1E+10	1	-1E+10	1	-1E+10	1
4902551	53	C	01/27/2022	09:05	-132.966	49.494	0	168.10	0	5.8400	0	33.7110	0	26.556	0	166.599	0	133.0	4	43.7	4	-1E+10	1	-1E+10	1	-1E+10	1	-1E+10	1	-1E+10	1	-1E+10	1
4902551	53	C	01/27/2022	09:05	-132.966	49.494	0	169.10	0	5.8240	0	33.7160	0	26.562	0	167.589	0	132.6	4	43.6	4	-1E+10	1	-1E+10	1	-1E+10	1	-1E+10	1	-1E+10	1	-1E+10	1
4902551	53	C	01/27/2022	09:05	-132.966	49.494	0	170.00	0	5.8140	0	33.7180	0	26.565	0	168.481	0	132.1	4	43.4	4	-1E+10	1	-1E+10	1	-1E+10	1	-1E+10	1	-1E+10	1	-1E+10	1
4902551	53	C	01/27/2022	09:05	-132.966	49.494	0	171.00	0	5.7910	0	33.7270	0	26.575	0	169.472	0	131.7	4	43.2	4	-1E+10	1	-1E+10	1	-1E+10	1	-1E+10	1	-1E+10	1	-1E+10	1
4902551	53	C	01/27/2022	09:05	-132.966	49.494	0	171.90	0	5.7910	0	33.7260	0	26.574	0	170.363	0	131.1	4	43.1	4	-1E+10	1	-1E+10	1	-1E+10	1	-1E+10	1	-1E+10	1	-1E+10	1
4902551	53	C	01/27/2022	09:05	-132.966	49.494	0	172.90	0	5.7880	0	33.7260	0	26.574	0	171.354	0	130.6	4	42.9	4	-1E+10	1	-1E+10	1	-1E+10	1	-1E+10	1	-1E+10	1	-1E+10	1
4902551	53	C	01/27/2022	09:05	-132.966	49.494	0	173.80	0	5.7860	0	33.7270	0	26.575	0	172.245	0	130.0	4	42.7	4	-1E+10	1	-1E+10	1	-1E+10	1	-1E+10	1	-1E+10	1	-1E+10	1
4902551	53	C	01/27/2022	09:05	-132.966	49.494	0	174.70	0	5.7850	0	33.7260	0	26.575	0	173.137	0	129.4	4	42.5	4	-1E+10	1	-1E+10	1	-1E+10	1	-1E+10	1	-1E+10	1	-1E+10	1
4902551	53	C	01/27/2022	09:05	-132.966	49.494	0	175.70	0	5.7660	0	33.7330	0	26.582	0	174.128	0	128.6	4	42.2	4	-1E+10	1	-1E+10	1	-1E+10	1	-1E+10	1	-1E+10	1	-1E+10	1
4902551	53	C	01/27/2022	09:05	-132.966	49.494	0	176.60	0	5.7180	0	33.7470	0	26.599	0	175.019	0	128.2	4	42.0	4	-1E+10	1	-1E+10	1	-1E+10	1	-1E+10	1	-1E+10	1	-1E+10	1
4902551	53	C	01/27/2022	09:05	-132.966	49.494	0	177.60	0	5.7020	0	33.7470	0	26.601	0	176.010	0	127.9	4	41.9	4	-1E+10	1	-1E+10	1	-1E+10	1	-1E+10	1	-1E+10	1	-1E+10	1
4902551	53	C	01/27/2022	09:05	-132.966	49.494	0	178.50	0	5.6980	0	33.7480	0	26.603	0	176.901	0	127.5	4	41.8	4	-1E+10	1	-1E+10	1	-1E+10	1	-1E+10	1	-1E+10	1	-1E+10	1
4902551	53	C	01/27/2022	09:05	-132.966	49.494	0	179.90	0	5.6910	0	33.7480	0	26.603	0	178.288	0	126.9	4	41.6	4	-1E+10	1	-1E+10	1	-1E+10	1	-1E+10	1	-1E+10	1	-1E+10	1
4902551	53	C	01/27/2022	09:05	-132.966	49.494	0	181.30	0	5.6700	0	33.7540	0	26.611	0	179.675	0	126.3	4	41.4	4	-1E+10	1	-1E+10	1	-1E+10	1	-1E+10	1	-1E+10	1	-1E+10	1
4902551	53	C	01/27/2022	09:05	-132.966	49.494	0	182.20	0	5.6640	0	33.7540	0	26.611	0	180.567	0	125.8	4	41.2	4	-1E+10	1	-1E+10	1	-1E+10	1	-1E+10	1	-1E+10	1	-1E+10	1
4902551	53	C	01/27/2022	09:05	-132.966	49.494	0	183.10	0	5.6640	0	33.7530	0	26.611	0	181.458	0	125.3	4	41.0	4	-1E+10	1	-1E+10	1	-1E+10	1	-1E+10	1	-1E+10	1	-1E+10	1
4902551	53	C	01/27/2022	09:05	-132.966	49.494	0	184.10	0	5.6620	0	33.7530	0	26.611	0	182.449	0	124.8	4	40.8	4	-1E+10	1	-1E+10	1	-1E+10	1	-1E+10	1	-1E+10	1	-1E+10	1
4902551	53	C	01/27/2022	09:05	-132.966	49.494	0	185.00	0	5.6520	0	33.7550	0	26.614	0	183.340	0	124.3	4	40.7	4	-1E+10	1	-1E+10	1	-1E+10	1	-1E+10	1	-1E+10	1	-1E+10	1
4902551	53	C	01/27/2022	09:05	-132.966	49.494	0	185.90	0	5.6490	0	33.7550	0	26.614	0	184.232	0	123.6	4	40.5	4	-1E+10	1	-1E+10	1	-1E+10	1	-1E+10	1	-1E+10	1	-1E+10	1
4902551	53	C	01/27/2022	09:05	-132.966	49.494	0	186.70	0	5.6470	0	33.7550	0	26.614	0	185.024	0	123.0	4	40.2	4	-1E+10	1	-1E+10	1	-1E+10	1	-1E+10	1	-1E+10	1	-1E+10	1
4902551	53	C	01/27/2022	09:05	-132.966	49.494	0	187.60	0	5.6260	0	33.7590	0	26.620	0	185.916	0	122.4	4	40.0	4	-1E+10	1	-1E+10	1	-1E+10	1	-1E+10	1	-1E+10	1	-1E+10	1
4902551	53	C	01/27/2022	09:05	-132.966	49.494	0	188.90	0	5.6030	0	33.7620	0	26.625	0	187.204	0	121.5	4	39.7	4	-1E+10	1	-1E+10	1	-1E+10	1	-1E+10	1	-1E+10	1	-1E+10	1
4902551	53	C	01/27/2022	09:05	-132.966	49.494	0	190.30	0	5.5930	0	33.7630	0	26.627	0	188.590	0	120.6	4	39.4	4	-1E+10	1	-1E+10	1	-1E+10	1	-1E+10	1	-1E+10	1	-1E+10	1
4902551	53	C	01/27/2022	09:05	-132.966	49.494	0	191.20	0	5.5820	0	33.7650	0	26.630	0	189.482	0	120.0	4	39.2	4	-1E+10	1	-1E+10	1	-1E+10	1	-1E+10	1	-1E+10	1	-1E+10	1
4902551	53	C	01/27/2022	09:05	-132.966	49.494	0	192.10	0	5.5680	0	33.7680	0	26.634	0	190.373	0	119.4	4	39.0	4	-1E+10	1	-1E+10	1	-1E+10	1	-1E+10	1	-1E+10	1	-1E+10	1
4902551	53	C	01/27/2022	09:05	-132.966	49.494	0	192.90	0	5.5410	0	33.7720	0	26.641	0	191.166	0	119.1	4	38.9	4	-1E+10	1	-1E+10	1	-1E+10	1	-1E+10	1	-1E+10	1	-1E+10	1
4902551	53	C	01/27/2022	09:05	-132.966	49.494	0	193.80	0	5.5260	0	33.7750	0	26.645	0	192.057	0	118.7	4	38.7	4	-1E+10	1	-1E+10	1	-1E+10	1	-1E+10	1	-1E+10	1	-1E+10	1
4902551	53	C	01/27/2022	09:05	-132.966	49.494	0	194.70	0	5.5210	0	33.7750	0	26.645	0	192.949	0	118.3	4	38.6	4	-1E+10	1	-1E+10	1	-1E+10	1	-1E+10	1	-1E+10	1	-1E+10	1
4902551	53	C	01/27/2022	09:05	-132.966	49.494	0	195.60	0	5.5140	0	33.7760	0	26.647	0	193.840	0	117.8	4	38.4	4	-1E+10	1	-1E+10	1	-1E+10	1	-1E+10	1	-1E+10	1	-1E+10	1
4902551	53	C	01/27/2022	09:05	-132.966	49.494	0	196.90	0	5.5090	0	33.7760	0	26.648	0	195.128	0	117.1	4	38.2	4	-1E+10	1	-1E+10	1	-1E+10	1	-1E+10	1	-1E+10	1	-1E+10	1
4902551	53	C	01/27/2022	09:05	-132.966	49.494	0	198.20	0	5.4990	0	33.7770	0	26.650	0	196.416	0	116.3	4	37.9	4	-1E+10	1	-1E+10	1	-1E+10	1	-1E+10	1	-1E+10	1	-1E+10	1
4902551	53	C	01/27/2022	09:05	-132.966	49.494	0	199.10	0	5.4810	0	33.7810	0	26.655	0	197.307	0	115.9	4	37.8	4	-1E+10	1	-1E+10	1	-1E+10	1	-1E+10	1	-1E+10	1	-1E+10	1
4902551	53	C	01/27/2022	09:05	-132.966	49.494	0	200.00	0	5.4670	0	33.7830	0	26.658	0	198.199	0	115.4	4	37.6	4	-1E+10	1	-1E+10	1	-1E+10	1	-1E+10	1	-1E+10	1	-1E+10	1
4902551	53	C	01/27/2022	09:05	-132.966	49.494	0	200.80	0	5.4550	0	33.7850	0	26.661	0	198.991	0	115.0	4	37.5	4	-1E+10	1	-1E+10	1	-1E+10	1	-1E+10	1	-1E+10	1	-1E+10	1
4902551	53	C	01/27/2022	09:05	-132.966	49.494	0	201.70	0	5.4530	0	33.7840	0	26.661	0	199.882	0	114.6	4	37.3	4	-1E+10	1	-1E+10	1	-1E+10	1	-1E+10	1	-1E+10	1	-1E+10	1
4902551	53	C	01/27/2022	09:05	-132.966	49.494	0	202.60	0	5.4480	0	33.7850	0	26.662	0	200.774	0	114.1	4	37.2	4	-1E+10	1	-1E+10	1	-1E+10	1	-1E+10	1	-1E+10	1	-1E+10	1
4902551	53	C	01/27/2022	09:05	-132.966	49.494	0	203.90	0	5.4370	0	33.7870	0	26.665	0	202.062	0	113.5	4	37.0	4	-1E+10	1	-1E+10	1	-1E+10	1	-1E+10	1	-1E+10	1	-1E+10	1
4902551	53	C	01/27/2022	09:05	-132.966	49.494	0	205.20	0	5.4250	0	33.7890	0	26.668	0	203.349	0	112.9	4	36.8	4	-1E+10	1	-1E+10	1	-1E+10	1	-1E+10	1	-1E+10	1	-1E+10	1
4902551	53	C	01/27/2022	09:05	-132.966	49.494	0	206.10	0	5.4250	0	33.7890	0	26.668	0	204.241	0	112.5	4	36.6	4	-1E+10	1	-1E+10	1	-1E+10	1	-1E+10	1	-1E+10	1	-1E+10	1
4902551	53	C	01/27/2022	09:05	-132.966	49.494	0	207.00	0	5.4210	0	33.7890	0	26.668	0	205.132	0	112.0	4	36.5	4	-1E+10	1	-1E+10	1	-1E+10	1	-1E+10	1	-1E+10	1	-1E+10	1
4902551	53	C	01/27/2022	09:05	-132.966	49.494	0	207.90	0	5.4190	0	33.7890	0	26.669	0	206.023	0	111.5	4	36.3	4	-1E+10	1	-1E+10	1	-1E+10	1	-1E+10	1	-1E+10	1	-1E+10	1
4902551	53	C	01/27/2022	09:05	-132.966	49.494	0	208.80	0	5.4160	0	33.7890	0	26.669	0	206.915	0	110.9	4	36.1	4	-1E+10	1	-1E+10	1	-1E+10	1	-1E+10	1	-1E+10	1	-1E+10	1
4902551	53	C	01/27/2022	09:05	-132.966	49.494	0	209.70	0	5.4130	0	33.7890	0	26.669	0	207.806	0	110.3	4	35.9	4	-1E+10	1	-1E+10	1	-1E+10	1	-1E+10	1	-1E+10	1	-1E+10	1
4902551	53	C	01/27/2022	09:05	-132.966	49.494	0	210.60	0	5.3810	0	33.7950	0	26.678	0	208.698	0	109.9	4	35.8	4	-1E+10	1	-1E+10	1	-1E+10	1	-1E+10	1	-1E+10	1	-1E+10	1
4902551	53	C	01/27/2022	09:05	-132.966	49.494	0	211.90	0	5.3610	0	33.7980	0	26.683	0	209.985	0	109.4	4	35.6	4	-1E+10	1	-1E+10	1	-1E+10	1	-1E+10	1	-1E+10	1	-1E+10	1
4902551	53	C	01/27/2022	09:05	-132.966	49.494	0	213.30	0	5.3400	0	33.8000	0	26.687	0	211.372	0	108.9	4	35.4	4	-1E+10	1	-1E+10	1	-1E+10	1	-1E+10	1	-1E+10	1	-1E+10	1
4902551	53	C	01/27/2022	09:05	-132.966	49.494	0	214.20	0	5.3370	0	33.8000	0	26.687	0	212.263	0	108.6	4	35.3	4	-1E+10	1	-1E+10	1	-1E+10	1	-1E+10	1	-1E+10	1	-1E+10	1
4902551	53	C	01/27/2022	09:05	-132.966	49.494	0	215.10	0	5.3350	0	33.8000	0	26.687	0	213.155	0	108.2	4	35.2	4	-1E+10	1	-1E+10	1	-1E+10	1	-1E+10	1	-1E+10	1	-1E+10	1
4902551	53	C	01/27/2022	09:05	-132.966	49.494	0	216.10	0	5.3340	0	33.8000	0	26.687	0	214.145	0	107.7	4	35.0	4	-1E+10	1	-1E+10	1	-1E+10	1	-1E+10	1	-1E+10	1	-1E+10	1
4902551	53	C	01/27/2022	09:05	-132.966	49.494	0	217.00	0	5.3320	0	33.8010	0	26.688	0	215.037	0	107.2	4	34.8	4	-1E+10	1	-1E+10	1	-1E+10	1	-1E+10	1	-1E+10	1	-1E+10	1
4902551	53	C	01/27/2022	09:05	-132.966	49.494	0	217.90	0	5.3310	0	33.8000	0	26.688	0	215.928	0	106.7	4	34.7	4	-1E+10	1	-1E+10	1	-1E+10	1	-1E+10	1	-1E+10	1	-1E+10	1
4902551	53	C	01/27/2022	09:05	-132.966	49.494	0	218.80	0	5.3290	0	33.8000	0	26.688	0	216.819	0	106.1	4	34.5	4	-1E+10	1	-1E+10	1	-1E+10	1	-1E+10	1	-1E+10	1	-1E+10	1
4902551	53	C	01/27/2022	09:05	-132.966	49.494	0	219.70	0	5.3190	0	33.8010	0	26.690	0	217.711	0	105.5	4	34.3	4	-1E+10	1	-1E+10	1	-1E+10	1	-1E+10	1	-1E+10	1	-1E+10	1
4902551	53	C	01/27/2022	09:05	-132.966	49.494	0	220.70	0	5.3030	0	33.8060	0	26.696	0	218.701	0	105.0	4	34.1	4	-1E+10	1	-1E+10	1	-1E+10	1	-1E+10	1	-1E+10	1	-1E+10	1
4902551	53	C	01/27/2022	09:05	-132.966	49.494	0	221.60	0	5.2960	0	33.8050	0	26.696	0	219.593	0	104.5	4	33.9	4	-1E+10	1	-1E+10	1	-1E+10	1	-1E+10	1	-1E+10	1	-1E+10	1
4902551	53	C	01/27/2022	09:05	-132.966	49.494	0	222.50	0	5.2930	0	33.8060	0	26.697	0	220.484	0	103.9	4	33.7	4	-1E+10	1	-1E+10	1	-1E+10	1	-1E+10	1	-1E+10	1	-1E+10	1
4902551	53	C	01/27/2022	09:05	-132.966	49.494	0	223.90	0	5.2790	0	33.8080	0	26.700	0	221.870	0	103.2	4	33.5	4	-1E+10	1	-1E+10	1	-1E+10	1	-1E+10	1	-1E+10	1	-1E+10	1
4902551	53	C	01/27/2022	09:05	-132.966	49.494	0	225.30	0	5.2690	0	33.8100	0	26.703	0	223.257	0	102.4	4	33.2	4	-1E+10	1	-1E+10	1	-1E+10	1	-1E+10	1	-1E+10	1	-1E+10	1
4902551	53	C	01/27/2022	09:05	-132.966	49.494	0	226.30	0	5.2620	0	33.8120	0	26.705	0	224.247	0	102.0	4	33.1	4	-1E+10	1	-1E+10	1	-1E+10	1	-1E+10	1	-1E+10	1	-1E+10	1
4902551	53	C	01/27/2022	09:05	-132.966	49.494	0	227.20	0	5.2600	0	33.8110	0	26.705	0	225.139	0	101.4	4	32.9	4	-1E+10	1	-1E+10	1	-1E+10	1	-1E+10	1	-1E+10	1	-1E+10	1
4902551	53	C	01/27/2022	09:05	-132.966	49.494	0	228.20	0	5.2530	0	33.8120	0	26.707	0	226.129	0	100.9	4	32.7	4	-1E+10	1	-1E+10	1	-1E+10	1	-1E+10	1	-1E+10	1	-1E+10	1
4902551	53	C	01/27/2022	09:05	-132.966	49.494	0	229.10	0	5.2400	0	33.8130	0	26.709	0	227.021	0	100.3	4	32.5	4	-1E+10	1	-1E+10	1	-1E+10	1	-1E+10	1	-1E+10	1	-1E+10	1
4902551	53	C	01/27/2022	09:05	-132.966	49.494	0	230.10	0	5.2380	0	33.8130	0	26.709	0	228.011	0	99.8	4	32.4	4	-1E+10	1	-1E+10	1	-1E+10	1	-1E+10	1	-1E+10	1	-1E+10	1
4902551	53	C	01/27/2022	09:05	-132.966	49.494	0	231.10	0	5.2260	0	33.8160	0	26.713	0	229.001	0	99.2	4	32.2	4	-1E+10	1	-1E+10	1	-1E+10	1	-1E+10	1	-1E+10	1	-1E+10	1
4902551	53	C	01/27/2022	09:05	-132.966	49.494	0	232.10	0	5.2050	0	33.8190	0	26.718	0	229.992	0	98.8	4	32.0	4	-1E+10	1	-1E+10	1	-1E+10	1	-1E+10	1	-1E+10	1	-1E+10	1
4902551	53	C	01/27/2022	09:05	-132.966	49.494	0	233.00	0	5.1880	0	33.8210	0	26.721	0	230.883	0	98.6	4	31.9	4	-1E+10	1	-1E+10	1	-1E+10	1	-1E+10	1	-1E+10	1	-1E+10	1
4902551	53	C	01/27/2022	09:05	-132.966	49.494	0	234.00	0	5.1860	0	33.8210	0	26.721	0	231.873	0	98.3	4	31.8	4	-1E+10	1	-1E+10	1	-1E+10	1	-1E+10	1	-1E+10	1	-1E+10	1
4902551	53	C	01/27/2022	09:05	-132.966	49.494	0	235.00	0	5.1810	0	33.8220	0	26.723	0	232.864	0	98.0	4	31.7	4	-1E+10	1	-1E+10	1	-1E+10	1	-1E+10	1	-1E+10	1	-1E+10	1
4902551	53	C	01/27/2022	09:05	-132.966	49.494	0	236.00	0	5.1810	0	33.8210	0	26.722	0	233.854	0	97.7	4	31.6	4	-1E+10	1	-1E+10	1	-1E+10	1	-1E+10	1	-1E+10	1	-1E+10	1
4902551	53	C	01/27/2022	09:05	-132.966	49.494	0	237.00	0	5.1750	0	33.8220	0	26.724	0	234.844	0	97.4	4	31.5	4	-1E+10	1	-1E+10	1	-1E+10	1	-1E+10	1	-1E+10	1	-1E+10	1
4902551	53	C	01/27/2022	09:05	-132.966	49.494	0	237.90	0	5.1730	0	33.8220	0	26.724	0	235.736	0	97.0	4	31.4	4	-1E+10	1	-1E+10	1	-1E+10	1	-1E+10	1	-1E+10	1	-1E+10	1
4902551	53	C	01/27/2022	09:05	-132.966	49.494	0	239.00	0	5.1700	0	33.8220	0	26.724	0	236.825	0	96.6	4	31.3	4	-1E+10	1	-1E+10	1	-1E+10	1	-1E+10	1	-1E+10	1	-1E+10	1
4902551	53	C	01/27/2022	09:05	-132.966	49.494	0	239.90	0	5.1670	0	33.8230	0	26.725	0	237.716	0	96.1	4	31.1	4	-1E+10	1	-1E+10	1	-1E+10	1	-1E+10	1	-1E+10	1	-1E+10	1
4902551	53	C	01/27/2022	09:05	-132.966	49.494	0	240.90	0	5.1640	0	33.8230	0	26.726	0	238.707	0	95.7	4	31.0	4	-1E+10	1	-1E+10	1	-1E+10	1	-1E+10	1	-1E+10	1	-1E+10	1
4902551	53	C	01/27/2022	09:05	-132.966	49.494	0	241.90	0	5.1600	0	33.8230	0	26.726	0	239.697	0	95.2	4	30.8	4	-1E+10	1	-1E+10	1	-1E+10	1	-1E+10	1	-1E+10	1	-1E+10	1
4902551	53	C	01/27/2022	09:05	-132.966	49.494	0	242.90	0	5.1580	0	33.8230	0	26.726	0	240.687	0	94.6	4	30.6	4	-1E+10	1	-1E+10	1	-1E+10	1	-1E+10	1	-1E+10	1	-1E+10	1
4902551	53	C	01/27/2022	09:05	-132.966	49.494	0	243.90	0	5.1450	0	33.8260	0	26.730	0	241.678	0	94.1	4	30.5	4	-1E+10	1	-1E+10	1	-1E+10	1	-1E+10	1	-1E+10	1	-1E+10	1
4902551	53	C	01/27/2022	09:05	-132.966	49.494	0	244.90	0	5.1180	0	33.8290	0	26.736	0	242.668	0	93.8	4	30.3	4	-1E+10	1	-1E+10	1	-1E+10	1	-1E+10	1	-1E+10	1	-1E+10	1
4902551	53	C	01/27/2022	09:05	-132.966	49.494	0	245.90	0	5.1100	0	33.8300	0	26.737	0	243.658	0	93.5	4	30.2	4	-1E+10	1	-1E+10	1	-1E+10	1	-1E+10	1	-1E+10	1	-1E+10	1
4902551	53	C	01/27/2022	09:05	-132.966	49.494	0	246.90	0	5.1080	0	33.8290	0	26.737	0	244.648	0	93.2	4	30.1	4	-1E+10	1	-1E+10	1	-1E+10	1	-1E+10	1	-1E+10	1	-1E+10	1
4902551	53	C	01/27/2022	09:05	-132.966	49.494	0	247.90	0	5.1050	0	33.8290	0	26.737	0	245.639	0	92.8	4	30.0	4	-1E+10	1	-1E+10	1	-1E+10	1	-1E+10	1	-1E+10	1	-1E+10	1
4902551	53	C	01/27/2022	09:05	-132.966	49.494	0	248.90	0	5.0920	0	33.8300	0	26.740	0	246.629	0	92.5	4	29.9	4	-1E+10	1	-1E+10	1	-1E+10	1	-1E+10	1	-1E+10	1	-1E+10	1
4902551	53	C	01/27/2022	09:05	-132.966	49.494	0	249.90	0	5.0800	0	33.8320	0	26.742	0	247.619	0	92.2	4	29.8	4	-1E+10	1	-1E+10	1	-1E+10	1	-1E+10	1	-1E+10	1	-1E+10	1
4902551	53	C	01/27/2022	09:05	-132.966	49.494	0	250.90	0	5.0780	0	33.8320	0	26.743	0	248.610	0	91.9	4	29.7	4	-1E+10	1	-1E+10	1	-1E+10	1	-1E+10	1	-1E+10	1	-1E+10	1
4902551	53	C	01/27/2022	09:05	-132.966	49.494	0	251.90	0	5.0730	0	33.8320	0	26.743	0	249.600	0	91.5	4	29.6	4	-1E+10	1	-1E+10	1	-1E+10	1	-1E+10	1	-1E+10	1	-1E+10	1
4902551	53	C	01/27/2022	09:05	-132.966	49.494	0	252.90	0	5.0670	0	33.8330	0	26.745	0	250.590	0	91.2	4	29.5	4	-1E+10	1	-1E+10	1	-1E+10	1	-1E+10	1	-1E+10	1	-1E+10	1
4902551	53	C	01/27/2022	09:05	-132.966	49.494	0	253.90	0	5.0580	0	33.8350	0	26.747	0	251.580	0	90.8	4	29.3	4	-1E+10	1	-1E+10	1	-1E+10	1	-1E+10	1	-1E+10	1	-1E+10	1
4902551	53	C	01/27/2022	09:05	-132.966	49.494	0	254.90	0	5.0540	0	33.8340	0	26.747	0	252.571	0	90.5	4	29.2	4	-1E+10	1	-1E+10	1	-1E+10	1	-1E+10	1	-1E+10	1	-1E+10	1
4902551	53	C	01/27/2022	09:05	-132.966	49.494	0	255.90	0	5.0440	0	33.8350	0	26.749	0	253.561	0	90.1	4	29.1	4	-1E+10	1	-1E+10	1	-1E+10	1	-1E+10	1	-1E+10	1	-1E+10	1
4902551	53	C	01/27/2022	09:05	-132.966	49.494	0	256.90	0	5.0310	0	33.8370	0	26.752	0	254.551	0	89.8	4	29.0	4	-1E+10	1	-1E+10	1	-1E+10	1	-1E+10	1	-1E+10	1	-1E+10	1
4902551	53	C	01/27/2022	09:05	-132.966	49.494	0	257.90	0	5.0240	0	33.8380	0	26.754	0	255.541	0	89.5	4	28.9	4	-1E+10	1	-1E+10	1	-1E+10	1	-1E+10	1	-1E+10	1	-1E+10	1
4902551	53	C	01/27/2022	09:05	-132.966	49.494	0	258.90	0	5.0200	0	33.8370	0	26.753	0	256.532	0	89.2	4	28.8	4	-1E+10	1	-1E+10	1	-1E+10	1	-1E+10	1	-1E+10	1	-1E+10	1
4902551	53	C	01/27/2022	09:05	-132.966	49.494	0	259.90	0	5.0150	0	33.8380	0	26.755	0	257.522	0	88.8	4	28.6	4	-1E+10	1	-1E+10	1	-1E+10	1	-1E+10	1	-1E+10	1	-1E+10	1
4902551	53	C	01/27/2022	09:05	-132.966	49.494	0	260.90	0	5.0040	0	33.8400	0	26.758	0	258.512	0	88.5	4	28.5	4	-1E+10	1	-1E+10	1	-1E+10	1	-1E+10	1	-1E+10	1	-1E+10	1
4902551	53	C	01/27/2022	09:05	-132.966	49.494	0	261.90	0	5.0000	0	33.8390	0	26.757	0	259.502	0	88.2	4	28.5	4	-1E+10	1	-1E+10	1	-1E+10	1	-1E+10	1	-1E+10	1	-1E+10	1
4902551	53	C	01/27/2022	09:05	-132.966	49.494	0	262.90	0	4.9950	0	33.8400	0	26.759	0	260.492	0	87.9	4	28.4	4	-1E+10	1	-1E+10	1	-1E+10	1	-1E+10	1	-1E+10	1	-1E+10	1
4902551	53	C	01/27/2022	09:05	-132.966	49.494	0	263.90	0	4.9880	0	33.8400	0	26.759	0	261.483	0	87.6	4	28.2	4	-1E+10	1	-1E+10	1	-1E+10	1	-1E+10	1	-1E+10	1	-1E+10	1
4902551	53	C	01/27/2022	09:05	-132.966	49.494	0	264.90	0	4.9720	0	33.8420	0	26.763	0	262.473	0	87.3	4	28.1	4	-1E+10	1	-1E+10	1	-1E+10	1	-1E+10	1	-1E+10	1	-1E+10	1
4902551	53	C	01/27/2022	09:05	-132.966	49.494	0	265.90	0	4.9700	0	33.8420	0	26.763	0	263.463	0	87.1	4	28.1	4	-1E+10	1	-1E+10	1	-1E+10	1	-1E+10	1	-1E+10	1	-1E+10	1
4902551	53	C	01/27/2022	09:05	-132.966	49.494	0	266.90	0	4.9700	0	33.8420	0	26.763	0	264.453	0	86.7	4	28.0	4	-1E+10	1	-1E+10	1	-1E+10	1	-1E+10	1	-1E+10	1	-1E+10	1
4902551	53	C	01/27/2022	09:05	-132.966	49.494	0	267.90	0	4.9670	0	33.8430	0	26.764	0	265.443	0	86.4	4	27.8	4	-1E+10	1	-1E+10	1	-1E+10	1	-1E+10	1	-1E+10	1	-1E+10	1
4902551	53	C	01/27/2022	09:05	-132.966	49.494	0	268.80	0	4.9610	0	33.8430	0	26.765	0	266.335	0	86.0	4	27.7	4	-1E+10	1	-1E+10	1	-1E+10	1	-1E+10	1	-1E+10	1	-1E+10	1
4902551	53	C	01/27/2022	09:05	-132.966	49.494	0	269.80	0	4.9510	0	33.8440	0	26.767	0	267.325	0	85.7	4	27.6	4	-1E+10	1	-1E+10	1	-1E+10	1	-1E+10	1	-1E+10	1	-1E+10	1
4902551	53	C	01/27/2022	09:05	-132.966	49.494	0	270.80	0	4.9470	0	33.8450	0	26.768	0	268.315	0	85.4	4	27.5	4	-1E+10	1	-1E+10	1	-1E+10	1	-1E+10	1	-1E+10	1	-1E+10	1
4902551	53	C	01/27/2022	09:05	-132.966	49.494	0	271.80	0	4.9440	0	33.8450	0	26.768	0	269.305	0	85.0	4	27.4	4	-1E+10	1	-1E+10	1	-1E+10	1	-1E+10	1	-1E+10	1	-1E+10	1
4902551	53	C	01/27/2022	09:05	-132.966	49.494	0	272.70	0	4.9420	0	33.8460	0	26.769	0	270.196	0	84.6	4	27.3	4	-1E+10	1	-1E+10	1	-1E+10	1	-1E+10	1	-1E+10	1	-1E+10	1
4902551	53	C	01/27/2022	09:05	-132.966	49.494	0	273.70	0	4.9280	0	33.8470	0	26.772	0	271.186	0	84.3	4	27.1	4	-1E+10	1	-1E+10	1	-1E+10	1	-1E+10	1	-1E+10	1	-1E+10	1
4902551	53	C	01/27/2022	09:05	-132.966	49.494	0	274.70	0	4.9210	0	33.8460	0	26.772	0	272.177	0	84.0	4	27.0	4	-1E+10	1	-1E+10	1	-1E+10	1	-1E+10	1	-1E+10	1	-1E+10	1
4902551	53	C	01/27/2022	09:05	-132.966	49.494	0	275.60	0	4.9130	0	33.8470	0	26.773	0	273.068	0	83.7	4	26.9	4	-1E+10	1	-1E+10	1	-1E+10	1	-1E+10	1	-1E+10	1	-1E+10	1
4902551	53	C	01/27/2022	09:05	-132.966	49.494	0	276.70	0	4.9020	0	33.8490	0	26.776	0	274.157	0	83.5	4	26.9	4	-1E+10	1	-1E+10	1	-1E+10	1	-1E+10	1	-1E+10	1	-1E+10	1
4902551	53	C	01/27/2022	09:05	-132.966	49.494	0	277.70	0	4.8990	0	33.8510	0	26.778	0	275.147	0	83.2	4	26.8	4	-1E+10	1	-1E+10	1	-1E+10	1	-1E+10	1	-1E+10	1	-1E+10	1
4902551	53	C	01/27/2022	09:05	-132.966	49.494	0	278.70	0	4.8900	0	33.8520	0	26.780	0	276.137	0	83.0	4	26.7	4	-1E+10	1	-1E+10	1	-1E+10	1	-1E+10	1	-1E+10	1	-1E+10	1
4902551	53	C	01/27/2022	09:05	-132.966	49.494	0	279.70	0	4.8900	0	33.8520	0	26.780	0	277.127	0	82.8	4	26.7	4	-1E+10	1	-1E+10	1	-1E+10	1	-1E+10	1	-1E+10	1	-1E+10	1
4902551	53	C	01/27/2022	09:05	-132.966	49.494	0	280.70	0	4.8890	0	33.8520	0	26.780	0	278.117	0	82.6	4	26.6	4	-1E+10	1	-1E+10	1	-1E+10	1	-1E+10	1	-1E+10	1	-1E+10	1
4902551	53	C	01/27/2022	09:05	-132.966	49.494	0	281.70	0	4.8890	0	33.8520	0	26.780	0	279.108	0	82.3	4	26.5	4	-1E+10	1	-1E+10	1	-1E+10	1	-1E+10	1	-1E+10	1	-1E+10	1
4902551	53	C	01/27/2022	09:05	-132.966	49.494	0	282.70	0	4.8850	0	33.8530	0	26.781	0	280.098	0	82.1	4	26.4	4	-1E+10	1	-1E+10	1	-1E+10	1	-1E+10	1	-1E+10	1	-1E+10	1
4902551	53	C	01/27/2022	09:05	-132.966	49.494	0	283.70	0	4.8860	0	33.8540	0	26.782	0	281.088	0	81.7	4	26.3	4	-1E+10	1	-1E+10	1	-1E+10	1	-1E+10	1	-1E+10	1	-1E+10	1
4902551	53	C	01/27/2022	09:05	-132.966	49.494	0	284.70	0	4.8880	0	33.8520	0	26.780	0	282.078	0	81.4	4	26.2	4	-1E+10	1	-1E+10	1	-1E+10	1	-1E+10	1	-1E+10	1	-1E+10	1
4902551	53	C	01/27/2022	09:05	-132.966	49.494	0	285.70	0	4.8880	0	33.8520	0	26.780	0	283.068	0	81.0	4	26.0	4	-1E+10	1	-1E+10	1	-1E+10	1	-1E+10	1	-1E+10	1	-1E+10	1
4902551	53	C	01/27/2022	09:05	-132.966	49.494	0	286.70	0	4.8860	0	33.8530	0	26.781	0	284.058	0	80.5	4	25.9	4	-1E+10	1	-1E+10	1	-1E+10	1	-1E+10	1	-1E+10	1	-1E+10	1
4902551	53	C	01/27/2022	09:05	-132.966	49.494	0	287.70	0	4.8730	0	33.8540	0	26.784	0	285.048	0	80.1	4	25.8	4	-1E+10	1	-1E+10	1	-1E+10	1	-1E+10	1	-1E+10	1	-1E+10	1
4902551	53	C	01/27/2022	09:05	-132.966	49.494	0	288.70	0	4.8700	0	33.8550	0	26.785	0	286.038	0	79.6	4	25.6	4	-1E+10	1	-1E+10	1	-1E+10	1	-1E+10	1	-1E+10	1	-1E+10	1
4902551	53	C	01/27/2022	09:05	-132.966	49.494	0	289.70	0	4.8620	0	33.8570	0	26.787	0	287.028	0	79.1	4	25.4	4	-1E+10	1	-1E+10	1	-1E+10	1	-1E+10	1	-1E+10	1	-1E+10	1
4902551	53	C	01/27/2022	09:05	-132.966	49.494	0	290.80	0	4.8560	0	33.8570	0	26.788	0	288.118	0	78.6	4	25.3	4	-1E+10	1	-1E+10	1	-1E+10	1	-1E+10	1	-1E+10	1	-1E+10	1
4902551	53	C	01/27/2022	09:05	-132.966	49.494	0	291.80	0	4.8520	0	33.8580	0	26.789	0	289.108	0	78.2	4	25.1	4	-1E+10	1	-1E+10	1	-1E+10	1	-1E+10	1	-1E+10	1	-1E+10	1
4902551	53	C	01/27/2022	09:05	-132.966	49.494	0	292.80	0	4.8450	0	33.8590	0	26.791	0	290.098	0	77.7	4	25.0	4	-1E+10	1	-1E+10	1	-1E+10	1	-1E+10	1	-1E+10	1	-1E+10	1
4902551	53	C	01/27/2022	09:05	-132.966	49.494	0	293.80	0	4.8390	0	33.8590	0	26.791	0	291.088	0	77.2	4	24.8	4	-1E+10	1	-1E+10	1	-1E+10	1	-1E+10	1	-1E+10	1	-1E+10	1
4902551	53	C	01/27/2022	09:05	-132.966	49.494	0	294.90	0	4.8330	0	33.8600	0	26.793	0	292.177	0	76.6	4	24.6	4	-1E+10	1	-1E+10	1	-1E+10	1	-1E+10	1	-1E+10	1	-1E+10	1
4902551	53	C	01/27/2022	09:05	-132.966	49.494	0	295.90	0	4.8160	0	33.8630	0	26.797	0	293.167	0	76.1	4	24.5	4	-1E+10	1	-1E+10	1	-1E+10	1	-1E+10	1	-1E+10	1	-1E+10	1
4902551	53	C	01/27/2022	09:05	-132.966	49.494	0	296.90	0	4.8120	0	33.8630	0	26.798	0	294.157	0	75.6	4	24.3	4	-1E+10	1	-1E+10	1	-1E+10	1	-1E+10	1	-1E+10	1	-1E+10	1
4902551	53	C	01/27/2022	09:05	-132.966	49.494	0	297.90	0	4.8080	0	33.8640	0	26.799	0	295.147	0	75.1	4	24.1	4	-1E+10	1	-1E+10	1	-1E+10	1	-1E+10	1	-1E+10	1	-1E+10	1
4902551	53	C	01/27/2022	09:05	-132.966	49.494	0	298.80	0	4.8040	0	33.8650	0	26.800	0	296.038	0	74.6	4	23.9	4	-1E+10	1	-1E+10	1	-1E+10	1	-1E+10	1	-1E+10	1	-1E+10	1
4902551	53	C	01/27/2022	09:05	-132.966	49.494	0	299.80	0	4.7920	0	33.8670	0	26.803	0	297.028	0	73.8	4	23.7	4	-1E+10	1	-1E+10	1	-1E+10	1	-1E+10	1	-1E+10	1	-1E+10	1
4902551	53	C	01/27/2022	09:05	-132.966	49.494	0	301.00	0	4.7860	0	33.8670	0	26.804	0	298.216	0	73.0	4	23.4	4	-1E+10	1	-1E+10	1	-1E+10	1	-1E+10	1	-1E+10	1	-1E+10	1
4902551	53	C	01/27/2022	09:05	-132.966	49.494	0	302.10	0	4.7660	0	33.8730	0	26.811	0	299.305	0	72.4	4	23.2	4	-1E+10	1	-1E+10	1	-1E+10	1	-1E+10	1	-1E+10	1	-1E+10	1
4902551	53	C	01/27/2022	09:05	-132.966	49.494	0	302.90	0	4.7510	0	33.8740	0	26.813	0	300.097	0	72.1	4	23.1	4	-1E+10	1	-1E+10	1	-1E+10	1	-1E+10	1	-1E+10	1	-1E+10	1
4902551	53	C	01/27/2022	09:05	-132.966	49.494	0	304.00	0	4.7430	0	33.8760	0	26.816	0	301.186	0	71.6	4	23.0	4	-1E+10	1	-1E+10	1	-1E+10	1	-1E+10	1	-1E+10	1	-1E+10	1
4902551	53	C	01/27/2022	09:05	-132.966	49.494	0	305.20	0	4.7330	0	33.8770	0	26.818	0	302.374	0	71.2	4	22.8	4	-1E+10	1	-1E+10	1	-1E+10	1	-1E+10	1	-1E+10	1	-1E+10	1
4902551	53	C	01/27/2022	09:05	-132.966	49.494	0	306.00	0	4.7320	0	33.8780	0	26.818	0	303.166	0	70.9	4	22.7	4	-1E+10	1	-1E+10	1	-1E+10	1	-1E+10	1	-1E+10	1	-1E+10	1
4902551	53	C	01/27/2022	09:05	-132.966	49.494	0	306.80	0	4.7260	0	33.8800	0	26.821	0	303.958	0	70.6	4	22.6	4	-1E+10	1	-1E+10	1	-1E+10	1	-1E+10	1	-1E+10	1	-1E+10	1
4902551	53	C	01/27/2022	09:05	-132.966	49.494	0	307.90	0	4.7220	0	33.8800	0	26.821	0	305.047	0	70.1	4	22.5	4	-1E+10	1	-1E+10	1	-1E+10	1	-1E+10	1	-1E+10	1	-1E+10	1
4902551	53	C	01/27/2022	09:05	-132.966	49.494	0	309.10	0	4.7220	0	33.8800	0	26.821	0	306.235	0	69.6	4	22.3	4	-1E+10	1	-1E+10	1	-1E+10	1	-1E+10	1	-1E+10	1	-1E+10	1
4902551	53	C	01/27/2022	09:05	-132.966	49.494	0	309.90	0	4.7210	0	33.8800	0	26.821	0	307.027	0	69.2	4	22.2	4	-1E+10	1	-1E+10	1	-1E+10	1	-1E+10	1	-1E+10	1	-1E+10	1
4902551	53	C	01/27/2022	09:05	-132.966	49.494	0	310.70	0	4.7190	0	33.8800	0	26.822	0	307.819	0	68.8	4	22.0	4	-1E+10	1	-1E+10	1	-1E+10	1	-1E+10	1	-1E+10	1	-1E+10	1
4902551	53	C	01/27/2022	09:05	-132.966	49.494	0	311.90	0	4.7180	0	33.8790	0	26.821	0	309.007	0	68.0	4	21.8	4	-1E+10	1	-1E+10	1	-1E+10	1	-1E+10	1	-1E+10	1	-1E+10	1
4902551	53	C	01/27/2022	09:05	-132.966	49.494	0	313.10	0	4.7060	0	33.8820	0	26.825	0	310.195	0	67.3	4	21.6	4	-1E+10	1	-1E+10	1	-1E+10	1	-1E+10	1	-1E+10	1	-1E+10	1
4902551	53	C	01/27/2022	09:05	-132.966	49.494	0	313.90	0	4.7010	0	33.8830	0	26.826	0	310.987	0	66.9	4	21.4	4	-1E+10	1	-1E+10	1	-1E+10	1	-1E+10	1	-1E+10	1	-1E+10	1
4902551	53	C	01/27/2022	09:05	-132.966	49.494	0	314.70	0	4.6940	0	33.8830	0	26.827	0	311.779	0	66.5	4	21.3	4	-1E+10	1	-1E+10	1	-1E+10	1	-1E+10	1	-1E+10	1	-1E+10	1
4902551	53	C	01/27/2022	09:05	-132.966	49.494	0	315.90	0	4.6730	0	33.8860	0	26.831	0	312.967	0	66.0	4	21.1	4	-1E+10	1	-1E+10	1	-1E+10	1	-1E+10	1	-1E+10	1	-1E+10	1
4902551	53	C	01/27/2022	09:05	-132.966	49.494	0	317.10	0	4.6600	0	33.8900	0	26.836	0	314.155	0	65.4	4	20.9	4	-1E+10	1	-1E+10	1	-1E+10	1	-1E+10	1	-1E+10	1	-1E+10	1
4902551	53	C	01/27/2022	09:05	-132.966	49.494	0	317.80	0	4.6550	0	33.8900	0	26.837	0	314.848	0	65.1	4	20.8	4	-1E+10	1	-1E+10	1	-1E+10	1	-1E+10	1	-1E+10	1	-1E+10	1
4902551	53	C	01/27/2022	09:05	-132.966	49.494	0	319.00	0	4.6460	0	33.8920	0	26.839	0	316.036	0	64.5	4	20.6	4	-1E+10	1	-1E+10	1	-1E+10	1	-1E+10	1	-1E+10	1	-1E+10	1
4902551	53	C	01/27/2022	09:05	-132.966	49.494	0	320.30	0	4.6430	0	33.8930	0	26.840	0	317.323	0	64.0	4	20.5	4	-1E+10	1	-1E+10	1	-1E+10	1	-1E+10	1	-1E+10	1	-1E+10	1
4902551	53	C	01/27/2022	09:05	-132.966	49.494	0	321.10	0	4.6400	0	33.8940	0	26.841	0	318.115	0	63.7	4	20.4	4	-1E+10	1	-1E+10	1	-1E+10	1	-1E+10	1	-1E+10	1	-1E+10	1
4902551	53	C	01/27/2022	09:05	-132.966	49.494	0	321.90	0	4.6310	0	33.8960	0	26.844	0	318.907	0	63.4	4	20.3	4	-1E+10	1	-1E+10	1	-1E+10	1	-1E+10	1	-1E+10	1	-1E+10	1
4902551	53	C	01/27/2022	09:05	-132.966	49.494	0	322.70	0	4.6240	0	33.8970	0	26.846	0	319.699	0	63.1	4	20.2	4	-1E+10	1	-1E+10	1	-1E+10	1	-1E+10	1	-1E+10	1	-1E+10	1
4902551	53	C	01/27/2022	09:05	-132.966	49.494	0	323.90	0	4.6200	0	33.8980	0	26.847	0	320.887	0	62.7	4	20.1	4	-1E+10	1	-1E+10	1	-1E+10	1	-1E+10	1	-1E+10	1	-1E+10	1
4902551	53	C	01/27/2022	09:05	-132.966	49.494	0	325.10	0	4.6120	0	33.9000	0	26.849	0	322.074	0	62.3	4	19.9	4	-1E+10	1	-1E+10	1	-1E+10	1	-1E+10	1	-1E+10	1	-1E+10	1
4902551	53	C	01/27/2022	09:05	-132.966	49.494	0	326.00	0	4.6080	0	33.9000	0	26.850	0	322.965	0	62.0	4	19.8	4	-1E+10	1	-1E+10	1	-1E+10	1	-1E+10	1	-1E+10	1	-1E+10	1
4902551	53	C	01/27/2022	09:05	-132.966	49.494	0	326.80	0	4.6070	0	33.9010	0	26.851	0	323.757	0	61.8	4	19.7	4	-1E+10	1	-1E+10	1	-1E+10	1	-1E+10	1	-1E+10	1	-1E+10	1
4902551	53	C	01/27/2022	09:05	-132.966	49.494	0	327.70	0	4.6050	0	33.9010	0	26.851	0	324.648	0	61.5	4	19.6	4	-1E+10	1	-1E+10	1	-1E+10	1	-1E+10	1	-1E+10	1	-1E+10	1
4902551	53	C	01/27/2022	09:05	-132.966	49.494	0	328.90	0	4.5980	0	33.9020	0	26.852	0	325.836	0	61.0	4	19.5	4	-1E+10	1	-1E+10	1	-1E+10	1	-1E+10	1	-1E+10	1	-1E+10	1
4902551	53	C	01/27/2022	09:05	-132.966	49.494	0	330.20	0	4.5900	0	33.9040	0	26.855	0	327.123	0	60.6	4	19.4	4	-1E+10	1	-1E+10	1	-1E+10	1	-1E+10	1	-1E+10	1	-1E+10	1
4902551	53	C	01/27/2022	09:05	-132.966	49.494	0	331.10	0	4.5890	0	33.9050	0	26.856	0	328.014	0	60.3	4	19.3	4	-1E+10	1	-1E+10	1	-1E+10	1	-1E+10	1	-1E+10	1	-1E+10	1
4902551	53	C	01/27/2022	09:05	-132.966	49.494	0	331.90	0	4.5880	0	33.9050	0	26.856	0	328.806	0	60.0	4	19.2	4	-1E+10	1	-1E+10	1	-1E+10	1	-1E+10	1	-1E+10	1	-1E+10	1
4902551	53	C	01/27/2022	09:05	-132.966	49.494	0	332.80	0	4.5820	0	33.9070	0	26.858	0	329.697	0	59.7	4	19.1	4	-1E+10	1	-1E+10	1	-1E+10	1	-1E+10	1	-1E+10	1	-1E+10	1
4902551	53	C	01/27/2022	09:05	-132.966	49.494	0	333.60	0	4.5820	0	33.9070	0	26.858	0	330.489	0	59.5	4	19.0	4	-1E+10	1	-1E+10	1	-1E+10	1	-1E+10	1	-1E+10	1	-1E+10	1
4902551	53	C	01/27/2022	09:05	-132.966	49.494	0	334.90	0	4.5800	0	33.9080	0	26.859	0	331.775	0	59.2	4	18.9	4	-1E+10	1	-1E+10	1	-1E+10	1	-1E+10	1	-1E+10	1	-1E+10	1
4902551	53	C	01/27/2022	09:05	-132.966	49.494	0	336.20	0	4.5780	0	33.9090	0	26.860	0	333.062	0	58.8	4	18.8	4	-1E+10	1	-1E+10	1	-1E+10	1	-1E+10	1	-1E+10	1	-1E+10	1
4902551	53	C	01/27/2022	09:05	-132.966	49.494	0	337.00	0	4.5720	0	33.9100	0	26.862	0	333.854	0	58.6	4	18.7	4	-1E+10	1	-1E+10	1	-1E+10	1	-1E+10	1	-1E+10	1	-1E+10	1
4902551	53	C	01/27/2022	09:05	-132.966	49.494	0	337.90	0	4.5640	0	33.9120	0	26.864	0	334.745	0	58.3	4	18.6	4	-1E+10	1	-1E+10	1	-1E+10	1	-1E+10	1	-1E+10	1	-1E+10	1
4902551	53	C	01/27/2022	09:05	-132.966	49.494	0	338.70	0	4.5630	0	33.9100	0	26.863	0	335.537	0	58.0	4	18.5	4	-1E+10	1	-1E+10	1	-1E+10	1	-1E+10	1	-1E+10	1	-1E+10	1
4902551	53	C	01/27/2022	09:05	-132.966	49.494	0	339.60	0	4.5630	0	33.9100	0	26.863	0	336.428	0	57.8	4	18.5	4	-1E+10	1	-1E+10	1	-1E+10	1	-1E+10	1	-1E+10	1	-1E+10	1
4902551	53	C	01/27/2022	09:05	-132.966	49.494	0	340.90	0	4.5530	0	33.9130	0	26.866	0	337.715	0	57.5	4	18.4	4	-1E+10	1	-1E+10	1	-1E+10	1	-1E+10	1	-1E+10	1	-1E+10	1
4902551	53	C	01/27/2022	09:05	-132.966	49.494	0	342.20	0	4.5520	0	33.9140	0	26.867	0	339.001	0	57.2	4	18.2	4	-1E+10	1	-1E+10	1	-1E+10	1	-1E+10	1	-1E+10	1	-1E+10	1
4902551	53	C	01/27/2022	09:05	-132.966	49.494	0	343.10	0	4.5500	0	33.9150	0	26.868	0	339.892	0	57.0	4	18.2	4	-1E+10	1	-1E+10	1	-1E+10	1	-1E+10	1	-1E+10	1	-1E+10	1
4902551	53	C	01/27/2022	09:05	-132.966	49.494	0	343.90	0	4.5480	0	33.9160	0	26.869	0	340.684	0	56.7	4	18.1	4	-1E+10	1	-1E+10	1	-1E+10	1	-1E+10	1	-1E+10	1	-1E+10	1
4902551	53	C	01/27/2022	09:05	-132.966	49.494	0	344.80	0	4.5460	0	33.9160	0	26.869	0	341.575	0	56.4	4	18.0	4	-1E+10	1	-1E+10	1	-1E+10	1	-1E+10	1	-1E+10	1	-1E+10	1
4902551	53	C	01/27/2022	09:05	-132.966	49.494	0	345.70	0	4.5460	0	33.9160	0	26.869	0	342.466	0	56.2	4	17.9	4	-1E+10	1	-1E+10	1	-1E+10	1	-1E+10	1	-1E+10	1	-1E+10	1
4902551	53	C	01/27/2022	09:05	-132.966	49.494	0	346.60	0	4.5460	0	33.9170	0	26.870	0	343.357	0	55.9	4	17.8	4	-1E+10	1	-1E+10	1	-1E+10	1	-1E+10	1	-1E+10	1	-1E+10	1
4902551	53	C	01/27/2022	09:05	-132.966	49.494	0	347.50	0	4.5460	0	33.9170	0	26.870	0	344.247	0	55.6	4	17.8	4	-1E+10	1	-1E+10	1	-1E+10	1	-1E+10	1	-1E+10	1	-1E+10	1
4902551	53	C	01/27/2022	09:05	-132.966	49.494	0	348.90	0	4.5450	0	33.9180	0	26.871	0	345.633	0	55.1	4	17.6	4	-1E+10	1	-1E+10	1	-1E+10	1	-1E+10	1	-1E+10	1	-1E+10	1
4902551	53	C	01/27/2022	09:05	-132.966	49.494	0	350.30	0	4.5450	0	33.9190	0	26.872	0	347.019	0	54.7	4	17.4	4	-1E+10	1	-1E+10	1	-1E+10	1	-1E+10	1	-1E+10	1	-1E+10	1
4902551	53	C	01/27/2022	09:05	-132.966	49.494	0	353.00	0	4.5380	0	33.9240	0	26.877	0	349.691	0	53.8	4	17.2	4	-1E+10	1	-1E+10	1	-1E+10	1	-1E+10	1	-1E+10	1	-1E+10	1
4902551	53	C	01/27/2022	09:05	-132.966	49.494	0	357.60	0	4.5180	0	33.9320	0	26.885	0	354.244	0	52.8	4	16.9	4	-1E+10	1	-1E+10	1	-1E+10	1	-1E+10	1	-1E+10	1	-1E+10	1
4902551	53	C	01/27/2022	09:05	-132.966	49.494	0	362.80	0	4.4960	0	33.9370	0	26.891	0	359.391	0	52.0	4	16.6	4	-1E+10	1	-1E+10	1	-1E+10	1	-1E+10	1	-1E+10	1	-1E+10	1
4902551	53	C	01/27/2022	09:05	-132.966	49.494	0	368.20	0	4.4800	0	33.9430	0	26.898	0	364.735	0	51.1	4	16.3	4	-1E+10	1	-1E+10	1	-1E+10	1	-1E+10	1	-1E+10	1	-1E+10	1
4902551	53	C	01/27/2022	09:05	-132.966	49.494	0	373.10	0	4.4710	0	33.9460	0	26.901	0	369.585	0	50.1	4	16.0	4	-1E+10	1	-1E+10	1	-1E+10	1	-1E+10	1	-1E+10	1	-1E+10	1
4902551	53	C	01/27/2022	09:05	-132.966	49.494	0	378.10	0	4.4590	0	33.9530	0	26.908	0	374.533	0	49.0	4	15.6	4	-1E+10	1	-1E+10	1	-1E+10	1	-1E+10	1	-1E+10	1	-1E+10	1
4902551	53	C	01/27/2022	09:05	-132.966	49.494	0	383.20	0	4.4500	0	33.9570	0	26.912	0	379.581	0	47.9	4	15.2	4	-1E+10	1	-1E+10	1	-1E+10	1	-1E+10	1	-1E+10	1	-1E+10	1
4902551	53	C	01/27/2022	09:05	-132.966	49.494	0	387.80	0	4.4360	0	33.9640	0	26.920	0	384.133	0	46.5	4	14.8	4	-1E+10	1	-1E+10	1	-1E+10	1	-1E+10	1	-1E+10	1	-1E+10	1
4902551	53	C	01/27/2022	09:05	-132.966	49.494	0	392.50	0	4.4220	0	33.9710	0	26.927	0	388.784	0	45.4	4	14.5	4	-1E+10	1	-1E+10	1	-1E+10	1	-1E+10	1	-1E+10	1	-1E+10	1
4902551	53	C	01/27/2022	09:05	-132.966	49.494	0	397.90	0	4.4080	0	33.9770	0	26.933	0	394.128	0	44.5	4	14.2	4	-1E+10	1	-1E+10	1	-1E+10	1	-1E+10	1	-1E+10	1	-1E+10	1
4902551	53	C	01/27/2022	09:05	-132.966	49.494	0	403.20	0	4.3990	0	33.9810	0	26.937	0	399.372	0	43.6	4	13.9	4	-1E+10	1	-1E+10	1	-1E+10	1	-1E+10	1	-1E+10	1	-1E+10	1
4902551	53	C	01/27/2022	09:05	-132.966	49.494	0	408.00	0	4.3910	0	33.9850	0	26.941	0	404.122	0	42.7	4	13.6	4	-1E+10	1	-1E+10	1	-1E+10	1	-1E+10	1	-1E+10	1	-1E+10	1
4902551	53	C	01/27/2022	09:05	-132.966	49.494	0	413.00	0	4.3810	0	33.9920	0	26.948	0	409.070	0	42.1	4	13.4	4	-1E+10	1	-1E+10	1	-1E+10	1	-1E+10	1	-1E+10	1	-1E+10	1
4902551	53	C	01/27/2022	09:05	-132.966	49.494	0	417.90	0	4.3780	0	33.9940	0	26.950	0	413.918	0	41.7	4	13.3	4	-1E+10	1	-1E+10	1	-1E+10	1	-1E+10	1	-1E+10	1	-1E+10	1
4902551	53	C	01/27/2022	09:05	-132.966	49.494	0	422.70	0	4.3740	0	33.9950	0	26.951	0	418.668	0	41.1	4	13.1	4	-1E+10	1	-1E+10	1	-1E+10	1	-1E+10	1	-1E+10	1	-1E+10	1
4902551	53	C	01/27/2022	09:05	-132.966	49.494	0	428.10	0	4.3670	0	33.9990	0	26.955	0	424.011	0	40.3	4	12.8	4	-1E+10	1	-1E+10	1	-1E+10	1	-1E+10	1	-1E+10	1	-1E+10	1
4902551	53	C	01/27/2022	09:05	-132.966	49.494	0	432.90	0	4.3540	0	34.0030	0	26.960	0	428.760	0	39.6	4	12.6	4	-1E+10	1	-1E+10	1	-1E+10	1	-1E+10	1	-1E+10	1	-1E+10	1
4902551	53	C	01/27/2022	09:05	-132.966	49.494	0	437.70	0	4.3480	0	34.0060	0	26.963	0	433.509	0	38.6	4	12.3	4	-1E+10	1	-1E+10	1	-1E+10	1	-1E+10	1	-1E+10	1	-1E+10	1
4902551	53	C	01/27/2022	09:05	-132.966	49.494	0	443.10	0	4.3330	0	34.0140	0	26.971	0	438.851	0	37.5	4	11.9	4	-1E+10	1	-1E+10	1	-1E+10	1	-1E+10	1	-1E+10	1	-1E+10	1
4902551	53	C	01/27/2022	09:05	-132.966	49.494	0	447.90	0	4.3220	0	34.0180	0	26.975	0	443.600	0	36.6	4	11.6	4	-1E+10	1	-1E+10	1	-1E+10	1	-1E+10	1	-1E+10	1	-1E+10	1
4902551	53	C	01/27/2022	09:05	-132.966	49.494	0	452.60	0	4.3050	0	34.0250	0	26.982	0	448.250	0	35.5	4	11.3	4	-1E+10	1	-1E+10	1	-1E+10	1	-1E+10	1	-1E+10	1	-1E+10	1
4902551	53	C	01/27/2022	09:05	-132.966	49.494	0	458.10	0	4.2880	0	34.0340	0	26.991	0	453.691	0	34.6	4	11.0	4	-1E+10	1	-1E+10	1	-1E+10	1	-1E+10	1	-1E+10	1	-1E+10	1
4902551	53	C	01/27/2022	09:05	-132.966	49.494	0	462.90	0	4.2760	0	34.0390	0	26.997	0	458.440	0	33.9	4	10.8	4	-1E+10	1	-1E+10	1	-1E+10	1	-1E+10	1	-1E+10	1	-1E+10	1
4902551	53	C	01/27/2022	09:05	-132.966	49.494	0	467.70	0	4.2690	0	34.0420	0	27.000	0	463.188	0	33.2	4	10.5	4	-1E+10	1	-1E+10	1	-1E+10	1	-1E+10	1	-1E+10	1	-1E+10	1
4902551	53	C	01/27/2022	09:05	-132.966	49.494	0	472.90	0	4.2520	0	34.0480	0	27.006	0	468.332	0	32.2	4	10.2	4	-1E+10	1	-1E+10	1	-1E+10	1	-1E+10	1	-1E+10	1	-1E+10	1
4902551	53	C	01/27/2022	09:05	-132.966	49.494	0	478.20	0	4.2340	0	34.0560	0	27.015	0	473.575	0	31.2	4	9.9	4	-1E+10	1	-1E+10	1	-1E+10	1	-1E+10	1	-1E+10	1	-1E+10	1
4902551	53	C	01/27/2022	09:05	-132.966	49.494	0	483.00	0	4.2290	0	34.0600	0	27.018	0	478.323	0	30.6	4	9.7	4	-1E+10	1	-1E+10	1	-1E+10	1	-1E+10	1	-1E+10	1	-1E+10	1
4902551	53	C	01/27/2022	09:05	-132.966	49.494	0	487.70	0	4.2110	0	34.0670	0	27.026	0	482.972	0	30.2	4	9.6	4	-1E+10	1	-1E+10	1	-1E+10	1	-1E+10	1	-1E+10	1	-1E+10	1
4902551	53	C	01/27/2022	09:05	-132.966	49.494	0	492.90	0	4.1960	0	34.0700	0	27.030	0	488.115	0	29.8	4	9.5	4	-1E+10	1	-1E+10	1	-1E+10	1	-1E+10	1	-1E+10	1	-1E+10	1
4902551	53	C	01/27/2022	09:05	-132.966	49.494	0	498.10	0	4.1800	0	34.0770	0	27.037	0	493.259	0	29.4	4	9.3	4	-1E+10	1	-1E+10	1	-1E+10	1	-1E+10	1	-1E+10	1	-1E+10	1
4902551	53	C	01/27/2022	09:05	-132.966	49.494	0	502.80	0	4.1650	0	34.0810	0	27.042	0	497.908	0	29.2	4	9.3	4	-1E+10	1	-1E+10	1	-1E+10	1	-1E+10	1	-1E+10	1	-1E+10	1
4902551	53	C	01/27/2022	09:05	-132.966	49.494	0	507.50	0	4.1530	0	34.0830	0	27.045	0	502.556	0	28.9	4	9.1	4	-1E+10	1	-1E+10	1	-1E+10	1	-1E+10	1	-1E+10	1	-1E+10	1
4902551	53	C	01/27/2022	09:05	-132.966	49.494	0	512.80	0	4.1340	0	34.0900	0	27.052	0	507.798	0	28.5	4	9.0	4	-1E+10	1	-1E+10	1	-1E+10	1	-1E+10	1	-1E+10	1	-1E+10	1
4902551	53	C	01/27/2022	09:05	-132.966	49.494	0	517.70	0	4.1240	0	34.0930	0	27.056	0	512.644	0	28.4	4	9.0	4	-1E+10	1	-1E+10	1	-1E+10	1	-1E+10	1	-1E+10	1	-1E+10	1
4902551	53	C	01/27/2022	09:05	-132.966	49.494	0	522.60	0	4.1150	0	34.0950	0	27.058	0	517.490	0	28.2	4	8.9	4	-1E+10	1	-1E+10	1	-1E+10	1	-1E+10	1	-1E+10	1	-1E+10	1
4902551	53	C	01/27/2022	09:05	-132.966	49.494	0	527.60	0	4.1020	0	34.0980	0	27.062	0	522.435	0	27.9	4	8.8	4	-1E+10	1	-1E+10	1	-1E+10	1	-1E+10	1	-1E+10	1	-1E+10	1
4902551	53	C	01/27/2022	09:05	-132.966	49.494	0	532.70	0	4.0870	0	34.1020	0	27.067	0	527.479	0	27.8	4	8.8	4	-1E+10	1	-1E+10	1	-1E+10	1	-1E+10	1	-1E+10	1	-1E+10	1
4902551	53	C	01/27/2022	09:05	-132.966	49.494	0	537.90	0	4.0700	0	34.1050	0	27.071	0	532.621	0	27.6	4	8.7	4	-1E+10	1	-1E+10	1	-1E+10	1	-1E+10	1	-1E+10	1	-1E+10	1
4902551	53	C	01/27/2022	09:05	-132.966	49.494	0	542.70	0	4.0590	0	34.1090	0	27.075	0	537.368	0	27.3	4	8.6	4	-1E+10	1	-1E+10	1	-1E+10	1	-1E+10	1	-1E+10	1	-1E+10	1
4902551	53	C	01/27/2022	09:05	-132.966	49.494	0	547.70	0	4.0470	0	34.1120	0	27.079	0	542.312	0	26.9	4	8.5	4	-1E+10	1	-1E+10	1	-1E+10	1	-1E+10	1	-1E+10	1	-1E+10	1
4902551	53	C	01/27/2022	09:05	-132.966	49.494	0	552.70	0	4.0360	0	34.1150	0	27.083	0	547.256	0	26.3	4	8.3	4	-1E+10	1	-1E+10	1	-1E+10	1	-1E+10	1	-1E+10	1	-1E+10	1
4902551	53	C	01/27/2022	09:05	-132.966	49.494	0	557.90	0	4.0300	0	34.1180	0	27.086	0	552.398	0	25.6	4	8.1	4	-1E+10	1	-1E+10	1	-1E+10	1	-1E+10	1	-1E+10	1	-1E+10	1
4902551	53	C	01/27/2022	09:05	-132.966	49.494	0	563.00	0	4.0180	0	34.1230	0	27.091	0	557.441	0	25.0	4	7.9	4	-1E+10	1	-1E+10	1	-1E+10	1	-1E+10	1	-1E+10	1	-1E+10	1
4902551	53	C	01/27/2022	09:05	-132.966	49.494	0	567.80	0	4.0030	0	34.1280	0	27.096	0	562.187	0	24.7	4	7.8	4	-1E+10	1	-1E+10	1	-1E+10	1	-1E+10	1	-1E+10	1	-1E+10	1
4902551	53	C	01/27/2022	09:05	-132.966	49.494	0	572.60	0	3.9800	0	34.1340	0	27.104	0	566.933	0	24.3	4	7.7	4	-1E+10	1	-1E+10	1	-1E+10	1	-1E+10	1	-1E+10	1	-1E+10	1
4902551	53	C	01/27/2022	09:05	-132.966	49.494	0	577.50	0	3.9610	0	34.1400	0	27.110	0	571.778	0	23.8	4	7.5	4	-1E+10	1	-1E+10	1	-1E+10	1	-1E+10	1	-1E+10	1	-1E+10	1
4902551	53	C	01/27/2022	09:05	-132.966	49.494	0	582.50	0	3.9460	0	34.1450	0	27.116	0	576.722	0	23.6	4	7.4	4	-1E+10	1	-1E+10	1	-1E+10	1	-1E+10	1	-1E+10	1	-1E+10	1
4902551	53	C	01/27/2022	09:05	-132.966	49.494	0	587.60	0	3.9250	0	34.1500	0	27.122	0	581.764	0	23.2	4	7.3	4	-1E+10	1	-1E+10	1	-1E+10	1	-1E+10	1	-1E+10	1	-1E+10	1
4902551	53	C	01/27/2022	09:05	-132.966	49.494	0	592.60	0	3.9140	0	34.1530	0	27.126	0	586.707	0	22.8	4	7.2	4	-1E+10	1	-1E+10	1	-1E+10	1	-1E+10	1	-1E+10	1	-1E+10	1
4902551	53	C	01/27/2022	09:05	-132.966	49.494	0	597.70	0	3.8990	0	34.1570	0	27.130	0	591.749	0	22.4	4	7.1	4	-1E+10	1	-1E+10	1	-1E+10	1	-1E+10	1	-1E+10	1	-1E+10	1
4902551	53	C	01/27/2022	09:05	-132.966	49.494	0	602.80	0	3.8800	0	34.1630	0	27.137	0	596.791	0	22.1	4	7.0	4	-1E+10	1	-1E+10	1	-1E+10	1	-1E+10	1	-1E+10	1	-1E+10	1
4902551	53	C	01/27/2022	09:05	-132.966	49.494	0	607.90	0	3.8680	0	34.1660	0	27.141	0	601.833	0	21.7	4	6.8	4	-1E+10	1	-1E+10	1	-1E+10	1	-1E+10	1	-1E+10	1	-1E+10	1
4902551	53	C	01/27/2022	09:05	-132.966	49.494	0	613.10	0	3.8600	0	34.1700	0	27.145	0	606.973	0	21.2	4	6.7	4	-1E+10	1	-1E+10	1	-1E+10	1	-1E+10	1	-1E+10	1	-1E+10	1
4902551	53	C	01/27/2022	09:05	-132.966	49.494	0	617.90	0	3.8550	0	34.1730	0	27.148	0	611.718	0	20.9	4	6.6	4	-1E+10	1	-1E+10	1	-1E+10	1	-1E+10	1	-1E+10	1	-1E+10	1
4902551	53	C	01/27/2022	09:05	-132.966	49.494	0	622.70	0	3.8460	0	34.1760	0	27.151	0	616.463	0	20.7	4	6.5	4	-1E+10	1	-1E+10	1	-1E+10	1	-1E+10	1	-1E+10	1	-1E+10	1
4902551	53	C	01/27/2022	09:05	-132.966	49.494	0	628.00	0	3.8420	0	34.1780	0	27.153	0	621.702	0	20.4	4	6.4	4	-1E+10	1	-1E+10	1	-1E+10	1	-1E+10	1	-1E+10	1	-1E+10	1
4902551	53	C	01/27/2022	09:05	-132.966	49.494	0	633.30	0	3.8340	0	34.1810	0	27.156	0	626.941	0	20.2	4	6.3	4	-1E+10	1	-1E+10	1	-1E+10	1	-1E+10	1	-1E+10	1	-1E+10	1
4902551	53	C	01/27/2022	09:05	-132.966	49.494	0	638.20	0	3.8190	0	34.1850	0	27.161	0	631.785	0	20.0	4	6.3	4	-1E+10	1	-1E+10	1	-1E+10	1	-1E+10	1	-1E+10	1	-1E+10	1
4902551	53	C	01/27/2022	09:05	-132.966	49.494	0	642.90	0	3.8020	0	34.1870	0	27.164	0	636.430	0	19.8	4	6.2	4	-1E+10	1	-1E+10	1	-1E+10	1	-1E+10	1	-1E+10	1	-1E+10	1
4902551	53	C	01/27/2022	09:05	-132.966	49.494	0	648.10	0	3.7890	0	34.1920	0	27.169	0	641.570	0	19.6	4	6.1	4	-1E+10	1	-1E+10	1	-1E+10	1	-1E+10	1	-1E+10	1	-1E+10	1
4902551	53	C	01/27/2022	09:05	-132.966	49.494	0	653.00	0	3.7750	0	34.1950	0	27.173	0	646.413	0	19.4	4	6.1	4	-1E+10	1	-1E+10	1	-1E+10	1	-1E+10	1	-1E+10	1	-1E+10	1
4902551	53	C	01/27/2022	09:05	-132.966	49.494	0	657.90	0	3.7600	0	34.1970	0	27.176	0	651.256	0	19.0	4	6.0	4	-1E+10	1	-1E+10	1	-1E+10	1	-1E+10	1	-1E+10	1	-1E+10	1
4902551	53	C	01/27/2022	09:05	-132.966	49.494	0	662.90	0	3.7540	0	34.2020	0	27.181	0	656.197	0	18.5	4	5.8	4	-1E+10	1	-1E+10	1	-1E+10	1	-1E+10	1	-1E+10	1	-1E+10	1
4902551	53	C	01/27/2022	09:05	-132.966	49.494	0	667.90	0	3.7410	0	34.2070	0	27.186	0	661.139	0	18.3	4	5.8	4	-1E+10	1	-1E+10	1	-1E+10	1	-1E+10	1	-1E+10	1	-1E+10	1
4902551	53	C	01/27/2022	09:05	-132.966	49.494	0	672.90	0	3.7330	0	34.2100	0	27.190	0	666.080	0	18.2	4	5.7	4	-1E+10	1	-1E+10	1	-1E+10	1	-1E+10	1	-1E+10	1	-1E+10	1
4902551	53	C	01/27/2022	09:05	-132.966	49.494	0	677.80	0	3.7250	0	34.2110	0	27.191	0	670.923	0	18.1	4	5.7	4	-1E+10	1	-1E+10	1	-1E+10	1	-1E+10	1	-1E+10	1	-1E+10	1
4902551	53	C	01/27/2022	09:05	-132.966	49.494	0	682.80	0	3.7130	0	34.2130	0	27.194	0	675.864	0	17.8	4	5.6	4	-1E+10	1	-1E+10	1	-1E+10	1	-1E+10	1	-1E+10	1	-1E+10	1
4902551	53	C	01/27/2022	09:05	-132.966	49.494	0	687.90	0	3.6990	0	34.2180	0	27.199	0	680.904	0	17.6	4	5.5	4	-1E+10	1	-1E+10	1	-1E+10	1	-1E+10	1	-1E+10	1	-1E+10	1
4902551	53	C	01/27/2022	09:05	-132.966	49.494	0	693.10	0	3.6850	0	34.2210	0	27.203	0	686.042	0	17.4	4	5.5	4	-1E+10	1	-1E+10	1	-1E+10	1	-1E+10	1	-1E+10	1	-1E+10	1
4902551	53	C	01/27/2022	09:05	-132.966	49.494	0	698.20	0	3.6730	0	34.2240	0	27.207	0	691.082	0	17.2	4	5.4	4	-1E+10	1	-1E+10	1	-1E+10	1	-1E+10	1	-1E+10	1	-1E+10	1
4902551	53	C	01/27/2022	09:05	-132.966	49.494	0	703.20	0	3.6550	0	34.2280	0	27.212	0	696.023	0	17.0	4	5.3	4	-1E+10	1	-1E+10	1	-1E+10	1	-1E+10	1	-1E+10	1	-1E+10	1
4902551	53	C	01/27/2022	09:05	-132.966	49.494	0	708.10	0	3.6380	0	34.2330	0	27.217	0	700.864	0	16.7	4	5.2	4	-1E+10	1	-1E+10	1	-1E+10	1	-1E+10	1	-1E+10	1	-1E+10	1
4902551	53	C	01/27/2022	09:05	-132.966	49.494	0	713.00	0	3.6240	0	34.2370	0	27.222	0	705.706	0	16.5	4	5.2	4	-1E+10	1	-1E+10	1	-1E+10	1	-1E+10	1	-1E+10	1	-1E+10	1
4902551	53	C	01/27/2022	09:05	-132.966	49.494	0	717.90	0	3.6150	0	34.2390	0	27.225	0	710.548	0	16.3	4	5.1	4	-1E+10	1	-1E+10	1	-1E+10	1	-1E+10	1	-1E+10	1	-1E+10	1
4902551	53	C	01/27/2022	09:05	-132.966	49.494	0	722.90	0	3.6100	0	34.2410	0	27.227	0	715.488	0	16.0	4	5.0	4	-1E+10	1	-1E+10	1	-1E+10	1	-1E+10	1	-1E+10	1	-1E+10	1
4902551	53	C	01/27/2022	09:05	-132.966	49.494	0	727.90	0	3.6060	0	34.2440	0	27.229	0	720.428	0	15.6	4	4.9	4	-1E+10	1	-1E+10	1	-1E+10	1	-1E+10	1	-1E+10	1	-1E+10	1
4902551	53	C	01/27/2022	09:05	-132.966	49.494	0	732.90	0	3.5990	0	34.2490	0	27.234	0	725.368	0	15.3	4	4.8	4	-1E+10	1	-1E+10	1	-1E+10	1	-1E+10	1	-1E+10	1	-1E+10	1
4902551	53	C	01/27/2022	09:05	-132.966	49.494	0	738.00	0	3.5790	0	34.2540	0	27.240	0	730.406	0	15.2	4	4.8	4	-1E+10	1	-1E+10	1	-1E+10	1	-1E+10	1	-1E+10	1	-1E+10	1
4902551	53	C	01/27/2022	09:05	-132.966	49.494	0	743.20	0	3.5640	0	34.2570	0	27.244	0	735.544	0	15.1	4	4.7	4	-1E+10	1	-1E+10	1	-1E+10	1	-1E+10	1	-1E+10	1	-1E+10	1
4902551	53	C	01/27/2022	09:05	-132.966	49.494	0	748.00	0	3.5530	0	34.2600	0	27.247	0	740.286	0	15.0	4	4.7	4	-1E+10	1	-1E+10	1	-1E+10	1	-1E+10	1	-1E+10	1	-1E+10	1
4902551	53	C	01/27/2022	09:05	-132.966	49.494	0	752.90	0	3.5440	0	34.2610	0	27.249	0	745.127	0	14.9	4	4.7	4	-1E+10	1	-1E+10	1	-1E+10	1	-1E+10	1	-1E+10	1	-1E+10	1
4902551	53	C	01/27/2022	09:05	-132.966	49.494	0	757.90	0	3.5320	0	34.2640	0	27.253	0	750.066	0	14.7	4	4.6	4	-1E+10	1	-1E+10	1	-1E+10	1	-1E+10	1	-1E+10	1	-1E+10	1
4902551	53	C	01/27/2022	09:05	-132.966	49.494	0	762.90	0	3.5210	0	34.2680	0	27.257	0	755.005	0	14.6	4	4.6	4	-1E+10	1	-1E+10	1	-1E+10	1	-1E+10	1	-1E+10	1	-1E+10	1
4902551	53	C	01/27/2022	09:05	-132.966	49.494	0	768.10	0	3.5130	0	34.2700	0	27.259	0	760.142	0	14.7	4	4.6	4	-1E+10	1	-1E+10	1	-1E+10	1	-1E+10	1	-1E+10	1	-1E+10	1
4902551	53	C	01/27/2022	09:05	-132.966	49.494	0	772.80	0	3.5010	0	34.2710	0	27.261	0	764.785	0	14.7	4	4.6	4	-1E+10	1	-1E+10	1	-1E+10	1	-1E+10	1	-1E+10	1	-1E+10	1
4902551	53	C	01/27/2022	09:05	-132.966	49.494	0	777.60	0	3.4960	0	34.2730	0	27.264	0	769.526	0	14.6	4	4.6	4	-1E+10	1	-1E+10	1	-1E+10	1	-1E+10	1	-1E+10	1	-1E+10	1
4902551	53	C	01/27/2022	09:05	-132.966	49.494	0	782.90	0	3.4890	0	34.2750	0	27.266	0	774.761	0	14.5	4	4.5	4	-1E+10	1	-1E+10	1	-1E+10	1	-1E+10	1	-1E+10	1	-1E+10	1
4902551	53	C	01/27/2022	09:05	-132.966	49.494	0	788.10	0	3.4810	0	34.2770	0	27.268	0	779.897	0	14.4	4	4.5	4	-1E+10	1	-1E+10	1	-1E+10	1	-1E+10	1	-1E+10	1	-1E+10	1
4902551	53	C	01/27/2022	09:05	-132.966	49.494	0	792.90	0	3.4690	0	34.2800	0	27.272	0	784.638	0	14.3	4	4.5	4	-1E+10	1	-1E+10	1	-1E+10	1	-1E+10	1	-1E+10	1	-1E+10	1
4902551	53	C	01/27/2022	09:05	-132.966	49.494	0	797.70	0	3.4620	0	34.2810	0	27.273	0	789.379	0	14.3	4	4.5	4	-1E+10	1	-1E+10	1	-1E+10	1	-1E+10	1	-1E+10	1	-1E+10	1
4902551	53	C	01/27/2022	09:05	-132.966	49.494	0	802.90	0	3.4570	0	34.2820	0	27.275	0	794.515	0	14.2	4	4.4	4	-1E+10	1	-1E+10	1	-1E+10	1	-1E+10	1	-1E+10	1	-1E+10	1
4902551	53	C	01/27/2022	09:05	-132.966	49.494	0	808.10	0	3.4410	0	34.2850	0	27.279	0	799.651	0	14.1	4	4.4	4	-1E+10	1	-1E+10	1	-1E+10	1	-1E+10	1	-1E+10	1	-1E+10	1
4902551	53	C	01/27/2022	09:05	-132.966	49.494	0	812.90	0	3.4290	0	34.2880	0	27.282	0	804.392	0	14.0	4	4.4	4	-1E+10	1	-1E+10	1	-1E+10	1	-1E+10	1	-1E+10	1	-1E+10	1
4902551	53	C	01/27/2022	09:05	-132.966	49.494	0	817.70	0	3.4180	0	34.2910	0	27.286	0	809.132	0	14.0	4	4.4	4	-1E+10	1	-1E+10	1	-1E+10	1	-1E+10	1	-1E+10	1	-1E+10	1
4902551	53	C	01/27/2022	09:05	-132.966	49.494	0	822.60	0	3.4070	0	34.2930	0	27.288	0	813.971	0	13.9	4	4.3	4	-1E+10	1	-1E+10	1	-1E+10	1	-1E+10	1	-1E+10	1	-1E+10	1
4902551	53	C	01/27/2022	09:05	-132.966	49.494	0	827.50	0	3.3940	0	34.2950	0	27.291	0	818.810	0	13.8	4	4.3	4	-1E+10	1	-1E+10	1	-1E+10	1	-1E+10	1	-1E+10	1	-1E+10	1
4902551	53	C	01/27/2022	09:05	-132.966	49.494	0	832.50	0	3.3750	0	34.2990	0	27.296	0	823.748	0	13.7	4	4.3	4	-1E+10	1	-1E+10	1	-1E+10	1	-1E+10	1	-1E+10	1	-1E+10	1
4902551	53	C	01/27/2022	09:05	-132.966	49.494	0	837.50	0	3.3580	0	34.3030	0	27.301	0	828.685	0	13.6	4	4.2	4	-1E+10	1	-1E+10	1	-1E+10	1	-1E+10	1	-1E+10	1	-1E+10	1
4902551	53	C	01/27/2022	09:05	-132.966	49.494	0	842.60	0	3.3470	0	34.3060	0	27.304	0	833.721	0	13.6	4	4.2	4	-1E+10	1	-1E+10	1	-1E+10	1	-1E+10	1	-1E+10	1	-1E+10	1
4902551	53	C	01/27/2022	09:05	-132.966	49.494	0	847.70	0	3.3360	0	34.3080	0	27.307	0	838.758	0	13.5	4	4.2	4	-1E+10	1	-1E+10	1	-1E+10	1	-1E+10	1	-1E+10	1	-1E+10	1
4902551	53	C	01/27/2022	09:05	-132.966	49.494	0	853.00	0	3.3240	0	34.3110	0	27.311	0	843.991	0	13.5	4	4.2	4	-1E+10	1	-1E+10	1	-1E+10	1	-1E+10	1	-1E+10	1	-1E+10	1
4902551	53	C	01/27/2022	09:05	-132.966	49.494	0	858.10	0	3.3160	0	34.3120	0	27.312	0	849.027	0	13.4	4	4.2	4	-1E+10	1	-1E+10	1	-1E+10	1	-1E+10	1	-1E+10	1	-1E+10	1
4902551	53	C	01/27/2022	09:05	-132.966	49.494	0	862.90	0	3.3090	0	34.3130	0	27.314	0	853.766	0	13.4	4	4.2	4	-1E+10	1	-1E+10	1	-1E+10	1	-1E+10	1	-1E+10	1	-1E+10	1
4902551	53	C	01/27/2022	09:05	-132.966	49.494	0	867.80	0	3.2940	0	34.3160	0	27.318	0	858.604	0	13.4	4	4.1	4	-1E+10	1	-1E+10	1	-1E+10	1	-1E+10	1	-1E+10	1	-1E+10	1
4902551	53	C	01/27/2022	09:05	-132.966	49.494	0	872.70	0	3.2840	0	34.3180	0	27.320	0	863.442	0	13.3	4	4.1	4	-1E+10	1	-1E+10	1	-1E+10	1	-1E+10	1	-1E+10	1	-1E+10	1
4902551	53	C	01/27/2022	09:05	-132.966	49.494	0	877.80	0	3.2740	0	34.3200	0	27.323	0	868.478	0	13.3	4	4.1	4	-1E+10	1	-1E+10	1	-1E+10	1	-1E+10	1	-1E+10	1	-1E+10	1
4902551	53	C	01/27/2022	09:05	-132.966	49.494	0	882.80	0	3.2640	0	34.3220	0	27.325	0	873.414	0	13.2	4	4.1	4	-1E+10	1	-1E+10	1	-1E+10	1	-1E+10	1	-1E+10	1	-1E+10	1
4902551	53	C	01/27/2022	09:05	-132.966	49.494	0	888.00	0	3.2560	0	34.3240	0	27.328	0	878.548	0	13.2	4	4.1	4	-1E+10	1	-1E+10	1	-1E+10	1	-1E+10	1	-1E+10	1	-1E+10	1
4902551	53	C	01/27/2022	09:05	-132.966	49.494	0	892.80	0	3.2470	0	34.3260	0	27.330	0	883.287	0	13.2	4	4.1	4	-1E+10	1	-1E+10	1	-1E+10	1	-1E+10	1	-1E+10	1	-1E+10	1
4902551	53	C	01/27/2022	09:05	-132.966	49.494	0	897.70	0	3.2370	0	34.3280	0	27.333	0	888.124	0	13.1	4	4.1	4	-1E+10	1	-1E+10	1	-1E+10	1	-1E+10	1	-1E+10	1	-1E+10	1
4902551	53	C	01/27/2022	09:05	-132.966	49.494	0	903.10	0	3.2250	0	34.3310	0	27.336	0	893.455	0	13.1	4	4.1	4	-1E+10	1	-1E+10	1	-1E+10	1	-1E+10	1	-1E+10	1	-1E+10	1
4902551	53	C	01/27/2022	09:05	-132.966	49.494	0	908.10	0	3.2180	0	34.3320	0	27.338	0	898.391	0	13.1	4	4.1	4	-1E+10	1	-1E+10	1	-1E+10	1	-1E+10	1	-1E+10	1	-1E+10	1
4902551	53	C	01/27/2022	09:05	-132.966	49.494	0	912.80	0	3.2080	0	34.3340	0	27.340	0	903.030	0	13.0	4	4.0	4	-1E+10	1	-1E+10	1	-1E+10	1	-1E+10	1	-1E+10	1	-1E+10	1
4902551	53	C	01/27/2022	09:05	-132.966	49.494	0	918.00	0	3.2040	0	34.3360	0	27.342	0	908.163	0	13.0	4	4.0	4	-1E+10	1	-1E+10	1	-1E+10	1	-1E+10	1	-1E+10	1	-1E+10	1
4902551	53	C	01/27/2022	09:05	-132.966	49.494	0	923.30	0	3.1930	0	34.3380	0	27.345	0	913.395	0	12.9	4	4.0	4	-1E+10	1	-1E+10	1	-1E+10	1	-1E+10	1	-1E+10	1	-1E+10	1
4902551	53	C	01/27/2022	09:05	-132.966	49.494	0	928.20	0	3.1850	0	34.3400	0	27.347	0	918.232	0	12.9	4	4.0	4	-1E+10	1	-1E+10	1	-1E+10	1	-1E+10	1	-1E+10	1	-1E+10	1
4902551	53	C	01/27/2022	09:05	-132.966	49.494	0	933.00	0	3.1790	0	34.3410	0	27.349	0	922.970	0	12.9	4	4.0	4	-1E+10	1	-1E+10	1	-1E+10	1	-1E+10	1	-1E+10	1	-1E+10	1
4902551	53	C	01/27/2022	09:05	-132.966	49.494	0	937.90	0	3.1720	0	34.3430	0	27.351	0	927.806	0	12.9	4	4.0	4	-1E+10	1	-1E+10	1	-1E+10	1	-1E+10	1	-1E+10	1	-1E+10	1
4902551	53	C	01/27/2022	09:05	-132.966	49.494	0	942.70	0	3.1620	0	34.3450	0	27.353	0	932.544	0	12.9	4	4.0	4	-1E+10	1	-1E+10	1	-1E+10	1	-1E+10	1	-1E+10	1	-1E+10	1
4902551	53	C	01/27/2022	09:05	-132.966	49.494	0	947.90	0	3.1540	0	34.3460	0	27.355	0	937.676	0	13.0	4	4.0	4	-1E+10	1	-1E+10	1	-1E+10	1	-1E+10	1	-1E+10	1	-1E+10	1
4902551	53	C	01/27/2022	09:05	-132.966	49.494	0	953.20	0	3.1430	0	34.3480	0	27.358	0	942.907	0	12.9	4	4.0	4	-1E+10	1	-1E+10	1	-1E+10	1	-1E+10	1	-1E+10	1	-1E+10	1
4902551	53	C	01/27/2022	09:05	-132.966	49.494	0	958.10	0	3.1320	0	34.3510	0	27.361	0	947.743	0	12.9	4	4.0	4	-1E+10	1	-1E+10	1	-1E+10	1	-1E+10	1	-1E+10	1	-1E+10	1
4902551	53	C	01/27/2022	09:05	-132.966	49.494	0	963.00	0	3.1280	0	34.3520	0	27.362	0	952.579	0	12.9	4	4.0	4	-1E+10	1	-1E+10	1	-1E+10	1	-1E+10	1	-1E+10	1	-1E+10	1
4902551	53	C	01/27/2022	09:05	-132.966	49.494	0	967.90	0	3.1200	0	34.3540	0	27.365	0	957.415	0	12.9	4	4.0	4	-1E+10	1	-1E+10	1	-1E+10	1	-1E+10	1	-1E+10	1	-1E+10	1
4902551	53	C	01/27/2022	09:05	-132.966	49.494	0	972.80	0	3.1080	0	34.3560	0	27.367	0	962.250	0	12.9	4	4.0	4	-1E+10	1	-1E+10	1	-1E+10	1	-1E+10	1	-1E+10	1	-1E+10	1
4902551	53	C	01/27/2022	09:05	-132.966	49.494	0	977.70	0	3.0930	0	34.3590	0	27.371	0	967.086	0	12.9	4	4.0	4	-1E+10	1	-1E+10	1	-1E+10	1	-1E+10	1	-1E+10	1	-1E+10	1
4902551	53	C	01/27/2022	09:05	-132.966	49.494	0	982.80	0	3.0860	0	34.3610	0	27.373	0	972.119	0	12.9	4	4.0	4	-1E+10	1	-1E+10	1	-1E+10	1	-1E+10	1	-1E+10	1	-1E+10	1
4902551	53	C	01/27/2022	09:05	-132.966	49.494	0	987.90	0	3.0790	0	34.3620	0	27.375	0	977.151	0	12.9	4	4.0	4	-1E+10	1	-1E+10	1	-1E+10	1	-1E+10	1	-1E+10	1	-1E+10	1
4902551	53	C	01/27/2022	09:05	-132.966	49.494	0	993.00	0	3.0710	0	34.3640	0	27.377	0	982.184	0	12.9	4	4.0	4	-1E+10	1	-1E+10	1	-1E+10	1	-1E+10	1	-1E+10	1	-1E+10	1
4902551	53	C	01/27/2022	09:05	-132.966	49.494	0	998.20	0	3.0640	0	34.3650	0	27.379	0	987.315	0	12.9	4	4.0	4	-1E+10	1	-1E+10	1	-1E+10	1	-1E+10	1	-1E+10	1	-1E+10	1
4902551	53	C	01/27/2022	09:05	-132.966	49.494	0	1005.60	0	3.0520	0	34.3680	0	27.382	0	994.617	0	12.9	4	4.0	4	-1E+10	1	-1E+10	1	-1E+10	1	-1E+10	1	-1E+10	1	-1E+10	1
4902551	53	C	01/27/2022	09:05	-132.966	49.494	0	1015.60	0	3.0380	0	34.3710	0	27.386	0	1004.484	0	12.9	4	4.0	4	-1E+10	1	-1E+10	1	-1E+10	1	-1E+10	1	-1E+10	1	-1E+10	1
4902551	53	C	01/27/2022	09:05	-132.966	49.494	0	1025.50	0	3.0230	0	34.3740	0	27.390	0	1014.251	0	13.0	4	4.0	4	-1E+10	1	-1E+10	1	-1E+10	1	-1E+10	1	-1E+10	1	-1E+10	1
4902551	53	C	01/27/2022	09:05	-132.966	49.494	0	1035.10	0	3.0090	0	34.3760	0	27.393	0	1023.723	0	13.0	4	4.0	4	-1E+10	1	-1E+10	1	-1E+10	1	-1E+10	1	-1E+10	1	-1E+10	1
4902551	53	C	01/27/2022	09:05	-132.966	49.494	0	1045.60	0	2.9880	0	34.3800	0	27.398	0	1034.081	0	13.0	4	4.0	4	-1E+10	1	-1E+10	1	-1E+10	1	-1E+10	1	-1E+10	1	-1E+10	1
4902551	53	C	01/27/2022	09:05	-132.966	49.494	0	1055.40	0	2.9720	0	34.3840	0	27.402	0	1043.749	0	13.0	4	4.0	4	-1E+10	1	-1E+10	1	-1E+10	1	-1E+10	1	-1E+10	1	-1E+10	1
4902551	53	C	01/27/2022	09:05	-132.966	49.494	0	1065.00	0	2.9540	0	34.3880	0	27.407	0	1053.219	0	13.1	4	4.0	4	-1E+10	1	-1E+10	1	-1E+10	1	-1E+10	1	-1E+10	1	-1E+10	1
4902551	53	C	01/27/2022	09:05	-132.966	49.494	0	1075.10	0	2.9370	0	34.3910	0	27.411	0	1063.182	0	13.1	4	4.0	4	-1E+10	1	-1E+10	1	-1E+10	1	-1E+10	1	-1E+10	1	-1E+10	1
4902551	53	C	01/27/2022	09:05	-132.966	49.494	0	1085.20	0	2.9240	0	34.3930	0	27.414	0	1073.144	0	13.2	4	4.1	4	-1E+10	1	-1E+10	1	-1E+10	1	-1E+10	1	-1E+10	1	-1E+10	1
4902551	53	C	01/27/2022	09:05	-132.966	49.494	0	1095.50	0	2.9030	0	34.3970	0	27.419	0	1083.303	0	13.3	4	4.1	4	-1E+10	1	-1E+10	1	-1E+10	1	-1E+10	1	-1E+10	1	-1E+10	1
4902551	53	C	01/27/2022	09:05	-132.966	49.494	0	1105.60	0	2.8870	0	34.4000	0	27.423	0	1093.264	0	13.3	4	4.1	4	-1E+10	1	-1E+10	1	-1E+10	1	-1E+10	1	-1E+10	1	-1E+10	1
4902551	53	C	01/27/2022	09:05	-132.966	49.494	0	1115.20	0	2.8730	0	34.4030	0	27.427	0	1102.732	0	13.3	4	4.1	4	-1E+10	1	-1E+10	1	-1E+10	1	-1E+10	1	-1E+10	1	-1E+10	1
4902551	53	C	01/27/2022	09:05	-132.966	49.494	0	1125.30	0	2.8630	0	34.4050	0	27.429	0	1112.692	0	13.3	4	4.1	4	-1E+10	1	-1E+10	1	-1E+10	1	-1E+10	1	-1E+10	1	-1E+10	1
4902551	53	C	01/27/2022	09:05	-132.966	49.494	0	1135.40	0	2.8480	0	34.4090	0	27.434	0	1122.652	0	13.4	4	4.1	4	-1E+10	1	-1E+10	1	-1E+10	1	-1E+10	1	-1E+10	1	-1E+10	1
4902551	53	C	01/27/2022	09:05	-132.966	49.494	0	1145.20	0	2.8260	0	34.4130	0	27.439	0	1132.315	0	13.4	4	4.1	4	-1E+10	1	-1E+10	1	-1E+10	1	-1E+10	1	-1E+10	1	-1E+10	1
4902551	53	C	01/27/2022	09:05	-132.966	49.494	0	1155.20	0	2.8090	0	34.4160	0	27.443	0	1142.176	0	13.5	4	4.2	4	-1E+10	1	-1E+10	1	-1E+10	1	-1E+10	1	-1E+10	1	-1E+10	1
4902551	53	C	01/27/2022	09:05	-132.966	49.494	0	1165.40	0	2.7950	0	34.4190	0	27.447	0	1152.233	0	13.6	4	4.2	4	-1E+10	1	-1E+10	1	-1E+10	1	-1E+10	1	-1E+10	1	-1E+10	1
4902551	53	C	01/27/2022	09:05	-132.966	49.494	0	1175.30	0	2.7790	0	34.4220	0	27.451	0	1161.994	0	13.8	4	4.2	4	-1E+10	1	-1E+10	1	-1E+10	1	-1E+10	1	-1E+10	1	-1E+10	1
4902551	53	C	01/27/2022	09:05	-132.966	49.494	0	1185.00	0	2.7680	0	34.4240	0	27.453	0	1171.557	0	13.9	4	4.3	4	-1E+10	1	-1E+10	1	-1E+10	1	-1E+10	1	-1E+10	1	-1E+10	1
4902551	53	C	01/27/2022	09:05	-132.966	49.494	0	1194.90	0	2.7530	0	34.4260	0	27.456	0	1181.317	0	14.0	4	4.3	4	-1E+10	1	-1E+10	1	-1E+10	1	-1E+10	1	-1E+10	1	-1E+10	1
4902551	53	C	01/27/2022	09:05	-132.966	49.494	0	1205.00	0	2.7380	0	34.4290	0	27.460	0	1191.273	0	14.1	4	4.3	4	-1E+10	1	-1E+10	1	-1E+10	1	-1E+10	1	-1E+10	1	-1E+10	1
4902551	53	C	01/27/2022	09:05	-132.966	49.494	0	1215.30	0	2.7300	0	34.4310	0	27.462	0	1201.427	0	14.2	4	4.4	4	-1E+10	1	-1E+10	1	-1E+10	1	-1E+10	1	-1E+10	1	-1E+10	1
4902551	53	C	01/27/2022	09:05	-132.966	49.494	0	1225.70	0	2.7170	0	34.4340	0	27.466	0	1211.678	0	14.4	4	4.4	4	-1E+10	1	-1E+10	1	-1E+10	1	-1E+10	1	-1E+10	1	-1E+10	1
4902551	53	C	01/27/2022	09:05	-132.966	49.494	0	1235.60	0	2.7010	0	34.4370	0	27.470	0	1221.436	0	14.6	4	4.5	4	-1E+10	1	-1E+10	1	-1E+10	1	-1E+10	1	-1E+10	1	-1E+10	1
4902551	53	C	01/27/2022	09:05	-132.966	49.494	0	1245.60	0	2.6830	0	34.4400	0	27.474	0	1231.292	0	14.8	4	4.5	4	-1E+10	1	-1E+10	1	-1E+10	1	-1E+10	1	-1E+10	1	-1E+10	1
4902551	53	C	01/27/2022	09:05	-132.966	49.494	0	1256.00	0	2.6680	0	34.4430	0	27.477	0	1241.542	0	15.0	4	4.6	4	-1E+10	1	-1E+10	1	-1E+10	1	-1E+10	1	-1E+10	1	-1E+10	1
4902551	53	C	01/27/2022	09:05	-132.966	49.494	0	1265.60	0	2.6520	0	34.4460	0	27.481	0	1251.003	0	15.2	4	4.7	4	-1E+10	1	-1E+10	1	-1E+10	1	-1E+10	1	-1E+10	1	-1E+10	1
4902551	53	C	01/27/2022	09:05	-132.966	49.494	0	1275.20	0	2.6400	0	34.4480	0	27.484	0	1260.463	0	15.4	4	4.7	4	-1E+10	1	-1E+10	1	-1E+10	1	-1E+10	1	-1E+10	1	-1E+10	1
4902551	53	C	01/27/2022	09:05	-132.966	49.494	0	1285.20	0	2.6270	0	34.4500	0	27.487	0	1270.318	0	15.6	4	4.8	4	-1E+10	1	-1E+10	1	-1E+10	1	-1E+10	1	-1E+10	1	-1E+10	1
4902551	53	C	01/27/2022	09:05	-132.966	49.494	0	1295.20	0	2.6150	0	34.4520	0	27.489	0	1280.172	0	15.8	4	4.8	4	-1E+10	1	-1E+10	1	-1E+10	1	-1E+10	1	-1E+10	1	-1E+10	1
4902551	53	C	01/27/2022	09:05	-132.966	49.494	0	1305.10	0	2.6040	0	34.4550	0	27.493	0	1289.926	0	15.9	4	4.9	4	-1E+10	1	-1E+10	1	-1E+10	1	-1E+10	1	-1E+10	1	-1E+10	1
4902551	53	C	01/27/2022	09:05	-132.966	49.494	0	1315.10	0	2.5970	0	34.4560	0	27.494	0	1299.779	0	16.1	4	4.9	4	-1E+10	1	-1E+10	1	-1E+10	1	-1E+10	1	-1E+10	1	-1E+10	1
4902551	53	C	01/27/2022	09:05	-132.966	49.494	0	1325.30	0	2.5860	0	34.4580	0	27.497	0	1309.829	0	16.4	4	5.0	4	-1E+10	1	-1E+10	1	-1E+10	1	-1E+10	1	-1E+10	1	-1E+10	1
4902551	53	C	01/27/2022	09:05	-132.966	49.494	0	1335.70	0	2.5720	0	34.4610	0	27.500	0	1320.075	0	16.7	4	5.1	4	-1E+10	1	-1E+10	1	-1E+10	1	-1E+10	1	-1E+10	1	-1E+10	1
4902551	53	C	01/27/2022	09:05	-132.966	49.494	0	1345.50	0	2.5600	0	34.4630	0	27.503	0	1329.729	0	16.9	4	5.1	4	-1E+10	1	-1E+10	1	-1E+10	1	-1E+10	1	-1E+10	1	-1E+10	1
4902551	53	C	01/27/2022	09:05	-132.966	49.494	0	1355.50	0	2.5560	0	34.4640	0	27.504	0	1339.580	0	17.0	4	5.2	4	-1E+10	1	-1E+10	1	-1E+10	1	-1E+10	1	-1E+10	1	-1E+10	1
4902551	53	C	01/27/2022	09:05	-132.966	49.494	0	1365.50	0	2.5450	0	34.4660	0	27.507	0	1349.431	0	17.3	4	5.3	4	-1E+10	1	-1E+10	1	-1E+10	1	-1E+10	1	-1E+10	1	-1E+10	1
4902551	53	C	01/27/2022	09:05	-132.966	49.494	0	1375.20	0	2.5320	0	34.4680	0	27.510	0	1358.986	0	17.6	4	5.4	4	-1E+10	1	-1E+10	1	-1E+10	1	-1E+10	1	-1E+10	1	-1E+10	1
4902551	53	C	01/27/2022	09:05	-132.966	49.494	0	1385.00	0	2.5200	0	34.4700	0	27.512	0	1368.638	0	17.9	4	5.5	4	-1E+10	1	-1E+10	1	-1E+10	1	-1E+10	1	-1E+10	1	-1E+10	1
4902551	53	C	01/27/2022	09:05	-132.966	49.494	0	1394.90	0	2.5130	0	34.4720	0	27.515	0	1378.389	0	18.2	4	5.5	4	-1E+10	1	-1E+10	1	-1E+10	1	-1E+10	1	-1E+10	1	-1E+10	1
4902551	53	C	01/27/2022	09:05	-132.966	49.494	0	1405.40	0	2.5030	0	34.4740	0	27.517	0	1388.730	0	18.6	4	5.7	4	-1E+10	1	-1E+10	1	-1E+10	1	-1E+10	1	-1E+10	1	-1E+10	1
4902551	53	C	01/27/2022	09:05	-132.966	49.494	0	1415.80	0	2.4820	0	34.4770	0	27.521	0	1398.972	0	19.1	4	5.8	4	-1E+10	1	-1E+10	1	-1E+10	1	-1E+10	1	-1E+10	1	-1E+10	1
4902551	53	C	01/27/2022	09:05	-132.966	49.494	0	1425.80	0	2.4600	0	34.4810	0	27.526	0	1408.820	0	19.7	4	6.0	4	-1E+10	1	-1E+10	1	-1E+10	1	-1E+10	1	-1E+10	1	-1E+10	1
4902551	53	C	01/27/2022	09:05	-132.966	49.494	0	1435.80	0	2.4450	0	34.4830	0	27.529	0	1418.667	0	20.1	4	6.1	4	-1E+10	1	-1E+10	1	-1E+10	1	-1E+10	1	-1E+10	1	-1E+10	1
4902551	53	C	01/27/2022	09:05	-132.966	49.494	0	1445.40	0	2.4340	0	34.4850	0	27.532	0	1428.120	0	20.4	4	6.2	4	-1E+10	1	-1E+10	1	-1E+10	1	-1E+10	1	-1E+10	1	-1E+10	1
4902551	53	C	01/27/2022	09:05	-132.966	49.494	0	1455.20	0	2.4210	0	34.4870	0	27.535	0	1437.770	0	20.8	4	6.3	4	-1E+10	1	-1E+10	1	-1E+10	1	-1E+10	1	-1E+10	1	-1E+10	1
4902551	53	C	01/27/2022	09:05	-132.966	49.494	0	1465.50	0	2.4070	0	34.4900	0	27.538	0	1447.911	0	21.3	4	6.5	4	-1E+10	1	-1E+10	1	-1E+10	1	-1E+10	1	-1E+10	1	-1E+10	1
4902551	53	C	01/27/2022	09:05	-132.966	49.494	0	1475.30	0	2.3940	0	34.4920	0	27.541	0	1457.560	0	21.8	4	6.6	4	-1E+10	1	-1E+10	1	-1E+10	1	-1E+10	1	-1E+10	1	-1E+10	1
4902551	53	C	01/27/2022	09:05	-132.966	49.494	0	1485.20	0	2.3820	0	34.4940	0	27.544	0	1467.306	0	22.4	4	6.8	4	-1E+10	1	-1E+10	1	-1E+10	1	-1E+10	1	-1E+10	1	-1E+10	1
4902551	53	C	01/27/2022	09:05	-132.966	49.494	0	1495.20	0	2.3660	0	34.4980	0	27.548	0	1477.151	0	23.1	4	7.0	4	-1E+10	1	-1E+10	1	-1E+10	1	-1E+10	1	-1E+10	1	-1E+10	1
4902551	53	C	01/27/2022	09:05	-132.966	49.494	0	1505.30	0	2.3520	0	34.5000	0	27.551	0	1487.094	0	23.9	4	7.3	4	-1E+10	1	-1E+10	1	-1E+10	1	-1E+10	1	-1E+10	1	-1E+10	1
4902551	53	C	01/27/2022	09:05	-132.966	49.494	0	1515.30	0	2.3320	0	34.5040	0	27.556	0	1496.937	0	24.5	4	7.4	4	-1E+10	1	-1E+10	1	-1E+10	1	-1E+10	1	-1E+10	1	-1E+10	1
4902551	53	C	01/27/2022	09:05	-132.966	49.494	0	1525.50	0	2.3230	0	34.5060	0	27.558	0	1506.977	0	25.0	4	7.6	4	-1E+10	1	-1E+10	1	-1E+10	1	-1E+10	1	-1E+10	1	-1E+10	1
4902551	53	C	01/27/2022	09:05	-132.966	49.494	0	1535.70	0	2.3120	0	34.5080	0	27.561	0	1517.017	0	25.6	4	7.8	4	-1E+10	1	-1E+10	1	-1E+10	1	-1E+10	1	-1E+10	1	-1E+10	1
4902551	53	C	01/27/2022	09:05	-132.966	49.494	0	1545.60	0	2.3000	0	34.5110	0	27.564	0	1526.761	0	26.2	4	7.9	4	-1E+10	1	-1E+10	1	-1E+10	1	-1E+10	1	-1E+10	1	-1E+10	1
4902551	53	C	01/27/2022	09:05	-132.966	49.494	0	1555.30	0	2.2910	0	34.5120	0	27.566	0	1536.307	0	26.7	4	8.1	4	-1E+10	1	-1E+10	1	-1E+10	1	-1E+10	1	-1E+10	1	-1E+10	1
4902551	53	C	01/27/2022	09:05	-132.966	49.494	0	1565.20	0	2.2790	0	34.5140	0	27.568	0	1546.050	0	27.3	4	8.3	4	-1E+10	1	-1E+10	1	-1E+10	1	-1E+10	1	-1E+10	1	-1E+10	1
4902551	53	C	01/27/2022	09:05	-132.966	49.494	0	1575.20	0	2.2680	0	34.5160	0	27.571	0	1555.891	0	27.8	4	8.4	4	-1E+10	1	-1E+10	1	-1E+10	1	-1E+10	1	-1E+10	1	-1E+10	1
4902551	53	C	01/27/2022	09:05	-132.966	49.494	0	1585.40	0	2.2600	0	34.5180	0	27.573	0	1565.928	0	28.3	4	8.6	4	-1E+10	1	-1E+10	1	-1E+10	1	-1E+10	1	-1E+10	1	-1E+10	1
4902551	53	C	01/27/2022	09:05	-132.966	49.494	0	1595.40	0	2.2490	0	34.5200	0	27.576	0	1575.768	0	28.9	4	8.8	4	-1E+10	1	-1E+10	1	-1E+10	1	-1E+10	1	-1E+10	1	-1E+10	1
4902551	53	C	01/27/2022	09:05	-132.966	49.494	0	1605.10	0	2.2400	0	34.5220	0	27.578	0	1585.313	0	29.4	4	8.9	4	-1E+10	1	-1E+10	1	-1E+10	1	-1E+10	1	-1E+10	1	-1E+10	1
4902551	53	C	01/27/2022	09:05	-132.966	49.494	0	1615.60	0	2.2330	0	34.5240	0	27.580	0	1595.644	0	29.9	4	9.1	4	-1E+10	1	-1E+10	1	-1E+10	1	-1E+10	1	-1E+10	1	-1E+10	1
4902551	53	C	01/27/2022	09:05	-132.966	49.494	0	1625.80	0	2.2260	0	34.5250	0	27.582	0	1605.679	0	30.3	4	9.2	4	-1E+10	1	-1E+10	1	-1E+10	1	-1E+10	1	-1E+10	1	-1E+10	1
4902551	53	C	01/27/2022	09:05	-132.966	49.494	0	1635.40	0	2.2210	0	34.5260	0	27.583	0	1615.124	0	30.7	4	9.3	4	-1E+10	1	-1E+10	1	-1E+10	1	-1E+10	1	-1E+10	1	-1E+10	1
4902551	53	C	01/27/2022	09:05	-132.966	49.494	0	1645.70	0	2.2110	0	34.5280	0	27.586	0	1625.257	0	31.3	4	9.5	4	-1E+10	1	-1E+10	1	-1E+10	1	-1E+10	1	-1E+10	1	-1E+10	1
4902551	53	C	01/27/2022	09:05	-132.966	49.494	0	1655.80	0	2.2030	0	34.5300	0	27.588	0	1635.192	0	31.9	4	9.7	4	-1E+10	1	-1E+10	1	-1E+10	1	-1E+10	1	-1E+10	1	-1E+10	1
4902551	53	C	01/27/2022	09:05	-132.966	49.494	0	1665.60	0	2.1950	0	34.5310	0	27.589	0	1644.832	0	32.5	4	9.8	4	-1E+10	1	-1E+10	1	-1E+10	1	-1E+10	1	-1E+10	1	-1E+10	1
4902551	53	C	01/27/2022	09:05	-132.966	49.494	0	1675.50	0	2.1870	0	34.5330	0	27.592	0	1654.570	0	33.0	4	10.0	4	-1E+10	1	-1E+10	1	-1E+10	1	-1E+10	1	-1E+10	1	-1E+10	1
4902551	53	C	01/27/2022	09:05	-132.966	49.494	0	1685.60	0	2.1780	0	34.5340	0	27.593	0	1664.504	0	33.4	4	10.1	4	-1E+10	1	-1E+10	1	-1E+10	1	-1E+10	1	-1E+10	1	-1E+10	1
4902551	53	C	01/27/2022	09:05	-132.966	49.494	0	1695.40	0	2.1730	0	34.5350	0	27.594	0	1674.143	0	33.9	4	10.3	4	-1E+10	1	-1E+10	1	-1E+10	1	-1E+10	1	-1E+10	1	-1E+10	1
4902551	53	C	01/27/2022	09:05	-132.966	49.494	0	1705.30	0	2.1650	0	34.5370	0	27.597	0	1683.880	0	34.7	4	10.5	4	-1E+10	1	-1E+10	1	-1E+10	1	-1E+10	1	-1E+10	1	-1E+10	1
4902551	53	C	01/27/2022	09:05	-132.966	49.494	0	1715.20	0	2.1510	0	34.5400	0	27.600	0	1693.616	0	35.5	4	10.7	4	-1E+10	1	-1E+10	1	-1E+10	1	-1E+10	1	-1E+10	1	-1E+10	1
4902551	53	C	01/27/2022	09:05	-132.966	49.494	0	1725.40	0	2.1430	0	34.5410	0	27.602	0	1703.646	0	36.0	4	10.9	4	-1E+10	1	-1E+10	1	-1E+10	1	-1E+10	1	-1E+10	1	-1E+10	1
4902551	53	C	01/27/2022	09:05	-132.966	49.494	0	1735.60	0	2.1370	0	34.5430	0	27.604	0	1713.677	0	36.5	4	11.0	4	-1E+10	1	-1E+10	1	-1E+10	1	-1E+10	1	-1E+10	1	-1E+10	1
4902551	53	C	01/27/2022	09:05	-132.966	49.494	0	1745.40	0	2.1310	0	34.5440	0	27.605	0	1723.313	0	36.9	4	11.2	4	-1E+10	1	-1E+10	1	-1E+10	1	-1E+10	1	-1E+10	1	-1E+10	1
4902551	53	C	01/27/2022	09:05	-132.966	49.494	0	1755.20	0	2.1270	0	34.5450	0	27.606	0	1732.949	0	37.2	4	11.3	4	-1E+10	1	-1E+10	1	-1E+10	1	-1E+10	1	-1E+10	1	-1E+10	1
4902551	53	C	01/27/2022	09:05	-132.966	49.494	0	1765.30	0	2.1230	0	34.5460	0	27.608	0	1742.880	0	37.6	4	11.4	4	-1E+10	1	-1E+10	1	-1E+10	1	-1E+10	1	-1E+10	1	-1E+10	1
4902551	53	C	01/27/2022	09:05	-132.966	49.494	0	1775.40	0	2.1170	0	34.5470	0	27.609	0	1752.810	0	38.2	4	11.5	4	-1E+10	1	-1E+10	1	-1E+10	1	-1E+10	1	-1E+10	1	-1E+10	1
4902551	53	C	01/27/2022	09:05	-132.966	49.494	0	1785.50	0	2.1080	0	34.5490	0	27.611	0	1762.739	0	38.7	4	11.7	4	-1E+10	1	-1E+10	1	-1E+10	1	-1E+10	1	-1E+10	1	-1E+10	1
4902551	53	C	01/27/2022	09:05	-132.966	49.494	0	1795.30	0	2.1040	0	34.5500	0	27.613	0	1772.374	0	39.3	4	11.9	4	-1E+10	1	-1E+10	1	-1E+10	1	-1E+10	1	-1E+10	1	-1E+10	1
4902551	53	C	01/27/2022	09:05	-132.966	49.494	0	1805.30	0	2.0950	0	34.5520	0	27.615	0	1782.204	0	40.1	4	12.1	4	-1E+10	1	-1E+10	1	-1E+10	1	-1E+10	1	-1E+10	1	-1E+10	1
4902551	53	C	01/27/2022	09:05	-132.966	49.494	0	1815.30	0	2.0840	0	34.5540	0	27.617	0	1792.034	0	40.9	4	12.4	4	-1E+10	1	-1E+10	1	-1E+10	1	-1E+10	1	-1E+10	1	-1E+10	1
4902551	53	C	01/27/2022	09:05	-132.966	49.494	0	1825.20	0	2.0760	0	34.5550	0	27.619	0	1801.765	0	41.7	4	12.6	4	-1E+10	1	-1E+10	1	-1E+10	1	-1E+10	1	-1E+10	1	-1E+10	1
4902551	53	C	01/27/2022	09:05	-132.966	49.494	0	1835.10	0	2.0660	0	34.5580	0	27.622	0	1811.496	0	42.4	4	12.8	4	-1E+10	1	-1E+10	1	-1E+10	1	-1E+10	1	-1E+10	1	-1E+10	1
4902551	53	C	01/27/2022	09:05	-132.966	49.494	0	1845.40	0	2.0550	0	34.5590	0	27.624	0	1821.619	0	43.1	4	13.0	4	-1E+10	1	-1E+10	1	-1E+10	1	-1E+10	1	-1E+10	1	-1E+10	1
4902551	53	C	01/27/2022	09:05	-132.966	49.494	0	1855.70	0	2.0450	0	34.5610	0	27.626	0	1831.742	0	43.8	4	13.2	4	-1E+10	1	-1E+10	1	-1E+10	1	-1E+10	1	-1E+10	1	-1E+10	1
4902551	53	C	01/27/2022	09:05	-132.966	49.494	0	1865.60	0	2.0390	0	34.5620	0	27.628	0	1841.471	0	44.6	4	13.5	4	-1E+10	1	-1E+10	1	-1E+10	1	-1E+10	1	-1E+10	1	-1E+10	1
4902551	53	C	01/27/2022	09:05	-132.966	49.494	0	1875.70	0	2.0270	0	34.5650	0	27.631	0	1851.397	0	45.5	4	13.7	4	-1E+10	1	-1E+10	1	-1E+10	1	-1E+10	1	-1E+10	1	-1E+10	1
4902551	53	C	01/27/2022	09:05	-132.966	49.494	0	1885.70	0	2.0180	0	34.5670	0	27.633	0	1861.223	0	46.2	4	13.9	4	-1E+10	1	-1E+10	1	-1E+10	1	-1E+10	1	-1E+10	1	-1E+10	1
4902551	53	C	01/27/2022	09:05	-132.966	49.494	0	1895.50	0	2.0120	0	34.5680	0	27.635	0	1870.853	0	46.6	4	14.1	4	-1E+10	1	-1E+10	1	-1E+10	1	-1E+10	1	-1E+10	1	-1E+10	1
4902551	53	C	01/27/2022	09:05	-132.966	49.494	0	1905.50	0	2.0090	0	34.5690	0	27.636	0	1880.679	0	47.1	4	14.2	4	-1E+10	1	-1E+10	1	-1E+10	1	-1E+10	1	-1E+10	1	-1E+10	1
4902551	53	C	01/27/2022	09:05	-132.966	49.494	0	1915.50	0	2.0030	0	34.5700	0	27.637	0	1890.504	0	47.7	4	14.4	4	-1E+10	1	-1E+10	1	-1E+10	1	-1E+10	1	-1E+10	1	-1E+10	1
4902551	53	C	01/27/2022	09:05	-132.966	49.494	0	1925.50	0	1.9960	0	34.5710	0	27.638	0	1900.329	0	48.4	4	14.6	4	-1E+10	1	-1E+10	1	-1E+10	1	-1E+10	1	-1E+10	1	-1E+10	1
4902551	53	C	01/27/2022	09:05	-132.966	49.494	0	1935.50	0	1.9890	0	34.5730	0	27.641	0	1910.154	0	49.0	4	14.8	4	-1E+10	1	-1E+10	1	-1E+10	1	-1E+10	1	-1E+10	1	-1E+10	1
4902551	53	C	01/27/2022	09:05	-132.966	49.494	0	1945.50	0	1.9820	0	34.5750	0	27.643	0	1919.978	0	49.7	4	15.0	4	-1E+10	1	-1E+10	1	-1E+10	1	-1E+10	1	-1E+10	1	-1E+10	1
4902551	53	C	01/27/2022	09:05	-132.966	49.494	0	1955.50	0	1.9730	0	34.5760	0	27.644	0	1929.801	0	50.5	4	15.2	4	-1E+10	1	-1E+10	1	-1E+10	1	-1E+10	1	-1E+10	1	-1E+10	1
4902551	53	C	01/27/2022	09:05	-132.966	49.494	0	1965.20	0	1.9650	0	34.5780	0	27.647	0	1939.330	0	51.1	4	15.4	4	-1E+10	1	-1E+10	1	-1E+10	1	-1E+10	1	-1E+10	1	-1E+10	1
4902551	53	C	01/27/2022	09:05	-132.966	49.494	0	1975.20	0	1.9610	0	34.5790	0	27.648	0	1949.152	0	51.6	4	15.5	4	-1E+10	1	-1E+10	1	-1E+10	1	-1E+10	1	-1E+10	1	-1E+10	1
4902551	53	C	01/27/2022	09:05	-132.966	49.494	0	1985.60	0	1.9520	0	34.5800	0	27.649	0	1959.367	0	52.4	4	15.8	4	-1E+10	1	-1E+10	1	-1E+10	1	-1E+10	1	-1E+10	1	-1E+10	1
4902551	53	C	01/27/2022	09:05	-132.966	49.494	0	1995.20	0	1.9440	0	34.5810	0	27.651	0	1968.796	0	53.1	4	16.0	4	-1E+10	1	-1E+10	1	-1E+10	1	-1E+10	1	-1E+10	1	-1E+10	1
4902551	53	C	01/27/2022	09:05	-132.966	49.494	0	2005.30	0	1.9350	0	34.5830	0	27.653	0	1978.716	0	53.6	4	16.1	4	-1E+10	1	-1E+10	1	-1E+10	1	-1E+10	1	-1E+10	1	-1E+10	1
4902551	53	C	01/27/2022	09:05	-132.966	49.494	0	2016.30	0	1.9280	0	34.5840	0	27.655	0	1989.519	0	54.0	4	16.3	4	-1E+10	1	-1E+10	1	-1E+10	1	-1E+10	1	-1E+10	1	-1E+10	1
4902551	53	C	01/27/2022	09:05	-132.966	49.494	0																										
4902551	54	C	02/06/2022	14:01	-132.828	49.452	0	0.30	0	6.8470	0	32.3140	0	25.324	0	0.297	0	283.5	4	94.4	4	-1E+10	1	-1E+10	1	-1E+10	1	-1E+10	1	-1E+10	1	-1E+10	1
4902551	54	C	02/06/2022	14:01	-132.828	49.452	0	1.00	0	6.8460	0	32.3130	0	25.323	0	0.991	0	283.4	4	94.4	4	-1E+10	1	-1E+10	1	-1E+10	1	-1E+10	1	-1E+10	1	-1E+10	1
4902551	54	C	02/06/2022	14:01	-132.828	49.452	0	2.10	0	6.8450	0	32.3130	0	25.323	0	2.082	0	283.4	4	94.3	4	-1E+10	1	-1E+10	1	-1E+10	1	-1E+10	1	-1E+10	1	-1E+10	1
4902551	54	C	02/06/2022	14:01	-132.828	49.452	0	3.00	0	6.8450	0	32.3140	0	25.324	0	2.974	0	283.4	4	94.3	4	-1E+10	1	-1E+10	1	-1E+10	1	-1E+10	1	-1E+10	1	-1E+10	1
4902551	54	C	02/06/2022	14:01	-132.828	49.452	0	4.10	0	6.8450	0	32.3150	0	25.325	0	4.065	0	283.3	4	94.3	4	-1E+10	1	-1E+10	1	-1E+10	1	-1E+10	1	-1E+10	1	-1E+10	1
4902551	54	C	02/06/2022	14:01	-132.828	49.452	0	5.10	0	6.8450	0	32.3160	0	25.326	0	5.056	0	283.3	4	94.3	4	-1E+10	1	-1E+10	1	-1E+10	1	-1E+10	1	-1E+10	1	-1E+10	1
4902551	54	C	02/06/2022	14:01	-132.828	49.452	0	5.90	0	6.8460	0	32.3150	0	25.325	0	5.850	0	283.3	4	94.3	4	-1E+10	1	-1E+10	1	-1E+10	1	-1E+10	1	-1E+10	1	-1E+10	1
4902551	54	C	02/06/2022	14:01	-132.828	49.452	0	7.10	0	6.8460	0	32.3150	0	25.325	0	7.039	0	283.2	4	94.3	4	-1E+10	1	-1E+10	1	-1E+10	1	-1E+10	1	-1E+10	1	-1E+10	1
4902551	54	C	02/06/2022	14:01	-132.828	49.452	0	8.00	0	6.8460	0	32.3150	0	25.325	0	7.932	0	283.2	4	94.3	4	-1E+10	1	-1E+10	1	-1E+10	1	-1E+10	1	-1E+10	1	-1E+10	1
4902551	54	C	02/06/2022	14:01	-132.828	49.452	0	9.10	0	6.8460	0	32.3150	0	25.325	0	9.022	0	283.2	4	94.3	4	-1E+10	1	-1E+10	1	-1E+10	1	-1E+10	1	-1E+10	1	-1E+10	1
4902551	54	C	02/06/2022	14:01	-132.828	49.452	0	10.10	0	6.8450	0	32.3150	0	25.325	0	10.014	0	283.2	4	94.3	4	-1E+10	1	-1E+10	1	-1E+10	1	-1E+10	1	-1E+10	1	-1E+10	1
4902551	54	C	02/06/2022	14:01	-132.828	49.452	0	11.10	0	6.8460	0	32.3150	0	25.325	0	11.005	0	283.1	4	94.2	4	-1E+10	1	-1E+10	1	-1E+10	1	-1E+10	1	-1E+10	1	-1E+10	1
4902551	54	C	02/06/2022	14:01	-132.828	49.452	0	12.00	0	6.8440	0	32.3150	0	25.325	0	11.897	0	283.1	4	94.3	4	-1E+10	1	-1E+10	1	-1E+10	1	-1E+10	1	-1E+10	1	-1E+10	1
4902551	54	C	02/06/2022	14:01	-132.828	49.452	0	12.80	0	6.8450	0	32.3150	0	25.325	0	12.691	0	283.0	4	94.2	4	-1E+10	1	-1E+10	1	-1E+10	1	-1E+10	1	-1E+10	1	-1E+10	1
4902551	54	C	02/06/2022	14:01	-132.828	49.452	0	14.00	0	6.8460	0	32.3150	0	25.325	0	13.880	0	283.1	4	94.3	4	-1E+10	1	-1E+10	1	-1E+10	1	-1E+10	1	-1E+10	1	-1E+10	1
4902551	54	C	02/06/2022	14:01	-132.828	49.452	0	15.00	0	6.8460	0	32.3150	0	25.325	0	14.872	0	283.0	4	94.2	4	-1E+10	1	-1E+10	1	-1E+10	1	-1E+10	1	-1E+10	1	-1E+10	1
4902551	54	C	02/06/2022	14:01	-132.828	49.452	0	15.90	0	6.8460	0	32.3150	0	25.325	0	15.764	0	283.0	4	94.2	4	-1E+10	1	-1E+10	1	-1E+10	1	-1E+10	1	-1E+10	1	-1E+10	1
4902551	54	C	02/06/2022	14:01	-132.828	49.452	0	17.10	0	6.8460	0	32.3150	0	25.325	0	16.954	0	283.0	4	94.2	4	-1E+10	1	-1E+10	1	-1E+10	1	-1E+10	1	-1E+10	1	-1E+10	1
4902551	54	C	02/06/2022	14:01	-132.828	49.452	0	18.00	0	6.8460	0	32.3150	0	25.325	0	17.846	0	283.0	4	94.2	4	-1E+10	1	-1E+10	1	-1E+10	1	-1E+10	1	-1E+10	1	-1E+10	1
4902551	54	C	02/06/2022	14:01	-132.828	49.452	0	18.90	0	6.8460	0	32.3150	0	25.325	0	18.738	0	282.9	4	94.2	4	-1E+10	1	-1E+10	1	-1E+10	1	-1E+10	1	-1E+10	1	-1E+10	1
4902551	54	C	02/06/2022	14:01	-132.828	49.452	0	20.10	0	6.8460	0	32.3150	0	25.325	0	19.928	0	283.0	4	94.2	4	-1E+10	1	-1E+10	1	-1E+10	1	-1E+10	1	-1E+10	1	-1E+10	1
4902551	54	C	02/06/2022	14:01	-132.828	49.452	0	21.00	0	6.8450	0	32.3150	0	25.325	0	20.820	0	282.9	4	94.2	4	-1E+10	1	-1E+10	1	-1E+10	1	-1E+10	1	-1E+10	1	-1E+10	1
4902551	54	C	02/06/2022	14:01	-132.828	49.452	0	21.90	0	6.8450	0	32.3150	0	25.325	0	21.712	0	282.9	4	94.2	4	-1E+10	1	-1E+10	1	-1E+10	1	-1E+10	1	-1E+10	1	-1E+10	1
4902551	54	C	02/06/2022	14:01	-132.828	49.452	0	23.10	0	6.8450	0	32.3150	0	25.325	0	22.902	0	282.9	4	94.2	4	-1E+10	1	-1E+10	1	-1E+10	1	-1E+10	1	-1E+10	1	-1E+10	1
4902551	54	C	02/06/2022	14:01	-132.828	49.452	0	24.00	0	6.8450	0	32.3160	0	25.326	0	23.794	0	282.9	4	94.2	4	-1E+10	1	-1E+10	1	-1E+10	1	-1E+10	1	-1E+10	1	-1E+10	1
4902551	54	C	02/06/2022	14:01	-132.828	49.452	0	25.00	0	6.8450	0	32.3150	0	25.325	0	24.785	0	282.9	4	94.2	4	-1E+10	1	-1E+10	1	-1E+10	1	-1E+10	1	-1E+10	1	-1E+10	1
4902551	54	C	02/06/2022	14:01	-132.828	49.452	0	26.10	0	6.8440	0	32.3150	0	25.325	0	25.876	0	282.9	4	94.2	4	-1E+10	1	-1E+10	1	-1E+10	1	-1E+10	1	-1E+10	1	-1E+10	1
4902551	54	C	02/06/2022	14:01	-132.828	49.452	0	27.00	0	6.8430	0	32.3150	0	25.325	0	26.768	0	282.9	4	94.2	4	-1E+10	1	-1E+10	1	-1E+10	1	-1E+10	1	-1E+10	1	-1E+10	1
4902551	54	C	02/06/2022	14:01	-132.828	49.452	0	27.80	0	6.8420	0	32.3150	0	25.326	0	27.561	0	282.9	4	94.2	4	-1E+10	1	-1E+10	1	-1E+10	1	-1E+10	1	-1E+10	1	-1E+10	1
4902551	54	C	02/06/2022	14:01	-132.828	49.452	0	28.90	0	6.8420	0	32.3150	0	25.326	0	28.652	0	282.8	4	94.1	4	-1E+10	1	-1E+10	1	-1E+10	1	-1E+10	1	-1E+10	1	-1E+10	1
4902551	54	C	02/06/2022	14:01	-132.828	49.452	0	30.10	0	6.8440	0	32.3160	0	25.326	0	29.841	0	282.8	4	94.1	4	-1E+10	1	-1E+10	1	-1E+10	1	-1E+10	1	-1E+10	1	-1E+10	1
4902551	54	C	02/06/2022	14:01	-132.828	49.452	0	30.90	0	6.8430	0	32.3150	0	25.326	0	30.634	0	282.7	4	94.1	4	-1E+10	1	-1E+10	1	-1E+10	1	-1E+10	1	-1E+10	1	-1E+10	1
4902551	54	C	02/06/2022	14:01	-132.828	49.452	0	31.80	0	6.8390	0	32.3150	0	25.326	0	31.527	0	282.8	4	94.1	4	-1E+10	1	-1E+10	1	-1E+10	1	-1E+10	1	-1E+10	1	-1E+10	1
4902551	54	C	02/06/2022	14:01	-132.828	49.452	0	33.00	0	6.8380	0	32.3150	0	25.326	0	32.716	0	282.8	4	94.1	4	-1E+10	1	-1E+10	1	-1E+10	1	-1E+10	1	-1E+10	1	-1E+10	1
4902551	54	C	02/06/2022	14:01	-132.828	49.452	0	34.10	0	6.8380	0	32.3150	0	25.326	0	33.807	0	282.7	4	94.1	4	-1E+10	1	-1E+10	1	-1E+10	1	-1E+10	1	-1E+10	1	-1E+10	1
4902551	54	C	02/06/2022	14:01	-132.828	49.452	0	35.00	0	6.8360	0	32.3150	0	25.326	0	34.699	0	282.7	4	94.1	4	-1E+10	1	-1E+10	1	-1E+10	1	-1E+10	1	-1E+10	1	-1E+10	1
4902551	54	C	02/06/2022	14:01	-132.828	49.452	0	35.90	0	6.8350	0	32.3150	0	25.327	0	35.591	0	282.7	4	94.1	4	-1E+10	1	-1E+10	1	-1E+10	1	-1E+10	1	-1E+10	1	-1E+10	1
4902551	54	C	02/06/2022	14:01	-132.828	49.452	0	36.90	0	6.8370	0	32.3150	0	25.326	0	36.582	0	282.6	4	94.1	4	-1E+10	1	-1E+10	1	-1E+10	1	-1E+10	1	-1E+10	1	-1E+10	1
4902551	54	C	02/06/2022	14:01	-132.828	49.452	0	37.80	0	6.8360	0	32.3150	0	25.327	0	37.474	0	282.6	4	94.1	4	-1E+10	1	-1E+10	1	-1E+10	1	-1E+10	1	-1E+10	1	-1E+10	1
4902551	54	C	02/06/2022	14:01	-132.828	49.452	0	39.00	0	6.8370	0	32.3150	0	25.326	0	38.664	0	282.6	4	94.1	4	-1E+10	1	-1E+10	1	-1E+10	1	-1E+10	1	-1E+10	1	-1E+10	1
4902551	54	C	02/06/2022	14:01	-132.828	49.452	0	40.00	0	6.8380	0	32.3150	0	25.326	0	39.655	0	282.6	4	94.1	4	-1E+10	1	-1E+10	1	-1E+10	1	-1E+10	1	-1E+10	1	-1E+10	1
4902551	54	C	02/06/2022	14:01	-132.828	49.452	0	40.90	0	6.8380	0	32.3160	0	25.327	0	40.547	0	282.6	4	94.1	4	-1E+10	1	-1E+10	1	-1E+10	1	-1E+10	1	-1E+10	1	-1E+10	1
4902551	54	C	02/06/2022	14:01	-132.828	49.452	0	41.90	0	6.8380	0	32.3160	0	25.327	0	41.539	0	282.6	4	94.1	4	-1E+10	1	-1E+10	1	-1E+10	1	-1E+10	1	-1E+10	1	-1E+10	1
4902551	54	C	02/06/2022	14:01	-132.828	49.452	0	42.80	0	6.8380	0	32.3150	0	25.326	0	42.431	0	282.5	4	94.0	4	-1E+10	1	-1E+10	1	-1E+10	1	-1E+10	1	-1E+10	1	-1E+10	1
4902551	54	C	02/06/2022	14:01	-132.828	49.452	0	44.10	0	6.8380	0	32.3150	0	25.326	0	43.719	0	282.4	4	94.0	4	-1E+10	1	-1E+10	1	-1E+10	1	-1E+10	1	-1E+10	1	-1E+10	1
4902551	54	C	02/06/2022	14:01	-132.828	49.452	0	45.10	0	6.8380	0	32.3160	0	25.327	0	44.711	0	282.5	4	94.0	4	-1E+10	1	-1E+10	1	-1E+10	1	-1E+10	1	-1E+10	1	-1E+10	1
4902551	54	C	02/06/2022	14:01	-132.828	49.452	0	46.00	0	6.8380	0	32.3150	0	25.326	0	45.603	0	282.4	4	94.0	4	-1E+10	1	-1E+10	1	-1E+10	1	-1E+10	1	-1E+10	1	-1E+10	1
4902551	54	C	02/06/2022	14:01	-132.828	49.452	0	47.00	0	6.8380	0	32.3160	0	25.327	0	46.594	0	282.4	4	94.0	4	-1E+10	1	-1E+10	1	-1E+10	1	-1E+10	1	-1E+10	1	-1E+10	1
4902551	54	C	02/06/2022	14:01	-132.828	49.452	0	48.00	0	6.8370	0	32.3150	0	25.327	0	47.585	0	282.4	4	94.0	4	-1E+10	1	-1E+10	1	-1E+10	1	-1E+10	1	-1E+10	1	-1E+10	1
4902551	54	C	02/06/2022	14:01	-132.828	49.452	0	49.00	0	6.8370	0	32.3150	0	25.327	0	48.577	0	282.3	4	94.0	4	-1E+10	1	-1E+10	1	-1E+10	1	-1E+10	1	-1E+10	1	-1E+10	1
4902551	54	C	02/06/2022	14:01	-132.828	49.452	0	49.90	0	6.8370	0	32.3150	0	25.327	0	49.469	0	282.3	4	94.0	4	-1E+10	1	-1E+10	1	-1E+10	1	-1E+10	1	-1E+10	1	-1E+10	1
4902551	54	C	02/06/2022	14:01	-132.828	49.452	0	51.00	0	6.8370	0	32.3160	0	25.327	0	50.559	0	282.3	4	94.0	4	-1E+10	1	-1E+10	1	-1E+10	1	-1E+10	1	-1E+10	1	-1E+10	1
4902551	54	C	02/06/2022	14:01	-132.828	49.452	0	51.90	0	6.8370	0	32.3150	0	25.327	0	51.451	0	282.2	4	93.9	4	-1E+10	1	-1E+10	1	-1E+10	1	-1E+10	1	-1E+10	1	-1E+10	1
4902551	54	C	02/06/2022	14:01	-132.828	49.452	0	53.10	0	6.8370	0	32.3150	0	25.327	0	52.641	0	282.1	4	93.9	4	-1E+10	1	-1E+10	1	-1E+10	1	-1E+10	1	-1E+10	1	-1E+10	1
4902551	54	C	02/06/2022	14:01	-132.828	49.452	0	54.00	0	6.8360	0	32.3160	0	25.327	0	53.533	0	282.1	4	93.9	4	-1E+10	1	-1E+10	1	-1E+10	1	-1E+10	1	-1E+10	1	-1E+10	1
4902551	54	C	02/06/2022	14:01	-132.828	49.452	0	54.90	0	6.8360	0	32.3150	0	25.327	0	54.425	0	282.0	4	93.9	4	-1E+10	1	-1E+10	1	-1E+10	1	-1E+10	1	-1E+10	1	-1E+10	1
4902551	54	C	02/06/2022	14:01	-132.828	49.452	0	56.10	0	6.8350	0	32.3150	0	25.327	0	55.614	0	282.0	4	93.9	4	-1E+10	1	-1E+10	1	-1E+10	1	-1E+10	1	-1E+10	1	-1E+10	1
4902551	54	C	02/06/2022	14:01	-132.828	49.452	0	57.00	0	6.8350	0	32.3150	0	25.327	0	56.506	0	281.9	4	93.8	4	-1E+10	1	-1E+10	1	-1E+10	1	-1E+10	1	-1E+10	1	-1E+10	1
4902551	54	C	02/06/2022	14:01	-132.828	49.452	0	57.80	0	6.8340	0	32.3150	0	25.327	0	57.299	0	281.9	4	93.8	4	-1E+10	1	-1E+10	1	-1E+10	1	-1E+10	1	-1E+10	1	-1E+10	1
4902551	54	C	02/06/2022	14:01	-132.828	49.452	0	59.00	0	6.8330	0	32.3150	0	25.327	0	58.489	0	281.8	4	93.8	4	-1E+10	1	-1E+10	1	-1E+10	1	-1E+10	1	-1E+10	1	-1E+10	1
4902551	54	C	02/06/2022	14:01	-132.828	49.452	0	59.90	0	6.8340	0	32.3150	0	25.327	0	59.381	0	281.7	4	93.8	4	-1E+10	1	-1E+10	1	-1E+10	1	-1E+10	1	-1E+10	1	-1E+10	1
4902551	54	C	02/06/2022	14:01	-132.828	49.452	0	60.80	0	6.8310	0	32.3150	0	25.327	0	60.273	0	281.7	4	93.8	4	-1E+10	1	-1E+10	1	-1E+10	1	-1E+10	1	-1E+10	1	-1E+10	1
4902551	54	C	02/06/2022	14:01	-132.828	49.452	0	61.90	0	6.8310	0	32.3150	0	25.327	0	61.363	0	281.5	4	93.7	4	-1E+10	1	-1E+10	1	-1E+10	1	-1E+10	1	-1E+10	1	-1E+10	1
4902551	54	C	02/06/2022	14:01	-132.828	49.452	0	63.00	0	6.8310	0	32.3150	0	25.327	0	62.453	0	281.5	4	93.7	4	-1E+10	1	-1E+10	1	-1E+10	1	-1E+10	1	-1E+10	1	-1E+10	1
4902551	54	C	02/06/2022	14:01	-132.828	49.452	0	63.90	0	6.8300	0	32.3150	0	25.328	0	63.346	0	281.4	4	93.7	4	-1E+10	1	-1E+10	1	-1E+10	1	-1E+10	1	-1E+10	1	-1E+10	1
4902551	54	C	02/06/2022	14:01	-132.828	49.452	0	64.70	0	6.8300	0	32.3150	0	25.328	0	64.138	0	281.3	4	93.6	4	-1E+10	1	-1E+10	1	-1E+10	1	-1E+10	1	-1E+10	1	-1E+10	1
4902551	54	C	02/06/2022	14:01	-132.828	49.452	0	65.80	0	6.8290	0	32.3150	0	25.328	0	65.229	0	281.1	4	93.6	4	-1E+10	1	-1E+10	1	-1E+10	1	-1E+10	1	-1E+10	1	-1E+10	1
4902551	54	C	02/06/2022	14:01	-132.828	49.452	0	66.80	0	6.8280	0	32.3150	0	25.328	0	66.220	0	281.0	4	93.5	4	-1E+10	1	-1E+10	1	-1E+10	1	-1E+10	1	-1E+10	1	-1E+10	1
4902551	54	C	02/06/2022	14:01	-132.828	49.452	0	67.90	0	6.8280	0	32.3150	0	25.328	0	67.310	0	280.8	4	93.5	4	-1E+10	1	-1E+10	1	-1E+10	1	-1E+10	1	-1E+10	1	-1E+10	1
4902551	54	C	02/06/2022	14:01	-132.828	49.452	0	68.90	0	6.8280	0	32.3150	0	25.328	0	68.301	0	280.5	4	93.4	4	-1E+10	1	-1E+10	1	-1E+10	1	-1E+10	1	-1E+10	1	-1E+10	1
4902551	54	C	02/06/2022	14:01	-132.828	49.452	0	69.90	0	6.8280	0	32.3150	0	25.328	0	69.292	0	280.4	4	93.3	4	-1E+10	1	-1E+10	1	-1E+10	1	-1E+10	1	-1E+10	1	-1E+10	1
4902551	54	C	02/06/2022	14:01	-132.828	49.452	0	71.00	0	6.8270	0	32.3150	0	25.328	0	70.383	0	280.0	4	93.2	4	-1E+10	1	-1E+10	1	-1E+10	1	-1E+10	1	-1E+10	1	-1E+10	1
4902551	54	C	02/06/2022	14:01	-132.828	49.452	0	71.90	0	6.8250	0	32.3150	0	25.328	0	71.275	0	279.6	4	93.0	4	-1E+10	1	-1E+10	1	-1E+10	1	-1E+10	1	-1E+10	1	-1E+10	1
4902551	54	C	02/06/2022	14:01	-132.828	49.452	0	73.00	0	6.8240	0	32.3170	0	25.330	0	72.365	0	278.9	4	92.8	4	-1E+10	1	-1E+10	1	-1E+10	1	-1E+10	1	-1E+10	1	-1E+10	1
4902551	54	C	02/06/2022	14:01	-132.828	49.452	0	74.00	0	6.8250	0	32.3170	0	25.330	0	73.356	0	278.2	4	92.6	4	-1E+10	1	-1E+10	1	-1E+10	1	-1E+10	1	-1E+10	1	-1E+10	1
4902551	54	C	02/06/2022	14:01	-132.828	49.452	0	74.90	0	6.8250	0	32.3180	0	25.331	0	74.248	0	277.6	4	92.4	4	-1E+10	1	-1E+10	1	-1E+10	1	-1E+10	1	-1E+10	1	-1E+10	1
4902551	54	C	02/06/2022	14:01	-132.828	49.452	0	76.10	0	6.8240	0	32.3200	0	25.332	0	75.437	0	276.6	4	92.0	4	-1E+10	1	-1E+10	1	-1E+10	1	-1E+10	1	-1E+10	1	-1E+10	1
4902551	54	C	02/06/2022	14:01	-132.828	49.452	0	77.00	0	6.8240	0	32.3200	0	25.332	0	76.329	0	275.7	4	91.7	4	-1E+10	1	-1E+10	1	-1E+10	1	-1E+10	1	-1E+10	1	-1E+10	1
4902551	54	C	02/06/2022	14:01	-132.828	49.452	0	78.00	0	6.8240	0	32.3200	0	25.332	0	77.321	0	274.6	4	91.4	4	-1E+10	1	-1E+10	1	-1E+10	1	-1E+10	1	-1E+10	1	-1E+10	1
4902551	54	C	02/06/2022	14:01	-132.828	49.452	0	79.00	0	6.8220	0	32.3230	0	25.335	0	78.312	0	273.3	4	90.9	4	-1E+10	1	-1E+10	1	-1E+10	1	-1E+10	1	-1E+10	1	-1E+10	1
4902551	54	C	02/06/2022	14:01	-132.828	49.452	0	80.00	0	6.8210	0	32.3240	0	25.336	0	79.303	0	271.6	4	90.4	4	-1E+10	1	-1E+10	1	-1E+10	1	-1E+10	1	-1E+10	1	-1E+10	1
4902551	54	C	02/06/2022	14:01	-132.828	49.452	0	81.10	0	6.8200	0	32.3250	0	25.337	0	80.393	0	269.7	4	89.7	4	-1E+10	1	-1E+10	1	-1E+10	1	-1E+10	1	-1E+10	1	-1E+10	1
4902551	54	C	02/06/2022	14:01	-132.828	49.452	0	82.10	0	6.8180	0	32.3270	0	25.339	0	81.384	0	267.4	4	89.0	4	-1E+10	1	-1E+10	1	-1E+10	1	-1E+10	1	-1E+10	1	-1E+10	1
4902551	54	C	02/06/2022	14:01	-132.828	49.452	0	82.90	0	6.7950	0	32.3460	0	25.357	0	82.177	0	266.0	4	88.5	4	-1E+10	1	-1E+10	1	-1E+10	1	-1E+10	1	-1E+10	1	-1E+10	1
4902551	54	C	02/06/2022	14:01	-132.828	49.452	0	83.90	0	6.7410	0	32.3900	0	25.399	0	83.168	0	271.2	4	90.1	4	-1E+10	1	-1E+10	1	-1E+10	1	-1E+10	1	-1E+10	1	-1E+10	1
4902551	54	C	02/06/2022	14:01	-132.828	49.452	0	84.90	0	6.7140	0	32.4080	0	25.416	0	84.159	0	270.3	4	89.8	4	-1E+10	1	-1E+10	1	-1E+10	1	-1E+10	1	-1E+10	1	-1E+10	1
4902551	54	C	02/06/2022	14:01	-132.828	49.452	0	85.80	0	6.6950	0	32.4210	0	25.429	0	85.051	0	269.3	4	89.4	4	-1E+10	1	-1E+10	1	-1E+10	1	-1E+10	1	-1E+10	1	-1E+10	1
4902551	54	C	02/06/2022	14:01	-132.828	49.452	0	86.90	0	6.6810	0	32.4300	0	25.438	0	86.141	0	268.4	4	89.1	4	-1E+10	1	-1E+10	1	-1E+10	1	-1E+10	1	-1E+10	1	-1E+10	1
4902551	54	C	02/06/2022	14:01	-132.828	49.452	0	87.90	0	6.6770	0	32.4330	0	25.441	0	87.132	0	267.3	4	88.7	4	-1E+10	1	-1E+10	1	-1E+10	1	-1E+10	1	-1E+10	1	-1E+10	1
4902551	54	C	02/06/2022	14:01	-132.828	49.452	0	88.90	0	6.6660	0	32.4410	0	25.448	0	88.123	0	266.1	4	88.3	4	-1E+10	1	-1E+10	1	-1E+10	1	-1E+10	1	-1E+10	1	-1E+10	1
4902551	54	C	02/06/2022	14:01	-132.828	49.452	0	89.90	0	6.6600	0	32.4440	0	25.452	0	89.114	0	264.9	4	87.9	4	-1E+10	1	-1E+10	1	-1E+10	1	-1E+10	1	-1E+10	1	-1E+10	1
4902551	54	C	02/06/2022	14:01	-132.828	49.452	0	91.10	0	6.6340	0	32.4620	0	25.469	0	90.304	0	263.3	4	87.3	4	-1E+10	1	-1E+10	1	-1E+10	1	-1E+10	1	-1E+10	1	-1E+10	1
4902551	54	C	02/06/2022	14:01	-132.828	49.452	0	92.00	0	6.6080	0	32.4790	0	25.486	0	91.196	0	262.2	4	86.9	4	-1E+10	1	-1E+10	1	-1E+10	1	-1E+10	1	-1E+10	1	-1E+10	1
4902551	54	C	02/06/2022	14:01	-132.828	49.452	0	93.00	0	6.5860	0	32.4920	0	25.499	0	92.187	0	261.4	4	86.6	4	-1E+10	1	-1E+10	1	-1E+10	1	-1E+10	1	-1E+10	1	-1E+10	1
4902551	54	C	02/06/2022	14:01	-132.828	49.452	0	94.10	0	6.5690	0	32.5030	0	25.510	0	93.277	0	260.1	4	86.2	4	-1E+10	1	-1E+10	1	-1E+10	1	-1E+10	1	-1E+10	1	-1E+10	1
4902551	54	C	02/06/2022	14:01	-132.828	49.452	0	94.90	0	6.5400	0	32.5240	0	25.530	0	94.070	0	258.7	4	85.7	4	-1E+10	1	-1E+10	1	-1E+10	1	-1E+10	1	-1E+10	1	-1E+10	1
4902551	54	C	02/06/2022	14:01	-132.828	49.452	0	96.10	0	6.5230	0	32.5360	0	25.542	0	95.259	0	256.3	4	84.8	4	-1E+10	1	-1E+10	1	-1E+10	1	-1E+10	1	-1E+10	1	-1E+10	1
4902551	54	C	02/06/2022	14:01	-132.828	49.452	0	97.00	0	6.5050	0	32.5510	0	25.556	0	96.151	0	254.1	4	84.1	4	-1E+10	1	-1E+10	1	-1E+10	1	-1E+10	1	-1E+10	1	-1E+10	1
4902551	54	C	02/06/2022	14:01	-132.828	49.452	0	98.00	0	6.4990	0	32.5540	0	25.559	0	97.142	0	252.1	4	83.4	4	-1E+10	1	-1E+10	1	-1E+10	1	-1E+10	1	-1E+10	1	-1E+10	1
4902551	54	C	02/06/2022	14:01	-132.828	49.452	0	99.00	0	6.4780	0	32.5730	0	25.577	0	98.133	0	249.5	4	82.5	4	-1E+10	1	-1E+10	1	-1E+10	1	-1E+10	1	-1E+10	1	-1E+10	1
4902551	54	C	02/06/2022	14:01	-132.828	49.452	0	100.00	0	6.4570	0	32.5870	0	25.590	0	99.124	0	247.0	4	81.7	4	-1E+10	1	-1E+10	1	-1E+10	1	-1E+10	1	-1E+10	1	-1E+10	1
4902551	54	C	02/06/2022	14:01	-132.828	49.452	0	101.10	0	6.4250	0	32.6120	0	25.614	0	100.214	0	245.7	4	81.2	4	-1E+10	1	-1E+10	1	-1E+10	1	-1E+10	1	-1E+10	1	-1E+10	1
4902551	54	C	02/06/2022	14:01	-132.828	49.452	0	101.80	0	6.3790	0	32.6650	0	25.662	0	100.907	0	244.5	4	80.7	4	-1E+10	1	-1E+10	1	-1E+10	1	-1E+10	1	-1E+10	1	-1E+10	1
4902551	54	C	02/06/2022	14:01	-132.828	49.452	0	103.00	0	6.3620	0	32.6870	0	25.681	0	102.097	0	242.6	4	80.1	4	-1E+10	1	-1E+10	1	-1E+10	1	-1E+10	1	-1E+10	1	-1E+10	1
4902551	54	C	02/06/2022	14:01	-132.828	49.452	0	104.00	0	6.3490	0	32.7040	0	25.697	0	103.088	0	240.8	4	79.5	4	-1E+10	1	-1E+10	1	-1E+10	1	-1E+10	1	-1E+10	1	-1E+10	1
4902551	54	C	02/06/2022	14:01	-132.828	49.452	0	105.20	0	6.3390	0	32.7170	0	25.708	0	104.277	0	238.6	4	78.7	4	-1E+10	1	-1E+10	1	-1E+10	1	-1E+10	1	-1E+10	1	-1E+10	1
4902551	54	C	02/06/2022	14:01	-132.828	49.452	0	105.90	0	6.3390	0	32.7170	0	25.708	0	104.970	0	237.0	4	78.2	4	-1E+10	1	-1E+10	1	-1E+10	1	-1E+10	1	-1E+10	1	-1E+10	1
4902551	54	C	02/06/2022	14:01	-132.828	49.452	0	107.10	0	6.3360	0	32.7210	0	25.712	0	106.160	0	234.1	4	77.3	4	-1E+10	1	-1E+10	1	-1E+10	1	-1E+10	1	-1E+10	1	-1E+10	1
4902551	54	C	02/06/2022	14:01	-132.828	49.452	0	107.90	0	6.3310	0	32.7270	0	25.717	0	106.952	0	231.7	4	76.5	4	-1E+10	1	-1E+10	1	-1E+10	1	-1E+10	1	-1E+10	1	-1E+10	1
4902551	54	C	02/06/2022	14:01	-132.828	49.452	0	109.10	0	6.3140	0	32.7470	0	25.735	0	108.142	0	227.7	4	75.1	4	-1E+10	1	-1E+10	1	-1E+10	1	-1E+10	1	-1E+10	1	-1E+10	1
4902551	54	C	02/06/2022	14:01	-132.828	49.452	0	109.80	0	6.2970	0	32.7650	0	25.751	0	108.835	0	225.7	4	74.4	4	-1E+10	1	-1E+10	1	-1E+10	1	-1E+10	1	-1E+10	1	-1E+10	1
4902551	54	C	02/06/2022	14:01	-132.828	49.452	0	110.90	0	6.2510	0	32.8210	0	25.801	0	109.925	0	223.2	4	73.6	4	-1E+10	1	-1E+10	1	-1E+10	1	-1E+10	1	-1E+10	1	-1E+10	1
4902551	54	C	02/06/2022	14:01	-132.828	49.452	0	112.00	0	6.2210	0	32.8640	0	25.839	0	111.015	0	221.0	4	72.8	4	-1E+10	1	-1E+10	1	-1E+10	1	-1E+10	1	-1E+10	1	-1E+10	1
4902551	54	C	02/06/2022	14:01	-132.828	49.452	0	113.10	0	6.2160	0	32.8710	0	25.845	0	112.105	0	218.4	4	71.9	4	-1E+10	1	-1E+10	1	-1E+10	1	-1E+10	1	-1E+10	1	-1E+10	1
4902551	54	C	02/06/2022	14:01	-132.828	49.452	0	114.00	0	6.2130	0	32.8760	0	25.849	0	112.997	0	216.3	4	71.3	4	-1E+10	1	-1E+10	1	-1E+10	1	-1E+10	1	-1E+10	1	-1E+10	1
4902551	54	C	02/06/2022	14:01	-132.828	49.452	0	114.90	0	6.1990	0	32.9020	0	25.872	0	113.889	0	214.4	4	70.6	4	-1E+10	1	-1E+10	1	-1E+10	1	-1E+10	1	-1E+10	1	-1E+10	1
4902551	54	C	02/06/2022	14:01	-132.828	49.452	0	116.10	0	6.1780	0	32.9410	0	25.905	0	115.078	0	211.8	4	69.8	4	-1E+10	1	-1E+10	1	-1E+10	1	-1E+10	1	-1E+10	1	-1E+10	1
4902551	54	C	02/06/2022	14:01	-132.828	49.452	0	117.10	0	6.1750	0	32.9470	0	25.910	0	116.069	0	209.6	4	69.0	4	-1E+10	1	-1E+10	1	-1E+10	1	-1E+10	1	-1E+10	1	-1E+10	1
4902551	54	C	02/06/2022	14:01	-132.828	49.452	0	118.00	0	6.1720	0	32.9540	0	25.916	0	116.961	0	207.0	4	68.2	4	-1E+10	1	-1E+10	1	-1E+10	1	-1E+10	1	-1E+10	1	-1E+10	1
4902551	54	C	02/06/2022	14:01	-132.828	49.452	0	119.00	0	6.1680	0	32.9680	0	25.928	0	117.952	0	204.2	4	67.3	4	-1E+10	1	-1E+10	1	-1E+10	1	-1E+10	1	-1E+10	1	-1E+10	1
4902551	54	C	02/06/2022	14:01	-132.828	49.452	0	120.00	0	6.1560	0	33.0030	0	25.957	0	118.943	0	201.6	4	66.4	4	-1E+10	1	-1E+10	1	-1E+10	1	-1E+10	1	-1E+10	1	-1E+10	1
4902551	54	C	02/06/2022	14:01	-132.828	49.452	0	121.10	0	6.1500	0	33.0210	0	25.972	0	120.033	0	199.2	4	65.6	4	-1E+10	1	-1E+10	1	-1E+10	1	-1E+10	1	-1E+10	1	-1E+10	1
4902551	54	C	02/06/2022	14:01	-132.828	49.452	0	121.80	0	6.1320	0	33.0660	0	26.010	0	120.726	0	198.0	4	65.2	4	-1E+10	1	-1E+10	1	-1E+10	1	-1E+10	1	-1E+10	1	-1E+10	1
4902551	54	C	02/06/2022	14:01	-132.828	49.452	0	122.90	0	6.1240	0	33.0880	0	26.028	0	121.816	0	195.9	4	64.5	4	-1E+10	1	-1E+10	1	-1E+10	1	-1E+10	1	-1E+10	1	-1E+10	1
4902551	54	C	02/06/2022	14:01	-132.828	49.452	0	124.10	0	6.1230	0	33.1010	0	26.038	0	123.005	0	193.8	4	63.8	4	-1E+10	1	-1E+10	1	-1E+10	1	-1E+10	1	-1E+10	1	-1E+10	1
4902551	54	C	02/06/2022	14:01	-132.828	49.452	0	124.80	0	6.1210	0	33.1060	0	26.043	0	123.699	0	192.3	4	63.3	4	-1E+10	1	-1E+10	1	-1E+10	1	-1E+10	1	-1E+10	1	-1E+10	1
4902551	54	C	02/06/2022	14:01	-132.828	49.452	0	125.90	0	6.1180	0	33.1100	0	26.046	0	124.789	0	189.9	4	62.5	4	-1E+10	1	-1E+10	1	-1E+10	1	-1E+10	1	-1E+10	1	-1E+10	1
4902551	54	C	02/06/2022	14:01	-132.828	49.452	0	127.00	0	6.1170	0	33.1150	0	26.050	0	125.879	0	187.5	4	61.7	4	-1E+10	1	-1E+10	1	-1E+10	1	-1E+10	1	-1E+10	1	-1E+10	1
4902551	54	C	02/06/2022	14:01	-132.828	49.452	0	128.00	0	6.1100	0	33.1360	0	26.068	0	126.870	0	184.9	4	60.9	4	-1E+10	1	-1E+10	1	-1E+10	1	-1E+10	1	-1E+10	1	-1E+10	1
4902551	54	C	02/06/2022	14:01	-132.828	49.452	0	129.20	0	6.1040	0	33.1600	0	26.087	0	128.059	0	182.3	4	60.0	4	-1E+10	1	-1E+10	1	-1E+10	1	-1E+10	1	-1E+10	1	-1E+10	1
4902551	54	C	02/06/2022	14:01	-132.828	49.452	0	130.00	0	6.1000	0	33.1730	0	26.098	0	128.851	0	180.5	4	59.4	4	-1E+10	1	-1E+10	1	-1E+10	1	-1E+10	1	-1E+10	1	-1E+10	1
4902551	54	C	02/06/2022	14:01	-132.828	49.452	0	130.80	0	6.0930	0	33.2000	0	26.120	0	129.644	0	178.8	4	58.9	4	-1E+10	1	-1E+10	1	-1E+10	1	-1E+10	1	-1E+10	1	-1E+10	1
4902551	54	C	02/06/2022	14:01	-132.828	49.452	0	131.70	0	6.0920	0	33.2100	0	26.128	0	130.536	0	177.0	4	58.3	4	-1E+10	1	-1E+10	1	-1E+10	1	-1E+10	1	-1E+10	1	-1E+10	1
4902551	54	C	02/06/2022	14:01	-132.828	49.452	0	132.60	0	6.0900	0	33.2250	0	26.141	0	131.428	0	175.2	4	57.7	4	-1E+10	1	-1E+10	1	-1E+10	1	-1E+10	1	-1E+10	1	-1E+10	1
4902551	54	C	02/06/2022	14:01	-132.828	49.452	0	133.90	0	6.0830	0	33.2770	0	26.182	0	132.716	0	172.7	4	56.9	4	-1E+10	1	-1E+10	1	-1E+10	1	-1E+10	1	-1E+10	1	-1E+10	1
4902551	54	C	02/06/2022	14:01	-132.828	49.452	0	135.40	0	6.0810	0	33.3020	0	26.202	0	134.202	0	170.1	4	56.1	4	-1E+10	1	-1E+10	1	-1E+10	1	-1E+10	1	-1E+10	1	-1E+10	1
4902551	54	C	02/06/2022	14:01	-132.828	49.452	0	136.30	0	6.0790	0	33.3310	0	26.226	0	135.094	0	168.5	4	55.5	4	-1E+10	1	-1E+10	1	-1E+10	1	-1E+10	1	-1E+10	1	-1E+10	1
4902551	54	C	02/06/2022	14:01	-132.828	49.452	0	137.30	0	6.0770	0	33.3580	0	26.247	0	136.084	0	167.0	4	55.0	4	-1E+10	1	-1E+10	1	-1E+10	1	-1E+10	1	-1E+10	1	-1E+10	1
4902551	54	C	02/06/2022	14:01	-132.828	49.452	0	138.20	0	6.0750	0	33.3800	0	26.265	0	136.976	0	165.7	4	54.6	4	-1E+10	1	-1E+10	1	-1E+10	1	-1E+10	1	-1E+10	1	-1E+10	1
4902551	54	C	02/06/2022	14:01	-132.828	49.452	0	139.20	0	6.0730	0	33.3980	0	26.279	0	137.967	0	164.5	4	54.2	4	-1E+10	1	-1E+10	1	-1E+10	1	-1E+10	1	-1E+10	1	-1E+10	1
4902551	54	C	02/06/2022	14:01	-132.828	49.452	0	140.20	0	6.0720	0	33.4060	0	26.286	0	138.958	0	163.3	4	53.9	4	-1E+10	1	-1E+10	1	-1E+10	1	-1E+10	1	-1E+10	1	-1E+10	1
4902551	54	C	02/06/2022	14:01	-132.828	49.452	0	141.20	0	6.0720	0	33.4100	0	26.289	0	139.949	0	161.9	4	53.4	4	-1E+10	1	-1E+10	1	-1E+10	1	-1E+10	1	-1E+10	1	-1E+10	1
4902551	54	C	02/06/2022	14:01	-132.828	49.452	0	142.10	0	6.0690	0	33.4190	0	26.296	0	140.840	0	160.5	4	52.9	4	-1E+10	1	-1E+10	1	-1E+10	1	-1E+10	1	-1E+10	1	-1E+10	1
4902551	54	C	02/06/2022	14:01	-132.828	49.452	0	143.10	0	6.0660	0	33.4290	0	26.305	0	141.831	0	159.0	4	52.4	4	-1E+10	1	-1E+10	1	-1E+10	1	-1E+10	1	-1E+10	1	-1E+10	1
4902551	54	C	02/06/2022	14:01	-132.828	49.452	0	144.10	0	6.0650	0	33.4320	0	26.307	0	142.822	0	157.4	4	51.9	4	-1E+10	1	-1E+10	1	-1E+10	1	-1E+10	1	-1E+10	1	-1E+10	1
4902551	54	C	02/06/2022	14:01	-132.828	49.452	0	145.10	0	6.0600	0	33.4490	0	26.321	0	143.813	0	155.7	4	51.3	4	-1E+10	1	-1E+10	1	-1E+10	1	-1E+10	1	-1E+10	1	-1E+10	1
4902551	54	C	02/06/2022	14:01	-132.828	49.452	0	146.10	0	6.0520	0	33.4730	0	26.341	0	144.803	0	154.2	4	50.8	4	-1E+10	1	-1E+10	1	-1E+10	1	-1E+10	1	-1E+10	1	-1E+10	1
4902551	54	C	02/06/2022	14:01	-132.828	49.452	0	147.10	0	6.0470	0	33.4980	0	26.362	0	145.794	0	152.4	4	50.2	4	-1E+10	1	-1E+10	1	-1E+10	1	-1E+10	1	-1E+10	1	-1E+10	1
4902551	54	C	02/06/2022	14:01	-132.828	49.452	0	148.10	0	6.0440	0	33.5090	0	26.371	0	146.785	0	150.9	4	49.8	4	-1E+10	1	-1E+10	1	-1E+10	1	-1E+10	1	-1E+10	1	-1E+10	1
4902551	54	C	02/06/2022	14:01	-132.828	49.452	0	149.20	0	6.0310	0	33.5430	0	26.399	0	147.875	0	149.6	4	49.3	4	-1E+10	1	-1E+10	1	-1E+10	1	-1E+10	1	-1E+10	1	-1E+10	1
4902551	54	C	02/06/2022	14:01	-132.828	49.452	0	150.30	0	6.0200	0	33.5630	0	26.416	0	148.965	0	148.5	4	49.0	4	-1E+10	1	-1E+10	1	-1E+10	1	-1E+10	1	-1E+10	1	-1E+10	1
4902551	54	C	02/06/2022	14:01	-132.828	49.452	0	151.30	0	5.9990	0	33.5990	0	26.447	0	149.955	0	147.8	4	48.7	4	-1E+10	1	-1E+10	1	-1E+10	1	-1E+10	1	-1E+10	1	-1E+10	1
4902551	54	C	02/06/2022	14:01	-132.828	49.452	0	152.40	0	5.9940	0	33.6050	0	26.453	0	151.045	0	147.1	4	48.5	4	-1E+10	1	-1E+10	1	-1E+10	1	-1E+10	1	-1E+10	1	-1E+10	1
4902551	54	C	02/06/2022	14:01	-132.828	49.452	0	153.40	0	5.9900	0	33.6100	0	26.457	0	152.036	0	146.5	4	48.3	4	-1E+10	1	-1E+10	1	-1E+10	1	-1E+10	1	-1E+10	1	-1E+10	1
4902551	54	C	02/06/2022	14:01	-132.828	49.452	0	154.40	0	5.9870	0	33.6130	0	26.460	0	153.027	0	145.9	4	48.1	4	-1E+10	1	-1E+10	1	-1E+10	1	-1E+10	1	-1E+10	1	-1E+10	1
4902551	54	C	02/06/2022	14:01	-132.828	49.452	0	155.40	0	5.9820	0	33.6190	0	26.465	0	154.017	0	145.2	4	47.9	4	-1E+10	1	-1E+10	1	-1E+10	1	-1E+10	1	-1E+10	1	-1E+10	1
4902551	54	C	02/06/2022	14:01	-132.828	49.452	0	157.00	0	5.9760	0	33.6240	0	26.470	0	155.603	0	144.0	4	47.5	4	-1E+10	1	-1E+10	1	-1E+10	1	-1E+10	1	-1E+10	1	-1E+10	1
4902551	54	C	02/06/2022	14:01	-132.828	49.452	0	158.20	0	5.9710	0	33.6300	0	26.476	0	156.792	0	143.1	4	47.1	4	-1E+10	1	-1E+10	1	-1E+10	1	-1E+10	1	-1E+10	1	-1E+10	1
4902551	54	C	02/06/2022	14:01	-132.828	49.452	0	159.00	0	5.9660	0	33.6340	0	26.479	0	157.584	0	142.4	4	46.9	4	-1E+10	1	-1E+10	1	-1E+10	1	-1E+10	1	-1E+10	1	-1E+10	1
4902551	54	C	02/06/2022	14:01	-132.828	49.452	0	159.90	0	5.9630	0	33.6370	0	26.482	0	158.476	0	141.8	4	46.7	4	-1E+10	1	-1E+10	1	-1E+10	1	-1E+10	1	-1E+10	1	-1E+10	1
4902551	54	C	02/06/2022	14:01	-132.828	49.452	0	161.00	0	5.9620	0	33.6370	0	26.482	0	159.566	0	140.6	4	46.3	4	-1E+10	1	-1E+10	1	-1E+10	1	-1E+10	1	-1E+10	1	-1E+10	1
4902551	54	C	02/06/2022	14:01	-132.828	49.452	0	162.20	0	5.9620	0	33.6370	0	26.482	0	160.754	0	139.2	4	45.9	4	-1E+10	1	-1E+10	1	-1E+10	1	-1E+10	1	-1E+10	1	-1E+10	1
4902551	54	C	02/06/2022	14:01	-132.828	49.452	0	163.00	0	5.9570	0	33.6430	0	26.488	0	161.547	0	138.4	4	45.6	4	-1E+10	1	-1E+10	1	-1E+10	1	-1E+10	1	-1E+10	1	-1E+10	1
4902551	54	C	02/06/2022	14:01	-132.828	49.452	0	163.80	0	5.9550	0	33.6440	0	26.489	0	162.339	0	137.4	4	45.3	4	-1E+10	1	-1E+10	1	-1E+10	1	-1E+10	1	-1E+10	1	-1E+10	1
4902551	54	C	02/06/2022	14:01	-132.828	49.452	0	164.60	0	5.9380	0	33.6600	0	26.503	0	163.132	0	136.6	4	45.0	4	-1E+10	1	-1E+10	1	-1E+10	1	-1E+10	1	-1E+10	1	-1E+10	1
4902551	54	C	02/06/2022	14:01	-132.828	49.452	0	165.90	0	5.9060	0	33.6830	0	26.526	0	164.420	0	135.6	4	44.6	4	-1E+10	1	-1E+10	1	-1E+10	1	-1E+10	1	-1E+10	1	-1E+10	1
4902551	54	C	02/06/2022	14:01	-132.828	49.452	0	167.20	0	5.8940	0	33.6890	0	26.532	0	165.708	0	134.8	4	44.3	4	-1E+10	1	-1E+10	1	-1E+10	1	-1E+10	1	-1E+10	1	-1E+10	1
4902551	54	C	02/06/2022	14:01	-132.828	49.452	0	168.00	0	5.8900	0	33.6910	0	26.534	0	166.500	0	134.1	4	44.1	4	-1E+10	1	-1E+10	1	-1E+10	1	-1E+10	1	-1E+10	1	-1E+10	1
4902551	54	C	02/06/2022	14:01	-132.828	49.452	0	168.90	0	5.8860	0	33.6930	0	26.536	0	167.392	0	133.3	4	43.9	4	-1E+10	1	-1E+10	1	-1E+10	1	-1E+10	1	-1E+10	1	-1E+10	1
4902551	54	C	02/06/2022	14:01	-132.828	49.452	0	169.70	0	5.8810	0	33.6950	0	26.538	0	168.184	0	132.5	4	43.6	4	-1E+10	1	-1E+10	1	-1E+10	1	-1E+10	1	-1E+10	1	-1E+10	1
4902551	54	C	02/06/2022	14:01	-132.828	49.452	0	170.60	0	5.8760	0	33.6970	0	26.540	0	169.076	0	131.6	4	43.3	4	-1E+10	1	-1E+10	1	-1E+10	1	-1E+10	1	-1E+10	1	-1E+10	1
4902551	54	C	02/06/2022	14:01	-132.828	49.452	0	171.90	0	5.8460	0	33.7100	0	26.554	0	170.364	0	130.2	4	42.8	4	-1E+10	1	-1E+10	1	-1E+10	1	-1E+10	1	-1E+10	1	-1E+10	1
4902551	54	C	02/06/2022	14:01	-132.828	49.452	0	173.20	0	5.8090	0	33.7250	0	26.571	0	171.652	0	128.8	4	42.3	4	-1E+10	1	-1E+10	1	-1E+10	1	-1E+10	1	-1E+10	1	-1E+10	1
4902551	54	C	02/06/2022	14:01	-132.828	49.452	0	174.10	0	5.8060	0	33.7250	0	26.571	0	172.543	0	128.0	4	42.0	4	-1E+10	1	-1E+10	1	-1E+10	1	-1E+10	1	-1E+10	1	-1E+10	1
4902551	54	C	02/06/2022	14:01	-132.828	49.452	0	174.90	0	5.7980	0	33.7280	0	26.574	0	173.336	0	127.1	4	41.7	4	-1E+10	1	-1E+10	1	-1E+10	1	-1E+10	1	-1E+10	1	-1E+10	1
4902551	54	C	02/06/2022	14:01	-132.828	49.452	0	175.80	0	5.7860	0	33.7310	0	26.578	0	174.227	0	126.1	4	41.4	4	-1E+10	1	-1E+10	1	-1E+10	1	-1E+10	1	-1E+10	1	-1E+10	1
4902551	54	C	02/06/2022	14:01	-132.828	49.452	0	176.70	0	5.7750	0	33.7340	0	26.582	0	175.119	0	125.3	4	41.1	4	-1E+10	1	-1E+10	1	-1E+10	1	-1E+10	1	-1E+10	1	-1E+10	1
4902551	54	C	02/06/2022	14:01	-132.828	49.452	0	177.90	0	5.7520	0	33.7390	0	26.589	0	176.308	0	124.3	4	40.8	4	-1E+10	1	-1E+10	1	-1E+10	1	-1E+10	1	-1E+10	1	-1E+10	1
4902551	54	C	02/06/2022	14:01	-132.828	49.452	0	179.30	0	5.7430	0	33.7410	0	26.592	0	177.695	0	123.0	4	40.3	4	-1E+10	1	-1E+10	1	-1E+10	1	-1E+10	1	-1E+10	1	-1E+10	1
4902551	54	C	02/06/2022	14:01	-132.828	49.452	0	180.10	0	5.6830	0	33.7560	0	26.611	0	178.487	0	122.3	4	40.1	4	-1E+10	1	-1E+10	1	-1E+10	1	-1E+10	1	-1E+10	1	-1E+10	1
4902551	54	C	02/06/2022	14:01	-132.828	49.452	0	181.00	0	5.6580	0	33.7600	0	26.617	0	179.379	0	121.8	4	39.9	4	-1E+10	1	-1E+10	1	-1E+10	1	-1E+10	1	-1E+10	1	-1E+10	1
4902551	54	C	02/06/2022	14:01	-132.828	49.452	0	181.90	0	5.6550	0	33.7600	0	26.617	0	180.270	0	121.2	4	39.7	4	-1E+10	1	-1E+10	1	-1E+10	1	-1E+10	1	-1E+10	1	-1E+10	1
4902551	54	C	02/06/2022	14:01	-132.828	49.452	0	182.80	0	5.6430	0	33.7620	0	26.620	0	181.162	0	120.6	4	39.5	4	-1E+10	1	-1E+10	1	-1E+10	1	-1E+10	1	-1E+10	1	-1E+10	1
4902551	54	C	02/06/2022	14:01	-132.828	49.452	0	183.70	0	5.6380	0	33.7620	0	26.621	0	182.053	0	119.9	4	39.2	4	-1E+10	1	-1E+10	1	-1E+10	1	-1E+10	1	-1E+10	1	-1E+10	1
4902551	54	C	02/06/2022	14:01	-132.828	49.452	0	185.00	0	5.6180	0	33.7680	0	26.628	0	183.341	0	118.9	4	38.9	4	-1E+10	1	-1E+10	1	-1E+10	1	-1E+10	1	-1E+10	1	-1E+10	1
4902551	54	C	02/06/2022	14:01	-132.828	49.452	0	186.40	0	5.5730	0	33.7730	0	26.637	0	184.728	0	118.3	4	38.6	4	-1E+10	1	-1E+10	1	-1E+10	1	-1E+10	1	-1E+10	1	-1E+10	1
4902551	54	C	02/06/2022	14:01	-132.828	49.452	0	187.20	0	5.5700	0	33.7750	0	26.639	0	185.520	0	117.8	4	38.5	4	-1E+10	1	-1E+10	1	-1E+10	1	-1E+10	1	-1E+10	1	-1E+10	1
4902551	54	C	02/06/2022	14:01	-132.828	49.452	0	188.10	0	5.5660	0	33.7740	0	26.639	0	186.412	0	117.4	4	38.3	4	-1E+10	1	-1E+10	1	-1E+10	1	-1E+10	1	-1E+10	1	-1E+10	1
4902551	54	C	02/06/2022	14:01	-132.828	49.452	0	189.00	0	5.5630	0	33.7740	0	26.639	0	187.303	0	116.9	4	38.2	4	-1E+10	1	-1E+10	1	-1E+10	1	-1E+10	1	-1E+10	1	-1E+10	1
4902551	54	C	02/06/2022	14:01	-132.828	49.452	0	189.90	0	5.5550	0	33.7750	0	26.641	0	188.195	0	116.4	4	38.0	4	-1E+10	1	-1E+10	1	-1E+10	1	-1E+10	1	-1E+10	1	-1E+10	1
4902551	54	C	02/06/2022	14:01	-132.828	49.452	0	190.80	0	5.5170	0	33.7800	0	26.650	0	189.086	0	116.0	4	37.9	4	-1E+10	1	-1E+10	1	-1E+10	1	-1E+10	1	-1E+10	1	-1E+10	1
4902551	54	C	02/06/2022	14:01	-132.828	49.452	0	191.70	0	5.5080	0	33.7800	0	26.651	0	189.978	0	115.5	4	37.7	4	-1E+10	1	-1E+10	1	-1E+10	1	-1E+10	1	-1E+10	1	-1E+10	1
4902551	54	C	02/06/2022	14:01	-132.828	49.452	0	192.60	0	5.4960	0	33.7820	0	26.654	0	190.869	0	115.0	4	37.5	4	-1E+10	1	-1E+10	1	-1E+10	1	-1E+10	1	-1E+10	1	-1E+10	1
4902551	54	C	02/06/2022	14:01	-132.828	49.452	0	194.00	0	5.4800	0	33.7830	0	26.657	0	192.256	0	114.5	4	37.3	4	-1E+10	1	-1E+10	1	-1E+10	1	-1E+10	1	-1E+10	1	-1E+10	1
4902551	54	C	02/06/2022	14:01	-132.828	49.452	0	195.40	0	5.4630	0	33.7850	0	26.660	0	193.643	0	114.1	4	37.2	4	-1E+10	1	-1E+10	1	-1E+10	1	-1E+10	1	-1E+10	1	-1E+10	1
4902551	54	C	02/06/2022	14:01	-132.828	49.452	0	196.30	0	5.4570	0	33.7870	0	26.662	0	194.534	0	113.8	4	37.1	4	-1E+10	1	-1E+10	1	-1E+10	1	-1E+10	1	-1E+10	1	-1E+10	1
4902551	54	C	02/06/2022	14:01	-132.828	49.452	0	197.20	0	5.4490	0	33.7870	0	26.663	0	195.426	0	113.5	4	37.0	4	-1E+10	1	-1E+10	1	-1E+10	1	-1E+10	1	-1E+10	1	-1E+10	1
4902551	54	C	02/06/2022	14:01	-132.828	49.452	0	198.10	0	5.4460	0	33.7870	0	26.664	0	196.317	0	113.1	4	36.9	4	-1E+10	1	-1E+10	1	-1E+10	1	-1E+10	1	-1E+10	1	-1E+10	1
4902551	54	C	02/06/2022	14:01	-132.828	49.452	0	199.10	0	5.4430	0	33.7870	0	26.664	0	197.308	0	112.8	4	36.8	4	-1E+10	1	-1E+10	1	-1E+10	1	-1E+10	1	-1E+10	1	-1E+10	1
4902551	54	C	02/06/2022	14:01	-132.828	49.452	0	200.00	0	5.4380	0	33.7880	0	26.666	0	198.199	0	112.4	4	36.6	4	-1E+10	1	-1E+10	1	-1E+10	1	-1E+10	1	-1E+10	1	-1E+10	1
4902551	54	C	02/06/2022	14:01	-132.828	49.452	0	200.90	0	5.4320	0	33.7890	0	26.667	0	199.091	0	112.0	4	36.5	4	-1E+10	1	-1E+10	1	-1E+10	1	-1E+10	1	-1E+10	1	-1E+10	1
4902551	54	C	02/06/2022	14:01	-132.828	49.452	0	201.80	0	5.4240	0	33.7890	0	26.668	0	199.982	0	111.7	4	36.4	4	-1E+10	1	-1E+10	1	-1E+10	1	-1E+10	1	-1E+10	1	-1E+10	1
4902551	54	C	02/06/2022	14:01	-132.828	49.452	0	202.70	0	5.4170	0	33.7910	0	26.670	0	200.874	0	111.3	4	36.2	4	-1E+10	1	-1E+10	1	-1E+10	1	-1E+10	1	-1E+10	1	-1E+10	1
4902551	54	C	02/06/2022	14:01	-132.828	49.452	0	203.70	0	5.4100	0	33.7910	0	26.671	0	201.864	0	110.9	4	36.1	4	-1E+10	1	-1E+10	1	-1E+10	1	-1E+10	1	-1E+10	1	-1E+10	1
4902551	54	C	02/06/2022	14:01	-132.828	49.452	0	204.50	0	5.4040	0	33.7910	0	26.672	0	202.657	0	110.5	4	36.0	4	-1E+10	1	-1E+10	1	-1E+10	1	-1E+10	1	-1E+10	1	-1E+10	1
4902551	54	C	02/06/2022	14:01	-132.828	49.452	0	205.90	0	5.3960	0	33.7920	0	26.674	0	204.043	0	109.7	4	35.7	4	-1E+10	1	-1E+10	1	-1E+10	1	-1E+10	1	-1E+10	1	-1E+10	1
4902551	54	C	02/06/2022	14:01	-132.828	49.452	0	207.20	0	5.3850	0	33.7920	0	26.675	0	205.331	0	108.9	4	35.4	4	-1E+10	1	-1E+10	1	-1E+10	1	-1E+10	1	-1E+10	1	-1E+10	1
4902551	54	C	02/06/2022	14:01	-132.828	49.452	0	208.10	0	5.3830	0	33.7920	0	26.675	0	206.222	0	108.2	4	35.2	4	-1E+10	1	-1E+10	1	-1E+10	1	-1E+10	1	-1E+10	1	-1E+10	1
4902551	54	C	02/06/2022	14:01	-132.828	49.452	0	208.90	0	5.3740	0	33.7930	0	26.677	0	207.015	0	107.4	4	34.9	4	-1E+10	1	-1E+10	1	-1E+10	1	-1E+10	1	-1E+10	1	-1E+10	1
4902551	54	C	02/06/2022	14:01	-132.828	49.452	0	209.90	0	5.3550	0	33.7940	0	26.680	0	208.005	0	106.6	4	34.7	4	-1E+10	1	-1E+10	1	-1E+10	1	-1E+10	1	-1E+10	1	-1E+10	1
4902551	54	C	02/06/2022	14:01	-132.828	49.452	0	210.80	0	5.3120	0	33.8000	0	26.690	0	208.897	0	106.1	4	34.5	4	-1E+10	1	-1E+10	1	-1E+10	1	-1E+10	1	-1E+10	1	-1E+10	1
4902551	54	C	02/06/2022	14:01	-132.828	49.452	0	211.70	0	5.2780	0	33.8040	0	26.697	0	209.788	0	105.7	4	34.3	4	-1E+10	1	-1E+10	1	-1E+10	1	-1E+10	1	-1E+10	1	-1E+10	1
4902551	54	C	02/06/2022	14:01	-132.828	49.452	0	212.60	0	5.2610	0	33.8070	0	26.701	0	210.679	0	105.3	4	34.2	4	-1E+10	1	-1E+10	1	-1E+10	1	-1E+10	1	-1E+10	1	-1E+10	1
4902551	54	C	02/06/2022	14:01	-132.828	49.452	0	213.90	0	5.2360	0	33.8080	0	26.705	0	211.967	0	104.9	4	34.0	4	-1E+10	1	-1E+10	1	-1E+10	1	-1E+10	1	-1E+10	1	-1E+10	1
4902551	54	C	02/06/2022	14:01	-132.828	49.452	0	215.30	0	5.2160	0	33.8120	0	26.711	0	213.354	0	104.5	4	33.9	4	-1E+10	1	-1E+10	1	-1E+10	1	-1E+10	1	-1E+10	1	-1E+10	1
4902551	54	C	02/06/2022	14:01	-132.828	49.452	0	216.20	0	5.2160	0	33.8110	0	26.710	0	214.245	0	104.3	4	33.8	4	-1E+10	1	-1E+10	1	-1E+10	1	-1E+10	1	-1E+10	1	-1E+10	1
4902551	54	C	02/06/2022	14:01	-132.828	49.452	0	217.10	0	5.2140	0	33.8100	0	26.709	0	215.136	0	104.1	4	33.7	4	-1E+10	1	-1E+10	1	-1E+10	1	-1E+10	1	-1E+10	1	-1E+10	1
4902551	54	C	02/06/2022	14:01	-132.828	49.452	0	218.00	0	5.2120	0	33.8120	0	26.711	0	216.028	0	103.9	4	33.7	4	-1E+10	1	-1E+10	1	-1E+10	1	-1E+10	1	-1E+10	1	-1E+10	1
4902551	54	C	02/06/2022	14:01	-132.828	49.452	0	218.90	0	5.2140	0	33.8120	0	26.711	0	216.919	0	103.5	4	33.6	4	-1E+10	1	-1E+10	1	-1E+10	1	-1E+10	1	-1E+10	1	-1E+10	1
4902551	54	C	02/06/2022	14:01	-132.828	49.452	0	219.70	0	5.2110	0	33.8110	0	26.711	0	217.712	0	103.2	4	33.4	4	-1E+10	1	-1E+10	1	-1E+10	1	-1E+10	1	-1E+10	1	-1E+10	1
4902551	54	C	02/06/2022	14:01	-132.828	49.452	0	220.70	0	5.2040	0	33.8130	0	26.713	0	218.702	0	102.9	4	33.3	4	-1E+10	1	-1E+10	1	-1E+10	1	-1E+10	1	-1E+10	1	-1E+10	1
4902551	54	C	02/06/2022	14:01	-132.828	49.452	0	221.90	0	5.2040	0	33.8130	0	26.713	0	219.891	0	102.3	4	33.1	4	-1E+10	1	-1E+10	1	-1E+10	1	-1E+10	1	-1E+10	1	-1E+10	1
4902551	54	C	02/06/2022	14:01	-132.828	49.452	0	223.30	0	5.2000	0	33.8130	0	26.713	0	221.277	0	101.7	4	33.0	4	-1E+10	1	-1E+10	1	-1E+10	1	-1E+10	1	-1E+10	1	-1E+10	1
4902551	54	C	02/06/2022	14:01	-132.828	49.452	0	224.10	0	5.1940	0	33.8130	0	26.714	0	222.069	0	101.3	4	32.8	4	-1E+10	1	-1E+10	1	-1E+10	1	-1E+10	1	-1E+10	1	-1E+10	1
4902551	54	C	02/06/2022	14:01	-132.828	49.452	0	225.00	0	5.1870	0	33.8140	0	26.716	0	222.961	0	100.8	4	32.6	4	-1E+10	1	-1E+10	1	-1E+10	1	-1E+10	1	-1E+10	1	-1E+10	1
4902551	54	C	02/06/2022	14:01	-132.828	49.452	0	225.90	0	5.1760	0	33.8160	0	26.719	0	223.852	0	100.3	4	32.5	4	-1E+10	1	-1E+10	1	-1E+10	1	-1E+10	1	-1E+10	1	-1E+10	1
4902551	54	C	02/06/2022	14:01	-132.828	49.452	0	226.80	0	5.1620	0	33.8170	0	26.721	0	224.743	0	99.9	4	32.3	4	-1E+10	1	-1E+10	1	-1E+10	1	-1E+10	1	-1E+10	1	-1E+10	1
4902551	54	C	02/06/2022	14:01	-132.828	49.452	0	227.70	0	5.1450	0	33.8190	0	26.725	0	225.635	0	99.4	4	32.2	4	-1E+10	1	-1E+10	1	-1E+10	1	-1E+10	1	-1E+10	1	-1E+10	1
4902551	54	C	02/06/2022	14:01	-132.828	49.452	0	228.60	0	5.1390	0	33.8200	0	26.726	0	226.526	0	99.0	4	32.0	4	-1E+10	1	-1E+10	1	-1E+10	1	-1E+10	1	-1E+10	1	-1E+10	1
4902551	54	C	02/06/2022	14:01	-132.828	49.452	0	229.90	0	5.1240	0	33.8210	0	26.729	0	227.814	0	98.4	4	31.8	4	-1E+10	1	-1E+10	1	-1E+10	1	-1E+10	1	-1E+10	1	-1E+10	1
4902551	54	C	02/06/2022	14:01	-132.828	49.452	0	231.30	0	5.1130	0	33.8220	0	26.731	0	229.200	0	97.8	4	31.6	4	-1E+10	1	-1E+10	1	-1E+10	1	-1E+10	1	-1E+10	1	-1E+10	1
4902551	54	C	02/06/2022	14:01	-132.828	49.452	0	232.30	0	5.1070	0	33.8220	0	26.731	0	230.191	0	97.4	4	31.5	4	-1E+10	1	-1E+10	1	-1E+10	1	-1E+10	1	-1E+10	1	-1E+10	1
4902551	54	C	02/06/2022	14:01	-132.828	49.452	0	233.20	0	5.0930	0	33.8250	0	26.735	0	231.082	0	97.0	4	31.3	4	-1E+10	1	-1E+10	1	-1E+10	1	-1E+10	1	-1E+10	1	-1E+10	1
4902551	54	C	02/06/2022	14:01	-132.828	49.452	0	234.10	0	5.0830	0	33.8260	0	26.737	0	231.973	0	96.6	4	31.2	4	-1E+10	1	-1E+10	1	-1E+10	1	-1E+10	1	-1E+10	1	-1E+10	1
4902551	54	C	02/06/2022	14:01	-132.828	49.452	0	235.00	0	5.0740	0	33.8260	0	26.738	0	232.865	0	96.3	4	31.1	4	-1E+10	1	-1E+10	1	-1E+10	1	-1E+10	1	-1E+10	1	-1E+10	1
4902551	54	C	02/06/2022	14:01	-132.828	49.452	0	235.90	0	5.0580	0	33.8290	0	26.742	0	233.756	0	96.0	4	31.0	4	-1E+10	1	-1E+10	1	-1E+10	1	-1E+10	1	-1E+10	1	-1E+10	1
4902551	54	C	02/06/2022	14:01	-132.828	49.452	0	236.90	0	5.0530	0	33.8290	0	26.743	0	234.746	0	95.7	4	30.9	4	-1E+10	1	-1E+10	1	-1E+10	1	-1E+10	1	-1E+10	1	-1E+10	1
4902551	54	C	02/06/2022	14:01	-132.828	49.452	0	237.80	0	5.0500	0	33.8290	0	26.743	0	235.637	0	95.4	4	30.8	4	-1E+10	1	-1E+10	1	-1E+10	1	-1E+10	1	-1E+10	1	-1E+10	1
4902551	54	C	02/06/2022	14:01	-132.828	49.452	0	238.80	0	5.0460	0	33.8300	0	26.745	0	236.628	0	95.1	4	30.7	4	-1E+10	1	-1E+10	1	-1E+10	1	-1E+10	1	-1E+10	1	-1E+10	1
4902551	54	C	02/06/2022	14:01	-132.828	49.452	0	239.70	0	5.0400	0	33.8300	0	26.745	0	237.519	0	94.7	4	30.6	4	-1E+10	1	-1E+10	1	-1E+10	1	-1E+10	1	-1E+10	1	-1E+10	1
4902551	54	C	02/06/2022	14:01	-132.828	49.452	0	240.70	0	5.0370	0	33.8310	0	26.746	0	238.509	0	94.4	4	30.5	4	-1E+10	1	-1E+10	1	-1E+10	1	-1E+10	1	-1E+10	1	-1E+10	1
4902551	54	C	02/06/2022	14:01	-132.828	49.452	0	241.60	0	5.0340	0	33.8310	0	26.747	0	239.401	0	94.0	4	30.4	4	-1E+10	1	-1E+10	1	-1E+10	1	-1E+10	1	-1E+10	1	-1E+10	1
4902551	54	C	02/06/2022	14:01	-132.828	49.452	0	242.50	0	5.0310	0	33.8310	0	26.747	0	240.292	0	93.6	4	30.2	4	-1E+10	1	-1E+10	1	-1E+10	1	-1E+10	1	-1E+10	1	-1E+10	1
4902551	54	C	02/06/2022	14:01	-132.828	49.452	0	243.90	0	5.0290	0	33.8310	0	26.747	0	241.678	0	92.9	4	30.0	4	-1E+10	1	-1E+10	1	-1E+10	1	-1E+10	1	-1E+10	1	-1E+10	1
4902551	54	C	02/06/2022	14:01	-132.828	49.452	0	245.30	0	5.0230	0	33.8310	0	26.748	0	243.065	0	92.1	4	29.7	4	-1E+10	1	-1E+10	1	-1E+10	1	-1E+10	1	-1E+10	1	-1E+10	1
4902551	54	C	02/06/2022	14:01	-132.828	49.452	0	246.30	0	5.0020	0	33.8360	0	26.754	0	244.055	0	91.6	4	29.6	4	-1E+10	1	-1E+10	1	-1E+10	1	-1E+10	1	-1E+10	1	-1E+10	1
4902551	54	C	02/06/2022	14:01	-132.828	49.452	0	247.20	0	4.9930	0	33.8340	0	26.754	0	244.946	0	91.2	4	29.4	4	-1E+10	1	-1E+10	1	-1E+10	1	-1E+10	1	-1E+10	1	-1E+10	1
4902551	54	C	02/06/2022	14:01	-132.828	49.452	0	248.20	0	4.9860	0	33.8350	0	26.756	0	245.937	0	90.7	4	29.3	4	-1E+10	1	-1E+10	1	-1E+10	1	-1E+10	1	-1E+10	1	-1E+10	1
4902551	54	C	02/06/2022	14:01	-132.828	49.452	0	249.10	0	4.9540	0	33.8410	0	26.764	0	246.828	0	90.4	4	29.1	4	-1E+10	1	-1E+10	1	-1E+10	1	-1E+10	1	-1E+10	1	-1E+10	1
4902551	54	C	02/06/2022	14:01	-132.828	49.452	0	250.10	0	4.9430	0	33.8400	0	26.764	0	247.818	0	90.1	4	29.0	4	-1E+10	1	-1E+10	1	-1E+10	1	-1E+10	1	-1E+10	1	-1E+10	1
4902551	54	C	02/06/2022	14:01	-132.828	49.452	0	251.00	0	4.9280	0	33.8420	0	26.768	0	248.710	0	89.9	4	29.0	4	-1E+10	1	-1E+10	1	-1E+10	1	-1E+10	1	-1E+10	1	-1E+10	1
4902551	54	C	02/06/2022	14:01	-132.828	49.452	0	252.00	0	4.9220	0	33.8430	0	26.769	0	249.700	0	89.7	4	28.9	4	-1E+10	1	-1E+10	1	-1E+10	1	-1E+10	1	-1E+10	1	-1E+10	1
4902551	54	C	02/06/2022	14:01	-132.828	49.452	0	253.00	0	4.9190	0	33.8430	0	26.769	0	250.690	0	89.5	4	28.8	4	-1E+10	1	-1E+10	1	-1E+10	1	-1E+10	1	-1E+10	1	-1E+10	1
4902551	54	C	02/06/2022	14:01	-132.828	49.452	0	253.90	0	4.9100	0	33.8440	0	26.771	0	251.581	0	89.3	4	28.8	4	-1E+10	1	-1E+10	1	-1E+10	1	-1E+10	1	-1E+10	1	-1E+10	1
4902551	54	C	02/06/2022	14:01	-132.828	49.452	0	254.90	0	4.9050	0	33.8450	0	26.773	0	252.572	0	89.2	4	28.7	4	-1E+10	1	-1E+10	1	-1E+10	1	-1E+10	1	-1E+10	1	-1E+10	1
4902551	54	C	02/06/2022	14:01	-132.828	49.452	0	255.90	0	4.9040	0	33.8450	0	26.773	0	253.562	0	88.9	4	28.6	4	-1E+10	1	-1E+10	1	-1E+10	1	-1E+10	1	-1E+10	1	-1E+10	1
4902551	54	C	02/06/2022	14:01	-132.828	49.452	0	256.80	0	4.9040	0	33.8440	0	26.772	0	254.453	0	88.7	4	28.5	4	-1E+10	1	-1E+10	1	-1E+10	1	-1E+10	1	-1E+10	1	-1E+10	1
4902551	54	C	02/06/2022	14:01	-132.828	49.452	0	257.80	0	4.9020	0	33.8440	0	26.772	0	255.443	0	88.4	4	28.5	4	-1E+10	1	-1E+10	1	-1E+10	1	-1E+10	1	-1E+10	1	-1E+10	1
4902551	54	C	02/06/2022	14:01	-132.828	49.452	0	258.70	0	4.8980	0	33.8450	0	26.773	0	256.334	0	88.2	4	28.4	4	-1E+10	1	-1E+10	1	-1E+10	1	-1E+10	1	-1E+10	1	-1E+10	1
4902551	54	C	02/06/2022	14:01	-132.828	49.452	0	259.70	0	4.8890	0	33.8460	0	26.775	0	257.325	0	87.9	4	28.3	4	-1E+10	1	-1E+10	1	-1E+10	1	-1E+10	1	-1E+10	1	-1E+10	1
4902551	54	C	02/06/2022	14:01	-132.828	49.452	0	260.60	0	4.8820	0	33.8470	0	26.777	0	258.216	0	87.7	4	28.2	4	-1E+10	1	-1E+10	1	-1E+10	1	-1E+10	1	-1E+10	1	-1E+10	1
4902551	54	C	02/06/2022	14:01	-132.828	49.452	0	261.60	0	4.8760	0	33.8480	0	26.778	0	259.206	0	87.5	4	28.1	4	-1E+10	1	-1E+10	1	-1E+10	1	-1E+10	1	-1E+10	1	-1E+10	1
4902551	54	C	02/06/2022	14:01	-132.828	49.452	0	262.60	0	4.8740	0	33.8480	0	26.779	0	260.196	0	87.3	4	28.1	4	-1E+10	1	-1E+10	1	-1E+10	1	-1E+10	1	-1E+10	1	-1E+10	1
4902551	54	C	02/06/2022	14:01	-132.828	49.452	0	263.60	0	4.8730	0	33.8480	0	26.779	0	261.187	0	87.1	4	28.0	4	-1E+10	1	-1E+10	1	-1E+10	1	-1E+10	1	-1E+10	1	-1E+10	1
4902551	54	C	02/06/2022	14:01	-132.828	49.452	0	264.50	0	4.8700	0	33.8480	0	26.779	0	262.078	0	86.8	4	27.9	4	-1E+10	1	-1E+10	1	-1E+10	1	-1E+10	1	-1E+10	1	-1E+10	1
4902551	54	C	02/06/2022	14:01	-132.828	49.452	0	265.50	0	4.8700	0	33.8480	0	26.779	0	263.068	0	86.6	4	27.8	4	-1E+10	1	-1E+10	1	-1E+10	1	-1E+10	1	-1E+10	1	-1E+10	1
4902551	54	C	02/06/2022	14:01	-132.828	49.452	0	266.90	0	4.8680	0	33.8480	0	26.779	0	264.454	0	86.1	4	27.7	4	-1E+10	1	-1E+10	1	-1E+10	1	-1E+10	1	-1E+10	1	-1E+10	1
4902551	54	C	02/06/2022	14:01	-132.828	49.452	0	268.40	0	4.8610	0	33.8500	0	26.782	0	265.940	0	85.6	4	27.5	4	-1E+10	1	-1E+10	1	-1E+10	1	-1E+10	1	-1E+10	1	-1E+10	1
4902551	54	C	02/06/2022	14:01	-132.828	49.452	0	269.40	0	4.8510	0	33.8510	0	26.784	0	266.930	0	85.3	4	27.4	4	-1E+10	1	-1E+10	1	-1E+10	1	-1E+10	1	-1E+10	1	-1E+10	1
4902551	54	C	02/06/2022	14:01	-132.828	49.452	0	270.40	0	4.8490	0	33.8510	0	26.784	0	267.920	0	85.0	4	27.3	4	-1E+10	1	-1E+10	1	-1E+10	1	-1E+10	1	-1E+10	1	-1E+10	1
4902551	54	C	02/06/2022	14:01	-132.828	49.452	0	271.40	0	4.8480	0	33.8510	0	26.784	0	268.910	0	84.7	4	27.2	4	-1E+10	1	-1E+10	1	-1E+10	1	-1E+10	1	-1E+10	1	-1E+10	1
4902551	54	C	02/06/2022	14:01	-132.828	49.452	0	272.40	0	4.8480	0	33.8510	0	26.784	0	269.900	0	84.2	4	27.1	4	-1E+10	1	-1E+10	1	-1E+10	1	-1E+10	1	-1E+10	1	-1E+10	1
4902551	54	C	02/06/2022	14:01	-132.828	49.452	0	273.40	0	4.8450	0	33.8510	0	26.784	0	270.890	0	83.8	4	26.9	4	-1E+10	1	-1E+10	1	-1E+10	1	-1E+10	1	-1E+10	1	-1E+10	1
4902551	54	C	02/06/2022	14:01	-132.828	49.452	0	274.30	0	4.8420	0	33.8510	0	26.785	0	271.782	0	83.4	4	26.8	4	-1E+10	1	-1E+10	1	-1E+10	1	-1E+10	1	-1E+10	1	-1E+10	1
4902551	54	C	02/06/2022	14:01	-132.828	49.452	0	275.30	0	4.8400	0	33.8510	0	26.785	0	272.772	0	82.9	4	26.6	4	-1E+10	1	-1E+10	1	-1E+10	1	-1E+10	1	-1E+10	1	-1E+10	1
4902551	54	C	02/06/2022	14:01	-132.828	49.452	0	276.30	0	4.8370	0	33.8530	0	26.787	0	273.762	0	82.4	4	26.5	4	-1E+10	1	-1E+10	1	-1E+10	1	-1E+10	1	-1E+10	1	-1E+10	1
4902551	54	C	02/06/2022	14:01	-132.828	49.452	0	277.30	0	4.8310	0	33.8520	0	26.787	0	274.752	0	81.9	4	26.3	4	-1E+10	1	-1E+10	1	-1E+10	1	-1E+10	1	-1E+10	1	-1E+10	1
4902551	54	C	02/06/2022	14:01	-132.828	49.452	0	278.20	0	4.8130	0	33.8550	0	26.791	0	275.643	0	81.3	4	26.1	4	-1E+10	1	-1E+10	1	-1E+10	1	-1E+10	1	-1E+10	1	-1E+10	1
4902551	54	C	02/06/2022	14:01	-132.828	49.452	0	279.30	0	4.7990	0	33.8560	0	26.793	0	276.732	0	80.8	4	25.9	4	-1E+10	1	-1E+10	1	-1E+10	1	-1E+10	1	-1E+10	1	-1E+10	1
4902551	54	C	02/06/2022	14:01	-132.828	49.452	0	280.20	0	4.7790	0	33.8580	0	26.797	0	277.623	0	80.3	4	25.8	4	-1E+10	1	-1E+10	1	-1E+10	1	-1E+10	1	-1E+10	1	-1E+10	1
4902551	54	C	02/06/2022	14:01	-132.828	49.452	0	281.20	0	4.7750	0	33.8580	0	26.798	0	278.614	0	79.8	4	25.6	4	-1E+10	1	-1E+10	1	-1E+10	1	-1E+10	1	-1E+10	1	-1E+10	1
4902551	54	C	02/06/2022	14:01	-132.828	49.452	0	282.20	0	4.7670	0	33.8610	0	26.801	0	279.604	0	79.4	4	25.5	4	-1E+10	1	-1E+10	1	-1E+10	1	-1E+10	1	-1E+10	1	-1E+10	1
4902551	54	C	02/06/2022	14:01	-132.828	49.452	0	283.20	0	4.7590	0	33.8620	0	26.803	0	280.594	0	78.9	4	25.3	4	-1E+10	1	-1E+10	1	-1E+10	1	-1E+10	1	-1E+10	1	-1E+10	1
4902551	54	C	02/06/2022	14:01	-132.828	49.452	0	284.10	0	4.7560	0	33.8630	0	26.804	0	281.485	0	78.4	4	25.1	4	-1E+10	1	-1E+10	1	-1E+10	1	-1E+10	1	-1E+10	1	-1E+10	1
4902551	54	C	02/06/2022	14:01	-132.828	49.452	0	285.10	0	4.7530	0	33.8630	0	26.804	0	282.475	0	77.7	4	24.9	4	-1E+10	1	-1E+10	1	-1E+10	1	-1E+10	1	-1E+10	1	-1E+10	1
4902551	54	C	02/06/2022	14:01	-132.828	49.452	0	286.10	0	4.7500	0	33.8630	0	26.804	0	283.465	0	77.1	4	24.7	4	-1E+10	1	-1E+10	1	-1E+10	1	-1E+10	1	-1E+10	1	-1E+10	1
4902551	54	C	02/06/2022	14:01	-132.828	49.452	0	287.10	0	4.7390	0	33.8660	0	26.808	0	284.455	0	76.5	4	24.5	4	-1E+10	1	-1E+10	1	-1E+10	1	-1E+10	1	-1E+10	1	-1E+10	1
4902551	54	C	02/06/2022	14:01	-132.828	49.452	0	288.10	0	4.7360	0	33.8700	0	26.812	0	285.445	0	76.0	4	24.4	4	-1E+10	1	-1E+10	1	-1E+10	1	-1E+10	1	-1E+10	1	-1E+10	1
4902551	54	C	02/06/2022	14:01	-132.828	49.452	0	289.00	0	4.7360	0	33.8720	0	26.813	0	286.336	0	75.6	4	24.3	4	-1E+10	1	-1E+10	1	-1E+10	1	-1E+10	1	-1E+10	1	-1E+10	1
4902551	54	C	02/06/2022	14:01	-132.828	49.452	0	290.10	0	4.7360	0	33.8720	0	26.813	0	287.426	0	75.3	4	24.1	4	-1E+10	1	-1E+10	1	-1E+10	1	-1E+10	1	-1E+10	1	-1E+10	1
4902551	54	C	02/06/2022	14:01	-132.828	49.452	0	291.10	0	4.7320	0	33.8740	0	26.815	0	288.416	0	75.0	4	24.0	4	-1E+10	1	-1E+10	1	-1E+10	1	-1E+10	1	-1E+10	1	-1E+10	1
4902551	54	C	02/06/2022	14:01	-132.828	49.452	0	292.10	0	4.7300	0	33.8740	0	26.815	0	289.406	0	74.6	4	23.9	4	-1E+10	1	-1E+10	1	-1E+10	1	-1E+10	1	-1E+10	1	-1E+10	1
4902551	54	C	02/06/2022	14:01	-132.828	49.452	0	293.10	0	4.7280	0	33.8750	0	26.816	0	290.396	0	74.2	4	23.8	4	-1E+10	1	-1E+10	1	-1E+10	1	-1E+10	1	-1E+10	1	-1E+10	1
4902551	54	C	02/06/2022	14:01	-132.828	49.452	0	294.10	0	4.7280	0	33.8740	0	26.816	0	291.386	0	73.9	4	23.7	4	-1E+10	1	-1E+10	1	-1E+10	1	-1E+10	1	-1E+10	1	-1E+10	1
4902551	54	C	02/06/2022	14:01	-132.828	49.452	0	295.20	0	4.7280	0	33.8750	0	26.816	0	292.475	0	73.5	4	23.6	4	-1E+10	1	-1E+10	1	-1E+10	1	-1E+10	1	-1E+10	1	-1E+10	1
4902551	54	C	02/06/2022	14:01	-132.828	49.452	0	296.20	0	4.7260	0	33.8750	0	26.817	0	293.465	0	73.1	4	23.4	4	-1E+10	1	-1E+10	1	-1E+10	1	-1E+10	1	-1E+10	1	-1E+10	1
4902551	54	C	02/06/2022	14:01	-132.828	49.452	0	297.20	0	4.7230	0	33.8760	0	26.818	0	294.455	0	72.6	4	23.3	4	-1E+10	1	-1E+10	1	-1E+10	1	-1E+10	1	-1E+10	1	-1E+10	1
4902551	54	C	02/06/2022	14:01	-132.828	49.452	0	298.20	0	4.7180	0	33.8770	0	26.819	0	295.445	0	72.1	4	23.1	4	-1E+10	1	-1E+10	1	-1E+10	1	-1E+10	1	-1E+10	1	-1E+10	1
4902551	54	C	02/06/2022	14:01	-132.828	49.452	0	299.20	0	4.7140	0	33.8780	0	26.820	0	296.435	0	71.6	4	23.0	4	-1E+10	1	-1E+10	1	-1E+10	1	-1E+10	1	-1E+10	1	-1E+10	1
4902551	54	C	02/06/2022	14:01	-132.828	49.452	0	300.20	0	4.7080	0	33.8790	0	26.822	0	297.425	0	71.2	4	22.8	4	-1E+10	1	-1E+10	1	-1E+10	1	-1E+10	1	-1E+10	1	-1E+10	1
4902551	54	C	02/06/2022	14:01	-132.828	49.452	0	301.20	0	4.7040	0	33.8800	0	26.823	0	298.415	0	70.7	4	22.6	4	-1E+10	1	-1E+10	1	-1E+10	1	-1E+10	1	-1E+10	1	-1E+10	1
4902551	54	C	02/06/2022	14:01	-132.828	49.452	0	302.30	0	4.6950	0	33.8830	0	26.826	0	299.504	0	70.3	4	22.5	4	-1E+10	1	-1E+10	1	-1E+10	1	-1E+10	1	-1E+10	1	-1E+10	1
4902551	54	C	02/06/2022	14:01	-132.828	49.452	0	303.30	0	4.6880	0	33.8840	0	26.828	0	300.494	0	69.9	4	22.4	4	-1E+10	1	-1E+10	1	-1E+10	1	-1E+10	1	-1E+10	1	-1E+10	1
4902551	54	C	02/06/2022	14:01	-132.828	49.452	0	304.30	0	4.6810	0	33.8860	0	26.830	0	301.484	0	69.6	4	22.3	4	-1E+10	1	-1E+10	1	-1E+10	1	-1E+10	1	-1E+10	1	-1E+10	1
4902551	54	C	02/06/2022	14:01	-132.828	49.452	0	305.30	0	4.6730	0	33.8870	0	26.832	0	302.474	0	69.2	4	22.2	4	-1E+10	1	-1E+10	1	-1E+10	1	-1E+10	1	-1E+10	1	-1E+10	1
4902551	54	C	02/06/2022	14:01	-132.828	49.452	0	306.40	0	4.6700	0	33.8880	0	26.833	0	303.563	0	69.0	4	22.1	4	-1E+10	1	-1E+10	1	-1E+10	1	-1E+10	1	-1E+10	1	-1E+10	1
4902551	54	C	02/06/2022	14:01	-132.828	49.452	0	307.40	0	4.6600	0	33.8900	0	26.836	0	304.553	0	68.7	4	22.0	4	-1E+10	1	-1E+10	1	-1E+10	1	-1E+10	1	-1E+10	1	-1E+10	1
4902551	54	C	02/06/2022	14:01	-132.828	49.452	0	308.40	0	4.6590	0	33.8900	0	26.836	0	305.543	0	68.4	4	21.9	4	-1E+10	1	-1E+10	1	-1E+10	1	-1E+10	1	-1E+10	1	-1E+10	1
4902551	54	C	02/06/2022	14:01	-132.828	49.452	0	309.40	0	4.6550	0	33.8910	0	26.837	0	306.533	0	68.1	4	21.8	4	-1E+10	1	-1E+10	1	-1E+10	1	-1E+10	1	-1E+10	1	-1E+10	1
4902551	54	C	02/06/2022	14:01	-132.828	49.452	0	310.50	0	4.6530	0	33.8920	0	26.838	0	307.622	0	67.8	4	21.7	4	-1E+10	1	-1E+10	1	-1E+10	1	-1E+10	1	-1E+10	1	-1E+10	1
4902551	54	C	02/06/2022	14:01	-132.828	49.452	0	311.50	0	4.6520	0	33.8920	0	26.838	0	308.612	0	67.5	4	21.6	4	-1E+10	1	-1E+10	1	-1E+10	1	-1E+10	1	-1E+10	1	-1E+10	1
4902551	54	C	02/06/2022	14:01	-132.828	49.452	0	312.50	0	4.6510	0	33.8920	0	26.839	0	309.602	0	67.2	4	21.5	4	-1E+10	1	-1E+10	1	-1E+10	1	-1E+10	1	-1E+10	1	-1E+10	1
4902551	54	C	02/06/2022	14:01	-132.828	49.452	0	313.60	0	4.6510	0	33.8920	0	26.839	0	310.691	0	66.8	4	21.4	4	-1E+10	1	-1E+10	1	-1E+10	1	-1E+10	1	-1E+10	1	-1E+10	1
4902551	54	C	02/06/2022	14:01	-132.828	49.452	0	314.60	0	4.6490	0	33.8920	0	26.839	0	311.681	0	66.3	4	21.2	4	-1E+10	1	-1E+10	1	-1E+10	1	-1E+10	1	-1E+10	1	-1E+10	1
4902551	54	C	02/06/2022	14:01	-132.828	49.452	0	315.60	0	4.6390	0	33.8950	0	26.842	0	312.671	0	66.0	4	21.1	4	-1E+10	1	-1E+10	1	-1E+10	1	-1E+10	1	-1E+10	1	-1E+10	1
4902551	54	C	02/06/2022	14:01	-132.828	49.452	0	316.60	0	4.6350	0	33.8950	0	26.843	0	313.661	0	65.6	4	21.0	4	-1E+10	1	-1E+10	1	-1E+10	1	-1E+10	1	-1E+10	1	-1E+10	1
4902551	54	C	02/06/2022	14:01	-132.828	49.452	0	317.70	0	4.6280	0	33.8970	0	26.845	0	314.750	0	65.3	4	20.9	4	-1E+10	1	-1E+10	1	-1E+10	1	-1E+10	1	-1E+10	1	-1E+10	1
4902551	54	C	02/06/2022	14:01	-132.828	49.452	0	318.70	0	4.6180	0	33.9000	0	26.849	0	315.740	0	65.0	4	20.8	4	-1E+10	1	-1E+10	1	-1E+10	1	-1E+10	1	-1E+10	1	-1E+10	1
4902551	54	C	02/06/2022	14:01	-132.828	49.452	0	319.70	0	4.6070	0	33.9020	0	26.851	0	316.730	0	64.8	4	20.7	4	-1E+10	1	-1E+10	1	-1E+10	1	-1E+10	1	-1E+10	1	-1E+10	1
4902551	54	C	02/06/2022	14:01	-132.828	49.452	0	320.80	0	4.6050	0	33.9020	0	26.852	0	317.819	0	64.6	4	20.6	4	-1E+10	1	-1E+10	1	-1E+10	1	-1E+10	1	-1E+10	1	-1E+10	1
4902551	54	C	02/06/2022	14:01	-132.828	49.452	0	321.80	0	4.5940	0	33.9050	0	26.855	0	318.809	0	64.4	4	20.6	4	-1E+10	1	-1E+10	1	-1E+10	1	-1E+10	1	-1E+10	1	-1E+10	1
4902551	54	C	02/06/2022	14:01	-132.828	49.452	0	322.80	0	4.5920	0	33.9040	0	26.855	0	319.799	0	64.3	4	20.6	4	-1E+10	1	-1E+10	1	-1E+10	1	-1E+10	1	-1E+10	1	-1E+10	1
4902551	54	C	02/06/2022	14:01	-132.828	49.452	0	323.80	0	4.5900	0	33.9060	0	26.856	0	320.789	0	64.1	4	20.5	4	-1E+10	1	-1E+10	1	-1E+10	1	-1E+10	1	-1E+10	1	-1E+10	1
4902551	54	C	02/06/2022	14:01	-132.828	49.452	0	324.90	0	4.5820	0	33.9080	0	26.859	0	321.878	0	64.1	4	20.5	4	-1E+10	1	-1E+10	1	-1E+10	1	-1E+10	1	-1E+10	1	-1E+10	1
4902551	54	C	02/06/2022	14:01	-132.828	49.452	0	325.70	0	4.5820	0	33.9080	0	26.859	0	322.670	0	64.0	4	20.4	4	-1E+10	1	-1E+10	1	-1E+10	1	-1E+10	1	-1E+10	1	-1E+10	1
4902551	54	C	02/06/2022	14:01	-132.828	49.452	0	326.90	0	4.5780	0	33.9090	0	26.860	0	323.858	0	63.8	4	20.4	4	-1E+10	1	-1E+10	1	-1E+10	1	-1E+10	1	-1E+10	1	-1E+10	1
4902551	54	C	02/06/2022	14:01	-132.828	49.452	0	328.10	0	4.5730	0	33.9100	0	26.861	0	325.045	0	63.6	4	20.3	4	-1E+10	1	-1E+10	1	-1E+10	1	-1E+10	1	-1E+10	1	-1E+10	1
4902551	54	C	02/06/2022	14:01	-132.828	49.452	0	328.90	0	4.5670	0	33.9100	0	26.862	0	325.837	0	63.4	4	20.3	4	-1E+10	1	-1E+10	1	-1E+10	1	-1E+10	1	-1E+10	1	-1E+10	1
4902551	54	C	02/06/2022	14:01	-132.828	49.452	0	330.00	0	4.5610	0	33.9110	0	26.864	0	326.926	0	63.1	4	20.1	4	-1E+10	1	-1E+10	1	-1E+10	1	-1E+10	1	-1E+10	1	-1E+10	1
4902551	54	C	02/06/2022	14:01	-132.828	49.452	0	331.20	0	4.5470	0	33.9160	0	26.869	0	328.114	0	62.8	4	20.0	4	-1E+10	1	-1E+10	1	-1E+10	1	-1E+10	1	-1E+10	1	-1E+10	1
4902551	54	C	02/06/2022	14:01	-132.828	49.452	0	332.00	0	4.5440	0	33.9160	0	26.869	0	328.906	0	62.5	4	20.0	4	-1E+10	1	-1E+10	1	-1E+10	1	-1E+10	1	-1E+10	1	-1E+10	1
4902551	54	C	02/06/2022	14:01	-132.828	49.452	0	332.80	0	4.5430	0	33.9170	0	26.870	0	329.698	0	62.3	4	19.9	4	-1E+10	1	-1E+10	1	-1E+10	1	-1E+10	1	-1E+10	1	-1E+10	1
4902551	54	C	02/06/2022	14:01	-132.828	49.452	0	334.00	0	4.5420	0	33.9170	0	26.870	0	330.886	0	62.0	4	19.8	4	-1E+10	1	-1E+10	1	-1E+10	1	-1E+10	1	-1E+10	1	-1E+10	1
4902551	54	C	02/06/2022	14:01	-132.828	49.452	0	335.20	0	4.5390	0	33.9180	0	26.872	0	332.074	0	61.6	4	19.7	4	-1E+10	1	-1E+10	1	-1E+10	1	-1E+10	1	-1E+10	1	-1E+10	1
4902551	54	C	02/06/2022	14:01	-132.828	49.452	0	336.10	0	4.5370	0	33.9190	0	26.873	0	332.965	0	61.4	4	19.6	4	-1E+10	1	-1E+10	1	-1E+10	1	-1E+10	1	-1E+10	1	-1E+10	1
4902551	54	C	02/06/2022	14:01	-132.828	49.452	0	336.90	0	4.5360	0	33.9190	0	26.873	0	333.756	0	61.1	4	19.5	4	-1E+10	1	-1E+10	1	-1E+10	1	-1E+10	1	-1E+10	1	-1E+10	1
4902551	54	C	02/06/2022	14:01	-132.828	49.452	0	337.80	0	4.5360	0	33.9200	0	26.873	0	334.647	0	60.8	4	19.4	4	-1E+10	1	-1E+10	1	-1E+10	1	-1E+10	1	-1E+10	1	-1E+10	1
4902551	54	C	02/06/2022	14:01	-132.828	49.452	0	338.60	0	4.5360	0	33.9200	0	26.873	0	335.439	0	60.5	4	19.3	4	-1E+10	1	-1E+10	1	-1E+10	1	-1E+10	1	-1E+10	1	-1E+10	1
4902551	54	C	02/06/2022	14:01	-132.828	49.452	0	339.90	0	4.5330	0	33.9220	0	26.875	0	336.726	0	60.1	4	19.2	4	-1E+10	1	-1E+10	1	-1E+10	1	-1E+10	1	-1E+10	1	-1E+10	1
4902551	54	C	02/06/2022	14:01	-132.828	49.452	0	341.20	0	4.5320	0	33.9230	0	26.876	0	338.013	0	59.7	4	19.0	4	-1E+10	1	-1E+10	1	-1E+10	1	-1E+10	1	-1E+10	1	-1E+10	1
4902551	54	C	02/06/2022	14:01	-132.828	49.452	0	342.10	0	4.5300	0	33.9240	0	26.877	0	338.904	0	59.4	4	19.0	4	-1E+10	1	-1E+10	1	-1E+10	1	-1E+10	1	-1E+10	1	-1E+10	1
4902551	54	C	02/06/2022	14:01	-132.828	49.452	0	343.00	0	4.5290	0	33.9250	0	26.878	0	339.795	0	59.2	4	18.9	4	-1E+10	1	-1E+10	1	-1E+10	1	-1E+10	1	-1E+10	1	-1E+10	1
4902551	54	C	02/06/2022	14:01	-132.828	49.452	0	343.80	0	4.5280	0	33.9250	0	26.878	0	340.586	0	59.0	4	18.8	4	-1E+10	1	-1E+10	1	-1E+10	1	-1E+10	1	-1E+10	1	-1E+10	1
4902551	54	C	02/06/2022	14:01	-132.828	49.452	0	344.70	0	4.5280	0	33.9250	0	26.878	0	341.477	0	58.7	4	18.7	4	-1E+10	1	-1E+10	1	-1E+10	1	-1E+10	1	-1E+10	1	-1E+10	1
4902551	54	C	02/06/2022	14:01	-132.828	49.452	0	345.60	0	4.5210	0	33.9280	0	26.881	0	342.368	0	58.5	4	18.7	4	-1E+10	1	-1E+10	1	-1E+10	1	-1E+10	1	-1E+10	1	-1E+10	1
4902551	54	C	02/06/2022	14:01	-132.828	49.452	0	346.90	0	4.5120	0	33.9310	0	26.885	0	343.655	0	58.2	4	18.6	4	-1E+10	1	-1E+10	1	-1E+10	1	-1E+10	1	-1E+10	1	-1E+10	1
4902551	54	C	02/06/2022	14:01	-132.828	49.452	0	348.30	0	4.5080	0	33.9320	0	26.886	0	345.041	0	58.0	4	18.5	4	-1E+10	1	-1E+10	1	-1E+10	1	-1E+10	1	-1E+10	1	-1E+10	1
4902551	54	C	02/06/2022	14:01	-132.828	49.452	0	349.20	0	4.5070	0	33.9320	0	26.886	0	345.931	0	57.8	4	18.4	4	-1E+10	1	-1E+10	1	-1E+10	1	-1E+10	1	-1E+10	1	-1E+10	1
4902551	54	C	02/06/2022	14:01	-132.828	49.452	0	350.10	0	4.5050	0	33.9330	0	26.887	0	346.822	0	57.6	4	18.4	4	-1E+10	1	-1E+10	1	-1E+10	1	-1E+10	1	-1E+10	1	-1E+10	1
4902551	54	C	02/06/2022	14:01	-132.828	49.452	0	353.10	0	4.4990	0	33.9340	0	26.889	0	349.792	0	56.7	4	18.1	4	-1E+10	1	-1E+10	1	-1E+10	1	-1E+10	1	-1E+10	1	-1E+10	1
4902551	54	C	02/06/2022	14:01	-132.828	49.452	0	358.10	0	4.4740	0	33.9430	0	26.899	0	354.740	0	55.5	4	17.7	4	-1E+10	1	-1E+10	1	-1E+10	1	-1E+10	1	-1E+10	1	-1E+10	1
4902551	54	C	02/06/2022	14:01	-132.828	49.452	0	362.80	0	4.4540	0	33.9500	0	26.906	0	359.392	0	54.2	4	17.3	4	-1E+10	1	-1E+10	1	-1E+10	1	-1E+10	1	-1E+10	1	-1E+10	1
4902551	54	C	02/06/2022	14:01	-132.828	49.452	0	367.60	0	4.4380	0	33.9570	0	26.914	0	364.143	0	52.9	4	16.9	4	-1E+10	1	-1E+10	1	-1E+10	1	-1E+10	1	-1E+10	1	-1E+10	1
4902551	54	C	02/06/2022	14:01	-132.828	49.452	0	372.80	0	4.4210	0	33.9640	0	26.921	0	369.289	0	51.7	4	16.5	4	-1E+10	1	-1E+10	1	-1E+10	1	-1E+10	1	-1E+10	1	-1E+10	1
4902551	54	C	02/06/2022	14:01	-132.828	49.452	0	378.20	0	4.4100	0	33.9690	0	26.926	0	374.634	0	50.8	4	16.2	4	-1E+10	1	-1E+10	1	-1E+10	1	-1E+10	1	-1E+10	1	-1E+10	1
4902551	54	C	02/06/2022	14:01	-132.828	49.452	0	383.00	0	4.4050	0	33.9710	0	26.928	0	379.384	0	49.8	4	15.9	4	-1E+10	1	-1E+10	1	-1E+10	1	-1E+10	1	-1E+10	1	-1E+10	1
4902551	54	C	02/06/2022	14:01	-132.828	49.452	0	387.70	0	4.3930	0	33.9760	0	26.934	0	384.035	0	49.0	4	15.6	4	-1E+10	1	-1E+10	1	-1E+10	1	-1E+10	1	-1E+10	1	-1E+10	1
4902551	54	C	02/06/2022	14:01	-132.828	49.452	0	392.90	0	4.3900	0	33.9780	0	26.936	0	389.181	0	48.2	4	15.3	4	-1E+10	1	-1E+10	1	-1E+10	1	-1E+10	1	-1E+10	1	-1E+10	1
4902551	54	C	02/06/2022	14:01	-132.828	49.452	0	397.90	0	4.3870	0	33.9800	0	26.938	0	394.129	0	47.1	4	15.0	4	-1E+10	1	-1E+10	1	-1E+10	1	-1E+10	1	-1E+10	1	-1E+10	1
4902551	54	C	02/06/2022	14:01	-132.828	49.452	0	402.90	0	4.3810	0	33.9830	0	26.941	0	399.077	0	45.6	4	14.5	4	-1E+10	1	-1E+10	1	-1E+10	1	-1E+10	1	-1E+10	1	-1E+10	1
4902551	54	C	02/06/2022	14:01	-132.828	49.452	0	407.90	0	4.3750	0	33.9870	0	26.944	0	404.025	0	44.1	4	14.0	4	-1E+10	1	-1E+10	1	-1E+10	1	-1E+10	1	-1E+10	1	-1E+10	1
4902551	54	C	02/06/2022	14:01	-132.828	49.452	0	412.80	0	4.3680	0	33.9920	0	26.949	0	408.873	0	42.9	4	13.7	4	-1E+10	1	-1E+10	1	-1E+10	1	-1E+10	1	-1E+10	1	-1E+10	1
4902551	54	C	02/06/2022	14:01	-132.828	49.452	0	418.10	0	4.3580	0	33.9970	0	26.954	0	414.118	0	42.1	4	13.4	4	-1E+10	1	-1E+10	1	-1E+10	1	-1E+10	1	-1E+10	1	-1E+10	1
4902551	54	C	02/06/2022	14:01	-132.828	49.452	0	422.90	0	4.3460	0	34.0010	0	26.959	0	418.867	0	41.5	4	13.2	4	-1E+10	1	-1E+10	1	-1E+10	1	-1E+10	1	-1E+10	1	-1E+10	1
4902551	54	C	02/06/2022	14:01	-132.828	49.452	0	427.60	0	4.3390	0	34.0050	0	26.963	0	423.518	0	40.5	4	12.9	4	-1E+10	1	-1E+10	1	-1E+10	1	-1E+10	1	-1E+10	1	-1E+10	1
4902551	54	C	02/06/2022	14:01	-132.828	49.452	0	432.70	0	4.3320	0	34.0090	0	26.967	0	428.564	0	39.7	4	12.6	4	-1E+10	1	-1E+10	1	-1E+10	1	-1E+10	1	-1E+10	1	-1E+10	1
4902551	54	C	02/06/2022	14:01	-132.828	49.452	0	437.70	0	4.3120	0	34.0150	0	26.974	0	433.511	0	38.4	4	12.2	4	-1E+10	1	-1E+10	1	-1E+10	1	-1E+10	1	-1E+10	1	-1E+10	1
4902551	54	C	02/06/2022	14:01	-132.828	49.452	0	442.90	0	4.2940	0	34.0240	0	26.983	0	438.655	0	37.0	4	11.8	4	-1E+10	1	-1E+10	1	-1E+10	1	-1E+10	1	-1E+10	1	-1E+10	1
4902551	54	C	02/06/2022	14:01	-132.828	49.452	0	447.80	0	4.2900	0	34.0280	0	26.986	0	443.503	0	36.0	4	11.4	4	-1E+10	1	-1E+10	1	-1E+10	1	-1E+10	1	-1E+10	1	-1E+10	1
4902551	54	C	02/06/2022	14:01	-132.828	49.452	0	452.80	0	4.2810	0	34.0330	0	26.991	0	448.450	0	35.1	4	11.1	4	-1E+10	1	-1E+10	1	-1E+10	1	-1E+10	1	-1E+10	1	-1E+10	1
4902551	54	C	02/06/2022	14:01	-132.828	49.452	0	457.80	0	4.2720	0	34.0370	0	26.995	0	453.396	0	34.1	4	10.8	4	-1E+10	1	-1E+10	1	-1E+10	1	-1E+10	1	-1E+10	1	-1E+10	1
4902551	54	C	02/06/2022	14:01	-132.828	49.452	0	462.90	0	4.2530	0	34.0440	0	27.003	0	458.442	0	33.0	4	10.5	4	-1E+10	1	-1E+10	1	-1E+10	1	-1E+10	1	-1E+10	1	-1E+10	1
4902551	54	C	02/06/2022	14:01	-132.828	49.452	0	468.10	0	4.2420	0	34.0490	0	27.008	0	463.586	0	31.7	4	10.1	4	-1E+10	1	-1E+10	1	-1E+10	1	-1E+10	1	-1E+10	1	-1E+10	1
4902551	54	C	02/06/2022	14:01	-132.828	49.452	0	473.00	0	4.2180	0	34.0600	0	27.019	0	468.433	0	30.5	4	9.7	4	-1E+10	1	-1E+10	1	-1E+10	1	-1E+10	1	-1E+10	1	-1E+10	1
4902551	54	C	02/06/2022	14:01	-132.828	49.452	0	477.90	0	4.1960	0	34.0690	0	27.029	0	473.280	0	29.7	4	9.4	4	-1E+10	1	-1E+10	1	-1E+10	1	-1E+10	1	-1E+10	1	-1E+10	1
4902551	54	C	02/06/2022	14:01	-132.828	49.452	0	482.90	0	4.1820	0	34.0740	0	27.034	0	478.226	0	29.1	4	9.2	4	-1E+10	1	-1E+10	1	-1E+10	1	-1E+10	1	-1E+10	1	-1E+10	1
4902551	54	C	02/06/2022	14:01	-132.828	49.452	0	488.10	0	4.1700	0	34.0790	0	27.040	0	483.370	0	28.5	4	9.0	4	-1E+10	1	-1E+10	1	-1E+10	1	-1E+10	1	-1E+10	1	-1E+10	1
4902551	54	C	02/06/2022	14:01	-132.828	49.452	0	492.80	0	4.1580	0	34.0830	0	27.044	0	488.018	0	28.1	4	8.9	4	-1E+10	1	-1E+10	1	-1E+10	1	-1E+10	1	-1E+10	1	-1E+10	1
4902551	54	C	02/06/2022	14:01	-132.828	49.452	0	497.90	0	4.1460	0	34.0880	0	27.049	0	493.063	0	27.8	4	8.8	4	-1E+10	1	-1E+10	1	-1E+10	1	-1E+10	1	-1E+10	1	-1E+10	1
4902551	54	C	02/06/2022	14:01	-132.828	49.452	0	503.10	0	4.1230	0	34.0940	0	27.057	0	498.206	0	27.6	4	8.7	4	-1E+10	1	-1E+10	1	-1E+10	1	-1E+10	1	-1E+10	1	-1E+10	1
4902551	54	C	02/06/2022	14:01	-132.828	49.452	0	508.00	0	4.1080	0	34.0980	0	27.061	0	503.053	0	27.4	4	8.7	4	-1E+10	1	-1E+10	1	-1E+10	1	-1E+10	1	-1E+10	1	-1E+10	1
4902551	54	C	02/06/2022	14:01	-132.828	49.452	0	513.10	0	4.0980	0	34.1000	0	27.064	0	508.097	0	26.9	4	8.5	4	-1E+10	1	-1E+10	1	-1E+10	1	-1E+10	1	-1E+10	1	-1E+10	1
4902551	54	C	02/06/2022	14:01	-132.828	49.452	0	518.20	0	4.0730	0	34.1080	0	27.073	0	513.141	0	26.5	4	8.4	4	-1E+10	1	-1E+10	1	-1E+10	1	-1E+10	1	-1E+10	1	-1E+10	1
4902551	54	C	02/06/2022	14:01	-132.828	49.452	0	523.10	0	4.0630	0	34.1110	0	27.076	0	517.987	0	26.3	4	8.3	4	-1E+10	1	-1E+10	1	-1E+10	1	-1E+10	1	-1E+10	1	-1E+10	1
4902551	54	C	02/06/2022	14:01	-132.828	49.452	0	528.00	0	4.0580	0	34.1120	0	27.078	0	522.833	0	26.0	4	8.2	4	-1E+10	1	-1E+10	1	-1E+10	1	-1E+10	1	-1E+10	1	-1E+10	1
4902551	54	C	02/06/2022	14:01	-132.828	49.452	0	533.10	0	4.0390	0	34.1170	0	27.084	0	527.876	0	25.6	4	8.1	4	-1E+10	1	-1E+10	1	-1E+10	1	-1E+10	1	-1E+10	1	-1E+10	1
4902551	54	C	02/06/2022	14:01	-132.828	49.452	0	537.70	0	4.0220	0	34.1220	0	27.090	0	532.425	0	25.2	4	8.0	4	-1E+10	1	-1E+10	1	-1E+10	1	-1E+10	1	-1E+10	1	-1E+10	1
4902551	54	C	02/06/2022	14:01	-132.828	49.452	0	542.90	0	4.0140	0	34.1260	0	27.094	0	537.568	0	25.0	4	7.9	4	-1E+10	1	-1E+10	1	-1E+10	1	-1E+10	1	-1E+10	1	-1E+10	1
4902551	54	C	02/06/2022	14:01	-132.828	49.452	0	548.20	0	4.0030	0	34.1290	0	27.097	0	542.809	0	24.9	4	7.9	4	-1E+10	1	-1E+10	1	-1E+10	1	-1E+10	1	-1E+10	1	-1E+10	1
4902551	54	C	02/06/2022	14:01	-132.828	49.452	0	553.10	0	3.9950	0	34.1310	0	27.100	0	547.654	0	24.7	4	7.8	4	-1E+10	1	-1E+10	1	-1E+10	1	-1E+10	1	-1E+10	1	-1E+10	1
4902551	54	C	02/06/2022	14:01	-132.828	49.452	0	558.10	0	3.9900	0	34.1320	0	27.101	0	552.598	0	24.5	4	7.7	4	-1E+10	1	-1E+10	1	-1E+10	1	-1E+10	1	-1E+10	1	-1E+10	1
4902551	54	C	02/06/2022	14:01	-132.828	49.452	0	563.10	0	3.9840	0	34.1340	0	27.103	0	557.542	0	24.1	4	7.6	4	-1E+10	1	-1E+10	1	-1E+10	1	-1E+10	1	-1E+10	1	-1E+10	1
4902551	54	C	02/06/2022	14:01	-132.828	49.452	0	568.10	0	3.9760	0	34.1370	0	27.106	0	562.486	0	23.9	4	7.5	4	-1E+10	1	-1E+10	1	-1E+10	1	-1E+10	1	-1E+10	1	-1E+10	1
4902551	54	C	02/06/2022	14:01	-132.828	49.452	0	573.10	0	3.9680	0	34.1400	0	27.110	0	567.430	0	23.6	4	7.5	4	-1E+10	1	-1E+10	1	-1E+10	1	-1E+10	1	-1E+10	1	-1E+10	1
4902551	54	C	02/06/2022	14:01	-132.828	49.452	0	577.80	0	3.9580	0	34.1430	0	27.113	0	572.077	0	23.4	4	7.4	4	-1E+10	1	-1E+10	1	-1E+10	1	-1E+10	1	-1E+10	1	-1E+10	1
4902551	54	C	02/06/2022	14:01	-132.828	49.452	0	582.50	0	3.9460	0	34.1460	0	27.117	0	576.724	0	23.1	4	7.3	4	-1E+10	1	-1E+10	1	-1E+10	1	-1E+10	1	-1E+10	1	-1E+10	1
4902551	54	C	02/06/2022	14:01	-132.828	49.452	0	587.90	0	3.9370	0	34.1490	0	27.120	0	582.063	0	22.9	4	7.2	4	-1E+10	1	-1E+10	1	-1E+10	1	-1E+10	1	-1E+10	1	-1E+10	1
4902551	54	C	02/06/2022	14:01	-132.828	49.452	0	593.20	0	3.9350	0	34.1500	0	27.121	0	587.303	0	22.6	4	7.1	4	-1E+10	1	-1E+10	1	-1E+10	1	-1E+10	1	-1E+10	1	-1E+10	1
4902551	54	C	02/06/2022	14:01	-132.828	49.452	0	598.00	0	3.9300	0	34.1510	0	27.122	0	592.048	0	22.2	4	7.0	4	-1E+10	1	-1E+10	1	-1E+10	1	-1E+10	1	-1E+10	1	-1E+10	1
4902551	54	C	02/06/2022	14:01	-132.828	49.452	0	602.80	0	3.9160	0	34.1560	0	27.128	0	596.793	0	21.6	4	6.8	4	-1E+10	1	-1E+10	1	-1E+10	1	-1E+10	1	-1E+10	1	-1E+10	1
4902551	54	C	02/06/2022	14:01	-132.828	49.452	0	608.20	0	3.9020	0	34.1610	0	27.133	0	602.132	0	21.1	4	6.6	4	-1E+10	1	-1E+10	1	-1E+10	1	-1E+10	1	-1E+10	1	-1E+10	1
4902551	54	C	02/06/2022	14:01	-132.828	49.452	0	613.00	0	3.8920	0	34.1660	0	27.138	0	606.877	0	20.7	4	6.5	4	-1E+10	1	-1E+10	1	-1E+10	1	-1E+10	1	-1E+10	1	-1E+10	1
4902551	54	C	02/06/2022	14:01	-132.828	49.452	0	617.70	0	3.8790	0	34.1700	0	27.143	0	611.523	0	20.5	4	6.4	4	-1E+10	1	-1E+10	1	-1E+10	1	-1E+10	1	-1E+10	1	-1E+10	1
4902551	54	C	02/06/2022	14:01	-132.828	49.452	0	623.00	0	3.8660	0	34.1730	0	27.147	0	616.762	0	20.2	4	6.4	4	-1E+10	1	-1E+10	1	-1E+10	1	-1E+10	1	-1E+10	1	-1E+10	1
4902551	54	C	02/06/2022	14:01	-132.828	49.452	0	628.30	0	3.8470	0	34.1790	0	27.153	0	622.001	0	20.1	4	6.3	4	-1E+10	1	-1E+10	1	-1E+10	1	-1E+10	1	-1E+10	1	-1E+10	1
4902551	54	C	02/06/2022	14:01	-132.828	49.452	0	633.00	0	3.8370	0	34.1810	0	27.156	0	626.647	0	20.0	4	6.3	4	-1E+10	1	-1E+10	1	-1E+10	1	-1E+10	1	-1E+10	1	-1E+10	1
4902551	54	C	02/06/2022	14:01	-132.828	49.452	0	637.70	0	3.8260	0	34.1830	0	27.159	0	631.293	0	19.8	4	6.2	4	-1E+10	1	-1E+10	1	-1E+10	1	-1E+10	1	-1E+10	1	-1E+10	1
4902551	54	C	02/06/2022	14:01	-132.828	49.452	0	643.00	0	3.8120	0	34.1870	0	27.163	0	636.531	0	19.6	4	6.2	4	-1E+10	1	-1E+10	1	-1E+10	1	-1E+10	1	-1E+10	1	-1E+10	1
4902551	54	C	02/06/2022	14:01	-132.828	49.452	0	648.20	0	3.8030	0	34.1890	0	27.166	0	641.671	0	19.4	4	6.1	4	-1E+10	1	-1E+10	1	-1E+10	1	-1E+10	1	-1E+10	1	-1E+10	1
4902551	54	C	02/06/2022	14:01	-132.828	49.452	0	653.30	0	3.7840	0	34.1950	0	27.172	0	646.712	0	19.2	4	6.0	4	-1E+10	1	-1E+10	1	-1E+10	1	-1E+10	1	-1E+10	1	-1E+10	1
4902551	54	C	02/06/2022	14:01	-132.828	49.452	0	658.00	0	3.7710	0	34.1970	0	27.175	0	651.357	0	19.1	4	6.0	4	-1E+10	1	-1E+10	1	-1E+10	1	-1E+10	1	-1E+10	1	-1E+10	1
4902551	54	C	02/06/2022	14:01	-132.828	49.452	0	662.60	0	3.7630	0	34.2000	0	27.179	0	655.903	0	19.0	4	6.0	4	-1E+10	1	-1E+10	1	-1E+10	1	-1E+10	1	-1E+10	1	-1E+10	1
4902551	54	C	02/06/2022	14:01	-132.828	49.452	0	667.70	0	3.7490	0	34.2020	0	27.182	0	660.944	0	18.9	4	5.9	4	-1E+10	1	-1E+10	1	-1E+10	1	-1E+10	1	-1E+10	1	-1E+10	1
4902551	54	C	02/06/2022	14:01	-132.828	49.452	0	672.80	0	3.7350	0	34.2060	0	27.186	0	665.984	0	18.7	4	5.9	4	-1E+10	1	-1E+10	1	-1E+10	1	-1E+10	1	-1E+10	1	-1E+10	1
4902551	54	C	02/06/2022	14:01	-132.828	49.452	0	678.00	0	3.7190	0	34.2100	0	27.191	0	671.123	0	18.6	4	5.8	4	-1E+10	1	-1E+10	1	-1E+10	1	-1E+10	1	-1E+10	1	-1E+10	1
4902551	54	C	02/06/2022	14:01	-132.828	49.452	0	683.10	0	3.7140	0	34.2110	0	27.192	0	676.163	0	18.5	4	5.8	4	-1E+10	1	-1E+10	1	-1E+10	1	-1E+10	1	-1E+10	1	-1E+10	1
4902551	54	C	02/06/2022	14:01	-132.828	49.452	0	688.30	0	3.7010	0	34.2140	0	27.196	0	681.302	0	18.4	4	5.8	4	-1E+10	1	-1E+10	1	-1E+10	1	-1E+10	1	-1E+10	1	-1E+10	1
4902551	54	C	02/06/2022	14:01	-132.828	49.452	0	693.40	0	3.6920	0	34.2160	0	27.198	0	686.341	0	18.2	4	5.7	4	-1E+10	1	-1E+10	1	-1E+10	1	-1E+10	1	-1E+10	1	-1E+10	1
4902551	54	C	02/06/2022	14:01	-132.828	49.452	0	697.90	0	3.6840	0	34.2190	0	27.202	0	690.788	0	18.1	4	5.7	4	-1E+10	1	-1E+10	1	-1E+10	1	-1E+10	1	-1E+10	1	-1E+10	1
4902551	54	C	02/06/2022	14:01	-132.828	49.452	0	702.50	0	3.6700	0	34.2220	0	27.205	0	695.334	0	17.9	4	5.6	4	-1E+10	1	-1E+10	1	-1E+10	1	-1E+10	1	-1E+10	1	-1E+10	1
4902551	54	C	02/06/2022	14:01	-132.828	49.452	0	707.60	0	3.6550	0	34.2250	0	27.209	0	700.373	0	17.7	4	5.5	4	-1E+10	1	-1E+10	1	-1E+10	1	-1E+10	1	-1E+10	1	-1E+10	1
4902551	54	C	02/06/2022	14:01	-132.828	49.452	0	712.90	0	3.6360	0	34.2300	0	27.215	0	705.610	0	17.5	4	5.5	4	-1E+10	1	-1E+10	1	-1E+10	1	-1E+10	1	-1E+10	1	-1E+10	1
4902551	54	C	02/06/2022	14:01	-132.828	49.452	0	717.70	0	3.6290	0	34.2310	0	27.217	0	710.353	0	17.3	4	5.4	4	-1E+10	1	-1E+10	1	-1E+10	1	-1E+10	1	-1E+10	1	-1E+10	1
4902551	54	C	02/06/2022	14:01	-132.828	49.452	0	722.80	0	3.6220	0	34.2330	0	27.219	0	715.392	0	17.1	4	5.3	4	-1E+10	1	-1E+10	1	-1E+10	1	-1E+10	1	-1E+10	1	-1E+10	1
4902551	54	C	02/06/2022	14:01	-132.828	49.452	0	728.10	0	3.6090	0	34.2370	0	27.224	0	720.628	0	16.9	4	5.3	4	-1E+10	1	-1E+10	1	-1E+10	1	-1E+10	1	-1E+10	1	-1E+10	1
4902551	54	C	02/06/2022	14:01	-132.828	49.452	0	733.00	0	3.5940	0	34.2410	0	27.228	0	725.469	0	16.6	4	5.2	4	-1E+10	1	-1E+10	1	-1E+10	1	-1E+10	1	-1E+10	1	-1E+10	1
4902551	54	C	02/06/2022	14:01	-132.828	49.452	0	737.90	0	3.5840	0	34.2430	0	27.231	0	730.311	0	16.3	4	5.1	4	-1E+10	1	-1E+10	1	-1E+10	1	-1E+10	1	-1E+10	1	-1E+10	1
4902551	54	C	02/06/2022	14:01	-132.828	49.452	0	742.70	0	3.5700	0	34.2480	0	27.236	0	735.053	0	15.9	4	5.0	4	-1E+10	1	-1E+10	1	-1E+10	1	-1E+10	1	-1E+10	1	-1E+10	1
4902551	54	C	02/06/2022	14:01	-132.828	49.452	0	747.60	0	3.5580	0	34.2520	0	27.241	0	739.894	0	15.6	4	4.9	4	-1E+10	1	-1E+10	1	-1E+10	1	-1E+10	1	-1E+10	1	-1E+10	1
4902551	54	C	02/06/2022	14:01	-132.828	49.452	0	752.60	0	3.5400	0	34.2580	0	27.247	0	744.833	0	15.4	4	4.8	4	-1E+10	1	-1E+10	1	-1E+10	1	-1E+10	1	-1E+10	1	-1E+10	1
4902551	54	C	02/06/2022	14:01	-132.828	49.452	0	757.70	0	3.5290	0	34.2610	0	27.251	0	749.871	0	15.3	4	4.8	4	-1E+10	1	-1E+10	1	-1E+10	1	-1E+10	1	-1E+10	1	-1E+10	1
4902551	54	C	02/06/2022	14:01	-132.828	49.452	0	763.10	0	3.5230	0	34.2630	0	27.253	0	755.206	0	15.1	4	4.7	4	-1E+10	1	-1E+10	1	-1E+10	1	-1E+10	1	-1E+10	1	-1E+10	1
4902551	54	C	02/06/2022	14:01	-132.828	49.452	0	768.10	0	3.5130	0	34.2650	0	27.255	0	760.145	0	15.0	4	4.7	4	-1E+10	1	-1E+10	1	-1E+10	1	-1E+10	1	-1E+10	1	-1E+10	1
4902551	54	C	02/06/2022	14:01	-132.828	49.452	0	772.70	0	3.5050	0	34.2670	0	27.258	0	764.689	0	14.9	4	4.6	4	-1E+10	1	-1E+10	1	-1E+10	1	-1E+10	1	-1E+10	1	-1E+10	1
4902551	54	C	02/06/2022	14:01	-132.828	49.452	0	777.70	0	3.4920	0	34.2710	0	27.262	0	769.628	0	14.8	4	4.6	4	-1E+10	1	-1E+10	1	-1E+10	1	-1E+10	1	-1E+10	1	-1E+10	1
4902551	54	C	02/06/2022	14:01	-132.828	49.452	0	782.90	0	3.4850	0	34.2720	0	27.264	0	774.764	0	14.7	4	4.6	4	-1E+10	1	-1E+10	1	-1E+10	1	-1E+10	1	-1E+10	1	-1E+10	1
4902551	54	C	02/06/2022	14:01	-132.828	49.452	0	787.70	0	3.4800	0	34.2740	0	27.266	0	779.505	0	14.7	4	4.6	4	-1E+10	1	-1E+10	1	-1E+10	1	-1E+10	1	-1E+10	1	-1E+10	1
4902551	54	C	02/06/2022	14:01	-132.828	49.452	0	792.90	0	3.4680	0	34.2760	0	27.269	0	784.642	0	14.6	4	4.6	4	-1E+10	1	-1E+10	1	-1E+10	1	-1E+10	1	-1E+10	1	-1E+10	1
4902551	54	C	02/06/2022	14:01	-132.828	49.452	0	797.70	0	3.4630	0	34.2770	0	27.270	0	789.382	0	14.6	4	4.5	4	-1E+10	1	-1E+10	1	-1E+10	1	-1E+10	1	-1E+10	1	-1E+10	1
4902551	54	C	02/06/2022	14:01	-132.828	49.452	0	802.70	0	3.4510	0	34.2790	0	27.273	0	794.321	0	14.5	4	4.5	4	-1E+10	1	-1E+10	1	-1E+10	1	-1E+10	1	-1E+10	1	-1E+10	1
4902551	54	C	02/06/2022	14:01	-132.828	49.452	0	807.80	0	3.4410	0	34.2810	0	27.275	0	799.358	0	14.4	4	4.5	4	-1E+10	1	-1E+10	1	-1E+10	1	-1E+10	1	-1E+10	1	-1E+10	1
4902551	54	C	02/06/2022	14:01	-132.828	49.452	0	812.90	0	3.4300	0	34.2840	0	27.279	0	804.395	0	14.3	4	4.5	4	-1E+10	1	-1E+10	1	-1E+10	1	-1E+10	1	-1E+10	1	-1E+10	1
4902551	54	C	02/06/2022	14:01	-132.828	49.452	0	818.00	0	3.4130	0	34.2870	0	27.283	0	809.431	0	14.2	4	4.4	4	-1E+10	1	-1E+10	1	-1E+10	1	-1E+10	1	-1E+10	1	-1E+10	1
4902551	54	C	02/06/2022	14:01	-132.828	49.452	0	822.90	0	3.4000	0	34.2900	0	27.287	0	814.271	0	14.1	4	4.4	4	-1E+10	1	-1E+10	1	-1E+10	1	-1E+10	1	-1E+10	1	-1E+10	1
4902551	54	C	02/06/2022	14:01	-132.828	49.452	0	827.90	0	3.3770	0	34.2950	0	27.293	0	819.208	0	14.0	4	4.3	4	-1E+10	1	-1E+10	1	-1E+10	1	-1E+10	1	-1E+10	1	-1E+10	1
4902551	54	C	02/06/2022	14:01	-132.828	49.452	0	832.90	0	3.3680	0	34.2980	0	27.296	0	824.146	0	13.9	4	4.3	4	-1E+10	1	-1E+10	1	-1E+10	1	-1E+10	1	-1E+10	1	-1E+10	1
4902551	54	C	02/06/2022	14:01	-132.828	49.452	0	838.00	0	3.3580	0	34.3000	0	27.299	0	829.182	0	13.8	4	4.3	4	-1E+10	1	-1E+10	1	-1E+10	1	-1E+10	1	-1E+10	1	-1E+10	1
4902551	54	C	02/06/2022	14:01	-132.828	49.452	0	843.00	0	3.3510	0	34.3020	0	27.301	0	834.120	0	13.8	4	4.3	4	-1E+10	1	-1E+10	1	-1E+10	1	-1E+10	1	-1E+10	1	-1E+10	1
4902551	54	C	02/06/2022	14:01	-132.828	49.452	0	848.10	0	3.3480	0	34.3030	0	27.302	0	839.156	0	13.7	4	4.3	4	-1E+10	1	-1E+10	1	-1E+10	1	-1E+10	1	-1E+10	1	-1E+10	1
4902551	54	C	02/06/2022	14:01	-132.828	49.452	0	853.20	0	3.3400	0	34.3050	0	27.304	0	844.192	0	13.6	4	4.2	4	-1E+10	1	-1E+10	1	-1E+10	1	-1E+10	1	-1E+10	1	-1E+10	1
4902551	54	C	02/06/2022	14:01	-132.828	49.452	0	858.10	0	3.3250	0	34.3090	0	27.309	0	849.030	0	13.5	4	4.2	4	-1E+10	1	-1E+10	1	-1E+10	1	-1E+10	1	-1E+10	1	-1E+10	1
4902551	54	C	02/06/2022	14:01	-132.828	49.452	0	862.90	0	3.3180	0	34.3110	0	27.311	0	853.769	0	13.5	4	4.2	4	-1E+10	1	-1E+10	1	-1E+10	1	-1E+10	1	-1E+10	1	-1E+10	1
4902551	54	C	02/06/2022	14:01	-132.828	49.452	0	867.70	0	3.3140	0	34.3120	0	27.312	0	858.509	0	13.4	4	4.2	4	-1E+10	1	-1E+10	1	-1E+10	1	-1E+10	1	-1E+10	1	-1E+10	1
4902551	54	C	02/06/2022	14:01	-132.828	49.452	0	872.90	0	3.3060	0	34.3130	0	27.314	0	863.643	0	13.4	4	4.2	4	-1E+10	1	-1E+10	1	-1E+10	1	-1E+10	1	-1E+10	1	-1E+10	1
4902551	54	C	02/06/2022	14:01	-132.828	49.452	0	878.10	0	3.3000	0	34.3150	0	27.316	0	868.777	0	13.3	4	4.1	4	-1E+10	1	-1E+10	1	-1E+10	1	-1E+10	1	-1E+10	1	-1E+10	1
4902551	54	C	02/06/2022	14:01	-132.828	49.452	0	882.80	0	3.2720	0	34.3210	0	27.324	0	873.417	0	13.2	4	4.1	4	-1E+10	1	-1E+10	1	-1E+10	1	-1E+10	1	-1E+10	1	-1E+10	1
4902551	54	C	02/06/2022	14:01	-132.828	49.452	0	888.00	0	3.2640	0	34.3230	0	27.326	0	878.551	0	13.2	4	4.1	4	-1E+10	1	-1E+10	1	-1E+10	1	-1E+10	1	-1E+10	1	-1E+10	1
4902551	54	C	02/06/2022	14:01	-132.828	49.452	0	893.20	0	3.2610	0	34.3240	0	27.327	0	883.685	0	13.2	4	4.1	4	-1E+10	1	-1E+10	1	-1E+10	1	-1E+10	1	-1E+10	1	-1E+10	1
4902551	54	C	02/06/2022	14:01	-132.828	49.452	0	898.00	0	3.2500	0	34.3260	0	27.330	0	888.424	0	13.2	4	4.1	4	-1E+10	1	-1E+10	1	-1E+10	1	-1E+10	1	-1E+10	1	-1E+10	1
4902551	54	C	02/06/2022	14:01	-132.828	49.452	0	902.80	0	3.2420	0	34.3280	0	27.332	0	893.162	0	13.1	4	4.1	4	-1E+10	1	-1E+10	1	-1E+10	1	-1E+10	1	-1E+10	1	-1E+10	1
4902551	54	C	02/06/2022	14:01	-132.828	49.452	0	908.00	0	3.2360	0	34.3290	0	27.334	0	898.295	0	13.1	4	4.1	4	-1E+10	1	-1E+10	1	-1E+10	1	-1E+10	1	-1E+10	1	-1E+10	1
4902551	54	C	02/06/2022	14:01	-132.828	49.452	0	913.20	0	3.2300	0	34.3310	0	27.336	0	903.429	0	13.1	4	4.1	4	-1E+10	1	-1E+10	1	-1E+10	1	-1E+10	1	-1E+10	1	-1E+10	1
4902551	54	C	02/06/2022	14:01	-132.828	49.452	0	917.90	0	3.2250	0	34.3320	0	27.337	0	908.068	0	13.1	4	4.1	4	-1E+10	1	-1E+10	1	-1E+10	1	-1E+10	1	-1E+10	1	-1E+10	1
4902551	54	C	02/06/2022	14:01	-132.828	49.452	0	923.00	0	3.2160	0	34.3330	0	27.339	0	913.102	0	13.1	4	4.1	4	-1E+10	1	-1E+10	1	-1E+10	1	-1E+10	1	-1E+10	1	-1E+10	1
4902551	54	C	02/06/2022	14:01	-132.828	49.452	0	928.10	0	3.2060	0	34.3360	0	27.342	0	918.136	0	13.1	4	4.1	4	-1E+10	1	-1E+10	1	-1E+10	1	-1E+10	1	-1E+10	1	-1E+10	1
4902551	54	C	02/06/2022	14:01	-132.828	49.452	0	932.70	0	3.2010	0	34.3370	0	27.343	0	922.677	0	13.0	4	4.0	4	-1E+10	1	-1E+10	1	-1E+10	1	-1E+10	1	-1E+10	1	-1E+10	1
4902551	54	C	02/06/2022	14:01	-132.828	49.452	0	937.80	0	3.1920	0	34.3390	0	27.346	0	927.711	0	13.0	4	4.0	4	-1E+10	1	-1E+10	1	-1E+10	1	-1E+10	1	-1E+10	1	-1E+10	1
4902551	54	C	02/06/2022	14:01	-132.828	49.452	0	942.80	0	3.1810	0	34.3420	0	27.349	0	932.646	0	12.9	4	4.0	4	-1E+10	1	-1E+10	1	-1E+10	1	-1E+10	1	-1E+10	1	-1E+10	1
4902551	54	C	02/06/2022	14:01	-132.828	49.452	0	948.00	0	3.1610	0	34.3460	0	27.354	0	937.778	0	12.9	4	4.0	4	-1E+10	1	-1E+10	1	-1E+10	1	-1E+10	1	-1E+10	1	-1E+10	1
4902551	54	C	02/06/2022	14:01	-132.828	49.452	0	953.10	0	3.1560	0	34.3480	0	27.356	0	942.812	0	12.9	4	4.0	4	-1E+10	1	-1E+10	1	-1E+10	1	-1E+10	1	-1E+10	1	-1E+10	1
4902551	54	C	02/06/2022	14:01	-132.828	49.452	0	957.80	0	3.1460	0	34.3490	0	27.358	0	947.450	0	12.9	4	4.0	4	-1E+10	1	-1E+10	1	-1E+10	1	-1E+10	1	-1E+10	1	-1E+10	1
4902551	54	C	02/06/2022	14:01	-132.828	49.452	0	963.00	0	3.1320	0	34.3520	0	27.362	0	952.583	0	12.9	4	4.0	4	-1E+10	1	-1E+10	1	-1E+10	1	-1E+10	1	-1E+10	1	-1E+10	1
4902551	54	C	02/06/2022	14:01	-132.828	49.452	0	968.20	0	3.1180	0	34.3550	0	27.366	0	957.714	0	12.8	4	4.0	4	-1E+10	1	-1E+10	1	-1E+10	1	-1E+10	1	-1E+10	1	-1E+10	1
4902551	54	C	02/06/2022	14:01	-132.828	49.452	0	972.90	0	3.1140	0	34.3560	0	27.367	0	962.353	0	12.8	4	4.0	4	-1E+10	1	-1E+10	1	-1E+10	1	-1E+10	1	-1E+10	1	-1E+10	1
4902551	54	C	02/06/2022	14:01	-132.828	49.452	0	977.70	0	3.1110	0	34.3570	0	27.368	0	967.090	0	12.8	4	4.0	4	-1E+10	1	-1E+10	1	-1E+10	1	-1E+10	1	-1E+10	1	-1E+10	1
4902551	54	C	02/06/2022	14:01	-132.828	49.452	0	982.50	0	3.1060	0	34.3580	0	27.369	0	971.826	0	12.8	4	4.0	4	-1E+10	1	-1E+10	1	-1E+10	1	-1E+10	1	-1E+10	1	-1E+10	1
4902551	54	C	02/06/2022	14:01	-132.828	49.452	0	987.90	0	3.0960	0	34.3590	0	27.371	0	977.155	0	12.8	4	4.0	4	-1E+10	1	-1E+10	1	-1E+10	1	-1E+10	1	-1E+10	1	-1E+10	1
4902551	54	C	02/06/2022	14:01	-132.828	49.452	0	993.30	0	3.0800	0	34.3620	0	27.375	0	982.484	0	12.8	4	4.0	4	-1E+10	1	-1E+10	1	-1E+10	1	-1E+10	1	-1E+10	1	-1E+10	1
4902551	54	C	02/06/2022	14:01	-132.828	49.452	0	998.30	0	3.0630	0	34.3660	0	27.379	0	987.417	0	12.9	4	4.0	4	-1E+10	1	-1E+10	1	-1E+10	1	-1E+10	1	-1E+10	1	-1E+10	1
4902551	54	C	02/06/2022	14:01	-132.828	49.452	0	1005.80	0	3.0420	0	34.3700	0	27.385	0	994.818	0	12.8	4	4.0	4	-1E+10	1	-1E+10	1	-1E+10	1	-1E+10	1	-1E+10	1	-1E+10	1
4902551	54	C	02/06/2022	14:01	-132.828	49.452	0	1015.40	0	3.0250	0	34.3740	0	27.389	0	1004.290	0	12.9	4	4.0	4	-1E+10	1	-1E+10	1	-1E+10	1	-1E+10	1	-1E+10	1	-1E+10	1
4902551	54	C	02/06/2022	14:01	-132.828	49.452	0	1025.20	0	3.0090	0	34.3770	0	27.393	0	1013.959	0	12.9	4	4.0	4	-1E+10	1	-1E+10	1	-1E+10	1	-1E+10	1	-1E+10	1	-1E+10	1
4902551	54	C	02/06/2022	14:01	-132.828	49.452	0	1035.10	0	2.9950	0	34.3800	0	27.397	0	1023.726	0	12.9	4	4.0	4	-1E+10	1	-1E+10	1	-1E+10	1	-1E+10	1	-1E+10	1	-1E+10	1
4902551	54	C	02/06/2022	14:01	-132.828	49.452	0	1045.50	0	2.9680	0	34.3850	0	27.404	0	1033.987	0	13.0	4	4.0	4	-1E+10	1	-1E+10	1	-1E+10	1	-1E+10	1	-1E+10	1	-1E+10	1
4902551	54	C	02/06/2022	14:01	-132.828	49.452	0	1055.40	0	2.9450	0	34.3900	0	27.410	0	1043.753	0	13.0	4	4.0	4	-1E+10	1	-1E+10	1	-1E+10	1	-1E+10	1	-1E+10	1	-1E+10	1
4902551	54	C	02/06/2022	14:01	-132.828	49.452	0	1065.30	0	2.9310	0	34.3920	0	27.413	0	1053.519	0	13.1	4	4.0	4	-1E+10	1	-1E+10	1	-1E+10	1	-1E+10	1	-1E+10	1	-1E+10	1
4902551	54	C	02/06/2022	14:01	-132.828	49.452	0	1075.50	0	2.9150	0	34.3950	0	27.416	0	1063.580	0	13.1	4	4.0	4	-1E+10	1	-1E+10	1	-1E+10	1	-1E+10	1	-1E+10	1	-1E+10	1
4902551	54	C	02/06/2022	14:01	-132.828	49.452	0	1085.30	0	2.8970	0	34.3990	0	27.421	0	1073.247	0	13.2	4	4.1	4	-1E+10	1	-1E+10	1	-1E+10	1	-1E+10	1	-1E+10	1	-1E+10	1
4902551	54	C	02/06/2022	14:01	-132.828	49.452	0	1095.30	0	2.8840	0	34.4010	0	27.424	0	1083.110	0	13.3	4	4.1	4	-1E+10	1	-1E+10	1	-1E+10	1	-1E+10	1	-1E+10	1	-1E+10	1
4902551	54	C	02/06/2022	14:01	-132.828	49.452	0	1105.30	0	2.8660	0	34.4050	0	27.429	0	1092.972	0	13.3	4	4.1	4	-1E+10	1	-1E+10	1	-1E+10	1	-1E+10	1	-1E+10	1	-1E+10	1
4902551	54	C	02/06/2022	14:01	-132.828	49.452	0	1115.40	0	2.8510	0	34.4080	0	27.433	0	1102.933	0	13.4	4	4.1	4	-1E+10	1	-1E+10	1	-1E+10	1	-1E+10	1	-1E+10	1	-1E+10	1
4902551	54	C	02/06/2022	14:01	-132.828	49.452	0	1125.10	0	2.8340	0	34.4110	0	27.437	0	1112.499	0	13.4	4	4.1	4	-1E+10	1	-1E+10	1	-1E+10	1	-1E+10	1	-1E+10	1	-1E+10	1
4902551	54	C	02/06/2022	14:01	-132.828	49.452	0	1135.30	0	2.8230	0	34.4130	0	27.439	0	1122.558	0	13.5	4	4.1	4	-1E+10	1	-1E+10	1	-1E+10	1	-1E+10	1	-1E+10	1	-1E+10	1
4902551	54	C	02/06/2022	14:01	-132.828	49.452	0	1145.70	0	2.8100	0	34.4160	0	27.443	0	1132.813	0	13.5	4	4.2	4	-1E+10	1	-1E+10	1	-1E+10	1	-1E+10	1	-1E+10	1	-1E+10	1
4902551	54	C	02/06/2022	14:01	-132.828	49.452	0	1155.80	0	2.8010	0	34.4180	0	27.445	0	1142.772	0	13.6	4	4.2	4	-1E+10	1	-1E+10	1	-1E+10	1	-1E+10	1	-1E+10	1	-1E+10	1
4902551	54	C	02/06/2022	14:01	-132.828	49.452	0	1165.60	0	2.7890	0	34.4200	0	27.448	0	1152.434	0	13.7	4	4.2	4	-1E+10	1	-1E+10	1	-1E+10	1	-1E+10	1	-1E+10	1	-1E+10	1
4902551	54	C	02/06/2022	14:01	-132.828	49.452	0	1175.40	0	2.7730	0	34.4230	0	27.452	0	1162.097	0	13.8	4	4.2	4	-1E+10	1	-1E+10	1	-1E+10	1	-1E+10	1	-1E+10	1	-1E+10	1
4902551	54	C	02/06/2022	14:01	-132.828	49.452	0	1185.30	0	2.7620	0	34.4260	0	27.455	0	1171.857	0	13.9	4	4.3	4	-1E+10	1	-1E+10	1	-1E+10	1	-1E+10	1	-1E+10	1	-1E+10	1
4902551	54	C	02/06/2022	14:01	-132.828	49.452	0	1195.10	0	2.7460	0	34.4290	0	27.459	0	1181.518	0	14.0	4	4.3	4	-1E+10	1	-1E+10	1	-1E+10	1	-1E+10	1	-1E+10	1	-1E+10	1
4902551	54	C	02/06/2022	14:01	-132.828	49.452	0	1205.00	0	2.7340	0	34.4310	0	27.462	0	1191.278	0	14.1	4	4.3	4	-1E+10	1	-1E+10	1	-1E+10	1	-1E+10	1	-1E+10	1	-1E+10	1
4902551	54	C	02/06/2022	14:01	-132.828	49.452	0	1215.40	0	2.7260	0	34.4320	0	27.463	0	1201.530	0	14.2	4	4.4	4	-1E+10	1	-1E+10	1	-1E+10	1	-1E+10	1	-1E+10	1	-1E+10	1
4902551	54	C	02/06/2022	14:01	-132.828	49.452	0	1225.80	0	2.7180	0	34.4350	0	27.467	0	1211.781	0	14.3	4	4.4	4	-1E+10	1	-1E+10	1	-1E+10	1	-1E+10	1	-1E+10	1	-1E+10	1
4902551	54	C	02/06/2022	14:01	-132.828	49.452	0	1235.80	0	2.7060	0	34.4370	0	27.469	0	1221.638	0	14.5	4	4.4	4	-1E+10	1	-1E+10	1	-1E+10	1	-1E+10	1	-1E+10	1	-1E+10	1
4902551	54	C	02/06/2022	14:01	-132.828	49.452	0	1245.60	0	2.6910	0	34.4400	0	27.473	0	1231.297	0	14.7	4	4.5	4	-1E+10	1	-1E+10	1	-1E+10	1	-1E+10	1	-1E+10	1	-1E+10	1
4902551	54	C	02/06/2022	14:01	-132.828	49.452	0	1255.40	0	2.6720	0	34.4440	0	27.478	0	1240.955	0	14.9	4	4.6	4	-1E+10	1	-1E+10	1	-1E+10	1	-1E+10	1	-1E+10	1	-1E+10	1
4902551	54	C	02/06/2022	14:01	-132.828	49.452	0	1265.30	0	2.6570	0	34.4460	0	27.481	0	1250.712	0	15.2	4	4.6	4	-1E+10	1	-1E+10	1	-1E+10	1	-1E+10	1	-1E+10	1	-1E+10	1
4902551	54	C	02/06/2022	14:01	-132.828	49.452	0	1275.20	0	2.6370	0	34.4490	0	27.485	0	1260.468	0	15.5	4	4.7	4	-1E+10	1	-1E+10	1	-1E+10	1	-1E+10	1	-1E+10	1	-1E+10	1
4902551	54	C	02/06/2022	14:01	-132.828	49.452	0	1285.40	0	2.6200	0	34.4530	0	27.490	0	1270.520	0	15.7	4	4.8	4	-1E+10	1	-1E+10	1	-1E+10	1	-1E+10	1	-1E+10	1	-1E+10	1
4902551	54	C	02/06/2022	14:01	-132.828	49.452	0	1295.30	0	2.6060	0	34.4550	0	27.493	0	1280.275	0	16.0	4	4.9	4	-1E+10	1	-1E+10	1	-1E+10	1	-1E+10	1	-1E+10	1	-1E+10	1
4902551	54	C	02/06/2022	14:01	-132.828	49.452	0	1305.20	0	2.5940	0	34.4580	0	27.496	0	1290.030	0	16.2	4	4.9	4	-1E+10	1	-1E+10	1	-1E+10	1	-1E+10	1	-1E+10	1	-1E+10	1
4902551	54	C	02/06/2022	14:01	-132.828	49.452	0	1315.40	0	2.5860	0	34.4590	0	27.498	0	1300.080	0	16.4	4	5.0	4	-1E+10	1	-1E+10	1	-1E+10	1	-1E+10	1	-1E+10	1	-1E+10	1
4902551	54	C	02/06/2022	14:01	-132.828	49.452	0	1325.70	0	2.5740	0	34.4610	0	27.500	0	1310.228	0	16.7	4	5.1	4	-1E+10	1	-1E+10	1	-1E+10	1	-1E+10	1	-1E+10	1	-1E+10	1
4902551	54	C	02/06/2022	14:01	-132.828	49.452	0	1335.40	0	2.5600	0	34.4640	0	27.504	0	1319.784	0	17.1	4	5.2	4	-1E+10	1	-1E+10	1	-1E+10	1	-1E+10	1	-1E+10	1	-1E+10	1
4902551	54	C	02/06/2022	14:01	-132.828	49.452	0	1345.40	0	2.5480	0	34.4660	0	27.507	0	1329.636	0	17.5	4	5.3	4	-1E+10	1	-1E+10	1	-1E+10	1	-1E+10	1	-1E+10	1	-1E+10	1
4902551	54	C	02/06/2022	14:01	-132.828	49.452	0	1355.80	0	2.5350	0	34.4690	0	27.510	0	1339.881	0	17.8	4	5.4	4	-1E+10	1	-1E+10	1	-1E+10	1	-1E+10	1	-1E+10	1	-1E+10	1
4902551	54	C	02/06/2022	14:01	-132.828	49.452	0	1365.50	0	2.5230	0	34.4700	0	27.512	0	1349.436	0	18.0	4	5.5	4	-1E+10	1	-1E+10	1	-1E+10	1	-1E+10	1	-1E+10	1	-1E+10	1
4902551	54	C	02/06/2022	14:01	-132.828	49.452	0	1375.20	0	2.5060	0	34.4730	0	27.516	0	1358.991	0	18.3	4	5.6	4	-1E+10	1	-1E+10	1	-1E+10	1	-1E+10	1	-1E+10	1	-1E+10	1
4902551	54	C	02/06/2022	14:01	-132.828	49.452	0	1385.10	0	2.4980	0	34.4740	0	27.517	0	1368.742	0	18.7	4	5.7	4	-1E+10	1	-1E+10	1	-1E+10	1	-1E+10	1	-1E+10	1	-1E+10	1
4902551	54	C	02/06/2022	14:01	-132.828	49.452	0	1395.40	0	2.4830	0	34.4780	0	27.522	0	1378.887	0	19.0	4	5.8	4	-1E+10	1	-1E+10	1	-1E+10	1	-1E+10	1	-1E+10	1	-1E+10	1
4902551	54	C	02/06/2022	14:01	-132.828	49.452	0	1405.30	0	2.4690	0	34.4800	0	27.525	0	1388.637	0	19.3	4	5.9	4	-1E+10	1	-1E+10	1	-1E+10	1	-1E+10	1	-1E+10	1	-1E+10	1
4902551	54	C	02/06/2022	14:01	-132.828	49.452	0	1415.10	0	2.4620	0	34.4810	0	27.526	0	1398.288	0	19.5	4	6.0	4	-1E+10	1	-1E+10	1	-1E+10	1	-1E+10	1	-1E+10	1	-1E+10	1
4902551	54	C	02/06/2022	14:01	-132.828	49.452	0	1425.70	0	2.4520	0	34.4820	0	27.528	0	1408.727	0	19.8	4	6.0	4	-1E+10	1	-1E+10	1	-1E+10	1	-1E+10	1	-1E+10	1	-1E+10	1
4902551	54	C	02/06/2022	14:01	-132.828	49.452	0	1435.60	0	2.4430	0	34.4840	0	27.530	0	1418.476	0	20.2	4	6.2	4	-1E+10	1	-1E+10	1	-1E+10	1	-1E+10	1	-1E+10	1	-1E+10	1
4902551	54	C	02/06/2022	14:01	-132.828	49.452	0	1445.40	0	2.4270	0	34.4870	0	27.534	0	1428.126	0	20.6	4	6.3	4	-1E+10	1	-1E+10	1	-1E+10	1	-1E+10	1	-1E+10	1	-1E+10	1
4902551	54	C	02/06/2022	14:01	-132.828	49.452	0	1455.20	0	2.4200	0	34.4880	0	27.535	0	1437.775	0	20.9	4	6.4	4	-1E+10	1	-1E+10	1	-1E+10	1	-1E+10	1	-1E+10	1	-1E+10	1
4902551	54	C	02/06/2022	14:01	-132.828	49.452	0	1465.20	0	2.4120	0	34.4890	0	27.537	0	1447.621	0	21.3	4	6.5	4	-1E+10	1	-1E+10	1	-1E+10	1	-1E+10	1	-1E+10	1	-1E+10	1
4902551	54	C	02/06/2022	14:01	-132.828	49.452	0	1475.10	0	2.4010	0	34.4920	0	27.540	0	1457.369	0	21.6	4	6.6	4	-1E+10	1	-1E+10	1	-1E+10	1	-1E+10	1	-1E+10	1	-1E+10	1
4902551	54	C	02/06/2022	14:01	-132.828	49.452	0	1485.00	0	2.3900	0	34.4940	0	27.543	0	1467.115	0	22.0	4	6.7	4	-1E+10	1	-1E+10	1	-1E+10	1	-1E+10	1	-1E+10	1	-1E+10	1
4902551	54	C	02/06/2022	14:01	-132.828	49.452	0	1495.10	0	2.3820	0	34.4950	0	27.544	0	1477.058	0	22.2	4	6.8	4	-1E+10	1	-1E+10	1	-1E+10	1	-1E+10	1	-1E+10	1	-1E+10	1
4902551	54	C	02/06/2022	14:01	-132.828	49.452	0	1505.10	0	2.3770	0	34.4960	0	27.546	0	1486.902	0	22.5	4	6.8	4	-1E+10	1	-1E+10	1	-1E+10	1	-1E+10	1	-1E+10	1	-1E+10	1
4902551	54	C	02/06/2022	14:01	-132.828	49.452	0	1515.00	0	2.3680	0	34.4980	0	27.548	0	1496.648	0	22.9	4	7.0	4	-1E+10	1	-1E+10	1	-1E+10	1	-1E+10	1	-1E+10	1	-1E+10	1
4902551	54	C	02/06/2022	14:01	-132.828	49.452	0	1525.10	0	2.3590	0	34.5000	0	27.550	0	1506.589	0	23.2	4	7.1	4	-1E+10	1	-1E+10	1	-1E+10	1	-1E+10	1	-1E+10	1	-1E+10	1
4902551	54	C	02/06/2022	14:01	-132.828	49.452	0	1535.50	0	2.3550	0	34.5000	0	27.551	0	1516.826	0	23.4	4	7.1	4	-1E+10	1	-1E+10	1	-1E+10	1	-1E+10	1	-1E+10	1	-1E+10	1
4902551	54	C	02/06/2022	14:01	-132.828	49.452	0	1545.30	0	2.3500	0	34.5010	0	27.552	0	1526.471	0	23.8	4	7.2	4	-1E+10	1	-1E+10	1	-1E+10	1	-1E+10	1	-1E+10	1	-1E+10	1
4902551	54	C	02/06/2022	14:01	-132.828	49.452	0	1555.20	0	2.3390	0	34.5030	0	27.555	0	1536.215	0	24.5	4	7.4	4	-1E+10	1	-1E+10	1	-1E+10	1	-1E+10	1	-1E+10	1	-1E+10	1
4902551	54	C	02/06/2022	14:01	-132.828	49.452	0	1565.40	0	2.3200	0	34.5060	0	27.559	0	1546.253	0	25.3	4	7.7	4	-1E+10	1	-1E+10	1	-1E+10	1	-1E+10	1	-1E+10	1	-1E+10	1
4902551	54	C	02/06/2022	14:01	-132.828	49.452	0	1575.60	0	2.3010	0	34.5100	0	27.563	0	1556.291	0	26.0	4	7.9	4	-1E+10	1	-1E+10	1	-1E+10	1	-1E+10	1	-1E+10	1	-1E+10	1
4902551	54	C	02/06/2022	14:01	-132.828	49.452	0	1585.80	0	2.2890	0	34.5120	0	27.566	0	1566.328	0	26.7	4	8.1	4	-1E+10	1	-1E+10	1	-1E+10	1	-1E+10	1	-1E+10	1	-1E+10	1
4902551	54	C	02/06/2022	14:01	-132.828	49.452	0	1595.70	0	2.2770	0	34.5150	0	27.570	0	1576.070	0	27.3	4	8.3	4	-1E+10	1	-1E+10	1	-1E+10	1	-1E+10	1	-1E+10	1	-1E+10	1
4902551	54	C	02/06/2022	14:01	-132.828	49.452	0	1605.50	0	2.2660	0	34.5170	0	27.572	0	1585.712	0	28.0	4	8.5	4	-1E+10	1	-1E+10	1	-1E+10	1	-1E+10	1	-1E+10	1	-1E+10	1
4902551	54	C	02/06/2022	14:01	-132.828	49.452	0	1615.30	0	2.2560	0	34.5190	0	27.575	0	1595.355	0	28.4	4	8.6	4	-1E+10	1	-1E+10	1	-1E+10	1	-1E+10	1	-1E+10	1	-1E+10	1
4902551	54	C	02/06/2022	14:01	-132.828	49.452	0	1625.40	0	2.2470	0	34.5200	0	27.576	0	1605.292	0	28.9	4	8.8	4	-1E+10	1	-1E+10	1	-1E+10	1	-1E+10	1	-1E+10	1	-1E+10	1
4902551	54	C	02/06/2022	14:01	-132.828	49.452	0	1635.20	0	2.2400	0	34.5220	0	27.578	0	1614.933	0	29.4	4	8.9	4	-1E+10	1	-1E+10	1	-1E+10	1	-1E+10	1	-1E+10	1	-1E+10	1
4902551	54	C	02/06/2022	14:01	-132.828	49.452	0	1645.20	0	2.2320	0	34.5240	0	27.581	0	1624.771	0	30.0	4	9.1	4	-1E+10	1	-1E+10	1	-1E+10	1	-1E+10	1	-1E+10	1	-1E+10	1
4902551	54	C	02/06/2022	14:01	-132.828	49.452	0	1655.30	0	2.2230	0	34.5260	0	27.583	0	1634.707	0	30.7	4	9.3	4	-1E+10	1	-1E+10	1	-1E+10	1	-1E+10	1	-1E+10	1	-1E+10	1
4902551	54	C	02/06/2022	14:01	-132.828	49.452	0	1665.30	0	2.2130	0	34.5280	0	27.585	0	1644.543	0	31.4	4	9.5	4	-1E+10	1	-1E+10	1	-1E+10	1	-1E+10	1	-1E+10	1	-1E+10	1
4902551	54	C	02/06/2022	14:01	-132.828	49.452	0	1675.50	0	2.2030	0	34.5300	0	27.588	0	1654.576	0	31.9	4	9.7	4	-1E+10	1	-1E+10	1	-1E+10	1	-1E+10	1	-1E+10	1	-1E+10	1
4902551	54	C	02/06/2022	14:01	-132.828	49.452	0	1685.60	0	2.1970	0	34.5310	0	27.589	0	1664.511	0	32.5	4	9.9	4	-1E+10	1	-1E+10	1	-1E+10	1	-1E+10	1	-1E+10	1	-1E+10	1
4902551	54	C	02/06/2022	14:01	-132.828	49.452	0	1695.10	0	2.1860	0	34.5340	0	27.593	0	1673.854	0	33.5	4	10.1	4	-1E+10	1	-1E+10	1	-1E+10	1	-1E+10	1	-1E+10	1	-1E+10	1
4902551	54	C	02/06/2022	14:01	-132.828	49.452	0	1705.10	0	2.1720	0	34.5360	0	27.595	0	1683.689	0	34.3	4	10.4	4	-1E+10	1	-1E+10	1	-1E+10	1	-1E+10	1	-1E+10	1	-1E+10	1
4902551	54	C	02/06/2022	14:01	-132.828	49.452	0	1715.40	0	2.1620	0	34.5380	0	27.598	0	1693.819	0	35.1	4	10.6	4	-1E+10	1	-1E+10	1	-1E+10	1	-1E+10	1	-1E+10	1	-1E+10	1
4902551	54	C	02/06/2022	14:01	-132.828	49.452	0	1725.40	0	2.1490	0	34.5410	0	27.601	0	1703.653	0	36.0	4	10.9	4	-1E+10	1	-1E+10	1	-1E+10	1	-1E+10	1	-1E+10	1	-1E+10	1
4902551	54	C	02/06/2022	14:01	-132.828	49.452	0	1735.40	0	2.1360	0	34.5430	0	27.604	0	1713.487	0	36.8	4	11.1	4	-1E+10	1	-1E+10	1	-1E+10	1	-1E+10	1	-1E+10	1	-1E+10	1
4902551	54	C	02/06/2022	14:01	-132.828	49.452	0	1745.60	0	2.1270	0	34.5450	0	27.606	0	1723.516	0	37.5	4	11.3	4	-1E+10	1	-1E+10	1	-1E+10	1	-1E+10	1	-1E+10	1	-1E+10	1
4902551	54	C	02/06/2022	14:01	-132.828	49.452	0	1755.30	0	2.1160	0	34.5470	0	27.609	0	1733.054	0	38.3	4	11.6	4	-1E+10	1	-1E+10	1	-1E+10	1	-1E+10	1	-1E+10	1	-1E+10	1
4902551	54	C	02/06/2022	14:01	-132.828	49.452	0	1765.20	0	2.1100	0	34.5490	0	27.611	0	1742.788	0	38.9	4	11.8	4	-1E+10	1	-1E+10	1	-1E+10	1	-1E+10	1	-1E+10	1	-1E+10	1
4902551	54	C	02/06/2022	14:01	-132.828	49.452	0	1775.20	0	2.0970	0	34.5510	0	27.614	0	1752.620	0	40.0	4	12.1	4	-1E+10	1	-1E+10	1	-1E+10	1	-1E+10	1	-1E+10	1	-1E+10	1
4902551	54	C	02/06/2022	14:01	-132.828	49.452	0	1785.20	0	2.0850	0	34.5530	0	27.616	0	1762.451	0	40.8	4	12.3	4	-1E+10	1	-1E+10	1	-1E+10	1	-1E+10	1	-1E+10	1	-1E+10	1
4902551	54	C	02/06/2022	14:01	-132.828	49.452	0	1795.30	0	2.0700	0	34.5560	0	27.620	0	1772.380	0	41.9	4	12.6	4	-1E+10	1	-1E+10	1	-1E+10	1	-1E+10	1	-1E+10	1	-1E+10	1
4902551	54	C	02/06/2022	14:01	-132.828	49.452	0	1805.50	0	2.0600	0	34.5580	0	27.622	0	1782.407	0	42.5	4	12.8	4	-1E+10	1	-1E+10	1	-1E+10	1	-1E+10	1	-1E+10	1	-1E+10	1
4902551	54	C	02/06/2022	14:01	-132.828	49.452	0	1815.40	0	2.0500	0	34.5600	0	27.625	0	1792.139	0	43.2	4	13.1	4	-1E+10	1	-1E+10	1	-1E+10	1	-1E+10	1	-1E+10	1	-1E+10	1
4902551	54	C	02/06/2022	14:01	-132.828	49.452	0	1825.30	0	2.0430	0	34.5610	0	27.626	0	1801.870	0	43.7	4	13.2	4	-1E+10	1	-1E+10	1	-1E+10	1	-1E+10	1	-1E+10	1	-1E+10	1
4902551	54	C	02/06/2022	14:01	-132.828	49.452	0	1835.30	0	2.0410	0	34.5620	0	27.627	0	1811.699	0	44.1	4	13.3	4	-1E+10	1	-1E+10	1	-1E+10	1	-1E+10	1	-1E+10	1	-1E+10	1
4902551	54	C	02/06/2022	14:01	-132.828	49.452	0	1845.10	0	2.0330	0	34.5630	0	27.629	0	1821.331	0	44.8	4	13.5	4	-1E+10	1	-1E+10	1	-1E+10	1	-1E+10	1	-1E+10	1	-1E+10	1
4902551	54	C	02/06/2022	14:01	-132.828	49.452	0	1855.20	0	2.0260	0	34.5650	0	27.631	0	1831.258	0	45.5	4	13.7	4	-1E+10	1	-1E+10	1	-1E+10	1	-1E+10	1	-1E+10	1	-1E+10	1
4902551	54	C	02/06/2022	14:01	-132.828	49.452	0	1865.50	0	2.0190	0	34.5660	0	27.632	0	1841.380	0	46.2	4	13.9	4	-1E+10	1	-1E+10	1	-1E+10	1	-1E+10	1	-1E+10	1	-1E+10	1
4902551	54	C	02/06/2022	14:01	-132.828	49.452	0	1875.50	0	2.0090	0	34.5680	0	27.635	0	1851.207	0	46.7	4	14.1	4	-1E+10	1	-1E+10	1	-1E+10	1	-1E+10	1	-1E+10	1	-1E+10	1
4902551	54	C	02/06/2022	14:01	-132.828	49.452	0	1885.60	0	2.0070	0	34.5690	0	27.636	0	1861.132	0	47.2	4	14.2	4	-1E+10	1	-1E+10	1	-1E+10	1	-1E+10	1	-1E+10	1	-1E+10	1
4902551	54	C	02/06/2022	14:01	-132.828	49.452	0	1895.60	0	1.9970	0	34.5710	0	27.638	0	1870.959	0	48.0	4	14.5	4	-1E+10	1	-1E+10	1	-1E+10	1	-1E+10	1	-1E+10	1	-1E+10	1
4902551	54	C	02/06/2022	14:01	-132.828	49.452	0	1905.50	0	1.9910	0	34.5720	0	27.640	0	1880.686	0	48.5	4	14.6	4	-1E+10	1	-1E+10	1	-1E+10	1	-1E+10	1	-1E+10	1	-1E+10	1
4902551	54	C	02/06/2022	14:01	-132.828	49.452	0	1915.60	0	1.9850	0	34.5730	0	27.641	0	1890.610	0	49.1	4	14.8	4	-1E+10	1	-1E+10	1	-1E+10	1	-1E+10	1	-1E+10	1	-1E+10	1
4902551	54	C	02/06/2022	14:01	-132.828	49.452	0	1925.40	0	1.9800	0	34.5740	0	27.642	0	1900.238	0	49.6	4	14.9	4	-1E+10	1	-1E+10	1	-1E+10	1	-1E+10	1	-1E+10	1	-1E+10	1
4902551	54	C	02/06/2022	14:01	-132.828	49.452	0	1935.30	0	1.9740	0	34.5760	0	27.644	0	1909.965	0	50.1	4	15.1	4	-1E+10	1	-1E+10	1	-1E+10	1	-1E+10	1	-1E+10	1	-1E+10	1
4902551	54	C	02/06/2022	14:01	-132.828	49.452	0	1945.60	0	1.9700	0	34.5770	0	27.645	0	1920.083	0	50.8	4	15.3	4	-1E+10	1	-1E+10	1	-1E+10	1	-1E+10	1	-1E+10	1	-1E+10	1
4902551	54	C	02/06/2022	14:01	-132.828	49.452	0	1955.40	0	1.9580	0	34.5790	0	27.648	0	1929.710	0	51.7	4	15.6	4	-1E+10	1	-1E+10	1	-1E+10	1	-1E+10	1	-1E+10	1	-1E+10	1
4902551	54	C	02/06/2022	14:01	-132.828	49.452	0	1965.40	0	1.9510	0	34.5800	0	27.649	0	1939.534	0	52.2	4	15.7	4	-1E+10	1	-1E+10	1	-1E+10	1	-1E+10	1	-1E+10	1	-1E+10	1
4902551	54	C	02/06/2022	14:01	-132.828	49.452	0	1975.70	0	1.9450	0	34.5810	0	27.651	0	1949.651	0	52.8	4	15.9	4	-1E+10	1	-1E+10	1	-1E+10	1	-1E+10	1	-1E+10	1	-1E+10	1
4902551	54	C	02/06/2022	14:01	-132.828	49.452	0	1985.30	0	1.9390	0	34.5820	0	27.652	0	1959.080	0	53.3	4	16.1	4	-1E+10	1	-1E+10	1	-1E+10	1	-1E+10	1	-1E+10	1	-1E+10	1
4902551	54	C	02/06/2022	14:01	-132.828	49.452	0	1995.10	0	1.9340	0	34.5840	0	27.654	0	1968.705	0	53.8	4	16.2	4	-1E+10	1	-1E+10	1	-1E+10	1	-1E+10	1	-1E+10	1	-1E+10	1
4902551	54	C	02/06/2022	14:01	-132.828	49.452	0	2005.20	0	1.9270	0	34.5850	0	27.655	0	1978.625	0	54.3	4	16.3	4	-1E+10	1	-1E+10	1	-1E+10	1	-1E+10	1	-1E+10	1	-1E+10	1
4902551	54	C	02/06/2022	14:01	-132.828	49.452	0	2015.70	0	1.9230	0	34.5860	0	27.657	0	1988.937	0	54.2	4	16.3	4	-1E+10	1	-1E+10	1	-1E+10	1	-1E+10	1	-1E+10	1	-1E+10	1
4902551	54	C	02/06/2022	14:01	-132.828	49.452	0	2021.20	0	1.9200	0	34.5870	0	27.658	0	1994.338	0	53.8	4	16.2	4	-1E+10	1	-1E+10	1	-1E+10	1	-1E+10	1	-1E+10	1	-1E+10	1
4902551	54	C	02/06/2022	14:01	-132.828	49.452	0																										
4902551	55	C	02/16/2022	15:54	-132.618	49.516	0	0.60	0	7.3860	0	32.3370	0	25.270	0	0.595	0	282.3	4	95.2	4	-1E+10	1	-1E+10	1	-1E+10	1	-1E+10	1	-1E+10	1	-1E+10	1
4902551	55	C	02/16/2022	15:54	-132.618	49.516	0	0.70	0	7.3850	0	32.3370	0	25.270	0	0.694	0	289.5	4	97.6	4	-1E+10	1	-1E+10	1	-1E+10	1	-1E+10	1	-1E+10	1	-1E+10	1
4902551	55	C	02/16/2022	15:54	-132.618	49.516	0	0.80	0	7.3860	0	32.3360	0	25.269	0	0.793	0	289.5	4	97.6	4	-1E+10	1	-1E+10	1	-1E+10	1	-1E+10	1	-1E+10	1	-1E+10	1
4902551	55	C	02/16/2022	15:54	-132.618	49.516	0	1.00	0	7.3910	0	32.3340	0	25.267	0	0.991	0	-1e10	1	-1e10	1	-1E+10	1	-1E+10	1	-1E+10	1	-1E+10	1	-1E+10	1	-1E+10	1
4902551	55	C	02/16/2022	15:54	-132.618	49.516	0	1.30	0	7.3910	0	32.3340	0	25.267	0	1.289	0	-1e10	1	-1e10	1	-1E+10	1	-1E+10	1	-1E+10	1	-1E+10	1	-1E+10	1	-1E+10	1
4902551	55	C	02/16/2022	15:54	-132.618	49.516	0	1.80	0	7.3910	0	32.3340	0	25.267	0	1.785	0	-1e10	1	-1e10	1	-1E+10	1	-1E+10	1	-1E+10	1	-1E+10	1	-1E+10	1	-1E+10	1
4902551	55	C	02/16/2022	15:54	-132.618	49.516	0	2.10	0	7.3910	0	32.3340	0	25.267	0	2.082	0	282.2	4	95.1	4	-1E+10	1	-1E+10	1	-1E+10	1	-1E+10	1	-1E+10	1	-1E+10	1
4902551	55	C	02/16/2022	15:54	-132.618	49.516	0	3.00	0	7.3920	0	32.3350	0	25.267	0	2.974	0	282.1	4	95.1	4	-1E+10	1	-1E+10	1	-1E+10	1	-1E+10	1	-1E+10	1	-1E+10	1
4902551	55	C	02/16/2022	15:54	-132.618	49.516	0	3.90	0	7.3930	0	32.3350	0	25.267	0	3.867	0	282.1	4	95.1	4	-1E+10	1	-1E+10	1	-1E+10	1	-1E+10	1	-1E+10	1	-1E+10	1
4902551	55	C	02/16/2022	15:54	-132.618	49.516	0	4.80	0	7.3930	0	32.3350	0	25.267	0	4.759	0	282.1	4	95.1	4	-1E+10	1	-1E+10	1	-1E+10	1	-1E+10	1	-1E+10	1	-1E+10	1
4902551	55	C	02/16/2022	15:54	-132.618	49.516	0	6.00	0	7.3930	0	32.3350	0	25.267	0	5.949	0	282.0	4	95.1	4	-1E+10	1	-1E+10	1	-1E+10	1	-1E+10	1	-1E+10	1	-1E+10	1
4902551	55	C	02/16/2022	15:54	-132.618	49.516	0	7.30	0	7.3930	0	32.3350	0	25.267	0	7.238	0	282.1	4	95.1	4	-1E+10	1	-1E+10	1	-1E+10	1	-1E+10	1	-1E+10	1	-1E+10	1
4902551	55	C	02/16/2022	15:54	-132.618	49.516	0	8.00	0	7.3930	0	32.3350	0	25.267	0	7.932	0	282.0	4	95.1	4	-1E+10	1	-1E+10	1	-1E+10	1	-1E+10	1	-1E+10	1	-1E+10	1
4902551	55	C	02/16/2022	15:54	-132.618	49.516	0	9.00	0	7.3930	0	32.3350	0	25.267	0	8.923	0	282.0	4	95.1	4	-1E+10	1	-1E+10	1	-1E+10	1	-1E+10	1	-1E+10	1	-1E+10	1
4902551	55	C	02/16/2022	15:54	-132.618	49.516	0	10.00	0	7.3930	0	32.3350	0	25.267	0	9.914	0	282.0	4	95.1	4	-1E+10	1	-1E+10	1	-1E+10	1	-1E+10	1	-1E+10	1	-1E+10	1
4902551	55	C	02/16/2022	15:54	-132.618	49.516	0	11.00	0	7.3930	0	32.3350	0	25.267	0	10.906	0	281.9	4	95.1	4	-1E+10	1	-1E+10	1	-1E+10	1	-1E+10	1	-1E+10	1	-1E+10	1
4902551	55	C	02/16/2022	15:54	-132.618	49.516	0	12.10	0	7.3940	0	32.3350	0	25.267	0	11.996	0	281.9	4	95.1	4	-1E+10	1	-1E+10	1	-1E+10	1	-1E+10	1	-1E+10	1	-1E+10	1
4902551	55	C	02/16/2022	15:54	-132.618	49.516	0	13.00	0	7.3940	0	32.3350	0	25.267	0	12.889	0	282.0	4	95.1	4	-1E+10	1	-1E+10	1	-1E+10	1	-1E+10	1	-1E+10	1	-1E+10	1
4902551	55	C	02/16/2022	15:54	-132.618	49.516	0	13.80	0	7.3940	0	32.3350	0	25.267	0	13.682	0	281.9	4	95.1	4	-1E+10	1	-1E+10	1	-1E+10	1	-1E+10	1	-1E+10	1	-1E+10	1
4902551	55	C	02/16/2022	15:54	-132.618	49.516	0	14.80	0	7.3940	0	32.3350	0	25.267	0	14.673	0	281.9	4	95.1	4	-1E+10	1	-1E+10	1	-1E+10	1	-1E+10	1	-1E+10	1	-1E+10	1
4902551	55	C	02/16/2022	15:54	-132.618	49.516	0	15.80	0	7.3940	0	32.3350	0	25.267	0	15.665	0	281.9	4	95.0	4	-1E+10	1	-1E+10	1	-1E+10	1	-1E+10	1	-1E+10	1	-1E+10	1
4902551	55	C	02/16/2022	15:54	-132.618	49.516	0	16.90	0	7.3940	0	32.3350	0	25.267	0	16.755	0	281.8	4	95.0	4	-1E+10	1	-1E+10	1	-1E+10	1	-1E+10	1	-1E+10	1	-1E+10	1
4902551	55	C	02/16/2022	15:54	-132.618	49.516	0	18.10	0	7.3940	0	32.3350	0	25.267	0	17.945	0	281.8	4	95.0	4	-1E+10	1	-1E+10	1	-1E+10	1	-1E+10	1	-1E+10	1	-1E+10	1
4902551	55	C	02/16/2022	15:54	-132.618	49.516	0	19.20	0	7.3940	0	32.3350	0	25.267	0	19.035	0	281.8	4	95.0	4	-1E+10	1	-1E+10	1	-1E+10	1	-1E+10	1	-1E+10	1	-1E+10	1
4902551	55	C	02/16/2022	15:54	-132.618	49.516	0	20.10	0	7.3940	0	32.3350	0	25.267	0	19.928	0	281.8	4	95.0	4	-1E+10	1	-1E+10	1	-1E+10	1	-1E+10	1	-1E+10	1	-1E+10	1
4902551	55	C	02/16/2022	15:54	-132.618	49.516	0	20.80	0	7.3940	0	32.3350	0	25.267	0	20.622	0	281.8	4	95.0	4	-1E+10	1	-1E+10	1	-1E+10	1	-1E+10	1	-1E+10	1	-1E+10	1
4902551	55	C	02/16/2022	15:54	-132.618	49.516	0	21.90	0	7.3940	0	32.3350	0	25.267	0	21.712	0	281.8	4	95.0	4	-1E+10	1	-1E+10	1	-1E+10	1	-1E+10	1	-1E+10	1	-1E+10	1
4902551	55	C	02/16/2022	15:54	-132.618	49.516	0	23.10	0	7.3950	0	32.3350	0	25.267	0	22.902	0	281.8	4	95.0	4	-1E+10	1	-1E+10	1	-1E+10	1	-1E+10	1	-1E+10	1	-1E+10	1
4902551	55	C	02/16/2022	15:54	-132.618	49.516	0	23.80	0	7.3950	0	32.3350	0	25.267	0	23.596	0	281.7	4	95.0	4	-1E+10	1	-1E+10	1	-1E+10	1	-1E+10	1	-1E+10	1	-1E+10	1
4902551	55	C	02/16/2022	15:54	-132.618	49.516	0	24.90	0	7.3950	0	32.3350	0	25.267	0	24.686	0	281.7	4	95.0	4	-1E+10	1	-1E+10	1	-1E+10	1	-1E+10	1	-1E+10	1	-1E+10	1
4902551	55	C	02/16/2022	15:54	-132.618	49.516	0	26.10	0	7.3950	0	32.3350	0	25.267	0	25.876	0	281.7	4	95.0	4	-1E+10	1	-1E+10	1	-1E+10	1	-1E+10	1	-1E+10	1	-1E+10	1
4902551	55	C	02/16/2022	15:54	-132.618	49.516	0	26.90	0	7.3950	0	32.3350	0	25.267	0	26.669	0	281.8	4	95.0	4	-1E+10	1	-1E+10	1	-1E+10	1	-1E+10	1	-1E+10	1	-1E+10	1
4902551	55	C	02/16/2022	15:54	-132.618	49.516	0	27.90	0	7.3950	0	32.3350	0	25.267	0	27.660	0	281.7	4	95.0	4	-1E+10	1	-1E+10	1	-1E+10	1	-1E+10	1	-1E+10	1	-1E+10	1
4902551	55	C	02/16/2022	15:54	-132.618	49.516	0	29.00	0	7.3950	0	32.3350	0	25.267	0	28.751	0	281.6	4	95.0	4	-1E+10	1	-1E+10	1	-1E+10	1	-1E+10	1	-1E+10	1	-1E+10	1
4902551	55	C	02/16/2022	15:54	-132.618	49.516	0	30.20	0	7.3950	0	32.3350	0	25.267	0	29.940	0	281.6	4	95.0	4	-1E+10	1	-1E+10	1	-1E+10	1	-1E+10	1	-1E+10	1	-1E+10	1
4902551	55	C	02/16/2022	15:54	-132.618	49.516	0	31.00	0	7.3950	0	32.3350	0	25.267	0	30.733	0	281.6	4	95.0	4	-1E+10	1	-1E+10	1	-1E+10	1	-1E+10	1	-1E+10	1	-1E+10	1
4902551	55	C	02/16/2022	15:54	-132.618	49.516	0	32.20	0	7.3940	0	32.3340	0	25.267	0	31.923	0	281.6	4	94.9	4	-1E+10	1	-1E+10	1	-1E+10	1	-1E+10	1	-1E+10	1	-1E+10	1
4902551	55	C	02/16/2022	15:54	-132.618	49.516	0	33.00	0	7.3910	0	32.3350	0	25.268	0	32.716	0	281.5	4	94.9	4	-1E+10	1	-1E+10	1	-1E+10	1	-1E+10	1	-1E+10	1	-1E+10	1
4902551	55	C	02/16/2022	15:54	-132.618	49.516	0	34.20	0	7.3940	0	32.3350	0	25.267	0	33.905	0	281.5	4	94.9	4	-1E+10	1	-1E+10	1	-1E+10	1	-1E+10	1	-1E+10	1	-1E+10	1
4902551	55	C	02/16/2022	15:54	-132.618	49.516	0	35.00	0	7.3950	0	32.3350	0	25.267	0	34.699	0	281.4	4	94.9	4	-1E+10	1	-1E+10	1	-1E+10	1	-1E+10	1	-1E+10	1	-1E+10	1
4902551	55	C	02/16/2022	15:54	-132.618	49.516	0	36.20	0	7.3870	0	32.3360	0	25.269	0	35.888	0	281.3	4	94.8	4	-1E+10	1	-1E+10	1	-1E+10	1	-1E+10	1	-1E+10	1	-1E+10	1
4902551	55	C	02/16/2022	15:54	-132.618	49.516	0	36.90	0	7.3870	0	32.3350	0	25.268	0	36.582	0	281.4	4	94.9	4	-1E+10	1	-1E+10	1	-1E+10	1	-1E+10	1	-1E+10	1	-1E+10	1
4902551	55	C	02/16/2022	15:54	-132.618	49.516	0	38.10	0	7.3860	0	32.3360	0	25.269	0	37.772	0	281.3	4	94.8	4	-1E+10	1	-1E+10	1	-1E+10	1	-1E+10	1	-1E+10	1	-1E+10	1
4902551	55	C	02/16/2022	15:54	-132.618	49.516	0	38.80	0	7.3880	0	32.3350	0	25.268	0	38.465	0	281.3	4	94.9	4	-1E+10	1	-1E+10	1	-1E+10	1	-1E+10	1	-1E+10	1	-1E+10	1
4902551	55	C	02/16/2022	15:54	-132.618	49.516	0	39.90	0	7.3880	0	32.3340	0	25.267	0	39.556	0	281.3	4	94.8	4	-1E+10	1	-1E+10	1	-1E+10	1	-1E+10	1	-1E+10	1	-1E+10	1
4902551	55	C	02/16/2022	15:54	-132.618	49.516	0	41.00	0	7.3870	0	32.3350	0	25.268	0	40.646	0	281.2	4	94.8	4	-1E+10	1	-1E+10	1	-1E+10	1	-1E+10	1	-1E+10	1	-1E+10	1
4902551	55	C	02/16/2022	15:54	-132.618	49.516	0	42.00	0	7.3880	0	32.3350	0	25.268	0	41.638	0	281.2	4	94.8	4	-1E+10	1	-1E+10	1	-1E+10	1	-1E+10	1	-1E+10	1	-1E+10	1
4902551	55	C	02/16/2022	15:54	-132.618	49.516	0	43.00	0	7.3870	0	32.3350	0	25.268	0	42.629	0	281.1	4	94.8	4	-1E+10	1	-1E+10	1	-1E+10	1	-1E+10	1	-1E+10	1	-1E+10	1
4902551	55	C	02/16/2022	15:54	-132.618	49.516	0	44.10	0	7.3820	0	32.3340	0	25.268	0	43.719	0	281.1	4	94.7	4	-1E+10	1	-1E+10	1	-1E+10	1	-1E+10	1	-1E+10	1	-1E+10	1
4902551	55	C	02/16/2022	15:54	-132.618	49.516	0	44.80	0	7.3790	0	32.3360	0	25.270	0	44.413	0	281.0	4	94.7	4	-1E+10	1	-1E+10	1	-1E+10	1	-1E+10	1	-1E+10	1	-1E+10	1
4902551	55	C	02/16/2022	15:54	-132.618	49.516	0	45.90	0	7.3790	0	32.3360	0	25.270	0	45.503	0	281.0	4	94.7	4	-1E+10	1	-1E+10	1	-1E+10	1	-1E+10	1	-1E+10	1	-1E+10	1
4902551	55	C	02/16/2022	15:54	-132.618	49.516	0	47.10	0	7.3810	0	32.3360	0	25.270	0	46.693	0	281.0	4	94.7	4	-1E+10	1	-1E+10	1	-1E+10	1	-1E+10	1	-1E+10	1	-1E+10	1
4902551	55	C	02/16/2022	15:54	-132.618	49.516	0	48.00	0	7.3810	0	32.3350	0	25.269	0	47.585	0	281.0	4	94.7	4	-1E+10	1	-1E+10	1	-1E+10	1	-1E+10	1	-1E+10	1	-1E+10	1
4902551	55	C	02/16/2022	15:54	-132.618	49.516	0	49.30	0	7.3810	0	32.3350	0	25.269	0	48.874	0	280.9	4	94.7	4	-1E+10	1	-1E+10	1	-1E+10	1	-1E+10	1	-1E+10	1	-1E+10	1
4902551	55	C	02/16/2022	15:54	-132.618	49.516	0	50.00	0	7.3820	0	32.3350	0	25.269	0	49.568	0	280.8	4	94.7	4	-1E+10	1	-1E+10	1	-1E+10	1	-1E+10	1	-1E+10	1	-1E+10	1
4902551	55	C	02/16/2022	15:54	-132.618	49.516	0	50.90	0	7.3820	0	32.3350	0	25.269	0	50.460	0	280.8	4	94.6	4	-1E+10	1	-1E+10	1	-1E+10	1	-1E+10	1	-1E+10	1	-1E+10	1
4902551	55	C	02/16/2022	15:54	-132.618	49.516	0	51.80	0	7.3820	0	32.3350	0	25.269	0	51.352	0	280.7	4	94.6	4	-1E+10	1	-1E+10	1	-1E+10	1	-1E+10	1	-1E+10	1	-1E+10	1
4902551	55	C	02/16/2022	15:54	-132.618	49.516	0	52.80	0	7.3840	0	32.3350	0	25.269	0	52.343	0	280.7	4	94.6	4	-1E+10	1	-1E+10	1	-1E+10	1	-1E+10	1	-1E+10	1	-1E+10	1
4902551	55	C	02/16/2022	15:54	-132.618	49.516	0	54.10	0	7.3840	0	32.3350	0	25.269	0	53.632	0	280.5	4	94.6	4	-1E+10	1	-1E+10	1	-1E+10	1	-1E+10	1	-1E+10	1	-1E+10	1
4902551	55	C	02/16/2022	15:54	-132.618	49.516	0	55.30	0	7.3840	0	32.3350	0	25.269	0	54.821	0	280.4	4	94.5	4	-1E+10	1	-1E+10	1	-1E+10	1	-1E+10	1	-1E+10	1	-1E+10	1
4902551	55	C	02/16/2022	15:54	-132.618	49.516	0	56.20	0	7.3840	0	32.3350	0	25.269	0	55.713	0	280.3	4	94.5	4	-1E+10	1	-1E+10	1	-1E+10	1	-1E+10	1	-1E+10	1	-1E+10	1
4902551	55	C	02/16/2022	15:54	-132.618	49.516	0	56.80	0	7.3830	0	32.3350	0	25.269	0	56.308	0	280.3	4	94.5	4	-1E+10	1	-1E+10	1	-1E+10	1	-1E+10	1	-1E+10	1	-1E+10	1
4902551	55	C	02/16/2022	15:54	-132.618	49.516	0	57.90	0	7.3820	0	32.3350	0	25.269	0	57.398	0	280.1	4	94.4	4	-1E+10	1	-1E+10	1	-1E+10	1	-1E+10	1	-1E+10	1	-1E+10	1
4902551	55	C	02/16/2022	15:54	-132.618	49.516	0	59.20	0	7.3800	0	32.3340	0	25.269	0	58.687	0	280.0	4	94.4	4	-1E+10	1	-1E+10	1	-1E+10	1	-1E+10	1	-1E+10	1	-1E+10	1
4902551	55	C	02/16/2022	15:54	-132.618	49.516	0	59.80	0	7.3720	0	32.3350	0	25.271	0	59.281	0	279.9	4	94.3	4	-1E+10	1	-1E+10	1	-1E+10	1	-1E+10	1	-1E+10	1	-1E+10	1
4902551	55	C	02/16/2022	15:54	-132.618	49.516	0	61.10	0	7.3210	0	32.3390	0	25.281	0	60.570	0	280.0	4	94.3	4	-1E+10	1	-1E+10	1	-1E+10	1	-1E+10	1	-1E+10	1	-1E+10	1
4902551	55	C	02/16/2022	15:54	-132.618	49.516	0	62.30	0	7.3300	0	32.3320	0	25.274	0	61.759	0	280.0	4	94.3	4	-1E+10	1	-1E+10	1	-1E+10	1	-1E+10	1	-1E+10	1	-1E+10	1
4902551	55	C	02/16/2022	15:54	-132.618	49.516	0	63.20	0	7.2920	0	32.3330	0	25.280	0	62.651	0	280.0	4	94.2	4	-1E+10	1	-1E+10	1	-1E+10	1	-1E+10	1	-1E+10	1	-1E+10	1
4902551	55	C	02/16/2022	15:54	-132.618	49.516	0	64.10	0	7.2870	0	32.3320	0	25.280	0	63.543	0	280.0	4	94.2	4	-1E+10	1	-1E+10	1	-1E+10	1	-1E+10	1	-1E+10	1	-1E+10	1
4902551	55	C	02/16/2022	15:54	-132.618	49.516	0	64.90	0	7.2860	0	32.3320	0	25.280	0	64.336	0	280.0	4	94.2	4	-1E+10	1	-1E+10	1	-1E+10	1	-1E+10	1	-1E+10	1	-1E+10	1
4902551	55	C	02/16/2022	15:54	-132.618	49.516	0	66.20	0	7.2830	0	32.3320	0	25.281	0	65.625	0	279.9	4	94.1	4	-1E+10	1	-1E+10	1	-1E+10	1	-1E+10	1	-1E+10	1	-1E+10	1
4902551	55	C	02/16/2022	15:54	-132.618	49.516	0	67.00	0	7.2810	0	32.3320	0	25.281	0	66.418	0	279.8	4	94.1	4	-1E+10	1	-1E+10	1	-1E+10	1	-1E+10	1	-1E+10	1	-1E+10	1
4902551	55	C	02/16/2022	15:54	-132.618	49.516	0	68.20	0	7.2760	0	32.3310	0	25.281	0	67.607	0	279.6	4	94.0	4	-1E+10	1	-1E+10	1	-1E+10	1	-1E+10	1	-1E+10	1	-1E+10	1
4902551	55	C	02/16/2022	15:54	-132.618	49.516	0	68.90	0	7.2490	0	32.3310	0	25.284	0	68.301	0	279.7	4	94.0	4	-1E+10	1	-1E+10	1	-1E+10	1	-1E+10	1	-1E+10	1	-1E+10	1
4902551	55	C	02/16/2022	15:54	-132.618	49.516	0	70.10	0	7.2240	0	32.3290	0	25.286	0	69.490	0	279.6	4	93.9	4	-1E+10	1	-1E+10	1	-1E+10	1	-1E+10	1	-1E+10	1	-1E+10	1
4902551	55	C	02/16/2022	15:54	-132.618	49.516	0	70.80	0	7.2020	0	32.3300	0	25.290	0	70.184	0	279.6	4	93.8	4	-1E+10	1	-1E+10	1	-1E+10	1	-1E+10	1	-1E+10	1	-1E+10	1
4902551	55	C	02/16/2022	15:54	-132.618	49.516	0	71.90	0	7.1610	0	32.3280	0	25.294	0	71.274	0	279.5	4	93.7	4	-1E+10	1	-1E+10	1	-1E+10	1	-1E+10	1	-1E+10	1	-1E+10	1
4902551	55	C	02/16/2022	15:54	-132.618	49.516	0	73.00	0	7.1490	0	32.3270	0	25.295	0	72.365	0	279.3	4	93.6	4	-1E+10	1	-1E+10	1	-1E+10	1	-1E+10	1	-1E+10	1	-1E+10	1
4902551	55	C	02/16/2022	15:54	-132.618	49.516	0	74.10	0	7.1370	0	32.3260	0	25.296	0	73.455	0	279.0	4	93.5	4	-1E+10	1	-1E+10	1	-1E+10	1	-1E+10	1	-1E+10	1	-1E+10	1
4902551	55	C	02/16/2022	15:54	-132.618	49.516	0	74.80	0	7.1160	0	32.3260	0	25.299	0	74.149	0	278.7	4	93.4	4	-1E+10	1	-1E+10	1	-1E+10	1	-1E+10	1	-1E+10	1	-1E+10	1
4902551	55	C	02/16/2022	15:54	-132.618	49.516	0	75.80	0	7.0960	0	32.3230	0	25.299	0	75.140	0	278.2	4	93.2	4	-1E+10	1	-1E+10	1	-1E+10	1	-1E+10	1	-1E+10	1	-1E+10	1
4902551	55	C	02/16/2022	15:54	-132.618	49.516	0	77.00	0	7.0640	0	32.3220	0	25.302	0	76.329	0	277.6	4	92.9	4	-1E+10	1	-1E+10	1	-1E+10	1	-1E+10	1	-1E+10	1	-1E+10	1
4902551	55	C	02/16/2022	15:54	-132.618	49.516	0	78.20	0	7.0360	0	32.3230	0	25.307	0	77.518	0	276.9	4	92.6	4	-1E+10	1	-1E+10	1	-1E+10	1	-1E+10	1	-1E+10	1	-1E+10	1
4902551	55	C	02/16/2022	15:54	-132.618	49.516	0	78.80	0	7.0450	0	32.3260	0	25.308	0	78.113	0	276.5	4	92.5	4	-1E+10	1	-1E+10	1	-1E+10	1	-1E+10	1	-1E+10	1	-1E+10	1
4902551	55	C	02/16/2022	15:54	-132.618	49.516	0	79.70	0	7.0480	0	32.3300	0	25.311	0	79.005	0	276.0	4	92.3	4	-1E+10	1	-1E+10	1	-1E+10	1	-1E+10	1	-1E+10	1	-1E+10	1
4902551	55	C	02/16/2022	15:54	-132.618	49.516	0	80.70	0	7.1120	0	32.3370	0	25.308	0	79.996	0	275.7	4	92.4	4	-1E+10	1	-1E+10	1	-1E+10	1	-1E+10	1	-1E+10	1	-1E+10	1
4902551	55	C	02/16/2022	15:54	-132.618	49.516	0	81.70	0	7.0550	0	32.3430	0	25.320	0	80.987	0	275.6	4	92.2	4	-1E+10	1	-1E+10	1	-1E+10	1	-1E+10	1	-1E+10	1	-1E+10	1
4902551	55	C	02/16/2022	15:54	-132.618	49.516	0	82.70	0	6.9890	0	32.3340	0	25.322	0	81.978	0	282.4	4	94.3	4	-1E+10	1	-1E+10	1	-1E+10	1	-1E+10	1	-1E+10	1	-1E+10	1
4902551	55	C	02/16/2022	15:54	-132.618	49.516	0	83.80	0	6.9870	0	32.3350	0	25.323	0	83.068	0	281.9	4	94.2	4	-1E+10	1	-1E+10	1	-1E+10	1	-1E+10	1	-1E+10	1	-1E+10	1
4902551	55	C	02/16/2022	15:54	-132.618	49.516	0	84.80	0	6.9880	0	32.3340	0	25.322	0	84.059	0	281.3	4	94.0	4	-1E+10	1	-1E+10	1	-1E+10	1	-1E+10	1	-1E+10	1	-1E+10	1
4902551	55	C	02/16/2022	15:54	-132.618	49.516	0	85.90	0	6.9690	0	32.3330	0	25.324	0	85.150	0	280.6	4	93.7	4	-1E+10	1	-1E+10	1	-1E+10	1	-1E+10	1	-1E+10	1	-1E+10	1
4902551	55	C	02/16/2022	15:54	-132.618	49.516	0	87.00	0	6.9620	0	32.3340	0	25.325	0	86.240	0	279.7	4	93.4	4	-1E+10	1	-1E+10	1	-1E+10	1	-1E+10	1	-1E+10	1	-1E+10	1
4902551	55	C	02/16/2022	15:54	-132.618	49.516	0	88.10	0	6.9690	0	32.3340	0	25.325	0	87.330	0	278.8	4	93.1	4	-1E+10	1	-1E+10	1	-1E+10	1	-1E+10	1	-1E+10	1	-1E+10	1
4902551	55	C	02/16/2022	15:54	-132.618	49.516	0	88.90	0	6.9770	0	32.3380	0	25.327	0	88.123	0	277.7	4	92.8	4	-1E+10	1	-1E+10	1	-1E+10	1	-1E+10	1	-1E+10	1	-1E+10	1
4902551	55	C	02/16/2022	15:54	-132.618	49.516	0	89.70	0	6.9830	0	32.3480	0	25.334	0	88.916	0	276.5	4	92.4	4	-1E+10	1	-1E+10	1	-1E+10	1	-1E+10	1	-1E+10	1	-1E+10	1
4902551	55	C	02/16/2022	15:54	-132.618	49.516	0	90.90	0	6.9950	0	32.3550	0	25.338	0	90.105	0	274.8	4	91.8	4	-1E+10	1	-1E+10	1	-1E+10	1	-1E+10	1	-1E+10	1	-1E+10	1
4902551	55	C	02/16/2022	15:54	-132.618	49.516	0	91.80	0	7.0040	0	32.3640	0	25.344	0	90.997	0	273.4	4	91.4	4	-1E+10	1	-1E+10	1	-1E+10	1	-1E+10	1	-1E+10	1	-1E+10	1
4902551	55	C	02/16/2022	15:54	-132.618	49.516	0	92.70	0	7.0230	0	32.3810	0	25.354	0	91.889	0	272.0	4	91.0	4	-1E+10	1	-1E+10	1	-1E+10	1	-1E+10	1	-1E+10	1	-1E+10	1
4902551	55	C	02/16/2022	15:54	-132.618	49.516	0	93.80	0	7.0230	0	32.3880	0	25.360	0	92.979	0	270.4	4	90.5	4	-1E+10	1	-1E+10	1	-1E+10	1	-1E+10	1	-1E+10	1	-1E+10	1
4902551	55	C	02/16/2022	15:54	-132.618	49.516	0	95.00	0	7.0240	0	32.3940	0	25.365	0	94.168	0	268.5	4	89.8	4	-1E+10	1	-1E+10	1	-1E+10	1	-1E+10	1	-1E+10	1	-1E+10	1
4902551	55	C	02/16/2022	15:54	-132.618	49.516	0	96.10	0	7.0340	0	32.4100	0	25.376	0	95.258	0	266.7	4	89.2	4	-1E+10	1	-1E+10	1	-1E+10	1	-1E+10	1	-1E+10	1	-1E+10	1
4902551	55	C	02/16/2022	15:54	-132.618	49.516	0	97.00	0	7.0380	0	32.4200	0	25.383	0	96.150	0	265.4	4	88.8	4	-1E+10	1	-1E+10	1	-1E+10	1	-1E+10	1	-1E+10	1	-1E+10	1
4902551	55	C	02/16/2022	15:54	-132.618	49.516	0	97.90	0	7.0370	0	32.4250	0	25.387	0	97.042	0	264.2	4	88.4	4	-1E+10	1	-1E+10	1	-1E+10	1	-1E+10	1	-1E+10	1	-1E+10	1
4902551	55	C	02/16/2022	15:54	-132.618	49.516	0	99.00	0	7.0430	0	32.4440	0	25.401	0	98.132	0	262.8	4	88.0	4	-1E+10	1	-1E+10	1	-1E+10	1	-1E+10	1	-1E+10	1	-1E+10	1
4902551	55	C	02/16/2022	15:54	-132.618	49.516	0	100.00	0	7.0500	0	32.4670	0	25.419	0	99.123	0	261.7	4	87.6	4	-1E+10	1	-1E+10	1	-1E+10	1	-1E+10	1	-1E+10	1	-1E+10	1
4902551	55	C	02/16/2022	15:54	-132.618	49.516	0	101.10	0	7.0410	0	32.4870	0	25.436	0	100.213	0	260.2	4	87.1	4	-1E+10	1	-1E+10	1	-1E+10	1	-1E+10	1	-1E+10	1	-1E+10	1
4902551	55	C	02/16/2022	15:54	-132.618	49.516	0	102.20	0	7.0060	0	32.5050	0	25.454	0	101.303	0	258.8	4	86.6	4	-1E+10	1	-1E+10	1	-1E+10	1	-1E+10	1	-1E+10	1	-1E+10	1
4902551	55	C	02/16/2022	15:54	-132.618	49.516	0	103.10	0	7.0100	0	32.5170	0	25.463	0	102.195	0	256.7	4	85.9	4	-1E+10	1	-1E+10	1	-1E+10	1	-1E+10	1	-1E+10	1	-1E+10	1
4902551	55	C	02/16/2022	15:54	-132.618	49.516	0	104.10	0	6.9750	0	32.5490	0	25.493	0	103.186	0	252.3	4	84.4	4	-1E+10	1	-1E+10	1	-1E+10	1	-1E+10	1	-1E+10	1	-1E+10	1
4902551	55	C	02/16/2022	15:54	-132.618	49.516	0	105.10	0	6.9260	0	32.5670	0	25.514	0	104.177	0	249.0	4	83.2	4	-1E+10	1	-1E+10	1	-1E+10	1	-1E+10	1	-1E+10	1	-1E+10	1
4902551	55	C	02/16/2022	15:54	-132.618	49.516	0	105.90	0	6.9170	0	32.5680	0	25.516	0	104.970	0	245.6	4	82.1	4	-1E+10	1	-1E+10	1	-1E+10	1	-1E+10	1	-1E+10	1	-1E+10	1
4902551	55	C	02/16/2022	15:54	-132.618	49.516	0	107.10	0	6.8740	0	32.6230	0	25.565	0	106.159	0	241.3	4	80.6	4	-1E+10	1	-1E+10	1	-1E+10	1	-1E+10	1	-1E+10	1	-1E+10	1
4902551	55	C	02/16/2022	15:54	-132.618	49.516	0	108.10	0	6.8470	0	32.6660	0	25.602	0	107.150	0	237.7	4	79.4	4	-1E+10	1	-1E+10	1	-1E+10	1	-1E+10	1	-1E+10	1	-1E+10	1
4902551	55	C	02/16/2022	15:54	-132.618	49.516	0	108.90	0	6.7920	0	32.6830	0	25.623	0	107.943	0	235.1	4	78.4	4	-1E+10	1	-1E+10	1	-1E+10	1	-1E+10	1	-1E+10	1	-1E+10	1
4902551	55	C	02/16/2022	15:54	-132.618	49.516	0	110.00	0	6.7380	0	32.7310	0	25.668	0	109.033	0	232.3	4	77.4	4	-1E+10	1	-1E+10	1	-1E+10	1	-1E+10	1	-1E+10	1	-1E+10	1
4902551	55	C	02/16/2022	15:54	-132.618	49.516	0	111.20	0	6.6480	0	32.7730	0	25.713	0	110.222	0	229.7	4	76.4	4	-1E+10	1	-1E+10	1	-1E+10	1	-1E+10	1	-1E+10	1	-1E+10	1
4902551	55	C	02/16/2022	15:54	-132.618	49.516	0	112.10	0	6.6000	0	32.7930	0	25.735	0	111.114	0	227.9	4	75.7	4	-1E+10	1	-1E+10	1	-1E+10	1	-1E+10	1	-1E+10	1	-1E+10	1
4902551	55	C	02/16/2022	15:54	-132.618	49.516	0	113.00	0	6.5450	0	32.8060	0	25.752	0	112.006	0	226.1	4	75.0	4	-1E+10	1	-1E+10	1	-1E+10	1	-1E+10	1	-1E+10	1	-1E+10	1
4902551	55	C	02/16/2022	15:54	-132.618	49.516	0	113.90	0	6.4710	0	32.8170	0	25.770	0	112.897	0	224.6	4	74.4	4	-1E+10	1	-1E+10	1	-1E+10	1	-1E+10	1	-1E+10	1	-1E+10	1
4902551	55	C	02/16/2022	15:54	-132.618	49.516	0	114.90	0	6.3620	0	32.8420	0	25.804	0	113.888	0	223.1	4	73.7	4	-1E+10	1	-1E+10	1	-1E+10	1	-1E+10	1	-1E+10	1	-1E+10	1
4902551	55	C	02/16/2022	15:54	-132.618	49.516	0	115.80	0	6.3030	0	32.8550	0	25.822	0	114.780	0	221.3	4	73.1	4	-1E+10	1	-1E+10	1	-1E+10	1	-1E+10	1	-1E+10	1	-1E+10	1
4902551	55	C	02/16/2022	15:54	-132.618	49.516	0	116.80	0	6.3000	0	32.8560	0	25.823	0	115.771	0	219.1	4	72.3	4	-1E+10	1	-1E+10	1	-1E+10	1	-1E+10	1	-1E+10	1	-1E+10	1
4902551	55	C	02/16/2022	15:54	-132.618	49.516	0	117.80	0	6.2950	0	32.8570	0	25.824	0	116.762	0	216.5	4	71.5	4	-1E+10	1	-1E+10	1	-1E+10	1	-1E+10	1	-1E+10	1	-1E+10	1
4902551	55	C	02/16/2022	15:54	-132.618	49.516	0	119.00	0	6.2700	0	32.8700	0	25.838	0	117.951	0	213.0	4	70.3	4	-1E+10	1	-1E+10	1	-1E+10	1	-1E+10	1	-1E+10	1	-1E+10	1
4902551	55	C	02/16/2022	15:54	-132.618	49.516	0	120.10	0	6.1720	0	32.9350	0	25.901	0	119.041	0	211.0	4	69.5	4	-1E+10	1	-1E+10	1	-1E+10	1	-1E+10	1	-1E+10	1	-1E+10	1
4902551	55	C	02/16/2022	15:54	-132.618	49.516	0	120.80	0	6.1590	0	32.9800	0	25.938	0	119.735	0	209.7	4	69.1	4	-1E+10	1	-1E+10	1	-1E+10	1	-1E+10	1	-1E+10	1	-1E+10	1
4902551	55	C	02/16/2022	15:54	-132.618	49.516	0	121.90	0	6.1600	0	33.0130	0	25.964	0	120.825	0	208.0	4	68.5	4	-1E+10	1	-1E+10	1	-1E+10	1	-1E+10	1	-1E+10	1	-1E+10	1
4902551	55	C	02/16/2022	15:54	-132.618	49.516	0	122.90	0	6.1610	0	33.0240	0	25.973	0	121.816	0	206.3	4	68.0	4	-1E+10	1	-1E+10	1	-1E+10	1	-1E+10	1	-1E+10	1	-1E+10	1
4902551	55	C	02/16/2022	15:54	-132.618	49.516	0	123.80	0	6.1620	0	33.0260	0	25.974	0	122.707	0	204.7	4	67.4	4	-1E+10	1	-1E+10	1	-1E+10	1	-1E+10	1	-1E+10	1	-1E+10	1
4902551	55	C	02/16/2022	15:54	-132.618	49.516	0	124.80	0	6.1640	0	33.0390	0	25.984	0	123.698	0	202.3	4	66.7	4	-1E+10	1	-1E+10	1	-1E+10	1	-1E+10	1	-1E+10	1	-1E+10	1
4902551	55	C	02/16/2022	15:54	-132.618	49.516	0	126.00	0	6.1660	0	33.0570	0	25.998	0	124.887	0	199.8	4	65.9	4	-1E+10	1	-1E+10	1	-1E+10	1	-1E+10	1	-1E+10	1	-1E+10	1
4902551	55	C	02/16/2022	15:54	-132.618	49.516	0	127.00	0	6.1900	0	33.1110	0	26.038	0	125.878	0	197.9	4	65.3	4	-1E+10	1	-1E+10	1	-1E+10	1	-1E+10	1	-1E+10	1	-1E+10	1
4902551	55	C	02/16/2022	15:54	-132.618	49.516	0	128.20	0	6.1740	0	33.1530	0	26.073	0	127.067	0	196.0	4	64.7	4	-1E+10	1	-1E+10	1	-1E+10	1	-1E+10	1	-1E+10	1	-1E+10	1
4902551	55	C	02/16/2022	15:54	-132.618	49.516	0	129.00	0	6.1540	0	33.1620	0	26.083	0	127.860	0	195.0	4	64.3	4	-1E+10	1	-1E+10	1	-1E+10	1	-1E+10	1	-1E+10	1	-1E+10	1
4902551	55	C	02/16/2022	15:54	-132.618	49.516	0	129.70	0	6.1520	0	33.1640	0	26.085	0	128.553	0	193.8	4	63.9	4	-1E+10	1	-1E+10	1	-1E+10	1	-1E+10	1	-1E+10	1	-1E+10	1
4902551	55	C	02/16/2022	15:54	-132.618	49.516	0	130.80	0	6.1510	0	33.1720	0	26.091	0	129.643	0	191.7	4	63.2	4	-1E+10	1	-1E+10	1	-1E+10	1	-1E+10	1	-1E+10	1	-1E+10	1
4902551	55	C	02/16/2022	15:54	-132.618	49.516	0	132.00	0	6.1350	0	33.1990	0	26.114	0	130.832	0	189.8	4	62.6	4	-1E+10	1	-1E+10	1	-1E+10	1	-1E+10	1	-1E+10	1	-1E+10	1
4902551	55	C	02/16/2022	15:54	-132.618	49.516	0	133.00	0	6.1350	0	33.2400	0	26.147	0	131.823	0	188.3	4	62.1	4	-1E+10	1	-1E+10	1	-1E+10	1	-1E+10	1	-1E+10	1	-1E+10	1
4902551	55	C	02/16/2022	15:54	-132.618	49.516	0	134.10	0	6.1490	0	33.2660	0	26.166	0	132.913	0	187.0	4	61.7	4	-1E+10	1	-1E+10	1	-1E+10	1	-1E+10	1	-1E+10	1	-1E+10	1
4902551	55	C	02/16/2022	15:54	-132.618	49.516	0	134.80	0	6.1560	0	33.2710	0	26.169	0	133.607	0	186.3	4	61.5	4	-1E+10	1	-1E+10	1	-1E+10	1	-1E+10	1	-1E+10	1	-1E+10	1
4902551	55	C	02/16/2022	15:54	-132.618	49.516	0	136.00	0	6.1980	0	33.3280	0	26.208	0	134.796	0	185.3	4	61.2	4	-1E+10	1	-1E+10	1	-1E+10	1	-1E+10	1	-1E+10	1	-1E+10	1
4902551	55	C	02/16/2022	15:54	-132.618	49.516	0	137.10	0	6.2230	0	33.3450	0	26.219	0	135.886	0	184.5	4	61.0	4	-1E+10	1	-1E+10	1	-1E+10	1	-1E+10	1	-1E+10	1	-1E+10	1
4902551	55	C	02/16/2022	15:54	-132.618	49.516	0	138.00	0	6.2360	0	33.3500	0	26.221	0	136.777	0	184.0	4	60.9	4	-1E+10	1	-1E+10	1	-1E+10	1	-1E+10	1	-1E+10	1	-1E+10	1
4902551	55	C	02/16/2022	15:54	-132.618	49.516	0	138.80	0	6.2640	0	33.3720	0	26.235	0	137.570	0	183.4	4	60.7	4	-1E+10	1	-1E+10	1	-1E+10	1	-1E+10	1	-1E+10	1	-1E+10	1
4902551	55	C	02/16/2022	15:54	-132.618	49.516	0	139.70	0	6.2900	0	33.3860	0	26.243	0	138.462	0	182.9	4	60.6	4	-1E+10	1	-1E+10	1	-1E+10	1	-1E+10	1	-1E+10	1	-1E+10	1
4902551	55	C	02/16/2022	15:54	-132.618	49.516	0	140.90	0	6.3480	0	33.4090	0	26.253	0	139.651	0	182.1	4	60.4	4	-1E+10	1	-1E+10	1	-1E+10	1	-1E+10	1	-1E+10	1	-1E+10	1
4902551	55	C	02/16/2022	15:54	-132.618	49.516	0	142.30	0	6.3720	0	33.4220	0	26.261	0	141.038	0	181.2	4	60.2	4	-1E+10	1	-1E+10	1	-1E+10	1	-1E+10	1	-1E+10	1	-1E+10	1
4902551	55	C	02/16/2022	15:54	-132.618	49.516	0	143.10	0	6.3910	0	33.4320	0	26.266	0	141.830	0	180.5	4	60.0	4	-1E+10	1	-1E+10	1	-1E+10	1	-1E+10	1	-1E+10	1	-1E+10	1
4902551	55	C	02/16/2022	15:54	-132.618	49.516	0	144.00	0	6.4350	0	33.4470	0	26.272	0	142.722	0	179.6	4	59.7	4	-1E+10	1	-1E+10	1	-1E+10	1	-1E+10	1	-1E+10	1	-1E+10	1
4902551	55	C	02/16/2022	15:54	-132.618	49.516	0	144.90	0	6.4780	0	33.4670	0	26.282	0	143.614	0	178.5	4	59.4	4	-1E+10	1	-1E+10	1	-1E+10	1	-1E+10	1	-1E+10	1	-1E+10	1
4902551	55	C	02/16/2022	15:54	-132.618	49.516	0	145.80	0	6.5200	0	33.4920	0	26.297	0	144.505	0	177.5	4	59.2	4	-1E+10	1	-1E+10	1	-1E+10	1	-1E+10	1	-1E+10	1	-1E+10	1
4902551	55	C	02/16/2022	15:54	-132.618	49.516	0	146.60	0	6.5260	0	33.5010	0	26.303	0	145.298	0	176.4	4	58.8	4	-1E+10	1	-1E+10	1	-1E+10	1	-1E+10	1	-1E+10	1	-1E+10	1
4902551	55	C	02/16/2022	15:54	-132.618	49.516	0	147.90	0	6.5550	0	33.5260	0	26.319	0	146.586	0	174.6	4	58.3	4	-1E+10	1	-1E+10	1	-1E+10	1	-1E+10	1	-1E+10	1	-1E+10	1
4902551	55	C	02/16/2022	15:54	-132.618	49.516	0	149.20	0	6.5650	0	33.5500	0	26.337	0	147.874	0	172.8	4	57.7	4	-1E+10	1	-1E+10	1	-1E+10	1	-1E+10	1	-1E+10	1	-1E+10	1
4902551	55	C	02/16/2022	15:54	-132.618	49.516	0	150.10	0	6.5570	0	33.5730	0	26.356	0	148.766	0	171.8	4	57.4	4	-1E+10	1	-1E+10	1	-1E+10	1	-1E+10	1	-1E+10	1	-1E+10	1
4902551	55	C	02/16/2022	15:54	-132.618	49.516	0	150.70	0	6.5440	0	33.5870	0	26.369	0	149.360	0	171.1	4	57.1	4	-1E+10	1	-1E+10	1	-1E+10	1	-1E+10	1	-1E+10	1	-1E+10	1
4902551	55	C	02/16/2022	15:54	-132.618	49.516	0	152.00	0	6.5230	0	33.6000	0	26.382	0	150.648	0	169.5	4	56.6	4	-1E+10	1	-1E+10	1	-1E+10	1	-1E+10	1	-1E+10	1	-1E+10	1
4902551	55	C	02/16/2022	15:54	-132.618	49.516	0	153.10	0	6.5020	0	33.6130	0	26.395	0	151.738	0	168.5	4	56.2	4	-1E+10	1	-1E+10	1	-1E+10	1	-1E+10	1	-1E+10	1	-1E+10	1
4902551	55	C	02/16/2022	15:54	-132.618	49.516	0	154.00	0	6.4870	0	33.6160	0	26.399	0	152.630	0	167.5	4	55.8	4	-1E+10	1	-1E+10	1	-1E+10	1	-1E+10	1	-1E+10	1	-1E+10	1
4902551	55	C	02/16/2022	15:54	-132.618	49.516	0	155.20	0	6.4650	0	33.6250	0	26.409	0	153.818	0	166.5	4	55.5	4	-1E+10	1	-1E+10	1	-1E+10	1	-1E+10	1	-1E+10	1	-1E+10	1
4902551	55	C	02/16/2022	15:54	-132.618	49.516	0	155.90	0	6.4660	0	33.6400	0	26.421	0	154.512	0	165.8	4	55.3	4	-1E+10	1	-1E+10	1	-1E+10	1	-1E+10	1	-1E+10	1	-1E+10	1
4902551	55	C	02/16/2022	15:54	-132.618	49.516	0	157.00	0	6.4570	0	33.6420	0	26.423	0	155.602	0	164.7	4	54.9	4	-1E+10	1	-1E+10	1	-1E+10	1	-1E+10	1	-1E+10	1	-1E+10	1
4902551	55	C	02/16/2022	15:54	-132.618	49.516	0	158.10	0	6.4470	0	33.6460	0	26.428	0	156.692	0	163.4	4	54.4	4	-1E+10	1	-1E+10	1	-1E+10	1	-1E+10	1	-1E+10	1	-1E+10	1
4902551	55	C	02/16/2022	15:54	-132.618	49.516	0	158.90	0	6.4420	0	33.6510	0	26.432	0	157.484	0	162.7	4	54.2	4	-1E+10	1	-1E+10	1	-1E+10	1	-1E+10	1	-1E+10	1	-1E+10	1
4902551	55	C	02/16/2022	15:54	-132.618	49.516	0	160.00	0	6.4320	0	33.6570	0	26.438	0	158.574	0	161.3	4	53.7	4	-1E+10	1	-1E+10	1	-1E+10	1	-1E+10	1	-1E+10	1	-1E+10	1
4902551	55	C	02/16/2022	15:54	-132.618	49.516	0	161.20	0	6.4090	0	33.6610	0	26.445	0	159.763	0	159.9	4	53.2	4	-1E+10	1	-1E+10	1	-1E+10	1	-1E+10	1	-1E+10	1	-1E+10	1
4902551	55	C	02/16/2022	15:54	-132.618	49.516	0	162.00	0	6.4030	0	33.6590	0	26.444	0	160.555	0	159.0	4	52.9	4	-1E+10	1	-1E+10	1	-1E+10	1	-1E+10	1	-1E+10	1	-1E+10	1
4902551	55	C	02/16/2022	15:54	-132.618	49.516	0	162.80	0	6.4020	0	33.6590	0	26.444	0	161.348	0	157.9	4	52.6	4	-1E+10	1	-1E+10	1	-1E+10	1	-1E+10	1	-1E+10	1	-1E+10	1
4902551	55	C	02/16/2022	15:54	-132.618	49.516	0	163.90	0	6.3960	0	33.6580	0	26.444	0	162.438	0	156.1	4	51.9	4	-1E+10	1	-1E+10	1	-1E+10	1	-1E+10	1	-1E+10	1	-1E+10	1
4902551	55	C	02/16/2022	15:54	-132.618	49.516	0	165.10	0	6.3750	0	33.6610	0	26.449	0	163.626	0	154.0	4	51.2	4	-1E+10	1	-1E+10	1	-1E+10	1	-1E+10	1	-1E+10	1	-1E+10	1
4902551	55	C	02/16/2022	15:54	-132.618	49.516	0	165.90	0	6.3050	0	33.6700	0	26.465	0	164.419	0	152.8	4	50.7	4	-1E+10	1	-1E+10	1	-1E+10	1	-1E+10	1	-1E+10	1	-1E+10	1
4902551	55	C	02/16/2022	15:54	-132.618	49.516	0	167.00	0	6.2640	0	33.6740	0	26.474	0	165.509	0	151.3	4	50.2	4	-1E+10	1	-1E+10	1	-1E+10	1	-1E+10	1	-1E+10	1	-1E+10	1
4902551	55	C	02/16/2022	15:54	-132.618	49.516	0	168.20	0	6.2070	0	33.6780	0	26.484	0	166.697	0	150.1	4	49.8	4	-1E+10	1	-1E+10	1	-1E+10	1	-1E+10	1	-1E+10	1	-1E+10	1
4902551	55	C	02/16/2022	15:54	-132.618	49.516	0	169.10	0	6.2090	0	33.6890	0	26.492	0	167.589	0	149.3	4	49.5	4	-1E+10	1	-1E+10	1	-1E+10	1	-1E+10	1	-1E+10	1	-1E+10	1
4902551	55	C	02/16/2022	15:54	-132.618	49.516	0	169.90	0	6.1730	0	33.6990	0	26.505	0	168.382	0	148.6	4	49.2	4	-1E+10	1	-1E+10	1	-1E+10	1	-1E+10	1	-1E+10	1	-1E+10	1
4902551	55	C	02/16/2022	15:54	-132.618	49.516	0	170.80	0	6.1550	0	33.7060	0	26.513	0	169.273	0	147.8	4	48.9	4	-1E+10	1	-1E+10	1	-1E+10	1	-1E+10	1	-1E+10	1	-1E+10	1
4902551	55	C	02/16/2022	15:54	-132.618	49.516	0	171.60	0	6.1250	0	33.7100	0	26.520	0	170.066	0	147.1	4	48.7	4	-1E+10	1	-1E+10	1	-1E+10	1	-1E+10	1	-1E+10	1	-1E+10	1
4902551	55	C	02/16/2022	15:54	-132.618	49.516	0	172.90	0	6.0870	0	33.7220	0	26.534	0	171.354	0	146.3	4	48.4	4	-1E+10	1	-1E+10	1	-1E+10	1	-1E+10	1	-1E+10	1	-1E+10	1
4902551	55	C	02/16/2022	15:54	-132.618	49.516	0	174.20	0	6.0570	0	33.7230	0	26.538	0	172.641	0	145.5	4	48.1	4	-1E+10	1	-1E+10	1	-1E+10	1	-1E+10	1	-1E+10	1	-1E+10	1
4902551	55	C	02/16/2022	15:54	-132.618	49.516	0	175.10	0	6.0590	0	33.7230	0	26.538	0	173.533	0	145.0	4	47.9	4	-1E+10	1	-1E+10	1	-1E+10	1	-1E+10	1	-1E+10	1	-1E+10	1
4902551	55	C	02/16/2022	15:54	-132.618	49.516	0	175.90	0	6.0590	0	33.7260	0	26.541	0	174.325	0	144.3	4	47.7	4	-1E+10	1	-1E+10	1	-1E+10	1	-1E+10	1	-1E+10	1	-1E+10	1
4902551	55	C	02/16/2022	15:54	-132.618	49.516	0	176.80	0	6.0490	0	33.7270	0	26.543	0	175.217	0	143.6	4	47.4	4	-1E+10	1	-1E+10	1	-1E+10	1	-1E+10	1	-1E+10	1	-1E+10	1
4902551	55	C	02/16/2022	15:54	-132.618	49.516	0	177.60	0	6.0420	0	33.7280	0	26.544	0	176.010	0	142.9	4	47.2	4	-1E+10	1	-1E+10	1	-1E+10	1	-1E+10	1	-1E+10	1	-1E+10	1
4902551	55	C	02/16/2022	15:54	-132.618	49.516	0	178.90	0	6.0270	0	33.7300	0	26.548	0	177.297	0	141.9	4	46.9	4	-1E+10	1	-1E+10	1	-1E+10	1	-1E+10	1	-1E+10	1	-1E+10	1
4902551	55	C	02/16/2022	15:54	-132.618	49.516	0	180.10	0	6.0100	0	33.7300	0	26.550	0	178.486	0	140.8	4	46.5	4	-1E+10	1	-1E+10	1	-1E+10	1	-1E+10	1	-1E+10	1	-1E+10	1
4902551	55	C	02/16/2022	15:54	-132.618	49.516	0	180.90	0	5.9980	0	33.7350	0	26.555	0	179.279	0	139.8	4	46.1	4	-1E+10	1	-1E+10	1	-1E+10	1	-1E+10	1	-1E+10	1	-1E+10	1
4902551	55	C	02/16/2022	15:54	-132.618	49.516	0	181.70	0	5.9850	0	33.7340	0	26.556	0	180.071	0	138.9	4	45.8	4	-1E+10	1	-1E+10	1	-1E+10	1	-1E+10	1	-1E+10	1	-1E+10	1
4902551	55	C	02/16/2022	15:54	-132.618	49.516	0	182.90	0	5.9710	0	33.7390	0	26.562	0	181.260	0	137.3	4	45.3	4	-1E+10	1	-1E+10	1	-1E+10	1	-1E+10	1	-1E+10	1	-1E+10	1
4902551	55	C	02/16/2022	15:54	-132.618	49.516	0	184.20	0	5.9520	0	33.7410	0	26.566	0	182.547	0	135.7	4	44.7	4	-1E+10	1	-1E+10	1	-1E+10	1	-1E+10	1	-1E+10	1	-1E+10	1
4902551	55	C	02/16/2022	15:54	-132.618	49.516	0	185.00	0	5.9380	0	33.7420	0	26.568	0	183.340	0	134.6	4	44.4	4	-1E+10	1	-1E+10	1	-1E+10	1	-1E+10	1	-1E+10	1	-1E+10	1
4902551	55	C	02/16/2022	15:54	-132.618	49.516	0	185.90	0	5.9180	0	33.7450	0	26.573	0	184.231	0	133.6	4	44.0	4	-1E+10	1	-1E+10	1	-1E+10	1	-1E+10	1	-1E+10	1	-1E+10	1
4902551	55	C	02/16/2022	15:54	-132.618	49.516	0	186.70	0	5.8710	0	33.7520	0	26.585	0	185.024	0	132.8	4	43.7	4	-1E+10	1	-1E+10	1	-1E+10	1	-1E+10	1	-1E+10	1	-1E+10	1
4902551	55	C	02/16/2022	15:54	-132.618	49.516	0	187.70	0	5.8190	0	33.7560	0	26.594	0	186.015	0	132.4	4	43.5	4	-1E+10	1	-1E+10	1	-1E+10	1	-1E+10	1	-1E+10	1	-1E+10	1
4902551	55	C	02/16/2022	15:54	-132.618	49.516	0	188.90	0	5.7980	0	33.7570	0	26.598	0	187.203	0	131.6	4	43.2	4	-1E+10	1	-1E+10	1	-1E+10	1	-1E+10	1	-1E+10	1	-1E+10	1
4902551	55	C	02/16/2022	15:54	-132.618	49.516	0	190.30	0	5.7730	0	33.7620	0	26.605	0	188.590	0	130.8	4	42.9	4	-1E+10	1	-1E+10	1	-1E+10	1	-1E+10	1	-1E+10	1	-1E+10	1
4902551	55	C	02/16/2022	15:54	-132.618	49.516	0	191.20	0	5.7570	0	33.7660	0	26.610	0	189.481	0	130.3	4	42.7	4	-1E+10	1	-1E+10	1	-1E+10	1	-1E+10	1	-1E+10	1	-1E+10	1
4902551	55	C	02/16/2022	15:54	-132.618	49.516	0	192.10	0	5.7540	0	33.7650	0	26.609	0	190.373	0	129.6	4	42.5	4	-1E+10	1	-1E+10	1	-1E+10	1	-1E+10	1	-1E+10	1	-1E+10	1
4902551	55	C	02/16/2022	15:54	-132.618	49.516	0	193.00	0	5.7470	0	33.7670	0	26.612	0	191.264	0	129.0	4	42.3	4	-1E+10	1	-1E+10	1	-1E+10	1	-1E+10	1	-1E+10	1	-1E+10	1
4902551	55	C	02/16/2022	15:54	-132.618	49.516	0	193.90	0	5.7380	0	33.7670	0	26.613	0	192.156	0	128.3	4	42.1	4	-1E+10	1	-1E+10	1	-1E+10	1	-1E+10	1	-1E+10	1	-1E+10	1
4902551	55	C	02/16/2022	15:54	-132.618	49.516	0	194.70	0	5.7300	0	33.7680	0	26.615	0	192.948	0	127.7	4	41.9	4	-1E+10	1	-1E+10	1	-1E+10	1	-1E+10	1	-1E+10	1	-1E+10	1
4902551	55	C	02/16/2022	15:54	-132.618	49.516	0	195.70	0	5.6910	0	33.7750	0	26.625	0	193.939	0	127.3	4	41.7	4	-1E+10	1	-1E+10	1	-1E+10	1	-1E+10	1	-1E+10	1	-1E+10	1
4902551	55	C	02/16/2022	15:54	-132.618	49.516	0	196.60	0	5.6830	0	33.7740	0	26.625	0	194.830	0	126.9	4	41.6	4	-1E+10	1	-1E+10	1	-1E+10	1	-1E+10	1	-1E+10	1	-1E+10	1
4902551	55	C	02/16/2022	15:54	-132.618	49.516	0	197.90	0	5.6810	0	33.7720	0	26.624	0	196.118	0	126.3	4	41.4	4	-1E+10	1	-1E+10	1	-1E+10	1	-1E+10	1	-1E+10	1	-1E+10	1
4902551	55	C	02/16/2022	15:54	-132.618	49.516	0	199.30	0	5.6750	0	33.7740	0	26.626	0	197.505	0	125.6	4	41.1	4	-1E+10	1	-1E+10	1	-1E+10	1	-1E+10	1	-1E+10	1	-1E+10	1
4902551	55	C	02/16/2022	15:54	-132.618	49.516	0	200.20	0	5.6690	0	33.7750	0	26.628	0	198.396	0	125.1	4	41.0	4	-1E+10	1	-1E+10	1	-1E+10	1	-1E+10	1	-1E+10	1	-1E+10	1
4902551	55	C	02/16/2022	15:54	-132.618	49.516	0	201.10	0	5.6550	0	33.7770	0	26.631	0	199.288	0	124.6	4	40.8	4	-1E+10	1	-1E+10	1	-1E+10	1	-1E+10	1	-1E+10	1	-1E+10	1
4902551	55	C	02/16/2022	15:54	-132.618	49.516	0	202.00	0	5.6540	0	33.7760	0	26.630	0	200.179	0	124.1	4	40.6	4	-1E+10	1	-1E+10	1	-1E+10	1	-1E+10	1	-1E+10	1	-1E+10	1
4902551	55	C	02/16/2022	15:54	-132.618	49.516	0	202.90	0	5.6500	0	33.7770	0	26.632	0	201.071	0	123.5	4	40.4	4	-1E+10	1	-1E+10	1	-1E+10	1	-1E+10	1	-1E+10	1	-1E+10	1
4902551	55	C	02/16/2022	15:54	-132.618	49.516	0	203.80	0	5.6460	0	33.7770	0	26.632	0	201.962	0	122.9	4	40.2	4	-1E+10	1	-1E+10	1	-1E+10	1	-1E+10	1	-1E+10	1	-1E+10	1
4902551	55	C	02/16/2022	15:54	-132.618	49.516	0	204.70	0	5.6430	0	33.7770	0	26.632	0	202.854	0	122.2	4	40.0	4	-1E+10	1	-1E+10	1	-1E+10	1	-1E+10	1	-1E+10	1	-1E+10	1
4902551	55	C	02/16/2022	15:54	-132.618	49.516	0	205.60	0	5.6400	0	33.7780	0	26.634	0	203.745	0	121.4	4	39.7	4	-1E+10	1	-1E+10	1	-1E+10	1	-1E+10	1	-1E+10	1	-1E+10	1
4902551	55	C	02/16/2022	15:54	-132.618	49.516	0	206.90	0	5.6330	0	33.7790	0	26.635	0	205.033	0	120.1	4	39.3	4	-1E+10	1	-1E+10	1	-1E+10	1	-1E+10	1	-1E+10	1	-1E+10	1
4902551	55	C	02/16/2022	15:54	-132.618	49.516	0	208.30	0	5.6000	0	33.7860	0	26.645	0	206.419	0	118.8	4	38.8	4	-1E+10	1	-1E+10	1	-1E+10	1	-1E+10	1	-1E+10	1	-1E+10	1
4902551	55	C	02/16/2022	15:54	-132.618	49.516	0	209.30	0	5.5900	0	33.7870	0	26.647	0	207.410	0	117.9	4	38.6	4	-1E+10	1	-1E+10	1	-1E+10	1	-1E+10	1	-1E+10	1	-1E+10	1
4902551	55	C	02/16/2022	15:54	-132.618	49.516	0	210.20	0	5.5750	0	33.7850	0	26.647	0	208.301	0	117.3	4	38.3	4	-1E+10	1	-1E+10	1	-1E+10	1	-1E+10	1	-1E+10	1	-1E+10	1
4902551	55	C	02/16/2022	15:54	-132.618	49.516	0	211.10	0	5.5570	0	33.7850	0	26.649	0	209.193	0	116.7	4	38.1	4	-1E+10	1	-1E+10	1	-1E+10	1	-1E+10	1	-1E+10	1	-1E+10	1
4902551	55	C	02/16/2022	15:54	-132.618	49.516	0	212.00	0	5.5450	0	33.7860	0	26.651	0	210.084	0	116.1	4	37.9	4	-1E+10	1	-1E+10	1	-1E+10	1	-1E+10	1	-1E+10	1	-1E+10	1
4902551	55	C	02/16/2022	15:54	-132.618	49.516	0	213.00	0	5.5330	0	33.7860	0	26.653	0	211.074	0	115.5	4	37.7	4	-1E+10	1	-1E+10	1	-1E+10	1	-1E+10	1	-1E+10	1	-1E+10	1
4902551	55	C	02/16/2022	15:54	-132.618	49.516	0	213.90	0	5.5310	0	33.7850	0	26.652	0	211.966	0	114.8	4	37.5	4	-1E+10	1	-1E+10	1	-1E+10	1	-1E+10	1	-1E+10	1	-1E+10	1
4902551	55	C	02/16/2022	15:54	-132.618	49.516	0	214.80	0	5.5230	0	33.7860	0	26.654	0	212.857	0	114.0	4	37.2	4	-1E+10	1	-1E+10	1	-1E+10	1	-1E+10	1	-1E+10	1	-1E+10	1
4902551	55	C	02/16/2022	15:54	-132.618	49.516	0	215.70	0	5.5120	0	33.7870	0	26.656	0	213.749	0	113.2	4	36.9	4	-1E+10	1	-1E+10	1	-1E+10	1	-1E+10	1	-1E+10	1	-1E+10	1
4902551	55	C	02/16/2022	15:54	-132.618	49.516	0	216.60	0	5.5070	0	33.7870	0	26.657	0	214.640	0	112.3	4	36.7	4	-1E+10	1	-1E+10	1	-1E+10	1	-1E+10	1	-1E+10	1	-1E+10	1
4902551	55	C	02/16/2022	15:54	-132.618	49.516	0	217.50	0	5.4850	0	33.7940	0	26.665	0	215.531	0	111.5	4	36.4	4	-1E+10	1	-1E+10	1	-1E+10	1	-1E+10	1	-1E+10	1	-1E+10	1
4902551	55	C	02/16/2022	15:54	-132.618	49.516	0	218.90	0	5.4400	0	33.7940	0	26.670	0	216.918	0	110.5	4	36.0	4	-1E+10	1	-1E+10	1	-1E+10	1	-1E+10	1	-1E+10	1	-1E+10	1
4902551	55	C	02/16/2022	15:54	-132.618	49.516	0	220.30	0	5.4320	0	33.7940	0	26.671	0	218.305	0	109.3	4	35.6	4	-1E+10	1	-1E+10	1	-1E+10	1	-1E+10	1	-1E+10	1	-1E+10	1
4902551	55	C	02/16/2022	15:54	-132.618	49.516	0	221.30	0	5.4270	0	33.7940	0	26.672	0	219.295	0	108.4	4	35.3	4	-1E+10	1	-1E+10	1	-1E+10	1	-1E+10	1	-1E+10	1	-1E+10	1
4902551	55	C	02/16/2022	15:54	-132.618	49.516	0	222.20	0	5.3940	0	33.8020	0	26.682	0	220.186	0	107.5	4	35.0	4	-1E+10	1	-1E+10	1	-1E+10	1	-1E+10	1	-1E+10	1	-1E+10	1
4902551	55	C	02/16/2022	15:54	-132.618	49.516	0	223.10	0	5.3550	0	33.8020	0	26.687	0	221.078	0	106.8	4	34.7	4	-1E+10	1	-1E+10	1	-1E+10	1	-1E+10	1	-1E+10	1	-1E+10	1
4902551	55	C	02/16/2022	15:54	-132.618	49.516	0	224.00	0	5.3500	0	33.8010	0	26.686	0	221.969	0	106.0	4	34.5	4	-1E+10	1	-1E+10	1	-1E+10	1	-1E+10	1	-1E+10	1	-1E+10	1
4902551	55	C	02/16/2022	15:54	-132.618	49.516	0	225.00	0	5.3440	0	33.8010	0	26.687	0	222.959	0	105.2	4	34.2	4	-1E+10	1	-1E+10	1	-1E+10	1	-1E+10	1	-1E+10	1	-1E+10	1
4902551	55	C	02/16/2022	15:54	-132.618	49.516	0	225.90	0	5.3130	0	33.8040	0	26.693	0	223.851	0	104.5	4	33.9	4	-1E+10	1	-1E+10	1	-1E+10	1	-1E+10	1	-1E+10	1	-1E+10	1
4902551	55	C	02/16/2022	15:54	-132.618	49.516	0	226.80	0	5.2920	0	33.8070	0	26.698	0	224.742	0	103.8	4	33.7	4	-1E+10	1	-1E+10	1	-1E+10	1	-1E+10	1	-1E+10	1	-1E+10	1
4902551	55	C	02/16/2022	15:54	-132.618	49.516	0	227.70	0	5.2830	0	33.8080	0	26.700	0	225.634	0	103.2	4	33.5	4	-1E+10	1	-1E+10	1	-1E+10	1	-1E+10	1	-1E+10	1	-1E+10	1
4902551	55	C	02/16/2022	15:54	-132.618	49.516	0	228.60	0	5.2790	0	33.8100	0	26.702	0	226.525	0	102.5	4	33.3	4	-1E+10	1	-1E+10	1	-1E+10	1	-1E+10	1	-1E+10	1	-1E+10	1
4902551	55	C	02/16/2022	15:54	-132.618	49.516	0	229.90	0	5.2650	0	33.8110	0	26.704	0	227.812	0	101.5	4	32.9	4	-1E+10	1	-1E+10	1	-1E+10	1	-1E+10	1	-1E+10	1	-1E+10	1
4902551	55	C	02/16/2022	15:54	-132.618	49.516	0	231.40	0	5.2350	0	33.8190	0	26.714	0	229.298	0	100.6	4	32.6	4	-1E+10	1	-1E+10	1	-1E+10	1	-1E+10	1	-1E+10	1	-1E+10	1
4902551	55	C	02/16/2022	15:54	-132.618	49.516	0	232.30	0	5.2150	0	33.8200	0	26.717	0	230.189	0	100.1	4	32.5	4	-1E+10	1	-1E+10	1	-1E+10	1	-1E+10	1	-1E+10	1	-1E+10	1
4902551	55	C	02/16/2022	15:54	-132.618	49.516	0	233.20	0	5.2030	0	33.8210	0	26.719	0	231.081	0	99.6	4	32.3	4	-1E+10	1	-1E+10	1	-1E+10	1	-1E+10	1	-1E+10	1	-1E+10	1
4902551	55	C	02/16/2022	15:54	-132.618	49.516	0	234.20	0	5.2010	0	33.8200	0	26.719	0	232.071	0	99.2	4	32.1	4	-1E+10	1	-1E+10	1	-1E+10	1	-1E+10	1	-1E+10	1	-1E+10	1
4902551	55	C	02/16/2022	15:54	-132.618	49.516	0	235.10	0	5.1680	0	33.8240	0	26.726	0	232.962	0	98.9	4	32.0	4	-1E+10	1	-1E+10	1	-1E+10	1	-1E+10	1	-1E+10	1	-1E+10	1
4902551	55	C	02/16/2022	15:54	-132.618	49.516	0	236.00	0	5.1610	0	33.8230	0	26.726	0	233.854	0	98.5	4	31.9	4	-1E+10	1	-1E+10	1	-1E+10	1	-1E+10	1	-1E+10	1	-1E+10	1
4902551	55	C	02/16/2022	15:54	-132.618	49.516	0	236.90	0	5.1600	0	33.8250	0	26.728	0	234.745	0	98.3	4	31.8	4	-1E+10	1	-1E+10	1	-1E+10	1	-1E+10	1	-1E+10	1	-1E+10	1
4902551	55	C	02/16/2022	15:54	-132.618	49.516	0	237.90	0	5.1490	0	33.8270	0	26.730	0	235.735	0	98.0	4	31.7	4	-1E+10	1	-1E+10	1	-1E+10	1	-1E+10	1	-1E+10	1	-1E+10	1
4902551	55	C	02/16/2022	15:54	-132.618	49.516	0	238.80	0	5.1390	0	33.8270	0	26.732	0	236.626	0	97.8	4	31.7	4	-1E+10	1	-1E+10	1	-1E+10	1	-1E+10	1	-1E+10	1	-1E+10	1
4902551	55	C	02/16/2022	15:54	-132.618	49.516	0	239.70	0	5.1340	0	33.8270	0	26.732	0	237.518	0	97.7	4	31.6	4	-1E+10	1	-1E+10	1	-1E+10	1	-1E+10	1	-1E+10	1	-1E+10	1
4902551	55	C	02/16/2022	15:54	-132.618	49.516	0	241.00	0	5.1270	0	33.8270	0	26.733	0	238.805	0	97.5	4	31.5	4	-1E+10	1	-1E+10	1	-1E+10	1	-1E+10	1	-1E+10	1	-1E+10	1
4902551	55	C	02/16/2022	15:54	-132.618	49.516	0	242.40	0	5.1180	0	33.8290	0	26.736	0	240.192	0	97.2	4	31.4	4	-1E+10	1	-1E+10	1	-1E+10	1	-1E+10	1	-1E+10	1	-1E+10	1
4902551	55	C	02/16/2022	15:54	-132.618	49.516	0	243.20	0	5.1120	0	33.8290	0	26.736	0	240.984	0	97.0	4	31.4	4	-1E+10	1	-1E+10	1	-1E+10	1	-1E+10	1	-1E+10	1	-1E+10	1
4902551	55	C	02/16/2022	15:54	-132.618	49.516	0	244.10	0	5.1040	0	33.8310	0	26.739	0	241.875	0	96.8	4	31.3	4	-1E+10	1	-1E+10	1	-1E+10	1	-1E+10	1	-1E+10	1	-1E+10	1
4902551	55	C	02/16/2022	15:54	-132.618	49.516	0	245.00	0	5.1090	0	33.8300	0	26.738	0	242.766	0	96.5	4	31.2	4	-1E+10	1	-1E+10	1	-1E+10	1	-1E+10	1	-1E+10	1	-1E+10	1
4902551	55	C	02/16/2022	15:54	-132.618	49.516	0	245.90	0	5.1120	0	33.8300	0	26.737	0	243.658	0	96.3	4	31.1	4	-1E+10	1	-1E+10	1	-1E+10	1	-1E+10	1	-1E+10	1	-1E+10	1
4902551	55	C	02/16/2022	15:54	-132.618	49.516	0	246.80	0	5.0990	0	33.8300	0	26.739	0	244.549	0	95.9	4	31.0	4	-1E+10	1	-1E+10	1	-1E+10	1	-1E+10	1	-1E+10	1	-1E+10	1
4902551	55	C	02/16/2022	15:54	-132.618	49.516	0	247.70	0	5.0930	0	33.8300	0	26.739	0	245.440	0	95.6	4	30.9	4	-1E+10	1	-1E+10	1	-1E+10	1	-1E+10	1	-1E+10	1	-1E+10	1
4902551	55	C	02/16/2022	15:54	-132.618	49.516	0	249.00	0	5.0810	0	33.8340	0	26.744	0	246.728	0	95.1	4	30.7	4	-1E+10	1	-1E+10	1	-1E+10	1	-1E+10	1	-1E+10	1	-1E+10	1
4902551	55	C	02/16/2022	15:54	-132.618	49.516	0	250.30	0	5.0780	0	33.8330	0	26.743	0	248.015	0	94.6	4	30.6	4	-1E+10	1	-1E+10	1	-1E+10	1	-1E+10	1	-1E+10	1	-1E+10	1
4902551	55	C	02/16/2022	15:54	-132.618	49.516	0	251.20	0	5.0730	0	33.8320	0	26.743	0	248.906	0	94.2	4	30.4	4	-1E+10	1	-1E+10	1	-1E+10	1	-1E+10	1	-1E+10	1	-1E+10	1
4902551	55	C	02/16/2022	15:54	-132.618	49.516	0	252.00	0	5.0690	0	33.8330	0	26.745	0	249.698	0	93.7	4	30.3	4	-1E+10	1	-1E+10	1	-1E+10	1	-1E+10	1	-1E+10	1	-1E+10	1
4902551	55	C	02/16/2022	15:54	-132.618	49.516	0	252.90	0	5.0490	0	33.8410	0	26.753	0	250.590	0	93.1	4	30.1	4	-1E+10	1	-1E+10	1	-1E+10	1	-1E+10	1	-1E+10	1	-1E+10	1
4902551	55	C	02/16/2022	15:54	-132.618	49.516	0	253.80	0	5.0280	0	33.8410	0	26.756	0	251.481	0	92.5	4	29.9	4	-1E+10	1	-1E+10	1	-1E+10	1	-1E+10	1	-1E+10	1	-1E+10	1
4902551	55	C	02/16/2022	15:54	-132.618	49.516	0	254.60	0	5.0120	0	33.8380	0	26.755	0	252.273	0	92.1	4	29.7	4	-1E+10	1	-1E+10	1	-1E+10	1	-1E+10	1	-1E+10	1	-1E+10	1
4902551	55	C	02/16/2022	15:54	-132.618	49.516	0	255.90	0	5.0000	0	33.8390	0	26.757	0	253.560	0	91.2	4	29.4	4	-1E+10	1	-1E+10	1	-1E+10	1	-1E+10	1	-1E+10	1	-1E+10	1
4902551	55	C	02/16/2022	15:54	-132.618	49.516	0	257.20	0	4.9940	0	33.8410	0	26.759	0	254.848	0	90.4	4	29.2	4	-1E+10	1	-1E+10	1	-1E+10	1	-1E+10	1	-1E+10	1	-1E+10	1
4902551	55	C	02/16/2022	15:54	-132.618	49.516	0	258.10	0	4.9810	0	33.8430	0	26.763	0	255.739	0	89.9	4	29.0	4	-1E+10	1	-1E+10	1	-1E+10	1	-1E+10	1	-1E+10	1	-1E+10	1
4902551	55	C	02/16/2022	15:54	-132.618	49.516	0	259.00	0	4.9740	0	33.8440	0	26.764	0	256.630	0	89.4	4	28.8	4	-1E+10	1	-1E+10	1	-1E+10	1	-1E+10	1	-1E+10	1	-1E+10	1
4902551	55	C	02/16/2022	15:54	-132.618	49.516	0	259.90	0	4.9690	0	33.8450	0	26.765	0	257.521	0	89.0	4	28.7	4	-1E+10	1	-1E+10	1	-1E+10	1	-1E+10	1	-1E+10	1	-1E+10	1
4902551	55	C	02/16/2022	15:54	-132.618	49.516	0	260.70	0	4.9670	0	33.8450	0	26.766	0	258.313	0	88.5	4	28.5	4	-1E+10	1	-1E+10	1	-1E+10	1	-1E+10	1	-1E+10	1	-1E+10	1
4902551	55	C	02/16/2022	15:54	-132.618	49.516	0	261.60	0	4.9660	0	33.8450	0	26.766	0	259.205	0	88.1	4	28.4	4	-1E+10	1	-1E+10	1	-1E+10	1	-1E+10	1	-1E+10	1	-1E+10	1
4902551	55	C	02/16/2022	15:54	-132.618	49.516	0	262.90	0	4.9620	0	33.8460	0	26.767	0	260.492	0	87.3	4	28.1	4	-1E+10	1	-1E+10	1	-1E+10	1	-1E+10	1	-1E+10	1	-1E+10	1
4902551	55	C	02/16/2022	15:54	-132.618	49.516	0	264.30	0	4.9560	0	33.8470	0	26.769	0	261.878	0	86.5	4	27.9	4	-1E+10	1	-1E+10	1	-1E+10	1	-1E+10	1	-1E+10	1	-1E+10	1
4902551	55	C	02/16/2022	15:54	-132.618	49.516	0	265.20	0	4.9350	0	33.8500	0	26.773	0	262.769	0	86.2	4	27.8	4	-1E+10	1	-1E+10	1	-1E+10	1	-1E+10	1	-1E+10	1	-1E+10	1
4902551	55	C	02/16/2022	15:54	-132.618	49.516	0	266.10	0	4.9320	0	33.8510	0	26.774	0	263.661	0	85.8	4	27.6	4	-1E+10	1	-1E+10	1	-1E+10	1	-1E+10	1	-1E+10	1	-1E+10	1
4902551	55	C	02/16/2022	15:54	-132.618	49.516	0	267.00	0	4.9290	0	33.8510	0	26.775	0	264.552	0	85.5	4	27.5	4	-1E+10	1	-1E+10	1	-1E+10	1	-1E+10	1	-1E+10	1	-1E+10	1
4902551	55	C	02/16/2022	15:54	-132.618	49.516	0	267.90	0	4.9270	0	33.8520	0	26.776	0	265.443	0	85.1	4	27.4	4	-1E+10	1	-1E+10	1	-1E+10	1	-1E+10	1	-1E+10	1	-1E+10	1
4902551	55	C	02/16/2022	15:54	-132.618	49.516	0	268.80	0	4.9210	0	33.8520	0	26.777	0	266.334	0	84.8	4	27.3	4	-1E+10	1	-1E+10	1	-1E+10	1	-1E+10	1	-1E+10	1	-1E+10	1
4902551	55	C	02/16/2022	15:54	-132.618	49.516	0	269.80	0	4.9170	0	33.8530	0	26.778	0	267.324	0	84.4	4	27.2	4	-1E+10	1	-1E+10	1	-1E+10	1	-1E+10	1	-1E+10	1	-1E+10	1
4902551	55	C	02/16/2022	15:54	-132.618	49.516	0	270.70	0	4.9060	0	33.8560	0	26.781	0	268.215	0	84.1	4	27.1	4	-1E+10	1	-1E+10	1	-1E+10	1	-1E+10	1	-1E+10	1	-1E+10	1
4902551	55	C	02/16/2022	15:54	-132.618	49.516	0	271.60	0	4.9000	0	33.8560	0	26.782	0	269.107	0	83.7	4	26.9	4	-1E+10	1	-1E+10	1	-1E+10	1	-1E+10	1	-1E+10	1	-1E+10	1
4902551	55	C	02/16/2022	15:54	-132.618	49.516	0	272.90	0	4.8830	0	33.8570	0	26.785	0	270.394	0	83.4	4	26.8	4	-1E+10	1	-1E+10	1	-1E+10	1	-1E+10	1	-1E+10	1	-1E+10	1
4902551	55	C	02/16/2022	15:54	-132.618	49.516	0	274.30	0	4.8720	0	33.8590	0	26.788	0	271.780	0	83.2	4	26.8	4	-1E+10	1	-1E+10	1	-1E+10	1	-1E+10	1	-1E+10	1	-1E+10	1
4902551	55	C	02/16/2022	15:54	-132.618	49.516	0	275.20	0	4.8660	0	33.8590	0	26.788	0	272.671	0	83.1	4	26.7	4	-1E+10	1	-1E+10	1	-1E+10	1	-1E+10	1	-1E+10	1	-1E+10	1
4902551	55	C	02/16/2022	15:54	-132.618	49.516	0	275.90	0	4.8450	0	33.8630	0	26.794	0	273.364	0	83.0	4	26.7	4	-1E+10	1	-1E+10	1	-1E+10	1	-1E+10	1	-1E+10	1	-1E+10	1
4902551	55	C	02/16/2022	15:54	-132.618	49.516	0	276.80	0	4.8320	0	33.8630	0	26.795	0	274.255	0	82.5	4	26.5	4	-1E+10	1	-1E+10	1	-1E+10	1	-1E+10	1	-1E+10	1	-1E+10	1
4902551	55	C	02/16/2022	15:54	-132.618	49.516	0	277.80	0	4.8270	0	33.8620	0	26.795	0	275.246	0	81.9	4	26.3	4	-1E+10	1	-1E+10	1	-1E+10	1	-1E+10	1	-1E+10	1	-1E+10	1
4902551	55	C	02/16/2022	15:54	-132.618	49.516	0	278.90	0	4.8220	0	33.8640	0	26.797	0	276.335	0	81.2	4	26.1	4	-1E+10	1	-1E+10	1	-1E+10	1	-1E+10	1	-1E+10	1	-1E+10	1
4902551	55	C	02/16/2022	15:54	-132.618	49.516	0	279.90	0	4.8170	0	33.8650	0	26.799	0	277.325	0	80.5	4	25.8	4	-1E+10	1	-1E+10	1	-1E+10	1	-1E+10	1	-1E+10	1	-1E+10	1
4902551	55	C	02/16/2022	15:54	-132.618	49.516	0	281.00	0	4.8140	0	33.8650	0	26.799	0	278.414	0	79.6	4	25.6	4	-1E+10	1	-1E+10	1	-1E+10	1	-1E+10	1	-1E+10	1	-1E+10	1
4902551	55	C	02/16/2022	15:54	-132.618	49.516	0	282.00	0	4.8060	0	33.8690	0	26.803	0	279.404	0	79.1	4	25.4	4	-1E+10	1	-1E+10	1	-1E+10	1	-1E+10	1	-1E+10	1	-1E+10	1
4902551	55	C	02/16/2022	15:54	-132.618	49.516	0	283.10	0	4.8040	0	33.8690	0	26.803	0	280.493	0	78.7	4	25.3	4	-1E+10	1	-1E+10	1	-1E+10	1	-1E+10	1	-1E+10	1	-1E+10	1
4902551	55	C	02/16/2022	15:54	-132.618	49.516	0	283.80	0	4.8010	0	33.8700	0	26.804	0	281.186	0	78.3	4	25.2	4	-1E+10	1	-1E+10	1	-1E+10	1	-1E+10	1	-1E+10	1	-1E+10	1
4902551	55	C	02/16/2022	15:54	-132.618	49.516	0	284.90	0	4.7970	0	33.8700	0	26.805	0	282.275	0	77.8	4	25.0	4	-1E+10	1	-1E+10	1	-1E+10	1	-1E+10	1	-1E+10	1	-1E+10	1
4902551	55	C	02/16/2022	15:54	-132.618	49.516	0	286.00	0	4.7850	0	33.8730	0	26.808	0	283.365	0	77.2	4	24.8	4	-1E+10	1	-1E+10	1	-1E+10	1	-1E+10	1	-1E+10	1	-1E+10	1
4902551	55	C	02/16/2022	15:54	-132.618	49.516	0	286.70	0	4.7810	0	33.8720	0	26.808	0	284.058	0	76.8	4	24.7	4	-1E+10	1	-1E+10	1	-1E+10	1	-1E+10	1	-1E+10	1	-1E+10	1
4902551	55	C	02/16/2022	15:54	-132.618	49.516	0	287.90	0	4.7770	0	33.8730	0	26.809	0	285.246	0	76.3	4	24.5	4	-1E+10	1	-1E+10	1	-1E+10	1	-1E+10	1	-1E+10	1	-1E+10	1
4902551	55	C	02/16/2022	15:54	-132.618	49.516	0	289.00	0	4.7700	0	33.8740	0	26.811	0	286.335	0	75.9	4	24.4	4	-1E+10	1	-1E+10	1	-1E+10	1	-1E+10	1	-1E+10	1	-1E+10	1
4902551	55	C	02/16/2022	15:54	-132.618	49.516	0	289.70	0	4.7660	0	33.8750	0	26.812	0	287.028	0	75.7	4	24.3	4	-1E+10	1	-1E+10	1	-1E+10	1	-1E+10	1	-1E+10	1	-1E+10	1
4902551	55	C	02/16/2022	15:54	-132.618	49.516	0	290.90	0	4.7590	0	33.8760	0	26.814	0	288.216	0	75.3	4	24.2	4	-1E+10	1	-1E+10	1	-1E+10	1	-1E+10	1	-1E+10	1	-1E+10	1
4902551	55	C	02/16/2022	15:54	-132.618	49.516	0	292.00	0	4.7540	0	33.8780	0	26.816	0	289.305	0	75.0	4	24.1	4	-1E+10	1	-1E+10	1	-1E+10	1	-1E+10	1	-1E+10	1	-1E+10	1
4902551	55	C	02/16/2022	15:54	-132.618	49.516	0	292.80	0	4.7530	0	33.8770	0	26.815	0	290.097	0	74.7	4	24.0	4	-1E+10	1	-1E+10	1	-1E+10	1	-1E+10	1	-1E+10	1	-1E+10	1
4902551	55	C	02/16/2022	15:54	-132.618	49.516	0	293.60	0	4.7470	0	33.8790	0	26.818	0	290.889	0	74.5	4	23.9	4	-1E+10	1	-1E+10	1	-1E+10	1	-1E+10	1	-1E+10	1	-1E+10	1
4902551	55	C	02/16/2022	15:54	-132.618	49.516	0	294.90	0	4.7330	0	33.8820	0	26.821	0	292.176	0	74.3	4	23.8	4	-1E+10	1	-1E+10	1	-1E+10	1	-1E+10	1	-1E+10	1	-1E+10	1
4902551	55	C	02/16/2022	15:54	-132.618	49.516	0	296.10	0	4.7310	0	33.8820	0	26.822	0	293.364	0	73.9	4	23.7	4	-1E+10	1	-1E+10	1	-1E+10	1	-1E+10	1	-1E+10	1	-1E+10	1
4902551	55	C	02/16/2022	15:54	-132.618	49.516	0	296.90	0	4.7300	0	33.8830	0	26.823	0	294.156	0	73.8	4	23.7	4	-1E+10	1	-1E+10	1	-1E+10	1	-1E+10	1	-1E+10	1	-1E+10	1
4902551	55	C	02/16/2022	15:54	-132.618	49.516	0	297.80	0	4.7290	0	33.8830	0	26.823	0	295.047	0	73.6	4	23.6	4	-1E+10	1	-1E+10	1	-1E+10	1	-1E+10	1	-1E+10	1	-1E+10	1
4902551	55	C	02/16/2022	15:54	-132.618	49.516	0	298.60	0	4.7280	0	33.8830	0	26.823	0	295.839	0	73.3	4	23.5	4	-1E+10	1	-1E+10	1	-1E+10	1	-1E+10	1	-1E+10	1	-1E+10	1
4902551	55	C	02/16/2022	15:54	-132.618	49.516	0	299.90	0	4.7250	0	33.8830	0	26.823	0	297.126	0	73.0	4	23.4	4	-1E+10	1	-1E+10	1	-1E+10	1	-1E+10	1	-1E+10	1	-1E+10	1
4902551	55	C	02/16/2022	15:54	-132.618	49.516	0	301.20	0	4.7240	0	33.8830	0	26.823	0	298.414	0	72.6	4	23.3	4	-1E+10	1	-1E+10	1	-1E+10	1	-1E+10	1	-1E+10	1	-1E+10	1
4902551	55	C	02/16/2022	15:54	-132.618	49.516	0	302.10	0	4.7230	0	33.8830	0	26.823	0	299.305	0	72.3	4	23.2	4	-1E+10	1	-1E+10	1	-1E+10	1	-1E+10	1	-1E+10	1	-1E+10	1
4902551	55	C	02/16/2022	15:54	-132.618	49.516	0	303.00	0	4.7240	0	33.8830	0	26.823	0	300.196	0	71.9	4	23.1	4	-1E+10	1	-1E+10	1	-1E+10	1	-1E+10	1	-1E+10	1	-1E+10	1
4902551	55	C	02/16/2022	15:54	-132.618	49.516	0	303.90	0	4.7230	0	33.8830	0	26.823	0	301.087	0	71.6	4	23.0	4	-1E+10	1	-1E+10	1	-1E+10	1	-1E+10	1	-1E+10	1	-1E+10	1
4902551	55	C	02/16/2022	15:54	-132.618	49.516	0	304.70	0	4.7220	0	33.8830	0	26.824	0	301.879	0	71.2	4	22.8	4	-1E+10	1	-1E+10	1	-1E+10	1	-1E+10	1	-1E+10	1	-1E+10	1
4902551	55	C	02/16/2022	15:54	-132.618	49.516	0	305.60	0	4.7160	0	33.8840	0	26.825	0	302.770	0	70.8	4	22.7	4	-1E+10	1	-1E+10	1	-1E+10	1	-1E+10	1	-1E+10	1	-1E+10	1
4902551	55	C	02/16/2022	15:54	-132.618	49.516	0	306.90	0	4.7070	0	33.8830	0	26.825	0	304.057	0	70.1	4	22.5	4	-1E+10	1	-1E+10	1	-1E+10	1	-1E+10	1	-1E+10	1	-1E+10	1
4902551	55	C	02/16/2022	15:54	-132.618	49.516	0	308.30	0	4.6850	0	33.8860	0	26.830	0	305.443	0	69.5	4	22.3	4	-1E+10	1	-1E+10	1	-1E+10	1	-1E+10	1	-1E+10	1	-1E+10	1
4902551	55	C	02/16/2022	15:54	-132.618	49.516	0	309.20	0	4.6690	0	33.8890	0	26.834	0	306.334	0	69.2	4	22.2	4	-1E+10	1	-1E+10	1	-1E+10	1	-1E+10	1	-1E+10	1	-1E+10	1
4902551	55	C	02/16/2022	15:54	-132.618	49.516	0	310.10	0	4.6630	0	33.8900	0	26.836	0	307.225	0	68.9	4	22.1	4	-1E+10	1	-1E+10	1	-1E+10	1	-1E+10	1	-1E+10	1	-1E+10	1
4902551	55	C	02/16/2022	15:54	-132.618	49.516	0	311.00	0	4.6600	0	33.8910	0	26.837	0	308.116	0	68.6	4	22.0	4	-1E+10	1	-1E+10	1	-1E+10	1	-1E+10	1	-1E+10	1	-1E+10	1
4902551	55	C	02/16/2022	15:54	-132.618	49.516	0	311.90	0	4.6560	0	33.8920	0	26.838	0	309.007	0	68.3	4	21.9	4	-1E+10	1	-1E+10	1	-1E+10	1	-1E+10	1	-1E+10	1	-1E+10	1
4902551	55	C	02/16/2022	15:54	-132.618	49.516	0	312.80	0	4.6550	0	33.8920	0	26.838	0	309.898	0	68.0	4	21.8	4	-1E+10	1	-1E+10	1	-1E+10	1	-1E+10	1	-1E+10	1	-1E+10	1
4902551	55	C	02/16/2022	15:54	-132.618	49.516	0	313.70	0	4.6530	0	33.8920	0	26.838	0	310.788	0	67.6	4	21.6	4	-1E+10	1	-1E+10	1	-1E+10	1	-1E+10	1	-1E+10	1	-1E+10	1
4902551	55	C	02/16/2022	15:54	-132.618	49.516	0	314.70	0	4.6520	0	33.8920	0	26.838	0	311.778	0	67.2	4	21.5	4	-1E+10	1	-1E+10	1	-1E+10	1	-1E+10	1	-1E+10	1	-1E+10	1
4902551	55	C	02/16/2022	15:54	-132.618	49.516	0	315.60	0	4.6510	0	33.8920	0	26.839	0	312.669	0	66.8	4	21.4	4	-1E+10	1	-1E+10	1	-1E+10	1	-1E+10	1	-1E+10	1	-1E+10	1
4902551	55	C	02/16/2022	15:54	-132.618	49.516	0	316.50	0	4.6480	0	33.8930	0	26.840	0	313.560	0	66.3	4	21.2	4	-1E+10	1	-1E+10	1	-1E+10	1	-1E+10	1	-1E+10	1	-1E+10	1
4902551	55	C	02/16/2022	15:54	-132.618	49.516	0	317.90	0	4.6450	0	33.8930	0	26.840	0	314.946	0	65.5	4	21.0	4	-1E+10	1	-1E+10	1	-1E+10	1	-1E+10	1	-1E+10	1	-1E+10	1
4902551	55	C	02/16/2022	15:54	-132.618	49.516	0	319.30	0	4.6380	0	33.8950	0	26.842	0	316.332	0	64.8	4	20.7	4	-1E+10	1	-1E+10	1	-1E+10	1	-1E+10	1	-1E+10	1	-1E+10	1
4902551	55	C	02/16/2022	15:54	-132.618	49.516	0	320.30	0	4.6360	0	33.8960	0	26.843	0	317.322	0	64.2	4	20.5	4	-1E+10	1	-1E+10	1	-1E+10	1	-1E+10	1	-1E+10	1	-1E+10	1
4902551	55	C	02/16/2022	15:54	-132.618	49.516	0	321.20	0	4.6340	0	33.8950	0	26.843	0	318.213	0	63.6	4	20.3	4	-1E+10	1	-1E+10	1	-1E+10	1	-1E+10	1	-1E+10	1	-1E+10	1
4902551	55	C	02/16/2022	15:54	-132.618	49.516	0	322.20	0	4.6270	0	33.8980	0	26.846	0	319.203	0	63.0	4	20.1	4	-1E+10	1	-1E+10	1	-1E+10	1	-1E+10	1	-1E+10	1	-1E+10	1
4902551	55	C	02/16/2022	15:54	-132.618	49.516	0	323.10	0	4.6080	0	33.9020	0	26.851	0	320.094	0	62.6	4	20.0	4	-1E+10	1	-1E+10	1	-1E+10	1	-1E+10	1	-1E+10	1	-1E+10	1
4902551	55	C	02/16/2022	15:54	-132.618	49.516	0	324.10	0	4.6060	0	33.9030	0	26.852	0	321.084	0	62.2	4	19.9	4	-1E+10	1	-1E+10	1	-1E+10	1	-1E+10	1	-1E+10	1	-1E+10	1
4902551	55	C	02/16/2022	15:54	-132.618	49.516	0	325.00	0	4.6020	0	33.9040	0	26.853	0	321.975	0	61.9	4	19.8	4	-1E+10	1	-1E+10	1	-1E+10	1	-1E+10	1	-1E+10	1	-1E+10	1
4902551	55	C	02/16/2022	15:54	-132.618	49.516	0	325.90	0	4.5890	0	33.9080	0	26.858	0	322.866	0	61.7	4	19.7	4	-1E+10	1	-1E+10	1	-1E+10	1	-1E+10	1	-1E+10	1	-1E+10	1
4902551	55	C	02/16/2022	15:54	-132.618	49.516	0	326.90	0	4.5870	0	33.9090	0	26.859	0	323.856	0	61.3	4	19.6	4	-1E+10	1	-1E+10	1	-1E+10	1	-1E+10	1	-1E+10	1	-1E+10	1
4902551	55	C	02/16/2022	15:54	-132.618	49.516	0	327.80	0	4.5850	0	33.9090	0	26.859	0	324.747	0	61.0	4	19.5	4	-1E+10	1	-1E+10	1	-1E+10	1	-1E+10	1	-1E+10	1	-1E+10	1
4902551	55	C	02/16/2022	15:54	-132.618	49.516	0	328.80	0	4.5840	0	33.9100	0	26.860	0	325.736	0	60.7	4	19.4	4	-1E+10	1	-1E+10	1	-1E+10	1	-1E+10	1	-1E+10	1	-1E+10	1
4902551	55	C	02/16/2022	15:54	-132.618	49.516	0	329.80	0	4.5820	0	33.9100	0	26.860	0	326.726	0	60.4	4	19.3	4	-1E+10	1	-1E+10	1	-1E+10	1	-1E+10	1	-1E+10	1	-1E+10	1
4902551	55	C	02/16/2022	15:54	-132.618	49.516	0	330.70	0	4.5810	0	33.9100	0	26.861	0	327.617	0	60.0	4	19.2	4	-1E+10	1	-1E+10	1	-1E+10	1	-1E+10	1	-1E+10	1	-1E+10	1
4902551	55	C	02/16/2022	15:54	-132.618	49.516	0	331.70	0	4.5760	0	33.9120	0	26.863	0	328.607	0	59.6	4	19.1	4	-1E+10	1	-1E+10	1	-1E+10	1	-1E+10	1	-1E+10	1	-1E+10	1
4902551	55	C	02/16/2022	15:54	-132.618	49.516	0	332.60	0	4.5690	0	33.9140	0	26.865	0	329.498	0	59.3	4	19.0	4	-1E+10	1	-1E+10	1	-1E+10	1	-1E+10	1	-1E+10	1	-1E+10	1
4902551	55	C	02/16/2022	15:54	-132.618	49.516	0	333.60	0	4.5630	0	33.9160	0	26.867	0	330.488	0	59.1	4	18.9	4	-1E+10	1	-1E+10	1	-1E+10	1	-1E+10	1	-1E+10	1	-1E+10	1
4902551	55	C	02/16/2022	15:54	-132.618	49.516	0	334.60	0	4.5580	0	33.9190	0	26.870	0	331.478	0	58.9	4	18.8	4	-1E+10	1	-1E+10	1	-1E+10	1	-1E+10	1	-1E+10	1	-1E+10	1
4902551	55	C	02/16/2022	15:54	-132.618	49.516	0	335.60	0	4.5540	0	33.9190	0	26.871	0	332.468	0	58.6	4	18.7	4	-1E+10	1	-1E+10	1	-1E+10	1	-1E+10	1	-1E+10	1	-1E+10	1
4902551	55	C	02/16/2022	15:54	-132.618	49.516	0	336.60	0	4.5500	0	33.9210	0	26.873	0	333.458	0	58.4	4	18.7	4	-1E+10	1	-1E+10	1	-1E+10	1	-1E+10	1	-1E+10	1	-1E+10	1
4902551	55	C	02/16/2022	15:54	-132.618	49.516	0	337.60	0	4.5490	0	33.9220	0	26.874	0	334.447	0	58.2	4	18.6	4	-1E+10	1	-1E+10	1	-1E+10	1	-1E+10	1	-1E+10	1	-1E+10	1
4902551	55	C	02/16/2022	15:54	-132.618	49.516	0	338.50	0	4.5480	0	33.9220	0	26.874	0	335.338	0	58.0	4	18.5	4	-1E+10	1	-1E+10	1	-1E+10	1	-1E+10	1	-1E+10	1	-1E+10	1
4902551	55	C	02/16/2022	15:54	-132.618	49.516	0	339.50	0	4.5470	0	33.9220	0	26.874	0	336.328	0	57.8	4	18.4	4	-1E+10	1	-1E+10	1	-1E+10	1	-1E+10	1	-1E+10	1	-1E+10	1
4902551	55	C	02/16/2022	15:54	-132.618	49.516	0	340.90	0	4.5440	0	33.9230	0	26.875	0	337.714	0	57.4	4	18.3	4	-1E+10	1	-1E+10	1	-1E+10	1	-1E+10	1	-1E+10	1	-1E+10	1
4902551	55	C	02/16/2022	15:54	-132.618	49.516	0	342.40	0	4.5430	0	33.9240	0	26.876	0	339.199	0	57.1	4	18.2	4	-1E+10	1	-1E+10	1	-1E+10	1	-1E+10	1	-1E+10	1	-1E+10	1
4902551	55	C	02/16/2022	15:54	-132.618	49.516	0	343.30	0	4.5350	0	33.9270	0	26.879	0	340.089	0	56.9	4	18.2	4	-1E+10	1	-1E+10	1	-1E+10	1	-1E+10	1	-1E+10	1	-1E+10	1
4902551	55	C	02/16/2022	15:54	-132.618	49.516	0	344.30	0	4.5320	0	33.9280	0	26.880	0	341.079	0	56.8	4	18.1	4	-1E+10	1	-1E+10	1	-1E+10	1	-1E+10	1	-1E+10	1	-1E+10	1
4902551	55	C	02/16/2022	15:54	-132.618	49.516	0	345.30	0	4.5310	0	33.9290	0	26.881	0	342.069	0	56.6	4	18.1	4	-1E+10	1	-1E+10	1	-1E+10	1	-1E+10	1	-1E+10	1	-1E+10	1
4902551	55	C	02/16/2022	15:54	-132.618	49.516	0	346.20	0	4.5310	0	33.9290	0	26.881	0	342.960	0	56.5	4	18.0	4	-1E+10	1	-1E+10	1	-1E+10	1	-1E+10	1	-1E+10	1	-1E+10	1
4902551	55	C	02/16/2022	15:54	-132.618	49.516	0	347.20	0	4.5300	0	33.9290	0	26.881	0	343.950	0	56.3	4	18.0	4	-1E+10	1	-1E+10	1	-1E+10	1	-1E+10	1	-1E+10	1	-1E+10	1
4902551	55	C	02/16/2022	15:54	-132.618	49.516	0	348.20	0	4.5290	0	33.9300	0	26.882	0	344.940	0	56.1	4	17.9	4	-1E+10	1	-1E+10	1	-1E+10	1	-1E+10	1	-1E+10	1	-1E+10	1
4902551	55	C	02/16/2022	15:54	-132.618	49.516	0	349.10	0	4.5280	0	33.9300	0	26.882	0	345.830	0	56.0	4	17.9	4	-1E+10	1	-1E+10	1	-1E+10	1	-1E+10	1	-1E+10	1	-1E+10	1
4902551	55	C	02/16/2022	15:54	-132.618	49.516	0	350.10	0	4.5260	0	33.9320	0	26.884	0	346.820	0	55.8	4	17.8	4	-1E+10	1	-1E+10	1	-1E+10	1	-1E+10	1	-1E+10	1	-1E+10	1
4902551	55	C	02/16/2022	15:54	-132.618	49.516	0	353.00	0	4.5220	0	33.9330	0	26.885	0	349.691	0	55.4	4	17.7	4	-1E+10	1	-1E+10	1	-1E+10	1	-1E+10	1	-1E+10	1	-1E+10	1
4902551	55	C	02/16/2022	15:54	-132.618	49.516	0	357.90	0	4.5150	0	33.9350	0	26.888	0	354.540	0	54.5	4	17.4	4	-1E+10	1	-1E+10	1	-1E+10	1	-1E+10	1	-1E+10	1	-1E+10	1
4902551	55	C	02/16/2022	15:54	-132.618	49.516	0	363.00	0	4.5020	0	33.9390	0	26.892	0	359.588	0	53.3	4	17.0	4	-1E+10	1	-1E+10	1	-1E+10	1	-1E+10	1	-1E+10	1	-1E+10	1
4902551	55	C	02/16/2022	15:54	-132.618	49.516	0	368.00	0	4.4830	0	33.9460	0	26.900	0	364.537	0	51.9	4	16.5	4	-1E+10	1	-1E+10	1	-1E+10	1	-1E+10	1	-1E+10	1	-1E+10	1
4902551	55	C	02/16/2022	15:54	-132.618	49.516	0	372.90	0	4.4670	0	33.9530	0	26.907	0	369.386	0	50.7	4	16.2	4	-1E+10	1	-1E+10	1	-1E+10	1	-1E+10	1	-1E+10	1	-1E+10	1
4902551	55	C	02/16/2022	15:54	-132.618	49.516	0	378.00	0	4.4610	0	33.9560	0	26.910	0	374.434	0	50.0	4	15.9	4	-1E+10	1	-1E+10	1	-1E+10	1	-1E+10	1	-1E+10	1	-1E+10	1
4902551	55	C	02/16/2022	15:54	-132.618	49.516	0	382.60	0	4.4540	0	33.9590	0	26.914	0	378.986	0	49.4	4	15.7	4	-1E+10	1	-1E+10	1	-1E+10	1	-1E+10	1	-1E+10	1	-1E+10	1
4902551	55	C	02/16/2022	15:54	-132.618	49.516	0	387.80	0	4.4470	0	33.9620	0	26.917	0	384.132	0	48.9	4	15.6	4	-1E+10	1	-1E+10	1	-1E+10	1	-1E+10	1	-1E+10	1	-1E+10	1
4902551	55	C	02/16/2022	15:54	-132.618	49.516	0	393.10	0	4.4450	0	33.9630	0	26.918	0	389.377	0	48.3	4	15.4	4	-1E+10	1	-1E+10	1	-1E+10	1	-1E+10	1	-1E+10	1	-1E+10	1
4902551	55	C	02/16/2022	15:54	-132.618	49.516	0	398.00	0	4.4400	0	33.9650	0	26.920	0	394.226	0	47.5	4	15.1	4	-1E+10	1	-1E+10	1	-1E+10	1	-1E+10	1	-1E+10	1	-1E+10	1
4902551	55	C	02/16/2022	15:54	-132.618	49.516	0	402.90	0	4.4350	0	33.9680	0	26.923	0	399.075	0	46.6	4	14.8	4	-1E+10	1	-1E+10	1	-1E+10	1	-1E+10	1	-1E+10	1	-1E+10	1
4902551	55	C	02/16/2022	15:54	-132.618	49.516	0	408.00	0	4.4230	0	33.9730	0	26.928	0	404.121	0	45.6	4	14.5	4	-1E+10	1	-1E+10	1	-1E+10	1	-1E+10	1	-1E+10	1	-1E+10	1
4902551	55	C	02/16/2022	15:54	-132.618	49.516	0	413.00	0	4.4110	0	33.9770	0	26.933	0	409.069	0	44.3	4	14.1	4	-1E+10	1	-1E+10	1	-1E+10	1	-1E+10	1	-1E+10	1	-1E+10	1
4902551	55	C	02/16/2022	15:54	-132.618	49.516	0	418.10	0	4.3860	0	33.9880	0	26.944	0	414.115	0	42.8	4	13.6	4	-1E+10	1	-1E+10	1	-1E+10	1	-1E+10	1	-1E+10	1	-1E+10	1
4902551	55	C	02/16/2022	15:54	-132.618	49.516	0	423.30	0	4.3590	0	33.9980	0	26.955	0	419.260	0	42.4	4	13.5	4	-1E+10	1	-1E+10	1	-1E+10	1	-1E+10	1	-1E+10	1	-1E+10	1
4902551	55	C	02/16/2022	15:54	-132.618	49.516	0	428.00	0	4.3420	0	34.0040	0	26.962	0	423.911	0	42.2	4	13.4	4	-1E+10	1	-1E+10	1	-1E+10	1	-1E+10	1	-1E+10	1	-1E+10	1
4902551	55	C	02/16/2022	15:54	-132.618	49.516	0	432.80	0	4.3290	0	34.0080	0	26.966	0	428.660	0	42.0	4	13.4	4	-1E+10	1	-1E+10	1	-1E+10	1	-1E+10	1	-1E+10	1	-1E+10	1
4902551	55	C	02/16/2022	15:54	-132.618	49.516	0	438.10	0	4.3240	0	34.0090	0	26.968	0	433.904	0	41.5	4	13.2	4	-1E+10	1	-1E+10	1	-1E+10	1	-1E+10	1	-1E+10	1	-1E+10	1
4902551	55	C	02/16/2022	15:54	-132.618	49.516	0	442.90	0	4.3190	0	34.0110	0	26.970	0	438.653	0	40.7	4	12.9	4	-1E+10	1	-1E+10	1	-1E+10	1	-1E+10	1	-1E+10	1	-1E+10	1
4902551	55	C	02/16/2022	15:54	-132.618	49.516	0	447.70	0	4.3120	0	34.0140	0	26.973	0	443.402	0	39.5	4	12.5	4	-1E+10	1	-1E+10	1	-1E+10	1	-1E+10	1	-1E+10	1	-1E+10	1
4902551	55	C	02/16/2022	15:54	-132.618	49.516	0	452.70	0	4.2860	0	34.0240	0	26.984	0	448.348	0	38.3	4	12.1	4	-1E+10	1	-1E+10	1	-1E+10	1	-1E+10	1	-1E+10	1	-1E+10	1
4902551	55	C	02/16/2022	15:54	-132.618	49.516	0	457.60	0	4.2800	0	34.0290	0	26.988	0	453.196	0	37.2	4	11.8	4	-1E+10	1	-1E+10	1	-1E+10	1	-1E+10	1	-1E+10	1	-1E+10	1
4902551	55	C	02/16/2022	15:54	-132.618	49.516	0	463.00	0	4.2770	0	34.0330	0	26.992	0	458.538	0	36.3	4	11.5	4	-1E+10	1	-1E+10	1	-1E+10	1	-1E+10	1	-1E+10	1	-1E+10	1
4902551	55	C	02/16/2022	15:54	-132.618	49.516	0	468.20	0	4.2720	0	34.0350	0	26.994	0	463.682	0	35.8	4	11.4	4	-1E+10	1	-1E+10	1	-1E+10	1	-1E+10	1	-1E+10	1	-1E+10	1
4902551	55	C	02/16/2022	15:54	-132.618	49.516	0	473.30	0	4.2610	0	34.0390	0	26.998	0	468.727	0	35.3	4	11.2	4	-1E+10	1	-1E+10	1	-1E+10	1	-1E+10	1	-1E+10	1	-1E+10	1
4902551	55	C	02/16/2022	15:54	-132.618	49.516	0	477.90	0	4.2570	0	34.0410	0	27.000	0	473.277	0	34.7	4	11.0	4	-1E+10	1	-1E+10	1	-1E+10	1	-1E+10	1	-1E+10	1	-1E+10	1
4902551	55	C	02/16/2022	15:54	-132.618	49.516	0	482.60	0	4.2480	0	34.0440	0	27.004	0	477.926	0	33.7	4	10.7	4	-1E+10	1	-1E+10	1	-1E+10	1	-1E+10	1	-1E+10	1	-1E+10	1
4902551	55	C	02/16/2022	15:54	-132.618	49.516	0	487.80	0	4.2360	0	34.0500	0	27.010	0	483.070	0	32.3	4	10.3	4	-1E+10	1	-1E+10	1	-1E+10	1	-1E+10	1	-1E+10	1	-1E+10	1
4902551	55	C	02/16/2022	15:54	-132.618	49.516	0	493.00	0	4.2100	0	34.0610	0	27.021	0	488.213	0	31.1	4	9.9	4	-1E+10	1	-1E+10	1	-1E+10	1	-1E+10	1	-1E+10	1	-1E+10	1
4902551	55	C	02/16/2022	15:54	-132.618	49.516	0	497.80	0	4.1900	0	34.0700	0	27.031	0	492.961	0	30.4	4	9.6	4	-1E+10	1	-1E+10	1	-1E+10	1	-1E+10	1	-1E+10	1	-1E+10	1
4902551	55	C	02/16/2022	15:54	-132.618	49.516	0	502.80	0	4.1820	0	34.0740	0	27.035	0	497.907	0	29.9	4	9.5	4	-1E+10	1	-1E+10	1	-1E+10	1	-1E+10	1	-1E+10	1	-1E+10	1
4902551	55	C	02/16/2022	15:54	-132.618	49.516	0	508.00	0	4.1730	0	34.0770	0	27.038	0	503.050	0	29.4	4	9.3	4	-1E+10	1	-1E+10	1	-1E+10	1	-1E+10	1	-1E+10	1	-1E+10	1
4902551	55	C	02/16/2022	15:54	-132.618	49.516	0	512.70	0	4.1630	0	34.0810	0	27.042	0	507.698	0	28.9	4	9.2	4	-1E+10	1	-1E+10	1	-1E+10	1	-1E+10	1	-1E+10	1	-1E+10	1
4902551	55	C	02/16/2022	15:54	-132.618	49.516	0	517.90	0	4.1550	0	34.0840	0	27.045	0	512.841	0	28.5	4	9.0	4	-1E+10	1	-1E+10	1	-1E+10	1	-1E+10	1	-1E+10	1	-1E+10	1
4902551	55	C	02/16/2022	15:54	-132.618	49.516	0	522.90	0	4.1390	0	34.0900	0	27.052	0	517.786	0	28.4	4	9.0	4	-1E+10	1	-1E+10	1	-1E+10	1	-1E+10	1	-1E+10	1	-1E+10	1
4902551	55	C	02/16/2022	15:54	-132.618	49.516	0	527.70	0	4.1230	0	34.0940	0	27.057	0	522.533	0	28.5	4	9.0	4	-1E+10	1	-1E+10	1	-1E+10	1	-1E+10	1	-1E+10	1	-1E+10	1
4902551	55	C	02/16/2022	15:54	-132.618	49.516	0	532.70	0	4.1160	0	34.0950	0	27.058	0	527.478	0	28.7	4	9.1	4	-1E+10	1	-1E+10	1	-1E+10	1	-1E+10	1	-1E+10	1	-1E+10	1
4902551	55	C	02/16/2022	15:54	-132.618	49.516	0	537.90	0	4.0990	0	34.0970	0	27.062	0	532.620	0	28.5	4	9.0	4	-1E+10	1	-1E+10	1	-1E+10	1	-1E+10	1	-1E+10	1	-1E+10	1
4902551	55	C	02/16/2022	15:54	-132.618	49.516	0	542.90	0	4.0750	0	34.1030	0	27.069	0	537.564	0	27.7	4	8.7	4	-1E+10	1	-1E+10	1	-1E+10	1	-1E+10	1	-1E+10	1	-1E+10	1
4902551	55	C	02/16/2022	15:54	-132.618	49.516	0	547.90	0	4.0550	0	34.1110	0	27.077	0	542.509	0	26.9	4	8.5	4	-1E+10	1	-1E+10	1	-1E+10	1	-1E+10	1	-1E+10	1	-1E+10	1
4902551	55	C	02/16/2022	15:54	-132.618	49.516	0	553.00	0	4.0470	0	34.1140	0	27.081	0	547.552	0	26.3	4	8.3	4	-1E+10	1	-1E+10	1	-1E+10	1	-1E+10	1	-1E+10	1	-1E+10	1
4902551	55	C	02/16/2022	15:54	-132.618	49.516	0	557.60	0	4.0250	0	34.1210	0	27.089	0	552.100	0	25.8	4	8.1	4	-1E+10	1	-1E+10	1	-1E+10	1	-1E+10	1	-1E+10	1	-1E+10	1
4902551	55	C	02/16/2022	15:54	-132.618	49.516	0	562.80	0	4.0110	0	34.1260	0	27.094	0	557.242	0	25.2	4	7.9	4	-1E+10	1	-1E+10	1	-1E+10	1	-1E+10	1	-1E+10	1	-1E+10	1
4902551	55	C	02/16/2022	15:54	-132.618	49.516	0	568.10	0	4.0040	0	34.1280	0	27.096	0	562.483	0	24.4	4	7.7	4	-1E+10	1	-1E+10	1	-1E+10	1	-1E+10	1	-1E+10	1	-1E+10	1
4902551	55	C	02/16/2022	15:54	-132.618	49.516	0	573.00	0	3.9810	0	34.1370	0	27.106	0	567.328	0	23.8	4	7.5	4	-1E+10	1	-1E+10	1	-1E+10	1	-1E+10	1	-1E+10	1	-1E+10	1
4902551	55	C	02/16/2022	15:54	-132.618	49.516	0	577.90	0	3.9740	0	34.1400	0	27.109	0	572.172	0	23.5	4	7.4	4	-1E+10	1	-1E+10	1	-1E+10	1	-1E+10	1	-1E+10	1	-1E+10	1
4902551	55	C	02/16/2022	15:54	-132.618	49.516	0	583.00	0	3.9710	0	34.1410	0	27.110	0	577.215	0	23.2	4	7.3	4	-1E+10	1	-1E+10	1	-1E+10	1	-1E+10	1	-1E+10	1	-1E+10	1
4902551	55	C	02/16/2022	15:54	-132.618	49.516	0	588.10	0	3.9610	0	34.1440	0	27.114	0	582.257	0	22.8	4	7.2	4	-1E+10	1	-1E+10	1	-1E+10	1	-1E+10	1	-1E+10	1	-1E+10	1
4902551	55	C	02/16/2022	15:54	-132.618	49.516	0	592.90	0	3.9470	0	34.1480	0	27.118	0	587.003	0	22.6	4	7.1	4	-1E+10	1	-1E+10	1	-1E+10	1	-1E+10	1	-1E+10	1	-1E+10	1
4902551	55	C	02/16/2022	15:54	-132.618	49.516	0	597.70	0	3.9230	0	34.1550	0	27.126	0	591.748	0	22.5	4	7.1	4	-1E+10	1	-1E+10	1	-1E+10	1	-1E+10	1	-1E+10	1	-1E+10	1
4902551	55	C	02/16/2022	15:54	-132.618	49.516	0	603.00	0	3.9120	0	34.1580	0	27.130	0	596.988	0	22.3	4	7.0	4	-1E+10	1	-1E+10	1	-1E+10	1	-1E+10	1	-1E+10	1	-1E+10	1
4902551	55	C	02/16/2022	15:54	-132.618	49.516	0	607.90	0	3.9110	0	34.1590	0	27.131	0	601.832	0	22.0	4	6.9	4	-1E+10	1	-1E+10	1	-1E+10	1	-1E+10	1	-1E+10	1	-1E+10	1
4902551	55	C	02/16/2022	15:54	-132.618	49.516	0	612.80	0	3.9060	0	34.1600	0	27.132	0	606.676	0	21.7	4	6.8	4	-1E+10	1	-1E+10	1	-1E+10	1	-1E+10	1	-1E+10	1	-1E+10	1
4902551	55	C	02/16/2022	15:54	-132.618	49.516	0	617.60	0	3.8990	0	34.1630	0	27.135	0	611.421	0	21.4	4	6.7	4	-1E+10	1	-1E+10	1	-1E+10	1	-1E+10	1	-1E+10	1	-1E+10	1
4902551	55	C	02/16/2022	15:54	-132.618	49.516	0	622.60	0	3.8870	0	34.1660	0	27.139	0	616.363	0	21.2	4	6.7	4	-1E+10	1	-1E+10	1	-1E+10	1	-1E+10	1	-1E+10	1	-1E+10	1
4902551	55	C	02/16/2022	15:54	-132.618	49.516	0	628.10	0	3.8720	0	34.1700	0	27.144	0	621.800	0	20.9	4	6.6	4	-1E+10	1	-1E+10	1	-1E+10	1	-1E+10	1	-1E+10	1	-1E+10	1
4902551	55	C	02/16/2022	15:54	-132.618	49.516	0	633.00	0	3.8590	0	34.1740	0	27.148	0	626.643	0	20.7	4	6.5	4	-1E+10	1	-1E+10	1	-1E+10	1	-1E+10	1	-1E+10	1	-1E+10	1
4902551	55	C	02/16/2022	15:54	-132.618	49.516	0	637.90	0	3.8420	0	34.1780	0	27.153	0	631.487	0	20.5	4	6.4	4	-1E+10	1	-1E+10	1	-1E+10	1	-1E+10	1	-1E+10	1	-1E+10	1
4902551	55	C	02/16/2022	15:54	-132.618	49.516	0	643.00	0	3.8300	0	34.1820	0	27.157	0	636.528	0	20.3	4	6.4	4	-1E+10	1	-1E+10	1	-1E+10	1	-1E+10	1	-1E+10	1	-1E+10	1
4902551	55	C	02/16/2022	15:54	-132.618	49.516	0	648.10	0	3.8220	0	34.1840	0	27.160	0	641.568	0	20.2	4	6.3	4	-1E+10	1	-1E+10	1	-1E+10	1	-1E+10	1	-1E+10	1	-1E+10	1
4902551	55	C	02/16/2022	15:54	-132.618	49.516	0	653.20	0	3.8130	0	34.1870	0	27.163	0	646.609	0	20.1	4	6.3	4	-1E+10	1	-1E+10	1	-1E+10	1	-1E+10	1	-1E+10	1	-1E+10	1
4902551	55	C	02/16/2022	15:54	-132.618	49.516	0	657.60	0	3.8110	0	34.1870	0	27.163	0	650.958	0	20.0	4	6.3	4	-1E+10	1	-1E+10	1	-1E+10	1	-1E+10	1	-1E+10	1	-1E+10	1
4902551	55	C	02/16/2022	15:54	-132.618	49.516	0	662.70	0	3.8050	0	34.1890	0	27.166	0	655.998	0	19.8	4	6.2	4	-1E+10	1	-1E+10	1	-1E+10	1	-1E+10	1	-1E+10	1	-1E+10	1
4902551	55	C	02/16/2022	15:54	-132.618	49.516	0	667.60	0	3.7970	0	34.1910	0	27.168	0	660.841	0	19.7	4	6.2	4	-1E+10	1	-1E+10	1	-1E+10	1	-1E+10	1	-1E+10	1	-1E+10	1
4902551	55	C	02/16/2022	15:54	-132.618	49.516	0	672.70	0	3.7920	0	34.1920	0	27.169	0	665.881	0	19.7	4	6.2	4	-1E+10	1	-1E+10	1	-1E+10	1	-1E+10	1	-1E+10	1	-1E+10	1
4902551	55	C	02/16/2022	15:54	-132.618	49.516	0	678.10	0	3.7880	0	34.1930	0	27.171	0	671.218	0	19.5	4	6.1	4	-1E+10	1	-1E+10	1	-1E+10	1	-1E+10	1	-1E+10	1	-1E+10	1
4902551	55	C	02/16/2022	15:54	-132.618	49.516	0	682.90	0	3.7780	0	34.1950	0	27.173	0	675.961	0	19.4	4	6.1	4	-1E+10	1	-1E+10	1	-1E+10	1	-1E+10	1	-1E+10	1	-1E+10	1
4902551	55	C	02/16/2022	15:54	-132.618	49.516	0	687.60	0	3.7660	0	34.1980	0	27.177	0	680.606	0	19.2	4	6.0	4	-1E+10	1	-1E+10	1	-1E+10	1	-1E+10	1	-1E+10	1	-1E+10	1
4902551	55	C	02/16/2022	15:54	-132.618	49.516	0	692.90	0	3.7550	0	34.2010	0	27.180	0	685.843	0	19.0	4	6.0	4	-1E+10	1	-1E+10	1	-1E+10	1	-1E+10	1	-1E+10	1	-1E+10	1
4902551	55	C	02/16/2022	15:54	-132.618	49.516	0	697.80	0	3.7380	0	34.2040	0	27.184	0	690.685	0	18.7	4	5.9	4	-1E+10	1	-1E+10	1	-1E+10	1	-1E+10	1	-1E+10	1	-1E+10	1
4902551	55	C	02/16/2022	15:54	-132.618	49.516	0	702.60	0	3.7080	0	34.2120	0	27.194	0	695.428	0	18.5	4	5.8	4	-1E+10	1	-1E+10	1	-1E+10	1	-1E+10	1	-1E+10	1	-1E+10	1
4902551	55	C	02/16/2022	15:54	-132.618	49.516	0	708.00	0	3.7000	0	34.2140	0	27.196	0	700.764	0	18.4	4	5.8	4	-1E+10	1	-1E+10	1	-1E+10	1	-1E+10	1	-1E+10	1	-1E+10	1
4902551	55	C	02/16/2022	15:54	-132.618	49.516	0	713.30	0	3.6970	0	34.2150	0	27.197	0	706.001	0	18.3	4	5.7	4	-1E+10	1	-1E+10	1	-1E+10	1	-1E+10	1	-1E+10	1	-1E+10	1
4902551	55	C	02/16/2022	15:54	-132.618	49.516	0	718.10	0	3.6880	0	34.2170	0	27.200	0	710.744	0	18.1	4	5.7	4	-1E+10	1	-1E+10	1	-1E+10	1	-1E+10	1	-1E+10	1	-1E+10	1
4902551	55	C	02/16/2022	15:54	-132.618	49.516	0	722.80	0	3.6820	0	34.2190	0	27.202	0	715.388	0	18.0	4	5.6	4	-1E+10	1	-1E+10	1	-1E+10	1	-1E+10	1	-1E+10	1	-1E+10	1
4902551	55	C	02/16/2022	15:54	-132.618	49.516	0	728.00	0	3.6680	0	34.2220	0	27.206	0	720.525	0	17.7	4	5.5	4	-1E+10	1	-1E+10	1	-1E+10	1	-1E+10	1	-1E+10	1	-1E+10	1
4902551	55	C	02/16/2022	15:54	-132.618	49.516	0	733.20	0	3.6420	0	34.2280	0	27.213	0	725.663	0	17.5	4	5.5	4	-1E+10	1	-1E+10	1	-1E+10	1	-1E+10	1	-1E+10	1	-1E+10	1
4902551	55	C	02/16/2022	15:54	-132.618	49.516	0	737.90	0	3.6280	0	34.2320	0	27.218	0	730.306	0	17.2	4	5.4	4	-1E+10	1	-1E+10	1	-1E+10	1	-1E+10	1	-1E+10	1	-1E+10	1
4902551	55	C	02/16/2022	15:54	-132.618	49.516	0	743.10	0	3.6060	0	34.2380	0	27.225	0	735.444	0	16.9	4	5.3	4	-1E+10	1	-1E+10	1	-1E+10	1	-1E+10	1	-1E+10	1	-1E+10	1
4902551	55	C	02/16/2022	15:54	-132.618	49.516	0	748.20	0	3.5930	0	34.2410	0	27.228	0	740.482	0	16.8	4	5.2	4	-1E+10	1	-1E+10	1	-1E+10	1	-1E+10	1	-1E+10	1	-1E+10	1
4902551	55	C	02/16/2022	15:54	-132.618	49.516	0	752.70	0	3.5870	0	34.2430	0	27.231	0	744.928	0	16.6	4	5.2	4	-1E+10	1	-1E+10	1	-1E+10	1	-1E+10	1	-1E+10	1	-1E+10	1
4902551	55	C	02/16/2022	15:54	-132.618	49.516	0	757.70	0	3.5840	0	34.2440	0	27.232	0	749.867	0	16.5	4	5.1	4	-1E+10	1	-1E+10	1	-1E+10	1	-1E+10	1	-1E+10	1	-1E+10	1
4902551	55	C	02/16/2022	15:54	-132.618	49.516	0	762.70	0	3.5840	0	34.2450	0	27.233	0	754.806	0	16.2	4	5.1	4	-1E+10	1	-1E+10	1	-1E+10	1	-1E+10	1	-1E+10	1	-1E+10	1
4902551	55	C	02/16/2022	15:54	-132.618	49.516	0	767.80	0	3.5750	0	34.2490	0	27.237	0	759.844	0	16.1	4	5.0	4	-1E+10	1	-1E+10	1	-1E+10	1	-1E+10	1	-1E+10	1	-1E+10	1
4902551	55	C	02/16/2022	15:54	-132.618	49.516	0	773.00	0	3.5520	0	34.2530	0	27.242	0	764.981	0	16.0	4	5.0	4	-1E+10	1	-1E+10	1	-1E+10	1	-1E+10	1	-1E+10	1	-1E+10	1
4902551	55	C	02/16/2022	15:54	-132.618	49.516	0	778.00	0	3.5430	0	34.2550	0	27.245	0	769.920	0	15.9	4	5.0	4	-1E+10	1	-1E+10	1	-1E+10	1	-1E+10	1	-1E+10	1	-1E+10	1
4902551	55	C	02/16/2022	15:54	-132.618	49.516	0	783.00	0	3.5400	0	34.2560	0	27.246	0	774.858	0	15.7	4	4.9	4	-1E+10	1	-1E+10	1	-1E+10	1	-1E+10	1	-1E+10	1	-1E+10	1
4902551	55	C	02/16/2022	15:54	-132.618	49.516	0	788.00	0	3.5320	0	34.2590	0	27.249	0	779.797	0	15.5	4	4.8	4	-1E+10	1	-1E+10	1	-1E+10	1	-1E+10	1	-1E+10	1	-1E+10	1
4902551	55	C	02/16/2022	15:54	-132.618	49.516	0	793.00	0	3.5290	0	34.2610	0	27.251	0	784.736	0	15.4	4	4.8	4	-1E+10	1	-1E+10	1	-1E+10	1	-1E+10	1	-1E+10	1	-1E+10	1
4902551	55	C	02/16/2022	15:54	-132.618	49.516	0	798.10	0	3.5280	0	34.2620	0	27.252	0	789.773	0	15.2	4	4.8	4	-1E+10	1	-1E+10	1	-1E+10	1	-1E+10	1	-1E+10	1	-1E+10	1
4902551	55	C	02/16/2022	15:54	-132.618	49.516	0	802.90	0	3.5210	0	34.2640	0	27.254	0	794.514	0	15.2	4	4.8	4	-1E+10	1	-1E+10	1	-1E+10	1	-1E+10	1	-1E+10	1	-1E+10	1
4902551	55	C	02/16/2022	15:54	-132.618	49.516	0	807.80	0	3.5030	0	34.2670	0	27.258	0	799.353	0	15.2	4	4.7	4	-1E+10	1	-1E+10	1	-1E+10	1	-1E+10	1	-1E+10	1	-1E+10	1
4902551	55	C	02/16/2022	15:54	-132.618	49.516	0	812.80	0	3.5000	0	34.2670	0	27.259	0	804.291	0	15.1	4	4.7	4	-1E+10	1	-1E+10	1	-1E+10	1	-1E+10	1	-1E+10	1	-1E+10	1
4902551	55	C	02/16/2022	15:54	-132.618	49.516	0	817.90	0	3.4950	0	34.2680	0	27.260	0	809.328	0	15.0	4	4.7	4	-1E+10	1	-1E+10	1	-1E+10	1	-1E+10	1	-1E+10	1	-1E+10	1
4902551	55	C	02/16/2022	15:54	-132.618	49.516	0	823.00	0	3.4720	0	34.2730	0	27.266	0	814.365	0	14.8	4	4.6	4	-1E+10	1	-1E+10	1	-1E+10	1	-1E+10	1	-1E+10	1	-1E+10	1
4902551	55	C	02/16/2022	15:54	-132.618	49.516	0	827.80	0	3.4530	0	34.2780	0	27.272	0	819.105	0	14.7	4	4.6	4	-1E+10	1	-1E+10	1	-1E+10	1	-1E+10	1	-1E+10	1	-1E+10	1
4902551	55	C	02/16/2022	15:54	-132.618	49.516	0	833.00	0	3.4420	0	34.2810	0	27.275	0	824.240	0	14.6	4	4.6	4	-1E+10	1	-1E+10	1	-1E+10	1	-1E+10	1	-1E+10	1	-1E+10	1
4902551	55	C	02/16/2022	15:54	-132.618	49.516	0	838.20	0	3.4380	0	34.2820	0	27.277	0	829.375	0	14.5	4	4.5	4	-1E+10	1	-1E+10	1	-1E+10	1	-1E+10	1	-1E+10	1	-1E+10	1
4902551	55	C	02/16/2022	15:54	-132.618	49.516	0	843.20	0	3.4210	0	34.2860	0	27.281	0	834.312	0	14.4	4	4.5	4	-1E+10	1	-1E+10	1	-1E+10	1	-1E+10	1	-1E+10	1	-1E+10	1
4902551	55	C	02/16/2022	15:54	-132.618	49.516	0	848.20	0	3.4150	0	34.2870	0	27.283	0	839.250	0	14.4	4	4.5	4	-1E+10	1	-1E+10	1	-1E+10	1	-1E+10	1	-1E+10	1	-1E+10	1
4902551	55	C	02/16/2022	15:54	-132.618	49.516	0	853.20	0	3.4120	0	34.2880	0	27.284	0	844.187	0	14.3	4	4.5	4	-1E+10	1	-1E+10	1	-1E+10	1	-1E+10	1	-1E+10	1	-1E+10	1
4902551	55	C	02/16/2022	15:54	-132.618	49.516	0	858.00	0	3.4070	0	34.2890	0	27.285	0	848.926	0	14.3	4	4.4	4	-1E+10	1	-1E+10	1	-1E+10	1	-1E+10	1	-1E+10	1	-1E+10	1
4902551	55	C	02/16/2022	15:54	-132.618	49.516	0	862.80	0	3.4050	0	34.2900	0	27.286	0	853.666	0	14.2	4	4.4	4	-1E+10	1	-1E+10	1	-1E+10	1	-1E+10	1	-1E+10	1	-1E+10	1
4902551	55	C	02/16/2022	15:54	-132.618	49.516	0	868.10	0	3.4000	0	34.2910	0	27.288	0	858.899	0	14.1	4	4.4	4	-1E+10	1	-1E+10	1	-1E+10	1	-1E+10	1	-1E+10	1	-1E+10	1
4902551	55	C	02/16/2022	15:54	-132.618	49.516	0	873.10	0	3.3870	0	34.2940	0	27.291	0	863.835	0	14.0	4	4.4	4	-1E+10	1	-1E+10	1	-1E+10	1	-1E+10	1	-1E+10	1	-1E+10	1
4902551	55	C	02/16/2022	15:54	-132.618	49.516	0	878.00	0	3.3770	0	34.2970	0	27.295	0	868.673	0	13.9	4	4.3	4	-1E+10	1	-1E+10	1	-1E+10	1	-1E+10	1	-1E+10	1	-1E+10	1
4902551	55	C	02/16/2022	15:54	-132.618	49.516	0	883.00	0	3.3680	0	34.2990	0	27.297	0	873.610	0	13.8	4	4.3	4	-1E+10	1	-1E+10	1	-1E+10	1	-1E+10	1	-1E+10	1	-1E+10	1
4902551	55	C	02/16/2022	15:54	-132.618	49.516	0	888.00	0	3.3660	0	34.3000	0	27.298	0	878.546	0	13.7	4	4.3	4	-1E+10	1	-1E+10	1	-1E+10	1	-1E+10	1	-1E+10	1	-1E+10	1
4902551	55	C	02/16/2022	15:54	-132.618	49.516	0	893.00	0	3.3480	0	34.3040	0	27.303	0	883.482	0	13.6	4	4.2	4	-1E+10	1	-1E+10	1	-1E+10	1	-1E+10	1	-1E+10	1	-1E+10	1
4902551	55	C	02/16/2022	15:54	-132.618	49.516	0	898.10	0	3.3420	0	34.3060	0	27.305	0	888.517	0	13.6	4	4.2	4	-1E+10	1	-1E+10	1	-1E+10	1	-1E+10	1	-1E+10	1	-1E+10	1
4902551	55	C	02/16/2022	15:54	-132.618	49.516	0	903.00	0	3.3400	0	34.3070	0	27.306	0	893.354	0	13.5	4	4.2	4	-1E+10	1	-1E+10	1	-1E+10	1	-1E+10	1	-1E+10	1	-1E+10	1
4902551	55	C	02/16/2022	15:54	-132.618	49.516	0	907.80	0	3.3320	0	34.3090	0	27.309	0	898.093	0	13.3	4	4.1	4	-1E+10	1	-1E+10	1	-1E+10	1	-1E+10	1	-1E+10	1	-1E+10	1
4902551	55	C	02/16/2022	15:54	-132.618	49.516	0	912.90	0	3.3200	0	34.3130	0	27.313	0	903.127	0	13.2	4	4.1	4	-1E+10	1	-1E+10	1	-1E+10	1	-1E+10	1	-1E+10	1	-1E+10	1
4902551	55	C	02/16/2022	15:54	-132.618	49.516	0	917.80	0	3.3160	0	34.3150	0	27.315	0	907.964	0	13.1	4	4.1	4	-1E+10	1	-1E+10	1	-1E+10	1	-1E+10	1	-1E+10	1	-1E+10	1
4902551	55	C	02/16/2022	15:54	-132.618	49.516	0	922.60	0	3.3060	0	34.3180	0	27.318	0	912.702	0	13.1	4	4.1	4	-1E+10	1	-1E+10	1	-1E+10	1	-1E+10	1	-1E+10	1	-1E+10	1
4902551	55	C	02/16/2022	15:54	-132.618	49.516	0	927.80	0	3.2980	0	34.3200	0	27.321	0	917.835	0	13.1	4	4.1	4	-1E+10	1	-1E+10	1	-1E+10	1	-1E+10	1	-1E+10	1	-1E+10	1
4902551	55	C	02/16/2022	15:54	-132.618	49.516	0	932.90	0	3.2830	0	34.3230	0	27.325	0	922.869	0	13.1	4	4.1	4	-1E+10	1	-1E+10	1	-1E+10	1	-1E+10	1	-1E+10	1	-1E+10	1
4902551	55	C	02/16/2022	15:54	-132.618	49.516	0	938.00	0	3.2760	0	34.3240	0	27.326	0	927.903	0	13.1	4	4.1	4	-1E+10	1	-1E+10	1	-1E+10	1	-1E+10	1	-1E+10	1	-1E+10	1
4902551	55	C	02/16/2022	15:54	-132.618	49.516	0	942.80	0	3.2650	0	34.3260	0	27.329	0	932.641	0	13.1	4	4.1	4	-1E+10	1	-1E+10	1	-1E+10	1	-1E+10	1	-1E+10	1	-1E+10	1
4902551	55	C	02/16/2022	15:54	-132.618	49.516	0	947.70	0	3.2620	0	34.3260	0	27.329	0	937.477	0	13.1	4	4.1	4	-1E+10	1	-1E+10	1	-1E+10	1	-1E+10	1	-1E+10	1	-1E+10	1
4902551	55	C	02/16/2022	15:54	-132.618	49.516	0	952.90	0	3.2470	0	34.3280	0	27.332	0	942.609	0	13.1	4	4.1	4	-1E+10	1	-1E+10	1	-1E+10	1	-1E+10	1	-1E+10	1	-1E+10	1
4902551	55	C	02/16/2022	15:54	-132.618	49.516	0	958.10	0	3.2180	0	34.3340	0	27.340	0	947.741	0	13.1	4	4.1	4	-1E+10	1	-1E+10	1	-1E+10	1	-1E+10	1	-1E+10	1	-1E+10	1
4902551	55	C	02/16/2022	15:54	-132.618	49.516	0	963.20	0	3.2120	0	34.3350	0	27.341	0	952.774	0	13.1	4	4.1	4	-1E+10	1	-1E+10	1	-1E+10	1	-1E+10	1	-1E+10	1	-1E+10	1
4902551	55	C	02/16/2022	15:54	-132.618	49.516	0	967.90	0	3.2080	0	34.3360	0	27.342	0	957.413	0	13.1	4	4.1	4	-1E+10	1	-1E+10	1	-1E+10	1	-1E+10	1	-1E+10	1	-1E+10	1
4902551	55	C	02/16/2022	15:54	-132.618	49.516	0	972.60	0	3.1930	0	34.3390	0	27.346	0	962.051	0	13.1	4	4.1	4	-1E+10	1	-1E+10	1	-1E+10	1	-1E+10	1	-1E+10	1	-1E+10	1
4902551	55	C	02/16/2022	15:54	-132.618	49.516	0	977.80	0	3.1700	0	34.3440	0	27.352	0	967.183	0	13.0	4	4.0	4	-1E+10	1	-1E+10	1	-1E+10	1	-1E+10	1	-1E+10	1	-1E+10	1
4902551	55	C	02/16/2022	15:54	-132.618	49.516	0	983.10	0	3.1620	0	34.3460	0	27.354	0	972.413	0	13.0	4	4.0	4	-1E+10	1	-1E+10	1	-1E+10	1	-1E+10	1	-1E+10	1	-1E+10	1
4902551	55	C	02/16/2022	15:54	-132.618	49.516	0	987.80	0	3.1510	0	34.3480	0	27.357	0	977.051	0	13.0	4	4.0	4	-1E+10	1	-1E+10	1	-1E+10	1	-1E+10	1	-1E+10	1	-1E+10	1
4902551	55	C	02/16/2022	15:54	-132.618	49.516	0	992.70	0	3.1360	0	34.3510	0	27.361	0	981.886	0	12.9	4	4.0	4	-1E+10	1	-1E+10	1	-1E+10	1	-1E+10	1	-1E+10	1	-1E+10	1
4902551	55	C	02/16/2022	15:54	-132.618	49.516	0	997.70	0	3.1310	0	34.3530	0	27.363	0	986.820	0	12.9	4	4.0	4	-1E+10	1	-1E+10	1	-1E+10	1	-1E+10	1	-1E+10	1	-1E+10	1
4902551	55	C	02/16/2022	15:54	-132.618	49.516	0	1005.00	0	3.1070	0	34.3580	0	27.369	0	994.023	0	12.9	4	4.0	4	-1E+10	1	-1E+10	1	-1E+10	1	-1E+10	1	-1E+10	1	-1E+10	1
4902551	55	C	02/16/2022	15:54	-132.618	49.516	0	1015.30	0	3.0910	0	34.3610	0	27.373	0	1004.186	0	12.9	4	4.0	4	-1E+10	1	-1E+10	1	-1E+10	1	-1E+10	1	-1E+10	1	-1E+10	1
4902551	55	C	02/16/2022	15:54	-132.618	49.516	0	1025.40	0	3.0810	0	34.3630	0	27.376	0	1014.151	0	12.9	4	4.0	4	-1E+10	1	-1E+10	1	-1E+10	1	-1E+10	1	-1E+10	1	-1E+10	1
4902551	55	C	02/16/2022	15:54	-132.618	49.516	0	1035.30	0	3.0650	0	34.3660	0	27.380	0	1023.918	0	12.9	4	4.0	4	-1E+10	1	-1E+10	1	-1E+10	1	-1E+10	1	-1E+10	1	-1E+10	1
4902551	55	C	02/16/2022	15:54	-132.618	49.516	0	1045.70	0	3.0450	0	34.3700	0	27.385	0	1034.178	0	12.9	4	4.0	4	-1E+10	1	-1E+10	1	-1E+10	1	-1E+10	1	-1E+10	1	-1E+10	1
4902551	55	C	02/16/2022	15:54	-132.618	49.516	0	1055.40	0	3.0380	0	34.3720	0	27.387	0	1043.747	0	12.9	4	4.0	4	-1E+10	1	-1E+10	1	-1E+10	1	-1E+10	1	-1E+10	1	-1E+10	1
4902551	55	C	02/16/2022	15:54	-132.618	49.516	0	1065.00	0	3.0250	0	34.3750	0	27.391	0	1053.217	0	12.8	4	4.0	4	-1E+10	1	-1E+10	1	-1E+10	1	-1E+10	1	-1E+10	1	-1E+10	1
4902551	55	C	02/16/2022	15:54	-132.618	49.516	0	1075.00	0	3.0080	0	34.3780	0	27.395	0	1063.081	0	12.9	4	4.0	4	-1E+10	1	-1E+10	1	-1E+10	1	-1E+10	1	-1E+10	1	-1E+10	1
4902551	55	C	02/16/2022	15:54	-132.618	49.516	0	1085.30	0	2.9990	0	34.3800	0	27.397	0	1073.240	0	12.9	4	4.0	4	-1E+10	1	-1E+10	1	-1E+10	1	-1E+10	1	-1E+10	1	-1E+10	1
4902551	55	C	02/16/2022	15:54	-132.618	49.516	0	1095.50	0	2.9940	0	34.3810	0	27.398	0	1083.301	0	12.9	4	4.0	4	-1E+10	1	-1E+10	1	-1E+10	1	-1E+10	1	-1E+10	1	-1E+10	1
4902551	55	C	02/16/2022	15:54	-132.618	49.516	0	1105.50	0	2.9800	0	34.3840	0	27.402	0	1093.163	0	12.9	4	4.0	4	-1E+10	1	-1E+10	1	-1E+10	1	-1E+10	1	-1E+10	1	-1E+10	1
4902551	55	C	02/16/2022	15:54	-132.618	49.516	0	1115.70	0	2.9650	0	34.3870	0	27.406	0	1103.223	0	13.0	4	4.0	4	-1E+10	1	-1E+10	1	-1E+10	1	-1E+10	1	-1E+10	1	-1E+10	1
4902551	55	C	02/16/2022	15:54	-132.618	49.516	0	1125.70	0	2.9500	0	34.3900	0	27.410	0	1113.084	0	13.0	4	4.0	4	-1E+10	1	-1E+10	1	-1E+10	1	-1E+10	1	-1E+10	1	-1E+10	1
4902551	55	C	02/16/2022	15:54	-132.618	49.516	0	1135.20	0	2.9360	0	34.3920	0	27.413	0	1122.452	0	13.1	4	4.0	4	-1E+10	1	-1E+10	1	-1E+10	1	-1E+10	1	-1E+10	1	-1E+10	1
4902551	55	C	02/16/2022	15:54	-132.618	49.516	0	1145.20	0	2.9230	0	34.3950	0	27.416	0	1132.313	0	13.1	4	4.0	4	-1E+10	1	-1E+10	1	-1E+10	1	-1E+10	1	-1E+10	1	-1E+10	1
4902551	55	C	02/16/2022	15:54	-132.618	49.516	0	1155.60	0	2.9070	0	34.3980	0	27.420	0	1142.568	0	13.2	4	4.1	4	-1E+10	1	-1E+10	1	-1E+10	1	-1E+10	1	-1E+10	1	-1E+10	1
4902551	55	C	02/16/2022	15:54	-132.618	49.516	0	1165.70	0	2.8890	0	34.4010	0	27.424	0	1152.526	0	13.2	4	4.1	4	-1E+10	1	-1E+10	1	-1E+10	1	-1E+10	1	-1E+10	1	-1E+10	1
4902551	55	C	02/16/2022	15:54	-132.618	49.516	0	1175.70	0	2.8800	0	34.4030	0	27.427	0	1162.386	0	13.3	4	4.1	4	-1E+10	1	-1E+10	1	-1E+10	1	-1E+10	1	-1E+10	1	-1E+10	1
4902551	55	C	02/16/2022	15:54	-132.618	49.516	0	1185.70	0	2.8650	0	34.4060	0	27.430	0	1172.245	0	13.3	4	4.1	4	-1E+10	1	-1E+10	1	-1E+10	1	-1E+10	1	-1E+10	1	-1E+10	1
4902551	55	C	02/16/2022	15:54	-132.618	49.516	0	1195.30	0	2.8500	0	34.4090	0	27.434	0	1181.709	0	13.4	4	4.1	4	-1E+10	1	-1E+10	1	-1E+10	1	-1E+10	1	-1E+10	1	-1E+10	1
4902551	55	C	02/16/2022	15:54	-132.618	49.516	0	1205.50	0	2.8400	0	34.4120	0	27.437	0	1191.764	0	13.5	4	4.2	4	-1E+10	1	-1E+10	1	-1E+10	1	-1E+10	1	-1E+10	1	-1E+10	1
4902551	55	C	02/16/2022	15:54	-132.618	49.516	0	1215.70	0	2.8290	0	34.4140	0	27.440	0	1201.818	0	13.6	4	4.2	4	-1E+10	1	-1E+10	1	-1E+10	1	-1E+10	1	-1E+10	1	-1E+10	1
4902551	55	C	02/16/2022	15:54	-132.618	49.516	0	1225.50	0	2.8240	0	34.4150	0	27.441	0	1211.478	0	13.6	4	4.2	4	-1E+10	1	-1E+10	1	-1E+10	1	-1E+10	1	-1E+10	1	-1E+10	1
4902551	55	C	02/16/2022	15:54	-132.618	49.516	0	1235.30	0	2.8060	0	34.4180	0	27.445	0	1221.138	0	13.8	4	4.2	4	-1E+10	1	-1E+10	1	-1E+10	1	-1E+10	1	-1E+10	1	-1E+10	1
4902551	55	C	02/16/2022	15:54	-132.618	49.516	0	1245.20	0	2.7930	0	34.4210	0	27.449	0	1230.895	0	13.9	4	4.3	4	-1E+10	1	-1E+10	1	-1E+10	1	-1E+10	1	-1E+10	1	-1E+10	1
4902551	55	C	02/16/2022	15:54	-132.618	49.516	0	1255.30	0	2.7760	0	34.4240	0	27.453	0	1240.850	0	14.2	4	4.4	4	-1E+10	1	-1E+10	1	-1E+10	1	-1E+10	1	-1E+10	1	-1E+10	1
4902551	55	C	02/16/2022	15:54	-132.618	49.516	0	1265.60	0	2.7580	0	34.4270	0	27.457	0	1251.000	0	14.6	4	4.5	4	-1E+10	1	-1E+10	1	-1E+10	1	-1E+10	1	-1E+10	1	-1E+10	1
4902551	55	C	02/16/2022	15:54	-132.618	49.516	0	1275.60	0	2.7360	0	34.4310	0	27.462	0	1260.855	0	15.0	4	4.6	4	-1E+10	1	-1E+10	1	-1E+10	1	-1E+10	1	-1E+10	1	-1E+10	1
4902551	55	C	02/16/2022	15:54	-132.618	49.516	0	1285.40	0	2.7100	0	34.4360	0	27.468	0	1270.512	0	15.2	4	4.7	4	-1E+10	1	-1E+10	1	-1E+10	1	-1E+10	1	-1E+10	1	-1E+10	1
4902551	55	C	02/16/2022	15:54	-132.618	49.516	0	1295.30	0	2.6680	0	34.4430	0	27.478	0	1280.268	0	15.2	4	4.7	4	-1E+10	1	-1E+10	1	-1E+10	1	-1E+10	1	-1E+10	1	-1E+10	1
4902551	55	C	02/16/2022	15:54	-132.618	49.516	0	1305.30	0	2.6460	0	34.4470	0	27.483	0	1290.121	0	15.4	4	4.7	4	-1E+10	1	-1E+10	1	-1E+10	1	-1E+10	1	-1E+10	1	-1E+10	1
4902551	55	C	02/16/2022	15:54	-132.618	49.516	0	1315.70	0	2.6390	0	34.4490	0	27.485	0	1300.368	0	15.7	4	4.8	4	-1E+10	1	-1E+10	1	-1E+10	1	-1E+10	1	-1E+10	1	-1E+10	1
4902551	55	C	02/16/2022	15:54	-132.618	49.516	0	1325.60	0	2.6130	0	34.4540	0	27.491	0	1310.122	0	16.2	4	4.9	4	-1E+10	1	-1E+10	1	-1E+10	1	-1E+10	1	-1E+10	1	-1E+10	1
4902551	55	C	02/16/2022	15:54	-132.618	49.516	0	1335.20	0	2.5920	0	34.4570	0	27.496	0	1319.580	0	16.6	4	5.1	4	-1E+10	1	-1E+10	1	-1E+10	1	-1E+10	1	-1E+10	1	-1E+10	1
4902551	55	C	02/16/2022	15:54	-132.618	49.516	0	1345.20	0	2.5760	0	34.4600	0	27.499	0	1329.431	0	17.3	4	5.3	4	-1E+10	1	-1E+10	1	-1E+10	1	-1E+10	1	-1E+10	1	-1E+10	1
4902551	55	C	02/16/2022	15:54	-132.618	49.516	0	1355.60	0	2.5460	0	34.4650	0	27.506	0	1339.676	0	18.2	4	5.6	4	-1E+10	1	-1E+10	1	-1E+10	1	-1E+10	1	-1E+10	1	-1E+10	1
4902551	55	C	02/16/2022	15:54	-132.618	49.516	0	1365.50	0	2.5320	0	34.4680	0	27.510	0	1349.428	0	18.6	4	5.7	4	-1E+10	1	-1E+10	1	-1E+10	1	-1E+10	1	-1E+10	1	-1E+10	1
4902551	55	C	02/16/2022	15:54	-132.618	49.516	0	1375.60	0	2.5040	0	34.4730	0	27.516	0	1359.377	0	19.2	4	5.9	4	-1E+10	1	-1E+10	1	-1E+10	1	-1E+10	1	-1E+10	1	-1E+10	1
4902551	55	C	02/16/2022	15:54	-132.618	49.516	0	1385.60	0	2.4990	0	34.4740	0	27.517	0	1369.226	0	19.6	4	6.0	4	-1E+10	1	-1E+10	1	-1E+10	1	-1E+10	1	-1E+10	1	-1E+10	1
4902551	55	C	02/16/2022	15:54	-132.618	49.516	0	1395.40	0	2.4950	0	34.4740	0	27.518	0	1378.879	0	20.0	4	6.1	4	-1E+10	1	-1E+10	1	-1E+10	1	-1E+10	1	-1E+10	1	-1E+10	1
4902551	55	C	02/16/2022	15:54	-132.618	49.516	0	1405.30	0	2.4870	0	34.4760	0	27.520	0	1388.629	0	20.4	4	6.2	4	-1E+10	1	-1E+10	1	-1E+10	1	-1E+10	1	-1E+10	1	-1E+10	1
4902551	55	C	02/16/2022	15:54	-132.618	49.516	0	1415.30	0	2.4820	0	34.4770	0	27.521	0	1398.477	0	20.6	4	6.3	4	-1E+10	1	-1E+10	1	-1E+10	1	-1E+10	1	-1E+10	1	-1E+10	1
4902551	55	C	02/16/2022	15:54	-132.618	49.516	0	1425.30	0	2.4740	0	34.4790	0	27.524	0	1408.325	0	20.9	4	6.4	4	-1E+10	1	-1E+10	1	-1E+10	1	-1E+10	1	-1E+10	1	-1E+10	1
4902551	55	C	02/16/2022	15:54	-132.618	49.516	0	1435.60	0	2.4650	0	34.4810	0	27.526	0	1418.468	0	21.5	4	6.5	4	-1E+10	1	-1E+10	1	-1E+10	1	-1E+10	1	-1E+10	1	-1E+10	1
4902551	55	C	02/16/2022	15:54	-132.618	49.516	0	1445.40	0	2.4510	0	34.4840	0	27.530	0	1428.118	0	22.0	4	6.7	4	-1E+10	1	-1E+10	1	-1E+10	1	-1E+10	1	-1E+10	1	-1E+10	1
4902551	55	C	02/16/2022	15:54	-132.618	49.516	0	1455.00	0	2.4370	0	34.4860	0	27.532	0	1437.570	0	22.7	4	6.9	4	-1E+10	1	-1E+10	1	-1E+10	1	-1E+10	1	-1E+10	1	-1E+10	1
4902551	55	C	02/16/2022	15:54	-132.618	49.516	0	1465.30	0	2.3980	0	34.4930	0	27.541	0	1447.712	0	23.4	4	7.1	4	-1E+10	1	-1E+10	1	-1E+10	1	-1E+10	1	-1E+10	1	-1E+10	1
4902551	55	C	02/16/2022	15:54	-132.618	49.516	0	1475.20	0	2.3920	0	34.4940	0	27.543	0	1457.458	0	23.6	4	7.2	4	-1E+10	1	-1E+10	1	-1E+10	1	-1E+10	1	-1E+10	1	-1E+10	1
4902551	55	C	02/16/2022	15:54	-132.618	49.516	0	1485.70	0	2.3820	0	34.4960	0	27.545	0	1467.796	0	24.0	4	7.3	4	-1E+10	1	-1E+10	1	-1E+10	1	-1E+10	1	-1E+10	1	-1E+10	1
4902551	55	C	02/16/2022	15:54	-132.618	49.516	0	1495.60	0	2.3700	0	34.4980	0	27.548	0	1477.542	0	24.5	4	7.5	4	-1E+10	1	-1E+10	1	-1E+10	1	-1E+10	1	-1E+10	1	-1E+10	1
4902551	55	C	02/16/2022	15:54	-132.618	49.516	0	1505.20	0	2.3670	0	34.4990	0	27.549	0	1486.992	0	25.1	4	7.6	4	-1E+10	1	-1E+10	1	-1E+10	1	-1E+10	1	-1E+10	1	-1E+10	1
4902551	55	C	02/16/2022	15:54	-132.618	49.516	0	1515.30	0	2.3450	0	34.5030	0	27.554	0	1496.934	0	25.8	4	7.8	4	-1E+10	1	-1E+10	1	-1E+10	1	-1E+10	1	-1E+10	1	-1E+10	1
4902551	55	C	02/16/2022	15:54	-132.618	49.516	0	1525.20	0	2.3350	0	34.5050	0	27.556	0	1506.679	0	26.4	4	8.0	4	-1E+10	1	-1E+10	1	-1E+10	1	-1E+10	1	-1E+10	1	-1E+10	1
4902551	55	C	02/16/2022	15:54	-132.618	49.516	0	1535.40	0	2.3190	0	34.5080	0	27.560	0	1516.719	0	26.8	4	8.1	4	-1E+10	1	-1E+10	1	-1E+10	1	-1E+10	1	-1E+10	1	-1E+10	1
4902551	55	C	02/16/2022	15:54	-132.618	49.516	0	1545.40	0	2.3160	0	34.5090	0	27.561	0	1526.561	0	27.0	4	8.2	4	-1E+10	1	-1E+10	1	-1E+10	1	-1E+10	1	-1E+10	1	-1E+10	1
4902551	55	C	02/16/2022	15:54	-132.618	49.516	0	1555.20	0	2.3090	0	34.5100	0	27.563	0	1536.206	0	27.5	4	8.3	4	-1E+10	1	-1E+10	1	-1E+10	1	-1E+10	1	-1E+10	1	-1E+10	1
4902551	55	C	02/16/2022	15:54	-132.618	49.516	0	1565.60	0	2.3000	0	34.5120	0	27.565	0	1546.441	0	27.9	4	8.5	4	-1E+10	1	-1E+10	1	-1E+10	1	-1E+10	1	-1E+10	1	-1E+10	1
4902551	55	C	02/16/2022	15:54	-132.618	49.516	0	1575.40	0	2.2890	0	34.5140	0	27.568	0	1556.085	0	28.2	4	8.6	4	-1E+10	1	-1E+10	1	-1E+10	1	-1E+10	1	-1E+10	1	-1E+10	1
4902551	55	C	02/16/2022	15:54	-132.618	49.516	0	1585.10	0	2.2860	0	34.5150	0	27.569	0	1565.630	0	28.5	4	8.6	4	-1E+10	1	-1E+10	1	-1E+10	1	-1E+10	1	-1E+10	1	-1E+10	1
4902551	55	C	02/16/2022	15:54	-132.618	49.516	0	1595.40	0	2.2830	0	34.5150	0	27.569	0	1575.765	0	28.8	4	8.8	4	-1E+10	1	-1E+10	1	-1E+10	1	-1E+10	1	-1E+10	1	-1E+10	1
4902551	55	C	02/16/2022	15:54	-132.618	49.516	0	1605.70	0	2.2720	0	34.5170	0	27.572	0	1585.900	0	29.3	4	8.9	4	-1E+10	1	-1E+10	1	-1E+10	1	-1E+10	1	-1E+10	1	-1E+10	1
4902551	55	C	02/16/2022	15:54	-132.618	49.516	0	1615.30	0	2.2640	0	34.5190	0	27.574	0	1595.345	0	29.6	4	9.0	4	-1E+10	1	-1E+10	1	-1E+10	1	-1E+10	1	-1E+10	1	-1E+10	1
4902551	55	C	02/16/2022	15:54	-132.618	49.516	0	1625.30	0	2.2560	0	34.5200	0	27.575	0	1605.184	0	30.0	4	9.1	4	-1E+10	1	-1E+10	1	-1E+10	1	-1E+10	1	-1E+10	1	-1E+10	1
4902551	55	C	02/16/2022	15:54	-132.618	49.516	0	1635.60	0	2.2420	0	34.5230	0	27.579	0	1615.317	0	30.8	4	9.3	4	-1E+10	1	-1E+10	1	-1E+10	1	-1E+10	1	-1E+10	1	-1E+10	1
4902551	55	C	02/16/2022	15:54	-132.618	49.516	0	1645.70	0	2.2280	0	34.5260	0	27.583	0	1625.253	0	31.8	4	9.6	4	-1E+10	1	-1E+10	1	-1E+10	1	-1E+10	1	-1E+10	1	-1E+10	1
4902551	55	C	02/16/2022	15:54	-132.618	49.516	0	1655.80	0	2.2130	0	34.5290	0	27.586	0	1635.189	0	32.4	4	9.8	4	-1E+10	1	-1E+10	1	-1E+10	1	-1E+10	1	-1E+10	1	-1E+10	1
4902551	55	C	02/16/2022	15:54	-132.618	49.516	0	1665.50	0	2.2070	0	34.5300	0	27.588	0	1644.731	0	32.8	4	9.9	4	-1E+10	1	-1E+10	1	-1E+10	1	-1E+10	1	-1E+10	1	-1E+10	1
4902551	55	C	02/16/2022	15:54	-132.618	49.516	0	1675.60	0	2.2030	0	34.5310	0	27.589	0	1654.665	0	33.2	4	10.1	4	-1E+10	1	-1E+10	1	-1E+10	1	-1E+10	1	-1E+10	1	-1E+10	1
4902551	55	C	02/16/2022	15:54	-132.618	49.516	0	1685.80	0	2.1940	0	34.5330	0	27.591	0	1664.698	0	34.0	4	10.3	4	-1E+10	1	-1E+10	1	-1E+10	1	-1E+10	1	-1E+10	1	-1E+10	1
4902551	55	C	02/16/2022	15:54	-132.618	49.516	0	1695.40	0	2.1790	0	34.5360	0	27.595	0	1674.140	0	34.6	4	10.5	4	-1E+10	1	-1E+10	1	-1E+10	1	-1E+10	1	-1E+10	1	-1E+10	1
4902551	55	C	02/16/2022	15:54	-132.618	49.516	0	1705.20	0	2.1750	0	34.5360	0	27.595	0	1683.778	0	35.0	4	10.6	4	-1E+10	1	-1E+10	1	-1E+10	1	-1E+10	1	-1E+10	1	-1E+10	1
4902551	55	C	02/16/2022	15:54	-132.618	49.516	0	1715.40	0	2.1710	0	34.5370	0	27.596	0	1693.809	0	35.4	4	10.7	4	-1E+10	1	-1E+10	1	-1E+10	1	-1E+10	1	-1E+10	1	-1E+10	1
4902551	55	C	02/16/2022	15:54	-132.618	49.516	0	1725.60	0	2.1660	0	34.5380	0	27.598	0	1703.840	0	36.5	4	11.1	4	-1E+10	1	-1E+10	1	-1E+10	1	-1E+10	1	-1E+10	1	-1E+10	1
4902551	55	C	02/16/2022	15:54	-132.618	49.516	0	1736.00	0	2.1400	0	34.5430	0	27.604	0	1714.067	0	37.7	4	11.4	4	-1E+10	1	-1E+10	1	-1E+10	1	-1E+10	1	-1E+10	1	-1E+10	1
4902551	55	C	02/16/2022	15:54	-132.618	49.516	0	1745.40	0	2.1340	0	34.5450	0	27.606	0	1723.310	0	38.2	4	11.5	4	-1E+10	1	-1E+10	1	-1E+10	1	-1E+10	1	-1E+10	1	-1E+10	1
4902551	55	C	02/16/2022	15:54	-132.618	49.516	0	1755.30	0	2.1290	0	34.5460	0	27.607	0	1733.044	0	39.2	4	11.8	4	-1E+10	1	-1E+10	1	-1E+10	1	-1E+10	1	-1E+10	1	-1E+10	1
4902551	55	C	02/16/2022	15:54	-132.618	49.516	0	1765.30	0	2.1050	0	34.5500	0	27.612	0	1742.876	0	40.4	4	12.2	4	-1E+10	1	-1E+10	1	-1E+10	1	-1E+10	1	-1E+10	1	-1E+10	1
4902551	55	C	02/16/2022	15:54	-132.618	49.516	0	1775.30	0	2.0930	0	34.5520	0	27.615	0	1752.708	0	40.9	4	12.4	4	-1E+10	1	-1E+10	1	-1E+10	1	-1E+10	1	-1E+10	1	-1E+10	1
4902551	55	C	02/16/2022	15:54	-132.618	49.516	0	1785.20	0	2.0900	0	34.5530	0	27.616	0	1762.441	0	41.2	4	12.5	4	-1E+10	1	-1E+10	1	-1E+10	1	-1E+10	1	-1E+10	1	-1E+10	1
4902551	55	C	02/16/2022	15:54	-132.618	49.516	0	1795.20	0	2.0850	0	34.5540	0	27.617	0	1772.272	0	41.8	4	12.6	4	-1E+10	1	-1E+10	1	-1E+10	1	-1E+10	1	-1E+10	1	-1E+10	1
4902551	55	C	02/16/2022	15:54	-132.618	49.516	0	1805.50	0	2.0750	0	34.5560	0	27.620	0	1782.397	0	42.4	4	12.8	4	-1E+10	1	-1E+10	1	-1E+10	1	-1E+10	1	-1E+10	1	-1E+10	1
4902551	55	C	02/16/2022	15:54	-132.618	49.516	0	1815.50	0	2.0700	0	34.5570	0	27.621	0	1792.227	0	42.8	4	12.9	4	-1E+10	1	-1E+10	1	-1E+10	1	-1E+10	1	-1E+10	1	-1E+10	1
4902551	55	C	02/16/2022	15:54	-132.618	49.516	0	1825.10	0	2.0660	0	34.5580	0	27.622	0	1801.663	0	43.1	4	13.0	4	-1E+10	1	-1E+10	1	-1E+10	1	-1E+10	1	-1E+10	1	-1E+10	1
4902551	55	C	02/16/2022	15:54	-132.618	49.516	0	1835.30	0	2.0610	0	34.5590	0	27.623	0	1811.689	0	43.8	4	13.2	4	-1E+10	1	-1E+10	1	-1E+10	1	-1E+10	1	-1E+10	1	-1E+10	1
4902551	55	C	02/16/2022	15:54	-132.618	49.516	0	1845.40	0	2.0530	0	34.5600	0	27.625	0	1821.615	0	44.7	4	13.5	4	-1E+10	1	-1E+10	1	-1E+10	1	-1E+10	1	-1E+10	1	-1E+10	1
4902551	55	C	02/16/2022	15:54	-132.618	49.516	0	1855.50	0	2.0340	0	34.5640	0	27.630	0	1831.542	0	45.7	4	13.8	4	-1E+10	1	-1E+10	1	-1E+10	1	-1E+10	1	-1E+10	1	-1E+10	1
4902551	55	C	02/16/2022	15:54	-132.618	49.516	0	1865.70	0	2.0250	0	34.5660	0	27.632	0	1841.566	0	46.2	4	13.9	4	-1E+10	1	-1E+10	1	-1E+10	1	-1E+10	1	-1E+10	1	-1E+10	1
4902551	55	C	02/16/2022	15:54	-132.618	49.516	0	1873.50	0	2.0220	0	34.5660	0	27.632	0	1849.231	0	46.7	4	14.1	4	-1E+10	1	-1E+10	1	-1E+10	1	-1E+10	1	-1E+10	1	-1E+10	1
4902551	55	C	02/16/2022	15:54	-132.618	49.516	0																										
4902551	56	C	02/27/2022	00:12	-132.444	49.651	0	0.40	0	7.2080	0	32.3370	0	25.294	0	0.397	0	282.4	4	94.8	4	-1E+10	1	-1E+10	1	-1E+10	1	-1E+10	1	-1E+10	1	-1E+10	1
4902551	56	C	02/27/2022	00:12	-132.444	49.651	0	1.20	0	7.2060	0	32.3380	0	25.295	0	1.190	0	282.4	4	94.8	4	-1E+10	1	-1E+10	1	-1E+10	1	-1E+10	1	-1E+10	1	-1E+10	1
4902551	56	C	02/27/2022	00:12	-132.444	49.651	0	2.00	0	7.2060	0	32.3380	0	25.295	0	1.983	0	282.3	4	94.8	4	-1E+10	1	-1E+10	1	-1E+10	1	-1E+10	1	-1E+10	1	-1E+10	1
4902551	56	C	02/27/2022	00:12	-132.444	49.651	0	2.50	0	7.2060	0	32.3380	0	25.295	0	2.479	0	282.4	4	94.8	4	-1E+10	1	-1E+10	1	-1E+10	1	-1E+10	1	-1E+10	1	-1E+10	1
4902551	56	C	02/27/2022	00:12	-132.444	49.651	0	2.80	0	7.2060	0	32.3380	0	25.295	0	2.776	0	-1e10	1	-1e10	1	-1E+10	1	-1E+10	1	-1E+10	1	-1E+10	1	-1E+10	1	-1E+10	1
4902551	56	C	02/27/2022	00:12	-132.444	49.651	0	3.10	0	7.2055	0	32.3385	0	25.295	0	3.073	0	282.4	4	94.8	4	-1E+10	1	-1E+10	1	-1E+10	1	-1E+10	1	-1E+10	1	-1E+10	1
4902551	56	C	02/27/2022	00:12	-132.444	49.651	0	3.90	0	7.2040	0	32.3400	0	25.297	0	3.867	0	-1e10	1	-1e10	1	-1E+10	1	-1E+10	1	-1E+10	1	-1E+10	1	-1E+10	1	-1E+10	1
4902551	56	C	02/27/2022	00:12	-132.444	49.651	0	4.30	0	7.2032	0	32.3408	0	25.298	0	4.263	0	282.4	4	94.8	4	-1E+10	1	-1E+10	1	-1E+10	1	-1E+10	1	-1E+10	1	-1E+10	1
4902551	56	C	02/27/2022	00:12	-132.444	49.651	0	4.90	0	7.2020	0	32.3420	0	25.299	0	4.858	0	-1e10	1	-1e10	1	-1E+10	1	-1E+10	1	-1E+10	1	-1E+10	1	-1E+10	1	-1E+10	1
4902551	56	C	02/27/2022	00:12	-132.444	49.651	0	5.10	0	7.2020	0	32.3420	0	25.299	0	5.056	0	282.4	4	94.8	4	-1E+10	1	-1E+10	1	-1E+10	1	-1E+10	1	-1E+10	1	-1E+10	1
4902551	56	C	02/27/2022	00:12	-132.444	49.651	0	5.60	0	7.2020	0	32.3420	0	25.299	0	5.552	0	282.3	4	94.8	4	-1E+10	1	-1E+10	1	-1E+10	1	-1E+10	1	-1E+10	1	-1E+10	1
4902551	56	C	02/27/2022	00:12	-132.444	49.651	0	5.80	0	7.2020	0	32.3420	0	25.299	0	5.750	0	282.3	4	94.8	4	-1E+10	1	-1E+10	1	-1E+10	1	-1E+10	1	-1E+10	1	-1E+10	1
4902551	56	C	02/27/2022	00:12	-132.444	49.651	0	7.00	0	7.2030	0	32.3420	0	25.299	0	6.940	0	282.3	4	94.8	4	-1E+10	1	-1E+10	1	-1E+10	1	-1E+10	1	-1E+10	1	-1E+10	1
4902551	56	C	02/27/2022	00:12	-132.444	49.651	0	7.90	0	7.2020	0	32.3420	0	25.299	0	7.832	0	282.3	4	94.8	4	-1E+10	1	-1E+10	1	-1E+10	1	-1E+10	1	-1E+10	1	-1E+10	1
4902551	56	C	02/27/2022	00:12	-132.444	49.651	0	9.00	0	7.2020	0	32.3420	0	25.299	0	8.923	0	282.2	4	94.8	4	-1E+10	1	-1E+10	1	-1E+10	1	-1E+10	1	-1E+10	1	-1E+10	1
4902551	56	C	02/27/2022	00:12	-132.444	49.651	0	9.90	0	7.2030	0	32.3420	0	25.299	0	9.815	0	282.2	4	94.8	4	-1E+10	1	-1E+10	1	-1E+10	1	-1E+10	1	-1E+10	1	-1E+10	1
4902551	56	C	02/27/2022	00:12	-132.444	49.651	0	10.90	0	7.2020	0	32.3420	0	25.299	0	10.807	0	282.1	4	94.7	4	-1E+10	1	-1E+10	1	-1E+10	1	-1E+10	1	-1E+10	1	-1E+10	1
4902551	56	C	02/27/2022	00:12	-132.444	49.651	0	11.90	0	7.2020	0	32.3420	0	25.299	0	11.798	0	282.2	4	94.8	4	-1E+10	1	-1E+10	1	-1E+10	1	-1E+10	1	-1E+10	1	-1E+10	1
4902551	56	C	02/27/2022	00:12	-132.444	49.651	0	12.80	0	7.2030	0	32.3420	0	25.299	0	12.690	0	282.1	4	94.7	4	-1E+10	1	-1E+10	1	-1E+10	1	-1E+10	1	-1E+10	1	-1E+10	1
4902551	56	C	02/27/2022	00:12	-132.444	49.651	0	14.00	0	7.2030	0	32.3420	0	25.299	0	13.880	0	282.2	4	94.7	4	-1E+10	1	-1E+10	1	-1E+10	1	-1E+10	1	-1E+10	1	-1E+10	1
4902551	56	C	02/27/2022	00:12	-132.444	49.651	0	14.90	0	7.2040	0	32.3420	0	25.299	0	14.772	0	282.1	4	94.7	4	-1E+10	1	-1E+10	1	-1E+10	1	-1E+10	1	-1E+10	1	-1E+10	1
4902551	56	C	02/27/2022	00:12	-132.444	49.651	0	15.70	0	7.2030	0	32.3420	0	25.299	0	15.565	0	282.1	4	94.7	4	-1E+10	1	-1E+10	1	-1E+10	1	-1E+10	1	-1E+10	1	-1E+10	1
4902551	56	C	02/27/2022	00:12	-132.444	49.651	0	16.80	0	7.2030	0	32.3420	0	25.299	0	16.656	0	282.1	4	94.7	4	-1E+10	1	-1E+10	1	-1E+10	1	-1E+10	1	-1E+10	1	-1E+10	1
4902551	56	C	02/27/2022	00:12	-132.444	49.651	0	17.90	0	7.2040	0	32.3420	0	25.299	0	17.746	0	282.1	4	94.7	4	-1E+10	1	-1E+10	1	-1E+10	1	-1E+10	1	-1E+10	1	-1E+10	1
4902551	56	C	02/27/2022	00:12	-132.444	49.651	0	18.90	0	7.2040	0	32.3420	0	25.299	0	18.738	0	282.1	4	94.7	4	-1E+10	1	-1E+10	1	-1E+10	1	-1E+10	1	-1E+10	1	-1E+10	1
4902551	56	C	02/27/2022	00:12	-132.444	49.651	0	20.00	0	7.2040	0	32.3420	0	25.299	0	19.828	0	282.1	4	94.7	4	-1E+10	1	-1E+10	1	-1E+10	1	-1E+10	1	-1E+10	1	-1E+10	1
4902551	56	C	02/27/2022	00:12	-132.444	49.651	0	21.00	0	7.2030	0	32.3420	0	25.299	0	20.820	0	282.1	4	94.7	4	-1E+10	1	-1E+10	1	-1E+10	1	-1E+10	1	-1E+10	1	-1E+10	1
4902551	56	C	02/27/2022	00:12	-132.444	49.651	0	22.00	0	7.2040	0	32.3420	0	25.299	0	21.811	0	282.0	4	94.7	4	-1E+10	1	-1E+10	1	-1E+10	1	-1E+10	1	-1E+10	1	-1E+10	1
4902551	56	C	02/27/2022	00:12	-132.444	49.651	0	22.70	0	7.2040	0	32.3420	0	25.299	0	22.505	0	282.0	4	94.7	4	-1E+10	1	-1E+10	1	-1E+10	1	-1E+10	1	-1E+10	1	-1E+10	1
4902551	56	C	02/27/2022	00:12	-132.444	49.651	0	23.90	0	7.2040	0	32.3420	0	25.299	0	23.694	0	282.0	4	94.7	4	-1E+10	1	-1E+10	1	-1E+10	1	-1E+10	1	-1E+10	1	-1E+10	1
4902551	56	C	02/27/2022	00:12	-132.444	49.651	0	24.90	0	7.2040	0	32.3420	0	25.299	0	24.686	0	282.1	4	94.7	4	-1E+10	1	-1E+10	1	-1E+10	1	-1E+10	1	-1E+10	1	-1E+10	1
4902551	56	C	02/27/2022	00:12	-132.444	49.651	0	26.00	0	7.2050	0	32.3420	0	25.299	0	25.776	0	282.0	4	94.7	4	-1E+10	1	-1E+10	1	-1E+10	1	-1E+10	1	-1E+10	1	-1E+10	1
4902551	56	C	02/27/2022	00:12	-132.444	49.651	0	27.10	0	7.2050	0	32.3420	0	25.299	0	26.867	0	282.0	4	94.7	4	-1E+10	1	-1E+10	1	-1E+10	1	-1E+10	1	-1E+10	1	-1E+10	1
4902551	56	C	02/27/2022	00:12	-132.444	49.651	0	27.90	0	7.2050	0	32.3420	0	25.299	0	27.660	0	282.1	4	94.7	4	-1E+10	1	-1E+10	1	-1E+10	1	-1E+10	1	-1E+10	1	-1E+10	1
4902551	56	C	02/27/2022	00:12	-132.444	49.651	0	28.70	0	7.2050	0	32.3420	0	25.299	0	28.453	0	282.0	4	94.7	4	-1E+10	1	-1E+10	1	-1E+10	1	-1E+10	1	-1E+10	1	-1E+10	1
4902551	56	C	02/27/2022	00:12	-132.444	49.651	0	29.80	0	7.2070	0	32.3420	0	25.298	0	29.543	0	282.0	4	94.7	4	-1E+10	1	-1E+10	1	-1E+10	1	-1E+10	1	-1E+10	1	-1E+10	1
4902551	56	C	02/27/2022	00:12	-132.444	49.651	0	30.90	0	7.2060	0	32.3420	0	25.298	0	30.634	0	282.0	4	94.7	4	-1E+10	1	-1E+10	1	-1E+10	1	-1E+10	1	-1E+10	1	-1E+10	1
4902551	56	C	02/27/2022	00:12	-132.444	49.651	0	32.00	0	7.2080	0	32.3420	0	25.298	0	31.724	0	282.0	4	94.7	4	-1E+10	1	-1E+10	1	-1E+10	1	-1E+10	1	-1E+10	1	-1E+10	1
4902551	56	C	02/27/2022	00:12	-132.444	49.651	0	33.10	0	7.2100	0	32.3420	0	25.298	0	32.815	0	281.9	4	94.7	4	-1E+10	1	-1E+10	1	-1E+10	1	-1E+10	1	-1E+10	1	-1E+10	1
4902551	56	C	02/27/2022	00:12	-132.444	49.651	0	34.00	0	7.2100	0	32.3430	0	25.299	0	33.707	0	281.9	4	94.7	4	-1E+10	1	-1E+10	1	-1E+10	1	-1E+10	1	-1E+10	1	-1E+10	1
4902551	56	C	02/27/2022	00:12	-132.444	49.651	0	34.80	0	7.2090	0	32.3420	0	25.298	0	34.500	0	281.8	4	94.6	4	-1E+10	1	-1E+10	1	-1E+10	1	-1E+10	1	-1E+10	1	-1E+10	1
4902551	56	C	02/27/2022	00:12	-132.444	49.651	0	35.80	0	7.2100	0	32.3420	0	25.298	0	35.491	0	281.9	4	94.7	4	-1E+10	1	-1E+10	1	-1E+10	1	-1E+10	1	-1E+10	1	-1E+10	1
4902551	56	C	02/27/2022	00:12	-132.444	49.651	0	36.90	0	7.2100	0	32.3420	0	25.298	0	36.582	0	281.9	4	94.7	4	-1E+10	1	-1E+10	1	-1E+10	1	-1E+10	1	-1E+10	1	-1E+10	1
4902551	56	C	02/27/2022	00:12	-132.444	49.651	0	38.00	0	7.2090	0	32.3420	0	25.298	0	37.672	0	281.8	4	94.6	4	-1E+10	1	-1E+10	1	-1E+10	1	-1E+10	1	-1E+10	1	-1E+10	1
4902551	56	C	02/27/2022	00:12	-132.444	49.651	0	39.10	0	7.2070	0	32.3420	0	25.298	0	38.762	0	281.8	4	94.6	4	-1E+10	1	-1E+10	1	-1E+10	1	-1E+10	1	-1E+10	1	-1E+10	1
4902551	56	C	02/27/2022	00:12	-132.444	49.651	0	39.90	0	7.2090	0	32.3420	0	25.298	0	39.555	0	281.8	4	94.6	4	-1E+10	1	-1E+10	1	-1E+10	1	-1E+10	1	-1E+10	1	-1E+10	1
4902551	56	C	02/27/2022	00:12	-132.444	49.651	0	40.70	0	7.2090	0	32.3430	0	25.299	0	40.348	0	281.8	4	94.6	4	-1E+10	1	-1E+10	1	-1E+10	1	-1E+10	1	-1E+10	1	-1E+10	1
4902551	56	C	02/27/2022	00:12	-132.444	49.651	0	41.90	0	7.2090	0	32.3420	0	25.298	0	41.538	0	281.7	4	94.6	4	-1E+10	1	-1E+10	1	-1E+10	1	-1E+10	1	-1E+10	1	-1E+10	1
4902551	56	C	02/27/2022	00:12	-132.444	49.651	0	43.10	0	7.2090	0	32.3410	0	25.297	0	42.727	0	281.8	4	94.6	4	-1E+10	1	-1E+10	1	-1E+10	1	-1E+10	1	-1E+10	1	-1E+10	1
4902551	56	C	02/27/2022	00:12	-132.444	49.651	0	43.90	0	7.2080	0	32.3420	0	25.298	0	43.520	0	281.7	4	94.6	4	-1E+10	1	-1E+10	1	-1E+10	1	-1E+10	1	-1E+10	1	-1E+10	1
4902551	56	C	02/27/2022	00:12	-132.444	49.651	0	44.80	0	7.2070	0	32.3430	0	25.299	0	44.413	0	281.7	4	94.6	4	-1E+10	1	-1E+10	1	-1E+10	1	-1E+10	1	-1E+10	1	-1E+10	1
4902551	56	C	02/27/2022	00:12	-132.444	49.651	0	46.00	0	7.2070	0	32.3420	0	25.299	0	45.602	0	281.8	4	94.6	4	-1E+10	1	-1E+10	1	-1E+10	1	-1E+10	1	-1E+10	1	-1E+10	1
4902551	56	C	02/27/2022	00:12	-132.444	49.651	0	47.00	0	7.2050	0	32.3420	0	25.299	0	46.593	0	281.6	4	94.6	4	-1E+10	1	-1E+10	1	-1E+10	1	-1E+10	1	-1E+10	1	-1E+10	1
4902551	56	C	02/27/2022	00:12	-132.444	49.651	0	47.80	0	7.2050	0	32.3420	0	25.299	0	47.386	0	281.6	4	94.6	4	-1E+10	1	-1E+10	1	-1E+10	1	-1E+10	1	-1E+10	1	-1E+10	1
4902551	56	C	02/27/2022	00:12	-132.444	49.651	0	49.00	0	7.2070	0	32.3420	0	25.299	0	48.576	0	281.6	4	94.6	4	-1E+10	1	-1E+10	1	-1E+10	1	-1E+10	1	-1E+10	1	-1E+10	1
4902551	56	C	02/27/2022	00:12	-132.444	49.651	0	50.10	0	7.2060	0	32.3420	0	25.299	0	49.666	0	281.7	4	94.6	4	-1E+10	1	-1E+10	1	-1E+10	1	-1E+10	1	-1E+10	1	-1E+10	1
4902551	56	C	02/27/2022	00:12	-132.444	49.651	0	51.00	0	7.2060	0	32.3420	0	25.299	0	50.558	0	281.7	4	94.6	4	-1E+10	1	-1E+10	1	-1E+10	1	-1E+10	1	-1E+10	1	-1E+10	1
4902551	56	C	02/27/2022	00:12	-132.444	49.651	0	51.80	0	7.2070	0	32.3420	0	25.299	0	51.351	0	281.7	4	94.6	4	-1E+10	1	-1E+10	1	-1E+10	1	-1E+10	1	-1E+10	1	-1E+10	1
4902551	56	C	02/27/2022	00:12	-132.444	49.651	0	53.10	0	7.2070	0	32.3430	0	25.299	0	52.640	0	281.6	4	94.6	4	-1E+10	1	-1E+10	1	-1E+10	1	-1E+10	1	-1E+10	1	-1E+10	1
4902551	56	C	02/27/2022	00:12	-132.444	49.651	0	54.10	0	7.2080	0	32.3430	0	25.299	0	53.631	0	281.6	4	94.6	4	-1E+10	1	-1E+10	1	-1E+10	1	-1E+10	1	-1E+10	1	-1E+10	1
4902551	56	C	02/27/2022	00:12	-132.444	49.651	0	54.90	0	7.2080	0	32.3420	0	25.298	0	54.424	0	281.5	4	94.5	4	-1E+10	1	-1E+10	1	-1E+10	1	-1E+10	1	-1E+10	1	-1E+10	1
4902551	56	C	02/27/2022	00:12	-132.444	49.651	0	56.00	0	7.2080	0	32.3420	0	25.298	0	55.514	0	281.4	4	94.5	4	-1E+10	1	-1E+10	1	-1E+10	1	-1E+10	1	-1E+10	1	-1E+10	1
4902551	56	C	02/27/2022	00:12	-132.444	49.651	0	56.90	0	7.2090	0	32.3430	0	25.299	0	56.406	0	281.4	4	94.5	4	-1E+10	1	-1E+10	1	-1E+10	1	-1E+10	1	-1E+10	1	-1E+10	1
4902551	56	C	02/27/2022	00:12	-132.444	49.651	0	57.90	0	7.2100	0	32.3420	0	25.298	0	57.397	0	281.4	4	94.5	4	-1E+10	1	-1E+10	1	-1E+10	1	-1E+10	1	-1E+10	1	-1E+10	1
4902551	56	C	02/27/2022	00:12	-132.444	49.651	0	59.10	0	7.2090	0	32.3420	0	25.298	0	58.587	0	281.3	4	94.4	4	-1E+10	1	-1E+10	1	-1E+10	1	-1E+10	1	-1E+10	1	-1E+10	1
4902551	56	C	02/27/2022	00:12	-132.444	49.651	0	60.10	0	7.2060	0	32.3420	0	25.299	0	59.578	0	281.3	4	94.4	4	-1E+10	1	-1E+10	1	-1E+10	1	-1E+10	1	-1E+10	1	-1E+10	1
4902551	56	C	02/27/2022	00:12	-132.444	49.651	0	61.00	0	7.2080	0	32.3420	0	25.299	0	60.470	0	281.2	4	94.4	4	-1E+10	1	-1E+10	1	-1E+10	1	-1E+10	1	-1E+10	1	-1E+10	1
4902551	56	C	02/27/2022	00:12	-132.444	49.651	0	62.10	0	7.2090	0	32.3410	0	25.298	0	61.560	0	281.2	4	94.4	4	-1E+10	1	-1E+10	1	-1E+10	1	-1E+10	1	-1E+10	1	-1E+10	1
4902551	56	C	02/27/2022	00:12	-132.444	49.651	0	63.10	0	7.2100	0	32.3430	0	25.299	0	62.551	0	281.2	4	94.4	4	-1E+10	1	-1E+10	1	-1E+10	1	-1E+10	1	-1E+10	1	-1E+10	1
4902551	56	C	02/27/2022	00:12	-132.444	49.651	0	64.00	0	7.2120	0	32.3430	0	25.299	0	63.444	0	281.0	4	94.4	4	-1E+10	1	-1E+10	1	-1E+10	1	-1E+10	1	-1E+10	1	-1E+10	1
4902551	56	C	02/27/2022	00:12	-132.444	49.651	0	64.80	0	7.2120	0	32.3430	0	25.299	0	64.236	0	281.0	4	94.4	4	-1E+10	1	-1E+10	1	-1E+10	1	-1E+10	1	-1E+10	1	-1E+10	1
4902551	56	C	02/27/2022	00:12	-132.444	49.651	0	66.10	0	7.2060	0	32.3420	0	25.299	0	65.525	0	280.9	4	94.3	4	-1E+10	1	-1E+10	1	-1E+10	1	-1E+10	1	-1E+10	1	-1E+10	1
4902551	56	C	02/27/2022	00:12	-132.444	49.651	0	67.00	0	7.2060	0	32.3420	0	25.299	0	66.417	0	280.9	4	94.3	4	-1E+10	1	-1E+10	1	-1E+10	1	-1E+10	1	-1E+10	1	-1E+10	1
4902551	56	C	02/27/2022	00:12	-132.444	49.651	0	68.10	0	7.2060	0	32.3420	0	25.299	0	67.507	0	280.8	4	94.3	4	-1E+10	1	-1E+10	1	-1E+10	1	-1E+10	1	-1E+10	1	-1E+10	1
4902551	56	C	02/27/2022	00:12	-132.444	49.651	0	68.80	0	7.2060	0	32.3420	0	25.299	0	68.201	0	280.8	4	94.3	4	-1E+10	1	-1E+10	1	-1E+10	1	-1E+10	1	-1E+10	1	-1E+10	1
4902551	56	C	02/27/2022	00:12	-132.444	49.651	0	69.90	0	7.2060	0	32.3420	0	25.299	0	69.291	0	280.7	4	94.2	4	-1E+10	1	-1E+10	1	-1E+10	1	-1E+10	1	-1E+10	1	-1E+10	1
4902551	56	C	02/27/2022	00:12	-132.444	49.651	0	71.00	0	7.2060	0	32.3420	0	25.299	0	70.381	0	280.6	4	94.2	4	-1E+10	1	-1E+10	1	-1E+10	1	-1E+10	1	-1E+10	1	-1E+10	1
4902551	56	C	02/27/2022	00:12	-132.444	49.651	0	72.10	0	7.2070	0	32.3420	0	25.299	0	71.472	0	280.5	4	94.2	4	-1E+10	1	-1E+10	1	-1E+10	1	-1E+10	1	-1E+10	1	-1E+10	1
4902551	56	C	02/27/2022	00:12	-132.444	49.651	0	72.80	0	7.2060	0	32.3420	0	25.299	0	72.165	0	280.3	4	94.1	4	-1E+10	1	-1E+10	1	-1E+10	1	-1E+10	1	-1E+10	1	-1E+10	1
4902551	56	C	02/27/2022	00:12	-132.444	49.651	0	74.10	0	7.2060	0	32.3420	0	25.299	0	73.454	0	280.2	4	94.1	4	-1E+10	1	-1E+10	1	-1E+10	1	-1E+10	1	-1E+10	1	-1E+10	1
4902551	56	C	02/27/2022	00:12	-132.444	49.651	0	75.10	0	7.2010	0	32.3440	0	25.301	0	74.445	0	280.1	4	94.0	4	-1E+10	1	-1E+10	1	-1E+10	1	-1E+10	1	-1E+10	1	-1E+10	1
4902551	56	C	02/27/2022	00:12	-132.444	49.651	0	75.80	0	7.2020	0	32.3430	0	25.300	0	75.139	0	280.0	4	94.0	4	-1E+10	1	-1E+10	1	-1E+10	1	-1E+10	1	-1E+10	1	-1E+10	1
4902551	56	C	02/27/2022	00:12	-132.444	49.651	0	76.80	0	7.1990	0	32.3430	0	25.301	0	76.130	0	279.9	4	94.0	4	-1E+10	1	-1E+10	1	-1E+10	1	-1E+10	1	-1E+10	1	-1E+10	1
4902551	56	C	02/27/2022	00:12	-132.444	49.651	0	78.10	0	7.1990	0	32.3430	0	25.301	0	77.418	0	279.8	4	93.9	4	-1E+10	1	-1E+10	1	-1E+10	1	-1E+10	1	-1E+10	1	-1E+10	1
4902551	56	C	02/27/2022	00:12	-132.444	49.651	0	79.00	0	7.2000	0	32.3430	0	25.301	0	78.310	0	279.6	4	93.9	4	-1E+10	1	-1E+10	1	-1E+10	1	-1E+10	1	-1E+10	1	-1E+10	1
4902551	56	C	02/27/2022	00:12	-132.444	49.651	0	79.90	0	7.1980	0	32.3440	0	25.302	0	79.202	0	279.3	4	93.8	4	-1E+10	1	-1E+10	1	-1E+10	1	-1E+10	1	-1E+10	1	-1E+10	1
4902551	56	C	02/27/2022	00:12	-132.444	49.651	0	81.00	0	7.1990	0	32.3430	0	25.301	0	80.292	0	279.0	4	93.7	4	-1E+10	1	-1E+10	1	-1E+10	1	-1E+10	1	-1E+10	1	-1E+10	1
4902551	56	C	02/27/2022	00:12	-132.444	49.651	0	82.20	0	7.1990	0	32.3430	0	25.301	0	81.482	0	278.7	4	93.6	4	-1E+10	1	-1E+10	1	-1E+10	1	-1E+10	1	-1E+10	1	-1E+10	1
4902551	56	C	02/27/2022	00:12	-132.444	49.651	0	82.90	0	7.1990	0	32.3430	0	25.301	0	82.175	0	278.5	4	93.5	4	-1E+10	1	-1E+10	1	-1E+10	1	-1E+10	1	-1E+10	1	-1E+10	1
4902551	56	C	02/27/2022	00:12	-132.444	49.651	0	84.10	0	7.2000	0	32.3430	0	25.301	0	83.365	0	285.3	4	95.8	4	-1E+10	1	-1E+10	1	-1E+10	1	-1E+10	1	-1E+10	1	-1E+10	1
4902551	56	C	02/27/2022	00:12	-132.444	49.651	0	84.80	0	7.2000	0	32.3430	0	25.301	0	84.058	0	285.0	4	95.7	4	-1E+10	1	-1E+10	1	-1E+10	1	-1E+10	1	-1E+10	1	-1E+10	1
4902551	56	C	02/27/2022	00:12	-132.444	49.651	0	85.90	0	7.1990	0	32.3430	0	25.301	0	85.149	0	284.5	4	95.5	4	-1E+10	1	-1E+10	1	-1E+10	1	-1E+10	1	-1E+10	1	-1E+10	1
4902551	56	C	02/27/2022	00:12	-132.444	49.651	0	87.10	0	7.1990	0	32.3410	0	25.299	0	86.338	0	283.9	4	95.3	4	-1E+10	1	-1E+10	1	-1E+10	1	-1E+10	1	-1E+10	1	-1E+10	1
4902551	56	C	02/27/2022	00:12	-132.444	49.651	0	88.00	0	7.1920	0	32.3460	0	25.304	0	87.230	0	283.3	4	95.1	4	-1E+10	1	-1E+10	1	-1E+10	1	-1E+10	1	-1E+10	1	-1E+10	1
4902551	56	C	02/27/2022	00:12	-132.444	49.651	0	88.90	0	7.1920	0	32.3440	0	25.303	0	88.122	0	282.9	4	94.9	4	-1E+10	1	-1E+10	1	-1E+10	1	-1E+10	1	-1E+10	1	-1E+10	1
4902551	56	C	02/27/2022	00:12	-132.444	49.651	0	89.90	0	7.1900	0	32.3440	0	25.303	0	89.113	0	282.3	4	94.7	4	-1E+10	1	-1E+10	1	-1E+10	1	-1E+10	1	-1E+10	1	-1E+10	1
4902551	56	C	02/27/2022	00:12	-132.444	49.651	0	91.10	0	7.1830	0	32.3470	0	25.306	0	90.302	0	281.5	4	94.5	4	-1E+10	1	-1E+10	1	-1E+10	1	-1E+10	1	-1E+10	1	-1E+10	1
4902551	56	C	02/27/2022	00:12	-132.444	49.651	0	92.00	0	7.1830	0	32.3460	0	25.305	0	91.194	0	280.7	4	94.2	4	-1E+10	1	-1E+10	1	-1E+10	1	-1E+10	1	-1E+10	1	-1E+10	1
4902551	56	C	02/27/2022	00:12	-132.444	49.651	0	93.10	0	7.1830	0	32.3460	0	25.305	0	92.284	0	279.5	4	93.8	4	-1E+10	1	-1E+10	1	-1E+10	1	-1E+10	1	-1E+10	1	-1E+10	1
4902551	56	C	02/27/2022	00:12	-132.444	49.651	0	94.00	0	7.1830	0	32.3450	0	25.305	0	93.176	0	278.4	4	93.4	4	-1E+10	1	-1E+10	1	-1E+10	1	-1E+10	1	-1E+10	1	-1E+10	1
4902551	56	C	02/27/2022	00:12	-132.444	49.651	0	95.10	0	7.1570	0	32.3550	0	25.316	0	94.266	0	276.7	4	92.8	4	-1E+10	1	-1E+10	1	-1E+10	1	-1E+10	1	-1E+10	1	-1E+10	1
4902551	56	C	02/27/2022	00:12	-132.444	49.651	0	95.90	0	7.1530	0	32.3550	0	25.317	0	95.059	0	275.4	4	92.4	4	-1E+10	1	-1E+10	1	-1E+10	1	-1E+10	1	-1E+10	1	-1E+10	1
4902551	56	C	02/27/2022	00:12	-132.444	49.651	0	97.00	0	7.1390	0	32.3590	0	25.322	0	96.149	0	273.2	4	91.6	4	-1E+10	1	-1E+10	1	-1E+10	1	-1E+10	1	-1E+10	1	-1E+10	1
4902551	56	C	02/27/2022	00:12	-132.444	49.651	0	98.00	0	7.1290	0	32.3610	0	25.325	0	97.140	0	270.6	4	90.7	4	-1E+10	1	-1E+10	1	-1E+10	1	-1E+10	1	-1E+10	1	-1E+10	1
4902551	56	C	02/27/2022	00:12	-132.444	49.651	0	99.10	0	7.0780	0	32.3790	0	25.346	0	98.230	0	268.0	4	89.7	4	-1E+10	1	-1E+10	1	-1E+10	1	-1E+10	1	-1E+10	1	-1E+10	1
4902551	56	C	02/27/2022	00:12	-132.444	49.651	0	99.80	0	7.0210	0	32.4000	0	25.370	0	98.924	0	266.4	4	89.1	4	-1E+10	1	-1E+10	1	-1E+10	1	-1E+10	1	-1E+10	1	-1E+10	1
4902551	56	C	02/27/2022	00:12	-132.444	49.651	0	100.90	0	6.9780	0	32.4150	0	25.387	0	100.014	0	263.6	4	88.1	4	-1E+10	1	-1E+10	1	-1E+10	1	-1E+10	1	-1E+10	1	-1E+10	1
4902551	56	C	02/27/2022	00:12	-132.444	49.651	0	102.00	0	6.9050	0	32.4520	0	25.426	0	101.104	0	261.0	4	87.1	4	-1E+10	1	-1E+10	1	-1E+10	1	-1E+10	1	-1E+10	1	-1E+10	1
4902551	56	C	02/27/2022	00:12	-132.444	49.651	0	102.90	0	6.8570	0	32.4820	0	25.456	0	101.996	0	259.2	4	86.4	4	-1E+10	1	-1E+10	1	-1E+10	1	-1E+10	1	-1E+10	1	-1E+10	1
4902551	56	C	02/27/2022	00:12	-132.444	49.651	0	104.10	0	6.8190	0	32.5060	0	25.480	0	103.185	0	256.0	4	85.3	4	-1E+10	1	-1E+10	1	-1E+10	1	-1E+10	1	-1E+10	1	-1E+10	1
4902551	56	C	02/27/2022	00:12	-132.444	49.651	0	105.00	0	6.7380	0	32.5280	0	25.508	0	104.077	0	253.8	4	84.4	4	-1E+10	1	-1E+10	1	-1E+10	1	-1E+10	1	-1E+10	1	-1E+10	1
4902551	56	C	02/27/2022	00:12	-132.444	49.651	0	106.00	0	6.6880	0	32.5450	0	25.528	0	105.068	0	250.7	4	83.3	4	-1E+10	1	-1E+10	1	-1E+10	1	-1E+10	1	-1E+10	1	-1E+10	1
4902551	56	C	02/27/2022	00:12	-132.444	49.651	0	107.00	0	6.6730	0	32.5820	0	25.559	0	106.059	0	247.6	4	82.3	4	-1E+10	1	-1E+10	1	-1E+10	1	-1E+10	1	-1E+10	1	-1E+10	1
4902551	56	C	02/27/2022	00:12	-132.444	49.651	0	107.90	0	6.6820	0	32.6110	0	25.581	0	106.950	0	245.7	4	81.7	4	-1E+10	1	-1E+10	1	-1E+10	1	-1E+10	1	-1E+10	1	-1E+10	1
4902551	56	C	02/27/2022	00:12	-132.444	49.651	0	109.10	0	6.6350	0	32.6250	0	25.598	0	108.140	0	243.2	4	80.8	4	-1E+10	1	-1E+10	1	-1E+10	1	-1E+10	1	-1E+10	1	-1E+10	1
4902551	56	C	02/27/2022	00:12	-132.444	49.651	0	110.00	0	6.6220	0	32.6410	0	25.612	0	109.031	0	240.6	4	79.9	4	-1E+10	1	-1E+10	1	-1E+10	1	-1E+10	1	-1E+10	1	-1E+10	1
4902551	56	C	02/27/2022	00:12	-132.444	49.651	0	110.90	0	6.6020	0	32.6550	0	25.626	0	109.923	0	238.3	4	79.1	4	-1E+10	1	-1E+10	1	-1E+10	1	-1E+10	1	-1E+10	1	-1E+10	1
4902551	56	C	02/27/2022	00:12	-132.444	49.651	0	112.00	0	6.5860	0	32.6840	0	25.651	0	111.013	0	235.5	4	78.2	4	-1E+10	1	-1E+10	1	-1E+10	1	-1E+10	1	-1E+10	1	-1E+10	1
4902551	56	C	02/27/2022	00:12	-132.444	49.651	0	113.00	0	6.5430	0	32.7340	0	25.696	0	112.004	0	232.2	4	77.0	4	-1E+10	1	-1E+10	1	-1E+10	1	-1E+10	1	-1E+10	1	-1E+10	1
4902551	56	C	02/27/2022	00:12	-132.444	49.651	0	113.90	0	6.5520	0	32.7490	0	25.706	0	112.896	0	229.3	4	76.1	4	-1E+10	1	-1E+10	1	-1E+10	1	-1E+10	1	-1E+10	1	-1E+10	1
4902551	56	C	02/27/2022	00:12	-132.444	49.651	0	114.90	0	6.5550	0	32.7670	0	25.720	0	113.887	0	226.5	4	75.2	4	-1E+10	1	-1E+10	1	-1E+10	1	-1E+10	1	-1E+10	1	-1E+10	1
4902551	56	C	02/27/2022	00:12	-132.444	49.651	0	115.90	0	6.5460	0	32.8240	0	25.766	0	114.878	0	223.5	4	74.2	4	-1E+10	1	-1E+10	1	-1E+10	1	-1E+10	1	-1E+10	1	-1E+10	1
4902551	56	C	02/27/2022	00:12	-132.444	49.651	0	117.00	0	6.6440	0	32.9250	0	25.833	0	115.968	0	220.4	4	73.4	4	-1E+10	1	-1E+10	1	-1E+10	1	-1E+10	1	-1E+10	1	-1E+10	1
4902551	56	C	02/27/2022	00:12	-132.444	49.651	0	118.10	0	6.5960	0	32.9440	0	25.854	0	117.058	0	217.9	4	72.5	4	-1E+10	1	-1E+10	1	-1E+10	1	-1E+10	1	-1E+10	1	-1E+10	1
4902551	56	C	02/27/2022	00:12	-132.444	49.651	0	118.90	0	6.5550	0	32.9580	0	25.871	0	117.850	0	215.7	4	71.7	4	-1E+10	1	-1E+10	1	-1E+10	1	-1E+10	1	-1E+10	1	-1E+10	1
4902551	56	C	02/27/2022	00:12	-132.444	49.651	0	119.90	0	6.5210	0	32.9800	0	25.892	0	118.841	0	213.3	4	70.8	4	-1E+10	1	-1E+10	1	-1E+10	1	-1E+10	1	-1E+10	1	-1E+10	1
4902551	56	C	02/27/2022	00:12	-132.444	49.651	0	121.10	0	6.5050	0	32.9880	0	25.901	0	120.030	0	210.3	4	69.8	4	-1E+10	1	-1E+10	1	-1E+10	1	-1E+10	1	-1E+10	1	-1E+10	1
4902551	56	C	02/27/2022	00:12	-132.444	49.651	0	122.10	0	6.4930	0	32.9920	0	25.906	0	121.021	0	207.0	4	68.7	4	-1E+10	1	-1E+10	1	-1E+10	1	-1E+10	1	-1E+10	1	-1E+10	1
4902551	56	C	02/27/2022	00:12	-132.444	49.651	0	123.10	0	6.4780	0	33.0010	0	25.915	0	122.012	0	203.3	4	67.4	4	-1E+10	1	-1E+10	1	-1E+10	1	-1E+10	1	-1E+10	1	-1E+10	1
4902551	56	C	02/27/2022	00:12	-132.444	49.651	0	124.10	0	6.4580	0	33.0260	0	25.937	0	123.003	0	199.8	4	66.3	4	-1E+10	1	-1E+10	1	-1E+10	1	-1E+10	1	-1E+10	1	-1E+10	1
4902551	56	C	02/27/2022	00:12	-132.444	49.651	0	124.90	0	6.4290	0	33.1060	0	26.004	0	123.796	0	197.7	4	65.6	4	-1E+10	1	-1E+10	1	-1E+10	1	-1E+10	1	-1E+10	1	-1E+10	1
4902551	56	C	02/27/2022	00:12	-132.444	49.651	0	125.80	0	6.4550	0	33.1980	0	26.073	0	124.688	0	196.1	4	65.1	4	-1E+10	1	-1E+10	1	-1E+10	1	-1E+10	1	-1E+10	1	-1E+10	1
4902551	56	C	02/27/2022	00:12	-132.444	49.651	0	127.00	0	6.4700	0	33.2290	0	26.095	0	125.877	0	194.2	4	64.5	4	-1E+10	1	-1E+10	1	-1E+10	1	-1E+10	1	-1E+10	1	-1E+10	1
4902551	56	C	02/27/2022	00:12	-132.444	49.651	0	127.90	0	6.4770	0	33.2420	0	26.105	0	126.768	0	192.7	4	64.1	4	-1E+10	1	-1E+10	1	-1E+10	1	-1E+10	1	-1E+10	1	-1E+10	1
4902551	56	C	02/27/2022	00:12	-132.444	49.651	0	128.80	0	6.4920	0	33.2630	0	26.119	0	127.660	0	191.0	4	63.5	4	-1E+10	1	-1E+10	1	-1E+10	1	-1E+10	1	-1E+10	1	-1E+10	1
4902551	56	C	02/27/2022	00:12	-132.444	49.651	0	130.00	0	6.5390	0	33.2990	0	26.142	0	128.849	0	188.7	4	62.8	4	-1E+10	1	-1E+10	1	-1E+10	1	-1E+10	1	-1E+10	1	-1E+10	1
4902551	56	C	02/27/2022	00:12	-132.444	49.651	0	131.00	0	6.5780	0	33.3460	0	26.174	0	129.840	0	187.0	4	62.3	4	-1E+10	1	-1E+10	1	-1E+10	1	-1E+10	1	-1E+10	1	-1E+10	1
4902551	56	C	02/27/2022	00:12	-132.444	49.651	0	132.00	0	6.5760	0	33.3560	0	26.182	0	130.831	0	185.4	4	61.8	4	-1E+10	1	-1E+10	1	-1E+10	1	-1E+10	1	-1E+10	1	-1E+10	1
4902551	56	C	02/27/2022	00:12	-132.444	49.651	0	133.00	0	6.5800	0	33.3950	0	26.212	0	131.822	0	183.9	4	61.3	4	-1E+10	1	-1E+10	1	-1E+10	1	-1E+10	1	-1E+10	1	-1E+10	1
4902551	56	C	02/27/2022	00:12	-132.444	49.651	0	134.00	0	6.5720	0	33.4230	0	26.235	0	132.812	0	182.4	4	60.8	4	-1E+10	1	-1E+10	1	-1E+10	1	-1E+10	1	-1E+10	1	-1E+10	1
4902551	56	C	02/27/2022	00:12	-132.444	49.651	0	135.10	0	6.5610	0	33.4380	0	26.249	0	133.902	0	181.1	4	60.4	4	-1E+10	1	-1E+10	1	-1E+10	1	-1E+10	1	-1E+10	1	-1E+10	1
4902551	56	C	02/27/2022	00:12	-132.444	49.651	0	135.80	0	6.5470	0	33.4430	0	26.254	0	134.596	0	180.5	4	60.2	4	-1E+10	1	-1E+10	1	-1E+10	1	-1E+10	1	-1E+10	1	-1E+10	1
4902551	56	C	02/27/2022	00:12	-132.444	49.651	0	136.90	0	6.5390	0	33.4570	0	26.266	0	135.686	0	179.3	4	59.8	4	-1E+10	1	-1E+10	1	-1E+10	1	-1E+10	1	-1E+10	1	-1E+10	1
4902551	56	C	02/27/2022	00:12	-132.444	49.651	0	138.10	0	6.5290	0	33.4670	0	26.276	0	136.875	0	177.9	4	59.3	4	-1E+10	1	-1E+10	1	-1E+10	1	-1E+10	1	-1E+10	1	-1E+10	1
4902551	56	C	02/27/2022	00:12	-132.444	49.651	0	138.90	0	6.5220	0	33.4760	0	26.284	0	137.667	0	177.2	4	59.1	4	-1E+10	1	-1E+10	1	-1E+10	1	-1E+10	1	-1E+10	1	-1E+10	1
4902551	56	C	02/27/2022	00:12	-132.444	49.651	0	139.70	0	6.5170	0	33.4920	0	26.297	0	138.460	0	176.5	4	58.8	4	-1E+10	1	-1E+10	1	-1E+10	1	-1E+10	1	-1E+10	1	-1E+10	1
4902551	56	C	02/27/2022	00:12	-132.444	49.651	0	141.00	0	6.5110	0	33.4990	0	26.303	0	139.748	0	175.2	4	58.4	4	-1E+10	1	-1E+10	1	-1E+10	1	-1E+10	1	-1E+10	1	-1E+10	1
4902551	56	C	02/27/2022	00:12	-132.444	49.651	0	142.20	0	6.5020	0	33.5090	0	26.312	0	140.937	0	173.9	4	58.0	4	-1E+10	1	-1E+10	1	-1E+10	1	-1E+10	1	-1E+10	1	-1E+10	1
4902551	56	C	02/27/2022	00:12	-132.444	49.651	0	143.00	0	6.4980	0	33.5130	0	26.316	0	141.729	0	173.0	4	57.7	4	-1E+10	1	-1E+10	1	-1E+10	1	-1E+10	1	-1E+10	1	-1E+10	1
4902551	56	C	02/27/2022	00:12	-132.444	49.651	0	143.80	0	6.4930	0	33.5180	0	26.321	0	142.522	0	172.0	4	57.3	4	-1E+10	1	-1E+10	1	-1E+10	1	-1E+10	1	-1E+10	1	-1E+10	1
4902551	56	C	02/27/2022	00:12	-132.444	49.651	0	144.70	0	6.4850	0	33.5270	0	26.329	0	143.414	0	170.8	4	56.9	4	-1E+10	1	-1E+10	1	-1E+10	1	-1E+10	1	-1E+10	1	-1E+10	1
4902551	56	C	02/27/2022	00:12	-132.444	49.651	0	145.60	0	6.4710	0	33.5410	0	26.342	0	144.305	0	169.8	4	56.6	4	-1E+10	1	-1E+10	1	-1E+10	1	-1E+10	1	-1E+10	1	-1E+10	1
4902551	56	C	02/27/2022	00:12	-132.444	49.651	0	146.90	0	6.4500	0	33.5600	0	26.359	0	145.593	0	168.7	4	56.2	4	-1E+10	1	-1E+10	1	-1E+10	1	-1E+10	1	-1E+10	1	-1E+10	1
4902551	56	C	02/27/2022	00:12	-132.444	49.651	0	148.40	0	6.4440	0	33.5650	0	26.364	0	147.080	0	167.4	4	55.7	4	-1E+10	1	-1E+10	1	-1E+10	1	-1E+10	1	-1E+10	1	-1E+10	1
4902551	56	C	02/27/2022	00:12	-132.444	49.651	0	149.40	0	6.4280	0	33.5780	0	26.376	0	148.070	0	166.6	4	55.4	4	-1E+10	1	-1E+10	1	-1E+10	1	-1E+10	1	-1E+10	1	-1E+10	1
4902551	56	C	02/27/2022	00:12	-132.444	49.651	0	150.30	0	6.4150	0	33.5910	0	26.388	0	148.962	0	165.8	4	55.2	4	-1E+10	1	-1E+10	1	-1E+10	1	-1E+10	1	-1E+10	1	-1E+10	1
4902551	56	C	02/27/2022	00:12	-132.444	49.651	0	151.30	0	6.4050	0	33.5980	0	26.395	0	149.953	0	165.1	4	54.9	4	-1E+10	1	-1E+10	1	-1E+10	1	-1E+10	1	-1E+10	1	-1E+10	1
4902551	56	C	02/27/2022	00:12	-132.444	49.651	0	152.30	0	6.3860	0	33.6120	0	26.409	0	150.943	0	164.5	4	54.7	4	-1E+10	1	-1E+10	1	-1E+10	1	-1E+10	1	-1E+10	1	-1E+10	1
4902551	56	C	02/27/2022	00:12	-132.444	49.651	0	153.30	0	6.3810	0	33.6130	0	26.410	0	151.934	0	163.8	4	54.5	4	-1E+10	1	-1E+10	1	-1E+10	1	-1E+10	1	-1E+10	1	-1E+10	1
4902551	56	C	02/27/2022	00:12	-132.444	49.651	0	154.30	0	6.3730	0	33.6190	0	26.416	0	152.925	0	163.2	4	54.3	4	-1E+10	1	-1E+10	1	-1E+10	1	-1E+10	1	-1E+10	1	-1E+10	1
4902551	56	C	02/27/2022	00:12	-132.444	49.651	0	155.40	0	6.3650	0	33.6230	0	26.420	0	154.015	0	162.6	4	54.0	4	-1E+10	1	-1E+10	1	-1E+10	1	-1E+10	1	-1E+10	1	-1E+10	1
4902551	56	C	02/27/2022	00:12	-132.444	49.651	0	156.40	0	6.3560	0	33.6290	0	26.426	0	155.005	0	161.9	4	53.8	4	-1E+10	1	-1E+10	1	-1E+10	1	-1E+10	1	-1E+10	1	-1E+10	1
4902551	56	C	02/27/2022	00:12	-132.444	49.651	0	157.40	0	6.3480	0	33.6330	0	26.430	0	155.996	0	161.2	4	53.6	4	-1E+10	1	-1E+10	1	-1E+10	1	-1E+10	1	-1E+10	1	-1E+10	1
4902551	56	C	02/27/2022	00:12	-132.444	49.651	0	158.50	0	6.3410	0	33.6360	0	26.434	0	157.086	0	160.6	4	53.4	4	-1E+10	1	-1E+10	1	-1E+10	1	-1E+10	1	-1E+10	1	-1E+10	1
4902551	56	C	02/27/2022	00:12	-132.444	49.651	0	159.50	0	6.3320	0	33.6390	0	26.437	0	158.077	0	159.8	4	53.1	4	-1E+10	1	-1E+10	1	-1E+10	1	-1E+10	1	-1E+10	1	-1E+10	1
4902551	56	C	02/27/2022	00:12	-132.444	49.651	0	160.50	0	6.3270	0	33.6420	0	26.440	0	159.067	0	159.0	4	52.8	4	-1E+10	1	-1E+10	1	-1E+10	1	-1E+10	1	-1E+10	1	-1E+10	1
4902551	56	C	02/27/2022	00:12	-132.444	49.651	0	161.90	0	6.3130	0	33.6490	0	26.447	0	160.454	0	157.7	4	52.4	4	-1E+10	1	-1E+10	1	-1E+10	1	-1E+10	1	-1E+10	1	-1E+10	1
4902551	56	C	02/27/2022	00:12	-132.444	49.651	0	163.40	0	6.2800	0	33.6670	0	26.466	0	161.940	0	156.5	4	52.0	4	-1E+10	1	-1E+10	1	-1E+10	1	-1E+10	1	-1E+10	1	-1E+10	1
4902551	56	C	02/27/2022	00:12	-132.444	49.651	0	164.40	0	6.2640	0	33.6750	0	26.474	0	162.931	0	155.8	4	51.7	4	-1E+10	1	-1E+10	1	-1E+10	1	-1E+10	1	-1E+10	1	-1E+10	1
4902551	56	C	02/27/2022	00:12	-132.444	49.651	0	165.40	0	6.2590	0	33.6770	0	26.476	0	163.922	0	155.0	4	51.4	4	-1E+10	1	-1E+10	1	-1E+10	1	-1E+10	1	-1E+10	1	-1E+10	1
4902551	56	C	02/27/2022	00:12	-132.444	49.651	0	166.40	0	6.2520	0	33.6790	0	26.479	0	164.912	0	154.3	4	51.2	4	-1E+10	1	-1E+10	1	-1E+10	1	-1E+10	1	-1E+10	1	-1E+10	1
4902551	56	C	02/27/2022	00:12	-132.444	49.651	0	167.40	0	6.2330	0	33.6830	0	26.485	0	165.903	0	153.6	4	50.9	4	-1E+10	1	-1E+10	1	-1E+10	1	-1E+10	1	-1E+10	1	-1E+10	1
4902551	56	C	02/27/2022	00:12	-132.444	49.651	0	168.40	0	6.2130	0	33.6870	0	26.490	0	166.894	0	152.9	4	50.7	4	-1E+10	1	-1E+10	1	-1E+10	1	-1E+10	1	-1E+10	1	-1E+10	1
4902551	56	C	02/27/2022	00:12	-132.444	49.651	0	169.40	0	6.2070	0	33.6890	0	26.493	0	167.884	0	152.3	4	50.5	4	-1E+10	1	-1E+10	1	-1E+10	1	-1E+10	1	-1E+10	1	-1E+10	1
4902551	56	C	02/27/2022	00:12	-132.444	49.651	0	170.40	0	6.2030	0	33.6890	0	26.493	0	168.875	0	151.5	4	50.2	4	-1E+10	1	-1E+10	1	-1E+10	1	-1E+10	1	-1E+10	1	-1E+10	1
4902551	56	C	02/27/2022	00:12	-132.444	49.651	0	171.40	0	6.1960	0	33.6910	0	26.496	0	169.865	0	150.7	4	49.9	4	-1E+10	1	-1E+10	1	-1E+10	1	-1E+10	1	-1E+10	1	-1E+10	1
4902551	56	C	02/27/2022	00:12	-132.444	49.651	0	172.40	0	6.1850	0	33.6950	0	26.500	0	170.856	0	149.9	4	49.7	4	-1E+10	1	-1E+10	1	-1E+10	1	-1E+10	1	-1E+10	1	-1E+10	1
4902551	56	C	02/27/2022	00:12	-132.444	49.651	0	173.40	0	6.1790	0	33.7010	0	26.506	0	171.847	0	149.1	4	49.4	4	-1E+10	1	-1E+10	1	-1E+10	1	-1E+10	1	-1E+10	1	-1E+10	1
4902551	56	C	02/27/2022	00:12	-132.444	49.651	0	174.30	0	6.1790	0	33.7010	0	26.506	0	172.738	0	148.1	4	49.1	4	-1E+10	1	-1E+10	1	-1E+10	1	-1E+10	1	-1E+10	1	-1E+10	1
4902551	56	C	02/27/2022	00:12	-132.444	49.651	0	175.30	0	6.1690	0	33.7080	0	26.513	0	173.729	0	147.1	4	48.7	4	-1E+10	1	-1E+10	1	-1E+10	1	-1E+10	1	-1E+10	1	-1E+10	1
4902551	56	C	02/27/2022	00:12	-132.444	49.651	0	176.20	0	6.1650	0	33.7100	0	26.515	0	174.620	0	146.1	4	48.4	4	-1E+10	1	-1E+10	1	-1E+10	1	-1E+10	1	-1E+10	1	-1E+10	1
4902551	56	C	02/27/2022	00:12	-132.444	49.651	0	177.20	0	6.1180	0	33.7270	0	26.534	0	175.611	0	145.0	4	48.0	4	-1E+10	1	-1E+10	1	-1E+10	1	-1E+10	1	-1E+10	1	-1E+10	1
4902551	56	C	02/27/2022	00:12	-132.444	49.651	0	178.20	0	6.0610	0	33.7290	0	26.543	0	176.602	0	144.4	4	47.7	4	-1E+10	1	-1E+10	1	-1E+10	1	-1E+10	1	-1E+10	1	-1E+10	1
4902551	56	C	02/27/2022	00:12	-132.444	49.651	0	179.10	0	6.0540	0	33.7290	0	26.544	0	177.493	0	143.7	4	47.5	4	-1E+10	1	-1E+10	1	-1E+10	1	-1E+10	1	-1E+10	1	-1E+10	1
4902551	56	C	02/27/2022	00:12	-132.444	49.651	0	180.10	0	6.0470	0	33.7310	0	26.546	0	178.484	0	143.0	4	47.2	4	-1E+10	1	-1E+10	1	-1E+10	1	-1E+10	1	-1E+10	1	-1E+10	1
4902551	56	C	02/27/2022	00:12	-132.444	49.651	0	181.10	0	6.0420	0	33.7300	0	26.546	0	179.474	0	142.3	4	47.0	4	-1E+10	1	-1E+10	1	-1E+10	1	-1E+10	1	-1E+10	1	-1E+10	1
4902551	56	C	02/27/2022	00:12	-132.444	49.651	0	182.10	0	6.0250	0	33.7330	0	26.550	0	180.465	0	141.6	4	46.7	4	-1E+10	1	-1E+10	1	-1E+10	1	-1E+10	1	-1E+10	1	-1E+10	1
4902551	56	C	02/27/2022	00:12	-132.444	49.651	0	183.10	0	6.0090	0	33.7340	0	26.553	0	181.456	0	140.9	4	46.5	4	-1E+10	1	-1E+10	1	-1E+10	1	-1E+10	1	-1E+10	1	-1E+10	1
4902551	56	C	02/27/2022	00:12	-132.444	49.651	0	184.00	0	5.9880	0	33.7360	0	26.557	0	182.347	0	140.3	4	46.3	4	-1E+10	1	-1E+10	1	-1E+10	1	-1E+10	1	-1E+10	1	-1E+10	1
4902551	56	C	02/27/2022	00:12	-132.444	49.651	0	184.70	0	5.9730	0	33.7350	0	26.559	0	183.041	0	139.9	4	46.1	4	-1E+10	1	-1E+10	1	-1E+10	1	-1E+10	1	-1E+10	1	-1E+10	1
4902551	56	C	02/27/2022	00:12	-132.444	49.651	0	186.00	0	5.9720	0	33.7360	0	26.559	0	184.328	0	138.9	4	45.8	4	-1E+10	1	-1E+10	1	-1E+10	1	-1E+10	1	-1E+10	1	-1E+10	1
4902551	56	C	02/27/2022	00:12	-132.444	49.651	0	187.10	0	5.9640	0	33.7410	0	26.564	0	185.418	0	137.9	4	45.5	4	-1E+10	1	-1E+10	1	-1E+10	1	-1E+10	1	-1E+10	1	-1E+10	1
4902551	56	C	02/27/2022	00:12	-132.444	49.651	0	187.80	0	5.9480	0	33.7410	0	26.566	0	186.111	0	137.2	4	45.2	4	-1E+10	1	-1E+10	1	-1E+10	1	-1E+10	1	-1E+10	1	-1E+10	1
4902551	56	C	02/27/2022	00:12	-132.444	49.651	0	188.80	0	5.9400	0	33.7410	0	26.567	0	187.102	0	136.2	4	44.9	4	-1E+10	1	-1E+10	1	-1E+10	1	-1E+10	1	-1E+10	1	-1E+10	1
4902551	56	C	02/27/2022	00:12	-132.444	49.651	0	189.90	0	5.9330	0	33.7420	0	26.569	0	188.191	0	135.0	4	44.5	4	-1E+10	1	-1E+10	1	-1E+10	1	-1E+10	1	-1E+10	1	-1E+10	1
4902551	56	C	02/27/2022	00:12	-132.444	49.651	0	191.00	0	5.8990	0	33.7480	0	26.578	0	189.281	0	134.0	4	44.1	4	-1E+10	1	-1E+10	1	-1E+10	1	-1E+10	1	-1E+10	1	-1E+10	1
4902551	56	C	02/27/2022	00:12	-132.444	49.651	0	192.20	0	5.8670	0	33.7510	0	26.584	0	190.470	0	133.2	4	43.8	4	-1E+10	1	-1E+10	1	-1E+10	1	-1E+10	1	-1E+10	1	-1E+10	1
4902551	56	C	02/27/2022	00:12	-132.444	49.651	0	192.90	0	5.8640	0	33.7510	0	26.585	0	191.163	0	132.7	4	43.7	4	-1E+10	1	-1E+10	1	-1E+10	1	-1E+10	1	-1E+10	1	-1E+10	1
4902551	56	C	02/27/2022	00:12	-132.444	49.651	0	194.00	0	5.8580	0	33.7520	0	26.586	0	192.253	0	131.9	4	43.4	4	-1E+10	1	-1E+10	1	-1E+10	1	-1E+10	1	-1E+10	1	-1E+10	1
4902551	56	C	02/27/2022	00:12	-132.444	49.651	0	195.20	0	5.8280	0	33.7580	0	26.595	0	193.441	0	131.1	4	43.1	4	-1E+10	1	-1E+10	1	-1E+10	1	-1E+10	1	-1E+10	1	-1E+10	1
4902551	56	C	02/27/2022	00:12	-132.444	49.651	0	196.00	0	5.8210	0	33.7570	0	26.595	0	194.234	0	130.6	4	42.9	4	-1E+10	1	-1E+10	1	-1E+10	1	-1E+10	1	-1E+10	1	-1E+10	1
4902551	56	C	02/27/2022	00:12	-132.444	49.651	0	196.80	0	5.8210	0	33.7530	0	26.592	0	195.026	0	130.1	4	42.8	4	-1E+10	1	-1E+10	1	-1E+10	1	-1E+10	1	-1E+10	1	-1E+10	1
4902551	56	C	02/27/2022	00:12	-132.444	49.651	0	198.00	0	5.8110	0	33.7580	0	26.597	0	196.215	0	129.3	4	42.5	4	-1E+10	1	-1E+10	1	-1E+10	1	-1E+10	1	-1E+10	1	-1E+10	1
4902551	56	C	02/27/2022	00:12	-132.444	49.651	0	199.30	0	5.8080	0	33.7570	0	26.596	0	197.502	0	128.4	4	42.2	4	-1E+10	1	-1E+10	1	-1E+10	1	-1E+10	1	-1E+10	1	-1E+10	1
4902551	56	C	02/27/2022	00:12	-132.444	49.651	0	200.10	0	5.7980	0	33.7590	0	26.599	0	198.295	0	127.7	4	42.0	4	-1E+10	1	-1E+10	1	-1E+10	1	-1E+10	1	-1E+10	1	-1E+10	1
4902551	56	C	02/27/2022	00:12	-132.444	49.651	0	201.00	0	5.7940	0	33.7590	0	26.600	0	199.186	0	127.1	4	41.7	4	-1E+10	1	-1E+10	1	-1E+10	1	-1E+10	1	-1E+10	1	-1E+10	1
4902551	56	C	02/27/2022	00:12	-132.444	49.651	0	201.80	0	5.7930	0	33.7600	0	26.601	0	199.979	0	126.4	4	41.5	4	-1E+10	1	-1E+10	1	-1E+10	1	-1E+10	1	-1E+10	1	-1E+10	1
4902551	56	C	02/27/2022	00:12	-132.444	49.651	0	202.60	0	5.7900	0	33.7600	0	26.601	0	200.771	0	125.6	4	41.3	4	-1E+10	1	-1E+10	1	-1E+10	1	-1E+10	1	-1E+10	1	-1E+10	1
4902551	56	C	02/27/2022	00:12	-132.444	49.651	0	203.90	0	5.7730	0	33.7620	0	26.605	0	202.059	0	124.6	4	40.9	4	-1E+10	1	-1E+10	1	-1E+10	1	-1E+10	1	-1E+10	1	-1E+10	1
4902551	56	C	02/27/2022	00:12	-132.444	49.651	0	205.10	0	5.7390	0	33.7650	0	26.611	0	203.247	0	123.8	4	40.6	4	-1E+10	1	-1E+10	1	-1E+10	1	-1E+10	1	-1E+10	1	-1E+10	1
4902551	56	C	02/27/2022	00:12	-132.444	49.651	0	205.90	0	5.7120	0	33.7720	0	26.620	0	204.040	0	123.3	4	40.4	4	-1E+10	1	-1E+10	1	-1E+10	1	-1E+10	1	-1E+10	1	-1E+10	1
4902551	56	C	02/27/2022	00:12	-132.444	49.651	0	206.80	0	5.7030	0	33.7730	0	26.622	0	204.931	0	122.9	4	40.3	4	-1E+10	1	-1E+10	1	-1E+10	1	-1E+10	1	-1E+10	1	-1E+10	1
4902551	56	C	02/27/2022	00:12	-132.444	49.651	0	207.60	0	5.6920	0	33.7750	0	26.625	0	205.723	0	122.5	4	40.2	4	-1E+10	1	-1E+10	1	-1E+10	1	-1E+10	1	-1E+10	1	-1E+10	1
4902551	56	C	02/27/2022	00:12	-132.444	49.651	0	208.90	0	5.6760	0	33.7780	0	26.629	0	207.011	0	122.0	4	40.0	4	-1E+10	1	-1E+10	1	-1E+10	1	-1E+10	1	-1E+10	1	-1E+10	1
4902551	56	C	02/27/2022	00:12	-132.444	49.651	0	210.20	0	5.6650	0	33.7830	0	26.635	0	208.299	0	121.3	4	39.7	4	-1E+10	1	-1E+10	1	-1E+10	1	-1E+10	1	-1E+10	1	-1E+10	1
4902551	56	C	02/27/2022	00:12	-132.444	49.651	0	211.10	0	5.6530	0	33.7860	0	26.638	0	209.190	0	120.8	4	39.6	4	-1E+10	1	-1E+10	1	-1E+10	1	-1E+10	1	-1E+10	1	-1E+10	1
4902551	56	C	02/27/2022	00:12	-132.444	49.651	0	212.00	0	5.6520	0	33.7870	0	26.639	0	210.081	0	120.2	4	39.4	4	-1E+10	1	-1E+10	1	-1E+10	1	-1E+10	1	-1E+10	1	-1E+10	1
4902551	56	C	02/27/2022	00:12	-132.444	49.651	0	212.90	0	5.6420	0	33.7890	0	26.642	0	210.973	0	119.5	4	39.1	4	-1E+10	1	-1E+10	1	-1E+10	1	-1E+10	1	-1E+10	1	-1E+10	1
4902551	56	C	02/27/2022	00:12	-132.444	49.651	0	213.80	0	5.6300	0	33.7890	0	26.644	0	211.864	0	118.9	4	38.9	4	-1E+10	1	-1E+10	1	-1E+10	1	-1E+10	1	-1E+10	1	-1E+10	1
4902551	56	C	02/27/2022	00:12	-132.444	49.651	0	214.70	0	5.6170	0	33.7910	0	26.647	0	212.756	0	118.3	4	38.7	4	-1E+10	1	-1E+10	1	-1E+10	1	-1E+10	1	-1E+10	1	-1E+10	1
4902551	56	C	02/27/2022	00:12	-132.444	49.651	0	215.60	0	5.6100	0	33.7910	0	26.648	0	213.647	0	117.7	4	38.5	4	-1E+10	1	-1E+10	1	-1E+10	1	-1E+10	1	-1E+10	1	-1E+10	1
4902551	56	C	02/27/2022	00:12	-132.444	49.651	0	216.90	0	5.5840	0	33.7940	0	26.653	0	214.934	0	116.7	4	38.1	4	-1E+10	1	-1E+10	1	-1E+10	1	-1E+10	1	-1E+10	1	-1E+10	1
4902551	56	C	02/27/2022	00:12	-132.444	49.651	0	218.40	0	5.5410	0	33.7980	0	26.661	0	216.420	0	115.9	4	37.9	4	-1E+10	1	-1E+10	1	-1E+10	1	-1E+10	1	-1E+10	1	-1E+10	1
4902551	56	C	02/27/2022	00:12	-132.444	49.651	0	219.30	0	5.5310	0	33.7980	0	26.663	0	217.311	0	115.5	4	37.7	4	-1E+10	1	-1E+10	1	-1E+10	1	-1E+10	1	-1E+10	1	-1E+10	1
4902551	56	C	02/27/2022	00:12	-132.444	49.651	0	220.30	0	5.5310	0	33.7980	0	26.663	0	218.302	0	115.0	4	37.5	4	-1E+10	1	-1E+10	1	-1E+10	1	-1E+10	1	-1E+10	1	-1E+10	1
4902551	56	C	02/27/2022	00:12	-132.444	49.651	0	221.20	0	5.5230	0	33.7990	0	26.664	0	219.193	0	114.5	4	37.4	4	-1E+10	1	-1E+10	1	-1E+10	1	-1E+10	1	-1E+10	1	-1E+10	1
4902551	56	C	02/27/2022	00:12	-132.444	49.651	0	222.10	0	5.5210	0	33.7980	0	26.664	0	220.085	0	114.0	4	37.2	4	-1E+10	1	-1E+10	1	-1E+10	1	-1E+10	1	-1E+10	1	-1E+10	1
4902551	56	C	02/27/2022	00:12	-132.444	49.651	0	223.10	0	5.5200	0	33.7980	0	26.664	0	221.075	0	113.4	4	37.0	4	-1E+10	1	-1E+10	1	-1E+10	1	-1E+10	1	-1E+10	1	-1E+10	1
4902551	56	C	02/27/2022	00:12	-132.444	49.651	0	224.00	0	5.5150	0	33.8010	0	26.667	0	221.966	0	112.8	4	36.8	4	-1E+10	1	-1E+10	1	-1E+10	1	-1E+10	1	-1E+10	1	-1E+10	1
4902551	56	C	02/27/2022	00:12	-132.444	49.651	0	225.00	0	5.5120	0	33.8000	0	26.666	0	222.957	0	112.2	4	36.6	4	-1E+10	1	-1E+10	1	-1E+10	1	-1E+10	1	-1E+10	1	-1E+10	1
4902551	56	C	02/27/2022	00:12	-132.444	49.651	0	225.90	0	5.5080	0	33.7990	0	26.666	0	223.848	0	111.5	4	36.4	4	-1E+10	1	-1E+10	1	-1E+10	1	-1E+10	1	-1E+10	1	-1E+10	1
4902551	56	C	02/27/2022	00:12	-132.444	49.651	0	226.80	0	5.5040	0	33.7980	0	26.666	0	224.739	0	110.9	4	36.2	4	-1E+10	1	-1E+10	1	-1E+10	1	-1E+10	1	-1E+10	1	-1E+10	1
4902551	56	C	02/27/2022	00:12	-132.444	49.651	0	227.80	0	5.4810	0	33.8050	0	26.674	0	225.730	0	110.3	4	36.0	4	-1E+10	1	-1E+10	1	-1E+10	1	-1E+10	1	-1E+10	1	-1E+10	1
4902551	56	C	02/27/2022	00:12	-132.444	49.651	0	228.70	0	5.4670	0	33.8000	0	26.672	0	226.621	0	109.6	4	35.7	4	-1E+10	1	-1E+10	1	-1E+10	1	-1E+10	1	-1E+10	1	-1E+10	1
4902551	56	C	02/27/2022	00:12	-132.444	49.651	0	229.70	0	5.4610	0	33.8020	0	26.674	0	227.611	0	109.1	4	35.6	4	-1E+10	1	-1E+10	1	-1E+10	1	-1E+10	1	-1E+10	1	-1E+10	1
4902551	56	C	02/27/2022	00:12	-132.444	49.651	0	230.70	0	5.4350	0	33.8040	0	26.679	0	228.602	0	108.6	4	35.4	4	-1E+10	1	-1E+10	1	-1E+10	1	-1E+10	1	-1E+10	1	-1E+10	1
4902551	56	C	02/27/2022	00:12	-132.444	49.651	0	231.60	0	5.4310	0	33.8040	0	26.679	0	229.493	0	108.0	4	35.2	4	-1E+10	1	-1E+10	1	-1E+10	1	-1E+10	1	-1E+10	1	-1E+10	1
4902551	56	C	02/27/2022	00:12	-132.444	49.651	0	232.60	0	5.4240	0	33.8050	0	26.681	0	230.483	0	107.4	4	35.0	4	-1E+10	1	-1E+10	1	-1E+10	1	-1E+10	1	-1E+10	1	-1E+10	1
4902551	56	C	02/27/2022	00:12	-132.444	49.651	0	233.60	0	5.4170	0	33.8060	0	26.683	0	231.474	0	106.7	4	34.7	4	-1E+10	1	-1E+10	1	-1E+10	1	-1E+10	1	-1E+10	1	-1E+10	1
4902551	56	C	02/27/2022	00:12	-132.444	49.651	0	234.50	0	5.4130	0	33.8010	0	26.679	0	232.365	0	105.9	4	34.5	4	-1E+10	1	-1E+10	1	-1E+10	1	-1E+10	1	-1E+10	1	-1E+10	1
4902551	56	C	02/27/2022	00:12	-132.444	49.651	0	235.90	0	5.3810	0	33.8090	0	26.689	0	233.752	0	105.0	4	34.2	4	-1E+10	1	-1E+10	1	-1E+10	1	-1E+10	1	-1E+10	1	-1E+10	1
4902551	56	C	02/27/2022	00:12	-132.444	49.651	0	237.40	0	5.3670	0	33.8090	0	26.691	0	235.237	0	104.0	4	33.8	4	-1E+10	1	-1E+10	1	-1E+10	1	-1E+10	1	-1E+10	1	-1E+10	1
4902551	56	C	02/27/2022	00:12	-132.444	49.651	0	238.40	0	5.3540	0	33.8100	0	26.693	0	236.227	0	103.3	4	33.6	4	-1E+10	1	-1E+10	1	-1E+10	1	-1E+10	1	-1E+10	1	-1E+10	1
4902551	56	C	02/27/2022	00:12	-132.444	49.651	0	239.40	0	5.3440	0	33.8110	0	26.695	0	237.218	0	102.6	4	33.4	4	-1E+10	1	-1E+10	1	-1E+10	1	-1E+10	1	-1E+10	1	-1E+10	1
4902551	56	C	02/27/2022	00:12	-132.444	49.651	0	240.30	0	5.3150	0	33.8150	0	26.702	0	238.109	0	101.9	4	33.1	4	-1E+10	1	-1E+10	1	-1E+10	1	-1E+10	1	-1E+10	1	-1E+10	1
4902551	56	C	02/27/2022	00:12	-132.444	49.651	0	241.20	0	5.2960	0	33.8160	0	26.705	0	239.000	0	101.4	4	32.9	4	-1E+10	1	-1E+10	1	-1E+10	1	-1E+10	1	-1E+10	1	-1E+10	1
4902551	56	C	02/27/2022	00:12	-132.444	49.651	0	242.20	0	5.2810	0	33.8180	0	26.708	0	239.991	0	100.8	4	32.7	4	-1E+10	1	-1E+10	1	-1E+10	1	-1E+10	1	-1E+10	1	-1E+10	1
4902551	56	C	02/27/2022	00:12	-132.444	49.651	0	243.10	0	5.2670	0	33.8190	0	26.711	0	240.882	0	100.3	4	32.6	4	-1E+10	1	-1E+10	1	-1E+10	1	-1E+10	1	-1E+10	1	-1E+10	1
4902551	56	C	02/27/2022	00:12	-132.444	49.651	0	244.10	0	5.2420	0	33.8200	0	26.714	0	241.872	0	99.9	4	32.4	4	-1E+10	1	-1E+10	1	-1E+10	1	-1E+10	1	-1E+10	1	-1E+10	1
4902551	56	C	02/27/2022	00:12	-132.444	49.651	0	245.00	0	5.2220	0	33.8230	0	26.719	0	242.763	0	99.7	4	32.3	4	-1E+10	1	-1E+10	1	-1E+10	1	-1E+10	1	-1E+10	1	-1E+10	1
4902551	56	C	02/27/2022	00:12	-132.444	49.651	0	246.00	0	5.2040	0	33.8250	0	26.723	0	243.754	0	99.5	4	32.3	4	-1E+10	1	-1E+10	1	-1E+10	1	-1E+10	1	-1E+10	1	-1E+10	1
4902551	56	C	02/27/2022	00:12	-132.444	49.651	0	247.00	0	5.2030	0	33.8260	0	26.724	0	244.744	0	99.3	4	32.2	4	-1E+10	1	-1E+10	1	-1E+10	1	-1E+10	1	-1E+10	1	-1E+10	1
4902551	56	C	02/27/2022	00:12	-132.444	49.651	0	247.90	0	5.2030	0	33.8250	0	26.723	0	245.635	0	99.1	4	32.1	4	-1E+10	1	-1E+10	1	-1E+10	1	-1E+10	1	-1E+10	1	-1E+10	1
4902551	56	C	02/27/2022	00:12	-132.444	49.651	0	248.90	0	5.2010	0	33.8250	0	26.723	0	246.625	0	98.8	4	32.0	4	-1E+10	1	-1E+10	1	-1E+10	1	-1E+10	1	-1E+10	1	-1E+10	1
4902551	56	C	02/27/2022	00:12	-132.444	49.651	0	249.80	0	5.1970	0	33.8250	0	26.723	0	247.517	0	98.6	4	31.9	4	-1E+10	1	-1E+10	1	-1E+10	1	-1E+10	1	-1E+10	1	-1E+10	1
4902551	56	C	02/27/2022	00:12	-132.444	49.651	0	250.80	0	5.1940	0	33.8260	0	26.725	0	248.507	0	98.3	4	31.9	4	-1E+10	1	-1E+10	1	-1E+10	1	-1E+10	1	-1E+10	1	-1E+10	1
4902551	56	C	02/27/2022	00:12	-132.444	49.651	0	251.70	0	5.1900	0	33.8260	0	26.725	0	249.398	0	98.0	4	31.8	4	-1E+10	1	-1E+10	1	-1E+10	1	-1E+10	1	-1E+10	1	-1E+10	1
4902551	56	C	02/27/2022	00:12	-132.444	49.651	0	252.60	0	5.1820	0	33.8280	0	26.728	0	250.289	0	97.7	4	31.7	4	-1E+10	1	-1E+10	1	-1E+10	1	-1E+10	1	-1E+10	1	-1E+10	1
4902551	56	C	02/27/2022	00:12	-132.444	49.651	0	253.50	0	5.1680	0	33.8300	0	26.731	0	251.181	0	97.4	4	31.5	4	-1E+10	1	-1E+10	1	-1E+10	1	-1E+10	1	-1E+10	1	-1E+10	1
4902551	56	C	02/27/2022	00:12	-132.444	49.651	0	254.90	0	5.1560	0	33.8300	0	26.732	0	252.567	0	96.9	4	31.4	4	-1E+10	1	-1E+10	1	-1E+10	1	-1E+10	1	-1E+10	1	-1E+10	1
4902551	56	C	02/27/2022	00:12	-132.444	49.651	0	256.30	0	5.1480	0	33.8310	0	26.734	0	253.953	0	96.3	4	31.2	4	-1E+10	1	-1E+10	1	-1E+10	1	-1E+10	1	-1E+10	1	-1E+10	1
4902551	56	C	02/27/2022	00:12	-132.444	49.651	0	257.20	0	5.1390	0	33.8330	0	26.737	0	254.845	0	95.9	4	31.0	4	-1E+10	1	-1E+10	1	-1E+10	1	-1E+10	1	-1E+10	1	-1E+10	1
4902551	56	C	02/27/2022	00:12	-132.444	49.651	0	258.10	0	5.1320	0	33.8340	0	26.738	0	255.736	0	95.6	4	30.9	4	-1E+10	1	-1E+10	1	-1E+10	1	-1E+10	1	-1E+10	1	-1E+10	1
4902551	56	C	02/27/2022	00:12	-132.444	49.651	0	259.00	0	5.1260	0	33.8340	0	26.739	0	256.627	0	95.2	4	30.8	4	-1E+10	1	-1E+10	1	-1E+10	1	-1E+10	1	-1E+10	1	-1E+10	1
4902551	56	C	02/27/2022	00:12	-132.444	49.651	0	259.90	0	5.1190	0	33.8340	0	26.740	0	257.518	0	94.7	4	30.6	4	-1E+10	1	-1E+10	1	-1E+10	1	-1E+10	1	-1E+10	1	-1E+10	1
4902551	56	C	02/27/2022	00:12	-132.444	49.651	0	260.80	0	5.1140	0	33.8340	0	26.740	0	258.409	0	94.2	4	30.5	4	-1E+10	1	-1E+10	1	-1E+10	1	-1E+10	1	-1E+10	1	-1E+10	1
4902551	56	C	02/27/2022	00:12	-132.444	49.651	0	261.70	0	5.1000	0	33.8360	0	26.743	0	259.300	0	93.6	4	30.3	4	-1E+10	1	-1E+10	1	-1E+10	1	-1E+10	1	-1E+10	1	-1E+10	1
4902551	56	C	02/27/2022	00:12	-132.444	49.651	0	262.60	0	5.0870	0	33.8380	0	26.747	0	260.192	0	93.2	4	30.1	4	-1E+10	1	-1E+10	1	-1E+10	1	-1E+10	1	-1E+10	1	-1E+10	1
4902551	56	C	02/27/2022	00:12	-132.444	49.651	0	263.90	0	5.0730	0	33.8400	0	26.750	0	261.479	0	92.7	4	29.9	4	-1E+10	1	-1E+10	1	-1E+10	1	-1E+10	1	-1E+10	1	-1E+10	1
4902551	56	C	02/27/2022	00:12	-132.444	49.651	0	265.30	0	5.0550	0	33.8410	0	26.753	0	262.865	0	92.2	4	29.8	4	-1E+10	1	-1E+10	1	-1E+10	1	-1E+10	1	-1E+10	1	-1E+10	1
4902551	56	C	02/27/2022	00:12	-132.444	49.651	0	266.30	0	5.0370	0	33.8430	0	26.756	0	263.855	0	91.8	4	29.6	4	-1E+10	1	-1E+10	1	-1E+10	1	-1E+10	1	-1E+10	1	-1E+10	1
4902551	56	C	02/27/2022	00:12	-132.444	49.651	0	267.20	0	5.0320	0	33.8430	0	26.757	0	264.747	0	91.6	4	29.6	4	-1E+10	1	-1E+10	1	-1E+10	1	-1E+10	1	-1E+10	1	-1E+10	1
4902551	56	C	02/27/2022	00:12	-132.444	49.651	0	268.10	0	5.0230	0	33.8440	0	26.759	0	265.638	0	91.3	4	29.5	4	-1E+10	1	-1E+10	1	-1E+10	1	-1E+10	1	-1E+10	1	-1E+10	1
4902551	56	C	02/27/2022	00:12	-132.444	49.651	0	269.00	0	5.0190	0	33.8440	0	26.759	0	266.529	0	91.1	4	29.4	4	-1E+10	1	-1E+10	1	-1E+10	1	-1E+10	1	-1E+10	1	-1E+10	1
4902551	56	C	02/27/2022	00:12	-132.444	49.651	0	269.90	0	5.0140	0	33.8460	0	26.761	0	267.420	0	90.7	4	29.3	4	-1E+10	1	-1E+10	1	-1E+10	1	-1E+10	1	-1E+10	1	-1E+10	1
4902551	56	C	02/27/2022	00:12	-132.444	49.651	0	270.90	0	5.0030	0	33.8460	0	26.763	0	268.410	0	90.4	4	29.2	4	-1E+10	1	-1E+10	1	-1E+10	1	-1E+10	1	-1E+10	1	-1E+10	1
4902551	56	C	02/27/2022	00:12	-132.444	49.651	0	271.70	0	5.0000	0	33.8460	0	26.763	0	269.202	0	90.1	4	29.1	4	-1E+10	1	-1E+10	1	-1E+10	1	-1E+10	1	-1E+10	1	-1E+10	1
4902551	56	C	02/27/2022	00:12	-132.444	49.651	0	272.70	0	4.9920	0	33.8470	0	26.765	0	270.192	0	89.8	4	29.0	4	-1E+10	1	-1E+10	1	-1E+10	1	-1E+10	1	-1E+10	1	-1E+10	1
4902551	56	C	02/27/2022	00:12	-132.444	49.651	0	273.60	0	4.9860	0	33.8470	0	26.765	0	271.084	0	89.5	4	28.9	4	-1E+10	1	-1E+10	1	-1E+10	1	-1E+10	1	-1E+10	1	-1E+10	1
4902551	56	C	02/27/2022	00:12	-132.444	49.651	0	274.90	0	4.9780	0	33.8470	0	26.766	0	272.371	0	88.9	4	28.6	4	-1E+10	1	-1E+10	1	-1E+10	1	-1E+10	1	-1E+10	1	-1E+10	1
4902551	56	C	02/27/2022	00:12	-132.444	49.651	0	276.30	0	4.9660	0	33.8470	0	26.768	0	273.757	0	88.3	4	28.4	4	-1E+10	1	-1E+10	1	-1E+10	1	-1E+10	1	-1E+10	1	-1E+10	1
4902551	56	C	02/27/2022	00:12	-132.444	49.651	0	277.20	0	4.9610	0	33.8470	0	26.768	0	274.648	0	87.9	4	28.3	4	-1E+10	1	-1E+10	1	-1E+10	1	-1E+10	1	-1E+10	1	-1E+10	1
4902551	56	C	02/27/2022	00:12	-132.444	49.651	0	278.10	0	4.9420	0	33.8480	0	26.771	0	275.539	0	87.5	4	28.2	4	-1E+10	1	-1E+10	1	-1E+10	1	-1E+10	1	-1E+10	1	-1E+10	1
4902551	56	C	02/27/2022	00:12	-132.444	49.651	0	279.00	0	4.9150	0	33.8520	0	26.777	0	276.430	0	87.2	4	28.1	4	-1E+10	1	-1E+10	1	-1E+10	1	-1E+10	1	-1E+10	1	-1E+10	1
4902551	56	C	02/27/2022	00:12	-132.444	49.651	0	279.90	0	4.8840	0	33.8550	0	26.783	0	277.321	0	87.0	4	28.0	4	-1E+10	1	-1E+10	1	-1E+10	1	-1E+10	1	-1E+10	1	-1E+10	1
4902551	56	C	02/27/2022	00:12	-132.444	49.651	0	280.80	0	4.8780	0	33.8550	0	26.784	0	278.212	0	86.8	4	27.9	4	-1E+10	1	-1E+10	1	-1E+10	1	-1E+10	1	-1E+10	1	-1E+10	1
4902551	56	C	02/27/2022	00:12	-132.444	49.651	0	281.70	0	4.8750	0	33.8550	0	26.784	0	279.104	0	86.6	4	27.8	4	-1E+10	1	-1E+10	1	-1E+10	1	-1E+10	1	-1E+10	1	-1E+10	1
4902551	56	C	02/27/2022	00:12	-132.444	49.651	0	282.90	0	4.8710	0	33.8560	0	26.785	0	280.292	0	86.2	4	27.7	4	-1E+10	1	-1E+10	1	-1E+10	1	-1E+10	1	-1E+10	1	-1E+10	1
4902551	56	C	02/27/2022	00:12	-132.444	49.651	0	284.30	0	4.8570	0	33.8590	0	26.789	0	281.678	0	85.9	4	27.6	4	-1E+10	1	-1E+10	1	-1E+10	1	-1E+10	1	-1E+10	1	-1E+10	1
4902551	56	C	02/27/2022	00:12	-132.444	49.651	0	285.10	0	4.8510	0	33.8580	0	26.789	0	282.470	0	85.7	4	27.6	4	-1E+10	1	-1E+10	1	-1E+10	1	-1E+10	1	-1E+10	1	-1E+10	1
4902551	56	C	02/27/2022	00:12	-132.444	49.651	0	286.00	0	4.8450	0	33.8600	0	26.792	0	283.361	0	85.5	4	27.5	4	-1E+10	1	-1E+10	1	-1E+10	1	-1E+10	1	-1E+10	1	-1E+10	1
4902551	56	C	02/27/2022	00:12	-132.444	49.651	0	286.90	0	4.8390	0	33.8610	0	26.793	0	284.252	0	85.3	4	27.4	4	-1E+10	1	-1E+10	1	-1E+10	1	-1E+10	1	-1E+10	1	-1E+10	1
4902551	56	C	02/27/2022	00:12	-132.444	49.651	0	287.90	0	4.8360	0	33.8610	0	26.793	0	285.242	0	85.2	4	27.4	4	-1E+10	1	-1E+10	1	-1E+10	1	-1E+10	1	-1E+10	1	-1E+10	1
4902551	56	C	02/27/2022	00:12	-132.444	49.651	0	288.80	0	4.8340	0	33.8610	0	26.794	0	286.133	0	85.0	4	27.3	4	-1E+10	1	-1E+10	1	-1E+10	1	-1E+10	1	-1E+10	1	-1E+10	1
4902551	56	C	02/27/2022	00:12	-132.444	49.651	0	289.70	0	4.8330	0	33.8610	0	26.794	0	287.024	0	84.8	4	27.2	4	-1E+10	1	-1E+10	1	-1E+10	1	-1E+10	1	-1E+10	1	-1E+10	1
4902551	56	C	02/27/2022	00:12	-132.444	49.651	0	290.60	0	4.8320	0	33.8610	0	26.794	0	287.915	0	84.5	4	27.2	4	-1E+10	1	-1E+10	1	-1E+10	1	-1E+10	1	-1E+10	1	-1E+10	1
4902551	56	C	02/27/2022	00:12	-132.444	49.651	0	291.90	0	4.8280	0	33.8620	0	26.795	0	289.202	0	84.2	4	27.0	4	-1E+10	1	-1E+10	1	-1E+10	1	-1E+10	1	-1E+10	1	-1E+10	1
4902551	56	C	02/27/2022	00:12	-132.444	49.651	0	293.30	0	4.8240	0	33.8620	0	26.795	0	290.589	0	83.7	4	26.9	4	-1E+10	1	-1E+10	1	-1E+10	1	-1E+10	1	-1E+10	1	-1E+10	1
4902551	56	C	02/27/2022	00:12	-132.444	49.651	0	294.20	0	4.8180	0	33.8630	0	26.797	0	291.480	0	83.4	4	26.8	4	-1E+10	1	-1E+10	1	-1E+10	1	-1E+10	1	-1E+10	1	-1E+10	1
4902551	56	C	02/27/2022	00:12	-132.444	49.651	0	295.10	0	4.8140	0	33.8630	0	26.797	0	292.371	0	83.1	4	26.7	4	-1E+10	1	-1E+10	1	-1E+10	1	-1E+10	1	-1E+10	1	-1E+10	1
4902551	56	C	02/27/2022	00:12	-132.444	49.651	0	296.00	0	4.8050	0	33.8670	0	26.802	0	293.262	0	82.8	4	26.6	4	-1E+10	1	-1E+10	1	-1E+10	1	-1E+10	1	-1E+10	1	-1E+10	1
4902551	56	C	02/27/2022	00:12	-132.444	49.651	0	296.90	0	4.7970	0	33.8670	0	26.802	0	294.153	0	82.5	4	26.5	4	-1E+10	1	-1E+10	1	-1E+10	1	-1E+10	1	-1E+10	1	-1E+10	1
4902551	56	C	02/27/2022	00:12	-132.444	49.651	0	297.80	0	4.7770	0	33.8700	0	26.807	0	295.044	0	82.3	4	26.4	4	-1E+10	1	-1E+10	1	-1E+10	1	-1E+10	1	-1E+10	1	-1E+10	1
4902551	56	C	02/27/2022	00:12	-132.444	49.651	0	298.70	0	4.7760	0	33.8720	0	26.809	0	295.935	0	82.1	4	26.4	4	-1E+10	1	-1E+10	1	-1E+10	1	-1E+10	1	-1E+10	1	-1E+10	1
4902551	56	C	02/27/2022	00:12	-132.444	49.651	0	299.70	0	4.7700	0	33.8720	0	26.809	0	296.925	0	82.0	4	26.3	4	-1E+10	1	-1E+10	1	-1E+10	1	-1E+10	1	-1E+10	1	-1E+10	1
4902551	56	C	02/27/2022	00:12	-132.444	49.651	0	300.60	0	4.7650	0	33.8730	0	26.811	0	297.816	0	81.8	4	26.2	4	-1E+10	1	-1E+10	1	-1E+10	1	-1E+10	1	-1E+10	1	-1E+10	1
4902551	56	C	02/27/2022	00:12	-132.444	49.651	0	301.60	0	4.7630	0	33.8740	0	26.812	0	298.806	0	81.6	4	26.2	4	-1E+10	1	-1E+10	1	-1E+10	1	-1E+10	1	-1E+10	1	-1E+10	1
4902551	56	C	02/27/2022	00:12	-132.444	49.651	0	302.50	0	4.7610	0	33.8740	0	26.812	0	299.697	0	81.5	4	26.1	4	-1E+10	1	-1E+10	1	-1E+10	1	-1E+10	1	-1E+10	1	-1E+10	1
4902551	56	C	02/27/2022	00:12	-132.444	49.651	0	303.90	0	4.7560	0	33.8750	0	26.813	0	301.083	0	81.3	4	26.1	4	-1E+10	1	-1E+10	1	-1E+10	1	-1E+10	1	-1E+10	1	-1E+10	1
4902551	56	C	02/27/2022	00:12	-132.444	49.651	0	305.40	0	4.7540	0	33.8760	0	26.814	0	302.568	0	81.0	4	26.0	4	-1E+10	1	-1E+10	1	-1E+10	1	-1E+10	1	-1E+10	1	-1E+10	1
4902551	56	C	02/27/2022	00:12	-132.444	49.651	0	306.30	0	4.7520	0	33.8760	0	26.815	0	303.459	0	80.9	4	25.9	4	-1E+10	1	-1E+10	1	-1E+10	1	-1E+10	1	-1E+10	1	-1E+10	1
4902551	56	C	02/27/2022	00:12	-132.444	49.651	0	307.30	0	4.7500	0	33.8770	0	26.816	0	304.449	0	80.7	4	25.9	4	-1E+10	1	-1E+10	1	-1E+10	1	-1E+10	1	-1E+10	1	-1E+10	1
4902551	56	C	02/27/2022	00:12	-132.444	49.651	0	308.30	0	4.7480	0	33.8770	0	26.816	0	305.439	0	80.5	4	25.8	4	-1E+10	1	-1E+10	1	-1E+10	1	-1E+10	1	-1E+10	1	-1E+10	1
4902551	56	C	02/27/2022	00:12	-132.444	49.651	0	309.30	0	4.7470	0	33.8770	0	26.816	0	306.429	0	80.3	4	25.7	4	-1E+10	1	-1E+10	1	-1E+10	1	-1E+10	1	-1E+10	1	-1E+10	1
4902551	56	C	02/27/2022	00:12	-132.444	49.651	0	310.30	0	4.7450	0	33.8780	0	26.817	0	307.419	0	80.1	4	25.7	4	-1E+10	1	-1E+10	1	-1E+10	1	-1E+10	1	-1E+10	1	-1E+10	1
4902551	56	C	02/27/2022	00:12	-132.444	49.651	0	311.20	0	4.7410	0	33.8780	0	26.818	0	308.310	0	79.8	4	25.6	4	-1E+10	1	-1E+10	1	-1E+10	1	-1E+10	1	-1E+10	1	-1E+10	1
4902551	56	C	02/27/2022	00:12	-132.444	49.651	0	312.20	0	4.7400	0	33.8790	0	26.818	0	309.300	0	79.6	4	25.5	4	-1E+10	1	-1E+10	1	-1E+10	1	-1E+10	1	-1E+10	1	-1E+10	1
4902551	56	C	02/27/2022	00:12	-132.444	49.651	0	313.20	0	4.7380	0	33.8790	0	26.819	0	310.290	0	79.4	4	25.4	4	-1E+10	1	-1E+10	1	-1E+10	1	-1E+10	1	-1E+10	1	-1E+10	1
4902551	56	C	02/27/2022	00:12	-132.444	49.651	0	314.20	0	4.7360	0	33.8790	0	26.819	0	311.280	0	79.1	4	25.4	4	-1E+10	1	-1E+10	1	-1E+10	1	-1E+10	1	-1E+10	1	-1E+10	1
4902551	56	C	02/27/2022	00:12	-132.444	49.651	0	315.20	0	4.7310	0	33.8800	0	26.820	0	312.270	0	78.9	4	25.3	4	-1E+10	1	-1E+10	1	-1E+10	1	-1E+10	1	-1E+10	1	-1E+10	1
4902551	56	C	02/27/2022	00:12	-132.444	49.651	0	316.30	0	4.7290	0	33.8800	0	26.820	0	313.359	0	78.6	4	25.2	4	-1E+10	1	-1E+10	1	-1E+10	1	-1E+10	1	-1E+10	1	-1E+10	1
4902551	56	C	02/27/2022	00:12	-132.444	49.651	0	317.30	0	4.7270	0	33.8800	0	26.821	0	314.348	0	78.4	4	25.1	4	-1E+10	1	-1E+10	1	-1E+10	1	-1E+10	1	-1E+10	1	-1E+10	1
4902551	56	C	02/27/2022	00:12	-132.444	49.651	0	318.30	0	4.7270	0	33.8800	0	26.821	0	315.338	0	78.1	4	25.0	4	-1E+10	1	-1E+10	1	-1E+10	1	-1E+10	1	-1E+10	1	-1E+10	1
4902551	56	C	02/27/2022	00:12	-132.444	49.651	0	319.30	0	4.7250	0	33.8810	0	26.822	0	316.328	0	77.8	4	24.9	4	-1E+10	1	-1E+10	1	-1E+10	1	-1E+10	1	-1E+10	1	-1E+10	1
4902551	56	C	02/27/2022	00:12	-132.444	49.651	0	320.30	0	4.7240	0	33.8810	0	26.822	0	317.318	0	77.4	4	24.8	4	-1E+10	1	-1E+10	1	-1E+10	1	-1E+10	1	-1E+10	1	-1E+10	1
4902551	56	C	02/27/2022	00:12	-132.444	49.651	0	321.30	0	4.7220	0	33.8810	0	26.822	0	318.308	0	77.1	4	24.7	4	-1E+10	1	-1E+10	1	-1E+10	1	-1E+10	1	-1E+10	1	-1E+10	1
4902551	56	C	02/27/2022	00:12	-132.444	49.651	0	322.30	0	4.7190	0	33.8810	0	26.822	0	319.298	0	76.7	4	24.6	4	-1E+10	1	-1E+10	1	-1E+10	1	-1E+10	1	-1E+10	1	-1E+10	1
4902551	56	C	02/27/2022	00:12	-132.444	49.651	0	323.30	0	4.7150	0	33.8820	0	26.824	0	320.288	0	76.4	4	24.5	4	-1E+10	1	-1E+10	1	-1E+10	1	-1E+10	1	-1E+10	1	-1E+10	1
4902551	56	C	02/27/2022	00:12	-132.444	49.651	0	324.40	0	4.7070	0	33.8840	0	26.826	0	321.377	0	76.1	4	24.4	4	-1E+10	1	-1E+10	1	-1E+10	1	-1E+10	1	-1E+10	1	-1E+10	1
4902551	56	C	02/27/2022	00:12	-132.444	49.651	0	325.30	0	4.7010	0	33.8850	0	26.828	0	322.268	0	75.8	4	24.3	4	-1E+10	1	-1E+10	1	-1E+10	1	-1E+10	1	-1E+10	1	-1E+10	1
4902551	56	C	02/27/2022	00:12	-132.444	49.651	0	326.10	0	4.6970	0	33.8860	0	26.829	0	323.060	0	75.6	4	24.2	4	-1E+10	1	-1E+10	1	-1E+10	1	-1E+10	1	-1E+10	1	-1E+10	1
4902551	56	C	02/27/2022	00:12	-132.444	49.651	0	327.20	0	4.6900	0	33.8880	0	26.831	0	324.149	0	75.3	4	24.1	4	-1E+10	1	-1E+10	1	-1E+10	1	-1E+10	1	-1E+10	1	-1E+10	1
4902551	56	C	02/27/2022	00:12	-132.444	49.651	0	328.00	0	4.6870	0	33.8890	0	26.832	0	324.941	0	75.0	4	24.0	4	-1E+10	1	-1E+10	1	-1E+10	1	-1E+10	1	-1E+10	1	-1E+10	1
4902551	56	C	02/27/2022	00:12	-132.444	49.651	0	328.70	0	4.6810	0	33.8910	0	26.835	0	325.633	0	74.8	4	23.9	4	-1E+10	1	-1E+10	1	-1E+10	1	-1E+10	1	-1E+10	1	-1E+10	1
4902551	56	C	02/27/2022	00:12	-132.444	49.651	0	329.80	0	4.6780	0	33.8910	0	26.835	0	326.722	0	74.4	4	23.8	4	-1E+10	1	-1E+10	1	-1E+10	1	-1E+10	1	-1E+10	1	-1E+10	1
4902551	56	C	02/27/2022	00:12	-132.444	49.651	0	331.00	0	4.6780	0	33.8910	0	26.835	0	327.910	0	73.9	4	23.7	4	-1E+10	1	-1E+10	1	-1E+10	1	-1E+10	1	-1E+10	1	-1E+10	1
4902551	56	C	02/27/2022	00:12	-132.444	49.651	0	331.80	0	4.6770	0	33.8910	0	26.835	0	328.702	0	73.6	4	23.6	4	-1E+10	1	-1E+10	1	-1E+10	1	-1E+10	1	-1E+10	1	-1E+10	1
4902551	56	C	02/27/2022	00:12	-132.444	49.651	0	332.90	0	4.6670	0	33.8940	0	26.839	0	329.791	0	73.1	4	23.4	4	-1E+10	1	-1E+10	1	-1E+10	1	-1E+10	1	-1E+10	1	-1E+10	1
4902551	56	C	02/27/2022	00:12	-132.444	49.651	0	334.00	0	4.6610	0	33.8960	0	26.841	0	330.880	0	72.6	4	23.2	4	-1E+10	1	-1E+10	1	-1E+10	1	-1E+10	1	-1E+10	1	-1E+10	1
4902551	56	C	02/27/2022	00:12	-132.444	49.651	0	334.80	0	4.6590	0	33.8960	0	26.841	0	331.672	0	72.2	4	23.1	4	-1E+10	1	-1E+10	1	-1E+10	1	-1E+10	1	-1E+10	1	-1E+10	1
4902551	56	C	02/27/2022	00:12	-132.444	49.651	0	336.00	0	4.6480	0	33.8990	0	26.845	0	332.860	0	71.9	4	23.0	4	-1E+10	1	-1E+10	1	-1E+10	1	-1E+10	1	-1E+10	1	-1E+10	1
4902551	56	C	02/27/2022	00:12	-132.444	49.651	0	337.20	0	4.6350	0	33.9040	0	26.850	0	334.047	0	71.6	4	22.9	4	-1E+10	1	-1E+10	1	-1E+10	1	-1E+10	1	-1E+10	1	-1E+10	1
4902551	56	C	02/27/2022	00:12	-132.444	49.651	0	337.90	0	4.6330	0	33.9040	0	26.850	0	334.740	0	71.4	4	22.8	4	-1E+10	1	-1E+10	1	-1E+10	1	-1E+10	1	-1E+10	1	-1E+10	1
4902551	56	C	02/27/2022	00:12	-132.444	49.651	0	338.70	0	4.6270	0	33.9060	0	26.852	0	335.532	0	71.2	4	22.8	4	-1E+10	1	-1E+10	1	-1E+10	1	-1E+10	1	-1E+10	1	-1E+10	1
4902551	56	C	02/27/2022	00:12	-132.444	49.651	0	339.90	0	4.6250	0	33.9060	0	26.853	0	336.720	0	71.0	4	22.7	4	-1E+10	1	-1E+10	1	-1E+10	1	-1E+10	1	-1E+10	1	-1E+10	1
4902551	56	C	02/27/2022	00:12	-132.444	49.651	0	341.10	0	4.6230	0	33.9070	0	26.854	0	337.908	0	70.8	4	22.6	4	-1E+10	1	-1E+10	1	-1E+10	1	-1E+10	1	-1E+10	1	-1E+10	1
4902551	56	C	02/27/2022	00:12	-132.444	49.651	0	341.90	0	4.6220	0	33.9070	0	26.854	0	338.700	0	70.7	4	22.6	4	-1E+10	1	-1E+10	1	-1E+10	1	-1E+10	1	-1E+10	1	-1E+10	1
4902551	56	C	02/27/2022	00:12	-132.444	49.651	0	342.70	0	4.6200	0	33.9080	0	26.855	0	339.491	0	70.5	4	22.5	4	-1E+10	1	-1E+10	1	-1E+10	1	-1E+10	1	-1E+10	1	-1E+10	1
4902551	56	C	02/27/2022	00:12	-132.444	49.651	0	344.00	0	4.6140	0	33.9100	0	26.857	0	340.778	0	70.3	4	22.5	4	-1E+10	1	-1E+10	1	-1E+10	1	-1E+10	1	-1E+10	1	-1E+10	1
4902551	56	C	02/27/2022	00:12	-132.444	49.651	0	345.20	0	4.6120	0	33.9100	0	26.857	0	341.966	0	70.1	4	22.4	4	-1E+10	1	-1E+10	1	-1E+10	1	-1E+10	1	-1E+10	1	-1E+10	1
4902551	56	C	02/27/2022	00:12	-132.444	49.651	0	346.00	0	4.6120	0	33.9100	0	26.857	0	342.758	0	69.9	4	22.4	4	-1E+10	1	-1E+10	1	-1E+10	1	-1E+10	1	-1E+10	1	-1E+10	1
4902551	56	C	02/27/2022	00:12	-132.444	49.651	0	346.80	0	4.6120	0	33.9100	0	26.857	0	343.550	0	69.7	4	22.3	4	-1E+10	1	-1E+10	1	-1E+10	1	-1E+10	1	-1E+10	1	-1E+10	1
4902551	56	C	02/27/2022	00:12	-132.444	49.651	0	348.00	0	4.6110	0	33.9110	0	26.858	0	344.737	0	69.4	4	22.2	4	-1E+10	1	-1E+10	1	-1E+10	1	-1E+10	1	-1E+10	1	-1E+10	1
4902551	56	C	02/27/2022	00:12	-132.444	49.651	0	349.20	0	4.6110	0	33.9110	0	26.858	0	345.925	0	69.1	4	22.1	4	-1E+10	1	-1E+10	1	-1E+10	1	-1E+10	1	-1E+10	1	-1E+10	1
4902551	56	C	02/27/2022	00:12	-132.444	49.651	0	350.00	0	4.6100	0	33.9110	0	26.858	0	346.717	0	68.9	4	22.0	4	-1E+10	1	-1E+10	1	-1E+10	1	-1E+10	1	-1E+10	1	-1E+10	1
4902551	56	C	02/27/2022	00:12	-132.444	49.651	0	352.90	0	4.6000	0	33.9140	0	26.862	0	349.587	0	68.1	4	21.8	4	-1E+10	1	-1E+10	1	-1E+10	1	-1E+10	1	-1E+10	1	-1E+10	1
4902551	56	C	02/27/2022	00:12	-132.444	49.651	0	357.80	0	4.5850	0	33.9180	0	26.867	0	354.437	0	66.5	4	21.3	4	-1E+10	1	-1E+10	1	-1E+10	1	-1E+10	1	-1E+10	1	-1E+10	1
4902551	56	C	02/27/2022	00:12	-132.444	49.651	0	362.70	0	4.5620	0	33.9260	0	26.876	0	359.287	0	64.9	4	20.7	4	-1E+10	1	-1E+10	1	-1E+10	1	-1E+10	1	-1E+10	1	-1E+10	1
4902551	56	C	02/27/2022	00:12	-132.444	49.651	0	367.70	0	4.5410	0	33.9340	0	26.884	0	364.235	0	63.1	4	20.2	4	-1E+10	1	-1E+10	1	-1E+10	1	-1E+10	1	-1E+10	1	-1E+10	1
4902551	56	C	02/27/2022	00:12	-132.444	49.651	0	372.90	0	4.5130	0	33.9430	0	26.894	0	369.382	0	61.8	4	19.7	4	-1E+10	1	-1E+10	1	-1E+10	1	-1E+10	1	-1E+10	1	-1E+10	1
4902551	56	C	02/27/2022	00:12	-132.444	49.651	0	377.80	0	4.4990	0	33.9470	0	26.899	0	374.231	0	61.0	4	19.5	4	-1E+10	1	-1E+10	1	-1E+10	1	-1E+10	1	-1E+10	1	-1E+10	1
4902551	56	C	02/27/2022	00:12	-132.444	49.651	0	382.80	0	4.4930	0	33.9490	0	26.901	0	379.179	0	60.3	4	19.2	4	-1E+10	1	-1E+10	1	-1E+10	1	-1E+10	1	-1E+10	1	-1E+10	1
4902551	56	C	02/27/2022	00:12	-132.444	49.651	0	388.00	0	4.4870	0	33.9510	0	26.904	0	384.325	0	59.4	4	18.9	4	-1E+10	1	-1E+10	1	-1E+10	1	-1E+10	1	-1E+10	1	-1E+10	1
4902551	56	C	02/27/2022	00:12	-132.444	49.651	0	392.80	0	4.4730	0	33.9560	0	26.909	0	389.075	0	58.5	4	18.7	4	-1E+10	1	-1E+10	1	-1E+10	1	-1E+10	1	-1E+10	1	-1E+10	1
4902551	56	C	02/27/2022	00:12	-132.444	49.651	0	397.60	0	4.4640	0	33.9580	0	26.912	0	393.825	0	57.8	4	18.4	4	-1E+10	1	-1E+10	1	-1E+10	1	-1E+10	1	-1E+10	1	-1E+10	1
4902551	56	C	02/27/2022	00:12	-132.444	49.651	0	402.60	0	4.4560	0	33.9620	0	26.916	0	398.773	0	56.9	4	18.1	4	-1E+10	1	-1E+10	1	-1E+10	1	-1E+10	1	-1E+10	1	-1E+10	1
4902551	56	C	02/27/2022	00:12	-132.444	49.651	0	407.70	0	4.4400	0	33.9670	0	26.922	0	403.820	0	55.9	4	17.8	4	-1E+10	1	-1E+10	1	-1E+10	1	-1E+10	1	-1E+10	1	-1E+10	1
4902551	56	C	02/27/2022	00:12	-132.444	49.651	0	413.00	0	4.4280	0	33.9710	0	26.926	0	409.064	0	55.1	4	17.6	4	-1E+10	1	-1E+10	1	-1E+10	1	-1E+10	1	-1E+10	1	-1E+10	1
4902551	56	C	02/27/2022	00:12	-132.444	49.651	0	418.30	0	4.4210	0	33.9740	0	26.929	0	414.308	0	54.3	4	17.3	4	-1E+10	1	-1E+10	1	-1E+10	1	-1E+10	1	-1E+10	1	-1E+10	1
4902551	56	C	02/27/2022	00:12	-132.444	49.651	0	423.10	0	4.4130	0	33.9770	0	26.933	0	419.057	0	53.5	4	17.0	4	-1E+10	1	-1E+10	1	-1E+10	1	-1E+10	1	-1E+10	1	-1E+10	1
4902551	56	C	02/27/2022	00:12	-132.444	49.651	0	427.80	0	4.4070	0	33.9790	0	26.935	0	423.708	0	52.6	4	16.7	4	-1E+10	1	-1E+10	1	-1E+10	1	-1E+10	1	-1E+10	1	-1E+10	1
4902551	56	C	02/27/2022	00:12	-132.444	49.651	0	433.10	0	4.3990	0	33.9830	0	26.939	0	428.952	0	51.4	4	16.3	4	-1E+10	1	-1E+10	1	-1E+10	1	-1E+10	1	-1E+10	1	-1E+10	1
4902551	56	C	02/27/2022	00:12	-132.444	49.651	0	437.80	0	4.3930	0	33.9850	0	26.941	0	433.602	0	50.0	4	15.9	4	-1E+10	1	-1E+10	1	-1E+10	1	-1E+10	1	-1E+10	1	-1E+10	1
4902551	56	C	02/27/2022	00:12	-132.444	49.651	0	442.50	0	4.3780	0	33.9910	0	26.948	0	438.252	0	48.2	4	15.3	4	-1E+10	1	-1E+10	1	-1E+10	1	-1E+10	1	-1E+10	1	-1E+10	1
4902551	56	C	02/27/2022	00:12	-132.444	49.651	0	447.80	0	4.3500	0	34.0020	0	26.959	0	443.495	0	46.6	4	14.8	4	-1E+10	1	-1E+10	1	-1E+10	1	-1E+10	1	-1E+10	1	-1E+10	1
4902551	56	C	02/27/2022	00:12	-132.444	49.651	0	453.10	0	4.3370	0	34.0080	0	26.966	0	448.738	0	45.2	4	14.4	4	-1E+10	1	-1E+10	1	-1E+10	1	-1E+10	1	-1E+10	1	-1E+10	1
4902551	56	C	02/27/2022	00:12	-132.444	49.651	0	457.90	0	4.3160	0	34.0170	0	26.975	0	453.487	0	44.0	4	14.0	4	-1E+10	1	-1E+10	1	-1E+10	1	-1E+10	1	-1E+10	1	-1E+10	1
4902551	56	C	02/27/2022	00:12	-132.444	49.651	0	462.80	0	4.3050	0	34.0210	0	26.979	0	458.334	0	43.3	4	13.7	4	-1E+10	1	-1E+10	1	-1E+10	1	-1E+10	1	-1E+10	1	-1E+10	1
4902551	56	C	02/27/2022	00:12	-132.444	49.651	0	468.10	0	4.3020	0	34.0240	0	26.982	0	463.577	0	42.6	4	13.5	4	-1E+10	1	-1E+10	1	-1E+10	1	-1E+10	1	-1E+10	1	-1E+10	1
4902551	56	C	02/27/2022	00:12	-132.444	49.651	0	473.00	0	4.3000	0	34.0240	0	26.982	0	468.424	0	41.8	4	13.3	4	-1E+10	1	-1E+10	1	-1E+10	1	-1E+10	1	-1E+10	1	-1E+10	1
4902551	56	C	02/27/2022	00:12	-132.444	49.651	0	477.70	0	4.2870	0	34.0300	0	26.988	0	473.074	0	40.7	4	12.9	4	-1E+10	1	-1E+10	1	-1E+10	1	-1E+10	1	-1E+10	1	-1E+10	1
4902551	56	C	02/27/2022	00:12	-132.444	49.651	0	483.10	0	4.2740	0	34.0350	0	26.994	0	478.415	0	39.7	4	12.6	4	-1E+10	1	-1E+10	1	-1E+10	1	-1E+10	1	-1E+10	1	-1E+10	1
4902551	56	C	02/27/2022	00:12	-132.444	49.651	0	487.90	0	4.2610	0	34.0390	0	26.998	0	483.163	0	38.6	4	12.3	4	-1E+10	1	-1E+10	1	-1E+10	1	-1E+10	1	-1E+10	1	-1E+10	1
4902551	56	C	02/27/2022	00:12	-132.444	49.651	0	492.60	0	4.2380	0	34.0470	0	27.007	0	487.812	0	37.8	4	12.0	4	-1E+10	1	-1E+10	1	-1E+10	1	-1E+10	1	-1E+10	1	-1E+10	1
4902551	56	C	02/27/2022	00:12	-132.444	49.651	0	498.00	0	4.2280	0	34.0500	0	27.011	0	493.153	0	37.3	4	11.8	4	-1E+10	1	-1E+10	1	-1E+10	1	-1E+10	1	-1E+10	1	-1E+10	1
4902551	56	C	02/27/2022	00:12	-132.444	49.651	0	502.80	0	4.2240	0	34.0510	0	27.012	0	497.900	0	36.6	4	11.6	4	-1E+10	1	-1E+10	1	-1E+10	1	-1E+10	1	-1E+10	1	-1E+10	1
4902551	56	C	02/27/2022	00:12	-132.444	49.651	0	507.60	0	4.2100	0	34.0560	0	27.017	0	502.648	0	35.9	4	11.4	4	-1E+10	1	-1E+10	1	-1E+10	1	-1E+10	1	-1E+10	1	-1E+10	1
4902551	56	C	02/27/2022	00:12	-132.444	49.651	0	513.00	0	4.2030	0	34.0590	0	27.021	0	507.989	0	35.0	4	11.1	4	-1E+10	1	-1E+10	1	-1E+10	1	-1E+10	1	-1E+10	1	-1E+10	1
4902551	56	C	02/27/2022	00:12	-132.444	49.651	0	517.80	0	4.1890	0	34.0650	0	27.027	0	512.736	0	34.0	4	10.8	4	-1E+10	1	-1E+10	1	-1E+10	1	-1E+10	1	-1E+10	1	-1E+10	1
4902551	56	C	02/27/2022	00:12	-132.444	49.651	0	522.40	0	4.1770	0	34.0680	0	27.031	0	517.285	0	33.0	4	10.5	4	-1E+10	1	-1E+10	1	-1E+10	1	-1E+10	1	-1E+10	1	-1E+10	1
4902551	56	C	02/27/2022	00:12	-132.444	49.651	0	527.80	0	4.1550	0	34.0770	0	27.040	0	522.625	0	32.1	4	10.2	4	-1E+10	1	-1E+10	1	-1E+10	1	-1E+10	1	-1E+10	1	-1E+10	1
4902551	56	C	02/27/2022	00:12	-132.444	49.651	0	533.00	0	4.1430	0	34.0810	0	27.044	0	527.768	0	31.3	4	9.9	4	-1E+10	1	-1E+10	1	-1E+10	1	-1E+10	1	-1E+10	1	-1E+10	1
4902551	56	C	02/27/2022	00:12	-132.444	49.651	0	537.90	0	4.1350	0	34.0840	0	27.048	0	532.613	0	30.5	4	9.6	4	-1E+10	1	-1E+10	1	-1E+10	1	-1E+10	1	-1E+10	1	-1E+10	1
4902551	56	C	02/27/2022	00:12	-132.444	49.651	0	542.90	0	4.1280	0	34.0870	0	27.051	0	537.558	0	29.5	4	9.3	4	-1E+10	1	-1E+10	1	-1E+10	1	-1E+10	1	-1E+10	1	-1E+10	1
4902551	56	C	02/27/2022	00:12	-132.444	49.651	0	547.90	0	4.1180	0	34.0920	0	27.056	0	542.502	0	28.6	4	9.0	4	-1E+10	1	-1E+10	1	-1E+10	1	-1E+10	1	-1E+10	1	-1E+10	1
4902551	56	C	02/27/2022	00:12	-132.444	49.651	0	552.90	0	4.0990	0	34.0980	0	27.063	0	547.446	0	27.7	4	8.8	4	-1E+10	1	-1E+10	1	-1E+10	1	-1E+10	1	-1E+10	1	-1E+10	1
4902551	56	C	02/27/2022	00:12	-132.444	49.651	0	558.00	0	4.0960	0	34.1020	0	27.066	0	552.489	0	26.9	4	8.5	4	-1E+10	1	-1E+10	1	-1E+10	1	-1E+10	1	-1E+10	1	-1E+10	1
4902551	56	C	02/27/2022	00:12	-132.444	49.651	0	563.10	0	4.0870	0	34.1060	0	27.070	0	557.532	0	26.3	4	8.3	4	-1E+10	1	-1E+10	1	-1E+10	1	-1E+10	1	-1E+10	1	-1E+10	1
4902551	56	C	02/27/2022	00:12	-132.444	49.651	0	568.20	0	4.0760	0	34.1090	0	27.074	0	562.575	0	25.7	4	8.1	4	-1E+10	1	-1E+10	1	-1E+10	1	-1E+10	1	-1E+10	1	-1E+10	1
4902551	56	C	02/27/2022	00:12	-132.444	49.651	0	573.00	0	4.0630	0	34.1150	0	27.080	0	567.321	0	25.4	4	8.0	4	-1E+10	1	-1E+10	1	-1E+10	1	-1E+10	1	-1E+10	1	-1E+10	1
4902551	56	C	02/27/2022	00:12	-132.444	49.651	0	577.80	0	4.0550	0	34.1170	0	27.082	0	572.066	0	25.2	4	8.0	4	-1E+10	1	-1E+10	1	-1E+10	1	-1E+10	1	-1E+10	1	-1E+10	1
4902551	56	C	02/27/2022	00:12	-132.444	49.651	0	583.10	0	4.0400	0	34.1210	0	27.087	0	577.306	0	25.1	4	7.9	4	-1E+10	1	-1E+10	1	-1E+10	1	-1E+10	1	-1E+10	1	-1E+10	1
4902551	56	C	02/27/2022	00:12	-132.444	49.651	0	588.00	0	4.0260	0	34.1250	0	27.092	0	582.151	0	24.9	4	7.9	4	-1E+10	1	-1E+10	1	-1E+10	1	-1E+10	1	-1E+10	1	-1E+10	1
4902551	56	C	02/27/2022	00:12	-132.444	49.651	0	592.90	0	4.0130	0	34.1280	0	27.096	0	586.995	0	24.6	4	7.8	4	-1E+10	1	-1E+10	1	-1E+10	1	-1E+10	1	-1E+10	1	-1E+10	1
4902551	56	C	02/27/2022	00:12	-132.444	49.651	0	598.10	0	3.9960	0	34.1330	0	27.101	0	592.136	0	24.3	4	7.7	4	-1E+10	1	-1E+10	1	-1E+10	1	-1E+10	1	-1E+10	1	-1E+10	1
4902551	56	C	02/27/2022	00:12	-132.444	49.651	0	602.70	0	3.9750	0	34.1380	0	27.108	0	596.684	0	23.9	4	7.6	4	-1E+10	1	-1E+10	1	-1E+10	1	-1E+10	1	-1E+10	1	-1E+10	1
4902551	56	C	02/27/2022	00:12	-132.444	49.651	0	608.00	0	3.9650	0	34.1420	0	27.112	0	601.923	0	23.6	4	7.4	4	-1E+10	1	-1E+10	1	-1E+10	1	-1E+10	1	-1E+10	1	-1E+10	1
4902551	56	C	02/27/2022	00:12	-132.444	49.651	0	613.20	0	3.9540	0	34.1450	0	27.115	0	607.064	0	23.2	4	7.3	4	-1E+10	1	-1E+10	1	-1E+10	1	-1E+10	1	-1E+10	1	-1E+10	1
4902551	56	C	02/27/2022	00:12	-132.444	49.651	0	618.00	0	3.9450	0	34.1480	0	27.119	0	611.808	0	22.9	4	7.2	4	-1E+10	1	-1E+10	1	-1E+10	1	-1E+10	1	-1E+10	1	-1E+10	1
4902551	56	C	02/27/2022	00:12	-132.444	49.651	0	623.00	0	3.9400	0	34.1500	0	27.121	0	616.751	0	22.5	4	7.1	4	-1E+10	1	-1E+10	1	-1E+10	1	-1E+10	1	-1E+10	1	-1E+10	1
4902551	56	C	02/27/2022	00:12	-132.444	49.651	0	627.90	0	3.9180	0	34.1570	0	27.129	0	621.595	0	22.2	4	7.0	4	-1E+10	1	-1E+10	1	-1E+10	1	-1E+10	1	-1E+10	1	-1E+10	1
4902551	56	C	02/27/2022	00:12	-132.444	49.651	0	633.00	0	3.9100	0	34.1590	0	27.131	0	626.636	0	21.8	4	6.9	4	-1E+10	1	-1E+10	1	-1E+10	1	-1E+10	1	-1E+10	1	-1E+10	1
4902551	56	C	02/27/2022	00:12	-132.444	49.651	0	638.10	0	3.8950	0	34.1640	0	27.137	0	631.677	0	21.5	4	6.8	4	-1E+10	1	-1E+10	1	-1E+10	1	-1E+10	1	-1E+10	1	-1E+10	1
4902551	56	C	02/27/2022	00:12	-132.444	49.651	0	643.00	0	3.8810	0	34.1680	0	27.141	0	636.520	0	21.2	4	6.7	4	-1E+10	1	-1E+10	1	-1E+10	1	-1E+10	1	-1E+10	1	-1E+10	1
4902551	56	C	02/27/2022	00:12	-132.444	49.651	0	647.90	0	3.8690	0	34.1720	0	27.146	0	641.363	0	21.0	4	6.6	4	-1E+10	1	-1E+10	1	-1E+10	1	-1E+10	1	-1E+10	1	-1E+10	1
4902551	56	C	02/27/2022	00:12	-132.444	49.651	0	652.80	0	3.8600	0	34.1740	0	27.148	0	646.206	0	20.8	4	6.5	4	-1E+10	1	-1E+10	1	-1E+10	1	-1E+10	1	-1E+10	1	-1E+10	1
4902551	56	C	02/27/2022	00:12	-132.444	49.651	0	657.90	0	3.8520	0	34.1760	0	27.151	0	651.246	0	20.7	4	6.5	4	-1E+10	1	-1E+10	1	-1E+10	1	-1E+10	1	-1E+10	1	-1E+10	1
4902551	56	C	02/27/2022	00:12	-132.444	49.651	0	663.10	0	3.8460	0	34.1780	0	27.153	0	656.386	0	20.6	4	6.5	4	-1E+10	1	-1E+10	1	-1E+10	1	-1E+10	1	-1E+10	1	-1E+10	1
4902551	56	C	02/27/2022	00:12	-132.444	49.651	0	668.00	0	3.8440	0	34.1790	0	27.154	0	661.228	0	20.4	4	6.4	4	-1E+10	1	-1E+10	1	-1E+10	1	-1E+10	1	-1E+10	1	-1E+10	1
4902551	56	C	02/27/2022	00:12	-132.444	49.651	0	672.90	0	3.8430	0	34.1790	0	27.154	0	666.071	0	20.2	4	6.4	4	-1E+10	1	-1E+10	1	-1E+10	1	-1E+10	1	-1E+10	1	-1E+10	1
4902551	56	C	02/27/2022	00:12	-132.444	49.651	0	677.80	0	3.8330	0	34.1820	0	27.157	0	670.913	0	19.9	4	6.3	4	-1E+10	1	-1E+10	1	-1E+10	1	-1E+10	1	-1E+10	1	-1E+10	1
4902551	56	C	02/27/2022	00:12	-132.444	49.651	0	682.60	0	3.8170	0	34.1860	0	27.162	0	675.657	0	19.7	4	6.2	4	-1E+10	1	-1E+10	1	-1E+10	1	-1E+10	1	-1E+10	1	-1E+10	1
4902551	56	C	02/27/2022	00:12	-132.444	49.651	0	687.80	0	3.8050	0	34.1900	0	27.167	0	680.795	0	19.6	4	6.1	4	-1E+10	1	-1E+10	1	-1E+10	1	-1E+10	1	-1E+10	1	-1E+10	1
4902551	56	C	02/27/2022	00:12	-132.444	49.651	0	693.00	0	3.7920	0	34.1930	0	27.170	0	685.934	0	19.4	4	6.1	4	-1E+10	1	-1E+10	1	-1E+10	1	-1E+10	1	-1E+10	1	-1E+10	1
4902551	56	C	02/27/2022	00:12	-132.444	49.651	0	698.20	0	3.7760	0	34.1970	0	27.175	0	691.072	0	19.0	4	6.0	4	-1E+10	1	-1E+10	1	-1E+10	1	-1E+10	1	-1E+10	1	-1E+10	1
4902551	56	C	02/27/2022	00:12	-132.444	49.651	0	703.20	0	3.7500	0	34.2020	0	27.182	0	696.013	0	18.7	4	5.9	4	-1E+10	1	-1E+10	1	-1E+10	1	-1E+10	1	-1E+10	1	-1E+10	1
4902551	56	C	02/27/2022	00:12	-132.444	49.651	0	708.20	0	3.7280	0	34.2080	0	27.189	0	700.953	0	18.4	4	5.8	4	-1E+10	1	-1E+10	1	-1E+10	1	-1E+10	1	-1E+10	1	-1E+10	1
4902551	56	C	02/27/2022	00:12	-132.444	49.651	0	712.90	0	3.7200	0	34.2110	0	27.192	0	705.597	0	18.0	4	5.7	4	-1E+10	1	-1E+10	1	-1E+10	1	-1E+10	1	-1E+10	1	-1E+10	1
4902551	56	C	02/27/2022	00:12	-132.444	49.651	0	717.90	0	3.6970	0	34.2170	0	27.199	0	710.537	0	17.8	4	5.6	4	-1E+10	1	-1E+10	1	-1E+10	1	-1E+10	1	-1E+10	1	-1E+10	1
4902551	56	C	02/27/2022	00:12	-132.444	49.651	0	723.30	0	3.6770	0	34.2220	0	27.205	0	715.873	0	17.6	4	5.5	4	-1E+10	1	-1E+10	1	-1E+10	1	-1E+10	1	-1E+10	1	-1E+10	1
4902551	56	C	02/27/2022	00:12	-132.444	49.651	0	728.20	0	3.6680	0	34.2240	0	27.207	0	720.714	0	17.4	4	5.5	4	-1E+10	1	-1E+10	1	-1E+10	1	-1E+10	1	-1E+10	1	-1E+10	1
4902551	56	C	02/27/2022	00:12	-132.444	49.651	0	733.10	0	3.6480	0	34.2290	0	27.213	0	725.555	0	17.2	4	5.4	4	-1E+10	1	-1E+10	1	-1E+10	1	-1E+10	1	-1E+10	1	-1E+10	1
4902551	56	C	02/27/2022	00:12	-132.444	49.651	0	738.00	0	3.6340	0	34.2330	0	27.218	0	730.396	0	17.0	4	5.3	4	-1E+10	1	-1E+10	1	-1E+10	1	-1E+10	1	-1E+10	1	-1E+10	1
4902551	56	C	02/27/2022	00:12	-132.444	49.651	0	743.00	0	3.6290	0	34.2350	0	27.220	0	735.336	0	16.9	4	5.3	4	-1E+10	1	-1E+10	1	-1E+10	1	-1E+10	1	-1E+10	1	-1E+10	1
4902551	56	C	02/27/2022	00:12	-132.444	49.651	0	748.00	0	3.6250	0	34.2370	0	27.222	0	740.275	0	16.8	4	5.3	4	-1E+10	1	-1E+10	1	-1E+10	1	-1E+10	1	-1E+10	1	-1E+10	1
4902551	56	C	02/27/2022	00:12	-132.444	49.651	0	753.10	0	3.6170	0	34.2390	0	27.225	0	745.313	0	16.7	4	5.2	4	-1E+10	1	-1E+10	1	-1E+10	1	-1E+10	1	-1E+10	1	-1E+10	1
4902551	56	C	02/27/2022	00:12	-132.444	49.651	0	758.10	0	3.6060	0	34.2410	0	27.227	0	750.253	0	16.6	4	5.2	4	-1E+10	1	-1E+10	1	-1E+10	1	-1E+10	1	-1E+10	1	-1E+10	1
4902551	56	C	02/27/2022	00:12	-132.444	49.651	0	763.20	0	3.5980	0	34.2430	0	27.230	0	755.291	0	16.4	4	5.1	4	-1E+10	1	-1E+10	1	-1E+10	1	-1E+10	1	-1E+10	1	-1E+10	1
4902551	56	C	02/27/2022	00:12	-132.444	49.651	0	768.30	0	3.5880	0	34.2460	0	27.233	0	760.329	0	16.3	4	5.1	4	-1E+10	1	-1E+10	1	-1E+10	1	-1E+10	1	-1E+10	1	-1E+10	1
4902551	56	C	02/27/2022	00:12	-132.444	49.651	0	773.00	0	3.5800	0	34.2480	0	27.235	0	764.971	0	16.2	4	5.1	4	-1E+10	1	-1E+10	1	-1E+10	1	-1E+10	1	-1E+10	1	-1E+10	1
4902551	56	C	02/27/2022	00:12	-132.444	49.651	0	777.70	0	3.5690	0	34.2490	0	27.237	0	769.614	0	16.0	4	5.0	4	-1E+10	1	-1E+10	1	-1E+10	1	-1E+10	1	-1E+10	1	-1E+10	1
4902551	56	C	02/27/2022	00:12	-132.444	49.651	0	782.90	0	3.5610	0	34.2530	0	27.241	0	774.750	0	15.9	4	5.0	4	-1E+10	1	-1E+10	1	-1E+10	1	-1E+10	1	-1E+10	1	-1E+10	1
4902551	56	C	02/27/2022	00:12	-132.444	49.651	0	788.10	0	3.5470	0	34.2570	0	27.246	0	779.886	0	15.7	4	4.9	4	-1E+10	1	-1E+10	1	-1E+10	1	-1E+10	1	-1E+10	1	-1E+10	1
4902551	56	C	02/27/2022	00:12	-132.444	49.651	0	792.90	0	3.5380	0	34.2590	0	27.248	0	784.627	0	15.6	4	4.9	4	-1E+10	1	-1E+10	1	-1E+10	1	-1E+10	1	-1E+10	1	-1E+10	1
4902551	56	C	02/27/2022	00:12	-132.444	49.651	0	797.70	0	3.5270	0	34.2620	0	27.252	0	789.368	0	15.5	4	4.8	4	-1E+10	1	-1E+10	1	-1E+10	1	-1E+10	1	-1E+10	1	-1E+10	1
4902551	56	C	02/27/2022	00:12	-132.444	49.651	0	803.00	0	3.5210	0	34.2640	0	27.254	0	794.603	0	15.4	4	4.8	4	-1E+10	1	-1E+10	1	-1E+10	1	-1E+10	1	-1E+10	1	-1E+10	1
4902551	56	C	02/27/2022	00:12	-132.444	49.651	0	808.00	0	3.5130	0	34.2660	0	27.257	0	799.541	0	15.3	4	4.8	4	-1E+10	1	-1E+10	1	-1E+10	1	-1E+10	1	-1E+10	1	-1E+10	1
4902551	56	C	02/27/2022	00:12	-132.444	49.651	0	812.80	0	3.5060	0	34.2680	0	27.259	0	804.281	0	15.1	4	4.7	4	-1E+10	1	-1E+10	1	-1E+10	1	-1E+10	1	-1E+10	1	-1E+10	1
4902551	56	C	02/27/2022	00:12	-132.444	49.651	0	817.70	0	3.4890	0	34.2710	0	27.263	0	809.121	0	15.0	4	4.7	4	-1E+10	1	-1E+10	1	-1E+10	1	-1E+10	1	-1E+10	1	-1E+10	1
4902551	56	C	02/27/2022	00:12	-132.444	49.651	0	823.20	0	3.4760	0	34.2740	0	27.267	0	814.552	0	14.9	4	4.6	4	-1E+10	1	-1E+10	1	-1E+10	1	-1E+10	1	-1E+10	1	-1E+10	1
4902551	56	C	02/27/2022	00:12	-132.444	49.651	0	828.20	0	3.4700	0	34.2760	0	27.269	0	819.490	0	14.8	4	4.6	4	-1E+10	1	-1E+10	1	-1E+10	1	-1E+10	1	-1E+10	1	-1E+10	1
4902551	56	C	02/27/2022	00:12	-132.444	49.651	0	833.00	0	3.4640	0	34.2770	0	27.270	0	824.230	0	14.7	4	4.6	4	-1E+10	1	-1E+10	1	-1E+10	1	-1E+10	1	-1E+10	1	-1E+10	1
4902551	56	C	02/27/2022	00:12	-132.444	49.651	0	838.10	0	3.4550	0	34.2800	0	27.273	0	829.266	0	14.6	4	4.6	4	-1E+10	1	-1E+10	1	-1E+10	1	-1E+10	1	-1E+10	1	-1E+10	1
4902551	56	C	02/27/2022	00:12	-132.444	49.651	0	842.90	0	3.4350	0	34.2840	0	27.279	0	834.006	0	14.5	4	4.5	4	-1E+10	1	-1E+10	1	-1E+10	1	-1E+10	1	-1E+10	1	-1E+10	1
4902551	56	C	02/27/2022	00:12	-132.444	49.651	0	847.80	0	3.4180	0	34.2870	0	27.283	0	838.844	0	14.4	4	4.5	4	-1E+10	1	-1E+10	1	-1E+10	1	-1E+10	1	-1E+10	1	-1E+10	1
4902551	56	C	02/27/2022	00:12	-132.444	49.651	0	852.70	0	3.4120	0	34.2880	0	27.284	0	843.683	0	14.4	4	4.5	4	-1E+10	1	-1E+10	1	-1E+10	1	-1E+10	1	-1E+10	1	-1E+10	1
4902551	56	C	02/27/2022	00:12	-132.444	49.651	0	857.80	0	3.4040	0	34.2910	0	27.287	0	848.718	0	14.3	4	4.5	4	-1E+10	1	-1E+10	1	-1E+10	1	-1E+10	1	-1E+10	1	-1E+10	1
4902551	56	C	02/27/2022	00:12	-132.444	49.651	0	862.90	0	3.4020	0	34.2910	0	27.287	0	853.754	0	14.3	4	4.4	4	-1E+10	1	-1E+10	1	-1E+10	1	-1E+10	1	-1E+10	1	-1E+10	1
4902551	56	C	02/27/2022	00:12	-132.444	49.651	0	868.10	0	3.3980	0	34.2910	0	27.288	0	858.888	0	14.2	4	4.4	4	-1E+10	1	-1E+10	1	-1E+10	1	-1E+10	1	-1E+10	1	-1E+10	1
4902551	56	C	02/27/2022	00:12	-132.444	49.651	0	872.80	0	3.3870	0	34.2940	0	27.291	0	863.529	0	14.1	4	4.4	4	-1E+10	1	-1E+10	1	-1E+10	1	-1E+10	1	-1E+10	1	-1E+10	1
4902551	56	C	02/27/2022	00:12	-132.444	49.651	0	877.60	0	3.3760	0	34.2970	0	27.295	0	868.268	0	14.0	4	4.4	4	-1E+10	1	-1E+10	1	-1E+10	1	-1E+10	1	-1E+10	1	-1E+10	1
4902551	56	C	02/27/2022	00:12	-132.444	49.651	0	882.80	0	3.3690	0	34.2990	0	27.297	0	873.401	0	13.9	4	4.3	4	-1E+10	1	-1E+10	1	-1E+10	1	-1E+10	1	-1E+10	1	-1E+10	1
4902551	56	C	02/27/2022	00:12	-132.444	49.651	0	888.00	0	3.3520	0	34.3030	0	27.302	0	878.535	0	13.8	4	4.3	4	-1E+10	1	-1E+10	1	-1E+10	1	-1E+10	1	-1E+10	1	-1E+10	1
4902551	56	C	02/27/2022	00:12	-132.444	49.651	0	893.20	0	3.3430	0	34.3060	0	27.305	0	883.669	0	13.7	4	4.3	4	-1E+10	1	-1E+10	1	-1E+10	1	-1E+10	1	-1E+10	1	-1E+10	1
4902551	56	C	02/27/2022	00:12	-132.444	49.651	0	898.00	0	3.3330	0	34.3080	0	27.308	0	888.407	0	13.6	4	4.2	4	-1E+10	1	-1E+10	1	-1E+10	1	-1E+10	1	-1E+10	1	-1E+10	1
4902551	56	C	02/27/2022	00:12	-132.444	49.651	0	902.70	0	3.3240	0	34.3110	0	27.311	0	893.047	0	13.5	4	4.2	4	-1E+10	1	-1E+10	1	-1E+10	1	-1E+10	1	-1E+10	1	-1E+10	1
4902551	56	C	02/27/2022	00:12	-132.444	49.651	0	907.90	0	3.3150	0	34.3140	0	27.314	0	898.180	0	13.5	4	4.2	4	-1E+10	1	-1E+10	1	-1E+10	1	-1E+10	1	-1E+10	1	-1E+10	1
4902551	56	C	02/27/2022	00:12	-132.444	49.651	0	913.20	0	3.3040	0	34.3160	0	27.317	0	903.412	0	13.4	4	4.2	4	-1E+10	1	-1E+10	1	-1E+10	1	-1E+10	1	-1E+10	1	-1E+10	1
4902551	56	C	02/27/2022	00:12	-132.444	49.651	0	918.00	0	3.2960	0	34.3170	0	27.318	0	908.150	0	13.3	4	4.1	4	-1E+10	1	-1E+10	1	-1E+10	1	-1E+10	1	-1E+10	1	-1E+10	1
4902551	56	C	02/27/2022	00:12	-132.444	49.651	0	922.80	0	3.2860	0	34.3200	0	27.322	0	912.888	0	13.2	4	4.1	4	-1E+10	1	-1E+10	1	-1E+10	1	-1E+10	1	-1E+10	1	-1E+10	1
4902551	56	C	02/27/2022	00:12	-132.444	49.651	0	928.10	0	3.2620	0	34.3260	0	27.329	0	918.120	0	13.1	4	4.1	4	-1E+10	1	-1E+10	1	-1E+10	1	-1E+10	1	-1E+10	1	-1E+10	1
4902551	56	C	02/27/2022	00:12	-132.444	49.651	0	933.00	0	3.2510	0	34.3280	0	27.332	0	922.956	0	13.1	4	4.1	4	-1E+10	1	-1E+10	1	-1E+10	1	-1E+10	1	-1E+10	1	-1E+10	1
4902551	56	C	02/27/2022	00:12	-132.444	49.651	0	937.80	0	3.2440	0	34.3300	0	27.334	0	927.694	0	13.0	4	4.0	4	-1E+10	1	-1E+10	1	-1E+10	1	-1E+10	1	-1E+10	1	-1E+10	1
4902551	56	C	02/27/2022	00:12	-132.444	49.651	0	942.90	0	3.2380	0	34.3320	0	27.336	0	932.728	0	13.0	4	4.0	4	-1E+10	1	-1E+10	1	-1E+10	1	-1E+10	1	-1E+10	1	-1E+10	1
4902551	56	C	02/27/2022	00:12	-132.444	49.651	0	948.10	0	3.2220	0	34.3350	0	27.340	0	937.860	0	12.9	4	4.0	4	-1E+10	1	-1E+10	1	-1E+10	1	-1E+10	1	-1E+10	1	-1E+10	1
4902551	56	C	02/27/2022	00:12	-132.444	49.651	0	953.20	0	3.2040	0	34.3390	0	27.345	0	942.893	0	12.9	4	4.0	4	-1E+10	1	-1E+10	1	-1E+10	1	-1E+10	1	-1E+10	1	-1E+10	1
4902551	56	C	02/27/2022	00:12	-132.444	49.651	0	957.90	0	3.1910	0	34.3410	0	27.348	0	947.532	0	12.9	4	4.0	4	-1E+10	1	-1E+10	1	-1E+10	1	-1E+10	1	-1E+10	1	-1E+10	1
4902551	56	C	02/27/2022	00:12	-132.444	49.651	0	962.60	0	3.1860	0	34.3430	0	27.350	0	952.170	0	12.9	4	4.0	4	-1E+10	1	-1E+10	1	-1E+10	1	-1E+10	1	-1E+10	1	-1E+10	1
4902551	56	C	02/27/2022	00:12	-132.444	49.651	0	967.70	0	3.1750	0	34.3440	0	27.352	0	957.204	0	12.9	4	4.0	4	-1E+10	1	-1E+10	1	-1E+10	1	-1E+10	1	-1E+10	1	-1E+10	1
4902551	56	C	02/27/2022	00:12	-132.444	49.651	0	972.80	0	3.1630	0	34.3470	0	27.355	0	962.237	0	12.8	4	4.0	4	-1E+10	1	-1E+10	1	-1E+10	1	-1E+10	1	-1E+10	1	-1E+10	1
4902551	56	C	02/27/2022	00:12	-132.444	49.651	0	978.00	0	3.1490	0	34.3490	0	27.358	0	967.368	0	12.8	4	4.0	4	-1E+10	1	-1E+10	1	-1E+10	1	-1E+10	1	-1E+10	1	-1E+10	1
4902551	56	C	02/27/2022	00:12	-132.444	49.651	0	982.80	0	3.1440	0	34.3510	0	27.360	0	972.105	0	12.8	4	4.0	4	-1E+10	1	-1E+10	1	-1E+10	1	-1E+10	1	-1E+10	1	-1E+10	1
4902551	56	C	02/27/2022	00:12	-132.444	49.651	0	987.60	0	3.1350	0	34.3520	0	27.362	0	976.841	0	12.8	4	4.0	4	-1E+10	1	-1E+10	1	-1E+10	1	-1E+10	1	-1E+10	1	-1E+10	1
4902551	56	C	02/27/2022	00:12	-132.444	49.651	0	992.90	0	3.1210	0	34.3550	0	27.365	0	982.071	0	12.8	4	4.0	4	-1E+10	1	-1E+10	1	-1E+10	1	-1E+10	1	-1E+10	1	-1E+10	1
4902551	56	C	02/27/2022	00:12	-132.444	49.651	0	998.20	0	3.1140	0	34.3570	0	27.368	0	987.301	0	12.8	4	4.0	4	-1E+10	1	-1E+10	1	-1E+10	1	-1E+10	1	-1E+10	1	-1E+10	1
4902551	56	C	02/27/2022	00:12	-132.444	49.651	0	1005.70	0	3.0950	0	34.3610	0	27.373	0	994.701	0	12.8	4	4.0	4	-1E+10	1	-1E+10	1	-1E+10	1	-1E+10	1	-1E+10	1	-1E+10	1
4902551	56	C	02/27/2022	00:12	-132.444	49.651	0	1015.40	0	3.0680	0	34.3650	0	27.378	0	1004.272	0	12.8	4	4.0	4	-1E+10	1	-1E+10	1	-1E+10	1	-1E+10	1	-1E+10	1	-1E+10	1
4902551	56	C	02/27/2022	00:12	-132.444	49.651	0	1025.40	0	3.0580	0	34.3680	0	27.382	0	1014.138	0	12.8	4	4.0	4	-1E+10	1	-1E+10	1	-1E+10	1	-1E+10	1	-1E+10	1	-1E+10	1
4902551	56	C	02/27/2022	00:12	-132.444	49.651	0	1035.70	0	3.0440	0	34.3710	0	27.385	0	1024.300	0	12.8	4	3.9	4	-1E+10	1	-1E+10	1	-1E+10	1	-1E+10	1	-1E+10	1	-1E+10	1
4902551	56	C	02/27/2022	00:12	-132.444	49.651	0	1045.50	0	3.0280	0	34.3740	0	27.389	0	1033.968	0	12.7	4	3.9	4	-1E+10	1	-1E+10	1	-1E+10	1	-1E+10	1	-1E+10	1	-1E+10	1
4902551	56	C	02/27/2022	00:12	-132.444	49.651	0	1055.10	0	3.0170	0	34.3770	0	27.393	0	1043.438	0	12.7	4	3.9	4	-1E+10	1	-1E+10	1	-1E+10	1	-1E+10	1	-1E+10	1	-1E+10	1
4902551	56	C	02/27/2022	00:12	-132.444	49.651	0	1065.40	0	2.9950	0	34.3820	0	27.399	0	1053.598	0	12.7	4	3.9	4	-1E+10	1	-1E+10	1	-1E+10	1	-1E+10	1	-1E+10	1	-1E+10	1
4902551	56	C	02/27/2022	00:12	-132.444	49.651	0	1075.20	0	2.9730	0	34.3860	0	27.404	0	1063.265	0	12.8	4	3.9	4	-1E+10	1	-1E+10	1	-1E+10	1	-1E+10	1	-1E+10	1	-1E+10	1
4902551	56	C	02/27/2022	00:12	-132.444	49.651	0	1085.20	0	2.9550	0	34.3900	0	27.409	0	1073.128	0	12.9	4	4.0	4	-1E+10	1	-1E+10	1	-1E+10	1	-1E+10	1	-1E+10	1	-1E+10	1
4902551	56	C	02/27/2022	00:12	-132.444	49.651	0	1095.40	0	2.9340	0	34.3930	0	27.413	0	1083.189	0	12.9	4	4.0	4	-1E+10	1	-1E+10	1	-1E+10	1	-1E+10	1	-1E+10	1	-1E+10	1
4902551	56	C	02/27/2022	00:12	-132.444	49.651	0	1105.30	0	2.9180	0	34.3970	0	27.418	0	1092.953	0	13.0	4	4.0	4	-1E+10	1	-1E+10	1	-1E+10	1	-1E+10	1	-1E+10	1	-1E+10	1
4902551	56	C	02/27/2022	00:12	-132.444	49.651	0	1115.40	0	2.9090	0	34.3980	0	27.420	0	1102.913	0	13.0	4	4.0	4	-1E+10	1	-1E+10	1	-1E+10	1	-1E+10	1	-1E+10	1	-1E+10	1
4902551	56	C	02/27/2022	00:12	-132.444	49.651	0	1125.60	0	2.8910	0	34.4020	0	27.424	0	1112.972	0	13.1	4	4.0	4	-1E+10	1	-1E+10	1	-1E+10	1	-1E+10	1	-1E+10	1	-1E+10	1
4902551	56	C	02/27/2022	00:12	-132.444	49.651	0	1135.20	0	2.8730	0	34.4060	0	27.429	0	1122.439	0	13.2	4	4.0	4	-1E+10	1	-1E+10	1	-1E+10	1	-1E+10	1	-1E+10	1	-1E+10	1
4902551	56	C	02/27/2022	00:12	-132.444	49.651	0	1145.20	0	2.8550	0	34.4090	0	27.433	0	1132.299	0	13.2	4	4.1	4	-1E+10	1	-1E+10	1	-1E+10	1	-1E+10	1	-1E+10	1	-1E+10	1
4902551	56	C	02/27/2022	00:12	-132.444	49.651	0	1155.30	0	2.8470	0	34.4110	0	27.436	0	1142.258	0	13.3	4	4.1	4	-1E+10	1	-1E+10	1	-1E+10	1	-1E+10	1	-1E+10	1	-1E+10	1
4902551	56	C	02/27/2022	00:12	-132.444	49.651	0	1165.60	0	2.8300	0	34.4140	0	27.440	0	1152.414	0	13.3	4	4.1	4	-1E+10	1	-1E+10	1	-1E+10	1	-1E+10	1	-1E+10	1	-1E+10	1
4902551	56	C	02/27/2022	00:12	-132.444	49.651	0	1175.40	0	2.8280	0	34.4170	0	27.442	0	1162.076	0	13.4	4	4.1	4	-1E+10	1	-1E+10	1	-1E+10	1	-1E+10	1	-1E+10	1	-1E+10	1
4902551	56	C	02/27/2022	00:12	-132.444	49.651	0	1185.30	0	2.8150	0	34.4200	0	27.446	0	1171.836	0	13.5	4	4.1	4	-1E+10	1	-1E+10	1	-1E+10	1	-1E+10	1	-1E+10	1	-1E+10	1
4902551	56	C	02/27/2022	00:12	-132.444	49.651	0	1195.60	0	2.8060	0	34.4210	0	27.448	0	1181.990	0	13.6	4	4.2	4	-1E+10	1	-1E+10	1	-1E+10	1	-1E+10	1	-1E+10	1	-1E+10	1
4902551	56	C	02/27/2022	00:12	-132.444	49.651	0	1205.70	0	2.7920	0	34.4230	0	27.450	0	1191.946	0	13.8	4	4.2	4	-1E+10	1	-1E+10	1	-1E+10	1	-1E+10	1	-1E+10	1	-1E+10	1
4902551	56	C	02/27/2022	00:12	-132.444	49.651	0	1215.40	0	2.7740	0	34.4270	0	27.455	0	1201.508	0	13.9	4	4.3	4	-1E+10	1	-1E+10	1	-1E+10	1	-1E+10	1	-1E+10	1	-1E+10	1
4902551	56	C	02/27/2022	00:12	-132.444	49.651	0	1225.00	0	2.7620	0	34.4290	0	27.458	0	1210.971	0	14.0	4	4.3	4	-1E+10	1	-1E+10	1	-1E+10	1	-1E+10	1	-1E+10	1	-1E+10	1
4902551	56	C	02/27/2022	00:12	-132.444	49.651	0	1235.00	0	2.7490	0	34.4310	0	27.461	0	1220.827	0	14.2	4	4.3	4	-1E+10	1	-1E+10	1	-1E+10	1	-1E+10	1	-1E+10	1	-1E+10	1
4902551	56	C	02/27/2022	00:12	-132.444	49.651	0	1245.40	0	2.7390	0	34.4330	0	27.463	0	1231.077	0	14.3	4	4.4	4	-1E+10	1	-1E+10	1	-1E+10	1	-1E+10	1	-1E+10	1	-1E+10	1
4902551	56	C	02/27/2022	00:12	-132.444	49.651	0	1255.50	0	2.7230	0	34.4360	0	27.467	0	1241.031	0	14.5	4	4.4	4	-1E+10	1	-1E+10	1	-1E+10	1	-1E+10	1	-1E+10	1	-1E+10	1
4902551	56	C	02/27/2022	00:12	-132.444	49.651	0	1265.70	0	2.7160	0	34.4370	0	27.469	0	1251.084	0	14.6	4	4.5	4	-1E+10	1	-1E+10	1	-1E+10	1	-1E+10	1	-1E+10	1	-1E+10	1
4902551	56	C	02/27/2022	00:12	-132.444	49.651	0	1275.40	0	2.7050	0	34.4380	0	27.470	0	1260.643	0	14.7	4	4.5	4	-1E+10	1	-1E+10	1	-1E+10	1	-1E+10	1	-1E+10	1	-1E+10	1
4902551	56	C	02/27/2022	00:12	-132.444	49.651	0	1285.50	0	2.6910	0	34.4400	0	27.473	0	1270.595	0	14.9	4	4.6	4	-1E+10	1	-1E+10	1	-1E+10	1	-1E+10	1	-1E+10	1	-1E+10	1
4902551	56	C	02/27/2022	00:12	-132.444	49.651	0	1295.50	0	2.6830	0	34.4420	0	27.476	0	1280.449	0	15.0	4	4.6	4	-1E+10	1	-1E+10	1	-1E+10	1	-1E+10	1	-1E+10	1	-1E+10	1
4902551	56	C	02/27/2022	00:12	-132.444	49.651	0	1305.40	0	2.6730	0	34.4440	0	27.478	0	1290.204	0	15.2	4	4.7	4	-1E+10	1	-1E+10	1	-1E+10	1	-1E+10	1	-1E+10	1	-1E+10	1
4902551	56	C	02/27/2022	00:12	-132.444	49.651	0	1315.40	0	2.6630	0	34.4470	0	27.481	0	1300.056	0	15.5	4	4.7	4	-1E+10	1	-1E+10	1	-1E+10	1	-1E+10	1	-1E+10	1	-1E+10	1
4902551	56	C	02/27/2022	00:12	-132.444	49.651	0	1325.60	0	2.6510	0	34.4490	0	27.484	0	1310.106	0	15.8	4	4.8	4	-1E+10	1	-1E+10	1	-1E+10	1	-1E+10	1	-1E+10	1	-1E+10	1
4902551	56	C	02/27/2022	00:12	-132.444	49.651	0	1335.30	0	2.6340	0	34.4510	0	27.487	0	1319.662	0	16.1	4	4.9	4	-1E+10	1	-1E+10	1	-1E+10	1	-1E+10	1	-1E+10	1	-1E+10	1
4902551	56	C	02/27/2022	00:12	-132.444	49.651	0	1345.00	0	2.6110	0	34.4560	0	27.493	0	1329.218	0	16.4	4	5.0	4	-1E+10	1	-1E+10	1	-1E+10	1	-1E+10	1	-1E+10	1	-1E+10	1
4902551	56	C	02/27/2022	00:12	-132.444	49.651	0	1355.20	0	2.5980	0	34.4580	0	27.496	0	1339.266	0	16.7	4	5.1	4	-1E+10	1	-1E+10	1	-1E+10	1	-1E+10	1	-1E+10	1	-1E+10	1
4902551	56	C	02/27/2022	00:12	-132.444	49.651	0	1365.30	0	2.5800	0	34.4600	0	27.499	0	1349.215	0	17.0	4	5.2	4	-1E+10	1	-1E+10	1	-1E+10	1	-1E+10	1	-1E+10	1	-1E+10	1
4902551	56	C	02/27/2022	00:12	-132.444	49.651	0	1375.60	0	2.5670	0	34.4620	0	27.502	0	1359.360	0	17.5	4	5.3	4	-1E+10	1	-1E+10	1	-1E+10	1	-1E+10	1	-1E+10	1	-1E+10	1
4902551	56	C	02/27/2022	00:12	-132.444	49.651	0	1385.50	0	2.5410	0	34.4670	0	27.508	0	1369.111	0	18.0	4	5.5	4	-1E+10	1	-1E+10	1	-1E+10	1	-1E+10	1	-1E+10	1	-1E+10	1
4902551	56	C	02/27/2022	00:12	-132.444	49.651	0	1395.30	0	2.5250	0	34.4700	0	27.512	0	1378.763	0	18.3	4	5.6	4	-1E+10	1	-1E+10	1	-1E+10	1	-1E+10	1	-1E+10	1	-1E+10	1
4902551	56	C	02/27/2022	00:12	-132.444	49.651	0	1405.60	0	2.5100	0	34.4730	0	27.516	0	1388.907	0	18.7	4	5.7	4	-1E+10	1	-1E+10	1	-1E+10	1	-1E+10	1	-1E+10	1	-1E+10	1
4902551	56	C	02/27/2022	00:12	-132.444	49.651	0	1415.70	0	2.5000	0	34.4750	0	27.518	0	1398.854	0	19.0	4	5.8	4	-1E+10	1	-1E+10	1	-1E+10	1	-1E+10	1	-1E+10	1	-1E+10	1
4902551	56	C	02/27/2022	00:12	-132.444	49.651	0	1425.40	0	2.4890	0	34.4760	0	27.520	0	1408.406	0	19.3	4	5.9	4	-1E+10	1	-1E+10	1	-1E+10	1	-1E+10	1	-1E+10	1	-1E+10	1
4902551	56	C	02/27/2022	00:12	-132.444	49.651	0	1435.40	0	2.4750	0	34.4790	0	27.524	0	1418.253	0	19.8	4	6.0	4	-1E+10	1	-1E+10	1	-1E+10	1	-1E+10	1	-1E+10	1	-1E+10	1
4902551	56	C	02/27/2022	00:12	-132.444	49.651	0	1445.50	0	2.4620	0	34.4810	0	27.526	0	1428.198	0	20.1	4	6.1	4	-1E+10	1	-1E+10	1	-1E+10	1	-1E+10	1	-1E+10	1	-1E+10	1
4902551	56	C	02/27/2022	00:12	-132.444	49.651	0	1455.10	0	2.4540	0	34.4830	0	27.529	0	1437.651	0	20.5	4	6.3	4	-1E+10	1	-1E+10	1	-1E+10	1	-1E+10	1	-1E+10	1	-1E+10	1
4902551	56	C	02/27/2022	00:12	-132.444	49.651	0	1465.00	0	2.4450	0	34.4850	0	27.531	0	1447.398	0	20.9	4	6.4	4	-1E+10	1	-1E+10	1	-1E+10	1	-1E+10	1	-1E+10	1	-1E+10	1
4902551	56	C	02/27/2022	00:12	-132.444	49.651	0	1475.00	0	2.4350	0	34.4870	0	27.534	0	1457.244	0	21.3	4	6.5	4	-1E+10	1	-1E+10	1	-1E+10	1	-1E+10	1	-1E+10	1	-1E+10	1
4902551	56	C	02/27/2022	00:12	-132.444	49.651	0	1485.50	0	2.4180	0	34.4900	0	27.537	0	1467.581	0	21.8	4	6.6	4	-1E+10	1	-1E+10	1	-1E+10	1	-1E+10	1	-1E+10	1	-1E+10	1
4902551	56	C	02/27/2022	00:12	-132.444	49.651	0	1495.40	0	2.4070	0	34.4920	0	27.540	0	1477.327	0	22.2	4	6.8	4	-1E+10	1	-1E+10	1	-1E+10	1	-1E+10	1	-1E+10	1	-1E+10	1
4902551	56	C	02/27/2022	00:12	-132.444	49.651	0	1505.50	0	2.3980	0	34.4930	0	27.542	0	1487.269	0	22.7	4	6.9	4	-1E+10	1	-1E+10	1	-1E+10	1	-1E+10	1	-1E+10	1	-1E+10	1
4902551	56	C	02/27/2022	00:12	-132.444	49.651	0	1515.50	0	2.3820	0	34.4960	0	27.545	0	1497.113	0	23.2	4	7.1	4	-1E+10	1	-1E+10	1	-1E+10	1	-1E+10	1	-1E+10	1	-1E+10	1
4902551	56	C	02/27/2022	00:12	-132.444	49.651	0	1525.40	0	2.3690	0	34.4980	0	27.548	0	1506.857	0	23.5	4	7.2	4	-1E+10	1	-1E+10	1	-1E+10	1	-1E+10	1	-1E+10	1	-1E+10	1
4902551	56	C	02/27/2022	00:12	-132.444	49.651	0	1535.50	0	2.3610	0	34.5000	0	27.550	0	1516.798	0	23.9	4	7.3	4	-1E+10	1	-1E+10	1	-1E+10	1	-1E+10	1	-1E+10	1	-1E+10	1
4902551	56	C	02/27/2022	00:12	-132.444	49.651	0	1545.70	0	2.3520	0	34.5020	0	27.553	0	1526.837	0	24.3	4	7.4	4	-1E+10	1	-1E+10	1	-1E+10	1	-1E+10	1	-1E+10	1	-1E+10	1
4902551	56	C	02/27/2022	00:12	-132.444	49.651	0	1555.70	0	2.3440	0	34.5040	0	27.555	0	1536.679	0	24.5	4	7.4	4	-1E+10	1	-1E+10	1	-1E+10	1	-1E+10	1	-1E+10	1	-1E+10	1
4902551	56	C	02/27/2022	00:12	-132.444	49.651	0	1565.40	0	2.3390	0	34.5040	0	27.556	0	1546.225	0	24.9	4	7.6	4	-1E+10	1	-1E+10	1	-1E+10	1	-1E+10	1	-1E+10	1	-1E+10	1
4902551	56	C	02/27/2022	00:12	-132.444	49.651	0	1575.30	0	2.3250	0	34.5070	0	27.559	0	1555.967	0	25.4	4	7.7	4	-1E+10	1	-1E+10	1	-1E+10	1	-1E+10	1	-1E+10	1	-1E+10	1
4902551	56	C	02/27/2022	00:12	-132.444	49.651	0	1585.70	0	2.3150	0	34.5090	0	27.562	0	1566.201	0	25.8	4	7.8	4	-1E+10	1	-1E+10	1	-1E+10	1	-1E+10	1	-1E+10	1	-1E+10	1
4902551	56	C	02/27/2022	00:12	-132.444	49.651	0	1595.60	0	2.3050	0	34.5110	0	27.564	0	1575.943	0	26.4	4	8.0	4	-1E+10	1	-1E+10	1	-1E+10	1	-1E+10	1	-1E+10	1	-1E+10	1
4902551	56	C	02/27/2022	00:12	-132.444	49.651	0	1605.60	0	2.2920	0	34.5140	0	27.568	0	1585.782	0	27.0	4	8.2	4	-1E+10	1	-1E+10	1	-1E+10	1	-1E+10	1	-1E+10	1	-1E+10	1
4902551	56	C	02/27/2022	00:12	-132.444	49.651	0	1615.70	0	2.2830	0	34.5150	0	27.569	0	1595.719	0	27.5	4	8.4	4	-1E+10	1	-1E+10	1	-1E+10	1	-1E+10	1	-1E+10	1	-1E+10	1
4902551	56	C	02/27/2022	00:12	-132.444	49.651	0	1625.70	0	2.2730	0	34.5170	0	27.572	0	1605.558	0	28.3	4	8.6	4	-1E+10	1	-1E+10	1	-1E+10	1	-1E+10	1	-1E+10	1	-1E+10	1
4902551	56	C	02/27/2022	00:12	-132.444	49.651	0	1635.70	0	2.2550	0	34.5200	0	27.576	0	1615.396	0	29.0	4	8.8	4	-1E+10	1	-1E+10	1	-1E+10	1	-1E+10	1	-1E+10	1	-1E+10	1
4902551	56	C	02/27/2022	00:12	-132.444	49.651	0	1645.40	0	2.2440	0	34.5220	0	27.578	0	1624.938	0	29.8	4	9.0	4	-1E+10	1	-1E+10	1	-1E+10	1	-1E+10	1	-1E+10	1	-1E+10	1
4902551	56	C	02/27/2022	00:12	-132.444	49.651	0	1655.10	0	2.2300	0	34.5250	0	27.582	0	1634.480	0	30.4	4	9.2	4	-1E+10	1	-1E+10	1	-1E+10	1	-1E+10	1	-1E+10	1	-1E+10	1
4902551	56	C	02/27/2022	00:12	-132.444	49.651	0	1665.30	0	2.2190	0	34.5270	0	27.584	0	1644.514	0	31.1	4	9.4	4	-1E+10	1	-1E+10	1	-1E+10	1	-1E+10	1	-1E+10	1	-1E+10	1
4902551	56	C	02/27/2022	00:12	-132.444	49.651	0	1675.60	0	2.2100	0	34.5290	0	27.587	0	1654.645	0	31.6	4	9.6	4	-1E+10	1	-1E+10	1	-1E+10	1	-1E+10	1	-1E+10	1	-1E+10	1
4902551	56	C	02/27/2022	00:12	-132.444	49.651	0	1685.80	0	2.2010	0	34.5310	0	27.589	0	1664.677	0	32.2	4	9.8	4	-1E+10	1	-1E+10	1	-1E+10	1	-1E+10	1	-1E+10	1	-1E+10	1
4902551	56	C	02/27/2022	00:12	-132.444	49.651	0	1695.50	0	2.1930	0	34.5320	0	27.590	0	1674.217	0	32.9	4	10.0	4	-1E+10	1	-1E+10	1	-1E+10	1	-1E+10	1	-1E+10	1	-1E+10	1
4902551	56	C	02/27/2022	00:12	-132.444	49.651	0	1705.70	0	2.1810	0	34.5350	0	27.594	0	1684.249	0	33.6	4	10.2	4	-1E+10	1	-1E+10	1	-1E+10	1	-1E+10	1	-1E+10	1	-1E+10	1
4902551	56	C	02/27/2022	00:12	-132.444	49.651	0	1715.60	0	2.1750	0	34.5360	0	27.595	0	1693.985	0	34.2	4	10.4	4	-1E+10	1	-1E+10	1	-1E+10	1	-1E+10	1	-1E+10	1	-1E+10	1
4902551	56	C	02/27/2022	00:12	-132.444	49.651	0	1725.50	0	2.1630	0	34.5380	0	27.598	0	1703.720	0	35.0	4	10.6	4	-1E+10	1	-1E+10	1	-1E+10	1	-1E+10	1	-1E+10	1	-1E+10	1
4902551	56	C	02/27/2022	00:12	-132.444	49.651	0	1735.40	0	2.1530	0	34.5400	0	27.600	0	1713.456	0	35.5	4	10.8	4	-1E+10	1	-1E+10	1	-1E+10	1	-1E+10	1	-1E+10	1	-1E+10	1
4902551	56	C	02/27/2022	00:12	-132.444	49.651	0	1745.50	0	2.1450	0	34.5420	0	27.603	0	1723.387	0	36.3	4	11.0	4	-1E+10	1	-1E+10	1	-1E+10	1	-1E+10	1	-1E+10	1	-1E+10	1
4902551	56	C	02/27/2022	00:12	-132.444	49.651	0	1755.20	0	2.1330	0	34.5440	0	27.605	0	1732.924	0	37.1	4	11.2	4	-1E+10	1	-1E+10	1	-1E+10	1	-1E+10	1	-1E+10	1	-1E+10	1
4902551	56	C	02/27/2022	00:12	-132.444	49.651	0	1765.20	0	2.1220	0	34.5460	0	27.608	0	1742.756	0	37.9	4	11.5	4	-1E+10	1	-1E+10	1	-1E+10	1	-1E+10	1	-1E+10	1	-1E+10	1
4902551	56	C	02/27/2022	00:12	-132.444	49.651	0	1775.20	0	2.1120	0	34.5480	0	27.610	0	1752.588	0	38.7	4	11.7	4	-1E+10	1	-1E+10	1	-1E+10	1	-1E+10	1	-1E+10	1	-1E+10	1
4902551	56	C	02/27/2022	00:12	-132.444	49.651	0	1785.20	0	2.1020	0	34.5500	0	27.613	0	1762.419	0	39.2	4	11.9	4	-1E+10	1	-1E+10	1	-1E+10	1	-1E+10	1	-1E+10	1	-1E+10	1
4902551	56	C	02/27/2022	00:12	-132.444	49.651	0	1795.30	0	2.0970	0	34.5510	0	27.614	0	1772.348	0	39.6	4	12.0	4	-1E+10	1	-1E+10	1	-1E+10	1	-1E+10	1	-1E+10	1	-1E+10	1
4902551	56	C	02/27/2022	00:12	-132.444	49.651	0	1805.00	0	2.0940	0	34.5520	0	27.615	0	1781.883	0	40.3	4	12.2	4	-1E+10	1	-1E+10	1	-1E+10	1	-1E+10	1	-1E+10	1	-1E+10	1
4902551	56	C	02/27/2022	00:12	-132.444	49.651	0	1815.10	0	2.0840	0	34.5540	0	27.617	0	1791.812	0	41.4	4	12.5	4	-1E+10	1	-1E+10	1	-1E+10	1	-1E+10	1	-1E+10	1	-1E+10	1
4902551	56	C	02/27/2022	00:12	-132.444	49.651	0	1825.40	0	2.0720	0	34.5570	0	27.621	0	1801.936	0	42.3	4	12.8	4	-1E+10	1	-1E+10	1	-1E+10	1	-1E+10	1	-1E+10	1	-1E+10	1
4902551	56	C	02/27/2022	00:12	-132.444	49.651	0	1835.40	0	2.0650	0	34.5590	0	27.623	0	1811.765	0	42.9	4	12.9	4	-1E+10	1	-1E+10	1	-1E+10	1	-1E+10	1	-1E+10	1	-1E+10	1
4902551	56	C	02/27/2022	00:12	-132.444	49.651	0	1845.40	0	2.0560	0	34.5600	0	27.625	0	1821.593	0	43.5	4	13.1	4	-1E+10	1	-1E+10	1	-1E+10	1	-1E+10	1	-1E+10	1	-1E+10	1
4902551	56	C	02/27/2022	00:12	-132.444	49.651	0	1855.50	0	2.0440	0	34.5620	0	27.627	0	1831.519	0	44.1	4	13.3	4	-1E+10	1	-1E+10	1	-1E+10	1	-1E+10	1	-1E+10	1	-1E+10	1
4902551	56	C	02/27/2022	00:12	-132.444	49.651	0	1865.10	0	2.0380	0	34.5630	0	27.628	0	1840.954	0	44.7	4	13.5	4	-1E+10	1	-1E+10	1	-1E+10	1	-1E+10	1	-1E+10	1	-1E+10	1
4902551	56	C	02/27/2022	00:12	-132.444	49.651	0	1875.40	0	2.0320	0	34.5650	0	27.631	0	1851.076	0	45.3	4	13.7	4	-1E+10	1	-1E+10	1	-1E+10	1	-1E+10	1	-1E+10	1	-1E+10	1
4902551	56	C	02/27/2022	00:12	-132.444	49.651	0	1885.30	0	2.0220	0	34.5660	0	27.632	0	1860.804	0	46.1	4	13.9	4	-1E+10	1	-1E+10	1	-1E+10	1	-1E+10	1	-1E+10	1	-1E+10	1
4902551	56	C	02/27/2022	00:12	-132.444	49.651	0	1895.40	0	2.0140	0	34.5680	0	27.635	0	1870.728	0	46.7	4	14.1	4	-1E+10	1	-1E+10	1	-1E+10	1	-1E+10	1	-1E+10	1	-1E+10	1
4902551	56	C	02/27/2022	00:12	-132.444	49.651	0	1905.40	0	2.0070	0	34.5700	0	27.637	0	1880.554	0	47.3	4	14.2	4	-1E+10	1	-1E+10	1	-1E+10	1	-1E+10	1	-1E+10	1	-1E+10	1
4902551	56	C	02/27/2022	00:12	-132.444	49.651	0	1915.30	0	2.0020	0	34.5700	0	27.637	0	1890.281	0	47.7	4	14.4	4	-1E+10	1	-1E+10	1	-1E+10	1	-1E+10	1	-1E+10	1	-1E+10	1
4902551	56	C	02/27/2022	00:12	-132.444	49.651	0	1925.50	0	1.9960	0	34.5710	0	27.638	0	1900.302	0	48.3	4	14.6	4	-1E+10	1	-1E+10	1	-1E+10	1	-1E+10	1	-1E+10	1	-1E+10	1
4902551	56	C	02/27/2022	00:12	-132.444	49.651	0	1935.50	0	1.9900	0	34.5730	0	27.641	0	1910.126	0	48.9	4	14.7	4	-1E+10	1	-1E+10	1	-1E+10	1	-1E+10	1	-1E+10	1	-1E+10	1
4902551	56	C	02/27/2022	00:12	-132.444	49.651	0	1945.20	0	1.9830	0	34.5740	0	27.642	0	1919.656	0	49.4	4	14.9	4	-1E+10	1	-1E+10	1	-1E+10	1	-1E+10	1	-1E+10	1	-1E+10	1
4902551	56	C	02/27/2022	00:12	-132.444	49.651	0	1955.10	0	1.9760	0	34.5750	0	27.643	0	1929.381	0	49.8	4	15.0	4	-1E+10	1	-1E+10	1	-1E+10	1	-1E+10	1	-1E+10	1	-1E+10	1
4902551	56	C	02/27/2022	00:12	-132.444	49.651	0	1965.40	0	1.9730	0	34.5760	0	27.644	0	1939.498	0	50.2	4	15.1	4	-1E+10	1	-1E+10	1	-1E+10	1	-1E+10	1	-1E+10	1	-1E+10	1
4902551	56	C	02/27/2022	00:12	-132.444	49.651	0	1975.80	0	1.9700	0	34.5770	0	27.646	0	1949.714	0	50.6	4	15.2	4	-1E+10	1	-1E+10	1	-1E+10	1	-1E+10	1	-1E+10	1	-1E+10	1
4902551	56	C	02/27/2022	00:12	-132.444	49.651	0	1985.40	0	1.9670	0	34.5780	0	27.647	0	1959.143	0	51.0	4	15.4	4	-1E+10	1	-1E+10	1	-1E+10	1	-1E+10	1	-1E+10	1	-1E+10	1
4902551	56	C	02/27/2022	00:12	-132.444	49.651	0	1995.00	0	1.9610	0	34.5790	0	27.648	0	1968.572	0	51.5	4	15.5	4	-1E+10	1	-1E+10	1	-1E+10	1	-1E+10	1	-1E+10	1	-1E+10	1
4902551	56	C	02/27/2022	00:12	-132.444	49.651	0	2005.30	0	1.9550	0	34.5800	0	27.649	0	1978.687	0	52.0	4	15.7	4	-1E+10	1	-1E+10	1	-1E+10	1	-1E+10	1	-1E+10	1	-1E+10	1
4902551	56	C	02/27/2022	00:12	-132.444	49.651	0	2015.30	0	1.9510	0	34.5810	0	27.650	0	1988.508	0	52.3	4	15.7	4	-1E+10	1	-1E+10	1	-1E+10	1	-1E+10	1	-1E+10	1	-1E+10	1
4902551	56	C	02/27/2022	00:12	-132.444	49.651	0	2025.70	0	1.9460	0	34.5820	0	27.652	0	1998.721	0	52.4	4	15.8	4	-1E+10	1	-1E+10	1	-1E+10	1	-1E+10	1	-1E+10	1	-1E+10	1
4902551	56	C	02/27/2022	00:12	-132.444	49.651	0	2031.80	0	1.9450	0	34.5820	0	27.652	0	2004.711	0	52.3	4	15.7	4	-1E+10	1	-1E+10	1	-1E+10	1	-1E+10	1	-1E+10	1	-1E+10	1
4902551	56	C	02/27/2022	00:12	-132.444	49.651	0																										
4902551	57	C	03/09/2022	04:50	-132.241	49.794	0	0.50	0	7.1820	0	32.3210	0	25.285	0	0.496	0	292.9	4	98.3	4	-1E+10	1	-1E+10	1	-1E+10	1	-1E+10	1	-1E+10	1	-1E+10	1
4902551	57	C	03/09/2022	04:50	-132.241	49.794	0	0.60	0	7.1820	0	32.3210	0	25.285	0	0.595	0	-1e10	1	-1e10	1	-1E+10	1	-1E+10	1	-1E+10	1	-1E+10	1	-1E+10	1	-1E+10	1
4902551	57	C	03/09/2022	04:50	-132.241	49.794	0	1.00	0	7.1830	0	32.3210	0	25.285	0	0.991	0	285.5	4	95.8	4	-1E+10	1	-1E+10	1	-1E+10	1	-1E+10	1	-1E+10	1	-1E+10	1
4902551	57	C	03/09/2022	04:50	-132.241	49.794	0	2.10	0	7.1840	0	32.3200	0	25.284	0	2.082	0	285.5	4	95.8	4	-1E+10	1	-1E+10	1	-1E+10	1	-1E+10	1	-1E+10	1	-1E+10	1
4902551	57	C	03/09/2022	04:50	-132.241	49.794	0	3.00	0	7.1840	0	32.3200	0	25.284	0	2.974	0	285.5	4	95.8	4	-1E+10	1	-1E+10	1	-1E+10	1	-1E+10	1	-1E+10	1	-1E+10	1
4902551	57	C	03/09/2022	04:50	-132.241	49.794	0	3.90	0	7.1850	0	32.3190	0	25.283	0	3.867	0	285.4	4	95.8	4	-1E+10	1	-1E+10	1	-1E+10	1	-1E+10	1	-1E+10	1	-1E+10	1
4902551	57	C	03/09/2022	04:50	-132.241	49.794	0	4.90	0	7.1850	0	32.3190	0	25.283	0	4.858	0	285.3	4	95.7	4	-1E+10	1	-1E+10	1	-1E+10	1	-1E+10	1	-1E+10	1	-1E+10	1
4902551	57	C	03/09/2022	04:50	-132.241	49.794	0	6.10	0	7.1850	0	32.3200	0	25.284	0	6.048	0	285.3	4	95.7	4	-1E+10	1	-1E+10	1	-1E+10	1	-1E+10	1	-1E+10	1	-1E+10	1
4902551	57	C	03/09/2022	04:50	-132.241	49.794	0	7.00	0	7.1870	0	32.3210	0	25.284	0	6.940	0	285.2	4	95.7	4	-1E+10	1	-1E+10	1	-1E+10	1	-1E+10	1	-1E+10	1	-1E+10	1
4902551	57	C	03/09/2022	04:50	-132.241	49.794	0	8.30	0	7.1870	0	32.3220	0	25.285	0	8.229	0	285.0	4	95.6	4	-1E+10	1	-1E+10	1	-1E+10	1	-1E+10	1	-1E+10	1	-1E+10	1
4902551	57	C	03/09/2022	04:50	-132.241	49.794	0	9.10	0	7.1890	0	32.3220	0	25.285	0	9.022	0	285.0	4	95.7	4	-1E+10	1	-1E+10	1	-1E+10	1	-1E+10	1	-1E+10	1	-1E+10	1
4902551	57	C	03/09/2022	04:50	-132.241	49.794	0	10.10	0	7.1920	0	32.3290	0	25.290	0	10.013	0	284.9	4	95.6	4	-1E+10	1	-1E+10	1	-1E+10	1	-1E+10	1	-1E+10	1	-1E+10	1
4902551	57	C	03/09/2022	04:50	-132.241	49.794	0	11.10	0	7.1910	0	32.3300	0	25.291	0	11.005	0	284.9	4	95.6	4	-1E+10	1	-1E+10	1	-1E+10	1	-1E+10	1	-1E+10	1	-1E+10	1
4902551	57	C	03/09/2022	04:50	-132.241	49.794	0	12.10	0	7.1890	0	32.3300	0	25.291	0	11.996	0	284.9	4	95.6	4	-1E+10	1	-1E+10	1	-1E+10	1	-1E+10	1	-1E+10	1	-1E+10	1
4902551	57	C	03/09/2022	04:50	-132.241	49.794	0	13.00	0	7.1880	0	32.3300	0	25.291	0	12.888	0	284.8	4	95.6	4	-1E+10	1	-1E+10	1	-1E+10	1	-1E+10	1	-1E+10	1	-1E+10	1
4902551	57	C	03/09/2022	04:50	-132.241	49.794	0	13.80	0	7.1880	0	32.3300	0	25.291	0	13.681	0	284.8	4	95.6	4	-1E+10	1	-1E+10	1	-1E+10	1	-1E+10	1	-1E+10	1	-1E+10	1
4902551	57	C	03/09/2022	04:50	-132.241	49.794	0	14.90	0	7.1870	0	32.3300	0	25.291	0	14.772	0	284.8	4	95.6	4	-1E+10	1	-1E+10	1	-1E+10	1	-1E+10	1	-1E+10	1	-1E+10	1
4902551	57	C	03/09/2022	04:50	-132.241	49.794	0	16.00	0	7.1850	0	32.3310	0	25.292	0	15.863	0	284.7	4	95.5	4	-1E+10	1	-1E+10	1	-1E+10	1	-1E+10	1	-1E+10	1	-1E+10	1
4902551	57	C	03/09/2022	04:50	-132.241	49.794	0	17.10	0	7.1830	0	32.3310	0	25.293	0	16.953	0	284.7	4	95.6	4	-1E+10	1	-1E+10	1	-1E+10	1	-1E+10	1	-1E+10	1	-1E+10	1
4902551	57	C	03/09/2022	04:50	-132.241	49.794	0	18.00	0	7.1820	0	32.3310	0	25.293	0	17.845	0	284.6	4	95.5	4	-1E+10	1	-1E+10	1	-1E+10	1	-1E+10	1	-1E+10	1	-1E+10	1
4902551	57	C	03/09/2022	04:50	-132.241	49.794	0	18.80	0	7.1810	0	32.3310	0	25.293	0	18.638	0	284.7	4	95.5	4	-1E+10	1	-1E+10	1	-1E+10	1	-1E+10	1	-1E+10	1	-1E+10	1
4902551	57	C	03/09/2022	04:50	-132.241	49.794	0	19.90	0	7.1800	0	32.3310	0	25.293	0	19.729	0	284.6	4	95.5	4	-1E+10	1	-1E+10	1	-1E+10	1	-1E+10	1	-1E+10	1	-1E+10	1
4902551	57	C	03/09/2022	04:50	-132.241	49.794	0	21.00	0	7.1760	0	32.3320	0	25.295	0	20.819	0	284.5	4	95.5	4	-1E+10	1	-1E+10	1	-1E+10	1	-1E+10	1	-1E+10	1	-1E+10	1
4902551	57	C	03/09/2022	04:50	-132.241	49.794	0	22.10	0	7.1660	0	32.3330	0	25.297	0	21.910	0	284.6	4	95.5	4	-1E+10	1	-1E+10	1	-1E+10	1	-1E+10	1	-1E+10	1	-1E+10	1
4902551	57	C	03/09/2022	04:50	-132.241	49.794	0	23.00	0	7.1600	0	32.3310	0	25.296	0	22.802	0	284.5	4	95.4	4	-1E+10	1	-1E+10	1	-1E+10	1	-1E+10	1	-1E+10	1	-1E+10	1
4902551	57	C	03/09/2022	04:50	-132.241	49.794	0	23.80	0	7.1540	0	32.3320	0	25.298	0	23.595	0	284.6	4	95.4	4	-1E+10	1	-1E+10	1	-1E+10	1	-1E+10	1	-1E+10	1	-1E+10	1
4902551	57	C	03/09/2022	04:50	-132.241	49.794	0	24.90	0	7.1420	0	32.3300	0	25.298	0	24.686	0	284.6	4	95.4	4	-1E+10	1	-1E+10	1	-1E+10	1	-1E+10	1	-1E+10	1	-1E+10	1
4902551	57	C	03/09/2022	04:50	-132.241	49.794	0	25.90	0	7.1390	0	32.3300	0	25.298	0	25.677	0	284.6	4	95.4	4	-1E+10	1	-1E+10	1	-1E+10	1	-1E+10	1	-1E+10	1	-1E+10	1
4902551	57	C	03/09/2022	04:50	-132.241	49.794	0	26.90	0	7.1340	0	32.3290	0	25.298	0	26.668	0	284.7	4	95.4	4	-1E+10	1	-1E+10	1	-1E+10	1	-1E+10	1	-1E+10	1	-1E+10	1
4902551	57	C	03/09/2022	04:50	-132.241	49.794	0	28.00	0	7.1100	0	32.3340	0	25.305	0	27.759	0	284.8	4	95.4	4	-1E+10	1	-1E+10	1	-1E+10	1	-1E+10	1	-1E+10	1	-1E+10	1
4902551	57	C	03/09/2022	04:50	-132.241	49.794	0	29.10	0	7.0890	0	32.3290	0	25.304	0	28.849	0	284.9	4	95.4	4	-1E+10	1	-1E+10	1	-1E+10	1	-1E+10	1	-1E+10	1	-1E+10	1
4902551	57	C	03/09/2022	04:50	-132.241	49.794	0	30.00	0	7.0850	0	32.3330	0	25.308	0	29.741	0	284.8	4	95.4	4	-1E+10	1	-1E+10	1	-1E+10	1	-1E+10	1	-1E+10	1	-1E+10	1
4902551	57	C	03/09/2022	04:50	-132.241	49.794	0	30.80	0	7.0720	0	32.3310	0	25.308	0	30.534	0	284.9	4	95.4	4	-1E+10	1	-1E+10	1	-1E+10	1	-1E+10	1	-1E+10	1	-1E+10	1
4902551	57	C	03/09/2022	04:50	-132.241	49.794	0	31.90	0	7.0510	0	32.3350	0	25.314	0	31.625	0	284.9	4	95.3	4	-1E+10	1	-1E+10	1	-1E+10	1	-1E+10	1	-1E+10	1	-1E+10	1
4902551	57	C	03/09/2022	04:50	-132.241	49.794	0	33.10	0	7.0340	0	32.3290	0	25.311	0	32.814	0	284.9	4	95.3	4	-1E+10	1	-1E+10	1	-1E+10	1	-1E+10	1	-1E+10	1	-1E+10	1
4902551	57	C	03/09/2022	04:50	-132.241	49.794	0	34.00	0	7.0330	0	32.3280	0	25.311	0	33.706	0	285.0	4	95.3	4	-1E+10	1	-1E+10	1	-1E+10	1	-1E+10	1	-1E+10	1	-1E+10	1
4902551	57	C	03/09/2022	04:50	-132.241	49.794	0	34.90	0	7.0320	0	32.3300	0	25.312	0	34.599	0	285.0	4	95.3	4	-1E+10	1	-1E+10	1	-1E+10	1	-1E+10	1	-1E+10	1	-1E+10	1
4902551	57	C	03/09/2022	04:50	-132.241	49.794	0	36.00	0	7.0250	0	32.3300	0	25.313	0	35.689	0	284.9	4	95.3	4	-1E+10	1	-1E+10	1	-1E+10	1	-1E+10	1	-1E+10	1	-1E+10	1
4902551	57	C	03/09/2022	04:50	-132.241	49.794	0	36.90	0	7.0230	0	32.3310	0	25.314	0	36.581	0	284.9	4	95.3	4	-1E+10	1	-1E+10	1	-1E+10	1	-1E+10	1	-1E+10	1	-1E+10	1
4902551	57	C	03/09/2022	04:50	-132.241	49.794	0	37.80	0	7.0230	0	32.3300	0	25.314	0	37.473	0	284.9	4	95.3	4	-1E+10	1	-1E+10	1	-1E+10	1	-1E+10	1	-1E+10	1	-1E+10	1
4902551	57	C	03/09/2022	04:50	-132.241	49.794	0	39.00	0	7.0220	0	32.3320	0	25.315	0	38.663	0	284.8	4	95.2	4	-1E+10	1	-1E+10	1	-1E+10	1	-1E+10	1	-1E+10	1	-1E+10	1
4902551	57	C	03/09/2022	04:50	-132.241	49.794	0	39.90	0	7.0220	0	32.3330	0	25.316	0	39.555	0	284.8	4	95.2	4	-1E+10	1	-1E+10	1	-1E+10	1	-1E+10	1	-1E+10	1	-1E+10	1
4902551	57	C	03/09/2022	04:50	-132.241	49.794	0	40.80	0	7.0200	0	32.3330	0	25.316	0	40.447	0	284.7	4	95.2	4	-1E+10	1	-1E+10	1	-1E+10	1	-1E+10	1	-1E+10	1	-1E+10	1
4902551	57	C	03/09/2022	04:50	-132.241	49.794	0	41.90	0	7.0150	0	32.3320	0	25.316	0	41.537	0	284.6	4	95.1	4	-1E+10	1	-1E+10	1	-1E+10	1	-1E+10	1	-1E+10	1	-1E+10	1
4902551	57	C	03/09/2022	04:50	-132.241	49.794	0	42.90	0	7.0130	0	32.3330	0	25.317	0	42.529	0	284.5	4	95.1	4	-1E+10	1	-1E+10	1	-1E+10	1	-1E+10	1	-1E+10	1	-1E+10	1
4902551	57	C	03/09/2022	04:50	-132.241	49.794	0	43.80	0	7.0100	0	32.3320	0	25.317	0	43.421	0	284.5	4	95.1	4	-1E+10	1	-1E+10	1	-1E+10	1	-1E+10	1	-1E+10	1	-1E+10	1
4902551	57	C	03/09/2022	04:50	-132.241	49.794	0	45.00	0	7.0080	0	32.3300	0	25.316	0	44.610	0	284.3	4	95.0	4	-1E+10	1	-1E+10	1	-1E+10	1	-1E+10	1	-1E+10	1	-1E+10	1
4902551	57	C	03/09/2022	04:50	-132.241	49.794	0	45.90	0	7.0040	0	32.3340	0	25.319	0	45.502	0	284.2	4	95.0	4	-1E+10	1	-1E+10	1	-1E+10	1	-1E+10	1	-1E+10	1	-1E+10	1
4902551	57	C	03/09/2022	04:50	-132.241	49.794	0	46.80	0	6.9980	0	32.3340	0	25.320	0	46.394	0	284.1	4	94.9	4	-1E+10	1	-1E+10	1	-1E+10	1	-1E+10	1	-1E+10	1	-1E+10	1
4902551	57	C	03/09/2022	04:50	-132.241	49.794	0	48.10	0	6.9880	0	32.3320	0	25.320	0	47.683	0	284.1	4	94.9	4	-1E+10	1	-1E+10	1	-1E+10	1	-1E+10	1	-1E+10	1	-1E+10	1
4902551	57	C	03/09/2022	04:50	-132.241	49.794	0	49.00	0	6.9860	0	32.3310	0	25.319	0	48.575	0	283.9	4	94.8	4	-1E+10	1	-1E+10	1	-1E+10	1	-1E+10	1	-1E+10	1	-1E+10	1
4902551	57	C	03/09/2022	04:50	-132.241	49.794	0	50.00	0	6.9810	0	32.3330	0	25.322	0	49.566	0	283.8	4	94.8	4	-1E+10	1	-1E+10	1	-1E+10	1	-1E+10	1	-1E+10	1	-1E+10	1
4902551	57	C	03/09/2022	04:50	-132.241	49.794	0	50.90	0	6.9700	0	32.3380	0	25.327	0	50.458	0	283.7	4	94.7	4	-1E+10	1	-1E+10	1	-1E+10	1	-1E+10	1	-1E+10	1	-1E+10	1
4902551	57	C	03/09/2022	04:50	-132.241	49.794	0	51.90	0	6.9590	0	32.3340	0	25.325	0	51.450	0	283.7	4	94.7	4	-1E+10	1	-1E+10	1	-1E+10	1	-1E+10	1	-1E+10	1	-1E+10	1
4902551	57	C	03/09/2022	04:50	-132.241	49.794	0	52.90	0	6.9560	0	32.3340	0	25.326	0	52.441	0	283.6	4	94.7	4	-1E+10	1	-1E+10	1	-1E+10	1	-1E+10	1	-1E+10	1	-1E+10	1
4902551	57	C	03/09/2022	04:50	-132.241	49.794	0	53.80	0	6.9530	0	32.3330	0	25.325	0	53.333	0	283.5	4	94.6	4	-1E+10	1	-1E+10	1	-1E+10	1	-1E+10	1	-1E+10	1	-1E+10	1
4902551	57	C	03/09/2022	04:50	-132.241	49.794	0	54.80	0	6.9510	0	32.3340	0	25.327	0	54.324	0	283.4	4	94.6	4	-1E+10	1	-1E+10	1	-1E+10	1	-1E+10	1	-1E+10	1	-1E+10	1
4902551	57	C	03/09/2022	04:50	-132.241	49.794	0	55.80	0	6.9510	0	32.3330	0	25.326	0	55.315	0	283.3	4	94.6	4	-1E+10	1	-1E+10	1	-1E+10	1	-1E+10	1	-1E+10	1	-1E+10	1
4902551	57	C	03/09/2022	04:50	-132.241	49.794	0	57.10	0	6.9530	0	32.3330	0	25.326	0	56.604	0	283.2	4	94.5	4	-1E+10	1	-1E+10	1	-1E+10	1	-1E+10	1	-1E+10	1	-1E+10	1
4902551	57	C	03/09/2022	04:50	-132.241	49.794	0	58.10	0	6.9530	0	32.3340	0	25.326	0	57.595	0	283.2	4	94.5	4	-1E+10	1	-1E+10	1	-1E+10	1	-1E+10	1	-1E+10	1	-1E+10	1
4902551	57	C	03/09/2022	04:50	-132.241	49.794	0	59.10	0	6.9500	0	32.3340	0	25.327	0	58.586	0	283.2	4	94.5	4	-1E+10	1	-1E+10	1	-1E+10	1	-1E+10	1	-1E+10	1	-1E+10	1
4902551	57	C	03/09/2022	04:50	-132.241	49.794	0	60.10	0	6.9430	0	32.3370	0	25.330	0	59.577	0	283.2	4	94.5	4	-1E+10	1	-1E+10	1	-1E+10	1	-1E+10	1	-1E+10	1	-1E+10	1
4902551	57	C	03/09/2022	04:50	-132.241	49.794	0	61.10	0	6.9360	0	32.3330	0	25.328	0	60.568	0	283.3	4	94.5	4	-1E+10	1	-1E+10	1	-1E+10	1	-1E+10	1	-1E+10	1	-1E+10	1
4902551	57	C	03/09/2022	04:50	-132.241	49.794	0	62.10	0	6.9340	0	32.3350	0	25.330	0	61.560	0	283.3	4	94.5	4	-1E+10	1	-1E+10	1	-1E+10	1	-1E+10	1	-1E+10	1	-1E+10	1
4902551	57	C	03/09/2022	04:50	-132.241	49.794	0	63.10	0	6.9250	0	32.3330	0	25.329	0	62.551	0	283.3	4	94.5	4	-1E+10	1	-1E+10	1	-1E+10	1	-1E+10	1	-1E+10	1	-1E+10	1
4902551	57	C	03/09/2022	04:50	-132.241	49.794	0	64.10	0	6.9190	0	32.3340	0	25.331	0	63.542	0	283.4	4	94.5	4	-1E+10	1	-1E+10	1	-1E+10	1	-1E+10	1	-1E+10	1	-1E+10	1
4902551	57	C	03/09/2022	04:50	-132.241	49.794	0	64.80	0	6.9000	0	32.3320	0	25.332	0	64.236	0	283.4	4	94.5	4	-1E+10	1	-1E+10	1	-1E+10	1	-1E+10	1	-1E+10	1	-1E+10	1
4902551	57	C	03/09/2022	04:50	-132.241	49.794	0	65.80	0	6.8940	0	32.3270	0	25.329	0	65.227	0	283.4	4	94.5	4	-1E+10	1	-1E+10	1	-1E+10	1	-1E+10	1	-1E+10	1	-1E+10	1
4902551	57	C	03/09/2022	04:50	-132.241	49.794	0	66.80	0	6.8900	0	32.3280	0	25.330	0	66.218	0	283.2	4	94.4	4	-1E+10	1	-1E+10	1	-1E+10	1	-1E+10	1	-1E+10	1	-1E+10	1
4902551	57	C	03/09/2022	04:50	-132.241	49.794	0	67.80	0	6.8880	0	32.3270	0	25.329	0	67.209	0	283.2	4	94.4	4	-1E+10	1	-1E+10	1	-1E+10	1	-1E+10	1	-1E+10	1	-1E+10	1
4902551	57	C	03/09/2022	04:50	-132.241	49.794	0	68.90	0	6.8850	0	32.3260	0	25.329	0	68.299	0	283.2	4	94.4	4	-1E+10	1	-1E+10	1	-1E+10	1	-1E+10	1	-1E+10	1	-1E+10	1
4902551	57	C	03/09/2022	04:50	-132.241	49.794	0	69.90	0	6.8800	0	32.3260	0	25.330	0	69.290	0	283.1	4	94.3	4	-1E+10	1	-1E+10	1	-1E+10	1	-1E+10	1	-1E+10	1	-1E+10	1
4902551	57	C	03/09/2022	04:50	-132.241	49.794	0	71.00	0	6.8710	0	32.3260	0	25.331	0	70.381	0	283.0	4	94.3	4	-1E+10	1	-1E+10	1	-1E+10	1	-1E+10	1	-1E+10	1	-1E+10	1
4902551	57	C	03/09/2022	04:50	-132.241	49.794	0	71.70	0	6.8700	0	32.3250	0	25.330	0	71.074	0	282.9	4	94.3	4	-1E+10	1	-1E+10	1	-1E+10	1	-1E+10	1	-1E+10	1	-1E+10	1
4902551	57	C	03/09/2022	04:50	-132.241	49.794	0	72.80	0	6.8700	0	32.3250	0	25.330	0	72.165	0	282.9	4	94.3	4	-1E+10	1	-1E+10	1	-1E+10	1	-1E+10	1	-1E+10	1	-1E+10	1
4902551	57	C	03/09/2022	04:50	-132.241	49.794	0	73.90	0	6.8700	0	32.3250	0	25.330	0	73.255	0	282.8	4	94.2	4	-1E+10	1	-1E+10	1	-1E+10	1	-1E+10	1	-1E+10	1	-1E+10	1
4902551	57	C	03/09/2022	04:50	-132.241	49.794	0	75.00	0	6.8700	0	32.3250	0	25.330	0	74.345	0	282.7	4	94.2	4	-1E+10	1	-1E+10	1	-1E+10	1	-1E+10	1	-1E+10	1	-1E+10	1
4902551	57	C	03/09/2022	04:50	-132.241	49.794	0	76.10	0	6.8700	0	32.3250	0	25.330	0	75.435	0	282.6	4	94.1	4	-1E+10	1	-1E+10	1	-1E+10	1	-1E+10	1	-1E+10	1	-1E+10	1
4902551	57	C	03/09/2022	04:50	-132.241	49.794	0	76.90	0	6.8700	0	32.3250	0	25.330	0	76.228	0	282.5	4	94.1	4	-1E+10	1	-1E+10	1	-1E+10	1	-1E+10	1	-1E+10	1	-1E+10	1
4902551	57	C	03/09/2022	04:50	-132.241	49.794	0	78.00	0	6.8690	0	32.3250	0	25.331	0	77.318	0	282.4	4	94.1	4	-1E+10	1	-1E+10	1	-1E+10	1	-1E+10	1	-1E+10	1	-1E+10	1
4902551	57	C	03/09/2022	04:50	-132.241	49.794	0	79.10	0	6.8710	0	32.3260	0	25.331	0	78.408	0	282.3	4	94.0	4	-1E+10	1	-1E+10	1	-1E+10	1	-1E+10	1	-1E+10	1	-1E+10	1
4902551	57	C	03/09/2022	04:50	-132.241	49.794	0	79.90	0	6.8700	0	32.3270	0	25.332	0	79.201	0	282.1	4	94.0	4	-1E+10	1	-1E+10	1	-1E+10	1	-1E+10	1	-1E+10	1	-1E+10	1
4902551	57	C	03/09/2022	04:50	-132.241	49.794	0	81.00	0	6.8700	0	32.3260	0	25.331	0	80.291	0	282.0	4	93.9	4	-1E+10	1	-1E+10	1	-1E+10	1	-1E+10	1	-1E+10	1	-1E+10	1
4902551	57	C	03/09/2022	04:50	-132.241	49.794	0	82.20	0	6.8690	0	32.3260	0	25.331	0	81.481	0	281.9	4	93.9	4	-1E+10	1	-1E+10	1	-1E+10	1	-1E+10	1	-1E+10	1	-1E+10	1
4902551	57	C	03/09/2022	04:50	-132.241	49.794	0	82.90	0	6.8690	0	32.3260	0	25.331	0	82.174	0	281.7	4	93.9	4	-1E+10	1	-1E+10	1	-1E+10	1	-1E+10	1	-1E+10	1	-1E+10	1
4902551	57	C	03/09/2022	04:50	-132.241	49.794	0	84.00	0	6.8680	0	32.3270	0	25.332	0	83.264	0	288.7	4	96.2	4	-1E+10	1	-1E+10	1	-1E+10	1	-1E+10	1	-1E+10	1	-1E+10	1
4902551	57	C	03/09/2022	04:50	-132.241	49.794	0	85.20	0	6.8670	0	32.3270	0	25.332	0	84.454	0	288.6	4	96.2	4	-1E+10	1	-1E+10	1	-1E+10	1	-1E+10	1	-1E+10	1	-1E+10	1
4902551	57	C	03/09/2022	04:50	-132.241	49.794	0	86.00	0	6.8660	0	32.3270	0	25.333	0	85.247	0	288.4	4	96.1	4	-1E+10	1	-1E+10	1	-1E+10	1	-1E+10	1	-1E+10	1	-1E+10	1
4902551	57	C	03/09/2022	04:50	-132.241	49.794	0	86.70	0	6.8660	0	32.3270	0	25.333	0	85.940	0	288.3	4	96.0	4	-1E+10	1	-1E+10	1	-1E+10	1	-1E+10	1	-1E+10	1	-1E+10	1
4902551	57	C	03/09/2022	04:50	-132.241	49.794	0	87.80	0	6.8650	0	32.3270	0	25.333	0	87.030	0	288.0	4	95.9	4	-1E+10	1	-1E+10	1	-1E+10	1	-1E+10	1	-1E+10	1	-1E+10	1
4902551	57	C	03/09/2022	04:50	-132.241	49.794	0	88.90	0	6.8640	0	32.3270	0	25.333	0	88.121	0	287.7	4	95.8	4	-1E+10	1	-1E+10	1	-1E+10	1	-1E+10	1	-1E+10	1	-1E+10	1
4902551	57	C	03/09/2022	04:50	-132.241	49.794	0	90.00	0	6.8630	0	32.3270	0	25.333	0	89.211	0	287.5	4	95.8	4	-1E+10	1	-1E+10	1	-1E+10	1	-1E+10	1	-1E+10	1	-1E+10	1
4902551	57	C	03/09/2022	04:50	-132.241	49.794	0	91.10	0	6.8610	0	32.3270	0	25.333	0	90.301	0	287.1	4	95.6	4	-1E+10	1	-1E+10	1	-1E+10	1	-1E+10	1	-1E+10	1	-1E+10	1
4902551	57	C	03/09/2022	04:50	-132.241	49.794	0	91.80	0	6.8610	0	32.3270	0	25.333	0	90.994	0	287.0	4	95.6	4	-1E+10	1	-1E+10	1	-1E+10	1	-1E+10	1	-1E+10	1	-1E+10	1
4902551	57	C	03/09/2022	04:50	-132.241	49.794	0	92.80	0	6.8580	0	32.3280	0	25.335	0	91.985	0	286.6	4	95.4	4	-1E+10	1	-1E+10	1	-1E+10	1	-1E+10	1	-1E+10	1	-1E+10	1
4902551	57	C	03/09/2022	04:50	-132.241	49.794	0	93.90	0	6.8560	0	32.3270	0	25.334	0	93.076	0	286.3	4	95.3	4	-1E+10	1	-1E+10	1	-1E+10	1	-1E+10	1	-1E+10	1	-1E+10	1
4902551	57	C	03/09/2022	04:50	-132.241	49.794	0	94.90	0	6.8580	0	32.3260	0	25.333	0	94.067	0	285.9	4	95.2	4	-1E+10	1	-1E+10	1	-1E+10	1	-1E+10	1	-1E+10	1	-1E+10	1
4902551	57	C	03/09/2022	04:50	-132.241	49.794	0	95.90	0	6.8630	0	32.3270	0	25.333	0	95.058	0	285.4	4	95.1	4	-1E+10	1	-1E+10	1	-1E+10	1	-1E+10	1	-1E+10	1	-1E+10	1
4902551	57	C	03/09/2022	04:50	-132.241	49.794	0	96.80	0	6.8620	0	32.3290	0	25.335	0	95.949	0	284.8	4	94.9	4	-1E+10	1	-1E+10	1	-1E+10	1	-1E+10	1	-1E+10	1	-1E+10	1
4902551	57	C	03/09/2022	04:50	-132.241	49.794	0	98.10	0	6.8580	0	32.3300	0	25.336	0	97.238	0	283.8	4	94.5	4	-1E+10	1	-1E+10	1	-1E+10	1	-1E+10	1	-1E+10	1	-1E+10	1
4902551	57	C	03/09/2022	04:50	-132.241	49.794	0	99.00	0	6.8460	0	32.3340	0	25.341	0	98.130	0	283.0	4	94.2	4	-1E+10	1	-1E+10	1	-1E+10	1	-1E+10	1	-1E+10	1	-1E+10	1
4902551	57	C	03/09/2022	04:50	-132.241	49.794	0	99.90	0	6.8240	0	32.3370	0	25.346	0	99.021	0	282.1	4	93.9	4	-1E+10	1	-1E+10	1	-1E+10	1	-1E+10	1	-1E+10	1	-1E+10	1
4902551	57	C	03/09/2022	04:50	-132.241	49.794	0	101.10	0	6.8030	0	32.3310	0	25.344	0	100.211	0	280.7	4	93.4	4	-1E+10	1	-1E+10	1	-1E+10	1	-1E+10	1	-1E+10	1	-1E+10	1
4902551	57	C	03/09/2022	04:50	-132.241	49.794	0	102.00	0	6.8010	0	32.3300	0	25.344	0	101.102	0	279.5	4	93.0	4	-1E+10	1	-1E+10	1	-1E+10	1	-1E+10	1	-1E+10	1	-1E+10	1
4902551	57	C	03/09/2022	04:50	-132.241	49.794	0	102.70	0	6.7940	0	32.3330	0	25.347	0	101.796	0	278.1	4	92.5	4	-1E+10	1	-1E+10	1	-1E+10	1	-1E+10	1	-1E+10	1	-1E+10	1
4902551	57	C	03/09/2022	04:50	-132.241	49.794	0	104.10	0	6.7920	0	32.3340	0	25.348	0	103.183	0	274.5	4	91.3	4	-1E+10	1	-1E+10	1	-1E+10	1	-1E+10	1	-1E+10	1	-1E+10	1
4902551	57	C	03/09/2022	04:50	-132.241	49.794	0	105.00	0	6.8260	0	32.3620	0	25.366	0	104.075	0	270.6	4	90.1	4	-1E+10	1	-1E+10	1	-1E+10	1	-1E+10	1	-1E+10	1	-1E+10	1
4902551	57	C	03/09/2022	04:50	-132.241	49.794	0	105.90	0	6.7920	0	32.3930	0	25.394	0	104.967	0	267.0	4	88.9	4	-1E+10	1	-1E+10	1	-1E+10	1	-1E+10	1	-1E+10	1	-1E+10	1
4902551	57	C	03/09/2022	04:50	-132.241	49.794	0	107.10	0	6.7670	0	32.4590	0	25.450	0	106.156	0	260.8	4	86.8	4	-1E+10	1	-1E+10	1	-1E+10	1	-1E+10	1	-1E+10	1	-1E+10	1
4902551	57	C	03/09/2022	04:50	-132.241	49.794	0	108.10	0	6.7360	0	32.5110	0	25.495	0	107.147	0	254.1	4	84.5	4	-1E+10	1	-1E+10	1	-1E+10	1	-1E+10	1	-1E+10	1	-1E+10	1
4902551	57	C	03/09/2022	04:50	-132.241	49.794	0	108.90	0	6.6870	0	32.5460	0	25.529	0	107.940	0	248.3	4	82.5	4	-1E+10	1	-1E+10	1	-1E+10	1	-1E+10	1	-1E+10	1	-1E+10	1
4902551	57	C	03/09/2022	04:50	-132.241	49.794	0	110.00	0	6.5850	0	32.6190	0	25.599	0	109.030	0	241.4	4	80.1	4	-1E+10	1	-1E+10	1	-1E+10	1	-1E+10	1	-1E+10	1	-1E+10	1
4902551	57	C	03/09/2022	04:50	-132.241	49.794	0	111.20	0	6.4660	0	32.7330	0	25.705	0	110.219	0	238.1	4	78.8	4	-1E+10	1	-1E+10	1	-1E+10	1	-1E+10	1	-1E+10	1	-1E+10	1
4902551	57	C	03/09/2022	04:50	-132.241	49.794	0	111.90	0	6.4410	0	32.7620	0	25.731	0	110.913	0	236.8	4	78.4	4	-1E+10	1	-1E+10	1	-1E+10	1	-1E+10	1	-1E+10	1	-1E+10	1
4902551	57	C	03/09/2022	04:50	-132.241	49.794	0	113.00	0	6.4310	0	32.7730	0	25.741	0	112.003	0	234.2	4	77.5	4	-1E+10	1	-1E+10	1	-1E+10	1	-1E+10	1	-1E+10	1	-1E+10	1
4902551	57	C	03/09/2022	04:50	-132.241	49.794	0	114.20	0	6.4200	0	32.7880	0	25.754	0	113.192	0	230.5	4	76.3	4	-1E+10	1	-1E+10	1	-1E+10	1	-1E+10	1	-1E+10	1	-1E+10	1
4902551	57	C	03/09/2022	04:50	-132.241	49.794	0	115.00	0	6.3990	0	32.8170	0	25.779	0	113.984	0	227.6	4	75.3	4	-1E+10	1	-1E+10	1	-1E+10	1	-1E+10	1	-1E+10	1	-1E+10	1
4902551	57	C	03/09/2022	04:50	-132.241	49.794	0	116.20	0	6.3740	0	32.8490	0	25.808	0	115.174	0	223.2	4	73.8	4	-1E+10	1	-1E+10	1	-1E+10	1	-1E+10	1	-1E+10	1	-1E+10	1
4902551	57	C	03/09/2022	04:50	-132.241	49.794	0	117.10	0	6.3210	0	32.9680	0	25.908	0	116.065	0	220.8	4	73.0	4	-1E+10	1	-1E+10	1	-1E+10	1	-1E+10	1	-1E+10	1	-1E+10	1
4902551	57	C	03/09/2022	04:50	-132.241	49.794	0	117.90	0	6.3190	0	32.9920	0	25.928	0	116.858	0	220.0	4	72.7	4	-1E+10	1	-1E+10	1	-1E+10	1	-1E+10	1	-1E+10	1	-1E+10	1
4902551	57	C	03/09/2022	04:50	-132.241	49.794	0	118.90	0	6.3170	0	32.9980	0	25.933	0	117.849	0	218.7	4	72.3	4	-1E+10	1	-1E+10	1	-1E+10	1	-1E+10	1	-1E+10	1	-1E+10	1
4902551	57	C	03/09/2022	04:50	-132.241	49.794	0	119.80	0	6.3150	0	33.0020	0	25.936	0	118.741	0	217.0	4	71.7	4	-1E+10	1	-1E+10	1	-1E+10	1	-1E+10	1	-1E+10	1	-1E+10	1
4902551	57	C	03/09/2022	04:50	-132.241	49.794	0	120.90	0	6.3110	0	33.0070	0	25.941	0	119.831	0	215.0	4	71.1	4	-1E+10	1	-1E+10	1	-1E+10	1	-1E+10	1	-1E+10	1	-1E+10	1
4902551	57	C	03/09/2022	04:50	-132.241	49.794	0	121.90	0	6.3060	0	33.0130	0	25.946	0	120.822	0	212.8	4	70.3	4	-1E+10	1	-1E+10	1	-1E+10	1	-1E+10	1	-1E+10	1	-1E+10	1
4902551	57	C	03/09/2022	04:50	-132.241	49.794	0	123.00	0	6.2950	0	33.0270	0	25.958	0	121.911	0	210.1	4	69.4	4	-1E+10	1	-1E+10	1	-1E+10	1	-1E+10	1	-1E+10	1	-1E+10	1
4902551	57	C	03/09/2022	04:50	-132.241	49.794	0	124.00	0	6.2820	0	33.0440	0	25.973	0	122.902	0	206.3	4	68.2	4	-1E+10	1	-1E+10	1	-1E+10	1	-1E+10	1	-1E+10	1	-1E+10	1
4902551	57	C	03/09/2022	04:50	-132.241	49.794	0	125.10	0	6.2730	0	33.0680	0	25.994	0	123.992	0	202.4	4	66.9	4	-1E+10	1	-1E+10	1	-1E+10	1	-1E+10	1	-1E+10	1	-1E+10	1
4902551	57	C	03/09/2022	04:50	-132.241	49.794	0	126.00	0	6.2750	0	33.0850	0	26.007	0	124.884	0	199.5	4	65.9	4	-1E+10	1	-1E+10	1	-1E+10	1	-1E+10	1	-1E+10	1	-1E+10	1
4902551	57	C	03/09/2022	04:50	-132.241	49.794	0	126.90	0	6.3050	0	33.0990	0	26.014	0	125.776	0	196.8	4	65.1	4	-1E+10	1	-1E+10	1	-1E+10	1	-1E+10	1	-1E+10	1	-1E+10	1
4902551	57	C	03/09/2022	04:50	-132.241	49.794	0	127.80	0	6.3340	0	33.1350	0	26.039	0	126.668	0	194.5	4	64.4	4	-1E+10	1	-1E+10	1	-1E+10	1	-1E+10	1	-1E+10	1	-1E+10	1
4902551	57	C	03/09/2022	04:50	-132.241	49.794	0	128.80	0	6.3370	0	33.1690	0	26.065	0	127.658	0	191.7	4	63.5	4	-1E+10	1	-1E+10	1	-1E+10	1	-1E+10	1	-1E+10	1	-1E+10	1
4902551	57	C	03/09/2022	04:50	-132.241	49.794	0	129.90	0	6.3340	0	33.1930	0	26.085	0	128.748	0	188.8	4	62.5	4	-1E+10	1	-1E+10	1	-1E+10	1	-1E+10	1	-1E+10	1	-1E+10	1
4902551	57	C	03/09/2022	04:50	-132.241	49.794	0	131.00	0	6.3220	0	33.2300	0	26.115	0	129.838	0	185.6	4	61.5	4	-1E+10	1	-1E+10	1	-1E+10	1	-1E+10	1	-1E+10	1	-1E+10	1
4902551	57	C	03/09/2022	04:50	-132.241	49.794	0	132.20	0	6.3160	0	33.2810	0	26.156	0	131.027	0	182.7	4	60.5	4	-1E+10	1	-1E+10	1	-1E+10	1	-1E+10	1	-1E+10	1	-1E+10	1
4902551	57	C	03/09/2022	04:50	-132.241	49.794	0	133.00	0	6.3120	0	33.2970	0	26.169	0	131.820	0	181.0	4	60.0	4	-1E+10	1	-1E+10	1	-1E+10	1	-1E+10	1	-1E+10	1	-1E+10	1
4902551	57	C	03/09/2022	04:50	-132.241	49.794	0	133.90	0	6.3090	0	33.2990	0	26.171	0	132.712	0	179.0	4	59.3	4	-1E+10	1	-1E+10	1	-1E+10	1	-1E+10	1	-1E+10	1	-1E+10	1
4902551	57	C	03/09/2022	04:50	-132.241	49.794	0	134.70	0	6.3080	0	33.3000	0	26.172	0	133.504	0	176.9	4	58.6	4	-1E+10	1	-1E+10	1	-1E+10	1	-1E+10	1	-1E+10	1	-1E+10	1
4902551	57	C	03/09/2022	04:50	-132.241	49.794	0	135.60	0	6.3000	0	33.3070	0	26.179	0	134.396	0	174.6	4	57.8	4	-1E+10	1	-1E+10	1	-1E+10	1	-1E+10	1	-1E+10	1	-1E+10	1
4902551	57	C	03/09/2022	04:50	-132.241	49.794	0	136.90	0	6.2700	0	33.3930	0	26.251	0	135.684	0	171.7	4	56.9	4	-1E+10	1	-1E+10	1	-1E+10	1	-1E+10	1	-1E+10	1	-1E+10	1
4902551	57	C	03/09/2022	04:50	-132.241	49.794	0	138.40	0	6.2520	0	33.4310	0	26.283	0	137.170	0	169.1	4	56.0	4	-1E+10	1	-1E+10	1	-1E+10	1	-1E+10	1	-1E+10	1	-1E+10	1
4902551	57	C	03/09/2022	04:50	-132.241	49.794	0	139.40	0	6.2460	0	33.4430	0	26.293	0	138.161	0	167.5	4	55.5	4	-1E+10	1	-1E+10	1	-1E+10	1	-1E+10	1	-1E+10	1	-1E+10	1
4902551	57	C	03/09/2022	04:50	-132.241	49.794	0	140.50	0	6.2410	0	33.4520	0	26.301	0	139.251	0	165.9	4	54.9	4	-1E+10	1	-1E+10	1	-1E+10	1	-1E+10	1	-1E+10	1	-1E+10	1
4902551	57	C	03/09/2022	04:50	-132.241	49.794	0	141.50	0	6.2300	0	33.5180	0	26.354	0	140.241	0	164.8	4	54.6	4	-1E+10	1	-1E+10	1	-1E+10	1	-1E+10	1	-1E+10	1	-1E+10	1
4902551	57	C	03/09/2022	04:50	-132.241	49.794	0	142.60	0	6.2300	0	33.5430	0	26.374	0	141.331	0	164.1	4	54.4	4	-1E+10	1	-1E+10	1	-1E+10	1	-1E+10	1	-1E+10	1	-1E+10	1
4902551	57	C	03/09/2022	04:50	-132.241	49.794	0	143.70	0	6.2240	0	33.5520	0	26.382	0	142.421	0	163.4	4	54.1	4	-1E+10	1	-1E+10	1	-1E+10	1	-1E+10	1	-1E+10	1	-1E+10	1
4902551	57	C	03/09/2022	04:50	-132.241	49.794	0	144.90	0	6.2240	0	33.5530	0	26.383	0	143.610	0	162.6	4	53.9	4	-1E+10	1	-1E+10	1	-1E+10	1	-1E+10	1	-1E+10	1	-1E+10	1
4902551	57	C	03/09/2022	04:50	-132.241	49.794	0	146.00	0	6.2250	0	33.5550	0	26.384	0	144.700	0	161.8	4	53.6	4	-1E+10	1	-1E+10	1	-1E+10	1	-1E+10	1	-1E+10	1	-1E+10	1
4902551	57	C	03/09/2022	04:50	-132.241	49.794	0	147.10	0	6.2230	0	33.5590	0	26.388	0	145.790	0	160.9	4	53.3	4	-1E+10	1	-1E+10	1	-1E+10	1	-1E+10	1	-1E+10	1	-1E+10	1
4902551	57	C	03/09/2022	04:50	-132.241	49.794	0	148.20	0	6.2080	0	33.5760	0	26.403	0	146.880	0	160.0	4	53.0	4	-1E+10	1	-1E+10	1	-1E+10	1	-1E+10	1	-1E+10	1	-1E+10	1
4902551	57	C	03/09/2022	04:50	-132.241	49.794	0	149.40	0	6.1910	0	33.5920	0	26.418	0	148.068	0	159.3	4	52.7	4	-1E+10	1	-1E+10	1	-1E+10	1	-1E+10	1	-1E+10	1	-1E+10	1
4902551	57	C	03/09/2022	04:50	-132.241	49.794	0	150.60	0	6.1820	0	33.5980	0	26.424	0	149.257	0	158.8	4	52.6	4	-1E+10	1	-1E+10	1	-1E+10	1	-1E+10	1	-1E+10	1	-1E+10	1
4902551	57	C	03/09/2022	04:50	-132.241	49.794	0	151.70	0	6.1820	0	33.6060	0	26.430	0	150.347	0	158.2	4	52.4	4	-1E+10	1	-1E+10	1	-1E+10	1	-1E+10	1	-1E+10	1	-1E+10	1
4902551	57	C	03/09/2022	04:50	-132.241	49.794	0	152.90	0	6.1820	0	33.6080	0	26.432	0	151.536	0	157.6	4	52.2	4	-1E+10	1	-1E+10	1	-1E+10	1	-1E+10	1	-1E+10	1	-1E+10	1
4902551	57	C	03/09/2022	04:50	-132.241	49.794	0	154.10	0	6.1750	0	33.6050	0	26.430	0	152.725	0	156.9	4	51.9	4	-1E+10	1	-1E+10	1	-1E+10	1	-1E+10	1	-1E+10	1	-1E+10	1
4902551	57	C	03/09/2022	04:50	-132.241	49.794	0	155.20	0	6.1750	0	33.6100	0	26.434	0	153.815	0	156.1	4	51.7	4	-1E+10	1	-1E+10	1	-1E+10	1	-1E+10	1	-1E+10	1	-1E+10	1
4902551	57	C	03/09/2022	04:50	-132.241	49.794	0	156.40	0	6.1450	0	33.6140	0	26.441	0	155.003	0	155.3	4	51.4	4	-1E+10	1	-1E+10	1	-1E+10	1	-1E+10	1	-1E+10	1	-1E+10	1
4902551	57	C	03/09/2022	04:50	-132.241	49.794	0	157.50	0	6.1510	0	33.6230	0	26.447	0	156.093	0	154.6	4	51.1	4	-1E+10	1	-1E+10	1	-1E+10	1	-1E+10	1	-1E+10	1	-1E+10	1
4902551	57	C	03/09/2022	04:50	-132.241	49.794	0	158.70	0	6.1550	0	33.6180	0	26.443	0	157.282	0	153.9	4	50.9	4	-1E+10	1	-1E+10	1	-1E+10	1	-1E+10	1	-1E+10	1	-1E+10	1
4902551	57	C	03/09/2022	04:50	-132.241	49.794	0	159.80	0	6.1500	0	33.6370	0	26.459	0	158.372	0	153.1	4	50.7	4	-1E+10	1	-1E+10	1	-1E+10	1	-1E+10	1	-1E+10	1	-1E+10	1
4902551	57	C	03/09/2022	04:50	-132.241	49.794	0	160.90	0	6.1190	0	33.6540	0	26.476	0	159.461	0	152.6	4	50.5	4	-1E+10	1	-1E+10	1	-1E+10	1	-1E+10	1	-1E+10	1	-1E+10	1
4902551	57	C	03/09/2022	04:50	-132.241	49.794	0	162.00	0	6.1100	0	33.6540	0	26.477	0	160.551	0	152.2	4	50.3	4	-1E+10	1	-1E+10	1	-1E+10	1	-1E+10	1	-1E+10	1	-1E+10	1
4902551	57	C	03/09/2022	04:50	-132.241	49.794	0	163.20	0	6.0980	0	33.6590	0	26.483	0	161.740	0	151.8	4	50.2	4	-1E+10	1	-1E+10	1	-1E+10	1	-1E+10	1	-1E+10	1	-1E+10	1
4902551	57	C	03/09/2022	04:50	-132.241	49.794	0	164.30	0	6.0960	0	33.6620	0	26.485	0	162.830	0	151.5	4	50.1	4	-1E+10	1	-1E+10	1	-1E+10	1	-1E+10	1	-1E+10	1	-1E+10	1
4902551	57	C	03/09/2022	04:50	-132.241	49.794	0	165.40	0	6.0910	0	33.6640	0	26.487	0	163.919	0	151.2	4	50.0	4	-1E+10	1	-1E+10	1	-1E+10	1	-1E+10	1	-1E+10	1	-1E+10	1
4902551	57	C	03/09/2022	04:50	-132.241	49.794	0	166.60	0	6.0900	0	33.6650	0	26.488	0	165.108	0	150.8	4	49.8	4	-1E+10	1	-1E+10	1	-1E+10	1	-1E+10	1	-1E+10	1	-1E+10	1
4902551	57	C	03/09/2022	04:50	-132.241	49.794	0	167.60	0	6.0890	0	33.6650	0	26.489	0	166.099	0	150.3	4	49.7	4	-1E+10	1	-1E+10	1	-1E+10	1	-1E+10	1	-1E+10	1	-1E+10	1
4902551	57	C	03/09/2022	04:50	-132.241	49.794	0	168.70	0	6.0880	0	33.6650	0	26.489	0	167.189	0	149.9	4	49.5	4	-1E+10	1	-1E+10	1	-1E+10	1	-1E+10	1	-1E+10	1	-1E+10	1
4902551	57	C	03/09/2022	04:50	-132.241	49.794	0	169.80	0	6.0870	0	33.6660	0	26.490	0	168.278	0	149.4	4	49.4	4	-1E+10	1	-1E+10	1	-1E+10	1	-1E+10	1	-1E+10	1	-1E+10	1
4902551	57	C	03/09/2022	04:50	-132.241	49.794	0	170.90	0	6.0850	0	33.6660	0	26.490	0	169.368	0	148.9	4	49.2	4	-1E+10	1	-1E+10	1	-1E+10	1	-1E+10	1	-1E+10	1	-1E+10	1
4902551	57	C	03/09/2022	04:50	-132.241	49.794	0	172.00	0	6.0820	0	33.6680	0	26.492	0	170.458	0	148.3	4	49.0	4	-1E+10	1	-1E+10	1	-1E+10	1	-1E+10	1	-1E+10	1	-1E+10	1
4902551	57	C	03/09/2022	04:50	-132.241	49.794	0	173.00	0	6.0760	0	33.6690	0	26.493	0	171.448	0	147.7	4	48.8	4	-1E+10	1	-1E+10	1	-1E+10	1	-1E+10	1	-1E+10	1	-1E+10	1
4902551	57	C	03/09/2022	04:50	-132.241	49.794	0	174.10	0	6.0700	0	33.6710	0	26.496	0	172.538	0	147.0	4	48.6	4	-1E+10	1	-1E+10	1	-1E+10	1	-1E+10	1	-1E+10	1	-1E+10	1
4902551	57	C	03/09/2022	04:50	-132.241	49.794	0	175.10	0	6.0650	0	33.6720	0	26.497	0	173.529	0	146.3	4	48.3	4	-1E+10	1	-1E+10	1	-1E+10	1	-1E+10	1	-1E+10	1	-1E+10	1
4902551	57	C	03/09/2022	04:50	-132.241	49.794	0	176.10	0	6.0560	0	33.6760	0	26.501	0	174.519	0	145.6	4	48.1	4	-1E+10	1	-1E+10	1	-1E+10	1	-1E+10	1	-1E+10	1	-1E+10	1
4902551	57	C	03/09/2022	04:50	-132.241	49.794	0	177.10	0	6.0400	0	33.6790	0	26.506	0	175.510	0	144.9	4	47.8	4	-1E+10	1	-1E+10	1	-1E+10	1	-1E+10	1	-1E+10	1	-1E+10	1
4902551	57	C	03/09/2022	04:50	-132.241	49.794	0	178.00	0	6.0260	0	33.6860	0	26.513	0	176.401	0	144.2	4	47.6	4	-1E+10	1	-1E+10	1	-1E+10	1	-1E+10	1	-1E+10	1	-1E+10	1
4902551	57	C	03/09/2022	04:50	-132.241	49.794	0	179.00	0	6.0160	0	33.6870	0	26.515	0	177.392	0	143.5	4	47.3	4	-1E+10	1	-1E+10	1	-1E+10	1	-1E+10	1	-1E+10	1	-1E+10	1
4902551	57	C	03/09/2022	04:50	-132.241	49.794	0	180.10	0	6.0110	0	33.6890	0	26.517	0	178.482	0	142.6	4	47.0	4	-1E+10	1	-1E+10	1	-1E+10	1	-1E+10	1	-1E+10	1	-1E+10	1
4902551	57	C	03/09/2022	04:50	-132.241	49.794	0	180.80	0	5.9970	0	33.6950	0	26.524	0	179.175	0	141.9	4	46.8	4	-1E+10	1	-1E+10	1	-1E+10	1	-1E+10	1	-1E+10	1	-1E+10	1
4902551	57	C	03/09/2022	04:50	-132.241	49.794	0	181.90	0	5.9710	0	33.7020	0	26.533	0	180.265	0	141.0	4	46.5	4	-1E+10	1	-1E+10	1	-1E+10	1	-1E+10	1	-1E+10	1	-1E+10	1
4902551	57	C	03/09/2022	04:50	-132.241	49.794	0	183.00	0	5.9650	0	33.7040	0	26.535	0	181.354	0	140.2	4	46.2	4	-1E+10	1	-1E+10	1	-1E+10	1	-1E+10	1	-1E+10	1	-1E+10	1
4902551	57	C	03/09/2022	04:50	-132.241	49.794	0	183.80	0	5.9600	0	33.7060	0	26.537	0	182.147	0	139.6	4	46.0	4	-1E+10	1	-1E+10	1	-1E+10	1	-1E+10	1	-1E+10	1	-1E+10	1
4902551	57	C	03/09/2022	04:50	-132.241	49.794	0	184.80	0	5.9530	0	33.7080	0	26.540	0	183.137	0	138.5	4	45.6	4	-1E+10	1	-1E+10	1	-1E+10	1	-1E+10	1	-1E+10	1	-1E+10	1
4902551	57	C	03/09/2022	04:50	-132.241	49.794	0	186.00	0	5.9380	0	33.7170	0	26.549	0	184.326	0	137.4	4	45.3	4	-1E+10	1	-1E+10	1	-1E+10	1	-1E+10	1	-1E+10	1	-1E+10	1
4902551	57	C	03/09/2022	04:50	-132.241	49.794	0	186.80	0	5.9320	0	33.7180	0	26.550	0	185.118	0	136.7	4	45.0	4	-1E+10	1	-1E+10	1	-1E+10	1	-1E+10	1	-1E+10	1	-1E+10	1
4902551	57	C	03/09/2022	04:50	-132.241	49.794	0	187.90	0	5.9190	0	33.7220	0	26.555	0	186.208	0	135.6	4	44.7	4	-1E+10	1	-1E+10	1	-1E+10	1	-1E+10	1	-1E+10	1	-1E+10	1
4902551	57	C	03/09/2022	04:50	-132.241	49.794	0	189.10	0	5.9080	0	33.7240	0	26.558	0	187.397	0	134.4	4	44.3	4	-1E+10	1	-1E+10	1	-1E+10	1	-1E+10	1	-1E+10	1	-1E+10	1
4902551	57	C	03/09/2022	04:50	-132.241	49.794	0	189.80	0	5.8930	0	33.7370	0	26.570	0	188.090	0	133.6	4	44.0	4	-1E+10	1	-1E+10	1	-1E+10	1	-1E+10	1	-1E+10	1	-1E+10	1
4902551	57	C	03/09/2022	04:50	-132.241	49.794	0	191.00	0	5.8660	0	33.7410	0	26.577	0	189.279	0	132.5	4	43.6	4	-1E+10	1	-1E+10	1	-1E+10	1	-1E+10	1	-1E+10	1	-1E+10	1
4902551	57	C	03/09/2022	04:50	-132.241	49.794	0	192.20	0	5.8300	0	33.7500	0	26.588	0	190.467	0	131.4	4	43.2	4	-1E+10	1	-1E+10	1	-1E+10	1	-1E+10	1	-1E+10	1	-1E+10	1
4902551	57	C	03/09/2022	04:50	-132.241	49.794	0	193.00	0	5.8110	0	33.7540	0	26.594	0	191.260	0	130.8	4	43.0	4	-1E+10	1	-1E+10	1	-1E+10	1	-1E+10	1	-1E+10	1	-1E+10	1
4902551	57	C	03/09/2022	04:50	-132.241	49.794	0	193.80	0	5.7990	0	33.7530	0	26.594	0	192.052	0	130.2	4	42.8	4	-1E+10	1	-1E+10	1	-1E+10	1	-1E+10	1	-1E+10	1	-1E+10	1
4902551	57	C	03/09/2022	04:50	-132.241	49.794	0	194.70	0	5.7890	0	33.7560	0	26.598	0	192.944	0	129.5	4	42.5	4	-1E+10	1	-1E+10	1	-1E+10	1	-1E+10	1	-1E+10	1	-1E+10	1
4902551	57	C	03/09/2022	04:50	-132.241	49.794	0	195.90	0	5.7470	0	33.7670	0	26.612	0	194.132	0	129.0	4	42.3	4	-1E+10	1	-1E+10	1	-1E+10	1	-1E+10	1	-1E+10	1	-1E+10	1
4902551	57	C	03/09/2022	04:50	-132.241	49.794	0	197.20	0	5.7330	0	33.7650	0	26.612	0	195.420	0	128.6	4	42.2	4	-1E+10	1	-1E+10	1	-1E+10	1	-1E+10	1	-1E+10	1	-1E+10	1
4902551	57	C	03/09/2022	04:50	-132.241	49.794	0	198.10	0	5.7270	0	33.7650	0	26.613	0	196.311	0	128.2	4	42.0	4	-1E+10	1	-1E+10	1	-1E+10	1	-1E+10	1	-1E+10	1	-1E+10	1
4902551	57	C	03/09/2022	04:50	-132.241	49.794	0	199.00	0	5.7260	0	33.7660	0	26.614	0	197.203	0	127.9	4	41.9	4	-1E+10	1	-1E+10	1	-1E+10	1	-1E+10	1	-1E+10	1	-1E+10	1
4902551	57	C	03/09/2022	04:50	-132.241	49.794	0	199.80	0	5.7220	0	33.7650	0	26.613	0	197.995	0	127.5	4	41.8	4	-1E+10	1	-1E+10	1	-1E+10	1	-1E+10	1	-1E+10	1	-1E+10	1
4902551	57	C	03/09/2022	04:50	-132.241	49.794	0	200.70	0	5.7190	0	33.7660	0	26.614	0	198.886	0	127.0	4	41.7	4	-1E+10	1	-1E+10	1	-1E+10	1	-1E+10	1	-1E+10	1	-1E+10	1
4902551	57	C	03/09/2022	04:50	-132.241	49.794	0	201.60	0	5.7140	0	33.7680	0	26.617	0	199.778	0	126.6	4	41.5	4	-1E+10	1	-1E+10	1	-1E+10	1	-1E+10	1	-1E+10	1	-1E+10	1
4902551	57	C	03/09/2022	04:50	-132.241	49.794	0	202.90	0	5.6930	0	33.7740	0	26.624	0	201.066	0	126.0	4	41.3	4	-1E+10	1	-1E+10	1	-1E+10	1	-1E+10	1	-1E+10	1	-1E+10	1
4902551	57	C	03/09/2022	04:50	-132.241	49.794	0	204.30	0	5.6780	0	33.7730	0	26.625	0	202.452	0	125.5	4	41.1	4	-1E+10	1	-1E+10	1	-1E+10	1	-1E+10	1	-1E+10	1	-1E+10	1
4902551	57	C	03/09/2022	04:50	-132.241	49.794	0	205.30	0	5.6710	0	33.7770	0	26.629	0	203.443	0	125.0	4	41.0	4	-1E+10	1	-1E+10	1	-1E+10	1	-1E+10	1	-1E+10	1	-1E+10	1
4902551	57	C	03/09/2022	04:50	-132.241	49.794	0	206.20	0	5.6580	0	33.7780	0	26.631	0	204.334	0	124.7	4	40.8	4	-1E+10	1	-1E+10	1	-1E+10	1	-1E+10	1	-1E+10	1	-1E+10	1
4902551	57	C	03/09/2022	04:50	-132.241	49.794	0	207.10	0	5.6510	0	33.7760	0	26.631	0	205.225	0	124.4	4	40.7	4	-1E+10	1	-1E+10	1	-1E+10	1	-1E+10	1	-1E+10	1	-1E+10	1
4902551	57	C	03/09/2022	04:50	-132.241	49.794	0	208.10	0	5.6460	0	33.7790	0	26.634	0	206.216	0	124.0	4	40.6	4	-1E+10	1	-1E+10	1	-1E+10	1	-1E+10	1	-1E+10	1	-1E+10	1
4902551	57	C	03/09/2022	04:50	-132.241	49.794	0	209.10	0	5.6350	0	33.7800	0	26.636	0	207.206	0	123.6	4	40.5	4	-1E+10	1	-1E+10	1	-1E+10	1	-1E+10	1	-1E+10	1	-1E+10	1
4902551	57	C	03/09/2022	04:50	-132.241	49.794	0	210.00	0	5.6270	0	33.7810	0	26.638	0	208.098	0	123.3	4	40.3	4	-1E+10	1	-1E+10	1	-1E+10	1	-1E+10	1	-1E+10	1	-1E+10	1
4902551	57	C	03/09/2022	04:50	-132.241	49.794	0	211.00	0	5.6170	0	33.7830	0	26.640	0	209.088	0	123.1	4	40.3	4	-1E+10	1	-1E+10	1	-1E+10	1	-1E+10	1	-1E+10	1	-1E+10	1
4902551	57	C	03/09/2022	04:50	-132.241	49.794	0	212.00	0	5.6120	0	33.7810	0	26.639	0	210.079	0	122.7	4	40.1	4	-1E+10	1	-1E+10	1	-1E+10	1	-1E+10	1	-1E+10	1	-1E+10	1
4902551	57	C	03/09/2022	04:50	-132.241	49.794	0	212.90	0	5.5990	0	33.7900	0	26.648	0	210.970	0	122.4	4	40.0	4	-1E+10	1	-1E+10	1	-1E+10	1	-1E+10	1	-1E+10	1	-1E+10	1
4902551	57	C	03/09/2022	04:50	-132.241	49.794	0	213.90	0	5.5870	0	33.7850	0	26.646	0	211.960	0	122.2	4	39.9	4	-1E+10	1	-1E+10	1	-1E+10	1	-1E+10	1	-1E+10	1	-1E+10	1
4902551	57	C	03/09/2022	04:50	-132.241	49.794	0	214.90	0	5.5840	0	33.7850	0	26.646	0	212.951	0	121.9	4	39.8	4	-1E+10	1	-1E+10	1	-1E+10	1	-1E+10	1	-1E+10	1	-1E+10	1
4902551	57	C	03/09/2022	04:50	-132.241	49.794	0	215.80	0	5.5810	0	33.7860	0	26.647	0	213.842	0	121.5	4	39.7	4	-1E+10	1	-1E+10	1	-1E+10	1	-1E+10	1	-1E+10	1	-1E+10	1
4902551	57	C	03/09/2022	04:50	-132.241	49.794	0	216.80	0	5.5700	0	33.7930	0	26.654	0	214.833	0	121.2	4	39.6	4	-1E+10	1	-1E+10	1	-1E+10	1	-1E+10	1	-1E+10	1	-1E+10	1
4902551	57	C	03/09/2022	04:50	-132.241	49.794	0	217.80	0	5.5550	0	33.7900	0	26.653	0	215.823	0	120.9	4	39.5	4	-1E+10	1	-1E+10	1	-1E+10	1	-1E+10	1	-1E+10	1	-1E+10	1
4902551	57	C	03/09/2022	04:50	-132.241	49.794	0	218.80	0	5.5510	0	33.7890	0	26.653	0	216.813	0	120.8	4	39.4	4	-1E+10	1	-1E+10	1	-1E+10	1	-1E+10	1	-1E+10	1	-1E+10	1
4902551	57	C	03/09/2022	04:50	-132.241	49.794	0	219.80	0	5.5510	0	33.7890	0	26.653	0	217.804	0	120.4	4	39.3	4	-1E+10	1	-1E+10	1	-1E+10	1	-1E+10	1	-1E+10	1	-1E+10	1
4902551	57	C	03/09/2022	04:50	-132.241	49.794	0	220.90	0	5.5490	0	33.7890	0	26.653	0	218.893	0	120.2	4	39.3	4	-1E+10	1	-1E+10	1	-1E+10	1	-1E+10	1	-1E+10	1	-1E+10	1
4902551	57	C	03/09/2022	04:50	-132.241	49.794	0	221.80	0	5.5480	0	33.7890	0	26.653	0	219.785	0	119.9	4	39.2	4	-1E+10	1	-1E+10	1	-1E+10	1	-1E+10	1	-1E+10	1	-1E+10	1
4902551	57	C	03/09/2022	04:50	-132.241	49.794	0	222.90	0	5.5460	0	33.7890	0	26.654	0	220.874	0	119.6	4	39.1	4	-1E+10	1	-1E+10	1	-1E+10	1	-1E+10	1	-1E+10	1	-1E+10	1
4902551	57	C	03/09/2022	04:50	-132.241	49.794	0	223.90	0	5.5450	0	33.7890	0	26.654	0	221.864	0	119.3	4	39.0	4	-1E+10	1	-1E+10	1	-1E+10	1	-1E+10	1	-1E+10	1	-1E+10	1
4902551	57	C	03/09/2022	04:50	-132.241	49.794	0	224.90	0	5.5420	0	33.7900	0	26.655	0	222.855	0	118.9	4	38.8	4	-1E+10	1	-1E+10	1	-1E+10	1	-1E+10	1	-1E+10	1	-1E+10	1
4902551	57	C	03/09/2022	04:50	-132.241	49.794	0	225.90	0	5.5400	0	33.7900	0	26.655	0	223.845	0	118.5	4	38.7	4	-1E+10	1	-1E+10	1	-1E+10	1	-1E+10	1	-1E+10	1	-1E+10	1
4902551	57	C	03/09/2022	04:50	-132.241	49.794	0	226.90	0	5.5360	0	33.7900	0	26.656	0	224.836	0	118.1	4	38.6	4	-1E+10	1	-1E+10	1	-1E+10	1	-1E+10	1	-1E+10	1	-1E+10	1
4902551	57	C	03/09/2022	04:50	-132.241	49.794	0	227.90	0	5.5310	0	33.7920	0	26.658	0	225.826	0	117.7	4	38.4	4	-1E+10	1	-1E+10	1	-1E+10	1	-1E+10	1	-1E+10	1	-1E+10	1
4902551	57	C	03/09/2022	04:50	-132.241	49.794	0	228.90	0	5.5200	0	33.7980	0	26.664	0	226.816	0	117.2	4	38.3	4	-1E+10	1	-1E+10	1	-1E+10	1	-1E+10	1	-1E+10	1	-1E+10	1
4902551	57	C	03/09/2022	04:50	-132.241	49.794	0	229.90	0	5.5180	0	33.7920	0	26.659	0	227.807	0	116.8	4	38.1	4	-1E+10	1	-1E+10	1	-1E+10	1	-1E+10	1	-1E+10	1	-1E+10	1
4902551	57	C	03/09/2022	04:50	-132.241	49.794	0	230.90	0	5.5150	0	33.7920	0	26.660	0	228.797	0	116.3	4	38.0	4	-1E+10	1	-1E+10	1	-1E+10	1	-1E+10	1	-1E+10	1	-1E+10	1
4902551	57	C	03/09/2022	04:50	-132.241	49.794	0	231.90	0	5.5030	0	33.7970	0	26.665	0	229.787	0	115.9	4	37.8	4	-1E+10	1	-1E+10	1	-1E+10	1	-1E+10	1	-1E+10	1	-1E+10	1
4902551	57	C	03/09/2022	04:50	-132.241	49.794	0	232.90	0	5.4900	0	33.7970	0	26.667	0	230.778	0	115.4	4	37.6	4	-1E+10	1	-1E+10	1	-1E+10	1	-1E+10	1	-1E+10	1	-1E+10	1
4902551	57	C	03/09/2022	04:50	-132.241	49.794	0	233.90	0	5.4720	0	33.8010	0	26.672	0	231.768	0	115.1	4	37.5	4	-1E+10	1	-1E+10	1	-1E+10	1	-1E+10	1	-1E+10	1	-1E+10	1
4902551	57	C	03/09/2022	04:50	-132.241	49.794	0	235.00	0	5.4550	0	33.8000	0	26.673	0	232.857	0	114.9	4	37.4	4	-1E+10	1	-1E+10	1	-1E+10	1	-1E+10	1	-1E+10	1	-1E+10	1
4902551	57	C	03/09/2022	04:50	-132.241	49.794	0	236.00	0	5.4490	0	33.8000	0	26.674	0	233.848	0	114.5	4	37.3	4	-1E+10	1	-1E+10	1	-1E+10	1	-1E+10	1	-1E+10	1	-1E+10	1
4902551	57	C	03/09/2022	04:50	-132.241	49.794	0	237.10	0	5.4470	0	33.7990	0	26.674	0	234.937	0	114.2	4	37.2	4	-1E+10	1	-1E+10	1	-1E+10	1	-1E+10	1	-1E+10	1	-1E+10	1
4902551	57	C	03/09/2022	04:50	-132.241	49.794	0	238.10	0	5.4440	0	33.8000	0	26.675	0	235.927	0	113.8	4	37.1	4	-1E+10	1	-1E+10	1	-1E+10	1	-1E+10	1	-1E+10	1	-1E+10	1
4902551	57	C	03/09/2022	04:50	-132.241	49.794	0	239.10	0	5.4410	0	33.7990	0	26.674	0	236.918	0	113.3	4	36.9	4	-1E+10	1	-1E+10	1	-1E+10	1	-1E+10	1	-1E+10	1	-1E+10	1
4902551	57	C	03/09/2022	04:50	-132.241	49.794	0	240.10	0	5.4400	0	33.7990	0	26.674	0	237.908	0	112.8	4	36.8	4	-1E+10	1	-1E+10	1	-1E+10	1	-1E+10	1	-1E+10	1	-1E+10	1
4902551	57	C	03/09/2022	04:50	-132.241	49.794	0	241.10	0	5.4370	0	33.8000	0	26.676	0	238.898	0	112.3	4	36.6	4	-1E+10	1	-1E+10	1	-1E+10	1	-1E+10	1	-1E+10	1	-1E+10	1
4902551	57	C	03/09/2022	04:50	-132.241	49.794	0	242.10	0	5.4240	0	33.8070	0	26.683	0	239.888	0	111.7	4	36.4	4	-1E+10	1	-1E+10	1	-1E+10	1	-1E+10	1	-1E+10	1	-1E+10	1
4902551	57	C	03/09/2022	04:50	-132.241	49.794	0	243.10	0	5.4000	0	33.8110	0	26.689	0	240.879	0	111.2	4	36.2	4	-1E+10	1	-1E+10	1	-1E+10	1	-1E+10	1	-1E+10	1	-1E+10	1
4902551	57	C	03/09/2022	04:50	-132.241	49.794	0	244.10	0	5.3870	0	33.8050	0	26.685	0	241.869	0	110.8	4	36.1	4	-1E+10	1	-1E+10	1	-1E+10	1	-1E+10	1	-1E+10	1	-1E+10	1
4902551	57	C	03/09/2022	04:50	-132.241	49.794	0	245.10	0	5.3820	0	33.8050	0	26.686	0	242.859	0	110.3	4	35.9	4	-1E+10	1	-1E+10	1	-1E+10	1	-1E+10	1	-1E+10	1	-1E+10	1
4902551	57	C	03/09/2022	04:50	-132.241	49.794	0	246.00	0	5.3800	0	33.8050	0	26.686	0	243.750	0	109.9	4	35.7	4	-1E+10	1	-1E+10	1	-1E+10	1	-1E+10	1	-1E+10	1	-1E+10	1
4902551	57	C	03/09/2022	04:50	-132.241	49.794	0	247.00	0	5.3760	0	33.8050	0	26.687	0	244.741	0	109.3	4	35.6	4	-1E+10	1	-1E+10	1	-1E+10	1	-1E+10	1	-1E+10	1	-1E+10	1
4902551	57	C	03/09/2022	04:50	-132.241	49.794	0	248.00	0	5.3690	0	33.8060	0	26.688	0	245.731	0	108.8	4	35.4	4	-1E+10	1	-1E+10	1	-1E+10	1	-1E+10	1	-1E+10	1	-1E+10	1
4902551	57	C	03/09/2022	04:50	-132.241	49.794	0	248.90	0	5.3550	0	33.8140	0	26.696	0	246.622	0	108.3	4	35.2	4	-1E+10	1	-1E+10	1	-1E+10	1	-1E+10	1	-1E+10	1	-1E+10	1
4902551	57	C	03/09/2022	04:50	-132.241	49.794	0	249.90	0	5.3310	0	33.8140	0	26.699	0	247.612	0	107.9	4	35.1	4	-1E+10	1	-1E+10	1	-1E+10	1	-1E+10	1	-1E+10	1	-1E+10	1
4902551	57	C	03/09/2022	04:50	-132.241	49.794	0	250.80	0	5.3110	0	33.8160	0	26.703	0	248.504	0	107.6	4	34.9	4	-1E+10	1	-1E+10	1	-1E+10	1	-1E+10	1	-1E+10	1	-1E+10	1
4902551	57	C	03/09/2022	04:50	-132.241	49.794	0	251.70	0	5.3040	0	33.8110	0	26.700	0	249.395	0	107.2	4	34.8	4	-1E+10	1	-1E+10	1	-1E+10	1	-1E+10	1	-1E+10	1	-1E+10	1
4902551	57	C	03/09/2022	04:50	-132.241	49.794	0	252.60	0	5.3030	0	33.8110	0	26.700	0	250.286	0	106.9	4	34.7	4	-1E+10	1	-1E+10	1	-1E+10	1	-1E+10	1	-1E+10	1	-1E+10	1
4902551	57	C	03/09/2022	04:50	-132.241	49.794	0	253.60	0	5.2990	0	33.8130	0	26.702	0	251.276	0	106.5	4	34.6	4	-1E+10	1	-1E+10	1	-1E+10	1	-1E+10	1	-1E+10	1	-1E+10	1
4902551	57	C	03/09/2022	04:50	-132.241	49.794	0	254.90	0	5.2830	0	33.8170	0	26.707	0	252.564	0	106.0	4	34.4	4	-1E+10	1	-1E+10	1	-1E+10	1	-1E+10	1	-1E+10	1	-1E+10	1
4902551	57	C	03/09/2022	04:50	-132.241	49.794	0	256.30	0	5.2760	0	33.8150	0	26.706	0	253.950	0	105.5	4	34.2	4	-1E+10	1	-1E+10	1	-1E+10	1	-1E+10	1	-1E+10	1	-1E+10	1
4902551	57	C	03/09/2022	04:50	-132.241	49.794	0	257.20	0	5.2720	0	33.8170	0	26.709	0	254.841	0	105.1	4	34.1	4	-1E+10	1	-1E+10	1	-1E+10	1	-1E+10	1	-1E+10	1	-1E+10	1
4902551	57	C	03/09/2022	04:50	-132.241	49.794	0	258.10	0	5.2670	0	33.8150	0	26.708	0	255.732	0	104.7	4	34.0	4	-1E+10	1	-1E+10	1	-1E+10	1	-1E+10	1	-1E+10	1	-1E+10	1
4902551	57	C	03/09/2022	04:50	-132.241	49.794	0	259.00	0	5.2660	0	33.8150	0	26.708	0	256.624	0	104.3	4	33.8	4	-1E+10	1	-1E+10	1	-1E+10	1	-1E+10	1	-1E+10	1	-1E+10	1
4902551	57	C	03/09/2022	04:50	-132.241	49.794	0	259.90	0	5.2650	0	33.8150	0	26.708	0	257.515	0	103.8	4	33.7	4	-1E+10	1	-1E+10	1	-1E+10	1	-1E+10	1	-1E+10	1	-1E+10	1
4902551	57	C	03/09/2022	04:50	-132.241	49.794	0	260.70	0	5.2620	0	33.8160	0	26.709	0	258.307	0	103.3	4	33.5	4	-1E+10	1	-1E+10	1	-1E+10	1	-1E+10	1	-1E+10	1	-1E+10	1
4902551	57	C	03/09/2022	04:50	-132.241	49.794	0	261.60	0	5.2600	0	33.8160	0	26.709	0	259.198	0	102.7	4	33.3	4	-1E+10	1	-1E+10	1	-1E+10	1	-1E+10	1	-1E+10	1	-1E+10	1
4902551	57	C	03/09/2022	04:50	-132.241	49.794	0	262.90	0	5.2560	0	33.8160	0	26.710	0	260.485	0	101.7	4	33.0	4	-1E+10	1	-1E+10	1	-1E+10	1	-1E+10	1	-1E+10	1	-1E+10	1
4902551	57	C	03/09/2022	04:50	-132.241	49.794	0	264.20	0	5.2430	0	33.8240	0	26.718	0	261.773	0	100.5	4	32.6	4	-1E+10	1	-1E+10	1	-1E+10	1	-1E+10	1	-1E+10	1	-1E+10	1
4902551	57	C	03/09/2022	04:50	-132.241	49.794	0	265.10	0	5.2190	0	33.8230	0	26.720	0	262.664	0	99.9	4	32.4	4	-1E+10	1	-1E+10	1	-1E+10	1	-1E+10	1	-1E+10	1	-1E+10	1
4902551	57	C	03/09/2022	04:50	-132.241	49.794	0	265.90	0	5.2060	0	33.8250	0	26.723	0	263.456	0	99.4	4	32.2	4	-1E+10	1	-1E+10	1	-1E+10	1	-1E+10	1	-1E+10	1	-1E+10	1
4902551	57	C	03/09/2022	04:50	-132.241	49.794	0	266.80	0	5.1800	0	33.8310	0	26.730	0	264.347	0	98.9	4	32.0	4	-1E+10	1	-1E+10	1	-1E+10	1	-1E+10	1	-1E+10	1	-1E+10	1
4902551	57	C	03/09/2022	04:50	-132.241	49.794	0	267.60	0	5.1610	0	33.8300	0	26.732	0	265.139	0	98.5	4	31.9	4	-1E+10	1	-1E+10	1	-1E+10	1	-1E+10	1	-1E+10	1	-1E+10	1
4902551	57	C	03/09/2022	04:50	-132.241	49.794	0	268.90	0	5.1330	0	33.8320	0	26.737	0	266.426	0	98.0	4	31.7	4	-1E+10	1	-1E+10	1	-1E+10	1	-1E+10	1	-1E+10	1	-1E+10	1
4902551	57	C	03/09/2022	04:50	-132.241	49.794	0	270.30	0	5.1290	0	33.8300	0	26.735	0	267.813	0	97.5	4	31.5	4	-1E+10	1	-1E+10	1	-1E+10	1	-1E+10	1	-1E+10	1	-1E+10	1
4902551	57	C	03/09/2022	04:50	-132.241	49.794	0	271.20	0	5.1240	0	33.8310	0	26.737	0	268.704	0	97.1	4	31.4	4	-1E+10	1	-1E+10	1	-1E+10	1	-1E+10	1	-1E+10	1	-1E+10	1
4902551	57	C	03/09/2022	04:50	-132.241	49.794	0	272.10	0	5.1220	0	33.8310	0	26.737	0	269.595	0	96.7	4	31.3	4	-1E+10	1	-1E+10	1	-1E+10	1	-1E+10	1	-1E+10	1	-1E+10	1
4902551	57	C	03/09/2022	04:50	-132.241	49.794	0	272.90	0	5.1190	0	33.8300	0	26.737	0	270.387	0	96.2	4	31.1	4	-1E+10	1	-1E+10	1	-1E+10	1	-1E+10	1	-1E+10	1	-1E+10	1
4902551	57	C	03/09/2022	04:50	-132.241	49.794	0	273.80	0	5.1170	0	33.8300	0	26.737	0	271.278	0	95.8	4	31.0	4	-1E+10	1	-1E+10	1	-1E+10	1	-1E+10	1	-1E+10	1	-1E+10	1
4902551	57	C	03/09/2022	04:50	-132.241	49.794	0	274.70	0	5.1150	0	33.8310	0	26.738	0	272.169	0	95.3	4	30.8	4	-1E+10	1	-1E+10	1	-1E+10	1	-1E+10	1	-1E+10	1	-1E+10	1
4902551	57	C	03/09/2022	04:50	-132.241	49.794	0	275.90	0	5.0970	0	33.8380	0	26.746	0	273.357	0	94.6	4	30.6	4	-1E+10	1	-1E+10	1	-1E+10	1	-1E+10	1	-1E+10	1	-1E+10	1
4902551	57	C	03/09/2022	04:50	-132.241	49.794	0	277.30	0	5.0540	0	33.8380	0	26.750	0	274.743	0	94.0	4	30.4	4	-1E+10	1	-1E+10	1	-1E+10	1	-1E+10	1	-1E+10	1	-1E+10	1
4902551	57	C	03/09/2022	04:50	-132.241	49.794	0	278.20	0	5.0460	0	33.8390	0	26.752	0	275.635	0	93.7	4	30.2	4	-1E+10	1	-1E+10	1	-1E+10	1	-1E+10	1	-1E+10	1	-1E+10	1
4902551	57	C	03/09/2022	04:50	-132.241	49.794	0	279.10	0	5.0270	0	33.8450	0	26.759	0	276.526	0	93.3	4	30.1	4	-1E+10	1	-1E+10	1	-1E+10	1	-1E+10	1	-1E+10	1	-1E+10	1
4902551	57	C	03/09/2022	04:50	-132.241	49.794	0	280.00	0	5.0150	0	33.8410	0	26.757	0	277.417	0	93.1	4	30.0	4	-1E+10	1	-1E+10	1	-1E+10	1	-1E+10	1	-1E+10	1	-1E+10	1
4902551	57	C	03/09/2022	04:50	-132.241	49.794	0	280.90	0	5.0100	0	33.8420	0	26.759	0	278.308	0	92.8	4	29.9	4	-1E+10	1	-1E+10	1	-1E+10	1	-1E+10	1	-1E+10	1	-1E+10	1
4902551	57	C	03/09/2022	04:50	-132.241	49.794	0	281.80	0	5.0040	0	33.8420	0	26.759	0	279.199	0	92.4	4	29.8	4	-1E+10	1	-1E+10	1	-1E+10	1	-1E+10	1	-1E+10	1	-1E+10	1
4902551	57	C	03/09/2022	04:50	-132.241	49.794	0	282.60	0	4.9950	0	33.8450	0	26.763	0	279.991	0	92.1	4	29.7	4	-1E+10	1	-1E+10	1	-1E+10	1	-1E+10	1	-1E+10	1	-1E+10	1
4902551	57	C	03/09/2022	04:50	-132.241	49.794	0	283.90	0	4.9840	0	33.8440	0	26.763	0	281.278	0	91.7	4	29.6	4	-1E+10	1	-1E+10	1	-1E+10	1	-1E+10	1	-1E+10	1	-1E+10	1
4902551	57	C	03/09/2022	04:50	-132.241	49.794	0	285.30	0	4.9790	0	33.8440	0	26.764	0	282.664	0	91.3	4	29.4	4	-1E+10	1	-1E+10	1	-1E+10	1	-1E+10	1	-1E+10	1	-1E+10	1
4902551	57	C	03/09/2022	04:50	-132.241	49.794	0	286.20	0	4.9760	0	33.8440	0	26.764	0	283.555	0	91.1	4	29.4	4	-1E+10	1	-1E+10	1	-1E+10	1	-1E+10	1	-1E+10	1	-1E+10	1
4902551	57	C	03/09/2022	04:50	-132.241	49.794	0	287.10	0	4.9730	0	33.8450	0	26.765	0	284.446	0	90.9	4	29.3	4	-1E+10	1	-1E+10	1	-1E+10	1	-1E+10	1	-1E+10	1	-1E+10	1
4902551	57	C	03/09/2022	04:50	-132.241	49.794	0	288.00	0	4.9680	0	33.8470	0	26.767	0	285.337	0	90.7	4	29.2	4	-1E+10	1	-1E+10	1	-1E+10	1	-1E+10	1	-1E+10	1	-1E+10	1
4902551	57	C	03/09/2022	04:50	-132.241	49.794	0	288.90	0	4.9660	0	33.8450	0	26.766	0	286.229	0	90.5	4	29.2	4	-1E+10	1	-1E+10	1	-1E+10	1	-1E+10	1	-1E+10	1	-1E+10	1
4902551	57	C	03/09/2022	04:50	-132.241	49.794	0	289.80	0	4.9650	0	33.8440	0	26.765	0	287.120	0	90.2	4	29.1	4	-1E+10	1	-1E+10	1	-1E+10	1	-1E+10	1	-1E+10	1	-1E+10	1
4902551	57	C	03/09/2022	04:50	-132.241	49.794	0	290.70	0	4.9640	0	33.8440	0	26.766	0	288.011	0	89.9	4	29.0	4	-1E+10	1	-1E+10	1	-1E+10	1	-1E+10	1	-1E+10	1	-1E+10	1
4902551	57	C	03/09/2022	04:50	-132.241	49.794	0	291.60	0	4.9620	0	33.8440	0	26.766	0	288.902	0	89.6	4	28.9	4	-1E+10	1	-1E+10	1	-1E+10	1	-1E+10	1	-1E+10	1	-1E+10	1
4902551	57	C	03/09/2022	04:50	-132.241	49.794	0	292.90	0	4.9600	0	33.8450	0	26.767	0	290.189	0	89.1	4	28.7	4	-1E+10	1	-1E+10	1	-1E+10	1	-1E+10	1	-1E+10	1	-1E+10	1
4902551	57	C	03/09/2022	04:50	-132.241	49.794	0	294.30	0	4.9540	0	33.8490	0	26.771	0	291.575	0	88.4	4	28.5	4	-1E+10	1	-1E+10	1	-1E+10	1	-1E+10	1	-1E+10	1	-1E+10	1
4902551	57	C	03/09/2022	04:50	-132.241	49.794	0	295.20	0	4.9470	0	33.8470	0	26.770	0	292.466	0	88.0	4	28.4	4	-1E+10	1	-1E+10	1	-1E+10	1	-1E+10	1	-1E+10	1	-1E+10	1
4902551	57	C	03/09/2022	04:50	-132.241	49.794	0	296.10	0	4.9420	0	33.8490	0	26.772	0	293.357	0	87.6	4	28.2	4	-1E+10	1	-1E+10	1	-1E+10	1	-1E+10	1	-1E+10	1	-1E+10	1
4902551	57	C	03/09/2022	04:50	-132.241	49.794	0	297.00	0	4.9320	0	33.8500	0	26.774	0	294.248	0	87.2	4	28.1	4	-1E+10	1	-1E+10	1	-1E+10	1	-1E+10	1	-1E+10	1	-1E+10	1
4902551	57	C	03/09/2022	04:50	-132.241	49.794	0	297.90	0	4.9200	0	33.8520	0	26.777	0	295.139	0	86.7	4	27.9	4	-1E+10	1	-1E+10	1	-1E+10	1	-1E+10	1	-1E+10	1	-1E+10	1
4902551	57	C	03/09/2022	04:50	-132.241	49.794	0	298.80	0	4.9140	0	33.8520	0	26.778	0	296.030	0	86.3	4	27.8	4	-1E+10	1	-1E+10	1	-1E+10	1	-1E+10	1	-1E+10	1	-1E+10	1
4902551	57	C	03/09/2022	04:50	-132.241	49.794	0	299.80	0	4.8990	0	33.8560	0	26.782	0	297.020	0	85.9	4	27.6	4	-1E+10	1	-1E+10	1	-1E+10	1	-1E+10	1	-1E+10	1	-1E+10	1
4902551	57	C	03/09/2022	04:50	-132.241	49.794	0	300.70	0	4.8910	0	33.8540	0	26.782	0	297.911	0	85.5	4	27.5	4	-1E+10	1	-1E+10	1	-1E+10	1	-1E+10	1	-1E+10	1	-1E+10	1
4902551	57	C	03/09/2022	04:50	-132.241	49.794	0	301.70	0	4.8850	0	33.8550	0	26.783	0	298.901	0	85.0	4	27.4	4	-1E+10	1	-1E+10	1	-1E+10	1	-1E+10	1	-1E+10	1	-1E+10	1
4902551	57	C	03/09/2022	04:50	-132.241	49.794	0	302.60	0	4.8820	0	33.8540	0	26.783	0	299.792	0	84.5	4	27.2	4	-1E+10	1	-1E+10	1	-1E+10	1	-1E+10	1	-1E+10	1	-1E+10	1
4902551	57	C	03/09/2022	04:50	-132.241	49.794	0	303.50	0	4.8790	0	33.8550	0	26.784	0	300.683	0	84.1	4	27.0	4	-1E+10	1	-1E+10	1	-1E+10	1	-1E+10	1	-1E+10	1	-1E+10	1
4902551	57	C	03/09/2022	04:50	-132.241	49.794	0	304.90	0	4.8650	0	33.8570	0	26.787	0	302.069	0	83.3	4	26.8	4	-1E+10	1	-1E+10	1	-1E+10	1	-1E+10	1	-1E+10	1	-1E+10	1
4902551	57	C	03/09/2022	04:50	-132.241	49.794	0	306.30	0	4.8380	0	33.8740	0	26.804	0	303.455	0	82.6	4	26.5	4	-1E+10	1	-1E+10	1	-1E+10	1	-1E+10	1	-1E+10	1	-1E+10	1
4902551	57	C	03/09/2022	04:50	-132.241	49.794	0	307.20	0	4.8200	0	33.8660	0	26.799	0	304.346	0	82.3	4	26.4	4	-1E+10	1	-1E+10	1	-1E+10	1	-1E+10	1	-1E+10	1	-1E+10	1
4902551	57	C	03/09/2022	04:50	-132.241	49.794	0	308.20	0	4.8110	0	33.8660	0	26.800	0	305.336	0	82.0	4	26.3	4	-1E+10	1	-1E+10	1	-1E+10	1	-1E+10	1	-1E+10	1	-1E+10	1
4902551	57	C	03/09/2022	04:50	-132.241	49.794	0	309.10	0	4.8070	0	33.8640	0	26.799	0	306.227	0	81.7	4	26.2	4	-1E+10	1	-1E+10	1	-1E+10	1	-1E+10	1	-1E+10	1	-1E+10	1
4902551	57	C	03/09/2022	04:50	-132.241	49.794	0	310.00	0	4.8040	0	33.8670	0	26.802	0	307.118	0	81.4	4	26.1	4	-1E+10	1	-1E+10	1	-1E+10	1	-1E+10	1	-1E+10	1	-1E+10	1
4902551	57	C	03/09/2022	04:50	-132.241	49.794	0	311.00	0	4.7980	0	33.8690	0	26.804	0	308.108	0	81.1	4	26.1	4	-1E+10	1	-1E+10	1	-1E+10	1	-1E+10	1	-1E+10	1	-1E+10	1
4902551	57	C	03/09/2022	04:50	-132.241	49.794	0	311.90	0	4.7970	0	33.8660	0	26.802	0	308.999	0	80.8	4	25.9	4	-1E+10	1	-1E+10	1	-1E+10	1	-1E+10	1	-1E+10	1	-1E+10	1
4902551	57	C	03/09/2022	04:50	-132.241	49.794	0	312.90	0	4.7970	0	33.8660	0	26.802	0	309.989	0	80.5	4	25.8	4	-1E+10	1	-1E+10	1	-1E+10	1	-1E+10	1	-1E+10	1	-1E+10	1
4902551	57	C	03/09/2022	04:50	-132.241	49.794	0	313.80	0	4.7940	0	33.8680	0	26.804	0	310.880	0	80.1	4	25.7	4	-1E+10	1	-1E+10	1	-1E+10	1	-1E+10	1	-1E+10	1	-1E+10	1
4902551	57	C	03/09/2022	04:50	-132.241	49.794	0	314.80	0	4.7910	0	33.8690	0	26.805	0	311.870	0	79.7	4	25.6	4	-1E+10	1	-1E+10	1	-1E+10	1	-1E+10	1	-1E+10	1	-1E+10	1
4902551	57	C	03/09/2022	04:50	-132.241	49.794	0	315.80	0	4.7890	0	33.8690	0	26.805	0	312.859	0	79.4	4	25.5	4	-1E+10	1	-1E+10	1	-1E+10	1	-1E+10	1	-1E+10	1	-1E+10	1
4902551	57	C	03/09/2022	04:50	-132.241	49.794	0	316.70	0	4.7830	0	33.8710	0	26.807	0	313.750	0	79.0	4	25.4	4	-1E+10	1	-1E+10	1	-1E+10	1	-1E+10	1	-1E+10	1	-1E+10	1
4902551	57	C	03/09/2022	04:50	-132.241	49.794	0	317.70	0	4.7810	0	33.8700	0	26.807	0	314.740	0	78.6	4	25.2	4	-1E+10	1	-1E+10	1	-1E+10	1	-1E+10	1	-1E+10	1	-1E+10	1
4902551	57	C	03/09/2022	04:50	-132.241	49.794	0	318.60	0	4.7790	0	33.8710	0	26.808	0	315.631	0	78.2	4	25.1	4	-1E+10	1	-1E+10	1	-1E+10	1	-1E+10	1	-1E+10	1	-1E+10	1
4902551	57	C	03/09/2022	04:50	-132.241	49.794	0	319.60	0	4.7750	0	33.8730	0	26.810	0	316.621	0	77.8	4	25.0	4	-1E+10	1	-1E+10	1	-1E+10	1	-1E+10	1	-1E+10	1	-1E+10	1
4902551	57	C	03/09/2022	04:50	-132.241	49.794	0	320.90	0	4.7520	0	33.8800	0	26.818	0	317.908	0	77.4	4	24.8	4	-1E+10	1	-1E+10	1	-1E+10	1	-1E+10	1	-1E+10	1	-1E+10	1
4902551	57	C	03/09/2022	04:50	-132.241	49.794	0	322.40	0	4.7410	0	33.8780	0	26.818	0	319.393	0	77.0	4	24.7	4	-1E+10	1	-1E+10	1	-1E+10	1	-1E+10	1	-1E+10	1	-1E+10	1
4902551	57	C	03/09/2022	04:50	-132.241	49.794	0	323.20	0	4.7390	0	33.8790	0	26.819	0	320.185	0	76.8	4	24.6	4	-1E+10	1	-1E+10	1	-1E+10	1	-1E+10	1	-1E+10	1	-1E+10	1
4902551	57	C	03/09/2022	04:50	-132.241	49.794	0	323.90	0	4.7360	0	33.8790	0	26.819	0	320.878	0	76.6	4	24.6	4	-1E+10	1	-1E+10	1	-1E+10	1	-1E+10	1	-1E+10	1	-1E+10	1
4902551	57	C	03/09/2022	04:50	-132.241	49.794	0	325.00	0	4.7330	0	33.8800	0	26.820	0	321.967	0	76.4	4	24.5	4	-1E+10	1	-1E+10	1	-1E+10	1	-1E+10	1	-1E+10	1	-1E+10	1
4902551	57	C	03/09/2022	04:50	-132.241	49.794	0	326.10	0	4.7330	0	33.8800	0	26.820	0	323.056	0	76.1	4	24.4	4	-1E+10	1	-1E+10	1	-1E+10	1	-1E+10	1	-1E+10	1	-1E+10	1
4902551	57	C	03/09/2022	04:50	-132.241	49.794	0	326.90	0	4.7320	0	33.8800	0	26.820	0	323.847	0	75.9	4	24.3	4	-1E+10	1	-1E+10	1	-1E+10	1	-1E+10	1	-1E+10	1	-1E+10	1
4902551	57	C	03/09/2022	04:50	-132.241	49.794	0	327.90	0	4.7310	0	33.8800	0	26.820	0	324.837	0	75.5	4	24.2	4	-1E+10	1	-1E+10	1	-1E+10	1	-1E+10	1	-1E+10	1	-1E+10	1
4902551	57	C	03/09/2022	04:50	-132.241	49.794	0	329.10	0	4.7300	0	33.8800	0	26.820	0	326.025	0	75.1	4	24.1	4	-1E+10	1	-1E+10	1	-1E+10	1	-1E+10	1	-1E+10	1	-1E+10	1
4902551	57	C	03/09/2022	04:50	-132.241	49.794	0	329.90	0	4.7290	0	33.8800	0	26.821	0	326.817	0	74.8	4	24.0	4	-1E+10	1	-1E+10	1	-1E+10	1	-1E+10	1	-1E+10	1	-1E+10	1
4902551	57	C	03/09/2022	04:50	-132.241	49.794	0	331.00	0	4.7260	0	33.8810	0	26.822	0	327.906	0	74.3	4	23.8	4	-1E+10	1	-1E+10	1	-1E+10	1	-1E+10	1	-1E+10	1	-1E+10	1
4902551	57	C	03/09/2022	04:50	-132.241	49.794	0	332.20	0	4.7190	0	33.8850	0	26.826	0	329.094	0	73.8	4	23.6	4	-1E+10	1	-1E+10	1	-1E+10	1	-1E+10	1	-1E+10	1	-1E+10	1
4902551	57	C	03/09/2022	04:50	-132.241	49.794	0	332.90	0	4.7080	0	33.8870	0	26.828	0	329.787	0	73.5	4	23.5	4	-1E+10	1	-1E+10	1	-1E+10	1	-1E+10	1	-1E+10	1	-1E+10	1
4902551	57	C	03/09/2022	04:50	-132.241	49.794	0	333.70	0	4.7050	0	33.8860	0	26.828	0	330.579	0	73.2	4	23.4	4	-1E+10	1	-1E+10	1	-1E+10	1	-1E+10	1	-1E+10	1	-1E+10	1
4902551	57	C	03/09/2022	04:50	-132.241	49.794	0	334.90	0	4.7020	0	33.8860	0	26.828	0	331.766	0	72.7	4	23.3	4	-1E+10	1	-1E+10	1	-1E+10	1	-1E+10	1	-1E+10	1	-1E+10	1
4902551	57	C	03/09/2022	04:50	-132.241	49.794	0	336.10	0	4.6940	0	33.8890	0	26.832	0	332.954	0	72.4	4	23.2	4	-1E+10	1	-1E+10	1	-1E+10	1	-1E+10	1	-1E+10	1	-1E+10	1
4902551	57	C	03/09/2022	04:50	-132.241	49.794	0	336.90	0	4.6900	0	33.8910	0	26.834	0	333.746	0	72.1	4	23.1	4	-1E+10	1	-1E+10	1	-1E+10	1	-1E+10	1	-1E+10	1	-1E+10	1
4902551	57	C	03/09/2022	04:50	-132.241	49.794	0	337.70	0	4.6760	0	33.8940	0	26.838	0	334.538	0	72.0	4	23.0	4	-1E+10	1	-1E+10	1	-1E+10	1	-1E+10	1	-1E+10	1	-1E+10	1
4902551	57	C	03/09/2022	04:50	-132.241	49.794	0	338.90	0	4.6700	0	33.8950	0	26.839	0	335.726	0	71.8	4	23.0	4	-1E+10	1	-1E+10	1	-1E+10	1	-1E+10	1	-1E+10	1	-1E+10	1
4902551	57	C	03/09/2022	04:50	-132.241	49.794	0	340.10	0	4.6620	0	33.8960	0	26.841	0	336.913	0	71.6	4	22.9	4	-1E+10	1	-1E+10	1	-1E+10	1	-1E+10	1	-1E+10	1	-1E+10	1
4902551	57	C	03/09/2022	04:50	-132.241	49.794	0	340.90	0	4.6620	0	33.8950	0	26.840	0	337.705	0	71.5	4	22.9	4	-1E+10	1	-1E+10	1	-1E+10	1	-1E+10	1	-1E+10	1	-1E+10	1
4902551	57	C	03/09/2022	04:50	-132.241	49.794	0	341.70	0	4.6620	0	33.8950	0	26.840	0	338.497	0	71.4	4	22.8	4	-1E+10	1	-1E+10	1	-1E+10	1	-1E+10	1	-1E+10	1	-1E+10	1
4902551	57	C	03/09/2022	04:50	-132.241	49.794	0	343.00	0	4.6610	0	33.8950	0	26.840	0	339.784	0	71.1	4	22.8	4	-1E+10	1	-1E+10	1	-1E+10	1	-1E+10	1	-1E+10	1	-1E+10	1
4902551	57	C	03/09/2022	04:50	-132.241	49.794	0	344.20	0	4.6570	0	33.8960	0	26.841	0	340.972	0	70.9	4	22.7	4	-1E+10	1	-1E+10	1	-1E+10	1	-1E+10	1	-1E+10	1	-1E+10	1
4902551	57	C	03/09/2022	04:50	-132.241	49.794	0	345.10	0	4.6570	0	33.8960	0	26.841	0	341.862	0	70.7	4	22.6	4	-1E+10	1	-1E+10	1	-1E+10	1	-1E+10	1	-1E+10	1	-1E+10	1
4902551	57	C	03/09/2022	04:50	-132.241	49.794	0	346.00	0	4.6570	0	33.8960	0	26.841	0	342.753	0	70.5	4	22.6	4	-1E+10	1	-1E+10	1	-1E+10	1	-1E+10	1	-1E+10	1	-1E+10	1
4902551	57	C	03/09/2022	04:50	-132.241	49.794	0	346.80	0	4.6570	0	33.8960	0	26.841	0	343.545	0	70.3	4	22.5	4	-1E+10	1	-1E+10	1	-1E+10	1	-1E+10	1	-1E+10	1	-1E+10	1
4902551	57	C	03/09/2022	04:50	-132.241	49.794	0	347.70	0	4.6560	0	33.8970	0	26.842	0	344.436	0	70.0	4	22.4	4	-1E+10	1	-1E+10	1	-1E+10	1	-1E+10	1	-1E+10	1	-1E+10	1
4902551	57	C	03/09/2022	04:50	-132.241	49.794	0	348.90	0	4.6470	0	33.8990	0	26.845	0	345.624	0	69.7	4	22.3	4	-1E+10	1	-1E+10	1	-1E+10	1	-1E+10	1	-1E+10	1	-1E+10	1
4902551	57	C	03/09/2022	04:50	-132.241	49.794	0	350.30	0	4.6430	0	33.8990	0	26.845	0	347.009	0	69.3	4	22.2	4	-1E+10	1	-1E+10	1	-1E+10	1	-1E+10	1	-1E+10	1	-1E+10	1
4902551	57	C	03/09/2022	04:50	-132.241	49.794	0	352.90	0	4.6170	0	33.9060	0	26.854	0	349.583	0	68.7	4	22.0	4	-1E+10	1	-1E+10	1	-1E+10	1	-1E+10	1	-1E+10	1	-1E+10	1
4902551	57	C	03/09/2022	04:50	-132.241	49.794	0	357.80	0	4.6040	0	33.9070	0	26.856	0	354.432	0	67.3	4	21.5	4	-1E+10	1	-1E+10	1	-1E+10	1	-1E+10	1	-1E+10	1	-1E+10	1
4902551	57	C	03/09/2022	04:50	-132.241	49.794	0	362.80	0	4.5840	0	33.9130	0	26.863	0	359.381	0	65.3	4	20.9	4	-1E+10	1	-1E+10	1	-1E+10	1	-1E+10	1	-1E+10	1	-1E+10	1
4902551	57	C	03/09/2022	04:50	-132.241	49.794	0	367.80	0	4.5710	0	33.9190	0	26.869	0	364.330	0	63.2	4	20.2	4	-1E+10	1	-1E+10	1	-1E+10	1	-1E+10	1	-1E+10	1	-1E+10	1
4902551	57	C	03/09/2022	04:50	-132.241	49.794	0	372.90	0	4.5470	0	33.9310	0	26.881	0	369.377	0	61.6	4	19.7	4	-1E+10	1	-1E+10	1	-1E+10	1	-1E+10	1	-1E+10	1	-1E+10	1
4902551	57	C	03/09/2022	04:50	-132.241	49.794	0	377.70	0	4.5330	0	33.9350	0	26.886	0	374.127	0	60.7	4	19.4	4	-1E+10	1	-1E+10	1	-1E+10	1	-1E+10	1	-1E+10	1	-1E+10	1
4902551	57	C	03/09/2022	04:50	-132.241	49.794	0	382.60	0	4.5220	0	33.9390	0	26.890	0	378.976	0	60.0	4	19.1	4	-1E+10	1	-1E+10	1	-1E+10	1	-1E+10	1	-1E+10	1	-1E+10	1
4902551	57	C	03/09/2022	04:50	-132.241	49.794	0	387.50	0	4.5130	0	33.9420	0	26.894	0	383.825	0	59.1	4	18.9	4	-1E+10	1	-1E+10	1	-1E+10	1	-1E+10	1	-1E+10	1	-1E+10	1
4902551	57	C	03/09/2022	04:50	-132.241	49.794	0	392.50	0	4.4980	0	33.9480	0	26.900	0	388.773	0	58.2	4	18.6	4	-1E+10	1	-1E+10	1	-1E+10	1	-1E+10	1	-1E+10	1	-1E+10	1
4902551	57	C	03/09/2022	04:50	-132.241	49.794	0	397.90	0	4.4870	0	33.9520	0	26.905	0	394.117	0	57.5	4	18.3	4	-1E+10	1	-1E+10	1	-1E+10	1	-1E+10	1	-1E+10	1	-1E+10	1
4902551	57	C	03/09/2022	04:50	-132.241	49.794	0	403.10	0	4.4780	0	33.9550	0	26.908	0	399.263	0	56.9	4	18.1	4	-1E+10	1	-1E+10	1	-1E+10	1	-1E+10	1	-1E+10	1	-1E+10	1
4902551	57	C	03/09/2022	04:50	-132.241	49.794	0	408.10	0	4.4690	0	33.9590	0	26.912	0	404.210	0	56.4	4	18.0	4	-1E+10	1	-1E+10	1	-1E+10	1	-1E+10	1	-1E+10	1	-1E+10	1
4902551	57	C	03/09/2022	04:50	-132.241	49.794	0	413.10	0	4.4510	0	33.9640	0	26.918	0	409.158	0	55.7	4	17.7	4	-1E+10	1	-1E+10	1	-1E+10	1	-1E+10	1	-1E+10	1	-1E+10	1
4902551	57	C	03/09/2022	04:50	-132.241	49.794	0	418.00	0	4.4410	0	33.9670	0	26.922	0	414.006	0	54.6	4	17.4	4	-1E+10	1	-1E+10	1	-1E+10	1	-1E+10	1	-1E+10	1	-1E+10	1
4902551	57	C	03/09/2022	04:50	-132.241	49.794	0	422.90	0	4.4290	0	33.9720	0	26.927	0	418.854	0	53.0	4	16.9	4	-1E+10	1	-1E+10	1	-1E+10	1	-1E+10	1	-1E+10	1	-1E+10	1
4902551	57	C	03/09/2022	04:50	-132.241	49.794	0	427.80	0	4.4060	0	33.9800	0	26.936	0	423.702	0	51.0	4	16.2	4	-1E+10	1	-1E+10	1	-1E+10	1	-1E+10	1	-1E+10	1	-1E+10	1
4902551	57	C	03/09/2022	04:50	-132.241	49.794	0	432.80	0	4.3890	0	33.9870	0	26.943	0	428.649	0	49.3	4	15.7	4	-1E+10	1	-1E+10	1	-1E+10	1	-1E+10	1	-1E+10	1	-1E+10	1
4902551	57	C	03/09/2022	04:50	-132.241	49.794	0	437.70	0	4.3670	0	33.9960	0	26.953	0	433.497	0	47.8	4	15.2	4	-1E+10	1	-1E+10	1	-1E+10	1	-1E+10	1	-1E+10	1	-1E+10	1
4902551	57	C	03/09/2022	04:50	-132.241	49.794	0	442.80	0	4.3560	0	34.0000	0	26.957	0	438.543	0	46.7	4	14.9	4	-1E+10	1	-1E+10	1	-1E+10	1	-1E+10	1	-1E+10	1	-1E+10	1
4902551	57	C	03/09/2022	04:50	-132.241	49.794	0	447.60	0	4.3400	0	34.0070	0	26.964	0	443.291	0	45.5	4	14.5	4	-1E+10	1	-1E+10	1	-1E+10	1	-1E+10	1	-1E+10	1	-1E+10	1
4902551	57	C	03/09/2022	04:50	-132.241	49.794	0	452.80	0	4.3250	0	34.0130	0	26.971	0	448.436	0	44.4	4	14.1	4	-1E+10	1	-1E+10	1	-1E+10	1	-1E+10	1	-1E+10	1	-1E+10	1
4902551	57	C	03/09/2022	04:50	-132.241	49.794	0	458.10	0	4.3060	0	34.0200	0	26.978	0	453.679	0	43.5	4	13.8	4	-1E+10	1	-1E+10	1	-1E+10	1	-1E+10	1	-1E+10	1	-1E+10	1
4902551	57	C	03/09/2022	04:50	-132.241	49.794	0	463.00	0	4.2940	0	34.0240	0	26.983	0	458.526	0	42.8	4	13.6	4	-1E+10	1	-1E+10	1	-1E+10	1	-1E+10	1	-1E+10	1	-1E+10	1
4902551	57	C	03/09/2022	04:50	-132.241	49.794	0	467.80	0	4.2780	0	34.0300	0	26.989	0	463.274	0	41.6	4	13.2	4	-1E+10	1	-1E+10	1	-1E+10	1	-1E+10	1	-1E+10	1	-1E+10	1
4902551	57	C	03/09/2022	04:50	-132.241	49.794	0	472.60	0	4.2560	0	34.0380	0	26.998	0	468.023	0	40.4	4	12.8	4	-1E+10	1	-1E+10	1	-1E+10	1	-1E+10	1	-1E+10	1	-1E+10	1
4902551	57	C	03/09/2022	04:50	-132.241	49.794	0	477.50	0	4.2380	0	34.0440	0	27.005	0	472.870	0	39.4	4	12.5	4	-1E+10	1	-1E+10	1	-1E+10	1	-1E+10	1	-1E+10	1	-1E+10	1
4902551	57	C	03/09/2022	04:50	-132.241	49.794	0	482.50	0	4.2260	0	34.0490	0	27.010	0	477.815	0	38.6	4	12.2	4	-1E+10	1	-1E+10	1	-1E+10	1	-1E+10	1	-1E+10	1	-1E+10	1
4902551	57	C	03/09/2022	04:50	-132.241	49.794	0	487.50	0	4.2170	0	34.0520	0	27.013	0	482.761	0	37.4	4	11.9	4	-1E+10	1	-1E+10	1	-1E+10	1	-1E+10	1	-1E+10	1	-1E+10	1
4902551	57	C	03/09/2022	04:50	-132.241	49.794	0	492.60	0	4.1900	0	34.0630	0	27.025	0	487.805	0	36.5	4	11.6	4	-1E+10	1	-1E+10	1	-1E+10	1	-1E+10	1	-1E+10	1	-1E+10	1
4902551	57	C	03/09/2022	04:50	-132.241	49.794	0	498.00	0	4.1780	0	34.0670	0	27.029	0	493.146	0	35.9	4	11.4	4	-1E+10	1	-1E+10	1	-1E+10	1	-1E+10	1	-1E+10	1	-1E+10	1
4902551	57	C	03/09/2022	04:50	-132.241	49.794	0	502.90	0	4.1700	0	34.0700	0	27.033	0	497.993	0	35.4	4	11.2	4	-1E+10	1	-1E+10	1	-1E+10	1	-1E+10	1	-1E+10	1	-1E+10	1
4902551	57	C	03/09/2022	04:50	-132.241	49.794	0	507.70	0	4.1630	0	34.0730	0	27.036	0	502.740	0	35.0	4	11.1	4	-1E+10	1	-1E+10	1	-1E+10	1	-1E+10	1	-1E+10	1	-1E+10	1
4902551	57	C	03/09/2022	04:50	-132.241	49.794	0	512.90	0	4.1580	0	34.0740	0	27.037	0	507.883	0	34.4	4	10.9	4	-1E+10	1	-1E+10	1	-1E+10	1	-1E+10	1	-1E+10	1	-1E+10	1
4902551	57	C	03/09/2022	04:50	-132.241	49.794	0	518.20	0	4.1500	0	34.0770	0	27.040	0	513.125	0	33.5	4	10.6	4	-1E+10	1	-1E+10	1	-1E+10	1	-1E+10	1	-1E+10	1	-1E+10	1
4902551	57	C	03/09/2022	04:50	-132.241	49.794	0	523.00	0	4.1360	0	34.0820	0	27.046	0	517.872	0	32.7	4	10.3	4	-1E+10	1	-1E+10	1	-1E+10	1	-1E+10	1	-1E+10	1	-1E+10	1
4902551	57	C	03/09/2022	04:50	-132.241	49.794	0	527.90	0	4.1220	0	34.0880	0	27.052	0	522.717	0	31.9	4	10.1	4	-1E+10	1	-1E+10	1	-1E+10	1	-1E+10	1	-1E+10	1	-1E+10	1
4902551	57	C	03/09/2022	04:50	-132.241	49.794	0	532.90	0	4.1090	0	34.0930	0	27.057	0	527.662	0	31.3	4	9.9	4	-1E+10	1	-1E+10	1	-1E+10	1	-1E+10	1	-1E+10	1	-1E+10	1
4902551	57	C	03/09/2022	04:50	-132.241	49.794	0	537.90	0	4.1000	0	34.0970	0	27.062	0	532.607	0	30.7	4	9.7	4	-1E+10	1	-1E+10	1	-1E+10	1	-1E+10	1	-1E+10	1	-1E+10	1
4902551	57	C	03/09/2022	04:50	-132.241	49.794	0	543.10	0	4.0920	0	34.1000	0	27.065	0	537.749	0	30.3	4	9.6	4	-1E+10	1	-1E+10	1	-1E+10	1	-1E+10	1	-1E+10	1	-1E+10	1
4902551	57	C	03/09/2022	04:50	-132.241	49.794	0	547.90	0	4.0870	0	34.1020	0	27.067	0	542.495	0	29.9	4	9.5	4	-1E+10	1	-1E+10	1	-1E+10	1	-1E+10	1	-1E+10	1	-1E+10	1
4902551	57	C	03/09/2022	04:50	-132.241	49.794	0	552.70	0	4.0870	0	34.1020	0	27.067	0	547.241	0	29.4	4	9.3	4	-1E+10	1	-1E+10	1	-1E+10	1	-1E+10	1	-1E+10	1	-1E+10	1
4902551	57	C	03/09/2022	04:50	-132.241	49.794	0	557.70	0	4.0790	0	34.1050	0	27.070	0	552.185	0	28.6	4	9.0	4	-1E+10	1	-1E+10	1	-1E+10	1	-1E+10	1	-1E+10	1	-1E+10	1
4902551	57	C	03/09/2022	04:50	-132.241	49.794	0	562.70	0	4.0660	0	34.1100	0	27.076	0	557.129	0	27.9	4	8.8	4	-1E+10	1	-1E+10	1	-1E+10	1	-1E+10	1	-1E+10	1	-1E+10	1
4902551	57	C	03/09/2022	04:50	-132.241	49.794	0	567.70	0	4.0580	0	34.1130	0	27.079	0	562.073	0	27.1	4	8.6	4	-1E+10	1	-1E+10	1	-1E+10	1	-1E+10	1	-1E+10	1	-1E+10	1
4902551	57	C	03/09/2022	04:50	-132.241	49.794	0	572.70	0	4.0480	0	34.1170	0	27.083	0	567.017	0	26.2	4	8.3	4	-1E+10	1	-1E+10	1	-1E+10	1	-1E+10	1	-1E+10	1	-1E+10	1
4902551	57	C	03/09/2022	04:50	-132.241	49.794	0	577.80	0	4.0280	0	34.1220	0	27.089	0	572.059	0	25.3	4	8.0	4	-1E+10	1	-1E+10	1	-1E+10	1	-1E+10	1	-1E+10	1	-1E+10	1
4902551	57	C	03/09/2022	04:50	-132.241	49.794	0	582.90	0	4.0140	0	34.1260	0	27.094	0	577.101	0	24.8	4	7.8	4	-1E+10	1	-1E+10	1	-1E+10	1	-1E+10	1	-1E+10	1	-1E+10	1
4902551	57	C	03/09/2022	04:50	-132.241	49.794	0	588.10	0	4.0040	0	34.1300	0	27.098	0	582.242	0	24.2	4	7.6	4	-1E+10	1	-1E+10	1	-1E+10	1	-1E+10	1	-1E+10	1	-1E+10	1
4902551	57	C	03/09/2022	04:50	-132.241	49.794	0	593.20	0	3.9890	0	34.1350	0	27.104	0	587.284	0	23.6	4	7.4	4	-1E+10	1	-1E+10	1	-1E+10	1	-1E+10	1	-1E+10	1	-1E+10	1
4902551	57	C	03/09/2022	04:50	-132.241	49.794	0	597.80	0	3.9750	0	34.1400	0	27.109	0	591.832	0	23.1	4	7.3	4	-1E+10	1	-1E+10	1	-1E+10	1	-1E+10	1	-1E+10	1	-1E+10	1
4902551	57	C	03/09/2022	04:50	-132.241	49.794	0	602.50	0	3.9580	0	34.1450	0	27.115	0	596.478	0	22.6	4	7.1	4	-1E+10	1	-1E+10	1	-1E+10	1	-1E+10	1	-1E+10	1	-1E+10	1
4902551	57	C	03/09/2022	04:50	-132.241	49.794	0	607.70	0	3.9420	0	34.1510	0	27.121	0	601.619	0	22.3	4	7.0	4	-1E+10	1	-1E+10	1	-1E+10	1	-1E+10	1	-1E+10	1	-1E+10	1
4902551	57	C	03/09/2022	04:50	-132.241	49.794	0	612.90	0	3.9360	0	34.1540	0	27.124	0	606.759	0	21.9	4	6.9	4	-1E+10	1	-1E+10	1	-1E+10	1	-1E+10	1	-1E+10	1	-1E+10	1
4902551	57	C	03/09/2022	04:50	-132.241	49.794	0	618.10	0	3.9310	0	34.1560	0	27.126	0	611.899	0	21.5	4	6.8	4	-1E+10	1	-1E+10	1	-1E+10	1	-1E+10	1	-1E+10	1	-1E+10	1
4902551	57	C	03/09/2022	04:50	-132.241	49.794	0	622.90	0	3.9230	0	34.1600	0	27.130	0	616.644	0	21.0	4	6.6	4	-1E+10	1	-1E+10	1	-1E+10	1	-1E+10	1	-1E+10	1	-1E+10	1
4902551	57	C	03/09/2022	04:50	-132.241	49.794	0	627.60	0	3.9120	0	34.1650	0	27.136	0	621.290	0	20.7	4	6.5	4	-1E+10	1	-1E+10	1	-1E+10	1	-1E+10	1	-1E+10	1	-1E+10	1
4902551	57	C	03/09/2022	04:50	-132.241	49.794	0	632.90	0	3.9070	0	34.1660	0	27.137	0	626.529	0	20.4	4	6.4	4	-1E+10	1	-1E+10	1	-1E+10	1	-1E+10	1	-1E+10	1	-1E+10	1
4902551	57	C	03/09/2022	04:50	-132.241	49.794	0	638.00	0	3.8940	0	34.1700	0	27.141	0	631.570	0	19.8	4	6.2	4	-1E+10	1	-1E+10	1	-1E+10	1	-1E+10	1	-1E+10	1	-1E+10	1
4902551	57	C	03/09/2022	04:50	-132.241	49.794	0	643.10	0	3.8710	0	34.1790	0	27.151	0	636.610	0	19.5	4	6.1	4	-1E+10	1	-1E+10	1	-1E+10	1	-1E+10	1	-1E+10	1	-1E+10	1
4902551	57	C	03/09/2022	04:50	-132.241	49.794	0	648.10	0	3.8580	0	34.1820	0	27.155	0	641.552	0	19.4	4	6.1	4	-1E+10	1	-1E+10	1	-1E+10	1	-1E+10	1	-1E+10	1	-1E+10	1
4902551	57	C	03/09/2022	04:50	-132.241	49.794	0	653.00	0	3.8420	0	34.1850	0	27.159	0	646.395	0	19.3	4	6.1	4	-1E+10	1	-1E+10	1	-1E+10	1	-1E+10	1	-1E+10	1	-1E+10	1
4902551	57	C	03/09/2022	04:50	-132.241	49.794	0	658.10	0	3.8300	0	34.1870	0	27.162	0	651.436	0	19.1	4	6.0	4	-1E+10	1	-1E+10	1	-1E+10	1	-1E+10	1	-1E+10	1	-1E+10	1
4902551	57	C	03/09/2022	04:50	-132.241	49.794	0	663.00	0	3.8180	0	34.1900	0	27.165	0	656.278	0	18.9	4	5.9	4	-1E+10	1	-1E+10	1	-1E+10	1	-1E+10	1	-1E+10	1	-1E+10	1
4902551	57	C	03/09/2022	04:50	-132.241	49.794	0	667.90	0	3.8140	0	34.1910	0	27.166	0	661.121	0	18.6	4	5.8	4	-1E+10	1	-1E+10	1	-1E+10	1	-1E+10	1	-1E+10	1	-1E+10	1
4902551	57	C	03/09/2022	04:50	-132.241	49.794	0	672.80	0	3.8060	0	34.1940	0	27.170	0	665.963	0	18.1	4	5.7	4	-1E+10	1	-1E+10	1	-1E+10	1	-1E+10	1	-1E+10	1	-1E+10	1
4902551	57	C	03/09/2022	04:50	-132.241	49.794	0	677.60	0	3.8030	0	34.1980	0	27.173	0	670.707	0	17.6	4	5.5	4	-1E+10	1	-1E+10	1	-1E+10	1	-1E+10	1	-1E+10	1	-1E+10	1
4902551	57	C	03/09/2022	04:50	-132.241	49.794	0	682.90	0	3.7980	0	34.2040	0	27.178	0	675.944	0	17.4	4	5.5	4	-1E+10	1	-1E+10	1	-1E+10	1	-1E+10	1	-1E+10	1	-1E+10	1
4902551	57	C	03/09/2022	04:50	-132.241	49.794	0	688.30	0	3.7840	0	34.2070	0	27.182	0	681.280	0	17.5	4	5.5	4	-1E+10	1	-1E+10	1	-1E+10	1	-1E+10	1	-1E+10	1	-1E+10	1
4902551	57	C	03/09/2022	04:50	-132.241	49.794	0	693.10	0	3.7730	0	34.2080	0	27.184	0	686.024	0	17.6	4	5.5	4	-1E+10	1	-1E+10	1	-1E+10	1	-1E+10	1	-1E+10	1	-1E+10	1
4902551	57	C	03/09/2022	04:50	-132.241	49.794	0	698.00	0	3.7600	0	34.2100	0	27.187	0	690.865	0	17.8	4	5.6	4	-1E+10	1	-1E+10	1	-1E+10	1	-1E+10	1	-1E+10	1	-1E+10	1
4902551	57	C	03/09/2022	04:50	-132.241	49.794	0	703.00	0	3.7400	0	34.2120	0	27.191	0	695.806	0	17.9	4	5.6	4	-1E+10	1	-1E+10	1	-1E+10	1	-1E+10	1	-1E+10	1	-1E+10	1
4902551	57	C	03/09/2022	04:50	-132.241	49.794	0	707.80	0	3.7370	0	34.2120	0	27.191	0	700.549	0	17.9	4	5.6	4	-1E+10	1	-1E+10	1	-1E+10	1	-1E+10	1	-1E+10	1	-1E+10	1
4902551	57	C	03/09/2022	04:50	-132.241	49.794	0	713.00	0	3.7180	0	34.2150	0	27.195	0	705.687	0	17.9	4	5.6	4	-1E+10	1	-1E+10	1	-1E+10	1	-1E+10	1	-1E+10	1	-1E+10	1
4902551	57	C	03/09/2022	04:50	-132.241	49.794	0	717.90	0	3.7030	0	34.2170	0	27.198	0	710.528	0	17.9	4	5.6	4	-1E+10	1	-1E+10	1	-1E+10	1	-1E+10	1	-1E+10	1	-1E+10	1
4902551	57	C	03/09/2022	04:50	-132.241	49.794	0	722.50	0	3.6950	0	34.2190	0	27.201	0	715.073	0	17.8	4	5.6	4	-1E+10	1	-1E+10	1	-1E+10	1	-1E+10	1	-1E+10	1	-1E+10	1
4902551	57	C	03/09/2022	04:50	-132.241	49.794	0	727.50	0	3.6880	0	34.2200	0	27.202	0	720.013	0	17.7	4	5.5	4	-1E+10	1	-1E+10	1	-1E+10	1	-1E+10	1	-1E+10	1	-1E+10	1
4902551	57	C	03/09/2022	04:50	-132.241	49.794	0	732.60	0	3.6740	0	34.2240	0	27.207	0	725.052	0	17.5	4	5.5	4	-1E+10	1	-1E+10	1	-1E+10	1	-1E+10	1	-1E+10	1	-1E+10	1
4902551	57	C	03/09/2022	04:50	-132.241	49.794	0	737.70	0	3.6630	0	34.2260	0	27.210	0	730.090	0	17.3	4	5.4	4	-1E+10	1	-1E+10	1	-1E+10	1	-1E+10	1	-1E+10	1	-1E+10	1
4902551	57	C	03/09/2022	04:50	-132.241	49.794	0	743.10	0	3.6530	0	34.2290	0	27.213	0	735.425	0	17.1	4	5.3	4	-1E+10	1	-1E+10	1	-1E+10	1	-1E+10	1	-1E+10	1	-1E+10	1
4902551	57	C	03/09/2022	04:50	-132.241	49.794	0	748.10	0	3.6360	0	34.2340	0	27.219	0	740.364	0	16.8	4	5.3	4	-1E+10	1	-1E+10	1	-1E+10	1	-1E+10	1	-1E+10	1	-1E+10	1
4902551	57	C	03/09/2022	04:50	-132.241	49.794	0	752.90	0	3.6190	0	34.2380	0	27.224	0	745.106	0	16.7	4	5.2	4	-1E+10	1	-1E+10	1	-1E+10	1	-1E+10	1	-1E+10	1	-1E+10	1
4902551	57	C	03/09/2022	04:50	-132.241	49.794	0	757.80	0	3.6090	0	34.2410	0	27.227	0	749.947	0	16.5	4	5.2	4	-1E+10	1	-1E+10	1	-1E+10	1	-1E+10	1	-1E+10	1	-1E+10	1
4902551	57	C	03/09/2022	04:50	-132.241	49.794	0	763.00	0	3.5970	0	34.2440	0	27.231	0	755.083	0	16.3	4	5.1	4	-1E+10	1	-1E+10	1	-1E+10	1	-1E+10	1	-1E+10	1	-1E+10	1
4902551	57	C	03/09/2022	04:50	-132.241	49.794	0	767.90	0	3.5880	0	34.2470	0	27.234	0	759.924	0	16.2	4	5.1	4	-1E+10	1	-1E+10	1	-1E+10	1	-1E+10	1	-1E+10	1	-1E+10	1
4902551	57	C	03/09/2022	04:50	-132.241	49.794	0	772.90	0	3.5880	0	34.2470	0	27.234	0	764.863	0	16.0	4	5.0	4	-1E+10	1	-1E+10	1	-1E+10	1	-1E+10	1	-1E+10	1	-1E+10	1
4902551	57	C	03/09/2022	04:50	-132.241	49.794	0	778.00	0	3.5880	0	34.2480	0	27.235	0	769.900	0	15.7	4	4.9	4	-1E+10	1	-1E+10	1	-1E+10	1	-1E+10	1	-1E+10	1	-1E+10	1
4902551	57	C	03/09/2022	04:50	-132.241	49.794	0	782.60	0	3.5820	0	34.2490	0	27.236	0	774.444	0	15.4	4	4.8	4	-1E+10	1	-1E+10	1	-1E+10	1	-1E+10	1	-1E+10	1	-1E+10	1
4902551	57	C	03/09/2022	04:50	-132.241	49.794	0	787.80	0	3.5770	0	34.2540	0	27.241	0	779.580	0	14.9	4	4.7	4	-1E+10	1	-1E+10	1	-1E+10	1	-1E+10	1	-1E+10	1	-1E+10	1
4902551	57	C	03/09/2022	04:50	-132.241	49.794	0	793.20	0	3.5800	0	34.2570	0	27.243	0	784.913	0	14.6	4	4.6	4	-1E+10	1	-1E+10	1	-1E+10	1	-1E+10	1	-1E+10	1	-1E+10	1
4902551	57	C	03/09/2022	04:50	-132.241	49.794	0	798.20	0	3.5680	0	34.2600	0	27.246	0	789.852	0	14.5	4	4.5	4	-1E+10	1	-1E+10	1	-1E+10	1	-1E+10	1	-1E+10	1	-1E+10	1
4902551	57	C	03/09/2022	04:50	-132.241	49.794	0	803.20	0	3.5650	0	34.2620	0	27.248	0	794.790	0	14.5	4	4.5	4	-1E+10	1	-1E+10	1	-1E+10	1	-1E+10	1	-1E+10	1	-1E+10	1
4902551	57	C	03/09/2022	04:50	-132.241	49.794	0	808.30	0	3.5580	0	34.2630	0	27.250	0	799.827	0	14.5	4	4.5	4	-1E+10	1	-1E+10	1	-1E+10	1	-1E+10	1	-1E+10	1	-1E+10	1
4902551	57	C	03/09/2022	04:50	-132.241	49.794	0	812.90	0	3.5510	0	34.2650	0	27.252	0	804.370	0	14.6	4	4.6	4	-1E+10	1	-1E+10	1	-1E+10	1	-1E+10	1	-1E+10	1	-1E+10	1
4902551	57	C	03/09/2022	04:50	-132.241	49.794	0	817.50	0	3.5390	0	34.2660	0	27.254	0	808.912	0	14.7	4	4.6	4	-1E+10	1	-1E+10	1	-1E+10	1	-1E+10	1	-1E+10	1	-1E+10	1
4902551	57	C	03/09/2022	04:50	-132.241	49.794	0	822.70	0	3.5230	0	34.2670	0	27.256	0	814.048	0	14.6	4	4.6	4	-1E+10	1	-1E+10	1	-1E+10	1	-1E+10	1	-1E+10	1	-1E+10	1
4902551	57	C	03/09/2022	04:50	-132.241	49.794	0	827.90	0	3.5090	0	34.2710	0	27.261	0	819.183	0	14.5	4	4.5	4	-1E+10	1	-1E+10	1	-1E+10	1	-1E+10	1	-1E+10	1	-1E+10	1
4902551	57	C	03/09/2022	04:50	-132.241	49.794	0	833.20	0	3.5060	0	34.2710	0	27.261	0	824.417	0	14.5	4	4.5	4	-1E+10	1	-1E+10	1	-1E+10	1	-1E+10	1	-1E+10	1	-1E+10	1
4902551	57	C	03/09/2022	04:50	-132.241	49.794	0	837.90	0	3.5030	0	34.2720	0	27.262	0	829.058	0	14.4	4	4.5	4	-1E+10	1	-1E+10	1	-1E+10	1	-1E+10	1	-1E+10	1	-1E+10	1
4902551	57	C	03/09/2022	04:50	-132.241	49.794	0	842.80	0	3.4950	0	34.2740	0	27.265	0	833.896	0	14.3	4	4.5	4	-1E+10	1	-1E+10	1	-1E+10	1	-1E+10	1	-1E+10	1	-1E+10	1
4902551	57	C	03/09/2022	04:50	-132.241	49.794	0	848.10	0	3.4840	0	34.2760	0	27.268	0	839.130	0	14.3	4	4.5	4	-1E+10	1	-1E+10	1	-1E+10	1	-1E+10	1	-1E+10	1	-1E+10	1
4902551	57	C	03/09/2022	04:50	-132.241	49.794	0	853.00	0	3.4770	0	34.2780	0	27.270	0	843.968	0	14.2	4	4.4	4	-1E+10	1	-1E+10	1	-1E+10	1	-1E+10	1	-1E+10	1	-1E+10	1
4902551	57	C	03/09/2022	04:50	-132.241	49.794	0	857.70	0	3.4620	0	34.2810	0	27.274	0	848.609	0	14.2	4	4.4	4	-1E+10	1	-1E+10	1	-1E+10	1	-1E+10	1	-1E+10	1	-1E+10	1
4902551	57	C	03/09/2022	04:50	-132.241	49.794	0	862.60	0	3.4500	0	34.2840	0	27.277	0	853.447	0	14.2	4	4.4	4	-1E+10	1	-1E+10	1	-1E+10	1	-1E+10	1	-1E+10	1	-1E+10	1
4902551	57	C	03/09/2022	04:50	-132.241	49.794	0	867.80	0	3.4400	0	34.2860	0	27.280	0	858.581	0	14.2	4	4.4	4	-1E+10	1	-1E+10	1	-1E+10	1	-1E+10	1	-1E+10	1	-1E+10	1
4902551	57	C	03/09/2022	04:50	-132.241	49.794	0	873.00	0	3.4350	0	34.2860	0	27.280	0	863.715	0	14.1	4	4.4	4	-1E+10	1	-1E+10	1	-1E+10	1	-1E+10	1	-1E+10	1	-1E+10	1
4902551	57	C	03/09/2022	04:50	-132.241	49.794	0	877.70	0	3.4280	0	34.2880	0	27.283	0	868.355	0	14.1	4	4.4	4	-1E+10	1	-1E+10	1	-1E+10	1	-1E+10	1	-1E+10	1	-1E+10	1
4902551	57	C	03/09/2022	04:50	-132.241	49.794	0	882.80	0	3.4250	0	34.2880	0	27.283	0	873.390	0	14.1	4	4.4	4	-1E+10	1	-1E+10	1	-1E+10	1	-1E+10	1	-1E+10	1	-1E+10	1
4902551	57	C	03/09/2022	04:50	-132.241	49.794	0	888.20	0	3.4090	0	34.2910	0	27.287	0	878.721	0	14.0	4	4.4	4	-1E+10	1	-1E+10	1	-1E+10	1	-1E+10	1	-1E+10	1	-1E+10	1
4902551	57	C	03/09/2022	04:50	-132.241	49.794	0	893.20	0	3.4030	0	34.2930	0	27.289	0	883.657	0	13.9	4	4.3	4	-1E+10	1	-1E+10	1	-1E+10	1	-1E+10	1	-1E+10	1	-1E+10	1
4902551	57	C	03/09/2022	04:50	-132.241	49.794	0	898.00	0	3.3970	0	34.2940	0	27.291	0	888.396	0	13.9	4	4.3	4	-1E+10	1	-1E+10	1	-1E+10	1	-1E+10	1	-1E+10	1	-1E+10	1
4902551	57	C	03/09/2022	04:50	-132.241	49.794	0	902.80	0	3.3820	0	34.2970	0	27.294	0	893.134	0	13.7	4	4.3	4	-1E+10	1	-1E+10	1	-1E+10	1	-1E+10	1	-1E+10	1	-1E+10	1
4902551	57	C	03/09/2022	04:50	-132.241	49.794	0	907.80	0	3.3660	0	34.3000	0	27.298	0	898.070	0	13.5	4	4.2	4	-1E+10	1	-1E+10	1	-1E+10	1	-1E+10	1	-1E+10	1	-1E+10	1
4902551	57	C	03/09/2022	04:50	-132.241	49.794	0	912.90	0	3.3530	0	34.3040	0	27.303	0	903.104	0	13.3	4	4.1	4	-1E+10	1	-1E+10	1	-1E+10	1	-1E+10	1	-1E+10	1	-1E+10	1
4902551	57	C	03/09/2022	04:50	-132.241	49.794	0	918.00	0	3.3440	0	34.3070	0	27.306	0	908.139	0	13.0	4	4.0	4	-1E+10	1	-1E+10	1	-1E+10	1	-1E+10	1	-1E+10	1	-1E+10	1
4902551	57	C	03/09/2022	04:50	-132.241	49.794	0	922.70	0	3.3510	0	34.3110	0	27.309	0	912.778	0	12.8	4	4.0	4	-1E+10	1	-1E+10	1	-1E+10	1	-1E+10	1	-1E+10	1	-1E+10	1
4902551	57	C	03/09/2022	04:50	-132.241	49.794	0	928.00	0	3.3450	0	34.3140	0	27.312	0	918.009	0	12.7	4	4.0	4	-1E+10	1	-1E+10	1	-1E+10	1	-1E+10	1	-1E+10	1	-1E+10	1
4902551	57	C	03/09/2022	04:50	-132.241	49.794	0	933.40	0	3.3360	0	34.3150	0	27.313	0	923.339	0	12.7	4	3.9	4	-1E+10	1	-1E+10	1	-1E+10	1	-1E+10	1	-1E+10	1	-1E+10	1
4902551	57	C	03/09/2022	04:50	-132.241	49.794	0	938.30	0	3.3310	0	34.3170	0	27.315	0	928.175	0	12.6	4	3.9	4	-1E+10	1	-1E+10	1	-1E+10	1	-1E+10	1	-1E+10	1	-1E+10	1
4902551	57	C	03/09/2022	04:50	-132.241	49.794	0	943.30	0	3.3230	0	34.3190	0	27.318	0	933.110	0	12.6	4	3.9	4	-1E+10	1	-1E+10	1	-1E+10	1	-1E+10	1	-1E+10	1	-1E+10	1
4902551	57	C	03/09/2022	04:50	-132.241	49.794	0	948.30	0	3.3130	0	34.3210	0	27.320	0	938.045	0	12.6	4	3.9	4	-1E+10	1	-1E+10	1	-1E+10	1	-1E+10	1	-1E+10	1	-1E+10	1
4902551	57	C	03/09/2022	04:50	-132.241	49.794	0	952.90	0	3.3030	0	34.3220	0	27.322	0	942.585	0	12.6	4	3.9	4	-1E+10	1	-1E+10	1	-1E+10	1	-1E+10	1	-1E+10	1	-1E+10	1
4902551	57	C	03/09/2022	04:50	-132.241	49.794	0	957.60	0	3.2980	0	34.3250	0	27.325	0	947.224	0	12.6	4	3.9	4	-1E+10	1	-1E+10	1	-1E+10	1	-1E+10	1	-1E+10	1	-1E+10	1
4902551	57	C	03/09/2022	04:50	-132.241	49.794	0	962.80	0	3.2930	0	34.3260	0	27.326	0	952.355	0	12.6	4	3.9	4	-1E+10	1	-1E+10	1	-1E+10	1	-1E+10	1	-1E+10	1	-1E+10	1
4902551	57	C	03/09/2022	04:50	-132.241	49.794	0	968.00	0	3.2790	0	34.3270	0	27.328	0	957.487	0	12.6	4	3.9	4	-1E+10	1	-1E+10	1	-1E+10	1	-1E+10	1	-1E+10	1	-1E+10	1
4902551	57	C	03/09/2022	04:50	-132.241	49.794	0	973.10	0	3.2690	0	34.3290	0	27.331	0	962.520	0	12.5	4	3.9	4	-1E+10	1	-1E+10	1	-1E+10	1	-1E+10	1	-1E+10	1	-1E+10	1
4902551	57	C	03/09/2022	04:50	-132.241	49.794	0	978.30	0	3.2610	0	34.3310	0	27.333	0	967.651	0	12.5	4	3.9	4	-1E+10	1	-1E+10	1	-1E+10	1	-1E+10	1	-1E+10	1	-1E+10	1
4902551	57	C	03/09/2022	04:50	-132.241	49.794	0	983.00	0	3.2520	0	34.3330	0	27.336	0	972.289	0	12.5	4	3.9	4	-1E+10	1	-1E+10	1	-1E+10	1	-1E+10	1	-1E+10	1	-1E+10	1
4902551	57	C	03/09/2022	04:50	-132.241	49.794	0	987.80	0	3.2500	0	34.3340	0	27.337	0	977.026	0	12.5	4	3.9	4	-1E+10	1	-1E+10	1	-1E+10	1	-1E+10	1	-1E+10	1	-1E+10	1
4902551	57	C	03/09/2022	04:50	-132.241	49.794	0	993.20	0	3.2480	0	34.3350	0	27.338	0	982.354	0	12.5	4	3.9	4	-1E+10	1	-1E+10	1	-1E+10	1	-1E+10	1	-1E+10	1	-1E+10	1
4902551	57	C	03/09/2022	04:50	-132.241	49.794	0	998.00	0	3.2430	0	34.3350	0	27.338	0	987.091	0	12.4	4	3.9	4	-1E+10	1	-1E+10	1	-1E+10	1	-1E+10	1	-1E+10	1	-1E+10	1
4902551	57	C	03/09/2022	04:50	-132.241	49.794	0	1005.20	0	3.2170	0	34.3410	0	27.346	0	994.195	0	12.5	4	3.9	4	-1E+10	1	-1E+10	1	-1E+10	1	-1E+10	1	-1E+10	1	-1E+10	1
4902551	57	C	03/09/2022	04:50	-132.241	49.794	0	1015.10	0	3.1770	0	34.3460	0	27.353	0	1003.963	0	12.5	4	3.9	4	-1E+10	1	-1E+10	1	-1E+10	1	-1E+10	1	-1E+10	1	-1E+10	1
4902551	57	C	03/09/2022	04:50	-132.241	49.794	0	1025.00	0	3.1560	0	34.3520	0	27.360	0	1013.730	0	12.6	4	3.9	4	-1E+10	1	-1E+10	1	-1E+10	1	-1E+10	1	-1E+10	1	-1E+10	1
4902551	57	C	03/09/2022	04:50	-132.241	49.794	0	1035.10	0	3.1290	0	34.3550	0	27.365	0	1023.695	0	12.7	4	3.9	4	-1E+10	1	-1E+10	1	-1E+10	1	-1E+10	1	-1E+10	1	-1E+10	1
4902551	57	C	03/09/2022	04:50	-132.241	49.794	0	1045.30	0	3.1000	0	34.3600	0	27.372	0	1033.757	0	12.7	4	3.9	4	-1E+10	1	-1E+10	1	-1E+10	1	-1E+10	1	-1E+10	1	-1E+10	1
4902551	57	C	03/09/2022	04:50	-132.241	49.794	0	1055.30	0	3.0890	0	34.3630	0	27.375	0	1043.622	0	12.6	4	3.9	4	-1E+10	1	-1E+10	1	-1E+10	1	-1E+10	1	-1E+10	1	-1E+10	1
4902551	57	C	03/09/2022	04:50	-132.241	49.794	0	1065.50	0	3.0660	0	34.3680	0	27.381	0	1053.683	0	12.6	4	3.9	4	-1E+10	1	-1E+10	1	-1E+10	1	-1E+10	1	-1E+10	1	-1E+10	1
4902551	57	C	03/09/2022	04:50	-132.241	49.794	0	1075.80	0	3.0460	0	34.3720	0	27.386	0	1063.843	0	12.6	4	3.9	4	-1E+10	1	-1E+10	1	-1E+10	1	-1E+10	1	-1E+10	1	-1E+10	1
4902551	57	C	03/09/2022	04:50	-132.241	49.794	0	1085.40	0	3.0320	0	34.3760	0	27.391	0	1073.312	0	12.6	4	3.9	4	-1E+10	1	-1E+10	1	-1E+10	1	-1E+10	1	-1E+10	1	-1E+10	1
4902551	57	C	03/09/2022	04:50	-132.241	49.794	0	1095.20	0	3.0110	0	34.3800	0	27.396	0	1082.977	0	12.7	4	3.9	4	-1E+10	1	-1E+10	1	-1E+10	1	-1E+10	1	-1E+10	1	-1E+10	1
4902551	57	C	03/09/2022	04:50	-132.241	49.794	0	1105.60	0	2.9990	0	34.3820	0	27.399	0	1093.234	0	12.7	4	3.9	4	-1E+10	1	-1E+10	1	-1E+10	1	-1E+10	1	-1E+10	1	-1E+10	1
4902551	57	C	03/09/2022	04:50	-132.241	49.794	0	1115.50	0	2.9850	0	34.3860	0	27.403	0	1102.997	0	12.7	4	3.9	4	-1E+10	1	-1E+10	1	-1E+10	1	-1E+10	1	-1E+10	1	-1E+10	1
4902551	57	C	03/09/2022	04:50	-132.241	49.794	0	1125.10	0	2.9690	0	34.3890	0	27.407	0	1112.464	0	12.7	4	3.9	4	-1E+10	1	-1E+10	1	-1E+10	1	-1E+10	1	-1E+10	1	-1E+10	1
4902551	57	C	03/09/2022	04:50	-132.241	49.794	0	1135.40	0	2.9530	0	34.3920	0	27.411	0	1122.621	0	12.8	4	3.9	4	-1E+10	1	-1E+10	1	-1E+10	1	-1E+10	1	-1E+10	1	-1E+10	1
4902551	57	C	03/09/2022	04:50	-132.241	49.794	0	1145.80	0	2.9430	0	34.3950	0	27.414	0	1132.876	0	12.8	4	4.0	4	-1E+10	1	-1E+10	1	-1E+10	1	-1E+10	1	-1E+10	1	-1E+10	1
4902551	57	C	03/09/2022	04:50	-132.241	49.794	0	1155.20	0	2.9210	0	34.4000	0	27.420	0	1142.145	0	13.0	4	4.0	4	-1E+10	1	-1E+10	1	-1E+10	1	-1E+10	1	-1E+10	1	-1E+10	1
4902551	57	C	03/09/2022	04:50	-132.241	49.794	0	1165.10	0	2.9010	0	34.4030	0	27.425	0	1151.906	0	13.2	4	4.1	4	-1E+10	1	-1E+10	1	-1E+10	1	-1E+10	1	-1E+10	1	-1E+10	1
4902551	57	C	03/09/2022	04:50	-132.241	49.794	0	1175.30	0	2.8760	0	34.4070	0	27.430	0	1161.962	0	13.3	4	4.1	4	-1E+10	1	-1E+10	1	-1E+10	1	-1E+10	1	-1E+10	1	-1E+10	1
4902551	57	C	03/09/2022	04:50	-132.241	49.794	0	1185.30	0	2.8560	0	34.4110	0	27.435	0	1171.821	0	13.4	4	4.1	4	-1E+10	1	-1E+10	1	-1E+10	1	-1E+10	1	-1E+10	1	-1E+10	1
4902551	57	C	03/09/2022	04:50	-132.241	49.794	0	1195.50	0	2.8420	0	34.4130	0	27.438	0	1181.876	0	13.5	4	4.1	4	-1E+10	1	-1E+10	1	-1E+10	1	-1E+10	1	-1E+10	1	-1E+10	1
4902551	57	C	03/09/2022	04:50	-132.241	49.794	0	1205.60	0	2.8280	0	34.4160	0	27.442	0	1191.832	0	13.5	4	4.2	4	-1E+10	1	-1E+10	1	-1E+10	1	-1E+10	1	-1E+10	1	-1E+10	1
4902551	57	C	03/09/2022	04:50	-132.241	49.794	0	1215.30	0	2.8140	0	34.4190	0	27.445	0	1201.394	0	13.6	4	4.2	4	-1E+10	1	-1E+10	1	-1E+10	1	-1E+10	1	-1E+10	1	-1E+10	1
4902551	57	C	03/09/2022	04:50	-132.241	49.794	0	1225.20	0	2.8040	0	34.4210	0	27.448	0	1211.152	0	13.7	4	4.2	4	-1E+10	1	-1E+10	1	-1E+10	1	-1E+10	1	-1E+10	1	-1E+10	1
4902551	57	C	03/09/2022	04:50	-132.241	49.794	0	1235.20	0	2.7840	0	34.4240	0	27.452	0	1221.008	0	13.8	4	4.2	4	-1E+10	1	-1E+10	1	-1E+10	1	-1E+10	1	-1E+10	1	-1E+10	1
4902551	57	C	03/09/2022	04:50	-132.241	49.794	0	1245.40	0	2.7720	0	34.4260	0	27.455	0	1231.061	0	14.0	4	4.3	4	-1E+10	1	-1E+10	1	-1E+10	1	-1E+10	1	-1E+10	1	-1E+10	1
4902551	57	C	03/09/2022	04:50	-132.241	49.794	0	1255.80	0	2.7530	0	34.4290	0	27.459	0	1241.311	0	14.2	4	4.4	4	-1E+10	1	-1E+10	1	-1E+10	1	-1E+10	1	-1E+10	1	-1E+10	1
4902551	57	C	03/09/2022	04:50	-132.241	49.794	0	1265.40	0	2.7350	0	34.4320	0	27.463	0	1250.772	0	14.4	4	4.4	4	-1E+10	1	-1E+10	1	-1E+10	1	-1E+10	1	-1E+10	1	-1E+10	1
4902551	57	C	03/09/2022	04:50	-132.241	49.794	0	1275.30	0	2.7150	0	34.4360	0	27.468	0	1260.528	0	14.7	4	4.5	4	-1E+10	1	-1E+10	1	-1E+10	1	-1E+10	1	-1E+10	1	-1E+10	1
4902551	57	C	03/09/2022	04:50	-132.241	49.794	0	1285.60	0	2.6960	0	34.4390	0	27.472	0	1270.677	0	15.0	4	4.6	4	-1E+10	1	-1E+10	1	-1E+10	1	-1E+10	1	-1E+10	1	-1E+10	1
4902551	57	C	03/09/2022	04:50	-132.241	49.794	0	1295.80	0	2.6730	0	34.4430	0	27.477	0	1280.728	0	15.2	4	4.7	4	-1E+10	1	-1E+10	1	-1E+10	1	-1E+10	1	-1E+10	1	-1E+10	1
4902551	57	C	03/09/2022	04:50	-132.241	49.794	0	1305.50	0	2.6610	0	34.4450	0	27.480	0	1290.285	0	15.4	4	4.7	4	-1E+10	1	-1E+10	1	-1E+10	1	-1E+10	1	-1E+10	1	-1E+10	1
4902551	57	C	03/09/2022	04:50	-132.241	49.794	0	1315.60	0	2.6500	0	34.4470	0	27.483	0	1300.236	0	15.7	4	4.8	4	-1E+10	1	-1E+10	1	-1E+10	1	-1E+10	1	-1E+10	1	-1E+10	1
4902551	57	C	03/09/2022	04:50	-132.241	49.794	0	1325.30	0	2.6340	0	34.4500	0	27.486	0	1309.793	0	15.9	4	4.9	4	-1E+10	1	-1E+10	1	-1E+10	1	-1E+10	1	-1E+10	1	-1E+10	1
4902551	57	C	03/09/2022	04:50	-132.241	49.794	0	1335.10	0	2.6200	0	34.4530	0	27.490	0	1319.448	0	16.2	4	5.0	4	-1E+10	1	-1E+10	1	-1E+10	1	-1E+10	1	-1E+10	1	-1E+10	1
4902551	57	C	03/09/2022	04:50	-132.241	49.794	0	1345.20	0	2.5970	0	34.4570	0	27.495	0	1329.397	0	16.6	4	5.1	4	-1E+10	1	-1E+10	1	-1E+10	1	-1E+10	1	-1E+10	1	-1E+10	1
4902551	57	C	03/09/2022	04:50	-132.241	49.794	0	1355.40	0	2.5860	0	34.4590	0	27.498	0	1339.445	0	16.8	4	5.1	4	-1E+10	1	-1E+10	1	-1E+10	1	-1E+10	1	-1E+10	1	-1E+10	1
4902551	57	C	03/09/2022	04:50	-132.241	49.794	0	1365.50	0	2.5750	0	34.4600	0	27.500	0	1349.394	0	17.1	4	5.2	4	-1E+10	1	-1E+10	1	-1E+10	1	-1E+10	1	-1E+10	1	-1E+10	1
4902551	57	C	03/09/2022	04:50	-132.241	49.794	0	1375.20	0	2.5530	0	34.4640	0	27.505	0	1358.948	0	17.5	4	5.3	4	-1E+10	1	-1E+10	1	-1E+10	1	-1E+10	1	-1E+10	1	-1E+10	1
4902551	57	C	03/09/2022	04:50	-132.241	49.794	0	1385.20	0	2.5450	0	34.4660	0	27.507	0	1368.798	0	17.7	4	5.4	4	-1E+10	1	-1E+10	1	-1E+10	1	-1E+10	1	-1E+10	1	-1E+10	1
4902551	57	C	03/09/2022	04:50	-132.241	49.794	0	1395.40	0	2.5340	0	34.4680	0	27.510	0	1378.844	0	18.0	4	5.5	4	-1E+10	1	-1E+10	1	-1E+10	1	-1E+10	1	-1E+10	1	-1E+10	1
4902551	57	C	03/09/2022	04:50	-132.241	49.794	0	1405.60	0	2.5250	0	34.4700	0	27.512	0	1388.889	0	18.2	4	5.5	4	-1E+10	1	-1E+10	1	-1E+10	1	-1E+10	1	-1E+10	1	-1E+10	1
4902551	57	C	03/09/2022	04:50	-132.241	49.794	0	1415.50	0	2.5160	0	34.4710	0	27.514	0	1398.639	0	18.4	4	5.6	4	-1E+10	1	-1E+10	1	-1E+10	1	-1E+10	1	-1E+10	1	-1E+10	1
4902551	57	C	03/09/2022	04:50	-132.241	49.794	0	1425.20	0	2.5090	0	34.4730	0	27.516	0	1408.191	0	18.6	4	5.7	4	-1E+10	1	-1E+10	1	-1E+10	1	-1E+10	1	-1E+10	1	-1E+10	1
4902551	57	C	03/09/2022	04:50	-132.241	49.794	0	1435.00	0	2.5000	0	34.4750	0	27.518	0	1417.841	0	18.9	4	5.8	4	-1E+10	1	-1E+10	1	-1E+10	1	-1E+10	1	-1E+10	1	-1E+10	1
4902551	57	C	03/09/2022	04:50	-132.241	49.794	0	1445.40	0	2.4900	0	34.4760	0	27.520	0	1428.081	0	19.3	4	5.9	4	-1E+10	1	-1E+10	1	-1E+10	1	-1E+10	1	-1E+10	1	-1E+10	1
4902551	57	C	03/09/2022	04:50	-132.241	49.794	0	1455.90	0	2.4750	0	34.4790	0	27.524	0	1438.420	0	19.6	4	6.0	4	-1E+10	1	-1E+10	1	-1E+10	1	-1E+10	1	-1E+10	1	-1E+10	1
4902551	57	C	03/09/2022	04:50	-132.241	49.794	0	1465.80	0	2.4670	0	34.4810	0	27.526	0	1448.167	0	19.9	4	6.1	4	-1E+10	1	-1E+10	1	-1E+10	1	-1E+10	1	-1E+10	1	-1E+10	1
4902551	57	C	03/09/2022	04:50	-132.241	49.794	0	1475.60	0	2.4610	0	34.4830	0	27.528	0	1457.815	0	20.2	4	6.2	4	-1E+10	1	-1E+10	1	-1E+10	1	-1E+10	1	-1E+10	1	-1E+10	1
4902551	57	C	03/09/2022	04:50	-132.241	49.794	0	1485.70	0	2.4510	0	34.4850	0	27.531	0	1467.759	0	20.8	4	6.3	4	-1E+10	1	-1E+10	1	-1E+10	1	-1E+10	1	-1E+10	1	-1E+10	1
4902551	57	C	03/09/2022	04:50	-132.241	49.794	0	1495.60	0	2.4390	0	34.4870	0	27.533	0	1477.504	0	21.3	4	6.5	4	-1E+10	1	-1E+10	1	-1E+10	1	-1E+10	1	-1E+10	1	-1E+10	1
4902551	57	C	03/09/2022	04:50	-132.241	49.794	0	1505.40	0	2.4270	0	34.4890	0	27.536	0	1487.151	0	21.8	4	6.6	4	-1E+10	1	-1E+10	1	-1E+10	1	-1E+10	1	-1E+10	1	-1E+10	1
4902551	57	C	03/09/2022	04:50	-132.241	49.794	0	1515.30	0	2.4160	0	34.4920	0	27.539	0	1496.896	0	22.2	4	6.7	4	-1E+10	1	-1E+10	1	-1E+10	1	-1E+10	1	-1E+10	1	-1E+10	1
4902551	57	C	03/09/2022	04:50	-132.241	49.794	0	1525.20	0	2.4080	0	34.4930	0	27.541	0	1506.641	0	22.6	4	6.9	4	-1E+10	1	-1E+10	1	-1E+10	1	-1E+10	1	-1E+10	1	-1E+10	1
4902551	57	C	03/09/2022	04:50	-132.241	49.794	0	1535.20	0	2.3970	0	34.4960	0	27.544	0	1516.483	0	23.0	4	7.0	4	-1E+10	1	-1E+10	1	-1E+10	1	-1E+10	1	-1E+10	1	-1E+10	1
4902551	57	C	03/09/2022	04:50	-132.241	49.794	0	1545.50	0	2.3910	0	34.4970	0	27.546	0	1526.621	0	23.4	4	7.1	4	-1E+10	1	-1E+10	1	-1E+10	1	-1E+10	1	-1E+10	1	-1E+10	1
4902551	57	C	03/09/2022	04:50	-132.241	49.794	0	1555.60	0	2.3760	0	34.5000	0	27.549	0	1536.561	0	23.8	4	7.2	4	-1E+10	1	-1E+10	1	-1E+10	1	-1E+10	1	-1E+10	1	-1E+10	1
4902551	57	C	03/09/2022	04:50	-132.241	49.794	0	1565.40	0	2.3710	0	34.5010	0	27.551	0	1546.205	0	24.0	4	7.3	4	-1E+10	1	-1E+10	1	-1E+10	1	-1E+10	1	-1E+10	1	-1E+10	1
4902551	57	C	03/09/2022	04:50	-132.241	49.794	0	1575.30	0	2.3680	0	34.5010	0	27.551	0	1555.947	0	24.4	4	7.4	4	-1E+10	1	-1E+10	1	-1E+10	1	-1E+10	1	-1E+10	1	-1E+10	1
4902551	57	C	03/09/2022	04:50	-132.241	49.794	0	1585.30	0	2.3580	0	34.5030	0	27.553	0	1565.787	0	24.8	4	7.5	4	-1E+10	1	-1E+10	1	-1E+10	1	-1E+10	1	-1E+10	1	-1E+10	1
4902551	57	C	03/09/2022	04:50	-132.241	49.794	0	1595.50	0	2.3530	0	34.5050	0	27.555	0	1575.824	0	25.0	4	7.6	4	-1E+10	1	-1E+10	1	-1E+10	1	-1E+10	1	-1E+10	1	-1E+10	1
4902551	57	C	03/09/2022	04:50	-132.241	49.794	0	1605.60	0	2.3480	0	34.5050	0	27.556	0	1585.761	0	25.5	4	7.8	4	-1E+10	1	-1E+10	1	-1E+10	1	-1E+10	1	-1E+10	1	-1E+10	1
4902551	57	C	03/09/2022	04:50	-132.241	49.794	0	1615.30	0	2.3380	0	34.5070	0	27.558	0	1595.305	0	26.1	4	7.9	4	-1E+10	1	-1E+10	1	-1E+10	1	-1E+10	1	-1E+10	1	-1E+10	1
4902551	57	C	03/09/2022	04:50	-132.241	49.794	0	1625.10	0	2.3230	0	34.5100	0	27.562	0	1604.947	0	27.0	4	8.2	4	-1E+10	1	-1E+10	1	-1E+10	1	-1E+10	1	-1E+10	1	-1E+10	1
4902551	57	C	03/09/2022	04:50	-132.241	49.794	0	1635.20	0	2.3090	0	34.5130	0	27.566	0	1614.883	0	27.8	4	8.4	4	-1E+10	1	-1E+10	1	-1E+10	1	-1E+10	1	-1E+10	1	-1E+10	1
4902551	57	C	03/09/2022	04:50	-132.241	49.794	0	1645.10	0	2.2920	0	34.5160	0	27.569	0	1624.622	0	28.8	4	8.7	4	-1E+10	1	-1E+10	1	-1E+10	1	-1E+10	1	-1E+10	1	-1E+10	1
4902551	57	C	03/09/2022	04:50	-132.241	49.794	0	1655.20	0	2.2830	0	34.5180	0	27.572	0	1634.557	0	29.5	4	8.9	4	-1E+10	1	-1E+10	1	-1E+10	1	-1E+10	1	-1E+10	1	-1E+10	1
4902551	57	C	03/09/2022	04:50	-132.241	49.794	0	1665.20	0	2.2670	0	34.5210	0	27.576	0	1644.394	0	30.2	4	9.2	4	-1E+10	1	-1E+10	1	-1E+10	1	-1E+10	1	-1E+10	1	-1E+10	1
4902551	57	C	03/09/2022	04:50	-132.241	49.794	0	1675.20	0	2.2580	0	34.5230	0	27.578	0	1654.230	0	30.5	4	9.3	4	-1E+10	1	-1E+10	1	-1E+10	1	-1E+10	1	-1E+10	1	-1E+10	1
4902551	57	C	03/09/2022	04:50	-132.241	49.794	0	1685.20	0	2.2450	0	34.5250	0	27.581	0	1664.065	0	31.2	4	9.4	4	-1E+10	1	-1E+10	1	-1E+10	1	-1E+10	1	-1E+10	1	-1E+10	1
4902551	57	C	03/09/2022	04:50	-132.241	49.794	0	1695.50	0	2.2340	0	34.5270	0	27.583	0	1674.196	0	31.7	4	9.6	4	-1E+10	1	-1E+10	1	-1E+10	1	-1E+10	1	-1E+10	1	-1E+10	1
4902551	57	C	03/09/2022	04:50	-132.241	49.794	0	1705.80	0	2.2280	0	34.5280	0	27.585	0	1684.325	0	32.2	4	9.7	4	-1E+10	1	-1E+10	1	-1E+10	1	-1E+10	1	-1E+10	1	-1E+10	1
4902551	57	C	03/09/2022	04:50	-132.241	49.794	0	1715.60	0	2.2180	0	34.5300	0	27.587	0	1693.963	0	32.9	4	10.0	4	-1E+10	1	-1E+10	1	-1E+10	1	-1E+10	1	-1E+10	1	-1E+10	1
4902551	57	C	03/09/2022	04:50	-132.241	49.794	0	1725.50	0	2.2070	0	34.5320	0	27.590	0	1703.698	0	33.5	4	10.1	4	-1E+10	1	-1E+10	1	-1E+10	1	-1E+10	1	-1E+10	1	-1E+10	1
4902551	57	C	03/09/2022	04:50	-132.241	49.794	0	1736.00	0	2.1960	0	34.5340	0	27.592	0	1714.023	0	34.1	4	10.3	4	-1E+10	1	-1E+10	1	-1E+10	1	-1E+10	1	-1E+10	1	-1E+10	1
4902551	57	C	03/09/2022	04:50	-132.241	49.794	0	1745.40	0	2.1870	0	34.5360	0	27.594	0	1723.266	0	34.7	4	10.5	4	-1E+10	1	-1E+10	1	-1E+10	1	-1E+10	1	-1E+10	1	-1E+10	1
4902551	57	C	03/09/2022	04:50	-132.241	49.794	0	1755.10	0	2.1750	0	34.5380	0	27.597	0	1732.803	0	35.3	4	10.7	4	-1E+10	1	-1E+10	1	-1E+10	1	-1E+10	1	-1E+10	1	-1E+10	1
4902551	57	C	03/09/2022	04:50	-132.241	49.794	0	1765.40	0	2.1680	0	34.5390	0	27.599	0	1742.930	0	35.8	4	10.8	4	-1E+10	1	-1E+10	1	-1E+10	1	-1E+10	1	-1E+10	1	-1E+10	1
4902551	57	C	03/09/2022	04:50	-132.241	49.794	0	1775.70	0	2.1600	0	34.5410	0	27.601	0	1753.057	0	36.5	4	11.1	4	-1E+10	1	-1E+10	1	-1E+10	1	-1E+10	1	-1E+10	1	-1E+10	1
4902551	57	C	03/09/2022	04:50	-132.241	49.794	0	1785.80	0	2.1480	0	34.5430	0	27.603	0	1762.986	0	37.4	4	11.3	4	-1E+10	1	-1E+10	1	-1E+10	1	-1E+10	1	-1E+10	1	-1E+10	1
4902551	57	C	03/09/2022	04:50	-132.241	49.794	0	1795.30	0	2.1340	0	34.5460	0	27.607	0	1772.325	0	38.2	4	11.5	4	-1E+10	1	-1E+10	1	-1E+10	1	-1E+10	1	-1E+10	1	-1E+10	1
4902551	57	C	03/09/2022	04:50	-132.241	49.794	0	1805.00	0	2.1260	0	34.5470	0	27.608	0	1781.860	0	38.6	4	11.7	4	-1E+10	1	-1E+10	1	-1E+10	1	-1E+10	1	-1E+10	1	-1E+10	1
4902551	57	C	03/09/2022	04:50	-132.241	49.794	0	1815.20	0	2.1230	0	34.5480	0	27.610	0	1791.886	0	39.2	4	11.8	4	-1E+10	1	-1E+10	1	-1E+10	1	-1E+10	1	-1E+10	1	-1E+10	1
4902551	57	C	03/09/2022	04:50	-132.241	49.794	0	1825.60	0	2.1100	0	34.5500	0	27.612	0	1802.109	0	40.1	4	12.1	4	-1E+10	1	-1E+10	1	-1E+10	1	-1E+10	1	-1E+10	1	-1E+10	1
4902551	57	C	03/09/2022	04:50	-132.241	49.794	0	1835.60	0	2.0990	0	34.5520	0	27.615	0	1811.938	0	40.8	4	12.3	4	-1E+10	1	-1E+10	1	-1E+10	1	-1E+10	1	-1E+10	1	-1E+10	1
4902551	57	C	03/09/2022	04:50	-132.241	49.794	0	1845.30	0	2.0900	0	34.5540	0	27.617	0	1821.471	0	41.6	4	12.6	4	-1E+10	1	-1E+10	1	-1E+10	1	-1E+10	1	-1E+10	1	-1E+10	1
4902551	57	C	03/09/2022	04:50	-132.241	49.794	0	1855.30	0	2.0770	0	34.5570	0	27.621	0	1831.299	0	42.5	4	12.8	4	-1E+10	1	-1E+10	1	-1E+10	1	-1E+10	1	-1E+10	1	-1E+10	1
4902551	57	C	03/09/2022	04:50	-132.241	49.794	0	1865.50	0	2.0690	0	34.5580	0	27.622	0	1841.323	0	43.2	4	13.0	4	-1E+10	1	-1E+10	1	-1E+10	1	-1E+10	1	-1E+10	1	-1E+10	1
4902551	57	C	03/09/2022	04:50	-132.241	49.794	0	1875.30	0	2.0600	0	34.5600	0	27.624	0	1850.953	0	43.9	4	13.2	4	-1E+10	1	-1E+10	1	-1E+10	1	-1E+10	1	-1E+10	1	-1E+10	1
4902551	57	C	03/09/2022	04:50	-132.241	49.794	0	1885.50	0	2.0520	0	34.5610	0	27.626	0	1860.976	0	44.5	4	13.4	4	-1E+10	1	-1E+10	1	-1E+10	1	-1E+10	1	-1E+10	1	-1E+10	1
4902551	57	C	03/09/2022	04:50	-132.241	49.794	0	1895.90	0	2.0440	0	34.5630	0	27.628	0	1871.195	0	45.2	4	13.6	4	-1E+10	1	-1E+10	1	-1E+10	1	-1E+10	1	-1E+10	1	-1E+10	1
4902551	57	C	03/09/2022	04:50	-132.241	49.794	0	1905.40	0	2.0350	0	34.5650	0	27.631	0	1880.529	0	45.8	4	13.8	4	-1E+10	1	-1E+10	1	-1E+10	1	-1E+10	1	-1E+10	1	-1E+10	1
4902551	57	C	03/09/2022	04:50	-132.241	49.794	0	1915.30	0	2.0290	0	34.5660	0	27.632	0	1890.256	0	46.2	4	13.9	4	-1E+10	1	-1E+10	1	-1E+10	1	-1E+10	1	-1E+10	1	-1E+10	1
4902551	57	C	03/09/2022	04:50	-132.241	49.794	0	1925.30	0	2.0250	0	34.5670	0	27.633	0	1900.081	0	46.7	4	14.1	4	-1E+10	1	-1E+10	1	-1E+10	1	-1E+10	1	-1E+10	1	-1E+10	1
4902551	57	C	03/09/2022	04:50	-132.241	49.794	0	1935.30	0	2.0200	0	34.5680	0	27.634	0	1909.905	0	47.3	4	14.3	4	-1E+10	1	-1E+10	1	-1E+10	1	-1E+10	1	-1E+10	1	-1E+10	1
4902551	57	C	03/09/2022	04:50	-132.241	49.794	0	1945.20	0	2.0100	0	34.5700	0	27.637	0	1919.630	0	48.0	4	14.5	4	-1E+10	1	-1E+10	1	-1E+10	1	-1E+10	1	-1E+10	1	-1E+10	1
4902551	57	C	03/09/2022	04:50	-132.241	49.794	0	1955.30	0	2.0030	0	34.5710	0	27.638	0	1929.552	0	48.5	4	14.6	4	-1E+10	1	-1E+10	1	-1E+10	1	-1E+10	1	-1E+10	1	-1E+10	1
4902551	57	C	03/09/2022	04:50	-132.241	49.794	0	1965.30	0	1.9980	0	34.5720	0	27.639	0	1939.375	0	49.0	4	14.8	4	-1E+10	1	-1E+10	1	-1E+10	1	-1E+10	1	-1E+10	1	-1E+10	1
4902551	57	C	03/09/2022	04:50	-132.241	49.794	0	1975.50	0	1.9920	0	34.5730	0	27.641	0	1949.394	0	49.7	4	15.0	4	-1E+10	1	-1E+10	1	-1E+10	1	-1E+10	1	-1E+10	1	-1E+10	1
4902551	57	C	03/09/2022	04:50	-132.241	49.794	0	1985.10	0	1.9830	0	34.5750	0	27.643	0	1958.823	0	50.3	4	15.2	4	-1E+10	1	-1E+10	1	-1E+10	1	-1E+10	1	-1E+10	1	-1E+10	1
4902551	57	C	03/09/2022	04:50	-132.241	49.794	0	1995.40	0	1.9770	0	34.5760	0	27.644	0	1968.939	0	50.8	4	15.3	4	-1E+10	1	-1E+10	1	-1E+10	1	-1E+10	1	-1E+10	1	-1E+10	1
4902551	57	C	03/09/2022	04:50	-132.241	49.794	0	2005.40	0	1.9700	0	34.5770	0	27.646	0	1978.760	0	51.4	4	15.5	4	-1E+10	1	-1E+10	1	-1E+10	1	-1E+10	1	-1E+10	1	-1E+10	1
4902551	57	C	03/09/2022	04:50	-132.241	49.794	0	2015.40	0	1.9620	0	34.5790	0	27.648	0	1988.580	0	52.0	4	15.7	4	-1E+10	1	-1E+10	1	-1E+10	1	-1E+10	1	-1E+10	1	-1E+10	1
4902551	57	C	03/09/2022	04:50	-132.241	49.794	0	2023.30	0	1.9560	0	34.5800	0	27.649	0	1996.338	0	52.1	4	15.7	4	-1E+10	1	-1E+10	1	-1E+10	1	-1E+10	1	-1E+10	1	-1E+10	1
4902551	57	C	03/09/2022	04:50	-132.241	49.794	0																										
4902551	58	C	03/19/2022	06:37	-132.128	49.877	0	0.30	0	7.3110	0	32.3260	0	25.271	0	0.297	0	283.2	4	95.3	4	-1E+10	1	-1E+10	1	-1E+10	1	-1E+10	1	-1E+10	1	-1E+10	1
4902551	58	C	03/19/2022	06:37	-132.128	49.877	0	0.50	0	7.3127	0	32.3242	0	25.270	0	0.496	0	-1e10	1	-1e10	1	-1E+10	1	-1E+10	1	-1E+10	1	-1E+10	1	-1E+10	1	-1E+10	1
4902551	58	C	03/19/2022	06:37	-132.128	49.877	0	0.60	0	7.3136	0	32.3234	0	25.269	0	0.595	0	-1e10	1	-1e10	1	-1E+10	1	-1E+10	1	-1E+10	1	-1E+10	1	-1E+10	1	-1E+10	1
4902551	58	C	03/19/2022	06:37	-132.128	49.877	0	0.70	0	7.3145	0	32.3225	0	25.268	0	0.694	0	-1e10	1	-1e10	1	-1E+10	1	-1E+10	1	-1E+10	1	-1E+10	1	-1E+10	1	-1E+10	1
4902551	58	C	03/19/2022	06:37	-132.128	49.877	0	1.10	0	7.3180	0	32.3190	0	25.265	0	1.091	0	283.3	4	95.3	4	-1E+10	1	-1E+10	1	-1E+10	1	-1E+10	1	-1E+10	1	-1E+10	1
4902551	58	C	03/19/2022	06:37	-132.128	49.877	0	2.10	0	7.3170	0	32.3190	0	25.265	0	2.082	0	283.2	4	95.3	4	-1E+10	1	-1E+10	1	-1E+10	1	-1E+10	1	-1E+10	1	-1E+10	1
4902551	58	C	03/19/2022	06:37	-132.128	49.877	0	3.00	0	7.3180	0	32.3190	0	25.265	0	2.974	0	283.2	4	95.3	4	-1E+10	1	-1E+10	1	-1E+10	1	-1E+10	1	-1E+10	1	-1E+10	1
4902551	58	C	03/19/2022	06:37	-132.128	49.877	0	4.10	0	7.3190	0	32.3200	0	25.265	0	4.065	0	283.1	4	95.3	4	-1E+10	1	-1E+10	1	-1E+10	1	-1E+10	1	-1E+10	1	-1E+10	1
4902551	58	C	03/19/2022	06:37	-132.128	49.877	0	5.00	0	7.3170	0	32.3210	0	25.267	0	4.957	0	283.2	4	95.3	4	-1E+10	1	-1E+10	1	-1E+10	1	-1E+10	1	-1E+10	1	-1E+10	1
4902551	58	C	03/19/2022	06:37	-132.128	49.877	0	6.00	0	7.3170	0	32.3210	0	25.267	0	5.949	0	283.1	4	95.3	4	-1E+10	1	-1E+10	1	-1E+10	1	-1E+10	1	-1E+10	1	-1E+10	1
4902551	58	C	03/19/2022	06:37	-132.128	49.877	0	7.00	0	7.3190	0	32.3190	0	25.265	0	6.940	0	283.1	4	95.3	4	-1E+10	1	-1E+10	1	-1E+10	1	-1E+10	1	-1E+10	1	-1E+10	1
4902551	58	C	03/19/2022	06:37	-132.128	49.877	0	7.90	0	7.3180	0	32.3190	0	25.265	0	7.832	0	283.1	4	95.3	4	-1E+10	1	-1E+10	1	-1E+10	1	-1E+10	1	-1E+10	1	-1E+10	1
4902551	58	C	03/19/2022	06:37	-132.128	49.877	0	9.10	0	7.3190	0	32.3200	0	25.266	0	9.022	0	283.1	4	95.3	4	-1E+10	1	-1E+10	1	-1E+10	1	-1E+10	1	-1E+10	1	-1E+10	1
4902551	58	C	03/19/2022	06:37	-132.128	49.877	0	9.80	0	7.3180	0	32.3190	0	25.265	0	9.716	0	283.0	4	95.3	4	-1E+10	1	-1E+10	1	-1E+10	1	-1E+10	1	-1E+10	1	-1E+10	1
4902551	58	C	03/19/2022	06:37	-132.128	49.877	0	10.80	0	7.3210	0	32.3200	0	25.265	0	10.707	0	283.1	4	95.3	4	-1E+10	1	-1E+10	1	-1E+10	1	-1E+10	1	-1E+10	1	-1E+10	1
4902551	58	C	03/19/2022	06:37	-132.128	49.877	0	11.70	0	7.3180	0	32.3190	0	25.265	0	11.599	0	283.0	4	95.2	4	-1E+10	1	-1E+10	1	-1E+10	1	-1E+10	1	-1E+10	1	-1E+10	1
4902551	58	C	03/19/2022	06:37	-132.128	49.877	0	12.80	0	7.3180	0	32.3190	0	25.265	0	12.690	0	283.0	4	95.2	4	-1E+10	1	-1E+10	1	-1E+10	1	-1E+10	1	-1E+10	1	-1E+10	1
4902551	58	C	03/19/2022	06:37	-132.128	49.877	0	13.80	0	7.3200	0	32.3190	0	25.265	0	13.681	0	283.0	4	95.2	4	-1E+10	1	-1E+10	1	-1E+10	1	-1E+10	1	-1E+10	1	-1E+10	1
4902551	58	C	03/19/2022	06:37	-132.128	49.877	0	14.80	0	7.3200	0	32.3190	0	25.265	0	14.673	0	283.0	4	95.2	4	-1E+10	1	-1E+10	1	-1E+10	1	-1E+10	1	-1E+10	1	-1E+10	1
4902551	58	C	03/19/2022	06:37	-132.128	49.877	0	15.80	0	7.3190	0	32.3190	0	25.265	0	15.664	0	282.9	4	95.2	4	-1E+10	1	-1E+10	1	-1E+10	1	-1E+10	1	-1E+10	1	-1E+10	1
4902551	58	C	03/19/2022	06:37	-132.128	49.877	0	16.80	0	7.3180	0	32.3190	0	25.265	0	16.655	0	282.9	4	95.2	4	-1E+10	1	-1E+10	1	-1E+10	1	-1E+10	1	-1E+10	1	-1E+10	1
4902551	58	C	03/19/2022	06:37	-132.128	49.877	0	17.80	0	7.3190	0	32.3190	0	25.265	0	17.647	0	282.9	4	95.2	4	-1E+10	1	-1E+10	1	-1E+10	1	-1E+10	1	-1E+10	1	-1E+10	1
4902551	58	C	03/19/2022	06:37	-132.128	49.877	0	18.80	0	7.3180	0	32.3190	0	25.265	0	18.638	0	282.9	4	95.2	4	-1E+10	1	-1E+10	1	-1E+10	1	-1E+10	1	-1E+10	1	-1E+10	1
4902551	58	C	03/19/2022	06:37	-132.128	49.877	0	19.80	0	7.3170	0	32.3200	0	25.266	0	19.630	0	282.9	4	95.2	4	-1E+10	1	-1E+10	1	-1E+10	1	-1E+10	1	-1E+10	1	-1E+10	1
4902551	58	C	03/19/2022	06:37	-132.128	49.877	0	20.80	0	7.3120	0	32.3190	0	25.266	0	20.621	0	282.8	4	95.2	4	-1E+10	1	-1E+10	1	-1E+10	1	-1E+10	1	-1E+10	1	-1E+10	1
4902551	58	C	03/19/2022	06:37	-132.128	49.877	0	21.80	0	7.3120	0	32.3190	0	25.266	0	21.612	0	282.8	4	95.2	4	-1E+10	1	-1E+10	1	-1E+10	1	-1E+10	1	-1E+10	1	-1E+10	1
4902551	58	C	03/19/2022	06:37	-132.128	49.877	0	22.80	0	7.3150	0	32.3190	0	25.265	0	22.604	0	282.8	4	95.2	4	-1E+10	1	-1E+10	1	-1E+10	1	-1E+10	1	-1E+10	1	-1E+10	1
4902551	58	C	03/19/2022	06:37	-132.128	49.877	0	24.00	0	7.3080	0	32.3220	0	25.269	0	23.793	0	282.7	4	95.1	4	-1E+10	1	-1E+10	1	-1E+10	1	-1E+10	1	-1E+10	1	-1E+10	1
4902551	58	C	03/19/2022	06:37	-132.128	49.877	0	24.70	0	7.3070	0	32.3190	0	25.267	0	24.487	0	282.8	4	95.1	4	-1E+10	1	-1E+10	1	-1E+10	1	-1E+10	1	-1E+10	1	-1E+10	1
4902551	58	C	03/19/2022	06:37	-132.128	49.877	0	26.00	0	7.3070	0	32.3190	0	25.267	0	25.776	0	282.7	4	95.1	4	-1E+10	1	-1E+10	1	-1E+10	1	-1E+10	1	-1E+10	1	-1E+10	1
4902551	58	C	03/19/2022	06:37	-132.128	49.877	0	26.70	0	7.3070	0	32.3190	0	25.267	0	26.470	0	282.7	4	95.1	4	-1E+10	1	-1E+10	1	-1E+10	1	-1E+10	1	-1E+10	1	-1E+10	1
4902551	58	C	03/19/2022	06:37	-132.128	49.877	0	27.70	0	7.3070	0	32.3190	0	25.267	0	27.461	0	282.7	4	95.1	4	-1E+10	1	-1E+10	1	-1E+10	1	-1E+10	1	-1E+10	1	-1E+10	1
4902551	58	C	03/19/2022	06:37	-132.128	49.877	0	28.70	0	7.3070	0	32.3190	0	25.267	0	28.452	0	282.7	4	95.1	4	-1E+10	1	-1E+10	1	-1E+10	1	-1E+10	1	-1E+10	1	-1E+10	1
4902551	58	C	03/19/2022	06:37	-132.128	49.877	0	29.70	0	7.3060	0	32.3190	0	25.267	0	29.444	0	282.7	4	95.1	4	-1E+10	1	-1E+10	1	-1E+10	1	-1E+10	1	-1E+10	1	-1E+10	1
4902551	58	C	03/19/2022	06:37	-132.128	49.877	0	31.10	0	7.3060	0	32.3190	0	25.267	0	30.831	0	282.6	4	95.1	4	-1E+10	1	-1E+10	1	-1E+10	1	-1E+10	1	-1E+10	1	-1E+10	1
4902551	58	C	03/19/2022	06:37	-132.128	49.877	0	32.10	0	7.3060	0	32.3180	0	25.266	0	31.823	0	282.6	4	95.1	4	-1E+10	1	-1E+10	1	-1E+10	1	-1E+10	1	-1E+10	1	-1E+10	1
4902551	58	C	03/19/2022	06:37	-132.128	49.877	0	33.40	0	7.3040	0	32.3190	0	25.267	0	33.111	0	282.6	4	95.1	4	-1E+10	1	-1E+10	1	-1E+10	1	-1E+10	1	-1E+10	1	-1E+10	1
4902551	58	C	03/19/2022	06:37	-132.128	49.877	0	34.10	0	7.3040	0	32.3190	0	25.267	0	33.805	0	282.6	4	95.1	4	-1E+10	1	-1E+10	1	-1E+10	1	-1E+10	1	-1E+10	1	-1E+10	1
4902551	58	C	03/19/2022	06:37	-132.128	49.877	0	35.40	0	7.3030	0	32.3190	0	25.267	0	35.094	0	282.5	4	95.1	4	-1E+10	1	-1E+10	1	-1E+10	1	-1E+10	1	-1E+10	1	-1E+10	1
4902551	58	C	03/19/2022	06:37	-132.128	49.877	0	36.30	0	7.3030	0	32.3190	0	25.267	0	35.986	0	282.5	4	95.0	4	-1E+10	1	-1E+10	1	-1E+10	1	-1E+10	1	-1E+10	1	-1E+10	1
4902551	58	C	03/19/2022	06:37	-132.128	49.877	0	37.10	0	7.3030	0	32.3190	0	25.267	0	36.779	0	282.5	4	95.1	4	-1E+10	1	-1E+10	1	-1E+10	1	-1E+10	1	-1E+10	1	-1E+10	1
4902551	58	C	03/19/2022	06:37	-132.128	49.877	0	38.10	0	7.3030	0	32.3190	0	25.267	0	37.770	0	282.5	4	95.0	4	-1E+10	1	-1E+10	1	-1E+10	1	-1E+10	1	-1E+10	1	-1E+10	1
4902551	58	C	03/19/2022	06:37	-132.128	49.877	0	39.00	0	7.3040	0	32.3190	0	25.267	0	38.662	0	282.5	4	95.1	4	-1E+10	1	-1E+10	1	-1E+10	1	-1E+10	1	-1E+10	1	-1E+10	1
4902551	58	C	03/19/2022	06:37	-132.128	49.877	0	39.70	0	7.3040	0	32.3190	0	25.267	0	39.356	0	282.4	4	95.0	4	-1E+10	1	-1E+10	1	-1E+10	1	-1E+10	1	-1E+10	1	-1E+10	1
4902551	58	C	03/19/2022	06:37	-132.128	49.877	0	40.70	0	7.3010	0	32.3200	0	25.268	0	40.348	0	282.4	4	95.0	4	-1E+10	1	-1E+10	1	-1E+10	1	-1E+10	1	-1E+10	1	-1E+10	1
4902551	58	C	03/19/2022	06:37	-132.128	49.877	0	41.80	0	7.3020	0	32.3200	0	25.268	0	41.438	0	282.3	4	95.0	4	-1E+10	1	-1E+10	1	-1E+10	1	-1E+10	1	-1E+10	1	-1E+10	1
4902551	58	C	03/19/2022	06:37	-132.128	49.877	0	42.80	0	7.2980	0	32.3200	0	25.269	0	42.429	0	282.4	4	95.0	4	-1E+10	1	-1E+10	1	-1E+10	1	-1E+10	1	-1E+10	1	-1E+10	1
4902551	58	C	03/19/2022	06:37	-132.128	49.877	0	43.80	0	7.2980	0	32.3190	0	25.268	0	43.420	0	282.3	4	95.0	4	-1E+10	1	-1E+10	1	-1E+10	1	-1E+10	1	-1E+10	1	-1E+10	1
4902551	58	C	03/19/2022	06:37	-132.128	49.877	0	44.90	0	7.2980	0	32.3190	0	25.268	0	44.511	0	282.2	4	94.9	4	-1E+10	1	-1E+10	1	-1E+10	1	-1E+10	1	-1E+10	1	-1E+10	1
4902551	58	C	03/19/2022	06:37	-132.128	49.877	0	45.90	0	7.2980	0	32.3190	0	25.268	0	45.502	0	282.1	4	94.9	4	-1E+10	1	-1E+10	1	-1E+10	1	-1E+10	1	-1E+10	1	-1E+10	1
4902551	58	C	03/19/2022	06:37	-132.128	49.877	0	46.90	0	7.2940	0	32.3200	0	25.269	0	46.493	0	282.1	4	94.9	4	-1E+10	1	-1E+10	1	-1E+10	1	-1E+10	1	-1E+10	1	-1E+10	1
4902551	58	C	03/19/2022	06:37	-132.128	49.877	0	47.90	0	7.2910	0	32.3200	0	25.270	0	47.484	0	282.1	4	94.9	4	-1E+10	1	-1E+10	1	-1E+10	1	-1E+10	1	-1E+10	1	-1E+10	1
4902551	58	C	03/19/2022	06:37	-132.128	49.877	0	48.80	0	7.2890	0	32.3190	0	25.269	0	48.376	0	282.1	4	94.9	4	-1E+10	1	-1E+10	1	-1E+10	1	-1E+10	1	-1E+10	1	-1E+10	1
4902551	58	C	03/19/2022	06:37	-132.128	49.877	0	49.80	0	7.2850	0	32.3190	0	25.270	0	49.368	0	281.9	4	94.8	4	-1E+10	1	-1E+10	1	-1E+10	1	-1E+10	1	-1E+10	1	-1E+10	1
4902551	58	C	03/19/2022	06:37	-132.128	49.877	0	50.80	0	7.2810	0	32.3200	0	25.271	0	50.359	0	281.9	4	94.8	4	-1E+10	1	-1E+10	1	-1E+10	1	-1E+10	1	-1E+10	1	-1E+10	1
4902551	58	C	03/19/2022	06:37	-132.128	49.877	0	51.70	0	7.2750	0	32.3200	0	25.272	0	51.251	0	281.8	4	94.7	4	-1E+10	1	-1E+10	1	-1E+10	1	-1E+10	1	-1E+10	1	-1E+10	1
4902551	58	C	03/19/2022	06:37	-132.128	49.877	0	53.10	0	7.2590	0	32.3210	0	25.275	0	52.639	0	281.8	4	94.7	4	-1E+10	1	-1E+10	1	-1E+10	1	-1E+10	1	-1E+10	1	-1E+10	1
4902551	58	C	03/19/2022	06:37	-132.128	49.877	0	54.00	0	7.2520	0	32.3210	0	25.276	0	53.531	0	281.7	4	94.7	4	-1E+10	1	-1E+10	1	-1E+10	1	-1E+10	1	-1E+10	1	-1E+10	1
4902551	58	C	03/19/2022	06:37	-132.128	49.877	0	55.20	0	7.2430	0	32.3210	0	25.277	0	54.720	0	281.6	4	94.6	4	-1E+10	1	-1E+10	1	-1E+10	1	-1E+10	1	-1E+10	1	-1E+10	1
4902551	58	C	03/19/2022	06:37	-132.128	49.877	0	55.90	0	7.2250	0	32.3220	0	25.280	0	55.414	0	281.5	4	94.6	4	-1E+10	1	-1E+10	1	-1E+10	1	-1E+10	1	-1E+10	1	-1E+10	1
4902551	58	C	03/19/2022	06:37	-132.128	49.877	0	57.00	0	7.2030	0	32.3220	0	25.283	0	56.504	0	281.4	4	94.5	4	-1E+10	1	-1E+10	1	-1E+10	1	-1E+10	1	-1E+10	1	-1E+10	1
4902551	58	C	03/19/2022	06:37	-132.128	49.877	0	58.00	0	7.1630	0	32.3250	0	25.291	0	57.495	0	281.3	4	94.4	4	-1E+10	1	-1E+10	1	-1E+10	1	-1E+10	1	-1E+10	1	-1E+10	1
4902551	58	C	03/19/2022	06:37	-132.128	49.877	0	58.90	0	7.1580	0	32.3250	0	25.292	0	58.387	0	281.2	4	94.3	4	-1E+10	1	-1E+10	1	-1E+10	1	-1E+10	1	-1E+10	1	-1E+10	1
4902551	58	C	03/19/2022	06:37	-132.128	49.877	0	60.10	0	7.1550	0	32.3260	0	25.293	0	59.577	0	280.9	4	94.2	4	-1E+10	1	-1E+10	1	-1E+10	1	-1E+10	1	-1E+10	1	-1E+10	1
4902551	58	C	03/19/2022	06:37	-132.128	49.877	0	61.10	0	7.1530	0	32.3270	0	25.294	0	60.568	0	280.8	4	94.2	4	-1E+10	1	-1E+10	1	-1E+10	1	-1E+10	1	-1E+10	1	-1E+10	1
4902551	58	C	03/19/2022	06:37	-132.128	49.877	0	62.10	0	7.1520	0	32.3280	0	25.295	0	61.559	0	280.5	4	94.1	4	-1E+10	1	-1E+10	1	-1E+10	1	-1E+10	1	-1E+10	1	-1E+10	1
4902551	58	C	03/19/2022	06:37	-132.128	49.877	0	63.00	0	7.1490	0	32.3310	0	25.298	0	62.451	0	280.5	4	94.1	4	-1E+10	1	-1E+10	1	-1E+10	1	-1E+10	1	-1E+10	1	-1E+10	1
4902551	58	C	03/19/2022	06:37	-132.128	49.877	0	64.20	0	7.1450	0	32.3320	0	25.299	0	63.640	0	280.2	4	94.0	4	-1E+10	1	-1E+10	1	-1E+10	1	-1E+10	1	-1E+10	1	-1E+10	1
4902551	58	C	03/19/2022	06:37	-132.128	49.877	0	65.00	0	7.1410	0	32.3330	0	25.301	0	64.433	0	280.2	4	93.9	4	-1E+10	1	-1E+10	1	-1E+10	1	-1E+10	1	-1E+10	1	-1E+10	1
4902551	58	C	03/19/2022	06:37	-132.128	49.877	0	66.00	0	7.1370	0	32.3330	0	25.301	0	65.424	0	280.0	4	93.9	4	-1E+10	1	-1E+10	1	-1E+10	1	-1E+10	1	-1E+10	1	-1E+10	1
4902551	58	C	03/19/2022	06:37	-132.128	49.877	0	67.00	0	7.1310	0	32.3340	0	25.303	0	66.416	0	279.9	4	93.8	4	-1E+10	1	-1E+10	1	-1E+10	1	-1E+10	1	-1E+10	1	-1E+10	1
4902551	58	C	03/19/2022	06:37	-132.128	49.877	0	68.10	0	7.1210	0	32.3350	0	25.305	0	67.506	0	279.8	4	93.8	4	-1E+10	1	-1E+10	1	-1E+10	1	-1E+10	1	-1E+10	1	-1E+10	1
4902551	58	C	03/19/2022	06:37	-132.128	49.877	0	69.10	0	7.1130	0	32.3350	0	25.306	0	68.497	0	279.7	4	93.7	4	-1E+10	1	-1E+10	1	-1E+10	1	-1E+10	1	-1E+10	1	-1E+10	1
4902551	58	C	03/19/2022	06:37	-132.128	49.877	0	70.00	0	7.1100	0	32.3350	0	25.306	0	69.389	0	279.5	4	93.6	4	-1E+10	1	-1E+10	1	-1E+10	1	-1E+10	1	-1E+10	1	-1E+10	1
4902551	58	C	03/19/2022	06:37	-132.128	49.877	0	70.80	0	7.0990	0	32.3350	0	25.308	0	70.182	0	279.4	4	93.6	4	-1E+10	1	-1E+10	1	-1E+10	1	-1E+10	1	-1E+10	1	-1E+10	1
4902551	58	C	03/19/2022	06:37	-132.128	49.877	0	71.80	0	7.0770	0	32.3350	0	25.311	0	71.173	0	279.2	4	93.5	4	-1E+10	1	-1E+10	1	-1E+10	1	-1E+10	1	-1E+10	1	-1E+10	1
4902551	58	C	03/19/2022	06:37	-132.128	49.877	0	72.90	0	7.0660	0	32.3350	0	25.312	0	72.263	0	278.9	4	93.4	4	-1E+10	1	-1E+10	1	-1E+10	1	-1E+10	1	-1E+10	1	-1E+10	1
4902551	58	C	03/19/2022	06:37	-132.128	49.877	0	74.10	0	7.0570	0	32.3350	0	25.313	0	73.452	0	278.6	4	93.2	4	-1E+10	1	-1E+10	1	-1E+10	1	-1E+10	1	-1E+10	1	-1E+10	1
4902551	58	C	03/19/2022	06:37	-132.128	49.877	0	75.00	0	7.0500	0	32.3360	0	25.315	0	74.344	0	278.3	4	93.1	4	-1E+10	1	-1E+10	1	-1E+10	1	-1E+10	1	-1E+10	1	-1E+10	1
4902551	58	C	03/19/2022	06:37	-132.128	49.877	0	75.80	0	7.0460	0	32.3350	0	25.315	0	75.137	0	277.9	4	93.0	4	-1E+10	1	-1E+10	1	-1E+10	1	-1E+10	1	-1E+10	1	-1E+10	1
4902551	58	C	03/19/2022	06:37	-132.128	49.877	0	76.80	0	7.0400	0	32.3350	0	25.316	0	76.128	0	277.4	4	92.8	4	-1E+10	1	-1E+10	1	-1E+10	1	-1E+10	1	-1E+10	1	-1E+10	1
4902551	58	C	03/19/2022	06:37	-132.128	49.877	0	77.70	0	7.0330	0	32.3360	0	25.318	0	77.020	0	276.9	4	92.6	4	-1E+10	1	-1E+10	1	-1E+10	1	-1E+10	1	-1E+10	1	-1E+10	1
4902551	58	C	03/19/2022	06:37	-132.128	49.877	0	79.00	0	7.0300	0	32.3370	0	25.319	0	78.309	0	275.9	4	92.3	4	-1E+10	1	-1E+10	1	-1E+10	1	-1E+10	1	-1E+10	1	-1E+10	1
4902551	58	C	03/19/2022	06:37	-132.128	49.877	0	79.70	0	7.0290	0	32.3380	0	25.320	0	79.002	0	275.2	4	92.0	4	-1E+10	1	-1E+10	1	-1E+10	1	-1E+10	1	-1E+10	1	-1E+10	1
4902551	58	C	03/19/2022	06:37	-132.128	49.877	0	80.90	0	7.0210	0	32.3480	0	25.329	0	80.192	0	280.6	4	93.8	4	-1E+10	1	-1E+10	1	-1E+10	1	-1E+10	1	-1E+10	1	-1E+10	1
4902551	58	C	03/19/2022	06:37	-132.128	49.877	0	82.10	0	7.0090	0	32.3580	0	25.338	0	81.381	0	279.2	4	93.3	4	-1E+10	1	-1E+10	1	-1E+10	1	-1E+10	1	-1E+10	1	-1E+10	1
4902551	58	C	03/19/2022	06:37	-132.128	49.877	0	83.10	0	6.9740	0	32.3720	0	25.354	0	82.372	0	278.2	4	92.9	4	-1E+10	1	-1E+10	1	-1E+10	1	-1E+10	1	-1E+10	1	-1E+10	1
4902551	58	C	03/19/2022	06:37	-132.128	49.877	0	84.00	0	6.9600	0	32.3750	0	25.358	0	83.264	0	277.3	4	92.6	4	-1E+10	1	-1E+10	1	-1E+10	1	-1E+10	1	-1E+10	1	-1E+10	1
4902551	58	C	03/19/2022	06:37	-132.128	49.877	0	84.90	0	6.9430	0	32.3810	0	25.365	0	84.156	0	276.4	4	92.3	4	-1E+10	1	-1E+10	1	-1E+10	1	-1E+10	1	-1E+10	1	-1E+10	1
4902551	58	C	03/19/2022	06:37	-132.128	49.877	0	85.80	0	6.9160	0	32.3890	0	25.375	0	85.048	0	275.3	4	91.9	4	-1E+10	1	-1E+10	1	-1E+10	1	-1E+10	1	-1E+10	1	-1E+10	1
4902551	58	C	03/19/2022	06:37	-132.128	49.877	0	86.90	0	6.8950	0	32.3990	0	25.385	0	86.138	0	273.8	4	91.3	4	-1E+10	1	-1E+10	1	-1E+10	1	-1E+10	1	-1E+10	1	-1E+10	1
4902551	58	C	03/19/2022	06:37	-132.128	49.877	0	88.10	0	6.8880	0	32.4060	0	25.392	0	87.327	0	271.9	4	90.7	4	-1E+10	1	-1E+10	1	-1E+10	1	-1E+10	1	-1E+10	1	-1E+10	1
4902551	58	C	03/19/2022	06:37	-132.128	49.877	0	88.80	0	6.8710	0	32.4180	0	25.404	0	88.021	0	270.6	4	90.2	4	-1E+10	1	-1E+10	1	-1E+10	1	-1E+10	1	-1E+10	1	-1E+10	1
4902551	58	C	03/19/2022	06:37	-132.128	49.877	0	89.90	0	6.8510	0	32.4340	0	25.419	0	89.111	0	268.6	4	89.5	4	-1E+10	1	-1E+10	1	-1E+10	1	-1E+10	1	-1E+10	1	-1E+10	1
4902551	58	C	03/19/2022	06:37	-132.128	49.877	0	91.00	0	6.8170	0	32.4580	0	25.442	0	90.201	0	263.6	4	87.8	4	-1E+10	1	-1E+10	1	-1E+10	1	-1E+10	1	-1E+10	1	-1E+10	1
4902551	58	C	03/19/2022	06:37	-132.128	49.877	0	92.10	0	6.7830	0	32.4910	0	25.473	0	91.291	0	258.1	4	85.9	4	-1E+10	1	-1E+10	1	-1E+10	1	-1E+10	1	-1E+10	1	-1E+10	1
4902551	58	C	03/19/2022	06:37	-132.128	49.877	0	93.10	0	6.7460	0	32.5460	0	25.521	0	92.282	0	254.9	4	84.8	4	-1E+10	1	-1E+10	1	-1E+10	1	-1E+10	1	-1E+10	1	-1E+10	1
4902551	58	C	03/19/2022	06:37	-132.128	49.877	0	94.10	0	6.7510	0	32.5950	0	25.559	0	93.273	0	253.2	4	84.3	4	-1E+10	1	-1E+10	1	-1E+10	1	-1E+10	1	-1E+10	1	-1E+10	1
4902551	58	C	03/19/2022	06:37	-132.128	49.877	0	95.00	0	6.7530	0	32.5980	0	25.561	0	94.165	0	251.6	4	83.8	4	-1E+10	1	-1E+10	1	-1E+10	1	-1E+10	1	-1E+10	1	-1E+10	1
4902551	58	C	03/19/2022	06:37	-132.128	49.877	0	96.00	0	6.7530	0	32.6020	0	25.564	0	95.156	0	249.6	4	83.1	4	-1E+10	1	-1E+10	1	-1E+10	1	-1E+10	1	-1E+10	1	-1E+10	1
4902551	58	C	03/19/2022	06:37	-132.128	49.877	0	97.00	0	6.7580	0	32.6170	0	25.575	0	96.147	0	247.5	4	82.4	4	-1E+10	1	-1E+10	1	-1E+10	1	-1E+10	1	-1E+10	1	-1E+10	1
4902551	58	C	03/19/2022	06:37	-132.128	49.877	0	98.00	0	6.7650	0	32.6420	0	25.594	0	97.138	0	245.4	4	81.8	4	-1E+10	1	-1E+10	1	-1E+10	1	-1E+10	1	-1E+10	1	-1E+10	1
4902551	58	C	03/19/2022	06:37	-132.128	49.877	0	99.00	0	6.7710	0	32.6550	0	25.604	0	98.129	0	243.6	4	81.2	4	-1E+10	1	-1E+10	1	-1E+10	1	-1E+10	1	-1E+10	1	-1E+10	1
4902551	58	C	03/19/2022	06:37	-132.128	49.877	0	100.00	0	6.7690	0	32.6620	0	25.609	0	99.120	0	242.2	4	80.7	4	-1E+10	1	-1E+10	1	-1E+10	1	-1E+10	1	-1E+10	1	-1E+10	1
4902551	58	C	03/19/2022	06:37	-132.128	49.877	0	101.10	0	6.7680	0	32.6680	0	25.614	0	100.210	0	240.6	4	80.2	4	-1E+10	1	-1E+10	1	-1E+10	1	-1E+10	1	-1E+10	1	-1E+10	1
4902551	58	C	03/19/2022	06:37	-132.128	49.877	0	101.90	0	6.7690	0	32.6720	0	25.617	0	101.003	0	238.7	4	79.6	4	-1E+10	1	-1E+10	1	-1E+10	1	-1E+10	1	-1E+10	1	-1E+10	1
4902551	58	C	03/19/2022	06:37	-132.128	49.877	0	102.80	0	6.7690	0	32.6850	0	25.628	0	101.894	0	235.9	4	78.6	4	-1E+10	1	-1E+10	1	-1E+10	1	-1E+10	1	-1E+10	1	-1E+10	1
4902551	58	C	03/19/2022	06:37	-132.128	49.877	0	103.90	0	6.7570	0	32.7330	0	25.667	0	102.985	0	232.2	4	77.4	4	-1E+10	1	-1E+10	1	-1E+10	1	-1E+10	1	-1E+10	1	-1E+10	1
4902551	58	C	03/19/2022	06:37	-132.128	49.877	0	105.00	0	6.7290	0	32.7900	0	25.715	0	104.075	0	229.6	4	76.5	4	-1E+10	1	-1E+10	1	-1E+10	1	-1E+10	1	-1E+10	1	-1E+10	1
4902551	58	C	03/19/2022	06:37	-132.128	49.877	0	106.20	0	6.7080	0	32.8100	0	25.734	0	105.264	0	227.0	4	75.6	4	-1E+10	1	-1E+10	1	-1E+10	1	-1E+10	1	-1E+10	1	-1E+10	1
4902551	58	C	03/19/2022	06:37	-132.128	49.877	0	107.00	0	6.7020	0	32.8150	0	25.739	0	106.056	0	224.7	4	74.8	4	-1E+10	1	-1E+10	1	-1E+10	1	-1E+10	1	-1E+10	1	-1E+10	1
4902551	58	C	03/19/2022	06:37	-132.128	49.877	0	108.20	0	6.6920	0	32.8220	0	25.746	0	107.246	0	220.6	4	73.5	4	-1E+10	1	-1E+10	1	-1E+10	1	-1E+10	1	-1E+10	1	-1E+10	1
4902551	58	C	03/19/2022	06:37	-132.128	49.877	0	109.00	0	6.6740	0	32.8380	0	25.761	0	108.038	0	219.0	4	72.9	4	-1E+10	1	-1E+10	1	-1E+10	1	-1E+10	1	-1E+10	1	-1E+10	1
4902551	58	C	03/19/2022	06:37	-132.128	49.877	0	109.70	0	6.6480	0	32.8770	0	25.795	0	108.732	0	217.6	4	72.4	4	-1E+10	1	-1E+10	1	-1E+10	1	-1E+10	1	-1E+10	1	-1E+10	1
4902551	58	C	03/19/2022	06:37	-132.128	49.877	0	110.70	0	6.5790	0	32.9580	0	25.868	0	109.723	0	215.6	4	71.7	4	-1E+10	1	-1E+10	1	-1E+10	1	-1E+10	1	-1E+10	1	-1E+10	1
4902551	58	C	03/19/2022	06:37	-132.128	49.877	0	111.70	0	6.5680	0	32.9760	0	25.883	0	110.714	0	213.8	4	71.1	4	-1E+10	1	-1E+10	1	-1E+10	1	-1E+10	1	-1E+10	1	-1E+10	1
4902551	58	C	03/19/2022	06:37	-132.128	49.877	0	113.00	0	6.5600	0	33.0210	0	25.920	0	112.002	0	211.5	4	70.3	4	-1E+10	1	-1E+10	1	-1E+10	1	-1E+10	1	-1E+10	1	-1E+10	1
4902551	58	C	03/19/2022	06:37	-132.128	49.877	0	113.80	0	6.5550	0	33.0320	0	25.929	0	112.795	0	210.2	4	69.9	4	-1E+10	1	-1E+10	1	-1E+10	1	-1E+10	1	-1E+10	1	-1E+10	1
4902551	58	C	03/19/2022	06:37	-132.128	49.877	0	115.00	0	6.5460	0	33.0560	0	25.949	0	113.984	0	207.7	4	69.1	4	-1E+10	1	-1E+10	1	-1E+10	1	-1E+10	1	-1E+10	1	-1E+10	1
4902551	58	C	03/19/2022	06:37	-132.128	49.877	0	116.10	0	6.5420	0	33.0620	0	25.954	0	115.074	0	205.0	4	68.2	4	-1E+10	1	-1E+10	1	-1E+10	1	-1E+10	1	-1E+10	1	-1E+10	1
4902551	58	C	03/19/2022	06:37	-132.128	49.877	0	117.00	0	6.5240	0	33.0980	0	25.985	0	115.965	0	202.8	4	67.4	4	-1E+10	1	-1E+10	1	-1E+10	1	-1E+10	1	-1E+10	1	-1E+10	1
4902551	58	C	03/19/2022	06:37	-132.128	49.877	0	117.90	0	6.5160	0	33.1180	0	26.002	0	116.857	0	200.7	4	66.7	4	-1E+10	1	-1E+10	1	-1E+10	1	-1E+10	1	-1E+10	1	-1E+10	1
4902551	58	C	03/19/2022	06:37	-132.128	49.877	0	118.90	0	6.5010	0	33.1400	0	26.021	0	117.848	0	198.5	4	66.0	4	-1E+10	1	-1E+10	1	-1E+10	1	-1E+10	1	-1E+10	1	-1E+10	1
4902551	58	C	03/19/2022	06:37	-132.128	49.877	0	119.90	0	6.4860	0	33.1670	0	26.044	0	118.839	0	195.7	4	65.0	4	-1E+10	1	-1E+10	1	-1E+10	1	-1E+10	1	-1E+10	1	-1E+10	1
4902551	58	C	03/19/2022	06:37	-132.128	49.877	0	121.10	0	6.4750	0	33.1930	0	26.066	0	120.028	0	193.2	4	64.2	4	-1E+10	1	-1E+10	1	-1E+10	1	-1E+10	1	-1E+10	1	-1E+10	1
4902551	58	C	03/19/2022	06:37	-132.128	49.877	0	121.90	0	6.4630	0	33.2280	0	26.096	0	120.821	0	191.4	4	63.6	4	-1E+10	1	-1E+10	1	-1E+10	1	-1E+10	1	-1E+10	1	-1E+10	1
4902551	58	C	03/19/2022	06:37	-132.128	49.877	0	122.80	0	6.4570	0	33.2470	0	26.111	0	121.712	0	189.7	4	63.0	4	-1E+10	1	-1E+10	1	-1E+10	1	-1E+10	1	-1E+10	1	-1E+10	1
4902551	58	C	03/19/2022	06:37	-132.128	49.877	0	124.00	0	6.4190	0	33.2860	0	26.147	0	122.901	0	187.5	4	62.3	4	-1E+10	1	-1E+10	1	-1E+10	1	-1E+10	1	-1E+10	1	-1E+10	1
4902551	58	C	03/19/2022	06:37	-132.128	49.877	0	124.90	0	6.3800	0	33.3370	0	26.192	0	123.793	0	186.1	4	61.8	4	-1E+10	1	-1E+10	1	-1E+10	1	-1E+10	1	-1E+10	1	-1E+10	1
4902551	58	C	03/19/2022	06:37	-132.128	49.877	0	125.90	0	6.3820	0	33.3630	0	26.212	0	124.784	0	184.7	4	61.3	4	-1E+10	1	-1E+10	1	-1E+10	1	-1E+10	1	-1E+10	1	-1E+10	1
4902551	58	C	03/19/2022	06:37	-132.128	49.877	0	127.00	0	6.3930	0	33.3910	0	26.233	0	125.874	0	183.6	4	61.0	4	-1E+10	1	-1E+10	1	-1E+10	1	-1E+10	1	-1E+10	1	-1E+10	1
4902551	58	C	03/19/2022	06:37	-132.128	49.877	0	128.00	0	6.3930	0	33.4060	0	26.245	0	126.865	0	182.5	4	60.6	4	-1E+10	1	-1E+10	1	-1E+10	1	-1E+10	1	-1E+10	1	-1E+10	1
4902551	58	C	03/19/2022	06:37	-132.128	49.877	0	129.20	0	6.3930	0	33.4300	0	26.264	0	128.054	0	181.6	4	60.3	4	-1E+10	1	-1E+10	1	-1E+10	1	-1E+10	1	-1E+10	1	-1E+10	1
4902551	58	C	03/19/2022	06:37	-132.128	49.877	0	130.00	0	6.3930	0	33.4380	0	26.270	0	128.846	0	181.0	4	60.1	4	-1E+10	1	-1E+10	1	-1E+10	1	-1E+10	1	-1E+10	1	-1E+10	1
4902551	58	C	03/19/2022	06:37	-132.128	49.877	0	130.90	0	6.3920	0	33.4440	0	26.275	0	129.738	0	180.5	4	60.0	4	-1E+10	1	-1E+10	1	-1E+10	1	-1E+10	1	-1E+10	1	-1E+10	1
4902551	58	C	03/19/2022	06:37	-132.128	49.877	0	131.70	0	6.3900	0	33.4480	0	26.279	0	130.531	0	180.1	4	59.8	4	-1E+10	1	-1E+10	1	-1E+10	1	-1E+10	1	-1E+10	1	-1E+10	1
4902551	58	C	03/19/2022	06:37	-132.128	49.877	0	133.00	0	6.3880	0	33.4510	0	26.281	0	131.819	0	179.2	4	59.5	4	-1E+10	1	-1E+10	1	-1E+10	1	-1E+10	1	-1E+10	1	-1E+10	1
4902551	58	C	03/19/2022	06:37	-132.128	49.877	0	134.20	0	6.3870	0	33.4560	0	26.285	0	133.008	0	178.3	4	59.2	4	-1E+10	1	-1E+10	1	-1E+10	1	-1E+10	1	-1E+10	1	-1E+10	1
4902551	58	C	03/19/2022	06:37	-132.128	49.877	0	135.10	0	6.3860	0	33.4610	0	26.289	0	133.899	0	177.5	4	59.0	4	-1E+10	1	-1E+10	1	-1E+10	1	-1E+10	1	-1E+10	1	-1E+10	1
4902551	58	C	03/19/2022	06:37	-132.128	49.877	0	135.90	0	6.3850	0	33.4660	0	26.294	0	134.692	0	176.8	4	58.8	4	-1E+10	1	-1E+10	1	-1E+10	1	-1E+10	1	-1E+10	1	-1E+10	1
4902551	58	C	03/19/2022	06:37	-132.128	49.877	0	136.80	0	6.3830	0	33.4710	0	26.298	0	135.584	0	176.0	4	58.5	4	-1E+10	1	-1E+10	1	-1E+10	1	-1E+10	1	-1E+10	1	-1E+10	1
4902551	58	C	03/19/2022	06:37	-132.128	49.877	0	137.70	0	6.3830	0	33.4700	0	26.297	0	136.476	0	175.2	4	58.2	4	-1E+10	1	-1E+10	1	-1E+10	1	-1E+10	1	-1E+10	1	-1E+10	1
4902551	58	C	03/19/2022	06:37	-132.128	49.877	0	138.90	0	6.3820	0	33.4720	0	26.299	0	137.664	0	173.8	4	57.7	4	-1E+10	1	-1E+10	1	-1E+10	1	-1E+10	1	-1E+10	1	-1E+10	1
4902551	58	C	03/19/2022	06:37	-132.128	49.877	0	140.20	0	6.3800	0	33.4760	0	26.302	0	138.952	0	172.2	4	57.2	4	-1E+10	1	-1E+10	1	-1E+10	1	-1E+10	1	-1E+10	1	-1E+10	1
4902551	58	C	03/19/2022	06:37	-132.128	49.877	0	141.00	0	6.3720	0	33.4900	0	26.314	0	139.745	0	171.4	4	56.9	4	-1E+10	1	-1E+10	1	-1E+10	1	-1E+10	1	-1E+10	1	-1E+10	1
4902551	58	C	03/19/2022	06:37	-132.128	49.877	0	141.90	0	6.3640	0	33.5380	0	26.353	0	140.637	0	170.5	4	56.6	4	-1E+10	1	-1E+10	1	-1E+10	1	-1E+10	1	-1E+10	1	-1E+10	1
4902551	58	C	03/19/2022	06:37	-132.128	49.877	0	142.80	0	6.3640	0	33.5470	0	26.360	0	141.528	0	169.8	4	56.4	4	-1E+10	1	-1E+10	1	-1E+10	1	-1E+10	1	-1E+10	1	-1E+10	1
4902551	58	C	03/19/2022	06:37	-132.128	49.877	0	143.70	0	6.3630	0	33.5510	0	26.363	0	142.420	0	169.1	4	56.2	4	-1E+10	1	-1E+10	1	-1E+10	1	-1E+10	1	-1E+10	1	-1E+10	1
4902551	58	C	03/19/2022	06:37	-132.128	49.877	0	144.60	0	6.3610	0	33.5560	0	26.368	0	143.312	0	168.4	4	56.0	4	-1E+10	1	-1E+10	1	-1E+10	1	-1E+10	1	-1E+10	1	-1E+10	1
4902551	58	C	03/19/2022	06:37	-132.128	49.877	0	145.90	0	6.3560	0	33.5660	0	26.376	0	144.600	0	167.3	4	55.6	4	-1E+10	1	-1E+10	1	-1E+10	1	-1E+10	1	-1E+10	1	-1E+10	1
4902551	58	C	03/19/2022	06:37	-132.128	49.877	0	147.30	0	6.3400	0	33.5890	0	26.396	0	145.987	0	166.4	4	55.3	4	-1E+10	1	-1E+10	1	-1E+10	1	-1E+10	1	-1E+10	1	-1E+10	1
4902551	58	C	03/19/2022	06:37	-132.128	49.877	0	148.20	0	6.3410	0	33.5980	0	26.403	0	146.878	0	165.6	4	55.0	4	-1E+10	1	-1E+10	1	-1E+10	1	-1E+10	1	-1E+10	1	-1E+10	1
4902551	58	C	03/19/2022	06:37	-132.128	49.877	0	149.10	0	6.3350	0	33.6070	0	26.411	0	147.770	0	165.1	4	54.8	4	-1E+10	1	-1E+10	1	-1E+10	1	-1E+10	1	-1E+10	1	-1E+10	1
4902551	58	C	03/19/2022	06:37	-132.128	49.877	0	150.00	0	6.3320	0	33.6220	0	26.424	0	148.662	0	164.6	4	54.7	4	-1E+10	1	-1E+10	1	-1E+10	1	-1E+10	1	-1E+10	1	-1E+10	1
4902551	58	C	03/19/2022	06:37	-132.128	49.877	0	150.90	0	6.3280	0	33.6330	0	26.433	0	149.553	0	164.0	4	54.5	4	-1E+10	1	-1E+10	1	-1E+10	1	-1E+10	1	-1E+10	1	-1E+10	1
4902551	58	C	03/19/2022	06:37	-132.128	49.877	0	151.80	0	6.3240	0	33.6400	0	26.439	0	150.445	0	163.5	4	54.3	4	-1E+10	1	-1E+10	1	-1E+10	1	-1E+10	1	-1E+10	1	-1E+10	1
4902551	58	C	03/19/2022	06:37	-132.128	49.877	0	152.70	0	6.3110	0	33.6520	0	26.450	0	151.337	0	163.1	4	54.2	4	-1E+10	1	-1E+10	1	-1E+10	1	-1E+10	1	-1E+10	1	-1E+10	1
4902551	58	C	03/19/2022	06:37	-132.128	49.877	0	153.70	0	6.3070	0	33.6610	0	26.458	0	152.327	0	162.7	4	54.0	4	-1E+10	1	-1E+10	1	-1E+10	1	-1E+10	1	-1E+10	1	-1E+10	1
4902551	58	C	03/19/2022	06:37	-132.128	49.877	0	154.70	0	6.3090	0	33.6670	0	26.462	0	153.318	0	162.2	4	53.9	4	-1E+10	1	-1E+10	1	-1E+10	1	-1E+10	1	-1E+10	1	-1E+10	1
4902551	58	C	03/19/2022	06:37	-132.128	49.877	0	155.60	0	6.3090	0	33.6780	0	26.471	0	154.210	0	161.7	4	53.7	4	-1E+10	1	-1E+10	1	-1E+10	1	-1E+10	1	-1E+10	1	-1E+10	1
4902551	58	C	03/19/2022	06:37	-132.128	49.877	0	156.60	0	6.3030	0	33.6980	0	26.487	0	155.200	0	161.3	4	53.6	4	-1E+10	1	-1E+10	1	-1E+10	1	-1E+10	1	-1E+10	1	-1E+10	1
4902551	58	C	03/19/2022	06:37	-132.128	49.877	0	157.60	0	6.2970	0	33.7050	0	26.494	0	156.191	0	160.9	4	53.4	4	-1E+10	1	-1E+10	1	-1E+10	1	-1E+10	1	-1E+10	1	-1E+10	1
4902551	58	C	03/19/2022	06:37	-132.128	49.877	0	158.60	0	6.2930	0	33.7060	0	26.495	0	157.182	0	160.5	4	53.3	4	-1E+10	1	-1E+10	1	-1E+10	1	-1E+10	1	-1E+10	1	-1E+10	1
4902551	58	C	03/19/2022	06:37	-132.128	49.877	0	159.60	0	6.2900	0	33.7070	0	26.496	0	158.172	0	160.1	4	53.2	4	-1E+10	1	-1E+10	1	-1E+10	1	-1E+10	1	-1E+10	1	-1E+10	1
4902551	58	C	03/19/2022	06:37	-132.128	49.877	0	160.60	0	6.2880	0	33.7090	0	26.498	0	159.163	0	159.6	4	53.0	4	-1E+10	1	-1E+10	1	-1E+10	1	-1E+10	1	-1E+10	1	-1E+10	1
4902551	58	C	03/19/2022	06:37	-132.128	49.877	0	161.60	0	6.2800	0	33.7130	0	26.502	0	160.154	0	159.1	4	52.8	4	-1E+10	1	-1E+10	1	-1E+10	1	-1E+10	1	-1E+10	1	-1E+10	1
4902551	58	C	03/19/2022	06:37	-132.128	49.877	0	162.50	0	6.2710	0	33.7170	0	26.507	0	161.045	0	158.6	4	52.7	4	-1E+10	1	-1E+10	1	-1E+10	1	-1E+10	1	-1E+10	1	-1E+10	1
4902551	58	C	03/19/2022	06:37	-132.128	49.877	0	163.50	0	6.2670	0	33.7180	0	26.508	0	162.036	0	158.2	4	52.5	4	-1E+10	1	-1E+10	1	-1E+10	1	-1E+10	1	-1E+10	1	-1E+10	1
4902551	58	C	03/19/2022	06:37	-132.128	49.877	0	164.50	0	6.2620	0	33.7220	0	26.512	0	163.027	0	157.8	4	52.4	4	-1E+10	1	-1E+10	1	-1E+10	1	-1E+10	1	-1E+10	1	-1E+10	1
4902551	58	C	03/19/2022	06:37	-132.128	49.877	0	165.50	0	6.2610	0	33.7230	0	26.513	0	164.017	0	157.3	4	52.2	4	-1E+10	1	-1E+10	1	-1E+10	1	-1E+10	1	-1E+10	1	-1E+10	1
4902551	58	C	03/19/2022	06:37	-132.128	49.877	0	166.50	0	6.2580	0	33.7240	0	26.514	0	165.008	0	156.7	4	52.0	4	-1E+10	1	-1E+10	1	-1E+10	1	-1E+10	1	-1E+10	1	-1E+10	1
4902551	58	C	03/19/2022	06:37	-132.128	49.877	0	167.90	0	6.2460	0	33.7270	0	26.518	0	166.395	0	156.0	4	51.7	4	-1E+10	1	-1E+10	1	-1E+10	1	-1E+10	1	-1E+10	1	-1E+10	1
4902551	58	C	03/19/2022	06:37	-132.128	49.877	0	169.40	0	6.2360	0	33.7300	0	26.521	0	167.881	0	155.1	4	51.4	4	-1E+10	1	-1E+10	1	-1E+10	1	-1E+10	1	-1E+10	1	-1E+10	1
4902551	58	C	03/19/2022	06:37	-132.128	49.877	0	170.40	0	6.2350	0	33.7290	0	26.521	0	168.871	0	154.5	4	51.2	4	-1E+10	1	-1E+10	1	-1E+10	1	-1E+10	1	-1E+10	1	-1E+10	1
4902551	58	C	03/19/2022	06:37	-132.128	49.877	0	171.30	0	6.2310	0	33.7300	0	26.522	0	169.763	0	153.7	4	51.0	4	-1E+10	1	-1E+10	1	-1E+10	1	-1E+10	1	-1E+10	1	-1E+10	1
4902551	58	C	03/19/2022	06:37	-132.128	49.877	0	172.30	0	6.2010	0	33.7390	0	26.533	0	170.754	0	153.2	4	50.8	4	-1E+10	1	-1E+10	1	-1E+10	1	-1E+10	1	-1E+10	1	-1E+10	1
4902551	58	C	03/19/2022	06:37	-132.128	49.877	0	173.20	0	6.1760	0	33.7420	0	26.538	0	171.645	0	152.8	4	50.6	4	-1E+10	1	-1E+10	1	-1E+10	1	-1E+10	1	-1E+10	1	-1E+10	1
4902551	58	C	03/19/2022	06:37	-132.128	49.877	0	174.20	0	6.1690	0	33.7430	0	26.540	0	172.636	0	152.3	4	50.5	4	-1E+10	1	-1E+10	1	-1E+10	1	-1E+10	1	-1E+10	1	-1E+10	1
4902551	58	C	03/19/2022	06:37	-132.128	49.877	0	175.20	0	6.1680	0	33.7440	0	26.541	0	173.626	0	151.9	4	50.3	4	-1E+10	1	-1E+10	1	-1E+10	1	-1E+10	1	-1E+10	1	-1E+10	1
4902551	58	C	03/19/2022	06:37	-132.128	49.877	0	176.20	0	6.1590	0	33.7460	0	26.544	0	174.617	0	151.3	4	50.1	4	-1E+10	1	-1E+10	1	-1E+10	1	-1E+10	1	-1E+10	1	-1E+10	1
4902551	58	C	03/19/2022	06:37	-132.128	49.877	0	177.20	0	6.1550	0	33.7470	0	26.545	0	175.607	0	150.8	4	49.9	4	-1E+10	1	-1E+10	1	-1E+10	1	-1E+10	1	-1E+10	1	-1E+10	1
4902551	58	C	03/19/2022	06:37	-132.128	49.877	0	178.20	0	6.1520	0	33.7480	0	26.546	0	176.598	0	150.2	4	49.7	4	-1E+10	1	-1E+10	1	-1E+10	1	-1E+10	1	-1E+10	1	-1E+10	1
4902551	58	C	03/19/2022	06:37	-132.128	49.877	0	179.10	0	6.1500	0	33.7480	0	26.547	0	177.490	0	149.5	4	49.5	4	-1E+10	1	-1E+10	1	-1E+10	1	-1E+10	1	-1E+10	1	-1E+10	1
4902551	58	C	03/19/2022	06:37	-132.128	49.877	0	180.10	0	6.1470	0	33.7480	0	26.547	0	178.480	0	148.7	4	49.2	4	-1E+10	1	-1E+10	1	-1E+10	1	-1E+10	1	-1E+10	1	-1E+10	1
4902551	58	C	03/19/2022	06:37	-132.128	49.877	0	181.10	0	6.1460	0	33.7490	0	26.548	0	179.471	0	147.9	4	49.0	4	-1E+10	1	-1E+10	1	-1E+10	1	-1E+10	1	-1E+10	1	-1E+10	1
4902551	58	C	03/19/2022	06:37	-132.128	49.877	0	182.10	0	6.1390	0	33.7520	0	26.551	0	180.461	0	146.9	4	48.6	4	-1E+10	1	-1E+10	1	-1E+10	1	-1E+10	1	-1E+10	1	-1E+10	1
4902551	58	C	03/19/2022	06:37	-132.128	49.877	0	183.10	0	6.1280	0	33.7540	0	26.554	0	181.452	0	146.0	4	48.3	4	-1E+10	1	-1E+10	1	-1E+10	1	-1E+10	1	-1E+10	1	-1E+10	1
4902551	58	C	03/19/2022	06:37	-132.128	49.877	0	184.00	0	6.1270	0	33.7530	0	26.553	0	182.343	0	144.9	4	47.9	4	-1E+10	1	-1E+10	1	-1E+10	1	-1E+10	1	-1E+10	1	-1E+10	1
4902551	58	C	03/19/2022	06:37	-132.128	49.877	0	185.00	0	6.1220	0	33.7540	0	26.555	0	183.334	0	143.7	4	47.6	4	-1E+10	1	-1E+10	1	-1E+10	1	-1E+10	1	-1E+10	1	-1E+10	1
4902551	58	C	03/19/2022	06:37	-132.128	49.877	0	186.00	0	6.0640	0	33.7680	0	26.573	0	184.324	0	142.7	4	47.2	4	-1E+10	1	-1E+10	1	-1E+10	1	-1E+10	1	-1E+10	1	-1E+10	1
4902551	58	C	03/19/2022	06:37	-132.128	49.877	0	187.00	0	5.9990	0	33.7710	0	26.584	0	185.315	0	142.2	4	46.9	4	-1E+10	1	-1E+10	1	-1E+10	1	-1E+10	1	-1E+10	1	-1E+10	1
4902551	58	C	03/19/2022	06:37	-132.128	49.877	0	187.90	0	5.9850	0	33.7690	0	26.584	0	186.207	0	141.7	4	46.7	4	-1E+10	1	-1E+10	1	-1E+10	1	-1E+10	1	-1E+10	1	-1E+10	1
4902551	58	C	03/19/2022	06:37	-132.128	49.877	0	188.90	0	5.9690	0	33.7720	0	26.588	0	187.197	0	141.0	4	46.5	4	-1E+10	1	-1E+10	1	-1E+10	1	-1E+10	1	-1E+10	1	-1E+10	1
4902551	58	C	03/19/2022	06:37	-132.128	49.877	0	189.90	0	5.9630	0	33.7750	0	26.591	0	188.188	0	140.3	4	46.3	4	-1E+10	1	-1E+10	1	-1E+10	1	-1E+10	1	-1E+10	1	-1E+10	1
4902551	58	C	03/19/2022	06:37	-132.128	49.877	0	190.80	0	5.9270	0	33.7830	0	26.602	0	189.079	0	139.9	4	46.1	4	-1E+10	1	-1E+10	1	-1E+10	1	-1E+10	1	-1E+10	1	-1E+10	1
4902551	58	C	03/19/2022	06:37	-132.128	49.877	0	191.80	0	5.9070	0	33.7810	0	26.603	0	190.070	0	139.7	4	46.0	4	-1E+10	1	-1E+10	1	-1E+10	1	-1E+10	1	-1E+10	1	-1E+10	1
4902551	58	C	03/19/2022	06:37	-132.128	49.877	0	192.80	0	5.8930	0	33.7810	0	26.605	0	191.060	0	139.3	4	45.9	4	-1E+10	1	-1E+10	1	-1E+10	1	-1E+10	1	-1E+10	1	-1E+10	1
4902551	58	C	03/19/2022	06:37	-132.128	49.877	0	193.80	0	5.8930	0	33.7800	0	26.604	0	192.051	0	139.0	4	45.8	4	-1E+10	1	-1E+10	1	-1E+10	1	-1E+10	1	-1E+10	1	-1E+10	1
4902551	58	C	03/19/2022	06:37	-132.128	49.877	0	194.80	0	5.8910	0	33.7830	0	26.607	0	193.041	0	138.5	4	45.6	4	-1E+10	1	-1E+10	1	-1E+10	1	-1E+10	1	-1E+10	1	-1E+10	1
4902551	58	C	03/19/2022	06:37	-132.128	49.877	0	195.80	0	5.8920	0	33.7810	0	26.605	0	194.032	0	138.0	4	45.4	4	-1E+10	1	-1E+10	1	-1E+10	1	-1E+10	1	-1E+10	1	-1E+10	1
4902551	58	C	03/19/2022	06:37	-132.128	49.877	0	196.90	0	5.8840	0	33.7820	0	26.607	0	195.121	0	137.6	4	45.3	4	-1E+10	1	-1E+10	1	-1E+10	1	-1E+10	1	-1E+10	1	-1E+10	1
4902551	58	C	03/19/2022	06:37	-132.128	49.877	0	197.90	0	5.8820	0	33.7810	0	26.606	0	196.112	0	137.0	4	45.1	4	-1E+10	1	-1E+10	1	-1E+10	1	-1E+10	1	-1E+10	1	-1E+10	1
4902551	58	C	03/19/2022	06:37	-132.128	49.877	0	198.90	0	5.8770	0	33.7830	0	26.609	0	197.102	0	136.4	4	44.9	4	-1E+10	1	-1E+10	1	-1E+10	1	-1E+10	1	-1E+10	1	-1E+10	1
4902551	58	C	03/19/2022	06:37	-132.128	49.877	0	200.00	0	5.8600	0	33.7850	0	26.612	0	198.192	0	135.8	4	44.7	4	-1E+10	1	-1E+10	1	-1E+10	1	-1E+10	1	-1E+10	1	-1E+10	1
4902551	58	C	03/19/2022	06:37	-132.128	49.877	0	201.00	0	5.8450	0	33.7840	0	26.613	0	199.182	0	135.3	4	44.5	4	-1E+10	1	-1E+10	1	-1E+10	1	-1E+10	1	-1E+10	1	-1E+10	1
4902551	58	C	03/19/2022	06:37	-132.128	49.877	0	202.10	0	5.8430	0	33.7830	0	26.613	0	200.272	0	134.7	4	44.3	4	-1E+10	1	-1E+10	1	-1E+10	1	-1E+10	1	-1E+10	1	-1E+10	1
4902551	58	C	03/19/2022	06:37	-132.128	49.877	0	203.10	0	5.8350	0	33.7840	0	26.615	0	201.262	0	134.1	4	44.1	4	-1E+10	1	-1E+10	1	-1E+10	1	-1E+10	1	-1E+10	1	-1E+10	1
4902551	58	C	03/19/2022	06:37	-132.128	49.877	0	204.10	0	5.7920	0	33.7890	0	26.624	0	202.253	0	133.7	4	43.9	4	-1E+10	1	-1E+10	1	-1E+10	1	-1E+10	1	-1E+10	1	-1E+10	1
4902551	58	C	03/19/2022	06:37	-132.128	49.877	0	205.20	0	5.7860	0	33.7890	0	26.625	0	203.342	0	133.4	4	43.8	4	-1E+10	1	-1E+10	1	-1E+10	1	-1E+10	1	-1E+10	1	-1E+10	1
4902551	58	C	03/19/2022	06:37	-132.128	49.877	0	206.20	0	5.7660	0	33.7930	0	26.630	0	204.333	0	133.1	4	43.7	4	-1E+10	1	-1E+10	1	-1E+10	1	-1E+10	1	-1E+10	1	-1E+10	1
4902551	58	C	03/19/2022	06:37	-132.128	49.877	0	207.30	0	5.7650	0	33.7890	0	26.627	0	205.422	0	132.8	4	43.6	4	-1E+10	1	-1E+10	1	-1E+10	1	-1E+10	1	-1E+10	1	-1E+10	1
4902551	58	C	03/19/2022	06:37	-132.128	49.877	0	208.30	0	5.7580	0	33.7890	0	26.628	0	206.412	0	132.5	4	43.5	4	-1E+10	1	-1E+10	1	-1E+10	1	-1E+10	1	-1E+10	1	-1E+10	1
4902551	58	C	03/19/2022	06:37	-132.128	49.877	0	209.40	0	5.7570	0	33.7900	0	26.629	0	207.502	0	132.1	4	43.4	4	-1E+10	1	-1E+10	1	-1E+10	1	-1E+10	1	-1E+10	1	-1E+10	1
4902551	58	C	03/19/2022	06:37	-132.128	49.877	0	210.40	0	5.7510	0	33.7910	0	26.630	0	208.492	0	131.8	4	43.2	4	-1E+10	1	-1E+10	1	-1E+10	1	-1E+10	1	-1E+10	1	-1E+10	1
4902551	58	C	03/19/2022	06:37	-132.128	49.877	0	211.50	0	5.7480	0	33.7900	0	26.630	0	209.582	0	131.4	4	43.1	4	-1E+10	1	-1E+10	1	-1E+10	1	-1E+10	1	-1E+10	1	-1E+10	1
4902551	58	C	03/19/2022	06:37	-132.128	49.877	0	212.50	0	5.7420	0	33.7910	0	26.632	0	210.572	0	131.0	4	43.0	4	-1E+10	1	-1E+10	1	-1E+10	1	-1E+10	1	-1E+10	1	-1E+10	1
4902551	58	C	03/19/2022	06:37	-132.128	49.877	0	213.60	0	5.7270	0	33.7910	0	26.633	0	211.662	0	130.6	4	42.8	4	-1E+10	1	-1E+10	1	-1E+10	1	-1E+10	1	-1E+10	1	-1E+10	1
4902551	58	C	03/19/2022	06:37	-132.128	49.877	0	214.60	0	5.7260	0	33.7920	0	26.634	0	212.652	0	130.2	4	42.7	4	-1E+10	1	-1E+10	1	-1E+10	1	-1E+10	1	-1E+10	1	-1E+10	1
4902551	58	C	03/19/2022	06:37	-132.128	49.877	0	215.70	0	5.7230	0	33.7940	0	26.636	0	213.742	0	129.8	4	42.6	4	-1E+10	1	-1E+10	1	-1E+10	1	-1E+10	1	-1E+10	1	-1E+10	1
4902551	58	C	03/19/2022	06:37	-132.128	49.877	0	216.80	0	5.7190	0	33.7940	0	26.637	0	214.831	0	129.4	4	42.4	4	-1E+10	1	-1E+10	1	-1E+10	1	-1E+10	1	-1E+10	1	-1E+10	1
4902551	58	C	03/19/2022	06:37	-132.128	49.877	0	217.90	0	5.7180	0	33.7920	0	26.635	0	215.920	0	128.9	4	42.3	4	-1E+10	1	-1E+10	1	-1E+10	1	-1E+10	1	-1E+10	1	-1E+10	1
4902551	58	C	03/19/2022	06:37	-132.128	49.877	0	219.00	0	5.7140	0	33.7930	0	26.637	0	217.010	0	128.3	4	42.1	4	-1E+10	1	-1E+10	1	-1E+10	1	-1E+10	1	-1E+10	1	-1E+10	1
4902551	58	C	03/19/2022	06:37	-132.128	49.877	0	220.10	0	5.7110	0	33.7920	0	26.636	0	218.099	0	127.7	4	41.9	4	-1E+10	1	-1E+10	1	-1E+10	1	-1E+10	1	-1E+10	1	-1E+10	1
4902551	58	C	03/19/2022	06:37	-132.128	49.877	0	221.10	0	5.7060	0	33.7910	0	26.636	0	219.090	0	127.1	4	41.7	4	-1E+10	1	-1E+10	1	-1E+10	1	-1E+10	1	-1E+10	1	-1E+10	1
4902551	58	C	03/19/2022	06:37	-132.128	49.877	0	222.20	0	5.6990	0	33.7930	0	26.638	0	220.179	0	126.4	4	41.4	4	-1E+10	1	-1E+10	1	-1E+10	1	-1E+10	1	-1E+10	1	-1E+10	1
4902551	58	C	03/19/2022	06:37	-132.128	49.877	0	223.30	0	5.6900	0	33.7950	0	26.641	0	221.269	0	125.7	4	41.2	4	-1E+10	1	-1E+10	1	-1E+10	1	-1E+10	1	-1E+10	1	-1E+10	1
4902551	58	C	03/19/2022	06:37	-132.128	49.877	0	224.30	0	5.6800	0	33.7940	0	26.642	0	222.259	0	125.0	4	41.0	4	-1E+10	1	-1E+10	1	-1E+10	1	-1E+10	1	-1E+10	1	-1E+10	1
4902551	58	C	03/19/2022	06:37	-132.128	49.877	0	225.40	0	5.6580	0	33.7970	0	26.647	0	223.348	0	124.2	4	40.7	4	-1E+10	1	-1E+10	1	-1E+10	1	-1E+10	1	-1E+10	1	-1E+10	1
4902551	58	C	03/19/2022	06:37	-132.128	49.877	0	226.50	0	5.6450	0	33.7970	0	26.648	0	224.438	0	123.6	4	40.5	4	-1E+10	1	-1E+10	1	-1E+10	1	-1E+10	1	-1E+10	1	-1E+10	1
4902551	58	C	03/19/2022	06:37	-132.128	49.877	0	227.60	0	5.6420	0	33.7950	0	26.647	0	225.527	0	122.9	4	40.2	4	-1E+10	1	-1E+10	1	-1E+10	1	-1E+10	1	-1E+10	1	-1E+10	1
4902551	58	C	03/19/2022	06:37	-132.128	49.877	0	228.70	0	5.6350	0	33.7960	0	26.649	0	226.616	0	122.3	4	40.0	4	-1E+10	1	-1E+10	1	-1E+10	1	-1E+10	1	-1E+10	1	-1E+10	1
4902551	58	C	03/19/2022	06:37	-132.128	49.877	0	229.80	0	5.6100	0	33.7970	0	26.652	0	227.706	0	121.6	4	39.8	4	-1E+10	1	-1E+10	1	-1E+10	1	-1E+10	1	-1E+10	1	-1E+10	1
4902551	58	C	03/19/2022	06:37	-132.128	49.877	0	230.90	0	5.5810	0	33.8020	0	26.660	0	228.795	0	121.0	4	39.6	4	-1E+10	1	-1E+10	1	-1E+10	1	-1E+10	1	-1E+10	1	-1E+10	1
4902551	58	C	03/19/2022	06:37	-132.128	49.877	0	231.90	0	5.5650	0	33.8000	0	26.660	0	229.786	0	120.5	4	39.4	4	-1E+10	1	-1E+10	1	-1E+10	1	-1E+10	1	-1E+10	1	-1E+10	1
4902551	58	C	03/19/2022	06:37	-132.128	49.877	0	233.00	0	5.5590	0	33.8000	0	26.661	0	230.875	0	119.8	4	39.2	4	-1E+10	1	-1E+10	1	-1E+10	1	-1E+10	1	-1E+10	1	-1E+10	1
4902551	58	C	03/19/2022	06:37	-132.128	49.877	0	234.10	0	5.5540	0	33.7990	0	26.661	0	231.964	0	119.2	4	38.9	4	-1E+10	1	-1E+10	1	-1E+10	1	-1E+10	1	-1E+10	1	-1E+10	1
4902551	58	C	03/19/2022	06:37	-132.128	49.877	0	235.10	0	5.5490	0	33.8000	0	26.662	0	232.955	0	118.5	4	38.7	4	-1E+10	1	-1E+10	1	-1E+10	1	-1E+10	1	-1E+10	1	-1E+10	1
4902551	58	C	03/19/2022	06:37	-132.128	49.877	0	236.20	0	5.5080	0	33.8060	0	26.672	0	234.044	0	117.9	4	38.5	4	-1E+10	1	-1E+10	1	-1E+10	1	-1E+10	1	-1E+10	1	-1E+10	1
4902551	58	C	03/19/2022	06:37	-132.128	49.877	0	237.30	0	5.4830	0	33.8050	0	26.674	0	235.133	0	117.4	4	38.3	4	-1E+10	1	-1E+10	1	-1E+10	1	-1E+10	1	-1E+10	1	-1E+10	1
4902551	58	C	03/19/2022	06:37	-132.128	49.877	0	238.30	0	5.4830	0	33.8050	0	26.674	0	236.124	0	116.9	4	38.1	4	-1E+10	1	-1E+10	1	-1E+10	1	-1E+10	1	-1E+10	1	-1E+10	1
4902551	58	C	03/19/2022	06:37	-132.128	49.877	0	239.30	0	5.4710	0	33.8070	0	26.677	0	237.114	0	116.3	4	37.9	4	-1E+10	1	-1E+10	1	-1E+10	1	-1E+10	1	-1E+10	1	-1E+10	1
4902551	58	C	03/19/2022	06:37	-132.128	49.877	0	240.90	0	5.4480	0	33.8100	0	26.682	0	238.698	0	115.4	4	37.6	4	-1E+10	1	-1E+10	1	-1E+10	1	-1E+10	1	-1E+10	1	-1E+10	1
4902551	58	C	03/19/2022	06:37	-132.128	49.877	0	242.20	0	5.4260	0	33.8110	0	26.686	0	239.986	0	114.7	4	37.4	4	-1E+10	1	-1E+10	1	-1E+10	1	-1E+10	1	-1E+10	1	-1E+10	1
4902551	58	C	03/19/2022	06:37	-132.128	49.877	0	243.00	0	5.4200	0	33.8110	0	26.686	0	240.778	0	114.2	4	37.2	4	-1E+10	1	-1E+10	1	-1E+10	1	-1E+10	1	-1E+10	1	-1E+10	1
4902551	58	C	03/19/2022	06:37	-132.128	49.877	0	243.80	0	5.4100	0	33.8140	0	26.690	0	241.570	0	113.7	4	37.0	4	-1E+10	1	-1E+10	1	-1E+10	1	-1E+10	1	-1E+10	1	-1E+10	1
4902551	58	C	03/19/2022	06:37	-132.128	49.877	0	245.00	0	5.3900	0	33.8130	0	26.691	0	242.758	0	113.0	4	36.8	4	-1E+10	1	-1E+10	1	-1E+10	1	-1E+10	1	-1E+10	1	-1E+10	1
4902551	58	C	03/19/2022	06:37	-132.128	49.877	0	246.30	0	5.3830	0	33.8130	0	26.692	0	244.046	0	112.3	4	36.5	4	-1E+10	1	-1E+10	1	-1E+10	1	-1E+10	1	-1E+10	1	-1E+10	1
4902551	58	C	03/19/2022	06:37	-132.128	49.877	0	247.10	0	5.3720	0	33.8160	0	26.696	0	244.838	0	111.7	4	36.4	4	-1E+10	1	-1E+10	1	-1E+10	1	-1E+10	1	-1E+10	1	-1E+10	1
4902551	58	C	03/19/2022	06:37	-132.128	49.877	0	247.90	0	5.3570	0	33.8150	0	26.697	0	245.630	0	111.3	4	36.2	4	-1E+10	1	-1E+10	1	-1E+10	1	-1E+10	1	-1E+10	1	-1E+10	1
4902551	58	C	03/19/2022	06:37	-132.128	49.877	0	248.70	0	5.3410	0	33.8200	0	26.703	0	246.422	0	111.0	4	36.1	4	-1E+10	1	-1E+10	1	-1E+10	1	-1E+10	1	-1E+10	1	-1E+10	1
4902551	58	C	03/19/2022	06:37	-132.128	49.877	0	249.90	0	5.3230	0	33.8170	0	26.703	0	247.611	0	110.5	4	35.9	4	-1E+10	1	-1E+10	1	-1E+10	1	-1E+10	1	-1E+10	1	-1E+10	1
4902551	58	C	03/19/2022	06:37	-132.128	49.877	0	251.10	0	5.3100	0	33.8180	0	26.705	0	248.799	0	110.1	4	35.8	4	-1E+10	1	-1E+10	1	-1E+10	1	-1E+10	1	-1E+10	1	-1E+10	1
4902551	58	C	03/19/2022	06:37	-132.128	49.877	0	251.90	0	5.2990	0	33.8190	0	26.707	0	249.591	0	109.8	4	35.7	4	-1E+10	1	-1E+10	1	-1E+10	1	-1E+10	1	-1E+10	1	-1E+10	1
4902551	58	C	03/19/2022	06:37	-132.128	49.877	0	252.80	0	5.2970	0	33.8190	0	26.707	0	250.482	0	109.6	4	35.6	4	-1E+10	1	-1E+10	1	-1E+10	1	-1E+10	1	-1E+10	1	-1E+10	1
4902551	58	C	03/19/2022	06:37	-132.128	49.877	0	254.00	0	5.2930	0	33.8200	0	26.708	0	251.671	0	109.1	4	35.4	4	-1E+10	1	-1E+10	1	-1E+10	1	-1E+10	1	-1E+10	1	-1E+10	1
4902551	58	C	03/19/2022	06:37	-132.128	49.877	0	255.30	0	5.2900	0	33.8210	0	26.710	0	252.958	0	108.5	4	35.2	4	-1E+10	1	-1E+10	1	-1E+10	1	-1E+10	1	-1E+10	1	-1E+10	1
4902551	58	C	03/19/2022	06:37	-132.128	49.877	0	256.10	0	5.2910	0	33.8210	0	26.709	0	253.750	0	108.1	4	35.1	4	-1E+10	1	-1E+10	1	-1E+10	1	-1E+10	1	-1E+10	1	-1E+10	1
4902551	58	C	03/19/2022	06:37	-132.128	49.877	0	256.90	0	5.2850	0	33.8210	0	26.710	0	254.542	0	107.7	4	35.0	4	-1E+10	1	-1E+10	1	-1E+10	1	-1E+10	1	-1E+10	1	-1E+10	1
4902551	58	C	03/19/2022	06:37	-132.128	49.877	0	257.80	0	5.2770	0	33.8270	0	26.716	0	255.433	0	107.3	4	34.8	4	-1E+10	1	-1E+10	1	-1E+10	1	-1E+10	1	-1E+10	1	-1E+10	1
4902551	58	C	03/19/2022	06:37	-132.128	49.877	0	259.00	0	5.2570	0	33.8230	0	26.715	0	256.622	0	106.7	4	34.6	4	-1E+10	1	-1E+10	1	-1E+10	1	-1E+10	1	-1E+10	1	-1E+10	1
4902551	58	C	03/19/2022	06:37	-132.128	49.877	0	260.30	0	5.2500	0	33.8240	0	26.717	0	257.909	0	106.1	4	34.4	4	-1E+10	1	-1E+10	1	-1E+10	1	-1E+10	1	-1E+10	1	-1E+10	1
4902551	58	C	03/19/2022	06:37	-132.128	49.877	0	261.10	0	5.2460	0	33.8240	0	26.717	0	258.701	0	105.6	4	34.3	4	-1E+10	1	-1E+10	1	-1E+10	1	-1E+10	1	-1E+10	1	-1E+10	1
4902551	58	C	03/19/2022	06:37	-132.128	49.877	0	261.90	0	5.2410	0	33.8240	0	26.718	0	259.493	0	105.1	4	34.1	4	-1E+10	1	-1E+10	1	-1E+10	1	-1E+10	1	-1E+10	1	-1E+10	1
4902551	58	C	03/19/2022	06:37	-132.128	49.877	0	262.70	0	5.2370	0	33.8240	0	26.718	0	260.285	0	104.6	4	33.9	4	-1E+10	1	-1E+10	1	-1E+10	1	-1E+10	1	-1E+10	1	-1E+10	1
4902551	58	C	03/19/2022	06:37	-132.128	49.877	0	264.00	0	5.2250	0	33.8280	0	26.723	0	261.573	0	103.8	4	33.7	4	-1E+10	1	-1E+10	1	-1E+10	1	-1E+10	1	-1E+10	1	-1E+10	1
4902551	58	C	03/19/2022	06:37	-132.128	49.877	0	265.30	0	5.1900	0	33.8310	0	26.729	0	262.860	0	103.3	4	33.5	4	-1E+10	1	-1E+10	1	-1E+10	1	-1E+10	1	-1E+10	1	-1E+10	1
4902551	58	C	03/19/2022	06:37	-132.128	49.877	0	266.10	0	5.1830	0	33.8310	0	26.730	0	263.652	0	102.9	4	33.3	4	-1E+10	1	-1E+10	1	-1E+10	1	-1E+10	1	-1E+10	1	-1E+10	1
4902551	58	C	03/19/2022	06:37	-132.128	49.877	0	267.00	0	5.1740	0	33.8330	0	26.733	0	264.543	0	102.6	4	33.2	4	-1E+10	1	-1E+10	1	-1E+10	1	-1E+10	1	-1E+10	1	-1E+10	1
4902551	58	C	03/19/2022	06:37	-132.128	49.877	0	267.90	0	5.1650	0	33.8320	0	26.733	0	265.434	0	102.3	4	33.1	4	-1E+10	1	-1E+10	1	-1E+10	1	-1E+10	1	-1E+10	1	-1E+10	1
4902551	58	C	03/19/2022	06:37	-132.128	49.877	0	268.80	0	5.1570	0	33.8320	0	26.734	0	266.325	0	102.0	4	33.0	4	-1E+10	1	-1E+10	1	-1E+10	1	-1E+10	1	-1E+10	1	-1E+10	1
4902551	58	C	03/19/2022	06:37	-132.128	49.877	0	269.70	0	5.1460	0	33.8340	0	26.737	0	267.216	0	101.8	4	32.9	4	-1E+10	1	-1E+10	1	-1E+10	1	-1E+10	1	-1E+10	1	-1E+10	1
4902551	58	C	03/19/2022	06:37	-132.128	49.877	0	270.60	0	5.1420	0	33.8330	0	26.736	0	268.108	0	101.5	4	32.9	4	-1E+10	1	-1E+10	1	-1E+10	1	-1E+10	1	-1E+10	1	-1E+10	1
4902551	58	C	03/19/2022	06:37	-132.128	49.877	0	271.90	0	5.1320	0	33.8340	0	26.738	0	269.395	0	101.2	4	32.7	4	-1E+10	1	-1E+10	1	-1E+10	1	-1E+10	1	-1E+10	1	-1E+10	1
4902551	58	C	03/19/2022	06:37	-132.128	49.877	0	273.30	0	5.1260	0	33.8350	0	26.740	0	270.781	0	100.8	4	32.6	4	-1E+10	1	-1E+10	1	-1E+10	1	-1E+10	1	-1E+10	1	-1E+10	1
4902551	58	C	03/19/2022	06:37	-132.128	49.877	0	274.20	0	5.1230	0	33.8340	0	26.739	0	271.672	0	100.5	4	32.5	4	-1E+10	1	-1E+10	1	-1E+10	1	-1E+10	1	-1E+10	1	-1E+10	1
4902551	58	C	03/19/2022	06:37	-132.128	49.877	0	275.20	0	5.1190	0	33.8350	0	26.741	0	272.662	0	100.3	4	32.4	4	-1E+10	1	-1E+10	1	-1E+10	1	-1E+10	1	-1E+10	1	-1E+10	1
4902551	58	C	03/19/2022	06:37	-132.128	49.877	0	276.10	0	5.1170	0	33.8350	0	26.741	0	273.553	0	100.0	4	32.3	4	-1E+10	1	-1E+10	1	-1E+10	1	-1E+10	1	-1E+10	1	-1E+10	1
4902551	58	C	03/19/2022	06:37	-132.128	49.877	0	277.00	0	5.1100	0	33.8340	0	26.741	0	274.444	0	99.7	4	32.2	4	-1E+10	1	-1E+10	1	-1E+10	1	-1E+10	1	-1E+10	1	-1E+10	1
4902551	58	C	03/19/2022	06:37	-132.128	49.877	0	278.00	0	5.1020	0	33.8360	0	26.743	0	275.434	0	99.5	4	32.2	4	-1E+10	1	-1E+10	1	-1E+10	1	-1E+10	1	-1E+10	1	-1E+10	1
4902551	58	C	03/19/2022	06:37	-132.128	49.877	0	278.90	0	5.0960	0	33.8390	0	26.746	0	276.326	0	99.2	4	32.1	4	-1E+10	1	-1E+10	1	-1E+10	1	-1E+10	1	-1E+10	1	-1E+10	1
4902551	58	C	03/19/2022	06:37	-132.128	49.877	0	279.80	0	5.0890	0	33.8380	0	26.746	0	277.217	0	98.9	4	32.0	4	-1E+10	1	-1E+10	1	-1E+10	1	-1E+10	1	-1E+10	1	-1E+10	1
4902551	58	C	03/19/2022	06:37	-132.128	49.877	0	280.80	0	5.0840	0	33.8380	0	26.747	0	278.207	0	98.6	4	31.9	4	-1E+10	1	-1E+10	1	-1E+10	1	-1E+10	1	-1E+10	1	-1E+10	1
4902551	58	C	03/19/2022	06:37	-132.128	49.877	0	281.70	0	5.0830	0	33.8380	0	26.747	0	279.098	0	98.3	4	31.8	4	-1E+10	1	-1E+10	1	-1E+10	1	-1E+10	1	-1E+10	1	-1E+10	1
4902551	58	C	03/19/2022	06:37	-132.128	49.877	0	282.60	0	5.0810	0	33.8380	0	26.747	0	279.989	0	98.1	4	31.7	4	-1E+10	1	-1E+10	1	-1E+10	1	-1E+10	1	-1E+10	1	-1E+10	1
4902551	58	C	03/19/2022	06:37	-132.128	49.877	0	283.60	0	5.0780	0	33.8380	0	26.748	0	280.979	0	97.7	4	31.6	4	-1E+10	1	-1E+10	1	-1E+10	1	-1E+10	1	-1E+10	1	-1E+10	1
4902551	58	C	03/19/2022	06:37	-132.128	49.877	0	284.50	0	5.0720	0	33.8390	0	26.749	0	281.870	0	97.4	4	31.5	4	-1E+10	1	-1E+10	1	-1E+10	1	-1E+10	1	-1E+10	1	-1E+10	1
4902551	58	C	03/19/2022	06:37	-132.128	49.877	0	285.90	0	5.0660	0	33.8400	0	26.751	0	283.256	0	96.9	4	31.3	4	-1E+10	1	-1E+10	1	-1E+10	1	-1E+10	1	-1E+10	1	-1E+10	1
4902551	58	C	03/19/2022	06:37	-132.128	49.877	0	287.30	0	5.0590	0	33.8410	0	26.752	0	284.642	0	96.4	4	31.1	4	-1E+10	1	-1E+10	1	-1E+10	1	-1E+10	1	-1E+10	1	-1E+10	1
4902551	58	C	03/19/2022	06:37	-132.128	49.877	0	288.30	0	5.0590	0	33.8410	0	26.752	0	285.632	0	96.0	4	31.0	4	-1E+10	1	-1E+10	1	-1E+10	1	-1E+10	1	-1E+10	1	-1E+10	1
4902551	58	C	03/19/2022	06:37	-132.128	49.877	0	289.20	0	5.0580	0	33.8410	0	26.752	0	286.523	0	95.6	4	30.9	4	-1E+10	1	-1E+10	1	-1E+10	1	-1E+10	1	-1E+10	1	-1E+10	1
4902551	58	C	03/19/2022	06:37	-132.128	49.877	0	290.20	0	5.0570	0	33.8410	0	26.753	0	287.513	0	95.1	4	30.7	4	-1E+10	1	-1E+10	1	-1E+10	1	-1E+10	1	-1E+10	1	-1E+10	1
4902551	58	C	03/19/2022	06:37	-132.128	49.877	0	291.20	0	5.0570	0	33.8410	0	26.753	0	288.504	0	94.5	4	30.5	4	-1E+10	1	-1E+10	1	-1E+10	1	-1E+10	1	-1E+10	1	-1E+10	1
4902551	58	C	03/19/2022	06:37	-132.128	49.877	0	292.10	0	5.0520	0	33.8420	0	26.754	0	289.395	0	93.9	4	30.3	4	-1E+10	1	-1E+10	1	-1E+10	1	-1E+10	1	-1E+10	1	-1E+10	1
4902551	58	C	03/19/2022	06:37	-132.128	49.877	0	293.10	0	5.0340	0	33.8450	0	26.758	0	290.385	0	93.3	4	30.1	4	-1E+10	1	-1E+10	1	-1E+10	1	-1E+10	1	-1E+10	1	-1E+10	1
4902551	58	C	03/19/2022	06:37	-132.128	49.877	0	294.10	0	5.0200	0	33.8460	0	26.761	0	291.375	0	92.8	4	30.0	4	-1E+10	1	-1E+10	1	-1E+10	1	-1E+10	1	-1E+10	1	-1E+10	1
4902551	58	C	03/19/2022	06:37	-132.128	49.877	0	295.10	0	5.0070	0	33.8470	0	26.763	0	292.365	0	92.4	4	29.8	4	-1E+10	1	-1E+10	1	-1E+10	1	-1E+10	1	-1E+10	1	-1E+10	1
4902551	58	C	03/19/2022	06:37	-132.128	49.877	0	296.10	0	4.9950	0	33.8480	0	26.765	0	293.355	0	91.9	4	29.6	4	-1E+10	1	-1E+10	1	-1E+10	1	-1E+10	1	-1E+10	1	-1E+10	1
4902551	58	C	03/19/2022	06:37	-132.128	49.877	0	297.10	0	4.9800	0	33.8510	0	26.769	0	294.345	0	91.5	4	29.5	4	-1E+10	1	-1E+10	1	-1E+10	1	-1E+10	1	-1E+10	1	-1E+10	1
4902551	58	C	03/19/2022	06:37	-132.128	49.877	0	298.10	0	4.9750	0	33.8500	0	26.769	0	295.335	0	91.2	4	29.4	4	-1E+10	1	-1E+10	1	-1E+10	1	-1E+10	1	-1E+10	1	-1E+10	1
4902551	58	C	03/19/2022	06:37	-132.128	49.877	0	299.10	0	4.9730	0	33.8520	0	26.771	0	296.325	0	90.7	4	29.2	4	-1E+10	1	-1E+10	1	-1E+10	1	-1E+10	1	-1E+10	1	-1E+10	1
4902551	58	C	03/19/2022	06:37	-132.128	49.877	0	300.10	0	4.9600	0	33.8520	0	26.772	0	297.315	0	90.3	4	29.1	4	-1E+10	1	-1E+10	1	-1E+10	1	-1E+10	1	-1E+10	1	-1E+10	1
4902551	58	C	03/19/2022	06:37	-132.128	49.877	0	301.10	0	4.9470	0	33.8550	0	26.776	0	298.305	0	89.8	4	28.9	4	-1E+10	1	-1E+10	1	-1E+10	1	-1E+10	1	-1E+10	1	-1E+10	1
4902551	58	C	03/19/2022	06:37	-132.128	49.877	0	302.10	0	4.9460	0	33.8540	0	26.776	0	299.295	0	89.4	4	28.8	4	-1E+10	1	-1E+10	1	-1E+10	1	-1E+10	1	-1E+10	1	-1E+10	1
4902551	58	C	03/19/2022	06:37	-132.128	49.877	0	303.10	0	4.9450	0	33.8540	0	26.776	0	300.285	0	88.9	4	28.6	4	-1E+10	1	-1E+10	1	-1E+10	1	-1E+10	1	-1E+10	1	-1E+10	1
4902551	58	C	03/19/2022	06:37	-132.128	49.877	0	304.00	0	4.9450	0	33.8540	0	26.776	0	301.176	0	88.3	4	28.5	4	-1E+10	1	-1E+10	1	-1E+10	1	-1E+10	1	-1E+10	1	-1E+10	1
4902551	58	C	03/19/2022	06:37	-132.128	49.877	0	305.00	0	4.9450	0	33.8520	0	26.774	0	302.166	0	87.7	4	28.3	4	-1E+10	1	-1E+10	1	-1E+10	1	-1E+10	1	-1E+10	1	-1E+10	1
4902551	58	C	03/19/2022	06:37	-132.128	49.877	0	306.00	0	4.9190	0	33.8590	0	26.783	0	303.156	0	87.2	4	28.1	4	-1E+10	1	-1E+10	1	-1E+10	1	-1E+10	1	-1E+10	1	-1E+10	1
4902551	58	C	03/19/2022	06:37	-132.128	49.877	0	307.10	0	4.8990	0	33.8590	0	26.785	0	304.245	0	86.8	4	27.9	4	-1E+10	1	-1E+10	1	-1E+10	1	-1E+10	1	-1E+10	1	-1E+10	1
4902551	58	C	03/19/2022	06:37	-132.128	49.877	0	308.10	0	4.8950	0	33.8600	0	26.786	0	305.235	0	86.2	4	27.7	4	-1E+10	1	-1E+10	1	-1E+10	1	-1E+10	1	-1E+10	1	-1E+10	1
4902551	58	C	03/19/2022	06:37	-132.128	49.877	0	309.10	0	4.8870	0	33.8610	0	26.788	0	306.225	0	85.8	4	27.6	4	-1E+10	1	-1E+10	1	-1E+10	1	-1E+10	1	-1E+10	1	-1E+10	1
4902551	58	C	03/19/2022	06:37	-132.128	49.877	0	310.10	0	4.8820	0	33.8610	0	26.788	0	307.214	0	85.3	4	27.4	4	-1E+10	1	-1E+10	1	-1E+10	1	-1E+10	1	-1E+10	1	-1E+10	1
4902551	58	C	03/19/2022	06:37	-132.128	49.877	0	311.20	0	4.8740	0	33.8620	0	26.790	0	308.303	0	84.7	4	27.2	4	-1E+10	1	-1E+10	1	-1E+10	1	-1E+10	1	-1E+10	1	-1E+10	1
4902551	58	C	03/19/2022	06:37	-132.128	49.877	0	312.20	0	4.8730	0	33.8620	0	26.790	0	309.293	0	84.1	4	27.0	4	-1E+10	1	-1E+10	1	-1E+10	1	-1E+10	1	-1E+10	1	-1E+10	1
4902551	58	C	03/19/2022	06:37	-132.128	49.877	0	313.20	0	4.8560	0	33.8640	0	26.794	0	310.283	0	83.5	4	26.9	4	-1E+10	1	-1E+10	1	-1E+10	1	-1E+10	1	-1E+10	1	-1E+10	1
4902551	58	C	03/19/2022	06:37	-132.128	49.877	0	314.30	0	4.8490	0	33.8650	0	26.795	0	311.372	0	83.0	4	26.7	4	-1E+10	1	-1E+10	1	-1E+10	1	-1E+10	1	-1E+10	1	-1E+10	1
4902551	58	C	03/19/2022	06:37	-132.128	49.877	0	315.30	0	4.8430	0	33.8660	0	26.797	0	312.362	0	82.5	4	26.5	4	-1E+10	1	-1E+10	1	-1E+10	1	-1E+10	1	-1E+10	1	-1E+10	1
4902551	58	C	03/19/2022	06:37	-132.128	49.877	0	316.40	0	4.8350	0	33.8670	0	26.798	0	313.451	0	82.0	4	26.3	4	-1E+10	1	-1E+10	1	-1E+10	1	-1E+10	1	-1E+10	1	-1E+10	1
4902551	58	C	03/19/2022	06:37	-132.128	49.877	0	317.50	0	4.8320	0	33.8670	0	26.799	0	314.540	0	81.5	4	26.2	4	-1E+10	1	-1E+10	1	-1E+10	1	-1E+10	1	-1E+10	1	-1E+10	1
4902551	58	C	03/19/2022	06:37	-132.128	49.877	0	318.50	0	4.8130	0	33.8680	0	26.802	0	315.530	0	81.1	4	26.0	4	-1E+10	1	-1E+10	1	-1E+10	1	-1E+10	1	-1E+10	1	-1E+10	1
4902551	58	C	03/19/2022	06:37	-132.128	49.877	0	319.60	0	4.8110	0	33.8670	0	26.801	0	316.619	0	80.7	4	25.9	4	-1E+10	1	-1E+10	1	-1E+10	1	-1E+10	1	-1E+10	1	-1E+10	1
4902551	58	C	03/19/2022	06:37	-132.128	49.877	0	320.70	0	4.8000	0	33.8700	0	26.805	0	317.708	0	80.3	4	25.8	4	-1E+10	1	-1E+10	1	-1E+10	1	-1E+10	1	-1E+10	1	-1E+10	1
4902551	58	C	03/19/2022	06:37	-132.128	49.877	0	321.70	0	4.7900	0	33.8710	0	26.807	0	318.698	0	80.1	4	25.7	4	-1E+10	1	-1E+10	1	-1E+10	1	-1E+10	1	-1E+10	1	-1E+10	1
4902551	58	C	03/19/2022	06:37	-132.128	49.877	0	322.80	0	4.7880	0	33.8690	0	26.805	0	319.786	0	79.8	4	25.6	4	-1E+10	1	-1E+10	1	-1E+10	1	-1E+10	1	-1E+10	1	-1E+10	1
4902551	58	C	03/19/2022	06:37	-132.128	49.877	0	323.90	0	4.7870	0	33.8690	0	26.805	0	320.875	0	79.5	4	25.5	4	-1E+10	1	-1E+10	1	-1E+10	1	-1E+10	1	-1E+10	1	-1E+10	1
4902551	58	C	03/19/2022	06:37	-132.128	49.877	0	325.00	0	4.7830	0	33.8710	0	26.807	0	321.964	0	79.2	4	25.4	4	-1E+10	1	-1E+10	1	-1E+10	1	-1E+10	1	-1E+10	1	-1E+10	1
4902551	58	C	03/19/2022	06:37	-132.128	49.877	0	326.10	0	4.7780	0	33.8710	0	26.808	0	323.053	0	78.9	4	25.3	4	-1E+10	1	-1E+10	1	-1E+10	1	-1E+10	1	-1E+10	1	-1E+10	1
4902551	58	C	03/19/2022	06:37	-132.128	49.877	0	327.10	0	4.7740	0	33.8710	0	26.808	0	324.043	0	78.5	4	25.2	4	-1E+10	1	-1E+10	1	-1E+10	1	-1E+10	1	-1E+10	1	-1E+10	1
4902551	58	C	03/19/2022	06:37	-132.128	49.877	0	328.20	0	4.7740	0	33.8710	0	26.808	0	325.132	0	78.1	4	25.1	4	-1E+10	1	-1E+10	1	-1E+10	1	-1E+10	1	-1E+10	1	-1E+10	1
4902551	58	C	03/19/2022	06:37	-132.128	49.877	0	329.30	0	4.7700	0	33.8720	0	26.810	0	326.221	0	77.7	4	24.9	4	-1E+10	1	-1E+10	1	-1E+10	1	-1E+10	1	-1E+10	1	-1E+10	1
4902551	58	C	03/19/2022	06:37	-132.128	49.877	0	330.40	0	4.7680	0	33.8720	0	26.810	0	327.310	0	77.3	4	24.8	4	-1E+10	1	-1E+10	1	-1E+10	1	-1E+10	1	-1E+10	1	-1E+10	1
4902551	58	C	03/19/2022	06:37	-132.128	49.877	0	331.40	0	4.7660	0	33.8730	0	26.811	0	328.299	0	76.8	4	24.6	4	-1E+10	1	-1E+10	1	-1E+10	1	-1E+10	1	-1E+10	1	-1E+10	1
4902551	58	C	03/19/2022	06:37	-132.128	49.877	0	332.40	0	4.7560	0	33.8740	0	26.813	0	329.289	0	76.4	4	24.5	4	-1E+10	1	-1E+10	1	-1E+10	1	-1E+10	1	-1E+10	1	-1E+10	1
4902551	58	C	03/19/2022	06:37	-132.128	49.877	0	333.50	0	4.7540	0	33.8740	0	26.813	0	330.378	0	75.9	4	24.3	4	-1E+10	1	-1E+10	1	-1E+10	1	-1E+10	1	-1E+10	1	-1E+10	1
4902551	58	C	03/19/2022	06:37	-132.128	49.877	0	334.50	0	4.7530	0	33.8740	0	26.813	0	331.368	0	75.4	4	24.2	4	-1E+10	1	-1E+10	1	-1E+10	1	-1E+10	1	-1E+10	1	-1E+10	1
4902551	58	C	03/19/2022	06:37	-132.128	49.877	0	335.60	0	4.7480	0	33.8750	0	26.815	0	332.457	0	74.8	4	24.0	4	-1E+10	1	-1E+10	1	-1E+10	1	-1E+10	1	-1E+10	1	-1E+10	1
4902551	58	C	03/19/2022	06:37	-132.128	49.877	0	336.60	0	4.7300	0	33.8790	0	26.820	0	333.447	0	74.4	4	23.9	4	-1E+10	1	-1E+10	1	-1E+10	1	-1E+10	1	-1E+10	1	-1E+10	1
4902551	58	C	03/19/2022	06:37	-132.128	49.877	0	337.60	0	4.7280	0	33.8790	0	26.820	0	334.436	0	74.0	4	23.7	4	-1E+10	1	-1E+10	1	-1E+10	1	-1E+10	1	-1E+10	1	-1E+10	1
4902551	58	C	03/19/2022	06:37	-132.128	49.877	0	338.70	0	4.7160	0	33.8830	0	26.824	0	335.525	0	73.6	4	23.6	4	-1E+10	1	-1E+10	1	-1E+10	1	-1E+10	1	-1E+10	1	-1E+10	1
4902551	58	C	03/19/2022	06:37	-132.128	49.877	0	339.80	0	4.7020	0	33.8850	0	26.828	0	336.614	0	73.3	4	23.5	4	-1E+10	1	-1E+10	1	-1E+10	1	-1E+10	1	-1E+10	1	-1E+10	1
4902551	58	C	03/19/2022	06:37	-132.128	49.877	0	340.80	0	4.6970	0	33.8870	0	26.830	0	337.604	0	73.0	4	23.4	4	-1E+10	1	-1E+10	1	-1E+10	1	-1E+10	1	-1E+10	1	-1E+10	1
4902551	58	C	03/19/2022	06:37	-132.128	49.877	0	341.90	0	4.6910	0	33.8890	0	26.832	0	338.693	0	72.8	4	23.3	4	-1E+10	1	-1E+10	1	-1E+10	1	-1E+10	1	-1E+10	1	-1E+10	1
4902551	58	C	03/19/2022	06:37	-132.128	49.877	0	343.00	0	4.6850	0	33.8890	0	26.833	0	339.781	0	72.5	4	23.2	4	-1E+10	1	-1E+10	1	-1E+10	1	-1E+10	1	-1E+10	1	-1E+10	1
4902551	58	C	03/19/2022	06:37	-132.128	49.877	0	344.00	0	4.6810	0	33.8910	0	26.835	0	340.771	0	72.3	4	23.1	4	-1E+10	1	-1E+10	1	-1E+10	1	-1E+10	1	-1E+10	1	-1E+10	1
4902551	58	C	03/19/2022	06:37	-132.128	49.877	0	345.10	0	4.6770	0	33.8920	0	26.836	0	341.860	0	72.2	4	23.1	4	-1E+10	1	-1E+10	1	-1E+10	1	-1E+10	1	-1E+10	1	-1E+10	1
4902551	58	C	03/19/2022	06:37	-132.128	49.877	0	346.20	0	4.6730	0	33.8930	0	26.837	0	342.949	0	72.0	4	23.1	4	-1E+10	1	-1E+10	1	-1E+10	1	-1E+10	1	-1E+10	1	-1E+10	1
4902551	58	C	03/19/2022	06:37	-132.128	49.877	0	347.20	0	4.6720	0	33.8930	0	26.837	0	343.938	0	71.8	4	23.0	4	-1E+10	1	-1E+10	1	-1E+10	1	-1E+10	1	-1E+10	1	-1E+10	1
4902551	58	C	03/19/2022	06:37	-132.128	49.877	0	348.30	0	4.6710	0	33.8930	0	26.837	0	345.027	0	71.7	4	23.0	4	-1E+10	1	-1E+10	1	-1E+10	1	-1E+10	1	-1E+10	1	-1E+10	1
4902551	58	C	03/19/2022	06:37	-132.128	49.877	0	349.30	0	4.6700	0	33.8940	0	26.838	0	346.017	0	71.5	4	22.9	4	-1E+10	1	-1E+10	1	-1E+10	1	-1E+10	1	-1E+10	1	-1E+10	1
4902551	58	C	03/19/2022	06:37	-132.128	49.877	0	350.40	0	4.6680	0	33.8940	0	26.839	0	347.106	0	71.4	4	22.8	4	-1E+10	1	-1E+10	1	-1E+10	1	-1E+10	1	-1E+10	1	-1E+10	1
4902551	58	C	03/19/2022	06:37	-132.128	49.877	0	353.00	0	4.6660	0	33.8950	0	26.840	0	349.679	0	70.9	4	22.7	4	-1E+10	1	-1E+10	1	-1E+10	1	-1E+10	1	-1E+10	1	-1E+10	1
4902551	58	C	03/19/2022	06:37	-132.128	49.877	0	357.70	0	4.6450	0	33.9010	0	26.847	0	354.331	0	70.4	4	22.5	4	-1E+10	1	-1E+10	1	-1E+10	1	-1E+10	1	-1E+10	1	-1E+10	1
4902551	58	C	03/19/2022	06:37	-132.128	49.877	0	362.90	0	4.6290	0	33.9040	0	26.851	0	359.477	0	69.5	4	22.2	4	-1E+10	1	-1E+10	1	-1E+10	1	-1E+10	1	-1E+10	1	-1E+10	1
4902551	58	C	03/19/2022	06:37	-132.128	49.877	0	368.30	0	4.6030	0	33.9110	0	26.859	0	364.822	0	67.7	4	21.6	4	-1E+10	1	-1E+10	1	-1E+10	1	-1E+10	1	-1E+10	1	-1E+10	1
4902551	58	C	03/19/2022	06:37	-132.128	49.877	0	373.00	0	4.5840	0	33.9150	0	26.865	0	369.473	0	66.4	4	21.2	4	-1E+10	1	-1E+10	1	-1E+10	1	-1E+10	1	-1E+10	1	-1E+10	1
4902551	58	C	03/19/2022	06:37	-132.128	49.877	0	377.70	0	4.5690	0	33.9190	0	26.869	0	374.124	0	65.1	4	20.8	4	-1E+10	1	-1E+10	1	-1E+10	1	-1E+10	1	-1E+10	1	-1E+10	1
4902551	58	C	03/19/2022	06:37	-132.128	49.877	0	383.10	0	4.5510	0	33.9240	0	26.875	0	379.468	0	63.3	4	20.2	4	-1E+10	1	-1E+10	1	-1E+10	1	-1E+10	1	-1E+10	1	-1E+10	1
4902551	58	C	03/19/2022	06:37	-132.128	49.877	0	388.30	0	4.5310	0	33.9290	0	26.882	0	384.614	0	61.4	4	19.6	4	-1E+10	1	-1E+10	1	-1E+10	1	-1E+10	1	-1E+10	1	-1E+10	1
4902551	58	C	03/19/2022	06:37	-132.128	49.877	0	393.10	0	4.5060	0	33.9400	0	26.893	0	389.364	0	60.0	4	19.1	4	-1E+10	1	-1E+10	1	-1E+10	1	-1E+10	1	-1E+10	1	-1E+10	1
4902551	58	C	03/19/2022	06:37	-132.128	49.877	0	398.00	0	4.4850	0	33.9480	0	26.902	0	394.213	0	59.1	4	18.9	4	-1E+10	1	-1E+10	1	-1E+10	1	-1E+10	1	-1E+10	1	-1E+10	1
4902551	58	C	03/19/2022	06:37	-132.128	49.877	0	403.00	0	4.4810	0	33.9490	0	26.903	0	399.161	0	58.2	4	18.6	4	-1E+10	1	-1E+10	1	-1E+10	1	-1E+10	1	-1E+10	1	-1E+10	1
4902551	58	C	03/19/2022	06:37	-132.128	49.877	0	408.00	0	4.4660	0	33.9540	0	26.909	0	404.108	0	57.1	4	18.2	4	-1E+10	1	-1E+10	1	-1E+10	1	-1E+10	1	-1E+10	1	-1E+10	1
4902551	58	C	03/19/2022	06:37	-132.128	49.877	0	413.00	0	4.4480	0	33.9620	0	26.917	0	409.055	0	56.4	4	18.0	4	-1E+10	1	-1E+10	1	-1E+10	1	-1E+10	1	-1E+10	1	-1E+10	1
4902551	58	C	03/19/2022	06:37	-132.128	49.877	0	418.10	0	4.4420	0	33.9650	0	26.920	0	414.102	0	55.3	4	17.6	4	-1E+10	1	-1E+10	1	-1E+10	1	-1E+10	1	-1E+10	1	-1E+10	1
4902551	58	C	03/19/2022	06:37	-132.128	49.877	0	423.10	0	4.4320	0	33.9690	0	26.924	0	419.049	0	54.3	4	17.3	4	-1E+10	1	-1E+10	1	-1E+10	1	-1E+10	1	-1E+10	1	-1E+10	1
4902551	58	C	03/19/2022	06:37	-132.128	49.877	0	428.10	0	4.4190	0	33.9740	0	26.930	0	423.996	0	53.2	4	16.9	4	-1E+10	1	-1E+10	1	-1E+10	1	-1E+10	1	-1E+10	1	-1E+10	1
4902551	58	C	03/19/2022	06:37	-132.128	49.877	0	433.20	0	4.3980	0	33.9820	0	26.938	0	429.042	0	52.4	4	16.7	4	-1E+10	1	-1E+10	1	-1E+10	1	-1E+10	1	-1E+10	1	-1E+10	1
4902551	58	C	03/19/2022	06:37	-132.128	49.877	0	438.10	0	4.3940	0	33.9830	0	26.939	0	433.890	0	51.7	4	16.4	4	-1E+10	1	-1E+10	1	-1E+10	1	-1E+10	1	-1E+10	1	-1E+10	1
4902551	58	C	03/19/2022	06:37	-132.128	49.877	0	443.00	0	4.3840	0	33.9870	0	26.944	0	438.737	0	50.8	4	16.2	4	-1E+10	1	-1E+10	1	-1E+10	1	-1E+10	1	-1E+10	1	-1E+10	1
4902551	58	C	03/19/2022	06:37	-132.128	49.877	0	447.90	0	4.3740	0	33.9910	0	26.948	0	443.585	0	49.8	4	15.8	4	-1E+10	1	-1E+10	1	-1E+10	1	-1E+10	1	-1E+10	1	-1E+10	1
4902551	58	C	03/19/2022	06:37	-132.128	49.877	0	453.00	0	4.3590	0	33.9970	0	26.954	0	448.630	0	48.6	4	15.5	4	-1E+10	1	-1E+10	1	-1E+10	1	-1E+10	1	-1E+10	1	-1E+10	1
4902551	58	C	03/19/2022	06:37	-132.128	49.877	0	458.10	0	4.3460	0	34.0020	0	26.960	0	453.675	0	47.6	4	15.1	4	-1E+10	1	-1E+10	1	-1E+10	1	-1E+10	1	-1E+10	1	-1E+10	1
4902551	58	C	03/19/2022	06:37	-132.128	49.877	0	463.20	0	4.3430	0	34.0040	0	26.962	0	458.721	0	46.2	4	14.7	4	-1E+10	1	-1E+10	1	-1E+10	1	-1E+10	1	-1E+10	1	-1E+10	1
4902551	58	C	03/19/2022	06:37	-132.128	49.877	0	467.90	0	4.3340	0	34.0080	0	26.966	0	463.370	0	44.5	4	14.2	4	-1E+10	1	-1E+10	1	-1E+10	1	-1E+10	1	-1E+10	1	-1E+10	1
4902551	58	C	03/19/2022	06:37	-132.128	49.877	0	472.70	0	4.3160	0	34.0160	0	26.974	0	468.118	0	43.1	4	13.7	4	-1E+10	1	-1E+10	1	-1E+10	1	-1E+10	1	-1E+10	1	-1E+10	1
4902551	58	C	03/19/2022	06:37	-132.128	49.877	0	478.10	0	4.3020	0	34.0220	0	26.981	0	473.460	0	42.0	4	13.3	4	-1E+10	1	-1E+10	1	-1E+10	1	-1E+10	1	-1E+10	1	-1E+10	1
4902551	58	C	03/19/2022	06:37	-132.128	49.877	0	482.90	0	4.2900	0	34.0260	0	26.985	0	478.207	0	40.9	4	13.0	4	-1E+10	1	-1E+10	1	-1E+10	1	-1E+10	1	-1E+10	1	-1E+10	1
4902551	58	C	03/19/2022	06:37	-132.128	49.877	0	487.70	0	4.2760	0	34.0320	0	26.991	0	482.955	0	39.8	4	12.6	4	-1E+10	1	-1E+10	1	-1E+10	1	-1E+10	1	-1E+10	1	-1E+10	1
4902551	58	C	03/19/2022	06:37	-132.128	49.877	0	493.00	0	4.2630	0	34.0360	0	26.996	0	488.197	0	38.3	4	12.2	4	-1E+10	1	-1E+10	1	-1E+10	1	-1E+10	1	-1E+10	1	-1E+10	1
4902551	58	C	03/19/2022	06:37	-132.128	49.877	0	497.90	0	4.2380	0	34.0460	0	27.006	0	493.044	0	36.6	4	11.6	4	-1E+10	1	-1E+10	1	-1E+10	1	-1E+10	1	-1E+10	1	-1E+10	1
4902551	58	C	03/19/2022	06:37	-132.128	49.877	0	502.70	0	4.2270	0	34.0500	0	27.011	0	497.791	0	34.8	4	11.0	4	-1E+10	1	-1E+10	1	-1E+10	1	-1E+10	1	-1E+10	1	-1E+10	1
4902551	58	C	03/19/2022	06:37	-132.128	49.877	0	508.10	0	4.2130	0	34.0560	0	27.017	0	503.132	0	33.5	4	10.6	4	-1E+10	1	-1E+10	1	-1E+10	1	-1E+10	1	-1E+10	1	-1E+10	1
4902551	58	C	03/19/2022	06:37	-132.128	49.877	0	513.00	0	4.1930	0	34.0640	0	27.026	0	507.978	0	32.8	4	10.4	4	-1E+10	1	-1E+10	1	-1E+10	1	-1E+10	1	-1E+10	1	-1E+10	1
4902551	58	C	03/19/2022	06:37	-132.128	49.877	0	518.00	0	4.1850	0	34.0670	0	27.029	0	512.923	0	32.2	4	10.2	4	-1E+10	1	-1E+10	1	-1E+10	1	-1E+10	1	-1E+10	1	-1E+10	1
4902551	58	C	03/19/2022	06:37	-132.128	49.877	0	523.00	0	4.1740	0	34.0710	0	27.033	0	517.868	0	31.5	4	10.0	4	-1E+10	1	-1E+10	1	-1E+10	1	-1E+10	1	-1E+10	1	-1E+10	1
4902551	58	C	03/19/2022	06:37	-132.128	49.877	0	528.00	0	4.1610	0	34.0760	0	27.039	0	522.812	0	30.9	4	9.8	4	-1E+10	1	-1E+10	1	-1E+10	1	-1E+10	1	-1E+10	1	-1E+10	1
4902551	58	C	03/19/2022	06:37	-132.128	49.877	0	532.90	0	4.1540	0	34.0790	0	27.042	0	527.658	0	30.3	4	9.6	4	-1E+10	1	-1E+10	1	-1E+10	1	-1E+10	1	-1E+10	1	-1E+10	1
4902551	58	C	03/19/2022	06:37	-132.128	49.877	0	537.80	0	4.1430	0	34.0830	0	27.046	0	532.504	0	29.6	4	9.4	4	-1E+10	1	-1E+10	1	-1E+10	1	-1E+10	1	-1E+10	1	-1E+10	1
4902551	58	C	03/19/2022	06:37	-132.128	49.877	0	543.20	0	4.1230	0	34.0910	0	27.055	0	537.843	0	29.0	4	9.2	4	-1E+10	1	-1E+10	1	-1E+10	1	-1E+10	1	-1E+10	1	-1E+10	1
4902551	58	C	03/19/2022	06:37	-132.128	49.877	0	548.40	0	4.1170	0	34.0930	0	27.057	0	542.985	0	28.4	4	9.0	4	-1E+10	1	-1E+10	1	-1E+10	1	-1E+10	1	-1E+10	1	-1E+10	1
4902551	58	C	03/19/2022	06:37	-132.128	49.877	0	553.20	0	4.1050	0	34.0980	0	27.062	0	547.732	0	27.9	4	8.8	4	-1E+10	1	-1E+10	1	-1E+10	1	-1E+10	1	-1E+10	1	-1E+10	1
4902551	58	C	03/19/2022	06:37	-132.128	49.877	0	558.00	0	4.0990	0	34.1000	0	27.064	0	552.478	0	27.4	4	8.7	4	-1E+10	1	-1E+10	1	-1E+10	1	-1E+10	1	-1E+10	1	-1E+10	1
4902551	58	C	03/19/2022	06:37	-132.128	49.877	0	562.80	0	4.0910	0	34.1030	0	27.068	0	557.224	0	26.9	4	8.5	4	-1E+10	1	-1E+10	1	-1E+10	1	-1E+10	1	-1E+10	1	-1E+10	1
4902551	58	C	03/19/2022	06:37	-132.128	49.877	0	567.60	0	4.0710	0	34.1100	0	27.075	0	561.970	0	26.6	4	8.4	4	-1E+10	1	-1E+10	1	-1E+10	1	-1E+10	1	-1E+10	1	-1E+10	1
4902551	58	C	03/19/2022	06:37	-132.128	49.877	0	572.60	0	4.0510	0	34.1160	0	27.082	0	566.913	0	26.3	4	8.3	4	-1E+10	1	-1E+10	1	-1E+10	1	-1E+10	1	-1E+10	1	-1E+10	1
4902551	58	C	03/19/2022	06:37	-132.128	49.877	0	577.60	0	4.0350	0	34.1220	0	27.088	0	571.857	0	25.8	4	8.1	4	-1E+10	1	-1E+10	1	-1E+10	1	-1E+10	1	-1E+10	1	-1E+10	1
4902551	58	C	03/19/2022	06:37	-132.128	49.877	0	582.60	0	4.0280	0	34.1240	0	27.091	0	576.800	0	25.6	4	8.1	4	-1E+10	1	-1E+10	1	-1E+10	1	-1E+10	1	-1E+10	1	-1E+10	1
4902551	58	C	03/19/2022	06:37	-132.128	49.877	0	587.60	0	4.0230	0	34.1270	0	27.094	0	581.744	0	25.3	4	8.0	4	-1E+10	1	-1E+10	1	-1E+10	1	-1E+10	1	-1E+10	1	-1E+10	1
4902551	58	C	03/19/2022	06:37	-132.128	49.877	0	592.60	0	4.0160	0	34.1300	0	27.097	0	586.687	0	25.0	4	7.9	4	-1E+10	1	-1E+10	1	-1E+10	1	-1E+10	1	-1E+10	1	-1E+10	1
4902551	58	C	03/19/2022	06:37	-132.128	49.877	0	597.90	0	4.0090	0	34.1330	0	27.100	0	591.926	0	24.6	4	7.8	4	-1E+10	1	-1E+10	1	-1E+10	1	-1E+10	1	-1E+10	1	-1E+10	1
4902551	58	C	03/19/2022	06:37	-132.128	49.877	0	603.10	0	4.0010	0	34.1360	0	27.103	0	597.067	0	24.2	4	7.6	4	-1E+10	1	-1E+10	1	-1E+10	1	-1E+10	1	-1E+10	1	-1E+10	1
4902551	58	C	03/19/2022	06:37	-132.128	49.877	0	608.20	0	3.9990	0	34.1370	0	27.104	0	602.108	0	23.7	4	7.5	4	-1E+10	1	-1E+10	1	-1E+10	1	-1E+10	1	-1E+10	1	-1E+10	1
4902551	58	C	03/19/2022	06:37	-132.128	49.877	0	613.00	0	3.9880	0	34.1400	0	27.108	0	606.853	0	23.1	4	7.3	4	-1E+10	1	-1E+10	1	-1E+10	1	-1E+10	1	-1E+10	1	-1E+10	1
4902551	58	C	03/19/2022	06:37	-132.128	49.877	0	617.80	0	3.9760	0	34.1440	0	27.112	0	611.598	0	22.4	4	7.1	4	-1E+10	1	-1E+10	1	-1E+10	1	-1E+10	1	-1E+10	1	-1E+10	1
4902551	58	C	03/19/2022	06:37	-132.128	49.877	0	623.10	0	3.9450	0	34.1540	0	27.123	0	616.837	0	21.8	4	6.9	4	-1E+10	1	-1E+10	1	-1E+10	1	-1E+10	1	-1E+10	1	-1E+10	1
4902551	58	C	03/19/2022	06:37	-132.128	49.877	0	628.10	0	3.9240	0	34.1590	0	27.130	0	621.779	0	21.6	4	6.8	4	-1E+10	1	-1E+10	1	-1E+10	1	-1E+10	1	-1E+10	1	-1E+10	1
4902551	58	C	03/19/2022	06:37	-132.128	49.877	0	632.70	0	3.9170	0	34.1610	0	27.132	0	626.326	0	21.4	4	6.7	4	-1E+10	1	-1E+10	1	-1E+10	1	-1E+10	1	-1E+10	1	-1E+10	1
4902551	58	C	03/19/2022	06:37	-132.128	49.877	0	637.90	0	3.8960	0	34.1650	0	27.137	0	631.466	0	21.2	4	6.7	4	-1E+10	1	-1E+10	1	-1E+10	1	-1E+10	1	-1E+10	1	-1E+10	1
4902551	58	C	03/19/2022	06:37	-132.128	49.877	0	643.10	0	3.8760	0	34.1690	0	27.142	0	636.606	0	20.9	4	6.6	4	-1E+10	1	-1E+10	1	-1E+10	1	-1E+10	1	-1E+10	1	-1E+10	1
4902551	58	C	03/19/2022	06:37	-132.128	49.877	0	647.90	0	3.8670	0	34.1710	0	27.145	0	641.350	0	20.7	4	6.5	4	-1E+10	1	-1E+10	1	-1E+10	1	-1E+10	1	-1E+10	1	-1E+10	1
4902551	58	C	03/19/2022	06:37	-132.128	49.877	0	652.90	0	3.8520	0	34.1750	0	27.150	0	646.291	0	20.4	4	6.4	4	-1E+10	1	-1E+10	1	-1E+10	1	-1E+10	1	-1E+10	1	-1E+10	1
4902551	58	C	03/19/2022	06:37	-132.128	49.877	0	657.70	0	3.8430	0	34.1780	0	27.153	0	651.035	0	20.0	4	6.3	4	-1E+10	1	-1E+10	1	-1E+10	1	-1E+10	1	-1E+10	1	-1E+10	1
4902551	58	C	03/19/2022	06:37	-132.128	49.877	0	662.70	0	3.8360	0	34.1820	0	27.157	0	655.977	0	19.5	4	6.1	4	-1E+10	1	-1E+10	1	-1E+10	1	-1E+10	1	-1E+10	1	-1E+10	1
4902551	58	C	03/19/2022	06:37	-132.128	49.877	0	667.70	0	3.8290	0	34.1850	0	27.160	0	660.918	0	19.1	4	6.0	4	-1E+10	1	-1E+10	1	-1E+10	1	-1E+10	1	-1E+10	1	-1E+10	1
4902551	58	C	03/19/2022	06:37	-132.128	49.877	0	672.60	0	3.8200	0	34.1890	0	27.164	0	665.761	0	18.7	4	5.9	4	-1E+10	1	-1E+10	1	-1E+10	1	-1E+10	1	-1E+10	1	-1E+10	1
4902551	58	C	03/19/2022	06:37	-132.128	49.877	0	677.50	0	3.8050	0	34.1940	0	27.170	0	670.603	0	18.3	4	5.8	4	-1E+10	1	-1E+10	1	-1E+10	1	-1E+10	1	-1E+10	1	-1E+10	1
4902551	58	C	03/19/2022	06:37	-132.128	49.877	0	682.50	0	3.7900	0	34.2000	0	27.176	0	675.544	0	18.0	4	5.6	4	-1E+10	1	-1E+10	1	-1E+10	1	-1E+10	1	-1E+10	1	-1E+10	1
4902551	58	C	03/19/2022	06:37	-132.128	49.877	0	687.90	0	3.7830	0	34.2020	0	27.178	0	680.880	0	17.6	4	5.5	4	-1E+10	1	-1E+10	1	-1E+10	1	-1E+10	1	-1E+10	1	-1E+10	1
4902551	58	C	03/19/2022	06:37	-132.128	49.877	0	692.90	0	3.7770	0	34.2050	0	27.181	0	685.821	0	17.3	4	5.4	4	-1E+10	1	-1E+10	1	-1E+10	1	-1E+10	1	-1E+10	1	-1E+10	1
4902551	58	C	03/19/2022	06:37	-132.128	49.877	0	697.40	0	3.7590	0	34.2100	0	27.187	0	690.267	0	16.8	4	5.3	4	-1E+10	1	-1E+10	1	-1E+10	1	-1E+10	1	-1E+10	1	-1E+10	1
4902551	58	C	03/19/2022	06:37	-132.128	49.877	0	702.50	0	3.7270	0	34.2200	0	27.198	0	695.307	0	16.6	4	5.2	4	-1E+10	1	-1E+10	1	-1E+10	1	-1E+10	1	-1E+10	1	-1E+10	1
4902551	58	C	03/19/2022	06:37	-132.128	49.877	0	707.60	0	3.7090	0	34.2240	0	27.203	0	700.346	0	16.5	4	5.2	4	-1E+10	1	-1E+10	1	-1E+10	1	-1E+10	1	-1E+10	1	-1E+10	1
4902551	58	C	03/19/2022	06:37	-132.128	49.877	0	712.70	0	3.7020	0	34.2250	0	27.205	0	705.385	0	16.5	4	5.2	4	-1E+10	1	-1E+10	1	-1E+10	1	-1E+10	1	-1E+10	1	-1E+10	1
4902551	58	C	03/19/2022	06:37	-132.128	49.877	0	717.90	0	3.6910	0	34.2280	0	27.208	0	710.523	0	16.4	4	5.1	4	-1E+10	1	-1E+10	1	-1E+10	1	-1E+10	1	-1E+10	1	-1E+10	1
4902551	58	C	03/19/2022	06:37	-132.128	49.877	0	723.00	0	3.6820	0	34.2300	0	27.211	0	715.562	0	16.4	4	5.1	4	-1E+10	1	-1E+10	1	-1E+10	1	-1E+10	1	-1E+10	1	-1E+10	1
4902551	58	C	03/19/2022	06:37	-132.128	49.877	0	728.10	0	3.6620	0	34.2330	0	27.215	0	720.600	0	16.4	4	5.1	4	-1E+10	1	-1E+10	1	-1E+10	1	-1E+10	1	-1E+10	1	-1E+10	1
4902551	58	C	03/19/2022	06:37	-132.128	49.877	0	733.30	0	3.6310	0	34.2380	0	27.222	0	725.738	0	16.4	4	5.1	4	-1E+10	1	-1E+10	1	-1E+10	1	-1E+10	1	-1E+10	1	-1E+10	1
4902551	58	C	03/19/2022	06:37	-132.128	49.877	0	738.00	0	3.6150	0	34.2410	0	27.226	0	730.381	0	16.3	4	5.1	4	-1E+10	1	-1E+10	1	-1E+10	1	-1E+10	1	-1E+10	1	-1E+10	1
4902551	58	C	03/19/2022	06:37	-132.128	49.877	0	742.70	0	3.6020	0	34.2440	0	27.230	0	735.024	0	16.1	4	5.0	4	-1E+10	1	-1E+10	1	-1E+10	1	-1E+10	1	-1E+10	1	-1E+10	1
4902551	58	C	03/19/2022	06:37	-132.128	49.877	0	748.10	0	3.5910	0	34.2470	0	27.233	0	740.359	0	16.0	4	5.0	4	-1E+10	1	-1E+10	1	-1E+10	1	-1E+10	1	-1E+10	1	-1E+10	1
4902551	58	C	03/19/2022	06:37	-132.128	49.877	0	752.80	0	3.5830	0	34.2490	0	27.236	0	745.002	0	15.8	4	4.9	4	-1E+10	1	-1E+10	1	-1E+10	1	-1E+10	1	-1E+10	1	-1E+10	1
4902551	58	C	03/19/2022	06:37	-132.128	49.877	0	757.90	0	3.5670	0	34.2530	0	27.241	0	750.040	0	15.5	4	4.8	4	-1E+10	1	-1E+10	1	-1E+10	1	-1E+10	1	-1E+10	1	-1E+10	1
4902551	58	C	03/19/2022	06:37	-132.128	49.877	0	763.10	0	3.5510	0	34.2580	0	27.246	0	755.176	0	15.2	4	4.7	4	-1E+10	1	-1E+10	1	-1E+10	1	-1E+10	1	-1E+10	1	-1E+10	1
4902551	58	C	03/19/2022	06:37	-132.128	49.877	0	767.90	0	3.5260	0	34.2640	0	27.253	0	759.918	0	15.0	4	4.7	4	-1E+10	1	-1E+10	1	-1E+10	1	-1E+10	1	-1E+10	1	-1E+10	1
4902551	58	C	03/19/2022	06:37	-132.128	49.877	0	772.90	0	3.5100	0	34.2670	0	27.257	0	764.857	0	14.9	4	4.7	4	-1E+10	1	-1E+10	1	-1E+10	1	-1E+10	1	-1E+10	1	-1E+10	1
4902551	58	C	03/19/2022	06:37	-132.128	49.877	0	777.90	0	3.4990	0	34.2690	0	27.260	0	769.796	0	14.8	4	4.6	4	-1E+10	1	-1E+10	1	-1E+10	1	-1E+10	1	-1E+10	1	-1E+10	1
4902551	58	C	03/19/2022	06:37	-132.128	49.877	0	782.80	0	3.4830	0	34.2730	0	27.265	0	774.635	0	14.5	4	4.5	4	-1E+10	1	-1E+10	1	-1E+10	1	-1E+10	1	-1E+10	1	-1E+10	1
4902551	58	C	03/19/2022	06:37	-132.128	49.877	0	787.80	0	3.4700	0	34.2770	0	27.269	0	779.574	0	14.3	4	4.5	4	-1E+10	1	-1E+10	1	-1E+10	1	-1E+10	1	-1E+10	1	-1E+10	1
4902551	58	C	03/19/2022	06:37	-132.128	49.877	0	792.90	0	3.4650	0	34.2790	0	27.271	0	784.611	0	14.0	4	4.4	4	-1E+10	1	-1E+10	1	-1E+10	1	-1E+10	1	-1E+10	1	-1E+10	1
4902551	58	C	03/19/2022	06:37	-132.128	49.877	0	797.60	0	3.4640	0	34.2820	0	27.274	0	789.253	0	13.9	4	4.3	4	-1E+10	1	-1E+10	1	-1E+10	1	-1E+10	1	-1E+10	1	-1E+10	1
4902551	58	C	03/19/2022	06:37	-132.128	49.877	0	802.90	0	3.4630	0	34.2840	0	27.276	0	794.488	0	13.9	4	4.3	4	-1E+10	1	-1E+10	1	-1E+10	1	-1E+10	1	-1E+10	1	-1E+10	1
4902551	58	C	03/19/2022	06:37	-132.128	49.877	0	808.30	0	3.4590	0	34.2850	0	27.277	0	799.821	0	13.8	4	4.3	4	-1E+10	1	-1E+10	1	-1E+10	1	-1E+10	1	-1E+10	1	-1E+10	1
4902551	58	C	03/19/2022	06:37	-132.128	49.877	0	813.30	0	3.4470	0	34.2870	0	27.280	0	804.759	0	13.9	4	4.3	4	-1E+10	1	-1E+10	1	-1E+10	1	-1E+10	1	-1E+10	1	-1E+10	1
4902551	58	C	03/19/2022	06:37	-132.128	49.877	0	817.90	0	3.4300	0	34.2880	0	27.282	0	809.301	0	14.0	4	4.4	4	-1E+10	1	-1E+10	1	-1E+10	1	-1E+10	1	-1E+10	1	-1E+10	1
4902551	58	C	03/19/2022	06:37	-132.128	49.877	0	822.70	0	3.4260	0	34.2890	0	27.283	0	814.042	0	13.9	4	4.3	4	-1E+10	1	-1E+10	1	-1E+10	1	-1E+10	1	-1E+10	1	-1E+10	1
4902551	58	C	03/19/2022	06:37	-132.128	49.877	0	828.20	0	3.4200	0	34.2900	0	27.285	0	819.473	0	13.9	4	4.3	4	-1E+10	1	-1E+10	1	-1E+10	1	-1E+10	1	-1E+10	1	-1E+10	1
4902551	58	C	03/19/2022	06:37	-132.128	49.877	0	833.20	0	3.4130	0	34.2920	0	27.287	0	824.410	0	13.9	4	4.3	4	-1E+10	1	-1E+10	1	-1E+10	1	-1E+10	1	-1E+10	1	-1E+10	1
4902551	58	C	03/19/2022	06:37	-132.128	49.877	0	837.70	0	3.4050	0	34.2930	0	27.289	0	828.854	0	13.9	4	4.3	4	-1E+10	1	-1E+10	1	-1E+10	1	-1E+10	1	-1E+10	1	-1E+10	1
4902551	58	C	03/19/2022	06:37	-132.128	49.877	0	842.80	0	3.4010	0	34.2940	0	27.290	0	833.890	0	13.8	4	4.3	4	-1E+10	1	-1E+10	1	-1E+10	1	-1E+10	1	-1E+10	1	-1E+10	1
4902551	58	C	03/19/2022	06:37	-132.128	49.877	0	847.90	0	3.3970	0	34.2960	0	27.292	0	838.926	0	13.8	4	4.3	4	-1E+10	1	-1E+10	1	-1E+10	1	-1E+10	1	-1E+10	1	-1E+10	1
4902551	58	C	03/19/2022	06:37	-132.128	49.877	0	853.00	0	3.3890	0	34.2970	0	27.293	0	843.961	0	13.8	4	4.3	4	-1E+10	1	-1E+10	1	-1E+10	1	-1E+10	1	-1E+10	1	-1E+10	1
4902551	58	C	03/19/2022	06:37	-132.128	49.877	0	858.10	0	3.3760	0	34.2990	0	27.296	0	848.997	0	13.8	4	4.3	4	-1E+10	1	-1E+10	1	-1E+10	1	-1E+10	1	-1E+10	1	-1E+10	1
4902551	58	C	03/19/2022	06:37	-132.128	49.877	0	862.70	0	3.3720	0	34.3000	0	27.297	0	853.539	0	13.8	4	4.3	4	-1E+10	1	-1E+10	1	-1E+10	1	-1E+10	1	-1E+10	1	-1E+10	1
4902551	58	C	03/19/2022	06:37	-132.128	49.877	0	867.90	0	3.3640	0	34.3020	0	27.300	0	858.673	0	13.7	4	4.3	4	-1E+10	1	-1E+10	1	-1E+10	1	-1E+10	1	-1E+10	1	-1E+10	1
4902551	58	C	03/19/2022	06:37	-132.128	49.877	0	872.90	0	3.3590	0	34.3030	0	27.301	0	863.610	0	13.7	4	4.3	4	-1E+10	1	-1E+10	1	-1E+10	1	-1E+10	1	-1E+10	1	-1E+10	1
4902551	58	C	03/19/2022	06:37	-132.128	49.877	0	878.10	0	3.3550	0	34.3040	0	27.302	0	868.743	0	13.7	4	4.2	4	-1E+10	1	-1E+10	1	-1E+10	1	-1E+10	1	-1E+10	1	-1E+10	1
4902551	58	C	03/19/2022	06:37	-132.128	49.877	0	883.20	0	3.3430	0	34.3060	0	27.305	0	873.778	0	13.6	4	4.2	4	-1E+10	1	-1E+10	1	-1E+10	1	-1E+10	1	-1E+10	1	-1E+10	1
4902551	58	C	03/19/2022	06:37	-132.128	49.877	0	887.80	0	3.3330	0	34.3090	0	27.308	0	878.320	0	13.6	4	4.2	4	-1E+10	1	-1E+10	1	-1E+10	1	-1E+10	1	-1E+10	1	-1E+10	1
4902551	58	C	03/19/2022	06:37	-132.128	49.877	0	893.00	0	3.3320	0	34.3090	0	27.309	0	883.453	0	13.6	4	4.2	4	-1E+10	1	-1E+10	1	-1E+10	1	-1E+10	1	-1E+10	1	-1E+10	1
4902551	58	C	03/19/2022	06:37	-132.128	49.877	0	898.20	0	3.3280	0	34.3100	0	27.310	0	888.587	0	13.5	4	4.2	4	-1E+10	1	-1E+10	1	-1E+10	1	-1E+10	1	-1E+10	1	-1E+10	1
4902551	58	C	03/19/2022	06:37	-132.128	49.877	0	902.70	0	3.3260	0	34.3110	0	27.311	0	893.029	0	13.4	4	4.2	4	-1E+10	1	-1E+10	1	-1E+10	1	-1E+10	1	-1E+10	1	-1E+10	1
4902551	58	C	03/19/2022	06:37	-132.128	49.877	0	907.80	0	3.3100	0	34.3140	0	27.315	0	898.063	0	13.4	4	4.2	4	-1E+10	1	-1E+10	1	-1E+10	1	-1E+10	1	-1E+10	1	-1E+10	1
4902551	58	C	03/19/2022	06:37	-132.128	49.877	0	912.90	0	3.2970	0	34.3180	0	27.319	0	903.098	0	13.4	4	4.2	4	-1E+10	1	-1E+10	1	-1E+10	1	-1E+10	1	-1E+10	1	-1E+10	1
4902551	58	C	03/19/2022	06:37	-132.128	49.877	0	917.90	0	3.2930	0	34.3180	0	27.320	0	908.033	0	13.3	4	4.1	4	-1E+10	1	-1E+10	1	-1E+10	1	-1E+10	1	-1E+10	1	-1E+10	1
4902551	58	C	03/19/2022	06:37	-132.128	49.877	0	922.90	0	3.2810	0	34.3210	0	27.323	0	912.968	0	13.2	4	4.1	4	-1E+10	1	-1E+10	1	-1E+10	1	-1E+10	1	-1E+10	1	-1E+10	1
4902551	58	C	03/19/2022	06:37	-132.128	49.877	0	928.00	0	3.2690	0	34.3240	0	27.327	0	918.002	0	13.1	4	4.1	4	-1E+10	1	-1E+10	1	-1E+10	1	-1E+10	1	-1E+10	1	-1E+10	1
4902551	58	C	03/19/2022	06:37	-132.128	49.877	0	932.90	0	3.2630	0	34.3260	0	27.329	0	922.839	0	13.0	4	4.0	4	-1E+10	1	-1E+10	1	-1E+10	1	-1E+10	1	-1E+10	1	-1E+10	1
4902551	58	C	03/19/2022	06:37	-132.128	49.877	0	937.90	0	3.2560	0	34.3280	0	27.331	0	927.774	0	12.8	4	4.0	4	-1E+10	1	-1E+10	1	-1E+10	1	-1E+10	1	-1E+10	1	-1E+10	1
4902551	58	C	03/19/2022	06:37	-132.128	49.877	0	942.80	0	3.2340	0	34.3330	0	27.337	0	932.610	0	12.8	4	4.0	4	-1E+10	1	-1E+10	1	-1E+10	1	-1E+10	1	-1E+10	1	-1E+10	1
4902551	58	C	03/19/2022	06:37	-132.128	49.877	0	947.70	0	3.2300	0	34.3340	0	27.338	0	937.446	0	12.7	4	3.9	4	-1E+10	1	-1E+10	1	-1E+10	1	-1E+10	1	-1E+10	1	-1E+10	1
4902551	58	C	03/19/2022	06:37	-132.128	49.877	0	953.10	0	3.2230	0	34.3370	0	27.341	0	942.775	0	12.6	4	3.9	4	-1E+10	1	-1E+10	1	-1E+10	1	-1E+10	1	-1E+10	1	-1E+10	1
4902551	58	C	03/19/2022	06:37	-132.128	49.877	0	957.90	0	3.2120	0	34.3400	0	27.345	0	947.513	0	12.5	4	3.9	4	-1E+10	1	-1E+10	1	-1E+10	1	-1E+10	1	-1E+10	1	-1E+10	1
4902551	58	C	03/19/2022	06:37	-132.128	49.877	0	962.80	0	3.1960	0	34.3440	0	27.350	0	952.348	0	12.5	4	3.9	4	-1E+10	1	-1E+10	1	-1E+10	1	-1E+10	1	-1E+10	1	-1E+10	1
4902551	58	C	03/19/2022	06:37	-132.128	49.877	0	967.70	0	3.1850	0	34.3470	0	27.353	0	957.184	0	12.5	4	3.9	4	-1E+10	1	-1E+10	1	-1E+10	1	-1E+10	1	-1E+10	1	-1E+10	1
4902551	58	C	03/19/2022	06:37	-132.128	49.877	0	972.70	0	3.1810	0	34.3470	0	27.353	0	962.118	0	12.5	4	3.9	4	-1E+10	1	-1E+10	1	-1E+10	1	-1E+10	1	-1E+10	1	-1E+10	1
4902551	58	C	03/19/2022	06:37	-132.128	49.877	0	978.10	0	3.1730	0	34.3490	0	27.356	0	967.447	0	12.4	4	3.8	4	-1E+10	1	-1E+10	1	-1E+10	1	-1E+10	1	-1E+10	1	-1E+10	1
4902551	58	C	03/19/2022	06:37	-132.128	49.877	0	983.20	0	3.1690	0	34.3500	0	27.357	0	972.479	0	12.4	4	3.8	4	-1E+10	1	-1E+10	1	-1E+10	1	-1E+10	1	-1E+10	1	-1E+10	1
4902551	58	C	03/19/2022	06:37	-132.128	49.877	0	987.80	0	3.1590	0	34.3520	0	27.360	0	977.019	0	12.3	4	3.8	4	-1E+10	1	-1E+10	1	-1E+10	1	-1E+10	1	-1E+10	1	-1E+10	1
4902551	58	C	03/19/2022	06:37	-132.128	49.877	0	992.80	0	3.1530	0	34.3540	0	27.362	0	981.952	0	12.3	4	3.8	4	-1E+10	1	-1E+10	1	-1E+10	1	-1E+10	1	-1E+10	1	-1E+10	1
4902551	58	C	03/19/2022	06:37	-132.128	49.877	0	997.70	0	3.1430	0	34.3570	0	27.365	0	986.787	0	12.3	4	3.8	4	-1E+10	1	-1E+10	1	-1E+10	1	-1E+10	1	-1E+10	1	-1E+10	1
4902551	58	C	03/19/2022	06:37	-132.128	49.877	0	1005.40	0	3.1130	0	34.3610	0	27.371	0	994.385	0	12.4	4	3.8	4	-1E+10	1	-1E+10	1	-1E+10	1	-1E+10	1	-1E+10	1	-1E+10	1
4902551	58	C	03/19/2022	06:37	-132.128	49.877	0	1015.40	0	3.0800	0	34.3680	0	27.380	0	1004.251	0	12.4	4	3.8	4	-1E+10	1	-1E+10	1	-1E+10	1	-1E+10	1	-1E+10	1	-1E+10	1
4902551	58	C	03/19/2022	06:37	-132.128	49.877	0	1025.20	0	3.0660	0	34.3710	0	27.383	0	1013.920	0	12.4	4	3.8	4	-1E+10	1	-1E+10	1	-1E+10	1	-1E+10	1	-1E+10	1	-1E+10	1
4902551	58	C	03/19/2022	06:37	-132.128	49.877	0	1035.20	0	3.0370	0	34.3770	0	27.391	0	1023.785	0	12.5	4	3.8	4	-1E+10	1	-1E+10	1	-1E+10	1	-1E+10	1	-1E+10	1	-1E+10	1
4902551	58	C	03/19/2022	06:37	-132.128	49.877	0	1045.30	0	3.0160	0	34.3810	0	27.396	0	1033.749	0	12.4	4	3.8	4	-1E+10	1	-1E+10	1	-1E+10	1	-1E+10	1	-1E+10	1	-1E+10	1
4902551	58	C	03/19/2022	06:37	-132.128	49.877	0	1055.40	0	3.0040	0	34.3860	0	27.401	0	1043.713	0	12.4	4	3.8	4	-1E+10	1	-1E+10	1	-1E+10	1	-1E+10	1	-1E+10	1	-1E+10	1
4902551	58	C	03/19/2022	06:37	-132.128	49.877	0	1065.60	0	2.9860	0	34.3890	0	27.405	0	1053.774	0	12.5	4	3.9	4	-1E+10	1	-1E+10	1	-1E+10	1	-1E+10	1	-1E+10	1	-1E+10	1
4902551	58	C	03/19/2022	06:37	-132.128	49.877	0	1075.30	0	2.9710	0	34.3920	0	27.409	0	1063.342	0	12.5	4	3.9	4	-1E+10	1	-1E+10	1	-1E+10	1	-1E+10	1	-1E+10	1	-1E+10	1
4902551	58	C	03/19/2022	06:37	-132.128	49.877	0	1085.30	0	2.9610	0	34.3940	0	27.412	0	1073.205	0	12.5	4	3.9	4	-1E+10	1	-1E+10	1	-1E+10	1	-1E+10	1	-1E+10	1	-1E+10	1
4902551	58	C	03/19/2022	06:37	-132.128	49.877	0	1095.20	0	2.9460	0	34.3970	0	27.415	0	1082.969	0	12.6	4	3.9	4	-1E+10	1	-1E+10	1	-1E+10	1	-1E+10	1	-1E+10	1	-1E+10	1
4902551	58	C	03/19/2022	06:37	-132.128	49.877	0	1105.00	0	2.9350	0	34.3990	0	27.418	0	1092.634	0	12.6	4	3.9	4	-1E+10	1	-1E+10	1	-1E+10	1	-1E+10	1	-1E+10	1	-1E+10	1
4902551	58	C	03/19/2022	06:37	-132.128	49.877	0	1114.90	0	2.9270	0	34.4010	0	27.420	0	1102.397	0	12.7	4	3.9	4	-1E+10	1	-1E+10	1	-1E+10	1	-1E+10	1	-1E+10	1	-1E+10	1
4902551	58	C	03/19/2022	06:37	-132.128	49.877	0	1124.90	0	2.9060	0	34.4030	0	27.424	0	1112.259	0	12.8	4	3.9	4	-1E+10	1	-1E+10	1	-1E+10	1	-1E+10	1	-1E+10	1	-1E+10	1
4902551	58	C	03/19/2022	06:37	-132.128	49.877	0	1135.20	0	2.8990	0	34.4040	0	27.425	0	1122.416	0	12.9	4	4.0	4	-1E+10	1	-1E+10	1	-1E+10	1	-1E+10	1	-1E+10	1	-1E+10	1
4902551	58	C	03/19/2022	06:37	-132.128	49.877	0	1145.50	0	2.8830	0	34.4070	0	27.429	0	1132.572	0	13.0	4	4.0	4	-1E+10	1	-1E+10	1	-1E+10	1	-1E+10	1	-1E+10	1	-1E+10	1
4902551	58	C	03/19/2022	06:37	-132.128	49.877	0	1155.50	0	2.8680	0	34.4090	0	27.432	0	1142.432	0	13.1	4	4.0	4	-1E+10	1	-1E+10	1	-1E+10	1	-1E+10	1	-1E+10	1	-1E+10	1
4902551	58	C	03/19/2022	06:37	-132.128	49.877	0	1165.70	0	2.8470	0	34.4130	0	27.437	0	1152.488	0	13.2	4	4.1	4	-1E+10	1	-1E+10	1	-1E+10	1	-1E+10	1	-1E+10	1	-1E+10	1
4902551	58	C	03/19/2022	06:37	-132.128	49.877	0	1175.70	0	2.8430	0	34.4140	0	27.439	0	1162.347	0	13.3	4	4.1	4	-1E+10	1	-1E+10	1	-1E+10	1	-1E+10	1	-1E+10	1	-1E+10	1
4902551	58	C	03/19/2022	06:37	-132.128	49.877	0	1185.30	0	2.8290	0	34.4170	0	27.442	0	1171.812	0	13.4	4	4.1	4	-1E+10	1	-1E+10	1	-1E+10	1	-1E+10	1	-1E+10	1	-1E+10	1
4902551	58	C	03/19/2022	06:37	-132.128	49.877	0	1195.10	0	2.8210	0	34.4180	0	27.444	0	1181.473	0	13.5	4	4.1	4	-1E+10	1	-1E+10	1	-1E+10	1	-1E+10	1	-1E+10	1	-1E+10	1
4902551	58	C	03/19/2022	06:37	-132.128	49.877	0	1205.60	0	2.8120	0	34.4200	0	27.446	0	1191.823	0	13.5	4	4.2	4	-1E+10	1	-1E+10	1	-1E+10	1	-1E+10	1	-1E+10	1	-1E+10	1
4902551	58	C	03/19/2022	06:37	-132.128	49.877	0	1215.60	0	2.8120	0	34.4200	0	27.446	0	1201.680	0	13.6	4	4.2	4	-1E+10	1	-1E+10	1	-1E+10	1	-1E+10	1	-1E+10	1	-1E+10	1
4902551	58	C	03/19/2022	06:37	-132.128	49.877	0	1225.60	0	2.8090	0	34.4180	0	27.445	0	1211.537	0	13.7	4	4.2	4	-1E+10	1	-1E+10	1	-1E+10	1	-1E+10	1	-1E+10	1	-1E+10	1
4902551	58	C	03/19/2022	06:37	-132.128	49.877	0	1235.90	0	2.7990	0	34.4240	0	27.451	0	1221.689	0	13.9	4	4.3	4	-1E+10	1	-1E+10	1	-1E+10	1	-1E+10	1	-1E+10	1	-1E+10	1
4902551	58	C	03/19/2022	06:37	-132.128	49.877	0	1245.80	0	2.7950	0	34.4250	0	27.452	0	1231.446	0	14.1	4	4.3	4	-1E+10	1	-1E+10	1	-1E+10	1	-1E+10	1	-1E+10	1	-1E+10	1
4902551	58	C	03/19/2022	06:37	-132.128	49.877	0	1255.60	0	2.7860	0	34.4270	0	27.454	0	1241.104	0	14.3	4	4.4	4	-1E+10	1	-1E+10	1	-1E+10	1	-1E+10	1	-1E+10	1	-1E+10	1
4902551	58	C	03/19/2022	06:37	-132.128	49.877	0	1265.50	0	2.7690	0	34.4300	0	27.458	0	1250.861	0	14.7	4	4.5	4	-1E+10	1	-1E+10	1	-1E+10	1	-1E+10	1	-1E+10	1	-1E+10	1
4902551	58	C	03/19/2022	06:37	-132.128	49.877	0	1275.20	0	2.7320	0	34.4370	0	27.467	0	1260.419	0	15.1	4	4.6	4	-1E+10	1	-1E+10	1	-1E+10	1	-1E+10	1	-1E+10	1	-1E+10	1
4902551	58	C	03/19/2022	06:37	-132.128	49.877	0	1285.30	0	2.7000	0	34.4420	0	27.474	0	1270.372	0	15.5	4	4.7	4	-1E+10	1	-1E+10	1	-1E+10	1	-1E+10	1	-1E+10	1	-1E+10	1
4902551	58	C	03/19/2022	06:37	-132.128	49.877	0	1295.50	0	2.6790	0	34.4460	0	27.479	0	1280.423	0	15.7	4	4.8	4	-1E+10	1	-1E+10	1	-1E+10	1	-1E+10	1	-1E+10	1	-1E+10	1
4902551	58	C	03/19/2022	06:37	-132.128	49.877	0	1305.70	0	2.6750	0	34.4470	0	27.480	0	1290.473	0	15.9	4	4.9	4	-1E+10	1	-1E+10	1	-1E+10	1	-1E+10	1	-1E+10	1	-1E+10	1
4902551	58	C	03/19/2022	06:37	-132.128	49.877	0	1315.90	0	2.6600	0	34.4490	0	27.483	0	1300.522	0	16.2	4	5.0	4	-1E+10	1	-1E+10	1	-1E+10	1	-1E+10	1	-1E+10	1	-1E+10	1
4902551	58	C	03/19/2022	06:37	-132.128	49.877	0	1325.20	0	2.6340	0	34.4530	0	27.489	0	1309.685	0	16.6	4	5.1	4	-1E+10	1	-1E+10	1	-1E+10	1	-1E+10	1	-1E+10	1	-1E+10	1
4902551	58	C	03/19/2022	06:37	-132.128	49.877	0	1335.20	0	2.6190	0	34.4560	0	27.492	0	1319.536	0	16.9	4	5.2	4	-1E+10	1	-1E+10	1	-1E+10	1	-1E+10	1	-1E+10	1	-1E+10	1
4902551	58	C	03/19/2022	06:37	-132.128	49.877	0	1345.10	0	2.6040	0	34.4590	0	27.496	0	1329.289	0	17.1	4	5.2	4	-1E+10	1	-1E+10	1	-1E+10	1	-1E+10	1	-1E+10	1	-1E+10	1
4902551	58	C	03/19/2022	06:37	-132.128	49.877	0	1355.00	0	2.5950	0	34.4600	0	27.498	0	1339.041	0	17.4	4	5.3	4	-1E+10	1	-1E+10	1	-1E+10	1	-1E+10	1	-1E+10	1	-1E+10	1
4902551	58	C	03/19/2022	06:37	-132.128	49.877	0	1365.60	0	2.5770	0	34.4630	0	27.502	0	1349.482	0	17.8	4	5.4	4	-1E+10	1	-1E+10	1	-1E+10	1	-1E+10	1	-1E+10	1	-1E+10	1
4902551	58	C	03/19/2022	06:37	-132.128	49.877	0	1375.40	0	2.5650	0	34.4660	0	27.505	0	1359.135	0	18.1	4	5.5	4	-1E+10	1	-1E+10	1	-1E+10	1	-1E+10	1	-1E+10	1	-1E+10	1
4902551	58	C	03/19/2022	06:37	-132.128	49.877	0	1385.70	0	2.5580	0	34.4670	0	27.507	0	1369.280	0	18.7	4	5.7	4	-1E+10	1	-1E+10	1	-1E+10	1	-1E+10	1	-1E+10	1	-1E+10	1
4902551	58	C	03/19/2022	06:37	-132.128	49.877	0	1395.50	0	2.5200	0	34.4730	0	27.515	0	1378.932	0	19.3	4	5.9	4	-1E+10	1	-1E+10	1	-1E+10	1	-1E+10	1	-1E+10	1	-1E+10	1
4902551	58	C	03/19/2022	06:37	-132.128	49.877	0	1405.40	0	2.5090	0	34.4750	0	27.517	0	1388.682	0	19.6	4	6.0	4	-1E+10	1	-1E+10	1	-1E+10	1	-1E+10	1	-1E+10	1	-1E+10	1
4902551	58	C	03/19/2022	06:37	-132.128	49.877	0	1415.50	0	2.4940	0	34.4780	0	27.521	0	1398.628	0	20.1	4	6.1	4	-1E+10	1	-1E+10	1	-1E+10	1	-1E+10	1	-1E+10	1	-1E+10	1
4902551	58	C	03/19/2022	06:37	-132.128	49.877	0	1425.30	0	2.4830	0	34.4800	0	27.524	0	1408.279	0	20.6	4	6.3	4	-1E+10	1	-1E+10	1	-1E+10	1	-1E+10	1	-1E+10	1	-1E+10	1
4902551	58	C	03/19/2022	06:37	-132.128	49.877	0	1435.40	0	2.4590	0	34.4840	0	27.529	0	1418.224	0	21.2	4	6.4	4	-1E+10	1	-1E+10	1	-1E+10	1	-1E+10	1	-1E+10	1	-1E+10	1
4902551	58	C	03/19/2022	06:37	-132.128	49.877	0	1445.60	0	2.4500	0	34.4860	0	27.531	0	1428.268	0	21.6	4	6.6	4	-1E+10	1	-1E+10	1	-1E+10	1	-1E+10	1	-1E+10	1	-1E+10	1
4902551	58	C	03/19/2022	06:37	-132.128	49.877	0	1455.70	0	2.4390	0	34.4880	0	27.534	0	1438.212	0	21.9	4	6.7	4	-1E+10	1	-1E+10	1	-1E+10	1	-1E+10	1	-1E+10	1	-1E+10	1
4902551	58	C	03/19/2022	06:37	-132.128	49.877	0	1465.50	0	2.4330	0	34.4890	0	27.535	0	1447.861	0	22.3	4	6.8	4	-1E+10	1	-1E+10	1	-1E+10	1	-1E+10	1	-1E+10	1	-1E+10	1
4902551	58	C	03/19/2022	06:37	-132.128	49.877	0	1475.30	0	2.4120	0	34.4930	0	27.540	0	1457.509	0	22.8	4	6.9	4	-1E+10	1	-1E+10	1	-1E+10	1	-1E+10	1	-1E+10	1	-1E+10	1
4902551	58	C	03/19/2022	06:37	-132.128	49.877	0	1485.70	0	2.4080	0	34.4940	0	27.541	0	1467.747	0	22.9	4	7.0	4	-1E+10	1	-1E+10	1	-1E+10	1	-1E+10	1	-1E+10	1	-1E+10	1
4902551	58	C	03/19/2022	06:37	-132.128	49.877	0	1495.60	0	2.4060	0	34.4950	0	27.542	0	1477.493	0	23.1	4	7.0	4	-1E+10	1	-1E+10	1	-1E+10	1	-1E+10	1	-1E+10	1	-1E+10	1
4902551	58	C	03/19/2022	06:37	-132.128	49.877	0	1505.60	0	2.3970	0	34.4960	0	27.544	0	1487.337	0	23.4	4	7.1	4	-1E+10	1	-1E+10	1	-1E+10	1	-1E+10	1	-1E+10	1	-1E+10	1
4902551	58	C	03/19/2022	06:37	-132.128	49.877	0	1515.40	0	2.3940	0	34.4970	0	27.545	0	1496.984	0	23.7	4	7.2	4	-1E+10	1	-1E+10	1	-1E+10	1	-1E+10	1	-1E+10	1	-1E+10	1
4902551	58	C	03/19/2022	06:37	-132.128	49.877	0	1524.90	0	2.3870	0	34.4980	0	27.547	0	1506.334	0	24.3	4	7.4	4	-1E+10	1	-1E+10	1	-1E+10	1	-1E+10	1	-1E+10	1	-1E+10	1
4902551	58	C	03/19/2022	06:37	-132.128	49.877	0	1535.00	0	2.3610	0	34.5030	0	27.553	0	1516.275	0	25.1	4	7.6	4	-1E+10	1	-1E+10	1	-1E+10	1	-1E+10	1	-1E+10	1	-1E+10	1
4902551	58	C	03/19/2022	06:37	-132.128	49.877	0	1545.20	0	2.3490	0	34.5050	0	27.555	0	1526.314	0	25.5	4	7.7	4	-1E+10	1	-1E+10	1	-1E+10	1	-1E+10	1	-1E+10	1	-1E+10	1
4902551	58	C	03/19/2022	06:37	-132.128	49.877	0	1555.10	0	2.3460	0	34.5060	0	27.557	0	1536.057	0	25.9	4	7.9	4	-1E+10	1	-1E+10	1	-1E+10	1	-1E+10	1	-1E+10	1	-1E+10	1
4902551	58	C	03/19/2022	06:37	-132.128	49.877	0	1565.40	0	2.3380	0	34.5070	0	27.558	0	1546.193	0	26.7	4	8.1	4	-1E+10	1	-1E+10	1	-1E+10	1	-1E+10	1	-1E+10	1	-1E+10	1
4902551	58	C	03/19/2022	06:37	-132.128	49.877	0	1575.70	0	2.3140	0	34.5110	0	27.563	0	1556.329	0	27.9	4	8.5	4	-1E+10	1	-1E+10	1	-1E+10	1	-1E+10	1	-1E+10	1	-1E+10	1
4902551	58	C	03/19/2022	06:37	-132.128	49.877	0	1585.70	0	2.2880	0	34.5170	0	27.570	0	1566.169	0	28.8	4	8.8	4	-1E+10	1	-1E+10	1	-1E+10	1	-1E+10	1	-1E+10	1	-1E+10	1
4902551	58	C	03/19/2022	06:37	-132.128	49.877	0	1595.60	0	2.2790	0	34.5180	0	27.572	0	1575.910	0	29.3	4	8.9	4	-1E+10	1	-1E+10	1	-1E+10	1	-1E+10	1	-1E+10	1	-1E+10	1
4902551	58	C	03/19/2022	06:37	-132.128	49.877	0	1605.70	0	2.2640	0	34.5210	0	27.575	0	1585.848	0	29.9	4	9.1	4	-1E+10	1	-1E+10	1	-1E+10	1	-1E+10	1	-1E+10	1	-1E+10	1
4902551	58	C	03/19/2022	06:37	-132.128	49.877	0	1615.80	0	2.2600	0	34.5220	0	27.577	0	1595.785	0	30.0	4	9.1	4	-1E+10	1	-1E+10	1	-1E+10	1	-1E+10	1	-1E+10	1	-1E+10	1
4902551	58	C	03/19/2022	06:37	-132.128	49.877	0	1625.80	0	2.2610	0	34.5220	0	27.577	0	1605.623	0	30.1	4	9.1	4	-1E+10	1	-1E+10	1	-1E+10	1	-1E+10	1	-1E+10	1	-1E+10	1
4902551	58	C	03/19/2022	06:37	-132.128	49.877	0	1635.50	0	2.2580	0	34.5230	0	27.578	0	1615.166	0	30.1	4	9.1	4	-1E+10	1	-1E+10	1	-1E+10	1	-1E+10	1	-1E+10	1	-1E+10	1
4902551	58	C	03/19/2022	06:37	-132.128	49.877	0	1645.60	0	2.2590	0	34.5230	0	27.578	0	1625.101	0	30.2	4	9.2	4	-1E+10	1	-1E+10	1	-1E+10	1	-1E+10	1	-1E+10	1	-1E+10	1
4902551	58	C	03/19/2022	06:37	-132.128	49.877	0	1655.90	0	2.2600	0	34.5220	0	27.577	0	1635.234	0	30.4	4	9.2	4	-1E+10	1	-1E+10	1	-1E+10	1	-1E+10	1	-1E+10	1	-1E+10	1
4902551	58	C	03/19/2022	06:37	-132.128	49.877	0	1665.40	0	2.2590	0	34.5230	0	27.578	0	1644.578	0	30.8	4	9.3	4	-1E+10	1	-1E+10	1	-1E+10	1	-1E+10	1	-1E+10	1	-1E+10	1
4902551	58	C	03/19/2022	06:37	-132.128	49.877	0	1675.30	0	2.2490	0	34.5250	0	27.580	0	1654.316	0	31.4	4	9.5	4	-1E+10	1	-1E+10	1	-1E+10	1	-1E+10	1	-1E+10	1	-1E+10	1
4902551	58	C	03/19/2022	06:37	-132.128	49.877	0	1685.30	0	2.2410	0	34.5260	0	27.582	0	1664.151	0	32.1	4	9.7	4	-1E+10	1	-1E+10	1	-1E+10	1	-1E+10	1	-1E+10	1	-1E+10	1
4902551	58	C	03/19/2022	06:37	-132.128	49.877	0	1695.00	0	2.2290	0	34.5280	0	27.584	0	1673.691	0	33.0	4	10.0	4	-1E+10	1	-1E+10	1	-1E+10	1	-1E+10	1	-1E+10	1	-1E+10	1
4902551	58	C	03/19/2022	06:37	-132.128	49.877	0	1705.10	0	2.2080	0	34.5320	0	27.589	0	1683.624	0	34.1	4	10.3	4	-1E+10	1	-1E+10	1	-1E+10	1	-1E+10	1	-1E+10	1	-1E+10	1
4902551	58	C	03/19/2022	06:37	-132.128	49.877	0	1715.10	0	2.1910	0	34.5350	0	27.593	0	1693.458	0	34.9	4	10.6	4	-1E+10	1	-1E+10	1	-1E+10	1	-1E+10	1	-1E+10	1	-1E+10	1
4902551	58	C	03/19/2022	06:37	-132.128	49.877	0	1725.60	0	2.1880	0	34.5360	0	27.594	0	1703.784	0	35.3	4	10.7	4	-1E+10	1	-1E+10	1	-1E+10	1	-1E+10	1	-1E+10	1	-1E+10	1
4902551	58	C	03/19/2022	06:37	-132.128	49.877	0	1735.40	0	2.1820	0	34.5370	0	27.596	0	1713.420	0	36.3	4	11.0	4	-1E+10	1	-1E+10	1	-1E+10	1	-1E+10	1	-1E+10	1	-1E+10	1
4902551	58	C	03/19/2022	06:37	-132.128	49.877	0	1745.20	0	2.1560	0	34.5420	0	27.602	0	1723.056	0	37.2	4	11.3	4	-1E+10	1	-1E+10	1	-1E+10	1	-1E+10	1	-1E+10	1	-1E+10	1
4902551	58	C	03/19/2022	06:37	-132.128	49.877	0	1755.40	0	2.1440	0	34.5440	0	27.604	0	1733.085	0	37.5	4	11.3	4	-1E+10	1	-1E+10	1	-1E+10	1	-1E+10	1	-1E+10	1	-1E+10	1
4902551	58	C	03/19/2022	06:37	-132.128	49.877	0	1765.30	0	2.1480	0	34.5430	0	27.603	0	1742.819	0	37.9	4	11.5	4	-1E+10	1	-1E+10	1	-1E+10	1	-1E+10	1	-1E+10	1	-1E+10	1
4902551	58	C	03/19/2022	06:37	-132.128	49.877	0	1775.60	0	2.1350	0	34.5450	0	27.606	0	1752.945	0	39.1	4	11.8	4	-1E+10	1	-1E+10	1	-1E+10	1	-1E+10	1	-1E+10	1	-1E+10	1
4902551	58	C	03/19/2022	06:37	-132.128	49.877	0	1785.50	0	2.1130	0	34.5490	0	27.611	0	1762.678	0	40.1	4	12.1	4	-1E+10	1	-1E+10	1	-1E+10	1	-1E+10	1	-1E+10	1	-1E+10	1
4902551	58	C	03/19/2022	06:37	-132.128	49.877	0	1795.10	0	2.1020	0	34.5520	0	27.614	0	1772.115	0	40.8	4	12.3	4	-1E+10	1	-1E+10	1	-1E+10	1	-1E+10	1	-1E+10	1	-1E+10	1
4902551	58	C	03/19/2022	06:37	-132.128	49.877	0	1805.50	0	2.0960	0	34.5530	0	27.616	0	1782.338	0	41.3	4	12.5	4	-1E+10	1	-1E+10	1	-1E+10	1	-1E+10	1	-1E+10	1	-1E+10	1
4902551	58	C	03/19/2022	06:37	-132.128	49.877	0	1815.90	0	2.0880	0	34.5540	0	27.617	0	1792.561	0	42.0	4	12.7	4	-1E+10	1	-1E+10	1	-1E+10	1	-1E+10	1	-1E+10	1	-1E+10	1
4902551	58	C	03/19/2022	06:37	-132.128	49.877	0	1825.50	0	2.0780	0	34.5560	0	27.620	0	1801.997	0	42.5	4	12.8	4	-1E+10	1	-1E+10	1	-1E+10	1	-1E+10	1	-1E+10	1	-1E+10	1
4902551	58	C	03/19/2022	06:37	-132.128	49.877	0	1835.30	0	2.0740	0	34.5570	0	27.621	0	1811.629	0	42.9	4	13.0	4	-1E+10	1	-1E+10	1	-1E+10	1	-1E+10	1	-1E+10	1	-1E+10	1
4902551	58	C	03/19/2022	06:37	-132.128	49.877	0	1845.50	0	2.0680	0	34.5580	0	27.622	0	1821.654	0	43.6	4	13.2	4	-1E+10	1	-1E+10	1	-1E+10	1	-1E+10	1	-1E+10	1	-1E+10	1
4902551	58	C	03/19/2022	06:37	-132.128	49.877	0	1855.60	0	2.0570	0	34.5600	0	27.625	0	1831.580	0	44.1	4	13.3	4	-1E+10	1	-1E+10	1	-1E+10	1	-1E+10	1	-1E+10	1	-1E+10	1
4902551	58	C	03/19/2022	06:37	-132.128	49.877	0	1865.90	0	2.0550	0	34.5610	0	27.626	0	1841.702	0	44.6	4	13.5	4	-1E+10	1	-1E+10	1	-1E+10	1	-1E+10	1	-1E+10	1	-1E+10	1
4902551	58	C	03/19/2022	06:37	-132.128	49.877	0	1875.70	0	2.0470	0	34.5630	0	27.628	0	1851.332	0	45.5	4	13.7	4	-1E+10	1	-1E+10	1	-1E+10	1	-1E+10	1	-1E+10	1	-1E+10	1
4902551	58	C	03/19/2022	06:37	-132.128	49.877	0	1885.50	0	2.0220	0	34.5660	0	27.632	0	1860.962	0	46.8	4	14.1	4	-1E+10	1	-1E+10	1	-1E+10	1	-1E+10	1	-1E+10	1	-1E+10	1
4902551	58	C	03/19/2022	06:37	-132.128	49.877	0	1895.50	0	2.0150	0	34.5680	0	27.634	0	1870.788	0	47.0	4	14.2	4	-1E+10	1	-1E+10	1	-1E+10	1	-1E+10	1	-1E+10	1	-1E+10	1
4902551	58	C	03/19/2022	06:37	-132.128	49.877	0	1902.30	0	2.0150	0	34.5680	0	27.634	0	1877.469	0	46.9	4	14.1	4	-1E+10	1	-1E+10	1	-1E+10	1	-1E+10	1	-1E+10	1	-1E+10	1
4902551	58	C	03/19/2022	06:37	-132.128	49.877	0																										
4902551	59	C	03/29/2022	15:06	-131.906	49.847	0	0.40	0	7.5960	0	32.1800	0	25.117	0	0.397	0	284.9	4	96.4	4	-1E+10	1	-1E+10	1	-1E+10	1	-1E+10	1	-1E+10	1	-1E+10	1
4902551	59	C	03/29/2022	15:06	-131.906	49.847	0	0.50	0	7.5962	0	32.1798	0	25.117	0	0.496	0	-1e10	1	-1e10	1	-1E+10	1	-1E+10	1	-1E+10	1	-1E+10	1	-1E+10	1	-1E+10	1
4902551	59	C	03/29/2022	15:06	-131.906	49.847	0	0.60	0	7.5964	0	32.1796	0	25.117	0	0.595	0	-1e10	1	-1e10	1	-1E+10	1	-1E+10	1	-1E+10	1	-1E+10	1	-1E+10	1	-1E+10	1
4902551	59	C	03/29/2022	15:06	-131.906	49.847	0	0.80	0	7.5968	0	32.1792	0	25.116	0	0.793	0	284.9	4	96.4	4	-1E+10	1	-1E+10	1	-1E+10	1	-1E+10	1	-1E+10	1	-1E+10	1
4902551	59	C	03/29/2022	15:06	-131.906	49.847	0	0.90	0	7.5970	0	32.1790	0	25.116	0	0.892	0	-1e10	1	-1e10	1	-1E+10	1	-1E+10	1	-1E+10	1	-1E+10	1	-1E+10	1	-1E+10	1
4902551	59	C	03/29/2022	15:06	-131.906	49.847	0	1.00	0	7.5970	0	32.1791	0	25.116	0	0.991	0	284.9	4	96.4	4	-1E+10	1	-1E+10	1	-1E+10	1	-1E+10	1	-1E+10	1	-1E+10	1
4902551	59	C	03/29/2022	15:06	-131.906	49.847	0	2.10	0	7.5970	0	32.1800	0	25.117	0	2.082	0	284.9	4	96.4	4	-1E+10	1	-1E+10	1	-1E+10	1	-1E+10	1	-1E+10	1	-1E+10	1
4902551	59	C	03/29/2022	15:06	-131.906	49.847	0	3.00	0	7.5970	0	32.1800	0	25.117	0	2.974	0	284.9	4	96.4	4	-1E+10	1	-1E+10	1	-1E+10	1	-1E+10	1	-1E+10	1	-1E+10	1
4902551	59	C	03/29/2022	15:06	-131.906	49.847	0	3.90	0	7.5980	0	32.1800	0	25.117	0	3.867	0	284.8	4	96.4	4	-1E+10	1	-1E+10	1	-1E+10	1	-1E+10	1	-1E+10	1	-1E+10	1
4902551	59	C	03/29/2022	15:06	-131.906	49.847	0	4.80	0	7.5970	0	32.1790	0	25.116	0	4.759	0	284.9	4	96.4	4	-1E+10	1	-1E+10	1	-1E+10	1	-1E+10	1	-1E+10	1	-1E+10	1
4902551	59	C	03/29/2022	15:06	-131.906	49.847	0	6.00	0	7.5970	0	32.1800	0	25.117	0	5.949	0	284.7	4	96.3	4	-1E+10	1	-1E+10	1	-1E+10	1	-1E+10	1	-1E+10	1	-1E+10	1
4902551	59	C	03/29/2022	15:06	-131.906	49.847	0	6.90	0	7.6010	0	32.1960	0	25.129	0	6.841	0	284.7	4	96.4	4	-1E+10	1	-1E+10	1	-1E+10	1	-1E+10	1	-1E+10	1	-1E+10	1
4902551	59	C	03/29/2022	15:06	-131.906	49.847	0	8.10	0	7.6040	0	32.2040	0	25.135	0	8.031	0	284.4	4	96.3	4	-1E+10	1	-1E+10	1	-1E+10	1	-1E+10	1	-1E+10	1	-1E+10	1
4902551	59	C	03/29/2022	15:06	-131.906	49.847	0	9.00	0	7.6060	0	32.2130	0	25.142	0	8.923	0	284.4	4	96.3	4	-1E+10	1	-1E+10	1	-1E+10	1	-1E+10	1	-1E+10	1	-1E+10	1
4902551	59	C	03/29/2022	15:06	-131.906	49.847	0	9.90	0	7.6080	0	32.2220	0	25.149	0	9.815	0	284.3	4	96.3	4	-1E+10	1	-1E+10	1	-1E+10	1	-1E+10	1	-1E+10	1	-1E+10	1
4902551	59	C	03/29/2022	15:06	-131.906	49.847	0	10.90	0	7.6140	0	32.2400	0	25.162	0	10.806	0	284.3	4	96.3	4	-1E+10	1	-1E+10	1	-1E+10	1	-1E+10	1	-1E+10	1	-1E+10	1
4902551	59	C	03/29/2022	15:06	-131.906	49.847	0	11.80	0	7.6160	0	32.2470	0	25.167	0	11.699	0	284.2	4	96.3	4	-1E+10	1	-1E+10	1	-1E+10	1	-1E+10	1	-1E+10	1	-1E+10	1
4902551	59	C	03/29/2022	15:06	-131.906	49.847	0	13.00	0	7.6160	0	32.2480	0	25.168	0	12.888	0	284.2	4	96.2	4	-1E+10	1	-1E+10	1	-1E+10	1	-1E+10	1	-1E+10	1	-1E+10	1
4902551	59	C	03/29/2022	15:06	-131.906	49.847	0	13.70	0	7.6180	0	32.2530	0	25.172	0	13.582	0	284.3	4	96.3	4	-1E+10	1	-1E+10	1	-1E+10	1	-1E+10	1	-1E+10	1	-1E+10	1
4902551	59	C	03/29/2022	15:06	-131.906	49.847	0	15.10	0	7.6180	0	32.2520	0	25.171	0	14.970	0	284.2	4	96.2	4	-1E+10	1	-1E+10	1	-1E+10	1	-1E+10	1	-1E+10	1	-1E+10	1
4902551	59	C	03/29/2022	15:06	-131.906	49.847	0	16.10	0	7.6200	0	32.2610	0	25.178	0	15.962	0	284.1	4	96.3	4	-1E+10	1	-1E+10	1	-1E+10	1	-1E+10	1	-1E+10	1	-1E+10	1
4902551	59	C	03/29/2022	15:06	-131.906	49.847	0	17.00	0	7.6190	0	32.2560	0	25.174	0	16.854	0	284.2	4	96.3	4	-1E+10	1	-1E+10	1	-1E+10	1	-1E+10	1	-1E+10	1	-1E+10	1
4902551	59	C	03/29/2022	15:06	-131.906	49.847	0	17.90	0	7.6200	0	32.2590	0	25.176	0	17.746	0	284.1	4	96.2	4	-1E+10	1	-1E+10	1	-1E+10	1	-1E+10	1	-1E+10	1	-1E+10	1
4902551	59	C	03/29/2022	15:06	-131.906	49.847	0	19.10	0	7.6210	0	32.2630	0	25.179	0	18.936	0	284.2	4	96.3	4	-1E+10	1	-1E+10	1	-1E+10	1	-1E+10	1	-1E+10	1	-1E+10	1
4902551	59	C	03/29/2022	15:06	-131.906	49.847	0	19.80	0	7.6200	0	32.2640	0	25.180	0	19.630	0	284.2	4	96.3	4	-1E+10	1	-1E+10	1	-1E+10	1	-1E+10	1	-1E+10	1	-1E+10	1
4902551	59	C	03/29/2022	15:06	-131.906	49.847	0	20.90	0	7.6210	0	32.2670	0	25.182	0	20.720	0	284.2	4	96.3	4	-1E+10	1	-1E+10	1	-1E+10	1	-1E+10	1	-1E+10	1	-1E+10	1
4902551	59	C	03/29/2022	15:06	-131.906	49.847	0	21.90	0	7.6210	0	32.2650	0	25.181	0	21.711	0	284.2	4	96.3	4	-1E+10	1	-1E+10	1	-1E+10	1	-1E+10	1	-1E+10	1	-1E+10	1
4902551	59	C	03/29/2022	15:06	-131.906	49.847	0	22.80	0	7.6210	0	32.2720	0	25.186	0	22.604	0	284.2	4	96.3	4	-1E+10	1	-1E+10	1	-1E+10	1	-1E+10	1	-1E+10	1	-1E+10	1
4902551	59	C	03/29/2022	15:06	-131.906	49.847	0	23.90	0	7.6110	0	32.2740	0	25.189	0	23.694	0	284.2	4	96.3	4	-1E+10	1	-1E+10	1	-1E+10	1	-1E+10	1	-1E+10	1	-1E+10	1
4902551	59	C	03/29/2022	15:06	-131.906	49.847	0	25.00	0	7.6150	0	32.2720	0	25.187	0	24.785	0	284.1	4	96.2	4	-1E+10	1	-1E+10	1	-1E+10	1	-1E+10	1	-1E+10	1	-1E+10	1
4902551	59	C	03/29/2022	15:06	-131.906	49.847	0	26.20	0	7.6130	0	32.2740	0	25.189	0	25.974	0	284.1	4	96.2	4	-1E+10	1	-1E+10	1	-1E+10	1	-1E+10	1	-1E+10	1	-1E+10	1
4902551	59	C	03/29/2022	15:06	-131.906	49.847	0	26.90	0	7.6130	0	32.2730	0	25.188	0	26.668	0	284.1	4	96.2	4	-1E+10	1	-1E+10	1	-1E+10	1	-1E+10	1	-1E+10	1	-1E+10	1
4902551	59	C	03/29/2022	15:06	-131.906	49.847	0	27.90	0	7.6140	0	32.2730	0	25.188	0	27.659	0	284.1	4	96.2	4	-1E+10	1	-1E+10	1	-1E+10	1	-1E+10	1	-1E+10	1	-1E+10	1
4902551	59	C	03/29/2022	15:06	-131.906	49.847	0	28.80	0	7.6100	0	32.2750	0	25.190	0	28.552	0	284.1	4	96.2	4	-1E+10	1	-1E+10	1	-1E+10	1	-1E+10	1	-1E+10	1	-1E+10	1
4902551	59	C	03/29/2022	15:06	-131.906	49.847	0	29.70	0	7.6100	0	32.2740	0	25.189	0	29.444	0	284.1	4	96.2	4	-1E+10	1	-1E+10	1	-1E+10	1	-1E+10	1	-1E+10	1	-1E+10	1
4902551	59	C	03/29/2022	15:06	-131.906	49.847	0	30.90	0	7.5900	0	32.2780	0	25.195	0	30.633	0	284.2	4	96.2	4	-1E+10	1	-1E+10	1	-1E+10	1	-1E+10	1	-1E+10	1	-1E+10	1
4902551	59	C	03/29/2022	15:06	-131.906	49.847	0	32.00	0	7.5770	0	32.2780	0	25.197	0	31.724	0	284.2	4	96.2	4	-1E+10	1	-1E+10	1	-1E+10	1	-1E+10	1	-1E+10	1	-1E+10	1
4902551	59	C	03/29/2022	15:06	-131.906	49.847	0	33.20	0	7.5680	0	32.2820	0	25.202	0	32.913	0	284.1	4	96.1	4	-1E+10	1	-1E+10	1	-1E+10	1	-1E+10	1	-1E+10	1	-1E+10	1
4902551	59	C	03/29/2022	15:06	-131.906	49.847	0	33.90	0	7.5650	0	32.2810	0	25.201	0	33.607	0	284.2	4	96.2	4	-1E+10	1	-1E+10	1	-1E+10	1	-1E+10	1	-1E+10	1	-1E+10	1
4902551	59	C	03/29/2022	15:06	-131.906	49.847	0	35.10	0	7.5130	0	32.2820	0	25.209	0	34.797	0	284.2	4	96.0	4	-1E+10	1	-1E+10	1	-1E+10	1	-1E+10	1	-1E+10	1	-1E+10	1
4902551	59	C	03/29/2022	15:06	-131.906	49.847	0	35.80	0	7.5060	0	32.2810	0	25.210	0	35.491	0	284.1	4	96.0	4	-1E+10	1	-1E+10	1	-1E+10	1	-1E+10	1	-1E+10	1	-1E+10	1
4902551	59	C	03/29/2022	15:06	-131.906	49.847	0	36.80	0	7.5000	0	32.2810	0	25.210	0	36.482	0	284.1	4	96.0	4	-1E+10	1	-1E+10	1	-1E+10	1	-1E+10	1	-1E+10	1	-1E+10	1
4902551	59	C	03/29/2022	15:06	-131.906	49.847	0	37.80	0	7.4950	0	32.2800	0	25.210	0	37.473	0	284.0	4	95.9	4	-1E+10	1	-1E+10	1	-1E+10	1	-1E+10	1	-1E+10	1	-1E+10	1
4902551	59	C	03/29/2022	15:06	-131.906	49.847	0	38.80	0	7.4930	0	32.2810	0	25.211	0	38.464	0	283.9	4	95.9	4	-1E+10	1	-1E+10	1	-1E+10	1	-1E+10	1	-1E+10	1	-1E+10	1
4902551	59	C	03/29/2022	15:06	-131.906	49.847	0	39.80	0	7.4910	0	32.2800	0	25.211	0	39.456	0	283.7	4	95.8	4	-1E+10	1	-1E+10	1	-1E+10	1	-1E+10	1	-1E+10	1	-1E+10	1
4902551	59	C	03/29/2022	15:06	-131.906	49.847	0	40.80	0	7.4910	0	32.2800	0	25.211	0	40.447	0	283.6	4	95.8	4	-1E+10	1	-1E+10	1	-1E+10	1	-1E+10	1	-1E+10	1	-1E+10	1
4902551	59	C	03/29/2022	15:06	-131.906	49.847	0	41.80	0	7.4780	0	32.2810	0	25.213	0	41.438	0	283.3	4	95.7	4	-1E+10	1	-1E+10	1	-1E+10	1	-1E+10	1	-1E+10	1	-1E+10	1
4902551	59	C	03/29/2022	15:06	-131.906	49.847	0	42.80	0	7.4670	0	32.2810	0	25.215	0	42.429	0	283.1	4	95.6	4	-1E+10	1	-1E+10	1	-1E+10	1	-1E+10	1	-1E+10	1	-1E+10	1
4902551	59	C	03/29/2022	15:06	-131.906	49.847	0	43.80	0	7.4600	0	32.2830	0	25.218	0	43.421	0	282.8	4	95.5	4	-1E+10	1	-1E+10	1	-1E+10	1	-1E+10	1	-1E+10	1	-1E+10	1
4902551	59	C	03/29/2022	15:06	-131.906	49.847	0	44.90	0	7.4500	0	32.2820	0	25.218	0	44.511	0	282.6	4	95.4	4	-1E+10	1	-1E+10	1	-1E+10	1	-1E+10	1	-1E+10	1	-1E+10	1
4902551	59	C	03/29/2022	15:06	-131.906	49.847	0	45.90	0	7.4490	0	32.2810	0	25.218	0	45.502	0	282.3	4	95.3	4	-1E+10	1	-1E+10	1	-1E+10	1	-1E+10	1	-1E+10	1	-1E+10	1
4902551	59	C	03/29/2022	15:06	-131.906	49.847	0	47.00	0	7.4480	0	32.2810	0	25.218	0	46.592	0	281.7	4	95.1	4	-1E+10	1	-1E+10	1	-1E+10	1	-1E+10	1	-1E+10	1	-1E+10	1
4902551	59	C	03/29/2022	15:06	-131.906	49.847	0	48.10	0	7.4240	0	32.2880	0	25.226	0	47.683	0	281.4	4	94.9	4	-1E+10	1	-1E+10	1	-1E+10	1	-1E+10	1	-1E+10	1	-1E+10	1
4902551	59	C	03/29/2022	15:06	-131.906	49.847	0	49.00	0	7.4000	0	32.2950	0	25.235	0	48.575	0	281.3	4	94.8	4	-1E+10	1	-1E+10	1	-1E+10	1	-1E+10	1	-1E+10	1	-1E+10	1
4902551	59	C	03/29/2022	15:06	-131.906	49.847	0	49.80	0	7.3960	0	32.2960	0	25.237	0	49.368	0	281.0	4	94.7	4	-1E+10	1	-1E+10	1	-1E+10	1	-1E+10	1	-1E+10	1	-1E+10	1
4902551	59	C	03/29/2022	15:06	-131.906	49.847	0	50.90	0	7.3960	0	32.2950	0	25.236	0	50.458	0	280.7	4	94.6	4	-1E+10	1	-1E+10	1	-1E+10	1	-1E+10	1	-1E+10	1	-1E+10	1
4902551	59	C	03/29/2022	15:06	-131.906	49.847	0	52.00	0	7.3960	0	32.2960	0	25.237	0	51.548	0	280.3	4	94.5	4	-1E+10	1	-1E+10	1	-1E+10	1	-1E+10	1	-1E+10	1	-1E+10	1
4902551	59	C	03/29/2022	15:06	-131.906	49.847	0	53.10	0	7.3910	0	32.2980	0	25.239	0	52.639	0	280.0	4	94.4	4	-1E+10	1	-1E+10	1	-1E+10	1	-1E+10	1	-1E+10	1	-1E+10	1
4902551	59	C	03/29/2022	15:06	-131.906	49.847	0	54.00	0	7.3880	0	32.2990	0	25.240	0	53.531	0	279.5	4	94.2	4	-1E+10	1	-1E+10	1	-1E+10	1	-1E+10	1	-1E+10	1	-1E+10	1
4902551	59	C	03/29/2022	15:06	-131.906	49.847	0	54.80	0	7.3680	0	32.3070	0	25.249	0	54.324	0	279.4	4	94.1	4	-1E+10	1	-1E+10	1	-1E+10	1	-1E+10	1	-1E+10	1	-1E+10	1
4902551	59	C	03/29/2022	15:06	-131.906	49.847	0	55.80	0	7.3550	0	32.3130	0	25.256	0	55.315	0	279.0	4	94.0	4	-1E+10	1	-1E+10	1	-1E+10	1	-1E+10	1	-1E+10	1	-1E+10	1
4902551	59	C	03/29/2022	15:06	-131.906	49.847	0	56.80	0	7.3450	0	32.3170	0	25.260	0	56.306	0	278.9	4	93.9	4	-1E+10	1	-1E+10	1	-1E+10	1	-1E+10	1	-1E+10	1	-1E+10	1
4902551	59	C	03/29/2022	15:06	-131.906	49.847	0	58.10	0	7.3420	0	32.3180	0	25.261	0	57.595	0	278.5	4	93.8	4	-1E+10	1	-1E+10	1	-1E+10	1	-1E+10	1	-1E+10	1	-1E+10	1
4902551	59	C	03/29/2022	15:06	-131.906	49.847	0	58.90	0	7.3410	0	32.3180	0	25.262	0	58.388	0	278.4	4	93.7	4	-1E+10	1	-1E+10	1	-1E+10	1	-1E+10	1	-1E+10	1	-1E+10	1
4902551	59	C	03/29/2022	15:06	-131.906	49.847	0	60.10	0	7.3400	0	32.3190	0	25.263	0	59.577	0	278.0	4	93.6	4	-1E+10	1	-1E+10	1	-1E+10	1	-1E+10	1	-1E+10	1	-1E+10	1
4902551	59	C	03/29/2022	15:06	-131.906	49.847	0	61.00	0	7.3400	0	32.3200	0	25.263	0	60.469	0	277.6	4	93.5	4	-1E+10	1	-1E+10	1	-1E+10	1	-1E+10	1	-1E+10	1	-1E+10	1
4902551	59	C	03/29/2022	15:06	-131.906	49.847	0	61.90	0	7.3390	0	32.3200	0	25.263	0	61.361	0	277.3	4	93.4	4	-1E+10	1	-1E+10	1	-1E+10	1	-1E+10	1	-1E+10	1	-1E+10	1
4902551	59	C	03/29/2022	15:06	-131.906	49.847	0	63.00	0	7.3370	0	32.3220	0	25.265	0	62.451	0	276.9	4	93.2	4	-1E+10	1	-1E+10	1	-1E+10	1	-1E+10	1	-1E+10	1	-1E+10	1
4902551	59	C	03/29/2022	15:06	-131.906	49.847	0	64.10	0	7.3320	0	32.3250	0	25.268	0	63.541	0	276.7	4	93.2	4	-1E+10	1	-1E+10	1	-1E+10	1	-1E+10	1	-1E+10	1	-1E+10	1
4902551	59	C	03/29/2022	15:06	-131.906	49.847	0	64.90	0	7.3280	0	32.3260	0	25.270	0	64.334	0	276.6	4	93.1	4	-1E+10	1	-1E+10	1	-1E+10	1	-1E+10	1	-1E+10	1	-1E+10	1
4902551	59	C	03/29/2022	15:06	-131.906	49.847	0	66.00	0	7.3210	0	32.3300	0	25.274	0	65.425	0	276.4	4	93.0	4	-1E+10	1	-1E+10	1	-1E+10	1	-1E+10	1	-1E+10	1	-1E+10	1
4902551	59	C	03/29/2022	15:06	-131.906	49.847	0	67.20	0	7.3120	0	32.3320	0	25.277	0	66.614	0	276.2	4	93.0	4	-1E+10	1	-1E+10	1	-1E+10	1	-1E+10	1	-1E+10	1	-1E+10	1
4902551	59	C	03/29/2022	15:06	-131.906	49.847	0	67.90	0	7.3030	0	32.3330	0	25.279	0	67.308	0	276.2	4	92.9	4	-1E+10	1	-1E+10	1	-1E+10	1	-1E+10	1	-1E+10	1	-1E+10	1
4902551	59	C	03/29/2022	15:06	-131.906	49.847	0	69.00	0	7.2970	0	32.3330	0	25.280	0	68.398	0	276.0	4	92.9	4	-1E+10	1	-1E+10	1	-1E+10	1	-1E+10	1	-1E+10	1	-1E+10	1
4902551	59	C	03/29/2022	15:06	-131.906	49.847	0	70.20	0	7.2910	0	32.3340	0	25.281	0	69.587	0	275.7	4	92.8	4	-1E+10	1	-1E+10	1	-1E+10	1	-1E+10	1	-1E+10	1	-1E+10	1
4902551	59	C	03/29/2022	15:06	-131.906	49.847	0	70.90	0	7.2810	0	32.3350	0	25.283	0	70.281	0	275.6	4	92.7	4	-1E+10	1	-1E+10	1	-1E+10	1	-1E+10	1	-1E+10	1	-1E+10	1
4902551	59	C	03/29/2022	15:06	-131.906	49.847	0	72.00	0	7.2670	0	32.3360	0	25.286	0	71.371	0	275.4	4	92.6	4	-1E+10	1	-1E+10	1	-1E+10	1	-1E+10	1	-1E+10	1	-1E+10	1
4902551	59	C	03/29/2022	15:06	-131.906	49.847	0	73.20	0	7.2600	0	32.3360	0	25.287	0	72.561	0	275.1	4	92.5	4	-1E+10	1	-1E+10	1	-1E+10	1	-1E+10	1	-1E+10	1	-1E+10	1
4902551	59	C	03/29/2022	15:06	-131.906	49.847	0	73.90	0	7.2600	0	32.3360	0	25.287	0	73.254	0	274.8	4	92.4	4	-1E+10	1	-1E+10	1	-1E+10	1	-1E+10	1	-1E+10	1	-1E+10	1
4902551	59	C	03/29/2022	15:06	-131.906	49.847	0	75.00	0	7.2610	0	32.3360	0	25.287	0	74.345	0	274.3	4	92.2	4	-1E+10	1	-1E+10	1	-1E+10	1	-1E+10	1	-1E+10	1	-1E+10	1
4902551	59	C	03/29/2022	15:06	-131.906	49.847	0	76.20	0	7.2580	0	32.3370	0	25.288	0	75.534	0	273.7	4	92.0	4	-1E+10	1	-1E+10	1	-1E+10	1	-1E+10	1	-1E+10	1	-1E+10	1
4902551	59	C	03/29/2022	15:06	-131.906	49.847	0	76.90	0	7.2560	0	32.3370	0	25.288	0	76.228	0	273.2	4	91.8	4	-1E+10	1	-1E+10	1	-1E+10	1	-1E+10	1	-1E+10	1	-1E+10	1
4902551	59	C	03/29/2022	15:06	-131.906	49.847	0	78.00	0	7.2530	0	32.3380	0	25.290	0	77.318	0	272.4	4	91.6	4	-1E+10	1	-1E+10	1	-1E+10	1	-1E+10	1	-1E+10	1	-1E+10	1
4902551	59	C	03/29/2022	15:06	-131.906	49.847	0	79.10	0	7.2530	0	32.3400	0	25.291	0	78.408	0	271.6	4	91.3	4	-1E+10	1	-1E+10	1	-1E+10	1	-1E+10	1	-1E+10	1	-1E+10	1
4902551	59	C	03/29/2022	15:06	-131.906	49.847	0	79.90	0	7.2530	0	32.3400	0	25.291	0	79.201	0	270.7	4	91.0	4	-1E+10	1	-1E+10	1	-1E+10	1	-1E+10	1	-1E+10	1	-1E+10	1
4902551	59	C	03/29/2022	15:06	-131.906	49.847	0	81.10	0	7.2540	0	32.3400	0	25.291	0	80.390	0	269.1	4	90.5	4	-1E+10	1	-1E+10	1	-1E+10	1	-1E+10	1	-1E+10	1	-1E+10	1
4902551	59	C	03/29/2022	15:06	-131.906	49.847	0	82.00	0	7.2490	0	32.3420	0	25.293	0	81.282	0	274.7	4	92.3	4	-1E+10	1	-1E+10	1	-1E+10	1	-1E+10	1	-1E+10	1	-1E+10	1
4902551	59	C	03/29/2022	15:06	-131.906	49.847	0	82.90	0	7.2300	0	32.3460	0	25.299	0	82.174	0	273.6	4	91.9	4	-1E+10	1	-1E+10	1	-1E+10	1	-1E+10	1	-1E+10	1	-1E+10	1
4902551	59	C	03/29/2022	15:06	-131.906	49.847	0	84.10	0	7.2280	0	32.3530	0	25.305	0	83.363	0	271.8	4	91.3	4	-1E+10	1	-1E+10	1	-1E+10	1	-1E+10	1	-1E+10	1	-1E+10	1
4902551	59	C	03/29/2022	15:06	-131.906	49.847	0	85.10	0	7.2430	0	32.3580	0	25.307	0	84.354	0	270.4	4	90.9	4	-1E+10	1	-1E+10	1	-1E+10	1	-1E+10	1	-1E+10	1	-1E+10	1
4902551	59	C	03/29/2022	15:06	-131.906	49.847	0	86.00	0	7.2500	0	32.3630	0	25.310	0	85.246	0	269.3	4	90.5	4	-1E+10	1	-1E+10	1	-1E+10	1	-1E+10	1	-1E+10	1	-1E+10	1
4902551	59	C	03/29/2022	15:06	-131.906	49.847	0	86.80	0	7.2430	0	32.3710	0	25.317	0	86.039	0	268.2	4	90.2	4	-1E+10	1	-1E+10	1	-1E+10	1	-1E+10	1	-1E+10	1	-1E+10	1
4902551	59	C	03/29/2022	15:06	-131.906	49.847	0	87.90	0	7.2450	0	32.3810	0	25.325	0	87.129	0	266.8	4	89.7	4	-1E+10	1	-1E+10	1	-1E+10	1	-1E+10	1	-1E+10	1	-1E+10	1
4902551	59	C	03/29/2022	15:06	-131.906	49.847	0	89.10	0	7.2450	0	32.3870	0	25.329	0	88.318	0	265.3	4	89.2	4	-1E+10	1	-1E+10	1	-1E+10	1	-1E+10	1	-1E+10	1	-1E+10	1
4902551	59	C	03/29/2022	15:06	-131.906	49.847	0	89.90	0	7.2430	0	32.3930	0	25.334	0	89.111	0	264.4	4	88.9	4	-1E+10	1	-1E+10	1	-1E+10	1	-1E+10	1	-1E+10	1	-1E+10	1
4902551	59	C	03/29/2022	15:06	-131.906	49.847	0	90.90	0	7.2260	0	32.4110	0	25.351	0	90.102	0	263.7	4	88.6	4	-1E+10	1	-1E+10	1	-1E+10	1	-1E+10	1	-1E+10	1	-1E+10	1
4902551	59	C	03/29/2022	15:06	-131.906	49.847	0	92.10	0	7.1850	0	32.4610	0	25.396	0	91.291	0	262.9	4	88.3	4	-1E+10	1	-1E+10	1	-1E+10	1	-1E+10	1	-1E+10	1	-1E+10	1
4902551	59	C	03/29/2022	15:06	-131.906	49.847	0	93.00	0	7.1810	0	32.4670	0	25.401	0	92.183	0	262.0	4	88.0	4	-1E+10	1	-1E+10	1	-1E+10	1	-1E+10	1	-1E+10	1	-1E+10	1
4902551	59	C	03/29/2022	15:06	-131.906	49.847	0	93.90	0	7.1810	0	32.4670	0	25.401	0	93.075	0	261.0	4	87.7	4	-1E+10	1	-1E+10	1	-1E+10	1	-1E+10	1	-1E+10	1	-1E+10	1
4902551	59	C	03/29/2022	15:06	-131.906	49.847	0	95.00	0	7.1730	0	32.4750	0	25.408	0	94.165	0	259.7	4	87.2	4	-1E+10	1	-1E+10	1	-1E+10	1	-1E+10	1	-1E+10	1	-1E+10	1
4902551	59	C	03/29/2022	15:06	-131.906	49.847	0	96.10	0	7.1690	0	32.4790	0	25.412	0	95.255	0	258.0	4	86.6	4	-1E+10	1	-1E+10	1	-1E+10	1	-1E+10	1	-1E+10	1	-1E+10	1
4902551	59	C	03/29/2022	15:06	-131.906	49.847	0	97.10	0	7.1670	0	32.4820	0	25.415	0	96.246	0	256.1	4	86.0	4	-1E+10	1	-1E+10	1	-1E+10	1	-1E+10	1	-1E+10	1	-1E+10	1
4902551	59	C	03/29/2022	15:06	-131.906	49.847	0	98.10	0	7.1640	0	32.4980	0	25.428	0	97.237	0	254.2	4	85.4	4	-1E+10	1	-1E+10	1	-1E+10	1	-1E+10	1	-1E+10	1	-1E+10	1
4902551	59	C	03/29/2022	15:06	-131.906	49.847	0	98.90	0	7.1440	0	32.5300	0	25.456	0	98.030	0	252.9	4	84.9	4	-1E+10	1	-1E+10	1	-1E+10	1	-1E+10	1	-1E+10	1	-1E+10	1
4902551	59	C	03/29/2022	15:06	-131.906	49.847	0	100.10	0	7.1230	0	32.5510	0	25.475	0	99.219	0	250.9	4	84.2	4	-1E+10	1	-1E+10	1	-1E+10	1	-1E+10	1	-1E+10	1	-1E+10	1
4902551	59	C	03/29/2022	15:06	-131.906	49.847	0	101.10	0	7.1030	0	32.5720	0	25.494	0	100.210	0	249.5	4	83.7	4	-1E+10	1	-1E+10	1	-1E+10	1	-1E+10	1	-1E+10	1	-1E+10	1
4902551	59	C	03/29/2022	15:06	-131.906	49.847	0	102.00	0	7.0940	0	32.5960	0	25.514	0	101.102	0	248.1	4	83.2	4	-1E+10	1	-1E+10	1	-1E+10	1	-1E+10	1	-1E+10	1	-1E+10	1
4902551	59	C	03/29/2022	15:06	-131.906	49.847	0	103.10	0	7.0670	0	32.6340	0	25.548	0	102.192	0	246.8	4	82.8	4	-1E+10	1	-1E+10	1	-1E+10	1	-1E+10	1	-1E+10	1	-1E+10	1
4902551	59	C	03/29/2022	15:06	-131.906	49.847	0	104.10	0	7.0660	0	32.6380	0	25.551	0	103.183	0	244.5	4	82.0	4	-1E+10	1	-1E+10	1	-1E+10	1	-1E+10	1	-1E+10	1	-1E+10	1
4902551	59	C	03/29/2022	15:06	-131.906	49.847	0	105.10	0	7.0370	0	32.6660	0	25.577	0	104.174	0	241.6	4	81.0	4	-1E+10	1	-1E+10	1	-1E+10	1	-1E+10	1	-1E+10	1	-1E+10	1
4902551	59	C	03/29/2022	15:06	-131.906	49.847	0	106.00	0	6.9990	0	32.6960	0	25.606	0	105.066	0	240.1	4	80.5	4	-1E+10	1	-1E+10	1	-1E+10	1	-1E+10	1	-1E+10	1	-1E+10	1
4902551	59	C	03/29/2022	15:06	-131.906	49.847	0	107.10	0	6.9710	0	32.7060	0	25.617	0	106.156	0	237.8	4	79.6	4	-1E+10	1	-1E+10	1	-1E+10	1	-1E+10	1	-1E+10	1	-1E+10	1
4902551	59	C	03/29/2022	15:06	-131.906	49.847	0	108.00	0	6.9620	0	32.7090	0	25.621	0	107.048	0	235.4	4	78.8	4	-1E+10	1	-1E+10	1	-1E+10	1	-1E+10	1	-1E+10	1	-1E+10	1
4902551	59	C	03/29/2022	15:06	-131.906	49.847	0	109.10	0	6.9030	0	32.7530	0	25.663	0	108.138	0	232.6	4	77.8	4	-1E+10	1	-1E+10	1	-1E+10	1	-1E+10	1	-1E+10	1	-1E+10	1
4902551	59	C	03/29/2022	15:06	-131.906	49.847	0	109.90	0	6.8840	0	32.7770	0	25.685	0	108.930	0	230.8	4	77.2	4	-1E+10	1	-1E+10	1	-1E+10	1	-1E+10	1	-1E+10	1	-1E+10	1
4902551	59	C	03/29/2022	15:06	-131.906	49.847	0	110.90	0	6.8850	0	32.8080	0	25.709	0	109.921	0	228.5	4	76.4	4	-1E+10	1	-1E+10	1	-1E+10	1	-1E+10	1	-1E+10	1	-1E+10	1
4902551	59	C	03/29/2022	15:06	-131.906	49.847	0	111.80	0	6.8800	0	32.8230	0	25.722	0	110.813	0	226.4	4	75.7	4	-1E+10	1	-1E+10	1	-1E+10	1	-1E+10	1	-1E+10	1	-1E+10	1
4902551	59	C	03/29/2022	15:06	-131.906	49.847	0	112.90	0	6.8680	0	32.8380	0	25.735	0	111.903	0	223.5	4	74.8	4	-1E+10	1	-1E+10	1	-1E+10	1	-1E+10	1	-1E+10	1	-1E+10	1
4902551	59	C	03/29/2022	15:06	-131.906	49.847	0	114.10	0	6.8530	0	32.8460	0	25.743	0	113.092	0	220.1	4	73.6	4	-1E+10	1	-1E+10	1	-1E+10	1	-1E+10	1	-1E+10	1	-1E+10	1
4902551	59	C	03/29/2022	15:06	-131.906	49.847	0	115.00	0	6.8480	0	32.8710	0	25.764	0	113.984	0	214.3	4	71.6	4	-1E+10	1	-1E+10	1	-1E+10	1	-1E+10	1	-1E+10	1	-1E+10	1
4902551	59	C	03/29/2022	15:06	-131.906	49.847	0	116.10	0	6.7870	0	32.9800	0	25.858	0	115.074	0	207.9	4	69.5	4	-1E+10	1	-1E+10	1	-1E+10	1	-1E+10	1	-1E+10	1	-1E+10	1
4902551	59	C	03/29/2022	15:06	-131.906	49.847	0	117.00	0	6.7270	0	33.0650	0	25.933	0	115.966	0	205.7	4	68.7	4	-1E+10	1	-1E+10	1	-1E+10	1	-1E+10	1	-1E+10	1	-1E+10	1
4902551	59	C	03/29/2022	15:06	-131.906	49.847	0	118.10	0	6.7030	0	33.0930	0	25.958	0	117.056	0	204.0	4	68.1	4	-1E+10	1	-1E+10	1	-1E+10	1	-1E+10	1	-1E+10	1	-1E+10	1
4902551	59	C	03/29/2022	15:06	-131.906	49.847	0	118.90	0	6.6960	0	33.0990	0	25.964	0	117.848	0	202.5	4	67.6	4	-1E+10	1	-1E+10	1	-1E+10	1	-1E+10	1	-1E+10	1	-1E+10	1
4902551	59	C	03/29/2022	15:06	-131.906	49.847	0	119.90	0	6.6820	0	33.1170	0	25.980	0	118.839	0	200.5	4	66.9	4	-1E+10	1	-1E+10	1	-1E+10	1	-1E+10	1	-1E+10	1	-1E+10	1
4902551	59	C	03/29/2022	15:06	-131.906	49.847	0	120.90	0	6.6580	0	33.1500	0	26.009	0	119.830	0	198.8	4	66.3	4	-1E+10	1	-1E+10	1	-1E+10	1	-1E+10	1	-1E+10	1	-1E+10	1
4902551	59	C	03/29/2022	15:06	-131.906	49.847	0	121.90	0	6.6410	0	33.1810	0	26.035	0	120.821	0	197.1	4	65.7	4	-1E+10	1	-1E+10	1	-1E+10	1	-1E+10	1	-1E+10	1	-1E+10	1
4902551	59	C	03/29/2022	15:06	-131.906	49.847	0	123.00	0	6.6330	0	33.2010	0	26.052	0	121.911	0	195.3	4	65.1	4	-1E+10	1	-1E+10	1	-1E+10	1	-1E+10	1	-1E+10	1	-1E+10	1
4902551	59	C	03/29/2022	15:06	-131.906	49.847	0	124.00	0	6.6280	0	33.2200	0	26.068	0	122.902	0	193.5	4	64.5	4	-1E+10	1	-1E+10	1	-1E+10	1	-1E+10	1	-1E+10	1	-1E+10	1
4902551	59	C	03/29/2022	15:06	-131.906	49.847	0	125.00	0	6.5870	0	33.2580	0	26.103	0	123.893	0	191.8	4	63.9	4	-1E+10	1	-1E+10	1	-1E+10	1	-1E+10	1	-1E+10	1	-1E+10	1
4902551	59	C	03/29/2022	15:06	-131.906	49.847	0	126.00	0	6.5490	0	33.2910	0	26.134	0	124.883	0	190.3	4	63.4	4	-1E+10	1	-1E+10	1	-1E+10	1	-1E+10	1	-1E+10	1	-1E+10	1
4902551	59	C	03/29/2022	15:06	-131.906	49.847	0	127.00	0	6.5370	0	33.3000	0	26.143	0	125.874	0	188.6	4	62.8	4	-1E+10	1	-1E+10	1	-1E+10	1	-1E+10	1	-1E+10	1	-1E+10	1
4902551	59	C	03/29/2022	15:06	-131.906	49.847	0	128.20	0	6.5200	0	33.3220	0	26.162	0	127.063	0	185.8	4	61.9	4	-1E+10	1	-1E+10	1	-1E+10	1	-1E+10	1	-1E+10	1	-1E+10	1
4902551	59	C	03/29/2022	15:06	-131.906	49.847	0	129.00	0	6.4950	0	33.3620	0	26.197	0	127.856	0	184.4	4	61.4	4	-1E+10	1	-1E+10	1	-1E+10	1	-1E+10	1	-1E+10	1	-1E+10	1
4902551	59	C	03/29/2022	15:06	-131.906	49.847	0	130.00	0	6.4910	0	33.3680	0	26.202	0	128.847	0	182.1	4	60.6	4	-1E+10	1	-1E+10	1	-1E+10	1	-1E+10	1	-1E+10	1	-1E+10	1
4902551	59	C	03/29/2022	15:06	-131.906	49.847	0	130.90	0	6.4850	0	33.3850	0	26.217	0	129.738	0	180.1	4	59.9	4	-1E+10	1	-1E+10	1	-1E+10	1	-1E+10	1	-1E+10	1	-1E+10	1
4902551	59	C	03/29/2022	15:06	-131.906	49.847	0	131.80	0	6.4660	0	33.4130	0	26.241	0	130.630	0	177.6	4	59.1	4	-1E+10	1	-1E+10	1	-1E+10	1	-1E+10	1	-1E+10	1	-1E+10	1
4902551	59	C	03/29/2022	15:06	-131.906	49.847	0	133.00	0	6.4380	0	33.4550	0	26.278	0	131.819	0	175.7	4	58.5	4	-1E+10	1	-1E+10	1	-1E+10	1	-1E+10	1	-1E+10	1	-1E+10	1
4902551	59	C	03/29/2022	15:06	-131.906	49.847	0	133.80	0	6.4220	0	33.4890	0	26.307	0	132.612	0	175.1	4	58.2	4	-1E+10	1	-1E+10	1	-1E+10	1	-1E+10	1	-1E+10	1	-1E+10	1
4902551	59	C	03/29/2022	15:06	-131.906	49.847	0	134.90	0	6.4110	0	33.5130	0	26.327	0	133.702	0	174.4	4	58.0	4	-1E+10	1	-1E+10	1	-1E+10	1	-1E+10	1	-1E+10	1	-1E+10	1
4902551	59	C	03/29/2022	15:06	-131.906	49.847	0	136.10	0	6.4220	0	33.5380	0	26.346	0	134.891	0	173.5	4	57.7	4	-1E+10	1	-1E+10	1	-1E+10	1	-1E+10	1	-1E+10	1	-1E+10	1
4902551	59	C	03/29/2022	15:06	-131.906	49.847	0	137.00	0	6.4160	0	33.5430	0	26.350	0	135.782	0	173.0	4	57.5	4	-1E+10	1	-1E+10	1	-1E+10	1	-1E+10	1	-1E+10	1	-1E+10	1
4902551	59	C	03/29/2022	15:06	-131.906	49.847	0	137.80	0	6.3980	0	33.5530	0	26.361	0	136.575	0	172.6	4	57.4	4	-1E+10	1	-1E+10	1	-1E+10	1	-1E+10	1	-1E+10	1	-1E+10	1
4902551	59	C	03/29/2022	15:06	-131.906	49.847	0	138.60	0	6.3780	0	33.5680	0	26.375	0	137.368	0	172.2	4	57.2	4	-1E+10	1	-1E+10	1	-1E+10	1	-1E+10	1	-1E+10	1	-1E+10	1
4902551	59	C	03/29/2022	15:06	-131.906	49.847	0	139.90	0	6.3680	0	33.5760	0	26.383	0	138.656	0	171.8	4	57.1	4	-1E+10	1	-1E+10	1	-1E+10	1	-1E+10	1	-1E+10	1	-1E+10	1
4902551	59	C	03/29/2022	15:06	-131.906	49.847	0	141.20	0	6.3670	0	33.5810	0	26.387	0	139.944	0	171.4	4	57.0	4	-1E+10	1	-1E+10	1	-1E+10	1	-1E+10	1	-1E+10	1	-1E+10	1
4902551	59	C	03/29/2022	15:06	-131.906	49.847	0	142.00	0	6.3660	0	33.5850	0	26.390	0	140.736	0	171.2	4	56.9	4	-1E+10	1	-1E+10	1	-1E+10	1	-1E+10	1	-1E+10	1	-1E+10	1
4902551	59	C	03/29/2022	15:06	-131.906	49.847	0	142.80	0	6.3710	0	33.5880	0	26.392	0	141.529	0	170.9	4	56.8	4	-1E+10	1	-1E+10	1	-1E+10	1	-1E+10	1	-1E+10	1	-1E+10	1
4902551	59	C	03/29/2022	15:06	-131.906	49.847	0	143.70	0	6.3910	0	33.5940	0	26.394	0	142.420	0	170.5	4	56.7	4	-1E+10	1	-1E+10	1	-1E+10	1	-1E+10	1	-1E+10	1	-1E+10	1
4902551	59	C	03/29/2022	15:06	-131.906	49.847	0	144.90	0	6.3900	0	33.6000	0	26.399	0	143.609	0	169.8	4	56.5	4	-1E+10	1	-1E+10	1	-1E+10	1	-1E+10	1	-1E+10	1	-1E+10	1
4902551	59	C	03/29/2022	15:06	-131.906	49.847	0	146.10	0	6.3850	0	33.6040	0	26.403	0	144.798	0	169.2	4	56.3	4	-1E+10	1	-1E+10	1	-1E+10	1	-1E+10	1	-1E+10	1	-1E+10	1
4902551	59	C	03/29/2022	15:06	-131.906	49.847	0	146.90	0	6.4010	0	33.6140	0	26.408	0	145.591	0	168.7	4	56.1	4	-1E+10	1	-1E+10	1	-1E+10	1	-1E+10	1	-1E+10	1	-1E+10	1
4902551	59	C	03/29/2022	15:06	-131.906	49.847	0	147.70	0	6.3970	0	33.6180	0	26.412	0	146.383	0	168.2	4	56.0	4	-1E+10	1	-1E+10	1	-1E+10	1	-1E+10	1	-1E+10	1	-1E+10	1
4902551	59	C	03/29/2022	15:06	-131.906	49.847	0	148.80	0	6.3980	0	33.6270	0	26.419	0	147.473	0	167.4	4	55.7	4	-1E+10	1	-1E+10	1	-1E+10	1	-1E+10	1	-1E+10	1	-1E+10	1
4902551	59	C	03/29/2022	15:06	-131.906	49.847	0	150.00	0	6.3880	0	33.6380	0	26.429	0	148.662	0	166.7	4	55.5	4	-1E+10	1	-1E+10	1	-1E+10	1	-1E+10	1	-1E+10	1	-1E+10	1
4902551	59	C	03/29/2022	15:06	-131.906	49.847	0	150.80	0	6.3760	0	33.6470	0	26.438	0	149.455	0	166.3	4	55.3	4	-1E+10	1	-1E+10	1	-1E+10	1	-1E+10	1	-1E+10	1	-1E+10	1
4902551	59	C	03/29/2022	15:06	-131.906	49.847	0	151.90	0	6.3630	0	33.6600	0	26.450	0	150.544	0	165.7	4	55.1	4	-1E+10	1	-1E+10	1	-1E+10	1	-1E+10	1	-1E+10	1	-1E+10	1
4902551	59	C	03/29/2022	15:06	-131.906	49.847	0	153.10	0	6.3600	0	33.6650	0	26.454	0	151.733	0	165.2	4	55.0	4	-1E+10	1	-1E+10	1	-1E+10	1	-1E+10	1	-1E+10	1	-1E+10	1
4902551	59	C	03/29/2022	15:06	-131.906	49.847	0	153.90	0	6.3640	0	33.6690	0	26.457	0	152.526	0	164.9	4	54.8	4	-1E+10	1	-1E+10	1	-1E+10	1	-1E+10	1	-1E+10	1	-1E+10	1
4902551	59	C	03/29/2022	15:06	-131.906	49.847	0	154.70	0	6.3650	0	33.6700	0	26.457	0	153.318	0	164.4	4	54.7	4	-1E+10	1	-1E+10	1	-1E+10	1	-1E+10	1	-1E+10	1	-1E+10	1
4902551	59	C	03/29/2022	15:06	-131.906	49.847	0	155.90	0	6.3620	0	33.6790	0	26.465	0	154.507	0	163.7	4	54.4	4	-1E+10	1	-1E+10	1	-1E+10	1	-1E+10	1	-1E+10	1	-1E+10	1
4902551	59	C	03/29/2022	15:06	-131.906	49.847	0	157.10	0	6.3670	0	33.7010	0	26.482	0	155.696	0	163.0	4	54.2	4	-1E+10	1	-1E+10	1	-1E+10	1	-1E+10	1	-1E+10	1	-1E+10	1
4902551	59	C	03/29/2022	15:06	-131.906	49.847	0	157.90	0	6.3780	0	33.7070	0	26.485	0	156.489	0	162.5	4	54.1	4	-1E+10	1	-1E+10	1	-1E+10	1	-1E+10	1	-1E+10	1	-1E+10	1
4902551	59	C	03/29/2022	15:06	-131.906	49.847	0	158.70	0	6.4040	0	33.7290	0	26.499	0	157.281	0	162.1	4	54.0	4	-1E+10	1	-1E+10	1	-1E+10	1	-1E+10	1	-1E+10	1	-1E+10	1
4902551	59	C	03/29/2022	15:06	-131.906	49.847	0	159.90	0	6.4250	0	33.7280	0	26.495	0	158.470	0	161.5	4	53.8	4	-1E+10	1	-1E+10	1	-1E+10	1	-1E+10	1	-1E+10	1	-1E+10	1
4902551	59	C	03/29/2022	15:06	-131.906	49.847	0	161.10	0	6.4440	0	33.7440	0	26.506	0	159.659	0	160.7	4	53.6	4	-1E+10	1	-1E+10	1	-1E+10	1	-1E+10	1	-1E+10	1	-1E+10	1
4902551	59	C	03/29/2022	15:06	-131.906	49.847	0	161.90	0	6.4400	0	33.7430	0	26.505	0	160.451	0	160.3	4	53.4	4	-1E+10	1	-1E+10	1	-1E+10	1	-1E+10	1	-1E+10	1	-1E+10	1
4902551	59	C	03/29/2022	15:06	-131.906	49.847	0	162.70	0	6.4340	0	33.7450	0	26.508	0	161.244	0	159.8	4	53.3	4	-1E+10	1	-1E+10	1	-1E+10	1	-1E+10	1	-1E+10	1	-1E+10	1
4902551	59	C	03/29/2022	15:06	-131.906	49.847	0	163.90	0	6.4090	0	33.7480	0	26.513	0	162.433	0	159.0	4	53.0	4	-1E+10	1	-1E+10	1	-1E+10	1	-1E+10	1	-1E+10	1	-1E+10	1
4902551	59	C	03/29/2022	15:06	-131.906	49.847	0	165.20	0	6.3490	0	33.7420	0	26.516	0	163.721	0	158.4	4	52.7	4	-1E+10	1	-1E+10	1	-1E+10	1	-1E+10	1	-1E+10	1	-1E+10	1
4902551	59	C	03/29/2022	15:06	-131.906	49.847	0	166.10	0	6.3410	0	33.7420	0	26.517	0	164.612	0	157.9	4	52.5	4	-1E+10	1	-1E+10	1	-1E+10	1	-1E+10	1	-1E+10	1	-1E+10	1
4902551	59	C	03/29/2022	15:06	-131.906	49.847	0	166.90	0	6.3930	0	33.7540	0	26.520	0	165.405	0	157.3	4	52.4	4	-1E+10	1	-1E+10	1	-1E+10	1	-1E+10	1	-1E+10	1	-1E+10	1
4902551	59	C	03/29/2022	15:06	-131.906	49.847	0	167.80	0	6.4500	0	33.7750	0	26.529	0	166.296	0	156.6	4	52.2	4	-1E+10	1	-1E+10	1	-1E+10	1	-1E+10	1	-1E+10	1	-1E+10	1
4902551	59	C	03/29/2022	15:06	-131.906	49.847	0	168.60	0	6.4620	0	33.7760	0	26.529	0	167.089	0	156.0	4	52.0	4	-1E+10	1	-1E+10	1	-1E+10	1	-1E+10	1	-1E+10	1	-1E+10	1
4902551	59	C	03/29/2022	15:06	-131.906	49.847	0	169.90	0	6.4460	0	33.7780	0	26.532	0	168.377	0	155.1	4	51.7	4	-1E+10	1	-1E+10	1	-1E+10	1	-1E+10	1	-1E+10	1	-1E+10	1
4902551	59	C	03/29/2022	15:06	-131.906	49.847	0	171.30	0	6.3970	0	33.7760	0	26.537	0	169.763	0	154.2	4	51.4	4	-1E+10	1	-1E+10	1	-1E+10	1	-1E+10	1	-1E+10	1	-1E+10	1
4902551	59	C	03/29/2022	15:06	-131.906	49.847	0	172.20	0	6.3810	0	33.7730	0	26.537	0	170.655	0	153.6	4	51.1	4	-1E+10	1	-1E+10	1	-1E+10	1	-1E+10	1	-1E+10	1	-1E+10	1
4902551	59	C	03/29/2022	15:06	-131.906	49.847	0	173.00	0	6.3410	0	33.7700	0	26.539	0	171.447	0	153.0	4	50.9	4	-1E+10	1	-1E+10	1	-1E+10	1	-1E+10	1	-1E+10	1	-1E+10	1
4902551	59	C	03/29/2022	15:06	-131.906	49.847	0	173.90	0	6.2750	0	33.7790	0	26.555	0	172.339	0	152.4	4	50.6	4	-1E+10	1	-1E+10	1	-1E+10	1	-1E+10	1	-1E+10	1	-1E+10	1
4902551	59	C	03/29/2022	15:06	-131.906	49.847	0	174.90	0	6.2560	0	33.7670	0	26.548	0	173.330	0	152.0	4	50.5	4	-1E+10	1	-1E+10	1	-1E+10	1	-1E+10	1	-1E+10	1	-1E+10	1
4902551	59	C	03/29/2022	15:06	-131.906	49.847	0	175.70	0	6.2550	0	33.7700	0	26.551	0	174.122	0	151.4	4	50.3	4	-1E+10	1	-1E+10	1	-1E+10	1	-1E+10	1	-1E+10	1	-1E+10	1
4902551	59	C	03/29/2022	15:06	-131.906	49.847	0	176.70	0	6.2560	0	33.7710	0	26.551	0	175.113	0	150.8	4	50.1	4	-1E+10	1	-1E+10	1	-1E+10	1	-1E+10	1	-1E+10	1	-1E+10	1
4902551	59	C	03/29/2022	15:06	-131.906	49.847	0	177.60	0	6.2480	0	33.7710	0	26.552	0	176.004	0	150.1	4	49.8	4	-1E+10	1	-1E+10	1	-1E+10	1	-1E+10	1	-1E+10	1	-1E+10	1
4902551	59	C	03/29/2022	15:06	-131.906	49.847	0	178.90	0	6.2390	0	33.7710	0	26.553	0	177.292	0	148.9	4	49.4	4	-1E+10	1	-1E+10	1	-1E+10	1	-1E+10	1	-1E+10	1	-1E+10	1
4902551	59	C	03/29/2022	15:06	-131.906	49.847	0	180.30	0	6.2240	0	33.7750	0	26.558	0	178.679	0	147.6	4	49.0	4	-1E+10	1	-1E+10	1	-1E+10	1	-1E+10	1	-1E+10	1	-1E+10	1
4902551	59	C	03/29/2022	15:06	-131.906	49.847	0	181.30	0	6.2170	0	33.7790	0	26.563	0	179.669	0	146.6	4	48.6	4	-1E+10	1	-1E+10	1	-1E+10	1	-1E+10	1	-1E+10	1	-1E+10	1
4902551	59	C	03/29/2022	15:06	-131.906	49.847	0	182.20	0	6.1390	0	33.7780	0	26.572	0	180.561	0	145.9	4	48.3	4	-1E+10	1	-1E+10	1	-1E+10	1	-1E+10	1	-1E+10	1	-1E+10	1
4902551	59	C	03/29/2022	15:06	-131.906	49.847	0	183.20	0	6.0990	0	33.7830	0	26.581	0	181.551	0	145.2	4	48.0	4	-1E+10	1	-1E+10	1	-1E+10	1	-1E+10	1	-1E+10	1	-1E+10	1
4902551	59	C	03/29/2022	15:06	-131.906	49.847	0	184.10	0	6.0820	0	33.7760	0	26.577	0	182.443	0	144.6	4	47.8	4	-1E+10	1	-1E+10	1	-1E+10	1	-1E+10	1	-1E+10	1	-1E+10	1
4902551	59	C	03/29/2022	15:06	-131.906	49.847	0	185.10	0	6.0770	0	33.7760	0	26.578	0	183.434	0	143.9	4	47.6	4	-1E+10	1	-1E+10	1	-1E+10	1	-1E+10	1	-1E+10	1	-1E+10	1
4902551	59	C	03/29/2022	15:06	-131.906	49.847	0	186.00	0	6.0290	0	33.7830	0	26.589	0	184.325	0	143.3	4	47.3	4	-1E+10	1	-1E+10	1	-1E+10	1	-1E+10	1	-1E+10	1	-1E+10	1
4902551	59	C	03/29/2022	15:06	-131.906	49.847	0	187.00	0	5.9980	0	33.7820	0	26.593	0	185.316	0	143.0	4	47.2	4	-1E+10	1	-1E+10	1	-1E+10	1	-1E+10	1	-1E+10	1	-1E+10	1
4902551	59	C	03/29/2022	15:06	-131.906	49.847	0	187.90	0	5.9920	0	33.7800	0	26.592	0	186.207	0	142.6	4	47.0	4	-1E+10	1	-1E+10	1	-1E+10	1	-1E+10	1	-1E+10	1	-1E+10	1
4902551	59	C	03/29/2022	15:06	-131.906	49.847	0	188.90	0	5.9830	0	33.7810	0	26.594	0	187.198	0	142.2	4	46.9	4	-1E+10	1	-1E+10	1	-1E+10	1	-1E+10	1	-1E+10	1	-1E+10	1
4902551	59	C	03/29/2022	15:06	-131.906	49.847	0	189.90	0	5.9750	0	33.7810	0	26.595	0	188.188	0	141.9	4	46.8	4	-1E+10	1	-1E+10	1	-1E+10	1	-1E+10	1	-1E+10	1	-1E+10	1
4902551	59	C	03/29/2022	15:06	-131.906	49.847	0	190.90	0	5.9760	0	33.7810	0	26.595	0	189.179	0	141.5	4	46.7	4	-1E+10	1	-1E+10	1	-1E+10	1	-1E+10	1	-1E+10	1	-1E+10	1
4902551	59	C	03/29/2022	15:06	-131.906	49.847	0	191.80	0	5.9750	0	33.7810	0	26.595	0	190.070	0	141.0	4	46.5	4	-1E+10	1	-1E+10	1	-1E+10	1	-1E+10	1	-1E+10	1	-1E+10	1
4902551	59	C	03/29/2022	15:06	-131.906	49.847	0	192.80	0	5.9740	0	33.7800	0	26.594	0	191.061	0	140.5	4	46.3	4	-1E+10	1	-1E+10	1	-1E+10	1	-1E+10	1	-1E+10	1	-1E+10	1
4902551	59	C	03/29/2022	15:06	-131.906	49.847	0	193.80	0	5.9700	0	33.7820	0	26.596	0	192.051	0	140.0	4	46.2	4	-1E+10	1	-1E+10	1	-1E+10	1	-1E+10	1	-1E+10	1	-1E+10	1
4902551	59	C	03/29/2022	15:06	-131.906	49.847	0	194.70	0	5.9690	0	33.7810	0	26.595	0	192.943	0	139.3	4	46.0	4	-1E+10	1	-1E+10	1	-1E+10	1	-1E+10	1	-1E+10	1	-1E+10	1
4902551	59	C	03/29/2022	15:06	-131.906	49.847	0	195.70	0	5.9460	0	33.7880	0	26.604	0	193.933	0	138.8	4	45.8	4	-1E+10	1	-1E+10	1	-1E+10	1	-1E+10	1	-1E+10	1	-1E+10	1
4902551	59	C	03/29/2022	15:06	-131.906	49.847	0	196.60	0	5.9420	0	33.7840	0	26.601	0	194.825	0	138.2	4	45.6	4	-1E+10	1	-1E+10	1	-1E+10	1	-1E+10	1	-1E+10	1	-1E+10	1
4902551	59	C	03/29/2022	15:06	-131.906	49.847	0	197.50	0	5.9400	0	33.7850	0	26.602	0	195.716	0	137.6	4	45.4	4	-1E+10	1	-1E+10	1	-1E+10	1	-1E+10	1	-1E+10	1	-1E+10	1
4902551	59	C	03/29/2022	15:06	-131.906	49.847	0	198.90	0	5.9230	0	33.7900	0	26.608	0	197.103	0	136.7	4	45.1	4	-1E+10	1	-1E+10	1	-1E+10	1	-1E+10	1	-1E+10	1	-1E+10	1
4902551	59	C	03/29/2022	15:06	-131.906	49.847	0	200.30	0	5.9110	0	33.7970	0	26.615	0	198.489	0	136.2	4	44.9	4	-1E+10	1	-1E+10	1	-1E+10	1	-1E+10	1	-1E+10	1	-1E+10	1
4902551	59	C	03/29/2022	15:06	-131.906	49.847	0	201.30	0	5.9080	0	33.7980	0	26.617	0	199.480	0	135.9	4	44.7	4	-1E+10	1	-1E+10	1	-1E+10	1	-1E+10	1	-1E+10	1	-1E+10	1
4902551	59	C	03/29/2022	15:06	-131.906	49.847	0	202.20	0	5.9090	0	33.7970	0	26.616	0	200.371	0	135.5	4	44.6	4	-1E+10	1	-1E+10	1	-1E+10	1	-1E+10	1	-1E+10	1	-1E+10	1
4902551	59	C	03/29/2022	15:06	-131.906	49.847	0	203.10	0	5.9080	0	33.7980	0	26.617	0	201.263	0	135.0	4	44.5	4	-1E+10	1	-1E+10	1	-1E+10	1	-1E+10	1	-1E+10	1	-1E+10	1
4902551	59	C	03/29/2022	15:06	-131.906	49.847	0	204.10	0	5.8950	0	33.8000	0	26.620	0	202.253	0	134.6	4	44.3	4	-1E+10	1	-1E+10	1	-1E+10	1	-1E+10	1	-1E+10	1	-1E+10	1
4902551	59	C	03/29/2022	15:06	-131.906	49.847	0	205.10	0	5.8740	0	33.7950	0	26.618	0	203.244	0	134.1	4	44.2	4	-1E+10	1	-1E+10	1	-1E+10	1	-1E+10	1	-1E+10	1	-1E+10	1
4902551	59	C	03/29/2022	15:06	-131.906	49.847	0	206.00	0	5.8730	0	33.8000	0	26.623	0	204.135	0	133.7	4	44.0	4	-1E+10	1	-1E+10	1	-1E+10	1	-1E+10	1	-1E+10	1	-1E+10	1
4902551	59	C	03/29/2022	15:06	-131.906	49.847	0	207.00	0	5.8410	0	33.7980	0	26.625	0	205.125	0	133.2	4	43.8	4	-1E+10	1	-1E+10	1	-1E+10	1	-1E+10	1	-1E+10	1	-1E+10	1
4902551	59	C	03/29/2022	15:06	-131.906	49.847	0	208.00	0	5.8190	0	33.8020	0	26.631	0	206.116	0	132.9	4	43.7	4	-1E+10	1	-1E+10	1	-1E+10	1	-1E+10	1	-1E+10	1	-1E+10	1
4902551	59	C	03/29/2022	15:06	-131.906	49.847	0	208.90	0	5.8170	0	33.8020	0	26.631	0	207.007	0	132.6	4	43.6	4	-1E+10	1	-1E+10	1	-1E+10	1	-1E+10	1	-1E+10	1	-1E+10	1
4902551	59	C	03/29/2022	15:06	-131.906	49.847	0	209.90	0	5.8160	0	33.8010	0	26.630	0	207.998	0	132.3	4	43.5	4	-1E+10	1	-1E+10	1	-1E+10	1	-1E+10	1	-1E+10	1	-1E+10	1
4902551	59	C	03/29/2022	15:06	-131.906	49.847	0	210.80	0	5.7830	0	33.8040	0	26.637	0	208.889	0	132.1	4	43.4	4	-1E+10	1	-1E+10	1	-1E+10	1	-1E+10	1	-1E+10	1	-1E+10	1
4902551	59	C	03/29/2022	15:06	-131.906	49.847	0	211.80	0	5.7730	0	33.7990	0	26.634	0	209.880	0	131.9	4	43.3	4	-1E+10	1	-1E+10	1	-1E+10	1	-1E+10	1	-1E+10	1	-1E+10	1
4902551	59	C	03/29/2022	15:06	-131.906	49.847	0	212.70	0	5.7700	0	33.8000	0	26.635	0	210.771	0	131.6	4	43.2	4	-1E+10	1	-1E+10	1	-1E+10	1	-1E+10	1	-1E+10	1	-1E+10	1
4902551	59	C	03/29/2022	15:06	-131.906	49.847	0	213.60	0	5.7680	0	33.7990	0	26.635	0	211.662	0	131.4	4	43.1	4	-1E+10	1	-1E+10	1	-1E+10	1	-1E+10	1	-1E+10	1	-1E+10	1
4902551	59	C	03/29/2022	15:06	-131.906	49.847	0	214.60	0	5.7660	0	33.7990	0	26.635	0	212.653	0	131.1	4	43.0	4	-1E+10	1	-1E+10	1	-1E+10	1	-1E+10	1	-1E+10	1	-1E+10	1
4902551	59	C	03/29/2022	15:06	-131.906	49.847	0	215.90	0	5.7630	0	33.8000	0	26.636	0	213.940	0	130.6	4	42.9	4	-1E+10	1	-1E+10	1	-1E+10	1	-1E+10	1	-1E+10	1	-1E+10	1
4902551	59	C	03/29/2022	15:06	-131.906	49.847	0	217.30	0	5.7530	0	33.8020	0	26.639	0	215.327	0	130.0	4	42.7	4	-1E+10	1	-1E+10	1	-1E+10	1	-1E+10	1	-1E+10	1	-1E+10	1
4902551	59	C	03/29/2022	15:06	-131.906	49.847	0	218.30	0	5.7510	0	33.8000	0	26.638	0	216.317	0	129.6	4	42.5	4	-1E+10	1	-1E+10	1	-1E+10	1	-1E+10	1	-1E+10	1	-1E+10	1
4902551	59	C	03/29/2022	15:06	-131.906	49.847	0	219.20	0	5.7520	0	33.8000	0	26.638	0	217.209	0	129.1	4	42.4	4	-1E+10	1	-1E+10	1	-1E+10	1	-1E+10	1	-1E+10	1	-1E+10	1
4902551	59	C	03/29/2022	15:06	-131.906	49.847	0	220.10	0	5.7460	0	33.7990	0	26.637	0	218.100	0	128.7	4	42.2	4	-1E+10	1	-1E+10	1	-1E+10	1	-1E+10	1	-1E+10	1	-1E+10	1
4902551	59	C	03/29/2022	15:06	-131.906	49.847	0	221.10	0	5.7400	0	33.8000	0	26.639	0	219.090	0	128.1	4	42.0	4	-1E+10	1	-1E+10	1	-1E+10	1	-1E+10	1	-1E+10	1	-1E+10	1
4902551	59	C	03/29/2022	15:06	-131.906	49.847	0	222.00	0	5.7340	0	33.7990	0	26.639	0	219.982	0	127.5	4	41.8	4	-1E+10	1	-1E+10	1	-1E+10	1	-1E+10	1	-1E+10	1	-1E+10	1
4902551	59	C	03/29/2022	15:06	-131.906	49.847	0	222.90	0	5.7330	0	33.7990	0	26.639	0	220.873	0	126.9	4	41.6	4	-1E+10	1	-1E+10	1	-1E+10	1	-1E+10	1	-1E+10	1	-1E+10	1
4902551	59	C	03/29/2022	15:06	-131.906	49.847	0	223.80	0	5.7320	0	33.7980	0	26.638	0	221.764	0	126.2	4	41.4	4	-1E+10	1	-1E+10	1	-1E+10	1	-1E+10	1	-1E+10	1	-1E+10	1
4902551	59	C	03/29/2022	15:06	-131.906	49.847	0	224.70	0	5.7300	0	33.7980	0	26.639	0	222.656	0	125.4	4	41.1	4	-1E+10	1	-1E+10	1	-1E+10	1	-1E+10	1	-1E+10	1	-1E+10	1
4902551	59	C	03/29/2022	15:06	-131.906	49.847	0	225.60	0	5.7220	0	33.7980	0	26.640	0	223.547	0	124.5	4	40.8	4	-1E+10	1	-1E+10	1	-1E+10	1	-1E+10	1	-1E+10	1	-1E+10	1
4902551	59	C	03/29/2022	15:06	-131.906	49.847	0	226.60	0	5.7070	0	33.8070	0	26.649	0	224.537	0	123.6	4	40.5	4	-1E+10	1	-1E+10	1	-1E+10	1	-1E+10	1	-1E+10	1	-1E+10	1
4902551	59	C	03/29/2022	15:06	-131.906	49.847	0	227.90	0	5.6620	0	33.8000	0	26.649	0	225.825	0	122.5	4	40.1	4	-1E+10	1	-1E+10	1	-1E+10	1	-1E+10	1	-1E+10	1	-1E+10	1
4902551	59	C	03/29/2022	15:06	-131.906	49.847	0	229.40	0	5.6420	0	33.8030	0	26.653	0	227.310	0	121.2	4	39.7	4	-1E+10	1	-1E+10	1	-1E+10	1	-1E+10	1	-1E+10	1	-1E+10	1
4902551	59	C	03/29/2022	15:06	-131.906	49.847	0	230.30	0	5.6260	0	33.8020	0	26.654	0	228.202	0	120.4	4	39.4	4	-1E+10	1	-1E+10	1	-1E+10	1	-1E+10	1	-1E+10	1	-1E+10	1
4902551	59	C	03/29/2022	15:06	-131.906	49.847	0	231.20	0	5.6070	0	33.8040	0	26.658	0	229.093	0	119.7	4	39.1	4	-1E+10	1	-1E+10	1	-1E+10	1	-1E+10	1	-1E+10	1	-1E+10	1
4902551	59	C	03/29/2022	15:06	-131.906	49.847	0	232.10	0	5.5670	0	33.8070	0	26.666	0	229.984	0	119.0	4	38.9	4	-1E+10	1	-1E+10	1	-1E+10	1	-1E+10	1	-1E+10	1	-1E+10	1
4902551	59	C	03/29/2022	15:06	-131.906	49.847	0	233.00	0	5.5500	0	33.8050	0	26.666	0	230.876	0	118.3	4	38.6	4	-1E+10	1	-1E+10	1	-1E+10	1	-1E+10	1	-1E+10	1	-1E+10	1
4902551	59	C	03/29/2022	15:06	-131.906	49.847	0	234.00	0	5.5340	0	33.8050	0	26.668	0	231.866	0	117.6	4	38.4	4	-1E+10	1	-1E+10	1	-1E+10	1	-1E+10	1	-1E+10	1	-1E+10	1
4902551	59	C	03/29/2022	15:06	-131.906	49.847	0	234.90	0	5.5260	0	33.8060	0	26.670	0	232.757	0	116.9	4	38.2	4	-1E+10	1	-1E+10	1	-1E+10	1	-1E+10	1	-1E+10	1	-1E+10	1
4902551	59	C	03/29/2022	15:06	-131.906	49.847	0	235.80	0	5.5100	0	33.8060	0	26.672	0	233.648	0	116.1	4	37.9	4	-1E+10	1	-1E+10	1	-1E+10	1	-1E+10	1	-1E+10	1	-1E+10	1
4902551	59	C	03/29/2022	15:06	-131.906	49.847	0	236.70	0	5.5090	0	33.8040	0	26.670	0	234.540	0	115.3	4	37.6	4	-1E+10	1	-1E+10	1	-1E+10	1	-1E+10	1	-1E+10	1	-1E+10	1
4902551	59	C	03/29/2022	15:06	-131.906	49.847	0	237.70	0	5.5060	0	33.8040	0	26.670	0	235.530	0	114.3	4	37.3	4	-1E+10	1	-1E+10	1	-1E+10	1	-1E+10	1	-1E+10	1	-1E+10	1
4902551	59	C	03/29/2022	15:06	-131.906	49.847	0	238.60	0	5.5000	0	33.8030	0	26.670	0	236.421	0	113.4	4	37.0	4	-1E+10	1	-1E+10	1	-1E+10	1	-1E+10	1	-1E+10	1	-1E+10	1
4902551	59	C	03/29/2022	15:06	-131.906	49.847	0	239.90	0	5.4840	0	33.8020	0	26.672	0	237.709	0	111.9	4	36.5	4	-1E+10	1	-1E+10	1	-1E+10	1	-1E+10	1	-1E+10	1	-1E+10	1
4902551	59	C	03/29/2022	15:06	-131.906	49.847	0	241.30	0	5.4320	0	33.8060	0	26.681	0	239.095	0	110.5	4	36.0	4	-1E+10	1	-1E+10	1	-1E+10	1	-1E+10	1	-1E+10	1	-1E+10	1
4902551	59	C	03/29/2022	15:06	-131.906	49.847	0	242.20	0	5.3960	0	33.8100	0	26.688	0	239.986	0	109.7	4	35.7	4	-1E+10	1	-1E+10	1	-1E+10	1	-1E+10	1	-1E+10	1	-1E+10	1
4902551	59	C	03/29/2022	15:06	-131.906	49.847	0	243.10	0	5.3640	0	33.8130	0	26.694	0	240.878	0	109.0	4	35.5	4	-1E+10	1	-1E+10	1	-1E+10	1	-1E+10	1	-1E+10	1	-1E+10	1
4902551	59	C	03/29/2022	15:06	-131.906	49.847	0	244.10	0	5.3390	0	33.8150	0	26.699	0	241.868	0	108.4	4	35.3	4	-1E+10	1	-1E+10	1	-1E+10	1	-1E+10	1	-1E+10	1	-1E+10	1
4902551	59	C	03/29/2022	15:06	-131.906	49.847	0	245.00	0	5.3100	0	33.8150	0	26.702	0	242.759	0	107.9	4	35.1	4	-1E+10	1	-1E+10	1	-1E+10	1	-1E+10	1	-1E+10	1	-1E+10	1
4902551	59	C	03/29/2022	15:06	-131.906	49.847	0	246.00	0	5.2760	0	33.8190	0	26.710	0	243.749	0	107.6	4	34.9	4	-1E+10	1	-1E+10	1	-1E+10	1	-1E+10	1	-1E+10	1	-1E+10	1
4902551	59	C	03/29/2022	15:06	-131.906	49.847	0	246.90	0	5.2660	0	33.8190	0	26.711	0	244.641	0	107.3	4	34.8	4	-1E+10	1	-1E+10	1	-1E+10	1	-1E+10	1	-1E+10	1	-1E+10	1
4902551	59	C	03/29/2022	15:06	-131.906	49.847	0	247.90	0	5.2570	0	33.8210	0	26.713	0	245.631	0	107.0	4	34.7	4	-1E+10	1	-1E+10	1	-1E+10	1	-1E+10	1	-1E+10	1	-1E+10	1
4902551	59	C	03/29/2022	15:06	-131.906	49.847	0	248.80	0	5.2520	0	33.8210	0	26.714	0	246.522	0	106.6	4	34.6	4	-1E+10	1	-1E+10	1	-1E+10	1	-1E+10	1	-1E+10	1	-1E+10	1
4902551	59	C	03/29/2022	15:06	-131.906	49.847	0	249.80	0	5.2510	0	33.8210	0	26.714	0	247.512	0	106.2	4	34.5	4	-1E+10	1	-1E+10	1	-1E+10	1	-1E+10	1	-1E+10	1	-1E+10	1
4902551	59	C	03/29/2022	15:06	-131.906	49.847	0	250.80	0	5.2490	0	33.8210	0	26.714	0	248.503	0	105.8	4	34.3	4	-1E+10	1	-1E+10	1	-1E+10	1	-1E+10	1	-1E+10	1	-1E+10	1
4902551	59	C	03/29/2022	15:06	-131.906	49.847	0	251.80	0	5.2410	0	33.8230	0	26.717	0	249.493	0	105.3	4	34.2	4	-1E+10	1	-1E+10	1	-1E+10	1	-1E+10	1	-1E+10	1	-1E+10	1
4902551	59	C	03/29/2022	15:06	-131.906	49.847	0	252.70	0	5.2380	0	33.8230	0	26.717	0	250.384	0	104.8	4	34.0	4	-1E+10	1	-1E+10	1	-1E+10	1	-1E+10	1	-1E+10	1	-1E+10	1
4902551	59	C	03/29/2022	15:06	-131.906	49.847	0	253.70	0	5.2350	0	33.8220	0	26.717	0	251.374	0	104.3	4	33.8	4	-1E+10	1	-1E+10	1	-1E+10	1	-1E+10	1	-1E+10	1	-1E+10	1
4902551	59	C	03/29/2022	15:06	-131.906	49.847	0	254.70	0	5.2300	0	33.8230	0	26.718	0	252.364	0	103.8	4	33.6	4	-1E+10	1	-1E+10	1	-1E+10	1	-1E+10	1	-1E+10	1	-1E+10	1
4902551	59	C	03/29/2022	15:06	-131.906	49.847	0	255.60	0	5.2180	0	33.8240	0	26.720	0	253.256	0	103.2	4	33.5	4	-1E+10	1	-1E+10	1	-1E+10	1	-1E+10	1	-1E+10	1	-1E+10	1
4902551	59	C	03/29/2022	15:06	-131.906	49.847	0	256.60	0	5.2050	0	33.8260	0	26.723	0	254.246	0	102.8	4	33.3	4	-1E+10	1	-1E+10	1	-1E+10	1	-1E+10	1	-1E+10	1	-1E+10	1
4902551	59	C	03/29/2022	15:06	-131.906	49.847	0	257.60	0	5.1900	0	33.8270	0	26.726	0	255.236	0	102.4	4	33.2	4	-1E+10	1	-1E+10	1	-1E+10	1	-1E+10	1	-1E+10	1	-1E+10	1
4902551	59	C	03/29/2022	15:06	-131.906	49.847	0	258.60	0	5.1630	0	33.8320	0	26.733	0	256.226	0	102.1	4	33.0	4	-1E+10	1	-1E+10	1	-1E+10	1	-1E+10	1	-1E+10	1	-1E+10	1
4902551	59	C	03/29/2022	15:06	-131.906	49.847	0	259.60	0	5.1500	0	33.8320	0	26.735	0	257.216	0	101.8	4	33.0	4	-1E+10	1	-1E+10	1	-1E+10	1	-1E+10	1	-1E+10	1	-1E+10	1
4902551	59	C	03/29/2022	15:06	-131.906	49.847	0	260.60	0	5.1460	0	33.8310	0	26.734	0	258.207	0	101.5	4	32.9	4	-1E+10	1	-1E+10	1	-1E+10	1	-1E+10	1	-1E+10	1	-1E+10	1
4902551	59	C	03/29/2022	15:06	-131.906	49.847	0	261.90	0	5.1370	0	33.8320	0	26.736	0	259.494	0	101.1	4	32.7	4	-1E+10	1	-1E+10	1	-1E+10	1	-1E+10	1	-1E+10	1	-1E+10	1
4902551	59	C	03/29/2022	15:06	-131.906	49.847	0	263.90	0	5.1250	0	33.8330	0	26.738	0	261.474	0	100.5	4	32.5	4	-1E+10	1	-1E+10	1	-1E+10	1	-1E+10	1	-1E+10	1	-1E+10	1
4902551	59	C	03/29/2022	15:06	-131.906	49.847	0	265.10	0	5.1230	0	33.8340	0	26.739	0	262.662	0	100.1	4	32.4	4	-1E+10	1	-1E+10	1	-1E+10	1	-1E+10	1	-1E+10	1	-1E+10	1
4902551	59	C	03/29/2022	15:06	-131.906	49.847	0	265.80	0	5.1210	0	33.8340	0	26.740	0	263.356	0	99.8	4	32.3	4	-1E+10	1	-1E+10	1	-1E+10	1	-1E+10	1	-1E+10	1	-1E+10	1
4902551	59	C	03/29/2022	15:06	-131.906	49.847	0	267.00	0	5.1170	0	33.8340	0	26.740	0	264.544	0	99.4	4	32.1	4	-1E+10	1	-1E+10	1	-1E+10	1	-1E+10	1	-1E+10	1	-1E+10	1
4902551	59	C	03/29/2022	15:06	-131.906	49.847	0	268.10	0	5.1160	0	33.8340	0	26.740	0	265.633	0	98.8	4	32.0	4	-1E+10	1	-1E+10	1	-1E+10	1	-1E+10	1	-1E+10	1	-1E+10	1
4902551	59	C	03/29/2022	15:06	-131.906	49.847	0	268.90	0	5.1140	0	33.8350	0	26.741	0	266.425	0	98.4	4	31.8	4	-1E+10	1	-1E+10	1	-1E+10	1	-1E+10	1	-1E+10	1	-1E+10	1
4902551	59	C	03/29/2022	15:06	-131.906	49.847	0	269.70	0	5.1110	0	33.8350	0	26.741	0	267.217	0	98.0	4	31.7	4	-1E+10	1	-1E+10	1	-1E+10	1	-1E+10	1	-1E+10	1	-1E+10	1
4902551	59	C	03/29/2022	15:06	-131.906	49.847	0	270.90	0	5.0980	0	33.8360	0	26.744	0	268.405	0	97.3	4	31.5	4	-1E+10	1	-1E+10	1	-1E+10	1	-1E+10	1	-1E+10	1	-1E+10	1
4902551	59	C	03/29/2022	15:06	-131.906	49.847	0	272.10	0	5.0830	0	33.8390	0	26.748	0	269.594	0	96.6	4	31.2	4	-1E+10	1	-1E+10	1	-1E+10	1	-1E+10	1	-1E+10	1	-1E+10	1
4902551	59	C	03/29/2022	15:06	-131.906	49.847	0	272.90	0	5.0740	0	33.8390	0	26.749	0	270.386	0	96.3	4	31.1	4	-1E+10	1	-1E+10	1	-1E+10	1	-1E+10	1	-1E+10	1	-1E+10	1
4902551	59	C	03/29/2022	15:06	-131.906	49.847	0	274.00	0	5.0570	0	33.8410	0	26.752	0	271.475	0	95.8	4	30.9	4	-1E+10	1	-1E+10	1	-1E+10	1	-1E+10	1	-1E+10	1	-1E+10	1
4902551	59	C	03/29/2022	15:06	-131.906	49.847	0	275.20	0	5.0450	0	33.8420	0	26.755	0	272.663	0	95.3	4	30.8	4	-1E+10	1	-1E+10	1	-1E+10	1	-1E+10	1	-1E+10	1	-1E+10	1
4902551	59	C	03/29/2022	15:06	-131.906	49.847	0	276.10	0	5.0330	0	33.8440	0	26.758	0	273.554	0	95.0	4	30.7	4	-1E+10	1	-1E+10	1	-1E+10	1	-1E+10	1	-1E+10	1	-1E+10	1
4902551	59	C	03/29/2022	15:06	-131.906	49.847	0	276.90	0	5.0280	0	33.8430	0	26.757	0	274.346	0	94.7	4	30.6	4	-1E+10	1	-1E+10	1	-1E+10	1	-1E+10	1	-1E+10	1	-1E+10	1
4902551	59	C	03/29/2022	15:06	-131.906	49.847	0	277.70	0	5.0280	0	33.8430	0	26.757	0	275.138	0	94.4	4	30.5	4	-1E+10	1	-1E+10	1	-1E+10	1	-1E+10	1	-1E+10	1	-1E+10	1
4902551	59	C	03/29/2022	15:06	-131.906	49.847	0	279.00	0	5.0250	0	33.8420	0	26.757	0	276.425	0	93.7	4	30.3	4	-1E+10	1	-1E+10	1	-1E+10	1	-1E+10	1	-1E+10	1	-1E+10	1
4902551	59	C	03/29/2022	15:06	-131.906	49.847	0	280.30	0	5.0060	0	33.8450	0	26.761	0	277.712	0	93.1	4	30.0	4	-1E+10	1	-1E+10	1	-1E+10	1	-1E+10	1	-1E+10	1	-1E+10	1
4902551	59	C	03/29/2022	15:06	-131.906	49.847	0	281.10	0	4.9830	0	33.8480	0	26.766	0	278.505	0	92.8	4	29.9	4	-1E+10	1	-1E+10	1	-1E+10	1	-1E+10	1	-1E+10	1	-1E+10	1
4902551	59	C	03/29/2022	15:06	-131.906	49.847	0	282.00	0	4.9760	0	33.8480	0	26.767	0	279.396	0	92.6	4	29.9	4	-1E+10	1	-1E+10	1	-1E+10	1	-1E+10	1	-1E+10	1	-1E+10	1
4902551	59	C	03/29/2022	15:06	-131.906	49.847	0	282.90	0	4.9710	0	33.8500	0	26.769	0	280.287	0	92.4	4	29.8	4	-1E+10	1	-1E+10	1	-1E+10	1	-1E+10	1	-1E+10	1	-1E+10	1
4902551	59	C	03/29/2022	15:06	-131.906	49.847	0	283.80	0	4.9640	0	33.8500	0	26.770	0	281.178	0	92.3	4	29.7	4	-1E+10	1	-1E+10	1	-1E+10	1	-1E+10	1	-1E+10	1	-1E+10	1
4902551	59	C	03/29/2022	15:06	-131.906	49.847	0	284.60	0	4.9630	0	33.8490	0	26.770	0	281.970	0	92.1	4	29.7	4	-1E+10	1	-1E+10	1	-1E+10	1	-1E+10	1	-1E+10	1	-1E+10	1
4902551	59	C	03/29/2022	15:06	-131.906	49.847	0	285.90	0	4.9610	0	33.8490	0	26.770	0	283.257	0	91.8	4	29.6	4	-1E+10	1	-1E+10	1	-1E+10	1	-1E+10	1	-1E+10	1	-1E+10	1
4902551	59	C	03/29/2022	15:06	-131.906	49.847	0	287.30	0	4.9600	0	33.8500	0	26.771	0	284.643	0	91.4	4	29.5	4	-1E+10	1	-1E+10	1	-1E+10	1	-1E+10	1	-1E+10	1	-1E+10	1
4902551	59	C	03/29/2022	15:06	-131.906	49.847	0	288.20	0	4.9590	0	33.8500	0	26.771	0	285.534	0	91.1	4	29.4	4	-1E+10	1	-1E+10	1	-1E+10	1	-1E+10	1	-1E+10	1	-1E+10	1
4902551	59	C	03/29/2022	15:06	-131.906	49.847	0	289.10	0	4.9550	0	33.8500	0	26.771	0	286.425	0	90.9	4	29.3	4	-1E+10	1	-1E+10	1	-1E+10	1	-1E+10	1	-1E+10	1	-1E+10	1
4902551	59	C	03/29/2022	15:06	-131.906	49.847	0	290.00	0	4.9480	0	33.8520	0	26.774	0	287.316	0	90.6	4	29.2	4	-1E+10	1	-1E+10	1	-1E+10	1	-1E+10	1	-1E+10	1	-1E+10	1
4902551	59	C	03/29/2022	15:06	-131.906	49.847	0	290.90	0	4.9440	0	33.8520	0	26.774	0	288.207	0	90.4	4	29.1	4	-1E+10	1	-1E+10	1	-1E+10	1	-1E+10	1	-1E+10	1	-1E+10	1
4902551	59	C	03/29/2022	15:06	-131.906	49.847	0	291.90	0	4.9440	0	33.8510	0	26.773	0	289.197	0	90.0	4	29.0	4	-1E+10	1	-1E+10	1	-1E+10	1	-1E+10	1	-1E+10	1	-1E+10	1
4902551	59	C	03/29/2022	15:06	-131.906	49.847	0	292.80	0	4.9440	0	33.8520	0	26.774	0	290.088	0	89.7	4	28.9	4	-1E+10	1	-1E+10	1	-1E+10	1	-1E+10	1	-1E+10	1	-1E+10	1
4902551	59	C	03/29/2022	15:06	-131.906	49.847	0	293.70	0	4.9430	0	33.8520	0	26.774	0	290.979	0	89.4	4	28.8	4	-1E+10	1	-1E+10	1	-1E+10	1	-1E+10	1	-1E+10	1	-1E+10	1
4902551	59	C	03/29/2022	15:06	-131.906	49.847	0	294.70	0	4.9320	0	33.8530	0	26.776	0	291.969	0	89.1	4	28.7	4	-1E+10	1	-1E+10	1	-1E+10	1	-1E+10	1	-1E+10	1	-1E+10	1
4902551	59	C	03/29/2022	15:06	-131.906	49.847	0	295.60	0	4.9260	0	33.8550	0	26.779	0	292.860	0	89.0	4	28.6	4	-1E+10	1	-1E+10	1	-1E+10	1	-1E+10	1	-1E+10	1	-1E+10	1
4902551	59	C	03/29/2022	15:06	-131.906	49.847	0	296.60	0	4.9190	0	33.8550	0	26.779	0	293.850	0	88.8	4	28.6	4	-1E+10	1	-1E+10	1	-1E+10	1	-1E+10	1	-1E+10	1	-1E+10	1
4902551	59	C	03/29/2022	15:06	-131.906	49.847	0	297.50	0	4.9140	0	33.8560	0	26.781	0	294.741	0	88.5	4	28.5	4	-1E+10	1	-1E+10	1	-1E+10	1	-1E+10	1	-1E+10	1	-1E+10	1
4902551	59	C	03/29/2022	15:06	-131.906	49.847	0	298.90	0	4.9110	0	33.8560	0	26.781	0	296.128	0	88.2	4	28.4	4	-1E+10	1	-1E+10	1	-1E+10	1	-1E+10	1	-1E+10	1	-1E+10	1
4902551	59	C	03/29/2022	15:06	-131.906	49.847	0	300.40	0	4.9070	0	33.8570	0	26.782	0	297.613	0	87.9	4	28.3	4	-1E+10	1	-1E+10	1	-1E+10	1	-1E+10	1	-1E+10	1	-1E+10	1
4902551	59	C	03/29/2022	15:06	-131.906	49.847	0	301.40	0	4.9020	0	33.8570	0	26.783	0	298.603	0	87.7	4	28.2	4	-1E+10	1	-1E+10	1	-1E+10	1	-1E+10	1	-1E+10	1	-1E+10	1
4902551	59	C	03/29/2022	15:06	-131.906	49.847	0	302.40	0	4.8990	0	33.8580	0	26.784	0	299.593	0	87.6	4	28.2	4	-1E+10	1	-1E+10	1	-1E+10	1	-1E+10	1	-1E+10	1	-1E+10	1
4902551	59	C	03/29/2022	15:06	-131.906	49.847	0	303.40	0	4.8970	0	33.8570	0	26.783	0	300.582	0	87.3	4	28.1	4	-1E+10	1	-1E+10	1	-1E+10	1	-1E+10	1	-1E+10	1	-1E+10	1
4902551	59	C	03/29/2022	15:06	-131.906	49.847	0	304.40	0	4.8920	0	33.8580	0	26.785	0	301.572	0	87.1	4	28.0	4	-1E+10	1	-1E+10	1	-1E+10	1	-1E+10	1	-1E+10	1	-1E+10	1
4902551	59	C	03/29/2022	15:06	-131.906	49.847	0	305.40	0	4.8920	0	33.8580	0	26.785	0	302.562	0	86.9	4	28.0	4	-1E+10	1	-1E+10	1	-1E+10	1	-1E+10	1	-1E+10	1	-1E+10	1
4902551	59	C	03/29/2022	15:06	-131.906	49.847	0	306.40	0	4.8900	0	33.8580	0	26.785	0	303.552	0	86.7	4	27.9	4	-1E+10	1	-1E+10	1	-1E+10	1	-1E+10	1	-1E+10	1	-1E+10	1
4902551	59	C	03/29/2022	15:06	-131.906	49.847	0	307.50	0	4.8840	0	33.8600	0	26.787	0	304.641	0	86.5	4	27.8	4	-1E+10	1	-1E+10	1	-1E+10	1	-1E+10	1	-1E+10	1	-1E+10	1
4902551	59	C	03/29/2022	15:06	-131.906	49.847	0	308.50	0	4.8780	0	33.8600	0	26.788	0	305.631	0	86.4	4	27.8	4	-1E+10	1	-1E+10	1	-1E+10	1	-1E+10	1	-1E+10	1	-1E+10	1
4902551	59	C	03/29/2022	15:06	-131.906	49.847	0	309.50	0	4.8740	0	33.8600	0	26.788	0	306.621	0	86.2	4	27.7	4	-1E+10	1	-1E+10	1	-1E+10	1	-1E+10	1	-1E+10	1	-1E+10	1
4902551	59	C	03/29/2022	15:06	-131.906	49.847	0	310.60	0	4.8740	0	33.8600	0	26.788	0	307.710	0	86.0	4	27.7	4	-1E+10	1	-1E+10	1	-1E+10	1	-1E+10	1	-1E+10	1	-1E+10	1
4902551	59	C	03/29/2022	15:06	-131.906	49.847	0	311.60	0	4.8710	0	33.8610	0	26.790	0	308.700	0	85.8	4	27.6	4	-1E+10	1	-1E+10	1	-1E+10	1	-1E+10	1	-1E+10	1	-1E+10	1
4902551	59	C	03/29/2022	15:06	-131.906	49.847	0	312.70	0	4.8670	0	33.8610	0	26.790	0	309.789	0	85.7	4	27.5	4	-1E+10	1	-1E+10	1	-1E+10	1	-1E+10	1	-1E+10	1	-1E+10	1
4902551	59	C	03/29/2022	15:06	-131.906	49.847	0	313.70	0	4.8620	0	33.8630	0	26.792	0	310.779	0	85.5	4	27.5	4	-1E+10	1	-1E+10	1	-1E+10	1	-1E+10	1	-1E+10	1	-1E+10	1
4902551	59	C	03/29/2022	15:06	-131.906	49.847	0	314.80	0	4.8610	0	33.8620	0	26.792	0	311.868	0	85.3	4	27.4	4	-1E+10	1	-1E+10	1	-1E+10	1	-1E+10	1	-1E+10	1	-1E+10	1
4902551	59	C	03/29/2022	15:06	-131.906	49.847	0	315.80	0	4.8600	0	33.8620	0	26.792	0	312.858	0	85.2	4	27.4	4	-1E+10	1	-1E+10	1	-1E+10	1	-1E+10	1	-1E+10	1	-1E+10	1
4902551	59	C	03/29/2022	15:06	-131.906	49.847	0	316.90	0	4.8570	0	33.8630	0	26.793	0	313.947	0	85.0	4	27.3	4	-1E+10	1	-1E+10	1	-1E+10	1	-1E+10	1	-1E+10	1	-1E+10	1
4902551	59	C	03/29/2022	15:06	-131.906	49.847	0	317.90	0	4.8560	0	33.8630	0	26.793	0	314.937	0	84.9	4	27.3	4	-1E+10	1	-1E+10	1	-1E+10	1	-1E+10	1	-1E+10	1	-1E+10	1
4902551	59	C	03/29/2022	15:06	-131.906	49.847	0	319.00	0	4.8560	0	33.8630	0	26.793	0	316.026	0	84.6	4	27.2	4	-1E+10	1	-1E+10	1	-1E+10	1	-1E+10	1	-1E+10	1	-1E+10	1
4902551	59	C	03/29/2022	15:06	-131.906	49.847	0	320.10	0	4.8560	0	33.8620	0	26.792	0	317.115	0	84.4	4	27.1	4	-1E+10	1	-1E+10	1	-1E+10	1	-1E+10	1	-1E+10	1	-1E+10	1
4902551	59	C	03/29/2022	15:06	-131.906	49.847	0	321.10	0	4.8560	0	33.8630	0	26.793	0	318.105	0	84.2	4	27.1	4	-1E+10	1	-1E+10	1	-1E+10	1	-1E+10	1	-1E+10	1	-1E+10	1
4902551	59	C	03/29/2022	15:06	-131.906	49.847	0	322.20	0	4.8560	0	33.8630	0	26.793	0	319.193	0	83.9	4	27.0	4	-1E+10	1	-1E+10	1	-1E+10	1	-1E+10	1	-1E+10	1	-1E+10	1
4902551	59	C	03/29/2022	15:06	-131.906	49.847	0	323.20	0	4.8560	0	33.8630	0	26.793	0	320.183	0	83.6	4	26.9	4	-1E+10	1	-1E+10	1	-1E+10	1	-1E+10	1	-1E+10	1	-1E+10	1
4902551	59	C	03/29/2022	15:06	-131.906	49.847	0	324.30	0	4.8560	0	33.8630	0	26.793	0	321.272	0	83.2	4	26.8	4	-1E+10	1	-1E+10	1	-1E+10	1	-1E+10	1	-1E+10	1	-1E+10	1
4902551	59	C	03/29/2022	15:06	-131.906	49.847	0	325.30	0	4.8560	0	33.8630	0	26.793	0	322.262	0	82.8	4	26.6	4	-1E+10	1	-1E+10	1	-1E+10	1	-1E+10	1	-1E+10	1	-1E+10	1
4902551	59	C	03/29/2022	15:06	-131.906	49.847	0	326.40	0	4.8540	0	33.8630	0	26.793	0	323.351	0	82.4	4	26.5	4	-1E+10	1	-1E+10	1	-1E+10	1	-1E+10	1	-1E+10	1	-1E+10	1
4902551	59	C	03/29/2022	15:06	-131.906	49.847	0	327.40	0	4.8510	0	33.8630	0	26.794	0	324.341	0	81.9	4	26.3	4	-1E+10	1	-1E+10	1	-1E+10	1	-1E+10	1	-1E+10	1	-1E+10	1
4902551	59	C	03/29/2022	15:06	-131.906	49.847	0	328.50	0	4.8490	0	33.8630	0	26.794	0	325.430	0	81.3	4	26.1	4	-1E+10	1	-1E+10	1	-1E+10	1	-1E+10	1	-1E+10	1	-1E+10	1
4902551	59	C	03/29/2022	15:06	-131.906	49.847	0	329.50	0	4.8410	0	33.8670	0	26.798	0	326.420	0	80.9	4	26.0	4	-1E+10	1	-1E+10	1	-1E+10	1	-1E+10	1	-1E+10	1	-1E+10	1
4902551	59	C	03/29/2022	15:06	-131.906	49.847	0	330.60	0	4.8300	0	33.8660	0	26.798	0	327.508	0	80.4	4	25.8	4	-1E+10	1	-1E+10	1	-1E+10	1	-1E+10	1	-1E+10	1	-1E+10	1
4902551	59	C	03/29/2022	15:06	-131.906	49.847	0	331.60	0	4.8210	0	33.8680	0	26.801	0	328.498	0	79.9	4	25.7	4	-1E+10	1	-1E+10	1	-1E+10	1	-1E+10	1	-1E+10	1	-1E+10	1
4902551	59	C	03/29/2022	15:06	-131.906	49.847	0	332.70	0	4.8120	0	33.8690	0	26.803	0	329.587	0	79.5	4	25.5	4	-1E+10	1	-1E+10	1	-1E+10	1	-1E+10	1	-1E+10	1	-1E+10	1
4902551	59	C	03/29/2022	15:06	-131.906	49.847	0	333.70	0	4.8060	0	33.8700	0	26.804	0	330.577	0	79.0	4	25.4	4	-1E+10	1	-1E+10	1	-1E+10	1	-1E+10	1	-1E+10	1	-1E+10	1
4902551	59	C	03/29/2022	15:06	-131.906	49.847	0	334.80	0	4.8010	0	33.8700	0	26.805	0	331.666	0	78.6	4	25.2	4	-1E+10	1	-1E+10	1	-1E+10	1	-1E+10	1	-1E+10	1	-1E+10	1
4902551	59	C	03/29/2022	15:06	-131.906	49.847	0	335.80	0	4.7970	0	33.8700	0	26.805	0	332.656	0	78.1	4	25.1	4	-1E+10	1	-1E+10	1	-1E+10	1	-1E+10	1	-1E+10	1	-1E+10	1
4902551	59	C	03/29/2022	15:06	-131.906	49.847	0	336.90	0	4.7930	0	33.8710	0	26.806	0	333.744	0	77.6	4	24.9	4	-1E+10	1	-1E+10	1	-1E+10	1	-1E+10	1	-1E+10	1	-1E+10	1
4902551	59	C	03/29/2022	15:06	-131.906	49.847	0	338.00	0	4.7890	0	33.8710	0	26.807	0	334.833	0	77.0	4	24.7	4	-1E+10	1	-1E+10	1	-1E+10	1	-1E+10	1	-1E+10	1	-1E+10	1
4902551	59	C	03/29/2022	15:06	-131.906	49.847	0	339.00	0	4.7830	0	33.8730	0	26.809	0	335.823	0	76.5	4	24.6	4	-1E+10	1	-1E+10	1	-1E+10	1	-1E+10	1	-1E+10	1	-1E+10	1
4902551	59	C	03/29/2022	15:06	-131.906	49.847	0	340.10	0	4.7780	0	33.8740	0	26.811	0	336.912	0	75.9	4	24.4	4	-1E+10	1	-1E+10	1	-1E+10	1	-1E+10	1	-1E+10	1	-1E+10	1
4902551	59	C	03/29/2022	15:06	-131.906	49.847	0	341.20	0	4.7710	0	33.8750	0	26.812	0	338.001	0	75.4	4	24.2	4	-1E+10	1	-1E+10	1	-1E+10	1	-1E+10	1	-1E+10	1	-1E+10	1
4902551	59	C	03/29/2022	15:06	-131.906	49.847	0	342.20	0	4.7640	0	33.8770	0	26.814	0	338.990	0	74.9	4	24.0	4	-1E+10	1	-1E+10	1	-1E+10	1	-1E+10	1	-1E+10	1	-1E+10	1
4902551	59	C	03/29/2022	15:06	-131.906	49.847	0	343.30	0	4.7460	0	33.8820	0	26.820	0	340.079	0	74.6	4	23.9	4	-1E+10	1	-1E+10	1	-1E+10	1	-1E+10	1	-1E+10	1	-1E+10	1
4902551	59	C	03/29/2022	15:06	-131.906	49.847	0	344.40	0	4.7420	0	33.8810	0	26.820	0	341.168	0	74.2	4	23.8	4	-1E+10	1	-1E+10	1	-1E+10	1	-1E+10	1	-1E+10	1	-1E+10	1
4902551	59	C	03/29/2022	15:06	-131.906	49.847	0	345.40	0	4.7360	0	33.8830	0	26.822	0	342.158	0	73.7	4	23.6	4	-1E+10	1	-1E+10	1	-1E+10	1	-1E+10	1	-1E+10	1	-1E+10	1
4902551	59	C	03/29/2022	15:06	-131.906	49.847	0	346.40	0	4.7280	0	33.8850	0	26.825	0	343.148	0	73.4	4	23.5	4	-1E+10	1	-1E+10	1	-1E+10	1	-1E+10	1	-1E+10	1	-1E+10	1
4902551	59	C	03/29/2022	15:06	-131.906	49.847	0	347.50	0	4.7230	0	33.8860	0	26.826	0	344.236	0	72.9	4	23.4	4	-1E+10	1	-1E+10	1	-1E+10	1	-1E+10	1	-1E+10	1	-1E+10	1
4902551	59	C	03/29/2022	15:06	-131.906	49.847	0	348.60	0	4.7150	0	33.8870	0	26.828	0	345.325	0	72.5	4	23.2	4	-1E+10	1	-1E+10	1	-1E+10	1	-1E+10	1	-1E+10	1	-1E+10	1
4902551	59	C	03/29/2022	15:06	-131.906	49.847	0	349.60	0	4.7130	0	33.8870	0	26.828	0	346.315	0	72.1	4	23.1	4	-1E+10	1	-1E+10	1	-1E+10	1	-1E+10	1	-1E+10	1	-1E+10	1
4902551	59	C	03/29/2022	15:06	-131.906	49.847	0	352.70	0	4.6770	0	33.8950	0	26.838	0	349.383	0	71.5	4	22.9	4	-1E+10	1	-1E+10	1	-1E+10	1	-1E+10	1	-1E+10	1	-1E+10	1
4902551	59	C	03/29/2022	15:06	-131.906	49.847	0	358.10	0	4.6510	0	33.9010	0	26.846	0	354.728	0	71.0	4	22.7	4	-1E+10	1	-1E+10	1	-1E+10	1	-1E+10	1	-1E+10	1	-1E+10	1
4902551	59	C	03/29/2022	15:06	-131.906	49.847	0	363.30	0	4.6390	0	33.9060	0	26.851	0	359.874	0	70.8	4	22.6	4	-1E+10	1	-1E+10	1	-1E+10	1	-1E+10	1	-1E+10	1	-1E+10	1
4902551	59	C	03/29/2022	15:06	-131.906	49.847	0	368.30	0	4.6340	0	33.9080	0	26.854	0	364.823	0	70.1	4	22.4	4	-1E+10	1	-1E+10	1	-1E+10	1	-1E+10	1	-1E+10	1	-1E+10	1
4902551	59	C	03/29/2022	15:06	-131.906	49.847	0	373.20	0	4.6240	0	33.9110	0	26.857	0	369.672	0	68.9	4	22.0	4	-1E+10	1	-1E+10	1	-1E+10	1	-1E+10	1	-1E+10	1	-1E+10	1
4902551	59	C	03/29/2022	15:06	-131.906	49.847	0	378.00	0	4.6140	0	33.9140	0	26.861	0	374.422	0	67.4	4	21.6	4	-1E+10	1	-1E+10	1	-1E+10	1	-1E+10	1	-1E+10	1	-1E+10	1
4902551	59	C	03/29/2022	15:06	-131.906	49.847	0	383.10	0	4.5910	0	33.9240	0	26.871	0	379.469	0	65.3	4	20.9	4	-1E+10	1	-1E+10	1	-1E+10	1	-1E+10	1	-1E+10	1	-1E+10	1
4902551	59	C	03/29/2022	15:06	-131.906	49.847	0	388.10	0	4.5710	0	33.9330	0	26.880	0	384.417	0	63.2	4	20.2	4	-1E+10	1	-1E+10	1	-1E+10	1	-1E+10	1	-1E+10	1	-1E+10	1
4902551	59	C	03/29/2022	15:06	-131.906	49.847	0	392.70	0	4.5550	0	33.9400	0	26.888	0	388.969	0	60.9	4	19.4	4	-1E+10	1	-1E+10	1	-1E+10	1	-1E+10	1	-1E+10	1	-1E+10	1
4902551	59	C	03/29/2022	15:06	-131.906	49.847	0	397.80	0	4.5200	0	33.9500	0	26.899	0	394.016	0	58.4	4	18.6	4	-1E+10	1	-1E+10	1	-1E+10	1	-1E+10	1	-1E+10	1	-1E+10	1
4902551	59	C	03/29/2022	15:06	-131.906	49.847	0	402.90	0	4.4750	0	33.9590	0	26.912	0	399.063	0	56.6	4	18.0	4	-1E+10	1	-1E+10	1	-1E+10	1	-1E+10	1	-1E+10	1	-1E+10	1
4902551	59	C	03/29/2022	15:06	-131.906	49.847	0	408.00	0	4.4520	0	33.9660	0	26.920	0	404.109	0	55.7	4	17.7	4	-1E+10	1	-1E+10	1	-1E+10	1	-1E+10	1	-1E+10	1	-1E+10	1
4902551	59	C	03/29/2022	15:06	-131.906	49.847	0	413.30	0	4.4390	0	33.9720	0	26.926	0	409.353	0	54.9	4	17.5	4	-1E+10	1	-1E+10	1	-1E+10	1	-1E+10	1	-1E+10	1	-1E+10	1
4902551	59	C	03/29/2022	15:06	-131.906	49.847	0	418.10	0	4.4350	0	33.9750	0	26.929	0	414.103	0	54.3	4	17.3	4	-1E+10	1	-1E+10	1	-1E+10	1	-1E+10	1	-1E+10	1	-1E+10	1
4902551	59	C	03/29/2022	15:06	-131.906	49.847	0	423.00	0	4.4310	0	33.9780	0	26.931	0	418.951	0	53.4	4	17.0	4	-1E+10	1	-1E+10	1	-1E+10	1	-1E+10	1	-1E+10	1	-1E+10	1
4902551	59	C	03/29/2022	15:06	-131.906	49.847	0	428.00	0	4.4240	0	33.9810	0	26.935	0	423.898	0	52.6	4	16.7	4	-1E+10	1	-1E+10	1	-1E+10	1	-1E+10	1	-1E+10	1	-1E+10	1
4902551	59	C	03/29/2022	15:06	-131.906	49.847	0	433.10	0	4.4210	0	33.9850	0	26.938	0	428.944	0	51.3	4	16.3	4	-1E+10	1	-1E+10	1	-1E+10	1	-1E+10	1	-1E+10	1	-1E+10	1
4902551	59	C	03/29/2022	15:06	-131.906	49.847	0	438.20	0	4.4170	0	33.9900	0	26.943	0	433.990	0	49.8	4	15.9	4	-1E+10	1	-1E+10	1	-1E+10	1	-1E+10	1	-1E+10	1	-1E+10	1
4902551	59	C	03/29/2022	15:06	-131.906	49.847	0	443.00	0	4.4120	0	34.0000	0	26.951	0	438.738	0	48.6	4	15.5	4	-1E+10	1	-1E+10	1	-1E+10	1	-1E+10	1	-1E+10	1	-1E+10	1
4902551	59	C	03/29/2022	15:06	-131.906	49.847	0	447.70	0	4.4090	0	34.0050	0	26.955	0	443.388	0	47.8	4	15.2	4	-1E+10	1	-1E+10	1	-1E+10	1	-1E+10	1	-1E+10	1	-1E+10	1
4902551	59	C	03/29/2022	15:06	-131.906	49.847	0	453.10	0	4.3970	0	34.0110	0	26.962	0	448.730	0	47.2	4	15.0	4	-1E+10	1	-1E+10	1	-1E+10	1	-1E+10	1	-1E+10	1	-1E+10	1
4902551	59	C	03/29/2022	15:06	-131.906	49.847	0	457.90	0	4.3750	0	34.0100	0	26.963	0	453.479	0	46.6	4	14.8	4	-1E+10	1	-1E+10	1	-1E+10	1	-1E+10	1	-1E+10	1	-1E+10	1
4902551	59	C	03/29/2022	15:06	-131.906	49.847	0	462.70	0	4.3560	0	34.0150	0	26.969	0	458.227	0	45.8	4	14.6	4	-1E+10	1	-1E+10	1	-1E+10	1	-1E+10	1	-1E+10	1	-1E+10	1
4902551	59	C	03/29/2022	15:06	-131.906	49.847	0	468.10	0	4.3490	0	34.0180	0	26.972	0	463.569	0	45.0	4	14.3	4	-1E+10	1	-1E+10	1	-1E+10	1	-1E+10	1	-1E+10	1	-1E+10	1
4902551	59	C	03/29/2022	15:06	-131.906	49.847	0	472.90	0	4.3450	0	34.0200	0	26.974	0	468.317	0	44.3	4	14.1	4	-1E+10	1	-1E+10	1	-1E+10	1	-1E+10	1	-1E+10	1	-1E+10	1
4902551	59	C	03/29/2022	15:06	-131.906	49.847	0	477.70	0	4.3290	0	34.0240	0	26.979	0	473.065	0	43.4	4	13.8	4	-1E+10	1	-1E+10	1	-1E+10	1	-1E+10	1	-1E+10	1	-1E+10	1
4902551	59	C	03/29/2022	15:06	-131.906	49.847	0	482.80	0	4.3110	0	34.0300	0	26.986	0	478.110	0	42.4	4	13.5	4	-1E+10	1	-1E+10	1	-1E+10	1	-1E+10	1	-1E+10	1	-1E+10	1
4902551	59	C	03/29/2022	15:06	-131.906	49.847	0	488.00	0	4.2940	0	34.0330	0	26.990	0	483.253	0	41.4	4	13.2	4	-1E+10	1	-1E+10	1	-1E+10	1	-1E+10	1	-1E+10	1	-1E+10	1
4902551	59	C	03/29/2022	15:06	-131.906	49.847	0	492.90	0	4.2750	0	34.0380	0	26.996	0	488.100	0	40.2	4	12.8	4	-1E+10	1	-1E+10	1	-1E+10	1	-1E+10	1	-1E+10	1	-1E+10	1
4902551	59	C	03/29/2022	15:06	-131.906	49.847	0	497.70	0	4.2440	0	34.0460	0	27.006	0	492.847	0	39.3	4	12.5	4	-1E+10	1	-1E+10	1	-1E+10	1	-1E+10	1	-1E+10	1	-1E+10	1
4902551	59	C	03/29/2022	15:06	-131.906	49.847	0	502.60	0	4.2270	0	34.0500	0	27.011	0	497.694	0	38.2	4	12.1	4	-1E+10	1	-1E+10	1	-1E+10	1	-1E+10	1	-1E+10	1	-1E+10	1
4902551	59	C	03/29/2022	15:06	-131.906	49.847	0	507.60	0	4.2110	0	34.0550	0	27.017	0	502.639	0	36.8	4	11.7	4	-1E+10	1	-1E+10	1	-1E+10	1	-1E+10	1	-1E+10	1	-1E+10	1
4902551	59	C	03/29/2022	15:06	-131.906	49.847	0	512.70	0	4.1800	0	34.0670	0	27.029	0	507.683	0	35.3	4	11.2	4	-1E+10	1	-1E+10	1	-1E+10	1	-1E+10	1	-1E+10	1	-1E+10	1
4902551	59	C	03/29/2022	15:06	-131.906	49.847	0	517.90	0	4.1630	0	34.0750	0	27.037	0	512.826	0	34.5	4	10.9	4	-1E+10	1	-1E+10	1	-1E+10	1	-1E+10	1	-1E+10	1	-1E+10	1
4902551	59	C	03/29/2022	15:06	-131.906	49.847	0	523.10	0	4.1570	0	34.0780	0	27.041	0	517.968	0	33.9	4	10.7	4	-1E+10	1	-1E+10	1	-1E+10	1	-1E+10	1	-1E+10	1	-1E+10	1
4902551	59	C	03/29/2022	15:06	-131.906	49.847	0	528.10	0	4.1480	0	34.0820	0	27.045	0	522.913	0	33.5	4	10.6	4	-1E+10	1	-1E+10	1	-1E+10	1	-1E+10	1	-1E+10	1	-1E+10	1
4902551	59	C	03/29/2022	15:06	-131.906	49.847	0	533.10	0	4.1470	0	34.0820	0	27.045	0	527.857	0	33.0	4	10.5	4	-1E+10	1	-1E+10	1	-1E+10	1	-1E+10	1	-1E+10	1	-1E+10	1
4902551	59	C	03/29/2022	15:06	-131.906	49.847	0	538.20	0	4.1390	0	34.0850	0	27.048	0	532.901	0	32.4	4	10.3	4	-1E+10	1	-1E+10	1	-1E+10	1	-1E+10	1	-1E+10	1	-1E+10	1
4902551	59	C	03/29/2022	15:06	-131.906	49.847	0	542.90	0	4.1280	0	34.0890	0	27.052	0	537.548	0	31.9	4	10.1	4	-1E+10	1	-1E+10	1	-1E+10	1	-1E+10	1	-1E+10	1	-1E+10	1
4902551	59	C	03/29/2022	15:06	-131.906	49.847	0	547.90	0	4.1240	0	34.0900	0	27.054	0	542.492	0	31.3	4	9.9	4	-1E+10	1	-1E+10	1	-1E+10	1	-1E+10	1	-1E+10	1	-1E+10	1
4902551	59	C	03/29/2022	15:06	-131.906	49.847	0	553.20	0	4.1180	0	34.0930	0	27.057	0	547.733	0	30.5	4	9.6	4	-1E+10	1	-1E+10	1	-1E+10	1	-1E+10	1	-1E+10	1	-1E+10	1
4902551	59	C	03/29/2022	15:06	-131.906	49.847	0	558.30	0	4.1090	0	34.0970	0	27.061	0	552.776	0	29.4	4	9.3	4	-1E+10	1	-1E+10	1	-1E+10	1	-1E+10	1	-1E+10	1	-1E+10	1
4902551	59	C	03/29/2022	15:06	-131.906	49.847	0	563.40	0	4.0900	0	34.1040	0	27.068	0	557.819	0	28.4	4	9.0	4	-1E+10	1	-1E+10	1	-1E+10	1	-1E+10	1	-1E+10	1	-1E+10	1
4902551	59	C	03/29/2022	15:06	-131.906	49.847	0	567.90	0	4.0670	0	34.1120	0	27.077	0	562.268	0	27.8	4	8.8	4	-1E+10	1	-1E+10	1	-1E+10	1	-1E+10	1	-1E+10	1	-1E+10	1
4902551	59	C	03/29/2022	15:06	-131.906	49.847	0	572.60	0	4.0600	0	34.1140	0	27.080	0	566.915	0	27.5	4	8.7	4	-1E+10	1	-1E+10	1	-1E+10	1	-1E+10	1	-1E+10	1	-1E+10	1
4902551	59	C	03/29/2022	15:06	-131.906	49.847	0	577.80	0	4.0570	0	34.1160	0	27.081	0	572.056	0	27.0	4	8.5	4	-1E+10	1	-1E+10	1	-1E+10	1	-1E+10	1	-1E+10	1	-1E+10	1
4902551	59	C	03/29/2022	15:06	-131.906	49.847	0	582.90	0	4.0480	0	34.1190	0	27.085	0	577.099	0	26.3	4	8.3	4	-1E+10	1	-1E+10	1	-1E+10	1	-1E+10	1	-1E+10	1	-1E+10	1
4902551	59	C	03/29/2022	15:06	-131.906	49.847	0	588.10	0	4.0370	0	34.1240	0	27.090	0	582.239	0	25.7	4	8.1	4	-1E+10	1	-1E+10	1	-1E+10	1	-1E+10	1	-1E+10	1	-1E+10	1
4902551	59	C	03/29/2022	15:06	-131.906	49.847	0	593.40	0	4.0320	0	34.1260	0	27.092	0	587.479	0	25.3	4	8.0	4	-1E+10	1	-1E+10	1	-1E+10	1	-1E+10	1	-1E+10	1	-1E+10	1
4902551	59	C	03/29/2022	15:06	-131.906	49.847	0	598.10	0	4.0220	0	34.1300	0	27.096	0	592.126	0	24.8	4	7.8	4	-1E+10	1	-1E+10	1	-1E+10	1	-1E+10	1	-1E+10	1	-1E+10	1
4902551	59	C	03/29/2022	15:06	-131.906	49.847	0	603.00	0	4.0120	0	34.1340	0	27.101	0	596.970	0	24.5	4	7.7	4	-1E+10	1	-1E+10	1	-1E+10	1	-1E+10	1	-1E+10	1	-1E+10	1
4902551	59	C	03/29/2022	15:06	-131.906	49.847	0	608.10	0	4.0070	0	34.1350	0	27.102	0	602.011	0	24.0	4	7.6	4	-1E+10	1	-1E+10	1	-1E+10	1	-1E+10	1	-1E+10	1	-1E+10	1
4902551	59	C	03/29/2022	15:06	-131.906	49.847	0	613.00	0	3.9980	0	34.1380	0	27.105	0	606.855	0	23.3	4	7.4	4	-1E+10	1	-1E+10	1	-1E+10	1	-1E+10	1	-1E+10	1	-1E+10	1
4902551	59	C	03/29/2022	15:06	-131.906	49.847	0	618.10	0	3.9820	0	34.1440	0	27.112	0	611.896	0	22.6	4	7.1	4	-1E+10	1	-1E+10	1	-1E+10	1	-1E+10	1	-1E+10	1	-1E+10	1
4902551	59	C	03/29/2022	15:06	-131.906	49.847	0	623.20	0	3.9650	0	34.1510	0	27.119	0	616.938	0	22.2	4	7.0	4	-1E+10	1	-1E+10	1	-1E+10	1	-1E+10	1	-1E+10	1	-1E+10	1
4902551	59	C	03/29/2022	15:06	-131.906	49.847	0	627.90	0	3.9610	0	34.1530	0	27.121	0	621.583	0	21.9	4	6.9	4	-1E+10	1	-1E+10	1	-1E+10	1	-1E+10	1	-1E+10	1	-1E+10	1
4902551	59	C	03/29/2022	15:06	-131.906	49.847	0	632.70	0	3.9510	0	34.1560	0	27.124	0	626.328	0	21.5	4	6.8	4	-1E+10	1	-1E+10	1	-1E+10	1	-1E+10	1	-1E+10	1	-1E+10	1
4902551	59	C	03/29/2022	15:06	-131.906	49.847	0	637.80	0	3.9350	0	34.1610	0	27.130	0	631.369	0	21.2	4	6.7	4	-1E+10	1	-1E+10	1	-1E+10	1	-1E+10	1	-1E+10	1	-1E+10	1
4902551	59	C	03/29/2022	15:06	-131.906	49.847	0	643.10	0	3.9310	0	34.1620	0	27.131	0	636.607	0	21.0	4	6.6	4	-1E+10	1	-1E+10	1	-1E+10	1	-1E+10	1	-1E+10	1	-1E+10	1
4902551	59	C	03/29/2022	15:06	-131.906	49.847	0	647.90	0	3.9250	0	34.1630	0	27.133	0	641.352	0	20.7	4	6.5	4	-1E+10	1	-1E+10	1	-1E+10	1	-1E+10	1	-1E+10	1	-1E+10	1
4902551	59	C	03/29/2022	15:06	-131.906	49.847	0	652.70	0	3.9150	0	34.1660	0	27.136	0	646.096	0	20.3	4	6.4	4	-1E+10	1	-1E+10	1	-1E+10	1	-1E+10	1	-1E+10	1	-1E+10	1
4902551	59	C	03/29/2022	15:06	-131.906	49.847	0	657.70	0	3.9020	0	34.1710	0	27.142	0	651.037	0	19.9	4	6.3	4	-1E+10	1	-1E+10	1	-1E+10	1	-1E+10	1	-1E+10	1	-1E+10	1
4902551	59	C	03/29/2022	15:06	-131.906	49.847	0	662.70	0	3.8920	0	34.1750	0	27.146	0	655.979	0	19.5	4	6.1	4	-1E+10	1	-1E+10	1	-1E+10	1	-1E+10	1	-1E+10	1	-1E+10	1
4902551	59	C	03/29/2022	15:06	-131.906	49.847	0	667.90	0	3.8710	0	34.1810	0	27.153	0	661.118	0	19.2	4	6.0	4	-1E+10	1	-1E+10	1	-1E+10	1	-1E+10	1	-1E+10	1	-1E+10	1
4902551	59	C	03/29/2022	15:06	-131.906	49.847	0	673.00	0	3.8510	0	34.1850	0	27.158	0	666.158	0	19.1	4	6.0	4	-1E+10	1	-1E+10	1	-1E+10	1	-1E+10	1	-1E+10	1	-1E+10	1
4902551	59	C	03/29/2022	15:06	-131.906	49.847	0	678.30	0	3.8380	0	34.1870	0	27.161	0	671.395	0	18.9	4	5.9	4	-1E+10	1	-1E+10	1	-1E+10	1	-1E+10	1	-1E+10	1	-1E+10	1
4902551	59	C	03/29/2022	15:06	-131.906	49.847	0	683.20	0	3.8330	0	34.1890	0	27.163	0	676.237	0	18.6	4	5.9	4	-1E+10	1	-1E+10	1	-1E+10	1	-1E+10	1	-1E+10	1	-1E+10	1
4902551	59	C	03/29/2022	15:06	-131.906	49.847	0	688.10	0	3.8130	0	34.1950	0	27.170	0	681.079	0	18.5	4	5.8	4	-1E+10	1	-1E+10	1	-1E+10	1	-1E+10	1	-1E+10	1	-1E+10	1
4902551	59	C	03/29/2022	15:06	-131.906	49.847	0	693.00	0	3.8040	0	34.1970	0	27.172	0	685.921	0	18.3	4	5.8	4	-1E+10	1	-1E+10	1	-1E+10	1	-1E+10	1	-1E+10	1	-1E+10	1
4902551	59	C	03/29/2022	15:06	-131.906	49.847	0	697.90	0	3.7940	0	34.1990	0	27.175	0	690.763	0	18.2	4	5.7	4	-1E+10	1	-1E+10	1	-1E+10	1	-1E+10	1	-1E+10	1	-1E+10	1
4902551	59	C	03/29/2022	15:06	-131.906	49.847	0	702.90	0	3.7860	0	34.2020	0	27.178	0	695.704	0	18.1	4	5.7	4	-1E+10	1	-1E+10	1	-1E+10	1	-1E+10	1	-1E+10	1	-1E+10	1
4902551	59	C	03/29/2022	15:06	-131.906	49.847	0	707.80	0	3.7820	0	34.2030	0	27.179	0	700.545	0	18.1	4	5.7	4	-1E+10	1	-1E+10	1	-1E+10	1	-1E+10	1	-1E+10	1	-1E+10	1
4902551	59	C	03/29/2022	15:06	-131.906	49.847	0	712.60	0	3.7800	0	34.2030	0	27.180	0	705.288	0	18.0	4	5.6	4	-1E+10	1	-1E+10	1	-1E+10	1	-1E+10	1	-1E+10	1	-1E+10	1
4902551	59	C	03/29/2022	15:06	-131.906	49.847	0	718.00	0	3.7750	0	34.2050	0	27.182	0	710.624	0	17.9	4	5.6	4	-1E+10	1	-1E+10	1	-1E+10	1	-1E+10	1	-1E+10	1	-1E+10	1
4902551	59	C	03/29/2022	15:06	-131.906	49.847	0	723.20	0	3.7700	0	34.2060	0	27.183	0	715.761	0	17.8	4	5.6	4	-1E+10	1	-1E+10	1	-1E+10	1	-1E+10	1	-1E+10	1	-1E+10	1
4902551	59	C	03/29/2022	15:06	-131.906	49.847	0	728.00	0	3.7670	0	34.2070	0	27.184	0	720.504	0	17.7	4	5.6	4	-1E+10	1	-1E+10	1	-1E+10	1	-1E+10	1	-1E+10	1	-1E+10	1
4902551	59	C	03/29/2022	15:06	-131.906	49.847	0	732.80	0	3.7620	0	34.2080	0	27.186	0	725.246	0	17.5	4	5.5	4	-1E+10	1	-1E+10	1	-1E+10	1	-1E+10	1	-1E+10	1	-1E+10	1
4902551	59	C	03/29/2022	15:06	-131.906	49.847	0	737.90	0	3.7530	0	34.2110	0	27.189	0	730.284	0	17.4	4	5.5	4	-1E+10	1	-1E+10	1	-1E+10	1	-1E+10	1	-1E+10	1	-1E+10	1
4902551	59	C	03/29/2022	15:06	-131.906	49.847	0	742.90	0	3.7460	0	34.2130	0	27.191	0	735.224	0	17.2	4	5.4	4	-1E+10	1	-1E+10	1	-1E+10	1	-1E+10	1	-1E+10	1	-1E+10	1
4902551	59	C	03/29/2022	15:06	-131.906	49.847	0	747.90	0	3.7340	0	34.2160	0	27.195	0	740.163	0	17.0	4	5.3	4	-1E+10	1	-1E+10	1	-1E+10	1	-1E+10	1	-1E+10	1	-1E+10	1
4902551	59	C	03/29/2022	15:06	-131.906	49.847	0	753.00	0	3.7200	0	34.2200	0	27.199	0	745.201	0	16.8	4	5.3	4	-1E+10	1	-1E+10	1	-1E+10	1	-1E+10	1	-1E+10	1	-1E+10	1
4902551	59	C	03/29/2022	15:06	-131.906	49.847	0	758.00	0	3.7100	0	34.2220	0	27.202	0	750.141	0	16.5	4	5.2	4	-1E+10	1	-1E+10	1	-1E+10	1	-1E+10	1	-1E+10	1	-1E+10	1
4902551	59	C	03/29/2022	15:06	-131.906	49.847	0	763.00	0	3.6910	0	34.2270	0	27.208	0	755.080	0	16.2	4	5.1	4	-1E+10	1	-1E+10	1	-1E+10	1	-1E+10	1	-1E+10	1	-1E+10	1
4902551	59	C	03/29/2022	15:06	-131.906	49.847	0	768.10	0	3.6750	0	34.2320	0	27.213	0	760.118	0	15.9	4	5.0	4	-1E+10	1	-1E+10	1	-1E+10	1	-1E+10	1	-1E+10	1	-1E+10	1
4902551	59	C	03/29/2022	15:06	-131.906	49.847	0	773.10	0	3.6620	0	34.2360	0	27.218	0	765.056	0	15.6	4	4.9	4	-1E+10	1	-1E+10	1	-1E+10	1	-1E+10	1	-1E+10	1	-1E+10	1
4902551	59	C	03/29/2022	15:06	-131.906	49.847	0	778.00	0	3.6360	0	34.2430	0	27.226	0	769.896	0	15.4	4	4.8	4	-1E+10	1	-1E+10	1	-1E+10	1	-1E+10	1	-1E+10	1	-1E+10	1
4902551	59	C	03/29/2022	15:06	-131.906	49.847	0	782.90	0	3.6250	0	34.2460	0	27.230	0	774.736	0	15.2	4	4.8	4	-1E+10	1	-1E+10	1	-1E+10	1	-1E+10	1	-1E+10	1	-1E+10	1
4902551	59	C	03/29/2022	15:06	-131.906	49.847	0	787.70	0	3.6130	0	34.2500	0	27.234	0	779.477	0	15.0	4	4.7	4	-1E+10	1	-1E+10	1	-1E+10	1	-1E+10	1	-1E+10	1	-1E+10	1
4902551	59	C	03/29/2022	15:06	-131.906	49.847	0	793.00	0	3.6040	0	34.2520	0	27.236	0	784.712	0	14.7	4	4.6	4	-1E+10	1	-1E+10	1	-1E+10	1	-1E+10	1	-1E+10	1	-1E+10	1
4902551	59	C	03/29/2022	15:06	-131.906	49.847	0	798.00	0	3.5920	0	34.2560	0	27.241	0	789.650	0	14.5	4	4.5	4	-1E+10	1	-1E+10	1	-1E+10	1	-1E+10	1	-1E+10	1	-1E+10	1
4902551	59	C	03/29/2022	15:06	-131.906	49.847	0	802.70	0	3.5780	0	34.2600	0	27.245	0	794.292	0	14.3	4	4.5	4	-1E+10	1	-1E+10	1	-1E+10	1	-1E+10	1	-1E+10	1	-1E+10	1
4902551	59	C	03/29/2022	15:06	-131.906	49.847	0	807.90	0	3.5690	0	34.2630	0	27.249	0	799.428	0	14.1	4	4.4	4	-1E+10	1	-1E+10	1	-1E+10	1	-1E+10	1	-1E+10	1	-1E+10	1
4902551	59	C	03/29/2022	15:06	-131.906	49.847	0	813.10	0	3.5660	0	34.2650	0	27.251	0	804.563	0	14.0	4	4.4	4	-1E+10	1	-1E+10	1	-1E+10	1	-1E+10	1	-1E+10	1	-1E+10	1
4902551	59	C	03/29/2022	15:06	-131.906	49.847	0	817.80	0	3.5600	0	34.2670	0	27.253	0	809.205	0	13.8	4	4.3	4	-1E+10	1	-1E+10	1	-1E+10	1	-1E+10	1	-1E+10	1	-1E+10	1
4902551	59	C	03/29/2022	15:06	-131.906	49.847	0	822.90	0	3.5520	0	34.2690	0	27.255	0	814.241	0	13.7	4	4.3	4	-1E+10	1	-1E+10	1	-1E+10	1	-1E+10	1	-1E+10	1	-1E+10	1
4902551	59	C	03/29/2022	15:06	-131.906	49.847	0	828.20	0	3.5440	0	34.2710	0	27.258	0	819.475	0	13.6	4	4.2	4	-1E+10	1	-1E+10	1	-1E+10	1	-1E+10	1	-1E+10	1	-1E+10	1
4902551	59	C	03/29/2022	15:06	-131.906	49.847	0	833.00	0	3.5350	0	34.2740	0	27.261	0	824.215	0	13.4	4	4.2	4	-1E+10	1	-1E+10	1	-1E+10	1	-1E+10	1	-1E+10	1	-1E+10	1
4902551	59	C	03/29/2022	15:06	-131.906	49.847	0	838.00	0	3.5260	0	34.2760	0	27.263	0	829.152	0	13.3	4	4.2	4	-1E+10	1	-1E+10	1	-1E+10	1	-1E+10	1	-1E+10	1	-1E+10	1
4902551	59	C	03/29/2022	15:06	-131.906	49.847	0	842.90	0	3.5150	0	34.2800	0	27.268	0	833.991	0	13.2	4	4.1	4	-1E+10	1	-1E+10	1	-1E+10	1	-1E+10	1	-1E+10	1	-1E+10	1
4902551	59	C	03/29/2022	15:06	-131.906	49.847	0	847.90	0	3.5080	0	34.2820	0	27.270	0	838.928	0	13.1	4	4.1	4	-1E+10	1	-1E+10	1	-1E+10	1	-1E+10	1	-1E+10	1	-1E+10	1
4902551	59	C	03/29/2022	15:06	-131.906	49.847	0	852.90	0	3.5040	0	34.2830	0	27.271	0	843.865	0	13.0	4	4.1	4	-1E+10	1	-1E+10	1	-1E+10	1	-1E+10	1	-1E+10	1	-1E+10	1
4902551	59	C	03/29/2022	15:06	-131.906	49.847	0	858.00	0	3.4870	0	34.2870	0	27.276	0	848.901	0	13.0	4	4.1	4	-1E+10	1	-1E+10	1	-1E+10	1	-1E+10	1	-1E+10	1	-1E+10	1
4902551	59	C	03/29/2022	15:06	-131.906	49.847	0	863.10	0	3.4820	0	34.2880	0	27.277	0	853.936	0	13.0	4	4.0	4	-1E+10	1	-1E+10	1	-1E+10	1	-1E+10	1	-1E+10	1	-1E+10	1
4902551	59	C	03/29/2022	15:06	-131.906	49.847	0	867.80	0	3.4690	0	34.2910	0	27.281	0	858.577	0	12.9	4	4.0	4	-1E+10	1	-1E+10	1	-1E+10	1	-1E+10	1	-1E+10	1	-1E+10	1
4902551	59	C	03/29/2022	15:06	-131.906	49.847	0	873.00	0	3.4550	0	34.2930	0	27.284	0	863.711	0	12.9	4	4.0	4	-1E+10	1	-1E+10	1	-1E+10	1	-1E+10	1	-1E+10	1	-1E+10	1
4902551	59	C	03/29/2022	15:06	-131.906	49.847	0	878.10	0	3.4440	0	34.2960	0	27.288	0	868.746	0	12.8	4	4.0	4	-1E+10	1	-1E+10	1	-1E+10	1	-1E+10	1	-1E+10	1	-1E+10	1
4902551	59	C	03/29/2022	15:06	-131.906	49.847	0	883.00	0	3.4330	0	34.2980	0	27.290	0	873.583	0	12.8	4	4.0	4	-1E+10	1	-1E+10	1	-1E+10	1	-1E+10	1	-1E+10	1	-1E+10	1
4902551	59	C	03/29/2022	15:06	-131.906	49.847	0	887.90	0	3.4250	0	34.3000	0	27.293	0	878.421	0	12.7	4	4.0	4	-1E+10	1	-1E+10	1	-1E+10	1	-1E+10	1	-1E+10	1	-1E+10	1
4902551	59	C	03/29/2022	15:06	-131.906	49.847	0	893.00	0	3.4040	0	34.3040	0	27.298	0	883.456	0	12.6	4	3.9	4	-1E+10	1	-1E+10	1	-1E+10	1	-1E+10	1	-1E+10	1	-1E+10	1
4902551	59	C	03/29/2022	15:06	-131.906	49.847	0	897.80	0	3.3940	0	34.3070	0	27.301	0	888.194	0	12.5	4	3.9	4	-1E+10	1	-1E+10	1	-1E+10	1	-1E+10	1	-1E+10	1	-1E+10	1
4902551	59	C	03/29/2022	15:06	-131.906	49.847	0	902.70	0	3.3790	0	34.3110	0	27.306	0	893.031	0	12.4	4	3.9	4	-1E+10	1	-1E+10	1	-1E+10	1	-1E+10	1	-1E+10	1	-1E+10	1
4902551	59	C	03/29/2022	15:06	-131.906	49.847	0	908.00	0	3.3670	0	34.3130	0	27.309	0	898.263	0	12.3	4	3.8	4	-1E+10	1	-1E+10	1	-1E+10	1	-1E+10	1	-1E+10	1	-1E+10	1
4902551	59	C	03/29/2022	15:06	-131.906	49.847	0	913.10	0	3.3570	0	34.3160	0	27.312	0	903.297	0	12.2	4	3.8	4	-1E+10	1	-1E+10	1	-1E+10	1	-1E+10	1	-1E+10	1	-1E+10	1
4902551	59	C	03/29/2022	15:06	-131.906	49.847	0	917.90	0	3.3400	0	34.3220	0	27.318	0	908.036	0	12.2	4	3.8	4	-1E+10	1	-1E+10	1	-1E+10	1	-1E+10	1	-1E+10	1	-1E+10	1
4902551	59	C	03/29/2022	15:06	-131.906	49.847	0	922.70	0	3.3110	0	34.3270	0	27.325	0	912.773	0	12.1	4	3.8	4	-1E+10	1	-1E+10	1	-1E+10	1	-1E+10	1	-1E+10	1	-1E+10	1
4902551	59	C	03/29/2022	15:06	-131.906	49.847	0	927.60	0	3.2900	0	34.3310	0	27.330	0	917.610	0	12.1	4	3.8	4	-1E+10	1	-1E+10	1	-1E+10	1	-1E+10	1	-1E+10	1	-1E+10	1
4902551	59	C	03/29/2022	15:06	-131.906	49.847	0	932.50	0	3.2870	0	34.3310	0	27.331	0	922.446	0	12.1	4	3.8	4	-1E+10	1	-1E+10	1	-1E+10	1	-1E+10	1	-1E+10	1	-1E+10	1
4902551	59	C	03/29/2022	15:06	-131.906	49.847	0	937.50	0	3.2820	0	34.3330	0	27.333	0	927.381	0	12.1	4	3.8	4	-1E+10	1	-1E+10	1	-1E+10	1	-1E+10	1	-1E+10	1	-1E+10	1
4902551	59	C	03/29/2022	15:06	-131.906	49.847	0	942.90	0	3.2730	0	34.3350	0	27.335	0	932.711	0	12.2	4	3.8	4	-1E+10	1	-1E+10	1	-1E+10	1	-1E+10	1	-1E+10	1	-1E+10	1
4902551	59	C	03/29/2022	15:06	-131.906	49.847	0	947.90	0	3.2600	0	34.3360	0	27.337	0	937.646	0	12.2	4	3.8	4	-1E+10	1	-1E+10	1	-1E+10	1	-1E+10	1	-1E+10	1	-1E+10	1
4902551	59	C	03/29/2022	15:06	-131.906	49.847	0	952.60	0	3.2490	0	34.3390	0	27.341	0	942.285	0	12.2	4	3.8	4	-1E+10	1	-1E+10	1	-1E+10	1	-1E+10	1	-1E+10	1	-1E+10	1
4902551	59	C	03/29/2022	15:06	-131.906	49.847	0	957.80	0	3.2440	0	34.3390	0	27.341	0	947.416	0	12.2	4	3.8	4	-1E+10	1	-1E+10	1	-1E+10	1	-1E+10	1	-1E+10	1	-1E+10	1
4902551	59	C	03/29/2022	15:06	-131.906	49.847	0	962.90	0	3.2400	0	34.3400	0	27.342	0	952.450	0	12.2	4	3.8	4	-1E+10	1	-1E+10	1	-1E+10	1	-1E+10	1	-1E+10	1	-1E+10	1
4902551	59	C	03/29/2022	15:06	-131.906	49.847	0	968.00	0	3.2360	0	34.3410	0	27.344	0	957.483	0	12.2	4	3.8	4	-1E+10	1	-1E+10	1	-1E+10	1	-1E+10	1	-1E+10	1	-1E+10	1
4902551	59	C	03/29/2022	15:06	-131.906	49.847	0	973.20	0	3.2290	0	34.3410	0	27.344	0	962.614	0	12.3	4	3.8	4	-1E+10	1	-1E+10	1	-1E+10	1	-1E+10	1	-1E+10	1	-1E+10	1
4902551	59	C	03/29/2022	15:06	-131.906	49.847	0	978.00	0	3.2200	0	34.3420	0	27.346	0	967.351	0	12.2	4	3.8	4	-1E+10	1	-1E+10	1	-1E+10	1	-1E+10	1	-1E+10	1	-1E+10	1
4902551	59	C	03/29/2022	15:06	-131.906	49.847	0	982.90	0	3.2130	0	34.3440	0	27.348	0	972.186	0	12.2	4	3.8	4	-1E+10	1	-1E+10	1	-1E+10	1	-1E+10	1	-1E+10	1	-1E+10	1
4902551	59	C	03/29/2022	15:06	-131.906	49.847	0	987.80	0	3.2070	0	34.3450	0	27.350	0	977.021	0	12.1	4	3.8	4	-1E+10	1	-1E+10	1	-1E+10	1	-1E+10	1	-1E+10	1	-1E+10	1
4902551	59	C	03/29/2022	15:06	-131.906	49.847	0	992.70	0	3.1990	0	34.3470	0	27.352	0	981.856	0	12.1	4	3.7	4	-1E+10	1	-1E+10	1	-1E+10	1	-1E+10	1	-1E+10	1	-1E+10	1
4902551	59	C	03/29/2022	15:06	-131.906	49.847	0	998.20	0	3.1900	0	34.3500	0	27.355	0	987.283	0	12.0	4	3.7	4	-1E+10	1	-1E+10	1	-1E+10	1	-1E+10	1	-1E+10	1	-1E+10	1
4902551	59	C	03/29/2022	15:06	-131.906	49.847	0	1005.90	0	3.1820	0	34.3520	0	27.358	0	994.881	0	11.9	4	3.7	4	-1E+10	1	-1E+10	1	-1E+10	1	-1E+10	1	-1E+10	1	-1E+10	1
4902551	59	C	03/29/2022	15:06	-131.906	49.847	0	1015.80	0	3.1740	0	34.3570	0	27.362	0	1004.649	0	11.8	4	3.6	4	-1E+10	1	-1E+10	1	-1E+10	1	-1E+10	1	-1E+10	1	-1E+10	1
4902551	59	C	03/29/2022	15:06	-131.906	49.847	0	1025.90	0	3.1520	0	34.3610	0	27.368	0	1014.613	0	11.8	4	3.6	4	-1E+10	1	-1E+10	1	-1E+10	1	-1E+10	1	-1E+10	1	-1E+10	1
4902551	59	C	03/29/2022	15:06	-131.906	49.847	0	1035.50	0	3.1400	0	34.3640	0	27.371	0	1024.084	0	11.8	4	3.7	4	-1E+10	1	-1E+10	1	-1E+10	1	-1E+10	1	-1E+10	1	-1E+10	1
4902551	59	C	03/29/2022	15:06	-131.906	49.847	0	1045.40	0	3.1220	0	34.3670	0	27.375	0	1033.851	0	11.9	4	3.7	4	-1E+10	1	-1E+10	1	-1E+10	1	-1E+10	1	-1E+10	1	-1E+10	1
4902551	59	C	03/29/2022	15:06	-131.906	49.847	0	1055.30	0	3.1080	0	34.3710	0	27.380	0	1043.617	0	11.8	4	3.7	4	-1E+10	1	-1E+10	1	-1E+10	1	-1E+10	1	-1E+10	1	-1E+10	1
4902551	59	C	03/29/2022	15:06	-131.906	49.847	0	1065.30	0	3.0940	0	34.3740	0	27.384	0	1053.481	0	11.9	4	3.7	4	-1E+10	1	-1E+10	1	-1E+10	1	-1E+10	1	-1E+10	1	-1E+10	1
4902551	59	C	03/29/2022	15:06	-131.906	49.847	0	1075.40	0	3.0780	0	34.3770	0	27.387	0	1063.443	0	12.0	4	3.7	4	-1E+10	1	-1E+10	1	-1E+10	1	-1E+10	1	-1E+10	1	-1E+10	1
4902551	59	C	03/29/2022	15:06	-131.906	49.847	0	1085.50	0	3.0390	0	34.3840	0	27.397	0	1073.405	0	12.1	4	3.7	4	-1E+10	1	-1E+10	1	-1E+10	1	-1E+10	1	-1E+10	1	-1E+10	1
4902551	59	C	03/29/2022	15:06	-131.906	49.847	0	1095.30	0	3.0230	0	34.3870	0	27.401	0	1083.071	0	12.1	4	3.7	4	-1E+10	1	-1E+10	1	-1E+10	1	-1E+10	1	-1E+10	1	-1E+10	1
4902551	59	C	03/29/2022	15:06	-131.906	49.847	0	1105.20	0	3.0180	0	34.3890	0	27.403	0	1092.834	0	12.2	4	3.8	4	-1E+10	1	-1E+10	1	-1E+10	1	-1E+10	1	-1E+10	1	-1E+10	1
4902551	59	C	03/29/2022	15:06	-131.906	49.847	0	1115.60	0	3.0000	0	34.3920	0	27.407	0	1103.091	0	12.3	4	3.8	4	-1E+10	1	-1E+10	1	-1E+10	1	-1E+10	1	-1E+10	1	-1E+10	1
4902551	59	C	03/29/2022	15:06	-131.906	49.847	0	1125.30	0	2.9830	0	34.3950	0	27.411	0	1112.656	0	12.3	4	3.8	4	-1E+10	1	-1E+10	1	-1E+10	1	-1E+10	1	-1E+10	1	-1E+10	1
4902551	59	C	03/29/2022	15:06	-131.906	49.847	0	1135.10	0	2.9740	0	34.3970	0	27.413	0	1122.320	0	12.4	4	3.8	4	-1E+10	1	-1E+10	1	-1E+10	1	-1E+10	1	-1E+10	1	-1E+10	1
4902551	59	C	03/29/2022	15:06	-131.906	49.847	0	1145.50	0	2.9580	0	34.3990	0	27.416	0	1132.575	0	12.5	4	3.9	4	-1E+10	1	-1E+10	1	-1E+10	1	-1E+10	1	-1E+10	1	-1E+10	1
4902551	59	C	03/29/2022	15:06	-131.906	49.847	0	1155.40	0	2.9500	0	34.4010	0	27.419	0	1142.336	0	12.6	4	3.9	4	-1E+10	1	-1E+10	1	-1E+10	1	-1E+10	1	-1E+10	1	-1E+10	1
4902551	59	C	03/29/2022	15:06	-131.906	49.847	0	1165.20	0	2.9410	0	34.4020	0	27.420	0	1151.999	0	12.7	4	3.9	4	-1E+10	1	-1E+10	1	-1E+10	1	-1E+10	1	-1E+10	1	-1E+10	1
4902551	59	C	03/29/2022	15:06	-131.906	49.847	0	1175.50	0	2.9180	0	34.4050	0	27.425	0	1162.154	0	13.0	4	4.0	4	-1E+10	1	-1E+10	1	-1E+10	1	-1E+10	1	-1E+10	1	-1E+10	1
4902551	59	C	03/29/2022	15:06	-131.906	49.847	0	1185.60	0	2.8920	0	34.4090	0	27.430	0	1172.111	0	13.3	4	4.1	4	-1E+10	1	-1E+10	1	-1E+10	1	-1E+10	1	-1E+10	1	-1E+10	1
4902551	59	C	03/29/2022	15:06	-131.906	49.847	0	1195.50	0	2.8660	0	34.4140	0	27.437	0	1181.870	0	13.6	4	4.2	4	-1E+10	1	-1E+10	1	-1E+10	1	-1E+10	1	-1E+10	1	-1E+10	1
4902551	59	C	03/29/2022	15:06	-131.906	49.847	0	1205.30	0	2.8320	0	34.4190	0	27.444	0	1191.531	0	13.8	4	4.2	4	-1E+10	1	-1E+10	1	-1E+10	1	-1E+10	1	-1E+10	1	-1E+10	1
4902551	59	C	03/29/2022	15:06	-131.906	49.847	0	1215.70	0	2.8160	0	34.4220	0	27.448	0	1201.782	0	14.0	4	4.3	4	-1E+10	1	-1E+10	1	-1E+10	1	-1E+10	1	-1E+10	1	-1E+10	1
4902551	59	C	03/29/2022	15:06	-131.906	49.847	0	1225.30	0	2.8050	0	34.4240	0	27.450	0	1211.245	0	14.1	4	4.3	4	-1E+10	1	-1E+10	1	-1E+10	1	-1E+10	1	-1E+10	1	-1E+10	1
4902551	59	C	03/29/2022	15:06	-131.906	49.847	0	1235.00	0	2.7950	0	34.4270	0	27.454	0	1220.805	0	14.2	4	4.4	4	-1E+10	1	-1E+10	1	-1E+10	1	-1E+10	1	-1E+10	1	-1E+10	1
4902551	59	C	03/29/2022	15:06	-131.906	49.847	0	1245.10	0	2.7780	0	34.4300	0	27.457	0	1230.760	0	14.5	4	4.4	4	-1E+10	1	-1E+10	1	-1E+10	1	-1E+10	1	-1E+10	1	-1E+10	1
4902551	59	C	03/29/2022	15:06	-131.906	49.847	0	1255.40	0	2.7570	0	34.4340	0	27.463	0	1240.911	0	14.8	4	4.5	4	-1E+10	1	-1E+10	1	-1E+10	1	-1E+10	1	-1E+10	1	-1E+10	1
4902551	59	C	03/29/2022	15:06	-131.906	49.847	0	1265.30	0	2.7370	0	34.4380	0	27.468	0	1250.667	0	15.0	4	4.6	4	-1E+10	1	-1E+10	1	-1E+10	1	-1E+10	1	-1E+10	1	-1E+10	1
4902551	59	C	03/29/2022	15:06	-131.906	49.847	0	1275.10	0	2.7230	0	34.4390	0	27.470	0	1260.324	0	15.2	4	4.7	4	-1E+10	1	-1E+10	1	-1E+10	1	-1E+10	1	-1E+10	1	-1E+10	1
4902551	59	C	03/29/2022	15:06	-131.906	49.847	0	1285.50	0	2.7010	0	34.4420	0	27.474	0	1270.573	0	15.4	4	4.7	4	-1E+10	1	-1E+10	1	-1E+10	1	-1E+10	1	-1E+10	1	-1E+10	1
4902551	59	C	03/29/2022	15:06	-131.906	49.847	0	1295.30	0	2.6890	0	34.4450	0	27.477	0	1280.229	0	15.7	4	4.8	4	-1E+10	1	-1E+10	1	-1E+10	1	-1E+10	1	-1E+10	1	-1E+10	1
4902551	59	C	03/29/2022	15:06	-131.906	49.847	0	1305.60	0	2.6760	0	34.4480	0	27.481	0	1290.378	0	16.1	4	4.9	4	-1E+10	1	-1E+10	1	-1E+10	1	-1E+10	1	-1E+10	1	-1E+10	1
4902551	59	C	03/29/2022	15:06	-131.906	49.847	0	1315.50	0	2.6570	0	34.4520	0	27.486	0	1300.132	0	16.5	4	5.1	4	-1E+10	1	-1E+10	1	-1E+10	1	-1E+10	1	-1E+10	1	-1E+10	1
4902551	59	C	03/29/2022	15:06	-131.906	49.847	0	1325.20	0	2.6420	0	34.4560	0	27.490	0	1309.688	0	16.7	4	5.1	4	-1E+10	1	-1E+10	1	-1E+10	1	-1E+10	1	-1E+10	1	-1E+10	1
4902551	59	C	03/29/2022	15:06	-131.906	49.847	0	1335.20	0	2.6280	0	34.4580	0	27.493	0	1319.540	0	17.1	4	5.2	4	-1E+10	1	-1E+10	1	-1E+10	1	-1E+10	1	-1E+10	1	-1E+10	1
4902551	59	C	03/29/2022	15:06	-131.906	49.847	0	1345.20	0	2.6180	0	34.4610	0	27.497	0	1329.391	0	17.5	4	5.4	4	-1E+10	1	-1E+10	1	-1E+10	1	-1E+10	1	-1E+10	1	-1E+10	1
4902551	59	C	03/29/2022	15:06	-131.906	49.847	0	1355.00	0	2.6110	0	34.4630	0	27.499	0	1339.045	0	17.7	4	5.4	4	-1E+10	1	-1E+10	1	-1E+10	1	-1E+10	1	-1E+10	1	-1E+10	1
4902551	59	C	03/29/2022	15:06	-131.906	49.847	0	1365.50	0	2.5930	0	34.4650	0	27.502	0	1349.388	0	17.9	4	5.5	4	-1E+10	1	-1E+10	1	-1E+10	1	-1E+10	1	-1E+10	1	-1E+10	1
4902551	59	C	03/29/2022	15:06	-131.906	49.847	0	1375.70	0	2.5870	0	34.4670	0	27.504	0	1359.434	0	18.3	4	5.6	4	-1E+10	1	-1E+10	1	-1E+10	1	-1E+10	1	-1E+10	1	-1E+10	1
4902551	59	C	03/29/2022	15:06	-131.906	49.847	0	1385.10	0	2.5670	0	34.4700	0	27.508	0	1368.693	0	18.7	4	5.7	4	-1E+10	1	-1E+10	1	-1E+10	1	-1E+10	1	-1E+10	1	-1E+10	1
4902551	59	C	03/29/2022	15:06	-131.906	49.847	0	1395.30	0	2.5490	0	34.4720	0	27.512	0	1378.739	0	18.6	4	5.7	4	-1E+10	1	-1E+10	1	-1E+10	1	-1E+10	1	-1E+10	1	-1E+10	1
4902551	59	C	03/29/2022	15:06	-131.906	49.847	0	1405.70	0	2.5290	0	34.4730	0	27.514	0	1388.981	0	18.7	4	5.7	4	-1E+10	1	-1E+10	1	-1E+10	1	-1E+10	1	-1E+10	1	-1E+10	1
4902551	59	C	03/29/2022	15:06	-131.906	49.847	0	1415.50	0	2.5180	0	34.4740	0	27.516	0	1398.632	0	19.0	4	5.8	4	-1E+10	1	-1E+10	1	-1E+10	1	-1E+10	1	-1E+10	1	-1E+10	1
4902551	59	C	03/29/2022	15:06	-131.906	49.847	0	1425.30	0	2.5090	0	34.4760	0	27.518	0	1408.283	0	19.4	4	5.9	4	-1E+10	1	-1E+10	1	-1E+10	1	-1E+10	1	-1E+10	1	-1E+10	1
4902551	59	C	03/29/2022	15:06	-131.906	49.847	0	1435.20	0	2.4910	0	34.4790	0	27.522	0	1418.031	0	19.9	4	6.1	4	-1E+10	1	-1E+10	1	-1E+10	1	-1E+10	1	-1E+10	1	-1E+10	1
4902551	59	C	03/29/2022	15:06	-131.906	49.847	0	1445.30	0	2.4680	0	34.4820	0	27.527	0	1427.976	0	20.4	4	6.2	4	-1E+10	1	-1E+10	1	-1E+10	1	-1E+10	1	-1E+10	1	-1E+10	1
4902551	59	C	03/29/2022	15:06	-131.906	49.847	0	1455.60	0	2.4560	0	34.4840	0	27.529	0	1438.118	0	21.0	4	6.4	4	-1E+10	1	-1E+10	1	-1E+10	1	-1E+10	1	-1E+10	1	-1E+10	1
4902551	59	C	03/29/2022	15:06	-131.906	49.847	0	1465.40	0	2.4520	0	34.4870	0	27.532	0	1447.766	0	21.9	4	6.7	4	-1E+10	1	-1E+10	1	-1E+10	1	-1E+10	1	-1E+10	1	-1E+10	1
4902551	59	C	03/29/2022	15:06	-131.906	49.847	0	1475.40	0	2.4410	0	34.4900	0	27.535	0	1457.612	0	22.8	4	7.0	4	-1E+10	1	-1E+10	1	-1E+10	1	-1E+10	1	-1E+10	1	-1E+10	1
4902551	59	C	03/29/2022	15:06	-131.906	49.847	0	1485.30	0	2.4340	0	34.4940	0	27.539	0	1467.358	0	23.6	4	7.2	4	-1E+10	1	-1E+10	1	-1E+10	1	-1E+10	1	-1E+10	1	-1E+10	1
4902551	59	C	03/29/2022	15:06	-131.906	49.847	0	1495.10	0	2.4270	0	34.4960	0	27.542	0	1477.005	0	24.1	4	7.3	4	-1E+10	1	-1E+10	1	-1E+10	1	-1E+10	1	-1E+10	1	-1E+10	1
4902551	59	C	03/29/2022	15:06	-131.906	49.847	0	1505.30	0	2.4010	0	34.5000	0	27.547	0	1487.046	0	24.5	4	7.5	4	-1E+10	1	-1E+10	1	-1E+10	1	-1E+10	1	-1E+10	1	-1E+10	1
4902551	59	C	03/29/2022	15:06	-131.906	49.847	0	1515.40	0	2.3780	0	34.5010	0	27.550	0	1496.988	0	24.6	4	7.5	4	-1E+10	1	-1E+10	1	-1E+10	1	-1E+10	1	-1E+10	1	-1E+10	1
4902551	59	C	03/29/2022	15:06	-131.906	49.847	0	1525.50	0	2.3580	0	34.5040	0	27.554	0	1506.929	0	25.4	4	7.7	4	-1E+10	1	-1E+10	1	-1E+10	1	-1E+10	1	-1E+10	1	-1E+10	1
4902551	59	C	03/29/2022	15:06	-131.906	49.847	0	1535.50	0	2.3420	0	34.5060	0	27.557	0	1516.771	0	25.8	4	7.8	4	-1E+10	1	-1E+10	1	-1E+10	1	-1E+10	1	-1E+10	1	-1E+10	1
4902551	59	C	03/29/2022	15:06	-131.906	49.847	0	1545.50	0	2.3330	0	34.5080	0	27.559	0	1526.613	0	26.3	4	8.0	4	-1E+10	1	-1E+10	1	-1E+10	1	-1E+10	1	-1E+10	1	-1E+10	1
4902551	59	C	03/29/2022	15:06	-131.906	49.847	0	1555.30	0	2.3330	0	34.5090	0	27.560	0	1536.258	0	27.1	4	8.2	4	-1E+10	1	-1E+10	1	-1E+10	1	-1E+10	1	-1E+10	1	-1E+10	1
4902551	59	C	03/29/2022	15:06	-131.906	49.847	0	1565.10	0	2.3170	0	34.5120	0	27.564	0	1545.902	0	27.9	4	8.5	4	-1E+10	1	-1E+10	1	-1E+10	1	-1E+10	1	-1E+10	1	-1E+10	1
4902551	59	C	03/29/2022	15:06	-131.906	49.847	0	1575.00	0	2.2950	0	34.5150	0	27.568	0	1555.644	0	28.5	4	8.7	4	-1E+10	1	-1E+10	1	-1E+10	1	-1E+10	1	-1E+10	1	-1E+10	1
4902551	59	C	03/29/2022	15:06	-131.906	49.847	0	1585.20	0	2.2850	0	34.5180	0	27.571	0	1565.681	0	29.3	4	8.9	4	-1E+10	1	-1E+10	1	-1E+10	1	-1E+10	1	-1E+10	1	-1E+10	1
4902551	59	C	03/29/2022	15:06	-131.906	49.847	0	1595.50	0	2.2720	0	34.5200	0	27.574	0	1575.816	0	30.0	4	9.1	4	-1E+10	1	-1E+10	1	-1E+10	1	-1E+10	1	-1E+10	1	-1E+10	1
4902551	59	C	03/29/2022	15:06	-131.906	49.847	0	1605.40	0	2.2570	0	34.5230	0	27.578	0	1585.557	0	30.6	4	9.3	4	-1E+10	1	-1E+10	1	-1E+10	1	-1E+10	1	-1E+10	1	-1E+10	1
4902551	59	C	03/29/2022	15:06	-131.906	49.847	0	1615.20	0	2.2380	0	34.5250	0	27.581	0	1595.199	0	31.4	4	9.5	4	-1E+10	1	-1E+10	1	-1E+10	1	-1E+10	1	-1E+10	1	-1E+10	1
4902551	59	C	03/29/2022	15:06	-131.906	49.847	0	1625.40	0	2.2170	0	34.5280	0	27.585	0	1605.234	0	32.2	4	9.8	4	-1E+10	1	-1E+10	1	-1E+10	1	-1E+10	1	-1E+10	1	-1E+10	1
4902551	59	C	03/29/2022	15:06	-131.906	49.847	0	1635.60	0	2.2080	0	34.5300	0	27.587	0	1615.269	0	32.7	4	9.9	4	-1E+10	1	-1E+10	1	-1E+10	1	-1E+10	1	-1E+10	1	-1E+10	1
4902551	59	C	03/29/2022	15:06	-131.906	49.847	0	1645.60	0	2.1980	0	34.5320	0	27.590	0	1625.106	0	33.3	4	10.1	4	-1E+10	1	-1E+10	1	-1E+10	1	-1E+10	1	-1E+10	1	-1E+10	1
4902551	59	C	03/29/2022	15:06	-131.906	49.847	0	1655.20	0	2.1890	0	34.5330	0	27.591	0	1634.549	0	33.7	4	10.2	4	-1E+10	1	-1E+10	1	-1E+10	1	-1E+10	1	-1E+10	1	-1E+10	1
4902551	59	C	03/29/2022	15:06	-131.906	49.847	0	1665.40	0	2.1820	0	34.5350	0	27.594	0	1644.583	0	34.4	4	10.4	4	-1E+10	1	-1E+10	1	-1E+10	1	-1E+10	1	-1E+10	1	-1E+10	1
4902551	59	C	03/29/2022	15:06	-131.906	49.847	0	1675.70	0	2.1760	0	34.5370	0	27.596	0	1654.714	0	34.9	4	10.6	4	-1E+10	1	-1E+10	1	-1E+10	1	-1E+10	1	-1E+10	1	-1E+10	1
4902551	59	C	03/29/2022	15:06	-131.906	49.847	0	1685.40	0	2.1730	0	34.5380	0	27.597	0	1664.254	0	35.3	4	10.7	4	-1E+10	1	-1E+10	1	-1E+10	1	-1E+10	1	-1E+10	1	-1E+10	1
4902551	59	C	03/29/2022	15:06	-131.906	49.847	0	1695.30	0	2.1690	0	34.5390	0	27.598	0	1673.991	0	35.9	4	10.9	4	-1E+10	1	-1E+10	1	-1E+10	1	-1E+10	1	-1E+10	1	-1E+10	1
4902551	59	C	03/29/2022	15:06	-131.906	49.847	0	1705.60	0	2.1520	0	34.5410	0	27.601	0	1684.121	0	36.2	4	11.0	4	-1E+10	1	-1E+10	1	-1E+10	1	-1E+10	1	-1E+10	1	-1E+10	1
4902551	59	C	03/29/2022	15:06	-131.906	49.847	0	1715.40	0	2.1450	0	34.5420	0	27.602	0	1693.758	0	36.6	4	11.1	4	-1E+10	1	-1E+10	1	-1E+10	1	-1E+10	1	-1E+10	1	-1E+10	1
4902551	59	C	03/29/2022	15:06	-131.906	49.847	0	1725.10	0	2.1420	0	34.5430	0	27.603	0	1703.297	0	36.9	4	11.2	4	-1E+10	1	-1E+10	1	-1E+10	1	-1E+10	1	-1E+10	1	-1E+10	1
4902551	59	C	03/29/2022	15:06	-131.906	49.847	0	1735.30	0	2.1340	0	34.5440	0	27.605	0	1713.327	0	37.5	4	11.3	4	-1E+10	1	-1E+10	1	-1E+10	1	-1E+10	1	-1E+10	1	-1E+10	1
4902551	59	C	03/29/2022	15:06	-131.906	49.847	0	1745.60	0	2.1250	0	34.5460	0	27.607	0	1723.454	0	38.2	4	11.6	4	-1E+10	1	-1E+10	1	-1E+10	1	-1E+10	1	-1E+10	1	-1E+10	1
4902551	59	C	03/29/2022	15:06	-131.906	49.847	0	1755.40	0	2.1150	0	34.5480	0	27.610	0	1733.090	0	38.9	4	11.8	4	-1E+10	1	-1E+10	1	-1E+10	1	-1E+10	1	-1E+10	1	-1E+10	1
4902551	59	C	03/29/2022	15:06	-131.906	49.847	0	1765.30	0	2.1090	0	34.5490	0	27.611	0	1742.824	0	39.5	4	12.0	4	-1E+10	1	-1E+10	1	-1E+10	1	-1E+10	1	-1E+10	1	-1E+10	1
4902551	59	C	03/29/2022	15:06	-131.906	49.847	0	1775.40	0	2.0980	0	34.5510	0	27.614	0	1752.753	0	40.3	4	12.2	4	-1E+10	1	-1E+10	1	-1E+10	1	-1E+10	1	-1E+10	1	-1E+10	1
4902551	59	C	03/29/2022	15:06	-131.906	49.847	0	1785.50	0	2.0900	0	34.5530	0	27.616	0	1762.683	0	40.9	4	12.3	4	-1E+10	1	-1E+10	1	-1E+10	1	-1E+10	1	-1E+10	1	-1E+10	1
4902551	59	C	03/29/2022	15:06	-131.906	49.847	0	1795.50	0	2.0840	0	34.5540	0	27.617	0	1772.513	0	41.5	4	12.5	4	-1E+10	1	-1E+10	1	-1E+10	1	-1E+10	1	-1E+10	1	-1E+10	1
4902551	59	C	03/29/2022	15:06	-131.906	49.847	0	1805.50	0	2.0790	0	34.5550	0	27.619	0	1782.343	0	41.9	4	12.6	4	-1E+10	1	-1E+10	1	-1E+10	1	-1E+10	1	-1E+10	1	-1E+10	1
4902551	59	C	03/29/2022	15:06	-131.906	49.847	0	1815.60	0	2.0720	0	34.5570	0	27.621	0	1792.271	0	42.3	4	12.8	4	-1E+10	1	-1E+10	1	-1E+10	1	-1E+10	1	-1E+10	1	-1E+10	1
4902551	59	C	03/29/2022	15:06	-131.906	49.847	0	1825.40	0	2.0710	0	34.5570	0	27.621	0	1801.904	0	42.8	4	12.9	4	-1E+10	1	-1E+10	1	-1E+10	1	-1E+10	1	-1E+10	1	-1E+10	1
4902551	59	C	03/29/2022	15:06	-131.906	49.847	0	1835.50	0	2.0680	0	34.5580	0	27.622	0	1811.831	0	44.1	4	13.3	4	-1E+10	1	-1E+10	1	-1E+10	1	-1E+10	1	-1E+10	1	-1E+10	1
4902551	59	C	03/29/2022	15:06	-131.906	49.847	0	1845.50	0	2.0580	0	34.5610	0	27.625	0	1821.659	0	45.7	4	13.8	4	-1E+10	1	-1E+10	1	-1E+10	1	-1E+10	1	-1E+10	1	-1E+10	1
4902551	59	C	03/29/2022	15:06	-131.906	49.847	0	1855.20	0	2.0420	0	34.5640	0	27.629	0	1831.192	0	46.8	4	14.1	4	-1E+10	1	-1E+10	1	-1E+10	1	-1E+10	1	-1E+10	1	-1E+10	1
4902551	59	C	03/29/2022	15:06	-131.906	49.847	0	1865.30	0	2.0280	0	34.5670	0	27.632	0	1841.117	0	47.8	4	14.4	4	-1E+10	1	-1E+10	1	-1E+10	1	-1E+10	1	-1E+10	1	-1E+10	1
4902551	59	C	03/29/2022	15:06	-131.906	49.847	0	1875.40	0	2.0230	0	34.5680	0	27.634	0	1851.043	0	48.2	4	14.5	4	-1E+10	1	-1E+10	1	-1E+10	1	-1E+10	1	-1E+10	1	-1E+10	1
4902551	59	C	03/29/2022	15:06	-131.906	49.847	0	1885.50	0	2.0150	0	34.5690	0	27.635	0	1860.967	0	48.9	4	14.7	4	-1E+10	1	-1E+10	1	-1E+10	1	-1E+10	1	-1E+10	1	-1E+10	1
4902551	59	C	03/29/2022	15:06	-131.906	49.847	0	1895.70	0	2.0090	0	34.5710	0	27.637	0	1870.990	0	49.4	4	14.9	4	-1E+10	1	-1E+10	1	-1E+10	1	-1E+10	1	-1E+10	1	-1E+10	1
4902551	59	C	03/29/2022	15:06	-131.906	49.847	0	1905.60	0	2.0040	0	34.5720	0	27.639	0	1880.717	0	49.9	4	15.1	4	-1E+10	1	-1E+10	1	-1E+10	1	-1E+10	1	-1E+10	1	-1E+10	1
4902551	59	C	03/29/2022	15:06	-131.906	49.847	0	1915.90	0	1.9990	0	34.5730	0	27.640	0	1890.837	0	50.1	4	15.1	4	-1E+10	1	-1E+10	1	-1E+10	1	-1E+10	1	-1E+10	1	-1E+10	1
4902551	59	C	03/29/2022	15:06	-131.906	49.847	0	1925.30	0	1.9930	0	34.5730	0	27.640	0	1900.072	0	50.1	4	15.1	4	-1E+10	1	-1E+10	1	-1E+10	1	-1E+10	1	-1E+10	1	-1E+10	1
4902551	59	C	03/29/2022	15:06	-131.906	49.847	0	1935.20	0	1.9840	0	34.5750	0	27.643	0	1909.798	0	50.7	4	15.3	4	-1E+10	1	-1E+10	1	-1E+10	1	-1E+10	1	-1E+10	1	-1E+10	1
4902551	59	C	03/29/2022	15:06	-131.906	49.847	0	1945.10	0	1.9810	0	34.5760	0	27.644	0	1919.523	0	51.2	4	15.4	4	-1E+10	1	-1E+10	1	-1E+10	1	-1E+10	1	-1E+10	1	-1E+10	1
4902551	59	C	03/29/2022	15:06	-131.906	49.847	0	1955.10	0	1.9780	0	34.5770	0	27.645	0	1929.346	0	51.4	4	15.5	4	-1E+10	1	-1E+10	1	-1E+10	1	-1E+10	1	-1E+10	1	-1E+10	1
4902551	59	C	03/29/2022	15:06	-131.906	49.847	0	1966.60	0	1.9700	0	34.5780	0	27.646	0	1940.643	0	50.9	4	15.3	4	-1E+10	1	-1E+10	1	-1E+10	1	-1E+10	1	-1E+10	1	-1E+10	1
4902551	59	C	03/29/2022	15:06	-131.906	49.847	0																										
4902551	60	C	04/08/2022	20:03	-131.784	49.866	0	0.40	0	7.4430	0	32.2830	0	25.219	0	0.397	0	283.0	4	95.5	4	-1E+10	1	-1E+10	1	-1E+10	1	-1E+10	1	-1E+10	1	-1E+10	1
4902551	60	C	04/08/2022	20:03	-131.784	49.866	0	0.60	0	7.4440	0	32.2803	0	25.217	0	0.595	0	-1e10	1	-1e10	1	-1E+10	1	-1E+10	1	-1E+10	1	-1E+10	1	-1E+10	1	-1E+10	1
4902551	60	C	04/08/2022	20:03	-131.784	49.866	0	0.70	0	7.4445	0	32.2790	0	25.216	0	0.694	0	-1e10	1	-1e10	1	-1E+10	1	-1E+10	1	-1E+10	1	-1E+10	1	-1E+10	1	-1E+10	1
4902551	60	C	04/08/2022	20:03	-131.784	49.866	0	1.00	0	7.4460	0	32.2750	0	25.213	0	0.991	0	-1e10	1	-1e10	1	-1E+10	1	-1E+10	1	-1E+10	1	-1E+10	1	-1E+10	1	-1E+10	1
4902551	60	C	04/08/2022	20:03	-131.784	49.866	0	1.10	0	7.4456	0	32.2753	0	25.213	0	1.091	0	282.6	4	95.4	4	-1E+10	1	-1E+10	1	-1E+10	1	-1E+10	1	-1E+10	1	-1E+10	1
4902551	60	C	04/08/2022	20:03	-131.784	49.866	0	2.10	0	7.4420	0	32.2780	0	25.216	0	2.082	0	282.6	4	95.4	4	-1E+10	1	-1E+10	1	-1E+10	1	-1E+10	1	-1E+10	1	-1E+10	1
4902551	60	C	04/08/2022	20:03	-131.784	49.866	0	3.00	0	7.4410	0	32.2740	0	25.213	0	2.974	0	282.5	4	95.3	4	-1E+10	1	-1E+10	1	-1E+10	1	-1E+10	1	-1E+10	1	-1E+10	1
4902551	60	C	04/08/2022	20:03	-131.784	49.866	0	3.90	0	7.4340	0	32.2780	0	25.217	0	3.867	0	282.5	4	95.3	4	-1E+10	1	-1E+10	1	-1E+10	1	-1E+10	1	-1E+10	1	-1E+10	1
4902551	60	C	04/08/2022	20:03	-131.784	49.866	0	5.10	0	7.4180	0	32.2920	0	25.230	0	5.056	0	282.1	4	95.2	4	-1E+10	1	-1E+10	1	-1E+10	1	-1E+10	1	-1E+10	1	-1E+10	1
4902551	60	C	04/08/2022	20:03	-131.784	49.866	0	5.90	0	7.4160	0	32.2930	0	25.231	0	5.849	0	282.4	4	95.2	4	-1E+10	1	-1E+10	1	-1E+10	1	-1E+10	1	-1E+10	1	-1E+10	1
4902551	60	C	04/08/2022	20:03	-131.784	49.866	0	7.00	0	7.4150	0	32.2930	0	25.231	0	6.940	0	282.4	4	95.2	4	-1E+10	1	-1E+10	1	-1E+10	1	-1E+10	1	-1E+10	1	-1E+10	1
4902551	60	C	04/08/2022	20:03	-131.784	49.866	0	8.00	0	7.4090	0	32.2920	0	25.231	0	7.931	0	282.4	4	95.2	4	-1E+10	1	-1E+10	1	-1E+10	1	-1E+10	1	-1E+10	1	-1E+10	1
4902551	60	C	04/08/2022	20:03	-131.784	49.866	0	8.90	0	7.4020	0	32.2920	0	25.232	0	8.824	0	282.2	4	95.2	4	-1E+10	1	-1E+10	1	-1E+10	1	-1E+10	1	-1E+10	1	-1E+10	1
4902551	60	C	04/08/2022	20:03	-131.784	49.866	0	10.00	0	7.4130	0	32.2950	0	25.233	0	9.914	0	282.2	4	95.2	4	-1E+10	1	-1E+10	1	-1E+10	1	-1E+10	1	-1E+10	1	-1E+10	1
4902551	60	C	04/08/2022	20:03	-131.784	49.866	0	11.00	0	7.4060	0	32.2930	0	25.232	0	10.906	0	282.0	4	95.1	4	-1E+10	1	-1E+10	1	-1E+10	1	-1E+10	1	-1E+10	1	-1E+10	1
4902551	60	C	04/08/2022	20:03	-131.784	49.866	0	12.10	0	7.4040	0	32.2870	0	25.228	0	11.996	0	282.1	4	95.1	4	-1E+10	1	-1E+10	1	-1E+10	1	-1E+10	1	-1E+10	1	-1E+10	1
4902551	60	C	04/08/2022	20:03	-131.784	49.866	0	13.10	0	7.3960	0	32.2920	0	25.233	0	12.987	0	282.1	4	95.1	4	-1E+10	1	-1E+10	1	-1E+10	1	-1E+10	1	-1E+10	1	-1E+10	1
4902551	60	C	04/08/2022	20:03	-131.784	49.866	0	14.10	0	7.3960	0	32.2920	0	25.233	0	13.979	0	282.0	4	95.1	4	-1E+10	1	-1E+10	1	-1E+10	1	-1E+10	1	-1E+10	1	-1E+10	1
4902551	60	C	04/08/2022	20:03	-131.784	49.866	0	14.90	0	7.3970	0	32.2920	0	25.233	0	14.772	0	282.0	4	95.1	4	-1E+10	1	-1E+10	1	-1E+10	1	-1E+10	1	-1E+10	1	-1E+10	1
4902551	60	C	04/08/2022	20:03	-131.784	49.866	0	15.70	0	7.3960	0	32.2930	0	25.234	0	15.565	0	282.0	4	95.0	4	-1E+10	1	-1E+10	1	-1E+10	1	-1E+10	1	-1E+10	1	-1E+10	1
4902551	60	C	04/08/2022	20:03	-131.784	49.866	0	16.70	0	7.3950	0	32.2920	0	25.233	0	16.556	0	282.0	4	95.0	4	-1E+10	1	-1E+10	1	-1E+10	1	-1E+10	1	-1E+10	1	-1E+10	1
4902551	60	C	04/08/2022	20:03	-131.784	49.866	0	17.80	0	7.3950	0	32.2920	0	25.233	0	17.647	0	281.9	4	95.0	4	-1E+10	1	-1E+10	1	-1E+10	1	-1E+10	1	-1E+10	1	-1E+10	1
4902551	60	C	04/08/2022	20:03	-131.784	49.866	0	19.00	0	7.3950	0	32.2920	0	25.233	0	18.836	0	281.9	4	95.0	4	-1E+10	1	-1E+10	1	-1E+10	1	-1E+10	1	-1E+10	1	-1E+10	1
4902551	60	C	04/08/2022	20:03	-131.784	49.866	0	20.00	0	7.3950	0	32.2920	0	25.233	0	19.828	0	281.9	4	95.0	4	-1E+10	1	-1E+10	1	-1E+10	1	-1E+10	1	-1E+10	1	-1E+10	1
4902551	60	C	04/08/2022	20:03	-131.784	49.866	0	21.10	0	7.3950	0	32.2920	0	25.233	0	20.918	0	281.9	4	95.0	4	-1E+10	1	-1E+10	1	-1E+10	1	-1E+10	1	-1E+10	1	-1E+10	1
4902551	60	C	04/08/2022	20:03	-131.784	49.866	0	21.90	0	7.3960	0	32.2920	0	25.233	0	21.711	0	282.0	4	95.0	4	-1E+10	1	-1E+10	1	-1E+10	1	-1E+10	1	-1E+10	1	-1E+10	1
4902551	60	C	04/08/2022	20:03	-131.784	49.866	0	22.70	0	7.3960	0	32.2920	0	25.233	0	22.504	0	281.9	4	95.0	4	-1E+10	1	-1E+10	1	-1E+10	1	-1E+10	1	-1E+10	1	-1E+10	1
4902551	60	C	04/08/2022	20:03	-131.784	49.866	0	23.70	0	7.3940	0	32.2920	0	25.233	0	23.496	0	281.9	4	95.0	4	-1E+10	1	-1E+10	1	-1E+10	1	-1E+10	1	-1E+10	1	-1E+10	1
4902551	60	C	04/08/2022	20:03	-131.784	49.866	0	24.80	0	7.3940	0	32.2930	0	25.234	0	24.586	0	281.9	4	95.0	4	-1E+10	1	-1E+10	1	-1E+10	1	-1E+10	1	-1E+10	1	-1E+10	1
4902551	60	C	04/08/2022	20:03	-131.784	49.866	0	25.90	0	7.3940	0	32.2920	0	25.233	0	25.677	0	281.8	4	95.0	4	-1E+10	1	-1E+10	1	-1E+10	1	-1E+10	1	-1E+10	1	-1E+10	1
4902551	60	C	04/08/2022	20:03	-131.784	49.866	0	27.10	0	7.3950	0	32.2920	0	25.233	0	26.866	0	281.8	4	95.0	4	-1E+10	1	-1E+10	1	-1E+10	1	-1E+10	1	-1E+10	1	-1E+10	1
4902551	60	C	04/08/2022	20:03	-131.784	49.866	0	27.90	0	7.3940	0	32.2930	0	25.234	0	27.659	0	281.8	4	95.0	4	-1E+10	1	-1E+10	1	-1E+10	1	-1E+10	1	-1E+10	1	-1E+10	1
4902551	60	C	04/08/2022	20:03	-131.784	49.866	0	28.80	0	7.3940	0	32.2920	0	25.234	0	28.551	0	281.8	4	95.0	4	-1E+10	1	-1E+10	1	-1E+10	1	-1E+10	1	-1E+10	1	-1E+10	1
4902551	60	C	04/08/2022	20:03	-131.784	49.866	0	30.00	0	7.3940	0	32.2920	0	25.234	0	29.741	0	281.8	4	95.0	4	-1E+10	1	-1E+10	1	-1E+10	1	-1E+10	1	-1E+10	1	-1E+10	1
4902551	60	C	04/08/2022	20:03	-131.784	49.866	0	30.90	0	7.3930	0	32.2930	0	25.234	0	30.633	0	281.8	4	95.0	4	-1E+10	1	-1E+10	1	-1E+10	1	-1E+10	1	-1E+10	1	-1E+10	1
4902551	60	C	04/08/2022	20:03	-131.784	49.866	0	31.90	0	7.3940	0	32.2920	0	25.234	0	31.624	0	281.7	4	95.0	4	-1E+10	1	-1E+10	1	-1E+10	1	-1E+10	1	-1E+10	1	-1E+10	1
4902551	60	C	04/08/2022	20:03	-131.784	49.866	0	33.10	0	7.3950	0	32.2920	0	25.233	0	32.814	0	281.6	4	94.9	4	-1E+10	1	-1E+10	1	-1E+10	1	-1E+10	1	-1E+10	1	-1E+10	1
4902551	60	C	04/08/2022	20:03	-131.784	49.866	0	34.00	0	7.3960	0	32.2920	0	25.233	0	33.706	0	281.7	4	94.9	4	-1E+10	1	-1E+10	1	-1E+10	1	-1E+10	1	-1E+10	1	-1E+10	1
4902551	60	C	04/08/2022	20:03	-131.784	49.866	0	35.00	0	7.3950	0	32.2920	0	25.233	0	34.697	0	281.6	4	94.9	4	-1E+10	1	-1E+10	1	-1E+10	1	-1E+10	1	-1E+10	1	-1E+10	1
4902551	60	C	04/08/2022	20:03	-131.784	49.866	0	35.90	0	7.3960	0	32.2920	0	25.233	0	35.590	0	281.6	4	94.9	4	-1E+10	1	-1E+10	1	-1E+10	1	-1E+10	1	-1E+10	1	-1E+10	1
4902551	60	C	04/08/2022	20:03	-131.784	49.866	0	36.80	0	7.3950	0	32.2920	0	25.233	0	36.482	0	281.6	4	94.9	4	-1E+10	1	-1E+10	1	-1E+10	1	-1E+10	1	-1E+10	1	-1E+10	1
4902551	60	C	04/08/2022	20:03	-131.784	49.866	0	38.00	0	7.3960	0	32.2920	0	25.233	0	37.671	0	281.5	4	94.9	4	-1E+10	1	-1E+10	1	-1E+10	1	-1E+10	1	-1E+10	1	-1E+10	1
4902551	60	C	04/08/2022	20:03	-131.784	49.866	0	38.90	0	7.3950	0	32.2920	0	25.234	0	38.563	0	281.4	4	94.9	4	-1E+10	1	-1E+10	1	-1E+10	1	-1E+10	1	-1E+10	1	-1E+10	1
4902551	60	C	04/08/2022	20:03	-131.784	49.866	0	39.80	0	7.3940	0	32.2930	0	25.234	0	39.455	0	281.4	4	94.9	4	-1E+10	1	-1E+10	1	-1E+10	1	-1E+10	1	-1E+10	1	-1E+10	1
4902551	60	C	04/08/2022	20:03	-131.784	49.866	0	41.00	0	7.3900	0	32.2940	0	25.236	0	40.645	0	281.4	4	94.9	4	-1E+10	1	-1E+10	1	-1E+10	1	-1E+10	1	-1E+10	1	-1E+10	1
4902551	60	C	04/08/2022	20:03	-131.784	49.866	0	42.00	0	7.3890	0	32.2940	0	25.236	0	41.636	0	281.4	4	94.8	4	-1E+10	1	-1E+10	1	-1E+10	1	-1E+10	1	-1E+10	1	-1E+10	1
4902551	60	C	04/08/2022	20:03	-131.784	49.866	0	42.90	0	7.3890	0	32.2940	0	25.236	0	42.528	0	281.3	4	94.8	4	-1E+10	1	-1E+10	1	-1E+10	1	-1E+10	1	-1E+10	1	-1E+10	1
4902551	60	C	04/08/2022	20:03	-131.784	49.866	0	43.80	0	7.3900	0	32.2940	0	25.236	0	43.420	0	281.2	4	94.8	4	-1E+10	1	-1E+10	1	-1E+10	1	-1E+10	1	-1E+10	1	-1E+10	1
4902551	60	C	04/08/2022	20:03	-131.784	49.866	0	44.80	0	7.3880	0	32.2940	0	25.236	0	44.412	0	281.3	4	94.8	4	-1E+10	1	-1E+10	1	-1E+10	1	-1E+10	1	-1E+10	1	-1E+10	1
4902551	60	C	04/08/2022	20:03	-131.784	49.866	0	45.80	0	7.3880	0	32.2950	0	25.237	0	45.403	0	281.3	4	94.8	4	-1E+10	1	-1E+10	1	-1E+10	1	-1E+10	1	-1E+10	1	-1E+10	1
4902551	60	C	04/08/2022	20:03	-131.784	49.866	0	46.80	0	7.3890	0	32.2940	0	25.236	0	46.394	0	281.2	4	94.8	4	-1E+10	1	-1E+10	1	-1E+10	1	-1E+10	1	-1E+10	1	-1E+10	1
4902551	60	C	04/08/2022	20:03	-131.784	49.866	0	47.90	0	7.3900	0	32.2940	0	25.236	0	47.484	0	281.2	4	94.8	4	-1E+10	1	-1E+10	1	-1E+10	1	-1E+10	1	-1E+10	1	-1E+10	1
4902551	60	C	04/08/2022	20:03	-131.784	49.866	0	48.80	0	7.3900	0	32.2940	0	25.236	0	48.377	0	281.1	4	94.8	4	-1E+10	1	-1E+10	1	-1E+10	1	-1E+10	1	-1E+10	1	-1E+10	1
4902551	60	C	04/08/2022	20:03	-131.784	49.866	0	49.80	0	7.3900	0	32.2940	0	25.236	0	49.368	0	281.2	4	94.8	4	-1E+10	1	-1E+10	1	-1E+10	1	-1E+10	1	-1E+10	1	-1E+10	1
4902551	60	C	04/08/2022	20:03	-131.784	49.866	0	50.80	0	7.3900	0	32.2950	0	25.237	0	50.359	0	281.0	4	94.7	4	-1E+10	1	-1E+10	1	-1E+10	1	-1E+10	1	-1E+10	1	-1E+10	1
4902551	60	C	04/08/2022	20:03	-131.784	49.866	0	51.80	0	7.3900	0	32.2950	0	25.237	0	51.350	0	281.0	4	94.7	4	-1E+10	1	-1E+10	1	-1E+10	1	-1E+10	1	-1E+10	1	-1E+10	1
4902551	60	C	04/08/2022	20:03	-131.784	49.866	0	52.80	0	7.3890	0	32.2940	0	25.236	0	52.341	0	281.0	4	94.7	4	-1E+10	1	-1E+10	1	-1E+10	1	-1E+10	1	-1E+10	1	-1E+10	1
4902551	60	C	04/08/2022	20:03	-131.784	49.866	0	54.10	0	7.3890	0	32.2940	0	25.236	0	53.630	0	281.0	4	94.7	4	-1E+10	1	-1E+10	1	-1E+10	1	-1E+10	1	-1E+10	1	-1E+10	1
4902551	60	C	04/08/2022	20:03	-131.784	49.866	0	55.10	0	7.3900	0	32.2950	0	25.237	0	54.621	0	280.8	4	94.7	4	-1E+10	1	-1E+10	1	-1E+10	1	-1E+10	1	-1E+10	1	-1E+10	1
4902551	60	C	04/08/2022	20:03	-131.784	49.866	0	56.10	0	7.3900	0	32.2940	0	25.236	0	55.612	0	280.9	4	94.7	4	-1E+10	1	-1E+10	1	-1E+10	1	-1E+10	1	-1E+10	1	-1E+10	1
4902551	60	C	04/08/2022	20:03	-131.784	49.866	0	57.00	0	7.3900	0	32.2940	0	25.236	0	56.504	0	280.7	4	94.6	4	-1E+10	1	-1E+10	1	-1E+10	1	-1E+10	1	-1E+10	1	-1E+10	1
4902551	60	C	04/08/2022	20:03	-131.784	49.866	0	58.00	0	7.3890	0	32.2950	0	25.237	0	57.495	0	280.7	4	94.6	4	-1E+10	1	-1E+10	1	-1E+10	1	-1E+10	1	-1E+10	1	-1E+10	1
4902551	60	C	04/08/2022	20:03	-131.784	49.866	0	58.90	0	7.3890	0	32.2950	0	25.237	0	58.387	0	280.7	4	94.6	4	-1E+10	1	-1E+10	1	-1E+10	1	-1E+10	1	-1E+10	1	-1E+10	1
4902551	60	C	04/08/2022	20:03	-131.784	49.866	0	59.90	0	7.3890	0	32.2950	0	25.237	0	59.379	0	280.6	4	94.6	4	-1E+10	1	-1E+10	1	-1E+10	1	-1E+10	1	-1E+10	1	-1E+10	1
4902551	60	C	04/08/2022	20:03	-131.784	49.866	0	61.10	0	7.3880	0	32.2950	0	25.237	0	60.568	0	280.5	4	94.5	4	-1E+10	1	-1E+10	1	-1E+10	1	-1E+10	1	-1E+10	1	-1E+10	1
4902551	60	C	04/08/2022	20:03	-131.784	49.866	0	62.10	0	7.3870	0	32.2960	0	25.238	0	61.559	0	280.3	4	94.5	4	-1E+10	1	-1E+10	1	-1E+10	1	-1E+10	1	-1E+10	1	-1E+10	1
4902551	60	C	04/08/2022	20:03	-131.784	49.866	0	63.00	0	7.3870	0	32.2960	0	25.238	0	62.451	0	280.4	4	94.5	4	-1E+10	1	-1E+10	1	-1E+10	1	-1E+10	1	-1E+10	1	-1E+10	1
4902551	60	C	04/08/2022	20:03	-131.784	49.866	0	63.90	0	7.3870	0	32.2960	0	25.238	0	63.343	0	280.3	4	94.5	4	-1E+10	1	-1E+10	1	-1E+10	1	-1E+10	1	-1E+10	1	-1E+10	1
4902551	60	C	04/08/2022	20:03	-131.784	49.866	0	64.80	0	7.3870	0	32.2960	0	25.238	0	64.235	0	280.2	4	94.4	4	-1E+10	1	-1E+10	1	-1E+10	1	-1E+10	1	-1E+10	1	-1E+10	1
4902551	60	C	04/08/2022	20:03	-131.784	49.866	0	66.00	0	7.3870	0	32.2960	0	25.238	0	65.425	0	280.0	4	94.4	4	-1E+10	1	-1E+10	1	-1E+10	1	-1E+10	1	-1E+10	1	-1E+10	1
4902551	60	C	04/08/2022	20:03	-131.784	49.866	0	66.90	0	7.3850	0	32.2980	0	25.240	0	66.317	0	279.9	4	94.3	4	-1E+10	1	-1E+10	1	-1E+10	1	-1E+10	1	-1E+10	1	-1E+10	1
4902551	60	C	04/08/2022	20:03	-131.784	49.866	0	67.80	0	7.3840	0	32.2990	0	25.241	0	67.209	0	279.9	4	94.3	4	-1E+10	1	-1E+10	1	-1E+10	1	-1E+10	1	-1E+10	1	-1E+10	1
4902551	60	C	04/08/2022	20:03	-131.784	49.866	0	69.10	0	7.3840	0	32.2990	0	25.241	0	68.497	0	279.6	4	94.2	4	-1E+10	1	-1E+10	1	-1E+10	1	-1E+10	1	-1E+10	1	-1E+10	1
4902551	60	C	04/08/2022	20:03	-131.784	49.866	0	70.00	0	7.3840	0	32.2990	0	25.241	0	69.389	0	279.4	4	94.2	4	-1E+10	1	-1E+10	1	-1E+10	1	-1E+10	1	-1E+10	1	-1E+10	1
4902551	60	C	04/08/2022	20:03	-131.784	49.866	0	71.00	0	7.3840	0	32.3000	0	25.242	0	70.380	0	279.3	4	94.1	4	-1E+10	1	-1E+10	1	-1E+10	1	-1E+10	1	-1E+10	1	-1E+10	1
4902551	60	C	04/08/2022	20:03	-131.784	49.866	0	72.00	0	7.3830	0	32.3010	0	25.243	0	71.371	0	279.1	4	94.1	4	-1E+10	1	-1E+10	1	-1E+10	1	-1E+10	1	-1E+10	1	-1E+10	1
4902551	60	C	04/08/2022	20:03	-131.784	49.866	0	73.00	0	7.3810	0	32.3010	0	25.243	0	72.362	0	278.9	4	94.0	4	-1E+10	1	-1E+10	1	-1E+10	1	-1E+10	1	-1E+10	1	-1E+10	1
4902551	60	C	04/08/2022	20:03	-131.784	49.866	0	74.10	0	7.3770	0	32.3050	0	25.247	0	73.452	0	278.7	4	93.9	4	-1E+10	1	-1E+10	1	-1E+10	1	-1E+10	1	-1E+10	1	-1E+10	1
4902551	60	C	04/08/2022	20:03	-131.784	49.866	0	74.80	0	7.3730	0	32.3070	0	25.249	0	74.146	0	278.7	4	93.9	4	-1E+10	1	-1E+10	1	-1E+10	1	-1E+10	1	-1E+10	1	-1E+10	1
4902551	60	C	04/08/2022	20:03	-131.784	49.866	0	75.80	0	7.3710	0	32.3080	0	25.250	0	75.137	0	278.5	4	93.8	4	-1E+10	1	-1E+10	1	-1E+10	1	-1E+10	1	-1E+10	1	-1E+10	1
4902551	60	C	04/08/2022	20:03	-131.784	49.866	0	77.00	0	7.3720	0	32.3080	0	25.250	0	76.327	0	278.4	4	93.8	4	-1E+10	1	-1E+10	1	-1E+10	1	-1E+10	1	-1E+10	1	-1E+10	1
4902551	60	C	04/08/2022	20:03	-131.784	49.866	0	78.00	0	7.3710	0	32.3080	0	25.250	0	77.318	0	278.3	4	93.8	4	-1E+10	1	-1E+10	1	-1E+10	1	-1E+10	1	-1E+10	1	-1E+10	1
4902551	60	C	04/08/2022	20:03	-131.784	49.866	0	79.20	0	7.3700	0	32.3090	0	25.251	0	78.507	0	278.1	4	93.7	4	-1E+10	1	-1E+10	1	-1E+10	1	-1E+10	1	-1E+10	1	-1E+10	1
4902551	60	C	04/08/2022	20:03	-131.784	49.866	0	79.90	0	7.3680	0	32.3100	0	25.252	0	79.201	0	278.1	4	93.7	4	-1E+10	1	-1E+10	1	-1E+10	1	-1E+10	1	-1E+10	1	-1E+10	1
4902551	60	C	04/08/2022	20:03	-131.784	49.866	0	81.00	0	7.3680	0	32.3100	0	25.252	0	80.291	0	277.9	4	93.6	4	-1E+10	1	-1E+10	1	-1E+10	1	-1E+10	1	-1E+10	1	-1E+10	1
4902551	60	C	04/08/2022	20:03	-131.784	49.866	0	82.10	0	7.3680	0	32.3100	0	25.252	0	81.381	0	277.9	4	93.6	4	-1E+10	1	-1E+10	1	-1E+10	1	-1E+10	1	-1E+10	1	-1E+10	1
4902551	60	C	04/08/2022	20:03	-131.784	49.866	0	82.90	0	7.3690	0	32.3100	0	25.252	0	82.174	0	284.7	4	95.9	4	-1E+10	1	-1E+10	1	-1E+10	1	-1E+10	1	-1E+10	1	-1E+10	1
4902551	60	C	04/08/2022	20:03	-131.784	49.866	0	83.90	0	7.3670	0	32.3090	0	25.251	0	83.165	0	284.6	4	95.9	4	-1E+10	1	-1E+10	1	-1E+10	1	-1E+10	1	-1E+10	1	-1E+10	1
4902551	60	C	04/08/2022	20:03	-131.784	49.866	0	85.10	0	7.3670	0	32.3100	0	25.252	0	84.354	0	284.3	4	95.8	4	-1E+10	1	-1E+10	1	-1E+10	1	-1E+10	1	-1E+10	1	-1E+10	1
4902551	60	C	04/08/2022	20:03	-131.784	49.866	0	85.80	0	7.3670	0	32.3100	0	25.252	0	85.048	0	284.2	4	95.8	4	-1E+10	1	-1E+10	1	-1E+10	1	-1E+10	1	-1E+10	1	-1E+10	1
4902551	60	C	04/08/2022	20:03	-131.784	49.866	0	86.80	0	7.3660	0	32.3100	0	25.252	0	86.039	0	284.0	4	95.7	4	-1E+10	1	-1E+10	1	-1E+10	1	-1E+10	1	-1E+10	1	-1E+10	1
4902551	60	C	04/08/2022	20:03	-131.784	49.866	0	87.90	0	7.3660	0	32.3110	0	25.253	0	87.129	0	283.7	4	95.6	4	-1E+10	1	-1E+10	1	-1E+10	1	-1E+10	1	-1E+10	1	-1E+10	1
4902551	60	C	04/08/2022	20:03	-131.784	49.866	0	88.90	0	7.3640	0	32.3110	0	25.253	0	88.120	0	283.5	4	95.5	4	-1E+10	1	-1E+10	1	-1E+10	1	-1E+10	1	-1E+10	1	-1E+10	1
4902551	60	C	04/08/2022	20:03	-131.784	49.866	0	89.90	0	7.3610	0	32.3120	0	25.255	0	89.111	0	283.3	4	95.4	4	-1E+10	1	-1E+10	1	-1E+10	1	-1E+10	1	-1E+10	1	-1E+10	1
4902551	60	C	04/08/2022	20:03	-131.784	49.866	0	90.90	0	7.3580	0	32.3140	0	25.257	0	90.102	0	283.0	4	95.3	4	-1E+10	1	-1E+10	1	-1E+10	1	-1E+10	1	-1E+10	1	-1E+10	1
4902551	60	C	04/08/2022	20:03	-131.784	49.866	0	92.10	0	7.3540	0	32.3160	0	25.259	0	91.291	0	282.6	4	95.2	4	-1E+10	1	-1E+10	1	-1E+10	1	-1E+10	1	-1E+10	1	-1E+10	1
4902551	60	C	04/08/2022	20:03	-131.784	49.866	0	93.00	0	7.3510	0	32.3180	0	25.261	0	92.183	0	282.3	4	95.1	4	-1E+10	1	-1E+10	1	-1E+10	1	-1E+10	1	-1E+10	1	-1E+10	1
4902551	60	C	04/08/2022	20:03	-131.784	49.866	0	93.90	0	7.3490	0	32.3180	0	25.261	0	93.075	0	281.9	4	94.9	4	-1E+10	1	-1E+10	1	-1E+10	1	-1E+10	1	-1E+10	1	-1E+10	1
4902551	60	C	04/08/2022	20:03	-131.784	49.866	0	95.00	0	7.3480	0	32.3180	0	25.261	0	94.165	0	281.4	4	94.8	4	-1E+10	1	-1E+10	1	-1E+10	1	-1E+10	1	-1E+10	1	-1E+10	1
4902551	60	C	04/08/2022	20:03	-131.784	49.866	0	96.20	0	7.3420	0	32.3220	0	25.265	0	95.354	0	280.7	4	94.5	4	-1E+10	1	-1E+10	1	-1E+10	1	-1E+10	1	-1E+10	1	-1E+10	1
4902551	60	C	04/08/2022	20:03	-131.784	49.866	0	97.10	0	7.3340	0	32.3250	0	25.269	0	96.246	0	279.7	4	94.2	4	-1E+10	1	-1E+10	1	-1E+10	1	-1E+10	1	-1E+10	1	-1E+10	1
4902551	60	C	04/08/2022	20:03	-131.784	49.866	0	97.90	0	7.3260	0	32.3280	0	25.272	0	97.039	0	278.9	4	93.9	4	-1E+10	1	-1E+10	1	-1E+10	1	-1E+10	1	-1E+10	1	-1E+10	1
4902551	60	C	04/08/2022	20:03	-131.784	49.866	0	98.90	0	7.3170	0	32.3320	0	25.276	0	98.030	0	277.9	4	93.6	4	-1E+10	1	-1E+10	1	-1E+10	1	-1E+10	1	-1E+10	1	-1E+10	1
4902551	60	C	04/08/2022	20:03	-131.784	49.866	0	100.00	0	7.2950	0	32.3400	0	25.286	0	99.120	0	277.2	4	93.3	4	-1E+10	1	-1E+10	1	-1E+10	1	-1E+10	1	-1E+10	1	-1E+10	1
4902551	60	C	04/08/2022	20:03	-131.784	49.866	0	101.10	0	7.2830	0	32.3450	0	25.291	0	100.210	0	276.2	4	92.9	4	-1E+10	1	-1E+10	1	-1E+10	1	-1E+10	1	-1E+10	1	-1E+10	1
4902551	60	C	04/08/2022	20:03	-131.784	49.866	0	102.10	0	7.2730	0	32.3470	0	25.294	0	101.201	0	275.3	4	92.6	4	-1E+10	1	-1E+10	1	-1E+10	1	-1E+10	1	-1E+10	1	-1E+10	1
4902551	60	C	04/08/2022	20:03	-131.784	49.866	0	103.20	0	7.2500	0	32.3550	0	25.304	0	102.291	0	274.3	4	92.2	4	-1E+10	1	-1E+10	1	-1E+10	1	-1E+10	1	-1E+10	1	-1E+10	1
4902551	60	C	04/08/2022	20:03	-131.784	49.866	0	103.90	0	7.2390	0	32.3590	0	25.308	0	102.985	0	273.6	4	92.0	4	-1E+10	1	-1E+10	1	-1E+10	1	-1E+10	1	-1E+10	1	-1E+10	1
4902551	60	C	04/08/2022	20:03	-131.784	49.866	0	105.10	0	7.2150	0	32.3670	0	25.318	0	104.174	0	272.5	4	91.5	4	-1E+10	1	-1E+10	1	-1E+10	1	-1E+10	1	-1E+10	1	-1E+10	1
4902551	60	C	04/08/2022	20:03	-131.784	49.866	0	106.10	0	7.2040	0	32.3710	0	25.322	0	105.165	0	271.4	4	91.1	4	-1E+10	1	-1E+10	1	-1E+10	1	-1E+10	1	-1E+10	1	-1E+10	1
4902551	60	C	04/08/2022	20:03	-131.784	49.866	0	107.10	0	7.1920	0	32.3740	0	25.326	0	106.156	0	269.7	4	90.6	4	-1E+10	1	-1E+10	1	-1E+10	1	-1E+10	1	-1E+10	1	-1E+10	1
4902551	60	C	04/08/2022	20:03	-131.784	49.866	0	107.90	0	7.1720	0	32.3810	0	25.335	0	106.948	0	268.3	4	90.0	4	-1E+10	1	-1E+10	1	-1E+10	1	-1E+10	1	-1E+10	1	-1E+10	1
4902551	60	C	04/08/2022	20:03	-131.784	49.866	0	108.90	0	7.1480	0	32.3890	0	25.344	0	107.939	0	265.9	4	89.2	4	-1E+10	1	-1E+10	1	-1E+10	1	-1E+10	1	-1E+10	1	-1E+10	1
4902551	60	C	04/08/2022	20:03	-131.784	49.866	0	110.10	0	7.1120	0	32.4010	0	25.359	0	109.128	0	262.6	4	88.0	4	-1E+10	1	-1E+10	1	-1E+10	1	-1E+10	1	-1E+10	1	-1E+10	1
4902551	60	C	04/08/2022	20:03	-131.784	49.866	0	111.10	0	7.0320	0	32.4320	0	25.394	0	110.119	0	260.0	4	87.0	4	-1E+10	1	-1E+10	1	-1E+10	1	-1E+10	1	-1E+10	1	-1E+10	1
4902551	60	C	04/08/2022	20:03	-131.784	49.866	0	111.90	0	6.9810	0	32.4560	0	25.419	0	110.912	0	257.4	4	86.1	4	-1E+10	1	-1E+10	1	-1E+10	1	-1E+10	1	-1E+10	1	-1E+10	1
4902551	60	C	04/08/2022	20:03	-131.784	49.866	0	113.10	0	6.9050	0	32.4970	0	25.462	0	112.101	0	252.5	4	84.3	4	-1E+10	1	-1E+10	1	-1E+10	1	-1E+10	1	-1E+10	1	-1E+10	1
4902551	60	C	04/08/2022	20:03	-131.784	49.866	0	114.00	0	6.8410	0	32.5350	0	25.500	0	112.993	0	249.1	4	83.1	4	-1E+10	1	-1E+10	1	-1E+10	1	-1E+10	1	-1E+10	1	-1E+10	1
4902551	60	C	04/08/2022	20:03	-131.784	49.866	0	114.90	0	6.7860	0	32.5710	0	25.536	0	113.885	0	245.8	4	81.9	4	-1E+10	1	-1E+10	1	-1E+10	1	-1E+10	1	-1E+10	1	-1E+10	1
4902551	60	C	04/08/2022	20:03	-131.784	49.866	0	116.10	0	6.7490	0	32.6090	0	25.570	0	115.074	0	240.3	4	80.0	4	-1E+10	1	-1E+10	1	-1E+10	1	-1E+10	1	-1E+10	1	-1E+10	1
4902551	60	C	04/08/2022	20:03	-131.784	49.866	0	117.00	0	6.7000	0	32.6700	0	25.625	0	115.966	0	236.8	4	78.8	4	-1E+10	1	-1E+10	1	-1E+10	1	-1E+10	1	-1E+10	1	-1E+10	1
4902551	60	C	04/08/2022	20:03	-131.784	49.866	0	117.90	0	6.6890	0	32.7050	0	25.654	0	116.857	0	232.3	4	77.3	4	-1E+10	1	-1E+10	1	-1E+10	1	-1E+10	1	-1E+10	1	-1E+10	1
4902551	60	C	04/08/2022	20:03	-131.784	49.866	0	118.90	0	6.7010	0	32.7740	0	25.707	0	117.848	0	226.1	4	75.3	4	-1E+10	1	-1E+10	1	-1E+10	1	-1E+10	1	-1E+10	1	-1E+10	1
4902551	60	C	04/08/2022	20:03	-131.784	49.866	0	120.10	0	6.6530	0	32.8570	0	25.778	0	119.037	0	220.9	4	73.5	4	-1E+10	1	-1E+10	1	-1E+10	1	-1E+10	1	-1E+10	1	-1E+10	1
4902551	60	C	04/08/2022	20:03	-131.784	49.866	0	120.90	0	6.6450	0	32.8660	0	25.787	0	119.830	0	217.5	4	72.4	4	-1E+10	1	-1E+10	1	-1E+10	1	-1E+10	1	-1E+10	1	-1E+10	1
4902551	60	C	04/08/2022	20:03	-131.784	49.866	0	121.90	0	6.6170	0	32.9000	0	25.817	0	120.821	0	213.0	4	70.8	4	-1E+10	1	-1E+10	1	-1E+10	1	-1E+10	1	-1E+10	1	-1E+10	1
4902551	60	C	04/08/2022	20:03	-131.784	49.866	0	122.80	0	6.5800	0	32.9720	0	25.879	0	121.713	0	210.1	4	69.9	4	-1E+10	1	-1E+10	1	-1E+10	1	-1E+10	1	-1E+10	1	-1E+10	1
4902551	60	C	04/08/2022	20:03	-131.784	49.866	0	123.90	0	6.5630	0	32.9960	0	25.900	0	122.802	0	206.7	4	68.7	4	-1E+10	1	-1E+10	1	-1E+10	1	-1E+10	1	-1E+10	1	-1E+10	1
4902551	60	C	04/08/2022	20:03	-131.784	49.866	0	125.10	0	6.5370	0	33.0380	0	25.936	0	123.991	0	203.2	4	67.5	4	-1E+10	1	-1E+10	1	-1E+10	1	-1E+10	1	-1E+10	1	-1E+10	1
4902551	60	C	04/08/2022	20:03	-131.784	49.866	0	126.00	0	6.5090	0	33.0980	0	25.987	0	124.883	0	200.9	4	66.8	4	-1E+10	1	-1E+10	1	-1E+10	1	-1E+10	1	-1E+10	1	-1E+10	1
4902551	60	C	04/08/2022	20:03	-131.784	49.866	0	126.80	0	6.4860	0	33.1520	0	26.033	0	125.676	0	199.9	4	66.4	4	-1E+10	1	-1E+10	1	-1E+10	1	-1E+10	1	-1E+10	1	-1E+10	1
4902551	60	C	04/08/2022	20:03	-131.784	49.866	0	127.90	0	6.4740	0	33.1720	0	26.050	0	126.766	0	198.5	4	66.0	4	-1E+10	1	-1E+10	1	-1E+10	1	-1E+10	1	-1E+10	1	-1E+10	1
4902551	60	C	04/08/2022	20:03	-131.784	49.866	0	129.10	0	6.4590	0	33.1900	0	26.066	0	127.955	0	197.2	4	65.5	4	-1E+10	1	-1E+10	1	-1E+10	1	-1E+10	1	-1E+10	1	-1E+10	1
4902551	60	C	04/08/2022	20:03	-131.784	49.866	0	129.90	0	6.4570	0	33.1920	0	26.068	0	128.747	0	196.2	4	65.2	4	-1E+10	1	-1E+10	1	-1E+10	1	-1E+10	1	-1E+10	1	-1E+10	1
4902551	60	C	04/08/2022	20:03	-131.784	49.866	0	130.70	0	6.4520	0	33.1940	0	26.070	0	129.540	0	195.1	4	64.8	4	-1E+10	1	-1E+10	1	-1E+10	1	-1E+10	1	-1E+10	1	-1E+10	1
4902551	60	C	04/08/2022	20:03	-131.784	49.866	0	131.90	0	6.4480	0	33.1960	0	26.072	0	130.729	0	193.3	4	64.2	4	-1E+10	1	-1E+10	1	-1E+10	1	-1E+10	1	-1E+10	1	-1E+10	1
4902551	60	C	04/08/2022	20:03	-131.784	49.866	0	133.20	0	6.4430	0	33.2020	0	26.078	0	132.017	0	191.4	4	63.5	4	-1E+10	1	-1E+10	1	-1E+10	1	-1E+10	1	-1E+10	1	-1E+10	1
4902551	60	C	04/08/2022	20:03	-131.784	49.866	0	134.10	0	6.4340	0	33.2160	0	26.090	0	132.909	0	190.2	4	63.1	4	-1E+10	1	-1E+10	1	-1E+10	1	-1E+10	1	-1E+10	1	-1E+10	1
4902551	60	C	04/08/2022	20:03	-131.784	49.866	0	134.90	0	6.4310	0	33.2210	0	26.094	0	133.701	0	188.8	4	62.7	4	-1E+10	1	-1E+10	1	-1E+10	1	-1E+10	1	-1E+10	1	-1E+10	1
4902551	60	C	04/08/2022	20:03	-131.784	49.866	0	135.80	0	6.4220	0	33.2340	0	26.106	0	134.593	0	187.4	4	62.2	4	-1E+10	1	-1E+10	1	-1E+10	1	-1E+10	1	-1E+10	1	-1E+10	1
4902551	60	C	04/08/2022	20:03	-131.784	49.866	0	136.70	0	6.4190	0	33.2380	0	26.109	0	135.485	0	185.6	4	61.6	4	-1E+10	1	-1E+10	1	-1E+10	1	-1E+10	1	-1E+10	1	-1E+10	1
4902551	60	C	04/08/2022	20:03	-131.784	49.866	0	137.70	0	6.3950	0	33.2590	0	26.129	0	136.476	0	183.6	4	60.9	4	-1E+10	1	-1E+10	1	-1E+10	1	-1E+10	1	-1E+10	1	-1E+10	1
4902551	60	C	04/08/2022	20:03	-131.784	49.866	0	138.80	0	6.3120	0	33.3620	0	26.221	0	137.566	0	182.6	4	60.5	4	-1E+10	1	-1E+10	1	-1E+10	1	-1E+10	1	-1E+10	1	-1E+10	1
4902551	60	C	04/08/2022	20:03	-131.784	49.866	0	139.90	0	6.3060	0	33.3690	0	26.227	0	138.655	0	181.7	4	60.2	4	-1E+10	1	-1E+10	1	-1E+10	1	-1E+10	1	-1E+10	1	-1E+10	1
4902551	60	C	04/08/2022	20:03	-131.784	49.866	0	140.90	0	6.3080	0	33.3700	0	26.228	0	139.646	0	180.6	4	59.9	4	-1E+10	1	-1E+10	1	-1E+10	1	-1E+10	1	-1E+10	1	-1E+10	1
4902551	60	C	04/08/2022	20:03	-131.784	49.866	0	142.00	0	6.3050	0	33.3730	0	26.230	0	140.736	0	179.5	4	59.5	4	-1E+10	1	-1E+10	1	-1E+10	1	-1E+10	1	-1E+10	1	-1E+10	1
4902551	60	C	04/08/2022	20:03	-131.784	49.866	0	143.00	0	6.2960	0	33.3840	0	26.240	0	141.727	0	178.2	4	59.0	4	-1E+10	1	-1E+10	1	-1E+10	1	-1E+10	1	-1E+10	1	-1E+10	1
4902551	60	C	04/08/2022	20:03	-131.784	49.866	0	144.10	0	6.2890	0	33.4150	0	26.266	0	142.817	0	177.4	4	58.8	4	-1E+10	1	-1E+10	1	-1E+10	1	-1E+10	1	-1E+10	1	-1E+10	1
4902551	60	C	04/08/2022	20:03	-131.784	49.866	0	145.10	0	6.2850	0	33.4240	0	26.273	0	143.807	0	176.7	4	58.5	4	-1E+10	1	-1E+10	1	-1E+10	1	-1E+10	1	-1E+10	1	-1E+10	1
4902551	60	C	04/08/2022	20:03	-131.784	49.866	0	146.10	0	6.2680	0	33.4460	0	26.293	0	144.798	0	176.1	4	58.3	4	-1E+10	1	-1E+10	1	-1E+10	1	-1E+10	1	-1E+10	1	-1E+10	1
4902551	60	C	04/08/2022	20:03	-131.784	49.866	0	147.20	0	6.2640	0	33.4500	0	26.296	0	145.888	0	175.4	4	58.1	4	-1E+10	1	-1E+10	1	-1E+10	1	-1E+10	1	-1E+10	1	-1E+10	1
4902551	60	C	04/08/2022	20:03	-131.784	49.866	0	148.20	0	6.2600	0	33.4540	0	26.300	0	146.879	0	174.6	4	57.8	4	-1E+10	1	-1E+10	1	-1E+10	1	-1E+10	1	-1E+10	1	-1E+10	1
4902551	60	C	04/08/2022	20:03	-131.784	49.866	0	149.20	0	6.2590	0	33.4540	0	26.300	0	147.869	0	173.6	4	57.5	4	-1E+10	1	-1E+10	1	-1E+10	1	-1E+10	1	-1E+10	1	-1E+10	1
4902551	60	C	04/08/2022	20:03	-131.784	49.866	0	150.10	0	6.2550	0	33.4570	0	26.303	0	148.761	0	172.6	4	57.2	4	-1E+10	1	-1E+10	1	-1E+10	1	-1E+10	1	-1E+10	1	-1E+10	1
4902551	60	C	04/08/2022	20:03	-131.784	49.866	0	151.10	0	6.2360	0	33.4730	0	26.318	0	149.752	0	171.8	4	56.9	4	-1E+10	1	-1E+10	1	-1E+10	1	-1E+10	1	-1E+10	1	-1E+10	1
4902551	60	C	04/08/2022	20:03	-131.784	49.866	0	152.00	0	6.2300	0	33.4770	0	26.322	0	150.643	0	170.9	4	56.6	4	-1E+10	1	-1E+10	1	-1E+10	1	-1E+10	1	-1E+10	1	-1E+10	1
4902551	60	C	04/08/2022	20:03	-131.784	49.866	0	153.00	0	6.2260	0	33.4800	0	26.325	0	151.634	0	170.0	4	56.3	4	-1E+10	1	-1E+10	1	-1E+10	1	-1E+10	1	-1E+10	1	-1E+10	1
4902551	60	C	04/08/2022	20:03	-131.784	49.866	0	153.90	0	6.2190	0	33.4890	0	26.333	0	152.526	0	168.9	4	55.9	4	-1E+10	1	-1E+10	1	-1E+10	1	-1E+10	1	-1E+10	1	-1E+10	1
4902551	60	C	04/08/2022	20:03	-131.784	49.866	0	154.80	0	6.2130	0	33.4970	0	26.340	0	153.417	0	167.9	4	55.6	4	-1E+10	1	-1E+10	1	-1E+10	1	-1E+10	1	-1E+10	1	-1E+10	1
4902551	60	C	04/08/2022	20:03	-131.784	49.866	0	155.70	0	6.2040	0	33.5130	0	26.354	0	154.309	0	167.0	4	55.3	4	-1E+10	1	-1E+10	1	-1E+10	1	-1E+10	1	-1E+10	1	-1E+10	1
4902551	60	C	04/08/2022	20:03	-131.784	49.866	0	156.70	0	6.2020	0	33.5200	0	26.360	0	155.300	0	166.1	4	55.0	4	-1E+10	1	-1E+10	1	-1E+10	1	-1E+10	1	-1E+10	1	-1E+10	1
4902551	60	C	04/08/2022	20:03	-131.784	49.866	0	157.60	0	6.1980	0	33.5250	0	26.364	0	156.191	0	165.1	4	54.6	4	-1E+10	1	-1E+10	1	-1E+10	1	-1E+10	1	-1E+10	1	-1E+10	1
4902551	60	C	04/08/2022	20:03	-131.784	49.866	0	158.50	0	6.1950	0	33.5360	0	26.373	0	157.083	0	164.3	4	54.4	4	-1E+10	1	-1E+10	1	-1E+10	1	-1E+10	1	-1E+10	1	-1E+10	1
4902551	60	C	04/08/2022	20:03	-131.784	49.866	0	159.90	0	6.1940	0	33.5540	0	26.388	0	158.470	0	163.0	4	53.9	4	-1E+10	1	-1E+10	1	-1E+10	1	-1E+10	1	-1E+10	1	-1E+10	1
4902551	60	C	04/08/2022	20:03	-131.784	49.866	0	161.30	0	6.1950	0	33.5610	0	26.393	0	159.857	0	161.7	4	53.5	4	-1E+10	1	-1E+10	1	-1E+10	1	-1E+10	1	-1E+10	1	-1E+10	1
4902551	60	C	04/08/2022	20:03	-131.784	49.866	0	162.10	0	6.1840	0	33.5780	0	26.408	0	160.649	0	160.7	4	53.2	4	-1E+10	1	-1E+10	1	-1E+10	1	-1E+10	1	-1E+10	1	-1E+10	1
4902551	60	C	04/08/2022	20:03	-131.784	49.866	0	162.90	0	6.1740	0	33.5890	0	26.418	0	161.442	0	159.9	4	52.9	4	-1E+10	1	-1E+10	1	-1E+10	1	-1E+10	1	-1E+10	1	-1E+10	1
4902551	60	C	04/08/2022	20:03	-131.784	49.866	0	163.70	0	6.1620	0	33.6010	0	26.429	0	162.234	0	159.0	4	52.6	4	-1E+10	1	-1E+10	1	-1E+10	1	-1E+10	1	-1E+10	1	-1E+10	1
4902551	60	C	04/08/2022	20:03	-131.784	49.866	0	165.00	0	6.1430	0	33.6170	0	26.444	0	163.522	0	157.7	4	52.2	4	-1E+10	1	-1E+10	1	-1E+10	1	-1E+10	1	-1E+10	1	-1E+10	1
4902551	60	C	04/08/2022	20:03	-131.784	49.866	0	166.00	0	6.1340	0	33.6270	0	26.453	0	164.513	0	156.9	4	51.9	4	-1E+10	1	-1E+10	1	-1E+10	1	-1E+10	1	-1E+10	1	-1E+10	1
4902551	60	C	04/08/2022	20:03	-131.784	49.866	0	167.00	0	6.1330	0	33.6290	0	26.455	0	165.503	0	156.2	4	51.6	4	-1E+10	1	-1E+10	1	-1E+10	1	-1E+10	1	-1E+10	1	-1E+10	1
4902551	60	C	04/08/2022	20:03	-131.784	49.866	0	168.10	0	6.1300	0	33.6330	0	26.458	0	166.593	0	155.3	4	51.3	4	-1E+10	1	-1E+10	1	-1E+10	1	-1E+10	1	-1E+10	1	-1E+10	1
4902551	60	C	04/08/2022	20:03	-131.784	49.866	0	168.80	0	6.1260	0	33.6380	0	26.463	0	167.287	0	154.8	4	51.2	4	-1E+10	1	-1E+10	1	-1E+10	1	-1E+10	1	-1E+10	1	-1E+10	1
4902551	60	C	04/08/2022	20:03	-131.784	49.866	0	169.90	0	6.1240	0	33.6420	0	26.466	0	168.376	0	153.9	4	50.9	4	-1E+10	1	-1E+10	1	-1E+10	1	-1E+10	1	-1E+10	1	-1E+10	1
4902551	60	C	04/08/2022	20:03	-131.784	49.866	0	171.00	0	6.1190	0	33.6500	0	26.473	0	169.466	0	152.9	4	50.6	4	-1E+10	1	-1E+10	1	-1E+10	1	-1E+10	1	-1E+10	1	-1E+10	1
4902551	60	C	04/08/2022	20:03	-131.784	49.866	0	171.70	0	6.1100	0	33.6560	0	26.479	0	170.159	0	152.3	4	50.4	4	-1E+10	1	-1E+10	1	-1E+10	1	-1E+10	1	-1E+10	1	-1E+10	1
4902551	60	C	04/08/2022	20:03	-131.784	49.866	0	172.90	0	6.0920	0	33.6670	0	26.490	0	171.348	0	151.7	4	50.1	4	-1E+10	1	-1E+10	1	-1E+10	1	-1E+10	1	-1E+10	1	-1E+10	1
4902551	60	C	04/08/2022	20:03	-131.784	49.866	0	174.00	0	6.0840	0	33.6740	0	26.496	0	172.438	0	151.0	4	49.9	4	-1E+10	1	-1E+10	1	-1E+10	1	-1E+10	1	-1E+10	1	-1E+10	1
4902551	60	C	04/08/2022	20:03	-131.784	49.866	0	174.80	0	6.0800	0	33.6760	0	26.498	0	173.230	0	150.6	4	49.8	4	-1E+10	1	-1E+10	1	-1E+10	1	-1E+10	1	-1E+10	1	-1E+10	1
4902551	60	C	04/08/2022	20:03	-131.784	49.866	0	176.00	0	6.0750	0	33.6800	0	26.502	0	174.419	0	149.8	4	49.5	4	-1E+10	1	-1E+10	1	-1E+10	1	-1E+10	1	-1E+10	1	-1E+10	1
4902551	60	C	04/08/2022	20:03	-131.784	49.866	0	177.30	0	6.0730	0	33.6810	0	26.503	0	175.707	0	148.8	4	49.2	4	-1E+10	1	-1E+10	1	-1E+10	1	-1E+10	1	-1E+10	1	-1E+10	1
4902551	60	C	04/08/2022	20:03	-131.784	49.866	0	178.10	0	6.0690	0	33.6880	0	26.509	0	176.499	0	148.2	4	49.0	4	-1E+10	1	-1E+10	1	-1E+10	1	-1E+10	1	-1E+10	1	-1E+10	1
4902551	60	C	04/08/2022	20:03	-131.784	49.866	0	178.90	0	6.0690	0	33.6890	0	26.510	0	177.292	0	147.5	4	48.7	4	-1E+10	1	-1E+10	1	-1E+10	1	-1E+10	1	-1E+10	1	-1E+10	1
4902551	60	C	04/08/2022	20:03	-131.784	49.866	0	179.80	0	6.0680	0	33.6900	0	26.511	0	178.183	0	146.8	4	48.5	4	-1E+10	1	-1E+10	1	-1E+10	1	-1E+10	1	-1E+10	1	-1E+10	1
4902551	60	C	04/08/2022	20:03	-131.784	49.866	0	181.00	0	6.0640	0	33.6910	0	26.512	0	179.372	0	145.4	4	48.0	4	-1E+10	1	-1E+10	1	-1E+10	1	-1E+10	1	-1E+10	1	-1E+10	1
4902551	60	C	04/08/2022	20:03	-131.784	49.866	0	182.30	0	6.0530	0	33.6940	0	26.516	0	180.660	0	144.0	4	47.5	4	-1E+10	1	-1E+10	1	-1E+10	1	-1E+10	1	-1E+10	1	-1E+10	1
4902551	60	C	04/08/2022	20:03	-131.784	49.866	0	183.20	0	6.0340	0	33.6960	0	26.520	0	181.551	0	143.0	4	47.2	4	-1E+10	1	-1E+10	1	-1E+10	1	-1E+10	1	-1E+10	1	-1E+10	1
4902551	60	C	04/08/2022	20:03	-131.784	49.866	0	184.00	0	6.0300	0	33.6950	0	26.520	0	182.344	0	142.0	4	46.9	4	-1E+10	1	-1E+10	1	-1E+10	1	-1E+10	1	-1E+10	1	-1E+10	1
4902551	60	C	04/08/2022	20:03	-131.784	49.866	0	184.80	0	6.0100	0	33.6990	0	26.525	0	183.136	0	141.0	4	46.5	4	-1E+10	1	-1E+10	1	-1E+10	1	-1E+10	1	-1E+10	1	-1E+10	1
4902551	60	C	04/08/2022	20:03	-131.784	49.866	0	185.70	0	5.9790	0	33.7100	0	26.538	0	184.028	0	139.8	4	46.1	4	-1E+10	1	-1E+10	1	-1E+10	1	-1E+10	1	-1E+10	1	-1E+10	1
4902551	60	C	04/08/2022	20:03	-131.784	49.866	0	187.00	0	5.9570	0	33.7130	0	26.543	0	185.315	0	138.4	4	45.6	4	-1E+10	1	-1E+10	1	-1E+10	1	-1E+10	1	-1E+10	1	-1E+10	1
4902551	60	C	04/08/2022	20:03	-131.784	49.866	0	188.30	0	5.9160	0	33.7230	0	26.556	0	186.603	0	137.4	4	45.2	4	-1E+10	1	-1E+10	1	-1E+10	1	-1E+10	1	-1E+10	1	-1E+10	1
4902551	60	C	04/08/2022	20:03	-131.784	49.866	0	189.20	0	5.9090	0	33.7240	0	26.558	0	187.494	0	136.8	4	45.0	4	-1E+10	1	-1E+10	1	-1E+10	1	-1E+10	1	-1E+10	1	-1E+10	1
4902551	60	C	04/08/2022	20:03	-131.784	49.866	0	190.00	0	5.9020	0	33.7260	0	26.560	0	188.287	0	136.1	4	44.8	4	-1E+10	1	-1E+10	1	-1E+10	1	-1E+10	1	-1E+10	1	-1E+10	1
4902551	60	C	04/08/2022	20:03	-131.784	49.866	0	190.90	0	5.8900	0	33.7300	0	26.565	0	189.178	0	135.2	4	44.5	4	-1E+10	1	-1E+10	1	-1E+10	1	-1E+10	1	-1E+10	1	-1E+10	1
4902551	60	C	04/08/2022	20:03	-131.784	49.866	0	191.80	0	5.8650	0	33.7390	0	26.575	0	190.070	0	134.5	4	44.2	4	-1E+10	1	-1E+10	1	-1E+10	1	-1E+10	1	-1E+10	1	-1E+10	1
4902551	60	C	04/08/2022	20:03	-131.784	49.866	0	192.80	0	5.8440	0	33.7440	0	26.582	0	191.060	0	133.9	4	44.0	4	-1E+10	1	-1E+10	1	-1E+10	1	-1E+10	1	-1E+10	1	-1E+10	1
4902551	60	C	04/08/2022	20:03	-131.784	49.866	0	193.70	0	5.8170	0	33.7520	0	26.591	0	191.952	0	133.5	4	43.9	4	-1E+10	1	-1E+10	1	-1E+10	1	-1E+10	1	-1E+10	1	-1E+10	1
4902551	60	C	04/08/2022	20:03	-131.784	49.866	0	194.60	0	5.8030	0	33.7560	0	26.596	0	192.843	0	133.1	4	43.7	4	-1E+10	1	-1E+10	1	-1E+10	1	-1E+10	1	-1E+10	1	-1E+10	1
4902551	60	C	04/08/2022	20:03	-131.784	49.866	0	195.90	0	5.7890	0	33.7600	0	26.601	0	194.131	0	132.5	4	43.5	4	-1E+10	1	-1E+10	1	-1E+10	1	-1E+10	1	-1E+10	1	-1E+10	1
4902551	60	C	04/08/2022	20:03	-131.784	49.866	0	197.30	0	5.7840	0	33.7600	0	26.602	0	195.518	0	131.8	4	43.3	4	-1E+10	1	-1E+10	1	-1E+10	1	-1E+10	1	-1E+10	1	-1E+10	1
4902551	60	C	04/08/2022	20:03	-131.784	49.866	0	198.20	0	5.7830	0	33.7590	0	26.601	0	196.409	0	131.3	4	43.1	4	-1E+10	1	-1E+10	1	-1E+10	1	-1E+10	1	-1E+10	1	-1E+10	1
4902551	60	C	04/08/2022	20:03	-131.784	49.866	0	199.10	0	5.7620	0	33.7640	0	26.608	0	197.300	0	130.8	4	42.9	4	-1E+10	1	-1E+10	1	-1E+10	1	-1E+10	1	-1E+10	1	-1E+10	1
4902551	60	C	04/08/2022	20:03	-131.784	49.866	0	200.00	0	5.7500	0	33.7680	0	26.612	0	198.192	0	130.2	4	42.7	4	-1E+10	1	-1E+10	1	-1E+10	1	-1E+10	1	-1E+10	1	-1E+10	1
4902551	60	C	04/08/2022	20:03	-131.784	49.866	0	200.90	0	5.7430	0	33.7690	0	26.614	0	199.083	0	129.8	4	42.6	4	-1E+10	1	-1E+10	1	-1E+10	1	-1E+10	1	-1E+10	1	-1E+10	1
4902551	60	C	04/08/2022	20:03	-131.784	49.866	0	201.80	0	5.7300	0	33.7720	0	26.618	0	199.975	0	129.3	4	42.4	4	-1E+10	1	-1E+10	1	-1E+10	1	-1E+10	1	-1E+10	1	-1E+10	1
4902551	60	C	04/08/2022	20:03	-131.784	49.866	0	202.60	0	5.7270	0	33.7720	0	26.618	0	200.767	0	129.0	4	42.3	4	-1E+10	1	-1E+10	1	-1E+10	1	-1E+10	1	-1E+10	1	-1E+10	1
4902551	60	C	04/08/2022	20:03	-131.784	49.866	0	203.90	0	5.7160	0	33.7740	0	26.621	0	202.055	0	128.3	4	42.1	4	-1E+10	1	-1E+10	1	-1E+10	1	-1E+10	1	-1E+10	1	-1E+10	1
4902551	60	C	04/08/2022	20:03	-131.784	49.866	0	205.30	0	5.7050	0	33.7760	0	26.624	0	203.441	0	127.7	4	41.9	4	-1E+10	1	-1E+10	1	-1E+10	1	-1E+10	1	-1E+10	1	-1E+10	1
4902551	60	C	04/08/2022	20:03	-131.784	49.866	0	206.20	0	5.7020	0	33.7770	0	26.625	0	204.333	0	127.2	4	41.7	4	-1E+10	1	-1E+10	1	-1E+10	1	-1E+10	1	-1E+10	1	-1E+10	1
4902551	60	C	04/08/2022	20:03	-131.784	49.866	0	207.10	0	5.7020	0	33.7780	0	26.626	0	205.224	0	126.6	4	41.5	4	-1E+10	1	-1E+10	1	-1E+10	1	-1E+10	1	-1E+10	1	-1E+10	1
4902551	60	C	04/08/2022	20:03	-131.784	49.866	0	207.90	0	5.7020	0	33.7780	0	26.626	0	206.016	0	126.0	4	41.3	4	-1E+10	1	-1E+10	1	-1E+10	1	-1E+10	1	-1E+10	1	-1E+10	1
4902551	60	C	04/08/2022	20:03	-131.784	49.866	0	208.80	0	5.7030	0	33.7770	0	26.625	0	206.908	0	125.3	4	41.1	4	-1E+10	1	-1E+10	1	-1E+10	1	-1E+10	1	-1E+10	1	-1E+10	1
4902551	60	C	04/08/2022	20:03	-131.784	49.866	0	209.70	0	5.7020	0	33.7780	0	26.626	0	207.799	0	124.6	4	40.8	4	-1E+10	1	-1E+10	1	-1E+10	1	-1E+10	1	-1E+10	1	-1E+10	1
4902551	60	C	04/08/2022	20:03	-131.784	49.866	0	211.00	0	5.6710	0	33.7790	0	26.631	0	209.087	0	123.6	4	40.5	4	-1E+10	1	-1E+10	1	-1E+10	1	-1E+10	1	-1E+10	1	-1E+10	1
4902551	60	C	04/08/2022	20:03	-131.784	49.866	0	212.30	0	5.6320	0	33.7830	0	26.639	0	210.374	0	122.9	4	40.2	4	-1E+10	1	-1E+10	1	-1E+10	1	-1E+10	1	-1E+10	1	-1E+10	1
4902551	60	C	04/08/2022	20:03	-131.784	49.866	0	213.20	0	5.6250	0	33.7840	0	26.640	0	211.266	0	122.4	4	40.0	4	-1E+10	1	-1E+10	1	-1E+10	1	-1E+10	1	-1E+10	1	-1E+10	1
4902551	60	C	04/08/2022	20:03	-131.784	49.866	0	214.10	0	5.6230	0	33.7850	0	26.641	0	212.157	0	121.7	4	39.8	4	-1E+10	1	-1E+10	1	-1E+10	1	-1E+10	1	-1E+10	1	-1E+10	1
4902551	60	C	04/08/2022	20:03	-131.784	49.866	0	215.00	0	5.6200	0	33.7860	0	26.642	0	213.049	0	121.1	4	39.6	4	-1E+10	1	-1E+10	1	-1E+10	1	-1E+10	1	-1E+10	1	-1E+10	1
4902551	60	C	04/08/2022	20:03	-131.784	49.866	0	215.80	0	5.6110	0	33.7870	0	26.644	0	213.841	0	120.4	4	39.4	4	-1E+10	1	-1E+10	1	-1E+10	1	-1E+10	1	-1E+10	1	-1E+10	1
4902551	60	C	04/08/2022	20:03	-131.784	49.866	0	216.70	0	5.6000	0	33.7830	0	26.642	0	214.732	0	119.7	4	39.1	4	-1E+10	1	-1E+10	1	-1E+10	1	-1E+10	1	-1E+10	1	-1E+10	1
4902551	60	C	04/08/2022	20:03	-131.784	49.866	0	218.00	0	5.5610	0	33.7890	0	26.652	0	216.020	0	118.8	4	38.8	4	-1E+10	1	-1E+10	1	-1E+10	1	-1E+10	1	-1E+10	1	-1E+10	1
4902551	60	C	04/08/2022	20:03	-131.784	49.866	0	219.30	0	5.5220	0	33.7940	0	26.660	0	217.307	0	118.1	4	38.5	4	-1E+10	1	-1E+10	1	-1E+10	1	-1E+10	1	-1E+10	1	-1E+10	1
4902551	60	C	04/08/2022	20:03	-131.784	49.866	0	220.20	0	5.5110	0	33.7940	0	26.662	0	218.199	0	117.6	4	38.4	4	-1E+10	1	-1E+10	1	-1E+10	1	-1E+10	1	-1E+10	1	-1E+10	1
4902551	60	C	04/08/2022	20:03	-131.784	49.866	0	221.10	0	5.5080	0	33.7940	0	26.662	0	219.090	0	117.2	4	38.2	4	-1E+10	1	-1E+10	1	-1E+10	1	-1E+10	1	-1E+10	1	-1E+10	1
4902551	60	C	04/08/2022	20:03	-131.784	49.866	0	221.90	0	5.5060	0	33.7940	0	26.662	0	219.882	0	116.6	4	38.0	4	-1E+10	1	-1E+10	1	-1E+10	1	-1E+10	1	-1E+10	1	-1E+10	1
4902551	60	C	04/08/2022	20:03	-131.784	49.866	0	222.80	0	5.5010	0	33.7950	0	26.664	0	220.774	0	116.0	4	37.9	4	-1E+10	1	-1E+10	1	-1E+10	1	-1E+10	1	-1E+10	1	-1E+10	1
4902551	60	C	04/08/2022	20:03	-131.784	49.866	0	223.70	0	5.4970	0	33.7950	0	26.664	0	221.665	0	115.4	4	37.7	4	-1E+10	1	-1E+10	1	-1E+10	1	-1E+10	1	-1E+10	1	-1E+10	1
4902551	60	C	04/08/2022	20:03	-131.784	49.866	0	224.90	0	5.4620	0	33.7980	0	26.671	0	222.853	0	114.7	4	37.4	4	-1E+10	1	-1E+10	1	-1E+10	1	-1E+10	1	-1E+10	1	-1E+10	1
4902551	60	C	04/08/2022	20:03	-131.784	49.866	0	226.30	0	5.4200	0	33.8050	0	26.681	0	224.240	0	114.1	4	37.2	4	-1E+10	1	-1E+10	1	-1E+10	1	-1E+10	1	-1E+10	1	-1E+10	1
4902551	60	C	04/08/2022	20:03	-131.784	49.866	0	227.20	0	5.4140	0	33.8040	0	26.681	0	225.131	0	113.8	4	37.1	4	-1E+10	1	-1E+10	1	-1E+10	1	-1E+10	1	-1E+10	1	-1E+10	1
4902551	60	C	04/08/2022	20:03	-131.784	49.866	0	228.00	0	5.4140	0	33.8040	0	26.681	0	225.923	0	113.5	4	37.0	4	-1E+10	1	-1E+10	1	-1E+10	1	-1E+10	1	-1E+10	1	-1E+10	1
4902551	60	C	04/08/2022	20:03	-131.784	49.866	0	228.90	0	5.4120	0	33.8050	0	26.682	0	226.815	0	113.1	4	36.8	4	-1E+10	1	-1E+10	1	-1E+10	1	-1E+10	1	-1E+10	1	-1E+10	1
4902551	60	C	04/08/2022	20:03	-131.784	49.866	0	229.80	0	5.4110	0	33.8050	0	26.682	0	227.706	0	112.6	4	36.7	4	-1E+10	1	-1E+10	1	-1E+10	1	-1E+10	1	-1E+10	1	-1E+10	1
4902551	60	C	04/08/2022	20:03	-131.784	49.866	0	230.70	0	5.4100	0	33.8040	0	26.682	0	228.597	0	112.1	4	36.5	4	-1E+10	1	-1E+10	1	-1E+10	1	-1E+10	1	-1E+10	1	-1E+10	1
4902551	60	C	04/08/2022	20:03	-131.784	49.866	0	231.60	0	5.3940	0	33.8110	0	26.689	0	229.489	0	111.6	4	36.3	4	-1E+10	1	-1E+10	1	-1E+10	1	-1E+10	1	-1E+10	1	-1E+10	1
4902551	60	C	04/08/2022	20:03	-131.784	49.866	0	232.90	0	5.3840	0	33.8120	0	26.691	0	230.776	0	110.9	4	36.1	4	-1E+10	1	-1E+10	1	-1E+10	1	-1E+10	1	-1E+10	1	-1E+10	1
4902551	60	C	04/08/2022	20:03	-131.784	49.866	0	234.30	0	5.3730	0	33.8140	0	26.694	0	232.163	0	110.1	4	35.8	4	-1E+10	1	-1E+10	1	-1E+10	1	-1E+10	1	-1E+10	1	-1E+10	1
4902551	60	C	04/08/2022	20:03	-131.784	49.866	0	235.20	0	5.3410	0	33.8150	0	26.699	0	233.054	0	109.8	4	35.7	4	-1E+10	1	-1E+10	1	-1E+10	1	-1E+10	1	-1E+10	1	-1E+10	1
4902551	60	C	04/08/2022	20:03	-131.784	49.866	0	236.10	0	5.3280	0	33.8150	0	26.700	0	233.945	0	109.5	4	35.6	4	-1E+10	1	-1E+10	1	-1E+10	1	-1E+10	1	-1E+10	1	-1E+10	1
4902551	60	C	04/08/2022	20:03	-131.784	49.866	0	237.10	0	5.3310	0	33.8170	0	26.701	0	234.935	0	109.1	4	35.4	4	-1E+10	1	-1E+10	1	-1E+10	1	-1E+10	1	-1E+10	1	-1E+10	1
4902551	60	C	04/08/2022	20:03	-131.784	49.866	0	238.00	0	5.3190	0	33.8170	0	26.703	0	235.827	0	108.7	4	35.3	4	-1E+10	1	-1E+10	1	-1E+10	1	-1E+10	1	-1E+10	1	-1E+10	1
4902551	60	C	04/08/2022	20:03	-131.784	49.866	0	238.90	0	5.3130	0	33.8170	0	26.704	0	236.718	0	108.3	4	35.2	4	-1E+10	1	-1E+10	1	-1E+10	1	-1E+10	1	-1E+10	1	-1E+10	1
4902551	60	C	04/08/2022	20:03	-131.784	49.866	0	239.80	0	5.3130	0	33.8160	0	26.703	0	237.609	0	107.9	4	35.0	4	-1E+10	1	-1E+10	1	-1E+10	1	-1E+10	1	-1E+10	1	-1E+10	1
4902551	60	C	04/08/2022	20:03	-131.784	49.866	0	240.70	0	5.3140	0	33.8160	0	26.703	0	238.500	0	107.4	4	34.9	4	-1E+10	1	-1E+10	1	-1E+10	1	-1E+10	1	-1E+10	1	-1E+10	1
4902551	60	C	04/08/2022	20:03	-131.784	49.866	0	241.70	0	5.3090	0	33.8180	0	26.705	0	239.491	0	106.9	4	34.7	4	-1E+10	1	-1E+10	1	-1E+10	1	-1E+10	1	-1E+10	1	-1E+10	1
4902551	60	C	04/08/2022	20:03	-131.784	49.866	0	242.60	0	5.3050	0	33.8170	0	26.705	0	240.382	0	106.3	4	34.5	4	-1E+10	1	-1E+10	1	-1E+10	1	-1E+10	1	-1E+10	1	-1E+10	1
4902551	60	C	04/08/2022	20:03	-131.784	49.866	0	243.90	0	5.2990	0	33.8160	0	26.704	0	241.669	0	105.4	4	34.2	4	-1E+10	1	-1E+10	1	-1E+10	1	-1E+10	1	-1E+10	1	-1E+10	1
4902551	60	C	04/08/2022	20:03	-131.784	49.866	0	245.30	0	5.2830	0	33.8170	0	26.707	0	243.056	0	104.5	4	33.9	4	-1E+10	1	-1E+10	1	-1E+10	1	-1E+10	1	-1E+10	1	-1E+10	1
4902551	60	C	04/08/2022	20:03	-131.784	49.866	0	246.20	0	5.2690	0	33.8200	0	26.711	0	243.947	0	103.9	4	33.7	4	-1E+10	1	-1E+10	1	-1E+10	1	-1E+10	1	-1E+10	1	-1E+10	1
4902551	60	C	04/08/2022	20:03	-131.784	49.866	0	247.20	0	5.2520	0	33.8230	0	26.716	0	244.937	0	103.5	4	33.6	4	-1E+10	1	-1E+10	1	-1E+10	1	-1E+10	1	-1E+10	1	-1E+10	1
4902551	60	C	04/08/2022	20:03	-131.784	49.866	0	248.10	0	5.2230	0	33.8260	0	26.721	0	245.828	0	103.2	4	33.5	4	-1E+10	1	-1E+10	1	-1E+10	1	-1E+10	1	-1E+10	1	-1E+10	1
4902551	60	C	04/08/2022	20:03	-131.784	49.866	0	249.00	0	5.2070	0	33.8280	0	26.725	0	246.720	0	103.0	4	33.4	4	-1E+10	1	-1E+10	1	-1E+10	1	-1E+10	1	-1E+10	1	-1E+10	1
4902551	60	C	04/08/2022	20:03	-131.784	49.866	0	249.90	0	5.1960	0	33.8280	0	26.726	0	247.611	0	102.6	4	33.3	4	-1E+10	1	-1E+10	1	-1E+10	1	-1E+10	1	-1E+10	1	-1E+10	1
4902551	60	C	04/08/2022	20:03	-131.784	49.866	0	250.80	0	5.1930	0	33.8310	0	26.729	0	248.502	0	102.3	4	33.2	4	-1E+10	1	-1E+10	1	-1E+10	1	-1E+10	1	-1E+10	1	-1E+10	1
4902551	60	C	04/08/2022	20:03	-131.784	49.866	0	251.80	0	5.1930	0	33.8320	0	26.730	0	249.492	0	102.0	4	33.1	4	-1E+10	1	-1E+10	1	-1E+10	1	-1E+10	1	-1E+10	1	-1E+10	1
4902551	60	C	04/08/2022	20:03	-131.784	49.866	0	252.70	0	5.1890	0	33.8340	0	26.732	0	250.384	0	101.7	4	32.9	4	-1E+10	1	-1E+10	1	-1E+10	1	-1E+10	1	-1E+10	1	-1E+10	1
4902551	60	C	04/08/2022	20:03	-131.784	49.866	0	253.60	0	5.1770	0	33.8390	0	26.737	0	251.275	0	101.4	4	32.8	4	-1E+10	1	-1E+10	1	-1E+10	1	-1E+10	1	-1E+10	1	-1E+10	1
4902551	60	C	04/08/2022	20:03	-131.784	49.866	0	254.60	0	5.1620	0	33.8360	0	26.736	0	252.265	0	101.2	4	32.8	4	-1E+10	1	-1E+10	1	-1E+10	1	-1E+10	1	-1E+10	1	-1E+10	1
4902551	60	C	04/08/2022	20:03	-131.784	49.866	0	255.60	0	5.1590	0	33.8360	0	26.737	0	253.255	0	101.0	4	32.7	4	-1E+10	1	-1E+10	1	-1E+10	1	-1E+10	1	-1E+10	1	-1E+10	1
4902551	60	C	04/08/2022	20:03	-131.784	49.866	0	256.90	0	5.1540	0	33.8370	0	26.738	0	254.542	0	100.6	4	32.6	4	-1E+10	1	-1E+10	1	-1E+10	1	-1E+10	1	-1E+10	1	-1E+10	1
4902551	60	C	04/08/2022	20:03	-131.784	49.866	0	258.80	0	5.1540	0	33.8360	0	26.737	0	256.424	0	100.0	4	32.4	4	-1E+10	1	-1E+10	1	-1E+10	1	-1E+10	1	-1E+10	1	-1E+10	1
4902551	60	C	04/08/2022	20:03	-131.784	49.866	0	260.00	0	5.1540	0	33.8360	0	26.737	0	257.612	0	99.6	4	32.2	4	-1E+10	1	-1E+10	1	-1E+10	1	-1E+10	1	-1E+10	1	-1E+10	1
4902551	60	C	04/08/2022	20:03	-131.784	49.866	0	260.70	0	5.1540	0	33.8370	0	26.738	0	258.305	0	99.2	4	32.1	4	-1E+10	1	-1E+10	1	-1E+10	1	-1E+10	1	-1E+10	1	-1E+10	1
4902551	60	C	04/08/2022	20:03	-131.784	49.866	0	261.80	0	5.1540	0	33.8360	0	26.737	0	259.394	0	98.6	4	31.9	4	-1E+10	1	-1E+10	1	-1E+10	1	-1E+10	1	-1E+10	1	-1E+10	1
4902551	60	C	04/08/2022	20:03	-131.784	49.866	0	263.00	0	5.1500	0	33.8350	0	26.737	0	260.583	0	97.9	4	31.7	4	-1E+10	1	-1E+10	1	-1E+10	1	-1E+10	1	-1E+10	1	-1E+10	1
4902551	60	C	04/08/2022	20:03	-131.784	49.866	0	263.80	0	5.1470	0	33.8350	0	26.737	0	261.375	0	97.4	4	31.5	4	-1E+10	1	-1E+10	1	-1E+10	1	-1E+10	1	-1E+10	1	-1E+10	1
4902551	60	C	04/08/2022	20:03	-131.784	49.866	0	264.90	0	5.1450	0	33.8360	0	26.738	0	262.464	0	96.6	4	31.3	4	-1E+10	1	-1E+10	1	-1E+10	1	-1E+10	1	-1E+10	1	-1E+10	1
4902551	60	C	04/08/2022	20:03	-131.784	49.866	0	266.10	0	5.1410	0	33.8350	0	26.738	0	263.652	0	95.6	4	30.9	4	-1E+10	1	-1E+10	1	-1E+10	1	-1E+10	1	-1E+10	1	-1E+10	1
4902551	60	C	04/08/2022	20:03	-131.784	49.866	0	266.80	0	5.1390	0	33.8340	0	26.737	0	264.345	0	94.9	4	30.7	4	-1E+10	1	-1E+10	1	-1E+10	1	-1E+10	1	-1E+10	1	-1E+10	1
4902551	60	C	04/08/2022	20:03	-131.784	49.866	0	268.00	0	5.1300	0	33.8340	0	26.739	0	265.533	0	93.7	4	30.3	4	-1E+10	1	-1E+10	1	-1E+10	1	-1E+10	1	-1E+10	1	-1E+10	1
4902551	60	C	04/08/2022	20:03	-131.784	49.866	0	269.20	0	5.1220	0	33.8330	0	26.739	0	266.722	0	92.3	4	29.9	4	-1E+10	1	-1E+10	1	-1E+10	1	-1E+10	1	-1E+10	1	-1E+10	1
4902551	60	C	04/08/2022	20:03	-131.784	49.866	0	270.00	0	5.1160	0	33.8320	0	26.739	0	267.514	0	91.5	4	29.6	4	-1E+10	1	-1E+10	1	-1E+10	1	-1E+10	1	-1E+10	1	-1E+10	1
4902551	60	C	04/08/2022	20:03	-131.784	49.866	0	270.90	0	5.0920	0	33.8380	0	26.746	0	268.405	0	90.6	4	29.3	4	-1E+10	1	-1E+10	1	-1E+10	1	-1E+10	1	-1E+10	1	-1E+10	1
4902551	60	C	04/08/2022	20:03	-131.784	49.866	0	271.70	0	5.0490	0	33.8460	0	26.757	0	269.197	0	90.0	4	29.1	4	-1E+10	1	-1E+10	1	-1E+10	1	-1E+10	1	-1E+10	1	-1E+10	1
4902551	60	C	04/08/2022	20:03	-131.784	49.866	0	272.90	0	5.0060	0	33.8430	0	26.760	0	270.385	0	89.3	4	28.8	4	-1E+10	1	-1E+10	1	-1E+10	1	-1E+10	1	-1E+10	1	-1E+10	1
4902551	60	C	04/08/2022	20:03	-131.784	49.866	0	274.20	0	4.9830	0	33.8450	0	26.764	0	271.672	0	88.7	4	28.6	4	-1E+10	1	-1E+10	1	-1E+10	1	-1E+10	1	-1E+10	1	-1E+10	1
4902551	60	C	04/08/2022	20:03	-131.784	49.866	0	275.00	0	4.9730	0	33.8450	0	26.765	0	272.464	0	88.3	4	28.5	4	-1E+10	1	-1E+10	1	-1E+10	1	-1E+10	1	-1E+10	1	-1E+10	1
4902551	60	C	04/08/2022	20:03	-131.784	49.866	0	275.90	0	4.9680	0	33.8460	0	26.767	0	273.356	0	87.9	4	28.3	4	-1E+10	1	-1E+10	1	-1E+10	1	-1E+10	1	-1E+10	1	-1E+10	1
4902551	60	C	04/08/2022	20:03	-131.784	49.866	0	276.70	0	4.9660	0	33.8460	0	26.767	0	274.148	0	87.5	4	28.2	4	-1E+10	1	-1E+10	1	-1E+10	1	-1E+10	1	-1E+10	1	-1E+10	1
4902551	60	C	04/08/2022	20:03	-131.784	49.866	0	277.90	0	4.9580	0	33.8470	0	26.768	0	275.336	0	86.8	4	28.0	4	-1E+10	1	-1E+10	1	-1E+10	1	-1E+10	1	-1E+10	1	-1E+10	1
4902551	60	C	04/08/2022	20:03	-131.784	49.866	0	279.30	0	4.9540	0	33.8470	0	26.769	0	276.722	0	86.1	4	27.7	4	-1E+10	1	-1E+10	1	-1E+10	1	-1E+10	1	-1E+10	1	-1E+10	1
4902551	60	C	04/08/2022	20:03	-131.784	49.866	0	280.20	0	4.9520	0	33.8470	0	26.769	0	277.613	0	85.6	4	27.6	4	-1E+10	1	-1E+10	1	-1E+10	1	-1E+10	1	-1E+10	1	-1E+10	1
4902551	60	C	04/08/2022	20:03	-131.784	49.866	0	281.00	0	4.9420	0	33.8490	0	26.772	0	278.405	0	85.0	4	27.4	4	-1E+10	1	-1E+10	1	-1E+10	1	-1E+10	1	-1E+10	1	-1E+10	1
4902551	60	C	04/08/2022	20:03	-131.784	49.866	0	281.90	0	4.9390	0	33.8490	0	26.772	0	279.296	0	84.5	4	27.2	4	-1E+10	1	-1E+10	1	-1E+10	1	-1E+10	1	-1E+10	1	-1E+10	1
4902551	60	C	04/08/2022	20:03	-131.784	49.866	0	282.80	0	4.9350	0	33.8500	0	26.773	0	280.187	0	83.9	4	27.0	4	-1E+10	1	-1E+10	1	-1E+10	1	-1E+10	1	-1E+10	1	-1E+10	1
4902551	60	C	04/08/2022	20:03	-131.784	49.866	0	283.60	0	4.9300	0	33.8500	0	26.774	0	280.979	0	83.2	4	26.8	4	-1E+10	1	-1E+10	1	-1E+10	1	-1E+10	1	-1E+10	1	-1E+10	1
4902551	60	C	04/08/2022	20:03	-131.784	49.866	0	284.90	0	4.9100	0	33.8530	0	26.779	0	282.266	0	82.4	4	26.5	4	-1E+10	1	-1E+10	1	-1E+10	1	-1E+10	1	-1E+10	1	-1E+10	1
4902551	60	C	04/08/2022	20:03	-131.784	49.866	0	286.30	0	4.8720	0	33.8580	0	26.787	0	283.652	0	81.7	4	26.3	4	-1E+10	1	-1E+10	1	-1E+10	1	-1E+10	1	-1E+10	1	-1E+10	1
4902551	60	C	04/08/2022	20:03	-131.784	49.866	0	287.20	0	4.8690	0	33.8570	0	26.786	0	284.544	0	81.3	4	26.1	4	-1E+10	1	-1E+10	1	-1E+10	1	-1E+10	1	-1E+10	1	-1E+10	1
4902551	60	C	04/08/2022	20:03	-131.784	49.866	0	288.00	0	4.8400	0	33.8630	0	26.794	0	285.336	0	80.9	4	26.0	4	-1E+10	1	-1E+10	1	-1E+10	1	-1E+10	1	-1E+10	1	-1E+10	1
4902551	60	C	04/08/2022	20:03	-131.784	49.866	0	288.90	0	4.8290	0	33.8640	0	26.796	0	286.227	0	80.6	4	25.9	4	-1E+10	1	-1E+10	1	-1E+10	1	-1E+10	1	-1E+10	1	-1E+10	1
4902551	60	C	04/08/2022	20:03	-131.784	49.866	0	289.80	0	4.8240	0	33.8650	0	26.798	0	287.118	0	80.3	4	25.8	4	-1E+10	1	-1E+10	1	-1E+10	1	-1E+10	1	-1E+10	1	-1E+10	1
4902551	60	C	04/08/2022	20:03	-131.784	49.866	0	290.70	0	4.8190	0	33.8650	0	26.798	0	288.009	0	80.1	4	25.7	4	-1E+10	1	-1E+10	1	-1E+10	1	-1E+10	1	-1E+10	1	-1E+10	1
4902551	60	C	04/08/2022	20:03	-131.784	49.866	0	291.60	0	4.8050	0	33.8680	0	26.802	0	288.900	0	79.8	4	25.6	4	-1E+10	1	-1E+10	1	-1E+10	1	-1E+10	1	-1E+10	1	-1E+10	1
4902551	60	C	04/08/2022	20:03	-131.784	49.866	0	292.90	0	4.7980	0	33.8680	0	26.803	0	290.187	0	79.4	4	25.5	4	-1E+10	1	-1E+10	1	-1E+10	1	-1E+10	1	-1E+10	1	-1E+10	1
4902551	60	C	04/08/2022	20:03	-131.784	49.866	0	294.20	0	4.7940	0	33.8700	0	26.805	0	291.474	0	79.0	4	25.4	4	-1E+10	1	-1E+10	1	-1E+10	1	-1E+10	1	-1E+10	1	-1E+10	1
4902551	60	C	04/08/2022	20:03	-131.784	49.866	0	295.10	0	4.7930	0	33.8690	0	26.804	0	292.365	0	78.7	4	25.3	4	-1E+10	1	-1E+10	1	-1E+10	1	-1E+10	1	-1E+10	1	-1E+10	1
4902551	60	C	04/08/2022	20:03	-131.784	49.866	0	296.00	0	4.7930	0	33.8690	0	26.805	0	293.256	0	78.4	4	25.2	4	-1E+10	1	-1E+10	1	-1E+10	1	-1E+10	1	-1E+10	1	-1E+10	1
4902551	60	C	04/08/2022	20:03	-131.784	49.866	0	296.90	0	4.7920	0	33.8680	0	26.804	0	294.147	0	78.1	4	25.1	4	-1E+10	1	-1E+10	1	-1E+10	1	-1E+10	1	-1E+10	1	-1E+10	1
4902551	60	C	04/08/2022	20:03	-131.784	49.866	0	297.70	0	4.7870	0	33.8700	0	26.806	0	294.939	0	77.8	4	25.0	4	-1E+10	1	-1E+10	1	-1E+10	1	-1E+10	1	-1E+10	1	-1E+10	1
4902551	60	C	04/08/2022	20:03	-131.784	49.866	0	298.60	0	4.7750	0	33.8720	0	26.809	0	295.830	0	77.5	4	24.9	4	-1E+10	1	-1E+10	1	-1E+10	1	-1E+10	1	-1E+10	1	-1E+10	1
4902551	60	C	04/08/2022	20:03	-131.784	49.866	0	299.90	0	4.7560	0	33.8750	0	26.813	0	297.117	0	77.3	4	24.8	4	-1E+10	1	-1E+10	1	-1E+10	1	-1E+10	1	-1E+10	1	-1E+10	1
4902551	60	C	04/08/2022	20:03	-131.784	49.866	0	301.30	0	4.7520	0	33.8760	0	26.815	0	298.503	0	77.0	4	24.7	4	-1E+10	1	-1E+10	1	-1E+10	1	-1E+10	1	-1E+10	1	-1E+10	1
4902551	60	C	04/08/2022	20:03	-131.784	49.866	0	302.20	0	4.7490	0	33.8770	0	26.816	0	299.394	0	76.8	4	24.6	4	-1E+10	1	-1E+10	1	-1E+10	1	-1E+10	1	-1E+10	1	-1E+10	1
4902551	60	C	04/08/2022	20:03	-131.784	49.866	0	303.10	0	4.7450	0	33.8770	0	26.816	0	300.285	0	76.6	4	24.6	4	-1E+10	1	-1E+10	1	-1E+10	1	-1E+10	1	-1E+10	1	-1E+10	1
4902551	60	C	04/08/2022	20:03	-131.784	49.866	0	304.00	0	4.7400	0	33.8790	0	26.818	0	301.176	0	76.4	4	24.5	4	-1E+10	1	-1E+10	1	-1E+10	1	-1E+10	1	-1E+10	1	-1E+10	1
4902551	60	C	04/08/2022	20:03	-131.784	49.866	0	304.80	0	4.7380	0	33.8790	0	26.819	0	301.968	0	76.2	4	24.4	4	-1E+10	1	-1E+10	1	-1E+10	1	-1E+10	1	-1E+10	1	-1E+10	1
4902551	60	C	04/08/2022	20:03	-131.784	49.866	0	305.70	0	4.7370	0	33.8790	0	26.819	0	302.859	0	76.0	4	24.4	4	-1E+10	1	-1E+10	1	-1E+10	1	-1E+10	1	-1E+10	1	-1E+10	1
4902551	60	C	04/08/2022	20:03	-131.784	49.866	0	307.00	0	4.7310	0	33.8800	0	26.820	0	304.146	0	75.7	4	24.3	4	-1E+10	1	-1E+10	1	-1E+10	1	-1E+10	1	-1E+10	1	-1E+10	1
4902551	60	C	04/08/2022	20:03	-131.784	49.866	0	308.30	0	4.7290	0	33.8800	0	26.820	0	305.433	0	75.4	4	24.2	4	-1E+10	1	-1E+10	1	-1E+10	1	-1E+10	1	-1E+10	1	-1E+10	1
4902551	60	C	04/08/2022	20:03	-131.784	49.866	0	309.20	0	4.7250	0	33.8810	0	26.822	0	306.324	0	75.2	4	24.1	4	-1E+10	1	-1E+10	1	-1E+10	1	-1E+10	1	-1E+10	1	-1E+10	1
4902551	60	C	04/08/2022	20:03	-131.784	49.866	0	310.00	0	4.7260	0	33.8810	0	26.822	0	307.116	0	74.9	4	24.0	4	-1E+10	1	-1E+10	1	-1E+10	1	-1E+10	1	-1E+10	1	-1E+10	1
4902551	60	C	04/08/2022	20:03	-131.784	49.866	0	310.90	0	4.7240	0	33.8820	0	26.823	0	308.007	0	74.6	4	23.9	4	-1E+10	1	-1E+10	1	-1E+10	1	-1E+10	1	-1E+10	1	-1E+10	1
4902551	60	C	04/08/2022	20:03	-131.784	49.866	0	311.70	0	4.7240	0	33.8810	0	26.822	0	308.799	0	74.3	4	23.8	4	-1E+10	1	-1E+10	1	-1E+10	1	-1E+10	1	-1E+10	1	-1E+10	1
4902551	60	C	04/08/2022	20:03	-131.784	49.866	0	313.00	0	4.7200	0	33.8820	0	26.823	0	310.086	0	73.8	4	23.6	4	-1E+10	1	-1E+10	1	-1E+10	1	-1E+10	1	-1E+10	1	-1E+10	1
4902551	60	C	04/08/2022	20:03	-131.784	49.866	0	314.30	0	4.7200	0	33.8820	0	26.823	0	311.373	0	73.1	4	23.4	4	-1E+10	1	-1E+10	1	-1E+10	1	-1E+10	1	-1E+10	1	-1E+10	1
4902551	60	C	04/08/2022	20:03	-131.784	49.866	0	315.10	0	4.7160	0	33.8820	0	26.823	0	312.164	0	72.7	4	23.3	4	-1E+10	1	-1E+10	1	-1E+10	1	-1E+10	1	-1E+10	1	-1E+10	1
4902551	60	C	04/08/2022	20:03	-131.784	49.866	0	316.00	0	4.7070	0	33.8840	0	26.826	0	313.055	0	72.2	4	23.1	4	-1E+10	1	-1E+10	1	-1E+10	1	-1E+10	1	-1E+10	1	-1E+10	1
4902551	60	C	04/08/2022	20:03	-131.784	49.866	0	316.80	0	4.6920	0	33.8870	0	26.830	0	313.847	0	71.8	4	23.0	4	-1E+10	1	-1E+10	1	-1E+10	1	-1E+10	1	-1E+10	1	-1E+10	1
4902551	60	C	04/08/2022	20:03	-131.784	49.866	0	317.60	0	4.6840	0	33.8890	0	26.833	0	314.639	0	71.5	4	22.9	4	-1E+10	1	-1E+10	1	-1E+10	1	-1E+10	1	-1E+10	1	-1E+10	1
4902551	60	C	04/08/2022	20:03	-131.784	49.866	0	318.90	0	4.6680	0	33.8960	0	26.840	0	315.926	0	71.0	4	22.7	4	-1E+10	1	-1E+10	1	-1E+10	1	-1E+10	1	-1E+10	1	-1E+10	1
4902551	60	C	04/08/2022	20:03	-131.784	49.866	0	320.10	0	4.6610	0	33.8950	0	26.840	0	317.114	0	70.6	4	22.6	4	-1E+10	1	-1E+10	1	-1E+10	1	-1E+10	1	-1E+10	1	-1E+10	1
4902551	60	C	04/08/2022	20:03	-131.784	49.866	0	321.00	0	4.6580	0	33.8970	0	26.842	0	318.005	0	70.3	4	22.5	4	-1E+10	1	-1E+10	1	-1E+10	1	-1E+10	1	-1E+10	1	-1E+10	1
4902551	60	C	04/08/2022	20:03	-131.784	49.866	0	321.80	0	4.6560	0	33.8980	0	26.843	0	318.797	0	70.1	4	22.4	4	-1E+10	1	-1E+10	1	-1E+10	1	-1E+10	1	-1E+10	1	-1E+10	1
4902551	60	C	04/08/2022	20:03	-131.784	49.866	0	322.60	0	4.6540	0	33.8970	0	26.842	0	319.589	0	69.7	4	22.3	4	-1E+10	1	-1E+10	1	-1E+10	1	-1E+10	1	-1E+10	1	-1E+10	1
4902551	60	C	04/08/2022	20:03	-131.784	49.866	0	323.90	0	4.6520	0	33.8970	0	26.842	0	320.876	0	69.2	4	22.1	4	-1E+10	1	-1E+10	1	-1E+10	1	-1E+10	1	-1E+10	1	-1E+10	1
4902551	60	C	04/08/2022	20:03	-131.784	49.866	0	325.20	0	4.6470	0	33.8990	0	26.845	0	322.163	0	68.7	4	22.0	4	-1E+10	1	-1E+10	1	-1E+10	1	-1E+10	1	-1E+10	1	-1E+10	1
4902551	60	C	04/08/2022	20:03	-131.784	49.866	0	326.00	0	4.6410	0	33.9010	0	26.847	0	322.954	0	68.4	4	21.9	4	-1E+10	1	-1E+10	1	-1E+10	1	-1E+10	1	-1E+10	1	-1E+10	1
4902551	60	C	04/08/2022	20:03	-131.784	49.866	0	326.80	0	4.6290	0	33.9040	0	26.851	0	323.746	0	68.1	4	21.8	4	-1E+10	1	-1E+10	1	-1E+10	1	-1E+10	1	-1E+10	1	-1E+10	1
4902551	60	C	04/08/2022	20:03	-131.784	49.866	0	327.70	0	4.6200	0	33.9070	0	26.854	0	324.637	0	67.9	4	21.7	4	-1E+10	1	-1E+10	1	-1E+10	1	-1E+10	1	-1E+10	1	-1E+10	1
4902551	60	C	04/08/2022	20:03	-131.784	49.866	0	328.90	0	4.6100	0	33.9090	0	26.857	0	325.825	0	67.6	4	21.6	4	-1E+10	1	-1E+10	1	-1E+10	1	-1E+10	1	-1E+10	1	-1E+10	1
4902551	60	C	04/08/2022	20:03	-131.784	49.866	0	330.20	0	4.6080	0	33.9100	0	26.858	0	327.112	0	67.3	4	21.5	4	-1E+10	1	-1E+10	1	-1E+10	1	-1E+10	1	-1E+10	1	-1E+10	1
4902551	60	C	04/08/2022	20:03	-131.784	49.866	0	331.00	0	4.6060	0	33.9100	0	26.858	0	327.904	0	67.1	4	21.5	4	-1E+10	1	-1E+10	1	-1E+10	1	-1E+10	1	-1E+10	1	-1E+10	1
4902551	60	C	04/08/2022	20:03	-131.784	49.866	0	331.90	0	4.6030	0	33.9110	0	26.859	0	328.795	0	66.9	4	21.4	4	-1E+10	1	-1E+10	1	-1E+10	1	-1E+10	1	-1E+10	1	-1E+10	1
4902551	60	C	04/08/2022	20:03	-131.784	49.866	0	332.70	0	4.6010	0	33.9110	0	26.859	0	329.587	0	66.7	4	21.3	4	-1E+10	1	-1E+10	1	-1E+10	1	-1E+10	1	-1E+10	1	-1E+10	1
4902551	60	C	04/08/2022	20:03	-131.784	49.866	0	333.90	0	4.5910	0	33.9140	0	26.863	0	330.774	0	66.4	4	21.2	4	-1E+10	1	-1E+10	1	-1E+10	1	-1E+10	1	-1E+10	1	-1E+10	1
4902551	60	C	04/08/2022	20:03	-131.784	49.866	0	335.20	0	4.5840	0	33.9160	0	26.865	0	332.061	0	66.2	4	21.2	4	-1E+10	1	-1E+10	1	-1E+10	1	-1E+10	1	-1E+10	1	-1E+10	1
4902551	60	C	04/08/2022	20:03	-131.784	49.866	0	336.10	0	4.5820	0	33.9170	0	26.866	0	332.952	0	66.1	4	21.1	4	-1E+10	1	-1E+10	1	-1E+10	1	-1E+10	1	-1E+10	1	-1E+10	1
4902551	60	C	04/08/2022	20:03	-131.784	49.866	0	336.90	0	4.5800	0	33.9170	0	26.866	0	333.744	0	66.0	4	21.1	4	-1E+10	1	-1E+10	1	-1E+10	1	-1E+10	1	-1E+10	1	-1E+10	1
4902551	60	C	04/08/2022	20:03	-131.784	49.866	0	337.70	0	4.5800	0	33.9170	0	26.866	0	334.536	0	65.7	4	21.0	4	-1E+10	1	-1E+10	1	-1E+10	1	-1E+10	1	-1E+10	1	-1E+10	1
4902551	60	C	04/08/2022	20:03	-131.784	49.866	0	339.00	0	4.5790	0	33.9170	0	26.866	0	335.822	0	65.5	4	20.9	4	-1E+10	1	-1E+10	1	-1E+10	1	-1E+10	1	-1E+10	1	-1E+10	1
4902551	60	C	04/08/2022	20:03	-131.784	49.866	0	340.20	0	4.5780	0	33.9180	0	26.867	0	337.010	0	65.2	4	20.8	4	-1E+10	1	-1E+10	1	-1E+10	1	-1E+10	1	-1E+10	1	-1E+10	1
4902551	60	C	04/08/2022	20:03	-131.784	49.866	0	341.00	0	4.5780	0	33.9170	0	26.867	0	337.802	0	65.0	4	20.8	4	-1E+10	1	-1E+10	1	-1E+10	1	-1E+10	1	-1E+10	1	-1E+10	1
4902551	60	C	04/08/2022	20:03	-131.784	49.866	0	341.90	0	4.5770	0	33.9170	0	26.867	0	338.693	0	64.7	4	20.7	4	-1E+10	1	-1E+10	1	-1E+10	1	-1E+10	1	-1E+10	1	-1E+10	1
4902551	60	C	04/08/2022	20:03	-131.784	49.866	0	342.70	0	4.5760	0	33.9170	0	26.867	0	339.485	0	64.4	4	20.6	4	-1E+10	1	-1E+10	1	-1E+10	1	-1E+10	1	-1E+10	1	-1E+10	1
4902551	60	C	04/08/2022	20:03	-131.784	49.866	0	344.00	0	4.5720	0	33.9180	0	26.868	0	340.771	0	63.9	4	20.4	4	-1E+10	1	-1E+10	1	-1E+10	1	-1E+10	1	-1E+10	1	-1E+10	1
4902551	60	C	04/08/2022	20:03	-131.784	49.866	0	345.30	0	4.5590	0	33.9230	0	26.873	0	342.058	0	63.6	4	20.3	4	-1E+10	1	-1E+10	1	-1E+10	1	-1E+10	1	-1E+10	1	-1E+10	1
4902551	60	C	04/08/2022	20:03	-131.784	49.866	0	346.20	0	4.5440	0	33.9270	0	26.878	0	342.949	0	63.4	4	20.2	4	-1E+10	1	-1E+10	1	-1E+10	1	-1E+10	1	-1E+10	1	-1E+10	1
4902551	60	C	04/08/2022	20:03	-131.784	49.866	0	347.00	0	4.5430	0	33.9280	0	26.879	0	343.741	0	63.3	4	20.2	4	-1E+10	1	-1E+10	1	-1E+10	1	-1E+10	1	-1E+10	1	-1E+10	1
4902551	60	C	04/08/2022	20:03	-131.784	49.866	0	347.90	0	4.5410	0	33.9280	0	26.879	0	344.632	0	63.1	4	20.1	4	-1E+10	1	-1E+10	1	-1E+10	1	-1E+10	1	-1E+10	1	-1E+10	1
4902551	60	C	04/08/2022	20:03	-131.784	49.866	0	348.80	0	4.5400	0	33.9290	0	26.880	0	345.522	0	62.9	4	20.1	4	-1E+10	1	-1E+10	1	-1E+10	1	-1E+10	1	-1E+10	1	-1E+10	1
4902551	60	C	04/08/2022	20:03	-131.784	49.866	0	349.70	0	4.5300	0	33.9300	0	26.882	0	346.413	0	62.8	4	20.0	4	-1E+10	1	-1E+10	1	-1E+10	1	-1E+10	1	-1E+10	1	-1E+10	1
4902551	60	C	04/08/2022	20:03	-131.784	49.866	0	352.80	0	4.5270	0	33.9300	0	26.882	0	349.481	0	62.3	4	19.9	4	-1E+10	1	-1E+10	1	-1E+10	1	-1E+10	1	-1E+10	1	-1E+10	1
4902551	60	C	04/08/2022	20:03	-131.784	49.866	0	358.20	0	4.5180	0	33.9330	0	26.886	0	354.826	0	61.2	4	19.5	4	-1E+10	1	-1E+10	1	-1E+10	1	-1E+10	1	-1E+10	1	-1E+10	1
4902551	60	C	04/08/2022	20:03	-131.784	49.866	0	363.10	0	4.5080	0	33.9370	0	26.890	0	359.676	0	60.1	4	19.2	4	-1E+10	1	-1E+10	1	-1E+10	1	-1E+10	1	-1E+10	1	-1E+10	1
4902551	60	C	04/08/2022	20:03	-131.784	49.866	0	367.70	0	4.4970	0	33.9420	0	26.895	0	364.228	0	59.2	4	18.9	4	-1E+10	1	-1E+10	1	-1E+10	1	-1E+10	1	-1E+10	1	-1E+10	1
4902551	60	C	04/08/2022	20:03	-131.784	49.866	0	372.70	0	4.4840	0	33.9480	0	26.902	0	369.177	0	58.3	4	18.6	4	-1E+10	1	-1E+10	1	-1E+10	1	-1E+10	1	-1E+10	1	-1E+10	1
4902551	60	C	04/08/2022	20:03	-131.784	49.866	0	377.80	0	4.4770	0	33.9500	0	26.904	0	374.224	0	57.6	4	18.4	4	-1E+10	1	-1E+10	1	-1E+10	1	-1E+10	1	-1E+10	1	-1E+10	1
4902551	60	C	04/08/2022	20:03	-131.784	49.866	0	382.80	0	4.4710	0	33.9520	0	26.906	0	379.172	0	56.7	4	18.1	4	-1E+10	1	-1E+10	1	-1E+10	1	-1E+10	1	-1E+10	1	-1E+10	1
4902551	60	C	04/08/2022	20:03	-131.784	49.866	0	387.90	0	4.4640	0	33.9540	0	26.909	0	384.219	0	55.5	4	17.7	4	-1E+10	1	-1E+10	1	-1E+10	1	-1E+10	1	-1E+10	1	-1E+10	1
4902551	60	C	04/08/2022	20:03	-131.784	49.866	0	393.00	0	4.4540	0	33.9580	0	26.913	0	389.266	0	53.9	4	17.2	4	-1E+10	1	-1E+10	1	-1E+10	1	-1E+10	1	-1E+10	1	-1E+10	1
4902551	60	C	04/08/2022	20:03	-131.784	49.866	0	398.10	0	4.4260	0	33.9680	0	26.924	0	394.312	0	52.3	4	16.7	4	-1E+10	1	-1E+10	1	-1E+10	1	-1E+10	1	-1E+10	1	-1E+10	1
4902551	60	C	04/08/2022	20:03	-131.784	49.866	0	403.00	0	4.4080	0	33.9760	0	26.932	0	399.161	0	51.3	4	16.3	4	-1E+10	1	-1E+10	1	-1E+10	1	-1E+10	1	-1E+10	1	-1E+10	1
4902551	60	C	04/08/2022	20:03	-131.784	49.866	0	408.00	0	4.3940	0	33.9820	0	26.938	0	404.109	0	50.0	4	15.9	4	-1E+10	1	-1E+10	1	-1E+10	1	-1E+10	1	-1E+10	1	-1E+10	1
4902551	60	C	04/08/2022	20:03	-131.784	49.866	0	413.00	0	4.3720	0	33.9910	0	26.948	0	409.056	0	48.9	4	15.6	4	-1E+10	1	-1E+10	1	-1E+10	1	-1E+10	1	-1E+10	1	-1E+10	1
4902551	60	C	04/08/2022	20:03	-131.784	49.866	0	418.10	0	4.3580	0	33.9970	0	26.954	0	414.102	0	47.7	4	15.2	4	-1E+10	1	-1E+10	1	-1E+10	1	-1E+10	1	-1E+10	1	-1E+10	1
4902551	60	C	04/08/2022	20:03	-131.784	49.866	0	423.00	0	4.3410	0	34.0040	0	26.962	0	418.950	0	46.6	4	14.8	4	-1E+10	1	-1E+10	1	-1E+10	1	-1E+10	1	-1E+10	1	-1E+10	1
4902551	60	C	04/08/2022	20:03	-131.784	49.866	0	428.20	0	4.3330	0	34.0080	0	26.966	0	424.095	0	45.8	4	14.5	4	-1E+10	1	-1E+10	1	-1E+10	1	-1E+10	1	-1E+10	1	-1E+10	1
4902551	60	C	04/08/2022	20:03	-131.784	49.866	0	433.00	0	4.3190	0	34.0130	0	26.971	0	428.844	0	45.1	4	14.3	4	-1E+10	1	-1E+10	1	-1E+10	1	-1E+10	1	-1E+10	1	-1E+10	1
4902551	60	C	04/08/2022	20:03	-131.784	49.866	0	438.00	0	4.3100	0	34.0170	0	26.975	0	433.791	0	44.7	4	14.2	4	-1E+10	1	-1E+10	1	-1E+10	1	-1E+10	1	-1E+10	1	-1E+10	1
4902551	60	C	04/08/2022	20:03	-131.784	49.866	0	443.00	0	4.3050	0	34.0190	0	26.978	0	438.738	0	44.2	4	14.0	4	-1E+10	1	-1E+10	1	-1E+10	1	-1E+10	1	-1E+10	1	-1E+10	1
4902551	60	C	04/08/2022	20:03	-131.784	49.866	0	448.20	0	4.3010	0	34.0210	0	26.980	0	443.882	0	43.6	4	13.8	4	-1E+10	1	-1E+10	1	-1E+10	1	-1E+10	1	-1E+10	1	-1E+10	1
4902551	60	C	04/08/2022	20:03	-131.784	49.866	0	453.10	0	4.2920	0	34.0260	0	26.985	0	448.730	0	43.0	4	13.7	4	-1E+10	1	-1E+10	1	-1E+10	1	-1E+10	1	-1E+10	1	-1E+10	1
4902551	60	C	04/08/2022	20:03	-131.784	49.866	0	457.70	0	4.2860	0	34.0280	0	26.987	0	453.280	0	42.3	4	13.4	4	-1E+10	1	-1E+10	1	-1E+10	1	-1E+10	1	-1E+10	1	-1E+10	1
4902551	60	C	04/08/2022	20:03	-131.784	49.866	0	462.80	0	4.2720	0	34.0330	0	26.992	0	458.325	0	41.6	4	13.2	4	-1E+10	1	-1E+10	1	-1E+10	1	-1E+10	1	-1E+10	1	-1E+10	1
4902551	60	C	04/08/2022	20:03	-131.784	49.866	0	467.90	0	4.2650	0	34.0360	0	26.995	0	463.370	0	41.0	4	13.0	4	-1E+10	1	-1E+10	1	-1E+10	1	-1E+10	1	-1E+10	1	-1E+10	1
4902551	60	C	04/08/2022	20:03	-131.784	49.866	0	472.70	0	4.2600	0	34.0400	0	26.999	0	468.118	0	40.5	4	12.9	4	-1E+10	1	-1E+10	1	-1E+10	1	-1E+10	1	-1E+10	1	-1E+10	1
4902551	60	C	04/08/2022	20:03	-131.784	49.866	0	477.90	0	4.2510	0	34.0440	0	27.003	0	473.262	0	40.1	4	12.7	4	-1E+10	1	-1E+10	1	-1E+10	1	-1E+10	1	-1E+10	1	-1E+10	1
4902551	60	C	04/08/2022	20:03	-131.784	49.866	0	483.10	0	4.2430	0	34.0460	0	27.006	0	478.406	0	39.7	4	12.6	4	-1E+10	1	-1E+10	1	-1E+10	1	-1E+10	1	-1E+10	1	-1E+10	1
4902551	60	C	04/08/2022	20:03	-131.784	49.866	0	487.90	0	4.2350	0	34.0480	0	27.008	0	483.153	0	39.2	4	12.4	4	-1E+10	1	-1E+10	1	-1E+10	1	-1E+10	1	-1E+10	1	-1E+10	1
4902551	60	C	04/08/2022	20:03	-131.784	49.866	0	492.60	0	4.2270	0	34.0500	0	27.011	0	487.802	0	38.7	4	12.3	4	-1E+10	1	-1E+10	1	-1E+10	1	-1E+10	1	-1E+10	1	-1E+10	1
4902551	60	C	04/08/2022	20:03	-131.784	49.866	0	497.90	0	4.2180	0	34.0540	0	27.015	0	493.044	0	38.3	4	12.1	4	-1E+10	1	-1E+10	1	-1E+10	1	-1E+10	1	-1E+10	1	-1E+10	1
4902551	60	C	04/08/2022	20:03	-131.784	49.866	0	503.10	0	4.2110	0	34.0560	0	27.017	0	498.187	0	37.8	4	12.0	4	-1E+10	1	-1E+10	1	-1E+10	1	-1E+10	1	-1E+10	1	-1E+10	1
4902551	60	C	04/08/2022	20:03	-131.784	49.866	0	507.90	0	4.2070	0	34.0570	0	27.019	0	502.935	0	37.3	4	11.8	4	-1E+10	1	-1E+10	1	-1E+10	1	-1E+10	1	-1E+10	1	-1E+10	1
4902551	60	C	04/08/2022	20:03	-131.784	49.866	0	512.70	0	4.1990	0	34.0600	0	27.022	0	507.682	0	36.6	4	11.6	4	-1E+10	1	-1E+10	1	-1E+10	1	-1E+10	1	-1E+10	1	-1E+10	1
4902551	60	C	04/08/2022	20:03	-131.784	49.866	0	517.60	0	4.1880	0	34.0640	0	27.026	0	512.528	0	35.8	4	11.4	4	-1E+10	1	-1E+10	1	-1E+10	1	-1E+10	1	-1E+10	1	-1E+10	1
4902551	60	C	04/08/2022	20:03	-131.784	49.866	0	522.50	0	4.1800	0	34.0680	0	27.030	0	517.374	0	35.1	4	11.1	4	-1E+10	1	-1E+10	1	-1E+10	1	-1E+10	1	-1E+10	1	-1E+10	1
4902551	60	C	04/08/2022	20:03	-131.784	49.866	0	527.90	0	4.1700	0	34.0720	0	27.034	0	522.714	0	34.2	4	10.8	4	-1E+10	1	-1E+10	1	-1E+10	1	-1E+10	1	-1E+10	1	-1E+10	1
4902551	60	C	04/08/2022	20:03	-131.784	49.866	0	533.30	0	4.1610	0	34.0750	0	27.038	0	528.054	0	33.1	4	10.5	4	-1E+10	1	-1E+10	1	-1E+10	1	-1E+10	1	-1E+10	1	-1E+10	1
4902551	60	C	04/08/2022	20:03	-131.784	49.866	0	538.30	0	4.1460	0	34.0810	0	27.044	0	532.999	0	32.2	4	10.2	4	-1E+10	1	-1E+10	1	-1E+10	1	-1E+10	1	-1E+10	1	-1E+10	1
4902551	60	C	04/08/2022	20:03	-131.784	49.866	0	543.30	0	4.1250	0	34.0900	0	27.054	0	537.943	0	31.6	4	10.0	4	-1E+10	1	-1E+10	1	-1E+10	1	-1E+10	1	-1E+10	1	-1E+10	1
4902551	60	C	04/08/2022	20:03	-131.784	49.866	0	548.00	0	4.1160	0	34.0930	0	27.057	0	542.590	0	31.3	4	9.9	4	-1E+10	1	-1E+10	1	-1E+10	1	-1E+10	1	-1E+10	1	-1E+10	1
4902551	60	C	04/08/2022	20:03	-131.784	49.866	0	552.60	0	4.1110	0	34.0940	0	27.058	0	547.139	0	31.0	4	9.8	4	-1E+10	1	-1E+10	1	-1E+10	1	-1E+10	1	-1E+10	1	-1E+10	1
4902551	60	C	04/08/2022	20:03	-131.784	49.866	0	557.70	0	4.1040	0	34.0970	0	27.061	0	552.182	0	30.6	4	9.7	4	-1E+10	1	-1E+10	1	-1E+10	1	-1E+10	1	-1E+10	1	-1E+10	1
4902551	60	C	04/08/2022	20:03	-131.784	49.866	0	562.80	0	4.1000	0	34.0990	0	27.063	0	557.224	0	30.1	4	9.5	4	-1E+10	1	-1E+10	1	-1E+10	1	-1E+10	1	-1E+10	1	-1E+10	1
4902551	60	C	04/08/2022	20:03	-131.784	49.866	0	567.80	0	4.0980	0	34.0990	0	27.064	0	562.168	0	29.3	4	9.3	4	-1E+10	1	-1E+10	1	-1E+10	1	-1E+10	1	-1E+10	1	-1E+10	1
4902551	60	C	04/08/2022	20:03	-131.784	49.866	0	572.80	0	4.0880	0	34.1030	0	27.068	0	567.112	0	28.4	4	9.0	4	-1E+10	1	-1E+10	1	-1E+10	1	-1E+10	1	-1E+10	1	-1E+10	1
4902551	60	C	04/08/2022	20:03	-131.784	49.866	0	577.80	0	4.0680	0	34.1110	0	27.076	0	572.055	0	27.4	4	8.7	4	-1E+10	1	-1E+10	1	-1E+10	1	-1E+10	1	-1E+10	1	-1E+10	1
4902551	60	C	04/08/2022	20:03	-131.784	49.866	0	582.80	0	4.0550	0	34.1170	0	27.083	0	576.999	0	26.8	4	8.5	4	-1E+10	1	-1E+10	1	-1E+10	1	-1E+10	1	-1E+10	1	-1E+10	1
4902551	60	C	04/08/2022	20:03	-131.784	49.866	0	587.90	0	4.0460	0	34.1190	0	27.085	0	582.041	0	26.2	4	8.3	4	-1E+10	1	-1E+10	1	-1E+10	1	-1E+10	1	-1E+10	1	-1E+10	1
4902551	60	C	04/08/2022	20:03	-131.784	49.866	0	592.90	0	4.0360	0	34.1230	0	27.089	0	586.984	0	25.4	4	8.0	4	-1E+10	1	-1E+10	1	-1E+10	1	-1E+10	1	-1E+10	1	-1E+10	1
4902551	60	C	04/08/2022	20:03	-131.784	49.866	0	598.00	0	4.0230	0	34.1280	0	27.095	0	592.026	0	24.8	4	7.8	4	-1E+10	1	-1E+10	1	-1E+10	1	-1E+10	1	-1E+10	1	-1E+10	1
4902551	60	C	04/08/2022	20:03	-131.784	49.866	0	603.20	0	4.0100	0	34.1330	0	27.100	0	597.166	0	24.2	4	7.6	4	-1E+10	1	-1E+10	1	-1E+10	1	-1E+10	1	-1E+10	1	-1E+10	1
4902551	60	C	04/08/2022	20:03	-131.784	49.866	0	607.80	0	4.0030	0	34.1350	0	27.102	0	601.714	0	23.7	4	7.5	4	-1E+10	1	-1E+10	1	-1E+10	1	-1E+10	1	-1E+10	1	-1E+10	1
4902551	60	C	04/08/2022	20:03	-131.784	49.866	0	612.70	0	3.9940	0	34.1380	0	27.106	0	606.557	0	23.0	4	7.3	4	-1E+10	1	-1E+10	1	-1E+10	1	-1E+10	1	-1E+10	1	-1E+10	1
4902551	60	C	04/08/2022	20:03	-131.784	49.866	0	617.90	0	3.9670	0	34.1470	0	27.116	0	611.698	0	22.4	4	7.1	4	-1E+10	1	-1E+10	1	-1E+10	1	-1E+10	1	-1E+10	1	-1E+10	1
4902551	60	C	04/08/2022	20:03	-131.784	49.866	0	622.70	0	3.9540	0	34.1510	0	27.120	0	616.442	0	22.2	4	7.0	4	-1E+10	1	-1E+10	1	-1E+10	1	-1E+10	1	-1E+10	1	-1E+10	1
4902551	60	C	04/08/2022	20:03	-131.784	49.866	0	627.90	0	3.9450	0	34.1540	0	27.123	0	621.582	0	22.0	4	6.9	4	-1E+10	1	-1E+10	1	-1E+10	1	-1E+10	1	-1E+10	1	-1E+10	1
4902551	60	C	04/08/2022	20:03	-131.784	49.866	0	633.30	0	3.9390	0	34.1560	0	27.126	0	626.920	0	21.7	4	6.8	4	-1E+10	1	-1E+10	1	-1E+10	1	-1E+10	1	-1E+10	1	-1E+10	1
4902551	60	C	04/08/2022	20:03	-131.784	49.866	0	638.30	0	3.9360	0	34.1570	0	27.127	0	631.862	0	21.4	4	6.8	4	-1E+10	1	-1E+10	1	-1E+10	1	-1E+10	1	-1E+10	1	-1E+10	1
4902551	60	C	04/08/2022	20:03	-131.784	49.866	0	643.20	0	3.9260	0	34.1600	0	27.130	0	636.705	0	21.0	4	6.6	4	-1E+10	1	-1E+10	1	-1E+10	1	-1E+10	1	-1E+10	1	-1E+10	1
4902551	60	C	04/08/2022	20:03	-131.784	49.866	0	648.30	0	3.9060	0	34.1660	0	27.137	0	641.746	0	20.8	4	6.5	4	-1E+10	1	-1E+10	1	-1E+10	1	-1E+10	1	-1E+10	1	-1E+10	1
4902551	60	C	04/08/2022	20:03	-131.784	49.866	0	653.00	0	3.9020	0	34.1670	0	27.138	0	646.391	0	20.5	4	6.4	4	-1E+10	1	-1E+10	1	-1E+10	1	-1E+10	1	-1E+10	1	-1E+10	1
4902551	60	C	04/08/2022	20:03	-131.784	49.866	0	657.80	0	3.8950	0	34.1700	0	27.141	0	651.135	0	20.2	4	6.3	4	-1E+10	1	-1E+10	1	-1E+10	1	-1E+10	1	-1E+10	1	-1E+10	1
4902551	60	C	04/08/2022	20:03	-131.784	49.866	0	663.00	0	3.8880	0	34.1720	0	27.144	0	656.274	0	19.8	4	6.2	4	-1E+10	1	-1E+10	1	-1E+10	1	-1E+10	1	-1E+10	1	-1E+10	1
4902551	60	C	04/08/2022	20:03	-131.784	49.866	0	668.00	0	3.8760	0	34.1760	0	27.148	0	661.215	0	19.3	4	6.1	4	-1E+10	1	-1E+10	1	-1E+10	1	-1E+10	1	-1E+10	1	-1E+10	1
4902551	60	C	04/08/2022	20:03	-131.784	49.866	0	673.00	0	3.8610	0	34.1810	0	27.154	0	666.157	0	19.0	4	6.0	4	-1E+10	1	-1E+10	1	-1E+10	1	-1E+10	1	-1E+10	1	-1E+10	1
4902551	60	C	04/08/2022	20:03	-131.784	49.866	0	678.10	0	3.8450	0	34.1870	0	27.160	0	671.196	0	18.7	4	5.9	4	-1E+10	1	-1E+10	1	-1E+10	1	-1E+10	1	-1E+10	1	-1E+10	1
4902551	60	C	04/08/2022	20:03	-131.784	49.866	0	682.70	0	3.8380	0	34.1890	0	27.162	0	675.742	0	18.6	4	5.8	4	-1E+10	1	-1E+10	1	-1E+10	1	-1E+10	1	-1E+10	1	-1E+10	1
4902551	60	C	04/08/2022	20:03	-131.784	49.866	0	687.80	0	3.8330	0	34.1910	0	27.165	0	680.782	0	18.3	4	5.8	4	-1E+10	1	-1E+10	1	-1E+10	1	-1E+10	1	-1E+10	1	-1E+10	1
4902551	60	C	04/08/2022	20:03	-131.784	49.866	0	692.90	0	3.8270	0	34.1930	0	27.167	0	685.821	0	18.0	4	5.7	4	-1E+10	1	-1E+10	1	-1E+10	1	-1E+10	1	-1E+10	1	-1E+10	1
4902551	60	C	04/08/2022	20:03	-131.784	49.866	0	698.00	0	3.8110	0	34.1970	0	27.172	0	690.861	0	17.8	4	5.6	4	-1E+10	1	-1E+10	1	-1E+10	1	-1E+10	1	-1E+10	1	-1E+10	1
4902551	60	C	04/08/2022	20:03	-131.784	49.866	0	703.30	0	3.7950	0	34.2020	0	27.177	0	696.098	0	17.6	4	5.5	4	-1E+10	1	-1E+10	1	-1E+10	1	-1E+10	1	-1E+10	1	-1E+10	1
4902551	60	C	04/08/2022	20:03	-131.784	49.866	0	707.90	0	3.7930	0	34.2030	0	27.178	0	700.643	0	17.5	4	5.5	4	-1E+10	1	-1E+10	1	-1E+10	1	-1E+10	1	-1E+10	1	-1E+10	1
4902551	60	C	04/08/2022	20:03	-131.784	49.866	0	712.90	0	3.7870	0	34.2050	0	27.181	0	705.583	0	17.3	4	5.4	4	-1E+10	1	-1E+10	1	-1E+10	1	-1E+10	1	-1E+10	1	-1E+10	1
4902551	60	C	04/08/2022	20:03	-131.784	49.866	0	718.00	0	3.7790	0	34.2080	0	27.184	0	710.622	0	17.1	4	5.4	4	-1E+10	1	-1E+10	1	-1E+10	1	-1E+10	1	-1E+10	1	-1E+10	1
4902551	60	C	04/08/2022	20:03	-131.784	49.866	0	722.70	0	3.7700	0	34.2110	0	27.187	0	715.266	0	17.0	4	5.3	4	-1E+10	1	-1E+10	1	-1E+10	1	-1E+10	1	-1E+10	1	-1E+10	1
4902551	60	C	04/08/2022	20:03	-131.784	49.866	0	727.90	0	3.7650	0	34.2120	0	27.188	0	720.403	0	16.9	4	5.3	4	-1E+10	1	-1E+10	1	-1E+10	1	-1E+10	1	-1E+10	1	-1E+10	1
4902551	60	C	04/08/2022	20:03	-131.784	49.866	0	732.90	0	3.7610	0	34.2130	0	27.190	0	725.343	0	16.8	4	5.3	4	-1E+10	1	-1E+10	1	-1E+10	1	-1E+10	1	-1E+10	1	-1E+10	1
4902551	60	C	04/08/2022	20:03	-131.784	49.866	0	738.00	0	3.7420	0	34.2170	0	27.195	0	730.382	0	16.7	4	5.2	4	-1E+10	1	-1E+10	1	-1E+10	1	-1E+10	1	-1E+10	1	-1E+10	1
4902551	60	C	04/08/2022	20:03	-131.784	49.866	0	743.20	0	3.7320	0	34.2190	0	27.197	0	735.519	0	16.6	4	5.2	4	-1E+10	1	-1E+10	1	-1E+10	1	-1E+10	1	-1E+10	1	-1E+10	1
4902551	60	C	04/08/2022	20:03	-131.784	49.866	0	747.90	0	3.7240	0	34.2210	0	27.200	0	740.162	0	16.4	4	5.1	4	-1E+10	1	-1E+10	1	-1E+10	1	-1E+10	1	-1E+10	1	-1E+10	1
4902551	60	C	04/08/2022	20:03	-131.784	49.866	0	752.90	0	3.7060	0	34.2250	0	27.205	0	745.101	0	16.2	4	5.1	4	-1E+10	1	-1E+10	1	-1E+10	1	-1E+10	1	-1E+10	1	-1E+10	1
4902551	60	C	04/08/2022	20:03	-131.784	49.866	0	758.00	0	3.6930	0	34.2280	0	27.208	0	750.139	0	15.9	4	5.0	4	-1E+10	1	-1E+10	1	-1E+10	1	-1E+10	1	-1E+10	1	-1E+10	1
4902551	60	C	04/08/2022	20:03	-131.784	49.866	0	763.00	0	3.6770	0	34.2340	0	27.215	0	755.078	0	15.7	4	4.9	4	-1E+10	1	-1E+10	1	-1E+10	1	-1E+10	1	-1E+10	1	-1E+10	1
4902551	60	C	04/08/2022	20:03	-131.784	49.866	0	768.00	0	3.6680	0	34.2370	0	27.218	0	760.017	0	15.8	4	4.9	4	-1E+10	1	-1E+10	1	-1E+10	1	-1E+10	1	-1E+10	1	-1E+10	1
4902551	60	C	04/08/2022	20:03	-131.784	49.866	0	772.90	0	3.6610	0	34.2380	0	27.220	0	764.858	0	15.8	4	5.0	4	-1E+10	1	-1E+10	1	-1E+10	1	-1E+10	1	-1E+10	1	-1E+10	1
4902551	60	C	04/08/2022	20:03	-131.784	49.866	0	777.90	0	3.6590	0	34.2370	0	27.219	0	769.796	0	15.8	4	5.0	4	-1E+10	1	-1E+10	1	-1E+10	1	-1E+10	1	-1E+10	1	-1E+10	1
4902551	60	C	04/08/2022	20:03	-131.784	49.866	0	782.90	0	3.6280	0	34.2420	0	27.226	0	774.735	0	15.8	4	4.9	4	-1E+10	1	-1E+10	1	-1E+10	1	-1E+10	1	-1E+10	1	-1E+10	1
4902551	60	C	04/08/2022	20:03	-131.784	49.866	0	788.20	0	3.6130	0	34.2450	0	27.230	0	779.970	0	15.7	4	4.9	4	-1E+10	1	-1E+10	1	-1E+10	1	-1E+10	1	-1E+10	1	-1E+10	1
4902551	60	C	04/08/2022	20:03	-131.784	49.866	0	793.00	0	3.6080	0	34.2460	0	27.231	0	784.711	0	15.6	4	4.9	4	-1E+10	1	-1E+10	1	-1E+10	1	-1E+10	1	-1E+10	1	-1E+10	1
4902551	60	C	04/08/2022	20:03	-131.784	49.866	0	797.90	0	3.6040	0	34.2470	0	27.233	0	789.550	0	15.3	4	4.8	4	-1E+10	1	-1E+10	1	-1E+10	1	-1E+10	1	-1E+10	1	-1E+10	1
4902551	60	C	04/08/2022	20:03	-131.784	49.866	0	803.10	0	3.5870	0	34.2530	0	27.239	0	794.686	0	15.0	4	4.7	4	-1E+10	1	-1E+10	1	-1E+10	1	-1E+10	1	-1E+10	1	-1E+10	1
4902551	60	C	04/08/2022	20:03	-131.784	49.866	0	807.90	0	3.5770	0	34.2570	0	27.243	0	799.426	0	14.8	4	4.6	4	-1E+10	1	-1E+10	1	-1E+10	1	-1E+10	1	-1E+10	1	-1E+10	1
4902551	60	C	04/08/2022	20:03	-131.784	49.866	0	812.80	0	3.5720	0	34.2580	0	27.245	0	804.266	0	14.7	4	4.6	4	-1E+10	1	-1E+10	1	-1E+10	1	-1E+10	1	-1E+10	1	-1E+10	1
4902551	60	C	04/08/2022	20:03	-131.784	49.866	0	817.70	0	3.5630	0	34.2620	0	27.249	0	809.105	0	14.6	4	4.6	4	-1E+10	1	-1E+10	1	-1E+10	1	-1E+10	1	-1E+10	1	-1E+10	1
4902551	60	C	04/08/2022	20:03	-131.784	49.866	0	822.70	0	3.5470	0	34.2640	0	27.252	0	814.042	0	14.6	4	4.6	4	-1E+10	1	-1E+10	1	-1E+10	1	-1E+10	1	-1E+10	1	-1E+10	1
4902551	60	C	04/08/2022	20:03	-131.784	49.866	0	827.70	0	3.5230	0	34.2670	0	27.257	0	818.980	0	14.6	4	4.6	4	-1E+10	1	-1E+10	1	-1E+10	1	-1E+10	1	-1E+10	1	-1E+10	1
4902551	60	C	04/08/2022	20:03	-131.784	49.866	0	832.90	0	3.5140	0	34.2700	0	27.260	0	824.115	0	14.4	4	4.5	4	-1E+10	1	-1E+10	1	-1E+10	1	-1E+10	1	-1E+10	1	-1E+10	1
4902551	60	C	04/08/2022	20:03	-131.784	49.866	0	838.00	0	3.5050	0	34.2720	0	27.262	0	829.151	0	14.3	4	4.5	4	-1E+10	1	-1E+10	1	-1E+10	1	-1E+10	1	-1E+10	1	-1E+10	1
4902551	60	C	04/08/2022	20:03	-131.784	49.866	0	842.80	0	3.4910	0	34.2750	0	27.266	0	833.891	0	14.1	4	4.4	4	-1E+10	1	-1E+10	1	-1E+10	1	-1E+10	1	-1E+10	1	-1E+10	1
4902551	60	C	04/08/2022	20:03	-131.784	49.866	0	847.60	0	3.4790	0	34.2790	0	27.270	0	838.630	0	14.0	4	4.4	4	-1E+10	1	-1E+10	1	-1E+10	1	-1E+10	1	-1E+10	1	-1E+10	1
4902551	60	C	04/08/2022	20:03	-131.784	49.866	0	852.50	0	3.4700	0	34.2820	0	27.274	0	843.469	0	13.9	4	4.3	4	-1E+10	1	-1E+10	1	-1E+10	1	-1E+10	1	-1E+10	1	-1E+10	1
4902551	60	C	04/08/2022	20:03	-131.784	49.866	0	857.80	0	3.4510	0	34.2860	0	27.279	0	848.702	0	13.9	4	4.3	4	-1E+10	1	-1E+10	1	-1E+10	1	-1E+10	1	-1E+10	1	-1E+10	1
4902551	60	C	04/08/2022	20:03	-131.784	49.866	0	862.80	0	3.4480	0	34.2860	0	27.279	0	853.639	0	13.8	4	4.3	4	-1E+10	1	-1E+10	1	-1E+10	1	-1E+10	1	-1E+10	1	-1E+10	1
4902551	60	C	04/08/2022	20:03	-131.784	49.866	0	867.60	0	3.4450	0	34.2870	0	27.280	0	858.378	0	13.7	4	4.3	4	-1E+10	1	-1E+10	1	-1E+10	1	-1E+10	1	-1E+10	1	-1E+10	1
4902551	60	C	04/08/2022	20:03	-131.784	49.866	0	872.70	0	3.4320	0	34.2900	0	27.284	0	863.413	0	13.6	4	4.2	4	-1E+10	1	-1E+10	1	-1E+10	1	-1E+10	1	-1E+10	1	-1E+10	1
4902551	60	C	04/08/2022	20:03	-131.784	49.866	0	877.80	0	3.4220	0	34.2930	0	27.287	0	868.448	0	13.5	4	4.2	4	-1E+10	1	-1E+10	1	-1E+10	1	-1E+10	1	-1E+10	1	-1E+10	1
4902551	60	C	04/08/2022	20:03	-131.784	49.866	0	883.10	0	3.4120	0	34.2960	0	27.291	0	873.681	0	13.4	4	4.2	4	-1E+10	1	-1E+10	1	-1E+10	1	-1E+10	1	-1E+10	1	-1E+10	1
4902551	60	C	04/08/2022	20:03	-131.784	49.866	0	888.10	0	3.3960	0	34.2990	0	27.295	0	878.617	0	13.3	4	4.2	4	-1E+10	1	-1E+10	1	-1E+10	1	-1E+10	1	-1E+10	1	-1E+10	1
4902551	60	C	04/08/2022	20:03	-131.784	49.866	0	892.70	0	3.3830	0	34.3010	0	27.297	0	883.158	0	13.2	4	4.1	4	-1E+10	1	-1E+10	1	-1E+10	1	-1E+10	1	-1E+10	1	-1E+10	1
4902551	60	C	04/08/2022	20:03	-131.784	49.866	0	897.70	0	3.3700	0	34.3050	0	27.302	0	888.094	0	13.0	4	4.1	4	-1E+10	1	-1E+10	1	-1E+10	1	-1E+10	1	-1E+10	1	-1E+10	1
4902551	60	C	04/08/2022	20:03	-131.784	49.866	0	902.90	0	3.3670	0	34.3070	0	27.304	0	893.227	0	12.8	4	4.0	4	-1E+10	1	-1E+10	1	-1E+10	1	-1E+10	1	-1E+10	1	-1E+10	1
4902551	60	C	04/08/2022	20:03	-131.784	49.866	0	907.70	0	3.3570	0	34.3110	0	27.308	0	897.965	0	12.6	4	3.9	4	-1E+10	1	-1E+10	1	-1E+10	1	-1E+10	1	-1E+10	1	-1E+10	1
4902551	60	C	04/08/2022	20:03	-131.784	49.866	0	912.70	0	3.3420	0	34.3150	0	27.313	0	902.901	0	12.5	4	3.9	4	-1E+10	1	-1E+10	1	-1E+10	1	-1E+10	1	-1E+10	1	-1E+10	1
4902551	60	C	04/08/2022	20:03	-131.784	49.866	0	917.70	0	3.3350	0	34.3180	0	27.316	0	907.836	0	12.4	4	3.9	4	-1E+10	1	-1E+10	1	-1E+10	1	-1E+10	1	-1E+10	1	-1E+10	1
4902551	60	C	04/08/2022	20:03	-131.784	49.866	0	922.80	0	3.3140	0	34.3210	0	27.320	0	912.871	0	12.4	4	3.8	4	-1E+10	1	-1E+10	1	-1E+10	1	-1E+10	1	-1E+10	1	-1E+10	1
4902551	60	C	04/08/2022	20:03	-131.784	49.866	0	927.90	0	3.2980	0	34.3260	0	27.326	0	917.905	0	12.3	4	3.8	4	-1E+10	1	-1E+10	1	-1E+10	1	-1E+10	1	-1E+10	1	-1E+10	1
4902551	60	C	04/08/2022	20:03	-131.784	49.866	0	933.00	0	3.2950	0	34.3270	0	27.327	0	922.938	0	12.2	4	3.8	4	-1E+10	1	-1E+10	1	-1E+10	1	-1E+10	1	-1E+10	1	-1E+10	1
4902551	60	C	04/08/2022	20:03	-131.784	49.866	0	938.10	0	3.2850	0	34.3290	0	27.329	0	927.972	0	12.1	4	3.8	4	-1E+10	1	-1E+10	1	-1E+10	1	-1E+10	1	-1E+10	1	-1E+10	1
4902551	60	C	04/08/2022	20:03	-131.784	49.866	0	943.20	0	3.2800	0	34.3310	0	27.331	0	933.006	0	11.9	4	3.7	4	-1E+10	1	-1E+10	1	-1E+10	1	-1E+10	1	-1E+10	1	-1E+10	1
4902551	60	C	04/08/2022	20:03	-131.784	49.866	0	947.80	0	3.2740	0	34.3340	0	27.334	0	937.546	0	11.8	4	3.7	4	-1E+10	1	-1E+10	1	-1E+10	1	-1E+10	1	-1E+10	1	-1E+10	1
4902551	60	C	04/08/2022	20:03	-131.784	49.866	0	952.50	0	3.2630	0	34.3370	0	27.338	0	942.184	0	11.8	4	3.7	4	-1E+10	1	-1E+10	1	-1E+10	1	-1E+10	1	-1E+10	1	-1E+10	1
4902551	60	C	04/08/2022	20:03	-131.784	49.866	0	957.80	0	3.2590	0	34.3380	0	27.339	0	947.415	0	11.8	4	3.7	4	-1E+10	1	-1E+10	1	-1E+10	1	-1E+10	1	-1E+10	1	-1E+10	1
4902551	60	C	04/08/2022	20:03	-131.784	49.866	0	962.90	0	3.2520	0	34.3400	0	27.341	0	952.448	0	11.8	4	3.7	4	-1E+10	1	-1E+10	1	-1E+10	1	-1E+10	1	-1E+10	1	-1E+10	1
4902551	60	C	04/08/2022	20:03	-131.784	49.866	0	968.00	0	3.2420	0	34.3420	0	27.344	0	957.481	0	11.7	4	3.6	4	-1E+10	1	-1E+10	1	-1E+10	1	-1E+10	1	-1E+10	1	-1E+10	1
4902551	60	C	04/08/2022	20:03	-131.784	49.866	0	973.20	0	3.2330	0	34.3440	0	27.346	0	962.612	0	11.7	4	3.6	4	-1E+10	1	-1E+10	1	-1E+10	1	-1E+10	1	-1E+10	1	-1E+10	1
4902551	60	C	04/08/2022	20:03	-131.784	49.866	0	978.00	0	3.2180	0	34.3480	0	27.351	0	967.349	0	11.7	4	3.6	4	-1E+10	1	-1E+10	1	-1E+10	1	-1E+10	1	-1E+10	1	-1E+10	1
4902551	60	C	04/08/2022	20:03	-131.784	49.866	0	982.80	0	3.2020	0	34.3500	0	27.354	0	972.086	0	11.7	4	3.6	4	-1E+10	1	-1E+10	1	-1E+10	1	-1E+10	1	-1E+10	1	-1E+10	1
4902551	60	C	04/08/2022	20:03	-131.784	49.866	0	987.70	0	3.1790	0	34.3550	0	27.360	0	976.921	0	11.8	4	3.6	4	-1E+10	1	-1E+10	1	-1E+10	1	-1E+10	1	-1E+10	1	-1E+10	1
4902551	60	C	04/08/2022	20:03	-131.784	49.866	0	992.50	0	3.1750	0	34.3560	0	27.361	0	981.657	0	11.8	4	3.7	4	-1E+10	1	-1E+10	1	-1E+10	1	-1E+10	1	-1E+10	1	-1E+10	1
4902551	60	C	04/08/2022	20:03	-131.784	49.866	0	997.60	0	3.1700	0	34.3570	0	27.363	0	986.690	0	11.8	4	3.7	4	-1E+10	1	-1E+10	1	-1E+10	1	-1E+10	1	-1E+10	1	-1E+10	1
4902551	60	C	04/08/2022	20:03	-131.784	49.866	0	1005.10	0	3.1620	0	34.3580	0	27.364	0	994.090	0	11.8	4	3.7	4	-1E+10	1	-1E+10	1	-1E+10	1	-1E+10	1	-1E+10	1	-1E+10	1
4902551	60	C	04/08/2022	20:03	-131.784	49.866	0	1015.20	0	3.1440	0	34.3630	0	27.370	0	1004.055	0	11.8	4	3.6	4	-1E+10	1	-1E+10	1	-1E+10	1	-1E+10	1	-1E+10	1	-1E+10	1
4902551	60	C	04/08/2022	20:03	-131.784	49.866	0	1025.50	0	3.1210	0	34.3670	0	27.375	0	1014.217	0	11.8	4	3.7	4	-1E+10	1	-1E+10	1	-1E+10	1	-1E+10	1	-1E+10	1	-1E+10	1
4902551	60	C	04/08/2022	20:03	-131.784	49.866	0	1035.60	0	3.1090	0	34.3700	0	27.379	0	1024.181	0	11.8	4	3.7	4	-1E+10	1	-1E+10	1	-1E+10	1	-1E+10	1	-1E+10	1	-1E+10	1
4902551	60	C	04/08/2022	20:03	-131.784	49.866	0	1045.60	0	3.0920	0	34.3730	0	27.383	0	1034.046	0	11.9	4	3.7	4	-1E+10	1	-1E+10	1	-1E+10	1	-1E+10	1	-1E+10	1	-1E+10	1
4902551	60	C	04/08/2022	20:03	-131.784	49.866	0	1055.30	0	3.0840	0	34.3750	0	27.385	0	1043.615	0	11.9	4	3.7	4	-1E+10	1	-1E+10	1	-1E+10	1	-1E+10	1	-1E+10	1	-1E+10	1
4902551	60	C	04/08/2022	20:03	-131.784	49.866	0	1065.20	0	3.0740	0	34.3770	0	27.388	0	1053.380	0	11.9	4	3.7	4	-1E+10	1	-1E+10	1	-1E+10	1	-1E+10	1	-1E+10	1	-1E+10	1
4902551	60	C	04/08/2022	20:03	-131.784	49.866	0	1075.10	0	3.0600	0	34.3800	0	27.391	0	1063.146	0	12.0	4	3.7	4	-1E+10	1	-1E+10	1	-1E+10	1	-1E+10	1	-1E+10	1	-1E+10	1
4902551	60	C	04/08/2022	20:03	-131.784	49.866	0	1085.30	0	3.0420	0	34.3840	0	27.396	0	1073.206	0	12.1	4	3.7	4	-1E+10	1	-1E+10	1	-1E+10	1	-1E+10	1	-1E+10	1	-1E+10	1
4902551	60	C	04/08/2022	20:03	-131.784	49.866	0	1095.50	0	3.0250	0	34.3870	0	27.400	0	1083.266	0	12.2	4	3.8	4	-1E+10	1	-1E+10	1	-1E+10	1	-1E+10	1	-1E+10	1	-1E+10	1
4902551	60	C	04/08/2022	20:03	-131.784	49.866	0	1105.30	0	3.0080	0	34.3900	0	27.404	0	1092.931	0	12.3	4	3.8	4	-1E+10	1	-1E+10	1	-1E+10	1	-1E+10	1	-1E+10	1	-1E+10	1
4902551	60	C	04/08/2022	20:03	-131.784	49.866	0	1115.40	0	2.9790	0	34.3950	0	27.411	0	1102.892	0	12.6	4	3.9	4	-1E+10	1	-1E+10	1	-1E+10	1	-1E+10	1	-1E+10	1	-1E+10	1
4902551	60	C	04/08/2022	20:03	-131.784	49.866	0	1125.60	0	2.9490	0	34.4000	0	27.418	0	1112.950	0	12.8	4	3.9	4	-1E+10	1	-1E+10	1	-1E+10	1	-1E+10	1	-1E+10	1	-1E+10	1
4902551	60	C	04/08/2022	20:03	-131.784	49.866	0	1135.40	0	2.9400	0	34.4020	0	27.420	0	1122.614	0	12.9	4	4.0	4	-1E+10	1	-1E+10	1	-1E+10	1	-1E+10	1	-1E+10	1	-1E+10	1
4902551	60	C	04/08/2022	20:03	-131.784	49.866	0	1145.50	0	2.9250	0	34.4030	0	27.422	0	1132.573	0	13.0	4	4.0	4	-1E+10	1	-1E+10	1	-1E+10	1	-1E+10	1	-1E+10	1	-1E+10	1
4902551	60	C	04/08/2022	20:03	-131.784	49.866	0	1155.80	0	2.9060	0	34.4070	0	27.427	0	1142.729	0	13.1	4	4.0	4	-1E+10	1	-1E+10	1	-1E+10	1	-1E+10	1	-1E+10	1	-1E+10	1
4902551	60	C	04/08/2022	20:03	-131.784	49.866	0	1165.40	0	2.8950	0	34.4080	0	27.429	0	1152.194	0	13.1	4	4.0	4	-1E+10	1	-1E+10	1	-1E+10	1	-1E+10	1	-1E+10	1	-1E+10	1
4902551	60	C	04/08/2022	20:03	-131.784	49.866	0	1175.00	0	2.8820	0	34.4110	0	27.433	0	1161.659	0	13.2	4	4.1	4	-1E+10	1	-1E+10	1	-1E+10	1	-1E+10	1	-1E+10	1	-1E+10	1
4902551	60	C	04/08/2022	20:03	-131.784	49.866	0	1185.40	0	2.8690	0	34.4130	0	27.436	0	1171.912	0	13.4	4	4.1	4	-1E+10	1	-1E+10	1	-1E+10	1	-1E+10	1	-1E+10	1	-1E+10	1
4902551	60	C	04/08/2022	20:03	-131.784	49.866	0	1195.50	0	2.8580	0	34.4140	0	27.437	0	1181.868	0	13.7	4	4.2	4	-1E+10	1	-1E+10	1	-1E+10	1	-1E+10	1	-1E+10	1	-1E+10	1
4902551	60	C	04/08/2022	20:03	-131.784	49.866	0	1205.30	0	2.8350	0	34.4190	0	27.443	0	1191.529	0	14.0	4	4.3	4	-1E+10	1	-1E+10	1	-1E+10	1	-1E+10	1	-1E+10	1	-1E+10	1
4902551	60	C	04/08/2022	20:03	-131.784	49.866	0	1215.70	0	2.8210	0	34.4240	0	27.449	0	1201.780	0	14.3	4	4.4	4	-1E+10	1	-1E+10	1	-1E+10	1	-1E+10	1	-1E+10	1	-1E+10	1
4902551	60	C	04/08/2022	20:03	-131.784	49.866	0	1225.50	0	2.8110	0	34.4290	0	27.454	0	1211.440	0	14.7	4	4.5	4	-1E+10	1	-1E+10	1	-1E+10	1	-1E+10	1	-1E+10	1	-1E+10	1
4902551	60	C	04/08/2022	20:03	-131.784	49.866	0	1235.20	0	2.7850	0	34.4340	0	27.460	0	1221.000	0	15.0	4	4.6	4	-1E+10	1	-1E+10	1	-1E+10	1	-1E+10	1	-1E+10	1	-1E+10	1
4902551	60	C	04/08/2022	20:03	-131.784	49.866	0	1245.60	0	2.7620	0	34.4370	0	27.464	0	1231.250	0	15.4	4	4.7	4	-1E+10	1	-1E+10	1	-1E+10	1	-1E+10	1	-1E+10	1	-1E+10	1
4902551	60	C	04/08/2022	20:03	-131.784	49.866	0	1255.80	0	2.7450	0	34.4430	0	27.471	0	1241.303	0	15.8	4	4.8	4	-1E+10	1	-1E+10	1	-1E+10	1	-1E+10	1	-1E+10	1	-1E+10	1
4902551	60	C	04/08/2022	20:03	-131.784	49.866	0	1265.40	0	2.7110	0	34.4470	0	27.477	0	1250.764	0	16.1	4	4.9	4	-1E+10	1	-1E+10	1	-1E+10	1	-1E+10	1	-1E+10	1	-1E+10	1
4902551	60	C	04/08/2022	20:03	-131.784	49.866	0	1275.00	0	2.6900	0	34.4510	0	27.482	0	1260.224	0	16.4	4	5.0	4	-1E+10	1	-1E+10	1	-1E+10	1	-1E+10	1	-1E+10	1	-1E+10	1
4902551	60	C	04/08/2022	20:03	-131.784	49.866	0	1285.00	0	2.6700	0	34.4540	0	27.486	0	1270.078	0	16.6	4	5.1	4	-1E+10	1	-1E+10	1	-1E+10	1	-1E+10	1	-1E+10	1	-1E+10	1
4902551	60	C	04/08/2022	20:03	-131.784	49.866	0	1295.00	0	2.6450	0	34.4560	0	27.490	0	1279.931	0	16.7	4	5.1	4	-1E+10	1	-1E+10	1	-1E+10	1	-1E+10	1	-1E+10	1	-1E+10	1
4902551	60	C	04/08/2022	20:03	-131.784	49.866	0	1305.10	0	2.6220	0	34.4580	0	27.494	0	1289.883	0	17.0	4	5.2	4	-1E+10	1	-1E+10	1	-1E+10	1	-1E+10	1	-1E+10	1	-1E+10	1
4902551	60	C	04/08/2022	20:03	-131.784	49.866	0	1315.40	0	2.6000	0	34.4600	0	27.497	0	1300.031	0	17.2	4	5.3	4	-1E+10	1	-1E+10	1	-1E+10	1	-1E+10	1	-1E+10	1	-1E+10	1
4902551	60	C	04/08/2022	20:03	-131.784	49.866	0	1325.70	0	2.5850	0	34.4630	0	27.501	0	1310.178	0	17.6	4	5.4	4	-1E+10	1	-1E+10	1	-1E+10	1	-1E+10	1	-1E+10	1	-1E+10	1
4902551	60	C	04/08/2022	20:03	-131.784	49.866	0	1335.10	0	2.5680	0	34.4660	0	27.505	0	1319.439	0	17.9	4	5.5	4	-1E+10	1	-1E+10	1	-1E+10	1	-1E+10	1	-1E+10	1	-1E+10	1
4902551	60	C	04/08/2022	20:03	-131.784	49.866	0	1345.50	0	2.5590	0	34.4670	0	27.506	0	1329.684	0	18.2	4	5.6	4	-1E+10	1	-1E+10	1	-1E+10	1	-1E+10	1	-1E+10	1	-1E+10	1
4902551	60	C	04/08/2022	20:03	-131.784	49.866	0	1355.60	0	2.5550	0	34.4690	0	27.508	0	1339.633	0	18.5	4	5.7	4	-1E+10	1	-1E+10	1	-1E+10	1	-1E+10	1	-1E+10	1	-1E+10	1
4902551	60	C	04/08/2022	20:03	-131.784	49.866	0	1365.50	0	2.5420	0	34.4710	0	27.511	0	1349.385	0	18.9	4	5.8	4	-1E+10	1	-1E+10	1	-1E+10	1	-1E+10	1	-1E+10	1	-1E+10	1
4902551	60	C	04/08/2022	20:03	-131.784	49.866	0	1375.30	0	2.5340	0	34.4730	0	27.513	0	1359.038	0	19.4	4	5.9	4	-1E+10	1	-1E+10	1	-1E+10	1	-1E+10	1	-1E+10	1	-1E+10	1
4902551	60	C	04/08/2022	20:03	-131.784	49.866	0	1385.30	0	2.5100	0	34.4780	0	27.520	0	1368.887	0	20.0	4	6.1	4	-1E+10	1	-1E+10	1	-1E+10	1	-1E+10	1	-1E+10	1	-1E+10	1
4902551	60	C	04/08/2022	20:03	-131.784	49.866	0	1395.60	0	2.4960	0	34.4800	0	27.522	0	1379.032	0	20.5	4	6.2	4	-1E+10	1	-1E+10	1	-1E+10	1	-1E+10	1	-1E+10	1	-1E+10	1
4902551	60	C	04/08/2022	20:03	-131.784	49.866	0	1405.70	0	2.4870	0	34.4820	0	27.525	0	1388.978	0	21.0	4	6.4	4	-1E+10	1	-1E+10	1	-1E+10	1	-1E+10	1	-1E+10	1	-1E+10	1
4902551	60	C	04/08/2022	20:03	-131.784	49.866	0	1415.50	0	2.4710	0	34.4850	0	27.529	0	1398.630	0	21.5	4	6.5	4	-1E+10	1	-1E+10	1	-1E+10	1	-1E+10	1	-1E+10	1	-1E+10	1
4902551	60	C	04/08/2022	20:03	-131.784	49.866	0	1425.60	0	2.4590	0	34.4880	0	27.532	0	1408.575	0	21.9	4	6.7	4	-1E+10	1	-1E+10	1	-1E+10	1	-1E+10	1	-1E+10	1	-1E+10	1
4902551	60	C	04/08/2022	20:03	-131.784	49.866	0	1435.30	0	2.4500	0	34.4890	0	27.534	0	1418.127	0	22.3	4	6.8	4	-1E+10	1	-1E+10	1	-1E+10	1	-1E+10	1	-1E+10	1	-1E+10	1
4902551	60	C	04/08/2022	20:03	-131.784	49.866	0	1445.40	0	2.4400	0	34.4910	0	27.536	0	1428.072	0	22.7	4	6.9	4	-1E+10	1	-1E+10	1	-1E+10	1	-1E+10	1	-1E+10	1	-1E+10	1
4902551	60	C	04/08/2022	20:03	-131.784	49.866	0	1455.40	0	2.4330	0	34.4930	0	27.538	0	1437.918	0	23.3	4	7.1	4	-1E+10	1	-1E+10	1	-1E+10	1	-1E+10	1	-1E+10	1	-1E+10	1
4902551	60	C	04/08/2022	20:03	-131.784	49.866	0	1465.10	0	2.4230	0	34.4960	0	27.542	0	1447.468	0	23.7	4	7.2	4	-1E+10	1	-1E+10	1	-1E+10	1	-1E+10	1	-1E+10	1	-1E+10	1
4902551	60	C	04/08/2022	20:03	-131.784	49.866	0	1475.30	0	2.4150	0	34.4970	0	27.543	0	1457.511	0	23.9	4	7.3	4	-1E+10	1	-1E+10	1	-1E+10	1	-1E+10	1	-1E+10	1	-1E+10	1
4902551	60	C	04/08/2022	20:03	-131.784	49.866	0	1485.50	0	2.4040	0	34.4980	0	27.545	0	1467.552	0	24.2	4	7.4	4	-1E+10	1	-1E+10	1	-1E+10	1	-1E+10	1	-1E+10	1	-1E+10	1
4902551	60	C	04/08/2022	20:03	-131.784	49.866	0	1495.30	0	2.3940	0	34.5000	0	27.547	0	1477.200	0	24.5	4	7.5	4	-1E+10	1	-1E+10	1	-1E+10	1	-1E+10	1	-1E+10	1	-1E+10	1
4902551	60	C	04/08/2022	20:03	-131.784	49.866	0	1505.30	0	2.3870	0	34.5010	0	27.549	0	1487.043	0	25.0	4	7.6	4	-1E+10	1	-1E+10	1	-1E+10	1	-1E+10	1	-1E+10	1	-1E+10	1
4902551	60	C	04/08/2022	20:03	-131.784	49.866	0	1515.60	0	2.3750	0	34.5030	0	27.552	0	1497.182	0	25.9	4	7.9	4	-1E+10	1	-1E+10	1	-1E+10	1	-1E+10	1	-1E+10	1	-1E+10	1
4902551	60	C	04/08/2022	20:03	-131.784	49.866	0	1525.50	0	2.3600	0	34.5070	0	27.556	0	1506.926	0	26.6	4	8.1	4	-1E+10	1	-1E+10	1	-1E+10	1	-1E+10	1	-1E+10	1	-1E+10	1
4902551	60	C	04/08/2022	20:03	-131.784	49.866	0	1535.20	0	2.3490	0	34.5090	0	27.559	0	1516.473	0	27.3	4	8.3	4	-1E+10	1	-1E+10	1	-1E+10	1	-1E+10	1	-1E+10	1	-1E+10	1
4902551	60	C	04/08/2022	20:03	-131.784	49.866	0	1545.20	0	2.3380	0	34.5110	0	27.561	0	1526.315	0	27.8	4	8.5	4	-1E+10	1	-1E+10	1	-1E+10	1	-1E+10	1	-1E+10	1	-1E+10	1
4902551	60	C	04/08/2022	20:03	-131.784	49.866	0	1555.20	0	2.3260	0	34.5140	0	27.565	0	1536.157	0	28.4	4	8.6	4	-1E+10	1	-1E+10	1	-1E+10	1	-1E+10	1	-1E+10	1	-1E+10	1
4902551	60	C	04/08/2022	20:03	-131.784	49.866	0	1565.40	0	2.3110	0	34.5160	0	27.567	0	1546.195	0	29.0	4	8.8	4	-1E+10	1	-1E+10	1	-1E+10	1	-1E+10	1	-1E+10	1	-1E+10	1
4902551	60	C	04/08/2022	20:03	-131.784	49.866	0	1575.30	0	2.2990	0	34.5180	0	27.570	0	1555.937	0	29.1	4	8.8	4	-1E+10	1	-1E+10	1	-1E+10	1	-1E+10	1	-1E+10	1	-1E+10	1
4902551	60	C	04/08/2022	20:03	-131.784	49.866	0	1585.40	0	2.2750	0	34.5190	0	27.573	0	1565.875	0	29.1	4	8.8	4	-1E+10	1	-1E+10	1	-1E+10	1	-1E+10	1	-1E+10	1	-1E+10	1
4902551	60	C	04/08/2022	20:03	-131.784	49.866	0	1595.60	0	2.2610	0	34.5200	0	27.575	0	1575.912	0	30.0	4	9.1	4	-1E+10	1	-1E+10	1	-1E+10	1	-1E+10	1	-1E+10	1	-1E+10	1
4902551	60	C	04/08/2022	20:03	-131.784	49.866	0	1605.50	0	2.2380	0	34.5240	0	27.580	0	1585.653	0	31.0	4	9.4	4	-1E+10	1	-1E+10	1	-1E+10	1	-1E+10	1	-1E+10	1	-1E+10	1
4902551	60	C	04/08/2022	20:03	-131.784	49.866	0	1615.40	0	2.2300	0	34.5260	0	27.582	0	1595.393	0	31.6	4	9.6	4	-1E+10	1	-1E+10	1	-1E+10	1	-1E+10	1	-1E+10	1	-1E+10	1
4902551	60	C	04/08/2022	20:03	-131.784	49.866	0	1625.00	0	2.2200	0	34.5280	0	27.585	0	1604.838	0	32.2	4	9.7	4	-1E+10	1	-1E+10	1	-1E+10	1	-1E+10	1	-1E+10	1	-1E+10	1
4902551	60	C	04/08/2022	20:03	-131.784	49.866	0	1635.10	0	2.2130	0	34.5290	0	27.586	0	1614.774	0	32.6	4	9.9	4	-1E+10	1	-1E+10	1	-1E+10	1	-1E+10	1	-1E+10	1	-1E+10	1
4902551	60	C	04/08/2022	20:03	-131.784	49.866	0	1645.60	0	2.2070	0	34.5310	0	27.588	0	1625.103	0	33.1	4	10.0	4	-1E+10	1	-1E+10	1	-1E+10	1	-1E+10	1	-1E+10	1	-1E+10	1
4902551	60	C	04/08/2022	20:03	-131.784	49.866	0	1655.30	0	2.2000	0	34.5320	0	27.590	0	1634.645	0	33.7	4	10.2	4	-1E+10	1	-1E+10	1	-1E+10	1	-1E+10	1	-1E+10	1	-1E+10	1
4902551	60	C	04/08/2022	20:03	-131.784	49.866	0	1665.10	0	2.1930	0	34.5340	0	27.592	0	1644.285	0	34.4	4	10.4	4	-1E+10	1	-1E+10	1	-1E+10	1	-1E+10	1	-1E+10	1	-1E+10	1
4902551	60	C	04/08/2022	20:03	-131.784	49.866	0	1675.30	0	2.1880	0	34.5360	0	27.594	0	1654.317	0	34.8	4	10.5	4	-1E+10	1	-1E+10	1	-1E+10	1	-1E+10	1	-1E+10	1	-1E+10	1
4902551	60	C	04/08/2022	20:03	-131.784	49.866	0	1685.40	0	2.1830	0	34.5360	0	27.594	0	1664.251	0	35.0	4	10.6	4	-1E+10	1	-1E+10	1	-1E+10	1	-1E+10	1	-1E+10	1	-1E+10	1
4902551	60	C	04/08/2022	20:03	-131.784	49.866	0	1695.30	0	2.1720	0	34.5370	0	27.596	0	1673.988	0	35.7	4	10.8	4	-1E+10	1	-1E+10	1	-1E+10	1	-1E+10	1	-1E+10	1	-1E+10	1
4902551	60	C	04/08/2022	20:03	-131.784	49.866	0	1705.20	0	2.1600	0	34.5410	0	27.600	0	1683.724	0	36.6	4	11.1	4	-1E+10	1	-1E+10	1	-1E+10	1	-1E+10	1	-1E+10	1	-1E+10	1
4902551	60	C	04/08/2022	20:03	-131.784	49.866	0	1715.10	0	2.1530	0	34.5420	0	27.602	0	1693.460	0	36.9	4	11.2	4	-1E+10	1	-1E+10	1	-1E+10	1	-1E+10	1	-1E+10	1	-1E+10	1
4902551	60	C	04/08/2022	20:03	-131.784	49.866	0	1725.30	0	2.1490	0	34.5430	0	27.603	0	1703.490	0	37.3	4	11.3	4	-1E+10	1	-1E+10	1	-1E+10	1	-1E+10	1	-1E+10	1	-1E+10	1
4902551	60	C	04/08/2022	20:03	-131.784	49.866	0	1735.40	0	2.1410	0	34.5440	0	27.604	0	1713.422	0	37.8	4	11.4	4	-1E+10	1	-1E+10	1	-1E+10	1	-1E+10	1	-1E+10	1	-1E+10	1
4902551	60	C	04/08/2022	20:03	-131.784	49.866	0	1745.20	0	2.1360	0	34.5450	0	27.606	0	1723.058	0	38.4	4	11.6	4	-1E+10	1	-1E+10	1	-1E+10	1	-1E+10	1	-1E+10	1	-1E+10	1
4902551	60	C	04/08/2022	20:03	-131.784	49.866	0	1755.10	0	2.1310	0	34.5460	0	27.607	0	1732.792	0	39.0	4	11.8	4	-1E+10	1	-1E+10	1	-1E+10	1	-1E+10	1	-1E+10	1	-1E+10	1
4902551	60	C	04/08/2022	20:03	-131.784	49.866	0	1765.10	0	2.1240	0	34.5480	0	27.609	0	1742.624	0	39.8	4	12.0	4	-1E+10	1	-1E+10	1	-1E+10	1	-1E+10	1	-1E+10	1	-1E+10	1
4902551	60	C	04/08/2022	20:03	-131.784	49.866	0	1775.00	0	2.1120	0	34.5500	0	27.612	0	1752.357	0	40.6	4	12.3	4	-1E+10	1	-1E+10	1	-1E+10	1	-1E+10	1	-1E+10	1	-1E+10	1
4902551	60	C	04/08/2022	20:03	-131.784	49.866	0	1785.40	0	2.1030	0	34.5520	0	27.614	0	1762.581	0	41.3	4	12.5	4	-1E+10	1	-1E+10	1	-1E+10	1	-1E+10	1	-1E+10	1	-1E+10	1
4902551	60	C	04/08/2022	20:03	-131.784	49.866	0	1795.40	0	2.0930	0	34.5540	0	27.617	0	1772.412	0	42.2	4	12.7	4	-1E+10	1	-1E+10	1	-1E+10	1	-1E+10	1	-1E+10	1	-1E+10	1
4902551	60	C	04/08/2022	20:03	-131.784	49.866	0	1805.00	0	2.0850	0	34.5550	0	27.618	0	1781.849	0	42.9	4	13.0	4	-1E+10	1	-1E+10	1	-1E+10	1	-1E+10	1	-1E+10	1	-1E+10	1
4902551	60	C	04/08/2022	20:03	-131.784	49.866	0	1815.00	0	2.0730	0	34.5580	0	27.621	0	1791.678	0	44.0	4	13.3	4	-1E+10	1	-1E+10	1	-1E+10	1	-1E+10	1	-1E+10	1	-1E+10	1
4902551	60	C	04/08/2022	20:03	-131.784	49.866	0	1825.40	0	2.0560	0	34.5610	0	27.625	0	1801.901	0	45.0	4	13.6	4	-1E+10	1	-1E+10	1	-1E+10	1	-1E+10	1	-1E+10	1	-1E+10	1
4902551	60	C	04/08/2022	20:03	-131.784	49.866	0	1835.40	0	2.0430	0	34.5630	0	27.628	0	1811.729	0	45.5	4	13.7	4	-1E+10	1	-1E+10	1	-1E+10	1	-1E+10	1	-1E+10	1	-1E+10	1
4902551	60	C	04/08/2022	20:03	-131.784	49.866	0	1845.10	0	2.0410	0	34.5640	0	27.629	0	1821.263	0	45.8	4	13.8	4	-1E+10	1	-1E+10	1	-1E+10	1	-1E+10	1	-1E+10	1	-1E+10	1
4902551	60	C	04/08/2022	20:03	-131.784	49.866	0	1855.50	0	2.0350	0	34.5650	0	27.630	0	1831.483	0	46.2	4	13.9	4	-1E+10	1	-1E+10	1	-1E+10	1	-1E+10	1	-1E+10	1	-1E+10	1
4902551	60	C	04/08/2022	20:03	-131.784	49.866	0	1865.70	0	2.0290	0	34.5660	0	27.632	0	1841.507	0	46.7	4	14.1	4	-1E+10	1	-1E+10	1	-1E+10	1	-1E+10	1	-1E+10	1	-1E+10	1
4902551	60	C	04/08/2022	20:03	-131.784	49.866	0	1875.50	0	2.0240	0	34.5670	0	27.633	0	1851.138	0	47.2	4	14.2	4	-1E+10	1	-1E+10	1	-1E+10	1	-1E+10	1	-1E+10	1	-1E+10	1
4902551	60	C	04/08/2022	20:03	-131.784	49.866	0	1885.50	0	2.0160	0	34.5680	0	27.634	0	1860.964	0	47.7	4	14.4	4	-1E+10	1	-1E+10	1	-1E+10	1	-1E+10	1	-1E+10	1	-1E+10	1
4902551	60	C	04/08/2022	20:03	-131.784	49.866	0	1895.60	0	2.0040	0	34.5700	0	27.637	0	1870.888	0	48.3	4	14.5	4	-1E+10	1	-1E+10	1	-1E+10	1	-1E+10	1	-1E+10	1	-1E+10	1
4902551	60	C	04/08/2022	20:03	-131.784	49.866	0	1905.40	0	2.0000	0	34.5710	0	27.638	0	1880.517	0	48.9	4	14.7	4	-1E+10	1	-1E+10	1	-1E+10	1	-1E+10	1	-1E+10	1	-1E+10	1
4902551	60	C	04/08/2022	20:03	-131.784	49.866	0	1915.40	0	1.9970	0	34.5720	0	27.639	0	1890.342	0	49.6	4	15.0	4	-1E+10	1	-1E+10	1	-1E+10	1	-1E+10	1	-1E+10	1	-1E+10	1
4902551	60	C	04/08/2022	20:03	-131.784	49.866	0	1925.50	0	1.9940	0	34.5730	0	27.640	0	1900.265	0	50.0	4	15.1	4	-1E+10	1	-1E+10	1	-1E+10	1	-1E+10	1	-1E+10	1	-1E+10	1
4902551	60	C	04/08/2022	20:03	-131.784	49.866	0	1935.60	0	1.9900	0	34.5740	0	27.641	0	1910.187	0	50.4	4	15.2	4	-1E+10	1	-1E+10	1	-1E+10	1	-1E+10	1	-1E+10	1	-1E+10	1
4902551	60	C	04/08/2022	20:03	-131.784	49.866	0	1945.40	0	1.9790	0	34.5750	0	27.643	0	1919.814	0	51.1	4	15.4	4	-1E+10	1	-1E+10	1	-1E+10	1	-1E+10	1	-1E+10	1	-1E+10	1
4902551	60	C	04/08/2022	20:03	-131.784	49.866	0	1955.40	0	1.9730	0	34.5770	0	27.645	0	1929.638	0	51.4	4	15.5	4	-1E+10	1	-1E+10	1	-1E+10	1	-1E+10	1	-1E+10	1	-1E+10	1
4902551	60	C	04/08/2022	20:03	-131.784	49.866	0	1965.10	0	1.9650	0	34.5780	0	27.647	0	1939.166	0	51.8	4	15.6	4	-1E+10	1	-1E+10	1	-1E+10	1	-1E+10	1	-1E+10	1	-1E+10	1
4902551	60	C	04/08/2022	20:03	-131.784	49.866	0	1976.00	0	1.9590	0	34.5790	0	27.648	0	1949.872	0	51.8	4	15.6	4	-1E+10	1	-1E+10	1	-1E+10	1	-1E+10	1	-1E+10	1	-1E+10	1
4902551	60	C	04/08/2022	20:03	-131.784	49.866	0																										
4902551	61	C	04/19/2022	00:45	-131.687	49.834	0	3.40	0	7.5960	0	32.0550	0	25.019	0	3.371	0	278.6	4	94.2	4	-1E+10	1	-1E+10	1	-1E+10	1	-1E+10	1	-1E+10	1	-1E+10	1
4902551	61	C	04/19/2022	00:45	-131.687	49.834	0	4.20	0	7.5950	0	32.0560	0	25.020	0	4.164	0	278.5	4	94.1	4	-1E+10	1	-1E+10	1	-1E+10	1	-1E+10	1	-1E+10	1	-1E+10	1
4902551	61	C	04/19/2022	00:45	-131.687	49.834	0	4.90	0	7.5930	0	32.0580	0	25.022	0	4.858	0	278.4	4	94.1	4	-1E+10	1	-1E+10	1	-1E+10	1	-1E+10	1	-1E+10	1	-1E+10	1
4902551	61	C	04/19/2022	00:45	-131.687	49.834	0	6.00	0	7.5930	0	32.0580	0	25.022	0	5.949	0	278.3	4	94.1	4	-1E+10	1	-1E+10	1	-1E+10	1	-1E+10	1	-1E+10	1	-1E+10	1
4902551	61	C	04/19/2022	00:45	-131.687	49.834	0	7.00	0	7.5930	0	32.0580	0	25.022	0	6.940	0	278.2	4	94.0	4	-1E+10	1	-1E+10	1	-1E+10	1	-1E+10	1	-1E+10	1	-1E+10	1
4902551	61	C	04/19/2022	00:45	-131.687	49.834	0	8.10	0	7.5930	0	32.0580	0	25.022	0	8.031	0	278.1	4	94.0	4	-1E+10	1	-1E+10	1	-1E+10	1	-1E+10	1	-1E+10	1	-1E+10	1
4902551	61	C	04/19/2022	00:45	-131.687	49.834	0	9.00	0	7.5930	0	32.0580	0	25.022	0	8.923	0	278.0	4	94.0	4	-1E+10	1	-1E+10	1	-1E+10	1	-1E+10	1	-1E+10	1	-1E+10	1
4902551	61	C	04/19/2022	00:45	-131.687	49.834	0	9.90	0	7.5930	0	32.0580	0	25.022	0	9.815	0	278.0	4	94.0	4	-1E+10	1	-1E+10	1	-1E+10	1	-1E+10	1	-1E+10	1	-1E+10	1
4902551	61	C	04/19/2022	00:45	-131.687	49.834	0	10.90	0	7.5930	0	32.0580	0	25.022	0	10.806	0	277.9	4	93.9	4	-1E+10	1	-1E+10	1	-1E+10	1	-1E+10	1	-1E+10	1	-1E+10	1
4902551	61	C	04/19/2022	00:45	-131.687	49.834	0	11.80	0	7.5930	0	32.0580	0	25.022	0	11.699	0	277.8	4	93.9	4	-1E+10	1	-1E+10	1	-1E+10	1	-1E+10	1	-1E+10	1	-1E+10	1
4902551	61	C	04/19/2022	00:45	-131.687	49.834	0	12.00	0	7.5930	0	32.0580	0	25.022	0	11.897	0	-1e10	1	-1e10	1	-1E+10	1	-1E+10	1	-1E+10	1	-1E+10	1	-1E+10	1	-1E+10	1
4902551	61	C	04/19/2022	00:45	-131.687	49.834	0	12.20	0	7.5930	0	32.0580	0	25.022	0	12.095	0	-1e10	1	-1e10	1	-1E+10	1	-1E+10	1	-1E+10	1	-1E+10	1	-1E+10	1	-1E+10	1
4902551	61	C	04/19/2022	00:45	-131.687	49.834	0	13.00	0	7.5930	0	32.0580	0	25.022	0	12.888	0	277.8	4	93.9	4	-1E+10	1	-1E+10	1	-1E+10	1	-1E+10	1	-1E+10	1	-1E+10	1
4902551	61	C	04/19/2022	00:45	-131.687	49.834	0	14.10	0	7.5930	0	32.0580	0	25.022	0	13.979	0	277.7	4	93.9	4	-1E+10	1	-1E+10	1	-1E+10	1	-1E+10	1	-1E+10	1	-1E+10	1
4902551	61	C	04/19/2022	00:45	-131.687	49.834	0	15.00	0	7.5930	0	32.0580	0	25.022	0	14.871	0	277.6	4	93.8	4	-1E+10	1	-1E+10	1	-1E+10	1	-1E+10	1	-1E+10	1	-1E+10	1
4902551	61	C	04/19/2022	00:45	-131.687	49.834	0	15.70	0	7.5930	0	32.0580	0	25.022	0	15.565	0	277.6	4	93.8	4	-1E+10	1	-1E+10	1	-1E+10	1	-1E+10	1	-1E+10	1	-1E+10	1
4902551	61	C	04/19/2022	00:45	-131.687	49.834	0	16.70	0	7.5930	0	32.0580	0	25.022	0	16.556	0	277.5	4	93.8	4	-1E+10	1	-1E+10	1	-1E+10	1	-1E+10	1	-1E+10	1	-1E+10	1
4902551	61	C	04/19/2022	00:45	-131.687	49.834	0	17.80	0	7.5930	0	32.0580	0	25.022	0	17.647	0	277.4	4	93.8	4	-1E+10	1	-1E+10	1	-1E+10	1	-1E+10	1	-1E+10	1	-1E+10	1
4902551	61	C	04/19/2022	00:45	-131.687	49.834	0	18.80	0	7.5930	0	32.0580	0	25.022	0	18.638	0	277.3	4	93.8	4	-1E+10	1	-1E+10	1	-1E+10	1	-1E+10	1	-1E+10	1	-1E+10	1
4902551	61	C	04/19/2022	00:45	-131.687	49.834	0	19.80	0	7.5930	0	32.0580	0	25.022	0	19.630	0	277.3	4	93.7	4	-1E+10	1	-1E+10	1	-1E+10	1	-1E+10	1	-1E+10	1	-1E+10	1
4902551	61	C	04/19/2022	00:45	-131.687	49.834	0	20.90	0	7.5930	0	32.0580	0	25.022	0	20.720	0	277.1	4	93.7	4	-1E+10	1	-1E+10	1	-1E+10	1	-1E+10	1	-1E+10	1	-1E+10	1
4902551	61	C	04/19/2022	00:45	-131.687	49.834	0	21.80	0	7.5930	0	32.0580	0	25.022	0	21.612	0	277.0	4	93.6	4	-1E+10	1	-1E+10	1	-1E+10	1	-1E+10	1	-1E+10	1	-1E+10	1
4902551	61	C	04/19/2022	00:45	-131.687	49.834	0	22.80	0	7.5930	0	32.0580	0	25.022	0	22.604	0	277.0	4	93.6	4	-1E+10	1	-1E+10	1	-1E+10	1	-1E+10	1	-1E+10	1	-1E+10	1
4902551	61	C	04/19/2022	00:45	-131.687	49.834	0	23.90	0	7.5930	0	32.0590	0	25.023	0	23.694	0	276.9	4	93.6	4	-1E+10	1	-1E+10	1	-1E+10	1	-1E+10	1	-1E+10	1	-1E+10	1
4902551	61	C	04/19/2022	00:45	-131.687	49.834	0	24.90	0	7.5940	0	32.0580	0	25.022	0	24.685	0	276.9	4	93.6	4	-1E+10	1	-1E+10	1	-1E+10	1	-1E+10	1	-1E+10	1	-1E+10	1
4902551	61	C	04/19/2022	00:45	-131.687	49.834	0	26.00	0	7.5940	0	32.0590	0	25.023	0	25.776	0	276.7	4	93.5	4	-1E+10	1	-1E+10	1	-1E+10	1	-1E+10	1	-1E+10	1	-1E+10	1
4902551	61	C	04/19/2022	00:45	-131.687	49.834	0	27.00	0	7.5940	0	32.0590	0	25.023	0	26.767	0	276.6	4	93.5	4	-1E+10	1	-1E+10	1	-1E+10	1	-1E+10	1	-1E+10	1	-1E+10	1
4902551	61	C	04/19/2022	00:45	-131.687	49.834	0	28.00	0	7.5940	0	32.0590	0	25.023	0	27.758	0	276.5	4	93.5	4	-1E+10	1	-1E+10	1	-1E+10	1	-1E+10	1	-1E+10	1	-1E+10	1
4902551	61	C	04/19/2022	00:45	-131.687	49.834	0	29.00	0	7.5940	0	32.0580	0	25.022	0	28.750	0	276.4	4	93.4	4	-1E+10	1	-1E+10	1	-1E+10	1	-1E+10	1	-1E+10	1	-1E+10	1
4902551	61	C	04/19/2022	00:45	-131.687	49.834	0	30.10	0	7.5940	0	32.0580	0	25.022	0	29.840	0	276.3	4	93.4	4	-1E+10	1	-1E+10	1	-1E+10	1	-1E+10	1	-1E+10	1	-1E+10	1
4902551	61	C	04/19/2022	00:45	-131.687	49.834	0	30.90	0	7.5940	0	32.0580	0	25.022	0	30.633	0	276.3	4	93.4	4	-1E+10	1	-1E+10	1	-1E+10	1	-1E+10	1	-1E+10	1	-1E+10	1
4902551	61	C	04/19/2022	00:45	-131.687	49.834	0	32.00	0	7.5940	0	32.0580	0	25.022	0	31.724	0	276.2	4	93.4	4	-1E+10	1	-1E+10	1	-1E+10	1	-1E+10	1	-1E+10	1	-1E+10	1
4902551	61	C	04/19/2022	00:45	-131.687	49.834	0	33.20	0	7.5940	0	32.0580	0	25.022	0	32.913	0	276.0	4	93.3	4	-1E+10	1	-1E+10	1	-1E+10	1	-1E+10	1	-1E+10	1	-1E+10	1
4902551	61	C	04/19/2022	00:45	-131.687	49.834	0	34.00	0	7.5950	0	32.0580	0	25.022	0	33.706	0	276.0	4	93.3	4	-1E+10	1	-1E+10	1	-1E+10	1	-1E+10	1	-1E+10	1	-1E+10	1
4902551	61	C	04/19/2022	00:45	-131.687	49.834	0	34.80	0	7.5950	0	32.0580	0	25.022	0	34.499	0	275.9	4	93.3	4	-1E+10	1	-1E+10	1	-1E+10	1	-1E+10	1	-1E+10	1	-1E+10	1
4902551	61	C	04/19/2022	00:45	-131.687	49.834	0	35.80	0	7.5950	0	32.0580	0	25.022	0	35.491	0	275.7	4	93.2	4	-1E+10	1	-1E+10	1	-1E+10	1	-1E+10	1	-1E+10	1	-1E+10	1
4902551	61	C	04/19/2022	00:45	-131.687	49.834	0	37.00	0	7.5950	0	32.0580	0	25.022	0	36.680	0	275.6	4	93.1	4	-1E+10	1	-1E+10	1	-1E+10	1	-1E+10	1	-1E+10	1	-1E+10	1
4902551	61	C	04/19/2022	00:45	-131.687	49.834	0	38.00	0	7.5950	0	32.0580	0	25.022	0	37.671	0	275.4	4	93.1	4	-1E+10	1	-1E+10	1	-1E+10	1	-1E+10	1	-1E+10	1	-1E+10	1
4902551	61	C	04/19/2022	00:45	-131.687	49.834	0	39.00	0	7.5950	0	32.0580	0	25.022	0	38.663	0	275.1	4	93.0	4	-1E+10	1	-1E+10	1	-1E+10	1	-1E+10	1	-1E+10	1	-1E+10	1
4902551	61	C	04/19/2022	00:45	-131.687	49.834	0	40.10	0	7.5950	0	32.0580	0	25.022	0	39.753	0	274.8	4	92.9	4	-1E+10	1	-1E+10	1	-1E+10	1	-1E+10	1	-1E+10	1	-1E+10	1
4902551	61	C	04/19/2022	00:45	-131.687	49.834	0	41.10	0	7.5960	0	32.0590	0	25.023	0	40.744	0	274.6	4	92.8	4	-1E+10	1	-1E+10	1	-1E+10	1	-1E+10	1	-1E+10	1	-1E+10	1
4902551	61	C	04/19/2022	00:45	-131.687	49.834	0	42.00	0	7.5960	0	32.0590	0	25.023	0	41.636	0	274.2	4	92.7	4	-1E+10	1	-1E+10	1	-1E+10	1	-1E+10	1	-1E+10	1	-1E+10	1
4902551	61	C	04/19/2022	00:45	-131.687	49.834	0	42.80	0	7.5960	0	32.0580	0	25.022	0	42.429	0	273.8	4	92.6	4	-1E+10	1	-1E+10	1	-1E+10	1	-1E+10	1	-1E+10	1	-1E+10	1
4902551	61	C	04/19/2022	00:45	-131.687	49.834	0	44.00	0	7.5960	0	32.0590	0	25.023	0	43.619	0	273.2	4	92.3	4	-1E+10	1	-1E+10	1	-1E+10	1	-1E+10	1	-1E+10	1	-1E+10	1
4902551	61	C	04/19/2022	00:45	-131.687	49.834	0	44.90	0	7.5960	0	32.0590	0	25.023	0	44.511	0	272.7	4	92.2	4	-1E+10	1	-1E+10	1	-1E+10	1	-1E+10	1	-1E+10	1	-1E+10	1
4902551	61	C	04/19/2022	00:45	-131.687	49.834	0	45.90	0	7.5960	0	32.0590	0	25.023	0	45.502	0	272.1	4	92.0	4	-1E+10	1	-1E+10	1	-1E+10	1	-1E+10	1	-1E+10	1	-1E+10	1
4902551	61	C	04/19/2022	00:45	-131.687	49.834	0	47.10	0	7.5950	0	32.0590	0	25.023	0	46.692	0	271.4	4	91.7	4	-1E+10	1	-1E+10	1	-1E+10	1	-1E+10	1	-1E+10	1	-1E+10	1
4902551	61	C	04/19/2022	00:45	-131.687	49.834	0	47.90	0	7.5950	0	32.0590	0	25.023	0	47.485	0	270.8	4	91.5	4	-1E+10	1	-1E+10	1	-1E+10	1	-1E+10	1	-1E+10	1	-1E+10	1
4902551	61	C	04/19/2022	00:45	-131.687	49.834	0	48.90	0	7.5960	0	32.0590	0	25.023	0	48.476	0	269.8	4	91.2	4	-1E+10	1	-1E+10	1	-1E+10	1	-1E+10	1	-1E+10	1	-1E+10	1
4902551	61	C	04/19/2022	00:45	-131.687	49.834	0	49.90	0	7.5960	0	32.0590	0	25.023	0	49.467	0	268.3	4	90.7	4	-1E+10	1	-1E+10	1	-1E+10	1	-1E+10	1	-1E+10	1	-1E+10	1
4902551	61	C	04/19/2022	00:45	-131.687	49.834	0	51.10	0	7.5950	0	32.0580	0	25.022	0	50.656	0	265.7	4	89.8	4	-1E+10	1	-1E+10	1	-1E+10	1	-1E+10	1	-1E+10	1	-1E+10	1
4902551	61	C	04/19/2022	00:45	-131.687	49.834	0	52.10	0	7.5940	0	32.0600	0	25.024	0	51.648	0	263.8	4	89.2	4	-1E+10	1	-1E+10	1	-1E+10	1	-1E+10	1	-1E+10	1	-1E+10	1
4902551	61	C	04/19/2022	00:45	-131.687	49.834	0	53.00	0	7.5910	0	32.0620	0	25.026	0	52.540	0	261.7	4	88.5	4	-1E+10	1	-1E+10	1	-1E+10	1	-1E+10	1	-1E+10	1	-1E+10	1
4902551	61	C	04/19/2022	00:45	-131.687	49.834	0	53.90	0	7.5910	0	32.0630	0	25.027	0	53.432	0	259.2	4	87.6	4	-1E+10	1	-1E+10	1	-1E+10	1	-1E+10	1	-1E+10	1	-1E+10	1
4902551	61	C	04/19/2022	00:45	-131.687	49.834	0	54.70	0	7.5920	0	32.0620	0	25.026	0	54.225	0	256.3	4	86.6	4	-1E+10	1	-1E+10	1	-1E+10	1	-1E+10	1	-1E+10	1	-1E+10	1
4902551	61	C	04/19/2022	00:45	-131.687	49.834	0	55.90	0	7.5920	0	32.0620	0	25.026	0	55.414	0	250.7	4	84.7	4	-1E+10	1	-1E+10	1	-1E+10	1	-1E+10	1	-1E+10	1	-1E+10	1
4902551	61	C	04/19/2022	00:45	-131.687	49.834	0	57.10	0	7.5920	0	32.0640	0	25.027	0	56.604	0	237.7	4	80.4	4	-1E+10	1	-1E+10	1	-1E+10	1	-1E+10	1	-1E+10	1	-1E+10	1
4902551	61	C	04/19/2022	00:45	-131.687	49.834	0	58.00	0	7.5990	0	32.2100	0	25.141	0	57.496	0	216.1	4	73.1	4	-1E+10	1	-1E+10	1	-1E+10	1	-1E+10	1	-1E+10	1	-1E+10	1
4902551	61	C	04/19/2022	00:45	-131.687	49.834	0	59.00	0	7.6180	0	32.4200	0	25.303	0	58.487	0	197.8	4	67.1	4	-1E+10	1	-1E+10	1	-1E+10	1	-1E+10	1	-1E+10	1	-1E+10	1
4902551	61	C	04/19/2022	00:45	-131.687	49.834	0	60.10	0	7.6420	0	32.6780	0	25.503	0	59.577	0	193.1	4	65.6	4	-1E+10	1	-1E+10	1	-1E+10	1	-1E+10	1	-1E+10	1	-1E+10	1
4902551	61	C	04/19/2022	00:45	-131.687	49.834	0	61.00	0	7.6480	0	32.7300	0	25.543	0	60.469	0	191.7	4	65.2	4	-1E+10	1	-1E+10	1	-1E+10	1	-1E+10	1	-1E+10	1	-1E+10	1
4902551	61	C	04/19/2022	00:45	-131.687	49.834	0	61.80	0	7.6330	0	32.7760	0	25.581	0	61.262	0	190.2	4	64.7	4	-1E+10	1	-1E+10	1	-1E+10	1	-1E+10	1	-1E+10	1	-1E+10	1
4902551	61	C	04/19/2022	00:45	-131.687	49.834	0	62.90	0	7.6240	0	32.7900	0	25.593	0	62.352	0	188.1	4	64.0	4	-1E+10	1	-1E+10	1	-1E+10	1	-1E+10	1	-1E+10	1	-1E+10	1
4902551	61	C	04/19/2022	00:45	-131.687	49.834	0	64.00	0	7.6210	0	32.7930	0	25.596	0	63.442	0	185.8	4	63.2	4	-1E+10	1	-1E+10	1	-1E+10	1	-1E+10	1	-1E+10	1	-1E+10	1
4902551	61	C	04/19/2022	00:45	-131.687	49.834	0	65.10	0	7.6160	0	32.8000	0	25.602	0	64.533	0	183.5	4	62.4	4	-1E+10	1	-1E+10	1	-1E+10	1	-1E+10	1	-1E+10	1	-1E+10	1
4902551	61	C	04/19/2022	00:45	-131.687	49.834	0	66.00	0	7.6090	0	32.8160	0	25.616	0	65.425	0	181.5	4	61.7	4	-1E+10	1	-1E+10	1	-1E+10	1	-1E+10	1	-1E+10	1	-1E+10	1
4902551	61	C	04/19/2022	00:45	-131.687	49.834	0	66.80	0	7.5970	0	32.8440	0	25.640	0	66.218	0	179.2	4	60.9	4	-1E+10	1	-1E+10	1	-1E+10	1	-1E+10	1	-1E+10	1	-1E+10	1
4902551	61	C	04/19/2022	00:45	-131.687	49.834	0	67.90	0	7.5780	0	32.8940	0	25.682	0	67.308	0	175.9	4	59.8	4	-1E+10	1	-1E+10	1	-1E+10	1	-1E+10	1	-1E+10	1	-1E+10	1
4902551	61	C	04/19/2022	00:45	-131.687	49.834	0	69.00	0	7.5690	0	32.9260	0	25.708	0	68.398	0	172.1	4	58.5	4	-1E+10	1	-1E+10	1	-1E+10	1	-1E+10	1	-1E+10	1	-1E+10	1
4902551	61	C	04/19/2022	00:45	-131.687	49.834	0	70.10	0	7.5620	0	32.9750	0	25.748	0	69.488	0	168.5	4	57.3	4	-1E+10	1	-1E+10	1	-1E+10	1	-1E+10	1	-1E+10	1	-1E+10	1
4902551	61	C	04/19/2022	00:45	-131.687	49.834	0	71.00	0	7.5570	0	33.0190	0	25.783	0	70.380	0	166.2	4	56.5	4	-1E+10	1	-1E+10	1	-1E+10	1	-1E+10	1	-1E+10	1	-1E+10	1
4902551	61	C	04/19/2022	00:45	-131.687	49.834	0	71.90	0	7.5480	0	33.0600	0	25.816	0	71.272	0	164.3	4	55.9	4	-1E+10	1	-1E+10	1	-1E+10	1	-1E+10	1	-1E+10	1	-1E+10	1
4902551	61	C	04/19/2022	00:45	-131.687	49.834	0	72.90	0	7.5260	0	33.1250	0	25.871	0	72.263	0	162.6	4	55.3	4	-1E+10	1	-1E+10	1	-1E+10	1	-1E+10	1	-1E+10	1	-1E+10	1
4902551	61	C	04/19/2022	00:45	-131.687	49.834	0	74.00	0	7.5160	0	33.1580	0	25.898	0	73.354	0	161.0	4	54.8	4	-1E+10	1	-1E+10	1	-1E+10	1	-1E+10	1	-1E+10	1	-1E+10	1
4902551	61	C	04/19/2022	00:45	-131.687	49.834	0	75.10	0	7.5100	0	33.1730	0	25.911	0	74.444	0	159.5	4	54.3	4	-1E+10	1	-1E+10	1	-1E+10	1	-1E+10	1	-1E+10	1	-1E+10	1
4902551	61	C	04/19/2022	00:45	-131.687	49.834	0	75.90	0	7.5040	0	33.1950	0	25.929	0	75.237	0	158.6	4	53.9	4	-1E+10	1	-1E+10	1	-1E+10	1	-1E+10	1	-1E+10	1	-1E+10	1
4902551	61	C	04/19/2022	00:45	-131.687	49.834	0	76.70	0	7.5000	0	33.2140	0	25.944	0	76.029	0	157.5	4	53.6	4	-1E+10	1	-1E+10	1	-1E+10	1	-1E+10	1	-1E+10	1	-1E+10	1
4902551	61	C	04/19/2022	00:45	-131.687	49.834	0	77.90	0	7.4970	0	33.2220	0	25.951	0	77.219	0	155.8	4	53.0	4	-1E+10	1	-1E+10	1	-1E+10	1	-1E+10	1	-1E+10	1	-1E+10	1
4902551	61	C	04/19/2022	00:45	-131.687	49.834	0	79.00	0	7.4910	0	33.2420	0	25.968	0	78.309	0	154.1	4	52.4	4	-1E+10	1	-1E+10	1	-1E+10	1	-1E+10	1	-1E+10	1	-1E+10	1
4902551	61	C	04/19/2022	00:45	-131.687	49.834	0	79.80	0	7.4830	0	33.2620	0	25.984	0	79.102	0	153.1	4	52.1	4	-1E+10	1	-1E+10	1	-1E+10	1	-1E+10	1	-1E+10	1	-1E+10	1
4902551	61	C	04/19/2022	00:45	-131.687	49.834	0	80.90	0	7.4750	0	33.2980	0	26.014	0	80.192	0	151.9	4	51.7	4	-1E+10	1	-1E+10	1	-1E+10	1	-1E+10	1	-1E+10	1	-1E+10	1
4902551	61	C	04/19/2022	00:45	-131.687	49.834	0	82.10	0	7.4710	0	33.3090	0	26.023	0	81.381	0	150.2	4	51.1	4	-1E+10	1	-1E+10	1	-1E+10	1	-1E+10	1	-1E+10	1	-1E+10	1
4902551	61	C	04/19/2022	00:45	-131.687	49.834	0	82.80	0	7.4670	0	33.3240	0	26.036	0	82.075	0	148.8	4	50.6	4	-1E+10	1	-1E+10	1	-1E+10	1	-1E+10	1	-1E+10	1	-1E+10	1
4902551	61	C	04/19/2022	00:45	-131.687	49.834	0	84.00	0	7.4640	0	33.3390	0	26.048	0	83.264	0	150.4	4	51.2	4	-1E+10	1	-1E+10	1	-1E+10	1	-1E+10	1	-1E+10	1	-1E+10	1
4902551	61	C	04/19/2022	00:45	-131.687	49.834	0	85.20	0	7.4620	0	33.3460	0	26.054	0	84.453	0	147.8	4	50.3	4	-1E+10	1	-1E+10	1	-1E+10	1	-1E+10	1	-1E+10	1	-1E+10	1
4902551	61	C	04/19/2022	00:45	-131.687	49.834	0	86.10	0	7.4590	0	33.3550	0	26.061	0	85.345	0	145.6	4	49.5	4	-1E+10	1	-1E+10	1	-1E+10	1	-1E+10	1	-1E+10	1	-1E+10	1
4902551	61	C	04/19/2022	00:45	-131.687	49.834	0	86.90	0	7.4580	0	33.3620	0	26.067	0	86.138	0	143.9	4	49.0	4	-1E+10	1	-1E+10	1	-1E+10	1	-1E+10	1	-1E+10	1	-1E+10	1
4902551	61	C	04/19/2022	00:45	-131.687	49.834	0	87.80	0	7.4490	0	33.4170	0	26.111	0	87.030	0	142.5	4	48.5	4	-1E+10	1	-1E+10	1	-1E+10	1	-1E+10	1	-1E+10	1	-1E+10	1
4902551	61	C	04/19/2022	00:45	-131.687	49.834	0	88.70	0	7.4290	0	33.4590	0	26.147	0	87.922	0	141.5	4	48.1	4	-1E+10	1	-1E+10	1	-1E+10	1	-1E+10	1	-1E+10	1	-1E+10	1
4902551	61	C	04/19/2022	00:45	-131.687	49.834	0	89.70	0	7.4380	0	33.4920	0	26.172	0	88.913	0	140.6	4	47.8	4	-1E+10	1	-1E+10	1	-1E+10	1	-1E+10	1	-1E+10	1	-1E+10	1
4902551	61	C	04/19/2022	00:45	-131.687	49.834	0	90.60	0	7.4340	0	33.5000	0	26.179	0	89.805	0	139.7	4	47.5	4	-1E+10	1	-1E+10	1	-1E+10	1	-1E+10	1	-1E+10	1	-1E+10	1
4902551	61	C	04/19/2022	00:45	-131.687	49.834	0	91.50	0	7.4380	0	33.5070	0	26.184	0	90.697	0	138.9	4	47.3	4	-1E+10	1	-1E+10	1	-1E+10	1	-1E+10	1	-1E+10	1	-1E+10	1
4902551	61	C	04/19/2022	00:45	-131.687	49.834	0	92.90	0	7.4530	0	33.5390	0	26.207	0	92.084	0	137.9	4	47.0	4	-1E+10	1	-1E+10	1	-1E+10	1	-1E+10	1	-1E+10	1	-1E+10	1
4902551	61	C	04/19/2022	00:45	-131.687	49.834	0	94.40	0	7.4390	0	33.5630	0	26.228	0	93.571	0	136.7	4	46.5	4	-1E+10	1	-1E+10	1	-1E+10	1	-1E+10	1	-1E+10	1	-1E+10	1
4902551	61	C	04/19/2022	00:45	-131.687	49.834	0	95.30	0	7.4340	0	33.5970	0	26.255	0	94.463	0	136.1	4	46.4	4	-1E+10	1	-1E+10	1	-1E+10	1	-1E+10	1	-1E+10	1	-1E+10	1
4902551	61	C	04/19/2022	00:45	-131.687	49.834	0	96.30	0	7.4330	0	33.6140	0	26.269	0	95.454	0	135.5	4	46.2	4	-1E+10	1	-1E+10	1	-1E+10	1	-1E+10	1	-1E+10	1	-1E+10	1
4902551	61	C	04/19/2022	00:45	-131.687	49.834	0	97.30	0	7.4060	0	33.6200	0	26.277	0	96.445	0	134.4	4	45.8	4	-1E+10	1	-1E+10	1	-1E+10	1	-1E+10	1	-1E+10	1	-1E+10	1
4902551	61	C	04/19/2022	00:45	-131.687	49.834	0	98.30	0	7.4190	0	33.6310	0	26.284	0	97.436	0	133.1	4	45.4	4	-1E+10	1	-1E+10	1	-1E+10	1	-1E+10	1	-1E+10	1	-1E+10	1
4902551	61	C	04/19/2022	00:45	-131.687	49.834	0	99.30	0	7.4230	0	33.6370	0	26.288	0	98.427	0	132.2	4	45.0	4	-1E+10	1	-1E+10	1	-1E+10	1	-1E+10	1	-1E+10	1	-1E+10	1
4902551	61	C	04/19/2022	00:45	-131.687	49.834	0	100.30	0	7.4200	0	33.6490	0	26.298	0	99.417	0	131.3	4	44.7	4	-1E+10	1	-1E+10	1	-1E+10	1	-1E+10	1	-1E+10	1	-1E+10	1
4902551	61	C	04/19/2022	00:45	-131.687	49.834	0	101.30	0	7.4130	0	33.6590	0	26.307	0	100.408	0	130.5	4	44.5	4	-1E+10	1	-1E+10	1	-1E+10	1	-1E+10	1	-1E+10	1	-1E+10	1
4902551	61	C	04/19/2022	00:45	-131.687	49.834	0	102.30	0	7.3950	0	33.6790	0	26.325	0	101.399	0	129.6	4	44.1	4	-1E+10	1	-1E+10	1	-1E+10	1	-1E+10	1	-1E+10	1	-1E+10	1
4902551	61	C	04/19/2022	00:45	-131.687	49.834	0	103.30	0	7.3980	0	33.6850	0	26.329	0	102.390	0	129.0	4	43.9	4	-1E+10	1	-1E+10	1	-1E+10	1	-1E+10	1	-1E+10	1	-1E+10	1
4902551	61	C	04/19/2022	00:45	-131.687	49.834	0	104.30	0	7.4000	0	33.6920	0	26.335	0	103.381	0	128.5	4	43.8	4	-1E+10	1	-1E+10	1	-1E+10	1	-1E+10	1	-1E+10	1	-1E+10	1
4902551	61	C	04/19/2022	00:45	-131.687	49.834	0	105.30	0	7.3960	0	33.6990	0	26.341	0	104.372	0	128.0	4	43.6	4	-1E+10	1	-1E+10	1	-1E+10	1	-1E+10	1	-1E+10	1	-1E+10	1
4902551	61	C	04/19/2022	00:45	-131.687	49.834	0	106.30	0	7.3860	0	33.7060	0	26.348	0	105.363	0	127.7	4	43.5	4	-1E+10	1	-1E+10	1	-1E+10	1	-1E+10	1	-1E+10	1	-1E+10	1
4902551	61	C	04/19/2022	00:45	-131.687	49.834	0	107.30	0	7.3820	0	33.7090	0	26.351	0	106.354	0	127.3	4	43.3	4	-1E+10	1	-1E+10	1	-1E+10	1	-1E+10	1	-1E+10	1	-1E+10	1
4902551	61	C	04/19/2022	00:45	-131.687	49.834	0	108.30	0	7.3810	0	33.7090	0	26.351	0	107.345	0	126.9	4	43.2	4	-1E+10	1	-1E+10	1	-1E+10	1	-1E+10	1	-1E+10	1	-1E+10	1
4902551	61	C	04/19/2022	00:45	-131.687	49.834	0	109.30	0	7.3790	0	33.7110	0	26.353	0	108.336	0	126.5	4	43.1	4	-1E+10	1	-1E+10	1	-1E+10	1	-1E+10	1	-1E+10	1	-1E+10	1
4902551	61	C	04/19/2022	00:45	-131.687	49.834	0	110.40	0	7.3570	0	33.7190	0	26.362	0	109.426	0	126.2	4	42.9	4	-1E+10	1	-1E+10	1	-1E+10	1	-1E+10	1	-1E+10	1	-1E+10	1
4902551	61	C	04/19/2022	00:45	-131.687	49.834	0	111.40	0	7.3030	0	33.7270	0	26.376	0	110.417	0	126.0	4	42.8	4	-1E+10	1	-1E+10	1	-1E+10	1	-1E+10	1	-1E+10	1	-1E+10	1
4902551	61	C	04/19/2022	00:45	-131.687	49.834	0	112.50	0	7.2830	0	33.7270	0	26.379	0	111.507	0	125.8	4	42.8	4	-1E+10	1	-1E+10	1	-1E+10	1	-1E+10	1	-1E+10	1	-1E+10	1
4902551	61	C	04/19/2022	00:45	-131.687	49.834	0	113.50	0	7.2470	0	33.7240	0	26.381	0	112.498	0	125.4	4	42.6	4	-1E+10	1	-1E+10	1	-1E+10	1	-1E+10	1	-1E+10	1	-1E+10	1
4902551	61	C	04/19/2022	00:45	-131.687	49.834	0	114.60	0	7.2350	0	33.7210	0	26.381	0	113.588	0	124.7	4	42.3	4	-1E+10	1	-1E+10	1	-1E+10	1	-1E+10	1	-1E+10	1	-1E+10	1
4902551	61	C	04/19/2022	00:45	-131.687	49.834	0	115.60	0	7.2820	0	33.7130	0	26.368	0	114.579	0	124.0	4	42.1	4	-1E+10	1	-1E+10	1	-1E+10	1	-1E+10	1	-1E+10	1	-1E+10	1
4902551	61	C	04/19/2022	00:45	-131.687	49.834	0	116.70	0	7.2820	0	33.7420	0	26.391	0	115.669	0	123.5	4	42.0	4	-1E+10	1	-1E+10	1	-1E+10	1	-1E+10	1	-1E+10	1	-1E+10	1
4902551	61	C	04/19/2022	00:45	-131.687	49.834	0	117.80	0	7.2950	0	33.7460	0	26.392	0	116.759	0	123.0	4	41.8	4	-1E+10	1	-1E+10	1	-1E+10	1	-1E+10	1	-1E+10	1	-1E+10	1
4902551	61	C	04/19/2022	00:45	-131.687	49.834	0	118.90	0	7.3010	0	33.7520	0	26.396	0	117.849	0	122.6	4	41.7	4	-1E+10	1	-1E+10	1	-1E+10	1	-1E+10	1	-1E+10	1	-1E+10	1
4902551	61	C	04/19/2022	00:45	-131.687	49.834	0	120.00	0	7.2830	0	33.7590	0	26.404	0	118.938	0	122.3	4	41.6	4	-1E+10	1	-1E+10	1	-1E+10	1	-1E+10	1	-1E+10	1	-1E+10	1
4902551	61	C	04/19/2022	00:45	-131.687	49.834	0	121.10	0	7.2710	0	33.7630	0	26.409	0	120.028	0	122.2	4	41.5	4	-1E+10	1	-1E+10	1	-1E+10	1	-1E+10	1	-1E+10	1	-1E+10	1
4902551	61	C	04/19/2022	00:45	-131.687	49.834	0	122.20	0	7.2650	0	33.7680	0	26.414	0	121.118	0	122.0	4	41.5	4	-1E+10	1	-1E+10	1	-1E+10	1	-1E+10	1	-1E+10	1	-1E+10	1
4902551	61	C	04/19/2022	00:45	-131.687	49.834	0	123.30	0	7.2620	0	33.7700	0	26.416	0	122.208	0	121.9	4	41.4	4	-1E+10	1	-1E+10	1	-1E+10	1	-1E+10	1	-1E+10	1	-1E+10	1
4902551	61	C	04/19/2022	00:45	-131.687	49.834	0	124.40	0	7.2380	0	33.7810	0	26.428	0	123.298	0	121.9	4	41.4	4	-1E+10	1	-1E+10	1	-1E+10	1	-1E+10	1	-1E+10	1	-1E+10	1
4902551	61	C	04/19/2022	00:45	-131.687	49.834	0	125.60	0	7.2250	0	33.7840	0	26.432	0	124.487	0	121.8	4	41.4	4	-1E+10	1	-1E+10	1	-1E+10	1	-1E+10	1	-1E+10	1	-1E+10	1
4902551	61	C	04/19/2022	00:45	-131.687	49.834	0	126.70	0	7.2220	0	33.7850	0	26.433	0	125.577	0	121.8	4	41.3	4	-1E+10	1	-1E+10	1	-1E+10	1	-1E+10	1	-1E+10	1	-1E+10	1
4902551	61	C	04/19/2022	00:45	-131.687	49.834	0	127.80	0	7.2220	0	33.7850	0	26.433	0	126.667	0	121.7	4	41.3	4	-1E+10	1	-1E+10	1	-1E+10	1	-1E+10	1	-1E+10	1	-1E+10	1
4902551	61	C	04/19/2022	00:45	-131.687	49.834	0	129.00	0	7.2220	0	33.7850	0	26.433	0	127.856	0	121.7	4	41.3	4	-1E+10	1	-1E+10	1	-1E+10	1	-1E+10	1	-1E+10	1	-1E+10	1
4902551	61	C	04/19/2022	00:45	-131.687	49.834	0	130.10	0	7.2220	0	33.7850	0	26.433	0	128.946	0	121.6	4	41.3	4	-1E+10	1	-1E+10	1	-1E+10	1	-1E+10	1	-1E+10	1	-1E+10	1
4902551	61	C	04/19/2022	00:45	-131.687	49.834	0	131.30	0	7.2220	0	33.7850	0	26.433	0	130.135	0	121.6	4	41.3	4	-1E+10	1	-1E+10	1	-1E+10	1	-1E+10	1	-1E+10	1	-1E+10	1
4902551	61	C	04/19/2022	00:45	-131.687	49.834	0	132.40	0	7.2220	0	33.7840	0	26.432	0	131.225	0	121.6	4	41.3	4	-1E+10	1	-1E+10	1	-1E+10	1	-1E+10	1	-1E+10	1	-1E+10	1
4902551	61	C	04/19/2022	00:45	-131.687	49.834	0	133.50	0	7.2190	0	33.7830	0	26.432	0	132.315	0	121.5	4	41.2	4	-1E+10	1	-1E+10	1	-1E+10	1	-1E+10	1	-1E+10	1	-1E+10	1
4902551	61	C	04/19/2022	00:45	-131.687	49.834	0	134.70	0	7.2150	0	33.7800	0	26.430	0	133.504	0	121.5	4	41.2	4	-1E+10	1	-1E+10	1	-1E+10	1	-1E+10	1	-1E+10	1	-1E+10	1
4902551	61	C	04/19/2022	00:45	-131.687	49.834	0	135.80	0	7.2130	0	33.7810	0	26.431	0	134.594	0	121.5	4	41.2	4	-1E+10	1	-1E+10	1	-1E+10	1	-1E+10	1	-1E+10	1	-1E+10	1
4902551	61	C	04/19/2022	00:45	-131.687	49.834	0	137.00	0	7.2060	0	33.7810	0	26.432	0	135.783	0	121.4	4	41.2	4	-1E+10	1	-1E+10	1	-1E+10	1	-1E+10	1	-1E+10	1	-1E+10	1
4902551	61	C	04/19/2022	00:45	-131.687	49.834	0	138.10	0	7.1900	0	33.7780	0	26.432	0	136.872	0	121.2	4	41.1	4	-1E+10	1	-1E+10	1	-1E+10	1	-1E+10	1	-1E+10	1	-1E+10	1
4902551	61	C	04/19/2022	00:45	-131.687	49.834	0	139.30	0	7.1890	0	33.7780	0	26.432	0	138.061	0	121.1	4	41.1	4	-1E+10	1	-1E+10	1	-1E+10	1	-1E+10	1	-1E+10	1	-1E+10	1
4902551	61	C	04/19/2022	00:45	-131.687	49.834	0	140.40	0	7.1880	0	33.7800	0	26.434	0	139.151	0	120.8	4	41.0	4	-1E+10	1	-1E+10	1	-1E+10	1	-1E+10	1	-1E+10	1	-1E+10	1
4902551	61	C	04/19/2022	00:45	-131.687	49.834	0	141.60	0	7.1360	0	33.7810	0	26.442	0	140.340	0	120.6	4	40.9	4	-1E+10	1	-1E+10	1	-1E+10	1	-1E+10	1	-1E+10	1	-1E+10	1
4902551	61	C	04/19/2022	00:45	-131.687	49.834	0	142.80	0	7.1600	0	33.8050	0	26.458	0	141.529	0	120.6	4	40.9	4	-1E+10	1	-1E+10	1	-1E+10	1	-1E+10	1	-1E+10	1	-1E+10	1
4902551	61	C	04/19/2022	00:45	-131.687	49.834	0	144.00	0	7.0960	0	33.8040	0	26.466	0	142.718	0	120.8	4	40.9	4	-1E+10	1	-1E+10	1	-1E+10	1	-1E+10	1	-1E+10	1	-1E+10	1
4902551	61	C	04/19/2022	00:45	-131.687	49.834	0	145.20	0	7.1000	0	33.8030	0	26.464	0	143.907	0	120.9	4	40.9	4	-1E+10	1	-1E+10	1	-1E+10	1	-1E+10	1	-1E+10	1	-1E+10	1
4902551	61	C	04/19/2022	00:45	-131.687	49.834	0	146.50	0	7.1070	0	33.8050	0	26.465	0	145.195	0	121.0	4	41.0	4	-1E+10	1	-1E+10	1	-1E+10	1	-1E+10	1	-1E+10	1	-1E+10	1
4902551	61	C	04/19/2022	00:45	-131.687	49.834	0	147.70	0	7.1020	0	33.8030	0	26.464	0	146.384	0	121.1	4	41.0	4	-1E+10	1	-1E+10	1	-1E+10	1	-1E+10	1	-1E+10	1	-1E+10	1
4902551	61	C	04/19/2022	00:45	-131.687	49.834	0	148.80	0	7.0710	0	33.8050	0	26.470	0	147.473	0	121.4	4	41.1	4	-1E+10	1	-1E+10	1	-1E+10	1	-1E+10	1	-1E+10	1	-1E+10	1
4902551	61	C	04/19/2022	00:45	-131.687	49.834	0	150.00	0	7.0710	0	33.8040	0	26.469	0	148.662	0	121.4	4	41.1	4	-1E+10	1	-1E+10	1	-1E+10	1	-1E+10	1	-1E+10	1	-1E+10	1
4902551	61	C	04/19/2022	00:45	-131.687	49.834	0	151.30	0	7.0640	0	33.8050	0	26.471	0	149.950	0	121.5	4	41.1	4	-1E+10	1	-1E+10	1	-1E+10	1	-1E+10	1	-1E+10	1	-1E+10	1
4902551	61	C	04/19/2022	00:45	-131.687	49.834	0	152.40	0	7.0460	0	33.8130	0	26.480	0	151.040	0	121.5	4	41.1	4	-1E+10	1	-1E+10	1	-1E+10	1	-1E+10	1	-1E+10	1	-1E+10	1
4902551	61	C	04/19/2022	00:45	-131.687	49.834	0	153.70	0	7.0420	0	33.8020	0	26.471	0	152.328	0	121.6	4	41.1	4	-1E+10	1	-1E+10	1	-1E+10	1	-1E+10	1	-1E+10	1	-1E+10	1
4902551	61	C	04/19/2022	00:45	-131.687	49.834	0	154.90	0	7.0180	0	33.8160	0	26.486	0	153.517	0	121.6	4	41.1	4	-1E+10	1	-1E+10	1	-1E+10	1	-1E+10	1	-1E+10	1	-1E+10	1
4902551	61	C	04/19/2022	00:45	-131.687	49.834	0	156.10	0	6.9640	0	33.8040	0	26.484	0	154.706	0	121.4	4	41.0	4	-1E+10	1	-1E+10	1	-1E+10	1	-1E+10	1	-1E+10	1	-1E+10	1
4902551	61	C	04/19/2022	00:45	-131.687	49.834	0	157.30	0	6.9490	0	33.8040	0	26.486	0	155.894	0	120.9	4	40.8	4	-1E+10	1	-1E+10	1	-1E+10	1	-1E+10	1	-1E+10	1	-1E+10	1
4902551	61	C	04/19/2022	00:45	-131.687	49.834	0	158.60	0	6.9360	0	33.8030	0	26.487	0	157.182	0	120.3	4	40.6	4	-1E+10	1	-1E+10	1	-1E+10	1	-1E+10	1	-1E+10	1	-1E+10	1
4902551	61	C	04/19/2022	00:45	-131.687	49.834	0	159.80	0	6.9160	0	33.7990	0	26.486	0	158.371	0	119.5	4	40.3	4	-1E+10	1	-1E+10	1	-1E+10	1	-1E+10	1	-1E+10	1	-1E+10	1
4902551	61	C	04/19/2022	00:45	-131.687	49.834	0	161.00	0	6.9200	0	33.8020	0	26.488	0	159.560	0	118.5	4	39.9	4	-1E+10	1	-1E+10	1	-1E+10	1	-1E+10	1	-1E+10	1	-1E+10	1
4902551	61	C	04/19/2022	00:45	-131.687	49.834	0	162.20	0	6.9180	0	33.8030	0	26.489	0	160.749	0	117.4	4	39.6	4	-1E+10	1	-1E+10	1	-1E+10	1	-1E+10	1	-1E+10	1	-1E+10	1
4902551	61	C	04/19/2022	00:45	-131.687	49.834	0	163.40	0	6.9120	0	33.8010	0	26.488	0	161.938	0	116.0	4	39.1	4	-1E+10	1	-1E+10	1	-1E+10	1	-1E+10	1	-1E+10	1	-1E+10	1
4902551	61	C	04/19/2022	00:45	-131.687	49.834	0	164.60	0	6.8950	8	33.7980	8	26.488	0	163.126	0	114.3	4	38.5	4	-1E+10	1	-1E+10	1	-1E+10	1	-1E+10	1	-1E+10	1	-1E+10	1
4902551	61	C	04/19/2022	00:45	-131.687	49.834	0	165.80	0	6.9100	8	33.7500	8	26.449	0	164.315	0	112.3	4	37.8	4	-1E+10	1	-1E+10	1	-1E+10	1	-1E+10	1	-1E+10	1	-1E+10	1
4902551	61	C	04/19/2022	00:45	-131.687	49.834	0	167.00	0	6.9850	0	33.8380	0	26.508	0	165.504	0	111.6	4	37.7	4	-1E+10	1	-1E+10	1	-1E+10	1	-1E+10	1	-1E+10	1	-1E+10	1
4902551	61	C	04/19/2022	00:45	-131.687	49.834	0	168.20	0	6.9960	0	33.8430	0	26.510	0	166.693	0	111.3	4	37.6	4	-1E+10	1	-1E+10	1	-1E+10	1	-1E+10	1	-1E+10	1	-1E+10	1
4902551	61	C	04/19/2022	00:45	-131.687	49.834	0	169.40	0	6.9960	0	33.8430	0	26.510	0	167.881	0	111.0	4	37.5	4	-1E+10	1	-1E+10	1	-1E+10	1	-1E+10	1	-1E+10	1	-1E+10	1
4902551	61	C	04/19/2022	00:45	-131.687	49.834	0	170.50	0	6.9950	0	33.8430	0	26.510	0	168.971	0	110.6	4	37.4	4	-1E+10	1	-1E+10	1	-1E+10	1	-1E+10	1	-1E+10	1	-1E+10	1
4902551	61	C	04/19/2022	00:45	-131.687	49.834	0	171.70	0	6.9910	0	33.8450	0	26.513	0	170.160	0	110.2	4	37.2	4	-1E+10	1	-1E+10	1	-1E+10	1	-1E+10	1	-1E+10	1	-1E+10	1
4902551	61	C	04/19/2022	00:45	-131.687	49.834	0	172.90	0	6.9590	0	33.8430	0	26.515	0	171.349	0	109.6	4	37.0	4	-1E+10	1	-1E+10	1	-1E+10	1	-1E+10	1	-1E+10	1	-1E+10	1
4902551	61	C	04/19/2022	00:45	-131.687	49.834	0	174.00	0	6.9740	0	33.8500	0	26.519	0	172.438	0	109.1	4	36.8	4	-1E+10	1	-1E+10	1	-1E+10	1	-1E+10	1	-1E+10	1	-1E+10	1
4902551	61	C	04/19/2022	00:45	-131.687	49.834	0	175.20	0	6.9630	0	33.8530	0	26.523	0	173.627	0	108.6	4	36.7	4	-1E+10	1	-1E+10	1	-1E+10	1	-1E+10	1	-1E+10	1	-1E+10	1
4902551	61	C	04/19/2022	00:45	-131.687	49.834	0	176.40	0	6.9630	0	33.8520	0	26.522	0	174.816	0	108.1	4	36.5	4	-1E+10	1	-1E+10	1	-1E+10	1	-1E+10	1	-1E+10	1	-1E+10	1
4902551	61	C	04/19/2022	00:45	-131.687	49.834	0	177.50	0	6.9610	0	33.8540	0	26.524	0	175.905	0	107.6	4	36.3	4	-1E+10	1	-1E+10	1	-1E+10	1	-1E+10	1	-1E+10	1	-1E+10	1
4902551	61	C	04/19/2022	00:45	-131.687	49.834	0	178.60	0	6.9620	0	33.8540	0	26.524	0	176.995	0	107.0	4	36.1	4	-1E+10	1	-1E+10	1	-1E+10	1	-1E+10	1	-1E+10	1	-1E+10	1
4902551	61	C	04/19/2022	00:45	-131.687	49.834	0	179.70	0	6.9630	0	33.8530	0	26.523	0	178.085	0	106.3	4	35.9	4	-1E+10	1	-1E+10	1	-1E+10	1	-1E+10	1	-1E+10	1	-1E+10	1
4902551	61	C	04/19/2022	00:45	-131.687	49.834	0	180.80	0	6.9650	0	33.8520	0	26.522	0	179.174	0	105.5	4	35.6	4	-1E+10	1	-1E+10	1	-1E+10	1	-1E+10	1	-1E+10	1	-1E+10	1
4902551	61	C	04/19/2022	00:45	-131.687	49.834	0	181.90	0	6.9480	0	33.8620	0	26.532	0	180.264	0	104.6	4	35.3	4	-1E+10	1	-1E+10	1	-1E+10	1	-1E+10	1	-1E+10	1	-1E+10	1
4902551	61	C	04/19/2022	00:45	-131.687	49.834	0	183.00	0	6.9160	0	33.8660	0	26.539	0	181.354	0	103.8	4	35.0	4	-1E+10	1	-1E+10	1	-1E+10	1	-1E+10	1	-1E+10	1	-1E+10	1
4902551	61	C	04/19/2022	00:45	-131.687	49.834	0	184.10	0	6.8940	0	33.8670	0	26.543	0	182.443	0	102.9	4	34.7	4	-1E+10	1	-1E+10	1	-1E+10	1	-1E+10	1	-1E+10	1	-1E+10	1
4902551	61	C	04/19/2022	00:45	-131.687	49.834	0	185.20	0	6.9140	0	33.8730	0	26.545	0	183.533	0	101.9	4	34.4	4	-1E+10	1	-1E+10	1	-1E+10	1	-1E+10	1	-1E+10	1	-1E+10	1
4902551	61	C	04/19/2022	00:45	-131.687	49.834	0	186.30	0	6.9460	0	33.8840	0	26.550	0	184.622	0	101.3	4	34.2	4	-1E+10	1	-1E+10	1	-1E+10	1	-1E+10	1	-1E+10	1	-1E+10	1
4902551	61	C	04/19/2022	00:45	-131.687	49.834	0	187.30	0	6.9470	0	33.8860	0	26.551	0	185.613	0	100.7	4	34.0	4	-1E+10	1	-1E+10	1	-1E+10	1	-1E+10	1	-1E+10	1	-1E+10	1
4902551	61	C	04/19/2022	00:45	-131.687	49.834	0	188.80	0	6.9470	0	33.8930	0	26.557	0	187.099	0	99.7	4	33.7	4	-1E+10	1	-1E+10	1	-1E+10	1	-1E+10	1	-1E+10	1	-1E+10	1
4902551	61	C	04/19/2022	00:45	-131.687	49.834	0	189.90	0	6.9200	0	33.9020	0	26.567	0	188.188	0	99.7	4	33.7	4	-1E+10	1	-1E+10	1	-1E+10	1	-1E+10	1	-1E+10	1	-1E+10	1
4902551	61	C	04/19/2022	00:45	-131.687	49.834	0	191.20	0	6.9110	0	33.9010	0	26.568	0	189.476	0	99.8	4	33.7	4	-1E+10	1	-1E+10	1	-1E+10	1	-1E+10	1	-1E+10	1	-1E+10	1
4902551	61	C	04/19/2022	00:45	-131.687	49.834	0	192.00	0	6.9050	0	33.9020	0	26.569	0	190.268	0	99.9	4	33.7	4	-1E+10	1	-1E+10	1	-1E+10	1	-1E+10	1	-1E+10	1	-1E+10	1
4902551	61	C	04/19/2022	00:45	-131.687	49.834	0	192.90	0	6.8850	0	33.9020	0	26.572	0	191.160	0	101.5	4	34.2	4	-1E+10	1	-1E+10	1	-1E+10	1	-1E+10	1	-1E+10	1	-1E+10	1
4902551	61	C	04/19/2022	00:45	-131.687	49.834	0	193.90	0	6.8560	0	33.9060	0	26.579	0	192.150	0	102.3	4	34.5	4	-1E+10	1	-1E+10	1	-1E+10	1	-1E+10	1	-1E+10	1	-1E+10	1
4902551	61	C	04/19/2022	00:45	-131.687	49.834	0	195.30	0	6.7980	0	33.9030	0	26.585	0	193.537	0	103.2	4	34.7	4	-1E+10	1	-1E+10	1	-1E+10	1	-1E+10	1	-1E+10	1	-1E+10	1
4902551	61	C	04/19/2022	00:45	-131.687	49.834	0	196.30	0	6.7190	0	33.9060	0	26.598	0	194.528	0	103.6	4	34.8	4	-1E+10	1	-1E+10	1	-1E+10	1	-1E+10	1	-1E+10	1	-1E+10	1
4902551	61	C	04/19/2022	00:45	-131.687	49.834	0	197.20	0	6.6710	0	33.8940	0	26.594	0	195.419	0	103.8	4	34.8	4	-1E+10	1	-1E+10	1	-1E+10	1	-1E+10	1	-1E+10	1	-1E+10	1
4902551	61	C	04/19/2022	00:45	-131.687	49.834	0	198.20	0	6.6520	0	33.8950	0	26.598	0	196.410	0	103.8	4	34.8	4	-1E+10	1	-1E+10	1	-1E+10	1	-1E+10	1	-1E+10	1	-1E+10	1
4902551	61	C	04/19/2022	00:45	-131.687	49.834	0	199.10	0	6.6410	0	33.8950	0	26.599	0	197.301	0	103.8	4	34.8	4	-1E+10	1	-1E+10	1	-1E+10	1	-1E+10	1	-1E+10	1	-1E+10	1
4902551	61	C	04/19/2022	00:45	-131.687	49.834	0	200.00	0	6.6290	0	33.8950	0	26.601	0	198.192	0	103.8	4	34.8	4	-1E+10	1	-1E+10	1	-1E+10	1	-1E+10	1	-1E+10	1	-1E+10	1
4902551	61	C	04/19/2022	00:45	-131.687	49.834	0	200.90	0	6.6220	0	33.8920	0	26.599	0	199.084	0	103.8	4	34.8	4	-1E+10	1	-1E+10	1	-1E+10	1	-1E+10	1	-1E+10	1	-1E+10	1
4902551	61	C	04/19/2022	00:45	-131.687	49.834	0	201.90	0	6.6130	0	33.8920	0	26.601	0	200.074	0	103.8	4	34.8	4	-1E+10	1	-1E+10	1	-1E+10	1	-1E+10	1	-1E+10	1	-1E+10	1
4902551	61	C	04/19/2022	00:45	-131.687	49.834	0	202.80	0	6.6060	0	33.8910	0	26.601	0	200.966	0	103.8	4	34.8	4	-1E+10	1	-1E+10	1	-1E+10	1	-1E+10	1	-1E+10	1	-1E+10	1
4902551	61	C	04/19/2022	00:45	-131.687	49.834	0	203.70	0	6.5950	0	33.8910	0	26.602	0	201.857	0	103.7	4	34.7	4	-1E+10	1	-1E+10	1	-1E+10	1	-1E+10	1	-1E+10	1	-1E+10	1
4902551	61	C	04/19/2022	00:45	-131.687	49.834	0	204.60	0	6.5820	0	33.8910	0	26.604	0	202.749	0	103.6	4	34.7	4	-1E+10	1	-1E+10	1	-1E+10	1	-1E+10	1	-1E+10	1	-1E+10	1
4902551	61	C	04/19/2022	00:45	-131.687	49.834	0	205.60	0	6.5690	0	33.8880	0	26.603	0	203.739	0	103.5	4	34.6	4	-1E+10	1	-1E+10	1	-1E+10	1	-1E+10	1	-1E+10	1	-1E+10	1
4902551	61	C	04/19/2022	00:45	-131.687	49.834	0	206.90	0	6.5460	0	33.8890	0	26.607	0	205.027	0	103.2	4	34.5	4	-1E+10	1	-1E+10	1	-1E+10	1	-1E+10	1	-1E+10	1	-1E+10	1
4902551	61	C	04/19/2022	00:45	-131.687	49.834	0	208.30	0	6.5200	0	33.8900	0	26.611	0	206.413	0	102.9	4	34.4	4	-1E+10	1	-1E+10	1	-1E+10	1	-1E+10	1	-1E+10	1	-1E+10	1
4902551	61	C	04/19/2022	00:45	-131.687	49.834	0	209.20	0	6.4800	0	33.8870	0	26.614	0	207.305	0	102.6	4	34.3	4	-1E+10	1	-1E+10	1	-1E+10	1	-1E+10	1	-1E+10	1	-1E+10	1
4902551	61	C	04/19/2022	00:45	-131.687	49.834	0	210.10	0	6.4950	0	33.8880	0	26.613	0	208.196	0	102.4	4	34.2	4	-1E+10	1	-1E+10	1	-1E+10	1	-1E+10	1	-1E+10	1	-1E+10	1
4902551	61	C	04/19/2022	00:45	-131.687	49.834	0	211.10	0	6.4820	0	33.8890	0	26.616	0	209.187	0	102.2	4	34.2	4	-1E+10	1	-1E+10	1	-1E+10	1	-1E+10	1	-1E+10	1	-1E+10	1
4902551	61	C	04/19/2022	00:45	-131.687	49.834	0	212.00	0	6.4100	0	33.8920	0	26.627	0	210.078	0	102.1	4	34.1	4	-1E+10	1	-1E+10	1	-1E+10	1	-1E+10	1	-1E+10	1	-1E+10	1
4902551	61	C	04/19/2022	00:45	-131.687	49.834	0	212.90	0	6.4120	0	33.8920	0	26.627	0	210.969	0	102.0	4	34.0	4	-1E+10	1	-1E+10	1	-1E+10	1	-1E+10	1	-1E+10	1	-1E+10	1
4902551	61	C	04/19/2022	00:45	-131.687	49.834	0	213.80	0	6.3900	0	33.8970	0	26.634	0	211.861	0	102.0	4	34.0	4	-1E+10	1	-1E+10	1	-1E+10	1	-1E+10	1	-1E+10	1	-1E+10	1
4902551	61	C	04/19/2022	00:45	-131.687	49.834	0	214.70	0	6.3660	0	33.8900	0	26.631	0	212.752	0	101.9	4	34.0	4	-1E+10	1	-1E+10	1	-1E+10	1	-1E+10	1	-1E+10	1	-1E+10	1
4902551	61	C	04/19/2022	00:45	-131.687	49.834	0	215.70	0	6.3620	0	33.8880	0	26.630	0	213.742	0	101.8	4	33.9	4	-1E+10	1	-1E+10	1	-1E+10	1	-1E+10	1	-1E+10	1	-1E+10	1
4902551	61	C	04/19/2022	00:45	-131.687	49.834	0	216.60	0	6.3310	0	33.8890	0	26.635	0	214.634	0	101.7	4	33.9	4	-1E+10	1	-1E+10	1	-1E+10	1	-1E+10	1	-1E+10	1	-1E+10	1
4902551	61	C	04/19/2022	00:45	-131.687	49.834	0	217.90	0	6.2740	0	33.8930	0	26.646	0	215.921	0	101.4	4	33.7	4	-1E+10	1	-1E+10	1	-1E+10	1	-1E+10	1	-1E+10	1	-1E+10	1
4902551	61	C	04/19/2022	00:45	-131.687	49.834	0	219.30	0	6.2390	0	33.8860	0	26.645	0	217.308	0	101.0	4	33.5	4	-1E+10	1	-1E+10	1	-1E+10	1	-1E+10	1	-1E+10	1	-1E+10	1
4902551	61	C	04/19/2022	00:45	-131.687	49.834	0	220.30	0	6.2140	0	33.8910	0	26.652	0	218.298	0	100.6	4	33.4	4	-1E+10	1	-1E+10	1	-1E+10	1	-1E+10	1	-1E+10	1	-1E+10	1
4902551	61	C	04/19/2022	00:45	-131.687	49.834	0	221.20	0	6.1980	0	33.8710	0	26.638	0	219.190	0	100.1	4	33.2	4	-1E+10	1	-1E+10	1	-1E+10	1	-1E+10	1	-1E+10	1	-1E+10	1
4902551	61	C	04/19/2022	00:45	-131.687	49.834	0	222.20	0	6.2020	0	33.8890	0	26.652	0	220.180	0	99.7	4	33.1	4	-1E+10	1	-1E+10	1	-1E+10	1	-1E+10	1	-1E+10	1	-1E+10	1
4902551	61	C	04/19/2022	00:45	-131.687	49.834	0	223.10	0	6.2010	0	33.8900	0	26.653	0	221.071	0	99.4	4	33.0	4	-1E+10	1	-1E+10	1	-1E+10	1	-1E+10	1	-1E+10	1	-1E+10	1
4902551	61	C	04/19/2022	00:45	-131.687	49.834	0	224.10	0	6.2180	0	33.8930	0	26.653	0	222.062	0	99.0	4	32.9	4	-1E+10	1	-1E+10	1	-1E+10	1	-1E+10	1	-1E+10	1	-1E+10	1
4902551	61	C	04/19/2022	00:45	-131.687	49.834	0	225.00	0	6.2210	0	33.8900	0	26.650	0	222.953	0	98.8	4	32.8	4	-1E+10	1	-1E+10	1	-1E+10	1	-1E+10	1	-1E+10	1	-1E+10	1
4902551	61	C	04/19/2022	00:45	-131.687	49.834	0	226.00	0	6.2190	0	33.8880	0	26.649	0	223.943	0	98.5	4	32.7	4	-1E+10	1	-1E+10	1	-1E+10	1	-1E+10	1	-1E+10	1	-1E+10	1
4902551	61	C	04/19/2022	00:45	-131.687	49.834	0	226.90	0	6.2390	0	33.8910	0	26.649	0	224.835	0	98.2	4	32.6	4	-1E+10	1	-1E+10	1	-1E+10	1	-1E+10	1	-1E+10	1	-1E+10	1
4902551	61	C	04/19/2022	00:45	-131.687	49.834	0	227.80	0	6.2510	0	33.9000	0	26.654	0	225.726	0	98.1	4	32.6	4	-1E+10	1	-1E+10	1	-1E+10	1	-1E+10	1	-1E+10	1	-1E+10	1
4902551	61	C	04/19/2022	00:45	-131.687	49.834	0	228.80	0	6.2290	0	33.8980	0	26.656	0	226.716	0	98.0	4	32.5	4	-1E+10	1	-1E+10	1	-1E+10	1	-1E+10	1	-1E+10	1	-1E+10	1
4902551	61	C	04/19/2022	00:45	-131.687	49.834	0	229.70	0	6.2150	0	33.8960	0	26.656	0	227.608	0	97.8	4	32.5	4	-1E+10	1	-1E+10	1	-1E+10	1	-1E+10	1	-1E+10	1	-1E+10	1
4902551	61	C	04/19/2022	00:45	-131.687	49.834	0	230.70	0	6.1990	0	33.9010	0	26.662	0	228.598	0	97.5	4	32.4	4	-1E+10	1	-1E+10	1	-1E+10	1	-1E+10	1	-1E+10	1	-1E+10	1
4902551	61	C	04/19/2022	00:45	-131.687	49.834	0	231.70	0	6.1660	0	33.8950	0	26.661	0	229.588	0	97.2	4	32.2	4	-1E+10	1	-1E+10	1	-1E+10	1	-1E+10	1	-1E+10	1	-1E+10	1
4902551	61	C	04/19/2022	00:45	-131.687	49.834	0	232.60	0	6.1360	0	33.8940	0	26.664	0	230.480	0	96.8	4	32.1	4	-1E+10	1	-1E+10	1	-1E+10	1	-1E+10	1	-1E+10	1	-1E+10	1
4902551	61	C	04/19/2022	00:45	-131.687	49.834	0	233.60	0	6.1130	0	33.8880	0	26.662	0	231.470	0	96.2	4	31.9	4	-1E+10	1	-1E+10	1	-1E+10	1	-1E+10	1	-1E+10	1	-1E+10	1
4902551	61	C	04/19/2022	00:45	-131.687	49.834	0	234.60	0	6.1070	0	33.8860	0	26.662	0	232.460	0	95.5	4	31.6	4	-1E+10	1	-1E+10	1	-1E+10	1	-1E+10	1	-1E+10	1	-1E+10	1
4902551	61	C	04/19/2022	00:45	-131.687	49.834	0	235.60	0	6.0890	0	33.8900	0	26.667	0	233.451	0	94.7	4	31.3	4	-1E+10	1	-1E+10	1	-1E+10	1	-1E+10	1	-1E+10	1	-1E+10	1
4902551	61	C	04/19/2022	00:45	-131.687	49.834	0	236.50	0	6.0730	0	33.8840	0	26.664	0	234.342	0	93.7	4	31.0	4	-1E+10	1	-1E+10	1	-1E+10	1	-1E+10	1	-1E+10	1	-1E+10	1
4902551	61	C	04/19/2022	00:45	-131.687	49.834	0	237.90	0	6.0610	0	33.8860	0	26.667	0	235.728	0	92.1	4	30.5	4	-1E+10	1	-1E+10	1	-1E+10	1	-1E+10	1	-1E+10	1	-1E+10	1
4902551	61	C	04/19/2022	00:45	-131.687	49.834	0	239.40	0	6.0570	0	33.8860	0	26.668	0	237.214	0	90.1	4	29.8	4	-1E+10	1	-1E+10	1	-1E+10	1	-1E+10	1	-1E+10	1	-1E+10	1
4902551	61	C	04/19/2022	00:45	-131.687	49.834	0	240.40	0	6.0580	0	33.8890	0	26.670	0	238.204	0	88.6	4	29.3	4	-1E+10	1	-1E+10	1	-1E+10	1	-1E+10	1	-1E+10	1	-1E+10	1
4902551	61	C	04/19/2022	00:45	-131.687	49.834	0	241.40	0	6.1220	0	33.8980	0	26.669	0	239.194	0	87.2	4	28.9	4	-1E+10	1	-1E+10	1	-1E+10	1	-1E+10	1	-1E+10	1	-1E+10	1
4902551	61	C	04/19/2022	00:45	-131.687	49.834	0	242.40	0	6.1660	0	33.8980	0	26.664	0	240.185	0	86.2	4	28.6	4	-1E+10	1	-1E+10	1	-1E+10	1	-1E+10	1	-1E+10	1	-1E+10	1
4902551	61	C	04/19/2022	00:45	-131.687	49.834	0	243.40	0	6.2090	0	33.9230	0	26.678	0	241.175	0	85.6	4	28.4	4	-1E+10	1	-1E+10	1	-1E+10	1	-1E+10	1	-1E+10	1	-1E+10	1
4902551	61	C	04/19/2022	00:45	-131.687	49.834	0	244.40	0	6.1820	0	33.9400	0	26.695	0	242.165	0	85.1	4	28.2	4	-1E+10	1	-1E+10	1	-1E+10	1	-1E+10	1	-1E+10	1	-1E+10	1
4902551	61	C	04/19/2022	00:45	-131.687	49.834	0	245.30	0	6.1380	0	33.9230	0	26.687	0	243.056	0	84.5	4	28.0	4	-1E+10	1	-1E+10	1	-1E+10	1	-1E+10	1	-1E+10	1	-1E+10	1
4902551	61	C	04/19/2022	00:45	-131.687	49.834	0	246.30	0	6.1170	0	33.9190	0	26.687	0	244.047	0	83.7	4	27.7	4	-1E+10	1	-1E+10	1	-1E+10	1	-1E+10	1	-1E+10	1	-1E+10	1
4902551	61	C	04/19/2022	00:45	-131.687	49.834	0	247.20	0	6.1590	0	33.9190	0	26.681	0	244.938	0	83.2	4	27.6	4	-1E+10	1	-1E+10	1	-1E+10	1	-1E+10	1	-1E+10	1	-1E+10	1
4902551	61	C	04/19/2022	00:45	-131.687	49.834	0	248.30	0	6.2050	0	33.9390	0	26.691	0	246.027	0	83.0	4	27.6	4	-1E+10	1	-1E+10	1	-1E+10	1	-1E+10	1	-1E+10	1	-1E+10	1
4902551	61	C	04/19/2022	00:45	-131.687	49.834	0	249.00	0	6.1880	0	33.9390	0	26.693	0	246.720	0	82.9	4	27.5	4	-1E+10	1	-1E+10	1	-1E+10	1	-1E+10	1	-1E+10	1	-1E+10	1
4902551	61	C	04/19/2022	00:45	-131.687	49.834	0	249.80	0	6.1820	0	33.9380	0	26.693	0	247.513	0	82.8	4	27.5	4	-1E+10	1	-1E+10	1	-1E+10	1	-1E+10	1	-1E+10	1	-1E+10	1
4902551	61	C	04/19/2022	00:45	-131.687	49.834	0	250.90	0	6.1600	0	33.9350	0	26.694	0	248.602	0	82.5	4	27.4	4	-1E+10	1	-1E+10	1	-1E+10	1	-1E+10	1	-1E+10	1	-1E+10	1
4902551	61	C	04/19/2022	00:45	-131.687	49.834	0	252.00	0	6.1300	0	33.9280	0	26.692	0	249.691	0	82.1	4	27.2	4	-1E+10	1	-1E+10	1	-1E+10	1	-1E+10	1	-1E+10	1	-1E+10	1
4902551	61	C	04/19/2022	00:45	-131.687	49.834	0	252.80	0	6.1270	0	33.9370	0	26.700	0	250.483	0	81.8	4	27.1	4	-1E+10	1	-1E+10	1	-1E+10	1	-1E+10	1	-1E+10	1	-1E+10	1
4902551	61	C	04/19/2022	00:45	-131.687	49.834	0	253.90	0	6.1200	0	33.9330	0	26.697	0	251.573	0	81.4	4	27.0	4	-1E+10	1	-1E+10	1	-1E+10	1	-1E+10	1	-1E+10	1	-1E+10	1
4902551	61	C	04/19/2022	00:45	-131.687	49.834	0	255.10	0	6.1090	0	33.9340	0	26.699	0	252.761	0	80.8	4	26.8	4	-1E+10	1	-1E+10	1	-1E+10	1	-1E+10	1	-1E+10	1	-1E+10	1
4902551	61	C	04/19/2022	00:45	-131.687	49.834	0	255.90	0	6.0970	0	33.9310	0	26.699	0	253.553	0	80.4	4	26.6	4	-1E+10	1	-1E+10	1	-1E+10	1	-1E+10	1	-1E+10	1	-1E+10	1
4902551	61	C	04/19/2022	00:45	-131.687	49.834	0	257.00	0	6.0570	0	33.9300	0	26.703	0	254.642	0	79.5	4	26.3	4	-1E+10	1	-1E+10	1	-1E+10	1	-1E+10	1	-1E+10	1	-1E+10	1
4902551	61	C	04/19/2022	00:45	-131.687	49.834	0	258.20	0	6.0340	0	33.9280	0	26.704	0	255.830	0	78.3	4	25.9	4	-1E+10	1	-1E+10	1	-1E+10	1	-1E+10	1	-1E+10	1	-1E+10	1
4902551	61	C	04/19/2022	00:45	-131.687	49.834	0	259.00	0	6.0400	0	33.9270	0	26.703	0	256.623	0	77.5	4	25.6	4	-1E+10	1	-1E+10	1	-1E+10	1	-1E+10	1	-1E+10	1	-1E+10	1
4902551	61	C	04/19/2022	00:45	-131.687	49.834	0	259.90	0	6.0460	0	33.9300	0	26.704	0	257.514	0	76.6	4	25.3	4	-1E+10	1	-1E+10	1	-1E+10	1	-1E+10	1	-1E+10	1	-1E+10	1
4902551	61	C	04/19/2022	00:45	-131.687	49.834	0	260.70	0	6.0650	0	33.9330	0	26.704	0	258.306	0	75.8	4	25.1	4	-1E+10	1	-1E+10	1	-1E+10	1	-1E+10	1	-1E+10	1	-1E+10	1
4902551	61	C	04/19/2022	00:45	-131.687	49.834	0	261.90	0	6.0750	0	33.9380	0	26.707	0	259.494	0	74.5	4	24.7	4	-1E+10	1	-1E+10	1	-1E+10	1	-1E+10	1	-1E+10	1	-1E+10	1
4902551	61	C	04/19/2022	00:45	-131.687	49.834	0	263.10	0	6.0770	0	33.9400	0	26.708	0	260.682	0	73.0	4	24.2	4	-1E+10	1	-1E+10	1	-1E+10	1	-1E+10	1	-1E+10	1	-1E+10	1
4902551	61	C	04/19/2022	00:45	-131.687	49.834	0	264.00	0	6.0920	0	33.9410	0	26.707	0	261.574	0	72.1	4	23.9	4	-1E+10	1	-1E+10	1	-1E+10	1	-1E+10	1	-1E+10	1	-1E+10	1
4902551	61	C	04/19/2022	00:45	-131.687	49.834	0	264.80	0	6.2090	0	33.9680	0	26.714	0	262.366	0	71.7	4	23.8	4	-1E+10	1	-1E+10	1	-1E+10	1	-1E+10	1	-1E+10	1	-1E+10	1
4902551	61	C	04/19/2022	00:45	-131.687	49.834	0	265.60	0	6.2080	0	33.9700	0	26.715	0	263.158	0	71.6	4	23.8	4	-1E+10	1	-1E+10	1	-1E+10	1	-1E+10	1	-1E+10	1	-1E+10	1
4902551	61	C	04/19/2022	00:45	-131.687	49.834	0	266.90	0	6.1580	0	33.9660	0	26.719	0	264.445	0	71.2	4	23.6	4	-1E+10	1	-1E+10	1	-1E+10	1	-1E+10	1	-1E+10	1	-1E+10	1
4902551	61	C	04/19/2022	00:45	-131.687	49.834	0	268.20	0	6.1510	0	33.9650	0	26.719	0	265.732	0	70.6	4	23.4	4	-1E+10	1	-1E+10	1	-1E+10	1	-1E+10	1	-1E+10	1	-1E+10	1
4902551	61	C	04/19/2022	00:45	-131.687	49.834	0	269.10	0	6.1540	0	33.9630	0	26.717	0	266.623	0	70.2	4	23.3	4	-1E+10	1	-1E+10	1	-1E+10	1	-1E+10	1	-1E+10	1	-1E+10	1
4902551	61	C	04/19/2022	00:45	-131.687	49.834	0	269.90	0	6.1510	0	33.9670	0	26.720	0	267.416	0	69.8	4	23.1	4	-1E+10	1	-1E+10	1	-1E+10	1	-1E+10	1	-1E+10	1	-1E+10	1
4902551	61	C	04/19/2022	00:45	-131.687	49.834	0	270.80	0	6.1520	0	33.9670	0	26.720	0	268.307	0	69.4	4	23.0	4	-1E+10	1	-1E+10	1	-1E+10	1	-1E+10	1	-1E+10	1	-1E+10	1
4902551	61	C	04/19/2022	00:45	-131.687	49.834	0	271.60	0	6.1520	0	33.9670	0	26.720	0	269.099	0	69.0	4	22.9	4	-1E+10	1	-1E+10	1	-1E+10	1	-1E+10	1	-1E+10	1	-1E+10	1
4902551	61	C	04/19/2022	00:45	-131.687	49.834	0	272.90	0	6.1400	0	33.9680	0	26.723	0	270.386	0	68.3	4	22.6	4	-1E+10	1	-1E+10	1	-1E+10	1	-1E+10	1	-1E+10	1	-1E+10	1
4902551	61	C	04/19/2022	00:45	-131.687	49.834	0	274.20	0	6.1280	0	33.9700	0	26.726	0	271.673	0	67.5	4	22.4	4	-1E+10	1	-1E+10	1	-1E+10	1	-1E+10	1	-1E+10	1	-1E+10	1
4902551	61	C	04/19/2022	00:45	-131.687	49.834	0	275.00	0	6.1210	0	33.9720	0	26.728	0	272.465	0	67.1	4	22.2	4	-1E+10	1	-1E+10	1	-1E+10	1	-1E+10	1	-1E+10	1	-1E+10	1
4902551	61	C	04/19/2022	00:45	-131.687	49.834	0	275.90	0	6.1270	0	33.9730	0	26.728	0	273.356	0	66.6	4	22.1	4	-1E+10	1	-1E+10	1	-1E+10	1	-1E+10	1	-1E+10	1	-1E+10	1
4902551	61	C	04/19/2022	00:45	-131.687	49.834	0	276.80	0	6.1260	0	33.9760	0	26.731	0	274.247	0	66.2	4	21.9	4	-1E+10	1	-1E+10	1	-1E+10	1	-1E+10	1	-1E+10	1	-1E+10	1
4902551	61	C	04/19/2022	00:45	-131.687	49.834	0	277.70	0	6.1150	0	33.9780	0	26.734	0	275.139	0	65.8	4	21.8	4	-1E+10	1	-1E+10	1	-1E+10	1	-1E+10	1	-1E+10	1	-1E+10	1
4902551	61	C	04/19/2022	00:45	-131.687	49.834	0	279.00	0	6.1050	0	33.9780	0	26.735	0	276.426	0	65.1	4	21.6	4	-1E+10	1	-1E+10	1	-1E+10	1	-1E+10	1	-1E+10	1	-1E+10	1
4902551	61	C	04/19/2022	00:45	-131.687	49.834	0	280.30	0	6.1000	0	33.9820	0	26.739	0	277.713	0	64.5	4	21.4	4	-1E+10	1	-1E+10	1	-1E+10	1	-1E+10	1	-1E+10	1	-1E+10	1
4902551	61	C	04/19/2022	00:45	-131.687	49.834	0	281.20	0	6.1000	0	33.9820	0	26.739	0	278.604	0	64.1	4	21.2	4	-1E+10	1	-1E+10	1	-1E+10	1	-1E+10	1	-1E+10	1	-1E+10	1
4902551	61	C	04/19/2022	00:45	-131.687	49.834	0	282.10	0	6.0990	0	33.9830	0	26.740	0	279.495	0	63.8	4	21.1	4	-1E+10	1	-1E+10	1	-1E+10	1	-1E+10	1	-1E+10	1	-1E+10	1
4902551	61	C	04/19/2022	00:45	-131.687	49.834	0	283.00	0	6.0930	0	33.9880	0	26.744	0	280.386	0	63.4	4	21.0	4	-1E+10	1	-1E+10	1	-1E+10	1	-1E+10	1	-1E+10	1	-1E+10	1
4902551	61	C	04/19/2022	00:45	-131.687	49.834	0	283.90	0	6.0880	0	33.9850	0	26.743	0	281.277	0	63.0	4	20.9	4	-1E+10	1	-1E+10	1	-1E+10	1	-1E+10	1	-1E+10	1	-1E+10	1
4902551	61	C	04/19/2022	00:45	-131.687	49.834	0	284.80	0	6.0800	0	33.9840	0	26.743	0	282.168	0	62.5	4	20.7	4	-1E+10	1	-1E+10	1	-1E+10	1	-1E+10	1	-1E+10	1	-1E+10	1
4902551	61	C	04/19/2022	00:45	-131.687	49.834	0	285.70	0	6.0680	0	33.9850	0	26.745	0	283.059	0	62.0	4	20.5	4	-1E+10	1	-1E+10	1	-1E+10	1	-1E+10	1	-1E+10	1	-1E+10	1
4902551	61	C	04/19/2022	00:45	-131.687	49.834	0	286.60	0	6.0590	0	33.9870	0	26.748	0	283.950	0	61.6	4	20.4	4	-1E+10	1	-1E+10	1	-1E+10	1	-1E+10	1	-1E+10	1	-1E+10	1
4902551	61	C	04/19/2022	00:45	-131.687	49.834	0	287.90	0	6.0660	0	33.9880	0	26.748	0	285.237	0	60.8	4	20.1	4	-1E+10	1	-1E+10	1	-1E+10	1	-1E+10	1	-1E+10	1	-1E+10	1
4902551	61	C	04/19/2022	00:45	-131.687	49.834	0	289.30	0	6.0900	0	33.9960	0	26.751	0	286.624	0	60.3	4	20.0	4	-1E+10	1	-1E+10	1	-1E+10	1	-1E+10	1	-1E+10	1	-1E+10	1
4902551	61	C	04/19/2022	00:45	-131.687	49.834	0	290.20	0	6.0870	0	33.9980	0	26.753	0	287.515	0	60.1	4	19.9	4	-1E+10	1	-1E+10	1	-1E+10	1	-1E+10	1	-1E+10	1	-1E+10	1
4902551	61	C	04/19/2022	00:45	-131.687	49.834	0	291.10	0	6.0870	0	33.9990	0	26.754	0	288.406	0	59.9	4	19.8	4	-1E+10	1	-1E+10	1	-1E+10	1	-1E+10	1	-1E+10	1	-1E+10	1
4902551	61	C	04/19/2022	00:45	-131.687	49.834	0	292.00	0	6.0890	0	33.9990	0	26.754	0	289.297	0	59.7	4	19.8	4	-1E+10	1	-1E+10	1	-1E+10	1	-1E+10	1	-1E+10	1	-1E+10	1
4902551	61	C	04/19/2022	00:45	-131.687	49.834	0	292.90	0	6.0900	0	34.0000	0	26.754	0	290.188	0	59.4	4	19.7	4	-1E+10	1	-1E+10	1	-1E+10	1	-1E+10	1	-1E+10	1	-1E+10	1
4902551	61	C	04/19/2022	00:45	-131.687	49.834	0	293.80	0	6.0930	0	34.0000	0	26.754	0	291.079	0	59.2	4	19.6	4	-1E+10	1	-1E+10	1	-1E+10	1	-1E+10	1	-1E+10	1	-1E+10	1
4902551	61	C	04/19/2022	00:45	-131.687	49.834	0	294.70	0	6.0930	0	34.0000	0	26.754	0	291.970	0	59.0	4	19.6	4	-1E+10	1	-1E+10	1	-1E+10	1	-1E+10	1	-1E+10	1	-1E+10	1
4902551	61	C	04/19/2022	00:45	-131.687	49.834	0	295.70	0	6.0870	0	34.0010	0	26.756	0	292.960	0	58.8	4	19.5	4	-1E+10	1	-1E+10	1	-1E+10	1	-1E+10	1	-1E+10	1	-1E+10	1
4902551	61	C	04/19/2022	00:45	-131.687	49.834	0	296.60	0	6.0820	0	34.0010	0	26.756	0	293.851	0	58.6	4	19.4	4	-1E+10	1	-1E+10	1	-1E+10	1	-1E+10	1	-1E+10	1	-1E+10	1
4902551	61	C	04/19/2022	00:45	-131.687	49.834	0	297.50	0	6.0620	0	34.0050	0	26.762	0	294.742	0	58.4	4	19.3	4	-1E+10	1	-1E+10	1	-1E+10	1	-1E+10	1	-1E+10	1	-1E+10	1
4902551	61	C	04/19/2022	00:45	-131.687	49.834	0	298.90	0	6.0410	0	34.0050	0	26.765	0	296.128	0	58.3	4	19.3	4	-1E+10	1	-1E+10	1	-1E+10	1	-1E+10	1	-1E+10	1	-1E+10	1
4902551	61	C	04/19/2022	00:45	-131.687	49.834	0	300.30	0	6.0260	0	34.0060	0	26.767	0	297.514	0	58.2	4	19.3	4	-1E+10	1	-1E+10	1	-1E+10	1	-1E+10	1	-1E+10	1	-1E+10	1
4902551	61	C	04/19/2022	00:45	-131.687	49.834	0	301.30	0	6.0160	0	34.0070	0	26.769	0	298.504	0	58.2	4	19.3	4	-1E+10	1	-1E+10	1	-1E+10	1	-1E+10	1	-1E+10	1	-1E+10	1
4902551	61	C	04/19/2022	00:45	-131.687	49.834	0	302.20	0	6.0120	0	34.0060	0	26.769	0	299.395	0	58.2	4	19.2	4	-1E+10	1	-1E+10	1	-1E+10	1	-1E+10	1	-1E+10	1	-1E+10	1
4902551	61	C	04/19/2022	00:45	-131.687	49.834	0	303.10	0	6.0060	0	34.0050	0	26.769	0	300.286	0	58.2	4	19.2	4	-1E+10	1	-1E+10	1	-1E+10	1	-1E+10	1	-1E+10	1	-1E+10	1
4902551	61	C	04/19/2022	00:45	-131.687	49.834	0	304.00	0	5.9820	0	34.0040	0	26.771	0	301.177	0	58.1	4	19.2	4	-1E+10	1	-1E+10	1	-1E+10	1	-1E+10	1	-1E+10	1	-1E+10	1
4902551	61	C	04/19/2022	00:45	-131.687	49.834	0	305.00	0	5.9600	0	34.0010	0	26.772	0	302.167	0	58.0	4	19.1	4	-1E+10	1	-1E+10	1	-1E+10	1	-1E+10	1	-1E+10	1	-1E+10	1
4902551	61	C	04/19/2022	00:45	-131.687	49.834	0	305.90	0	5.9540	0	34.0030	0	26.774	0	303.058	0	57.9	4	19.1	4	-1E+10	1	-1E+10	1	-1E+10	1	-1E+10	1	-1E+10	1	-1E+10	1
4902551	61	C	04/19/2022	00:45	-131.687	49.834	0	306.80	0	5.9560	0	34.0030	0	26.774	0	303.949	0	57.8	4	19.1	4	-1E+10	1	-1E+10	1	-1E+10	1	-1E+10	1	-1E+10	1	-1E+10	1
4902551	61	C	04/19/2022	00:45	-131.687	49.834	0	307.70	0	5.9580	0	34.0030	0	26.774	0	304.840	0	57.7	4	19.1	4	-1E+10	1	-1E+10	1	-1E+10	1	-1E+10	1	-1E+10	1	-1E+10	1
4902551	61	C	04/19/2022	00:45	-131.687	49.834	0	308.60	0	5.9530	0	34.0050	0	26.776	0	305.731	0	57.6	4	19.0	4	-1E+10	1	-1E+10	1	-1E+10	1	-1E+10	1	-1E+10	1	-1E+10	1
4902551	61	C	04/19/2022	00:45	-131.687	49.834	0	309.90	0	5.9330	0	34.0040	0	26.777	0	307.018	0	57.6	4	19.0	4	-1E+10	1	-1E+10	1	-1E+10	1	-1E+10	1	-1E+10	1	-1E+10	1
4902551	61	C	04/19/2022	00:45	-131.687	49.834	0	311.40	0	5.9300	0	34.0060	0	26.779	0	308.503	0	57.6	4	19.0	4	-1E+10	1	-1E+10	1	-1E+10	1	-1E+10	1	-1E+10	1	-1E+10	1
4902551	61	C	04/19/2022	00:45	-131.687	49.834	0	312.30	0	5.9100	0	34.0050	0	26.781	0	309.394	0	57.7	4	19.0	4	-1E+10	1	-1E+10	1	-1E+10	1	-1E+10	1	-1E+10	1	-1E+10	1
4902551	61	C	04/19/2022	00:45	-131.687	49.834	0	313.20	0	5.8980	0	34.0060	0	26.783	0	310.285	0	57.7	4	19.0	4	-1E+10	1	-1E+10	1	-1E+10	1	-1E+10	1	-1E+10	1	-1E+10	1
4902551	61	C	04/19/2022	00:45	-131.687	49.834	0	314.10	0	5.8830	0	34.0060	0	26.785	0	311.175	0	57.7	4	19.0	4	-1E+10	1	-1E+10	1	-1E+10	1	-1E+10	1	-1E+10	1	-1E+10	1
4902551	61	C	04/19/2022	00:45	-131.687	49.834	0	315.10	0	5.8590	0	34.0060	0	26.788	0	312.165	0	57.8	4	19.1	4	-1E+10	1	-1E+10	1	-1E+10	1	-1E+10	1	-1E+10	1	-1E+10	1
4902551	61	C	04/19/2022	00:45	-131.687	49.834	0	316.00	0	5.8310	0	34.0080	0	26.793	0	313.056	0	57.9	4	19.1	4	-1E+10	1	-1E+10	1	-1E+10	1	-1E+10	1	-1E+10	1	-1E+10	1
4902551	61	C	04/19/2022	00:45	-131.687	49.834	0	316.90	0	5.8200	0	34.0030	0	26.791	0	313.947	0	58.0	4	19.1	4	-1E+10	1	-1E+10	1	-1E+10	1	-1E+10	1	-1E+10	1	-1E+10	1
4902551	61	C	04/19/2022	00:45	-131.687	49.834	0	317.90	0	5.8180	0	34.0030	0	26.791	0	314.937	0	58.1	4	19.1	4	-1E+10	1	-1E+10	1	-1E+10	1	-1E+10	1	-1E+10	1	-1E+10	1
4902551	61	C	04/19/2022	00:45	-131.687	49.834	0	318.80	0	5.8110	0	34.0060	0	26.794	0	315.828	0	58.1	4	19.1	4	-1E+10	1	-1E+10	1	-1E+10	1	-1E+10	1	-1E+10	1	-1E+10	1
4902551	61	C	04/19/2022	00:45	-131.687	49.834	0	319.70	0	5.8050	0	33.9990	0	26.789	0	316.719	0	58.2	4	19.2	4	-1E+10	1	-1E+10	1	-1E+10	1	-1E+10	1	-1E+10	1	-1E+10	1
4902551	61	C	04/19/2022	00:45	-131.687	49.834	0	320.70	0	5.7990	0	33.9950	0	26.787	0	317.709	0	58.2	4	19.2	4	-1E+10	1	-1E+10	1	-1E+10	1	-1E+10	1	-1E+10	1	-1E+10	1
4902551	61	C	04/19/2022	00:45	-131.687	49.834	0	321.60	0	5.7920	0	34.0020	0	26.793	0	318.600	0	58.3	4	19.2	4	-1E+10	1	-1E+10	1	-1E+10	1	-1E+10	1	-1E+10	1	-1E+10	1
4902551	61	C	04/19/2022	00:45	-131.687	49.834	0	322.50	0	5.7930	0	34.0010	0	26.793	0	319.491	0	58.4	4	19.2	4	-1E+10	1	-1E+10	1	-1E+10	1	-1E+10	1	-1E+10	1	-1E+10	1
4902551	61	C	04/19/2022	00:45	-131.687	49.834	0	323.90	0	5.7910	0	34.0000	0	26.792	0	320.877	0	58.5	4	19.2	4	-1E+10	1	-1E+10	1	-1E+10	1	-1E+10	1	-1E+10	1	-1E+10	1
4902551	61	C	04/19/2022	00:45	-131.687	49.834	0	325.40	0	5.7810	0	34.0030	0	26.796	0	322.361	0	58.7	4	19.3	4	-1E+10	1	-1E+10	1	-1E+10	1	-1E+10	1	-1E+10	1	-1E+10	1
4902551	61	C	04/19/2022	00:45	-131.687	49.834	0	326.40	0	5.7740	0	34.0010	0	26.795	0	323.351	0	58.8	4	19.3	4	-1E+10	1	-1E+10	1	-1E+10	1	-1E+10	1	-1E+10	1	-1E+10	1
4902551	61	C	04/19/2022	00:45	-131.687	49.834	0	327.30	0	5.7540	0	34.0010	0	26.797	0	324.242	0	59.0	4	19.4	4	-1E+10	1	-1E+10	1	-1E+10	1	-1E+10	1	-1E+10	1	-1E+10	1
4902551	61	C	04/19/2022	00:45	-131.687	49.834	0	328.30	0	5.7270	0	33.9980	0	26.798	0	325.232	0	59.2	4	19.4	4	-1E+10	1	-1E+10	1	-1E+10	1	-1E+10	1	-1E+10	1	-1E+10	1
4902551	61	C	04/19/2022	00:45	-131.687	49.834	0	329.30	0	5.7320	0	34.0000	0	26.799	0	326.222	0	59.4	4	19.5	4	-1E+10	1	-1E+10	1	-1E+10	1	-1E+10	1	-1E+10	1	-1E+10	1
4902551	61	C	04/19/2022	00:45	-131.687	49.834	0	330.20	0	5.7310	0	34.0020	0	26.801	0	327.113	0	59.8	4	19.6	4	-1E+10	1	-1E+10	1	-1E+10	1	-1E+10	1	-1E+10	1	-1E+10	1
4902551	61	C	04/19/2022	00:45	-131.687	49.834	0	331.20	0	5.7300	0	34.0010	0	26.800	0	328.103	0	60.3	4	19.8	4	-1E+10	1	-1E+10	1	-1E+10	1	-1E+10	1	-1E+10	1	-1E+10	1
4902551	61	C	04/19/2022	00:45	-131.687	49.834	0	332.10	0	5.7220	0	34.0020	0	26.802	0	328.994	0	60.8	4	20.0	4	-1E+10	1	-1E+10	1	-1E+10	1	-1E+10	1	-1E+10	1	-1E+10	1
4902551	61	C	04/19/2022	00:45	-131.687	49.834	0	333.10	0	5.7170	0	34.0000	0	26.801	0	329.983	0	61.3	4	20.1	4	-1E+10	1	-1E+10	1	-1E+10	1	-1E+10	1	-1E+10	1	-1E+10	1
4902551	61	C	04/19/2022	00:45	-131.687	49.834	0	334.00	0	5.6680	0	33.9990	0	26.806	0	330.874	0	61.9	4	20.3	4	-1E+10	1	-1E+10	1	-1E+10	1	-1E+10	1	-1E+10	1	-1E+10	1
4902551	61	C	04/19/2022	00:45	-131.687	49.834	0	335.00	0	5.6580	0	33.9890	0	26.800	0	331.864	0	62.5	4	20.5	4	-1E+10	1	-1E+10	1	-1E+10	1	-1E+10	1	-1E+10	1	-1E+10	1
4902551	61	C	04/19/2022	00:45	-131.687	49.834	0	335.90	0	5.6180	0	33.9990	0	26.812	0	332.755	0	62.9	4	20.6	4	-1E+10	1	-1E+10	1	-1E+10	1	-1E+10	1	-1E+10	1	-1E+10	1
4902551	61	C	04/19/2022	00:45	-131.687	49.834	0	336.90	0	5.5790	0	33.9800	0	26.802	0	333.745	0	63.4	4	20.8	4	-1E+10	1	-1E+10	1	-1E+10	1	-1E+10	1	-1E+10	1	-1E+10	1
4902551	61	C	04/19/2022	00:45	-131.687	49.834	0	337.80	0	5.4840	0	33.9840	0	26.817	0	334.636	0	63.8	4	20.8	4	-1E+10	1	-1E+10	1	-1E+10	1	-1E+10	1	-1E+10	1	-1E+10	1
4902551	61	C	04/19/2022	00:45	-131.687	49.834	0	338.80	0	5.4330	0	33.9650	0	26.808	0	335.625	0	63.9	4	20.8	4	-1E+10	1	-1E+10	1	-1E+10	1	-1E+10	1	-1E+10	1	-1E+10	1
4902551	61	C	04/19/2022	00:45	-131.687	49.834	0	339.70	0	5.3960	0	33.9630	0	26.810	0	336.516	0	63.9	4	20.8	4	-1E+10	1	-1E+10	1	-1E+10	1	-1E+10	1	-1E+10	1	-1E+10	1
4902551	61	C	04/19/2022	00:45	-131.687	49.834	0	340.70	0	5.4010	0	33.9640	0	26.811	0	337.506	0	63.9	4	20.8	4	-1E+10	1	-1E+10	1	-1E+10	1	-1E+10	1	-1E+10	1	-1E+10	1
4902551	61	C	04/19/2022	00:45	-131.687	49.834	0	341.60	0	5.3980	0	33.9660	0	26.813	0	338.397	0	63.9	4	20.8	4	-1E+10	1	-1E+10	1	-1E+10	1	-1E+10	1	-1E+10	1	-1E+10	1
4902551	61	C	04/19/2022	00:45	-131.687	49.834	0	342.50	0	5.3870	0	33.9650	0	26.813	0	339.288	0	63.9	4	20.8	4	-1E+10	1	-1E+10	1	-1E+10	1	-1E+10	1	-1E+10	1	-1E+10	1
4902551	61	C	04/19/2022	00:45	-131.687	49.834	0	343.90	0	5.3610	0	33.9630	0	26.815	0	340.673	0	63.9	4	20.8	4	-1E+10	1	-1E+10	1	-1E+10	1	-1E+10	1	-1E+10	1	-1E+10	1
4902551	61	C	04/19/2022	00:45	-131.687	49.834	0	345.30	0	5.3410	0	33.9600	0	26.815	0	342.059	0	63.8	4	20.8	4	-1E+10	1	-1E+10	1	-1E+10	1	-1E+10	1	-1E+10	1	-1E+10	1
4902551	61	C	04/19/2022	00:45	-131.687	49.834	0	346.30	0	5.3250	0	33.9620	0	26.818	0	343.049	0	63.6	4	20.7	4	-1E+10	1	-1E+10	1	-1E+10	1	-1E+10	1	-1E+10	1	-1E+10	1
4902551	61	C	04/19/2022	00:45	-131.687	49.834	0	347.20	0	5.3080	0	33.9590	0	26.818	0	343.940	0	63.5	4	20.6	4	-1E+10	1	-1E+10	1	-1E+10	1	-1E+10	1	-1E+10	1	-1E+10	1
4902551	61	C	04/19/2022	00:45	-131.687	49.834	0	348.10	0	5.2700	0	33.9590	0	26.822	0	344.831	0	63.3	4	20.6	4	-1E+10	1	-1E+10	1	-1E+10	1	-1E+10	1	-1E+10	1	-1E+10	1
4902551	61	C	04/19/2022	00:45	-131.687	49.834	0	349.00	0	5.2630	0	33.9550	0	26.820	0	345.721	0	63.1	4	20.5	4	-1E+10	1	-1E+10	1	-1E+10	1	-1E+10	1	-1E+10	1	-1E+10	1
4902551	61	C	04/19/2022	00:45	-131.687	49.834	0	349.90	0	5.2620	0	33.9560	0	26.821	0	346.612	0	62.7	4	20.4	4	-1E+10	1	-1E+10	1	-1E+10	1	-1E+10	1	-1E+10	1	-1E+10	1
4902551	61	C	04/19/2022	00:45	-131.687	49.834	0	353.00	0	5.2500	0	33.9570	0	26.823	0	349.680	0	61.3	4	19.9	4	-1E+10	1	-1E+10	1	-1E+10	1	-1E+10	1	-1E+10	1	-1E+10	1
4902551	61	C	04/19/2022	00:45	-131.687	49.834	0	357.90	0	5.2220	0	33.9620	0	26.830	0	354.530	0	58.9	4	19.1	4	-1E+10	1	-1E+10	1	-1E+10	1	-1E+10	1	-1E+10	1	-1E+10	1
4902551	61	C	04/19/2022	00:45	-131.687	49.834	0	362.90	0	5.1680	0	33.9720	0	26.844	0	359.479	0	56.6	4	18.3	4	-1E+10	1	-1E+10	1	-1E+10	1	-1E+10	1	-1E+10	1	-1E+10	1
4902551	61	C	04/19/2022	00:45	-131.687	49.834	0	368.00	0	5.1350	0	33.9790	0	26.854	0	364.526	0	54.7	4	17.7	4	-1E+10	1	-1E+10	1	-1E+10	1	-1E+10	1	-1E+10	1	-1E+10	1
4902551	61	C	04/19/2022	00:45	-131.687	49.834	0	372.70	0	5.1310	0	33.9880	0	26.861	0	369.178	0	54.2	4	17.5	4	-1E+10	1	-1E+10	1	-1E+10	1	-1E+10	1	-1E+10	1	-1E+10	1
4902551	61	C	04/19/2022	00:45	-131.687	49.834	0	377.50	0	5.0470	0	33.9840	0	26.868	0	373.928	0	53.7	4	17.4	4	-1E+10	1	-1E+10	1	-1E+10	1	-1E+10	1	-1E+10	1	-1E+10	1
4902551	61	C	04/19/2022	00:45	-131.687	49.834	0	382.90	0	5.0160	0	33.9840	0	26.871	0	379.272	0	52.4	4	16.9	4	-1E+10	1	-1E+10	1	-1E+10	1	-1E+10	1	-1E+10	1	-1E+10	1
4902551	61	C	04/19/2022	00:45	-131.687	49.834	0	388.20	0	4.9850	0	33.9880	0	26.878	0	384.517	0	50.7	4	16.4	4	-1E+10	1	-1E+10	1	-1E+10	1	-1E+10	1	-1E+10	1	-1E+10	1
4902551	61	C	04/19/2022	00:45	-131.687	49.834	0	393.00	0	4.9510	0	33.9920	0	26.885	0	389.267	0	49.1	4	15.8	4	-1E+10	1	-1E+10	1	-1E+10	1	-1E+10	1	-1E+10	1	-1E+10	1
4902551	61	C	04/19/2022	00:45	-131.687	49.834	0	397.80	0	4.9220	0	34.0000	0	26.895	0	394.017	0	47.2	4	15.2	4	-1E+10	1	-1E+10	1	-1E+10	1	-1E+10	1	-1E+10	1	-1E+10	1
4902551	61	C	04/19/2022	00:45	-131.687	49.834	0	402.70	0	4.8840	0	34.0070	0	26.905	0	398.865	0	45.8	4	14.8	4	-1E+10	1	-1E+10	1	-1E+10	1	-1E+10	1	-1E+10	1	-1E+10	1
4902551	61	C	04/19/2022	00:45	-131.687	49.834	0	407.70	0	4.8650	0	34.0120	0	26.911	0	403.813	0	44.6	4	14.4	4	-1E+10	1	-1E+10	1	-1E+10	1	-1E+10	1	-1E+10	1	-1E+10	1
4902551	61	C	04/19/2022	00:45	-131.687	49.834	0	412.70	0	4.8450	0	34.0150	0	26.916	0	408.760	0	43.1	4	13.9	4	-1E+10	1	-1E+10	1	-1E+10	1	-1E+10	1	-1E+10	1	-1E+10	1
4902551	61	C	04/19/2022	00:45	-131.687	49.834	0	417.70	0	4.8150	0	34.0230	0	26.925	0	413.708	0	41.7	4	13.4	4	-1E+10	1	-1E+10	1	-1E+10	1	-1E+10	1	-1E+10	1	-1E+10	1
4902551	61	C	04/19/2022	00:45	-131.687	49.834	0	422.90	0	4.8030	0	34.0310	0	26.933	0	418.853	0	40.7	4	13.1	4	-1E+10	1	-1E+10	1	-1E+10	1	-1E+10	1	-1E+10	1	-1E+10	1
4902551	61	C	04/19/2022	00:45	-131.687	49.834	0	428.20	0	4.7690	0	34.0340	0	26.939	0	424.096	0	40.0	4	12.9	4	-1E+10	1	-1E+10	1	-1E+10	1	-1E+10	1	-1E+10	1	-1E+10	1
4902551	61	C	04/19/2022	00:45	-131.687	49.834	0	433.00	0	4.7410	0	34.0370	0	26.945	0	428.845	0	39.4	4	12.6	4	-1E+10	1	-1E+10	1	-1E+10	1	-1E+10	1	-1E+10	1	-1E+10	1
4902551	61	C	04/19/2022	00:45	-131.687	49.834	0	437.90	0	4.7290	0	34.0400	0	26.949	0	433.693	0	39.0	4	12.5	4	-1E+10	1	-1E+10	1	-1E+10	1	-1E+10	1	-1E+10	1	-1E+10	1
4902551	61	C	04/19/2022	00:45	-131.687	49.834	0	442.90	0	4.6900	0	34.0420	0	26.954	0	438.640	0	38.6	4	12.4	4	-1E+10	1	-1E+10	1	-1E+10	1	-1E+10	1	-1E+10	1	-1E+10	1
4902551	61	C	04/19/2022	00:45	-131.687	49.834	0	447.80	0	4.6210	0	34.0420	0	26.962	0	443.488	0	38.1	4	12.2	4	-1E+10	1	-1E+10	1	-1E+10	1	-1E+10	1	-1E+10	1	-1E+10	1
4902551	61	C	04/19/2022	00:45	-131.687	49.834	0	452.80	0	4.5900	0	34.0420	0	26.965	0	448.434	0	37.0	4	11.8	4	-1E+10	1	-1E+10	1	-1E+10	1	-1E+10	1	-1E+10	1	-1E+10	1
4902551	61	C	04/19/2022	00:45	-131.687	49.834	0	457.80	0	4.5920	0	34.0490	0	26.971	0	453.380	0	35.7	4	11.4	4	-1E+10	1	-1E+10	1	-1E+10	1	-1E+10	1	-1E+10	1	-1E+10	1
4902551	61	C	04/19/2022	00:45	-131.687	49.834	0	462.90	0	4.5860	0	34.0540	0	26.975	0	458.426	0	34.3	4	11.0	4	-1E+10	1	-1E+10	1	-1E+10	1	-1E+10	1	-1E+10	1	-1E+10	1
4902551	61	C	04/19/2022	00:45	-131.687	49.834	0	468.10	0	4.6180	0	34.0630	0	26.979	0	463.570	0	33.1	4	10.6	4	-1E+10	1	-1E+10	1	-1E+10	1	-1E+10	1	-1E+10	1	-1E+10	1
4902551	61	C	04/19/2022	00:45	-131.687	49.834	0	473.00	0	4.6050	0	34.0680	0	26.985	0	468.417	0	32.2	4	10.3	4	-1E+10	1	-1E+10	1	-1E+10	1	-1E+10	1	-1E+10	1	-1E+10	1
4902551	61	C	04/19/2022	00:45	-131.687	49.834	0	478.00	0	4.5670	0	34.0730	0	26.993	0	473.362	0	31.0	4	9.9	4	-1E+10	1	-1E+10	1	-1E+10	1	-1E+10	1	-1E+10	1	-1E+10	1
4902551	61	C	04/19/2022	00:45	-131.687	49.834	0	483.20	0	4.5270	0	34.0790	0	27.002	0	478.506	0	30.1	4	9.6	4	-1E+10	1	-1E+10	1	-1E+10	1	-1E+10	1	-1E+10	1	-1E+10	1
4902551	61	C	04/19/2022	00:45	-131.687	49.834	0	487.90	0	4.5020	0	34.0840	0	27.009	0	483.155	0	29.5	4	9.4	4	-1E+10	1	-1E+10	1	-1E+10	1	-1E+10	1	-1E+10	1	-1E+10	1
4902551	61	C	04/19/2022	00:45	-131.687	49.834	0	492.80	0	4.4910	0	34.0890	0	27.014	0	488.001	0	29.1	4	9.3	4	-1E+10	1	-1E+10	1	-1E+10	1	-1E+10	1	-1E+10	1	-1E+10	1
4902551	61	C	04/19/2022	00:45	-131.687	49.834	0	497.80	0	4.4890	0	34.0910	0	27.016	0	492.947	0	28.7	4	9.2	4	-1E+10	1	-1E+10	1	-1E+10	1	-1E+10	1	-1E+10	1	-1E+10	1
4902551	61	C	04/19/2022	00:45	-131.687	49.834	0	502.80	0	4.4820	0	34.0920	0	27.017	0	497.892	0	28.4	4	9.1	4	-1E+10	1	-1E+10	1	-1E+10	1	-1E+10	1	-1E+10	1	-1E+10	1
4902551	61	C	04/19/2022	00:45	-131.687	49.834	0	507.80	0	4.4670	0	34.0950	0	27.021	0	502.837	0	28.0	4	8.9	4	-1E+10	1	-1E+10	1	-1E+10	1	-1E+10	1	-1E+10	1	-1E+10	1
4902551	61	C	04/19/2022	00:45	-131.687	49.834	0	512.80	0	4.4460	0	34.0960	0	27.024	0	507.782	0	27.4	4	8.7	4	-1E+10	1	-1E+10	1	-1E+10	1	-1E+10	1	-1E+10	1	-1E+10	1
4902551	61	C	04/19/2022	00:45	-131.687	49.834	0	517.90	0	4.4290	0	34.0990	0	27.029	0	512.826	0	26.9	4	8.6	4	-1E+10	1	-1E+10	1	-1E+10	1	-1E+10	1	-1E+10	1	-1E+10	1
4902551	61	C	04/19/2022	00:45	-131.687	49.834	0	523.20	0	4.4260	0	34.0990	0	27.029	0	518.068	0	26.2	4	8.4	4	-1E+10	1	-1E+10	1	-1E+10	1	-1E+10	1	-1E+10	1	-1E+10	1
4902551	61	C	04/19/2022	00:45	-131.687	49.834	0	527.80	0	4.4300	0	34.1040	0	27.033	0	522.617	0	25.3	4	8.1	4	-1E+10	1	-1E+10	1	-1E+10	1	-1E+10	1	-1E+10	1	-1E+10	1
4902551	61	C	04/19/2022	00:45	-131.687	49.834	0	532.60	0	4.4320	0	34.1140	0	27.040	0	527.363	0	24.8	4	7.9	4	-1E+10	1	-1E+10	1	-1E+10	1	-1E+10	1	-1E+10	1	-1E+10	1
4902551	61	C	04/19/2022	00:45	-131.687	49.834	0	538.00	0	4.4290	0	34.1140	0	27.041	0	532.703	0	24.4	4	7.8	4	-1E+10	1	-1E+10	1	-1E+10	1	-1E+10	1	-1E+10	1	-1E+10	1
4902551	61	C	04/19/2022	00:45	-131.687	49.834	0	542.90	0	4.4310	0	34.1160	0	27.042	0	537.549	0	23.8	4	7.6	4	-1E+10	1	-1E+10	1	-1E+10	1	-1E+10	1	-1E+10	1	-1E+10	1
4902551	61	C	04/19/2022	00:45	-131.687	49.834	0	547.90	0	4.4360	0	34.1210	0	27.046	0	542.493	0	23.2	4	7.4	4	-1E+10	1	-1E+10	1	-1E+10	1	-1E+10	1	-1E+10	1	-1E+10	1
4902551	61	C	04/19/2022	00:45	-131.687	49.834	0	552.80	0	4.4380	0	34.1260	0	27.049	0	547.338	0	22.8	4	7.3	4	-1E+10	1	-1E+10	1	-1E+10	1	-1E+10	1	-1E+10	1	-1E+10	1
4902551	61	C	04/19/2022	00:45	-131.687	49.834	0	557.90	0	4.4330	0	34.1280	0	27.052	0	552.381	0	22.5	4	7.2	4	-1E+10	1	-1E+10	1	-1E+10	1	-1E+10	1	-1E+10	1	-1E+10	1
4902551	61	C	04/19/2022	00:45	-131.687	49.834	0	563.10	0	4.4330	0	34.1290	0	27.052	0	557.523	0	22.0	4	7.0	4	-1E+10	1	-1E+10	1	-1E+10	1	-1E+10	1	-1E+10	1	-1E+10	1
4902551	61	C	04/19/2022	00:45	-131.687	49.834	0	568.10	0	4.4240	0	34.1320	0	27.056	0	562.466	0	21.4	4	6.8	4	-1E+10	1	-1E+10	1	-1E+10	1	-1E+10	1	-1E+10	1	-1E+10	1
4902551	61	C	04/19/2022	00:45	-131.687	49.834	0	573.20	0	4.4050	0	34.1370	0	27.062	0	567.509	0	20.8	4	6.6	4	-1E+10	1	-1E+10	1	-1E+10	1	-1E+10	1	-1E+10	1	-1E+10	1
4902551	61	C	04/19/2022	00:45	-131.687	49.834	0	577.80	0	4.3850	0	34.1410	0	27.067	0	572.057	0	20.4	4	6.5	4	-1E+10	1	-1E+10	1	-1E+10	1	-1E+10	1	-1E+10	1	-1E+10	1
4902551	61	C	04/19/2022	00:45	-131.687	49.834	0	583.10	0	4.3580	0	34.1460	0	27.074	0	577.297	0	20.0	4	6.4	4	-1E+10	1	-1E+10	1	-1E+10	1	-1E+10	1	-1E+10	1	-1E+10	1
4902551	61	C	04/19/2022	00:45	-131.687	49.834	0	588.30	0	4.3500	0	34.1480	0	27.077	0	582.438	0	19.5	4	6.2	4	-1E+10	1	-1E+10	1	-1E+10	1	-1E+10	1	-1E+10	1	-1E+10	1
4902551	61	C	04/19/2022	00:45	-131.687	49.834	0	592.80	0	4.3430	0	34.1540	0	27.082	0	586.887	0	19.1	4	6.1	4	-1E+10	1	-1E+10	1	-1E+10	1	-1E+10	1	-1E+10	1	-1E+10	1
4902551	61	C	04/19/2022	00:45	-131.687	49.834	0	597.80	0	4.3220	0	34.1550	0	27.085	0	591.830	0	18.8	4	6.0	4	-1E+10	1	-1E+10	1	-1E+10	1	-1E+10	1	-1E+10	1	-1E+10	1
4902551	61	C	04/19/2022	00:45	-131.687	49.834	0	602.80	0	4.2940	0	34.1600	0	27.092	0	596.773	0	18.5	4	5.9	4	-1E+10	1	-1E+10	1	-1E+10	1	-1E+10	1	-1E+10	1	-1E+10	1
4902551	61	C	04/19/2022	00:45	-131.687	49.834	0	607.70	0	4.2740	0	34.1620	0	27.096	0	601.617	0	18.3	4	5.8	4	-1E+10	1	-1E+10	1	-1E+10	1	-1E+10	1	-1E+10	1	-1E+10	1
4902551	61	C	04/19/2022	00:45	-131.687	49.834	0	613.20	0	4.2490	0	34.1650	0	27.101	0	607.053	0	18.0	4	5.7	4	-1E+10	1	-1E+10	1	-1E+10	1	-1E+10	1	-1E+10	1	-1E+10	1
4902551	61	C	04/19/2022	00:45	-131.687	49.834	0	618.10	0	4.2410	0	34.1670	0	27.103	0	611.897	0	17.8	4	5.7	4	-1E+10	1	-1E+10	1	-1E+10	1	-1E+10	1	-1E+10	1	-1E+10	1
4902551	61	C	04/19/2022	00:45	-131.687	49.834	0	623.00	0	4.2250	0	34.1710	0	27.108	0	616.741	0	17.7	4	5.6	4	-1E+10	1	-1E+10	1	-1E+10	1	-1E+10	1	-1E+10	1	-1E+10	1
4902551	61	C	04/19/2022	00:45	-131.687	49.834	0	627.80	0	4.1830	0	34.1740	0	27.115	0	621.485	0	17.7	4	5.6	4	-1E+10	1	-1E+10	1	-1E+10	1	-1E+10	1	-1E+10	1	-1E+10	1
4902551	61	C	04/19/2022	00:45	-131.687	49.834	0	632.80	0	4.1690	0	34.1740	0	27.117	0	626.428	0	17.6	4	5.6	4	-1E+10	1	-1E+10	1	-1E+10	1	-1E+10	1	-1E+10	1	-1E+10	1
4902551	61	C	04/19/2022	00:45	-131.687	49.834	0	637.80	0	4.1510	0	34.1740	0	27.118	0	631.370	0	17.6	4	5.6	4	-1E+10	1	-1E+10	1	-1E+10	1	-1E+10	1	-1E+10	1	-1E+10	1
4902551	61	C	04/19/2022	00:45	-131.687	49.834	0	642.60	0	4.1310	0	34.1740	0	27.121	0	636.114	0	17.2	4	5.4	4	-1E+10	1	-1E+10	1	-1E+10	1	-1E+10	1	-1E+10	1	-1E+10	1
4902551	61	C	04/19/2022	00:45	-131.687	49.834	0	647.90	0	4.0970	0	34.1830	0	27.131	0	641.352	0	16.5	4	5.2	4	-1E+10	1	-1E+10	1	-1E+10	1	-1E+10	1	-1E+10	1	-1E+10	1
4902551	61	C	04/19/2022	00:45	-131.687	49.834	0	653.20	0	4.0980	0	34.1930	0	27.139	0	646.590	0	16.3	4	5.1	4	-1E+10	1	-1E+10	1	-1E+10	1	-1E+10	1	-1E+10	1	-1E+10	1
4902551	61	C	04/19/2022	00:45	-131.687	49.834	0	658.20	0	4.0850	0	34.1950	0	27.142	0	651.532	0	16.3	4	5.2	4	-1E+10	1	-1E+10	1	-1E+10	1	-1E+10	1	-1E+10	1	-1E+10	1
4902551	61	C	04/19/2022	00:45	-131.687	49.834	0	662.90	0	4.0610	0	34.1960	0	27.145	0	656.177	0	16.5	4	5.2	4	-1E+10	1	-1E+10	1	-1E+10	1	-1E+10	1	-1E+10	1	-1E+10	1
4902551	61	C	04/19/2022	00:45	-131.687	49.834	0	667.80	0	4.0150	0	34.1970	0	27.151	0	661.020	0	16.6	4	5.2	4	-1E+10	1	-1E+10	1	-1E+10	1	-1E+10	1	-1E+10	1	-1E+10	1
4902551	61	C	04/19/2022	00:45	-131.687	49.834	0	673.00	0	3.9920	0	34.1970	0	27.153	0	666.158	0	16.7	4	5.3	4	-1E+10	1	-1E+10	1	-1E+10	1	-1E+10	1	-1E+10	1	-1E+10	1
4902551	61	C	04/19/2022	00:45	-131.687	49.834	0	678.00	0	3.9690	0	34.1960	0	27.155	0	671.100	0	16.8	4	5.3	4	-1E+10	1	-1E+10	1	-1E+10	1	-1E+10	1	-1E+10	1	-1E+10	1
4902551	61	C	04/19/2022	00:45	-131.687	49.834	0	682.90	0	3.9460	0	34.1970	0	27.158	0	675.942	0	16.8	4	5.3	4	-1E+10	1	-1E+10	1	-1E+10	1	-1E+10	1	-1E+10	1	-1E+10	1
4902551	61	C	04/19/2022	00:45	-131.687	49.834	0	687.90	0	3.9430	0	34.1970	0	27.158	0	680.883	0	16.7	4	5.3	4	-1E+10	1	-1E+10	1	-1E+10	1	-1E+10	1	-1E+10	1	-1E+10	1
4902551	61	C	04/19/2022	00:45	-131.687	49.834	0	692.80	0	3.9430	0	34.1990	0	27.160	0	685.725	0	16.6	4	5.2	4	-1E+10	1	-1E+10	1	-1E+10	1	-1E+10	1	-1E+10	1	-1E+10	1
4902551	61	C	04/19/2022	00:45	-131.687	49.834	0	697.90	0	3.9230	0	34.2030	0	27.165	0	690.764	0	16.7	4	5.3	4	-1E+10	1	-1E+10	1	-1E+10	1	-1E+10	1	-1E+10	1	-1E+10	1
4902551	61	C	04/19/2022	00:45	-131.687	49.834	0	703.00	0	3.8800	0	34.2030	0	27.170	0	695.803	0	16.9	4	5.3	4	-1E+10	1	-1E+10	1	-1E+10	1	-1E+10	1	-1E+10	1	-1E+10	1
4902551	61	C	04/19/2022	00:45	-131.687	49.834	0	708.20	0	3.8600	0	34.2040	0	27.172	0	700.941	0	16.9	4	5.3	4	-1E+10	1	-1E+10	1	-1E+10	1	-1E+10	1	-1E+10	1	-1E+10	1
4902551	61	C	04/19/2022	00:45	-131.687	49.834	0	713.00	0	3.8320	0	34.2040	0	27.175	0	705.684	0	16.9	4	5.3	4	-1E+10	1	-1E+10	1	-1E+10	1	-1E+10	1	-1E+10	1	-1E+10	1
4902551	61	C	04/19/2022	00:45	-131.687	49.834	0	717.80	0	3.8120	0	34.2050	0	27.178	0	710.427	0	16.5	4	5.2	4	-1E+10	1	-1E+10	1	-1E+10	1	-1E+10	1	-1E+10	1	-1E+10	1
4902551	61	C	04/19/2022	00:45	-131.687	49.834	0	722.80	0	3.7890	0	34.2110	0	27.185	0	715.367	0	16.1	4	5.1	4	-1E+10	1	-1E+10	1	-1E+10	1	-1E+10	1	-1E+10	1	-1E+10	1
4902551	61	C	04/19/2022	00:45	-131.687	49.834	0	727.80	0	3.7770	0	34.2160	0	27.190	0	720.307	0	15.9	4	5.0	4	-1E+10	1	-1E+10	1	-1E+10	1	-1E+10	1	-1E+10	1	-1E+10	1
4902551	61	C	04/19/2022	00:45	-131.687	49.834	0	732.70	0	3.7690	0	34.2190	0	27.194	0	725.148	0	15.7	4	4.9	4	-1E+10	1	-1E+10	1	-1E+10	1	-1E+10	1	-1E+10	1	-1E+10	1
4902551	61	C	04/19/2022	00:45	-131.687	49.834	0	737.80	0	3.7520	0	34.2220	0	27.198	0	730.186	0	15.5	4	4.9	4	-1E+10	1	-1E+10	1	-1E+10	1	-1E+10	1	-1E+10	1	-1E+10	1
4902551	61	C	04/19/2022	00:45	-131.687	49.834	0	742.90	0	3.7400	0	34.2250	0	27.201	0	735.225	0	15.2	4	4.8	4	-1E+10	1	-1E+10	1	-1E+10	1	-1E+10	1	-1E+10	1	-1E+10	1
4902551	61	C	04/19/2022	00:45	-131.687	49.834	0	747.90	0	3.7310	0	34.2290	0	27.205	0	740.164	0	14.9	4	4.7	4	-1E+10	1	-1E+10	1	-1E+10	1	-1E+10	1	-1E+10	1	-1E+10	1
4902551	61	C	04/19/2022	00:45	-131.687	49.834	0	753.10	0	3.7270	0	34.2330	0	27.209	0	745.301	0	14.7	4	4.6	4	-1E+10	1	-1E+10	1	-1E+10	1	-1E+10	1	-1E+10	1	-1E+10	1
4902551	61	C	04/19/2022	00:45	-131.687	49.834	0	758.30	0	3.7130	0	34.2380	0	27.214	0	750.438	0	14.4	4	4.5	4	-1E+10	1	-1E+10	1	-1E+10	1	-1E+10	1	-1E+10	1	-1E+10	1
4902551	61	C	04/19/2022	00:45	-131.687	49.834	0	763.00	0	3.6860	0	34.2440	0	27.222	0	755.081	0	14.3	4	4.5	4	-1E+10	1	-1E+10	1	-1E+10	1	-1E+10	1	-1E+10	1	-1E+10	1
4902551	61	C	04/19/2022	00:45	-131.687	49.834	0	768.00	0	3.6690	0	34.2470	0	27.226	0	760.020	0	14.2	4	4.4	4	-1E+10	1	-1E+10	1	-1E+10	1	-1E+10	1	-1E+10	1	-1E+10	1
4902551	61	C	04/19/2022	00:45	-131.687	49.834	0	773.20	0	3.6590	0	34.2490	0	27.229	0	765.156	0	14.0	4	4.4	4	-1E+10	1	-1E+10	1	-1E+10	1	-1E+10	1	-1E+10	1	-1E+10	1
4902551	61	C	04/19/2022	00:45	-131.687	49.834	0	778.00	0	3.6480	0	34.2520	0	27.232	0	769.897	0	13.9	4	4.4	4	-1E+10	1	-1E+10	1	-1E+10	1	-1E+10	1	-1E+10	1	-1E+10	1
4902551	61	C	04/19/2022	00:45	-131.687	49.834	0	783.00	0	3.6430	0	34.2530	0	27.233	0	774.836	0	13.8	4	4.3	4	-1E+10	1	-1E+10	1	-1E+10	1	-1E+10	1	-1E+10	1	-1E+10	1
4902551	61	C	04/19/2022	00:45	-131.687	49.834	0	787.90	0	3.6360	0	34.2540	0	27.235	0	779.676	0	13.7	4	4.3	4	-1E+10	1	-1E+10	1	-1E+10	1	-1E+10	1	-1E+10	1	-1E+10	1
4902551	61	C	04/19/2022	00:45	-131.687	49.834	0	792.80	0	3.6260	0	34.2570	0	27.238	0	784.515	0	13.6	4	4.2	4	-1E+10	1	-1E+10	1	-1E+10	1	-1E+10	1	-1E+10	1	-1E+10	1
4902551	61	C	04/19/2022	00:45	-131.687	49.834	0	797.90	0	3.6140	0	34.2610	0	27.243	0	789.553	0	13.5	4	4.2	4	-1E+10	1	-1E+10	1	-1E+10	1	-1E+10	1	-1E+10	1	-1E+10	1
4902551	61	C	04/19/2022	00:45	-131.687	49.834	0	803.00	0	3.6080	0	34.2620	0	27.244	0	794.589	0	13.4	4	4.2	4	-1E+10	1	-1E+10	1	-1E+10	1	-1E+10	1	-1E+10	1	-1E+10	1
4902551	61	C	04/19/2022	00:45	-131.687	49.834	0	808.20	0	3.5980	0	34.2650	0	27.248	0	799.725	0	13.3	4	4.1	4	-1E+10	1	-1E+10	1	-1E+10	1	-1E+10	1	-1E+10	1	-1E+10	1
4902551	61	C	04/19/2022	00:45	-131.687	49.834	0	813.00	0	3.5900	0	34.2680	0	27.251	0	804.465	0	13.1	4	4.1	4	-1E+10	1	-1E+10	1	-1E+10	1	-1E+10	1	-1E+10	1	-1E+10	1
4902551	61	C	04/19/2022	00:45	-131.687	49.834	0	817.80	0	3.5810	0	34.2700	0	27.253	0	809.206	0	13.1	4	4.1	4	-1E+10	1	-1E+10	1	-1E+10	1	-1E+10	1	-1E+10	1	-1E+10	1
4902551	61	C	04/19/2022	00:45	-131.687	49.834	0	823.00	0	3.5760	0	34.2720	0	27.255	0	814.341	0	12.9	4	4.0	4	-1E+10	1	-1E+10	1	-1E+10	1	-1E+10	1	-1E+10	1	-1E+10	1
4902551	61	C	04/19/2022	00:45	-131.687	49.834	0	828.10	0	3.5660	0	34.2750	0	27.259	0	819.377	0	12.8	4	4.0	4	-1E+10	1	-1E+10	1	-1E+10	1	-1E+10	1	-1E+10	1	-1E+10	1
4902551	61	C	04/19/2022	00:45	-131.687	49.834	0	833.10	0	3.5480	0	34.2800	0	27.265	0	824.315	0	12.8	4	4.0	4	-1E+10	1	-1E+10	1	-1E+10	1	-1E+10	1	-1E+10	1	-1E+10	1
4902551	61	C	04/19/2022	00:45	-131.687	49.834	0	838.00	0	3.5450	0	34.2800	0	27.265	0	829.153	0	12.7	4	4.0	4	-1E+10	1	-1E+10	1	-1E+10	1	-1E+10	1	-1E+10	1	-1E+10	1
4902551	61	C	04/19/2022	00:45	-131.687	49.834	0	842.80	0	3.5420	0	34.2810	0	27.266	0	833.893	0	12.6	4	4.0	4	-1E+10	1	-1E+10	1	-1E+10	1	-1E+10	1	-1E+10	1	-1E+10	1
4902551	61	C	04/19/2022	00:45	-131.687	49.834	0	848.00	0	3.5360	0	34.2830	0	27.268	0	839.028	0	12.6	4	3.9	4	-1E+10	1	-1E+10	1	-1E+10	1	-1E+10	1	-1E+10	1	-1E+10	1
4902551	61	C	04/19/2022	00:45	-131.687	49.834	0	852.80	0	3.5270	0	34.2850	0	27.271	0	843.767	0	12.5	4	3.9	4	-1E+10	1	-1E+10	1	-1E+10	1	-1E+10	1	-1E+10	1	-1E+10	1
4902551	61	C	04/19/2022	00:45	-131.687	49.834	0	857.70	0	3.5180	0	34.2870	0	27.273	0	848.605	0	12.4	4	3.9	4	-1E+10	1	-1E+10	1	-1E+10	1	-1E+10	1	-1E+10	1	-1E+10	1
4902551	61	C	04/19/2022	00:45	-131.687	49.834	0	862.90	0	3.5080	0	34.2900	0	27.277	0	853.740	0	12.3	4	3.9	4	-1E+10	1	-1E+10	1	-1E+10	1	-1E+10	1	-1E+10	1	-1E+10	1
4902551	61	C	04/19/2022	00:45	-131.687	49.834	0	867.80	0	3.4990	0	34.2920	0	27.279	0	858.578	0	12.3	4	3.8	4	-1E+10	1	-1E+10	1	-1E+10	1	-1E+10	1	-1E+10	1	-1E+10	1
4902551	61	C	04/19/2022	00:45	-131.687	49.834	0	872.70	0	3.4930	0	34.2930	0	27.280	0	863.415	0	12.2	4	3.8	4	-1E+10	1	-1E+10	1	-1E+10	1	-1E+10	1	-1E+10	1	-1E+10	1
4902551	61	C	04/19/2022	00:45	-131.687	49.834	0	878.00	0	3.4830	0	34.2960	0	27.284	0	868.648	0	12.1	4	3.8	4	-1E+10	1	-1E+10	1	-1E+10	1	-1E+10	1	-1E+10	1	-1E+10	1
4902551	61	C	04/19/2022	00:45	-131.687	49.834	0	883.00	0	3.4620	0	34.3000	0	27.289	0	873.584	0	12.0	4	3.8	4	-1E+10	1	-1E+10	1	-1E+10	1	-1E+10	1	-1E+10	1	-1E+10	1
4902551	61	C	04/19/2022	00:45	-131.687	49.834	0	888.00	0	3.4440	0	34.3040	0	27.294	0	878.521	0	12.0	4	3.7	4	-1E+10	1	-1E+10	1	-1E+10	1	-1E+10	1	-1E+10	1	-1E+10	1
4902551	61	C	04/19/2022	00:45	-131.687	49.834	0	893.00	0	3.4300	0	34.3070	0	27.298	0	883.457	0	12.0	4	3.7	4	-1E+10	1	-1E+10	1	-1E+10	1	-1E+10	1	-1E+10	1	-1E+10	1
4902551	61	C	04/19/2022	00:45	-131.687	49.834	0	897.70	0	3.4210	0	34.3090	0	27.300	0	888.096	0	11.9	4	3.7	4	-1E+10	1	-1E+10	1	-1E+10	1	-1E+10	1	-1E+10	1	-1E+10	1
4902551	61	C	04/19/2022	00:45	-131.687	49.834	0	902.80	0	3.4190	0	34.3100	0	27.301	0	893.131	0	11.9	4	3.7	4	-1E+10	1	-1E+10	1	-1E+10	1	-1E+10	1	-1E+10	1	-1E+10	1
4902551	61	C	04/19/2022	00:45	-131.687	49.834	0	908.00	0	3.4140	0	34.3110	0	27.303	0	898.264	0	11.8	4	3.7	4	-1E+10	1	-1E+10	1	-1E+10	1	-1E+10	1	-1E+10	1	-1E+10	1
4902551	61	C	04/19/2022	00:45	-131.687	49.834	0	912.80	0	3.4020	0	34.3130	0	27.305	0	903.002	0	11.8	4	3.7	4	-1E+10	1	-1E+10	1	-1E+10	1	-1E+10	1	-1E+10	1	-1E+10	1
4902551	61	C	04/19/2022	00:45	-131.687	49.834	0	917.70	0	3.3860	0	34.3170	0	27.310	0	907.839	0	11.7	4	3.7	4	-1E+10	1	-1E+10	1	-1E+10	1	-1E+10	1	-1E+10	1	-1E+10	1
4902551	61	C	04/19/2022	00:45	-131.687	49.834	0	922.80	0	3.3650	0	34.3210	0	27.315	0	912.873	0	11.7	4	3.6	4	-1E+10	1	-1E+10	1	-1E+10	1	-1E+10	1	-1E+10	1	-1E+10	1
4902551	61	C	04/19/2022	00:45	-131.687	49.834	0	927.80	0	3.3510	0	34.3240	0	27.319	0	917.808	0	11.7	4	3.6	4	-1E+10	1	-1E+10	1	-1E+10	1	-1E+10	1	-1E+10	1	-1E+10	1
4902551	61	C	04/19/2022	00:45	-131.687	49.834	0	932.80	0	3.3400	0	34.3270	0	27.322	0	922.744	0	11.7	4	3.6	4	-1E+10	1	-1E+10	1	-1E+10	1	-1E+10	1	-1E+10	1	-1E+10	1
4902551	61	C	04/19/2022	00:45	-131.687	49.834	0	938.00	0	3.3240	0	34.3290	0	27.326	0	927.876	0	11.6	4	3.6	4	-1E+10	1	-1E+10	1	-1E+10	1	-1E+10	1	-1E+10	1	-1E+10	1
4902551	61	C	04/19/2022	00:45	-131.687	49.834	0	943.20	0	3.3020	0	34.3340	0	27.332	0	933.008	0	11.6	4	3.6	4	-1E+10	1	-1E+10	1	-1E+10	1	-1E+10	1	-1E+10	1	-1E+10	1
4902551	61	C	04/19/2022	00:45	-131.687	49.834	0	948.30	0	3.2940	0	34.3360	0	27.334	0	938.042	0	11.6	4	3.6	4	-1E+10	1	-1E+10	1	-1E+10	1	-1E+10	1	-1E+10	1	-1E+10	1
4902551	61	C	04/19/2022	00:45	-131.687	49.834	0	953.00	0	3.2880	0	34.3370	0	27.335	0	942.680	0	11.6	4	3.6	4	-1E+10	1	-1E+10	1	-1E+10	1	-1E+10	1	-1E+10	1	-1E+10	1
4902551	61	C	04/19/2022	00:45	-131.687	49.834	0	957.60	0	3.2760	0	34.3390	0	27.338	0	947.220	0	11.6	4	3.6	4	-1E+10	1	-1E+10	1	-1E+10	1	-1E+10	1	-1E+10	1	-1E+10	1
4902551	61	C	04/19/2022	00:45	-131.687	49.834	0	962.70	0	3.2660	0	34.3410	0	27.341	0	952.253	0	11.6	4	3.6	4	-1E+10	1	-1E+10	1	-1E+10	1	-1E+10	1	-1E+10	1	-1E+10	1
4902551	61	C	04/19/2022	00:45	-131.687	49.834	0	967.90	0	3.2570	0	34.3430	0	27.343	0	957.385	0	11.6	4	3.6	4	-1E+10	1	-1E+10	1	-1E+10	1	-1E+10	1	-1E+10	1	-1E+10	1
4902551	61	C	04/19/2022	00:45	-131.687	49.834	0	973.10	0	3.2380	0	34.3460	0	27.347	0	962.517	0	11.7	4	3.6	4	-1E+10	1	-1E+10	1	-1E+10	1	-1E+10	1	-1E+10	1	-1E+10	1
4902551	61	C	04/19/2022	00:45	-131.687	49.834	0	977.80	0	3.2260	0	34.3480	0	27.350	0	967.155	0	11.7	4	3.6	4	-1E+10	1	-1E+10	1	-1E+10	1	-1E+10	1	-1E+10	1	-1E+10	1
4902551	61	C	04/19/2022	00:45	-131.687	49.834	0	982.60	0	3.2170	0	34.3500	0	27.353	0	971.891	0	11.7	4	3.6	4	-1E+10	1	-1E+10	1	-1E+10	1	-1E+10	1	-1E+10	1	-1E+10	1
4902551	61	C	04/19/2022	00:45	-131.687	49.834	0	987.80	0	3.2100	0	34.3510	0	27.354	0	977.022	0	11.7	4	3.6	4	-1E+10	1	-1E+10	1	-1E+10	1	-1E+10	1	-1E+10	1	-1E+10	1
4902551	61	C	04/19/2022	00:45	-131.687	49.834	0	993.00	0	3.1970	0	34.3530	0	27.357	0	982.153	0	11.8	4	3.6	4	-1E+10	1	-1E+10	1	-1E+10	1	-1E+10	1	-1E+10	1	-1E+10	1
4902551	61	C	04/19/2022	00:45	-131.687	49.834	0	998.20	0	3.1900	0	34.3550	0	27.359	0	987.284	0	11.9	4	3.7	4	-1E+10	1	-1E+10	1	-1E+10	1	-1E+10	1	-1E+10	1	-1E+10	1
4902551	61	C	04/19/2022	00:45	-131.687	49.834	0	1005.40	0	3.1850	0	34.3610	0	27.364	0	994.389	0	12.1	4	3.7	4	-1E+10	1	-1E+10	1	-1E+10	1	-1E+10	1	-1E+10	1	-1E+10	1
4902551	61	C	04/19/2022	00:45	-131.687	49.834	0	1015.20	0	3.1830	0	34.3690	0	27.371	0	1004.058	0	12.2	4	3.8	4	-1E+10	1	-1E+10	1	-1E+10	1	-1E+10	1	-1E+10	1	-1E+10	1
4902551	61	C	04/19/2022	00:45	-131.687	49.834	0	1025.50	0	3.1800	0	34.3750	0	27.376	0	1014.220	0	12.2	4	3.8	4	-1E+10	1	-1E+10	1	-1E+10	1	-1E+10	1	-1E+10	1	-1E+10	1
4902551	61	C	04/19/2022	00:45	-131.687	49.834	0	1035.70	0	3.1780	0	34.3780	0	27.379	0	1024.283	0	12.2	4	3.8	4	-1E+10	1	-1E+10	1	-1E+10	1	-1E+10	1	-1E+10	1	-1E+10	1
4902551	61	C	04/19/2022	00:45	-131.687	49.834	0	1045.60	0	3.1680	0	34.3820	0	27.383	0	1034.049	0	12.4	4	3.8	4	-1E+10	1	-1E+10	1	-1E+10	1	-1E+10	1	-1E+10	1	-1E+10	1
4902551	61	C	04/19/2022	00:45	-131.687	49.834	0	1055.70	0	3.1550	0	34.3870	0	27.388	0	1044.013	0	12.5	4	3.9	4	-1E+10	1	-1E+10	1	-1E+10	1	-1E+10	1	-1E+10	1	-1E+10	1
4902551	61	C	04/19/2022	00:45	-131.687	49.834	0	1065.50	0	3.1170	0	34.3890	0	27.393	0	1053.679	0	12.7	4	3.9	4	-1E+10	1	-1E+10	1	-1E+10	1	-1E+10	1	-1E+10	1	-1E+10	1
4902551	61	C	04/19/2022	00:45	-131.687	49.834	0	1075.60	0	3.0830	0	34.3930	0	27.400	0	1063.642	0	12.8	4	4.0	4	-1E+10	1	-1E+10	1	-1E+10	1	-1E+10	1	-1E+10	1	-1E+10	1
4902551	61	C	04/19/2022	00:45	-131.687	49.834	0	1085.70	0	3.0680	0	34.3970	0	27.404	0	1073.604	0	12.9	4	4.0	4	-1E+10	1	-1E+10	1	-1E+10	1	-1E+10	1	-1E+10	1	-1E+10	1
4902551	61	C	04/19/2022	00:45	-131.687	49.834	0	1095.70	0	3.0330	0	34.3980	0	27.408	0	1083.466	0	13.0	4	4.0	4	-1E+10	1	-1E+10	1	-1E+10	1	-1E+10	1	-1E+10	1	-1E+10	1
4902551	61	C	04/19/2022	00:45	-131.687	49.834	0	1105.30	0	3.0040	0	34.3990	0	27.412	0	1092.934	0	13.0	4	4.0	4	-1E+10	1	-1E+10	1	-1E+10	1	-1E+10	1	-1E+10	1	-1E+10	1
4902551	61	C	04/19/2022	00:45	-131.687	49.834	0	1115.00	0	2.9960	0	34.4010	0	27.414	0	1102.500	0	13.1	4	4.1	4	-1E+10	1	-1E+10	1	-1E+10	1	-1E+10	1	-1E+10	1	-1E+10	1
4902551	61	C	04/19/2022	00:45	-131.687	49.834	0	1125.10	0	2.9790	0	34.4020	0	27.417	0	1112.460	0	13.3	4	4.1	4	-1E+10	1	-1E+10	1	-1E+10	1	-1E+10	1	-1E+10	1	-1E+10	1
4902551	61	C	04/19/2022	00:45	-131.687	49.834	0	1135.10	0	2.9740	0	34.4070	0	27.421	0	1122.321	0	13.5	4	4.2	4	-1E+10	1	-1E+10	1	-1E+10	1	-1E+10	1	-1E+10	1	-1E+10	1
4902551	61	C	04/19/2022	00:45	-131.687	49.834	0	1145.10	0	2.9320	0	34.4100	0	27.427	0	1132.182	0	13.6	4	4.2	4	-1E+10	1	-1E+10	1	-1E+10	1	-1E+10	1	-1E+10	1	-1E+10	1
4902551	61	C	04/19/2022	00:45	-131.687	49.834	0	1155.10	0	2.9100	0	34.4130	0	27.432	0	1142.042	0	13.8	4	4.2	4	-1E+10	1	-1E+10	1	-1E+10	1	-1E+10	1	-1E+10	1	-1E+10	1
4902551	61	C	04/19/2022	00:45	-131.687	49.834	0	1165.10	0	2.8950	0	34.4160	0	27.436	0	1151.901	0	14.0	4	4.3	4	-1E+10	1	-1E+10	1	-1E+10	1	-1E+10	1	-1E+10	1	-1E+10	1
4902551	61	C	04/19/2022	00:45	-131.687	49.834	0	1175.10	0	2.8810	0	34.4200	0	27.440	0	1161.761	0	14.2	4	4.4	4	-1E+10	1	-1E+10	1	-1E+10	1	-1E+10	1	-1E+10	1	-1E+10	1
4902551	61	C	04/19/2022	00:45	-131.687	49.834	0	1185.20	0	2.8640	0	34.4230	0	27.444	0	1171.718	0	14.2	4	4.4	4	-1E+10	1	-1E+10	1	-1E+10	1	-1E+10	1	-1E+10	1	-1E+10	1
4902551	61	C	04/19/2022	00:45	-131.687	49.834	0	1195.20	0	2.8370	0	34.4240	0	27.447	0	1181.576	0	14.2	4	4.4	4	-1E+10	1	-1E+10	1	-1E+10	1	-1E+10	1	-1E+10	1	-1E+10	1
4902551	61	C	04/19/2022	00:45	-131.687	49.834	0	1205.10	0	2.8220	0	34.4240	0	27.449	0	1191.335	0	14.3	4	4.4	4	-1E+10	1	-1E+10	1	-1E+10	1	-1E+10	1	-1E+10	1	-1E+10	1
4902551	61	C	04/19/2022	00:45	-131.687	49.834	0	1215.40	0	2.8080	0	34.4270	0	27.452	0	1201.488	0	14.5	4	4.5	4	-1E+10	1	-1E+10	1	-1E+10	1	-1E+10	1	-1E+10	1	-1E+10	1
4902551	61	C	04/19/2022	00:45	-131.687	49.834	0	1225.30	0	2.7890	0	34.4310	0	27.457	0	1211.246	0	14.7	4	4.5	4	-1E+10	1	-1E+10	1	-1E+10	1	-1E+10	1	-1E+10	1	-1E+10	1
4902551	61	C	04/19/2022	00:45	-131.687	49.834	0	1235.50	0	2.7710	0	34.4340	0	27.461	0	1221.300	0	14.8	4	4.5	4	-1E+10	1	-1E+10	1	-1E+10	1	-1E+10	1	-1E+10	1	-1E+10	1
4902551	61	C	04/19/2022	00:45	-131.687	49.834	0	1245.60	0	2.7410	0	34.4370	0	27.466	0	1231.254	0	14.9	4	4.6	4	-1E+10	1	-1E+10	1	-1E+10	1	-1E+10	1	-1E+10	1	-1E+10	1
4902551	61	C	04/19/2022	00:45	-131.687	49.834	0	1255.60	0	2.7150	0	34.4400	0	27.471	0	1241.109	0	15.1	4	4.6	4	-1E+10	1	-1E+10	1	-1E+10	1	-1E+10	1	-1E+10	1	-1E+10	1
4902551	61	C	04/19/2022	00:45	-131.687	49.834	0	1265.40	0	2.6930	0	34.4420	0	27.475	0	1250.767	0	15.3	4	4.7	4	-1E+10	1	-1E+10	1	-1E+10	1	-1E+10	1	-1E+10	1	-1E+10	1
4902551	61	C	04/19/2022	00:45	-131.687	49.834	0	1275.40	0	2.6730	0	34.4460	0	27.480	0	1260.622	0	15.5	4	4.8	4	-1E+10	1	-1E+10	1	-1E+10	1	-1E+10	1	-1E+10	1	-1E+10	1
4902551	61	C	04/19/2022	00:45	-131.687	49.834	0	1285.60	0	2.6610	0	34.4480	0	27.482	0	1270.673	0	15.8	4	4.8	4	-1E+10	1	-1E+10	1	-1E+10	1	-1E+10	1	-1E+10	1	-1E+10	1
4902551	61	C	04/19/2022	00:45	-131.687	49.834	0	1295.40	0	2.6540	0	34.4500	0	27.484	0	1280.329	0	16.0	4	4.9	4	-1E+10	1	-1E+10	1	-1E+10	1	-1E+10	1	-1E+10	1	-1E+10	1
4902551	61	C	04/19/2022	00:45	-131.687	49.834	0	1305.10	0	2.6460	0	34.4520	0	27.487	0	1289.886	0	16.4	4	5.0	4	-1E+10	1	-1E+10	1	-1E+10	1	-1E+10	1	-1E+10	1	-1E+10	1
4902551	61	C	04/19/2022	00:45	-131.687	49.834	0	1315.40	0	2.6380	0	34.4540	0	27.489	0	1300.035	0	16.7	4	5.1	4	-1E+10	1	-1E+10	1	-1E+10	1	-1E+10	1	-1E+10	1	-1E+10	1
4902551	61	C	04/19/2022	00:45	-131.687	49.834	0	1325.70	0	2.6180	0	34.4580	0	27.494	0	1310.182	0	17.2	4	5.3	4	-1E+10	1	-1E+10	1	-1E+10	1	-1E+10	1	-1E+10	1	-1E+10	1
4902551	61	C	04/19/2022	00:45	-131.687	49.834	0	1335.40	0	2.5970	0	34.4620	0	27.499	0	1319.738	0	17.5	4	5.4	4	-1E+10	1	-1E+10	1	-1E+10	1	-1E+10	1	-1E+10	1	-1E+10	1
4902551	61	C	04/19/2022	00:45	-131.687	49.834	0	1344.90	0	2.5810	0	34.4640	0	27.502	0	1329.097	0	17.9	4	5.5	4	-1E+10	1	-1E+10	1	-1E+10	1	-1E+10	1	-1E+10	1	-1E+10	1
4902551	61	C	04/19/2022	00:45	-131.687	49.834	0	1355.10	0	2.5680	0	34.4670	0	27.506	0	1339.145	0	18.2	4	5.6	4	-1E+10	1	-1E+10	1	-1E+10	1	-1E+10	1	-1E+10	1	-1E+10	1
4902551	61	C	04/19/2022	00:45	-131.687	49.834	0	1365.60	0	2.5550	0	34.4690	0	27.508	0	1349.488	0	18.6	4	5.7	4	-1E+10	1	-1E+10	1	-1E+10	1	-1E+10	1	-1E+10	1	-1E+10	1
4902551	61	C	04/19/2022	00:45	-131.687	49.834	0	1375.50	0	2.5370	0	34.4730	0	27.513	0	1359.239	0	19.0	4	5.8	4	-1E+10	1	-1E+10	1	-1E+10	1	-1E+10	1	-1E+10	1	-1E+10	1
4902551	61	C	04/19/2022	00:45	-131.687	49.834	0	1385.40	0	2.5300	0	34.4740	0	27.515	0	1368.990	0	19.2	4	5.9	4	-1E+10	1	-1E+10	1	-1E+10	1	-1E+10	1	-1E+10	1	-1E+10	1
4902551	61	C	04/19/2022	00:45	-131.687	49.834	0	1395.30	0	2.5220	0	34.4750	0	27.516	0	1378.740	0	19.7	4	6.0	4	-1E+10	1	-1E+10	1	-1E+10	1	-1E+10	1	-1E+10	1	-1E+10	1
4902551	61	C	04/19/2022	00:45	-131.687	49.834	0	1405.10	0	2.5030	0	34.4790	0	27.521	0	1388.392	0	20.1	4	6.1	4	-1E+10	1	-1E+10	1	-1E+10	1	-1E+10	1	-1E+10	1	-1E+10	1
4902551	61	C	04/19/2022	00:45	-131.687	49.834	0	1415.00	0	2.4910	0	34.4810	0	27.524	0	1398.141	0	20.6	4	6.3	4	-1E+10	1	-1E+10	1	-1E+10	1	-1E+10	1	-1E+10	1	-1E+10	1
4902551	61	C	04/19/2022	00:45	-131.687	49.834	0	1425.40	0	2.4760	0	34.4840	0	27.527	0	1408.383	0	21.3	4	6.5	4	-1E+10	1	-1E+10	1	-1E+10	1	-1E+10	1	-1E+10	1	-1E+10	1
4902551	61	C	04/19/2022	00:45	-131.687	49.834	0	1435.50	0	2.4520	0	34.4880	0	27.533	0	1418.328	0	21.9	4	6.7	4	-1E+10	1	-1E+10	1	-1E+10	1	-1E+10	1	-1E+10	1	-1E+10	1
4902551	61	C	04/19/2022	00:45	-131.687	49.834	0	1445.40	0	2.4410	0	34.4890	0	27.534	0	1428.076	0	22.5	4	6.9	4	-1E+10	1	-1E+10	1	-1E+10	1	-1E+10	1	-1E+10	1	-1E+10	1
4902551	61	C	04/19/2022	00:45	-131.687	49.834	0	1455.40	0	2.4250	0	34.4920	0	27.538	0	1437.922	0	23.1	4	7.0	4	-1E+10	1	-1E+10	1	-1E+10	1	-1E+10	1	-1E+10	1	-1E+10	1
4902551	61	C	04/19/2022	00:45	-131.687	49.834	0	1465.60	0	2.4100	0	34.4950	0	27.542	0	1447.965	0	23.6	4	7.2	4	-1E+10	1	-1E+10	1	-1E+10	1	-1E+10	1	-1E+10	1	-1E+10	1
4902551	61	C	04/19/2022	00:45	-131.687	49.834	0	1475.70	0	2.4000	0	34.4970	0	27.544	0	1457.908	0	24.0	4	7.3	4	-1E+10	1	-1E+10	1	-1E+10	1	-1E+10	1	-1E+10	1	-1E+10	1
4902551	61	C	04/19/2022	00:45	-131.687	49.834	0	1485.60	0	2.3920	0	34.4990	0	27.547	0	1467.655	0	24.7	4	7.5	4	-1E+10	1	-1E+10	1	-1E+10	1	-1E+10	1	-1E+10	1	-1E+10	1
4902551	61	C	04/19/2022	00:45	-131.687	49.834	0	1495.20	0	2.3740	0	34.5020	0	27.551	0	1477.105	0	25.5	4	7.7	4	-1E+10	1	-1E+10	1	-1E+10	1	-1E+10	1	-1E+10	1	-1E+10	1
4902551	61	C	04/19/2022	00:45	-131.687	49.834	0	1505.40	0	2.3560	0	34.5050	0	27.555	0	1487.146	0	26.2	4	8.0	4	-1E+10	1	-1E+10	1	-1E+10	1	-1E+10	1	-1E+10	1	-1E+10	1
4902551	61	C	04/19/2022	00:45	-131.687	49.834	0	1515.60	0	2.3390	0	34.5080	0	27.558	0	1497.186	0	27.1	4	8.2	4	-1E+10	1	-1E+10	1	-1E+10	1	-1E+10	1	-1E+10	1	-1E+10	1
4902551	61	C	04/19/2022	00:45	-131.687	49.834	0	1525.20	0	2.3220	0	34.5110	0	27.562	0	1506.635	0	28.0	4	8.5	4	-1E+10	1	-1E+10	1	-1E+10	1	-1E+10	1	-1E+10	1	-1E+10	1
4902551	61	C	04/19/2022	00:45	-131.687	49.834	0	1535.10	0	2.3030	0	34.5150	0	27.567	0	1516.379	0	28.6	4	8.7	4	-1E+10	1	-1E+10	1	-1E+10	1	-1E+10	1	-1E+10	1	-1E+10	1
4902551	61	C	04/19/2022	00:45	-131.687	49.834	0	1545.10	0	2.2940	0	34.5170	0	27.569	0	1526.221	0	29.2	4	8.9	4	-1E+10	1	-1E+10	1	-1E+10	1	-1E+10	1	-1E+10	1	-1E+10	1
4902551	61	C	04/19/2022	00:45	-131.687	49.834	0	1555.20	0	2.2890	0	34.5180	0	27.571	0	1536.161	0	29.5	4	9.0	4	-1E+10	1	-1E+10	1	-1E+10	1	-1E+10	1	-1E+10	1	-1E+10	1
4902551	61	C	04/19/2022	00:45	-131.687	49.834	0	1565.10	0	2.2790	0	34.5200	0	27.573	0	1545.904	0	30.1	4	9.1	4	-1E+10	1	-1E+10	1	-1E+10	1	-1E+10	1	-1E+10	1	-1E+10	1
4902551	61	C	04/19/2022	00:45	-131.687	49.834	0	1575.10	0	2.2680	0	34.5220	0	27.576	0	1555.745	0	30.5	4	9.3	4	-1E+10	1	-1E+10	1	-1E+10	1	-1E+10	1	-1E+10	1	-1E+10	1
4902551	61	C	04/19/2022	00:45	-131.687	49.834	0	1585.10	0	2.2560	0	34.5230	0	27.578	0	1565.585	0	31.0	4	9.4	4	-1E+10	1	-1E+10	1	-1E+10	1	-1E+10	1	-1E+10	1	-1E+10	1
4902551	61	C	04/19/2022	00:45	-131.687	49.834	0	1595.10	0	2.2520	0	34.5240	0	27.579	0	1575.424	0	31.3	4	9.5	4	-1E+10	1	-1E+10	1	-1E+10	1	-1E+10	1	-1E+10	1	-1E+10	1
4902551	61	C	04/19/2022	00:45	-131.687	49.834	0	1605.40	0	2.2470	0	34.5250	0	27.580	0	1585.559	0	31.7	4	9.6	4	-1E+10	1	-1E+10	1	-1E+10	1	-1E+10	1	-1E+10	1	-1E+10	1
4902551	61	C	04/19/2022	00:45	-131.687	49.834	0	1615.60	0	2.2390	0	34.5270	0	27.582	0	1595.594	0	32.3	4	9.8	4	-1E+10	1	-1E+10	1	-1E+10	1	-1E+10	1	-1E+10	1	-1E+10	1
4902551	61	C	04/19/2022	00:45	-131.687	49.834	0	1625.30	0	2.2290	0	34.5290	0	27.585	0	1605.138	0	32.8	4	9.9	4	-1E+10	1	-1E+10	1	-1E+10	1	-1E+10	1	-1E+10	1	-1E+10	1
4902551	61	C	04/19/2022	00:45	-131.687	49.834	0	1635.20	0	2.2230	0	34.5300	0	27.586	0	1614.877	0	33.3	4	10.1	4	-1E+10	1	-1E+10	1	-1E+10	1	-1E+10	1	-1E+10	1	-1E+10	1
4902551	61	C	04/19/2022	00:45	-131.687	49.834	0	1645.40	0	2.2090	0	34.5320	0	27.589	0	1624.911	0	34.0	4	10.3	4	-1E+10	1	-1E+10	1	-1E+10	1	-1E+10	1	-1E+10	1	-1E+10	1
4902551	61	C	04/19/2022	00:45	-131.687	49.834	0	1655.30	0	2.1990	0	34.5340	0	27.591	0	1634.650	0	34.3	4	10.4	4	-1E+10	1	-1E+10	1	-1E+10	1	-1E+10	1	-1E+10	1	-1E+10	1
4902551	61	C	04/19/2022	00:45	-131.687	49.834	0	1665.30	0	2.1960	0	34.5350	0	27.592	0	1644.486	0	34.6	4	10.5	4	-1E+10	1	-1E+10	1	-1E+10	1	-1E+10	1	-1E+10	1	-1E+10	1
4902551	61	C	04/19/2022	00:45	-131.687	49.834	0	1675.50	0	2.1910	0	34.5360	0	27.594	0	1654.519	0	35.1	4	10.6	4	-1E+10	1	-1E+10	1	-1E+10	1	-1E+10	1	-1E+10	1	-1E+10	1
4902551	61	C	04/19/2022	00:45	-131.687	49.834	0	1685.60	0	2.1820	0	34.5370	0	27.595	0	1664.453	0	35.7	4	10.8	4	-1E+10	1	-1E+10	1	-1E+10	1	-1E+10	1	-1E+10	1	-1E+10	1
4902551	61	C	04/19/2022	00:45	-131.687	49.834	0	1695.30	0	2.1710	0	34.5390	0	27.598	0	1673.993	0	36.3	4	11.0	4	-1E+10	1	-1E+10	1	-1E+10	1	-1E+10	1	-1E+10	1	-1E+10	1
4902551	61	C	04/19/2022	00:45	-131.687	49.834	0	1705.20	0	2.1670	0	34.5400	0	27.599	0	1683.729	0	37.2	4	11.3	4	-1E+10	1	-1E+10	1	-1E+10	1	-1E+10	1	-1E+10	1	-1E+10	1
4902551	61	C	04/19/2022	00:45	-131.687	49.834	0	1715.30	0	2.1520	0	34.5430	0	27.603	0	1693.662	0	38.4	4	11.6	4	-1E+10	1	-1E+10	1	-1E+10	1	-1E+10	1	-1E+10	1	-1E+10	1
4902551	61	C	04/19/2022	00:45	-131.687	49.834	0	1725.20	0	2.1440	0	34.5460	0	27.606	0	1703.397	0	39.4	4	11.9	4	-1E+10	1	-1E+10	1	-1E+10	1	-1E+10	1	-1E+10	1	-1E+10	1
4902551	61	C	04/19/2022	00:45	-131.687	49.834	0	1735.20	0	2.1300	0	34.5480	0	27.608	0	1713.230	0	40.1	4	12.1	4	-1E+10	1	-1E+10	1	-1E+10	1	-1E+10	1	-1E+10	1	-1E+10	1
4902551	61	C	04/19/2022	00:45	-131.687	49.834	0	1745.30	0	2.1180	0	34.5500	0	27.611	0	1723.161	0	40.7	4	12.3	4	-1E+10	1	-1E+10	1	-1E+10	1	-1E+10	1	-1E+10	1	-1E+10	1
4902551	61	C	04/19/2022	00:45	-131.687	49.834	0	1755.70	0	2.1070	0	34.5520	0	27.614	0	1733.387	0	41.1	4	12.4	4	-1E+10	1	-1E+10	1	-1E+10	1	-1E+10	1	-1E+10	1	-1E+10	1
4902551	61	C	04/19/2022	00:45	-131.687	49.834	0	1765.70	0	2.1020	0	34.5530	0	27.615	0	1743.219	0	41.4	4	12.5	4	-1E+10	1	-1E+10	1	-1E+10	1	-1E+10	1	-1E+10	1	-1E+10	1
4902551	61	C	04/19/2022	00:45	-131.687	49.834	0	1775.30	0	2.1010	0	34.5530	0	27.615	0	1752.657	0	41.8	4	12.6	4	-1E+10	1	-1E+10	1	-1E+10	1	-1E+10	1	-1E+10	1	-1E+10	1
4902551	61	C	04/19/2022	00:45	-131.687	49.834	0	1785.40	0	2.0960	0	34.5540	0	27.616	0	1762.586	0	42.2	4	12.7	4	-1E+10	1	-1E+10	1	-1E+10	1	-1E+10	1	-1E+10	1	-1E+10	1
4902551	61	C	04/19/2022	00:45	-131.687	49.834	0	1795.50	0	2.0940	0	34.5550	0	27.617	0	1772.515	0	42.7	4	12.9	4	-1E+10	1	-1E+10	1	-1E+10	1	-1E+10	1	-1E+10	1	-1E+10	1
4902551	61	C	04/19/2022	00:45	-131.687	49.834	0	1805.50	0	2.0840	0	34.5570	0	27.620	0	1782.345	0	43.5	4	13.2	4	-1E+10	1	-1E+10	1	-1E+10	1	-1E+10	1	-1E+10	1	-1E+10	1
4902551	61	C	04/19/2022	00:45	-131.687	49.834	0	1815.40	0	2.0760	0	34.5580	0	27.621	0	1792.077	0	44.3	4	13.4	4	-1E+10	1	-1E+10	1	-1E+10	1	-1E+10	1	-1E+10	1	-1E+10	1
4902551	61	C	04/19/2022	00:45	-131.687	49.834	0	1825.60	0	2.0640	0	34.5600	0	27.624	0	1802.102	0	45.4	4	13.7	4	-1E+10	1	-1E+10	1	-1E+10	1	-1E+10	1	-1E+10	1	-1E+10	1
4902551	61	C	04/19/2022	00:45	-131.687	49.834	0	1835.40	0	2.0460	0	34.5640	0	27.628	0	1811.734	0	46.4	4	14.0	4	-1E+10	1	-1E+10	1	-1E+10	1	-1E+10	1	-1E+10	1	-1E+10	1
4902551	61	C	04/19/2022	00:45	-131.687	49.834	0	1845.20	0	2.0370	0	34.5650	0	27.630	0	1821.366	0	47.0	4	14.2	4	-1E+10	1	-1E+10	1	-1E+10	1	-1E+10	1	-1E+10	1	-1E+10	1
4902551	61	C	04/19/2022	00:45	-131.687	49.834	0	1855.40	0	2.0280	0	34.5660	0	27.632	0	1831.390	0	47.8	4	14.4	4	-1E+10	1	-1E+10	1	-1E+10	1	-1E+10	1	-1E+10	1	-1E+10	1
4902551	61	C	04/19/2022	00:45	-131.687	49.834	0	1865.40	0	2.0150	0	34.5690	0	27.635	0	1841.218	0	48.6	4	14.7	4	-1E+10	1	-1E+10	1	-1E+10	1	-1E+10	1	-1E+10	1	-1E+10	1
4902551	61	C	04/19/2022	00:45	-131.687	49.834	0	1875.20	0	2.0060	0	34.5710	0	27.637	0	1850.848	0	49.4	4	14.9	4	-1E+10	1	-1E+10	1	-1E+10	1	-1E+10	1	-1E+10	1	-1E+10	1
4902551	61	C	04/19/2022	00:45	-131.687	49.834	0	1885.20	0	1.9990	0	34.5720	0	27.639	0	1860.675	0	50.0	4	15.1	4	-1E+10	1	-1E+10	1	-1E+10	1	-1E+10	1	-1E+10	1	-1E+10	1
4902551	61	C	04/19/2022	00:45	-131.687	49.834	0	1895.50	0	1.9930	0	34.5730	0	27.640	0	1870.795	0	50.4	4	15.2	4	-1E+10	1	-1E+10	1	-1E+10	1	-1E+10	1	-1E+10	1	-1E+10	1
4902551	61	C	04/19/2022	00:45	-131.687	49.834	0	1905.50	0	1.9880	0	34.5740	0	27.641	0	1880.621	0	51.1	4	15.4	4	-1E+10	1	-1E+10	1	-1E+10	1	-1E+10	1	-1E+10	1	-1E+10	1
4902551	61	C	04/19/2022	00:45	-131.687	49.834	0	1915.40	0	1.9810	0	34.5760	0	27.644	0	1890.348	0	51.4	4	15.5	4	-1E+10	1	-1E+10	1	-1E+10	1	-1E+10	1	-1E+10	1	-1E+10	1
4902551	61	C	04/19/2022	00:45	-131.687	49.834	0	1925.20	0	1.9810	0	34.5760	0	27.644	0	1899.976	0	51.5	4	15.5	4	-1E+10	1	-1E+10	1	-1E+10	1	-1E+10	1	-1E+10	1	-1E+10	1
4902551	61	C	04/19/2022	00:45	-131.687	49.834	0	1935.30	0	1.9780	0	34.5760	0	27.644	0	1909.898	0	51.8	4	15.6	4	-1E+10	1	-1E+10	1	-1E+10	1	-1E+10	1	-1E+10	1	-1E+10	1
4902551	61	C	04/19/2022	00:45	-131.687	49.834	0	1945.20	0	1.9740	0	34.5770	0	27.645	0	1919.624	0	51.9	4	15.6	4	-1E+10	1	-1E+10	1	-1E+10	1	-1E+10	1	-1E+10	1	-1E+10	1
4902551	61	C	04/19/2022	00:45	-131.687	49.834	0	1955.70	0	1.9730	0	34.5770	0	27.645	0	1929.938	0	51.8	4	15.6	4	-1E+10	1	-1E+10	1	-1E+10	1	-1E+10	1	-1E+10	1	-1E+10	1
4902551	61	C	04/19/2022	00:45	-131.687	49.834	0	1962.90	0	1.9720	0	34.5780	0	27.646	0	1937.010	0	51.5	4	15.5	4	-1E+10	1	-1E+10	1	-1E+10	1	-1E+10	1	-1E+10	1	-1E+10	1
4902551	61	C	04/19/2022	00:45	-131.687	49.834	0																										
4902551	62	C	04/29/2022	05:51	-131.595	49.567	0	0.50	0	8.1980	0	32.1010	0	24.969	0	0.496	0	297.0	4	101.8	4	-1E+10	1	-1E+10	1	-1E+10	1	-1E+10	1	-1E+10	1	-1E+10	1
4902551	62	C	04/29/2022	05:51	-131.595	49.567	0	0.60	0	8.1960	0	32.1010	0	24.970	0	0.595	0	-1e10	1	-1e10	1	-1E+10	1	-1E+10	1	-1E+10	1	-1E+10	1	-1E+10	1	-1E+10	1
4902551	62	C	04/29/2022	05:51	-131.595	49.567	0	1.00	0	8.2090	0	32.0940	0	24.962	0	0.991	0	289.4	4	99.2	4	-1E+10	1	-1E+10	1	-1E+10	1	-1E+10	1	-1E+10	1	-1E+10	1
4902551	62	C	04/29/2022	05:51	-131.595	49.567	0	2.00	0	8.2150	0	32.0880	0	24.957	0	1.983	0	289.4	4	99.2	4	-1E+10	1	-1E+10	1	-1E+10	1	-1E+10	1	-1E+10	1	-1E+10	1
4902551	62	C	04/29/2022	05:51	-131.595	49.567	0	3.00	0	8.2160	0	32.0980	0	24.965	0	2.974	0	289.3	4	99.2	4	-1E+10	1	-1E+10	1	-1E+10	1	-1E+10	1	-1E+10	1	-1E+10	1
4902551	62	C	04/29/2022	05:51	-131.595	49.567	0	4.00	0	8.2160	0	32.0990	0	24.965	0	3.966	0	289.2	4	99.2	4	-1E+10	1	-1E+10	1	-1E+10	1	-1E+10	1	-1E+10	1	-1E+10	1
4902551	62	C	04/29/2022	05:51	-131.595	49.567	0	5.10	0	8.2180	0	32.0990	0	24.965	0	5.056	0	289.1	4	99.1	4	-1E+10	1	-1E+10	1	-1E+10	1	-1E+10	1	-1E+10	1	-1E+10	1
4902551	62	C	04/29/2022	05:51	-131.595	49.567	0	6.00	0	8.2200	0	32.0990	0	24.965	0	5.949	0	288.8	4	99.0	4	-1E+10	1	-1E+10	1	-1E+10	1	-1E+10	1	-1E+10	1	-1E+10	1
4902551	62	C	04/29/2022	05:51	-131.595	49.567	0	7.10	0	8.2170	0	32.0990	0	24.965	0	7.039	0	288.4	4	98.9	4	-1E+10	1	-1E+10	1	-1E+10	1	-1E+10	1	-1E+10	1	-1E+10	1
4902551	62	C	04/29/2022	05:51	-131.595	49.567	0	8.00	0	8.2160	0	32.0990	0	24.965	0	7.932	0	288.0	4	98.8	4	-1E+10	1	-1E+10	1	-1E+10	1	-1E+10	1	-1E+10	1	-1E+10	1
4902551	62	C	04/29/2022	05:51	-131.595	49.567	0	8.90	0	8.2120	0	32.0990	0	24.966	0	8.824	0	287.7	4	98.6	4	-1E+10	1	-1E+10	1	-1E+10	1	-1E+10	1	-1E+10	1	-1E+10	1
4902551	62	C	04/29/2022	05:51	-131.595	49.567	0	9.90	0	8.1890	0	32.1000	0	24.970	0	9.815	0	287.4	4	98.5	4	-1E+10	1	-1E+10	1	-1E+10	1	-1E+10	1	-1E+10	1	-1E+10	1
4902551	62	C	04/29/2022	05:51	-131.595	49.567	0	11.10	0	8.1440	0	32.1050	0	24.981	0	11.005	0	286.6	4	98.1	4	-1E+10	1	-1E+10	1	-1E+10	1	-1E+10	1	-1E+10	1	-1E+10	1
4902551	62	C	04/29/2022	05:51	-131.595	49.567	0	12.00	0	8.0990	0	32.1050	0	24.987	0	11.897	0	285.9	4	97.8	4	-1E+10	1	-1E+10	1	-1E+10	1	-1E+10	1	-1E+10	1	-1E+10	1
4902551	62	C	04/29/2022	05:51	-131.595	49.567	0	13.00	0	8.0600	0	32.1080	0	24.995	0	12.889	0	285.0	4	97.4	4	-1E+10	1	-1E+10	1	-1E+10	1	-1E+10	1	-1E+10	1	-1E+10	1
4902551	62	C	04/29/2022	05:51	-131.595	49.567	0	13.90	0	7.9910	0	32.1150	0	25.011	0	13.781	0	284.2	4	97.0	4	-1E+10	1	-1E+10	1	-1E+10	1	-1E+10	1	-1E+10	1	-1E+10	1
4902551	62	C	04/29/2022	05:51	-131.595	49.567	0	14.90	0	7.9080	0	32.1200	0	25.026	0	14.772	0	283.6	4	96.6	4	-1E+10	1	-1E+10	1	-1E+10	1	-1E+10	1	-1E+10	1	-1E+10	1
4902551	62	C	04/29/2022	05:51	-131.595	49.567	0	16.00	0	7.8430	0	32.1260	0	25.040	0	15.863	0	283.1	4	96.3	4	-1E+10	1	-1E+10	1	-1E+10	1	-1E+10	1	-1E+10	1	-1E+10	1
4902551	62	C	04/29/2022	05:51	-131.595	49.567	0	17.30	0	7.7990	0	32.1280	0	25.048	0	17.152	0	282.7	4	96.1	4	-1E+10	1	-1E+10	1	-1E+10	1	-1E+10	1	-1E+10	1	-1E+10	1
4902551	62	C	04/29/2022	05:51	-131.595	49.567	0	18.10	0	7.7890	0	32.1260	0	25.048	0	17.945	0	282.4	4	95.9	4	-1E+10	1	-1E+10	1	-1E+10	1	-1E+10	1	-1E+10	1	-1E+10	1
4902551	62	C	04/29/2022	05:51	-131.595	49.567	0	18.90	0	7.7760	0	32.1260	0	25.050	0	18.738	0	282.0	4	95.8	4	-1E+10	1	-1E+10	1	-1E+10	1	-1E+10	1	-1E+10	1	-1E+10	1
4902551	62	C	04/29/2022	05:51	-131.595	49.567	0	20.20	0	7.7660	0	32.1280	0	25.053	0	20.027	0	281.5	4	95.6	4	-1E+10	1	-1E+10	1	-1E+10	1	-1E+10	1	-1E+10	1	-1E+10	1
4902551	62	C	04/29/2022	05:51	-131.595	49.567	0	21.10	0	7.7620	0	32.1270	0	25.053	0	20.919	0	281.0	4	95.4	4	-1E+10	1	-1E+10	1	-1E+10	1	-1E+10	1	-1E+10	1	-1E+10	1
4902551	62	C	04/29/2022	05:51	-131.595	49.567	0	21.80	0	7.7550	0	32.1280	0	25.054	0	21.613	0	280.6	4	95.3	4	-1E+10	1	-1E+10	1	-1E+10	1	-1E+10	1	-1E+10	1	-1E+10	1
4902551	62	C	04/29/2022	05:51	-131.595	49.567	0	22.70	0	7.7480	0	32.1280	0	25.055	0	22.505	0	280.1	4	95.1	4	-1E+10	1	-1E+10	1	-1E+10	1	-1E+10	1	-1E+10	1	-1E+10	1
4902551	62	C	04/29/2022	05:51	-131.595	49.567	0	23.70	0	7.7380	0	32.1280	0	25.057	0	23.496	0	279.6	4	94.9	4	-1E+10	1	-1E+10	1	-1E+10	1	-1E+10	1	-1E+10	1	-1E+10	1
4902551	62	C	04/29/2022	05:51	-131.595	49.567	0	24.70	0	7.7350	0	32.1280	0	25.057	0	24.488	0	279.0	4	94.7	4	-1E+10	1	-1E+10	1	-1E+10	1	-1E+10	1	-1E+10	1	-1E+10	1
4902551	62	C	04/29/2022	05:51	-131.595	49.567	0	25.70	0	7.7250	0	32.1290	0	25.059	0	25.479	0	278.4	4	94.4	4	-1E+10	1	-1E+10	1	-1E+10	1	-1E+10	1	-1E+10	1	-1E+10	1
4902551	62	C	04/29/2022	05:51	-131.595	49.567	0	26.70	0	7.7040	0	32.1330	0	25.066	0	26.470	0	277.9	4	94.2	4	-1E+10	1	-1E+10	1	-1E+10	1	-1E+10	1	-1E+10	1	-1E+10	1
4902551	62	C	04/29/2022	05:51	-131.595	49.567	0	27.70	0	7.7010	0	32.1320	0	25.065	0	27.462	0	277.3	4	94.0	4	-1E+10	1	-1E+10	1	-1E+10	1	-1E+10	1	-1E+10	1	-1E+10	1
4902551	62	C	04/29/2022	05:51	-131.595	49.567	0	28.80	0	7.6960	0	32.1330	0	25.067	0	28.552	0	276.8	4	93.8	4	-1E+10	1	-1E+10	1	-1E+10	1	-1E+10	1	-1E+10	1	-1E+10	1
4902551	62	C	04/29/2022	05:51	-131.595	49.567	0	29.80	0	7.6910	0	32.1330	0	25.067	0	29.544	0	276.1	4	93.6	4	-1E+10	1	-1E+10	1	-1E+10	1	-1E+10	1	-1E+10	1	-1E+10	1
4902551	62	C	04/29/2022	05:51	-131.595	49.567	0	30.90	0	7.6870	0	32.1350	0	25.070	0	30.634	0	275.5	4	93.4	4	-1E+10	1	-1E+10	1	-1E+10	1	-1E+10	1	-1E+10	1	-1E+10	1
4902551	62	C	04/29/2022	05:51	-131.595	49.567	0	32.00	0	7.6850	0	32.1360	0	25.071	0	31.724	0	274.6	4	93.1	4	-1E+10	1	-1E+10	1	-1E+10	1	-1E+10	1	-1E+10	1	-1E+10	1
4902551	62	C	04/29/2022	05:51	-131.595	49.567	0	33.00	0	7.6840	0	32.1370	0	25.072	0	32.716	0	273.6	4	92.7	4	-1E+10	1	-1E+10	1	-1E+10	1	-1E+10	1	-1E+10	1	-1E+10	1
4902551	62	C	04/29/2022	05:51	-131.595	49.567	0	34.10	0	7.6830	0	32.1390	0	25.073	0	33.806	0	272.5	4	92.3	4	-1E+10	1	-1E+10	1	-1E+10	1	-1E+10	1	-1E+10	1	-1E+10	1
4902551	62	C	04/29/2022	05:51	-131.595	49.567	0	35.00	0	7.6830	0	32.1410	0	25.075	0	34.698	0	271.4	4	92.0	4	-1E+10	1	-1E+10	1	-1E+10	1	-1E+10	1	-1E+10	1	-1E+10	1
4902551	62	C	04/29/2022	05:51	-131.595	49.567	0	35.70	0	7.6820	0	32.1420	0	25.076	0	35.392	0	270.5	4	91.7	4	-1E+10	1	-1E+10	1	-1E+10	1	-1E+10	1	-1E+10	1	-1E+10	1
4902551	62	C	04/29/2022	05:51	-131.595	49.567	0	36.80	0	7.6820	0	32.1420	0	25.076	0	36.483	0	268.9	4	91.1	4	-1E+10	1	-1E+10	1	-1E+10	1	-1E+10	1	-1E+10	1	-1E+10	1
4902551	62	C	04/29/2022	05:51	-131.595	49.567	0	37.80	0	7.6810	0	32.1440	0	25.078	0	37.474	0	267.2	4	90.6	4	-1E+10	1	-1E+10	1	-1E+10	1	-1E+10	1	-1E+10	1	-1E+10	1
4902551	62	C	04/29/2022	05:51	-131.595	49.567	0	38.80	0	7.6800	0	32.1520	0	25.084	0	38.465	0	265.5	4	90.0	4	-1E+10	1	-1E+10	1	-1E+10	1	-1E+10	1	-1E+10	1	-1E+10	1
4902551	62	C	04/29/2022	05:51	-131.595	49.567	0	39.80	0	7.6730	0	32.1590	0	25.090	0	39.457	0	263.7	4	89.4	4	-1E+10	1	-1E+10	1	-1E+10	1	-1E+10	1	-1E+10	1	-1E+10	1
4902551	62	C	04/29/2022	05:51	-131.595	49.567	0	41.00	0	7.6580	0	32.1740	0	25.104	0	40.646	0	261.5	4	88.6	4	-1E+10	1	-1E+10	1	-1E+10	1	-1E+10	1	-1E+10	1	-1E+10	1
4902551	62	C	04/29/2022	05:51	-131.595	49.567	0	41.90	0	7.6510	0	32.1790	0	25.109	0	41.538	0	259.7	4	88.0	4	-1E+10	1	-1E+10	1	-1E+10	1	-1E+10	1	-1E+10	1	-1E+10	1
4902551	62	C	04/29/2022	05:51	-131.595	49.567	0	43.10	0	7.6340	0	32.2000	0	25.128	0	42.728	0	257.5	4	87.2	4	-1E+10	1	-1E+10	1	-1E+10	1	-1E+10	1	-1E+10	1	-1E+10	1
4902551	62	C	04/29/2022	05:51	-131.595	49.567	0	44.00	0	7.6200	0	32.2170	0	25.144	0	43.620	0	255.9	4	86.7	4	-1E+10	1	-1E+10	1	-1E+10	1	-1E+10	1	-1E+10	1	-1E+10	1
4902551	62	C	04/29/2022	05:51	-131.595	49.567	0	45.20	0	7.6140	0	32.2250	0	25.151	0	44.809	0	253.7	4	85.9	4	-1E+10	1	-1E+10	1	-1E+10	1	-1E+10	1	-1E+10	1	-1E+10	1
4902551	62	C	04/29/2022	05:51	-131.595	49.567	0	46.10	0	7.6110	0	32.2280	0	25.153	0	45.701	0	251.8	4	85.3	4	-1E+10	1	-1E+10	1	-1E+10	1	-1E+10	1	-1E+10	1	-1E+10	1
4902551	62	C	04/29/2022	05:51	-131.595	49.567	0	46.90	0	7.5990	0	32.2400	0	25.165	0	46.494	0	249.8	4	84.6	4	-1E+10	1	-1E+10	1	-1E+10	1	-1E+10	1	-1E+10	1	-1E+10	1
4902551	62	C	04/29/2022	05:51	-131.595	49.567	0	48.10	0	7.5760	0	32.2620	0	25.185	0	47.684	0	246.9	4	83.6	4	-1E+10	1	-1E+10	1	-1E+10	1	-1E+10	1	-1E+10	1	-1E+10	1
4902551	62	C	04/29/2022	05:51	-131.595	49.567	0	48.90	0	7.5270	0	32.3130	0	25.232	0	48.477	0	245.2	4	82.9	4	-1E+10	1	-1E+10	1	-1E+10	1	-1E+10	1	-1E+10	1	-1E+10	1
4902551	62	C	04/29/2022	05:51	-131.595	49.567	0	50.20	0	7.4600	0	32.3870	0	25.299	0	49.766	0	243.2	4	82.1	4	-1E+10	1	-1E+10	1	-1E+10	1	-1E+10	1	-1E+10	1	-1E+10	1
4902551	62	C	04/29/2022	05:51	-131.595	49.567	0	50.90	0	7.4570	0	32.3930	0	25.305	0	50.459	0	242.2	4	81.8	4	-1E+10	1	-1E+10	1	-1E+10	1	-1E+10	1	-1E+10	1	-1E+10	1
4902551	62	C	04/29/2022	05:51	-131.595	49.567	0	51.90	0	7.4530	0	32.3970	0	25.308	0	51.451	0	240.7	4	81.3	4	-1E+10	1	-1E+10	1	-1E+10	1	-1E+10	1	-1E+10	1	-1E+10	1
4902551	62	C	04/29/2022	05:51	-131.595	49.567	0	53.10	0	7.4450	0	32.4080	0	25.318	0	52.640	0	238.0	4	80.4	4	-1E+10	1	-1E+10	1	-1E+10	1	-1E+10	1	-1E+10	1	-1E+10	1
4902551	62	C	04/29/2022	05:51	-131.595	49.567	0	53.90	0	7.4450	0	32.4090	0	25.319	0	53.433	0	235.7	4	79.6	4	-1E+10	1	-1E+10	1	-1E+10	1	-1E+10	1	-1E+10	1	-1E+10	1
4902551	62	C	04/29/2022	05:51	-131.595	49.567	0	55.10	0	7.4420	0	32.4140	0	25.323	0	54.622	0	231.7	4	78.3	4	-1E+10	1	-1E+10	1	-1E+10	1	-1E+10	1	-1E+10	1	-1E+10	1
4902551	62	C	04/29/2022	05:51	-131.595	49.567	0	56.00	0	7.4320	0	32.4280	0	25.336	0	55.515	0	228.6	4	77.2	4	-1E+10	1	-1E+10	1	-1E+10	1	-1E+10	1	-1E+10	1	-1E+10	1
4902551	62	C	04/29/2022	05:51	-131.595	49.567	0	57.00	0	7.4180	0	32.4440	0	25.350	0	56.506	0	225.5	4	76.1	4	-1E+10	1	-1E+10	1	-1E+10	1	-1E+10	1	-1E+10	1	-1E+10	1
4902551	62	C	04/29/2022	05:51	-131.595	49.567	0	58.10	0	7.3630	0	32.5000	0	25.402	0	57.596	0	222.8	4	75.2	4	-1E+10	1	-1E+10	1	-1E+10	1	-1E+10	1	-1E+10	1	-1E+10	1
4902551	62	C	04/29/2022	05:51	-131.595	49.567	0	59.10	0	7.3060	0	32.5580	0	25.455	0	58.587	0	220.7	4	74.4	4	-1E+10	1	-1E+10	1	-1E+10	1	-1E+10	1	-1E+10	1	-1E+10	1
4902551	62	C	04/29/2022	05:51	-131.595	49.567	0	60.30	0	7.2770	0	32.6040	0	25.495	0	59.777	0	218.5	4	73.6	4	-1E+10	1	-1E+10	1	-1E+10	1	-1E+10	1	-1E+10	1	-1E+10	1
4902551	62	C	04/29/2022	05:51	-131.595	49.567	0	60.90	0	7.2570	0	32.6210	0	25.511	0	60.371	0	217.4	4	73.2	4	-1E+10	1	-1E+10	1	-1E+10	1	-1E+10	1	-1E+10	1	-1E+10	1
4902551	62	C	04/29/2022	05:51	-131.595	49.567	0	62.10	0	7.2450	0	32.6360	0	25.525	0	61.561	0	214.4	4	72.2	4	-1E+10	1	-1E+10	1	-1E+10	1	-1E+10	1	-1E+10	1	-1E+10	1
4902551	62	C	04/29/2022	05:51	-131.595	49.567	0	63.10	0	7.2280	0	32.6650	0	25.550	0	62.552	0	211.5	4	71.2	4	-1E+10	1	-1E+10	1	-1E+10	1	-1E+10	1	-1E+10	1	-1E+10	1
4902551	62	C	04/29/2022	05:51	-131.595	49.567	0	64.00	0	7.2060	0	32.7020	0	25.582	0	63.444	0	209.5	4	70.5	4	-1E+10	1	-1E+10	1	-1E+10	1	-1E+10	1	-1E+10	1	-1E+10	1
4902551	62	C	04/29/2022	05:51	-131.595	49.567	0	65.20	0	7.1920	0	32.7510	0	25.623	0	64.633	0	207.8	4	70.0	4	-1E+10	1	-1E+10	1	-1E+10	1	-1E+10	1	-1E+10	1	-1E+10	1
4902551	62	C	04/29/2022	05:51	-131.595	49.567	0	65.80	0	7.1860	0	32.7600	0	25.630	0	65.228	0	206.9	4	69.7	4	-1E+10	1	-1E+10	1	-1E+10	1	-1E+10	1	-1E+10	1	-1E+10	1
4902551	62	C	04/29/2022	05:51	-131.595	49.567	0	67.10	0	7.1810	0	32.7750	0	25.643	0	66.517	0	205.0	4	69.0	4	-1E+10	1	-1E+10	1	-1E+10	1	-1E+10	1	-1E+10	1	-1E+10	1
4902551	62	C	04/29/2022	05:51	-131.595	49.567	0	68.00	0	7.1810	0	32.7780	0	25.645	0	67.409	0	203.3	4	68.5	4	-1E+10	1	-1E+10	1	-1E+10	1	-1E+10	1	-1E+10	1	-1E+10	1
4902551	62	C	04/29/2022	05:51	-131.595	49.567	0	69.20	0	7.1700	0	32.8020	0	25.666	0	68.598	0	200.5	4	67.5	4	-1E+10	1	-1E+10	1	-1E+10	1	-1E+10	1	-1E+10	1	-1E+10	1
4902551	62	C	04/29/2022	05:51	-131.595	49.567	0	70.10	0	7.1590	0	32.8070	0	25.671	0	69.490	0	198.2	4	66.7	4	-1E+10	1	-1E+10	1	-1E+10	1	-1E+10	1	-1E+10	1	-1E+10	1
4902551	62	C	04/29/2022	05:51	-131.595	49.567	0	71.00	0	7.1540	0	32.8080	0	25.673	0	70.382	0	195.3	4	65.7	4	-1E+10	1	-1E+10	1	-1E+10	1	-1E+10	1	-1E+10	1	-1E+10	1
4902551	62	C	04/29/2022	05:51	-131.595	49.567	0	72.20	0	7.1330	0	32.8210	0	25.686	0	71.571	0	190.3	4	64.0	4	-1E+10	1	-1E+10	1	-1E+10	1	-1E+10	1	-1E+10	1	-1E+10	1
4902551	62	C	04/29/2022	05:51	-131.595	49.567	0	73.10	0	7.0940	0	32.8820	0	25.739	0	72.463	0	185.9	4	62.5	4	-1E+10	1	-1E+10	1	-1E+10	1	-1E+10	1	-1E+10	1	-1E+10	1
4902551	62	C	04/29/2022	05:51	-131.595	49.567	0	73.70	0	7.0950	0	32.9070	0	25.759	0	73.058	0	182.2	4	61.3	4	-1E+10	1	-1E+10	1	-1E+10	1	-1E+10	1	-1E+10	1	-1E+10	1
4902551	62	C	04/29/2022	05:51	-131.595	49.567	0	74.70	0	7.1270	0	32.9590	0	25.795	0	74.049	0	177.6	4	59.8	4	-1E+10	1	-1E+10	1	-1E+10	1	-1E+10	1	-1E+10	1	-1E+10	1
4902551	62	C	04/29/2022	05:51	-131.595	49.567	0	75.80	0	7.1680	0	33.0420	0	25.855	0	75.139	0	173.5	4	58.5	4	-1E+10	1	-1E+10	1	-1E+10	1	-1E+10	1	-1E+10	1	-1E+10	1
4902551	62	C	04/29/2022	05:51	-131.595	49.567	0	77.00	0	7.1690	0	33.0810	0	25.886	0	76.329	0	170.2	4	57.4	4	-1E+10	1	-1E+10	1	-1E+10	1	-1E+10	1	-1E+10	1	-1E+10	1
4902551	62	C	04/29/2022	05:51	-131.595	49.567	0	77.90	0	7.1710	0	33.1020	0	25.902	0	77.221	0	167.3	4	56.5	4	-1E+10	1	-1E+10	1	-1E+10	1	-1E+10	1	-1E+10	1	-1E+10	1
4902551	62	C	04/29/2022	05:51	-131.595	49.567	0	78.80	0	7.1700	0	33.1100	0	25.908	0	78.113	0	163.6	4	55.2	4	-1E+10	1	-1E+10	1	-1E+10	1	-1E+10	1	-1E+10	1	-1E+10	1
4902551	62	C	04/29/2022	05:51	-131.595	49.567	0	79.80	0	7.1710	0	33.1360	0	25.929	0	79.104	0	159.1	4	53.7	4	-1E+10	1	-1E+10	1	-1E+10	1	-1E+10	1	-1E+10	1	-1E+10	1
4902551	62	C	04/29/2022	05:51	-131.595	49.567	0	80.80	0	7.1780	0	33.1980	0	25.976	0	80.095	0	155.3	4	52.4	4	-1E+10	1	-1E+10	1	-1E+10	1	-1E+10	1	-1E+10	1	-1E+10	1
4902551	62	C	04/29/2022	05:51	-131.595	49.567	0	81.90	0	7.1980	0	33.2550	0	26.019	0	81.185	0	152.0	4	51.4	4	-1E+10	1	-1E+10	1	-1E+10	1	-1E+10	1	-1E+10	1	-1E+10	1
4902551	62	C	04/29/2022	05:51	-131.595	49.567	0	83.00	0	7.2040	0	33.2690	0	26.029	0	82.275	0	148.8	4	50.3	4	-1E+10	1	-1E+10	1	-1E+10	1	-1E+10	1	-1E+10	1	-1E+10	1
4902551	62	C	04/29/2022	05:51	-131.595	49.567	0	84.20	0	7.1970	0	33.2780	0	26.037	0	83.464	0	148.6	4	50.2	4	-1E+10	1	-1E+10	1	-1E+10	1	-1E+10	1	-1E+10	1	-1E+10	1
4902551	62	C	04/29/2022	05:51	-131.595	49.567	0	85.00	0	7.2200	0	33.2960	0	26.048	0	84.257	0	145.5	4	49.2	4	-1E+10	1	-1E+10	1	-1E+10	1	-1E+10	1	-1E+10	1	-1E+10	1
4902551	62	C	04/29/2022	05:51	-131.595	49.567	0	85.90	0	7.2950	0	33.3120	0	26.050	0	85.149	0	143.2	4	48.5	4	-1E+10	1	-1E+10	1	-1E+10	1	-1E+10	1	-1E+10	1	-1E+10	1
4902551	62	C	04/29/2022	05:51	-131.595	49.567	0	86.70	0	7.3240	0	33.4200	0	26.131	0	85.942	0	141.2	4	47.9	4	-1E+10	1	-1E+10	1	-1E+10	1	-1E+10	1	-1E+10	1	-1E+10	1
4902551	62	C	04/29/2022	05:51	-131.595	49.567	0	87.60	0	7.3110	0	33.4200	0	26.133	0	86.834	0	139.1	4	47.2	4	-1E+10	1	-1E+10	1	-1E+10	1	-1E+10	1	-1E+10	1	-1E+10	1
4902551	62	C	04/29/2022	05:51	-131.595	49.567	0	88.90	0	7.3930	0	33.4510	0	26.146	0	88.122	0	136.5	4	46.4	4	-1E+10	1	-1E+10	1	-1E+10	1	-1E+10	1	-1E+10	1	-1E+10	1
4902551	62	C	04/29/2022	05:51	-131.595	49.567	0	90.30	0	7.4820	0	33.5040	0	26.175	0	89.510	0	134.9	4	46.0	4	-1E+10	1	-1E+10	1	-1E+10	1	-1E+10	1	-1E+10	1	-1E+10	1
4902551	62	C	04/29/2022	05:51	-131.595	49.567	0	91.20	0	7.4770	0	33.5210	0	26.189	0	90.402	0	134.8	4	45.9	4	-1E+10	1	-1E+10	1	-1E+10	1	-1E+10	1	-1E+10	1	-1E+10	1
4902551	62	C	04/29/2022	05:51	-131.595	49.567	0	92.10	0	7.4510	0	33.5370	0	26.205	0	91.294	0	134.5	4	45.8	4	-1E+10	1	-1E+10	1	-1E+10	1	-1E+10	1	-1E+10	1	-1E+10	1
4902551	62	C	04/29/2022	05:51	-131.595	49.567	0	93.00	0	7.4590	0	33.5490	0	26.214	0	92.186	0	134.5	4	45.8	4	-1E+10	1	-1E+10	1	-1E+10	1	-1E+10	1	-1E+10	1	-1E+10	1
4902551	62	C	04/29/2022	05:51	-131.595	49.567	0	94.00	0	7.4590	0	33.5500	0	26.215	0	93.177	0	134.5	4	45.8	4	-1E+10	1	-1E+10	1	-1E+10	1	-1E+10	1	-1E+10	1	-1E+10	1
4902551	62	C	04/29/2022	05:51	-131.595	49.567	0	94.90	0	7.4410	0	33.5650	0	26.229	0	94.069	0	134.6	4	45.9	4	-1E+10	1	-1E+10	1	-1E+10	1	-1E+10	1	-1E+10	1	-1E+10	1
4902551	62	C	04/29/2022	05:51	-131.595	49.567	0	95.90	0	7.4290	0	33.5730	0	26.237	0	95.060	0	134.8	4	45.9	4	-1E+10	1	-1E+10	1	-1E+10	1	-1E+10	1	-1E+10	1	-1E+10	1
4902551	62	C	04/29/2022	05:51	-131.595	49.567	0	96.90	0	7.4310	0	33.5770	0	26.240	0	96.051	0	135.1	4	46.0	4	-1E+10	1	-1E+10	1	-1E+10	1	-1E+10	1	-1E+10	1	-1E+10	1
4902551	62	C	04/29/2022	05:51	-131.595	49.567	0	97.90	0	7.4260	0	33.5840	0	26.246	0	97.042	0	135.3	4	46.1	4	-1E+10	1	-1E+10	1	-1E+10	1	-1E+10	1	-1E+10	1	-1E+10	1
4902551	62	C	04/29/2022	05:51	-131.595	49.567	0	98.90	0	7.4150	0	33.5860	0	26.249	0	98.033	0	135.6	4	46.2	4	-1E+10	1	-1E+10	1	-1E+10	1	-1E+10	1	-1E+10	1	-1E+10	1
4902551	62	C	04/29/2022	05:51	-131.595	49.567	0	99.90	0	7.4060	0	33.5890	0	26.253	0	99.024	0	135.8	4	46.2	4	-1E+10	1	-1E+10	1	-1E+10	1	-1E+10	1	-1E+10	1	-1E+10	1
4902551	62	C	04/29/2022	05:51	-131.595	49.567	0	100.90	0	7.4030	0	33.5890	0	26.253	0	100.014	0	136.0	4	46.3	4	-1E+10	1	-1E+10	1	-1E+10	1	-1E+10	1	-1E+10	1	-1E+10	1
4902551	62	C	04/29/2022	05:51	-131.595	49.567	0	101.90	0	7.3990	0	33.5910	0	26.255	0	101.005	0	136.2	4	46.4	4	-1E+10	1	-1E+10	1	-1E+10	1	-1E+10	1	-1E+10	1	-1E+10	1
4902551	62	C	04/29/2022	05:51	-131.595	49.567	0	102.90	0	7.3790	0	33.6050	0	26.269	0	101.996	0	136.5	4	46.5	4	-1E+10	1	-1E+10	1	-1E+10	1	-1E+10	1	-1E+10	1	-1E+10	1
4902551	62	C	04/29/2022	05:51	-131.595	49.567	0	103.90	0	7.3630	0	33.6060	0	26.272	0	102.987	0	136.8	4	46.5	4	-1E+10	1	-1E+10	1	-1E+10	1	-1E+10	1	-1E+10	1	-1E+10	1
4902551	62	C	04/29/2022	05:51	-131.595	49.567	0	104.90	0	7.3430	0	33.6190	0	26.285	0	103.978	0	136.9	4	46.6	4	-1E+10	1	-1E+10	1	-1E+10	1	-1E+10	1	-1E+10	1	-1E+10	1
4902551	62	C	04/29/2022	05:51	-131.595	49.567	0	106.00	0	7.3100	0	33.6290	0	26.298	0	105.068	0	137.0	4	46.5	4	-1E+10	1	-1E+10	1	-1E+10	1	-1E+10	1	-1E+10	1	-1E+10	1
4902551	62	C	04/29/2022	05:51	-131.595	49.567	0	107.00	0	7.3010	0	33.6320	0	26.301	0	106.059	0	136.9	4	46.5	4	-1E+10	1	-1E+10	1	-1E+10	1	-1E+10	1	-1E+10	1	-1E+10	1
4902551	62	C	04/29/2022	05:51	-131.595	49.567	0	108.10	0	7.2940	0	33.6350	0	26.305	0	107.149	0	136.8	4	46.5	4	-1E+10	1	-1E+10	1	-1E+10	1	-1E+10	1	-1E+10	1	-1E+10	1
4902551	62	C	04/29/2022	05:51	-131.595	49.567	0	109.10	0	7.2900	0	33.6360	0	26.306	0	108.140	0	136.7	4	46.4	4	-1E+10	1	-1E+10	1	-1E+10	1	-1E+10	1	-1E+10	1	-1E+10	1
4902551	62	C	04/29/2022	05:51	-131.595	49.567	0	110.20	0	7.2880	0	33.6360	0	26.306	0	109.230	0	136.6	4	46.4	4	-1E+10	1	-1E+10	1	-1E+10	1	-1E+10	1	-1E+10	1	-1E+10	1
4902551	62	C	04/29/2022	05:51	-131.595	49.567	0	111.20	0	7.2860	0	33.6360	0	26.307	0	110.221	0	136.3	4	46.3	4	-1E+10	1	-1E+10	1	-1E+10	1	-1E+10	1	-1E+10	1	-1E+10	1
4902551	62	C	04/29/2022	05:51	-131.595	49.567	0	112.30	0	7.2730	0	33.6430	0	26.314	0	111.311	0	136.2	4	46.2	4	-1E+10	1	-1E+10	1	-1E+10	1	-1E+10	1	-1E+10	1	-1E+10	1
4902551	62	C	04/29/2022	05:51	-131.595	49.567	0	113.30	0	7.2730	0	33.6450	0	26.316	0	112.302	0	136.0	4	46.2	4	-1E+10	1	-1E+10	1	-1E+10	1	-1E+10	1	-1E+10	1	-1E+10	1
4902551	62	C	04/29/2022	05:51	-131.595	49.567	0	114.30	0	7.2650	0	33.6490	0	26.320	0	113.293	0	135.8	4	46.1	4	-1E+10	1	-1E+10	1	-1E+10	1	-1E+10	1	-1E+10	1	-1E+10	1
4902551	62	C	04/29/2022	05:51	-131.595	49.567	0	115.40	0	7.2480	0	33.6580	0	26.329	0	114.383	0	135.5	4	46.0	4	-1E+10	1	-1E+10	1	-1E+10	1	-1E+10	1	-1E+10	1	-1E+10	1
4902551	62	C	04/29/2022	05:51	-131.595	49.567	0	116.50	0	7.2190	0	33.6720	0	26.344	0	115.473	0	135.3	4	45.9	4	-1E+10	1	-1E+10	1	-1E+10	1	-1E+10	1	-1E+10	1	-1E+10	1
4902551	62	C	04/29/2022	05:51	-131.595	49.567	0	117.60	0	7.2080	0	33.6780	0	26.351	0	116.563	0	135.0	4	45.8	4	-1E+10	1	-1E+10	1	-1E+10	1	-1E+10	1	-1E+10	1	-1E+10	1
4902551	62	C	04/29/2022	05:51	-131.595	49.567	0	118.70	0	7.2030	0	33.6810	0	26.354	0	117.653	0	134.6	4	45.7	4	-1E+10	1	-1E+10	1	-1E+10	1	-1E+10	1	-1E+10	1	-1E+10	1
4902551	62	C	04/29/2022	05:51	-131.595	49.567	0	119.80	0	7.1990	0	33.6840	0	26.357	0	118.743	0	134.3	4	45.5	4	-1E+10	1	-1E+10	1	-1E+10	1	-1E+10	1	-1E+10	1	-1E+10	1
4902551	62	C	04/29/2022	05:51	-131.595	49.567	0	120.80	0	7.1930	0	33.6880	0	26.361	0	119.734	0	133.9	4	45.4	4	-1E+10	1	-1E+10	1	-1E+10	1	-1E+10	1	-1E+10	1	-1E+10	1
4902551	62	C	04/29/2022	05:51	-131.595	49.567	0	121.90	0	7.1920	0	33.6890	0	26.361	0	120.824	0	133.6	4	45.3	4	-1E+10	1	-1E+10	1	-1E+10	1	-1E+10	1	-1E+10	1	-1E+10	1
4902551	62	C	04/29/2022	05:51	-131.595	49.567	0	123.00	0	7.1900	0	33.6900	0	26.363	0	121.914	0	133.1	4	45.1	4	-1E+10	1	-1E+10	1	-1E+10	1	-1E+10	1	-1E+10	1	-1E+10	1
4902551	62	C	04/29/2022	05:51	-131.595	49.567	0	124.10	0	7.1890	0	33.6900	0	26.363	0	123.004	0	132.6	4	45.0	4	-1E+10	1	-1E+10	1	-1E+10	1	-1E+10	1	-1E+10	1	-1E+10	1
4902551	62	C	04/29/2022	05:51	-131.595	49.567	0	125.20	0	7.1840	0	33.6930	0	26.366	0	124.094	0	132.1	4	44.8	4	-1E+10	1	-1E+10	1	-1E+10	1	-1E+10	1	-1E+10	1	-1E+10	1
4902551	62	C	04/29/2022	05:51	-131.595	49.567	0	126.20	0	7.1840	0	33.6940	0	26.367	0	125.085	0	131.6	4	44.6	4	-1E+10	1	-1E+10	1	-1E+10	1	-1E+10	1	-1E+10	1	-1E+10	1
4902551	62	C	04/29/2022	05:51	-131.595	49.567	0	127.30	0	7.1780	0	33.7070	0	26.378	0	126.175	0	131.3	4	44.5	4	-1E+10	1	-1E+10	1	-1E+10	1	-1E+10	1	-1E+10	1	-1E+10	1
4902551	62	C	04/29/2022	05:51	-131.595	49.567	0	128.40	0	7.1710	0	33.7090	0	26.380	0	127.265	0	130.9	4	44.4	4	-1E+10	1	-1E+10	1	-1E+10	1	-1E+10	1	-1E+10	1	-1E+10	1
4902551	62	C	04/29/2022	05:51	-131.595	49.567	0	129.40	0	7.1630	0	33.7110	0	26.383	0	128.256	0	130.5	4	44.2	4	-1E+10	1	-1E+10	1	-1E+10	1	-1E+10	1	-1E+10	1	-1E+10	1
4902551	62	C	04/29/2022	05:51	-131.595	49.567	0	130.50	0	7.1520	0	33.7140	0	26.387	0	129.345	0	130.0	4	44.0	4	-1E+10	1	-1E+10	1	-1E+10	1	-1E+10	1	-1E+10	1	-1E+10	1
4902551	62	C	04/29/2022	05:51	-131.595	49.567	0	131.60	0	7.1410	0	33.7170	0	26.391	0	130.435	0	129.5	4	43.9	4	-1E+10	1	-1E+10	1	-1E+10	1	-1E+10	1	-1E+10	1	-1E+10	1
4902551	62	C	04/29/2022	05:51	-131.595	49.567	0	132.70	0	7.1250	0	33.7220	0	26.397	0	131.525	0	128.8	4	43.6	4	-1E+10	1	-1E+10	1	-1E+10	1	-1E+10	1	-1E+10	1	-1E+10	1
4902551	62	C	04/29/2022	05:51	-131.595	49.567	0	133.70	0	7.0990	0	33.7340	0	26.410	0	132.516	0	128.2	4	43.4	4	-1E+10	1	-1E+10	1	-1E+10	1	-1E+10	1	-1E+10	1	-1E+10	1
4902551	62	C	04/29/2022	05:51	-131.595	49.567	0	134.80	0	7.0870	0	33.7380	0	26.415	0	133.606	0	127.6	4	43.2	4	-1E+10	1	-1E+10	1	-1E+10	1	-1E+10	1	-1E+10	1	-1E+10	1
4902551	62	C	04/29/2022	05:51	-131.595	49.567	0	135.90	0	7.0750	0	33.7430	0	26.420	0	134.696	0	126.8	4	42.9	4	-1E+10	1	-1E+10	1	-1E+10	1	-1E+10	1	-1E+10	1	-1E+10	1
4902551	62	C	04/29/2022	05:51	-131.595	49.567	0	137.00	0	7.0640	0	33.7470	0	26.425	0	135.786	0	126.1	4	42.6	4	-1E+10	1	-1E+10	1	-1E+10	1	-1E+10	1	-1E+10	1	-1E+10	1
4902551	62	C	04/29/2022	05:51	-131.595	49.567	0	138.10	0	7.0420	0	33.7560	0	26.435	0	136.876	0	125.3	4	42.4	4	-1E+10	1	-1E+10	1	-1E+10	1	-1E+10	1	-1E+10	1	-1E+10	1
4902551	62	C	04/29/2022	05:51	-131.595	49.567	0	139.20	0	6.9910	0	33.7800	0	26.461	0	137.966	0	124.8	4	42.2	4	-1E+10	1	-1E+10	1	-1E+10	1	-1E+10	1	-1E+10	1	-1E+10	1
4902551	62	C	04/29/2022	05:51	-131.595	49.567	0	140.20	0	6.9740	0	33.7870	0	26.469	0	138.956	0	124.4	4	42.0	4	-1E+10	1	-1E+10	1	-1E+10	1	-1E+10	1	-1E+10	1	-1E+10	1
4902551	62	C	04/29/2022	05:51	-131.595	49.567	0	141.30	0	6.9710	0	33.7890	0	26.471	0	140.046	0	124.0	4	41.8	4	-1E+10	1	-1E+10	1	-1E+10	1	-1E+10	1	-1E+10	1	-1E+10	1
4902551	62	C	04/29/2022	05:51	-131.595	49.567	0	142.40	0	6.9640	0	33.7960	0	26.477	0	141.136	0	123.7	4	41.7	4	-1E+10	1	-1E+10	1	-1E+10	1	-1E+10	1	-1E+10	1	-1E+10	1
4902551	62	C	04/29/2022	05:51	-131.595	49.567	0	143.50	0	6.9590	0	33.7990	0	26.480	0	142.226	0	123.4	4	41.6	4	-1E+10	1	-1E+10	1	-1E+10	1	-1E+10	1	-1E+10	1	-1E+10	1
4902551	62	C	04/29/2022	05:51	-131.595	49.567	0	144.60	0	6.9530	0	33.8010	0	26.483	0	143.316	0	123.2	4	41.6	4	-1E+10	1	-1E+10	1	-1E+10	1	-1E+10	1	-1E+10	1	-1E+10	1
4902551	62	C	04/29/2022	05:51	-131.595	49.567	0	145.80	0	6.9470	0	33.8010	0	26.484	0	144.505	0	123.0	4	41.5	4	-1E+10	1	-1E+10	1	-1E+10	1	-1E+10	1	-1E+10	1	-1E+10	1
4902551	62	C	04/29/2022	05:51	-131.595	49.567	0	146.90	0	6.9420	0	33.8020	0	26.485	0	145.595	0	122.8	4	41.4	4	-1E+10	1	-1E+10	1	-1E+10	1	-1E+10	1	-1E+10	1	-1E+10	1
4902551	62	C	04/29/2022	05:51	-131.595	49.567	0	148.00	0	6.9270	0	33.8070	0	26.491	0	146.684	0	122.5	4	41.3	4	-1E+10	1	-1E+10	1	-1E+10	1	-1E+10	1	-1E+10	1	-1E+10	1
4902551	62	C	04/29/2022	05:51	-131.595	49.567	0	149.10	0	6.9090	0	33.8100	0	26.496	0	147.774	0	122.3	4	41.2	4	-1E+10	1	-1E+10	1	-1E+10	1	-1E+10	1	-1E+10	1	-1E+10	1
4902551	62	C	04/29/2022	05:51	-131.595	49.567	0	150.20	0	6.9090	0	33.8100	0	26.496	0	148.864	0	122.2	4	41.2	4	-1E+10	1	-1E+10	1	-1E+10	1	-1E+10	1	-1E+10	1	-1E+10	1
4902551	62	C	04/29/2022	05:51	-131.595	49.567	0	151.30	0	6.9090	0	33.8100	0	26.496	0	149.954	0	121.9	4	41.1	4	-1E+10	1	-1E+10	1	-1E+10	1	-1E+10	1	-1E+10	1	-1E+10	1
4902551	62	C	04/29/2022	05:51	-131.595	49.567	0	152.30	0	6.9090	0	33.8100	0	26.496	0	150.945	0	121.7	4	41.0	4	-1E+10	1	-1E+10	1	-1E+10	1	-1E+10	1	-1E+10	1	-1E+10	1
4902551	62	C	04/29/2022	05:51	-131.595	49.567	0	153.90	0	6.9010	0	33.8120	0	26.499	0	152.530	0	121.2	4	40.9	4	-1E+10	1	-1E+10	1	-1E+10	1	-1E+10	1	-1E+10	1	-1E+10	1
4902551	62	C	04/29/2022	05:51	-131.595	49.567	0	155.10	0	6.8850	0	33.8170	0	26.505	0	153.719	0	120.9	4	40.7	4	-1E+10	1	-1E+10	1	-1E+10	1	-1E+10	1	-1E+10	1	-1E+10	1
4902551	62	C	04/29/2022	05:51	-131.595	49.567	0	155.90	0	6.8800	0	33.8160	0	26.505	0	154.511	0	120.7	4	40.7	4	-1E+10	1	-1E+10	1	-1E+10	1	-1E+10	1	-1E+10	1	-1E+10	1
4902551	62	C	04/29/2022	05:51	-131.595	49.567	0	156.70	0	6.8740	0	33.8160	0	26.505	0	155.304	0	120.5	4	40.6	4	-1E+10	1	-1E+10	1	-1E+10	1	-1E+10	1	-1E+10	1	-1E+10	1
4902551	62	C	04/29/2022	05:51	-131.595	49.567	0	157.90	0	6.8650	0	33.8180	0	26.508	0	156.493	0	120.1	4	40.5	4	-1E+10	1	-1E+10	1	-1E+10	1	-1E+10	1	-1E+10	1	-1E+10	1
4902551	62	C	04/29/2022	05:51	-131.595	49.567	0	159.10	0	6.8510	0	33.8220	0	26.513	0	157.682	0	119.7	4	40.3	4	-1E+10	1	-1E+10	1	-1E+10	1	-1E+10	1	-1E+10	1	-1E+10	1
4902551	62	C	04/29/2022	05:51	-131.595	49.567	0	159.90	0	6.8410	0	33.8230	0	26.515	0	158.474	0	119.4	4	40.2	4	-1E+10	1	-1E+10	1	-1E+10	1	-1E+10	1	-1E+10	1	-1E+10	1
4902551	62	C	04/29/2022	05:51	-131.595	49.567	0	160.70	0	6.8380	0	33.8230	0	26.516	0	159.267	0	119.1	4	40.1	4	-1E+10	1	-1E+10	1	-1E+10	1	-1E+10	1	-1E+10	1	-1E+10	1
4902551	62	C	04/29/2022	05:51	-131.595	49.567	0	161.90	0	6.8350	0	33.8230	0	26.516	0	160.455	0	118.6	4	39.9	4	-1E+10	1	-1E+10	1	-1E+10	1	-1E+10	1	-1E+10	1	-1E+10	1
4902551	62	C	04/29/2022	05:51	-131.595	49.567	0	163.10	0	6.8340	0	33.8230	0	26.516	0	161.644	0	118.1	4	39.8	4	-1E+10	1	-1E+10	1	-1E+10	1	-1E+10	1	-1E+10	1	-1E+10	1
4902551	62	C	04/29/2022	05:51	-131.595	49.567	0	163.90	0	6.8330	0	33.8220	0	26.516	0	162.437	0	117.7	4	39.6	4	-1E+10	1	-1E+10	1	-1E+10	1	-1E+10	1	-1E+10	1	-1E+10	1
4902551	62	C	04/29/2022	05:51	-131.595	49.567	0	164.70	0	6.8130	0	33.8320	0	26.526	0	163.229	0	117.3	4	39.5	4	-1E+10	1	-1E+10	1	-1E+10	1	-1E+10	1	-1E+10	1	-1E+10	1
4902551	62	C	04/29/2022	05:51	-131.595	49.567	0	165.90	0	6.7660	0	33.8370	0	26.537	0	164.418	0	117.1	4	39.4	4	-1E+10	1	-1E+10	1	-1E+10	1	-1E+10	1	-1E+10	1	-1E+10	1
4902551	62	C	04/29/2022	05:51	-131.595	49.567	0	167.20	0	6.7530	0	33.8380	0	26.539	0	165.706	0	116.8	4	39.2	4	-1E+10	1	-1E+10	1	-1E+10	1	-1E+10	1	-1E+10	1	-1E+10	1
4902551	62	C	04/29/2022	05:51	-131.595	49.567	0	168.00	0	6.7460	0	33.8390	0	26.541	0	166.499	0	116.6	4	39.2	4	-1E+10	1	-1E+10	1	-1E+10	1	-1E+10	1	-1E+10	1	-1E+10	1
4902551	62	C	04/29/2022	05:51	-131.595	49.567	0	168.80	0	6.7420	0	33.8410	0	26.543	0	167.291	0	116.4	4	39.1	4	-1E+10	1	-1E+10	1	-1E+10	1	-1E+10	1	-1E+10	1	-1E+10	1
4902551	62	C	04/29/2022	05:51	-131.595	49.567	0	170.00	0	6.7390	0	33.8410	0	26.543	0	168.480	0	116.2	4	39.0	4	-1E+10	1	-1E+10	1	-1E+10	1	-1E+10	1	-1E+10	1	-1E+10	1
4902551	62	C	04/29/2022	05:51	-131.595	49.567	0	171.30	0	6.7370	0	33.8420	0	26.544	0	169.768	0	115.9	4	38.9	4	-1E+10	1	-1E+10	1	-1E+10	1	-1E+10	1	-1E+10	1	-1E+10	1
4902551	62	C	04/29/2022	05:51	-131.595	49.567	0	172.10	0	6.7360	0	33.8430	0	26.545	0	170.560	0	115.7	4	38.9	4	-1E+10	1	-1E+10	1	-1E+10	1	-1E+10	1	-1E+10	1	-1E+10	1
4902551	62	C	04/29/2022	05:51	-131.595	49.567	0	172.90	0	6.7350	0	33.8430	0	26.545	0	171.353	0	115.4	4	38.8	4	-1E+10	1	-1E+10	1	-1E+10	1	-1E+10	1	-1E+10	1	-1E+10	1
4902551	62	C	04/29/2022	05:51	-131.595	49.567	0	173.70	0	6.7330	0	33.8440	0	26.547	0	172.145	0	115.2	4	38.7	4	-1E+10	1	-1E+10	1	-1E+10	1	-1E+10	1	-1E+10	1	-1E+10	1
4902551	62	C	04/29/2022	05:51	-131.595	49.567	0	175.00	0	6.7320	0	33.8460	0	26.548	0	173.433	0	115.0	4	38.6	4	-1E+10	1	-1E+10	1	-1E+10	1	-1E+10	1	-1E+10	1	-1E+10	1
4902551	62	C	04/29/2022	05:51	-131.595	49.567	0	176.30	0	6.7310	0	33.8480	0	26.550	0	174.721	0	114.7	4	38.5	4	-1E+10	1	-1E+10	1	-1E+10	1	-1E+10	1	-1E+10	1	-1E+10	1
4902551	62	C	04/29/2022	05:51	-131.595	49.567	0	177.10	0	6.7300	0	33.8480	0	26.550	0	175.513	0	114.5	4	38.5	4	-1E+10	1	-1E+10	1	-1E+10	1	-1E+10	1	-1E+10	1	-1E+10	1
4902551	62	C	04/29/2022	05:51	-131.595	49.567	0	178.00	0	6.7300	0	33.8480	0	26.550	0	176.405	0	114.3	4	38.4	4	-1E+10	1	-1E+10	1	-1E+10	1	-1E+10	1	-1E+10	1	-1E+10	1
4902551	62	C	04/29/2022	05:51	-131.595	49.567	0	178.80	0	6.7280	0	33.8490	0	26.551	0	177.197	0	114.1	4	38.3	4	-1E+10	1	-1E+10	1	-1E+10	1	-1E+10	1	-1E+10	1	-1E+10	1
4902551	62	C	04/29/2022	05:51	-131.595	49.567	0	179.70	0	6.7270	0	33.8490	0	26.551	0	178.089	0	113.9	4	38.2	4	-1E+10	1	-1E+10	1	-1E+10	1	-1E+10	1	-1E+10	1	-1E+10	1
4902551	62	C	04/29/2022	05:51	-131.595	49.567	0	180.90	0	6.7250	0	33.8500	0	26.552	0	179.278	0	113.6	4	38.1	4	-1E+10	1	-1E+10	1	-1E+10	1	-1E+10	1	-1E+10	1	-1E+10	1
4902551	62	C	04/29/2022	05:51	-131.595	49.567	0	182.20	0	6.7200	0	33.8520	0	26.555	0	180.565	0	113.3	4	38.0	4	-1E+10	1	-1E+10	1	-1E+10	1	-1E+10	1	-1E+10	1	-1E+10	1
4902551	62	C	04/29/2022	05:51	-131.595	49.567	0	183.10	0	6.7160	0	33.8530	0	26.556	0	181.457	0	113.1	4	38.0	4	-1E+10	1	-1E+10	1	-1E+10	1	-1E+10	1	-1E+10	1	-1E+10	1
4902551	62	C	04/29/2022	05:51	-131.595	49.567	0	184.00	0	6.7130	0	33.8530	0	26.556	0	182.349	0	113.0	4	37.9	4	-1E+10	1	-1E+10	1	-1E+10	1	-1E+10	1	-1E+10	1	-1E+10	1
4902551	62	C	04/29/2022	05:51	-131.595	49.567	0	184.90	0	6.7090	0	33.8540	0	26.558	0	183.240	0	112.8	4	37.9	4	-1E+10	1	-1E+10	1	-1E+10	1	-1E+10	1	-1E+10	1	-1E+10	1
4902551	62	C	04/29/2022	05:51	-131.595	49.567	0	185.70	0	6.7080	0	33.8540	0	26.558	0	184.033	0	112.6	4	37.8	4	-1E+10	1	-1E+10	1	-1E+10	1	-1E+10	1	-1E+10	1	-1E+10	1
4902551	62	C	04/29/2022	05:51	-131.595	49.567	0	186.60	0	6.7070	0	33.8540	0	26.558	0	184.924	0	112.4	4	37.7	4	-1E+10	1	-1E+10	1	-1E+10	1	-1E+10	1	-1E+10	1	-1E+10	1
4902551	62	C	04/29/2022	05:51	-131.595	49.567	0	187.90	0	6.7000	0	33.8550	0	26.560	0	186.212	0	112.1	4	37.6	4	-1E+10	1	-1E+10	1	-1E+10	1	-1E+10	1	-1E+10	1	-1E+10	1
4902551	62	C	04/29/2022	05:51	-131.595	49.567	0	189.30	0	6.6940	0	33.8560	0	26.561	0	187.599	0	111.8	4	37.5	4	-1E+10	1	-1E+10	1	-1E+10	1	-1E+10	1	-1E+10	1	-1E+10	1
4902551	62	C	04/29/2022	05:51	-131.595	49.567	0	190.20	0	6.6900	0	33.8560	0	26.562	0	188.490	0	111.6	4	37.4	4	-1E+10	1	-1E+10	1	-1E+10	1	-1E+10	1	-1E+10	1	-1E+10	1
4902551	62	C	04/29/2022	05:51	-131.595	49.567	0	191.10	0	6.6710	0	33.8570	0	26.565	0	189.382	0	111.4	4	37.4	4	-1E+10	1	-1E+10	1	-1E+10	1	-1E+10	1	-1E+10	1	-1E+10	1
4902551	62	C	04/29/2022	05:51	-131.595	49.567	0	192.00	0	6.6640	0	33.8580	0	26.567	0	190.273	0	111.2	4	37.3	4	-1E+10	1	-1E+10	1	-1E+10	1	-1E+10	1	-1E+10	1	-1E+10	1
4902551	62	C	04/29/2022	05:51	-131.595	49.567	0	192.90	0	6.6610	0	33.8580	0	26.567	0	191.165	0	111.1	4	37.2	4	-1E+10	1	-1E+10	1	-1E+10	1	-1E+10	1	-1E+10	1	-1E+10	1
4902551	62	C	04/29/2022	05:51	-131.595	49.567	0	193.80	0	6.6420	0	33.8660	0	26.576	0	192.056	0	110.8	4	37.2	4	-1E+10	1	-1E+10	1	-1E+10	1	-1E+10	1	-1E+10	1	-1E+10	1
4902551	62	C	04/29/2022	05:51	-131.595	49.567	0	194.80	0	6.6380	0	33.8600	0	26.572	0	193.047	0	110.6	4	37.1	4	-1E+10	1	-1E+10	1	-1E+10	1	-1E+10	1	-1E+10	1	-1E+10	1
4902551	62	C	04/29/2022	05:51	-131.595	49.567	0	195.60	0	6.6370	0	33.8600	0	26.572	0	193.839	0	110.4	4	37.0	4	-1E+10	1	-1E+10	1	-1E+10	1	-1E+10	1	-1E+10	1	-1E+10	1
4902551	62	C	04/29/2022	05:51	-131.595	49.567	0	196.60	0	6.6360	0	33.8600	0	26.572	0	194.830	0	110.2	4	36.9	4	-1E+10	1	-1E+10	1	-1E+10	1	-1E+10	1	-1E+10	1	-1E+10	1
4902551	62	C	04/29/2022	05:51	-131.595	49.567	0	197.90	0	6.6340	0	33.8590	0	26.572	0	196.117	0	109.7	4	36.8	4	-1E+10	1	-1E+10	1	-1E+10	1	-1E+10	1	-1E+10	1	-1E+10	1
4902551	62	C	04/29/2022	05:51	-131.595	49.567	0	199.20	0	6.6270	0	33.8610	0	26.574	0	197.405	0	109.3	4	36.6	4	-1E+10	1	-1E+10	1	-1E+10	1	-1E+10	1	-1E+10	1	-1E+10	1
4902551	62	C	04/29/2022	05:51	-131.595	49.567	0	200.10	0	6.6220	0	33.8620	0	26.576	0	198.296	0	108.9	4	36.5	4	-1E+10	1	-1E+10	1	-1E+10	1	-1E+10	1	-1E+10	1	-1E+10	1
4902551	62	C	04/29/2022	05:51	-131.595	49.567	0	201.00	0	6.6050	0	33.8640	0	26.580	0	199.188	0	108.6	4	36.4	4	-1E+10	1	-1E+10	1	-1E+10	1	-1E+10	1	-1E+10	1	-1E+10	1
4902551	62	C	04/29/2022	05:51	-131.595	49.567	0	201.90	0	6.5950	0	33.8640	0	26.581	0	200.079	0	108.2	4	36.2	4	-1E+10	1	-1E+10	1	-1E+10	1	-1E+10	1	-1E+10	1	-1E+10	1
4902551	62	C	04/29/2022	05:51	-131.595	49.567	0	202.70	0	6.5940	0	33.8640	0	26.581	0	200.872	0	107.8	4	36.1	4	-1E+10	1	-1E+10	1	-1E+10	1	-1E+10	1	-1E+10	1	-1E+10	1
4902551	62	C	04/29/2022	05:51	-131.595	49.567	0	204.00	0	6.5950	0	33.8630	0	26.580	0	202.159	0	107.1	4	35.9	4	-1E+10	1	-1E+10	1	-1E+10	1	-1E+10	1	-1E+10	1	-1E+10	1
4902551	62	C	04/29/2022	05:51	-131.595	49.567	0	205.30	0	6.5820	0	33.8650	0	26.583	0	203.447	0	106.3	4	35.6	4	-1E+10	1	-1E+10	1	-1E+10	1	-1E+10	1	-1E+10	1	-1E+10	1
4902551	62	C	04/29/2022	05:51	-131.595	49.567	0	206.10	0	6.5730	0	33.8650	0	26.585	0	204.239	0	105.7	4	35.4	4	-1E+10	1	-1E+10	1	-1E+10	1	-1E+10	1	-1E+10	1	-1E+10	1
4902551	62	C	04/29/2022	05:51	-131.595	49.567	0	207.00	0	6.5650	0	33.8660	0	26.587	0	205.131	0	105.0	4	35.1	4	-1E+10	1	-1E+10	1	-1E+10	1	-1E+10	1	-1E+10	1	-1E+10	1
4902551	62	C	04/29/2022	05:51	-131.595	49.567	0	207.80	0	6.5530	0	33.8650	0	26.587	0	205.923	0	104.3	4	34.9	4	-1E+10	1	-1E+10	1	-1E+10	1	-1E+10	1	-1E+10	1	-1E+10	1
4902551	62	C	04/29/2022	05:51	-131.595	49.567	0	208.60	0	6.5270	0	33.8690	0	26.594	0	206.715	0	103.6	4	34.6	4	-1E+10	1	-1E+10	1	-1E+10	1	-1E+10	1	-1E+10	1	-1E+10	1
4902551	62	C	04/29/2022	05:51	-131.595	49.567	0	209.90	0	6.5300	0	33.8740	0	26.597	0	208.003	0	102.5	4	34.3	4	-1E+10	1	-1E+10	1	-1E+10	1	-1E+10	1	-1E+10	1	-1E+10	1
4902551	62	C	04/29/2022	05:51	-131.595	49.567	0	211.20	0	6.5230	0	33.8790	0	26.602	0	209.291	0	101.8	4	34.0	4	-1E+10	1	-1E+10	1	-1E+10	1	-1E+10	1	-1E+10	1	-1E+10	1
4902551	62	C	04/29/2022	05:51	-131.595	49.567	0	212.00	0	6.4990	0	33.8850	0	26.610	0	210.083	0	101.5	4	33.9	4	-1E+10	1	-1E+10	1	-1E+10	1	-1E+10	1	-1E+10	1	-1E+10	1
4902551	62	C	04/29/2022	05:51	-131.595	49.567	0	212.80	0	6.4930	0	33.8840	0	26.610	0	210.875	0	101.3	4	33.8	4	-1E+10	1	-1E+10	1	-1E+10	1	-1E+10	1	-1E+10	1	-1E+10	1
4902551	62	C	04/29/2022	05:51	-131.595	49.567	0	213.70	0	6.4930	0	33.8840	0	26.610	0	211.767	0	100.9	4	33.7	4	-1E+10	1	-1E+10	1	-1E+10	1	-1E+10	1	-1E+10	1	-1E+10	1
4902551	62	C	04/29/2022	05:51	-131.595	49.567	0	214.90	0	6.4860	0	33.8870	0	26.614	0	212.955	0	100.6	4	33.6	4	-1E+10	1	-1E+10	1	-1E+10	1	-1E+10	1	-1E+10	1	-1E+10	1
4902551	62	C	04/29/2022	05:51	-131.595	49.567	0	216.20	0	6.4760	0	33.8870	0	26.615	0	214.243	0	100.1	4	33.4	4	-1E+10	1	-1E+10	1	-1E+10	1	-1E+10	1	-1E+10	1	-1E+10	1
4902551	62	C	04/29/2022	05:51	-131.595	49.567	0	217.00	0	6.4730	0	33.8870	0	26.615	0	215.035	0	99.8	4	33.3	4	-1E+10	1	-1E+10	1	-1E+10	1	-1E+10	1	-1E+10	1	-1E+10	1
4902551	62	C	04/29/2022	05:51	-131.595	49.567	0	217.80	0	6.4730	0	33.8870	0	26.615	0	215.828	0	99.5	4	33.2	4	-1E+10	1	-1E+10	1	-1E+10	1	-1E+10	1	-1E+10	1	-1E+10	1
4902551	62	C	04/29/2022	05:51	-131.595	49.567	0	218.60	0	6.4690	0	33.8890	0	26.617	0	216.620	0	99.2	4	33.1	4	-1E+10	1	-1E+10	1	-1E+10	1	-1E+10	1	-1E+10	1	-1E+10	1
4902551	62	C	04/29/2022	05:51	-131.595	49.567	0	219.90	0	6.4510	0	33.8890	0	26.620	0	217.907	0	98.7	4	32.9	4	-1E+10	1	-1E+10	1	-1E+10	1	-1E+10	1	-1E+10	1	-1E+10	1
4902551	62	C	04/29/2022	05:51	-131.595	49.567	0	221.20	0	6.4350	0	33.8890	0	26.622	0	219.195	0	98.0	4	32.7	4	-1E+10	1	-1E+10	1	-1E+10	1	-1E+10	1	-1E+10	1	-1E+10	1
4902551	62	C	04/29/2022	05:51	-131.595	49.567	0	222.00	0	6.4200	0	33.8910	0	26.625	0	219.987	0	97.5	4	32.5	4	-1E+10	1	-1E+10	1	-1E+10	1	-1E+10	1	-1E+10	1	-1E+10	1
4902551	62	C	04/29/2022	05:51	-131.595	49.567	0	222.80	0	6.4110	0	33.8900	0	26.626	0	220.780	0	97.0	4	32.4	4	-1E+10	1	-1E+10	1	-1E+10	1	-1E+10	1	-1E+10	1	-1E+10	1
4902551	62	C	04/29/2022	05:51	-131.595	49.567	0	223.70	0	6.4010	0	33.8910	0	26.628	0	221.671	0	96.5	4	32.2	4	-1E+10	1	-1E+10	1	-1E+10	1	-1E+10	1	-1E+10	1	-1E+10	1
4902551	62	C	04/29/2022	05:51	-131.595	49.567	0	224.90	0	6.3500	0	33.8970	0	26.639	0	222.859	0	96.0	4	32.0	4	-1E+10	1	-1E+10	1	-1E+10	1	-1E+10	1	-1E+10	1	-1E+10	1
4902551	62	C	04/29/2022	05:51	-131.595	49.567	0	226.20	0	6.3110	0	33.9000	0	26.647	0	224.147	0	95.6	4	31.8	4	-1E+10	1	-1E+10	1	-1E+10	1	-1E+10	1	-1E+10	1	-1E+10	1
4902551	62	C	04/29/2022	05:51	-131.595	49.567	0	227.10	0	6.3000	0	33.9010	0	26.649	0	225.038	0	95.4	4	31.7	4	-1E+10	1	-1E+10	1	-1E+10	1	-1E+10	1	-1E+10	1	-1E+10	1
4902551	62	C	04/29/2022	05:51	-131.595	49.567	0	228.00	0	6.2670	0	33.8980	0	26.651	0	225.930	0	95.2	4	31.6	4	-1E+10	1	-1E+10	1	-1E+10	1	-1E+10	1	-1E+10	1	-1E+10	1
4902551	62	C	04/29/2022	05:51	-131.595	49.567	0	228.80	0	6.2650	0	33.8970	0	26.650	0	226.722	0	94.9	4	31.5	4	-1E+10	1	-1E+10	1	-1E+10	1	-1E+10	1	-1E+10	1	-1E+10	1
4902551	62	C	04/29/2022	05:51	-131.595	49.567	0	229.70	0	6.2550	0	33.8980	0	26.652	0	227.613	0	94.7	4	31.5	4	-1E+10	1	-1E+10	1	-1E+10	1	-1E+10	1	-1E+10	1	-1E+10	1
4902551	62	C	04/29/2022	05:51	-131.595	49.567	0	231.00	0	6.2400	0	33.8970	0	26.653	0	228.901	0	94.2	4	31.3	4	-1E+10	1	-1E+10	1	-1E+10	1	-1E+10	1	-1E+10	1	-1E+10	1
4902551	62	C	04/29/2022	05:51	-131.595	49.567	0	232.30	0	6.2250	0	33.8980	0	26.656	0	230.188	0	93.5	4	31.1	4	-1E+10	1	-1E+10	1	-1E+10	1	-1E+10	1	-1E+10	1	-1E+10	1
4902551	62	C	04/29/2022	05:51	-131.595	49.567	0	233.20	0	6.2100	0	33.8980	0	26.658	0	231.079	0	93.1	4	30.9	4	-1E+10	1	-1E+10	1	-1E+10	1	-1E+10	1	-1E+10	1	-1E+10	1
4902551	62	C	04/29/2022	05:51	-131.595	49.567	0	234.00	0	6.2020	0	33.8990	0	26.660	0	231.872	0	92.6	4	30.7	4	-1E+10	1	-1E+10	1	-1E+10	1	-1E+10	1	-1E+10	1	-1E+10	1
4902551	62	C	04/29/2022	05:51	-131.595	49.567	0	235.00	0	6.2030	0	33.9000	0	26.660	0	232.862	0	92.2	4	30.6	4	-1E+10	1	-1E+10	1	-1E+10	1	-1E+10	1	-1E+10	1	-1E+10	1
4902551	62	C	04/29/2022	05:51	-131.595	49.567	0	235.80	0	6.1970	0	33.9040	0	26.664	0	233.654	0	91.8	4	30.5	4	-1E+10	1	-1E+10	1	-1E+10	1	-1E+10	1	-1E+10	1	-1E+10	1
4902551	62	C	04/29/2022	05:51	-131.595	49.567	0	236.80	0	6.1910	0	33.9040	0	26.665	0	234.645	0	91.4	4	30.3	4	-1E+10	1	-1E+10	1	-1E+10	1	-1E+10	1	-1E+10	1	-1E+10	1
4902551	62	C	04/29/2022	05:51	-131.595	49.567	0	237.60	0	6.1860	0	33.9040	0	26.666	0	235.437	0	91.1	4	30.2	4	-1E+10	1	-1E+10	1	-1E+10	1	-1E+10	1	-1E+10	1	-1E+10	1
4902551	62	C	04/29/2022	05:51	-131.595	49.567	0	238.50	0	6.1930	0	33.9050	0	26.666	0	236.328	0	90.7	4	30.1	4	-1E+10	1	-1E+10	1	-1E+10	1	-1E+10	1	-1E+10	1	-1E+10	1
4902551	62	C	04/29/2022	05:51	-131.595	49.567	0	239.90	0	6.2000	0	33.9150	0	26.673	0	237.715	0	90.8	4	30.1	4	-1E+10	1	-1E+10	1	-1E+10	1	-1E+10	1	-1E+10	1	-1E+10	1
4902551	62	C	04/29/2022	05:51	-131.595	49.567	0	241.30	0	6.1690	0	33.9100	0	26.673	0	239.101	0	90.8	4	30.1	4	-1E+10	1	-1E+10	1	-1E+10	1	-1E+10	1	-1E+10	1	-1E+10	1
4902551	62	C	04/29/2022	05:51	-131.595	49.567	0	242.20	0	6.1490	0	33.9130	0	26.678	0	239.992	0	90.8	4	30.1	4	-1E+10	1	-1E+10	1	-1E+10	1	-1E+10	1	-1E+10	1	-1E+10	1
4902551	62	C	04/29/2022	05:51	-131.595	49.567	0	243.10	0	6.1180	0	33.9100	0	26.679	0	240.884	0	90.8	4	30.1	4	-1E+10	1	-1E+10	1	-1E+10	1	-1E+10	1	-1E+10	1	-1E+10	1
4902551	62	C	04/29/2022	05:51	-131.595	49.567	0	244.00	0	6.0980	0	33.9060	0	26.679	0	241.775	0	90.8	4	30.1	4	-1E+10	1	-1E+10	1	-1E+10	1	-1E+10	1	-1E+10	1	-1E+10	1
4902551	62	C	04/29/2022	05:51	-131.595	49.567	0	245.00	0	6.0890	0	33.9060	0	26.680	0	242.765	0	90.7	4	30.0	4	-1E+10	1	-1E+10	1	-1E+10	1	-1E+10	1	-1E+10	1	-1E+10	1
4902551	62	C	04/29/2022	05:51	-131.595	49.567	0	245.90	0	6.0680	0	33.9070	0	26.683	0	243.656	0	90.6	4	30.0	4	-1E+10	1	-1E+10	1	-1E+10	1	-1E+10	1	-1E+10	1	-1E+10	1
4902551	62	C	04/29/2022	05:51	-131.595	49.567	0	246.90	0	6.0290	0	33.9080	0	26.689	0	244.647	0	90.4	4	29.9	4	-1E+10	1	-1E+10	1	-1E+10	1	-1E+10	1	-1E+10	1	-1E+10	1
4902551	62	C	04/29/2022	05:51	-131.595	49.567	0	247.80	0	6.0060	0	33.9060	0	26.690	0	245.538	0	90.3	4	29.8	4	-1E+10	1	-1E+10	1	-1E+10	1	-1E+10	1	-1E+10	1	-1E+10	1
4902551	62	C	04/29/2022	05:51	-131.595	49.567	0	248.80	0	6.0030	0	33.9060	0	26.691	0	246.528	0	90.1	4	29.8	4	-1E+10	1	-1E+10	1	-1E+10	1	-1E+10	1	-1E+10	1	-1E+10	1
4902551	62	C	04/29/2022	05:51	-131.595	49.567	0	249.80	0	6.0010	0	33.9050	0	26.690	0	247.519	0	89.9	4	29.7	4	-1E+10	1	-1E+10	1	-1E+10	1	-1E+10	1	-1E+10	1	-1E+10	1
4902551	62	C	04/29/2022	05:51	-131.595	49.567	0	250.70	0	5.9990	0	33.9050	0	26.690	0	248.410	0	89.6	4	29.6	4	-1E+10	1	-1E+10	1	-1E+10	1	-1E+10	1	-1E+10	1	-1E+10	1
4902551	62	C	04/29/2022	05:51	-131.595	49.567	0	251.70	0	5.9960	0	33.9050	0	26.691	0	249.400	0	89.4	4	29.5	4	-1E+10	1	-1E+10	1	-1E+10	1	-1E+10	1	-1E+10	1	-1E+10	1
4902551	62	C	04/29/2022	05:51	-131.595	49.567	0	252.60	0	5.9930	0	33.9060	0	26.692	0	250.291	0	89.1	4	29.4	4	-1E+10	1	-1E+10	1	-1E+10	1	-1E+10	1	-1E+10	1	-1E+10	1
4902551	62	C	04/29/2022	05:51	-131.595	49.567	0	253.60	0	5.9890	0	33.9050	0	26.692	0	251.282	0	88.9	4	29.4	4	-1E+10	1	-1E+10	1	-1E+10	1	-1E+10	1	-1E+10	1	-1E+10	1
4902551	62	C	04/29/2022	05:51	-131.595	49.567	0	254.60	0	5.9850	0	33.9050	0	26.692	0	252.272	0	88.6	4	29.3	4	-1E+10	1	-1E+10	1	-1E+10	1	-1E+10	1	-1E+10	1	-1E+10	1
4902551	62	C	04/29/2022	05:51	-131.595	49.567	0	255.50	0	5.9710	0	33.9050	0	26.694	0	253.163	0	88.4	4	29.2	4	-1E+10	1	-1E+10	1	-1E+10	1	-1E+10	1	-1E+10	1	-1E+10	1
4902551	62	C	04/29/2022	05:51	-131.595	49.567	0	256.60	0	5.9540	0	33.9120	0	26.702	0	254.252	0	88.1	4	29.1	4	-1E+10	1	-1E+10	1	-1E+10	1	-1E+10	1	-1E+10	1	-1E+10	1
4902551	62	C	04/29/2022	05:51	-131.595	49.567	0	257.60	0	5.9250	0	33.9100	0	26.704	0	255.243	0	87.9	4	29.0	4	-1E+10	1	-1E+10	1	-1E+10	1	-1E+10	1	-1E+10	1	-1E+10	1
4902551	62	C	04/29/2022	05:51	-131.595	49.567	0	258.60	0	5.9180	0	33.9050	0	26.701	0	256.233	0	87.5	4	28.9	4	-1E+10	1	-1E+10	1	-1E+10	1	-1E+10	1	-1E+10	1	-1E+10	1
4902551	62	C	04/29/2022	05:51	-131.595	49.567	0	259.60	0	5.9030	0	33.9120	0	26.708	0	257.223	0	87.2	4	28.7	4	-1E+10	1	-1E+10	1	-1E+10	1	-1E+10	1	-1E+10	1	-1E+10	1
4902551	62	C	04/29/2022	05:51	-131.595	49.567	0	260.60	0	5.8940	0	33.9070	0	26.705	0	258.213	0	86.8	4	28.6	4	-1E+10	1	-1E+10	1	-1E+10	1	-1E+10	1	-1E+10	1	-1E+10	1
4902551	62	C	04/29/2022	05:51	-131.595	49.567	0	261.60	0	5.8750	0	33.9100	0	26.710	0	259.203	0	86.6	4	28.5	4	-1E+10	1	-1E+10	1	-1E+10	1	-1E+10	1	-1E+10	1	-1E+10	1
4902551	62	C	04/29/2022	05:51	-131.595	49.567	0	262.60	0	5.8640	0	33.9100	0	26.711	0	260.194	0	86.3	4	28.4	4	-1E+10	1	-1E+10	1	-1E+10	1	-1E+10	1	-1E+10	1	-1E+10	1
4902551	62	C	04/29/2022	05:51	-131.595	49.567	0	263.60	0	5.8620	0	33.9100	0	26.711	0	261.184	0	86.0	4	28.3	4	-1E+10	1	-1E+10	1	-1E+10	1	-1E+10	1	-1E+10	1	-1E+10	1
4902551	62	C	04/29/2022	05:51	-131.595	49.567	0	264.70	0	5.8610	0	33.9090	0	26.711	0	262.273	0	85.6	4	28.2	4	-1E+10	1	-1E+10	1	-1E+10	1	-1E+10	1	-1E+10	1	-1E+10	1
4902551	62	C	04/29/2022	05:51	-131.595	49.567	0	265.70	0	5.8580	0	33.9100	0	26.712	0	263.263	0	85.3	4	28.1	4	-1E+10	1	-1E+10	1	-1E+10	1	-1E+10	1	-1E+10	1	-1E+10	1
4902551	62	C	04/29/2022	05:51	-131.595	49.567	0	266.70	0	5.8520	0	33.9120	0	26.714	0	264.253	0	84.9	4	28.0	4	-1E+10	1	-1E+10	1	-1E+10	1	-1E+10	1	-1E+10	1	-1E+10	1
4902551	62	C	04/29/2022	05:51	-131.595	49.567	0	267.70	0	5.8430	0	33.9120	0	26.715	0	265.244	0	84.5	4	27.8	4	-1E+10	1	-1E+10	1	-1E+10	1	-1E+10	1	-1E+10	1	-1E+10	1
4902551	62	C	04/29/2022	05:51	-131.595	49.567	0	268.80	0	5.8190	0	33.9160	0	26.722	0	266.333	0	84.2	4	27.7	4	-1E+10	1	-1E+10	1	-1E+10	1	-1E+10	1	-1E+10	1	-1E+10	1
4902551	62	C	04/29/2022	05:51	-131.595	49.567	0	269.80	0	5.8060	0	33.9160	0	26.723	0	267.323	0	84.0	4	27.6	4	-1E+10	1	-1E+10	1	-1E+10	1	-1E+10	1	-1E+10	1	-1E+10	1
4902551	62	C	04/29/2022	05:51	-131.595	49.567	0	270.80	0	5.8000	0	33.9150	0	26.723	0	268.313	0	83.7	4	27.5	4	-1E+10	1	-1E+10	1	-1E+10	1	-1E+10	1	-1E+10	1	-1E+10	1
4902551	62	C	04/29/2022	05:51	-131.595	49.567	0	271.90	0	5.7880	0	33.9160	0	26.725	0	269.402	0	83.4	4	27.4	4	-1E+10	1	-1E+10	1	-1E+10	1	-1E+10	1	-1E+10	1	-1E+10	1
4902551	62	C	04/29/2022	05:51	-131.595	49.567	0	272.90	0	5.7770	0	33.9160	0	26.727	0	270.393	0	83.2	4	27.3	4	-1E+10	1	-1E+10	1	-1E+10	1	-1E+10	1	-1E+10	1	-1E+10	1
4902551	62	C	04/29/2022	05:51	-131.595	49.567	0	274.00	0	5.7730	0	33.9160	0	26.727	0	271.482	0	82.9	4	27.2	4	-1E+10	1	-1E+10	1	-1E+10	1	-1E+10	1	-1E+10	1	-1E+10	1
4902551	62	C	04/29/2022	05:51	-131.595	49.567	0	275.00	0	5.7710	0	33.9160	0	26.727	0	272.472	0	82.5	4	27.1	4	-1E+10	1	-1E+10	1	-1E+10	1	-1E+10	1	-1E+10	1	-1E+10	1
4902551	62	C	04/29/2022	05:51	-131.595	49.567	0	276.10	0	5.7690	0	33.9160	0	26.728	0	273.561	0	82.2	4	27.0	4	-1E+10	1	-1E+10	1	-1E+10	1	-1E+10	1	-1E+10	1	-1E+10	1
4902551	62	C	04/29/2022	05:51	-131.595	49.567	0	277.20	0	5.7620	0	33.9160	0	26.729	0	274.650	0	81.8	4	26.9	4	-1E+10	1	-1E+10	1	-1E+10	1	-1E+10	1	-1E+10	1	-1E+10	1
4902551	62	C	04/29/2022	05:51	-131.595	49.567	0	278.30	0	5.7440	0	33.9190	0	26.733	0	275.739	0	81.5	4	26.8	4	-1E+10	1	-1E+10	1	-1E+10	1	-1E+10	1	-1E+10	1	-1E+10	1
4902551	62	C	04/29/2022	05:51	-131.595	49.567	0	279.30	0	5.7270	0	33.9190	0	26.735	0	276.729	0	81.3	4	26.7	4	-1E+10	1	-1E+10	1	-1E+10	1	-1E+10	1	-1E+10	1	-1E+10	1
4902551	62	C	04/29/2022	05:51	-131.595	49.567	0	280.40	0	5.7230	0	33.9190	0	26.736	0	277.819	0	81.0	4	26.6	4	-1E+10	1	-1E+10	1	-1E+10	1	-1E+10	1	-1E+10	1	-1E+10	1
4902551	62	C	04/29/2022	05:51	-131.595	49.567	0	281.30	0	5.7090	0	33.9230	0	26.741	0	278.710	0	80.8	4	26.5	4	-1E+10	1	-1E+10	1	-1E+10	1	-1E+10	1	-1E+10	1	-1E+10	1
4902551	62	C	04/29/2022	05:51	-131.595	49.567	0	282.90	0	5.6810	0	33.9200	0	26.742	0	280.294	0	80.4	4	26.4	4	-1E+10	1	-1E+10	1	-1E+10	1	-1E+10	1	-1E+10	1	-1E+10	1
4902551	62	C	04/29/2022	05:51	-131.595	49.567	0	284.10	0	5.6660	0	33.9210	0	26.744	0	281.482	0	80.1	4	26.2	4	-1E+10	1	-1E+10	1	-1E+10	1	-1E+10	1	-1E+10	1	-1E+10	1
4902551	62	C	04/29/2022	05:51	-131.595	49.567	0	284.90	0	5.6540	0	33.9230	0	26.747	0	282.274	0	79.9	4	26.2	4	-1E+10	1	-1E+10	1	-1E+10	1	-1E+10	1	-1E+10	1	-1E+10	1
4902551	62	C	04/29/2022	05:51	-131.595	49.567	0	285.70	0	5.6460	0	33.9230	0	26.748	0	283.066	0	79.7	4	26.1	4	-1E+10	1	-1E+10	1	-1E+10	1	-1E+10	1	-1E+10	1	-1E+10	1
4902551	62	C	04/29/2022	05:51	-131.595	49.567	0	286.90	0	5.6400	0	33.9230	0	26.749	0	284.254	0	79.6	4	26.1	4	-1E+10	1	-1E+10	1	-1E+10	1	-1E+10	1	-1E+10	1	-1E+10	1
4902551	62	C	04/29/2022	05:51	-131.595	49.567	0	288.20	0	5.6290	0	33.9240	0	26.751	0	285.541	0	79.3	4	26.0	4	-1E+10	1	-1E+10	1	-1E+10	1	-1E+10	1	-1E+10	1	-1E+10	1
4902551	62	C	04/29/2022	05:51	-131.595	49.567	0	289.00	0	5.6200	0	33.9250	0	26.753	0	286.333	0	79.3	4	26.0	4	-1E+10	1	-1E+10	1	-1E+10	1	-1E+10	1	-1E+10	1	-1E+10	1
4902551	62	C	04/29/2022	05:51	-131.595	49.567	0	289.80	0	5.6180	0	33.9240	0	26.753	0	287.126	0	79.1	4	25.9	4	-1E+10	1	-1E+10	1	-1E+10	1	-1E+10	1	-1E+10	1	-1E+10	1
4902551	62	C	04/29/2022	05:51	-131.595	49.567	0	290.60	0	5.6170	0	33.9250	0	26.753	0	287.918	0	79.1	4	25.9	4	-1E+10	1	-1E+10	1	-1E+10	1	-1E+10	1	-1E+10	1	-1E+10	1
4902551	62	C	04/29/2022	05:51	-131.595	49.567	0	291.90	0	5.6140	0	33.9250	0	26.754	0	289.205	0	78.9	4	25.8	4	-1E+10	1	-1E+10	1	-1E+10	1	-1E+10	1	-1E+10	1	-1E+10	1
4902551	62	C	04/29/2022	05:51	-131.595	49.567	0	293.10	0	5.6060	0	33.9260	0	26.756	0	290.393	0	78.7	4	25.8	4	-1E+10	1	-1E+10	1	-1E+10	1	-1E+10	1	-1E+10	1	-1E+10	1
4902551	62	C	04/29/2022	05:51	-131.595	49.567	0	293.90	0	5.6020	0	33.9260	0	26.756	0	291.185	0	78.6	4	25.7	4	-1E+10	1	-1E+10	1	-1E+10	1	-1E+10	1	-1E+10	1	-1E+10	1
4902551	62	C	04/29/2022	05:51	-131.595	49.567	0	294.70	0	5.6010	0	33.9250	0	26.755	0	291.977	0	78.5	4	25.7	4	-1E+10	1	-1E+10	1	-1E+10	1	-1E+10	1	-1E+10	1	-1E+10	1
4902551	62	C	04/29/2022	05:51	-131.595	49.567	0	296.00	0	5.5980	0	33.9260	0	26.757	0	293.264	0	78.3	4	25.6	4	-1E+10	1	-1E+10	1	-1E+10	1	-1E+10	1	-1E+10	1	-1E+10	1
4902551	62	C	04/29/2022	05:51	-131.595	49.567	0	297.20	0	5.5950	0	33.9260	0	26.757	0	294.452	0	78.0	4	25.5	4	-1E+10	1	-1E+10	1	-1E+10	1	-1E+10	1	-1E+10	1	-1E+10	1
4902551	62	C	04/29/2022	05:51	-131.595	49.567	0	298.00	0	5.5940	0	33.9260	0	26.757	0	295.244	0	77.9	4	25.5	4	-1E+10	1	-1E+10	1	-1E+10	1	-1E+10	1	-1E+10	1	-1E+10	1
4902551	62	C	04/29/2022	05:51	-131.595	49.567	0	298.90	0	5.5880	0	33.9270	0	26.759	0	296.135	0	77.7	4	25.4	4	-1E+10	1	-1E+10	1	-1E+10	1	-1E+10	1	-1E+10	1	-1E+10	1
4902551	62	C	04/29/2022	05:51	-131.595	49.567	0	299.70	0	5.5880	0	33.9260	0	26.758	0	296.927	0	77.6	4	25.4	4	-1E+10	1	-1E+10	1	-1E+10	1	-1E+10	1	-1E+10	1	-1E+10	1
4902551	62	C	04/29/2022	05:51	-131.595	49.567	0	301.00	0	5.5800	0	33.9280	0	26.760	0	298.214	0	77.4	4	25.3	4	-1E+10	1	-1E+10	1	-1E+10	1	-1E+10	1	-1E+10	1	-1E+10	1
4902551	62	C	04/29/2022	05:51	-131.595	49.567	0	302.30	0	5.5780	0	33.9280	0	26.761	0	299.501	0	77.3	4	25.3	4	-1E+10	1	-1E+10	1	-1E+10	1	-1E+10	1	-1E+10	1	-1E+10	1
4902551	62	C	04/29/2022	05:51	-131.595	49.567	0	303.10	0	5.5770	0	33.9280	0	26.761	0	300.293	0	77.1	4	25.2	4	-1E+10	1	-1E+10	1	-1E+10	1	-1E+10	1	-1E+10	1	-1E+10	1
4902551	62	C	04/29/2022	05:51	-131.595	49.567	0	303.90	0	5.5750	0	33.9280	0	26.761	0	301.085	0	77.0	4	25.2	4	-1E+10	1	-1E+10	1	-1E+10	1	-1E+10	1	-1E+10	1	-1E+10	1
4902551	62	C	04/29/2022	05:51	-131.595	49.567	0	304.80	0	5.5720	0	33.9270	0	26.761	0	301.976	0	76.8	4	25.1	4	-1E+10	1	-1E+10	1	-1E+10	1	-1E+10	1	-1E+10	1	-1E+10	1
4902551	62	C	04/29/2022	05:51	-131.595	49.567	0	305.60	0	5.5670	0	33.9260	0	26.760	0	302.768	0	76.7	4	25.1	4	-1E+10	1	-1E+10	1	-1E+10	1	-1E+10	1	-1E+10	1	-1E+10	1
4902551	62	C	04/29/2022	05:51	-131.595	49.567	0	306.90	0	5.5450	0	33.9290	0	26.765	0	304.055	0	76.5	4	25.0	4	-1E+10	1	-1E+10	1	-1E+10	1	-1E+10	1	-1E+10	1	-1E+10	1
4902551	62	C	04/29/2022	05:51	-131.595	49.567	0	308.20	0	5.5120	0	33.9380	0	26.777	0	305.342	0	76.4	4	25.0	4	-1E+10	1	-1E+10	1	-1E+10	1	-1E+10	1	-1E+10	1	-1E+10	1
4902551	62	C	04/29/2022	05:51	-131.595	49.567	0	309.10	0	5.5040	0	33.9270	0	26.769	0	306.233	0	76.4	4	24.9	4	-1E+10	1	-1E+10	1	-1E+10	1	-1E+10	1	-1E+10	1	-1E+10	1
4902551	62	C	04/29/2022	05:51	-131.595	49.567	0	309.90	0	5.4900	0	33.9280	0	26.771	0	307.025	0	76.3	4	24.9	4	-1E+10	1	-1E+10	1	-1E+10	1	-1E+10	1	-1E+10	1	-1E+10	1
4902551	62	C	04/29/2022	05:51	-131.595	49.567	0	310.80	0	5.4630	0	33.9280	0	26.774	0	307.916	0	76.2	4	24.9	4	-1E+10	1	-1E+10	1	-1E+10	1	-1E+10	1	-1E+10	1	-1E+10	1
4902551	62	C	04/29/2022	05:51	-131.595	49.567	0	311.70	0	5.4530	0	33.9270	0	26.775	0	308.807	0	76.0	4	24.8	4	-1E+10	1	-1E+10	1	-1E+10	1	-1E+10	1	-1E+10	1	-1E+10	1
4902551	62	C	04/29/2022	05:51	-131.595	49.567	0	312.90	0	5.4440	0	33.9270	0	26.776	0	309.995	0	75.8	4	24.7	4	-1E+10	1	-1E+10	1	-1E+10	1	-1E+10	1	-1E+10	1	-1E+10	1
4902551	62	C	04/29/2022	05:51	-131.595	49.567	0	314.30	0	5.4400	0	33.9260	0	26.776	0	311.381	0	75.5	4	24.6	4	-1E+10	1	-1E+10	1	-1E+10	1	-1E+10	1	-1E+10	1	-1E+10	1
4902551	62	C	04/29/2022	05:51	-131.595	49.567	0	315.10	0	5.4380	0	33.9260	0	26.776	0	312.173	0	75.4	4	24.6	4	-1E+10	1	-1E+10	1	-1E+10	1	-1E+10	1	-1E+10	1	-1E+10	1
4902551	62	C	04/29/2022	05:51	-131.595	49.567	0	316.00	0	5.4370	0	33.9260	0	26.776	0	313.064	0	75.1	4	24.5	4	-1E+10	1	-1E+10	1	-1E+10	1	-1E+10	1	-1E+10	1	-1E+10	1
4902551	62	C	04/29/2022	05:51	-131.595	49.567	0	316.90	0	5.4360	0	33.9260	0	26.776	0	313.955	0	74.9	4	24.4	4	-1E+10	1	-1E+10	1	-1E+10	1	-1E+10	1	-1E+10	1	-1E+10	1
4902551	62	C	04/29/2022	05:51	-131.595	49.567	0	317.70	0	5.4350	0	33.9260	0	26.776	0	314.747	0	74.7	4	24.4	4	-1E+10	1	-1E+10	1	-1E+10	1	-1E+10	1	-1E+10	1	-1E+10	1
4902551	62	C	04/29/2022	05:51	-131.595	49.567	0	319.00	0	5.4190	0	33.9270	0	26.779	0	316.034	0	74.3	4	24.2	4	-1E+10	1	-1E+10	1	-1E+10	1	-1E+10	1	-1E+10	1	-1E+10	1
4902551	62	C	04/29/2022	05:51	-131.595	49.567	0	320.30	0	5.4120	0	33.9270	0	26.780	0	317.321	0	73.8	4	24.1	4	-1E+10	1	-1E+10	1	-1E+10	1	-1E+10	1	-1E+10	1	-1E+10	1
4902551	62	C	04/29/2022	05:51	-131.595	49.567	0	321.20	0	5.4110	0	33.9260	0	26.779	0	318.212	0	73.6	4	24.0	4	-1E+10	1	-1E+10	1	-1E+10	1	-1E+10	1	-1E+10	1	-1E+10	1
4902551	62	C	04/29/2022	05:51	-131.595	49.567	0	322.00	0	5.3700	0	33.9280	0	26.786	0	319.004	0	73.3	4	23.9	4	-1E+10	1	-1E+10	1	-1E+10	1	-1E+10	1	-1E+10	1	-1E+10	1
4902551	62	C	04/29/2022	05:51	-131.595	49.567	0	322.90	0	5.3590	0	33.9310	0	26.789	0	319.895	0	73.1	4	23.8	4	-1E+10	1	-1E+10	1	-1E+10	1	-1E+10	1	-1E+10	1	-1E+10	1
4902551	62	C	04/29/2022	05:51	-131.595	49.567	0	323.70	0	5.3570	0	33.9290	0	26.788	0	320.686	0	72.8	4	23.7	4	-1E+10	1	-1E+10	1	-1E+10	1	-1E+10	1	-1E+10	1	-1E+10	1
4902551	62	C	04/29/2022	05:51	-131.595	49.567	0	325.00	0	5.3560	0	33.9290	0	26.788	0	321.973	0	72.4	4	23.6	4	-1E+10	1	-1E+10	1	-1E+10	1	-1E+10	1	-1E+10	1	-1E+10	1
4902551	62	C	04/29/2022	05:51	-131.595	49.567	0	326.30	0	5.3570	0	33.9290	0	26.788	0	323.260	0	71.8	4	23.4	4	-1E+10	1	-1E+10	1	-1E+10	1	-1E+10	1	-1E+10	1	-1E+10	1
4902551	62	C	04/29/2022	05:51	-131.595	49.567	0	327.10	0	5.3570	0	33.9290	0	26.788	0	324.052	0	71.4	4	23.3	4	-1E+10	1	-1E+10	1	-1E+10	1	-1E+10	1	-1E+10	1	-1E+10	1
4902551	62	C	04/29/2022	05:51	-131.595	49.567	0	328.00	0	5.3530	0	33.9290	0	26.788	0	324.943	0	71.0	4	23.1	4	-1E+10	1	-1E+10	1	-1E+10	1	-1E+10	1	-1E+10	1	-1E+10	1
4902551	62	C	04/29/2022	05:51	-131.595	49.567	0	328.90	0	5.3440	0	33.9320	0	26.792	0	325.834	0	70.7	4	23.0	4	-1E+10	1	-1E+10	1	-1E+10	1	-1E+10	1	-1E+10	1	-1E+10	1
4902551	62	C	04/29/2022	05:51	-131.595	49.567	0	329.70	0	5.3230	0	33.9340	0	26.796	0	326.626	0	70.5	4	22.9	4	-1E+10	1	-1E+10	1	-1E+10	1	-1E+10	1	-1E+10	1	-1E+10	1
4902551	62	C	04/29/2022	05:51	-131.595	49.567	0	330.60	0	5.3120	0	33.9330	0	26.796	0	327.517	0	70.2	4	22.8	4	-1E+10	1	-1E+10	1	-1E+10	1	-1E+10	1	-1E+10	1	-1E+10	1
4902551	62	C	04/29/2022	05:51	-131.595	49.567	0	331.90	0	5.2980	0	33.9380	0	26.802	0	328.804	0	70.0	4	22.8	4	-1E+10	1	-1E+10	1	-1E+10	1	-1E+10	1	-1E+10	1	-1E+10	1
4902551	62	C	04/29/2022	05:51	-131.595	49.567	0	333.30	0	5.2970	0	33.9380	0	26.802	0	330.189	0	69.8	4	22.7	4	-1E+10	1	-1E+10	1	-1E+10	1	-1E+10	1	-1E+10	1	-1E+10	1
4902551	62	C	04/29/2022	05:51	-131.595	49.567	0	334.10	0	5.2970	0	33.9380	0	26.802	0	330.981	0	69.6	4	22.6	4	-1E+10	1	-1E+10	1	-1E+10	1	-1E+10	1	-1E+10	1	-1E+10	1
4902551	62	C	04/29/2022	05:51	-131.595	49.567	0	335.00	0	5.2960	0	33.9390	0	26.803	0	331.872	0	69.4	4	22.6	4	-1E+10	1	-1E+10	1	-1E+10	1	-1E+10	1	-1E+10	1	-1E+10	1
4902551	62	C	04/29/2022	05:51	-131.595	49.567	0	335.90	0	5.2960	0	33.9390	0	26.803	0	332.763	0	69.2	4	22.5	4	-1E+10	1	-1E+10	1	-1E+10	1	-1E+10	1	-1E+10	1	-1E+10	1
4902551	62	C	04/29/2022	05:51	-131.595	49.567	0	336.80	0	5.2950	0	33.9390	0	26.803	0	333.654	0	69.0	4	22.4	4	-1E+10	1	-1E+10	1	-1E+10	1	-1E+10	1	-1E+10	1	-1E+10	1
4902551	62	C	04/29/2022	05:51	-131.595	49.567	0	337.70	0	5.2940	0	33.9380	0	26.803	0	334.545	0	68.7	4	22.3	4	-1E+10	1	-1E+10	1	-1E+10	1	-1E+10	1	-1E+10	1	-1E+10	1
4902551	62	C	04/29/2022	05:51	-131.595	49.567	0	338.90	0	5.2910	0	33.9380	0	26.803	0	335.733	0	68.2	4	22.2	4	-1E+10	1	-1E+10	1	-1E+10	1	-1E+10	1	-1E+10	1	-1E+10	1
4902551	62	C	04/29/2022	05:51	-131.595	49.567	0	340.30	0	5.2880	0	33.9400	0	26.805	0	337.118	0	67.8	4	22.0	4	-1E+10	1	-1E+10	1	-1E+10	1	-1E+10	1	-1E+10	1	-1E+10	1
4902551	62	C	04/29/2022	05:51	-131.595	49.567	0	341.10	0	5.2870	0	33.9370	0	26.803	0	337.910	0	67.4	4	21.9	4	-1E+10	1	-1E+10	1	-1E+10	1	-1E+10	1	-1E+10	1	-1E+10	1
4902551	62	C	04/29/2022	05:51	-131.595	49.567	0	341.90	0	5.2740	0	33.9380	0	26.805	0	338.702	0	67.0	4	21.8	4	-1E+10	1	-1E+10	1	-1E+10	1	-1E+10	1	-1E+10	1	-1E+10	1
4902551	62	C	04/29/2022	05:51	-131.595	49.567	0	342.80	0	5.2660	0	33.9380	0	26.806	0	339.593	0	66.6	4	21.6	4	-1E+10	1	-1E+10	1	-1E+10	1	-1E+10	1	-1E+10	1	-1E+10	1
4902551	62	C	04/29/2022	05:51	-131.595	49.567	0	343.60	0	5.2630	0	33.9360	0	26.805	0	340.385	0	66.2	4	21.5	4	-1E+10	1	-1E+10	1	-1E+10	1	-1E+10	1	-1E+10	1	-1E+10	1
4902551	62	C	04/29/2022	05:51	-131.595	49.567	0	344.90	0	5.2150	0	33.9420	0	26.815	0	341.672	0	65.7	4	21.3	4	-1E+10	1	-1E+10	1	-1E+10	1	-1E+10	1	-1E+10	1	-1E+10	1
4902551	62	C	04/29/2022	05:51	-131.595	49.567	0	346.20	0	5.1880	0	33.9450	0	26.821	0	342.958	0	65.3	4	21.2	4	-1E+10	1	-1E+10	1	-1E+10	1	-1E+10	1	-1E+10	1	-1E+10	1
4902551	62	C	04/29/2022	05:51	-131.595	49.567	0	347.10	0	5.1800	0	33.9470	0	26.823	0	343.849	0	65.0	4	21.1	4	-1E+10	1	-1E+10	1	-1E+10	1	-1E+10	1	-1E+10	1	-1E+10	1
4902551	62	C	04/29/2022	05:51	-131.595	49.567	0	348.00	0	5.1770	0	33.9460	0	26.823	0	344.740	0	64.8	4	21.0	4	-1E+10	1	-1E+10	1	-1E+10	1	-1E+10	1	-1E+10	1	-1E+10	1
4902551	62	C	04/29/2022	05:51	-131.595	49.567	0	348.80	0	5.1780	0	33.9460	0	26.822	0	345.532	0	64.5	4	20.9	4	-1E+10	1	-1E+10	1	-1E+10	1	-1E+10	1	-1E+10	1	-1E+10	1
4902551	62	C	04/29/2022	05:51	-131.595	49.567	0	349.70	0	5.1510	0	33.9500	0	26.829	0	346.423	0	64.2	4	20.8	4	-1E+10	1	-1E+10	1	-1E+10	1	-1E+10	1	-1E+10	1	-1E+10	1
4902551	62	C	04/29/2022	05:51	-131.595	49.567	0	352.70	0	5.1320	0	33.9520	0	26.833	0	349.392	0	63.5	4	20.6	4	-1E+10	1	-1E+10	1	-1E+10	1	-1E+10	1	-1E+10	1	-1E+10	1
4902551	62	C	04/29/2022	05:51	-131.595	49.567	0	358.00	0	5.1090	0	33.9560	0	26.838	0	354.638	0	62.6	4	20.3	4	-1E+10	1	-1E+10	1	-1E+10	1	-1E+10	1	-1E+10	1	-1E+10	1
4902551	62	C	04/29/2022	05:51	-131.595	49.567	0	363.20	0	5.0980	0	33.9570	0	26.841	0	359.784	0	61.7	4	20.0	4	-1E+10	1	-1E+10	1	-1E+10	1	-1E+10	1	-1E+10	1	-1E+10	1
4902551	62	C	04/29/2022	05:51	-131.595	49.567	0	368.00	0	5.0850	0	33.9590	0	26.844	0	364.535	0	60.7	4	19.6	4	-1E+10	1	-1E+10	1	-1E+10	1	-1E+10	1	-1E+10	1	-1E+10	1
4902551	62	C	04/29/2022	05:51	-131.595	49.567	0	372.80	0	5.0480	0	33.9620	0	26.850	0	369.286	0	59.8	4	19.3	4	-1E+10	1	-1E+10	1	-1E+10	1	-1E+10	1	-1E+10	1	-1E+10	1
4902551	62	C	04/29/2022	05:51	-131.595	49.567	0	378.20	0	5.0340	0	33.9630	0	26.853	0	374.630	0	58.9	4	19.0	4	-1E+10	1	-1E+10	1	-1E+10	1	-1E+10	1	-1E+10	1	-1E+10	1
4902551	62	C	04/29/2022	05:51	-131.595	49.567	0	383.20	0	5.0200	0	33.9650	0	26.856	0	379.578	0	57.5	4	18.6	4	-1E+10	1	-1E+10	1	-1E+10	1	-1E+10	1	-1E+10	1	-1E+10	1
4902551	62	C	04/29/2022	05:51	-131.595	49.567	0	388.10	0	4.9960	0	33.9670	0	26.860	0	384.427	0	55.5	4	17.9	4	-1E+10	1	-1E+10	1	-1E+10	1	-1E+10	1	-1E+10	1	-1E+10	1
4902551	62	C	04/29/2022	05:51	-131.595	49.567	0	393.20	0	5.0270	0	33.9800	0	26.867	0	389.474	0	53.3	4	17.2	4	-1E+10	1	-1E+10	1	-1E+10	1	-1E+10	1	-1E+10	1	-1E+10	1
4902551	62	C	04/29/2022	05:51	-131.595	49.567	0	397.80	0	4.9950	0	33.9830	0	26.873	0	394.026	0	52.2	4	16.9	4	-1E+10	1	-1E+10	1	-1E+10	1	-1E+10	1	-1E+10	1	-1E+10	1
4902551	62	C	04/29/2022	05:51	-131.595	49.567	0	402.80	0	4.9440	0	33.9850	0	26.881	0	398.974	0	50.1	4	16.2	4	-1E+10	1	-1E+10	1	-1E+10	1	-1E+10	1	-1E+10	1	-1E+10	1
4902551	62	C	04/29/2022	05:51	-131.595	49.567	0	407.90	0	4.9820	0	33.9960	0	26.885	0	404.021	0	47.6	4	15.4	4	-1E+10	1	-1E+10	1	-1E+10	1	-1E+10	1	-1E+10	1	-1E+10	1
4902551	62	C	04/29/2022	05:51	-131.595	49.567	0	412.70	0	5.0030	0	34.0070	0	26.891	0	408.770	0	45.9	4	14.8	4	-1E+10	1	-1E+10	1	-1E+10	1	-1E+10	1	-1E+10	1	-1E+10	1
4902551	62	C	04/29/2022	05:51	-131.595	49.567	0	418.00	0	4.9790	0	34.0080	0	26.895	0	414.014	0	43.4	4	14.0	4	-1E+10	1	-1E+10	1	-1E+10	1	-1E+10	1	-1E+10	1	-1E+10	1
4902551	62	C	04/29/2022	05:51	-131.595	49.567	0	423.20	0	5.0370	0	34.0220	0	26.900	0	419.160	0	39.3	4	12.7	4	-1E+10	1	-1E+10	1	-1E+10	1	-1E+10	1	-1E+10	1	-1E+10	1
4902551	62	C	04/29/2022	05:51	-131.595	49.567	0	428.00	0	5.0990	0	34.0450	0	26.911	0	423.909	0	36.5	4	11.8	4	-1E+10	1	-1E+10	1	-1E+10	1	-1E+10	1	-1E+10	1	-1E+10	1
4902551	62	C	04/29/2022	05:51	-131.595	49.567	0	432.80	0	5.1160	0	34.0620	0	26.922	0	428.658	0	34.9	4	11.3	4	-1E+10	1	-1E+10	1	-1E+10	1	-1E+10	1	-1E+10	1	-1E+10	1
4902551	62	C	04/29/2022	05:51	-131.595	49.567	0	437.50	0	5.0800	0	34.0700	0	26.933	0	433.308	0	34.2	4	11.1	4	-1E+10	1	-1E+10	1	-1E+10	1	-1E+10	1	-1E+10	1	-1E+10	1
4902551	62	C	04/29/2022	05:51	-131.595	49.567	0	442.90	0	4.9940	0	34.0680	0	26.941	0	438.651	0	34.1	4	11.0	4	-1E+10	1	-1E+10	1	-1E+10	1	-1E+10	1	-1E+10	1	-1E+10	1
4902551	62	C	04/29/2022	05:51	-131.595	49.567	0	448.30	0	4.9480	0	34.0670	0	26.946	0	443.993	0	33.5	4	10.8	4	-1E+10	1	-1E+10	1	-1E+10	1	-1E+10	1	-1E+10	1	-1E+10	1
4902551	62	C	04/29/2022	05:51	-131.595	49.567	0	453.20	0	4.9160	0	34.0690	0	26.951	0	448.841	0	32.7	4	10.5	4	-1E+10	1	-1E+10	1	-1E+10	1	-1E+10	1	-1E+10	1	-1E+10	1
4902551	62	C	04/29/2022	05:51	-131.595	49.567	0	458.20	0	4.8890	0	34.0760	0	26.959	0	453.787	0	31.7	4	10.2	4	-1E+10	1	-1E+10	1	-1E+10	1	-1E+10	1	-1E+10	1	-1E+10	1
4902551	62	C	04/29/2022	05:51	-131.595	49.567	0	463.20	0	4.9010	0	34.0800	0	26.961	0	458.734	0	31.0	4	10.0	4	-1E+10	1	-1E+10	1	-1E+10	1	-1E+10	1	-1E+10	1	-1E+10	1
4902551	62	C	04/29/2022	05:51	-131.595	49.567	0	468.30	0	4.8890	0	34.0840	0	26.966	0	463.779	0	30.9	4	9.9	4	-1E+10	1	-1E+10	1	-1E+10	1	-1E+10	1	-1E+10	1	-1E+10	1
4902551	62	C	04/29/2022	05:51	-131.595	49.567	0	473.30	0	4.8600	0	34.0840	0	26.969	0	468.725	0	30.8	4	9.9	4	-1E+10	1	-1E+10	1	-1E+10	1	-1E+10	1	-1E+10	1	-1E+10	1
4902551	62	C	04/29/2022	05:51	-131.595	49.567	0	478.40	0	4.8150	0	34.0800	0	26.971	0	473.770	0	30.7	4	9.9	4	-1E+10	1	-1E+10	1	-1E+10	1	-1E+10	1	-1E+10	1	-1E+10	1
4902551	62	C	04/29/2022	05:51	-131.595	49.567	0	483.40	0	4.7790	0	34.0780	0	26.974	0	478.715	0	29.6	4	9.5	4	-1E+10	1	-1E+10	1	-1E+10	1	-1E+10	1	-1E+10	1	-1E+10	1
4902551	62	C	04/29/2022	05:51	-131.595	49.567	0	488.40	0	4.7980	0	34.0900	0	26.981	0	483.661	0	28.8	4	9.3	4	-1E+10	1	-1E+10	1	-1E+10	1	-1E+10	1	-1E+10	1	-1E+10	1
4902551	62	C	04/29/2022	05:51	-131.595	49.567	0	493.40	0	4.7600	0	34.0920	0	26.987	0	488.607	0	28.4	4	9.1	4	-1E+10	1	-1E+10	1	-1E+10	1	-1E+10	1	-1E+10	1	-1E+10	1
4902551	62	C	04/29/2022	05:51	-131.595	49.567	0	497.90	0	4.7550	0	34.0910	0	26.987	0	493.058	0	27.9	4	9.0	4	-1E+10	1	-1E+10	1	-1E+10	1	-1E+10	1	-1E+10	1	-1E+10	1
4902551	62	C	04/29/2022	05:51	-131.595	49.567	0	502.50	0	4.7500	0	34.0970	0	26.992	0	497.608	0	27.3	4	8.8	4	-1E+10	1	-1E+10	1	-1E+10	1	-1E+10	1	-1E+10	1	-1E+10	1
4902551	62	C	04/29/2022	05:51	-131.595	49.567	0	507.60	0	4.7420	0	34.0990	0	26.995	0	502.652	0	26.9	4	8.6	4	-1E+10	1	-1E+10	1	-1E+10	1	-1E+10	1	-1E+10	1	-1E+10	1
4902551	62	C	04/29/2022	05:51	-131.595	49.567	0	512.70	0	4.6940	0	34.1020	0	27.002	0	507.696	0	26.6	4	8.5	4	-1E+10	1	-1E+10	1	-1E+10	1	-1E+10	1	-1E+10	1	-1E+10	1
4902551	62	C	04/29/2022	05:51	-131.595	49.567	0	517.80	0	4.6610	0	34.1020	0	27.006	0	512.740	0	26.2	4	8.4	4	-1E+10	1	-1E+10	1	-1E+10	1	-1E+10	1	-1E+10	1	-1E+10	1
4902551	62	C	04/29/2022	05:51	-131.595	49.567	0	523.00	0	4.6220	0	34.1030	0	27.011	0	517.882	0	25.5	4	8.2	4	-1E+10	1	-1E+10	1	-1E+10	1	-1E+10	1	-1E+10	1	-1E+10	1
4902551	62	C	04/29/2022	05:51	-131.595	49.567	0	528.00	0	4.6140	0	34.1090	0	27.017	0	522.827	0	24.5	4	7.9	4	-1E+10	1	-1E+10	1	-1E+10	1	-1E+10	1	-1E+10	1	-1E+10	1
4902551	62	C	04/29/2022	05:51	-131.595	49.567	0	532.70	0	4.5620	0	34.1140	0	27.026	0	527.475	0	24.3	4	7.8	4	-1E+10	1	-1E+10	1	-1E+10	1	-1E+10	1	-1E+10	1	-1E+10	1
4902551	62	C	04/29/2022	05:51	-131.595	49.567	0	537.80	0	4.5070	0	34.1150	0	27.033	0	532.519	0	23.7	4	7.6	4	-1E+10	1	-1E+10	1	-1E+10	1	-1E+10	1	-1E+10	1	-1E+10	1
4902551	62	C	04/29/2022	05:51	-131.595	49.567	0	542.90	0	4.4660	0	34.1180	0	27.040	0	537.562	0	23.0	4	7.3	4	-1E+10	1	-1E+10	1	-1E+10	1	-1E+10	1	-1E+10	1	-1E+10	1
4902551	62	C	04/29/2022	05:51	-131.595	49.567	0	547.80	0	4.4470	0	34.1230	0	27.046	0	542.407	0	22.2	4	7.1	4	-1E+10	1	-1E+10	1	-1E+10	1	-1E+10	1	-1E+10	1	-1E+10	1
4902551	62	C	04/29/2022	05:51	-131.595	49.567	0	552.70	0	4.4340	0	34.1280	0	27.051	0	547.253	0	21.4	4	6.8	4	-1E+10	1	-1E+10	1	-1E+10	1	-1E+10	1	-1E+10	1	-1E+10	1
4902551	62	C	04/29/2022	05:51	-131.595	49.567	0	557.70	0	4.4270	0	34.1350	0	27.058	0	552.197	0	20.9	4	6.7	4	-1E+10	1	-1E+10	1	-1E+10	1	-1E+10	1	-1E+10	1	-1E+10	1
4902551	62	C	04/29/2022	05:51	-131.595	49.567	0	562.80	0	4.4150	0	34.1390	0	27.062	0	557.240	0	20.5	4	6.5	4	-1E+10	1	-1E+10	1	-1E+10	1	-1E+10	1	-1E+10	1	-1E+10	1
4902551	62	C	04/29/2022	05:51	-131.595	49.567	0	568.10	0	4.4040	0	34.1430	0	27.067	0	562.480	0	20.2	4	6.4	4	-1E+10	1	-1E+10	1	-1E+10	1	-1E+10	1	-1E+10	1	-1E+10	1
4902551	62	C	04/29/2022	05:51	-131.595	49.567	0	573.10	0	4.3900	0	34.1440	0	27.069	0	567.424	0	19.9	4	6.4	4	-1E+10	1	-1E+10	1	-1E+10	1	-1E+10	1	-1E+10	1	-1E+10	1
4902551	62	C	04/29/2022	05:51	-131.595	49.567	0	578.00	0	4.3810	0	34.1460	0	27.072	0	572.269	0	19.4	4	6.2	4	-1E+10	1	-1E+10	1	-1E+10	1	-1E+10	1	-1E+10	1	-1E+10	1
4902551	62	C	04/29/2022	05:51	-131.595	49.567	0	583.10	0	4.3720	0	34.1500	0	27.076	0	577.311	0	19.0	4	6.0	4	-1E+10	1	-1E+10	1	-1E+10	1	-1E+10	1	-1E+10	1	-1E+10	1
4902551	62	C	04/29/2022	05:51	-131.595	49.567	0	587.70	0	4.3590	0	34.1520	0	27.079	0	581.859	0	18.6	4	5.9	4	-1E+10	1	-1E+10	1	-1E+10	1	-1E+10	1	-1E+10	1	-1E+10	1
4902551	62	C	04/29/2022	05:51	-131.595	49.567	0	592.70	0	4.3380	0	34.1600	0	27.087	0	586.802	0	18.3	4	5.8	4	-1E+10	1	-1E+10	1	-1E+10	1	-1E+10	1	-1E+10	1	-1E+10	1
4902551	62	C	04/29/2022	05:51	-131.595	49.567	0	597.90	0	4.3150	0	34.1630	0	27.092	0	591.943	0	18.3	4	5.8	4	-1E+10	1	-1E+10	1	-1E+10	1	-1E+10	1	-1E+10	1	-1E+10	1
4902551	62	C	04/29/2022	05:51	-131.595	49.567	0	602.70	0	4.2720	0	34.1640	0	27.098	0	596.688	0	18.2	4	5.8	4	-1E+10	1	-1E+10	1	-1E+10	1	-1E+10	1	-1E+10	1	-1E+10	1
4902551	62	C	04/29/2022	05:51	-131.595	49.567	0	607.70	0	4.2520	0	34.1650	0	27.101	0	601.631	0	17.8	4	5.6	4	-1E+10	1	-1E+10	1	-1E+10	1	-1E+10	1	-1E+10	1	-1E+10	1
4902551	62	C	04/29/2022	05:51	-131.595	49.567	0	612.80	0	4.2410	0	34.1710	0	27.106	0	606.673	0	17.2	4	5.5	4	-1E+10	1	-1E+10	1	-1E+10	1	-1E+10	1	-1E+10	1	-1E+10	1
4902551	62	C	04/29/2022	05:51	-131.595	49.567	0	617.90	0	4.2370	0	34.1760	0	27.111	0	611.714	0	16.7	4	5.3	4	-1E+10	1	-1E+10	1	-1E+10	1	-1E+10	1	-1E+10	1	-1E+10	1
4902551	62	C	04/29/2022	05:51	-131.595	49.567	0	623.10	0	4.2240	0	34.1810	0	27.116	0	616.855	0	16.2	4	5.1	4	-1E+10	1	-1E+10	1	-1E+10	1	-1E+10	1	-1E+10	1	-1E+10	1
4902551	62	C	04/29/2022	05:51	-131.595	49.567	0	628.00	0	4.2130	0	34.1860	0	27.121	0	621.698	0	15.7	4	5.0	4	-1E+10	1	-1E+10	1	-1E+10	1	-1E+10	1	-1E+10	1	-1E+10	1
4902551	62	C	04/29/2022	05:51	-131.595	49.567	0	632.80	0	4.1990	0	34.1900	0	27.126	0	626.443	0	15.2	4	4.8	4	-1E+10	1	-1E+10	1	-1E+10	1	-1E+10	1	-1E+10	1	-1E+10	1
4902551	62	C	04/29/2022	05:51	-131.595	49.567	0	637.60	0	4.1800	0	34.1950	0	27.132	0	631.187	0	14.9	4	4.7	4	-1E+10	1	-1E+10	1	-1E+10	1	-1E+10	1	-1E+10	1	-1E+10	1
4902551	62	C	04/29/2022	05:51	-131.595	49.567	0	642.90	0	4.1610	0	34.2000	0	27.138	0	636.426	0	14.6	4	4.6	4	-1E+10	1	-1E+10	1	-1E+10	1	-1E+10	1	-1E+10	1	-1E+10	1
4902551	62	C	04/29/2022	05:51	-131.595	49.567	0	648.10	0	4.1380	0	34.2060	0	27.145	0	641.565	0	14.3	4	4.5	4	-1E+10	1	-1E+10	1	-1E+10	1	-1E+10	1	-1E+10	1	-1E+10	1
4902551	62	C	04/29/2022	05:51	-131.595	49.567	0	652.90	0	4.1230	0	34.2120	0	27.152	0	646.310	0	14.0	4	4.4	4	-1E+10	1	-1E+10	1	-1E+10	1	-1E+10	1	-1E+10	1	-1E+10	1
4902551	62	C	04/29/2022	05:51	-131.595	49.567	0	657.80	0	4.1100	0	34.2150	0	27.155	0	651.153	0	13.8	4	4.4	4	-1E+10	1	-1E+10	1	-1E+10	1	-1E+10	1	-1E+10	1	-1E+10	1
4902551	62	C	04/29/2022	05:51	-131.595	49.567	0	662.70	0	4.0940	0	34.2200	0	27.161	0	655.995	0	13.6	4	4.3	4	-1E+10	1	-1E+10	1	-1E+10	1	-1E+10	1	-1E+10	1	-1E+10	1
4902551	62	C	04/29/2022	05:51	-131.595	49.567	0	667.70	0	4.0710	0	34.2240	0	27.167	0	660.937	0	13.5	4	4.3	4	-1E+10	1	-1E+10	1	-1E+10	1	-1E+10	1	-1E+10	1	-1E+10	1
4902551	62	C	04/29/2022	05:51	-131.595	49.567	0	672.80	0	4.0600	0	34.2260	0	27.169	0	665.977	0	13.4	4	4.2	4	-1E+10	1	-1E+10	1	-1E+10	1	-1E+10	1	-1E+10	1	-1E+10	1
4902551	62	C	04/29/2022	05:51	-131.595	49.567	0	677.90	0	4.0430	0	34.2270	0	27.172	0	671.017	0	13.3	4	4.2	4	-1E+10	1	-1E+10	1	-1E+10	1	-1E+10	1	-1E+10	1	-1E+10	1
4902551	62	C	04/29/2022	05:51	-131.595	49.567	0	682.90	0	4.0320	0	34.2310	0	27.176	0	675.958	0	13.1	4	4.1	4	-1E+10	1	-1E+10	1	-1E+10	1	-1E+10	1	-1E+10	1	-1E+10	1
4902551	62	C	04/29/2022	05:51	-131.595	49.567	0	688.00	0	4.0210	0	34.2350	0	27.181	0	680.998	0	12.9	4	4.1	4	-1E+10	1	-1E+10	1	-1E+10	1	-1E+10	1	-1E+10	1	-1E+10	1
4902551	62	C	04/29/2022	05:51	-131.595	49.567	0	693.20	0	4.0140	0	34.2390	0	27.185	0	686.137	0	12.8	4	4.0	4	-1E+10	1	-1E+10	1	-1E+10	1	-1E+10	1	-1E+10	1	-1E+10	1
4902551	62	C	04/29/2022	05:51	-131.595	49.567	0	698.00	0	4.0080	0	34.2400	0	27.186	0	690.880	0	12.7	4	4.0	4	-1E+10	1	-1E+10	1	-1E+10	1	-1E+10	1	-1E+10	1	-1E+10	1
4902551	62	C	04/29/2022	05:51	-131.595	49.567	0	703.00	0	3.9880	0	34.2420	0	27.190	0	695.820	0	12.5	4	4.0	4	-1E+10	1	-1E+10	1	-1E+10	1	-1E+10	1	-1E+10	1	-1E+10	1
4902551	62	C	04/29/2022	05:51	-131.595	49.567	0	708.00	0	3.9650	0	34.2480	0	27.197	0	700.761	0	12.4	4	3.9	4	-1E+10	1	-1E+10	1	-1E+10	1	-1E+10	1	-1E+10	1	-1E+10	1
4902551	62	C	04/29/2022	05:51	-131.595	49.567	0	712.80	0	3.9580	0	34.2490	0	27.198	0	705.504	0	12.4	4	3.9	4	-1E+10	1	-1E+10	1	-1E+10	1	-1E+10	1	-1E+10	1	-1E+10	1
4902551	62	C	04/29/2022	05:51	-131.595	49.567	0	717.70	0	3.9520	0	34.2510	0	27.201	0	710.345	0	12.3	4	3.9	4	-1E+10	1	-1E+10	1	-1E+10	1	-1E+10	1	-1E+10	1	-1E+10	1
4902551	62	C	04/29/2022	05:51	-131.595	49.567	0	722.60	0	3.9480	0	34.2530	0	27.203	0	715.187	0	12.2	4	3.8	4	-1E+10	1	-1E+10	1	-1E+10	1	-1E+10	1	-1E+10	1	-1E+10	1
4902551	62	C	04/29/2022	05:51	-131.595	49.567	0	727.60	0	3.9460	0	34.2540	0	27.204	0	720.127	0	12.0	4	3.8	4	-1E+10	1	-1E+10	1	-1E+10	1	-1E+10	1	-1E+10	1	-1E+10	1
4902551	62	C	04/29/2022	05:51	-131.595	49.567	0	732.50	0	3.9470	0	34.2550	0	27.204	0	724.968	0	11.8	4	3.7	4	-1E+10	1	-1E+10	1	-1E+10	1	-1E+10	1	-1E+10	1	-1E+10	1
4902551	62	C	04/29/2022	05:51	-131.595	49.567	0	737.60	0	3.9450	0	34.2630	0	27.211	0	730.006	0	11.6	4	3.7	4	-1E+10	1	-1E+10	1	-1E+10	1	-1E+10	1	-1E+10	1	-1E+10	1
4902551	62	C	04/29/2022	05:51	-131.595	49.567	0	742.80	0	3.9370	0	34.2660	0	27.214	0	735.144	0	11.6	4	3.6	4	-1E+10	1	-1E+10	1	-1E+10	1	-1E+10	1	-1E+10	1	-1E+10	1
4902551	62	C	04/29/2022	05:51	-131.595	49.567	0	748.10	0	3.9170	0	34.2690	0	27.219	0	740.380	0	11.5	4	3.6	4	-1E+10	1	-1E+10	1	-1E+10	1	-1E+10	1	-1E+10	1	-1E+10	1
4902551	62	C	04/29/2022	05:51	-131.595	49.567	0	753.10	0	3.9020	0	34.2710	0	27.222	0	745.319	0	11.5	4	3.6	4	-1E+10	1	-1E+10	1	-1E+10	1	-1E+10	1	-1E+10	1	-1E+10	1
4902551	62	C	04/29/2022	05:51	-131.595	49.567	0	757.70	0	3.8750	0	34.2730	0	27.226	0	749.863	0	11.4	4	3.6	4	-1E+10	1	-1E+10	1	-1E+10	1	-1E+10	1	-1E+10	1	-1E+10	1
4902551	62	C	04/29/2022	05:51	-131.595	49.567	0	762.90	0	3.8510	0	34.2770	0	27.232	0	755.000	0	11.4	4	3.6	4	-1E+10	1	-1E+10	1	-1E+10	1	-1E+10	1	-1E+10	1	-1E+10	1
4902551	62	C	04/29/2022	05:51	-131.595	49.567	0	768.20	0	3.8360	0	34.2780	0	27.234	0	760.236	0	11.4	4	3.6	4	-1E+10	1	-1E+10	1	-1E+10	1	-1E+10	1	-1E+10	1	-1E+10	1
4902551	62	C	04/29/2022	05:51	-131.595	49.567	0	773.10	0	3.8220	0	34.2810	0	27.238	0	765.076	0	11.3	4	3.6	4	-1E+10	1	-1E+10	1	-1E+10	1	-1E+10	1	-1E+10	1	-1E+10	1
4902551	62	C	04/29/2022	05:51	-131.595	49.567	0	778.10	0	3.8190	0	34.2830	0	27.240	0	770.015	0	11.3	4	3.6	4	-1E+10	1	-1E+10	1	-1E+10	1	-1E+10	1	-1E+10	1	-1E+10	1
4902551	62	C	04/29/2022	05:51	-131.595	49.567	0	783.10	0	3.8170	0	34.2840	0	27.241	0	774.954	0	11.4	4	3.6	4	-1E+10	1	-1E+10	1	-1E+10	1	-1E+10	1	-1E+10	1	-1E+10	1
4902551	62	C	04/29/2022	05:51	-131.595	49.567	0	788.10	0	3.7910	0	34.2850	0	27.244	0	779.892	0	11.4	4	3.6	4	-1E+10	1	-1E+10	1	-1E+10	1	-1E+10	1	-1E+10	1	-1E+10	1
4902551	62	C	04/29/2022	05:51	-131.595	49.567	0	793.30	0	3.7580	0	34.2890	0	27.251	0	785.028	0	11.4	4	3.6	4	-1E+10	1	-1E+10	1	-1E+10	1	-1E+10	1	-1E+10	1	-1E+10	1
4902551	62	C	04/29/2022	05:51	-131.595	49.567	0	797.90	0	3.7380	0	34.2890	0	27.253	0	789.572	0	11.5	4	3.6	4	-1E+10	1	-1E+10	1	-1E+10	1	-1E+10	1	-1E+10	1	-1E+10	1
4902551	62	C	04/29/2022	05:51	-131.595	49.567	0	802.60	0	3.7240	0	34.2900	0	27.255	0	794.214	0	11.4	4	3.6	4	-1E+10	1	-1E+10	1	-1E+10	1	-1E+10	1	-1E+10	1	-1E+10	1
4902551	62	C	04/29/2022	05:51	-131.595	49.567	0	807.80	0	3.7170	0	34.2910	0	27.257	0	799.349	0	11.4	4	3.6	4	-1E+10	1	-1E+10	1	-1E+10	1	-1E+10	1	-1E+10	1	-1E+10	1
4902551	62	C	04/29/2022	05:51	-131.595	49.567	0	813.10	0	3.7060	0	34.2960	0	27.262	0	804.584	0	11.4	4	3.6	4	-1E+10	1	-1E+10	1	-1E+10	1	-1E+10	1	-1E+10	1	-1E+10	1
4902551	62	C	04/29/2022	05:51	-131.595	49.567	0	817.90	0	3.6950	0	34.2990	0	27.265	0	809.324	0	11.5	4	3.6	4	-1E+10	1	-1E+10	1	-1E+10	1	-1E+10	1	-1E+10	1	-1E+10	1
4902551	62	C	04/29/2022	05:51	-131.595	49.567	0	822.80	0	3.6860	0	34.2980	0	27.265	0	814.163	0	11.7	4	3.7	4	-1E+10	1	-1E+10	1	-1E+10	1	-1E+10	1	-1E+10	1	-1E+10	1
4902551	62	C	04/29/2022	05:51	-131.595	49.567	0	828.20	0	3.6120	0	34.2950	0	27.270	0	819.496	0	11.8	4	3.7	4	-1E+10	1	-1E+10	1	-1E+10	1	-1E+10	1	-1E+10	1	-1E+10	1
4902551	62	C	04/29/2022	05:51	-131.595	49.567	0	833.10	0	3.5700	0	34.2930	0	27.273	0	824.335	0	11.7	4	3.7	4	-1E+10	1	-1E+10	1	-1E+10	1	-1E+10	1	-1E+10	1	-1E+10	1
4902551	62	C	04/29/2022	05:51	-131.595	49.567	0	838.00	0	3.6070	0	34.3010	0	27.276	0	829.174	0	11.6	4	3.6	4	-1E+10	1	-1E+10	1	-1E+10	1	-1E+10	1	-1E+10	1	-1E+10	1
4902551	62	C	04/29/2022	05:51	-131.595	49.567	0	842.90	0	3.6160	0	34.3040	0	27.277	0	834.012	0	11.7	4	3.7	4	-1E+10	1	-1E+10	1	-1E+10	1	-1E+10	1	-1E+10	1	-1E+10	1
4902551	62	C	04/29/2022	05:51	-131.595	49.567	0	847.90	0	3.5780	0	34.3050	0	27.282	0	838.949	0	12.0	4	3.8	4	-1E+10	1	-1E+10	1	-1E+10	1	-1E+10	1	-1E+10	1	-1E+10	1
4902551	62	C	04/29/2022	05:51	-131.595	49.567	0	852.90	0	3.4810	0	34.2980	0	27.285	0	843.887	0	12.1	4	3.8	4	-1E+10	1	-1E+10	1	-1E+10	1	-1E+10	1	-1E+10	1	-1E+10	1
4902551	62	C	04/29/2022	05:51	-131.595	49.567	0	857.90	0	3.4560	0	34.3010	0	27.290	0	848.824	0	12.0	4	3.7	4	-1E+10	1	-1E+10	1	-1E+10	1	-1E+10	1	-1E+10	1	-1E+10	1
4902551	62	C	04/29/2022	05:51	-131.595	49.567	0	862.90	0	3.4420	0	34.3040	0	27.294	0	853.761	0	12.0	4	3.7	4	-1E+10	1	-1E+10	1	-1E+10	1	-1E+10	1	-1E+10	1	-1E+10	1
4902551	62	C	04/29/2022	05:51	-131.595	49.567	0	867.90	0	3.4300	0	34.3070	0	27.298	0	858.697	0	11.9	4	3.7	4	-1E+10	1	-1E+10	1	-1E+10	1	-1E+10	1	-1E+10	1	-1E+10	1
4902551	62	C	04/29/2022	05:51	-131.595	49.567	0	872.90	0	3.4260	0	34.3070	0	27.298	0	863.634	0	11.9	4	3.7	4	-1E+10	1	-1E+10	1	-1E+10	1	-1E+10	1	-1E+10	1	-1E+10	1
4902551	62	C	04/29/2022	05:51	-131.595	49.567	0	877.90	0	3.4170	0	34.3100	0	27.301	0	868.571	0	11.9	4	3.7	4	-1E+10	1	-1E+10	1	-1E+10	1	-1E+10	1	-1E+10	1	-1E+10	1
4902551	62	C	04/29/2022	05:51	-131.595	49.567	0	882.90	0	3.4100	0	34.3120	0	27.304	0	873.507	0	11.8	4	3.7	4	-1E+10	1	-1E+10	1	-1E+10	1	-1E+10	1	-1E+10	1	-1E+10	1
4902551	62	C	04/29/2022	05:51	-131.595	49.567	0	888.00	0	3.3990	0	34.3140	0	27.306	0	878.542	0	11.8	4	3.7	4	-1E+10	1	-1E+10	1	-1E+10	1	-1E+10	1	-1E+10	1	-1E+10	1
4902551	62	C	04/29/2022	05:51	-131.595	49.567	0	892.90	0	3.3930	0	34.3160	0	27.308	0	883.379	0	11.8	4	3.7	4	-1E+10	1	-1E+10	1	-1E+10	1	-1E+10	1	-1E+10	1	-1E+10	1
4902551	62	C	04/29/2022	05:51	-131.595	49.567	0	897.90	0	3.3820	0	34.3180	0	27.311	0	888.316	0	11.7	4	3.7	4	-1E+10	1	-1E+10	1	-1E+10	1	-1E+10	1	-1E+10	1	-1E+10	1
4902551	62	C	04/29/2022	05:51	-131.595	49.567	0	902.80	0	3.3680	0	34.3210	0	27.315	0	893.153	0	11.7	4	3.6	4	-1E+10	1	-1E+10	1	-1E+10	1	-1E+10	1	-1E+10	1	-1E+10	1
4902551	62	C	04/29/2022	05:51	-131.595	49.567	0	907.70	0	3.3580	0	34.3230	0	27.317	0	897.990	0	11.7	4	3.6	4	-1E+10	1	-1E+10	1	-1E+10	1	-1E+10	1	-1E+10	1	-1E+10	1
4902551	62	C	04/29/2022	05:51	-131.595	49.567	0	912.80	0	3.3510	0	34.3240	0	27.319	0	903.024	0	11.7	4	3.6	4	-1E+10	1	-1E+10	1	-1E+10	1	-1E+10	1	-1E+10	1	-1E+10	1
4902551	62	C	04/29/2022	05:51	-131.595	49.567	0	917.70	0	3.3260	0	34.3290	0	27.325	0	907.861	0	11.6	4	3.6	4	-1E+10	1	-1E+10	1	-1E+10	1	-1E+10	1	-1E+10	1	-1E+10	1
4902551	62	C	04/29/2022	05:51	-131.595	49.567	0	922.60	0	3.3080	0	34.3330	0	27.330	0	912.698	0	11.6	4	3.6	4	-1E+10	1	-1E+10	1	-1E+10	1	-1E+10	1	-1E+10	1	-1E+10	1
4902551	62	C	04/29/2022	05:51	-131.595	49.567	0	928.00	0	3.3030	0	34.3340	0	27.331	0	918.028	0	11.6	4	3.6	4	-1E+10	1	-1E+10	1	-1E+10	1	-1E+10	1	-1E+10	1	-1E+10	1
4902551	62	C	04/29/2022	05:51	-131.595	49.567	0	933.20	0	3.2960	0	34.3360	0	27.334	0	923.161	0	11.7	4	3.6	4	-1E+10	1	-1E+10	1	-1E+10	1	-1E+10	1	-1E+10	1	-1E+10	1
4902551	62	C	04/29/2022	05:51	-131.595	49.567	0	938.00	0	3.2930	0	34.3400	0	27.337	0	927.899	0	11.7	4	3.6	4	-1E+10	1	-1E+10	1	-1E+10	1	-1E+10	1	-1E+10	1	-1E+10	1
4902551	62	C	04/29/2022	05:51	-131.595	49.567	0	942.90	0	3.2810	0	34.3440	0	27.342	0	932.735	0	11.8	4	3.7	4	-1E+10	1	-1E+10	1	-1E+10	1	-1E+10	1	-1E+10	1	-1E+10	1
4902551	62	C	04/29/2022	05:51	-131.595	49.567	0	947.70	0	3.2770	0	34.3510	0	27.348	0	937.472	0	11.8	4	3.7	4	-1E+10	1	-1E+10	1	-1E+10	1	-1E+10	1	-1E+10	1	-1E+10	1
4902551	62	C	04/29/2022	05:51	-131.595	49.567	0	952.70	0	3.2760	0	34.3590	0	27.354	0	942.407	0	11.8	4	3.7	4	-1E+10	1	-1E+10	1	-1E+10	1	-1E+10	1	-1E+10	1	-1E+10	1
4902551	62	C	04/29/2022	05:51	-131.595	49.567	0	957.70	0	3.2700	0	34.3610	0	27.356	0	947.342	0	11.9	4	3.7	4	-1E+10	1	-1E+10	1	-1E+10	1	-1E+10	1	-1E+10	1	-1E+10	1
4902551	62	C	04/29/2022	05:51	-131.595	49.567	0	962.80	0	3.2600	0	34.3620	0	27.358	0	952.375	0	11.9	4	3.7	4	-1E+10	1	-1E+10	1	-1E+10	1	-1E+10	1	-1E+10	1	-1E+10	1
4902551	62	C	04/29/2022	05:51	-131.595	49.567	0	968.10	0	3.2360	0	34.3680	0	27.365	0	957.606	0	12.0	4	3.7	4	-1E+10	1	-1E+10	1	-1E+10	1	-1E+10	1	-1E+10	1	-1E+10	1
4902551	62	C	04/29/2022	05:51	-131.595	49.567	0	973.10	0	3.2160	0	34.3700	0	27.369	0	962.540	0	12.0	4	3.7	4	-1E+10	1	-1E+10	1	-1E+10	1	-1E+10	1	-1E+10	1	-1E+10	1
4902551	62	C	04/29/2022	05:51	-131.595	49.567	0	978.00	0	3.2110	0	34.3710	0	27.370	0	967.375	0	12.1	4	3.7	4	-1E+10	1	-1E+10	1	-1E+10	1	-1E+10	1	-1E+10	1	-1E+10	1
4902551	62	C	04/29/2022	05:51	-131.595	49.567	0	983.00	0	3.2110	0	34.3710	0	27.370	0	972.310	0	12.1	4	3.7	4	-1E+10	1	-1E+10	1	-1E+10	1	-1E+10	1	-1E+10	1	-1E+10	1
4902551	62	C	04/29/2022	05:51	-131.595	49.567	0	987.60	0	3.2070	0	34.3720	0	27.371	0	976.849	0	12.1	4	3.8	4	-1E+10	1	-1E+10	1	-1E+10	1	-1E+10	1	-1E+10	1	-1E+10	1
4902551	62	C	04/29/2022	05:51	-131.595	49.567	0	992.80	0	3.2030	0	34.3720	0	27.371	0	981.980	0	12.1	4	3.8	4	-1E+10	1	-1E+10	1	-1E+10	1	-1E+10	1	-1E+10	1	-1E+10	1
4902551	62	C	04/29/2022	05:51	-131.595	49.567	0	998.10	0	3.1830	0	34.3750	0	27.376	0	987.210	0	12.2	4	3.8	4	-1E+10	1	-1E+10	1	-1E+10	1	-1E+10	1	-1E+10	1	-1E+10	1
4902551	62	C	04/29/2022	05:51	-131.595	49.567	0	1005.50	0	3.1510	0	34.3780	0	27.381	0	994.512	0	12.2	4	3.8	4	-1E+10	1	-1E+10	1	-1E+10	1	-1E+10	1	-1E+10	1	-1E+10	1
4902551	62	C	04/29/2022	05:51	-131.595	49.567	0	1015.70	0	3.1230	0	34.3820	0	27.387	0	1004.576	0	12.3	4	3.8	4	-1E+10	1	-1E+10	1	-1E+10	1	-1E+10	1	-1E+10	1	-1E+10	1
4902551	62	C	04/29/2022	05:51	-131.595	49.567	0	1025.60	0	3.1130	0	34.3860	0	27.391	0	1014.343	0	12.4	4	3.8	4	-1E+10	1	-1E+10	1	-1E+10	1	-1E+10	1	-1E+10	1	-1E+10	1
4902551	62	C	04/29/2022	05:51	-131.595	49.567	0	1035.10	0	3.0990	0	34.3870	0	27.393	0	1023.716	0	12.5	4	3.9	4	-1E+10	1	-1E+10	1	-1E+10	1	-1E+10	1	-1E+10	1	-1E+10	1
4902551	62	C	04/29/2022	05:51	-131.595	49.567	0	1045.30	0	3.0900	0	34.3890	0	27.396	0	1033.779	0	12.6	4	3.9	4	-1E+10	1	-1E+10	1	-1E+10	1	-1E+10	1	-1E+10	1	-1E+10	1
4902551	62	C	04/29/2022	05:51	-131.595	49.567	0	1055.40	0	3.0610	0	34.3880	0	27.398	0	1043.742	0	12.6	4	3.9	4	-1E+10	1	-1E+10	1	-1E+10	1	-1E+10	1	-1E+10	1	-1E+10	1
4902551	62	C	04/29/2022	05:51	-131.595	49.567	0	1065.10	0	3.0130	0	34.3890	0	27.403	0	1053.311	0	12.7	4	3.9	4	-1E+10	1	-1E+10	1	-1E+10	1	-1E+10	1	-1E+10	1	-1E+10	1
4902551	62	C	04/29/2022	05:51	-131.595	49.567	0	1075.60	0	2.9790	0	34.3930	0	27.409	0	1063.668	0	12.8	4	4.0	4	-1E+10	1	-1E+10	1	-1E+10	1	-1E+10	1	-1E+10	1	-1E+10	1
4902551	62	C	04/29/2022	05:51	-131.595	49.567	0	1085.40	0	2.9660	0	34.3950	0	27.412	0	1073.334	0	12.9	4	4.0	4	-1E+10	1	-1E+10	1	-1E+10	1	-1E+10	1	-1E+10	1	-1E+10	1
4902551	62	C	04/29/2022	05:51	-131.595	49.567	0	1095.10	0	2.9450	0	34.3990	0	27.417	0	1082.901	0	13.0	4	4.0	4	-1E+10	1	-1E+10	1	-1E+10	1	-1E+10	1	-1E+10	1	-1E+10	1
4902551	62	C	04/29/2022	05:51	-131.595	49.567	0	1105.20	0	2.9370	0	34.4010	0	27.419	0	1092.862	0	13.1	4	4.0	4	-1E+10	1	-1E+10	1	-1E+10	1	-1E+10	1	-1E+10	1	-1E+10	1
4902551	62	C	04/29/2022	05:51	-131.595	49.567	0	1115.30	0	2.9310	0	34.4020	0	27.421	0	1102.823	0	13.1	4	4.0	4	-1E+10	1	-1E+10	1	-1E+10	1	-1E+10	1	-1E+10	1	-1E+10	1
4902551	62	C	04/29/2022	05:51	-131.595	49.567	0	1125.50	0	2.9100	0	34.4050	0	27.425	0	1112.882	0	13.4	4	4.1	4	-1E+10	1	-1E+10	1	-1E+10	1	-1E+10	1	-1E+10	1	-1E+10	1
4902551	62	C	04/29/2022	05:51	-131.595	49.567	0	1135.40	0	2.8940	0	34.4120	0	27.432	0	1122.645	0	13.7	4	4.2	4	-1E+10	1	-1E+10	1	-1E+10	1	-1E+10	1	-1E+10	1	-1E+10	1
4902551	62	C	04/29/2022	05:51	-131.595	49.567	0	1145.00	0	2.8810	0	34.4160	0	27.437	0	1132.111	0	13.8	4	4.2	4	-1E+10	1	-1E+10	1	-1E+10	1	-1E+10	1	-1E+10	1	-1E+10	1
4902551	62	C	04/29/2022	05:51	-131.595	49.567	0	1155.10	0	2.8590	0	34.4180	0	27.440	0	1142.070	0	13.9	4	4.3	4	-1E+10	1	-1E+10	1	-1E+10	1	-1E+10	1	-1E+10	1	-1E+10	1
4902551	62	C	04/29/2022	05:51	-131.595	49.567	0	1165.40	0	2.8470	0	34.4210	0	27.444	0	1152.225	0	14.1	4	4.3	4	-1E+10	1	-1E+10	1	-1E+10	1	-1E+10	1	-1E+10	1	-1E+10	1
4902551	62	C	04/29/2022	05:51	-131.595	49.567	0	1175.40	0	2.8350	0	34.4230	0	27.446	0	1162.085	0	14.3	4	4.4	4	-1E+10	1	-1E+10	1	-1E+10	1	-1E+10	1	-1E+10	1	-1E+10	1
4902551	62	C	04/29/2022	05:51	-131.595	49.567	0	1185.00	0	2.8210	0	34.4260	0	27.450	0	1171.549	0	14.4	4	4.4	4	-1E+10	1	-1E+10	1	-1E+10	1	-1E+10	1	-1E+10	1	-1E+10	1
4902551	62	C	04/29/2022	05:51	-131.595	49.567	0	1195.40	0	2.8140	0	34.4270	0	27.452	0	1181.802	0	14.6	4	4.5	4	-1E+10	1	-1E+10	1	-1E+10	1	-1E+10	1	-1E+10	1	-1E+10	1
4902551	62	C	04/29/2022	05:51	-131.595	49.567	0	1205.90	0	2.7960	0	34.4310	0	27.456	0	1192.153	0	14.8	4	4.5	4	-1E+10	1	-1E+10	1	-1E+10	1	-1E+10	1	-1E+10	1	-1E+10	1
4902551	62	C	04/29/2022	05:51	-131.595	49.567	0	1215.40	0	2.7780	0	34.4330	0	27.460	0	1201.517	0	15.0	4	4.6	4	-1E+10	1	-1E+10	1	-1E+10	1	-1E+10	1	-1E+10	1	-1E+10	1
4902551	62	C	04/29/2022	05:51	-131.595	49.567	0	1225.10	0	2.7720	0	34.4360	0	27.463	0	1211.078	0	15.2	4	4.7	4	-1E+10	1	-1E+10	1	-1E+10	1	-1E+10	1	-1E+10	1	-1E+10	1
4902551	62	C	04/29/2022	05:51	-131.595	49.567	0	1235.40	0	2.7590	0	34.4380	0	27.465	0	1221.231	0	15.1	4	4.6	4	-1E+10	1	-1E+10	1	-1E+10	1	-1E+10	1	-1E+10	1	-1E+10	1
4902551	62	C	04/29/2022	05:51	-131.595	49.567	0	1245.20	0	2.7340	0	34.4380	0	27.468	0	1230.890	0	15.1	4	4.6	4	-1E+10	1	-1E+10	1	-1E+10	1	-1E+10	1	-1E+10	1	-1E+10	1
4902551	62	C	04/29/2022	05:51	-131.595	49.567	0	1255.10	0	2.7240	0	34.4390	0	27.469	0	1240.647	0	15.1	4	4.6	4	-1E+10	1	-1E+10	1	-1E+10	1	-1E+10	1	-1E+10	1	-1E+10	1
4902551	62	C	04/29/2022	05:51	-131.595	49.567	0	1265.30	0	2.7030	0	34.4410	0	27.473	0	1250.699	0	15.4	4	4.7	4	-1E+10	1	-1E+10	1	-1E+10	1	-1E+10	1	-1E+10	1	-1E+10	1
4902551	62	C	04/29/2022	05:51	-131.595	49.567	0	1275.60	0	2.6790	0	34.4450	0	27.478	0	1260.849	0	15.6	4	4.8	4	-1E+10	1	-1E+10	1	-1E+10	1	-1E+10	1	-1E+10	1	-1E+10	1
4902551	62	C	04/29/2022	05:51	-131.595	49.567	0	1285.50	0	2.6660	0	34.4480	0	27.482	0	1270.605	0	16.0	4	4.9	4	-1E+10	1	-1E+10	1	-1E+10	1	-1E+10	1	-1E+10	1	-1E+10	1
4902551	62	C	04/29/2022	05:51	-131.595	49.567	0	1295.40	0	2.6530	0	34.4510	0	27.485	0	1280.360	0	16.4	4	5.0	4	-1E+10	1	-1E+10	1	-1E+10	1	-1E+10	1	-1E+10	1	-1E+10	1
4902551	62	C	04/29/2022	05:51	-131.595	49.567	0	1305.30	0	2.6320	0	34.4550	0	27.490	0	1290.115	0	16.8	4	5.2	4	-1E+10	1	-1E+10	1	-1E+10	1	-1E+10	1	-1E+10	1	-1E+10	1
4902551	62	C	04/29/2022	05:51	-131.595	49.567	0	1315.60	0	2.6160	0	34.4580	0	27.494	0	1300.263	0	17.2	4	5.3	4	-1E+10	1	-1E+10	1	-1E+10	1	-1E+10	1	-1E+10	1	-1E+10	1
4902551	62	C	04/29/2022	05:51	-131.595	49.567	0	1325.60	0	2.6040	0	34.4610	0	27.498	0	1310.116	0	17.5	4	5.4	4	-1E+10	1	-1E+10	1	-1E+10	1	-1E+10	1	-1E+10	1	-1E+10	1
4902551	62	C	04/29/2022	05:51	-131.595	49.567	0	1335.40	0	2.5890	0	34.4630	0	27.501	0	1319.771	0	17.9	4	5.5	4	-1E+10	1	-1E+10	1	-1E+10	1	-1E+10	1	-1E+10	1	-1E+10	1
4902551	62	C	04/29/2022	05:51	-131.595	49.567	0	1345.40	0	2.5720	0	34.4660	0	27.505	0	1329.622	0	18.2	4	5.5	4	-1E+10	1	-1E+10	1	-1E+10	1	-1E+10	1	-1E+10	1	-1E+10	1
4902551	62	C	04/29/2022	05:51	-131.595	49.567	0	1355.20	0	2.5600	0	34.4680	0	27.507	0	1339.276	0	18.6	4	5.7	4	-1E+10	1	-1E+10	1	-1E+10	1	-1E+10	1	-1E+10	1	-1E+10	1
4902551	62	C	04/29/2022	05:51	-131.595	49.567	0	1365.20	0	2.5420	0	34.4720	0	27.512	0	1349.126	0	19.0	4	5.8	4	-1E+10	1	-1E+10	1	-1E+10	1	-1E+10	1	-1E+10	1	-1E+10	1
4902551	62	C	04/29/2022	05:51	-131.595	49.567	0	1375.40	0	2.5320	0	34.4730	0	27.514	0	1359.174	0	19.4	4	5.9	4	-1E+10	1	-1E+10	1	-1E+10	1	-1E+10	1	-1E+10	1	-1E+10	1
4902551	62	C	04/29/2022	05:51	-131.595	49.567	0	1385.40	0	2.5170	0	34.4760	0	27.517	0	1369.023	0	20.2	4	6.2	4	-1E+10	1	-1E+10	1	-1E+10	1	-1E+10	1	-1E+10	1	-1E+10	1
4902551	62	C	04/29/2022	05:51	-131.595	49.567	0	1395.20	0	2.5020	0	34.4810	0	27.523	0	1378.675	0	20.8	4	6.4	4	-1E+10	1	-1E+10	1	-1E+10	1	-1E+10	1	-1E+10	1	-1E+10	1
4902551	62	C	04/29/2022	05:51	-131.595	49.567	0	1405.50	0	2.4770	0	34.4850	0	27.528	0	1388.819	0	21.3	4	6.5	4	-1E+10	1	-1E+10	1	-1E+10	1	-1E+10	1	-1E+10	1	-1E+10	1
4902551	62	C	04/29/2022	05:51	-131.595	49.567	0	1415.40	0	2.4670	0	34.4860	0	27.530	0	1398.569	0	21.7	4	6.6	4	-1E+10	1	-1E+10	1	-1E+10	1	-1E+10	1	-1E+10	1	-1E+10	1
4902551	62	C	04/29/2022	05:51	-131.595	49.567	0	1425.50	0	2.4550	0	34.4880	0	27.532	0	1408.515	0	22.3	4	6.8	4	-1E+10	1	-1E+10	1	-1E+10	1	-1E+10	1	-1E+10	1	-1E+10	1
4902551	62	C	04/29/2022	05:51	-131.595	49.567	0	1435.80	0	2.4390	0	34.4910	0	27.536	0	1418.658	0	22.7	4	6.9	4	-1E+10	1	-1E+10	1	-1E+10	1	-1E+10	1	-1E+10	1	-1E+10	1
4902551	62	C	04/29/2022	05:51	-131.595	49.567	0	1445.30	0	2.4300	0	34.4930	0	27.539	0	1428.013	0	23.1	4	7.0	4	-1E+10	1	-1E+10	1	-1E+10	1	-1E+10	1	-1E+10	1	-1E+10	1
4902551	62	C	04/29/2022	05:51	-131.595	49.567	0	1455.10	0	2.4220	0	34.4940	0	27.540	0	1437.662	0	23.6	4	7.2	4	-1E+10	1	-1E+10	1	-1E+10	1	-1E+10	1	-1E+10	1	-1E+10	1
4902551	62	C	04/29/2022	05:51	-131.595	49.567	0	1465.40	0	2.4030	0	34.4970	0	27.544	0	1447.803	0	24.3	4	7.4	4	-1E+10	1	-1E+10	1	-1E+10	1	-1E+10	1	-1E+10	1	-1E+10	1
4902551	62	C	04/29/2022	05:51	-131.595	49.567	0	1475.20	0	2.3910	0	34.4990	0	27.547	0	1457.452	0	24.9	4	7.6	4	-1E+10	1	-1E+10	1	-1E+10	1	-1E+10	1	-1E+10	1	-1E+10	1
4902551	62	C	04/29/2022	05:51	-131.595	49.567	0	1485.60	0	2.3710	0	34.5030	0	27.552	0	1467.691	0	25.7	4	7.8	4	-1E+10	1	-1E+10	1	-1E+10	1	-1E+10	1	-1E+10	1	-1E+10	1
4902551	62	C	04/29/2022	05:51	-131.595	49.567	0	1495.70	0	2.3530	0	34.5060	0	27.556	0	1477.633	0	26.2	4	8.0	4	-1E+10	1	-1E+10	1	-1E+10	1	-1E+10	1	-1E+10	1	-1E+10	1
4902551	62	C	04/29/2022	05:51	-131.595	49.567	0	1505.40	0	2.3470	0	34.5070	0	27.557	0	1487.182	0	26.6	4	8.1	4	-1E+10	1	-1E+10	1	-1E+10	1	-1E+10	1	-1E+10	1	-1E+10	1
4902551	62	C	04/29/2022	05:51	-131.595	49.567	0	1515.30	0	2.3400	0	34.5090	0	27.559	0	1496.927	0	27.2	4	8.3	4	-1E+10	1	-1E+10	1	-1E+10	1	-1E+10	1	-1E+10	1	-1E+10	1
4902551	62	C	04/29/2022	05:51	-131.595	49.567	0	1525.40	0	2.3310	0	34.5110	0	27.562	0	1506.869	0	27.9	4	8.5	4	-1E+10	1	-1E+10	1	-1E+10	1	-1E+10	1	-1E+10	1	-1E+10	1
4902551	62	C	04/29/2022	05:51	-131.595	49.567	0	1535.20	0	2.3220	0	34.5140	0	27.565	0	1516.515	0	28.5	4	8.7	4	-1E+10	1	-1E+10	1	-1E+10	1	-1E+10	1	-1E+10	1	-1E+10	1
4902551	62	C	04/29/2022	05:51	-131.595	49.567	0	1545.20	0	2.3090	0	34.5160	0	27.567	0	1526.357	0	29.1	4	8.8	4	-1E+10	1	-1E+10	1	-1E+10	1	-1E+10	1	-1E+10	1	-1E+10	1
4902551	62	C	04/29/2022	05:51	-131.595	49.567	0	1555.40	0	2.3030	0	34.5180	0	27.570	0	1536.396	0	29.4	4	8.9	4	-1E+10	1	-1E+10	1	-1E+10	1	-1E+10	1	-1E+10	1	-1E+10	1
4902551	62	C	04/29/2022	05:51	-131.595	49.567	0	1565.60	0	2.2960	0	34.5180	0	27.570	0	1546.434	0	29.8	4	9.1	4	-1E+10	1	-1E+10	1	-1E+10	1	-1E+10	1	-1E+10	1	-1E+10	1
4902551	62	C	04/29/2022	05:51	-131.595	49.567	0	1575.70	0	2.2840	0	34.5200	0	27.573	0	1556.373	0	30.4	4	9.2	4	-1E+10	1	-1E+10	1	-1E+10	1	-1E+10	1	-1E+10	1	-1E+10	1
4902551	62	C	04/29/2022	05:51	-131.595	49.567	0	1585.70	0	2.2770	0	34.5220	0	27.575	0	1566.213	0	30.9	4	9.4	4	-1E+10	1	-1E+10	1	-1E+10	1	-1E+10	1	-1E+10	1	-1E+10	1
4902551	62	C	04/29/2022	05:51	-131.595	49.567	0	1595.50	0	2.2700	0	34.5230	0	27.577	0	1575.856	0	31.4	4	9.5	4	-1E+10	1	-1E+10	1	-1E+10	1	-1E+10	1	-1E+10	1	-1E+10	1
4902551	62	C	04/29/2022	05:51	-131.595	49.567	0	1605.50	0	2.2580	0	34.5250	0	27.579	0	1585.696	0	32.2	4	9.8	4	-1E+10	1	-1E+10	1	-1E+10	1	-1E+10	1	-1E+10	1	-1E+10	1
4902551	62	C	04/29/2022	05:51	-131.595	49.567	0	1615.40	0	2.2390	0	34.5280	0	27.583	0	1595.436	0	32.9	4	10.0	4	-1E+10	1	-1E+10	1	-1E+10	1	-1E+10	1	-1E+10	1	-1E+10	1
4902551	62	C	04/29/2022	05:51	-131.595	49.567	0	1625.10	0	2.2300	0	34.5300	0	27.585	0	1604.980	0	33.4	4	10.1	4	-1E+10	1	-1E+10	1	-1E+10	1	-1E+10	1	-1E+10	1	-1E+10	1
4902551	62	C	04/29/2022	05:51	-131.595	49.567	0	1634.90	0	2.2200	0	34.5310	0	27.587	0	1614.621	0	33.9	4	10.3	4	-1E+10	1	-1E+10	1	-1E+10	1	-1E+10	1	-1E+10	1	-1E+10	1
4902551	62	C	04/29/2022	05:51	-131.595	49.567	0	1645.00	0	2.2100	0	34.5330	0	27.590	0	1624.557	0	34.5	4	10.5	4	-1E+10	1	-1E+10	1	-1E+10	1	-1E+10	1	-1E+10	1	-1E+10	1
4902551	62	C	04/29/2022	05:51	-131.595	49.567	0	1655.10	0	2.2010	0	34.5350	0	27.592	0	1634.493	0	35.0	4	10.6	4	-1E+10	1	-1E+10	1	-1E+10	1	-1E+10	1	-1E+10	1	-1E+10	1
4902551	62	C	04/29/2022	05:51	-131.595	49.567	0	1665.40	0	2.1900	0	34.5360	0	27.594	0	1644.625	0	35.6	4	10.8	4	-1E+10	1	-1E+10	1	-1E+10	1	-1E+10	1	-1E+10	1	-1E+10	1
4902551	62	C	04/29/2022	05:51	-131.595	49.567	0	1675.20	0	2.1770	0	34.5380	0	27.596	0	1654.264	0	36.2	4	11.0	4	-1E+10	1	-1E+10	1	-1E+10	1	-1E+10	1	-1E+10	1	-1E+10	1
4902551	62	C	04/29/2022	05:51	-131.595	49.567	0	1685.20	0	2.1650	0	34.5400	0	27.599	0	1664.100	0	36.9	4	11.2	4	-1E+10	1	-1E+10	1	-1E+10	1	-1E+10	1	-1E+10	1	-1E+10	1
4902551	62	C	04/29/2022	05:51	-131.595	49.567	0	1695.20	0	2.1570	0	34.5420	0	27.601	0	1673.935	0	37.6	4	11.4	4	-1E+10	1	-1E+10	1	-1E+10	1	-1E+10	1	-1E+10	1	-1E+10	1
4902551	62	C	04/29/2022	05:51	-131.595	49.567	0	1705.20	0	2.1450	0	34.5440	0	27.604	0	1683.770	0	37.9	4	11.5	4	-1E+10	1	-1E+10	1	-1E+10	1	-1E+10	1	-1E+10	1	-1E+10	1
4902551	62	C	04/29/2022	05:51	-131.595	49.567	0	1715.30	0	2.1390	0	34.5450	0	27.605	0	1693.703	0	38.2	4	11.6	4	-1E+10	1	-1E+10	1	-1E+10	1	-1E+10	1	-1E+10	1	-1E+10	1
4902551	62	C	04/29/2022	05:51	-131.595	49.567	0	1725.50	0	2.1330	0	34.5460	0	27.607	0	1703.733	0	38.8	4	11.7	4	-1E+10	1	-1E+10	1	-1E+10	1	-1E+10	1	-1E+10	1	-1E+10	1
4902551	62	C	04/29/2022	05:51	-131.595	49.567	0	1735.30	0	2.1240	0	34.5480	0	27.609	0	1713.370	0	39.6	4	12.0	4	-1E+10	1	-1E+10	1	-1E+10	1	-1E+10	1	-1E+10	1	-1E+10	1
4902551	62	C	04/29/2022	05:51	-131.595	49.567	0	1745.10	0	2.1170	0	34.5490	0	27.610	0	1723.007	0	40.1	4	12.1	4	-1E+10	1	-1E+10	1	-1E+10	1	-1E+10	1	-1E+10	1	-1E+10	1
4902551	62	C	04/29/2022	05:51	-131.595	49.567	0	1755.10	0	2.1130	0	34.5500	0	27.612	0	1732.839	0	40.6	4	12.3	4	-1E+10	1	-1E+10	1	-1E+10	1	-1E+10	1	-1E+10	1	-1E+10	1
4902551	62	C	04/29/2022	05:51	-131.595	49.567	0	1765.40	0	2.1050	0	34.5520	0	27.614	0	1742.966	0	41.3	4	12.5	4	-1E+10	1	-1E+10	1	-1E+10	1	-1E+10	1	-1E+10	1	-1E+10	1
4902551	62	C	04/29/2022	05:51	-131.595	49.567	0	1775.40	0	2.0950	0	34.5540	0	27.616	0	1752.798	0	41.9	4	12.7	4	-1E+10	1	-1E+10	1	-1E+10	1	-1E+10	1	-1E+10	1	-1E+10	1
4902551	62	C	04/29/2022	05:51	-131.595	49.567	0	1785.10	0	2.0930	0	34.5540	0	27.616	0	1762.334	0	42.3	4	12.8	4	-1E+10	1	-1E+10	1	-1E+10	1	-1E+10	1	-1E+10	1	-1E+10	1
4902551	62	C	04/29/2022	05:51	-131.595	49.567	0	1795.30	0	2.0860	0	34.5560	0	27.619	0	1772.362	0	43.2	4	13.1	4	-1E+10	1	-1E+10	1	-1E+10	1	-1E+10	1	-1E+10	1	-1E+10	1
4902551	62	C	04/29/2022	05:51	-131.595	49.567	0	1805.70	0	2.0760	0	34.5580	0	27.621	0	1782.585	0	44.0	4	13.3	4	-1E+10	1	-1E+10	1	-1E+10	1	-1E+10	1	-1E+10	1	-1E+10	1
4902551	62	C	04/29/2022	05:51	-131.595	49.567	0	1815.70	0	2.0660	0	34.5590	0	27.623	0	1792.415	0	44.4	4	13.4	4	-1E+10	1	-1E+10	1	-1E+10	1	-1E+10	1	-1E+10	1	-1E+10	1
4902551	62	C	04/29/2022	05:51	-131.595	49.567	0	1825.70	0	2.0580	0	34.5610	0	27.625	0	1802.244	0	44.9	4	13.5	4	-1E+10	1	-1E+10	1	-1E+10	1	-1E+10	1	-1E+10	1	-1E+10	1
4902551	62	C	04/29/2022	05:51	-131.595	49.567	0	1835.50	0	2.0510	0	34.5620	0	27.626	0	1811.877	0	45.5	4	13.7	4	-1E+10	1	-1E+10	1	-1E+10	1	-1E+10	1	-1E+10	1	-1E+10	1
4902551	62	C	04/29/2022	05:51	-131.595	49.567	0	1845.30	0	2.0430	0	34.5630	0	27.628	0	1821.509	0	46.2	4	14.0	4	-1E+10	1	-1E+10	1	-1E+10	1	-1E+10	1	-1E+10	1	-1E+10	1
4902551	62	C	04/29/2022	05:51	-131.595	49.567	0	1855.30	0	2.0360	0	34.5650	0	27.630	0	1831.337	0	46.9	4	14.1	4	-1E+10	1	-1E+10	1	-1E+10	1	-1E+10	1	-1E+10	1	-1E+10	1
4902551	62	C	04/29/2022	05:51	-131.595	49.567	0	1865.20	0	2.0260	0	34.5660	0	27.632	0	1841.066	0	47.9	4	14.4	4	-1E+10	1	-1E+10	1	-1E+10	1	-1E+10	1	-1E+10	1	-1E+10	1
4902551	62	C	04/29/2022	05:51	-131.595	49.567	0	1875.20	0	2.0120	0	34.5690	0	27.635	0	1850.893	0	48.8	4	14.7	4	-1E+10	1	-1E+10	1	-1E+10	1	-1E+10	1	-1E+10	1	-1E+10	1
4902551	62	C	04/29/2022	05:51	-131.595	49.567	0	1885.40	0	2.0040	0	34.5710	0	27.638	0	1860.916	0	49.5	4	14.9	4	-1E+10	1	-1E+10	1	-1E+10	1	-1E+10	1	-1E+10	1	-1E+10	1
4902551	62	C	04/29/2022	05:51	-131.595	49.567	0	1895.30	0	1.9970	0	34.5720	0	27.639	0	1870.644	0	50.1	4	15.1	4	-1E+10	1	-1E+10	1	-1E+10	1	-1E+10	1	-1E+10	1	-1E+10	1
4902551	62	C	04/29/2022	05:51	-131.595	49.567	0	1905.20	0	1.9940	0	34.5730	0	27.640	0	1880.372	0	50.8	4	15.3	4	-1E+10	1	-1E+10	1	-1E+10	1	-1E+10	1	-1E+10	1	-1E+10	1
4902551	62	C	04/29/2022	05:51	-131.595	49.567	0	1915.30	0	1.9840	0	34.5750	0	27.643	0	1890.295	0	51.5	4	15.5	4	-1E+10	1	-1E+10	1	-1E+10	1	-1E+10	1	-1E+10	1	-1E+10	1
4902551	62	C	04/29/2022	05:51	-131.595	49.567	0	1925.10	0	1.9770	0	34.5760	0	27.644	0	1899.924	0	52.1	4	15.7	4	-1E+10	1	-1E+10	1	-1E+10	1	-1E+10	1	-1E+10	1	-1E+10	1
4902551	62	C	04/29/2022	05:51	-131.595	49.567	0	1935.20	0	1.9690	0	34.5780	0	27.646	0	1909.846	0	52.7	4	15.9	4	-1E+10	1	-1E+10	1	-1E+10	1	-1E+10	1	-1E+10	1	-1E+10	1
4902551	62	C	04/29/2022	05:51	-131.595	49.567	0	1945.40	0	1.9640	0	34.5790	0	27.647	0	1919.867	0	53.2	4	16.0	4	-1E+10	1	-1E+10	1	-1E+10	1	-1E+10	1	-1E+10	1	-1E+10	1
4902551	62	C	04/29/2022	05:51	-131.595	49.567	0	1955.40	0	1.9590	0	34.5800	0	27.649	0	1929.690	0	53.6	4	16.2	4	-1E+10	1	-1E+10	1	-1E+10	1	-1E+10	1	-1E+10	1	-1E+10	1
4902551	62	C	04/29/2022	05:51	-131.595	49.567	0	1965.60	0	1.9540	0	34.5810	0	27.650	0	1939.710	0	54.2	4	16.3	4	-1E+10	1	-1E+10	1	-1E+10	1	-1E+10	1	-1E+10	1	-1E+10	1
4902551	62	C	04/29/2022	05:51	-131.595	49.567	0	1975.50	0	1.9480	0	34.5820	0	27.651	0	1949.434	0	54.6	4	16.5	4	-1E+10	1	-1E+10	1	-1E+10	1	-1E+10	1	-1E+10	1	-1E+10	1
4902551	62	C	04/29/2022	05:51	-131.595	49.567	0	1985.10	0	1.9440	0	34.5830	0	27.652	0	1958.863	0	54.8	4	16.5	4	-1E+10	1	-1E+10	1	-1E+10	1	-1E+10	1	-1E+10	1	-1E+10	1
4902551	62	C	04/29/2022	05:51	-131.595	49.567	0	1995.40	0	1.9430	0	34.5830	0	27.653	0	1968.980	0	55.1	4	16.6	4	-1E+10	1	-1E+10	1	-1E+10	1	-1E+10	1	-1E+10	1	-1E+10	1
4902551	62	C	04/29/2022	05:51	-131.595	49.567	0	2005.80	0	1.9410	0	34.5840	0	27.654	0	1979.194	0	55.3	4	16.6	4	-1E+10	1	-1E+10	1	-1E+10	1	-1E+10	1	-1E+10	1	-1E+10	1
4902551	62	C	04/29/2022	05:51	-131.595	49.567	0	2015.60	0	1.9390	0	34.5840	0	27.654	0	1988.818	0	55.6	4	16.7	4	-1E+10	1	-1E+10	1	-1E+10	1	-1E+10	1	-1E+10	1	-1E+10	1
4902551	62	C	04/29/2022	05:51	-131.595	49.567	0	2025.50	0	1.9340	0	34.5850	0	27.655	0	1998.540	0	56.0	4	16.9	4	-1E+10	1	-1E+10	1	-1E+10	1	-1E+10	1	-1E+10	1	-1E+10	1
4902551	62	C	04/29/2022	05:51	-131.595	49.567	0	2035.60	0	1.9280	0	34.5860	0	27.656	0	2008.458	0	56.3	4	16.9	4	-1E+10	1	-1E+10	1	-1E+10	1	-1E+10	1	-1E+10	1	-1E+10	1
4902551	62	C	04/29/2022	05:51	-131.595	49.567	0																										
4902551	63	C	05/09/2022	10:57	-131.520	49.327	0	0.30	0	8.2690	0	32.1840	0	25.024	0	0.297	0	-1e10	1	-1e10	1	-1E+10	1	-1E+10	1	-1E+10	1	-1E+10	1	-1E+10	1	-1E+10	1
4902551	63	C	05/09/2022	10:57	-131.520	49.327	0	0.40	0	8.2694	0	32.1836	0	25.024	0	0.397	0	280.0	4	96.2	4	-1E+10	1	-1E+10	1	-1E+10	1	-1E+10	1	-1E+10	1	-1E+10	1
4902551	63	C	05/09/2022	10:57	-131.520	49.327	0	1.00	0	8.2720	0	32.1810	0	25.021	0	0.991	0	279.8	4	96.1	4	-1E+10	1	-1E+10	1	-1E+10	1	-1E+10	1	-1E+10	1	-1E+10	1
4902551	63	C	05/09/2022	10:57	-131.520	49.327	0	1.80	0	8.2750	0	32.1790	0	25.019	0	1.785	0	279.8	4	96.1	4	-1E+10	1	-1E+10	1	-1E+10	1	-1E+10	1	-1E+10	1	-1E+10	1
4902551	63	C	05/09/2022	10:57	-131.520	49.327	0	2.90	0	8.2770	0	32.1780	0	25.018	0	2.875	0	279.8	4	96.1	4	-1E+10	1	-1E+10	1	-1E+10	1	-1E+10	1	-1E+10	1	-1E+10	1
4902551	63	C	05/09/2022	10:57	-131.520	49.327	0	4.10	0	8.2770	0	32.1790	0	25.019	0	4.065	0	279.7	4	96.1	4	-1E+10	1	-1E+10	1	-1E+10	1	-1E+10	1	-1E+10	1	-1E+10	1
4902551	63	C	05/09/2022	10:57	-131.520	49.327	0	5.30	0	8.2750	0	32.1810	0	25.021	0	5.255	0	279.8	4	96.1	4	-1E+10	1	-1E+10	1	-1E+10	1	-1E+10	1	-1E+10	1	-1E+10	1
4902551	63	C	05/09/2022	10:57	-131.520	49.327	0	6.00	0	8.2750	0	32.1790	0	25.019	0	5.949	0	279.7	4	96.1	4	-1E+10	1	-1E+10	1	-1E+10	1	-1E+10	1	-1E+10	1	-1E+10	1
4902551	63	C	05/09/2022	10:57	-131.520	49.327	0	7.20	0	8.2750	0	32.1800	0	25.020	0	7.139	0	279.6	4	96.0	4	-1E+10	1	-1E+10	1	-1E+10	1	-1E+10	1	-1E+10	1	-1E+10	1
4902551	63	C	05/09/2022	10:57	-131.520	49.327	0	8.10	0	8.2750	0	32.1800	0	25.020	0	8.031	0	279.6	4	96.1	4	-1E+10	1	-1E+10	1	-1E+10	1	-1E+10	1	-1E+10	1	-1E+10	1
4902551	63	C	05/09/2022	10:57	-131.520	49.327	0	9.00	0	8.2750	0	32.1800	0	25.020	0	8.923	0	279.5	4	96.0	4	-1E+10	1	-1E+10	1	-1E+10	1	-1E+10	1	-1E+10	1	-1E+10	1
4902551	63	C	05/09/2022	10:57	-131.520	49.327	0	10.00	0	8.2740	0	32.1800	0	25.020	0	9.915	0	279.5	4	96.0	4	-1E+10	1	-1E+10	1	-1E+10	1	-1E+10	1	-1E+10	1	-1E+10	1
4902551	63	C	05/09/2022	10:57	-131.520	49.327	0	11.00	0	8.2740	0	32.1800	0	25.020	0	10.906	0	279.4	4	96.0	4	-1E+10	1	-1E+10	1	-1E+10	1	-1E+10	1	-1E+10	1	-1E+10	1
4902551	63	C	05/09/2022	10:57	-131.520	49.327	0	11.90	0	8.2740	0	32.1800	0	25.020	0	11.798	0	279.3	4	96.0	4	-1E+10	1	-1E+10	1	-1E+10	1	-1E+10	1	-1E+10	1	-1E+10	1
4902551	63	C	05/09/2022	10:57	-131.520	49.327	0	13.00	0	8.2750	0	32.1800	0	25.020	0	12.889	0	279.3	4	96.0	4	-1E+10	1	-1E+10	1	-1E+10	1	-1E+10	1	-1E+10	1	-1E+10	1
4902551	63	C	05/09/2022	10:57	-131.520	49.327	0	14.10	0	8.2770	0	32.1800	0	25.020	0	13.980	0	279.2	4	95.9	4	-1E+10	1	-1E+10	1	-1E+10	1	-1E+10	1	-1E+10	1	-1E+10	1
4902551	63	C	05/09/2022	10:57	-131.520	49.327	0	15.10	0	8.2760	0	32.1800	0	25.020	0	14.971	0	279.0	4	95.9	4	-1E+10	1	-1E+10	1	-1E+10	1	-1E+10	1	-1E+10	1	-1E+10	1
4902551	63	C	05/09/2022	10:57	-131.520	49.327	0	15.80	0	8.2770	0	32.1800	0	25.020	0	15.665	0	279.1	4	95.9	4	-1E+10	1	-1E+10	1	-1E+10	1	-1E+10	1	-1E+10	1	-1E+10	1
4902551	63	C	05/09/2022	10:57	-131.520	49.327	0	16.80	0	8.2770	0	32.1800	0	25.020	0	16.656	0	279.0	4	95.9	4	-1E+10	1	-1E+10	1	-1E+10	1	-1E+10	1	-1E+10	1	-1E+10	1
4902551	63	C	05/09/2022	10:57	-131.520	49.327	0	17.90	0	8.2770	0	32.1800	0	25.020	0	17.747	0	279.0	4	95.9	4	-1E+10	1	-1E+10	1	-1E+10	1	-1E+10	1	-1E+10	1	-1E+10	1
4902551	63	C	05/09/2022	10:57	-131.520	49.327	0	18.90	0	8.2770	0	32.1800	0	25.020	0	18.738	0	279.0	4	95.9	4	-1E+10	1	-1E+10	1	-1E+10	1	-1E+10	1	-1E+10	1	-1E+10	1
4902551	63	C	05/09/2022	10:57	-131.520	49.327	0	20.10	0	8.2750	0	32.1780	0	25.019	0	19.928	0	278.8	4	95.8	4	-1E+10	1	-1E+10	1	-1E+10	1	-1E+10	1	-1E+10	1	-1E+10	1
4902551	63	C	05/09/2022	10:57	-131.520	49.327	0	20.90	0	8.2770	0	32.1800	0	25.020	0	20.721	0	278.9	4	95.8	4	-1E+10	1	-1E+10	1	-1E+10	1	-1E+10	1	-1E+10	1	-1E+10	1
4902551	63	C	05/09/2022	10:57	-131.520	49.327	0	22.10	0	8.2740	0	32.1800	0	25.021	0	21.911	0	278.8	4	95.8	4	-1E+10	1	-1E+10	1	-1E+10	1	-1E+10	1	-1E+10	1	-1E+10	1
4902551	63	C	05/09/2022	10:57	-131.520	49.327	0	23.10	0	8.2750	0	32.1810	0	25.021	0	22.902	0	278.8	4	95.8	4	-1E+10	1	-1E+10	1	-1E+10	1	-1E+10	1	-1E+10	1	-1E+10	1
4902551	63	C	05/09/2022	10:57	-131.520	49.327	0	23.90	0	8.2790	0	32.1810	0	25.021	0	23.695	0	278.9	4	95.8	4	-1E+10	1	-1E+10	1	-1E+10	1	-1E+10	1	-1E+10	1	-1E+10	1
4902551	63	C	05/09/2022	10:57	-131.520	49.327	0	24.90	0	8.2750	0	32.1800	0	25.020	0	24.687	0	278.8	4	95.8	4	-1E+10	1	-1E+10	1	-1E+10	1	-1E+10	1	-1E+10	1	-1E+10	1
4902551	63	C	05/09/2022	10:57	-131.520	49.327	0	25.90	0	8.2710	0	32.1810	0	25.022	0	25.678	0	278.8	4	95.8	4	-1E+10	1	-1E+10	1	-1E+10	1	-1E+10	1	-1E+10	1	-1E+10	1
4902551	63	C	05/09/2022	10:57	-131.520	49.327	0	26.80	0	8.2700	0	32.1800	0	25.021	0	26.570	0	278.7	4	95.7	4	-1E+10	1	-1E+10	1	-1E+10	1	-1E+10	1	-1E+10	1	-1E+10	1
4902551	63	C	05/09/2022	10:57	-131.520	49.327	0	27.80	0	8.2690	0	32.1800	0	25.021	0	27.562	0	278.7	4	95.7	4	-1E+10	1	-1E+10	1	-1E+10	1	-1E+10	1	-1E+10	1	-1E+10	1
4902551	63	C	05/09/2022	10:57	-131.520	49.327	0	28.70	0	8.2720	0	32.1810	0	25.022	0	28.454	0	278.6	4	95.7	4	-1E+10	1	-1E+10	1	-1E+10	1	-1E+10	1	-1E+10	1	-1E+10	1
4902551	63	C	05/09/2022	10:57	-131.520	49.327	0	29.90	0	8.2680	0	32.1820	0	25.023	0	29.643	0	278.6	4	95.7	4	-1E+10	1	-1E+10	1	-1E+10	1	-1E+10	1	-1E+10	1	-1E+10	1
4902551	63	C	05/09/2022	10:57	-131.520	49.327	0	31.20	0	8.2650	0	32.1760	0	25.019	0	30.932	0	278.6	4	95.7	4	-1E+10	1	-1E+10	1	-1E+10	1	-1E+10	1	-1E+10	1	-1E+10	1
4902551	63	C	05/09/2022	10:57	-131.520	49.327	0	32.20	0	8.2690	0	32.1820	0	25.023	0	31.923	0	278.4	4	95.7	4	-1E+10	1	-1E+10	1	-1E+10	1	-1E+10	1	-1E+10	1	-1E+10	1
4902551	63	C	05/09/2022	10:57	-131.520	49.327	0	32.90	0	8.2540	0	32.1840	0	25.027	0	32.617	0	278.5	4	95.7	4	-1E+10	1	-1E+10	1	-1E+10	1	-1E+10	1	-1E+10	1	-1E+10	1
4902551	63	C	05/09/2022	10:57	-131.520	49.327	0	33.90	0	8.2220	0	32.1820	0	25.030	0	33.609	0	278.6	4	95.6	4	-1E+10	1	-1E+10	1	-1E+10	1	-1E+10	1	-1E+10	1	-1E+10	1
4902551	63	C	05/09/2022	10:57	-131.520	49.327	0	35.10	0	8.2150	0	32.1810	0	25.030	0	34.798	0	278.5	4	95.5	4	-1E+10	1	-1E+10	1	-1E+10	1	-1E+10	1	-1E+10	1	-1E+10	1
4902551	63	C	05/09/2022	10:57	-131.520	49.327	0	36.00	0	8.2110	0	32.1850	0	25.034	0	35.690	0	278.5	4	95.5	4	-1E+10	1	-1E+10	1	-1E+10	1	-1E+10	1	-1E+10	1	-1E+10	1
4902551	63	C	05/09/2022	10:57	-131.520	49.327	0	36.70	0	8.2050	0	32.1820	0	25.032	0	36.384	0	278.3	4	95.5	4	-1E+10	1	-1E+10	1	-1E+10	1	-1E+10	1	-1E+10	1	-1E+10	1
4902551	63	C	05/09/2022	10:57	-131.520	49.327	0	38.10	0	8.1930	0	32.1830	0	25.035	0	37.772	0	278.1	4	95.4	4	-1E+10	1	-1E+10	1	-1E+10	1	-1E+10	1	-1E+10	1	-1E+10	1
4902551	63	C	05/09/2022	10:57	-131.520	49.327	0	39.00	0	8.1850	0	32.1830	0	25.036	0	38.664	0	278.0	4	95.3	4	-1E+10	1	-1E+10	1	-1E+10	1	-1E+10	1	-1E+10	1	-1E+10	1
4902551	63	C	05/09/2022	10:57	-131.520	49.327	0	40.20	0	8.1830	0	32.1800	0	25.034	0	39.854	0	277.8	4	95.3	4	-1E+10	1	-1E+10	1	-1E+10	1	-1E+10	1	-1E+10	1	-1E+10	1
4902551	63	C	05/09/2022	10:57	-131.520	49.327	0	41.10	0	8.1680	0	32.1810	0	25.037	0	40.746	0	277.7	4	95.2	4	-1E+10	1	-1E+10	1	-1E+10	1	-1E+10	1	-1E+10	1	-1E+10	1
4902551	63	C	05/09/2022	10:57	-131.520	49.327	0	41.80	0	8.1520	0	32.1850	0	25.043	0	41.440	0	277.5	4	95.1	4	-1E+10	1	-1E+10	1	-1E+10	1	-1E+10	1	-1E+10	1	-1E+10	1
4902551	63	C	05/09/2022	10:57	-131.520	49.327	0	42.70	0	8.1410	0	32.1840	0	25.043	0	42.332	0	277.3	4	95.0	4	-1E+10	1	-1E+10	1	-1E+10	1	-1E+10	1	-1E+10	1	-1E+10	1
4902551	63	C	05/09/2022	10:57	-131.520	49.327	0	44.10	0	8.1280	0	32.1860	0	25.047	0	43.720	0	276.7	4	94.8	4	-1E+10	1	-1E+10	1	-1E+10	1	-1E+10	1	-1E+10	1	-1E+10	1
4902551	63	C	05/09/2022	10:57	-131.520	49.327	0	45.30	0	8.1140	0	32.1870	0	25.050	0	44.909	0	276.4	4	94.6	4	-1E+10	1	-1E+10	1	-1E+10	1	-1E+10	1	-1E+10	1	-1E+10	1
4902551	63	C	05/09/2022	10:57	-131.520	49.327	0	46.00	0	8.1040	0	32.1900	0	25.054	0	45.603	0	276.2	4	94.5	4	-1E+10	1	-1E+10	1	-1E+10	1	-1E+10	1	-1E+10	1	-1E+10	1
4902551	63	C	05/09/2022	10:57	-131.520	49.327	0	47.20	0	8.0560	0	32.2000	0	25.068	0	46.793	0	275.8	4	94.3	4	-1E+10	1	-1E+10	1	-1E+10	1	-1E+10	1	-1E+10	1	-1E+10	1
4902551	63	C	05/09/2022	10:57	-131.520	49.327	0	47.90	0	8.0330	0	32.2000	0	25.072	0	47.487	0	275.5	4	94.2	4	-1E+10	1	-1E+10	1	-1E+10	1	-1E+10	1	-1E+10	1	-1E+10	1
4902551	63	C	05/09/2022	10:57	-131.520	49.327	0	48.90	0	7.9910	0	32.2080	0	25.084	0	48.478	0	275.0	4	93.9	4	-1E+10	1	-1E+10	1	-1E+10	1	-1E+10	1	-1E+10	1	-1E+10	1
4902551	63	C	05/09/2022	10:57	-131.520	49.327	0	50.10	0	7.9630	0	32.2140	0	25.093	0	49.668	0	273.8	4	93.4	4	-1E+10	1	-1E+10	1	-1E+10	1	-1E+10	1	-1E+10	1	-1E+10	1
4902551	63	C	05/09/2022	10:57	-131.520	49.327	0	51.10	0	7.8760	0	32.2390	0	25.125	0	50.659	0	272.4	4	92.8	4	-1E+10	1	-1E+10	1	-1E+10	1	-1E+10	1	-1E+10	1	-1E+10	1
4902551	63	C	05/09/2022	10:57	-131.520	49.327	0	52.00	0	7.8630	0	32.2400	0	25.127	0	51.551	0	270.2	4	92.0	4	-1E+10	1	-1E+10	1	-1E+10	1	-1E+10	1	-1E+10	1	-1E+10	1
4902551	63	C	05/09/2022	10:57	-131.520	49.327	0	53.10	0	7.8120	0	32.2510	0	25.143	0	52.641	0	265.1	4	90.2	4	-1E+10	1	-1E+10	1	-1E+10	1	-1E+10	1	-1E+10	1	-1E+10	1
4902551	63	C	05/09/2022	10:57	-131.520	49.327	0	54.00	0	7.7710	0	32.2560	0	25.153	0	53.533	0	259.7	4	88.3	4	-1E+10	1	-1E+10	1	-1E+10	1	-1E+10	1	-1E+10	1	-1E+10	1
4902551	63	C	05/09/2022	10:57	-131.520	49.327	0	54.90	0	7.6180	0	32.2740	0	25.189	0	54.425	0	255.9	4	86.7	4	-1E+10	1	-1E+10	1	-1E+10	1	-1E+10	1	-1E+10	1	-1E+10	1
4902551	63	C	05/09/2022	10:57	-131.520	49.327	0	55.90	0	7.3890	0	32.3370	0	25.270	0	55.417	0	253.5	4	85.5	4	-1E+10	1	-1E+10	1	-1E+10	1	-1E+10	1	-1E+10	1	-1E+10	1
4902551	63	C	05/09/2022	10:57	-131.520	49.327	0	57.10	0	7.2970	0	32.3770	0	25.314	0	56.606	0	250.7	4	84.4	4	-1E+10	1	-1E+10	1	-1E+10	1	-1E+10	1	-1E+10	1	-1E+10	1
4902551	63	C	05/09/2022	10:57	-131.520	49.327	0	58.10	0	7.2930	0	32.3880	0	25.323	0	57.597	0	248.0	4	83.5	4	-1E+10	1	-1E+10	1	-1E+10	1	-1E+10	1	-1E+10	1	-1E+10	1
4902551	63	C	05/09/2022	10:57	-131.520	49.327	0	59.20	0	7.2890	0	32.4010	0	25.334	0	58.688	0	245.1	4	82.5	4	-1E+10	1	-1E+10	1	-1E+10	1	-1E+10	1	-1E+10	1	-1E+10	1
4902551	63	C	05/09/2022	10:57	-131.520	49.327	0	59.90	0	7.2350	0	32.4320	0	25.366	0	59.382	0	243.8	4	82.0	4	-1E+10	1	-1E+10	1	-1E+10	1	-1E+10	1	-1E+10	1	-1E+10	1
4902551	63	C	05/09/2022	10:57	-131.520	49.327	0	60.90	0	7.1960	0	32.4630	0	25.395	0	60.373	0	242.1	4	81.3	4	-1E+10	1	-1E+10	1	-1E+10	1	-1E+10	1	-1E+10	1	-1E+10	1
4902551	63	C	05/09/2022	10:57	-131.520	49.327	0	62.10	0	7.1800	0	32.4760	0	25.408	0	61.562	0	239.2	4	80.3	4	-1E+10	1	-1E+10	1	-1E+10	1	-1E+10	1	-1E+10	1	-1E+10	1
4902551	63	C	05/09/2022	10:57	-131.520	49.327	0	62.90	0	7.1660	0	32.4850	0	25.417	0	62.355	0	237.3	4	79.7	4	-1E+10	1	-1E+10	1	-1E+10	1	-1E+10	1	-1E+10	1	-1E+10	1
4902551	63	C	05/09/2022	10:57	-131.520	49.327	0	63.90	0	7.1400	0	32.5060	0	25.437	0	63.346	0	234.9	4	78.8	4	-1E+10	1	-1E+10	1	-1E+10	1	-1E+10	1	-1E+10	1	-1E+10	1
4902551	63	C	05/09/2022	10:57	-131.520	49.327	0	65.00	0	7.0740	0	32.5500	0	25.480	0	64.437	0	232.2	4	77.9	4	-1E+10	1	-1E+10	1	-1E+10	1	-1E+10	1	-1E+10	1	-1E+10	1
4902551	63	C	05/09/2022	10:57	-131.520	49.327	0	66.20	0	7.0640	0	32.5750	0	25.501	0	65.626	0	229.1	4	76.8	4	-1E+10	1	-1E+10	1	-1E+10	1	-1E+10	1	-1E+10	1	-1E+10	1
4902551	63	C	05/09/2022	10:57	-131.520	49.327	0	67.00	0	7.0550	0	32.5940	0	25.518	0	66.419	0	226.2	4	75.8	4	-1E+10	1	-1E+10	1	-1E+10	1	-1E+10	1	-1E+10	1	-1E+10	1
4902551	63	C	05/09/2022	10:57	-131.520	49.327	0	67.90	0	7.0500	0	32.6020	0	25.525	0	67.311	0	222.9	4	74.7	4	-1E+10	1	-1E+10	1	-1E+10	1	-1E+10	1	-1E+10	1	-1E+10	1
4902551	63	C	05/09/2022	10:57	-131.520	49.327	0	68.90	0	7.0490	0	32.6210	0	25.540	0	68.302	0	219.2	4	73.5	4	-1E+10	1	-1E+10	1	-1E+10	1	-1E+10	1	-1E+10	1	-1E+10	1
4902551	63	C	05/09/2022	10:57	-131.520	49.327	0	69.80	0	7.0240	0	32.6440	0	25.561	0	69.194	0	215.8	4	72.3	4	-1E+10	1	-1E+10	1	-1E+10	1	-1E+10	1	-1E+10	1	-1E+10	1
4902551	63	C	05/09/2022	10:57	-131.520	49.327	0	70.80	0	7.0370	0	32.6980	0	25.602	0	70.185	0	212.4	4	71.2	4	-1E+10	1	-1E+10	1	-1E+10	1	-1E+10	1	-1E+10	1	-1E+10	1
4902551	63	C	05/09/2022	10:57	-131.520	49.327	0	71.90	0	7.0400	0	32.7320	0	25.628	0	71.276	0	209.2	4	70.2	4	-1E+10	1	-1E+10	1	-1E+10	1	-1E+10	1	-1E+10	1	-1E+10	1
4902551	63	C	05/09/2022	10:57	-131.520	49.327	0	73.20	0	7.0430	0	32.7590	0	25.649	0	72.564	0	205.8	4	69.0	4	-1E+10	1	-1E+10	1	-1E+10	1	-1E+10	1	-1E+10	1	-1E+10	1
4902551	63	C	05/09/2022	10:57	-131.520	49.327	0	74.00	0	7.0450	0	32.7770	0	25.663	0	73.357	0	203.1	4	68.2	4	-1E+10	1	-1E+10	1	-1E+10	1	-1E+10	1	-1E+10	1	-1E+10	1
4902551	63	C	05/09/2022	10:57	-131.520	49.327	0	75.30	0	7.0410	0	32.8100	0	25.690	0	74.645	0	198.7	4	66.7	4	-1E+10	1	-1E+10	1	-1E+10	1	-1E+10	1	-1E+10	1	-1E+10	1
4902551	63	C	05/09/2022	10:57	-131.520	49.327	0	75.90	0	7.0340	0	32.8290	0	25.705	0	75.240	0	196.2	4	65.8	4	-1E+10	1	-1E+10	1	-1E+10	1	-1E+10	1	-1E+10	1	-1E+10	1
4902551	63	C	05/09/2022	10:57	-131.520	49.327	0	76.90	0	7.0210	0	32.8810	0	25.748	0	76.231	0	193.1	4	64.8	4	-1E+10	1	-1E+10	1	-1E+10	1	-1E+10	1	-1E+10	1	-1E+10	1
4902551	63	C	05/09/2022	10:57	-131.520	49.327	0	77.90	0	7.0050	0	32.9270	0	25.787	0	77.222	0	190.2	4	63.8	4	-1E+10	1	-1E+10	1	-1E+10	1	-1E+10	1	-1E+10	1	-1E+10	1
4902551	63	C	05/09/2022	10:57	-131.520	49.327	0	79.10	0	6.9880	0	32.9710	0	25.823	0	78.412	0	187.6	4	63.0	4	-1E+10	1	-1E+10	1	-1E+10	1	-1E+10	1	-1E+10	1	-1E+10	1
4902551	63	C	05/09/2022	10:57	-131.520	49.327	0	80.00	0	6.9740	0	33.0280	0	25.870	0	79.304	0	186.2	4	62.5	4	-1E+10	1	-1E+10	1	-1E+10	1	-1E+10	1	-1E+10	1	-1E+10	1
4902551	63	C	05/09/2022	10:57	-131.520	49.327	0	80.90	0	6.9810	0	33.0340	0	25.874	0	80.196	0	184.9	4	62.1	4	-1E+10	1	-1E+10	1	-1E+10	1	-1E+10	1	-1E+10	1	-1E+10	1
4902551	63	C	05/09/2022	10:57	-131.520	49.327	0	81.90	0	6.9850	0	33.0450	0	25.882	0	81.187	0	183.4	4	61.6	4	-1E+10	1	-1E+10	1	-1E+10	1	-1E+10	1	-1E+10	1	-1E+10	1
4902551	63	C	05/09/2022	10:57	-131.520	49.327	0	82.80	0	6.9680	0	33.0560	0	25.893	0	82.079	0	186.6	4	62.6	4	-1E+10	1	-1E+10	1	-1E+10	1	-1E+10	1	-1E+10	1	-1E+10	1
4902551	63	C	05/09/2022	10:57	-131.520	49.327	0	84.10	0	6.9330	0	33.0690	0	25.908	0	83.367	0	184.2	4	61.8	4	-1E+10	1	-1E+10	1	-1E+10	1	-1E+10	1	-1E+10	1	-1E+10	1
4902551	63	C	05/09/2022	10:57	-131.520	49.327	0	85.10	0	6.9120	0	33.0740	0	25.915	0	84.358	0	182.1	4	61.1	4	-1E+10	1	-1E+10	1	-1E+10	1	-1E+10	1	-1E+10	1	-1E+10	1
4902551	63	C	05/09/2022	10:57	-131.520	49.327	0	86.00	0	6.9100	0	33.0930	0	25.930	0	85.250	0	179.9	4	60.3	4	-1E+10	1	-1E+10	1	-1E+10	1	-1E+10	1	-1E+10	1	-1E+10	1
4902551	63	C	05/09/2022	10:57	-131.520	49.327	0	87.20	0	6.9260	0	33.1210	0	25.950	0	86.439	0	177.7	4	59.6	4	-1E+10	1	-1E+10	1	-1E+10	1	-1E+10	1	-1E+10	1	-1E+10	1
4902551	63	C	05/09/2022	10:57	-131.520	49.327	0	87.90	0	6.9260	0	33.1250	0	25.953	0	87.133	0	176.1	4	59.1	4	-1E+10	1	-1E+10	1	-1E+10	1	-1E+10	1	-1E+10	1	-1E+10	1
4902551	63	C	05/09/2022	10:57	-131.520	49.327	0	88.70	0	6.9320	0	33.1330	0	25.959	0	87.926	0	174.4	4	58.5	4	-1E+10	1	-1E+10	1	-1E+10	1	-1E+10	1	-1E+10	1	-1E+10	1
4902551	63	C	05/09/2022	10:57	-131.520	49.327	0	89.80	0	6.9120	0	33.1490	0	25.974	0	89.016	0	171.7	4	57.6	4	-1E+10	1	-1E+10	1	-1E+10	1	-1E+10	1	-1E+10	1	-1E+10	1
4902551	63	C	05/09/2022	10:57	-131.520	49.327	0	90.90	0	6.8970	0	33.1600	0	25.985	0	90.106	0	168.5	4	56.5	4	-1E+10	1	-1E+10	1	-1E+10	1	-1E+10	1	-1E+10	1	-1E+10	1
4902551	63	C	05/09/2022	10:57	-131.520	49.327	0	92.00	0	6.8630	0	33.1750	0	26.001	0	91.197	0	164.6	4	55.2	4	-1E+10	1	-1E+10	1	-1E+10	1	-1E+10	1	-1E+10	1	-1E+10	1
4902551	63	C	05/09/2022	10:57	-131.520	49.327	0	93.10	0	6.8540	0	33.2000	0	26.022	0	92.287	0	159.8	4	53.6	4	-1E+10	1	-1E+10	1	-1E+10	1	-1E+10	1	-1E+10	1	-1E+10	1
4902551	63	C	05/09/2022	10:57	-131.520	49.327	0	93.90	0	6.8650	0	33.2180	0	26.035	0	93.080	0	156.1	4	52.3	4	-1E+10	1	-1E+10	1	-1E+10	1	-1E+10	1	-1E+10	1	-1E+10	1
4902551	63	C	05/09/2022	10:57	-131.520	49.327	0	95.00	0	6.9170	0	33.2460	0	26.050	0	94.170	0	150.2	4	50.4	4	-1E+10	1	-1E+10	1	-1E+10	1	-1E+10	1	-1E+10	1	-1E+10	1
4902551	63	C	05/09/2022	10:57	-131.520	49.327	0	96.20	0	6.9910	0	33.2760	0	26.063	0	95.359	0	144.3	4	48.5	4	-1E+10	1	-1E+10	1	-1E+10	1	-1E+10	1	-1E+10	1	-1E+10	1
4902551	63	C	05/09/2022	10:57	-131.520	49.327	0	97.00	0	7.0470	0	33.3010	0	26.076	0	96.152	0	140.5	4	47.3	4	-1E+10	1	-1E+10	1	-1E+10	1	-1E+10	1	-1E+10	1	-1E+10	1
4902551	63	C	05/09/2022	10:57	-131.520	49.327	0	97.80	0	7.1040	0	33.3280	0	26.089	0	96.945	0	136.9	4	46.2	4	-1E+10	1	-1E+10	1	-1E+10	1	-1E+10	1	-1E+10	1	-1E+10	1
4902551	63	C	05/09/2022	10:57	-131.520	49.327	0	99.00	0	7.1650	0	33.3530	0	26.100	0	98.134	0	131.4	4	44.4	4	-1E+10	1	-1E+10	1	-1E+10	1	-1E+10	1	-1E+10	1	-1E+10	1
4902551	63	C	05/09/2022	10:57	-131.520	49.327	0	100.20	0	7.2400	0	33.3880	0	26.118	0	99.323	0	126.0	4	42.7	4	-1E+10	1	-1E+10	1	-1E+10	1	-1E+10	1	-1E+10	1	-1E+10	1
4902551	63	C	05/09/2022	10:57	-131.520	49.327	0	100.90	0	7.2750	0	33.4000	0	26.122	0	100.017	0	122.4	4	41.5	4	-1E+10	1	-1E+10	1	-1E+10	1	-1E+10	1	-1E+10	1	-1E+10	1
4902551	63	C	05/09/2022	10:57	-131.520	49.327	0	101.70	0	7.3580	0	33.4280	0	26.133	0	100.809	0	118.8	4	40.3	4	-1E+10	1	-1E+10	1	-1E+10	1	-1E+10	1	-1E+10	1	-1E+10	1
4902551	63	C	05/09/2022	10:57	-131.520	49.327	0	102.90	0	7.4200	0	33.4880	0	26.171	0	101.999	0	113.3	4	38.6	4	-1E+10	1	-1E+10	1	-1E+10	1	-1E+10	1	-1E+10	1	-1E+10	1
4902551	63	C	05/09/2022	10:57	-131.520	49.327	0	104.00	0	7.4300	0	33.5030	0	26.182	0	103.089	0	107.9	4	36.7	4	-1E+10	1	-1E+10	1	-1E+10	1	-1E+10	1	-1E+10	1	-1E+10	1
4902551	63	C	05/09/2022	10:57	-131.520	49.327	0	104.80	0	7.3940	0	33.5280	0	26.206	0	103.882	0	103.6	4	35.2	4	-1E+10	1	-1E+10	1	-1E+10	1	-1E+10	1	-1E+10	1	-1E+10	1
4902551	63	C	05/09/2022	10:57	-131.520	49.327	0	106.00	0	7.4550	0	33.5510	0	26.216	0	105.071	0	96.8	4	33.0	4	-1E+10	1	-1E+10	1	-1E+10	1	-1E+10	1	-1E+10	1	-1E+10	1
4902551	63	C	05/09/2022	10:57	-131.520	49.327	0	107.30	0	7.5390	0	33.6020	0	26.244	0	106.359	0	91.8	4	31.3	4	-1E+10	1	-1E+10	1	-1E+10	1	-1E+10	1	-1E+10	1	-1E+10	1
4902551	63	C	05/09/2022	10:57	-131.520	49.327	0	108.10	0	7.5760	0	33.6220	0	26.255	0	107.152	0	89.4	4	30.6	4	-1E+10	1	-1E+10	1	-1E+10	1	-1E+10	1	-1E+10	1	-1E+10	1
4902551	63	C	05/09/2022	10:57	-131.520	49.327	0	108.90	0	7.6060	0	33.6390	0	26.264	0	107.945	0	87.8	4	30.1	4	-1E+10	1	-1E+10	1	-1E+10	1	-1E+10	1	-1E+10	1	-1E+10	1
4902551	63	C	05/09/2022	10:57	-131.520	49.327	0	109.80	0	7.6210	0	33.6600	0	26.278	0	108.836	0	87.0	4	29.8	4	-1E+10	1	-1E+10	1	-1E+10	1	-1E+10	1	-1E+10	1	-1E+10	1
4902551	63	C	05/09/2022	10:57	-131.520	49.327	0	110.70	0	7.6280	0	33.6740	0	26.288	0	109.728	0	86.7	4	29.7	4	-1E+10	1	-1E+10	1	-1E+10	1	-1E+10	1	-1E+10	1	-1E+10	1
4902551	63	C	05/09/2022	10:57	-131.520	49.327	0	111.60	0	7.6290	0	33.6840	0	26.296	0	110.620	0	86.6	4	29.7	4	-1E+10	1	-1E+10	1	-1E+10	1	-1E+10	1	-1E+10	1	-1E+10	1
4902551	63	C	05/09/2022	10:57	-131.520	49.327	0	112.90	0	7.6230	0	33.6900	0	26.302	0	111.908	0	86.5	4	29.6	4	-1E+10	1	-1E+10	1	-1E+10	1	-1E+10	1	-1E+10	1	-1E+10	1
4902551	63	C	05/09/2022	10:57	-131.520	49.327	0	114.30	0	7.6190	0	33.6950	0	26.306	0	113.296	0	86.3	4	29.5	4	-1E+10	1	-1E+10	1	-1E+10	1	-1E+10	1	-1E+10	1	-1E+10	1
4902551	63	C	05/09/2022	10:57	-131.520	49.327	0	115.20	0	7.6180	0	33.6960	0	26.307	0	114.188	0	86.1	4	29.5	4	-1E+10	1	-1E+10	1	-1E+10	1	-1E+10	1	-1E+10	1	-1E+10	1
4902551	63	C	05/09/2022	10:57	-131.520	49.327	0	116.10	0	7.6200	0	33.6960	0	26.307	0	115.079	0	86.0	4	29.4	4	-1E+10	1	-1E+10	1	-1E+10	1	-1E+10	1	-1E+10	1	-1E+10	1
4902551	63	C	05/09/2022	10:57	-131.520	49.327	0	117.00	0	7.6210	0	33.6990	0	26.309	0	115.971	0	85.9	4	29.4	4	-1E+10	1	-1E+10	1	-1E+10	1	-1E+10	1	-1E+10	1	-1E+10	1
4902551	63	C	05/09/2022	10:57	-131.520	49.327	0	117.90	0	7.6210	0	33.7000	0	26.310	0	116.863	0	85.9	4	29.4	4	-1E+10	1	-1E+10	1	-1E+10	1	-1E+10	1	-1E+10	1	-1E+10	1
4902551	63	C	05/09/2022	10:57	-131.520	49.327	0	118.80	0	7.6210	0	33.7020	0	26.311	0	117.755	0	86.0	4	29.4	4	-1E+10	1	-1E+10	1	-1E+10	1	-1E+10	1	-1E+10	1	-1E+10	1
4902551	63	C	05/09/2022	10:57	-131.520	49.327	0	119.70	0	7.6200	0	33.7020	0	26.312	0	118.647	0	86.0	4	29.4	4	-1E+10	1	-1E+10	1	-1E+10	1	-1E+10	1	-1E+10	1	-1E+10	1
4902551	63	C	05/09/2022	10:57	-131.520	49.327	0	120.70	0	7.6180	0	33.7040	0	26.313	0	119.638	0	86.0	4	29.4	4	-1E+10	1	-1E+10	1	-1E+10	1	-1E+10	1	-1E+10	1	-1E+10	1
4902551	63	C	05/09/2022	10:57	-131.520	49.327	0	121.60	0	7.6160	0	33.7050	0	26.315	0	120.529	0	86.1	4	29.5	4	-1E+10	1	-1E+10	1	-1E+10	1	-1E+10	1	-1E+10	1	-1E+10	1
4902551	63	C	05/09/2022	10:57	-131.520	49.327	0	122.50	0	7.6120	0	33.7100	0	26.319	0	121.421	0	86.1	4	29.5	4	-1E+10	1	-1E+10	1	-1E+10	1	-1E+10	1	-1E+10	1	-1E+10	1
4902551	63	C	05/09/2022	10:57	-131.520	49.327	0	123.90	0	7.6060	0	33.7200	0	26.328	0	122.808	0	86.2	4	29.5	4	-1E+10	1	-1E+10	1	-1E+10	1	-1E+10	1	-1E+10	1	-1E+10	1
4902551	63	C	05/09/2022	10:57	-131.520	49.327	0	125.40	0	7.6030	0	33.7260	0	26.333	0	124.295	0	86.6	4	29.6	4	-1E+10	1	-1E+10	1	-1E+10	1	-1E+10	1	-1E+10	1	-1E+10	1
4902551	63	C	05/09/2022	10:57	-131.520	49.327	0	126.30	0	7.6010	0	33.7360	0	26.341	0	125.187	0	87.0	4	29.8	4	-1E+10	1	-1E+10	1	-1E+10	1	-1E+10	1	-1E+10	1	-1E+10	1
4902551	63	C	05/09/2022	10:57	-131.520	49.327	0	127.30	0	7.5900	0	33.7530	0	26.356	0	126.178	0	87.7	4	30.0	4	-1E+10	1	-1E+10	1	-1E+10	1	-1E+10	1	-1E+10	1	-1E+10	1
4902551	63	C	05/09/2022	10:57	-131.520	49.327	0	128.20	0	7.5820	0	33.7550	0	26.359	0	127.069	0	88.4	4	30.3	4	-1E+10	1	-1E+10	1	-1E+10	1	-1E+10	1	-1E+10	1	-1E+10	1
4902551	63	C	05/09/2022	10:57	-131.520	49.327	0	129.20	0	7.5690	0	33.7580	0	26.363	0	128.060	0	89.1	4	30.5	4	-1E+10	1	-1E+10	1	-1E+10	1	-1E+10	1	-1E+10	1	-1E+10	1
4902551	63	C	05/09/2022	10:57	-131.520	49.327	0	130.20	0	7.5560	0	33.7600	0	26.366	0	129.051	0	89.6	4	30.7	4	-1E+10	1	-1E+10	1	-1E+10	1	-1E+10	1	-1E+10	1	-1E+10	1
4902551	63	C	05/09/2022	10:57	-131.520	49.327	0	131.10	0	7.5490	0	33.7610	0	26.368	0	129.943	0	90.1	4	30.8	4	-1E+10	1	-1E+10	1	-1E+10	1	-1E+10	1	-1E+10	1	-1E+10	1
4902551	63	C	05/09/2022	10:57	-131.520	49.327	0	132.10	0	7.5460	0	33.7590	0	26.367	0	130.934	0	90.5	4	31.0	4	-1E+10	1	-1E+10	1	-1E+10	1	-1E+10	1	-1E+10	1	-1E+10	1
4902551	63	C	05/09/2022	10:57	-131.520	49.327	0	133.00	0	7.5430	0	33.7590	0	26.368	0	131.825	0	90.9	4	31.1	4	-1E+10	1	-1E+10	1	-1E+10	1	-1E+10	1	-1E+10	1	-1E+10	1
4902551	63	C	05/09/2022	10:57	-131.520	49.327	0	134.00	0	7.5240	0	33.7650	0	26.375	0	132.816	0	91.2	4	31.2	4	-1E+10	1	-1E+10	1	-1E+10	1	-1E+10	1	-1E+10	1	-1E+10	1
4902551	63	C	05/09/2022	10:57	-131.520	49.327	0	134.90	0	7.5110	0	33.7690	0	26.380	0	133.708	0	91.4	4	31.2	4	-1E+10	1	-1E+10	1	-1E+10	1	-1E+10	1	-1E+10	1	-1E+10	1
4902551	63	C	05/09/2022	10:57	-131.520	49.327	0	135.90	0	7.5030	0	33.7710	0	26.383	0	134.699	0	91.5	4	31.3	4	-1E+10	1	-1E+10	1	-1E+10	1	-1E+10	1	-1E+10	1	-1E+10	1
4902551	63	C	05/09/2022	10:57	-131.520	49.327	0	136.90	0	7.4990	0	33.7730	0	26.385	0	135.690	0	91.6	4	31.3	4	-1E+10	1	-1E+10	1	-1E+10	1	-1E+10	1	-1E+10	1	-1E+10	1
4902551	63	C	05/09/2022	10:57	-131.520	49.327	0	137.90	0	7.4990	0	33.7730	0	26.385	0	136.681	0	91.7	4	31.3	4	-1E+10	1	-1E+10	1	-1E+10	1	-1E+10	1	-1E+10	1	-1E+10	1
4902551	63	C	05/09/2022	10:57	-131.520	49.327	0	138.90	0	7.5010	0	33.7750	0	26.386	0	137.671	0	91.9	4	31.4	4	-1E+10	1	-1E+10	1	-1E+10	1	-1E+10	1	-1E+10	1	-1E+10	1
4902551	63	C	05/09/2022	10:57	-131.520	49.327	0	139.80	0	7.5000	0	33.7770	0	26.388	0	138.563	0	92.2	4	31.5	4	-1E+10	1	-1E+10	1	-1E+10	1	-1E+10	1	-1E+10	1	-1E+10	1
4902551	63	C	05/09/2022	10:57	-131.520	49.327	0	140.90	0	7.5000	0	33.7780	0	26.389	0	139.653	0	92.6	4	31.6	4	-1E+10	1	-1E+10	1	-1E+10	1	-1E+10	1	-1E+10	1	-1E+10	1
4902551	63	C	05/09/2022	10:57	-131.520	49.327	0	141.90	0	7.4990	0	33.7780	0	26.389	0	140.644	0	93.1	4	31.8	4	-1E+10	1	-1E+10	1	-1E+10	1	-1E+10	1	-1E+10	1	-1E+10	1
4902551	63	C	05/09/2022	10:57	-131.520	49.327	0	142.90	0	7.4990	0	33.7780	0	26.389	0	141.635	0	93.6	4	32.0	4	-1E+10	1	-1E+10	1	-1E+10	1	-1E+10	1	-1E+10	1	-1E+10	1
4902551	63	C	05/09/2022	10:57	-131.520	49.327	0	143.90	0	7.4970	0	33.7770	0	26.388	0	142.625	0	94.2	4	32.2	4	-1E+10	1	-1E+10	1	-1E+10	1	-1E+10	1	-1E+10	1	-1E+10	1
4902551	63	C	05/09/2022	10:57	-131.520	49.327	0	144.80	0	7.4960	0	33.7770	0	26.389	0	143.517	0	94.8	4	32.4	4	-1E+10	1	-1E+10	1	-1E+10	1	-1E+10	1	-1E+10	1	-1E+10	1
4902551	63	C	05/09/2022	10:57	-131.520	49.327	0	145.80	0	7.4940	0	33.7760	0	26.388	0	144.508	0	95.5	4	32.6	4	-1E+10	1	-1E+10	1	-1E+10	1	-1E+10	1	-1E+10	1	-1E+10	1
4902551	63	C	05/09/2022	10:57	-131.520	49.327	0	146.80	0	7.4780	0	33.7810	0	26.394	0	145.499	0	96.2	4	32.9	4	-1E+10	1	-1E+10	1	-1E+10	1	-1E+10	1	-1E+10	1	-1E+10	1
4902551	63	C	05/09/2022	10:57	-131.520	49.327	0	147.80	0	7.4660	0	33.7850	0	26.399	0	146.489	0	97.0	4	33.1	4	-1E+10	1	-1E+10	1	-1E+10	1	-1E+10	1	-1E+10	1	-1E+10	1
4902551	63	C	05/09/2022	10:57	-131.520	49.327	0	148.80	0	7.4450	0	33.7940	0	26.409	0	147.480	0	97.7	4	33.3	4	-1E+10	1	-1E+10	1	-1E+10	1	-1E+10	1	-1E+10	1	-1E+10	1
4902551	63	C	05/09/2022	10:57	-131.520	49.327	0	149.80	0	7.4000	0	33.8010	0	26.421	0	148.471	0	98.2	4	33.5	4	-1E+10	1	-1E+10	1	-1E+10	1	-1E+10	1	-1E+10	1	-1E+10	1
4902551	63	C	05/09/2022	10:57	-131.520	49.327	0	150.80	0	7.3680	0	33.8000	0	26.425	0	149.462	0	98.4	4	33.5	4	-1E+10	1	-1E+10	1	-1E+10	1	-1E+10	1	-1E+10	1	-1E+10	1
4902551	63	C	05/09/2022	10:57	-131.520	49.327	0	151.90	0	7.3200	0	33.8060	0	26.436	0	150.552	0	98.0	4	33.4	4	-1E+10	1	-1E+10	1	-1E+10	1	-1E+10	1	-1E+10	1	-1E+10	1
4902551	63	C	05/09/2022	10:57	-131.520	49.327	0	152.90	0	7.2910	0	33.8010	0	26.436	0	151.542	0	97.3	4	33.1	4	-1E+10	1	-1E+10	1	-1E+10	1	-1E+10	1	-1E+10	1	-1E+10	1
4902551	63	C	05/09/2022	10:57	-131.520	49.327	0	154.00	0	7.3110	0	33.8170	0	26.446	0	152.632	0	96.7	4	32.9	4	-1E+10	1	-1E+10	1	-1E+10	1	-1E+10	1	-1E+10	1	-1E+10	1
4902551	63	C	05/09/2022	10:57	-131.520	49.327	0	155.00	0	7.3030	0	33.8210	0	26.450	0	153.623	0	96.4	4	32.8	4	-1E+10	1	-1E+10	1	-1E+10	1	-1E+10	1	-1E+10	1	-1E+10	1
4902551	63	C	05/09/2022	10:57	-131.520	49.327	0	156.00	0	7.3010	0	33.8220	0	26.451	0	154.614	0	96.1	4	32.7	4	-1E+10	1	-1E+10	1	-1E+10	1	-1E+10	1	-1E+10	1	-1E+10	1
4902551	63	C	05/09/2022	10:57	-131.520	49.327	0	157.10	0	7.2930	0	33.8290	0	26.458	0	155.704	0	95.9	4	32.6	4	-1E+10	1	-1E+10	1	-1E+10	1	-1E+10	1	-1E+10	1	-1E+10	1
4902551	63	C	05/09/2022	10:57	-131.520	49.327	0	158.20	0	7.2790	0	33.8350	0	26.465	0	156.793	0	95.7	4	32.6	4	-1E+10	1	-1E+10	1	-1E+10	1	-1E+10	1	-1E+10	1	-1E+10	1
4902551	63	C	05/09/2022	10:57	-131.520	49.327	0	159.20	0	7.2750	0	33.8350	0	26.465	0	157.784	0	95.5	4	32.5	4	-1E+10	1	-1E+10	1	-1E+10	1	-1E+10	1	-1E+10	1	-1E+10	1
4902551	63	C	05/09/2022	10:57	-131.520	49.327	0	160.90	0	7.2690	0	33.8360	0	26.467	0	159.468	0	95.1	4	32.3	4	-1E+10	1	-1E+10	1	-1E+10	1	-1E+10	1	-1E+10	1	-1E+10	1
4902551	63	C	05/09/2022	10:57	-131.520	49.327	0	162.40	0	7.2700	0	33.8380	0	26.468	0	160.954	0	94.7	4	32.2	4	-1E+10	1	-1E+10	1	-1E+10	1	-1E+10	1	-1E+10	1	-1E+10	1
4902551	63	C	05/09/2022	10:57	-131.520	49.327	0	163.40	0	7.2720	0	33.8400	0	26.470	0	161.945	0	94.5	4	32.1	4	-1E+10	1	-1E+10	1	-1E+10	1	-1E+10	1	-1E+10	1	-1E+10	1
4902551	63	C	05/09/2022	10:57	-131.520	49.327	0	164.40	0	7.2720	0	33.8420	0	26.471	0	162.936	0	94.3	4	32.1	4	-1E+10	1	-1E+10	1	-1E+10	1	-1E+10	1	-1E+10	1	-1E+10	1
4902551	63	C	05/09/2022	10:57	-131.520	49.327	0	165.40	0	7.2720	0	33.8420	0	26.471	0	163.926	0	94.2	4	32.0	4	-1E+10	1	-1E+10	1	-1E+10	1	-1E+10	1	-1E+10	1	-1E+10	1
4902551	63	C	05/09/2022	10:57	-131.520	49.327	0	166.40	0	7.2620	0	33.8470	0	26.477	0	164.917	0	94.1	4	32.0	4	-1E+10	1	-1E+10	1	-1E+10	1	-1E+10	1	-1E+10	1	-1E+10	1
4902551	63	C	05/09/2022	10:57	-131.520	49.327	0	167.90	0	7.2510	0	33.8490	0	26.480	0	166.403	0	94.0	4	31.9	4	-1E+10	1	-1E+10	1	-1E+10	1	-1E+10	1	-1E+10	1	-1E+10	1
4902551	63	C	05/09/2022	10:57	-131.520	49.327	0	169.20	0	7.2340	0	33.8530	0	26.485	0	167.691	0	94.0	4	31.9	4	-1E+10	1	-1E+10	1	-1E+10	1	-1E+10	1	-1E+10	1	-1E+10	1
4902551	63	C	05/09/2022	10:57	-131.520	49.327	0	170.00	0	7.2310	0	33.8580	0	26.490	0	168.484	0	94.1	4	32.0	4	-1E+10	1	-1E+10	1	-1E+10	1	-1E+10	1	-1E+10	1	-1E+10	1
4902551	63	C	05/09/2022	10:57	-131.520	49.327	0	170.80	0	7.2220	0	33.8630	0	26.495	0	169.276	0	94.3	4	32.0	4	-1E+10	1	-1E+10	1	-1E+10	1	-1E+10	1	-1E+10	1	-1E+10	1
4902551	63	C	05/09/2022	10:57	-131.520	49.327	0	172.00	0	7.1900	0	33.8630	0	26.499	0	170.465	0	94.5	4	32.1	4	-1E+10	1	-1E+10	1	-1E+10	1	-1E+10	1	-1E+10	1	-1E+10	1
4902551	63	C	05/09/2022	10:57	-131.520	49.327	0	173.20	0	7.1720	0	33.8660	0	26.504	0	171.654	0	94.6	4	32.1	4	-1E+10	1	-1E+10	1	-1E+10	1	-1E+10	1	-1E+10	1	-1E+10	1
4902551	63	C	05/09/2022	10:57	-131.520	49.327	0	174.00	0	7.1620	0	33.8670	0	26.506	0	172.446	0	94.7	4	32.1	4	-1E+10	1	-1E+10	1	-1E+10	1	-1E+10	1	-1E+10	1	-1E+10	1
4902551	63	C	05/09/2022	10:57	-131.520	49.327	0	174.80	0	7.1520	0	33.8670	0	26.508	0	173.239	0	94.7	4	32.1	4	-1E+10	1	-1E+10	1	-1E+10	1	-1E+10	1	-1E+10	1	-1E+10	1
4902551	63	C	05/09/2022	10:57	-131.520	49.327	0	176.00	0	7.1350	0	33.8710	0	26.513	0	174.428	0	94.9	4	32.2	4	-1E+10	1	-1E+10	1	-1E+10	1	-1E+10	1	-1E+10	1	-1E+10	1
4902551	63	C	05/09/2022	10:57	-131.520	49.327	0	177.20	0	7.1160	0	33.8710	0	26.516	0	175.616	0	95.0	4	32.2	4	-1E+10	1	-1E+10	1	-1E+10	1	-1E+10	1	-1E+10	1	-1E+10	1
4902551	63	C	05/09/2022	10:57	-131.520	49.327	0	178.00	0	7.0980	0	33.8740	0	26.521	0	176.409	0	95.1	4	32.2	4	-1E+10	1	-1E+10	1	-1E+10	1	-1E+10	1	-1E+10	1	-1E+10	1
4902551	63	C	05/09/2022	10:57	-131.520	49.327	0	178.80	0	7.0910	0	33.8740	0	26.522	0	177.201	0	95.1	4	32.2	4	-1E+10	1	-1E+10	1	-1E+10	1	-1E+10	1	-1E+10	1	-1E+10	1
4902551	63	C	05/09/2022	10:57	-131.520	49.327	0	180.00	0	7.0880	0	33.8760	0	26.524	0	178.390	0	95.3	4	32.3	4	-1E+10	1	-1E+10	1	-1E+10	1	-1E+10	1	-1E+10	1	-1E+10	1
4902551	63	C	05/09/2022	10:57	-131.520	49.327	0	181.20	0	7.0780	0	33.8810	0	26.529	0	179.579	0	95.9	4	32.5	4	-1E+10	1	-1E+10	1	-1E+10	1	-1E+10	1	-1E+10	1	-1E+10	1
4902551	63	C	05/09/2022	10:57	-131.520	49.327	0	182.00	0	7.0680	0	33.8840	0	26.533	0	180.371	0	96.6	4	32.7	4	-1E+10	1	-1E+10	1	-1E+10	1	-1E+10	1	-1E+10	1	-1E+10	1
4902551	63	C	05/09/2022	10:57	-131.520	49.327	0	182.80	0	7.0600	0	33.8850	0	26.535	0	181.164	0	97.3	4	32.9	4	-1E+10	1	-1E+10	1	-1E+10	1	-1E+10	1	-1E+10	1	-1E+10	1
4902551	63	C	05/09/2022	10:57	-131.520	49.327	0	184.00	0	7.0440	0	33.8850	0	26.537	0	182.353	0	98.8	4	33.4	4	-1E+10	1	-1E+10	1	-1E+10	1	-1E+10	1	-1E+10	1	-1E+10	1
4902551	63	C	05/09/2022	10:57	-131.520	49.327	0	185.20	0	7.0110	0	33.8820	0	26.539	0	183.541	0	100.3	4	33.9	4	-1E+10	1	-1E+10	1	-1E+10	1	-1E+10	1	-1E+10	1	-1E+10	1
4902551	63	C	05/09/2022	10:57	-131.520	49.327	0	186.00	0	6.9780	0	33.8840	0	26.545	0	184.334	0	101.2	4	34.2	4	-1E+10	1	-1E+10	1	-1E+10	1	-1E+10	1	-1E+10	1	-1E+10	1
4902551	63	C	05/09/2022	10:57	-131.520	49.327	0	186.80	0	6.9480	0	33.8840	0	26.549	0	185.126	0	101.9	4	34.4	4	-1E+10	1	-1E+10	1	-1E+10	1	-1E+10	1	-1E+10	1	-1E+10	1
4902551	63	C	05/09/2022	10:57	-131.520	49.327	0	187.60	0	6.9270	0	33.8860	0	26.554	0	185.919	0	102.7	4	34.7	4	-1E+10	1	-1E+10	1	-1E+10	1	-1E+10	1	-1E+10	1	-1E+10	1
4902551	63	C	05/09/2022	10:57	-131.520	49.327	0	188.80	0	6.9150	0	33.8860	0	26.555	0	187.107	0	104.2	4	35.1	4	-1E+10	1	-1E+10	1	-1E+10	1	-1E+10	1	-1E+10	1	-1E+10	1
4902551	63	C	05/09/2022	10:57	-131.520	49.327	0	190.10	0	6.8980	0	33.8860	0	26.558	0	188.395	0	105.8	4	35.7	4	-1E+10	1	-1E+10	1	-1E+10	1	-1E+10	1	-1E+10	1	-1E+10	1
4902551	63	C	05/09/2022	10:57	-131.520	49.327	0	190.80	0	6.8860	0	33.8830	0	26.557	0	189.089	0	106.9	4	36.0	4	-1E+10	1	-1E+10	1	-1E+10	1	-1E+10	1	-1E+10	1	-1E+10	1
4902551	63	C	05/09/2022	10:57	-131.520	49.327	0	192.00	0	6.8620	0	33.8850	0	26.562	0	190.277	0	108.8	4	36.7	4	-1E+10	1	-1E+10	1	-1E+10	1	-1E+10	1	-1E+10	1	-1E+10	1
4902551	63	C	05/09/2022	10:57	-131.520	49.327	0	193.20	0	6.7920	0	33.8730	0	26.562	0	191.466	0	110.4	4	37.1	4	-1E+10	1	-1E+10	1	-1E+10	1	-1E+10	1	-1E+10	1	-1E+10	1
4902551	63	C	05/09/2022	10:57	-131.520	49.327	0	194.10	0	6.7610	0	33.8740	0	26.567	0	192.357	0	111.3	4	37.4	4	-1E+10	1	-1E+10	1	-1E+10	1	-1E+10	1	-1E+10	1	-1E+10	1
4902551	63	C	05/09/2022	10:57	-131.520	49.327	0	194.90	0	6.7040	0	33.8750	0	26.575	0	193.150	0	111.9	4	37.6	4	-1E+10	1	-1E+10	1	-1E+10	1	-1E+10	1	-1E+10	1	-1E+10	1
4902551	63	C	05/09/2022	10:57	-131.520	49.327	0	195.70	0	6.6370	0	33.8660	0	26.577	0	193.942	0	112.1	4	37.6	4	-1E+10	1	-1E+10	1	-1E+10	1	-1E+10	1	-1E+10	1	-1E+10	1
4902551	63	C	05/09/2022	10:57	-131.520	49.327	0	197.00	0	6.5900	0	33.8590	0	26.578	0	195.230	0	111.9	4	37.5	4	-1E+10	1	-1E+10	1	-1E+10	1	-1E+10	1	-1E+10	1	-1E+10	1
4902551	63	C	05/09/2022	10:57	-131.520	49.327	0	198.30	0	6.5710	0	33.8560	0	26.578	0	196.518	0	111.4	4	37.3	4	-1E+10	1	-1E+10	1	-1E+10	1	-1E+10	1	-1E+10	1	-1E+10	1
4902551	63	C	05/09/2022	10:57	-131.520	49.327	0	199.10	0	6.5700	0	33.8570	0	26.579	0	197.310	0	111.0	4	37.1	4	-1E+10	1	-1E+10	1	-1E+10	1	-1E+10	1	-1E+10	1	-1E+10	1
4902551	63	C	05/09/2022	10:57	-131.520	49.327	0	200.00	0	6.5540	0	33.8560	0	26.580	0	198.202	0	110.5	4	37.0	4	-1E+10	1	-1E+10	1	-1E+10	1	-1E+10	1	-1E+10	1	-1E+10	1
4902551	63	C	05/09/2022	10:57	-131.520	49.327	0	200.80	0	6.5500	0	33.8550	0	26.580	0	198.994	0	109.9	4	36.8	4	-1E+10	1	-1E+10	1	-1E+10	1	-1E+10	1	-1E+10	1	-1E+10	1
4902551	63	C	05/09/2022	10:57	-131.520	49.327	0	201.60	0	6.5500	0	33.8560	0	26.581	0	199.786	0	109.2	4	36.5	4	-1E+10	1	-1E+10	1	-1E+10	1	-1E+10	1	-1E+10	1	-1E+10	1
4902551	63	C	05/09/2022	10:57	-131.520	49.327	0	202.90	0	6.5560	0	33.8590	0	26.582	0	201.074	0	108.5	4	36.3	4	-1E+10	1	-1E+10	1	-1E+10	1	-1E+10	1	-1E+10	1	-1E+10	1
4902551	63	C	05/09/2022	10:57	-131.520	49.327	0	204.20	0	6.5680	0	33.8660	0	26.586	0	202.362	0	107.9	4	36.1	4	-1E+10	1	-1E+10	1	-1E+10	1	-1E+10	1	-1E+10	1	-1E+10	1
4902551	63	C	05/09/2022	10:57	-131.520	49.327	0	205.00	0	6.5430	0	33.8690	0	26.592	0	203.154	0	107.7	4	36.0	4	-1E+10	1	-1E+10	1	-1E+10	1	-1E+10	1	-1E+10	1	-1E+10	1
4902551	63	C	05/09/2022	10:57	-131.520	49.327	0	205.80	0	6.5400	0	33.8670	0	26.591	0	203.947	0	107.3	4	35.9	4	-1E+10	1	-1E+10	1	-1E+10	1	-1E+10	1	-1E+10	1	-1E+10	1
4902551	63	C	05/09/2022	10:57	-131.520	49.327	0	206.70	0	6.5370	0	33.8650	0	26.589	0	204.838	0	106.8	4	35.7	4	-1E+10	1	-1E+10	1	-1E+10	1	-1E+10	1	-1E+10	1	-1E+10	1
4902551	63	C	05/09/2022	10:57	-131.520	49.327	0	207.90	0	6.4970	0	33.8670	0	26.596	0	206.027	0	106.0	4	35.4	4	-1E+10	1	-1E+10	1	-1E+10	1	-1E+10	1	-1E+10	1	-1E+10	1
4902551	63	C	05/09/2022	10:57	-131.520	49.327	0	209.10	0	6.4790	0	33.8680	0	26.599	0	207.215	0	104.9	4	35.0	4	-1E+10	1	-1E+10	1	-1E+10	1	-1E+10	1	-1E+10	1	-1E+10	1
4902551	63	C	05/09/2022	10:57	-131.520	49.327	0	210.00	0	6.4620	0	33.8670	0	26.601	0	208.107	0	104.1	4	34.8	4	-1E+10	1	-1E+10	1	-1E+10	1	-1E+10	1	-1E+10	1	-1E+10	1
4902551	63	C	05/09/2022	10:57	-131.520	49.327	0	210.80	0	6.4580	0	33.8670	0	26.601	0	208.899	0	103.2	4	34.5	4	-1E+10	1	-1E+10	1	-1E+10	1	-1E+10	1	-1E+10	1	-1E+10	1
4902551	63	C	05/09/2022	10:57	-131.520	49.327	0	211.60	0	6.4530	0	33.8680	0	26.603	0	209.691	0	102.3	4	34.1	4	-1E+10	1	-1E+10	1	-1E+10	1	-1E+10	1	-1E+10	1	-1E+10	1
4902551	63	C	05/09/2022	10:57	-131.520	49.327	0	212.90	0	6.4590	0	33.8720	0	26.605	0	210.979	0	100.8	4	33.7	4	-1E+10	1	-1E+10	1	-1E+10	1	-1E+10	1	-1E+10	1	-1E+10	1
4902551	63	C	05/09/2022	10:57	-131.520	49.327	0	214.10	0	6.4620	0	33.8760	0	26.608	0	212.168	0	99.3	4	33.2	4	-1E+10	1	-1E+10	1	-1E+10	1	-1E+10	1	-1E+10	1	-1E+10	1
4902551	63	C	05/09/2022	10:57	-131.520	49.327	0	215.00	0	6.4640	0	33.8780	0	26.609	0	213.059	0	98.3	4	32.8	4	-1E+10	1	-1E+10	1	-1E+10	1	-1E+10	1	-1E+10	1	-1E+10	1
4902551	63	C	05/09/2022	10:57	-131.520	49.327	0	215.90	0	6.4520	0	33.8840	0	26.616	0	213.950	0	97.4	4	32.5	4	-1E+10	1	-1E+10	1	-1E+10	1	-1E+10	1	-1E+10	1	-1E+10	1
4902551	63	C	05/09/2022	10:57	-131.520	49.327	0	216.70	0	6.4680	0	33.9040	0	26.629	0	214.743	0	96.8	4	32.3	4	-1E+10	1	-1E+10	1	-1E+10	1	-1E+10	1	-1E+10	1	-1E+10	1
4902551	63	C	05/09/2022	10:57	-131.520	49.327	0	217.60	0	6.4340	0	33.8940	0	26.626	0	215.634	0	96.4	4	32.2	4	-1E+10	1	-1E+10	1	-1E+10	1	-1E+10	1	-1E+10	1	-1E+10	1
4902551	63	C	05/09/2022	10:57	-131.520	49.327	0	218.90	0	6.4230	0	33.8900	0	26.624	0	216.922	0	95.3	4	31.8	4	-1E+10	1	-1E+10	1	-1E+10	1	-1E+10	1	-1E+10	1	-1E+10	1
4902551	63	C	05/09/2022	10:57	-131.520	49.327	0	220.20	0	6.4030	0	33.8920	0	26.628	0	218.209	0	94.0	4	31.4	4	-1E+10	1	-1E+10	1	-1E+10	1	-1E+10	1	-1E+10	1	-1E+10	1
4902551	63	C	05/09/2022	10:57	-131.520	49.327	0	221.10	0	6.4150	0	33.8990	0	26.632	0	219.101	0	93.1	4	31.1	4	-1E+10	1	-1E+10	1	-1E+10	1	-1E+10	1	-1E+10	1	-1E+10	1
4902551	63	C	05/09/2022	10:57	-131.520	49.327	0	221.90	0	6.4260	0	33.9000	0	26.632	0	219.893	0	92.2	4	30.8	4	-1E+10	1	-1E+10	1	-1E+10	1	-1E+10	1	-1E+10	1	-1E+10	1
4902551	63	C	05/09/2022	10:57	-131.520	49.327	0	222.80	0	6.4540	0	33.9070	0	26.634	0	220.784	0	91.5	4	30.5	4	-1E+10	1	-1E+10	1	-1E+10	1	-1E+10	1	-1E+10	1	-1E+10	1
4902551	63	C	05/09/2022	10:57	-131.520	49.327	0	223.70	0	6.4780	0	33.9130	0	26.635	0	221.676	0	90.8	4	30.3	4	-1E+10	1	-1E+10	1	-1E+10	1	-1E+10	1	-1E+10	1	-1E+10	1
4902551	63	C	05/09/2022	10:57	-131.520	49.327	0	225.00	0	6.5000	0	33.9170	0	26.635	0	222.963	0	90.2	4	30.1	4	-1E+10	1	-1E+10	1	-1E+10	1	-1E+10	1	-1E+10	1	-1E+10	1
4902551	63	C	05/09/2022	10:57	-131.520	49.327	0	226.30	0	6.5200	0	33.9200	0	26.635	0	224.251	0	89.9	4	30.0	4	-1E+10	1	-1E+10	1	-1E+10	1	-1E+10	1	-1E+10	1	-1E+10	1
4902551	63	C	05/09/2022	10:57	-131.520	49.327	0	227.20	0	6.4850	0	33.9260	0	26.645	0	225.142	0	89.7	4	30.0	4	-1E+10	1	-1E+10	1	-1E+10	1	-1E+10	1	-1E+10	1	-1E+10	1
4902551	63	C	05/09/2022	10:57	-131.520	49.327	0	228.10	0	6.4520	0	33.9200	0	26.644	0	226.034	0	89.6	4	29.9	4	-1E+10	1	-1E+10	1	-1E+10	1	-1E+10	1	-1E+10	1	-1E+10	1
4902551	63	C	05/09/2022	10:57	-131.520	49.327	0	229.00	0	6.4480	0	33.9210	0	26.645	0	226.925	0	89.5	4	29.9	4	-1E+10	1	-1E+10	1	-1E+10	1	-1E+10	1	-1E+10	1	-1E+10	1
4902551	63	C	05/09/2022	10:57	-131.520	49.327	0	229.90	0	6.4460	0	33.9220	0	26.647	0	227.816	0	89.4	4	29.8	4	-1E+10	1	-1E+10	1	-1E+10	1	-1E+10	1	-1E+10	1	-1E+10	1
4902551	63	C	05/09/2022	10:57	-131.520	49.327	0	230.80	0	6.4300	0	33.9220	0	26.649	0	228.708	0	89.3	4	29.8	4	-1E+10	1	-1E+10	1	-1E+10	1	-1E+10	1	-1E+10	1	-1E+10	1
4902551	63	C	05/09/2022	10:57	-131.520	49.327	0	231.70	0	6.4230	0	33.9230	0	26.650	0	229.599	0	89.3	4	29.8	4	-1E+10	1	-1E+10	1	-1E+10	1	-1E+10	1	-1E+10	1	-1E+10	1
4902551	63	C	05/09/2022	10:57	-131.520	49.327	0	232.60	0	6.4180	0	33.9240	0	26.652	0	230.490	0	89.2	4	29.8	4	-1E+10	1	-1E+10	1	-1E+10	1	-1E+10	1	-1E+10	1	-1E+10	1
4902551	63	C	05/09/2022	10:57	-131.520	49.327	0	233.90	0	6.4080	0	33.9210	0	26.651	0	231.778	0	89.1	4	29.7	4	-1E+10	1	-1E+10	1	-1E+10	1	-1E+10	1	-1E+10	1	-1E+10	1
4902551	63	C	05/09/2022	10:57	-131.520	49.327	0	235.40	0	6.3930	0	33.9230	0	26.654	0	233.263	0	88.9	4	29.6	4	-1E+10	1	-1E+10	1	-1E+10	1	-1E+10	1	-1E+10	1	-1E+10	1
4902551	63	C	05/09/2022	10:57	-131.520	49.327	0	236.30	0	6.3880	0	33.9220	0	26.654	0	234.155	0	88.7	4	29.6	4	-1E+10	1	-1E+10	1	-1E+10	1	-1E+10	1	-1E+10	1	-1E+10	1
4902551	63	C	05/09/2022	10:57	-131.520	49.327	0	237.30	0	6.3830	0	33.9190	0	26.652	0	235.145	0	88.4	4	29.5	4	-1E+10	1	-1E+10	1	-1E+10	1	-1E+10	1	-1E+10	1	-1E+10	1
4902551	63	C	05/09/2022	10:57	-131.520	49.327	0	238.20	0	6.3820	0	33.9190	0	26.653	0	236.036	0	88.2	4	29.4	4	-1E+10	1	-1E+10	1	-1E+10	1	-1E+10	1	-1E+10	1	-1E+10	1
4902551	63	C	05/09/2022	10:57	-131.520	49.327	0	239.20	0	6.3860	0	33.9220	0	26.654	0	237.027	0	87.9	4	29.3	4	-1E+10	1	-1E+10	1	-1E+10	1	-1E+10	1	-1E+10	1	-1E+10	1
4902551	63	C	05/09/2022	10:57	-131.520	49.327	0	240.10	0	6.3800	0	33.9240	0	26.657	0	237.918	0	87.8	4	29.3	4	-1E+10	1	-1E+10	1	-1E+10	1	-1E+10	1	-1E+10	1	-1E+10	1
4902551	63	C	05/09/2022	10:57	-131.520	49.327	0	241.10	0	6.3650	0	33.9250	0	26.660	0	238.908	0	87.7	4	29.2	4	-1E+10	1	-1E+10	1	-1E+10	1	-1E+10	1	-1E+10	1	-1E+10	1
4902551	63	C	05/09/2022	10:57	-131.520	49.327	0	242.10	0	6.3470	0	33.9220	0	26.659	0	239.899	0	87.5	4	29.1	4	-1E+10	1	-1E+10	1	-1E+10	1	-1E+10	1	-1E+10	1	-1E+10	1
4902551	63	C	05/09/2022	10:57	-131.520	49.327	0	243.00	0	6.3250	0	33.9210	0	26.662	0	240.790	0	87.2	4	29.0	4	-1E+10	1	-1E+10	1	-1E+10	1	-1E+10	1	-1E+10	1	-1E+10	1
4902551	63	C	05/09/2022	10:57	-131.520	49.327	0	244.00	0	6.3060	0	33.9170	0	26.661	0	241.780	0	86.8	4	28.9	4	-1E+10	1	-1E+10	1	-1E+10	1	-1E+10	1	-1E+10	1	-1E+10	1
4902551	63	C	05/09/2022	10:57	-131.520	49.327	0	244.90	0	6.2980	0	33.9180	0	26.663	0	242.672	0	86.4	4	28.7	4	-1E+10	1	-1E+10	1	-1E+10	1	-1E+10	1	-1E+10	1	-1E+10	1
4902551	63	C	05/09/2022	10:57	-131.520	49.327	0	245.90	0	6.2900	0	33.9210	0	26.666	0	243.662	0	86.0	4	28.6	4	-1E+10	1	-1E+10	1	-1E+10	1	-1E+10	1	-1E+10	1	-1E+10	1
4902551	63	C	05/09/2022	10:57	-131.520	49.327	0	246.90	0	6.2750	0	33.9210	0	26.668	0	244.652	0	85.6	4	28.5	4	-1E+10	1	-1E+10	1	-1E+10	1	-1E+10	1	-1E+10	1	-1E+10	1
4902551	63	C	05/09/2022	10:57	-131.520	49.327	0	247.80	0	6.2580	0	33.9220	0	26.671	0	245.543	0	85.2	4	28.3	4	-1E+10	1	-1E+10	1	-1E+10	1	-1E+10	1	-1E+10	1	-1E+10	1
4902551	63	C	05/09/2022	10:57	-131.520	49.327	0	249.00	0	6.2510	0	33.9220	0	26.672	0	246.732	0	84.7	4	28.2	4	-1E+10	1	-1E+10	1	-1E+10	1	-1E+10	1	-1E+10	1	-1E+10	1
4902551	63	C	05/09/2022	10:57	-131.520	49.327	0	249.80	0	6.2530	0	33.9230	0	26.672	0	247.524	0	84.4	4	28.0	4	-1E+10	1	-1E+10	1	-1E+10	1	-1E+10	1	-1E+10	1	-1E+10	1
4902551	63	C	05/09/2022	10:57	-131.520	49.327	0	250.80	0	6.2530	0	33.9240	0	26.673	0	248.514	0	83.9	4	27.9	4	-1E+10	1	-1E+10	1	-1E+10	1	-1E+10	1	-1E+10	1	-1E+10	1
4902551	63	C	05/09/2022	10:57	-131.520	49.327	0	251.80	0	6.2590	0	33.9240	0	26.672	0	249.505	0	83.5	4	27.7	4	-1E+10	1	-1E+10	1	-1E+10	1	-1E+10	1	-1E+10	1	-1E+10	1
4902551	63	C	05/09/2022	10:57	-131.520	49.327	0	252.70	0	6.2610	0	33.9270	0	26.675	0	250.396	0	83.1	4	27.6	4	-1E+10	1	-1E+10	1	-1E+10	1	-1E+10	1	-1E+10	1	-1E+10	1
4902551	63	C	05/09/2022	10:57	-131.520	49.327	0	253.70	0	6.2580	0	33.9290	0	26.677	0	251.386	0	82.7	4	27.5	4	-1E+10	1	-1E+10	1	-1E+10	1	-1E+10	1	-1E+10	1	-1E+10	1
4902551	63	C	05/09/2022	10:57	-131.520	49.327	0	254.70	0	6.2460	0	33.9330	0	26.681	0	252.376	0	82.4	4	27.4	4	-1E+10	1	-1E+10	1	-1E+10	1	-1E+10	1	-1E+10	1	-1E+10	1
4902551	63	C	05/09/2022	10:57	-131.520	49.327	0	255.70	0	6.2400	0	33.9330	0	26.682	0	253.367	0	82.2	4	27.3	4	-1E+10	1	-1E+10	1	-1E+10	1	-1E+10	1	-1E+10	1	-1E+10	1
4902551	63	C	05/09/2022	10:57	-131.520	49.327	0	256.70	0	6.2300	0	33.9340	0	26.684	0	254.357	0	82.0	4	27.2	4	-1E+10	1	-1E+10	1	-1E+10	1	-1E+10	1	-1E+10	1	-1E+10	1
4902551	63	C	05/09/2022	10:57	-131.520	49.327	0	257.70	0	6.2240	0	33.9350	0	26.686	0	255.347	0	81.8	4	27.2	4	-1E+10	1	-1E+10	1	-1E+10	1	-1E+10	1	-1E+10	1	-1E+10	1
4902551	63	C	05/09/2022	10:57	-131.520	49.327	0	258.70	0	6.2170	0	33.9320	0	26.684	0	256.337	0	81.6	4	27.1	4	-1E+10	1	-1E+10	1	-1E+10	1	-1E+10	1	-1E+10	1	-1E+10	1
4902551	63	C	05/09/2022	10:57	-131.520	49.327	0	259.60	0	6.2140	0	33.9330	0	26.685	0	257.229	0	81.3	4	27.0	4	-1E+10	1	-1E+10	1	-1E+10	1	-1E+10	1	-1E+10	1	-1E+10	1
4902551	63	C	05/09/2022	10:57	-131.520	49.327	0	260.60	0	6.2150	0	33.9340	0	26.686	0	258.219	0	81.0	4	26.9	4	-1E+10	1	-1E+10	1	-1E+10	1	-1E+10	1	-1E+10	1	-1E+10	1
4902551	63	C	05/09/2022	10:57	-131.520	49.327	0	262.00	0	6.2100	0	33.9370	0	26.689	0	259.605	0	80.5	4	26.7	4	-1E+10	1	-1E+10	1	-1E+10	1	-1E+10	1	-1E+10	1	-1E+10	1
4902551	63	C	05/09/2022	10:57	-131.520	49.327	0	263.20	0	6.1830	0	33.9390	0	26.694	0	260.793	0	80.3	4	26.6	4	-1E+10	1	-1E+10	1	-1E+10	1	-1E+10	1	-1E+10	1	-1E+10	1
4902551	63	C	05/09/2022	10:57	-131.520	49.327	0	264.00	0	6.1730	0	33.9390	0	26.695	0	261.586	0	80.2	4	26.6	4	-1E+10	1	-1E+10	1	-1E+10	1	-1E+10	1	-1E+10	1	-1E+10	1
4902551	63	C	05/09/2022	10:57	-131.520	49.327	0	264.80	0	6.1650	0	33.9400	0	26.697	0	262.378	0	80.1	4	26.6	4	-1E+10	1	-1E+10	1	-1E+10	1	-1E+10	1	-1E+10	1	-1E+10	1
4902551	63	C	05/09/2022	10:57	-131.520	49.327	0	265.90	0	6.1460	0	33.9390	0	26.699	0	263.467	0	79.9	4	26.5	4	-1E+10	1	-1E+10	1	-1E+10	1	-1E+10	1	-1E+10	1	-1E+10	1
4902551	63	C	05/09/2022	10:57	-131.520	49.327	0	267.10	0	6.1430	0	33.9390	0	26.699	0	264.655	0	79.7	4	26.4	4	-1E+10	1	-1E+10	1	-1E+10	1	-1E+10	1	-1E+10	1	-1E+10	1
4902551	63	C	05/09/2022	10:57	-131.520	49.327	0	267.90	0	6.1430	0	33.9390	0	26.699	0	265.447	0	79.6	4	26.4	4	-1E+10	1	-1E+10	1	-1E+10	1	-1E+10	1	-1E+10	1	-1E+10	1
4902551	63	C	05/09/2022	10:57	-131.520	49.327	0	268.70	0	6.1420	0	33.9400	0	26.700	0	266.240	0	79.5	4	26.4	4	-1E+10	1	-1E+10	1	-1E+10	1	-1E+10	1	-1E+10	1	-1E+10	1
4902551	63	C	05/09/2022	10:57	-131.520	49.327	0	270.00	0	6.1420	0	33.9400	0	26.700	0	267.527	0	79.3	4	26.3	4	-1E+10	1	-1E+10	1	-1E+10	1	-1E+10	1	-1E+10	1	-1E+10	1
4902551	63	C	05/09/2022	10:57	-131.520	49.327	0	271.20	0	6.1360	0	33.9400	0	26.701	0	268.715	0	79.1	4	26.2	4	-1E+10	1	-1E+10	1	-1E+10	1	-1E+10	1	-1E+10	1	-1E+10	1
4902551	63	C	05/09/2022	10:57	-131.520	49.327	0	272.10	0	6.1360	0	33.9400	0	26.701	0	269.606	0	79.0	4	26.2	4	-1E+10	1	-1E+10	1	-1E+10	1	-1E+10	1	-1E+10	1	-1E+10	1
4902551	63	C	05/09/2022	10:57	-131.520	49.327	0	272.90	0	6.1300	0	33.9400	0	26.702	0	270.398	0	78.8	4	26.1	4	-1E+10	1	-1E+10	1	-1E+10	1	-1E+10	1	-1E+10	1	-1E+10	1
4902551	63	C	05/09/2022	10:57	-131.520	49.327	0	273.70	0	6.1230	0	33.9400	0	26.703	0	271.191	0	78.7	4	26.1	4	-1E+10	1	-1E+10	1	-1E+10	1	-1E+10	1	-1E+10	1	-1E+10	1
4902551	63	C	05/09/2022	10:57	-131.520	49.327	0	275.00	0	6.1070	0	33.9410	0	26.705	0	272.478	0	78.5	4	26.0	4	-1E+10	1	-1E+10	1	-1E+10	1	-1E+10	1	-1E+10	1	-1E+10	1
4902551	63	C	05/09/2022	10:57	-131.520	49.327	0	276.30	0	6.0920	0	33.9380	0	26.705	0	273.765	0	78.2	4	25.9	4	-1E+10	1	-1E+10	1	-1E+10	1	-1E+10	1	-1E+10	1	-1E+10	1
4902551	63	C	05/09/2022	10:57	-131.520	49.327	0	277.20	0	6.0810	0	33.9390	0	26.707	0	274.656	0	78.0	4	25.8	4	-1E+10	1	-1E+10	1	-1E+10	1	-1E+10	1	-1E+10	1	-1E+10	1
4902551	63	C	05/09/2022	10:57	-131.520	49.327	0	278.10	0	6.0760	0	33.9390	0	26.708	0	275.547	0	77.8	4	25.8	4	-1E+10	1	-1E+10	1	-1E+10	1	-1E+10	1	-1E+10	1	-1E+10	1
4902551	63	C	05/09/2022	10:57	-131.520	49.327	0	278.90	0	6.0660	0	33.9370	0	26.708	0	276.339	0	77.6	4	25.7	4	-1E+10	1	-1E+10	1	-1E+10	1	-1E+10	1	-1E+10	1	-1E+10	1
4902551	63	C	05/09/2022	10:57	-131.520	49.327	0	279.80	0	6.0260	0	33.9510	0	26.724	0	277.231	0	77.4	4	25.6	4	-1E+10	1	-1E+10	1	-1E+10	1	-1E+10	1	-1E+10	1	-1E+10	1
4902551	63	C	05/09/2022	10:57	-131.520	49.327	0	280.60	0	5.9940	0	33.9380	0	26.717	0	278.023	0	77.3	4	25.5	4	-1E+10	1	-1E+10	1	-1E+10	1	-1E+10	1	-1E+10	1	-1E+10	1
4902551	63	C	05/09/2022	10:57	-131.520	49.327	0	281.90	0	5.9530	0	33.9400	0	26.724	0	279.310	0	77.0	4	25.4	4	-1E+10	1	-1E+10	1	-1E+10	1	-1E+10	1	-1E+10	1	-1E+10	1
4902551	63	C	05/09/2022	10:57	-131.520	49.327	0	283.20	0	5.9250	0	33.9410	0	26.728	0	280.597	0	76.8	4	25.3	4	-1E+10	1	-1E+10	1	-1E+10	1	-1E+10	1	-1E+10	1	-1E+10	1
4902551	63	C	05/09/2022	10:57	-131.520	49.327	0	284.00	0	5.9180	0	33.9400	0	26.728	0	281.389	0	76.7	4	25.3	4	-1E+10	1	-1E+10	1	-1E+10	1	-1E+10	1	-1E+10	1	-1E+10	1
4902551	63	C	05/09/2022	10:57	-131.520	49.327	0	284.90	0	5.9040	0	33.9420	0	26.732	0	282.280	0	76.5	4	25.2	4	-1E+10	1	-1E+10	1	-1E+10	1	-1E+10	1	-1E+10	1	-1E+10	1
4902551	63	C	05/09/2022	10:57	-131.520	49.327	0	285.70	0	5.8950	0	33.9410	0	26.732	0	283.072	0	76.3	4	25.2	4	-1E+10	1	-1E+10	1	-1E+10	1	-1E+10	1	-1E+10	1	-1E+10	1
4902551	63	C	05/09/2022	10:57	-131.520	49.327	0	286.60	0	5.8900	0	33.9430	0	26.734	0	283.963	0	76.2	4	25.1	4	-1E+10	1	-1E+10	1	-1E+10	1	-1E+10	1	-1E+10	1	-1E+10	1
4902551	63	C	05/09/2022	10:57	-131.520	49.327	0	287.90	0	5.8850	0	33.9410	0	26.733	0	285.251	0	76.0	4	25.0	4	-1E+10	1	-1E+10	1	-1E+10	1	-1E+10	1	-1E+10	1	-1E+10	1
4902551	63	C	05/09/2022	10:57	-131.520	49.327	0	289.20	0	5.8830	0	33.9410	0	26.734	0	286.538	0	75.8	4	25.0	4	-1E+10	1	-1E+10	1	-1E+10	1	-1E+10	1	-1E+10	1	-1E+10	1
4902551	63	C	05/09/2022	10:57	-131.520	49.327	0	290.10	0	5.8830	0	33.9410	0	26.734	0	287.429	0	75.6	4	24.9	4	-1E+10	1	-1E+10	1	-1E+10	1	-1E+10	1	-1E+10	1	-1E+10	1
4902551	63	C	05/09/2022	10:57	-131.520	49.327	0	290.90	0	5.8820	0	33.9420	0	26.735	0	288.221	0	75.4	4	24.9	4	-1E+10	1	-1E+10	1	-1E+10	1	-1E+10	1	-1E+10	1	-1E+10	1
4902551	63	C	05/09/2022	10:57	-131.520	49.327	0	291.70	0	5.8730	0	33.9420	0	26.736	0	289.013	0	75.3	4	24.8	4	-1E+10	1	-1E+10	1	-1E+10	1	-1E+10	1	-1E+10	1	-1E+10	1
4902551	63	C	05/09/2022	10:57	-131.520	49.327	0	293.00	0	5.8570	0	33.9420	0	26.738	0	290.300	0	75.0	4	24.7	4	-1E+10	1	-1E+10	1	-1E+10	1	-1E+10	1	-1E+10	1	-1E+10	1
4902551	63	C	05/09/2022	10:57	-131.520	49.327	0	294.30	0	5.8640	0	33.9420	0	26.737	0	291.587	0	74.7	4	24.6	4	-1E+10	1	-1E+10	1	-1E+10	1	-1E+10	1	-1E+10	1	-1E+10	1
4902551	63	C	05/09/2022	10:57	-131.520	49.327	0	295.20	0	5.8620	0	33.9410	0	26.736	0	292.478	0	74.5	4	24.6	4	-1E+10	1	-1E+10	1	-1E+10	1	-1E+10	1	-1E+10	1	-1E+10	1
4902551	63	C	05/09/2022	10:57	-131.520	49.327	0	296.10	0	5.8580	0	33.9440	0	26.739	0	293.369	0	74.3	4	24.5	4	-1E+10	1	-1E+10	1	-1E+10	1	-1E+10	1	-1E+10	1	-1E+10	1
4902551	63	C	05/09/2022	10:57	-131.520	49.327	0	297.00	0	5.8450	0	33.9410	0	26.738	0	294.260	0	74.0	4	24.4	4	-1E+10	1	-1E+10	1	-1E+10	1	-1E+10	1	-1E+10	1	-1E+10	1
4902551	63	C	05/09/2022	10:57	-131.520	49.327	0	297.90	0	5.8450	0	33.9410	0	26.738	0	295.151	0	73.8	4	24.3	4	-1E+10	1	-1E+10	1	-1E+10	1	-1E+10	1	-1E+10	1	-1E+10	1
4902551	63	C	05/09/2022	10:57	-131.520	49.327	0	298.80	0	5.8420	0	33.9410	0	26.739	0	296.043	0	73.4	4	24.2	4	-1E+10	1	-1E+10	1	-1E+10	1	-1E+10	1	-1E+10	1	-1E+10	1
4902551	63	C	05/09/2022	10:57	-131.520	49.327	0	299.70	0	5.7860	0	33.9420	0	26.746	0	296.934	0	73.1	4	24.0	4	-1E+10	1	-1E+10	1	-1E+10	1	-1E+10	1	-1E+10	1	-1E+10	1
4902551	63	C	05/09/2022	10:57	-131.520	49.327	0	300.60	0	5.7800	0	33.9390	0	26.745	0	297.825	0	72.7	4	23.9	4	-1E+10	1	-1E+10	1	-1E+10	1	-1E+10	1	-1E+10	1	-1E+10	1
4902551	63	C	05/09/2022	10:57	-131.520	49.327	0	301.90	0	5.7420	0	33.9400	0	26.750	0	299.112	0	72.1	4	23.7	4	-1E+10	1	-1E+10	1	-1E+10	1	-1E+10	1	-1E+10	1	-1E+10	1
4902551	63	C	05/09/2022	10:57	-131.520	49.327	0	303.30	0	5.7350	0	33.9420	0	26.753	0	300.498	0	71.4	4	23.5	4	-1E+10	1	-1E+10	1	-1E+10	1	-1E+10	1	-1E+10	1	-1E+10	1
4902551	63	C	05/09/2022	10:57	-131.520	49.327	0	304.20	0	5.7300	0	33.9460	0	26.757	0	301.389	0	70.9	4	23.3	4	-1E+10	1	-1E+10	1	-1E+10	1	-1E+10	1	-1E+10	1	-1E+10	1
4902551	63	C	05/09/2022	10:57	-131.520	49.327	0	305.10	0	5.7220	0	33.9440	0	26.756	0	302.280	0	70.5	4	23.1	4	-1E+10	1	-1E+10	1	-1E+10	1	-1E+10	1	-1E+10	1	-1E+10	1
4902551	63	C	05/09/2022	10:57	-131.520	49.327	0	306.00	0	5.7220	0	33.9450	0	26.757	0	303.171	0	70.0	4	23.0	4	-1E+10	1	-1E+10	1	-1E+10	1	-1E+10	1	-1E+10	1	-1E+10	1
4902551	63	C	05/09/2022	10:57	-131.520	49.327	0	306.90	0	5.7220	0	33.9470	0	26.758	0	304.062	0	69.5	4	22.8	4	-1E+10	1	-1E+10	1	-1E+10	1	-1E+10	1	-1E+10	1	-1E+10	1
4902551	63	C	05/09/2022	10:57	-131.520	49.327	0	307.90	0	5.7170	0	33.9470	0	26.759	0	305.052	0	68.9	4	22.6	4	-1E+10	1	-1E+10	1	-1E+10	1	-1E+10	1	-1E+10	1	-1E+10	1
4902551	63	C	05/09/2022	10:57	-131.520	49.327	0	308.80	0	5.7200	0	33.9480	0	26.759	0	305.943	0	68.2	4	22.4	4	-1E+10	1	-1E+10	1	-1E+10	1	-1E+10	1	-1E+10	1	-1E+10	1
4902551	63	C	05/09/2022	10:57	-131.520	49.327	0	309.70	0	5.7460	0	33.9480	0	26.756	0	306.834	0	67.8	4	22.3	4	-1E+10	1	-1E+10	1	-1E+10	1	-1E+10	1	-1E+10	1	-1E+10	1
4902551	63	C	05/09/2022	10:57	-131.520	49.327	0	310.70	0	5.7640	0	33.9600	0	26.764	0	307.824	0	67.7	4	22.2	4	-1E+10	1	-1E+10	1	-1E+10	1	-1E+10	1	-1E+10	1	-1E+10	1
4902551	63	C	05/09/2022	10:57	-131.520	49.327	0	311.60	0	5.7410	0	33.9640	0	26.770	0	308.715	0	67.6	4	22.2	4	-1E+10	1	-1E+10	1	-1E+10	1	-1E+10	1	-1E+10	1	-1E+10	1
4902551	63	C	05/09/2022	10:57	-131.520	49.327	0	312.60	0	5.7330	0	33.9620	0	26.769	0	309.705	0	67.6	4	22.2	4	-1E+10	1	-1E+10	1	-1E+10	1	-1E+10	1	-1E+10	1	-1E+10	1
4902551	63	C	05/09/2022	10:57	-131.520	49.327	0	313.60	0	5.7300	0	33.9620	0	26.769	0	310.695	0	67.6	4	22.2	4	-1E+10	1	-1E+10	1	-1E+10	1	-1E+10	1	-1E+10	1	-1E+10	1
4902551	63	C	05/09/2022	10:57	-131.520	49.327	0	314.50	0	5.7290	0	33.9620	0	26.769	0	311.586	0	67.6	4	22.2	4	-1E+10	1	-1E+10	1	-1E+10	1	-1E+10	1	-1E+10	1	-1E+10	1
4902551	63	C	05/09/2022	10:57	-131.520	49.327	0	315.50	0	5.7280	0	33.9620	0	26.770	0	312.576	0	67.6	4	22.2	4	-1E+10	1	-1E+10	1	-1E+10	1	-1E+10	1	-1E+10	1	-1E+10	1
4902551	63	C	05/09/2022	10:57	-131.520	49.327	0	316.90	0	5.7210	0	33.9610	0	26.770	0	313.962	0	67.6	4	22.2	4	-1E+10	1	-1E+10	1	-1E+10	1	-1E+10	1	-1E+10	1	-1E+10	1
4902551	63	C	05/09/2022	10:57	-131.520	49.327	0	318.40	0	5.6840	0	33.9610	0	26.774	0	315.447	0	67.5	4	22.1	4	-1E+10	1	-1E+10	1	-1E+10	1	-1E+10	1	-1E+10	1	-1E+10	1
4902551	63	C	05/09/2022	10:57	-131.520	49.327	0	319.40	0	5.6830	0	33.9600	0	26.773	0	316.437	0	67.4	4	22.1	4	-1E+10	1	-1E+10	1	-1E+10	1	-1E+10	1	-1E+10	1	-1E+10	1
4902551	63	C	05/09/2022	10:57	-131.520	49.327	0	320.30	0	5.6820	0	33.9590	0	26.773	0	317.328	0	67.4	4	22.1	4	-1E+10	1	-1E+10	1	-1E+10	1	-1E+10	1	-1E+10	1	-1E+10	1
4902551	63	C	05/09/2022	10:57	-131.520	49.327	0	321.30	0	5.6690	0	33.9610	0	26.776	0	318.318	0	67.3	4	22.1	4	-1E+10	1	-1E+10	1	-1E+10	1	-1E+10	1	-1E+10	1	-1E+10	1
4902551	63	C	05/09/2022	10:57	-131.520	49.327	0	322.30	0	5.6660	0	33.9580	0	26.774	0	319.308	0	67.1	4	22.0	4	-1E+10	1	-1E+10	1	-1E+10	1	-1E+10	1	-1E+10	1	-1E+10	1
4902551	63	C	05/09/2022	10:57	-131.520	49.327	0	323.30	0	5.6570	0	33.9580	0	26.775	0	320.297	0	67.0	4	22.0	4	-1E+10	1	-1E+10	1	-1E+10	1	-1E+10	1	-1E+10	1	-1E+10	1
4902551	63	C	05/09/2022	10:57	-131.520	49.327	0	324.30	0	5.6290	0	33.9560	0	26.777	0	321.287	0	66.9	4	21.9	4	-1E+10	1	-1E+10	1	-1E+10	1	-1E+10	1	-1E+10	1	-1E+10	1
4902551	63	C	05/09/2022	10:57	-131.520	49.327	0	325.20	0	5.6270	0	33.9550	0	26.776	0	322.178	0	66.6	4	21.8	4	-1E+10	1	-1E+10	1	-1E+10	1	-1E+10	1	-1E+10	1	-1E+10	1
4902551	63	C	05/09/2022	10:57	-131.520	49.327	0	326.20	0	5.6230	0	33.9540	0	26.776	0	323.168	0	66.3	4	21.7	4	-1E+10	1	-1E+10	1	-1E+10	1	-1E+10	1	-1E+10	1	-1E+10	1
4902551	63	C	05/09/2022	10:57	-131.520	49.327	0	327.20	0	5.6160	0	33.9560	0	26.779	0	324.158	0	66.1	4	21.6	4	-1E+10	1	-1E+10	1	-1E+10	1	-1E+10	1	-1E+10	1	-1E+10	1
4902551	63	C	05/09/2022	10:57	-131.520	49.327	0	328.10	0	5.6150	0	33.9550	0	26.778	0	325.049	0	65.8	4	21.5	4	-1E+10	1	-1E+10	1	-1E+10	1	-1E+10	1	-1E+10	1	-1E+10	1
4902551	63	C	05/09/2022	10:57	-131.520	49.327	0	329.10	0	5.6030	0	33.9540	0	26.779	0	326.039	0	65.5	4	21.4	4	-1E+10	1	-1E+10	1	-1E+10	1	-1E+10	1	-1E+10	1	-1E+10	1
4902551	63	C	05/09/2022	10:57	-131.520	49.327	0	330.00	0	5.5960	0	33.9560	0	26.781	0	326.930	0	65.1	4	21.3	4	-1E+10	1	-1E+10	1	-1E+10	1	-1E+10	1	-1E+10	1	-1E+10	1
4902551	63	C	05/09/2022	10:57	-131.520	49.327	0	331.00	0	5.5950	0	33.9560	0	26.781	0	327.920	0	64.7	4	21.2	4	-1E+10	1	-1E+10	1	-1E+10	1	-1E+10	1	-1E+10	1	-1E+10	1
4902551	63	C	05/09/2022	10:57	-131.520	49.327	0	332.00	0	5.5920	0	33.9560	0	26.781	0	328.910	0	64.3	4	21.1	4	-1E+10	1	-1E+10	1	-1E+10	1	-1E+10	1	-1E+10	1	-1E+10	1
4902551	63	C	05/09/2022	10:57	-131.520	49.327	0	332.90	0	5.5920	0	33.9590	0	26.784	0	329.801	0	63.9	4	20.9	4	-1E+10	1	-1E+10	1	-1E+10	1	-1E+10	1	-1E+10	1	-1E+10	1
4902551	63	C	05/09/2022	10:57	-131.520	49.327	0	333.90	0	5.5900	0	33.9620	0	26.786	0	330.791	0	63.5	4	20.8	4	-1E+10	1	-1E+10	1	-1E+10	1	-1E+10	1	-1E+10	1	-1E+10	1
4902551	63	C	05/09/2022	10:57	-131.520	49.327	0	334.90	0	5.5940	0	33.9640	0	26.788	0	331.780	0	63.2	4	20.7	4	-1E+10	1	-1E+10	1	-1E+10	1	-1E+10	1	-1E+10	1	-1E+10	1
4902551	63	C	05/09/2022	10:57	-131.520	49.327	0	335.80	0	5.6120	0	33.9630	0	26.785	0	332.671	0	63.0	4	20.6	4	-1E+10	1	-1E+10	1	-1E+10	1	-1E+10	1	-1E+10	1	-1E+10	1
4902551	63	C	05/09/2022	10:57	-131.520	49.327	0	336.80	0	5.6170	0	33.9700	0	26.790	0	333.661	0	62.7	4	20.5	4	-1E+10	1	-1E+10	1	-1E+10	1	-1E+10	1	-1E+10	1	-1E+10	1
4902551	63	C	05/09/2022	10:57	-131.520	49.327	0	337.70	0	5.6090	0	33.9700	0	26.791	0	334.552	0	62.4	4	20.4	4	-1E+10	1	-1E+10	1	-1E+10	1	-1E+10	1	-1E+10	1	-1E+10	1
4902551	63	C	05/09/2022	10:57	-131.520	49.327	0	338.70	0	5.6180	0	33.9710	0	26.790	0	335.542	0	62.2	4	20.4	4	-1E+10	1	-1E+10	1	-1E+10	1	-1E+10	1	-1E+10	1	-1E+10	1
4902551	63	C	05/09/2022	10:57	-131.520	49.327	0	339.70	0	5.6160	0	33.9720	0	26.791	0	336.532	0	62.0	4	20.3	4	-1E+10	1	-1E+10	1	-1E+10	1	-1E+10	1	-1E+10	1	-1E+10	1
4902551	63	C	05/09/2022	10:57	-131.520	49.327	0	340.60	0	5.6240	0	33.9730	0	26.791	0	337.423	0	61.8	4	20.2	4	-1E+10	1	-1E+10	1	-1E+10	1	-1E+10	1	-1E+10	1	-1E+10	1
4902551	63	C	05/09/2022	10:57	-131.520	49.327	0	341.60	0	5.6250	0	33.9750	0	26.793	0	338.413	0	61.6	4	20.2	4	-1E+10	1	-1E+10	1	-1E+10	1	-1E+10	1	-1E+10	1	-1E+10	1
4902551	63	C	05/09/2022	10:57	-131.520	49.327	0	342.50	0	5.6230	0	33.9730	0	26.791	0	339.303	0	61.4	4	20.1	4	-1E+10	1	-1E+10	1	-1E+10	1	-1E+10	1	-1E+10	1	-1E+10	1
4902551	63	C	05/09/2022	10:57	-131.520	49.327	0	343.90	0	5.6110	0	33.9730	0	26.793	0	340.689	0	61.1	4	20.0	4	-1E+10	1	-1E+10	1	-1E+10	1	-1E+10	1	-1E+10	1	-1E+10	1
4902551	63	C	05/09/2022	10:57	-131.520	49.327	0	345.40	0	5.6040	0	33.9740	0	26.794	0	342.174	0	60.7	4	19.9	4	-1E+10	1	-1E+10	1	-1E+10	1	-1E+10	1	-1E+10	1	-1E+10	1
4902551	63	C	05/09/2022	10:57	-131.520	49.327	0	346.30	0	5.5850	0	33.9770	0	26.799	0	343.065	0	60.4	4	19.8	4	-1E+10	1	-1E+10	1	-1E+10	1	-1E+10	1	-1E+10	1	-1E+10	1
4902551	63	C	05/09/2022	10:57	-131.520	49.327	0	347.20	0	5.5510	0	33.9700	0	26.798	0	343.956	0	60.0	4	19.6	4	-1E+10	1	-1E+10	1	-1E+10	1	-1E+10	1	-1E+10	1	-1E+10	1
4902551	63	C	05/09/2022	10:57	-131.520	49.327	0	348.10	0	5.5550	0	33.9710	0	26.798	0	344.847	0	59.6	4	19.5	4	-1E+10	1	-1E+10	1	-1E+10	1	-1E+10	1	-1E+10	1	-1E+10	1
4902551	63	C	05/09/2022	10:57	-131.520	49.327	0	349.10	0	5.5430	0	33.9710	0	26.799	0	345.836	0	59.2	4	19.3	4	-1E+10	1	-1E+10	1	-1E+10	1	-1E+10	1	-1E+10	1	-1E+10	1
4902551	63	C	05/09/2022	10:57	-131.520	49.327	0	350.00	0	5.5430	0	33.9720	0	26.800	0	346.727	0	58.7	4	19.2	4	-1E+10	1	-1E+10	1	-1E+10	1	-1E+10	1	-1E+10	1	-1E+10	1
4902551	63	C	05/09/2022	10:57	-131.520	49.327	0	352.70	0	5.5330	0	33.9780	0	26.806	0	349.400	0	57.5	4	18.8	4	-1E+10	1	-1E+10	1	-1E+10	1	-1E+10	1	-1E+10	1	-1E+10	1
4902551	63	C	05/09/2022	10:57	-131.520	49.327	0	357.70	0	5.5130	0	33.9860	0	26.815	0	354.349	0	56.0	4	18.3	4	-1E+10	1	-1E+10	1	-1E+10	1	-1E+10	1	-1E+10	1	-1E+10	1
4902551	63	C	05/09/2022	10:57	-131.520	49.327	0	362.70	0	5.4730	0	33.9900	0	26.823	0	359.297	0	54.6	4	17.8	4	-1E+10	1	-1E+10	1	-1E+10	1	-1E+10	1	-1E+10	1	-1E+10	1
4902551	63	C	05/09/2022	10:57	-131.520	49.327	0	367.70	0	5.3940	0	33.9900	0	26.832	0	364.246	0	52.4	4	17.1	4	-1E+10	1	-1E+10	1	-1E+10	1	-1E+10	1	-1E+10	1	-1E+10	1
4902551	63	C	05/09/2022	10:57	-131.520	49.327	0	372.70	0	5.4320	0	34.0050	0	26.840	0	369.195	0	50.3	4	16.4	4	-1E+10	1	-1E+10	1	-1E+10	1	-1E+10	1	-1E+10	1	-1E+10	1
4902551	63	C	05/09/2022	10:57	-131.520	49.327	0	377.70	0	5.3950	0	34.0110	0	26.849	0	374.143	0	49.7	4	16.2	4	-1E+10	1	-1E+10	1	-1E+10	1	-1E+10	1	-1E+10	1	-1E+10	1
4902551	63	C	05/09/2022	10:57	-131.520	49.327	0	382.80	0	5.3050	0	34.0120	0	26.860	0	379.190	0	49.3	4	16.1	4	-1E+10	1	-1E+10	1	-1E+10	1	-1E+10	1	-1E+10	1	-1E+10	1
4902551	63	C	05/09/2022	10:57	-131.520	49.327	0	388.00	0	5.2720	0	34.0110	0	26.863	0	384.337	0	49.2	4	16.0	4	-1E+10	1	-1E+10	1	-1E+10	1	-1E+10	1	-1E+10	1	-1E+10	1
4902551	63	C	05/09/2022	10:57	-131.520	49.327	0	393.10	0	5.2310	0	34.0080	0	26.866	0	389.384	0	48.9	4	15.9	4	-1E+10	1	-1E+10	1	-1E+10	1	-1E+10	1	-1E+10	1	-1E+10	1
4902551	63	C	05/09/2022	10:57	-131.520	49.327	0	397.80	0	5.1480	0	34.0060	0	26.874	0	394.035	0	48.0	4	15.6	4	-1E+10	1	-1E+10	1	-1E+10	1	-1E+10	1	-1E+10	1	-1E+10	1
4902551	63	C	05/09/2022	10:57	-131.520	49.327	0	402.90	0	5.1210	0	34.0120	0	26.882	0	399.082	0	47.3	4	15.3	4	-1E+10	1	-1E+10	1	-1E+10	1	-1E+10	1	-1E+10	1	-1E+10	1
4902551	63	C	05/09/2022	10:57	-131.520	49.327	0	408.00	0	5.0900	0	34.0130	0	26.886	0	404.128	0	47.1	4	15.2	4	-1E+10	1	-1E+10	1	-1E+10	1	-1E+10	1	-1E+10	1	-1E+10	1
4902551	63	C	05/09/2022	10:57	-131.520	49.327	0	413.00	0	5.0290	0	34.0110	0	26.892	0	409.076	0	46.8	4	15.1	4	-1E+10	1	-1E+10	1	-1E+10	1	-1E+10	1	-1E+10	1	-1E+10	1
4902551	63	C	05/09/2022	10:57	-131.520	49.327	0	418.00	0	4.9530	0	34.0070	0	26.897	0	414.023	0	45.7	4	14.7	4	-1E+10	1	-1E+10	1	-1E+10	1	-1E+10	1	-1E+10	1	-1E+10	1
4902551	63	C	05/09/2022	10:57	-131.520	49.327	0	423.00	0	4.9230	0	34.0160	0	26.908	0	418.971	0	44.3	4	14.3	4	-1E+10	1	-1E+10	1	-1E+10	1	-1E+10	1	-1E+10	1	-1E+10	1
4902551	63	C	05/09/2022	10:57	-131.520	49.327	0	428.20	0	4.9270	0	34.0200	0	26.910	0	424.116	0	43.4	4	14.0	4	-1E+10	1	-1E+10	1	-1E+10	1	-1E+10	1	-1E+10	1	-1E+10	1
4902551	63	C	05/09/2022	10:57	-131.520	49.327	0	433.00	0	4.9300	0	34.0210	0	26.911	0	428.865	0	41.9	4	13.5	4	-1E+10	1	-1E+10	1	-1E+10	1	-1E+10	1	-1E+10	1	-1E+10	1
4902551	63	C	05/09/2022	10:57	-131.520	49.327	0	437.80	0	4.9360	0	34.0310	0	26.918	0	433.614	0	40.2	4	13.0	4	-1E+10	1	-1E+10	1	-1E+10	1	-1E+10	1	-1E+10	1	-1E+10	1
4902551	63	C	05/09/2022	10:57	-131.520	49.327	0	443.00	0	4.9230	0	34.0400	0	26.927	0	438.759	0	39.0	4	12.6	4	-1E+10	1	-1E+10	1	-1E+10	1	-1E+10	1	-1E+10	1	-1E+10	1
4902551	63	C	05/09/2022	10:57	-131.520	49.327	0	448.30	0	4.8760	0	34.0440	0	26.935	0	444.003	0	38.3	4	12.3	4	-1E+10	1	-1E+10	1	-1E+10	1	-1E+10	1	-1E+10	1	-1E+10	1
4902551	63	C	05/09/2022	10:57	-131.520	49.327	0	453.20	0	4.8080	0	34.0460	0	26.945	0	448.851	0	37.9	4	12.2	4	-1E+10	1	-1E+10	1	-1E+10	1	-1E+10	1	-1E+10	1	-1E+10	1
4902551	63	C	05/09/2022	10:57	-131.520	49.327	0	458.10	0	4.7780	0	34.0470	0	26.949	0	453.698	0	37.3	4	12.0	4	-1E+10	1	-1E+10	1	-1E+10	1	-1E+10	1	-1E+10	1	-1E+10	1
4902551	63	C	05/09/2022	10:57	-131.520	49.327	0	462.80	0	4.7710	0	34.0470	0	26.950	0	458.348	0	36.6	4	11.8	4	-1E+10	1	-1E+10	1	-1E+10	1	-1E+10	1	-1E+10	1	-1E+10	1
4902551	63	C	05/09/2022	10:57	-131.520	49.327	0	467.80	0	4.7480	0	34.0520	0	26.956	0	463.294	0	35.4	4	11.4	4	-1E+10	1	-1E+10	1	-1E+10	1	-1E+10	1	-1E+10	1	-1E+10	1
4902551	63	C	05/09/2022	10:57	-131.520	49.327	0	473.10	0	4.7050	0	34.0580	0	26.966	0	468.537	0	34.7	4	11.1	4	-1E+10	1	-1E+10	1	-1E+10	1	-1E+10	1	-1E+10	1	-1E+10	1
4902551	63	C	05/09/2022	10:57	-131.520	49.327	0	478.10	0	4.6910	0	34.0610	0	26.970	0	473.483	0	34.1	4	10.9	4	-1E+10	1	-1E+10	1	-1E+10	1	-1E+10	1	-1E+10	1	-1E+10	1
4902551	63	C	05/09/2022	10:57	-131.520	49.327	0	482.90	0	4.6820	0	34.0630	0	26.972	0	478.231	0	33.6	4	10.8	4	-1E+10	1	-1E+10	1	-1E+10	1	-1E+10	1	-1E+10	1	-1E+10	1
4902551	63	C	05/09/2022	10:57	-131.520	49.327	0	487.80	0	4.6750	0	34.0640	0	26.974	0	483.078	0	32.9	4	10.6	4	-1E+10	1	-1E+10	1	-1E+10	1	-1E+10	1	-1E+10	1	-1E+10	1
4902551	63	C	05/09/2022	10:57	-131.520	49.327	0	492.80	0	4.6670	0	34.0660	0	26.976	0	488.024	0	31.9	4	10.2	4	-1E+10	1	-1E+10	1	-1E+10	1	-1E+10	1	-1E+10	1	-1E+10	1
4902551	63	C	05/09/2022	10:57	-131.520	49.327	0	497.90	0	4.6450	0	34.0710	0	26.983	0	493.069	0	30.9	4	9.9	4	-1E+10	1	-1E+10	1	-1E+10	1	-1E+10	1	-1E+10	1	-1E+10	1
4902551	63	C	05/09/2022	10:57	-131.520	49.327	0	503.10	0	4.6440	0	34.0780	0	26.989	0	498.212	0	29.8	4	9.6	4	-1E+10	1	-1E+10	1	-1E+10	1	-1E+10	1	-1E+10	1	-1E+10	1
4902551	63	C	05/09/2022	10:57	-131.520	49.327	0	507.80	0	4.6350	0	34.0830	0	26.994	0	502.860	0	29.1	4	9.3	4	-1E+10	1	-1E+10	1	-1E+10	1	-1E+10	1	-1E+10	1	-1E+10	1
4902551	63	C	05/09/2022	10:57	-131.520	49.327	0	513.00	0	4.6530	0	34.0880	0	26.996	0	508.004	0	28.1	4	9.0	4	-1E+10	1	-1E+10	1	-1E+10	1	-1E+10	1	-1E+10	1	-1E+10	1
4902551	63	C	05/09/2022	10:57	-131.520	49.327	0	518.20	0	4.6520	0	34.0940	0	27.001	0	513.147	0	27.5	4	8.8	4	-1E+10	1	-1E+10	1	-1E+10	1	-1E+10	1	-1E+10	1	-1E+10	1
4902551	63	C	05/09/2022	10:57	-131.520	49.327	0	522.90	0	4.6130	0	34.0970	0	27.007	0	517.795	0	27.0	4	8.7	4	-1E+10	1	-1E+10	1	-1E+10	1	-1E+10	1	-1E+10	1	-1E+10	1
4902551	63	C	05/09/2022	10:57	-131.520	49.327	0	527.60	0	4.5940	0	34.0980	0	27.010	0	522.443	0	26.4	4	8.5	4	-1E+10	1	-1E+10	1	-1E+10	1	-1E+10	1	-1E+10	1	-1E+10	1
4902551	63	C	05/09/2022	10:57	-131.520	49.327	0	532.90	0	4.5820	0	34.1030	0	27.015	0	527.685	0	26.1	4	8.3	4	-1E+10	1	-1E+10	1	-1E+10	1	-1E+10	1	-1E+10	1	-1E+10	1
4902551	63	C	05/09/2022	10:57	-131.520	49.327	0	538.30	0	4.5470	0	34.1000	0	27.017	0	533.025	0	25.6	4	8.2	4	-1E+10	1	-1E+10	1	-1E+10	1	-1E+10	1	-1E+10	1	-1E+10	1
4902551	63	C	05/09/2022	10:57	-131.520	49.327	0	543.20	0	4.5240	0	34.1050	0	27.023	0	537.870	0	24.7	4	7.9	4	-1E+10	1	-1E+10	1	-1E+10	1	-1E+10	1	-1E+10	1	-1E+10	1
4902551	63	C	05/09/2022	10:57	-131.520	49.327	0	548.10	0	4.5090	0	34.1090	0	27.028	0	542.716	0	23.9	4	7.6	4	-1E+10	1	-1E+10	1	-1E+10	1	-1E+10	1	-1E+10	1	-1E+10	1
4902551	63	C	05/09/2022	10:57	-131.520	49.327	0	553.10	0	4.4820	0	34.1140	0	27.035	0	547.660	0	22.9	4	7.3	4	-1E+10	1	-1E+10	1	-1E+10	1	-1E+10	1	-1E+10	1	-1E+10	1
4902551	63	C	05/09/2022	10:57	-131.520	49.327	0	558.00	0	4.4480	0	34.1230	0	27.046	0	552.506	0	22.1	4	7.1	4	-1E+10	1	-1E+10	1	-1E+10	1	-1E+10	1	-1E+10	1	-1E+10	1
4902551	63	C	05/09/2022	10:57	-131.520	49.327	0	563.00	0	4.4280	0	34.1290	0	27.053	0	557.450	0	21.7	4	6.9	4	-1E+10	1	-1E+10	1	-1E+10	1	-1E+10	1	-1E+10	1	-1E+10	1
4902551	63	C	05/09/2022	10:57	-131.520	49.327	0	568.00	0	4.4210	0	34.1300	0	27.055	0	562.394	0	21.3	4	6.8	4	-1E+10	1	-1E+10	1	-1E+10	1	-1E+10	1	-1E+10	1	-1E+10	1
4902551	63	C	05/09/2022	10:57	-131.520	49.327	0	573.00	0	4.3990	0	34.1330	0	27.059	0	567.337	0	20.8	4	6.6	4	-1E+10	1	-1E+10	1	-1E+10	1	-1E+10	1	-1E+10	1	-1E+10	1
4902551	63	C	05/09/2022	10:57	-131.520	49.327	0	577.90	0	4.3790	0	34.1380	0	27.065	0	572.182	0	20.3	4	6.5	4	-1E+10	1	-1E+10	1	-1E+10	1	-1E+10	1	-1E+10	1	-1E+10	1
4902551	63	C	05/09/2022	10:57	-131.520	49.327	0	582.70	0	4.3640	0	34.1420	0	27.070	0	576.928	0	19.7	4	6.3	4	-1E+10	1	-1E+10	1	-1E+10	1	-1E+10	1	-1E+10	1	-1E+10	1
4902551	63	C	05/09/2022	10:57	-131.520	49.327	0	588.00	0	4.3500	0	34.1460	0	27.075	0	582.168	0	19.1	4	6.1	4	-1E+10	1	-1E+10	1	-1E+10	1	-1E+10	1	-1E+10	1	-1E+10	1
4902551	63	C	05/09/2022	10:57	-131.520	49.327	0	593.30	0	4.3300	0	34.1530	0	27.083	0	587.408	0	18.5	4	5.9	4	-1E+10	1	-1E+10	1	-1E+10	1	-1E+10	1	-1E+10	1	-1E+10	1
4902551	63	C	05/09/2022	10:57	-131.520	49.327	0	598.20	0	4.3160	0	34.1580	0	27.088	0	592.253	0	18.0	4	5.7	4	-1E+10	1	-1E+10	1	-1E+10	1	-1E+10	1	-1E+10	1	-1E+10	1
4902551	63	C	05/09/2022	10:57	-131.520	49.327	0	603.20	0	4.3030	0	34.1620	0	27.093	0	597.196	0	17.6	4	5.6	4	-1E+10	1	-1E+10	1	-1E+10	1	-1E+10	1	-1E+10	1	-1E+10	1
4902551	63	C	05/09/2022	10:57	-131.520	49.327	0	608.20	0	4.2860	0	34.1670	0	27.099	0	602.139	0	17.3	4	5.5	4	-1E+10	1	-1E+10	1	-1E+10	1	-1E+10	1	-1E+10	1	-1E+10	1
4902551	63	C	05/09/2022	10:57	-131.520	49.327	0	613.10	0	4.2760	0	34.1700	0	27.102	0	606.983	0	17.1	4	5.4	4	-1E+10	1	-1E+10	1	-1E+10	1	-1E+10	1	-1E+10	1	-1E+10	1
4902551	63	C	05/09/2022	10:57	-131.520	49.327	0	618.00	0	4.2710	0	34.1710	0	27.103	0	611.827	0	16.8	4	5.3	4	-1E+10	1	-1E+10	1	-1E+10	1	-1E+10	1	-1E+10	1	-1E+10	1
4902551	63	C	05/09/2022	10:57	-131.520	49.327	0	622.80	0	4.2630	0	34.1740	0	27.107	0	616.571	0	16.4	4	5.2	4	-1E+10	1	-1E+10	1	-1E+10	1	-1E+10	1	-1E+10	1	-1E+10	1
4902551	63	C	05/09/2022	10:57	-131.520	49.327	0	627.70	0	4.2450	0	34.1780	0	27.112	0	621.415	0	16.1	4	5.1	4	-1E+10	1	-1E+10	1	-1E+10	1	-1E+10	1	-1E+10	1	-1E+10	1
4902551	63	C	05/09/2022	10:57	-131.520	49.327	0	632.90	0	4.2370	0	34.1820	0	27.116	0	626.555	0	15.6	4	5.0	4	-1E+10	1	-1E+10	1	-1E+10	1	-1E+10	1	-1E+10	1	-1E+10	1
4902551	63	C	05/09/2022	10:57	-131.520	49.327	0	638.30	0	4.2150	0	34.1900	0	27.125	0	631.893	0	15.3	4	4.9	4	-1E+10	1	-1E+10	1	-1E+10	1	-1E+10	1	-1E+10	1	-1E+10	1
4902551	63	C	05/09/2022	10:57	-131.520	49.327	0	643.20	0	4.2060	0	34.1920	0	27.127	0	636.736	0	15.1	4	4.8	4	-1E+10	1	-1E+10	1	-1E+10	1	-1E+10	1	-1E+10	1	-1E+10	1
4902551	63	C	05/09/2022	10:57	-131.520	49.327	0	648.30	0	4.2010	0	34.1940	0	27.129	0	641.777	0	14.8	4	4.7	4	-1E+10	1	-1E+10	1	-1E+10	1	-1E+10	1	-1E+10	1	-1E+10	1
4902551	63	C	05/09/2022	10:57	-131.520	49.327	0	652.90	0	4.1900	0	34.1970	0	27.133	0	646.324	0	14.6	4	4.6	4	-1E+10	1	-1E+10	1	-1E+10	1	-1E+10	1	-1E+10	1	-1E+10	1
4902551	63	C	05/09/2022	10:57	-131.520	49.327	0	657.60	0	4.1780	0	34.1990	0	27.136	0	650.969	0	14.2	4	4.5	4	-1E+10	1	-1E+10	1	-1E+10	1	-1E+10	1	-1E+10	1	-1E+10	1
4902551	63	C	05/09/2022	10:57	-131.520	49.327	0	662.70	0	4.1550	0	34.2060	0	27.144	0	656.010	0	14.0	4	4.4	4	-1E+10	1	-1E+10	1	-1E+10	1	-1E+10	1	-1E+10	1	-1E+10	1
4902551	63	C	05/09/2022	10:57	-131.520	49.327	0	667.70	0	4.1470	0	34.2080	0	27.146	0	660.951	0	13.7	4	4.3	4	-1E+10	1	-1E+10	1	-1E+10	1	-1E+10	1	-1E+10	1	-1E+10	1
4902551	63	C	05/09/2022	10:57	-131.520	49.327	0	672.90	0	4.1270	0	34.2150	0	27.154	0	666.090	0	13.4	4	4.3	4	-1E+10	1	-1E+10	1	-1E+10	1	-1E+10	1	-1E+10	1	-1E+10	1
4902551	63	C	05/09/2022	10:57	-131.520	49.327	0	678.10	0	4.1150	0	34.2180	0	27.157	0	671.229	0	13.3	4	4.2	4	-1E+10	1	-1E+10	1	-1E+10	1	-1E+10	1	-1E+10	1	-1E+10	1
4902551	63	C	05/09/2022	10:57	-131.520	49.327	0	683.00	0	4.1020	0	34.2200	0	27.160	0	676.072	0	13.0	4	4.1	4	-1E+10	1	-1E+10	1	-1E+10	1	-1E+10	1	-1E+10	1	-1E+10	1
4902551	63	C	05/09/2022	10:57	-131.520	49.327	0	687.90	0	4.0840	0	34.2260	0	27.167	0	680.914	0	12.8	4	4.0	4	-1E+10	1	-1E+10	1	-1E+10	1	-1E+10	1	-1E+10	1	-1E+10	1
4902551	63	C	05/09/2022	10:57	-131.520	49.327	0	692.90	0	4.0670	0	34.2310	0	27.173	0	685.855	0	12.6	4	4.0	4	-1E+10	1	-1E+10	1	-1E+10	1	-1E+10	1	-1E+10	1	-1E+10	1
4902551	63	C	05/09/2022	10:57	-131.520	49.327	0	697.80	0	4.0600	0	34.2330	0	27.175	0	690.697	0	12.4	4	3.9	4	-1E+10	1	-1E+10	1	-1E+10	1	-1E+10	1	-1E+10	1	-1E+10	1
4902551	63	C	05/09/2022	10:57	-131.520	49.327	0	702.80	0	4.0340	0	34.2400	0	27.183	0	695.638	0	12.4	4	3.9	4	-1E+10	1	-1E+10	1	-1E+10	1	-1E+10	1	-1E+10	1	-1E+10	1
4902551	63	C	05/09/2022	10:57	-131.520	49.327	0	707.80	0	4.0220	0	34.2410	0	27.186	0	700.579	0	12.3	4	3.9	4	-1E+10	1	-1E+10	1	-1E+10	1	-1E+10	1	-1E+10	1	-1E+10	1
4902551	63	C	05/09/2022	10:57	-131.520	49.327	0	713.00	0	4.0120	0	34.2430	0	27.188	0	705.717	0	12.2	4	3.9	4	-1E+10	1	-1E+10	1	-1E+10	1	-1E+10	1	-1E+10	1	-1E+10	1
4902551	63	C	05/09/2022	10:57	-131.520	49.327	0	717.90	0	4.0030	0	34.2450	0	27.191	0	710.558	0	12.1	4	3.8	4	-1E+10	1	-1E+10	1	-1E+10	1	-1E+10	1	-1E+10	1	-1E+10	1
4902551	63	C	05/09/2022	10:57	-131.520	49.327	0	722.90	0	3.9950	0	34.2470	0	27.193	0	715.499	0	12.1	4	3.8	4	-1E+10	1	-1E+10	1	-1E+10	1	-1E+10	1	-1E+10	1	-1E+10	1
4902551	63	C	05/09/2022	10:57	-131.520	49.327	0	728.00	0	3.9770	0	34.2490	0	27.197	0	720.538	0	12.1	4	3.8	4	-1E+10	1	-1E+10	1	-1E+10	1	-1E+10	1	-1E+10	1	-1E+10	1
4902551	63	C	05/09/2022	10:57	-131.520	49.327	0	732.70	0	3.9660	0	34.2510	0	27.199	0	725.181	0	12.0	4	3.8	4	-1E+10	1	-1E+10	1	-1E+10	1	-1E+10	1	-1E+10	1	-1E+10	1
4902551	63	C	05/09/2022	10:57	-131.520	49.327	0	737.90	0	3.9450	0	34.2550	0	27.205	0	730.319	0	12.0	4	3.8	4	-1E+10	1	-1E+10	1	-1E+10	1	-1E+10	1	-1E+10	1	-1E+10	1
4902551	63	C	05/09/2022	10:57	-131.520	49.327	0	743.20	0	3.9300	0	34.2580	0	27.209	0	735.555	0	11.9	4	3.7	4	-1E+10	1	-1E+10	1	-1E+10	1	-1E+10	1	-1E+10	1	-1E+10	1
4902551	63	C	05/09/2022	10:57	-131.520	49.327	0	748.10	0	3.9160	0	34.2610	0	27.213	0	740.396	0	11.7	4	3.7	4	-1E+10	1	-1E+10	1	-1E+10	1	-1E+10	1	-1E+10	1	-1E+10	1
4902551	63	C	05/09/2022	10:57	-131.520	49.327	0	753.10	0	3.9070	0	34.2640	0	27.216	0	745.336	0	11.6	4	3.7	4	-1E+10	1	-1E+10	1	-1E+10	1	-1E+10	1	-1E+10	1	-1E+10	1
4902551	63	C	05/09/2022	10:57	-131.520	49.327	0	758.10	0	3.8930	0	34.2690	0	27.221	0	750.275	0	11.4	4	3.6	4	-1E+10	1	-1E+10	1	-1E+10	1	-1E+10	1	-1E+10	1	-1E+10	1
4902551	63	C	05/09/2022	10:57	-131.520	49.327	0	763.10	0	3.8740	0	34.2750	0	27.228	0	755.214	0	11.4	4	3.6	4	-1E+10	1	-1E+10	1	-1E+10	1	-1E+10	1	-1E+10	1	-1E+10	1
4902551	63	C	05/09/2022	10:57	-131.520	49.327	0	768.00	0	3.8580	0	34.2770	0	27.231	0	760.055	0	11.3	4	3.6	4	-1E+10	1	-1E+10	1	-1E+10	1	-1E+10	1	-1E+10	1	-1E+10	1
4902551	63	C	05/09/2022	10:57	-131.520	49.327	0	772.90	0	3.8550	0	34.2780	0	27.232	0	764.895	0	11.2	4	3.5	4	-1E+10	1	-1E+10	1	-1E+10	1	-1E+10	1	-1E+10	1	-1E+10	1
4902551	63	C	05/09/2022	10:57	-131.520	49.327	0	777.90	0	3.8460	0	34.2810	0	27.236	0	769.834	0	11.2	4	3.5	4	-1E+10	1	-1E+10	1	-1E+10	1	-1E+10	1	-1E+10	1	-1E+10	1
4902551	63	C	05/09/2022	10:57	-131.520	49.327	0	783.10	0	3.8420	0	34.2830	0	27.238	0	774.971	0	11.1	4	3.5	4	-1E+10	1	-1E+10	1	-1E+10	1	-1E+10	1	-1E+10	1	-1E+10	1
4902551	63	C	05/09/2022	10:57	-131.520	49.327	0	788.20	0	3.8370	0	34.2850	0	27.240	0	780.008	0	11.1	4	3.5	4	-1E+10	1	-1E+10	1	-1E+10	1	-1E+10	1	-1E+10	1	-1E+10	1
4902551	63	C	05/09/2022	10:57	-131.520	49.327	0	792.80	0	3.8280	0	34.2870	0	27.242	0	784.552	0	11.0	4	3.5	4	-1E+10	1	-1E+10	1	-1E+10	1	-1E+10	1	-1E+10	1	-1E+10	1
4902551	63	C	05/09/2022	10:57	-131.520	49.327	0	797.50	0	3.8080	0	34.2920	0	27.248	0	789.194	0	11.0	4	3.5	4	-1E+10	1	-1E+10	1	-1E+10	1	-1E+10	1	-1E+10	1	-1E+10	1
4902551	63	C	05/09/2022	10:57	-131.520	49.327	0	802.80	0	3.7970	0	34.2940	0	27.251	0	794.429	0	11.1	4	3.5	4	-1E+10	1	-1E+10	1	-1E+10	1	-1E+10	1	-1E+10	1	-1E+10	1
4902551	63	C	05/09/2022	10:57	-131.520	49.327	0	808.00	0	3.7730	0	34.2960	0	27.255	0	799.564	0	11.2	4	3.5	4	-1E+10	1	-1E+10	1	-1E+10	1	-1E+10	1	-1E+10	1	-1E+10	1
4902551	63	C	05/09/2022	10:57	-131.520	49.327	0	812.90	0	3.7440	0	34.2960	0	27.258	0	804.404	0	11.3	4	3.6	4	-1E+10	1	-1E+10	1	-1E+10	1	-1E+10	1	-1E+10	1	-1E+10	1
4902551	63	C	05/09/2022	10:57	-131.520	49.327	0	817.80	0	3.7220	0	34.2960	0	27.260	0	809.243	0	11.4	4	3.6	4	-1E+10	1	-1E+10	1	-1E+10	1	-1E+10	1	-1E+10	1	-1E+10	1
4902551	63	C	05/09/2022	10:57	-131.520	49.327	0	823.20	0	3.7020	0	34.2950	0	27.261	0	814.576	0	11.5	4	3.6	4	-1E+10	1	-1E+10	1	-1E+10	1	-1E+10	1	-1E+10	1	-1E+10	1
4902551	63	C	05/09/2022	10:57	-131.520	49.327	0	828.00	0	3.6920	0	34.2950	0	27.262	0	819.316	0	11.5	4	3.6	4	-1E+10	1	-1E+10	1	-1E+10	1	-1E+10	1	-1E+10	1	-1E+10	1
4902551	63	C	05/09/2022	10:57	-131.520	49.327	0	832.70	0	3.6750	0	34.2970	0	27.266	0	823.958	0	11.6	4	3.6	4	-1E+10	1	-1E+10	1	-1E+10	1	-1E+10	1	-1E+10	1	-1E+10	1
4902551	63	C	05/09/2022	10:57	-131.520	49.327	0	837.90	0	3.6490	0	34.2980	0	27.269	0	829.093	0	11.8	4	3.7	4	-1E+10	1	-1E+10	1	-1E+10	1	-1E+10	1	-1E+10	1	-1E+10	1
4902551	63	C	05/09/2022	10:57	-131.520	49.327	0	843.10	0	3.5970	0	34.2970	0	27.273	0	834.228	0	12.0	4	3.7	4	-1E+10	1	-1E+10	1	-1E+10	1	-1E+10	1	-1E+10	1	-1E+10	1
4902551	63	C	05/09/2022	10:57	-131.520	49.327	0	848.00	0	3.5410	0	34.2980	0	27.280	0	839.067	0	12.0	4	3.8	4	-1E+10	1	-1E+10	1	-1E+10	1	-1E+10	1	-1E+10	1	-1E+10	1
4902551	63	C	05/09/2022	10:57	-131.520	49.327	0	852.90	0	3.5120	0	34.2990	0	27.283	0	843.905	0	12.1	4	3.8	4	-1E+10	1	-1E+10	1	-1E+10	1	-1E+10	1	-1E+10	1	-1E+10	1
4902551	63	C	05/09/2022	10:57	-131.520	49.327	0	858.00	0	3.4980	0	34.3000	0	27.285	0	848.941	0	12.1	4	3.8	4	-1E+10	1	-1E+10	1	-1E+10	1	-1E+10	1	-1E+10	1	-1E+10	1
4902551	63	C	05/09/2022	10:57	-131.520	49.327	0	863.10	0	3.4700	0	34.3020	0	27.290	0	853.977	0	12.1	4	3.8	4	-1E+10	1	-1E+10	1	-1E+10	1	-1E+10	1	-1E+10	1	-1E+10	1
4902551	63	C	05/09/2022	10:57	-131.520	49.327	0	867.90	0	3.4610	0	34.3030	0	27.291	0	858.716	0	12.1	4	3.8	4	-1E+10	1	-1E+10	1	-1E+10	1	-1E+10	1	-1E+10	1	-1E+10	1
4902551	63	C	05/09/2022	10:57	-131.520	49.327	0	872.70	0	3.4550	0	34.3040	0	27.293	0	863.455	0	12.0	4	3.8	4	-1E+10	1	-1E+10	1	-1E+10	1	-1E+10	1	-1E+10	1	-1E+10	1
4902551	63	C	05/09/2022	10:57	-131.520	49.327	0	877.90	0	3.4540	0	34.3060	0	27.295	0	868.590	0	12.0	4	3.7	4	-1E+10	1	-1E+10	1	-1E+10	1	-1E+10	1	-1E+10	1	-1E+10	1
4902551	63	C	05/09/2022	10:57	-131.520	49.327	0	882.80	0	3.4520	0	34.3080	0	27.296	0	873.427	0	12.0	4	3.7	4	-1E+10	1	-1E+10	1	-1E+10	1	-1E+10	1	-1E+10	1	-1E+10	1
4902551	63	C	05/09/2022	10:57	-131.520	49.327	0	887.70	0	3.4400	0	34.3080	0	27.298	0	878.265	0	12.0	4	3.7	4	-1E+10	1	-1E+10	1	-1E+10	1	-1E+10	1	-1E+10	1	-1E+10	1
4902551	63	C	05/09/2022	10:57	-131.520	49.327	0	893.00	0	3.4230	0	34.3090	0	27.300	0	883.497	0	12.0	4	3.7	4	-1E+10	1	-1E+10	1	-1E+10	1	-1E+10	1	-1E+10	1	-1E+10	1
4902551	63	C	05/09/2022	10:57	-131.520	49.327	0	897.90	0	3.4180	0	34.3120	0	27.303	0	888.335	0	12.0	4	3.7	4	-1E+10	1	-1E+10	1	-1E+10	1	-1E+10	1	-1E+10	1	-1E+10	1
4902551	63	C	05/09/2022	10:57	-131.520	49.327	0	902.90	0	3.4080	0	34.3150	0	27.306	0	893.271	0	12.1	4	3.8	4	-1E+10	1	-1E+10	1	-1E+10	1	-1E+10	1	-1E+10	1	-1E+10	1
4902551	63	C	05/09/2022	10:57	-131.520	49.327	0	907.90	0	3.3860	0	34.3160	0	27.309	0	898.207	0	12.2	4	3.8	4	-1E+10	1	-1E+10	1	-1E+10	1	-1E+10	1	-1E+10	1	-1E+10	1
4902551	63	C	05/09/2022	10:57	-131.520	49.327	0	912.80	0	3.3730	0	34.3150	0	27.310	0	903.044	0	12.2	4	3.8	4	-1E+10	1	-1E+10	1	-1E+10	1	-1E+10	1	-1E+10	1	-1E+10	1
4902551	63	C	05/09/2022	10:57	-131.520	49.327	0	917.90	0	3.3590	0	34.3170	0	27.313	0	908.079	0	12.2	4	3.8	4	-1E+10	1	-1E+10	1	-1E+10	1	-1E+10	1	-1E+10	1	-1E+10	1
4902551	63	C	05/09/2022	10:57	-131.520	49.327	0	922.90	0	3.3560	0	34.3180	0	27.314	0	913.014	0	12.2	4	3.8	4	-1E+10	1	-1E+10	1	-1E+10	1	-1E+10	1	-1E+10	1	-1E+10	1
4902551	63	C	05/09/2022	10:57	-131.520	49.327	0	928.00	0	3.3460	0	34.3200	0	27.316	0	918.048	0	12.1	4	3.8	4	-1E+10	1	-1E+10	1	-1E+10	1	-1E+10	1	-1E+10	1	-1E+10	1
4902551	63	C	05/09/2022	10:57	-131.520	49.327	0	933.10	0	3.3370	0	34.3220	0	27.319	0	923.082	0	12.1	4	3.8	4	-1E+10	1	-1E+10	1	-1E+10	1	-1E+10	1	-1E+10	1	-1E+10	1
4902551	63	C	05/09/2022	10:57	-131.520	49.327	0	938.10	0	3.3300	0	34.3230	0	27.320	0	928.018	0	12.0	4	3.7	4	-1E+10	1	-1E+10	1	-1E+10	1	-1E+10	1	-1E+10	1	-1E+10	1
4902551	63	C	05/09/2022	10:57	-131.520	49.327	0	942.70	0	3.3200	0	34.3260	0	27.324	0	932.558	0	12.0	4	3.7	4	-1E+10	1	-1E+10	1	-1E+10	1	-1E+10	1	-1E+10	1	-1E+10	1
4902551	63	C	05/09/2022	10:57	-131.520	49.327	0	947.60	0	3.3160	0	34.3280	0	27.326	0	937.394	0	11.9	4	3.7	4	-1E+10	1	-1E+10	1	-1E+10	1	-1E+10	1	-1E+10	1	-1E+10	1
4902551	63	C	05/09/2022	10:57	-131.520	49.327	0	953.00	0	3.3090	0	34.3300	0	27.328	0	942.724	0	11.9	4	3.7	4	-1E+10	1	-1E+10	1	-1E+10	1	-1E+10	1	-1E+10	1	-1E+10	1
4902551	63	C	05/09/2022	10:57	-131.520	49.327	0	958.00	0	3.3030	0	34.3310	0	27.329	0	947.659	0	11.9	4	3.7	4	-1E+10	1	-1E+10	1	-1E+10	1	-1E+10	1	-1E+10	1	-1E+10	1
4902551	63	C	05/09/2022	10:57	-131.520	49.327	0	963.00	0	3.2920	0	34.3320	0	27.331	0	952.593	0	11.9	4	3.7	4	-1E+10	1	-1E+10	1	-1E+10	1	-1E+10	1	-1E+10	1	-1E+10	1
4902551	63	C	05/09/2022	10:57	-131.520	49.327	0	968.10	0	3.2840	0	34.3340	0	27.334	0	957.627	0	11.9	4	3.7	4	-1E+10	1	-1E+10	1	-1E+10	1	-1E+10	1	-1E+10	1	-1E+10	1
4902551	63	C	05/09/2022	10:57	-131.520	49.327	0	972.70	0	3.2760	0	34.3360	0	27.336	0	962.166	0	11.8	4	3.7	4	-1E+10	1	-1E+10	1	-1E+10	1	-1E+10	1	-1E+10	1	-1E+10	1
4902551	63	C	05/09/2022	10:57	-131.520	49.327	0	977.80	0	3.2700	0	34.3380	0	27.338	0	967.199	0	11.8	4	3.7	4	-1E+10	1	-1E+10	1	-1E+10	1	-1E+10	1	-1E+10	1	-1E+10	1
4902551	63	C	05/09/2022	10:57	-131.520	49.327	0	982.80	0	3.2610	0	34.3410	0	27.341	0	972.133	0	11.8	4	3.7	4	-1E+10	1	-1E+10	1	-1E+10	1	-1E+10	1	-1E+10	1	-1E+10	1
4902551	63	C	05/09/2022	10:57	-131.520	49.327	0	987.90	0	3.2530	0	34.3430	0	27.344	0	977.166	0	11.8	4	3.7	4	-1E+10	1	-1E+10	1	-1E+10	1	-1E+10	1	-1E+10	1	-1E+10	1
4902551	63	C	05/09/2022	10:57	-131.520	49.327	0	992.90	0	3.2520	0	34.3430	0	27.344	0	982.100	0	11.8	4	3.7	4	-1E+10	1	-1E+10	1	-1E+10	1	-1E+10	1	-1E+10	1	-1E+10	1
4902551	63	C	05/09/2022	10:57	-131.520	49.327	0	997.80	0	3.2340	0	34.3440	0	27.346	0	986.935	0	11.9	4	3.7	4	-1E+10	1	-1E+10	1	-1E+10	1	-1E+10	1	-1E+10	1	-1E+10	1
4902551	63	C	05/09/2022	10:57	-131.520	49.327	0	1005.50	0	3.1960	0	34.3520	0	27.356	0	994.533	0	11.9	4	3.7	4	-1E+10	1	-1E+10	1	-1E+10	1	-1E+10	1	-1E+10	1	-1E+10	1
4902551	63	C	05/09/2022	10:57	-131.520	49.327	0	1015.30	0	3.1580	0	34.3590	0	27.365	0	1004.203	0	11.9	4	3.7	4	-1E+10	1	-1E+10	1	-1E+10	1	-1E+10	1	-1E+10	1	-1E+10	1
4902551	63	C	05/09/2022	10:57	-131.520	49.327	0	1025.40	0	3.1400	0	34.3620	0	27.370	0	1014.168	0	11.9	4	3.7	4	-1E+10	1	-1E+10	1	-1E+10	1	-1E+10	1	-1E+10	1	-1E+10	1
4902551	63	C	05/09/2022	10:57	-131.520	49.327	0	1035.80	0	3.1080	0	34.3690	0	27.378	0	1024.429	0	12.0	4	3.7	4	-1E+10	1	-1E+10	1	-1E+10	1	-1E+10	1	-1E+10	1	-1E+10	1
4902551	63	C	05/09/2022	10:57	-131.520	49.327	0	1045.40	0	3.0790	0	34.3740	0	27.385	0	1033.900	0	12.1	4	3.7	4	-1E+10	1	-1E+10	1	-1E+10	1	-1E+10	1	-1E+10	1	-1E+10	1
4902551	63	C	05/09/2022	10:57	-131.520	49.327	0	1055.20	0	3.0600	0	34.3780	0	27.390	0	1043.568	0	12.2	4	3.8	4	-1E+10	1	-1E+10	1	-1E+10	1	-1E+10	1	-1E+10	1	-1E+10	1
4902551	63	C	05/09/2022	10:57	-131.520	49.327	0	1065.20	0	3.0410	0	34.3820	0	27.395	0	1053.432	0	12.3	4	3.8	4	-1E+10	1	-1E+10	1	-1E+10	1	-1E+10	1	-1E+10	1	-1E+10	1
4902551	63	C	05/09/2022	10:57	-131.520	49.327	0	1075.30	0	3.0070	0	34.3860	0	27.401	0	1063.395	0	12.5	4	3.8	4	-1E+10	1	-1E+10	1	-1E+10	1	-1E+10	1	-1E+10	1	-1E+10	1
4902551	63	C	05/09/2022	10:57	-131.520	49.327	0	1085.40	0	2.9800	0	34.3900	0	27.407	0	1073.357	0	12.5	4	3.9	4	-1E+10	1	-1E+10	1	-1E+10	1	-1E+10	1	-1E+10	1	-1E+10	1
4902551	63	C	05/09/2022	10:57	-131.520	49.327	0	1095.50	0	2.9500	0	34.3950	0	27.413	0	1083.319	0	12.6	4	3.9	4	-1E+10	1	-1E+10	1	-1E+10	1	-1E+10	1	-1E+10	1	-1E+10	1
4902551	63	C	05/09/2022	10:57	-131.520	49.327	0	1105.50	0	2.9240	0	34.3990	0	27.419	0	1093.182	0	12.8	4	4.0	4	-1E+10	1	-1E+10	1	-1E+10	1	-1E+10	1	-1E+10	1	-1E+10	1
4902551	63	C	05/09/2022	10:57	-131.520	49.327	0	1115.60	0	2.8980	0	34.4040	0	27.425	0	1103.143	0	12.9	4	4.0	4	-1E+10	1	-1E+10	1	-1E+10	1	-1E+10	1	-1E+10	1	-1E+10	1
4902551	63	C	05/09/2022	10:57	-131.520	49.327	0	1125.70	0	2.8850	0	34.4070	0	27.429	0	1113.103	0	13.0	4	4.0	4	-1E+10	1	-1E+10	1	-1E+10	1	-1E+10	1	-1E+10	1	-1E+10	1
4902551	63	C	05/09/2022	10:57	-131.520	49.327	0	1135.40	0	2.8700	0	34.4100	0	27.433	0	1122.669	0	13.1	4	4.0	4	-1E+10	1	-1E+10	1	-1E+10	1	-1E+10	1	-1E+10	1	-1E+10	1
4902551	63	C	05/09/2022	10:57	-131.520	49.327	0	1145.20	0	2.8620	0	34.4110	0	27.434	0	1132.333	0	13.1	4	4.0	4	-1E+10	1	-1E+10	1	-1E+10	1	-1E+10	1	-1E+10	1	-1E+10	1
4902551	63	C	05/09/2022	10:57	-131.520	49.327	0	1155.10	0	2.8500	0	34.4130	0	27.437	0	1142.095	0	13.3	4	4.1	4	-1E+10	1	-1E+10	1	-1E+10	1	-1E+10	1	-1E+10	1	-1E+10	1
4902551	63	C	05/09/2022	10:57	-131.520	49.327	0	1165.10	0	2.8330	0	34.4170	0	27.442	0	1151.955	0	13.4	4	4.1	4	-1E+10	1	-1E+10	1	-1E+10	1	-1E+10	1	-1E+10	1	-1E+10	1
4902551	63	C	05/09/2022	10:57	-131.520	49.327	0	1175.20	0	2.8230	0	34.4190	0	27.444	0	1161.913	0	13.5	4	4.1	4	-1E+10	1	-1E+10	1	-1E+10	1	-1E+10	1	-1E+10	1	-1E+10	1
4902551	63	C	05/09/2022	10:57	-131.520	49.327	0	1185.30	0	2.8100	0	34.4210	0	27.447	0	1171.871	0	13.7	4	4.2	4	-1E+10	1	-1E+10	1	-1E+10	1	-1E+10	1	-1E+10	1	-1E+10	1
4902551	63	C	05/09/2022	10:57	-131.520	49.327	0	1195.60	0	2.7890	0	34.4240	0	27.451	0	1182.025	0	13.9	4	4.3	4	-1E+10	1	-1E+10	1	-1E+10	1	-1E+10	1	-1E+10	1	-1E+10	1
4902551	63	C	05/09/2022	10:57	-131.520	49.327	0	1205.50	0	2.7710	0	34.4280	0	27.456	0	1191.784	0	14.1	4	4.3	4	-1E+10	1	-1E+10	1	-1E+10	1	-1E+10	1	-1E+10	1	-1E+10	1
4902551	63	C	05/09/2022	10:57	-131.520	49.327	0	1215.00	0	2.7570	0	34.4300	0	27.459	0	1201.149	0	14.3	4	4.4	4	-1E+10	1	-1E+10	1	-1E+10	1	-1E+10	1	-1E+10	1	-1E+10	1
4902551	63	C	05/09/2022	10:57	-131.520	49.327	0	1224.90	0	2.7410	0	34.4340	0	27.464	0	1210.908	0	14.5	4	4.4	4	-1E+10	1	-1E+10	1	-1E+10	1	-1E+10	1	-1E+10	1	-1E+10	1
4902551	63	C	05/09/2022	10:57	-131.520	49.327	0	1235.40	0	2.7330	0	34.4350	0	27.465	0	1221.257	0	14.7	4	4.5	4	-1E+10	1	-1E+10	1	-1E+10	1	-1E+10	1	-1E+10	1	-1E+10	1
4902551	63	C	05/09/2022	10:57	-131.520	49.327	0	1245.40	0	2.7290	0	34.4380	0	27.468	0	1231.114	0	14.9	4	4.6	4	-1E+10	1	-1E+10	1	-1E+10	1	-1E+10	1	-1E+10	1	-1E+10	1
4902551	63	C	05/09/2022	10:57	-131.520	49.327	0	1255.50	0	2.7180	0	34.4390	0	27.470	0	1241.068	0	15.0	4	4.6	4	-1E+10	1	-1E+10	1	-1E+10	1	-1E+10	1	-1E+10	1	-1E+10	1
4902551	63	C	05/09/2022	10:57	-131.520	49.327	0	1265.40	0	2.7030	0	34.4400	0	27.472	0	1250.825	0	15.2	4	4.7	4	-1E+10	1	-1E+10	1	-1E+10	1	-1E+10	1	-1E+10	1	-1E+10	1
4902551	63	C	05/09/2022	10:57	-131.520	49.327	0	1275.40	0	2.6850	0	34.4450	0	27.478	0	1260.680	0	15.5	4	4.8	4	-1E+10	1	-1E+10	1	-1E+10	1	-1E+10	1	-1E+10	1	-1E+10	1
4902551	63	C	05/09/2022	10:57	-131.520	49.327	0	1285.60	0	2.6770	0	34.4470	0	27.480	0	1270.731	0	15.8	4	4.8	4	-1E+10	1	-1E+10	1	-1E+10	1	-1E+10	1	-1E+10	1	-1E+10	1
4902551	63	C	05/09/2022	10:57	-131.520	49.327	0	1295.60	0	2.6590	0	34.4490	0	27.483	0	1280.585	0	16.1	4	4.9	4	-1E+10	1	-1E+10	1	-1E+10	1	-1E+10	1	-1E+10	1	-1E+10	1
4902551	63	C	05/09/2022	10:57	-131.520	49.327	0	1305.80	0	2.6500	0	34.4520	0	27.486	0	1290.636	0	16.3	4	5.0	4	-1E+10	1	-1E+10	1	-1E+10	1	-1E+10	1	-1E+10	1	-1E+10	1
4902551	63	C	05/09/2022	10:57	-131.520	49.327	0	1315.50	0	2.6270	0	34.4550	0	27.491	0	1300.193	0	16.5	4	5.0	4	-1E+10	1	-1E+10	1	-1E+10	1	-1E+10	1	-1E+10	1	-1E+10	1
4902551	63	C	05/09/2022	10:57	-131.520	49.327	0	1325.40	0	2.6090	0	34.4570	0	27.494	0	1309.947	0	16.7	4	5.1	4	-1E+10	1	-1E+10	1	-1E+10	1	-1E+10	1	-1E+10	1	-1E+10	1
4902551	63	C	05/09/2022	10:57	-131.520	49.327	0	1335.40	0	2.6030	0	34.4590	0	27.496	0	1319.799	0	17.0	4	5.2	4	-1E+10	1	-1E+10	1	-1E+10	1	-1E+10	1	-1E+10	1	-1E+10	1
4902551	63	C	05/09/2022	10:57	-131.520	49.327	0	1345.50	0	2.5950	0	34.4610	0	27.499	0	1329.750	0	17.2	4	5.3	4	-1E+10	1	-1E+10	1	-1E+10	1	-1E+10	1	-1E+10	1	-1E+10	1
4902551	63	C	05/09/2022	10:57	-131.520	49.327	0	1355.50	0	2.5730	0	34.4630	0	27.502	0	1339.601	0	17.4	4	5.3	4	-1E+10	1	-1E+10	1	-1E+10	1	-1E+10	1	-1E+10	1	-1E+10	1
4902551	63	C	05/09/2022	10:57	-131.520	49.327	0	1365.20	0	2.5640	0	34.4650	0	27.505	0	1349.156	0	17.7	4	5.4	4	-1E+10	1	-1E+10	1	-1E+10	1	-1E+10	1	-1E+10	1	-1E+10	1
4902551	63	C	05/09/2022	10:57	-131.520	49.327	0	1375.30	0	2.5530	0	34.4670	0	27.507	0	1359.105	0	18.0	4	5.5	4	-1E+10	1	-1E+10	1	-1E+10	1	-1E+10	1	-1E+10	1	-1E+10	1
4902551	63	C	05/09/2022	10:57	-131.520	49.327	0	1385.50	0	2.5510	0	34.4680	0	27.508	0	1369.152	0	18.3	4	5.6	4	-1E+10	1	-1E+10	1	-1E+10	1	-1E+10	1	-1E+10	1	-1E+10	1
4902551	63	C	05/09/2022	10:57	-131.520	49.327	0	1395.30	0	2.5420	0	34.4700	0	27.511	0	1378.804	0	18.8	4	5.7	4	-1E+10	1	-1E+10	1	-1E+10	1	-1E+10	1	-1E+10	1	-1E+10	1
4902551	63	C	05/09/2022	10:57	-131.520	49.327	0	1405.30	0	2.5150	0	34.4750	0	27.517	0	1388.653	0	19.8	4	6.0	4	-1E+10	1	-1E+10	1	-1E+10	1	-1E+10	1	-1E+10	1	-1E+10	1
4902551	63	C	05/09/2022	10:57	-131.520	49.327	0	1415.50	0	2.4980	0	34.4800	0	27.522	0	1398.698	0	20.6	4	6.3	4	-1E+10	1	-1E+10	1	-1E+10	1	-1E+10	1	-1E+10	1	-1E+10	1
4902551	63	C	05/09/2022	10:57	-131.520	49.327	0	1425.40	0	2.4870	0	34.4830	0	27.526	0	1408.448	0	21.0	4	6.4	4	-1E+10	1	-1E+10	1	-1E+10	1	-1E+10	1	-1E+10	1	-1E+10	1
4902551	63	C	05/09/2022	10:57	-131.520	49.327	0	1435.40	0	2.4790	0	34.4840	0	27.527	0	1418.295	0	21.3	4	6.5	4	-1E+10	1	-1E+10	1	-1E+10	1	-1E+10	1	-1E+10	1	-1E+10	1
4902551	63	C	05/09/2022	10:57	-131.520	49.327	0	1445.40	0	2.4620	0	34.4860	0	27.530	0	1428.142	0	21.6	4	6.6	4	-1E+10	1	-1E+10	1	-1E+10	1	-1E+10	1	-1E+10	1	-1E+10	1
4902551	63	C	05/09/2022	10:57	-131.520	49.327	0	1455.40	0	2.4520	0	34.4880	0	27.533	0	1437.989	0	22.3	4	6.8	4	-1E+10	1	-1E+10	1	-1E+10	1	-1E+10	1	-1E+10	1	-1E+10	1
4902551	63	C	05/09/2022	10:57	-131.520	49.327	0	1465.70	0	2.4390	0	34.4920	0	27.537	0	1448.130	0	22.8	4	6.9	4	-1E+10	1	-1E+10	1	-1E+10	1	-1E+10	1	-1E+10	1	-1E+10	1
4902551	63	C	05/09/2022	10:57	-131.520	49.327	0	1475.50	0	2.4360	0	34.4930	0	27.538	0	1457.779	0	23.2	4	7.1	4	-1E+10	1	-1E+10	1	-1E+10	1	-1E+10	1	-1E+10	1	-1E+10	1
4902551	63	C	05/09/2022	10:57	-131.520	49.327	0	1485.20	0	2.4250	0	34.4950	0	27.541	0	1467.329	0	23.8	4	7.3	4	-1E+10	1	-1E+10	1	-1E+10	1	-1E+10	1	-1E+10	1	-1E+10	1
4902551	63	C	05/09/2022	10:57	-131.520	49.327	0	1495.40	0	2.4120	0	34.4980	0	27.544	0	1477.370	0	24.2	4	7.4	4	-1E+10	1	-1E+10	1	-1E+10	1	-1E+10	1	-1E+10	1	-1E+10	1
4902551	63	C	05/09/2022	10:57	-131.520	49.327	0	1505.70	0	2.4060	0	34.4990	0	27.546	0	1487.510	0	24.5	4	7.5	4	-1E+10	1	-1E+10	1	-1E+10	1	-1E+10	1	-1E+10	1	-1E+10	1
4902551	63	C	05/09/2022	10:57	-131.520	49.327	0	1515.60	0	2.3980	0	34.5000	0	27.547	0	1497.255	0	25.1	4	7.6	4	-1E+10	1	-1E+10	1	-1E+10	1	-1E+10	1	-1E+10	1	-1E+10	1
4902551	63	C	05/09/2022	10:57	-131.520	49.327	0	1525.40	0	2.3800	0	34.5030	0	27.551	0	1506.902	0	25.9	4	7.9	4	-1E+10	1	-1E+10	1	-1E+10	1	-1E+10	1	-1E+10	1	-1E+10	1
4902551	63	C	05/09/2022	10:57	-131.520	49.327	0	1535.70	0	2.3620	0	34.5070	0	27.556	0	1517.040	0	26.8	4	8.1	4	-1E+10	1	-1E+10	1	-1E+10	1	-1E+10	1	-1E+10	1	-1E+10	1
4902551	63	C	05/09/2022	10:57	-131.520	49.327	0	1545.40	0	2.3510	0	34.5090	0	27.558	0	1526.587	0	27.3	4	8.3	4	-1E+10	1	-1E+10	1	-1E+10	1	-1E+10	1	-1E+10	1	-1E+10	1
4902551	63	C	05/09/2022	10:57	-131.520	49.327	0	1555.60	0	2.3370	0	34.5110	0	27.561	0	1536.626	0	28.1	4	8.5	4	-1E+10	1	-1E+10	1	-1E+10	1	-1E+10	1	-1E+10	1	-1E+10	1
4902551	63	C	05/09/2022	10:57	-131.520	49.327	0	1565.60	0	2.3200	0	34.5140	0	27.565	0	1546.467	0	29.1	4	8.8	4	-1E+10	1	-1E+10	1	-1E+10	1	-1E+10	1	-1E+10	1	-1E+10	1
4902551	63	C	05/09/2022	10:57	-131.520	49.327	0	1575.20	0	2.3040	0	34.5170	0	27.569	0	1555.915	0	29.7	4	9.0	4	-1E+10	1	-1E+10	1	-1E+10	1	-1E+10	1	-1E+10	1	-1E+10	1
4902551	63	C	05/09/2022	10:57	-131.520	49.327	0	1585.40	0	2.2930	0	34.5190	0	27.571	0	1565.952	0	30.2	4	9.2	4	-1E+10	1	-1E+10	1	-1E+10	1	-1E+10	1	-1E+10	1	-1E+10	1
4902551	63	C	05/09/2022	10:57	-131.520	49.327	0	1595.30	0	2.2840	0	34.5200	0	27.573	0	1575.694	0	30.7	4	9.3	4	-1E+10	1	-1E+10	1	-1E+10	1	-1E+10	1	-1E+10	1	-1E+10	1
4902551	63	C	05/09/2022	10:57	-131.520	49.327	0	1605.30	0	2.2660	0	34.5230	0	27.577	0	1585.534	0	31.9	4	9.7	4	-1E+10	1	-1E+10	1	-1E+10	1	-1E+10	1	-1E+10	1	-1E+10	1
4902551	63	C	05/09/2022	10:57	-131.520	49.327	0	1615.60	0	2.2420	0	34.5270	0	27.582	0	1595.668	0	33.3	4	10.1	4	-1E+10	1	-1E+10	1	-1E+10	1	-1E+10	1	-1E+10	1	-1E+10	1
4902551	63	C	05/09/2022	10:57	-131.520	49.327	0	1625.30	0	2.2260	0	34.5310	0	27.587	0	1605.212	0	34.3	4	10.4	4	-1E+10	1	-1E+10	1	-1E+10	1	-1E+10	1	-1E+10	1	-1E+10	1
4902551	63	C	05/09/2022	10:57	-131.520	49.327	0	1635.00	0	2.2120	0	34.5330	0	27.589	0	1614.755	0	35.0	4	10.6	4	-1E+10	1	-1E+10	1	-1E+10	1	-1E+10	1	-1E+10	1	-1E+10	1
4902551	63	C	05/09/2022	10:57	-131.520	49.327	0	1645.10	0	2.2020	0	34.5350	0	27.592	0	1624.691	0	35.5	4	10.8	4	-1E+10	1	-1E+10	1	-1E+10	1	-1E+10	1	-1E+10	1	-1E+10	1
4902551	63	C	05/09/2022	10:57	-131.520	49.327	0	1655.50	0	2.1940	0	34.5360	0	27.593	0	1634.922	0	36.1	4	10.9	4	-1E+10	1	-1E+10	1	-1E+10	1	-1E+10	1	-1E+10	1	-1E+10	1
4902551	63	C	05/09/2022	10:57	-131.520	49.327	0	1665.40	0	2.1810	0	34.5380	0	27.596	0	1644.661	0	36.9	4	11.2	4	-1E+10	1	-1E+10	1	-1E+10	1	-1E+10	1	-1E+10	1	-1E+10	1
4902551	63	C	05/09/2022	10:57	-131.520	49.327	0	1675.40	0	2.1620	0	34.5420	0	27.601	0	1654.497	0	37.9	4	11.5	4	-1E+10	1	-1E+10	1	-1E+10	1	-1E+10	1	-1E+10	1	-1E+10	1
4902551	63	C	05/09/2022	10:57	-131.520	49.327	0	1685.30	0	2.1500	0	34.5440	0	27.603	0	1664.235	0	38.6	4	11.7	4	-1E+10	1	-1E+10	1	-1E+10	1	-1E+10	1	-1E+10	1	-1E+10	1
4902551	63	C	05/09/2022	10:57	-131.520	49.327	0	1695.40	0	2.1430	0	34.5450	0	27.605	0	1674.169	0	38.9	4	11.8	4	-1E+10	1	-1E+10	1	-1E+10	1	-1E+10	1	-1E+10	1	-1E+10	1
4902551	63	C	05/09/2022	10:57	-131.520	49.327	0	1705.40	0	2.1390	0	34.5460	0	27.606	0	1684.004	0	39.6	4	12.0	4	-1E+10	1	-1E+10	1	-1E+10	1	-1E+10	1	-1E+10	1	-1E+10	1
4902551	63	C	05/09/2022	10:57	-131.520	49.327	0	1715.30	0	2.1270	0	34.5480	0	27.609	0	1693.740	0	40.1	4	12.1	4	-1E+10	1	-1E+10	1	-1E+10	1	-1E+10	1	-1E+10	1	-1E+10	1
4902551	63	C	05/09/2022	10:57	-131.520	49.327	0	1725.30	0	2.1190	0	34.5500	0	27.611	0	1703.574	0	40.5	4	12.2	4	-1E+10	1	-1E+10	1	-1E+10	1	-1E+10	1	-1E+10	1	-1E+10	1
4902551	63	C	05/09/2022	10:57	-131.520	49.327	0	1735.30	0	2.1150	0	34.5510	0	27.612	0	1713.408	0	40.7	4	12.3	4	-1E+10	1	-1E+10	1	-1E+10	1	-1E+10	1	-1E+10	1	-1E+10	1
4902551	63	C	05/09/2022	10:57	-131.520	49.327	0	1745.30	0	2.1130	0	34.5510	0	27.612	0	1723.241	0	41.0	4	12.4	4	-1E+10	1	-1E+10	1	-1E+10	1	-1E+10	1	-1E+10	1	-1E+10	1
4902551	63	C	05/09/2022	10:57	-131.520	49.327	0	1755.40	0	2.1090	0	34.5520	0	27.613	0	1733.172	0	41.3	4	12.5	4	-1E+10	1	-1E+10	1	-1E+10	1	-1E+10	1	-1E+10	1	-1E+10	1
4902551	63	C	05/09/2022	10:57	-131.520	49.327	0	1765.40	0	2.1000	0	34.5530	0	27.615	0	1743.005	0	41.8	4	12.6	4	-1E+10	1	-1E+10	1	-1E+10	1	-1E+10	1	-1E+10	1	-1E+10	1
4902551	63	C	05/09/2022	10:57	-131.520	49.327	0	1775.80	0	2.0940	0	34.5550	0	27.617	0	1753.230	0	42.1	4	12.7	4	-1E+10	1	-1E+10	1	-1E+10	1	-1E+10	1	-1E+10	1	-1E+10	1
4902551	63	C	05/09/2022	10:57	-131.520	49.327	0	1785.40	0	2.0920	0	34.5550	0	27.617	0	1762.668	0	42.4	4	12.8	4	-1E+10	1	-1E+10	1	-1E+10	1	-1E+10	1	-1E+10	1	-1E+10	1
4902551	63	C	05/09/2022	10:57	-131.520	49.327	0	1795.10	0	2.0910	0	34.5560	0	27.618	0	1772.204	0	42.9	4	13.0	4	-1E+10	1	-1E+10	1	-1E+10	1	-1E+10	1	-1E+10	1	-1E+10	1
4902551	63	C	05/09/2022	10:57	-131.520	49.327	0	1805.20	0	2.0840	0	34.5570	0	27.620	0	1782.133	0	43.7	4	13.2	4	-1E+10	1	-1E+10	1	-1E+10	1	-1E+10	1	-1E+10	1	-1E+10	1
4902551	63	C	05/09/2022	10:57	-131.520	49.327	0	1815.10	0	2.0710	0	34.5590	0	27.622	0	1791.864	0	44.4	4	13.4	4	-1E+10	1	-1E+10	1	-1E+10	1	-1E+10	1	-1E+10	1	-1E+10	1
4902551	63	C	05/09/2022	10:57	-131.520	49.327	0	1825.10	0	2.0610	0	34.5610	0	27.625	0	1801.694	0	45.0	4	13.6	4	-1E+10	1	-1E+10	1	-1E+10	1	-1E+10	1	-1E+10	1	-1E+10	1
4902551	63	C	05/09/2022	10:57	-131.520	49.327	0	1835.30	0	2.0570	0	34.5620	0	27.626	0	1811.720	0	45.5	4	13.7	4	-1E+10	1	-1E+10	1	-1E+10	1	-1E+10	1	-1E+10	1	-1E+10	1
4902551	63	C	05/09/2022	10:57	-131.520	49.327	0	1845.50	0	2.0510	0	34.5630	0	27.627	0	1821.745	0	46.0	4	13.9	4	-1E+10	1	-1E+10	1	-1E+10	1	-1E+10	1	-1E+10	1	-1E+10	1
4902551	63	C	05/09/2022	10:57	-131.520	49.327	0	1855.60	0	2.0460	0	34.5640	0	27.629	0	1831.672	0	46.5	4	14.0	4	-1E+10	1	-1E+10	1	-1E+10	1	-1E+10	1	-1E+10	1	-1E+10	1
4902551	63	C	05/09/2022	10:57	-131.520	49.327	0	1865.70	0	2.0380	0	34.5660	0	27.631	0	1841.598	0	47.1	4	14.2	4	-1E+10	1	-1E+10	1	-1E+10	1	-1E+10	1	-1E+10	1	-1E+10	1
4902551	63	C	05/09/2022	10:57	-131.520	49.327	0	1875.40	0	2.0310	0	34.5670	0	27.632	0	1851.130	0	47.7	4	14.4	4	-1E+10	1	-1E+10	1	-1E+10	1	-1E+10	1	-1E+10	1	-1E+10	1
4902551	63	C	05/09/2022	10:57	-131.520	49.327	0	1885.20	0	2.0270	0	34.5680	0	27.633	0	1860.760	0	48.2	4	14.5	4	-1E+10	1	-1E+10	1	-1E+10	1	-1E+10	1	-1E+10	1	-1E+10	1
4902551	63	C	05/09/2022	10:57	-131.520	49.327	0	1895.40	0	2.0160	0	34.5700	0	27.636	0	1870.783	0	48.9	4	14.7	4	-1E+10	1	-1E+10	1	-1E+10	1	-1E+10	1	-1E+10	1	-1E+10	1
4902551	63	C	05/09/2022	10:57	-131.520	49.327	0	1905.30	0	2.0080	0	34.5710	0	27.637	0	1880.511	0	49.3	4	14.9	4	-1E+10	1	-1E+10	1	-1E+10	1	-1E+10	1	-1E+10	1	-1E+10	1
4902551	63	C	05/09/2022	10:57	-131.520	49.327	0	1915.30	0	2.0010	0	34.5720	0	27.639	0	1890.337	0	50.0	4	15.1	4	-1E+10	1	-1E+10	1	-1E+10	1	-1E+10	1	-1E+10	1	-1E+10	1
4902551	63	C	05/09/2022	10:57	-131.520	49.327	0	1925.60	0	1.9880	0	34.5740	0	27.641	0	1900.456	0	50.7	4	15.3	4	-1E+10	1	-1E+10	1	-1E+10	1	-1E+10	1	-1E+10	1	-1E+10	1
4902551	63	C	05/09/2022	10:57	-131.520	49.327	0	1935.60	0	1.9820	0	34.5760	0	27.644	0	1910.281	0	51.1	4	15.4	4	-1E+10	1	-1E+10	1	-1E+10	1	-1E+10	1	-1E+10	1	-1E+10	1
4902551	63	C	05/09/2022	10:57	-131.520	49.327	0	1945.20	0	1.9800	0	34.5760	0	27.644	0	1919.712	0	51.5	4	15.5	4	-1E+10	1	-1E+10	1	-1E+10	1	-1E+10	1	-1E+10	1	-1E+10	1
4902551	63	C	05/09/2022	10:57	-131.520	49.327	0	1955.40	0	1.9770	0	34.5770	0	27.645	0	1929.732	0	52.0	4	15.7	4	-1E+10	1	-1E+10	1	-1E+10	1	-1E+10	1	-1E+10	1	-1E+10	1
4902551	63	C	05/09/2022	10:57	-131.520	49.327	0	1965.60	0	1.9700	0	34.5780	0	27.646	0	1939.752	0	52.6	4	15.9	4	-1E+10	1	-1E+10	1	-1E+10	1	-1E+10	1	-1E+10	1	-1E+10	1
4902551	63	C	05/09/2022	10:57	-131.520	49.327	0	1975.40	0	1.9620	0	34.5800	0	27.649	0	1949.378	0	53.4	4	16.1	4	-1E+10	1	-1E+10	1	-1E+10	1	-1E+10	1	-1E+10	1	-1E+10	1
4902551	63	C	05/09/2022	10:57	-131.520	49.327	0	1985.20	0	1.9530	0	34.5810	0	27.650	0	1959.004	0	54.2	4	16.3	4	-1E+10	1	-1E+10	1	-1E+10	1	-1E+10	1	-1E+10	1	-1E+10	1
4902551	63	C	05/09/2022	10:57	-131.520	49.327	0	1995.80	0	1.9460	0	34.5830	0	27.652	0	1969.416	0	55.0	4	16.6	4	-1E+10	1	-1E+10	1	-1E+10	1	-1E+10	1	-1E+10	1	-1E+10	1
4902551	63	C	05/09/2022	10:57	-131.520	49.327	0	2002.20	0	1.9400	0	34.5840	0	27.654	0	1975.701	0	55.3	4	16.7	4	-1E+10	1	-1E+10	1	-1E+10	1	-1E+10	1	-1E+10	1	-1E+10	1
4902551	63	C	05/09/2022	10:57	-131.520	49.327	0																										
4902551	64	C	05/19/2022	16:03	-131.249	49.097	0	0.40	0	8.0790	0	32.2890	0	25.134	0	0.397	0	279.3	4	95.6	4	-1E+10	1	-1E+10	1	-1E+10	1	-1E+10	1	-1E+10	1	-1E+10	1
4902551	64	C	05/19/2022	16:03	-131.249	49.097	0	0.60	0	8.0770	0	32.2907	0	25.136	0	0.595	0	279.3	4	95.6	4	-1E+10	1	-1E+10	1	-1E+10	1	-1E+10	1	-1E+10	1	-1E+10	1
4902551	64	C	05/19/2022	16:03	-131.249	49.097	0	1.00	0	8.0730	0	32.2940	0	25.139	0	0.992	0	279.1	4	95.5	4	-1E+10	1	-1E+10	1	-1E+10	1	-1E+10	1	-1E+10	1	-1E+10	1
4902551	64	C	05/19/2022	16:03	-131.249	49.097	0	2.10	0	8.0740	0	32.2930	0	25.138	0	2.082	0	279.2	4	95.6	4	-1E+10	1	-1E+10	1	-1E+10	1	-1E+10	1	-1E+10	1	-1E+10	1
4902551	64	C	05/19/2022	16:03	-131.249	49.097	0	3.00	0	8.0750	0	32.2920	0	25.137	0	2.975	0	279.0	4	95.5	4	-1E+10	1	-1E+10	1	-1E+10	1	-1E+10	1	-1E+10	1	-1E+10	1
4902551	64	C	05/19/2022	16:03	-131.249	49.097	0	3.90	0	8.0740	0	32.2950	0	25.140	0	3.867	0	279.0	4	95.5	4	-1E+10	1	-1E+10	1	-1E+10	1	-1E+10	1	-1E+10	1	-1E+10	1
4902551	64	C	05/19/2022	16:03	-131.249	49.097	0	4.90	0	8.0700	0	32.2980	0	25.143	0	4.858	0	278.9	4	95.5	4	-1E+10	1	-1E+10	1	-1E+10	1	-1E+10	1	-1E+10	1	-1E+10	1
4902551	64	C	05/19/2022	16:03	-131.249	49.097	0	5.90	0	8.0700	0	32.2980	0	25.143	0	5.850	0	278.8	4	95.4	4	-1E+10	1	-1E+10	1	-1E+10	1	-1E+10	1	-1E+10	1	-1E+10	1
4902551	64	C	05/19/2022	16:03	-131.249	49.097	0	6.90	0	8.0700	0	32.2980	0	25.143	0	6.841	0	278.8	4	95.4	4	-1E+10	1	-1E+10	1	-1E+10	1	-1E+10	1	-1E+10	1	-1E+10	1
4902551	64	C	05/19/2022	16:03	-131.249	49.097	0	7.90	0	8.0700	0	32.2990	0	25.143	0	7.833	0	278.7	4	95.4	4	-1E+10	1	-1E+10	1	-1E+10	1	-1E+10	1	-1E+10	1	-1E+10	1
4902551	64	C	05/19/2022	16:03	-131.249	49.097	0	9.20	0	8.0690	0	32.3000	0	25.144	0	9.122	0	278.6	4	95.4	4	-1E+10	1	-1E+10	1	-1E+10	1	-1E+10	1	-1E+10	1	-1E+10	1
4902551	64	C	05/19/2022	16:03	-131.249	49.097	0	9.80	0	8.0650	0	32.2990	0	25.144	0	9.717	0	278.6	4	95.4	4	-1E+10	1	-1E+10	1	-1E+10	1	-1E+10	1	-1E+10	1	-1E+10	1
4902551	64	C	05/19/2022	16:03	-131.249	49.097	0	11.10	0	8.0640	0	32.2980	0	25.144	0	11.005	0	278.5	4	95.3	4	-1E+10	1	-1E+10	1	-1E+10	1	-1E+10	1	-1E+10	1	-1E+10	1
4902551	64	C	05/19/2022	16:03	-131.249	49.097	0	12.20	0	8.0640	0	32.2980	0	25.144	0	12.096	0	278.5	4	95.3	4	-1E+10	1	-1E+10	1	-1E+10	1	-1E+10	1	-1E+10	1	-1E+10	1
4902551	64	C	05/19/2022	16:03	-131.249	49.097	0	13.00	0	8.0640	0	32.2990	0	25.144	0	12.889	0	278.5	4	95.3	4	-1E+10	1	-1E+10	1	-1E+10	1	-1E+10	1	-1E+10	1	-1E+10	1
4902551	64	C	05/19/2022	16:03	-131.249	49.097	0	14.20	0	8.0640	0	32.2990	0	25.144	0	14.079	0	278.4	4	95.3	4	-1E+10	1	-1E+10	1	-1E+10	1	-1E+10	1	-1E+10	1	-1E+10	1
4902551	64	C	05/19/2022	16:03	-131.249	49.097	0	15.00	0	8.0640	0	32.2990	0	25.144	0	14.872	0	278.3	4	95.2	4	-1E+10	1	-1E+10	1	-1E+10	1	-1E+10	1	-1E+10	1	-1E+10	1
4902551	64	C	05/19/2022	16:03	-131.249	49.097	0	16.30	0	8.0640	0	32.2990	0	25.144	0	16.161	0	278.2	4	95.2	4	-1E+10	1	-1E+10	1	-1E+10	1	-1E+10	1	-1E+10	1	-1E+10	1
4902551	64	C	05/19/2022	16:03	-131.249	49.097	0	17.20	0	8.0650	0	32.2990	0	25.144	0	17.053	0	278.1	4	95.2	4	-1E+10	1	-1E+10	1	-1E+10	1	-1E+10	1	-1E+10	1	-1E+10	1
4902551	64	C	05/19/2022	16:03	-131.249	49.097	0	17.90	0	8.0650	0	32.2990	0	25.144	0	17.747	0	278.1	4	95.2	4	-1E+10	1	-1E+10	1	-1E+10	1	-1E+10	1	-1E+10	1	-1E+10	1
4902551	64	C	05/19/2022	16:03	-131.249	49.097	0	18.80	0	8.0650	0	32.2990	0	25.144	0	18.640	0	278.1	4	95.2	4	-1E+10	1	-1E+10	1	-1E+10	1	-1E+10	1	-1E+10	1	-1E+10	1
4902551	64	C	05/19/2022	16:03	-131.249	49.097	0	19.90	0	8.0640	0	32.2990	0	25.144	0	19.730	0	278.0	4	95.1	4	-1E+10	1	-1E+10	1	-1E+10	1	-1E+10	1	-1E+10	1	-1E+10	1
4902551	64	C	05/19/2022	16:03	-131.249	49.097	0	21.30	0	8.0630	0	32.3000	0	25.145	0	21.118	0	277.9	4	95.1	4	-1E+10	1	-1E+10	1	-1E+10	1	-1E+10	1	-1E+10	1	-1E+10	1
4902551	64	C	05/19/2022	16:03	-131.249	49.097	0	22.20	0	8.0640	0	32.2970	0	25.143	0	22.010	0	277.8	4	95.1	4	-1E+10	1	-1E+10	1	-1E+10	1	-1E+10	1	-1E+10	1	-1E+10	1
4902551	64	C	05/19/2022	16:03	-131.249	49.097	0	23.10	0	8.0630	0	32.2990	0	25.145	0	22.903	0	277.8	4	95.1	4	-1E+10	1	-1E+10	1	-1E+10	1	-1E+10	1	-1E+10	1	-1E+10	1
4902551	64	C	05/19/2022	16:03	-131.249	49.097	0	23.80	0	8.0620	0	32.2990	0	25.145	0	23.597	0	277.7	4	95.0	4	-1E+10	1	-1E+10	1	-1E+10	1	-1E+10	1	-1E+10	1	-1E+10	1
4902551	64	C	05/19/2022	16:03	-131.249	49.097	0	24.70	0	8.0610	0	32.2990	0	25.145	0	24.489	0	277.6	4	95.0	4	-1E+10	1	-1E+10	1	-1E+10	1	-1E+10	1	-1E+10	1	-1E+10	1
4902551	64	C	05/19/2022	16:03	-131.249	49.097	0	25.80	0	8.0590	0	32.2990	0	25.145	0	25.579	0	277.5	4	95.0	4	-1E+10	1	-1E+10	1	-1E+10	1	-1E+10	1	-1E+10	1	-1E+10	1
4902551	64	C	05/19/2022	16:03	-131.249	49.097	0	26.70	0	8.0590	0	32.2990	0	25.145	0	26.472	0	277.6	4	95.0	4	-1E+10	1	-1E+10	1	-1E+10	1	-1E+10	1	-1E+10	1	-1E+10	1
4902551	64	C	05/19/2022	16:03	-131.249	49.097	0	27.90	0	8.0590	0	32.2990	0	25.145	0	27.661	0	277.4	4	94.9	4	-1E+10	1	-1E+10	1	-1E+10	1	-1E+10	1	-1E+10	1	-1E+10	1
4902551	64	C	05/19/2022	16:03	-131.249	49.097	0	28.90	0	8.0590	0	32.2990	0	25.145	0	28.653	0	277.4	4	94.9	4	-1E+10	1	-1E+10	1	-1E+10	1	-1E+10	1	-1E+10	1	-1E+10	1
4902551	64	C	05/19/2022	16:03	-131.249	49.097	0	30.00	0	8.0590	0	32.2990	0	25.145	0	29.743	0	277.3	4	94.9	4	-1E+10	1	-1E+10	1	-1E+10	1	-1E+10	1	-1E+10	1	-1E+10	1
4902551	64	C	05/19/2022	16:03	-131.249	49.097	0	31.00	0	8.0590	0	32.2990	0	25.145	0	30.734	0	277.2	4	94.8	4	-1E+10	1	-1E+10	1	-1E+10	1	-1E+10	1	-1E+10	1	-1E+10	1
4902551	64	C	05/19/2022	16:03	-131.249	49.097	0	32.00	0	8.0580	0	32.2990	0	25.146	0	31.726	0	277.1	4	94.8	4	-1E+10	1	-1E+10	1	-1E+10	1	-1E+10	1	-1E+10	1	-1E+10	1
4902551	64	C	05/19/2022	16:03	-131.249	49.097	0	33.20	0	8.0570	0	32.3010	0	25.147	0	32.915	0	276.9	4	94.8	4	-1E+10	1	-1E+10	1	-1E+10	1	-1E+10	1	-1E+10	1	-1E+10	1
4902551	64	C	05/19/2022	16:03	-131.249	49.097	0	34.10	0	8.0550	0	32.2990	0	25.146	0	33.808	0	276.8	4	94.7	4	-1E+10	1	-1E+10	1	-1E+10	1	-1E+10	1	-1E+10	1	-1E+10	1
4902551	64	C	05/19/2022	16:03	-131.249	49.097	0	34.90	0	8.0520	0	32.2990	0	25.146	0	34.601	0	276.5	4	94.6	4	-1E+10	1	-1E+10	1	-1E+10	1	-1E+10	1	-1E+10	1	-1E+10	1
4902551	64	C	05/19/2022	16:03	-131.249	49.097	0	36.00	0	8.0520	0	32.2980	0	25.146	0	35.691	0	276.3	4	94.5	4	-1E+10	1	-1E+10	1	-1E+10	1	-1E+10	1	-1E+10	1	-1E+10	1
4902551	64	C	05/19/2022	16:03	-131.249	49.097	0	36.70	0	8.0320	0	32.3040	0	25.153	0	36.385	0	276.1	4	94.4	4	-1E+10	1	-1E+10	1	-1E+10	1	-1E+10	1	-1E+10	1	-1E+10	1
4902551	64	C	05/19/2022	16:03	-131.249	49.097	0	38.00	0	7.9980	0	32.3020	0	25.157	0	37.674	0	275.8	4	94.3	4	-1E+10	1	-1E+10	1	-1E+10	1	-1E+10	1	-1E+10	1	-1E+10	1
4902551	64	C	05/19/2022	16:03	-131.249	49.097	0	39.20	0	7.9610	0	32.3130	0	25.171	0	38.863	0	275.7	4	94.2	4	-1E+10	1	-1E+10	1	-1E+10	1	-1E+10	1	-1E+10	1	-1E+10	1
4902551	64	C	05/19/2022	16:03	-131.249	49.097	0	39.90	0	7.9190	0	32.3030	0	25.169	0	39.557	0	275.8	4	94.1	4	-1E+10	1	-1E+10	1	-1E+10	1	-1E+10	1	-1E+10	1	-1E+10	1
4902551	64	C	05/19/2022	16:03	-131.249	49.097	0	41.00	0	7.8800	0	32.3020	0	25.174	0	40.648	0	275.7	4	94.0	4	-1E+10	1	-1E+10	1	-1E+10	1	-1E+10	1	-1E+10	1	-1E+10	1
4902551	64	C	05/19/2022	16:03	-131.249	49.097	0	42.20	0	7.8240	0	32.3020	0	25.182	0	41.837	0	275.6	4	93.8	4	-1E+10	1	-1E+10	1	-1E+10	1	-1E+10	1	-1E+10	1	-1E+10	1
4902551	64	C	05/19/2022	16:03	-131.249	49.097	0	43.10	0	7.7730	0	32.3030	0	25.190	0	42.730	0	275.7	4	93.8	4	-1E+10	1	-1E+10	1	-1E+10	1	-1E+10	1	-1E+10	1	-1E+10	1
4902551	64	C	05/19/2022	16:03	-131.249	49.097	0	44.00	0	7.7700	0	32.3070	0	25.193	0	43.622	0	275.4	4	93.6	4	-1E+10	1	-1E+10	1	-1E+10	1	-1E+10	1	-1E+10	1	-1E+10	1
4902551	64	C	05/19/2022	16:03	-131.249	49.097	0	44.90	0	7.7480	0	32.3050	0	25.195	0	44.514	0	275.0	4	93.4	4	-1E+10	1	-1E+10	1	-1E+10	1	-1E+10	1	-1E+10	1	-1E+10	1
4902551	64	C	05/19/2022	16:03	-131.249	49.097	0	46.30	0	7.7120	0	32.3100	0	25.204	0	45.902	0	274.4	4	93.2	4	-1E+10	1	-1E+10	1	-1E+10	1	-1E+10	1	-1E+10	1	-1E+10	1
4902551	64	C	05/19/2022	16:03	-131.249	49.097	0	47.00	0	7.6990	0	32.3130	0	25.208	0	46.596	0	274.0	4	93.0	4	-1E+10	1	-1E+10	1	-1E+10	1	-1E+10	1	-1E+10	1	-1E+10	1
4902551	64	C	05/19/2022	16:03	-131.249	49.097	0	47.90	0	7.6730	0	32.3130	0	25.212	0	47.488	0	273.5	4	92.8	4	-1E+10	1	-1E+10	1	-1E+10	1	-1E+10	1	-1E+10	1	-1E+10	1
4902551	64	C	05/19/2022	16:03	-131.249	49.097	0	48.80	0	7.6650	0	32.3100	0	25.210	0	48.380	0	272.8	4	92.5	4	-1E+10	1	-1E+10	1	-1E+10	1	-1E+10	1	-1E+10	1	-1E+10	1
4902551	64	C	05/19/2022	16:03	-131.249	49.097	0	50.00	0	7.6330	0	32.3190	0	25.222	0	49.569	0	271.7	4	92.1	4	-1E+10	1	-1E+10	1	-1E+10	1	-1E+10	1	-1E+10	1	-1E+10	1
4902551	64	C	05/19/2022	16:03	-131.249	49.097	0	50.70	0	7.6140	0	32.3190	0	25.225	0	50.263	0	271.1	4	91.8	4	-1E+10	1	-1E+10	1	-1E+10	1	-1E+10	1	-1E+10	1	-1E+10	1
4902551	64	C	05/19/2022	16:03	-131.249	49.097	0	51.70	0	7.5770	0	32.3220	0	25.232	0	51.255	0	270.2	4	91.5	4	-1E+10	1	-1E+10	1	-1E+10	1	-1E+10	1	-1E+10	1	-1E+10	1
4902551	64	C	05/19/2022	16:03	-131.249	49.097	0	52.90	0	7.5270	0	32.3210	0	25.238	0	52.444	0	268.7	4	90.9	4	-1E+10	1	-1E+10	1	-1E+10	1	-1E+10	1	-1E+10	1	-1E+10	1
4902551	64	C	05/19/2022	16:03	-131.249	49.097	0	54.10	0	7.5100	0	32.3230	0	25.242	0	53.634	0	266.7	4	90.2	4	-1E+10	1	-1E+10	1	-1E+10	1	-1E+10	1	-1E+10	1	-1E+10	1
4902551	64	C	05/19/2022	16:03	-131.249	49.097	0	55.20	0	7.4340	0	32.3350	0	25.262	0	54.724	0	264.3	4	89.2	4	-1E+10	1	-1E+10	1	-1E+10	1	-1E+10	1	-1E+10	1	-1E+10	1
4902551	64	C	05/19/2022	16:03	-131.249	49.097	0	55.90	0	7.4010	0	32.3360	0	25.267	0	55.418	0	261.9	4	88.3	4	-1E+10	1	-1E+10	1	-1E+10	1	-1E+10	1	-1E+10	1	-1E+10	1
4902551	64	C	05/19/2022	16:03	-131.249	49.097	0	57.10	0	7.2960	0	32.3670	0	25.306	0	56.607	0	254.9	4	85.8	4	-1E+10	1	-1E+10	1	-1E+10	1	-1E+10	1	-1E+10	1	-1E+10	1
4902551	64	C	05/19/2022	16:03	-131.249	49.097	0	57.90	0	7.1800	0	32.4090	0	25.355	0	57.400	0	250.9	4	84.2	4	-1E+10	1	-1E+10	1	-1E+10	1	-1E+10	1	-1E+10	1	-1E+10	1
4902551	64	C	05/19/2022	16:03	-131.249	49.097	0	59.10	0	7.0910	0	32.4550	0	25.403	0	58.590	0	246.2	4	82.5	4	-1E+10	1	-1E+10	1	-1E+10	1	-1E+10	1	-1E+10	1	-1E+10	1
4902551	64	C	05/19/2022	16:03	-131.249	49.097	0	60.20	0	7.0510	0	32.5080	0	25.450	0	59.680	0	242.2	4	81.1	4	-1E+10	1	-1E+10	1	-1E+10	1	-1E+10	1	-1E+10	1	-1E+10	1
4902551	64	C	05/19/2022	16:03	-131.249	49.097	0	61.00	0	7.0490	0	32.5300	0	25.468	0	60.473	0	239.2	4	80.1	4	-1E+10	1	-1E+10	1	-1E+10	1	-1E+10	1	-1E+10	1	-1E+10	1
4902551	64	C	05/19/2022	16:03	-131.249	49.097	0	61.80	0	7.0460	0	32.5470	0	25.482	0	61.266	0	236.9	4	79.4	4	-1E+10	1	-1E+10	1	-1E+10	1	-1E+10	1	-1E+10	1	-1E+10	1
4902551	64	C	05/19/2022	16:03	-131.249	49.097	0	63.10	0	7.0450	0	32.5820	0	25.509	0	62.555	0	233.9	4	78.4	4	-1E+10	1	-1E+10	1	-1E+10	1	-1E+10	1	-1E+10	1	-1E+10	1
4902551	64	C	05/19/2022	16:03	-131.249	49.097	0	64.20	0	7.0450	0	32.5920	0	25.517	0	63.645	0	232.1	4	77.8	4	-1E+10	1	-1E+10	1	-1E+10	1	-1E+10	1	-1E+10	1	-1E+10	1
4902551	64	C	05/19/2022	16:03	-131.249	49.097	0	64.90	0	7.0430	0	32.5980	0	25.522	0	64.339	0	230.9	4	77.4	4	-1E+10	1	-1E+10	1	-1E+10	1	-1E+10	1	-1E+10	1	-1E+10	1
4902551	64	C	05/19/2022	16:03	-131.249	49.097	0	66.10	0	7.0390	0	32.6080	0	25.531	0	65.528	0	228.3	4	76.5	4	-1E+10	1	-1E+10	1	-1E+10	1	-1E+10	1	-1E+10	1	-1E+10	1
4902551	64	C	05/19/2022	16:03	-131.249	49.097	0	66.90	0	7.0380	0	32.6080	0	25.531	0	66.321	0	226.4	4	75.9	4	-1E+10	1	-1E+10	1	-1E+10	1	-1E+10	1	-1E+10	1	-1E+10	1
4902551	64	C	05/19/2022	16:03	-131.249	49.097	0	68.00	0	7.0310	0	32.6180	0	25.540	0	67.411	0	224.0	4	75.0	4	-1E+10	1	-1E+10	1	-1E+10	1	-1E+10	1	-1E+10	1	-1E+10	1
4902551	64	C	05/19/2022	16:03	-131.249	49.097	0	69.00	0	7.0250	0	32.6260	0	25.547	0	68.403	0	221.3	4	74.2	4	-1E+10	1	-1E+10	1	-1E+10	1	-1E+10	1	-1E+10	1	-1E+10	1
4902551	64	C	05/19/2022	16:03	-131.249	49.097	0	70.00	0	7.0230	0	32.6340	0	25.553	0	69.394	0	217.8	4	73.0	4	-1E+10	1	-1E+10	1	-1E+10	1	-1E+10	1	-1E+10	1	-1E+10	1
4902551	64	C	05/19/2022	16:03	-131.249	49.097	0	71.10	0	7.0180	0	32.6700	0	25.582	0	70.484	0	213.5	4	71.5	4	-1E+10	1	-1E+10	1	-1E+10	1	-1E+10	1	-1E+10	1	-1E+10	1
4902551	64	C	05/19/2022	16:03	-131.249	49.097	0	72.20	0	7.0050	0	32.6960	0	25.605	0	71.574	0	210.6	4	70.6	4	-1E+10	1	-1E+10	1	-1E+10	1	-1E+10	1	-1E+10	1	-1E+10	1
4902551	64	C	05/19/2022	16:03	-131.249	49.097	0	72.90	0	6.9780	0	32.7250	0	25.631	0	72.268	0	209.0	4	70.0	4	-1E+10	1	-1E+10	1	-1E+10	1	-1E+10	1	-1E+10	1	-1E+10	1
4902551	64	C	05/19/2022	16:03	-131.249	49.097	0	73.90	0	6.9700	0	32.7320	0	25.638	0	73.259	0	207.1	4	69.4	4	-1E+10	1	-1E+10	1	-1E+10	1	-1E+10	1	-1E+10	1	-1E+10	1
4902551	64	C	05/19/2022	16:03	-131.249	49.097	0	74.90	0	6.9000	0	32.7850	0	25.689	0	74.251	0	204.5	4	68.4	4	-1E+10	1	-1E+10	1	-1E+10	1	-1E+10	1	-1E+10	1	-1E+10	1
4902551	64	C	05/19/2022	16:03	-131.249	49.097	0	76.00	0	6.8720	0	32.8130	0	25.714	0	75.341	0	202.3	4	67.6	4	-1E+10	1	-1E+10	1	-1E+10	1	-1E+10	1	-1E+10	1	-1E+10	1
4902551	64	C	05/19/2022	16:03	-131.249	49.097	0	76.90	0	6.8610	0	32.8270	0	25.727	0	76.233	0	201.0	4	67.2	4	-1E+10	1	-1E+10	1	-1E+10	1	-1E+10	1	-1E+10	1	-1E+10	1
4902551	64	C	05/19/2022	16:03	-131.249	49.097	0	78.10	0	6.8350	0	32.8570	0	25.754	0	77.422	0	198.4	4	66.3	4	-1E+10	1	-1E+10	1	-1E+10	1	-1E+10	1	-1E+10	1	-1E+10	1
4902551	64	C	05/19/2022	16:03	-131.249	49.097	0	79.10	0	6.8110	0	32.8930	0	25.786	0	78.413	0	196.0	4	65.5	4	-1E+10	1	-1E+10	1	-1E+10	1	-1E+10	1	-1E+10	1	-1E+10	1
4902551	64	C	05/19/2022	16:03	-131.249	49.097	0	79.90	0	6.8150	0	32.8990	0	25.790	0	79.206	0	193.8	4	64.8	4	-1E+10	1	-1E+10	1	-1E+10	1	-1E+10	1	-1E+10	1	-1E+10	1
4902551	64	C	05/19/2022	16:03	-131.249	49.097	0	81.00	0	6.8170	0	32.9040	0	25.793	0	80.296	0	190.4	4	63.6	4	-1E+10	1	-1E+10	1	-1E+10	1	-1E+10	1	-1E+10	1	-1E+10	1
4902551	64	C	05/19/2022	16:03	-131.249	49.097	0	81.90	0	6.8190	0	32.9070	0	25.796	0	81.188	0	187.0	4	62.5	4	-1E+10	1	-1E+10	1	-1E+10	1	-1E+10	1	-1E+10	1	-1E+10	1
4902551	64	C	05/19/2022	16:03	-131.249	49.097	0	82.90	0	6.8300	0	32.9100	0	25.797	0	82.180	0	182.8	4	61.1	4	-1E+10	1	-1E+10	1	-1E+10	1	-1E+10	1	-1E+10	1	-1E+10	1
4902551	64	C	05/19/2022	16:03	-131.249	49.097	0	83.90	0	6.8460	0	32.9420	0	25.820	0	83.171	0	183.0	4	61.2	4	-1E+10	1	-1E+10	1	-1E+10	1	-1E+10	1	-1E+10	1	-1E+10	1
4902551	64	C	05/19/2022	16:03	-131.249	49.097	0	85.00	0	6.8630	0	32.9680	0	25.838	0	84.261	0	175.9	4	58.9	4	-1E+10	1	-1E+10	1	-1E+10	1	-1E+10	1	-1E+10	1	-1E+10	1
4902551	64	C	05/19/2022	16:03	-131.249	49.097	0	86.00	0	6.9950	0	33.0690	0	25.900	0	85.252	0	158.0	4	53.1	4	-1E+10	1	-1E+10	1	-1E+10	1	-1E+10	1	-1E+10	1	-1E+10	1
4902551	64	C	05/19/2022	16:03	-131.249	49.097	0	87.00	0	7.2140	0	33.2120	0	25.983	0	86.243	0	139.5	4	47.1	4	-1E+10	1	-1E+10	1	-1E+10	1	-1E+10	1	-1E+10	1	-1E+10	1
4902551	64	C	05/19/2022	16:03	-131.249	49.097	0	88.00	0	7.2880	0	33.2620	0	26.012	0	87.234	0	133.8	4	45.3	4	-1E+10	1	-1E+10	1	-1E+10	1	-1E+10	1	-1E+10	1	-1E+10	1
4902551	64	C	05/19/2022	16:03	-131.249	49.097	0	88.90	0	7.3240	0	33.2760	0	26.018	0	88.126	0	129.6	4	43.9	4	-1E+10	1	-1E+10	1	-1E+10	1	-1E+10	1	-1E+10	1	-1E+10	1
4902551	64	C	05/19/2022	16:03	-131.249	49.097	0	90.00	0	7.3420	0	33.3070	0	26.040	0	89.216	0	124.2	4	42.1	4	-1E+10	1	-1E+10	1	-1E+10	1	-1E+10	1	-1E+10	1	-1E+10	1
4902551	64	C	05/19/2022	16:03	-131.249	49.097	0	91.20	0	7.3790	0	33.3450	0	26.064	0	90.406	0	118.4	4	40.2	4	-1E+10	1	-1E+10	1	-1E+10	1	-1E+10	1	-1E+10	1	-1E+10	1
4902551	64	C	05/19/2022	16:03	-131.249	49.097	0	91.80	0	7.3890	0	33.3560	0	26.072	0	91.000	0	115.4	4	39.2	4	-1E+10	1	-1E+10	1	-1E+10	1	-1E+10	1	-1E+10	1	-1E+10	1
4902551	64	C	05/19/2022	16:03	-131.249	49.097	0	92.70	0	7.3940	0	33.3660	0	26.079	0	91.892	0	111.2	4	37.8	4	-1E+10	1	-1E+10	1	-1E+10	1	-1E+10	1	-1E+10	1	-1E+10	1
4902551	64	C	05/19/2022	16:03	-131.249	49.097	0	93.70	0	7.3970	0	33.3710	0	26.082	0	92.883	0	105.6	4	35.9	4	-1E+10	1	-1E+10	1	-1E+10	1	-1E+10	1	-1E+10	1	-1E+10	1
4902551	64	C	05/19/2022	16:03	-131.249	49.097	0	94.70	0	7.4030	0	33.3740	0	26.084	0	93.874	0	99.2	4	33.7	4	-1E+10	1	-1E+10	1	-1E+10	1	-1E+10	1	-1E+10	1	-1E+10	1
4902551	64	C	05/19/2022	16:03	-131.249	49.097	0	95.90	0	7.4680	0	33.4250	0	26.115	0	95.064	0	94.0	4	32.0	4	-1E+10	1	-1E+10	1	-1E+10	1	-1E+10	1	-1E+10	1	-1E+10	1
4902551	64	C	05/19/2022	16:03	-131.249	49.097	0	96.80	0	7.4960	0	33.4750	0	26.150	0	95.956	0	90.7	4	30.9	4	-1E+10	1	-1E+10	1	-1E+10	1	-1E+10	1	-1E+10	1	-1E+10	1
4902551	64	C	05/19/2022	16:03	-131.249	49.097	0	97.80	0	7.5250	0	33.5050	0	26.170	0	96.947	0	87.5	4	29.8	4	-1E+10	1	-1E+10	1	-1E+10	1	-1E+10	1	-1E+10	1	-1E+10	1
4902551	64	C	05/19/2022	16:03	-131.249	49.097	0	98.80	0	7.5400	0	33.5210	0	26.180	0	97.938	0	84.2	4	28.7	4	-1E+10	1	-1E+10	1	-1E+10	1	-1E+10	1	-1E+10	1	-1E+10	1
4902551	64	C	05/19/2022	16:03	-131.249	49.097	0	99.80	0	7.5700	0	33.5820	0	26.224	0	98.929	0	82.4	4	28.2	4	-1E+10	1	-1E+10	1	-1E+10	1	-1E+10	1	-1E+10	1	-1E+10	1
4902551	64	C	05/19/2022	16:03	-131.249	49.097	0	100.90	0	7.5850	0	33.6290	0	26.259	0	100.019	0	81.2	4	27.7	4	-1E+10	1	-1E+10	1	-1E+10	1	-1E+10	1	-1E+10	1	-1E+10	1
4902551	64	C	05/19/2022	16:03	-131.249	49.097	0	101.80	0	7.5850	0	33.6330	0	26.262	0	100.911	0	80.0	4	27.4	4	-1E+10	1	-1E+10	1	-1E+10	1	-1E+10	1	-1E+10	1	-1E+10	1
4902551	64	C	05/19/2022	16:03	-131.249	49.097	0	102.80	0	7.5860	0	33.6360	0	26.264	0	101.902	0	78.9	4	27.0	4	-1E+10	1	-1E+10	1	-1E+10	1	-1E+10	1	-1E+10	1	-1E+10	1
4902551	64	C	05/19/2022	16:03	-131.249	49.097	0	103.80	0	7.5860	0	33.6360	0	26.264	0	102.893	0	77.5	4	26.5	4	-1E+10	1	-1E+10	1	-1E+10	1	-1E+10	1	-1E+10	1	-1E+10	1
4902551	64	C	05/19/2022	16:03	-131.249	49.097	0	105.10	0	7.5860	0	33.6380	0	26.266	0	104.181	0	75.3	4	25.7	4	-1E+10	1	-1E+10	1	-1E+10	1	-1E+10	1	-1E+10	1	-1E+10	1
4902551	64	C	05/19/2022	16:03	-131.249	49.097	0	106.00	0	7.5860	0	33.6400	0	26.267	0	105.073	0	73.4	4	25.1	4	-1E+10	1	-1E+10	1	-1E+10	1	-1E+10	1	-1E+10	1	-1E+10	1
4902551	64	C	05/19/2022	16:03	-131.249	49.097	0	106.90	0	7.5900	0	33.6430	0	26.269	0	105.965	0	71.3	4	24.4	4	-1E+10	1	-1E+10	1	-1E+10	1	-1E+10	1	-1E+10	1	-1E+10	1
4902551	64	C	05/19/2022	16:03	-131.249	49.097	0	107.90	0	7.6010	0	33.6790	0	26.296	0	106.956	0	69.5	4	23.8	4	-1E+10	1	-1E+10	1	-1E+10	1	-1E+10	1	-1E+10	1	-1E+10	1
4902551	64	C	05/19/2022	16:03	-131.249	49.097	0	108.80	0	7.6110	0	33.7070	0	26.317	0	107.848	0	67.9	4	23.3	4	-1E+10	1	-1E+10	1	-1E+10	1	-1E+10	1	-1E+10	1	-1E+10	1
4902551	64	C	05/19/2022	16:03	-131.249	49.097	0	109.90	0	7.6150	0	33.7260	0	26.331	0	108.938	0	66.9	4	22.9	4	-1E+10	1	-1E+10	1	-1E+10	1	-1E+10	1	-1E+10	1	-1E+10	1
4902551	64	C	05/19/2022	16:03	-131.249	49.097	0	110.90	0	7.6160	0	33.7370	0	26.340	0	109.929	0	65.9	4	22.6	4	-1E+10	1	-1E+10	1	-1E+10	1	-1E+10	1	-1E+10	1	-1E+10	1
4902551	64	C	05/19/2022	16:03	-131.249	49.097	0	112.00	0	7.6180	0	33.7450	0	26.346	0	111.019	0	64.9	4	22.2	4	-1E+10	1	-1E+10	1	-1E+10	1	-1E+10	1	-1E+10	1	-1E+10	1
4902551	64	C	05/19/2022	16:03	-131.249	49.097	0	113.00	0	7.6210	0	33.7590	0	26.356	0	112.010	0	64.0	4	21.9	4	-1E+10	1	-1E+10	1	-1E+10	1	-1E+10	1	-1E+10	1	-1E+10	1
4902551	64	C	05/19/2022	16:03	-131.249	49.097	0	114.20	0	7.6220	0	33.7720	0	26.366	0	113.199	0	63.3	4	21.7	4	-1E+10	1	-1E+10	1	-1E+10	1	-1E+10	1	-1E+10	1	-1E+10	1
4902551	64	C	05/19/2022	16:03	-131.249	49.097	0	114.90	0	7.6190	0	33.7760	0	26.370	0	113.893	0	62.9	4	21.5	4	-1E+10	1	-1E+10	1	-1E+10	1	-1E+10	1	-1E+10	1	-1E+10	1
4902551	64	C	05/19/2022	16:03	-131.249	49.097	0	116.00	0	7.6180	0	33.7770	0	26.371	0	114.983	0	62.3	4	21.3	4	-1E+10	1	-1E+10	1	-1E+10	1	-1E+10	1	-1E+10	1	-1E+10	1
4902551	64	C	05/19/2022	16:03	-131.249	49.097	0	117.20	0	7.6170	0	33.7790	0	26.372	0	116.172	0	61.6	4	21.1	4	-1E+10	1	-1E+10	1	-1E+10	1	-1E+10	1	-1E+10	1	-1E+10	1
4902551	64	C	05/19/2022	16:03	-131.249	49.097	0	117.90	0	7.6150	0	33.7830	0	26.376	0	116.866	0	61.2	4	21.0	4	-1E+10	1	-1E+10	1	-1E+10	1	-1E+10	1	-1E+10	1	-1E+10	1
4902551	64	C	05/19/2022	16:03	-131.249	49.097	0	118.70	0	7.6120	0	33.7880	0	26.380	0	117.658	0	60.8	4	20.8	4	-1E+10	1	-1E+10	1	-1E+10	1	-1E+10	1	-1E+10	1	-1E+10	1
4902551	64	C	05/19/2022	16:03	-131.249	49.097	0	119.90	0	7.6100	0	33.7930	0	26.385	0	118.847	0	60.4	4	20.7	4	-1E+10	1	-1E+10	1	-1E+10	1	-1E+10	1	-1E+10	1	-1E+10	1
4902551	64	C	05/19/2022	16:03	-131.249	49.097	0	121.00	0	7.6090	0	33.7970	0	26.388	0	119.937	0	60.1	4	20.6	4	-1E+10	1	-1E+10	1	-1E+10	1	-1E+10	1	-1E+10	1	-1E+10	1
4902551	64	C	05/19/2022	16:03	-131.249	49.097	0	121.80	0	7.6090	0	33.7980	0	26.389	0	120.730	0	59.8	4	20.5	4	-1E+10	1	-1E+10	1	-1E+10	1	-1E+10	1	-1E+10	1	-1E+10	1
4902551	64	C	05/19/2022	16:03	-131.249	49.097	0	123.00	0	7.6050	0	33.8030	0	26.393	0	121.919	0	59.5	4	20.4	4	-1E+10	1	-1E+10	1	-1E+10	1	-1E+10	1	-1E+10	1	-1E+10	1
4902551	64	C	05/19/2022	16:03	-131.249	49.097	0	124.20	0	7.6030	0	33.8070	0	26.397	0	123.108	0	59.2	4	20.3	4	-1E+10	1	-1E+10	1	-1E+10	1	-1E+10	1	-1E+10	1	-1E+10	1
4902551	64	C	05/19/2022	16:03	-131.249	49.097	0	124.90	0	7.6020	0	33.8070	0	26.397	0	123.802	0	59.1	4	20.2	4	-1E+10	1	-1E+10	1	-1E+10	1	-1E+10	1	-1E+10	1	-1E+10	1
4902551	64	C	05/19/2022	16:03	-131.249	49.097	0	126.00	0	7.6020	0	33.8070	0	26.397	0	124.892	0	58.9	4	20.2	4	-1E+10	1	-1E+10	1	-1E+10	1	-1E+10	1	-1E+10	1	-1E+10	1
4902551	64	C	05/19/2022	16:03	-131.249	49.097	0	127.10	0	7.5980	0	33.8130	0	26.402	0	125.982	0	58.6	4	20.1	4	-1E+10	1	-1E+10	1	-1E+10	1	-1E+10	1	-1E+10	1	-1E+10	1
4902551	64	C	05/19/2022	16:03	-131.249	49.097	0	127.80	0	7.5960	0	33.8150	0	26.404	0	126.676	0	58.5	4	20.0	4	-1E+10	1	-1E+10	1	-1E+10	1	-1E+10	1	-1E+10	1	-1E+10	1
4902551	64	C	05/19/2022	16:03	-131.249	49.097	0	128.90	0	7.5940	0	33.8170	0	26.406	0	127.766	0	58.4	4	20.0	4	-1E+10	1	-1E+10	1	-1E+10	1	-1E+10	1	-1E+10	1	-1E+10	1
4902551	64	C	05/19/2022	16:03	-131.249	49.097	0	130.00	0	7.5940	0	33.8180	0	26.407	0	128.856	0	58.2	4	19.9	4	-1E+10	1	-1E+10	1	-1E+10	1	-1E+10	1	-1E+10	1	-1E+10	1
4902551	64	C	05/19/2022	16:03	-131.249	49.097	0	131.00	0	7.5930	0	33.8180	0	26.407	0	129.846	0	58.1	4	19.9	4	-1E+10	1	-1E+10	1	-1E+10	1	-1E+10	1	-1E+10	1	-1E+10	1
4902551	64	C	05/19/2022	16:03	-131.249	49.097	0	132.10	0	7.5930	0	33.8190	0	26.408	0	130.936	0	57.9	4	19.8	4	-1E+10	1	-1E+10	1	-1E+10	1	-1E+10	1	-1E+10	1	-1E+10	1
4902551	64	C	05/19/2022	16:03	-131.249	49.097	0	132.80	0	7.5920	0	33.8200	0	26.409	0	131.630	0	57.8	4	19.8	4	-1E+10	1	-1E+10	1	-1E+10	1	-1E+10	1	-1E+10	1	-1E+10	1
4902551	64	C	05/19/2022	16:03	-131.249	49.097	0	133.80	0	7.5880	0	33.8250	0	26.413	0	132.621	0	57.7	4	19.8	4	-1E+10	1	-1E+10	1	-1E+10	1	-1E+10	1	-1E+10	1	-1E+10	1
4902551	64	C	05/19/2022	16:03	-131.249	49.097	0	134.90	0	7.5870	0	33.8260	0	26.414	0	133.711	0	57.6	4	19.7	4	-1E+10	1	-1E+10	1	-1E+10	1	-1E+10	1	-1E+10	1	-1E+10	1
4902551	64	C	05/19/2022	16:03	-131.249	49.097	0	136.00	0	7.5860	0	33.8270	0	26.415	0	134.801	0	57.6	4	19.7	4	-1E+10	1	-1E+10	1	-1E+10	1	-1E+10	1	-1E+10	1	-1E+10	1
4902551	64	C	05/19/2022	16:03	-131.249	49.097	0	137.20	0	7.5860	0	33.8280	0	26.416	0	135.990	0	57.5	4	19.7	4	-1E+10	1	-1E+10	1	-1E+10	1	-1E+10	1	-1E+10	1	-1E+10	1
4902551	64	C	05/19/2022	16:03	-131.249	49.097	0	137.90	0	7.5860	0	33.8280	0	26.416	0	136.683	0	57.5	4	19.7	4	-1E+10	1	-1E+10	1	-1E+10	1	-1E+10	1	-1E+10	1	-1E+10	1
4902551	64	C	05/19/2022	16:03	-131.249	49.097	0	138.70	0	7.5840	0	33.8290	0	26.417	0	137.476	0	57.5	4	19.7	4	-1E+10	1	-1E+10	1	-1E+10	1	-1E+10	1	-1E+10	1	-1E+10	1
4902551	64	C	05/19/2022	16:03	-131.249	49.097	0	139.90	0	7.5830	0	33.8300	0	26.418	0	138.665	0	57.4	4	19.6	4	-1E+10	1	-1E+10	1	-1E+10	1	-1E+10	1	-1E+10	1	-1E+10	1
4902551	64	C	05/19/2022	16:03	-131.249	49.097	0	141.00	0	7.5830	0	33.8310	0	26.419	0	139.755	0	57.3	4	19.6	4	-1E+10	1	-1E+10	1	-1E+10	1	-1E+10	1	-1E+10	1	-1E+10	1
4902551	64	C	05/19/2022	16:03	-131.249	49.097	0	141.80	0	7.5820	0	33.8320	0	26.420	0	140.548	0	57.3	4	19.6	4	-1E+10	1	-1E+10	1	-1E+10	1	-1E+10	1	-1E+10	1	-1E+10	1
4902551	64	C	05/19/2022	16:03	-131.249	49.097	0	143.00	0	7.5800	0	33.8330	0	26.421	0	141.737	0	57.2	4	19.6	4	-1E+10	1	-1E+10	1	-1E+10	1	-1E+10	1	-1E+10	1	-1E+10	1
4902551	64	C	05/19/2022	16:03	-131.249	49.097	0	144.20	0	7.5790	0	33.8350	0	26.422	0	142.926	0	57.2	4	19.6	4	-1E+10	1	-1E+10	1	-1E+10	1	-1E+10	1	-1E+10	1	-1E+10	1
4902551	64	C	05/19/2022	16:03	-131.249	49.097	0	145.10	0	7.5780	0	33.8360	0	26.423	0	143.817	0	57.1	4	19.6	4	-1E+10	1	-1E+10	1	-1E+10	1	-1E+10	1	-1E+10	1	-1E+10	1
4902551	64	C	05/19/2022	16:03	-131.249	49.097	0	145.90	0	7.5760	0	33.8380	0	26.425	0	144.610	0	57.1	4	19.6	4	-1E+10	1	-1E+10	1	-1E+10	1	-1E+10	1	-1E+10	1	-1E+10	1
4902551	64	C	05/19/2022	16:03	-131.249	49.097	0	146.80	0	7.5750	0	33.8380	0	26.425	0	145.502	0	57.1	4	19.5	4	-1E+10	1	-1E+10	1	-1E+10	1	-1E+10	1	-1E+10	1	-1E+10	1
4902551	64	C	05/19/2022	16:03	-131.249	49.097	0	147.60	0	7.5740	0	33.8390	0	26.426	0	146.294	0	57.1	4	19.5	4	-1E+10	1	-1E+10	1	-1E+10	1	-1E+10	1	-1E+10	1	-1E+10	1
4902551	64	C	05/19/2022	16:03	-131.249	49.097	0	148.90	0	7.5710	0	33.8410	0	26.428	0	147.582	0	57.1	4	19.5	4	-1E+10	1	-1E+10	1	-1E+10	1	-1E+10	1	-1E+10	1	-1E+10	1
4902551	64	C	05/19/2022	16:03	-131.249	49.097	0	150.20	0	7.5680	0	33.8440	0	26.431	0	148.870	0	57.1	4	19.5	4	-1E+10	1	-1E+10	1	-1E+10	1	-1E+10	1	-1E+10	1	-1E+10	1
4902551	64	C	05/19/2022	16:03	-131.249	49.097	0	151.10	0	7.5670	0	33.8450	0	26.432	0	149.762	0	57.1	4	19.5	4	-1E+10	1	-1E+10	1	-1E+10	1	-1E+10	1	-1E+10	1	-1E+10	1
4902551	64	C	05/19/2022	16:03	-131.249	49.097	0	151.90	0	7.5660	0	33.8450	0	26.432	0	150.555	0	57.1	4	19.5	4	-1E+10	1	-1E+10	1	-1E+10	1	-1E+10	1	-1E+10	1	-1E+10	1
4902551	64	C	05/19/2022	16:03	-131.249	49.097	0	152.80	0	7.5660	0	33.8450	0	26.432	0	151.446	0	57.1	4	19.5	4	-1E+10	1	-1E+10	1	-1E+10	1	-1E+10	1	-1E+10	1	-1E+10	1
4902551	64	C	05/19/2022	16:03	-131.249	49.097	0	153.70	0	7.5660	0	33.8450	0	26.432	0	152.338	0	57.1	4	19.5	4	-1E+10	1	-1E+10	1	-1E+10	1	-1E+10	1	-1E+10	1	-1E+10	1
4902551	64	C	05/19/2022	16:03	-131.249	49.097	0	154.60	0	7.5660	0	33.8460	0	26.433	0	153.230	0	57.1	4	19.5	4	-1E+10	1	-1E+10	1	-1E+10	1	-1E+10	1	-1E+10	1	-1E+10	1
4902551	64	C	05/19/2022	16:03	-131.249	49.097	0	155.90	0	7.5660	0	33.8460	0	26.433	0	154.518	0	57.1	4	19.5	4	-1E+10	1	-1E+10	1	-1E+10	1	-1E+10	1	-1E+10	1	-1E+10	1
4902551	64	C	05/19/2022	16:03	-131.249	49.097	0	157.30	0	7.5660	0	33.8460	0	26.433	0	155.905	0	57.1	4	19.5	4	-1E+10	1	-1E+10	1	-1E+10	1	-1E+10	1	-1E+10	1	-1E+10	1
4902551	64	C	05/19/2022	16:03	-131.249	49.097	0	158.20	0	7.5660	0	33.8460	0	26.433	0	156.797	0	57.1	4	19.5	4	-1E+10	1	-1E+10	1	-1E+10	1	-1E+10	1	-1E+10	1	-1E+10	1
4902551	64	C	05/19/2022	16:03	-131.249	49.097	0	159.00	0	7.5650	0	33.8460	0	26.433	0	157.589	0	57.1	4	19.6	4	-1E+10	1	-1E+10	1	-1E+10	1	-1E+10	1	-1E+10	1	-1E+10	1
4902551	64	C	05/19/2022	16:03	-131.249	49.097	0	159.90	0	7.5650	0	33.8470	0	26.434	0	158.481	0	57.1	4	19.6	4	-1E+10	1	-1E+10	1	-1E+10	1	-1E+10	1	-1E+10	1	-1E+10	1
4902551	64	C	05/19/2022	16:03	-131.249	49.097	0	160.80	0	7.5640	0	33.8470	0	26.434	0	159.373	0	57.1	4	19.6	4	-1E+10	1	-1E+10	1	-1E+10	1	-1E+10	1	-1E+10	1	-1E+10	1
4902551	64	C	05/19/2022	16:03	-131.249	49.097	0	161.70	0	7.5640	0	33.8470	0	26.434	0	160.264	0	57.1	4	19.6	4	-1E+10	1	-1E+10	1	-1E+10	1	-1E+10	1	-1E+10	1	-1E+10	1
4902551	64	C	05/19/2022	16:03	-131.249	49.097	0	162.90	0	7.5640	0	33.8470	0	26.434	0	161.453	0	57.2	4	19.6	4	-1E+10	1	-1E+10	1	-1E+10	1	-1E+10	1	-1E+10	1	-1E+10	1
4902551	64	C	05/19/2022	16:03	-131.249	49.097	0	164.30	0	7.5640	0	33.8470	0	26.434	0	162.840	0	57.2	4	19.6	4	-1E+10	1	-1E+10	1	-1E+10	1	-1E+10	1	-1E+10	1	-1E+10	1
4902551	64	C	05/19/2022	16:03	-131.249	49.097	0	165.10	0	7.5640	0	33.8470	0	26.434	0	163.633	0	57.2	4	19.6	4	-1E+10	1	-1E+10	1	-1E+10	1	-1E+10	1	-1E+10	1	-1E+10	1
4902551	64	C	05/19/2022	16:03	-131.249	49.097	0	166.00	0	7.5640	0	33.8470	0	26.434	0	164.524	0	57.2	4	19.6	4	-1E+10	1	-1E+10	1	-1E+10	1	-1E+10	1	-1E+10	1	-1E+10	1
4902551	64	C	05/19/2022	16:03	-131.249	49.097	0	166.80	0	7.5620	0	33.8490	0	26.436	0	165.317	0	57.3	4	19.6	4	-1E+10	1	-1E+10	1	-1E+10	1	-1E+10	1	-1E+10	1	-1E+10	1
4902551	64	C	05/19/2022	16:03	-131.249	49.097	0	167.70	0	7.5590	0	33.8500	0	26.437	0	166.209	0	57.3	4	19.6	4	-1E+10	1	-1E+10	1	-1E+10	1	-1E+10	1	-1E+10	1	-1E+10	1
4902551	64	C	05/19/2022	16:03	-131.249	49.097	0	168.90	0	7.5570	0	33.8510	0	26.438	0	167.397	0	57.4	4	19.6	4	-1E+10	1	-1E+10	1	-1E+10	1	-1E+10	1	-1E+10	1	-1E+10	1
4902551	64	C	05/19/2022	16:03	-131.249	49.097	0	170.20	0	7.5490	0	33.8570	0	26.444	0	168.685	0	57.5	4	19.7	4	-1E+10	1	-1E+10	1	-1E+10	1	-1E+10	1	-1E+10	1	-1E+10	1
4902551	64	C	05/19/2022	16:03	-131.249	49.097	0	171.00	0	7.5400	0	33.8610	0	26.449	0	169.478	0	57.6	4	19.7	4	-1E+10	1	-1E+10	1	-1E+10	1	-1E+10	1	-1E+10	1	-1E+10	1
4902551	64	C	05/19/2022	16:03	-131.249	49.097	0	171.90	0	7.5350	0	33.8640	0	26.452	0	170.369	0	57.7	4	19.7	4	-1E+10	1	-1E+10	1	-1E+10	1	-1E+10	1	-1E+10	1	-1E+10	1
4902551	64	C	05/19/2022	16:03	-131.249	49.097	0	172.70	0	7.5280	0	33.8660	0	26.454	0	171.162	0	57.8	4	19.8	4	-1E+10	1	-1E+10	1	-1E+10	1	-1E+10	1	-1E+10	1	-1E+10	1
4902551	64	C	05/19/2022	16:03	-131.249	49.097	0	173.90	0	7.5280	0	33.8660	0	26.454	0	172.351	0	58.0	4	19.8	4	-1E+10	1	-1E+10	1	-1E+10	1	-1E+10	1	-1E+10	1	-1E+10	1
4902551	64	C	05/19/2022	16:03	-131.249	49.097	0	175.20	0	7.5280	0	33.8660	0	26.454	0	173.639	0	58.2	4	19.9	4	-1E+10	1	-1E+10	1	-1E+10	1	-1E+10	1	-1E+10	1	-1E+10	1
4902551	64	C	05/19/2022	16:03	-131.249	49.097	0	176.00	0	7.5280	0	33.8660	0	26.454	0	174.431	0	58.3	4	20.0	4	-1E+10	1	-1E+10	1	-1E+10	1	-1E+10	1	-1E+10	1	-1E+10	1
4902551	64	C	05/19/2022	16:03	-131.249	49.097	0	176.80	0	7.5250	0	33.8680	0	26.456	0	175.224	0	58.5	4	20.0	4	-1E+10	1	-1E+10	1	-1E+10	1	-1E+10	1	-1E+10	1	-1E+10	1
4902551	64	C	05/19/2022	16:03	-131.249	49.097	0	177.70	0	7.5210	0	33.8680	0	26.457	0	176.115	0	58.7	4	20.1	4	-1E+10	1	-1E+10	1	-1E+10	1	-1E+10	1	-1E+10	1	-1E+10	1
4902551	64	C	05/19/2022	16:03	-131.249	49.097	0	178.90	0	7.5150	0	33.8700	0	26.459	0	177.304	0	58.9	4	20.1	4	-1E+10	1	-1E+10	1	-1E+10	1	-1E+10	1	-1E+10	1	-1E+10	1
4902551	64	C	05/19/2022	16:03	-131.249	49.097	0	180.10	0	7.5110	0	33.8710	0	26.461	0	178.493	0	59.1	4	20.2	4	-1E+10	1	-1E+10	1	-1E+10	1	-1E+10	1	-1E+10	1	-1E+10	1
4902551	64	C	05/19/2022	16:03	-131.249	49.097	0	181.00	0	7.5090	0	33.8720	0	26.462	0	179.384	0	59.2	4	20.2	4	-1E+10	1	-1E+10	1	-1E+10	1	-1E+10	1	-1E+10	1	-1E+10	1
4902551	64	C	05/19/2022	16:03	-131.249	49.097	0	181.80	0	7.5070	0	33.8720	0	26.462	0	180.177	0	59.4	4	20.3	4	-1E+10	1	-1E+10	1	-1E+10	1	-1E+10	1	-1E+10	1	-1E+10	1
4902551	64	C	05/19/2022	16:03	-131.249	49.097	0	183.00	0	7.5040	0	33.8730	0	26.463	0	181.366	0	59.6	4	20.4	4	-1E+10	1	-1E+10	1	-1E+10	1	-1E+10	1	-1E+10	1	-1E+10	1
4902551	64	C	05/19/2022	16:03	-131.249	49.097	0	184.20	0	7.4990	0	33.8750	0	26.466	0	182.554	0	59.9	4	20.5	4	-1E+10	1	-1E+10	1	-1E+10	1	-1E+10	1	-1E+10	1	-1E+10	1
4902551	64	C	05/19/2022	16:03	-131.249	49.097	0	185.00	0	7.4940	0	33.8750	0	26.466	0	183.347	0	60.0	4	20.5	4	-1E+10	1	-1E+10	1	-1E+10	1	-1E+10	1	-1E+10	1	-1E+10	1
4902551	64	C	05/19/2022	16:03	-131.249	49.097	0	185.90	0	7.4930	0	33.8760	0	26.467	0	184.239	0	60.2	4	20.6	4	-1E+10	1	-1E+10	1	-1E+10	1	-1E+10	1	-1E+10	1	-1E+10	1
4902551	64	C	05/19/2022	16:03	-131.249	49.097	0	186.70	0	7.4900	0	33.8780	0	26.469	0	185.031	0	60.4	4	20.6	4	-1E+10	1	-1E+10	1	-1E+10	1	-1E+10	1	-1E+10	1	-1E+10	1
4902551	64	C	05/19/2022	16:03	-131.249	49.097	0	187.90	0	7.4830	0	33.8800	0	26.472	0	186.220	0	60.7	4	20.8	4	-1E+10	1	-1E+10	1	-1E+10	1	-1E+10	1	-1E+10	1	-1E+10	1
4902551	64	C	05/19/2022	16:03	-131.249	49.097	0	189.20	0	7.4730	0	33.8830	0	26.476	0	187.508	0	61.1	4	20.9	4	-1E+10	1	-1E+10	1	-1E+10	1	-1E+10	1	-1E+10	1	-1E+10	1
4902551	64	C	05/19/2022	16:03	-131.249	49.097	0	190.00	0	7.4690	0	33.8820	0	26.476	0	188.300	0	61.3	4	20.9	4	-1E+10	1	-1E+10	1	-1E+10	1	-1E+10	1	-1E+10	1	-1E+10	1
4902551	64	C	05/19/2022	16:03	-131.249	49.097	0	190.90	0	7.4660	0	33.8830	0	26.477	0	189.192	0	61.5	4	21.0	4	-1E+10	1	-1E+10	1	-1E+10	1	-1E+10	1	-1E+10	1	-1E+10	1
4902551	64	C	05/19/2022	16:03	-131.249	49.097	0	191.70	0	7.4590	0	33.8850	0	26.479	0	189.984	0	61.8	4	21.1	4	-1E+10	1	-1E+10	1	-1E+10	1	-1E+10	1	-1E+10	1	-1E+10	1
4902551	64	C	05/19/2022	16:03	-131.249	49.097	0	193.00	0	7.4380	0	33.8920	0	26.488	0	191.272	0	62.1	4	21.2	4	-1E+10	1	-1E+10	1	-1E+10	1	-1E+10	1	-1E+10	1	-1E+10	1
4902551	64	C	05/19/2022	16:03	-131.249	49.097	0	194.30	0	7.4210	0	33.8920	0	26.490	0	192.560	0	62.2	4	21.2	4	-1E+10	1	-1E+10	1	-1E+10	1	-1E+10	1	-1E+10	1	-1E+10	1
4902551	64	C	05/19/2022	16:03	-131.249	49.097	0	195.20	0	7.4200	0	33.8920	0	26.490	0	193.451	0	62.3	4	21.2	4	-1E+10	1	-1E+10	1	-1E+10	1	-1E+10	1	-1E+10	1	-1E+10	1
4902551	64	C	05/19/2022	16:03	-131.249	49.097	0	196.00	0	7.4180	0	33.8930	0	26.491	0	194.244	0	62.3	4	21.3	4	-1E+10	1	-1E+10	1	-1E+10	1	-1E+10	1	-1E+10	1	-1E+10	1
4902551	64	C	05/19/2022	16:03	-131.249	49.097	0	196.90	0	7.4160	0	33.8920	0	26.491	0	195.135	0	62.4	4	21.3	4	-1E+10	1	-1E+10	1	-1E+10	1	-1E+10	1	-1E+10	1	-1E+10	1
4902551	64	C	05/19/2022	16:03	-131.249	49.097	0	197.80	0	7.4160	0	33.8930	0	26.492	0	196.027	0	62.5	4	21.3	4	-1E+10	1	-1E+10	1	-1E+10	1	-1E+10	1	-1E+10	1	-1E+10	1
4902551	64	C	05/19/2022	16:03	-131.249	49.097	0	198.60	0	7.4060	0	33.8970	0	26.496	0	196.819	0	62.7	4	21.4	4	-1E+10	1	-1E+10	1	-1E+10	1	-1E+10	1	-1E+10	1	-1E+10	1
4902551	64	C	05/19/2022	16:03	-131.249	49.097	0	199.90	0	7.4000	0	33.8960	0	26.496	0	198.107	0	62.9	4	21.5	4	-1E+10	1	-1E+10	1	-1E+10	1	-1E+10	1	-1E+10	1	-1E+10	1
4902551	64	C	05/19/2022	16:03	-131.249	49.097	0	201.30	0	7.3970	0	33.8970	0	26.498	0	199.493	0	63.1	4	21.5	4	-1E+10	1	-1E+10	1	-1E+10	1	-1E+10	1	-1E+10	1	-1E+10	1
4902551	64	C	05/19/2022	16:03	-131.249	49.097	0	202.10	0	7.3990	0	33.8950	0	26.496	0	200.286	0	63.4	4	21.6	4	-1E+10	1	-1E+10	1	-1E+10	1	-1E+10	1	-1E+10	1	-1E+10	1
4902551	64	C	05/19/2022	16:03	-131.249	49.097	0	203.00	0	7.3990	0	33.8960	0	26.497	0	201.177	0	63.6	4	21.7	4	-1E+10	1	-1E+10	1	-1E+10	1	-1E+10	1	-1E+10	1	-1E+10	1
4902551	64	C	05/19/2022	16:03	-131.249	49.097	0	203.80	0	7.3950	0	33.8980	0	26.499	0	201.970	0	63.9	4	21.8	4	-1E+10	1	-1E+10	1	-1E+10	1	-1E+10	1	-1E+10	1	-1E+10	1
4902551	64	C	05/19/2022	16:03	-131.249	49.097	0	204.80	0	7.3910	0	33.8970	0	26.499	0	202.960	0	64.2	4	21.9	4	-1E+10	1	-1E+10	1	-1E+10	1	-1E+10	1	-1E+10	1	-1E+10	1
4902551	64	C	05/19/2022	16:03	-131.249	49.097	0	205.60	0	7.3880	0	33.8970	0	26.499	0	203.753	0	64.5	4	22.0	4	-1E+10	1	-1E+10	1	-1E+10	1	-1E+10	1	-1E+10	1	-1E+10	1
4902551	64	C	05/19/2022	16:03	-131.249	49.097	0	206.90	0	7.3630	0	33.9010	0	26.506	0	205.040	0	64.9	4	22.1	4	-1E+10	1	-1E+10	1	-1E+10	1	-1E+10	1	-1E+10	1	-1E+10	1
4902551	64	C	05/19/2022	16:03	-131.249	49.097	0	208.30	0	7.3460	0	33.9080	0	26.514	0	206.427	0	65.4	4	22.3	4	-1E+10	1	-1E+10	1	-1E+10	1	-1E+10	1	-1E+10	1	-1E+10	1
4902551	64	C	05/19/2022	16:03	-131.249	49.097	0	209.20	0	7.3240	0	33.9070	0	26.516	0	207.319	0	65.7	4	22.4	4	-1E+10	1	-1E+10	1	-1E+10	1	-1E+10	1	-1E+10	1	-1E+10	1
4902551	64	C	05/19/2022	16:03	-131.249	49.097	0	210.10	0	7.3170	0	33.9070	0	26.517	0	208.210	0	65.9	4	22.4	4	-1E+10	1	-1E+10	1	-1E+10	1	-1E+10	1	-1E+10	1	-1E+10	1
4902551	64	C	05/19/2022	16:03	-131.249	49.097	0	211.00	0	7.3110	0	33.9070	0	26.518	0	209.102	0	66.0	4	22.5	4	-1E+10	1	-1E+10	1	-1E+10	1	-1E+10	1	-1E+10	1	-1E+10	1
4902551	64	C	05/19/2022	16:03	-131.249	49.097	0	211.90	0	7.3030	0	33.9080	0	26.520	0	209.993	0	66.1	4	22.5	4	-1E+10	1	-1E+10	1	-1E+10	1	-1E+10	1	-1E+10	1	-1E+10	1
4902551	64	C	05/19/2022	16:03	-131.249	49.097	0	212.80	0	7.2920	0	33.9100	0	26.523	0	210.884	0	66.3	4	22.6	4	-1E+10	1	-1E+10	1	-1E+10	1	-1E+10	1	-1E+10	1	-1E+10	1
4902551	64	C	05/19/2022	16:03	-131.249	49.097	0	213.70	0	7.2870	0	33.9080	0	26.522	0	211.776	0	66.4	4	22.6	4	-1E+10	1	-1E+10	1	-1E+10	1	-1E+10	1	-1E+10	1	-1E+10	1
4902551	64	C	05/19/2022	16:03	-131.249	49.097	0	214.60	0	7.2860	0	33.9080	0	26.522	0	212.667	0	66.5	4	22.6	4	-1E+10	1	-1E+10	1	-1E+10	1	-1E+10	1	-1E+10	1	-1E+10	1
4902551	64	C	05/19/2022	16:03	-131.249	49.097	0	215.90	0	7.2860	0	33.9080	0	26.522	0	213.955	0	66.6	4	22.7	4	-1E+10	1	-1E+10	1	-1E+10	1	-1E+10	1	-1E+10	1	-1E+10	1
4902551	64	C	05/19/2022	16:03	-131.249	49.097	0	217.30	0	7.2830	0	33.9090	0	26.523	0	215.342	0	66.8	4	22.7	4	-1E+10	1	-1E+10	1	-1E+10	1	-1E+10	1	-1E+10	1	-1E+10	1
4902551	64	C	05/19/2022	16:03	-131.249	49.097	0	218.20	0	7.2780	0	33.9120	0	26.526	0	216.233	0	67.0	4	22.8	4	-1E+10	1	-1E+10	1	-1E+10	1	-1E+10	1	-1E+10	1	-1E+10	1
4902551	64	C	05/19/2022	16:03	-131.249	49.097	0	219.10	0	7.2690	0	33.9110	0	26.527	0	217.124	0	67.3	4	22.9	4	-1E+10	1	-1E+10	1	-1E+10	1	-1E+10	1	-1E+10	1	-1E+10	1
4902551	64	C	05/19/2022	16:03	-131.249	49.097	0	220.10	0	7.2640	0	33.9120	0	26.528	0	218.115	0	67.5	4	22.9	4	-1E+10	1	-1E+10	1	-1E+10	1	-1E+10	1	-1E+10	1	-1E+10	1
4902551	64	C	05/19/2022	16:03	-131.249	49.097	0	221.00	0	7.2590	0	33.9120	0	26.529	0	219.006	0	67.6	4	23.0	4	-1E+10	1	-1E+10	1	-1E+10	1	-1E+10	1	-1E+10	1	-1E+10	1
4902551	64	C	05/19/2022	16:03	-131.249	49.097	0	221.90	0	7.2540	0	33.9120	0	26.530	0	219.898	0	67.8	4	23.0	4	-1E+10	1	-1E+10	1	-1E+10	1	-1E+10	1	-1E+10	1	-1E+10	1
4902551	64	C	05/19/2022	16:03	-131.249	49.097	0	222.80	0	7.2520	0	33.9120	0	26.530	0	220.789	0	68.0	4	23.1	4	-1E+10	1	-1E+10	1	-1E+10	1	-1E+10	1	-1E+10	1	-1E+10	1
4902551	64	C	05/19/2022	16:03	-131.249	49.097	0	223.70	0	7.2510	0	33.9120	0	26.530	0	221.680	0	68.2	4	23.2	4	-1E+10	1	-1E+10	1	-1E+10	1	-1E+10	1	-1E+10	1	-1E+10	1
4902551	64	C	05/19/2022	16:03	-131.249	49.097	0	224.60	0	7.2420	0	33.9140	0	26.533	0	222.572	0	68.5	4	23.3	4	-1E+10	1	-1E+10	1	-1E+10	1	-1E+10	1	-1E+10	1	-1E+10	1
4902551	64	C	05/19/2022	16:03	-131.249	49.097	0	225.50	0	7.2310	0	33.9160	0	26.536	0	223.463	0	68.7	4	23.4	4	-1E+10	1	-1E+10	1	-1E+10	1	-1E+10	1	-1E+10	1	-1E+10	1
4902551	64	C	05/19/2022	16:03	-131.249	49.097	0	226.90	0	7.2150	0	33.9150	0	26.538	0	224.850	0	69.0	4	23.5	4	-1E+10	1	-1E+10	1	-1E+10	1	-1E+10	1	-1E+10	1	-1E+10	1
4902551	64	C	05/19/2022	16:03	-131.249	49.097	0	228.20	0	7.2040	0	33.9180	0	26.541	0	226.137	0	69.3	4	23.5	4	-1E+10	1	-1E+10	1	-1E+10	1	-1E+10	1	-1E+10	1	-1E+10	1
4902551	64	C	05/19/2022	16:03	-131.249	49.097	0	229.20	0	7.1960	0	33.9160	0	26.541	0	227.128	0	69.5	4	23.6	4	-1E+10	1	-1E+10	1	-1E+10	1	-1E+10	1	-1E+10	1	-1E+10	1
4902551	64	C	05/19/2022	16:03	-131.249	49.097	0	230.10	0	7.1940	0	33.9160	0	26.541	0	228.019	0	69.6	4	23.6	4	-1E+10	1	-1E+10	1	-1E+10	1	-1E+10	1	-1E+10	1	-1E+10	1
4902551	64	C	05/19/2022	16:03	-131.249	49.097	0	231.00	0	7.1880	0	33.9170	0	26.543	0	228.910	0	69.8	4	23.7	4	-1E+10	1	-1E+10	1	-1E+10	1	-1E+10	1	-1E+10	1	-1E+10	1
4902551	64	C	05/19/2022	16:03	-131.249	49.097	0	231.90	0	7.1790	0	33.9170	0	26.544	0	229.802	0	70.0	4	23.8	4	-1E+10	1	-1E+10	1	-1E+10	1	-1E+10	1	-1E+10	1	-1E+10	1
4902551	64	C	05/19/2022	16:03	-131.249	49.097	0	232.90	0	7.1730	0	33.9160	0	26.544	0	230.792	0	70.1	4	23.8	4	-1E+10	1	-1E+10	1	-1E+10	1	-1E+10	1	-1E+10	1	-1E+10	1
4902551	64	C	05/19/2022	16:03	-131.249	49.097	0	233.80	0	7.1720	0	33.9170	0	26.545	0	231.684	0	70.3	4	23.9	4	-1E+10	1	-1E+10	1	-1E+10	1	-1E+10	1	-1E+10	1	-1E+10	1
4902551	64	C	05/19/2022	16:03	-131.249	49.097	0	234.70	0	7.1670	0	33.9170	0	26.546	0	232.575	0	70.4	4	23.9	4	-1E+10	1	-1E+10	1	-1E+10	1	-1E+10	1	-1E+10	1	-1E+10	1
4902551	64	C	05/19/2022	16:03	-131.249	49.097	0	235.70	0	7.1640	0	33.9170	0	26.546	0	233.565	0	70.6	4	24.0	4	-1E+10	1	-1E+10	1	-1E+10	1	-1E+10	1	-1E+10	1	-1E+10	1
4902551	64	C	05/19/2022	16:03	-131.249	49.097	0	236.60	0	7.1600	0	33.9170	0	26.547	0	234.457	0	70.7	4	24.0	4	-1E+10	1	-1E+10	1	-1E+10	1	-1E+10	1	-1E+10	1	-1E+10	1
4902551	64	C	05/19/2022	16:03	-131.249	49.097	0	237.60	0	7.1570	0	33.9180	0	26.548	0	235.447	0	70.9	4	24.1	4	-1E+10	1	-1E+10	1	-1E+10	1	-1E+10	1	-1E+10	1	-1E+10	1
4902551	64	C	05/19/2022	16:03	-131.249	49.097	0	238.50	0	7.1540	0	33.9180	0	26.549	0	236.338	0	71.1	4	24.1	4	-1E+10	1	-1E+10	1	-1E+10	1	-1E+10	1	-1E+10	1	-1E+10	1
4902551	64	C	05/19/2022	16:03	-131.249	49.097	0	239.90	0	7.1510	0	33.9160	0	26.547	0	237.725	0	71.4	4	24.2	4	-1E+10	1	-1E+10	1	-1E+10	1	-1E+10	1	-1E+10	1	-1E+10	1
4902551	64	C	05/19/2022	16:03	-131.249	49.097	0	241.40	0	7.1440	0	33.9170	0	26.549	0	239.210	0	71.7	4	24.3	4	-1E+10	1	-1E+10	1	-1E+10	1	-1E+10	1	-1E+10	1	-1E+10	1
4902551	64	C	05/19/2022	16:03	-131.249	49.097	0	242.30	0	7.1430	0	33.9180	0	26.550	0	240.102	0	71.9	4	24.4	4	-1E+10	1	-1E+10	1	-1E+10	1	-1E+10	1	-1E+10	1	-1E+10	1
4902551	64	C	05/19/2022	16:03	-131.249	49.097	0	243.30	0	7.1350	0	33.9200	0	26.553	0	241.092	0	72.1	4	24.5	4	-1E+10	1	-1E+10	1	-1E+10	1	-1E+10	1	-1E+10	1	-1E+10	1
4902551	64	C	05/19/2022	16:03	-131.249	49.097	0	244.20	0	7.1280	0	33.9190	0	26.553	0	241.983	0	72.4	4	24.5	4	-1E+10	1	-1E+10	1	-1E+10	1	-1E+10	1	-1E+10	1	-1E+10	1
4902551	64	C	05/19/2022	16:03	-131.249	49.097	0	245.20	0	7.1220	0	33.9170	0	26.552	0	242.974	0	72.6	4	24.6	4	-1E+10	1	-1E+10	1	-1E+10	1	-1E+10	1	-1E+10	1	-1E+10	1
4902551	64	C	05/19/2022	16:03	-131.249	49.097	0	246.20	0	7.1160	0	33.9170	0	26.553	0	243.964	0	72.7	4	24.6	4	-1E+10	1	-1E+10	1	-1E+10	1	-1E+10	1	-1E+10	1	-1E+10	1
4902551	64	C	05/19/2022	16:03	-131.249	49.097	0	247.20	0	7.1020	0	33.9210	0	26.558	0	244.954	0	72.9	4	24.7	4	-1E+10	1	-1E+10	1	-1E+10	1	-1E+10	1	-1E+10	1	-1E+10	1
4902551	64	C	05/19/2022	16:03	-131.249	49.097	0	248.20	0	7.0950	0	33.9180	0	26.557	0	245.945	0	73.0	4	24.7	4	-1E+10	1	-1E+10	1	-1E+10	1	-1E+10	1	-1E+10	1	-1E+10	1
4902551	64	C	05/19/2022	16:03	-131.249	49.097	0	249.20	0	7.0920	0	33.9180	0	26.557	0	246.935	0	73.1	4	24.8	4	-1E+10	1	-1E+10	1	-1E+10	1	-1E+10	1	-1E+10	1	-1E+10	1
4902551	64	C	05/19/2022	16:03	-131.249	49.097	0	250.10	0	7.0890	0	33.9190	0	26.558	0	247.826	0	73.3	4	24.8	4	-1E+10	1	-1E+10	1	-1E+10	1	-1E+10	1	-1E+10	1	-1E+10	1
4902551	64	C	05/19/2022	16:03	-131.249	49.097	0	251.10	0	7.0880	0	33.9180	0	26.558	0	248.817	0	73.5	4	24.9	4	-1E+10	1	-1E+10	1	-1E+10	1	-1E+10	1	-1E+10	1	-1E+10	1
4902551	64	C	05/19/2022	16:03	-131.249	49.097	0	252.10	0	7.0850	0	33.9190	0	26.559	0	249.807	0	73.6	4	24.9	4	-1E+10	1	-1E+10	1	-1E+10	1	-1E+10	1	-1E+10	1	-1E+10	1
4902551	64	C	05/19/2022	16:03	-131.249	49.097	0	253.10	0	7.0830	0	33.9190	0	26.559	0	250.797	0	73.8	4	25.0	4	-1E+10	1	-1E+10	1	-1E+10	1	-1E+10	1	-1E+10	1	-1E+10	1
4902551	64	C	05/19/2022	16:03	-131.249	49.097	0	254.10	0	7.0780	0	33.9190	0	26.560	0	251.787	0	74.0	4	25.1	4	-1E+10	1	-1E+10	1	-1E+10	1	-1E+10	1	-1E+10	1	-1E+10	1
4902551	64	C	05/19/2022	16:03	-131.249	49.097	0	255.10	0	7.0700	0	33.9210	0	26.563	0	252.778	0	74.2	4	25.1	4	-1E+10	1	-1E+10	1	-1E+10	1	-1E+10	1	-1E+10	1	-1E+10	1
4902551	64	C	05/19/2022	16:03	-131.249	49.097	0	256.10	0	7.0580	0	33.9190	0	26.563	0	253.768	0	74.4	4	25.2	4	-1E+10	1	-1E+10	1	-1E+10	1	-1E+10	1	-1E+10	1	-1E+10	1
4902551	64	C	05/19/2022	16:03	-131.249	49.097	0	257.10	0	7.0490	0	33.9220	0	26.566	0	254.758	0	74.6	4	25.2	4	-1E+10	1	-1E+10	1	-1E+10	1	-1E+10	1	-1E+10	1	-1E+10	1
4902551	64	C	05/19/2022	16:03	-131.249	49.097	0	258.20	0	7.0400	0	33.9200	0	26.566	0	255.848	0	74.7	4	25.3	4	-1E+10	1	-1E+10	1	-1E+10	1	-1E+10	1	-1E+10	1	-1E+10	1
4902551	64	C	05/19/2022	16:03	-131.249	49.097	0	259.20	0	7.0340	0	33.9200	0	26.567	0	256.838	0	74.9	4	25.3	4	-1E+10	1	-1E+10	1	-1E+10	1	-1E+10	1	-1E+10	1	-1E+10	1
4902551	64	C	05/19/2022	16:03	-131.249	49.097	0	260.20	0	7.0260	0	33.9200	0	26.568	0	257.828	0	75.0	4	25.4	4	-1E+10	1	-1E+10	1	-1E+10	1	-1E+10	1	-1E+10	1	-1E+10	1
4902551	64	C	05/19/2022	16:03	-131.249	49.097	0	261.20	0	7.0230	0	33.9200	0	26.568	0	258.818	0	75.2	4	25.4	4	-1E+10	1	-1E+10	1	-1E+10	1	-1E+10	1	-1E+10	1	-1E+10	1
4902551	64	C	05/19/2022	16:03	-131.249	49.097	0	262.20	0	7.0190	0	33.9210	0	26.570	0	259.809	0	75.4	4	25.5	4	-1E+10	1	-1E+10	1	-1E+10	1	-1E+10	1	-1E+10	1	-1E+10	1
4902551	64	C	05/19/2022	16:03	-131.249	49.097	0	263.30	0	7.0120	0	33.9220	0	26.572	0	260.898	0	75.6	4	25.6	4	-1E+10	1	-1E+10	1	-1E+10	1	-1E+10	1	-1E+10	1	-1E+10	1
4902551	64	C	05/19/2022	16:03	-131.249	49.097	0	264.30	0	7.0070	0	33.9210	0	26.571	0	261.888	0	75.8	4	25.6	4	-1E+10	1	-1E+10	1	-1E+10	1	-1E+10	1	-1E+10	1	-1E+10	1
4902551	64	C	05/19/2022	16:03	-131.249	49.097	0	265.30	0	6.9950	0	33.9220	0	26.574	0	262.878	0	76.0	4	25.7	4	-1E+10	1	-1E+10	1	-1E+10	1	-1E+10	1	-1E+10	1	-1E+10	1
4902551	64	C	05/19/2022	16:03	-131.249	49.097	0	266.30	0	6.9860	0	33.9240	0	26.577	0	263.869	0	76.2	4	25.7	4	-1E+10	1	-1E+10	1	-1E+10	1	-1E+10	1	-1E+10	1	-1E+10	1
4902551	64	C	05/19/2022	16:03	-131.249	49.097	0	267.30	0	6.9830	0	33.9210	0	26.575	0	264.859	0	76.4	4	25.8	4	-1E+10	1	-1E+10	1	-1E+10	1	-1E+10	1	-1E+10	1	-1E+10	1
4902551	64	C	05/19/2022	16:03	-131.249	49.097	0	268.30	0	6.9760	0	33.9230	0	26.577	0	265.849	0	76.6	4	25.9	4	-1E+10	1	-1E+10	1	-1E+10	1	-1E+10	1	-1E+10	1	-1E+10	1
4902551	64	C	05/19/2022	16:03	-131.249	49.097	0	269.30	0	6.9670	0	33.9210	0	26.577	0	266.839	0	76.8	4	26.0	4	-1E+10	1	-1E+10	1	-1E+10	1	-1E+10	1	-1E+10	1	-1E+10	1
4902551	64	C	05/19/2022	16:03	-131.249	49.097	0	270.40	0	6.9630	0	33.9210	0	26.577	0	267.929	0	77.1	4	26.0	4	-1E+10	1	-1E+10	1	-1E+10	1	-1E+10	1	-1E+10	1	-1E+10	1
4902551	64	C	05/19/2022	16:03	-131.249	49.097	0	271.40	0	6.9590	0	33.9230	0	26.580	0	268.919	0	77.4	4	26.1	4	-1E+10	1	-1E+10	1	-1E+10	1	-1E+10	1	-1E+10	1	-1E+10	1
4902551	64	C	05/19/2022	16:03	-131.249	49.097	0	272.40	0	6.9440	0	33.9230	0	26.582	0	269.909	0	77.6	4	26.2	4	-1E+10	1	-1E+10	1	-1E+10	1	-1E+10	1	-1E+10	1	-1E+10	1
4902551	64	C	05/19/2022	16:03	-131.249	49.097	0	273.40	0	6.9340	0	33.9230	0	26.583	0	270.899	0	77.8	4	26.3	4	-1E+10	1	-1E+10	1	-1E+10	1	-1E+10	1	-1E+10	1	-1E+10	1
4902551	64	C	05/19/2022	16:03	-131.249	49.097	0	274.50	0	6.9270	0	33.9220	0	26.583	0	271.988	0	78.1	4	26.4	4	-1E+10	1	-1E+10	1	-1E+10	1	-1E+10	1	-1E+10	1	-1E+10	1
4902551	64	C	05/19/2022	16:03	-131.249	49.097	0	275.50	0	6.9210	0	33.9240	0	26.586	0	272.979	0	78.4	4	26.5	4	-1E+10	1	-1E+10	1	-1E+10	1	-1E+10	1	-1E+10	1	-1E+10	1
4902551	64	C	05/19/2022	16:03	-131.249	49.097	0	276.50	0	6.9070	0	33.9250	0	26.588	0	273.969	0	78.7	4	26.6	4	-1E+10	1	-1E+10	1	-1E+10	1	-1E+10	1	-1E+10	1	-1E+10	1
4902551	64	C	05/19/2022	16:03	-131.249	49.097	0	277.50	0	6.8960	0	33.9240	0	26.589	0	274.959	0	78.9	4	26.6	4	-1E+10	1	-1E+10	1	-1E+10	1	-1E+10	1	-1E+10	1	-1E+10	1
4902551	64	C	05/19/2022	16:03	-131.249	49.097	0	278.50	0	6.8830	0	33.9240	0	26.591	0	275.949	0	79.2	4	26.7	4	-1E+10	1	-1E+10	1	-1E+10	1	-1E+10	1	-1E+10	1	-1E+10	1
4902551	64	C	05/19/2022	16:03	-131.249	49.097	0	279.60	0	6.8710	0	33.9210	0	26.590	0	277.038	0	79.5	4	26.8	4	-1E+10	1	-1E+10	1	-1E+10	1	-1E+10	1	-1E+10	1	-1E+10	1
4902551	64	C	05/19/2022	16:03	-131.249	49.097	0	280.60	0	6.8610	0	33.9230	0	26.593	0	278.029	0	79.8	4	26.9	4	-1E+10	1	-1E+10	1	-1E+10	1	-1E+10	1	-1E+10	1	-1E+10	1
4902551	64	C	05/19/2022	16:03	-131.249	49.097	0	281.60	0	6.8500	0	33.9240	0	26.595	0	279.019	0	80.0	4	27.0	4	-1E+10	1	-1E+10	1	-1E+10	1	-1E+10	1	-1E+10	1	-1E+10	1
4902551	64	C	05/19/2022	16:03	-131.249	49.097	0	282.60	0	6.8450	0	33.9210	0	26.594	0	280.009	0	80.3	4	27.0	4	-1E+10	1	-1E+10	1	-1E+10	1	-1E+10	1	-1E+10	1	-1E+10	1
4902551	64	C	05/19/2022	16:03	-131.249	49.097	0	283.60	0	6.8430	0	33.9210	0	26.594	0	280.999	0	80.6	4	27.1	4	-1E+10	1	-1E+10	1	-1E+10	1	-1E+10	1	-1E+10	1	-1E+10	1
4902551	64	C	05/19/2022	16:03	-131.249	49.097	0	284.70	0	6.8380	0	33.9210	0	26.595	0	282.088	0	80.9	4	27.2	4	-1E+10	1	-1E+10	1	-1E+10	1	-1E+10	1	-1E+10	1	-1E+10	1
4902551	64	C	05/19/2022	16:03	-131.249	49.097	0	285.70	0	6.8260	0	33.9240	0	26.599	0	283.078	0	81.2	4	27.4	4	-1E+10	1	-1E+10	1	-1E+10	1	-1E+10	1	-1E+10	1	-1E+10	1
4902551	64	C	05/19/2022	16:03	-131.249	49.097	0	286.70	0	6.7990	0	33.9260	0	26.604	0	284.068	0	81.6	4	27.5	4	-1E+10	1	-1E+10	1	-1E+10	1	-1E+10	1	-1E+10	1	-1E+10	1
4902551	64	C	05/19/2022	16:03	-131.249	49.097	0	287.70	0	6.7700	0	33.9260	0	26.608	0	285.059	0	81.9	4	27.5	4	-1E+10	1	-1E+10	1	-1E+10	1	-1E+10	1	-1E+10	1	-1E+10	1
4902551	64	C	05/19/2022	16:03	-131.249	49.097	0	288.70	0	6.7430	0	33.9290	0	26.614	0	286.049	0	82.1	4	27.6	4	-1E+10	1	-1E+10	1	-1E+10	1	-1E+10	1	-1E+10	1	-1E+10	1
4902551	64	C	05/19/2022	16:03	-131.249	49.097	0	289.70	0	6.7340	0	33.9240	0	26.611	0	287.039	0	82.3	4	27.7	4	-1E+10	1	-1E+10	1	-1E+10	1	-1E+10	1	-1E+10	1	-1E+10	1
4902551	64	C	05/19/2022	16:03	-131.249	49.097	0	290.70	0	6.7280	0	33.9230	0	26.611	0	288.029	0	82.5	4	27.7	4	-1E+10	1	-1E+10	1	-1E+10	1	-1E+10	1	-1E+10	1	-1E+10	1
4902551	64	C	05/19/2022	16:03	-131.249	49.097	0	291.70	0	6.7170	0	33.9230	0	26.612	0	289.019	0	82.8	4	27.8	4	-1E+10	1	-1E+10	1	-1E+10	1	-1E+10	1	-1E+10	1	-1E+10	1
4902551	64	C	05/19/2022	16:03	-131.249	49.097	0	292.80	0	6.7090	0	33.9190	0	26.610	0	290.108	0	83.0	4	27.9	4	-1E+10	1	-1E+10	1	-1E+10	1	-1E+10	1	-1E+10	1	-1E+10	1
4902551	64	C	05/19/2022	16:03	-131.249	49.097	0	293.80	0	6.6990	0	33.9250	0	26.616	0	291.098	0	83.4	4	28.0	4	-1E+10	1	-1E+10	1	-1E+10	1	-1E+10	1	-1E+10	1	-1E+10	1
4902551	64	C	05/19/2022	16:03	-131.249	49.097	0	294.80	0	6.6830	0	33.9250	0	26.619	0	292.088	0	83.7	4	28.1	4	-1E+10	1	-1E+10	1	-1E+10	1	-1E+10	1	-1E+10	1	-1E+10	1
4902551	64	C	05/19/2022	16:03	-131.249	49.097	0	295.80	0	6.6420	0	33.9300	0	26.628	0	293.078	0	83.8	4	28.1	4	-1E+10	1	-1E+10	1	-1E+10	1	-1E+10	1	-1E+10	1	-1E+10	1
4902551	64	C	05/19/2022	16:03	-131.249	49.097	0	296.80	0	6.6060	0	33.9220	0	26.626	0	294.069	0	84.0	4	28.1	4	-1E+10	1	-1E+10	1	-1E+10	1	-1E+10	1	-1E+10	1	-1E+10	1
4902551	64	C	05/19/2022	16:03	-131.249	49.097	0	297.80	0	6.6040	0	33.9190	0	26.624	0	295.059	0	84.0	4	28.2	4	-1E+10	1	-1E+10	1	-1E+10	1	-1E+10	1	-1E+10	1	-1E+10	1
4902551	64	C	05/19/2022	16:03	-131.249	49.097	0	298.80	0	6.6020	0	33.9200	0	26.625	0	296.049	0	84.2	4	28.2	4	-1E+10	1	-1E+10	1	-1E+10	1	-1E+10	1	-1E+10	1	-1E+10	1
4902551	64	C	05/19/2022	16:03	-131.249	49.097	0	299.90	0	6.5940	0	33.9240	0	26.630	0	297.138	0	84.2	4	28.2	4	-1E+10	1	-1E+10	1	-1E+10	1	-1E+10	1	-1E+10	1	-1E+10	1
4902551	64	C	05/19/2022	16:03	-131.249	49.097	0	300.90	0	6.5880	0	33.9180	0	26.626	0	298.128	0	84.3	4	28.2	4	-1E+10	1	-1E+10	1	-1E+10	1	-1E+10	1	-1E+10	1	-1E+10	1
4902551	64	C	05/19/2022	16:03	-131.249	49.097	0	301.90	0	6.5860	0	33.9180	0	26.626	0	299.118	0	84.4	4	28.3	4	-1E+10	1	-1E+10	1	-1E+10	1	-1E+10	1	-1E+10	1	-1E+10	1
4902551	64	C	05/19/2022	16:03	-131.249	49.097	0	302.90	0	6.5640	0	33.9310	0	26.639	0	300.108	0	84.5	4	28.3	4	-1E+10	1	-1E+10	1	-1E+10	1	-1E+10	1	-1E+10	1	-1E+10	1
4902551	64	C	05/19/2022	16:03	-131.249	49.097	0	304.00	0	6.5550	0	33.9180	0	26.630	0	301.197	0	84.6	4	28.3	4	-1E+10	1	-1E+10	1	-1E+10	1	-1E+10	1	-1E+10	1	-1E+10	1
4902551	64	C	05/19/2022	16:03	-131.249	49.097	0	305.00	0	6.5520	0	33.9170	0	26.630	0	302.187	0	84.5	4	28.3	4	-1E+10	1	-1E+10	1	-1E+10	1	-1E+10	1	-1E+10	1	-1E+10	1
4902551	64	C	05/19/2022	16:03	-131.249	49.097	0	306.00	0	6.5460	0	33.9190	0	26.632	0	303.177	0	84.6	4	28.3	4	-1E+10	1	-1E+10	1	-1E+10	1	-1E+10	1	-1E+10	1	-1E+10	1
4902551	64	C	05/19/2022	16:03	-131.249	49.097	0	307.00	0	6.5400	0	33.9170	0	26.631	0	304.167	0	84.6	4	28.3	4	-1E+10	1	-1E+10	1	-1E+10	1	-1E+10	1	-1E+10	1	-1E+10	1
4902551	64	C	05/19/2022	16:03	-131.249	49.097	0	308.00	0	6.5140	0	33.9210	0	26.638	0	305.157	0	84.7	4	28.3	4	-1E+10	1	-1E+10	1	-1E+10	1	-1E+10	1	-1E+10	1	-1E+10	1
4902551	64	C	05/19/2022	16:03	-131.249	49.097	0	309.00	0	6.4970	0	33.9180	0	26.638	0	306.147	0	84.6	4	28.3	4	-1E+10	1	-1E+10	1	-1E+10	1	-1E+10	1	-1E+10	1	-1E+10	1
4902551	64	C	05/19/2022	16:03	-131.249	49.097	0	310.00	0	6.4860	0	33.9200	0	26.641	0	307.137	0	84.6	4	28.3	4	-1E+10	1	-1E+10	1	-1E+10	1	-1E+10	1	-1E+10	1	-1E+10	1
4902551	64	C	05/19/2022	16:03	-131.249	49.097	0	311.00	0	6.4570	0	33.9290	0	26.652	0	308.127	0	84.6	4	28.2	4	-1E+10	1	-1E+10	1	-1E+10	1	-1E+10	1	-1E+10	1	-1E+10	1
4902551	64	C	05/19/2022	16:03	-131.249	49.097	0	312.00	0	6.4120	0	33.9230	0	26.653	0	309.117	0	84.6	4	28.2	4	-1E+10	1	-1E+10	1	-1E+10	1	-1E+10	1	-1E+10	1	-1E+10	1
4902551	64	C	05/19/2022	16:03	-131.249	49.097	0	313.00	0	6.3800	0	33.9240	0	26.658	0	310.107	0	84.6	4	28.2	4	-1E+10	1	-1E+10	1	-1E+10	1	-1E+10	1	-1E+10	1	-1E+10	1
4902551	64	C	05/19/2022	16:03	-131.249	49.097	0	314.00	0	6.3670	0	33.9200	0	26.656	0	311.097	0	84.6	4	28.2	4	-1E+10	1	-1E+10	1	-1E+10	1	-1E+10	1	-1E+10	1	-1E+10	1
4902551	64	C	05/19/2022	16:03	-131.249	49.097	0	315.10	0	6.3650	0	33.9190	0	26.656	0	312.186	0	84.6	4	28.2	4	-1E+10	1	-1E+10	1	-1E+10	1	-1E+10	1	-1E+10	1	-1E+10	1
4902551	64	C	05/19/2022	16:03	-131.249	49.097	0	316.10	0	6.3560	0	33.9190	0	26.657	0	313.176	0	84.6	4	28.2	4	-1E+10	1	-1E+10	1	-1E+10	1	-1E+10	1	-1E+10	1	-1E+10	1
4902551	64	C	05/19/2022	16:03	-131.249	49.097	0	317.00	0	6.3440	0	33.9210	0	26.660	0	314.067	0	84.6	4	28.2	4	-1E+10	1	-1E+10	1	-1E+10	1	-1E+10	1	-1E+10	1	-1E+10	1
4902551	64	C	05/19/2022	16:03	-131.249	49.097	0	318.00	0	6.3250	0	33.9240	0	26.665	0	315.057	0	84.5	4	28.1	4	-1E+10	1	-1E+10	1	-1E+10	1	-1E+10	1	-1E+10	1	-1E+10	1
4902551	64	C	05/19/2022	16:03	-131.249	49.097	0	319.00	0	6.3010	0	33.9260	0	26.669	0	316.047	0	84.5	4	28.1	4	-1E+10	1	-1E+10	1	-1E+10	1	-1E+10	1	-1E+10	1	-1E+10	1
4902551	64	C	05/19/2022	16:03	-131.249	49.097	0	320.00	0	6.2760	0	33.9230	0	26.670	0	317.037	0	84.5	4	28.1	4	-1E+10	1	-1E+10	1	-1E+10	1	-1E+10	1	-1E+10	1	-1E+10	1
4902551	64	C	05/19/2022	16:03	-131.249	49.097	0	320.90	0	6.2740	0	33.9220	0	26.670	0	317.928	0	84.4	4	28.1	4	-1E+10	1	-1E+10	1	-1E+10	1	-1E+10	1	-1E+10	1	-1E+10	1
4902551	64	C	05/19/2022	16:03	-131.249	49.097	0	321.90	0	6.2690	0	33.9180	0	26.667	0	318.918	0	84.3	4	28.0	4	-1E+10	1	-1E+10	1	-1E+10	1	-1E+10	1	-1E+10	1	-1E+10	1
4902551	64	C	05/19/2022	16:03	-131.249	49.097	0	322.90	0	6.2600	0	33.9220	0	26.672	0	319.908	0	84.2	4	28.0	4	-1E+10	1	-1E+10	1	-1E+10	1	-1E+10	1	-1E+10	1	-1E+10	1
4902551	64	C	05/19/2022	16:03	-131.249	49.097	0	323.90	0	6.2380	0	33.9160	0	26.670	0	320.898	0	84.1	4	27.9	4	-1E+10	1	-1E+10	1	-1E+10	1	-1E+10	1	-1E+10	1	-1E+10	1
4902551	64	C	05/19/2022	16:03	-131.249	49.097	0	324.90	0	6.2400	0	33.9190	0	26.672	0	321.888	0	83.9	4	27.9	4	-1E+10	1	-1E+10	1	-1E+10	1	-1E+10	1	-1E+10	1	-1E+10	1
4902551	64	C	05/19/2022	16:03	-131.249	49.097	0	326.00	0	6.2220	0	33.9170	0	26.673	0	322.977	0	83.8	4	27.8	4	-1E+10	1	-1E+10	1	-1E+10	1	-1E+10	1	-1E+10	1	-1E+10	1
4902551	64	C	05/19/2022	16:03	-131.249	49.097	0	327.00	0	6.2190	0	33.9170	0	26.673	0	323.967	0	83.6	4	27.7	4	-1E+10	1	-1E+10	1	-1E+10	1	-1E+10	1	-1E+10	1	-1E+10	1
4902551	64	C	05/19/2022	16:03	-131.249	49.097	0	328.00	0	6.1860	0	33.9360	0	26.692	0	324.957	0	83.3	4	27.6	4	-1E+10	1	-1E+10	1	-1E+10	1	-1E+10	1	-1E+10	1	-1E+10	1
4902551	64	C	05/19/2022	16:03	-131.249	49.097	0	329.10	0	6.1410	0	33.9310	0	26.694	0	326.046	0	83.0	4	27.5	4	-1E+10	1	-1E+10	1	-1E+10	1	-1E+10	1	-1E+10	1	-1E+10	1
4902551	64	C	05/19/2022	16:03	-131.249	49.097	0	330.10	0	6.1270	0	33.9180	0	26.685	0	327.036	0	82.8	4	27.4	4	-1E+10	1	-1E+10	1	-1E+10	1	-1E+10	1	-1E+10	1	-1E+10	1
4902551	64	C	05/19/2022	16:03	-131.249	49.097	0	331.10	0	6.1230	0	33.9180	0	26.686	0	328.026	0	82.4	4	27.3	4	-1E+10	1	-1E+10	1	-1E+10	1	-1E+10	1	-1E+10	1	-1E+10	1
4902551	64	C	05/19/2022	16:03	-131.249	49.097	0	332.20	0	6.1080	0	33.9200	0	26.689	0	329.115	0	82.0	4	27.2	4	-1E+10	1	-1E+10	1	-1E+10	1	-1E+10	1	-1E+10	1	-1E+10	1
4902551	64	C	05/19/2022	16:03	-131.249	49.097	0	333.20	0	6.0750	0	33.9230	0	26.696	0	330.105	0	81.6	4	27.0	4	-1E+10	1	-1E+10	1	-1E+10	1	-1E+10	1	-1E+10	1	-1E+10	1
4902551	64	C	05/19/2022	16:03	-131.249	49.097	0	334.20	0	6.0590	0	33.9200	0	26.696	0	331.095	0	81.2	4	26.9	4	-1E+10	1	-1E+10	1	-1E+10	1	-1E+10	1	-1E+10	1	-1E+10	1
4902551	64	C	05/19/2022	16:03	-131.249	49.097	0	335.20	0	5.9660	0	33.9550	0	26.735	0	332.084	0	80.8	4	26.7	4	-1E+10	1	-1E+10	1	-1E+10	1	-1E+10	1	-1E+10	1	-1E+10	1
4902551	64	C	05/19/2022	16:03	-131.249	49.097	0	336.20	0	5.9350	0	33.9220	0	26.713	0	333.074	0	80.7	4	26.6	4	-1E+10	1	-1E+10	1	-1E+10	1	-1E+10	1	-1E+10	1	-1E+10	1
4902551	64	C	05/19/2022	16:03	-131.249	49.097	0	337.20	0	5.9160	0	33.9290	0	26.721	0	334.064	0	80.3	4	26.5	4	-1E+10	1	-1E+10	1	-1E+10	1	-1E+10	1	-1E+10	1	-1E+10	1
4902551	64	C	05/19/2022	16:03	-131.249	49.097	0	338.20	0	5.8870	0	33.9250	0	26.721	0	335.054	0	80.1	4	26.4	4	-1E+10	1	-1E+10	1	-1E+10	1	-1E+10	1	-1E+10	1	-1E+10	1
4902551	64	C	05/19/2022	16:03	-131.249	49.097	0	339.30	0	5.8790	0	33.9260	0	26.723	0	336.143	0	79.9	4	26.3	4	-1E+10	1	-1E+10	1	-1E+10	1	-1E+10	1	-1E+10	1	-1E+10	1
4902551	64	C	05/19/2022	16:03	-131.249	49.097	0	340.30	0	5.8700	0	33.9250	0	26.723	0	337.133	0	79.5	4	26.2	4	-1E+10	1	-1E+10	1	-1E+10	1	-1E+10	1	-1E+10	1	-1E+10	1
4902551	64	C	05/19/2022	16:03	-131.249	49.097	0	341.30	0	5.8640	0	33.9250	0	26.724	0	338.123	0	79.3	4	26.1	4	-1E+10	1	-1E+10	1	-1E+10	1	-1E+10	1	-1E+10	1	-1E+10	1
4902551	64	C	05/19/2022	16:03	-131.249	49.097	0	342.30	0	5.8580	0	33.9240	0	26.724	0	339.113	0	79.0	4	26.0	4	-1E+10	1	-1E+10	1	-1E+10	1	-1E+10	1	-1E+10	1	-1E+10	1
4902551	64	C	05/19/2022	16:03	-131.249	49.097	0	343.20	0	5.8480	0	33.9280	0	26.728	0	340.004	0	78.7	4	25.9	4	-1E+10	1	-1E+10	1	-1E+10	1	-1E+10	1	-1E+10	1	-1E+10	1
4902551	64	C	05/19/2022	16:03	-131.249	49.097	0	344.20	0	5.8010	0	33.9300	0	26.736	0	340.993	0	78.4	4	25.8	4	-1E+10	1	-1E+10	1	-1E+10	1	-1E+10	1	-1E+10	1	-1E+10	1
4902551	64	C	05/19/2022	16:03	-131.249	49.097	0	345.20	0	5.7860	0	33.9270	0	26.735	0	341.983	0	78.1	4	25.7	4	-1E+10	1	-1E+10	1	-1E+10	1	-1E+10	1	-1E+10	1	-1E+10	1
4902551	64	C	05/19/2022	16:03	-131.249	49.097	0	346.20	0	5.7590	0	33.9290	0	26.740	0	342.973	0	77.8	4	25.6	4	-1E+10	1	-1E+10	1	-1E+10	1	-1E+10	1	-1E+10	1	-1E+10	1
4902551	64	C	05/19/2022	16:03	-131.249	49.097	0	347.20	0	5.7500	0	33.9270	0	26.740	0	343.963	0	77.4	4	25.4	4	-1E+10	1	-1E+10	1	-1E+10	1	-1E+10	1	-1E+10	1	-1E+10	1
4902551	64	C	05/19/2022	16:03	-131.249	49.097	0	348.20	0	5.7410	0	33.9270	0	26.741	0	344.953	0	77.0	4	25.3	4	-1E+10	1	-1E+10	1	-1E+10	1	-1E+10	1	-1E+10	1	-1E+10	1
4902551	64	C	05/19/2022	16:03	-131.249	49.097	0	349.20	0	5.7310	0	33.9280	0	26.743	0	345.943	0	76.5	4	25.1	4	-1E+10	1	-1E+10	1	-1E+10	1	-1E+10	1	-1E+10	1	-1E+10	1
4902551	64	C	05/19/2022	16:03	-131.249	49.097	0	350.20	0	5.7240	0	33.9250	0	26.741	0	346.932	0	76.0	4	25.0	4	-1E+10	1	-1E+10	1	-1E+10	1	-1E+10	1	-1E+10	1	-1E+10	1
4902551	64	C	05/19/2022	16:03	-131.249	49.097	0	353.20	0	5.6400	0	33.9340	0	26.758	0	349.902	0	74.5	4	24.4	4	-1E+10	1	-1E+10	1	-1E+10	1	-1E+10	1	-1E+10	1	-1E+10	1
4902551	64	C	05/19/2022	16:03	-131.249	49.097	0	357.90	0	5.5640	0	33.9360	0	26.769	0	354.554	0	72.8	4	23.8	4	-1E+10	1	-1E+10	1	-1E+10	1	-1E+10	1	-1E+10	1	-1E+10	1
4902551	64	C	05/19/2022	16:03	-131.249	49.097	0	362.90	0	5.5180	0	33.9410	0	26.779	0	359.503	0	71.1	4	23.2	4	-1E+10	1	-1E+10	1	-1E+10	1	-1E+10	1	-1E+10	1	-1E+10	1
4902551	64	C	05/19/2022	16:03	-131.249	49.097	0	368.00	0	5.4950	0	33.9430	0	26.783	0	364.551	0	70.0	4	22.9	4	-1E+10	1	-1E+10	1	-1E+10	1	-1E+10	1	-1E+10	1	-1E+10	1
4902551	64	C	05/19/2022	16:03	-131.249	49.097	0	373.10	0	5.4910	0	33.9430	0	26.784	0	369.598	0	68.5	4	22.4	4	-1E+10	1	-1E+10	1	-1E+10	1	-1E+10	1	-1E+10	1	-1E+10	1
4902551	64	C	05/19/2022	16:03	-131.249	49.097	0	378.10	0	5.4680	0	33.9460	0	26.789	0	374.547	0	65.8	4	21.5	4	-1E+10	1	-1E+10	1	-1E+10	1	-1E+10	1	-1E+10	1	-1E+10	1
4902551	64	C	05/19/2022	16:03	-131.249	49.097	0	383.10	0	5.3400	0	33.9550	0	26.811	0	379.495	0	62.9	4	20.5	4	-1E+10	1	-1E+10	1	-1E+10	1	-1E+10	1	-1E+10	1	-1E+10	1
4902551	64	C	05/19/2022	16:03	-131.249	49.097	0	388.20	0	5.2610	0	33.9600	0	26.824	0	384.543	0	60.3	4	19.6	4	-1E+10	1	-1E+10	1	-1E+10	1	-1E+10	1	-1E+10	1	-1E+10	1
4902551	64	C	05/19/2022	16:03	-131.249	49.097	0	393.10	0	5.2230	0	33.9630	0	26.831	0	389.392	0	57.8	4	18.8	4	-1E+10	1	-1E+10	1	-1E+10	1	-1E+10	1	-1E+10	1	-1E+10	1
4902551	64	C	05/19/2022	16:03	-131.249	49.097	0	398.00	0	5.1780	0	33.9710	0	26.843	0	394.241	0	54.5	4	17.7	4	-1E+10	1	-1E+10	1	-1E+10	1	-1E+10	1	-1E+10	1	-1E+10	1
4902551	64	C	05/19/2022	16:03	-131.249	49.097	0	403.10	0	5.1200	0	33.9850	0	26.861	0	399.288	0	51.2	4	16.6	4	-1E+10	1	-1E+10	1	-1E+10	1	-1E+10	1	-1E+10	1	-1E+10	1
4902551	64	C	05/19/2022	16:03	-131.249	49.097	0	407.90	0	5.0960	0	33.9960	0	26.872	0	404.038	0	48.8	4	15.8	4	-1E+10	1	-1E+10	1	-1E+10	1	-1E+10	1	-1E+10	1	-1E+10	1
4902551	64	C	05/19/2022	16:03	-131.249	49.097	0	412.90	0	5.0830	0	34.0090	0	26.884	0	408.986	0	47.4	4	15.3	4	-1E+10	1	-1E+10	1	-1E+10	1	-1E+10	1	-1E+10	1	-1E+10	1
4902551	64	C	05/19/2022	16:03	-131.249	49.097	0	418.00	0	5.0500	0	34.0090	0	26.888	0	414.032	0	46.0	4	14.9	4	-1E+10	1	-1E+10	1	-1E+10	1	-1E+10	1	-1E+10	1	-1E+10	1
4902551	64	C	05/19/2022	16:03	-131.249	49.097	0	423.20	0	5.0390	0	34.0140	0	26.893	0	419.178	0	44.3	4	14.3	4	-1E+10	1	-1E+10	1	-1E+10	1	-1E+10	1	-1E+10	1	-1E+10	1
4902551	64	C	05/19/2022	16:03	-131.249	49.097	0	428.30	0	5.0470	0	34.0210	0	26.898	0	424.224	0	42.3	4	13.7	4	-1E+10	1	-1E+10	1	-1E+10	1	-1E+10	1	-1E+10	1	-1E+10	1
4902551	64	C	05/19/2022	16:03	-131.249	49.097	0	433.00	0	5.0640	0	34.0290	0	26.902	0	428.874	0	40.2	4	13.0	4	-1E+10	1	-1E+10	1	-1E+10	1	-1E+10	1	-1E+10	1	-1E+10	1
4902551	64	C	05/19/2022	16:03	-131.249	49.097	0	437.70	0	5.0460	0	34.0440	0	26.916	0	433.525	0	39.0	4	12.6	4	-1E+10	1	-1E+10	1	-1E+10	1	-1E+10	1	-1E+10	1	-1E+10	1
4902551	64	C	05/19/2022	16:03	-131.249	49.097	0	443.00	0	5.0160	0	34.0470	0	26.922	0	438.768	0	38.0	4	12.3	4	-1E+10	1	-1E+10	1	-1E+10	1	-1E+10	1	-1E+10	1	-1E+10	1
4902551	64	C	05/19/2022	16:03	-131.249	49.097	0	448.20	0	5.0060	0	34.0520	0	26.927	0	443.913	0	37.3	4	12.0	4	-1E+10	1	-1E+10	1	-1E+10	1	-1E+10	1	-1E+10	1	-1E+10	1
4902551	64	C	05/19/2022	16:03	-131.249	49.097	0	452.90	0	5.0020	0	34.0540	0	26.929	0	448.563	0	36.6	4	11.8	4	-1E+10	1	-1E+10	1	-1E+10	1	-1E+10	1	-1E+10	1	-1E+10	1
4902551	64	C	05/19/2022	16:03	-131.249	49.097	0	457.60	0	4.9890	0	34.0580	0	26.934	0	453.213	0	35.8	4	11.6	4	-1E+10	1	-1E+10	1	-1E+10	1	-1E+10	1	-1E+10	1	-1E+10	1
4902551	64	C	05/19/2022	16:03	-131.249	49.097	0	462.90	0	4.9690	0	34.0630	0	26.940	0	458.456	0	35.4	4	11.4	4	-1E+10	1	-1E+10	1	-1E+10	1	-1E+10	1	-1E+10	1	-1E+10	1
4902551	64	C	05/19/2022	16:03	-131.249	49.097	0	468.30	0	4.9050	0	34.0640	0	26.948	0	463.799	0	35.2	4	11.4	4	-1E+10	1	-1E+10	1	-1E+10	1	-1E+10	1	-1E+10	1	-1E+10	1
4902551	64	C	05/19/2022	16:03	-131.249	49.097	0	473.10	0	4.8610	0	34.0610	0	26.951	0	468.547	0	34.9	4	11.2	4	-1E+10	1	-1E+10	1	-1E+10	1	-1E+10	1	-1E+10	1	-1E+10	1
4902551	64	C	05/19/2022	16:03	-131.249	49.097	0	477.90	0	4.8420	0	34.0630	0	26.955	0	473.295	0	34.5	4	11.1	4	-1E+10	1	-1E+10	1	-1E+10	1	-1E+10	1	-1E+10	1	-1E+10	1
4902551	64	C	05/19/2022	16:03	-131.249	49.097	0	482.80	0	4.8140	0	34.0670	0	26.961	0	478.142	0	34.1	4	11.0	4	-1E+10	1	-1E+10	1	-1E+10	1	-1E+10	1	-1E+10	1	-1E+10	1
4902551	64	C	05/19/2022	16:03	-131.249	49.097	0	487.60	0	4.7830	0	34.0650	0	26.963	0	482.891	0	33.8	4	10.9	4	-1E+10	1	-1E+10	1	-1E+10	1	-1E+10	1	-1E+10	1	-1E+10	1
4902551	64	C	05/19/2022	16:03	-131.249	49.097	0	492.90	0	4.7620	0	34.0660	0	26.966	0	488.133	0	33.2	4	10.7	4	-1E+10	1	-1E+10	1	-1E+10	1	-1E+10	1	-1E+10	1	-1E+10	1
4902551	64	C	05/19/2022	16:03	-131.249	49.097	0	498.20	0	4.7360	0	34.0690	0	26.971	0	493.376	0	32.4	4	10.4	4	-1E+10	1	-1E+10	1	-1E+10	1	-1E+10	1	-1E+10	1	-1E+10	1
4902551	64	C	05/19/2022	16:03	-131.249	49.097	0	502.90	0	4.7020	0	34.0700	0	26.976	0	498.024	0	31.6	4	10.1	4	-1E+10	1	-1E+10	1	-1E+10	1	-1E+10	1	-1E+10	1	-1E+10	1
4902551	64	C	05/19/2022	16:03	-131.249	49.097	0	507.60	0	4.6650	0	34.0750	0	26.984	0	502.673	0	30.9	4	9.9	4	-1E+10	1	-1E+10	1	-1E+10	1	-1E+10	1	-1E+10	1	-1E+10	1
4902551	64	C	05/19/2022	16:03	-131.249	49.097	0	512.80	0	4.6330	0	34.0770	0	26.989	0	507.816	0	29.8	4	9.5	4	-1E+10	1	-1E+10	1	-1E+10	1	-1E+10	1	-1E+10	1	-1E+10	1
4902551	64	C	05/19/2022	16:03	-131.249	49.097	0	518.00	0	4.6000	0	34.0840	0	26.998	0	512.959	0	28.5	4	9.1	4	-1E+10	1	-1E+10	1	-1E+10	1	-1E+10	1	-1E+10	1	-1E+10	1
4902551	64	C	05/19/2022	16:03	-131.249	49.097	0	523.10	0	4.5650	0	34.0940	0	27.010	0	518.003	0	27.6	4	8.8	4	-1E+10	1	-1E+10	1	-1E+10	1	-1E+10	1	-1E+10	1	-1E+10	1
4902551	64	C	05/19/2022	16:03	-131.249	49.097	0	528.30	0	4.5570	0	34.0980	0	27.014	0	523.146	0	27.2	4	8.7	4	-1E+10	1	-1E+10	1	-1E+10	1	-1E+10	1	-1E+10	1	-1E+10	1
4902551	64	C	05/19/2022	16:03	-131.249	49.097	0	533.00	0	4.5550	0	34.0980	0	27.014	0	527.794	0	26.7	4	8.5	4	-1E+10	1	-1E+10	1	-1E+10	1	-1E+10	1	-1E+10	1	-1E+10	1
4902551	64	C	05/19/2022	16:03	-131.249	49.097	0	537.50	0	4.5480	0	34.1010	0	27.018	0	532.245	0	26.2	4	8.4	4	-1E+10	1	-1E+10	1	-1E+10	1	-1E+10	1	-1E+10	1	-1E+10	1
4902551	64	C	05/19/2022	16:03	-131.249	49.097	0	542.70	0	4.5390	0	34.1030	0	27.020	0	537.387	0	25.4	4	8.1	4	-1E+10	1	-1E+10	1	-1E+10	1	-1E+10	1	-1E+10	1	-1E+10	1
4902551	64	C	05/19/2022	16:03	-131.249	49.097	0	547.90	0	4.5210	0	34.1100	0	27.028	0	542.530	0	24.4	4	7.8	4	-1E+10	1	-1E+10	1	-1E+10	1	-1E+10	1	-1E+10	1	-1E+10	1
4902551	64	C	05/19/2022	16:03	-131.249	49.097	0	552.70	0	4.5070	0	34.1140	0	27.032	0	547.276	0	23.5	4	7.5	4	-1E+10	1	-1E+10	1	-1E+10	1	-1E+10	1	-1E+10	1	-1E+10	1
4902551	64	C	05/19/2022	16:03	-131.249	49.097	0	557.90	0	4.4920	0	34.1200	0	27.039	0	552.418	0	22.4	4	7.2	4	-1E+10	1	-1E+10	1	-1E+10	1	-1E+10	1	-1E+10	1	-1E+10	1
4902551	64	C	05/19/2022	16:03	-131.249	49.097	0	562.90	0	4.4640	0	34.1290	0	27.049	0	557.362	0	21.4	4	6.8	4	-1E+10	1	-1E+10	1	-1E+10	1	-1E+10	1	-1E+10	1	-1E+10	1
4902551	64	C	05/19/2022	16:03	-131.249	49.097	0	567.50	0	4.4490	0	34.1330	0	27.054	0	561.911	0	20.8	4	6.6	4	-1E+10	1	-1E+10	1	-1E+10	1	-1E+10	1	-1E+10	1	-1E+10	1
4902551	64	C	05/19/2022	16:03	-131.249	49.097	0	572.60	0	4.4410	0	34.1360	0	27.057	0	566.954	0	19.9	4	6.4	4	-1E+10	1	-1E+10	1	-1E+10	1	-1E+10	1	-1E+10	1	-1E+10	1
4902551	64	C	05/19/2022	16:03	-131.249	49.097	0	577.80	0	4.4190	0	34.1470	0	27.068	0	572.095	0	19.3	4	6.2	4	-1E+10	1	-1E+10	1	-1E+10	1	-1E+10	1	-1E+10	1	-1E+10	1
4902551	64	C	05/19/2022	16:03	-131.249	49.097	0	583.00	0	4.4120	0	34.1490	0	27.071	0	577.237	0	18.8	4	6.0	4	-1E+10	1	-1E+10	1	-1E+10	1	-1E+10	1	-1E+10	1	-1E+10	1
4902551	64	C	05/19/2022	16:03	-131.249	49.097	0	588.00	0	4.4070	0	34.1540	0	27.075	0	582.180	0	18.4	4	5.9	4	-1E+10	1	-1E+10	1	-1E+10	1	-1E+10	1	-1E+10	1	-1E+10	1
4902551	64	C	05/19/2022	16:03	-131.249	49.097	0	592.90	0	4.3910	0	34.1570	0	27.079	0	587.025	0	18.1	4	5.8	4	-1E+10	1	-1E+10	1	-1E+10	1	-1E+10	1	-1E+10	1	-1E+10	1
4902551	64	C	05/19/2022	16:03	-131.249	49.097	0	597.80	0	4.3410	0	34.1600	0	27.087	0	591.869	0	17.8	4	5.7	4	-1E+10	1	-1E+10	1	-1E+10	1	-1E+10	1	-1E+10	1	-1E+10	1
4902551	64	C	05/19/2022	16:03	-131.249	49.097	0	602.80	0	4.3150	0	34.1630	0	27.092	0	596.813	0	17.2	4	5.5	4	-1E+10	1	-1E+10	1	-1E+10	1	-1E+10	1	-1E+10	1	-1E+10	1
4902551	64	C	05/19/2022	16:03	-131.249	49.097	0	607.90	0	4.3030	0	34.1730	0	27.102	0	601.855	0	16.7	4	5.3	4	-1E+10	1	-1E+10	1	-1E+10	1	-1E+10	1	-1E+10	1	-1E+10	1
4902551	64	C	05/19/2022	16:03	-131.249	49.097	0	613.00	0	4.2860	0	34.1760	0	27.106	0	606.897	0	16.7	4	5.3	4	-1E+10	1	-1E+10	1	-1E+10	1	-1E+10	1	-1E+10	1	-1E+10	1
4902551	64	C	05/19/2022	16:03	-131.249	49.097	0	618.20	0	4.2710	0	34.1770	0	27.108	0	612.037	0	16.7	4	5.3	4	-1E+10	1	-1E+10	1	-1E+10	1	-1E+10	1	-1E+10	1	-1E+10	1
4902551	64	C	05/19/2022	16:03	-131.249	49.097	0	623.00	0	4.2510	0	34.1780	0	27.111	0	616.782	0	16.5	4	5.2	4	-1E+10	1	-1E+10	1	-1E+10	1	-1E+10	1	-1E+10	1	-1E+10	1
4902551	64	C	05/19/2022	16:03	-131.249	49.097	0	627.80	0	4.2380	0	34.1800	0	27.114	0	621.527	0	16.3	4	5.2	4	-1E+10	1	-1E+10	1	-1E+10	1	-1E+10	1	-1E+10	1	-1E+10	1
4902551	64	C	05/19/2022	16:03	-131.249	49.097	0	632.70	0	4.2320	0	34.1820	0	27.116	0	626.371	0	16.0	4	5.1	4	-1E+10	1	-1E+10	1	-1E+10	1	-1E+10	1	-1E+10	1	-1E+10	1
4902551	64	C	05/19/2022	16:03	-131.249	49.097	0	637.70	0	4.2250	0	34.1860	0	27.120	0	631.313	0	15.7	4	5.0	4	-1E+10	1	-1E+10	1	-1E+10	1	-1E+10	1	-1E+10	1	-1E+10	1
4902551	64	C	05/19/2022	16:03	-131.249	49.097	0	642.80	0	4.2120	0	34.1890	0	27.124	0	636.354	0	15.7	4	5.0	4	-1E+10	1	-1E+10	1	-1E+10	1	-1E+10	1	-1E+10	1	-1E+10	1
4902551	64	C	05/19/2022	16:03	-131.249	49.097	0	647.90	0	4.1890	0	34.1920	0	27.129	0	641.395	0	15.7	4	5.0	4	-1E+10	1	-1E+10	1	-1E+10	1	-1E+10	1	-1E+10	1	-1E+10	1
4902551	64	C	05/19/2022	16:03	-131.249	49.097	0	652.70	0	4.1860	0	34.1910	0	27.128	0	646.140	0	15.5	4	4.9	4	-1E+10	1	-1E+10	1	-1E+10	1	-1E+10	1	-1E+10	1	-1E+10	1
4902551	64	C	05/19/2022	16:03	-131.249	49.097	0	658.00	0	4.1700	0	34.1950	0	27.133	0	651.378	0	15.0	4	4.8	4	-1E+10	1	-1E+10	1	-1E+10	1	-1E+10	1	-1E+10	1	-1E+10	1
4902551	64	C	05/19/2022	16:03	-131.249	49.097	0	663.20	0	4.1480	0	34.2000	0	27.140	0	656.518	0	14.6	4	4.6	4	-1E+10	1	-1E+10	1	-1E+10	1	-1E+10	1	-1E+10	1	-1E+10	1
4902551	64	C	05/19/2022	16:03	-131.249	49.097	0	668.20	0	4.1120	0	34.2070	0	27.149	0	661.459	0	14.2	4	4.5	4	-1E+10	1	-1E+10	1	-1E+10	1	-1E+10	1	-1E+10	1	-1E+10	1
4902551	64	C	05/19/2022	16:03	-131.249	49.097	0	672.90	0	4.0870	0	34.2130	0	27.156	0	666.104	0	14.0	4	4.4	4	-1E+10	1	-1E+10	1	-1E+10	1	-1E+10	1	-1E+10	1	-1E+10	1
4902551	64	C	05/19/2022	16:03	-131.249	49.097	0	677.70	0	4.0680	0	34.2180	0	27.162	0	670.848	0	13.7	4	4.3	4	-1E+10	1	-1E+10	1	-1E+10	1	-1E+10	1	-1E+10	1	-1E+10	1
4902551	64	C	05/19/2022	16:03	-131.249	49.097	0	683.00	0	4.0580	0	34.2230	0	27.167	0	676.086	0	13.5	4	4.3	4	-1E+10	1	-1E+10	1	-1E+10	1	-1E+10	1	-1E+10	1	-1E+10	1
4902551	64	C	05/19/2022	16:03	-131.249	49.097	0	687.90	0	4.0490	0	34.2250	0	27.170	0	680.928	0	13.4	4	4.2	4	-1E+10	1	-1E+10	1	-1E+10	1	-1E+10	1	-1E+10	1	-1E+10	1
4902551	64	C	05/19/2022	16:03	-131.249	49.097	0	692.70	0	4.0230	0	34.2280	0	27.175	0	685.672	0	13.3	4	4.2	4	-1E+10	1	-1E+10	1	-1E+10	1	-1E+10	1	-1E+10	1	-1E+10	1
4902551	64	C	05/19/2022	16:03	-131.249	49.097	0	697.90	0	4.0230	0	34.2300	0	27.177	0	690.811	0	13.2	4	4.2	4	-1E+10	1	-1E+10	1	-1E+10	1	-1E+10	1	-1E+10	1	-1E+10	1
4902551	64	C	05/19/2022	16:03	-131.249	49.097	0	703.10	0	3.9970	0	34.2320	0	27.181	0	695.949	0	13.0	4	4.1	4	-1E+10	1	-1E+10	1	-1E+10	1	-1E+10	1	-1E+10	1	-1E+10	1
4902551	64	C	05/19/2022	16:03	-131.249	49.097	0	708.10	0	3.9830	0	34.2400	0	27.189	0	700.890	0	12.8	4	4.0	4	-1E+10	1	-1E+10	1	-1E+10	1	-1E+10	1	-1E+10	1	-1E+10	1
4902551	64	C	05/19/2022	16:03	-131.249	49.097	0	712.90	0	3.9390	0	34.2410	0	27.194	0	705.633	0	12.7	4	4.0	4	-1E+10	1	-1E+10	1	-1E+10	1	-1E+10	1	-1E+10	1	-1E+10	1
4902551	64	C	05/19/2022	16:03	-131.249	49.097	0	717.60	0	3.9290	0	34.2440	0	27.197	0	710.277	0	12.4	4	3.9	4	-1E+10	1	-1E+10	1	-1E+10	1	-1E+10	1	-1E+10	1	-1E+10	1
4902551	64	C	05/19/2022	16:03	-131.249	49.097	0	722.80	0	3.9320	0	34.2530	0	27.204	0	715.415	0	12.1	4	3.8	4	-1E+10	1	-1E+10	1	-1E+10	1	-1E+10	1	-1E+10	1	-1E+10	1
4902551	64	C	05/19/2022	16:03	-131.249	49.097	0	728.00	0	3.9210	0	34.2560	0	27.208	0	720.553	0	12.0	4	3.8	4	-1E+10	1	-1E+10	1	-1E+10	1	-1E+10	1	-1E+10	1	-1E+10	1
4902551	64	C	05/19/2022	16:03	-131.249	49.097	0	733.20	0	3.9080	0	34.2600	0	27.212	0	725.691	0	11.8	4	3.7	4	-1E+10	1	-1E+10	1	-1E+10	1	-1E+10	1	-1E+10	1	-1E+10	1
4902551	64	C	05/19/2022	16:03	-131.249	49.097	0	738.00	0	3.8920	0	34.2650	0	27.218	0	730.433	0	11.7	4	3.7	4	-1E+10	1	-1E+10	1	-1E+10	1	-1E+10	1	-1E+10	1	-1E+10	1
4902551	64	C	05/19/2022	16:03	-131.249	49.097	0	742.70	0	3.8840	0	34.2660	0	27.220	0	735.077	0	11.7	4	3.7	4	-1E+10	1	-1E+10	1	-1E+10	1	-1E+10	1	-1E+10	1	-1E+10	1
4902551	64	C	05/19/2022	16:03	-131.249	49.097	0	747.80	0	3.8820	0	34.2660	0	27.220	0	740.115	0	11.6	4	3.6	4	-1E+10	1	-1E+10	1	-1E+10	1	-1E+10	1	-1E+10	1	-1E+10	1
4902551	64	C	05/19/2022	16:03	-131.249	49.097	0	753.00	0	3.8600	0	34.2730	0	27.228	0	745.252	0	11.4	4	3.6	4	-1E+10	1	-1E+10	1	-1E+10	1	-1E+10	1	-1E+10	1	-1E+10	1
4902551	64	C	05/19/2022	16:03	-131.249	49.097	0	758.10	0	3.8330	0	34.2790	0	27.235	0	750.291	0	11.3	4	3.6	4	-1E+10	1	-1E+10	1	-1E+10	1	-1E+10	1	-1E+10	1	-1E+10	1
4902551	64	C	05/19/2022	16:03	-131.249	49.097	0	762.80	0	3.8180	0	34.2810	0	27.238	0	754.934	0	11.3	4	3.5	4	-1E+10	1	-1E+10	1	-1E+10	1	-1E+10	1	-1E+10	1	-1E+10	1
4902551	64	C	05/19/2022	16:03	-131.249	49.097	0	767.60	0	3.8110	0	34.2840	0	27.241	0	759.676	0	11.2	4	3.5	4	-1E+10	1	-1E+10	1	-1E+10	1	-1E+10	1	-1E+10	1	-1E+10	1
4902551	64	C	05/19/2022	16:03	-131.249	49.097	0	773.00	0	3.7990	0	34.2880	0	27.246	0	765.010	0	11.3	4	3.5	4	-1E+10	1	-1E+10	1	-1E+10	1	-1E+10	1	-1E+10	1	-1E+10	1
4902551	64	C	05/19/2022	16:03	-131.249	49.097	0	777.90	0	3.7860	0	34.2890	0	27.248	0	769.850	0	11.4	4	3.6	4	-1E+10	1	-1E+10	1	-1E+10	1	-1E+10	1	-1E+10	1	-1E+10	1
4902551	64	C	05/19/2022	16:03	-131.249	49.097	0	782.80	0	3.7440	0	34.2880	0	27.251	0	774.690	0	11.4	4	3.6	4	-1E+10	1	-1E+10	1	-1E+10	1	-1E+10	1	-1E+10	1	-1E+10	1
4902551	64	C	05/19/2022	16:03	-131.249	49.097	0	787.80	0	3.7260	0	34.2900	0	27.255	0	779.629	0	11.4	4	3.6	4	-1E+10	1	-1E+10	1	-1E+10	1	-1E+10	1	-1E+10	1	-1E+10	1
4902551	64	C	05/19/2022	16:03	-131.249	49.097	0	792.90	0	3.7210	0	34.2930	0	27.258	0	784.667	0	11.3	4	3.5	4	-1E+10	1	-1E+10	1	-1E+10	1	-1E+10	1	-1E+10	1	-1E+10	1
4902551	64	C	05/19/2022	16:03	-131.249	49.097	0	798.00	0	3.7160	0	34.2950	0	27.260	0	789.704	0	11.2	4	3.5	4	-1E+10	1	-1E+10	1	-1E+10	1	-1E+10	1	-1E+10	1	-1E+10	1
4902551	64	C	05/19/2022	16:03	-131.249	49.097	0	803.00	0	3.6890	0	34.2960	0	27.263	0	794.643	0	11.2	4	3.5	4	-1E+10	1	-1E+10	1	-1E+10	1	-1E+10	1	-1E+10	1	-1E+10	1
4902551	64	C	05/19/2022	16:03	-131.249	49.097	0	808.00	0	3.6740	0	34.2990	0	27.267	0	799.581	0	11.0	4	3.4	4	-1E+10	1	-1E+10	1	-1E+10	1	-1E+10	1	-1E+10	1	-1E+10	1
4902551	64	C	05/19/2022	16:03	-131.249	49.097	0	812.90	0	3.6910	0	34.3080	0	27.273	0	804.421	0	10.9	4	3.4	4	-1E+10	1	-1E+10	1	-1E+10	1	-1E+10	1	-1E+10	1	-1E+10	1
4902551	64	C	05/19/2022	16:03	-131.249	49.097	0	818.10	0	3.6880	0	34.3100	0	27.275	0	809.556	0	10.9	4	3.4	4	-1E+10	1	-1E+10	1	-1E+10	1	-1E+10	1	-1E+10	1	-1E+10	1
4902551	64	C	05/19/2022	16:03	-131.249	49.097	0	822.90	0	3.6720	0	34.3120	0	27.278	0	814.297	0	11.0	4	3.4	4	-1E+10	1	-1E+10	1	-1E+10	1	-1E+10	1	-1E+10	1	-1E+10	1
4902551	64	C	05/19/2022	16:03	-131.249	49.097	0	827.90	0	3.6530	0	34.3140	0	27.281	0	819.235	0	11.1	4	3.5	4	-1E+10	1	-1E+10	1	-1E+10	1	-1E+10	1	-1E+10	1	-1E+10	1
4902551	64	C	05/19/2022	16:03	-131.249	49.097	0	832.80	0	3.6300	0	34.3160	0	27.285	0	824.074	0	11.3	4	3.5	4	-1E+10	1	-1E+10	1	-1E+10	1	-1E+10	1	-1E+10	1	-1E+10	1
4902551	64	C	05/19/2022	16:03	-131.249	49.097	0	837.80	0	3.5830	0	34.3130	0	27.287	0	829.012	0	11.6	4	3.6	4	-1E+10	1	-1E+10	1	-1E+10	1	-1E+10	1	-1E+10	1	-1E+10	1
4902551	64	C	05/19/2022	16:03	-131.249	49.097	0	842.90	0	3.5260	0	34.3060	0	27.287	0	834.048	0	11.8	4	3.7	4	-1E+10	1	-1E+10	1	-1E+10	1	-1E+10	1	-1E+10	1	-1E+10	1
4902551	64	C	05/19/2022	16:03	-131.249	49.097	0	848.10	0	3.5050	0	34.3070	0	27.290	0	839.183	0	11.9	4	3.7	4	-1E+10	1	-1E+10	1	-1E+10	1	-1E+10	1	-1E+10	1	-1E+10	1
4902551	64	C	05/19/2022	16:03	-131.249	49.097	0	853.00	0	3.4580	0	34.3100	0	27.297	0	844.022	0	11.9	4	3.7	4	-1E+10	1	-1E+10	1	-1E+10	1	-1E+10	1	-1E+10	1	-1E+10	1
4902551	64	C	05/19/2022	16:03	-131.249	49.097	0	857.80	0	3.4560	0	34.3090	0	27.297	0	848.761	0	12.0	4	3.7	4	-1E+10	1	-1E+10	1	-1E+10	1	-1E+10	1	-1E+10	1	-1E+10	1
4902551	64	C	05/19/2022	16:03	-131.249	49.097	0	862.80	0	3.4270	0	34.3120	0	27.302	0	853.698	0	12.0	4	3.7	4	-1E+10	1	-1E+10	1	-1E+10	1	-1E+10	1	-1E+10	1	-1E+10	1
4902551	64	C	05/19/2022	16:03	-131.249	49.097	0	868.00	0	3.4100	0	34.3120	0	27.303	0	858.833	0	12.0	4	3.7	4	-1E+10	1	-1E+10	1	-1E+10	1	-1E+10	1	-1E+10	1	-1E+10	1
4902551	64	C	05/19/2022	16:03	-131.249	49.097	0	873.20	0	3.4020	0	34.3130	0	27.305	0	863.967	0	11.9	4	3.7	4	-1E+10	1	-1E+10	1	-1E+10	1	-1E+10	1	-1E+10	1	-1E+10	1
4902551	64	C	05/19/2022	16:03	-131.249	49.097	0	878.00	0	3.3990	0	34.3170	0	27.309	0	868.706	0	11.9	4	3.7	4	-1E+10	1	-1E+10	1	-1E+10	1	-1E+10	1	-1E+10	1	-1E+10	1
4902551	64	C	05/19/2022	16:03	-131.249	49.097	0	882.70	0	3.3920	0	34.3170	0	27.309	0	873.347	0	11.9	4	3.7	4	-1E+10	1	-1E+10	1	-1E+10	1	-1E+10	1	-1E+10	1	-1E+10	1
4902551	64	C	05/19/2022	16:03	-131.249	49.097	0	888.00	0	3.3710	0	34.3190	0	27.313	0	878.580	0	11.9	4	3.7	4	-1E+10	1	-1E+10	1	-1E+10	1	-1E+10	1	-1E+10	1	-1E+10	1
4902551	64	C	05/19/2022	16:03	-131.249	49.097	0	893.10	0	3.3580	0	34.3210	0	27.316	0	883.615	0	11.9	4	3.7	4	-1E+10	1	-1E+10	1	-1E+10	1	-1E+10	1	-1E+10	1	-1E+10	1
4902551	64	C	05/19/2022	16:03	-131.249	49.097	0	897.60	0	3.3490	0	34.3220	0	27.317	0	888.057	0	11.9	4	3.7	4	-1E+10	1	-1E+10	1	-1E+10	1	-1E+10	1	-1E+10	1	-1E+10	1
4902551	64	C	05/19/2022	16:03	-131.249	49.097	0	902.70	0	3.3480	0	34.3220	0	27.317	0	893.092	0	11.9	4	3.7	4	-1E+10	1	-1E+10	1	-1E+10	1	-1E+10	1	-1E+10	1	-1E+10	1
4902551	64	C	05/19/2022	16:03	-131.249	49.097	0	907.90	0	3.3380	0	34.3240	0	27.320	0	898.226	0	11.9	4	3.7	4	-1E+10	1	-1E+10	1	-1E+10	1	-1E+10	1	-1E+10	1	-1E+10	1
4902551	64	C	05/19/2022	16:03	-131.249	49.097	0	912.80	0	3.3280	0	34.3260	0	27.323	0	903.063	0	11.9	4	3.7	4	-1E+10	1	-1E+10	1	-1E+10	1	-1E+10	1	-1E+10	1	-1E+10	1
4902551	64	C	05/19/2022	16:03	-131.249	49.097	0	917.80	0	3.3170	0	34.3280	0	27.325	0	907.999	0	11.9	4	3.7	4	-1E+10	1	-1E+10	1	-1E+10	1	-1E+10	1	-1E+10	1	-1E+10	1
4902551	64	C	05/19/2022	16:03	-131.249	49.097	0	922.90	0	3.3020	0	34.3300	0	27.328	0	913.033	0	11.8	4	3.7	4	-1E+10	1	-1E+10	1	-1E+10	1	-1E+10	1	-1E+10	1	-1E+10	1
4902551	64	C	05/19/2022	16:03	-131.249	49.097	0	928.00	0	3.2930	0	34.3320	0	27.331	0	918.068	0	11.8	4	3.7	4	-1E+10	1	-1E+10	1	-1E+10	1	-1E+10	1	-1E+10	1	-1E+10	1
4902551	64	C	05/19/2022	16:03	-131.249	49.097	0	933.20	0	3.2760	0	34.3380	0	27.337	0	923.200	0	11.8	4	3.7	4	-1E+10	1	-1E+10	1	-1E+10	1	-1E+10	1	-1E+10	1	-1E+10	1
4902551	64	C	05/19/2022	16:03	-131.249	49.097	0	937.90	0	3.2660	0	34.3420	0	27.341	0	927.840	0	11.8	4	3.7	4	-1E+10	1	-1E+10	1	-1E+10	1	-1E+10	1	-1E+10	1	-1E+10	1
4902551	64	C	05/19/2022	16:03	-131.249	49.097	0	942.60	0	3.2690	0	34.3440	0	27.343	0	932.479	0	11.8	4	3.7	4	-1E+10	1	-1E+10	1	-1E+10	1	-1E+10	1	-1E+10	1	-1E+10	1
4902551	64	C	05/19/2022	16:03	-131.249	49.097	0	947.80	0	3.2680	0	34.3480	0	27.346	0	937.611	0	11.8	4	3.7	4	-1E+10	1	-1E+10	1	-1E+10	1	-1E+10	1	-1E+10	1	-1E+10	1
4902551	64	C	05/19/2022	16:03	-131.249	49.097	0	953.10	0	3.2440	0	34.3480	0	27.348	0	942.842	0	11.9	4	3.7	4	-1E+10	1	-1E+10	1	-1E+10	1	-1E+10	1	-1E+10	1	-1E+10	1
4902551	64	C	05/19/2022	16:03	-131.249	49.097	0	957.80	0	3.2300	0	34.3490	0	27.350	0	947.481	0	11.9	4	3.7	4	-1E+10	1	-1E+10	1	-1E+10	1	-1E+10	1	-1E+10	1	-1E+10	1
4902551	64	C	05/19/2022	16:03	-131.249	49.097	0	962.50	0	3.2220	0	34.3500	0	27.352	0	952.120	0	12.0	4	3.7	4	-1E+10	1	-1E+10	1	-1E+10	1	-1E+10	1	-1E+10	1	-1E+10	1
4902551	64	C	05/19/2022	16:03	-131.249	49.097	0	967.80	0	3.2140	0	34.3510	0	27.354	0	957.351	0	12.1	4	3.7	4	-1E+10	1	-1E+10	1	-1E+10	1	-1E+10	1	-1E+10	1	-1E+10	1
4902551	64	C	05/19/2022	16:03	-131.249	49.097	0	973.10	0	3.1800	0	34.3540	0	27.359	0	962.581	0	12.1	4	3.8	4	-1E+10	1	-1E+10	1	-1E+10	1	-1E+10	1	-1E+10	1	-1E+10	1
4902551	64	C	05/19/2022	16:03	-131.249	49.097	0	977.90	0	3.1720	0	34.3550	0	27.361	0	967.318	0	12.1	4	3.7	4	-1E+10	1	-1E+10	1	-1E+10	1	-1E+10	1	-1E+10	1	-1E+10	1
4902551	64	C	05/19/2022	16:03	-131.249	49.097	0	982.70	0	3.1590	0	34.3580	0	27.364	0	972.055	0	12.1	4	3.7	4	-1E+10	1	-1E+10	1	-1E+10	1	-1E+10	1	-1E+10	1	-1E+10	1
4902551	64	C	05/19/2022	16:03	-131.249	49.097	0	987.90	0	3.1600	0	34.3610	0	27.367	0	977.187	0	12.1	4	3.7	4	-1E+10	1	-1E+10	1	-1E+10	1	-1E+10	1	-1E+10	1	-1E+10	1
4902551	64	C	05/19/2022	16:03	-131.249	49.097	0	993.20	0	3.1430	0	34.3640	0	27.371	0	982.417	0	12.1	4	3.7	4	-1E+10	1	-1E+10	1	-1E+10	1	-1E+10	1	-1E+10	1	-1E+10	1
4902551	64	C	05/19/2022	16:03	-131.249	49.097	0	997.80	0	3.1260	0	34.3650	0	27.373	0	986.956	0	12.1	4	3.7	4	-1E+10	1	-1E+10	1	-1E+10	1	-1E+10	1	-1E+10	1	-1E+10	1
4902551	64	C	05/19/2022	16:03	-131.249	49.097	0	1005.00	0	3.1210	0	34.3680	0	27.376	0	994.061	0	12.1	4	3.7	4	-1E+10	1	-1E+10	1	-1E+10	1	-1E+10	1	-1E+10	1	-1E+10	1
4902551	64	C	05/19/2022	16:03	-131.249	49.097	0	1015.20	0	3.1330	0	34.3730	0	27.379	0	1004.125	0	12.1	4	3.7	4	-1E+10	1	-1E+10	1	-1E+10	1	-1E+10	1	-1E+10	1	-1E+10	1
4902551	64	C	05/19/2022	16:03	-131.249	49.097	0	1025.20	0	3.1290	0	34.3750	0	27.381	0	1013.992	0	12.1	4	3.8	4	-1E+10	1	-1E+10	1	-1E+10	1	-1E+10	1	-1E+10	1	-1E+10	1
4902551	64	C	05/19/2022	16:03	-131.249	49.097	0	1035.40	0	3.1060	0	34.3750	0	27.383	0	1024.056	0	12.2	4	3.8	4	-1E+10	1	-1E+10	1	-1E+10	1	-1E+10	1	-1E+10	1	-1E+10	1
4902551	64	C	05/19/2022	16:03	-131.249	49.097	0	1045.50	0	3.0690	0	34.3800	0	27.390	0	1034.020	0	12.3	4	3.8	4	-1E+10	1	-1E+10	1	-1E+10	1	-1E+10	1	-1E+10	1	-1E+10	1
4902551	64	C	05/19/2022	16:03	-131.249	49.097	0	1055.30	0	3.0420	0	34.3820	0	27.395	0	1043.688	0	12.3	4	3.8	4	-1E+10	1	-1E+10	1	-1E+10	1	-1E+10	1	-1E+10	1	-1E+10	1
4902551	64	C	05/19/2022	16:03	-131.249	49.097	0	1065.50	0	3.0080	0	34.3870	0	27.402	0	1053.750	0	12.5	4	3.9	4	-1E+10	1	-1E+10	1	-1E+10	1	-1E+10	1	-1E+10	1	-1E+10	1
4902551	64	C	05/19/2022	16:03	-131.249	49.097	0	1075.50	0	2.9830	0	34.3930	0	27.409	0	1063.615	0	12.7	4	3.9	4	-1E+10	1	-1E+10	1	-1E+10	1	-1E+10	1	-1E+10	1	-1E+10	1
4902551	64	C	05/19/2022	16:03	-131.249	49.097	0	1085.40	0	2.9600	0	34.3970	0	27.414	0	1073.380	0	12.8	4	3.9	4	-1E+10	1	-1E+10	1	-1E+10	1	-1E+10	1	-1E+10	1	-1E+10	1
4902551	64	C	05/19/2022	16:03	-131.249	49.097	0	1095.40	0	2.9320	0	34.4010	0	27.420	0	1083.243	0	12.8	4	4.0	4	-1E+10	1	-1E+10	1	-1E+10	1	-1E+10	1	-1E+10	1	-1E+10	1
4902551	64	C	05/19/2022	16:03	-131.249	49.097	0	1105.20	0	2.8950	0	34.4060	0	27.427	0	1092.909	0	12.9	4	4.0	4	-1E+10	1	-1E+10	1	-1E+10	1	-1E+10	1	-1E+10	1	-1E+10	1
4902551	64	C	05/19/2022	16:03	-131.249	49.097	0	1115.40	0	2.8780	0	34.4080	0	27.430	0	1102.969	0	13.0	4	4.0	4	-1E+10	1	-1E+10	1	-1E+10	1	-1E+10	1	-1E+10	1	-1E+10	1
4902551	64	C	05/19/2022	16:03	-131.249	49.097	0	1125.80	0	2.8710	0	34.4100	0	27.433	0	1113.226	0	13.1	4	4.0	4	-1E+10	1	-1E+10	1	-1E+10	1	-1E+10	1	-1E+10	1	-1E+10	1
4902551	64	C	05/19/2022	16:03	-131.249	49.097	0	1135.50	0	2.8540	0	34.4130	0	27.437	0	1122.791	0	13.3	4	4.1	4	-1E+10	1	-1E+10	1	-1E+10	1	-1E+10	1	-1E+10	1	-1E+10	1
4902551	64	C	05/19/2022	16:03	-131.249	49.097	0	1145.30	0	2.8280	0	34.4170	0	27.442	0	1132.455	0	13.5	4	4.2	4	-1E+10	1	-1E+10	1	-1E+10	1	-1E+10	1	-1E+10	1	-1E+10	1
4902551	64	C	05/19/2022	16:03	-131.249	49.097	0	1155.10	0	2.7950	0	34.4230	0	27.450	0	1142.119	0	13.7	4	4.2	4	-1E+10	1	-1E+10	1	-1E+10	1	-1E+10	1	-1E+10	1	-1E+10	1
4902551	64	C	05/19/2022	16:03	-131.249	49.097	0	1165.50	0	2.7800	0	34.4250	0	27.453	0	1152.373	0	13.9	4	4.3	4	-1E+10	1	-1E+10	1	-1E+10	1	-1E+10	1	-1E+10	1	-1E+10	1
4902551	64	C	05/19/2022	16:03	-131.249	49.097	0	1175.80	0	2.7630	0	34.4280	0	27.457	0	1162.529	0	14.1	4	4.3	4	-1E+10	1	-1E+10	1	-1E+10	1	-1E+10	1	-1E+10	1	-1E+10	1
4902551	64	C	05/19/2022	16:03	-131.249	49.097	0	1185.30	0	2.7460	0	34.4310	0	27.461	0	1171.895	0	14.2	4	4.4	4	-1E+10	1	-1E+10	1	-1E+10	1	-1E+10	1	-1E+10	1	-1E+10	1
4902551	64	C	05/19/2022	16:03	-131.249	49.097	0	1195.20	0	2.7350	0	34.4330	0	27.463	0	1181.655	0	14.4	4	4.4	4	-1E+10	1	-1E+10	1	-1E+10	1	-1E+10	1	-1E+10	1	-1E+10	1
4902551	64	C	05/19/2022	16:03	-131.249	49.097	0	1205.20	0	2.7210	0	34.4350	0	27.466	0	1191.514	0	14.5	4	4.5	4	-1E+10	1	-1E+10	1	-1E+10	1	-1E+10	1	-1E+10	1	-1E+10	1
4902551	64	C	05/19/2022	16:03	-131.249	49.097	0	1215.10	0	2.7140	0	34.4370	0	27.468	0	1201.273	0	14.7	4	4.5	4	-1E+10	1	-1E+10	1	-1E+10	1	-1E+10	1	-1E+10	1	-1E+10	1
4902551	64	C	05/19/2022	16:03	-131.249	49.097	0	1225.10	0	2.6990	0	34.4390	0	27.471	0	1211.130	0	14.9	4	4.6	4	-1E+10	1	-1E+10	1	-1E+10	1	-1E+10	1	-1E+10	1	-1E+10	1
4902551	64	C	05/19/2022	16:03	-131.249	49.097	0	1235.10	0	2.6830	0	34.4420	0	27.475	0	1220.987	0	15.1	4	4.6	4	-1E+10	1	-1E+10	1	-1E+10	1	-1E+10	1	-1E+10	1	-1E+10	1
4902551	64	C	05/19/2022	16:03	-131.249	49.097	0	1245.20	0	2.6710	0	34.4450	0	27.479	0	1230.942	0	15.3	4	4.7	4	-1E+10	1	-1E+10	1	-1E+10	1	-1E+10	1	-1E+10	1	-1E+10	1
4902551	64	C	05/19/2022	16:03	-131.249	49.097	0	1255.50	0	2.6610	0	34.4460	0	27.480	0	1241.094	0	15.5	4	4.7	4	-1E+10	1	-1E+10	1	-1E+10	1	-1E+10	1	-1E+10	1	-1E+10	1
4902551	64	C	05/19/2022	16:03	-131.249	49.097	0	1265.50	0	2.6480	0	34.4490	0	27.484	0	1250.950	0	15.8	4	4.8	4	-1E+10	1	-1E+10	1	-1E+10	1	-1E+10	1	-1E+10	1	-1E+10	1
4902551	64	C	05/19/2022	16:03	-131.249	49.097	0	1275.30	0	2.6300	0	34.4520	0	27.488	0	1260.608	0	16.1	4	4.9	4	-1E+10	1	-1E+10	1	-1E+10	1	-1E+10	1	-1E+10	1	-1E+10	1
4902551	64	C	05/19/2022	16:03	-131.249	49.097	0	1285.40	0	2.6200	0	34.4540	0	27.490	0	1270.561	0	16.4	4	5.0	4	-1E+10	1	-1E+10	1	-1E+10	1	-1E+10	1	-1E+10	1	-1E+10	1
4902551	64	C	05/19/2022	16:03	-131.249	49.097	0	1295.60	0	2.6030	0	34.4580	0	27.495	0	1280.612	0	16.8	4	5.1	4	-1E+10	1	-1E+10	1	-1E+10	1	-1E+10	1	-1E+10	1	-1E+10	1
4902551	64	C	05/19/2022	16:03	-131.249	49.097	0	1305.50	0	2.5950	0	34.4600	0	27.498	0	1290.367	0	17.2	4	5.2	4	-1E+10	1	-1E+10	1	-1E+10	1	-1E+10	1	-1E+10	1	-1E+10	1
4902551	64	C	05/19/2022	16:03	-131.249	49.097	0	1315.40	0	2.5890	0	34.4620	0	27.500	0	1300.122	0	17.3	4	5.3	4	-1E+10	1	-1E+10	1	-1E+10	1	-1E+10	1	-1E+10	1	-1E+10	1
4902551	64	C	05/19/2022	16:03	-131.249	49.097	0	1325.40	0	2.5770	0	34.4630	0	27.502	0	1309.975	0	17.6	4	5.4	4	-1E+10	1	-1E+10	1	-1E+10	1	-1E+10	1	-1E+10	1	-1E+10	1
4902551	64	C	05/19/2022	16:03	-131.249	49.097	0	1335.40	0	2.5670	0	34.4660	0	27.505	0	1319.827	0	18.2	4	5.6	4	-1E+10	1	-1E+10	1	-1E+10	1	-1E+10	1	-1E+10	1	-1E+10	1
4902551	64	C	05/19/2022	16:03	-131.249	49.097	0	1345.40	0	2.5520	0	34.4690	0	27.509	0	1329.679	0	18.5	4	5.7	4	-1E+10	1	-1E+10	1	-1E+10	1	-1E+10	1	-1E+10	1	-1E+10	1
4902551	64	C	05/19/2022	16:03	-131.249	49.097	0	1355.30	0	2.5410	0	34.4720	0	27.512	0	1339.432	0	18.9	4	5.8	4	-1E+10	1	-1E+10	1	-1E+10	1	-1E+10	1	-1E+10	1	-1E+10	1
4902551	64	C	05/19/2022	16:03	-131.249	49.097	0	1365.20	0	2.5320	0	34.4740	0	27.514	0	1349.184	0	19.4	4	5.9	4	-1E+10	1	-1E+10	1	-1E+10	1	-1E+10	1	-1E+10	1	-1E+10	1
4902551	64	C	05/19/2022	16:03	-131.249	49.097	0	1375.20	0	2.5110	0	34.4770	0	27.519	0	1359.035	0	19.9	4	6.1	4	-1E+10	1	-1E+10	1	-1E+10	1	-1E+10	1	-1E+10	1	-1E+10	1
4902551	64	C	05/19/2022	16:03	-131.249	49.097	0	1385.20	0	2.5000	0	34.4800	0	27.522	0	1368.885	0	20.1	4	6.1	4	-1E+10	1	-1E+10	1	-1E+10	1	-1E+10	1	-1E+10	1	-1E+10	1
4902551	64	C	05/19/2022	16:03	-131.249	49.097	0	1395.50	0	2.4930	0	34.4800	0	27.523	0	1379.030	0	20.3	4	6.2	4	-1E+10	1	-1E+10	1	-1E+10	1	-1E+10	1	-1E+10	1	-1E+10	1
4902551	64	C	05/19/2022	16:03	-131.249	49.097	0	1405.40	0	2.4830	0	34.4820	0	27.525	0	1388.780	0	20.6	4	6.3	4	-1E+10	1	-1E+10	1	-1E+10	1	-1E+10	1	-1E+10	1	-1E+10	1
4902551	64	C	05/19/2022	16:03	-131.249	49.097	0	1415.10	0	2.4730	0	34.4840	0	27.528	0	1398.334	0	21.1	4	6.4	4	-1E+10	1	-1E+10	1	-1E+10	1	-1E+10	1	-1E+10	1	-1E+10	1
4902551	64	C	05/19/2022	16:03	-131.249	49.097	0	1425.20	0	2.4640	0	34.4860	0	27.530	0	1408.280	0	21.5	4	6.6	4	-1E+10	1	-1E+10	1	-1E+10	1	-1E+10	1	-1E+10	1	-1E+10	1
4902551	64	C	05/19/2022	16:03	-131.249	49.097	0	1435.60	0	2.4540	0	34.4880	0	27.533	0	1418.522	0	21.9	4	6.7	4	-1E+10	1	-1E+10	1	-1E+10	1	-1E+10	1	-1E+10	1	-1E+10	1
4902551	64	C	05/19/2022	16:03	-131.249	49.097	0	1445.60	0	2.4450	0	34.4900	0	27.535	0	1428.369	0	22.1	4	6.7	4	-1E+10	1	-1E+10	1	-1E+10	1	-1E+10	1	-1E+10	1	-1E+10	1
4902551	64	C	05/19/2022	16:03	-131.249	49.097	0	1455.60	0	2.4430	0	34.4900	0	27.535	0	1438.216	0	22.3	4	6.8	4	-1E+10	1	-1E+10	1	-1E+10	1	-1E+10	1	-1E+10	1	-1E+10	1
4902551	64	C	05/19/2022	16:03	-131.249	49.097	0	1465.30	0	2.4380	0	34.4910	0	27.536	0	1447.767	0	22.8	4	7.0	4	-1E+10	1	-1E+10	1	-1E+10	1	-1E+10	1	-1E+10	1	-1E+10	1
4902551	64	C	05/19/2022	16:03	-131.249	49.097	0	1475.40	0	2.4160	0	34.4960	0	27.542	0	1457.711	0	23.4	4	7.1	4	-1E+10	1	-1E+10	1	-1E+10	1	-1E+10	1	-1E+10	1	-1E+10	1
4902551	64	C	05/19/2022	16:03	-131.249	49.097	0	1485.40	0	2.4130	0	34.4960	0	27.543	0	1467.557	0	23.5	4	7.2	4	-1E+10	1	-1E+10	1	-1E+10	1	-1E+10	1	-1E+10	1	-1E+10	1
4902551	64	C	05/19/2022	16:03	-131.249	49.097	0	1495.20	0	2.4120	0	34.4960	0	27.543	0	1477.205	0	23.7	4	7.2	4	-1E+10	1	-1E+10	1	-1E+10	1	-1E+10	1	-1E+10	1	-1E+10	1
4902551	64	C	05/19/2022	16:03	-131.249	49.097	0	1505.40	0	2.4100	0	34.4970	0	27.544	0	1487.246	0	24.1	4	7.3	4	-1E+10	1	-1E+10	1	-1E+10	1	-1E+10	1	-1E+10	1	-1E+10	1
4902551	64	C	05/19/2022	16:03	-131.249	49.097	0	1515.20	0	2.4010	0	34.4990	0	27.546	0	1496.893	0	24.6	4	7.5	4	-1E+10	1	-1E+10	1	-1E+10	1	-1E+10	1	-1E+10	1	-1E+10	1
4902551	64	C	05/19/2022	16:03	-131.249	49.097	0	1525.20	0	2.3900	0	34.5010	0	27.549	0	1506.737	0	25.3	4	7.7	4	-1E+10	1	-1E+10	1	-1E+10	1	-1E+10	1	-1E+10	1	-1E+10	1
4902551	64	C	05/19/2022	16:03	-131.249	49.097	0	1535.20	0	2.3780	0	34.5040	0	27.552	0	1516.580	0	25.8	4	7.9	4	-1E+10	1	-1E+10	1	-1E+10	1	-1E+10	1	-1E+10	1	-1E+10	1
4902551	64	C	05/19/2022	16:03	-131.249	49.097	0	1545.40	0	2.3670	0	34.5050	0	27.554	0	1526.619	0	26.5	4	8.1	4	-1E+10	1	-1E+10	1	-1E+10	1	-1E+10	1	-1E+10	1	-1E+10	1
4902551	64	C	05/19/2022	16:03	-131.249	49.097	0	1555.40	0	2.3520	0	34.5080	0	27.558	0	1536.461	0	27.3	4	8.3	4	-1E+10	1	-1E+10	1	-1E+10	1	-1E+10	1	-1E+10	1	-1E+10	1
4902551	64	C	05/19/2022	16:03	-131.249	49.097	0	1565.20	0	2.3330	0	34.5120	0	27.562	0	1546.106	0	28.0	4	8.5	4	-1E+10	1	-1E+10	1	-1E+10	1	-1E+10	1	-1E+10	1	-1E+10	1
4902551	64	C	05/19/2022	16:03	-131.249	49.097	0	1575.50	0	2.3190	0	34.5140	0	27.565	0	1556.243	0	28.5	4	8.7	4	-1E+10	1	-1E+10	1	-1E+10	1	-1E+10	1	-1E+10	1	-1E+10	1
4902551	64	C	05/19/2022	16:03	-131.249	49.097	0	1585.40	0	2.3090	0	34.5150	0	27.567	0	1565.985	0	29.4	4	8.9	4	-1E+10	1	-1E+10	1	-1E+10	1	-1E+10	1	-1E+10	1	-1E+10	1
4902551	64	C	05/19/2022	16:03	-131.249	49.097	0	1595.50	0	2.2840	0	34.5200	0	27.573	0	1575.924	0	30.3	4	9.2	4	-1E+10	1	-1E+10	1	-1E+10	1	-1E+10	1	-1E+10	1	-1E+10	1
4902551	64	C	05/19/2022	16:03	-131.249	49.097	0	1605.60	0	2.2750	0	34.5220	0	27.575	0	1585.862	0	31.1	4	9.4	4	-1E+10	1	-1E+10	1	-1E+10	1	-1E+10	1	-1E+10	1	-1E+10	1
4902551	64	C	05/19/2022	16:03	-131.249	49.097	0	1615.20	0	2.2620	0	34.5240	0	27.578	0	1595.308	0	31.7	4	9.6	4	-1E+10	1	-1E+10	1	-1E+10	1	-1E+10	1	-1E+10	1	-1E+10	1
4902551	64	C	05/19/2022	16:03	-131.249	49.097	0	1625.30	0	2.2560	0	34.5260	0	27.580	0	1605.245	0	32.1	4	9.7	4	-1E+10	1	-1E+10	1	-1E+10	1	-1E+10	1	-1E+10	1	-1E+10	1
4902551	64	C	05/19/2022	16:03	-131.249	49.097	0	1635.60	0	2.2500	0	34.5270	0	27.582	0	1615.379	0	32.6	4	9.9	4	-1E+10	1	-1E+10	1	-1E+10	1	-1E+10	1	-1E+10	1	-1E+10	1
4902551	64	C	05/19/2022	16:03	-131.249	49.097	0	1645.30	0	2.2440	0	34.5280	0	27.583	0	1624.922	0	32.9	4	10.0	4	-1E+10	1	-1E+10	1	-1E+10	1	-1E+10	1	-1E+10	1	-1E+10	1
4902551	64	C	05/19/2022	16:03	-131.249	49.097	0	1655.20	0	2.2420	0	34.5290	0	27.584	0	1634.661	0	33.3	4	10.1	4	-1E+10	1	-1E+10	1	-1E+10	1	-1E+10	1	-1E+10	1	-1E+10	1
4902551	64	C	05/19/2022	16:03	-131.249	49.097	0	1665.50	0	2.2320	0	34.5300	0	27.586	0	1644.793	0	33.9	4	10.3	4	-1E+10	1	-1E+10	1	-1E+10	1	-1E+10	1	-1E+10	1	-1E+10	1
4902551	64	C	05/19/2022	16:03	-131.249	49.097	0	1675.00	0	2.2220	0	34.5320	0	27.588	0	1654.138	0	34.3	4	10.4	4	-1E+10	1	-1E+10	1	-1E+10	1	-1E+10	1	-1E+10	1	-1E+10	1
4902551	64	C	05/19/2022	16:03	-131.249	49.097	0	1685.10	0	2.2150	0	34.5340	0	27.590	0	1664.073	0	34.6	4	10.5	4	-1E+10	1	-1E+10	1	-1E+10	1	-1E+10	1	-1E+10	1	-1E+10	1
4902551	64	C	05/19/2022	16:03	-131.249	49.097	0	1695.30	0	2.2100	0	34.5340	0	27.591	0	1674.105	0	35.1	4	10.6	4	-1E+10	1	-1E+10	1	-1E+10	1	-1E+10	1	-1E+10	1	-1E+10	1
4902551	64	C	05/19/2022	16:03	-131.249	49.097	0	1705.60	0	2.1990	0	34.5360	0	27.593	0	1684.236	0	35.9	4	10.9	4	-1E+10	1	-1E+10	1	-1E+10	1	-1E+10	1	-1E+10	1	-1E+10	1
4902551	64	C	05/19/2022	16:03	-131.249	49.097	0	1715.70	0	2.1870	0	34.5380	0	27.596	0	1694.169	0	36.4	4	11.0	4	-1E+10	1	-1E+10	1	-1E+10	1	-1E+10	1	-1E+10	1	-1E+10	1
4902551	64	C	05/19/2022	16:03	-131.249	49.097	0	1725.60	0	2.1830	0	34.5390	0	27.597	0	1703.905	0	36.8	4	11.1	4	-1E+10	1	-1E+10	1	-1E+10	1	-1E+10	1	-1E+10	1	-1E+10	1
4902551	64	C	05/19/2022	16:03	-131.249	49.097	0	1735.60	0	2.1760	0	34.5410	0	27.599	0	1713.739	0	37.3	4	11.3	4	-1E+10	1	-1E+10	1	-1E+10	1	-1E+10	1	-1E+10	1	-1E+10	1
4902551	64	C	05/19/2022	16:03	-131.249	49.097	0	1745.30	0	2.1690	0	34.5420	0	27.601	0	1723.277	0	37.9	4	11.5	4	-1E+10	1	-1E+10	1	-1E+10	1	-1E+10	1	-1E+10	1	-1E+10	1
4902551	64	C	05/19/2022	16:03	-131.249	49.097	0	1755.20	0	2.1520	0	34.5450	0	27.604	0	1733.012	0	38.8	4	11.7	4	-1E+10	1	-1E+10	1	-1E+10	1	-1E+10	1	-1E+10	1	-1E+10	1
4902551	64	C	05/19/2022	16:03	-131.249	49.097	0	1765.20	0	2.1380	0	34.5480	0	27.608	0	1742.844	0	39.6	4	12.0	4	-1E+10	1	-1E+10	1	-1E+10	1	-1E+10	1	-1E+10	1	-1E+10	1
4902551	64	C	05/19/2022	16:03	-131.249	49.097	0	1775.10	0	2.1280	0	34.5490	0	27.610	0	1752.578	0	40.3	4	12.2	4	-1E+10	1	-1E+10	1	-1E+10	1	-1E+10	1	-1E+10	1	-1E+10	1
4902551	64	C	05/19/2022	16:03	-131.249	49.097	0	1785.50	0	2.1150	0	34.5510	0	27.612	0	1762.803	0	40.9	4	12.4	4	-1E+10	1	-1E+10	1	-1E+10	1	-1E+10	1	-1E+10	1	-1E+10	1
4902551	64	C	05/19/2022	16:03	-131.249	49.097	0	1795.30	0	2.0990	0	34.5530	0	27.615	0	1772.438	0	41.3	4	12.5	4	-1E+10	1	-1E+10	1	-1E+10	1	-1E+10	1	-1E+10	1	-1E+10	1
4902551	64	C	05/19/2022	16:03	-131.249	49.097	0	1805.10	0	2.0930	0	34.5540	0	27.617	0	1782.072	0	41.8	4	12.6	4	-1E+10	1	-1E+10	1	-1E+10	1	-1E+10	1	-1E+10	1	-1E+10	1
4902551	64	C	05/19/2022	16:03	-131.249	49.097	0	1815.50	0	2.0840	0	34.5560	0	27.619	0	1792.295	0	42.6	4	12.9	4	-1E+10	1	-1E+10	1	-1E+10	1	-1E+10	1	-1E+10	1	-1E+10	1
4902551	64	C	05/19/2022	16:03	-131.249	49.097	0	1825.50	0	2.0730	0	34.5580	0	27.622	0	1802.125	0	43.2	4	13.0	4	-1E+10	1	-1E+10	1	-1E+10	1	-1E+10	1	-1E+10	1	-1E+10	1
4902551	64	C	05/19/2022	16:03	-131.249	49.097	0	1835.10	0	2.0620	0	34.5590	0	27.623	0	1811.561	0	43.8	4	13.2	4	-1E+10	1	-1E+10	1	-1E+10	1	-1E+10	1	-1E+10	1	-1E+10	1
4902551	64	C	05/19/2022	16:03	-131.249	49.097	0	1845.30	0	2.0540	0	34.5610	0	27.626	0	1821.587	0	44.4	4	13.4	4	-1E+10	1	-1E+10	1	-1E+10	1	-1E+10	1	-1E+10	1	-1E+10	1
4902551	64	C	05/19/2022	16:03	-131.249	49.097	0	1855.60	0	2.0450	0	34.5630	0	27.628	0	1831.710	0	45.1	4	13.6	4	-1E+10	1	-1E+10	1	-1E+10	1	-1E+10	1	-1E+10	1	-1E+10	1
4902551	64	C	05/19/2022	16:03	-131.249	49.097	0	1865.50	0	2.0380	0	34.5640	0	27.629	0	1841.440	0	45.9	4	13.9	4	-1E+10	1	-1E+10	1	-1E+10	1	-1E+10	1	-1E+10	1	-1E+10	1
4902551	64	C	05/19/2022	16:03	-131.249	49.097	0	1875.50	0	2.0280	0	34.5660	0	27.632	0	1851.267	0	46.6	4	14.0	4	-1E+10	1	-1E+10	1	-1E+10	1	-1E+10	1	-1E+10	1	-1E+10	1
4902551	64	C	05/19/2022	16:03	-131.249	49.097	0	1885.30	0	2.0280	0	34.5670	0	27.633	0	1860.898	0	46.8	4	14.1	4	-1E+10	1	-1E+10	1	-1E+10	1	-1E+10	1	-1E+10	1	-1E+10	1
4902551	64	C	05/19/2022	16:03	-131.249	49.097	0	1895.10	0	2.0260	0	34.5670	0	27.633	0	1870.528	0	47.4	4	14.3	4	-1E+10	1	-1E+10	1	-1E+10	1	-1E+10	1	-1E+10	1	-1E+10	1
4902551	64	C	05/19/2022	16:03	-131.249	49.097	0	1905.50	0	2.0170	0	34.5690	0	27.635	0	1880.747	0	48.5	4	14.6	4	-1E+10	1	-1E+10	1	-1E+10	1	-1E+10	1	-1E+10	1	-1E+10	1
4902551	64	C	05/19/2022	16:03	-131.249	49.097	0	1915.80	0	2.0070	0	34.5710	0	27.638	0	1890.868	0	49.2	4	14.8	4	-1E+10	1	-1E+10	1	-1E+10	1	-1E+10	1	-1E+10	1	-1E+10	1
4902551	64	C	05/19/2022	16:03	-131.249	49.097	0	1925.10	0	1.9940	0	34.5730	0	27.640	0	1900.005	0	50.1	4	15.1	4	-1E+10	1	-1E+10	1	-1E+10	1	-1E+10	1	-1E+10	1	-1E+10	1
4902551	64	C	05/19/2022	16:03	-131.249	49.097	0	1935.30	0	1.9850	0	34.5750	0	27.643	0	1910.026	0	50.9	4	15.3	4	-1E+10	1	-1E+10	1	-1E+10	1	-1E+10	1	-1E+10	1	-1E+10	1
4902551	64	C	05/19/2022	16:03	-131.249	49.097	0	1945.40	0	1.9760	0	34.5760	0	27.644	0	1919.949	0	51.6	4	15.6	4	-1E+10	1	-1E+10	1	-1E+10	1	-1E+10	1	-1E+10	1	-1E+10	1
4902551	64	C	05/19/2022	16:03	-131.249	49.097	0	1955.30	0	1.9670	0	34.5780	0	27.646	0	1929.675	0	52.3	4	15.8	4	-1E+10	1	-1E+10	1	-1E+10	1	-1E+10	1	-1E+10	1	-1E+10	1
4902551	64	C	05/19/2022	16:03	-131.249	49.097	0	1965.20	0	1.9580	0	34.5800	0	27.649	0	1939.400	0	53.2	4	16.0	4	-1E+10	1	-1E+10	1	-1E+10	1	-1E+10	1	-1E+10	1	-1E+10	1
4902551	64	C	05/19/2022	16:03	-131.249	49.097	0	1975.20	0	1.9510	0	34.5810	0	27.650	0	1949.223	0	53.9	4	16.2	4	-1E+10	1	-1E+10	1	-1E+10	1	-1E+10	1	-1E+10	1	-1E+10	1
4902551	64	C	05/19/2022	16:03	-131.249	49.097	0	1985.50	0	1.9400	0	34.5830	0	27.653	0	1959.340	0	54.5	4	16.4	4	-1E+10	1	-1E+10	1	-1E+10	1	-1E+10	1	-1E+10	1	-1E+10	1
4902551	64	C	05/19/2022	16:03	-131.249	49.097	0	1995.80	0	1.9350	0	34.5850	0	27.655	0	1969.457	0	54.9	4	16.5	4	-1E+10	1	-1E+10	1	-1E+10	1	-1E+10	1	-1E+10	1	-1E+10	1
4902551	64	C	05/19/2022	16:03	-131.249	49.097	0	2005.70	0	1.9300	0	34.5850	0	27.655	0	1979.180	0	55.1	4	16.6	4	-1E+10	1	-1E+10	1	-1E+10	1	-1E+10	1	-1E+10	1	-1E+10	1
4902551	64	C	05/19/2022	16:03	-131.249	49.097	0	2013.70	0	1.9240	0	34.5860	0	27.657	0	1987.037	0	54.8	4	16.5	4	-1E+10	1	-1E+10	1	-1E+10	1	-1E+10	1	-1E+10	1	-1E+10	1
4902551	64	C	05/19/2022	16:03	-131.249	49.097	0																										
4902551	65	C	05/29/2022	20:59	-131.205	48.877	0	0.20	0	8.9070	0	32.2550	0	24.984	0	0.198	0	-1e10	1	-1e10	1	-1E+10	1	-1E+10	1	-1E+10	1	-1E+10	1	-1E+10	1	-1E+10	1
4902551	65	C	05/29/2022	20:59	-131.205	48.877	0	0.30	0	8.9072	0	32.2545	0	24.984	0	0.297	0	277.6	4	96.8	4	-1E+10	1	-1E+10	1	-1E+10	1	-1E+10	1	-1E+10	1	-1E+10	1
4902551	65	C	05/29/2022	20:59	-131.205	48.877	0	0.80	0	8.9080	0	32.2520	0	24.981	0	0.793	0	277.5	4	96.8	4	-1E+10	1	-1E+10	1	-1E+10	1	-1E+10	1	-1E+10	1	-1E+10	1
4902551	65	C	05/29/2022	20:59	-131.205	48.877	0	1.10	0	8.9067	0	32.2535	0	24.983	0	1.091	0	277.6	4	96.8	4	-1E+10	1	-1E+10	1	-1E+10	1	-1E+10	1	-1E+10	1	-1E+10	1
4902551	65	C	05/29/2022	20:59	-131.205	48.877	0	2.00	0	8.9030	0	32.2580	0	24.987	0	1.983	0	277.6	4	96.8	4	-1E+10	1	-1E+10	1	-1E+10	1	-1E+10	1	-1E+10	1	-1E+10	1
4902551	65	C	05/29/2022	20:59	-131.205	48.877	0	3.00	0	8.9030	0	32.2580	0	24.987	0	2.975	0	277.5	4	96.7	4	-1E+10	1	-1E+10	1	-1E+10	1	-1E+10	1	-1E+10	1	-1E+10	1
4902551	65	C	05/29/2022	20:59	-131.205	48.877	0	4.00	0	8.8990	0	32.2610	0	24.990	0	3.966	0	277.4	4	96.7	4	-1E+10	1	-1E+10	1	-1E+10	1	-1E+10	1	-1E+10	1	-1E+10	1
4902551	65	C	05/29/2022	20:59	-131.205	48.877	0	5.00	0	8.8930	0	32.2660	0	24.995	0	4.958	0	277.3	4	96.7	4	-1E+10	1	-1E+10	1	-1E+10	1	-1E+10	1	-1E+10	1	-1E+10	1
4902551	65	C	05/29/2022	20:59	-131.205	48.877	0	6.10	0	8.8950	0	32.2670	0	24.995	0	6.048	0	277.3	4	96.6	4	-1E+10	1	-1E+10	1	-1E+10	1	-1E+10	1	-1E+10	1	-1E+10	1
4902551	65	C	05/29/2022	20:59	-131.205	48.877	0	6.90	0	8.8920	0	32.2670	0	24.996	0	6.841	0	277.1	4	96.6	4	-1E+10	1	-1E+10	1	-1E+10	1	-1E+10	1	-1E+10	1	-1E+10	1
4902551	65	C	05/29/2022	20:59	-131.205	48.877	0	7.90	0	8.8930	0	32.2660	0	24.995	0	7.833	0	277.1	4	96.6	4	-1E+10	1	-1E+10	1	-1E+10	1	-1E+10	1	-1E+10	1	-1E+10	1
4902551	65	C	05/29/2022	20:59	-131.205	48.877	0	9.10	0	8.8910	0	32.2680	0	24.997	0	9.023	0	277.0	4	96.6	4	-1E+10	1	-1E+10	1	-1E+10	1	-1E+10	1	-1E+10	1	-1E+10	1
4902551	65	C	05/29/2022	20:59	-131.205	48.877	0	9.90	0	8.8880	0	32.2680	0	24.997	0	9.816	0	276.9	4	96.5	4	-1E+10	1	-1E+10	1	-1E+10	1	-1E+10	1	-1E+10	1	-1E+10	1
4902551	65	C	05/29/2022	20:59	-131.205	48.877	0	11.00	0	8.8810	0	32.2660	0	24.997	0	10.907	0	276.9	4	96.5	4	-1E+10	1	-1E+10	1	-1E+10	1	-1E+10	1	-1E+10	1	-1E+10	1
4902551	65	C	05/29/2022	20:59	-131.205	48.877	0	12.10	0	8.8790	0	32.2690	0	24.999	0	11.997	0	276.9	4	96.5	4	-1E+10	1	-1E+10	1	-1E+10	1	-1E+10	1	-1E+10	1	-1E+10	1
4902551	65	C	05/29/2022	20:59	-131.205	48.877	0	13.10	0	8.8760	0	32.2690	0	25.000	0	12.989	0	276.9	4	96.5	4	-1E+10	1	-1E+10	1	-1E+10	1	-1E+10	1	-1E+10	1	-1E+10	1
4902551	65	C	05/29/2022	20:59	-131.205	48.877	0	14.10	0	8.8770	0	32.2660	0	24.997	0	13.980	0	276.8	4	96.5	4	-1E+10	1	-1E+10	1	-1E+10	1	-1E+10	1	-1E+10	1	-1E+10	1
4902551	65	C	05/29/2022	20:59	-131.205	48.877	0	15.30	0	8.8810	0	32.2670	0	24.998	0	15.170	0	276.8	4	96.5	4	-1E+10	1	-1E+10	1	-1E+10	1	-1E+10	1	-1E+10	1	-1E+10	1
4902551	65	C	05/29/2022	20:59	-131.205	48.877	0	16.00	0	8.8820	0	32.2680	0	24.998	0	15.864	0	276.8	4	96.4	4	-1E+10	1	-1E+10	1	-1E+10	1	-1E+10	1	-1E+10	1	-1E+10	1
4902551	65	C	05/29/2022	20:59	-131.205	48.877	0	17.20	0	8.8790	0	32.2680	0	24.999	0	17.054	0	276.7	4	96.4	4	-1E+10	1	-1E+10	1	-1E+10	1	-1E+10	1	-1E+10	1	-1E+10	1
4902551	65	C	05/29/2022	20:59	-131.205	48.877	0	17.90	0	8.8700	0	32.2700	0	25.002	0	17.748	0	276.8	4	96.4	4	-1E+10	1	-1E+10	1	-1E+10	1	-1E+10	1	-1E+10	1	-1E+10	1
4902551	65	C	05/29/2022	20:59	-131.205	48.877	0	18.80	0	8.8710	0	32.2650	0	24.998	0	18.640	0	276.7	4	96.4	4	-1E+10	1	-1E+10	1	-1E+10	1	-1E+10	1	-1E+10	1	-1E+10	1
4902551	65	C	05/29/2022	20:59	-131.205	48.877	0	19.90	0	8.8660	0	32.2690	0	25.002	0	19.730	0	276.7	4	96.4	4	-1E+10	1	-1E+10	1	-1E+10	1	-1E+10	1	-1E+10	1	-1E+10	1
4902551	65	C	05/29/2022	20:59	-131.205	48.877	0	21.30	0	8.8620	0	32.2680	0	25.001	0	21.118	0	276.8	4	96.4	4	-1E+10	1	-1E+10	1	-1E+10	1	-1E+10	1	-1E+10	1	-1E+10	1
4902551	65	C	05/29/2022	20:59	-131.205	48.877	0	21.90	0	8.8640	0	32.2680	0	25.001	0	21.713	0	276.7	4	96.4	4	-1E+10	1	-1E+10	1	-1E+10	1	-1E+10	1	-1E+10	1	-1E+10	1
4902551	65	C	05/29/2022	20:59	-131.205	48.877	0	22.90	0	8.8630	0	32.2680	0	25.001	0	22.705	0	276.7	4	96.4	4	-1E+10	1	-1E+10	1	-1E+10	1	-1E+10	1	-1E+10	1	-1E+10	1
4902551	65	C	05/29/2022	20:59	-131.205	48.877	0	24.00	0	8.8540	0	32.2690	0	25.003	0	23.795	0	276.8	4	96.4	4	-1E+10	1	-1E+10	1	-1E+10	1	-1E+10	1	-1E+10	1	-1E+10	1
4902551	65	C	05/29/2022	20:59	-131.205	48.877	0	25.00	0	8.8300	0	32.2720	0	25.009	0	24.787	0	276.9	4	96.4	4	-1E+10	1	-1E+10	1	-1E+10	1	-1E+10	1	-1E+10	1	-1E+10	1
4902551	65	C	05/29/2022	20:59	-131.205	48.877	0	26.10	0	8.7840	0	32.2810	0	25.024	0	25.877	0	277.3	4	96.4	4	-1E+10	1	-1E+10	1	-1E+10	1	-1E+10	1	-1E+10	1	-1E+10	1
4902551	65	C	05/29/2022	20:59	-131.205	48.877	0	26.90	0	8.6540	0	32.2880	0	25.049	0	26.670	0	277.7	4	96.3	4	-1E+10	1	-1E+10	1	-1E+10	1	-1E+10	1	-1E+10	1	-1E+10	1
4902551	65	C	05/29/2022	20:59	-131.205	48.877	0	28.10	0	8.4170	0	32.3210	0	25.110	0	27.860	0	278.2	4	96.0	4	-1E+10	1	-1E+10	1	-1E+10	1	-1E+10	1	-1E+10	1	-1E+10	1
4902551	65	C	05/29/2022	20:59	-131.205	48.877	0	29.10	0	8.2740	0	32.2970	0	25.112	0	28.851	0	278.4	4	95.7	4	-1E+10	1	-1E+10	1	-1E+10	1	-1E+10	1	-1E+10	1	-1E+10	1
4902551	65	C	05/29/2022	20:59	-131.205	48.877	0	30.30	0	8.1900	0	32.2880	0	25.118	0	30.041	0	278.4	4	95.5	4	-1E+10	1	-1E+10	1	-1E+10	1	-1E+10	1	-1E+10	1	-1E+10	1
4902551	65	C	05/29/2022	20:59	-131.205	48.877	0	31.20	0	8.1620	0	32.2860	0	25.120	0	30.933	0	278.2	4	95.4	4	-1E+10	1	-1E+10	1	-1E+10	1	-1E+10	1	-1E+10	1	-1E+10	1
4902551	65	C	05/29/2022	20:59	-131.205	48.877	0	31.80	0	8.1400	0	32.2910	0	25.127	0	31.528	0	278.0	4	95.3	4	-1E+10	1	-1E+10	1	-1E+10	1	-1E+10	1	-1E+10	1	-1E+10	1
4902551	65	C	05/29/2022	20:59	-131.205	48.877	0	33.10	0	8.0800	0	32.2970	0	25.141	0	32.817	0	277.9	4	95.1	4	-1E+10	1	-1E+10	1	-1E+10	1	-1E+10	1	-1E+10	1	-1E+10	1
4902551	65	C	05/29/2022	20:59	-131.205	48.877	0	34.00	0	8.0380	0	32.2970	0	25.147	0	33.709	0	277.8	4	95.0	4	-1E+10	1	-1E+10	1	-1E+10	1	-1E+10	1	-1E+10	1	-1E+10	1
4902551	65	C	05/29/2022	20:59	-131.205	48.877	0	34.90	0	8.0030	0	32.2950	0	25.150	0	34.601	0	277.6	4	94.9	4	-1E+10	1	-1E+10	1	-1E+10	1	-1E+10	1	-1E+10	1	-1E+10	1
4902551	65	C	05/29/2022	20:59	-131.205	48.877	0	35.80	0	7.9930	0	32.2960	0	25.153	0	35.494	0	277.4	4	94.8	4	-1E+10	1	-1E+10	1	-1E+10	1	-1E+10	1	-1E+10	1	-1E+10	1
4902551	65	C	05/29/2022	20:59	-131.205	48.877	0	36.80	0	7.9690	0	32.2960	0	25.156	0	36.485	0	277.2	4	94.7	4	-1E+10	1	-1E+10	1	-1E+10	1	-1E+10	1	-1E+10	1	-1E+10	1
4902551	65	C	05/29/2022	20:59	-131.205	48.877	0	37.80	0	7.9660	0	32.2970	0	25.157	0	37.476	0	276.9	4	94.5	4	-1E+10	1	-1E+10	1	-1E+10	1	-1E+10	1	-1E+10	1	-1E+10	1
4902551	65	C	05/29/2022	20:59	-131.205	48.877	0	38.80	0	7.9630	0	32.2970	0	25.158	0	38.468	0	276.6	4	94.4	4	-1E+10	1	-1E+10	1	-1E+10	1	-1E+10	1	-1E+10	1	-1E+10	1
4902551	65	C	05/29/2022	20:59	-131.205	48.877	0	39.90	0	7.9520	0	32.3000	0	25.162	0	39.558	0	276.3	4	94.3	4	-1E+10	1	-1E+10	1	-1E+10	1	-1E+10	1	-1E+10	1	-1E+10	1
4902551	65	C	05/29/2022	20:59	-131.205	48.877	0	41.00	0	7.9460	0	32.2980	0	25.161	0	40.649	0	275.9	4	94.2	4	-1E+10	1	-1E+10	1	-1E+10	1	-1E+10	1	-1E+10	1	-1E+10	1
4902551	65	C	05/29/2022	20:59	-131.205	48.877	0	42.00	0	7.9340	0	32.3030	0	25.167	0	41.640	0	275.5	4	94.0	4	-1E+10	1	-1E+10	1	-1E+10	1	-1E+10	1	-1E+10	1	-1E+10	1
4902551	65	C	05/29/2022	20:59	-131.205	48.877	0	42.90	0	7.9160	0	32.3020	0	25.168	0	42.532	0	275.1	4	93.9	4	-1E+10	1	-1E+10	1	-1E+10	1	-1E+10	1	-1E+10	1	-1E+10	1
4902551	65	C	05/29/2022	20:59	-131.205	48.877	0	43.80	0	7.8980	0	32.3020	0	25.171	0	43.424	0	274.9	4	93.7	4	-1E+10	1	-1E+10	1	-1E+10	1	-1E+10	1	-1E+10	1	-1E+10	1
4902551	65	C	05/29/2022	20:59	-131.205	48.877	0	44.90	0	7.8720	0	32.3030	0	25.176	0	44.515	0	274.4	4	93.5	4	-1E+10	1	-1E+10	1	-1E+10	1	-1E+10	1	-1E+10	1	-1E+10	1
4902551	65	C	05/29/2022	20:59	-131.205	48.877	0	46.00	0	7.8390	0	32.3030	0	25.180	0	45.605	0	273.9	4	93.3	4	-1E+10	1	-1E+10	1	-1E+10	1	-1E+10	1	-1E+10	1	-1E+10	1
4902551	65	C	05/29/2022	20:59	-131.205	48.877	0	46.90	0	7.8250	0	32.3050	0	25.184	0	46.497	0	273.4	4	93.1	4	-1E+10	1	-1E+10	1	-1E+10	1	-1E+10	1	-1E+10	1	-1E+10	1
4902551	65	C	05/29/2022	20:59	-131.205	48.877	0	47.80	0	7.8080	0	32.3040	0	25.185	0	47.390	0	272.9	4	92.9	4	-1E+10	1	-1E+10	1	-1E+10	1	-1E+10	1	-1E+10	1	-1E+10	1
4902551	65	C	05/29/2022	20:59	-131.205	48.877	0	49.00	0	7.7880	0	32.3060	0	25.190	0	48.579	0	272.2	4	92.6	4	-1E+10	1	-1E+10	1	-1E+10	1	-1E+10	1	-1E+10	1	-1E+10	1
4902551	65	C	05/29/2022	20:59	-131.205	48.877	0	49.90	0	7.7650	0	32.3090	0	25.195	0	49.471	0	271.4	4	92.3	4	-1E+10	1	-1E+10	1	-1E+10	1	-1E+10	1	-1E+10	1	-1E+10	1
4902551	65	C	05/29/2022	20:59	-131.205	48.877	0	50.80	0	7.7240	0	32.3160	0	25.207	0	50.363	0	270.9	4	92.0	4	-1E+10	1	-1E+10	1	-1E+10	1	-1E+10	1	-1E+10	1	-1E+10	1
4902551	65	C	05/29/2022	20:59	-131.205	48.877	0	52.10	0	7.7020	0	32.3160	0	25.210	0	51.652	0	270.1	4	91.7	4	-1E+10	1	-1E+10	1	-1E+10	1	-1E+10	1	-1E+10	1	-1E+10	1
4902551	65	C	05/29/2022	20:59	-131.205	48.877	0	53.00	0	7.6940	0	32.3180	0	25.213	0	52.544	0	269.3	4	91.4	4	-1E+10	1	-1E+10	1	-1E+10	1	-1E+10	1	-1E+10	1	-1E+10	1
4902551	65	C	05/29/2022	20:59	-131.205	48.877	0	53.80	0	7.6690	0	32.3190	0	25.217	0	53.337	0	268.3	4	91.0	4	-1E+10	1	-1E+10	1	-1E+10	1	-1E+10	1	-1E+10	1	-1E+10	1
4902551	65	C	05/29/2022	20:59	-131.205	48.877	0	55.00	0	7.6450	0	32.3240	0	25.224	0	54.527	0	266.8	4	90.5	4	-1E+10	1	-1E+10	1	-1E+10	1	-1E+10	1	-1E+10	1	-1E+10	1
4902551	65	C	05/29/2022	20:59	-131.205	48.877	0	56.10	0	7.5880	0	32.3340	0	25.240	0	55.617	0	265.3	4	89.8	4	-1E+10	1	-1E+10	1	-1E+10	1	-1E+10	1	-1E+10	1	-1E+10	1
4902551	65	C	05/29/2022	20:59	-131.205	48.877	0	57.30	0	7.5690	0	32.3430	0	25.250	0	56.807	0	263.7	4	89.3	4	-1E+10	1	-1E+10	1	-1E+10	1	-1E+10	1	-1E+10	1	-1E+10	1
4902551	65	C	05/29/2022	20:59	-131.205	48.877	0	58.00	0	7.5590	0	32.3530	0	25.259	0	57.501	0	262.7	4	88.9	4	-1E+10	1	-1E+10	1	-1E+10	1	-1E+10	1	-1E+10	1	-1E+10	1
4902551	65	C	05/29/2022	20:59	-131.205	48.877	0	58.90	0	7.5510	0	32.3630	0	25.268	0	58.393	0	261.6	4	88.5	4	-1E+10	1	-1E+10	1	-1E+10	1	-1E+10	1	-1E+10	1	-1E+10	1
4902551	65	C	05/29/2022	20:59	-131.205	48.877	0	59.80	0	7.5480	0	32.3680	0	25.272	0	59.285	0	260.4	4	88.1	4	-1E+10	1	-1E+10	1	-1E+10	1	-1E+10	1	-1E+10	1	-1E+10	1
4902551	65	C	05/29/2022	20:59	-131.205	48.877	0	61.10	0	7.5450	0	32.3850	0	25.286	0	60.573	0	258.8	4	87.6	4	-1E+10	1	-1E+10	1	-1E+10	1	-1E+10	1	-1E+10	1	-1E+10	1
4902551	65	C	05/29/2022	20:59	-131.205	48.877	0	62.00	0	7.5470	0	32.3950	0	25.294	0	61.466	0	257.8	4	87.3	4	-1E+10	1	-1E+10	1	-1E+10	1	-1E+10	1	-1E+10	1	-1E+10	1
4902551	65	C	05/29/2022	20:59	-131.205	48.877	0	63.00	0	7.5460	0	32.4100	0	25.306	0	62.457	0	256.9	4	87.0	4	-1E+10	1	-1E+10	1	-1E+10	1	-1E+10	1	-1E+10	1	-1E+10	1
4902551	65	C	05/29/2022	20:59	-131.205	48.877	0	64.10	0	7.5370	0	32.4210	0	25.316	0	63.547	0	255.8	4	86.6	4	-1E+10	1	-1E+10	1	-1E+10	1	-1E+10	1	-1E+10	1	-1E+10	1
4902551	65	C	05/29/2022	20:59	-131.205	48.877	0	64.80	0	7.5260	0	32.4260	0	25.321	0	64.241	0	254.9	4	86.3	4	-1E+10	1	-1E+10	1	-1E+10	1	-1E+10	1	-1E+10	1	-1E+10	1
4902551	65	C	05/29/2022	20:59	-131.205	48.877	0	66.00	0	7.5100	0	32.4310	0	25.327	0	65.430	0	253.5	4	85.8	4	-1E+10	1	-1E+10	1	-1E+10	1	-1E+10	1	-1E+10	1	-1E+10	1
4902551	65	C	05/29/2022	20:59	-131.205	48.877	0	67.20	0	7.4890	0	32.4370	0	25.335	0	66.620	0	251.9	4	85.2	4	-1E+10	1	-1E+10	1	-1E+10	1	-1E+10	1	-1E+10	1	-1E+10	1
4902551	65	C	05/29/2022	20:59	-131.205	48.877	0	67.90	0	7.4780	0	32.4380	0	25.337	0	67.314	0	250.6	4	84.7	4	-1E+10	1	-1E+10	1	-1E+10	1	-1E+10	1	-1E+10	1	-1E+10	1
4902551	65	C	05/29/2022	20:59	-131.205	48.877	0	69.20	0	7.4590	0	32.4430	0	25.344	0	68.602	0	248.8	4	84.1	4	-1E+10	1	-1E+10	1	-1E+10	1	-1E+10	1	-1E+10	1	-1E+10	1
4902551	65	C	05/29/2022	20:59	-131.205	48.877	0	70.00	0	7.4510	0	32.4450	0	25.346	0	69.395	0	247.2	4	83.5	4	-1E+10	1	-1E+10	1	-1E+10	1	-1E+10	1	-1E+10	1	-1E+10	1
4902551	65	C	05/29/2022	20:59	-131.205	48.877	0	71.30	0	7.4360	0	32.4530	0	25.355	0	70.684	0	244.3	4	82.5	4	-1E+10	1	-1E+10	1	-1E+10	1	-1E+10	1	-1E+10	1	-1E+10	1
4902551	65	C	05/29/2022	20:59	-131.205	48.877	0	71.90	0	7.4140	0	32.4640	0	25.367	0	71.278	0	242.8	4	82.0	4	-1E+10	1	-1E+10	1	-1E+10	1	-1E+10	1	-1E+10	1	-1E+10	1
4902551	65	C	05/29/2022	20:59	-131.205	48.877	0	73.00	0	7.3720	0	32.4810	0	25.386	0	72.369	0	238.6	4	80.5	4	-1E+10	1	-1E+10	1	-1E+10	1	-1E+10	1	-1E+10	1	-1E+10	1
4902551	65	C	05/29/2022	20:59	-131.205	48.877	0	74.20	0	7.3290	0	32.5010	0	25.407	0	73.558	0	232.5	4	78.4	4	-1E+10	1	-1E+10	1	-1E+10	1	-1E+10	1	-1E+10	1	-1E+10	1
4902551	65	C	05/29/2022	20:59	-131.205	48.877	0	75.10	0	7.2170	0	32.5500	0	25.461	0	74.450	0	226.3	4	76.1	4	-1E+10	1	-1E+10	1	-1E+10	1	-1E+10	1	-1E+10	1	-1E+10	1
4902551	65	C	05/29/2022	20:59	-131.205	48.877	0	76.10	0	7.1470	0	32.6150	0	25.522	0	75.441	0	217.5	4	73.1	4	-1E+10	1	-1E+10	1	-1E+10	1	-1E+10	1	-1E+10	1	-1E+10	1
4902551	65	C	05/29/2022	20:59	-131.205	48.877	0	76.90	0	7.1330	0	32.6450	0	25.547	0	76.234	0	212.8	4	71.5	4	-1E+10	1	-1E+10	1	-1E+10	1	-1E+10	1	-1E+10	1	-1E+10	1
4902551	65	C	05/29/2022	20:59	-131.205	48.877	0	77.90	0	7.1070	0	32.6910	0	25.587	0	77.226	0	208.1	4	69.9	4	-1E+10	1	-1E+10	1	-1E+10	1	-1E+10	1	-1E+10	1	-1E+10	1
4902551	65	C	05/29/2022	20:59	-131.205	48.877	0	78.90	0	7.0710	0	32.7440	0	25.634	0	78.217	0	203.3	4	68.2	4	-1E+10	1	-1E+10	1	-1E+10	1	-1E+10	1	-1E+10	1	-1E+10	1
4902551	65	C	05/29/2022	20:59	-131.205	48.877	0	80.00	0	7.0580	0	32.7920	0	25.673	0	79.307	0	196.8	4	66.1	4	-1E+10	1	-1E+10	1	-1E+10	1	-1E+10	1	-1E+10	1	-1E+10	1
4902551	65	C	05/29/2022	20:59	-131.205	48.877	0	81.10	0	7.0720	0	32.8650	0	25.729	0	80.397	0	189.4	4	63.6	4	-1E+10	1	-1E+10	1	-1E+10	1	-1E+10	1	-1E+10	1	-1E+10	1
4902551	65	C	05/29/2022	20:59	-131.205	48.877	0	82.00	0	7.0790	0	32.9110	0	25.764	0	81.289	0	186.7	4	62.8	4	-1E+10	1	-1E+10	1	-1E+10	1	-1E+10	1	-1E+10	1	-1E+10	1
4902551	65	C	05/29/2022	20:59	-131.205	48.877	0	82.70	0	7.0790	0	32.9290	0	25.778	0	81.983	0	189.2	4	63.6	4	-1E+10	1	-1E+10	1	-1E+10	1	-1E+10	1	-1E+10	1	-1E+10	1
4902551	65	C	05/29/2022	20:59	-131.205	48.877	0	83.80	0	7.0820	0	32.9470	0	25.792	0	83.073	0	186.2	4	62.6	4	-1E+10	1	-1E+10	1	-1E+10	1	-1E+10	1	-1E+10	1	-1E+10	1
4902551	65	C	05/29/2022	20:59	-131.205	48.877	0	85.10	0	7.0850	0	32.9680	0	25.808	0	84.362	0	183.0	4	61.6	4	-1E+10	1	-1E+10	1	-1E+10	1	-1E+10	1	-1E+10	1	-1E+10	1
4902551	65	C	05/29/2022	20:59	-131.205	48.877	0	86.00	0	7.0850	0	32.9960	0	25.830	0	85.254	0	180.7	4	60.8	4	-1E+10	1	-1E+10	1	-1E+10	1	-1E+10	1	-1E+10	1	-1E+10	1
4902551	65	C	05/29/2022	20:59	-131.205	48.877	0	87.10	0	7.0850	0	33.0080	0	25.840	0	86.344	0	177.5	4	59.7	4	-1E+10	1	-1E+10	1	-1E+10	1	-1E+10	1	-1E+10	1	-1E+10	1
4902551	65	C	05/29/2022	20:59	-131.205	48.877	0	87.90	0	7.0900	0	33.0180	0	25.847	0	87.137	0	174.5	4	58.7	4	-1E+10	1	-1E+10	1	-1E+10	1	-1E+10	1	-1E+10	1	-1E+10	1
4902551	65	C	05/29/2022	20:59	-131.205	48.877	0	89.10	0	7.0950	0	33.0340	0	25.859	0	88.326	0	169.7	4	57.1	4	-1E+10	1	-1E+10	1	-1E+10	1	-1E+10	1	-1E+10	1	-1E+10	1
4902551	65	C	05/29/2022	20:59	-131.205	48.877	0	90.00	0	7.0900	0	33.0430	0	25.867	0	89.218	0	164.8	4	55.5	4	-1E+10	1	-1E+10	1	-1E+10	1	-1E+10	1	-1E+10	1	-1E+10	1
4902551	65	C	05/29/2022	20:59	-131.205	48.877	0	91.10	0	7.0820	0	33.0530	0	25.875	0	90.308	0	158.2	4	53.3	4	-1E+10	1	-1E+10	1	-1E+10	1	-1E+10	1	-1E+10	1	-1E+10	1
4902551	65	C	05/29/2022	20:59	-131.205	48.877	0	92.00	0	7.1380	0	33.1300	0	25.929	0	91.200	0	155.1	4	52.3	4	-1E+10	1	-1E+10	1	-1E+10	1	-1E+10	1	-1E+10	1	-1E+10	1
4902551	65	C	05/29/2022	20:59	-131.205	48.877	0	93.30	0	7.1610	0	33.1780	0	25.963	0	92.489	0	150.6	4	50.8	4	-1E+10	1	-1E+10	1	-1E+10	1	-1E+10	1	-1E+10	1	-1E+10	1
4902551	65	C	05/29/2022	20:59	-131.205	48.877	0	93.90	0	7.1760	0	33.1790	0	25.962	0	93.083	0	148.2	4	50.0	4	-1E+10	1	-1E+10	1	-1E+10	1	-1E+10	1	-1E+10	1	-1E+10	1
4902551	65	C	05/29/2022	20:59	-131.205	48.877	0	94.80	0	7.1970	0	33.1970	0	25.973	0	93.975	0	144.6	4	48.8	4	-1E+10	1	-1E+10	1	-1E+10	1	-1E+10	1	-1E+10	1	-1E+10	1
4902551	65	C	05/29/2022	20:59	-131.205	48.877	0	95.80	0	7.2650	0	33.2330	0	25.992	0	94.966	0	141.6	4	47.9	4	-1E+10	1	-1E+10	1	-1E+10	1	-1E+10	1	-1E+10	1	-1E+10	1
4902551	65	C	05/29/2022	20:59	-131.205	48.877	0	96.80	0	7.2730	0	33.2940	0	26.039	0	95.957	0	139.3	4	47.2	4	-1E+10	1	-1E+10	1	-1E+10	1	-1E+10	1	-1E+10	1	-1E+10	1
4902551	65	C	05/29/2022	20:59	-131.205	48.877	0	97.80	0	7.2590	0	33.3050	0	26.050	0	96.949	0	136.7	4	46.3	4	-1E+10	1	-1E+10	1	-1E+10	1	-1E+10	1	-1E+10	1	-1E+10	1
4902551	65	C	05/29/2022	20:59	-131.205	48.877	0	98.80	0	7.2460	0	33.3090	0	26.055	0	97.940	0	133.5	4	45.2	4	-1E+10	1	-1E+10	1	-1E+10	1	-1E+10	1	-1E+10	1	-1E+10	1
4902551	65	C	05/29/2022	20:59	-131.205	48.877	0	99.80	0	7.2430	0	33.3240	0	26.067	0	98.931	0	129.9	4	44.0	4	-1E+10	1	-1E+10	1	-1E+10	1	-1E+10	1	-1E+10	1	-1E+10	1
4902551	65	C	05/29/2022	20:59	-131.205	48.877	0	100.90	0	7.2540	0	33.3430	0	26.080	0	100.021	0	125.8	4	42.6	4	-1E+10	1	-1E+10	1	-1E+10	1	-1E+10	1	-1E+10	1	-1E+10	1
4902551	65	C	05/29/2022	20:59	-131.205	48.877	0	102.00	0	7.2890	0	33.3640	0	26.092	0	101.111	0	121.4	4	41.1	4	-1E+10	1	-1E+10	1	-1E+10	1	-1E+10	1	-1E+10	1	-1E+10	1
4902551	65	C	05/29/2022	20:59	-131.205	48.877	0	102.90	0	7.3270	0	33.4020	0	26.117	0	102.003	0	118.4	4	40.2	4	-1E+10	1	-1E+10	1	-1E+10	1	-1E+10	1	-1E+10	1	-1E+10	1
4902551	65	C	05/29/2022	20:59	-131.205	48.877	0	103.80	0	7.3660	0	33.4550	0	26.153	0	102.895	0	115.4	4	39.2	4	-1E+10	1	-1E+10	1	-1E+10	1	-1E+10	1	-1E+10	1	-1E+10	1
4902551	65	C	05/29/2022	20:59	-131.205	48.877	0	105.00	0	7.3690	0	33.4800	0	26.172	0	104.084	0	111.3	4	37.8	4	-1E+10	1	-1E+10	1	-1E+10	1	-1E+10	1	-1E+10	1	-1E+10	1
4902551	65	C	05/29/2022	20:59	-131.205	48.877	0	106.00	0	7.3580	0	33.4940	0	26.185	0	105.075	0	107.6	4	36.6	4	-1E+10	1	-1E+10	1	-1E+10	1	-1E+10	1	-1E+10	1	-1E+10	1
4902551	65	C	05/29/2022	20:59	-131.205	48.877	0	107.00	0	7.4020	0	33.5170	0	26.197	0	106.066	0	104.5	4	35.6	4	-1E+10	1	-1E+10	1	-1E+10	1	-1E+10	1	-1E+10	1	-1E+10	1
4902551	65	C	05/29/2022	20:59	-131.205	48.877	0	108.10	0	7.4350	0	33.5690	0	26.233	0	107.156	0	101.6	4	34.6	4	-1E+10	1	-1E+10	1	-1E+10	1	-1E+10	1	-1E+10	1	-1E+10	1
4902551	65	C	05/29/2022	20:59	-131.205	48.877	0	108.80	0	7.4400	0	33.5800	0	26.241	0	107.850	0	99.6	4	33.9	4	-1E+10	1	-1E+10	1	-1E+10	1	-1E+10	1	-1E+10	1	-1E+10	1
4902551	65	C	05/29/2022	20:59	-131.205	48.877	0	109.80	0	7.4430	0	33.5860	0	26.245	0	108.841	0	96.3	4	32.8	4	-1E+10	1	-1E+10	1	-1E+10	1	-1E+10	1	-1E+10	1	-1E+10	1
4902551	65	C	05/29/2022	20:59	-131.205	48.877	0	110.90	0	7.4470	0	33.5870	0	26.246	0	109.931	0	92.6	4	31.6	4	-1E+10	1	-1E+10	1	-1E+10	1	-1E+10	1	-1E+10	1	-1E+10	1
4902551	65	C	05/29/2022	20:59	-131.205	48.877	0	112.00	0	7.4610	0	33.6020	0	26.255	0	111.021	0	88.4	4	30.1	4	-1E+10	1	-1E+10	1	-1E+10	1	-1E+10	1	-1E+10	1	-1E+10	1
4902551	65	C	05/29/2022	20:59	-131.205	48.877	0	113.10	0	7.5210	0	33.6150	0	26.257	0	112.111	0	84.7	4	28.9	4	-1E+10	1	-1E+10	1	-1E+10	1	-1E+10	1	-1E+10	1	-1E+10	1
4902551	65	C	05/29/2022	20:59	-131.205	48.877	0	113.80	0	7.5590	0	33.6650	0	26.291	0	112.805	0	83.2	4	28.4	4	-1E+10	1	-1E+10	1	-1E+10	1	-1E+10	1	-1E+10	1	-1E+10	1
4902551	65	C	05/29/2022	20:59	-131.205	48.877	0	115.00	0	7.5580	0	33.6910	0	26.312	0	113.994	0	81.4	4	27.8	4	-1E+10	1	-1E+10	1	-1E+10	1	-1E+10	1	-1E+10	1	-1E+10	1
4902551	65	C	05/29/2022	20:59	-131.205	48.877	0	116.20	0	7.5570	0	33.7000	0	26.319	0	115.183	0	79.4	4	27.1	4	-1E+10	1	-1E+10	1	-1E+10	1	-1E+10	1	-1E+10	1	-1E+10	1
4902551	65	C	05/29/2022	20:59	-131.205	48.877	0	117.00	0	7.5650	0	33.7040	0	26.321	0	115.976	0	78.0	4	26.7	4	-1E+10	1	-1E+10	1	-1E+10	1	-1E+10	1	-1E+10	1	-1E+10	1
4902551	65	C	05/29/2022	20:59	-131.205	48.877	0	117.80	0	7.5780	0	33.7320	0	26.341	0	116.769	0	77.0	4	26.3	4	-1E+10	1	-1E+10	1	-1E+10	1	-1E+10	1	-1E+10	1	-1E+10	1
4902551	65	C	05/29/2022	20:59	-131.205	48.877	0	118.60	0	7.5810	0	33.7460	0	26.352	0	117.562	0	76.1	4	26.1	4	-1E+10	1	-1E+10	1	-1E+10	1	-1E+10	1	-1E+10	1	-1E+10	1
4902551	65	C	05/29/2022	20:59	-131.205	48.877	0	119.90	0	7.5920	0	33.7540	0	26.356	0	118.850	0	75.5	4	25.8	4	-1E+10	1	-1E+10	1	-1E+10	1	-1E+10	1	-1E+10	1	-1E+10	1
4902551	65	C	05/29/2022	20:59	-131.205	48.877	0	121.20	0	7.5960	0	33.7710	0	26.369	0	120.138	0	75.4	4	25.8	4	-1E+10	1	-1E+10	1	-1E+10	1	-1E+10	1	-1E+10	1	-1E+10	1
4902551	65	C	05/29/2022	20:59	-131.205	48.877	0	122.00	0	7.5900	0	33.7730	0	26.372	0	120.931	0	75.4	4	25.8	4	-1E+10	1	-1E+10	1	-1E+10	1	-1E+10	1	-1E+10	1	-1E+10	1
4902551	65	C	05/29/2022	20:59	-131.205	48.877	0	122.90	0	7.5870	0	33.7730	0	26.372	0	121.823	0	75.3	4	25.8	4	-1E+10	1	-1E+10	1	-1E+10	1	-1E+10	1	-1E+10	1	-1E+10	1
4902551	65	C	05/29/2022	20:59	-131.205	48.877	0	123.80	0	7.5870	0	33.7750	0	26.374	0	122.714	0	75.3	4	25.8	4	-1E+10	1	-1E+10	1	-1E+10	1	-1E+10	1	-1E+10	1	-1E+10	1
4902551	65	C	05/29/2022	20:59	-131.205	48.877	0	124.70	0	7.5850	0	33.7770	0	26.376	0	123.606	0	75.2	4	25.7	4	-1E+10	1	-1E+10	1	-1E+10	1	-1E+10	1	-1E+10	1	-1E+10	1
4902551	65	C	05/29/2022	20:59	-131.205	48.877	0	125.90	0	7.5830	0	33.7780	0	26.377	0	124.795	0	75.1	4	25.7	4	-1E+10	1	-1E+10	1	-1E+10	1	-1E+10	1	-1E+10	1	-1E+10	1
4902551	65	C	05/29/2022	20:59	-131.205	48.877	0	127.20	0	7.5890	0	33.7850	0	26.381	0	126.084	0	75.3	4	25.8	4	-1E+10	1	-1E+10	1	-1E+10	1	-1E+10	1	-1E+10	1	-1E+10	1
4902551	65	C	05/29/2022	20:59	-131.205	48.877	0	128.10	0	7.5760	0	33.7940	0	26.390	0	126.975	0	75.5	4	25.8	4	-1E+10	1	-1E+10	1	-1E+10	1	-1E+10	1	-1E+10	1	-1E+10	1
4902551	65	C	05/29/2022	20:59	-131.205	48.877	0	129.00	0	7.5620	0	33.7930	0	26.392	0	127.867	0	75.5	4	25.8	4	-1E+10	1	-1E+10	1	-1E+10	1	-1E+10	1	-1E+10	1	-1E+10	1
4902551	65	C	05/29/2022	20:59	-131.205	48.877	0	129.90	0	7.5530	0	33.7970	0	26.396	0	128.759	0	75.5	4	25.8	4	-1E+10	1	-1E+10	1	-1E+10	1	-1E+10	1	-1E+10	1	-1E+10	1
4902551	65	C	05/29/2022	20:59	-131.205	48.877	0	130.80	0	7.5480	0	33.8000	0	26.399	0	129.651	0	75.4	4	25.8	4	-1E+10	1	-1E+10	1	-1E+10	1	-1E+10	1	-1E+10	1	-1E+10	1
4902551	65	C	05/29/2022	20:59	-131.205	48.877	0	131.70	0	7.5470	0	33.8020	0	26.401	0	130.543	0	75.3	4	25.8	4	-1E+10	1	-1E+10	1	-1E+10	1	-1E+10	1	-1E+10	1	-1E+10	1
4902551	65	C	05/29/2022	20:59	-131.205	48.877	0	132.60	0	7.5420	0	33.8050	0	26.404	0	131.434	0	75.3	4	25.8	4	-1E+10	1	-1E+10	1	-1E+10	1	-1E+10	1	-1E+10	1	-1E+10	1
4902551	65	C	05/29/2022	20:59	-131.205	48.877	0	133.90	0	7.5330	0	33.8080	0	26.408	0	132.723	0	75.2	4	25.7	4	-1E+10	1	-1E+10	1	-1E+10	1	-1E+10	1	-1E+10	1	-1E+10	1
4902551	65	C	05/29/2022	20:59	-131.205	48.877	0	135.30	0	7.5330	0	33.8150	0	26.413	0	134.110	0	75.1	4	25.7	4	-1E+10	1	-1E+10	1	-1E+10	1	-1E+10	1	-1E+10	1	-1E+10	1
4902551	65	C	05/29/2022	20:59	-131.205	48.877	0	136.20	0	7.5290	0	33.8240	0	26.421	0	135.002	0	75.4	4	25.8	4	-1E+10	1	-1E+10	1	-1E+10	1	-1E+10	1	-1E+10	1	-1E+10	1
4902551	65	C	05/29/2022	20:59	-131.205	48.877	0	137.10	0	7.5280	0	33.8220	0	26.419	0	135.893	0	75.7	4	25.9	4	-1E+10	1	-1E+10	1	-1E+10	1	-1E+10	1	-1E+10	1	-1E+10	1
4902551	65	C	05/29/2022	20:59	-131.205	48.877	0	138.00	0	7.5270	0	33.8220	0	26.419	0	136.785	0	76.1	4	26.0	4	-1E+10	1	-1E+10	1	-1E+10	1	-1E+10	1	-1E+10	1	-1E+10	1
4902551	65	C	05/29/2022	20:59	-131.205	48.877	0	138.90	0	7.5260	0	33.8220	0	26.420	0	137.677	0	76.6	4	26.2	4	-1E+10	1	-1E+10	1	-1E+10	1	-1E+10	1	-1E+10	1	-1E+10	1
4902551	65	C	05/29/2022	20:59	-131.205	48.877	0	139.80	0	7.5230	0	33.8250	0	26.422	0	138.569	0	77.0	4	26.3	4	-1E+10	1	-1E+10	1	-1E+10	1	-1E+10	1	-1E+10	1	-1E+10	1
4902551	65	C	05/29/2022	20:59	-131.205	48.877	0	140.70	0	7.5140	0	33.8270	0	26.425	0	139.461	0	77.5	4	26.5	4	-1E+10	1	-1E+10	1	-1E+10	1	-1E+10	1	-1E+10	1	-1E+10	1
4902551	65	C	05/29/2022	20:59	-131.205	48.877	0	141.90	0	7.4950	0	33.8310	0	26.431	0	140.650	0	78.0	4	26.6	4	-1E+10	1	-1E+10	1	-1E+10	1	-1E+10	1	-1E+10	1	-1E+10	1
4902551	65	C	05/29/2022	20:59	-131.205	48.877	0	143.30	0	7.4790	0	33.8310	0	26.433	0	142.037	0	78.3	4	26.7	4	-1E+10	1	-1E+10	1	-1E+10	1	-1E+10	1	-1E+10	1	-1E+10	1
4902551	65	C	05/29/2022	20:59	-131.205	48.877	0	144.20	0	7.4760	0	33.8320	0	26.435	0	142.929	0	78.5	4	26.8	4	-1E+10	1	-1E+10	1	-1E+10	1	-1E+10	1	-1E+10	1	-1E+10	1
4902551	65	C	05/29/2022	20:59	-131.205	48.877	0	145.10	0	7.4730	0	33.8320	0	26.435	0	143.820	0	78.6	4	26.8	4	-1E+10	1	-1E+10	1	-1E+10	1	-1E+10	1	-1E+10	1	-1E+10	1
4902551	65	C	05/29/2022	20:59	-131.205	48.877	0	146.00	0	7.4720	0	33.8320	0	26.435	0	144.712	0	78.8	4	26.9	4	-1E+10	1	-1E+10	1	-1E+10	1	-1E+10	1	-1E+10	1	-1E+10	1
4902551	65	C	05/29/2022	20:59	-131.205	48.877	0	146.90	0	7.4700	0	33.8340	0	26.437	0	145.604	0	79.0	4	27.0	4	-1E+10	1	-1E+10	1	-1E+10	1	-1E+10	1	-1E+10	1	-1E+10	1
4902551	65	C	05/29/2022	20:59	-131.205	48.877	0	147.80	0	7.4680	0	33.8340	0	26.437	0	146.495	0	79.2	4	27.1	4	-1E+10	1	-1E+10	1	-1E+10	1	-1E+10	1	-1E+10	1	-1E+10	1
4902551	65	C	05/29/2022	20:59	-131.205	48.877	0	148.70	0	7.4640	0	33.8360	0	26.440	0	147.387	0	79.5	4	27.2	4	-1E+10	1	-1E+10	1	-1E+10	1	-1E+10	1	-1E+10	1	-1E+10	1
4902551	65	C	05/29/2022	20:59	-131.205	48.877	0	149.60	0	7.4590	0	33.8370	0	26.441	0	148.279	0	79.7	4	27.2	4	-1E+10	1	-1E+10	1	-1E+10	1	-1E+10	1	-1E+10	1	-1E+10	1
4902551	65	C	05/29/2022	20:59	-131.205	48.877	0	150.90	0	7.4490	0	33.8400	0	26.445	0	149.567	0	80.1	4	27.3	4	-1E+10	1	-1E+10	1	-1E+10	1	-1E+10	1	-1E+10	1	-1E+10	1
4902551	65	C	05/29/2022	20:59	-131.205	48.877	0	152.20	0	7.4460	0	33.8390	0	26.444	0	150.855	0	80.5	4	27.5	4	-1E+10	1	-1E+10	1	-1E+10	1	-1E+10	1	-1E+10	1	-1E+10	1
4902551	65	C	05/29/2022	20:59	-131.205	48.877	0	153.00	0	7.4430	0	33.8410	0	26.446	0	151.648	0	80.8	4	27.6	4	-1E+10	1	-1E+10	1	-1E+10	1	-1E+10	1	-1E+10	1	-1E+10	1
4902551	65	C	05/29/2022	20:59	-131.205	48.877	0	153.90	0	7.4250	0	33.8530	0	26.458	0	152.539	0	81.3	4	27.7	4	-1E+10	1	-1E+10	1	-1E+10	1	-1E+10	1	-1E+10	1	-1E+10	1
4902551	65	C	05/29/2022	20:59	-131.205	48.877	0	154.80	0	7.4020	0	33.8550	0	26.463	0	153.431	0	81.7	4	27.9	4	-1E+10	1	-1E+10	1	-1E+10	1	-1E+10	1	-1E+10	1	-1E+10	1
4902551	65	C	05/29/2022	20:59	-131.205	48.877	0	155.70	0	7.3900	0	33.8540	0	26.464	0	154.323	0	82.0	4	28.0	4	-1E+10	1	-1E+10	1	-1E+10	1	-1E+10	1	-1E+10	1	-1E+10	1
4902551	65	C	05/29/2022	20:59	-131.205	48.877	0	156.60	0	7.3750	0	33.8590	0	26.470	0	155.215	0	82.2	4	28.0	4	-1E+10	1	-1E+10	1	-1E+10	1	-1E+10	1	-1E+10	1	-1E+10	1
4902551	65	C	05/29/2022	20:59	-131.205	48.877	0	157.90	0	7.3600	0	33.8590	0	26.472	0	156.503	0	82.6	4	28.1	4	-1E+10	1	-1E+10	1	-1E+10	1	-1E+10	1	-1E+10	1	-1E+10	1
4902551	65	C	05/29/2022	20:59	-131.205	48.877	0	159.20	0	7.3470	0	33.8620	0	26.477	0	157.791	0	82.9	4	28.2	4	-1E+10	1	-1E+10	1	-1E+10	1	-1E+10	1	-1E+10	1	-1E+10	1
4902551	65	C	05/29/2022	20:59	-131.205	48.877	0	160.10	0	7.3390	0	33.8650	0	26.480	0	158.682	0	83.3	4	28.4	4	-1E+10	1	-1E+10	1	-1E+10	1	-1E+10	1	-1E+10	1	-1E+10	1
4902551	65	C	05/29/2022	20:59	-131.205	48.877	0	161.00	0	7.3360	0	33.8640	0	26.480	0	159.574	0	83.6	4	28.5	4	-1E+10	1	-1E+10	1	-1E+10	1	-1E+10	1	-1E+10	1	-1E+10	1
4902551	65	C	05/29/2022	20:59	-131.205	48.877	0	161.90	0	7.3310	0	33.8650	0	26.481	0	160.466	0	84.0	4	28.6	4	-1E+10	1	-1E+10	1	-1E+10	1	-1E+10	1	-1E+10	1	-1E+10	1
4902551	65	C	05/29/2022	20:59	-131.205	48.877	0	162.90	0	7.3110	0	33.8760	0	26.493	0	161.456	0	84.3	4	28.7	4	-1E+10	1	-1E+10	1	-1E+10	1	-1E+10	1	-1E+10	1	-1E+10	1
4902551	65	C	05/29/2022	20:59	-131.205	48.877	0	163.80	0	7.2940	0	33.8720	0	26.492	0	162.348	0	84.5	4	28.8	4	-1E+10	1	-1E+10	1	-1E+10	1	-1E+10	1	-1E+10	1	-1E+10	1
4902551	65	C	05/29/2022	20:59	-131.205	48.877	0	164.70	0	7.2810	0	33.8720	0	26.494	0	163.240	0	84.8	4	28.8	4	-1E+10	1	-1E+10	1	-1E+10	1	-1E+10	1	-1E+10	1	-1E+10	1
4902551	65	C	05/29/2022	20:59	-131.205	48.877	0	165.60	0	7.2700	0	33.8740	0	26.497	0	164.131	0	85.0	4	28.9	4	-1E+10	1	-1E+10	1	-1E+10	1	-1E+10	1	-1E+10	1	-1E+10	1
4902551	65	C	05/29/2022	20:59	-131.205	48.877	0	166.90	0	7.2650	0	33.8720	0	26.496	0	165.419	0	85.4	4	29.0	4	-1E+10	1	-1E+10	1	-1E+10	1	-1E+10	1	-1E+10	1	-1E+10	1
4902551	65	C	05/29/2022	20:59	-131.205	48.877	0	168.30	0	7.2600	0	33.8750	0	26.499	0	166.806	0	85.8	4	29.2	4	-1E+10	1	-1E+10	1	-1E+10	1	-1E+10	1	-1E+10	1	-1E+10	1
4902551	65	C	05/29/2022	20:59	-131.205	48.877	0	169.30	0	7.2540	0	33.8760	0	26.501	0	167.797	0	86.2	4	29.3	4	-1E+10	1	-1E+10	1	-1E+10	1	-1E+10	1	-1E+10	1	-1E+10	1
4902551	65	C	05/29/2022	20:59	-131.205	48.877	0	170.20	0	7.2450	0	33.8780	0	26.504	0	168.689	0	86.6	4	29.4	4	-1E+10	1	-1E+10	1	-1E+10	1	-1E+10	1	-1E+10	1	-1E+10	1
4902551	65	C	05/29/2022	20:59	-131.205	48.877	0	171.00	0	7.2420	0	33.8760	0	26.502	0	169.481	0	87.1	4	29.6	4	-1E+10	1	-1E+10	1	-1E+10	1	-1E+10	1	-1E+10	1	-1E+10	1
4902551	65	C	05/29/2022	20:59	-131.205	48.877	0	171.90	0	7.2400	0	33.8750	0	26.502	0	170.373	0	87.6	4	29.8	4	-1E+10	1	-1E+10	1	-1E+10	1	-1E+10	1	-1E+10	1	-1E+10	1
4902551	65	C	05/29/2022	20:59	-131.205	48.877	0	172.90	0	7.2380	0	33.8760	0	26.503	0	171.364	0	88.2	4	30.0	4	-1E+10	1	-1E+10	1	-1E+10	1	-1E+10	1	-1E+10	1	-1E+10	1
4902551	65	C	05/29/2022	20:59	-131.205	48.877	0	173.70	0	7.2290	0	33.8780	0	26.506	0	172.156	0	88.7	4	30.1	4	-1E+10	1	-1E+10	1	-1E+10	1	-1E+10	1	-1E+10	1	-1E+10	1
4902551	65	C	05/29/2022	20:59	-131.205	48.877	0	174.60	0	7.2110	0	33.8810	0	26.511	0	173.048	0	89.2	4	30.3	4	-1E+10	1	-1E+10	1	-1E+10	1	-1E+10	1	-1E+10	1	-1E+10	1
4902551	65	C	05/29/2022	20:59	-131.205	48.877	0	175.90	0	7.1910	0	33.8820	0	26.514	0	174.336	0	89.9	4	30.5	4	-1E+10	1	-1E+10	1	-1E+10	1	-1E+10	1	-1E+10	1	-1E+10	1
4902551	65	C	05/29/2022	20:59	-131.205	48.877	0	177.30	0	7.1690	0	33.8790	0	26.515	0	175.723	0	90.6	4	30.7	4	-1E+10	1	-1E+10	1	-1E+10	1	-1E+10	1	-1E+10	1	-1E+10	1
4902551	65	C	05/29/2022	20:59	-131.205	48.877	0	178.10	0	7.1630	0	33.8810	0	26.517	0	176.515	0	91.1	4	30.9	4	-1E+10	1	-1E+10	1	-1E+10	1	-1E+10	1	-1E+10	1	-1E+10	1
4902551	65	C	05/29/2022	20:59	-131.205	48.877	0	179.00	0	7.1550	0	33.8820	0	26.519	0	177.407	0	91.8	4	31.2	4	-1E+10	1	-1E+10	1	-1E+10	1	-1E+10	1	-1E+10	1	-1E+10	1
4902551	65	C	05/29/2022	20:59	-131.205	48.877	0	179.90	0	7.1310	0	33.8850	0	26.525	0	178.298	0	92.6	4	31.4	4	-1E+10	1	-1E+10	1	-1E+10	1	-1E+10	1	-1E+10	1	-1E+10	1
4902551	65	C	05/29/2022	20:59	-131.205	48.877	0	180.80	0	7.1060	0	33.9050	0	26.544	0	179.190	0	93.2	4	31.6	4	-1E+10	1	-1E+10	1	-1E+10	1	-1E+10	1	-1E+10	1	-1E+10	1
4902551	65	C	05/29/2022	20:59	-131.205	48.877	0	181.70	0	7.0850	0	33.8790	0	26.527	0	180.082	0	93.5	4	31.6	4	-1E+10	1	-1E+10	1	-1E+10	1	-1E+10	1	-1E+10	1	-1E+10	1
4902551	65	C	05/29/2022	20:59	-131.205	48.877	0	182.60	0	7.0770	0	33.8820	0	26.530	0	180.973	0	93.6	4	31.7	4	-1E+10	1	-1E+10	1	-1E+10	1	-1E+10	1	-1E+10	1	-1E+10	1
4902551	65	C	05/29/2022	20:59	-131.205	48.877	0	183.90	0	7.0630	0	33.8810	0	26.531	0	182.261	0	93.7	4	31.7	4	-1E+10	1	-1E+10	1	-1E+10	1	-1E+10	1	-1E+10	1	-1E+10	1
4902551	65	C	05/29/2022	20:59	-131.205	48.877	0	185.30	0	7.0390	0	33.8870	0	26.539	0	183.648	0	93.6	4	31.7	4	-1E+10	1	-1E+10	1	-1E+10	1	-1E+10	1	-1E+10	1	-1E+10	1
4902551	65	C	05/29/2022	20:59	-131.205	48.877	0	186.20	0	7.0250	0	33.8830	0	26.538	0	184.539	0	93.7	4	31.7	4	-1E+10	1	-1E+10	1	-1E+10	1	-1E+10	1	-1E+10	1	-1E+10	1
4902551	65	C	05/29/2022	20:59	-131.205	48.877	0	187.20	0	7.0170	0	33.8810	0	26.538	0	185.530	0	93.7	4	31.7	4	-1E+10	1	-1E+10	1	-1E+10	1	-1E+10	1	-1E+10	1	-1E+10	1
4902551	65	C	05/29/2022	20:59	-131.205	48.877	0	188.10	0	7.0140	0	33.8820	0	26.539	0	186.422	0	93.7	4	31.7	4	-1E+10	1	-1E+10	1	-1E+10	1	-1E+10	1	-1E+10	1	-1E+10	1
4902551	65	C	05/29/2022	20:59	-131.205	48.877	0	189.10	0	7.0120	0	33.8830	0	26.540	0	187.412	0	93.7	4	31.7	4	-1E+10	1	-1E+10	1	-1E+10	1	-1E+10	1	-1E+10	1	-1E+10	1
4902551	65	C	05/29/2022	20:59	-131.205	48.877	0	190.00	0	7.0100	0	33.8830	0	26.540	0	188.304	0	93.7	4	31.7	4	-1E+10	1	-1E+10	1	-1E+10	1	-1E+10	1	-1E+10	1	-1E+10	1
4902551	65	C	05/29/2022	20:59	-131.205	48.877	0	190.90	0	7.0050	0	33.8820	0	26.540	0	189.195	0	93.7	4	31.7	4	-1E+10	1	-1E+10	1	-1E+10	1	-1E+10	1	-1E+10	1	-1E+10	1
4902551	65	C	05/29/2022	20:59	-131.205	48.877	0	191.80	0	7.0030	0	33.8830	0	26.541	0	190.087	0	93.7	4	31.7	4	-1E+10	1	-1E+10	1	-1E+10	1	-1E+10	1	-1E+10	1	-1E+10	1
4902551	65	C	05/29/2022	20:59	-131.205	48.877	0	192.80	0	6.9980	0	33.8830	0	26.542	0	191.078	0	93.6	4	31.6	4	-1E+10	1	-1E+10	1	-1E+10	1	-1E+10	1	-1E+10	1	-1E+10	1
4902551	65	C	05/29/2022	20:59	-131.205	48.877	0	193.70	0	6.9930	0	33.8830	0	26.542	0	191.969	0	93.5	4	31.6	4	-1E+10	1	-1E+10	1	-1E+10	1	-1E+10	1	-1E+10	1	-1E+10	1
4902551	65	C	05/29/2022	20:59	-131.205	48.877	0	194.70	0	6.9890	0	33.8840	0	26.544	0	192.960	0	93.5	4	31.6	4	-1E+10	1	-1E+10	1	-1E+10	1	-1E+10	1	-1E+10	1	-1E+10	1
4902551	65	C	05/29/2022	20:59	-131.205	48.877	0	195.60	0	6.9860	0	33.8830	0	26.543	0	193.851	0	93.4	4	31.6	4	-1E+10	1	-1E+10	1	-1E+10	1	-1E+10	1	-1E+10	1	-1E+10	1
4902551	65	C	05/29/2022	20:59	-131.205	48.877	0	196.90	0	6.9830	0	33.8840	0	26.545	0	195.139	0	93.3	4	31.5	4	-1E+10	1	-1E+10	1	-1E+10	1	-1E+10	1	-1E+10	1	-1E+10	1
4902551	65	C	05/29/2022	20:59	-131.205	48.877	0	198.40	0	6.9720	0	33.8890	0	26.550	0	196.625	0	93.3	4	31.5	4	-1E+10	1	-1E+10	1	-1E+10	1	-1E+10	1	-1E+10	1	-1E+10	1
4902551	65	C	05/29/2022	20:59	-131.205	48.877	0	199.30	0	6.9550	0	33.8890	0	26.552	0	197.516	0	93.2	4	31.5	4	-1E+10	1	-1E+10	1	-1E+10	1	-1E+10	1	-1E+10	1	-1E+10	1
4902551	65	C	05/29/2022	20:59	-131.205	48.877	0	200.20	0	6.9410	0	33.8880	0	26.554	0	198.408	0	93.0	4	31.4	4	-1E+10	1	-1E+10	1	-1E+10	1	-1E+10	1	-1E+10	1	-1E+10	1
4902551	65	C	05/29/2022	20:59	-131.205	48.877	0	201.20	0	6.9310	0	33.8860	0	26.553	0	199.398	0	92.7	4	31.3	4	-1E+10	1	-1E+10	1	-1E+10	1	-1E+10	1	-1E+10	1	-1E+10	1
4902551	65	C	05/29/2022	20:59	-131.205	48.877	0	202.10	0	6.9290	0	33.8860	0	26.554	0	200.290	0	92.3	4	31.2	4	-1E+10	1	-1E+10	1	-1E+10	1	-1E+10	1	-1E+10	1	-1E+10	1
4902551	65	C	05/29/2022	20:59	-131.205	48.877	0	203.10	0	6.9200	0	33.8900	0	26.558	0	201.280	0	92.1	4	31.1	4	-1E+10	1	-1E+10	1	-1E+10	1	-1E+10	1	-1E+10	1	-1E+10	1
4902551	65	C	05/29/2022	20:59	-131.205	48.877	0	204.00	0	6.9160	0	33.8890	0	26.558	0	202.172	0	91.7	4	30.9	4	-1E+10	1	-1E+10	1	-1E+10	1	-1E+10	1	-1E+10	1	-1E+10	1
4902551	65	C	05/29/2022	20:59	-131.205	48.877	0	204.90	0	6.9090	0	33.8910	0	26.560	0	203.063	0	91.4	4	30.8	4	-1E+10	1	-1E+10	1	-1E+10	1	-1E+10	1	-1E+10	1	-1E+10	1
4902551	65	C	05/29/2022	20:59	-131.205	48.877	0	205.90	0	6.9040	0	33.8900	0	26.560	0	204.054	0	91.1	4	30.7	4	-1E+10	1	-1E+10	1	-1E+10	1	-1E+10	1	-1E+10	1	-1E+10	1
4902551	65	C	05/29/2022	20:59	-131.205	48.877	0	206.90	0	6.8990	0	33.8950	0	26.565	0	205.045	0	90.9	4	30.6	4	-1E+10	1	-1E+10	1	-1E+10	1	-1E+10	1	-1E+10	1	-1E+10	1
4902551	65	C	05/29/2022	20:59	-131.205	48.877	0	207.80	0	6.8960	0	33.8960	0	26.566	0	205.936	0	90.9	4	30.6	4	-1E+10	1	-1E+10	1	-1E+10	1	-1E+10	1	-1E+10	1	-1E+10	1
4902551	65	C	05/29/2022	20:59	-131.205	48.877	0	208.80	0	6.8930	0	33.8960	0	26.566	0	206.927	0	90.8	4	30.6	4	-1E+10	1	-1E+10	1	-1E+10	1	-1E+10	1	-1E+10	1	-1E+10	1
4902551	65	C	05/29/2022	20:59	-131.205	48.877	0	209.70	0	6.8890	0	33.8980	0	26.569	0	207.818	0	90.9	4	30.6	4	-1E+10	1	-1E+10	1	-1E+10	1	-1E+10	1	-1E+10	1	-1E+10	1
4902551	65	C	05/29/2022	20:59	-131.205	48.877	0	210.70	0	6.8630	0	33.9130	0	26.584	0	208.809	0	90.9	4	30.6	4	-1E+10	1	-1E+10	1	-1E+10	1	-1E+10	1	-1E+10	1	-1E+10	1
4902551	65	C	05/29/2022	20:59	-131.205	48.877	0	211.60	0	6.8510	0	33.8980	0	26.574	0	209.700	0	90.9	4	30.6	4	-1E+10	1	-1E+10	1	-1E+10	1	-1E+10	1	-1E+10	1	-1E+10	1
4902551	65	C	05/29/2022	20:59	-131.205	48.877	0	212.60	0	6.8450	0	33.9010	0	26.577	0	210.691	0	90.9	4	30.6	4	-1E+10	1	-1E+10	1	-1E+10	1	-1E+10	1	-1E+10	1	-1E+10	1
4902551	65	C	05/29/2022	20:59	-131.205	48.877	0	213.50	0	6.8410	0	33.9000	0	26.577	0	211.582	0	91.0	4	30.6	4	-1E+10	1	-1E+10	1	-1E+10	1	-1E+10	1	-1E+10	1	-1E+10	1
4902551	65	C	05/29/2022	20:59	-131.205	48.877	0	214.50	0	6.8370	0	33.9010	0	26.578	0	212.573	0	91.1	4	30.7	4	-1E+10	1	-1E+10	1	-1E+10	1	-1E+10	1	-1E+10	1	-1E+10	1
4902551	65	C	05/29/2022	20:59	-131.205	48.877	0	215.90	0	6.8170	0	33.9070	0	26.585	0	213.959	0	91.4	4	30.8	4	-1E+10	1	-1E+10	1	-1E+10	1	-1E+10	1	-1E+10	1	-1E+10	1
4902551	65	C	05/29/2022	20:59	-131.205	48.877	0	217.40	0	6.7930	0	33.9060	0	26.588	0	215.445	0	91.7	4	30.9	4	-1E+10	1	-1E+10	1	-1E+10	1	-1E+10	1	-1E+10	1	-1E+10	1
4902551	65	C	05/29/2022	20:59	-131.205	48.877	0	218.40	0	6.7880	0	33.9040	0	26.587	0	216.435	0	92.0	4	30.9	4	-1E+10	1	-1E+10	1	-1E+10	1	-1E+10	1	-1E+10	1	-1E+10	1
4902551	65	C	05/29/2022	20:59	-131.205	48.877	0	219.40	0	6.7790	0	33.9060	0	26.590	0	217.426	0	92.3	4	31.0	4	-1E+10	1	-1E+10	1	-1E+10	1	-1E+10	1	-1E+10	1	-1E+10	1
4902551	65	C	05/29/2022	20:59	-131.205	48.877	0	220.40	0	6.7610	0	33.9120	0	26.597	0	218.416	0	92.6	4	31.1	4	-1E+10	1	-1E+10	1	-1E+10	1	-1E+10	1	-1E+10	1	-1E+10	1
4902551	65	C	05/29/2022	20:59	-131.205	48.877	0	221.30	0	6.7430	0	33.9040	0	26.593	0	219.308	0	92.7	4	31.1	4	-1E+10	1	-1E+10	1	-1E+10	1	-1E+10	1	-1E+10	1	-1E+10	1
4902551	65	C	05/29/2022	20:59	-131.205	48.877	0	222.40	0	6.7190	0	33.9080	0	26.599	0	220.397	0	92.6	4	31.1	4	-1E+10	1	-1E+10	1	-1E+10	1	-1E+10	1	-1E+10	1	-1E+10	1
4902551	65	C	05/29/2022	20:59	-131.205	48.877	0	223.30	0	6.7150	0	33.9000	0	26.594	0	221.289	0	92.5	4	31.1	4	-1E+10	1	-1E+10	1	-1E+10	1	-1E+10	1	-1E+10	1	-1E+10	1
4902551	65	C	05/29/2022	20:59	-131.205	48.877	0	224.30	0	6.7150	0	33.9000	0	26.594	0	222.279	0	92.5	4	31.1	4	-1E+10	1	-1E+10	1	-1E+10	1	-1E+10	1	-1E+10	1	-1E+10	1
4902551	65	C	05/29/2022	20:59	-131.205	48.877	0	225.30	0	6.7140	0	33.9030	0	26.596	0	223.270	0	92.5	4	31.1	4	-1E+10	1	-1E+10	1	-1E+10	1	-1E+10	1	-1E+10	1	-1E+10	1
4902551	65	C	05/29/2022	20:59	-131.205	48.877	0	226.40	0	6.7070	0	33.9040	0	26.598	0	224.359	0	92.5	4	31.1	4	-1E+10	1	-1E+10	1	-1E+10	1	-1E+10	1	-1E+10	1	-1E+10	1
4902551	65	C	05/29/2022	20:59	-131.205	48.877	0	227.40	0	6.7030	0	33.9030	0	26.598	0	225.350	0	92.6	4	31.1	4	-1E+10	1	-1E+10	1	-1E+10	1	-1E+10	1	-1E+10	1	-1E+10	1
4902551	65	C	05/29/2022	20:59	-131.205	48.877	0	228.40	0	6.7010	0	33.9020	0	26.597	0	226.340	0	92.6	4	31.1	4	-1E+10	1	-1E+10	1	-1E+10	1	-1E+10	1	-1E+10	1	-1E+10	1
4902551	65	C	05/29/2022	20:59	-131.205	48.877	0	229.50	0	6.6970	0	33.9040	0	26.599	0	227.429	0	92.7	4	31.1	4	-1E+10	1	-1E+10	1	-1E+10	1	-1E+10	1	-1E+10	1	-1E+10	1
4902551	65	C	05/29/2022	20:59	-131.205	48.877	0	230.50	0	6.6800	0	33.9110	0	26.607	0	228.420	0	92.7	4	31.1	4	-1E+10	1	-1E+10	1	-1E+10	1	-1E+10	1	-1E+10	1	-1E+10	1
4902551	65	C	05/29/2022	20:59	-131.205	48.877	0	231.50	0	6.6430	0	33.9080	0	26.610	0	229.410	0	92.9	4	31.1	4	-1E+10	1	-1E+10	1	-1E+10	1	-1E+10	1	-1E+10	1	-1E+10	1
4902551	65	C	05/29/2022	20:59	-131.205	48.877	0	232.50	0	6.6320	0	33.9080	0	26.611	0	230.401	0	92.9	4	31.1	4	-1E+10	1	-1E+10	1	-1E+10	1	-1E+10	1	-1E+10	1	-1E+10	1
4902551	65	C	05/29/2022	20:59	-131.205	48.877	0	233.60	0	6.6180	0	33.9110	0	26.615	0	231.490	0	92.9	4	31.1	4	-1E+10	1	-1E+10	1	-1E+10	1	-1E+10	1	-1E+10	1	-1E+10	1
4902551	65	C	05/29/2022	20:59	-131.205	48.877	0	234.90	0	6.5980	0	33.9080	0	26.616	0	232.778	0	92.7	4	31.1	4	-1E+10	1	-1E+10	1	-1E+10	1	-1E+10	1	-1E+10	1	-1E+10	1
4902551	65	C	05/29/2022	20:59	-131.205	48.877	0	236.90	0	6.5880	0	33.9040	0	26.614	0	234.759	0	92.4	4	30.9	4	-1E+10	1	-1E+10	1	-1E+10	1	-1E+10	1	-1E+10	1	-1E+10	1
4902551	65	C	05/29/2022	20:59	-131.205	48.877	0	238.10	0	6.5820	0	33.9080	0	26.618	0	235.947	0	92.3	4	30.9	4	-1E+10	1	-1E+10	1	-1E+10	1	-1E+10	1	-1E+10	1	-1E+10	1
4902551	65	C	05/29/2022	20:59	-131.205	48.877	0	238.90	0	6.5650	0	33.9140	0	26.625	0	236.739	0	92.3	4	30.9	4	-1E+10	1	-1E+10	1	-1E+10	1	-1E+10	1	-1E+10	1	-1E+10	1
4902551	65	C	05/29/2022	20:59	-131.205	48.877	0	239.80	0	6.5500	0	33.9110	0	26.624	0	237.631	0	92.3	4	30.9	4	-1E+10	1	-1E+10	1	-1E+10	1	-1E+10	1	-1E+10	1	-1E+10	1
4902551	65	C	05/29/2022	20:59	-131.205	48.877	0	241.00	0	6.5400	0	33.9090	0	26.624	0	238.819	0	92.2	4	30.8	4	-1E+10	1	-1E+10	1	-1E+10	1	-1E+10	1	-1E+10	1	-1E+10	1
4902551	65	C	05/29/2022	20:59	-131.205	48.877	0	242.10	0	6.5350	0	33.9080	0	26.624	0	239.908	0	92.1	4	30.8	4	-1E+10	1	-1E+10	1	-1E+10	1	-1E+10	1	-1E+10	1	-1E+10	1
4902551	65	C	05/29/2022	20:59	-131.205	48.877	0	242.90	0	6.5270	0	33.9130	0	26.629	0	240.701	0	91.9	4	30.7	4	-1E+10	1	-1E+10	1	-1E+10	1	-1E+10	1	-1E+10	1	-1E+10	1
4902551	65	C	05/29/2022	20:59	-131.205	48.877	0	244.00	0	6.5190	0	33.9100	0	26.628	0	241.790	0	91.7	4	30.7	4	-1E+10	1	-1E+10	1	-1E+10	1	-1E+10	1	-1E+10	1	-1E+10	1
4902551	65	C	05/29/2022	20:59	-131.205	48.877	0	245.20	0	6.5100	0	33.9090	0	26.628	0	242.979	0	91.5	4	30.6	4	-1E+10	1	-1E+10	1	-1E+10	1	-1E+10	1	-1E+10	1	-1E+10	1
4902551	65	C	05/29/2022	20:59	-131.205	48.877	0	245.90	0	6.5080	0	33.9080	0	26.628	0	243.672	0	91.3	4	30.5	4	-1E+10	1	-1E+10	1	-1E+10	1	-1E+10	1	-1E+10	1	-1E+10	1
4902551	65	C	05/29/2022	20:59	-131.205	48.877	0	246.70	0	6.5050	0	33.9090	0	26.629	0	244.464	0	91.1	4	30.5	4	-1E+10	1	-1E+10	1	-1E+10	1	-1E+10	1	-1E+10	1	-1E+10	1
4902551	65	C	05/29/2022	20:59	-131.205	48.877	0	247.90	0	6.5030	0	33.9080	0	26.628	0	245.653	0	90.7	4	30.3	4	-1E+10	1	-1E+10	1	-1E+10	1	-1E+10	1	-1E+10	1	-1E+10	1
4902551	65	C	05/29/2022	20:59	-131.205	48.877	0	249.10	0	6.4980	0	33.9110	0	26.631	0	246.841	0	90.5	4	30.2	4	-1E+10	1	-1E+10	1	-1E+10	1	-1E+10	1	-1E+10	1	-1E+10	1
4902551	65	C	05/29/2022	20:59	-131.205	48.877	0	250.00	0	6.4870	0	33.9150	0	26.636	0	247.732	0	90.3	4	30.2	4	-1E+10	1	-1E+10	1	-1E+10	1	-1E+10	1	-1E+10	1	-1E+10	1
4902551	65	C	05/29/2022	20:59	-131.205	48.877	0	250.80	0	6.4810	0	33.9110	0	26.634	0	248.525	0	90.1	4	30.1	4	-1E+10	1	-1E+10	1	-1E+10	1	-1E+10	1	-1E+10	1	-1E+10	1
4902551	65	C	05/29/2022	20:59	-131.205	48.877	0	251.60	0	6.4360	0	33.9390	0	26.661	0	249.317	0	90.0	4	30.0	4	-1E+10	1	-1E+10	1	-1E+10	1	-1E+10	1	-1E+10	1	-1E+10	1
4902551	65	C	05/29/2022	20:59	-131.205	48.877	0	252.90	0	6.4200	0	33.9130	0	26.643	0	250.604	0	90.0	4	30.0	4	-1E+10	1	-1E+10	1	-1E+10	1	-1E+10	1	-1E+10	1	-1E+10	1
4902551	65	C	05/29/2022	20:59	-131.205	48.877	0	254.10	0	6.4070	0	33.9140	0	26.646	0	251.793	0	89.8	4	30.0	4	-1E+10	1	-1E+10	1	-1E+10	1	-1E+10	1	-1E+10	1	-1E+10	1
4902551	65	C	05/29/2022	20:59	-131.205	48.877	0	255.00	0	6.4010	0	33.9130	0	26.646	0	252.684	0	89.7	4	29.9	4	-1E+10	1	-1E+10	1	-1E+10	1	-1E+10	1	-1E+10	1	-1E+10	1
4902551	65	C	05/29/2022	20:59	-131.205	48.877	0	255.80	0	6.3960	0	33.9140	0	26.647	0	253.476	0	89.6	4	29.9	4	-1E+10	1	-1E+10	1	-1E+10	1	-1E+10	1	-1E+10	1	-1E+10	1
4902551	65	C	05/29/2022	20:59	-131.205	48.877	0	256.70	0	6.3900	0	33.9130	0	26.647	0	254.367	0	89.5	4	29.8	4	-1E+10	1	-1E+10	1	-1E+10	1	-1E+10	1	-1E+10	1	-1E+10	1
4902551	65	C	05/29/2022	20:59	-131.205	48.877	0	257.90	0	6.3840	0	33.9140	0	26.649	0	255.556	0	89.2	4	29.7	4	-1E+10	1	-1E+10	1	-1E+10	1	-1E+10	1	-1E+10	1	-1E+10	1
4902551	65	C	05/29/2022	20:59	-131.205	48.877	0	259.20	0	6.3720	0	33.9120	0	26.649	0	256.843	0	89.0	4	29.7	4	-1E+10	1	-1E+10	1	-1E+10	1	-1E+10	1	-1E+10	1	-1E+10	1
4902551	65	C	05/29/2022	20:59	-131.205	48.877	0	260.10	0	6.3670	0	33.9140	0	26.651	0	257.734	0	88.8	4	29.6	4	-1E+10	1	-1E+10	1	-1E+10	1	-1E+10	1	-1E+10	1	-1E+10	1
4902551	65	C	05/29/2022	20:59	-131.205	48.877	0	260.90	0	6.3590	0	33.9130	0	26.651	0	258.527	0	88.6	4	29.5	4	-1E+10	1	-1E+10	1	-1E+10	1	-1E+10	1	-1E+10	1	-1E+10	1
4902551	65	C	05/29/2022	20:59	-131.205	48.877	0	261.80	0	6.3490	0	33.9150	0	26.654	0	259.418	0	88.4	4	29.4	4	-1E+10	1	-1E+10	1	-1E+10	1	-1E+10	1	-1E+10	1	-1E+10	1
4902551	65	C	05/29/2022	20:59	-131.205	48.877	0	262.60	0	6.3350	0	33.9190	0	26.659	0	260.210	0	88.2	4	29.4	4	-1E+10	1	-1E+10	1	-1E+10	1	-1E+10	1	-1E+10	1	-1E+10	1
4902551	65	C	05/29/2022	20:59	-131.205	48.877	0	263.90	0	6.3130	0	33.9160	0	26.659	0	261.497	0	87.9	4	29.3	4	-1E+10	1	-1E+10	1	-1E+10	1	-1E+10	1	-1E+10	1	-1E+10	1
4902551	65	C	05/29/2022	20:59	-131.205	48.877	0	265.20	0	6.2950	0	33.9160	0	26.662	0	262.785	0	87.5	4	29.1	4	-1E+10	1	-1E+10	1	-1E+10	1	-1E+10	1	-1E+10	1	-1E+10	1
4902551	65	C	05/29/2022	20:59	-131.205	48.877	0	266.10	0	6.2740	0	33.9250	0	26.672	0	263.676	0	87.3	4	29.0	4	-1E+10	1	-1E+10	1	-1E+10	1	-1E+10	1	-1E+10	1	-1E+10	1
4902551	65	C	05/29/2022	20:59	-131.205	48.877	0	266.90	0	6.2520	0	33.9210	0	26.671	0	264.468	0	87.0	4	28.9	4	-1E+10	1	-1E+10	1	-1E+10	1	-1E+10	1	-1E+10	1	-1E+10	1
4902551	65	C	05/29/2022	20:59	-131.205	48.877	0	267.70	0	6.2390	0	33.9170	0	26.670	0	265.260	0	86.8	4	28.8	4	-1E+10	1	-1E+10	1	-1E+10	1	-1E+10	1	-1E+10	1	-1E+10	1
4902551	65	C	05/29/2022	20:59	-131.205	48.877	0	268.60	0	6.2200	0	33.9220	0	26.676	0	266.152	0	86.6	4	28.8	4	-1E+10	1	-1E+10	1	-1E+10	1	-1E+10	1	-1E+10	1	-1E+10	1
4902551	65	C	05/29/2022	20:59	-131.205	48.877	0	269.90	0	6.1970	0	33.9180	0	26.676	0	267.439	0	86.3	4	28.7	4	-1E+10	1	-1E+10	1	-1E+10	1	-1E+10	1	-1E+10	1	-1E+10	1
4902551	65	C	05/29/2022	20:59	-131.205	48.877	0	271.20	0	6.1920	0	33.9170	0	26.676	0	268.726	0	86.0	4	28.5	4	-1E+10	1	-1E+10	1	-1E+10	1	-1E+10	1	-1E+10	1	-1E+10	1
4902551	65	C	05/29/2022	20:59	-131.205	48.877	0	272.00	0	6.1830	0	33.9190	0	26.678	0	269.518	0	85.7	4	28.5	4	-1E+10	1	-1E+10	1	-1E+10	1	-1E+10	1	-1E+10	1	-1E+10	1
4902551	65	C	05/29/2022	20:59	-131.205	48.877	0	272.90	0	6.1810	0	33.9180	0	26.678	0	270.410	0	85.5	4	28.4	4	-1E+10	1	-1E+10	1	-1E+10	1	-1E+10	1	-1E+10	1	-1E+10	1
4902551	65	C	05/29/2022	20:59	-131.205	48.877	0	273.80	0	6.1700	0	33.9230	0	26.683	0	271.301	0	85.3	4	28.3	4	-1E+10	1	-1E+10	1	-1E+10	1	-1E+10	1	-1E+10	1	-1E+10	1
4902551	65	C	05/29/2022	20:59	-131.205	48.877	0	274.60	0	6.1620	0	33.9180	0	26.680	0	272.093	0	85.0	4	28.2	4	-1E+10	1	-1E+10	1	-1E+10	1	-1E+10	1	-1E+10	1	-1E+10	1
4902551	65	C	05/29/2022	20:59	-131.205	48.877	0	275.90	0	6.1550	0	33.9210	0	26.684	0	273.380	0	84.6	4	28.1	4	-1E+10	1	-1E+10	1	-1E+10	1	-1E+10	1	-1E+10	1	-1E+10	1
4902551	65	C	05/29/2022	20:59	-131.205	48.877	0	277.20	0	6.1390	0	33.9230	0	26.687	0	274.667	0	84.2	4	27.9	4	-1E+10	1	-1E+10	1	-1E+10	1	-1E+10	1	-1E+10	1	-1E+10	1
4902551	65	C	05/29/2022	20:59	-131.205	48.877	0	278.10	0	6.1310	0	33.9210	0	26.687	0	275.559	0	83.9	4	27.8	4	-1E+10	1	-1E+10	1	-1E+10	1	-1E+10	1	-1E+10	1	-1E+10	1
4902551	65	C	05/29/2022	20:59	-131.205	48.877	0	278.90	0	6.1260	0	33.9220	0	26.688	0	276.351	0	83.6	4	27.7	4	-1E+10	1	-1E+10	1	-1E+10	1	-1E+10	1	-1E+10	1	-1E+10	1
4902551	65	C	05/29/2022	20:59	-131.205	48.877	0	279.80	0	6.1100	0	33.9240	0	26.692	0	277.242	0	83.3	4	27.6	4	-1E+10	1	-1E+10	1	-1E+10	1	-1E+10	1	-1E+10	1	-1E+10	1
4902551	65	C	05/29/2022	20:59	-131.205	48.877	0	280.60	0	6.0960	0	33.9240	0	26.694	0	278.034	0	83.1	4	27.5	4	-1E+10	1	-1E+10	1	-1E+10	1	-1E+10	1	-1E+10	1	-1E+10	1
4902551	65	C	05/29/2022	20:59	-131.205	48.877	0	281.90	0	6.0770	0	33.9250	0	26.697	0	279.321	0	82.8	4	27.4	4	-1E+10	1	-1E+10	1	-1E+10	1	-1E+10	1	-1E+10	1	-1E+10	1
4902551	65	C	05/29/2022	20:59	-131.205	48.877	0	283.20	0	6.0530	0	33.9310	0	26.704	0	280.609	0	82.4	4	27.2	4	-1E+10	1	-1E+10	1	-1E+10	1	-1E+10	1	-1E+10	1	-1E+10	1
4902551	65	C	05/29/2022	20:59	-131.205	48.877	0	284.10	0	6.0200	0	33.9270	0	26.705	0	281.500	0	82.2	4	27.2	4	-1E+10	1	-1E+10	1	-1E+10	1	-1E+10	1	-1E+10	1	-1E+10	1
4902551	65	C	05/29/2022	20:59	-131.205	48.877	0	284.90	0	6.0140	0	33.9240	0	26.704	0	282.292	0	82.0	4	27.1	4	-1E+10	1	-1E+10	1	-1E+10	1	-1E+10	1	-1E+10	1	-1E+10	1
4902551	65	C	05/29/2022	20:59	-131.205	48.877	0	285.80	0	6.0090	0	33.9250	0	26.705	0	283.183	0	81.8	4	27.0	4	-1E+10	1	-1E+10	1	-1E+10	1	-1E+10	1	-1E+10	1	-1E+10	1
4902551	65	C	05/29/2022	20:59	-131.205	48.877	0	286.70	0	6.0050	0	33.9240	0	26.705	0	284.074	0	81.6	4	27.0	4	-1E+10	1	-1E+10	1	-1E+10	1	-1E+10	1	-1E+10	1	-1E+10	1
4902551	65	C	05/29/2022	20:59	-131.205	48.877	0	287.90	0	6.0030	0	33.9240	0	26.705	0	285.262	0	81.3	4	26.9	4	-1E+10	1	-1E+10	1	-1E+10	1	-1E+10	1	-1E+10	1	-1E+10	1
4902551	65	C	05/29/2022	20:59	-131.205	48.877	0	289.30	0	5.9960	0	33.9270	0	26.709	0	286.649	0	81.0	4	26.8	4	-1E+10	1	-1E+10	1	-1E+10	1	-1E+10	1	-1E+10	1	-1E+10	1
4902551	65	C	05/29/2022	20:59	-131.205	48.877	0	290.10	0	5.9850	0	33.9300	0	26.712	0	287.441	0	80.8	4	26.7	4	-1E+10	1	-1E+10	1	-1E+10	1	-1E+10	1	-1E+10	1	-1E+10	1
4902551	65	C	05/29/2022	20:59	-131.205	48.877	0	291.00	0	5.9790	0	33.9260	0	26.710	0	288.332	0	80.6	4	26.6	4	-1E+10	1	-1E+10	1	-1E+10	1	-1E+10	1	-1E+10	1	-1E+10	1
4902551	65	C	05/29/2022	20:59	-131.205	48.877	0	291.90	0	5.9750	0	33.9270	0	26.711	0	289.223	0	80.4	4	26.6	4	-1E+10	1	-1E+10	1	-1E+10	1	-1E+10	1	-1E+10	1	-1E+10	1
4902551	65	C	05/29/2022	20:59	-131.205	48.877	0	292.70	0	5.9700	0	33.9270	0	26.712	0	290.015	0	80.2	4	26.5	4	-1E+10	1	-1E+10	1	-1E+10	1	-1E+10	1	-1E+10	1	-1E+10	1
4902551	65	C	05/29/2022	20:59	-131.205	48.877	0	293.60	0	5.9670	0	33.9270	0	26.712	0	290.906	0	79.9	4	26.4	4	-1E+10	1	-1E+10	1	-1E+10	1	-1E+10	1	-1E+10	1	-1E+10	1
4902551	65	C	05/29/2022	20:59	-131.205	48.877	0	294.90	0	5.9450	0	33.9380	0	26.724	0	292.193	0	79.6	4	26.3	4	-1E+10	1	-1E+10	1	-1E+10	1	-1E+10	1	-1E+10	1	-1E+10	1
4902551	65	C	05/29/2022	20:59	-131.205	48.877	0	296.30	0	5.9110	0	33.9330	0	26.724	0	293.579	0	79.4	4	26.2	4	-1E+10	1	-1E+10	1	-1E+10	1	-1E+10	1	-1E+10	1	-1E+10	1
4902551	65	C	05/29/2022	20:59	-131.205	48.877	0	297.20	0	5.9030	0	33.9310	0	26.723	0	294.471	0	79.2	4	26.1	4	-1E+10	1	-1E+10	1	-1E+10	1	-1E+10	1	-1E+10	1	-1E+10	1
4902551	65	C	05/29/2022	20:59	-131.205	48.877	0	298.10	0	5.9000	0	33.9300	0	26.723	0	295.362	0	79.1	4	26.1	4	-1E+10	1	-1E+10	1	-1E+10	1	-1E+10	1	-1E+10	1	-1E+10	1
4902551	65	C	05/29/2022	20:59	-131.205	48.877	0	299.00	0	5.8950	0	33.9320	0	26.725	0	296.253	0	78.9	4	26.0	4	-1E+10	1	-1E+10	1	-1E+10	1	-1E+10	1	-1E+10	1	-1E+10	1
4902551	65	C	05/29/2022	20:59	-131.205	48.877	0	299.90	0	5.8830	0	33.9350	0	26.729	0	297.144	0	78.7	4	25.9	4	-1E+10	1	-1E+10	1	-1E+10	1	-1E+10	1	-1E+10	1	-1E+10	1
4902551	65	C	05/29/2022	20:59	-131.205	48.877	0	300.80	0	5.8780	0	33.9310	0	26.726	0	298.035	0	78.5	4	25.9	4	-1E+10	1	-1E+10	1	-1E+10	1	-1E+10	1	-1E+10	1	-1E+10	1
4902551	65	C	05/29/2022	20:59	-131.205	48.877	0	301.80	0	5.8740	0	33.9300	0	26.726	0	299.025	0	78.3	4	25.8	4	-1E+10	1	-1E+10	1	-1E+10	1	-1E+10	1	-1E+10	1	-1E+10	1
4902551	65	C	05/29/2022	20:59	-131.205	48.877	0	302.70	0	5.8720	0	33.9300	0	26.726	0	299.916	0	78.0	4	25.7	4	-1E+10	1	-1E+10	1	-1E+10	1	-1E+10	1	-1E+10	1	-1E+10	1
4902551	65	C	05/29/2022	20:59	-131.205	48.877	0	303.60	0	5.8700	0	33.9290	0	26.726	0	300.807	0	77.7	4	25.6	4	-1E+10	1	-1E+10	1	-1E+10	1	-1E+10	1	-1E+10	1	-1E+10	1
4902551	65	C	05/29/2022	20:59	-131.205	48.877	0	304.90	0	5.8530	0	33.9360	0	26.734	0	302.094	0	77.3	4	25.5	4	-1E+10	1	-1E+10	1	-1E+10	1	-1E+10	1	-1E+10	1	-1E+10	1
4902551	65	C	05/29/2022	20:59	-131.205	48.877	0	306.30	0	5.8310	0	33.9300	0	26.732	0	303.480	0	76.9	4	25.3	4	-1E+10	1	-1E+10	1	-1E+10	1	-1E+10	1	-1E+10	1	-1E+10	1
4902551	65	C	05/29/2022	20:59	-131.205	48.877	0	307.20	0	5.8150	0	33.9400	0	26.741	0	304.371	0	76.6	4	25.2	4	-1E+10	1	-1E+10	1	-1E+10	1	-1E+10	1	-1E+10	1	-1E+10	1
4902551	65	C	05/29/2022	20:59	-131.205	48.877	0	308.20	0	5.8050	0	33.9350	0	26.739	0	305.361	0	76.4	4	25.1	4	-1E+10	1	-1E+10	1	-1E+10	1	-1E+10	1	-1E+10	1	-1E+10	1
4902551	65	C	05/29/2022	20:59	-131.205	48.877	0	309.10	0	5.7970	0	33.9360	0	26.740	0	306.252	0	76.2	4	25.1	4	-1E+10	1	-1E+10	1	-1E+10	1	-1E+10	1	-1E+10	1	-1E+10	1
4902551	65	C	05/29/2022	20:59	-131.205	48.877	0	310.00	0	5.7920	0	33.9350	0	26.740	0	307.143	0	76.0	4	25.0	4	-1E+10	1	-1E+10	1	-1E+10	1	-1E+10	1	-1E+10	1	-1E+10	1
4902551	65	C	05/29/2022	20:59	-131.205	48.877	0	310.90	0	5.7900	0	33.9340	0	26.740	0	308.035	0	75.8	4	24.9	4	-1E+10	1	-1E+10	1	-1E+10	1	-1E+10	1	-1E+10	1	-1E+10	1
4902551	65	C	05/29/2022	20:59	-131.205	48.877	0	311.90	0	5.7870	0	33.9350	0	26.741	0	309.025	0	75.6	4	24.9	4	-1E+10	1	-1E+10	1	-1E+10	1	-1E+10	1	-1E+10	1	-1E+10	1
4902551	65	C	05/29/2022	20:59	-131.205	48.877	0	312.80	0	5.7830	0	33.9350	0	26.741	0	309.916	0	75.4	4	24.8	4	-1E+10	1	-1E+10	1	-1E+10	1	-1E+10	1	-1E+10	1	-1E+10	1
4902551	65	C	05/29/2022	20:59	-131.205	48.877	0	313.80	0	5.7770	0	33.9380	0	26.745	0	310.906	0	75.2	4	24.7	4	-1E+10	1	-1E+10	1	-1E+10	1	-1E+10	1	-1E+10	1	-1E+10	1
4902551	65	C	05/29/2022	20:59	-131.205	48.877	0	314.70	0	5.7660	0	33.9380	0	26.746	0	311.797	0	74.9	4	24.6	4	-1E+10	1	-1E+10	1	-1E+10	1	-1E+10	1	-1E+10	1	-1E+10	1
4902551	65	C	05/29/2022	20:59	-131.205	48.877	0	315.60	0	5.7580	0	33.9360	0	26.745	0	312.688	0	74.7	4	24.5	4	-1E+10	1	-1E+10	1	-1E+10	1	-1E+10	1	-1E+10	1	-1E+10	1
4902551	65	C	05/29/2022	20:59	-131.205	48.877	0	316.50	0	5.7550	0	33.9360	0	26.746	0	313.579	0	74.3	4	24.4	4	-1E+10	1	-1E+10	1	-1E+10	1	-1E+10	1	-1E+10	1	-1E+10	1
4902551	65	C	05/29/2022	20:59	-131.205	48.877	0	317.90	0	5.7510	0	33.9360	0	26.746	0	314.965	0	73.8	4	24.2	4	-1E+10	1	-1E+10	1	-1E+10	1	-1E+10	1	-1E+10	1	-1E+10	1
4902551	65	C	05/29/2022	20:59	-131.205	48.877	0	319.30	0	5.7450	0	33.9390	0	26.749	0	316.351	0	73.3	4	24.1	4	-1E+10	1	-1E+10	1	-1E+10	1	-1E+10	1	-1E+10	1	-1E+10	1
4902551	65	C	05/29/2022	20:59	-131.205	48.877	0	320.20	0	5.7440	0	33.9380	0	26.749	0	317.242	0	73.0	4	24.0	4	-1E+10	1	-1E+10	1	-1E+10	1	-1E+10	1	-1E+10	1	-1E+10	1
4902551	65	C	05/29/2022	20:59	-131.205	48.877	0	321.10	0	5.7450	0	33.9390	0	26.749	0	318.133	0	72.6	4	23.8	4	-1E+10	1	-1E+10	1	-1E+10	1	-1E+10	1	-1E+10	1	-1E+10	1
4902551	65	C	05/29/2022	20:59	-131.205	48.877	0	322.00	0	5.7470	0	33.9390	0	26.749	0	319.024	0	72.2	4	23.7	4	-1E+10	1	-1E+10	1	-1E+10	1	-1E+10	1	-1E+10	1	-1E+10	1
4902551	65	C	05/29/2022	20:59	-131.205	48.877	0	322.90	0	5.7480	0	33.9400	0	26.750	0	319.915	0	71.7	4	23.6	4	-1E+10	1	-1E+10	1	-1E+10	1	-1E+10	1	-1E+10	1	-1E+10	1
4902551	65	C	05/29/2022	20:59	-131.205	48.877	0	323.80	0	5.7490	0	33.9380	0	26.748	0	320.806	0	71.2	4	23.4	4	-1E+10	1	-1E+10	1	-1E+10	1	-1E+10	1	-1E+10	1	-1E+10	1
4902551	65	C	05/29/2022	20:59	-131.205	48.877	0	324.70	0	5.7580	0	33.9390	0	26.748	0	321.697	0	70.6	4	23.2	4	-1E+10	1	-1E+10	1	-1E+10	1	-1E+10	1	-1E+10	1	-1E+10	1
4902551	65	C	05/29/2022	20:59	-131.205	48.877	0	325.70	0	5.7650	0	33.9390	0	26.747	0	322.687	0	70.1	4	23.0	4	-1E+10	1	-1E+10	1	-1E+10	1	-1E+10	1	-1E+10	1	-1E+10	1
4902551	65	C	05/29/2022	20:59	-131.205	48.877	0	326.70	0	5.7790	0	33.9480	0	26.752	0	323.677	0	69.7	4	22.9	4	-1E+10	1	-1E+10	1	-1E+10	1	-1E+10	1	-1E+10	1	-1E+10	1
4902551	65	C	05/29/2022	20:59	-131.205	48.877	0	327.60	0	5.7720	0	33.9570	0	26.760	0	324.568	0	69.5	4	22.8	4	-1E+10	1	-1E+10	1	-1E+10	1	-1E+10	1	-1E+10	1	-1E+10	1
4902551	65	C	05/29/2022	20:59	-131.205	48.877	0	328.50	0	5.7510	0	33.9660	0	26.770	0	325.458	0	69.2	4	22.7	4	-1E+10	1	-1E+10	1	-1E+10	1	-1E+10	1	-1E+10	1	-1E+10	1
4902551	65	C	05/29/2022	20:59	-131.205	48.877	0	329.90	0	5.7190	0	33.9570	0	26.767	0	326.844	0	68.7	4	22.6	4	-1E+10	1	-1E+10	1	-1E+10	1	-1E+10	1	-1E+10	1	-1E+10	1
4902551	65	C	05/29/2022	20:59	-131.205	48.877	0	331.40	0	5.7130	0	33.9520	0	26.764	0	328.329	0	68.0	4	22.3	4	-1E+10	1	-1E+10	1	-1E+10	1	-1E+10	1	-1E+10	1	-1E+10	1
4902551	65	C	05/29/2022	20:59	-131.205	48.877	0	332.30	0	5.7100	0	33.9540	0	26.766	0	329.220	0	67.6	4	22.2	4	-1E+10	1	-1E+10	1	-1E+10	1	-1E+10	1	-1E+10	1	-1E+10	1
4902551	65	C	05/29/2022	20:59	-131.205	48.877	0	333.30	0	5.6870	0	33.9660	0	26.778	0	330.210	0	67.1	4	22.0	4	-1E+10	1	-1E+10	1	-1E+10	1	-1E+10	1	-1E+10	1	-1E+10	1
4902551	65	C	05/29/2022	20:59	-131.205	48.877	0	334.20	0	5.6760	0	33.9540	0	26.770	0	331.101	0	66.7	4	21.9	4	-1E+10	1	-1E+10	1	-1E+10	1	-1E+10	1	-1E+10	1	-1E+10	1
4902551	65	C	05/29/2022	20:59	-131.205	48.877	0	335.20	0	5.6780	0	33.9530	0	26.769	0	332.091	0	66.3	4	21.7	4	-1E+10	1	-1E+10	1	-1E+10	1	-1E+10	1	-1E+10	1	-1E+10	1
4902551	65	C	05/29/2022	20:59	-131.205	48.877	0	336.10	0	5.6840	0	33.9560	0	26.770	0	332.982	0	65.8	4	21.6	4	-1E+10	1	-1E+10	1	-1E+10	1	-1E+10	1	-1E+10	1	-1E+10	1
4902551	65	C	05/29/2022	20:59	-131.205	48.877	0	337.10	0	5.6850	0	33.9590	0	26.773	0	333.972	0	65.4	4	21.4	4	-1E+10	1	-1E+10	1	-1E+10	1	-1E+10	1	-1E+10	1	-1E+10	1
4902551	65	C	05/29/2022	20:59	-131.205	48.877	0	338.00	0	5.6890	0	33.9560	0	26.770	0	334.863	0	64.9	4	21.3	4	-1E+10	1	-1E+10	1	-1E+10	1	-1E+10	1	-1E+10	1	-1E+10	1
4902551	65	C	05/29/2022	20:59	-131.205	48.877	0	339.00	0	5.7000	0	33.9610	0	26.772	0	335.853	0	64.6	4	21.2	4	-1E+10	1	-1E+10	1	-1E+10	1	-1E+10	1	-1E+10	1	-1E+10	1
4902551	65	C	05/29/2022	20:59	-131.205	48.877	0	340.00	0	5.7000	0	33.9630	0	26.774	0	336.843	0	64.1	4	21.0	4	-1E+10	1	-1E+10	1	-1E+10	1	-1E+10	1	-1E+10	1	-1E+10	1
4902551	65	C	05/29/2022	20:59	-131.205	48.877	0	340.90	0	5.7030	0	33.9620	0	26.773	0	337.734	0	63.7	4	20.9	4	-1E+10	1	-1E+10	1	-1E+10	1	-1E+10	1	-1E+10	1	-1E+10	1
4902551	65	C	05/29/2022	20:59	-131.205	48.877	0	341.90	0	5.7080	0	33.9650	0	26.775	0	338.723	0	63.3	4	20.8	4	-1E+10	1	-1E+10	1	-1E+10	1	-1E+10	1	-1E+10	1	-1E+10	1
4902551	65	C	05/29/2022	20:59	-131.205	48.877	0	342.90	0	5.7090	0	33.9660	0	26.775	0	339.713	0	62.9	4	20.6	4	-1E+10	1	-1E+10	1	-1E+10	1	-1E+10	1	-1E+10	1	-1E+10	1
4902551	65	C	05/29/2022	20:59	-131.205	48.877	0	343.80	0	5.7110	0	33.9690	0	26.777	0	340.604	0	62.5	4	20.5	4	-1E+10	1	-1E+10	1	-1E+10	1	-1E+10	1	-1E+10	1	-1E+10	1
4902551	65	C	05/29/2022	20:59	-131.205	48.877	0	344.80	0	5.7110	0	33.9700	0	26.778	0	341.594	0	62.1	4	20.4	4	-1E+10	1	-1E+10	1	-1E+10	1	-1E+10	1	-1E+10	1	-1E+10	1
4902551	65	C	05/29/2022	20:59	-131.205	48.877	0	345.80	0	5.7060	0	33.9750	0	26.783	0	342.584	0	61.7	4	20.3	4	-1E+10	1	-1E+10	1	-1E+10	1	-1E+10	1	-1E+10	1	-1E+10	1
4902551	65	C	05/29/2022	20:59	-131.205	48.877	0	346.70	0	5.7030	0	33.9730	0	26.782	0	343.475	0	61.4	4	20.2	4	-1E+10	1	-1E+10	1	-1E+10	1	-1E+10	1	-1E+10	1	-1E+10	1
4902551	65	C	05/29/2022	20:59	-131.205	48.877	0	347.70	0	5.7040	0	33.9740	0	26.782	0	344.465	0	61.0	4	20.0	4	-1E+10	1	-1E+10	1	-1E+10	1	-1E+10	1	-1E+10	1	-1E+10	1
4902551	65	C	05/29/2022	20:59	-131.205	48.877	0	348.70	0	5.7060	0	33.9760	0	26.784	0	345.455	0	60.6	4	19.9	4	-1E+10	1	-1E+10	1	-1E+10	1	-1E+10	1	-1E+10	1	-1E+10	1
4902551	65	C	05/29/2022	20:59	-131.205	48.877	0	349.60	0	5.7000	0	33.9770	0	26.785	0	346.346	0	60.2	4	19.8	4	-1E+10	1	-1E+10	1	-1E+10	1	-1E+10	1	-1E+10	1	-1E+10	1
4902551	65	C	05/29/2022	20:59	-131.205	48.877	0	352.50	0	5.6870	0	33.9810	0	26.790	0	349.216	0	59.0	4	19.4	4	-1E+10	1	-1E+10	1	-1E+10	1	-1E+10	1	-1E+10	1	-1E+10	1
4902551	65	C	05/29/2022	20:59	-131.205	48.877	0	357.50	0	5.6630	0	33.9890	0	26.799	0	354.165	0	57.6	4	18.9	4	-1E+10	1	-1E+10	1	-1E+10	1	-1E+10	1	-1E+10	1	-1E+10	1
4902551	65	C	05/29/2022	20:59	-131.205	48.877	0	362.50	0	5.6500	0	33.9920	0	26.803	0	359.114	0	56.6	4	18.6	4	-1E+10	1	-1E+10	1	-1E+10	1	-1E+10	1	-1E+10	1	-1E+10	1
4902551	65	C	05/29/2022	20:59	-131.205	48.877	0	367.50	0	5.6380	0	33.9970	0	26.809	0	364.063	0	55.8	4	18.3	4	-1E+10	1	-1E+10	1	-1E+10	1	-1E+10	1	-1E+10	1	-1E+10	1
4902551	65	C	05/29/2022	20:59	-131.205	48.877	0	372.50	0	5.5920	0	33.9980	0	26.815	0	369.012	0	55.2	4	18.1	4	-1E+10	1	-1E+10	1	-1E+10	1	-1E+10	1	-1E+10	1	-1E+10	1
4902551	65	C	05/29/2022	20:59	-131.205	48.877	0	377.50	0	5.5480	0	34.0010	0	26.823	0	373.961	0	54.5	4	17.8	4	-1E+10	1	-1E+10	1	-1E+10	1	-1E+10	1	-1E+10	1	-1E+10	1
4902551	65	C	05/29/2022	20:59	-131.205	48.877	0	382.60	0	5.4850	0	34.0020	0	26.831	0	379.008	0	54.3	4	17.7	4	-1E+10	1	-1E+10	1	-1E+10	1	-1E+10	1	-1E+10	1	-1E+10	1
4902551	65	C	05/29/2022	20:59	-131.205	48.877	0	387.60	0	5.4000	0	33.9980	0	26.838	0	383.957	0	54.2	4	17.7	4	-1E+10	1	-1E+10	1	-1E+10	1	-1E+10	1	-1E+10	1	-1E+10	1
4902551	65	C	05/29/2022	20:59	-131.205	48.877	0	392.60	0	5.3470	0	33.9940	0	26.841	0	388.905	0	53.9	4	17.5	4	-1E+10	1	-1E+10	1	-1E+10	1	-1E+10	1	-1E+10	1	-1E+10	1
4902551	65	C	05/29/2022	20:59	-131.205	48.877	0	397.60	0	5.2670	0	33.9980	0	26.854	0	393.853	0	53.8	4	17.5	4	-1E+10	1	-1E+10	1	-1E+10	1	-1E+10	1	-1E+10	1	-1E+10	1
4902551	65	C	05/29/2022	20:59	-131.205	48.877	0	402.70	0	5.1740	0	33.9950	0	26.862	0	398.900	0	53.6	4	17.4	4	-1E+10	1	-1E+10	1	-1E+10	1	-1E+10	1	-1E+10	1	-1E+10	1
4902551	65	C	05/29/2022	20:59	-131.205	48.877	0	407.60	0	5.1210	0	33.9870	0	26.862	0	403.749	0	53.1	4	17.2	4	-1E+10	1	-1E+10	1	-1E+10	1	-1E+10	1	-1E+10	1	-1E+10	1
4902551	65	C	05/29/2022	20:59	-131.205	48.877	0	413.00	0	5.0680	0	33.9910	0	26.871	0	409.093	0	52.0	4	16.8	4	-1E+10	1	-1E+10	1	-1E+10	1	-1E+10	1	-1E+10	1	-1E+10	1
4902551	65	C	05/29/2022	20:59	-131.205	48.877	0	418.20	0	5.0030	0	33.9930	0	26.880	0	414.238	0	50.3	4	16.3	4	-1E+10	1	-1E+10	1	-1E+10	1	-1E+10	1	-1E+10	1	-1E+10	1
4902551	65	C	05/29/2022	20:59	-131.205	48.877	0	423.00	0	4.9650	0	33.9960	0	26.887	0	418.988	0	48.9	4	15.8	4	-1E+10	1	-1E+10	1	-1E+10	1	-1E+10	1	-1E+10	1	-1E+10	1
4902551	65	C	05/29/2022	20:59	-131.205	48.877	0	427.90	0	4.9600	0	33.9980	0	26.889	0	423.837	0	47.2	4	15.2	4	-1E+10	1	-1E+10	1	-1E+10	1	-1E+10	1	-1E+10	1	-1E+10	1
4902551	65	C	05/29/2022	20:59	-131.205	48.877	0	432.80	0	4.9460	0	34.0070	0	26.898	0	428.685	0	45.1	4	14.5	4	-1E+10	1	-1E+10	1	-1E+10	1	-1E+10	1	-1E+10	1	-1E+10	1
4902551	65	C	05/29/2022	20:59	-131.205	48.877	0	437.70	0	4.9320	0	34.0150	0	26.906	0	433.533	0	43.2	4	13.9	4	-1E+10	1	-1E+10	1	-1E+10	1	-1E+10	1	-1E+10	1	-1E+10	1
4902551	65	C	05/29/2022	20:59	-131.205	48.877	0	442.60	0	4.9130	0	34.0260	0	26.917	0	438.382	0	41.9	4	13.5	4	-1E+10	1	-1E+10	1	-1E+10	1	-1E+10	1	-1E+10	1	-1E+10	1
4902551	65	C	05/29/2022	20:59	-131.205	48.877	0	447.50	0	4.8800	0	34.0280	0	26.922	0	443.230	0	40.4	4	13.0	4	-1E+10	1	-1E+10	1	-1E+10	1	-1E+10	1	-1E+10	1	-1E+10	1
4902551	65	C	05/29/2022	20:59	-131.205	48.877	0	452.90	0	4.8530	0	34.0390	0	26.934	0	448.572	0	38.8	4	12.5	4	-1E+10	1	-1E+10	1	-1E+10	1	-1E+10	1	-1E+10	1	-1E+10	1
4902551	65	C	05/29/2022	20:59	-131.205	48.877	0	458.30	0	4.8060	0	34.0430	0	26.943	0	453.915	0	37.4	4	12.0	4	-1E+10	1	-1E+10	1	-1E+10	1	-1E+10	1	-1E+10	1	-1E+10	1
4902551	65	C	05/29/2022	20:59	-131.205	48.877	0	463.10	0	4.7840	0	34.0510	0	26.951	0	458.664	0	36.0	4	11.6	4	-1E+10	1	-1E+10	1	-1E+10	1	-1E+10	1	-1E+10	1	-1E+10	1
4902551	65	C	05/29/2022	20:59	-131.205	48.877	0	468.00	0	4.7530	0	34.0590	0	26.961	0	463.511	0	35.2	4	11.3	4	-1E+10	1	-1E+10	1	-1E+10	1	-1E+10	1	-1E+10	1	-1E+10	1
4902551	65	C	05/29/2022	20:59	-131.205	48.877	0	472.90	0	4.7380	0	34.0620	0	26.965	0	468.359	0	35.0	4	11.2	4	-1E+10	1	-1E+10	1	-1E+10	1	-1E+10	1	-1E+10	1	-1E+10	1
4902551	65	C	05/29/2022	20:59	-131.205	48.877	0	477.80	0	4.6720	0	34.0740	0	26.982	0	473.206	0	35.2	4	11.3	4	-1E+10	1	-1E+10	1	-1E+10	1	-1E+10	1	-1E+10	1	-1E+10	1
4902551	65	C	05/29/2022	20:59	-131.205	48.877	0	483.00	0	4.5760	0	34.0650	0	26.985	0	478.350	0	35.8	4	11.5	4	-1E+10	1	-1E+10	1	-1E+10	1	-1E+10	1	-1E+10	1	-1E+10	1
4902551	65	C	05/29/2022	20:59	-131.205	48.877	0	487.90	0	4.5460	0	34.0630	0	26.987	0	483.197	0	36.3	4	11.6	4	-1E+10	1	-1E+10	1	-1E+10	1	-1E+10	1	-1E+10	1	-1E+10	1
4902551	65	C	05/29/2022	20:59	-131.205	48.877	0	492.70	0	4.5160	0	34.0600	0	26.988	0	487.945	0	36.7	4	11.7	4	-1E+10	1	-1E+10	1	-1E+10	1	-1E+10	1	-1E+10	1	-1E+10	1
4902551	65	C	05/29/2022	20:59	-131.205	48.877	0	497.60	0	4.4950	0	34.0570	0	26.988	0	492.792	0	36.9	4	11.8	4	-1E+10	1	-1E+10	1	-1E+10	1	-1E+10	1	-1E+10	1	-1E+10	1
4902551	65	C	05/29/2022	20:59	-131.205	48.877	0	502.60	0	4.4770	0	34.0570	0	26.990	0	497.738	0	37.1	4	11.8	4	-1E+10	1	-1E+10	1	-1E+10	1	-1E+10	1	-1E+10	1	-1E+10	1
4902551	65	C	05/29/2022	20:59	-131.205	48.877	0	507.60	0	4.4240	0	34.0590	0	26.997	0	502.683	0	37.1	4	11.8	4	-1E+10	1	-1E+10	1	-1E+10	1	-1E+10	1	-1E+10	1	-1E+10	1
4902551	65	C	05/29/2022	20:59	-131.205	48.877	0	512.70	0	4.3600	0	34.0560	0	27.002	0	507.728	0	36.7	4	11.7	4	-1E+10	1	-1E+10	1	-1E+10	1	-1E+10	1	-1E+10	1	-1E+10	1
4902551	65	C	05/29/2022	20:59	-131.205	48.877	0	517.90	0	4.3300	0	34.0600	0	27.008	0	512.871	0	36.0	4	11.5	4	-1E+10	1	-1E+10	1	-1E+10	1	-1E+10	1	-1E+10	1	-1E+10	1
4902551	65	C	05/29/2022	20:59	-131.205	48.877	0	523.00	0	4.3210	0	34.0620	0	27.011	0	517.915	0	35.7	4	11.3	4	-1E+10	1	-1E+10	1	-1E+10	1	-1E+10	1	-1E+10	1	-1E+10	1
4902551	65	C	05/29/2022	20:59	-131.205	48.877	0	527.70	0	4.3100	0	34.0630	0	27.013	0	522.563	0	35.4	4	11.3	4	-1E+10	1	-1E+10	1	-1E+10	1	-1E+10	1	-1E+10	1	-1E+10	1
4902551	65	C	05/29/2022	20:59	-131.205	48.877	0	532.60	0	4.3050	0	34.0640	0	27.014	0	527.409	0	35.0	4	11.1	4	-1E+10	1	-1E+10	1	-1E+10	1	-1E+10	1	-1E+10	1	-1E+10	1
4902551	65	C	05/29/2022	20:59	-131.205	48.877	0	537.60	0	4.2990	0	34.0650	0	27.016	0	532.354	0	34.5	4	10.9	4	-1E+10	1	-1E+10	1	-1E+10	1	-1E+10	1	-1E+10	1	-1E+10	1
4902551	65	C	05/29/2022	20:59	-131.205	48.877	0	542.70	0	4.2750	0	34.0690	0	27.021	0	537.398	0	33.7	4	10.7	4	-1E+10	1	-1E+10	1	-1E+10	1	-1E+10	1	-1E+10	1	-1E+10	1
4902551	65	C	05/29/2022	20:59	-131.205	48.877	0	547.80	0	4.2670	0	34.0710	0	27.024	0	542.442	0	33.1	4	10.5	4	-1E+10	1	-1E+10	1	-1E+10	1	-1E+10	1	-1E+10	1	-1E+10	1
4902551	65	C	05/29/2022	20:59	-131.205	48.877	0	552.90	0	4.2640	0	34.0730	0	27.026	0	547.485	0	32.3	4	10.3	4	-1E+10	1	-1E+10	1	-1E+10	1	-1E+10	1	-1E+10	1	-1E+10	1
4902551	65	C	05/29/2022	20:59	-131.205	48.877	0	557.90	0	4.2510	0	34.0800	0	27.033	0	552.429	0	31.3	4	9.9	4	-1E+10	1	-1E+10	1	-1E+10	1	-1E+10	1	-1E+10	1	-1E+10	1
4902551	65	C	05/29/2022	20:59	-131.205	48.877	0	563.10	0	4.2170	0	34.0880	0	27.043	0	557.571	0	30.4	4	9.6	4	-1E+10	1	-1E+10	1	-1E+10	1	-1E+10	1	-1E+10	1	-1E+10	1
4902551	65	C	05/29/2022	20:59	-131.205	48.877	0	568.20	0	4.1960	0	34.0920	0	27.048	0	562.614	0	29.8	4	9.4	4	-1E+10	1	-1E+10	1	-1E+10	1	-1E+10	1	-1E+10	1	-1E+10	1
4902551	65	C	05/29/2022	20:59	-131.205	48.877	0	572.90	0	4.1860	0	34.0940	0	27.051	0	567.262	0	29.2	4	9.3	4	-1E+10	1	-1E+10	1	-1E+10	1	-1E+10	1	-1E+10	1	-1E+10	1
4902551	65	C	05/29/2022	20:59	-131.205	48.877	0	577.50	0	4.1760	0	34.0970	0	27.054	0	571.810	0	28.5	4	9.0	4	-1E+10	1	-1E+10	1	-1E+10	1	-1E+10	1	-1E+10	1	-1E+10	1
4902551	65	C	05/29/2022	20:59	-131.205	48.877	0	582.90	0	4.1610	0	34.1010	0	27.059	0	577.150	0	27.3	4	8.6	4	-1E+10	1	-1E+10	1	-1E+10	1	-1E+10	1	-1E+10	1	-1E+10	1
4902551	65	C	05/29/2022	20:59	-131.205	48.877	0	588.00	0	4.1430	0	34.1060	0	27.065	0	582.192	0	25.9	4	8.2	4	-1E+10	1	-1E+10	1	-1E+10	1	-1E+10	1	-1E+10	1	-1E+10	1
4902551	65	C	05/29/2022	20:59	-131.205	48.877	0	592.50	0	4.1460	0	34.1130	0	27.070	0	586.641	0	24.5	4	7.8	4	-1E+10	1	-1E+10	1	-1E+10	1	-1E+10	1	-1E+10	1	-1E+10	1
4902551	65	C	05/29/2022	20:59	-131.205	48.877	0	597.50	0	4.1510	0	34.1330	0	27.085	0	591.585	0	23.8	4	7.5	4	-1E+10	1	-1E+10	1	-1E+10	1	-1E+10	1	-1E+10	1	-1E+10	1
4902551	65	C	05/29/2022	20:59	-131.205	48.877	0	602.60	0	4.1250	0	34.1300	0	27.086	0	596.627	0	23.1	4	7.3	4	-1E+10	1	-1E+10	1	-1E+10	1	-1E+10	1	-1E+10	1	-1E+10	1
4902551	65	C	05/29/2022	20:59	-131.205	48.877	0	607.70	0	4.1280	0	34.1320	0	27.087	0	601.669	0	22.1	4	7.0	4	-1E+10	1	-1E+10	1	-1E+10	1	-1E+10	1	-1E+10	1	-1E+10	1
4902551	65	C	05/29/2022	20:59	-131.205	48.877	0	612.90	0	4.1330	0	34.1400	0	27.093	0	606.810	0	20.7	4	6.6	4	-1E+10	1	-1E+10	1	-1E+10	1	-1E+10	1	-1E+10	1	-1E+10	1
4902551	65	C	05/29/2022	20:59	-131.205	48.877	0	618.00	0	4.1440	0	34.1530	0	27.102	0	611.852	0	19.8	4	6.3	4	-1E+10	1	-1E+10	1	-1E+10	1	-1E+10	1	-1E+10	1	-1E+10	1
4902551	65	C	05/29/2022	20:59	-131.205	48.877	0	623.00	0	4.1510	0	34.1600	0	27.107	0	616.795	0	19.2	4	6.1	4	-1E+10	1	-1E+10	1	-1E+10	1	-1E+10	1	-1E+10	1	-1E+10	1
4902551	65	C	05/29/2022	20:59	-131.205	48.877	0	628.00	0	4.1530	0	34.1610	0	27.108	0	621.737	0	18.7	4	5.9	4	-1E+10	1	-1E+10	1	-1E+10	1	-1E+10	1	-1E+10	1	-1E+10	1
4902551	65	C	05/29/2022	20:59	-131.205	48.877	0	633.10	0	4.1420	0	34.1700	0	27.116	0	626.779	0	18.5	4	5.9	4	-1E+10	1	-1E+10	1	-1E+10	1	-1E+10	1	-1E+10	1	-1E+10	1
4902551	65	C	05/29/2022	20:59	-131.205	48.877	0	638.20	0	4.1370	0	34.1710	0	27.117	0	631.820	0	18.4	4	5.8	4	-1E+10	1	-1E+10	1	-1E+10	1	-1E+10	1	-1E+10	1	-1E+10	1
4902551	65	C	05/29/2022	20:59	-131.205	48.877	0	643.10	0	4.1140	0	34.1730	0	27.121	0	636.664	0	18.3	4	5.8	4	-1E+10	1	-1E+10	1	-1E+10	1	-1E+10	1	-1E+10	1	-1E+10	1
4902551	65	C	05/29/2022	20:59	-131.205	48.877	0	647.80	0	4.0700	0	34.1750	0	27.128	0	641.309	0	17.9	4	5.7	4	-1E+10	1	-1E+10	1	-1E+10	1	-1E+10	1	-1E+10	1	-1E+10	1
4902551	65	C	05/29/2022	20:59	-131.205	48.877	0	652.70	0	4.0570	0	34.1800	0	27.133	0	646.153	0	17.4	4	5.5	4	-1E+10	1	-1E+10	1	-1E+10	1	-1E+10	1	-1E+10	1	-1E+10	1
4902551	65	C	05/29/2022	20:59	-131.205	48.877	0	657.80	0	4.0380	0	34.1830	0	27.137	0	651.194	0	16.8	4	5.3	4	-1E+10	1	-1E+10	1	-1E+10	1	-1E+10	1	-1E+10	1	-1E+10	1
4902551	65	C	05/29/2022	20:59	-131.205	48.877	0	663.00	0	4.0490	0	34.1890	0	27.141	0	656.333	0	16.0	4	5.1	4	-1E+10	1	-1E+10	1	-1E+10	1	-1E+10	1	-1E+10	1	-1E+10	1
4902551	65	C	05/29/2022	20:59	-131.205	48.877	0	668.20	0	4.0600	0	34.2040	0	27.152	0	661.473	0	15.4	4	4.9	4	-1E+10	1	-1E+10	1	-1E+10	1	-1E+10	1	-1E+10	1	-1E+10	1
4902551	65	C	05/29/2022	20:59	-131.205	48.877	0	673.10	0	4.0250	0	34.2090	0	27.159	0	666.315	0	15.4	4	4.9	4	-1E+10	1	-1E+10	1	-1E+10	1	-1E+10	1	-1E+10	1	-1E+10	1
4902551	65	C	05/29/2022	20:59	-131.205	48.877	0	678.10	0	4.0060	0	34.2100	0	27.162	0	671.257	0	15.4	4	4.9	4	-1E+10	1	-1E+10	1	-1E+10	1	-1E+10	1	-1E+10	1	-1E+10	1
4902551	65	C	05/29/2022	20:59	-131.205	48.877	0	683.10	0	3.9880	0	34.2130	0	27.167	0	676.198	0	15.5	4	4.9	4	-1E+10	1	-1E+10	1	-1E+10	1	-1E+10	1	-1E+10	1	-1E+10	1
4902551	65	C	05/29/2022	20:59	-131.205	48.877	0	688.20	0	3.9470	0	34.2160	0	27.173	0	681.239	0	15.7	4	4.9	4	-1E+10	1	-1E+10	1	-1E+10	1	-1E+10	1	-1E+10	1	-1E+10	1
4902551	65	C	05/29/2022	20:59	-131.205	48.877	0	693.00	0	3.8970	0	34.2150	0	27.177	0	685.982	0	15.6	4	4.9	4	-1E+10	1	-1E+10	1	-1E+10	1	-1E+10	1	-1E+10	1	-1E+10	1
4902551	65	C	05/29/2022	20:59	-131.205	48.877	0	698.00	0	3.8780	0	34.2160	0	27.180	0	690.923	0	15.3	4	4.8	4	-1E+10	1	-1E+10	1	-1E+10	1	-1E+10	1	-1E+10	1	-1E+10	1
4902551	65	C	05/29/2022	20:59	-131.205	48.877	0	703.00	0	3.8700	0	34.2190	0	27.183	0	695.864	0	14.9	4	4.7	4	-1E+10	1	-1E+10	1	-1E+10	1	-1E+10	1	-1E+10	1	-1E+10	1
4902551	65	C	05/29/2022	20:59	-131.205	48.877	0	708.00	0	3.8710	0	34.2260	0	27.189	0	700.805	0	14.6	4	4.6	4	-1E+10	1	-1E+10	1	-1E+10	1	-1E+10	1	-1E+10	1	-1E+10	1
4902551	65	C	05/29/2022	20:59	-131.205	48.877	0	713.10	0	3.8660	0	34.2290	0	27.192	0	705.845	0	14.4	4	4.5	4	-1E+10	1	-1E+10	1	-1E+10	1	-1E+10	1	-1E+10	1	-1E+10	1
4902551	65	C	05/29/2022	20:59	-131.205	48.877	0	718.00	0	3.8630	0	34.2310	0	27.194	0	710.686	0	14.2	4	4.5	4	-1E+10	1	-1E+10	1	-1E+10	1	-1E+10	1	-1E+10	1	-1E+10	1
4902551	65	C	05/29/2022	20:59	-131.205	48.877	0	722.90	0	3.8560	0	34.2330	0	27.196	0	715.528	0	14.0	4	4.4	4	-1E+10	1	-1E+10	1	-1E+10	1	-1E+10	1	-1E+10	1	-1E+10	1
4902551	65	C	05/29/2022	20:59	-131.205	48.877	0	727.90	0	3.8520	0	34.2370	0	27.200	0	720.468	0	13.6	4	4.3	4	-1E+10	1	-1E+10	1	-1E+10	1	-1E+10	1	-1E+10	1	-1E+10	1
4902551	65	C	05/29/2022	20:59	-131.205	48.877	0	733.00	0	3.8470	0	34.2430	0	27.205	0	725.508	0	13.2	4	4.2	4	-1E+10	1	-1E+10	1	-1E+10	1	-1E+10	1	-1E+10	1	-1E+10	1
4902551	65	C	05/29/2022	20:59	-131.205	48.877	0	738.20	0	3.8450	0	34.2500	0	27.211	0	730.645	0	13.0	4	4.1	4	-1E+10	1	-1E+10	1	-1E+10	1	-1E+10	1	-1E+10	1	-1E+10	1
4902551	65	C	05/29/2022	20:59	-131.205	48.877	0	742.90	0	3.8430	0	34.2540	0	27.214	0	735.289	0	12.9	4	4.1	4	-1E+10	1	-1E+10	1	-1E+10	1	-1E+10	1	-1E+10	1	-1E+10	1
4902551	65	C	05/29/2022	20:59	-131.205	48.877	0	747.60	0	3.8370	0	34.2550	0	27.216	0	739.932	0	12.8	4	4.0	4	-1E+10	1	-1E+10	1	-1E+10	1	-1E+10	1	-1E+10	1	-1E+10	1
4902551	65	C	05/29/2022	20:59	-131.205	48.877	0	753.00	0	3.8250	0	34.2600	0	27.221	0	745.267	0	12.6	4	4.0	4	-1E+10	1	-1E+10	1	-1E+10	1	-1E+10	1	-1E+10	1	-1E+10	1
4902551	65	C	05/29/2022	20:59	-131.205	48.877	0	757.90	0	3.8130	0	34.2590	0	27.221	0	750.108	0	12.5	4	3.9	4	-1E+10	1	-1E+10	1	-1E+10	1	-1E+10	1	-1E+10	1	-1E+10	1
4902551	65	C	05/29/2022	20:59	-131.205	48.877	0	762.90	0	3.8200	0	34.2630	0	27.224	0	755.048	0	12.2	4	3.8	4	-1E+10	1	-1E+10	1	-1E+10	1	-1E+10	1	-1E+10	1	-1E+10	1
4902551	65	C	05/29/2022	20:59	-131.205	48.877	0	767.80	0	3.8110	0	34.2660	0	27.227	0	759.888	0	12.0	4	3.8	4	-1E+10	1	-1E+10	1	-1E+10	1	-1E+10	1	-1E+10	1	-1E+10	1
4902551	65	C	05/29/2022	20:59	-131.205	48.877	0	772.70	0	3.8160	0	34.2720	0	27.231	0	764.729	0	11.9	4	3.7	4	-1E+10	1	-1E+10	1	-1E+10	1	-1E+10	1	-1E+10	1	-1E+10	1
4902551	65	C	05/29/2022	20:59	-131.205	48.877	0	778.10	0	3.7860	0	34.2780	0	27.239	0	770.063	0	11.9	4	3.7	4	-1E+10	1	-1E+10	1	-1E+10	1	-1E+10	1	-1E+10	1	-1E+10	1
4902551	65	C	05/29/2022	20:59	-131.205	48.877	0	783.00	0	3.7760	0	34.2780	0	27.240	0	774.904	0	11.9	4	3.7	4	-1E+10	1	-1E+10	1	-1E+10	1	-1E+10	1	-1E+10	1	-1E+10	1
4902551	65	C	05/29/2022	20:59	-131.205	48.877	0	787.90	0	3.7730	0	34.2790	0	27.241	0	779.744	0	11.9	4	3.7	4	-1E+10	1	-1E+10	1	-1E+10	1	-1E+10	1	-1E+10	1	-1E+10	1
4902551	65	C	05/29/2022	20:59	-131.205	48.877	0	792.70	0	3.7650	0	34.2820	0	27.245	0	784.485	0	11.9	4	3.7	4	-1E+10	1	-1E+10	1	-1E+10	1	-1E+10	1	-1E+10	1	-1E+10	1
4902551	65	C	05/29/2022	20:59	-131.205	48.877	0	797.60	0	3.7190	0	34.2840	0	27.251	0	789.325	0	12.0	4	3.8	4	-1E+10	1	-1E+10	1	-1E+10	1	-1E+10	1	-1E+10	1	-1E+10	1
4902551	65	C	05/29/2022	20:59	-131.205	48.877	0	803.00	0	3.7010	0	34.2820	0	27.251	0	794.659	0	11.9	4	3.7	4	-1E+10	1	-1E+10	1	-1E+10	1	-1E+10	1	-1E+10	1	-1E+10	1
4902551	65	C	05/29/2022	20:59	-131.205	48.877	0	807.90	0	3.6930	0	34.2860	0	27.255	0	799.499	0	11.9	4	3.7	4	-1E+10	1	-1E+10	1	-1E+10	1	-1E+10	1	-1E+10	1	-1E+10	1
4902551	65	C	05/29/2022	20:59	-131.205	48.877	0	812.80	0	3.6850	0	34.2880	0	27.257	0	804.338	0	11.9	4	3.7	4	-1E+10	1	-1E+10	1	-1E+10	1	-1E+10	1	-1E+10	1	-1E+10	1
4902551	65	C	05/29/2022	20:59	-131.205	48.877	0	818.20	0	3.6550	0	34.2910	0	27.263	0	809.671	0	12.1	4	3.8	4	-1E+10	1	-1E+10	1	-1E+10	1	-1E+10	1	-1E+10	1	-1E+10	1
4902551	65	C	05/29/2022	20:59	-131.205	48.877	0	823.10	0	3.6350	0	34.2900	0	27.264	0	814.511	0	12.2	4	3.8	4	-1E+10	1	-1E+10	1	-1E+10	1	-1E+10	1	-1E+10	1	-1E+10	1
4902551	65	C	05/29/2022	20:59	-131.205	48.877	0	828.00	0	3.6140	0	34.2920	0	27.268	0	819.350	0	12.4	4	3.9	4	-1E+10	1	-1E+10	1	-1E+10	1	-1E+10	1	-1E+10	1	-1E+10	1
4902551	65	C	05/29/2022	20:59	-131.205	48.877	0	832.90	0	3.5620	0	34.2890	0	27.270	0	824.189	0	12.4	4	3.9	4	-1E+10	1	-1E+10	1	-1E+10	1	-1E+10	1	-1E+10	1	-1E+10	1
4902551	65	C	05/29/2022	20:59	-131.205	48.877	0	837.90	0	3.5510	0	34.2910	0	27.273	0	829.127	0	12.3	4	3.9	4	-1E+10	1	-1E+10	1	-1E+10	1	-1E+10	1	-1E+10	1	-1E+10	1
4902551	65	C	05/29/2022	20:59	-131.205	48.877	0	842.80	0	3.5440	0	34.2930	0	27.275	0	833.966	0	12.3	4	3.8	4	-1E+10	1	-1E+10	1	-1E+10	1	-1E+10	1	-1E+10	1	-1E+10	1
4902551	65	C	05/29/2022	20:59	-131.205	48.877	0	847.80	0	3.5290	0	34.2950	0	27.278	0	838.904	0	12.2	4	3.8	4	-1E+10	1	-1E+10	1	-1E+10	1	-1E+10	1	-1E+10	1	-1E+10	1
4902551	65	C	05/29/2022	20:59	-131.205	48.877	0	853.20	0	3.5210	0	34.2960	0	27.280	0	844.236	0	12.1	4	3.8	4	-1E+10	1	-1E+10	1	-1E+10	1	-1E+10	1	-1E+10	1	-1E+10	1
4902551	65	C	05/29/2022	20:59	-131.205	48.877	0	858.00	0	3.5170	0	34.2980	0	27.282	0	848.976	0	12.0	4	3.8	4	-1E+10	1	-1E+10	1	-1E+10	1	-1E+10	1	-1E+10	1	-1E+10	1
4902551	65	C	05/29/2022	20:59	-131.205	48.877	0	862.80	0	3.5120	0	34.3000	0	27.284	0	853.716	0	11.9	4	3.7	4	-1E+10	1	-1E+10	1	-1E+10	1	-1E+10	1	-1E+10	1	-1E+10	1
4902551	65	C	05/29/2022	20:59	-131.205	48.877	0	868.10	0	3.4990	0	34.3050	0	27.289	0	858.949	0	11.8	4	3.7	4	-1E+10	1	-1E+10	1	-1E+10	1	-1E+10	1	-1E+10	1	-1E+10	1
4902551	65	C	05/29/2022	20:59	-131.205	48.877	0	872.90	0	3.4910	0	34.3080	0	27.293	0	863.688	0	11.8	4	3.7	4	-1E+10	1	-1E+10	1	-1E+10	1	-1E+10	1	-1E+10	1	-1E+10	1
4902551	65	C	05/29/2022	20:59	-131.205	48.877	0	877.70	0	3.4790	0	34.3110	0	27.296	0	868.428	0	11.7	4	3.7	4	-1E+10	1	-1E+10	1	-1E+10	1	-1E+10	1	-1E+10	1	-1E+10	1
4902551	65	C	05/29/2022	20:59	-131.205	48.877	0	883.00	0	3.4650	0	34.3130	0	27.299	0	873.661	0	11.7	4	3.7	4	-1E+10	1	-1E+10	1	-1E+10	1	-1E+10	1	-1E+10	1	-1E+10	1
4902551	65	C	05/29/2022	20:59	-131.205	48.877	0	887.90	0	3.4500	0	34.3150	0	27.302	0	878.499	0	11.7	4	3.6	4	-1E+10	1	-1E+10	1	-1E+10	1	-1E+10	1	-1E+10	1	-1E+10	1
4902551	65	C	05/29/2022	20:59	-131.205	48.877	0	892.80	0	3.4410	0	34.3180	0	27.305	0	883.336	0	11.7	4	3.6	4	-1E+10	1	-1E+10	1	-1E+10	1	-1E+10	1	-1E+10	1	-1E+10	1
4902551	65	C	05/29/2022	20:59	-131.205	48.877	0	897.70	0	3.4250	0	34.3200	0	27.309	0	888.174	0	11.6	4	3.6	4	-1E+10	1	-1E+10	1	-1E+10	1	-1E+10	1	-1E+10	1	-1E+10	1
4902551	65	C	05/29/2022	20:59	-131.205	48.877	0	902.90	0	3.4010	0	34.3260	0	27.316	0	893.308	0	11.6	4	3.6	4	-1E+10	1	-1E+10	1	-1E+10	1	-1E+10	1	-1E+10	1	-1E+10	1
4902551	65	C	05/29/2022	20:59	-131.205	48.877	0	908.20	0	3.3780	0	34.3310	0	27.322	0	898.540	0	11.6	4	3.6	4	-1E+10	1	-1E+10	1	-1E+10	1	-1E+10	1	-1E+10	1	-1E+10	1
4902551	65	C	05/29/2022	20:59	-131.205	48.877	0	913.10	0	3.3720	0	34.3340	0	27.325	0	903.377	0	11.6	4	3.6	4	-1E+10	1	-1E+10	1	-1E+10	1	-1E+10	1	-1E+10	1	-1E+10	1
4902551	65	C	05/29/2022	20:59	-131.205	48.877	0	918.10	0	3.3600	0	34.3370	0	27.328	0	908.313	0	11.6	4	3.6	4	-1E+10	1	-1E+10	1	-1E+10	1	-1E+10	1	-1E+10	1	-1E+10	1
4902551	65	C	05/29/2022	20:59	-131.205	48.877	0	923.10	0	3.3510	0	34.3380	0	27.330	0	913.249	0	11.6	4	3.6	4	-1E+10	1	-1E+10	1	-1E+10	1	-1E+10	1	-1E+10	1	-1E+10	1
4902551	65	C	05/29/2022	20:59	-131.205	48.877	0	928.20	0	3.3460	0	34.3390	0	27.331	0	918.283	0	11.6	4	3.6	4	-1E+10	1	-1E+10	1	-1E+10	1	-1E+10	1	-1E+10	1	-1E+10	1
4902551	65	C	05/29/2022	20:59	-131.205	48.877	0	933.00	0	3.3390	0	34.3400	0	27.333	0	923.022	0	11.6	4	3.6	4	-1E+10	1	-1E+10	1	-1E+10	1	-1E+10	1	-1E+10	1	-1E+10	1
4902551	65	C	05/29/2022	20:59	-131.205	48.877	0	937.80	0	3.3330	0	34.3430	0	27.336	0	927.760	0	11.6	4	3.6	4	-1E+10	1	-1E+10	1	-1E+10	1	-1E+10	1	-1E+10	1	-1E+10	1
4902551	65	C	05/29/2022	20:59	-131.205	48.877	0	942.80	0	3.3310	0	34.3440	0	27.337	0	932.695	0	11.6	4	3.6	4	-1E+10	1	-1E+10	1	-1E+10	1	-1E+10	1	-1E+10	1	-1E+10	1
4902551	65	C	05/29/2022	20:59	-131.205	48.877	0	948.00	0	3.3220	0	34.3480	0	27.341	0	937.828	0	11.6	4	3.6	4	-1E+10	1	-1E+10	1	-1E+10	1	-1E+10	1	-1E+10	1	-1E+10	1
4902551	65	C	05/29/2022	20:59	-131.205	48.877	0	953.20	0	3.3150	0	34.3530	0	27.346	0	942.960	0	11.6	4	3.6	4	-1E+10	1	-1E+10	1	-1E+10	1	-1E+10	1	-1E+10	1	-1E+10	1
4902551	65	C	05/29/2022	20:59	-131.205	48.877	0	958.10	0	3.3070	0	34.3530	0	27.346	0	947.796	0	11.6	4	3.6	4	-1E+10	1	-1E+10	1	-1E+10	1	-1E+10	1	-1E+10	1	-1E+10	1
4902551	65	C	05/29/2022	20:59	-131.205	48.877	0	963.00	0	3.3130	0	34.3570	0	27.349	0	952.633	0	11.5	4	3.6	4	-1E+10	1	-1E+10	1	-1E+10	1	-1E+10	1	-1E+10	1	-1E+10	1
4902551	65	C	05/29/2022	20:59	-131.205	48.877	0	968.00	0	3.3130	0	34.3630	0	27.354	0	957.567	0	11.5	4	3.6	4	-1E+10	1	-1E+10	1	-1E+10	1	-1E+10	1	-1E+10	1	-1E+10	1
4902551	65	C	05/29/2022	20:59	-131.205	48.877	0	973.00	0	3.3100	0	34.3650	0	27.356	0	962.502	0	11.6	4	3.6	4	-1E+10	1	-1E+10	1	-1E+10	1	-1E+10	1	-1E+10	1	-1E+10	1
4902551	65	C	05/29/2022	20:59	-131.205	48.877	0	978.20	0	3.3060	0	34.3650	0	27.356	0	967.634	0	11.6	4	3.6	4	-1E+10	1	-1E+10	1	-1E+10	1	-1E+10	1	-1E+10	1	-1E+10	1
4902551	65	C	05/29/2022	20:59	-131.205	48.877	0	982.90	0	3.2980	0	34.3680	0	27.359	0	972.272	0	11.6	4	3.6	4	-1E+10	1	-1E+10	1	-1E+10	1	-1E+10	1	-1E+10	1	-1E+10	1
4902551	65	C	05/29/2022	20:59	-131.205	48.877	0	987.50	0	3.2860	0	34.3680	0	27.361	0	976.812	0	11.7	4	3.6	4	-1E+10	1	-1E+10	1	-1E+10	1	-1E+10	1	-1E+10	1	-1E+10	1
4902551	65	C	05/29/2022	20:59	-131.205	48.877	0	992.80	0	3.2810	0	34.3700	0	27.363	0	982.042	0	11.7	4	3.6	4	-1E+10	1	-1E+10	1	-1E+10	1	-1E+10	1	-1E+10	1	-1E+10	1
4902551	65	C	05/29/2022	20:59	-131.205	48.877	0	998.00	0	3.2680	0	34.3720	0	27.366	0	987.173	0	11.8	4	3.7	4	-1E+10	1	-1E+10	1	-1E+10	1	-1E+10	1	-1E+10	1	-1E+10	1
4902551	65	C	05/29/2022	20:59	-131.205	48.877	0	1005.30	0	3.2390	0	34.3740	0	27.370	0	994.377	0	11.9	4	3.7	4	-1E+10	1	-1E+10	1	-1E+10	1	-1E+10	1	-1E+10	1	-1E+10	1
4902551	65	C	05/29/2022	20:59	-131.205	48.877	0	1015.40	0	3.1790	0	34.3760	0	27.377	0	1004.343	0	12.0	4	3.7	4	-1E+10	1	-1E+10	1	-1E+10	1	-1E+10	1	-1E+10	1	-1E+10	1
4902551	65	C	05/29/2022	20:59	-131.205	48.877	0	1025.50	0	3.1420	0	34.3750	0	27.380	0	1014.308	0	12.1	4	3.7	4	-1E+10	1	-1E+10	1	-1E+10	1	-1E+10	1	-1E+10	1	-1E+10	1
4902551	65	C	05/29/2022	20:59	-131.205	48.877	0	1035.30	0	3.1210	0	34.3740	0	27.381	0	1023.978	0	12.2	4	3.8	4	-1E+10	1	-1E+10	1	-1E+10	1	-1E+10	1	-1E+10	1	-1E+10	1
4902551	65	C	05/29/2022	20:59	-131.205	48.877	0	1045.30	0	3.0960	0	34.3780	0	27.386	0	1033.844	0	12.2	4	3.8	4	-1E+10	1	-1E+10	1	-1E+10	1	-1E+10	1	-1E+10	1	-1E+10	1
4902551	65	C	05/29/2022	20:59	-131.205	48.877	0	1055.40	0	3.0870	0	34.3830	0	27.391	0	1043.808	0	12.3	4	3.8	4	-1E+10	1	-1E+10	1	-1E+10	1	-1E+10	1	-1E+10	1	-1E+10	1
4902551	65	C	05/29/2022	20:59	-131.205	48.877	0	1065.60	0	3.0620	0	34.3870	0	27.397	0	1053.870	0	12.4	4	3.8	4	-1E+10	1	-1E+10	1	-1E+10	1	-1E+10	1	-1E+10	1	-1E+10	1
4902551	65	C	05/29/2022	20:59	-131.205	48.877	0	1075.40	0	3.0530	0	34.3890	0	27.399	0	1063.537	0	12.4	4	3.8	4	-1E+10	1	-1E+10	1	-1E+10	1	-1E+10	1	-1E+10	1	-1E+10	1
4902551	65	C	05/29/2022	20:59	-131.205	48.877	0	1085.10	0	3.0350	0	34.3900	0	27.402	0	1073.106	0	12.5	4	3.9	4	-1E+10	1	-1E+10	1	-1E+10	1	-1E+10	1	-1E+10	1	-1E+10	1
4902551	65	C	05/29/2022	20:59	-131.205	48.877	0	1095.30	0	3.0050	0	34.3940	0	27.408	0	1083.167	0	12.6	4	3.9	4	-1E+10	1	-1E+10	1	-1E+10	1	-1E+10	1	-1E+10	1	-1E+10	1
4902551	65	C	05/29/2022	20:59	-131.205	48.877	0	1105.40	0	2.9730	0	34.3970	0	27.413	0	1093.128	0	12.7	4	3.9	4	-1E+10	1	-1E+10	1	-1E+10	1	-1E+10	1	-1E+10	1	-1E+10	1
4902551	65	C	05/29/2022	20:59	-131.205	48.877	0	1115.50	0	2.9480	0	34.4010	0	27.419	0	1103.090	0	12.8	4	4.0	4	-1E+10	1	-1E+10	1	-1E+10	1	-1E+10	1	-1E+10	1	-1E+10	1
4902551	65	C	05/29/2022	20:59	-131.205	48.877	0	1125.50	0	2.9280	0	34.4040	0	27.423	0	1112.952	0	13.0	4	4.0	4	-1E+10	1	-1E+10	1	-1E+10	1	-1E+10	1	-1E+10	1	-1E+10	1
4902551	65	C	05/29/2022	20:59	-131.205	48.877	0	1135.20	0	2.9150	0	34.4060	0	27.426	0	1122.518	0	13.1	4	4.0	4	-1E+10	1	-1E+10	1	-1E+10	1	-1E+10	1	-1E+10	1	-1E+10	1
4902551	65	C	05/29/2022	20:59	-131.205	48.877	0	1145.40	0	2.9080	0	34.4110	0	27.430	0	1132.577	0	13.4	4	4.1	4	-1E+10	1	-1E+10	1	-1E+10	1	-1E+10	1	-1E+10	1	-1E+10	1
4902551	65	C	05/29/2022	20:59	-131.205	48.877	0	1155.50	0	2.8970	0	34.4160	0	27.435	0	1142.536	0	13.4	4	4.1	4	-1E+10	1	-1E+10	1	-1E+10	1	-1E+10	1	-1E+10	1	-1E+10	1
4902551	65	C	05/29/2022	20:59	-131.205	48.877	0	1165.50	0	2.8610	0	34.4160	0	27.439	0	1152.396	0	13.5	4	4.2	4	-1E+10	1	-1E+10	1	-1E+10	1	-1E+10	1	-1E+10	1	-1E+10	1
4902551	65	C	05/29/2022	20:59	-131.205	48.877	0	1175.60	0	2.8600	0	34.4200	0	27.442	0	1162.355	0	13.8	4	4.2	4	-1E+10	1	-1E+10	1	-1E+10	1	-1E+10	1	-1E+10	1	-1E+10	1
4902551	65	C	05/29/2022	20:59	-131.205	48.877	0	1185.40	0	2.8370	0	34.4250	0	27.448	0	1172.017	0	13.8	4	4.2	4	-1E+10	1	-1E+10	1	-1E+10	1	-1E+10	1	-1E+10	1	-1E+10	1
4902551	65	C	05/29/2022	20:59	-131.205	48.877	0	1195.30	0	2.7960	0	34.4250	0	27.452	0	1181.778	0	14.0	4	4.3	4	-1E+10	1	-1E+10	1	-1E+10	1	-1E+10	1	-1E+10	1	-1E+10	1
4902551	65	C	05/29/2022	20:59	-131.205	48.877	0	1205.20	0	2.7620	0	34.4300	0	27.459	0	1191.538	0	14.2	4	4.4	4	-1E+10	1	-1E+10	1	-1E+10	1	-1E+10	1	-1E+10	1	-1E+10	1
4902551	65	C	05/29/2022	20:59	-131.205	48.877	0	1215.20	0	2.7370	0	34.4330	0	27.463	0	1201.396	0	14.4	4	4.4	4	-1E+10	1	-1E+10	1	-1E+10	1	-1E+10	1	-1E+10	1	-1E+10	1
4902551	65	C	05/29/2022	20:59	-131.205	48.877	0	1225.60	0	2.7250	0	34.4350	0	27.466	0	1211.648	0	14.5	4	4.4	4	-1E+10	1	-1E+10	1	-1E+10	1	-1E+10	1	-1E+10	1	-1E+10	1
4902551	65	C	05/29/2022	20:59	-131.205	48.877	0	1235.50	0	2.7170	0	34.4370	0	27.468	0	1221.406	0	14.6	4	4.5	4	-1E+10	1	-1E+10	1	-1E+10	1	-1E+10	1	-1E+10	1	-1E+10	1
4902551	65	C	05/29/2022	20:59	-131.205	48.877	0	1245.10	0	2.7120	0	34.4380	0	27.470	0	1230.869	0	14.8	4	4.5	4	-1E+10	1	-1E+10	1	-1E+10	1	-1E+10	1	-1E+10	1	-1E+10	1
4902551	65	C	05/29/2022	20:59	-131.205	48.877	0	1255.30	0	2.7000	0	34.4400	0	27.472	0	1240.922	0	15.0	4	4.6	4	-1E+10	1	-1E+10	1	-1E+10	1	-1E+10	1	-1E+10	1	-1E+10	1
4902551	65	C	05/29/2022	20:59	-131.205	48.877	0	1265.60	0	2.6770	0	34.4450	0	27.478	0	1251.073	0	15.3	4	4.7	4	-1E+10	1	-1E+10	1	-1E+10	1	-1E+10	1	-1E+10	1	-1E+10	1
4902551	65	C	05/29/2022	20:59	-131.205	48.877	0	1275.60	0	2.6720	0	34.4460	0	27.480	0	1260.929	0	15.5	4	4.8	4	-1E+10	1	-1E+10	1	-1E+10	1	-1E+10	1	-1E+10	1	-1E+10	1
4902551	65	C	05/29/2022	20:59	-131.205	48.877	0	1285.10	0	2.6550	0	34.4490	0	27.484	0	1270.291	0	15.7	4	4.8	4	-1E+10	1	-1E+10	1	-1E+10	1	-1E+10	1	-1E+10	1	-1E+10	1
4902551	65	C	05/29/2022	20:59	-131.205	48.877	0	1295.10	0	2.6440	0	34.4500	0	27.485	0	1280.145	0	15.9	4	4.9	4	-1E+10	1	-1E+10	1	-1E+10	1	-1E+10	1	-1E+10	1	-1E+10	1
4902551	65	C	05/29/2022	20:59	-131.205	48.877	0	1305.10	0	2.6300	0	34.4530	0	27.489	0	1289.999	0	16.2	4	5.0	4	-1E+10	1	-1E+10	1	-1E+10	1	-1E+10	1	-1E+10	1	-1E+10	1
4902551	65	C	05/29/2022	20:59	-131.205	48.877	0	1315.20	0	2.6230	0	34.4550	0	27.491	0	1299.951	0	16.6	4	5.1	4	-1E+10	1	-1E+10	1	-1E+10	1	-1E+10	1	-1E+10	1	-1E+10	1
4902551	65	C	05/29/2022	20:59	-131.205	48.877	0	1325.40	0	2.6100	0	34.4590	0	27.496	0	1310.001	0	16.9	4	5.2	4	-1E+10	1	-1E+10	1	-1E+10	1	-1E+10	1	-1E+10	1	-1E+10	1
4902551	65	C	05/29/2022	20:59	-131.205	48.877	0	1335.50	0	2.5880	0	34.4610	0	27.499	0	1319.952	0	17.1	4	5.2	4	-1E+10	1	-1E+10	1	-1E+10	1	-1E+10	1	-1E+10	1	-1E+10	1
4902551	65	C	05/29/2022	20:59	-131.205	48.877	0	1345.40	0	2.5760	0	34.4630	0	27.502	0	1329.706	0	17.5	4	5.3	4	-1E+10	1	-1E+10	1	-1E+10	1	-1E+10	1	-1E+10	1	-1E+10	1
4902551	65	C	05/29/2022	20:59	-131.205	48.877	0	1355.40	0	2.5620	0	34.4660	0	27.505	0	1339.557	0	18.1	4	5.5	4	-1E+10	1	-1E+10	1	-1E+10	1	-1E+10	1	-1E+10	1	-1E+10	1
4902551	65	C	05/29/2022	20:59	-131.205	48.877	0	1365.60	0	2.5450	0	34.4710	0	27.511	0	1349.605	0	18.9	4	5.8	4	-1E+10	1	-1E+10	1	-1E+10	1	-1E+10	1	-1E+10	1	-1E+10	1
4902551	65	C	05/29/2022	20:59	-131.205	48.877	0	1375.50	0	2.5300	0	34.4740	0	27.515	0	1359.358	0	19.2	4	5.9	4	-1E+10	1	-1E+10	1	-1E+10	1	-1E+10	1	-1E+10	1	-1E+10	1
4902551	65	C	05/29/2022	20:59	-131.205	48.877	0	1385.20	0	2.5140	0	34.4770	0	27.518	0	1368.912	0	19.5	4	6.0	4	-1E+10	1	-1E+10	1	-1E+10	1	-1E+10	1	-1E+10	1	-1E+10	1
4902551	65	C	05/29/2022	20:59	-131.205	48.877	0	1395.20	0	2.5050	0	34.4780	0	27.520	0	1378.762	0	19.7	4	6.0	4	-1E+10	1	-1E+10	1	-1E+10	1	-1E+10	1	-1E+10	1	-1E+10	1
4902551	65	C	05/29/2022	20:59	-131.205	48.877	0	1405.10	0	2.4910	0	34.4800	0	27.523	0	1388.513	0	20.0	4	6.1	4	-1E+10	1	-1E+10	1	-1E+10	1	-1E+10	1	-1E+10	1	-1E+10	1
4902551	65	C	05/29/2022	20:59	-131.205	48.877	0	1415.00	0	2.4820	0	34.4810	0	27.524	0	1398.263	0	20.4	4	6.2	4	-1E+10	1	-1E+10	1	-1E+10	1	-1E+10	1	-1E+10	1	-1E+10	1
4902551	65	C	05/29/2022	20:59	-131.205	48.877	0	1425.00	0	2.4720	0	34.4830	0	27.527	0	1408.112	0	21.0	4	6.4	4	-1E+10	1	-1E+10	1	-1E+10	1	-1E+10	1	-1E+10	1	-1E+10	1
4902551	65	C	05/29/2022	20:59	-131.205	48.877	0	1435.20	0	2.4560	0	34.4870	0	27.532	0	1418.156	0	21.8	4	6.6	4	-1E+10	1	-1E+10	1	-1E+10	1	-1E+10	1	-1E+10	1	-1E+10	1
4902551	65	C	05/29/2022	20:59	-131.205	48.877	0	1445.20	0	2.4430	0	34.4900	0	27.535	0	1428.004	0	22.4	4	6.8	4	-1E+10	1	-1E+10	1	-1E+10	1	-1E+10	1	-1E+10	1	-1E+10	1
4902551	65	C	05/29/2022	20:59	-131.205	48.877	0	1455.20	0	2.4200	0	34.4940	0	27.540	0	1437.851	0	23.2	4	7.1	4	-1E+10	1	-1E+10	1	-1E+10	1	-1E+10	1	-1E+10	1	-1E+10	1
4902551	65	C	05/29/2022	20:59	-131.205	48.877	0	1465.10	0	2.4010	0	34.4970	0	27.544	0	1447.599	0	23.8	4	7.2	4	-1E+10	1	-1E+10	1	-1E+10	1	-1E+10	1	-1E+10	1	-1E+10	1
4902551	65	C	05/29/2022	20:59	-131.205	48.877	0	1475.50	0	2.3900	0	34.4990	0	27.547	0	1457.839	0	24.3	4	7.4	4	-1E+10	1	-1E+10	1	-1E+10	1	-1E+10	1	-1E+10	1	-1E+10	1
4902551	65	C	05/29/2022	20:59	-131.205	48.877	0	1485.30	0	2.3800	0	34.5010	0	27.549	0	1467.488	0	24.7	4	7.5	4	-1E+10	1	-1E+10	1	-1E+10	1	-1E+10	1	-1E+10	1	-1E+10	1
4902551	65	C	05/29/2022	20:59	-131.205	48.877	0	1495.30	0	2.3660	0	34.5040	0	27.553	0	1477.333	0	25.3	4	7.7	4	-1E+10	1	-1E+10	1	-1E+10	1	-1E+10	1	-1E+10	1	-1E+10	1
4902551	65	C	05/29/2022	20:59	-131.205	48.877	0	1505.00	0	2.3550	0	34.5050	0	27.555	0	1486.882	0	25.9	4	7.9	4	-1E+10	1	-1E+10	1	-1E+10	1	-1E+10	1	-1E+10	1	-1E+10	1
4902551	65	C	05/29/2022	20:59	-131.205	48.877	0	1515.10	0	2.3420	0	34.5080	0	27.558	0	1496.825	0	26.4	4	8.0	4	-1E+10	1	-1E+10	1	-1E+10	1	-1E+10	1	-1E+10	1	-1E+10	1
4902551	65	C	05/29/2022	20:59	-131.205	48.877	0	1525.30	0	2.3350	0	34.5090	0	27.560	0	1506.865	0	26.9	4	8.2	4	-1E+10	1	-1E+10	1	-1E+10	1	-1E+10	1	-1E+10	1	-1E+10	1
4902551	65	C	05/29/2022	20:59	-131.205	48.877	0	1535.40	0	2.3260	0	34.5110	0	27.562	0	1516.807	0	27.3	4	8.3	4	-1E+10	1	-1E+10	1	-1E+10	1	-1E+10	1	-1E+10	1	-1E+10	1
4902551	65	C	05/29/2022	20:59	-131.205	48.877	0	1545.60	0	2.3230	0	34.5120	0	27.563	0	1526.847	0	27.7	4	8.4	4	-1E+10	1	-1E+10	1	-1E+10	1	-1E+10	1	-1E+10	1	-1E+10	1
4902551	65	C	05/29/2022	20:59	-131.205	48.877	0	1555.50	0	2.3150	0	34.5140	0	27.565	0	1536.591	0	28.4	4	8.6	4	-1E+10	1	-1E+10	1	-1E+10	1	-1E+10	1	-1E+10	1	-1E+10	1
4902551	65	C	05/29/2022	20:59	-131.205	48.877	0	1565.20	0	2.3070	0	34.5160	0	27.568	0	1546.137	0	28.9	4	8.8	4	-1E+10	1	-1E+10	1	-1E+10	1	-1E+10	1	-1E+10	1	-1E+10	1
4902551	65	C	05/29/2022	20:59	-131.205	48.877	0	1575.50	0	2.2940	0	34.5180	0	27.570	0	1556.274	0	29.6	4	9.0	4	-1E+10	1	-1E+10	1	-1E+10	1	-1E+10	1	-1E+10	1	-1E+10	1
4902551	65	C	05/29/2022	20:59	-131.205	48.877	0	1585.70	0	2.2890	0	34.5200	0	27.573	0	1566.312	0	30.3	4	9.2	4	-1E+10	1	-1E+10	1	-1E+10	1	-1E+10	1	-1E+10	1	-1E+10	1
4902551	65	C	05/29/2022	20:59	-131.205	48.877	0	1595.40	0	2.2850	0	34.5220	0	27.575	0	1575.857	0	30.9	4	9.4	4	-1E+10	1	-1E+10	1	-1E+10	1	-1E+10	1	-1E+10	1	-1E+10	1
4902551	65	C	05/29/2022	20:59	-131.205	48.877	0	1605.50	0	2.2710	0	34.5230	0	27.576	0	1585.796	0	32.0	4	9.7	4	-1E+10	1	-1E+10	1	-1E+10	1	-1E+10	1	-1E+10	1	-1E+10	1
4902551	65	C	05/29/2022	20:59	-131.205	48.877	0	1615.70	0	2.2650	0	34.5270	0	27.580	0	1595.832	0	33.3	4	10.1	4	-1E+10	1	-1E+10	1	-1E+10	1	-1E+10	1	-1E+10	1	-1E+10	1
4902551	65	C	05/29/2022	20:59	-131.205	48.877	0	1625.50	0	2.2580	0	34.5290	0	27.582	0	1605.474	0	33.6	4	10.2	4	-1E+10	1	-1E+10	1	-1E+10	1	-1E+10	1	-1E+10	1	-1E+10	1
4902551	65	C	05/29/2022	20:59	-131.205	48.877	0	1635.30	0	2.2470	0	34.5300	0	27.584	0	1615.116	0	33.9	4	10.3	4	-1E+10	1	-1E+10	1	-1E+10	1	-1E+10	1	-1E+10	1	-1E+10	1
4902551	65	C	05/29/2022	20:59	-131.205	48.877	0	1645.50	0	2.2420	0	34.5310	0	27.585	0	1625.151	0	35.1	4	10.6	4	-1E+10	1	-1E+10	1	-1E+10	1	-1E+10	1	-1E+10	1	-1E+10	1
4902551	65	C	05/29/2022	20:59	-131.205	48.877	0	1655.70	0	2.2330	0	34.5340	0	27.589	0	1635.186	0	35.9	4	10.9	4	-1E+10	1	-1E+10	1	-1E+10	1	-1E+10	1	-1E+10	1	-1E+10	1
4902551	65	C	05/29/2022	20:59	-131.205	48.877	0	1665.50	0	2.2270	0	34.5350	0	27.590	0	1644.826	0	36.3	4	11.0	4	-1E+10	1	-1E+10	1	-1E+10	1	-1E+10	1	-1E+10	1	-1E+10	1
4902551	65	C	05/29/2022	20:59	-131.205	48.877	0	1675.40	0	2.2210	0	34.5360	0	27.591	0	1654.565	0	36.9	4	11.2	4	-1E+10	1	-1E+10	1	-1E+10	1	-1E+10	1	-1E+10	1	-1E+10	1
4902551	65	C	05/29/2022	20:59	-131.205	48.877	0	1685.30	0	2.2070	0	34.5390	0	27.595	0	1664.303	0	37.7	4	11.4	4	-1E+10	1	-1E+10	1	-1E+10	1	-1E+10	1	-1E+10	1	-1E+10	1
4902551	65	C	05/29/2022	20:59	-131.205	48.877	0	1695.60	0	2.1940	0	34.5410	0	27.598	0	1674.434	0	38.3	4	11.6	4	-1E+10	1	-1E+10	1	-1E+10	1	-1E+10	1	-1E+10	1	-1E+10	1
4902551	65	C	05/29/2022	20:59	-131.205	48.877	0	1705.50	0	2.1830	0	34.5430	0	27.600	0	1684.171	0	38.8	4	11.8	4	-1E+10	1	-1E+10	1	-1E+10	1	-1E+10	1	-1E+10	1	-1E+10	1
4902551	65	C	05/29/2022	20:59	-131.205	48.877	0	1715.20	0	2.1730	0	34.5440	0	27.602	0	1693.711	0	39.4	4	11.9	4	-1E+10	1	-1E+10	1	-1E+10	1	-1E+10	1	-1E+10	1	-1E+10	1
4902551	65	C	05/29/2022	20:59	-131.205	48.877	0	1725.10	0	2.1650	0	34.5460	0	27.604	0	1703.447	0	40.1	4	12.1	4	-1E+10	1	-1E+10	1	-1E+10	1	-1E+10	1	-1E+10	1	-1E+10	1
4902551	65	C	05/29/2022	20:59	-131.205	48.877	0	1735.30	0	2.1520	0	34.5480	0	27.607	0	1713.478	0	40.8	4	12.4	4	-1E+10	1	-1E+10	1	-1E+10	1	-1E+10	1	-1E+10	1	-1E+10	1
4902551	65	C	05/29/2022	20:59	-131.205	48.877	0	1745.70	0	2.1430	0	34.5490	0	27.608	0	1723.705	0	41.4	4	12.5	4	-1E+10	1	-1E+10	1	-1E+10	1	-1E+10	1	-1E+10	1	-1E+10	1
4902551	65	C	05/29/2022	20:59	-131.205	48.877	0	1755.50	0	2.1240	0	34.5530	0	27.613	0	1733.342	0	42.2	4	12.8	4	-1E+10	1	-1E+10	1	-1E+10	1	-1E+10	1	-1E+10	1	-1E+10	1
4902551	65	C	05/29/2022	20:59	-131.205	48.877	0	1765.10	0	2.1150	0	34.5540	0	27.615	0	1742.781	0	42.7	4	12.9	4	-1E+10	1	-1E+10	1	-1E+10	1	-1E+10	1	-1E+10	1	-1E+10	1
4902551	65	C	05/29/2022	20:59	-131.205	48.877	0	1775.40	0	2.1080	0	34.5550	0	27.616	0	1752.909	0	43.2	4	13.1	4	-1E+10	1	-1E+10	1	-1E+10	1	-1E+10	1	-1E+10	1	-1E+10	1
4902551	65	C	05/29/2022	20:59	-131.205	48.877	0	1785.70	0	2.1040	0	34.5560	0	27.617	0	1763.035	0	43.5	4	13.2	4	-1E+10	1	-1E+10	1	-1E+10	1	-1E+10	1	-1E+10	1	-1E+10	1
4902551	65	C	05/29/2022	20:59	-131.205	48.877	0	1795.80	0	2.1000	0	34.5570	0	27.618	0	1772.965	0	43.8	4	13.2	4	-1E+10	1	-1E+10	1	-1E+10	1	-1E+10	1	-1E+10	1	-1E+10	1
4902551	65	C	05/29/2022	20:59	-131.205	48.877	0	1805.50	0	2.0990	0	34.5570	0	27.619	0	1782.501	0	44.2	4	13.4	4	-1E+10	1	-1E+10	1	-1E+10	1	-1E+10	1	-1E+10	1	-1E+10	1
4902551	65	C	05/29/2022	20:59	-131.205	48.877	0	1815.40	0	2.0910	0	34.5590	0	27.621	0	1792.233	0	45.0	4	13.6	4	-1E+10	1	-1E+10	1	-1E+10	1	-1E+10	1	-1E+10	1	-1E+10	1
4902551	65	C	05/29/2022	20:59	-131.205	48.877	0	1825.50	0	2.0820	0	34.5610	0	27.623	0	1802.161	0	45.6	4	13.8	4	-1E+10	1	-1E+10	1	-1E+10	1	-1E+10	1	-1E+10	1	-1E+10	1
4902551	65	C	05/29/2022	20:59	-131.205	48.877	0	1835.10	0	2.0750	0	34.5620	0	27.625	0	1811.598	0	46.2	4	13.9	4	-1E+10	1	-1E+10	1	-1E+10	1	-1E+10	1	-1E+10	1	-1E+10	1
4902551	65	C	05/29/2022	20:59	-131.205	48.877	0	1845.30	0	2.0670	0	34.5630	0	27.626	0	1821.623	0	46.8	4	14.1	4	-1E+10	1	-1E+10	1	-1E+10	1	-1E+10	1	-1E+10	1	-1E+10	1
4902551	65	C	05/29/2022	20:59	-131.205	48.877	0	1855.60	0	2.0560	0	34.5650	0	27.629	0	1831.747	0	47.5	4	14.3	4	-1E+10	1	-1E+10	1	-1E+10	1	-1E+10	1	-1E+10	1	-1E+10	1
4902551	65	C	05/29/2022	20:59	-131.205	48.877	0	1865.30	0	2.0440	0	34.5670	0	27.631	0	1841.280	0	48.3	4	14.6	4	-1E+10	1	-1E+10	1	-1E+10	1	-1E+10	1	-1E+10	1	-1E+10	1
4902551	65	C	05/29/2022	20:59	-131.205	48.877	0	1875.50	0	2.0350	0	34.5690	0	27.634	0	1851.305	0	48.7	4	14.7	4	-1E+10	1	-1E+10	1	-1E+10	1	-1E+10	1	-1E+10	1	-1E+10	1
4902551	65	C	05/29/2022	20:59	-131.205	48.877	0	1885.40	0	2.0310	0	34.5700	0	27.635	0	1861.034	0	49.1	4	14.8	4	-1E+10	1	-1E+10	1	-1E+10	1	-1E+10	1	-1E+10	1	-1E+10	1
4902551	65	C	05/29/2022	20:59	-131.205	48.877	0	1895.40	0	2.0260	0	34.5710	0	27.636	0	1870.860	0	49.7	4	15.0	4	-1E+10	1	-1E+10	1	-1E+10	1	-1E+10	1	-1E+10	1	-1E+10	1
4902551	65	C	05/29/2022	20:59	-131.205	48.877	0	1905.10	0	2.0190	0	34.5720	0	27.637	0	1880.392	0	50.2	4	15.2	4	-1E+10	1	-1E+10	1	-1E+10	1	-1E+10	1	-1E+10	1	-1E+10	1
4902551	65	C	05/29/2022	20:59	-131.205	48.877	0	1915.30	0	2.0090	0	34.5740	0	27.640	0	1890.414	0	51.3	4	15.5	4	-1E+10	1	-1E+10	1	-1E+10	1	-1E+10	1	-1E+10	1	-1E+10	1
4902551	65	C	05/29/2022	20:59	-131.205	48.877	0	1925.40	0	1.9880	0	34.5770	0	27.644	0	1900.338	0	52.1	4	15.7	4	-1E+10	1	-1E+10	1	-1E+10	1	-1E+10	1	-1E+10	1	-1E+10	1
4902551	65	C	05/29/2022	20:59	-131.205	48.877	0	1935.40	0	1.9840	0	34.5780	0	27.645	0	1910.163	0	52.4	4	15.8	4	-1E+10	1	-1E+10	1	-1E+10	1	-1E+10	1	-1E+10	1	-1E+10	1
4902551	65	C	05/29/2022	20:59	-131.205	48.877	0	1945.70	0	1.9810	0	34.5780	0	27.645	0	1920.282	0	52.7	4	15.9	4	-1E+10	1	-1E+10	1	-1E+10	1	-1E+10	1	-1E+10	1	-1E+10	1
4902551	65	C	05/29/2022	20:59	-131.205	48.877	0	1955.70	0	1.9710	0	34.5800	0	27.648	0	1930.106	0	53.2	4	16.0	4	-1E+10	1	-1E+10	1	-1E+10	1	-1E+10	1	-1E+10	1	-1E+10	1
4902551	65	C	05/29/2022	20:59	-131.205	48.877	0	1965.80	0	1.9650	0	34.5810	0	27.649	0	1940.028	0	53.3	4	16.0	4	-1E+10	1	-1E+10	1	-1E+10	1	-1E+10	1	-1E+10	1	-1E+10	1
4902551	65	C	05/29/2022	20:59	-131.205	48.877	0	1972.10	0	1.9620	0	34.5820	0	27.650	0	1946.217	0	53.0	4	16.0	4	-1E+10	1	-1E+10	1	-1E+10	1	-1E+10	1	-1E+10	1	-1E+10	1
4902551	65	C	05/29/2022	20:59	-131.205	48.877	0																										
4902551	66	C	06/09/2022	01:58	-131.465	48.953	0	0.20	0	10.2840	0	32.2230	0	24.737	0	0.198	0	271.2	4	97.4	4	-1E+10	1	-1E+10	1	-1E+10	1	-1E+10	1	-1E+10	1	-1E+10	1
4902551	66	C	06/09/2022	01:58	-131.465	48.953	0	0.30	0	10.2840	0	32.2220	0	24.737	0	0.297	0	-1e10	1	-1e10	1	-1E+10	1	-1E+10	1	-1E+10	1	-1E+10	1	-1E+10	1	-1E+10	1
4902551	66	C	06/09/2022	01:58	-131.465	48.953	0	0.40	0	10.2810	0	32.2190	0	24.735	0	0.397	0	271.2	4	97.4	4	-1E+10	1	-1E+10	1	-1E+10	1	-1E+10	1	-1E+10	1	-1E+10	1
4902551	66	C	06/09/2022	01:58	-131.465	48.953	0	1.00	0	10.2810	0	32.2200	0	24.735	0	0.992	0	271.1	4	97.4	4	-1E+10	1	-1E+10	1	-1E+10	1	-1E+10	1	-1E+10	1	-1E+10	1
4902551	66	C	06/09/2022	01:58	-131.465	48.953	0	1.20	0	10.2810	0	32.2200	0	24.735	0	1.190	0	271.2	4	97.4	4	-1E+10	1	-1E+10	1	-1E+10	1	-1E+10	1	-1E+10	1	-1E+10	1
4902551	66	C	06/09/2022	01:58	-131.465	48.953	0	1.90	0	10.2810	0	32.2200	0	24.735	0	1.884	0	271.2	4	97.4	4	-1E+10	1	-1E+10	1	-1E+10	1	-1E+10	1	-1E+10	1	-1E+10	1
4902551	66	C	06/09/2022	01:58	-131.465	48.953	0	3.10	0	10.2810	0	32.2200	0	24.736	0	3.074	0	271.1	4	97.4	4	-1E+10	1	-1E+10	1	-1E+10	1	-1E+10	1	-1E+10	1	-1E+10	1
4902551	66	C	06/09/2022	01:58	-131.465	48.953	0	3.90	0	10.2790	0	32.2220	0	24.737	0	3.867	0	271.1	4	97.3	4	-1E+10	1	-1E+10	1	-1E+10	1	-1E+10	1	-1E+10	1	-1E+10	1
4902551	66	C	06/09/2022	01:58	-131.465	48.953	0	4.90	0	10.2770	0	32.2250	0	24.740	0	4.858	0	271.0	4	97.3	4	-1E+10	1	-1E+10	1	-1E+10	1	-1E+10	1	-1E+10	1	-1E+10	1
4902551	66	C	06/09/2022	01:58	-131.465	48.953	0	5.90	0	10.2770	0	32.2250	0	24.740	0	5.850	0	271.0	4	97.3	4	-1E+10	1	-1E+10	1	-1E+10	1	-1E+10	1	-1E+10	1	-1E+10	1
4902551	66	C	06/09/2022	01:58	-131.465	48.953	0	7.10	0	10.2770	0	32.2250	0	24.740	0	7.040	0	271.0	4	97.3	4	-1E+10	1	-1E+10	1	-1E+10	1	-1E+10	1	-1E+10	1	-1E+10	1
4902551	66	C	06/09/2022	01:58	-131.465	48.953	0	8.00	0	10.2770	0	32.2250	0	24.740	0	7.932	0	271.0	4	97.3	4	-1E+10	1	-1E+10	1	-1E+10	1	-1E+10	1	-1E+10	1	-1E+10	1
4902551	66	C	06/09/2022	01:58	-131.465	48.953	0	8.90	0	10.2770	0	32.2250	0	24.740	0	8.824	0	271.0	4	97.3	4	-1E+10	1	-1E+10	1	-1E+10	1	-1E+10	1	-1E+10	1	-1E+10	1
4902551	66	C	06/09/2022	01:58	-131.465	48.953	0	9.80	0	10.2770	0	32.2250	0	24.740	0	9.717	0	271.0	4	97.3	4	-1E+10	1	-1E+10	1	-1E+10	1	-1E+10	1	-1E+10	1	-1E+10	1
4902551	66	C	06/09/2022	01:58	-131.465	48.953	0	11.10	0	10.2760	0	32.2240	0	24.740	0	11.006	0	271.1	4	97.3	4	-1E+10	1	-1E+10	1	-1E+10	1	-1E+10	1	-1E+10	1	-1E+10	1
4902551	66	C	06/09/2022	01:58	-131.465	48.953	0	12.00	0	10.2770	0	32.2240	0	24.739	0	11.898	0	271.1	4	97.4	4	-1E+10	1	-1E+10	1	-1E+10	1	-1E+10	1	-1E+10	1	-1E+10	1
4902551	66	C	06/09/2022	01:58	-131.465	48.953	0	12.90	0	10.2650	0	32.2250	0	24.742	0	12.790	0	271.2	4	97.4	4	-1E+10	1	-1E+10	1	-1E+10	1	-1E+10	1	-1E+10	1	-1E+10	1
4902551	66	C	06/09/2022	01:58	-131.465	48.953	0	14.00	0	10.2460	0	32.2250	0	24.745	0	13.881	0	271.4	4	97.4	4	-1E+10	1	-1E+10	1	-1E+10	1	-1E+10	1	-1E+10	1	-1E+10	1
4902551	66	C	06/09/2022	01:58	-131.465	48.953	0	15.10	0	10.2230	0	32.2260	0	24.750	0	14.971	0	271.9	4	97.5	4	-1E+10	1	-1E+10	1	-1E+10	1	-1E+10	1	-1E+10	1	-1E+10	1
4902551	66	C	06/09/2022	01:58	-131.465	48.953	0	16.00	0	10.1790	0	32.2270	0	24.758	0	15.864	0	272.4	4	97.6	4	-1E+10	1	-1E+10	1	-1E+10	1	-1E+10	1	-1E+10	1	-1E+10	1
4902551	66	C	06/09/2022	01:58	-131.465	48.953	0	16.80	0	10.1100	0	32.2300	0	24.772	0	16.657	0	273.2	4	97.8	4	-1E+10	1	-1E+10	1	-1E+10	1	-1E+10	1	-1E+10	1	-1E+10	1
4902551	66	C	06/09/2022	01:58	-131.465	48.953	0	18.00	0	9.9910	0	32.2340	0	24.795	0	17.847	0	274.0	4	97.8	4	-1E+10	1	-1E+10	1	-1E+10	1	-1E+10	1	-1E+10	1	-1E+10	1
4902551	66	C	06/09/2022	01:58	-131.465	48.953	0	19.00	0	9.9460	0	32.2390	0	24.806	0	18.838	0	274.6	4	97.9	4	-1E+10	1	-1E+10	1	-1E+10	1	-1E+10	1	-1E+10	1	-1E+10	1
4902551	66	C	06/09/2022	01:58	-131.465	48.953	0	20.00	0	9.8920	0	32.2380	0	24.814	0	19.829	0	275.1	4	98.0	4	-1E+10	1	-1E+10	1	-1E+10	1	-1E+10	1	-1E+10	1	-1E+10	1
4902551	66	C	06/09/2022	01:58	-131.465	48.953	0	21.20	0	9.8320	0	32.2440	0	24.829	0	21.019	0	275.6	4	98.0	4	-1E+10	1	-1E+10	1	-1E+10	1	-1E+10	1	-1E+10	1	-1E+10	1
4902551	66	C	06/09/2022	01:58	-131.465	48.953	0	21.90	0	9.7640	0	32.2480	0	24.843	0	21.713	0	276.1	4	98.1	4	-1E+10	1	-1E+10	1	-1E+10	1	-1E+10	1	-1E+10	1	-1E+10	1
4902551	66	C	06/09/2022	01:58	-131.465	48.953	0	23.10	0	9.7260	0	32.2400	0	24.843	0	22.903	0	276.5	4	98.1	4	-1E+10	1	-1E+10	1	-1E+10	1	-1E+10	1	-1E+10	1	-1E+10	1
4902551	66	C	06/09/2022	01:58	-131.465	48.953	0	23.80	0	9.7070	0	32.2430	0	24.849	0	23.597	0	277.0	4	98.3	4	-1E+10	1	-1E+10	1	-1E+10	1	-1E+10	1	-1E+10	1	-1E+10	1
4902551	66	C	06/09/2022	01:58	-131.465	48.953	0	24.80	0	9.6050	0	32.2480	0	24.869	0	24.588	0	277.5	4	98.2	4	-1E+10	1	-1E+10	1	-1E+10	1	-1E+10	1	-1E+10	1	-1E+10	1
4902551	66	C	06/09/2022	01:58	-131.465	48.953	0	25.90	0	9.5130	0	32.2540	0	24.889	0	25.679	0	278.1	4	98.2	4	-1E+10	1	-1E+10	1	-1E+10	1	-1E+10	1	-1E+10	1	-1E+10	1
4902551	66	C	06/09/2022	01:58	-131.465	48.953	0	27.10	0	9.4530	0	32.2580	0	24.901	0	26.868	0	278.4	4	98.2	4	-1E+10	1	-1E+10	1	-1E+10	1	-1E+10	1	-1E+10	1	-1E+10	1
4902551	66	C	06/09/2022	01:58	-131.465	48.953	0	28.00	0	9.4250	0	32.2500	0	24.899	0	27.761	0	278.7	4	98.3	4	-1E+10	1	-1E+10	1	-1E+10	1	-1E+10	1	-1E+10	1	-1E+10	1
4902551	66	C	06/09/2022	01:58	-131.465	48.953	0	29.20	0	9.3480	0	32.2590	0	24.919	0	28.950	0	279.0	4	98.2	4	-1E+10	1	-1E+10	1	-1E+10	1	-1E+10	1	-1E+10	1	-1E+10	1
4902551	66	C	06/09/2022	01:58	-131.465	48.953	0	30.00	0	9.3160	0	32.2500	0	24.917	0	29.743	0	279.4	4	98.3	4	-1E+10	1	-1E+10	1	-1E+10	1	-1E+10	1	-1E+10	1	-1E+10	1
4902551	66	C	06/09/2022	01:58	-131.465	48.953	0	31.00	0	9.2390	0	32.2620	0	24.938	0	30.735	0	279.7	4	98.2	4	-1E+10	1	-1E+10	1	-1E+10	1	-1E+10	1	-1E+10	1	-1E+10	1
4902551	66	C	06/09/2022	01:58	-131.465	48.953	0	32.10	0	9.1600	0	32.2540	0	24.944	0	31.825	0	280.1	4	98.2	4	-1E+10	1	-1E+10	1	-1E+10	1	-1E+10	1	-1E+10	1	-1E+10	1
4902551	66	C	06/09/2022	01:58	-131.465	48.953	0	32.90	0	9.1340	0	32.2570	0	24.951	0	32.618	0	280.4	4	98.2	4	-1E+10	1	-1E+10	1	-1E+10	1	-1E+10	1	-1E+10	1	-1E+10	1
4902551	66	C	06/09/2022	01:58	-131.465	48.953	0	34.10	0	8.9560	0	32.2680	0	24.987	0	33.808	0	281.0	4	98.1	4	-1E+10	1	-1E+10	1	-1E+10	1	-1E+10	1	-1E+10	1	-1E+10	1
4902551	66	C	06/09/2022	01:58	-131.465	48.953	0	35.00	0	8.7730	0	32.2760	0	25.021	0	34.700	0	281.4	4	97.8	4	-1E+10	1	-1E+10	1	-1E+10	1	-1E+10	1	-1E+10	1	-1E+10	1
4902551	66	C	06/09/2022	01:58	-131.465	48.953	0	35.90	0	8.6910	0	32.2700	0	25.029	0	35.593	0	281.3	4	97.6	4	-1E+10	1	-1E+10	1	-1E+10	1	-1E+10	1	-1E+10	1	-1E+10	1
4902551	66	C	06/09/2022	01:58	-131.465	48.953	0	37.20	0	8.5980	0	32.2720	0	25.045	0	36.881	0	281.1	4	97.3	4	-1E+10	1	-1E+10	1	-1E+10	1	-1E+10	1	-1E+10	1	-1E+10	1
4902551	66	C	06/09/2022	01:58	-131.465	48.953	0	37.90	0	8.5310	0	32.2740	0	25.056	0	37.575	0	281.0	4	97.2	4	-1E+10	1	-1E+10	1	-1E+10	1	-1E+10	1	-1E+10	1	-1E+10	1
4902551	66	C	06/09/2022	01:58	-131.465	48.953	0	39.20	0	8.4440	0	32.2820	0	25.076	0	38.864	0	280.6	4	96.8	4	-1E+10	1	-1E+10	1	-1E+10	1	-1E+10	1	-1E+10	1	-1E+10	1
4902551	66	C	06/09/2022	01:58	-131.465	48.953	0	40.00	0	8.3770	0	32.2810	0	25.085	0	39.657	0	280.4	4	96.6	4	-1E+10	1	-1E+10	1	-1E+10	1	-1E+10	1	-1E+10	1	-1E+10	1
4902551	66	C	06/09/2022	01:58	-131.465	48.953	0	41.20	0	8.3010	0	32.2800	0	25.095	0	40.847	0	280.1	4	96.4	4	-1E+10	1	-1E+10	1	-1E+10	1	-1E+10	1	-1E+10	1	-1E+10	1
4902551	66	C	06/09/2022	01:58	-131.465	48.953	0	42.10	0	8.2610	0	32.2790	0	25.100	0	41.739	0	279.8	4	96.2	4	-1E+10	1	-1E+10	1	-1E+10	1	-1E+10	1	-1E+10	1	-1E+10	1
4902551	66	C	06/09/2022	01:58	-131.465	48.953	0	42.90	0	8.2390	0	32.2780	0	25.103	0	42.532	0	279.5	4	96.0	4	-1E+10	1	-1E+10	1	-1E+10	1	-1E+10	1	-1E+10	1	-1E+10	1
4902551	66	C	06/09/2022	01:58	-131.465	48.953	0	44.20	0	8.2160	0	32.2810	0	25.109	0	43.821	0	278.8	4	95.7	4	-1E+10	1	-1E+10	1	-1E+10	1	-1E+10	1	-1E+10	1	-1E+10	1
4902551	66	C	06/09/2022	01:58	-131.465	48.953	0	45.00	0	8.1770	0	32.2810	0	25.114	0	44.614	0	278.5	4	95.6	4	-1E+10	1	-1E+10	1	-1E+10	1	-1E+10	1	-1E+10	1	-1E+10	1
4902551	66	C	06/09/2022	01:58	-131.465	48.953	0	46.10	0	8.1400	0	32.2860	0	25.124	0	45.704	0	278.1	4	95.3	4	-1E+10	1	-1E+10	1	-1E+10	1	-1E+10	1	-1E+10	1	-1E+10	1
4902551	66	C	06/09/2022	01:58	-131.465	48.953	0	47.00	0	8.1200	0	32.2830	0	25.124	0	46.596	0	277.9	4	95.2	4	-1E+10	1	-1E+10	1	-1E+10	1	-1E+10	1	-1E+10	1	-1E+10	1
4902551	66	C	06/09/2022	01:58	-131.465	48.953	0	47.90	0	8.0970	0	32.2880	0	25.131	0	47.488	0	277.6	4	95.1	4	-1E+10	1	-1E+10	1	-1E+10	1	-1E+10	1	-1E+10	1	-1E+10	1
4902551	66	C	06/09/2022	01:58	-131.465	48.953	0	48.90	0	8.0650	0	32.2890	0	25.137	0	48.480	0	277.3	4	94.9	4	-1E+10	1	-1E+10	1	-1E+10	1	-1E+10	1	-1E+10	1	-1E+10	1
4902551	66	C	06/09/2022	01:58	-131.465	48.953	0	50.00	0	8.0450	0	32.2870	0	25.138	0	49.570	0	277.0	4	94.8	4	-1E+10	1	-1E+10	1	-1E+10	1	-1E+10	1	-1E+10	1	-1E+10	1
4902551	66	C	06/09/2022	01:58	-131.465	48.953	0	51.10	0	8.0370	0	32.2880	0	25.140	0	50.660	0	276.6	4	94.6	4	-1E+10	1	-1E+10	1	-1E+10	1	-1E+10	1	-1E+10	1	-1E+10	1
4902551	66	C	06/09/2022	01:58	-131.465	48.953	0	52.10	0	8.0200	0	32.2890	0	25.143	0	51.652	0	276.3	4	94.4	4	-1E+10	1	-1E+10	1	-1E+10	1	-1E+10	1	-1E+10	1	-1E+10	1
4902551	66	C	06/09/2022	01:58	-131.465	48.953	0	52.90	0	7.9980	0	32.2960	0	25.152	0	52.445	0	276.0	4	94.3	4	-1E+10	1	-1E+10	1	-1E+10	1	-1E+10	1	-1E+10	1	-1E+10	1
4902551	66	C	06/09/2022	01:58	-131.465	48.953	0	53.70	0	7.9700	0	32.2950	0	25.155	0	53.238	0	275.9	4	94.2	4	-1E+10	1	-1E+10	1	-1E+10	1	-1E+10	1	-1E+10	1	-1E+10	1
4902551	66	C	06/09/2022	01:58	-131.465	48.953	0	54.90	0	7.9460	0	32.2960	0	25.160	0	54.427	0	275.8	4	94.1	4	-1E+10	1	-1E+10	1	-1E+10	1	-1E+10	1	-1E+10	1	-1E+10	1
4902551	66	C	06/09/2022	01:58	-131.465	48.953	0	56.10	0	7.9310	0	32.2970	0	25.163	0	55.617	0	275.4	4	94.0	4	-1E+10	1	-1E+10	1	-1E+10	1	-1E+10	1	-1E+10	1	-1E+10	1
4902551	66	C	06/09/2022	01:58	-131.465	48.953	0	57.00	0	7.9230	0	32.2970	0	25.164	0	56.509	0	275.1	4	93.9	4	-1E+10	1	-1E+10	1	-1E+10	1	-1E+10	1	-1E+10	1	-1E+10	1
4902551	66	C	06/09/2022	01:58	-131.465	48.953	0	57.90	0	7.9120	0	32.2990	0	25.167	0	57.401	0	274.7	4	93.7	4	-1E+10	1	-1E+10	1	-1E+10	1	-1E+10	1	-1E+10	1	-1E+10	1
4902551	66	C	06/09/2022	01:58	-131.465	48.953	0	59.10	0	7.8860	0	32.2990	0	25.171	0	58.591	0	274.1	4	93.4	4	-1E+10	1	-1E+10	1	-1E+10	1	-1E+10	1	-1E+10	1	-1E+10	1
4902551	66	C	06/09/2022	01:58	-131.465	48.953	0	60.00	0	7.8810	0	32.2980	0	25.171	0	59.483	0	273.7	4	93.3	4	-1E+10	1	-1E+10	1	-1E+10	1	-1E+10	1	-1E+10	1	-1E+10	1
4902551	66	C	06/09/2022	01:58	-131.465	48.953	0	60.90	0	7.8770	0	32.2990	0	25.172	0	60.375	0	273.4	4	93.2	4	-1E+10	1	-1E+10	1	-1E+10	1	-1E+10	1	-1E+10	1	-1E+10	1
4902551	66	C	06/09/2022	01:58	-131.465	48.953	0	62.00	0	7.8510	0	32.3040	0	25.180	0	61.465	0	272.8	4	92.9	4	-1E+10	1	-1E+10	1	-1E+10	1	-1E+10	1	-1E+10	1	-1E+10	1
4902551	66	C	06/09/2022	01:58	-131.465	48.953	0	62.90	0	7.8340	0	32.3060	0	25.184	0	62.357	0	272.2	4	92.7	4	-1E+10	1	-1E+10	1	-1E+10	1	-1E+10	1	-1E+10	1	-1E+10	1
4902551	66	C	06/09/2022	01:58	-131.465	48.953	0	63.70	0	7.8090	0	32.3080	0	25.189	0	63.150	0	271.5	4	92.4	4	-1E+10	1	-1E+10	1	-1E+10	1	-1E+10	1	-1E+10	1	-1E+10	1
4902551	66	C	06/09/2022	01:58	-131.465	48.953	0	64.90	0	7.7880	0	32.3090	0	25.192	0	64.340	0	270.4	4	92.0	4	-1E+10	1	-1E+10	1	-1E+10	1	-1E+10	1	-1E+10	1	-1E+10	1
4902551	66	C	06/09/2022	01:58	-131.465	48.953	0	66.00	0	7.7790	0	32.3100	0	25.195	0	65.430	0	269.1	4	91.5	4	-1E+10	1	-1E+10	1	-1E+10	1	-1E+10	1	-1E+10	1	-1E+10	1
4902551	66	C	06/09/2022	01:58	-131.465	48.953	0	67.10	0	7.7500	0	32.3170	0	25.204	0	66.520	0	267.9	4	91.0	4	-1E+10	1	-1E+10	1	-1E+10	1	-1E+10	1	-1E+10	1	-1E+10	1
4902551	66	C	06/09/2022	01:58	-131.465	48.953	0	68.10	0	7.6850	0	32.3320	0	25.225	0	67.511	0	266.8	4	90.5	4	-1E+10	1	-1E+10	1	-1E+10	1	-1E+10	1	-1E+10	1	-1E+10	1
4902551	66	C	06/09/2022	01:58	-131.465	48.953	0	69.20	0	7.6320	0	32.3320	0	25.233	0	68.602	0	266.0	4	90.2	4	-1E+10	1	-1E+10	1	-1E+10	1	-1E+10	1	-1E+10	1	-1E+10	1
4902551	66	C	06/09/2022	01:58	-131.465	48.953	0	70.00	0	7.6190	0	32.3340	0	25.236	0	69.395	0	264.5	4	89.7	4	-1E+10	1	-1E+10	1	-1E+10	1	-1E+10	1	-1E+10	1	-1E+10	1
4902551	66	C	06/09/2022	01:58	-131.465	48.953	0	71.10	0	7.6020	0	32.3370	0	25.241	0	70.485	0	262.4	4	88.9	4	-1E+10	1	-1E+10	1	-1E+10	1	-1E+10	1	-1E+10	1	-1E+10	1
4902551	66	C	06/09/2022	01:58	-131.465	48.953	0	72.00	0	7.5780	0	32.3400	0	25.246	0	71.377	0	260.2	4	88.1	4	-1E+10	1	-1E+10	1	-1E+10	1	-1E+10	1	-1E+10	1	-1E+10	1
4902551	66	C	06/09/2022	01:58	-131.465	48.953	0	72.80	0	7.5390	0	32.3460	0	25.257	0	72.170	0	257.8	4	87.2	4	-1E+10	1	-1E+10	1	-1E+10	1	-1E+10	1	-1E+10	1	-1E+10	1
4902551	66	C	06/09/2022	01:58	-131.465	48.953	0	74.10	0	7.5090	0	32.3570	0	25.269	0	73.459	0	254.4	4	86.0	4	-1E+10	1	-1E+10	1	-1E+10	1	-1E+10	1	-1E+10	1	-1E+10	1
4902551	66	C	06/09/2022	01:58	-131.465	48.953	0	75.10	0	7.5050	0	32.3610	0	25.273	0	74.450	0	251.9	4	85.2	4	-1E+10	1	-1E+10	1	-1E+10	1	-1E+10	1	-1E+10	1	-1E+10	1
4902551	66	C	06/09/2022	01:58	-131.465	48.953	0	75.80	0	7.5120	0	32.3740	0	25.282	0	75.144	0	249.9	4	84.5	4	-1E+10	1	-1E+10	1	-1E+10	1	-1E+10	1	-1E+10	1	-1E+10	1
4902551	66	C	06/09/2022	01:58	-131.465	48.953	0	77.00	0	7.4400	0	32.4140	0	25.324	0	76.333	0	247.2	4	83.5	4	-1E+10	1	-1E+10	1	-1E+10	1	-1E+10	1	-1E+10	1	-1E+10	1
4902551	66	C	06/09/2022	01:58	-131.465	48.953	0	78.20	0	7.3250	0	32.4340	0	25.355	0	77.522	0	244.7	4	82.4	4	-1E+10	1	-1E+10	1	-1E+10	1	-1E+10	1	-1E+10	1	-1E+10	1
4902551	66	C	06/09/2022	01:58	-131.465	48.953	0	78.80	0	7.3200	0	32.4550	0	25.372	0	78.117	0	243.2	4	81.9	4	-1E+10	1	-1E+10	1	-1E+10	1	-1E+10	1	-1E+10	1	-1E+10	1
4902551	66	C	06/09/2022	01:58	-131.465	48.953	0	79.80	0	7.3160	0	32.4730	0	25.387	0	79.108	0	241.0	4	81.2	4	-1E+10	1	-1E+10	1	-1E+10	1	-1E+10	1	-1E+10	1	-1E+10	1
4902551	66	C	06/09/2022	01:58	-131.465	48.953	0	80.70	0	7.2950	0	32.5010	0	25.412	0	80.000	0	238.7	4	80.4	4	-1E+10	1	-1E+10	1	-1E+10	1	-1E+10	1	-1E+10	1	-1E+10	1
4902551	66	C	06/09/2022	01:58	-131.465	48.953	0	81.70	0	7.2860	0	32.5140	0	25.424	0	80.991	0	236.2	4	79.5	4	-1E+10	1	-1E+10	1	-1E+10	1	-1E+10	1	-1E+10	1	-1E+10	1
4902551	66	C	06/09/2022	01:58	-131.465	48.953	0	82.70	0	7.2820	0	32.5170	0	25.426	0	81.982	0	238.7	4	80.4	4	-1E+10	1	-1E+10	1	-1E+10	1	-1E+10	1	-1E+10	1	-1E+10	1
4902551	66	C	06/09/2022	01:58	-131.465	48.953	0	83.70	0	7.2560	0	32.5380	0	25.447	0	82.974	0	235.0	4	79.1	4	-1E+10	1	-1E+10	1	-1E+10	1	-1E+10	1	-1E+10	1	-1E+10	1
4902551	66	C	06/09/2022	01:58	-131.465	48.953	0	84.70	0	7.1890	0	32.5920	0	25.498	0	83.965	0	232.2	4	78.1	4	-1E+10	1	-1E+10	1	-1E+10	1	-1E+10	1	-1E+10	1	-1E+10	1
4902551	66	C	06/09/2022	01:58	-131.465	48.953	0	85.70	0	7.1740	0	32.6040	0	25.510	0	84.956	0	229.2	4	77.1	4	-1E+10	1	-1E+10	1	-1E+10	1	-1E+10	1	-1E+10	1	-1E+10	1
4902551	66	C	06/09/2022	01:58	-131.465	48.953	0	86.90	0	7.1380	0	32.6410	0	25.544	0	86.145	0	225.7	4	75.8	4	-1E+10	1	-1E+10	1	-1E+10	1	-1E+10	1	-1E+10	1	-1E+10	1
4902551	66	C	06/09/2022	01:58	-131.465	48.953	0	88.10	0	7.0990	0	32.6870	0	25.585	0	87.334	0	222.1	4	74.6	4	-1E+10	1	-1E+10	1	-1E+10	1	-1E+10	1	-1E+10	1	-1E+10	1
4902551	66	C	06/09/2022	01:58	-131.465	48.953	0	89.00	0	7.0830	0	32.7050	0	25.601	0	88.226	0	218.9	4	73.5	4	-1E+10	1	-1E+10	1	-1E+10	1	-1E+10	1	-1E+10	1	-1E+10	1
4902551	66	C	06/09/2022	01:58	-131.465	48.953	0	90.10	0	7.0600	0	32.7280	0	25.623	0	89.317	0	213.9	4	71.8	4	-1E+10	1	-1E+10	1	-1E+10	1	-1E+10	1	-1E+10	1	-1E+10	1
4902551	66	C	06/09/2022	01:58	-131.465	48.953	0	91.00	0	7.0500	0	32.7350	0	25.629	0	90.209	0	209.4	4	70.3	4	-1E+10	1	-1E+10	1	-1E+10	1	-1E+10	1	-1E+10	1	-1E+10	1
4902551	66	C	06/09/2022	01:58	-131.465	48.953	0	92.10	0	7.0210	0	32.7660	0	25.658	0	91.299	0	203.7	4	68.3	4	-1E+10	1	-1E+10	1	-1E+10	1	-1E+10	1	-1E+10	1	-1E+10	1
4902551	66	C	06/09/2022	01:58	-131.465	48.953	0	92.90	0	6.9980	0	32.8060	0	25.692	0	92.092	0	199.4	4	66.9	4	-1E+10	1	-1E+10	1	-1E+10	1	-1E+10	1	-1E+10	1	-1E+10	1
4902551	66	C	06/09/2022	01:58	-131.465	48.953	0	94.20	0	6.9880	0	32.8470	0	25.726	0	93.380	0	192.8	4	64.6	4	-1E+10	1	-1E+10	1	-1E+10	1	-1E+10	1	-1E+10	1	-1E+10	1
4902551	66	C	06/09/2022	01:58	-131.465	48.953	0	95.00	0	6.9900	0	32.8600	0	25.736	0	94.173	0	188.1	4	63.1	4	-1E+10	1	-1E+10	1	-1E+10	1	-1E+10	1	-1E+10	1	-1E+10	1
4902551	66	C	06/09/2022	01:58	-131.465	48.953	0	96.10	0	7.0090	0	32.8880	0	25.755	0	95.263	0	179.7	4	60.3	4	-1E+10	1	-1E+10	1	-1E+10	1	-1E+10	1	-1E+10	1	-1E+10	1
4902551	66	C	06/09/2022	01:58	-131.465	48.953	0	97.10	0	7.0520	0	32.9720	0	25.816	0	96.254	0	171.7	4	57.7	4	-1E+10	1	-1E+10	1	-1E+10	1	-1E+10	1	-1E+10	1	-1E+10	1
4902551	66	C	06/09/2022	01:58	-131.465	48.953	0	97.90	0	7.0520	0	33.0190	0	25.853	0	97.047	0	166.1	4	55.9	4	-1E+10	1	-1E+10	1	-1E+10	1	-1E+10	1	-1E+10	1	-1E+10	1
4902551	66	C	06/09/2022	01:58	-131.465	48.953	0	98.90	0	7.0730	0	33.0760	0	25.895	0	98.038	0	159.4	4	53.6	4	-1E+10	1	-1E+10	1	-1E+10	1	-1E+10	1	-1E+10	1	-1E+10	1
4902551	66	C	06/09/2022	01:58	-131.465	48.953	0	100.20	0	7.1400	0	33.1370	0	25.934	0	99.326	0	153.1	4	51.6	4	-1E+10	1	-1E+10	1	-1E+10	1	-1E+10	1	-1E+10	1	-1E+10	1
4902551	66	C	06/09/2022	01:58	-131.465	48.953	0	101.00	0	7.1680	0	33.1830	0	25.966	0	100.119	0	150.0	4	50.6	4	-1E+10	1	-1E+10	1	-1E+10	1	-1E+10	1	-1E+10	1	-1E+10	1
4902551	66	C	06/09/2022	01:58	-131.465	48.953	0	102.30	0	7.1650	0	33.1990	0	25.979	0	101.408	0	144.7	4	48.9	4	-1E+10	1	-1E+10	1	-1E+10	1	-1E+10	1	-1E+10	1	-1E+10	1
4902551	66	C	06/09/2022	01:58	-131.465	48.953	0	103.10	0	7.1770	0	33.2190	0	25.993	0	102.200	0	140.9	4	47.6	4	-1E+10	1	-1E+10	1	-1E+10	1	-1E+10	1	-1E+10	1	-1E+10	1
4902551	66	C	06/09/2022	01:58	-131.465	48.953	0	103.90	0	7.1950	0	33.2440	0	26.011	0	102.993	0	136.4	4	46.1	4	-1E+10	1	-1E+10	1	-1E+10	1	-1E+10	1	-1E+10	1	-1E+10	1
4902551	66	C	06/09/2022	01:58	-131.465	48.953	0	105.20	0	7.2390	0	33.2980	0	26.047	0	104.282	0	129.1	4	43.7	4	-1E+10	1	-1E+10	1	-1E+10	1	-1E+10	1	-1E+10	1	-1E+10	1
4902551	66	C	06/09/2022	01:58	-131.465	48.953	0	105.90	0	7.2810	0	33.3210	0	26.059	0	104.975	0	124.5	4	42.2	4	-1E+10	1	-1E+10	1	-1E+10	1	-1E+10	1	-1E+10	1	-1E+10	1
4902551	66	C	06/09/2022	01:58	-131.465	48.953	0	107.00	0	7.3350	0	33.3810	0	26.099	0	106.065	0	120.5	4	40.9	4	-1E+10	1	-1E+10	1	-1E+10	1	-1E+10	1	-1E+10	1	-1E+10	1
4902551	66	C	06/09/2022	01:58	-131.465	48.953	0	108.10	0	7.3500	0	33.4070	0	26.117	0	107.155	0	116.8	4	39.6	4	-1E+10	1	-1E+10	1	-1E+10	1	-1E+10	1	-1E+10	1	-1E+10	1
4902551	66	C	06/09/2022	01:58	-131.465	48.953	0	108.90	0	7.3590	0	33.4140	0	26.122	0	107.948	0	113.5	4	38.5	4	-1E+10	1	-1E+10	1	-1E+10	1	-1E+10	1	-1E+10	1	-1E+10	1
4902551	66	C	06/09/2022	01:58	-131.465	48.953	0	109.80	0	7.3830	0	33.4400	0	26.139	0	108.840	0	110.2	4	37.4	4	-1E+10	1	-1E+10	1	-1E+10	1	-1E+10	1	-1E+10	1	-1E+10	1
4902551	66	C	06/09/2022	01:58	-131.465	48.953	0	111.00	0	7.4130	0	33.4760	0	26.163	0	110.029	0	106.2	4	36.1	4	-1E+10	1	-1E+10	1	-1E+10	1	-1E+10	1	-1E+10	1	-1E+10	1
4902551	66	C	06/09/2022	01:58	-131.465	48.953	0	112.00	0	7.4280	0	33.4940	0	26.175	0	111.020	0	103.3	4	35.2	4	-1E+10	1	-1E+10	1	-1E+10	1	-1E+10	1	-1E+10	1	-1E+10	1
4902551	66	C	06/09/2022	01:58	-131.465	48.953	0	112.90	0	7.4650	0	33.5270	0	26.196	0	111.912	0	100.5	4	34.2	4	-1E+10	1	-1E+10	1	-1E+10	1	-1E+10	1	-1E+10	1	-1E+10	1
4902551	66	C	06/09/2022	01:58	-131.465	48.953	0	114.00	0	7.4710	0	33.5770	0	26.234	0	113.002	0	98.3	4	33.5	4	-1E+10	1	-1E+10	1	-1E+10	1	-1E+10	1	-1E+10	1	-1E+10	1
4902551	66	C	06/09/2022	01:58	-131.465	48.953	0	115.00	0	7.4840	0	33.5820	0	26.236	0	113.993	0	96.3	4	32.9	4	-1E+10	1	-1E+10	1	-1E+10	1	-1E+10	1	-1E+10	1	-1E+10	1
4902551	66	C	06/09/2022	01:58	-131.465	48.953	0	116.00	0	7.4930	0	33.6010	0	26.250	0	114.984	0	94.5	4	32.2	4	-1E+10	1	-1E+10	1	-1E+10	1	-1E+10	1	-1E+10	1	-1E+10	1
4902551	66	C	06/09/2022	01:58	-131.465	48.953	0	117.00	0	7.4990	0	33.6100	0	26.256	0	115.975	0	92.5	4	31.6	4	-1E+10	1	-1E+10	1	-1E+10	1	-1E+10	1	-1E+10	1	-1E+10	1
4902551	66	C	06/09/2022	01:58	-131.465	48.953	0	118.00	0	7.5040	0	33.6200	0	26.264	0	116.966	0	90.5	4	30.9	4	-1E+10	1	-1E+10	1	-1E+10	1	-1E+10	1	-1E+10	1	-1E+10	1
4902551	66	C	06/09/2022	01:58	-131.465	48.953	0	118.90	0	7.5080	0	33.6310	0	26.272	0	117.858	0	87.9	4	30.0	4	-1E+10	1	-1E+10	1	-1E+10	1	-1E+10	1	-1E+10	1	-1E+10	1
4902551	66	C	06/09/2022	01:58	-131.465	48.953	0	120.00	0	7.5150	0	33.6420	0	26.279	0	118.948	0	84.9	4	29.0	4	-1E+10	1	-1E+10	1	-1E+10	1	-1E+10	1	-1E+10	1	-1E+10	1
4902551	66	C	06/09/2022	01:58	-131.465	48.953	0	121.00	0	7.5470	0	33.6830	0	26.307	0	119.939	0	82.2	4	28.1	4	-1E+10	1	-1E+10	1	-1E+10	1	-1E+10	1	-1E+10	1	-1E+10	1
4902551	66	C	06/09/2022	01:58	-131.465	48.953	0	122.10	0	7.5700	0	33.7020	0	26.319	0	121.029	0	80.4	4	27.5	4	-1E+10	1	-1E+10	1	-1E+10	1	-1E+10	1	-1E+10	1	-1E+10	1
4902551	66	C	06/09/2022	01:58	-131.465	48.953	0	122.80	0	7.5770	0	33.7080	0	26.322	0	121.723	0	79.7	4	27.2	4	-1E+10	1	-1E+10	1	-1E+10	1	-1E+10	1	-1E+10	1	-1E+10	1
4902551	66	C	06/09/2022	01:58	-131.465	48.953	0	123.80	0	7.5830	0	33.7200	0	26.331	0	122.714	0	78.6	4	26.9	4	-1E+10	1	-1E+10	1	-1E+10	1	-1E+10	1	-1E+10	1	-1E+10	1
4902551	66	C	06/09/2022	01:58	-131.465	48.953	0	125.00	0	7.5870	0	33.7320	0	26.340	0	123.903	0	77.8	4	26.6	4	-1E+10	1	-1E+10	1	-1E+10	1	-1E+10	1	-1E+10	1	-1E+10	1
4902551	66	C	06/09/2022	01:58	-131.465	48.953	0	126.00	0	7.5850	0	33.7340	0	26.342	0	124.894	0	77.1	4	26.4	4	-1E+10	1	-1E+10	1	-1E+10	1	-1E+10	1	-1E+10	1	-1E+10	1
4902551	66	C	06/09/2022	01:58	-131.465	48.953	0	127.20	0	7.5850	0	33.7380	0	26.345	0	126.083	0	76.4	4	26.1	4	-1E+10	1	-1E+10	1	-1E+10	1	-1E+10	1	-1E+10	1	-1E+10	1
4902551	66	C	06/09/2022	01:58	-131.465	48.953	0	127.90	0	7.5860	0	33.7400	0	26.346	0	126.776	0	76.0	4	26.0	4	-1E+10	1	-1E+10	1	-1E+10	1	-1E+10	1	-1E+10	1	-1E+10	1
4902551	66	C	06/09/2022	01:58	-131.465	48.953	0	128.90	0	7.5850	0	33.7530	0	26.357	0	127.767	0	75.5	4	25.8	4	-1E+10	1	-1E+10	1	-1E+10	1	-1E+10	1	-1E+10	1	-1E+10	1
4902551	66	C	06/09/2022	01:58	-131.465	48.953	0	130.10	0	7.5840	0	33.7700	0	26.370	0	128.956	0	75.3	4	25.8	4	-1E+10	1	-1E+10	1	-1E+10	1	-1E+10	1	-1E+10	1	-1E+10	1
4902551	66	C	06/09/2022	01:58	-131.465	48.953	0	130.80	0	7.5830	0	33.7740	0	26.374	0	129.650	0	75.5	4	25.8	4	-1E+10	1	-1E+10	1	-1E+10	1	-1E+10	1	-1E+10	1	-1E+10	1
4902551	66	C	06/09/2022	01:58	-131.465	48.953	0	131.80	0	7.5810	0	33.7760	0	26.375	0	130.641	0	75.7	4	25.9	4	-1E+10	1	-1E+10	1	-1E+10	1	-1E+10	1	-1E+10	1	-1E+10	1
4902551	66	C	06/09/2022	01:58	-131.465	48.953	0	133.00	0	7.5800	0	33.7780	0	26.377	0	131.830	0	75.8	4	26.0	4	-1E+10	1	-1E+10	1	-1E+10	1	-1E+10	1	-1E+10	1	-1E+10	1
4902551	66	C	06/09/2022	01:58	-131.465	48.953	0	133.70	0	7.5790	0	33.7780	0	26.377	0	132.524	0	76.0	4	26.0	4	-1E+10	1	-1E+10	1	-1E+10	1	-1E+10	1	-1E+10	1	-1E+10	1
4902551	66	C	06/09/2022	01:58	-131.465	48.953	0	134.80	0	7.5750	0	33.7790	0	26.379	0	133.614	0	76.3	4	26.1	4	-1E+10	1	-1E+10	1	-1E+10	1	-1E+10	1	-1E+10	1	-1E+10	1
4902551	66	C	06/09/2022	01:58	-131.465	48.953	0	135.90	0	7.5710	0	33.7830	0	26.382	0	134.703	0	76.5	4	26.2	4	-1E+10	1	-1E+10	1	-1E+10	1	-1E+10	1	-1E+10	1	-1E+10	1
4902551	66	C	06/09/2022	01:58	-131.465	48.953	0	137.00	0	7.5670	0	33.7850	0	26.385	0	135.793	0	76.7	4	26.2	4	-1E+10	1	-1E+10	1	-1E+10	1	-1E+10	1	-1E+10	1	-1E+10	1
4902551	66	C	06/09/2022	01:58	-131.465	48.953	0	138.20	0	7.5650	0	33.7860	0	26.386	0	136.982	0	76.9	4	26.3	4	-1E+10	1	-1E+10	1	-1E+10	1	-1E+10	1	-1E+10	1	-1E+10	1
4902551	66	C	06/09/2022	01:58	-131.465	48.953	0	138.90	0	7.5620	0	33.7870	0	26.387	0	137.676	0	77.1	4	26.4	4	-1E+10	1	-1E+10	1	-1E+10	1	-1E+10	1	-1E+10	1	-1E+10	1
4902551	66	C	06/09/2022	01:58	-131.465	48.953	0	139.70	0	7.5560	0	33.7910	0	26.391	0	138.469	0	77.3	4	26.4	4	-1E+10	1	-1E+10	1	-1E+10	1	-1E+10	1	-1E+10	1	-1E+10	1
4902551	66	C	06/09/2022	01:58	-131.465	48.953	0	140.90	0	7.5480	0	33.7950	0	26.395	0	139.658	0	77.5	4	26.5	4	-1E+10	1	-1E+10	1	-1E+10	1	-1E+10	1	-1E+10	1	-1E+10	1
4902551	66	C	06/09/2022	01:58	-131.465	48.953	0	142.10	0	7.5410	0	33.7980	0	26.399	0	140.847	0	77.7	4	26.6	4	-1E+10	1	-1E+10	1	-1E+10	1	-1E+10	1	-1E+10	1	-1E+10	1
4902551	66	C	06/09/2022	01:58	-131.465	48.953	0	142.90	0	7.5390	0	33.7990	0	26.400	0	141.639	0	77.9	4	26.6	4	-1E+10	1	-1E+10	1	-1E+10	1	-1E+10	1	-1E+10	1	-1E+10	1
4902551	66	C	06/09/2022	01:58	-131.465	48.953	0	143.70	0	7.5340	0	33.8020	0	26.403	0	142.432	0	78.0	4	26.7	4	-1E+10	1	-1E+10	1	-1E+10	1	-1E+10	1	-1E+10	1	-1E+10	1
4902551	66	C	06/09/2022	01:58	-131.465	48.953	0	144.90	0	7.5160	0	33.8080	0	26.410	0	143.621	0	78.1	4	26.7	4	-1E+10	1	-1E+10	1	-1E+10	1	-1E+10	1	-1E+10	1	-1E+10	1
4902551	66	C	06/09/2022	01:58	-131.465	48.953	0	146.10	0	7.5140	0	33.8080	0	26.410	0	144.810	0	78.2	4	26.7	4	-1E+10	1	-1E+10	1	-1E+10	1	-1E+10	1	-1E+10	1	-1E+10	1
4902551	66	C	06/09/2022	01:58	-131.465	48.953	0	147.00	0	7.5130	0	33.8090	0	26.411	0	145.702	0	78.2	4	26.7	4	-1E+10	1	-1E+10	1	-1E+10	1	-1E+10	1	-1E+10	1	-1E+10	1
4902551	66	C	06/09/2022	01:58	-131.465	48.953	0	147.80	0	7.5120	0	33.8090	0	26.411	0	146.494	0	78.3	4	26.7	4	-1E+10	1	-1E+10	1	-1E+10	1	-1E+10	1	-1E+10	1	-1E+10	1
4902551	66	C	06/09/2022	01:58	-131.465	48.953	0	149.00	0	7.5070	0	33.8120	0	26.415	0	147.683	0	78.3	4	26.8	4	-1E+10	1	-1E+10	1	-1E+10	1	-1E+10	1	-1E+10	1	-1E+10	1
4902551	66	C	06/09/2022	01:58	-131.465	48.953	0	150.30	0	7.5010	0	33.8130	0	26.416	0	148.971	0	78.3	4	26.8	4	-1E+10	1	-1E+10	1	-1E+10	1	-1E+10	1	-1E+10	1	-1E+10	1
4902551	66	C	06/09/2022	01:58	-131.465	48.953	0	151.10	0	7.5000	0	33.8130	0	26.416	0	149.764	0	78.3	4	26.8	4	-1E+10	1	-1E+10	1	-1E+10	1	-1E+10	1	-1E+10	1	-1E+10	1
4902551	66	C	06/09/2022	01:58	-131.465	48.953	0	151.90	0	7.4980	0	33.8130	0	26.417	0	150.557	0	78.3	4	26.8	4	-1E+10	1	-1E+10	1	-1E+10	1	-1E+10	1	-1E+10	1	-1E+10	1
4902551	66	C	06/09/2022	01:58	-131.465	48.953	0	152.70	0	7.4960	0	33.8190	0	26.422	0	151.349	0	78.4	4	26.8	4	-1E+10	1	-1E+10	1	-1E+10	1	-1E+10	1	-1E+10	1	-1E+10	1
4902551	66	C	06/09/2022	01:58	-131.465	48.953	0	153.90	0	7.4900	0	33.8220	0	26.425	0	152.538	0	78.6	4	26.8	4	-1E+10	1	-1E+10	1	-1E+10	1	-1E+10	1	-1E+10	1	-1E+10	1
4902551	66	C	06/09/2022	01:58	-131.465	48.953	0	155.20	0	7.4800	0	33.8260	0	26.429	0	153.826	0	78.8	4	26.9	4	-1E+10	1	-1E+10	1	-1E+10	1	-1E+10	1	-1E+10	1	-1E+10	1
4902551	66	C	06/09/2022	01:58	-131.465	48.953	0	156.00	0	7.4750	0	33.8270	0	26.431	0	154.619	0	78.9	4	26.9	4	-1E+10	1	-1E+10	1	-1E+10	1	-1E+10	1	-1E+10	1	-1E+10	1
4902551	66	C	06/09/2022	01:58	-131.465	48.953	0	156.70	0	7.4650	0	33.8320	0	26.436	0	155.313	0	79.0	4	27.0	4	-1E+10	1	-1E+10	1	-1E+10	1	-1E+10	1	-1E+10	1	-1E+10	1
4902551	66	C	06/09/2022	01:58	-131.465	48.953	0	157.90	0	7.4480	0	33.8360	0	26.442	0	156.501	0	79.2	4	27.0	4	-1E+10	1	-1E+10	1	-1E+10	1	-1E+10	1	-1E+10	1	-1E+10	1
4902551	66	C	06/09/2022	01:58	-131.465	48.953	0	159.10	0	7.4380	0	33.8380	0	26.445	0	157.690	0	79.4	4	27.1	4	-1E+10	1	-1E+10	1	-1E+10	1	-1E+10	1	-1E+10	1	-1E+10	1
4902551	66	C	06/09/2022	01:58	-131.465	48.953	0	159.90	0	7.4360	0	33.8390	0	26.446	0	158.483	0	79.5	4	27.1	4	-1E+10	1	-1E+10	1	-1E+10	1	-1E+10	1	-1E+10	1	-1E+10	1
4902551	66	C	06/09/2022	01:58	-131.465	48.953	0	160.70	0	7.4310	0	33.8400	0	26.447	0	159.276	0	79.6	4	27.2	4	-1E+10	1	-1E+10	1	-1E+10	1	-1E+10	1	-1E+10	1	-1E+10	1
4902551	66	C	06/09/2022	01:58	-131.465	48.953	0	162.00	0	7.4230	0	33.8420	0	26.450	0	160.564	0	79.8	4	27.2	4	-1E+10	1	-1E+10	1	-1E+10	1	-1E+10	1	-1E+10	1	-1E+10	1
4902551	66	C	06/09/2022	01:58	-131.465	48.953	0	163.30	0	7.4100	0	33.8480	0	26.457	0	161.852	0	79.9	4	27.3	4	-1E+10	1	-1E+10	1	-1E+10	1	-1E+10	1	-1E+10	1	-1E+10	1
4902551	66	C	06/09/2022	01:58	-131.465	48.953	0	164.10	0	7.4020	0	33.8500	0	26.459	0	162.644	0	80.1	4	27.3	4	-1E+10	1	-1E+10	1	-1E+10	1	-1E+10	1	-1E+10	1	-1E+10	1
4902551	66	C	06/09/2022	01:58	-131.465	48.953	0	165.00	0	7.4030	0	33.8490	0	26.459	0	163.536	0	80.3	4	27.4	4	-1E+10	1	-1E+10	1	-1E+10	1	-1E+10	1	-1E+10	1	-1E+10	1
4902551	66	C	06/09/2022	01:58	-131.465	48.953	0	165.90	0	7.4010	0	33.8490	0	26.459	0	164.427	0	80.4	4	27.4	4	-1E+10	1	-1E+10	1	-1E+10	1	-1E+10	1	-1E+10	1	-1E+10	1
4902551	66	C	06/09/2022	01:58	-131.465	48.953	0	166.70	0	7.4010	0	33.8490	0	26.459	0	165.220	0	80.6	4	27.5	4	-1E+10	1	-1E+10	1	-1E+10	1	-1E+10	1	-1E+10	1	-1E+10	1
4902551	66	C	06/09/2022	01:58	-131.465	48.953	0	168.00	0	7.3940	0	33.8510	0	26.461	0	166.508	0	81.0	4	27.6	4	-1E+10	1	-1E+10	1	-1E+10	1	-1E+10	1	-1E+10	1	-1E+10	1
4902551	66	C	06/09/2022	01:58	-131.465	48.953	0	169.30	0	7.3870	0	33.8530	0	26.464	0	167.796	0	81.3	4	27.7	4	-1E+10	1	-1E+10	1	-1E+10	1	-1E+10	1	-1E+10	1	-1E+10	1
4902551	66	C	06/09/2022	01:58	-131.465	48.953	0	170.20	0	7.3750	0	33.8550	0	26.467	0	168.687	0	81.6	4	27.8	4	-1E+10	1	-1E+10	1	-1E+10	1	-1E+10	1	-1E+10	1	-1E+10	1
4902551	66	C	06/09/2022	01:58	-131.465	48.953	0	171.00	0	7.3670	0	33.8580	0	26.471	0	169.480	0	81.8	4	27.9	4	-1E+10	1	-1E+10	1	-1E+10	1	-1E+10	1	-1E+10	1	-1E+10	1
4902551	66	C	06/09/2022	01:58	-131.465	48.953	0	171.90	0	7.3460	0	33.8650	0	26.479	0	170.372	0	82.0	4	27.9	4	-1E+10	1	-1E+10	1	-1E+10	1	-1E+10	1	-1E+10	1	-1E+10	1
4902551	66	C	06/09/2022	01:58	-131.465	48.953	0	172.80	0	7.3350	0	33.8640	0	26.480	0	171.263	0	82.2	4	28.0	4	-1E+10	1	-1E+10	1	-1E+10	1	-1E+10	1	-1E+10	1	-1E+10	1
4902551	66	C	06/09/2022	01:58	-131.465	48.953	0	173.70	0	7.3190	0	33.8670	0	26.485	0	172.155	0	82.4	4	28.0	4	-1E+10	1	-1E+10	1	-1E+10	1	-1E+10	1	-1E+10	1	-1E+10	1
4902551	66	C	06/09/2022	01:58	-131.465	48.953	0	174.60	0	7.3100	0	33.8660	0	26.485	0	173.047	0	82.5	4	28.1	4	-1E+10	1	-1E+10	1	-1E+10	1	-1E+10	1	-1E+10	1	-1E+10	1
4902551	66	C	06/09/2022	01:58	-131.465	48.953	0	175.90	0	7.3020	0	33.8660	0	26.486	0	174.334	0	82.7	4	28.1	4	-1E+10	1	-1E+10	1	-1E+10	1	-1E+10	1	-1E+10	1	-1E+10	1
4902551	66	C	06/09/2022	01:58	-131.465	48.953	0	177.30	0	7.2890	0	33.8700	0	26.491	0	175.721	0	82.8	4	28.2	4	-1E+10	1	-1E+10	1	-1E+10	1	-1E+10	1	-1E+10	1	-1E+10	1
4902551	66	C	06/09/2022	01:58	-131.465	48.953	0	178.20	0	7.2840	0	33.8710	0	26.493	0	176.613	0	82.9	4	28.2	4	-1E+10	1	-1E+10	1	-1E+10	1	-1E+10	1	-1E+10	1	-1E+10	1
4902551	66	C	06/09/2022	01:58	-131.465	48.953	0	179.10	0	7.2680	0	33.8760	0	26.499	0	177.505	0	83.0	4	28.2	4	-1E+10	1	-1E+10	1	-1E+10	1	-1E+10	1	-1E+10	1	-1E+10	1
4902551	66	C	06/09/2022	01:58	-131.465	48.953	0	180.00	0	7.2540	0	33.8770	0	26.502	0	178.396	0	83.2	4	28.3	4	-1E+10	1	-1E+10	1	-1E+10	1	-1E+10	1	-1E+10	1	-1E+10	1
4902551	66	C	06/09/2022	01:58	-131.465	48.953	0	180.90	0	7.2450	0	33.8770	0	26.503	0	179.288	0	83.3	4	28.3	4	-1E+10	1	-1E+10	1	-1E+10	1	-1E+10	1	-1E+10	1	-1E+10	1
4902551	66	C	06/09/2022	01:58	-131.465	48.953	0	181.80	0	7.2400	0	33.8760	0	26.503	0	180.179	0	83.4	4	28.3	4	-1E+10	1	-1E+10	1	-1E+10	1	-1E+10	1	-1E+10	1	-1E+10	1
4902551	66	C	06/09/2022	01:58	-131.465	48.953	0	182.70	0	7.2390	0	33.8760	0	26.503	0	181.071	0	83.5	4	28.4	4	-1E+10	1	-1E+10	1	-1E+10	1	-1E+10	1	-1E+10	1	-1E+10	1
4902551	66	C	06/09/2022	01:58	-131.465	48.953	0	183.70	0	7.2380	0	33.8760	0	26.503	0	182.062	0	83.6	4	28.4	4	-1E+10	1	-1E+10	1	-1E+10	1	-1E+10	1	-1E+10	1	-1E+10	1
4902551	66	C	06/09/2022	01:58	-131.465	48.953	0	184.60	0	7.2330	0	33.8780	0	26.505	0	182.953	0	83.7	4	28.4	4	-1E+10	1	-1E+10	1	-1E+10	1	-1E+10	1	-1E+10	1	-1E+10	1
4902551	66	C	06/09/2022	01:58	-131.465	48.953	0	185.50	0	7.2270	0	33.8780	0	26.506	0	183.845	0	83.8	4	28.5	4	-1E+10	1	-1E+10	1	-1E+10	1	-1E+10	1	-1E+10	1	-1E+10	1
4902551	66	C	06/09/2022	01:58	-131.465	48.953	0	186.90	0	7.2200	0	33.8790	0	26.508	0	185.232	0	84.1	4	28.6	4	-1E+10	1	-1E+10	1	-1E+10	1	-1E+10	1	-1E+10	1	-1E+10	1
4902551	66	C	06/09/2022	01:58	-131.465	48.953	0	188.40	0	7.2140	0	33.8790	0	26.509	0	186.718	0	84.3	4	28.6	4	-1E+10	1	-1E+10	1	-1E+10	1	-1E+10	1	-1E+10	1	-1E+10	1
4902551	66	C	06/09/2022	01:58	-131.465	48.953	0	189.30	0	7.2130	0	33.8790	0	26.509	0	187.609	0	84.6	4	28.7	4	-1E+10	1	-1E+10	1	-1E+10	1	-1E+10	1	-1E+10	1	-1E+10	1
4902551	66	C	06/09/2022	01:58	-131.465	48.953	0	190.20	0	7.2090	0	33.8800	0	26.510	0	188.501	0	84.9	4	28.8	4	-1E+10	1	-1E+10	1	-1E+10	1	-1E+10	1	-1E+10	1	-1E+10	1
4902551	66	C	06/09/2022	01:58	-131.465	48.953	0	191.20	0	7.1940	0	33.8890	0	26.520	0	189.491	0	85.2	4	28.9	4	-1E+10	1	-1E+10	1	-1E+10	1	-1E+10	1	-1E+10	1	-1E+10	1
4902551	66	C	06/09/2022	01:58	-131.465	48.953	0	192.10	0	7.1670	0	33.8920	0	26.526	0	190.383	0	85.5	4	29.0	4	-1E+10	1	-1E+10	1	-1E+10	1	-1E+10	1	-1E+10	1	-1E+10	1
4902551	66	C	06/09/2022	01:58	-131.465	48.953	0	193.00	0	7.1550	0	33.8840	0	26.521	0	191.274	0	85.8	4	29.1	4	-1E+10	1	-1E+10	1	-1E+10	1	-1E+10	1	-1E+10	1	-1E+10	1
4902551	66	C	06/09/2022	01:58	-131.465	48.953	0	194.00	0	7.1450	0	33.8850	0	26.523	0	192.265	0	85.9	4	29.1	4	-1E+10	1	-1E+10	1	-1E+10	1	-1E+10	1	-1E+10	1	-1E+10	1
4902551	66	C	06/09/2022	01:58	-131.465	48.953	0	195.00	0	7.1370	0	33.8860	0	26.525	0	193.255	0	86.1	4	29.2	4	-1E+10	1	-1E+10	1	-1E+10	1	-1E+10	1	-1E+10	1	-1E+10	1
4902551	66	C	06/09/2022	01:58	-131.465	48.953	0	196.00	0	7.1270	0	33.8870	0	26.527	0	194.246	0	86.2	4	29.2	4	-1E+10	1	-1E+10	1	-1E+10	1	-1E+10	1	-1E+10	1	-1E+10	1
4902551	66	C	06/09/2022	01:58	-131.465	48.953	0	196.90	0	7.1080	0	33.8930	0	26.535	0	195.138	0	86.4	4	29.3	4	-1E+10	1	-1E+10	1	-1E+10	1	-1E+10	1	-1E+10	1	-1E+10	1
4902551	66	C	06/09/2022	01:58	-131.465	48.953	0	197.90	0	7.0910	0	33.8900	0	26.535	0	196.128	0	86.4	4	29.3	4	-1E+10	1	-1E+10	1	-1E+10	1	-1E+10	1	-1E+10	1	-1E+10	1
4902551	66	C	06/09/2022	01:58	-131.465	48.953	0	198.80	0	7.0800	0	33.8920	0	26.538	0	197.020	0	86.5	4	29.3	4	-1E+10	1	-1E+10	1	-1E+10	1	-1E+10	1	-1E+10	1	-1E+10	1
4902551	66	C	06/09/2022	01:58	-131.465	48.953	0	199.80	0	7.0710	0	33.8910	0	26.538	0	198.010	0	86.7	4	29.3	4	-1E+10	1	-1E+10	1	-1E+10	1	-1E+10	1	-1E+10	1	-1E+10	1
4902551	66	C	06/09/2022	01:58	-131.465	48.953	0	200.70	0	7.0680	0	33.8920	0	26.539	0	198.902	0	86.8	4	29.4	4	-1E+10	1	-1E+10	1	-1E+10	1	-1E+10	1	-1E+10	1	-1E+10	1
4902551	66	C	06/09/2022	01:58	-131.465	48.953	0	201.70	0	7.0630	0	33.8920	0	26.540	0	199.892	0	86.9	4	29.4	4	-1E+10	1	-1E+10	1	-1E+10	1	-1E+10	1	-1E+10	1	-1E+10	1
4902551	66	C	06/09/2022	01:58	-131.465	48.953	0	202.70	0	7.0590	0	33.8910	0	26.540	0	200.883	0	87.1	4	29.5	4	-1E+10	1	-1E+10	1	-1E+10	1	-1E+10	1	-1E+10	1	-1E+10	1
4902551	66	C	06/09/2022	01:58	-131.465	48.953	0	203.70	0	7.0550	0	33.8920	0	26.541	0	201.873	0	87.2	4	29.5	4	-1E+10	1	-1E+10	1	-1E+10	1	-1E+10	1	-1E+10	1	-1E+10	1
4902551	66	C	06/09/2022	01:58	-131.465	48.953	0	204.60	0	7.0530	0	33.8910	0	26.541	0	202.765	0	87.4	4	29.6	4	-1E+10	1	-1E+10	1	-1E+10	1	-1E+10	1	-1E+10	1	-1E+10	1
4902551	66	C	06/09/2022	01:58	-131.465	48.953	0	205.60	0	7.0510	0	33.8920	0	26.542	0	203.755	0	87.6	4	29.6	4	-1E+10	1	-1E+10	1	-1E+10	1	-1E+10	1	-1E+10	1	-1E+10	1
4902551	66	C	06/09/2022	01:58	-131.465	48.953	0	206.50	0	7.0420	0	33.8960	0	26.546	0	204.647	0	87.8	4	29.7	4	-1E+10	1	-1E+10	1	-1E+10	1	-1E+10	1	-1E+10	1	-1E+10	1
4902551	66	C	06/09/2022	01:58	-131.465	48.953	0	207.90	0	7.0280	0	33.8930	0	26.546	0	206.034	0	88.1	4	29.8	4	-1E+10	1	-1E+10	1	-1E+10	1	-1E+10	1	-1E+10	1	-1E+10	1
4902551	66	C	06/09/2022	01:58	-131.465	48.953	0	209.40	0	7.0200	0	33.8950	0	26.548	0	207.519	0	88.4	4	29.9	4	-1E+10	1	-1E+10	1	-1E+10	1	-1E+10	1	-1E+10	1	-1E+10	1
4902551	66	C	06/09/2022	01:58	-131.465	48.953	0	210.40	0	7.0030	0	33.8990	0	26.554	0	208.510	0	88.6	4	30.0	4	-1E+10	1	-1E+10	1	-1E+10	1	-1E+10	1	-1E+10	1	-1E+10	1
4902551	66	C	06/09/2022	01:58	-131.465	48.953	0	211.30	0	6.9660	0	33.8950	0	26.556	0	209.401	0	88.6	4	29.9	4	-1E+10	1	-1E+10	1	-1E+10	1	-1E+10	1	-1E+10	1	-1E+10	1
4902551	66	C	06/09/2022	01:58	-131.465	48.953	0	212.30	0	6.9550	0	33.8960	0	26.558	0	210.392	0	88.6	4	29.9	4	-1E+10	1	-1E+10	1	-1E+10	1	-1E+10	1	-1E+10	1	-1E+10	1
4902551	66	C	06/09/2022	01:58	-131.465	48.953	0	213.20	0	6.9490	0	33.8960	0	26.559	0	211.283	0	88.7	4	29.9	4	-1E+10	1	-1E+10	1	-1E+10	1	-1E+10	1	-1E+10	1	-1E+10	1
4902551	66	C	06/09/2022	01:58	-131.465	48.953	0	214.20	0	6.9470	0	33.9010	0	26.563	0	212.274	0	89.1	4	30.1	4	-1E+10	1	-1E+10	1	-1E+10	1	-1E+10	1	-1E+10	1	-1E+10	1
4902551	66	C	06/09/2022	01:58	-131.465	48.953	0	215.10	0	6.9360	0	33.9050	0	26.568	0	213.165	0	89.7	4	30.3	4	-1E+10	1	-1E+10	1	-1E+10	1	-1E+10	1	-1E+10	1	-1E+10	1
4902551	66	C	06/09/2022	01:58	-131.465	48.953	0	216.10	0	6.9010	0	33.9230	0	26.587	0	214.156	0	90.4	4	30.5	4	-1E+10	1	-1E+10	1	-1E+10	1	-1E+10	1	-1E+10	1	-1E+10	1
4902551	66	C	06/09/2022	01:58	-131.465	48.953	0	217.00	0	6.8550	0	33.9060	0	26.580	0	215.047	0	90.8	4	30.6	4	-1E+10	1	-1E+10	1	-1E+10	1	-1E+10	1	-1E+10	1	-1E+10	1
4902551	66	C	06/09/2022	01:58	-131.465	48.953	0	218.00	0	6.8350	0	33.9000	0	26.578	0	216.038	0	90.8	4	30.6	4	-1E+10	1	-1E+10	1	-1E+10	1	-1E+10	1	-1E+10	1	-1E+10	1
4902551	66	C	06/09/2022	01:58	-131.465	48.953	0	219.00	0	6.8310	0	33.8980	0	26.577	0	217.028	0	90.7	4	30.5	4	-1E+10	1	-1E+10	1	-1E+10	1	-1E+10	1	-1E+10	1	-1E+10	1
4902551	66	C	06/09/2022	01:58	-131.465	48.953	0	219.90	0	6.8290	0	33.8980	0	26.577	0	217.920	0	90.6	4	30.5	4	-1E+10	1	-1E+10	1	-1E+10	1	-1E+10	1	-1E+10	1	-1E+10	1
4902551	66	C	06/09/2022	01:58	-131.465	48.953	0	220.90	0	6.8240	0	33.8980	0	26.578	0	218.910	0	90.4	4	30.4	4	-1E+10	1	-1E+10	1	-1E+10	1	-1E+10	1	-1E+10	1	-1E+10	1
4902551	66	C	06/09/2022	01:58	-131.465	48.953	0	221.80	0	6.8140	0	33.9000	0	26.580	0	219.802	0	90.2	4	30.4	4	-1E+10	1	-1E+10	1	-1E+10	1	-1E+10	1	-1E+10	1	-1E+10	1
4902551	66	C	06/09/2022	01:58	-131.465	48.953	0	222.80	0	6.8100	0	33.8990	0	26.580	0	220.792	0	90.0	4	30.3	4	-1E+10	1	-1E+10	1	-1E+10	1	-1E+10	1	-1E+10	1	-1E+10	1
4902551	66	C	06/09/2022	01:58	-131.465	48.953	0	223.70	0	6.8100	0	33.9000	0	26.581	0	221.683	0	89.9	4	30.3	4	-1E+10	1	-1E+10	1	-1E+10	1	-1E+10	1	-1E+10	1	-1E+10	1
4902551	66	C	06/09/2022	01:58	-131.465	48.953	0	224.60	0	6.8070	0	33.9000	0	26.581	0	222.575	0	89.9	4	30.2	4	-1E+10	1	-1E+10	1	-1E+10	1	-1E+10	1	-1E+10	1	-1E+10	1
4902551	66	C	06/09/2022	01:58	-131.465	48.953	0	225.60	0	6.8010	0	33.9020	0	26.584	0	223.565	0	89.9	4	30.2	4	-1E+10	1	-1E+10	1	-1E+10	1	-1E+10	1	-1E+10	1	-1E+10	1
4902551	66	C	06/09/2022	01:58	-131.465	48.953	0	226.50	0	6.7770	0	33.9090	0	26.593	0	224.457	0	89.8	4	30.2	4	-1E+10	1	-1E+10	1	-1E+10	1	-1E+10	1	-1E+10	1	-1E+10	1
4902551	66	C	06/09/2022	01:58	-131.465	48.953	0	227.90	0	6.7600	0	33.9050	0	26.592	0	225.843	0	89.7	4	30.2	4	-1E+10	1	-1E+10	1	-1E+10	1	-1E+10	1	-1E+10	1	-1E+10	1
4902551	66	C	06/09/2022	01:58	-131.465	48.953	0	229.40	0	6.7500	0	33.9050	0	26.593	0	227.329	0	89.7	4	30.2	4	-1E+10	1	-1E+10	1	-1E+10	1	-1E+10	1	-1E+10	1	-1E+10	1
4902551	66	C	06/09/2022	01:58	-131.465	48.953	0	230.30	0	6.7440	0	33.9060	0	26.595	0	228.220	0	89.8	4	30.2	4	-1E+10	1	-1E+10	1	-1E+10	1	-1E+10	1	-1E+10	1	-1E+10	1
4902551	66	C	06/09/2022	01:58	-131.465	48.953	0	231.30	0	6.7360	0	33.9070	0	26.597	0	229.211	0	89.8	4	30.2	4	-1E+10	1	-1E+10	1	-1E+10	1	-1E+10	1	-1E+10	1	-1E+10	1
4902551	66	C	06/09/2022	01:58	-131.465	48.953	0	232.20	0	6.7350	0	33.9060	0	26.596	0	230.102	0	89.9	4	30.2	4	-1E+10	1	-1E+10	1	-1E+10	1	-1E+10	1	-1E+10	1	-1E+10	1
4902551	66	C	06/09/2022	01:58	-131.465	48.953	0	233.20	0	6.7340	0	33.9070	0	26.597	0	231.092	0	90.1	4	30.3	4	-1E+10	1	-1E+10	1	-1E+10	1	-1E+10	1	-1E+10	1	-1E+10	1
4902551	66	C	06/09/2022	01:58	-131.465	48.953	0	234.10	0	6.7280	0	33.9080	0	26.598	0	231.984	0	90.4	4	30.4	4	-1E+10	1	-1E+10	1	-1E+10	1	-1E+10	1	-1E+10	1	-1E+10	1
4902551	66	C	06/09/2022	01:58	-131.465	48.953	0	235.00	0	6.7190	0	33.9120	0	26.603	0	232.875	0	90.7	4	30.5	4	-1E+10	1	-1E+10	1	-1E+10	1	-1E+10	1	-1E+10	1	-1E+10	1
4902551	66	C	06/09/2022	01:58	-131.465	48.953	0	236.00	0	6.7020	0	33.9100	0	26.603	0	233.866	0	91.1	4	30.6	4	-1E+10	1	-1E+10	1	-1E+10	1	-1E+10	1	-1E+10	1	-1E+10	1
4902551	66	C	06/09/2022	01:58	-131.465	48.953	0	236.90	0	6.6900	0	33.9050	0	26.601	0	234.757	0	91.4	4	30.7	4	-1E+10	1	-1E+10	1	-1E+10	1	-1E+10	1	-1E+10	1	-1E+10	1
4902551	66	C	06/09/2022	01:58	-131.465	48.953	0	237.80	0	6.6820	0	33.9120	0	26.608	0	235.648	0	91.6	4	30.7	4	-1E+10	1	-1E+10	1	-1E+10	1	-1E+10	1	-1E+10	1	-1E+10	1
4902551	66	C	06/09/2022	01:58	-131.465	48.953	0	238.80	0	6.6760	0	33.9050	0	26.603	0	236.639	0	91.7	4	30.8	4	-1E+10	1	-1E+10	1	-1E+10	1	-1E+10	1	-1E+10	1	-1E+10	1
4902551	66	C	06/09/2022	01:58	-131.465	48.953	0	239.70	0	6.6660	0	33.9130	0	26.611	0	237.530	0	91.9	4	30.8	4	-1E+10	1	-1E+10	1	-1E+10	1	-1E+10	1	-1E+10	1	-1E+10	1
4902551	66	C	06/09/2022	01:58	-131.465	48.953	0	240.60	0	6.6480	0	33.9060	0	26.608	0	238.421	0	91.9	4	30.8	4	-1E+10	1	-1E+10	1	-1E+10	1	-1E+10	1	-1E+10	1	-1E+10	1
4902551	66	C	06/09/2022	01:58	-131.465	48.953	0	241.60	0	6.6460	0	33.9040	0	26.606	0	239.412	0	91.9	4	30.8	4	-1E+10	1	-1E+10	1	-1E+10	1	-1E+10	1	-1E+10	1	-1E+10	1
4902551	66	C	06/09/2022	01:58	-131.465	48.953	0	242.50	0	6.6340	0	33.9070	0	26.610	0	240.303	0	91.8	4	30.8	4	-1E+10	1	-1E+10	1	-1E+10	1	-1E+10	1	-1E+10	1	-1E+10	1
4902551	66	C	06/09/2022	01:58	-131.465	48.953	0	243.90	0	6.6160	0	33.9060	0	26.612	0	241.689	0	91.8	4	30.7	4	-1E+10	1	-1E+10	1	-1E+10	1	-1E+10	1	-1E+10	1	-1E+10	1
4902551	66	C	06/09/2022	01:58	-131.465	48.953	0	245.30	0	6.5960	0	33.9100	0	26.618	0	243.076	0	91.6	4	30.7	4	-1E+10	1	-1E+10	1	-1E+10	1	-1E+10	1	-1E+10	1	-1E+10	1
4902551	66	C	06/09/2022	01:58	-131.465	48.953	0	246.30	0	6.5860	0	33.9070	0	26.617	0	244.066	0	91.5	4	30.6	4	-1E+10	1	-1E+10	1	-1E+10	1	-1E+10	1	-1E+10	1	-1E+10	1
4902551	66	C	06/09/2022	01:58	-131.465	48.953	0	247.30	0	6.5800	0	33.9050	0	26.616	0	245.057	0	91.4	4	30.6	4	-1E+10	1	-1E+10	1	-1E+10	1	-1E+10	1	-1E+10	1	-1E+10	1
4902551	66	C	06/09/2022	01:58	-131.465	48.953	0	248.20	0	6.5770	0	33.9080	0	26.619	0	245.948	0	91.3	4	30.6	4	-1E+10	1	-1E+10	1	-1E+10	1	-1E+10	1	-1E+10	1	-1E+10	1
4902551	66	C	06/09/2022	01:58	-131.465	48.953	0	249.20	0	6.5600	0	33.9150	0	26.626	0	246.938	0	91.4	4	30.6	4	-1E+10	1	-1E+10	1	-1E+10	1	-1E+10	1	-1E+10	1	-1E+10	1
4902551	66	C	06/09/2022	01:58	-131.465	48.953	0	250.10	0	6.5460	0	33.9090	0	26.623	0	247.830	0	91.4	4	30.6	4	-1E+10	1	-1E+10	1	-1E+10	1	-1E+10	1	-1E+10	1	-1E+10	1
4902551	66	C	06/09/2022	01:58	-131.465	48.953	0	251.10	0	6.5400	0	33.9090	0	26.624	0	248.820	0	91.3	4	30.6	4	-1E+10	1	-1E+10	1	-1E+10	1	-1E+10	1	-1E+10	1	-1E+10	1
4902551	66	C	06/09/2022	01:58	-131.465	48.953	0	252.10	0	6.5330	0	33.9090	0	26.625	0	249.810	0	91.3	4	30.5	4	-1E+10	1	-1E+10	1	-1E+10	1	-1E+10	1	-1E+10	1	-1E+10	1
4902551	66	C	06/09/2022	01:58	-131.465	48.953	0	253.00	0	6.5150	0	33.9140	0	26.631	0	250.701	0	91.2	4	30.5	4	-1E+10	1	-1E+10	1	-1E+10	1	-1E+10	1	-1E+10	1	-1E+10	1
4902551	66	C	06/09/2022	01:58	-131.465	48.953	0	254.00	0	6.4870	0	33.9120	0	26.634	0	251.692	0	91.0	4	30.4	4	-1E+10	1	-1E+10	1	-1E+10	1	-1E+10	1	-1E+10	1	-1E+10	1
4902551	66	C	06/09/2022	01:58	-131.465	48.953	0	255.00	0	6.4800	0	33.9110	0	26.634	0	252.682	0	90.8	4	30.3	4	-1E+10	1	-1E+10	1	-1E+10	1	-1E+10	1	-1E+10	1	-1E+10	1
4902551	66	C	06/09/2022	01:58	-131.465	48.953	0	256.00	0	6.4690	0	33.9110	0	26.635	0	253.672	0	90.6	4	30.3	4	-1E+10	1	-1E+10	1	-1E+10	1	-1E+10	1	-1E+10	1	-1E+10	1
4902551	66	C	06/09/2022	01:58	-131.465	48.953	0	256.90	0	6.4600	0	33.9120	0	26.637	0	254.564	0	90.5	4	30.2	4	-1E+10	1	-1E+10	1	-1E+10	1	-1E+10	1	-1E+10	1	-1E+10	1
4902551	66	C	06/09/2022	01:58	-131.465	48.953	0	257.90	0	6.4510	0	33.9140	0	26.640	0	255.554	0	90.3	4	30.1	4	-1E+10	1	-1E+10	1	-1E+10	1	-1E+10	1	-1E+10	1	-1E+10	1
4902551	66	C	06/09/2022	01:58	-131.465	48.953	0	258.90	0	6.4320	0	33.9170	0	26.645	0	256.544	0	90.1	4	30.1	4	-1E+10	1	-1E+10	1	-1E+10	1	-1E+10	1	-1E+10	1	-1E+10	1
4902551	66	C	06/09/2022	01:58	-131.465	48.953	0	259.80	0	6.4160	0	33.9160	0	26.646	0	257.435	0	89.9	4	30.0	4	-1E+10	1	-1E+10	1	-1E+10	1	-1E+10	1	-1E+10	1	-1E+10	1
4902551	66	C	06/09/2022	01:58	-131.465	48.953	0	260.80	0	6.4070	0	33.9130	0	26.645	0	258.426	0	89.8	4	29.9	4	-1E+10	1	-1E+10	1	-1E+10	1	-1E+10	1	-1E+10	1	-1E+10	1
4902551	66	C	06/09/2022	01:58	-131.465	48.953	0	261.80	0	6.4020	0	33.9140	0	26.646	0	259.416	0	89.6	4	29.9	4	-1E+10	1	-1E+10	1	-1E+10	1	-1E+10	1	-1E+10	1	-1E+10	1
4902551	66	C	06/09/2022	01:58	-131.465	48.953	0	262.80	0	6.4000	0	33.9130	0	26.646	0	260.406	0	89.4	4	29.8	4	-1E+10	1	-1E+10	1	-1E+10	1	-1E+10	1	-1E+10	1	-1E+10	1
4902551	66	C	06/09/2022	01:58	-131.465	48.953	0	263.80	0	6.3980	0	33.9130	0	26.646	0	261.397	0	89.3	4	29.8	4	-1E+10	1	-1E+10	1	-1E+10	1	-1E+10	1	-1E+10	1	-1E+10	1
4902551	66	C	06/09/2022	01:58	-131.465	48.953	0	264.70	0	6.3930	0	33.9150	0	26.648	0	262.288	0	89.0	4	29.7	4	-1E+10	1	-1E+10	1	-1E+10	1	-1E+10	1	-1E+10	1	-1E+10	1
4902551	66	C	06/09/2022	01:58	-131.465	48.953	0	265.70	0	6.3840	0	33.9140	0	26.649	0	263.278	0	88.8	4	29.6	4	-1E+10	1	-1E+10	1	-1E+10	1	-1E+10	1	-1E+10	1	-1E+10	1
4902551	66	C	06/09/2022	01:58	-131.465	48.953	0	266.70	0	6.3770	0	33.9160	0	26.651	0	264.268	0	88.6	4	29.5	4	-1E+10	1	-1E+10	1	-1E+10	1	-1E+10	1	-1E+10	1	-1E+10	1
4902551	66	C	06/09/2022	01:58	-131.465	48.953	0	267.70	0	6.3710	0	33.9150	0	26.651	0	265.259	0	88.3	4	29.4	4	-1E+10	1	-1E+10	1	-1E+10	1	-1E+10	1	-1E+10	1	-1E+10	1
4902551	66	C	06/09/2022	01:58	-131.465	48.953	0	268.70	0	6.3660	0	33.9160	0	26.653	0	266.249	0	88.0	4	29.3	4	-1E+10	1	-1E+10	1	-1E+10	1	-1E+10	1	-1E+10	1	-1E+10	1
4902551	66	C	06/09/2022	01:58	-131.465	48.953	0	269.70	0	6.3550	0	33.9160	0	26.654	0	267.239	0	87.7	4	29.2	4	-1E+10	1	-1E+10	1	-1E+10	1	-1E+10	1	-1E+10	1	-1E+10	1
4902551	66	C	06/09/2022	01:58	-131.465	48.953	0	270.80	0	6.3500	0	33.9170	0	26.655	0	268.328	0	87.5	4	29.2	4	-1E+10	1	-1E+10	1	-1E+10	1	-1E+10	1	-1E+10	1	-1E+10	1
4902551	66	C	06/09/2022	01:58	-131.465	48.953	0	271.80	0	6.3320	0	33.9270	0	26.666	0	269.318	0	87.3	4	29.1	4	-1E+10	1	-1E+10	1	-1E+10	1	-1E+10	1	-1E+10	1	-1E+10	1
4902551	66	C	06/09/2022	01:58	-131.465	48.953	0	272.80	0	6.3180	0	33.9170	0	26.660	0	270.309	0	87.1	4	29.0	4	-1E+10	1	-1E+10	1	-1E+10	1	-1E+10	1	-1E+10	1	-1E+10	1
4902551	66	C	06/09/2022	01:58	-131.465	48.953	0	273.80	0	6.3140	0	33.9200	0	26.663	0	271.299	0	87.0	4	28.9	4	-1E+10	1	-1E+10	1	-1E+10	1	-1E+10	1	-1E+10	1	-1E+10	1
4902551	66	C	06/09/2022	01:58	-131.465	48.953	0	274.80	0	6.3100	0	33.9170	0	26.661	0	272.289	0	86.7	4	28.9	4	-1E+10	1	-1E+10	1	-1E+10	1	-1E+10	1	-1E+10	1	-1E+10	1
4902551	66	C	06/09/2022	01:58	-131.465	48.953	0	275.80	0	6.3030	0	33.9210	0	26.665	0	273.279	0	86.5	4	28.8	4	-1E+10	1	-1E+10	1	-1E+10	1	-1E+10	1	-1E+10	1	-1E+10	1
4902551	66	C	06/09/2022	01:58	-131.465	48.953	0	276.50	0	6.2940	0	33.9190	0	26.664	0	273.972	0	86.3	4	28.7	4	-1E+10	1	-1E+10	1	-1E+10	1	-1E+10	1	-1E+10	1	-1E+10	1
4902551	66	C	06/09/2022	01:58	-131.465	48.953	0	277.90	0	6.2610	0	33.9200	0	26.669	0	275.359	0	86.0	4	28.6	4	-1E+10	1	-1E+10	1	-1E+10	1	-1E+10	1	-1E+10	1	-1E+10	1
4902551	66	C	06/09/2022	01:58	-131.465	48.953	0	279.00	0	6.2550	0	33.9180	0	26.669	0	276.448	0	85.7	4	28.5	4	-1E+10	1	-1E+10	1	-1E+10	1	-1E+10	1	-1E+10	1	-1E+10	1
4902551	66	C	06/09/2022	01:58	-131.465	48.953	0	279.80	0	6.2560	0	33.9180	0	26.668	0	277.240	0	85.5	4	28.4	4	-1E+10	1	-1E+10	1	-1E+10	1	-1E+10	1	-1E+10	1	-1E+10	1
4902551	66	C	06/09/2022	01:58	-131.465	48.953	0	280.90	0	6.2510	0	33.9190	0	26.670	0	278.329	0	85.1	4	28.3	4	-1E+10	1	-1E+10	1	-1E+10	1	-1E+10	1	-1E+10	1	-1E+10	1
4902551	66	C	06/09/2022	01:58	-131.465	48.953	0	282.10	0	6.2240	0	33.9300	0	26.682	0	279.517	0	84.7	4	28.1	4	-1E+10	1	-1E+10	1	-1E+10	1	-1E+10	1	-1E+10	1	-1E+10	1
4902551	66	C	06/09/2022	01:58	-131.465	48.953	0	282.80	0	6.2070	0	33.9210	0	26.677	0	280.211	0	84.6	4	28.1	4	-1E+10	1	-1E+10	1	-1E+10	1	-1E+10	1	-1E+10	1	-1E+10	1
4902551	66	C	06/09/2022	01:58	-131.465	48.953	0	284.00	0	6.1980	0	33.9220	0	26.679	0	281.399	0	84.3	4	28.0	4	-1E+10	1	-1E+10	1	-1E+10	1	-1E+10	1	-1E+10	1	-1E+10	1
4902551	66	C	06/09/2022	01:58	-131.465	48.953	0	285.20	0	6.1750	0	33.9240	0	26.684	0	282.587	0	84.0	4	27.9	4	-1E+10	1	-1E+10	1	-1E+10	1	-1E+10	1	-1E+10	1	-1E+10	1
4902551	66	C	06/09/2022	01:58	-131.465	48.953	0	285.90	0	6.1680	0	33.9240	0	26.684	0	283.280	0	83.8	4	27.8	4	-1E+10	1	-1E+10	1	-1E+10	1	-1E+10	1	-1E+10	1	-1E+10	1
4902551	66	C	06/09/2022	01:58	-131.465	48.953	0	286.70	0	6.1640	0	33.9210	0	26.683	0	284.072	0	83.6	4	27.7	4	-1E+10	1	-1E+10	1	-1E+10	1	-1E+10	1	-1E+10	1	-1E+10	1
4902551	66	C	06/09/2022	01:58	-131.465	48.953	0	287.90	0	6.1560	0	33.9230	0	26.685	0	285.260	0	83.3	4	27.6	4	-1E+10	1	-1E+10	1	-1E+10	1	-1E+10	1	-1E+10	1	-1E+10	1
4902551	66	C	06/09/2022	01:58	-131.465	48.953	0	289.10	0	6.1410	0	33.9210	0	26.686	0	286.449	0	83.0	4	27.5	4	-1E+10	1	-1E+10	1	-1E+10	1	-1E+10	1	-1E+10	1	-1E+10	1
4902551	66	C	06/09/2022	01:58	-131.465	48.953	0	289.90	0	6.1350	0	33.9210	0	26.686	0	287.241	0	82.7	4	27.4	4	-1E+10	1	-1E+10	1	-1E+10	1	-1E+10	1	-1E+10	1	-1E+10	1
4902551	66	C	06/09/2022	01:58	-131.465	48.953	0	290.70	0	6.1340	0	33.9200	0	26.686	0	288.033	0	82.4	4	27.3	4	-1E+10	1	-1E+10	1	-1E+10	1	-1E+10	1	-1E+10	1	-1E+10	1
4902551	66	C	06/09/2022	01:58	-131.465	48.953	0	291.90	0	6.1280	0	33.9220	0	26.688	0	289.221	0	81.9	4	27.1	4	-1E+10	1	-1E+10	1	-1E+10	1	-1E+10	1	-1E+10	1	-1E+10	1
4902551	66	C	06/09/2022	01:58	-131.465	48.953	0	293.20	0	6.0930	0	33.9210	0	26.692	0	290.508	0	81.4	4	26.9	4	-1E+10	1	-1E+10	1	-1E+10	1	-1E+10	1	-1E+10	1	-1E+10	1
4902551	66	C	06/09/2022	01:58	-131.465	48.953	0	294.00	0	6.0800	0	33.9240	0	26.696	0	291.300	0	81.0	4	26.8	4	-1E+10	1	-1E+10	1	-1E+10	1	-1E+10	1	-1E+10	1	-1E+10	1
4902551	66	C	06/09/2022	01:58	-131.465	48.953	0	294.80	0	6.0540	0	33.9240	0	26.699	0	292.092	0	80.6	4	26.7	4	-1E+10	1	-1E+10	1	-1E+10	1	-1E+10	1	-1E+10	1	-1E+10	1
4902551	66	C	06/09/2022	01:58	-131.465	48.953	0	295.70	0	6.0180	0	33.9370	0	26.714	0	292.983	0	80.2	4	26.5	4	-1E+10	1	-1E+10	1	-1E+10	1	-1E+10	1	-1E+10	1	-1E+10	1
4902551	66	C	06/09/2022	01:58	-131.465	48.953	0	296.90	0	5.9870	0	33.9260	0	26.709	0	294.171	0	79.9	4	26.4	4	-1E+10	1	-1E+10	1	-1E+10	1	-1E+10	1	-1E+10	1	-1E+10	1
4902551	66	C	06/09/2022	01:58	-131.465	48.953	0	298.20	0	5.9620	0	33.9290	0	26.714	0	295.459	0	79.5	4	26.2	4	-1E+10	1	-1E+10	1	-1E+10	1	-1E+10	1	-1E+10	1	-1E+10	1
4902551	66	C	06/09/2022	01:58	-131.465	48.953	0	299.10	0	5.9480	0	33.9310	0	26.718	0	296.350	0	79.2	4	26.1	4	-1E+10	1	-1E+10	1	-1E+10	1	-1E+10	1	-1E+10	1	-1E+10	1
4902551	66	C	06/09/2022	01:58	-131.465	48.953	0	300.00	0	5.9290	0	33.9280	0	26.718	0	297.241	0	78.9	4	26.0	4	-1E+10	1	-1E+10	1	-1E+10	1	-1E+10	1	-1E+10	1	-1E+10	1
4902551	66	C	06/09/2022	01:58	-131.465	48.953	0	300.90	0	5.9230	0	33.9290	0	26.719	0	298.132	0	78.7	4	25.9	4	-1E+10	1	-1E+10	1	-1E+10	1	-1E+10	1	-1E+10	1	-1E+10	1
4902551	66	C	06/09/2022	01:58	-131.465	48.953	0	301.70	0	5.9210	0	33.9280	0	26.719	0	298.924	0	78.4	4	25.8	4	-1E+10	1	-1E+10	1	-1E+10	1	-1E+10	1	-1E+10	1	-1E+10	1
4902551	66	C	06/09/2022	01:58	-131.465	48.953	0	302.60	0	5.9140	0	33.9320	0	26.723	0	299.815	0	78.1	4	25.8	4	-1E+10	1	-1E+10	1	-1E+10	1	-1E+10	1	-1E+10	1	-1E+10	1
4902551	66	C	06/09/2022	01:58	-131.465	48.953	0	303.90	0	5.8700	0	33.9370	0	26.732	0	301.102	0	77.9	4	25.7	4	-1E+10	1	-1E+10	1	-1E+10	1	-1E+10	1	-1E+10	1	-1E+10	1
4902551	66	C	06/09/2022	01:58	-131.465	48.953	0	305.30	0	5.8500	0	33.9320	0	26.731	0	302.488	0	77.6	4	25.6	4	-1E+10	1	-1E+10	1	-1E+10	1	-1E+10	1	-1E+10	1	-1E+10	1
4902551	66	C	06/09/2022	01:58	-131.465	48.953	0	306.20	0	5.8470	0	33.9310	0	26.730	0	303.379	0	77.4	4	25.5	4	-1E+10	1	-1E+10	1	-1E+10	1	-1E+10	1	-1E+10	1	-1E+10	1
4902551	66	C	06/09/2022	01:58	-131.465	48.953	0	307.10	0	5.8430	0	33.9340	0	26.733	0	304.270	0	77.2	4	25.4	4	-1E+10	1	-1E+10	1	-1E+10	1	-1E+10	1	-1E+10	1	-1E+10	1
4902551	66	C	06/09/2022	01:58	-131.465	48.953	0	308.00	0	5.8340	0	33.9330	0	26.734	0	305.161	0	77.0	4	25.3	4	-1E+10	1	-1E+10	1	-1E+10	1	-1E+10	1	-1E+10	1	-1E+10	1
4902551	66	C	06/09/2022	01:58	-131.465	48.953	0	308.90	0	5.8220	0	33.9370	0	26.738	0	306.052	0	76.7	4	25.2	4	-1E+10	1	-1E+10	1	-1E+10	1	-1E+10	1	-1E+10	1	-1E+10	1
4902551	66	C	06/09/2022	01:58	-131.465	48.953	0	309.80	0	5.8110	0	33.9310	0	26.735	0	306.943	0	76.5	4	25.2	4	-1E+10	1	-1E+10	1	-1E+10	1	-1E+10	1	-1E+10	1	-1E+10	1
4902551	66	C	06/09/2022	01:58	-131.465	48.953	0	310.70	0	5.8090	0	33.9310	0	26.735	0	307.834	0	76.2	4	25.1	4	-1E+10	1	-1E+10	1	-1E+10	1	-1E+10	1	-1E+10	1	-1E+10	1
4902551	66	C	06/09/2022	01:58	-131.465	48.953	0	311.60	0	5.8060	0	33.9310	0	26.735	0	308.725	0	75.9	4	25.0	4	-1E+10	1	-1E+10	1	-1E+10	1	-1E+10	1	-1E+10	1	-1E+10	1
4902551	66	C	06/09/2022	01:58	-131.465	48.953	0	312.90	0	5.7860	0	33.9350	0	26.741	0	310.012	0	75.4	4	24.8	4	-1E+10	1	-1E+10	1	-1E+10	1	-1E+10	1	-1E+10	1	-1E+10	1
4902551	66	C	06/09/2022	01:58	-131.465	48.953	0	314.40	0	5.7510	0	33.9350	0	26.745	0	311.497	0	75.1	4	24.7	4	-1E+10	1	-1E+10	1	-1E+10	1	-1E+10	1	-1E+10	1	-1E+10	1
4902551	66	C	06/09/2022	01:58	-131.465	48.953	0	315.30	0	5.7470	0	33.9350	0	26.746	0	312.388	0	74.8	4	24.6	4	-1E+10	1	-1E+10	1	-1E+10	1	-1E+10	1	-1E+10	1	-1E+10	1
4902551	66	C	06/09/2022	01:58	-131.465	48.953	0	316.30	0	5.7400	0	33.9370	0	26.748	0	313.378	0	74.5	4	24.5	4	-1E+10	1	-1E+10	1	-1E+10	1	-1E+10	1	-1E+10	1	-1E+10	1
4902551	66	C	06/09/2022	01:58	-131.465	48.953	0	317.20	0	5.7340	0	33.9360	0	26.748	0	314.270	0	74.2	4	24.4	4	-1E+10	1	-1E+10	1	-1E+10	1	-1E+10	1	-1E+10	1	-1E+10	1
4902551	66	C	06/09/2022	01:58	-131.465	48.953	0	318.20	0	5.7300	0	33.9360	0	26.749	0	315.260	0	73.9	4	24.3	4	-1E+10	1	-1E+10	1	-1E+10	1	-1E+10	1	-1E+10	1	-1E+10	1
4902551	66	C	06/09/2022	01:58	-131.465	48.953	0	319.10	0	5.7280	0	33.9360	0	26.749	0	316.151	0	73.6	4	24.2	4	-1E+10	1	-1E+10	1	-1E+10	1	-1E+10	1	-1E+10	1	-1E+10	1
4902551	66	C	06/09/2022	01:58	-131.465	48.953	0	320.00	0	5.7270	0	33.9350	0	26.748	0	317.041	0	73.3	4	24.1	4	-1E+10	1	-1E+10	1	-1E+10	1	-1E+10	1	-1E+10	1	-1E+10	1
4902551	66	C	06/09/2022	01:58	-131.465	48.953	0	321.00	0	5.7240	0	33.9370	0	26.750	0	318.031	0	72.9	4	23.9	4	-1E+10	1	-1E+10	1	-1E+10	1	-1E+10	1	-1E+10	1	-1E+10	1
4902551	66	C	06/09/2022	01:58	-131.465	48.953	0	321.90	0	5.7150	0	33.9380	0	26.752	0	318.922	0	72.4	4	23.8	4	-1E+10	1	-1E+10	1	-1E+10	1	-1E+10	1	-1E+10	1	-1E+10	1
4902551	66	C	06/09/2022	01:58	-131.465	48.953	0	322.80	0	5.7110	0	33.9380	0	26.753	0	319.813	0	72.0	4	23.6	4	-1E+10	1	-1E+10	1	-1E+10	1	-1E+10	1	-1E+10	1	-1E+10	1
4902551	66	C	06/09/2022	01:58	-131.465	48.953	0	323.80	0	5.7070	0	33.9380	0	26.753	0	320.803	0	71.6	4	23.5	4	-1E+10	1	-1E+10	1	-1E+10	1	-1E+10	1	-1E+10	1	-1E+10	1
4902551	66	C	06/09/2022	01:58	-131.465	48.953	0	324.70	0	5.6980	0	33.9410	0	26.757	0	321.694	0	71.1	4	23.3	4	-1E+10	1	-1E+10	1	-1E+10	1	-1E+10	1	-1E+10	1	-1E+10	1
4902551	66	C	06/09/2022	01:58	-131.465	48.953	0	325.60	0	5.6900	0	33.9420	0	26.758	0	322.585	0	70.7	4	23.2	4	-1E+10	1	-1E+10	1	-1E+10	1	-1E+10	1	-1E+10	1	-1E+10	1
4902551	66	C	06/09/2022	01:58	-131.465	48.953	0	326.60	0	5.6750	0	33.9450	0	26.763	0	323.575	0	70.3	4	23.1	4	-1E+10	1	-1E+10	1	-1E+10	1	-1E+10	1	-1E+10	1	-1E+10	1
4902551	66	C	06/09/2022	01:58	-131.465	48.953	0	327.60	0	5.6680	0	33.9450	0	26.764	0	324.565	0	70.0	4	22.9	4	-1E+10	1	-1E+10	1	-1E+10	1	-1E+10	1	-1E+10	1	-1E+10	1
4902551	66	C	06/09/2022	01:58	-131.465	48.953	0	328.90	0	5.6600	0	33.9470	0	26.766	0	325.852	0	69.4	4	22.8	4	-1E+10	1	-1E+10	1	-1E+10	1	-1E+10	1	-1E+10	1	-1E+10	1
4902551	66	C	06/09/2022	01:58	-131.465	48.953	0	330.40	0	5.6450	0	33.9500	0	26.770	0	327.337	0	68.9	4	22.6	4	-1E+10	1	-1E+10	1	-1E+10	1	-1E+10	1	-1E+10	1	-1E+10	1
4902551	66	C	06/09/2022	01:58	-131.465	48.953	0	331.30	0	5.6280	0	33.9510	0	26.773	0	328.228	0	68.5	4	22.4	4	-1E+10	1	-1E+10	1	-1E+10	1	-1E+10	1	-1E+10	1	-1E+10	1
4902551	66	C	06/09/2022	01:58	-131.465	48.953	0	332.20	0	5.6260	0	33.9520	0	26.774	0	329.119	0	68.3	4	22.4	4	-1E+10	1	-1E+10	1	-1E+10	1	-1E+10	1	-1E+10	1	-1E+10	1
4902551	66	C	06/09/2022	01:58	-131.465	48.953	0	333.20	0	5.6240	0	33.9520	0	26.774	0	330.109	0	68.0	4	22.3	4	-1E+10	1	-1E+10	1	-1E+10	1	-1E+10	1	-1E+10	1	-1E+10	1
4902551	66	C	06/09/2022	01:58	-131.465	48.953	0	334.10	0	5.6240	0	33.9520	0	26.774	0	331.000	0	67.8	4	22.2	4	-1E+10	1	-1E+10	1	-1E+10	1	-1E+10	1	-1E+10	1	-1E+10	1
4902551	66	C	06/09/2022	01:58	-131.465	48.953	0	335.00	0	5.6220	0	33.9530	0	26.775	0	331.891	0	67.5	4	22.1	4	-1E+10	1	-1E+10	1	-1E+10	1	-1E+10	1	-1E+10	1	-1E+10	1
4902551	66	C	06/09/2022	01:58	-131.465	48.953	0	336.00	0	5.6220	0	33.9540	0	26.776	0	332.881	0	67.1	4	22.0	4	-1E+10	1	-1E+10	1	-1E+10	1	-1E+10	1	-1E+10	1	-1E+10	1
4902551	66	C	06/09/2022	01:58	-131.465	48.953	0	336.90	0	5.6150	0	33.9570	0	26.780	0	333.772	0	66.9	4	21.9	4	-1E+10	1	-1E+10	1	-1E+10	1	-1E+10	1	-1E+10	1	-1E+10	1
4902551	66	C	06/09/2022	01:58	-131.465	48.953	0	337.90	0	5.6110	0	33.9580	0	26.781	0	334.762	0	66.7	4	21.9	4	-1E+10	1	-1E+10	1	-1E+10	1	-1E+10	1	-1E+10	1	-1E+10	1
4902551	66	C	06/09/2022	01:58	-131.465	48.953	0	338.90	0	5.6110	0	33.9580	0	26.781	0	335.751	0	66.6	4	21.8	4	-1E+10	1	-1E+10	1	-1E+10	1	-1E+10	1	-1E+10	1	-1E+10	1
4902551	66	C	06/09/2022	01:58	-131.465	48.953	0	339.80	0	5.6090	0	33.9580	0	26.781	0	336.642	0	66.4	4	21.7	4	-1E+10	1	-1E+10	1	-1E+10	1	-1E+10	1	-1E+10	1	-1E+10	1
4902551	66	C	06/09/2022	01:58	-131.465	48.953	0	340.80	0	5.6090	0	33.9580	0	26.781	0	337.632	0	66.2	4	21.7	4	-1E+10	1	-1E+10	1	-1E+10	1	-1E+10	1	-1E+10	1	-1E+10	1
4902551	66	C	06/09/2022	01:58	-131.465	48.953	0	341.80	0	5.6080	0	33.9590	0	26.782	0	338.622	0	66.0	4	21.6	4	-1E+10	1	-1E+10	1	-1E+10	1	-1E+10	1	-1E+10	1	-1E+10	1
4902551	66	C	06/09/2022	01:58	-131.465	48.953	0	342.70	0	5.6070	0	33.9590	0	26.782	0	339.513	0	65.8	4	21.6	4	-1E+10	1	-1E+10	1	-1E+10	1	-1E+10	1	-1E+10	1	-1E+10	1
4902551	66	C	06/09/2022	01:58	-131.465	48.953	0	343.70	0	5.6060	0	33.9580	0	26.781	0	340.503	0	65.6	4	21.5	4	-1E+10	1	-1E+10	1	-1E+10	1	-1E+10	1	-1E+10	1	-1E+10	1
4902551	66	C	06/09/2022	01:58	-131.465	48.953	0	344.60	0	5.6060	0	33.9590	0	26.782	0	341.394	0	65.4	4	21.4	4	-1E+10	1	-1E+10	1	-1E+10	1	-1E+10	1	-1E+10	1	-1E+10	1
4902551	66	C	06/09/2022	01:58	-131.465	48.953	0	345.60	0	5.5990	0	33.9630	0	26.786	0	342.384	0	65.4	4	21.4	4	-1E+10	1	-1E+10	1	-1E+10	1	-1E+10	1	-1E+10	1	-1E+10	1
4902551	66	C	06/09/2022	01:58	-131.465	48.953	0	346.50	0	5.5780	0	33.9740	0	26.798	0	343.275	0	65.4	4	21.4	4	-1E+10	1	-1E+10	1	-1E+10	1	-1E+10	1	-1E+10	1	-1E+10	1
4902551	66	C	06/09/2022	01:58	-131.465	48.953	0	347.90	0	5.5200	0	33.9660	0	26.798	0	344.660	0	65.4	4	21.4	4	-1E+10	1	-1E+10	1	-1E+10	1	-1E+10	1	-1E+10	1	-1E+10	1
4902551	66	C	06/09/2022	01:58	-131.465	48.953	0	349.40	0	5.4830	0	33.9680	0	26.804	0	346.145	0	65.4	4	21.4	4	-1E+10	1	-1E+10	1	-1E+10	1	-1E+10	1	-1E+10	1	-1E+10	1
4902551	66	C	06/09/2022	01:58	-131.465	48.953	0	350.40	0	5.4600	0	33.9670	0	26.806	0	347.135	0	65.3	4	21.3	4	-1E+10	1	-1E+10	1	-1E+10	1	-1E+10	1	-1E+10	1	-1E+10	1
4902551	66	C	06/09/2022	01:58	-131.465	48.953	0	353.30	0	5.3900	0	33.9590	0	26.808	0	350.006	0	65.0	4	21.2	4	-1E+10	1	-1E+10	1	-1E+10	1	-1E+10	1	-1E+10	1	-1E+10	1
4902551	66	C	06/09/2022	01:58	-131.465	48.953	0	358.20	0	5.3660	0	33.9560	0	26.809	0	354.856	0	63.9	4	20.8	4	-1E+10	1	-1E+10	1	-1E+10	1	-1E+10	1	-1E+10	1	-1E+10	1
4902551	66	C	06/09/2022	01:58	-131.465	48.953	0	363.20	0	5.3250	0	33.9580	0	26.815	0	359.805	0	62.3	4	20.3	4	-1E+10	1	-1E+10	1	-1E+10	1	-1E+10	1	-1E+10	1	-1E+10	1
4902551	66	C	06/09/2022	01:58	-131.465	48.953	0	368.30	0	5.3040	0	33.9500	0	26.811	0	364.852	0	59.9	4	19.5	4	-1E+10	1	-1E+10	1	-1E+10	1	-1E+10	1	-1E+10	1	-1E+10	1
4902551	66	C	06/09/2022	01:58	-131.465	48.953	0	373.30	0	5.3020	0	33.9740	0	26.830	0	369.801	0	58.0	4	18.9	4	-1E+10	1	-1E+10	1	-1E+10	1	-1E+10	1	-1E+10	1	-1E+10	1
4902551	66	C	06/09/2022	01:58	-131.465	48.953	0	377.90	0	5.2730	0	33.9750	0	26.835	0	374.354	0	56.6	4	18.4	4	-1E+10	1	-1E+10	1	-1E+10	1	-1E+10	1	-1E+10	1	-1E+10	1
4902551	66	C	06/09/2022	01:58	-131.465	48.953	0	382.50	0	5.2610	0	33.9770	0	26.838	0	378.907	0	54.4	4	17.7	4	-1E+10	1	-1E+10	1	-1E+10	1	-1E+10	1	-1E+10	1	-1E+10	1
4902551	66	C	06/09/2022	01:58	-131.465	48.953	0	387.50	0	5.3220	0	33.9860	0	26.838	0	383.855	0	51.3	4	16.7	4	-1E+10	1	-1E+10	1	-1E+10	1	-1E+10	1	-1E+10	1	-1E+10	1
4902551	66	C	06/09/2022	01:58	-131.465	48.953	0	392.50	0	5.3130	0	34.0070	0	26.856	0	388.803	0	50.3	4	16.4	4	-1E+10	1	-1E+10	1	-1E+10	1	-1E+10	1	-1E+10	1	-1E+10	1
4902551	66	C	06/09/2022	01:58	-131.465	48.953	0	397.50	0	5.2760	0	34.0050	0	26.858	0	393.751	0	49.4	4	16.0	4	-1E+10	1	-1E+10	1	-1E+10	1	-1E+10	1	-1E+10	1	-1E+10	1
4902551	66	C	06/09/2022	01:58	-131.465	48.953	0	402.60	0	5.1830	0	34.0150	0	26.877	0	398.798	0	48.4	4	15.7	4	-1E+10	1	-1E+10	1	-1E+10	1	-1E+10	1	-1E+10	1	-1E+10	1
4902551	66	C	06/09/2022	01:58	-131.465	48.953	0	407.60	0	5.1050	0	34.0100	0	26.882	0	403.746	0	47.6	4	15.4	4	-1E+10	1	-1E+10	1	-1E+10	1	-1E+10	1	-1E+10	1	-1E+10	1
4902551	66	C	06/09/2022	01:58	-131.465	48.953	0	412.70	0	5.0860	0	34.0120	0	26.886	0	408.793	0	47.0	4	15.2	4	-1E+10	1	-1E+10	1	-1E+10	1	-1E+10	1	-1E+10	1	-1E+10	1
4902551	66	C	06/09/2022	01:58	-131.465	48.953	0	417.80	0	5.0540	0	34.0130	0	26.890	0	413.840	0	46.2	4	14.9	4	-1E+10	1	-1E+10	1	-1E+10	1	-1E+10	1	-1E+10	1	-1E+10	1
4902551	66	C	06/09/2022	01:58	-131.465	48.953	0	422.80	0	4.9670	0	34.0170	0	26.904	0	418.787	0	45.2	4	14.6	4	-1E+10	1	-1E+10	1	-1E+10	1	-1E+10	1	-1E+10	1	-1E+10	1
4902551	66	C	06/09/2022	01:58	-131.465	48.953	0	427.70	0	4.9150	0	34.0180	0	26.910	0	423.636	0	44.5	4	14.3	4	-1E+10	1	-1E+10	1	-1E+10	1	-1E+10	1	-1E+10	1	-1E+10	1
4902551	66	C	06/09/2022	01:58	-131.465	48.953	0	432.60	0	4.8990	0	34.0210	0	26.914	0	428.484	0	44.0	4	14.2	4	-1E+10	1	-1E+10	1	-1E+10	1	-1E+10	1	-1E+10	1	-1E+10	1
4902551	66	C	06/09/2022	01:58	-131.465	48.953	0	437.90	0	4.8910	0	34.0220	0	26.916	0	433.728	0	43.4	4	14.0	4	-1E+10	1	-1E+10	1	-1E+10	1	-1E+10	1	-1E+10	1	-1E+10	1
4902551	66	C	06/09/2022	01:58	-131.465	48.953	0	443.20	0	4.8800	0	34.0240	0	26.919	0	438.972	0	42.7	4	13.8	4	-1E+10	1	-1E+10	1	-1E+10	1	-1E+10	1	-1E+10	1	-1E+10	1
4902551	66	C	06/09/2022	01:58	-131.465	48.953	0	447.90	0	4.8680	0	34.0270	0	26.923	0	443.622	0	42.0	4	13.5	4	-1E+10	1	-1E+10	1	-1E+10	1	-1E+10	1	-1E+10	1	-1E+10	1
4902551	66	C	06/09/2022	01:58	-131.465	48.953	0	452.60	0	4.8560	0	34.0300	0	26.927	0	448.272	0	41.2	4	13.3	4	-1E+10	1	-1E+10	1	-1E+10	1	-1E+10	1	-1E+10	1	-1E+10	1
4902551	66	C	06/09/2022	01:58	-131.465	48.953	0	457.80	0	4.8460	0	34.0320	0	26.929	0	453.417	0	40.3	4	13.0	4	-1E+10	1	-1E+10	1	-1E+10	1	-1E+10	1	-1E+10	1	-1E+10	1
4902551	66	C	06/09/2022	01:58	-131.465	48.953	0	463.20	0	4.8340	0	34.0350	0	26.933	0	458.759	0	38.9	4	12.5	4	-1E+10	1	-1E+10	1	-1E+10	1	-1E+10	1	-1E+10	1	-1E+10	1
4902551	66	C	06/09/2022	01:58	-131.465	48.953	0	467.90	0	4.8040	0	34.0450	0	26.944	0	463.409	0	37.6	4	12.1	4	-1E+10	1	-1E+10	1	-1E+10	1	-1E+10	1	-1E+10	1	-1E+10	1
4902551	66	C	06/09/2022	01:58	-131.465	48.953	0	472.70	0	4.7820	0	34.0510	0	26.952	0	468.157	0	36.9	4	11.9	4	-1E+10	1	-1E+10	1	-1E+10	1	-1E+10	1	-1E+10	1	-1E+10	1
4902551	66	C	06/09/2022	01:58	-131.465	48.953	0	477.60	0	4.7700	0	34.0550	0	26.956	0	473.005	0	36.7	4	11.8	4	-1E+10	1	-1E+10	1	-1E+10	1	-1E+10	1	-1E+10	1	-1E+10	1
4902551	66	C	06/09/2022	01:58	-131.465	48.953	0	482.60	0	4.7310	0	34.0620	0	26.966	0	477.951	0	37.1	4	11.9	4	-1E+10	1	-1E+10	1	-1E+10	1	-1E+10	1	-1E+10	1	-1E+10	1
4902551	66	C	06/09/2022	01:58	-131.465	48.953	0	487.70	0	4.6670	0	34.0580	0	26.970	0	482.996	0	38.6	4	12.4	4	-1E+10	1	-1E+10	1	-1E+10	1	-1E+10	1	-1E+10	1	-1E+10	1
4902551	66	C	06/09/2022	01:58	-131.465	48.953	0	493.10	0	4.4830	0	34.0550	0	26.988	0	488.337	0	39.9	4	12.7	4	-1E+10	1	-1E+10	1	-1E+10	1	-1E+10	1	-1E+10	1	-1E+10	1
4902551	66	C	06/09/2022	01:58	-131.465	48.953	0	498.10	0	4.3600	0	34.0380	0	26.987	0	493.283	0	39.0	4	12.4	4	-1E+10	1	-1E+10	1	-1E+10	1	-1E+10	1	-1E+10	1	-1E+10	1
4902551	66	C	06/09/2022	01:58	-131.465	48.953	0	502.70	0	4.3460	0	34.0430	0	26.993	0	497.833	0	37.1	4	11.8	4	-1E+10	1	-1E+10	1	-1E+10	1	-1E+10	1	-1E+10	1	-1E+10	1
4902551	66	C	06/09/2022	01:58	-131.465	48.953	0	508.00	0	4.3370	0	34.0520	0	27.001	0	503.076	0	35.2	4	11.2	4	-1E+10	1	-1E+10	1	-1E+10	1	-1E+10	1	-1E+10	1	-1E+10	1
4902551	66	C	06/09/2022	01:58	-131.465	48.953	0	513.30	0	4.3160	0	34.0580	0	27.008	0	508.318	0	32.5	4	10.3	4	-1E+10	1	-1E+10	1	-1E+10	1	-1E+10	1	-1E+10	1	-1E+10	1
4902551	66	C	06/09/2022	01:58	-131.465	48.953	0	518.30	0	4.3740	0	34.0700	0	27.011	0	513.263	0	29.6	4	9.4	4	-1E+10	1	-1E+10	1	-1E+10	1	-1E+10	1	-1E+10	1	-1E+10	1
4902551	66	C	06/09/2022	01:58	-131.465	48.953	0	523.00	0	4.4380	0	34.0950	0	27.025	0	517.911	0	28.3	4	9.0	4	-1E+10	1	-1E+10	1	-1E+10	1	-1E+10	1	-1E+10	1	-1E+10	1
4902551	66	C	06/09/2022	01:58	-131.465	48.953	0	527.80	0	4.4130	0	34.0980	0	27.030	0	522.659	0	27.8	4	8.9	4	-1E+10	1	-1E+10	1	-1E+10	1	-1E+10	1	-1E+10	1	-1E+10	1
4902551	66	C	06/09/2022	01:58	-131.465	48.953	0	532.70	0	4.3550	0	34.1010	0	27.038	0	527.505	0	26.5	4	8.4	4	-1E+10	1	-1E+10	1	-1E+10	1	-1E+10	1	-1E+10	1	-1E+10	1
4902551	66	C	06/09/2022	01:58	-131.465	48.953	0	537.70	0	4.3460	0	34.1040	0	27.042	0	532.450	0	24.7	4	7.8	4	-1E+10	1	-1E+10	1	-1E+10	1	-1E+10	1	-1E+10	1	-1E+10	1
4902551	66	C	06/09/2022	01:58	-131.465	48.953	0	542.70	0	4.4030	0	34.1230	0	27.051	0	537.394	0	23.4	4	7.5	4	-1E+10	1	-1E+10	1	-1E+10	1	-1E+10	1	-1E+10	1	-1E+10	1
4902551	66	C	06/09/2022	01:58	-131.465	48.953	0	547.70	0	4.3620	0	34.1320	0	27.062	0	542.339	0	23.4	4	7.4	4	-1E+10	1	-1E+10	1	-1E+10	1	-1E+10	1	-1E+10	1	-1E+10	1
4902551	66	C	06/09/2022	01:58	-131.465	48.953	0	552.80	0	4.3460	0	34.1320	0	27.064	0	547.382	0	24.0	4	7.6	4	-1E+10	1	-1E+10	1	-1E+10	1	-1E+10	1	-1E+10	1	-1E+10	1
4902551	66	C	06/09/2022	01:58	-131.465	48.953	0	557.80	0	4.2630	0	34.1340	0	27.074	0	552.327	0	24.9	4	7.9	4	-1E+10	1	-1E+10	1	-1E+10	1	-1E+10	1	-1E+10	1	-1E+10	1
4902551	66	C	06/09/2022	01:58	-131.465	48.953	0	563.00	0	4.1730	0	34.1250	0	27.077	0	557.469	0	24.8	4	7.9	4	-1E+10	1	-1E+10	1	-1E+10	1	-1E+10	1	-1E+10	1	-1E+10	1
4902551	66	C	06/09/2022	01:58	-131.465	48.953	0	567.60	0	4.1650	0	34.1220	0	27.075	0	562.017	0	23.5	4	7.4	4	-1E+10	1	-1E+10	1	-1E+10	1	-1E+10	1	-1E+10	1	-1E+10	1
4902551	66	C	06/09/2022	01:58	-131.465	48.953	0	572.90	0	4.1940	0	34.1330	0	27.081	0	567.258	0	22.6	4	7.2	4	-1E+10	1	-1E+10	1	-1E+10	1	-1E+10	1	-1E+10	1	-1E+10	1
4902551	66	C	06/09/2022	01:58	-131.465	48.953	0	578.30	0	4.2060	0	34.1350	0	27.081	0	572.597	0	21.7	4	6.9	4	-1E+10	1	-1E+10	1	-1E+10	1	-1E+10	1	-1E+10	1	-1E+10	1
4902551	66	C	06/09/2022	01:58	-131.465	48.953	0	583.10	0	4.2040	0	34.1430	0	27.088	0	577.343	0	21.0	4	6.7	4	-1E+10	1	-1E+10	1	-1E+10	1	-1E+10	1	-1E+10	1	-1E+10	1
4902551	66	C	06/09/2022	01:58	-131.465	48.953	0	588.10	0	4.1640	0	34.1480	0	27.096	0	582.287	0	20.2	4	6.4	4	-1E+10	1	-1E+10	1	-1E+10	1	-1E+10	1	-1E+10	1	-1E+10	1
4902551	66	C	06/09/2022	01:58	-131.465	48.953	0	593.00	0	4.1970	0	34.1540	0	27.097	0	587.132	0	19.5	4	6.2	4	-1E+10	1	-1E+10	1	-1E+10	1	-1E+10	1	-1E+10	1	-1E+10	1
4902551	66	C	06/09/2022	01:58	-131.465	48.953	0	598.00	0	4.1860	0	34.1610	0	27.104	0	592.075	0	19.3	4	6.1	4	-1E+10	1	-1E+10	1	-1E+10	1	-1E+10	1	-1E+10	1	-1E+10	1
4902551	66	C	06/09/2022	01:58	-131.465	48.953	0	603.00	0	4.1710	0	34.1650	0	27.109	0	597.018	0	19.4	4	6.1	4	-1E+10	1	-1E+10	1	-1E+10	1	-1E+10	1	-1E+10	1	-1E+10	1
4902551	66	C	06/09/2022	01:58	-131.465	48.953	0	608.00	0	4.1370	0	34.1660	0	27.113	0	601.961	0	19.6	4	6.2	4	-1E+10	1	-1E+10	1	-1E+10	1	-1E+10	1	-1E+10	1	-1E+10	1
4902551	66	C	06/09/2022	01:58	-131.465	48.953	0	613.10	0	4.1040	0	34.1630	0	27.114	0	607.003	0	19.5	4	6.2	4	-1E+10	1	-1E+10	1	-1E+10	1	-1E+10	1	-1E+10	1	-1E+10	1
4902551	66	C	06/09/2022	01:58	-131.465	48.953	0	618.10	0	4.0730	0	34.1650	0	27.119	0	611.946	0	19.0	4	6.0	4	-1E+10	1	-1E+10	1	-1E+10	1	-1E+10	1	-1E+10	1	-1E+10	1
4902551	66	C	06/09/2022	01:58	-131.465	48.953	0	623.10	0	4.0500	0	34.1670	0	27.123	0	616.889	0	18.3	4	5.8	4	-1E+10	1	-1E+10	1	-1E+10	1	-1E+10	1	-1E+10	1	-1E+10	1
4902551	66	C	06/09/2022	01:58	-131.465	48.953	0	627.90	0	4.0530	0	34.1700	0	27.125	0	621.634	0	17.2	4	5.4	4	-1E+10	1	-1E+10	1	-1E+10	1	-1E+10	1	-1E+10	1	-1E+10	1
4902551	66	C	06/09/2022	01:58	-131.465	48.953	0	632.80	0	4.0800	0	34.1850	0	27.134	0	626.478	0	16.5	4	5.2	4	-1E+10	1	-1E+10	1	-1E+10	1	-1E+10	1	-1E+10	1	-1E+10	1
4902551	66	C	06/09/2022	01:58	-131.465	48.953	0	637.80	0	4.0740	0	34.1840	0	27.134	0	631.420	0	15.7	4	5.0	4	-1E+10	1	-1E+10	1	-1E+10	1	-1E+10	1	-1E+10	1	-1E+10	1
4902551	66	C	06/09/2022	01:58	-131.465	48.953	0	643.00	0	4.1190	0	34.1950	0	27.138	0	636.560	0	14.9	4	4.7	4	-1E+10	1	-1E+10	1	-1E+10	1	-1E+10	1	-1E+10	1	-1E+10	1
4902551	66	C	06/09/2022	01:58	-131.465	48.953	0	647.80	0	4.1270	0	34.2030	0	27.144	0	641.305	0	14.5	4	4.6	4	-1E+10	1	-1E+10	1	-1E+10	1	-1E+10	1	-1E+10	1	-1E+10	1
4902551	66	C	06/09/2022	01:58	-131.465	48.953	0	652.80	0	4.1130	0	34.2070	0	27.149	0	646.247	0	14.3	4	4.5	4	-1E+10	1	-1E+10	1	-1E+10	1	-1E+10	1	-1E+10	1	-1E+10	1
4902551	66	C	06/09/2022	01:58	-131.465	48.953	0	657.90	0	4.0800	0	34.2090	0	27.154	0	651.288	0	13.9	4	4.4	4	-1E+10	1	-1E+10	1	-1E+10	1	-1E+10	1	-1E+10	1	-1E+10	1
4902551	66	C	06/09/2022	01:58	-131.465	48.953	0	662.70	0	4.0770	0	34.2170	0	27.160	0	656.032	0	13.6	4	4.3	4	-1E+10	1	-1E+10	1	-1E+10	1	-1E+10	1	-1E+10	1	-1E+10	1
4902551	66	C	06/09/2022	01:58	-131.465	48.953	0	667.70	0	4.0700	0	34.2220	0	27.165	0	660.974	0	13.4	4	4.2	4	-1E+10	1	-1E+10	1	-1E+10	1	-1E+10	1	-1E+10	1	-1E+10	1
4902551	66	C	06/09/2022	01:58	-131.465	48.953	0	672.60	0	4.0520	0	34.2240	0	27.169	0	665.817	0	13.2	4	4.2	4	-1E+10	1	-1E+10	1	-1E+10	1	-1E+10	1	-1E+10	1	-1E+10	1
4902551	66	C	06/09/2022	01:58	-131.465	48.953	0	677.70	0	4.0400	0	34.2280	0	27.173	0	670.857	0	13.0	4	4.1	4	-1E+10	1	-1E+10	1	-1E+10	1	-1E+10	1	-1E+10	1	-1E+10	1
4902551	66	C	06/09/2022	01:58	-131.465	48.953	0	682.70	0	4.0260	0	34.2320	0	27.178	0	675.798	0	12.9	4	4.1	4	-1E+10	1	-1E+10	1	-1E+10	1	-1E+10	1	-1E+10	1	-1E+10	1
4902551	66	C	06/09/2022	01:58	-131.465	48.953	0	687.70	0	4.0180	0	34.2320	0	27.179	0	680.740	0	12.8	4	4.0	4	-1E+10	1	-1E+10	1	-1E+10	1	-1E+10	1	-1E+10	1	-1E+10	1
4902551	66	C	06/09/2022	01:58	-131.465	48.953	0	692.70	0	4.0200	0	34.2370	0	27.182	0	685.681	0	12.7	4	4.0	4	-1E+10	1	-1E+10	1	-1E+10	1	-1E+10	1	-1E+10	1	-1E+10	1
4902551	66	C	06/09/2022	01:58	-131.465	48.953	0	697.80	0	4.0130	0	34.2380	0	27.184	0	690.721	0	12.8	4	4.0	4	-1E+10	1	-1E+10	1	-1E+10	1	-1E+10	1	-1E+10	1	-1E+10	1
4902551	66	C	06/09/2022	01:58	-131.465	48.953	0	702.90	0	3.9850	0	34.2400	0	27.188	0	695.761	0	12.9	4	4.1	4	-1E+10	1	-1E+10	1	-1E+10	1	-1E+10	1	-1E+10	1	-1E+10	1
4902551	66	C	06/09/2022	01:58	-131.465	48.953	0	707.90	0	3.9610	0	34.2410	0	27.192	0	700.701	0	12.9	4	4.1	4	-1E+10	1	-1E+10	1	-1E+10	1	-1E+10	1	-1E+10	1	-1E+10	1
4902551	66	C	06/09/2022	01:58	-131.465	48.953	0	712.90	0	3.9490	0	34.2410	0	27.193	0	705.642	0	12.7	4	4.0	4	-1E+10	1	-1E+10	1	-1E+10	1	-1E+10	1	-1E+10	1	-1E+10	1
4902551	66	C	06/09/2022	01:58	-131.465	48.953	0	717.90	0	3.9380	0	34.2440	0	27.197	0	710.583	0	12.4	4	3.9	4	-1E+10	1	-1E+10	1	-1E+10	1	-1E+10	1	-1E+10	1	-1E+10	1
4902551	66	C	06/09/2022	01:58	-131.465	48.953	0	722.80	0	3.9400	0	34.2460	0	27.198	0	715.424	0	12.1	4	3.8	4	-1E+10	1	-1E+10	1	-1E+10	1	-1E+10	1	-1E+10	1	-1E+10	1
4902551	66	C	06/09/2022	01:58	-131.465	48.953	0	727.80	0	3.9370	0	34.2530	0	27.204	0	720.365	0	11.8	4	3.7	4	-1E+10	1	-1E+10	1	-1E+10	1	-1E+10	1	-1E+10	1	-1E+10	1
4902551	66	C	06/09/2022	01:58	-131.465	48.953	0	732.80	0	3.9300	0	34.2590	0	27.209	0	725.305	0	11.7	4	3.7	4	-1E+10	1	-1E+10	1	-1E+10	1	-1E+10	1	-1E+10	1	-1E+10	1
4902551	66	C	06/09/2022	01:58	-131.465	48.953	0	737.80	0	3.9230	0	34.2610	0	27.212	0	730.245	0	11.7	4	3.7	4	-1E+10	1	-1E+10	1	-1E+10	1	-1E+10	1	-1E+10	1	-1E+10	1
4902551	66	C	06/09/2022	01:58	-131.465	48.953	0	742.80	0	3.9090	0	34.2640	0	27.216	0	735.185	0	11.6	4	3.7	4	-1E+10	1	-1E+10	1	-1E+10	1	-1E+10	1	-1E+10	1	-1E+10	1
4902551	66	C	06/09/2022	01:58	-131.465	48.953	0	747.80	0	3.8820	0	34.2690	0	27.222	0	740.125	0	11.7	4	3.7	4	-1E+10	1	-1E+10	1	-1E+10	1	-1E+10	1	-1E+10	1	-1E+10	1
4902551	66	C	06/09/2022	01:58	-131.465	48.953	0	753.00	0	3.8640	0	34.2690	0	27.224	0	745.262	0	11.7	4	3.7	4	-1E+10	1	-1E+10	1	-1E+10	1	-1E+10	1	-1E+10	1	-1E+10	1
4902551	66	C	06/09/2022	01:58	-131.465	48.953	0	758.20	0	3.8580	0	34.2690	0	27.225	0	750.399	0	11.7	4	3.7	4	-1E+10	1	-1E+10	1	-1E+10	1	-1E+10	1	-1E+10	1	-1E+10	1
4902551	66	C	06/09/2022	01:58	-131.465	48.953	0	763.30	0	3.8530	0	34.2690	0	27.225	0	755.438	0	11.7	4	3.7	4	-1E+10	1	-1E+10	1	-1E+10	1	-1E+10	1	-1E+10	1	-1E+10	1
4902551	66	C	06/09/2022	01:58	-131.465	48.953	0	767.90	0	3.8500	0	34.2700	0	27.226	0	759.982	0	11.6	4	3.6	4	-1E+10	1	-1E+10	1	-1E+10	1	-1E+10	1	-1E+10	1	-1E+10	1
4902551	66	C	06/09/2022	01:58	-131.465	48.953	0	772.50	0	3.8480	0	34.2710	0	27.227	0	764.526	0	11.5	4	3.6	4	-1E+10	1	-1E+10	1	-1E+10	1	-1E+10	1	-1E+10	1	-1E+10	1
4902551	66	C	06/09/2022	01:58	-131.465	48.953	0	777.90	0	3.8350	0	34.2770	0	27.234	0	769.860	0	11.3	4	3.6	4	-1E+10	1	-1E+10	1	-1E+10	1	-1E+10	1	-1E+10	1	-1E+10	1
4902551	66	C	06/09/2022	01:58	-131.465	48.953	0	783.30	0	3.8100	0	34.2830	0	27.241	0	775.195	0	11.2	4	3.5	4	-1E+10	1	-1E+10	1	-1E+10	1	-1E+10	1	-1E+10	1	-1E+10	1
4902551	66	C	06/09/2022	01:58	-131.465	48.953	0	788.10	0	3.8040	0	34.2840	0	27.242	0	779.936	0	11.2	4	3.5	4	-1E+10	1	-1E+10	1	-1E+10	1	-1E+10	1	-1E+10	1	-1E+10	1
4902551	66	C	06/09/2022	01:58	-131.465	48.953	0	793.10	0	3.7950	0	34.2840	0	27.243	0	784.875	0	11.2	4	3.5	4	-1E+10	1	-1E+10	1	-1E+10	1	-1E+10	1	-1E+10	1	-1E+10	1
4902551	66	C	06/09/2022	01:58	-131.465	48.953	0	798.00	0	3.7580	0	34.2900	0	27.252	0	789.715	0	11.1	4	3.5	4	-1E+10	1	-1E+10	1	-1E+10	1	-1E+10	1	-1E+10	1	-1E+10	1
4902551	66	C	06/09/2022	01:58	-131.465	48.953	0	802.70	0	3.7420	0	34.2930	0	27.256	0	794.357	0	11.1	4	3.5	4	-1E+10	1	-1E+10	1	-1E+10	1	-1E+10	1	-1E+10	1	-1E+10	1
4902551	66	C	06/09/2022	01:58	-131.465	48.953	0	807.90	0	3.7340	0	34.2960	0	27.259	0	799.493	0	11.0	4	3.5	4	-1E+10	1	-1E+10	1	-1E+10	1	-1E+10	1	-1E+10	1	-1E+10	1
4902551	66	C	06/09/2022	01:58	-131.465	48.953	0	813.10	0	3.7260	0	34.2970	0	27.261	0	804.629	0	11.0	4	3.4	4	-1E+10	1	-1E+10	1	-1E+10	1	-1E+10	1	-1E+10	1	-1E+10	1
4902551	66	C	06/09/2022	01:58	-131.465	48.953	0	818.00	0	3.7130	0	34.3010	0	27.265	0	809.468	0	11.0	4	3.4	4	-1E+10	1	-1E+10	1	-1E+10	1	-1E+10	1	-1E+10	1	-1E+10	1
4902551	66	C	06/09/2022	01:58	-131.465	48.953	0	823.00	0	3.6970	0	34.3060	0	27.271	0	814.406	0	11.0	4	3.4	4	-1E+10	1	-1E+10	1	-1E+10	1	-1E+10	1	-1E+10	1	-1E+10	1
4902551	66	C	06/09/2022	01:58	-131.465	48.953	0	827.70	0	3.6650	0	34.3040	0	27.272	0	819.048	0	10.9	4	3.4	4	-1E+10	1	-1E+10	1	-1E+10	1	-1E+10	1	-1E+10	1	-1E+10	1
4902551	66	C	06/09/2022	01:58	-131.465	48.953	0	832.60	0	3.6610	0	34.3090	0	27.277	0	823.887	0	10.8	4	3.4	4	-1E+10	1	-1E+10	1	-1E+10	1	-1E+10	1	-1E+10	1	-1E+10	1
4902551	66	C	06/09/2022	01:58	-131.465	48.953	0	837.50	0	3.6600	0	34.3120	0	27.279	0	828.726	0	10.9	4	3.4	4	-1E+10	1	-1E+10	1	-1E+10	1	-1E+10	1	-1E+10	1	-1E+10	1
4902551	66	C	06/09/2022	01:58	-131.465	48.953	0	842.70	0	3.6360	0	34.3130	0	27.282	0	833.861	0	10.9	4	3.4	4	-1E+10	1	-1E+10	1	-1E+10	1	-1E+10	1	-1E+10	1	-1E+10	1
4902551	66	C	06/09/2022	01:58	-131.465	48.953	0	847.80	0	3.6180	0	34.3140	0	27.285	0	838.898	0	11.0	4	3.4	4	-1E+10	1	-1E+10	1	-1E+10	1	-1E+10	1	-1E+10	1	-1E+10	1
4902551	66	C	06/09/2022	01:58	-131.465	48.953	0	852.70	0	3.5930	0	34.3140	0	27.287	0	843.736	0	11.0	4	3.4	4	-1E+10	1	-1E+10	1	-1E+10	1	-1E+10	1	-1E+10	1	-1E+10	1
4902551	66	C	06/09/2022	01:58	-131.465	48.953	0	857.90	0	3.5940	0	34.3160	0	27.289	0	848.871	0	10.9	4	3.4	4	-1E+10	1	-1E+10	1	-1E+10	1	-1E+10	1	-1E+10	1	-1E+10	1
4902551	66	C	06/09/2022	01:58	-131.465	48.953	0	863.20	0	3.5830	0	34.3190	0	27.292	0	854.105	0	10.9	4	3.4	4	-1E+10	1	-1E+10	1	-1E+10	1	-1E+10	1	-1E+10	1	-1E+10	1
4902551	66	C	06/09/2022	01:58	-131.465	48.953	0	867.80	0	3.5770	0	34.3240	0	27.297	0	858.647	0	10.9	4	3.4	4	-1E+10	1	-1E+10	1	-1E+10	1	-1E+10	1	-1E+10	1	-1E+10	1
4902551	66	C	06/09/2022	01:58	-131.465	48.953	0	872.60	0	3.5680	0	34.3230	0	27.297	0	863.386	0	10.8	4	3.4	4	-1E+10	1	-1E+10	1	-1E+10	1	-1E+10	1	-1E+10	1	-1E+10	1
4902551	66	C	06/09/2022	01:58	-131.465	48.953	0	877.70	0	3.5760	0	34.3290	0	27.301	0	868.422	0	10.9	4	3.4	4	-1E+10	1	-1E+10	1	-1E+10	1	-1E+10	1	-1E+10	1	-1E+10	1
4902551	66	C	06/09/2022	01:58	-131.465	48.953	0	882.90	0	3.5380	0	34.3280	0	27.304	0	873.556	0	10.9	4	3.4	4	-1E+10	1	-1E+10	1	-1E+10	1	-1E+10	1	-1E+10	1	-1E+10	1
4902551	66	C	06/09/2022	01:58	-131.465	48.953	0	887.90	0	3.5350	0	34.3320	0	27.308	0	878.493	0	10.8	4	3.4	4	-1E+10	1	-1E+10	1	-1E+10	1	-1E+10	1	-1E+10	1	-1E+10	1
4902551	66	C	06/09/2022	01:58	-131.465	48.953	0	892.90	0	3.5300	0	34.3360	0	27.311	0	883.429	0	10.8	4	3.4	4	-1E+10	1	-1E+10	1	-1E+10	1	-1E+10	1	-1E+10	1	-1E+10	1
4902551	66	C	06/09/2022	01:58	-131.465	48.953	0	898.20	0	3.5200	0	34.3370	0	27.313	0	888.661	0	10.9	4	3.4	4	-1E+10	1	-1E+10	1	-1E+10	1	-1E+10	1	-1E+10	1	-1E+10	1
4902551	66	C	06/09/2022	01:58	-131.465	48.953	0	903.00	0	3.5130	0	34.3370	0	27.314	0	893.400	0	10.9	4	3.4	4	-1E+10	1	-1E+10	1	-1E+10	1	-1E+10	1	-1E+10	1	-1E+10	1
4902551	66	C	06/09/2022	01:58	-131.465	48.953	0	907.80	0	3.5060	0	34.3390	0	27.316	0	898.139	0	10.9	4	3.4	4	-1E+10	1	-1E+10	1	-1E+10	1	-1E+10	1	-1E+10	1	-1E+10	1
4902551	66	C	06/09/2022	01:58	-131.465	48.953	0	912.70	0	3.4970	0	34.3420	0	27.319	0	902.976	0	11.0	4	3.4	4	-1E+10	1	-1E+10	1	-1E+10	1	-1E+10	1	-1E+10	1	-1E+10	1
4902551	66	C	06/09/2022	01:58	-131.465	48.953	0	917.70	0	3.4670	0	34.3420	0	27.322	0	907.912	0	11.2	4	3.5	4	-1E+10	1	-1E+10	1	-1E+10	1	-1E+10	1	-1E+10	1	-1E+10	1
4902551	66	C	06/09/2022	01:58	-131.465	48.953	0	922.80	0	3.4500	0	34.3400	0	27.322	0	912.947	0	11.2	4	3.5	4	-1E+10	1	-1E+10	1	-1E+10	1	-1E+10	1	-1E+10	1	-1E+10	1
4902551	66	C	06/09/2022	01:58	-131.465	48.953	0	927.90	0	3.4140	0	34.3460	0	27.331	0	917.981	0	11.4	4	3.5	4	-1E+10	1	-1E+10	1	-1E+10	1	-1E+10	1	-1E+10	1	-1E+10	1
4902551	66	C	06/09/2022	01:58	-131.465	48.953	0	933.10	0	3.3790	0	34.3430	0	27.332	0	923.114	0	11.4	4	3.6	4	-1E+10	1	-1E+10	1	-1E+10	1	-1E+10	1	-1E+10	1	-1E+10	1
4902551	66	C	06/09/2022	01:58	-131.465	48.953	0	937.90	0	3.3680	0	34.3420	0	27.332	0	927.852	0	11.4	4	3.6	4	-1E+10	1	-1E+10	1	-1E+10	1	-1E+10	1	-1E+10	1	-1E+10	1
4902551	66	C	06/09/2022	01:58	-131.465	48.953	0	942.70	0	3.3580	0	34.3450	0	27.335	0	932.590	0	11.5	4	3.6	4	-1E+10	1	-1E+10	1	-1E+10	1	-1E+10	1	-1E+10	1	-1E+10	1
4902551	66	C	06/09/2022	01:58	-131.465	48.953	0	948.00	0	3.3500	0	34.3470	0	27.338	0	937.821	0	11.5	4	3.6	4	-1E+10	1	-1E+10	1	-1E+10	1	-1E+10	1	-1E+10	1	-1E+10	1
4902551	66	C	06/09/2022	01:58	-131.465	48.953	0	952.80	0	3.3320	0	34.3500	0	27.342	0	942.559	0	11.5	4	3.6	4	-1E+10	1	-1E+10	1	-1E+10	1	-1E+10	1	-1E+10	1	-1E+10	1
4902551	66	C	06/09/2022	01:58	-131.465	48.953	0	957.80	0	3.3100	0	34.3520	0	27.345	0	947.494	0	11.5	4	3.6	4	-1E+10	1	-1E+10	1	-1E+10	1	-1E+10	1	-1E+10	1	-1E+10	1
4902551	66	C	06/09/2022	01:58	-131.465	48.953	0	963.20	0	3.3120	0	34.3570	0	27.349	0	952.823	0	11.5	4	3.6	4	-1E+10	1	-1E+10	1	-1E+10	1	-1E+10	1	-1E+10	1	-1E+10	1
4902551	66	C	06/09/2022	01:58	-131.465	48.953	0	968.20	0	3.3120	0	34.3590	0	27.351	0	957.758	0	11.5	4	3.6	4	-1E+10	1	-1E+10	1	-1E+10	1	-1E+10	1	-1E+10	1	-1E+10	1
4902551	66	C	06/09/2022	01:58	-131.465	48.953	0	973.20	0	3.3080	0	34.3610	0	27.353	0	962.693	0	11.6	4	3.6	4	-1E+10	1	-1E+10	1	-1E+10	1	-1E+10	1	-1E+10	1	-1E+10	1
4902551	66	C	06/09/2022	01:58	-131.465	48.953	0	978.20	0	3.3010	0	34.3660	0	27.358	0	967.627	0	11.7	4	3.6	4	-1E+10	1	-1E+10	1	-1E+10	1	-1E+10	1	-1E+10	1	-1E+10	1
4902551	66	C	06/09/2022	01:58	-131.465	48.953	0	982.80	0	3.2650	0	34.3640	0	27.359	0	972.167	0	11.7	4	3.6	4	-1E+10	1	-1E+10	1	-1E+10	1	-1E+10	1	-1E+10	1	-1E+10	1
4902551	66	C	06/09/2022	01:58	-131.465	48.953	0	987.90	0	3.2740	0	34.3670	0	27.361	0	977.200	0	11.7	4	3.6	4	-1E+10	1	-1E+10	1	-1E+10	1	-1E+10	1	-1E+10	1	-1E+10	1
4902551	66	C	06/09/2022	01:58	-131.465	48.953	0	993.10	0	3.2610	0	34.3690	0	27.364	0	982.331	0	11.8	4	3.7	4	-1E+10	1	-1E+10	1	-1E+10	1	-1E+10	1	-1E+10	1	-1E+10	1
4902551	66	C	06/09/2022	01:58	-131.465	48.953	0	997.70	0	3.2210	0	34.3700	0	27.368	0	986.870	0	11.9	4	3.7	4	-1E+10	1	-1E+10	1	-1E+10	1	-1E+10	1	-1E+10	1	-1E+10	1
4902551	66	C	06/09/2022	01:58	-131.465	48.953	0	1005.10	0	3.1920	0	34.3700	0	27.371	0	994.173	0	11.9	4	3.7	4	-1E+10	1	-1E+10	1	-1E+10	1	-1E+10	1	-1E+10	1	-1E+10	1
4902551	66	C	06/09/2022	01:58	-131.465	48.953	0	1015.40	0	3.1670	0	34.3750	0	27.377	0	1004.336	0	12.0	4	3.7	4	-1E+10	1	-1E+10	1	-1E+10	1	-1E+10	1	-1E+10	1	-1E+10	1
4902551	66	C	06/09/2022	01:58	-131.465	48.953	0	1025.70	0	3.1510	0	34.3760	0	27.380	0	1014.499	0	12.1	4	3.7	4	-1E+10	1	-1E+10	1	-1E+10	1	-1E+10	1	-1E+10	1	-1E+10	1
4902551	66	C	06/09/2022	01:58	-131.465	48.953	0	1035.80	0	3.1060	0	34.3800	0	27.387	0	1024.464	0	12.2	4	3.8	4	-1E+10	1	-1E+10	1	-1E+10	1	-1E+10	1	-1E+10	1	-1E+10	1
4902551	66	C	06/09/2022	01:58	-131.465	48.953	0	1045.70	0	3.0760	0	34.3840	0	27.393	0	1034.231	0	12.3	4	3.8	4	-1E+10	1	-1E+10	1	-1E+10	1	-1E+10	1	-1E+10	1	-1E+10	1
4902551	66	C	06/09/2022	01:58	-131.465	48.953	0	1055.30	0	3.0510	0	34.3880	0	27.399	0	1043.702	0	12.4	4	3.8	4	-1E+10	1	-1E+10	1	-1E+10	1	-1E+10	1	-1E+10	1	-1E+10	1
4902551	66	C	06/09/2022	01:58	-131.465	48.953	0	1065.20	0	3.0290	0	34.3880	0	27.401	0	1053.468	0	12.4	4	3.8	4	-1E+10	1	-1E+10	1	-1E+10	1	-1E+10	1	-1E+10	1	-1E+10	1
4902551	66	C	06/09/2022	01:58	-131.465	48.953	0	1075.40	0	3.0170	0	34.3910	0	27.404	0	1063.530	0	12.5	4	3.9	4	-1E+10	1	-1E+10	1	-1E+10	1	-1E+10	1	-1E+10	1	-1E+10	1
4902551	66	C	06/09/2022	01:58	-131.465	48.953	0	1085.80	0	3.0010	0	34.3940	0	27.408	0	1073.789	0	12.6	4	3.9	4	-1E+10	1	-1E+10	1	-1E+10	1	-1E+10	1	-1E+10	1	-1E+10	1
4902551	66	C	06/09/2022	01:58	-131.465	48.953	0	1095.50	0	2.9830	0	34.3960	0	27.411	0	1083.356	0	12.8	4	3.9	4	-1E+10	1	-1E+10	1	-1E+10	1	-1E+10	1	-1E+10	1	-1E+10	1
4902551	66	C	06/09/2022	01:58	-131.465	48.953	0	1105.10	0	2.9630	0	34.4010	0	27.417	0	1092.825	0	13.0	4	4.0	4	-1E+10	1	-1E+10	1	-1E+10	1	-1E+10	1	-1E+10	1	-1E+10	1
4902551	66	C	06/09/2022	01:58	-131.465	48.953	0	1115.50	0	2.9640	0	34.4060	0	27.421	0	1103.082	0	13.1	4	4.0	4	-1E+10	1	-1E+10	1	-1E+10	1	-1E+10	1	-1E+10	1	-1E+10	1
4902551	66	C	06/09/2022	01:58	-131.465	48.953	0	1125.30	0	2.9420	0	34.4100	0	27.426	0	1112.747	0	13.2	4	4.1	4	-1E+10	1	-1E+10	1	-1E+10	1	-1E+10	1	-1E+10	1	-1E+10	1
4902551	66	C	06/09/2022	01:58	-131.465	48.953	0	1135.30	0	2.9020	0	34.4140	0	27.433	0	1122.609	0	13.4	4	4.1	4	-1E+10	1	-1E+10	1	-1E+10	1	-1E+10	1	-1E+10	1	-1E+10	1
4902551	66	C	06/09/2022	01:58	-131.465	48.953	0	1145.70	0	2.8910	0	34.4150	0	27.435	0	1132.865	0	13.4	4	4.1	4	-1E+10	1	-1E+10	1	-1E+10	1	-1E+10	1	-1E+10	1	-1E+10	1
4902551	66	C	06/09/2022	01:58	-131.465	48.953	0	1155.50	0	2.8480	0	34.4180	0	27.441	0	1142.528	0	13.4	4	4.1	4	-1E+10	1	-1E+10	1	-1E+10	1	-1E+10	1	-1E+10	1	-1E+10	1
4902551	66	C	06/09/2022	01:58	-131.465	48.953	0	1165.20	0	2.8210	0	34.4200	0	27.445	0	1152.093	0	13.7	4	4.2	4	-1E+10	1	-1E+10	1	-1E+10	1	-1E+10	1	-1E+10	1	-1E+10	1
4902551	66	C	06/09/2022	01:58	-131.465	48.953	0	1175.00	0	2.8110	0	34.4250	0	27.450	0	1161.755	0	14.0	4	4.3	4	-1E+10	1	-1E+10	1	-1E+10	1	-1E+10	1	-1E+10	1	-1E+10	1
4902551	66	C	06/09/2022	01:58	-131.465	48.953	0	1185.10	0	2.7950	0	34.4270	0	27.453	0	1171.713	0	14.0	4	4.3	4	-1E+10	1	-1E+10	1	-1E+10	1	-1E+10	1	-1E+10	1	-1E+10	1
4902551	66	C	06/09/2022	01:58	-131.465	48.953	0	1195.50	0	2.7790	0	34.4280	0	27.455	0	1181.967	0	14.1	4	4.3	4	-1E+10	1	-1E+10	1	-1E+10	1	-1E+10	1	-1E+10	1	-1E+10	1
4902551	66	C	06/09/2022	01:58	-131.465	48.953	0	1205.80	0	2.7660	0	34.4300	0	27.458	0	1192.121	0	14.1	4	4.3	4	-1E+10	1	-1E+10	1	-1E+10	1	-1E+10	1	-1E+10	1	-1E+10	1
4902551	66	C	06/09/2022	01:58	-131.465	48.953	0	1215.30	0	2.7490	0	34.4310	0	27.461	0	1201.486	0	14.2	4	4.4	4	-1E+10	1	-1E+10	1	-1E+10	1	-1E+10	1	-1E+10	1	-1E+10	1
4902551	66	C	06/09/2022	01:58	-131.465	48.953	0	1225.10	0	2.7330	0	34.4340	0	27.464	0	1211.146	0	14.3	4	4.4	4	-1E+10	1	-1E+10	1	-1E+10	1	-1E+10	1	-1E+10	1	-1E+10	1
4902551	66	C	06/09/2022	01:58	-131.465	48.953	0	1235.30	0	2.7300	0	34.4340	0	27.465	0	1221.201	0	14.4	4	4.4	4	-1E+10	1	-1E+10	1	-1E+10	1	-1E+10	1	-1E+10	1	-1E+10	1
4902551	66	C	06/09/2022	01:58	-131.465	48.953	0	1245.20	0	2.7220	0	34.4360	0	27.467	0	1230.959	0	14.6	4	4.5	4	-1E+10	1	-1E+10	1	-1E+10	1	-1E+10	1	-1E+10	1	-1E+10	1
4902551	66	C	06/09/2022	01:58	-131.465	48.953	0	1255.00	0	2.7150	0	34.4370	0	27.469	0	1240.618	0	14.7	4	4.5	4	-1E+10	1	-1E+10	1	-1E+10	1	-1E+10	1	-1E+10	1	-1E+10	1
4902551	66	C	06/09/2022	01:58	-131.465	48.953	0	1265.10	0	2.7020	0	34.4390	0	27.471	0	1250.572	0	15.0	4	4.6	4	-1E+10	1	-1E+10	1	-1E+10	1	-1E+10	1	-1E+10	1	-1E+10	1
4902551	66	C	06/09/2022	01:58	-131.465	48.953	0	1275.30	0	2.6890	0	34.4420	0	27.475	0	1260.624	0	15.3	4	4.7	4	-1E+10	1	-1E+10	1	-1E+10	1	-1E+10	1	-1E+10	1	-1E+10	1
4902551	66	C	06/09/2022	01:58	-131.465	48.953	0	1285.50	0	2.6820	0	34.4450	0	27.478	0	1270.676	0	15.5	4	4.8	4	-1E+10	1	-1E+10	1	-1E+10	1	-1E+10	1	-1E+10	1	-1E+10	1
4902551	66	C	06/09/2022	01:58	-131.465	48.953	0	1295.40	0	2.6740	0	34.4470	0	27.480	0	1280.432	0	15.8	4	4.8	4	-1E+10	1	-1E+10	1	-1E+10	1	-1E+10	1	-1E+10	1	-1E+10	1
4902551	66	C	06/09/2022	01:58	-131.465	48.953	0	1305.50	0	2.6600	0	34.4490	0	27.483	0	1290.384	0	16.1	4	4.9	4	-1E+10	1	-1E+10	1	-1E+10	1	-1E+10	1	-1E+10	1	-1E+10	1
4902551	66	C	06/09/2022	01:58	-131.465	48.953	0	1315.40	0	2.6510	0	34.4510	0	27.486	0	1300.139	0	16.6	4	5.1	4	-1E+10	1	-1E+10	1	-1E+10	1	-1E+10	1	-1E+10	1	-1E+10	1
4902551	66	C	06/09/2022	01:58	-131.465	48.953	0	1325.40	0	2.6310	0	34.4580	0	27.493	0	1309.992	0	17.1	4	5.2	4	-1E+10	1	-1E+10	1	-1E+10	1	-1E+10	1	-1E+10	1	-1E+10	1
4902551	66	C	06/09/2022	01:58	-131.465	48.953	0	1335.60	0	2.5970	0	34.4610	0	27.498	0	1320.042	0	17.2	4	5.3	4	-1E+10	1	-1E+10	1	-1E+10	1	-1E+10	1	-1E+10	1	-1E+10	1
4902551	66	C	06/09/2022	01:58	-131.465	48.953	0	1345.30	0	2.5890	0	34.4620	0	27.500	0	1329.598	0	17.4	4	5.3	4	-1E+10	1	-1E+10	1	-1E+10	1	-1E+10	1	-1E+10	1	-1E+10	1
4902551	66	C	06/09/2022	01:58	-131.465	48.953	0	1355.50	0	2.5750	0	34.4640	0	27.503	0	1339.647	0	17.7	4	5.4	4	-1E+10	1	-1E+10	1	-1E+10	1	-1E+10	1	-1E+10	1	-1E+10	1
4902551	66	C	06/09/2022	01:58	-131.465	48.953	0	1365.70	0	2.5590	0	34.4680	0	27.507	0	1349.695	0	18.3	4	5.6	4	-1E+10	1	-1E+10	1	-1E+10	1	-1E+10	1	-1E+10	1	-1E+10	1
4902551	66	C	06/09/2022	01:58	-131.465	48.953	0	1375.50	0	2.5470	0	34.4700	0	27.510	0	1359.348	0	18.6	4	5.7	4	-1E+10	1	-1E+10	1	-1E+10	1	-1E+10	1	-1E+10	1	-1E+10	1
4902551	66	C	06/09/2022	01:58	-131.465	48.953	0	1385.30	0	2.5350	0	34.4730	0	27.513	0	1369.001	0	18.9	4	5.8	4	-1E+10	1	-1E+10	1	-1E+10	1	-1E+10	1	-1E+10	1	-1E+10	1
4902551	66	C	06/09/2022	01:58	-131.465	48.953	0	1395.10	0	2.5250	0	34.4740	0	27.515	0	1378.654	0	19.1	4	5.8	4	-1E+10	1	-1E+10	1	-1E+10	1	-1E+10	1	-1E+10	1	-1E+10	1
4902551	66	C	06/09/2022	01:58	-131.465	48.953	0	1405.30	0	2.5120	0	34.4760	0	27.518	0	1388.700	0	19.5	4	5.9	4	-1E+10	1	-1E+10	1	-1E+10	1	-1E+10	1	-1E+10	1	-1E+10	1
4902551	66	C	06/09/2022	01:58	-131.465	48.953	0	1415.70	0	2.4990	0	34.4790	0	27.521	0	1398.943	0	19.9	4	6.1	4	-1E+10	1	-1E+10	1	-1E+10	1	-1E+10	1	-1E+10	1	-1E+10	1
4902551	66	C	06/09/2022	01:58	-131.465	48.953	0	1425.60	0	2.4930	0	34.4800	0	27.523	0	1408.693	0	20.2	4	6.2	4	-1E+10	1	-1E+10	1	-1E+10	1	-1E+10	1	-1E+10	1	-1E+10	1
4902551	66	C	06/09/2022	01:58	-131.465	48.953	0	1435.20	0	2.4850	0	34.4820	0	27.525	0	1418.147	0	20.5	4	6.3	4	-1E+10	1	-1E+10	1	-1E+10	1	-1E+10	1	-1E+10	1	-1E+10	1
4902551	66	C	06/09/2022	01:58	-131.465	48.953	0	1445.10	0	2.4800	0	34.4830	0	27.526	0	1427.896	0	20.9	4	6.4	4	-1E+10	1	-1E+10	1	-1E+10	1	-1E+10	1	-1E+10	1	-1E+10	1
4902551	66	C	06/09/2022	01:58	-131.465	48.953	0	1455.30	0	2.4750	0	34.4840	0	27.528	0	1437.940	0	21.7	4	6.6	4	-1E+10	1	-1E+10	1	-1E+10	1	-1E+10	1	-1E+10	1	-1E+10	1
4902551	66	C	06/09/2022	01:58	-131.465	48.953	0	1465.60	0	2.4670	0	34.4890	0	27.532	0	1448.081	0	22.4	4	6.8	4	-1E+10	1	-1E+10	1	-1E+10	1	-1E+10	1	-1E+10	1	-1E+10	1
4902551	66	C	06/09/2022	01:58	-131.465	48.953	0	1475.40	0	2.4620	0	34.4910	0	27.535	0	1457.730	0	22.6	4	6.9	4	-1E+10	1	-1E+10	1	-1E+10	1	-1E+10	1	-1E+10	1	-1E+10	1
4902551	66	C	06/09/2022	01:58	-131.465	48.953	0	1485.40	0	2.4400	0	34.4920	0	27.537	0	1467.576	0	22.5	4	6.9	4	-1E+10	1	-1E+10	1	-1E+10	1	-1E+10	1	-1E+10	1	-1E+10	1
4902551	66	C	06/09/2022	01:58	-131.465	48.953	0	1495.90	0	2.4270	0	34.4930	0	27.539	0	1477.913	0	22.9	4	7.0	4	-1E+10	1	-1E+10	1	-1E+10	1	-1E+10	1	-1E+10	1	-1E+10	1
4902551	66	C	06/09/2022	01:58	-131.465	48.953	0	1505.20	0	2.4180	0	34.4950	0	27.542	0	1487.069	0	23.6	4	7.2	4	-1E+10	1	-1E+10	1	-1E+10	1	-1E+10	1	-1E+10	1	-1E+10	1
4902551	66	C	06/09/2022	01:58	-131.465	48.953	0	1515.40	0	2.3990	0	34.4990	0	27.546	0	1497.110	0	24.3	4	7.4	4	-1E+10	1	-1E+10	1	-1E+10	1	-1E+10	1	-1E+10	1	-1E+10	1
4902551	66	C	06/09/2022	01:58	-131.465	48.953	0	1525.70	0	2.3900	0	34.5010	0	27.549	0	1507.249	0	24.9	4	7.6	4	-1E+10	1	-1E+10	1	-1E+10	1	-1E+10	1	-1E+10	1	-1E+10	1
4902551	66	C	06/09/2022	01:58	-131.465	48.953	0	1535.40	0	2.3780	0	34.5030	0	27.551	0	1516.797	0	25.4	4	7.7	4	-1E+10	1	-1E+10	1	-1E+10	1	-1E+10	1	-1E+10	1	-1E+10	1
4902551	66	C	06/09/2022	01:58	-131.465	48.953	0	1545.30	0	2.3610	0	34.5060	0	27.555	0	1526.541	0	26.2	4	8.0	4	-1E+10	1	-1E+10	1	-1E+10	1	-1E+10	1	-1E+10	1	-1E+10	1
4902551	66	C	06/09/2022	01:58	-131.465	48.953	0	1555.30	0	2.3460	0	34.5090	0	27.559	0	1536.383	0	26.9	4	8.2	4	-1E+10	1	-1E+10	1	-1E+10	1	-1E+10	1	-1E+10	1	-1E+10	1
4902551	66	C	06/09/2022	01:58	-131.465	48.953	0	1565.20	0	2.3290	0	34.5120	0	27.563	0	1546.127	0	27.7	4	8.4	4	-1E+10	1	-1E+10	1	-1E+10	1	-1E+10	1	-1E+10	1	-1E+10	1
4902551	66	C	06/09/2022	01:58	-131.465	48.953	0	1575.40	0	2.3200	0	34.5130	0	27.564	0	1556.165	0	28.4	4	8.6	4	-1E+10	1	-1E+10	1	-1E+10	1	-1E+10	1	-1E+10	1	-1E+10	1
4902551	66	C	06/09/2022	01:58	-131.465	48.953	0	1585.30	0	2.3050	0	34.5170	0	27.569	0	1565.907	0	29.2	4	8.9	4	-1E+10	1	-1E+10	1	-1E+10	1	-1E+10	1	-1E+10	1	-1E+10	1
4902551	66	C	06/09/2022	01:58	-131.465	48.953	0	1595.30	0	2.2920	0	34.5180	0	27.571	0	1575.748	0	29.8	4	9.1	4	-1E+10	1	-1E+10	1	-1E+10	1	-1E+10	1	-1E+10	1	-1E+10	1
4902551	66	C	06/09/2022	01:58	-131.465	48.953	0	1605.60	0	2.2760	0	34.5210	0	27.574	0	1585.883	0	30.8	4	9.4	4	-1E+10	1	-1E+10	1	-1E+10	1	-1E+10	1	-1E+10	1	-1E+10	1
4902551	66	C	06/09/2022	01:58	-131.465	48.953	0	1615.50	0	2.2680	0	34.5230	0	27.577	0	1595.624	0	31.7	4	9.6	4	-1E+10	1	-1E+10	1	-1E+10	1	-1E+10	1	-1E+10	1	-1E+10	1
4902551	66	C	06/09/2022	01:58	-131.465	48.953	0	1625.50	0	2.2590	0	34.5270	0	27.581	0	1605.463	0	32.5	4	9.8	4	-1E+10	1	-1E+10	1	-1E+10	1	-1E+10	1	-1E+10	1	-1E+10	1
4902551	66	C	06/09/2022	01:58	-131.465	48.953	0	1635.40	0	2.2460	0	34.5280	0	27.583	0	1615.204	0	33.4	4	10.1	4	-1E+10	1	-1E+10	1	-1E+10	1	-1E+10	1	-1E+10	1	-1E+10	1
4902551	66	C	06/09/2022	01:58	-131.465	48.953	0	1645.40	0	2.2440	0	34.5300	0	27.585	0	1625.042	0	35.0	4	10.6	4	-1E+10	1	-1E+10	1	-1E+10	1	-1E+10	1	-1E+10	1	-1E+10	1
4902551	66	C	06/09/2022	01:58	-131.465	48.953	0	1655.50	0	2.2300	0	34.5340	0	27.589	0	1634.978	0	36.1	4	10.9	4	-1E+10	1	-1E+10	1	-1E+10	1	-1E+10	1	-1E+10	1	-1E+10	1
4902551	66	C	06/09/2022	01:58	-131.465	48.953	0	1665.40	0	2.2140	0	34.5370	0	27.593	0	1644.717	0	36.8	4	11.2	4	-1E+10	1	-1E+10	1	-1E+10	1	-1E+10	1	-1E+10	1	-1E+10	1
4902551	66	C	06/09/2022	01:58	-131.465	48.953	0	1675.20	0	2.2070	0	34.5380	0	27.594	0	1654.357	0	37.2	4	11.3	4	-1E+10	1	-1E+10	1	-1E+10	1	-1E+10	1	-1E+10	1	-1E+10	1
4902551	66	C	06/09/2022	01:58	-131.465	48.953	0	1685.20	0	2.1960	0	34.5400	0	27.597	0	1664.193	0	37.7	4	11.4	4	-1E+10	1	-1E+10	1	-1E+10	1	-1E+10	1	-1E+10	1	-1E+10	1
4902551	66	C	06/09/2022	01:58	-131.465	48.953	0	1695.50	0	2.1850	0	34.5420	0	27.599	0	1674.324	0	38.2	4	11.6	4	-1E+10	1	-1E+10	1	-1E+10	1	-1E+10	1	-1E+10	1	-1E+10	1
4902551	66	C	06/09/2022	01:58	-131.465	48.953	0	1705.30	0	2.1830	0	34.5420	0	27.599	0	1683.963	0	38.7	4	11.7	4	-1E+10	1	-1E+10	1	-1E+10	1	-1E+10	1	-1E+10	1	-1E+10	1
4902551	66	C	06/09/2022	01:58	-131.465	48.953	0	1715.40	0	2.1760	0	34.5440	0	27.602	0	1693.896	0	39.4	4	11.9	4	-1E+10	1	-1E+10	1	-1E+10	1	-1E+10	1	-1E+10	1	-1E+10	1
4902551	66	C	06/09/2022	01:58	-131.465	48.953	0	1725.50	0	2.1680	0	34.5450	0	27.603	0	1703.829	0	40.0	4	12.1	4	-1E+10	1	-1E+10	1	-1E+10	1	-1E+10	1	-1E+10	1	-1E+10	1
4902551	66	C	06/09/2022	01:58	-131.465	48.953	0	1735.30	0	2.1590	0	34.5470	0	27.605	0	1713.466	0	40.7	4	12.3	4	-1E+10	1	-1E+10	1	-1E+10	1	-1E+10	1	-1E+10	1	-1E+10	1
4902551	66	C	06/09/2022	01:58	-131.465	48.953	0	1745.00	0	2.1410	0	34.5490	0	27.608	0	1723.005	0	41.2	4	12.5	4	-1E+10	1	-1E+10	1	-1E+10	1	-1E+10	1	-1E+10	1	-1E+10	1
4902551	66	C	06/09/2022	01:58	-131.465	48.953	0	1755.30	0	2.1350	0	34.5500	0	27.610	0	1733.133	0	41.7	4	12.6	4	-1E+10	1	-1E+10	1	-1E+10	1	-1E+10	1	-1E+10	1	-1E+10	1
4902551	66	C	06/09/2022	01:58	-131.465	48.953	0	1765.60	0	2.1260	0	34.5520	0	27.612	0	1743.261	0	42.4	4	12.8	4	-1E+10	1	-1E+10	1	-1E+10	1	-1E+10	1	-1E+10	1	-1E+10	1
4902551	66	C	06/09/2022	01:58	-131.465	48.953	0	1775.50	0	2.1170	0	34.5530	0	27.614	0	1752.995	0	43.0	4	13.0	4	-1E+10	1	-1E+10	1	-1E+10	1	-1E+10	1	-1E+10	1	-1E+10	1
4902551	66	C	06/09/2022	01:58	-131.465	48.953	0	1785.20	0	2.1080	0	34.5550	0	27.616	0	1762.531	0	43.6	4	13.2	4	-1E+10	1	-1E+10	1	-1E+10	1	-1E+10	1	-1E+10	1	-1E+10	1
4902551	66	C	06/09/2022	01:58	-131.465	48.953	0	1795.50	0	2.1000	0	34.5560	0	27.618	0	1772.658	0	44.1	4	13.3	4	-1E+10	1	-1E+10	1	-1E+10	1	-1E+10	1	-1E+10	1	-1E+10	1
4902551	66	C	06/09/2022	01:58	-131.465	48.953	0	1805.70	0	2.0970	0	34.5570	0	27.619	0	1782.685	0	44.7	4	13.5	4	-1E+10	1	-1E+10	1	-1E+10	1	-1E+10	1	-1E+10	1	-1E+10	1
4902551	66	C	06/09/2022	01:58	-131.465	48.953	0	1815.50	0	2.0830	0	34.5590	0	27.621	0	1792.319	0	45.5	4	13.7	4	-1E+10	1	-1E+10	1	-1E+10	1	-1E+10	1	-1E+10	1	-1E+10	1
4902551	66	C	06/09/2022	01:58	-131.465	48.953	0	1825.30	0	2.0700	0	34.5610	0	27.624	0	1801.952	0	46.2	4	13.9	4	-1E+10	1	-1E+10	1	-1E+10	1	-1E+10	1	-1E+10	1	-1E+10	1
4902551	66	C	06/09/2022	01:58	-131.465	48.953	0	1835.20	0	2.0630	0	34.5620	0	27.626	0	1811.683	0	46.6	4	14.1	4	-1E+10	1	-1E+10	1	-1E+10	1	-1E+10	1	-1E+10	1	-1E+10	1
4902551	66	C	06/09/2022	01:58	-131.465	48.953	0	1845.30	0	2.0590	0	34.5630	0	27.627	0	1821.611	0	47.1	4	14.2	4	-1E+10	1	-1E+10	1	-1E+10	1	-1E+10	1	-1E+10	1	-1E+10	1
4902551	66	C	06/09/2022	01:58	-131.465	48.953	0	1855.40	0	2.0520	0	34.5650	0	27.629	0	1831.538	0	47.8	4	14.4	4	-1E+10	1	-1E+10	1	-1E+10	1	-1E+10	1	-1E+10	1	-1E+10	1
4902551	66	C	06/09/2022	01:58	-131.465	48.953	0	1865.50	0	2.0420	0	34.5660	0	27.631	0	1841.464	0	48.5	4	14.6	4	-1E+10	1	-1E+10	1	-1E+10	1	-1E+10	1	-1E+10	1	-1E+10	1
4902551	66	C	06/09/2022	01:58	-131.465	48.953	0	1875.30	0	2.0350	0	34.5680	0	27.633	0	1851.095	0	49.1	4	14.8	4	-1E+10	1	-1E+10	1	-1E+10	1	-1E+10	1	-1E+10	1	-1E+10	1
4902551	66	C	06/09/2022	01:58	-131.465	48.953	0	1885.10	0	2.0220	0	34.5700	0	27.635	0	1860.726	0	49.8	4	15.0	4	-1E+10	1	-1E+10	1	-1E+10	1	-1E+10	1	-1E+10	1	-1E+10	1
4902551	66	C	06/09/2022	01:58	-131.465	48.953	0	1895.30	0	2.0150	0	34.5710	0	27.637	0	1870.749	0	50.1	4	15.1	4	-1E+10	1	-1E+10	1	-1E+10	1	-1E+10	1	-1E+10	1	-1E+10	1
4902551	66	C	06/09/2022	01:58	-131.465	48.953	0	1905.20	0	2.0070	0	34.5730	0	27.639	0	1880.477	0	50.3	4	15.2	4	-1E+10	1	-1E+10	1	-1E+10	1	-1E+10	1	-1E+10	1	-1E+10	1
4902551	66	C	06/09/2022	01:58	-131.465	48.953	0	1915.40	0	1.9980	0	34.5740	0	27.641	0	1890.500	0	50.4	4	15.2	4	-1E+10	1	-1E+10	1	-1E+10	1	-1E+10	1	-1E+10	1	-1E+10	1
4902551	66	C	06/09/2022	01:58	-131.465	48.953	0	1925.40	0	1.9920	0	34.5750	0	27.642	0	1900.325	0	50.8	4	15.3	4	-1E+10	1	-1E+10	1	-1E+10	1	-1E+10	1	-1E+10	1	-1E+10	1
4902551	66	C	06/09/2022	01:58	-131.465	48.953	0	1935.30	0	1.9830	0	34.5760	0	27.644	0	1910.052	0	51.5	4	15.5	4	-1E+10	1	-1E+10	1	-1E+10	1	-1E+10	1	-1E+10	1	-1E+10	1
4902551	66	C	06/09/2022	01:58	-131.465	48.953	0	1945.30	0	1.9730	0	34.5780	0	27.646	0	1919.876	0	52.2	4	15.7	4	-1E+10	1	-1E+10	1	-1E+10	1	-1E+10	1	-1E+10	1	-1E+10	1
4902551	66	C	06/09/2022	01:58	-131.465	48.953	0	1955.50	0	1.9630	0	34.5790	0	27.648	0	1929.897	0	52.9	4	15.9	4	-1E+10	1	-1E+10	1	-1E+10	1	-1E+10	1	-1E+10	1	-1E+10	1
4902551	66	C	06/09/2022	01:58	-131.465	48.953	0	1965.40	0	1.9520	0	34.5810	0	27.650	0	1939.622	0	53.7	4	16.2	4	-1E+10	1	-1E+10	1	-1E+10	1	-1E+10	1	-1E+10	1	-1E+10	1
4902551	66	C	06/09/2022	01:58	-131.465	48.953	0	1975.80	0	1.9410	0	34.5830	0	27.653	0	1949.838	0	53.6	4	16.1	4	-1E+10	1	-1E+10	1	-1E+10	1	-1E+10	1	-1E+10	1	-1E+10	1
4902551	66	C	06/09/2022	01:58	-131.465	48.953	0																										
4902551	67	C	06/19/2022	07:05	-131.714	49.050	0	0.40	0	10.8860	0	32.2280	0	24.638	0	0.397	0	268.7	4	97.8	4	-1E+10	1	-1E+10	1	-1E+10	1	-1E+10	1	-1E+10	1	-1E+10	1
4902551	67	C	06/19/2022	07:05	-131.714	49.050	0	0.50	0	10.8860	0	32.2278	0	24.638	0	0.496	0	-1e10	1	-1e10	1	-1E+10	1	-1E+10	1	-1E+10	1	-1E+10	1	-1E+10	1	-1E+10	1
4902551	67	C	06/19/2022	07:05	-131.714	49.050	0	0.60	0	10.8860	0	32.2277	0	24.638	0	0.595	0	-1e10	1	-1e10	1	-1E+10	1	-1E+10	1	-1E+10	1	-1E+10	1	-1E+10	1	-1E+10	1
4902551	67	C	06/19/2022	07:05	-131.714	49.050	0	1.00	0	10.8860	0	32.2270	0	24.637	0	0.992	0	268.7	4	97.8	4	-1E+10	1	-1E+10	1	-1E+10	1	-1E+10	1	-1E+10	1	-1E+10	1
4902551	67	C	06/19/2022	07:05	-131.714	49.050	0	2.10	0	10.8860	0	32.2270	0	24.637	0	2.082	0	268.6	4	97.7	4	-1E+10	1	-1E+10	1	-1E+10	1	-1E+10	1	-1E+10	1	-1E+10	1
4902551	67	C	06/19/2022	07:05	-131.714	49.050	0	3.00	0	10.8850	0	32.2290	0	24.639	0	2.975	0	268.6	4	97.7	4	-1E+10	1	-1E+10	1	-1E+10	1	-1E+10	1	-1E+10	1	-1E+10	1
4902551	67	C	06/19/2022	07:05	-131.714	49.050	0	4.10	0	10.8860	0	32.2290	0	24.639	0	4.065	0	268.6	4	97.7	4	-1E+10	1	-1E+10	1	-1E+10	1	-1E+10	1	-1E+10	1	-1E+10	1
4902551	67	C	06/19/2022	07:05	-131.714	49.050	0	4.90	0	10.8870	0	32.2290	0	24.639	0	4.858	0	268.7	4	97.8	4	-1E+10	1	-1E+10	1	-1E+10	1	-1E+10	1	-1E+10	1	-1E+10	1
4902551	67	C	06/19/2022	07:05	-131.714	49.050	0	6.10	0	10.8880	0	32.2290	0	24.639	0	6.048	0	268.6	4	97.7	4	-1E+10	1	-1E+10	1	-1E+10	1	-1E+10	1	-1E+10	1	-1E+10	1
4902551	67	C	06/19/2022	07:05	-131.714	49.050	0	7.00	0	10.8890	0	32.2290	0	24.638	0	6.940	0	268.6	4	97.7	4	-1E+10	1	-1E+10	1	-1E+10	1	-1E+10	1	-1E+10	1	-1E+10	1
4902551	67	C	06/19/2022	07:05	-131.714	49.050	0	7.90	0	10.8900	0	32.2290	0	24.638	0	7.833	0	268.6	4	97.8	4	-1E+10	1	-1E+10	1	-1E+10	1	-1E+10	1	-1E+10	1	-1E+10	1
4902551	67	C	06/19/2022	07:05	-131.714	49.050	0	8.90	0	10.8890	0	32.2290	0	24.638	0	8.824	0	268.6	4	97.7	4	-1E+10	1	-1E+10	1	-1E+10	1	-1E+10	1	-1E+10	1	-1E+10	1
4902551	67	C	06/19/2022	07:05	-131.714	49.050	0	10.00	0	10.8890	0	32.2290	0	24.639	0	9.915	0	268.6	4	97.7	4	-1E+10	1	-1E+10	1	-1E+10	1	-1E+10	1	-1E+10	1	-1E+10	1
4902551	67	C	06/19/2022	07:05	-131.714	49.050	0	11.20	0	10.8880	0	32.2290	0	24.639	0	11.105	0	268.6	4	97.7	4	-1E+10	1	-1E+10	1	-1E+10	1	-1E+10	1	-1E+10	1	-1E+10	1
4902551	67	C	06/19/2022	07:05	-131.714	49.050	0	12.00	0	10.8890	0	32.2290	0	24.639	0	11.898	0	268.6	4	97.7	4	-1E+10	1	-1E+10	1	-1E+10	1	-1E+10	1	-1E+10	1	-1E+10	1
4902551	67	C	06/19/2022	07:05	-131.714	49.050	0	13.00	0	10.8890	0	32.2290	0	24.639	0	12.889	0	268.6	4	97.8	4	-1E+10	1	-1E+10	1	-1E+10	1	-1E+10	1	-1E+10	1	-1E+10	1
4902551	67	C	06/19/2022	07:05	-131.714	49.050	0	14.00	0	10.8890	0	32.2290	0	24.639	0	13.881	0	268.7	4	97.8	4	-1E+10	1	-1E+10	1	-1E+10	1	-1E+10	1	-1E+10	1	-1E+10	1
4902551	67	C	06/19/2022	07:05	-131.714	49.050	0	15.20	0	10.8900	0	32.2280	0	24.638	0	15.070	0	268.8	4	97.8	4	-1E+10	1	-1E+10	1	-1E+10	1	-1E+10	1	-1E+10	1	-1E+10	1
4902551	67	C	06/19/2022	07:05	-131.714	49.050	0	16.00	0	10.8910	0	32.2290	0	24.638	0	15.864	0	268.8	4	97.8	4	-1E+10	1	-1E+10	1	-1E+10	1	-1E+10	1	-1E+10	1	-1E+10	1
4902551	67	C	06/19/2022	07:05	-131.714	49.050	0	17.20	0	10.8910	0	32.2290	0	24.638	0	17.053	0	269.0	4	97.9	4	-1E+10	1	-1E+10	1	-1E+10	1	-1E+10	1	-1E+10	1	-1E+10	1
4902551	67	C	06/19/2022	07:05	-131.714	49.050	0	17.90	0	10.8890	0	32.2300	0	24.639	0	17.747	0	269.2	4	97.9	4	-1E+10	1	-1E+10	1	-1E+10	1	-1E+10	1	-1E+10	1	-1E+10	1
4902551	67	C	06/19/2022	07:05	-131.714	49.050	0	19.00	0	10.8740	0	32.2300	0	24.642	0	18.838	0	269.4	4	98.0	4	-1E+10	1	-1E+10	1	-1E+10	1	-1E+10	1	-1E+10	1	-1E+10	1
4902551	67	C	06/19/2022	07:05	-131.714	49.050	0	20.10	0	10.8650	0	32.2270	0	24.641	0	19.928	0	269.6	4	98.0	4	-1E+10	1	-1E+10	1	-1E+10	1	-1E+10	1	-1E+10	1	-1E+10	1
4902551	67	C	06/19/2022	07:05	-131.714	49.050	0	20.80	0	10.8520	0	32.2290	0	24.645	0	20.622	0	269.9	4	98.1	4	-1E+10	1	-1E+10	1	-1E+10	1	-1E+10	1	-1E+10	1	-1E+10	1
4902551	67	C	06/19/2022	07:05	-131.714	49.050	0	22.00	0	10.8090	0	32.2350	0	24.657	0	21.812	0	270.3	4	98.2	4	-1E+10	1	-1E+10	1	-1E+10	1	-1E+10	1	-1E+10	1	-1E+10	1
4902551	67	C	06/19/2022	07:05	-131.714	49.050	0	23.10	0	10.7750	0	32.2310	0	24.660	0	22.903	0	270.5	4	98.2	4	-1E+10	1	-1E+10	1	-1E+10	1	-1E+10	1	-1E+10	1	-1E+10	1
4902551	67	C	06/19/2022	07:05	-131.714	49.050	0	23.90	0	10.7520	0	32.2340	0	24.666	0	23.696	0	270.8	4	98.3	4	-1E+10	1	-1E+10	1	-1E+10	1	-1E+10	1	-1E+10	1	-1E+10	1
4902551	67	C	06/19/2022	07:05	-131.714	49.050	0	25.00	0	10.7140	0	32.2320	0	24.672	0	24.786	0	271.2	4	98.3	4	-1E+10	1	-1E+10	1	-1E+10	1	-1E+10	1	-1E+10	1	-1E+10	1
4902551	67	C	06/19/2022	07:05	-131.714	49.050	0	26.20	0	10.6660	0	32.2370	0	24.684	0	25.976	0	271.4	4	98.3	4	-1E+10	1	-1E+10	1	-1E+10	1	-1E+10	1	-1E+10	1	-1E+10	1
4902551	67	C	06/19/2022	07:05	-131.714	49.050	0	26.90	0	10.6510	0	32.2320	0	24.682	0	26.670	0	271.7	4	98.4	4	-1E+10	1	-1E+10	1	-1E+10	1	-1E+10	1	-1E+10	1	-1E+10	1
4902551	67	C	06/19/2022	07:05	-131.714	49.050	0	28.10	0	10.6060	0	32.2350	0	24.692	0	27.860	0	272.1	4	98.4	4	-1E+10	1	-1E+10	1	-1E+10	1	-1E+10	1	-1E+10	1	-1E+10	1
4902551	67	C	06/19/2022	07:05	-131.714	49.050	0	28.80	0	10.5980	0	32.2320	0	24.692	0	28.554	0	272.4	4	98.5	4	-1E+10	1	-1E+10	1	-1E+10	1	-1E+10	1	-1E+10	1	-1E+10	1
4902551	67	C	06/19/2022	07:05	-131.714	49.050	0	29.90	0	10.5770	0	32.2310	0	24.694	0	29.644	0	272.9	4	98.6	4	-1E+10	1	-1E+10	1	-1E+10	1	-1E+10	1	-1E+10	1	-1E+10	1
4902551	67	C	06/19/2022	07:05	-131.714	49.050	0	30.90	0	10.5550	0	32.2330	0	24.700	0	30.635	0	273.7	4	98.9	4	-1E+10	1	-1E+10	1	-1E+10	1	-1E+10	1	-1E+10	1	-1E+10	1
4902551	67	C	06/19/2022	07:05	-131.714	49.050	0	32.00	0	10.4750	0	32.2450	0	24.723	0	31.726	0	274.6	4	99.0	4	-1E+10	1	-1E+10	1	-1E+10	1	-1E+10	1	-1E+10	1	-1E+10	1
4902551	67	C	06/19/2022	07:05	-131.714	49.050	0	33.10	0	10.3650	0	32.2330	0	24.732	0	32.816	0	275.7	4	99.2	4	-1E+10	1	-1E+10	1	-1E+10	1	-1E+10	1	-1E+10	1	-1E+10	1
4902551	67	C	06/19/2022	07:05	-131.714	49.050	0	33.80	0	10.3220	0	32.2380	0	24.743	0	33.510	0	276.4	4	99.4	4	-1E+10	1	-1E+10	1	-1E+10	1	-1E+10	1	-1E+10	1	-1E+10	1
4902551	67	C	06/19/2022	07:05	-131.714	49.050	0	35.00	0	10.0870	0	32.2560	0	24.797	0	34.700	0	277.5	4	99.3	4	-1E+10	1	-1E+10	1	-1E+10	1	-1E+10	1	-1E+10	1	-1E+10	1
4902551	67	C	06/19/2022	07:05	-131.714	49.050	0	36.30	0	9.9800	0	32.2350	0	24.798	0	35.989	0	278.2	4	99.3	4	-1E+10	1	-1E+10	1	-1E+10	1	-1E+10	1	-1E+10	1	-1E+10	1
4902551	67	C	06/19/2022	07:05	-131.714	49.050	0	37.00	0	9.9660	0	32.2320	0	24.798	0	36.683	0	278.6	4	99.4	4	-1E+10	1	-1E+10	1	-1E+10	1	-1E+10	1	-1E+10	1	-1E+10	1
4902551	67	C	06/19/2022	07:05	-131.714	49.050	0	38.20	0	9.8960	0	32.2340	0	24.811	0	37.872	0	279.3	4	99.5	4	-1E+10	1	-1E+10	1	-1E+10	1	-1E+10	1	-1E+10	1	-1E+10	1
4902551	67	C	06/19/2022	07:05	-131.714	49.050	0	39.00	0	9.7880	0	32.2520	0	24.843	0	38.665	0	279.7	4	99.4	4	-1E+10	1	-1E+10	1	-1E+10	1	-1E+10	1	-1E+10	1	-1E+10	1
4902551	67	C	06/19/2022	07:05	-131.714	49.050	0	39.90	0	9.5700	0	32.2710	0	24.893	0	39.558	0	280.6	4	99.3	4	-1E+10	1	-1E+10	1	-1E+10	1	-1E+10	1	-1E+10	1	-1E+10	1
4902551	67	C	06/19/2022	07:05	-131.714	49.050	0	41.20	0	9.4430	0	32.2640	0	24.908	0	40.846	0	281.2	4	99.2	4	-1E+10	1	-1E+10	1	-1E+10	1	-1E+10	1	-1E+10	1	-1E+10	1
4902551	67	C	06/19/2022	07:05	-131.714	49.050	0	42.10	0	9.2930	0	32.2750	0	24.940	0	41.738	0	281.6	4	99.0	4	-1E+10	1	-1E+10	1	-1E+10	1	-1E+10	1	-1E+10	1	-1E+10	1
4902551	67	C	06/19/2022	07:05	-131.714	49.050	0	42.80	0	9.1650	0	32.2700	0	24.956	0	42.432	0	281.9	4	98.9	4	-1E+10	1	-1E+10	1	-1E+10	1	-1E+10	1	-1E+10	1	-1E+10	1
4902551	67	C	06/19/2022	07:05	-131.714	49.050	0	43.90	0	9.0000	0	32.2770	0	24.988	0	43.523	0	282.3	4	98.6	4	-1E+10	1	-1E+10	1	-1E+10	1	-1E+10	1	-1E+10	1	-1E+10	1
4902551	67	C	06/19/2022	07:05	-131.714	49.050	0	44.90	0	8.8990	0	32.2590	0	24.989	0	44.514	0	282.4	4	98.4	4	-1E+10	1	-1E+10	1	-1E+10	1	-1E+10	1	-1E+10	1	-1E+10	1
4902551	67	C	06/19/2022	07:05	-131.714	49.050	0	45.80	0	8.6770	0	32.3150	0	25.067	0	45.406	0	282.9	4	98.2	4	-1E+10	1	-1E+10	1	-1E+10	1	-1E+10	1	-1E+10	1	-1E+10	1
4902551	67	C	06/19/2022	07:05	-131.714	49.050	0	47.00	0	8.4340	0	32.2970	0	25.089	0	46.596	0	282.8	4	97.6	4	-1E+10	1	-1E+10	1	-1E+10	1	-1E+10	1	-1E+10	1	-1E+10	1
4902551	67	C	06/19/2022	07:05	-131.714	49.050	0	48.10	0	8.3930	0	32.2970	0	25.095	0	47.686	0	282.2	4	97.3	4	-1E+10	1	-1E+10	1	-1E+10	1	-1E+10	1	-1E+10	1	-1E+10	1
4902551	67	C	06/19/2022	07:05	-131.714	49.050	0	49.20	0	8.3570	0	32.2970	0	25.101	0	48.777	0	281.5	4	97.0	4	-1E+10	1	-1E+10	1	-1E+10	1	-1E+10	1	-1E+10	1	-1E+10	1
4902551	67	C	06/19/2022	07:05	-131.714	49.050	0	50.10	0	8.3060	0	32.2970	0	25.108	0	49.669	0	280.7	4	96.6	4	-1E+10	1	-1E+10	1	-1E+10	1	-1E+10	1	-1E+10	1	-1E+10	1
4902551	67	C	06/19/2022	07:05	-131.714	49.050	0	51.00	0	8.2700	0	32.2990	0	25.115	0	50.561	0	279.9	4	96.2	4	-1E+10	1	-1E+10	1	-1E+10	1	-1E+10	1	-1E+10	1	-1E+10	1
4902551	67	C	06/19/2022	07:05	-131.714	49.050	0	51.90	0	8.2250	0	32.3020	0	25.124	0	51.453	0	279.2	4	95.9	4	-1E+10	1	-1E+10	1	-1E+10	1	-1E+10	1	-1E+10	1	-1E+10	1
4902551	67	C	06/19/2022	07:05	-131.714	49.050	0	53.10	0	8.1650	0	32.3030	0	25.133	0	52.643	0	278.3	4	95.5	4	-1E+10	1	-1E+10	1	-1E+10	1	-1E+10	1	-1E+10	1	-1E+10	1
4902551	67	C	06/19/2022	07:05	-131.714	49.050	0	54.00	0	8.1250	0	32.3050	0	25.141	0	53.535	0	277.6	4	95.1	4	-1E+10	1	-1E+10	1	-1E+10	1	-1E+10	1	-1E+10	1	-1E+10	1
4902551	67	C	06/19/2022	07:05	-131.714	49.050	0	54.90	0	8.0900	0	32.3070	0	25.147	0	54.427	0	277.1	4	94.9	4	-1E+10	1	-1E+10	1	-1E+10	1	-1E+10	1	-1E+10	1	-1E+10	1
4902551	67	C	06/19/2022	07:05	-131.714	49.050	0	55.80	0	8.0540	0	32.3100	0	25.155	0	55.319	0	276.5	4	94.6	4	-1E+10	1	-1E+10	1	-1E+10	1	-1E+10	1	-1E+10	1	-1E+10	1
4902551	67	C	06/19/2022	07:05	-131.714	49.050	0	56.80	0	8.0160	0	32.3100	0	25.161	0	56.310	0	276.0	4	94.3	4	-1E+10	1	-1E+10	1	-1E+10	1	-1E+10	1	-1E+10	1	-1E+10	1
4902551	67	C	06/19/2022	07:05	-131.714	49.050	0	57.80	0	7.9890	0	32.3130	0	25.167	0	57.301	0	275.4	4	94.1	4	-1E+10	1	-1E+10	1	-1E+10	1	-1E+10	1	-1E+10	1	-1E+10	1
4902551	67	C	06/19/2022	07:05	-131.714	49.050	0	58.80	0	7.9610	0	32.3200	0	25.176	0	58.293	0	274.6	4	93.8	4	-1E+10	1	-1E+10	1	-1E+10	1	-1E+10	1	-1E+10	1	-1E+10	1
4902551	67	C	06/19/2022	07:05	-131.714	49.050	0	59.90	0	7.9200	0	32.3180	0	25.181	0	59.383	0	274.0	4	93.5	4	-1E+10	1	-1E+10	1	-1E+10	1	-1E+10	1	-1E+10	1	-1E+10	1
4902551	67	C	06/19/2022	07:05	-131.714	49.050	0	60.80	0	7.8960	0	32.3170	0	25.183	0	60.275	0	273.4	4	93.2	4	-1E+10	1	-1E+10	1	-1E+10	1	-1E+10	1	-1E+10	1	-1E+10	1
4902551	67	C	06/19/2022	07:05	-131.714	49.050	0	61.90	0	7.8630	0	32.3210	0	25.191	0	61.365	0	272.8	4	93.0	4	-1E+10	1	-1E+10	1	-1E+10	1	-1E+10	1	-1E+10	1	-1E+10	1
4902551	67	C	06/19/2022	07:05	-131.714	49.050	0	63.20	0	7.7950	0	32.3300	0	25.208	0	62.654	0	272.5	4	92.7	4	-1E+10	1	-1E+10	1	-1E+10	1	-1E+10	1	-1E+10	1	-1E+10	1
4902551	67	C	06/19/2022	07:05	-131.714	49.050	0	64.10	0	7.7830	0	32.3290	0	25.209	0	63.546	0	272.3	4	92.6	4	-1E+10	1	-1E+10	1	-1E+10	1	-1E+10	1	-1E+10	1	-1E+10	1
4902551	67	C	06/19/2022	07:05	-131.714	49.050	0	65.00	0	7.7760	0	32.3280	0	25.209	0	64.438	0	272.0	4	92.5	4	-1E+10	1	-1E+10	1	-1E+10	1	-1E+10	1	-1E+10	1	-1E+10	1
4902551	67	C	06/19/2022	07:05	-131.714	49.050	0	66.30	0	7.7620	0	32.3290	0	25.212	0	65.727	0	271.3	4	92.2	4	-1E+10	1	-1E+10	1	-1E+10	1	-1E+10	1	-1E+10	1	-1E+10	1
4902551	67	C	06/19/2022	07:05	-131.714	49.050	0	67.20	0	7.7560	0	32.3310	0	25.214	0	66.619	0	270.7	4	92.0	4	-1E+10	1	-1E+10	1	-1E+10	1	-1E+10	1	-1E+10	1	-1E+10	1
4902551	67	C	06/19/2022	07:05	-131.714	49.050	0	67.90	0	7.7430	0	32.3330	0	25.218	0	67.313	0	270.4	4	91.9	4	-1E+10	1	-1E+10	1	-1E+10	1	-1E+10	1	-1E+10	1	-1E+10	1
4902551	67	C	06/19/2022	07:05	-131.714	49.050	0	69.00	0	7.7380	0	32.3320	0	25.218	0	68.403	0	269.7	4	91.6	4	-1E+10	1	-1E+10	1	-1E+10	1	-1E+10	1	-1E+10	1	-1E+10	1
4902551	67	C	06/19/2022	07:05	-131.714	49.050	0	70.10	0	7.7280	0	32.3340	0	25.221	0	69.493	0	268.7	4	91.3	4	-1E+10	1	-1E+10	1	-1E+10	1	-1E+10	1	-1E+10	1	-1E+10	1
4902551	67	C	06/19/2022	07:05	-131.714	49.050	0	71.30	0	7.7190	0	32.3340	0	25.222	0	70.683	0	267.7	4	90.9	4	-1E+10	1	-1E+10	1	-1E+10	1	-1E+10	1	-1E+10	1	-1E+10	1
4902551	67	C	06/19/2022	07:05	-131.714	49.050	0	72.20	0	7.7140	0	32.3320	0	25.221	0	71.575	0	266.7	4	90.6	4	-1E+10	1	-1E+10	1	-1E+10	1	-1E+10	1	-1E+10	1	-1E+10	1
4902551	67	C	06/19/2022	07:05	-131.714	49.050	0	73.10	0	7.6850	0	32.3390	0	25.231	0	72.467	0	265.8	4	90.2	4	-1E+10	1	-1E+10	1	-1E+10	1	-1E+10	1	-1E+10	1	-1E+10	1
4902551	67	C	06/19/2022	07:05	-131.714	49.050	0	73.80	0	7.6590	0	32.3490	0	25.242	0	73.161	0	265.1	4	89.9	4	-1E+10	1	-1E+10	1	-1E+10	1	-1E+10	1	-1E+10	1	-1E+10	1
4902551	67	C	06/19/2022	07:05	-131.714	49.050	0	75.00	0	7.6060	0	32.3570	0	25.256	0	74.350	0	263.9	4	89.4	4	-1E+10	1	-1E+10	1	-1E+10	1	-1E+10	1	-1E+10	1	-1E+10	1
4902551	67	C	06/19/2022	07:05	-131.714	49.050	0	75.70	0	7.5920	0	32.3610	0	25.261	0	75.044	0	263.2	4	89.2	4	-1E+10	1	-1E+10	1	-1E+10	1	-1E+10	1	-1E+10	1	-1E+10	1
4902551	67	C	06/19/2022	07:05	-131.714	49.050	0	76.70	0	7.5680	0	32.3660	0	25.268	0	76.035	0	262.1	4	88.8	4	-1E+10	1	-1E+10	1	-1E+10	1	-1E+10	1	-1E+10	1	-1E+10	1
4902551	67	C	06/19/2022	07:05	-131.714	49.050	0	77.80	0	7.5350	0	32.3720	0	25.278	0	77.125	0	261.3	4	88.4	4	-1E+10	1	-1E+10	1	-1E+10	1	-1E+10	1	-1E+10	1	-1E+10	1
4902551	67	C	06/19/2022	07:05	-131.714	49.050	0	78.80	0	7.5090	0	32.3810	0	25.288	0	78.116	0	260.3	4	88.0	4	-1E+10	1	-1E+10	1	-1E+10	1	-1E+10	1	-1E+10	1	-1E+10	1
4902551	67	C	06/19/2022	07:05	-131.714	49.050	0	79.90	0	7.5010	0	32.3820	0	25.290	0	79.207	0	259.0	4	87.6	4	-1E+10	1	-1E+10	1	-1E+10	1	-1E+10	1	-1E+10	1	-1E+10	1
4902551	67	C	06/19/2022	07:05	-131.714	49.050	0	81.00	0	7.4940	0	32.3870	0	25.295	0	80.297	0	257.5	4	87.1	4	-1E+10	1	-1E+10	1	-1E+10	1	-1E+10	1	-1E+10	1	-1E+10	1
4902551	67	C	06/19/2022	07:05	-131.714	49.050	0	82.10	0	7.4850	0	32.3900	0	25.299	0	81.387	0	256.0	4	86.5	4	-1E+10	1	-1E+10	1	-1E+10	1	-1E+10	1	-1E+10	1	-1E+10	1
4902551	67	C	06/19/2022	07:05	-131.714	49.050	0	83.10	0	7.4780	0	32.3910	0	25.300	0	82.378	0	260.8	4	88.1	4	-1E+10	1	-1E+10	1	-1E+10	1	-1E+10	1	-1E+10	1	-1E+10	1
4902551	67	C	06/19/2022	07:05	-131.714	49.050	0	84.10	0	7.4710	0	32.3950	0	25.305	0	83.369	0	258.8	4	87.5	4	-1E+10	1	-1E+10	1	-1E+10	1	-1E+10	1	-1E+10	1	-1E+10	1
4902551	67	C	06/19/2022	07:05	-131.714	49.050	0	85.10	0	7.4470	0	32.4070	0	25.317	0	84.360	0	256.8	4	86.7	4	-1E+10	1	-1E+10	1	-1E+10	1	-1E+10	1	-1E+10	1	-1E+10	1
4902551	67	C	06/19/2022	07:05	-131.714	49.050	0	86.00	0	7.4090	0	32.4290	0	25.340	0	85.252	0	255.2	4	86.2	4	-1E+10	1	-1E+10	1	-1E+10	1	-1E+10	1	-1E+10	1	-1E+10	1
4902551	67	C	06/19/2022	07:05	-131.714	49.050	0	86.70	0	7.3770	0	32.4450	0	25.357	0	85.946	0	253.8	4	85.6	4	-1E+10	1	-1E+10	1	-1E+10	1	-1E+10	1	-1E+10	1	-1E+10	1
4902551	67	C	06/19/2022	07:05	-131.714	49.050	0	87.80	0	7.3490	0	32.4580	0	25.371	0	87.036	0	251.7	4	84.9	4	-1E+10	1	-1E+10	1	-1E+10	1	-1E+10	1	-1E+10	1	-1E+10	1
4902551	67	C	06/19/2022	07:05	-131.714	49.050	0	89.00	0	7.3030	0	32.4900	0	25.402	0	88.226	0	249.6	4	84.1	4	-1E+10	1	-1E+10	1	-1E+10	1	-1E+10	1	-1E+10	1	-1E+10	1
4902551	67	C	06/19/2022	07:05	-131.714	49.050	0	90.00	0	7.2660	0	32.5150	0	25.427	0	89.217	0	247.9	4	83.4	4	-1E+10	1	-1E+10	1	-1E+10	1	-1E+10	1	-1E+10	1	-1E+10	1
4902551	67	C	06/19/2022	07:05	-131.714	49.050	0	91.10	0	7.2530	0	32.5230	0	25.435	0	90.307	0	245.4	4	82.6	4	-1E+10	1	-1E+10	1	-1E+10	1	-1E+10	1	-1E+10	1	-1E+10	1
4902551	67	C	06/19/2022	07:05	-131.714	49.050	0	92.00	0	7.2450	0	32.5270	0	25.439	0	91.199	0	243.1	4	81.8	4	-1E+10	1	-1E+10	1	-1E+10	1	-1E+10	1	-1E+10	1	-1E+10	1
4902551	67	C	06/19/2022	07:05	-131.714	49.050	0	92.90	0	7.2230	0	32.5420	0	25.454	0	92.091	0	240.3	4	80.8	4	-1E+10	1	-1E+10	1	-1E+10	1	-1E+10	1	-1E+10	1	-1E+10	1
4902551	67	C	06/19/2022	07:05	-131.714	49.050	0	94.10	0	7.1770	0	32.5870	0	25.496	0	93.280	0	237.6	4	79.9	4	-1E+10	1	-1E+10	1	-1E+10	1	-1E+10	1	-1E+10	1	-1E+10	1
4902551	67	C	06/19/2022	07:05	-131.714	49.050	0	94.90	0	7.1640	0	32.6020	0	25.509	0	94.073	0	235.7	4	79.2	4	-1E+10	1	-1E+10	1	-1E+10	1	-1E+10	1	-1E+10	1	-1E+10	1
4902551	67	C	06/19/2022	07:05	-131.714	49.050	0	96.10	0	7.1280	0	32.6300	0	25.536	0	95.262	0	232.7	4	78.1	4	-1E+10	1	-1E+10	1	-1E+10	1	-1E+10	1	-1E+10	1	-1E+10	1
4902551	67	C	06/19/2022	07:05	-131.714	49.050	0	97.00	0	7.1000	0	32.6600	0	25.564	0	96.154	0	231.0	4	77.5	4	-1E+10	1	-1E+10	1	-1E+10	1	-1E+10	1	-1E+10	1	-1E+10	1
4902551	67	C	06/19/2022	07:05	-131.714	49.050	0	97.70	0	7.0640	0	32.6910	0	25.593	0	96.848	0	229.9	4	77.1	4	-1E+10	1	-1E+10	1	-1E+10	1	-1E+10	1	-1E+10	1	-1E+10	1
4902551	67	C	06/19/2022	07:05	-131.714	49.050	0	98.70	0	7.0220	0	32.7280	0	25.628	0	97.839	0	228.6	4	76.7	4	-1E+10	1	-1E+10	1	-1E+10	1	-1E+10	1	-1E+10	1	-1E+10	1
4902551	67	C	06/19/2022	07:05	-131.714	49.050	0	99.70	0	6.9980	0	32.7460	0	25.645	0	98.830	0	227.5	4	76.3	4	-1E+10	1	-1E+10	1	-1E+10	1	-1E+10	1	-1E+10	1	-1E+10	1
4902551	67	C	06/19/2022	07:05	-131.714	49.050	0	101.10	0	6.9790	0	32.7610	0	25.660	0	100.217	0	224.9	4	75.4	4	-1E+10	1	-1E+10	1	-1E+10	1	-1E+10	1	-1E+10	1	-1E+10	1
4902551	67	C	06/19/2022	07:05	-131.714	49.050	0	102.00	0	6.9560	0	32.7880	0	25.684	0	101.109	0	223.0	4	74.7	4	-1E+10	1	-1E+10	1	-1E+10	1	-1E+10	1	-1E+10	1	-1E+10	1
4902551	67	C	06/19/2022	07:05	-131.714	49.050	0	102.80	0	6.9100	0	32.8410	0	25.732	0	101.902	0	221.4	4	74.1	4	-1E+10	1	-1E+10	1	-1E+10	1	-1E+10	1	-1E+10	1	-1E+10	1
4902551	67	C	06/19/2022	07:05	-131.714	49.050	0	103.90	0	6.8910	0	32.8630	0	25.752	0	102.992	0	219.5	4	73.5	4	-1E+10	1	-1E+10	1	-1E+10	1	-1E+10	1	-1E+10	1	-1E+10	1
4902551	67	C	06/19/2022	07:05	-131.714	49.050	0	105.00	0	6.8670	0	32.8770	0	25.766	0	104.082	0	218.0	4	72.9	4	-1E+10	1	-1E+10	1	-1E+10	1	-1E+10	1	-1E+10	1	-1E+10	1
4902551	67	C	06/19/2022	07:05	-131.714	49.050	0	106.10	0	6.8620	0	32.8800	0	25.769	0	105.172	0	216.1	4	72.3	4	-1E+10	1	-1E+10	1	-1E+10	1	-1E+10	1	-1E+10	1	-1E+10	1
4902551	67	C	06/19/2022	07:05	-131.714	49.050	0	107.00	0	6.8580	0	32.8830	0	25.772	0	106.064	0	214.5	4	71.7	4	-1E+10	1	-1E+10	1	-1E+10	1	-1E+10	1	-1E+10	1	-1E+10	1
4902551	67	C	06/19/2022	07:05	-131.714	49.050	0	107.80	0	6.8300	0	32.9010	0	25.790	0	106.857	0	212.9	4	71.2	4	-1E+10	1	-1E+10	1	-1E+10	1	-1E+10	1	-1E+10	1	-1E+10	1
4902551	67	C	06/19/2022	07:05	-131.714	49.050	0	108.80	0	6.7830	0	32.9270	0	25.816	0	107.848	0	210.6	4	70.3	4	-1E+10	1	-1E+10	1	-1E+10	1	-1E+10	1	-1E+10	1	-1E+10	1
4902551	67	C	06/19/2022	07:05	-131.714	49.050	0	109.80	0	6.7410	0	32.9660	0	25.853	0	108.839	0	208.2	4	69.5	4	-1E+10	1	-1E+10	1	-1E+10	1	-1E+10	1	-1E+10	1	-1E+10	1
4902551	67	C	06/19/2022	07:05	-131.714	49.050	0	111.10	0	6.6870	0	33.0370	0	25.916	0	110.127	0	206.1	4	68.8	4	-1E+10	1	-1E+10	1	-1E+10	1	-1E+10	1	-1E+10	1	-1E+10	1
4902551	67	C	06/19/2022	07:05	-131.714	49.050	0	112.10	0	6.6440	0	33.1150	0	25.983	0	111.118	0	205.0	4	68.3	4	-1E+10	1	-1E+10	1	-1E+10	1	-1E+10	1	-1E+10	1	-1E+10	1
4902551	67	C	06/19/2022	07:05	-131.714	49.050	0	112.90	0	6.6230	0	33.1490	0	26.012	0	111.911	0	204.3	4	68.1	4	-1E+10	1	-1E+10	1	-1E+10	1	-1E+10	1	-1E+10	1	-1E+10	1
4902551	67	C	06/19/2022	07:05	-131.714	49.050	0	114.00	0	6.5850	0	33.1760	0	26.039	0	113.001	0	203.4	4	67.7	4	-1E+10	1	-1E+10	1	-1E+10	1	-1E+10	1	-1E+10	1	-1E+10	1
4902551	67	C	06/19/2022	07:05	-131.714	49.050	0	115.10	0	6.5690	0	33.1750	0	26.040	0	114.091	0	202.3	4	67.4	4	-1E+10	1	-1E+10	1	-1E+10	1	-1E+10	1	-1E+10	1	-1E+10	1
4902551	67	C	06/19/2022	07:05	-131.714	49.050	0	115.80	0	6.5360	0	33.1920	0	26.058	0	114.785	0	201.4	4	67.0	4	-1E+10	1	-1E+10	1	-1E+10	1	-1E+10	1	-1E+10	1	-1E+10	1
4902551	67	C	06/19/2022	07:05	-131.714	49.050	0	117.00	0	6.5270	0	33.2110	0	26.074	0	115.974	0	200.0	4	66.5	4	-1E+10	1	-1E+10	1	-1E+10	1	-1E+10	1	-1E+10	1	-1E+10	1
4902551	67	C	06/19/2022	07:05	-131.714	49.050	0	118.20	0	6.5360	0	33.2410	0	26.096	0	117.163	0	198.5	4	66.1	4	-1E+10	1	-1E+10	1	-1E+10	1	-1E+10	1	-1E+10	1	-1E+10	1
4902551	67	C	06/19/2022	07:05	-131.714	49.050	0	119.00	0	6.5390	0	33.2480	0	26.101	0	117.956	0	197.7	4	65.8	4	-1E+10	1	-1E+10	1	-1E+10	1	-1E+10	1	-1E+10	1	-1E+10	1
4902551	67	C	06/19/2022	07:05	-131.714	49.050	0	119.90	0	6.5390	0	33.2580	0	26.109	0	118.848	0	196.6	4	65.4	4	-1E+10	1	-1E+10	1	-1E+10	1	-1E+10	1	-1E+10	1	-1E+10	1
4902551	67	C	06/19/2022	07:05	-131.714	49.050	0	120.70	0	6.5220	0	33.2710	0	26.122	0	119.641	0	195.4	4	65.0	4	-1E+10	1	-1E+10	1	-1E+10	1	-1E+10	1	-1E+10	1	-1E+10	1
4902551	67	C	06/19/2022	07:05	-131.714	49.050	0	122.00	0	6.4740	0	33.2860	0	26.140	0	120.929	0	194.0	4	64.5	4	-1E+10	1	-1E+10	1	-1E+10	1	-1E+10	1	-1E+10	1	-1E+10	1
4902551	67	C	06/19/2022	07:05	-131.714	49.050	0	123.30	0	6.4830	0	33.3020	0	26.151	0	122.217	0	192.5	4	64.0	4	-1E+10	1	-1E+10	1	-1E+10	1	-1E+10	1	-1E+10	1	-1E+10	1
4902551	67	C	06/19/2022	07:05	-131.714	49.050	0	124.10	0	6.4940	0	33.3100	0	26.156	0	123.010	0	191.5	4	63.7	4	-1E+10	1	-1E+10	1	-1E+10	1	-1E+10	1	-1E+10	1	-1E+10	1
4902551	67	C	06/19/2022	07:05	-131.714	49.050	0	125.00	0	6.5080	0	33.3230	0	26.165	0	123.902	0	190.5	4	63.4	4	-1E+10	1	-1E+10	1	-1E+10	1	-1E+10	1	-1E+10	1	-1E+10	1
4902551	67	C	06/19/2022	07:05	-131.714	49.050	0	125.90	0	6.5130	0	33.3490	0	26.185	0	124.793	0	189.7	4	63.2	4	-1E+10	1	-1E+10	1	-1E+10	1	-1E+10	1	-1E+10	1	-1E+10	1
4902551	67	C	06/19/2022	07:05	-131.714	49.050	0	126.80	0	6.5130	0	33.3520	0	26.187	0	125.685	0	189.1	4	63.0	4	-1E+10	1	-1E+10	1	-1E+10	1	-1E+10	1	-1E+10	1	-1E+10	1
4902551	67	C	06/19/2022	07:05	-131.714	49.050	0	127.70	0	6.5130	0	33.3540	0	26.189	0	126.577	0	188.3	4	62.7	4	-1E+10	1	-1E+10	1	-1E+10	1	-1E+10	1	-1E+10	1	-1E+10	1
4902551	67	C	06/19/2022	07:05	-131.714	49.050	0	128.60	0	6.5130	0	33.3530	0	26.188	0	127.469	0	187.5	4	62.4	4	-1E+10	1	-1E+10	1	-1E+10	1	-1E+10	1	-1E+10	1	-1E+10	1
4902551	67	C	06/19/2022	07:05	-131.714	49.050	0	129.60	0	6.5090	0	33.3740	0	26.205	0	128.460	0	186.7	4	62.2	4	-1E+10	1	-1E+10	1	-1E+10	1	-1E+10	1	-1E+10	1	-1E+10	1
4902551	67	C	06/19/2022	07:05	-131.714	49.050	0	130.60	0	6.5030	0	33.3840	0	26.214	0	129.451	0	185.9	4	61.9	4	-1E+10	1	-1E+10	1	-1E+10	1	-1E+10	1	-1E+10	1	-1E+10	1
4902551	67	C	06/19/2022	07:05	-131.714	49.050	0	131.60	0	6.4980	0	33.4090	0	26.234	0	130.442	0	185.0	4	61.6	4	-1E+10	1	-1E+10	1	-1E+10	1	-1E+10	1	-1E+10	1	-1E+10	1
4902551	67	C	06/19/2022	07:05	-131.714	49.050	0	132.60	0	6.4790	0	33.4470	0	26.266	0	131.432	0	184.5	4	61.4	4	-1E+10	1	-1E+10	1	-1E+10	1	-1E+10	1	-1E+10	1	-1E+10	1
4902551	67	C	06/19/2022	07:05	-131.714	49.050	0	133.70	0	6.4790	0	33.4480	0	26.267	0	132.522	0	184.0	4	61.2	4	-1E+10	1	-1E+10	1	-1E+10	1	-1E+10	1	-1E+10	1	-1E+10	1
4902551	67	C	06/19/2022	07:05	-131.714	49.050	0	134.70	0	6.4770	0	33.4500	0	26.269	0	133.513	0	183.4	4	61.1	4	-1E+10	1	-1E+10	1	-1E+10	1	-1E+10	1	-1E+10	1	-1E+10	1
4902551	67	C	06/19/2022	07:05	-131.714	49.050	0	135.80	0	6.4680	0	33.4580	0	26.276	0	134.603	0	182.8	4	60.9	4	-1E+10	1	-1E+10	1	-1E+10	1	-1E+10	1	-1E+10	1	-1E+10	1
4902551	67	C	06/19/2022	07:05	-131.714	49.050	0	136.80	0	6.4690	0	33.4730	0	26.288	0	135.594	0	182.2	4	60.6	4	-1E+10	1	-1E+10	1	-1E+10	1	-1E+10	1	-1E+10	1	-1E+10	1
4902551	67	C	06/19/2022	07:05	-131.714	49.050	0	137.90	0	6.4740	0	33.4740	0	26.288	0	136.684	0	181.5	4	60.4	4	-1E+10	1	-1E+10	1	-1E+10	1	-1E+10	1	-1E+10	1	-1E+10	1
4902551	67	C	06/19/2022	07:05	-131.714	49.050	0	138.90	0	6.4720	0	33.4820	0	26.295	0	137.675	0	180.9	4	60.2	4	-1E+10	1	-1E+10	1	-1E+10	1	-1E+10	1	-1E+10	1	-1E+10	1
4902551	67	C	06/19/2022	07:05	-131.714	49.050	0	140.00	0	6.4650	0	33.4890	0	26.301	0	138.765	0	180.3	4	60.0	4	-1E+10	1	-1E+10	1	-1E+10	1	-1E+10	1	-1E+10	1	-1E+10	1
4902551	67	C	06/19/2022	07:05	-131.714	49.050	0	141.00	0	6.4620	0	33.5020	0	26.312	0	139.756	0	179.5	4	59.8	4	-1E+10	1	-1E+10	1	-1E+10	1	-1E+10	1	-1E+10	1	-1E+10	1
4902551	67	C	06/19/2022	07:05	-131.714	49.050	0	142.10	0	6.4640	0	33.5050	0	26.314	0	140.846	0	178.7	4	59.5	4	-1E+10	1	-1E+10	1	-1E+10	1	-1E+10	1	-1E+10	1	-1E+10	1
4902551	67	C	06/19/2022	07:05	-131.714	49.050	0	143.10	0	6.4700	0	33.5070	0	26.315	0	141.836	0	178.0	4	59.3	4	-1E+10	1	-1E+10	1	-1E+10	1	-1E+10	1	-1E+10	1	-1E+10	1
4902551	67	C	06/19/2022	07:05	-131.714	49.050	0	144.20	0	6.4690	0	33.5170	0	26.323	0	142.926	0	177.2	4	59.0	4	-1E+10	1	-1E+10	1	-1E+10	1	-1E+10	1	-1E+10	1	-1E+10	1
4902551	67	C	06/19/2022	07:05	-131.714	49.050	0	145.20	0	6.4660	0	33.5300	0	26.334	0	143.917	0	176.4	4	58.7	4	-1E+10	1	-1E+10	1	-1E+10	1	-1E+10	1	-1E+10	1	-1E+10	1
4902551	67	C	06/19/2022	07:05	-131.714	49.050	0	146.20	0	6.4680	0	33.5340	0	26.337	0	144.908	0	175.5	4	58.5	4	-1E+10	1	-1E+10	1	-1E+10	1	-1E+10	1	-1E+10	1	-1E+10	1
4902551	67	C	06/19/2022	07:05	-131.714	49.050	0	147.20	0	6.4710	0	33.5370	0	26.339	0	145.899	0	174.6	4	58.1	4	-1E+10	1	-1E+10	1	-1E+10	1	-1E+10	1	-1E+10	1	-1E+10	1
4902551	67	C	06/19/2022	07:05	-131.714	49.050	0	148.20	0	6.4740	0	33.5470	0	26.346	0	146.889	0	173.6	4	57.8	4	-1E+10	1	-1E+10	1	-1E+10	1	-1E+10	1	-1E+10	1	-1E+10	1
4902551	67	C	06/19/2022	07:05	-131.714	49.050	0	149.10	0	6.4790	0	33.5540	0	26.351	0	147.781	0	172.6	4	57.5	4	-1E+10	1	-1E+10	1	-1E+10	1	-1E+10	1	-1E+10	1	-1E+10	1
4902551	67	C	06/19/2022	07:05	-131.714	49.050	0	150.20	0	6.4840	0	33.5890	0	26.378	0	148.871	0	171.9	4	57.3	4	-1E+10	1	-1E+10	1	-1E+10	1	-1E+10	1	-1E+10	1	-1E+10	1
4902551	67	C	06/19/2022	07:05	-131.714	49.050	0	151.20	0	6.4530	0	33.6160	0	26.403	0	149.862	0	171.5	4	57.1	4	-1E+10	1	-1E+10	1	-1E+10	1	-1E+10	1	-1E+10	1	-1E+10	1
4902551	67	C	06/19/2022	07:05	-131.714	49.050	0	152.10	0	6.4040	0	33.6260	0	26.417	0	150.754	0	171.4	4	57.1	4	-1E+10	1	-1E+10	1	-1E+10	1	-1E+10	1	-1E+10	1	-1E+10	1
4902551	67	C	06/19/2022	07:05	-131.714	49.050	0	153.10	0	6.3840	0	33.6340	0	26.426	0	151.744	0	171.2	4	57.0	4	-1E+10	1	-1E+10	1	-1E+10	1	-1E+10	1	-1E+10	1	-1E+10	1
4902551	67	C	06/19/2022	07:05	-131.714	49.050	0	154.10	0	6.3670	0	33.6390	0	26.433	0	152.735	0	171.1	4	56.9	4	-1E+10	1	-1E+10	1	-1E+10	1	-1E+10	1	-1E+10	1	-1E+10	1
4902551	67	C	06/19/2022	07:05	-131.714	49.050	0	155.10	0	6.3580	0	33.6430	0	26.437	0	153.726	0	170.9	4	56.8	4	-1E+10	1	-1E+10	1	-1E+10	1	-1E+10	1	-1E+10	1	-1E+10	1
4902551	67	C	06/19/2022	07:05	-131.714	49.050	0	156.20	0	6.3490	0	33.6480	0	26.442	0	154.816	0	170.8	4	56.8	4	-1E+10	1	-1E+10	1	-1E+10	1	-1E+10	1	-1E+10	1	-1E+10	1
4902551	67	C	06/19/2022	07:05	-131.714	49.050	0	157.20	0	6.3540	0	33.6510	0	26.444	0	155.807	0	170.7	4	56.7	4	-1E+10	1	-1E+10	1	-1E+10	1	-1E+10	1	-1E+10	1	-1E+10	1
4902551	67	C	06/19/2022	07:05	-131.714	49.050	0	158.20	0	6.3630	0	33.6540	0	26.445	0	156.797	0	170.3	4	56.6	4	-1E+10	1	-1E+10	1	-1E+10	1	-1E+10	1	-1E+10	1	-1E+10	1
4902551	67	C	06/19/2022	07:05	-131.714	49.050	0	159.20	0	6.3710	0	33.6540	0	26.444	0	157.788	0	170.0	4	56.5	4	-1E+10	1	-1E+10	1	-1E+10	1	-1E+10	1	-1E+10	1	-1E+10	1
4902551	67	C	06/19/2022	07:05	-131.714	49.050	0	160.30	0	6.3780	0	33.6630	0	26.450	0	158.878	0	169.5	4	56.4	4	-1E+10	1	-1E+10	1	-1E+10	1	-1E+10	1	-1E+10	1	-1E+10	1
4902551	67	C	06/19/2022	07:05	-131.714	49.050	0	161.30	0	6.3770	0	33.6800	0	26.464	0	159.869	0	169.1	4	56.3	4	-1E+10	1	-1E+10	1	-1E+10	1	-1E+10	1	-1E+10	1	-1E+10	1
4902551	67	C	06/19/2022	07:05	-131.714	49.050	0	162.30	0	6.3740	0	33.6780	0	26.463	0	160.859	0	168.6	4	56.1	4	-1E+10	1	-1E+10	1	-1E+10	1	-1E+10	1	-1E+10	1	-1E+10	1
4902551	67	C	06/19/2022	07:05	-131.714	49.050	0	163.30	0	6.3690	0	33.6800	0	26.465	0	161.850	0	168.0	4	55.9	4	-1E+10	1	-1E+10	1	-1E+10	1	-1E+10	1	-1E+10	1	-1E+10	1
4902551	67	C	06/19/2022	07:05	-131.714	49.050	0	164.30	0	6.3440	0	33.6830	0	26.470	0	162.841	0	167.5	4	55.7	4	-1E+10	1	-1E+10	1	-1E+10	1	-1E+10	1	-1E+10	1	-1E+10	1
4902551	67	C	06/19/2022	07:05	-131.714	49.050	0	165.30	0	6.3180	0	33.6810	0	26.472	0	163.832	0	167.2	4	55.5	4	-1E+10	1	-1E+10	1	-1E+10	1	-1E+10	1	-1E+10	1	-1E+10	1
4902551	67	C	06/19/2022	07:05	-131.714	49.050	0	166.20	0	6.3120	0	33.6780	0	26.471	0	164.723	0	166.7	4	55.4	4	-1E+10	1	-1E+10	1	-1E+10	1	-1E+10	1	-1E+10	1	-1E+10	1
4902551	67	C	06/19/2022	07:05	-131.714	49.050	0	167.10	0	6.3100	0	33.6800	0	26.472	0	165.615	0	166.3	4	55.3	4	-1E+10	1	-1E+10	1	-1E+10	1	-1E+10	1	-1E+10	1	-1E+10	1
4902551	67	C	06/19/2022	07:05	-131.714	49.050	0	168.30	0	6.3110	0	33.6820	0	26.474	0	166.804	0	165.6	4	55.0	4	-1E+10	1	-1E+10	1	-1E+10	1	-1E+10	1	-1E+10	1	-1E+10	1
4902551	67	C	06/19/2022	07:05	-131.714	49.050	0	169.00	0	6.3050	0	33.6850	0	26.477	0	167.497	0	165.1	4	54.8	4	-1E+10	1	-1E+10	1	-1E+10	1	-1E+10	1	-1E+10	1	-1E+10	1
4902551	67	C	06/19/2022	07:05	-131.714	49.050	0	169.70	0	6.2940	0	33.6890	0	26.482	0	168.191	0	164.6	4	54.7	4	-1E+10	1	-1E+10	1	-1E+10	1	-1E+10	1	-1E+10	1	-1E+10	1
4902551	67	C	06/19/2022	07:05	-131.714	49.050	0	170.80	0	6.2580	0	33.7030	0	26.497	0	169.280	0	163.9	4	54.4	4	-1E+10	1	-1E+10	1	-1E+10	1	-1E+10	1	-1E+10	1	-1E+10	1
4902551	67	C	06/19/2022	07:05	-131.714	49.050	0	172.00	0	6.2390	0	33.7050	0	26.501	0	170.469	0	163.3	4	54.2	4	-1E+10	1	-1E+10	1	-1E+10	1	-1E+10	1	-1E+10	1	-1E+10	1
4902551	67	C	06/19/2022	07:05	-131.714	49.050	0	173.00	0	6.2370	0	33.7090	0	26.505	0	171.460	0	162.8	4	54.0	4	-1E+10	1	-1E+10	1	-1E+10	1	-1E+10	1	-1E+10	1	-1E+10	1
4902551	67	C	06/19/2022	07:05	-131.714	49.050	0	174.20	0	6.2260	0	33.7150	0	26.511	0	172.649	0	162.2	4	53.8	4	-1E+10	1	-1E+10	1	-1E+10	1	-1E+10	1	-1E+10	1	-1E+10	1
4902551	67	C	06/19/2022	07:05	-131.714	49.050	0	174.90	0	6.2210	0	33.7100	0	26.507	0	173.342	0	161.8	4	53.6	4	-1E+10	1	-1E+10	1	-1E+10	1	-1E+10	1	-1E+10	1	-1E+10	1
4902551	67	C	06/19/2022	07:05	-131.714	49.050	0	176.00	0	6.2140	0	33.7100	0	26.508	0	174.432	0	161.0	4	53.4	4	-1E+10	1	-1E+10	1	-1E+10	1	-1E+10	1	-1E+10	1	-1E+10	1
4902551	67	C	06/19/2022	07:05	-131.714	49.050	0	177.10	0	6.1990	0	33.7180	0	26.517	0	175.522	0	160.2	4	53.1	4	-1E+10	1	-1E+10	1	-1E+10	1	-1E+10	1	-1E+10	1	-1E+10	1
4902551	67	C	06/19/2022	07:05	-131.714	49.050	0	177.90	0	6.1910	0	33.7140	0	26.514	0	176.314	0	159.6	4	52.9	4	-1E+10	1	-1E+10	1	-1E+10	1	-1E+10	1	-1E+10	1	-1E+10	1
4902551	67	C	06/19/2022	07:05	-131.714	49.050	0	179.00	0	6.1900	0	33.7200	0	26.519	0	177.404	0	158.7	4	52.6	4	-1E+10	1	-1E+10	1	-1E+10	1	-1E+10	1	-1E+10	1	-1E+10	1
4902551	67	C	06/19/2022	07:05	-131.714	49.050	0	180.20	0	6.1860	0	33.7250	0	26.524	0	178.593	0	157.8	4	52.3	4	-1E+10	1	-1E+10	1	-1E+10	1	-1E+10	1	-1E+10	1	-1E+10	1
4902551	67	C	06/19/2022	07:05	-131.714	49.050	0	181.00	0	6.1810	0	33.7280	0	26.527	0	179.385	0	157.1	4	52.1	4	-1E+10	1	-1E+10	1	-1E+10	1	-1E+10	1	-1E+10	1	-1E+10	1
4902551	67	C	06/19/2022	07:05	-131.714	49.050	0	181.80	0	6.1690	0	33.7300	0	26.530	0	180.178	0	156.4	4	51.8	4	-1E+10	1	-1E+10	1	-1E+10	1	-1E+10	1	-1E+10	1	-1E+10	1
4902551	67	C	06/19/2022	07:05	-131.714	49.050	0	182.70	0	6.1600	0	33.7300	0	26.531	0	181.069	0	155.8	4	51.6	4	-1E+10	1	-1E+10	1	-1E+10	1	-1E+10	1	-1E+10	1	-1E+10	1
4902551	67	C	06/19/2022	07:05	-131.714	49.050	0	183.90	0	6.1570	0	33.7320	0	26.533	0	182.258	0	154.5	4	51.2	4	-1E+10	1	-1E+10	1	-1E+10	1	-1E+10	1	-1E+10	1	-1E+10	1
4902551	67	C	06/19/2022	07:05	-131.714	49.050	0	185.10	0	6.1440	0	33.7430	0	26.543	0	183.447	0	153.2	4	50.7	4	-1E+10	1	-1E+10	1	-1E+10	1	-1E+10	1	-1E+10	1	-1E+10	1
4902551	67	C	06/19/2022	07:05	-131.714	49.050	0	185.90	0	6.1280	0	33.7430	0	26.545	0	184.239	0	152.4	4	50.4	4	-1E+10	1	-1E+10	1	-1E+10	1	-1E+10	1	-1E+10	1	-1E+10	1
4902551	67	C	06/19/2022	07:05	-131.714	49.050	0	186.80	0	6.1290	0	33.7420	0	26.545	0	185.131	0	151.5	4	50.1	4	-1E+10	1	-1E+10	1	-1E+10	1	-1E+10	1	-1E+10	1	-1E+10	1
4902551	67	C	06/19/2022	07:05	-131.714	49.050	0	187.60	0	6.1070	0	33.7570	0	26.559	0	185.923	0	150.5	4	49.8	4	-1E+10	1	-1E+10	1	-1E+10	1	-1E+10	1	-1E+10	1	-1E+10	1
4902551	67	C	06/19/2022	07:05	-131.714	49.050	0	188.90	0	6.0680	0	33.7480	0	26.557	0	187.211	0	149.2	4	49.3	4	-1E+10	1	-1E+10	1	-1E+10	1	-1E+10	1	-1E+10	1	-1E+10	1
4902551	67	C	06/19/2022	07:05	-131.714	49.050	0	190.20	0	6.0460	0	33.7520	0	26.563	0	188.499	0	147.8	4	48.8	4	-1E+10	1	-1E+10	1	-1E+10	1	-1E+10	1	-1E+10	1	-1E+10	1
4902551	67	C	06/19/2022	07:05	-131.714	49.050	0	191.10	0	6.0170	0	33.7600	0	26.573	0	189.391	0	147.0	4	48.5	4	-1E+10	1	-1E+10	1	-1E+10	1	-1E+10	1	-1E+10	1	-1E+10	1
4902551	67	C	06/19/2022	07:05	-131.714	49.050	0	191.90	0	6.0060	0	33.7540	0	26.570	0	190.183	0	146.1	4	48.2	4	-1E+10	1	-1E+10	1	-1E+10	1	-1E+10	1	-1E+10	1	-1E+10	1
4902551	67	C	06/19/2022	07:05	-131.714	49.050	0	192.80	0	5.9750	0	33.7700	0	26.586	0	191.075	0	145.2	4	47.9	4	-1E+10	1	-1E+10	1	-1E+10	1	-1E+10	1	-1E+10	1	-1E+10	1
4902551	67	C	06/19/2022	07:05	-131.714	49.050	0	193.70	0	5.9380	0	33.7600	0	26.583	0	191.966	0	144.5	4	47.6	4	-1E+10	1	-1E+10	1	-1E+10	1	-1E+10	1	-1E+10	1	-1E+10	1
4902551	67	C	06/19/2022	07:05	-131.714	49.050	0	194.60	0	5.8920	0	33.7730	0	26.599	0	192.858	0	143.7	4	47.3	4	-1E+10	1	-1E+10	1	-1E+10	1	-1E+10	1	-1E+10	1	-1E+10	1
4902551	67	C	06/19/2022	07:05	-131.714	49.050	0	195.90	0	5.8650	0	33.7610	0	26.593	0	194.145	0	143.0	4	47.0	4	-1E+10	1	-1E+10	1	-1E+10	1	-1E+10	1	-1E+10	1	-1E+10	1
4902551	67	C	06/19/2022	07:05	-131.714	49.050	0	197.40	0	5.8500	0	33.7590	0	26.593	0	195.631	0	142.1	4	46.7	4	-1E+10	1	-1E+10	1	-1E+10	1	-1E+10	1	-1E+10	1	-1E+10	1
4902551	67	C	06/19/2022	07:05	-131.714	49.050	0	198.30	0	5.8270	0	33.7700	0	26.604	0	196.523	0	141.6	4	46.6	4	-1E+10	1	-1E+10	1	-1E+10	1	-1E+10	1	-1E+10	1	-1E+10	1
4902551	67	C	06/19/2022	07:05	-131.714	49.050	0	199.20	0	5.8150	0	33.7630	0	26.600	0	197.414	0	141.1	4	46.4	4	-1E+10	1	-1E+10	1	-1E+10	1	-1E+10	1	-1E+10	1	-1E+10	1
4902551	67	C	06/19/2022	07:05	-131.714	49.050	0	200.10	0	5.7980	0	33.7580	0	26.598	0	198.306	0	140.6	4	46.2	4	-1E+10	1	-1E+10	1	-1E+10	1	-1E+10	1	-1E+10	1	-1E+10	1
4902551	67	C	06/19/2022	07:05	-131.714	49.050	0	201.10	0	5.7810	0	33.7560	0	26.599	0	199.296	0	140.2	4	46.0	4	-1E+10	1	-1E+10	1	-1E+10	1	-1E+10	1	-1E+10	1	-1E+10	1
4902551	67	C	06/19/2022	07:05	-131.714	49.050	0	202.00	0	5.7690	0	33.7590	0	26.603	0	200.188	0	139.7	4	45.9	4	-1E+10	1	-1E+10	1	-1E+10	1	-1E+10	1	-1E+10	1	-1E+10	1
4902551	67	C	06/19/2022	07:05	-131.714	49.050	0	202.90	0	5.7650	0	33.7580	0	26.603	0	201.079	0	139.2	4	45.7	4	-1E+10	1	-1E+10	1	-1E+10	1	-1E+10	1	-1E+10	1	-1E+10	1
4902551	67	C	06/19/2022	07:05	-131.714	49.050	0	203.80	0	5.7560	0	33.7600	0	26.605	0	201.971	0	138.8	4	45.5	4	-1E+10	1	-1E+10	1	-1E+10	1	-1E+10	1	-1E+10	1	-1E+10	1
4902551	67	C	06/19/2022	07:05	-131.714	49.050	0	204.80	0	5.7470	0	33.7590	0	26.606	0	202.961	0	138.3	4	45.4	4	-1E+10	1	-1E+10	1	-1E+10	1	-1E+10	1	-1E+10	1	-1E+10	1
4902551	67	C	06/19/2022	07:05	-131.714	49.050	0	205.70	0	5.7450	0	33.7590	0	26.606	0	203.853	0	137.7	4	45.2	4	-1E+10	1	-1E+10	1	-1E+10	1	-1E+10	1	-1E+10	1	-1E+10	1
4902551	67	C	06/19/2022	07:05	-131.714	49.050	0	206.60	0	5.7420	0	33.7590	0	26.606	0	204.744	0	137.1	4	45.0	4	-1E+10	1	-1E+10	1	-1E+10	1	-1E+10	1	-1E+10	1	-1E+10	1
4902551	67	C	06/19/2022	07:05	-131.714	49.050	0	207.60	0	5.7380	0	33.7620	0	26.609	0	205.735	0	136.4	4	44.8	4	-1E+10	1	-1E+10	1	-1E+10	1	-1E+10	1	-1E+10	1	-1E+10	1
4902551	67	C	06/19/2022	07:05	-131.714	49.050	0	208.50	0	5.7330	0	33.7610	0	26.609	0	206.626	0	135.8	4	44.5	4	-1E+10	1	-1E+10	1	-1E+10	1	-1E+10	1	-1E+10	1	-1E+10	1
4902551	67	C	06/19/2022	07:05	-131.714	49.050	0	209.90	0	5.7320	0	33.7620	0	26.610	0	208.013	0	134.7	4	44.2	4	-1E+10	1	-1E+10	1	-1E+10	1	-1E+10	1	-1E+10	1	-1E+10	1
4902551	67	C	06/19/2022	07:05	-131.714	49.050	0	211.40	0	5.7330	0	33.7700	0	26.616	0	209.499	0	133.5	4	43.8	4	-1E+10	1	-1E+10	1	-1E+10	1	-1E+10	1	-1E+10	1	-1E+10	1
4902551	67	C	06/19/2022	07:05	-131.714	49.050	0	212.30	0	5.7250	0	33.7730	0	26.619	0	210.390	0	132.8	4	43.5	4	-1E+10	1	-1E+10	1	-1E+10	1	-1E+10	1	-1E+10	1	-1E+10	1
4902551	67	C	06/19/2022	07:05	-131.714	49.050	0	213.20	0	5.7080	0	33.7830	0	26.629	0	211.282	0	131.9	4	43.2	4	-1E+10	1	-1E+10	1	-1E+10	1	-1E+10	1	-1E+10	1	-1E+10	1
4902551	67	C	06/19/2022	07:05	-131.714	49.050	0	214.20	0	5.6880	0	33.7830	0	26.632	0	212.272	0	131.3	4	43.0	4	-1E+10	1	-1E+10	1	-1E+10	1	-1E+10	1	-1E+10	1	-1E+10	1
4902551	67	C	06/19/2022	07:05	-131.714	49.050	0	215.20	0	5.6660	0	33.7830	0	26.634	0	213.262	0	130.7	4	42.8	4	-1E+10	1	-1E+10	1	-1E+10	1	-1E+10	1	-1E+10	1	-1E+10	1
4902551	67	C	06/19/2022	07:05	-131.714	49.050	0	216.10	0	5.6550	0	33.7800	0	26.633	0	214.154	0	130.2	4	42.6	4	-1E+10	1	-1E+10	1	-1E+10	1	-1E+10	1	-1E+10	1	-1E+10	1
4902551	67	C	06/19/2022	07:05	-131.714	49.050	0	217.10	0	5.6510	0	33.7790	0	26.633	0	215.144	0	129.6	4	42.4	4	-1E+10	1	-1E+10	1	-1E+10	1	-1E+10	1	-1E+10	1	-1E+10	1
4902551	67	C	06/19/2022	07:05	-131.714	49.050	0	218.10	0	5.6470	0	33.7800	0	26.634	0	216.135	0	128.9	4	42.2	4	-1E+10	1	-1E+10	1	-1E+10	1	-1E+10	1	-1E+10	1	-1E+10	1
4902551	67	C	06/19/2022	07:05	-131.714	49.050	0	219.10	0	5.6420	0	33.7790	0	26.634	0	217.125	0	128.0	4	41.9	4	-1E+10	1	-1E+10	1	-1E+10	1	-1E+10	1	-1E+10	1	-1E+10	1
4902551	67	C	06/19/2022	07:05	-131.714	49.050	0	220.00	0	5.6280	0	33.7880	0	26.643	0	218.017	0	127.1	4	41.6	4	-1E+10	1	-1E+10	1	-1E+10	1	-1E+10	1	-1E+10	1	-1E+10	1
4902551	67	C	06/19/2022	07:05	-131.714	49.050	0	221.00	0	5.6000	0	33.7920	0	26.650	0	219.007	0	126.3	4	41.3	4	-1E+10	1	-1E+10	1	-1E+10	1	-1E+10	1	-1E+10	1	-1E+10	1
4902551	67	C	06/19/2022	07:05	-131.714	49.050	0	222.00	0	5.5660	0	33.7880	0	26.651	0	219.998	0	125.8	4	41.1	4	-1E+10	1	-1E+10	1	-1E+10	1	-1E+10	1	-1E+10	1	-1E+10	1
4902551	67	C	06/19/2022	07:05	-131.714	49.050	0	223.00	0	5.5580	0	33.7860	0	26.650	0	220.988	0	125.4	4	41.0	4	-1E+10	1	-1E+10	1	-1E+10	1	-1E+10	1	-1E+10	1	-1E+10	1
4902551	67	C	06/19/2022	07:05	-131.714	49.050	0	224.00	0	5.5530	0	33.7890	0	26.653	0	221.979	0	124.8	4	40.8	4	-1E+10	1	-1E+10	1	-1E+10	1	-1E+10	1	-1E+10	1	-1E+10	1
4902551	67	C	06/19/2022	07:05	-131.714	49.050	0	224.90	0	5.5510	0	33.7870	0	26.652	0	222.870	0	124.3	4	40.6	4	-1E+10	1	-1E+10	1	-1E+10	1	-1E+10	1	-1E+10	1	-1E+10	1
4902551	67	C	06/19/2022	07:05	-131.714	49.050	0	225.90	0	5.5500	0	33.7880	0	26.652	0	223.860	0	123.6	4	40.4	4	-1E+10	1	-1E+10	1	-1E+10	1	-1E+10	1	-1E+10	1	-1E+10	1
4902551	67	C	06/19/2022	07:05	-131.714	49.050	0	226.90	0	5.5480	0	33.7890	0	26.654	0	224.851	0	123.0	4	40.2	4	-1E+10	1	-1E+10	1	-1E+10	1	-1E+10	1	-1E+10	1	-1E+10	1
4902551	67	C	06/19/2022	07:05	-131.714	49.050	0	227.90	0	5.5440	0	33.7900	0	26.655	0	225.841	0	122.3	4	40.0	4	-1E+10	1	-1E+10	1	-1E+10	1	-1E+10	1	-1E+10	1	-1E+10	1
4902551	67	C	06/19/2022	07:05	-131.714	49.050	0	228.90	0	5.5410	0	33.7930	0	26.658	0	226.832	0	121.6	4	39.7	4	-1E+10	1	-1E+10	1	-1E+10	1	-1E+10	1	-1E+10	1	-1E+10	1
4902551	67	C	06/19/2022	07:05	-131.714	49.050	0	229.90	0	5.5350	0	33.7920	0	26.657	0	227.822	0	120.9	4	39.5	4	-1E+10	1	-1E+10	1	-1E+10	1	-1E+10	1	-1E+10	1	-1E+10	1
4902551	67	C	06/19/2022	07:05	-131.714	49.050	0	230.80	0	5.5340	0	33.7940	0	26.659	0	228.713	0	120.2	4	39.2	4	-1E+10	1	-1E+10	1	-1E+10	1	-1E+10	1	-1E+10	1	-1E+10	1
4902551	67	C	06/19/2022	07:05	-131.714	49.050	0	231.80	0	5.5330	0	33.7950	0	26.660	0	229.704	0	119.4	4	39.0	4	-1E+10	1	-1E+10	1	-1E+10	1	-1E+10	1	-1E+10	1	-1E+10	1
4902551	67	C	06/19/2022	07:05	-131.714	49.050	0	232.80	0	5.5330	0	33.7950	0	26.660	0	230.694	0	118.6	4	38.7	4	-1E+10	1	-1E+10	1	-1E+10	1	-1E+10	1	-1E+10	1	-1E+10	1
4902551	67	C	06/19/2022	07:05	-131.714	49.050	0	233.90	0	5.5360	0	33.7970	0	26.661	0	231.784	0	117.8	4	38.5	4	-1E+10	1	-1E+10	1	-1E+10	1	-1E+10	1	-1E+10	1	-1E+10	1
4902551	67	C	06/19/2022	07:05	-131.714	49.050	0	234.90	0	5.5430	0	33.7950	0	26.659	0	232.774	0	117.0	4	38.2	4	-1E+10	1	-1E+10	1	-1E+10	1	-1E+10	1	-1E+10	1	-1E+10	1
4902551	67	C	06/19/2022	07:05	-131.714	49.050	0	235.90	0	5.5460	0	33.8030	0	26.665	0	233.764	0	116.2	4	38.0	4	-1E+10	1	-1E+10	1	-1E+10	1	-1E+10	1	-1E+10	1	-1E+10	1
4902551	67	C	06/19/2022	07:05	-131.714	49.050	0	236.90	0	5.5460	0	33.8060	0	26.667	0	234.755	0	115.6	4	37.8	4	-1E+10	1	-1E+10	1	-1E+10	1	-1E+10	1	-1E+10	1	-1E+10	1
4902551	67	C	06/19/2022	07:05	-131.714	49.050	0	237.90	0	5.5440	0	33.8080	0	26.669	0	235.745	0	115.0	4	37.6	4	-1E+10	1	-1E+10	1	-1E+10	1	-1E+10	1	-1E+10	1	-1E+10	1
4902551	67	C	06/19/2022	07:05	-131.714	49.050	0	239.00	0	5.5400	0	33.8080	0	26.670	0	236.835	0	114.2	4	37.3	4	-1E+10	1	-1E+10	1	-1E+10	1	-1E+10	1	-1E+10	1	-1E+10	1
4902551	67	C	06/19/2022	07:05	-131.714	49.050	0	240.00	0	5.5420	0	33.8090	0	26.670	0	237.825	0	113.5	4	37.1	4	-1E+10	1	-1E+10	1	-1E+10	1	-1E+10	1	-1E+10	1	-1E+10	1
4902551	67	C	06/19/2022	07:05	-131.714	49.050	0	241.00	0	5.5970	0	33.7980	0	26.655	0	238.815	0	112.9	4	36.9	4	-1E+10	1	-1E+10	1	-1E+10	1	-1E+10	1	-1E+10	1	-1E+10	1
4902551	67	C	06/19/2022	07:05	-131.714	49.050	0	242.00	0	5.5990	0	33.8240	0	26.675	0	239.806	0	112.5	4	36.8	4	-1E+10	1	-1E+10	1	-1E+10	1	-1E+10	1	-1E+10	1	-1E+10	1
4902551	67	C	06/19/2022	07:05	-131.714	49.050	0	243.00	0	5.5890	0	33.8300	0	26.681	0	240.796	0	112.2	4	36.7	4	-1E+10	1	-1E+10	1	-1E+10	1	-1E+10	1	-1E+10	1	-1E+10	1
4902551	67	C	06/19/2022	07:05	-131.714	49.050	0	244.10	0	5.5860	0	33.8200	0	26.674	0	241.885	0	111.7	4	36.5	4	-1E+10	1	-1E+10	1	-1E+10	1	-1E+10	1	-1E+10	1	-1E+10	1
4902551	67	C	06/19/2022	07:05	-131.714	49.050	0	245.00	0	5.5760	0	33.8210	0	26.676	0	242.777	0	111.2	4	36.3	4	-1E+10	1	-1E+10	1	-1E+10	1	-1E+10	1	-1E+10	1	-1E+10	1
4902551	67	C	06/19/2022	07:05	-131.714	49.050	0	246.00	0	5.6020	0	33.7960	0	26.653	0	243.767	0	110.7	4	36.2	4	-1E+10	1	-1E+10	1	-1E+10	1	-1E+10	1	-1E+10	1	-1E+10	1
4902551	67	C	06/19/2022	07:05	-131.714	49.050	0	247.00	0	5.5960	0	33.8260	0	26.677	0	244.757	0	110.5	4	36.1	4	-1E+10	1	-1E+10	1	-1E+10	1	-1E+10	1	-1E+10	1	-1E+10	1
4902551	67	C	06/19/2022	07:05	-131.714	49.050	0	248.00	0	5.6160	0	33.8160	0	26.667	0	245.748	0	110.5	4	36.2	4	-1E+10	1	-1E+10	1	-1E+10	1	-1E+10	1	-1E+10	1	-1E+10	1
4902551	67	C	06/19/2022	07:05	-131.714	49.050	0	249.00	0	5.5980	0	33.8440	0	26.691	0	246.738	0	110.7	4	36.2	4	-1E+10	1	-1E+10	1	-1E+10	1	-1E+10	1	-1E+10	1	-1E+10	1
4902551	67	C	06/19/2022	07:05	-131.714	49.050	0	250.10	0	5.5390	0	33.8410	0	26.696	0	247.827	0	110.8	4	36.2	4	-1E+10	1	-1E+10	1	-1E+10	1	-1E+10	1	-1E+10	1	-1E+10	1
4902551	67	C	06/19/2022	07:05	-131.714	49.050	0	251.10	0	5.4470	0	33.8580	0	26.720	0	248.818	0	110.6	4	36.1	4	-1E+10	1	-1E+10	1	-1E+10	1	-1E+10	1	-1E+10	1	-1E+10	1
4902551	67	C	06/19/2022	07:05	-131.714	49.050	0	252.10	0	5.3720	0	33.8180	0	26.698	0	249.808	0	110.1	4	35.8	4	-1E+10	1	-1E+10	1	-1E+10	1	-1E+10	1	-1E+10	1	-1E+10	1
4902551	67	C	06/19/2022	07:05	-131.714	49.050	0	253.10	0	5.3560	0	33.8100	0	26.693	0	250.798	0	109.2	4	35.5	4	-1E+10	1	-1E+10	1	-1E+10	1	-1E+10	1	-1E+10	1	-1E+10	1
4902551	67	C	06/19/2022	07:05	-131.714	49.050	0	254.20	0	5.3540	0	33.8090	0	26.693	0	251.888	0	108.3	4	35.2	4	-1E+10	1	-1E+10	1	-1E+10	1	-1E+10	1	-1E+10	1	-1E+10	1
4902551	67	C	06/19/2022	07:05	-131.714	49.050	0	255.20	0	5.3510	0	33.8110	0	26.695	0	252.878	0	107.3	4	34.9	4	-1E+10	1	-1E+10	1	-1E+10	1	-1E+10	1	-1E+10	1	-1E+10	1
4902551	67	C	06/19/2022	07:05	-131.714	49.050	0	256.20	0	5.3350	0	33.8150	0	26.700	0	253.868	0	106.2	4	34.5	4	-1E+10	1	-1E+10	1	-1E+10	1	-1E+10	1	-1E+10	1	-1E+10	1
4902551	67	C	06/19/2022	07:05	-131.714	49.050	0	257.30	0	5.3090	0	33.8140	0	26.702	0	254.957	0	104.8	4	34.0	4	-1E+10	1	-1E+10	1	-1E+10	1	-1E+10	1	-1E+10	1	-1E+10	1
4902551	67	C	06/19/2022	07:05	-131.714	49.050	0	258.30	0	5.3020	0	33.8120	0	26.701	0	255.948	0	103.4	4	33.6	4	-1E+10	1	-1E+10	1	-1E+10	1	-1E+10	1	-1E+10	1	-1E+10	1
4902551	67	C	06/19/2022	07:05	-131.714	49.050	0	259.40	0	5.2910	0	33.8200	0	26.709	0	257.037	0	102.0	4	33.1	4	-1E+10	1	-1E+10	1	-1E+10	1	-1E+10	1	-1E+10	1	-1E+10	1
4902551	67	C	06/19/2022	07:05	-131.714	49.050	0	260.40	0	5.2840	0	33.8190	0	26.709	0	258.027	0	100.4	4	32.6	4	-1E+10	1	-1E+10	1	-1E+10	1	-1E+10	1	-1E+10	1	-1E+10	1
4902551	67	C	06/19/2022	07:05	-131.714	49.050	0	261.40	0	5.2980	0	33.8120	0	26.702	0	259.018	0	98.8	4	32.1	4	-1E+10	1	-1E+10	1	-1E+10	1	-1E+10	1	-1E+10	1	-1E+10	1
4902551	67	C	06/19/2022	07:05	-131.714	49.050	0	262.40	0	5.3650	0	33.8270	0	26.706	0	260.008	0	97.4	4	31.7	4	-1E+10	1	-1E+10	1	-1E+10	1	-1E+10	1	-1E+10	1	-1E+10	1
4902551	67	C	06/19/2022	07:05	-131.714	49.050	0	263.40	0	5.4310	0	33.8130	0	26.687	0	260.998	0	96.4	4	31.4	4	-1E+10	1	-1E+10	1	-1E+10	1	-1E+10	1	-1E+10	1	-1E+10	1
4902551	67	C	06/19/2022	07:05	-131.714	49.050	0	264.50	0	5.4710	0	33.8560	0	26.716	0	262.087	0	95.8	4	31.2	4	-1E+10	1	-1E+10	1	-1E+10	1	-1E+10	1	-1E+10	1	-1E+10	1
4902551	67	C	06/19/2022	07:05	-131.714	49.050	0	265.50	0	5.4800	0	33.8550	0	26.714	0	263.078	0	95.4	4	31.1	4	-1E+10	1	-1E+10	1	-1E+10	1	-1E+10	1	-1E+10	1	-1E+10	1
4902551	67	C	06/19/2022	07:05	-131.714	49.050	0	266.50	0	5.4940	0	33.8610	0	26.717	0	264.068	0	95.0	4	31.0	4	-1E+10	1	-1E+10	1	-1E+10	1	-1E+10	1	-1E+10	1	-1E+10	1
4902551	67	C	06/19/2022	07:05	-131.714	49.050	0	267.50	0	5.4990	0	33.8670	0	26.721	0	265.058	0	94.8	4	30.9	4	-1E+10	1	-1E+10	1	-1E+10	1	-1E+10	1	-1E+10	1	-1E+10	1
4902551	67	C	06/19/2022	07:05	-131.714	49.050	0	268.90	0	5.4960	0	33.8700	0	26.724	0	266.444	0	94.7	4	30.9	4	-1E+10	1	-1E+10	1	-1E+10	1	-1E+10	1	-1E+10	1	-1E+10	1
4902551	67	C	06/19/2022	07:05	-131.714	49.050	0	270.50	0	5.4880	0	33.8730	0	26.728	0	268.029	0	94.8	4	30.9	4	-1E+10	1	-1E+10	1	-1E+10	1	-1E+10	1	-1E+10	1	-1E+10	1
4902551	67	C	06/19/2022	07:05	-131.714	49.050	0	271.90	0	5.4540	0	33.8710	0	26.730	0	269.415	0	94.9	4	30.9	4	-1E+10	1	-1E+10	1	-1E+10	1	-1E+10	1	-1E+10	1	-1E+10	1
4902551	67	C	06/19/2022	07:05	-131.714	49.050	0	273.40	0	5.4040	0	33.8820	0	26.745	0	270.900	0	94.8	4	30.9	4	-1E+10	1	-1E+10	1	-1E+10	1	-1E+10	1	-1E+10	1	-1E+10	1
4902551	67	C	06/19/2022	07:05	-131.714	49.050	0	274.40	0	5.2970	0	33.8690	0	26.747	0	271.891	0	94.6	4	30.7	4	-1E+10	1	-1E+10	1	-1E+10	1	-1E+10	1	-1E+10	1	-1E+10	1
4902551	67	C	06/19/2022	07:05	-131.714	49.050	0	275.40	0	5.2820	0	33.8530	0	26.736	0	272.881	0	94.0	4	30.5	4	-1E+10	1	-1E+10	1	-1E+10	1	-1E+10	1	-1E+10	1	-1E+10	1
4902551	67	C	06/19/2022	07:05	-131.714	49.050	0	276.40	0	5.2840	0	33.8480	0	26.732	0	273.871	0	93.3	4	30.3	4	-1E+10	1	-1E+10	1	-1E+10	1	-1E+10	1	-1E+10	1	-1E+10	1
4902551	67	C	06/19/2022	07:05	-131.714	49.050	0	277.40	0	5.2770	0	33.8540	0	26.737	0	274.861	0	92.6	4	30.1	4	-1E+10	1	-1E+10	1	-1E+10	1	-1E+10	1	-1E+10	1	-1E+10	1
4902551	67	C	06/19/2022	07:05	-131.714	49.050	0	278.40	0	5.2680	0	33.8620	0	26.745	0	275.851	0	91.8	4	29.8	4	-1E+10	1	-1E+10	1	-1E+10	1	-1E+10	1	-1E+10	1	-1E+10	1
4902551	67	C	06/19/2022	07:05	-131.714	49.050	0	279.30	0	5.2700	0	33.8460	0	26.732	0	276.743	0	90.9	4	29.5	4	-1E+10	1	-1E+10	1	-1E+10	1	-1E+10	1	-1E+10	1	-1E+10	1
4902551	67	C	06/19/2022	07:05	-131.714	49.050	0	280.30	0	5.2790	0	33.8550	0	26.738	0	277.733	0	90.0	4	29.2	4	-1E+10	1	-1E+10	1	-1E+10	1	-1E+10	1	-1E+10	1	-1E+10	1
4902551	67	C	06/19/2022	07:05	-131.714	49.050	0	281.30	0	5.2800	0	33.8560	0	26.739	0	278.723	0	89.1	4	28.9	4	-1E+10	1	-1E+10	1	-1E+10	1	-1E+10	1	-1E+10	1	-1E+10	1
4902551	67	C	06/19/2022	07:05	-131.714	49.050	0	282.30	0	5.2990	0	33.8630	0	26.742	0	279.713	0	87.9	4	28.6	4	-1E+10	1	-1E+10	1	-1E+10	1	-1E+10	1	-1E+10	1	-1E+10	1
4902551	67	C	06/19/2022	07:05	-131.714	49.050	0	283.30	0	5.3490	0	33.8530	0	26.728	0	280.703	0	86.9	4	28.3	4	-1E+10	1	-1E+10	1	-1E+10	1	-1E+10	1	-1E+10	1	-1E+10	1
4902551	67	C	06/19/2022	07:05	-131.714	49.050	0	284.30	0	5.3680	0	33.8740	0	26.743	0	281.693	0	86.0	4	28.0	4	-1E+10	1	-1E+10	1	-1E+10	1	-1E+10	1	-1E+10	1	-1E+10	1
4902551	67	C	06/19/2022	07:05	-131.714	49.050	0	285.30	0	5.3430	0	33.8720	0	26.744	0	282.683	0	85.0	4	27.7	4	-1E+10	1	-1E+10	1	-1E+10	1	-1E+10	1	-1E+10	1	-1E+10	1
4902551	67	C	06/19/2022	07:05	-131.714	49.050	0	286.30	0	5.3870	0	33.8720	0	26.739	0	283.674	0	84.1	4	27.4	4	-1E+10	1	-1E+10	1	-1E+10	1	-1E+10	1	-1E+10	1	-1E+10	1
4902551	67	C	06/19/2022	07:05	-131.714	49.050	0	287.30	0	5.4370	0	33.8860	0	26.744	0	284.664	0	83.4	4	27.2	4	-1E+10	1	-1E+10	1	-1E+10	1	-1E+10	1	-1E+10	1	-1E+10	1
4902551	67	C	06/19/2022	07:05	-131.714	49.050	0	288.30	0	5.4210	0	33.9190	0	26.772	0	285.654	0	83.0	4	27.1	4	-1E+10	1	-1E+10	1	-1E+10	1	-1E+10	1	-1E+10	1	-1E+10	1
4902551	67	C	06/19/2022	07:05	-131.714	49.050	0	289.20	0	5.3650	0	33.9010	0	26.764	0	286.545	0	82.5	4	26.9	4	-1E+10	1	-1E+10	1	-1E+10	1	-1E+10	1	-1E+10	1	-1E+10	1
4902551	67	C	06/19/2022	07:05	-131.714	49.050	0	290.20	0	5.2690	8	33.9150	8	26.787	0	287.535	0	81.7	4	26.5	4	-1E+10	1	-1E+10	1	-1E+10	1	-1E+10	1	-1E+10	1	-1E+10	1
4902551	67	C	06/19/2022	07:05	-131.714	49.050	0	291.30	0	5.2210	8	33.8470	8	26.739	0	288.624	0	80.7	4	26.2	4	-1E+10	1	-1E+10	1	-1E+10	1	-1E+10	1	-1E+10	1	-1E+10	1
4902551	67	C	06/19/2022	07:05	-131.714	49.050	0	292.30	0	5.3580	0	33.8910	0	26.757	0	289.614	0	80.0	4	26.0	4	-1E+10	1	-1E+10	1	-1E+10	1	-1E+10	1	-1E+10	1	-1E+10	1
4902551	67	C	06/19/2022	07:05	-131.714	49.050	0	293.20	0	5.3610	0	33.9050	0	26.768	0	290.505	0	79.7	4	25.9	4	-1E+10	1	-1E+10	1	-1E+10	1	-1E+10	1	-1E+10	1	-1E+10	1
4902551	67	C	06/19/2022	07:05	-131.714	49.050	0	294.20	0	5.3630	0	33.9040	0	26.767	0	291.496	0	79.5	4	25.9	4	-1E+10	1	-1E+10	1	-1E+10	1	-1E+10	1	-1E+10	1	-1E+10	1
4902551	67	C	06/19/2022	07:05	-131.714	49.050	0	295.20	0	5.3640	0	33.9040	0	26.767	0	292.486	0	79.2	4	25.8	4	-1E+10	1	-1E+10	1	-1E+10	1	-1E+10	1	-1E+10	1	-1E+10	1
4902551	67	C	06/19/2022	07:05	-131.714	49.050	0	296.20	0	5.3620	0	33.9040	0	26.767	0	293.476	0	78.9	4	25.7	4	-1E+10	1	-1E+10	1	-1E+10	1	-1E+10	1	-1E+10	1	-1E+10	1
4902551	67	C	06/19/2022	07:05	-131.714	49.050	0	297.20	0	5.3600	0	33.9050	0	26.768	0	294.466	0	78.6	4	25.6	4	-1E+10	1	-1E+10	1	-1E+10	1	-1E+10	1	-1E+10	1	-1E+10	1
4902551	67	C	06/19/2022	07:05	-131.714	49.050	0	298.30	0	5.3520	0	33.9090	0	26.772	0	295.555	0	78.4	4	25.5	4	-1E+10	1	-1E+10	1	-1E+10	1	-1E+10	1	-1E+10	1	-1E+10	1
4902551	67	C	06/19/2022	07:05	-131.714	49.050	0	299.30	0	5.3490	0	33.9040	0	26.769	0	296.545	0	77.9	4	25.3	4	-1E+10	1	-1E+10	1	-1E+10	1	-1E+10	1	-1E+10	1	-1E+10	1
4902551	67	C	06/19/2022	07:05	-131.714	49.050	0	300.30	0	5.3410	0	33.9090	0	26.774	0	297.535	0	77.4	4	25.2	4	-1E+10	1	-1E+10	1	-1E+10	1	-1E+10	1	-1E+10	1	-1E+10	1
4902551	67	C	06/19/2022	07:05	-131.714	49.050	0	301.40	0	5.3270	0	33.9110	0	26.777	0	298.624	0	77.0	4	25.0	4	-1E+10	1	-1E+10	1	-1E+10	1	-1E+10	1	-1E+10	1	-1E+10	1
4902551	67	C	06/19/2022	07:05	-131.714	49.050	0	302.40	0	5.3090	0	33.9100	0	26.778	0	299.614	0	76.6	4	24.9	4	-1E+10	1	-1E+10	1	-1E+10	1	-1E+10	1	-1E+10	1	-1E+10	1
4902551	67	C	06/19/2022	07:05	-131.714	49.050	0	303.40	0	5.3000	0	33.9100	0	26.779	0	300.604	0	76.1	4	24.7	4	-1E+10	1	-1E+10	1	-1E+10	1	-1E+10	1	-1E+10	1	-1E+10	1
4902551	67	C	06/19/2022	07:05	-131.714	49.050	0	304.50	0	5.2960	0	33.9100	0	26.780	0	301.693	0	75.6	4	24.6	4	-1E+10	1	-1E+10	1	-1E+10	1	-1E+10	1	-1E+10	1	-1E+10	1
4902551	67	C	06/19/2022	07:05	-131.714	49.050	0	305.50	0	5.2870	0	33.9100	0	26.781	0	302.683	0	75.1	4	24.4	4	-1E+10	1	-1E+10	1	-1E+10	1	-1E+10	1	-1E+10	1	-1E+10	1
4902551	67	C	06/19/2022	07:05	-131.714	49.050	0	306.60	0	5.2880	0	33.9120	0	26.782	0	303.773	0	74.7	4	24.3	4	-1E+10	1	-1E+10	1	-1E+10	1	-1E+10	1	-1E+10	1	-1E+10	1
4902551	67	C	06/19/2022	07:05	-131.714	49.050	0	307.60	0	5.2880	0	33.9190	0	26.788	0	304.763	0	74.4	4	24.2	4	-1E+10	1	-1E+10	1	-1E+10	1	-1E+10	1	-1E+10	1	-1E+10	1
4902551	67	C	06/19/2022	07:05	-131.714	49.050	0	308.60	0	5.2820	0	33.9160	0	26.786	0	305.753	0	74.1	4	24.1	4	-1E+10	1	-1E+10	1	-1E+10	1	-1E+10	1	-1E+10	1	-1E+10	1
4902551	67	C	06/19/2022	07:05	-131.714	49.050	0	309.70	0	5.2820	0	33.9160	0	26.786	0	306.842	0	73.7	4	24.0	4	-1E+10	1	-1E+10	1	-1E+10	1	-1E+10	1	-1E+10	1	-1E+10	1
4902551	67	C	06/19/2022	07:05	-131.714	49.050	0	310.70	0	5.2820	0	33.9180	0	26.788	0	307.832	0	73.3	4	23.8	4	-1E+10	1	-1E+10	1	-1E+10	1	-1E+10	1	-1E+10	1	-1E+10	1
4902551	67	C	06/19/2022	07:05	-131.714	49.050	0	311.70	0	5.2780	0	33.9160	0	26.787	0	308.822	0	72.9	4	23.7	4	-1E+10	1	-1E+10	1	-1E+10	1	-1E+10	1	-1E+10	1	-1E+10	1
4902551	67	C	06/19/2022	07:05	-131.714	49.050	0	312.70	0	5.2780	0	33.9200	0	26.790	0	309.812	0	72.4	4	23.5	4	-1E+10	1	-1E+10	1	-1E+10	1	-1E+10	1	-1E+10	1	-1E+10	1
4902551	67	C	06/19/2022	07:05	-131.714	49.050	0	313.80	0	5.2700	0	33.9180	0	26.789	0	310.901	0	71.9	4	23.3	4	-1E+10	1	-1E+10	1	-1E+10	1	-1E+10	1	-1E+10	1	-1E+10	1
4902551	67	C	06/19/2022	07:05	-131.714	49.050	0	314.80	0	5.2620	0	33.9300	0	26.800	0	311.891	0	71.6	4	23.2	4	-1E+10	1	-1E+10	1	-1E+10	1	-1E+10	1	-1E+10	1	-1E+10	1
4902551	67	C	06/19/2022	07:05	-131.714	49.050	0	315.70	0	5.2610	0	33.9260	0	26.797	0	312.782	0	71.2	4	23.1	4	-1E+10	1	-1E+10	1	-1E+10	1	-1E+10	1	-1E+10	1	-1E+10	1
4902551	67	C	06/19/2022	07:05	-131.714	49.050	0	316.90	0	5.2490	0	33.9260	0	26.798	0	313.970	0	70.8	4	23.0	4	-1E+10	1	-1E+10	1	-1E+10	1	-1E+10	1	-1E+10	1	-1E+10	1
4902551	67	C	06/19/2022	07:05	-131.714	49.050	0	317.60	0	5.2390	0	33.9270	0	26.800	0	314.663	0	70.4	4	22.9	4	-1E+10	1	-1E+10	1	-1E+10	1	-1E+10	1	-1E+10	1	-1E+10	1
4902551	67	C	06/19/2022	07:05	-131.714	49.050	0	318.90	0	5.2330	0	33.9260	0	26.800	0	315.950	0	70.0	4	22.7	4	-1E+10	1	-1E+10	1	-1E+10	1	-1E+10	1	-1E+10	1	-1E+10	1
4902551	67	C	06/19/2022	07:05	-131.714	49.050	0	320.10	0	5.2340	0	33.9290	0	26.802	0	317.138	0	69.6	4	22.6	4	-1E+10	1	-1E+10	1	-1E+10	1	-1E+10	1	-1E+10	1	-1E+10	1
4902551	67	C	06/19/2022	07:05	-131.714	49.050	0	320.90	0	5.2350	0	33.9300	0	26.803	0	317.930	0	69.3	4	22.5	4	-1E+10	1	-1E+10	1	-1E+10	1	-1E+10	1	-1E+10	1	-1E+10	1
4902551	67	C	06/19/2022	07:05	-131.714	49.050	0	321.70	0	5.2360	0	33.9310	0	26.804	0	318.722	0	69.0	4	22.4	4	-1E+10	1	-1E+10	1	-1E+10	1	-1E+10	1	-1E+10	1	-1E+10	1
4902551	67	C	06/19/2022	07:05	-131.714	49.050	0	322.90	0	5.2350	0	33.9310	0	26.804	0	319.910	0	68.6	4	22.3	4	-1E+10	1	-1E+10	1	-1E+10	1	-1E+10	1	-1E+10	1	-1E+10	1
4902551	67	C	06/19/2022	07:05	-131.714	49.050	0	324.10	0	5.2350	0	33.9320	0	26.805	0	321.098	0	68.2	4	22.1	4	-1E+10	1	-1E+10	1	-1E+10	1	-1E+10	1	-1E+10	1	-1E+10	1
4902551	67	C	06/19/2022	07:05	-131.714	49.050	0	324.90	0	5.2290	0	33.9350	0	26.808	0	321.890	0	67.9	4	22.0	4	-1E+10	1	-1E+10	1	-1E+10	1	-1E+10	1	-1E+10	1	-1E+10	1
4902551	67	C	06/19/2022	07:05	-131.714	49.050	0	326.00	0	5.2270	0	33.9360	0	26.809	0	322.978	0	67.5	4	21.9	4	-1E+10	1	-1E+10	1	-1E+10	1	-1E+10	1	-1E+10	1	-1E+10	1
4902551	67	C	06/19/2022	07:05	-131.714	49.050	0	327.30	0	5.2210	0	33.9390	0	26.812	0	324.265	0	67.2	4	21.8	4	-1E+10	1	-1E+10	1	-1E+10	1	-1E+10	1	-1E+10	1	-1E+10	1
4902551	67	C	06/19/2022	07:05	-131.714	49.050	0	328.10	0	5.2190	0	33.9400	0	26.813	0	325.057	0	67.2	4	21.8	4	-1E+10	1	-1E+10	1	-1E+10	1	-1E+10	1	-1E+10	1	-1E+10	1
4902551	67	C	06/19/2022	07:05	-131.714	49.050	0	328.90	0	5.2110	0	33.9440	0	26.817	0	325.849	0	67.0	4	21.7	4	-1E+10	1	-1E+10	1	-1E+10	1	-1E+10	1	-1E+10	1	-1E+10	1
4902551	67	C	06/19/2022	07:05	-131.714	49.050	0	329.70	0	5.1850	0	33.9460	0	26.821	0	326.641	0	67.0	4	21.7	4	-1E+10	1	-1E+10	1	-1E+10	1	-1E+10	1	-1E+10	1	-1E+10	1
4902551	67	C	06/19/2022	07:05	-131.714	49.050	0	330.90	0	5.1560	0	33.9420	0	26.822	0	327.829	0	66.8	4	21.6	4	-1E+10	1	-1E+10	1	-1E+10	1	-1E+10	1	-1E+10	1	-1E+10	1
4902551	67	C	06/19/2022	07:05	-131.714	49.050	0	332.10	0	5.1410	0	33.9420	0	26.823	0	329.017	0	66.6	4	21.6	4	-1E+10	1	-1E+10	1	-1E+10	1	-1E+10	1	-1E+10	1	-1E+10	1
4902551	67	C	06/19/2022	07:05	-131.714	49.050	0	333.00	0	5.1370	0	33.9390	0	26.822	0	329.908	0	66.5	4	21.5	4	-1E+10	1	-1E+10	1	-1E+10	1	-1E+10	1	-1E+10	1	-1E+10	1
4902551	67	C	06/19/2022	07:05	-131.714	49.050	0	333.80	0	5.1350	0	33.9400	0	26.823	0	330.700	0	66.4	4	21.5	4	-1E+10	1	-1E+10	1	-1E+10	1	-1E+10	1	-1E+10	1	-1E+10	1
4902551	67	C	06/19/2022	07:05	-131.714	49.050	0	335.00	0	5.1250	0	33.9400	0	26.824	0	331.888	0	66.1	4	21.4	4	-1E+10	1	-1E+10	1	-1E+10	1	-1E+10	1	-1E+10	1	-1E+10	1
4902551	67	C	06/19/2022	07:05	-131.714	49.050	0	336.30	0	5.1070	0	33.9380	0	26.824	0	333.175	0	65.7	4	21.3	4	-1E+10	1	-1E+10	1	-1E+10	1	-1E+10	1	-1E+10	1	-1E+10	1
4902551	67	C	06/19/2022	07:05	-131.714	49.050	0	337.10	0	5.0990	0	33.9440	0	26.830	0	333.967	0	65.4	4	21.2	4	-1E+10	1	-1E+10	1	-1E+10	1	-1E+10	1	-1E+10	1	-1E+10	1
4902551	67	C	06/19/2022	07:05	-131.714	49.050	0	338.00	0	5.0970	0	33.9350	0	26.823	0	334.858	0	65.1	4	21.1	4	-1E+10	1	-1E+10	1	-1E+10	1	-1E+10	1	-1E+10	1	-1E+10	1
4902551	67	C	06/19/2022	07:05	-131.714	49.050	0	338.80	0	5.1010	0	33.9370	0	26.824	0	335.649	0	64.7	4	20.9	4	-1E+10	1	-1E+10	1	-1E+10	1	-1E+10	1	-1E+10	1	-1E+10	1
4902551	67	C	06/19/2022	07:05	-131.714	49.050	0	340.00	0	5.0930	0	33.9440	0	26.831	0	336.837	0	64.2	4	20.8	4	-1E+10	1	-1E+10	1	-1E+10	1	-1E+10	1	-1E+10	1	-1E+10	1
4902551	67	C	06/19/2022	07:05	-131.714	49.050	0	341.30	0	5.0930	0	33.9390	0	26.827	0	338.124	0	63.8	4	20.6	4	-1E+10	1	-1E+10	1	-1E+10	1	-1E+10	1	-1E+10	1	-1E+10	1
4902551	67	C	06/19/2022	07:05	-131.714	49.050	0	342.20	0	5.0840	0	33.9500	0	26.836	0	339.015	0	63.5	4	20.5	4	-1E+10	1	-1E+10	1	-1E+10	1	-1E+10	1	-1E+10	1	-1E+10	1
4902551	67	C	06/19/2022	07:05	-131.714	49.050	0	343.00	0	5.0610	0	33.9460	0	26.836	0	339.807	0	63.2	4	20.4	4	-1E+10	1	-1E+10	1	-1E+10	1	-1E+10	1	-1E+10	1	-1E+10	1
4902551	67	C	06/19/2022	07:05	-131.714	49.050	0	343.90	0	5.0490	0	33.9470	0	26.838	0	340.698	0	62.9	4	20.3	4	-1E+10	1	-1E+10	1	-1E+10	1	-1E+10	1	-1E+10	1	-1E+10	1
4902551	67	C	06/19/2022	07:05	-131.714	49.050	0	344.70	0	5.0440	0	33.9420	0	26.835	0	341.490	0	62.5	4	20.2	4	-1E+10	1	-1E+10	1	-1E+10	1	-1E+10	1	-1E+10	1	-1E+10	1
4902551	67	C	06/19/2022	07:05	-131.714	49.050	0	345.60	0	5.0490	0	33.9430	0	26.835	0	342.381	0	62.2	4	20.1	4	-1E+10	1	-1E+10	1	-1E+10	1	-1E+10	1	-1E+10	1	-1E+10	1
4902551	67	C	06/19/2022	07:05	-131.714	49.050	0	346.90	0	5.0540	0	33.9470	0	26.837	0	343.667	0	61.7	4	20.0	4	-1E+10	1	-1E+10	1	-1E+10	1	-1E+10	1	-1E+10	1	-1E+10	1
4902551	67	C	06/19/2022	07:05	-131.714	49.050	0	348.20	0	5.0550	0	33.9490	0	26.839	0	344.954	0	61.3	4	19.8	4	-1E+10	1	-1E+10	1	-1E+10	1	-1E+10	1	-1E+10	1	-1E+10	1
4902551	67	C	06/19/2022	07:05	-131.714	49.050	0	349.00	0	5.0520	0	33.9500	0	26.840	0	345.746	0	60.9	4	19.7	4	-1E+10	1	-1E+10	1	-1E+10	1	-1E+10	1	-1E+10	1	-1E+10	1
4902551	67	C	06/19/2022	07:05	-131.714	49.050	0	349.90	0	5.0500	0	33.9470	0	26.838	0	346.637	0	60.5	4	19.5	4	-1E+10	1	-1E+10	1	-1E+10	1	-1E+10	1	-1E+10	1	-1E+10	1
4902551	67	C	06/19/2022	07:05	-131.714	49.050	0	352.80	0	5.0700	0	33.9550	0	26.842	0	349.507	0	59.4	4	19.2	4	-1E+10	1	-1E+10	1	-1E+10	1	-1E+10	1	-1E+10	1	-1E+10	1
4902551	67	C	06/19/2022	07:05	-131.714	49.050	0	358.10	0	5.0400	0	33.9620	0	26.851	0	354.754	0	57.5	4	18.6	4	-1E+10	1	-1E+10	1	-1E+10	1	-1E+10	1	-1E+10	1	-1E+10	1
4902551	67	C	06/19/2022	07:05	-131.714	49.050	0	363.10	0	5.0310	0	33.9700	0	26.858	0	359.702	0	55.6	4	18.0	4	-1E+10	1	-1E+10	1	-1E+10	1	-1E+10	1	-1E+10	1	-1E+10	1
4902551	67	C	06/19/2022	07:05	-131.714	49.050	0	367.70	0	5.0260	0	33.9740	0	26.862	0	364.255	0	54.1	4	17.5	4	-1E+10	1	-1E+10	1	-1E+10	1	-1E+10	1	-1E+10	1	-1E+10	1
4902551	67	C	06/19/2022	07:05	-131.714	49.050	0	372.90	0	4.9990	0	33.9820	0	26.872	0	369.402	0	52.9	4	17.1	4	-1E+10	1	-1E+10	1	-1E+10	1	-1E+10	1	-1E+10	1	-1E+10	1
4902551	67	C	06/19/2022	07:05	-131.714	49.050	0	378.00	0	4.9750	0	33.9830	0	26.875	0	374.450	0	51.4	4	16.6	4	-1E+10	1	-1E+10	1	-1E+10	1	-1E+10	1	-1E+10	1	-1E+10	1
4902551	67	C	06/19/2022	07:05	-131.714	49.050	0	382.70	0	4.9740	0	33.9920	0	26.883	0	379.101	0	50.1	4	16.2	4	-1E+10	1	-1E+10	1	-1E+10	1	-1E+10	1	-1E+10	1	-1E+10	1
4902551	67	C	06/19/2022	07:05	-131.714	49.050	0	388.00	0	4.9430	0	33.9940	0	26.888	0	384.346	0	48.6	4	15.7	4	-1E+10	1	-1E+10	1	-1E+10	1	-1E+10	1	-1E+10	1	-1E+10	1
4902551	67	C	06/19/2022	07:05	-131.714	49.050	0	393.20	0	4.9420	0	33.9980	0	26.891	0	389.493	0	46.5	4	15.0	4	-1E+10	1	-1E+10	1	-1E+10	1	-1E+10	1	-1E+10	1	-1E+10	1
4902551	67	C	06/19/2022	07:05	-131.714	49.050	0	398.00	0	4.9520	0	34.0120	0	26.901	0	394.243	0	44.9	4	14.5	4	-1E+10	1	-1E+10	1	-1E+10	1	-1E+10	1	-1E+10	1	-1E+10	1
4902551	67	C	06/19/2022	07:05	-131.714	49.050	0	402.90	0	4.9470	0	34.0160	0	26.905	0	399.092	0	43.7	4	14.1	4	-1E+10	1	-1E+10	1	-1E+10	1	-1E+10	1	-1E+10	1	-1E+10	1
4902551	67	C	06/19/2022	07:05	-131.714	49.050	0	407.80	0	4.9110	0	34.0240	0	26.915	0	403.941	0	42.3	4	13.6	4	-1E+10	1	-1E+10	1	-1E+10	1	-1E+10	1	-1E+10	1	-1E+10	1
4902551	67	C	06/19/2022	07:05	-131.714	49.050	0	412.80	0	4.8730	0	34.0280	0	26.923	0	408.888	0	41.3	4	13.3	4	-1E+10	1	-1E+10	1	-1E+10	1	-1E+10	1	-1E+10	1	-1E+10	1
4902551	67	C	06/19/2022	07:05	-131.714	49.050	0	417.80	0	4.8400	0	34.0330	0	26.930	0	413.836	0	40.3	4	13.0	4	-1E+10	1	-1E+10	1	-1E+10	1	-1E+10	1	-1E+10	1	-1E+10	1
4902551	67	C	06/19/2022	07:05	-131.714	49.050	0	422.90	0	4.8080	0	34.0350	0	26.936	0	418.883	0	39.4	4	12.7	4	-1E+10	1	-1E+10	1	-1E+10	1	-1E+10	1	-1E+10	1	-1E+10	1
4902551	67	C	06/19/2022	07:05	-131.714	49.050	0	428.10	0	4.7980	0	34.0390	0	26.940	0	424.028	0	38.5	4	12.4	4	-1E+10	1	-1E+10	1	-1E+10	1	-1E+10	1	-1E+10	1	-1E+10	1
4902551	67	C	06/19/2022	07:05	-131.714	49.050	0	432.90	0	4.7940	0	34.0420	0	26.943	0	428.777	0	38.0	4	12.2	4	-1E+10	1	-1E+10	1	-1E+10	1	-1E+10	1	-1E+10	1	-1E+10	1
4902551	67	C	06/19/2022	07:05	-131.714	49.050	0	437.90	0	4.7450	0	34.0480	0	26.953	0	433.724	0	37.4	4	12.0	4	-1E+10	1	-1E+10	1	-1E+10	1	-1E+10	1	-1E+10	1	-1E+10	1
4902551	67	C	06/19/2022	07:05	-131.714	49.050	0	442.90	0	4.6480	0	34.0440	0	26.961	0	438.671	0	35.8	4	11.5	4	-1E+10	1	-1E+10	1	-1E+10	1	-1E+10	1	-1E+10	1	-1E+10	1
4902551	67	C	06/19/2022	07:05	-131.714	49.050	0	447.70	0	4.6730	0	34.0570	0	26.968	0	443.420	0	34.0	4	10.9	4	-1E+10	1	-1E+10	1	-1E+10	1	-1E+10	1	-1E+10	1	-1E+10	1
4902551	67	C	06/19/2022	07:05	-131.714	49.050	0	452.60	0	4.6750	0	34.0660	0	26.975	0	448.268	0	33.5	4	10.7	4	-1E+10	1	-1E+10	1	-1E+10	1	-1E+10	1	-1E+10	1	-1E+10	1
4902551	67	C	06/19/2022	07:05	-131.714	49.050	0	457.90	0	4.6440	0	34.0710	0	26.983	0	453.512	0	33.1	4	10.6	4	-1E+10	1	-1E+10	1	-1E+10	1	-1E+10	1	-1E+10	1	-1E+10	1
4902551	67	C	06/19/2022	07:05	-131.714	49.050	0	463.20	0	4.6090	0	34.0740	0	26.989	0	458.755	0	33.2	4	10.6	4	-1E+10	1	-1E+10	1	-1E+10	1	-1E+10	1	-1E+10	1	-1E+10	1
4902551	67	C	06/19/2022	07:05	-131.714	49.050	0	468.20	0	4.5410	0	34.0690	0	26.992	0	463.702	0	32.8	4	10.5	4	-1E+10	1	-1E+10	1	-1E+10	1	-1E+10	1	-1E+10	1	-1E+10	1
4902551	67	C	06/19/2022	07:05	-131.714	49.050	0	473.20	0	4.4980	0	34.0730	0	27.000	0	468.648	0	32.1	4	10.2	4	-1E+10	1	-1E+10	1	-1E+10	1	-1E+10	1	-1E+10	1	-1E+10	1
4902551	67	C	06/19/2022	07:05	-131.714	49.050	0	478.20	0	4.4780	0	34.0740	0	27.003	0	473.594	0	31.2	4	10.0	4	-1E+10	1	-1E+10	1	-1E+10	1	-1E+10	1	-1E+10	1	-1E+10	1
4902551	67	C	06/19/2022	07:05	-131.714	49.050	0	483.20	0	4.4740	0	34.0820	0	27.010	0	478.540	0	30.1	4	9.6	4	-1E+10	1	-1E+10	1	-1E+10	1	-1E+10	1	-1E+10	1	-1E+10	1
4902551	67	C	06/19/2022	07:05	-131.714	49.050	0	488.30	0	4.4650	0	34.0880	0	27.016	0	483.585	0	29.1	4	9.3	4	-1E+10	1	-1E+10	1	-1E+10	1	-1E+10	1	-1E+10	1	-1E+10	1
4902551	67	C	06/19/2022	07:05	-131.714	49.050	0	493.00	0	4.4680	0	34.0930	0	27.019	0	488.234	0	28.7	4	9.2	4	-1E+10	1	-1E+10	1	-1E+10	1	-1E+10	1	-1E+10	1	-1E+10	1
4902551	67	C	06/19/2022	07:05	-131.714	49.050	0	497.80	0	4.4640	0	34.0970	0	27.023	0	492.982	0	28.8	4	9.2	4	-1E+10	1	-1E+10	1	-1E+10	1	-1E+10	1	-1E+10	1	-1E+10	1
4902551	67	C	06/19/2022	07:05	-131.714	49.050	0	503.10	0	4.4130	0	34.0980	0	27.029	0	498.224	0	29.1	4	9.3	4	-1E+10	1	-1E+10	1	-1E+10	1	-1E+10	1	-1E+10	1	-1E+10	1
4902551	67	C	06/19/2022	07:05	-131.714	49.050	0	508.10	0	4.3580	0	34.0880	0	27.027	0	503.170	0	28.9	4	9.2	4	-1E+10	1	-1E+10	1	-1E+10	1	-1E+10	1	-1E+10	1	-1E+10	1
4902551	67	C	06/19/2022	07:05	-131.714	49.050	0	512.90	0	4.3540	0	34.0990	0	27.037	0	507.918	0	28.5	4	9.1	4	-1E+10	1	-1E+10	1	-1E+10	1	-1E+10	1	-1E+10	1	-1E+10	1
4902551	67	C	06/19/2022	07:05	-131.714	49.050	0	517.90	0	4.3150	0	34.0960	0	27.038	0	512.863	0	28.0	4	8.9	4	-1E+10	1	-1E+10	1	-1E+10	1	-1E+10	1	-1E+10	1	-1E+10	1
4902551	67	C	06/19/2022	07:05	-131.714	49.050	0	522.80	0	4.3160	0	34.0970	0	27.039	0	517.709	0	27.0	4	8.6	4	-1E+10	1	-1E+10	1	-1E+10	1	-1E+10	1	-1E+10	1	-1E+10	1
4902551	67	C	06/19/2022	07:05	-131.714	49.050	0	527.90	0	4.3290	0	34.0990	0	27.039	0	522.753	0	25.2	4	8.0	4	-1E+10	1	-1E+10	1	-1E+10	1	-1E+10	1	-1E+10	1	-1E+10	1
4902551	67	C	06/19/2022	07:05	-131.714	49.050	0	532.60	0	4.3660	0	34.1150	0	27.048	0	527.401	0	24.0	4	7.7	4	-1E+10	1	-1E+10	1	-1E+10	1	-1E+10	1	-1E+10	1	-1E+10	1
4902551	67	C	06/19/2022	07:05	-131.714	49.050	0	537.90	0	4.3790	0	34.1250	0	27.055	0	532.643	0	24.0	4	7.6	4	-1E+10	1	-1E+10	1	-1E+10	1	-1E+10	1	-1E+10	1	-1E+10	1
4902551	67	C	06/19/2022	07:05	-131.714	49.050	0	543.20	0	4.3220	0	34.1260	0	27.062	0	537.884	0	24.2	4	7.7	4	-1E+10	1	-1E+10	1	-1E+10	1	-1E+10	1	-1E+10	1	-1E+10	1
4902551	67	C	06/19/2022	07:05	-131.714	49.050	0	548.10	0	4.2690	0	34.1180	0	27.061	0	542.730	0	23.5	4	7.5	4	-1E+10	1	-1E+10	1	-1E+10	1	-1E+10	1	-1E+10	1	-1E+10	1
4902551	67	C	06/19/2022	07:05	-131.714	49.050	0	553.00	0	4.2840	0	34.1250	0	27.065	0	547.575	0	22.7	4	7.2	4	-1E+10	1	-1E+10	1	-1E+10	1	-1E+10	1	-1E+10	1	-1E+10	1
4902551	67	C	06/19/2022	07:05	-131.714	49.050	0	557.90	0	4.2600	0	34.1350	0	27.075	0	552.421	0	22.1	4	7.0	4	-1E+10	1	-1E+10	1	-1E+10	1	-1E+10	1	-1E+10	1	-1E+10	1
4902551	67	C	06/19/2022	07:05	-131.714	49.050	0	562.80	0	4.2480	0	34.1350	0	27.077	0	557.266	0	21.5	4	6.8	4	-1E+10	1	-1E+10	1	-1E+10	1	-1E+10	1	-1E+10	1	-1E+10	1
4902551	67	C	06/19/2022	07:05	-131.714	49.050	0	567.80	0	4.2390	0	34.1420	0	27.083	0	562.210	0	21.1	4	6.7	4	-1E+10	1	-1E+10	1	-1E+10	1	-1E+10	1	-1E+10	1	-1E+10	1
4902551	67	C	06/19/2022	07:05	-131.714	49.050	0	572.90	0	4.2400	0	34.1430	0	27.084	0	567.253	0	20.5	4	6.5	4	-1E+10	1	-1E+10	1	-1E+10	1	-1E+10	1	-1E+10	1	-1E+10	1
4902551	67	C	06/19/2022	07:05	-131.714	49.050	0	578.10	0	4.2350	0	34.1510	0	27.091	0	572.394	0	20.1	4	6.4	4	-1E+10	1	-1E+10	1	-1E+10	1	-1E+10	1	-1E+10	1	-1E+10	1
4902551	67	C	06/19/2022	07:05	-131.714	49.050	0	582.80	0	4.1940	0	34.1490	0	27.094	0	577.042	0	19.5	4	6.2	4	-1E+10	1	-1E+10	1	-1E+10	1	-1E+10	1	-1E+10	1	-1E+10	1
4902551	67	C	06/19/2022	07:05	-131.714	49.050	0	587.50	0	4.2290	0	34.1530	0	27.093	0	581.689	0	18.9	4	6.0	4	-1E+10	1	-1E+10	1	-1E+10	1	-1E+10	1	-1E+10	1	-1E+10	1
4902551	67	C	06/19/2022	07:05	-131.714	49.050	0	593.00	0	4.2080	0	34.1660	0	27.106	0	587.126	0	19.0	4	6.0	4	-1E+10	1	-1E+10	1	-1E+10	1	-1E+10	1	-1E+10	1	-1E+10	1
4902551	67	C	06/19/2022	07:05	-131.714	49.050	0	598.10	0	4.1660	0	34.1660	0	27.110	0	592.169	0	18.9	4	6.0	4	-1E+10	1	-1E+10	1	-1E+10	1	-1E+10	1	-1E+10	1	-1E+10	1
4902551	67	C	06/19/2022	07:05	-131.714	49.050	0	602.90	0	4.1330	0	34.1670	0	27.114	0	596.914	0	18.7	4	5.9	4	-1E+10	1	-1E+10	1	-1E+10	1	-1E+10	1	-1E+10	1	-1E+10	1
4902551	67	C	06/19/2022	07:05	-131.714	49.050	0	607.80	0	4.1040	0	34.1660	0	27.117	0	601.758	0	18.1	4	5.7	4	-1E+10	1	-1E+10	1	-1E+10	1	-1E+10	1	-1E+10	1	-1E+10	1
4902551	67	C	06/19/2022	07:05	-131.714	49.050	0	612.80	0	4.1090	0	34.1730	0	27.122	0	606.701	0	17.4	4	5.5	4	-1E+10	1	-1E+10	1	-1E+10	1	-1E+10	1	-1E+10	1	-1E+10	1
4902551	67	C	06/19/2022	07:05	-131.714	49.050	0	617.70	0	4.1120	0	34.1790	0	27.126	0	611.545	0	16.9	4	5.4	4	-1E+10	1	-1E+10	1	-1E+10	1	-1E+10	1	-1E+10	1	-1E+10	1
4902551	67	C	06/19/2022	07:05	-131.714	49.050	0	622.70	0	4.1140	0	34.1850	0	27.131	0	616.488	0	16.5	4	5.2	4	-1E+10	1	-1E+10	1	-1E+10	1	-1E+10	1	-1E+10	1	-1E+10	1
4902551	67	C	06/19/2022	07:05	-131.714	49.050	0	627.70	0	4.0960	0	34.1890	0	27.136	0	621.431	0	16.3	4	5.2	4	-1E+10	1	-1E+10	1	-1E+10	1	-1E+10	1	-1E+10	1	-1E+10	1
4902551	67	C	06/19/2022	07:05	-131.714	49.050	0	632.90	0	4.0880	0	34.1920	0	27.139	0	626.571	0	16.1	4	5.1	4	-1E+10	1	-1E+10	1	-1E+10	1	-1E+10	1	-1E+10	1	-1E+10	1
4902551	67	C	06/19/2022	07:05	-131.714	49.050	0	638.10	0	4.0760	0	34.1950	0	27.143	0	631.711	0	15.9	4	5.0	4	-1E+10	1	-1E+10	1	-1E+10	1	-1E+10	1	-1E+10	1	-1E+10	1
4902551	67	C	06/19/2022	07:05	-131.714	49.050	0	642.80	0	4.0620	0	34.1950	0	27.144	0	636.357	0	15.7	4	5.0	4	-1E+10	1	-1E+10	1	-1E+10	1	-1E+10	1	-1E+10	1	-1E+10	1
4902551	67	C	06/19/2022	07:05	-131.714	49.050	0	647.60	0	4.0520	0	34.1980	0	27.148	0	641.102	0	15.4	4	4.9	4	-1E+10	1	-1E+10	1	-1E+10	1	-1E+10	1	-1E+10	1	-1E+10	1
4902551	67	C	06/19/2022	07:05	-131.714	49.050	0	652.80	0	4.0530	0	34.2010	0	27.150	0	646.241	0	15.0	4	4.8	4	-1E+10	1	-1E+10	1	-1E+10	1	-1E+10	1	-1E+10	1	-1E+10	1
4902551	67	C	06/19/2022	07:05	-131.714	49.050	0	658.10	0	4.0520	0	34.2050	0	27.153	0	651.480	0	14.7	4	4.7	4	-1E+10	1	-1E+10	1	-1E+10	1	-1E+10	1	-1E+10	1	-1E+10	1
4902551	67	C	06/19/2022	07:05	-131.714	49.050	0	663.20	0	4.0410	0	34.2100	0	27.159	0	656.520	0	14.5	4	4.6	4	-1E+10	1	-1E+10	1	-1E+10	1	-1E+10	1	-1E+10	1	-1E+10	1
4902551	67	C	06/19/2022	07:05	-131.714	49.050	0	667.90	0	4.0350	0	34.2150	0	27.163	0	661.166	0	14.3	4	4.5	4	-1E+10	1	-1E+10	1	-1E+10	1	-1E+10	1	-1E+10	1	-1E+10	1
4902551	67	C	06/19/2022	07:05	-131.714	49.050	0	672.70	0	4.0280	0	34.2170	0	27.166	0	665.910	0	14.2	4	4.5	4	-1E+10	1	-1E+10	1	-1E+10	1	-1E+10	1	-1E+10	1	-1E+10	1
4902551	67	C	06/19/2022	07:05	-131.714	49.050	0	677.80	0	4.0110	0	34.2210	0	27.170	0	670.950	0	14.1	4	4.5	4	-1E+10	1	-1E+10	1	-1E+10	1	-1E+10	1	-1E+10	1	-1E+10	1
4902551	67	C	06/19/2022	07:05	-131.714	49.050	0	683.10	0	3.9830	0	34.2240	0	27.176	0	676.188	0	14.2	4	4.5	4	-1E+10	1	-1E+10	1	-1E+10	1	-1E+10	1	-1E+10	1	-1E+10	1
4902551	67	C	06/19/2022	07:05	-131.714	49.050	0	688.10	0	3.9450	0	34.2230	0	27.179	0	681.129	0	14.3	4	4.5	4	-1E+10	1	-1E+10	1	-1E+10	1	-1E+10	1	-1E+10	1	-1E+10	1
4902551	67	C	06/19/2022	07:05	-131.714	49.050	0	693.10	0	3.9200	0	34.2220	0	27.181	0	686.070	0	14.0	4	4.4	4	-1E+10	1	-1E+10	1	-1E+10	1	-1E+10	1	-1E+10	1	-1E+10	1
4902551	67	C	06/19/2022	07:05	-131.714	49.050	0	698.10	0	3.9250	0	34.2250	0	27.183	0	691.011	0	13.5	4	4.3	4	-1E+10	1	-1E+10	1	-1E+10	1	-1E+10	1	-1E+10	1	-1E+10	1
4902551	67	C	06/19/2022	07:05	-131.714	49.050	0	702.80	0	3.9300	0	34.2310	0	27.187	0	695.656	0	13.1	4	4.1	4	-1E+10	1	-1E+10	1	-1E+10	1	-1E+10	1	-1E+10	1	-1E+10	1
4902551	67	C	06/19/2022	07:05	-131.714	49.050	0	708.00	0	3.9420	0	34.2360	0	27.190	0	700.794	0	12.7	4	4.0	4	-1E+10	1	-1E+10	1	-1E+10	1	-1E+10	1	-1E+10	1	-1E+10	1
4902551	67	C	06/19/2022	07:05	-131.714	49.050	0	713.20	0	3.9400	0	34.2430	0	27.195	0	705.932	0	12.5	4	3.9	4	-1E+10	1	-1E+10	1	-1E+10	1	-1E+10	1	-1E+10	1	-1E+10	1
4902551	67	C	06/19/2022	07:05	-131.714	49.050	0	718.00	0	3.9390	0	34.2480	0	27.200	0	710.675	0	12.4	4	3.9	4	-1E+10	1	-1E+10	1	-1E+10	1	-1E+10	1	-1E+10	1	-1E+10	1
4902551	67	C	06/19/2022	07:05	-131.714	49.050	0	723.00	0	3.9300	0	34.2520	0	27.204	0	715.616	0	12.5	4	3.9	4	-1E+10	1	-1E+10	1	-1E+10	1	-1E+10	1	-1E+10	1	-1E+10	1
4902551	67	C	06/19/2022	07:05	-131.714	49.050	0	727.90	0	3.8730	0	34.2550	0	27.212	0	720.457	0	12.7	4	4.0	4	-1E+10	1	-1E+10	1	-1E+10	1	-1E+10	1	-1E+10	1	-1E+10	1
4902551	67	C	06/19/2022	07:05	-131.714	49.050	0	732.80	0	3.8500	0	34.2510	0	27.211	0	725.298	0	12.7	4	4.0	4	-1E+10	1	-1E+10	1	-1E+10	1	-1E+10	1	-1E+10	1	-1E+10	1
4902551	67	C	06/19/2022	07:05	-131.714	49.050	0	737.70	0	3.8400	0	34.2530	0	27.214	0	730.140	0	12.7	4	4.0	4	-1E+10	1	-1E+10	1	-1E+10	1	-1E+10	1	-1E+10	1	-1E+10	1
4902551	67	C	06/19/2022	07:05	-131.714	49.050	0	742.60	0	3.8200	0	34.2520	0	27.215	0	734.981	0	12.7	4	4.0	4	-1E+10	1	-1E+10	1	-1E+10	1	-1E+10	1	-1E+10	1	-1E+10	1
4902551	67	C	06/19/2022	07:05	-131.714	49.050	0	747.90	0	3.7690	0	34.2600	0	27.226	0	740.217	0	12.7	4	4.0	4	-1E+10	1	-1E+10	1	-1E+10	1	-1E+10	1	-1E+10	1	-1E+10	1
4902551	67	C	06/19/2022	07:05	-131.714	49.050	0	753.20	0	3.7310	0	34.2610	0	27.231	0	745.453	0	12.7	4	4.0	4	-1E+10	1	-1E+10	1	-1E+10	1	-1E+10	1	-1E+10	1	-1E+10	1
4902551	67	C	06/19/2022	07:05	-131.714	49.050	0	758.00	0	3.7260	0	34.2600	0	27.231	0	750.195	0	12.6	4	4.0	4	-1E+10	1	-1E+10	1	-1E+10	1	-1E+10	1	-1E+10	1	-1E+10	1
4902551	67	C	06/19/2022	07:05	-131.714	49.050	0	762.90	0	3.7090	0	34.2630	0	27.235	0	755.036	0	12.5	4	3.9	4	-1E+10	1	-1E+10	1	-1E+10	1	-1E+10	1	-1E+10	1	-1E+10	1
4902551	67	C	06/19/2022	07:05	-131.714	49.050	0	767.60	0	3.6850	0	34.2670	0	27.240	0	759.679	0	12.3	4	3.9	4	-1E+10	1	-1E+10	1	-1E+10	1	-1E+10	1	-1E+10	1	-1E+10	1
4902551	67	C	06/19/2022	07:05	-131.714	49.050	0	773.00	0	3.6600	0	34.2750	0	27.249	0	765.013	0	12.2	4	3.8	4	-1E+10	1	-1E+10	1	-1E+10	1	-1E+10	1	-1E+10	1	-1E+10	1
4902551	67	C	06/19/2022	07:05	-131.714	49.050	0	778.30	0	3.6350	0	34.2770	0	27.253	0	770.249	0	12.2	4	3.8	4	-1E+10	1	-1E+10	1	-1E+10	1	-1E+10	1	-1E+10	1	-1E+10	1
4902551	67	C	06/19/2022	07:05	-131.714	49.050	0	783.20	0	3.6320	0	34.2770	0	27.254	0	775.089	0	12.1	4	3.8	4	-1E+10	1	-1E+10	1	-1E+10	1	-1E+10	1	-1E+10	1	-1E+10	1
4902551	67	C	06/19/2022	07:05	-131.714	49.050	0	788.00	0	3.6260	0	34.2800	0	27.257	0	779.830	0	12.0	4	3.8	4	-1E+10	1	-1E+10	1	-1E+10	1	-1E+10	1	-1E+10	1	-1E+10	1
4902551	67	C	06/19/2022	07:05	-131.714	49.050	0	792.80	0	3.6200	0	34.2840	0	27.260	0	784.572	0	11.9	4	3.7	4	-1E+10	1	-1E+10	1	-1E+10	1	-1E+10	1	-1E+10	1	-1E+10	1
4902551	67	C	06/19/2022	07:05	-131.714	49.050	0	797.70	0	3.6170	0	34.2850	0	27.262	0	789.411	0	11.8	4	3.7	4	-1E+10	1	-1E+10	1	-1E+10	1	-1E+10	1	-1E+10	1	-1E+10	1
4902551	67	C	06/19/2022	07:05	-131.714	49.050	0	802.70	0	3.6140	0	34.2890	0	27.265	0	794.350	0	11.7	4	3.7	4	-1E+10	1	-1E+10	1	-1E+10	1	-1E+10	1	-1E+10	1	-1E+10	1
4902551	67	C	06/19/2022	07:05	-131.714	49.050	0	807.50	0	3.6020	0	34.2940	0	27.270	0	799.091	0	11.7	4	3.7	4	-1E+10	1	-1E+10	1	-1E+10	1	-1E+10	1	-1E+10	1	-1E+10	1
4902551	67	C	06/19/2022	07:05	-131.714	49.050	0	812.90	0	3.5830	0	34.2930	0	27.271	0	804.424	0	11.7	4	3.7	4	-1E+10	1	-1E+10	1	-1E+10	1	-1E+10	1	-1E+10	1	-1E+10	1
4902551	67	C	06/19/2022	07:05	-131.714	49.050	0	818.20	0	3.5760	0	34.2950	0	27.274	0	809.659	0	11.6	4	3.6	4	-1E+10	1	-1E+10	1	-1E+10	1	-1E+10	1	-1E+10	1	-1E+10	1
4902551	67	C	06/19/2022	07:05	-131.714	49.050	0	823.10	0	3.5710	0	34.2980	0	27.277	0	814.498	0	11.5	4	3.6	4	-1E+10	1	-1E+10	1	-1E+10	1	-1E+10	1	-1E+10	1	-1E+10	1
4902551	67	C	06/19/2022	07:05	-131.714	49.050	0	828.10	0	3.5710	0	34.2990	0	27.277	0	819.436	0	11.5	4	3.6	4	-1E+10	1	-1E+10	1	-1E+10	1	-1E+10	1	-1E+10	1	-1E+10	1
4902551	67	C	06/19/2022	07:05	-131.714	49.050	0	833.20	0	3.5750	0	34.3010	0	27.279	0	824.473	0	11.4	4	3.6	4	-1E+10	1	-1E+10	1	-1E+10	1	-1E+10	1	-1E+10	1	-1E+10	1
4902551	67	C	06/19/2022	07:05	-131.714	49.050	0	838.20	0	3.5670	0	34.3060	0	27.283	0	829.410	0	11.4	4	3.6	4	-1E+10	1	-1E+10	1	-1E+10	1	-1E+10	1	-1E+10	1	-1E+10	1
4902551	67	C	06/19/2022	07:05	-131.714	49.050	0	843.20	0	3.5550	0	34.3070	0	27.285	0	834.348	0	11.4	4	3.6	4	-1E+10	1	-1E+10	1	-1E+10	1	-1E+10	1	-1E+10	1	-1E+10	1
4902551	67	C	06/19/2022	07:05	-131.714	49.050	0	847.90	0	3.5550	0	34.3080	0	27.286	0	838.989	0	11.4	4	3.6	4	-1E+10	1	-1E+10	1	-1E+10	1	-1E+10	1	-1E+10	1	-1E+10	1
4902551	67	C	06/19/2022	07:05	-131.714	49.050	0	852.50	0	3.5380	0	34.3100	0	27.290	0	843.531	0	11.3	4	3.5	4	-1E+10	1	-1E+10	1	-1E+10	1	-1E+10	1	-1E+10	1	-1E+10	1
4902551	67	C	06/19/2022	07:05	-131.714	49.050	0	857.90	0	3.5430	0	34.3170	0	27.295	0	848.864	0	11.4	4	3.6	4	-1E+10	1	-1E+10	1	-1E+10	1	-1E+10	1	-1E+10	1	-1E+10	1
4902551	67	C	06/19/2022	07:05	-131.714	49.050	0	862.80	0	3.5100	0	34.3130	0	27.295	0	853.702	0	11.5	4	3.6	4	-1E+10	1	-1E+10	1	-1E+10	1	-1E+10	1	-1E+10	1	-1E+10	1
4902551	67	C	06/19/2022	07:05	-131.714	49.050	0	867.60	0	3.4830	0	34.3130	0	27.297	0	858.442	0	11.5	4	3.6	4	-1E+10	1	-1E+10	1	-1E+10	1	-1E+10	1	-1E+10	1	-1E+10	1
4902551	67	C	06/19/2022	07:05	-131.714	49.050	0	872.60	0	3.4730	0	34.3140	0	27.299	0	863.378	0	11.5	4	3.6	4	-1E+10	1	-1E+10	1	-1E+10	1	-1E+10	1	-1E+10	1	-1E+10	1
4902551	67	C	06/19/2022	07:05	-131.714	49.050	0	877.70	0	3.4740	0	34.3150	0	27.300	0	868.414	0	11.4	4	3.5	4	-1E+10	1	-1E+10	1	-1E+10	1	-1E+10	1	-1E+10	1	-1E+10	1
4902551	67	C	06/19/2022	07:05	-131.714	49.050	0	882.80	0	3.4810	0	34.3200	0	27.303	0	873.449	0	11.3	4	3.5	4	-1E+10	1	-1E+10	1	-1E+10	1	-1E+10	1	-1E+10	1	-1E+10	1
4902551	67	C	06/19/2022	07:05	-131.714	49.050	0	888.00	0	3.4840	0	34.3210	0	27.304	0	878.583	0	11.3	4	3.5	4	-1E+10	1	-1E+10	1	-1E+10	1	-1E+10	1	-1E+10	1	-1E+10	1
4902551	67	C	06/19/2022	07:05	-131.714	49.050	0	893.00	0	3.4890	0	34.3230	0	27.305	0	883.520	0	11.2	4	3.5	4	-1E+10	1	-1E+10	1	-1E+10	1	-1E+10	1	-1E+10	1	-1E+10	1
4902551	67	C	06/19/2022	07:05	-131.714	49.050	0	898.00	0	3.4730	0	34.3280	0	27.310	0	888.456	0	11.2	4	3.5	4	-1E+10	1	-1E+10	1	-1E+10	1	-1E+10	1	-1E+10	1	-1E+10	1
4902551	67	C	06/19/2022	07:05	-131.714	49.050	0	903.20	0	3.4680	0	34.3320	0	27.314	0	893.590	0	11.2	4	3.5	4	-1E+10	1	-1E+10	1	-1E+10	1	-1E+10	1	-1E+10	1	-1E+10	1
4902551	67	C	06/19/2022	07:05	-131.714	49.050	0	908.10	0	3.4550	0	34.3390	0	27.321	0	898.427	0	11.3	4	3.5	4	-1E+10	1	-1E+10	1	-1E+10	1	-1E+10	1	-1E+10	1	-1E+10	1
4902551	67	C	06/19/2022	07:05	-131.714	49.050	0	912.90	0	3.4140	0	34.3380	0	27.324	0	903.166	0	11.4	4	3.5	4	-1E+10	1	-1E+10	1	-1E+10	1	-1E+10	1	-1E+10	1	-1E+10	1
4902551	67	C	06/19/2022	07:05	-131.714	49.050	0	917.80	0	3.3870	0	34.3400	0	27.328	0	908.003	0	11.4	4	3.6	4	-1E+10	1	-1E+10	1	-1E+10	1	-1E+10	1	-1E+10	1	-1E+10	1
4902551	67	C	06/19/2022	07:05	-131.714	49.050	0	922.80	0	3.3660	0	34.3420	0	27.332	0	912.938	0	11.5	4	3.6	4	-1E+10	1	-1E+10	1	-1E+10	1	-1E+10	1	-1E+10	1	-1E+10	1
4902551	67	C	06/19/2022	07:05	-131.714	49.050	0	927.80	0	3.3380	0	34.3420	0	27.335	0	917.874	0	11.6	4	3.6	4	-1E+10	1	-1E+10	1	-1E+10	1	-1E+10	1	-1E+10	1	-1E+10	1
4902551	67	C	06/19/2022	07:05	-131.714	49.050	0	932.80	0	3.3270	0	34.3420	0	27.336	0	922.810	0	11.6	4	3.6	4	-1E+10	1	-1E+10	1	-1E+10	1	-1E+10	1	-1E+10	1	-1E+10	1
4902551	67	C	06/19/2022	07:05	-131.714	49.050	0	937.90	0	3.3200	0	34.3420	0	27.336	0	927.844	0	11.6	4	3.6	4	-1E+10	1	-1E+10	1	-1E+10	1	-1E+10	1	-1E+10	1	-1E+10	1
4902551	67	C	06/19/2022	07:05	-131.714	49.050	0	943.10	0	3.3220	0	34.3440	0	27.338	0	932.976	0	11.6	4	3.6	4	-1E+10	1	-1E+10	1	-1E+10	1	-1E+10	1	-1E+10	1	-1E+10	1
4902551	67	C	06/19/2022	07:05	-131.714	49.050	0	948.30	0	3.3140	0	34.3450	0	27.339	0	938.109	0	11.6	4	3.6	4	-1E+10	1	-1E+10	1	-1E+10	1	-1E+10	1	-1E+10	1	-1E+10	1
4902551	67	C	06/19/2022	07:05	-131.714	49.050	0	953.00	0	3.2920	0	34.3480	0	27.344	0	942.748	0	11.6	4	3.6	4	-1E+10	1	-1E+10	1	-1E+10	1	-1E+10	1	-1E+10	1	-1E+10	1
4902551	67	C	06/19/2022	07:05	-131.714	49.050	0	957.70	0	3.2870	0	34.3490	0	27.345	0	947.387	0	11.7	4	3.6	4	-1E+10	1	-1E+10	1	-1E+10	1	-1E+10	1	-1E+10	1	-1E+10	1
4902551	67	C	06/19/2022	07:05	-131.714	49.050	0	962.90	0	3.2820	0	34.3500	0	27.346	0	952.519	0	11.7	4	3.6	4	-1E+10	1	-1E+10	1	-1E+10	1	-1E+10	1	-1E+10	1	-1E+10	1
4902551	67	C	06/19/2022	07:05	-131.714	49.050	0	968.20	0	3.2650	0	34.3520	0	27.350	0	957.750	0	11.7	4	3.6	4	-1E+10	1	-1E+10	1	-1E+10	1	-1E+10	1	-1E+10	1	-1E+10	1
4902551	67	C	06/19/2022	07:05	-131.714	49.050	0	973.00	0	3.2470	0	34.3520	0	27.351	0	962.487	0	11.8	4	3.6	4	-1E+10	1	-1E+10	1	-1E+10	1	-1E+10	1	-1E+10	1	-1E+10	1
4902551	67	C	06/19/2022	07:05	-131.714	49.050	0	977.80	0	3.2340	0	34.3550	0	27.355	0	967.224	0	11.8	4	3.7	4	-1E+10	1	-1E+10	1	-1E+10	1	-1E+10	1	-1E+10	1	-1E+10	1
4902551	67	C	06/19/2022	07:05	-131.714	49.050	0	983.10	0	3.2240	0	34.3590	0	27.359	0	972.454	0	11.8	4	3.7	4	-1E+10	1	-1E+10	1	-1E+10	1	-1E+10	1	-1E+10	1	-1E+10	1
4902551	67	C	06/19/2022	07:05	-131.714	49.050	0	988.20	0	3.2180	0	34.3610	0	27.361	0	977.487	0	11.8	4	3.7	4	-1E+10	1	-1E+10	1	-1E+10	1	-1E+10	1	-1E+10	1	-1E+10	1
4902551	67	C	06/19/2022	07:05	-131.714	49.050	0	993.30	0	3.2080	0	34.3640	0	27.365	0	982.520	0	11.9	4	3.7	4	-1E+10	1	-1E+10	1	-1E+10	1	-1E+10	1	-1E+10	1	-1E+10	1
4902551	67	C	06/19/2022	07:05	-131.714	49.050	0	997.90	0	3.2000	0	34.3660	0	27.367	0	987.059	0	11.9	4	3.7	4	-1E+10	1	-1E+10	1	-1E+10	1	-1E+10	1	-1E+10	1	-1E+10	1
4902551	67	C	06/19/2022	07:05	-131.714	49.050	0	1005.00	0	3.1710	0	34.3700	0	27.373	0	994.065	0	12.0	4	3.7	4	-1E+10	1	-1E+10	1	-1E+10	1	-1E+10	1	-1E+10	1	-1E+10	1
4902551	67	C	06/19/2022	07:05	-131.714	49.050	0	1015.10	0	3.1410	0	34.3730	0	27.378	0	1004.031	0	12.1	4	3.7	4	-1E+10	1	-1E+10	1	-1E+10	1	-1E+10	1	-1E+10	1	-1E+10	1
4902551	67	C	06/19/2022	07:05	-131.714	49.050	0	1025.50	0	3.1180	0	34.3770	0	27.383	0	1014.292	0	12.1	4	3.8	4	-1E+10	1	-1E+10	1	-1E+10	1	-1E+10	1	-1E+10	1	-1E+10	1
4902551	67	C	06/19/2022	07:05	-131.714	49.050	0	1035.70	0	3.0960	0	34.3790	0	27.387	0	1024.356	0	12.2	4	3.8	4	-1E+10	1	-1E+10	1	-1E+10	1	-1E+10	1	-1E+10	1	-1E+10	1
4902551	67	C	06/19/2022	07:05	-131.714	49.050	0	1045.20	0	3.0670	0	34.3830	0	27.393	0	1033.729	0	12.3	4	3.8	4	-1E+10	1	-1E+10	1	-1E+10	1	-1E+10	1	-1E+10	1	-1E+10	1
4902551	67	C	06/19/2022	07:05	-131.714	49.050	0	1055.40	0	3.0470	0	34.3860	0	27.397	0	1043.791	0	12.4	4	3.8	4	-1E+10	1	-1E+10	1	-1E+10	1	-1E+10	1	-1E+10	1	-1E+10	1
4902551	67	C	06/19/2022	07:05	-131.714	49.050	0	1065.80	0	3.0300	0	34.3890	0	27.401	0	1054.051	0	12.5	4	3.9	4	-1E+10	1	-1E+10	1	-1E+10	1	-1E+10	1	-1E+10	1	-1E+10	1
4902551	67	C	06/19/2022	07:05	-131.714	49.050	0	1075.30	0	2.9970	0	34.3960	0	27.410	0	1063.422	0	12.7	4	3.9	4	-1E+10	1	-1E+10	1	-1E+10	1	-1E+10	1	-1E+10	1	-1E+10	1
4902551	67	C	06/19/2022	07:05	-131.714	49.050	0	1085.00	0	2.9820	0	34.3990	0	27.414	0	1072.990	0	12.8	4	3.9	4	-1E+10	1	-1E+10	1	-1E+10	1	-1E+10	1	-1E+10	1	-1E+10	1
4902551	67	C	06/19/2022	07:05	-131.714	49.050	0	1095.30	0	2.9650	0	34.4020	0	27.418	0	1083.150	0	12.9	4	4.0	4	-1E+10	1	-1E+10	1	-1E+10	1	-1E+10	1	-1E+10	1	-1E+10	1
4902551	67	C	06/19/2022	07:05	-131.714	49.050	0	1105.40	0	2.9400	0	34.4070	0	27.424	0	1093.111	0	13.1	4	4.0	4	-1E+10	1	-1E+10	1	-1E+10	1	-1E+10	1	-1E+10	1	-1E+10	1
4902551	67	C	06/19/2022	07:05	-131.714	49.050	0	1115.50	0	2.9190	0	34.4100	0	27.428	0	1103.072	0	13.2	4	4.1	4	-1E+10	1	-1E+10	1	-1E+10	1	-1E+10	1	-1E+10	1	-1E+10	1
4902551	67	C	06/19/2022	07:05	-131.714	49.050	0	1125.60	0	2.9060	0	34.4120	0	27.431	0	1113.033	0	13.3	4	4.1	4	-1E+10	1	-1E+10	1	-1E+10	1	-1E+10	1	-1E+10	1	-1E+10	1
4902551	67	C	06/19/2022	07:05	-131.714	49.050	0	1135.40	0	2.8930	0	34.4130	0	27.433	0	1122.698	0	13.3	4	4.1	4	-1E+10	1	-1E+10	1	-1E+10	1	-1E+10	1	-1E+10	1	-1E+10	1
4902551	67	C	06/19/2022	07:05	-131.714	49.050	0	1145.50	0	2.8750	0	34.4150	0	27.436	0	1132.657	0	13.4	4	4.1	4	-1E+10	1	-1E+10	1	-1E+10	1	-1E+10	1	-1E+10	1	-1E+10	1
4902551	67	C	06/19/2022	07:05	-131.714	49.050	0	1155.30	0	2.8560	0	34.4170	0	27.440	0	1142.321	0	13.5	4	4.2	4	-1E+10	1	-1E+10	1	-1E+10	1	-1E+10	1	-1E+10	1	-1E+10	1
4902551	67	C	06/19/2022	07:05	-131.714	49.050	0	1165.30	0	2.8510	0	34.4180	0	27.441	0	1152.181	0	13.7	4	4.2	4	-1E+10	1	-1E+10	1	-1E+10	1	-1E+10	1	-1E+10	1	-1E+10	1
4902551	67	C	06/19/2022	07:05	-131.714	49.050	0	1175.50	0	2.8260	0	34.4220	0	27.446	0	1162.238	0	13.8	4	4.3	4	-1E+10	1	-1E+10	1	-1E+10	1	-1E+10	1	-1E+10	1	-1E+10	1
4902551	67	C	06/19/2022	07:05	-131.714	49.050	0	1185.40	0	2.8030	0	34.4250	0	27.451	0	1171.999	0	14.0	4	4.3	4	-1E+10	1	-1E+10	1	-1E+10	1	-1E+10	1	-1E+10	1	-1E+10	1
4902551	67	C	06/19/2022	07:05	-131.714	49.050	0	1195.40	0	2.7870	0	34.4270	0	27.454	0	1181.858	0	14.1	4	4.3	4	-1E+10	1	-1E+10	1	-1E+10	1	-1E+10	1	-1E+10	1	-1E+10	1
4902551	67	C	06/19/2022	07:05	-131.714	49.050	0	1205.30	0	2.7680	0	34.4300	0	27.458	0	1191.617	0	14.2	4	4.4	4	-1E+10	1	-1E+10	1	-1E+10	1	-1E+10	1	-1E+10	1	-1E+10	1
4902551	67	C	06/19/2022	07:05	-131.714	49.050	0	1215.20	0	2.7570	0	34.4310	0	27.460	0	1201.377	0	14.4	4	4.4	4	-1E+10	1	-1E+10	1	-1E+10	1	-1E+10	1	-1E+10	1	-1E+10	1
4902551	67	C	06/19/2022	07:05	-131.714	49.050	0	1225.10	0	2.7470	0	34.4340	0	27.463	0	1211.136	0	14.7	4	4.5	4	-1E+10	1	-1E+10	1	-1E+10	1	-1E+10	1	-1E+10	1	-1E+10	1
4902551	67	C	06/19/2022	07:05	-131.714	49.050	0	1235.20	0	2.7480	0	34.4370	0	27.466	0	1221.091	0	15.0	4	4.6	4	-1E+10	1	-1E+10	1	-1E+10	1	-1E+10	1	-1E+10	1	-1E+10	1
4902551	67	C	06/19/2022	07:05	-131.714	49.050	0	1245.30	0	2.7350	0	34.4400	0	27.469	0	1231.046	0	15.2	4	4.7	4	-1E+10	1	-1E+10	1	-1E+10	1	-1E+10	1	-1E+10	1	-1E+10	1
4902551	67	C	06/19/2022	07:05	-131.714	49.050	0	1255.40	0	2.7170	0	34.4420	0	27.472	0	1241.001	0	15.4	4	4.7	4	-1E+10	1	-1E+10	1	-1E+10	1	-1E+10	1	-1E+10	1	-1E+10	1
4902551	67	C	06/19/2022	07:05	-131.714	49.050	0	1265.50	0	2.7070	0	34.4450	0	27.476	0	1250.955	0	15.5	4	4.8	4	-1E+10	1	-1E+10	1	-1E+10	1	-1E+10	1	-1E+10	1	-1E+10	1
4902551	67	C	06/19/2022	07:05	-131.714	49.050	0	1275.20	0	2.6860	0	34.4460	0	27.478	0	1260.515	0	15.5	4	4.8	4	-1E+10	1	-1E+10	1	-1E+10	1	-1E+10	1	-1E+10	1	-1E+10	1
4902551	67	C	06/19/2022	07:05	-131.714	49.050	0	1285.10	0	2.6690	0	34.4470	0	27.481	0	1270.271	0	15.8	4	4.8	4	-1E+10	1	-1E+10	1	-1E+10	1	-1E+10	1	-1E+10	1	-1E+10	1
4902551	67	C	06/19/2022	07:05	-131.714	49.050	0	1295.20	0	2.6570	0	34.4490	0	27.483	0	1280.224	0	16.1	4	4.9	4	-1E+10	1	-1E+10	1	-1E+10	1	-1E+10	1	-1E+10	1	-1E+10	1
4902551	67	C	06/19/2022	07:05	-131.714	49.050	0	1305.40	0	2.6460	0	34.4530	0	27.488	0	1290.274	0	16.6	4	5.1	4	-1E+10	1	-1E+10	1	-1E+10	1	-1E+10	1	-1E+10	1	-1E+10	1
4902551	67	C	06/19/2022	07:05	-131.714	49.050	0	1315.20	0	2.6350	0	34.4570	0	27.492	0	1299.931	0	16.8	4	5.1	4	-1E+10	1	-1E+10	1	-1E+10	1	-1E+10	1	-1E+10	1	-1E+10	1
4902551	67	C	06/19/2022	07:05	-131.714	49.050	0	1325.10	0	2.6220	0	34.4580	0	27.494	0	1309.685	0	17.0	4	5.2	4	-1E+10	1	-1E+10	1	-1E+10	1	-1E+10	1	-1E+10	1	-1E+10	1
4902551	67	C	06/19/2022	07:05	-131.714	49.050	0	1335.40	0	2.6140	0	34.4600	0	27.496	0	1319.833	0	17.4	4	5.3	4	-1E+10	1	-1E+10	1	-1E+10	1	-1E+10	1	-1E+10	1	-1E+10	1
4902551	67	C	06/19/2022	07:05	-131.714	49.050	0	1345.60	0	2.6140	0	34.4620	0	27.498	0	1329.882	0	17.8	4	5.4	4	-1E+10	1	-1E+10	1	-1E+10	1	-1E+10	1	-1E+10	1	-1E+10	1
4902551	67	C	06/19/2022	07:05	-131.714	49.050	0	1355.10	0	2.6110	0	34.4650	0	27.500	0	1339.241	0	18.2	4	5.6	4	-1E+10	1	-1E+10	1	-1E+10	1	-1E+10	1	-1E+10	1	-1E+10	1
4902551	67	C	06/19/2022	07:05	-131.714	49.050	0	1365.30	0	2.5980	0	34.4680	0	27.504	0	1349.289	0	18.5	4	5.7	4	-1E+10	1	-1E+10	1	-1E+10	1	-1E+10	1	-1E+10	1	-1E+10	1
4902551	67	C	06/19/2022	07:05	-131.714	49.050	0	1375.30	0	2.5900	0	34.4690	0	27.506	0	1359.139	0	18.9	4	5.8	4	-1E+10	1	-1E+10	1	-1E+10	1	-1E+10	1	-1E+10	1	-1E+10	1
4902551	67	C	06/19/2022	07:05	-131.714	49.050	0	1385.30	0	2.5820	0	34.4710	0	27.508	0	1368.989	0	19.3	4	5.9	4	-1E+10	1	-1E+10	1	-1E+10	1	-1E+10	1	-1E+10	1	-1E+10	1
4902551	67	C	06/19/2022	07:05	-131.714	49.050	0	1395.60	0	2.5550	0	34.4760	0	27.514	0	1379.134	0	20.0	4	6.1	4	-1E+10	1	-1E+10	1	-1E+10	1	-1E+10	1	-1E+10	1	-1E+10	1
4902551	67	C	06/19/2022	07:05	-131.714	49.050	0	1405.30	0	2.5330	0	34.4800	0	27.519	0	1388.688	0	20.6	4	6.3	4	-1E+10	1	-1E+10	1	-1E+10	1	-1E+10	1	-1E+10	1	-1E+10	1
4902551	67	C	06/19/2022	07:05	-131.714	49.050	0	1415.20	0	2.5220	0	34.4820	0	27.522	0	1398.438	0	21.0	4	6.4	4	-1E+10	1	-1E+10	1	-1E+10	1	-1E+10	1	-1E+10	1	-1E+10	1
4902551	67	C	06/19/2022	07:05	-131.714	49.050	0	1425.60	0	2.5090	0	34.4840	0	27.525	0	1408.680	0	21.5	4	6.6	4	-1E+10	1	-1E+10	1	-1E+10	1	-1E+10	1	-1E+10	1	-1E+10	1
4902551	67	C	06/19/2022	07:05	-131.714	49.050	0	1435.50	0	2.4970	0	34.4860	0	27.527	0	1418.430	0	22.0	4	6.7	4	-1E+10	1	-1E+10	1	-1E+10	1	-1E+10	1	-1E+10	1	-1E+10	1
4902551	67	C	06/19/2022	07:05	-131.714	49.050	0	1445.30	0	2.4830	0	34.4890	0	27.531	0	1428.080	0	22.4	4	6.8	4	-1E+10	1	-1E+10	1	-1E+10	1	-1E+10	1	-1E+10	1	-1E+10	1
4902551	67	C	06/19/2022	07:05	-131.714	49.050	0	1455.50	0	2.4630	0	34.4910	0	27.534	0	1438.124	0	22.9	4	7.0	4	-1E+10	1	-1E+10	1	-1E+10	1	-1E+10	1	-1E+10	1	-1E+10	1
4902551	67	C	06/19/2022	07:05	-131.714	49.050	0	1465.30	0	2.4450	0	34.4940	0	27.538	0	1447.773	0	23.5	4	7.2	4	-1E+10	1	-1E+10	1	-1E+10	1	-1E+10	1	-1E+10	1	-1E+10	1
4902551	67	C	06/19/2022	07:05	-131.714	49.050	0	1475.30	0	2.4340	0	34.4960	0	27.541	0	1457.619	0	24.1	4	7.3	4	-1E+10	1	-1E+10	1	-1E+10	1	-1E+10	1	-1E+10	1	-1E+10	1
4902551	67	C	06/19/2022	07:05	-131.714	49.050	0	1485.50	0	2.4200	0	34.4990	0	27.544	0	1467.661	0	24.7	4	7.5	4	-1E+10	1	-1E+10	1	-1E+10	1	-1E+10	1	-1E+10	1	-1E+10	1
4902551	67	C	06/19/2022	07:05	-131.714	49.050	0	1495.40	0	2.4000	0	34.5010	0	27.548	0	1477.408	0	25.3	4	7.7	4	-1E+10	1	-1E+10	1	-1E+10	1	-1E+10	1	-1E+10	1	-1E+10	1
4902551	67	C	06/19/2022	07:05	-131.714	49.050	0	1505.50	0	2.3900	0	34.5030	0	27.550	0	1487.351	0	25.9	4	7.9	4	-1E+10	1	-1E+10	1	-1E+10	1	-1E+10	1	-1E+10	1	-1E+10	1
4902551	67	C	06/19/2022	07:05	-131.714	49.050	0	1515.40	0	2.3740	0	34.5060	0	27.554	0	1497.096	0	26.7	4	8.1	4	-1E+10	1	-1E+10	1	-1E+10	1	-1E+10	1	-1E+10	1	-1E+10	1
4902551	67	C	06/19/2022	07:05	-131.714	49.050	0	1525.50	0	2.3530	0	34.5090	0	27.558	0	1507.038	0	27.5	4	8.4	4	-1E+10	1	-1E+10	1	-1E+10	1	-1E+10	1	-1E+10	1	-1E+10	1
4902551	67	C	06/19/2022	07:05	-131.714	49.050	0	1535.50	0	2.3390	0	34.5120	0	27.562	0	1516.882	0	28.2	4	8.6	4	-1E+10	1	-1E+10	1	-1E+10	1	-1E+10	1	-1E+10	1	-1E+10	1
4902551	67	C	06/19/2022	07:05	-131.714	49.050	0	1545.60	0	2.3280	0	34.5140	0	27.564	0	1526.823	0	28.9	4	8.8	4	-1E+10	1	-1E+10	1	-1E+10	1	-1E+10	1	-1E+10	1	-1E+10	1
4902551	67	C	06/19/2022	07:05	-131.714	49.050	0	1555.60	0	2.3110	0	34.5170	0	27.568	0	1536.665	0	30.1	4	9.2	4	-1E+10	1	-1E+10	1	-1E+10	1	-1E+10	1	-1E+10	1	-1E+10	1
4902551	67	C	06/19/2022	07:05	-131.714	49.050	0	1565.40	0	2.2870	0	34.5210	0	27.573	0	1546.310	0	31.1	4	9.4	4	-1E+10	1	-1E+10	1	-1E+10	1	-1E+10	1	-1E+10	1	-1E+10	1
4902551	67	C	06/19/2022	07:05	-131.714	49.050	0	1575.50	0	2.2710	0	34.5240	0	27.577	0	1556.250	0	31.7	4	9.6	4	-1E+10	1	-1E+10	1	-1E+10	1	-1E+10	1	-1E+10	1	-1E+10	1
4902551	67	C	06/19/2022	07:05	-131.714	49.050	0	1585.50	0	2.2550	0	34.5260	0	27.580	0	1566.090	0	32.7	4	9.9	4	-1E+10	1	-1E+10	1	-1E+10	1	-1E+10	1	-1E+10	1	-1E+10	1
4902551	67	C	06/19/2022	07:05	-131.714	49.050	0	1595.30	0	2.2390	0	34.5300	0	27.585	0	1575.734	0	33.3	4	10.1	4	-1E+10	1	-1E+10	1	-1E+10	1	-1E+10	1	-1E+10	1	-1E+10	1
4902551	67	C	06/19/2022	07:05	-131.714	49.050	0	1605.20	0	2.2310	0	34.5310	0	27.586	0	1585.475	0	33.6	4	10.2	4	-1E+10	1	-1E+10	1	-1E+10	1	-1E+10	1	-1E+10	1	-1E+10	1
4902551	67	C	06/19/2022	07:05	-131.714	49.050	0	1615.20	0	2.2240	0	34.5320	0	27.588	0	1595.315	0	34.0	4	10.3	4	-1E+10	1	-1E+10	1	-1E+10	1	-1E+10	1	-1E+10	1	-1E+10	1
4902551	67	C	06/19/2022	07:05	-131.714	49.050	0	1625.30	0	2.2180	0	34.5330	0	27.589	0	1605.252	0	34.5	4	10.5	4	-1E+10	1	-1E+10	1	-1E+10	1	-1E+10	1	-1E+10	1	-1E+10	1
4902551	67	C	06/19/2022	07:05	-131.714	49.050	0	1635.10	0	2.2100	0	34.5350	0	27.591	0	1614.894	0	35.2	4	10.7	4	-1E+10	1	-1E+10	1	-1E+10	1	-1E+10	1	-1E+10	1	-1E+10	1
4902551	67	C	06/19/2022	07:05	-131.714	49.050	0	1645.30	0	2.1990	0	34.5360	0	27.593	0	1624.929	0	35.7	4	10.8	4	-1E+10	1	-1E+10	1	-1E+10	1	-1E+10	1	-1E+10	1	-1E+10	1
4902551	67	C	06/19/2022	07:05	-131.714	49.050	0	1655.60	0	2.1930	0	34.5380	0	27.595	0	1635.062	0	36.2	4	11.0	4	-1E+10	1	-1E+10	1	-1E+10	1	-1E+10	1	-1E+10	1	-1E+10	1
4902551	67	C	06/19/2022	07:05	-131.714	49.050	0	1665.30	0	2.1870	0	34.5390	0	27.596	0	1644.604	0	36.6	4	11.1	4	-1E+10	1	-1E+10	1	-1E+10	1	-1E+10	1	-1E+10	1	-1E+10	1
4902551	67	C	06/19/2022	07:05	-131.714	49.050	0	1675.10	0	2.1800	0	34.5400	0	27.598	0	1654.244	0	37.2	4	11.3	4	-1E+10	1	-1E+10	1	-1E+10	1	-1E+10	1	-1E+10	1	-1E+10	1
4902551	67	C	06/19/2022	07:05	-131.714	49.050	0	1685.50	0	2.1720	0	34.5420	0	27.600	0	1664.473	0	37.8	4	11.4	4	-1E+10	1	-1E+10	1	-1E+10	1	-1E+10	1	-1E+10	1	-1E+10	1
4902551	67	C	06/19/2022	07:05	-131.714	49.050	0	1695.60	0	2.1650	0	34.5430	0	27.601	0	1674.408	0	38.5	4	11.6	4	-1E+10	1	-1E+10	1	-1E+10	1	-1E+10	1	-1E+10	1	-1E+10	1
4902551	67	C	06/19/2022	07:05	-131.714	49.050	0	1705.70	0	2.1580	0	34.5450	0	27.604	0	1684.341	0	39.1	4	11.8	4	-1E+10	1	-1E+10	1	-1E+10	1	-1E+10	1	-1E+10	1	-1E+10	1
4902551	67	C	06/19/2022	07:05	-131.714	49.050	0	1715.50	0	2.1480	0	34.5460	0	27.605	0	1693.979	0	39.9	4	12.1	4	-1E+10	1	-1E+10	1	-1E+10	1	-1E+10	1	-1E+10	1	-1E+10	1
4902551	67	C	06/19/2022	07:05	-131.714	49.050	0	1725.50	0	2.1400	0	34.5480	0	27.608	0	1703.814	0	40.4	4	12.2	4	-1E+10	1	-1E+10	1	-1E+10	1	-1E+10	1	-1E+10	1	-1E+10	1
4902551	67	C	06/19/2022	07:05	-131.714	49.050	0	1735.50	0	2.1290	0	34.5500	0	27.610	0	1713.648	0	41.2	4	12.5	4	-1E+10	1	-1E+10	1	-1E+10	1	-1E+10	1	-1E+10	1	-1E+10	1
4902551	67	C	06/19/2022	07:05	-131.714	49.050	0	1745.20	0	2.1170	0	34.5520	0	27.613	0	1723.186	0	41.8	4	12.6	4	-1E+10	1	-1E+10	1	-1E+10	1	-1E+10	1	-1E+10	1	-1E+10	1
4902551	67	C	06/19/2022	07:05	-131.714	49.050	0	1755.30	0	2.1130	0	34.5530	0	27.614	0	1733.118	0	42.4	4	12.8	4	-1E+10	1	-1E+10	1	-1E+10	1	-1E+10	1	-1E+10	1	-1E+10	1
4902551	67	C	06/19/2022	07:05	-131.714	49.050	0	1765.40	0	2.1040	0	34.5550	0	27.616	0	1743.049	0	43.4	4	13.1	4	-1E+10	1	-1E+10	1	-1E+10	1	-1E+10	1	-1E+10	1	-1E+10	1
4902551	67	C	06/19/2022	07:05	-131.714	49.050	0	1775.60	0	2.0940	0	34.5570	0	27.619	0	1753.077	0	44.0	4	13.3	4	-1E+10	1	-1E+10	1	-1E+10	1	-1E+10	1	-1E+10	1	-1E+10	1
4902551	67	C	06/19/2022	07:05	-131.714	49.050	0	1785.80	0	2.0800	0	34.5590	0	27.622	0	1763.106	0	44.7	4	13.5	4	-1E+10	1	-1E+10	1	-1E+10	1	-1E+10	1	-1E+10	1	-1E+10	1
4902551	67	C	06/19/2022	07:05	-131.714	49.050	0	1795.60	0	2.0770	0	34.5590	0	27.622	0	1772.740	0	45.2	4	13.7	4	-1E+10	1	-1E+10	1	-1E+10	1	-1E+10	1	-1E+10	1	-1E+10	1
4902551	67	C	06/19/2022	07:05	-131.714	49.050	0	1805.50	0	2.0680	0	34.5610	0	27.624	0	1782.473	0	46.0	4	13.9	4	-1E+10	1	-1E+10	1	-1E+10	1	-1E+10	1	-1E+10	1	-1E+10	1
4902551	67	C	06/19/2022	07:05	-131.714	49.050	0	1815.60	0	2.0600	0	34.5630	0	27.626	0	1792.401	0	46.6	4	14.1	4	-1E+10	1	-1E+10	1	-1E+10	1	-1E+10	1	-1E+10	1	-1E+10	1
4902551	67	C	06/19/2022	07:05	-131.714	49.050	0	1825.40	0	2.0560	0	34.5640	0	27.628	0	1802.035	0	47.3	4	14.3	4	-1E+10	1	-1E+10	1	-1E+10	1	-1E+10	1	-1E+10	1	-1E+10	1
4902551	67	C	06/19/2022	07:05	-131.714	49.050	0	1835.10	0	2.0440	0	34.5660	0	27.630	0	1811.569	0	48.1	4	14.5	4	-1E+10	1	-1E+10	1	-1E+10	1	-1E+10	1	-1E+10	1	-1E+10	1
4902551	67	C	06/19/2022	07:05	-131.714	49.050	0	1845.40	0	2.0350	0	34.5670	0	27.632	0	1821.693	0	48.7	4	14.7	4	-1E+10	1	-1E+10	1	-1E+10	1	-1E+10	1	-1E+10	1	-1E+10	1
4902551	67	C	06/19/2022	07:05	-131.714	49.050	0	1855.60	0	2.0300	0	34.5690	0	27.634	0	1831.718	0	49.4	4	14.9	4	-1E+10	1	-1E+10	1	-1E+10	1	-1E+10	1	-1E+10	1	-1E+10	1
4902551	67	C	06/19/2022	07:05	-131.714	49.050	0	1865.30	0	2.0180	0	34.5710	0	27.636	0	1841.251	0	50.0	4	15.1	4	-1E+10	1	-1E+10	1	-1E+10	1	-1E+10	1	-1E+10	1	-1E+10	1
4902551	67	C	06/19/2022	07:05	-131.714	49.050	0	1875.10	0	2.0130	0	34.5720	0	27.638	0	1850.882	0	50.5	4	15.2	4	-1E+10	1	-1E+10	1	-1E+10	1	-1E+10	1	-1E+10	1	-1E+10	1
4902551	67	C	06/19/2022	07:05	-131.714	49.050	0	1885.00	0	2.0050	0	34.5730	0	27.639	0	1860.611	0	51.1	4	15.4	4	-1E+10	1	-1E+10	1	-1E+10	1	-1E+10	1	-1E+10	1	-1E+10	1
4902551	67	C	06/19/2022	07:05	-131.714	49.050	0	1895.10	0	1.9940	0	34.5750	0	27.642	0	1870.536	0	51.7	4	15.6	4	-1E+10	1	-1E+10	1	-1E+10	1	-1E+10	1	-1E+10	1	-1E+10	1
4902551	67	C	06/19/2022	07:05	-131.714	49.050	0	1905.30	0	1.9840	0	34.5760	0	27.643	0	1880.559	0	52.3	4	15.8	4	-1E+10	1	-1E+10	1	-1E+10	1	-1E+10	1	-1E+10	1	-1E+10	1
4902551	67	C	06/19/2022	07:05	-131.714	49.050	0	1915.40	0	1.9730	0	34.5780	0	27.646	0	1890.483	0	52.9	4	15.9	4	-1E+10	1	-1E+10	1	-1E+10	1	-1E+10	1	-1E+10	1	-1E+10	1
4902551	67	C	06/19/2022	07:05	-131.714	49.050	0	1925.30	0	1.9700	0	34.5790	0	27.647	0	1900.210	0	53.1	4	16.0	4	-1E+10	1	-1E+10	1	-1E+10	1	-1E+10	1	-1E+10	1	-1E+10	1
4902551	67	C	06/19/2022	07:05	-131.714	49.050	0	1935.30	0	1.9680	0	34.5790	0	27.647	0	1910.035	0	53.4	4	16.1	4	-1E+10	1	-1E+10	1	-1E+10	1	-1E+10	1	-1E+10	1	-1E+10	1
4902551	67	C	06/19/2022	07:05	-131.714	49.050	0	1945.40	0	1.9640	0	34.5800	0	27.648	0	1919.957	0	53.9	4	16.2	4	-1E+10	1	-1E+10	1	-1E+10	1	-1E+10	1	-1E+10	1	-1E+10	1
4902551	67	C	06/19/2022	07:05	-131.714	49.050	0	1955.60	0	1.9560	0	34.5820	0	27.651	0	1929.978	0	54.2	4	16.3	4	-1E+10	1	-1E+10	1	-1E+10	1	-1E+10	1	-1E+10	1	-1E+10	1
4902551	67	C	06/19/2022	07:05	-131.714	49.050	0	1965.80	0	1.9500	0	34.5830	0	27.652	0	1939.998	0	54.1	4	16.3	4	-1E+10	1	-1E+10	1	-1E+10	1	-1E+10	1	-1E+10	1	-1E+10	1
4902551	67	C	06/19/2022	07:05	-131.714	49.050	0																										
4902551	68	C	06/29/2022	12:03	-131.982	49.087	0	0.20	0	11.6990	0	32.2520	0	24.512	0	0.198	0	263.1	4	97.4	4	-1E+10	1	-1E+10	1	-1E+10	1	-1E+10	1	-1E+10	1	-1E+10	1
4902551	68	C	06/29/2022	12:03	-131.982	49.087	0	0.30	0	11.7010	0	32.2500	0	24.510	0	0.297	0	263.1	4	97.4	4	-1E+10	1	-1E+10	1	-1E+10	1	-1E+10	1	-1E+10	1	-1E+10	1
4902551	68	C	06/29/2022	12:03	-131.982	49.087	0	1.10	0	11.7010	0	32.2490	0	24.509	0	1.091	0	263.1	4	97.4	4	-1E+10	1	-1E+10	1	-1E+10	1	-1E+10	1	-1E+10	1	-1E+10	1
4902551	68	C	06/29/2022	12:03	-131.982	49.087	0	2.10	0	11.7020	0	32.2500	0	24.509	0	2.082	0	263.1	4	97.4	4	-1E+10	1	-1E+10	1	-1E+10	1	-1E+10	1	-1E+10	1	-1E+10	1
4902551	68	C	06/29/2022	12:03	-131.982	49.087	0	3.30	0	11.7020	0	32.2510	0	24.510	0	3.272	0	263.1	4	97.4	4	-1E+10	1	-1E+10	1	-1E+10	1	-1E+10	1	-1E+10	1	-1E+10	1
4902551	68	C	06/29/2022	12:03	-131.982	49.087	0	4.20	0	11.7010	0	32.2530	0	24.512	0	4.164	0	263.1	4	97.4	4	-1E+10	1	-1E+10	1	-1E+10	1	-1E+10	1	-1E+10	1	-1E+10	1
4902551	68	C	06/29/2022	12:03	-131.982	49.087	0	5.00	0	11.7020	0	32.2520	0	24.511	0	4.957	0	263.0	4	97.4	4	-1E+10	1	-1E+10	1	-1E+10	1	-1E+10	1	-1E+10	1	-1E+10	1
4902551	68	C	06/29/2022	12:03	-131.982	49.087	0	6.10	0	11.7020	0	32.2520	0	24.511	0	6.048	0	263.0	4	97.4	4	-1E+10	1	-1E+10	1	-1E+10	1	-1E+10	1	-1E+10	1	-1E+10	1
4902551	68	C	06/29/2022	12:03	-131.982	49.087	0	7.00	0	11.7030	0	32.2530	0	24.512	0	6.940	0	263.0	4	97.4	4	-1E+10	1	-1E+10	1	-1E+10	1	-1E+10	1	-1E+10	1	-1E+10	1
4902551	68	C	06/29/2022	12:03	-131.982	49.087	0	8.10	0	11.7030	0	32.2530	0	24.512	0	8.031	0	263.0	4	97.4	4	-1E+10	1	-1E+10	1	-1E+10	1	-1E+10	1	-1E+10	1	-1E+10	1
4902551	68	C	06/29/2022	12:03	-131.982	49.087	0	9.00	0	11.7040	0	32.2530	0	24.512	0	8.923	0	263.0	4	97.4	4	-1E+10	1	-1E+10	1	-1E+10	1	-1E+10	1	-1E+10	1	-1E+10	1
4902551	68	C	06/29/2022	12:03	-131.982	49.087	0	10.00	0	11.7040	0	32.2530	0	24.512	0	9.915	0	263.0	4	97.4	4	-1E+10	1	-1E+10	1	-1E+10	1	-1E+10	1	-1E+10	1	-1E+10	1
4902551	68	C	06/29/2022	12:03	-131.982	49.087	0	11.30	0	11.7040	0	32.2530	0	24.512	0	11.204	0	262.9	4	97.3	4	-1E+10	1	-1E+10	1	-1E+10	1	-1E+10	1	-1E+10	1	-1E+10	1
4902551	68	C	06/29/2022	12:03	-131.982	49.087	0	12.10	0	11.7040	0	32.2530	0	24.512	0	11.997	0	263.0	4	97.4	4	-1E+10	1	-1E+10	1	-1E+10	1	-1E+10	1	-1E+10	1	-1E+10	1
4902551	68	C	06/29/2022	12:03	-131.982	49.087	0	13.00	0	11.7030	0	32.2530	0	24.512	0	12.889	0	263.0	4	97.4	4	-1E+10	1	-1E+10	1	-1E+10	1	-1E+10	1	-1E+10	1	-1E+10	1
4902551	68	C	06/29/2022	12:03	-131.982	49.087	0	14.30	0	11.7040	0	32.2530	0	24.512	0	14.178	0	263.0	4	97.4	4	-1E+10	1	-1E+10	1	-1E+10	1	-1E+10	1	-1E+10	1	-1E+10	1
4902551	68	C	06/29/2022	12:03	-131.982	49.087	0	15.10	0	11.7040	0	32.2530	0	24.512	0	14.971	0	263.1	4	97.4	4	-1E+10	1	-1E+10	1	-1E+10	1	-1E+10	1	-1E+10	1	-1E+10	1
4902551	68	C	06/29/2022	12:03	-131.982	49.087	0	16.00	0	11.7040	0	32.2530	0	24.512	0	15.864	0	263.1	4	97.4	4	-1E+10	1	-1E+10	1	-1E+10	1	-1E+10	1	-1E+10	1	-1E+10	1
4902551	68	C	06/29/2022	12:03	-131.982	49.087	0	16.90	0	11.7040	0	32.2530	0	24.512	0	16.756	0	263.2	4	97.5	4	-1E+10	1	-1E+10	1	-1E+10	1	-1E+10	1	-1E+10	1	-1E+10	1
4902551	68	C	06/29/2022	12:03	-131.982	49.087	0	18.00	0	11.7040	0	32.2530	0	24.512	0	17.846	0	263.3	4	97.5	4	-1E+10	1	-1E+10	1	-1E+10	1	-1E+10	1	-1E+10	1	-1E+10	1
4902551	68	C	06/29/2022	12:03	-131.982	49.087	0	19.20	0	11.7040	0	32.2530	0	24.512	0	19.036	0	263.4	4	97.5	4	-1E+10	1	-1E+10	1	-1E+10	1	-1E+10	1	-1E+10	1	-1E+10	1
4902551	68	C	06/29/2022	12:03	-131.982	49.087	0	20.10	0	11.7040	0	32.2530	0	24.512	0	19.928	0	263.6	4	97.6	4	-1E+10	1	-1E+10	1	-1E+10	1	-1E+10	1	-1E+10	1	-1E+10	1
4902551	68	C	06/29/2022	12:03	-131.982	49.087	0	20.90	0	11.7050	0	32.2520	0	24.511	0	20.722	0	263.6	4	97.6	4	-1E+10	1	-1E+10	1	-1E+10	1	-1E+10	1	-1E+10	1	-1E+10	1
4902551	68	C	06/29/2022	12:03	-131.982	49.087	0	22.30	0	11.7050	0	32.2530	0	24.512	0	22.109	0	263.9	4	97.7	4	-1E+10	1	-1E+10	1	-1E+10	1	-1E+10	1	-1E+10	1	-1E+10	1
4902551	68	C	06/29/2022	12:03	-131.982	49.087	0	22.90	0	11.7050	0	32.2530	0	24.512	0	22.704	0	264.1	4	97.8	4	-1E+10	1	-1E+10	1	-1E+10	1	-1E+10	1	-1E+10	1	-1E+10	1
4902551	68	C	06/29/2022	12:03	-131.982	49.087	0	23.80	0	11.7050	0	32.2520	0	24.511	0	23.597	0	264.4	4	97.9	4	-1E+10	1	-1E+10	1	-1E+10	1	-1E+10	1	-1E+10	1	-1E+10	1
4902551	68	C	06/29/2022	12:03	-131.982	49.087	0	24.80	0	11.7020	0	32.2520	0	24.512	0	24.588	0	264.7	4	98.0	4	-1E+10	1	-1E+10	1	-1E+10	1	-1E+10	1	-1E+10	1	-1E+10	1
4902551	68	C	06/29/2022	12:03	-131.982	49.087	0	25.80	0	11.6910	0	32.2520	0	24.514	0	25.579	0	265.1	4	98.1	4	-1E+10	1	-1E+10	1	-1E+10	1	-1E+10	1	-1E+10	1	-1E+10	1
4902551	68	C	06/29/2022	12:03	-131.982	49.087	0	26.70	0	11.6830	0	32.2540	0	24.517	0	26.472	0	265.5	4	98.3	4	-1E+10	1	-1E+10	1	-1E+10	1	-1E+10	1	-1E+10	1	-1E+10	1
4902551	68	C	06/29/2022	12:03	-131.982	49.087	0	28.10	0	11.6520	0	32.2560	0	24.524	0	27.860	0	266.3	4	98.5	4	-1E+10	1	-1E+10	1	-1E+10	1	-1E+10	1	-1E+10	1	-1E+10	1
4902551	68	C	06/29/2022	12:03	-131.982	49.087	0	29.30	0	11.5900	0	32.2520	0	24.532	0	29.049	0	267.2	4	98.7	4	-1E+10	1	-1E+10	1	-1E+10	1	-1E+10	1	-1E+10	1	-1E+10	1
4902551	68	C	06/29/2022	12:03	-131.982	49.087	0	29.90	0	11.5640	0	32.2580	0	24.541	0	29.644	0	267.7	4	98.8	4	-1E+10	1	-1E+10	1	-1E+10	1	-1E+10	1	-1E+10	1	-1E+10	1
4902551	68	C	06/29/2022	12:03	-131.982	49.087	0	30.80	0	11.5130	0	32.2680	0	24.558	0	30.536	0	268.7	4	99.1	4	-1E+10	1	-1E+10	1	-1E+10	1	-1E+10	1	-1E+10	1	-1E+10	1
4902551	68	C	06/29/2022	12:03	-131.982	49.087	0	32.00	0	11.4020	8	32.3220	8	24.620	0	31.726	0	269.9	4	99.4	4	-1E+10	1	-1E+10	1	-1E+10	1	-1E+10	1	-1E+10	1	-1E+10	1
4902551	68	C	06/29/2022	12:03	-131.982	49.087	0	32.70	0	11.3400	8	32.2580	8	24.582	0	32.420	0	271.0	4	99.6	4	-1E+10	1	-1E+10	1	-1E+10	1	-1E+10	1	-1E+10	1	-1E+10	1
4902551	68	C	06/29/2022	12:03	-131.982	49.087	0	33.80	0	11.3060	0	32.2440	0	24.577	0	33.510	0	272.0	4	99.9	4	-1E+10	1	-1E+10	1	-1E+10	1	-1E+10	1	-1E+10	1	-1E+10	1
4902551	68	C	06/29/2022	12:03	-131.982	49.087	0	34.90	0	10.9720	0	32.3150	0	24.691	0	34.601	0	273.6	4	99.8	4	-1E+10	1	-1E+10	1	-1E+10	1	-1E+10	1	-1E+10	1	-1E+10	1
4902551	68	C	06/29/2022	12:03	-131.982	49.087	0	35.90	0	10.6740	0	32.2750	0	24.712	0	35.592	0	275.6	4	99.9	4	-1E+10	1	-1E+10	1	-1E+10	1	-1E+10	1	-1E+10	1	-1E+10	1
4902551	68	C	06/29/2022	12:03	-131.982	49.087	0	37.00	0	10.4060	0	32.2840	0	24.765	0	36.683	0	276.8	4	99.7	4	-1E+10	1	-1E+10	1	-1E+10	1	-1E+10	1	-1E+10	1	-1E+10	1
4902551	68	C	06/29/2022	12:03	-131.982	49.087	0	38.00	0	10.3000	0	32.2680	0	24.770	0	37.674	0	277.0	4	99.6	4	-1E+10	1	-1E+10	1	-1E+10	1	-1E+10	1	-1E+10	1	-1E+10	1
4902551	68	C	06/29/2022	12:03	-131.982	49.087	0	39.00	0	10.2560	0	32.2630	0	24.774	0	38.665	0	277.1	4	99.5	4	-1E+10	1	-1E+10	1	-1E+10	1	-1E+10	1	-1E+10	1	-1E+10	1
4902551	68	C	06/29/2022	12:03	-131.982	49.087	0	40.10	0	10.1740	0	32.2660	0	24.790	0	39.756	0	277.3	4	99.4	4	-1E+10	1	-1E+10	1	-1E+10	1	-1E+10	1	-1E+10	1	-1E+10	1
4902551	68	C	06/29/2022	12:03	-131.982	49.087	0	41.00	0	10.1530	0	32.2650	0	24.793	0	40.648	0	277.3	4	99.3	4	-1E+10	1	-1E+10	1	-1E+10	1	-1E+10	1	-1E+10	1	-1E+10	1
4902551	68	C	06/29/2022	12:03	-131.982	49.087	0	42.00	0	10.0980	0	32.2670	0	24.803	0	41.639	0	277.2	4	99.2	4	-1E+10	1	-1E+10	1	-1E+10	1	-1E+10	1	-1E+10	1	-1E+10	1
4902551	68	C	06/29/2022	12:03	-131.982	49.087	0	43.00	0	10.0310	0	32.2680	0	24.815	0	42.630	0	277.4	4	99.1	4	-1E+10	1	-1E+10	1	-1E+10	1	-1E+10	1	-1E+10	1	-1E+10	1
4902551	68	C	06/29/2022	12:03	-131.982	49.087	0	44.00	0	9.9620	0	32.2700	0	24.828	0	43.622	0	277.4	4	99.0	4	-1E+10	1	-1E+10	1	-1E+10	1	-1E+10	1	-1E+10	1	-1E+10	1
4902551	68	C	06/29/2022	12:03	-131.982	49.087	0	45.10	0	9.9010	0	32.2760	0	24.843	0	44.712	0	277.2	4	98.8	4	-1E+10	1	-1E+10	1	-1E+10	1	-1E+10	1	-1E+10	1	-1E+10	1
4902551	68	C	06/29/2022	12:03	-131.982	49.087	0	45.90	0	9.8390	0	32.2740	0	24.852	0	45.505	0	277.3	4	98.7	4	-1E+10	1	-1E+10	1	-1E+10	1	-1E+10	1	-1E+10	1	-1E+10	1
4902551	68	C	06/29/2022	12:03	-131.982	49.087	0	47.00	0	9.7480	0	32.2800	0	24.871	0	46.596	0	277.3	4	98.5	4	-1E+10	1	-1E+10	1	-1E+10	1	-1E+10	1	-1E+10	1	-1E+10	1
4902551	68	C	06/29/2022	12:03	-131.982	49.087	0	48.20	0	9.6920	0	32.2720	0	24.874	0	47.785	0	277.2	4	98.3	4	-1E+10	1	-1E+10	1	-1E+10	1	-1E+10	1	-1E+10	1	-1E+10	1
4902551	68	C	06/29/2022	12:03	-131.982	49.087	0	48.90	0	9.6130	0	32.2780	0	24.892	0	48.479	0	277.3	4	98.2	4	-1E+10	1	-1E+10	1	-1E+10	1	-1E+10	1	-1E+10	1	-1E+10	1
4902551	68	C	06/29/2022	12:03	-131.982	49.087	0	50.10	0	9.5110	0	32.2830	0	24.912	0	49.669	0	277.7	4	98.1	4	-1E+10	1	-1E+10	1	-1E+10	1	-1E+10	1	-1E+10	1	-1E+10	1
4902551	68	C	06/29/2022	12:03	-131.982	49.087	0	50.70	0	9.2980	0	32.3340	0	24.986	0	50.263	0	277.7	4	97.7	4	-1E+10	1	-1E+10	1	-1E+10	1	-1E+10	1	-1E+10	1	-1E+10	1
4902551	68	C	06/29/2022	12:03	-131.982	49.087	0	51.70	0	9.1050	0	32.2910	0	24.982	0	51.255	0	278.1	4	97.4	4	-1E+10	1	-1E+10	1	-1E+10	1	-1E+10	1	-1E+10	1	-1E+10	1
4902551	68	C	06/29/2022	12:03	-131.982	49.087	0	52.70	0	9.0280	0	32.3070	0	25.007	0	52.246	0	277.9	4	97.2	4	-1E+10	1	-1E+10	1	-1E+10	1	-1E+10	1	-1E+10	1	-1E+10	1
4902551	68	C	06/29/2022	12:03	-131.982	49.087	0	53.90	0	8.8750	0	32.3230	0	25.043	0	53.435	0	277.9	4	96.9	4	-1E+10	1	-1E+10	1	-1E+10	1	-1E+10	1	-1E+10	1	-1E+10	1
4902551	68	C	06/29/2022	12:03	-131.982	49.087	0	55.00	0	8.7310	0	32.3020	0	25.048	0	54.526	0	278.0	4	96.6	4	-1E+10	1	-1E+10	1	-1E+10	1	-1E+10	1	-1E+10	1	-1E+10	1
4902551	68	C	06/29/2022	12:03	-131.982	49.087	0	55.90	0	8.6850	0	32.3170	0	25.067	0	55.418	0	277.7	4	96.4	4	-1E+10	1	-1E+10	1	-1E+10	1	-1E+10	1	-1E+10	1	-1E+10	1
4902551	68	C	06/29/2022	12:03	-131.982	49.087	0	56.80	0	8.6130	0	32.3040	0	25.068	0	56.310	0	277.8	4	96.2	4	-1E+10	1	-1E+10	1	-1E+10	1	-1E+10	1	-1E+10	1	-1E+10	1
4902551	68	C	06/29/2022	12:03	-131.982	49.087	0	58.00	0	8.5870	0	32.3060	0	25.073	0	57.499	0	277.4	4	96.1	4	-1E+10	1	-1E+10	1	-1E+10	1	-1E+10	1	-1E+10	1	-1E+10	1
4902551	68	C	06/29/2022	12:03	-131.982	49.087	0	59.10	0	8.5590	0	32.3010	0	25.074	0	58.590	0	277.2	4	95.9	4	-1E+10	1	-1E+10	1	-1E+10	1	-1E+10	1	-1E+10	1	-1E+10	1
4902551	68	C	06/29/2022	12:03	-131.982	49.087	0	60.00	0	8.5470	0	32.3020	0	25.076	0	59.482	0	276.8	4	95.8	4	-1E+10	1	-1E+10	1	-1E+10	1	-1E+10	1	-1E+10	1	-1E+10	1
4902551	68	C	06/29/2022	12:03	-131.982	49.087	0	60.90	0	8.5390	0	32.2990	0	25.075	0	60.374	0	276.4	4	95.6	4	-1E+10	1	-1E+10	1	-1E+10	1	-1E+10	1	-1E+10	1	-1E+10	1
4902551	68	C	06/29/2022	12:03	-131.982	49.087	0	62.00	0	8.5310	0	32.2990	0	25.076	0	61.464	0	275.8	4	95.4	4	-1E+10	1	-1E+10	1	-1E+10	1	-1E+10	1	-1E+10	1	-1E+10	1
4902551	68	C	06/29/2022	12:03	-131.982	49.087	0	63.10	0	8.5090	0	32.2950	0	25.077	0	62.555	0	275.1	4	95.1	4	-1E+10	1	-1E+10	1	-1E+10	1	-1E+10	1	-1E+10	1	-1E+10	1
4902551	68	C	06/29/2022	12:03	-131.982	49.087	0	63.90	0	8.4310	0	32.3320	0	25.117	0	63.348	0	274.6	4	94.8	4	-1E+10	1	-1E+10	1	-1E+10	1	-1E+10	1	-1E+10	1	-1E+10	1
4902551	68	C	06/29/2022	12:03	-131.982	49.087	0	64.70	0	8.2780	0	32.3210	0	25.131	0	64.141	0	274.4	4	94.4	4	-1E+10	1	-1E+10	1	-1E+10	1	-1E+10	1	-1E+10	1	-1E+10	1
4902551	68	C	06/29/2022	12:03	-131.982	49.087	0	65.80	0	8.1900	0	32.3170	0	25.141	0	65.231	0	274.0	4	94.0	4	-1E+10	1	-1E+10	1	-1E+10	1	-1E+10	1	-1E+10	1	-1E+10	1
4902551	68	C	06/29/2022	12:03	-131.982	49.087	0	66.90	0	8.0950	0	32.3170	0	25.155	0	66.321	0	273.4	4	93.7	4	-1E+10	1	-1E+10	1	-1E+10	1	-1E+10	1	-1E+10	1	-1E+10	1
4902551	68	C	06/29/2022	12:03	-131.982	49.087	0	68.10	0	8.0170	0	32.3190	0	25.168	0	67.511	0	272.8	4	93.3	4	-1E+10	1	-1E+10	1	-1E+10	1	-1E+10	1	-1E+10	1	-1E+10	1
4902551	68	C	06/29/2022	12:03	-131.982	49.087	0	68.90	0	7.9650	0	32.3180	0	25.174	0	68.304	0	272.4	4	93.0	4	-1E+10	1	-1E+10	1	-1E+10	1	-1E+10	1	-1E+10	1	-1E+10	1
4902551	68	C	06/29/2022	12:03	-131.982	49.087	0	69.80	0	7.9340	0	32.3200	0	25.180	0	69.196	0	272.0	4	92.8	4	-1E+10	1	-1E+10	1	-1E+10	1	-1E+10	1	-1E+10	1	-1E+10	1
4902551	68	C	06/29/2022	12:03	-131.982	49.087	0	70.90	0	7.8160	0	32.3410	0	25.214	0	70.286	0	271.6	4	92.5	4	-1E+10	1	-1E+10	1	-1E+10	1	-1E+10	1	-1E+10	1	-1E+10	1
4902551	68	C	06/29/2022	12:03	-131.982	49.087	0	72.10	0	7.6980	0	32.3380	0	25.228	0	71.475	0	271.6	4	92.2	4	-1E+10	1	-1E+10	1	-1E+10	1	-1E+10	1	-1E+10	1	-1E+10	1
4902551	68	C	06/29/2022	12:03	-131.982	49.087	0	73.00	0	7.6450	0	32.3430	0	25.239	0	72.367	0	271.4	4	92.0	4	-1E+10	1	-1E+10	1	-1E+10	1	-1E+10	1	-1E+10	1	-1E+10	1
4902551	68	C	06/29/2022	12:03	-131.982	49.087	0	73.90	0	7.6260	0	32.3540	0	25.251	0	73.259	0	270.9	4	91.8	4	-1E+10	1	-1E+10	1	-1E+10	1	-1E+10	1	-1E+10	1	-1E+10	1
4902551	68	C	06/29/2022	12:03	-131.982	49.087	0	75.10	0	7.5670	0	32.3640	0	25.267	0	74.449	0	270.3	4	91.5	4	-1E+10	1	-1E+10	1	-1E+10	1	-1E+10	1	-1E+10	1	-1E+10	1
4902551	68	C	06/29/2022	12:03	-131.982	49.087	0	76.10	0	7.5450	0	32.3630	0	25.269	0	75.440	0	269.9	4	91.3	4	-1E+10	1	-1E+10	1	-1E+10	1	-1E+10	1	-1E+10	1	-1E+10	1
4902551	68	C	06/29/2022	12:03	-131.982	49.087	0	76.90	0	7.5250	0	32.3660	0	25.274	0	76.233	0	269.7	4	91.2	4	-1E+10	1	-1E+10	1	-1E+10	1	-1E+10	1	-1E+10	1	-1E+10	1
4902551	68	C	06/29/2022	12:03	-131.982	49.087	0	78.00	0	7.4630	0	32.3780	0	25.292	0	77.323	0	269.3	4	91.0	4	-1E+10	1	-1E+10	1	-1E+10	1	-1E+10	1	-1E+10	1	-1E+10	1
4902551	68	C	06/29/2022	12:03	-131.982	49.087	0	79.10	0	7.3660	0	32.3910	0	25.316	0	78.413	0	268.2	4	90.4	4	-1E+10	1	-1E+10	1	-1E+10	1	-1E+10	1	-1E+10	1	-1E+10	1
4902551	68	C	06/29/2022	12:03	-131.982	49.087	0	80.00	0	7.3420	0	32.3830	0	25.313	0	79.305	0	267.0	4	89.9	4	-1E+10	1	-1E+10	1	-1E+10	1	-1E+10	1	-1E+10	1	-1E+10	1
4902551	68	C	06/29/2022	12:03	-131.982	49.087	0	81.00	0	7.2900	0	32.3940	0	25.329	0	80.297	0	266.0	4	89.5	4	-1E+10	1	-1E+10	1	-1E+10	1	-1E+10	1	-1E+10	1	-1E+10	1
4902551	68	C	06/29/2022	12:03	-131.982	49.087	0	82.00	0	7.1910	0	32.4060	0	25.351	0	81.288	0	264.8	4	88.9	4	-1E+10	1	-1E+10	1	-1E+10	1	-1E+10	1	-1E+10	1	-1E+10	1
4902551	68	C	06/29/2022	12:03	-131.982	49.087	0	83.00	0	7.1290	0	32.3970	0	25.353	0	82.279	0	269.5	4	90.4	4	-1E+10	1	-1E+10	1	-1E+10	1	-1E+10	1	-1E+10	1	-1E+10	1
4902551	68	C	06/29/2022	12:03	-131.982	49.087	0	84.10	0	7.1120	0	32.4010	0	25.358	0	83.369	0	266.9	4	89.5	4	-1E+10	1	-1E+10	1	-1E+10	1	-1E+10	1	-1E+10	1	-1E+10	1
4902551	68	C	06/29/2022	12:03	-131.982	49.087	0	84.80	0	7.1000	0	32.4010	0	25.360	0	84.063	0	265.0	4	88.8	4	-1E+10	1	-1E+10	1	-1E+10	1	-1E+10	1	-1E+10	1	-1E+10	1
4902551	68	C	06/29/2022	12:03	-131.982	49.087	0	85.80	0	7.0640	0	32.4090	0	25.371	0	85.054	0	261.6	4	87.6	4	-1E+10	1	-1E+10	1	-1E+10	1	-1E+10	1	-1E+10	1	-1E+10	1
4902551	68	C	06/29/2022	12:03	-131.982	49.087	0	86.80	0	7.0360	0	32.4170	0	25.381	0	86.045	0	257.5	4	86.2	4	-1E+10	1	-1E+10	1	-1E+10	1	-1E+10	1	-1E+10	1	-1E+10	1
4902551	68	C	06/29/2022	12:03	-131.982	49.087	0	87.90	0	7.0940	0	32.4590	0	25.406	0	87.135	0	253.0	4	84.8	4	-1E+10	1	-1E+10	1	-1E+10	1	-1E+10	1	-1E+10	1	-1E+10	1
4902551	68	C	06/29/2022	12:03	-131.982	49.087	0	89.10	0	7.1190	0	32.5340	0	25.462	0	88.324	0	249.7	4	83.8	4	-1E+10	1	-1E+10	1	-1E+10	1	-1E+10	1	-1E+10	1	-1E+10	1
4902551	68	C	06/29/2022	12:03	-131.982	49.087	0	90.10	0	6.9140	0	32.5180	0	25.477	0	89.316	0	246.8	4	82.4	4	-1E+10	1	-1E+10	1	-1E+10	1	-1E+10	1	-1E+10	1	-1E+10	1
4902551	68	C	06/29/2022	12:03	-131.982	49.087	0	91.20	0	6.9250	0	32.5730	0	25.519	0	90.406	0	243.8	4	81.5	4	-1E+10	1	-1E+10	1	-1E+10	1	-1E+10	1	-1E+10	1	-1E+10	1
4902551	68	C	06/29/2022	12:03	-131.982	49.087	0	92.10	0	6.9390	0	32.6130	0	25.548	0	91.298	0	241.7	4	80.8	4	-1E+10	1	-1E+10	1	-1E+10	1	-1E+10	1	-1E+10	1	-1E+10	1
4902551	68	C	06/29/2022	12:03	-131.982	49.087	0	93.00	0	6.9350	0	32.6310	0	25.563	0	92.190	0	239.3	4	80.0	4	-1E+10	1	-1E+10	1	-1E+10	1	-1E+10	1	-1E+10	1	-1E+10	1
4902551	68	C	06/29/2022	12:03	-131.982	49.087	0	93.90	0	6.9060	0	32.6440	0	25.577	0	93.082	0	237.1	4	79.2	4	-1E+10	1	-1E+10	1	-1E+10	1	-1E+10	1	-1E+10	1	-1E+10	1
4902551	68	C	06/29/2022	12:03	-131.982	49.087	0	94.90	0	6.8600	0	32.6680	0	25.602	0	94.073	0	234.8	4	78.4	4	-1E+10	1	-1E+10	1	-1E+10	1	-1E+10	1	-1E+10	1	-1E+10	1
4902551	68	C	06/29/2022	12:03	-131.982	49.087	0	96.10	0	6.7920	0	32.6880	0	25.627	0	95.262	0	232.1	4	77.4	4	-1E+10	1	-1E+10	1	-1E+10	1	-1E+10	1	-1E+10	1	-1E+10	1
4902551	68	C	06/29/2022	12:03	-131.982	49.087	0	97.00	0	6.8050	0	32.7040	0	25.638	0	96.154	0	230.3	4	76.8	4	-1E+10	1	-1E+10	1	-1E+10	1	-1E+10	1	-1E+10	1	-1E+10	1
4902551	68	C	06/29/2022	12:03	-131.982	49.087	0	97.90	0	6.7990	0	32.7210	0	25.652	0	97.046	0	228.3	4	76.2	4	-1E+10	1	-1E+10	1	-1E+10	1	-1E+10	1	-1E+10	1	-1E+10	1
4902551	68	C	06/29/2022	12:03	-131.982	49.087	0	99.40	0	6.7620	0	32.7500	0	25.680	0	98.532	0	225.1	4	75.0	4	-1E+10	1	-1E+10	1	-1E+10	1	-1E+10	1	-1E+10	1	-1E+10	1
4902551	68	C	06/29/2022	12:03	-131.982	49.087	0	100.10	0	6.7570	0	32.7520	0	25.682	0	99.226	0	223.6	4	74.5	4	-1E+10	1	-1E+10	1	-1E+10	1	-1E+10	1	-1E+10	1	-1E+10	1
4902551	68	C	06/29/2022	12:03	-131.982	49.087	0	100.90	0	6.7510	0	32.7580	0	25.687	0	100.019	0	221.8	4	73.9	4	-1E+10	1	-1E+10	1	-1E+10	1	-1E+10	1	-1E+10	1	-1E+10	1
4902551	68	C	06/29/2022	12:03	-131.982	49.087	0	101.80	0	6.7260	0	32.7960	0	25.721	0	100.911	0	219.9	4	73.3	4	-1E+10	1	-1E+10	1	-1E+10	1	-1E+10	1	-1E+10	1	-1E+10	1
4902551	68	C	06/29/2022	12:03	-131.982	49.087	0	103.00	0	6.7210	0	32.8680	0	25.778	0	102.100	0	217.8	4	72.6	4	-1E+10	1	-1E+10	1	-1E+10	1	-1E+10	1	-1E+10	1	-1E+10	1
4902551	68	C	06/29/2022	12:03	-131.982	49.087	0	104.10	0	6.7270	0	32.9450	0	25.838	0	103.190	0	216.5	4	72.2	4	-1E+10	1	-1E+10	1	-1E+10	1	-1E+10	1	-1E+10	1	-1E+10	1
4902551	68	C	06/29/2022	12:03	-131.982	49.087	0	105.00	0	6.6980	0	32.9460	0	25.842	0	104.082	0	215.6	4	71.9	4	-1E+10	1	-1E+10	1	-1E+10	1	-1E+10	1	-1E+10	1	-1E+10	1
4902551	68	C	06/29/2022	12:03	-131.982	49.087	0	105.80	0	6.6640	0	32.9630	0	25.860	0	104.875	0	214.5	4	71.5	4	-1E+10	1	-1E+10	1	-1E+10	1	-1E+10	1	-1E+10	1	-1E+10	1
4902551	68	C	06/29/2022	12:03	-131.982	49.087	0	107.10	0	6.6520	0	32.9700	0	25.867	0	106.163	0	212.0	4	70.6	4	-1E+10	1	-1E+10	1	-1E+10	1	-1E+10	1	-1E+10	1	-1E+10	1
4902551	68	C	06/29/2022	12:03	-131.982	49.087	0	108.00	0	6.6400	0	33.0120	0	25.902	0	107.055	0	209.2	4	69.7	4	-1E+10	1	-1E+10	1	-1E+10	1	-1E+10	1	-1E+10	1	-1E+10	1
4902551	68	C	06/29/2022	12:03	-131.982	49.087	0	109.00	0	6.6310	0	33.0590	0	25.940	0	108.046	0	205.2	4	68.4	4	-1E+10	1	-1E+10	1	-1E+10	1	-1E+10	1	-1E+10	1	-1E+10	1
4902551	68	C	06/29/2022	12:03	-131.982	49.087	0	109.80	0	6.6290	0	33.0750	0	25.953	0	108.839	0	200.2	4	66.7	4	-1E+10	1	-1E+10	1	-1E+10	1	-1E+10	1	-1E+10	1	-1E+10	1
4902551	68	C	06/29/2022	12:03	-131.982	49.087	0	110.90	0	6.6290	0	33.0930	0	25.967	0	109.929	0	192.9	4	64.3	4	-1E+10	1	-1E+10	1	-1E+10	1	-1E+10	1	-1E+10	1	-1E+10	1
4902551	68	C	06/29/2022	12:03	-131.982	49.087	0	112.00	0	6.6520	0	33.1320	0	25.995	0	111.019	0	184.8	4	61.6	4	-1E+10	1	-1E+10	1	-1E+10	1	-1E+10	1	-1E+10	1	-1E+10	1
4902551	68	C	06/29/2022	12:03	-131.982	49.087	0	113.30	0	6.7100	0	33.2410	0	26.074	0	112.307	0	179.9	4	60.1	4	-1E+10	1	-1E+10	1	-1E+10	1	-1E+10	1	-1E+10	1	-1E+10	1
4902551	68	C	06/29/2022	12:03	-131.982	49.087	0	114.00	0	6.7480	0	33.3250	0	26.135	0	113.001	0	178.0	4	59.6	4	-1E+10	1	-1E+10	1	-1E+10	1	-1E+10	1	-1E+10	1	-1E+10	1
4902551	68	C	06/29/2022	12:03	-131.982	49.087	0	115.10	0	6.7620	0	33.3980	0	26.190	0	114.091	0	175.5	4	58.8	4	-1E+10	1	-1E+10	1	-1E+10	1	-1E+10	1	-1E+10	1	-1E+10	1
4902551	68	C	06/29/2022	12:03	-131.982	49.087	0	116.00	0	6.7890	0	33.4610	0	26.236	0	114.983	0	174.5	4	58.5	4	-1E+10	1	-1E+10	1	-1E+10	1	-1E+10	1	-1E+10	1	-1E+10	1
4902551	68	C	06/29/2022	12:03	-131.982	49.087	0	116.90	0	6.7920	0	33.4800	0	26.251	0	115.875	0	173.8	4	58.3	4	-1E+10	1	-1E+10	1	-1E+10	1	-1E+10	1	-1E+10	1	-1E+10	1
4902551	68	C	06/29/2022	12:03	-131.982	49.087	0	118.00	0	6.7930	0	33.4800	0	26.251	0	116.965	0	172.8	4	57.9	4	-1E+10	1	-1E+10	1	-1E+10	1	-1E+10	1	-1E+10	1	-1E+10	1
4902551	68	C	06/29/2022	12:03	-131.982	49.087	0	118.90	0	6.7990	0	33.4950	0	26.262	0	117.857	0	171.9	4	57.7	4	-1E+10	1	-1E+10	1	-1E+10	1	-1E+10	1	-1E+10	1	-1E+10	1
4902551	68	C	06/29/2022	12:03	-131.982	49.087	0	119.80	0	6.7920	0	33.5000	0	26.267	0	118.748	0	171.0	4	57.4	4	-1E+10	1	-1E+10	1	-1E+10	1	-1E+10	1	-1E+10	1	-1E+10	1
4902551	68	C	06/29/2022	12:03	-131.982	49.087	0	121.10	0	6.7870	0	33.5230	0	26.286	0	120.037	0	169.9	4	57.0	4	-1E+10	1	-1E+10	1	-1E+10	1	-1E+10	1	-1E+10	1	-1E+10	1
4902551	68	C	06/29/2022	12:03	-131.982	49.087	0	122.00	0	6.7810	0	33.5320	0	26.294	0	120.928	0	169.2	4	56.7	4	-1E+10	1	-1E+10	1	-1E+10	1	-1E+10	1	-1E+10	1	-1E+10	1
4902551	68	C	06/29/2022	12:03	-131.982	49.087	0	123.00	0	6.7530	0	33.5380	0	26.302	0	121.919	0	168.2	4	56.4	4	-1E+10	1	-1E+10	1	-1E+10	1	-1E+10	1	-1E+10	1	-1E+10	1
4902551	68	C	06/29/2022	12:03	-131.982	49.087	0	124.00	0	6.7310	0	33.5420	0	26.308	0	122.910	0	166.8	4	55.9	4	-1E+10	1	-1E+10	1	-1E+10	1	-1E+10	1	-1E+10	1	-1E+10	1
4902551	68	C	06/29/2022	12:03	-131.982	49.087	0	124.90	0	6.7220	0	33.5610	0	26.324	0	123.802	0	164.9	4	55.3	4	-1E+10	1	-1E+10	1	-1E+10	1	-1E+10	1	-1E+10	1	-1E+10	1
4902551	68	C	06/29/2022	12:03	-131.982	49.087	0	126.00	0	6.7300	0	33.5630	0	26.325	0	124.892	0	162.9	4	54.6	4	-1E+10	1	-1E+10	1	-1E+10	1	-1E+10	1	-1E+10	1	-1E+10	1
4902551	68	C	06/29/2022	12:03	-131.982	49.087	0	126.70	0	6.7430	0	33.5950	0	26.348	0	125.586	0	161.9	4	54.3	4	-1E+10	1	-1E+10	1	-1E+10	1	-1E+10	1	-1E+10	1	-1E+10	1
4902551	68	C	06/29/2022	12:03	-131.982	49.087	0	127.80	0	6.7370	0	33.6250	0	26.373	0	126.676	0	161.3	4	54.1	4	-1E+10	1	-1E+10	1	-1E+10	1	-1E+10	1	-1E+10	1	-1E+10	1
4902551	68	C	06/29/2022	12:03	-131.982	49.087	0	129.00	0	6.7360	0	33.6280	0	26.375	0	127.865	0	161.0	4	54.0	4	-1E+10	1	-1E+10	1	-1E+10	1	-1E+10	1	-1E+10	1	-1E+10	1
4902551	68	C	06/29/2022	12:03	-131.982	49.087	0	129.80	0	6.7350	0	33.6300	0	26.377	0	128.658	0	160.9	4	54.0	4	-1E+10	1	-1E+10	1	-1E+10	1	-1E+10	1	-1E+10	1	-1E+10	1
4902551	68	C	06/29/2022	12:03	-131.982	49.087	0	131.00	0	6.7330	0	33.6310	0	26.378	0	129.847	0	160.6	4	53.9	4	-1E+10	1	-1E+10	1	-1E+10	1	-1E+10	1	-1E+10	1	-1E+10	1
4902551	68	C	06/29/2022	12:03	-131.982	49.087	0	132.20	0	6.7280	0	33.6360	0	26.383	0	131.036	0	160.5	4	53.8	4	-1E+10	1	-1E+10	1	-1E+10	1	-1E+10	1	-1E+10	1	-1E+10	1
4902551	68	C	06/29/2022	12:03	-131.982	49.087	0	133.00	0	6.7200	0	33.6420	0	26.389	0	131.828	0	160.5	4	53.8	4	-1E+10	1	-1E+10	1	-1E+10	1	-1E+10	1	-1E+10	1	-1E+10	1
4902551	68	C	06/29/2022	12:03	-131.982	49.087	0	133.80	0	6.7090	0	33.6450	0	26.392	0	132.621	0	160.5	4	53.8	4	-1E+10	1	-1E+10	1	-1E+10	1	-1E+10	1	-1E+10	1	-1E+10	1
4902551	68	C	06/29/2022	12:03	-131.982	49.087	0	134.70	0	6.6980	0	33.6520	0	26.399	0	133.513	0	160.4	4	53.8	4	-1E+10	1	-1E+10	1	-1E+10	1	-1E+10	1	-1E+10	1	-1E+10	1
4902551	68	C	06/29/2022	12:03	-131.982	49.087	0	135.90	0	6.6850	0	33.6550	0	26.403	0	134.702	0	160.1	4	53.6	4	-1E+10	1	-1E+10	1	-1E+10	1	-1E+10	1	-1E+10	1	-1E+10	1
4902551	68	C	06/29/2022	12:03	-131.982	49.087	0	137.10	0	6.6700	0	33.6640	0	26.413	0	135.891	0	159.7	4	53.5	4	-1E+10	1	-1E+10	1	-1E+10	1	-1E+10	1	-1E+10	1	-1E+10	1
4902551	68	C	06/29/2022	12:03	-131.982	49.087	0	138.00	0	6.6660	0	33.6650	0	26.414	0	136.783	0	159.4	4	53.4	4	-1E+10	1	-1E+10	1	-1E+10	1	-1E+10	1	-1E+10	1	-1E+10	1
4902551	68	C	06/29/2022	12:03	-131.982	49.087	0	138.80	0	6.6550	0	33.6720	0	26.421	0	137.575	0	159.0	4	53.2	4	-1E+10	1	-1E+10	1	-1E+10	1	-1E+10	1	-1E+10	1	-1E+10	1
4902551	68	C	06/29/2022	12:03	-131.982	49.087	0	139.70	0	6.6400	0	33.6780	0	26.428	0	138.467	0	158.7	4	53.1	4	-1E+10	1	-1E+10	1	-1E+10	1	-1E+10	1	-1E+10	1	-1E+10	1
4902551	68	C	06/29/2022	12:03	-131.982	49.087	0	140.90	0	6.6310	0	33.6790	0	26.430	0	139.656	0	158.2	4	52.9	4	-1E+10	1	-1E+10	1	-1E+10	1	-1E+10	1	-1E+10	1	-1E+10	1
4902551	68	C	06/29/2022	12:03	-131.982	49.087	0	142.20	0	6.6190	0	33.6830	0	26.434	0	140.944	0	157.6	4	52.7	4	-1E+10	1	-1E+10	1	-1E+10	1	-1E+10	1	-1E+10	1	-1E+10	1
4902551	68	C	06/29/2022	12:03	-131.982	49.087	0	143.10	0	6.6140	0	33.6820	0	26.434	0	141.836	0	157.2	4	52.6	4	-1E+10	1	-1E+10	1	-1E+10	1	-1E+10	1	-1E+10	1	-1E+10	1
4902551	68	C	06/29/2022	12:03	-131.982	49.087	0	143.90	0	6.5890	0	33.6960	0	26.449	0	142.629	0	156.8	4	52.4	4	-1E+10	1	-1E+10	1	-1E+10	1	-1E+10	1	-1E+10	1	-1E+10	1
4902551	68	C	06/29/2022	12:03	-131.982	49.087	0	144.80	0	6.5650	0	33.6830	0	26.441	0	143.520	0	156.5	4	52.3	4	-1E+10	1	-1E+10	1	-1E+10	1	-1E+10	1	-1E+10	1	-1E+10	1
4902551	68	C	06/29/2022	12:03	-131.982	49.087	0	145.60	0	6.5620	0	33.6980	0	26.454	0	144.313	0	156.0	4	52.1	4	-1E+10	1	-1E+10	1	-1E+10	1	-1E+10	1	-1E+10	1	-1E+10	1
4902551	68	C	06/29/2022	12:03	-131.982	49.087	0	146.90	0	6.5430	0	33.7090	0	26.465	0	145.601	0	155.4	4	51.9	4	-1E+10	1	-1E+10	1	-1E+10	1	-1E+10	1	-1E+10	1	-1E+10	1
4902551	68	C	06/29/2022	12:03	-131.982	49.087	0	148.20	0	6.5200	0	33.7070	0	26.466	0	146.889	0	154.7	4	51.7	4	-1E+10	1	-1E+10	1	-1E+10	1	-1E+10	1	-1E+10	1	-1E+10	1
4902551	68	C	06/29/2022	12:03	-131.982	49.087	0	149.10	0	6.5080	0	33.7060	0	26.467	0	147.781	0	154.4	4	51.5	4	-1E+10	1	-1E+10	1	-1E+10	1	-1E+10	1	-1E+10	1	-1E+10	1
4902551	68	C	06/29/2022	12:03	-131.982	49.087	0	150.00	0	6.5170	0	33.6970	0	26.459	0	148.672	0	153.9	4	51.4	4	-1E+10	1	-1E+10	1	-1E+10	1	-1E+10	1	-1E+10	1	-1E+10	1
4902551	68	C	06/29/2022	12:03	-131.982	49.087	0	150.80	0	6.5230	0	33.7290	0	26.483	0	149.465	0	153.3	4	51.2	4	-1E+10	1	-1E+10	1	-1E+10	1	-1E+10	1	-1E+10	1	-1E+10	1
4902551	68	C	06/29/2022	12:03	-131.982	49.087	0	151.70	0	6.5030	0	33.7250	0	26.483	0	150.357	0	153.0	4	51.1	4	-1E+10	1	-1E+10	1	-1E+10	1	-1E+10	1	-1E+10	1	-1E+10	1
4902551	68	C	06/29/2022	12:03	-131.982	49.087	0	152.90	0	6.4990	0	33.7230	0	26.482	0	151.546	0	152.2	4	50.8	4	-1E+10	1	-1E+10	1	-1E+10	1	-1E+10	1	-1E+10	1	-1E+10	1
4902551	68	C	06/29/2022	12:03	-131.982	49.087	0	154.20	0	6.4860	0	33.7350	0	26.493	0	152.834	0	151.4	4	50.5	4	-1E+10	1	-1E+10	1	-1E+10	1	-1E+10	1	-1E+10	1	-1E+10	1
4902551	68	C	06/29/2022	12:03	-131.982	49.087	0	155.10	0	6.4630	0	33.7320	0	26.494	0	153.725	0	150.9	4	50.3	4	-1E+10	1	-1E+10	1	-1E+10	1	-1E+10	1	-1E+10	1	-1E+10	1
4902551	68	C	06/29/2022	12:03	-131.982	49.087	0	155.90	0	6.4470	0	33.7320	0	26.496	0	154.518	0	150.5	4	50.2	4	-1E+10	1	-1E+10	1	-1E+10	1	-1E+10	1	-1E+10	1	-1E+10	1
4902551	68	C	06/29/2022	12:03	-131.982	49.087	0	156.70	0	6.4190	0	33.7380	0	26.504	0	155.311	0	149.9	4	49.9	4	-1E+10	1	-1E+10	1	-1E+10	1	-1E+10	1	-1E+10	1	-1E+10	1
4902551	68	C	06/29/2022	12:03	-131.982	49.087	0	158.00	0	6.3360	0	33.7430	0	26.519	0	156.599	0	149.2	4	49.6	4	-1E+10	1	-1E+10	1	-1E+10	1	-1E+10	1	-1E+10	1	-1E+10	1
4902551	68	C	06/29/2022	12:03	-131.982	49.087	0	159.20	0	6.3180	0	33.7400	0	26.519	0	157.787	0	148.5	4	49.4	4	-1E+10	1	-1E+10	1	-1E+10	1	-1E+10	1	-1E+10	1	-1E+10	1
4902551	68	C	06/29/2022	12:03	-131.982	49.087	0	160.10	0	6.3200	0	33.7430	0	26.521	0	158.679	0	148.1	4	49.2	4	-1E+10	1	-1E+10	1	-1E+10	1	-1E+10	1	-1E+10	1	-1E+10	1
4902551	68	C	06/29/2022	12:03	-131.982	49.087	0	160.90	0	6.3190	0	33.7470	0	26.524	0	159.472	0	147.8	4	49.1	4	-1E+10	1	-1E+10	1	-1E+10	1	-1E+10	1	-1E+10	1	-1E+10	1
4902551	68	C	06/29/2022	12:03	-131.982	49.087	0	161.80	0	6.3190	0	33.7480	0	26.525	0	160.363	0	147.5	4	49.0	4	-1E+10	1	-1E+10	1	-1E+10	1	-1E+10	1	-1E+10	1	-1E+10	1
4902551	68	C	06/29/2022	12:03	-131.982	49.087	0	163.00	0	6.3180	0	33.7500	0	26.527	0	161.552	0	147.0	4	48.9	4	-1E+10	1	-1E+10	1	-1E+10	1	-1E+10	1	-1E+10	1	-1E+10	1
4902551	68	C	06/29/2022	12:03	-131.982	49.087	0	164.30	0	6.3170	0	33.7500	0	26.527	0	162.840	0	146.5	4	48.7	4	-1E+10	1	-1E+10	1	-1E+10	1	-1E+10	1	-1E+10	1	-1E+10	1
4902551	68	C	06/29/2022	12:03	-131.982	49.087	0	165.10	0	6.3150	0	33.7520	0	26.529	0	163.633	0	146.2	4	48.6	4	-1E+10	1	-1E+10	1	-1E+10	1	-1E+10	1	-1E+10	1	-1E+10	1
4902551	68	C	06/29/2022	12:03	-131.982	49.087	0	166.00	0	6.3090	0	33.7540	0	26.531	0	164.524	0	145.9	4	48.5	4	-1E+10	1	-1E+10	1	-1E+10	1	-1E+10	1	-1E+10	1	-1E+10	1
4902551	68	C	06/29/2022	12:03	-131.982	49.087	0	166.80	0	6.3030	0	33.7560	0	26.533	0	165.317	0	145.4	4	48.3	4	-1E+10	1	-1E+10	1	-1E+10	1	-1E+10	1	-1E+10	1	-1E+10	1
4902551	68	C	06/29/2022	12:03	-131.982	49.087	0	167.70	0	6.2880	0	33.7570	0	26.536	0	166.209	0	145.1	4	48.2	4	-1E+10	1	-1E+10	1	-1E+10	1	-1E+10	1	-1E+10	1	-1E+10	1
4902551	68	C	06/29/2022	12:03	-131.982	49.087	0	168.60	0	6.2740	0	33.7560	0	26.537	0	167.100	0	144.7	4	48.1	4	-1E+10	1	-1E+10	1	-1E+10	1	-1E+10	1	-1E+10	1	-1E+10	1
4902551	68	C	06/29/2022	12:03	-131.982	49.087	0	169.90	0	6.2530	0	33.7620	0	26.544	0	168.388	0	144.1	4	47.8	4	-1E+10	1	-1E+10	1	-1E+10	1	-1E+10	1	-1E+10	1	-1E+10	1
4902551	68	C	06/29/2022	12:03	-131.982	49.087	0	171.20	0	6.2080	0	33.7530	0	26.543	0	169.676	0	143.4	4	47.6	4	-1E+10	1	-1E+10	1	-1E+10	1	-1E+10	1	-1E+10	1	-1E+10	1
4902551	68	C	06/29/2022	12:03	-131.982	49.087	0	172.10	0	6.2110	0	33.7530	0	26.543	0	170.568	0	142.9	4	47.4	4	-1E+10	1	-1E+10	1	-1E+10	1	-1E+10	1	-1E+10	1	-1E+10	1
4902551	68	C	06/29/2022	12:03	-131.982	49.087	0	173.00	0	6.2130	0	33.7560	0	26.545	0	171.459	0	142.2	4	47.2	4	-1E+10	1	-1E+10	1	-1E+10	1	-1E+10	1	-1E+10	1	-1E+10	1
4902551	68	C	06/29/2022	12:03	-131.982	49.087	0	173.90	0	6.2150	0	33.7540	0	26.543	0	172.351	0	141.7	4	47.0	4	-1E+10	1	-1E+10	1	-1E+10	1	-1E+10	1	-1E+10	1	-1E+10	1
4902551	68	C	06/29/2022	12:03	-131.982	49.087	0	174.80	0	6.2170	0	33.7640	0	26.551	0	173.243	0	141.0	4	46.8	4	-1E+10	1	-1E+10	1	-1E+10	1	-1E+10	1	-1E+10	1	-1E+10	1
4902551	68	C	06/29/2022	12:03	-131.982	49.087	0	175.70	0	6.1990	0	33.7600	0	26.550	0	174.134	0	140.3	4	46.5	4	-1E+10	1	-1E+10	1	-1E+10	1	-1E+10	1	-1E+10	1	-1E+10	1
4902551	68	C	06/29/2022	12:03	-131.982	49.087	0	176.60	0	6.1860	0	33.7630	0	26.554	0	175.026	0	139.5	4	46.2	4	-1E+10	1	-1E+10	1	-1E+10	1	-1E+10	1	-1E+10	1	-1E+10	1
4902551	68	C	06/29/2022	12:03	-131.982	49.087	0	177.90	0	6.1410	0	33.7670	0	26.563	0	176.314	0	137.9	4	45.7	4	-1E+10	1	-1E+10	1	-1E+10	1	-1E+10	1	-1E+10	1	-1E+10	1
4902551	68	C	06/29/2022	12:03	-131.982	49.087	0	179.30	0	6.1310	0	33.7580	0	26.557	0	177.701	0	136.0	4	45.0	4	-1E+10	1	-1E+10	1	-1E+10	1	-1E+10	1	-1E+10	1	-1E+10	1
4902551	68	C	06/29/2022	12:03	-131.982	49.087	0	180.30	0	6.1280	0	33.7590	0	26.558	0	178.691	0	134.6	4	44.5	4	-1E+10	1	-1E+10	1	-1E+10	1	-1E+10	1	-1E+10	1	-1E+10	1
4902551	68	C	06/29/2022	12:03	-131.982	49.087	0	181.20	0	6.1260	0	33.7590	0	26.558	0	179.583	0	132.9	4	44.0	4	-1E+10	1	-1E+10	1	-1E+10	1	-1E+10	1	-1E+10	1	-1E+10	1
4902551	68	C	06/29/2022	12:03	-131.982	49.087	0	182.10	0	6.1670	0	33.7330	0	26.533	0	180.474	0	131.3	4	43.5	4	-1E+10	1	-1E+10	1	-1E+10	1	-1E+10	1	-1E+10	1	-1E+10	1
4902551	68	C	06/29/2022	12:03	-131.982	49.087	0	183.10	0	6.2570	0	33.7850	0	26.562	0	181.465	0	130.0	4	43.2	4	-1E+10	1	-1E+10	1	-1E+10	1	-1E+10	1	-1E+10	1	-1E+10	1
4902551	68	C	06/29/2022	12:03	-131.982	49.087	0	184.00	0	6.2140	0	33.8260	0	26.600	0	182.357	0	129.1	4	42.8	4	-1E+10	1	-1E+10	1	-1E+10	1	-1E+10	1	-1E+10	1	-1E+10	1
4902551	68	C	06/29/2022	12:03	-131.982	49.087	0	185.00	0	6.1740	0	33.7900	0	26.577	0	183.347	0	128.2	4	42.5	4	-1E+10	1	-1E+10	1	-1E+10	1	-1E+10	1	-1E+10	1	-1E+10	1
4902551	68	C	06/29/2022	12:03	-131.982	49.087	0	185.90	0	6.1580	0	33.7870	0	26.576	0	184.239	0	127.1	4	42.1	4	-1E+10	1	-1E+10	1	-1E+10	1	-1E+10	1	-1E+10	1	-1E+10	1
4902551	68	C	06/29/2022	12:03	-131.982	49.087	0	186.90	0	6.1790	0	33.8010	0	26.585	0	185.229	0	126.2	4	41.8	4	-1E+10	1	-1E+10	1	-1E+10	1	-1E+10	1	-1E+10	1	-1E+10	1
4902551	68	C	06/29/2022	12:03	-131.982	49.087	0	187.80	0	6.2040	0	33.8010	0	26.582	0	186.121	0	125.4	4	41.6	4	-1E+10	1	-1E+10	1	-1E+10	1	-1E+10	1	-1E+10	1	-1E+10	1
4902551	68	C	06/29/2022	12:03	-131.982	49.087	0	188.80	0	6.2020	0	33.8140	0	26.592	0	187.111	0	124.6	4	41.3	4	-1E+10	1	-1E+10	1	-1E+10	1	-1E+10	1	-1E+10	1	-1E+10	1
4902551	68	C	06/29/2022	12:03	-131.982	49.087	0	189.80	0	6.1990	0	33.8080	0	26.588	0	188.102	0	123.8	4	41.1	4	-1E+10	1	-1E+10	1	-1E+10	1	-1E+10	1	-1E+10	1	-1E+10	1
4902551	68	C	06/29/2022	12:03	-131.982	49.087	0	190.70	0	6.2040	0	33.8040	0	26.584	0	188.994	0	123.0	4	40.8	4	-1E+10	1	-1E+10	1	-1E+10	1	-1E+10	1	-1E+10	1	-1E+10	1
4902551	68	C	06/29/2022	12:03	-131.982	49.087	0	191.70	0	6.2150	0	33.8100	0	26.587	0	189.984	0	122.4	4	40.6	4	-1E+10	1	-1E+10	1	-1E+10	1	-1E+10	1	-1E+10	1	-1E+10	1
4902551	68	C	06/29/2022	12:03	-131.982	49.087	0	192.70	0	6.2160	0	33.8180	0	26.594	0	190.975	0	121.7	4	40.4	4	-1E+10	1	-1E+10	1	-1E+10	1	-1E+10	1	-1E+10	1	-1E+10	1
4902551	68	C	06/29/2022	12:03	-131.982	49.087	0	193.70	0	6.2130	0	33.8270	0	26.601	0	191.965	0	121.3	4	40.2	4	-1E+10	1	-1E+10	1	-1E+10	1	-1E+10	1	-1E+10	1	-1E+10	1
4902551	68	C	06/29/2022	12:03	-131.982	49.087	0	194.70	0	6.1940	0	33.8270	0	26.604	0	192.956	0	120.8	4	40.1	4	-1E+10	1	-1E+10	1	-1E+10	1	-1E+10	1	-1E+10	1	-1E+10	1
4902551	68	C	06/29/2022	12:03	-131.982	49.087	0	195.70	0	6.1880	0	33.8230	0	26.601	0	193.947	0	120.3	4	39.9	4	-1E+10	1	-1E+10	1	-1E+10	1	-1E+10	1	-1E+10	1	-1E+10	1
4902551	68	C	06/29/2022	12:03	-131.982	49.087	0	196.60	0	6.1520	0	33.8430	0	26.622	0	194.838	0	119.5	4	39.6	4	-1E+10	1	-1E+10	1	-1E+10	1	-1E+10	1	-1E+10	1	-1E+10	1
4902551	68	C	06/29/2022	12:03	-131.982	49.087	0	197.60	0	6.0790	0	33.8250	0	26.617	0	195.829	0	118.6	4	39.2	4	-1E+10	1	-1E+10	1	-1E+10	1	-1E+10	1	-1E+10	1	-1E+10	1
4902551	68	C	06/29/2022	12:03	-131.982	49.087	0	198.60	0	6.0730	0	33.8130	0	26.608	0	196.819	0	117.5	4	38.9	4	-1E+10	1	-1E+10	1	-1E+10	1	-1E+10	1	-1E+10	1	-1E+10	1
4902551	68	C	06/29/2022	12:03	-131.982	49.087	0	199.60	0	6.0870	0	33.8180	0	26.610	0	197.810	0	116.4	4	38.5	4	-1E+10	1	-1E+10	1	-1E+10	1	-1E+10	1	-1E+10	1	-1E+10	1
4902551	68	C	06/29/2022	12:03	-131.982	49.087	0	200.70	0	6.0890	0	33.8230	0	26.614	0	198.899	0	115.3	4	38.1	4	-1E+10	1	-1E+10	1	-1E+10	1	-1E+10	1	-1E+10	1	-1E+10	1
4902551	68	C	06/29/2022	12:03	-131.982	49.087	0	201.70	0	6.0890	0	33.8230	0	26.614	0	199.890	0	114.2	4	37.8	4	-1E+10	1	-1E+10	1	-1E+10	1	-1E+10	1	-1E+10	1	-1E+10	1
4902551	68	C	06/29/2022	12:03	-131.982	49.087	0	202.70	0	6.0930	0	33.8210	0	26.612	0	200.880	0	113.0	4	37.4	4	-1E+10	1	-1E+10	1	-1E+10	1	-1E+10	1	-1E+10	1	-1E+10	1
4902551	68	C	06/29/2022	12:03	-131.982	49.087	0	203.70	0	6.1080	0	33.8240	0	26.612	0	201.871	0	111.9	4	37.1	4	-1E+10	1	-1E+10	1	-1E+10	1	-1E+10	1	-1E+10	1	-1E+10	1
4902551	68	C	06/29/2022	12:03	-131.982	49.087	0	204.70	0	6.1220	0	33.8340	0	26.618	0	202.861	0	111.1	4	36.8	4	-1E+10	1	-1E+10	1	-1E+10	1	-1E+10	1	-1E+10	1	-1E+10	1
4902551	68	C	06/29/2022	12:03	-131.982	49.087	0	205.70	0	6.1240	0	33.8380	0	26.621	0	203.852	0	110.1	4	36.5	4	-1E+10	1	-1E+10	1	-1E+10	1	-1E+10	1	-1E+10	1	-1E+10	1
4902551	68	C	06/29/2022	12:03	-131.982	49.087	0	206.60	0	6.0980	0	33.8510	0	26.635	0	204.743	0	109.1	4	36.1	4	-1E+10	1	-1E+10	1	-1E+10	1	-1E+10	1	-1E+10	1	-1E+10	1
4902551	68	C	06/29/2022	12:03	-131.982	49.087	0	207.60	0	6.0800	0	33.8430	0	26.631	0	205.734	0	108.0	4	35.7	4	-1E+10	1	-1E+10	1	-1E+10	1	-1E+10	1	-1E+10	1	-1E+10	1
4902551	68	C	06/29/2022	12:03	-131.982	49.087	0	208.60	0	6.0550	0	33.8400	0	26.632	0	206.725	0	106.7	4	35.3	4	-1E+10	1	-1E+10	1	-1E+10	1	-1E+10	1	-1E+10	1	-1E+10	1
4902551	68	C	06/29/2022	12:03	-131.982	49.087	0	209.60	0	6.0550	0	33.8400	0	26.632	0	207.715	0	105.5	4	34.9	4	-1E+10	1	-1E+10	1	-1E+10	1	-1E+10	1	-1E+10	1	-1E+10	1
4902551	68	C	06/29/2022	12:03	-131.982	49.087	0	210.50	0	6.0850	0	33.8390	0	26.627	0	208.606	0	104.5	4	34.6	4	-1E+10	1	-1E+10	1	-1E+10	1	-1E+10	1	-1E+10	1	-1E+10	1
4902551	68	C	06/29/2022	12:03	-131.982	49.087	0	211.50	0	6.1030	0	33.8600	0	26.641	0	209.597	0	103.8	4	34.4	4	-1E+10	1	-1E+10	1	-1E+10	1	-1E+10	1	-1E+10	1	-1E+10	1
4902551	68	C	06/29/2022	12:03	-131.982	49.087	0	212.90	0	6.0980	0	33.8650	0	26.646	0	210.984	0	103.0	4	34.1	4	-1E+10	1	-1E+10	1	-1E+10	1	-1E+10	1	-1E+10	1	-1E+10	1
4902551	68	C	06/29/2022	12:03	-131.982	49.087	0	214.40	0	6.0710	0	33.8580	0	26.644	0	212.469	0	102.1	4	33.8	4	-1E+10	1	-1E+10	1	-1E+10	1	-1E+10	1	-1E+10	1	-1E+10	1
4902551	68	C	06/29/2022	12:03	-131.982	49.087	0	215.40	0	6.1290	0	33.8490	0	26.629	0	213.460	0	101.6	4	33.6	4	-1E+10	1	-1E+10	1	-1E+10	1	-1E+10	1	-1E+10	1	-1E+10	1
4902551	68	C	06/29/2022	12:03	-131.982	49.087	0	216.40	0	6.1250	0	33.8850	0	26.658	0	214.450	0	101.3	4	33.6	4	-1E+10	1	-1E+10	1	-1E+10	1	-1E+10	1	-1E+10	1	-1E+10	1
4902551	68	C	06/29/2022	12:03	-131.982	49.087	0	217.30	0	6.0990	0	33.8780	0	26.656	0	215.342	0	101.3	4	33.5	4	-1E+10	1	-1E+10	1	-1E+10	1	-1E+10	1	-1E+10	1	-1E+10	1
4902551	68	C	06/29/2022	12:03	-131.982	49.087	0	218.20	0	6.0740	0	33.8870	0	26.666	0	216.233	0	101.1	4	33.5	4	-1E+10	1	-1E+10	1	-1E+10	1	-1E+10	1	-1E+10	1	-1E+10	1
4902551	68	C	06/29/2022	12:03	-131.982	49.087	0	219.20	0	6.0360	0	33.8920	0	26.675	0	217.224	0	101.0	4	33.4	4	-1E+10	1	-1E+10	1	-1E+10	1	-1E+10	1	-1E+10	1	-1E+10	1
4902551	68	C	06/29/2022	12:03	-131.982	49.087	0	220.20	0	6.0030	0	33.8720	0	26.663	0	218.214	0	100.8	4	33.3	4	-1E+10	1	-1E+10	1	-1E+10	1	-1E+10	1	-1E+10	1	-1E+10	1
4902551	68	C	06/29/2022	12:03	-131.982	49.087	0	221.10	0	5.9950	0	33.8740	0	26.666	0	219.105	0	100.5	4	33.2	4	-1E+10	1	-1E+10	1	-1E+10	1	-1E+10	1	-1E+10	1	-1E+10	1
4902551	68	C	06/29/2022	12:03	-131.982	49.087	0	222.10	0	5.9180	0	33.8780	0	26.679	0	220.096	0	100.0	4	33.0	4	-1E+10	1	-1E+10	1	-1E+10	1	-1E+10	1	-1E+10	1	-1E+10	1
4902551	68	C	06/29/2022	12:03	-131.982	49.087	0	223.00	0	5.9000	0	33.8550	0	26.663	0	220.987	0	99.2	4	32.7	4	-1E+10	1	-1E+10	1	-1E+10	1	-1E+10	1	-1E+10	1	-1E+10	1
4902551	68	C	06/29/2022	12:03	-131.982	49.087	0	224.00	0	5.8930	0	33.8630	0	26.670	0	221.978	0	98.4	4	32.4	4	-1E+10	1	-1E+10	1	-1E+10	1	-1E+10	1	-1E+10	1	-1E+10	1
4902551	68	C	06/29/2022	12:03	-131.982	49.087	0	224.90	0	5.8800	0	33.8660	0	26.674	0	222.869	0	97.4	4	32.1	4	-1E+10	1	-1E+10	1	-1E+10	1	-1E+10	1	-1E+10	1	-1E+10	1
4902551	68	C	06/29/2022	12:03	-131.982	49.087	0	225.90	0	5.8670	0	33.8540	0	26.666	0	223.860	0	96.3	4	31.7	4	-1E+10	1	-1E+10	1	-1E+10	1	-1E+10	1	-1E+10	1	-1E+10	1
4902551	68	C	06/29/2022	12:03	-131.982	49.087	0	226.90	0	5.9100	0	33.8550	0	26.662	0	224.850	0	95.3	4	31.4	4	-1E+10	1	-1E+10	1	-1E+10	1	-1E+10	1	-1E+10	1	-1E+10	1
4902551	68	C	06/29/2022	12:03	-131.982	49.087	0	227.80	0	5.9840	0	33.8870	0	26.678	0	225.741	0	94.8	4	31.3	4	-1E+10	1	-1E+10	1	-1E+10	1	-1E+10	1	-1E+10	1	-1E+10	1
4902551	68	C	06/29/2022	12:03	-131.982	49.087	0	228.80	0	5.9730	0	33.8920	0	26.683	0	226.732	0	94.6	4	31.2	4	-1E+10	1	-1E+10	1	-1E+10	1	-1E+10	1	-1E+10	1	-1E+10	1
4902551	68	C	06/29/2022	12:03	-131.982	49.087	0	229.70	0	5.9650	0	33.8880	0	26.681	0	227.623	0	94.4	4	31.2	4	-1E+10	1	-1E+10	1	-1E+10	1	-1E+10	1	-1E+10	1	-1E+10	1
4902551	68	C	06/29/2022	12:03	-131.982	49.087	0	230.60	0	5.9680	0	33.8920	0	26.684	0	228.515	0	94.3	4	31.1	4	-1E+10	1	-1E+10	1	-1E+10	1	-1E+10	1	-1E+10	1	-1E+10	1
4902551	68	C	06/29/2022	12:03	-131.982	49.087	0	231.60	0	5.9420	0	33.9080	0	26.700	0	229.505	0	94.2	4	31.1	4	-1E+10	1	-1E+10	1	-1E+10	1	-1E+10	1	-1E+10	1	-1E+10	1
4902551	68	C	06/29/2022	12:03	-131.982	49.087	0	232.90	0	5.9090	0	33.8910	0	26.690	0	230.792	0	94.1	4	31.0	4	-1E+10	1	-1E+10	1	-1E+10	1	-1E+10	1	-1E+10	1	-1E+10	1
4902551	68	C	06/29/2022	12:03	-131.982	49.087	0	234.30	0	5.9200	0	33.8960	0	26.693	0	232.179	0	94.3	4	31.1	4	-1E+10	1	-1E+10	1	-1E+10	1	-1E+10	1	-1E+10	1	-1E+10	1
4902551	68	C	06/29/2022	12:03	-131.982	49.087	0	235.30	0	5.9120	0	33.8980	0	26.695	0	233.169	0	94.5	4	31.1	4	-1E+10	1	-1E+10	1	-1E+10	1	-1E+10	1	-1E+10	1	-1E+10	1
4902551	68	C	06/29/2022	12:03	-131.982	49.087	0	236.20	0	5.8860	0	33.9110	0	26.709	0	234.061	0	94.8	4	31.2	4	-1E+10	1	-1E+10	1	-1E+10	1	-1E+10	1	-1E+10	1	-1E+10	1
4902551	68	C	06/29/2022	12:03	-131.982	49.087	0	237.20	0	5.8710	0	33.8960	0	26.699	0	235.051	0	95.2	4	31.3	4	-1E+10	1	-1E+10	1	-1E+10	1	-1E+10	1	-1E+10	1	-1E+10	1
4902551	68	C	06/29/2022	12:03	-131.982	49.087	0	238.10	0	5.8610	0	33.8940	0	26.699	0	235.942	0	95.6	4	31.5	4	-1E+10	1	-1E+10	1	-1E+10	1	-1E+10	1	-1E+10	1	-1E+10	1
4902551	68	C	06/29/2022	12:03	-131.982	49.087	0	239.00	0	5.8320	0	33.9190	0	26.722	0	236.834	0	96.2	4	31.6	4	-1E+10	1	-1E+10	1	-1E+10	1	-1E+10	1	-1E+10	1	-1E+10	1
4902551	68	C	06/29/2022	12:03	-131.982	49.087	0	240.00	0	5.7880	0	33.8940	0	26.708	0	237.824	0	96.8	4	31.8	4	-1E+10	1	-1E+10	1	-1E+10	1	-1E+10	1	-1E+10	1	-1E+10	1
4902551	68	C	06/29/2022	12:03	-131.982	49.087	0	240.90	0	5.7600	0	33.9020	0	26.717	0	238.715	0	97.3	4	31.9	4	-1E+10	1	-1E+10	1	-1E+10	1	-1E+10	1	-1E+10	1	-1E+10	1
4902551	68	C	06/29/2022	12:03	-131.982	49.087	0	241.80	0	5.7280	0	33.8850	0	26.708	0	239.607	0	97.8	4	32.1	4	-1E+10	1	-1E+10	1	-1E+10	1	-1E+10	1	-1E+10	1	-1E+10	1
4902551	68	C	06/29/2022	12:03	-131.982	49.087	0	242.80	0	5.7000	0	33.9010	0	26.724	0	240.597	0	98.4	4	32.3	4	-1E+10	1	-1E+10	1	-1E+10	1	-1E+10	1	-1E+10	1	-1E+10	1
4902551	68	C	06/29/2022	12:03	-131.982	49.087	0	243.70	0	5.6660	0	33.8870	0	26.717	0	241.488	0	98.9	4	32.4	4	-1E+10	1	-1E+10	1	-1E+10	1	-1E+10	1	-1E+10	1	-1E+10	1
4902551	68	C	06/29/2022	12:03	-131.982	49.087	0	244.70	0	5.6420	0	33.8750	0	26.710	0	242.479	0	99.5	4	32.6	4	-1E+10	1	-1E+10	1	-1E+10	1	-1E+10	1	-1E+10	1	-1E+10	1
4902551	68	C	06/29/2022	12:03	-131.982	49.087	0	245.60	0	5.6290	0	33.8790	0	26.715	0	243.370	0	100.1	4	32.8	4	-1E+10	1	-1E+10	1	-1E+10	1	-1E+10	1	-1E+10	1	-1E+10	1
4902551	68	C	06/29/2022	12:03	-131.982	49.087	0	246.60	0	5.5600	0	33.8750	0	26.720	0	244.360	0	100.5	4	32.9	4	-1E+10	1	-1E+10	1	-1E+10	1	-1E+10	1	-1E+10	1	-1E+10	1
4902551	68	C	06/29/2022	12:03	-131.982	49.087	0	247.50	0	5.4490	0	33.8810	0	26.738	0	245.252	0	100.6	4	32.8	4	-1E+10	1	-1E+10	1	-1E+10	1	-1E+10	1	-1E+10	1	-1E+10	1
4902551	68	C	06/29/2022	12:03	-131.982	49.087	0	248.90	0	5.3680	0	33.8450	0	26.719	0	246.638	0	100.4	4	32.7	4	-1E+10	1	-1E+10	1	-1E+10	1	-1E+10	1	-1E+10	1	-1E+10	1
4902551	68	C	06/29/2022	12:03	-131.982	49.087	0	250.40	0	5.3290	0	33.8470	0	26.726	0	248.124	0	99.7	4	32.4	4	-1E+10	1	-1E+10	1	-1E+10	1	-1E+10	1	-1E+10	1	-1E+10	1
4902551	68	C	06/29/2022	12:03	-131.982	49.087	0	251.30	0	5.3160	0	33.8390	0	26.721	0	249.015	0	99.2	4	32.3	4	-1E+10	1	-1E+10	1	-1E+10	1	-1E+10	1	-1E+10	1	-1E+10	1
4902551	68	C	06/29/2022	12:03	-131.982	49.087	0	252.30	0	5.3130	0	33.8370	0	26.720	0	250.005	0	98.6	4	32.0	4	-1E+10	1	-1E+10	1	-1E+10	1	-1E+10	1	-1E+10	1	-1E+10	1
4902551	68	C	06/29/2022	12:03	-131.982	49.087	0	253.30	0	5.3100	0	33.8370	0	26.720	0	250.995	0	97.9	4	31.8	4	-1E+10	1	-1E+10	1	-1E+10	1	-1E+10	1	-1E+10	1	-1E+10	1
4902551	68	C	06/29/2022	12:03	-131.982	49.087	0	254.30	0	5.3110	0	33.8350	0	26.718	0	251.986	0	97.2	4	31.6	4	-1E+10	1	-1E+10	1	-1E+10	1	-1E+10	1	-1E+10	1	-1E+10	1
4902551	68	C	06/29/2022	12:03	-131.982	49.087	0	255.30	0	5.3280	0	33.8380	0	26.719	0	252.976	0	96.6	4	31.4	4	-1E+10	1	-1E+10	1	-1E+10	1	-1E+10	1	-1E+10	1	-1E+10	1
4902551	68	C	06/29/2022	12:03	-131.982	49.087	0	256.30	0	5.2980	0	33.8550	0	26.736	0	253.966	0	96.1	4	31.2	4	-1E+10	1	-1E+10	1	-1E+10	1	-1E+10	1	-1E+10	1	-1E+10	1
4902551	68	C	06/29/2022	12:03	-131.982	49.087	0	257.30	0	5.2680	0	33.8540	0	26.738	0	254.957	0	95.7	4	31.1	4	-1E+10	1	-1E+10	1	-1E+10	1	-1E+10	1	-1E+10	1	-1E+10	1
4902551	68	C	06/29/2022	12:03	-131.982	49.087	0	258.30	0	5.2540	0	33.8500	0	26.737	0	255.947	0	95.2	4	30.9	4	-1E+10	1	-1E+10	1	-1E+10	1	-1E+10	1	-1E+10	1	-1E+10	1
4902551	68	C	06/29/2022	12:03	-131.982	49.087	0	259.30	0	5.2210	0	33.8500	0	26.741	0	256.937	0	94.7	4	30.7	4	-1E+10	1	-1E+10	1	-1E+10	1	-1E+10	1	-1E+10	1	-1E+10	1
4902551	68	C	06/29/2022	12:03	-131.982	49.087	0	260.30	0	5.2110	0	33.8470	0	26.739	0	257.927	0	94.3	4	30.6	4	-1E+10	1	-1E+10	1	-1E+10	1	-1E+10	1	-1E+10	1	-1E+10	1
4902551	68	C	06/29/2022	12:03	-131.982	49.087	0	261.30	0	5.1950	0	33.8530	0	26.746	0	258.918	0	93.7	4	30.4	4	-1E+10	1	-1E+10	1	-1E+10	1	-1E+10	1	-1E+10	1	-1E+10	1
4902551	68	C	06/29/2022	12:03	-131.982	49.087	0	262.20	0	5.1710	0	33.8520	0	26.748	0	259.809	0	93.1	4	30.1	4	-1E+10	1	-1E+10	1	-1E+10	1	-1E+10	1	-1E+10	1	-1E+10	1
4902551	68	C	06/29/2022	12:03	-131.982	49.087	0	263.20	0	5.1660	0	33.8470	0	26.745	0	260.799	0	92.4	4	29.9	4	-1E+10	1	-1E+10	1	-1E+10	1	-1E+10	1	-1E+10	1	-1E+10	1
4902551	68	C	06/29/2022	12:03	-131.982	49.087	0	264.20	0	5.1970	0	33.8380	0	26.734	0	261.789	0	91.8	4	29.7	4	-1E+10	1	-1E+10	1	-1E+10	1	-1E+10	1	-1E+10	1	-1E+10	1
4902551	68	C	06/29/2022	12:03	-131.982	49.087	0	265.20	0	5.2690	0	33.8490	0	26.734	0	262.780	0	91.3	4	29.6	4	-1E+10	1	-1E+10	1	-1E+10	1	-1E+10	1	-1E+10	1	-1E+10	1
4902551	68	C	06/29/2022	12:03	-131.982	49.087	0	266.20	0	5.3380	0	33.8780	0	26.749	0	263.770	0	91.2	4	29.7	4	-1E+10	1	-1E+10	1	-1E+10	1	-1E+10	1	-1E+10	1	-1E+10	1
4902551	68	C	06/29/2022	12:03	-131.982	49.087	0	267.10	0	5.3130	0	33.8880	0	26.760	0	264.661	0	91.3	4	29.7	4	-1E+10	1	-1E+10	1	-1E+10	1	-1E+10	1	-1E+10	1	-1E+10	1
4902551	68	C	06/29/2022	12:03	-131.982	49.087	0	268.10	0	5.3040	0	33.8670	0	26.744	0	265.651	0	91.5	4	29.7	4	-1E+10	1	-1E+10	1	-1E+10	1	-1E+10	1	-1E+10	1	-1E+10	1
4902551	68	C	06/29/2022	12:03	-131.982	49.087	0	269.10	0	5.3090	0	33.8870	0	26.760	0	266.642	0	91.6	4	29.8	4	-1E+10	1	-1E+10	1	-1E+10	1	-1E+10	1	-1E+10	1	-1E+10	1
4902551	68	C	06/29/2022	12:03	-131.982	49.087	0	270.10	0	5.2950	0	33.8790	0	26.755	0	267.632	0	91.8	4	29.8	4	-1E+10	1	-1E+10	1	-1E+10	1	-1E+10	1	-1E+10	1	-1E+10	1
4902551	68	C	06/29/2022	12:03	-131.982	49.087	0	271.10	0	5.2860	0	33.8750	0	26.753	0	268.622	0	92.1	4	29.9	4	-1E+10	1	-1E+10	1	-1E+10	1	-1E+10	1	-1E+10	1	-1E+10	1
4902551	68	C	06/29/2022	12:03	-131.982	49.087	0	272.00	0	5.2680	0	33.8770	0	26.757	0	269.513	0	92.4	4	30.0	4	-1E+10	1	-1E+10	1	-1E+10	1	-1E+10	1	-1E+10	1	-1E+10	1
4902551	68	C	06/29/2022	12:03	-131.982	49.087	0	273.00	0	5.2420	0	33.8750	0	26.758	0	270.503	0	92.7	4	30.1	4	-1E+10	1	-1E+10	1	-1E+10	1	-1E+10	1	-1E+10	1	-1E+10	1
4902551	68	C	06/29/2022	12:03	-131.982	49.087	0	274.00	0	5.1920	0	33.8660	0	26.757	0	271.494	0	92.8	4	30.1	4	-1E+10	1	-1E+10	1	-1E+10	1	-1E+10	1	-1E+10	1	-1E+10	1
4902551	68	C	06/29/2022	12:03	-131.982	49.087	0	275.00	0	5.1610	0	33.8750	0	26.767	0	272.484	0	92.9	4	30.1	4	-1E+10	1	-1E+10	1	-1E+10	1	-1E+10	1	-1E+10	1	-1E+10	1
4902551	68	C	06/29/2022	12:03	-131.982	49.087	0	275.90	0	5.1270	0	33.8530	0	26.754	0	273.375	0	92.9	4	30.1	4	-1E+10	1	-1E+10	1	-1E+10	1	-1E+10	1	-1E+10	1	-1E+10	1
4902551	68	C	06/29/2022	12:03	-131.982	49.087	0	276.90	0	5.1230	0	33.8560	0	26.757	0	274.365	0	92.8	4	30.0	4	-1E+10	1	-1E+10	1	-1E+10	1	-1E+10	1	-1E+10	1	-1E+10	1
4902551	68	C	06/29/2022	12:03	-131.982	49.087	0	278.00	0	5.0990	0	33.8700	0	26.771	0	275.454	0	92.7	4	30.0	4	-1E+10	1	-1E+10	1	-1E+10	1	-1E+10	1	-1E+10	1	-1E+10	1
4902551	68	C	06/29/2022	12:03	-131.982	49.087	0	279.00	0	5.0910	0	33.8560	0	26.761	0	276.445	0	92.5	4	29.9	4	-1E+10	1	-1E+10	1	-1E+10	1	-1E+10	1	-1E+10	1	-1E+10	1
4902551	68	C	06/29/2022	12:03	-131.982	49.087	0	280.00	0	5.0800	0	33.8530	0	26.759	0	277.435	0	92.3	4	29.8	4	-1E+10	1	-1E+10	1	-1E+10	1	-1E+10	1	-1E+10	1	-1E+10	1
4902551	68	C	06/29/2022	12:03	-131.982	49.087	0	281.00	0	5.0800	0	33.8530	0	26.759	0	278.425	0	92.1	4	29.8	4	-1E+10	1	-1E+10	1	-1E+10	1	-1E+10	1	-1E+10	1	-1E+10	1
4902551	68	C	06/29/2022	12:03	-131.982	49.087	0	282.00	0	5.0790	0	33.8530	0	26.760	0	279.415	0	91.9	4	29.7	4	-1E+10	1	-1E+10	1	-1E+10	1	-1E+10	1	-1E+10	1	-1E+10	1
4902551	68	C	06/29/2022	12:03	-131.982	49.087	0	283.10	0	5.0750	0	33.8520	0	26.759	0	280.504	0	91.6	4	29.6	4	-1E+10	1	-1E+10	1	-1E+10	1	-1E+10	1	-1E+10	1	-1E+10	1
4902551	68	C	06/29/2022	12:03	-131.982	49.087	0	284.10	0	5.0730	0	33.8520	0	26.759	0	281.494	0	91.3	4	29.5	4	-1E+10	1	-1E+10	1	-1E+10	1	-1E+10	1	-1E+10	1	-1E+10	1
4902551	68	C	06/29/2022	12:03	-131.982	49.087	0	285.10	0	5.0640	0	33.8560	0	26.764	0	282.484	0	90.9	4	29.4	4	-1E+10	1	-1E+10	1	-1E+10	1	-1E+10	1	-1E+10	1	-1E+10	1
4902551	68	C	06/29/2022	12:03	-131.982	49.087	0	286.10	0	5.0120	0	33.8690	0	26.780	0	283.475	0	90.5	4	29.2	4	-1E+10	1	-1E+10	1	-1E+10	1	-1E+10	1	-1E+10	1	-1E+10	1
4902551	68	C	06/29/2022	12:03	-131.982	49.087	0	287.20	0	4.9960	0	33.8480	0	26.765	0	284.564	0	90.1	4	29.1	4	-1E+10	1	-1E+10	1	-1E+10	1	-1E+10	1	-1E+10	1	-1E+10	1
4902551	68	C	06/29/2022	12:03	-131.982	49.087	0	288.20	0	4.9740	0	33.8520	0	26.771	0	285.554	0	89.6	4	28.9	4	-1E+10	1	-1E+10	1	-1E+10	1	-1E+10	1	-1E+10	1	-1E+10	1
4902551	68	C	06/29/2022	12:03	-131.982	49.087	0	289.20	0	4.9490	0	33.8480	0	26.770	0	286.544	0	89.0	4	28.7	4	-1E+10	1	-1E+10	1	-1E+10	1	-1E+10	1	-1E+10	1	-1E+10	1
4902551	68	C	06/29/2022	12:03	-131.982	49.087	0	290.20	0	4.9240	0	33.8550	0	26.779	0	287.534	0	88.4	4	28.5	4	-1E+10	1	-1E+10	1	-1E+10	1	-1E+10	1	-1E+10	1	-1E+10	1
4902551	68	C	06/29/2022	12:03	-131.982	49.087	0	291.30	0	4.9080	0	33.8450	0	26.773	0	288.623	0	87.8	4	28.3	4	-1E+10	1	-1E+10	1	-1E+10	1	-1E+10	1	-1E+10	1	-1E+10	1
4902551	68	C	06/29/2022	12:03	-131.982	49.087	0	292.30	0	4.8960	0	33.8470	0	26.776	0	289.613	0	87.1	4	28.0	4	-1E+10	1	-1E+10	1	-1E+10	1	-1E+10	1	-1E+10	1	-1E+10	1
4902551	68	C	06/29/2022	12:03	-131.982	49.087	0	293.40	0	4.8860	0	33.8500	0	26.779	0	290.703	0	86.6	4	27.9	4	-1E+10	1	-1E+10	1	-1E+10	1	-1E+10	1	-1E+10	1	-1E+10	1
4902551	68	C	06/29/2022	12:03	-131.982	49.087	0	294.40	0	4.8830	0	33.8510	0	26.780	0	291.693	0	86.0	4	27.7	4	-1E+10	1	-1E+10	1	-1E+10	1	-1E+10	1	-1E+10	1	-1E+10	1
4902551	68	C	06/29/2022	12:03	-131.982	49.087	0	295.40	0	4.8810	0	33.8510	0	26.780	0	292.683	0	85.5	4	27.5	4	-1E+10	1	-1E+10	1	-1E+10	1	-1E+10	1	-1E+10	1	-1E+10	1
4902551	68	C	06/29/2022	12:03	-131.982	49.087	0	296.30	0	4.8780	0	33.8520	0	26.782	0	293.574	0	84.9	4	27.3	4	-1E+10	1	-1E+10	1	-1E+10	1	-1E+10	1	-1E+10	1	-1E+10	1
4902551	68	C	06/29/2022	12:03	-131.982	49.087	0	297.90	0	4.8750	0	33.8530	0	26.783	0	295.158	0	83.7	4	26.9	4	-1E+10	1	-1E+10	1	-1E+10	1	-1E+10	1	-1E+10	1	-1E+10	1
4902551	68	C	06/29/2022	12:03	-131.982	49.087	0	299.10	0	4.8680	0	33.8550	0	26.785	0	296.346	0	82.7	4	26.6	4	-1E+10	1	-1E+10	1	-1E+10	1	-1E+10	1	-1E+10	1	-1E+10	1
4902551	68	C	06/29/2022	12:03	-131.982	49.087	0	299.90	0	4.8640	0	33.8550	0	26.786	0	297.138	0	82.0	4	26.4	4	-1E+10	1	-1E+10	1	-1E+10	1	-1E+10	1	-1E+10	1	-1E+10	1
4902551	68	C	06/29/2022	12:03	-131.982	49.087	0	300.80	0	4.8720	0	33.8530	0	26.783	0	298.029	0	81.3	4	26.1	4	-1E+10	1	-1E+10	1	-1E+10	1	-1E+10	1	-1E+10	1	-1E+10	1
4902551	68	C	06/29/2022	12:03	-131.982	49.087	0	302.00	0	4.9100	0	33.8580	0	26.783	0	299.217	0	80.2	4	25.8	4	-1E+10	1	-1E+10	1	-1E+10	1	-1E+10	1	-1E+10	1	-1E+10	1
4902551	68	C	06/29/2022	12:03	-131.982	49.087	0	303.20	0	4.9680	0	33.8790	0	26.793	0	300.405	0	79.5	4	25.6	4	-1E+10	1	-1E+10	1	-1E+10	1	-1E+10	1	-1E+10	1	-1E+10	1
4902551	68	C	06/29/2022	12:03	-131.982	49.087	0	304.10	0	5.0280	0	33.8690	0	26.778	0	301.296	0	79.2	4	25.6	4	-1E+10	1	-1E+10	1	-1E+10	1	-1E+10	1	-1E+10	1	-1E+10	1
4902551	68	C	06/29/2022	12:03	-131.982	49.087	0	304.90	0	5.0420	0	33.8870	0	26.791	0	302.088	0	79.0	4	25.5	4	-1E+10	1	-1E+10	1	-1E+10	1	-1E+10	1	-1E+10	1	-1E+10	1
4902551	68	C	06/29/2022	12:03	-131.982	49.087	0	305.70	0	5.0400	0	33.9010	0	26.802	0	302.880	0	78.8	4	25.5	4	-1E+10	1	-1E+10	1	-1E+10	1	-1E+10	1	-1E+10	1	-1E+10	1
4902551	68	C	06/29/2022	12:03	-131.982	49.087	0	307.00	0	4.9660	0	33.9000	0	26.810	0	304.167	0	78.5	4	25.3	4	-1E+10	1	-1E+10	1	-1E+10	1	-1E+10	1	-1E+10	1	-1E+10	1
4902551	68	C	06/29/2022	12:03	-131.982	49.087	0	308.30	0	4.9460	0	33.8760	0	26.793	0	305.455	0	78.1	4	25.2	4	-1E+10	1	-1E+10	1	-1E+10	1	-1E+10	1	-1E+10	1	-1E+10	1
4902551	68	C	06/29/2022	12:03	-131.982	49.087	0	309.20	0	4.9180	0	33.9040	0	26.818	0	306.346	0	77.7	4	25.0	4	-1E+10	1	-1E+10	1	-1E+10	1	-1E+10	1	-1E+10	1	-1E+10	1
4902551	68	C	06/29/2022	12:03	-131.982	49.087	0	310.00	0	4.8690	0	33.8810	0	26.806	0	307.138	0	77.3	4	24.9	4	-1E+10	1	-1E+10	1	-1E+10	1	-1E+10	1	-1E+10	1	-1E+10	1
4902551	68	C	06/29/2022	12:03	-131.982	49.087	0	310.90	0	4.8820	0	33.8660	0	26.792	0	308.029	0	76.8	4	24.7	4	-1E+10	1	-1E+10	1	-1E+10	1	-1E+10	1	-1E+10	1	-1E+10	1
4902551	68	C	06/29/2022	12:03	-131.982	49.087	0	311.80	0	4.9060	0	33.8860	0	26.806	0	308.920	0	76.3	4	24.6	4	-1E+10	1	-1E+10	1	-1E+10	1	-1E+10	1	-1E+10	1	-1E+10	1
4902551	68	C	06/29/2022	12:03	-131.982	49.087	0	312.70	0	4.9120	0	33.8850	0	26.804	0	309.811	0	75.9	4	24.4	4	-1E+10	1	-1E+10	1	-1E+10	1	-1E+10	1	-1E+10	1	-1E+10	1
4902551	68	C	06/29/2022	12:03	-131.982	49.087	0	314.00	0	4.9150	0	33.8900	0	26.808	0	311.098	0	75.1	4	24.2	4	-1E+10	1	-1E+10	1	-1E+10	1	-1E+10	1	-1E+10	1	-1E+10	1
4902551	68	C	06/29/2022	12:03	-131.982	49.087	0	315.30	0	4.9040	0	33.8880	0	26.807	0	312.385	0	74.3	4	23.9	4	-1E+10	1	-1E+10	1	-1E+10	1	-1E+10	1	-1E+10	1	-1E+10	1
4902551	68	C	06/29/2022	12:03	-131.982	49.087	0	316.20	0	4.9060	0	33.8900	0	26.809	0	313.276	0	73.5	4	23.7	4	-1E+10	1	-1E+10	1	-1E+10	1	-1E+10	1	-1E+10	1	-1E+10	1
4902551	68	C	06/29/2022	12:03	-131.982	49.087	0	317.10	0	4.9040	0	33.8910	0	26.810	0	314.167	0	72.8	4	23.4	4	-1E+10	1	-1E+10	1	-1E+10	1	-1E+10	1	-1E+10	1	-1E+10	1
4902551	68	C	06/29/2022	12:03	-131.982	49.087	0	318.00	0	4.9060	0	33.8900	0	26.809	0	315.058	0	72.0	4	23.2	4	-1E+10	1	-1E+10	1	-1E+10	1	-1E+10	1	-1E+10	1	-1E+10	1
4902551	68	C	06/29/2022	12:03	-131.982	49.087	0	318.90	0	4.9080	0	33.8930	0	26.811	0	315.949	0	71.1	4	22.9	4	-1E+10	1	-1E+10	1	-1E+10	1	-1E+10	1	-1E+10	1	-1E+10	1
4902551	68	C	06/29/2022	12:03	-131.982	49.087	0	319.80	0	4.9160	0	33.8870	0	26.805	0	316.840	0	70.1	4	22.6	4	-1E+10	1	-1E+10	1	-1E+10	1	-1E+10	1	-1E+10	1	-1E+10	1
4902551	68	C	06/29/2022	12:03	-131.982	49.087	0	320.70	0	4.9320	0	33.8870	0	26.803	0	317.731	0	69.0	4	22.2	4	-1E+10	1	-1E+10	1	-1E+10	1	-1E+10	1	-1E+10	1	-1E+10	1
4902551	68	C	06/29/2022	12:03	-131.982	49.087	0	321.60	0	5.0100	0	33.9010	0	26.806	0	318.622	0	68.1	4	22.0	4	-1E+10	1	-1E+10	1	-1E+10	1	-1E+10	1	-1E+10	1	-1E+10	1
4902551	68	C	06/29/2022	12:03	-131.982	49.087	0	322.90	0	5.0540	0	33.9140	0	26.811	0	319.909	0	67.1	4	21.7	4	-1E+10	1	-1E+10	1	-1E+10	1	-1E+10	1	-1E+10	1	-1E+10	1
4902551	68	C	06/29/2022	12:03	-131.982	49.087	0	324.30	0	5.0650	0	33.9320	0	26.824	0	321.294	0	66.5	4	21.5	4	-1E+10	1	-1E+10	1	-1E+10	1	-1E+10	1	-1E+10	1	-1E+10	1
4902551	68	C	06/29/2022	12:03	-131.982	49.087	0	325.20	0	5.0580	0	33.9320	0	26.825	0	322.185	0	66.1	4	21.4	4	-1E+10	1	-1E+10	1	-1E+10	1	-1E+10	1	-1E+10	1	-1E+10	1
4902551	68	C	06/29/2022	12:03	-131.982	49.087	0	326.10	0	5.0560	0	33.9290	0	26.823	0	323.076	0	65.6	4	21.2	4	-1E+10	1	-1E+10	1	-1E+10	1	-1E+10	1	-1E+10	1	-1E+10	1
4902551	68	C	06/29/2022	12:03	-131.982	49.087	0	327.10	0	5.0690	0	33.9250	0	26.818	0	324.066	0	65.3	4	21.1	4	-1E+10	1	-1E+10	1	-1E+10	1	-1E+10	1	-1E+10	1	-1E+10	1
4902551	68	C	06/29/2022	12:03	-131.982	49.087	0	328.00	0	5.1020	0	33.9360	0	26.823	0	324.957	0	65.0	4	21.0	4	-1E+10	1	-1E+10	1	-1E+10	1	-1E+10	1	-1E+10	1	-1E+10	1
4902551	68	C	06/29/2022	12:03	-131.982	49.087	0	329.00	0	5.1120	0	33.9400	0	26.825	0	325.947	0	64.8	4	21.0	4	-1E+10	1	-1E+10	1	-1E+10	1	-1E+10	1	-1E+10	1	-1E+10	1
4902551	68	C	06/29/2022	12:03	-131.982	49.087	0	329.90	0	5.1150	0	33.9430	0	26.827	0	326.838	0	64.6	4	20.9	4	-1E+10	1	-1E+10	1	-1E+10	1	-1E+10	1	-1E+10	1	-1E+10	1
4902551	68	C	06/29/2022	12:03	-131.982	49.087	0	330.80	0	5.1160	0	33.9440	0	26.828	0	327.729	0	64.5	4	20.9	4	-1E+10	1	-1E+10	1	-1E+10	1	-1E+10	1	-1E+10	1	-1E+10	1
4902551	68	C	06/29/2022	12:03	-131.982	49.087	0	331.70	0	5.1110	0	33.9470	0	26.831	0	328.620	0	64.4	4	20.8	4	-1E+10	1	-1E+10	1	-1E+10	1	-1E+10	1	-1E+10	1	-1E+10	1
4902551	68	C	06/29/2022	12:03	-131.982	49.087	0	332.60	0	5.1080	0	33.9440	0	26.829	0	329.511	0	64.2	4	20.8	4	-1E+10	1	-1E+10	1	-1E+10	1	-1E+10	1	-1E+10	1	-1E+10	1
4902551	68	C	06/29/2022	12:03	-131.982	49.087	0	333.60	0	5.1000	0	33.9500	0	26.834	0	330.501	0	64.2	4	20.8	4	-1E+10	1	-1E+10	1	-1E+10	1	-1E+10	1	-1E+10	1	-1E+10	1
4902551	68	C	06/29/2022	12:03	-131.982	49.087	0	334.90	0	5.0910	0	33.9490	0	26.835	0	331.788	0	64.2	4	20.8	4	-1E+10	1	-1E+10	1	-1E+10	1	-1E+10	1	-1E+10	1	-1E+10	1
4902551	68	C	06/29/2022	12:03	-131.982	49.087	0	336.40	0	5.0790	0	33.9480	0	26.835	0	333.273	0	64.2	4	20.7	4	-1E+10	1	-1E+10	1	-1E+10	1	-1E+10	1	-1E+10	1	-1E+10	1
4902551	68	C	06/29/2022	12:03	-131.982	49.087	0	337.30	0	5.0650	0	33.9510	0	26.839	0	334.163	0	64.2	4	20.7	4	-1E+10	1	-1E+10	1	-1E+10	1	-1E+10	1	-1E+10	1	-1E+10	1
4902551	68	C	06/29/2022	12:03	-131.982	49.087	0	338.20	0	5.0520	0	33.9480	0	26.838	0	335.054	0	64.1	4	20.7	4	-1E+10	1	-1E+10	1	-1E+10	1	-1E+10	1	-1E+10	1	-1E+10	1
4902551	68	C	06/29/2022	12:03	-131.982	49.087	0	339.20	0	5.0350	0	33.9570	0	26.848	0	336.044	0	64.1	4	20.7	4	-1E+10	1	-1E+10	1	-1E+10	1	-1E+10	1	-1E+10	1	-1E+10	1
4902551	68	C	06/29/2022	12:03	-131.982	49.087	0	340.10	0	4.9960	0	33.9470	0	26.844	0	336.935	0	64.2	4	20.7	4	-1E+10	1	-1E+10	1	-1E+10	1	-1E+10	1	-1E+10	1	-1E+10	1
4902551	68	C	06/29/2022	12:03	-131.982	49.087	0	341.00	0	4.9850	0	33.9450	0	26.844	0	337.826	0	64.1	4	20.7	4	-1E+10	1	-1E+10	1	-1E+10	1	-1E+10	1	-1E+10	1	-1E+10	1
4902551	68	C	06/29/2022	12:03	-131.982	49.087	0	342.00	0	4.9690	0	33.9550	0	26.853	0	338.816	0	64.0	4	20.7	4	-1E+10	1	-1E+10	1	-1E+10	1	-1E+10	1	-1E+10	1	-1E+10	1
4902551	68	C	06/29/2022	12:03	-131.982	49.087	0	343.00	0	4.9260	0	33.9430	0	26.849	0	339.806	0	63.9	4	20.6	4	-1E+10	1	-1E+10	1	-1E+10	1	-1E+10	1	-1E+10	1	-1E+10	1
4902551	68	C	06/29/2022	12:03	-131.982	49.087	0	343.90	0	4.9230	0	33.9380	0	26.845	0	340.697	0	63.7	4	20.5	4	-1E+10	1	-1E+10	1	-1E+10	1	-1E+10	1	-1E+10	1	-1E+10	1
4902551	68	C	06/29/2022	12:03	-131.982	49.087	0	344.80	0	4.9220	0	33.9390	0	26.846	0	341.588	0	63.4	4	20.4	4	-1E+10	1	-1E+10	1	-1E+10	1	-1E+10	1	-1E+10	1	-1E+10	1
4902551	68	C	06/29/2022	12:03	-131.982	49.087	0	345.80	0	4.9200	0	33.9390	0	26.846	0	342.577	0	63.1	4	20.3	4	-1E+10	1	-1E+10	1	-1E+10	1	-1E+10	1	-1E+10	1	-1E+10	1
4902551	68	C	06/29/2022	12:03	-131.982	49.087	0	346.70	0	4.9210	0	33.9360	0	26.844	0	343.468	0	62.7	4	20.2	4	-1E+10	1	-1E+10	1	-1E+10	1	-1E+10	1	-1E+10	1	-1E+10	1
4902551	68	C	06/29/2022	12:03	-131.982	49.087	0	347.70	0	4.9340	0	33.9360	0	26.842	0	344.458	0	62.5	4	20.1	4	-1E+10	1	-1E+10	1	-1E+10	1	-1E+10	1	-1E+10	1	-1E+10	1
4902551	68	C	06/29/2022	12:03	-131.982	49.087	0	348.60	0	4.9340	0	33.9480	0	26.852	0	345.349	0	62.3	4	20.1	4	-1E+10	1	-1E+10	1	-1E+10	1	-1E+10	1	-1E+10	1	-1E+10	1
4902551	68	C	06/29/2022	12:03	-131.982	49.087	0	349.60	0	4.9300	0	33.9470	0	26.852	0	346.339	0	62.1	4	20.0	4	-1E+10	1	-1E+10	1	-1E+10	1	-1E+10	1	-1E+10	1	-1E+10	1
4902551	68	C	06/29/2022	12:03	-131.982	49.087	0	352.90	0	4.8950	0	33.9480	0	26.856	0	349.605	0	61.7	4	19.9	4	-1E+10	1	-1E+10	1	-1E+10	1	-1E+10	1	-1E+10	1	-1E+10	1
4902551	68	C	06/29/2022	12:03	-131.982	49.087	0	358.30	0	4.8850	0	33.9540	0	26.862	0	354.950	0	61.4	4	19.8	4	-1E+10	1	-1E+10	1	-1E+10	1	-1E+10	1	-1E+10	1	-1E+10	1
4902551	68	C	06/29/2022	12:03	-131.982	49.087	0	363.30	0	4.7100	0	33.9490	0	26.878	0	359.899	0	61.3	4	19.7	4	-1E+10	1	-1E+10	1	-1E+10	1	-1E+10	1	-1E+10	1	-1E+10	1
4902551	68	C	06/29/2022	12:03	-131.982	49.087	0	368.20	0	4.6900	0	33.9250	0	26.861	0	364.749	0	58.7	4	18.8	4	-1E+10	1	-1E+10	1	-1E+10	1	-1E+10	1	-1E+10	1	-1E+10	1
4902551	68	C	06/29/2022	12:03	-131.982	49.087	0	373.20	0	4.7570	0	33.9620	0	26.883	0	369.698	0	57.0	4	18.3	4	-1E+10	1	-1E+10	1	-1E+10	1	-1E+10	1	-1E+10	1	-1E+10	1
4902551	68	C	06/29/2022	12:03	-131.982	49.087	0	377.90	0	4.7170	0	33.9580	0	26.884	0	374.349	0	55.6	4	17.8	4	-1E+10	1	-1E+10	1	-1E+10	1	-1E+10	1	-1E+10	1	-1E+10	1
4902551	68	C	06/29/2022	12:03	-131.982	49.087	0	382.60	0	4.7490	0	33.9740	0	26.893	0	379.001	0	54.7	4	17.6	4	-1E+10	1	-1E+10	1	-1E+10	1	-1E+10	1	-1E+10	1	-1E+10	1
4902551	68	C	06/29/2022	12:03	-131.982	49.087	0	387.90	0	4.7210	0	33.9760	0	26.898	0	384.246	0	54.7	4	17.5	4	-1E+10	1	-1E+10	1	-1E+10	1	-1E+10	1	-1E+10	1	-1E+10	1
4902551	68	C	06/29/2022	12:03	-131.982	49.087	0	392.80	0	4.6720	0	33.9850	0	26.911	0	389.095	0	55.2	4	17.7	4	-1E+10	1	-1E+10	1	-1E+10	1	-1E+10	1	-1E+10	1	-1E+10	1
4902551	68	C	06/29/2022	12:03	-131.982	49.087	0	397.60	0	4.5730	0	33.9660	0	26.906	0	393.846	0	54.8	4	17.5	4	-1E+10	1	-1E+10	1	-1E+10	1	-1E+10	1	-1E+10	1	-1E+10	1
4902551	68	C	06/29/2022	12:03	-131.982	49.087	0	403.10	0	4.5200	0	33.9720	0	26.917	0	399.288	0	53.6	4	17.1	4	-1E+10	1	-1E+10	1	-1E+10	1	-1E+10	1	-1E+10	1	-1E+10	1
4902551	68	C	06/29/2022	12:03	-131.982	49.087	0	408.00	0	4.4910	0	33.9760	0	26.923	0	404.137	0	52.5	4	16.7	4	-1E+10	1	-1E+10	1	-1E+10	1	-1E+10	1	-1E+10	1	-1E+10	1
4902551	68	C	06/29/2022	12:03	-131.982	49.087	0	412.90	0	4.4810	0	33.9760	0	26.924	0	408.986	0	51.0	4	16.3	4	-1E+10	1	-1E+10	1	-1E+10	1	-1E+10	1	-1E+10	1	-1E+10	1
4902551	68	C	06/29/2022	12:03	-131.982	49.087	0	417.80	0	4.4970	0	33.9840	0	26.929	0	413.835	0	49.4	4	15.8	4	-1E+10	1	-1E+10	1	-1E+10	1	-1E+10	1	-1E+10	1	-1E+10	1
4902551	68	C	06/29/2022	12:03	-131.982	49.087	0	422.80	0	4.5120	0	33.9990	0	26.939	0	418.782	0	48.8	4	15.6	4	-1E+10	1	-1E+10	1	-1E+10	1	-1E+10	1	-1E+10	1	-1E+10	1
4902551	68	C	06/29/2022	12:03	-131.982	49.087	0	427.70	0	4.4740	0	33.9940	0	26.940	0	423.631	0	47.9	4	15.3	4	-1E+10	1	-1E+10	1	-1E+10	1	-1E+10	1	-1E+10	1	-1E+10	1
4902551	68	C	06/29/2022	12:03	-131.982	49.087	0	432.70	0	4.4310	0	33.9930	0	26.943	0	428.578	0	45.5	4	14.5	4	-1E+10	1	-1E+10	1	-1E+10	1	-1E+10	1	-1E+10	1	-1E+10	1
4902551	68	C	06/29/2022	12:03	-131.982	49.087	0	438.20	0	4.4750	0	34.0050	0	26.948	0	434.020	0	42.4	4	13.5	4	-1E+10	1	-1E+10	1	-1E+10	1	-1E+10	1	-1E+10	1	-1E+10	1
4902551	68	C	06/29/2022	12:03	-131.982	49.087	0	443.10	0	4.5510	0	34.0210	0	26.953	0	438.868	0	40.0	4	12.8	4	-1E+10	1	-1E+10	1	-1E+10	1	-1E+10	1	-1E+10	1	-1E+10	1
4902551	68	C	06/29/2022	12:03	-131.982	49.087	0	448.10	0	4.5850	0	34.0360	0	26.961	0	443.815	0	38.7	4	12.4	4	-1E+10	1	-1E+10	1	-1E+10	1	-1E+10	1	-1E+10	1	-1E+10	1
4902551	68	C	06/29/2022	12:03	-131.982	49.087	0	453.30	0	4.5710	0	34.0460	0	26.971	0	448.959	0	38.3	4	12.2	4	-1E+10	1	-1E+10	1	-1E+10	1	-1E+10	1	-1E+10	1	-1E+10	1
4902551	68	C	06/29/2022	12:03	-131.982	49.087	0	458.00	0	4.5340	0	34.0450	0	26.974	0	453.609	0	37.8	4	12.1	4	-1E+10	1	-1E+10	1	-1E+10	1	-1E+10	1	-1E+10	1	-1E+10	1
4902551	68	C	06/29/2022	12:03	-131.982	49.087	0	463.00	0	4.5210	0	34.0450	0	26.975	0	458.556	0	36.5	4	11.6	4	-1E+10	1	-1E+10	1	-1E+10	1	-1E+10	1	-1E+10	1	-1E+10	1
4902551	68	C	06/29/2022	12:03	-131.982	49.087	0	468.00	0	4.5520	0	34.0560	0	26.981	0	463.502	0	35.5	4	11.3	4	-1E+10	1	-1E+10	1	-1E+10	1	-1E+10	1	-1E+10	1	-1E+10	1
4902551	68	C	06/29/2022	12:03	-131.982	49.087	0	473.00	0	4.5300	0	34.0620	0	26.988	0	468.448	0	35.3	4	11.3	4	-1E+10	1	-1E+10	1	-1E+10	1	-1E+10	1	-1E+10	1	-1E+10	1
4902551	68	C	06/29/2022	12:03	-131.982	49.087	0	478.10	0	4.4790	0	34.0580	0	26.990	0	473.494	0	34.9	4	11.1	4	-1E+10	1	-1E+10	1	-1E+10	1	-1E+10	1	-1E+10	1	-1E+10	1
4902551	68	C	06/29/2022	12:03	-131.982	49.087	0	483.20	0	4.4450	0	34.0610	0	26.996	0	478.539	0	33.7	4	10.7	4	-1E+10	1	-1E+10	1	-1E+10	1	-1E+10	1	-1E+10	1	-1E+10	1
4902551	68	C	06/29/2022	12:03	-131.982	49.087	0	488.20	0	4.4620	0	34.0610	0	26.995	0	483.485	0	31.7	4	10.1	4	-1E+10	1	-1E+10	1	-1E+10	1	-1E+10	1	-1E+10	1	-1E+10	1
4902551	68	C	06/29/2022	12:03	-131.982	49.087	0	493.00	0	4.4640	0	34.0790	0	27.009	0	488.233	0	30.8	4	9.8	4	-1E+10	1	-1E+10	1	-1E+10	1	-1E+10	1	-1E+10	1	-1E+10	1
4902551	68	C	06/29/2022	12:03	-131.982	49.087	0	497.70	0	4.4770	0	34.0810	0	27.009	0	492.882	0	29.9	4	9.5	4	-1E+10	1	-1E+10	1	-1E+10	1	-1E+10	1	-1E+10	1	-1E+10	1
4902551	68	C	06/29/2022	12:03	-131.982	49.087	0	503.00	0	4.4750	0	34.0880	0	27.015	0	498.124	0	29.3	4	9.3	4	-1E+10	1	-1E+10	1	-1E+10	1	-1E+10	1	-1E+10	1	-1E+10	1
4902551	68	C	06/29/2022	12:03	-131.982	49.087	0	507.80	0	4.4360	0	34.0880	0	27.019	0	502.872	0	28.7	4	9.1	4	-1E+10	1	-1E+10	1	-1E+10	1	-1E+10	1	-1E+10	1	-1E+10	1
4902551	68	C	06/29/2022	12:03	-131.982	49.087	0	512.70	0	4.4440	0	34.0960	0	27.025	0	507.718	0	27.8	4	8.9	4	-1E+10	1	-1E+10	1	-1E+10	1	-1E+10	1	-1E+10	1	-1E+10	1
4902551	68	C	06/29/2022	12:03	-131.982	49.087	0	517.90	0	4.4130	0	34.1000	0	27.031	0	512.861	0	27.5	4	8.7	4	-1E+10	1	-1E+10	1	-1E+10	1	-1E+10	1	-1E+10	1	-1E+10	1
4902551	68	C	06/29/2022	12:03	-131.982	49.087	0	523.10	0	4.4040	0	34.1050	0	27.036	0	518.004	0	27.3	4	8.7	4	-1E+10	1	-1E+10	1	-1E+10	1	-1E+10	1	-1E+10	1	-1E+10	1
4902551	68	C	06/29/2022	12:03	-131.982	49.087	0	528.20	0	4.3890	0	34.1050	0	27.038	0	523.048	0	27.3	4	8.7	4	-1E+10	1	-1E+10	1	-1E+10	1	-1E+10	1	-1E+10	1	-1E+10	1
4902551	68	C	06/29/2022	12:03	-131.982	49.087	0	532.90	0	4.3760	0	34.1090	0	27.042	0	527.696	0	27.7	4	8.8	4	-1E+10	1	-1E+10	1	-1E+10	1	-1E+10	1	-1E+10	1	-1E+10	1
4902551	68	C	06/29/2022	12:03	-131.982	49.087	0	537.60	0	4.3280	0	34.1100	0	27.048	0	532.344	0	28.5	4	9.1	4	-1E+10	1	-1E+10	1	-1E+10	1	-1E+10	1	-1E+10	1	-1E+10	1
4902551	68	C	06/29/2022	12:03	-131.982	49.087	0	542.80	0	4.2520	0	34.1030	0	27.051	0	537.487	0	29.2	4	9.3	4	-1E+10	1	-1E+10	1	-1E+10	1	-1E+10	1	-1E+10	1	-1E+10	1
4902551	68	C	06/29/2022	12:03	-131.982	49.087	0	547.90	0	4.1980	0	34.1020	0	27.056	0	542.530	0	29.5	4	9.4	4	-1E+10	1	-1E+10	1	-1E+10	1	-1E+10	1	-1E+10	1	-1E+10	1
4902551	68	C	06/29/2022	12:03	-131.982	49.087	0	553.10	0	4.1440	0	34.1020	0	27.061	0	547.672	0	29.1	4	9.2	4	-1E+10	1	-1E+10	1	-1E+10	1	-1E+10	1	-1E+10	1	-1E+10	1
4902551	68	C	06/29/2022	12:03	-131.982	49.087	0	557.90	0	4.1070	0	34.0990	0	27.063	0	552.419	0	28.0	4	8.9	4	-1E+10	1	-1E+10	1	-1E+10	1	-1E+10	1	-1E+10	1	-1E+10	1
4902551	68	C	06/29/2022	12:03	-131.982	49.087	0	562.70	0	4.1380	0	34.1100	0	27.068	0	557.165	0	26.3	4	8.3	4	-1E+10	1	-1E+10	1	-1E+10	1	-1E+10	1	-1E+10	1	-1E+10	1
4902551	68	C	06/29/2022	12:03	-131.982	49.087	0	567.70	0	4.1530	0	34.1180	0	27.073	0	562.109	0	25.7	4	8.1	4	-1E+10	1	-1E+10	1	-1E+10	1	-1E+10	1	-1E+10	1	-1E+10	1
4902551	68	C	06/29/2022	12:03	-131.982	49.087	0	572.90	0	4.1370	0	34.1230	0	27.079	0	567.251	0	25.4	4	8.1	4	-1E+10	1	-1E+10	1	-1E+10	1	-1E+10	1	-1E+10	1	-1E+10	1
4902551	68	C	06/29/2022	12:03	-131.982	49.087	0	578.20	0	4.1220	0	34.1240	0	27.081	0	572.491	0	25.1	4	7.9	4	-1E+10	1	-1E+10	1	-1E+10	1	-1E+10	1	-1E+10	1	-1E+10	1
4902551	68	C	06/29/2022	12:03	-131.982	49.087	0	583.10	0	4.0930	0	34.1280	0	27.087	0	577.336	0	24.6	4	7.8	4	-1E+10	1	-1E+10	1	-1E+10	1	-1E+10	1	-1E+10	1	-1E+10	1
4902551	68	C	06/29/2022	12:03	-131.982	49.087	0	588.10	0	4.0580	0	34.1300	0	27.093	0	582.280	0	23.8	4	7.5	4	-1E+10	1	-1E+10	1	-1E+10	1	-1E+10	1	-1E+10	1	-1E+10	1
4902551	68	C	06/29/2022	12:03	-131.982	49.087	0	593.20	0	4.0480	0	34.1380	0	27.100	0	587.322	0	23.0	4	7.3	4	-1E+10	1	-1E+10	1	-1E+10	1	-1E+10	1	-1E+10	1	-1E+10	1
4902551	68	C	06/29/2022	12:03	-131.982	49.087	0	598.30	0	4.0310	0	34.1400	0	27.103	0	592.364	0	21.9	4	6.9	4	-1E+10	1	-1E+10	1	-1E+10	1	-1E+10	1	-1E+10	1	-1E+10	1
4902551	68	C	06/29/2022	12:03	-131.982	49.087	0	603.40	0	4.0530	0	34.1470	0	27.107	0	597.406	0	20.3	4	6.4	4	-1E+10	1	-1E+10	1	-1E+10	1	-1E+10	1	-1E+10	1	-1E+10	1
4902551	68	C	06/29/2022	12:03	-131.982	49.087	0	608.00	0	4.0610	0	34.1570	0	27.114	0	601.954	0	19.1	4	6.0	4	-1E+10	1	-1E+10	1	-1E+10	1	-1E+10	1	-1E+10	1	-1E+10	1
4902551	68	C	06/29/2022	12:03	-131.982	49.087	0	613.00	0	4.0790	0	34.1650	0	27.118	0	606.897	0	18.0	4	5.7	4	-1E+10	1	-1E+10	1	-1E+10	1	-1E+10	1	-1E+10	1	-1E+10	1
4902551	68	C	06/29/2022	12:03	-131.982	49.087	0	618.10	0	4.0890	0	34.1760	0	27.126	0	611.939	0	17.1	4	5.4	4	-1E+10	1	-1E+10	1	-1E+10	1	-1E+10	1	-1E+10	1	-1E+10	1
4902551	68	C	06/29/2022	12:03	-131.982	49.087	0	622.90	0	4.0940	0	34.1840	0	27.132	0	616.684	0	16.7	4	5.3	4	-1E+10	1	-1E+10	1	-1E+10	1	-1E+10	1	-1E+10	1	-1E+10	1
4902551	68	C	06/29/2022	12:03	-131.982	49.087	0	627.70	0	4.0890	0	34.1870	0	27.135	0	621.429	0	16.4	4	5.2	4	-1E+10	1	-1E+10	1	-1E+10	1	-1E+10	1	-1E+10	1	-1E+10	1
4902551	68	C	06/29/2022	12:03	-131.982	49.087	0	632.60	0	4.0870	0	34.1900	0	27.138	0	626.272	0	16.1	4	5.1	4	-1E+10	1	-1E+10	1	-1E+10	1	-1E+10	1	-1E+10	1	-1E+10	1
4902551	68	C	06/29/2022	12:03	-131.982	49.087	0	637.70	0	4.0790	0	34.1930	0	27.141	0	631.314	0	15.9	4	5.0	4	-1E+10	1	-1E+10	1	-1E+10	1	-1E+10	1	-1E+10	1	-1E+10	1
4902551	68	C	06/29/2022	12:03	-131.982	49.087	0	642.70	0	4.0640	0	34.1980	0	27.147	0	636.256	0	15.7	4	5.0	4	-1E+10	1	-1E+10	1	-1E+10	1	-1E+10	1	-1E+10	1	-1E+10	1
4902551	68	C	06/29/2022	12:03	-131.982	49.087	0	647.90	0	4.0470	0	34.2000	0	27.150	0	641.396	0	15.6	4	4.9	4	-1E+10	1	-1E+10	1	-1E+10	1	-1E+10	1	-1E+10	1	-1E+10	1
4902551	68	C	06/29/2022	12:03	-131.982	49.087	0	653.00	0	4.0440	0	34.2020	0	27.152	0	646.437	0	15.5	4	4.9	4	-1E+10	1	-1E+10	1	-1E+10	1	-1E+10	1	-1E+10	1	-1E+10	1
4902551	68	C	06/29/2022	12:03	-131.982	49.087	0	658.20	0	4.0410	0	34.2030	0	27.153	0	651.576	0	15.3	4	4.8	4	-1E+10	1	-1E+10	1	-1E+10	1	-1E+10	1	-1E+10	1	-1E+10	1
4902551	68	C	06/29/2022	12:03	-131.982	49.087	0	663.00	0	4.0340	0	34.2040	0	27.155	0	656.321	0	15.0	4	4.7	4	-1E+10	1	-1E+10	1	-1E+10	1	-1E+10	1	-1E+10	1	-1E+10	1
4902551	68	C	06/29/2022	12:03	-131.982	49.087	0	667.80	0	4.0270	0	34.2070	0	27.158	0	661.065	0	14.6	4	4.6	4	-1E+10	1	-1E+10	1	-1E+10	1	-1E+10	1	-1E+10	1	-1E+10	1
4902551	68	C	06/29/2022	12:03	-131.982	49.087	0	672.80	0	4.0080	0	34.2150	0	27.166	0	666.006	0	14.3	4	4.5	4	-1E+10	1	-1E+10	1	-1E+10	1	-1E+10	1	-1E+10	1	-1E+10	1
4902551	68	C	06/29/2022	12:03	-131.982	49.087	0	677.90	0	4.0050	0	34.2180	0	27.169	0	671.046	0	14.1	4	4.4	4	-1E+10	1	-1E+10	1	-1E+10	1	-1E+10	1	-1E+10	1	-1E+10	1
4902551	68	C	06/29/2022	12:03	-131.982	49.087	0	683.00	0	4.0060	0	34.2200	0	27.170	0	676.087	0	13.9	4	4.4	4	-1E+10	1	-1E+10	1	-1E+10	1	-1E+10	1	-1E+10	1	-1E+10	1
4902551	68	C	06/29/2022	12:03	-131.982	49.087	0	687.70	0	3.9970	0	34.2240	0	27.174	0	680.731	0	13.7	4	4.3	4	-1E+10	1	-1E+10	1	-1E+10	1	-1E+10	1	-1E+10	1	-1E+10	1
4902551	68	C	06/29/2022	12:03	-131.982	49.087	0	692.80	0	3.9900	0	34.2260	0	27.177	0	685.771	0	13.5	4	4.3	4	-1E+10	1	-1E+10	1	-1E+10	1	-1E+10	1	-1E+10	1	-1E+10	1
4902551	68	C	06/29/2022	12:03	-131.982	49.087	0	697.80	0	3.9810	0	34.2290	0	27.180	0	690.712	0	13.3	4	4.2	4	-1E+10	1	-1E+10	1	-1E+10	1	-1E+10	1	-1E+10	1	-1E+10	1
4902551	68	C	06/29/2022	12:03	-131.982	49.087	0	702.90	0	3.9600	0	34.2330	0	27.185	0	695.752	0	13.2	4	4.2	4	-1E+10	1	-1E+10	1	-1E+10	1	-1E+10	1	-1E+10	1	-1E+10	1
4902551	68	C	06/29/2022	12:03	-131.982	49.087	0	707.90	0	3.9570	0	34.2360	0	27.188	0	700.693	0	13.1	4	4.1	4	-1E+10	1	-1E+10	1	-1E+10	1	-1E+10	1	-1E+10	1	-1E+10	1
4902551	68	C	06/29/2022	12:03	-131.982	49.087	0	712.90	0	3.9530	0	34.2390	0	27.191	0	705.633	0	13.1	4	4.1	4	-1E+10	1	-1E+10	1	-1E+10	1	-1E+10	1	-1E+10	1	-1E+10	1
4902551	68	C	06/29/2022	12:03	-131.982	49.087	0	718.00	0	3.9140	0	34.2400	0	27.196	0	710.673	0	13.0	4	4.1	4	-1E+10	1	-1E+10	1	-1E+10	1	-1E+10	1	-1E+10	1	-1E+10	1
4902551	68	C	06/29/2022	12:03	-131.982	49.087	0	723.10	0	3.9070	0	34.2410	0	27.197	0	715.712	0	12.9	4	4.1	4	-1E+10	1	-1E+10	1	-1E+10	1	-1E+10	1	-1E+10	1	-1E+10	1
4902551	68	C	06/29/2022	12:03	-131.982	49.087	0	728.20	0	3.8860	0	34.2450	0	27.203	0	720.751	0	12.7	4	4.0	4	-1E+10	1	-1E+10	1	-1E+10	1	-1E+10	1	-1E+10	1	-1E+10	1
4902551	68	C	06/29/2022	12:03	-131.982	49.087	0	732.90	0	3.8730	0	34.2450	0	27.204	0	725.395	0	12.4	4	3.9	4	-1E+10	1	-1E+10	1	-1E+10	1	-1E+10	1	-1E+10	1	-1E+10	1
4902551	68	C	06/29/2022	12:03	-131.982	49.087	0	737.70	0	3.8820	0	34.2510	0	27.208	0	730.137	0	12.2	4	3.8	4	-1E+10	1	-1E+10	1	-1E+10	1	-1E+10	1	-1E+10	1	-1E+10	1
4902551	68	C	06/29/2022	12:03	-131.982	49.087	0	742.80	0	3.8790	0	34.2510	0	27.208	0	735.176	0	11.9	4	3.7	4	-1E+10	1	-1E+10	1	-1E+10	1	-1E+10	1	-1E+10	1	-1E+10	1
4902551	68	C	06/29/2022	12:03	-131.982	49.087	0	748.00	0	3.8850	0	34.2620	0	27.216	0	740.313	0	11.7	4	3.7	4	-1E+10	1	-1E+10	1	-1E+10	1	-1E+10	1	-1E+10	1	-1E+10	1
4902551	68	C	06/29/2022	12:03	-131.982	49.087	0	752.70	0	3.8810	0	34.2640	0	27.218	0	744.957	0	11.6	4	3.7	4	-1E+10	1	-1E+10	1	-1E+10	1	-1E+10	1	-1E+10	1	-1E+10	1
4902551	68	C	06/29/2022	12:03	-131.982	49.087	0	757.80	0	3.8710	0	34.2680	0	27.223	0	749.995	0	11.5	4	3.6	4	-1E+10	1	-1E+10	1	-1E+10	1	-1E+10	1	-1E+10	1	-1E+10	1
4902551	68	C	06/29/2022	12:03	-131.982	49.087	0	763.10	0	3.8600	0	34.2710	0	27.226	0	755.231	0	11.6	4	3.6	4	-1E+10	1	-1E+10	1	-1E+10	1	-1E+10	1	-1E+10	1	-1E+10	1
4902551	68	C	06/29/2022	12:03	-131.982	49.087	0	767.90	0	3.8540	0	34.2710	0	27.227	0	759.973	0	11.6	4	3.7	4	-1E+10	1	-1E+10	1	-1E+10	1	-1E+10	1	-1E+10	1	-1E+10	1
4902551	68	C	06/29/2022	12:03	-131.982	49.087	0	772.80	0	3.8260	0	34.2720	0	27.230	0	764.813	0	11.7	4	3.7	4	-1E+10	1	-1E+10	1	-1E+10	1	-1E+10	1	-1E+10	1	-1E+10	1
4902551	68	C	06/29/2022	12:03	-131.982	49.087	0	777.70	0	3.7950	0	34.2730	0	27.234	0	769.653	0	11.8	4	3.7	4	-1E+10	1	-1E+10	1	-1E+10	1	-1E+10	1	-1E+10	1	-1E+10	1
4902551	68	C	06/29/2022	12:03	-131.982	49.087	0	782.50	0	3.7520	0	34.2710	0	27.237	0	774.395	0	11.7	4	3.7	4	-1E+10	1	-1E+10	1	-1E+10	1	-1E+10	1	-1E+10	1	-1E+10	1
4902551	68	C	06/29/2022	12:03	-131.982	49.087	0	787.50	0	3.7410	0	34.2790	0	27.245	0	779.334	0	11.6	4	3.6	4	-1E+10	1	-1E+10	1	-1E+10	1	-1E+10	1	-1E+10	1	-1E+10	1
4902551	68	C	06/29/2022	12:03	-131.982	49.087	0	792.50	0	3.7040	0	34.2830	0	27.251	0	784.273	0	11.6	4	3.6	4	-1E+10	1	-1E+10	1	-1E+10	1	-1E+10	1	-1E+10	1	-1E+10	1
4902551	68	C	06/29/2022	12:03	-131.982	49.087	0	797.50	0	3.6830	0	34.2810	0	27.252	0	789.211	0	11.4	4	3.6	4	-1E+10	1	-1E+10	1	-1E+10	1	-1E+10	1	-1E+10	1	-1E+10	1
4902551	68	C	06/29/2022	12:03	-131.982	49.087	0	802.50	0	3.7040	0	34.2880	0	27.256	0	794.150	0	11.3	4	3.6	4	-1E+10	1	-1E+10	1	-1E+10	1	-1E+10	1	-1E+10	1	-1E+10	1
4902551	68	C	06/29/2022	12:03	-131.982	49.087	0	807.60	0	3.6860	0	34.2910	0	27.260	0	799.187	0	11.3	4	3.5	4	-1E+10	1	-1E+10	1	-1E+10	1	-1E+10	1	-1E+10	1	-1E+10	1
4902551	68	C	06/29/2022	12:03	-131.982	49.087	0	812.60	0	3.6630	0	34.2940	0	27.264	0	804.125	0	11.3	4	3.5	4	-1E+10	1	-1E+10	1	-1E+10	1	-1E+10	1	-1E+10	1	-1E+10	1
4902551	68	C	06/29/2022	12:03	-131.982	49.087	0	817.60	0	3.6560	0	34.2960	0	27.267	0	809.063	0	11.2	4	3.5	4	-1E+10	1	-1E+10	1	-1E+10	1	-1E+10	1	-1E+10	1	-1E+10	1
4902551	68	C	06/29/2022	12:03	-131.982	49.087	0	823.00	0	3.6460	0	34.3040	0	27.274	0	814.396	0	11.1	4	3.5	4	-1E+10	1	-1E+10	1	-1E+10	1	-1E+10	1	-1E+10	1	-1E+10	1
4902551	68	C	06/29/2022	12:03	-131.982	49.087	0	828.10	0	3.6300	0	34.3060	0	27.277	0	819.433	0	11.1	4	3.5	4	-1E+10	1	-1E+10	1	-1E+10	1	-1E+10	1	-1E+10	1	-1E+10	1
4902551	68	C	06/29/2022	12:03	-131.982	49.087	0	832.90	0	3.6060	0	34.3090	0	27.282	0	824.173	0	11.1	4	3.5	4	-1E+10	1	-1E+10	1	-1E+10	1	-1E+10	1	-1E+10	1	-1E+10	1
4902551	68	C	06/29/2022	12:03	-131.982	49.087	0	837.70	0	3.5870	0	34.3120	0	27.286	0	828.914	0	11.2	4	3.5	4	-1E+10	1	-1E+10	1	-1E+10	1	-1E+10	1	-1E+10	1	-1E+10	1
4902551	68	C	06/29/2022	12:03	-131.982	49.087	0	842.70	0	3.5780	0	34.3130	0	27.288	0	833.851	0	11.2	4	3.5	4	-1E+10	1	-1E+10	1	-1E+10	1	-1E+10	1	-1E+10	1	-1E+10	1
4902551	68	C	06/29/2022	12:03	-131.982	49.087	0	847.80	0	3.5570	0	34.3160	0	27.292	0	838.887	0	11.2	4	3.5	4	-1E+10	1	-1E+10	1	-1E+10	1	-1E+10	1	-1E+10	1	-1E+10	1
4902551	68	C	06/29/2022	12:03	-131.982	49.087	0	852.80	0	3.5340	0	34.3180	0	27.296	0	843.825	0	11.2	4	3.5	4	-1E+10	1	-1E+10	1	-1E+10	1	-1E+10	1	-1E+10	1	-1E+10	1
4902551	68	C	06/29/2022	12:03	-131.982	49.087	0	857.80	0	3.5250	0	34.3180	0	27.297	0	848.762	0	11.2	4	3.5	4	-1E+10	1	-1E+10	1	-1E+10	1	-1E+10	1	-1E+10	1	-1E+10	1
4902551	68	C	06/29/2022	12:03	-131.982	49.087	0	862.70	0	3.5130	0	34.3210	0	27.301	0	853.600	0	11.3	4	3.5	4	-1E+10	1	-1E+10	1	-1E+10	1	-1E+10	1	-1E+10	1	-1E+10	1
4902551	68	C	06/29/2022	12:03	-131.982	49.087	0	867.80	0	3.4970	0	34.3210	0	27.302	0	858.636	0	11.3	4	3.5	4	-1E+10	1	-1E+10	1	-1E+10	1	-1E+10	1	-1E+10	1	-1E+10	1
4902551	68	C	06/29/2022	12:03	-131.982	49.087	0	872.80	0	3.4830	0	34.3220	0	27.305	0	863.573	0	11.3	4	3.5	4	-1E+10	1	-1E+10	1	-1E+10	1	-1E+10	1	-1E+10	1	-1E+10	1
4902551	68	C	06/29/2022	12:03	-131.982	49.087	0	877.80	0	3.4720	0	34.3230	0	27.306	0	868.510	0	11.3	4	3.5	4	-1E+10	1	-1E+10	1	-1E+10	1	-1E+10	1	-1E+10	1	-1E+10	1
4902551	68	C	06/29/2022	12:03	-131.982	49.087	0	882.90	0	3.4610	0	34.3270	0	27.311	0	873.545	0	11.3	4	3.5	4	-1E+10	1	-1E+10	1	-1E+10	1	-1E+10	1	-1E+10	1	-1E+10	1
4902551	68	C	06/29/2022	12:03	-131.982	49.087	0	887.90	0	3.4460	0	34.3300	0	27.315	0	878.482	0	11.3	4	3.5	4	-1E+10	1	-1E+10	1	-1E+10	1	-1E+10	1	-1E+10	1	-1E+10	1
4902551	68	C	06/29/2022	12:03	-131.982	49.087	0	893.10	0	3.4290	0	34.3320	0	27.318	0	883.616	0	11.3	4	3.5	4	-1E+10	1	-1E+10	1	-1E+10	1	-1E+10	1	-1E+10	1	-1E+10	1
4902551	68	C	06/29/2022	12:03	-131.982	49.087	0	898.00	0	3.4050	0	34.3340	0	27.322	0	888.453	0	11.4	4	3.5	4	-1E+10	1	-1E+10	1	-1E+10	1	-1E+10	1	-1E+10	1	-1E+10	1
4902551	68	C	06/29/2022	12:03	-131.982	49.087	0	902.90	0	3.3930	0	34.3360	0	27.324	0	893.291	0	11.4	4	3.6	4	-1E+10	1	-1E+10	1	-1E+10	1	-1E+10	1	-1E+10	1	-1E+10	1
4902551	68	C	06/29/2022	12:03	-131.982	49.087	0	908.00	0	3.3790	0	34.3380	0	27.327	0	898.325	0	11.4	4	3.6	4	-1E+10	1	-1E+10	1	-1E+10	1	-1E+10	1	-1E+10	1	-1E+10	1
4902551	68	C	06/29/2022	12:03	-131.982	49.087	0	912.90	0	3.3580	0	34.3410	0	27.332	0	903.163	0	11.5	4	3.6	4	-1E+10	1	-1E+10	1	-1E+10	1	-1E+10	1	-1E+10	1	-1E+10	1
4902551	68	C	06/29/2022	12:03	-131.982	49.087	0	918.00	0	3.3470	0	34.3410	0	27.333	0	908.197	0	11.5	4	3.6	4	-1E+10	1	-1E+10	1	-1E+10	1	-1E+10	1	-1E+10	1	-1E+10	1
4902551	68	C	06/29/2022	12:03	-131.982	49.087	0	922.70	0	3.3400	0	34.3440	0	27.336	0	912.837	0	11.5	4	3.6	4	-1E+10	1	-1E+10	1	-1E+10	1	-1E+10	1	-1E+10	1	-1E+10	1
4902551	68	C	06/29/2022	12:03	-131.982	49.087	0	927.90	0	3.3230	0	34.3480	0	27.341	0	917.970	0	11.5	4	3.6	4	-1E+10	1	-1E+10	1	-1E+10	1	-1E+10	1	-1E+10	1	-1E+10	1
4902551	68	C	06/29/2022	12:03	-131.982	49.087	0	933.10	0	3.3130	0	34.3490	0	27.343	0	923.103	0	11.5	4	3.6	4	-1E+10	1	-1E+10	1	-1E+10	1	-1E+10	1	-1E+10	1	-1E+10	1
4902551	68	C	06/29/2022	12:03	-131.982	49.087	0	937.90	0	3.2970	0	34.3530	0	27.347	0	927.841	0	11.6	4	3.6	4	-1E+10	1	-1E+10	1	-1E+10	1	-1E+10	1	-1E+10	1	-1E+10	1
4902551	68	C	06/29/2022	12:03	-131.982	49.087	0	942.80	0	3.2800	0	34.3530	0	27.349	0	932.677	0	11.6	4	3.6	4	-1E+10	1	-1E+10	1	-1E+10	1	-1E+10	1	-1E+10	1	-1E+10	1
4902551	68	C	06/29/2022	12:03	-131.982	49.087	0	947.80	0	3.2730	0	34.3540	0	27.350	0	937.612	0	11.7	4	3.6	4	-1E+10	1	-1E+10	1	-1E+10	1	-1E+10	1	-1E+10	1	-1E+10	1
4902551	68	C	06/29/2022	12:03	-131.982	49.087	0	952.80	0	3.2640	0	34.3570	0	27.354	0	942.547	0	11.7	4	3.6	4	-1E+10	1	-1E+10	1	-1E+10	1	-1E+10	1	-1E+10	1	-1E+10	1
4902551	68	C	06/29/2022	12:03	-131.982	49.087	0	957.80	0	3.2470	0	34.3580	0	27.356	0	947.482	0	11.7	4	3.6	4	-1E+10	1	-1E+10	1	-1E+10	1	-1E+10	1	-1E+10	1	-1E+10	1
4902551	68	C	06/29/2022	12:03	-131.982	49.087	0	962.90	0	3.2360	0	34.3580	0	27.357	0	952.516	0	11.8	4	3.7	4	-1E+10	1	-1E+10	1	-1E+10	1	-1E+10	1	-1E+10	1	-1E+10	1
4902551	68	C	06/29/2022	12:03	-131.982	49.087	0	967.90	0	3.2180	0	34.3600	0	27.360	0	957.450	0	11.8	4	3.7	4	-1E+10	1	-1E+10	1	-1E+10	1	-1E+10	1	-1E+10	1	-1E+10	1
4902551	68	C	06/29/2022	12:03	-131.982	49.087	0	973.00	0	3.2010	0	34.3610	0	27.363	0	962.483	0	11.8	4	3.7	4	-1E+10	1	-1E+10	1	-1E+10	1	-1E+10	1	-1E+10	1	-1E+10	1
4902551	68	C	06/29/2022	12:03	-131.982	49.087	0	978.20	0	3.1940	0	34.3610	0	27.363	0	967.615	0	11.9	4	3.7	4	-1E+10	1	-1E+10	1	-1E+10	1	-1E+10	1	-1E+10	1	-1E+10	1
4902551	68	C	06/29/2022	12:03	-131.982	49.087	0	983.30	0	3.1950	0	34.3640	0	27.366	0	972.648	0	11.9	4	3.7	4	-1E+10	1	-1E+10	1	-1E+10	1	-1E+10	1	-1E+10	1	-1E+10	1
4902551	68	C	06/29/2022	12:03	-131.982	49.087	0	987.90	0	3.1880	0	34.3660	0	27.368	0	977.188	0	11.9	4	3.7	4	-1E+10	1	-1E+10	1	-1E+10	1	-1E+10	1	-1E+10	1	-1E+10	1
4902551	68	C	06/29/2022	12:03	-131.982	49.087	0	992.50	0	3.1850	0	34.3670	0	27.369	0	981.727	0	11.9	4	3.7	4	-1E+10	1	-1E+10	1	-1E+10	1	-1E+10	1	-1E+10	1	-1E+10	1
4902551	68	C	06/29/2022	12:03	-131.982	49.087	0	997.70	0	3.1790	0	34.3680	0	27.371	0	986.858	0	11.9	4	3.7	4	-1E+10	1	-1E+10	1	-1E+10	1	-1E+10	1	-1E+10	1	-1E+10	1
4902551	68	C	06/29/2022	12:03	-131.982	49.087	0	1005.40	0	3.1590	0	34.3710	0	27.375	0	994.456	0	12.0	4	3.7	4	-1E+10	1	-1E+10	1	-1E+10	1	-1E+10	1	-1E+10	1	-1E+10	1
4902551	68	C	06/29/2022	12:03	-131.982	49.087	0	1015.70	0	3.1350	0	34.3750	0	27.380	0	1004.620	0	12.1	4	3.7	4	-1E+10	1	-1E+10	1	-1E+10	1	-1E+10	1	-1E+10	1	-1E+10	1
4902551	68	C	06/29/2022	12:03	-131.982	49.087	0	1025.50	0	3.1090	0	34.3790	0	27.386	0	1014.289	0	12.2	4	3.8	4	-1E+10	1	-1E+10	1	-1E+10	1	-1E+10	1	-1E+10	1	-1E+10	1
4902551	68	C	06/29/2022	12:03	-131.982	49.087	0	1035.20	0	3.0890	0	34.3830	0	27.391	0	1023.859	0	12.3	4	3.8	4	-1E+10	1	-1E+10	1	-1E+10	1	-1E+10	1	-1E+10	1	-1E+10	1
4902551	68	C	06/29/2022	12:03	-131.982	49.087	0	1045.40	0	3.0710	0	34.3870	0	27.396	0	1033.922	0	12.4	4	3.8	4	-1E+10	1	-1E+10	1	-1E+10	1	-1E+10	1	-1E+10	1	-1E+10	1
4902551	68	C	06/29/2022	12:03	-131.982	49.087	0	1055.70	0	3.0470	0	34.3920	0	27.402	0	1044.084	0	12.5	4	3.9	4	-1E+10	1	-1E+10	1	-1E+10	1	-1E+10	1	-1E+10	1	-1E+10	1
4902551	68	C	06/29/2022	12:03	-131.982	49.087	0	1065.70	0	3.0260	0	34.3940	0	27.406	0	1053.949	0	12.6	4	3.9	4	-1E+10	1	-1E+10	1	-1E+10	1	-1E+10	1	-1E+10	1	-1E+10	1
4902551	68	C	06/29/2022	12:03	-131.982	49.087	0	1075.50	0	3.0140	0	34.3960	0	27.408	0	1063.616	0	12.7	4	3.9	4	-1E+10	1	-1E+10	1	-1E+10	1	-1E+10	1	-1E+10	1	-1E+10	1
4902551	68	C	06/29/2022	12:03	-131.982	49.087	0	1085.30	0	3.0010	0	34.3990	0	27.412	0	1073.282	0	12.8	4	3.9	4	-1E+10	1	-1E+10	1	-1E+10	1	-1E+10	1	-1E+10	1	-1E+10	1
4902551	68	C	06/29/2022	12:03	-131.982	49.087	0	1095.20	0	2.9840	0	34.4010	0	27.415	0	1083.047	0	12.9	4	4.0	4	-1E+10	1	-1E+10	1	-1E+10	1	-1E+10	1	-1E+10	1	-1E+10	1
4902551	68	C	06/29/2022	12:03	-131.982	49.087	0	1105.30	0	2.9720	0	34.4030	0	27.418	0	1093.009	0	13.0	4	4.0	4	-1E+10	1	-1E+10	1	-1E+10	1	-1E+10	1	-1E+10	1	-1E+10	1
4902551	68	C	06/29/2022	12:03	-131.982	49.087	0	1115.50	0	2.9420	0	34.4070	0	27.424	0	1103.069	0	13.1	4	4.1	4	-1E+10	1	-1E+10	1	-1E+10	1	-1E+10	1	-1E+10	1	-1E+10	1
4902551	68	C	06/29/2022	12:03	-131.982	49.087	0	1125.30	0	2.9190	0	34.4110	0	27.429	0	1112.733	0	13.3	4	4.1	4	-1E+10	1	-1E+10	1	-1E+10	1	-1E+10	1	-1E+10	1	-1E+10	1
4902551	68	C	06/29/2022	12:03	-131.982	49.087	0	1135.30	0	2.8990	0	34.4130	0	27.433	0	1122.595	0	13.4	4	4.1	4	-1E+10	1	-1E+10	1	-1E+10	1	-1E+10	1	-1E+10	1	-1E+10	1
4902551	68	C	06/29/2022	12:03	-131.982	49.087	0	1145.40	0	2.8810	0	34.4160	0	27.437	0	1132.555	0	13.6	4	4.2	4	-1E+10	1	-1E+10	1	-1E+10	1	-1E+10	1	-1E+10	1	-1E+10	1
4902551	68	C	06/29/2022	12:03	-131.982	49.087	0	1155.30	0	2.8700	0	34.4180	0	27.439	0	1142.317	0	13.7	4	4.2	4	-1E+10	1	-1E+10	1	-1E+10	1	-1E+10	1	-1E+10	1	-1E+10	1
4902551	68	C	06/29/2022	12:03	-131.982	49.087	0	1165.30	0	2.8520	0	34.4200	0	27.443	0	1152.177	0	13.9	4	4.3	4	-1E+10	1	-1E+10	1	-1E+10	1	-1E+10	1	-1E+10	1	-1E+10	1
4902551	68	C	06/29/2022	12:03	-131.982	49.087	0	1175.30	0	2.8260	0	34.4240	0	27.448	0	1162.037	0	14.2	4	4.4	4	-1E+10	1	-1E+10	1	-1E+10	1	-1E+10	1	-1E+10	1	-1E+10	1
4902551	68	C	06/29/2022	12:03	-131.982	49.087	0	1185.60	0	2.8180	0	34.4300	0	27.454	0	1172.192	0	14.4	4	4.4	4	-1E+10	1	-1E+10	1	-1E+10	1	-1E+10	1	-1E+10	1	-1E+10	1
4902551	68	C	06/29/2022	12:03	-131.982	49.087	0	1195.20	0	2.7920	0	34.4310	0	27.457	0	1181.656	0	14.5	4	4.5	4	-1E+10	1	-1E+10	1	-1E+10	1	-1E+10	1	-1E+10	1	-1E+10	1
4902551	68	C	06/29/2022	12:03	-131.982	49.087	0	1205.50	0	2.7820	0	34.4330	0	27.459	0	1191.811	0	14.7	4	4.5	4	-1E+10	1	-1E+10	1	-1E+10	1	-1E+10	1	-1E+10	1	-1E+10	1
4902551	68	C	06/29/2022	12:03	-131.982	49.087	0	1215.40	0	2.7720	0	34.4360	0	27.463	0	1201.570	0	15.0	4	4.6	4	-1E+10	1	-1E+10	1	-1E+10	1	-1E+10	1	-1E+10	1	-1E+10	1
4902551	68	C	06/29/2022	12:03	-131.982	49.087	0	1225.40	0	2.7460	0	34.4390	0	27.467	0	1211.427	0	15.3	4	4.7	4	-1E+10	1	-1E+10	1	-1E+10	1	-1E+10	1	-1E+10	1	-1E+10	1
4902551	68	C	06/29/2022	12:03	-131.982	49.087	0	1235.40	0	2.7340	0	34.4420	0	27.471	0	1221.284	0	15.6	4	4.8	4	-1E+10	1	-1E+10	1	-1E+10	1	-1E+10	1	-1E+10	1	-1E+10	1
4902551	68	C	06/29/2022	12:03	-131.982	49.087	0	1245.50	0	2.7200	0	34.4450	0	27.474	0	1231.239	0	16.0	4	4.9	4	-1E+10	1	-1E+10	1	-1E+10	1	-1E+10	1	-1E+10	1	-1E+10	1
4902551	68	C	06/29/2022	12:03	-131.982	49.087	0	1255.30	0	2.7030	0	34.4490	0	27.479	0	1240.898	0	16.3	4	5.0	4	-1E+10	1	-1E+10	1	-1E+10	1	-1E+10	1	-1E+10	1	-1E+10	1
4902551	68	C	06/29/2022	12:03	-131.982	49.087	0	1265.30	0	2.6860	0	34.4520	0	27.483	0	1250.754	0	16.5	4	5.1	4	-1E+10	1	-1E+10	1	-1E+10	1	-1E+10	1	-1E+10	1	-1E+10	1
4902551	68	C	06/29/2022	12:03	-131.982	49.087	0	1275.40	0	2.6730	0	34.4520	0	27.484	0	1260.707	0	16.8	4	5.2	4	-1E+10	1	-1E+10	1	-1E+10	1	-1E+10	1	-1E+10	1	-1E+10	1
4902551	68	C	06/29/2022	12:03	-131.982	49.087	0	1285.10	0	2.6590	0	34.4560	0	27.489	0	1270.266	0	17.4	4	5.3	4	-1E+10	1	-1E+10	1	-1E+10	1	-1E+10	1	-1E+10	1	-1E+10	1
4902551	68	C	06/29/2022	12:03	-131.982	49.087	0	1295.70	0	2.6390	0	34.4610	0	27.495	0	1280.712	0	17.9	4	5.5	4	-1E+10	1	-1E+10	1	-1E+10	1	-1E+10	1	-1E+10	1	-1E+10	1
4902551	68	C	06/29/2022	12:03	-131.982	49.087	0	1305.50	0	2.6200	0	34.4640	0	27.499	0	1290.369	0	18.3	4	5.6	4	-1E+10	1	-1E+10	1	-1E+10	1	-1E+10	1	-1E+10	1	-1E+10	1
4902551	68	C	06/29/2022	12:03	-131.982	49.087	0	1315.30	0	2.6100	0	34.4660	0	27.501	0	1300.025	0	18.7	4	5.7	4	-1E+10	1	-1E+10	1	-1E+10	1	-1E+10	1	-1E+10	1	-1E+10	1
4902551	68	C	06/29/2022	12:03	-131.982	49.087	0	1325.50	0	2.5950	0	34.4690	0	27.505	0	1310.075	0	19.0	4	5.8	4	-1E+10	1	-1E+10	1	-1E+10	1	-1E+10	1	-1E+10	1	-1E+10	1
4902551	68	C	06/29/2022	12:03	-131.982	49.087	0	1335.40	0	2.5750	0	34.4720	0	27.509	0	1319.828	0	19.4	4	5.9	4	-1E+10	1	-1E+10	1	-1E+10	1	-1E+10	1	-1E+10	1	-1E+10	1
4902551	68	C	06/29/2022	12:03	-131.982	49.087	0	1345.40	0	2.5570	0	34.4740	0	27.512	0	1329.680	0	19.7	4	6.0	4	-1E+10	1	-1E+10	1	-1E+10	1	-1E+10	1	-1E+10	1	-1E+10	1
4902551	68	C	06/29/2022	12:03	-131.982	49.087	0	1355.40	0	2.5500	0	34.4750	0	27.514	0	1339.532	0	19.9	4	6.1	4	-1E+10	1	-1E+10	1	-1E+10	1	-1E+10	1	-1E+10	1	-1E+10	1
4902551	68	C	06/29/2022	12:03	-131.982	49.087	0	1365.60	0	2.5410	0	34.4760	0	27.515	0	1349.580	0	20.1	4	6.1	4	-1E+10	1	-1E+10	1	-1E+10	1	-1E+10	1	-1E+10	1	-1E+10	1
4902551	68	C	06/29/2022	12:03	-131.982	49.087	0	1375.50	0	2.5240	0	34.4790	0	27.519	0	1359.332	0	20.5	4	6.3	4	-1E+10	1	-1E+10	1	-1E+10	1	-1E+10	1	-1E+10	1	-1E+10	1
4902551	68	C	06/29/2022	12:03	-131.982	49.087	0	1385.30	0	2.5060	0	34.4810	0	27.522	0	1368.985	0	21.0	4	6.4	4	-1E+10	1	-1E+10	1	-1E+10	1	-1E+10	1	-1E+10	1	-1E+10	1
4902551	68	C	06/29/2022	12:03	-131.982	49.087	0	1395.70	0	2.4910	0	34.4840	0	27.526	0	1379.228	0	21.5	4	6.6	4	-1E+10	1	-1E+10	1	-1E+10	1	-1E+10	1	-1E+10	1	-1E+10	1
4902551	68	C	06/29/2022	12:03	-131.982	49.087	0	1405.70	0	2.4840	0	34.4860	0	27.528	0	1389.077	0	21.9	4	6.7	4	-1E+10	1	-1E+10	1	-1E+10	1	-1E+10	1	-1E+10	1	-1E+10	1
4902551	68	C	06/29/2022	12:03	-131.982	49.087	0	1415.30	0	2.4780	0	34.4870	0	27.530	0	1398.532	0	22.3	4	6.8	4	-1E+10	1	-1E+10	1	-1E+10	1	-1E+10	1	-1E+10	1	-1E+10	1
4902551	68	C	06/29/2022	12:03	-131.982	49.087	0	1425.10	0	2.4700	0	34.4890	0	27.532	0	1408.183	0	22.7	4	6.9	4	-1E+10	1	-1E+10	1	-1E+10	1	-1E+10	1	-1E+10	1	-1E+10	1
4902551	68	C	06/29/2022	12:03	-131.982	49.087	0	1435.30	0	2.4560	0	34.4910	0	27.535	0	1418.228	0	23.1	4	7.0	4	-1E+10	1	-1E+10	1	-1E+10	1	-1E+10	1	-1E+10	1	-1E+10	1
4902551	68	C	06/29/2022	12:03	-131.982	49.087	0	1445.60	0	2.4470	0	34.4930	0	27.537	0	1428.370	0	23.6	4	7.2	4	-1E+10	1	-1E+10	1	-1E+10	1	-1E+10	1	-1E+10	1	-1E+10	1
4902551	68	C	06/29/2022	12:03	-131.982	49.087	0	1455.20	0	2.4320	0	34.4960	0	27.541	0	1437.823	0	24.2	4	7.4	4	-1E+10	1	-1E+10	1	-1E+10	1	-1E+10	1	-1E+10	1	-1E+10	1
4902551	68	C	06/29/2022	12:03	-131.982	49.087	0	1465.40	0	2.4200	0	34.4970	0	27.543	0	1447.867	0	24.8	4	7.6	4	-1E+10	1	-1E+10	1	-1E+10	1	-1E+10	1	-1E+10	1	-1E+10	1
4902551	68	C	06/29/2022	12:03	-131.982	49.087	0	1475.50	0	2.4090	0	34.5000	0	27.546	0	1457.811	0	25.4	4	7.7	4	-1E+10	1	-1E+10	1	-1E+10	1	-1E+10	1	-1E+10	1	-1E+10	1
4902551	68	C	06/29/2022	12:03	-131.982	49.087	0	1485.60	0	2.3990	0	34.5020	0	27.549	0	1467.755	0	25.7	4	7.8	4	-1E+10	1	-1E+10	1	-1E+10	1	-1E+10	1	-1E+10	1	-1E+10	1
4902551	68	C	06/29/2022	12:03	-131.982	49.087	0	1495.90	0	2.3930	0	34.5030	0	27.550	0	1477.895	0	26.1	4	8.0	4	-1E+10	1	-1E+10	1	-1E+10	1	-1E+10	1	-1E+10	1	-1E+10	1
4902551	68	C	06/29/2022	12:03	-131.982	49.087	0	1505.40	0	2.3800	0	34.5060	0	27.553	0	1487.247	0	26.7	4	8.1	4	-1E+10	1	-1E+10	1	-1E+10	1	-1E+10	1	-1E+10	1	-1E+10	1
4902551	68	C	06/29/2022	12:03	-131.982	49.087	0	1515.30	0	2.3630	0	34.5080	0	27.556	0	1496.993	0	27.3	4	8.3	4	-1E+10	1	-1E+10	1	-1E+10	1	-1E+10	1	-1E+10	1	-1E+10	1
4902551	68	C	06/29/2022	12:03	-131.982	49.087	0	1525.40	0	2.3440	0	34.5120	0	27.561	0	1506.935	0	27.9	4	8.5	4	-1E+10	1	-1E+10	1	-1E+10	1	-1E+10	1	-1E+10	1	-1E+10	1
4902551	68	C	06/29/2022	12:03	-131.982	49.087	0	1535.30	0	2.3290	0	34.5140	0	27.564	0	1516.680	0	28.5	4	8.7	4	-1E+10	1	-1E+10	1	-1E+10	1	-1E+10	1	-1E+10	1	-1E+10	1
4902551	68	C	06/29/2022	12:03	-131.982	49.087	0	1545.30	0	2.3190	0	34.5160	0	27.567	0	1526.522	0	28.9	4	8.8	4	-1E+10	1	-1E+10	1	-1E+10	1	-1E+10	1	-1E+10	1	-1E+10	1
4902551	68	C	06/29/2022	12:03	-131.982	49.087	0	1555.30	0	2.3070	0	34.5180	0	27.569	0	1536.364	0	29.3	4	8.9	4	-1E+10	1	-1E+10	1	-1E+10	1	-1E+10	1	-1E+10	1	-1E+10	1
4902551	68	C	06/29/2022	12:03	-131.982	49.087	0	1565.20	0	2.3000	0	34.5190	0	27.571	0	1546.108	0	29.7	4	9.0	4	-1E+10	1	-1E+10	1	-1E+10	1	-1E+10	1	-1E+10	1	-1E+10	1
4902551	68	C	06/29/2022	12:03	-131.982	49.087	0	1575.30	0	2.2880	0	34.5210	0	27.573	0	1556.047	0	30.2	4	9.2	4	-1E+10	1	-1E+10	1	-1E+10	1	-1E+10	1	-1E+10	1	-1E+10	1
4902551	68	C	06/29/2022	12:03	-131.982	49.087	0	1585.00	0	2.2780	0	34.5220	0	27.575	0	1565.593	0	30.6	4	9.3	4	-1E+10	1	-1E+10	1	-1E+10	1	-1E+10	1	-1E+10	1	-1E+10	1
4902551	68	C	06/29/2022	12:03	-131.982	49.087	0	1594.90	0	2.2730	0	34.5230	0	27.576	0	1575.335	0	31.2	4	9.5	4	-1E+10	1	-1E+10	1	-1E+10	1	-1E+10	1	-1E+10	1	-1E+10	1
4902551	68	C	06/29/2022	12:03	-131.982	49.087	0	1605.10	0	2.2640	0	34.5250	0	27.579	0	1585.372	0	31.9	4	9.7	4	-1E+10	1	-1E+10	1	-1E+10	1	-1E+10	1	-1E+10	1	-1E+10	1
4902551	68	C	06/29/2022	12:03	-131.982	49.087	0	1615.60	0	2.2540	0	34.5270	0	27.581	0	1595.703	0	32.8	4	9.9	4	-1E+10	1	-1E+10	1	-1E+10	1	-1E+10	1	-1E+10	1	-1E+10	1
4902551	68	C	06/29/2022	12:03	-131.982	49.087	0	1625.40	0	2.2420	0	34.5290	0	27.584	0	1605.345	0	33.4	4	10.1	4	-1E+10	1	-1E+10	1	-1E+10	1	-1E+10	1	-1E+10	1	-1E+10	1
4902551	68	C	06/29/2022	12:03	-131.982	49.087	0	1635.60	0	2.2360	0	34.5310	0	27.586	0	1615.381	0	33.8	4	10.2	4	-1E+10	1	-1E+10	1	-1E+10	1	-1E+10	1	-1E+10	1	-1E+10	1
4902551	68	C	06/29/2022	12:03	-131.982	49.087	0	1645.40	0	2.2280	0	34.5320	0	27.587	0	1625.022	0	34.3	4	10.4	4	-1E+10	1	-1E+10	1	-1E+10	1	-1E+10	1	-1E+10	1	-1E+10	1
4902551	68	C	06/29/2022	12:03	-131.982	49.087	0	1655.20	0	2.2190	0	34.5330	0	27.589	0	1634.663	0	35.0	4	10.6	4	-1E+10	1	-1E+10	1	-1E+10	1	-1E+10	1	-1E+10	1	-1E+10	1
4902551	68	C	06/29/2022	12:03	-131.982	49.087	0	1665.30	0	2.2120	0	34.5350	0	27.591	0	1644.598	0	35.7	4	10.8	4	-1E+10	1	-1E+10	1	-1E+10	1	-1E+10	1	-1E+10	1	-1E+10	1
4902551	68	C	06/29/2022	12:03	-131.982	49.087	0	1675.50	0	2.2030	0	34.5370	0	27.594	0	1654.632	0	36.4	4	11.0	4	-1E+10	1	-1E+10	1	-1E+10	1	-1E+10	1	-1E+10	1	-1E+10	1
4902551	68	C	06/29/2022	12:03	-131.982	49.087	0	1685.30	0	2.1890	0	34.5390	0	27.596	0	1664.271	0	37.3	4	11.3	4	-1E+10	1	-1E+10	1	-1E+10	1	-1E+10	1	-1E+10	1	-1E+10	1
4902551	68	C	06/29/2022	12:03	-131.982	49.087	0	1695.30	0	2.1780	0	34.5410	0	27.599	0	1674.107	0	38.0	4	11.5	4	-1E+10	1	-1E+10	1	-1E+10	1	-1E+10	1	-1E+10	1	-1E+10	1
4902551	68	C	06/29/2022	12:03	-131.982	49.087	0	1705.40	0	2.1650	0	34.5440	0	27.602	0	1684.041	0	38.8	4	11.7	4	-1E+10	1	-1E+10	1	-1E+10	1	-1E+10	1	-1E+10	1	-1E+10	1
4902551	68	C	06/29/2022	12:03	-131.982	49.087	0	1715.60	0	2.1530	0	34.5460	0	27.605	0	1694.072	0	39.6	4	12.0	4	-1E+10	1	-1E+10	1	-1E+10	1	-1E+10	1	-1E+10	1	-1E+10	1
4902551	68	C	06/29/2022	12:03	-131.982	49.087	0	1725.60	0	2.1420	0	34.5480	0	27.607	0	1703.906	0	40.1	4	12.1	4	-1E+10	1	-1E+10	1	-1E+10	1	-1E+10	1	-1E+10	1	-1E+10	1
4902551	68	C	06/29/2022	12:03	-131.982	49.087	0	1735.20	0	2.1360	0	34.5490	0	27.609	0	1713.347	0	40.6	4	12.3	4	-1E+10	1	-1E+10	1	-1E+10	1	-1E+10	1	-1E+10	1	-1E+10	1
4902551	68	C	06/29/2022	12:03	-131.982	49.087	0	1745.40	0	2.1300	0	34.5500	0	27.610	0	1723.377	0	41.3	4	12.5	4	-1E+10	1	-1E+10	1	-1E+10	1	-1E+10	1	-1E+10	1	-1E+10	1
4902551	68	C	06/29/2022	12:03	-131.982	49.087	0	1755.60	0	2.1140	0	34.5530	0	27.614	0	1733.407	0	42.1	4	12.7	4	-1E+10	1	-1E+10	1	-1E+10	1	-1E+10	1	-1E+10	1	-1E+10	1
4902551	68	C	06/29/2022	12:03	-131.982	49.087	0	1765.40	0	2.1050	0	34.5540	0	27.615	0	1743.043	0	42.4	4	12.8	4	-1E+10	1	-1E+10	1	-1E+10	1	-1E+10	1	-1E+10	1	-1E+10	1
4902551	68	C	06/29/2022	12:03	-131.982	49.087	0	1775.20	0	2.0980	0	34.5550	0	27.617	0	1752.678	0	42.7	4	12.9	4	-1E+10	1	-1E+10	1	-1E+10	1	-1E+10	1	-1E+10	1	-1E+10	1
4902551	68	C	06/29/2022	12:03	-131.982	49.087	0	1785.50	0	2.0920	0	34.5560	0	27.618	0	1762.805	0	43.2	4	13.0	4	-1E+10	1	-1E+10	1	-1E+10	1	-1E+10	1	-1E+10	1	-1E+10	1
4902551	68	C	06/29/2022	12:03	-131.982	49.087	0	1795.60	0	2.0850	0	34.5570	0	27.620	0	1772.734	0	43.7	4	13.2	4	-1E+10	1	-1E+10	1	-1E+10	1	-1E+10	1	-1E+10	1	-1E+10	1
4902551	68	C	06/29/2022	12:03	-131.982	49.087	0	1805.20	0	2.0760	0	34.5590	0	27.622	0	1782.172	0	44.3	4	13.4	4	-1E+10	1	-1E+10	1	-1E+10	1	-1E+10	1	-1E+10	1	-1E+10	1
4902551	68	C	06/29/2022	12:03	-131.982	49.087	0	1815.00	0	2.0660	0	34.5600	0	27.624	0	1791.805	0	44.7	4	13.5	4	-1E+10	1	-1E+10	1	-1E+10	1	-1E+10	1	-1E+10	1	-1E+10	1
4902551	68	C	06/29/2022	12:03	-131.982	49.087	0	1825.00	0	2.0600	0	34.5610	0	27.625	0	1801.635	0	44.9	4	13.6	4	-1E+10	1	-1E+10	1	-1E+10	1	-1E+10	1	-1E+10	1	-1E+10	1
4902551	68	C	06/29/2022	12:03	-131.982	49.087	0	1835.00	0	2.0530	0	34.5630	0	27.627	0	1811.465	0	45.3	4	13.7	4	-1E+10	1	-1E+10	1	-1E+10	1	-1E+10	1	-1E+10	1	-1E+10	1
4902551	68	C	06/29/2022	12:03	-131.982	49.087	0	1845.20	0	2.0490	0	34.5630	0	27.627	0	1821.490	0	46.0	4	13.9	4	-1E+10	1	-1E+10	1	-1E+10	1	-1E+10	1	-1E+10	1	-1E+10	1
4902551	68	C	06/29/2022	12:03	-131.982	49.087	0	1855.20	0	2.0430	0	34.5650	0	27.630	0	1831.319	0	46.6	4	14.1	4	-1E+10	1	-1E+10	1	-1E+10	1	-1E+10	1	-1E+10	1	-1E+10	1
4902551	68	C	06/29/2022	12:03	-131.982	49.087	0	1865.40	0	2.0340	0	34.5660	0	27.631	0	1841.343	0	47.3	4	14.3	4	-1E+10	1	-1E+10	1	-1E+10	1	-1E+10	1	-1E+10	1	-1E+10	1
4902551	68	C	06/29/2022	12:03	-131.982	49.087	0	1875.40	0	2.0280	0	34.5670	0	27.633	0	1851.171	0	47.8	4	14.4	4	-1E+10	1	-1E+10	1	-1E+10	1	-1E+10	1	-1E+10	1	-1E+10	1
4902551	68	C	06/29/2022	12:03	-131.982	49.087	0	1885.20	0	2.0220	0	34.5690	0	27.635	0	1860.801	0	48.3	4	14.6	4	-1E+10	1	-1E+10	1	-1E+10	1	-1E+10	1	-1E+10	1	-1E+10	1
4902551	68	C	06/29/2022	12:03	-131.982	49.087	0	1895.40	0	2.0170	0	34.5700	0	27.636	0	1870.824	0	48.6	4	14.7	4	-1E+10	1	-1E+10	1	-1E+10	1	-1E+10	1	-1E+10	1	-1E+10	1
4902551	68	C	06/29/2022	12:03	-131.982	49.087	0	1905.60	0	2.0140	0	34.5710	0	27.637	0	1880.847	0	48.9	4	14.7	4	-1E+10	1	-1E+10	1	-1E+10	1	-1E+10	1	-1E+10	1	-1E+10	1
4902551	68	C	06/29/2022	12:03	-131.982	49.087	0	1915.70	0	2.0080	0	34.5710	0	27.637	0	1890.771	0	49.4	4	14.9	4	-1E+10	1	-1E+10	1	-1E+10	1	-1E+10	1	-1E+10	1	-1E+10	1
4902551	68	C	06/29/2022	12:03	-131.982	49.087	0	1925.60	0	1.9980	0	34.5730	0	27.640	0	1900.498	0	50.1	4	15.1	4	-1E+10	1	-1E+10	1	-1E+10	1	-1E+10	1	-1E+10	1	-1E+10	1
4902551	68	C	06/29/2022	12:03	-131.982	49.087	0	1935.30	0	1.9900	0	34.5740	0	27.641	0	1910.028	0	50.8	4	15.3	4	-1E+10	1	-1E+10	1	-1E+10	1	-1E+10	1	-1E+10	1	-1E+10	1
4902551	68	C	06/29/2022	12:03	-131.982	49.087	0	1945.10	0	1.9850	0	34.5750	0	27.643	0	1919.656	0	51.4	4	15.5	4	-1E+10	1	-1E+10	1	-1E+10	1	-1E+10	1	-1E+10	1	-1E+10	1
4902551	68	C	06/29/2022	12:03	-131.982	49.087	0	1955.20	0	1.9780	0	34.5770	0	27.645	0	1929.578	0	51.9	4	15.6	4	-1E+10	1	-1E+10	1	-1E+10	1	-1E+10	1	-1E+10	1	-1E+10	1
4902551	68	C	06/29/2022	12:03	-131.982	49.087	0	1965.70	0	1.9720	0	34.5780	0	27.646	0	1939.893	0	52.1	4	15.7	4	-1E+10	1	-1E+10	1	-1E+10	1	-1E+10	1	-1E+10	1	-1E+10	1
4902551	68	C	06/29/2022	12:03	-131.982	49.087	0	1972.80	0	1.9680	0	34.5790	0	27.647	0	1946.867	0	51.9	4	15.6	4	-1E+10	1	-1E+10	1	-1E+10	1	-1E+10	1	-1E+10	1	-1E+10	1
4902551	68	C	06/29/2022	12:03	-131.982	49.087	0																										
4902551	69	C	07/09/2022	17:03	-132.146	49.042	0	0.20	0	13.2530	0	32.1880	0	24.166	0	0.198	0	266.6	4	101.9	4	-1E+10	1	-1E+10	1	-1E+10	1	-1E+10	1	-1E+10	1	-1E+10	1
4902551	69	C	07/09/2022	17:03	-132.146	49.042	0	0.30	0	13.2480	0	32.1890	0	24.168	0	0.297	0	260.0	4	99.4	4	-1E+10	1	-1E+10	1	-1E+10	1	-1E+10	1	-1E+10	1	-1E+10	1
4902551	69	C	07/09/2022	17:03	-132.146	49.042	0	1.00	0	13.2470	0	32.1880	0	24.167	0	0.992	0	260.1	4	99.4	4	-1E+10	1	-1E+10	1	-1E+10	1	-1E+10	1	-1E+10	1	-1E+10	1
4902551	69	C	07/09/2022	17:03	-132.146	49.042	0	2.10	0	13.2510	0	32.1840	0	24.164	0	2.082	0	260.1	4	99.4	4	-1E+10	1	-1E+10	1	-1E+10	1	-1E+10	1	-1E+10	1	-1E+10	1
4902551	69	C	07/09/2022	17:03	-132.146	49.042	0	2.80	0	13.2500	0	32.1830	0	24.163	0	2.776	0	260.1	4	99.4	4	-1E+10	1	-1E+10	1	-1E+10	1	-1E+10	1	-1E+10	1	-1E+10	1
4902551	69	C	07/09/2022	17:03	-132.146	49.042	0	4.10	0	13.2460	0	32.1880	0	24.168	0	4.065	0	260.1	4	99.4	4	-1E+10	1	-1E+10	1	-1E+10	1	-1E+10	1	-1E+10	1	-1E+10	1
4902551	69	C	07/09/2022	17:03	-132.146	49.042	0	4.90	0	13.2430	0	32.1930	0	24.172	0	4.858	0	260.1	4	99.4	4	-1E+10	1	-1E+10	1	-1E+10	1	-1E+10	1	-1E+10	1	-1E+10	1
4902551	69	C	07/09/2022	17:03	-132.146	49.042	0	5.80	0	13.2430	0	32.1930	0	24.172	0	5.751	0	260.3	4	99.4	4	-1E+10	1	-1E+10	1	-1E+10	1	-1E+10	1	-1E+10	1	-1E+10	1
4902551	69	C	07/09/2022	17:03	-132.146	49.042	0	6.90	0	13.2440	0	32.1920	0	24.171	0	6.841	0	260.5	4	99.5	4	-1E+10	1	-1E+10	1	-1E+10	1	-1E+10	1	-1E+10	1	-1E+10	1
4902551	69	C	07/09/2022	17:03	-132.146	49.042	0	8.20	0	13.2410	0	32.1920	0	24.172	0	8.130	0	260.9	4	99.7	4	-1E+10	1	-1E+10	1	-1E+10	1	-1E+10	1	-1E+10	1	-1E+10	1
4902551	69	C	07/09/2022	17:03	-132.146	49.042	0	8.90	0	13.2370	0	32.1930	0	24.173	0	8.824	0	261.3	4	99.8	4	-1E+10	1	-1E+10	1	-1E+10	1	-1E+10	1	-1E+10	1	-1E+10	1
4902551	69	C	07/09/2022	17:03	-132.146	49.042	0	10.00	0	13.2250	0	32.1950	0	24.177	0	9.915	0	262.1	4	100.1	4	-1E+10	1	-1E+10	1	-1E+10	1	-1E+10	1	-1E+10	1	-1E+10	1
4902551	69	C	07/09/2022	17:03	-132.146	49.042	0	11.10	0	13.1460	0	32.1960	0	24.194	0	11.006	0	263.4	4	100.5	4	-1E+10	1	-1E+10	1	-1E+10	1	-1E+10	1	-1E+10	1	-1E+10	1
4902551	69	C	07/09/2022	17:03	-132.146	49.042	0	12.10	0	12.8500	0	32.2470	0	24.291	0	11.997	0	264.9	4	100.5	4	-1E+10	1	-1E+10	1	-1E+10	1	-1E+10	1	-1E+10	1	-1E+10	1
4902551	69	C	07/09/2022	17:03	-132.146	49.042	0	13.00	0	12.4900	0	32.2170	0	24.337	0	12.889	0	266.2	4	100.2	4	-1E+10	1	-1E+10	1	-1E+10	1	-1E+10	1	-1E+10	1	-1E+10	1
4902551	69	C	07/09/2022	17:03	-132.146	49.042	0	13.90	0	12.3760	0	32.2270	0	24.367	0	13.782	0	266.6	4	100.1	4	-1E+10	1	-1E+10	1	-1E+10	1	-1E+10	1	-1E+10	1	-1E+10	1
4902551	69	C	07/09/2022	17:03	-132.146	49.042	0	14.80	0	12.3290	0	32.2240	0	24.373	0	14.674	0	266.9	4	100.1	4	-1E+10	1	-1E+10	1	-1E+10	1	-1E+10	1	-1E+10	1	-1E+10	1
4902551	69	C	07/09/2022	17:03	-132.146	49.042	0	15.80	0	12.2170	0	32.2530	0	24.417	0	15.665	0	267.1	4	99.9	4	-1E+10	1	-1E+10	1	-1E+10	1	-1E+10	1	-1E+10	1	-1E+10	1
4902551	69	C	07/09/2022	17:03	-132.146	49.042	0	17.00	0	12.0930	0	32.2310	0	24.423	0	16.855	0	267.7	4	99.9	4	-1E+10	1	-1E+10	1	-1E+10	1	-1E+10	1	-1E+10	1	-1E+10	1
4902551	69	C	07/09/2022	17:03	-132.146	49.042	0	18.10	0	12.0600	0	32.2270	0	24.426	0	17.946	0	267.9	4	99.9	4	-1E+10	1	-1E+10	1	-1E+10	1	-1E+10	1	-1E+10	1	-1E+10	1
4902551	69	C	07/09/2022	17:03	-132.146	49.042	0	18.80	0	12.0330	0	32.2290	0	24.433	0	18.640	0	268.0	4	99.9	4	-1E+10	1	-1E+10	1	-1E+10	1	-1E+10	1	-1E+10	1	-1E+10	1
4902551	69	C	07/09/2022	17:03	-132.146	49.042	0	19.80	0	11.9390	0	32.2440	0	24.462	0	19.631	0	268.2	4	99.8	4	-1E+10	1	-1E+10	1	-1E+10	1	-1E+10	1	-1E+10	1	-1E+10	1
4902551	69	C	07/09/2022	17:03	-132.146	49.042	0	20.80	0	11.8890	0	32.2270	0	24.458	0	20.622	0	268.6	4	99.8	4	-1E+10	1	-1E+10	1	-1E+10	1	-1E+10	1	-1E+10	1	-1E+10	1
4902551	69	C	07/09/2022	17:03	-132.146	49.042	0	21.80	0	11.8450	0	32.2320	0	24.470	0	21.614	0	268.8	4	99.8	4	-1E+10	1	-1E+10	1	-1E+10	1	-1E+10	1	-1E+10	1	-1E+10	1
4902551	69	C	07/09/2022	17:03	-132.146	49.042	0	22.80	0	11.8110	0	32.2270	0	24.472	0	22.605	0	269.2	4	99.9	4	-1E+10	1	-1E+10	1	-1E+10	1	-1E+10	1	-1E+10	1	-1E+10	1
4902551	69	C	07/09/2022	17:03	-132.146	49.042	0	24.10	0	11.7860	0	32.2250	0	24.475	0	23.894	0	269.8	4	100.0	4	-1E+10	1	-1E+10	1	-1E+10	1	-1E+10	1	-1E+10	1	-1E+10	1
4902551	69	C	07/09/2022	17:03	-132.146	49.042	0	25.00	0	11.7040	0	32.2340	0	24.497	0	24.786	0	270.6	4	100.2	4	-1E+10	1	-1E+10	1	-1E+10	1	-1E+10	1	-1E+10	1	-1E+10	1
4902551	69	C	07/09/2022	17:03	-132.146	49.042	0	25.90	0	11.4860	0	32.2350	0	24.538	0	25.679	0	272.2	4	100.3	4	-1E+10	1	-1E+10	1	-1E+10	1	-1E+10	1	-1E+10	1	-1E+10	1
4902551	69	C	07/09/2022	17:03	-132.146	49.042	0	26.90	0	11.2650	0	32.2490	0	24.588	0	26.670	0	273.5	4	100.3	4	-1E+10	1	-1E+10	1	-1E+10	1	-1E+10	1	-1E+10	1	-1E+10	1
4902551	69	C	07/09/2022	17:03	-132.146	49.042	0	28.10	0	11.0520	0	32.2320	0	24.613	0	27.860	0	275.0	4	100.4	4	-1E+10	1	-1E+10	1	-1E+10	1	-1E+10	1	-1E+10	1	-1E+10	1
4902551	69	C	07/09/2022	17:03	-132.146	49.042	0	28.90	0	10.7880	0	32.2490	0	24.672	0	28.653	0	276.2	4	100.3	4	-1E+10	1	-1E+10	1	-1E+10	1	-1E+10	1	-1E+10	1	-1E+10	1
4902551	69	C	07/09/2022	17:03	-132.146	49.042	0	30.10	0	10.5210	0	32.2390	0	24.710	0	29.842	0	277.6	4	100.2	4	-1E+10	1	-1E+10	1	-1E+10	1	-1E+10	1	-1E+10	1	-1E+10	1
4902551	69	C	07/09/2022	17:03	-132.146	49.042	0	30.90	0	10.1640	0	32.2790	0	24.802	0	30.635	0	278.6	4	99.8	4	-1E+10	1	-1E+10	1	-1E+10	1	-1E+10	1	-1E+10	1	-1E+10	1
4902551	69	C	07/09/2022	17:03	-132.146	49.042	0	32.10	0	9.6910	0	32.2590	0	24.864	0	31.825	0	280.4	4	99.4	4	-1E+10	1	-1E+10	1	-1E+10	1	-1E+10	1	-1E+10	1	-1E+10	1
4902551	69	C	07/09/2022	17:03	-132.146	49.042	0	33.10	0	9.5990	0	32.2550	0	24.876	0	32.816	0	280.3	4	99.2	4	-1E+10	1	-1E+10	1	-1E+10	1	-1E+10	1	-1E+10	1	-1E+10	1
4902551	69	C	07/09/2022	17:03	-132.146	49.042	0	33.90	0	9.5640	0	32.2520	0	24.879	0	33.610	0	280.1	4	99.1	4	-1E+10	1	-1E+10	1	-1E+10	1	-1E+10	1	-1E+10	1	-1E+10	1
4902551	69	C	07/09/2022	17:03	-132.146	49.042	0	34.90	0	9.4980	0	32.2630	0	24.898	0	34.601	0	279.9	4	98.8	4	-1E+10	1	-1E+10	1	-1E+10	1	-1E+10	1	-1E+10	1	-1E+10	1
4902551	69	C	07/09/2022	17:03	-132.146	49.042	0	36.00	0	9.2760	0	32.2880	0	24.953	0	35.691	0	279.9	4	98.4	4	-1E+10	1	-1E+10	1	-1E+10	1	-1E+10	1	-1E+10	1	-1E+10	1
4902551	69	C	07/09/2022	17:03	-132.146	49.042	0	37.20	0	9.1430	0	32.2650	0	24.956	0	36.881	0	279.8	4	98.1	4	-1E+10	1	-1E+10	1	-1E+10	1	-1E+10	1	-1E+10	1	-1E+10	1
4902551	69	C	07/09/2022	17:03	-132.146	49.042	0	37.80	0	9.1030	0	32.2680	0	24.964	0	37.476	0	279.6	4	97.9	4	-1E+10	1	-1E+10	1	-1E+10	1	-1E+10	1	-1E+10	1	-1E+10	1
4902551	69	C	07/09/2022	17:03	-132.146	49.042	0	38.90	0	9.0920	0	32.2620	0	24.961	0	38.566	0	279.1	4	97.7	4	-1E+10	1	-1E+10	1	-1E+10	1	-1E+10	1	-1E+10	1	-1E+10	1
4902551	69	C	07/09/2022	17:03	-132.146	49.042	0	40.10	0	8.9490	0	32.2900	0	25.006	0	39.756	0	278.8	4	97.3	4	-1E+10	1	-1E+10	1	-1E+10	1	-1E+10	1	-1E+10	1	-1E+10	1
4902551	69	C	07/09/2022	17:03	-132.146	49.042	0	41.10	0	8.6780	0	32.3030	0	25.057	0	40.747	0	279.3	4	96.9	4	-1E+10	1	-1E+10	1	-1E+10	1	-1E+10	1	-1E+10	1	-1E+10	1
4902551	69	C	07/09/2022	17:03	-132.146	49.042	0	42.30	0	8.5500	0	32.2840	0	25.062	0	41.937	0	279.4	4	96.7	4	-1E+10	1	-1E+10	1	-1E+10	1	-1E+10	1	-1E+10	1	-1E+10	1
4902551	69	C	07/09/2022	17:03	-132.146	49.042	0	43.00	0	8.5270	0	32.2810	0	25.063	0	42.631	0	279.3	4	96.6	4	-1E+10	1	-1E+10	1	-1E+10	1	-1E+10	1	-1E+10	1	-1E+10	1
4902551	69	C	07/09/2022	17:03	-132.146	49.042	0	43.90	0	8.4980	0	32.2870	0	25.072	0	43.523	0	279.0	4	96.4	4	-1E+10	1	-1E+10	1	-1E+10	1	-1E+10	1	-1E+10	1	-1E+10	1
4902551	69	C	07/09/2022	17:03	-132.146	49.042	0	45.10	0	8.4610	0	32.2790	0	25.071	0	44.712	0	278.7	4	96.2	4	-1E+10	1	-1E+10	1	-1E+10	1	-1E+10	1	-1E+10	1	-1E+10	1
4902551	69	C	07/09/2022	17:03	-132.146	49.042	0	45.80	0	8.4370	0	32.2840	0	25.078	0	45.406	0	278.6	4	96.1	4	-1E+10	1	-1E+10	1	-1E+10	1	-1E+10	1	-1E+10	1	-1E+10	1
4902551	69	C	07/09/2022	17:03	-132.146	49.042	0	46.90	0	8.4160	0	32.2830	0	25.081	0	46.497	0	278.2	4	96.0	4	-1E+10	1	-1E+10	1	-1E+10	1	-1E+10	1	-1E+10	1	-1E+10	1
4902551	69	C	07/09/2022	17:03	-132.146	49.042	0	48.30	0	8.3910	0	32.2830	0	25.084	0	47.885	0	277.7	4	95.7	4	-1E+10	1	-1E+10	1	-1E+10	1	-1E+10	1	-1E+10	1	-1E+10	1
4902551	69	C	07/09/2022	17:03	-132.146	49.042	0	48.90	0	8.3810	0	32.2840	0	25.087	0	48.479	0	277.4	4	95.6	4	-1E+10	1	-1E+10	1	-1E+10	1	-1E+10	1	-1E+10	1	-1E+10	1
4902551	69	C	07/09/2022	17:03	-132.146	49.042	0	50.00	0	8.3540	0	32.2900	0	25.095	0	49.570	0	276.7	4	95.3	4	-1E+10	1	-1E+10	1	-1E+10	1	-1E+10	1	-1E+10	1	-1E+10	1
4902551	69	C	07/09/2022	17:03	-132.146	49.042	0	51.10	0	8.2870	0	32.2950	0	25.109	0	50.660	0	276.4	4	95.1	4	-1E+10	1	-1E+10	1	-1E+10	1	-1E+10	1	-1E+10	1	-1E+10	1
4902551	69	C	07/09/2022	17:03	-132.146	49.042	0	52.10	0	8.2240	0	32.2970	0	25.120	0	51.651	0	276.1	4	94.8	4	-1E+10	1	-1E+10	1	-1E+10	1	-1E+10	1	-1E+10	1	-1E+10	1
4902551	69	C	07/09/2022	17:03	-132.146	49.042	0	53.10	0	8.1550	0	32.3000	0	25.133	0	52.643	0	275.9	4	94.6	4	-1E+10	1	-1E+10	1	-1E+10	1	-1E+10	1	-1E+10	1	-1E+10	1
4902551	69	C	07/09/2022	17:03	-132.146	49.042	0	54.10	0	8.1140	0	32.2950	0	25.135	0	53.634	0	275.7	4	94.5	4	-1E+10	1	-1E+10	1	-1E+10	1	-1E+10	1	-1E+10	1	-1E+10	1
4902551	69	C	07/09/2022	17:03	-132.146	49.042	0	54.90	0	8.1110	0	32.2940	0	25.134	0	54.427	0	275.5	4	94.4	4	-1E+10	1	-1E+10	1	-1E+10	1	-1E+10	1	-1E+10	1	-1E+10	1
4902551	69	C	07/09/2022	17:03	-132.146	49.042	0	55.70	0	8.1070	0	32.2940	0	25.135	0	55.220	0	275.3	4	94.3	4	-1E+10	1	-1E+10	1	-1E+10	1	-1E+10	1	-1E+10	1	-1E+10	1
4902551	69	C	07/09/2022	17:03	-132.146	49.042	0	56.70	0	8.1030	0	32.2940	0	25.135	0	56.211	0	274.9	4	94.1	4	-1E+10	1	-1E+10	1	-1E+10	1	-1E+10	1	-1E+10	1	-1E+10	1
4902551	69	C	07/09/2022	17:03	-132.146	49.042	0	57.80	0	8.0820	0	32.3020	0	25.145	0	57.301	0	274.5	4	94.0	4	-1E+10	1	-1E+10	1	-1E+10	1	-1E+10	1	-1E+10	1	-1E+10	1
4902551	69	C	07/09/2022	17:03	-132.146	49.042	0	59.00	0	8.0050	0	32.3100	0	25.162	0	58.491	0	274.5	4	93.8	4	-1E+10	1	-1E+10	1	-1E+10	1	-1E+10	1	-1E+10	1	-1E+10	1
4902551	69	C	07/09/2022	17:03	-132.146	49.042	0	60.10	0	7.9450	0	32.3070	0	25.168	0	59.581	0	274.5	4	93.7	4	-1E+10	1	-1E+10	1	-1E+10	1	-1E+10	1	-1E+10	1	-1E+10	1
4902551	69	C	07/09/2022	17:03	-132.146	49.042	0	61.00	0	7.9390	0	32.3040	0	25.167	0	60.473	0	274.4	4	93.6	4	-1E+10	1	-1E+10	1	-1E+10	1	-1E+10	1	-1E+10	1	-1E+10	1
4902551	69	C	07/09/2022	17:03	-132.146	49.042	0	61.80	0	7.9310	0	32.3030	0	25.167	0	61.266	0	274.2	4	93.6	4	-1E+10	1	-1E+10	1	-1E+10	1	-1E+10	1	-1E+10	1	-1E+10	1
4902551	69	C	07/09/2022	17:03	-132.146	49.042	0	63.00	0	7.9240	0	32.3030	0	25.168	0	62.456	0	274.0	4	93.5	4	-1E+10	1	-1E+10	1	-1E+10	1	-1E+10	1	-1E+10	1	-1E+10	1
4902551	69	C	07/09/2022	17:03	-132.146	49.042	0	63.90	0	7.9250	0	32.3020	0	25.167	0	63.348	0	273.6	4	93.4	4	-1E+10	1	-1E+10	1	-1E+10	1	-1E+10	1	-1E+10	1	-1E+10	1
4902551	69	C	07/09/2022	17:03	-132.146	49.042	0	64.80	0	7.9240	0	32.3040	0	25.169	0	64.240	0	273.3	4	93.2	4	-1E+10	1	-1E+10	1	-1E+10	1	-1E+10	1	-1E+10	1	-1E+10	1
4902551	69	C	07/09/2022	17:03	-132.146	49.042	0	66.10	0	7.9040	0	32.3060	0	25.174	0	65.529	0	272.9	4	93.1	4	-1E+10	1	-1E+10	1	-1E+10	1	-1E+10	1	-1E+10	1	-1E+10	1
4902551	69	C	07/09/2022	17:03	-132.146	49.042	0	66.90	0	7.8900	0	32.3080	0	25.177	0	66.322	0	272.5	4	92.9	4	-1E+10	1	-1E+10	1	-1E+10	1	-1E+10	1	-1E+10	1	-1E+10	1
4902551	69	C	07/09/2022	17:03	-132.146	49.042	0	67.80	0	7.8790	0	32.3090	0	25.180	0	67.214	0	272.1	4	92.8	4	-1E+10	1	-1E+10	1	-1E+10	1	-1E+10	1	-1E+10	1	-1E+10	1
4902551	69	C	07/09/2022	17:03	-132.146	49.042	0	69.00	0	7.8710	0	32.3080	0	25.180	0	68.403	0	271.6	4	92.6	4	-1E+10	1	-1E+10	1	-1E+10	1	-1E+10	1	-1E+10	1	-1E+10	1
4902551	69	C	07/09/2022	17:03	-132.146	49.042	0	70.10	0	7.8540	0	32.3110	0	25.185	0	69.493	0	271.0	4	92.3	4	-1E+10	1	-1E+10	1	-1E+10	1	-1E+10	1	-1E+10	1	-1E+10	1
4902551	69	C	07/09/2022	17:03	-132.146	49.042	0	71.00	0	7.8100	0	32.3250	0	25.202	0	70.385	0	270.5	4	92.1	4	-1E+10	1	-1E+10	1	-1E+10	1	-1E+10	1	-1E+10	1	-1E+10	1
4902551	69	C	07/09/2022	17:03	-132.146	49.042	0	71.80	0	7.7910	0	32.3140	0	25.196	0	71.178	0	270.1	4	91.9	4	-1E+10	1	-1E+10	1	-1E+10	1	-1E+10	1	-1E+10	1	-1E+10	1
4902551	69	C	07/09/2022	17:03	-132.146	49.042	0	73.00	0	7.7660	0	32.3190	0	25.204	0	72.368	0	269.4	4	91.6	4	-1E+10	1	-1E+10	1	-1E+10	1	-1E+10	1	-1E+10	1	-1E+10	1
4902551	69	C	07/09/2022	17:03	-132.146	49.042	0	74.10	0	7.7330	0	32.3200	0	25.209	0	73.458	0	268.6	4	91.2	4	-1E+10	1	-1E+10	1	-1E+10	1	-1E+10	1	-1E+10	1	-1E+10	1
4902551	69	C	07/09/2022	17:03	-132.146	49.042	0	75.00	0	7.6750	0	32.3500	0	25.241	0	74.350	0	267.7	4	90.9	4	-1E+10	1	-1E+10	1	-1E+10	1	-1E+10	1	-1E+10	1	-1E+10	1
4902551	69	C	07/09/2022	17:03	-132.146	49.042	0	75.70	0	7.6120	0	32.3370	0	25.239	0	75.044	0	267.4	4	90.6	4	-1E+10	1	-1E+10	1	-1E+10	1	-1E+10	1	-1E+10	1	-1E+10	1
4902551	69	C	07/09/2022	17:03	-132.146	49.042	0	76.90	0	7.5890	0	32.3400	0	25.245	0	76.233	0	266.3	4	90.2	4	-1E+10	1	-1E+10	1	-1E+10	1	-1E+10	1	-1E+10	1	-1E+10	1
4902551	69	C	07/09/2022	17:03	-132.146	49.042	0	78.00	0	7.5360	0	32.3530	0	25.262	0	77.323	0	265.2	4	89.7	4	-1E+10	1	-1E+10	1	-1E+10	1	-1E+10	1	-1E+10	1	-1E+10	1
4902551	69	C	07/09/2022	17:03	-132.146	49.042	0	79.00	0	7.4710	0	32.3620	0	25.279	0	78.315	0	264.4	4	89.3	4	-1E+10	1	-1E+10	1	-1E+10	1	-1E+10	1	-1E+10	1	-1E+10	1
4902551	69	C	07/09/2022	17:03	-132.146	49.042	0	80.00	0	7.4270	0	32.3690	0	25.290	0	79.306	0	263.9	4	89.1	4	-1E+10	1	-1E+10	1	-1E+10	1	-1E+10	1	-1E+10	1	-1E+10	1
4902551	69	C	07/09/2022	17:03	-132.146	49.042	0	81.00	0	7.4130	0	32.3720	0	25.294	0	80.297	0	263.3	4	88.9	4	-1E+10	1	-1E+10	1	-1E+10	1	-1E+10	1	-1E+10	1	-1E+10	1
4902551	69	C	07/09/2022	17:03	-132.146	49.042	0	82.20	0	7.3920	0	32.3800	0	25.304	0	81.486	0	262.6	4	88.6	4	-1E+10	1	-1E+10	1	-1E+10	1	-1E+10	1	-1E+10	1	-1E+10	1
4902551	69	C	07/09/2022	17:03	-132.146	49.042	0	83.10	0	7.3710	0	32.3880	0	25.313	0	82.378	0	261.3	4	88.1	4	-1E+10	1	-1E+10	1	-1E+10	1	-1E+10	1	-1E+10	1	-1E+10	1
4902551	69	C	07/09/2022	17:03	-132.146	49.042	0	83.90	0	7.3410	0	32.4010	0	25.327	0	83.171	0	267.1	4	90.0	4	-1E+10	1	-1E+10	1	-1E+10	1	-1E+10	1	-1E+10	1	-1E+10	1
4902551	69	C	07/09/2022	17:03	-132.146	49.042	0	84.80	0	7.2800	0	32.4280	0	25.357	0	84.063	0	266.6	4	89.7	4	-1E+10	1	-1E+10	1	-1E+10	1	-1E+10	1	-1E+10	1	-1E+10	1
4902551	69	C	07/09/2022	17:03	-132.146	49.042	0	85.80	0	7.2680	0	32.4300	0	25.360	0	85.054	0	266.1	4	89.5	4	-1E+10	1	-1E+10	1	-1E+10	1	-1E+10	1	-1E+10	1	-1E+10	1
4902551	69	C	07/09/2022	17:03	-132.146	49.042	0	86.90	0	7.2660	0	32.4300	0	25.360	0	86.144	0	265.5	4	89.3	4	-1E+10	1	-1E+10	1	-1E+10	1	-1E+10	1	-1E+10	1	-1E+10	1
4902551	69	C	07/09/2022	17:03	-132.146	49.042	0	88.00	0	7.2650	0	32.4300	0	25.360	0	87.235	0	264.8	4	89.1	4	-1E+10	1	-1E+10	1	-1E+10	1	-1E+10	1	-1E+10	1	-1E+10	1
4902551	69	C	07/09/2022	17:03	-132.146	49.042	0	89.10	0	7.2630	0	32.4320	0	25.362	0	88.325	0	263.6	4	88.7	4	-1E+10	1	-1E+10	1	-1E+10	1	-1E+10	1	-1E+10	1	-1E+10	1
4902551	69	C	07/09/2022	17:03	-132.146	49.042	0	89.90	0	7.2610	0	32.4330	0	25.363	0	89.118	0	262.5	4	88.3	4	-1E+10	1	-1E+10	1	-1E+10	1	-1E+10	1	-1E+10	1	-1E+10	1
4902551	69	C	07/09/2022	17:03	-132.146	49.042	0	91.00	0	7.2570	0	32.4340	0	25.365	0	90.208	0	260.9	4	87.8	4	-1E+10	1	-1E+10	1	-1E+10	1	-1E+10	1	-1E+10	1	-1E+10	1
4902551	69	C	07/09/2022	17:03	-132.146	49.042	0	92.00	0	7.2590	0	32.4310	0	25.362	0	91.199	0	259.0	4	87.1	4	-1E+10	1	-1E+10	1	-1E+10	1	-1E+10	1	-1E+10	1	-1E+10	1
4902551	69	C	07/09/2022	17:03	-132.146	49.042	0	93.10	0	7.2480	0	32.4420	0	25.372	0	92.289	0	256.8	4	86.4	4	-1E+10	1	-1E+10	1	-1E+10	1	-1E+10	1	-1E+10	1	-1E+10	1
4902551	69	C	07/09/2022	17:03	-132.146	49.042	0	94.00	0	7.2050	0	32.4500	0	25.384	0	93.181	0	255.1	4	85.7	4	-1E+10	1	-1E+10	1	-1E+10	1	-1E+10	1	-1E+10	1	-1E+10	1
4902551	69	C	07/09/2022	17:03	-132.146	49.042	0	95.10	0	7.1920	0	32.4630	0	25.396	0	94.271	0	252.9	4	85.0	4	-1E+10	1	-1E+10	1	-1E+10	1	-1E+10	1	-1E+10	1	-1E+10	1
4902551	69	C	07/09/2022	17:03	-132.146	49.042	0	96.20	0	7.1660	0	32.4830	0	25.416	0	95.361	0	250.4	4	84.1	4	-1E+10	1	-1E+10	1	-1E+10	1	-1E+10	1	-1E+10	1	-1E+10	1
4902551	69	C	07/09/2022	17:03	-132.146	49.042	0	97.10	0	7.1380	0	32.5000	0	25.433	0	96.253	0	248.3	4	83.3	4	-1E+10	1	-1E+10	1	-1E+10	1	-1E+10	1	-1E+10	1	-1E+10	1
4902551	69	C	07/09/2022	17:03	-132.146	49.042	0	97.90	0	7.1020	0	32.5340	0	25.464	0	97.046	0	246.6	4	82.7	4	-1E+10	1	-1E+10	1	-1E+10	1	-1E+10	1	-1E+10	1	-1E+10	1
4902551	69	C	07/09/2022	17:03	-132.146	49.042	0	99.10	0	7.0840	0	32.5490	0	25.479	0	98.235	0	243.7	4	81.7	4	-1E+10	1	-1E+10	1	-1E+10	1	-1E+10	1	-1E+10	1	-1E+10	1
4902551	69	C	07/09/2022	17:03	-132.146	49.042	0	100.00	0	7.0190	0	32.6150	0	25.539	0	99.127	0	234.3	4	78.5	4	-1E+10	1	-1E+10	1	-1E+10	1	-1E+10	1	-1E+10	1	-1E+10	1
4902551	69	C	07/09/2022	17:03	-132.146	49.042	0	101.10	0	6.9220	0	32.7560	0	25.663	0	100.217	0	229.7	4	76.9	4	-1E+10	1	-1E+10	1	-1E+10	1	-1E+10	1	-1E+10	1	-1E+10	1
4902551	69	C	07/09/2022	17:03	-132.146	49.042	0	102.00	0	6.9130	0	32.7720	0	25.677	0	101.109	0	227.7	4	76.2	4	-1E+10	1	-1E+10	1	-1E+10	1	-1E+10	1	-1E+10	1	-1E+10	1
4902551	69	C	07/09/2022	17:03	-132.146	49.042	0	102.90	0	6.8950	0	32.8010	0	25.702	0	102.001	0	225.7	4	75.5	4	-1E+10	1	-1E+10	1	-1E+10	1	-1E+10	1	-1E+10	1	-1E+10	1
4902551	69	C	07/09/2022	17:03	-132.146	49.042	0	104.10	0	6.8840	0	32.8240	0	25.722	0	103.191	0	223.7	4	74.8	4	-1E+10	1	-1E+10	1	-1E+10	1	-1E+10	1	-1E+10	1	-1E+10	1
4902551	69	C	07/09/2022	17:03	-132.146	49.042	0	105.10	0	6.8820	0	32.8320	0	25.728	0	104.182	0	222.5	4	74.4	4	-1E+10	1	-1E+10	1	-1E+10	1	-1E+10	1	-1E+10	1	-1E+10	1
4902551	69	C	07/09/2022	17:03	-132.146	49.042	0	106.00	0	6.8610	0	32.8570	0	25.751	0	105.073	0	221.2	4	74.0	4	-1E+10	1	-1E+10	1	-1E+10	1	-1E+10	1	-1E+10	1	-1E+10	1
4902551	69	C	07/09/2022	17:03	-132.146	49.042	0	107.10	0	6.8330	0	32.8950	0	25.785	0	106.164	0	220.3	4	73.6	4	-1E+10	1	-1E+10	1	-1E+10	1	-1E+10	1	-1E+10	1	-1E+10	1
4902551	69	C	07/09/2022	17:03	-132.146	49.042	0	107.90	0	6.8150	0	32.9090	0	25.798	0	106.956	0	219.6	4	73.4	4	-1E+10	1	-1E+10	1	-1E+10	1	-1E+10	1	-1E+10	1	-1E+10	1
4902551	69	C	07/09/2022	17:03	-132.146	49.042	0	108.70	0	6.8070	0	32.9140	0	25.803	0	107.749	0	218.8	4	73.1	4	-1E+10	1	-1E+10	1	-1E+10	1	-1E+10	1	-1E+10	1	-1E+10	1
4902551	69	C	07/09/2022	17:03	-132.146	49.042	0	109.90	0	6.8040	0	32.9210	0	25.809	0	108.938	0	217.4	4	72.6	4	-1E+10	1	-1E+10	1	-1E+10	1	-1E+10	1	-1E+10	1	-1E+10	1
4902551	69	C	07/09/2022	17:03	-132.146	49.042	0	111.00	0	6.8030	0	32.9270	0	25.814	0	110.028	0	215.8	4	72.1	4	-1E+10	1	-1E+10	1	-1E+10	1	-1E+10	1	-1E+10	1	-1E+10	1
4902551	69	C	07/09/2022	17:03	-132.146	49.042	0	111.90	0	6.8020	0	32.9330	0	25.819	0	110.920	0	214.7	4	71.7	4	-1E+10	1	-1E+10	1	-1E+10	1	-1E+10	1	-1E+10	1	-1E+10	1
4902551	69	C	07/09/2022	17:03	-132.146	49.042	0	112.80	0	6.7920	0	32.9430	0	25.828	0	111.812	0	213.6	4	71.3	4	-1E+10	1	-1E+10	1	-1E+10	1	-1E+10	1	-1E+10	1	-1E+10	1
4902551	69	C	07/09/2022	17:03	-132.146	49.042	0	114.10	0	6.7870	0	32.9590	0	25.841	0	113.100	0	211.7	4	70.7	4	-1E+10	1	-1E+10	1	-1E+10	1	-1E+10	1	-1E+10	1	-1E+10	1
4902551	69	C	07/09/2022	17:03	-132.146	49.042	0	115.00	0	6.7750	0	32.9880	0	25.866	0	113.992	0	210.5	4	70.3	4	-1E+10	1	-1E+10	1	-1E+10	1	-1E+10	1	-1E+10	1	-1E+10	1
4902551	69	C	07/09/2022	17:03	-132.146	49.042	0	116.00	0	6.7690	0	33.0060	0	25.881	0	114.983	0	209.4	4	69.9	4	-1E+10	1	-1E+10	1	-1E+10	1	-1E+10	1	-1E+10	1	-1E+10	1
4902551	69	C	07/09/2022	17:03	-132.146	49.042	0	117.00	0	6.7660	0	33.0150	0	25.888	0	115.974	0	208.2	4	69.5	4	-1E+10	1	-1E+10	1	-1E+10	1	-1E+10	1	-1E+10	1	-1E+10	1
4902551	69	C	07/09/2022	17:03	-132.146	49.042	0	118.00	0	6.7650	0	33.0200	0	25.892	0	116.965	0	206.7	4	69.1	4	-1E+10	1	-1E+10	1	-1E+10	1	-1E+10	1	-1E+10	1	-1E+10	1
4902551	69	C	07/09/2022	17:03	-132.146	49.042	0	118.90	0	6.7650	0	33.0220	0	25.894	0	117.857	0	205.3	4	68.6	4	-1E+10	1	-1E+10	1	-1E+10	1	-1E+10	1	-1E+10	1	-1E+10	1
4902551	69	C	07/09/2022	17:03	-132.146	49.042	0	119.70	0	6.7650	0	33.0260	0	25.897	0	118.650	0	203.8	4	68.1	4	-1E+10	1	-1E+10	1	-1E+10	1	-1E+10	1	-1E+10	1	-1E+10	1
4902551	69	C	07/09/2022	17:03	-132.146	49.042	0	120.90	0	6.7550	0	33.0510	0	25.918	0	119.839	0	201.8	4	67.4	4	-1E+10	1	-1E+10	1	-1E+10	1	-1E+10	1	-1E+10	1	-1E+10	1
4902551	69	C	07/09/2022	17:03	-132.146	49.042	0	122.10	0	6.7410	0	33.0980	0	25.957	0	121.028	0	200.1	4	66.8	4	-1E+10	1	-1E+10	1	-1E+10	1	-1E+10	1	-1E+10	1	-1E+10	1
4902551	69	C	07/09/2022	17:03	-132.146	49.042	0	123.00	0	6.7410	0	33.1140	0	25.969	0	121.920	0	198.9	4	66.4	4	-1E+10	1	-1E+10	1	-1E+10	1	-1E+10	1	-1E+10	1	-1E+10	1
4902551	69	C	07/09/2022	17:03	-132.146	49.042	0	123.90	0	6.7410	0	33.1150	0	25.970	0	122.812	0	197.4	4	66.0	4	-1E+10	1	-1E+10	1	-1E+10	1	-1E+10	1	-1E+10	1	-1E+10	1
4902551	69	C	07/09/2022	17:03	-132.146	49.042	0	125.00	0	6.7410	0	33.1180	0	25.973	0	123.902	0	195.3	4	65.2	4	-1E+10	1	-1E+10	1	-1E+10	1	-1E+10	1	-1E+10	1	-1E+10	1
4902551	69	C	07/09/2022	17:03	-132.146	49.042	0	126.10	0	6.7480	0	33.1260	0	25.978	0	124.992	0	192.2	4	64.2	4	-1E+10	1	-1E+10	1	-1E+10	1	-1E+10	1	-1E+10	1	-1E+10	1
4902551	69	C	07/09/2022	17:03	-132.146	49.042	0	127.00	0	6.7640	0	33.1500	0	25.995	0	125.884	0	189.9	4	63.5	4	-1E+10	1	-1E+10	1	-1E+10	1	-1E+10	1	-1E+10	1	-1E+10	1
4902551	69	C	07/09/2022	17:03	-132.146	49.042	0	127.80	0	6.7660	0	33.1600	0	26.002	0	126.676	0	187.7	4	62.8	4	-1E+10	1	-1E+10	1	-1E+10	1	-1E+10	1	-1E+10	1	-1E+10	1
4902551	69	C	07/09/2022	17:03	-132.146	49.042	0	128.90	0	6.7560	0	33.1840	0	26.023	0	127.766	0	184.4	4	61.7	4	-1E+10	1	-1E+10	1	-1E+10	1	-1E+10	1	-1E+10	1	-1E+10	1
4902551	69	C	07/09/2022	17:03	-132.146	49.042	0	130.10	0	6.7670	0	33.2320	0	26.059	0	128.955	0	180.3	4	60.3	4	-1E+10	1	-1E+10	1	-1E+10	1	-1E+10	1	-1E+10	1	-1E+10	1
4902551	69	C	07/09/2022	17:03	-132.146	49.042	0	131.00	0	6.8040	0	33.2740	0	26.087	0	129.847	0	177.5	4	59.4	4	-1E+10	1	-1E+10	1	-1E+10	1	-1E+10	1	-1E+10	1	-1E+10	1
4902551	69	C	07/09/2022	17:03	-132.146	49.042	0	131.90	0	6.8100	0	33.3330	0	26.133	0	130.739	0	175.6	4	58.9	4	-1E+10	1	-1E+10	1	-1E+10	1	-1E+10	1	-1E+10	1	-1E+10	1
4902551	69	C	07/09/2022	17:03	-132.146	49.042	0	133.00	0	6.8070	0	33.3440	0	26.142	0	131.829	0	174.0	4	58.3	4	-1E+10	1	-1E+10	1	-1E+10	1	-1E+10	1	-1E+10	1	-1E+10	1
4902551	69	C	07/09/2022	17:03	-132.146	49.042	0	133.90	0	6.8130	0	33.3710	0	26.163	0	132.721	0	172.6	4	57.9	4	-1E+10	1	-1E+10	1	-1E+10	1	-1E+10	1	-1E+10	1	-1E+10	1
4902551	69	C	07/09/2022	17:03	-132.146	49.042	0	134.90	0	6.8140	0	33.3820	0	26.171	0	133.712	0	171.0	4	57.3	4	-1E+10	1	-1E+10	1	-1E+10	1	-1E+10	1	-1E+10	1	-1E+10	1
4902551	69	C	07/09/2022	17:03	-132.146	49.042	0	135.90	0	6.8150	0	33.3870	0	26.175	0	134.702	0	169.3	4	56.8	4	-1E+10	1	-1E+10	1	-1E+10	1	-1E+10	1	-1E+10	1	-1E+10	1
4902551	69	C	07/09/2022	17:03	-132.146	49.042	0	137.00	0	6.8020	0	33.4200	0	26.203	0	135.792	0	167.5	4	56.2	4	-1E+10	1	-1E+10	1	-1E+10	1	-1E+10	1	-1E+10	1	-1E+10	1
4902551	69	C	07/09/2022	17:03	-132.146	49.042	0	138.00	0	6.7960	0	33.4710	0	26.244	0	136.783	0	166.4	4	55.8	4	-1E+10	1	-1E+10	1	-1E+10	1	-1E+10	1	-1E+10	1	-1E+10	1
4902551	69	C	07/09/2022	17:03	-132.146	49.042	0	139.10	0	6.7930	0	33.4980	0	26.265	0	137.873	0	165.4	4	55.5	4	-1E+10	1	-1E+10	1	-1E+10	1	-1E+10	1	-1E+10	1	-1E+10	1
4902551	69	C	07/09/2022	17:03	-132.146	49.042	0	139.90	0	6.7910	0	33.5100	0	26.275	0	138.666	0	164.8	4	55.3	4	-1E+10	1	-1E+10	1	-1E+10	1	-1E+10	1	-1E+10	1	-1E+10	1
4902551	69	C	07/09/2022	17:03	-132.146	49.042	0	140.70	0	6.7910	0	33.5190	0	26.282	0	139.458	0	164.2	4	55.1	4	-1E+10	1	-1E+10	1	-1E+10	1	-1E+10	1	-1E+10	1	-1E+10	1
4902551	69	C	07/09/2022	17:03	-132.146	49.042	0	141.90	0	6.7790	0	33.5390	0	26.300	0	140.647	0	163.3	4	54.8	4	-1E+10	1	-1E+10	1	-1E+10	1	-1E+10	1	-1E+10	1	-1E+10	1
4902551	69	C	07/09/2022	17:03	-132.146	49.042	0	143.20	0	6.7780	0	33.5410	0	26.301	0	141.936	0	162.4	4	54.5	4	-1E+10	1	-1E+10	1	-1E+10	1	-1E+10	1	-1E+10	1	-1E+10	1
4902551	69	C	07/09/2022	17:03	-132.146	49.042	0	144.00	0	6.7730	0	33.5550	0	26.313	0	142.728	0	161.7	4	54.2	4	-1E+10	1	-1E+10	1	-1E+10	1	-1E+10	1	-1E+10	1	-1E+10	1
4902551	69	C	07/09/2022	17:03	-132.146	49.042	0	144.90	0	6.7750	0	33.5610	0	26.318	0	143.620	0	161.0	4	54.0	4	-1E+10	1	-1E+10	1	-1E+10	1	-1E+10	1	-1E+10	1	-1E+10	1
4902551	69	C	07/09/2022	17:03	-132.146	49.042	0	145.70	0	6.7650	0	33.5710	0	26.327	0	144.413	0	160.4	4	53.8	4	-1E+10	1	-1E+10	1	-1E+10	1	-1E+10	1	-1E+10	1	-1E+10	1
4902551	69	C	07/09/2022	17:03	-132.146	49.042	0	147.00	0	6.7480	0	33.5910	0	26.345	0	145.701	0	159.6	4	53.5	4	-1E+10	1	-1E+10	1	-1E+10	1	-1E+10	1	-1E+10	1	-1E+10	1
4902551	69	C	07/09/2022	17:03	-132.146	49.042	0	148.30	0	6.7340	0	33.6070	0	26.359	0	146.989	0	158.8	4	53.3	4	-1E+10	1	-1E+10	1	-1E+10	1	-1E+10	1	-1E+10	1	-1E+10	1
4902551	69	C	07/09/2022	17:03	-132.146	49.042	0	149.10	0	6.7260	0	33.6160	0	26.367	0	147.781	0	158.4	4	53.1	4	-1E+10	1	-1E+10	1	-1E+10	1	-1E+10	1	-1E+10	1	-1E+10	1
4902551	69	C	07/09/2022	17:03	-132.146	49.042	0	149.90	0	6.7190	0	33.6220	0	26.373	0	148.574	0	157.9	4	52.9	4	-1E+10	1	-1E+10	1	-1E+10	1	-1E+10	1	-1E+10	1	-1E+10	1
4902551	69	C	07/09/2022	17:03	-132.146	49.042	0	151.10	0	6.7130	0	33.6280	0	26.379	0	149.763	0	156.9	4	52.6	4	-1E+10	1	-1E+10	1	-1E+10	1	-1E+10	1	-1E+10	1	-1E+10	1
4902551	69	C	07/09/2022	17:03	-132.146	49.042	0	152.00	0	6.7070	0	33.6330	0	26.383	0	150.655	0	156.1	4	52.3	4	-1E+10	1	-1E+10	1	-1E+10	1	-1E+10	1	-1E+10	1	-1E+10	1
4902551	69	C	07/09/2022	17:03	-132.146	49.042	0	153.00	0	6.6980	0	33.6410	0	26.391	0	151.645	0	155.1	4	52.0	4	-1E+10	1	-1E+10	1	-1E+10	1	-1E+10	1	-1E+10	1	-1E+10	1
4902551	69	C	07/09/2022	17:03	-132.146	49.042	0	154.00	0	6.7010	0	33.6500	0	26.398	0	152.636	0	154.1	4	51.6	4	-1E+10	1	-1E+10	1	-1E+10	1	-1E+10	1	-1E+10	1	-1E+10	1
4902551	69	C	07/09/2022	17:03	-132.146	49.042	0	155.00	0	6.6850	0	33.6710	0	26.416	0	153.627	0	153.1	4	51.3	4	-1E+10	1	-1E+10	1	-1E+10	1	-1E+10	1	-1E+10	1	-1E+10	1
4902551	69	C	07/09/2022	17:03	-132.146	49.042	0	156.20	0	6.6640	0	33.6790	0	26.425	0	154.816	0	152.1	4	51.0	4	-1E+10	1	-1E+10	1	-1E+10	1	-1E+10	1	-1E+10	1	-1E+10	1
4902551	69	C	07/09/2022	17:03	-132.146	49.042	0	156.90	0	6.6490	0	33.6860	0	26.433	0	155.509	0	151.5	4	50.7	4	-1E+10	1	-1E+10	1	-1E+10	1	-1E+10	1	-1E+10	1	-1E+10	1
4902551	69	C	07/09/2022	17:03	-132.146	49.042	0	158.00	0	6.6390	0	33.6980	0	26.444	0	156.599	0	150.6	4	50.4	4	-1E+10	1	-1E+10	1	-1E+10	1	-1E+10	1	-1E+10	1	-1E+10	1
4902551	69	C	07/09/2022	17:03	-132.146	49.042	0	159.20	0	6.6310	0	33.7090	0	26.453	0	157.788	0	149.8	4	50.2	4	-1E+10	1	-1E+10	1	-1E+10	1	-1E+10	1	-1E+10	1	-1E+10	1
4902551	69	C	07/09/2022	17:03	-132.146	49.042	0	160.00	0	6.6270	0	33.7150	0	26.459	0	158.581	0	149.5	4	50.0	4	-1E+10	1	-1E+10	1	-1E+10	1	-1E+10	1	-1E+10	1	-1E+10	1
4902551	69	C	07/09/2022	17:03	-132.146	49.042	0	160.70	0	6.6240	0	33.7170	0	26.461	0	159.274	0	149.1	4	49.9	4	-1E+10	1	-1E+10	1	-1E+10	1	-1E+10	1	-1E+10	1	-1E+10	1
4902551	69	C	07/09/2022	17:03	-132.146	49.042	0	161.90	0	6.6030	0	33.7290	0	26.473	0	160.463	0	148.4	4	49.7	4	-1E+10	1	-1E+10	1	-1E+10	1	-1E+10	1	-1E+10	1	-1E+10	1
4902551	69	C	07/09/2022	17:03	-132.146	49.042	0	163.10	0	6.5140	0	33.7410	0	26.494	0	161.652	0	147.9	4	49.4	4	-1E+10	1	-1E+10	1	-1E+10	1	-1E+10	1	-1E+10	1	-1E+10	1
4902551	69	C	07/09/2022	17:03	-132.146	49.042	0	164.00	0	6.4940	0	33.7480	0	26.502	0	162.544	0	147.5	4	49.2	4	-1E+10	1	-1E+10	1	-1E+10	1	-1E+10	1	-1E+10	1	-1E+10	1
4902551	69	C	07/09/2022	17:03	-132.146	49.042	0	164.80	0	6.4810	0	33.7420	0	26.499	0	163.336	0	147.1	4	49.1	4	-1E+10	1	-1E+10	1	-1E+10	1	-1E+10	1	-1E+10	1	-1E+10	1
4902551	69	C	07/09/2022	17:03	-132.146	49.042	0	166.00	0	6.4650	0	33.7440	0	26.503	0	164.525	0	146.2	4	48.8	4	-1E+10	1	-1E+10	1	-1E+10	1	-1E+10	1	-1E+10	1	-1E+10	1
4902551	69	C	07/09/2022	17:03	-132.146	49.042	0	167.30	0	6.4400	0	33.7440	0	26.506	0	165.813	0	145.2	4	48.4	4	-1E+10	1	-1E+10	1	-1E+10	1	-1E+10	1	-1E+10	1	-1E+10	1
4902551	69	C	07/09/2022	17:03	-132.146	49.042	0	168.10	0	6.4300	0	33.7480	0	26.511	0	166.606	0	144.4	4	48.1	4	-1E+10	1	-1E+10	1	-1E+10	1	-1E+10	1	-1E+10	1	-1E+10	1
4902551	69	C	07/09/2022	17:03	-132.146	49.042	0	169.00	0	6.3920	0	33.7500	0	26.517	0	167.497	0	143.7	4	47.8	4	-1E+10	1	-1E+10	1	-1E+10	1	-1E+10	1	-1E+10	1	-1E+10	1
4902551	69	C	07/09/2022	17:03	-132.146	49.042	0	169.80	0	6.3570	0	33.7580	0	26.528	0	168.290	0	142.8	4	47.5	4	-1E+10	1	-1E+10	1	-1E+10	1	-1E+10	1	-1E+10	1	-1E+10	1
4902551	69	C	07/09/2022	17:03	-132.146	49.042	0	170.70	0	6.3300	0	33.7560	0	26.530	0	169.181	0	141.8	4	47.2	4	-1E+10	1	-1E+10	1	-1E+10	1	-1E+10	1	-1E+10	1	-1E+10	1
4902551	69	C	07/09/2022	17:03	-132.146	49.042	0	172.00	0	6.3050	0	33.7590	0	26.535	0	170.469	0	140.6	4	46.7	4	-1E+10	1	-1E+10	1	-1E+10	1	-1E+10	1	-1E+10	1	-1E+10	1
4902551	69	C	07/09/2022	17:03	-132.146	49.042	0	173.30	0	6.3200	0	33.7720	0	26.544	0	171.757	0	139.7	4	46.4	4	-1E+10	1	-1E+10	1	-1E+10	1	-1E+10	1	-1E+10	1	-1E+10	1
4902551	69	C	07/09/2022	17:03	-132.146	49.042	0	174.20	0	6.3190	0	33.7750	0	26.546	0	172.649	0	139.2	4	46.3	4	-1E+10	1	-1E+10	1	-1E+10	1	-1E+10	1	-1E+10	1	-1E+10	1
4902551	69	C	07/09/2022	17:03	-132.146	49.042	0	175.00	0	6.3190	0	33.7760	0	26.547	0	173.441	0	138.7	4	46.1	4	-1E+10	1	-1E+10	1	-1E+10	1	-1E+10	1	-1E+10	1	-1E+10	1
4902551	69	C	07/09/2022	17:03	-132.146	49.042	0	175.90	0	6.3190	0	33.7770	0	26.548	0	174.333	0	138.2	4	46.0	4	-1E+10	1	-1E+10	1	-1E+10	1	-1E+10	1	-1E+10	1	-1E+10	1
4902551	69	C	07/09/2022	17:03	-132.146	49.042	0	176.70	0	6.3200	0	33.7770	0	26.548	0	175.126	0	137.8	4	45.8	4	-1E+10	1	-1E+10	1	-1E+10	1	-1E+10	1	-1E+10	1	-1E+10	1
4902551	69	C	07/09/2022	17:03	-132.146	49.042	0	177.90	0	6.3170	0	33.7830	0	26.553	0	176.314	0	137.3	4	45.6	4	-1E+10	1	-1E+10	1	-1E+10	1	-1E+10	1	-1E+10	1	-1E+10	1
4902551	69	C	07/09/2022	17:03	-132.146	49.042	0	179.20	0	6.3100	0	33.7900	0	26.559	0	177.602	0	137.0	4	45.5	4	-1E+10	1	-1E+10	1	-1E+10	1	-1E+10	1	-1E+10	1	-1E+10	1
4902551	69	C	07/09/2022	17:03	-132.146	49.042	0	180.00	0	6.3010	0	33.7940	0	26.564	0	178.395	0	136.8	4	45.5	4	-1E+10	1	-1E+10	1	-1E+10	1	-1E+10	1	-1E+10	1	-1E+10	1
4902551	69	C	07/09/2022	17:03	-132.146	49.042	0	180.80	0	6.2900	0	33.7920	0	26.563	0	179.187	0	136.8	4	45.5	4	-1E+10	1	-1E+10	1	-1E+10	1	-1E+10	1	-1E+10	1	-1E+10	1
4902551	69	C	07/09/2022	17:03	-132.146	49.042	0	181.70	0	6.2830	0	33.7940	0	26.566	0	180.079	0	136.8	4	45.5	4	-1E+10	1	-1E+10	1	-1E+10	1	-1E+10	1	-1E+10	1	-1E+10	1
4902551	69	C	07/09/2022	17:03	-132.146	49.042	0	183.00	0	6.2650	0	33.7970	0	26.571	0	181.367	0	136.9	4	45.5	4	-1E+10	1	-1E+10	1	-1E+10	1	-1E+10	1	-1E+10	1	-1E+10	1
4902551	69	C	07/09/2022	17:03	-132.146	49.042	0	184.20	0	6.2380	0	33.7950	0	26.573	0	182.555	0	137.0	4	45.5	4	-1E+10	1	-1E+10	1	-1E+10	1	-1E+10	1	-1E+10	1	-1E+10	1
4902551	69	C	07/09/2022	17:03	-132.146	49.042	0	185.00	0	6.2280	0	33.7940	0	26.573	0	183.348	0	137.0	4	45.5	4	-1E+10	1	-1E+10	1	-1E+10	1	-1E+10	1	-1E+10	1	-1E+10	1
4902551	69	C	07/09/2022	17:03	-132.146	49.042	0	185.90	0	6.2200	0	33.7930	0	26.573	0	184.239	0	137.1	4	45.5	4	-1E+10	1	-1E+10	1	-1E+10	1	-1E+10	1	-1E+10	1	-1E+10	1
4902551	69	C	07/09/2022	17:03	-132.146	49.042	0	186.70	0	6.2050	0	33.7980	0	26.579	0	185.032	0	137.1	4	45.5	4	-1E+10	1	-1E+10	1	-1E+10	1	-1E+10	1	-1E+10	1	-1E+10	1
4902551	69	C	07/09/2022	17:03	-132.146	49.042	0	187.90	0	6.1790	0	33.7890	0	26.575	0	186.221	0	137.1	4	45.4	4	-1E+10	1	-1E+10	1	-1E+10	1	-1E+10	1	-1E+10	1	-1E+10	1
4902551	69	C	07/09/2022	17:03	-132.146	49.042	0	189.20	0	6.1520	0	33.8100	0	26.595	0	187.508	0	137.0	4	45.4	4	-1E+10	1	-1E+10	1	-1E+10	1	-1E+10	1	-1E+10	1	-1E+10	1
4902551	69	C	07/09/2022	17:03	-132.146	49.042	0	190.00	0	6.1240	0	33.7880	0	26.582	0	188.301	0	136.9	4	45.3	4	-1E+10	1	-1E+10	1	-1E+10	1	-1E+10	1	-1E+10	1	-1E+10	1
4902551	69	C	07/09/2022	17:03	-132.146	49.042	0	190.90	0	6.1150	0	33.7860	0	26.581	0	189.193	0	136.7	4	45.2	4	-1E+10	1	-1E+10	1	-1E+10	1	-1E+10	1	-1E+10	1	-1E+10	1
4902551	69	C	07/09/2022	17:03	-132.146	49.042	0	191.70	0	6.0930	0	33.7850	0	26.583	0	189.985	0	136.4	4	45.1	4	-1E+10	1	-1E+10	1	-1E+10	1	-1E+10	1	-1E+10	1	-1E+10	1
4902551	69	C	07/09/2022	17:03	-132.146	49.042	0	193.00	0	6.0630	0	33.7850	0	26.587	0	191.273	0	136.1	4	45.0	4	-1E+10	1	-1E+10	1	-1E+10	1	-1E+10	1	-1E+10	1	-1E+10	1
4902551	69	C	07/09/2022	17:03	-132.146	49.042	0	194.30	0	6.0090	0	33.7850	0	26.594	0	192.561	0	135.6	4	44.8	4	-1E+10	1	-1E+10	1	-1E+10	1	-1E+10	1	-1E+10	1	-1E+10	1
4902551	69	C	07/09/2022	17:03	-132.146	49.042	0	195.20	0	5.9980	0	33.7850	0	26.595	0	193.452	0	135.2	4	44.6	4	-1E+10	1	-1E+10	1	-1E+10	1	-1E+10	1	-1E+10	1	-1E+10	1
4902551	69	C	07/09/2022	17:03	-132.146	49.042	0	196.00	0	5.9810	0	33.7890	0	26.600	0	194.245	0	134.8	4	44.5	4	-1E+10	1	-1E+10	1	-1E+10	1	-1E+10	1	-1E+10	1	-1E+10	1
4902551	69	C	07/09/2022	17:03	-132.146	49.042	0	196.90	0	5.9650	0	33.7860	0	26.600	0	195.136	0	134.5	4	44.4	4	-1E+10	1	-1E+10	1	-1E+10	1	-1E+10	1	-1E+10	1	-1E+10	1
4902551	69	C	07/09/2022	17:03	-132.146	49.042	0	197.70	0	5.9650	0	33.7850	0	26.599	0	195.928	0	134.3	4	44.3	4	-1E+10	1	-1E+10	1	-1E+10	1	-1E+10	1	-1E+10	1	-1E+10	1
4902551	69	C	07/09/2022	17:03	-132.146	49.042	0	199.00	0	5.9650	0	33.7850	0	26.599	0	197.216	0	133.8	4	44.1	4	-1E+10	1	-1E+10	1	-1E+10	1	-1E+10	1	-1E+10	1	-1E+10	1
4902551	69	C	07/09/2022	17:03	-132.146	49.042	0	200.30	0	5.9660	0	33.7860	0	26.600	0	198.504	0	133.2	4	43.9	4	-1E+10	1	-1E+10	1	-1E+10	1	-1E+10	1	-1E+10	1	-1E+10	1
4902551	69	C	07/09/2022	17:03	-132.146	49.042	0	201.10	0	5.9660	0	33.7860	0	26.600	0	199.296	0	132.8	4	43.8	4	-1E+10	1	-1E+10	1	-1E+10	1	-1E+10	1	-1E+10	1	-1E+10	1
4902551	69	C	07/09/2022	17:03	-132.146	49.042	0	201.90	0	5.9660	0	33.7880	0	26.601	0	200.089	0	132.3	4	43.6	4	-1E+10	1	-1E+10	1	-1E+10	1	-1E+10	1	-1E+10	1	-1E+10	1
4902551	69	C	07/09/2022	17:03	-132.146	49.042	0	202.80	0	5.9550	0	33.7930	0	26.607	0	200.980	0	131.9	4	43.5	4	-1E+10	1	-1E+10	1	-1E+10	1	-1E+10	1	-1E+10	1	-1E+10	1
4902551	69	C	07/09/2022	17:03	-132.146	49.042	0	203.60	0	5.9470	0	33.7900	0	26.605	0	201.773	0	131.5	4	43.4	4	-1E+10	1	-1E+10	1	-1E+10	1	-1E+10	1	-1E+10	1	-1E+10	1
4902551	69	C	07/09/2022	17:03	-132.146	49.042	0	204.90	0	5.9400	0	33.7940	0	26.609	0	203.060	0	131.1	4	43.2	4	-1E+10	1	-1E+10	1	-1E+10	1	-1E+10	1	-1E+10	1	-1E+10	1
4902551	69	C	07/09/2022	17:03	-132.146	49.042	0	206.20	0	5.9250	0	33.7980	0	26.615	0	204.348	0	130.8	4	43.1	4	-1E+10	1	-1E+10	1	-1E+10	1	-1E+10	1	-1E+10	1	-1E+10	1
4902551	69	C	07/09/2022	17:03	-132.146	49.042	0	207.00	0	5.9190	0	33.7960	0	26.614	0	205.141	0	130.5	4	43.0	4	-1E+10	1	-1E+10	1	-1E+10	1	-1E+10	1	-1E+10	1	-1E+10	1
4902551	69	C	07/09/2022	17:03	-132.146	49.042	0	207.90	0	5.9180	0	33.7930	0	26.611	0	206.032	0	130.3	4	42.9	4	-1E+10	1	-1E+10	1	-1E+10	1	-1E+10	1	-1E+10	1	-1E+10	1
4902551	69	C	07/09/2022	17:03	-132.146	49.042	0	208.70	0	5.9170	0	33.7940	0	26.612	0	206.824	0	130.1	4	42.9	4	-1E+10	1	-1E+10	1	-1E+10	1	-1E+10	1	-1E+10	1	-1E+10	1
4902551	69	C	07/09/2022	17:03	-132.146	49.042	0	209.60	0	5.9120	0	33.7950	0	26.614	0	207.716	0	129.8	4	42.8	4	-1E+10	1	-1E+10	1	-1E+10	1	-1E+10	1	-1E+10	1	-1E+10	1
4902551	69	C	07/09/2022	17:03	-132.146	49.042	0	210.90	0	5.8890	0	33.8000	0	26.621	0	209.004	0	129.5	4	42.6	4	-1E+10	1	-1E+10	1	-1E+10	1	-1E+10	1	-1E+10	1	-1E+10	1
4902551	69	C	07/09/2022	17:03	-132.146	49.042	0	212.30	0	5.8690	0	33.7960	0	26.620	0	210.390	0	129.1	4	42.5	4	-1E+10	1	-1E+10	1	-1E+10	1	-1E+10	1	-1E+10	1	-1E+10	1
4902551	69	C	07/09/2022	17:03	-132.146	49.042	0	213.20	0	5.8610	0	33.7930	0	26.619	0	211.282	0	128.8	4	42.4	4	-1E+10	1	-1E+10	1	-1E+10	1	-1E+10	1	-1E+10	1	-1E+10	1
4902551	69	C	07/09/2022	17:03	-132.146	49.042	0	214.10	0	5.8520	0	33.7930	0	26.620	0	212.173	0	128.6	4	42.3	4	-1E+10	1	-1E+10	1	-1E+10	1	-1E+10	1	-1E+10	1	-1E+10	1
4902551	69	C	07/09/2022	17:03	-132.146	49.042	0	214.90	0	5.8330	0	33.7960	0	26.624	0	212.965	0	128.3	4	42.2	4	-1E+10	1	-1E+10	1	-1E+10	1	-1E+10	1	-1E+10	1	-1E+10	1
4902551	69	C	07/09/2022	17:03	-132.146	49.042	0	215.80	0	5.8140	0	33.8000	0	26.630	0	213.857	0	128.0	4	42.1	4	-1E+10	1	-1E+10	1	-1E+10	1	-1E+10	1	-1E+10	1	-1E+10	1
4902551	69	C	07/09/2022	17:03	-132.146	49.042	0	216.70	0	5.7950	0	33.7900	0	26.624	0	214.748	0	127.7	4	41.9	4	-1E+10	1	-1E+10	1	-1E+10	1	-1E+10	1	-1E+10	1	-1E+10	1
4902551	69	C	07/09/2022	17:03	-132.146	49.042	0	217.60	0	5.7700	0	33.8030	0	26.638	0	215.640	0	127.3	4	41.8	4	-1E+10	1	-1E+10	1	-1E+10	1	-1E+10	1	-1E+10	1	-1E+10	1
4902551	69	C	07/09/2022	17:03	-132.146	49.042	0	218.90	0	5.7160	0	33.7930	0	26.636	0	216.927	0	127.0	4	41.6	4	-1E+10	1	-1E+10	1	-1E+10	1	-1E+10	1	-1E+10	1	-1E+10	1
4902551	69	C	07/09/2022	17:03	-132.146	49.042	0	220.30	0	5.7010	0	33.7880	0	26.634	0	218.314	0	126.6	4	41.5	4	-1E+10	1	-1E+10	1	-1E+10	1	-1E+10	1	-1E+10	1	-1E+10	1
4902551	69	C	07/09/2022	17:03	-132.146	49.042	0	221.20	0	5.6970	0	33.7870	0	26.634	0	219.205	0	126.4	4	41.4	4	-1E+10	1	-1E+10	1	-1E+10	1	-1E+10	1	-1E+10	1	-1E+10	1
4902551	69	C	07/09/2022	17:03	-132.146	49.042	0	222.10	0	5.6860	0	33.7910	0	26.638	0	220.097	0	126.1	4	41.3	4	-1E+10	1	-1E+10	1	-1E+10	1	-1E+10	1	-1E+10	1	-1E+10	1
4902551	69	C	07/09/2022	17:03	-132.146	49.042	0	223.00	0	5.6730	0	33.7850	0	26.635	0	220.988	0	125.8	4	41.2	4	-1E+10	1	-1E+10	1	-1E+10	1	-1E+10	1	-1E+10	1	-1E+10	1
4902551	69	C	07/09/2022	17:03	-132.146	49.042	0	223.90	0	5.6630	0	33.7910	0	26.641	0	221.880	0	125.4	4	41.1	4	-1E+10	1	-1E+10	1	-1E+10	1	-1E+10	1	-1E+10	1	-1E+10	1
4902551	69	C	07/09/2022	17:03	-132.146	49.042	0	224.80	0	5.6410	0	33.7920	0	26.645	0	222.771	0	125.1	4	40.9	4	-1E+10	1	-1E+10	1	-1E+10	1	-1E+10	1	-1E+10	1	-1E+10	1
4902551	69	C	07/09/2022	17:03	-132.146	49.042	0	225.70	0	5.6180	0	33.7890	0	26.645	0	223.662	0	124.8	4	40.8	4	-1E+10	1	-1E+10	1	-1E+10	1	-1E+10	1	-1E+10	1	-1E+10	1
4902551	69	C	07/09/2022	17:03	-132.146	49.042	0	226.60	0	5.6090	0	33.7850	0	26.643	0	224.554	0	124.4	4	40.7	4	-1E+10	1	-1E+10	1	-1E+10	1	-1E+10	1	-1E+10	1	-1E+10	1
4902551	69	C	07/09/2022	17:03	-132.146	49.042	0	227.90	0	5.6020	0	33.7840	0	26.643	0	225.841	0	123.8	4	40.5	4	-1E+10	1	-1E+10	1	-1E+10	1	-1E+10	1	-1E+10	1	-1E+10	1
4902551	69	C	07/09/2022	17:03	-132.146	49.042	0	229.30	0	5.6050	0	33.7860	0	26.644	0	227.228	0	123.1	4	40.3	4	-1E+10	1	-1E+10	1	-1E+10	1	-1E+10	1	-1E+10	1	-1E+10	1
4902551	69	C	07/09/2022	17:03	-132.146	49.042	0	230.20	0	5.5870	0	33.7820	0	26.643	0	228.119	0	122.7	4	40.1	4	-1E+10	1	-1E+10	1	-1E+10	1	-1E+10	1	-1E+10	1	-1E+10	1
4902551	69	C	07/09/2022	17:03	-132.146	49.042	0	231.10	0	5.5980	0	33.7830	0	26.643	0	229.011	0	122.3	4	40.0	4	-1E+10	1	-1E+10	1	-1E+10	1	-1E+10	1	-1E+10	1	-1E+10	1
4902551	69	C	07/09/2022	17:03	-132.146	49.042	0	232.00	0	5.6000	0	33.7860	0	26.645	0	229.902	0	121.9	4	39.9	4	-1E+10	1	-1E+10	1	-1E+10	1	-1E+10	1	-1E+10	1	-1E+10	1
4902551	69	C	07/09/2022	17:03	-132.146	49.042	0	232.90	0	5.5590	0	33.8020	0	26.663	0	230.793	0	121.3	4	39.6	4	-1E+10	1	-1E+10	1	-1E+10	1	-1E+10	1	-1E+10	1	-1E+10	1
4902551	69	C	07/09/2022	17:03	-132.146	49.042	0	233.80	0	5.5260	0	33.7860	0	26.654	0	231.685	0	120.9	4	39.5	4	-1E+10	1	-1E+10	1	-1E+10	1	-1E+10	1	-1E+10	1	-1E+10	1
4902551	69	C	07/09/2022	17:03	-132.146	49.042	0	234.70	0	5.4970	0	33.7960	0	26.665	0	232.576	0	120.3	4	39.2	4	-1E+10	1	-1E+10	1	-1E+10	1	-1E+10	1	-1E+10	1	-1E+10	1
4902551	69	C	07/09/2022	17:03	-132.146	49.042	0	235.60	0	5.4640	0	33.7830	0	26.659	0	233.467	0	119.5	4	39.0	4	-1E+10	1	-1E+10	1	-1E+10	1	-1E+10	1	-1E+10	1	-1E+10	1
4902551	69	C	07/09/2022	17:03	-132.146	49.042	0	236.90	0	5.4370	0	33.7800	0	26.660	0	234.755	0	118.4	4	38.6	4	-1E+10	1	-1E+10	1	-1E+10	1	-1E+10	1	-1E+10	1	-1E+10	1
4902551	69	C	07/09/2022	17:03	-132.146	49.042	0	238.30	0	5.4200	0	33.7800	0	26.662	0	236.141	0	117.2	4	38.2	4	-1E+10	1	-1E+10	1	-1E+10	1	-1E+10	1	-1E+10	1	-1E+10	1
4902551	69	C	07/09/2022	17:03	-132.146	49.042	0	239.20	0	5.4160	0	33.7800	0	26.662	0	237.033	0	116.4	4	37.9	4	-1E+10	1	-1E+10	1	-1E+10	1	-1E+10	1	-1E+10	1	-1E+10	1
4902551	69	C	07/09/2022	17:03	-132.146	49.042	0	240.10	0	5.4080	0	33.7850	0	26.667	0	237.924	0	115.5	4	37.6	4	-1E+10	1	-1E+10	1	-1E+10	1	-1E+10	1	-1E+10	1	-1E+10	1
4902551	69	C	07/09/2022	17:03	-132.146	49.042	0	241.00	0	5.4010	0	33.7810	0	26.665	0	238.815	0	114.7	4	37.3	4	-1E+10	1	-1E+10	1	-1E+10	1	-1E+10	1	-1E+10	1	-1E+10	1
4902551	69	C	07/09/2022	17:03	-132.146	49.042	0	241.90	0	5.4350	0	33.7890	0	26.667	0	239.707	0	114.1	4	37.2	4	-1E+10	1	-1E+10	1	-1E+10	1	-1E+10	1	-1E+10	1	-1E+10	1
4902551	69	C	07/09/2022	17:03	-132.146	49.042	0	242.80	0	5.4540	0	33.7880	0	26.664	0	240.598	0	113.8	4	37.1	4	-1E+10	1	-1E+10	1	-1E+10	1	-1E+10	1	-1E+10	1	-1E+10	1
4902551	69	C	07/09/2022	17:03	-132.146	49.042	0	243.70	0	5.4750	0	33.8080	0	26.677	0	241.489	0	113.4	4	37.0	4	-1E+10	1	-1E+10	1	-1E+10	1	-1E+10	1	-1E+10	1	-1E+10	1
4902551	69	C	07/09/2022	17:03	-132.146	49.042	0	244.60	0	5.4780	0	33.8090	0	26.678	0	242.381	0	113.2	4	36.9	4	-1E+10	1	-1E+10	1	-1E+10	1	-1E+10	1	-1E+10	1	-1E+10	1
4902551	69	C	07/09/2022	17:03	-132.146	49.042	0	245.90	0	5.4800	0	33.8110	0	26.679	0	243.668	0	112.9	4	36.8	4	-1E+10	1	-1E+10	1	-1E+10	1	-1E+10	1	-1E+10	1	-1E+10	1
4902551	69	C	07/09/2022	17:03	-132.146	49.042	0	247.30	0	5.4900	0	33.8100	0	26.677	0	245.055	0	112.7	4	36.8	4	-1E+10	1	-1E+10	1	-1E+10	1	-1E+10	1	-1E+10	1	-1E+10	1
4902551	69	C	07/09/2022	17:03	-132.146	49.042	0	248.20	0	5.4720	0	33.8270	0	26.693	0	245.946	0	112.5	4	36.7	4	-1E+10	1	-1E+10	1	-1E+10	1	-1E+10	1	-1E+10	1	-1E+10	1
4902551	69	C	07/09/2022	17:03	-132.146	49.042	0	249.20	0	5.4340	0	33.8170	0	26.689	0	246.936	0	112.5	4	36.7	4	-1E+10	1	-1E+10	1	-1E+10	1	-1E+10	1	-1E+10	1	-1E+10	1
4902551	69	C	07/09/2022	17:03	-132.146	49.042	0	250.10	0	5.3960	0	33.8250	0	26.700	0	247.828	0	112.4	4	36.6	4	-1E+10	1	-1E+10	1	-1E+10	1	-1E+10	1	-1E+10	1	-1E+10	1
4902551	69	C	07/09/2022	17:03	-132.146	49.042	0	251.00	0	5.3540	0	33.8090	0	26.693	0	248.719	0	112.2	4	36.5	4	-1E+10	1	-1E+10	1	-1E+10	1	-1E+10	1	-1E+10	1	-1E+10	1
4902551	69	C	07/09/2022	17:03	-132.146	49.042	0	251.90	0	5.3400	0	33.8070	0	26.693	0	249.610	0	111.9	4	36.4	4	-1E+10	1	-1E+10	1	-1E+10	1	-1E+10	1	-1E+10	1	-1E+10	1
4902551	69	C	07/09/2022	17:03	-132.146	49.042	0	252.90	0	5.3290	0	33.8050	0	26.692	0	250.600	0	111.6	4	36.3	4	-1E+10	1	-1E+10	1	-1E+10	1	-1E+10	1	-1E+10	1	-1E+10	1
4902551	69	C	07/09/2022	17:03	-132.146	49.042	0	253.80	0	5.3150	0	33.8060	0	26.695	0	251.492	0	111.2	4	36.1	4	-1E+10	1	-1E+10	1	-1E+10	1	-1E+10	1	-1E+10	1	-1E+10	1
4902551	69	C	07/09/2022	17:03	-132.146	49.042	0	254.70	0	5.3090	0	33.8040	0	26.694	0	252.383	0	110.8	4	36.0	4	-1E+10	1	-1E+10	1	-1E+10	1	-1E+10	1	-1E+10	1	-1E+10	1
4902551	69	C	07/09/2022	17:03	-132.146	49.042	0	255.70	0	5.3090	0	33.8050	0	26.695	0	253.373	0	110.3	4	35.8	4	-1E+10	1	-1E+10	1	-1E+10	1	-1E+10	1	-1E+10	1	-1E+10	1
4902551	69	C	07/09/2022	17:03	-132.146	49.042	0	256.60	0	5.3050	0	33.8060	0	26.696	0	254.264	0	109.8	4	35.7	4	-1E+10	1	-1E+10	1	-1E+10	1	-1E+10	1	-1E+10	1	-1E+10	1
4902551	69	C	07/09/2022	17:03	-132.146	49.042	0	257.90	0	5.2950	0	33.8080	0	26.699	0	255.552	0	109.0	4	35.4	4	-1E+10	1	-1E+10	1	-1E+10	1	-1E+10	1	-1E+10	1	-1E+10	1
4902551	69	C	07/09/2022	17:03	-132.146	49.042	0	259.30	0	5.2930	0	33.8070	0	26.698	0	256.938	0	108.2	4	35.1	4	-1E+10	1	-1E+10	1	-1E+10	1	-1E+10	1	-1E+10	1	-1E+10	1
4902551	69	C	07/09/2022	17:03	-132.146	49.042	0	260.20	0	5.2930	0	33.8070	0	26.698	0	257.829	0	107.4	4	34.9	4	-1E+10	1	-1E+10	1	-1E+10	1	-1E+10	1	-1E+10	1	-1E+10	1
4902551	69	C	07/09/2022	17:03	-132.146	49.042	0	261.10	0	5.2930	0	33.8070	0	26.698	0	258.721	0	106.7	4	34.6	4	-1E+10	1	-1E+10	1	-1E+10	1	-1E+10	1	-1E+10	1	-1E+10	1
4902551	69	C	07/09/2022	17:03	-132.146	49.042	0	262.10	0	5.2950	0	33.8080	0	26.699	0	259.711	0	105.8	4	34.4	4	-1E+10	1	-1E+10	1	-1E+10	1	-1E+10	1	-1E+10	1	-1E+10	1
4902551	69	C	07/09/2022	17:03	-132.146	49.042	0	263.00	0	5.2900	0	33.8160	0	26.706	0	260.602	0	105.2	4	34.2	4	-1E+10	1	-1E+10	1	-1E+10	1	-1E+10	1	-1E+10	1	-1E+10	1
4902551	69	C	07/09/2022	17:03	-132.146	49.042	0	264.00	0	5.2870	0	33.8170	0	26.707	0	261.592	0	104.7	4	34.0	4	-1E+10	1	-1E+10	1	-1E+10	1	-1E+10	1	-1E+10	1	-1E+10	1
4902551	69	C	07/09/2022	17:03	-132.146	49.042	0	264.90	0	5.2850	0	33.8170	0	26.707	0	262.484	0	104.1	4	33.8	4	-1E+10	1	-1E+10	1	-1E+10	1	-1E+10	1	-1E+10	1	-1E+10	1
4902551	69	C	07/09/2022	17:03	-132.146	49.042	0	265.90	0	5.2850	0	33.8170	0	26.707	0	263.474	0	103.4	4	33.6	4	-1E+10	1	-1E+10	1	-1E+10	1	-1E+10	1	-1E+10	1	-1E+10	1
4902551	69	C	07/09/2022	17:03	-132.146	49.042	0	266.80	0	5.2840	0	33.8180	0	26.708	0	264.365	0	102.7	4	33.4	4	-1E+10	1	-1E+10	1	-1E+10	1	-1E+10	1	-1E+10	1	-1E+10	1
4902551	69	C	07/09/2022	17:03	-132.146	49.042	0	267.70	0	5.2850	0	33.8190	0	26.709	0	265.256	0	102.0	4	33.1	4	-1E+10	1	-1E+10	1	-1E+10	1	-1E+10	1	-1E+10	1	-1E+10	1
4902551	69	C	07/09/2022	17:03	-132.146	49.042	0	268.70	0	5.2860	0	33.8230	0	26.712	0	266.247	0	101.3	4	32.9	4	-1E+10	1	-1E+10	1	-1E+10	1	-1E+10	1	-1E+10	1	-1E+10	1
4902551	69	C	07/09/2022	17:03	-132.146	49.042	0	269.60	0	5.2760	0	33.8260	0	26.715	0	267.138	0	100.6	4	32.7	4	-1E+10	1	-1E+10	1	-1E+10	1	-1E+10	1	-1E+10	1	-1E+10	1
4902551	69	C	07/09/2022	17:03	-132.146	49.042	0	270.60	0	5.2690	0	33.8260	0	26.716	0	268.128	0	100.0	4	32.4	4	-1E+10	1	-1E+10	1	-1E+10	1	-1E+10	1	-1E+10	1	-1E+10	1
4902551	69	C	07/09/2022	17:03	-132.146	49.042	0	271.50	0	5.2590	0	33.8260	0	26.717	0	269.019	0	99.2	4	32.2	4	-1E+10	1	-1E+10	1	-1E+10	1	-1E+10	1	-1E+10	1	-1E+10	1
4902551	69	C	07/09/2022	17:03	-132.146	49.042	0	272.90	0	5.2590	0	33.8270	0	26.718	0	270.405	0	98.2	4	31.9	4	-1E+10	1	-1E+10	1	-1E+10	1	-1E+10	1	-1E+10	1	-1E+10	1
4902551	69	C	07/09/2022	17:03	-132.146	49.042	0	274.40	0	5.2610	0	33.8330	0	26.723	0	271.891	0	97.2	4	31.5	4	-1E+10	1	-1E+10	1	-1E+10	1	-1E+10	1	-1E+10	1	-1E+10	1
4902551	69	C	07/09/2022	17:03	-132.146	49.042	0	275.30	0	5.2590	0	33.8330	0	26.723	0	272.782	0	96.6	4	31.3	4	-1E+10	1	-1E+10	1	-1E+10	1	-1E+10	1	-1E+10	1	-1E+10	1
4902551	69	C	07/09/2022	17:03	-132.146	49.042	0	276.20	0	5.2600	0	33.8320	0	26.722	0	273.673	0	96.0	4	31.2	4	-1E+10	1	-1E+10	1	-1E+10	1	-1E+10	1	-1E+10	1	-1E+10	1
4902551	69	C	07/09/2022	17:03	-132.146	49.042	0	277.20	0	5.2570	0	33.8370	0	26.726	0	274.663	0	95.5	4	31.0	4	-1E+10	1	-1E+10	1	-1E+10	1	-1E+10	1	-1E+10	1	-1E+10	1
4902551	69	C	07/09/2022	17:03	-132.146	49.042	0	278.10	0	5.2410	0	33.8510	0	26.739	0	275.555	0	95.2	4	30.9	4	-1E+10	1	-1E+10	1	-1E+10	1	-1E+10	1	-1E+10	1	-1E+10	1
4902551	69	C	07/09/2022	17:03	-132.146	49.042	0	279.10	0	5.2270	0	33.8420	0	26.734	0	276.545	0	94.8	4	30.7	4	-1E+10	1	-1E+10	1	-1E+10	1	-1E+10	1	-1E+10	1	-1E+10	1
4902551	69	C	07/09/2022	17:03	-132.146	49.042	0	280.10	0	5.2280	0	33.8380	0	26.730	0	277.535	0	94.3	4	30.6	4	-1E+10	1	-1E+10	1	-1E+10	1	-1E+10	1	-1E+10	1	-1E+10	1
4902551	69	C	07/09/2022	17:03	-132.146	49.042	0	281.00	0	5.2230	0	33.8470	0	26.738	0	278.426	0	93.8	4	30.4	4	-1E+10	1	-1E+10	1	-1E+10	1	-1E+10	1	-1E+10	1	-1E+10	1
4902551	69	C	07/09/2022	17:03	-132.146	49.042	0	282.00	0	5.2110	0	33.8440	0	26.737	0	279.416	0	93.2	4	30.2	4	-1E+10	1	-1E+10	1	-1E+10	1	-1E+10	1	-1E+10	1	-1E+10	1
4902551	69	C	07/09/2022	17:03	-132.146	49.042	0	283.00	0	5.2120	0	33.8390	0	26.733	0	280.406	0	92.5	4	30.0	4	-1E+10	1	-1E+10	1	-1E+10	1	-1E+10	1	-1E+10	1	-1E+10	1
4902551	69	C	07/09/2022	17:03	-132.146	49.042	0	283.90	0	5.2230	0	33.8440	0	26.736	0	281.297	0	92.1	4	29.9	4	-1E+10	1	-1E+10	1	-1E+10	1	-1E+10	1	-1E+10	1	-1E+10	1
4902551	69	C	07/09/2022	17:03	-132.146	49.042	0	284.90	0	5.2280	0	33.8510	0	26.741	0	282.288	0	91.6	4	29.7	4	-1E+10	1	-1E+10	1	-1E+10	1	-1E+10	1	-1E+10	1	-1E+10	1
4902551	69	C	07/09/2022	17:03	-132.146	49.042	0	285.90	0	5.2340	0	33.8530	0	26.742	0	283.278	0	91.2	4	29.6	4	-1E+10	1	-1E+10	1	-1E+10	1	-1E+10	1	-1E+10	1	-1E+10	1
4902551	69	C	07/09/2022	17:03	-132.146	49.042	0	286.90	0	5.2360	0	33.8530	0	26.742	0	284.268	0	90.8	4	29.4	4	-1E+10	1	-1E+10	1	-1E+10	1	-1E+10	1	-1E+10	1	-1E+10	1
4902551	69	C	07/09/2022	17:03	-132.146	49.042	0	287.90	0	5.2350	0	33.8630	0	26.750	0	285.258	0	90.3	4	29.3	4	-1E+10	1	-1E+10	1	-1E+10	1	-1E+10	1	-1E+10	1	-1E+10	1
4902551	69	C	07/09/2022	17:03	-132.146	49.042	0	288.90	0	5.2220	0	33.8600	0	26.749	0	286.248	0	89.8	4	29.1	4	-1E+10	1	-1E+10	1	-1E+10	1	-1E+10	1	-1E+10	1	-1E+10	1
4902551	69	C	07/09/2022	17:03	-132.146	49.042	0	289.80	0	5.2400	0	33.8460	0	26.736	0	287.139	0	89.2	4	28.9	4	-1E+10	1	-1E+10	1	-1E+10	1	-1E+10	1	-1E+10	1	-1E+10	1
4902551	69	C	07/09/2022	17:03	-132.146	49.042	0	290.80	0	5.2360	0	33.8670	0	26.753	0	288.129	0	88.6	4	28.7	4	-1E+10	1	-1E+10	1	-1E+10	1	-1E+10	1	-1E+10	1	-1E+10	1
4902551	69	C	07/09/2022	17:03	-132.146	49.042	0	291.80	0	5.2140	0	33.8640	0	26.753	0	289.120	0	88.0	4	28.5	4	-1E+10	1	-1E+10	1	-1E+10	1	-1E+10	1	-1E+10	1	-1E+10	1
4902551	69	C	07/09/2022	17:03	-132.146	49.042	0	292.90	0	5.2130	0	33.8610	0	26.751	0	290.209	0	87.4	4	28.3	4	-1E+10	1	-1E+10	1	-1E+10	1	-1E+10	1	-1E+10	1	-1E+10	1
4902551	69	C	07/09/2022	17:03	-132.146	49.042	0	293.80	0	5.2230	0	33.8670	0	26.754	0	291.100	0	86.8	4	28.1	4	-1E+10	1	-1E+10	1	-1E+10	1	-1E+10	1	-1E+10	1	-1E+10	1
4902551	69	C	07/09/2022	17:03	-132.146	49.042	0	294.80	0	5.2140	0	33.8660	0	26.754	0	292.090	0	86.3	4	28.0	4	-1E+10	1	-1E+10	1	-1E+10	1	-1E+10	1	-1E+10	1	-1E+10	1
4902551	69	C	07/09/2022	17:03	-132.146	49.042	0	295.90	0	5.2150	0	33.8690	0	26.757	0	293.179	0	85.7	4	27.8	4	-1E+10	1	-1E+10	1	-1E+10	1	-1E+10	1	-1E+10	1	-1E+10	1
4902551	69	C	07/09/2022	17:03	-132.146	49.042	0	296.90	0	5.2030	0	33.8760	0	26.764	0	294.169	0	85.2	4	27.6	4	-1E+10	1	-1E+10	1	-1E+10	1	-1E+10	1	-1E+10	1	-1E+10	1
4902551	69	C	07/09/2022	17:03	-132.146	49.042	0	297.90	0	5.1930	0	33.8770	0	26.766	0	295.159	0	84.8	4	27.5	4	-1E+10	1	-1E+10	1	-1E+10	1	-1E+10	1	-1E+10	1	-1E+10	1
4902551	69	C	07/09/2022	17:03	-132.146	49.042	0	298.90	0	5.1880	0	33.8770	0	26.766	0	296.149	0	84.4	4	27.3	4	-1E+10	1	-1E+10	1	-1E+10	1	-1E+10	1	-1E+10	1	-1E+10	1
4902551	69	C	07/09/2022	17:03	-132.146	49.042	0	299.90	0	5.1850	0	33.8770	0	26.767	0	297.139	0	83.9	4	27.2	4	-1E+10	1	-1E+10	1	-1E+10	1	-1E+10	1	-1E+10	1	-1E+10	1
4902551	69	C	07/09/2022	17:03	-132.146	49.042	0	300.90	0	5.1800	0	33.8770	0	26.767	0	298.129	0	83.5	4	27.1	4	-1E+10	1	-1E+10	1	-1E+10	1	-1E+10	1	-1E+10	1	-1E+10	1
4902551	69	C	07/09/2022	17:03	-132.146	49.042	0	302.00	0	5.1710	0	33.8790	0	26.770	0	299.218	0	83.0	4	26.9	4	-1E+10	1	-1E+10	1	-1E+10	1	-1E+10	1	-1E+10	1	-1E+10	1
4902551	69	C	07/09/2022	17:03	-132.146	49.042	0	303.00	0	5.1640	0	33.8790	0	26.771	0	300.209	0	82.4	4	26.7	4	-1E+10	1	-1E+10	1	-1E+10	1	-1E+10	1	-1E+10	1	-1E+10	1
4902551	69	C	07/09/2022	17:03	-132.146	49.042	0	304.00	0	5.1570	0	33.8820	0	26.774	0	301.199	0	81.9	4	26.5	4	-1E+10	1	-1E+10	1	-1E+10	1	-1E+10	1	-1E+10	1	-1E+10	1
4902551	69	C	07/09/2022	17:03	-132.146	49.042	0	305.00	0	5.1510	0	33.8820	0	26.774	0	302.189	0	81.3	4	26.3	4	-1E+10	1	-1E+10	1	-1E+10	1	-1E+10	1	-1E+10	1	-1E+10	1
4902551	69	C	07/09/2022	17:03	-132.146	49.042	0	306.10	0	5.1470	0	33.8790	0	26.773	0	303.278	0	80.6	4	26.1	4	-1E+10	1	-1E+10	1	-1E+10	1	-1E+10	1	-1E+10	1	-1E+10	1
4902551	69	C	07/09/2022	17:03	-132.146	49.042	0	307.10	0	5.1480	0	33.8790	0	26.772	0	304.268	0	79.9	4	25.9	4	-1E+10	1	-1E+10	1	-1E+10	1	-1E+10	1	-1E+10	1	-1E+10	1
4902551	69	C	07/09/2022	17:03	-132.146	49.042	0	308.10	0	5.1510	0	33.8790	0	26.772	0	305.258	0	79.0	4	25.6	4	-1E+10	1	-1E+10	1	-1E+10	1	-1E+10	1	-1E+10	1	-1E+10	1
4902551	69	C	07/09/2022	17:03	-132.146	49.042	0	309.10	0	5.1480	0	33.8800	0	26.773	0	306.248	0	78.1	4	25.3	4	-1E+10	1	-1E+10	1	-1E+10	1	-1E+10	1	-1E+10	1	-1E+10	1
4902551	69	C	07/09/2022	17:03	-132.146	49.042	0	310.00	0	5.1470	0	33.8830	0	26.776	0	307.139	0	77.3	4	25.0	4	-1E+10	1	-1E+10	1	-1E+10	1	-1E+10	1	-1E+10	1	-1E+10	1
4902551	69	C	07/09/2022	17:03	-132.146	49.042	0	311.10	0	5.1520	0	33.8880	0	26.779	0	308.228	0	76.1	4	24.7	4	-1E+10	1	-1E+10	1	-1E+10	1	-1E+10	1	-1E+10	1	-1E+10	1
4902551	69	C	07/09/2022	17:03	-132.146	49.042	0	311.90	0	5.1610	0	33.8800	0	26.772	0	309.020	0	75.4	4	24.4	4	-1E+10	1	-1E+10	1	-1E+10	1	-1E+10	1	-1E+10	1	-1E+10	1
4902551	69	C	07/09/2022	17:03	-132.146	49.042	0	313.00	0	5.1890	0	33.8980	0	26.783	0	310.109	0	74.4	4	24.1	4	-1E+10	1	-1E+10	1	-1E+10	1	-1E+10	1	-1E+10	1	-1E+10	1
4902551	69	C	07/09/2022	17:03	-132.146	49.042	0	314.10	0	5.1950	0	33.9010	0	26.785	0	311.198	0	73.4	4	23.8	4	-1E+10	1	-1E+10	1	-1E+10	1	-1E+10	1	-1E+10	1	-1E+10	1
4902551	69	C	07/09/2022	17:03	-132.146	49.042	0	314.90	0	5.1990	0	33.9020	0	26.785	0	311.990	0	72.6	4	23.6	4	-1E+10	1	-1E+10	1	-1E+10	1	-1E+10	1	-1E+10	1	-1E+10	1
4902551	69	C	07/09/2022	17:03	-132.146	49.042	0	315.70	0	5.2360	0	33.8820	0	26.765	0	312.782	0	72.0	4	23.4	4	-1E+10	1	-1E+10	1	-1E+10	1	-1E+10	1	-1E+10	1	-1E+10	1
4902551	69	C	07/09/2022	17:03	-132.146	49.042	0	316.80	0	5.2670	0	33.9150	0	26.787	0	313.871	0	71.4	4	23.2	4	-1E+10	1	-1E+10	1	-1E+10	1	-1E+10	1	-1E+10	1	-1E+10	1
4902551	69	C	07/09/2022	17:03	-132.146	49.042	0	318.00	0	5.2970	0	33.9250	0	26.792	0	315.059	0	71.1	4	23.1	4	-1E+10	1	-1E+10	1	-1E+10	1	-1E+10	1	-1E+10	1	-1E+10	1
4902551	69	C	07/09/2022	17:03	-132.146	49.042	0	318.80	0	5.3160	0	33.9220	0	26.787	0	315.851	0	71.0	4	23.1	4	-1E+10	1	-1E+10	1	-1E+10	1	-1E+10	1	-1E+10	1	-1E+10	1
4902551	69	C	07/09/2022	17:03	-132.146	49.042	0	319.90	0	5.3040	0	33.9450	0	26.807	0	316.940	0	71.1	4	23.1	4	-1E+10	1	-1E+10	1	-1E+10	1	-1E+10	1	-1E+10	1	-1E+10	1
4902551	69	C	07/09/2022	17:03	-132.146	49.042	0	321.10	0	5.2750	0	33.9400	0	26.806	0	318.128	0	71.2	4	23.1	4	-1E+10	1	-1E+10	1	-1E+10	1	-1E+10	1	-1E+10	1	-1E+10	1
4902551	69	C	07/09/2022	17:03	-132.146	49.042	0	321.90	0	5.2390	0	33.9370	0	26.808	0	318.920	0	71.2	4	23.1	4	-1E+10	1	-1E+10	1	-1E+10	1	-1E+10	1	-1E+10	1	-1E+10	1
4902551	69	C	07/09/2022	17:03	-132.146	49.042	0	322.70	0	5.2170	0	33.9370	0	26.811	0	319.712	0	71.2	4	23.1	4	-1E+10	1	-1E+10	1	-1E+10	1	-1E+10	1	-1E+10	1	-1E+10	1
4902551	69	C	07/09/2022	17:03	-132.146	49.042	0	323.90	0	5.1780	0	33.9290	0	26.809	0	320.900	0	71.1	4	23.0	4	-1E+10	1	-1E+10	1	-1E+10	1	-1E+10	1	-1E+10	1	-1E+10	1
4902551	69	C	07/09/2022	17:03	-132.146	49.042	0	325.10	0	5.1640	0	33.9270	0	26.809	0	322.088	0	70.9	4	23.0	4	-1E+10	1	-1E+10	1	-1E+10	1	-1E+10	1	-1E+10	1	-1E+10	1
4902551	69	C	07/09/2022	17:03	-132.146	49.042	0	325.80	0	5.1570	0	33.9260	0	26.809	0	322.781	0	70.7	4	22.9	4	-1E+10	1	-1E+10	1	-1E+10	1	-1E+10	1	-1E+10	1	-1E+10	1
4902551	69	C	07/09/2022	17:03	-132.146	49.042	0	327.00	0	5.1470	0	33.9270	0	26.811	0	323.969	0	70.5	4	22.8	4	-1E+10	1	-1E+10	1	-1E+10	1	-1E+10	1	-1E+10	1	-1E+10	1
4902551	69	C	07/09/2022	17:03	-132.146	49.042	0	328.20	0	5.1430	0	33.9260	0	26.810	0	325.157	0	70.1	4	22.7	4	-1E+10	1	-1E+10	1	-1E+10	1	-1E+10	1	-1E+10	1	-1E+10	1
4902551	69	C	07/09/2022	17:03	-132.146	49.042	0	329.00	0	5.1420	0	33.9250	0	26.810	0	325.949	0	69.9	4	22.6	4	-1E+10	1	-1E+10	1	-1E+10	1	-1E+10	1	-1E+10	1	-1E+10	1
4902551	69	C	07/09/2022	17:03	-132.146	49.042	0	329.80	0	5.1430	0	33.9250	0	26.810	0	326.741	0	69.7	4	22.6	4	-1E+10	1	-1E+10	1	-1E+10	1	-1E+10	1	-1E+10	1	-1E+10	1
4902551	69	C	07/09/2022	17:03	-132.146	49.042	0	330.70	0	5.1420	0	33.9270	0	26.811	0	327.631	0	69.5	4	22.5	4	-1E+10	1	-1E+10	1	-1E+10	1	-1E+10	1	-1E+10	1	-1E+10	1
4902551	69	C	07/09/2022	17:03	-132.146	49.042	0	331.90	0	5.1340	0	33.9300	0	26.815	0	328.819	0	69.3	4	22.4	4	-1E+10	1	-1E+10	1	-1E+10	1	-1E+10	1	-1E+10	1	-1E+10	1
4902551	69	C	07/09/2022	17:03	-132.146	49.042	0	333.10	0	5.1240	0	33.9320	0	26.817	0	330.007	0	69.1	4	22.4	4	-1E+10	1	-1E+10	1	-1E+10	1	-1E+10	1	-1E+10	1	-1E+10	1
4902551	69	C	07/09/2022	17:03	-132.146	49.042	0	333.90	0	5.1170	0	33.9350	0	26.821	0	330.799	0	69.1	4	22.4	4	-1E+10	1	-1E+10	1	-1E+10	1	-1E+10	1	-1E+10	1	-1E+10	1
4902551	69	C	07/09/2022	17:03	-132.146	49.042	0	334.80	0	5.0990	0	33.9290	0	26.818	0	331.690	0	68.9	4	22.3	4	-1E+10	1	-1E+10	1	-1E+10	1	-1E+10	1	-1E+10	1	-1E+10	1
4902551	69	C	07/09/2022	17:03	-132.146	49.042	0	336.00	0	5.0860	0	33.9320	0	26.822	0	332.878	0	68.7	4	22.2	4	-1E+10	1	-1E+10	1	-1E+10	1	-1E+10	1	-1E+10	1	-1E+10	1
4902551	69	C	07/09/2022	17:03	-132.146	49.042	0	337.30	0	5.0610	0	33.9320	0	26.825	0	334.165	0	68.4	4	22.1	4	-1E+10	1	-1E+10	1	-1E+10	1	-1E+10	1	-1E+10	1	-1E+10	1
4902551	69	C	07/09/2022	17:03	-132.146	49.042	0	338.10	0	5.0500	0	33.9300	0	26.824	0	334.957	0	68.2	4	22.0	4	-1E+10	1	-1E+10	1	-1E+10	1	-1E+10	1	-1E+10	1	-1E+10	1
4902551	69	C	07/09/2022	17:03	-132.146	49.042	0	338.90	0	5.0470	0	33.9290	0	26.824	0	335.749	0	67.9	4	22.0	4	-1E+10	1	-1E+10	1	-1E+10	1	-1E+10	1	-1E+10	1	-1E+10	1
4902551	69	C	07/09/2022	17:03	-132.146	49.042	0	339.70	0	5.0560	0	33.9280	0	26.822	0	336.541	0	67.7	4	21.9	4	-1E+10	1	-1E+10	1	-1E+10	1	-1E+10	1	-1E+10	1	-1E+10	1
4902551	69	C	07/09/2022	17:03	-132.146	49.042	0	341.00	0	5.0470	0	33.9290	0	26.824	0	337.827	0	67.3	4	21.7	4	-1E+10	1	-1E+10	1	-1E+10	1	-1E+10	1	-1E+10	1	-1E+10	1
4902551	69	C	07/09/2022	17:03	-132.146	49.042	0	342.20	0	5.0450	0	33.9310	0	26.826	0	339.015	0	66.9	4	21.6	4	-1E+10	1	-1E+10	1	-1E+10	1	-1E+10	1	-1E+10	1	-1E+10	1
4902551	69	C	07/09/2022	17:03	-132.146	49.042	0	343.10	0	5.0420	0	33.9310	0	26.826	0	339.906	0	66.6	4	21.5	4	-1E+10	1	-1E+10	1	-1E+10	1	-1E+10	1	-1E+10	1	-1E+10	1
4902551	69	C	07/09/2022	17:03	-132.146	49.042	0	343.90	0	5.0400	0	33.9320	0	26.827	0	340.698	0	66.3	4	21.4	4	-1E+10	1	-1E+10	1	-1E+10	1	-1E+10	1	-1E+10	1	-1E+10	1
4902551	69	C	07/09/2022	17:03	-132.146	49.042	0	344.70	0	5.0350	0	33.9320	0	26.828	0	341.490	0	66.1	4	21.3	4	-1E+10	1	-1E+10	1	-1E+10	1	-1E+10	1	-1E+10	1	-1E+10	1
4902551	69	C	07/09/2022	17:03	-132.146	49.042	0	345.90	0	5.0320	0	33.9350	0	26.830	0	342.678	0	65.6	4	21.2	4	-1E+10	1	-1E+10	1	-1E+10	1	-1E+10	1	-1E+10	1	-1E+10	1
4902551	69	C	07/09/2022	17:03	-132.146	49.042	0	347.20	0	5.0300	0	33.9360	0	26.831	0	343.965	0	65.2	4	21.1	4	-1E+10	1	-1E+10	1	-1E+10	1	-1E+10	1	-1E+10	1	-1E+10	1
4902551	69	C	07/09/2022	17:03	-132.146	49.042	0	348.00	0	5.0290	0	33.9370	0	26.832	0	344.757	0	64.9	4	21.0	4	-1E+10	1	-1E+10	1	-1E+10	1	-1E+10	1	-1E+10	1	-1E+10	1
4902551	69	C	07/09/2022	17:03	-132.146	49.042	0	348.90	0	5.0250	0	33.9390	0	26.834	0	345.647	0	64.6	4	20.9	4	-1E+10	1	-1E+10	1	-1E+10	1	-1E+10	1	-1E+10	1	-1E+10	1
4902551	69	C	07/09/2022	17:03	-132.146	49.042	0	349.70	0	5.0230	0	33.9410	0	26.836	0	346.439	0	64.5	4	20.8	4	-1E+10	1	-1E+10	1	-1E+10	1	-1E+10	1	-1E+10	1	-1E+10	1
4902551	69	C	07/09/2022	17:03	-132.146	49.042	0	352.60	0	5.0170	0	33.9410	0	26.837	0	349.310	0	63.5	4	20.5	4	-1E+10	1	-1E+10	1	-1E+10	1	-1E+10	1	-1E+10	1	-1E+10	1
4902551	69	C	07/09/2022	17:03	-132.146	49.042	0	357.70	0	4.9820	0	33.9450	0	26.844	0	354.358	0	61.5	4	19.8	4	-1E+10	1	-1E+10	1	-1E+10	1	-1E+10	1	-1E+10	1	-1E+10	1
4902551	69	C	07/09/2022	17:03	-132.146	49.042	0	362.80	0	4.9390	0	33.9490	0	26.852	0	359.406	0	58.8	4	19.0	4	-1E+10	1	-1E+10	1	-1E+10	1	-1E+10	1	-1E+10	1	-1E+10	1
4902551	69	C	07/09/2022	17:03	-132.146	49.042	0	367.90	0	4.9150	0	33.9600	0	26.864	0	364.454	0	56.7	4	18.3	4	-1E+10	1	-1E+10	1	-1E+10	1	-1E+10	1	-1E+10	1	-1E+10	1
4902551	69	C	07/09/2022	17:03	-132.146	49.042	0	373.10	0	4.9190	0	33.9680	0	26.870	0	369.600	0	54.8	4	17.7	4	-1E+10	1	-1E+10	1	-1E+10	1	-1E+10	1	-1E+10	1	-1E+10	1
4902551	69	C	07/09/2022	17:03	-132.146	49.042	0	377.90	0	4.8920	0	33.9730	0	26.877	0	374.351	0	53.1	4	17.1	4	-1E+10	1	-1E+10	1	-1E+10	1	-1E+10	1	-1E+10	1	-1E+10	1
4902551	69	C	07/09/2022	17:03	-132.146	49.042	0	382.80	0	4.8930	0	33.9820	0	26.884	0	379.200	0	51.8	4	16.7	4	-1E+10	1	-1E+10	1	-1E+10	1	-1E+10	1	-1E+10	1	-1E+10	1
4902551	69	C	07/09/2022	17:03	-132.146	49.042	0	388.10	0	4.8870	0	33.9860	0	26.888	0	384.446	0	50.5	4	16.3	4	-1E+10	1	-1E+10	1	-1E+10	1	-1E+10	1	-1E+10	1	-1E+10	1
4902551	69	C	07/09/2022	17:03	-132.146	49.042	0	392.90	0	4.8700	0	33.9920	0	26.894	0	389.196	0	49.2	4	15.8	4	-1E+10	1	-1E+10	1	-1E+10	1	-1E+10	1	-1E+10	1	-1E+10	1
4902551	69	C	07/09/2022	17:03	-132.146	49.042	0	397.80	0	4.8330	0	33.9950	0	26.901	0	394.045	0	47.9	4	15.4	4	-1E+10	1	-1E+10	1	-1E+10	1	-1E+10	1	-1E+10	1	-1E+10	1
4902551	69	C	07/09/2022	17:03	-132.146	49.042	0	403.20	0	4.8110	0	34.0020	0	26.909	0	399.389	0	46.1	4	14.8	4	-1E+10	1	-1E+10	1	-1E+10	1	-1E+10	1	-1E+10	1	-1E+10	1
4902551	69	C	07/09/2022	17:03	-132.146	49.042	0	408.10	0	4.7690	0	34.0110	0	26.921	0	404.238	0	44.5	4	14.3	4	-1E+10	1	-1E+10	1	-1E+10	1	-1E+10	1	-1E+10	1	-1E+10	1
4902551	69	C	07/09/2022	17:03	-132.146	49.042	0	413.10	0	4.7430	0	34.0150	0	26.927	0	409.186	0	43.1	4	13.8	4	-1E+10	1	-1E+10	1	-1E+10	1	-1E+10	1	-1E+10	1	-1E+10	1
4902551	69	C	07/09/2022	17:03	-132.146	49.042	0	418.10	0	4.7330	0	34.0210	0	26.933	0	414.133	0	41.4	4	13.3	4	-1E+10	1	-1E+10	1	-1E+10	1	-1E+10	1	-1E+10	1	-1E+10	1
4902551	69	C	07/09/2022	17:03	-132.146	49.042	0	423.00	0	4.7350	0	34.0270	0	26.937	0	418.982	0	39.7	4	12.7	4	-1E+10	1	-1E+10	1	-1E+10	1	-1E+10	1	-1E+10	1	-1E+10	1
4902551	69	C	07/09/2022	17:03	-132.146	49.042	0	428.00	0	4.7220	0	34.0370	0	26.947	0	423.929	0	38.3	4	12.3	4	-1E+10	1	-1E+10	1	-1E+10	1	-1E+10	1	-1E+10	1	-1E+10	1
4902551	69	C	07/09/2022	17:03	-132.146	49.042	0	432.90	0	4.6930	0	34.0440	0	26.956	0	428.778	0	37.4	4	12.0	4	-1E+10	1	-1E+10	1	-1E+10	1	-1E+10	1	-1E+10	1	-1E+10	1
4902551	69	C	07/09/2022	17:03	-132.146	49.042	0	437.90	0	4.6660	0	34.0490	0	26.963	0	433.725	0	36.3	4	11.6	4	-1E+10	1	-1E+10	1	-1E+10	1	-1E+10	1	-1E+10	1	-1E+10	1
4902551	69	C	07/09/2022	17:03	-132.146	49.042	0	442.90	0	4.6440	0	34.0540	0	26.969	0	438.672	0	35.6	4	11.4	4	-1E+10	1	-1E+10	1	-1E+10	1	-1E+10	1	-1E+10	1	-1E+10	1
4902551	69	C	07/09/2022	17:03	-132.146	49.042	0	448.10	0	4.6380	0	34.0570	0	26.972	0	443.817	0	35.2	4	11.3	4	-1E+10	1	-1E+10	1	-1E+10	1	-1E+10	1	-1E+10	1	-1E+10	1
4902551	69	C	07/09/2022	17:03	-132.146	49.042	0	453.00	0	4.6290	0	34.0580	0	26.974	0	448.664	0	34.7	4	11.1	4	-1E+10	1	-1E+10	1	-1E+10	1	-1E+10	1	-1E+10	1	-1E+10	1
4902551	69	C	07/09/2022	17:03	-132.146	49.042	0	458.10	0	4.6090	0	34.0610	0	26.979	0	453.710	0	33.9	4	10.8	4	-1E+10	1	-1E+10	1	-1E+10	1	-1E+10	1	-1E+10	1	-1E+10	1
4902551	69	C	07/09/2022	17:03	-132.146	49.042	0	462.90	0	4.5990	0	34.0630	0	26.981	0	458.459	0	32.8	4	10.5	4	-1E+10	1	-1E+10	1	-1E+10	1	-1E+10	1	-1E+10	1	-1E+10	1
4902551	69	C	07/09/2022	17:03	-132.146	49.042	0	467.70	0	4.5940	0	34.0700	0	26.987	0	463.207	0	31.9	4	10.2	4	-1E+10	1	-1E+10	1	-1E+10	1	-1E+10	1	-1E+10	1	-1E+10	1
4902551	69	C	07/09/2022	17:03	-132.146	49.042	0	472.60	0	4.5820	0	34.0730	0	26.991	0	468.055	0	30.9	4	9.9	4	-1E+10	1	-1E+10	1	-1E+10	1	-1E+10	1	-1E+10	1	-1E+10	1
4902551	69	C	07/09/2022	17:03	-132.146	49.042	0	477.50	0	4.5530	0	34.0780	0	26.998	0	472.902	0	29.5	4	9.4	4	-1E+10	1	-1E+10	1	-1E+10	1	-1E+10	1	-1E+10	1	-1E+10	1
4902551	69	C	07/09/2022	17:03	-132.146	49.042	0	482.50	0	4.5190	0	34.0880	0	27.010	0	477.848	0	28.3	4	9.0	4	-1E+10	1	-1E+10	1	-1E+10	1	-1E+10	1	-1E+10	1	-1E+10	1
4902551	69	C	07/09/2022	17:03	-132.146	49.042	0	487.50	0	4.4840	0	34.0950	0	27.019	0	482.794	0	27.3	4	8.7	4	-1E+10	1	-1E+10	1	-1E+10	1	-1E+10	1	-1E+10	1	-1E+10	1
4902551	69	C	07/09/2022	17:03	-132.146	49.042	0	492.50	0	4.4730	0	34.0980	0	27.023	0	487.740	0	26.5	4	8.4	4	-1E+10	1	-1E+10	1	-1E+10	1	-1E+10	1	-1E+10	1	-1E+10	1
4902551	69	C	07/09/2022	17:03	-132.146	49.042	0	497.60	0	4.4710	0	34.1030	0	27.027	0	492.785	0	25.4	4	8.1	4	-1E+10	1	-1E+10	1	-1E+10	1	-1E+10	1	-1E+10	1	-1E+10	1
4902551	69	C	07/09/2022	17:03	-132.146	49.042	0	502.70	0	4.4500	0	34.1130	0	27.037	0	497.829	0	24.6	4	7.8	4	-1E+10	1	-1E+10	1	-1E+10	1	-1E+10	1	-1E+10	1	-1E+10	1
4902551	69	C	07/09/2022	17:03	-132.146	49.042	0	507.80	0	4.4250	0	34.1170	0	27.043	0	502.874	0	24.0	4	7.7	4	-1E+10	1	-1E+10	1	-1E+10	1	-1E+10	1	-1E+10	1	-1E+10	1
4902551	69	C	07/09/2022	17:03	-132.146	49.042	0	512.80	0	4.4150	0	34.1210	0	27.048	0	507.819	0	23.4	4	7.5	4	-1E+10	1	-1E+10	1	-1E+10	1	-1E+10	1	-1E+10	1	-1E+10	1
4902551	69	C	07/09/2022	17:03	-132.146	49.042	0	517.80	0	4.4010	0	34.1250	0	27.052	0	512.764	0	23.0	4	7.3	4	-1E+10	1	-1E+10	1	-1E+10	1	-1E+10	1	-1E+10	1	-1E+10	1
4902551	69	C	07/09/2022	17:03	-132.146	49.042	0	522.80	0	4.3920	0	34.1280	0	27.056	0	517.709	0	22.6	4	7.2	4	-1E+10	1	-1E+10	1	-1E+10	1	-1E+10	1	-1E+10	1	-1E+10	1
4902551	69	C	07/09/2022	17:03	-132.146	49.042	0	527.90	0	4.3760	0	34.1300	0	27.059	0	522.753	0	22.2	4	7.1	4	-1E+10	1	-1E+10	1	-1E+10	1	-1E+10	1	-1E+10	1	-1E+10	1
4902551	69	C	07/09/2022	17:03	-132.146	49.042	0	532.70	0	4.3660	0	34.1320	0	27.062	0	527.500	0	21.8	4	6.9	4	-1E+10	1	-1E+10	1	-1E+10	1	-1E+10	1	-1E+10	1	-1E+10	1
4902551	69	C	07/09/2022	17:03	-132.146	49.042	0	537.90	0	4.3600	0	34.1350	0	27.065	0	532.643	0	21.2	4	6.8	4	-1E+10	1	-1E+10	1	-1E+10	1	-1E+10	1	-1E+10	1	-1E+10	1
4902551	69	C	07/09/2022	17:03	-132.146	49.042	0	543.30	0	4.3420	0	34.1420	0	27.072	0	537.983	0	20.5	4	6.5	4	-1E+10	1	-1E+10	1	-1E+10	1	-1E+10	1	-1E+10	1	-1E+10	1
4902551	69	C	07/09/2022	17:03	-132.146	49.042	0	547.80	0	4.3260	0	34.1470	0	27.078	0	542.433	0	20.1	4	6.4	4	-1E+10	1	-1E+10	1	-1E+10	1	-1E+10	1	-1E+10	1	-1E+10	1
4902551	69	C	07/09/2022	17:03	-132.146	49.042	0	552.60	0	4.3210	0	34.1480	0	27.079	0	547.180	0	19.9	4	6.3	4	-1E+10	1	-1E+10	1	-1E+10	1	-1E+10	1	-1E+10	1	-1E+10	1
4902551	69	C	07/09/2022	17:03	-132.146	49.042	0	557.90	0	4.3180	0	34.1500	0	27.081	0	552.421	0	19.5	4	6.2	4	-1E+10	1	-1E+10	1	-1E+10	1	-1E+10	1	-1E+10	1	-1E+10	1
4902551	69	C	07/09/2022	17:03	-132.146	49.042	0	562.80	0	4.3080	0	34.1530	0	27.085	0	557.266	0	18.9	4	6.0	4	-1E+10	1	-1E+10	1	-1E+10	1	-1E+10	1	-1E+10	1	-1E+10	1
4902551	69	C	07/09/2022	17:03	-132.146	49.042	0	567.60	0	4.2900	0	34.1590	0	27.091	0	562.013	0	18.5	4	5.9	4	-1E+10	1	-1E+10	1	-1E+10	1	-1E+10	1	-1E+10	1	-1E+10	1
4902551	69	C	07/09/2022	17:03	-132.146	49.042	0	572.90	0	4.2850	0	34.1610	0	27.094	0	567.253	0	18.1	4	5.8	4	-1E+10	1	-1E+10	1	-1E+10	1	-1E+10	1	-1E+10	1	-1E+10	1
4902551	69	C	07/09/2022	17:03	-132.146	49.042	0	578.20	0	4.2740	0	34.1650	0	27.098	0	572.494	0	17.7	4	5.6	4	-1E+10	1	-1E+10	1	-1E+10	1	-1E+10	1	-1E+10	1	-1E+10	1
4902551	69	C	07/09/2022	17:03	-132.146	49.042	0	583.00	0	4.2620	0	34.1700	0	27.103	0	577.240	0	17.2	4	5.5	4	-1E+10	1	-1E+10	1	-1E+10	1	-1E+10	1	-1E+10	1	-1E+10	1
4902551	69	C	07/09/2022	17:03	-132.146	49.042	0	588.00	0	4.2420	0	34.1730	0	27.108	0	582.183	0	16.9	4	5.4	4	-1E+10	1	-1E+10	1	-1E+10	1	-1E+10	1	-1E+10	1	-1E+10	1
4902551	69	C	07/09/2022	17:03	-132.146	49.042	0	593.20	0	4.2250	0	34.1780	0	27.114	0	587.325	0	16.6	4	5.3	4	-1E+10	1	-1E+10	1	-1E+10	1	-1E+10	1	-1E+10	1	-1E+10	1
4902551	69	C	07/09/2022	17:03	-132.146	49.042	0	598.00	0	4.2220	0	34.1790	0	27.115	0	592.070	0	16.2	4	5.2	4	-1E+10	1	-1E+10	1	-1E+10	1	-1E+10	1	-1E+10	1	-1E+10	1
4902551	69	C	07/09/2022	17:03	-132.146	49.042	0	602.90	0	4.1970	0	34.1860	0	27.123	0	596.915	0	15.9	4	5.0	4	-1E+10	1	-1E+10	1	-1E+10	1	-1E+10	1	-1E+10	1	-1E+10	1
4902551	69	C	07/09/2022	17:03	-132.146	49.042	0	607.80	0	4.1770	0	34.1890	0	27.127	0	601.759	0	15.8	4	5.0	4	-1E+10	1	-1E+10	1	-1E+10	1	-1E+10	1	-1E+10	1	-1E+10	1
4902551	69	C	07/09/2022	17:03	-132.146	49.042	0	613.00	0	4.1690	0	34.1890	0	27.128	0	606.900	0	15.5	4	4.9	4	-1E+10	1	-1E+10	1	-1E+10	1	-1E+10	1	-1E+10	1	-1E+10	1
4902551	69	C	07/09/2022	17:03	-132.146	49.042	0	618.20	0	4.1620	0	34.1920	0	27.131	0	612.040	0	15.2	4	4.8	4	-1E+10	1	-1E+10	1	-1E+10	1	-1E+10	1	-1E+10	1	-1E+10	1
4902551	69	C	07/09/2022	17:03	-132.146	49.042	0	623.00	0	4.1500	0	34.1970	0	27.137	0	616.785	0	14.9	4	4.7	4	-1E+10	1	-1E+10	1	-1E+10	1	-1E+10	1	-1E+10	1	-1E+10	1
4902551	69	C	07/09/2022	17:03	-132.146	49.042	0	628.00	0	4.1460	0	34.2000	0	27.140	0	621.728	0	14.5	4	4.6	4	-1E+10	1	-1E+10	1	-1E+10	1	-1E+10	1	-1E+10	1	-1E+10	1
4902551	69	C	07/09/2022	17:03	-132.146	49.042	0	632.90	0	4.1310	0	34.2060	0	27.146	0	626.572	0	14.3	4	4.5	4	-1E+10	1	-1E+10	1	-1E+10	1	-1E+10	1	-1E+10	1	-1E+10	1
4902551	69	C	07/09/2022	17:03	-132.146	49.042	0	638.00	0	4.1060	0	34.2110	0	27.152	0	631.613	0	14.3	4	4.5	4	-1E+10	1	-1E+10	1	-1E+10	1	-1E+10	1	-1E+10	1	-1E+10	1
4902551	69	C	07/09/2022	17:03	-132.146	49.042	0	643.20	0	4.0810	0	34.2130	0	27.157	0	636.753	0	14.3	4	4.5	4	-1E+10	1	-1E+10	1	-1E+10	1	-1E+10	1	-1E+10	1	-1E+10	1
4902551	69	C	07/09/2022	17:03	-132.146	49.042	0	647.90	0	4.0720	0	34.2140	0	27.158	0	641.399	0	14.3	4	4.5	4	-1E+10	1	-1E+10	1	-1E+10	1	-1E+10	1	-1E+10	1	-1E+10	1
4902551	69	C	07/09/2022	17:03	-132.146	49.042	0	653.00	0	4.0700	0	34.2120	0	27.157	0	646.439	0	14.3	4	4.5	4	-1E+10	1	-1E+10	1	-1E+10	1	-1E+10	1	-1E+10	1	-1E+10	1
4902551	69	C	07/09/2022	17:03	-132.146	49.042	0	658.10	0	4.0640	0	34.2120	0	27.158	0	651.480	0	14.2	4	4.5	4	-1E+10	1	-1E+10	1	-1E+10	1	-1E+10	1	-1E+10	1	-1E+10	1
4902551	69	C	07/09/2022	17:03	-132.146	49.042	0	662.80	0	4.0530	0	34.2140	0	27.161	0	656.126	0	14.1	4	4.5	4	-1E+10	1	-1E+10	1	-1E+10	1	-1E+10	1	-1E+10	1	-1E+10	1
4902551	69	C	07/09/2022	17:03	-132.146	49.042	0	667.50	0	4.0130	0	34.2200	0	27.169	0	660.771	0	14.0	4	4.4	4	-1E+10	1	-1E+10	1	-1E+10	1	-1E+10	1	-1E+10	1	-1E+10	1
4902551	69	C	07/09/2022	17:03	-132.146	49.042	0	672.90	0	4.0030	0	34.2220	0	27.172	0	666.108	0	13.8	4	4.4	4	-1E+10	1	-1E+10	1	-1E+10	1	-1E+10	1	-1E+10	1	-1E+10	1
4902551	69	C	07/09/2022	17:03	-132.146	49.042	0	678.20	0	3.9950	0	34.2250	0	27.175	0	671.346	0	13.7	4	4.3	4	-1E+10	1	-1E+10	1	-1E+10	1	-1E+10	1	-1E+10	1	-1E+10	1
4902551	69	C	07/09/2022	17:03	-132.146	49.042	0	683.00	0	3.9750	0	34.2280	0	27.180	0	676.089	0	13.5	4	4.3	4	-1E+10	1	-1E+10	1	-1E+10	1	-1E+10	1	-1E+10	1	-1E+10	1
4902551	69	C	07/09/2022	17:03	-132.146	49.042	0	687.60	0	3.9560	0	34.2300	0	27.183	0	680.635	0	13.4	4	4.2	4	-1E+10	1	-1E+10	1	-1E+10	1	-1E+10	1	-1E+10	1	-1E+10	1
4902551	69	C	07/09/2022	17:03	-132.146	49.042	0	692.90	0	3.9270	0	34.2350	0	27.190	0	685.873	0	13.1	4	4.1	4	-1E+10	1	-1E+10	1	-1E+10	1	-1E+10	1	-1E+10	1	-1E+10	1
4902551	69	C	07/09/2022	17:03	-132.146	49.042	0	698.10	0	3.9070	0	34.2410	0	27.197	0	691.012	0	13.0	4	4.1	4	-1E+10	1	-1E+10	1	-1E+10	1	-1E+10	1	-1E+10	1	-1E+10	1
4902551	69	C	07/09/2022	17:03	-132.146	49.042	0	702.70	0	3.9040	0	34.2430	0	27.199	0	695.557	0	12.8	4	4.0	4	-1E+10	1	-1E+10	1	-1E+10	1	-1E+10	1	-1E+10	1	-1E+10	1
4902551	69	C	07/09/2022	17:03	-132.146	49.042	0	707.90	0	3.9020	0	34.2440	0	27.200	0	700.696	0	12.7	4	4.0	4	-1E+10	1	-1E+10	1	-1E+10	1	-1E+10	1	-1E+10	1	-1E+10	1
4902551	69	C	07/09/2022	17:03	-132.146	49.042	0	713.00	0	3.9010	0	34.2460	0	27.202	0	705.735	0	12.5	4	4.0	4	-1E+10	1	-1E+10	1	-1E+10	1	-1E+10	1	-1E+10	1	-1E+10	1
4902551	69	C	07/09/2022	17:03	-132.146	49.042	0	717.60	0	3.8860	0	34.2520	0	27.208	0	710.280	0	12.4	4	3.9	4	-1E+10	1	-1E+10	1	-1E+10	1	-1E+10	1	-1E+10	1	-1E+10	1
4902551	69	C	07/09/2022	17:03	-132.146	49.042	0	722.70	0	3.8680	0	34.2540	0	27.212	0	715.320	0	12.4	4	3.9	4	-1E+10	1	-1E+10	1	-1E+10	1	-1E+10	1	-1E+10	1	-1E+10	1
4902551	69	C	07/09/2022	17:03	-132.146	49.042	0	727.70	0	3.8590	0	34.2540	0	27.212	0	720.260	0	12.3	4	3.9	4	-1E+10	1	-1E+10	1	-1E+10	1	-1E+10	1	-1E+10	1	-1E+10	1
4902551	69	C	07/09/2022	17:03	-132.146	49.042	0	732.70	0	3.8340	0	34.2600	0	27.220	0	725.200	0	12.3	4	3.9	4	-1E+10	1	-1E+10	1	-1E+10	1	-1E+10	1	-1E+10	1	-1E+10	1
4902551	69	C	07/09/2022	17:03	-132.146	49.042	0	738.10	0	3.8020	0	34.2570	0	27.221	0	730.535	0	12.1	4	3.8	4	-1E+10	1	-1E+10	1	-1E+10	1	-1E+10	1	-1E+10	1	-1E+10	1
4902551	69	C	07/09/2022	17:03	-132.146	49.042	0	742.90	0	3.8140	0	34.2630	0	27.224	0	735.278	0	11.9	4	3.8	4	-1E+10	1	-1E+10	1	-1E+10	1	-1E+10	1	-1E+10	1	-1E+10	1
4902551	69	C	07/09/2022	17:03	-132.146	49.042	0	747.60	0	3.7970	0	34.2670	0	27.229	0	739.921	0	11.8	4	3.7	4	-1E+10	1	-1E+10	1	-1E+10	1	-1E+10	1	-1E+10	1	-1E+10	1
4902551	69	C	07/09/2022	17:03	-132.146	49.042	0	753.10	0	3.7890	0	34.2710	0	27.233	0	745.355	0	11.7	4	3.7	4	-1E+10	1	-1E+10	1	-1E+10	1	-1E+10	1	-1E+10	1	-1E+10	1
4902551	69	C	07/09/2022	17:03	-132.146	49.042	0	757.90	0	3.7850	0	34.2730	0	27.235	0	750.097	0	11.6	4	3.7	4	-1E+10	1	-1E+10	1	-1E+10	1	-1E+10	1	-1E+10	1	-1E+10	1
4902551	69	C	07/09/2022	17:03	-132.146	49.042	0	762.80	0	3.7760	0	34.2750	0	27.238	0	754.938	0	11.6	4	3.6	4	-1E+10	1	-1E+10	1	-1E+10	1	-1E+10	1	-1E+10	1	-1E+10	1
4902551	69	C	07/09/2022	17:03	-132.146	49.042	0	767.70	0	3.7660	0	34.2780	0	27.241	0	759.778	0	11.5	4	3.6	4	-1E+10	1	-1E+10	1	-1E+10	1	-1E+10	1	-1E+10	1	-1E+10	1
4902551	69	C	07/09/2022	17:03	-132.146	49.042	0	772.70	0	3.7570	0	34.2800	0	27.244	0	764.718	0	11.5	4	3.6	4	-1E+10	1	-1E+10	1	-1E+10	1	-1E+10	1	-1E+10	1	-1E+10	1
4902551	69	C	07/09/2022	17:03	-132.146	49.042	0	777.70	0	3.7420	0	34.2830	0	27.248	0	769.657	0	11.4	4	3.6	4	-1E+10	1	-1E+10	1	-1E+10	1	-1E+10	1	-1E+10	1	-1E+10	1
4902551	69	C	07/09/2022	17:03	-132.146	49.042	0	782.60	0	3.7340	0	34.2850	0	27.250	0	774.497	0	11.4	4	3.6	4	-1E+10	1	-1E+10	1	-1E+10	1	-1E+10	1	-1E+10	1	-1E+10	1
4902551	69	C	07/09/2022	17:03	-132.146	49.042	0	788.00	0	3.7160	0	34.2870	0	27.253	0	779.831	0	11.5	4	3.6	4	-1E+10	1	-1E+10	1	-1E+10	1	-1E+10	1	-1E+10	1	-1E+10	1
4902551	69	C	07/09/2022	17:03	-132.146	49.042	0	793.30	0	3.7040	0	34.2870	0	27.255	0	785.066	0	11.5	4	3.6	4	-1E+10	1	-1E+10	1	-1E+10	1	-1E+10	1	-1E+10	1	-1E+10	1
4902551	69	C	07/09/2022	17:03	-132.146	49.042	0	798.30	0	3.6940	0	34.2890	0	27.257	0	790.005	0	11.5	4	3.6	4	-1E+10	1	-1E+10	1	-1E+10	1	-1E+10	1	-1E+10	1	-1E+10	1
4902551	69	C	07/09/2022	17:03	-132.146	49.042	0	802.90	0	3.6830	0	34.2910	0	27.260	0	794.548	0	11.5	4	3.6	4	-1E+10	1	-1E+10	1	-1E+10	1	-1E+10	1	-1E+10	1	-1E+10	1
4902551	69	C	07/09/2022	17:03	-132.146	49.042	0	807.80	0	3.6580	0	34.2930	0	27.264	0	799.388	0	11.6	4	3.6	4	-1E+10	1	-1E+10	1	-1E+10	1	-1E+10	1	-1E+10	1	-1E+10	1
4902551	69	C	07/09/2022	17:03	-132.146	49.042	0	812.70	0	3.6130	0	34.2910	0	27.267	0	804.227	0	11.5	4	3.6	4	-1E+10	1	-1E+10	1	-1E+10	1	-1E+10	1	-1E+10	1	-1E+10	1
4902551	69	C	07/09/2022	17:03	-132.146	49.042	0	817.60	0	3.6170	0	34.2960	0	27.270	0	809.067	0	11.3	4	3.5	4	-1E+10	1	-1E+10	1	-1E+10	1	-1E+10	1	-1E+10	1	-1E+10	1
4902551	69	C	07/09/2022	17:03	-132.146	49.042	0	822.60	0	3.6130	0	34.3040	0	27.277	0	814.005	0	11.2	4	3.5	4	-1E+10	1	-1E+10	1	-1E+10	1	-1E+10	1	-1E+10	1	-1E+10	1
4902551	69	C	07/09/2022	17:03	-132.146	49.042	0	827.60	0	3.6050	0	34.3060	0	27.280	0	818.943	0	11.2	4	3.5	4	-1E+10	1	-1E+10	1	-1E+10	1	-1E+10	1	-1E+10	1	-1E+10	1
4902551	69	C	07/09/2022	17:03	-132.146	49.042	0	832.70	0	3.5870	0	34.3100	0	27.285	0	823.979	0	11.2	4	3.5	4	-1E+10	1	-1E+10	1	-1E+10	1	-1E+10	1	-1E+10	1	-1E+10	1
4902551	69	C	07/09/2022	17:03	-132.146	49.042	0	837.90	0	3.5630	0	34.3120	0	27.289	0	829.115	0	11.3	4	3.5	4	-1E+10	1	-1E+10	1	-1E+10	1	-1E+10	1	-1E+10	1	-1E+10	1
4902551	69	C	07/09/2022	17:03	-132.146	49.042	0	843.20	0	3.5580	0	34.3130	0	27.290	0	834.348	0	11.3	4	3.5	4	-1E+10	1	-1E+10	1	-1E+10	1	-1E+10	1	-1E+10	1	-1E+10	1
4902551	69	C	07/09/2022	17:03	-132.146	49.042	0	848.20	0	3.5520	0	34.3140	0	27.291	0	839.286	0	11.3	4	3.5	4	-1E+10	1	-1E+10	1	-1E+10	1	-1E+10	1	-1E+10	1	-1E+10	1
4902551	69	C	07/09/2022	17:03	-132.146	49.042	0	852.90	0	3.5270	0	34.3170	0	27.296	0	843.927	0	11.4	4	3.6	4	-1E+10	1	-1E+10	1	-1E+10	1	-1E+10	1	-1E+10	1	-1E+10	1
4902551	69	C	07/09/2022	17:03	-132.146	49.042	0	857.70	0	3.4780	0	34.3170	0	27.301	0	848.667	0	11.4	4	3.6	4	-1E+10	1	-1E+10	1	-1E+10	1	-1E+10	1	-1E+10	1	-1E+10	1
4902551	69	C	07/09/2022	17:03	-132.146	49.042	0	862.50	0	3.4570	0	34.3180	0	27.304	0	853.406	0	11.4	4	3.6	4	-1E+10	1	-1E+10	1	-1E+10	1	-1E+10	1	-1E+10	1	-1E+10	1
4902551	69	C	07/09/2022	17:03	-132.146	49.042	0	867.90	0	3.4590	0	34.3200	0	27.305	0	858.738	0	11.3	4	3.5	4	-1E+10	1	-1E+10	1	-1E+10	1	-1E+10	1	-1E+10	1	-1E+10	1
4902551	69	C	07/09/2022	17:03	-132.146	49.042	0	873.30	0	3.4650	0	34.3240	0	27.308	0	864.070	0	11.3	4	3.5	4	-1E+10	1	-1E+10	1	-1E+10	1	-1E+10	1	-1E+10	1	-1E+10	1
4902551	69	C	07/09/2022	17:03	-132.146	49.042	0	878.00	0	3.4510	0	34.3260	0	27.311	0	868.711	0	11.4	4	3.5	4	-1E+10	1	-1E+10	1	-1E+10	1	-1E+10	1	-1E+10	1	-1E+10	1
4902551	69	C	07/09/2022	17:03	-132.146	49.042	0	882.80	0	3.4300	0	34.3250	0	27.312	0	873.450	0	11.4	4	3.6	4	-1E+10	1	-1E+10	1	-1E+10	1	-1E+10	1	-1E+10	1	-1E+10	1
4902551	69	C	07/09/2022	17:03	-132.146	49.042	0	887.80	0	3.4240	0	34.3260	0	27.313	0	878.387	0	11.4	4	3.5	4	-1E+10	1	-1E+10	1	-1E+10	1	-1E+10	1	-1E+10	1	-1E+10	1
4902551	69	C	07/09/2022	17:03	-132.146	49.042	0	892.90	0	3.4230	0	34.3290	0	27.316	0	883.422	0	11.4	4	3.5	4	-1E+10	1	-1E+10	1	-1E+10	1	-1E+10	1	-1E+10	1	-1E+10	1
4902551	69	C	07/09/2022	17:03	-132.146	49.042	0	897.80	0	3.4220	0	34.3300	0	27.317	0	888.259	0	11.4	4	3.5	4	-1E+10	1	-1E+10	1	-1E+10	1	-1E+10	1	-1E+10	1	-1E+10	1
4902551	69	C	07/09/2022	17:03	-132.146	49.042	0	902.70	0	3.4140	0	34.3320	0	27.319	0	893.097	0	11.4	4	3.5	4	-1E+10	1	-1E+10	1	-1E+10	1	-1E+10	1	-1E+10	1	-1E+10	1
4902551	69	C	07/09/2022	17:03	-132.146	49.042	0	908.10	0	3.4060	0	34.3340	0	27.322	0	898.428	0	11.4	4	3.6	4	-1E+10	1	-1E+10	1	-1E+10	1	-1E+10	1	-1E+10	1	-1E+10	1
4902551	69	C	07/09/2022	17:03	-132.146	49.042	0	913.20	0	3.3810	0	34.3360	0	27.326	0	903.462	0	11.4	4	3.6	4	-1E+10	1	-1E+10	1	-1E+10	1	-1E+10	1	-1E+10	1	-1E+10	1
4902551	69	C	07/09/2022	17:03	-132.146	49.042	0	917.90	0	3.3740	0	34.3360	0	27.326	0	908.102	0	11.5	4	3.6	4	-1E+10	1	-1E+10	1	-1E+10	1	-1E+10	1	-1E+10	1	-1E+10	1
4902551	69	C	07/09/2022	17:03	-132.146	49.042	0	922.60	0	3.3620	0	34.3390	0	27.330	0	912.742	0	11.5	4	3.6	4	-1E+10	1	-1E+10	1	-1E+10	1	-1E+10	1	-1E+10	1	-1E+10	1
4902551	69	C	07/09/2022	17:03	-132.146	49.042	0	927.90	0	3.3500	0	34.3400	0	27.332	0	917.974	0	11.5	4	3.6	4	-1E+10	1	-1E+10	1	-1E+10	1	-1E+10	1	-1E+10	1	-1E+10	1
4902551	69	C	07/09/2022	17:03	-132.146	49.042	0	933.20	0	3.3410	0	34.3400	0	27.333	0	923.205	0	11.5	4	3.6	4	-1E+10	1	-1E+10	1	-1E+10	1	-1E+10	1	-1E+10	1	-1E+10	1
4902551	69	C	07/09/2022	17:03	-132.146	49.042	0	937.90	0	3.3160	0	34.3410	0	27.336	0	927.844	0	11.6	4	3.6	4	-1E+10	1	-1E+10	1	-1E+10	1	-1E+10	1	-1E+10	1	-1E+10	1
4902551	69	C	07/09/2022	17:03	-132.146	49.042	0	942.70	0	3.3080	0	34.3410	0	27.337	0	932.582	0	11.6	4	3.6	4	-1E+10	1	-1E+10	1	-1E+10	1	-1E+10	1	-1E+10	1	-1E+10	1
4902551	69	C	07/09/2022	17:03	-132.146	49.042	0	948.00	0	3.2990	0	34.3450	0	27.341	0	937.813	0	11.6	4	3.6	4	-1E+10	1	-1E+10	1	-1E+10	1	-1E+10	1	-1E+10	1	-1E+10	1
4902551	69	C	07/09/2022	17:03	-132.146	49.042	0	953.30	0	3.2870	0	34.3510	0	27.347	0	943.045	0	11.6	4	3.6	4	-1E+10	1	-1E+10	1	-1E+10	1	-1E+10	1	-1E+10	1	-1E+10	1
4902551	69	C	07/09/2022	17:03	-132.146	49.042	0	958.00	0	3.2680	0	34.3530	0	27.350	0	947.683	0	11.7	4	3.6	4	-1E+10	1	-1E+10	1	-1E+10	1	-1E+10	1	-1E+10	1	-1E+10	1
4902551	69	C	07/09/2022	17:03	-132.146	49.042	0	962.70	0	3.2630	0	34.3530	0	27.351	0	952.322	0	11.7	4	3.6	4	-1E+10	1	-1E+10	1	-1E+10	1	-1E+10	1	-1E+10	1	-1E+10	1
4902551	69	C	07/09/2022	17:03	-132.146	49.042	0	967.90	0	3.2490	0	34.3540	0	27.353	0	957.454	0	11.7	4	3.6	4	-1E+10	1	-1E+10	1	-1E+10	1	-1E+10	1	-1E+10	1	-1E+10	1
4902551	69	C	07/09/2022	17:03	-132.146	49.042	0	973.10	0	3.2390	0	34.3550	0	27.354	0	962.586	0	11.7	4	3.6	4	-1E+10	1	-1E+10	1	-1E+10	1	-1E+10	1	-1E+10	1	-1E+10	1
4902551	69	C	07/09/2022	17:03	-132.146	49.042	0	977.70	0	3.2330	0	34.3580	0	27.357	0	967.126	0	11.8	4	3.7	4	-1E+10	1	-1E+10	1	-1E+10	1	-1E+10	1	-1E+10	1	-1E+10	1
4902551	69	C	07/09/2022	17:03	-132.146	49.042	0	982.80	0	3.2180	0	34.3610	0	27.361	0	972.159	0	11.8	4	3.7	4	-1E+10	1	-1E+10	1	-1E+10	1	-1E+10	1	-1E+10	1	-1E+10	1
4902551	69	C	07/09/2022	17:03	-132.146	49.042	0	987.90	0	3.2020	0	34.3650	0	27.366	0	977.192	0	11.9	4	3.7	4	-1E+10	1	-1E+10	1	-1E+10	1	-1E+10	1	-1E+10	1	-1E+10	1
4902551	69	C	07/09/2022	17:03	-132.146	49.042	0	993.00	0	3.1880	0	34.3670	0	27.369	0	982.224	0	11.9	4	3.7	4	-1E+10	1	-1E+10	1	-1E+10	1	-1E+10	1	-1E+10	1	-1E+10	1
4902551	69	C	07/09/2022	17:03	-132.146	49.042	0	998.10	0	3.1670	0	34.3710	0	27.374	0	987.257	0	12.0	4	3.7	4	-1E+10	1	-1E+10	1	-1E+10	1	-1E+10	1	-1E+10	1	-1E+10	1
4902551	69	C	07/09/2022	17:03	-132.146	49.042	0	1005.30	0	3.1430	0	34.3730	0	27.378	0	994.362	0	12.0	4	3.7	4	-1E+10	1	-1E+10	1	-1E+10	1	-1E+10	1	-1E+10	1	-1E+10	1
4902551	69	C	07/09/2022	17:03	-132.146	49.042	0	1015.40	0	3.1090	0	34.3770	0	27.384	0	1004.328	0	12.1	4	3.8	4	-1E+10	1	-1E+10	1	-1E+10	1	-1E+10	1	-1E+10	1	-1E+10	1
4902551	69	C	07/09/2022	17:03	-132.146	49.042	0	1025.60	0	3.0970	0	34.3800	0	27.388	0	1014.392	0	12.2	4	3.8	4	-1E+10	1	-1E+10	1	-1E+10	1	-1E+10	1	-1E+10	1	-1E+10	1
4902551	69	C	07/09/2022	17:03	-132.146	49.042	0	1035.60	0	3.0810	0	34.3820	0	27.391	0	1024.258	0	12.3	4	3.8	4	-1E+10	1	-1E+10	1	-1E+10	1	-1E+10	1	-1E+10	1	-1E+10	1
4902551	69	C	07/09/2022	17:03	-132.146	49.042	0	1045.60	0	3.0540	0	34.3860	0	27.397	0	1034.124	0	12.3	4	3.8	4	-1E+10	1	-1E+10	1	-1E+10	1	-1E+10	1	-1E+10	1	-1E+10	1
4902551	69	C	07/09/2022	17:03	-132.146	49.042	0	1055.80	0	3.0380	0	34.3880	0	27.400	0	1044.187	0	12.4	4	3.8	4	-1E+10	1	-1E+10	1	-1E+10	1	-1E+10	1	-1E+10	1	-1E+10	1
4902551	69	C	07/09/2022	17:03	-132.146	49.042	0	1065.50	0	3.0180	0	34.3910	0	27.404	0	1053.756	0	12.6	4	3.9	4	-1E+10	1	-1E+10	1	-1E+10	1	-1E+10	1	-1E+10	1	-1E+10	1
4902551	69	C	07/09/2022	17:03	-132.146	49.042	0	1075.40	0	2.9910	0	34.3960	0	27.410	0	1063.521	0	12.7	4	3.9	4	-1E+10	1	-1E+10	1	-1E+10	1	-1E+10	1	-1E+10	1	-1E+10	1
4902551	69	C	07/09/2022	17:03	-132.146	49.042	0	1085.70	0	2.9710	0	34.3990	0	27.415	0	1073.681	0	12.8	4	4.0	4	-1E+10	1	-1E+10	1	-1E+10	1	-1E+10	1	-1E+10	1	-1E+10	1
4902551	69	C	07/09/2022	17:03	-132.146	49.042	0	1095.00	0	2.9530	0	34.4020	0	27.419	0	1082.854	0	13.0	4	4.0	4	-1E+10	1	-1E+10	1	-1E+10	1	-1E+10	1	-1E+10	1	-1E+10	1
4902551	69	C	07/09/2022	17:03	-132.146	49.042	0	1105.10	0	2.9350	0	34.4060	0	27.424	0	1092.816	0	13.1	4	4.0	4	-1E+10	1	-1E+10	1	-1E+10	1	-1E+10	1	-1E+10	1	-1E+10	1
4902551	69	C	07/09/2022	17:03	-132.146	49.042	0	1115.30	0	2.9230	0	34.4100	0	27.428	0	1102.876	0	13.3	4	4.1	4	-1E+10	1	-1E+10	1	-1E+10	1	-1E+10	1	-1E+10	1	-1E+10	1
4902551	69	C	07/09/2022	17:03	-132.146	49.042	0	1125.40	0	2.9080	0	34.4130	0	27.432	0	1112.837	0	13.4	4	4.1	4	-1E+10	1	-1E+10	1	-1E+10	1	-1E+10	1	-1E+10	1	-1E+10	1
4902551	69	C	07/09/2022	17:03	-132.146	49.042	0	1135.30	0	2.8930	0	34.4150	0	27.435	0	1122.600	0	13.6	4	4.2	4	-1E+10	1	-1E+10	1	-1E+10	1	-1E+10	1	-1E+10	1	-1E+10	1
4902551	69	C	07/09/2022	17:03	-132.146	49.042	0	1145.10	0	2.8720	0	34.4180	0	27.439	0	1132.264	0	13.7	4	4.2	4	-1E+10	1	-1E+10	1	-1E+10	1	-1E+10	1	-1E+10	1	-1E+10	1
4902551	69	C	07/09/2022	17:03	-132.146	49.042	0	1155.20	0	2.8600	0	34.4200	0	27.442	0	1142.223	0	13.8	4	4.3	4	-1E+10	1	-1E+10	1	-1E+10	1	-1E+10	1	-1E+10	1	-1E+10	1
4902551	69	C	07/09/2022	17:03	-132.146	49.042	0	1165.50	0	2.8430	0	34.4230	0	27.446	0	1152.379	0	14.0	4	4.3	4	-1E+10	1	-1E+10	1	-1E+10	1	-1E+10	1	-1E+10	1	-1E+10	1
4902551	69	C	07/09/2022	17:03	-132.146	49.042	0	1175.60	0	2.8300	0	34.4250	0	27.449	0	1162.337	0	14.1	4	4.3	4	-1E+10	1	-1E+10	1	-1E+10	1	-1E+10	1	-1E+10	1	-1E+10	1
4902551	69	C	07/09/2022	17:03	-132.146	49.042	0	1185.20	0	2.8160	0	34.4270	0	27.451	0	1171.802	0	14.2	4	4.4	4	-1E+10	1	-1E+10	1	-1E+10	1	-1E+10	1	-1E+10	1	-1E+10	1
4902551	69	C	07/09/2022	17:03	-132.146	49.042	0	1195.10	0	2.8030	0	34.4300	0	27.455	0	1181.563	0	14.4	4	4.4	4	-1E+10	1	-1E+10	1	-1E+10	1	-1E+10	1	-1E+10	1	-1E+10	1
4902551	69	C	07/09/2022	17:03	-132.146	49.042	0	1205.10	0	2.7870	0	34.4330	0	27.459	0	1191.421	0	14.6	4	4.5	4	-1E+10	1	-1E+10	1	-1E+10	1	-1E+10	1	-1E+10	1	-1E+10	1
4902551	69	C	07/09/2022	17:03	-132.146	49.042	0	1215.00	0	2.7780	0	34.4340	0	27.460	0	1201.180	0	14.8	4	4.5	4	-1E+10	1	-1E+10	1	-1E+10	1	-1E+10	1	-1E+10	1	-1E+10	1
4902551	69	C	07/09/2022	17:03	-132.146	49.042	0	1225.30	0	2.7690	0	34.4360	0	27.463	0	1211.334	0	14.9	4	4.6	4	-1E+10	1	-1E+10	1	-1E+10	1	-1E+10	1	-1E+10	1	-1E+10	1
4902551	69	C	07/09/2022	17:03	-132.146	49.042	0	1235.40	0	2.7580	0	34.4390	0	27.466	0	1221.289	0	15.2	4	4.7	4	-1E+10	1	-1E+10	1	-1E+10	1	-1E+10	1	-1E+10	1	-1E+10	1
4902551	69	C	07/09/2022	17:03	-132.146	49.042	0	1245.30	0	2.7290	0	34.4440	0	27.473	0	1231.047	0	15.5	4	4.8	4	-1E+10	1	-1E+10	1	-1E+10	1	-1E+10	1	-1E+10	1	-1E+10	1
4902551	69	C	07/09/2022	17:03	-132.146	49.042	0	1255.30	0	2.7180	0	34.4450	0	27.475	0	1240.903	0	15.7	4	4.8	4	-1E+10	1	-1E+10	1	-1E+10	1	-1E+10	1	-1E+10	1	-1E+10	1
4902551	69	C	07/09/2022	17:03	-132.146	49.042	0	1265.20	0	2.6940	0	34.4480	0	27.479	0	1250.660	0	15.9	4	4.9	4	-1E+10	1	-1E+10	1	-1E+10	1	-1E+10	1	-1E+10	1	-1E+10	1
4902551	69	C	07/09/2022	17:03	-132.146	49.042	0	1275.10	0	2.6830	0	34.4490	0	27.481	0	1260.417	0	16.0	4	4.9	4	-1E+10	1	-1E+10	1	-1E+10	1	-1E+10	1	-1E+10	1	-1E+10	1
4902551	69	C	07/09/2022	17:03	-132.146	49.042	0	1285.30	0	2.6770	0	34.4500	0	27.482	0	1270.469	0	16.2	4	5.0	4	-1E+10	1	-1E+10	1	-1E+10	1	-1E+10	1	-1E+10	1	-1E+10	1
4902551	69	C	07/09/2022	17:03	-132.146	49.042	0	1295.40	0	2.6660	0	34.4530	0	27.486	0	1280.422	0	16.6	4	5.1	4	-1E+10	1	-1E+10	1	-1E+10	1	-1E+10	1	-1E+10	1	-1E+10	1
4902551	69	C	07/09/2022	17:03	-132.146	49.042	0	1305.30	0	2.6560	0	34.4560	0	27.489	0	1290.177	0	16.9	4	5.2	4	-1E+10	1	-1E+10	1	-1E+10	1	-1E+10	1	-1E+10	1	-1E+10	1
4902551	69	C	07/09/2022	17:03	-132.146	49.042	0	1315.40	0	2.6460	0	34.4580	0	27.492	0	1300.129	0	17.2	4	5.3	4	-1E+10	1	-1E+10	1	-1E+10	1	-1E+10	1	-1E+10	1	-1E+10	1
4902551	69	C	07/09/2022	17:03	-132.146	49.042	0	1325.30	0	2.6250	0	34.4610	0	27.496	0	1309.883	0	17.5	4	5.3	4	-1E+10	1	-1E+10	1	-1E+10	1	-1E+10	1	-1E+10	1	-1E+10	1
4902551	69	C	07/09/2022	17:03	-132.146	49.042	0	1335.40	0	2.6080	0	34.4630	0	27.499	0	1319.834	0	17.8	4	5.4	4	-1E+10	1	-1E+10	1	-1E+10	1	-1E+10	1	-1E+10	1	-1E+10	1
4902551	69	C	07/09/2022	17:03	-132.146	49.042	0	1345.30	0	2.5980	0	34.4650	0	27.502	0	1329.587	0	18.1	4	5.5	4	-1E+10	1	-1E+10	1	-1E+10	1	-1E+10	1	-1E+10	1	-1E+10	1
4902551	69	C	07/09/2022	17:03	-132.146	49.042	0	1355.40	0	2.5880	0	34.4680	0	27.505	0	1339.537	0	18.5	4	5.7	4	-1E+10	1	-1E+10	1	-1E+10	1	-1E+10	1	-1E+10	1	-1E+10	1
4902551	69	C	07/09/2022	17:03	-132.146	49.042	0	1365.50	0	2.5730	0	34.4700	0	27.508	0	1349.487	0	19.0	4	5.8	4	-1E+10	1	-1E+10	1	-1E+10	1	-1E+10	1	-1E+10	1	-1E+10	1
4902551	69	C	07/09/2022	17:03	-132.146	49.042	0	1375.30	0	2.5600	0	34.4730	0	27.511	0	1359.140	0	19.5	4	6.0	4	-1E+10	1	-1E+10	1	-1E+10	1	-1E+10	1	-1E+10	1	-1E+10	1
4902551	69	C	07/09/2022	17:03	-132.146	49.042	0	1385.30	0	2.5450	0	34.4760	0	27.515	0	1368.990	0	20.1	4	6.1	4	-1E+10	1	-1E+10	1	-1E+10	1	-1E+10	1	-1E+10	1	-1E+10	1
4902551	69	C	07/09/2022	17:03	-132.146	49.042	0	1395.60	0	2.5290	0	34.4790	0	27.519	0	1379.135	0	20.8	4	6.4	4	-1E+10	1	-1E+10	1	-1E+10	1	-1E+10	1	-1E+10	1	-1E+10	1
4902551	69	C	07/09/2022	17:03	-132.146	49.042	0	1405.30	0	2.5060	0	34.4830	0	27.524	0	1388.689	0	21.5	4	6.6	4	-1E+10	1	-1E+10	1	-1E+10	1	-1E+10	1	-1E+10	1	-1E+10	1
4902551	69	C	07/09/2022	17:03	-132.146	49.042	0	1415.30	0	2.4900	0	34.4870	0	27.529	0	1398.538	0	21.9	4	6.7	4	-1E+10	1	-1E+10	1	-1E+10	1	-1E+10	1	-1E+10	1	-1E+10	1
4902551	69	C	07/09/2022	17:03	-132.146	49.042	0	1425.60	0	2.4780	0	34.4880	0	27.530	0	1408.681	0	22.0	4	6.7	4	-1E+10	1	-1E+10	1	-1E+10	1	-1E+10	1	-1E+10	1	-1E+10	1
4902551	69	C	07/09/2022	17:03	-132.146	49.042	0	1435.60	0	2.4700	0	34.4890	0	27.532	0	1418.529	0	21.9	4	6.7	4	-1E+10	1	-1E+10	1	-1E+10	1	-1E+10	1	-1E+10	1	-1E+10	1
4902551	69	C	07/09/2022	17:03	-132.146	49.042	0	1445.60	0	2.4540	0	34.4900	0	27.534	0	1428.376	0	22.3	4	6.8	4	-1E+10	1	-1E+10	1	-1E+10	1	-1E+10	1	-1E+10	1	-1E+10	1
4902551	69	C	07/09/2022	17:03	-132.146	49.042	0	1455.30	0	2.4370	0	34.4930	0	27.538	0	1437.928	0	22.7	4	6.9	4	-1E+10	1	-1E+10	1	-1E+10	1	-1E+10	1	-1E+10	1	-1E+10	1
4902551	69	C	07/09/2022	17:03	-132.146	49.042	0	1465.30	0	2.4280	0	34.4940	0	27.540	0	1447.774	0	22.8	4	7.0	4	-1E+10	1	-1E+10	1	-1E+10	1	-1E+10	1	-1E+10	1	-1E+10	1
4902551	69	C	07/09/2022	17:03	-132.146	49.042	0	1475.30	0	2.4140	0	34.4950	0	27.542	0	1457.620	0	22.9	4	7.0	4	-1E+10	1	-1E+10	1	-1E+10	1	-1E+10	1	-1E+10	1	-1E+10	1
4902551	69	C	07/09/2022	17:03	-132.146	49.042	0	1485.30	0	2.4040	0	34.4970	0	27.544	0	1467.466	0	23.0	4	7.0	4	-1E+10	1	-1E+10	1	-1E+10	1	-1E+10	1	-1E+10	1	-1E+10	1
4902551	69	C	07/09/2022	17:03	-132.146	49.042	0	1495.40	0	2.3890	0	34.4980	0	27.546	0	1477.409	0	23.3	4	7.1	4	-1E+10	1	-1E+10	1	-1E+10	1	-1E+10	1	-1E+10	1	-1E+10	1
4902551	69	C	07/09/2022	17:03	-132.146	49.042	0	1505.40	0	2.3850	0	34.5000	0	27.548	0	1487.253	0	23.8	4	7.2	4	-1E+10	1	-1E+10	1	-1E+10	1	-1E+10	1	-1E+10	1	-1E+10	1
4902551	69	C	07/09/2022	17:03	-132.146	49.042	0	1515.30	0	2.3700	0	34.5010	0	27.550	0	1496.999	0	24.2	4	7.4	4	-1E+10	1	-1E+10	1	-1E+10	1	-1E+10	1	-1E+10	1	-1E+10	1
4902551	69	C	07/09/2022	17:03	-132.146	49.042	0	1525.20	0	2.3660	0	34.5020	0	27.552	0	1506.744	0	25.1	4	7.6	4	-1E+10	1	-1E+10	1	-1E+10	1	-1E+10	1	-1E+10	1	-1E+10	1
4902551	69	C	07/09/2022	17:03	-132.146	49.042	0	1535.10	0	2.3600	0	34.5060	0	27.555	0	1516.489	0	26.2	4	8.0	4	-1E+10	1	-1E+10	1	-1E+10	1	-1E+10	1	-1E+10	1	-1E+10	1
4902551	69	C	07/09/2022	17:03	-132.146	49.042	0	1545.20	0	2.3530	0	34.5080	0	27.557	0	1526.430	0	26.7	4	8.1	4	-1E+10	1	-1E+10	1	-1E+10	1	-1E+10	1	-1E+10	1	-1E+10	1
4902551	69	C	07/09/2022	17:03	-132.146	49.042	0	1555.30	0	2.3450	0	34.5100	0	27.560	0	1536.371	0	27.2	4	8.3	4	-1E+10	1	-1E+10	1	-1E+10	1	-1E+10	1	-1E+10	1	-1E+10	1
4902551	69	C	07/09/2022	17:03	-132.146	49.042	0	1565.30	0	2.3370	0	34.5120	0	27.562	0	1546.213	0	27.6	4	8.4	4	-1E+10	1	-1E+10	1	-1E+10	1	-1E+10	1	-1E+10	1	-1E+10	1
4902551	69	C	07/09/2022	17:03	-132.146	49.042	0	1575.40	0	2.3180	0	34.5140	0	27.565	0	1556.152	0	28.2	4	8.6	4	-1E+10	1	-1E+10	1	-1E+10	1	-1E+10	1	-1E+10	1	-1E+10	1
4902551	69	C	07/09/2022	17:03	-132.146	49.042	0	1585.60	0	2.3030	0	34.5170	0	27.569	0	1566.190	0	28.9	4	8.8	4	-1E+10	1	-1E+10	1	-1E+10	1	-1E+10	1	-1E+10	1	-1E+10	1
4902551	69	C	07/09/2022	17:03	-132.146	49.042	0	1595.40	0	2.2900	0	34.5190	0	27.572	0	1575.834	0	29.5	4	9.0	4	-1E+10	1	-1E+10	1	-1E+10	1	-1E+10	1	-1E+10	1	-1E+10	1
4902551	69	C	07/09/2022	17:03	-132.146	49.042	0	1605.20	0	2.2770	0	34.5210	0	27.574	0	1585.477	0	30.0	4	9.1	4	-1E+10	1	-1E+10	1	-1E+10	1	-1E+10	1	-1E+10	1	-1E+10	1
4902551	69	C	07/09/2022	17:03	-132.146	49.042	0	1615.10	0	2.2680	0	34.5220	0	27.576	0	1595.218	0	30.8	4	9.3	4	-1E+10	1	-1E+10	1	-1E+10	1	-1E+10	1	-1E+10	1	-1E+10	1
4902551	69	C	07/09/2022	17:03	-132.146	49.042	0	1625.00	0	2.2530	0	34.5250	0	27.580	0	1604.958	0	31.4	4	9.5	4	-1E+10	1	-1E+10	1	-1E+10	1	-1E+10	1	-1E+10	1	-1E+10	1
4902551	69	C	07/09/2022	17:03	-132.146	49.042	0	1635.00	0	2.2430	0	34.5270	0	27.582	0	1614.797	0	32.2	4	9.8	4	-1E+10	1	-1E+10	1	-1E+10	1	-1E+10	1	-1E+10	1	-1E+10	1
4902551	69	C	07/09/2022	17:03	-132.146	49.042	0	1645.40	0	2.2320	0	34.5290	0	27.585	0	1625.029	0	33.0	4	10.0	4	-1E+10	1	-1E+10	1	-1E+10	1	-1E+10	1	-1E+10	1	-1E+10	1
4902551	69	C	07/09/2022	17:03	-132.146	49.042	0	1655.40	0	2.2180	0	34.5320	0	27.588	0	1634.866	0	33.7	4	10.2	4	-1E+10	1	-1E+10	1	-1E+10	1	-1E+10	1	-1E+10	1	-1E+10	1
4902551	69	C	07/09/2022	17:03	-132.146	49.042	0	1665.00	0	2.2100	0	34.5330	0	27.590	0	1644.310	0	34.1	4	10.3	4	-1E+10	1	-1E+10	1	-1E+10	1	-1E+10	1	-1E+10	1	-1E+10	1
4902551	69	C	07/09/2022	17:03	-132.146	49.042	0	1675.30	0	2.2070	0	34.5340	0	27.591	0	1654.442	0	34.7	4	10.5	4	-1E+10	1	-1E+10	1	-1E+10	1	-1E+10	1	-1E+10	1	-1E+10	1
4902551	69	C	07/09/2022	17:03	-132.146	49.042	0	1685.40	0	2.1980	0	34.5360	0	27.593	0	1664.376	0	35.2	4	10.7	4	-1E+10	1	-1E+10	1	-1E+10	1	-1E+10	1	-1E+10	1	-1E+10	1
4902551	69	C	07/09/2022	17:03	-132.146	49.042	0	1695.50	0	2.1800	0	34.5380	0	27.596	0	1674.310	0	36.0	4	10.9	4	-1E+10	1	-1E+10	1	-1E+10	1	-1E+10	1	-1E+10	1	-1E+10	1
4902551	69	C	07/09/2022	17:03	-132.146	49.042	0	1705.30	0	2.1680	0	34.5410	0	27.600	0	1683.949	0	36.8	4	11.1	4	-1E+10	1	-1E+10	1	-1E+10	1	-1E+10	1	-1E+10	1	-1E+10	1
4902551	69	C	07/09/2022	17:03	-132.146	49.042	0	1715.60	0	2.1590	0	34.5430	0	27.602	0	1694.079	0	37.6	4	11.4	4	-1E+10	1	-1E+10	1	-1E+10	1	-1E+10	1	-1E+10	1	-1E+10	1
4902551	69	C	07/09/2022	17:03	-132.146	49.042	0	1725.40	0	2.1500	0	34.5450	0	27.604	0	1703.717	0	38.4	4	11.6	4	-1E+10	1	-1E+10	1	-1E+10	1	-1E+10	1	-1E+10	1	-1E+10	1
4902551	69	C	07/09/2022	17:03	-132.146	49.042	0	1735.10	0	2.1390	0	34.5470	0	27.607	0	1713.256	0	39.2	4	11.8	4	-1E+10	1	-1E+10	1	-1E+10	1	-1E+10	1	-1E+10	1	-1E+10	1
4902551	69	C	07/09/2022	17:03	-132.146	49.042	0	1745.10	0	2.1300	0	34.5480	0	27.609	0	1723.089	0	39.7	4	12.0	4	-1E+10	1	-1E+10	1	-1E+10	1	-1E+10	1	-1E+10	1	-1E+10	1
4902551	69	C	07/09/2022	17:03	-132.146	49.042	0	1755.20	0	2.1260	0	34.5490	0	27.610	0	1733.021	0	40.2	4	12.2	4	-1E+10	1	-1E+10	1	-1E+10	1	-1E+10	1	-1E+10	1	-1E+10	1
4902551	69	C	07/09/2022	17:03	-132.146	49.042	0	1765.40	0	2.1170	0	34.5510	0	27.612	0	1743.050	0	41.0	4	12.4	4	-1E+10	1	-1E+10	1	-1E+10	1	-1E+10	1	-1E+10	1	-1E+10	1
4902551	69	C	07/09/2022	17:03	-132.146	49.042	0	1775.20	0	2.1040	0	34.5530	0	27.615	0	1752.685	0	41.8	4	12.6	4	-1E+10	1	-1E+10	1	-1E+10	1	-1E+10	1	-1E+10	1	-1E+10	1
4902551	69	C	07/09/2022	17:03	-132.146	49.042	0	1785.30	0	2.0920	0	34.5550	0	27.617	0	1762.615	0	42.5	4	12.8	4	-1E+10	1	-1E+10	1	-1E+10	1	-1E+10	1	-1E+10	1	-1E+10	1
4902551	69	C	07/09/2022	17:03	-132.146	49.042	0	1795.70	0	2.0820	0	34.5570	0	27.620	0	1772.840	0	43.3	4	13.1	4	-1E+10	1	-1E+10	1	-1E+10	1	-1E+10	1	-1E+10	1	-1E+10	1
4902551	69	C	07/09/2022	17:03	-132.146	49.042	0	1805.30	0	2.0750	0	34.5580	0	27.621	0	1782.278	0	43.9	4	13.2	4	-1E+10	1	-1E+10	1	-1E+10	1	-1E+10	1	-1E+10	1	-1E+10	1
4902551	69	C	07/09/2022	17:03	-132.146	49.042	0	1815.20	0	2.0690	0	34.5600	0	27.623	0	1792.009	0	44.3	4	13.4	4	-1E+10	1	-1E+10	1	-1E+10	1	-1E+10	1	-1E+10	1	-1E+10	1
4902551	69	C	07/09/2022	17:03	-132.146	49.042	0	1825.30	0	2.0640	0	34.5610	0	27.625	0	1801.938	0	44.9	4	13.6	4	-1E+10	1	-1E+10	1	-1E+10	1	-1E+10	1	-1E+10	1	-1E+10	1
4902551	69	C	07/09/2022	17:03	-132.146	49.042	0	1835.10	0	2.0570	0	34.5620	0	27.626	0	1811.570	0	45.6	4	13.8	4	-1E+10	1	-1E+10	1	-1E+10	1	-1E+10	1	-1E+10	1	-1E+10	1
4902551	69	C	07/09/2022	17:03	-132.146	49.042	0	1845.10	0	2.0460	0	34.5640	0	27.629	0	1821.399	0	46.4	4	14.0	4	-1E+10	1	-1E+10	1	-1E+10	1	-1E+10	1	-1E+10	1	-1E+10	1
4902551	69	C	07/09/2022	17:03	-132.146	49.042	0	1855.10	0	2.0360	0	34.5660	0	27.631	0	1831.228	0	47.1	4	14.2	4	-1E+10	1	-1E+10	1	-1E+10	1	-1E+10	1	-1E+10	1	-1E+10	1
4902551	69	C	07/09/2022	17:03	-132.146	49.042	0	1865.20	0	2.0290	0	34.5670	0	27.632	0	1841.154	0	48.0	4	14.5	4	-1E+10	1	-1E+10	1	-1E+10	1	-1E+10	1	-1E+10	1	-1E+10	1
4902551	69	C	07/09/2022	17:03	-132.146	49.042	0	1875.50	0	2.0160	0	34.5700	0	27.636	0	1851.277	0	48.7	4	14.7	4	-1E+10	1	-1E+10	1	-1E+10	1	-1E+10	1	-1E+10	1	-1E+10	1
4902551	69	C	07/09/2022	17:03	-132.146	49.042	0	1885.50	0	2.0100	0	34.5710	0	27.637	0	1861.104	0	49.2	4	14.8	4	-1E+10	1	-1E+10	1	-1E+10	1	-1E+10	1	-1E+10	1	-1E+10	1
4902551	69	C	07/09/2022	17:03	-132.146	49.042	0	1895.10	0	2.0050	0	34.5720	0	27.638	0	1870.537	0	49.7	4	15.0	4	-1E+10	1	-1E+10	1	-1E+10	1	-1E+10	1	-1E+10	1	-1E+10	1
4902551	69	C	07/09/2022	17:03	-132.146	49.042	0	1905.30	0	2.0000	0	34.5730	0	27.640	0	1880.560	0	50.5	4	15.2	4	-1E+10	1	-1E+10	1	-1E+10	1	-1E+10	1	-1E+10	1	-1E+10	1
4902551	69	C	07/09/2022	17:03	-132.146	49.042	0	1915.40	0	1.9890	0	34.5750	0	27.642	0	1890.484	0	51.2	4	15.4	4	-1E+10	1	-1E+10	1	-1E+10	1	-1E+10	1	-1E+10	1	-1E+10	1
4902551	69	C	07/09/2022	17:03	-132.146	49.042	0	1925.50	0	1.9820	0	34.5760	0	27.644	0	1900.408	0	51.9	4	15.6	4	-1E+10	1	-1E+10	1	-1E+10	1	-1E+10	1	-1E+10	1	-1E+10	1
4902551	69	C	07/09/2022	17:03	-132.146	49.042	0	1935.80	0	1.9710	0	34.5780	0	27.646	0	1910.527	0	52.4	4	15.8	4	-1E+10	1	-1E+10	1	-1E+10	1	-1E+10	1	-1E+10	1	-1E+10	1
4902551	69	C	07/09/2022	17:03	-132.146	49.042	0	1945.30	0	1.9680	0	34.5790	0	27.647	0	1919.861	0	52.7	4	15.9	4	-1E+10	1	-1E+10	1	-1E+10	1	-1E+10	1	-1E+10	1	-1E+10	1
4902551	69	C	07/09/2022	17:03	-132.146	49.042	0	1955.10	0	1.9670	0	34.5790	0	27.647	0	1929.488	0	53.1	4	16.0	4	-1E+10	1	-1E+10	1	-1E+10	1	-1E+10	1	-1E+10	1	-1E+10	1
4902551	69	C	07/09/2022	17:03	-132.146	49.042	0	1965.40	0	1.9600	0	34.5800	0	27.649	0	1939.606	0	53.9	4	16.2	4	-1E+10	1	-1E+10	1	-1E+10	1	-1E+10	1	-1E+10	1	-1E+10	1
4902551	69	C	07/09/2022	17:03	-132.146	49.042	0	1975.30	0	1.9510	0	34.5820	0	27.651	0	1949.331	0	54.6	4	16.4	4	-1E+10	1	-1E+10	1	-1E+10	1	-1E+10	1	-1E+10	1	-1E+10	1
4902551	69	C	07/09/2022	17:03	-132.146	49.042	0	1985.50	0	1.9440	0	34.5830	0	27.652	0	1959.350	0	55.1	4	16.6	4	-1E+10	1	-1E+10	1	-1E+10	1	-1E+10	1	-1E+10	1	-1E+10	1
4902551	69	C	07/09/2022	17:03	-132.146	49.042	0	1995.70	0	1.9360	0	34.5850	0	27.655	0	1969.369	0	55.6	4	16.8	4	-1E+10	1	-1E+10	1	-1E+10	1	-1E+10	1	-1E+10	1	-1E+10	1
4902551	69	C	07/09/2022	17:03	-132.146	49.042	0	2005.60	0	1.9310	0	34.5860	0	27.656	0	1979.092	0	56.1	4	16.9	4	-1E+10	1	-1E+10	1	-1E+10	1	-1E+10	1	-1E+10	1	-1E+10	1
4902551	69	C	07/09/2022	17:03	-132.146	49.042	0	2015.70	0	1.9250	0	34.5870	0	27.657	0	1989.011	0	56.5	4	17.0	4	-1E+10	1	-1E+10	1	-1E+10	1	-1E+10	1	-1E+10	1	-1E+10	1
4902551	69	C	07/09/2022	17:03	-132.146	49.042	0	2026.20	0	1.9190	0	34.5880	0	27.659	0	1999.323	0	56.6	4	17.0	4	-1E+10	1	-1E+10	1	-1E+10	1	-1E+10	1	-1E+10	1	-1E+10	1
4902551	69	C	07/09/2022	17:03	-132.146	49.042	0	2031.10	0	1.9180	0	34.5890	0	27.659	0	2004.135	0	56.6	4	17.0	4	-1E+10	1	-1E+10	1	-1E+10	1	-1E+10	1	-1E+10	1	-1E+10	1
4902551	69	C	07/09/2022	17:03	-132.146	49.042	0																										
4902551	70	C	07/19/2022	22:07	-132.197	48.996	0	0.20	0	13.8760	0	32.2010	0	24.051	0	0.198	0	253.9	4	98.3	4	-1E+10	1	-1E+10	1	-1E+10	1	-1E+10	1	-1E+10	1	-1E+10	1
4902551	70	C	07/19/2022	22:07	-132.197	48.996	0	0.30	0	13.8759	0	32.2006	0	24.051	0	0.297	0	253.9	4	98.3	4	-1E+10	1	-1E+10	1	-1E+10	1	-1E+10	1	-1E+10	1	-1E+10	1
4902551	70	C	07/19/2022	22:07	-132.197	48.996	0	0.90	0	13.8750	0	32.1980	0	24.049	0	0.892	0	253.9	4	98.3	4	-1E+10	1	-1E+10	1	-1E+10	1	-1E+10	1	-1E+10	1	-1E+10	1
4902551	70	C	07/19/2022	22:07	-132.197	48.996	0	1.90	0	13.8750	0	32.1950	0	24.047	0	1.884	0	253.9	4	98.2	4	-1E+10	1	-1E+10	1	-1E+10	1	-1E+10	1	-1E+10	1	-1E+10	1
4902551	70	C	07/19/2022	22:07	-132.197	48.996	0	3.00	0	13.8690	0	32.1960	0	24.049	0	2.975	0	253.9	4	98.2	4	-1E+10	1	-1E+10	1	-1E+10	1	-1E+10	1	-1E+10	1	-1E+10	1
4902551	70	C	07/19/2022	22:07	-132.197	48.996	0	3.90	0	13.8590	0	32.2000	0	24.054	0	3.867	0	254.1	4	98.3	4	-1E+10	1	-1E+10	1	-1E+10	1	-1E+10	1	-1E+10	1	-1E+10	1
4902551	70	C	07/19/2022	22:07	-132.197	48.996	0	5.10	0	13.8470	0	32.2100	0	24.064	0	5.057	0	254.1	4	98.3	4	-1E+10	1	-1E+10	1	-1E+10	1	-1E+10	1	-1E+10	1	-1E+10	1
4902551	70	C	07/19/2022	22:07	-132.197	48.996	0	6.10	0	13.8400	0	32.2010	0	24.059	0	6.048	0	254.3	4	98.3	4	-1E+10	1	-1E+10	1	-1E+10	1	-1E+10	1	-1E+10	1	-1E+10	1
4902551	70	C	07/19/2022	22:07	-132.197	48.996	0	7.00	0	13.8320	0	32.2090	0	24.066	0	6.941	0	254.3	4	98.3	4	-1E+10	1	-1E+10	1	-1E+10	1	-1E+10	1	-1E+10	1	-1E+10	1
4902551	70	C	07/19/2022	22:07	-132.197	48.996	0	8.00	0	13.8240	0	32.2100	0	24.069	0	7.932	0	254.3	4	98.3	4	-1E+10	1	-1E+10	1	-1E+10	1	-1E+10	1	-1E+10	1	-1E+10	1
4902551	70	C	07/19/2022	22:07	-132.197	48.996	0	8.90	0	13.8230	0	32.2100	0	24.069	0	8.824	0	254.5	4	98.4	4	-1E+10	1	-1E+10	1	-1E+10	1	-1E+10	1	-1E+10	1	-1E+10	1
4902551	70	C	07/19/2022	22:07	-132.197	48.996	0	10.10	0	13.8130	0	32.2130	0	24.073	0	10.014	0	254.6	4	98.4	4	-1E+10	1	-1E+10	1	-1E+10	1	-1E+10	1	-1E+10	1	-1E+10	1
4902551	70	C	07/19/2022	22:07	-132.197	48.996	0	11.40	0	13.8050	0	32.2110	0	24.074	0	11.303	0	254.9	4	98.5	4	-1E+10	1	-1E+10	1	-1E+10	1	-1E+10	1	-1E+10	1	-1E+10	1
4902551	70	C	07/19/2022	22:07	-132.197	48.996	0	12.20	0	13.8040	0	32.2110	0	24.074	0	12.096	0	255.0	4	98.6	4	-1E+10	1	-1E+10	1	-1E+10	1	-1E+10	1	-1E+10	1	-1E+10	1
4902551	70	C	07/19/2022	22:07	-132.197	48.996	0	13.10	0	13.8020	0	32.2110	0	24.074	0	12.988	0	255.5	4	98.8	4	-1E+10	1	-1E+10	1	-1E+10	1	-1E+10	1	-1E+10	1	-1E+10	1
4902551	70	C	07/19/2022	22:07	-132.197	48.996	0	13.90	0	13.7990	0	32.2100	0	24.074	0	13.782	0	256.1	4	99.0	4	-1E+10	1	-1E+10	1	-1E+10	1	-1E+10	1	-1E+10	1	-1E+10	1
4902551	70	C	07/19/2022	22:07	-132.197	48.996	0	15.10	0	13.7890	0	32.2140	0	24.079	0	14.971	0	257.5	4	99.5	4	-1E+10	1	-1E+10	1	-1E+10	1	-1E+10	1	-1E+10	1	-1E+10	1
4902551	70	C	07/19/2022	22:07	-132.197	48.996	0	15.90	0	13.7410	0	32.2100	0	24.086	0	15.765	0	258.7	4	99.9	4	-1E+10	1	-1E+10	1	-1E+10	1	-1E+10	1	-1E+10	1	-1E+10	1
4902551	70	C	07/19/2022	22:07	-132.197	48.996	0	17.10	0	13.6610	0	32.2150	0	24.106	0	16.954	0	261.0	4	100.6	4	-1E+10	1	-1E+10	1	-1E+10	1	-1E+10	1	-1E+10	1	-1E+10	1
4902551	70	C	07/19/2022	22:07	-132.197	48.996	0	18.00	0	13.5270	0	32.2210	0	24.138	0	17.847	0	263.0	4	101.1	4	-1E+10	1	-1E+10	1	-1E+10	1	-1E+10	1	-1E+10	1	-1E+10	1
4902551	70	C	07/19/2022	22:07	-132.197	48.996	0	19.10	0	13.4090	0	32.2100	0	24.153	0	18.937	0	264.8	4	101.5	4	-1E+10	1	-1E+10	1	-1E+10	1	-1E+10	1	-1E+10	1	-1E+10	1
4902551	70	C	07/19/2022	22:07	-132.197	48.996	0	19.90	0	13.2440	0	32.2160	0	24.190	0	19.730	0	266.3	4	101.8	4	-1E+10	1	-1E+10	1	-1E+10	1	-1E+10	1	-1E+10	1	-1E+10	1
4902551	70	C	07/19/2022	22:07	-132.197	48.996	0	21.10	0	12.9080	0	32.2290	0	24.266	0	20.920	0	268.4	4	101.9	4	-1E+10	1	-1E+10	1	-1E+10	1	-1E+10	1	-1E+10	1	-1E+10	1
4902551	70	C	07/19/2022	22:07	-132.197	48.996	0	22.00	0	12.8010	0	32.2330	0	24.290	0	21.812	0	269.7	4	102.1	4	-1E+10	1	-1E+10	1	-1E+10	1	-1E+10	1	-1E+10	1	-1E+10	1
4902551	70	C	07/19/2022	22:07	-132.197	48.996	0	22.90	0	12.7220	0	32.2270	0	24.301	0	22.705	0	270.9	4	102.4	4	-1E+10	1	-1E+10	1	-1E+10	1	-1E+10	1	-1E+10	1	-1E+10	1
4902551	70	C	07/19/2022	22:07	-132.197	48.996	0	24.20	0	12.3300	0	32.2830	0	24.419	0	23.993	0	272.9	4	102.4	4	-1E+10	1	-1E+10	1	-1E+10	1	-1E+10	1	-1E+10	1	-1E+10	1
4902551	70	C	07/19/2022	22:07	-132.197	48.996	0	24.90	0	12.1190	0	32.2620	0	24.442	0	24.687	0	273.9	4	102.3	4	-1E+10	1	-1E+10	1	-1E+10	1	-1E+10	1	-1E+10	1	-1E+10	1
4902551	70	C	07/19/2022	22:07	-132.197	48.996	0	26.10	0	11.8460	0	32.2650	0	24.495	0	25.877	0	274.8	4	102.1	4	-1E+10	1	-1E+10	1	-1E+10	1	-1E+10	1	-1E+10	1	-1E+10	1
4902551	70	C	07/19/2022	22:07	-132.197	48.996	0	26.80	0	11.7320	0	32.2520	0	24.506	0	26.571	0	275.2	4	102.0	4	-1E+10	1	-1E+10	1	-1E+10	1	-1E+10	1	-1E+10	1	-1E+10	1
4902551	70	C	07/19/2022	22:07	-132.197	48.996	0	27.90	0	11.6390	0	32.2530	0	24.524	0	27.661	0	275.7	4	101.9	4	-1E+10	1	-1E+10	1	-1E+10	1	-1E+10	1	-1E+10	1	-1E+10	1
4902551	70	C	07/19/2022	22:07	-132.197	48.996	0	29.00	0	11.4040	0	32.2560	0	24.569	0	28.752	0	276.6	4	101.8	4	-1E+10	1	-1E+10	1	-1E+10	1	-1E+10	1	-1E+10	1	-1E+10	1
4902551	70	C	07/19/2022	22:07	-132.197	48.996	0	30.10	0	11.1800	0	32.2560	0	24.609	0	29.843	0	277.7	4	101.7	4	-1E+10	1	-1E+10	1	-1E+10	1	-1E+10	1	-1E+10	1	-1E+10	1
4902551	70	C	07/19/2022	22:07	-132.197	48.996	0	30.90	0	10.9430	0	32.2840	0	24.672	0	30.636	0	278.2	4	101.4	4	-1E+10	1	-1E+10	1	-1E+10	1	-1E+10	1	-1E+10	1	-1E+10	1
4902551	70	C	07/19/2022	22:07	-132.197	48.996	0	31.80	0	10.7000	0	32.2700	0	24.704	0	31.528	0	278.8	4	101.1	4	-1E+10	1	-1E+10	1	-1E+10	1	-1E+10	1	-1E+10	1	-1E+10	1
4902551	70	C	07/19/2022	22:07	-132.197	48.996	0	32.80	0	10.6070	0	32.2730	0	24.722	0	32.519	0	278.7	4	100.8	4	-1E+10	1	-1E+10	1	-1E+10	1	-1E+10	1	-1E+10	1	-1E+10	1
4902551	70	C	07/19/2022	22:07	-132.197	48.996	0	33.80	0	10.5210	0	32.2770	0	24.740	0	33.511	0	278.7	4	100.6	4	-1E+10	1	-1E+10	1	-1E+10	1	-1E+10	1	-1E+10	1	-1E+10	1
4902551	70	C	07/19/2022	22:07	-132.197	48.996	0	34.90	0	10.4430	0	32.2720	0	24.749	0	34.601	0	278.7	4	100.5	4	-1E+10	1	-1E+10	1	-1E+10	1	-1E+10	1	-1E+10	1	-1E+10	1
4902551	70	C	07/19/2022	22:07	-132.197	48.996	0	36.00	0	10.3590	0	32.2790	0	24.769	0	35.692	0	278.6	4	100.3	4	-1E+10	1	-1E+10	1	-1E+10	1	-1E+10	1	-1E+10	1	-1E+10	1
4902551	70	C	07/19/2022	22:07	-132.197	48.996	0	37.00	0	10.3060	0	32.2740	0	24.774	0	36.683	0	278.6	4	100.2	4	-1E+10	1	-1E+10	1	-1E+10	1	-1E+10	1	-1E+10	1	-1E+10	1
4902551	70	C	07/19/2022	22:07	-132.197	48.996	0	38.10	0	10.2700	0	32.2760	0	24.782	0	37.773	0	278.5	4	100.0	4	-1E+10	1	-1E+10	1	-1E+10	1	-1E+10	1	-1E+10	1	-1E+10	1
4902551	70	C	07/19/2022	22:07	-132.197	48.996	0	38.80	0	10.2020	0	32.2870	0	24.802	0	38.467	0	278.4	4	99.9	4	-1E+10	1	-1E+10	1	-1E+10	1	-1E+10	1	-1E+10	1	-1E+10	1
4902551	70	C	07/19/2022	22:07	-132.197	48.996	0	40.00	0	10.0710	0	32.2880	0	24.824	0	39.657	0	278.5	4	99.6	4	-1E+10	1	-1E+10	1	-1E+10	1	-1E+10	1	-1E+10	1	-1E+10	1
4902551	70	C	07/19/2022	22:07	-132.197	48.996	0	41.20	0	9.9970	0	32.2830	0	24.833	0	40.846	0	278.4	4	99.4	4	-1E+10	1	-1E+10	1	-1E+10	1	-1E+10	1	-1E+10	1	-1E+10	1
4902551	70	C	07/19/2022	22:07	-132.197	48.996	0	41.80	0	9.9700	0	32.2820	0	24.836	0	41.441	0	278.4	4	99.3	4	-1E+10	1	-1E+10	1	-1E+10	1	-1E+10	1	-1E+10	1	-1E+10	1
4902551	70	C	07/19/2022	22:07	-132.197	48.996	0	42.90	0	9.9170	0	32.2900	0	24.851	0	42.532	0	278.2	4	99.2	4	-1E+10	1	-1E+10	1	-1E+10	1	-1E+10	1	-1E+10	1	-1E+10	1
4902551	70	C	07/19/2022	22:07	-132.197	48.996	0	44.20	0	9.8750	0	32.2790	0	24.850	0	43.820	0	278.1	4	99.0	4	-1E+10	1	-1E+10	1	-1E+10	1	-1E+10	1	-1E+10	1	-1E+10	1
4902551	70	C	07/19/2022	22:07	-132.197	48.996	0	45.00	0	9.8520	0	32.2820	0	24.856	0	44.613	0	278.0	4	99.0	4	-1E+10	1	-1E+10	1	-1E+10	1	-1E+10	1	-1E+10	1	-1E+10	1
4902551	70	C	07/19/2022	22:07	-132.197	48.996	0	45.90	0	9.8100	0	32.2850	0	24.865	0	45.506	0	277.9	4	98.8	4	-1E+10	1	-1E+10	1	-1E+10	1	-1E+10	1	-1E+10	1	-1E+10	1
4902551	70	C	07/19/2022	22:07	-132.197	48.996	0	47.10	0	9.7320	0	32.2900	0	24.882	0	46.695	0	277.7	4	98.6	4	-1E+10	1	-1E+10	1	-1E+10	1	-1E+10	1	-1E+10	1	-1E+10	1
4902551	70	C	07/19/2022	22:07	-132.197	48.996	0	48.00	0	9.6390	0	32.2960	0	24.901	0	47.587	0	277.6	4	98.4	4	-1E+10	1	-1E+10	1	-1E+10	1	-1E+10	1	-1E+10	1	-1E+10	1
4902551	70	C	07/19/2022	22:07	-132.197	48.996	0	49.20	0	9.5250	0	32.2880	0	24.914	0	48.777	0	277.1	4	97.9	4	-1E+10	1	-1E+10	1	-1E+10	1	-1E+10	1	-1E+10	1	-1E+10	1
4902551	70	C	07/19/2022	22:07	-132.197	48.996	0	50.00	0	9.4850	0	32.2850	0	24.918	0	49.570	0	276.8	4	97.7	4	-1E+10	1	-1E+10	1	-1E+10	1	-1E+10	1	-1E+10	1	-1E+10	1
4902551	70	C	07/19/2022	22:07	-132.197	48.996	0	51.10	0	9.4030	0	32.2920	0	24.936	0	50.660	0	276.4	4	97.4	4	-1E+10	1	-1E+10	1	-1E+10	1	-1E+10	1	-1E+10	1	-1E+10	1
4902551	70	C	07/19/2022	22:07	-132.197	48.996	0	51.90	0	9.2000	0	32.3140	0	24.985	0	51.453	0	276.4	4	97.0	4	-1E+10	1	-1E+10	1	-1E+10	1	-1E+10	1	-1E+10	1	-1E+10	1
4902551	70	C	07/19/2022	22:07	-132.197	48.996	0	52.90	0	8.9850	0	32.3080	0	25.014	0	52.445	0	276.4	4	96.6	4	-1E+10	1	-1E+10	1	-1E+10	1	-1E+10	1	-1E+10	1	-1E+10	1
4902551	70	C	07/19/2022	22:07	-132.197	48.996	0	53.80	0	8.9120	0	32.2950	0	25.015	0	53.337	0	276.5	4	96.4	4	-1E+10	1	-1E+10	1	-1E+10	1	-1E+10	1	-1E+10	1	-1E+10	1
4902551	70	C	07/19/2022	22:07	-132.197	48.996	0	54.70	0	8.8380	0	32.3140	0	25.042	0	54.229	0	276.3	4	96.2	4	-1E+10	1	-1E+10	1	-1E+10	1	-1E+10	1	-1E+10	1	-1E+10	1
4902551	70	C	07/19/2022	22:07	-132.197	48.996	0	56.10	0	8.7800	0	32.3000	0	25.039	0	55.617	0	276.1	4	96.0	4	-1E+10	1	-1E+10	1	-1E+10	1	-1E+10	1	-1E+10	1	-1E+10	1
4902551	70	C	07/19/2022	22:07	-132.197	48.996	0	57.30	0	8.7710	0	32.3010	0	25.042	0	56.806	0	275.6	4	95.8	4	-1E+10	1	-1E+10	1	-1E+10	1	-1E+10	1	-1E+10	1	-1E+10	1
4902551	70	C	07/19/2022	22:07	-132.197	48.996	0	58.00	0	8.7640	0	32.3010	0	25.043	0	57.500	0	275.2	4	95.7	4	-1E+10	1	-1E+10	1	-1E+10	1	-1E+10	1	-1E+10	1	-1E+10	1
4902551	70	C	07/19/2022	22:07	-132.197	48.996	0	59.00	0	8.7510	0	32.3010	0	25.045	0	58.491	0	274.8	4	95.5	4	-1E+10	1	-1E+10	1	-1E+10	1	-1E+10	1	-1E+10	1	-1E+10	1
4902551	70	C	07/19/2022	22:07	-132.197	48.996	0	59.90	0	8.7300	0	32.3050	0	25.051	0	59.383	0	274.3	4	95.3	4	-1E+10	1	-1E+10	1	-1E+10	1	-1E+10	1	-1E+10	1	-1E+10	1
4902551	70	C	07/19/2022	22:07	-132.197	48.996	0	60.90	0	8.7020	0	32.3010	0	25.052	0	60.375	0	273.9	4	95.1	4	-1E+10	1	-1E+10	1	-1E+10	1	-1E+10	1	-1E+10	1	-1E+10	1
4902551	70	C	07/19/2022	22:07	-132.197	48.996	0	62.00	0	8.6380	0	32.3160	0	25.074	0	61.465	0	273.4	4	94.8	4	-1E+10	1	-1E+10	1	-1E+10	1	-1E+10	1	-1E+10	1	-1E+10	1
4902551	70	C	07/19/2022	22:07	-132.197	48.996	0	63.00	0	8.5060	0	32.3140	0	25.092	0	62.456	0	273.5	4	94.5	4	-1E+10	1	-1E+10	1	-1E+10	1	-1E+10	1	-1E+10	1	-1E+10	1
4902551	70	C	07/19/2022	22:07	-132.197	48.996	0	63.90	0	8.4800	0	32.3130	0	25.095	0	63.348	0	273.3	4	94.4	4	-1E+10	1	-1E+10	1	-1E+10	1	-1E+10	1	-1E+10	1	-1E+10	1
4902551	70	C	07/19/2022	22:07	-132.197	48.996	0	64.80	0	8.4040	0	32.3180	0	25.110	0	64.240	0	273.2	4	94.2	4	-1E+10	1	-1E+10	1	-1E+10	1	-1E+10	1	-1E+10	1	-1E+10	1
4902551	70	C	07/19/2022	22:07	-132.197	48.996	0	66.00	0	8.3490	0	32.3130	0	25.114	0	65.430	0	273.1	4	94.1	4	-1E+10	1	-1E+10	1	-1E+10	1	-1E+10	1	-1E+10	1	-1E+10	1
4902551	70	C	07/19/2022	22:07	-132.197	48.996	0	66.90	0	8.3360	0	32.3120	0	25.116	0	66.322	0	272.9	4	94.0	4	-1E+10	1	-1E+10	1	-1E+10	1	-1E+10	1	-1E+10	1	-1E+10	1
4902551	70	C	07/19/2022	22:07	-132.197	48.996	0	67.80	0	8.2970	0	32.3190	0	25.127	0	67.214	0	272.7	4	93.8	4	-1E+10	1	-1E+10	1	-1E+10	1	-1E+10	1	-1E+10	1	-1E+10	1
4902551	70	C	07/19/2022	22:07	-132.197	48.996	0	69.10	0	8.2580	0	32.3160	0	25.130	0	68.502	0	272.5	4	93.7	4	-1E+10	1	-1E+10	1	-1E+10	1	-1E+10	1	-1E+10	1	-1E+10	1
4902551	70	C	07/19/2022	22:07	-132.197	48.996	0	70.00	0	8.2440	0	32.3160	0	25.132	0	69.394	0	272.1	4	93.5	4	-1E+10	1	-1E+10	1	-1E+10	1	-1E+10	1	-1E+10	1	-1E+10	1
4902551	70	C	07/19/2022	22:07	-132.197	48.996	0	70.90	0	8.2290	0	32.3160	0	25.135	0	70.287	0	271.8	4	93.4	4	-1E+10	1	-1E+10	1	-1E+10	1	-1E+10	1	-1E+10	1	-1E+10	1
4902551	70	C	07/19/2022	22:07	-132.197	48.996	0	71.90	0	8.2010	0	32.3210	0	25.143	0	71.278	0	271.4	4	93.2	4	-1E+10	1	-1E+10	1	-1E+10	1	-1E+10	1	-1E+10	1	-1E+10	1
4902551	70	C	07/19/2022	22:07	-132.197	48.996	0	72.80	0	8.1310	0	32.3240	0	25.155	0	72.170	0	271.2	4	93.0	4	-1E+10	1	-1E+10	1	-1E+10	1	-1E+10	1	-1E+10	1	-1E+10	1
4902551	70	C	07/19/2022	22:07	-132.197	48.996	0	74.10	0	8.1000	0	32.3170	0	25.154	0	73.458	0	270.9	4	92.8	4	-1E+10	1	-1E+10	1	-1E+10	1	-1E+10	1	-1E+10	1	-1E+10	1
4902551	70	C	07/19/2022	22:07	-132.197	48.996	0	75.00	0	8.0800	0	32.3210	0	25.160	0	74.350	0	270.6	4	92.7	4	-1E+10	1	-1E+10	1	-1E+10	1	-1E+10	1	-1E+10	1	-1E+10	1
4902551	70	C	07/19/2022	22:07	-132.197	48.996	0	76.00	0	8.0720	0	32.3160	0	25.157	0	75.341	0	270.3	4	92.5	4	-1E+10	1	-1E+10	1	-1E+10	1	-1E+10	1	-1E+10	1	-1E+10	1
4902551	70	C	07/19/2022	22:07	-132.197	48.996	0	77.10	0	8.0390	0	32.3210	0	25.166	0	76.432	0	269.9	4	92.3	4	-1E+10	1	-1E+10	1	-1E+10	1	-1E+10	1	-1E+10	1	-1E+10	1
4902551	70	C	07/19/2022	22:07	-132.197	48.996	0	78.00	0	8.0050	0	32.3190	0	25.170	0	77.324	0	269.4	4	92.1	4	-1E+10	1	-1E+10	1	-1E+10	1	-1E+10	1	-1E+10	1	-1E+10	1
4902551	70	C	07/19/2022	22:07	-132.197	48.996	0	78.80	0	7.9800	0	32.3210	0	25.175	0	78.117	0	269.1	4	91.9	4	-1E+10	1	-1E+10	1	-1E+10	1	-1E+10	1	-1E+10	1	-1E+10	1
4902551	70	C	07/19/2022	22:07	-132.197	48.996	0	79.90	0	7.9610	0	32.3210	0	25.177	0	79.207	0	268.5	4	91.7	4	-1E+10	1	-1E+10	1	-1E+10	1	-1E+10	1	-1E+10	1	-1E+10	1
4902551	70	C	07/19/2022	22:07	-132.197	48.996	0	81.00	0	7.9230	0	32.3310	0	25.191	0	80.297	0	267.7	4	91.3	4	-1E+10	1	-1E+10	1	-1E+10	1	-1E+10	1	-1E+10	1	-1E+10	1
4902551	70	C	07/19/2022	22:07	-132.197	48.996	0	82.10	0	7.8100	0	32.3520	0	25.223	0	81.387	0	273.8	4	93.2	4	-1E+10	1	-1E+10	1	-1E+10	1	-1E+10	1	-1E+10	1	-1E+10	1
4902551	70	C	07/19/2022	22:07	-132.197	48.996	0	83.10	0	7.7250	0	32.3420	0	25.227	0	82.379	0	273.2	4	92.8	4	-1E+10	1	-1E+10	1	-1E+10	1	-1E+10	1	-1E+10	1	-1E+10	1
4902551	70	C	07/19/2022	22:07	-132.197	48.996	0	84.10	0	7.6860	0	32.3460	0	25.236	0	83.370	0	272.0	4	92.3	4	-1E+10	1	-1E+10	1	-1E+10	1	-1E+10	1	-1E+10	1	-1E+10	1
4902551	70	C	07/19/2022	22:07	-132.197	48.996	0	85.10	0	7.6560	0	32.3450	0	25.240	0	84.361	0	271.0	4	91.9	4	-1E+10	1	-1E+10	1	-1E+10	1	-1E+10	1	-1E+10	1	-1E+10	1
4902551	70	C	07/19/2022	22:07	-132.197	48.996	0	86.00	0	7.6280	0	32.3560	0	25.252	0	85.253	0	270.2	4	91.6	4	-1E+10	1	-1E+10	1	-1E+10	1	-1E+10	1	-1E+10	1	-1E+10	1
4902551	70	C	07/19/2022	22:07	-132.197	48.996	0	87.10	0	7.5580	0	32.3680	0	25.271	0	86.343	0	268.8	4	91.0	4	-1E+10	1	-1E+10	1	-1E+10	1	-1E+10	1	-1E+10	1	-1E+10	1
4902551	70	C	07/19/2022	22:07	-132.197	48.996	0	88.10	0	7.5100	0	32.3720	0	25.281	0	87.334	0	267.7	4	90.5	4	-1E+10	1	-1E+10	1	-1E+10	1	-1E+10	1	-1E+10	1	-1E+10	1
4902551	70	C	07/19/2022	22:07	-132.197	48.996	0	89.10	0	7.4660	0	32.3830	0	25.296	0	88.325	0	266.3	4	90.0	4	-1E+10	1	-1E+10	1	-1E+10	1	-1E+10	1	-1E+10	1	-1E+10	1
4902551	70	C	07/19/2022	22:07	-132.197	48.996	0	90.00	0	7.4170	0	32.3940	0	25.311	0	89.217	0	265.1	4	89.5	4	-1E+10	1	-1E+10	1	-1E+10	1	-1E+10	1	-1E+10	1	-1E+10	1
4902551	70	C	07/19/2022	22:07	-132.197	48.996	0	91.20	0	7.4040	0	32.3980	0	25.316	0	90.406	0	263.1	4	88.8	4	-1E+10	1	-1E+10	1	-1E+10	1	-1E+10	1	-1E+10	1	-1E+10	1
4902551	70	C	07/19/2022	22:07	-132.197	48.996	0	92.10	0	7.3860	0	32.4020	0	25.322	0	91.298	0	261.3	4	88.1	4	-1E+10	1	-1E+10	1	-1E+10	1	-1E+10	1	-1E+10	1	-1E+10	1
4902551	70	C	07/19/2022	22:07	-132.197	48.996	0	93.10	0	7.3100	0	32.4380	0	25.361	0	92.289	0	258.7	4	87.1	4	-1E+10	1	-1E+10	1	-1E+10	1	-1E+10	1	-1E+10	1	-1E+10	1
4902551	70	C	07/19/2022	22:07	-132.197	48.996	0	93.90	0	7.2700	0	32.4560	0	25.380	0	93.082	0	255.7	4	86.1	4	-1E+10	1	-1E+10	1	-1E+10	1	-1E+10	1	-1E+10	1	-1E+10	1
4902551	70	C	07/19/2022	22:07	-132.197	48.996	0	94.80	0	7.2240	0	32.4900	0	25.413	0	93.974	0	252.7	4	85.0	4	-1E+10	1	-1E+10	1	-1E+10	1	-1E+10	1	-1E+10	1	-1E+10	1
4902551	70	C	07/19/2022	22:07	-132.197	48.996	0	96.10	0	7.1600	0	32.5430	0	25.464	0	95.263	0	250.2	4	84.0	4	-1E+10	1	-1E+10	1	-1E+10	1	-1E+10	1	-1E+10	1	-1E+10	1
4902551	70	C	07/19/2022	22:07	-132.197	48.996	0	97.10	0	7.1400	0	32.5550	0	25.476	0	96.254	0	246.7	4	82.8	4	-1E+10	1	-1E+10	1	-1E+10	1	-1E+10	1	-1E+10	1	-1E+10	1
4902551	70	C	07/19/2022	22:07	-132.197	48.996	0	97.90	0	7.0940	0	32.5900	0	25.510	0	97.047	0	244.3	4	82.0	4	-1E+10	1	-1E+10	1	-1E+10	1	-1E+10	1	-1E+10	1	-1E+10	1
4902551	70	C	07/19/2022	22:07	-132.197	48.996	0	99.10	0	7.0540	0	32.6220	0	25.540	0	98.236	0	242.5	4	81.3	4	-1E+10	1	-1E+10	1	-1E+10	1	-1E+10	1	-1E+10	1	-1E+10	1
4902551	70	C	07/19/2022	22:07	-132.197	48.996	0	99.90	0	7.0490	0	32.6260	0	25.544	0	99.029	0	241.3	4	80.9	4	-1E+10	1	-1E+10	1	-1E+10	1	-1E+10	1	-1E+10	1	-1E+10	1
4902551	70	C	07/19/2022	22:07	-132.197	48.996	0	101.20	0	7.0290	0	32.6460	0	25.562	0	100.317	0	239.3	4	80.2	4	-1E+10	1	-1E+10	1	-1E+10	1	-1E+10	1	-1E+10	1	-1E+10	1
4902551	70	C	07/19/2022	22:07	-132.197	48.996	0	101.90	0	7.0180	0	32.6570	0	25.572	0	101.011	0	238.2	4	79.8	4	-1E+10	1	-1E+10	1	-1E+10	1	-1E+10	1	-1E+10	1	-1E+10	1
4902551	70	C	07/19/2022	22:07	-132.197	48.996	0	103.00	0	7.0060	0	32.6720	0	25.586	0	102.101	0	236.6	4	79.3	4	-1E+10	1	-1E+10	1	-1E+10	1	-1E+10	1	-1E+10	1	-1E+10	1
4902551	70	C	07/19/2022	22:07	-132.197	48.996	0	103.90	0	6.9920	0	32.6890	0	25.601	0	102.993	0	235.4	4	78.9	4	-1E+10	1	-1E+10	1	-1E+10	1	-1E+10	1	-1E+10	1	-1E+10	1
4902551	70	C	07/19/2022	22:07	-132.197	48.996	0	104.80	0	6.9740	0	32.7090	0	25.619	0	103.885	0	234.4	4	78.5	4	-1E+10	1	-1E+10	1	-1E+10	1	-1E+10	1	-1E+10	1	-1E+10	1
4902551	70	C	07/19/2022	22:07	-132.197	48.996	0	106.00	0	6.9510	0	32.7340	0	25.642	0	105.074	0	233.3	4	78.1	4	-1E+10	1	-1E+10	1	-1E+10	1	-1E+10	1	-1E+10	1	-1E+10	1
4902551	70	C	07/19/2022	22:07	-132.197	48.996	0	106.90	0	6.9400	0	32.7510	0	25.657	0	105.966	0	232.6	4	77.9	4	-1E+10	1	-1E+10	1	-1E+10	1	-1E+10	1	-1E+10	1	-1E+10	1
4902551	70	C	07/19/2022	22:07	-132.197	48.996	0	107.70	0	6.9330	0	32.7570	0	25.663	0	106.759	0	232.1	4	77.7	4	-1E+10	1	-1E+10	1	-1E+10	1	-1E+10	1	-1E+10	1	-1E+10	1
4902551	70	C	07/19/2022	22:07	-132.197	48.996	0	108.90	0	6.9260	0	32.7640	0	25.669	0	107.948	0	231.3	4	77.4	4	-1E+10	1	-1E+10	1	-1E+10	1	-1E+10	1	-1E+10	1	-1E+10	1
4902551	70	C	07/19/2022	22:07	-132.197	48.996	0	110.10	0	6.9140	0	32.7720	0	25.677	0	109.137	0	230.6	4	77.2	4	-1E+10	1	-1E+10	1	-1E+10	1	-1E+10	1	-1E+10	1	-1E+10	1
4902551	70	C	07/19/2022	22:07	-132.197	48.996	0	111.00	0	6.9120	0	32.7720	0	25.677	0	110.029	0	229.9	4	76.9	4	-1E+10	1	-1E+10	1	-1E+10	1	-1E+10	1	-1E+10	1	-1E+10	1
4902551	70	C	07/19/2022	22:07	-132.197	48.996	0	111.70	0	6.9120	0	32.7710	0	25.676	0	110.723	0	229.2	4	76.7	4	-1E+10	1	-1E+10	1	-1E+10	1	-1E+10	1	-1E+10	1	-1E+10	1
4902551	70	C	07/19/2022	22:07	-132.197	48.996	0	112.70	0	6.9110	0	32.7710	0	25.677	0	111.714	0	228.0	4	76.3	4	-1E+10	1	-1E+10	1	-1E+10	1	-1E+10	1	-1E+10	1	-1E+10	1
4902551	70	C	07/19/2022	22:07	-132.197	48.996	0	113.70	0	6.9030	0	32.7770	0	25.682	0	112.705	0	226.5	4	75.8	4	-1E+10	1	-1E+10	1	-1E+10	1	-1E+10	1	-1E+10	1	-1E+10	1
4902551	70	C	07/19/2022	22:07	-132.197	48.996	0	115.10	0	6.8740	0	32.8060	0	25.709	0	114.092	0	223.6	4	74.7	4	-1E+10	1	-1E+10	1	-1E+10	1	-1E+10	1	-1E+10	1	-1E+10	1
4902551	70	C	07/19/2022	22:07	-132.197	48.996	0	116.00	0	6.8680	0	32.8120	0	25.715	0	114.984	0	221.7	4	74.1	4	-1E+10	1	-1E+10	1	-1E+10	1	-1E+10	1	-1E+10	1	-1E+10	1
4902551	70	C	07/19/2022	22:07	-132.197	48.996	0	116.90	0	6.8580	0	32.8210	0	25.723	0	115.876	0	219.4	4	73.4	4	-1E+10	1	-1E+10	1	-1E+10	1	-1E+10	1	-1E+10	1	-1E+10	1
4902551	70	C	07/19/2022	22:07	-132.197	48.996	0	117.90	0	6.8090	0	32.8730	0	25.771	0	116.867	0	216.7	4	72.4	4	-1E+10	1	-1E+10	1	-1E+10	1	-1E+10	1	-1E+10	1	-1E+10	1
4902551	70	C	07/19/2022	22:07	-132.197	48.996	0	118.90	0	6.7780	0	32.9120	0	25.805	0	117.858	0	214.8	4	71.7	4	-1E+10	1	-1E+10	1	-1E+10	1	-1E+10	1	-1E+10	1	-1E+10	1
4902551	70	C	07/19/2022	22:07	-132.197	48.996	0	119.90	0	6.7550	0	32.9440	0	25.834	0	118.848	0	212.9	4	71.1	4	-1E+10	1	-1E+10	1	-1E+10	1	-1E+10	1	-1E+10	1	-1E+10	1
4902551	70	C	07/19/2022	22:07	-132.197	48.996	0	120.90	0	6.7480	0	32.9540	0	25.842	0	119.839	0	211.0	4	70.4	4	-1E+10	1	-1E+10	1	-1E+10	1	-1E+10	1	-1E+10	1	-1E+10	1
4902551	70	C	07/19/2022	22:07	-132.197	48.996	0	121.90	0	6.7360	0	32.9720	0	25.858	0	120.830	0	208.9	4	69.7	4	-1E+10	1	-1E+10	1	-1E+10	1	-1E+10	1	-1E+10	1	-1E+10	1
4902551	70	C	07/19/2022	22:07	-132.197	48.996	0	123.10	0	6.7090	0	33.0050	0	25.888	0	122.019	0	206.6	4	68.9	4	-1E+10	1	-1E+10	1	-1E+10	1	-1E+10	1	-1E+10	1	-1E+10	1
4902551	70	C	07/19/2022	22:07	-132.197	48.996	0	123.90	0	6.6960	0	33.0210	0	25.902	0	122.812	0	204.9	4	68.3	4	-1E+10	1	-1E+10	1	-1E+10	1	-1E+10	1	-1E+10	1	-1E+10	1
4902551	70	C	07/19/2022	22:07	-132.197	48.996	0	124.80	0	6.6570	0	33.0590	0	25.937	0	123.704	0	203.2	4	67.7	4	-1E+10	1	-1E+10	1	-1E+10	1	-1E+10	1	-1E+10	1	-1E+10	1
4902551	70	C	07/19/2022	22:07	-132.197	48.996	0	126.00	0	6.6350	0	33.0840	0	25.960	0	124.893	0	200.9	4	66.9	4	-1E+10	1	-1E+10	1	-1E+10	1	-1E+10	1	-1E+10	1	-1E+10	1
4902551	70	C	07/19/2022	22:07	-132.197	48.996	0	126.90	0	6.6230	0	33.0990	0	25.973	0	125.785	0	198.8	4	66.2	4	-1E+10	1	-1E+10	1	-1E+10	1	-1E+10	1	-1E+10	1	-1E+10	1
4902551	70	C	07/19/2022	22:07	-132.197	48.996	0	127.80	0	6.6190	0	33.1250	0	25.994	0	126.677	0	196.3	4	65.4	4	-1E+10	1	-1E+10	1	-1E+10	1	-1E+10	1	-1E+10	1	-1E+10	1
4902551	70	C	07/19/2022	22:07	-132.197	48.996	0	128.80	0	6.5980	0	33.1640	0	26.028	0	127.668	0	194.2	4	64.7	4	-1E+10	1	-1E+10	1	-1E+10	1	-1E+10	1	-1E+10	1	-1E+10	1
4902551	70	C	07/19/2022	22:07	-132.197	48.996	0	129.90	0	6.6180	0	33.2180	0	26.068	0	128.758	0	192.8	4	64.3	4	-1E+10	1	-1E+10	1	-1E+10	1	-1E+10	1	-1E+10	1	-1E+10	1
4902551	70	C	07/19/2022	22:07	-132.197	48.996	0	131.00	0	6.6390	0	33.2590	0	26.097	0	129.848	0	191.7	4	64.0	4	-1E+10	1	-1E+10	1	-1E+10	1	-1E+10	1	-1E+10	1	-1E+10	1
4902551	70	C	07/19/2022	22:07	-132.197	48.996	0	131.80	0	6.6390	0	33.2700	0	26.106	0	130.640	0	191.1	4	63.8	4	-1E+10	1	-1E+10	1	-1E+10	1	-1E+10	1	-1E+10	1	-1E+10	1
4902551	70	C	07/19/2022	22:07	-132.197	48.996	0	133.00	0	6.6400	0	33.2760	0	26.111	0	131.829	0	190.1	4	63.4	4	-1E+10	1	-1E+10	1	-1E+10	1	-1E+10	1	-1E+10	1	-1E+10	1
4902551	70	C	07/19/2022	22:07	-132.197	48.996	0	134.20	0	6.6400	0	33.2790	0	26.113	0	133.018	0	189.1	4	63.1	4	-1E+10	1	-1E+10	1	-1E+10	1	-1E+10	1	-1E+10	1	-1E+10	1
4902551	70	C	07/19/2022	22:07	-132.197	48.996	0	134.90	0	6.6410	0	33.2810	0	26.114	0	133.712	0	188.2	4	62.8	4	-1E+10	1	-1E+10	1	-1E+10	1	-1E+10	1	-1E+10	1	-1E+10	1
4902551	70	C	07/19/2022	22:07	-132.197	48.996	0	135.70	0	6.6430	0	33.2850	0	26.117	0	134.505	0	187.3	4	62.5	4	-1E+10	1	-1E+10	1	-1E+10	1	-1E+10	1	-1E+10	1	-1E+10	1
4902551	70	C	07/19/2022	22:07	-132.197	48.996	0	136.60	0	6.6420	0	33.2900	0	26.121	0	135.397	0	186.3	4	62.2	4	-1E+10	1	-1E+10	1	-1E+10	1	-1E+10	1	-1E+10	1	-1E+10	1
4902551	70	C	07/19/2022	22:07	-132.197	48.996	0	137.90	0	6.6430	0	33.2990	0	26.128	0	136.685	0	184.8	4	61.7	4	-1E+10	1	-1E+10	1	-1E+10	1	-1E+10	1	-1E+10	1	-1E+10	1
4902551	70	C	07/19/2022	22:07	-132.197	48.996	0	139.20	0	6.6380	0	33.3250	0	26.150	0	137.973	0	183.4	4	61.2	4	-1E+10	1	-1E+10	1	-1E+10	1	-1E+10	1	-1E+10	1	-1E+10	1
4902551	70	C	07/19/2022	22:07	-132.197	48.996	0	140.00	0	6.6170	0	33.3640	0	26.183	0	138.765	0	182.8	4	61.0	4	-1E+10	1	-1E+10	1	-1E+10	1	-1E+10	1	-1E+10	1	-1E+10	1
4902551	70	C	07/19/2022	22:07	-132.197	48.996	0	140.90	0	6.6160	0	33.3670	0	26.186	0	139.657	0	182.1	4	60.8	4	-1E+10	1	-1E+10	1	-1E+10	1	-1E+10	1	-1E+10	1	-1E+10	1
4902551	70	C	07/19/2022	22:07	-132.197	48.996	0	141.70	0	6.6180	0	33.3680	0	26.186	0	140.450	0	181.4	4	60.5	4	-1E+10	1	-1E+10	1	-1E+10	1	-1E+10	1	-1E+10	1	-1E+10	1
4902551	70	C	07/19/2022	22:07	-132.197	48.996	0	142.60	0	6.6250	0	33.3700	0	26.187	0	141.342	0	180.6	4	60.3	4	-1E+10	1	-1E+10	1	-1E+10	1	-1E+10	1	-1E+10	1	-1E+10	1
4902551	70	C	07/19/2022	22:07	-132.197	48.996	0	143.90	0	6.6140	0	33.4050	0	26.216	0	142.630	0	179.7	4	60.0	4	-1E+10	1	-1E+10	1	-1E+10	1	-1E+10	1	-1E+10	1	-1E+10	1
4902551	70	C	07/19/2022	22:07	-132.197	48.996	0	145.40	0	6.5860	0	33.4260	0	26.236	0	144.116	0	178.8	4	59.7	4	-1E+10	1	-1E+10	1	-1E+10	1	-1E+10	1	-1E+10	1	-1E+10	1
4902551	70	C	07/19/2022	22:07	-132.197	48.996	0	146.30	0	6.5800	0	33.4410	0	26.249	0	145.008	0	178.3	4	59.5	4	-1E+10	1	-1E+10	1	-1E+10	1	-1E+10	1	-1E+10	1	-1E+10	1
4902551	70	C	07/19/2022	22:07	-132.197	48.996	0	147.30	0	6.5810	0	33.4510	0	26.256	0	145.998	0	177.8	4	59.3	4	-1E+10	1	-1E+10	1	-1E+10	1	-1E+10	1	-1E+10	1	-1E+10	1
4902551	70	C	07/19/2022	22:07	-132.197	48.996	0	148.20	0	6.5770	0	33.4560	0	26.261	0	146.890	0	177.2	4	59.1	4	-1E+10	1	-1E+10	1	-1E+10	1	-1E+10	1	-1E+10	1	-1E+10	1
4902551	70	C	07/19/2022	22:07	-132.197	48.996	0	149.20	0	6.5740	0	33.4650	0	26.268	0	147.881	0	176.5	4	58.9	4	-1E+10	1	-1E+10	1	-1E+10	1	-1E+10	1	-1E+10	1	-1E+10	1
4902551	70	C	07/19/2022	22:07	-132.197	48.996	0	150.30	0	6.5670	0	33.4700	0	26.273	0	148.971	0	176.0	4	58.7	4	-1E+10	1	-1E+10	1	-1E+10	1	-1E+10	1	-1E+10	1	-1E+10	1
4902551	70	C	07/19/2022	22:07	-132.197	48.996	0	151.30	0	6.5640	0	33.4840	0	26.285	0	149.962	0	175.5	4	58.6	4	-1E+10	1	-1E+10	1	-1E+10	1	-1E+10	1	-1E+10	1	-1E+10	1
4902551	70	C	07/19/2022	22:07	-132.197	48.996	0	152.30	0	6.5600	0	33.4850	0	26.286	0	150.952	0	175.0	4	58.4	4	-1E+10	1	-1E+10	1	-1E+10	1	-1E+10	1	-1E+10	1	-1E+10	1
4902551	70	C	07/19/2022	22:07	-132.197	48.996	0	153.30	0	6.5600	0	33.4870	0	26.288	0	151.943	0	174.4	4	58.2	4	-1E+10	1	-1E+10	1	-1E+10	1	-1E+10	1	-1E+10	1	-1E+10	1
4902551	70	C	07/19/2022	22:07	-132.197	48.996	0	154.30	0	6.5630	0	33.4870	0	26.287	0	152.934	0	173.8	4	58.0	4	-1E+10	1	-1E+10	1	-1E+10	1	-1E+10	1	-1E+10	1	-1E+10	1
4902551	70	C	07/19/2022	22:07	-132.197	48.996	0	155.20	0	6.5670	0	33.4900	0	26.289	0	153.826	0	173.3	4	57.8	4	-1E+10	1	-1E+10	1	-1E+10	1	-1E+10	1	-1E+10	1	-1E+10	1
4902551	70	C	07/19/2022	22:07	-132.197	48.996	0	156.20	0	6.5680	0	33.5090	0	26.304	0	154.817	0	172.7	4	57.6	4	-1E+10	1	-1E+10	1	-1E+10	1	-1E+10	1	-1E+10	1	-1E+10	1
4902551	70	C	07/19/2022	22:07	-132.197	48.996	0	157.20	0	6.5540	0	33.5200	0	26.314	0	155.807	0	172.3	4	57.5	4	-1E+10	1	-1E+10	1	-1E+10	1	-1E+10	1	-1E+10	1	-1E+10	1
4902551	70	C	07/19/2022	22:07	-132.197	48.996	0	158.20	0	6.5440	0	33.5260	0	26.321	0	156.798	0	171.9	4	57.3	4	-1E+10	1	-1E+10	1	-1E+10	1	-1E+10	1	-1E+10	1	-1E+10	1
4902551	70	C	07/19/2022	22:07	-132.197	48.996	0	159.20	0	6.5350	0	33.5310	0	26.326	0	157.789	0	171.4	4	57.2	4	-1E+10	1	-1E+10	1	-1E+10	1	-1E+10	1	-1E+10	1	-1E+10	1
4902551	70	C	07/19/2022	22:07	-132.197	48.996	0	160.20	0	6.5340	0	33.5320	0	26.327	0	158.780	0	170.9	4	57.0	4	-1E+10	1	-1E+10	1	-1E+10	1	-1E+10	1	-1E+10	1	-1E+10	1
4902551	70	C	07/19/2022	22:07	-132.197	48.996	0	161.20	0	6.5320	0	33.5340	0	26.328	0	159.770	0	170.3	4	56.8	4	-1E+10	1	-1E+10	1	-1E+10	1	-1E+10	1	-1E+10	1	-1E+10	1
4902551	70	C	07/19/2022	22:07	-132.197	48.996	0	162.10	0	6.5330	0	33.5330	0	26.328	0	160.662	0	169.8	4	56.6	4	-1E+10	1	-1E+10	1	-1E+10	1	-1E+10	1	-1E+10	1	-1E+10	1
4902551	70	C	07/19/2022	22:07	-132.197	48.996	0	163.10	0	6.5340	0	33.5340	0	26.328	0	161.653	0	169.1	4	56.4	4	-1E+10	1	-1E+10	1	-1E+10	1	-1E+10	1	-1E+10	1	-1E+10	1
4902551	70	C	07/19/2022	22:07	-132.197	48.996	0	164.10	0	6.5350	0	33.5340	0	26.328	0	162.643	0	168.4	4	56.2	4	-1E+10	1	-1E+10	1	-1E+10	1	-1E+10	1	-1E+10	1	-1E+10	1
4902551	70	C	07/19/2022	22:07	-132.197	48.996	0	165.10	0	6.5290	0	33.5460	0	26.338	0	163.634	0	167.6	4	55.9	4	-1E+10	1	-1E+10	1	-1E+10	1	-1E+10	1	-1E+10	1	-1E+10	1
4902551	70	C	07/19/2022	22:07	-132.197	48.996	0	166.10	0	6.5110	0	33.5540	0	26.347	0	164.625	0	166.8	4	55.6	4	-1E+10	1	-1E+10	1	-1E+10	1	-1E+10	1	-1E+10	1	-1E+10	1
4902551	70	C	07/19/2022	22:07	-132.197	48.996	0	167.00	0	6.4810	0	33.5580	0	26.354	0	165.517	0	165.9	4	55.3	4	-1E+10	1	-1E+10	1	-1E+10	1	-1E+10	1	-1E+10	1	-1E+10	1
4902551	70	C	07/19/2022	22:07	-132.197	48.996	0	168.00	0	6.4480	0	33.5590	0	26.359	0	166.507	0	164.9	4	54.9	4	-1E+10	1	-1E+10	1	-1E+10	1	-1E+10	1	-1E+10	1	-1E+10	1
4902551	70	C	07/19/2022	22:07	-132.197	48.996	0	169.00	0	6.3990	0	33.5770	0	26.380	0	167.498	0	163.7	4	54.4	4	-1E+10	1	-1E+10	1	-1E+10	1	-1E+10	1	-1E+10	1	-1E+10	1
4902551	70	C	07/19/2022	22:07	-132.197	48.996	0	170.00	0	6.2850	0	33.6140	0	26.423	0	168.489	0	163.0	4	54.1	4	-1E+10	1	-1E+10	1	-1E+10	1	-1E+10	1	-1E+10	1	-1E+10	1
4902551	70	C	07/19/2022	22:07	-132.197	48.996	0	171.10	0	6.2810	0	33.6080	0	26.419	0	169.578	0	162.1	4	53.8	4	-1E+10	1	-1E+10	1	-1E+10	1	-1E+10	1	-1E+10	1	-1E+10	1
4902551	70	C	07/19/2022	22:07	-132.197	48.996	0	172.10	0	6.2830	0	33.6150	0	26.425	0	170.569	0	161.1	4	53.4	4	-1E+10	1	-1E+10	1	-1E+10	1	-1E+10	1	-1E+10	1	-1E+10	1
4902551	70	C	07/19/2022	22:07	-132.197	48.996	0	173.10	0	6.2710	0	33.6270	0	26.436	0	171.560	0	160.0	4	53.1	4	-1E+10	1	-1E+10	1	-1E+10	1	-1E+10	1	-1E+10	1	-1E+10	1
4902551	70	C	07/19/2022	22:07	-132.197	48.996	0	174.20	0	6.2530	0	33.6250	0	26.436	0	172.650	0	159.0	4	52.7	4	-1E+10	1	-1E+10	1	-1E+10	1	-1E+10	1	-1E+10	1	-1E+10	1
4902551	70	C	07/19/2022	22:07	-132.197	48.996	0	175.20	0	6.2630	0	33.6380	0	26.445	0	173.640	0	157.8	4	52.3	4	-1E+10	1	-1E+10	1	-1E+10	1	-1E+10	1	-1E+10	1	-1E+10	1
4902551	70	C	07/19/2022	22:07	-132.197	48.996	0	176.30	0	6.2660	0	33.6420	0	26.448	0	174.730	0	156.5	4	51.9	4	-1E+10	1	-1E+10	1	-1E+10	1	-1E+10	1	-1E+10	1	-1E+10	1
4902551	70	C	07/19/2022	22:07	-132.197	48.996	0	177.30	0	6.2610	0	33.6460	0	26.452	0	175.721	0	155.1	4	51.4	4	-1E+10	1	-1E+10	1	-1E+10	1	-1E+10	1	-1E+10	1	-1E+10	1
4902551	70	C	07/19/2022	22:07	-132.197	48.996	0	178.30	0	6.2470	0	33.6590	0	26.464	0	176.711	0	153.5	4	50.9	4	-1E+10	1	-1E+10	1	-1E+10	1	-1E+10	1	-1E+10	1	-1E+10	1
4902551	70	C	07/19/2022	22:07	-132.197	48.996	0	179.30	0	6.1660	0	33.7010	0	26.507	0	177.702	0	151.9	4	50.3	4	-1E+10	1	-1E+10	1	-1E+10	1	-1E+10	1	-1E+10	1	-1E+10	1
4902551	70	C	07/19/2022	22:07	-132.197	48.996	0	180.30	0	6.0930	0	33.6970	0	26.513	0	178.693	0	150.3	4	49.7	4	-1E+10	1	-1E+10	1	-1E+10	1	-1E+10	1	-1E+10	1	-1E+10	1
4902551	70	C	07/19/2022	22:07	-132.197	48.996	0	181.40	0	6.0650	0	33.6880	0	26.510	0	179.782	0	149.2	4	49.3	4	-1E+10	1	-1E+10	1	-1E+10	1	-1E+10	1	-1E+10	1	-1E+10	1
4902551	70	C	07/19/2022	22:07	-132.197	48.996	0	182.40	0	6.0380	0	33.6900	0	26.515	0	180.773	0	148.0	4	48.9	4	-1E+10	1	-1E+10	1	-1E+10	1	-1E+10	1	-1E+10	1	-1E+10	1
4902551	70	C	07/19/2022	22:07	-132.197	48.996	0	183.40	0	6.0000	0	33.7040	0	26.531	0	181.764	0	147.1	4	48.5	4	-1E+10	1	-1E+10	1	-1E+10	1	-1E+10	1	-1E+10	1	-1E+10	1
4902551	70	C	07/19/2022	22:07	-132.197	48.996	0	184.50	0	5.9810	0	33.7030	0	26.532	0	182.853	0	146.5	4	48.3	4	-1E+10	1	-1E+10	1	-1E+10	1	-1E+10	1	-1E+10	1	-1E+10	1
4902551	70	C	07/19/2022	22:07	-132.197	48.996	0	185.50	0	5.9670	0	33.7060	0	26.536	0	183.844	0	145.8	4	48.1	4	-1E+10	1	-1E+10	1	-1E+10	1	-1E+10	1	-1E+10	1	-1E+10	1
4902551	70	C	07/19/2022	22:07	-132.197	48.996	0	186.60	0	5.9450	0	33.7130	0	26.545	0	184.934	0	145.1	4	47.8	4	-1E+10	1	-1E+10	1	-1E+10	1	-1E+10	1	-1E+10	1	-1E+10	1
4902551	70	C	07/19/2022	22:07	-132.197	48.996	0	187.60	0	5.9350	0	33.7150	0	26.547	0	185.924	0	144.4	4	47.6	4	-1E+10	1	-1E+10	1	-1E+10	1	-1E+10	1	-1E+10	1	-1E+10	1
4902551	70	C	07/19/2022	22:07	-132.197	48.996	0	188.70	0	5.9230	0	33.7250	0	26.557	0	187.014	0	143.5	4	47.3	4	-1E+10	1	-1E+10	1	-1E+10	1	-1E+10	1	-1E+10	1	-1E+10	1
4902551	70	C	07/19/2022	22:07	-132.197	48.996	0	189.70	0	5.9040	0	33.7250	0	26.559	0	188.005	0	142.8	4	47.0	4	-1E+10	1	-1E+10	1	-1E+10	1	-1E+10	1	-1E+10	1	-1E+10	1
4902551	70	C	07/19/2022	22:07	-132.197	48.996	0	190.80	0	5.8780	0	33.7280	0	26.565	0	189.094	0	142.0	4	46.7	4	-1E+10	1	-1E+10	1	-1E+10	1	-1E+10	1	-1E+10	1	-1E+10	1
4902551	70	C	07/19/2022	22:07	-132.197	48.996	0	191.80	0	5.8780	0	33.7280	0	26.565	0	190.085	0	141.1	4	46.4	4	-1E+10	1	-1E+10	1	-1E+10	1	-1E+10	1	-1E+10	1	-1E+10	1
4902551	70	C	07/19/2022	22:07	-132.197	48.996	0	192.80	0	5.8770	0	33.7280	0	26.565	0	191.075	0	140.1	4	46.1	4	-1E+10	1	-1E+10	1	-1E+10	1	-1E+10	1	-1E+10	1	-1E+10	1
4902551	70	C	07/19/2022	22:07	-132.197	48.996	0	193.90	0	5.8770	0	33.7270	0	26.564	0	192.165	0	139.0	4	45.7	4	-1E+10	1	-1E+10	1	-1E+10	1	-1E+10	1	-1E+10	1	-1E+10	1
4902551	70	C	07/19/2022	22:07	-132.197	48.996	0	194.90	0	5.8690	0	33.7300	0	26.568	0	193.156	0	137.8	4	45.3	4	-1E+10	1	-1E+10	1	-1E+10	1	-1E+10	1	-1E+10	1	-1E+10	1
4902551	70	C	07/19/2022	22:07	-132.197	48.996	0	195.90	0	5.8060	0	33.7490	0	26.590	0	194.146	0	137.0	4	45.0	4	-1E+10	1	-1E+10	1	-1E+10	1	-1E+10	1	-1E+10	1	-1E+10	1
4902551	70	C	07/19/2022	22:07	-132.197	48.996	0	196.90	0	5.7910	0	33.7390	0	26.584	0	195.137	0	136.5	4	44.8	4	-1E+10	1	-1E+10	1	-1E+10	1	-1E+10	1	-1E+10	1	-1E+10	1
4902551	70	C	07/19/2022	22:07	-132.197	48.996	0	197.90	0	5.7770	0	33.7450	0	26.591	0	196.127	0	135.8	4	44.6	4	-1E+10	1	-1E+10	1	-1E+10	1	-1E+10	1	-1E+10	1	-1E+10	1
4902551	70	C	07/19/2022	22:07	-132.197	48.996	0	198.90	0	5.7720	0	33.7410	0	26.588	0	197.118	0	135.0	4	44.3	4	-1E+10	1	-1E+10	1	-1E+10	1	-1E+10	1	-1E+10	1	-1E+10	1
4902551	70	C	07/19/2022	22:07	-132.197	48.996	0	199.80	0	5.7680	0	33.7430	0	26.590	0	198.009	0	134.2	4	44.0	4	-1E+10	1	-1E+10	1	-1E+10	1	-1E+10	1	-1E+10	1	-1E+10	1
4902551	70	C	07/19/2022	22:07	-132.197	48.996	0	200.90	0	5.7640	0	33.7410	0	26.589	0	199.099	0	132.8	4	43.6	4	-1E+10	1	-1E+10	1	-1E+10	1	-1E+10	1	-1E+10	1	-1E+10	1
4902551	70	C	07/19/2022	22:07	-132.197	48.996	0	202.00	0	5.7410	0	33.7500	0	26.599	0	200.189	0	131.4	4	43.1	4	-1E+10	1	-1E+10	1	-1E+10	1	-1E+10	1	-1E+10	1	-1E+10	1
4902551	70	C	07/19/2022	22:07	-132.197	48.996	0	203.20	0	5.6940	0	33.7540	0	26.608	0	201.377	0	130.0	4	42.6	4	-1E+10	1	-1E+10	1	-1E+10	1	-1E+10	1	-1E+10	1	-1E+10	1
4902551	70	C	07/19/2022	22:07	-132.197	48.996	0	204.00	0	5.6790	0	33.7540	0	26.610	0	202.170	0	129.2	4	42.3	4	-1E+10	1	-1E+10	1	-1E+10	1	-1E+10	1	-1E+10	1	-1E+10	1
4902551	70	C	07/19/2022	22:07	-132.197	48.996	0	204.80	0	5.6580	0	33.7620	0	26.619	0	202.962	0	128.3	4	42.0	4	-1E+10	1	-1E+10	1	-1E+10	1	-1E+10	1	-1E+10	1	-1E+10	1
4902551	70	C	07/19/2022	22:07	-132.197	48.996	0	205.90	0	5.6060	0	33.7690	0	26.631	0	204.052	0	127.0	4	41.5	4	-1E+10	1	-1E+10	1	-1E+10	1	-1E+10	1	-1E+10	1	-1E+10	1
4902551	70	C	07/19/2022	22:07	-132.197	48.996	0	207.10	0	5.5680	0	33.7640	0	26.631	0	205.240	0	126.0	4	41.2	4	-1E+10	1	-1E+10	1	-1E+10	1	-1E+10	1	-1E+10	1	-1E+10	1
4902551	70	C	07/19/2022	22:07	-132.197	48.996	0	207.90	0	5.5590	0	33.7640	0	26.632	0	206.033	0	125.4	4	40.9	4	-1E+10	1	-1E+10	1	-1E+10	1	-1E+10	1	-1E+10	1	-1E+10	1
4902551	70	C	07/19/2022	22:07	-132.197	48.996	0	208.70	0	5.5470	0	33.7660	0	26.635	0	206.825	0	124.6	4	40.7	4	-1E+10	1	-1E+10	1	-1E+10	1	-1E+10	1	-1E+10	1	-1E+10	1
4902551	70	C	07/19/2022	22:07	-132.197	48.996	0	209.80	0	5.5370	0	33.7650	0	26.636	0	207.915	0	123.4	4	40.3	4	-1E+10	1	-1E+10	1	-1E+10	1	-1E+10	1	-1E+10	1	-1E+10	1
4902551	70	C	07/19/2022	22:07	-132.197	48.996	0	211.00	0	5.5020	0	33.7760	0	26.649	0	209.103	0	122.4	4	39.9	4	-1E+10	1	-1E+10	1	-1E+10	1	-1E+10	1	-1E+10	1	-1E+10	1
4902551	70	C	07/19/2022	22:07	-132.197	48.996	0	211.80	0	5.4900	0	33.7750	0	26.649	0	209.896	0	121.9	4	39.7	4	-1E+10	1	-1E+10	1	-1E+10	1	-1E+10	1	-1E+10	1	-1E+10	1
4902551	70	C	07/19/2022	22:07	-132.197	48.996	0	212.60	0	5.4720	0	33.7780	0	26.654	0	210.688	0	121.3	4	39.6	4	-1E+10	1	-1E+10	1	-1E+10	1	-1E+10	1	-1E+10	1	-1E+10	1
4902551	70	C	07/19/2022	22:07	-132.197	48.996	0	213.90	0	5.4330	0	33.7860	0	26.665	0	211.976	0	120.7	4	39.3	4	-1E+10	1	-1E+10	1	-1E+10	1	-1E+10	1	-1E+10	1	-1E+10	1
4902551	70	C	07/19/2022	22:07	-132.197	48.996	0	215.20	0	5.4090	0	33.7800	0	26.663	0	213.264	0	120.3	4	39.2	4	-1E+10	1	-1E+10	1	-1E+10	1	-1E+10	1	-1E+10	1	-1E+10	1
4902551	70	C	07/19/2022	22:07	-132.197	48.996	0	216.10	0	5.4020	0	33.7810	0	26.664	0	214.155	0	119.9	4	39.0	4	-1E+10	1	-1E+10	1	-1E+10	1	-1E+10	1	-1E+10	1	-1E+10	1
4902551	70	C	07/19/2022	22:07	-132.197	48.996	0	216.90	0	5.3950	0	33.7810	0	26.665	0	214.947	0	119.6	4	38.9	4	-1E+10	1	-1E+10	1	-1E+10	1	-1E+10	1	-1E+10	1	-1E+10	1
4902551	70	C	07/19/2022	22:07	-132.197	48.996	0	217.80	0	5.3900	0	33.7810	0	26.666	0	215.839	0	119.2	4	38.8	4	-1E+10	1	-1E+10	1	-1E+10	1	-1E+10	1	-1E+10	1	-1E+10	1
4902551	70	C	07/19/2022	22:07	-132.197	48.996	0	218.60	0	5.3850	0	33.7810	0	26.666	0	216.631	0	118.8	4	38.6	4	-1E+10	1	-1E+10	1	-1E+10	1	-1E+10	1	-1E+10	1	-1E+10	1
4902551	70	C	07/19/2022	22:07	-132.197	48.996	0	219.90	0	5.3800	0	33.7800	0	26.666	0	217.919	0	118.0	4	38.4	4	-1E+10	1	-1E+10	1	-1E+10	1	-1E+10	1	-1E+10	1	-1E+10	1
4902551	70	C	07/19/2022	22:07	-132.197	48.996	0	221.30	0	5.3720	0	33.7820	0	26.669	0	219.305	0	117.3	4	38.1	4	-1E+10	1	-1E+10	1	-1E+10	1	-1E+10	1	-1E+10	1	-1E+10	1
4902551	70	C	07/19/2022	22:07	-132.197	48.996	0	222.20	0	5.3610	0	33.7850	0	26.672	0	220.197	0	116.7	4	37.9	4	-1E+10	1	-1E+10	1	-1E+10	1	-1E+10	1	-1E+10	1	-1E+10	1
4902551	70	C	07/19/2022	22:07	-132.197	48.996	0	223.10	0	5.3520	0	33.7850	0	26.674	0	221.088	0	116.0	4	37.7	4	-1E+10	1	-1E+10	1	-1E+10	1	-1E+10	1	-1E+10	1	-1E+10	1
4902551	70	C	07/19/2022	22:07	-132.197	48.996	0	224.00	0	5.3420	0	33.7820	0	26.672	0	221.980	0	115.4	4	37.5	4	-1E+10	1	-1E+10	1	-1E+10	1	-1E+10	1	-1E+10	1	-1E+10	1
4902551	70	C	07/19/2022	22:07	-132.197	48.996	0	224.90	0	5.3290	0	33.7870	0	26.678	0	222.871	0	114.7	4	37.3	4	-1E+10	1	-1E+10	1	-1E+10	1	-1E+10	1	-1E+10	1	-1E+10	1
4902551	70	C	07/19/2022	22:07	-132.197	48.996	0	225.80	0	5.3010	0	33.7900	0	26.683	0	223.762	0	114.1	4	37.1	4	-1E+10	1	-1E+10	1	-1E+10	1	-1E+10	1	-1E+10	1	-1E+10	1
4902551	70	C	07/19/2022	22:07	-132.197	48.996	0	226.70	0	5.2750	0	33.7940	0	26.690	0	224.654	0	113.6	4	36.9	4	-1E+10	1	-1E+10	1	-1E+10	1	-1E+10	1	-1E+10	1	-1E+10	1
4902551	70	C	07/19/2022	22:07	-132.197	48.996	0	227.70	0	5.2590	0	33.7890	0	26.688	0	225.644	0	113.1	4	36.7	4	-1E+10	1	-1E+10	1	-1E+10	1	-1E+10	1	-1E+10	1	-1E+10	1
4902551	70	C	07/19/2022	22:07	-132.197	48.996	0	228.60	0	5.2580	0	33.7890	0	26.688	0	226.536	0	112.6	4	36.5	4	-1E+10	1	-1E+10	1	-1E+10	1	-1E+10	1	-1E+10	1	-1E+10	1
4902551	70	C	07/19/2022	22:07	-132.197	48.996	0	229.90	0	5.2540	0	33.7890	0	26.688	0	227.823	0	111.9	4	36.3	4	-1E+10	1	-1E+10	1	-1E+10	1	-1E+10	1	-1E+10	1	-1E+10	1
4902551	70	C	07/19/2022	22:07	-132.197	48.996	0	231.40	0	5.2530	0	33.7900	0	26.689	0	229.309	0	111.0	4	36.0	4	-1E+10	1	-1E+10	1	-1E+10	1	-1E+10	1	-1E+10	1	-1E+10	1
4902551	70	C	07/19/2022	22:07	-132.197	48.996	0	232.30	0	5.2500	0	33.7910	0	26.690	0	230.200	0	110.3	4	35.8	4	-1E+10	1	-1E+10	1	-1E+10	1	-1E+10	1	-1E+10	1	-1E+10	1
4902551	70	C	07/19/2022	22:07	-132.197	48.996	0	233.30	0	5.2440	0	33.7920	0	26.692	0	231.191	0	109.7	4	35.6	4	-1E+10	1	-1E+10	1	-1E+10	1	-1E+10	1	-1E+10	1	-1E+10	1
4902551	70	C	07/19/2022	22:07	-132.197	48.996	0	234.30	0	5.2320	0	33.7970	0	26.697	0	232.181	0	109.1	4	35.4	4	-1E+10	1	-1E+10	1	-1E+10	1	-1E+10	1	-1E+10	1	-1E+10	1
4902551	70	C	07/19/2022	22:07	-132.197	48.996	0	235.20	0	5.2180	0	33.7980	0	26.700	0	233.072	0	108.6	4	35.2	4	-1E+10	1	-1E+10	1	-1E+10	1	-1E+10	1	-1E+10	1	-1E+10	1
4902551	70	C	07/19/2022	22:07	-132.197	48.996	0	236.20	0	5.2050	0	33.7970	0	26.700	0	234.063	0	108.1	4	35.0	4	-1E+10	1	-1E+10	1	-1E+10	1	-1E+10	1	-1E+10	1	-1E+10	1
4902551	70	C	07/19/2022	22:07	-132.197	48.996	0	237.20	0	5.2030	0	33.7960	0	26.700	0	235.053	0	107.6	4	34.9	4	-1E+10	1	-1E+10	1	-1E+10	1	-1E+10	1	-1E+10	1	-1E+10	1
4902551	70	C	07/19/2022	22:07	-132.197	48.996	0	238.20	0	5.2030	0	33.7960	0	26.700	0	236.043	0	107.1	4	34.7	4	-1E+10	1	-1E+10	1	-1E+10	1	-1E+10	1	-1E+10	1	-1E+10	1
4902551	70	C	07/19/2022	22:07	-132.197	48.996	0	239.30	0	5.2000	0	33.8000	0	26.703	0	237.133	0	106.6	4	34.5	4	-1E+10	1	-1E+10	1	-1E+10	1	-1E+10	1	-1E+10	1	-1E+10	1
4902551	70	C	07/19/2022	22:07	-132.197	48.996	0	240.30	0	5.1910	0	33.8020	0	26.706	0	238.123	0	106.0	4	34.3	4	-1E+10	1	-1E+10	1	-1E+10	1	-1E+10	1	-1E+10	1	-1E+10	1
4902551	70	C	07/19/2022	22:07	-132.197	48.996	0	241.30	0	5.1810	0	33.8030	0	26.708	0	239.114	0	105.5	4	34.2	4	-1E+10	1	-1E+10	1	-1E+10	1	-1E+10	1	-1E+10	1	-1E+10	1
4902551	70	C	07/19/2022	22:07	-132.197	48.996	0	242.40	0	5.1630	0	33.8050	0	26.711	0	240.203	0	105.0	4	34.0	4	-1E+10	1	-1E+10	1	-1E+10	1	-1E+10	1	-1E+10	1	-1E+10	1
4902551	70	C	07/19/2022	22:07	-132.197	48.996	0	243.40	0	5.1630	0	33.8010	0	26.708	0	241.193	0	104.5	4	33.8	4	-1E+10	1	-1E+10	1	-1E+10	1	-1E+10	1	-1E+10	1	-1E+10	1
4902551	70	C	07/19/2022	22:07	-132.197	48.996	0	244.50	0	5.1600	0	33.8040	0	26.711	0	242.283	0	103.9	4	33.6	4	-1E+10	1	-1E+10	1	-1E+10	1	-1E+10	1	-1E+10	1	-1E+10	1
4902551	70	C	07/19/2022	22:07	-132.197	48.996	0	245.50	0	5.1510	0	33.8060	0	26.714	0	243.273	0	103.4	4	33.5	4	-1E+10	1	-1E+10	1	-1E+10	1	-1E+10	1	-1E+10	1	-1E+10	1
4902551	70	C	07/19/2022	22:07	-132.197	48.996	0	246.60	0	5.1330	0	33.8100	0	26.719	0	244.362	0	102.7	4	33.2	4	-1E+10	1	-1E+10	1	-1E+10	1	-1E+10	1	-1E+10	1	-1E+10	1
4902551	70	C	07/19/2022	22:07	-132.197	48.996	0	247.60	0	5.1160	0	33.8100	0	26.721	0	245.353	0	101.9	4	33.0	4	-1E+10	1	-1E+10	1	-1E+10	1	-1E+10	1	-1E+10	1	-1E+10	1
4902551	70	C	07/19/2022	22:07	-132.197	48.996	0	248.70	0	5.1070	0	33.8050	0	26.718	0	246.442	0	101.2	4	32.7	4	-1E+10	1	-1E+10	1	-1E+10	1	-1E+10	1	-1E+10	1	-1E+10	1
4902551	70	C	07/19/2022	22:07	-132.197	48.996	0	249.80	0	5.1030	0	33.8070	0	26.720	0	247.531	0	100.4	4	32.5	4	-1E+10	1	-1E+10	1	-1E+10	1	-1E+10	1	-1E+10	1	-1E+10	1
4902551	70	C	07/19/2022	22:07	-132.197	48.996	0	250.80	0	5.0920	0	33.8130	0	26.726	0	248.522	0	99.8	4	32.2	4	-1E+10	1	-1E+10	1	-1E+10	1	-1E+10	1	-1E+10	1	-1E+10	1
4902551	70	C	07/19/2022	22:07	-132.197	48.996	0	251.90	0	5.0900	0	33.8110	0	26.725	0	249.611	0	99.2	4	32.1	4	-1E+10	1	-1E+10	1	-1E+10	1	-1E+10	1	-1E+10	1	-1E+10	1
4902551	70	C	07/19/2022	22:07	-132.197	48.996	0	253.00	0	5.0780	0	33.8180	0	26.732	0	250.700	0	98.6	4	31.9	4	-1E+10	1	-1E+10	1	-1E+10	1	-1E+10	1	-1E+10	1	-1E+10	1
4902551	70	C	07/19/2022	22:07	-132.197	48.996	0	254.10	0	5.0620	0	33.8160	0	26.732	0	251.790	0	98.1	4	31.7	4	-1E+10	1	-1E+10	1	-1E+10	1	-1E+10	1	-1E+10	1	-1E+10	1
4902551	70	C	07/19/2022	22:07	-132.197	48.996	0	255.20	0	5.0510	0	33.8160	0	26.733	0	252.879	0	97.5	4	31.5	4	-1E+10	1	-1E+10	1	-1E+10	1	-1E+10	1	-1E+10	1	-1E+10	1
4902551	70	C	07/19/2022	22:07	-132.197	48.996	0	256.30	0	5.0480	0	33.8150	0	26.733	0	253.968	0	96.9	4	31.3	4	-1E+10	1	-1E+10	1	-1E+10	1	-1E+10	1	-1E+10	1	-1E+10	1
4902551	70	C	07/19/2022	22:07	-132.197	48.996	0	257.30	0	5.0450	0	33.8160	0	26.734	0	254.959	0	96.2	4	31.1	4	-1E+10	1	-1E+10	1	-1E+10	1	-1E+10	1	-1E+10	1	-1E+10	1
4902551	70	C	07/19/2022	22:07	-132.197	48.996	0	258.40	0	5.0420	0	33.8170	0	26.735	0	256.048	0	95.4	4	30.8	4	-1E+10	1	-1E+10	1	-1E+10	1	-1E+10	1	-1E+10	1	-1E+10	1
4902551	70	C	07/19/2022	22:07	-132.197	48.996	0	259.40	0	5.0320	0	33.8260	0	26.743	0	257.038	0	94.5	4	30.5	4	-1E+10	1	-1E+10	1	-1E+10	1	-1E+10	1	-1E+10	1	-1E+10	1
4902551	70	C	07/19/2022	22:07	-132.197	48.996	0	260.50	0	5.0210	0	33.8210	0	26.741	0	258.128	0	93.7	4	30.2	4	-1E+10	1	-1E+10	1	-1E+10	1	-1E+10	1	-1E+10	1	-1E+10	1
4902551	70	C	07/19/2022	22:07	-132.197	48.996	0	261.70	0	5.0310	0	33.8180	0	26.737	0	259.316	0	92.7	4	29.9	4	-1E+10	1	-1E+10	1	-1E+10	1	-1E+10	1	-1E+10	1	-1E+10	1
4902551	70	C	07/19/2022	22:07	-132.197	48.996	0	262.80	0	5.0650	0	33.8150	0	26.731	0	260.405	0	91.8	4	29.7	4	-1E+10	1	-1E+10	1	-1E+10	1	-1E+10	1	-1E+10	1	-1E+10	1
4902551	70	C	07/19/2022	22:07	-132.197	48.996	0	263.80	0	5.0980	0	33.8400	0	26.747	0	261.395	0	91.0	4	29.4	4	-1E+10	1	-1E+10	1	-1E+10	1	-1E+10	1	-1E+10	1	-1E+10	1
4902551	70	C	07/19/2022	22:07	-132.197	48.996	0	264.90	0	5.1070	0	33.8390	0	26.745	0	262.485	0	90.2	4	29.2	4	-1E+10	1	-1E+10	1	-1E+10	1	-1E+10	1	-1E+10	1	-1E+10	1
4902551	70	C	07/19/2022	22:07	-132.197	48.996	0	266.00	0	5.1460	0	33.8170	0	26.723	0	263.574	0	89.4	4	28.9	4	-1E+10	1	-1E+10	1	-1E+10	1	-1E+10	1	-1E+10	1	-1E+10	1
4902551	70	C	07/19/2022	22:07	-132.197	48.996	0	267.10	0	5.1640	0	33.8500	0	26.747	0	264.663	0	88.5	4	28.7	4	-1E+10	1	-1E+10	1	-1E+10	1	-1E+10	1	-1E+10	1	-1E+10	1
4902551	70	C	07/19/2022	22:07	-132.197	48.996	0	268.10	0	5.1790	0	33.8430	0	26.740	0	265.654	0	87.7	4	28.4	4	-1E+10	1	-1E+10	1	-1E+10	1	-1E+10	1	-1E+10	1	-1E+10	1
4902551	70	C	07/19/2022	22:07	-132.197	48.996	0	269.10	0	5.2050	0	33.8480	0	26.741	0	266.644	0	86.9	4	28.2	4	-1E+10	1	-1E+10	1	-1E+10	1	-1E+10	1	-1E+10	1	-1E+10	1
4902551	70	C	07/19/2022	22:07	-132.197	48.996	0	270.20	0	5.2390	0	33.8330	0	26.725	0	267.733	0	86.2	4	28.0	4	-1E+10	1	-1E+10	1	-1E+10	1	-1E+10	1	-1E+10	1	-1E+10	1
4902551	70	C	07/19/2022	22:07	-132.197	48.996	0	271.40	0	5.2750	0	33.8670	0	26.748	0	268.921	0	85.6	4	27.8	4	-1E+10	1	-1E+10	1	-1E+10	1	-1E+10	1	-1E+10	1	-1E+10	1
4902551	70	C	07/19/2022	22:07	-132.197	48.996	0	272.50	0	5.2910	0	33.8500	0	26.733	0	270.011	0	85.0	4	27.6	4	-1E+10	1	-1E+10	1	-1E+10	1	-1E+10	1	-1E+10	1	-1E+10	1
4902551	70	C	07/19/2022	22:07	-132.197	48.996	0	273.60	0	5.3010	0	33.8750	0	26.751	0	271.100	0	84.4	4	27.4	4	-1E+10	1	-1E+10	1	-1E+10	1	-1E+10	1	-1E+10	1	-1E+10	1
4902551	70	C	07/19/2022	22:07	-132.197	48.996	0	274.80	0	5.3210	0	33.8790	0	26.752	0	272.288	0	83.9	4	27.3	4	-1E+10	1	-1E+10	1	-1E+10	1	-1E+10	1	-1E+10	1	-1E+10	1
4902551	70	C	07/19/2022	22:07	-132.197	48.996	0	275.90	0	5.3260	0	33.8800	0	26.752	0	273.377	0	83.4	4	27.1	4	-1E+10	1	-1E+10	1	-1E+10	1	-1E+10	1	-1E+10	1	-1E+10	1
4902551	70	C	07/19/2022	22:07	-132.197	48.996	0	277.00	0	5.3350	0	33.8870	0	26.757	0	274.466	0	83.0	4	27.0	4	-1E+10	1	-1E+10	1	-1E+10	1	-1E+10	1	-1E+10	1	-1E+10	1
4902551	70	C	07/19/2022	22:07	-132.197	48.996	0	278.10	0	5.3410	0	33.8870	0	26.756	0	275.556	0	82.8	4	26.9	4	-1E+10	1	-1E+10	1	-1E+10	1	-1E+10	1	-1E+10	1	-1E+10	1
4902551	70	C	07/19/2022	22:07	-132.197	48.996	0	279.20	0	5.3430	0	33.8920	0	26.760	0	276.645	0	82.6	4	26.9	4	-1E+10	1	-1E+10	1	-1E+10	1	-1E+10	1	-1E+10	1	-1E+10	1
4902551	70	C	07/19/2022	22:07	-132.197	48.996	0	280.30	0	5.3410	0	33.8970	0	26.764	0	277.734	0	82.5	4	26.8	4	-1E+10	1	-1E+10	1	-1E+10	1	-1E+10	1	-1E+10	1	-1E+10	1
4902551	70	C	07/19/2022	22:07	-132.197	48.996	0	281.40	0	5.3320	0	33.8980	0	26.766	0	278.823	0	82.4	4	26.8	4	-1E+10	1	-1E+10	1	-1E+10	1	-1E+10	1	-1E+10	1	-1E+10	1
4902551	70	C	07/19/2022	22:07	-132.197	48.996	0	282.50	0	5.3240	0	33.8940	0	26.764	0	279.912	0	82.3	4	26.8	4	-1E+10	1	-1E+10	1	-1E+10	1	-1E+10	1	-1E+10	1	-1E+10	1
4902551	70	C	07/19/2022	22:07	-132.197	48.996	0	283.60	0	5.3150	0	33.8970	0	26.767	0	281.002	0	82.2	4	26.7	4	-1E+10	1	-1E+10	1	-1E+10	1	-1E+10	1	-1E+10	1	-1E+10	1
4902551	70	C	07/19/2022	22:07	-132.197	48.996	0	284.60	0	5.3100	0	33.8950	0	26.766	0	281.992	0	82.1	4	26.7	4	-1E+10	1	-1E+10	1	-1E+10	1	-1E+10	1	-1E+10	1	-1E+10	1
4902551	70	C	07/19/2022	22:07	-132.197	48.996	0	285.60	0	5.3060	0	33.8960	0	26.767	0	282.982	0	82.0	4	26.6	4	-1E+10	1	-1E+10	1	-1E+10	1	-1E+10	1	-1E+10	1	-1E+10	1
4902551	70	C	07/19/2022	22:07	-132.197	48.996	0	286.60	0	5.2910	0	33.8990	0	26.772	0	283.972	0	81.9	4	26.6	4	-1E+10	1	-1E+10	1	-1E+10	1	-1E+10	1	-1E+10	1	-1E+10	1
4902551	70	C	07/19/2022	22:07	-132.197	48.996	0	287.60	0	5.2850	0	33.8950	0	26.769	0	284.962	0	81.8	4	26.6	4	-1E+10	1	-1E+10	1	-1E+10	1	-1E+10	1	-1E+10	1	-1E+10	1
4902551	70	C	07/19/2022	22:07	-132.197	48.996	0	288.70	0	5.2810	0	33.8940	0	26.769	0	286.051	0	81.6	4	26.5	4	-1E+10	1	-1E+10	1	-1E+10	1	-1E+10	1	-1E+10	1	-1E+10	1
4902551	70	C	07/19/2022	22:07	-132.197	48.996	0	289.80	0	5.2790	0	33.8960	0	26.771	0	287.140	0	81.5	4	26.5	4	-1E+10	1	-1E+10	1	-1E+10	1	-1E+10	1	-1E+10	1	-1E+10	1
4902551	70	C	07/19/2022	22:07	-132.197	48.996	0	290.90	0	5.2720	0	33.8970	0	26.772	0	288.230	0	81.4	4	26.4	4	-1E+10	1	-1E+10	1	-1E+10	1	-1E+10	1	-1E+10	1	-1E+10	1
4902551	70	C	07/19/2022	22:07	-132.197	48.996	0	292.00	0	5.2570	0	33.8950	0	26.772	0	289.319	0	81.3	4	26.4	4	-1E+10	1	-1E+10	1	-1E+10	1	-1E+10	1	-1E+10	1	-1E+10	1
4902551	70	C	07/19/2022	22:07	-132.197	48.996	0	293.00	0	5.2510	0	33.8950	0	26.773	0	290.309	0	81.1	4	26.3	4	-1E+10	1	-1E+10	1	-1E+10	1	-1E+10	1	-1E+10	1	-1E+10	1
4902551	70	C	07/19/2022	22:07	-132.197	48.996	0	294.10	0	5.2420	0	33.8960	0	26.775	0	291.398	0	80.9	4	26.3	4	-1E+10	1	-1E+10	1	-1E+10	1	-1E+10	1	-1E+10	1	-1E+10	1
4902551	70	C	07/19/2022	22:07	-132.197	48.996	0	295.20	0	5.2320	0	33.8950	0	26.775	0	292.487	0	80.7	4	26.2	4	-1E+10	1	-1E+10	1	-1E+10	1	-1E+10	1	-1E+10	1	-1E+10	1
4902551	70	C	07/19/2022	22:07	-132.197	48.996	0	296.30	0	5.2270	0	33.8960	0	26.777	0	293.576	0	80.5	4	26.1	4	-1E+10	1	-1E+10	1	-1E+10	1	-1E+10	1	-1E+10	1	-1E+10	1
4902551	70	C	07/19/2022	22:07	-132.197	48.996	0	297.40	0	5.2200	0	33.8930	0	26.775	0	294.665	0	80.3	4	26.0	4	-1E+10	1	-1E+10	1	-1E+10	1	-1E+10	1	-1E+10	1	-1E+10	1
4902551	70	C	07/19/2022	22:07	-132.197	48.996	0	298.40	0	5.2170	0	33.8920	0	26.775	0	295.655	0	80.0	4	26.0	4	-1E+10	1	-1E+10	1	-1E+10	1	-1E+10	1	-1E+10	1	-1E+10	1
4902551	70	C	07/19/2022	22:07	-132.197	48.996	0	299.50	0	5.2080	0	33.8960	0	26.779	0	296.745	0	79.7	4	25.9	4	-1E+10	1	-1E+10	1	-1E+10	1	-1E+10	1	-1E+10	1	-1E+10	1
4902551	70	C	07/19/2022	22:07	-132.197	48.996	0	300.60	0	5.2050	0	33.8940	0	26.778	0	297.834	0	79.5	4	25.8	4	-1E+10	1	-1E+10	1	-1E+10	1	-1E+10	1	-1E+10	1	-1E+10	1
4902551	70	C	07/19/2022	22:07	-132.197	48.996	0	301.60	0	5.2020	0	33.8960	0	26.780	0	298.824	0	79.2	4	25.7	4	-1E+10	1	-1E+10	1	-1E+10	1	-1E+10	1	-1E+10	1	-1E+10	1
4902551	70	C	07/19/2022	22:07	-132.197	48.996	0	302.70	0	5.1880	0	33.8970	0	26.782	0	299.913	0	78.9	4	25.6	4	-1E+10	1	-1E+10	1	-1E+10	1	-1E+10	1	-1E+10	1	-1E+10	1
4902551	70	C	07/19/2022	22:07	-132.197	48.996	0	303.80	0	5.1860	0	33.8970	0	26.782	0	301.002	0	78.7	4	25.5	4	-1E+10	1	-1E+10	1	-1E+10	1	-1E+10	1	-1E+10	1	-1E+10	1
4902551	70	C	07/19/2022	22:07	-132.197	48.996	0	304.90	0	5.1790	0	33.9030	0	26.788	0	302.091	0	78.5	4	25.4	4	-1E+10	1	-1E+10	1	-1E+10	1	-1E+10	1	-1E+10	1	-1E+10	1
4902551	70	C	07/19/2022	22:07	-132.197	48.996	0	306.00	0	5.1730	0	33.8980	0	26.785	0	303.180	0	78.3	4	25.4	4	-1E+10	1	-1E+10	1	-1E+10	1	-1E+10	1	-1E+10	1	-1E+10	1
4902551	70	C	07/19/2022	22:07	-132.197	48.996	0	307.00	0	5.1720	0	33.9010	0	26.787	0	304.170	0	78.1	4	25.3	4	-1E+10	1	-1E+10	1	-1E+10	1	-1E+10	1	-1E+10	1	-1E+10	1
4902551	70	C	07/19/2022	22:07	-132.197	48.996	0	308.10	0	5.1520	0	33.9120	0	26.798	0	305.259	0	77.9	4	25.2	4	-1E+10	1	-1E+10	1	-1E+10	1	-1E+10	1	-1E+10	1	-1E+10	1
4902551	70	C	07/19/2022	22:07	-132.197	48.996	0	309.20	0	5.1400	0	33.9050	0	26.794	0	306.348	0	77.9	4	25.2	4	-1E+10	1	-1E+10	1	-1E+10	1	-1E+10	1	-1E+10	1	-1E+10	1
4902551	70	C	07/19/2022	22:07	-132.197	48.996	0	310.30	0	5.1320	0	33.9050	0	26.795	0	307.437	0	77.9	4	25.2	4	-1E+10	1	-1E+10	1	-1E+10	1	-1E+10	1	-1E+10	1	-1E+10	1
4902551	70	C	07/19/2022	22:07	-132.197	48.996	0	311.40	0	5.1280	0	33.9020	0	26.793	0	308.526	0	77.8	4	25.2	4	-1E+10	1	-1E+10	1	-1E+10	1	-1E+10	1	-1E+10	1	-1E+10	1
4902551	70	C	07/19/2022	22:07	-132.197	48.996	0	312.40	0	5.1240	0	33.9010	0	26.793	0	309.516	0	77.7	4	25.2	4	-1E+10	1	-1E+10	1	-1E+10	1	-1E+10	1	-1E+10	1	-1E+10	1
4902551	70	C	07/19/2022	22:07	-132.197	48.996	0	313.50	0	5.1110	0	33.9080	0	26.800	0	310.605	0	77.7	4	25.1	4	-1E+10	1	-1E+10	1	-1E+10	1	-1E+10	1	-1E+10	1	-1E+10	1
4902551	70	C	07/19/2022	22:07	-132.197	48.996	0	314.60	0	5.0740	0	33.8980	0	26.796	0	311.694	0	77.7	4	25.1	4	-1E+10	1	-1E+10	1	-1E+10	1	-1E+10	1	-1E+10	1	-1E+10	1
4902551	70	C	07/19/2022	22:07	-132.197	48.996	0	315.70	0	5.0580	0	33.9010	0	26.800	0	312.783	0	77.5	4	25.1	4	-1E+10	1	-1E+10	1	-1E+10	1	-1E+10	1	-1E+10	1	-1E+10	1
4902551	70	C	07/19/2022	22:07	-132.197	48.996	0	316.70	0	5.0410	0	33.8930	0	26.796	0	313.773	0	77.4	4	25.0	4	-1E+10	1	-1E+10	1	-1E+10	1	-1E+10	1	-1E+10	1	-1E+10	1
4902551	70	C	07/19/2022	22:07	-132.197	48.996	0	317.80	0	5.0180	0	33.9010	0	26.805	0	314.862	0	77.1	4	24.9	4	-1E+10	1	-1E+10	1	-1E+10	1	-1E+10	1	-1E+10	1	-1E+10	1
4902551	70	C	07/19/2022	22:07	-132.197	48.996	0	318.80	0	4.9350	0	33.9150	0	26.825	0	315.852	0	76.7	4	24.7	4	-1E+10	1	-1E+10	1	-1E+10	1	-1E+10	1	-1E+10	1	-1E+10	1
4902551	70	C	07/19/2022	22:07	-132.197	48.996	0	319.90	0	4.9280	0	33.8830	0	26.801	0	316.941	0	76.3	4	24.6	4	-1E+10	1	-1E+10	1	-1E+10	1	-1E+10	1	-1E+10	1	-1E+10	1
4902551	70	C	07/19/2022	22:07	-132.197	48.996	0	320.90	0	4.9230	0	33.8870	0	26.804	0	317.931	0	75.6	4	24.4	4	-1E+10	1	-1E+10	1	-1E+10	1	-1E+10	1	-1E+10	1	-1E+10	1
4902551	70	C	07/19/2022	22:07	-132.197	48.996	0	322.00	0	4.9200	0	33.8710	0	26.792	0	319.020	0	75.0	4	24.1	4	-1E+10	1	-1E+10	1	-1E+10	1	-1E+10	1	-1E+10	1	-1E+10	1
4902551	70	C	07/19/2022	22:07	-132.197	48.996	0	323.00	0	4.9600	0	33.8950	0	26.807	0	320.010	0	74.4	4	24.0	4	-1E+10	1	-1E+10	1	-1E+10	1	-1E+10	1	-1E+10	1	-1E+10	1
4902551	70	C	07/19/2022	22:07	-132.197	48.996	0	324.00	0	4.9870	0	33.8890	0	26.799	0	321.000	0	73.9	4	23.8	4	-1E+10	1	-1E+10	1	-1E+10	1	-1E+10	1	-1E+10	1	-1E+10	1
4902551	70	C	07/19/2022	22:07	-132.197	48.996	0	325.10	0	5.0030	0	33.8890	0	26.797	0	322.089	0	73.4	4	23.7	4	-1E+10	1	-1E+10	1	-1E+10	1	-1E+10	1	-1E+10	1	-1E+10	1
4902551	70	C	07/19/2022	22:07	-132.197	48.996	0	326.10	0	5.0040	0	33.9110	0	26.814	0	323.079	0	72.9	4	23.5	4	-1E+10	1	-1E+10	1	-1E+10	1	-1E+10	1	-1E+10	1	-1E+10	1
4902551	70	C	07/19/2022	22:07	-132.197	48.996	0	327.10	0	4.9930	0	33.9130	0	26.817	0	324.069	0	72.7	4	23.4	4	-1E+10	1	-1E+10	1	-1E+10	1	-1E+10	1	-1E+10	1	-1E+10	1
4902551	70	C	07/19/2022	22:07	-132.197	48.996	0	328.10	0	4.9780	0	33.9120	0	26.818	0	325.059	0	72.4	4	23.3	4	-1E+10	1	-1E+10	1	-1E+10	1	-1E+10	1	-1E+10	1	-1E+10	1
4902551	70	C	07/19/2022	22:07	-132.197	48.996	0	329.10	0	4.9730	0	33.9070	0	26.815	0	326.049	0	72.1	4	23.2	4	-1E+10	1	-1E+10	1	-1E+10	1	-1E+10	1	-1E+10	1	-1E+10	1
4902551	70	C	07/19/2022	22:07	-132.197	48.996	0	330.10	0	4.9690	0	33.9100	0	26.818	0	327.039	0	71.8	4	23.2	4	-1E+10	1	-1E+10	1	-1E+10	1	-1E+10	1	-1E+10	1	-1E+10	1
4902551	70	C	07/19/2022	22:07	-132.197	48.996	0	331.00	0	4.9620	0	33.9100	0	26.818	0	327.930	0	71.6	4	23.1	4	-1E+10	1	-1E+10	1	-1E+10	1	-1E+10	1	-1E+10	1	-1E+10	1
4902551	70	C	07/19/2022	22:07	-132.197	48.996	0	332.00	0	4.9480	0	33.9140	0	26.823	0	328.920	0	71.2	4	23.0	4	-1E+10	1	-1E+10	1	-1E+10	1	-1E+10	1	-1E+10	1	-1E+10	1
4902551	70	C	07/19/2022	22:07	-132.197	48.996	0	333.00	0	4.9430	0	33.9090	0	26.820	0	329.910	0	70.8	4	22.8	4	-1E+10	1	-1E+10	1	-1E+10	1	-1E+10	1	-1E+10	1	-1E+10	1
4902551	70	C	07/19/2022	22:07	-132.197	48.996	0	333.90	0	4.9400	0	33.9080	0	26.819	0	330.801	0	70.4	4	22.7	4	-1E+10	1	-1E+10	1	-1E+10	1	-1E+10	1	-1E+10	1	-1E+10	1
4902551	70	C	07/19/2022	22:07	-132.197	48.996	0	334.90	0	4.9360	0	33.9110	0	26.822	0	331.790	0	70.0	4	22.6	4	-1E+10	1	-1E+10	1	-1E+10	1	-1E+10	1	-1E+10	1	-1E+10	1
4902551	70	C	07/19/2022	22:07	-132.197	48.996	0	335.80	0	4.9250	0	33.9110	0	26.823	0	332.681	0	69.6	4	22.4	4	-1E+10	1	-1E+10	1	-1E+10	1	-1E+10	1	-1E+10	1	-1E+10	1
4902551	70	C	07/19/2022	22:07	-132.197	48.996	0	336.70	0	4.9110	0	33.9150	0	26.828	0	333.572	0	69.1	4	22.2	4	-1E+10	1	-1E+10	1	-1E+10	1	-1E+10	1	-1E+10	1	-1E+10	1
4902551	70	C	07/19/2022	22:07	-132.197	48.996	0	337.70	0	4.9040	0	33.9110	0	26.826	0	334.562	0	68.5	4	22.0	4	-1E+10	1	-1E+10	1	-1E+10	1	-1E+10	1	-1E+10	1	-1E+10	1
4902551	70	C	07/19/2022	22:07	-132.197	48.996	0	338.70	0	4.9040	0	33.9090	0	26.824	0	335.552	0	67.8	4	21.8	4	-1E+10	1	-1E+10	1	-1E+10	1	-1E+10	1	-1E+10	1	-1E+10	1
4902551	70	C	07/19/2022	22:07	-132.197	48.996	0	339.70	0	4.9030	0	33.9100	0	26.825	0	336.542	0	67.1	4	21.6	4	-1E+10	1	-1E+10	1	-1E+10	1	-1E+10	1	-1E+10	1	-1E+10	1
4902551	70	C	07/19/2022	22:07	-132.197	48.996	0	340.60	0	4.9040	0	33.9100	0	26.825	0	337.433	0	66.3	4	21.4	4	-1E+10	1	-1E+10	1	-1E+10	1	-1E+10	1	-1E+10	1	-1E+10	1
4902551	70	C	07/19/2022	22:07	-132.197	48.996	0	341.50	0	4.9060	0	33.9120	0	26.826	0	338.324	0	65.3	4	21.0	4	-1E+10	1	-1E+10	1	-1E+10	1	-1E+10	1	-1E+10	1	-1E+10	1
4902551	70	C	07/19/2022	22:07	-132.197	48.996	0	342.50	0	4.9130	0	33.9060	0	26.821	0	339.314	0	64.2	4	20.7	4	-1E+10	1	-1E+10	1	-1E+10	1	-1E+10	1	-1E+10	1	-1E+10	1
4902551	70	C	07/19/2022	22:07	-132.197	48.996	0	343.50	0	5.0220	0	33.9050	0	26.808	0	340.304	0	63.4	4	20.5	4	-1E+10	1	-1E+10	1	-1E+10	1	-1E+10	1	-1E+10	1	-1E+10	1
4902551	70	C	07/19/2022	22:07	-132.197	48.996	0	344.50	0	5.0350	0	33.9410	0	26.835	0	341.293	0	62.9	4	20.3	4	-1E+10	1	-1E+10	1	-1E+10	1	-1E+10	1	-1E+10	1	-1E+10	1
4902551	70	C	07/19/2022	22:07	-132.197	48.996	0	345.50	0	5.0250	0	33.9480	0	26.842	0	342.283	0	62.5	4	20.2	4	-1E+10	1	-1E+10	1	-1E+10	1	-1E+10	1	-1E+10	1	-1E+10	1
4902551	70	C	07/19/2022	22:07	-132.197	48.996	0	346.50	0	5.0150	0	33.9460	0	26.841	0	343.273	0	62.3	4	20.1	4	-1E+10	1	-1E+10	1	-1E+10	1	-1E+10	1	-1E+10	1	-1E+10	1
4902551	70	C	07/19/2022	22:07	-132.197	48.996	0	347.50	0	5.0090	0	33.9450	0	26.841	0	344.263	0	61.9	4	20.0	4	-1E+10	1	-1E+10	1	-1E+10	1	-1E+10	1	-1E+10	1	-1E+10	1
4902551	70	C	07/19/2022	22:07	-132.197	48.996	0	348.50	0	4.9970	0	33.9500	0	26.846	0	345.253	0	61.6	4	19.9	4	-1E+10	1	-1E+10	1	-1E+10	1	-1E+10	1	-1E+10	1	-1E+10	1
4902551	70	C	07/19/2022	22:07	-132.197	48.996	0	349.50	0	4.9930	0	33.9490	0	26.846	0	346.243	0	61.4	4	19.8	4	-1E+10	1	-1E+10	1	-1E+10	1	-1E+10	1	-1E+10	1	-1E+10	1
4902551	70	C	07/19/2022	22:07	-132.197	48.996	0	352.50	0	4.9870	0	33.9510	0	26.848	0	349.212	0	60.7	4	19.6	4	-1E+10	1	-1E+10	1	-1E+10	1	-1E+10	1	-1E+10	1	-1E+10	1
4902551	70	C	07/19/2022	22:07	-132.197	48.996	0	357.50	0	4.9720	0	33.9530	0	26.852	0	354.161	0	59.4	4	19.1	4	-1E+10	1	-1E+10	1	-1E+10	1	-1E+10	1	-1E+10	1	-1E+10	1
4902551	70	C	07/19/2022	22:07	-132.197	48.996	0	362.90	0	4.9400	0	33.9600	0	26.861	0	359.506	0	57.5	4	18.5	4	-1E+10	1	-1E+10	1	-1E+10	1	-1E+10	1	-1E+10	1	-1E+10	1
4902551	70	C	07/19/2022	22:07	-132.197	48.996	0	368.20	0	4.8610	0	33.9690	0	26.877	0	364.752	0	55.3	4	17.8	4	-1E+10	1	-1E+10	1	-1E+10	1	-1E+10	1	-1E+10	1	-1E+10	1
4902551	70	C	07/19/2022	22:07	-132.197	48.996	0	372.80	0	4.8660	0	33.9700	0	26.877	0	369.305	0	53.1	4	17.1	4	-1E+10	1	-1E+10	1	-1E+10	1	-1E+10	1	-1E+10	1	-1E+10	1
4902551	70	C	07/19/2022	22:07	-132.197	48.996	0	378.00	0	4.8640	0	33.9810	0	26.886	0	374.451	0	51.3	4	16.5	4	-1E+10	1	-1E+10	1	-1E+10	1	-1E+10	1	-1E+10	1	-1E+10	1
4902551	70	C	07/19/2022	22:07	-132.197	48.996	0	383.20	0	4.7860	0	33.9890	0	26.901	0	379.598	0	48.8	4	15.7	4	-1E+10	1	-1E+10	1	-1E+10	1	-1E+10	1	-1E+10	1	-1E+10	1
4902551	70	C	07/19/2022	22:07	-132.197	48.996	0	388.20	0	4.8290	0	33.9990	0	26.904	0	384.546	0	46.5	4	15.0	4	-1E+10	1	-1E+10	1	-1E+10	1	-1E+10	1	-1E+10	1	-1E+10	1
4902551	70	C	07/19/2022	22:07	-132.197	48.996	0	393.20	0	4.8190	0	34.0010	0	26.907	0	389.494	0	44.3	4	14.2	4	-1E+10	1	-1E+10	1	-1E+10	1	-1E+10	1	-1E+10	1	-1E+10	1
4902551	70	C	07/19/2022	22:07	-132.197	48.996	0	397.90	0	4.8570	0	34.0190	0	26.917	0	394.146	0	42.4	4	13.6	4	-1E+10	1	-1E+10	1	-1E+10	1	-1E+10	1	-1E+10	1	-1E+10	1
4902551	70	C	07/19/2022	22:07	-132.197	48.996	0	402.80	0	4.7880	0	34.0200	0	26.926	0	398.995	0	41.0	4	13.2	4	-1E+10	1	-1E+10	1	-1E+10	1	-1E+10	1	-1E+10	1	-1E+10	1
4902551	70	C	07/19/2022	22:07	-132.197	48.996	0	407.80	0	4.8030	0	34.0240	0	26.927	0	403.943	0	38.9	4	12.5	4	-1E+10	1	-1E+10	1	-1E+10	1	-1E+10	1	-1E+10	1	-1E+10	1
4902551	70	C	07/19/2022	22:07	-132.197	48.996	0	412.80	0	4.7840	0	34.0430	0	26.945	0	408.890	0	38.1	4	12.3	4	-1E+10	1	-1E+10	1	-1E+10	1	-1E+10	1	-1E+10	1	-1E+10	1
4902551	70	C	07/19/2022	22:07	-132.197	48.996	0	417.80	0	4.7680	0	34.0430	0	26.946	0	413.838	0	37.5	4	12.0	4	-1E+10	1	-1E+10	1	-1E+10	1	-1E+10	1	-1E+10	1	-1E+10	1
4902551	70	C	07/19/2022	22:07	-132.197	48.996	0	423.00	0	4.7450	0	34.0480	0	26.953	0	418.984	0	36.4	4	11.7	4	-1E+10	1	-1E+10	1	-1E+10	1	-1E+10	1	-1E+10	1	-1E+10	1
4902551	70	C	07/19/2022	22:07	-132.197	48.996	0	428.20	0	4.7320	0	34.0520	0	26.958	0	424.129	0	35.6	4	11.4	4	-1E+10	1	-1E+10	1	-1E+10	1	-1E+10	1	-1E+10	1	-1E+10	1
4902551	70	C	07/19/2022	22:07	-132.197	48.996	0	433.00	0	4.7120	0	34.0560	0	26.963	0	428.878	0	34.7	4	11.1	4	-1E+10	1	-1E+10	1	-1E+10	1	-1E+10	1	-1E+10	1	-1E+10	1
4902551	70	C	07/19/2022	22:07	-132.197	48.996	0	437.90	0	4.6710	0	34.0620	0	26.972	0	433.726	0	34.1	4	10.9	4	-1E+10	1	-1E+10	1	-1E+10	1	-1E+10	1	-1E+10	1	-1E+10	1
4902551	70	C	07/19/2022	22:07	-132.197	48.996	0	443.00	0	4.6620	0	34.0650	0	26.976	0	438.772	0	33.9	4	10.9	4	-1E+10	1	-1E+10	1	-1E+10	1	-1E+10	1	-1E+10	1	-1E+10	1
4902551	70	C	07/19/2022	22:07	-132.197	48.996	0	447.80	0	4.6450	0	34.0670	0	26.979	0	443.522	0	33.7	4	10.8	4	-1E+10	1	-1E+10	1	-1E+10	1	-1E+10	1	-1E+10	1	-1E+10	1
4902551	70	C	07/19/2022	22:07	-132.197	48.996	0	452.70	0	4.6290	0	34.0640	0	26.979	0	448.369	0	33.3	4	10.7	4	-1E+10	1	-1E+10	1	-1E+10	1	-1E+10	1	-1E+10	1	-1E+10	1
4902551	70	C	07/19/2022	22:07	-132.197	48.996	0	457.90	0	4.5940	0	34.0710	0	26.988	0	453.514	0	33.2	4	10.6	4	-1E+10	1	-1E+10	1	-1E+10	1	-1E+10	1	-1E+10	1	-1E+10	1
4902551	70	C	07/19/2022	22:07	-132.197	48.996	0	463.30	0	4.5110	0	34.0680	0	26.995	0	458.856	0	32.5	4	10.4	4	-1E+10	1	-1E+10	1	-1E+10	1	-1E+10	1	-1E+10	1	-1E+10	1
4902551	70	C	07/19/2022	22:07	-132.197	48.996	0	468.30	0	4.5280	0	34.0730	0	26.997	0	463.803	0	31.0	4	9.9	4	-1E+10	1	-1E+10	1	-1E+10	1	-1E+10	1	-1E+10	1	-1E+10	1
4902551	70	C	07/19/2022	22:07	-132.197	48.996	0	473.30	0	4.5000	0	34.0800	0	27.006	0	468.749	0	30.0	4	9.6	4	-1E+10	1	-1E+10	1	-1E+10	1	-1E+10	1	-1E+10	1	-1E+10	1
4902551	70	C	07/19/2022	22:07	-132.197	48.996	0	477.90	0	4.4980	0	34.0830	0	27.008	0	473.300	0	29.2	4	9.3	4	-1E+10	1	-1E+10	1	-1E+10	1	-1E+10	1	-1E+10	1	-1E+10	1
4902551	70	C	07/19/2022	22:07	-132.197	48.996	0	482.60	0	4.4850	0	34.0890	0	27.014	0	477.949	0	28.5	4	9.1	4	-1E+10	1	-1E+10	1	-1E+10	1	-1E+10	1	-1E+10	1	-1E+10	1
4902551	70	C	07/19/2022	22:07	-132.197	48.996	0	487.70	0	4.4640	0	34.0960	0	27.022	0	482.994	0	27.8	4	8.9	4	-1E+10	1	-1E+10	1	-1E+10	1	-1E+10	1	-1E+10	1	-1E+10	1
4902551	70	C	07/19/2022	22:07	-132.197	48.996	0	492.80	0	4.4450	0	34.0970	0	27.025	0	488.039	0	27.4	4	8.7	4	-1E+10	1	-1E+10	1	-1E+10	1	-1E+10	1	-1E+10	1	-1E+10	1
4902551	70	C	07/19/2022	22:07	-132.197	48.996	0	498.10	0	4.4170	0	34.0970	0	27.028	0	493.281	0	26.6	4	8.5	4	-1E+10	1	-1E+10	1	-1E+10	1	-1E+10	1	-1E+10	1	-1E+10	1
4902551	70	C	07/19/2022	22:07	-132.197	48.996	0	502.90	0	4.4020	0	34.1050	0	27.036	0	498.029	0	25.7	4	8.2	4	-1E+10	1	-1E+10	1	-1E+10	1	-1E+10	1	-1E+10	1	-1E+10	1
4902551	70	C	07/19/2022	22:07	-132.197	48.996	0	507.70	0	4.3720	0	34.1100	0	27.043	0	502.777	0	24.9	4	7.9	4	-1E+10	1	-1E+10	1	-1E+10	1	-1E+10	1	-1E+10	1	-1E+10	1
4902551	70	C	07/19/2022	22:07	-132.197	48.996	0	513.10	0	4.3440	0	34.1180	0	27.053	0	508.118	0	24.0	4	7.7	4	-1E+10	1	-1E+10	1	-1E+10	1	-1E+10	1	-1E+10	1	-1E+10	1
4902551	70	C	07/19/2022	22:07	-132.197	48.996	0	518.10	0	4.3380	0	34.1220	0	27.057	0	513.063	0	23.6	4	7.5	4	-1E+10	1	-1E+10	1	-1E+10	1	-1E+10	1	-1E+10	1	-1E+10	1
4902551	70	C	07/19/2022	22:07	-132.197	48.996	0	522.80	0	4.3240	0	34.1250	0	27.060	0	517.712	0	23.1	4	7.3	4	-1E+10	1	-1E+10	1	-1E+10	1	-1E+10	1	-1E+10	1	-1E+10	1
4902551	70	C	07/19/2022	22:07	-132.197	48.996	0	527.80	0	4.2850	0	34.1280	0	27.067	0	522.657	0	22.3	4	7.1	4	-1E+10	1	-1E+10	1	-1E+10	1	-1E+10	1	-1E+10	1	-1E+10	1
4902551	70	C	07/19/2022	22:07	-132.197	48.996	0	532.90	0	4.2970	0	34.1320	0	27.069	0	527.700	0	21.3	4	6.8	4	-1E+10	1	-1E+10	1	-1E+10	1	-1E+10	1	-1E+10	1	-1E+10	1
4902551	70	C	07/19/2022	22:07	-132.197	48.996	0	537.70	0	4.3060	0	34.1400	0	27.074	0	532.447	0	20.6	4	6.5	4	-1E+10	1	-1E+10	1	-1E+10	1	-1E+10	1	-1E+10	1	-1E+10	1
4902551	70	C	07/19/2022	22:07	-132.197	48.996	0	542.50	0	4.3060	0	34.1490	0	27.082	0	537.194	0	20.4	4	6.5	4	-1E+10	1	-1E+10	1	-1E+10	1	-1E+10	1	-1E+10	1	-1E+10	1
4902551	70	C	07/19/2022	22:07	-132.197	48.996	0	547.90	0	4.2150	0	34.1480	0	27.090	0	542.535	0	20.3	4	6.4	4	-1E+10	1	-1E+10	1	-1E+10	1	-1E+10	1	-1E+10	1	-1E+10	1
4902551	70	C	07/19/2022	22:07	-132.197	48.996	0	553.40	0	4.2230	0	34.1510	0	27.092	0	547.973	0	19.3	4	6.1	4	-1E+10	1	-1E+10	1	-1E+10	1	-1E+10	1	-1E+10	1	-1E+10	1
4902551	70	C	07/19/2022	22:07	-132.197	48.996	0	558.40	0	4.2260	0	34.1580	0	27.097	0	552.918	0	18.8	4	6.0	4	-1E+10	1	-1E+10	1	-1E+10	1	-1E+10	1	-1E+10	1	-1E+10	1
4902551	70	C	07/19/2022	22:07	-132.197	48.996	0	562.90	0	4.2100	0	34.1640	0	27.104	0	557.368	0	18.4	4	5.8	4	-1E+10	1	-1E+10	1	-1E+10	1	-1E+10	1	-1E+10	1	-1E+10	1
4902551	70	C	07/19/2022	22:07	-132.197	48.996	0	567.60	0	4.1910	0	34.1680	0	27.109	0	562.015	0	18.3	4	5.8	4	-1E+10	1	-1E+10	1	-1E+10	1	-1E+10	1	-1E+10	1	-1E+10	1
4902551	70	C	07/19/2022	22:07	-132.197	48.996	0	572.80	0	4.1750	0	34.1710	0	27.113	0	567.157	0	18.2	4	5.8	4	-1E+10	1	-1E+10	1	-1E+10	1	-1E+10	1	-1E+10	1	-1E+10	1
4902551	70	C	07/19/2022	22:07	-132.197	48.996	0	578.00	0	4.1630	0	34.1710	0	27.114	0	572.298	0	18.1	4	5.8	4	-1E+10	1	-1E+10	1	-1E+10	1	-1E+10	1	-1E+10	1	-1E+10	1
4902551	70	C	07/19/2022	22:07	-132.197	48.996	0	583.00	0	4.1530	0	34.1710	0	27.115	0	577.242	0	18.0	4	5.7	4	-1E+10	1	-1E+10	1	-1E+10	1	-1E+10	1	-1E+10	1	-1E+10	1
4902551	70	C	07/19/2022	22:07	-132.197	48.996	0	588.00	0	4.1490	0	34.1730	0	27.117	0	582.186	0	17.8	4	5.6	4	-1E+10	1	-1E+10	1	-1E+10	1	-1E+10	1	-1E+10	1	-1E+10	1
4902551	70	C	07/19/2022	22:07	-132.197	48.996	0	593.10	0	4.1410	0	34.1750	0	27.120	0	587.228	0	17.6	4	5.6	4	-1E+10	1	-1E+10	1	-1E+10	1	-1E+10	1	-1E+10	1	-1E+10	1
4902551	70	C	07/19/2022	22:07	-132.197	48.996	0	598.00	0	4.1290	0	34.1770	0	27.123	0	592.073	0	17.4	4	5.5	4	-1E+10	1	-1E+10	1	-1E+10	1	-1E+10	1	-1E+10	1	-1E+10	1
4902551	70	C	07/19/2022	22:07	-132.197	48.996	0	603.00	0	4.1180	0	34.1790	0	27.126	0	597.016	0	17.2	4	5.4	4	-1E+10	1	-1E+10	1	-1E+10	1	-1E+10	1	-1E+10	1	-1E+10	1
4902551	70	C	07/19/2022	22:07	-132.197	48.996	0	608.00	0	4.1130	0	34.1810	0	27.128	0	601.959	0	16.9	4	5.3	4	-1E+10	1	-1E+10	1	-1E+10	1	-1E+10	1	-1E+10	1	-1E+10	1
4902551	70	C	07/19/2022	22:07	-132.197	48.996	0	613.00	0	4.1120	0	34.1820	0	27.129	0	606.902	0	16.5	4	5.2	4	-1E+10	1	-1E+10	1	-1E+10	1	-1E+10	1	-1E+10	1	-1E+10	1
4902551	70	C	07/19/2022	22:07	-132.197	48.996	0	618.10	0	4.1030	0	34.1870	0	27.134	0	611.944	0	16.2	4	5.1	4	-1E+10	1	-1E+10	1	-1E+10	1	-1E+10	1	-1E+10	1	-1E+10	1
4902551	70	C	07/19/2022	22:07	-132.197	48.996	0	623.00	0	4.0890	0	34.1910	0	27.138	0	616.788	0	16.0	4	5.1	4	-1E+10	1	-1E+10	1	-1E+10	1	-1E+10	1	-1E+10	1	-1E+10	1
4902551	70	C	07/19/2022	22:07	-132.197	48.996	0	628.00	0	4.0890	0	34.1920	0	27.139	0	621.731	0	15.6	4	5.0	4	-1E+10	1	-1E+10	1	-1E+10	1	-1E+10	1	-1E+10	1	-1E+10	1
4902551	70	C	07/19/2022	22:07	-132.197	48.996	0	633.00	0	4.0840	0	34.1970	0	27.144	0	626.673	0	15.3	4	4.8	4	-1E+10	1	-1E+10	1	-1E+10	1	-1E+10	1	-1E+10	1	-1E+10	1
4902551	70	C	07/19/2022	22:07	-132.197	48.996	0	637.80	0	4.0810	0	34.2000	0	27.146	0	631.418	0	15.0	4	4.8	4	-1E+10	1	-1E+10	1	-1E+10	1	-1E+10	1	-1E+10	1	-1E+10	1
4902551	70	C	07/19/2022	22:07	-132.197	48.996	0	643.00	0	4.0660	0	34.2070	0	27.153	0	636.558	0	14.8	4	4.7	4	-1E+10	1	-1E+10	1	-1E+10	1	-1E+10	1	-1E+10	1	-1E+10	1
4902551	70	C	07/19/2022	22:07	-132.197	48.996	0	648.20	0	4.0590	0	34.2070	0	27.154	0	641.698	0	14.8	4	4.7	4	-1E+10	1	-1E+10	1	-1E+10	1	-1E+10	1	-1E+10	1	-1E+10	1
4902551	70	C	07/19/2022	22:07	-132.197	48.996	0	653.20	0	4.0250	0	34.2100	0	27.160	0	646.640	0	14.7	4	4.6	4	-1E+10	1	-1E+10	1	-1E+10	1	-1E+10	1	-1E+10	1	-1E+10	1
4902551	70	C	07/19/2022	22:07	-132.197	48.996	0	657.90	0	3.9930	0	34.2100	0	27.163	0	651.285	0	14.3	4	4.5	4	-1E+10	1	-1E+10	1	-1E+10	1	-1E+10	1	-1E+10	1	-1E+10	1
4902551	70	C	07/19/2022	22:07	-132.197	48.996	0	662.50	0	3.9800	0	34.2180	0	27.171	0	655.832	0	13.9	4	4.4	4	-1E+10	1	-1E+10	1	-1E+10	1	-1E+10	1	-1E+10	1	-1E+10	1
4902551	70	C	07/19/2022	22:07	-132.197	48.996	0	667.60	0	3.9500	0	34.2270	0	27.181	0	660.872	0	13.6	4	4.3	4	-1E+10	1	-1E+10	1	-1E+10	1	-1E+10	1	-1E+10	1	-1E+10	1
4902551	70	C	07/19/2022	22:07	-132.197	48.996	0	672.70	0	3.9320	0	34.2290	0	27.185	0	665.913	0	13.5	4	4.2	4	-1E+10	1	-1E+10	1	-1E+10	1	-1E+10	1	-1E+10	1	-1E+10	1
4902551	70	C	07/19/2022	22:07	-132.197	48.996	0	677.90	0	3.9200	0	34.2320	0	27.188	0	671.052	0	13.2	4	4.2	4	-1E+10	1	-1E+10	1	-1E+10	1	-1E+10	1	-1E+10	1	-1E+10	1
4902551	70	C	07/19/2022	22:07	-132.197	48.996	0	683.20	0	3.9060	0	34.2380	0	27.195	0	676.290	0	13.0	4	4.1	4	-1E+10	1	-1E+10	1	-1E+10	1	-1E+10	1	-1E+10	1	-1E+10	1
4902551	70	C	07/19/2022	22:07	-132.197	48.996	0	688.00	0	3.8930	0	34.2410	0	27.198	0	681.034	0	12.9	4	4.1	4	-1E+10	1	-1E+10	1	-1E+10	1	-1E+10	1	-1E+10	1	-1E+10	1
4902551	70	C	07/19/2022	22:07	-132.197	48.996	0	692.90	0	3.8920	0	34.2430	0	27.200	0	685.876	0	12.8	4	4.0	4	-1E+10	1	-1E+10	1	-1E+10	1	-1E+10	1	-1E+10	1	-1E+10	1
4902551	70	C	07/19/2022	22:07	-132.197	48.996	0	698.20	0	3.8880	0	34.2450	0	27.202	0	691.113	0	12.7	4	4.0	4	-1E+10	1	-1E+10	1	-1E+10	1	-1E+10	1	-1E+10	1	-1E+10	1
4902551	70	C	07/19/2022	22:07	-132.197	48.996	0	703.00	0	3.8670	0	34.2500	0	27.208	0	695.857	0	12.5	4	3.9	4	-1E+10	1	-1E+10	1	-1E+10	1	-1E+10	1	-1E+10	1	-1E+10	1
4902551	70	C	07/19/2022	22:07	-132.197	48.996	0	707.90	0	3.8440	0	34.2520	0	27.212	0	700.699	0	12.4	4	3.9	4	-1E+10	1	-1E+10	1	-1E+10	1	-1E+10	1	-1E+10	1	-1E+10	1
4902551	70	C	07/19/2022	22:07	-132.197	48.996	0	712.90	0	3.8380	0	34.2540	0	27.214	0	705.639	0	12.2	4	3.8	4	-1E+10	1	-1E+10	1	-1E+10	1	-1E+10	1	-1E+10	1	-1E+10	1
4902551	70	C	07/19/2022	22:07	-132.197	48.996	0	717.90	0	3.8350	0	34.2600	0	27.220	0	710.580	0	11.9	4	3.8	4	-1E+10	1	-1E+10	1	-1E+10	1	-1E+10	1	-1E+10	1	-1E+10	1
4902551	70	C	07/19/2022	22:07	-132.197	48.996	0	722.90	0	3.8170	0	34.2650	0	27.225	0	715.520	0	11.8	4	3.7	4	-1E+10	1	-1E+10	1	-1E+10	1	-1E+10	1	-1E+10	1	-1E+10	1
4902551	70	C	07/19/2022	22:07	-132.197	48.996	0	727.80	0	3.8180	0	34.2660	0	27.226	0	720.362	0	11.7	4	3.7	4	-1E+10	1	-1E+10	1	-1E+10	1	-1E+10	1	-1E+10	1	-1E+10	1
4902551	70	C	07/19/2022	22:07	-132.197	48.996	0	733.20	0	3.8100	0	34.2700	0	27.230	0	725.697	0	11.6	4	3.7	4	-1E+10	1	-1E+10	1	-1E+10	1	-1E+10	1	-1E+10	1	-1E+10	1
4902551	70	C	07/19/2022	22:07	-132.197	48.996	0	738.10	0	3.7920	0	34.2740	0	27.235	0	730.538	0	11.6	4	3.6	4	-1E+10	1	-1E+10	1	-1E+10	1	-1E+10	1	-1E+10	1	-1E+10	1
4902551	70	C	07/19/2022	22:07	-132.197	48.996	0	743.10	0	3.7880	0	34.2750	0	27.236	0	735.478	0	11.5	4	3.6	4	-1E+10	1	-1E+10	1	-1E+10	1	-1E+10	1	-1E+10	1	-1E+10	1
4902551	70	C	07/19/2022	22:07	-132.197	48.996	0	748.00	0	3.7880	0	34.2750	0	27.236	0	740.320	0	11.5	4	3.6	4	-1E+10	1	-1E+10	1	-1E+10	1	-1E+10	1	-1E+10	1	-1E+10	1
4902551	70	C	07/19/2022	22:07	-132.197	48.996	0	752.90	0	3.7780	0	34.2760	0	27.238	0	745.160	0	11.5	4	3.6	4	-1E+10	1	-1E+10	1	-1E+10	1	-1E+10	1	-1E+10	1	-1E+10	1
4902551	70	C	07/19/2022	22:07	-132.197	48.996	0	757.90	0	3.7620	0	34.2810	0	27.244	0	750.100	0	11.4	4	3.6	4	-1E+10	1	-1E+10	1	-1E+10	1	-1E+10	1	-1E+10	1	-1E+10	1
4902551	70	C	07/19/2022	22:07	-132.197	48.996	0	762.80	0	3.7430	0	34.2820	0	27.247	0	754.941	0	11.4	4	3.6	4	-1E+10	1	-1E+10	1	-1E+10	1	-1E+10	1	-1E+10	1	-1E+10	1
4902551	70	C	07/19/2022	22:07	-132.197	48.996	0	768.20	0	3.7300	0	34.2850	0	27.250	0	760.275	0	11.4	4	3.6	4	-1E+10	1	-1E+10	1	-1E+10	1	-1E+10	1	-1E+10	1	-1E+10	1
4902551	70	C	07/19/2022	22:07	-132.197	48.996	0	773.10	0	3.7170	0	34.2870	0	27.253	0	765.116	0	11.4	4	3.6	4	-1E+10	1	-1E+10	1	-1E+10	1	-1E+10	1	-1E+10	1	-1E+10	1
4902551	70	C	07/19/2022	22:07	-132.197	48.996	0	777.90	0	3.7010	0	34.2880	0	27.256	0	769.857	0	11.4	4	3.6	4	-1E+10	1	-1E+10	1	-1E+10	1	-1E+10	1	-1E+10	1	-1E+10	1
4902551	70	C	07/19/2022	22:07	-132.197	48.996	0	782.90	0	3.6790	0	34.2890	0	27.259	0	774.796	0	11.5	4	3.6	4	-1E+10	1	-1E+10	1	-1E+10	1	-1E+10	1	-1E+10	1	-1E+10	1
4902551	70	C	07/19/2022	22:07	-132.197	48.996	0	787.90	0	3.6650	0	34.2890	0	27.260	0	779.735	0	11.4	4	3.6	4	-1E+10	1	-1E+10	1	-1E+10	1	-1E+10	1	-1E+10	1	-1E+10	1
4902551	70	C	07/19/2022	22:07	-132.197	48.996	0	793.10	0	3.6550	0	34.2920	0	27.263	0	784.872	0	11.4	4	3.6	4	-1E+10	1	-1E+10	1	-1E+10	1	-1E+10	1	-1E+10	1	-1E+10	1
4902551	70	C	07/19/2022	22:07	-132.197	48.996	0	797.70	0	3.6430	0	34.2950	0	27.267	0	789.415	0	11.4	4	3.6	4	-1E+10	1	-1E+10	1	-1E+10	1	-1E+10	1	-1E+10	1	-1E+10	1
4902551	70	C	07/19/2022	22:07	-132.197	48.996	0	802.90	0	3.6200	0	34.2970	0	27.271	0	794.551	0	11.4	4	3.6	4	-1E+10	1	-1E+10	1	-1E+10	1	-1E+10	1	-1E+10	1	-1E+10	1
4902551	70	C	07/19/2022	22:07	-132.197	48.996	0	808.20	0	3.6120	0	34.2990	0	27.273	0	799.786	0	11.4	4	3.6	4	-1E+10	1	-1E+10	1	-1E+10	1	-1E+10	1	-1E+10	1	-1E+10	1
4902551	70	C	07/19/2022	22:07	-132.197	48.996	0	813.20	0	3.5850	0	34.3030	0	27.279	0	804.724	0	11.4	4	3.6	4	-1E+10	1	-1E+10	1	-1E+10	1	-1E+10	1	-1E+10	1	-1E+10	1
4902551	70	C	07/19/2022	22:07	-132.197	48.996	0	818.10	0	3.5750	0	34.3040	0	27.281	0	809.564	0	11.4	4	3.6	4	-1E+10	1	-1E+10	1	-1E+10	1	-1E+10	1	-1E+10	1	-1E+10	1
4902551	70	C	07/19/2022	22:07	-132.197	48.996	0	823.10	0	3.5550	0	34.3070	0	27.285	0	814.502	0	11.4	4	3.6	4	-1E+10	1	-1E+10	1	-1E+10	1	-1E+10	1	-1E+10	1	-1E+10	1
4902551	70	C	07/19/2022	22:07	-132.197	48.996	0	828.20	0	3.5390	0	34.3100	0	27.289	0	819.539	0	11.3	4	3.5	4	-1E+10	1	-1E+10	1	-1E+10	1	-1E+10	1	-1E+10	1	-1E+10	1
4902551	70	C	07/19/2022	22:07	-132.197	48.996	0	833.20	0	3.5280	0	34.3120	0	27.292	0	824.477	0	11.3	4	3.5	4	-1E+10	1	-1E+10	1	-1E+10	1	-1E+10	1	-1E+10	1	-1E+10	1
4902551	70	C	07/19/2022	22:07	-132.197	48.996	0	838.40	0	3.5240	0	34.3130	0	27.293	0	829.612	0	11.3	4	3.5	4	-1E+10	1	-1E+10	1	-1E+10	1	-1E+10	1	-1E+10	1	-1E+10	1
4902551	70	C	07/19/2022	22:07	-132.197	48.996	0	843.40	0	3.5140	0	34.3160	0	27.297	0	834.549	0	11.3	4	3.5	4	-1E+10	1	-1E+10	1	-1E+10	1	-1E+10	1	-1E+10	1	-1E+10	1
4902551	70	C	07/19/2022	22:07	-132.197	48.996	0	847.90	0	3.4990	0	34.3190	0	27.300	0	838.993	0	11.3	4	3.5	4	-1E+10	1	-1E+10	1	-1E+10	1	-1E+10	1	-1E+10	1	-1E+10	1
4902551	70	C	07/19/2022	22:07	-132.197	48.996	0	852.60	0	3.4750	0	34.3230	0	27.306	0	843.634	0	11.3	4	3.5	4	-1E+10	1	-1E+10	1	-1E+10	1	-1E+10	1	-1E+10	1	-1E+10	1
4902551	70	C	07/19/2022	22:07	-132.197	48.996	0	857.90	0	3.4680	0	34.3240	0	27.307	0	848.868	0	11.3	4	3.5	4	-1E+10	1	-1E+10	1	-1E+10	1	-1E+10	1	-1E+10	1	-1E+10	1
4902551	70	C	07/19/2022	22:07	-132.197	48.996	0	863.10	0	3.4620	0	34.3260	0	27.310	0	854.002	0	11.3	4	3.5	4	-1E+10	1	-1E+10	1	-1E+10	1	-1E+10	1	-1E+10	1	-1E+10	1
4902551	70	C	07/19/2022	22:07	-132.197	48.996	0	867.80	0	3.4590	0	34.3260	0	27.310	0	858.643	0	11.3	4	3.5	4	-1E+10	1	-1E+10	1	-1E+10	1	-1E+10	1	-1E+10	1	-1E+10	1
4902551	70	C	07/19/2022	22:07	-132.197	48.996	0	872.60	0	3.4550	0	34.3270	0	27.311	0	863.383	0	11.3	4	3.5	4	-1E+10	1	-1E+10	1	-1E+10	1	-1E+10	1	-1E+10	1	-1E+10	1
4902551	70	C	07/19/2022	22:07	-132.197	48.996	0	877.80	0	3.4450	0	34.3290	0	27.314	0	868.517	0	11.3	4	3.5	4	-1E+10	1	-1E+10	1	-1E+10	1	-1E+10	1	-1E+10	1	-1E+10	1
4902551	70	C	07/19/2022	22:07	-132.197	48.996	0	882.90	0	3.4290	0	34.3300	0	27.316	0	873.552	0	11.3	4	3.5	4	-1E+10	1	-1E+10	1	-1E+10	1	-1E+10	1	-1E+10	1	-1E+10	1
4902551	70	C	07/19/2022	22:07	-132.197	48.996	0	888.10	0	3.4130	0	34.3320	0	27.319	0	878.686	0	11.4	4	3.5	4	-1E+10	1	-1E+10	1	-1E+10	1	-1E+10	1	-1E+10	1	-1E+10	1
4902551	70	C	07/19/2022	22:07	-132.197	48.996	0	893.20	0	3.4040	0	34.3330	0	27.321	0	883.722	0	11.4	4	3.5	4	-1E+10	1	-1E+10	1	-1E+10	1	-1E+10	1	-1E+10	1	-1E+10	1
4902551	70	C	07/19/2022	22:07	-132.197	48.996	0	898.40	0	3.3950	0	34.3350	0	27.323	0	888.855	0	11.4	4	3.6	4	-1E+10	1	-1E+10	1	-1E+10	1	-1E+10	1	-1E+10	1	-1E+10	1
4902551	70	C	07/19/2022	22:07	-132.197	48.996	0	903.00	0	3.3850	0	34.3350	0	27.324	0	893.397	0	11.4	4	3.6	4	-1E+10	1	-1E+10	1	-1E+10	1	-1E+10	1	-1E+10	1	-1E+10	1
4902551	70	C	07/19/2022	22:07	-132.197	48.996	0	907.80	0	3.3640	0	34.3360	0	27.327	0	898.135	0	11.5	4	3.6	4	-1E+10	1	-1E+10	1	-1E+10	1	-1E+10	1	-1E+10	1	-1E+10	1
4902551	70	C	07/19/2022	22:07	-132.197	48.996	0	913.00	0	3.3380	0	34.3370	0	27.330	0	903.269	0	11.5	4	3.6	4	-1E+10	1	-1E+10	1	-1E+10	1	-1E+10	1	-1E+10	1	-1E+10	1
4902551	70	C	07/19/2022	22:07	-132.197	48.996	0	918.30	0	3.3190	0	34.3400	0	27.335	0	908.501	0	11.5	4	3.6	4	-1E+10	1	-1E+10	1	-1E+10	1	-1E+10	1	-1E+10	1	-1E+10	1
4902551	70	C	07/19/2022	22:07	-132.197	48.996	0	923.20	0	3.3140	0	34.3410	0	27.336	0	913.338	0	11.5	4	3.6	4	-1E+10	1	-1E+10	1	-1E+10	1	-1E+10	1	-1E+10	1	-1E+10	1
4902551	70	C	07/19/2022	22:07	-132.197	48.996	0	928.30	0	3.2990	0	34.3440	0	27.340	0	918.372	0	11.6	4	3.6	4	-1E+10	1	-1E+10	1	-1E+10	1	-1E+10	1	-1E+10	1	-1E+10	1
4902551	70	C	07/19/2022	22:07	-132.197	48.996	0	933.00	0	3.2900	0	34.3460	0	27.342	0	923.012	0	11.6	4	3.6	4	-1E+10	1	-1E+10	1	-1E+10	1	-1E+10	1	-1E+10	1	-1E+10	1
4902551	70	C	07/19/2022	22:07	-132.197	48.996	0	937.90	0	3.2870	0	34.3490	0	27.345	0	927.848	0	11.6	4	3.6	4	-1E+10	1	-1E+10	1	-1E+10	1	-1E+10	1	-1E+10	1	-1E+10	1
4902551	70	C	07/19/2022	22:07	-132.197	48.996	0	942.90	0	3.2740	0	34.3510	0	27.348	0	932.784	0	11.6	4	3.6	4	-1E+10	1	-1E+10	1	-1E+10	1	-1E+10	1	-1E+10	1	-1E+10	1
4902551	70	C	07/19/2022	22:07	-132.197	48.996	0	948.00	0	3.2600	0	34.3550	0	27.352	0	937.817	0	11.6	4	3.6	4	-1E+10	1	-1E+10	1	-1E+10	1	-1E+10	1	-1E+10	1	-1E+10	1
4902551	70	C	07/19/2022	22:07	-132.197	48.996	0	953.10	0	3.2430	0	34.3570	0	27.356	0	942.851	0	11.7	4	3.6	4	-1E+10	1	-1E+10	1	-1E+10	1	-1E+10	1	-1E+10	1	-1E+10	1
4902551	70	C	07/19/2022	22:07	-132.197	48.996	0	957.80	0	3.2380	0	34.3580	0	27.357	0	947.490	0	11.7	4	3.6	4	-1E+10	1	-1E+10	1	-1E+10	1	-1E+10	1	-1E+10	1	-1E+10	1
4902551	70	C	07/19/2022	22:07	-132.197	48.996	0	963.00	0	3.2410	0	34.3600	0	27.358	0	952.622	0	11.7	4	3.6	4	-1E+10	1	-1E+10	1	-1E+10	1	-1E+10	1	-1E+10	1	-1E+10	1
4902551	70	C	07/19/2022	22:07	-132.197	48.996	0	968.10	0	3.2380	0	34.3610	0	27.359	0	957.656	0	11.7	4	3.6	4	-1E+10	1	-1E+10	1	-1E+10	1	-1E+10	1	-1E+10	1	-1E+10	1
4902551	70	C	07/19/2022	22:07	-132.197	48.996	0	973.10	0	3.2280	0	34.3620	0	27.361	0	962.590	0	11.8	4	3.6	4	-1E+10	1	-1E+10	1	-1E+10	1	-1E+10	1	-1E+10	1	-1E+10	1
4902551	70	C	07/19/2022	22:07	-132.197	48.996	0	978.20	0	3.2180	0	34.3630	0	27.363	0	967.623	0	11.8	4	3.7	4	-1E+10	1	-1E+10	1	-1E+10	1	-1E+10	1	-1E+10	1	-1E+10	1
4902551	70	C	07/19/2022	22:07	-132.197	48.996	0	982.70	0	3.1960	0	34.3670	0	27.368	0	972.064	0	11.9	4	3.7	4	-1E+10	1	-1E+10	1	-1E+10	1	-1E+10	1	-1E+10	1	-1E+10	1
4902551	70	C	07/19/2022	22:07	-132.197	48.996	0	987.80	0	3.1810	0	34.3700	0	27.372	0	977.097	0	11.9	4	3.7	4	-1E+10	1	-1E+10	1	-1E+10	1	-1E+10	1	-1E+10	1	-1E+10	1
4902551	70	C	07/19/2022	22:07	-132.197	48.996	0	993.10	0	3.1770	0	34.3710	0	27.373	0	982.327	0	11.9	4	3.7	4	-1E+10	1	-1E+10	1	-1E+10	1	-1E+10	1	-1E+10	1	-1E+10	1
4902551	70	C	07/19/2022	22:07	-132.197	48.996	0	997.90	0	3.1680	0	34.3720	0	27.375	0	987.064	0	12.0	4	3.7	4	-1E+10	1	-1E+10	1	-1E+10	1	-1E+10	1	-1E+10	1	-1E+10	1
4902551	70	C	07/19/2022	22:07	-132.197	48.996	0	1005.40	0	3.1490	0	34.3760	0	27.380	0	994.465	0	12.0	4	3.7	4	-1E+10	1	-1E+10	1	-1E+10	1	-1E+10	1	-1E+10	1	-1E+10	1
4902551	70	C	07/19/2022	22:07	-132.197	48.996	0	1015.50	0	3.1430	0	34.3820	0	27.385	0	1004.431	0	12.1	4	3.7	4	-1E+10	1	-1E+10	1	-1E+10	1	-1E+10	1	-1E+10	1	-1E+10	1
4902551	70	C	07/19/2022	22:07	-132.197	48.996	0	1025.40	0	3.1230	0	34.3860	0	27.390	0	1014.199	0	12.2	4	3.8	4	-1E+10	1	-1E+10	1	-1E+10	1	-1E+10	1	-1E+10	1	-1E+10	1
4902551	70	C	07/19/2022	22:07	-132.197	48.996	0	1035.40	0	3.1010	0	34.3880	0	27.394	0	1024.065	0	12.3	4	3.8	4	-1E+10	1	-1E+10	1	-1E+10	1	-1E+10	1	-1E+10	1	-1E+10	1
4902551	70	C	07/19/2022	22:07	-132.197	48.996	0	1045.90	0	3.0770	0	34.3920	0	27.399	0	1034.424	0	12.4	4	3.8	4	-1E+10	1	-1E+10	1	-1E+10	1	-1E+10	1	-1E+10	1	-1E+10	1
4902551	70	C	07/19/2022	22:07	-132.197	48.996	0	1055.30	0	3.0600	0	34.3950	0	27.403	0	1043.698	0	12.5	4	3.9	4	-1E+10	1	-1E+10	1	-1E+10	1	-1E+10	1	-1E+10	1	-1E+10	1
4902551	70	C	07/19/2022	22:07	-132.197	48.996	0	1065.50	0	3.0410	0	34.3980	0	27.407	0	1053.760	0	12.6	4	3.9	4	-1E+10	1	-1E+10	1	-1E+10	1	-1E+10	1	-1E+10	1	-1E+10	1
4902551	70	C	07/19/2022	22:07	-132.197	48.996	0	1075.60	0	3.0140	0	34.4020	0	27.413	0	1063.723	0	12.8	4	3.9	4	-1E+10	1	-1E+10	1	-1E+10	1	-1E+10	1	-1E+10	1	-1E+10	1
4902551	70	C	07/19/2022	22:07	-132.197	48.996	0	1085.40	0	2.9980	0	34.4060	0	27.418	0	1073.390	0	12.9	4	4.0	4	-1E+10	1	-1E+10	1	-1E+10	1	-1E+10	1	-1E+10	1	-1E+10	1
4902551	70	C	07/19/2022	22:07	-132.197	48.996	0	1095.30	0	2.9770	0	34.4070	0	27.421	0	1083.155	0	13.0	4	4.0	4	-1E+10	1	-1E+10	1	-1E+10	1	-1E+10	1	-1E+10	1	-1E+10	1
4902551	70	C	07/19/2022	22:07	-132.197	48.996	0	1105.60	0	2.9590	0	34.4080	0	27.423	0	1093.314	0	13.1	4	4.0	4	-1E+10	1	-1E+10	1	-1E+10	1	-1E+10	1	-1E+10	1	-1E+10	1
4902551	70	C	07/19/2022	22:07	-132.197	48.996	0	1115.60	0	2.9410	0	34.4140	0	27.430	0	1103.176	0	13.3	4	4.1	4	-1E+10	1	-1E+10	1	-1E+10	1	-1E+10	1	-1E+10	1	-1E+10	1
4902551	70	C	07/19/2022	22:07	-132.197	48.996	0	1125.50	0	2.9180	0	34.4140	0	27.432	0	1112.940	0	13.4	4	4.1	4	-1E+10	1	-1E+10	1	-1E+10	1	-1E+10	1	-1E+10	1	-1E+10	1
4902551	70	C	07/19/2022	22:07	-132.197	48.996	0	1135.50	0	2.8980	0	34.4180	0	27.437	0	1122.802	0	13.6	4	4.2	4	-1E+10	1	-1E+10	1	-1E+10	1	-1E+10	1	-1E+10	1	-1E+10	1
4902551	70	C	07/19/2022	22:07	-132.197	48.996	0	1145.30	0	2.8800	0	34.4210	0	27.441	0	1132.466	0	13.8	4	4.3	4	-1E+10	1	-1E+10	1	-1E+10	1	-1E+10	1	-1E+10	1	-1E+10	1
4902551	70	C	07/19/2022	22:07	-132.197	48.996	0	1155.30	0	2.8700	0	34.4240	0	27.444	0	1142.326	0	14.0	4	4.3	4	-1E+10	1	-1E+10	1	-1E+10	1	-1E+10	1	-1E+10	1	-1E+10	1
4902551	70	C	07/19/2022	22:07	-132.197	48.996	0	1165.60	0	2.8530	0	34.4270	0	27.448	0	1152.482	0	14.3	4	4.4	4	-1E+10	1	-1E+10	1	-1E+10	1	-1E+10	1	-1E+10	1	-1E+10	1
4902551	70	C	07/19/2022	22:07	-132.197	48.996	0	1175.20	0	2.8200	0	34.4310	0	27.454	0	1161.948	0	14.5	4	4.5	4	-1E+10	1	-1E+10	1	-1E+10	1	-1E+10	1	-1E+10	1	-1E+10	1
4902551	70	C	07/19/2022	22:07	-132.197	48.996	0	1185.30	0	2.8020	0	34.4330	0	27.457	0	1171.906	0	14.7	4	4.5	4	-1E+10	1	-1E+10	1	-1E+10	1	-1E+10	1	-1E+10	1	-1E+10	1
4902551	70	C	07/19/2022	22:07	-132.197	48.996	0	1195.50	0	2.7900	0	34.4350	0	27.460	0	1181.962	0	14.8	4	4.6	4	-1E+10	1	-1E+10	1	-1E+10	1	-1E+10	1	-1E+10	1	-1E+10	1
4902551	70	C	07/19/2022	22:07	-132.197	48.996	0	1205.70	0	2.7810	0	34.4360	0	27.462	0	1192.018	0	15.1	4	4.6	4	-1E+10	1	-1E+10	1	-1E+10	1	-1E+10	1	-1E+10	1	-1E+10	1
4902551	70	C	07/19/2022	22:07	-132.197	48.996	0	1215.60	0	2.7590	0	34.4390	0	27.466	0	1201.777	0	15.4	4	4.7	4	-1E+10	1	-1E+10	1	-1E+10	1	-1E+10	1	-1E+10	1	-1E+10	1
4902551	70	C	07/19/2022	22:07	-132.197	48.996	0	1225.50	0	2.7330	0	34.4430	0	27.472	0	1211.536	0	15.7	4	4.8	4	-1E+10	1	-1E+10	1	-1E+10	1	-1E+10	1	-1E+10	1	-1E+10	1
4902551	70	C	07/19/2022	22:07	-132.197	48.996	0	1235.40	0	2.7160	0	34.4470	0	27.476	0	1221.294	0	15.9	4	4.9	4	-1E+10	1	-1E+10	1	-1E+10	1	-1E+10	1	-1E+10	1	-1E+10	1
4902551	70	C	07/19/2022	22:07	-132.197	48.996	0	1245.20	0	2.6990	0	34.4490	0	27.479	0	1230.954	0	16.1	4	4.9	4	-1E+10	1	-1E+10	1	-1E+10	1	-1E+10	1	-1E+10	1	-1E+10	1
4902551	70	C	07/19/2022	22:07	-132.197	48.996	0	1255.10	0	2.6840	0	34.4510	0	27.482	0	1240.711	0	16.2	4	5.0	4	-1E+10	1	-1E+10	1	-1E+10	1	-1E+10	1	-1E+10	1	-1E+10	1
4902551	70	C	07/19/2022	22:07	-132.197	48.996	0	1265.30	0	2.6730	0	34.4520	0	27.484	0	1250.764	0	16.3	4	5.0	4	-1E+10	1	-1E+10	1	-1E+10	1	-1E+10	1	-1E+10	1	-1E+10	1
4902551	70	C	07/19/2022	22:07	-132.197	48.996	0	1275.40	0	2.6610	0	34.4540	0	27.487	0	1260.718	0	16.6	4	5.1	4	-1E+10	1	-1E+10	1	-1E+10	1	-1E+10	1	-1E+10	1	-1E+10	1
4902551	70	C	07/19/2022	22:07	-132.197	48.996	0	1285.20	0	2.6460	0	34.4570	0	27.491	0	1270.375	0	16.8	4	5.1	4	-1E+10	1	-1E+10	1	-1E+10	1	-1E+10	1	-1E+10	1	-1E+10	1
4902551	70	C	07/19/2022	22:07	-132.197	48.996	0	1295.00	0	2.6310	0	34.4590	0	27.494	0	1280.033	0	17.1	4	5.2	4	-1E+10	1	-1E+10	1	-1E+10	1	-1E+10	1	-1E+10	1	-1E+10	1
4902551	70	C	07/19/2022	22:07	-132.197	48.996	0	1305.20	0	2.6190	0	34.4610	0	27.496	0	1290.084	0	17.3	4	5.3	4	-1E+10	1	-1E+10	1	-1E+10	1	-1E+10	1	-1E+10	1	-1E+10	1
4902551	70	C	07/19/2022	22:07	-132.197	48.996	0	1315.60	0	2.6100	0	34.4630	0	27.499	0	1300.331	0	17.6	4	5.4	4	-1E+10	1	-1E+10	1	-1E+10	1	-1E+10	1	-1E+10	1	-1E+10	1
4902551	70	C	07/19/2022	22:07	-132.197	48.996	0	1325.60	0	2.5970	0	34.4650	0	27.501	0	1310.184	0	17.9	4	5.5	4	-1E+10	1	-1E+10	1	-1E+10	1	-1E+10	1	-1E+10	1	-1E+10	1
4902551	70	C	07/19/2022	22:07	-132.197	48.996	0	1335.60	0	2.5870	0	34.4670	0	27.504	0	1320.036	0	18.4	4	5.6	4	-1E+10	1	-1E+10	1	-1E+10	1	-1E+10	1	-1E+10	1	-1E+10	1
4902551	70	C	07/19/2022	22:07	-132.197	48.996	0	1345.70	0	2.5770	0	34.4700	0	27.507	0	1329.987	0	19.0	4	5.8	4	-1E+10	1	-1E+10	1	-1E+10	1	-1E+10	1	-1E+10	1	-1E+10	1
4902551	70	C	07/19/2022	22:07	-132.197	48.996	0	1355.50	0	2.5670	0	34.4720	0	27.510	0	1339.641	0	19.5	4	5.9	4	-1E+10	1	-1E+10	1	-1E+10	1	-1E+10	1	-1E+10	1	-1E+10	1
4902551	70	C	07/19/2022	22:07	-132.197	48.996	0	1365.30	0	2.5530	0	34.4750	0	27.513	0	1349.295	0	19.9	4	6.1	4	-1E+10	1	-1E+10	1	-1E+10	1	-1E+10	1	-1E+10	1	-1E+10	1
4902551	70	C	07/19/2022	22:07	-132.197	48.996	0	1375.10	0	2.5410	0	34.4770	0	27.516	0	1358.949	0	20.2	4	6.2	4	-1E+10	1	-1E+10	1	-1E+10	1	-1E+10	1	-1E+10	1	-1E+10	1
4902551	70	C	07/19/2022	22:07	-132.197	48.996	0	1385.00	0	2.5290	0	34.4790	0	27.519	0	1368.700	0	20.7	4	6.3	4	-1E+10	1	-1E+10	1	-1E+10	1	-1E+10	1	-1E+10	1	-1E+10	1
4902551	70	C	07/19/2022	22:07	-132.197	48.996	0	1395.10	0	2.5100	0	34.4830	0	27.524	0	1378.649	0	21.3	4	6.5	4	-1E+10	1	-1E+10	1	-1E+10	1	-1E+10	1	-1E+10	1	-1E+10	1
4902551	70	C	07/19/2022	22:07	-132.197	48.996	0	1405.40	0	2.4810	0	34.4870	0	27.529	0	1388.793	0	21.5	4	6.6	4	-1E+10	1	-1E+10	1	-1E+10	1	-1E+10	1	-1E+10	1	-1E+10	1
4902551	70	C	07/19/2022	22:07	-132.197	48.996	0	1415.70	0	2.4490	0	34.4890	0	27.534	0	1398.937	0	22.1	4	6.7	4	-1E+10	1	-1E+10	1	-1E+10	1	-1E+10	1	-1E+10	1	-1E+10	1
4902551	70	C	07/19/2022	22:07	-132.197	48.996	0	1425.60	0	2.4370	0	34.4930	0	27.538	0	1408.687	0	22.9	4	7.0	4	-1E+10	1	-1E+10	1	-1E+10	1	-1E+10	1	-1E+10	1	-1E+10	1
4902551	70	C	07/19/2022	22:07	-132.197	48.996	0	1435.30	0	2.4300	0	34.4950	0	27.540	0	1418.240	0	23.1	4	7.0	4	-1E+10	1	-1E+10	1	-1E+10	1	-1E+10	1	-1E+10	1	-1E+10	1
4902551	70	C	07/19/2022	22:07	-132.197	48.996	0	1445.20	0	2.4190	0	34.4960	0	27.542	0	1427.988	0	23.4	4	7.1	4	-1E+10	1	-1E+10	1	-1E+10	1	-1E+10	1	-1E+10	1	-1E+10	1
4902551	70	C	07/19/2022	22:07	-132.197	48.996	0	1455.30	0	2.4070	0	34.4980	0	27.545	0	1437.934	0	23.8	4	7.2	4	-1E+10	1	-1E+10	1	-1E+10	1	-1E+10	1	-1E+10	1	-1E+10	1
4902551	70	C	07/19/2022	22:07	-132.197	48.996	0	1465.20	0	2.3980	0	34.4990	0	27.546	0	1447.682	0	24.0	4	7.3	4	-1E+10	1	-1E+10	1	-1E+10	1	-1E+10	1	-1E+10	1	-1E+10	1
4902551	70	C	07/19/2022	22:07	-132.197	48.996	0	1475.30	0	2.3780	0	34.5010	0	27.549	0	1457.626	0	24.6	4	7.5	4	-1E+10	1	-1E+10	1	-1E+10	1	-1E+10	1	-1E+10	1	-1E+10	1
4902551	70	C	07/19/2022	22:07	-132.197	48.996	0	1485.60	0	2.3630	0	34.5050	0	27.554	0	1467.767	0	25.1	4	7.6	4	-1E+10	1	-1E+10	1	-1E+10	1	-1E+10	1	-1E+10	1	-1E+10	1
4902551	70	C	07/19/2022	22:07	-132.197	48.996	0	1495.40	0	2.3490	0	34.5060	0	27.556	0	1477.415	0	25.1	4	7.6	4	-1E+10	1	-1E+10	1	-1E+10	1	-1E+10	1	-1E+10	1	-1E+10	1
4902551	70	C	07/19/2022	22:07	-132.197	48.996	0	1505.20	0	2.3430	0	34.5060	0	27.556	0	1487.063	0	25.6	4	7.8	4	-1E+10	1	-1E+10	1	-1E+10	1	-1E+10	1	-1E+10	1	-1E+10	1
4902551	70	C	07/19/2022	22:07	-132.197	48.996	0	1515.10	0	2.3270	0	34.5100	0	27.561	0	1496.808	0	26.3	4	8.0	4	-1E+10	1	-1E+10	1	-1E+10	1	-1E+10	1	-1E+10	1	-1E+10	1
4902551	70	C	07/19/2022	22:07	-132.197	48.996	0	1525.40	0	2.3170	0	34.5110	0	27.563	0	1506.947	0	26.6	4	8.1	4	-1E+10	1	-1E+10	1	-1E+10	1	-1E+10	1	-1E+10	1	-1E+10	1
4902551	70	C	07/19/2022	22:07	-132.197	48.996	0	1535.30	0	2.3100	0	34.5130	0	27.565	0	1516.692	0	27.1	4	8.2	4	-1E+10	1	-1E+10	1	-1E+10	1	-1E+10	1	-1E+10	1	-1E+10	1
4902551	70	C	07/19/2022	22:07	-132.197	48.996	0	1545.30	0	2.2980	0	34.5140	0	27.567	0	1526.535	0	27.6	4	8.4	4	-1E+10	1	-1E+10	1	-1E+10	1	-1E+10	1	-1E+10	1	-1E+10	1
4902551	70	C	07/19/2022	22:07	-132.197	48.996	0	1555.40	0	2.2900	0	34.5160	0	27.569	0	1536.476	0	28.2	4	8.6	4	-1E+10	1	-1E+10	1	-1E+10	1	-1E+10	1	-1E+10	1	-1E+10	1
4902551	70	C	07/19/2022	22:07	-132.197	48.996	0	1565.50	0	2.2830	0	34.5180	0	27.571	0	1546.416	0	29.0	4	8.8	4	-1E+10	1	-1E+10	1	-1E+10	1	-1E+10	1	-1E+10	1	-1E+10	1
4902551	70	C	07/19/2022	22:07	-132.197	48.996	0	1575.60	0	2.2760	0	34.5200	0	27.573	0	1556.356	0	29.8	4	9.0	4	-1E+10	1	-1E+10	1	-1E+10	1	-1E+10	1	-1E+10	1	-1E+10	1
4902551	70	C	07/19/2022	22:07	-132.197	48.996	0	1585.30	0	2.2640	0	34.5220	0	27.576	0	1565.901	0	30.4	4	9.2	4	-1E+10	1	-1E+10	1	-1E+10	1	-1E+10	1	-1E+10	1	-1E+10	1
4902551	70	C	07/19/2022	22:07	-132.197	48.996	0	1595.30	0	2.2510	0	34.5250	0	27.580	0	1575.742	0	31.2	4	9.5	4	-1E+10	1	-1E+10	1	-1E+10	1	-1E+10	1	-1E+10	1	-1E+10	1
4902551	70	C	07/19/2022	22:07	-132.197	48.996	0	1605.30	0	2.2370	0	34.5270	0	27.582	0	1585.582	0	31.9	4	9.7	4	-1E+10	1	-1E+10	1	-1E+10	1	-1E+10	1	-1E+10	1	-1E+10	1
4902551	70	C	07/19/2022	22:07	-132.197	48.996	0	1615.40	0	2.2200	0	34.5290	0	27.585	0	1595.520	0	32.8	4	9.9	4	-1E+10	1	-1E+10	1	-1E+10	1	-1E+10	1	-1E+10	1	-1E+10	1
4902551	70	C	07/19/2022	22:07	-132.197	48.996	0	1625.40	0	2.2020	0	34.5330	0	27.590	0	1605.359	0	33.7	4	10.2	4	-1E+10	1	-1E+10	1	-1E+10	1	-1E+10	1	-1E+10	1	-1E+10	1
4902551	70	C	07/19/2022	22:07	-132.197	48.996	0	1635.50	0	2.1930	0	34.5350	0	27.592	0	1615.296	0	34.4	4	10.4	4	-1E+10	1	-1E+10	1	-1E+10	1	-1E+10	1	-1E+10	1	-1E+10	1
4902551	70	C	07/19/2022	22:07	-132.197	48.996	0	1645.70	0	2.1820	0	34.5370	0	27.595	0	1625.330	0	35.2	4	10.7	4	-1E+10	1	-1E+10	1	-1E+10	1	-1E+10	1	-1E+10	1	-1E+10	1
4902551	70	C	07/19/2022	22:07	-132.197	48.996	0	1655.40	0	2.1720	0	34.5390	0	27.597	0	1634.873	0	36.0	4	10.9	4	-1E+10	1	-1E+10	1	-1E+10	1	-1E+10	1	-1E+10	1	-1E+10	1
4902551	70	C	07/19/2022	22:07	-132.197	48.996	0	1665.10	0	2.1590	0	34.5420	0	27.601	0	1644.415	0	37.0	4	11.2	4	-1E+10	1	-1E+10	1	-1E+10	1	-1E+10	1	-1E+10	1	-1E+10	1
4902551	70	C	07/19/2022	22:07	-132.197	48.996	0	1675.40	0	2.1480	0	34.5440	0	27.603	0	1654.547	0	37.8	4	11.4	4	-1E+10	1	-1E+10	1	-1E+10	1	-1E+10	1	-1E+10	1	-1E+10	1
4902551	70	C	07/19/2022	22:07	-132.197	48.996	0	1685.20	0	2.1430	0	34.5450	0	27.605	0	1664.186	0	38.3	4	11.6	4	-1E+10	1	-1E+10	1	-1E+10	1	-1E+10	1	-1E+10	1	-1E+10	1
4902551	70	C	07/19/2022	22:07	-132.197	48.996	0	1695.10	0	2.1360	0	34.5470	0	27.607	0	1673.924	0	39.1	4	11.8	4	-1E+10	1	-1E+10	1	-1E+10	1	-1E+10	1	-1E+10	1	-1E+10	1
4902551	70	C	07/19/2022	22:07	-132.197	48.996	0	1705.10	0	2.1260	0	34.5480	0	27.609	0	1683.759	0	39.7	4	12.0	4	-1E+10	1	-1E+10	1	-1E+10	1	-1E+10	1	-1E+10	1	-1E+10	1
4902551	70	C	07/19/2022	22:07	-132.197	48.996	0	1715.40	0	2.1200	0	34.5500	0	27.611	0	1693.889	0	40.2	4	12.1	4	-1E+10	1	-1E+10	1	-1E+10	1	-1E+10	1	-1E+10	1	-1E+10	1
4902551	70	C	07/19/2022	22:07	-132.197	48.996	0	1725.50	0	2.1150	0	34.5510	0	27.612	0	1703.822	0	40.6	4	12.3	4	-1E+10	1	-1E+10	1	-1E+10	1	-1E+10	1	-1E+10	1	-1E+10	1
4902551	70	C	07/19/2022	22:07	-132.197	48.996	0	1735.10	0	2.1090	0	34.5520	0	27.613	0	1713.263	0	41.2	4	12.5	4	-1E+10	1	-1E+10	1	-1E+10	1	-1E+10	1	-1E+10	1	-1E+10	1
4902551	70	C	07/19/2022	22:07	-132.197	48.996	0	1745.40	0	2.1000	0	34.5540	0	27.616	0	1723.391	0	42.0	4	12.7	4	-1E+10	1	-1E+10	1	-1E+10	1	-1E+10	1	-1E+10	1	-1E+10	1
4902551	70	C	07/19/2022	22:07	-132.197	48.996	0	1755.80	0	2.0890	0	34.5550	0	27.617	0	1733.618	0	42.7	4	12.9	4	-1E+10	1	-1E+10	1	-1E+10	1	-1E+10	1	-1E+10	1	-1E+10	1
4902551	70	C	07/19/2022	22:07	-132.197	48.996	0	1765.50	0	2.0820	0	34.5570	0	27.620	0	1743.156	0	43.3	4	13.1	4	-1E+10	1	-1E+10	1	-1E+10	1	-1E+10	1	-1E+10	1	-1E+10	1
4902551	70	C	07/19/2022	22:07	-132.197	48.996	0	1775.20	0	2.0710	0	34.5590	0	27.622	0	1752.693	0	44.2	4	13.3	4	-1E+10	1	-1E+10	1	-1E+10	1	-1E+10	1	-1E+10	1	-1E+10	1
4902551	70	C	07/19/2022	22:07	-132.197	48.996	0	1785.60	0	2.0600	0	34.5610	0	27.625	0	1762.918	0	44.9	4	13.6	4	-1E+10	1	-1E+10	1	-1E+10	1	-1E+10	1	-1E+10	1	-1E+10	1
4902551	70	C	07/19/2022	22:07	-132.197	48.996	0	1795.60	0	2.0540	0	34.5620	0	27.626	0	1772.749	0	45.5	4	13.7	4	-1E+10	1	-1E+10	1	-1E+10	1	-1E+10	1	-1E+10	1	-1E+10	1
4902551	70	C	07/19/2022	22:07	-132.197	48.996	0	1805.30	0	2.0460	0	34.5630	0	27.627	0	1782.285	0	46.1	4	13.9	4	-1E+10	1	-1E+10	1	-1E+10	1	-1E+10	1	-1E+10	1	-1E+10	1
4902551	70	C	07/19/2022	22:07	-132.197	48.996	0	1815.40	0	2.0400	0	34.5650	0	27.630	0	1792.214	0	46.8	4	14.1	4	-1E+10	1	-1E+10	1	-1E+10	1	-1E+10	1	-1E+10	1	-1E+10	1
4902551	70	C	07/19/2022	22:07	-132.197	48.996	0	1825.40	0	2.0290	0	34.5670	0	27.632	0	1802.043	0	47.7	4	14.4	4	-1E+10	1	-1E+10	1	-1E+10	1	-1E+10	1	-1E+10	1	-1E+10	1
4902551	70	C	07/19/2022	22:07	-132.197	48.996	0	1835.10	0	2.0190	0	34.5680	0	27.634	0	1811.578	0	48.6	4	14.7	4	-1E+10	1	-1E+10	1	-1E+10	1	-1E+10	1	-1E+10	1	-1E+10	1
4902551	70	C	07/19/2022	22:07	-132.197	48.996	0	1845.00	0	2.0090	0	34.5700	0	27.636	0	1821.309	0	49.6	4	15.0	4	-1E+10	1	-1E+10	1	-1E+10	1	-1E+10	1	-1E+10	1	-1E+10	1
4902551	70	C	07/19/2022	22:07	-132.197	48.996	0	1855.00	0	1.9970	0	34.5730	0	27.640	0	1831.137	0	50.7	4	15.3	4	-1E+10	1	-1E+10	1	-1E+10	1	-1E+10	1	-1E+10	1	-1E+10	1
4902551	70	C	07/19/2022	22:07	-132.197	48.996	0	1865.00	0	1.9840	0	34.5750	0	27.642	0	1840.965	0	51.7	4	15.6	4	-1E+10	1	-1E+10	1	-1E+10	1	-1E+10	1	-1E+10	1	-1E+10	1
4902551	70	C	07/19/2022	22:07	-132.197	48.996	0	1875.00	0	1.9740	0	34.5770	0	27.645	0	1850.793	0	52.4	4	15.8	4	-1E+10	1	-1E+10	1	-1E+10	1	-1E+10	1	-1E+10	1	-1E+10	1
4902551	70	C	07/19/2022	22:07	-132.197	48.996	0	1884.90	0	1.9660	0	34.5780	0	27.646	0	1860.522	0	53.2	4	16.0	4	-1E+10	1	-1E+10	1	-1E+10	1	-1E+10	1	-1E+10	1	-1E+10	1
4902551	70	C	07/19/2022	22:07	-132.197	48.996	0	1895.00	0	1.9570	0	34.5800	0	27.648	0	1870.447	0	53.8	4	16.2	4	-1E+10	1	-1E+10	1	-1E+10	1	-1E+10	1	-1E+10	1	-1E+10	1
4902551	70	C	07/19/2022	22:07	-132.197	48.996	0	1905.20	0	1.9520	0	34.5810	0	27.650	0	1880.470	0	54.3	4	16.3	4	-1E+10	1	-1E+10	1	-1E+10	1	-1E+10	1	-1E+10	1	-1E+10	1
4902551	70	C	07/19/2022	22:07	-132.197	48.996	0	1915.40	0	1.9450	0	34.5820	0	27.651	0	1890.492	0	54.7	4	16.5	4	-1E+10	1	-1E+10	1	-1E+10	1	-1E+10	1	-1E+10	1	-1E+10	1
4902551	70	C	07/19/2022	22:07	-132.197	48.996	0	1925.30	0	1.9420	0	34.5830	0	27.652	0	1900.219	0	55.1	4	16.6	4	-1E+10	1	-1E+10	1	-1E+10	1	-1E+10	1	-1E+10	1	-1E+10	1
4902551	70	C	07/19/2022	22:07	-132.197	48.996	0	1935.40	0	1.9380	0	34.5830	0	27.653	0	1910.142	0	55.5	4	16.7	4	-1E+10	1	-1E+10	1	-1E+10	1	-1E+10	1	-1E+10	1	-1E+10	1
4902551	70	C	07/19/2022	22:07	-132.197	48.996	0	1945.70	0	1.9340	0	34.5840	0	27.654	0	1920.261	0	55.8	4	16.8	4	-1E+10	1	-1E+10	1	-1E+10	1	-1E+10	1	-1E+10	1	-1E+10	1
4902551	70	C	07/19/2022	22:07	-132.197	48.996	0	1955.50	0	1.9310	0	34.5850	0	27.655	0	1929.889	0	56.2	4	16.9	4	-1E+10	1	-1E+10	1	-1E+10	1	-1E+10	1	-1E+10	1	-1E+10	1
4902551	70	C	07/19/2022	22:07	-132.197	48.996	0	1965.30	0	1.9260	0	34.5860	0	27.656	0	1939.516	0	56.4	4	17.0	4	-1E+10	1	-1E+10	1	-1E+10	1	-1E+10	1	-1E+10	1	-1E+10	1
4902551	70	C	07/19/2022	22:07	-132.197	48.996	0	1975.20	0	1.9260	0	34.5860	0	27.656	0	1949.241	0	56.5	4	17.0	4	-1E+10	1	-1E+10	1	-1E+10	1	-1E+10	1	-1E+10	1	-1E+10	1
4902551	70	C	07/19/2022	22:07	-132.197	48.996	0	1986.70	0	1.9210	0	34.5870	0	27.657	0	1960.537	0	56.7	4	17.1	4	-1E+10	1	-1E+10	1	-1E+10	1	-1E+10	1	-1E+10	1	-1E+10	1
4902551	70	C	07/19/2022	22:07	-132.197	48.996	0																										
4902551	71	C	07/30/2022	02:57	-132.227	48.964	0	0.10	0	15.5190	0	32.2290	0	23.725	0	0.099	0	246.2	4	98.5	4	-1E+10	1	-1E+10	1	-1E+10	1	-1E+10	1	-1E+10	1	-1E+10	1
4902551	71	C	07/30/2022	02:57	-132.227	48.964	0	1.10	0	15.5200	0	32.2250	0	23.721	0	1.091	0	246.2	4	98.5	4	-1E+10	1	-1E+10	1	-1E+10	1	-1E+10	1	-1E+10	1	-1E+10	1
4902551	71	C	07/30/2022	02:57	-132.227	48.964	0	2.10	0	15.5220	0	32.2230	0	23.719	0	2.082	0	246.2	4	98.5	4	-1E+10	1	-1E+10	1	-1E+10	1	-1E+10	1	-1E+10	1	-1E+10	1
4902551	71	C	07/30/2022	02:57	-132.227	48.964	0	3.10	0	15.5190	0	32.2270	0	23.723	0	3.074	0	246.3	4	98.5	4	-1E+10	1	-1E+10	1	-1E+10	1	-1E+10	1	-1E+10	1	-1E+10	1
4902551	71	C	07/30/2022	02:57	-132.227	48.964	0	4.10	0	15.5160	0	32.2310	0	23.727	0	4.065	0	246.3	4	98.5	4	-1E+10	1	-1E+10	1	-1E+10	1	-1E+10	1	-1E+10	1	-1E+10	1
4902551	71	C	07/30/2022	02:57	-132.227	48.964	0	5.10	0	15.5120	0	32.2340	0	23.730	0	5.057	0	246.3	4	98.5	4	-1E+10	1	-1E+10	1	-1E+10	1	-1E+10	1	-1E+10	1	-1E+10	1
4902551	71	C	07/30/2022	02:57	-132.227	48.964	0	6.10	0	15.5170	0	32.2320	0	23.728	0	6.048	0	246.4	4	98.6	4	-1E+10	1	-1E+10	1	-1E+10	1	-1E+10	1	-1E+10	1	-1E+10	1
4902551	71	C	07/30/2022	02:57	-132.227	48.964	0	7.00	0	15.5160	0	32.2330	0	23.729	0	6.941	0	246.4	4	98.6	4	-1E+10	1	-1E+10	1	-1E+10	1	-1E+10	1	-1E+10	1	-1E+10	1
4902551	71	C	07/30/2022	02:57	-132.227	48.964	0	7.80	0	15.5080	0	32.2350	0	23.732	0	7.734	0	246.6	4	98.6	4	-1E+10	1	-1E+10	1	-1E+10	1	-1E+10	1	-1E+10	1	-1E+10	1
4902551	71	C	07/30/2022	02:57	-132.227	48.964	0	8.90	0	15.5000	0	32.2340	0	23.733	0	8.824	0	246.7	4	98.7	4	-1E+10	1	-1E+10	1	-1E+10	1	-1E+10	1	-1E+10	1	-1E+10	1
4902551	71	C	07/30/2022	02:57	-132.227	48.964	0	10.10	0	15.4950	0	32.2330	0	23.733	0	10.014	0	246.9	4	98.7	4	-1E+10	1	-1E+10	1	-1E+10	1	-1E+10	1	-1E+10	1	-1E+10	1
4902551	71	C	07/30/2022	02:57	-132.227	48.964	0	11.00	0	15.4960	0	32.2330	0	23.733	0	10.906	0	247.1	4	98.8	4	-1E+10	1	-1E+10	1	-1E+10	1	-1E+10	1	-1E+10	1	-1E+10	1
4902551	71	C	07/30/2022	02:57	-132.227	48.964	0	11.90	0	15.4960	0	32.2330	0	23.733	0	11.799	0	247.3	4	98.9	4	-1E+10	1	-1E+10	1	-1E+10	1	-1E+10	1	-1E+10	1	-1E+10	1
4902551	71	C	07/30/2022	02:57	-132.227	48.964	0	12.90	0	15.4740	0	32.2350	0	23.740	0	12.790	0	247.6	4	98.9	4	-1E+10	1	-1E+10	1	-1E+10	1	-1E+10	1	-1E+10	1	-1E+10	1
4902551	71	C	07/30/2022	02:57	-132.227	48.964	0	13.80	0	15.4730	0	32.2340	0	23.739	0	13.683	0	247.8	4	99.0	4	-1E+10	1	-1E+10	1	-1E+10	1	-1E+10	1	-1E+10	1	-1E+10	1
4902551	71	C	07/30/2022	02:57	-132.227	48.964	0	15.10	0	15.4650	0	32.2320	0	23.739	0	14.971	0	248.3	4	99.2	4	-1E+10	1	-1E+10	1	-1E+10	1	-1E+10	1	-1E+10	1	-1E+10	1
4902551	71	C	07/30/2022	02:57	-132.227	48.964	0	16.10	0	15.4360	0	32.2290	0	23.743	0	15.963	0	248.9	4	99.4	4	-1E+10	1	-1E+10	1	-1E+10	1	-1E+10	1	-1E+10	1	-1E+10	1
4902551	71	C	07/30/2022	02:57	-132.227	48.964	0	16.80	0	15.4170	0	32.2460	0	23.761	0	16.657	0	249.1	4	99.5	4	-1E+10	1	-1E+10	1	-1E+10	1	-1E+10	1	-1E+10	1	-1E+10	1
4902551	71	C	07/30/2022	02:57	-132.227	48.964	0	17.80	0	15.3010	0	32.2680	0	23.803	0	17.648	0	249.8	4	99.5	4	-1E+10	1	-1E+10	1	-1E+10	1	-1E+10	1	-1E+10	1	-1E+10	1
4902551	71	C	07/30/2022	02:57	-132.227	48.964	0	18.80	0	15.0630	0	32.2430	0	23.835	0	18.640	0	251.1	4	99.5	4	-1E+10	1	-1E+10	1	-1E+10	1	-1E+10	1	-1E+10	1	-1E+10	1
4902551	71	C	07/30/2022	02:57	-132.227	48.964	0	19.90	0	15.0150	0	32.2410	0	23.844	0	19.730	0	251.6	4	99.6	4	-1E+10	1	-1E+10	1	-1E+10	1	-1E+10	1	-1E+10	1	-1E+10	1
4902551	71	C	07/30/2022	02:57	-132.227	48.964	0	20.90	0	14.9880	0	32.2360	0	23.846	0	20.722	0	252.1	4	99.8	4	-1E+10	1	-1E+10	1	-1E+10	1	-1E+10	1	-1E+10	1	-1E+10	1
4902551	71	C	07/30/2022	02:57	-132.227	48.964	0	21.80	0	14.9500	0	32.2380	0	23.856	0	21.614	0	252.7	4	100.0	4	-1E+10	1	-1E+10	1	-1E+10	1	-1E+10	1	-1E+10	1	-1E+10	1
4902551	71	C	07/30/2022	02:57	-132.227	48.964	0	23.00	0	14.9080	0	32.2340	0	23.862	0	22.804	0	253.6	4	100.2	4	-1E+10	1	-1E+10	1	-1E+10	1	-1E+10	1	-1E+10	1	-1E+10	1
4902551	71	C	07/30/2022	02:57	-132.227	48.964	0	24.30	0	14.8270	0	32.2320	0	23.877	0	24.093	0	255.1	4	100.6	4	-1E+10	1	-1E+10	1	-1E+10	1	-1E+10	1	-1E+10	1	-1E+10	1
4902551	71	C	07/30/2022	02:57	-132.227	48.964	0	25.10	0	14.7610	0	32.2350	0	23.894	0	24.886	0	257.0	4	101.3	4	-1E+10	1	-1E+10	1	-1E+10	1	-1E+10	1	-1E+10	1	-1E+10	1
4902551	71	C	07/30/2022	02:57	-132.227	48.964	0	26.10	0	14.6730	0	32.2340	0	23.912	0	25.877	0	259.2	4	102.0	4	-1E+10	1	-1E+10	1	-1E+10	1	-1E+10	1	-1E+10	1	-1E+10	1
4902551	71	C	07/30/2022	02:57	-132.227	48.964	0	27.00	0	14.4720	0	32.2440	0	23.962	0	26.769	0	262.6	4	102.9	4	-1E+10	1	-1E+10	1	-1E+10	1	-1E+10	1	-1E+10	1	-1E+10	1
4902551	71	C	07/30/2022	02:57	-132.227	48.964	0	27.90	0	14.1000	0	32.2580	0	24.050	0	27.662	0	265.6	4	103.3	4	-1E+10	1	-1E+10	1	-1E+10	1	-1E+10	1	-1E+10	1	-1E+10	1
4902551	71	C	07/30/2022	02:57	-132.227	48.964	0	28.80	0	13.8160	0	32.2440	0	24.097	0	28.554	0	268.0	4	103.6	4	-1E+10	1	-1E+10	1	-1E+10	1	-1E+10	1	-1E+10	1	-1E+10	1
4902551	71	C	07/30/2022	02:57	-132.227	48.964	0	29.90	0	13.4680	0	32.2660	0	24.184	0	29.644	0	270.4	4	103.8	4	-1E+10	1	-1E+10	1	-1E+10	1	-1E+10	1	-1E+10	1	-1E+10	1
4902551	71	C	07/30/2022	02:57	-132.227	48.964	0	31.00	0	12.9280	0	32.2860	0	24.307	0	30.735	0	272.6	4	103.6	4	-1E+10	1	-1E+10	1	-1E+10	1	-1E+10	1	-1E+10	1	-1E+10	1
4902551	71	C	07/30/2022	02:57	-132.227	48.964	0	32.00	0	12.7690	0	32.2380	0	24.300	0	31.726	0	273.7	4	103.6	4	-1E+10	1	-1E+10	1	-1E+10	1	-1E+10	1	-1E+10	1	-1E+10	1
4902551	71	C	07/30/2022	02:57	-132.227	48.964	0	33.00	0	12.7320	0	32.2400	0	24.309	0	32.718	0	274.2	4	103.7	4	-1E+10	1	-1E+10	1	-1E+10	1	-1E+10	1	-1E+10	1	-1E+10	1
4902551	71	C	07/30/2022	02:57	-132.227	48.964	0	34.00	0	12.6500	0	32.2380	0	24.323	0	33.709	0	274.9	4	103.8	4	-1E+10	1	-1E+10	1	-1E+10	1	-1E+10	1	-1E+10	1	-1E+10	1
4902551	71	C	07/30/2022	02:57	-132.227	48.964	0	35.00	0	12.5790	0	32.2440	0	24.342	0	34.700	0	275.6	4	103.9	4	-1E+10	1	-1E+10	1	-1E+10	1	-1E+10	1	-1E+10	1	-1E+10	1
4902551	71	C	07/30/2022	02:57	-132.227	48.964	0	36.10	0	12.3650	0	32.2590	0	24.394	0	35.791	0	276.6	4	103.8	4	-1E+10	1	-1E+10	1	-1E+10	1	-1E+10	1	-1E+10	1	-1E+10	1
4902551	71	C	07/30/2022	02:57	-132.227	48.964	0	37.10	0	12.1090	0	32.2370	0	24.425	0	36.782	0	278.6	4	104.0	4	-1E+10	1	-1E+10	1	-1E+10	1	-1E+10	1	-1E+10	1	-1E+10	1
4902551	71	C	07/30/2022	02:57	-132.227	48.964	0	37.90	0	11.8230	0	32.3010	0	24.528	0	37.575	0	279.0	4	103.6	4	-1E+10	1	-1E+10	1	-1E+10	1	-1E+10	1	-1E+10	1	-1E+10	1
4902551	71	C	07/30/2022	02:57	-132.227	48.964	0	39.00	0	11.2070	0	32.2810	0	24.624	0	38.666	0	281.1	4	103.0	4	-1E+10	1	-1E+10	1	-1E+10	1	-1E+10	1	-1E+10	1	-1E+10	1
4902551	71	C	07/30/2022	02:57	-132.227	48.964	0	40.20	0	11.0080	0	32.2670	0	24.648	0	39.855	0	281.1	4	102.6	4	-1E+10	1	-1E+10	1	-1E+10	1	-1E+10	1	-1E+10	1	-1E+10	1
4902551	71	C	07/30/2022	02:57	-132.227	48.964	0	41.00	0	10.9580	0	32.2580	0	24.650	0	40.648	0	281.2	4	102.5	4	-1E+10	1	-1E+10	1	-1E+10	1	-1E+10	1	-1E+10	1	-1E+10	1
4902551	71	C	07/30/2022	02:57	-132.227	48.964	0	42.10	0	10.8610	0	32.2570	0	24.666	0	41.739	0	281.1	4	102.2	4	-1E+10	1	-1E+10	1	-1E+10	1	-1E+10	1	-1E+10	1	-1E+10	1
4902551	71	C	07/30/2022	02:57	-132.227	48.964	0	42.80	0	10.7930	0	32.2710	0	24.689	0	42.433	0	280.7	4	102.0	4	-1E+10	1	-1E+10	1	-1E+10	1	-1E+10	1	-1E+10	1	-1E+10	1
4902551	71	C	07/30/2022	02:57	-132.227	48.964	0	43.90	0	10.5960	0	32.2810	0	24.730	0	43.523	0	280.5	4	101.5	4	-1E+10	1	-1E+10	1	-1E+10	1	-1E+10	1	-1E+10	1	-1E+10	1
4902551	71	C	07/30/2022	02:57	-132.227	48.964	0	45.00	0	10.4690	0	32.2730	0	24.746	0	44.614	0	280.1	4	101.0	4	-1E+10	1	-1E+10	1	-1E+10	1	-1E+10	1	-1E+10	1	-1E+10	1
4902551	71	C	07/30/2022	02:57	-132.227	48.964	0	46.00	0	10.4200	0	32.2690	0	24.751	0	45.605	0	279.3	4	100.7	4	-1E+10	1	-1E+10	1	-1E+10	1	-1E+10	1	-1E+10	1	-1E+10	1
4902551	71	C	07/30/2022	02:57	-132.227	48.964	0	46.90	0	10.3430	0	32.2680	0	24.763	0	46.497	0	278.5	4	100.2	4	-1E+10	1	-1E+10	1	-1E+10	1	-1E+10	1	-1E+10	1	-1E+10	1
4902551	71	C	07/30/2022	02:57	-132.227	48.964	0	48.10	0	10.0480	0	32.2950	0	24.834	0	47.687	0	278.0	4	99.4	4	-1E+10	1	-1E+10	1	-1E+10	1	-1E+10	1	-1E+10	1	-1E+10	1
4902551	71	C	07/30/2022	02:57	-132.227	48.964	0	49.00	0	9.8810	0	32.2980	0	24.864	0	48.579	0	278.0	4	99.0	4	-1E+10	1	-1E+10	1	-1E+10	1	-1E+10	1	-1E+10	1	-1E+10	1
4902551	71	C	07/30/2022	02:57	-132.227	48.964	0	50.10	0	9.7690	0	32.2850	0	24.872	0	49.669	0	277.8	4	98.7	4	-1E+10	1	-1E+10	1	-1E+10	1	-1E+10	1	-1E+10	1	-1E+10	1
4902551	71	C	07/30/2022	02:57	-132.227	48.964	0	51.10	0	9.7210	0	32.2890	0	24.883	0	50.660	0	277.5	4	98.5	4	-1E+10	1	-1E+10	1	-1E+10	1	-1E+10	1	-1E+10	1	-1E+10	1
4902551	71	C	07/30/2022	02:57	-132.227	48.964	0	52.00	0	9.6100	0	32.3150	0	24.921	0	51.553	0	277.3	4	98.2	4	-1E+10	1	-1E+10	1	-1E+10	1	-1E+10	1	-1E+10	1	-1E+10	1
4902551	71	C	07/30/2022	02:57	-132.227	48.964	0	52.70	0	9.5400	0	32.2960	0	24.917	0	52.246	0	277.4	4	98.1	4	-1E+10	1	-1E+10	1	-1E+10	1	-1E+10	1	-1E+10	1	-1E+10	1
4902551	71	C	07/30/2022	02:57	-132.227	48.964	0	53.80	0	9.4840	0	32.2900	0	24.922	0	53.337	0	277.3	4	97.9	4	-1E+10	1	-1E+10	1	-1E+10	1	-1E+10	1	-1E+10	1	-1E+10	1
4902551	71	C	07/30/2022	02:57	-132.227	48.964	0	54.90	0	9.4490	0	32.2950	0	24.931	0	54.427	0	277.0	4	97.7	4	-1E+10	1	-1E+10	1	-1E+10	1	-1E+10	1	-1E+10	1	-1E+10	1
4902551	71	C	07/30/2022	02:57	-132.227	48.964	0	56.00	0	9.3790	0	32.2930	0	24.941	0	55.518	0	276.9	4	97.6	4	-1E+10	1	-1E+10	1	-1E+10	1	-1E+10	1	-1E+10	1	-1E+10	1
4902551	71	C	07/30/2022	02:57	-132.227	48.964	0	57.10	0	9.3470	0	32.2940	0	24.947	0	56.608	0	276.7	4	97.4	4	-1E+10	1	-1E+10	1	-1E+10	1	-1E+10	1	-1E+10	1	-1E+10	1
4902551	71	C	07/30/2022	02:57	-132.227	48.964	0	58.10	0	9.3220	0	32.2970	0	24.953	0	57.599	0	276.4	4	97.3	4	-1E+10	1	-1E+10	1	-1E+10	1	-1E+10	1	-1E+10	1	-1E+10	1
4902551	71	C	07/30/2022	02:57	-132.227	48.964	0	58.90	0	9.2870	0	32.2980	0	24.959	0	58.392	0	276.3	4	97.2	4	-1E+10	1	-1E+10	1	-1E+10	1	-1E+10	1	-1E+10	1	-1E+10	1
4902551	71	C	07/30/2022	02:57	-132.227	48.964	0	59.80	0	9.1720	0	32.3150	0	24.991	0	59.284	0	276.3	4	96.9	4	-1E+10	1	-1E+10	1	-1E+10	1	-1E+10	1	-1E+10	1	-1E+10	1
4902551	71	C	07/30/2022	02:57	-132.227	48.964	0	60.90	0	9.1210	0	32.2990	0	24.986	0	60.375	0	276.1	4	96.7	4	-1E+10	1	-1E+10	1	-1E+10	1	-1E+10	1	-1E+10	1	-1E+10	1
4902551	71	C	07/30/2022	02:57	-132.227	48.964	0	62.00	0	9.0340	0	32.2970	0	24.998	0	61.465	0	275.8	4	96.4	4	-1E+10	1	-1E+10	1	-1E+10	1	-1E+10	1	-1E+10	1	-1E+10	1
4902551	71	C	07/30/2022	02:57	-132.227	48.964	0	63.00	0	8.9970	0	32.2970	0	25.004	0	62.456	0	275.3	4	96.2	4	-1E+10	1	-1E+10	1	-1E+10	1	-1E+10	1	-1E+10	1	-1E+10	1
4902551	71	C	07/30/2022	02:57	-132.227	48.964	0	64.20	0	8.9050	0	32.3010	0	25.021	0	63.646	0	274.8	4	95.8	4	-1E+10	1	-1E+10	1	-1E+10	1	-1E+10	1	-1E+10	1	-1E+10	1
4902551	71	C	07/30/2022	02:57	-132.227	48.964	0	64.90	0	8.8400	0	32.3140	0	25.041	0	64.340	0	274.7	4	95.7	4	-1E+10	1	-1E+10	1	-1E+10	1	-1E+10	1	-1E+10	1	-1E+10	1
4902551	71	C	07/30/2022	02:57	-132.227	48.964	0	66.10	0	8.7480	0	32.3060	0	25.049	0	65.529	0	274.3	4	95.3	4	-1E+10	1	-1E+10	1	-1E+10	1	-1E+10	1	-1E+10	1	-1E+10	1
4902551	71	C	07/30/2022	02:57	-132.227	48.964	0	66.80	0	8.6830	0	32.3080	0	25.061	0	66.223	0	273.9	4	95.1	4	-1E+10	1	-1E+10	1	-1E+10	1	-1E+10	1	-1E+10	1	-1E+10	1
4902551	71	C	07/30/2022	02:57	-132.227	48.964	0	67.70	0	8.6540	0	32.3000	0	25.059	0	67.115	0	273.4	4	94.8	4	-1E+10	1	-1E+10	1	-1E+10	1	-1E+10	1	-1E+10	1	-1E+10	1
4902551	71	C	07/30/2022	02:57	-132.227	48.964	0	69.10	0	8.5360	0	32.3230	0	25.095	0	68.503	0	272.5	4	94.3	4	-1E+10	1	-1E+10	1	-1E+10	1	-1E+10	1	-1E+10	1	-1E+10	1
4902551	71	C	07/30/2022	02:57	-132.227	48.964	0	70.00	0	8.3740	0	32.3090	0	25.108	0	69.395	0	272.6	4	94.0	4	-1E+10	1	-1E+10	1	-1E+10	1	-1E+10	1	-1E+10	1	-1E+10	1
4902551	71	C	07/30/2022	02:57	-132.227	48.964	0	71.10	0	8.3230	0	32.3160	0	25.121	0	70.485	0	272.1	4	93.7	4	-1E+10	1	-1E+10	1	-1E+10	1	-1E+10	1	-1E+10	1	-1E+10	1
4902551	71	C	07/30/2022	02:57	-132.227	48.964	0	72.10	0	8.2000	0	32.3170	0	25.140	0	71.476	0	271.6	4	93.2	4	-1E+10	1	-1E+10	1	-1E+10	1	-1E+10	1	-1E+10	1	-1E+10	1
4902551	71	C	07/30/2022	02:57	-132.227	48.964	0	73.10	0	8.0900	0	32.3150	0	25.154	0	72.467	0	270.7	4	92.7	4	-1E+10	1	-1E+10	1	-1E+10	1	-1E+10	1	-1E+10	1	-1E+10	1
4902551	71	C	07/30/2022	02:57	-132.227	48.964	0	74.10	0	8.0160	0	32.3190	0	25.168	0	73.459	0	270.2	4	92.4	4	-1E+10	1	-1E+10	1	-1E+10	1	-1E+10	1	-1E+10	1	-1E+10	1
4902551	71	C	07/30/2022	02:57	-132.227	48.964	0	75.00	0	7.9780	0	32.3200	0	25.174	0	74.351	0	269.6	4	92.1	4	-1E+10	1	-1E+10	1	-1E+10	1	-1E+10	1	-1E+10	1	-1E+10	1
4902551	71	C	07/30/2022	02:57	-132.227	48.964	0	76.00	0	7.9570	0	32.3210	0	25.178	0	75.342	0	269.0	4	91.8	4	-1E+10	1	-1E+10	1	-1E+10	1	-1E+10	1	-1E+10	1	-1E+10	1
4902551	71	C	07/30/2022	02:57	-132.227	48.964	0	77.20	0	7.9300	0	32.3240	0	25.184	0	76.531	0	268.3	4	91.6	4	-1E+10	1	-1E+10	1	-1E+10	1	-1E+10	1	-1E+10	1	-1E+10	1
4902551	71	C	07/30/2022	02:57	-132.227	48.964	0	78.00	0	7.9110	0	32.3250	0	25.188	0	77.324	0	267.8	4	91.4	4	-1E+10	1	-1E+10	1	-1E+10	1	-1E+10	1	-1E+10	1	-1E+10	1
4902551	71	C	07/30/2022	02:57	-132.227	48.964	0	79.00	0	7.8600	0	32.3320	0	25.200	0	78.315	0	267.3	4	91.1	4	-1E+10	1	-1E+10	1	-1E+10	1	-1E+10	1	-1E+10	1	-1E+10	1
4902551	71	C	07/30/2022	02:57	-132.227	48.964	0	79.90	0	7.8250	0	32.3300	0	25.204	0	79.207	0	266.8	4	90.8	4	-1E+10	1	-1E+10	1	-1E+10	1	-1E+10	1	-1E+10	1	-1E+10	1
4902551	71	C	07/30/2022	02:57	-132.227	48.964	0	80.90	0	7.8070	0	32.3480	0	25.221	0	80.198	0	266.3	4	90.7	4	-1E+10	1	-1E+10	1	-1E+10	1	-1E+10	1	-1E+10	1	-1E+10	1
4902551	71	C	07/30/2022	02:57	-132.227	48.964	0	82.00	0	7.7460	0	32.3560	0	25.236	0	81.289	0	272.9	4	92.8	4	-1E+10	1	-1E+10	1	-1E+10	1	-1E+10	1	-1E+10	1	-1E+10	1
4902551	71	C	07/30/2022	02:57	-132.227	48.964	0	83.00	0	7.7070	0	32.3600	0	25.244	0	82.280	0	272.7	4	92.6	4	-1E+10	1	-1E+10	1	-1E+10	1	-1E+10	1	-1E+10	1	-1E+10	1
4902551	71	C	07/30/2022	02:57	-132.227	48.964	0	84.20	0	7.6800	0	32.3560	0	25.245	0	83.469	0	272.3	4	92.4	4	-1E+10	1	-1E+10	1	-1E+10	1	-1E+10	1	-1E+10	1	-1E+10	1
4902551	71	C	07/30/2022	02:57	-132.227	48.964	0	84.90	0	7.6650	0	32.3620	0	25.252	0	84.163	0	271.9	4	92.3	4	-1E+10	1	-1E+10	1	-1E+10	1	-1E+10	1	-1E+10	1	-1E+10	1
4902551	71	C	07/30/2022	02:57	-132.227	48.964	0	86.10	0	7.6320	0	32.3590	0	25.254	0	85.352	0	271.2	4	92.0	4	-1E+10	1	-1E+10	1	-1E+10	1	-1E+10	1	-1E+10	1	-1E+10	1
4902551	71	C	07/30/2022	02:57	-132.227	48.964	0	86.80	0	7.6090	0	32.3650	0	25.262	0	86.046	0	270.7	4	91.7	4	-1E+10	1	-1E+10	1	-1E+10	1	-1E+10	1	-1E+10	1	-1E+10	1
4902551	71	C	07/30/2022	02:57	-132.227	48.964	0	87.90	0	7.5410	0	32.3670	0	25.273	0	87.136	0	269.7	4	91.3	4	-1E+10	1	-1E+10	1	-1E+10	1	-1E+10	1	-1E+10	1	-1E+10	1
4902551	71	C	07/30/2022	02:57	-132.227	48.964	0	89.30	0	7.5100	0	32.3710	0	25.280	0	88.524	0	268.4	4	90.8	4	-1E+10	1	-1E+10	1	-1E+10	1	-1E+10	1	-1E+10	1	-1E+10	1
4902551	71	C	07/30/2022	02:57	-132.227	48.964	0	90.20	0	7.4900	0	32.3770	0	25.288	0	89.416	0	267.4	4	90.4	4	-1E+10	1	-1E+10	1	-1E+10	1	-1E+10	1	-1E+10	1	-1E+10	1
4902551	71	C	07/30/2022	02:57	-132.227	48.964	0	91.00	0	7.4380	0	32.3910	0	25.306	0	90.209	0	266.5	4	90.0	4	-1E+10	1	-1E+10	1	-1E+10	1	-1E+10	1	-1E+10	1	-1E+10	1
4902551	71	C	07/30/2022	02:57	-132.227	48.964	0	92.20	0	7.3880	0	32.4060	0	25.325	0	91.398	0	265.1	4	89.4	4	-1E+10	1	-1E+10	1	-1E+10	1	-1E+10	1	-1E+10	1	-1E+10	1
4902551	71	C	07/30/2022	02:57	-132.227	48.964	0	93.00	0	7.3830	0	32.4100	0	25.329	0	92.191	0	263.8	4	89.0	4	-1E+10	1	-1E+10	1	-1E+10	1	-1E+10	1	-1E+10	1	-1E+10	1
4902551	71	C	07/30/2022	02:57	-132.227	48.964	0	94.10	0	7.3770	0	32.4160	0	25.334	0	93.281	0	262.0	4	88.4	4	-1E+10	1	-1E+10	1	-1E+10	1	-1E+10	1	-1E+10	1	-1E+10	1
4902551	71	C	07/30/2022	02:57	-132.227	48.964	0	94.90	0	7.3810	0	32.4310	0	25.345	0	94.074	0	260.7	4	88.0	4	-1E+10	1	-1E+10	1	-1E+10	1	-1E+10	1	-1E+10	1	-1E+10	1
4902551	71	C	07/30/2022	02:57	-132.227	48.964	0	96.10	0	7.2940	0	32.4520	0	25.374	0	95.263	0	258.9	4	87.2	4	-1E+10	1	-1E+10	1	-1E+10	1	-1E+10	1	-1E+10	1	-1E+10	1
4902551	71	C	07/30/2022	02:57	-132.227	48.964	0	96.90	0	7.2790	0	32.4510	0	25.375	0	96.056	0	257.6	4	86.7	4	-1E+10	1	-1E+10	1	-1E+10	1	-1E+10	1	-1E+10	1	-1E+10	1
4902551	71	C	07/30/2022	02:57	-132.227	48.964	0	98.00	0	7.2400	0	32.4720	0	25.397	0	97.146	0	255.5	4	85.9	4	-1E+10	1	-1E+10	1	-1E+10	1	-1E+10	1	-1E+10	1	-1E+10	1
4902551	71	C	07/30/2022	02:57	-132.227	48.964	0	99.00	0	7.1820	0	32.5070	0	25.432	0	98.137	0	254.0	4	85.4	4	-1E+10	1	-1E+10	1	-1E+10	1	-1E+10	1	-1E+10	1	-1E+10	1
4902551	71	C	07/30/2022	02:57	-132.227	48.964	0	100.10	0	7.1470	0	32.5290	0	25.454	0	99.227	0	251.1	4	84.3	4	-1E+10	1	-1E+10	1	-1E+10	1	-1E+10	1	-1E+10	1	-1E+10	1
4902551	71	C	07/30/2022	02:57	-132.227	48.964	0	101.10	0	7.0940	0	32.5600	0	25.486	0	100.218	0	246.7	4	82.7	4	-1E+10	1	-1E+10	1	-1E+10	1	-1E+10	1	-1E+10	1	-1E+10	1
4902551	71	C	07/30/2022	02:57	-132.227	48.964	0	102.00	0	7.0510	0	32.5940	0	25.518	0	101.110	0	244.3	4	81.9	4	-1E+10	1	-1E+10	1	-1E+10	1	-1E+10	1	-1E+10	1	-1E+10	1
4902551	71	C	07/30/2022	02:57	-132.227	48.964	0	102.90	0	7.0160	0	32.6250	0	25.548	0	102.002	0	242.3	4	81.2	4	-1E+10	1	-1E+10	1	-1E+10	1	-1E+10	1	-1E+10	1	-1E+10	1
4902551	71	C	07/30/2022	02:57	-132.227	48.964	0	104.10	0	6.9810	0	32.6530	0	25.574	0	103.191	0	240.7	4	80.6	4	-1E+10	1	-1E+10	1	-1E+10	1	-1E+10	1	-1E+10	1	-1E+10	1
4902551	71	C	07/30/2022	02:57	-132.227	48.964	0	105.10	0	6.9490	0	32.6900	0	25.608	0	104.182	0	239.4	4	80.1	4	-1E+10	1	-1E+10	1	-1E+10	1	-1E+10	1	-1E+10	1	-1E+10	1
4902551	71	C	07/30/2022	02:57	-132.227	48.964	0	106.00	0	6.9450	0	32.6940	0	25.611	0	105.074	0	238.5	4	79.8	4	-1E+10	1	-1E+10	1	-1E+10	1	-1E+10	1	-1E+10	1	-1E+10	1
4902551	71	C	07/30/2022	02:57	-132.227	48.964	0	107.00	0	6.9400	0	32.6990	0	25.616	0	106.065	0	237.5	4	79.5	4	-1E+10	1	-1E+10	1	-1E+10	1	-1E+10	1	-1E+10	1	-1E+10	1
4902551	71	C	07/30/2022	02:57	-132.227	48.964	0	108.10	0	6.9310	0	32.7080	0	25.624	0	107.155	0	236.4	4	79.1	4	-1E+10	1	-1E+10	1	-1E+10	1	-1E+10	1	-1E+10	1	-1E+10	1
4902551	71	C	07/30/2022	02:57	-132.227	48.964	0	109.10	0	6.9220	0	32.7180	0	25.633	0	108.146	0	235.2	4	78.7	4	-1E+10	1	-1E+10	1	-1E+10	1	-1E+10	1	-1E+10	1	-1E+10	1
4902551	71	C	07/30/2022	02:57	-132.227	48.964	0	109.90	0	6.9090	0	32.7290	0	25.644	0	108.939	0	234.4	4	78.4	4	-1E+10	1	-1E+10	1	-1E+10	1	-1E+10	1	-1E+10	1	-1E+10	1
4902551	71	C	07/30/2022	02:57	-132.227	48.964	0	110.80	0	6.8850	0	32.7560	0	25.668	0	109.831	0	233.7	4	78.1	4	-1E+10	1	-1E+10	1	-1E+10	1	-1E+10	1	-1E+10	1	-1E+10	1
4902551	71	C	07/30/2022	02:57	-132.227	48.964	0	111.90	0	6.8770	0	32.7660	0	25.677	0	110.921	0	232.6	4	77.8	4	-1E+10	1	-1E+10	1	-1E+10	1	-1E+10	1	-1E+10	1	-1E+10	1
4902551	71	C	07/30/2022	02:57	-132.227	48.964	0	112.90	0	6.8740	0	32.7710	0	25.682	0	111.912	0	231.3	4	77.3	4	-1E+10	1	-1E+10	1	-1E+10	1	-1E+10	1	-1E+10	1	-1E+10	1
4902551	71	C	07/30/2022	02:57	-132.227	48.964	0	114.00	0	6.8730	0	32.7730	0	25.683	0	113.002	0	230.0	4	76.9	4	-1E+10	1	-1E+10	1	-1E+10	1	-1E+10	1	-1E+10	1	-1E+10	1
4902551	71	C	07/30/2022	02:57	-132.227	48.964	0	115.20	0	6.8720	0	32.7740	0	25.684	0	114.191	0	228.0	4	76.2	4	-1E+10	1	-1E+10	1	-1E+10	1	-1E+10	1	-1E+10	1	-1E+10	1
4902551	71	C	07/30/2022	02:57	-132.227	48.964	0	115.90	0	6.8710	0	32.7760	0	25.686	0	114.885	0	226.5	4	75.7	4	-1E+10	1	-1E+10	1	-1E+10	1	-1E+10	1	-1E+10	1	-1E+10	1
4902551	71	C	07/30/2022	02:57	-132.227	48.964	0	116.90	0	6.8430	0	32.8030	0	25.711	0	115.876	0	224.4	4	75.0	4	-1E+10	1	-1E+10	1	-1E+10	1	-1E+10	1	-1E+10	1	-1E+10	1
4902551	71	C	07/30/2022	02:57	-132.227	48.964	0	117.90	0	6.8020	0	32.8440	0	25.749	0	116.867	0	222.2	4	74.2	4	-1E+10	1	-1E+10	1	-1E+10	1	-1E+10	1	-1E+10	1	-1E+10	1
4902551	71	C	07/30/2022	02:57	-132.227	48.964	0	119.00	0	6.7820	0	32.8650	0	25.768	0	117.957	0	220.0	4	73.4	4	-1E+10	1	-1E+10	1	-1E+10	1	-1E+10	1	-1E+10	1	-1E+10	1
4902551	71	C	07/30/2022	02:57	-132.227	48.964	0	120.00	0	6.7640	0	32.8850	0	25.786	0	118.948	0	217.4	4	72.5	4	-1E+10	1	-1E+10	1	-1E+10	1	-1E+10	1	-1E+10	1	-1E+10	1
4902551	71	C	07/30/2022	02:57	-132.227	48.964	0	121.10	0	6.7390	0	32.9320	0	25.826	0	120.038	0	214.9	4	71.7	4	-1E+10	1	-1E+10	1	-1E+10	1	-1E+10	1	-1E+10	1	-1E+10	1
4902551	71	C	07/30/2022	02:57	-132.227	48.964	0	121.90	0	6.7280	0	32.9500	0	25.842	0	120.831	0	212.9	4	71.0	4	-1E+10	1	-1E+10	1	-1E+10	1	-1E+10	1	-1E+10	1	-1E+10	1
4902551	71	C	07/30/2022	02:57	-132.227	48.964	0	122.70	0	6.7020	0	32.9830	0	25.871	0	121.623	0	211.1	4	70.4	4	-1E+10	1	-1E+10	1	-1E+10	1	-1E+10	1	-1E+10	1	-1E+10	1
4902551	71	C	07/30/2022	02:57	-132.227	48.964	0	123.90	0	6.6820	0	33.0080	0	25.894	0	122.813	0	208.2	4	69.4	4	-1E+10	1	-1E+10	1	-1E+10	1	-1E+10	1	-1E+10	1	-1E+10	1
4902551	71	C	07/30/2022	02:57	-132.227	48.964	0	125.00	0	6.6690	0	33.0350	0	25.917	0	123.903	0	205.2	4	68.4	4	-1E+10	1	-1E+10	1	-1E+10	1	-1E+10	1	-1E+10	1	-1E+10	1
4902551	71	C	07/30/2022	02:57	-132.227	48.964	0	125.90	0	6.6690	0	33.0560	0	25.933	0	124.794	0	202.8	4	67.6	4	-1E+10	1	-1E+10	1	-1E+10	1	-1E+10	1	-1E+10	1	-1E+10	1
4902551	71	C	07/30/2022	02:57	-132.227	48.964	0	126.80	0	6.6540	0	33.0850	0	25.958	0	125.686	0	200.6	4	66.9	4	-1E+10	1	-1E+10	1	-1E+10	1	-1E+10	1	-1E+10	1	-1E+10	1
4902551	71	C	07/30/2022	02:57	-132.227	48.964	0	128.00	0	6.6320	0	33.1140	0	25.984	0	126.875	0	197.2	4	65.7	4	-1E+10	1	-1E+10	1	-1E+10	1	-1E+10	1	-1E+10	1	-1E+10	1
4902551	71	C	07/30/2022	02:57	-132.227	48.964	0	129.20	0	6.5990	0	33.1760	0	26.037	0	128.064	0	194.7	4	64.9	4	-1E+10	1	-1E+10	1	-1E+10	1	-1E+10	1	-1E+10	1	-1E+10	1
4902551	71	C	07/30/2022	02:57	-132.227	48.964	0	130.00	0	6.5460	0	33.2210	0	26.079	0	128.857	0	193.3	4	64.3	4	-1E+10	1	-1E+10	1	-1E+10	1	-1E+10	1	-1E+10	1	-1E+10	1
4902551	71	C	07/30/2022	02:57	-132.227	48.964	0	130.80	0	6.5410	0	33.2470	0	26.101	0	129.650	0	192.3	4	64.0	4	-1E+10	1	-1E+10	1	-1E+10	1	-1E+10	1	-1E+10	1	-1E+10	1
4902551	71	C	07/30/2022	02:57	-132.227	48.964	0	132.00	0	6.5080	0	33.2680	0	26.121	0	130.839	0	190.8	4	63.5	4	-1E+10	1	-1E+10	1	-1E+10	1	-1E+10	1	-1E+10	1	-1E+10	1
4902551	71	C	07/30/2022	02:57	-132.227	48.964	0	133.30	0	6.4920	0	33.2830	0	26.135	0	132.127	0	189.2	4	62.9	4	-1E+10	1	-1E+10	1	-1E+10	1	-1E+10	1	-1E+10	1	-1E+10	1
4902551	71	C	07/30/2022	02:57	-132.227	48.964	0	134.20	0	6.4810	0	33.2920	0	26.144	0	133.019	0	188.0	4	62.5	4	-1E+10	1	-1E+10	1	-1E+10	1	-1E+10	1	-1E+10	1	-1E+10	1
4902551	71	C	07/30/2022	02:57	-132.227	48.964	0	135.00	0	6.4690	0	33.3000	0	26.152	0	133.812	0	186.8	4	62.1	4	-1E+10	1	-1E+10	1	-1E+10	1	-1E+10	1	-1E+10	1	-1E+10	1
4902551	71	C	07/30/2022	02:57	-132.227	48.964	0	135.90	0	6.4600	0	33.3070	0	26.158	0	134.703	0	185.6	4	61.7	4	-1E+10	1	-1E+10	1	-1E+10	1	-1E+10	1	-1E+10	1	-1E+10	1
4902551	71	C	07/30/2022	02:57	-132.227	48.964	0	136.70	0	6.4520	0	33.3200	0	26.170	0	135.496	0	184.4	4	61.3	4	-1E+10	1	-1E+10	1	-1E+10	1	-1E+10	1	-1E+10	1	-1E+10	1
4902551	71	C	07/30/2022	02:57	-132.227	48.964	0	137.60	0	6.4400	0	33.3470	0	26.193	0	136.388	0	183.1	4	60.9	4	-1E+10	1	-1E+10	1	-1E+10	1	-1E+10	1	-1E+10	1	-1E+10	1
4902551	71	C	07/30/2022	02:57	-132.227	48.964	0	138.90	0	6.4030	0	33.3860	0	26.228	0	137.676	0	181.6	4	60.3	4	-1E+10	1	-1E+10	1	-1E+10	1	-1E+10	1	-1E+10	1	-1E+10	1
4902551	71	C	07/30/2022	02:57	-132.227	48.964	0	140.40	0	6.3850	0	33.4210	0	26.258	0	139.162	0	180.3	4	59.9	4	-1E+10	1	-1E+10	1	-1E+10	1	-1E+10	1	-1E+10	1	-1E+10	1
4902551	71	C	07/30/2022	02:57	-132.227	48.964	0	141.40	0	6.3840	0	33.4320	0	26.267	0	140.153	0	179.5	4	59.6	4	-1E+10	1	-1E+10	1	-1E+10	1	-1E+10	1	-1E+10	1	-1E+10	1
4902551	71	C	07/30/2022	02:57	-132.227	48.964	0	142.40	0	6.3720	0	33.4500	0	26.283	0	141.144	0	178.8	4	59.4	4	-1E+10	1	-1E+10	1	-1E+10	1	-1E+10	1	-1E+10	1	-1E+10	1
4902551	71	C	07/30/2022	02:57	-132.227	48.964	0	143.40	0	6.3700	0	33.4510	0	26.284	0	142.135	0	178.2	4	59.2	4	-1E+10	1	-1E+10	1	-1E+10	1	-1E+10	1	-1E+10	1	-1E+10	1
4902551	71	C	07/30/2022	02:57	-132.227	48.964	0	144.40	0	6.3660	0	33.4520	0	26.285	0	143.126	0	177.5	4	58.9	4	-1E+10	1	-1E+10	1	-1E+10	1	-1E+10	1	-1E+10	1	-1E+10	1
4902551	71	C	07/30/2022	02:57	-132.227	48.964	0	145.40	0	6.3610	0	33.4530	0	26.286	0	144.116	0	176.7	4	58.7	4	-1E+10	1	-1E+10	1	-1E+10	1	-1E+10	1	-1E+10	1	-1E+10	1
4902551	71	C	07/30/2022	02:57	-132.227	48.964	0	146.40	0	6.3530	0	33.4570	0	26.291	0	145.107	0	175.9	4	58.4	4	-1E+10	1	-1E+10	1	-1E+10	1	-1E+10	1	-1E+10	1	-1E+10	1
4902551	71	C	07/30/2022	02:57	-132.227	48.964	0	147.40	0	6.3430	0	33.4630	0	26.297	0	146.098	0	175.2	4	58.1	4	-1E+10	1	-1E+10	1	-1E+10	1	-1E+10	1	-1E+10	1	-1E+10	1
4902551	71	C	07/30/2022	02:57	-132.227	48.964	0	148.50	0	6.3370	0	33.4700	0	26.303	0	147.188	0	174.3	4	57.9	4	-1E+10	1	-1E+10	1	-1E+10	1	-1E+10	1	-1E+10	1	-1E+10	1
4902551	71	C	07/30/2022	02:57	-132.227	48.964	0	149.50	0	6.3290	0	33.4800	0	26.312	0	148.179	0	173.5	4	57.6	4	-1E+10	1	-1E+10	1	-1E+10	1	-1E+10	1	-1E+10	1	-1E+10	1
4902551	71	C	07/30/2022	02:57	-132.227	48.964	0	150.60	0	6.3170	0	33.4980	0	26.328	0	149.269	0	172.7	4	57.3	4	-1E+10	1	-1E+10	1	-1E+10	1	-1E+10	1	-1E+10	1	-1E+10	1
4902551	71	C	07/30/2022	02:57	-132.227	48.964	0	151.70	0	6.3130	0	33.5030	0	26.332	0	150.358	0	171.9	4	57.0	4	-1E+10	1	-1E+10	1	-1E+10	1	-1E+10	1	-1E+10	1	-1E+10	1
4902551	71	C	07/30/2022	02:57	-132.227	48.964	0	152.80	0	6.3050	0	33.5120	0	26.340	0	151.448	0	171.0	4	56.7	4	-1E+10	1	-1E+10	1	-1E+10	1	-1E+10	1	-1E+10	1	-1E+10	1
4902551	71	C	07/30/2022	02:57	-132.227	48.964	0	153.90	0	6.3000	0	33.5180	0	26.346	0	152.538	0	170.2	4	56.5	4	-1E+10	1	-1E+10	1	-1E+10	1	-1E+10	1	-1E+10	1	-1E+10	1
4902551	71	C	07/30/2022	02:57	-132.227	48.964	0	155.00	0	6.2970	0	33.5220	0	26.349	0	153.628	0	169.2	4	56.1	4	-1E+10	1	-1E+10	1	-1E+10	1	-1E+10	1	-1E+10	1	-1E+10	1
4902551	71	C	07/30/2022	02:57	-132.227	48.964	0	156.10	0	6.2900	0	33.5280	0	26.355	0	154.718	0	168.2	4	55.8	4	-1E+10	1	-1E+10	1	-1E+10	1	-1E+10	1	-1E+10	1	-1E+10	1
4902551	71	C	07/30/2022	02:57	-132.227	48.964	0	157.20	0	6.2800	0	33.5330	0	26.360	0	155.808	0	167.3	4	55.5	4	-1E+10	1	-1E+10	1	-1E+10	1	-1E+10	1	-1E+10	1	-1E+10	1
4902551	71	C	07/30/2022	02:57	-132.227	48.964	0	158.30	0	6.2680	0	33.5420	0	26.369	0	156.898	0	166.3	4	55.1	4	-1E+10	1	-1E+10	1	-1E+10	1	-1E+10	1	-1E+10	1	-1E+10	1
4902551	71	C	07/30/2022	02:57	-132.227	48.964	0	159.40	0	6.2570	0	33.5510	0	26.377	0	157.987	0	165.2	4	54.8	4	-1E+10	1	-1E+10	1	-1E+10	1	-1E+10	1	-1E+10	1	-1E+10	1
4902551	71	C	07/30/2022	02:57	-132.227	48.964	0	160.50	0	6.2290	0	33.5720	0	26.397	0	159.077	0	164.3	4	54.4	4	-1E+10	1	-1E+10	1	-1E+10	1	-1E+10	1	-1E+10	1	-1E+10	1
4902551	71	C	07/30/2022	02:57	-132.227	48.964	0	161.70	0	6.2080	0	33.5860	0	26.411	0	160.266	0	163.7	4	54.2	4	-1E+10	1	-1E+10	1	-1E+10	1	-1E+10	1	-1E+10	1	-1E+10	1
4902551	71	C	07/30/2022	02:57	-132.227	48.964	0	162.80	0	6.1960	0	33.5970	0	26.421	0	161.356	0	163.2	4	54.0	4	-1E+10	1	-1E+10	1	-1E+10	1	-1E+10	1	-1E+10	1	-1E+10	1
4902551	71	C	07/30/2022	02:57	-132.227	48.964	0	163.90	0	6.1920	0	33.6040	0	26.427	0	162.446	0	162.9	4	53.9	4	-1E+10	1	-1E+10	1	-1E+10	1	-1E+10	1	-1E+10	1	-1E+10	1
4902551	71	C	07/30/2022	02:57	-132.227	48.964	0	165.10	0	6.1920	0	33.6040	0	26.427	0	163.635	0	162.4	4	53.8	4	-1E+10	1	-1E+10	1	-1E+10	1	-1E+10	1	-1E+10	1	-1E+10	1
4902551	71	C	07/30/2022	02:57	-132.227	48.964	0	166.20	0	6.1920	0	33.6040	0	26.427	0	164.724	0	161.8	4	53.6	4	-1E+10	1	-1E+10	1	-1E+10	1	-1E+10	1	-1E+10	1	-1E+10	1
4902551	71	C	07/30/2022	02:57	-132.227	48.964	0	167.40	0	6.1900	0	33.6080	0	26.431	0	165.913	0	161.1	4	53.4	4	-1E+10	1	-1E+10	1	-1E+10	1	-1E+10	1	-1E+10	1	-1E+10	1
4902551	71	C	07/30/2022	02:57	-132.227	48.964	0	168.50	0	6.1840	0	33.6140	0	26.436	0	167.003	0	160.5	4	53.1	4	-1E+10	1	-1E+10	1	-1E+10	1	-1E+10	1	-1E+10	1	-1E+10	1
4902551	71	C	07/30/2022	02:57	-132.227	48.964	0	169.60	0	6.1760	0	33.6180	0	26.440	0	168.093	0	159.9	4	52.9	4	-1E+10	1	-1E+10	1	-1E+10	1	-1E+10	1	-1E+10	1	-1E+10	1
4902551	71	C	07/30/2022	02:57	-132.227	48.964	0	170.70	0	6.1710	0	33.6210	0	26.444	0	169.183	0	159.1	4	52.6	4	-1E+10	1	-1E+10	1	-1E+10	1	-1E+10	1	-1E+10	1	-1E+10	1
4902551	71	C	07/30/2022	02:57	-132.227	48.964	0	171.90	0	6.1470	0	33.6350	0	26.458	0	170.371	0	158.3	4	52.4	4	-1E+10	1	-1E+10	1	-1E+10	1	-1E+10	1	-1E+10	1	-1E+10	1
4902551	71	C	07/30/2022	02:57	-132.227	48.964	0	173.00	0	6.1250	0	33.6460	0	26.469	0	171.461	0	157.9	4	52.2	4	-1E+10	1	-1E+10	1	-1E+10	1	-1E+10	1	-1E+10	1	-1E+10	1
4902551	71	C	07/30/2022	02:57	-132.227	48.964	0	174.20	0	6.1170	0	33.6500	0	26.473	0	172.650	0	157.6	4	52.1	4	-1E+10	1	-1E+10	1	-1E+10	1	-1E+10	1	-1E+10	1	-1E+10	1
4902551	71	C	07/30/2022	02:57	-132.227	48.964	0	175.30	0	6.1110	0	33.6510	0	26.475	0	173.740	0	157.3	4	52.0	4	-1E+10	1	-1E+10	1	-1E+10	1	-1E+10	1	-1E+10	1	-1E+10	1
4902551	71	C	07/30/2022	02:57	-132.227	48.964	0	176.40	0	6.1110	0	33.6510	0	26.475	0	174.830	0	157.0	4	51.9	4	-1E+10	1	-1E+10	1	-1E+10	1	-1E+10	1	-1E+10	1	-1E+10	1
4902551	71	C	07/30/2022	02:57	-132.227	48.964	0	177.50	0	6.1150	0	33.6520	0	26.475	0	175.919	0	156.5	4	51.7	4	-1E+10	1	-1E+10	1	-1E+10	1	-1E+10	1	-1E+10	1	-1E+10	1
4902551	71	C	07/30/2022	02:57	-132.227	48.964	0	178.60	0	6.1120	0	33.6590	0	26.481	0	177.009	0	155.9	4	51.5	4	-1E+10	1	-1E+10	1	-1E+10	1	-1E+10	1	-1E+10	1	-1E+10	1
4902551	71	C	07/30/2022	02:57	-132.227	48.964	0	179.70	0	6.0940	0	33.6680	0	26.490	0	178.099	0	155.3	4	51.3	4	-1E+10	1	-1E+10	1	-1E+10	1	-1E+10	1	-1E+10	1	-1E+10	1
4902551	71	C	07/30/2022	02:57	-132.227	48.964	0	180.70	0	6.0620	0	33.6830	0	26.506	0	179.089	0	154.9	4	51.2	4	-1E+10	1	-1E+10	1	-1E+10	1	-1E+10	1	-1E+10	1	-1E+10	1
4902551	71	C	07/30/2022	02:57	-132.227	48.964	0	181.80	0	6.0590	0	33.6820	0	26.506	0	180.179	0	154.5	4	51.0	4	-1E+10	1	-1E+10	1	-1E+10	1	-1E+10	1	-1E+10	1	-1E+10	1
4902551	71	C	07/30/2022	02:57	-132.227	48.964	0	182.80	0	6.0570	0	33.6830	0	26.507	0	181.170	0	153.9	4	50.8	4	-1E+10	1	-1E+10	1	-1E+10	1	-1E+10	1	-1E+10	1	-1E+10	1
4902551	71	C	07/30/2022	02:57	-132.227	48.964	0	183.90	0	6.0510	0	33.6870	0	26.511	0	182.260	0	153.4	4	50.6	4	-1E+10	1	-1E+10	1	-1E+10	1	-1E+10	1	-1E+10	1	-1E+10	1
4902551	71	C	07/30/2022	02:57	-132.227	48.964	0	184.90	0	6.0500	0	33.6880	0	26.512	0	183.250	0	152.6	4	50.4	4	-1E+10	1	-1E+10	1	-1E+10	1	-1E+10	1	-1E+10	1	-1E+10	1
4902551	71	C	07/30/2022	02:57	-132.227	48.964	0	186.00	0	6.0420	0	33.6910	0	26.515	0	184.340	0	151.9	4	50.1	4	-1E+10	1	-1E+10	1	-1E+10	1	-1E+10	1	-1E+10	1	-1E+10	1
4902551	71	C	07/30/2022	02:57	-132.227	48.964	0	187.00	0	6.0350	0	33.6910	0	26.516	0	185.330	0	151.1	4	49.9	4	-1E+10	1	-1E+10	1	-1E+10	1	-1E+10	1	-1E+10	1	-1E+10	1
4902551	71	C	07/30/2022	02:57	-132.227	48.964	0	188.10	0	6.0200	0	33.7030	0	26.527	0	186.420	0	150.3	4	49.6	4	-1E+10	1	-1E+10	1	-1E+10	1	-1E+10	1	-1E+10	1	-1E+10	1
4902551	71	C	07/30/2022	02:57	-132.227	48.964	0	189.10	0	5.9770	0	33.7180	0	26.545	0	187.411	0	149.5	4	49.3	4	-1E+10	1	-1E+10	1	-1E+10	1	-1E+10	1	-1E+10	1	-1E+10	1
4902551	71	C	07/30/2022	02:57	-132.227	48.964	0	190.10	0	5.9550	0	33.7180	0	26.547	0	188.401	0	149.0	4	49.1	4	-1E+10	1	-1E+10	1	-1E+10	1	-1E+10	1	-1E+10	1	-1E+10	1
4902551	71	C	07/30/2022	02:57	-132.227	48.964	0	191.20	0	5.9450	0	33.7200	0	26.550	0	189.491	0	148.3	4	48.9	4	-1E+10	1	-1E+10	1	-1E+10	1	-1E+10	1	-1E+10	1	-1E+10	1
4902551	71	C	07/30/2022	02:57	-132.227	48.964	0	192.20	0	5.9390	0	33.7200	0	26.551	0	190.482	0	147.7	4	48.7	4	-1E+10	1	-1E+10	1	-1E+10	1	-1E+10	1	-1E+10	1	-1E+10	1
4902551	71	C	07/30/2022	02:57	-132.227	48.964	0	193.30	0	5.9300	0	33.7210	0	26.553	0	191.571	0	147.0	4	48.4	4	-1E+10	1	-1E+10	1	-1E+10	1	-1E+10	1	-1E+10	1	-1E+10	1
4902551	71	C	07/30/2022	02:57	-132.227	48.964	0	194.30	0	5.9210	0	33.7240	0	26.556	0	192.562	0	146.3	4	48.2	4	-1E+10	1	-1E+10	1	-1E+10	1	-1E+10	1	-1E+10	1	-1E+10	1
4902551	71	C	07/30/2022	02:57	-132.227	48.964	0	195.40	0	5.9050	0	33.7260	0	26.560	0	193.652	0	145.8	4	48.0	4	-1E+10	1	-1E+10	1	-1E+10	1	-1E+10	1	-1E+10	1	-1E+10	1
4902551	71	C	07/30/2022	02:57	-132.227	48.964	0	196.40	0	5.8960	0	33.7270	0	26.562	0	194.642	0	145.2	4	47.8	4	-1E+10	1	-1E+10	1	-1E+10	1	-1E+10	1	-1E+10	1	-1E+10	1
4902551	71	C	07/30/2022	02:57	-132.227	48.964	0	197.40	0	5.8830	0	33.7290	0	26.565	0	195.633	0	144.7	4	47.6	4	-1E+10	1	-1E+10	1	-1E+10	1	-1E+10	1	-1E+10	1	-1E+10	1
4902551	71	C	07/30/2022	02:57	-132.227	48.964	0	198.40	0	5.8790	0	33.7280	0	26.565	0	196.623	0	144.2	4	47.4	4	-1E+10	1	-1E+10	1	-1E+10	1	-1E+10	1	-1E+10	1	-1E+10	1
4902551	71	C	07/30/2022	02:57	-132.227	48.964	0	199.50	0	5.8710	0	33.7310	0	26.568	0	197.713	0	143.7	4	47.3	4	-1E+10	1	-1E+10	1	-1E+10	1	-1E+10	1	-1E+10	1	-1E+10	1
4902551	71	C	07/30/2022	02:57	-132.227	48.964	0	200.50	0	5.8660	0	33.7300	0	26.568	0	198.703	0	143.2	4	47.1	4	-1E+10	1	-1E+10	1	-1E+10	1	-1E+10	1	-1E+10	1	-1E+10	1
4902551	71	C	07/30/2022	02:57	-132.227	48.964	0	201.50	0	5.8570	0	33.7330	0	26.571	0	199.694	0	142.5	4	46.9	4	-1E+10	1	-1E+10	1	-1E+10	1	-1E+10	1	-1E+10	1	-1E+10	1
4902551	71	C	07/30/2022	02:57	-132.227	48.964	0	202.60	0	5.8450	0	33.7360	0	26.575	0	200.784	0	141.7	4	46.6	4	-1E+10	1	-1E+10	1	-1E+10	1	-1E+10	1	-1E+10	1	-1E+10	1
4902551	71	C	07/30/2022	02:57	-132.227	48.964	0	203.60	0	5.8190	0	33.7470	0	26.587	0	201.774	0	141.0	4	46.3	4	-1E+10	1	-1E+10	1	-1E+10	1	-1E+10	1	-1E+10	1	-1E+10	1
4902551	71	C	07/30/2022	02:57	-132.227	48.964	0	204.60	0	5.7960	0	33.7460	0	26.589	0	202.765	0	140.4	4	46.1	4	-1E+10	1	-1E+10	1	-1E+10	1	-1E+10	1	-1E+10	1	-1E+10	1
4902551	71	C	07/30/2022	02:57	-132.227	48.964	0	205.60	0	5.7770	0	33.7480	0	26.593	0	203.755	0	139.8	4	45.9	4	-1E+10	1	-1E+10	1	-1E+10	1	-1E+10	1	-1E+10	1	-1E+10	1
4902551	71	C	07/30/2022	02:57	-132.227	48.964	0	206.60	0	5.7640	0	33.7460	0	26.593	0	204.746	0	139.2	4	45.7	4	-1E+10	1	-1E+10	1	-1E+10	1	-1E+10	1	-1E+10	1	-1E+10	1
4902551	71	C	07/30/2022	02:57	-132.227	48.964	0	207.70	0	5.7530	0	33.7470	0	26.595	0	205.835	0	138.4	4	45.4	4	-1E+10	1	-1E+10	1	-1E+10	1	-1E+10	1	-1E+10	1	-1E+10	1
4902551	71	C	07/30/2022	02:57	-132.227	48.964	0	208.90	0	5.7440	0	33.7480	0	26.597	0	207.024	0	137.5	4	45.1	4	-1E+10	1	-1E+10	1	-1E+10	1	-1E+10	1	-1E+10	1	-1E+10	1
4902551	71	C	07/30/2022	02:57	-132.227	48.964	0	210.10	0	5.7390	0	33.7480	0	26.598	0	208.213	0	136.4	4	44.8	4	-1E+10	1	-1E+10	1	-1E+10	1	-1E+10	1	-1E+10	1	-1E+10	1
4902551	71	C	07/30/2022	02:57	-132.227	48.964	0	210.90	0	5.7320	0	33.7500	0	26.600	0	209.005	0	135.7	4	44.5	4	-1E+10	1	-1E+10	1	-1E+10	1	-1E+10	1	-1E+10	1	-1E+10	1
4902551	71	C	07/30/2022	02:57	-132.227	48.964	0	211.70	0	5.7230	0	33.7500	0	26.601	0	209.797	0	134.9	4	44.2	4	-1E+10	1	-1E+10	1	-1E+10	1	-1E+10	1	-1E+10	1	-1E+10	1
4902551	71	C	07/30/2022	02:57	-132.227	48.964	0	212.90	0	5.7000	0	33.7550	0	26.608	0	210.986	0	133.7	4	43.8	4	-1E+10	1	-1E+10	1	-1E+10	1	-1E+10	1	-1E+10	1	-1E+10	1
4902551	71	C	07/30/2022	02:57	-132.227	48.964	0	214.10	0	5.6800	0	33.7550	0	26.611	0	212.175	0	132.6	4	43.4	4	-1E+10	1	-1E+10	1	-1E+10	1	-1E+10	1	-1E+10	1	-1E+10	1
4902551	71	C	07/30/2022	02:57	-132.227	48.964	0	214.90	0	5.6780	0	33.7550	0	26.611	0	212.967	0	131.8	4	43.2	4	-1E+10	1	-1E+10	1	-1E+10	1	-1E+10	1	-1E+10	1	-1E+10	1
4902551	71	C	07/30/2022	02:57	-132.227	48.964	0	215.70	0	5.6760	0	33.7550	0	26.611	0	213.759	0	130.9	4	42.9	4	-1E+10	1	-1E+10	1	-1E+10	1	-1E+10	1	-1E+10	1	-1E+10	1
4902551	71	C	07/30/2022	02:57	-132.227	48.964	0	216.90	0	5.6640	0	33.7560	0	26.613	0	214.948	0	129.7	4	42.5	4	-1E+10	1	-1E+10	1	-1E+10	1	-1E+10	1	-1E+10	1	-1E+10	1
4902551	71	C	07/30/2022	02:57	-132.227	48.964	0	218.10	0	5.6590	0	33.7560	0	26.614	0	216.137	0	128.3	4	42.0	4	-1E+10	1	-1E+10	1	-1E+10	1	-1E+10	1	-1E+10	1	-1E+10	1
4902551	71	C	07/30/2022	02:57	-132.227	48.964	0	218.90	0	5.6490	0	33.7620	0	26.620	0	216.929	0	127.2	4	41.6	4	-1E+10	1	-1E+10	1	-1E+10	1	-1E+10	1	-1E+10	1	-1E+10	1
4902551	71	C	07/30/2022	02:57	-132.227	48.964	0	219.70	0	5.6150	0	33.7640	0	26.626	0	217.721	0	126.3	4	41.3	4	-1E+10	1	-1E+10	1	-1E+10	1	-1E+10	1	-1E+10	1	-1E+10	1
4902551	71	C	07/30/2022	02:57	-132.227	48.964	0	220.90	0	5.5860	0	33.7670	0	26.631	0	218.910	0	125.3	4	40.9	4	-1E+10	1	-1E+10	1	-1E+10	1	-1E+10	1	-1E+10	1	-1E+10	1
4902551	71	C	07/30/2022	02:57	-132.227	48.964	0	222.10	0	5.5720	0	33.7660	0	26.632	0	220.098	0	124.3	4	40.6	4	-1E+10	1	-1E+10	1	-1E+10	1	-1E+10	1	-1E+10	1	-1E+10	1
4902551	71	C	07/30/2022	02:57	-132.227	48.964	0	222.90	0	5.5450	0	33.7680	0	26.637	0	220.891	0	123.6	4	40.4	4	-1E+10	1	-1E+10	1	-1E+10	1	-1E+10	1	-1E+10	1	-1E+10	1
4902551	71	C	07/30/2022	02:57	-132.227	48.964	0	223.70	0	5.5420	0	33.7690	0	26.638	0	221.683	0	122.9	4	40.1	4	-1E+10	1	-1E+10	1	-1E+10	1	-1E+10	1	-1E+10	1	-1E+10	1
4902551	71	C	07/30/2022	02:57	-132.227	48.964	0	224.90	0	5.5220	0	33.7720	0	26.643	0	222.872	0	121.9	4	39.8	4	-1E+10	1	-1E+10	1	-1E+10	1	-1E+10	1	-1E+10	1	-1E+10	1
4902551	71	C	07/30/2022	02:57	-132.227	48.964	0	226.10	0	5.5160	0	33.7730	0	26.645	0	224.060	0	120.8	4	39.4	4	-1E+10	1	-1E+10	1	-1E+10	1	-1E+10	1	-1E+10	1	-1E+10	1
4902551	71	C	07/30/2022	02:57	-132.227	48.964	0	227.00	0	5.5140	0	33.7730	0	26.645	0	224.952	0	119.9	4	39.1	4	-1E+10	1	-1E+10	1	-1E+10	1	-1E+10	1	-1E+10	1	-1E+10	1
4902551	71	C	07/30/2022	02:57	-132.227	48.964	0	227.80	0	5.5100	0	33.7760	0	26.648	0	225.744	0	119.0	4	38.8	4	-1E+10	1	-1E+10	1	-1E+10	1	-1E+10	1	-1E+10	1	-1E+10	1
4902551	71	C	07/30/2022	02:57	-132.227	48.964	0	228.60	0	5.5030	0	33.7780	0	26.650	0	226.536	0	118.1	4	38.5	4	-1E+10	1	-1E+10	1	-1E+10	1	-1E+10	1	-1E+10	1	-1E+10	1
4902551	71	C	07/30/2022	02:57	-132.227	48.964	0	229.90	0	5.4950	0	33.7780	0	26.651	0	227.824	0	116.4	4	38.0	4	-1E+10	1	-1E+10	1	-1E+10	1	-1E+10	1	-1E+10	1	-1E+10	1
4902551	71	C	07/30/2022	02:57	-132.227	48.964	0	231.20	0	5.4950	0	33.7930	0	26.663	0	229.111	0	114.7	4	37.4	4	-1E+10	1	-1E+10	1	-1E+10	1	-1E+10	1	-1E+10	1	-1E+10	1
4902551	71	C	07/30/2022	02:57	-132.227	48.964	0	232.10	0	5.4950	0	33.7890	0	26.660	0	230.003	0	113.7	4	37.1	4	-1E+10	1	-1E+10	1	-1E+10	1	-1E+10	1	-1E+10	1	-1E+10	1
4902551	71	C	07/30/2022	02:57	-132.227	48.964	0	232.90	0	5.5060	0	33.7930	0	26.662	0	230.795	0	112.7	4	36.8	4	-1E+10	1	-1E+10	1	-1E+10	1	-1E+10	1	-1E+10	1	-1E+10	1
4902551	71	C	07/30/2022	02:57	-132.227	48.964	0	233.80	0	5.5080	0	33.8000	0	26.667	0	231.686	0	111.7	4	36.5	4	-1E+10	1	-1E+10	1	-1E+10	1	-1E+10	1	-1E+10	1	-1E+10	1
4902551	71	C	07/30/2022	02:57	-132.227	48.964	0	234.60	0	5.5060	0	33.8010	0	26.668	0	232.479	0	110.7	4	36.1	4	-1E+10	1	-1E+10	1	-1E+10	1	-1E+10	1	-1E+10	1	-1E+10	1
4902551	71	C	07/30/2022	02:57	-132.227	48.964	0	235.90	0	5.5110	0	33.8080	0	26.673	0	233.766	0	109.4	4	35.7	4	-1E+10	1	-1E+10	1	-1E+10	1	-1E+10	1	-1E+10	1	-1E+10	1
4902551	71	C	07/30/2022	02:57	-132.227	48.964	0	237.40	0	5.5300	0	33.8140	0	26.676	0	235.252	0	108.1	4	35.3	4	-1E+10	1	-1E+10	1	-1E+10	1	-1E+10	1	-1E+10	1	-1E+10	1
4902551	71	C	07/30/2022	02:57	-132.227	48.964	0	238.30	0	5.5370	0	33.8180	0	26.678	0	236.143	0	107.3	4	35.1	4	-1E+10	1	-1E+10	1	-1E+10	1	-1E+10	1	-1E+10	1	-1E+10	1
4902551	71	C	07/30/2022	02:57	-132.227	48.964	0	239.20	0	5.5390	0	33.8210	0	26.680	0	237.035	0	106.5	4	34.8	4	-1E+10	1	-1E+10	1	-1E+10	1	-1E+10	1	-1E+10	1	-1E+10	1
4902551	71	C	07/30/2022	02:57	-132.227	48.964	0	240.10	0	5.5380	0	33.8290	0	26.686	0	237.926	0	105.9	4	34.6	4	-1E+10	1	-1E+10	1	-1E+10	1	-1E+10	1	-1E+10	1	-1E+10	1
4902551	71	C	07/30/2022	02:57	-132.227	48.964	0	241.10	0	5.5360	0	33.8280	0	26.686	0	238.916	0	105.3	4	34.4	4	-1E+10	1	-1E+10	1	-1E+10	1	-1E+10	1	-1E+10	1	-1E+10	1
4902551	71	C	07/30/2022	02:57	-132.227	48.964	0	242.00	0	5.5420	0	33.8340	0	26.690	0	239.808	0	104.7	4	34.2	4	-1E+10	1	-1E+10	1	-1E+10	1	-1E+10	1	-1E+10	1	-1E+10	1
4902551	71	C	07/30/2022	02:57	-132.227	48.964	0	243.00	0	5.5420	0	33.8350	0	26.691	0	240.798	0	104.3	4	34.1	4	-1E+10	1	-1E+10	1	-1E+10	1	-1E+10	1	-1E+10	1	-1E+10	1
4902551	71	C	07/30/2022	02:57	-132.227	48.964	0	243.90	0	5.5430	0	33.8350	0	26.691	0	241.689	0	103.7	4	33.9	4	-1E+10	1	-1E+10	1	-1E+10	1	-1E+10	1	-1E+10	1	-1E+10	1
4902551	71	C	07/30/2022	02:57	-132.227	48.964	0	244.90	0	5.5430	0	33.8370	0	26.692	0	242.680	0	103.1	4	33.7	4	-1E+10	1	-1E+10	1	-1E+10	1	-1E+10	1	-1E+10	1	-1E+10	1
4902551	71	C	07/30/2022	02:57	-132.227	48.964	0	245.80	0	5.5430	0	33.8380	0	26.693	0	243.571	0	102.5	4	33.5	4	-1E+10	1	-1E+10	1	-1E+10	1	-1E+10	1	-1E+10	1	-1E+10	1
4902551	71	C	07/30/2022	02:57	-132.227	48.964	0	246.80	0	5.5420	0	33.8390	0	26.694	0	244.561	0	101.8	4	33.3	4	-1E+10	1	-1E+10	1	-1E+10	1	-1E+10	1	-1E+10	1	-1E+10	1
4902551	71	C	07/30/2022	02:57	-132.227	48.964	0	247.80	0	5.5380	0	33.8430	0	26.698	0	245.552	0	101.3	4	33.1	4	-1E+10	1	-1E+10	1	-1E+10	1	-1E+10	1	-1E+10	1	-1E+10	1
4902551	71	C	07/30/2022	02:57	-132.227	48.964	0	248.80	0	5.5360	0	33.8440	0	26.699	0	246.542	0	100.8	4	32.9	4	-1E+10	1	-1E+10	1	-1E+10	1	-1E+10	1	-1E+10	1	-1E+10	1
4902551	71	C	07/30/2022	02:57	-132.227	48.964	0	249.70	0	5.5370	0	33.8430	0	26.698	0	247.433	0	100.2	4	32.7	4	-1E+10	1	-1E+10	1	-1E+10	1	-1E+10	1	-1E+10	1	-1E+10	1
4902551	71	C	07/30/2022	02:57	-132.227	48.964	0	250.70	0	5.5380	0	33.8450	0	26.699	0	248.424	0	99.8	4	32.6	4	-1E+10	1	-1E+10	1	-1E+10	1	-1E+10	1	-1E+10	1	-1E+10	1
4902551	71	C	07/30/2022	02:57	-132.227	48.964	0	251.70	0	5.5420	0	33.8490	0	26.702	0	249.414	0	99.4	4	32.5	4	-1E+10	1	-1E+10	1	-1E+10	1	-1E+10	1	-1E+10	1	-1E+10	1
4902551	71	C	07/30/2022	02:57	-132.227	48.964	0	252.70	0	5.5440	0	33.8510	0	26.703	0	250.404	0	99.1	4	32.4	4	-1E+10	1	-1E+10	1	-1E+10	1	-1E+10	1	-1E+10	1	-1E+10	1
4902551	71	C	07/30/2022	02:57	-132.227	48.964	0	253.70	0	5.5440	0	33.8510	0	26.703	0	251.394	0	98.7	4	32.3	4	-1E+10	1	-1E+10	1	-1E+10	1	-1E+10	1	-1E+10	1	-1E+10	1
4902551	71	C	07/30/2022	02:57	-132.227	48.964	0	254.70	0	5.5440	0	33.8510	0	26.703	0	252.385	0	98.4	4	32.1	4	-1E+10	1	-1E+10	1	-1E+10	1	-1E+10	1	-1E+10	1	-1E+10	1
4902551	71	C	07/30/2022	02:57	-132.227	48.964	0	255.70	0	5.5420	0	33.8520	0	26.704	0	253.375	0	97.9	4	32.0	4	-1E+10	1	-1E+10	1	-1E+10	1	-1E+10	1	-1E+10	1	-1E+10	1
4902551	71	C	07/30/2022	02:57	-132.227	48.964	0	256.70	0	5.5290	0	33.8580	0	26.711	0	254.365	0	97.5	4	31.9	4	-1E+10	1	-1E+10	1	-1E+10	1	-1E+10	1	-1E+10	1	-1E+10	1
4902551	71	C	07/30/2022	02:57	-132.227	48.964	0	257.70	0	5.5160	0	33.8570	0	26.711	0	255.356	0	97.2	4	31.7	4	-1E+10	1	-1E+10	1	-1E+10	1	-1E+10	1	-1E+10	1	-1E+10	1
4902551	71	C	07/30/2022	02:57	-132.227	48.964	0	258.70	0	5.4940	0	33.8700	0	26.724	0	256.346	0	97.0	4	31.7	4	-1E+10	1	-1E+10	1	-1E+10	1	-1E+10	1	-1E+10	1	-1E+10	1
4902551	71	C	07/30/2022	02:57	-132.227	48.964	0	259.70	0	5.4640	0	33.8590	0	26.719	0	257.336	0	96.7	4	31.5	4	-1E+10	1	-1E+10	1	-1E+10	1	-1E+10	1	-1E+10	1	-1E+10	1
4902551	71	C	07/30/2022	02:57	-132.227	48.964	0	260.70	0	5.4500	0	33.8550	0	26.718	0	258.326	0	96.5	4	31.5	4	-1E+10	1	-1E+10	1	-1E+10	1	-1E+10	1	-1E+10	1	-1E+10	1
4902551	71	C	07/30/2022	02:57	-132.227	48.964	0	261.70	0	5.4250	0	33.8700	0	26.733	0	259.317	0	96.3	4	31.4	4	-1E+10	1	-1E+10	1	-1E+10	1	-1E+10	1	-1E+10	1	-1E+10	1
4902551	71	C	07/30/2022	02:57	-132.227	48.964	0	262.70	0	5.4070	0	33.8570	0	26.724	0	260.307	0	96.2	4	31.3	4	-1E+10	1	-1E+10	1	-1E+10	1	-1E+10	1	-1E+10	1	-1E+10	1
4902551	71	C	07/30/2022	02:57	-132.227	48.964	0	263.80	0	5.3960	0	33.8560	0	26.725	0	261.396	0	96.0	4	31.3	4	-1E+10	1	-1E+10	1	-1E+10	1	-1E+10	1	-1E+10	1	-1E+10	1
4902551	71	C	07/30/2022	02:57	-132.227	48.964	0	264.80	0	5.3790	0	33.8510	0	26.723	0	262.387	0	95.9	4	31.2	4	-1E+10	1	-1E+10	1	-1E+10	1	-1E+10	1	-1E+10	1	-1E+10	1
4902551	71	C	07/30/2022	02:57	-132.227	48.964	0	265.80	0	5.3170	0	33.8740	0	26.749	0	263.377	0	95.7	4	31.1	4	-1E+10	1	-1E+10	1	-1E+10	1	-1E+10	1	-1E+10	1	-1E+10	1
4902551	71	C	07/30/2022	02:57	-132.227	48.964	0	266.80	0	5.2750	0	33.8490	0	26.734	0	264.367	0	95.4	4	31.0	4	-1E+10	1	-1E+10	1	-1E+10	1	-1E+10	1	-1E+10	1	-1E+10	1
4902551	71	C	07/30/2022	02:57	-132.227	48.964	0	267.80	0	5.2620	0	33.8440	0	26.731	0	265.357	0	95.1	4	30.9	4	-1E+10	1	-1E+10	1	-1E+10	1	-1E+10	1	-1E+10	1	-1E+10	1
4902551	71	C	07/30/2022	02:57	-132.227	48.964	0	268.80	0	5.2490	0	33.8420	0	26.731	0	266.347	0	94.7	4	30.7	4	-1E+10	1	-1E+10	1	-1E+10	1	-1E+10	1	-1E+10	1	-1E+10	1
4902551	71	C	07/30/2022	02:57	-132.227	48.964	0	269.90	0	5.2400	0	33.8460	0	26.735	0	267.437	0	94.2	4	30.6	4	-1E+10	1	-1E+10	1	-1E+10	1	-1E+10	1	-1E+10	1	-1E+10	1
4902551	71	C	07/30/2022	02:57	-132.227	48.964	0	270.90	0	5.2330	0	33.8430	0	26.734	0	268.427	0	93.6	4	30.4	4	-1E+10	1	-1E+10	1	-1E+10	1	-1E+10	1	-1E+10	1	-1E+10	1
4902551	71	C	07/30/2022	02:57	-132.227	48.964	0	272.00	0	5.2230	0	33.8450	0	26.737	0	269.516	0	92.9	4	30.1	4	-1E+10	1	-1E+10	1	-1E+10	1	-1E+10	1	-1E+10	1	-1E+10	1
4902551	71	C	07/30/2022	02:57	-132.227	48.964	0	273.00	0	5.2120	0	33.8410	0	26.735	0	270.506	0	92.3	4	29.9	4	-1E+10	1	-1E+10	1	-1E+10	1	-1E+10	1	-1E+10	1	-1E+10	1
4902551	71	C	07/30/2022	02:57	-132.227	48.964	0	274.00	0	5.2160	0	33.8430	0	26.736	0	271.497	0	91.6	4	29.7	4	-1E+10	1	-1E+10	1	-1E+10	1	-1E+10	1	-1E+10	1	-1E+10	1
4902551	71	C	07/30/2022	02:57	-132.227	48.964	0	275.00	0	5.2140	0	33.8460	0	26.738	0	272.487	0	90.9	4	29.5	4	-1E+10	1	-1E+10	1	-1E+10	1	-1E+10	1	-1E+10	1	-1E+10	1
4902551	71	C	07/30/2022	02:57	-132.227	48.964	0	276.00	0	5.2090	0	33.8500	0	26.742	0	273.477	0	90.1	4	29.2	4	-1E+10	1	-1E+10	1	-1E+10	1	-1E+10	1	-1E+10	1	-1E+10	1
4902551	71	C	07/30/2022	02:57	-132.227	48.964	0	277.10	0	5.2030	0	33.8480	0	26.741	0	274.566	0	89.3	4	28.9	4	-1E+10	1	-1E+10	1	-1E+10	1	-1E+10	1	-1E+10	1	-1E+10	1
4902551	71	C	07/30/2022	02:57	-132.227	48.964	0	278.10	0	5.2080	0	33.8470	0	26.740	0	275.556	0	88.4	4	28.7	4	-1E+10	1	-1E+10	1	-1E+10	1	-1E+10	1	-1E+10	1	-1E+10	1
4902551	71	C	07/30/2022	02:57	-132.227	48.964	0	279.10	0	5.2330	0	33.8560	0	26.744	0	276.547	0	87.8	4	28.5	4	-1E+10	1	-1E+10	1	-1E+10	1	-1E+10	1	-1E+10	1	-1E+10	1
4902551	71	C	07/30/2022	02:57	-132.227	48.964	0	280.20	0	5.2410	0	33.8640	0	26.750	0	277.636	0	87.3	4	28.3	4	-1E+10	1	-1E+10	1	-1E+10	1	-1E+10	1	-1E+10	1	-1E+10	1
4902551	71	C	07/30/2022	02:57	-132.227	48.964	0	281.30	0	5.2380	0	33.8670	0	26.752	0	278.725	0	86.9	4	28.2	4	-1E+10	1	-1E+10	1	-1E+10	1	-1E+10	1	-1E+10	1	-1E+10	1
4902551	71	C	07/30/2022	02:57	-132.227	48.964	0	282.30	0	5.2410	0	33.8670	0	26.752	0	279.715	0	86.5	4	28.1	4	-1E+10	1	-1E+10	1	-1E+10	1	-1E+10	1	-1E+10	1	-1E+10	1
4902551	71	C	07/30/2022	02:57	-132.227	48.964	0	283.40	0	5.2430	0	33.8680	0	26.753	0	280.804	0	86.1	4	28.0	4	-1E+10	1	-1E+10	1	-1E+10	1	-1E+10	1	-1E+10	1	-1E+10	1
4902551	71	C	07/30/2022	02:57	-132.227	48.964	0	284.30	0	5.2440	0	33.8690	0	26.753	0	281.696	0	85.7	4	27.8	4	-1E+10	1	-1E+10	1	-1E+10	1	-1E+10	1	-1E+10	1	-1E+10	1
4902551	71	C	07/30/2022	02:57	-132.227	48.964	0	285.90	0	5.2430	0	33.8690	0	26.753	0	283.280	0	84.8	4	27.5	4	-1E+10	1	-1E+10	1	-1E+10	1	-1E+10	1	-1E+10	1	-1E+10	1
4902551	71	C	07/30/2022	02:57	-132.227	48.964	0	287.10	0	5.2500	0	33.8670	0	26.751	0	284.468	0	84.1	4	27.3	4	-1E+10	1	-1E+10	1	-1E+10	1	-1E+10	1	-1E+10	1	-1E+10	1
4902551	71	C	07/30/2022	02:57	-132.227	48.964	0	287.90	0	5.2440	0	33.8800	0	26.762	0	285.260	0	83.7	4	27.2	4	-1E+10	1	-1E+10	1	-1E+10	1	-1E+10	1	-1E+10	1	-1E+10	1
4902551	71	C	07/30/2022	02:57	-132.227	48.964	0	288.70	0	5.2400	0	33.8770	0	26.760	0	286.052	0	83.4	4	27.1	4	-1E+10	1	-1E+10	1	-1E+10	1	-1E+10	1	-1E+10	1	-1E+10	1
4902551	71	C	07/30/2022	02:57	-132.227	48.964	0	289.90	0	5.2350	0	33.8790	0	26.762	0	287.240	0	82.8	4	26.9	4	-1E+10	1	-1E+10	1	-1E+10	1	-1E+10	1	-1E+10	1	-1E+10	1
4902551	71	C	07/30/2022	02:57	-132.227	48.964	0	291.10	0	5.2150	0	33.8840	0	26.769	0	288.429	0	82.2	4	26.7	4	-1E+10	1	-1E+10	1	-1E+10	1	-1E+10	1	-1E+10	1	-1E+10	1
4902551	71	C	07/30/2022	02:57	-132.227	48.964	0	292.00	0	5.1950	0	33.8780	0	26.766	0	289.320	0	81.8	4	26.5	4	-1E+10	1	-1E+10	1	-1E+10	1	-1E+10	1	-1E+10	1	-1E+10	1
4902551	71	C	07/30/2022	02:57	-132.227	48.964	0	292.80	0	5.1900	0	33.8780	0	26.767	0	290.112	0	81.4	4	26.4	4	-1E+10	1	-1E+10	1	-1E+10	1	-1E+10	1	-1E+10	1	-1E+10	1
4902551	71	C	07/30/2022	02:57	-132.227	48.964	0	294.00	0	5.1510	0	33.8850	0	26.777	0	291.300	0	80.5	4	26.1	4	-1E+10	1	-1E+10	1	-1E+10	1	-1E+10	1	-1E+10	1	-1E+10	1
4902551	71	C	07/30/2022	02:57	-132.227	48.964	0	295.30	0	5.1030	0	33.8760	0	26.775	0	292.587	0	79.6	4	25.7	4	-1E+10	1	-1E+10	1	-1E+10	1	-1E+10	1	-1E+10	1	-1E+10	1
4902551	71	C	07/30/2022	02:57	-132.227	48.964	0	296.10	0	5.0790	0	33.8760	0	26.778	0	293.379	0	78.9	4	25.5	4	-1E+10	1	-1E+10	1	-1E+10	1	-1E+10	1	-1E+10	1	-1E+10	1
4902551	71	C	07/30/2022	02:57	-132.227	48.964	0	296.90	0	5.0800	0	33.8730	0	26.775	0	294.171	0	78.1	4	25.3	4	-1E+10	1	-1E+10	1	-1E+10	1	-1E+10	1	-1E+10	1	-1E+10	1
4902551	71	C	07/30/2022	02:57	-132.227	48.964	0	297.80	0	5.0980	0	33.8790	0	26.778	0	295.062	0	77.4	4	25.0	4	-1E+10	1	-1E+10	1	-1E+10	1	-1E+10	1	-1E+10	1	-1E+10	1
4902551	71	C	07/30/2022	02:57	-132.227	48.964	0	298.60	0	5.1390	0	33.8850	0	26.778	0	295.854	0	76.9	4	24.9	4	-1E+10	1	-1E+10	1	-1E+10	1	-1E+10	1	-1E+10	1	-1E+10	1
4902551	71	C	07/30/2022	02:57	-132.227	48.964	0	299.90	0	5.1520	0	33.8970	0	26.786	0	297.141	0	76.3	4	24.7	4	-1E+10	1	-1E+10	1	-1E+10	1	-1E+10	1	-1E+10	1	-1E+10	1
4902551	71	C	07/30/2022	02:57	-132.227	48.964	0	301.20	0	5.1500	0	33.8990	0	26.788	0	298.429	0	75.8	4	24.6	4	-1E+10	1	-1E+10	1	-1E+10	1	-1E+10	1	-1E+10	1	-1E+10	1
4902551	71	C	07/30/2022	02:57	-132.227	48.964	0	302.10	0	5.1480	0	33.9000	0	26.789	0	299.320	0	75.4	4	24.4	4	-1E+10	1	-1E+10	1	-1E+10	1	-1E+10	1	-1E+10	1	-1E+10	1
4902551	71	C	07/30/2022	02:57	-132.227	48.964	0	303.00	0	5.1490	0	33.8990	0	26.788	0	300.211	0	75.0	4	24.3	4	-1E+10	1	-1E+10	1	-1E+10	1	-1E+10	1	-1E+10	1	-1E+10	1
4902551	71	C	07/30/2022	02:57	-132.227	48.964	0	303.80	0	5.1480	0	33.9000	0	26.789	0	301.003	0	74.5	4	24.1	4	-1E+10	1	-1E+10	1	-1E+10	1	-1E+10	1	-1E+10	1	-1E+10	1
4902551	71	C	07/30/2022	02:57	-132.227	48.964	0	304.70	0	5.1480	0	33.9000	0	26.789	0	301.894	0	74.0	4	24.0	4	-1E+10	1	-1E+10	1	-1E+10	1	-1E+10	1	-1E+10	1	-1E+10	1
4902551	71	C	07/30/2022	02:57	-132.227	48.964	0	306.00	0	5.1410	0	33.9030	0	26.792	0	303.181	0	73.2	4	23.7	4	-1E+10	1	-1E+10	1	-1E+10	1	-1E+10	1	-1E+10	1	-1E+10	1
4902551	71	C	07/30/2022	02:57	-132.227	48.964	0	307.30	0	5.1390	0	33.9040	0	26.793	0	304.468	0	72.3	4	23.4	4	-1E+10	1	-1E+10	1	-1E+10	1	-1E+10	1	-1E+10	1	-1E+10	1
4902551	71	C	07/30/2022	02:57	-132.227	48.964	0	308.20	0	5.1430	0	33.9020	0	26.791	0	305.359	0	71.6	4	23.2	4	-1E+10	1	-1E+10	1	-1E+10	1	-1E+10	1	-1E+10	1	-1E+10	1
4902551	71	C	07/30/2022	02:57	-132.227	48.964	0	309.00	0	5.1620	0	33.9030	0	26.790	0	306.151	0	71.0	4	23.0	4	-1E+10	1	-1E+10	1	-1E+10	1	-1E+10	1	-1E+10	1	-1E+10	1
4902551	71	C	07/30/2022	02:57	-132.227	48.964	0	309.90	0	5.1820	0	33.9070	0	26.791	0	307.042	0	70.4	4	22.8	4	-1E+10	1	-1E+10	1	-1E+10	1	-1E+10	1	-1E+10	1	-1E+10	1
4902551	71	C	07/30/2022	02:57	-132.227	48.964	0	310.80	0	5.2080	0	33.9090	0	26.789	0	307.933	0	70.0	4	22.7	4	-1E+10	1	-1E+10	1	-1E+10	1	-1E+10	1	-1E+10	1	-1E+10	1
4902551	71	C	07/30/2022	02:57	-132.227	48.964	0	311.60	0	5.2210	0	33.9310	0	26.805	0	308.725	0	69.8	4	22.7	4	-1E+10	1	-1E+10	1	-1E+10	1	-1E+10	1	-1E+10	1	-1E+10	1
4902551	71	C	07/30/2022	02:57	-132.227	48.964	0	312.90	0	5.1860	0	33.9300	0	26.809	0	310.012	0	69.6	4	22.6	4	-1E+10	1	-1E+10	1	-1E+10	1	-1E+10	1	-1E+10	1	-1E+10	1
4902551	71	C	07/30/2022	02:57	-132.227	48.964	0	314.30	0	5.1670	0	33.9260	0	26.808	0	311.398	0	69.4	4	22.5	4	-1E+10	1	-1E+10	1	-1E+10	1	-1E+10	1	-1E+10	1	-1E+10	1
4902551	71	C	07/30/2022	02:57	-132.227	48.964	0	315.20	0	5.1650	0	33.9270	0	26.809	0	312.289	0	69.2	4	22.4	4	-1E+10	1	-1E+10	1	-1E+10	1	-1E+10	1	-1E+10	1	-1E+10	1
4902551	71	C	07/30/2022	02:57	-132.227	48.964	0	316.10	0	5.1570	0	33.9270	0	26.810	0	313.180	0	69.1	4	22.4	4	-1E+10	1	-1E+10	1	-1E+10	1	-1E+10	1	-1E+10	1	-1E+10	1
4902551	71	C	07/30/2022	02:57	-132.227	48.964	0	317.00	0	5.1490	0	33.9290	0	26.812	0	314.071	0	68.8	4	22.3	4	-1E+10	1	-1E+10	1	-1E+10	1	-1E+10	1	-1E+10	1	-1E+10	1
4902551	71	C	07/30/2022	02:57	-132.227	48.964	0	317.90	0	5.1480	0	33.9270	0	26.811	0	314.962	0	68.7	4	22.2	4	-1E+10	1	-1E+10	1	-1E+10	1	-1E+10	1	-1E+10	1	-1E+10	1
4902551	71	C	07/30/2022	02:57	-132.227	48.964	0	318.80	0	5.1470	0	33.9280	0	26.812	0	315.853	0	68.5	4	22.2	4	-1E+10	1	-1E+10	1	-1E+10	1	-1E+10	1	-1E+10	1	-1E+10	1
4902551	71	C	07/30/2022	02:57	-132.227	48.964	0	319.70	0	5.1420	0	33.9310	0	26.814	0	316.744	0	68.3	4	22.1	4	-1E+10	1	-1E+10	1	-1E+10	1	-1E+10	1	-1E+10	1	-1E+10	1
4902551	71	C	07/30/2022	02:57	-132.227	48.964	0	320.60	0	5.1310	0	33.9290	0	26.814	0	317.635	0	68.0	4	22.0	4	-1E+10	1	-1E+10	1	-1E+10	1	-1E+10	1	-1E+10	1	-1E+10	1
4902551	71	C	07/30/2022	02:57	-132.227	48.964	0	321.60	0	5.1200	0	33.9270	0	26.814	0	318.625	0	67.8	4	22.0	4	-1E+10	1	-1E+10	1	-1E+10	1	-1E+10	1	-1E+10	1	-1E+10	1
4902551	71	C	07/30/2022	02:57	-132.227	48.964	0	322.90	0	5.1110	0	33.9310	0	26.818	0	319.912	0	67.5	4	21.8	4	-1E+10	1	-1E+10	1	-1E+10	1	-1E+10	1	-1E+10	1	-1E+10	1
4902551	71	C	07/30/2022	02:57	-132.227	48.964	0	324.30	0	5.0890	0	33.9300	0	26.820	0	321.298	0	67.2	4	21.7	4	-1E+10	1	-1E+10	1	-1E+10	1	-1E+10	1	-1E+10	1	-1E+10	1
4902551	71	C	07/30/2022	02:57	-132.227	48.964	0	325.20	0	5.0780	0	33.9310	0	26.822	0	322.189	0	66.9	4	21.6	4	-1E+10	1	-1E+10	1	-1E+10	1	-1E+10	1	-1E+10	1	-1E+10	1
4902551	71	C	07/30/2022	02:57	-132.227	48.964	0	326.10	0	5.0610	0	33.9310	0	26.824	0	323.080	0	66.6	4	21.5	4	-1E+10	1	-1E+10	1	-1E+10	1	-1E+10	1	-1E+10	1	-1E+10	1
4902551	71	C	07/30/2022	02:57	-132.227	48.964	0	327.10	0	5.0510	0	33.9280	0	26.823	0	324.070	0	66.2	4	21.4	4	-1E+10	1	-1E+10	1	-1E+10	1	-1E+10	1	-1E+10	1	-1E+10	1
4902551	71	C	07/30/2022	02:57	-132.227	48.964	0	328.00	0	5.0140	0	33.9400	0	26.836	0	324.961	0	65.8	4	21.2	4	-1E+10	1	-1E+10	1	-1E+10	1	-1E+10	1	-1E+10	1	-1E+10	1
4902551	71	C	07/30/2022	02:57	-132.227	48.964	0	328.90	0	4.9880	0	33.9240	0	26.827	0	325.852	0	65.2	4	21.0	4	-1E+10	1	-1E+10	1	-1E+10	1	-1E+10	1	-1E+10	1	-1E+10	1
4902551	71	C	07/30/2022	02:57	-132.227	48.964	0	329.90	0	4.9820	0	33.9240	0	26.827	0	326.842	0	64.6	4	20.8	4	-1E+10	1	-1E+10	1	-1E+10	1	-1E+10	1	-1E+10	1	-1E+10	1
4902551	71	C	07/30/2022	02:57	-132.227	48.964	0	330.80	0	4.9750	0	33.9260	0	26.830	0	327.733	0	63.9	4	20.6	4	-1E+10	1	-1E+10	1	-1E+10	1	-1E+10	1	-1E+10	1	-1E+10	1
4902551	71	C	07/30/2022	02:57	-132.227	48.964	0	331.70	0	4.9830	0	33.9200	0	26.824	0	328.624	0	63.1	4	20.4	4	-1E+10	1	-1E+10	1	-1E+10	1	-1E+10	1	-1E+10	1	-1E+10	1
4902551	71	C	07/30/2022	02:57	-132.227	48.964	0	332.70	0	4.9780	0	33.9260	0	26.829	0	329.614	0	62.5	4	20.2	4	-1E+10	1	-1E+10	1	-1E+10	1	-1E+10	1	-1E+10	1	-1E+10	1
4902551	71	C	07/30/2022	02:57	-132.227	48.964	0	333.70	0	4.9840	0	33.9330	0	26.834	0	330.604	0	61.8	4	19.9	4	-1E+10	1	-1E+10	1	-1E+10	1	-1E+10	1	-1E+10	1	-1E+10	1
4902551	71	C	07/30/2022	02:57	-132.227	48.964	0	334.60	0	4.9790	0	33.9330	0	26.835	0	331.495	0	61.0	4	19.7	4	-1E+10	1	-1E+10	1	-1E+10	1	-1E+10	1	-1E+10	1	-1E+10	1
4902551	71	C	07/30/2022	02:57	-132.227	48.964	0	335.60	0	4.9980	0	33.9370	0	26.836	0	332.484	0	60.2	4	19.4	4	-1E+10	1	-1E+10	1	-1E+10	1	-1E+10	1	-1E+10	1	-1E+10	1
4902551	71	C	07/30/2022	02:57	-132.227	48.964	0	336.50	0	5.0030	0	33.9390	0	26.837	0	333.375	0	59.6	4	19.2	4	-1E+10	1	-1E+10	1	-1E+10	1	-1E+10	1	-1E+10	1	-1E+10	1
4902551	71	C	07/30/2022	02:57	-132.227	48.964	0	337.50	0	4.9950	0	33.9450	0	26.843	0	334.365	0	59.0	4	19.0	4	-1E+10	1	-1E+10	1	-1E+10	1	-1E+10	1	-1E+10	1	-1E+10	1
4902551	71	C	07/30/2022	02:57	-132.227	48.964	0	338.90	0	5.0060	0	33.9450	0	26.841	0	335.751	0	58.1	4	18.8	4	-1E+10	1	-1E+10	1	-1E+10	1	-1E+10	1	-1E+10	1	-1E+10	1
4902551	71	C	07/30/2022	02:57	-132.227	48.964	0	340.40	0	5.0130	0	33.9520	0	26.846	0	337.236	0	57.5	4	18.6	4	-1E+10	1	-1E+10	1	-1E+10	1	-1E+10	1	-1E+10	1	-1E+10	1
4902551	71	C	07/30/2022	02:57	-132.227	48.964	0	341.40	0	5.0220	0	33.9560	0	26.848	0	338.226	0	57.1	4	18.4	4	-1E+10	1	-1E+10	1	-1E+10	1	-1E+10	1	-1E+10	1	-1E+10	1
4902551	71	C	07/30/2022	02:57	-132.227	48.964	0	342.40	0	5.0390	0	33.9570	0	26.847	0	339.216	0	56.7	4	18.3	4	-1E+10	1	-1E+10	1	-1E+10	1	-1E+10	1	-1E+10	1	-1E+10	1
4902551	71	C	07/30/2022	02:57	-132.227	48.964	0	343.40	0	5.0480	0	33.9640	0	26.852	0	340.206	0	56.3	4	18.2	4	-1E+10	1	-1E+10	1	-1E+10	1	-1E+10	1	-1E+10	1	-1E+10	1
4902551	71	C	07/30/2022	02:57	-132.227	48.964	0	344.30	0	5.0480	0	33.9710	0	26.857	0	341.096	0	56.1	4	18.1	4	-1E+10	1	-1E+10	1	-1E+10	1	-1E+10	1	-1E+10	1	-1E+10	1
4902551	71	C	07/30/2022	02:57	-132.227	48.964	0	345.40	0	5.0360	0	33.9680	0	26.856	0	342.185	0	55.9	4	18.1	4	-1E+10	1	-1E+10	1	-1E+10	1	-1E+10	1	-1E+10	1	-1E+10	1
4902551	71	C	07/30/2022	02:57	-132.227	48.964	0	346.30	0	5.0340	0	33.9700	0	26.858	0	343.076	0	55.7	4	18.0	4	-1E+10	1	-1E+10	1	-1E+10	1	-1E+10	1	-1E+10	1	-1E+10	1
4902551	71	C	07/30/2022	02:57	-132.227	48.964	0	347.30	0	5.0320	0	33.9700	0	26.858	0	344.066	0	55.4	4	17.9	4	-1E+10	1	-1E+10	1	-1E+10	1	-1E+10	1	-1E+10	1	-1E+10	1
4902551	71	C	07/30/2022	02:57	-132.227	48.964	0	348.30	0	5.0330	0	33.9680	0	26.857	0	345.056	0	55.1	4	17.8	4	-1E+10	1	-1E+10	1	-1E+10	1	-1E+10	1	-1E+10	1	-1E+10	1
4902551	71	C	07/30/2022	02:57	-132.227	48.964	0	349.30	0	5.0330	0	33.9690	0	26.857	0	346.046	0	54.8	4	17.7	4	-1E+10	1	-1E+10	1	-1E+10	1	-1E+10	1	-1E+10	1	-1E+10	1
4902551	71	C	07/30/2022	02:57	-132.227	48.964	0	350.30	0	5.0340	0	33.9670	0	26.856	0	347.036	0	54.4	4	17.6	4	-1E+10	1	-1E+10	1	-1E+10	1	-1E+10	1	-1E+10	1	-1E+10	1
4902551	71	C	07/30/2022	02:57	-132.227	48.964	0	352.90	0	5.0230	0	33.9730	0	26.862	0	349.609	0	53.4	4	17.3	4	-1E+10	1	-1E+10	1	-1E+10	1	-1E+10	1	-1E+10	1	-1E+10	1
4902551	71	C	07/30/2022	02:57	-132.227	48.964	0	357.60	0	5.0020	0	33.9770	0	26.867	0	354.261	0	51.7	4	16.7	4	-1E+10	1	-1E+10	1	-1E+10	1	-1E+10	1	-1E+10	1	-1E+10	1
4902551	71	C	07/30/2022	02:57	-132.227	48.964	0	362.70	0	5.0080	0	33.9880	0	26.875	0	359.309	0	50.2	4	16.2	4	-1E+10	1	-1E+10	1	-1E+10	1	-1E+10	1	-1E+10	1	-1E+10	1
4902551	71	C	07/30/2022	02:57	-132.227	48.964	0	367.80	0	4.9860	0	33.9920	0	26.881	0	364.357	0	48.8	4	15.8	4	-1E+10	1	-1E+10	1	-1E+10	1	-1E+10	1	-1E+10	1	-1E+10	1
4902551	71	C	07/30/2022	02:57	-132.227	48.964	0	372.90	0	4.9510	0	33.9990	0	26.891	0	369.405	0	47.6	4	15.4	4	-1E+10	1	-1E+10	1	-1E+10	1	-1E+10	1	-1E+10	1	-1E+10	1
4902551	71	C	07/30/2022	02:57	-132.227	48.964	0	378.10	0	4.9390	0	34.0030	0	26.895	0	374.552	0	46.3	4	14.9	4	-1E+10	1	-1E+10	1	-1E+10	1	-1E+10	1	-1E+10	1	-1E+10	1
4902551	71	C	07/30/2022	02:57	-132.227	48.964	0	383.20	0	4.8950	0	34.0090	0	26.905	0	379.599	0	44.8	4	14.4	4	-1E+10	1	-1E+10	1	-1E+10	1	-1E+10	1	-1E+10	1	-1E+10	1
4902551	71	C	07/30/2022	02:57	-132.227	48.964	0	388.30	0	4.8960	0	34.0130	0	26.908	0	384.646	0	43.5	4	14.0	4	-1E+10	1	-1E+10	1	-1E+10	1	-1E+10	1	-1E+10	1	-1E+10	1
4902551	71	C	07/30/2022	02:57	-132.227	48.964	0	393.40	0	4.8830	0	34.0190	0	26.914	0	389.694	0	42.2	4	13.6	4	-1E+10	1	-1E+10	1	-1E+10	1	-1E+10	1	-1E+10	1	-1E+10	1
4902551	71	C	07/30/2022	02:57	-132.227	48.964	0	398.00	0	4.8620	0	34.0260	0	26.922	0	394.246	0	41.3	4	13.3	4	-1E+10	1	-1E+10	1	-1E+10	1	-1E+10	1	-1E+10	1	-1E+10	1
4902551	71	C	07/30/2022	02:57	-132.227	48.964	0	402.60	0	4.8350	0	34.0300	0	26.929	0	398.798	0	40.4	4	13.0	4	-1E+10	1	-1E+10	1	-1E+10	1	-1E+10	1	-1E+10	1	-1E+10	1
4902551	71	C	07/30/2022	02:57	-132.227	48.964	0	407.60	0	4.8110	0	34.0330	0	26.934	0	403.746	0	39.3	4	12.6	4	-1E+10	1	-1E+10	1	-1E+10	1	-1E+10	1	-1E+10	1	-1E+10	1
4902551	71	C	07/30/2022	02:57	-132.227	48.964	0	412.70	0	4.7950	0	34.0380	0	26.939	0	408.793	0	38.3	4	12.3	4	-1E+10	1	-1E+10	1	-1E+10	1	-1E+10	1	-1E+10	1	-1E+10	1
4902551	71	C	07/30/2022	02:57	-132.227	48.964	0	417.80	0	4.7720	0	34.0410	0	26.944	0	413.839	0	37.1	4	11.9	4	-1E+10	1	-1E+10	1	-1E+10	1	-1E+10	1	-1E+10	1	-1E+10	1
4902551	71	C	07/30/2022	02:57	-132.227	48.964	0	422.80	0	4.7220	0	34.0500	0	26.957	0	418.787	0	35.9	4	11.5	4	-1E+10	1	-1E+10	1	-1E+10	1	-1E+10	1	-1E+10	1	-1E+10	1
4902551	71	C	07/30/2022	02:57	-132.227	48.964	0	427.90	0	4.6790	0	34.0530	0	26.964	0	423.833	0	35.0	4	11.2	4	-1E+10	1	-1E+10	1	-1E+10	1	-1E+10	1	-1E+10	1	-1E+10	1
4902551	71	C	07/30/2022	02:57	-132.227	48.964	0	433.00	0	4.6520	0	34.0590	0	26.972	0	428.880	0	34.1	4	10.9	4	-1E+10	1	-1E+10	1	-1E+10	1	-1E+10	1	-1E+10	1	-1E+10	1
4902551	71	C	07/30/2022	02:57	-132.227	48.964	0	438.20	0	4.6460	0	34.0650	0	26.977	0	434.025	0	33.4	4	10.7	4	-1E+10	1	-1E+10	1	-1E+10	1	-1E+10	1	-1E+10	1	-1E+10	1
4902551	71	C	07/30/2022	02:57	-132.227	48.964	0	442.90	0	4.6110	0	34.0700	0	26.985	0	438.675	0	33.0	4	10.6	4	-1E+10	1	-1E+10	1	-1E+10	1	-1E+10	1	-1E+10	1	-1E+10	1
4902551	71	C	07/30/2022	02:57	-132.227	48.964	0	447.60	0	4.5870	0	34.0690	0	26.987	0	443.325	0	32.5	4	10.4	4	-1E+10	1	-1E+10	1	-1E+10	1	-1E+10	1	-1E+10	1	-1E+10	1
4902551	71	C	07/30/2022	02:57	-132.227	48.964	0	452.80	0	4.5910	0	34.0700	0	26.988	0	448.470	0	32.0	4	10.2	4	-1E+10	1	-1E+10	1	-1E+10	1	-1E+10	1	-1E+10	1	-1E+10	1
4902551	71	C	07/30/2022	02:57	-132.227	48.964	0	458.00	0	4.5770	0	34.0760	0	26.994	0	453.614	0	31.7	4	10.1	4	-1E+10	1	-1E+10	1	-1E+10	1	-1E+10	1	-1E+10	1	-1E+10	1
4902551	71	C	07/30/2022	02:57	-132.227	48.964	0	463.20	0	4.5630	0	34.0740	0	26.994	0	458.759	0	31.3	4	10.0	4	-1E+10	1	-1E+10	1	-1E+10	1	-1E+10	1	-1E+10	1	-1E+10	1
4902551	71	C	07/30/2022	02:57	-132.227	48.964	0	467.80	0	4.5410	0	34.0780	0	26.999	0	463.310	0	30.6	4	9.8	4	-1E+10	1	-1E+10	1	-1E+10	1	-1E+10	1	-1E+10	1	-1E+10	1
4902551	71	C	07/30/2022	02:57	-132.227	48.964	0	472.90	0	4.5300	0	34.0790	0	27.001	0	468.355	0	29.8	4	9.5	4	-1E+10	1	-1E+10	1	-1E+10	1	-1E+10	1	-1E+10	1	-1E+10	1
4902551	71	C	07/30/2022	02:57	-132.227	48.964	0	477.90	0	4.5130	0	34.0860	0	27.009	0	473.301	0	28.7	4	9.2	4	-1E+10	1	-1E+10	1	-1E+10	1	-1E+10	1	-1E+10	1	-1E+10	1
4902551	71	C	07/30/2022	02:57	-132.227	48.964	0	482.70	0	4.4930	0	34.0920	0	27.016	0	478.049	0	27.9	4	8.9	4	-1E+10	1	-1E+10	1	-1E+10	1	-1E+10	1	-1E+10	1	-1E+10	1
4902551	71	C	07/30/2022	02:57	-132.227	48.964	0	487.60	0	4.4800	0	34.0960	0	27.020	0	482.896	0	27.1	4	8.6	4	-1E+10	1	-1E+10	1	-1E+10	1	-1E+10	1	-1E+10	1	-1E+10	1
4902551	71	C	07/30/2022	02:57	-132.227	48.964	0	492.60	0	4.4630	0	34.1010	0	27.026	0	487.842	0	26.3	4	8.4	4	-1E+10	1	-1E+10	1	-1E+10	1	-1E+10	1	-1E+10	1	-1E+10	1
4902551	71	C	07/30/2022	02:57	-132.227	48.964	0	497.70	0	4.4440	0	34.1070	0	27.033	0	492.887	0	25.6	4	8.2	4	-1E+10	1	-1E+10	1	-1E+10	1	-1E+10	1	-1E+10	1	-1E+10	1
4902551	71	C	07/30/2022	02:57	-132.227	48.964	0	502.90	0	4.4020	0	34.1120	0	27.042	0	498.031	0	24.9	4	7.9	4	-1E+10	1	-1E+10	1	-1E+10	1	-1E+10	1	-1E+10	1	-1E+10	1
4902551	71	C	07/30/2022	02:57	-132.227	48.964	0	507.90	0	4.3910	0	34.1150	0	27.045	0	502.976	0	24.4	4	7.8	4	-1E+10	1	-1E+10	1	-1E+10	1	-1E+10	1	-1E+10	1	-1E+10	1
4902551	71	C	07/30/2022	02:57	-132.227	48.964	0	512.90	0	4.3830	0	34.1170	0	27.048	0	507.922	0	23.8	4	7.6	4	-1E+10	1	-1E+10	1	-1E+10	1	-1E+10	1	-1E+10	1	-1E+10	1
4902551	71	C	07/30/2022	02:57	-132.227	48.964	0	518.00	0	4.3810	0	34.1200	0	27.050	0	512.966	0	23.0	4	7.3	4	-1E+10	1	-1E+10	1	-1E+10	1	-1E+10	1	-1E+10	1	-1E+10	1
4902551	71	C	07/30/2022	02:57	-132.227	48.964	0	522.80	0	4.3760	0	34.1240	0	27.054	0	517.713	0	22.3	4	7.1	4	-1E+10	1	-1E+10	1	-1E+10	1	-1E+10	1	-1E+10	1	-1E+10	1
4902551	71	C	07/30/2022	02:57	-132.227	48.964	0	527.80	0	4.3700	0	34.1310	0	27.060	0	522.658	0	21.6	4	6.9	4	-1E+10	1	-1E+10	1	-1E+10	1	-1E+10	1	-1E+10	1	-1E+10	1
4902551	71	C	07/30/2022	02:57	-132.227	48.964	0	532.80	0	4.3390	0	34.1370	0	27.068	0	527.603	0	20.8	4	6.6	4	-1E+10	1	-1E+10	1	-1E+10	1	-1E+10	1	-1E+10	1	-1E+10	1
4902551	71	C	07/30/2022	02:57	-132.227	48.964	0	537.90	0	4.3220	0	34.1420	0	27.074	0	532.647	0	20.2	4	6.4	4	-1E+10	1	-1E+10	1	-1E+10	1	-1E+10	1	-1E+10	1	-1E+10	1
4902551	71	C	07/30/2022	02:57	-132.227	48.964	0	542.90	0	4.3130	0	34.1470	0	27.079	0	537.592	0	19.6	4	6.2	4	-1E+10	1	-1E+10	1	-1E+10	1	-1E+10	1	-1E+10	1	-1E+10	1
4902551	71	C	07/30/2022	02:57	-132.227	48.964	0	548.00	0	4.3040	0	34.1550	0	27.087	0	542.635	0	19.3	4	6.1	4	-1E+10	1	-1E+10	1	-1E+10	1	-1E+10	1	-1E+10	1	-1E+10	1
4902551	71	C	07/30/2022	02:57	-132.227	48.964	0	553.00	0	4.2910	0	34.1570	0	27.090	0	547.580	0	19.2	4	6.1	4	-1E+10	1	-1E+10	1	-1E+10	1	-1E+10	1	-1E+10	1	-1E+10	1
4902551	71	C	07/30/2022	02:57	-132.227	48.964	0	558.20	0	4.2570	0	34.1590	0	27.095	0	552.722	0	19.3	4	6.1	4	-1E+10	1	-1E+10	1	-1E+10	1	-1E+10	1	-1E+10	1	-1E+10	1
4902551	71	C	07/30/2022	02:57	-132.227	48.964	0	563.40	0	4.2280	0	34.1600	0	27.099	0	557.864	0	19.2	4	6.1	4	-1E+10	1	-1E+10	1	-1E+10	1	-1E+10	1	-1E+10	1	-1E+10	1
4902551	71	C	07/30/2022	02:57	-132.227	48.964	0	568.00	0	4.1790	0	34.1590	0	27.103	0	562.412	0	18.6	4	5.9	4	-1E+10	1	-1E+10	1	-1E+10	1	-1E+10	1	-1E+10	1	-1E+10	1
4902551	71	C	07/30/2022	02:57	-132.227	48.964	0	572.70	0	4.1860	0	34.1630	0	27.106	0	567.060	0	17.9	4	5.7	4	-1E+10	1	-1E+10	1	-1E+10	1	-1E+10	1	-1E+10	1	-1E+10	1
4902551	71	C	07/30/2022	02:57	-132.227	48.964	0	577.90	0	4.2030	0	34.1710	0	27.110	0	572.201	0	17.3	4	5.5	4	-1E+10	1	-1E+10	1	-1E+10	1	-1E+10	1	-1E+10	1	-1E+10	1
4902551	71	C	07/30/2022	02:57	-132.227	48.964	0	583.00	0	4.2040	0	34.1770	0	27.115	0	577.244	0	17.0	4	5.4	4	-1E+10	1	-1E+10	1	-1E+10	1	-1E+10	1	-1E+10	1	-1E+10	1
4902551	71	C	07/30/2022	02:57	-132.227	48.964	0	588.20	0	4.1950	0	34.1790	0	27.117	0	582.385	0	17.0	4	5.4	4	-1E+10	1	-1E+10	1	-1E+10	1	-1E+10	1	-1E+10	1	-1E+10	1
4902551	71	C	07/30/2022	02:57	-132.227	48.964	0	593.40	0	4.1900	0	34.1800	0	27.119	0	587.527	0	17.0	4	5.4	4	-1E+10	1	-1E+10	1	-1E+10	1	-1E+10	1	-1E+10	1	-1E+10	1
4902551	71	C	07/30/2022	02:57	-132.227	48.964	0	598.00	0	4.1740	0	34.1800	0	27.120	0	592.074	0	17.0	4	5.4	4	-1E+10	1	-1E+10	1	-1E+10	1	-1E+10	1	-1E+10	1	-1E+10	1
4902551	71	C	07/30/2022	02:57	-132.227	48.964	0	602.50	0	4.1580	0	34.1810	0	27.123	0	596.523	0	16.9	4	5.4	4	-1E+10	1	-1E+10	1	-1E+10	1	-1E+10	1	-1E+10	1	-1E+10	1
4902551	71	C	07/30/2022	02:57	-132.227	48.964	0	607.60	0	4.1510	0	34.1840	0	27.126	0	601.565	0	17.0	4	5.4	4	-1E+10	1	-1E+10	1	-1E+10	1	-1E+10	1	-1E+10	1	-1E+10	1
4902551	71	C	07/30/2022	02:57	-132.227	48.964	0	612.60	0	4.0890	0	34.1900	0	27.137	0	606.508	0	17.2	4	5.4	4	-1E+10	1	-1E+10	1	-1E+10	1	-1E+10	1	-1E+10	1	-1E+10	1
4902551	71	C	07/30/2022	02:57	-132.227	48.964	0	617.70	0	4.0410	0	34.1830	0	27.137	0	611.550	0	16.6	4	5.2	4	-1E+10	1	-1E+10	1	-1E+10	1	-1E+10	1	-1E+10	1	-1E+10	1
4902551	71	C	07/30/2022	02:57	-132.227	48.964	0	623.10	0	4.0710	0	34.1920	0	27.141	0	616.889	0	15.8	4	5.0	4	-1E+10	1	-1E+10	1	-1E+10	1	-1E+10	1	-1E+10	1	-1E+10	1
4902551	71	C	07/30/2022	02:57	-132.227	48.964	0	628.00	0	4.0600	0	34.2000	0	27.148	0	621.732	0	15.7	4	5.0	4	-1E+10	1	-1E+10	1	-1E+10	1	-1E+10	1	-1E+10	1	-1E+10	1
4902551	71	C	07/30/2022	02:57	-132.227	48.964	0	632.70	0	4.0320	0	34.2030	0	27.154	0	626.378	0	15.8	4	5.0	4	-1E+10	1	-1E+10	1	-1E+10	1	-1E+10	1	-1E+10	1	-1E+10	1
4902551	71	C	07/30/2022	02:57	-132.227	48.964	0	637.90	0	3.9850	0	34.2030	0	27.159	0	631.519	0	15.9	4	5.0	4	-1E+10	1	-1E+10	1	-1E+10	1	-1E+10	1	-1E+10	1	-1E+10	1
4902551	71	C	07/30/2022	02:57	-132.227	48.964	0	643.30	0	3.9600	0	34.2050	0	27.163	0	636.856	0	15.7	4	5.0	4	-1E+10	1	-1E+10	1	-1E+10	1	-1E+10	1	-1E+10	1	-1E+10	1
4902551	71	C	07/30/2022	02:57	-132.227	48.964	0	647.90	0	3.9450	0	34.2080	0	27.167	0	641.403	0	15.6	4	4.9	4	-1E+10	1	-1E+10	1	-1E+10	1	-1E+10	1	-1E+10	1	-1E+10	1
4902551	71	C	07/30/2022	02:57	-132.227	48.964	0	652.70	0	3.9390	0	34.2090	0	27.168	0	646.148	0	15.5	4	4.9	4	-1E+10	1	-1E+10	1	-1E+10	1	-1E+10	1	-1E+10	1	-1E+10	1
4902551	71	C	07/30/2022	02:57	-132.227	48.964	0	658.00	0	3.9290	0	34.2100	0	27.170	0	651.386	0	15.5	4	4.9	4	-1E+10	1	-1E+10	1	-1E+10	1	-1E+10	1	-1E+10	1	-1E+10	1
4902551	71	C	07/30/2022	02:57	-132.227	48.964	0	663.00	0	3.9170	0	34.2130	0	27.174	0	656.328	0	15.3	4	4.8	4	-1E+10	1	-1E+10	1	-1E+10	1	-1E+10	1	-1E+10	1	-1E+10	1
4902551	71	C	07/30/2022	02:57	-132.227	48.964	0	667.90	0	3.9070	0	34.2140	0	27.175	0	661.171	0	15.2	4	4.8	4	-1E+10	1	-1E+10	1	-1E+10	1	-1E+10	1	-1E+10	1	-1E+10	1
4902551	71	C	07/30/2022	02:57	-132.227	48.964	0	672.90	0	3.9030	0	34.2150	0	27.177	0	666.113	0	14.8	4	4.7	4	-1E+10	1	-1E+10	1	-1E+10	1	-1E+10	1	-1E+10	1	-1E+10	1
4902551	71	C	07/30/2022	02:57	-132.227	48.964	0	678.00	0	3.8840	0	34.2220	0	27.184	0	671.153	0	14.5	4	4.6	4	-1E+10	1	-1E+10	1	-1E+10	1	-1E+10	1	-1E+10	1	-1E+10	1
4902551	71	C	07/30/2022	02:57	-132.227	48.964	0	683.20	0	3.8650	0	34.2270	0	27.190	0	676.292	0	14.5	4	4.6	4	-1E+10	1	-1E+10	1	-1E+10	1	-1E+10	1	-1E+10	1	-1E+10	1
4902551	71	C	07/30/2022	02:57	-132.227	48.964	0	687.90	0	3.8540	0	34.2280	0	27.192	0	680.937	0	14.5	4	4.6	4	-1E+10	1	-1E+10	1	-1E+10	1	-1E+10	1	-1E+10	1	-1E+10	1
4902551	71	C	07/30/2022	02:57	-132.227	48.964	0	692.60	0	3.8420	0	34.2300	0	27.195	0	685.581	0	14.7	4	4.6	4	-1E+10	1	-1E+10	1	-1E+10	1	-1E+10	1	-1E+10	1	-1E+10	1
4902551	71	C	07/30/2022	02:57	-132.227	48.964	0	697.70	0	3.8190	0	34.2270	0	27.195	0	690.621	0	14.6	4	4.6	4	-1E+10	1	-1E+10	1	-1E+10	1	-1E+10	1	-1E+10	1	-1E+10	1
4902551	71	C	07/30/2022	02:57	-132.227	48.964	0	702.80	0	3.8100	0	34.2290	0	27.197	0	695.661	0	14.2	4	4.5	4	-1E+10	1	-1E+10	1	-1E+10	1	-1E+10	1	-1E+10	1	-1E+10	1
4902551	71	C	07/30/2022	02:57	-132.227	48.964	0	708.00	0	3.8100	0	34.2330	0	27.201	0	700.799	0	13.7	4	4.3	4	-1E+10	1	-1E+10	1	-1E+10	1	-1E+10	1	-1E+10	1	-1E+10	1
4902551	71	C	07/30/2022	02:57	-132.227	48.964	0	713.20	0	3.8450	0	34.2390	0	27.202	0	705.938	0	13.1	4	4.1	4	-1E+10	1	-1E+10	1	-1E+10	1	-1E+10	1	-1E+10	1	-1E+10	1
4902551	71	C	07/30/2022	02:57	-132.227	48.964	0	717.80	0	3.8630	0	34.2450	0	27.205	0	710.483	0	12.9	4	4.0	4	-1E+10	1	-1E+10	1	-1E+10	1	-1E+10	1	-1E+10	1	-1E+10	1
4902551	71	C	07/30/2022	02:57	-132.227	48.964	0	723.00	0	3.8340	0	34.2500	0	27.212	0	715.621	0	12.7	4	4.0	4	-1E+10	1	-1E+10	1	-1E+10	1	-1E+10	1	-1E+10	1	-1E+10	1
4902551	71	C	07/30/2022	02:57	-132.227	48.964	0	728.30	0	3.8250	0	34.2510	0	27.214	0	720.858	0	12.4	4	3.9	4	-1E+10	1	-1E+10	1	-1E+10	1	-1E+10	1	-1E+10	1	-1E+10	1
4902551	71	C	07/30/2022	02:57	-132.227	48.964	0	733.10	0	3.8240	0	34.2610	0	27.222	0	725.601	0	12.3	4	3.9	4	-1E+10	1	-1E+10	1	-1E+10	1	-1E+10	1	-1E+10	1	-1E+10	1
4902551	71	C	07/30/2022	02:57	-132.227	48.964	0	737.90	0	3.8030	0	34.2610	0	27.224	0	730.343	0	12.3	4	3.9	4	-1E+10	1	-1E+10	1	-1E+10	1	-1E+10	1	-1E+10	1	-1E+10	1
4902551	71	C	07/30/2022	02:57	-132.227	48.964	0	742.70	0	3.7780	0	34.2620	0	27.227	0	735.085	0	12.3	4	3.9	4	-1E+10	1	-1E+10	1	-1E+10	1	-1E+10	1	-1E+10	1	-1E+10	1
4902551	71	C	07/30/2022	02:57	-132.227	48.964	0	747.70	0	3.7570	0	34.2650	0	27.232	0	740.025	0	12.2	4	3.8	4	-1E+10	1	-1E+10	1	-1E+10	1	-1E+10	1	-1E+10	1	-1E+10	1
4902551	71	C	07/30/2022	02:57	-132.227	48.964	0	752.80	0	3.7390	0	34.2680	0	27.236	0	745.064	0	12.0	4	3.8	4	-1E+10	1	-1E+10	1	-1E+10	1	-1E+10	1	-1E+10	1	-1E+10	1
4902551	71	C	07/30/2022	02:57	-132.227	48.964	0	757.80	0	3.7340	0	34.2710	0	27.239	0	750.004	0	11.9	4	3.7	4	-1E+10	1	-1E+10	1	-1E+10	1	-1E+10	1	-1E+10	1	-1E+10	1
4902551	71	C	07/30/2022	02:57	-132.227	48.964	0	762.90	0	3.7390	0	34.2730	0	27.240	0	755.042	0	11.7	4	3.7	4	-1E+10	1	-1E+10	1	-1E+10	1	-1E+10	1	-1E+10	1	-1E+10	1
4902551	71	C	07/30/2022	02:57	-132.227	48.964	0	768.10	0	3.7350	0	34.2780	0	27.244	0	760.179	0	11.6	4	3.6	4	-1E+10	1	-1E+10	1	-1E+10	1	-1E+10	1	-1E+10	1	-1E+10	1
4902551	71	C	07/30/2022	02:57	-132.227	48.964	0	773.20	0	3.7310	0	34.2790	0	27.245	0	765.217	0	11.5	4	3.6	4	-1E+10	1	-1E+10	1	-1E+10	1	-1E+10	1	-1E+10	1	-1E+10	1
4902551	71	C	07/30/2022	02:57	-132.227	48.964	0	778.30	0	3.7280	0	34.2810	0	27.247	0	770.255	0	11.5	4	3.6	4	-1E+10	1	-1E+10	1	-1E+10	1	-1E+10	1	-1E+10	1	-1E+10	1
4902551	71	C	07/30/2022	02:57	-132.227	48.964	0	783.00	0	3.7190	0	34.2830	0	27.250	0	774.898	0	11.4	4	3.6	4	-1E+10	1	-1E+10	1	-1E+10	1	-1E+10	1	-1E+10	1	-1E+10	1
4902551	71	C	07/30/2022	02:57	-132.227	48.964	0	787.70	0	3.7010	0	34.2870	0	27.255	0	779.540	0	11.3	4	3.6	4	-1E+10	1	-1E+10	1	-1E+10	1	-1E+10	1	-1E+10	1	-1E+10	1
4902551	71	C	07/30/2022	02:57	-132.227	48.964	0	792.80	0	3.6780	0	34.2930	0	27.262	0	784.578	0	11.3	4	3.5	4	-1E+10	1	-1E+10	1	-1E+10	1	-1E+10	1	-1E+10	1	-1E+10	1
4902551	71	C	07/30/2022	02:57	-132.227	48.964	0	798.10	0	3.6540	0	34.2960	0	27.267	0	789.813	0	11.3	4	3.5	4	-1E+10	1	-1E+10	1	-1E+10	1	-1E+10	1	-1E+10	1	-1E+10	1
4902551	71	C	07/30/2022	02:57	-132.227	48.964	0	802.80	0	3.6410	0	34.2990	0	27.270	0	794.455	0	11.3	4	3.5	4	-1E+10	1	-1E+10	1	-1E+10	1	-1E+10	1	-1E+10	1	-1E+10	1
4902551	71	C	07/30/2022	02:57	-132.227	48.964	0	807.50	0	3.6340	0	34.2980	0	27.270	0	799.097	0	11.3	4	3.5	4	-1E+10	1	-1E+10	1	-1E+10	1	-1E+10	1	-1E+10	1	-1E+10	1
4902551	71	C	07/30/2022	02:57	-132.227	48.964	0	812.70	0	3.6220	0	34.3000	0	27.273	0	804.233	0	11.3	4	3.5	4	-1E+10	1	-1E+10	1	-1E+10	1	-1E+10	1	-1E+10	1	-1E+10	1
4902551	71	C	07/30/2022	02:57	-132.227	48.964	0	818.00	0	3.6060	0	34.3020	0	27.276	0	809.468	0	11.3	4	3.5	4	-1E+10	1	-1E+10	1	-1E+10	1	-1E+10	1	-1E+10	1	-1E+10	1
4902551	71	C	07/30/2022	02:57	-132.227	48.964	0	822.80	0	3.5930	0	34.3030	0	27.278	0	814.208	0	11.3	4	3.5	4	-1E+10	1	-1E+10	1	-1E+10	1	-1E+10	1	-1E+10	1	-1E+10	1
4902551	71	C	07/30/2022	02:57	-132.227	48.964	0	827.60	0	3.5710	0	34.3060	0	27.283	0	818.949	0	11.3	4	3.5	4	-1E+10	1	-1E+10	1	-1E+10	1	-1E+10	1	-1E+10	1	-1E+10	1
4902551	71	C	07/30/2022	02:57	-132.227	48.964	0	832.90	0	3.5610	0	34.3080	0	27.286	0	824.183	0	11.3	4	3.5	4	-1E+10	1	-1E+10	1	-1E+10	1	-1E+10	1	-1E+10	1	-1E+10	1
4902551	71	C	07/30/2022	02:57	-132.227	48.964	0	838.20	0	3.5520	0	34.3110	0	27.289	0	829.417	0	11.3	4	3.5	4	-1E+10	1	-1E+10	1	-1E+10	1	-1E+10	1	-1E+10	1	-1E+10	1
4902551	71	C	07/30/2022	02:57	-132.227	48.964	0	843.20	0	3.5320	0	34.3120	0	27.292	0	834.354	0	11.3	4	3.5	4	-1E+10	1	-1E+10	1	-1E+10	1	-1E+10	1	-1E+10	1	-1E+10	1
4902551	71	C	07/30/2022	02:57	-132.227	48.964	0	847.90	0	3.5270	0	34.3130	0	27.293	0	838.996	0	11.3	4	3.5	4	-1E+10	1	-1E+10	1	-1E+10	1	-1E+10	1	-1E+10	1	-1E+10	1
4902551	71	C	07/30/2022	02:57	-132.227	48.964	0	852.60	0	3.5160	0	34.3150	0	27.296	0	843.637	0	11.3	4	3.5	4	-1E+10	1	-1E+10	1	-1E+10	1	-1E+10	1	-1E+10	1	-1E+10	1
4902551	71	C	07/30/2022	02:57	-132.227	48.964	0	857.80	0	3.4970	0	34.3190	0	27.301	0	848.772	0	11.3	4	3.5	4	-1E+10	1	-1E+10	1	-1E+10	1	-1E+10	1	-1E+10	1	-1E+10	1
4902551	71	C	07/30/2022	02:57	-132.227	48.964	0	863.10	0	3.4850	0	34.3210	0	27.303	0	854.005	0	11.3	4	3.5	4	-1E+10	1	-1E+10	1	-1E+10	1	-1E+10	1	-1E+10	1	-1E+10	1
4902551	71	C	07/30/2022	02:57	-132.227	48.964	0	868.10	0	3.4740	0	34.3230	0	27.306	0	858.942	0	11.3	4	3.5	4	-1E+10	1	-1E+10	1	-1E+10	1	-1E+10	1	-1E+10	1	-1E+10	1
4902551	71	C	07/30/2022	02:57	-132.227	48.964	0	872.70	0	3.4630	0	34.3250	0	27.309	0	863.484	0	11.3	4	3.5	4	-1E+10	1	-1E+10	1	-1E+10	1	-1E+10	1	-1E+10	1	-1E+10	1
4902551	71	C	07/30/2022	02:57	-132.227	48.964	0	877.80	0	3.4480	0	34.3250	0	27.310	0	868.520	0	11.3	4	3.5	4	-1E+10	1	-1E+10	1	-1E+10	1	-1E+10	1	-1E+10	1	-1E+10	1
4902551	71	C	07/30/2022	02:57	-132.227	48.964	0	882.90	0	3.4380	0	34.3290	0	27.314	0	873.555	0	11.3	4	3.5	4	-1E+10	1	-1E+10	1	-1E+10	1	-1E+10	1	-1E+10	1	-1E+10	1
4902551	71	C	07/30/2022	02:57	-132.227	48.964	0	887.70	0	3.4250	0	34.3310	0	27.317	0	878.294	0	11.3	4	3.5	4	-1E+10	1	-1E+10	1	-1E+10	1	-1E+10	1	-1E+10	1	-1E+10	1
4902551	71	C	07/30/2022	02:57	-132.227	48.964	0	893.00	0	3.4180	0	34.3330	0	27.320	0	883.527	0	11.3	4	3.5	4	-1E+10	1	-1E+10	1	-1E+10	1	-1E+10	1	-1E+10	1	-1E+10	1
4902551	71	C	07/30/2022	02:57	-132.227	48.964	0	898.30	0	3.4010	0	34.3350	0	27.323	0	888.759	0	11.4	4	3.5	4	-1E+10	1	-1E+10	1	-1E+10	1	-1E+10	1	-1E+10	1	-1E+10	1
4902551	71	C	07/30/2022	02:57	-132.227	48.964	0	903.10	0	3.3830	0	34.3360	0	27.325	0	893.498	0	11.4	4	3.5	4	-1E+10	1	-1E+10	1	-1E+10	1	-1E+10	1	-1E+10	1	-1E+10	1
4902551	71	C	07/30/2022	02:57	-132.227	48.964	0	907.90	0	3.3760	0	34.3370	0	27.327	0	898.237	0	11.4	4	3.6	4	-1E+10	1	-1E+10	1	-1E+10	1	-1E+10	1	-1E+10	1	-1E+10	1
4902551	71	C	07/30/2022	02:57	-132.227	48.964	0	912.80	0	3.3560	0	34.3400	0	27.331	0	903.074	0	11.4	4	3.6	4	-1E+10	1	-1E+10	1	-1E+10	1	-1E+10	1	-1E+10	1	-1E+10	1
4902551	71	C	07/30/2022	02:57	-132.227	48.964	0	917.80	0	3.3450	0	34.3420	0	27.334	0	908.010	0	11.5	4	3.6	4	-1E+10	1	-1E+10	1	-1E+10	1	-1E+10	1	-1E+10	1	-1E+10	1
4902551	71	C	07/30/2022	02:57	-132.227	48.964	0	922.70	0	3.3230	0	34.3420	0	27.336	0	912.847	0	11.5	4	3.6	4	-1E+10	1	-1E+10	1	-1E+10	1	-1E+10	1	-1E+10	1	-1E+10	1
4902551	71	C	07/30/2022	02:57	-132.227	48.964	0	927.80	0	3.3170	0	34.3440	0	27.338	0	917.881	0	11.5	4	3.6	4	-1E+10	1	-1E+10	1	-1E+10	1	-1E+10	1	-1E+10	1	-1E+10	1
4902551	71	C	07/30/2022	02:57	-132.227	48.964	0	932.80	0	3.3080	0	34.3450	0	27.340	0	922.817	0	11.5	4	3.6	4	-1E+10	1	-1E+10	1	-1E+10	1	-1E+10	1	-1E+10	1	-1E+10	1
4902551	71	C	07/30/2022	02:57	-132.227	48.964	0	937.80	0	3.2920	0	34.3470	0	27.343	0	927.752	0	11.6	4	3.6	4	-1E+10	1	-1E+10	1	-1E+10	1	-1E+10	1	-1E+10	1	-1E+10	1
4902551	71	C	07/30/2022	02:57	-132.227	48.964	0	942.80	0	3.2870	0	34.3480	0	27.344	0	932.688	0	11.6	4	3.6	4	-1E+10	1	-1E+10	1	-1E+10	1	-1E+10	1	-1E+10	1	-1E+10	1
4902551	71	C	07/30/2022	02:57	-132.227	48.964	0	947.80	0	3.2850	0	34.3510	0	27.347	0	937.623	0	11.6	4	3.6	4	-1E+10	1	-1E+10	1	-1E+10	1	-1E+10	1	-1E+10	1	-1E+10	1
4902551	71	C	07/30/2022	02:57	-132.227	48.964	0	952.80	0	3.2660	0	34.3540	0	27.351	0	942.558	0	11.6	4	3.6	4	-1E+10	1	-1E+10	1	-1E+10	1	-1E+10	1	-1E+10	1	-1E+10	1
4902551	71	C	07/30/2022	02:57	-132.227	48.964	0	957.80	0	3.2540	0	34.3550	0	27.353	0	947.493	0	11.7	4	3.6	4	-1E+10	1	-1E+10	1	-1E+10	1	-1E+10	1	-1E+10	1	-1E+10	1
4902551	71	C	07/30/2022	02:57	-132.227	48.964	0	962.80	0	3.2430	0	34.3570	0	27.356	0	952.428	0	11.7	4	3.6	4	-1E+10	1	-1E+10	1	-1E+10	1	-1E+10	1	-1E+10	1	-1E+10	1
4902551	71	C	07/30/2022	02:57	-132.227	48.964	0	967.80	0	3.2310	0	34.3600	0	27.359	0	957.362	0	11.7	4	3.6	4	-1E+10	1	-1E+10	1	-1E+10	1	-1E+10	1	-1E+10	1	-1E+10	1
4902551	71	C	07/30/2022	02:57	-132.227	48.964	0	972.70	0	3.2090	0	34.3630	0	27.364	0	962.198	0	11.8	4	3.7	4	-1E+10	1	-1E+10	1	-1E+10	1	-1E+10	1	-1E+10	1	-1E+10	1
4902551	71	C	07/30/2022	02:57	-132.227	48.964	0	977.60	0	3.1980	0	34.3630	0	27.365	0	967.034	0	11.8	4	3.7	4	-1E+10	1	-1E+10	1	-1E+10	1	-1E+10	1	-1E+10	1	-1E+10	1
4902551	71	C	07/30/2022	02:57	-132.227	48.964	0	982.90	0	3.1890	0	34.3650	0	27.367	0	972.264	0	11.8	4	3.7	4	-1E+10	1	-1E+10	1	-1E+10	1	-1E+10	1	-1E+10	1	-1E+10	1
4902551	71	C	07/30/2022	02:57	-132.227	48.964	0	988.10	0	3.1760	0	34.3680	0	27.371	0	977.396	0	11.9	4	3.7	4	-1E+10	1	-1E+10	1	-1E+10	1	-1E+10	1	-1E+10	1	-1E+10	1
4902551	71	C	07/30/2022	02:57	-132.227	48.964	0	992.90	0	3.1670	0	34.3700	0	27.373	0	982.133	0	11.9	4	3.7	4	-1E+10	1	-1E+10	1	-1E+10	1	-1E+10	1	-1E+10	1	-1E+10	1
4902551	71	C	07/30/2022	02:57	-132.227	48.964	0	997.70	0	3.1530	0	34.3740	0	27.378	0	986.869	0	12.0	4	3.7	4	-1E+10	1	-1E+10	1	-1E+10	1	-1E+10	1	-1E+10	1	-1E+10	1
4902551	71	C	07/30/2022	02:57	-132.227	48.964	0	1005.30	0	3.1430	0	34.3800	0	27.383	0	994.369	0	12.0	4	3.7	4	-1E+10	1	-1E+10	1	-1E+10	1	-1E+10	1	-1E+10	1	-1E+10	1
4902551	71	C	07/30/2022	02:57	-132.227	48.964	0	1015.50	0	3.1260	0	34.3840	0	27.388	0	1004.434	0	12.1	4	3.8	4	-1E+10	1	-1E+10	1	-1E+10	1	-1E+10	1	-1E+10	1	-1E+10	1
4902551	71	C	07/30/2022	02:57	-132.227	48.964	0	1025.50	0	3.1040	0	34.3870	0	27.393	0	1014.300	0	12.3	4	3.8	4	-1E+10	1	-1E+10	1	-1E+10	1	-1E+10	1	-1E+10	1	-1E+10	1
4902551	71	C	07/30/2022	02:57	-132.227	48.964	0	1035.50	0	3.0810	0	34.3920	0	27.399	0	1024.167	0	12.5	4	3.9	4	-1E+10	1	-1E+10	1	-1E+10	1	-1E+10	1	-1E+10	1	-1E+10	1
4902551	71	C	07/30/2022	02:57	-132.227	48.964	0	1045.30	0	3.0630	0	34.3940	0	27.402	0	1033.835	0	12.5	4	3.9	4	-1E+10	1	-1E+10	1	-1E+10	1	-1E+10	1	-1E+10	1	-1E+10	1
4902551	71	C	07/30/2022	02:57	-132.227	48.964	0	1055.40	0	3.0430	0	34.3950	0	27.405	0	1043.800	0	12.6	4	3.9	4	-1E+10	1	-1E+10	1	-1E+10	1	-1E+10	1	-1E+10	1	-1E+10	1
4902551	71	C	07/30/2022	02:57	-132.227	48.964	0	1065.20	0	3.0260	0	34.3980	0	27.409	0	1053.467	0	12.8	4	4.0	4	-1E+10	1	-1E+10	1	-1E+10	1	-1E+10	1	-1E+10	1	-1E+10	1
4902551	71	C	07/30/2022	02:57	-132.227	48.964	0	1075.30	0	3.0140	0	34.4020	0	27.413	0	1063.430	0	13.0	4	4.0	4	-1E+10	1	-1E+10	1	-1E+10	1	-1E+10	1	-1E+10	1	-1E+10	1
4902551	71	C	07/30/2022	02:57	-132.227	48.964	0	1085.50	0	2.9880	0	34.4070	0	27.420	0	1073.492	0	13.2	4	4.1	4	-1E+10	1	-1E+10	1	-1E+10	1	-1E+10	1	-1E+10	1	-1E+10	1
4902551	71	C	07/30/2022	02:57	-132.227	48.964	0	1095.50	0	2.9620	0	34.4100	0	27.424	0	1083.355	0	13.3	4	4.1	4	-1E+10	1	-1E+10	1	-1E+10	1	-1E+10	1	-1E+10	1	-1E+10	1
4902551	71	C	07/30/2022	02:57	-132.227	48.964	0	1105.30	0	2.9480	0	34.4130	0	27.428	0	1093.021	0	13.5	4	4.2	4	-1E+10	1	-1E+10	1	-1E+10	1	-1E+10	1	-1E+10	1	-1E+10	1
4902551	71	C	07/30/2022	02:57	-132.227	48.964	0	1115.20	0	2.9310	0	34.4150	0	27.431	0	1102.785	0	13.6	4	4.2	4	-1E+10	1	-1E+10	1	-1E+10	1	-1E+10	1	-1E+10	1	-1E+10	1
4902551	71	C	07/30/2022	02:57	-132.227	48.964	0	1125.30	0	2.9100	0	34.4180	0	27.436	0	1112.746	0	13.8	4	4.3	4	-1E+10	1	-1E+10	1	-1E+10	1	-1E+10	1	-1E+10	1	-1E+10	1
4902551	71	C	07/30/2022	02:57	-132.227	48.964	0	1135.50	0	2.8930	0	34.4200	0	27.439	0	1122.805	0	14.0	4	4.3	4	-1E+10	1	-1E+10	1	-1E+10	1	-1E+10	1	-1E+10	1	-1E+10	1
4902551	71	C	07/30/2022	02:57	-132.227	48.964	0	1145.40	0	2.8640	0	34.4250	0	27.445	0	1132.568	0	14.2	4	4.4	4	-1E+10	1	-1E+10	1	-1E+10	1	-1E+10	1	-1E+10	1	-1E+10	1
4902551	71	C	07/30/2022	02:57	-132.227	48.964	0	1155.30	0	2.8440	0	34.4270	0	27.449	0	1142.330	0	14.4	4	4.4	4	-1E+10	1	-1E+10	1	-1E+10	1	-1E+10	1	-1E+10	1	-1E+10	1
4902551	71	C	07/30/2022	02:57	-132.227	48.964	0	1165.40	0	2.8260	0	34.4300	0	27.453	0	1152.289	0	14.6	4	4.5	4	-1E+10	1	-1E+10	1	-1E+10	1	-1E+10	1	-1E+10	1	-1E+10	1
4902551	71	C	07/30/2022	02:57	-132.227	48.964	0	1175.30	0	2.8070	0	34.4330	0	27.457	0	1162.050	0	14.8	4	4.6	4	-1E+10	1	-1E+10	1	-1E+10	1	-1E+10	1	-1E+10	1	-1E+10	1
4902551	71	C	07/30/2022	02:57	-132.227	48.964	0	1185.40	0	2.7920	0	34.4350	0	27.460	0	1172.008	0	15.0	4	4.6	4	-1E+10	1	-1E+10	1	-1E+10	1	-1E+10	1	-1E+10	1	-1E+10	1
4902551	71	C	07/30/2022	02:57	-132.227	48.964	0	1195.60	0	2.7710	0	34.4380	0	27.464	0	1182.064	0	15.2	4	4.7	4	-1E+10	1	-1E+10	1	-1E+10	1	-1E+10	1	-1E+10	1	-1E+10	1
4902551	71	C	07/30/2022	02:57	-132.227	48.964	0	1205.50	0	2.7570	0	34.4400	0	27.467	0	1191.824	0	15.3	4	4.7	4	-1E+10	1	-1E+10	1	-1E+10	1	-1E+10	1	-1E+10	1	-1E+10	1
4902551	71	C	07/30/2022	02:57	-132.227	48.964	0	1215.40	0	2.7470	0	34.4410	0	27.469	0	1201.583	0	15.5	4	4.8	4	-1E+10	1	-1E+10	1	-1E+10	1	-1E+10	1	-1E+10	1	-1E+10	1
4902551	71	C	07/30/2022	02:57	-132.227	48.964	0	1225.70	0	2.7240	0	34.4450	0	27.474	0	1211.737	0	15.9	4	4.9	4	-1E+10	1	-1E+10	1	-1E+10	1	-1E+10	1	-1E+10	1	-1E+10	1
4902551	71	C	07/30/2022	02:57	-132.227	48.964	0	1235.50	0	2.7010	0	34.4490	0	27.479	0	1221.397	0	16.2	4	5.0	4	-1E+10	1	-1E+10	1	-1E+10	1	-1E+10	1	-1E+10	1	-1E+10	1
4902551	71	C	07/30/2022	02:57	-132.227	48.964	0	1245.40	0	2.6890	0	34.4510	0	27.482	0	1231.155	0	16.5	4	5.1	4	-1E+10	1	-1E+10	1	-1E+10	1	-1E+10	1	-1E+10	1	-1E+10	1
4902551	71	C	07/30/2022	02:57	-132.227	48.964	0	1255.30	0	2.6730	0	34.4540	0	27.486	0	1240.912	0	16.9	4	5.2	4	-1E+10	1	-1E+10	1	-1E+10	1	-1E+10	1	-1E+10	1	-1E+10	1
4902551	71	C	07/30/2022	02:57	-132.227	48.964	0	1265.00	0	2.6550	0	34.4580	0	27.491	0	1250.472	0	17.3	4	5.3	4	-1E+10	1	-1E+10	1	-1E+10	1	-1E+10	1	-1E+10	1	-1E+10	1
4902551	71	C	07/30/2022	02:57	-132.227	48.964	0	1275.20	0	2.6360	0	34.4600	0	27.494	0	1260.525	0	17.6	4	5.4	4	-1E+10	1	-1E+10	1	-1E+10	1	-1E+10	1	-1E+10	1	-1E+10	1
4902551	71	C	07/30/2022	02:57	-132.227	48.964	0	1285.30	0	2.6200	0	34.4630	0	27.498	0	1270.478	0	18.0	4	5.5	4	-1E+10	1	-1E+10	1	-1E+10	1	-1E+10	1	-1E+10	1	-1E+10	1
4902551	71	C	07/30/2022	02:57	-132.227	48.964	0	1295.10	0	2.6000	0	34.4660	0	27.502	0	1280.135	0	18.3	4	5.6	4	-1E+10	1	-1E+10	1	-1E+10	1	-1E+10	1	-1E+10	1	-1E+10	1
4902551	71	C	07/30/2022	02:57	-132.227	48.964	0	1305.20	0	2.5840	0	34.4680	0	27.505	0	1290.087	0	18.6	4	5.7	4	-1E+10	1	-1E+10	1	-1E+10	1	-1E+10	1	-1E+10	1	-1E+10	1
4902551	71	C	07/30/2022	02:57	-132.227	48.964	0	1315.50	0	2.5670	0	34.4710	0	27.509	0	1300.236	0	19.0	4	5.8	4	-1E+10	1	-1E+10	1	-1E+10	1	-1E+10	1	-1E+10	1	-1E+10	1
4902551	71	C	07/30/2022	02:57	-132.227	48.964	0	1325.50	0	2.5430	0	34.4740	0	27.513	0	1310.089	0	19.5	4	5.9	4	-1E+10	1	-1E+10	1	-1E+10	1	-1E+10	1	-1E+10	1	-1E+10	1
4902551	71	C	07/30/2022	02:57	-132.227	48.964	0	1335.50	0	2.5320	0	34.4770	0	27.517	0	1319.942	0	20.1	4	6.1	4	-1E+10	1	-1E+10	1	-1E+10	1	-1E+10	1	-1E+10	1	-1E+10	1
4902551	71	C	07/30/2022	02:57	-132.227	48.964	0	1345.30	0	2.5110	0	34.4810	0	27.522	0	1329.597	0	20.6	4	6.3	4	-1E+10	1	-1E+10	1	-1E+10	1	-1E+10	1	-1E+10	1	-1E+10	1
4902551	71	C	07/30/2022	02:57	-132.227	48.964	0	1355.00	0	2.4990	0	34.4830	0	27.524	0	1339.153	0	20.8	4	6.4	4	-1E+10	1	-1E+10	1	-1E+10	1	-1E+10	1	-1E+10	1	-1E+10	1
4902551	71	C	07/30/2022	02:57	-132.227	48.964	0	1365.00	0	2.4740	0	34.4850	0	27.528	0	1349.004	0	20.8	4	6.4	4	-1E+10	1	-1E+10	1	-1E+10	1	-1E+10	1	-1E+10	1	-1E+10	1
4902551	71	C	07/30/2022	02:57	-132.227	48.964	0	1375.50	0	2.4490	0	34.4870	0	27.532	0	1359.347	0	21.0	4	6.4	4	-1E+10	1	-1E+10	1	-1E+10	1	-1E+10	1	-1E+10	1	-1E+10	1
4902551	71	C	07/30/2022	02:57	-132.227	48.964	0	1385.50	0	2.4330	0	34.4890	0	27.535	0	1369.197	0	21.3	4	6.5	4	-1E+10	1	-1E+10	1	-1E+10	1	-1E+10	1	-1E+10	1	-1E+10	1
4902551	71	C	07/30/2022	02:57	-132.227	48.964	0	1395.60	0	2.4210	0	34.4910	0	27.537	0	1379.145	0	21.8	4	6.6	4	-1E+10	1	-1E+10	1	-1E+10	1	-1E+10	1	-1E+10	1	-1E+10	1
4902551	71	C	07/30/2022	02:57	-132.227	48.964	0	1405.60	0	2.4110	0	34.4930	0	27.540	0	1388.994	0	22.2	4	6.8	4	-1E+10	1	-1E+10	1	-1E+10	1	-1E+10	1	-1E+10	1	-1E+10	1
4902551	71	C	07/30/2022	02:57	-132.227	48.964	0	1415.50	0	2.4010	0	34.4950	0	27.542	0	1398.745	0	22.6	4	6.9	4	-1E+10	1	-1E+10	1	-1E+10	1	-1E+10	1	-1E+10	1	-1E+10	1
4902551	71	C	07/30/2022	02:57	-132.227	48.964	0	1425.20	0	2.3950	0	34.4960	0	27.544	0	1408.297	0	22.9	4	7.0	4	-1E+10	1	-1E+10	1	-1E+10	1	-1E+10	1	-1E+10	1	-1E+10	1
4902551	71	C	07/30/2022	02:57	-132.227	48.964	0	1435.40	0	2.3830	0	34.4980	0	27.546	0	1418.342	0	23.7	4	7.2	4	-1E+10	1	-1E+10	1	-1E+10	1	-1E+10	1	-1E+10	1	-1E+10	1
4902551	71	C	07/30/2022	02:57	-132.227	48.964	0	1445.50	0	2.3660	0	34.5020	0	27.551	0	1428.288	0	24.5	4	7.4	4	-1E+10	1	-1E+10	1	-1E+10	1	-1E+10	1	-1E+10	1	-1E+10	1
4902551	71	C	07/30/2022	02:57	-132.227	48.964	0	1455.20	0	2.3640	0	34.5030	0	27.552	0	1437.840	0	25.2	4	7.7	4	-1E+10	1	-1E+10	1	-1E+10	1	-1E+10	1	-1E+10	1	-1E+10	1
4902551	71	C	07/30/2022	02:57	-132.227	48.964	0	1465.50	0	2.3640	0	34.5060	0	27.554	0	1447.981	0	26.3	4	8.0	4	-1E+10	1	-1E+10	1	-1E+10	1	-1E+10	1	-1E+10	1	-1E+10	1
4902551	71	C	07/30/2022	02:57	-132.227	48.964	0	1475.50	0	2.3460	0	34.5090	0	27.558	0	1457.827	0	26.5	4	8.1	4	-1E+10	1	-1E+10	1	-1E+10	1	-1E+10	1	-1E+10	1	-1E+10	1
4902551	71	C	07/30/2022	02:57	-132.227	48.964	0	1485.20	0	2.3380	0	34.5100	0	27.560	0	1467.377	0	26.8	4	8.1	4	-1E+10	1	-1E+10	1	-1E+10	1	-1E+10	1	-1E+10	1	-1E+10	1
4902551	71	C	07/30/2022	02:57	-132.227	48.964	0	1495.30	0	2.3320	0	34.5100	0	27.560	0	1477.321	0	26.9	4	8.2	4	-1E+10	1	-1E+10	1	-1E+10	1	-1E+10	1	-1E+10	1	-1E+10	1
4902551	71	C	07/30/2022	02:57	-132.227	48.964	0	1505.40	0	2.3290	0	34.5110	0	27.562	0	1487.264	0	27.4	4	8.3	4	-1E+10	1	-1E+10	1	-1E+10	1	-1E+10	1	-1E+10	1	-1E+10	1
4902551	71	C	07/30/2022	02:57	-132.227	48.964	0	1515.20	0	2.3250	0	34.5130	0	27.564	0	1496.911	0	27.8	4	8.4	4	-1E+10	1	-1E+10	1	-1E+10	1	-1E+10	1	-1E+10	1	-1E+10	1
4902551	71	C	07/30/2022	02:57	-132.227	48.964	0	1525.00	0	2.3010	0	34.5160	0	27.568	0	1506.558	0	27.9	4	8.5	4	-1E+10	1	-1E+10	1	-1E+10	1	-1E+10	1	-1E+10	1	-1E+10	1
4902551	71	C	07/30/2022	02:57	-132.227	48.964	0	1535.10	0	2.2910	0	34.5160	0	27.569	0	1516.500	0	28.3	4	8.6	4	-1E+10	1	-1E+10	1	-1E+10	1	-1E+10	1	-1E+10	1	-1E+10	1
4902551	71	C	07/30/2022	02:57	-132.227	48.964	0	1545.10	0	2.2850	0	34.5180	0	27.571	0	1526.343	0	28.8	4	8.7	4	-1E+10	1	-1E+10	1	-1E+10	1	-1E+10	1	-1E+10	1	-1E+10	1
4902551	71	C	07/30/2022	02:57	-132.227	48.964	0	1555.20	0	2.2740	0	34.5200	0	27.574	0	1536.283	0	29.4	4	8.9	4	-1E+10	1	-1E+10	1	-1E+10	1	-1E+10	1	-1E+10	1	-1E+10	1
4902551	71	C	07/30/2022	02:57	-132.227	48.964	0	1565.50	0	2.2700	0	34.5210	0	27.575	0	1546.420	0	29.8	4	9.1	4	-1E+10	1	-1E+10	1	-1E+10	1	-1E+10	1	-1E+10	1	-1E+10	1
4902551	71	C	07/30/2022	02:57	-132.227	48.964	0	1575.80	0	2.2590	0	34.5230	0	27.577	0	1556.557	0	30.7	4	9.3	4	-1E+10	1	-1E+10	1	-1E+10	1	-1E+10	1	-1E+10	1	-1E+10	1
4902551	71	C	07/30/2022	02:57	-132.227	48.964	0	1585.50	0	2.2500	0	34.5250	0	27.580	0	1566.103	0	31.5	4	9.6	4	-1E+10	1	-1E+10	1	-1E+10	1	-1E+10	1	-1E+10	1	-1E+10	1
4902551	71	C	07/30/2022	02:57	-132.227	48.964	0	1595.50	0	2.2400	0	34.5270	0	27.582	0	1575.943	0	32.4	4	9.8	4	-1E+10	1	-1E+10	1	-1E+10	1	-1E+10	1	-1E+10	1	-1E+10	1
4902551	71	C	07/30/2022	02:57	-132.227	48.964	0	1605.60	0	2.2300	0	34.5300	0	27.585	0	1585.882	0	33.1	4	10.0	4	-1E+10	1	-1E+10	1	-1E+10	1	-1E+10	1	-1E+10	1	-1E+10	1
4902551	71	C	07/30/2022	02:57	-132.227	48.964	0	1615.20	0	2.2250	0	34.5310	0	27.587	0	1595.327	0	33.5	4	10.2	4	-1E+10	1	-1E+10	1	-1E+10	1	-1E+10	1	-1E+10	1	-1E+10	1
4902551	71	C	07/30/2022	02:57	-132.227	48.964	0	1625.40	0	2.2190	0	34.5320	0	27.588	0	1605.363	0	33.9	4	10.3	4	-1E+10	1	-1E+10	1	-1E+10	1	-1E+10	1	-1E+10	1	-1E+10	1
4902551	71	C	07/30/2022	02:57	-132.227	48.964	0	1635.70	0	2.2080	0	34.5340	0	27.591	0	1615.497	0	34.3	4	10.4	4	-1E+10	1	-1E+10	1	-1E+10	1	-1E+10	1	-1E+10	1	-1E+10	1
4902551	71	C	07/30/2022	02:57	-132.227	48.964	0	1645.30	0	2.2010	0	34.5350	0	27.592	0	1624.942	0	35.2	4	10.7	4	-1E+10	1	-1E+10	1	-1E+10	1	-1E+10	1	-1E+10	1	-1E+10	1
4902551	71	C	07/30/2022	02:57	-132.227	48.964	0	1655.60	0	2.1950	0	34.5370	0	27.594	0	1635.075	0	35.7	4	10.8	4	-1E+10	1	-1E+10	1	-1E+10	1	-1E+10	1	-1E+10	1	-1E+10	1
4902551	71	C	07/30/2022	02:57	-132.227	48.964	0	1665.40	0	2.1790	0	34.5390	0	27.597	0	1644.715	0	36.6	4	11.1	4	-1E+10	1	-1E+10	1	-1E+10	1	-1E+10	1	-1E+10	1	-1E+10	1
4902551	71	C	07/30/2022	02:57	-132.227	48.964	0	1675.50	0	2.1670	0	34.5420	0	27.600	0	1654.650	0	37.8	4	11.4	4	-1E+10	1	-1E+10	1	-1E+10	1	-1E+10	1	-1E+10	1	-1E+10	1
4902551	71	C	07/30/2022	02:57	-132.227	48.964	0	1685.70	0	2.1530	0	34.5440	0	27.603	0	1664.683	0	38.6	4	11.7	4	-1E+10	1	-1E+10	1	-1E+10	1	-1E+10	1	-1E+10	1	-1E+10	1
4902551	71	C	07/30/2022	02:57	-132.227	48.964	0	1695.70	0	2.1370	0	34.5470	0	27.607	0	1674.519	0	39.5	4	11.9	4	-1E+10	1	-1E+10	1	-1E+10	1	-1E+10	1	-1E+10	1	-1E+10	1
4902551	71	C	07/30/2022	02:57	-132.227	48.964	0	1705.50	0	2.1310	0	34.5480	0	27.608	0	1684.158	0	39.8	4	12.0	4	-1E+10	1	-1E+10	1	-1E+10	1	-1E+10	1	-1E+10	1	-1E+10	1
4902551	71	C	07/30/2022	02:57	-132.227	48.964	0	1715.40	0	2.1130	0	34.5510	0	27.612	0	1693.894	0	40.6	4	12.3	4	-1E+10	1	-1E+10	1	-1E+10	1	-1E+10	1	-1E+10	1	-1E+10	1
4902551	71	C	07/30/2022	02:57	-132.227	48.964	0	1725.50	0	2.0950	0	34.5530	0	27.615	0	1703.827	0	40.8	4	12.3	4	-1E+10	1	-1E+10	1	-1E+10	1	-1E+10	1	-1E+10	1	-1E+10	1
4902551	71	C	07/30/2022	02:57	-132.227	48.964	0	1735.30	0	2.0900	0	34.5530	0	27.616	0	1713.465	0	41.1	4	12.4	4	-1E+10	1	-1E+10	1	-1E+10	1	-1E+10	1	-1E+10	1	-1E+10	1
4902551	71	C	07/30/2022	02:57	-132.227	48.964	0	1745.30	0	2.0820	0	34.5550	0	27.618	0	1723.298	0	41.9	4	12.6	4	-1E+10	1	-1E+10	1	-1E+10	1	-1E+10	1	-1E+10	1	-1E+10	1
4902551	71	C	07/30/2022	02:57	-132.227	48.964	0	1755.50	0	2.0730	0	34.5570	0	27.620	0	1733.328	0	42.8	4	12.9	4	-1E+10	1	-1E+10	1	-1E+10	1	-1E+10	1	-1E+10	1	-1E+10	1
4902551	71	C	07/30/2022	02:57	-132.227	48.964	0	1765.50	0	2.0590	0	34.5590	0	27.623	0	1743.161	0	43.8	4	13.2	4	-1E+10	1	-1E+10	1	-1E+10	1	-1E+10	1	-1E+10	1	-1E+10	1
4902551	71	C	07/30/2022	02:57	-132.227	48.964	0	1775.30	0	2.0490	0	34.5610	0	27.625	0	1752.796	0	44.6	4	13.5	4	-1E+10	1	-1E+10	1	-1E+10	1	-1E+10	1	-1E+10	1	-1E+10	1
4902551	71	C	07/30/2022	02:57	-132.227	48.964	0	1785.40	0	2.0410	0	34.5630	0	27.628	0	1762.726	0	45.2	4	13.6	4	-1E+10	1	-1E+10	1	-1E+10	1	-1E+10	1	-1E+10	1	-1E+10	1
4902551	71	C	07/30/2022	02:57	-132.227	48.964	0	1795.60	0	2.0340	0	34.5640	0	27.629	0	1772.754	0	45.6	4	13.8	4	-1E+10	1	-1E+10	1	-1E+10	1	-1E+10	1	-1E+10	1	-1E+10	1
4902551	71	C	07/30/2022	02:57	-132.227	48.964	0	1805.40	0	2.0300	0	34.5650	0	27.630	0	1782.389	0	46.1	4	13.9	4	-1E+10	1	-1E+10	1	-1E+10	1	-1E+10	1	-1E+10	1	-1E+10	1
4902551	71	C	07/30/2022	02:57	-132.227	48.964	0	1815.50	0	2.0240	0	34.5660	0	27.632	0	1792.317	0	46.4	4	14.0	4	-1E+10	1	-1E+10	1	-1E+10	1	-1E+10	1	-1E+10	1	-1E+10	1
4902551	71	C	07/30/2022	02:57	-132.227	48.964	0	1825.30	0	2.0200	0	34.5670	0	27.633	0	1801.951	0	46.7	4	14.1	4	-1E+10	1	-1E+10	1	-1E+10	1	-1E+10	1	-1E+10	1	-1E+10	1
4902551	71	C	07/30/2022	02:57	-132.227	48.964	0	1835.00	0	2.0120	0	34.5680	0	27.634	0	1811.485	0	47.3	4	14.3	4	-1E+10	1	-1E+10	1	-1E+10	1	-1E+10	1	-1E+10	1	-1E+10	1
4902551	71	C	07/30/2022	02:57	-132.227	48.964	0	1845.30	0	2.0070	0	34.5700	0	27.636	0	1821.609	0	47.8	4	14.4	4	-1E+10	1	-1E+10	1	-1E+10	1	-1E+10	1	-1E+10	1	-1E+10	1
4902551	71	C	07/30/2022	02:57	-132.227	48.964	0	1855.40	0	2.0000	0	34.5710	0	27.638	0	1831.536	0	48.2	4	14.5	4	-1E+10	1	-1E+10	1	-1E+10	1	-1E+10	1	-1E+10	1	-1E+10	1
4902551	71	C	07/30/2022	02:57	-132.227	48.964	0	1865.30	0	1.9980	0	34.5710	0	27.638	0	1841.266	0	48.8	4	14.7	4	-1E+10	1	-1E+10	1	-1E+10	1	-1E+10	1	-1E+10	1	-1E+10	1
4902551	71	C	07/30/2022	02:57	-132.227	48.964	0	1875.40	0	1.9880	0	34.5730	0	27.640	0	1851.192	0	49.6	4	15.0	4	-1E+10	1	-1E+10	1	-1E+10	1	-1E+10	1	-1E+10	1	-1E+10	1
4902551	71	C	07/30/2022	02:57	-132.227	48.964	0	1885.40	0	1.9790	0	34.5750	0	27.643	0	1861.019	0	50.3	4	15.2	4	-1E+10	1	-1E+10	1	-1E+10	1	-1E+10	1	-1E+10	1	-1E+10	1
4902551	71	C	07/30/2022	02:57	-132.227	48.964	0	1895.20	0	1.9740	0	34.5760	0	27.644	0	1870.649	0	50.7	4	15.3	4	-1E+10	1	-1E+10	1	-1E+10	1	-1E+10	1	-1E+10	1	-1E+10	1
4902551	71	C	07/30/2022	02:57	-132.227	48.964	0	1905.20	0	1.9710	0	34.5770	0	27.645	0	1880.475	0	51.2	4	15.4	4	-1E+10	1	-1E+10	1	-1E+10	1	-1E+10	1	-1E+10	1	-1E+10	1
4902551	71	C	07/30/2022	02:57	-132.227	48.964	0	1915.40	0	1.9650	0	34.5780	0	27.646	0	1890.498	0	51.8	4	15.6	4	-1E+10	1	-1E+10	1	-1E+10	1	-1E+10	1	-1E+10	1	-1E+10	1
4902551	71	C	07/30/2022	02:57	-132.227	48.964	0	1925.40	0	1.9610	0	34.5790	0	27.648	0	1900.323	0	52.1	4	15.7	4	-1E+10	1	-1E+10	1	-1E+10	1	-1E+10	1	-1E+10	1	-1E+10	1
4902551	71	C	07/30/2022	02:57	-132.227	48.964	0	1935.00	0	1.9560	0	34.5800	0	27.649	0	1909.755	0	52.5	4	15.8	4	-1E+10	1	-1E+10	1	-1E+10	1	-1E+10	1	-1E+10	1	-1E+10	1
4902551	71	C	07/30/2022	02:57	-132.227	48.964	0	1945.40	0	1.9520	0	34.5810	0	27.650	0	1919.972	0	52.9	4	15.9	4	-1E+10	1	-1E+10	1	-1E+10	1	-1E+10	1	-1E+10	1	-1E+10	1
4902551	71	C	07/30/2022	02:57	-132.227	48.964	0	1956.10	0	1.9460	0	34.5820	0	27.651	0	1930.484	0	52.7	4	15.9	4	-1E+10	1	-1E+10	1	-1E+10	1	-1E+10	1	-1E+10	1	-1E+10	1
4902551	71	C	07/30/2022	02:57	-132.227	48.964	0	1962.00	0	1.9450	0	34.5830	0	27.652	0	1936.280	0	52.1	4	15.7	4	-1E+10	1	-1E+10	1	-1E+10	1	-1E+10	1	-1E+10	1	-1E+10	1
4902551	71	C	07/30/2022	02:57	-132.227	48.964	0																										
4902551	72	C	08/09/2022	08:08	-132.190	48.953	0	0.20	0	15.9080	0	32.2370	0	23.645	0	0.198	0	-1e10	1	-1e10	1	-1E+10	1	-1E+10	1	-1E+10	1	-1E+10	1	-1E+10	1	-1E+10	1
4902551	72	C	08/09/2022	08:08	-132.190	48.953	0	0.40	0	15.9120	0	32.2380	0	23.645	0	0.397	0	241.1	4	97.2	4	-1E+10	1	-1E+10	1	-1E+10	1	-1E+10	1	-1E+10	1	-1E+10	1
4902551	72	C	08/09/2022	08:08	-132.190	48.953	0	0.50	0	15.9124	0	32.2381	0	23.645	0	0.496	0	-1e10	1	-1e10	1	-1E+10	1	-1E+10	1	-1E+10	1	-1E+10	1	-1E+10	1	-1E+10	1
4902551	72	C	08/09/2022	08:08	-132.190	48.953	0	0.60	0	15.9129	0	32.2382	0	23.645	0	0.595	0	-1e10	1	-1e10	1	-1E+10	1	-1E+10	1	-1E+10	1	-1E+10	1	-1E+10	1	-1E+10	1
4902551	72	C	08/09/2022	08:08	-132.190	48.953	0	1.30	0	15.9160	0	32.2390	0	23.645	0	1.289	0	241.2	4	97.2	4	-1E+10	1	-1E+10	1	-1E+10	1	-1E+10	1	-1E+10	1	-1E+10	1
4902551	72	C	08/09/2022	08:08	-132.190	48.953	0	2.00	0	15.9150	0	32.2390	0	23.645	0	1.983	0	241.2	4	97.2	4	-1E+10	1	-1E+10	1	-1E+10	1	-1E+10	1	-1E+10	1	-1E+10	1
4902551	72	C	08/09/2022	08:08	-132.190	48.953	0	3.00	0	15.9150	0	32.2410	0	23.646	0	2.975	0	241.2	4	97.2	4	-1E+10	1	-1E+10	1	-1E+10	1	-1E+10	1	-1E+10	1	-1E+10	1
4902551	72	C	08/09/2022	08:08	-132.190	48.953	0	3.90	0	15.9150	0	32.2420	0	23.647	0	3.867	0	241.2	4	97.2	4	-1E+10	1	-1E+10	1	-1E+10	1	-1E+10	1	-1E+10	1	-1E+10	1
4902551	72	C	08/09/2022	08:08	-132.190	48.953	0	4.80	0	15.9160	0	32.2420	0	23.647	0	4.759	0	241.2	4	97.2	4	-1E+10	1	-1E+10	1	-1E+10	1	-1E+10	1	-1E+10	1	-1E+10	1
4902551	72	C	08/09/2022	08:08	-132.190	48.953	0	6.00	0	15.9150	0	32.2430	0	23.648	0	5.949	0	241.2	4	97.2	4	-1E+10	1	-1E+10	1	-1E+10	1	-1E+10	1	-1E+10	1	-1E+10	1
4902551	72	C	08/09/2022	08:08	-132.190	48.953	0	7.00	0	15.9160	0	32.2420	0	23.647	0	6.941	0	241.2	4	97.2	4	-1E+10	1	-1E+10	1	-1E+10	1	-1E+10	1	-1E+10	1	-1E+10	1
4902551	72	C	08/09/2022	08:08	-132.190	48.953	0	7.90	0	15.9170	0	32.2420	0	23.647	0	7.833	0	241.2	4	97.2	4	-1E+10	1	-1E+10	1	-1E+10	1	-1E+10	1	-1E+10	1	-1E+10	1
4902551	72	C	08/09/2022	08:08	-132.190	48.953	0	8.80	0	15.9170	0	32.2430	0	23.648	0	8.725	0	241.2	4	97.2	4	-1E+10	1	-1E+10	1	-1E+10	1	-1E+10	1	-1E+10	1	-1E+10	1
4902551	72	C	08/09/2022	08:08	-132.190	48.953	0	9.80	0	15.9150	0	32.2430	0	23.648	0	9.717	0	241.2	4	97.2	4	-1E+10	1	-1E+10	1	-1E+10	1	-1E+10	1	-1E+10	1	-1E+10	1
4902551	72	C	08/09/2022	08:08	-132.190	48.953	0	10.90	0	15.9130	0	32.2430	0	23.649	0	10.807	0	241.2	4	97.2	4	-1E+10	1	-1E+10	1	-1E+10	1	-1E+10	1	-1E+10	1	-1E+10	1
4902551	72	C	08/09/2022	08:08	-132.190	48.953	0	11.80	0	15.9140	0	32.2420	0	23.648	0	11.700	0	241.2	4	97.2	4	-1E+10	1	-1E+10	1	-1E+10	1	-1E+10	1	-1E+10	1	-1E+10	1
4902551	72	C	08/09/2022	08:08	-132.190	48.953	0	12.80	0	15.9160	0	32.2430	0	23.648	0	12.691	0	241.3	4	97.3	4	-1E+10	1	-1E+10	1	-1E+10	1	-1E+10	1	-1E+10	1	-1E+10	1
4902551	72	C	08/09/2022	08:08	-132.190	48.953	0	13.80	0	15.9160	0	32.2430	0	23.648	0	13.683	0	241.4	4	97.3	4	-1E+10	1	-1E+10	1	-1E+10	1	-1E+10	1	-1E+10	1	-1E+10	1
4902551	72	C	08/09/2022	08:08	-132.190	48.953	0	15.00	0	15.9160	0	32.2430	0	23.648	0	14.872	0	241.4	4	97.3	4	-1E+10	1	-1E+10	1	-1E+10	1	-1E+10	1	-1E+10	1	-1E+10	1
4902551	72	C	08/09/2022	08:08	-132.190	48.953	0	16.30	0	15.9150	0	32.2430	0	23.648	0	16.161	0	241.4	4	97.3	4	-1E+10	1	-1E+10	1	-1E+10	1	-1E+10	1	-1E+10	1	-1E+10	1
4902551	72	C	08/09/2022	08:08	-132.190	48.953	0	17.00	0	15.9160	0	32.2420	0	23.647	0	16.855	0	241.5	4	97.4	4	-1E+10	1	-1E+10	1	-1E+10	1	-1E+10	1	-1E+10	1	-1E+10	1
4902551	72	C	08/09/2022	08:08	-132.190	48.953	0	18.00	0	15.9160	0	32.2430	0	23.648	0	17.847	0	241.7	4	97.4	4	-1E+10	1	-1E+10	1	-1E+10	1	-1E+10	1	-1E+10	1	-1E+10	1
4902551	72	C	08/09/2022	08:08	-132.190	48.953	0	19.10	0	15.9150	0	32.2430	0	23.648	0	18.937	0	241.8	4	97.5	4	-1E+10	1	-1E+10	1	-1E+10	1	-1E+10	1	-1E+10	1	-1E+10	1
4902551	72	C	08/09/2022	08:08	-132.190	48.953	0	20.00	0	15.9170	0	32.2420	0	23.647	0	19.829	0	242.1	4	97.6	4	-1E+10	1	-1E+10	1	-1E+10	1	-1E+10	1	-1E+10	1	-1E+10	1
4902551	72	C	08/09/2022	08:08	-132.190	48.953	0	21.10	0	15.9170	0	32.2430	0	23.648	0	20.920	0	242.6	4	97.8	4	-1E+10	1	-1E+10	1	-1E+10	1	-1E+10	1	-1E+10	1	-1E+10	1
4902551	72	C	08/09/2022	08:08	-132.190	48.953	0	22.00	0	15.9170	0	32.2430	0	23.648	0	21.812	0	243.2	4	98.0	4	-1E+10	1	-1E+10	1	-1E+10	1	-1E+10	1	-1E+10	1	-1E+10	1
4902551	72	C	08/09/2022	08:08	-132.190	48.953	0	22.90	0	15.9190	0	32.2410	0	23.646	0	22.705	0	244.0	4	98.4	4	-1E+10	1	-1E+10	1	-1E+10	1	-1E+10	1	-1E+10	1	-1E+10	1
4902551	72	C	08/09/2022	08:08	-132.190	48.953	0	24.00	0	15.9200	0	32.2420	0	23.647	0	23.795	0	245.0	4	98.8	4	-1E+10	1	-1E+10	1	-1E+10	1	-1E+10	1	-1E+10	1	-1E+10	1
4902551	72	C	08/09/2022	08:08	-132.190	48.953	0	25.00	0	15.9200	0	32.2410	0	23.646	0	24.787	0	246.5	4	99.4	4	-1E+10	1	-1E+10	1	-1E+10	1	-1E+10	1	-1E+10	1	-1E+10	1
4902551	72	C	08/09/2022	08:08	-132.190	48.953	0	26.00	0	15.9210	0	32.2400	0	23.645	0	25.778	0	248.4	4	100.1	4	-1E+10	1	-1E+10	1	-1E+10	1	-1E+10	1	-1E+10	1	-1E+10	1
4902551	72	C	08/09/2022	08:08	-132.190	48.953	0	27.00	0	15.9200	0	32.2350	0	23.641	0	26.769	0	251.4	4	101.3	4	-1E+10	1	-1E+10	1	-1E+10	1	-1E+10	1	-1E+10	1	-1E+10	1
4902551	72	C	08/09/2022	08:08	-132.190	48.953	0	28.10	0	15.8990	0	32.2220	0	23.636	0	27.860	0	256.8	4	103.5	4	-1E+10	1	-1E+10	1	-1E+10	1	-1E+10	1	-1E+10	1	-1E+10	1
4902551	72	C	08/09/2022	08:08	-132.190	48.953	0	29.10	0	15.3610	0	32.3100	0	23.823	0	28.851	0	261.9	4	104.5	4	-1E+10	1	-1E+10	1	-1E+10	1	-1E+10	1	-1E+10	1	-1E+10	1
4902551	72	C	08/09/2022	08:08	-132.190	48.953	0	30.00	0	14.2180	0	32.2580	0	24.026	0	29.743	0	267.6	4	104.3	4	-1E+10	1	-1E+10	1	-1E+10	1	-1E+10	1	-1E+10	1	-1E+10	1
4902551	72	C	08/09/2022	08:08	-132.190	48.953	0	31.00	0	13.3480	0	32.2400	0	24.188	0	30.735	0	271.8	4	104.1	4	-1E+10	1	-1E+10	1	-1E+10	1	-1E+10	1	-1E+10	1	-1E+10	1
4902551	72	C	08/09/2022	08:08	-132.190	48.953	0	32.00	0	12.9310	0	32.2530	0	24.281	0	31.726	0	273.4	4	103.8	4	-1E+10	1	-1E+10	1	-1E+10	1	-1E+10	1	-1E+10	1	-1E+10	1
4902551	72	C	08/09/2022	08:08	-132.190	48.953	0	33.10	0	12.8260	0	32.2450	0	24.295	0	32.817	0	274.1	4	103.9	4	-1E+10	1	-1E+10	1	-1E+10	1	-1E+10	1	-1E+10	1	-1E+10	1
4902551	72	C	08/09/2022	08:08	-132.190	48.953	0	34.10	0	12.7790	0	32.2410	0	24.301	0	33.808	0	274.9	4	104.1	4	-1E+10	1	-1E+10	1	-1E+10	1	-1E+10	1	-1E+10	1	-1E+10	1
4902551	72	C	08/09/2022	08:08	-132.190	48.953	0	35.00	0	12.6360	0	32.2520	0	24.337	0	34.700	0	275.8	4	104.1	4	-1E+10	1	-1E+10	1	-1E+10	1	-1E+10	1	-1E+10	1	-1E+10	1
4902551	72	C	08/09/2022	08:08	-132.190	48.953	0	36.10	0	12.4500	0	32.2560	0	24.376	0	35.791	0	276.3	4	103.9	4	-1E+10	1	-1E+10	1	-1E+10	1	-1E+10	1	-1E+10	1	-1E+10	1
4902551	72	C	08/09/2022	08:08	-132.190	48.953	0	36.90	0	12.3600	0	32.2500	0	24.388	0	36.584	0	277.0	4	104.0	4	-1E+10	1	-1E+10	1	-1E+10	1	-1E+10	1	-1E+10	1	-1E+10	1
4902551	72	C	08/09/2022	08:08	-132.190	48.953	0	37.90	0	12.2680	0	32.2460	0	24.402	0	37.575	0	277.6	4	104.0	4	-1E+10	1	-1E+10	1	-1E+10	1	-1E+10	1	-1E+10	1	-1E+10	1
4902551	72	C	08/09/2022	08:08	-132.190	48.953	0	38.90	0	12.0870	0	32.2560	0	24.444	0	38.567	0	278.4	4	103.9	4	-1E+10	1	-1E+10	1	-1E+10	1	-1E+10	1	-1E+10	1	-1E+10	1
4902551	72	C	08/09/2022	08:08	-132.190	48.953	0	39.90	0	11.8540	0	32.2680	0	24.496	0	39.558	0	278.9	4	103.6	4	-1E+10	1	-1E+10	1	-1E+10	1	-1E+10	1	-1E+10	1	-1E+10	1
4902551	72	C	08/09/2022	08:08	-132.190	48.953	0	41.00	0	11.6000	0	32.2450	0	24.525	0	40.648	0	279.7	4	103.3	4	-1E+10	1	-1E+10	1	-1E+10	1	-1E+10	1	-1E+10	1	-1E+10	1
4902551	72	C	08/09/2022	08:08	-132.190	48.953	0	42.10	0	11.4980	0	32.2400	0	24.540	0	41.739	0	279.8	4	103.1	4	-1E+10	1	-1E+10	1	-1E+10	1	-1E+10	1	-1E+10	1	-1E+10	1
4902551	72	C	08/09/2022	08:08	-132.190	48.953	0	43.00	0	11.1690	0	32.2560	0	24.611	0	42.631	0	280.2	4	102.6	4	-1E+10	1	-1E+10	1	-1E+10	1	-1E+10	1	-1E+10	1	-1E+10	1
4902551	72	C	08/09/2022	08:08	-132.190	48.953	0	43.80	0	11.0780	0	32.2480	0	24.621	0	43.424	0	280.4	4	102.5	4	-1E+10	1	-1E+10	1	-1E+10	1	-1E+10	1	-1E+10	1	-1E+10	1
4902551	72	C	08/09/2022	08:08	-132.190	48.953	0	45.00	0	10.8210	0	32.2530	0	24.670	0	44.614	0	280.4	4	101.9	4	-1E+10	1	-1E+10	1	-1E+10	1	-1E+10	1	-1E+10	1	-1E+10	1
4902551	72	C	08/09/2022	08:08	-132.190	48.953	0	45.90	0	10.7070	0	32.2460	0	24.684	0	45.506	0	280.1	4	101.5	4	-1E+10	1	-1E+10	1	-1E+10	1	-1E+10	1	-1E+10	1	-1E+10	1
4902551	72	C	08/09/2022	08:08	-132.190	48.953	0	46.80	0	10.6020	0	32.2510	0	24.706	0	46.398	0	279.7	4	101.2	4	-1E+10	1	-1E+10	1	-1E+10	1	-1E+10	1	-1E+10	1	-1E+10	1
4902551	72	C	08/09/2022	08:08	-132.190	48.953	0	48.10	0	10.2780	0	32.2810	0	24.784	0	47.687	0	279.8	4	100.5	4	-1E+10	1	-1E+10	1	-1E+10	1	-1E+10	1	-1E+10	1	-1E+10	1
4902551	72	C	08/09/2022	08:08	-132.190	48.953	0	49.00	0	10.0960	0	32.2610	0	24.799	0	48.579	0	280.3	4	100.3	4	-1E+10	1	-1E+10	1	-1E+10	1	-1E+10	1	-1E+10	1	-1E+10	1
4902551	72	C	08/09/2022	08:08	-132.190	48.953	0	49.70	0	9.9520	0	32.2690	0	24.829	0	49.273	0	280.3	4	100.0	4	-1E+10	1	-1E+10	1	-1E+10	1	-1E+10	1	-1E+10	1	-1E+10	1
4902551	72	C	08/09/2022	08:08	-132.190	48.953	0	50.80	0	9.7830	0	32.2520	0	24.844	0	50.363	0	280.3	4	99.6	4	-1E+10	1	-1E+10	1	-1E+10	1	-1E+10	1	-1E+10	1	-1E+10	1
4902551	72	C	08/09/2022	08:08	-132.190	48.953	0	51.80	0	9.6860	0	32.2560	0	24.863	0	51.354	0	279.6	4	99.2	4	-1E+10	1	-1E+10	1	-1E+10	1	-1E+10	1	-1E+10	1	-1E+10	1
4902551	72	C	08/09/2022	08:08	-132.190	48.953	0	53.10	0	9.6060	0	32.2550	0	24.875	0	52.643	0	278.8	4	98.7	4	-1E+10	1	-1E+10	1	-1E+10	1	-1E+10	1	-1E+10	1	-1E+10	1
4902551	72	C	08/09/2022	08:08	-132.190	48.953	0	53.90	0	9.5650	0	32.2560	0	24.882	0	53.436	0	278.2	4	98.4	4	-1E+10	1	-1E+10	1	-1E+10	1	-1E+10	1	-1E+10	1	-1E+10	1
4902551	72	C	08/09/2022	08:08	-132.190	48.953	0	55.00	0	9.3960	0	32.2690	0	24.919	0	54.526	0	277.6	4	97.8	4	-1E+10	1	-1E+10	1	-1E+10	1	-1E+10	1	-1E+10	1	-1E+10	1
4902551	72	C	08/09/2022	08:08	-132.190	48.953	0	56.00	0	9.3100	0	32.2570	0	24.924	0	55.518	0	277.2	4	97.5	4	-1E+10	1	-1E+10	1	-1E+10	1	-1E+10	1	-1E+10	1	-1E+10	1
4902551	72	C	08/09/2022	08:08	-132.190	48.953	0	56.90	0	9.2220	0	32.2710	0	24.948	0	56.410	0	276.6	4	97.1	4	-1E+10	1	-1E+10	1	-1E+10	1	-1E+10	1	-1E+10	1	-1E+10	1
4902551	72	C	08/09/2022	08:08	-132.190	48.953	0	57.90	0	9.0880	0	32.2700	0	24.969	0	57.401	0	276.3	4	96.7	4	-1E+10	1	-1E+10	1	-1E+10	1	-1E+10	1	-1E+10	1	-1E+10	1
4902551	72	C	08/09/2022	08:08	-132.190	48.953	0	59.10	0	8.8490	0	32.2670	0	25.003	0	58.591	0	276.3	4	96.2	4	-1E+10	1	-1E+10	1	-1E+10	1	-1E+10	1	-1E+10	1	-1E+10	1
4902551	72	C	08/09/2022	08:08	-132.190	48.953	0	60.00	0	8.7460	0	32.2700	0	25.021	0	59.483	0	276.2	4	96.0	4	-1E+10	1	-1E+10	1	-1E+10	1	-1E+10	1	-1E+10	1	-1E+10	1
4902551	72	C	08/09/2022	08:08	-132.190	48.953	0	61.10	0	8.7000	0	32.2720	0	25.030	0	60.573	0	275.9	4	95.7	4	-1E+10	1	-1E+10	1	-1E+10	1	-1E+10	1	-1E+10	1	-1E+10	1
4902551	72	C	08/09/2022	08:08	-132.190	48.953	0	62.00	0	8.6650	0	32.2720	0	25.035	0	61.465	0	275.7	4	95.6	4	-1E+10	1	-1E+10	1	-1E+10	1	-1E+10	1	-1E+10	1	-1E+10	1
4902551	72	C	08/09/2022	08:08	-132.190	48.953	0	62.90	0	8.6390	0	32.2720	0	25.039	0	62.357	0	275.4	4	95.4	4	-1E+10	1	-1E+10	1	-1E+10	1	-1E+10	1	-1E+10	1	-1E+10	1
4902551	72	C	08/09/2022	08:08	-132.190	48.953	0	63.80	0	8.5980	0	32.2750	0	25.048	0	63.249	0	275.1	4	95.3	4	-1E+10	1	-1E+10	1	-1E+10	1	-1E+10	1	-1E+10	1	-1E+10	1
4902551	72	C	08/09/2022	08:08	-132.190	48.953	0	65.10	0	8.5570	0	32.2750	0	25.054	0	64.538	0	274.6	4	95.0	4	-1E+10	1	-1E+10	1	-1E+10	1	-1E+10	1	-1E+10	1	-1E+10	1
4902551	72	C	08/09/2022	08:08	-132.190	48.953	0	66.20	0	8.5160	0	32.2780	0	25.062	0	65.628	0	274.1	4	94.8	4	-1E+10	1	-1E+10	1	-1E+10	1	-1E+10	1	-1E+10	1	-1E+10	1
4902551	72	C	08/09/2022	08:08	-132.190	48.953	0	67.10	0	8.4830	0	32.2820	0	25.070	0	66.520	0	273.7	4	94.5	4	-1E+10	1	-1E+10	1	-1E+10	1	-1E+10	1	-1E+10	1	-1E+10	1
4902551	72	C	08/09/2022	08:08	-132.190	48.953	0	67.90	0	8.4040	0	32.2890	0	25.088	0	67.313	0	273.1	4	94.2	4	-1E+10	1	-1E+10	1	-1E+10	1	-1E+10	1	-1E+10	1	-1E+10	1
4902551	72	C	08/09/2022	08:08	-132.190	48.953	0	69.30	0	8.3220	0	32.2960	0	25.105	0	68.701	0	272.6	4	93.8	4	-1E+10	1	-1E+10	1	-1E+10	1	-1E+10	1	-1E+10	1	-1E+10	1
4902551	72	C	08/09/2022	08:08	-132.190	48.953	0	70.10	0	8.2710	0	32.2920	0	25.110	0	69.494	0	272.3	4	93.6	4	-1E+10	1	-1E+10	1	-1E+10	1	-1E+10	1	-1E+10	1	-1E+10	1
4902551	72	C	08/09/2022	08:08	-132.190	48.953	0	70.90	0	8.2430	0	32.2920	0	25.114	0	70.287	0	271.9	4	93.4	4	-1E+10	1	-1E+10	1	-1E+10	1	-1E+10	1	-1E+10	1	-1E+10	1
4902551	72	C	08/09/2022	08:08	-132.190	48.953	0	72.10	0	8.2100	0	32.2920	0	25.119	0	71.476	0	271.2	4	93.1	4	-1E+10	1	-1E+10	1	-1E+10	1	-1E+10	1	-1E+10	1	-1E+10	1
4902551	72	C	08/09/2022	08:08	-132.190	48.953	0	72.90	0	8.1700	0	32.2980	0	25.129	0	72.269	0	270.8	4	92.9	4	-1E+10	1	-1E+10	1	-1E+10	1	-1E+10	1	-1E+10	1	-1E+10	1
4902551	72	C	08/09/2022	08:08	-132.190	48.953	0	74.00	0	8.1100	0	32.3050	0	25.143	0	73.359	0	270.0	4	92.5	4	-1E+10	1	-1E+10	1	-1E+10	1	-1E+10	1	-1E+10	1	-1E+10	1
4902551	72	C	08/09/2022	08:08	-132.190	48.953	0	75.20	0	8.0330	0	32.3160	0	25.163	0	74.549	0	269.2	4	92.1	4	-1E+10	1	-1E+10	1	-1E+10	1	-1E+10	1	-1E+10	1	-1E+10	1
4902551	72	C	08/09/2022	08:08	-132.190	48.953	0	76.00	0	7.9820	0	32.3180	0	25.172	0	75.342	0	268.8	4	91.8	4	-1E+10	1	-1E+10	1	-1E+10	1	-1E+10	1	-1E+10	1	-1E+10	1
4902551	72	C	08/09/2022	08:08	-132.190	48.953	0	77.00	0	7.9420	0	32.3150	0	25.175	0	76.333	0	268.1	4	91.5	4	-1E+10	1	-1E+10	1	-1E+10	1	-1E+10	1	-1E+10	1	-1E+10	1
4902551	72	C	08/09/2022	08:08	-132.190	48.953	0	78.00	0	7.9020	0	32.3160	0	25.182	0	77.324	0	267.3	4	91.2	4	-1E+10	1	-1E+10	1	-1E+10	1	-1E+10	1	-1E+10	1	-1E+10	1
4902551	72	C	08/09/2022	08:08	-132.190	48.953	0	79.00	0	7.8490	0	32.3230	0	25.195	0	78.315	0	266.4	4	90.8	4	-1E+10	1	-1E+10	1	-1E+10	1	-1E+10	1	-1E+10	1	-1E+10	1
4902551	72	C	08/09/2022	08:08	-132.190	48.953	0	79.90	0	7.8130	0	32.3250	0	25.202	0	79.207	0	265.7	4	90.4	4	-1E+10	1	-1E+10	1	-1E+10	1	-1E+10	1	-1E+10	1	-1E+10	1
4902551	72	C	08/09/2022	08:08	-132.190	48.953	0	81.10	0	7.7640	0	32.3290	0	25.212	0	80.397	0	264.8	4	90.0	4	-1E+10	1	-1E+10	1	-1E+10	1	-1E+10	1	-1E+10	1	-1E+10	1
4902551	72	C	08/09/2022	08:08	-132.190	48.953	0	82.00	0	7.7110	0	32.3430	0	25.230	0	81.289	0	270.7	4	91.9	4	-1E+10	1	-1E+10	1	-1E+10	1	-1E+10	1	-1E+10	1	-1E+10	1
4902551	72	C	08/09/2022	08:08	-132.190	48.953	0	83.20	0	7.6550	0	32.3440	0	25.239	0	82.478	0	269.8	4	91.5	4	-1E+10	1	-1E+10	1	-1E+10	1	-1E+10	1	-1E+10	1	-1E+10	1
4902551	72	C	08/09/2022	08:08	-132.190	48.953	0	84.00	0	7.5940	0	32.3530	0	25.255	0	83.271	0	269.2	4	91.2	4	-1E+10	1	-1E+10	1	-1E+10	1	-1E+10	1	-1E+10	1	-1E+10	1
4902551	72	C	08/09/2022	08:08	-132.190	48.953	0	85.20	0	7.5480	0	32.3610	0	25.267	0	84.460	0	268.3	4	90.8	4	-1E+10	1	-1E+10	1	-1E+10	1	-1E+10	1	-1E+10	1	-1E+10	1
4902551	72	C	08/09/2022	08:08	-132.190	48.953	0	86.00	0	7.5460	0	32.3610	0	25.267	0	85.253	0	267.4	4	90.5	4	-1E+10	1	-1E+10	1	-1E+10	1	-1E+10	1	-1E+10	1	-1E+10	1
4902551	72	C	08/09/2022	08:08	-132.190	48.953	0	87.30	0	7.5340	0	32.3670	0	25.274	0	86.542	0	265.8	4	89.9	4	-1E+10	1	-1E+10	1	-1E+10	1	-1E+10	1	-1E+10	1	-1E+10	1
4902551	72	C	08/09/2022	08:08	-132.190	48.953	0	88.10	0	7.5170	0	32.3670	0	25.276	0	87.334	0	264.9	4	89.6	4	-1E+10	1	-1E+10	1	-1E+10	1	-1E+10	1	-1E+10	1	-1E+10	1
4902551	72	C	08/09/2022	08:08	-132.190	48.953	0	88.90	0	7.4960	0	32.3700	0	25.282	0	88.127	0	264.0	4	89.3	4	-1E+10	1	-1E+10	1	-1E+10	1	-1E+10	1	-1E+10	1	-1E+10	1
4902551	72	C	08/09/2022	08:08	-132.190	48.953	0	90.20	0	7.4480	0	32.3850	0	25.300	0	89.416	0	262.4	4	88.6	4	-1E+10	1	-1E+10	1	-1E+10	1	-1E+10	1	-1E+10	1	-1E+10	1
4902551	72	C	08/09/2022	08:08	-132.190	48.953	0	91.10	0	7.3820	0	32.4030	0	25.323	0	90.308	0	261.3	4	88.1	4	-1E+10	1	-1E+10	1	-1E+10	1	-1E+10	1	-1E+10	1	-1E+10	1
4902551	72	C	08/09/2022	08:08	-132.190	48.953	0	92.00	0	7.3360	0	32.4240	0	25.346	0	91.200	0	260.5	4	87.8	4	-1E+10	1	-1E+10	1	-1E+10	1	-1E+10	1	-1E+10	1	-1E+10	1
4902551	72	C	08/09/2022	08:08	-132.190	48.953	0	93.10	0	7.3040	0	32.4360	0	25.360	0	92.290	0	259.5	4	87.4	4	-1E+10	1	-1E+10	1	-1E+10	1	-1E+10	1	-1E+10	1	-1E+10	1
4902551	72	C	08/09/2022	08:08	-132.190	48.953	0	94.20	0	7.2620	0	32.4500	0	25.377	0	93.380	0	258.5	4	87.0	4	-1E+10	1	-1E+10	1	-1E+10	1	-1E+10	1	-1E+10	1	-1E+10	1
4902551	72	C	08/09/2022	08:08	-132.190	48.953	0	94.90	0	7.2370	0	32.4670	0	25.393	0	94.074	0	257.8	4	86.7	4	-1E+10	1	-1E+10	1	-1E+10	1	-1E+10	1	-1E+10	1	-1E+10	1
4902551	72	C	08/09/2022	08:08	-132.190	48.953	0	96.00	0	7.1880	0	32.4890	0	25.417	0	95.164	0	256.8	4	86.3	4	-1E+10	1	-1E+10	1	-1E+10	1	-1E+10	1	-1E+10	1	-1E+10	1
4902551	72	C	08/09/2022	08:08	-132.190	48.953	0	96.90	0	7.1600	0	32.4900	0	25.422	0	96.056	0	255.8	4	85.9	4	-1E+10	1	-1E+10	1	-1E+10	1	-1E+10	1	-1E+10	1	-1E+10	1
4902551	72	C	08/09/2022	08:08	-132.190	48.953	0	98.10	0	7.1180	0	32.5080	0	25.442	0	97.245	0	253.7	4	85.1	4	-1E+10	1	-1E+10	1	-1E+10	1	-1E+10	1	-1E+10	1	-1E+10	1
4902551	72	C	08/09/2022	08:08	-132.190	48.953	0	99.00	0	7.0850	0	32.5230	0	25.458	0	98.137	0	251.3	4	84.2	4	-1E+10	1	-1E+10	1	-1E+10	1	-1E+10	1	-1E+10	1	-1E+10	1
4902551	72	C	08/09/2022	08:08	-132.190	48.953	0	100.10	0	7.0350	0	32.5600	0	25.494	0	99.227	0	248.5	4	83.3	4	-1E+10	1	-1E+10	1	-1E+10	1	-1E+10	1	-1E+10	1	-1E+10	1
4902551	72	C	08/09/2022	08:08	-132.190	48.953	0	100.90	0	7.0040	0	32.5890	0	25.521	0	100.020	0	247.3	4	82.8	4	-1E+10	1	-1E+10	1	-1E+10	1	-1E+10	1	-1E+10	1	-1E+10	1
4902551	72	C	08/09/2022	08:08	-132.190	48.953	0	102.10	0	6.9830	0	32.6160	0	25.545	0	101.209	0	245.2	4	82.1	4	-1E+10	1	-1E+10	1	-1E+10	1	-1E+10	1	-1E+10	1	-1E+10	1
4902551	72	C	08/09/2022	08:08	-132.190	48.953	0	103.10	0	6.9670	0	32.6300	0	25.558	0	102.200	0	242.8	4	81.3	4	-1E+10	1	-1E+10	1	-1E+10	1	-1E+10	1	-1E+10	1	-1E+10	1
4902551	72	C	08/09/2022	08:08	-132.190	48.953	0	103.80	0	6.9560	0	32.6380	0	25.566	0	102.894	0	241.3	4	80.7	4	-1E+10	1	-1E+10	1	-1E+10	1	-1E+10	1	-1E+10	1	-1E+10	1
4902551	72	C	08/09/2022	08:08	-132.190	48.953	0	104.90	0	6.9450	0	32.6500	0	25.577	0	103.984	0	238.9	4	79.9	4	-1E+10	1	-1E+10	1	-1E+10	1	-1E+10	1	-1E+10	1	-1E+10	1
4902551	72	C	08/09/2022	08:08	-132.190	48.953	0	106.00	0	6.9160	0	32.6820	0	25.606	0	105.074	0	236.2	4	79.0	4	-1E+10	1	-1E+10	1	-1E+10	1	-1E+10	1	-1E+10	1	-1E+10	1
4902551	72	C	08/09/2022	08:08	-132.190	48.953	0	107.10	0	6.9030	0	32.6900	0	25.614	0	106.164	0	233.6	4	78.1	4	-1E+10	1	-1E+10	1	-1E+10	1	-1E+10	1	-1E+10	1	-1E+10	1
4902551	72	C	08/09/2022	08:08	-132.190	48.953	0	107.80	0	6.8900	0	32.6980	0	25.622	0	106.858	0	231.7	4	77.4	4	-1E+10	1	-1E+10	1	-1E+10	1	-1E+10	1	-1E+10	1	-1E+10	1
4902551	72	C	08/09/2022	08:08	-132.190	48.953	0	108.80	0	6.8730	0	32.7110	0	25.634	0	107.849	0	228.4	4	76.3	4	-1E+10	1	-1E+10	1	-1E+10	1	-1E+10	1	-1E+10	1	-1E+10	1
4902551	72	C	08/09/2022	08:08	-132.190	48.953	0	109.80	0	6.8540	0	32.7300	0	25.652	0	108.840	0	225.1	4	75.2	4	-1E+10	1	-1E+10	1	-1E+10	1	-1E+10	1	-1E+10	1	-1E+10	1
4902551	72	C	08/09/2022	08:08	-132.190	48.953	0	110.90	0	6.7950	0	32.7960	0	25.712	0	109.930	0	222.3	4	74.2	4	-1E+10	1	-1E+10	1	-1E+10	1	-1E+10	1	-1E+10	1	-1E+10	1
4902551	72	C	08/09/2022	08:08	-132.190	48.953	0	111.90	0	6.7560	0	32.8490	0	25.759	0	110.921	0	219.1	4	73.1	4	-1E+10	1	-1E+10	1	-1E+10	1	-1E+10	1	-1E+10	1	-1E+10	1
4902551	72	C	08/09/2022	08:08	-132.190	48.953	0	112.90	0	6.7050	0	32.9120	0	25.815	0	111.912	0	216.7	4	72.2	4	-1E+10	1	-1E+10	1	-1E+10	1	-1E+10	1	-1E+10	1	-1E+10	1
4902551	72	C	08/09/2022	08:08	-132.190	48.953	0	114.10	0	6.6870	0	32.9290	0	25.831	0	113.101	0	214.4	4	71.5	4	-1E+10	1	-1E+10	1	-1E+10	1	-1E+10	1	-1E+10	1	-1E+10	1
4902551	72	C	08/09/2022	08:08	-132.190	48.953	0	115.00	0	6.6660	0	32.9530	0	25.852	0	113.993	0	212.6	4	70.8	4	-1E+10	1	-1E+10	1	-1E+10	1	-1E+10	1	-1E+10	1	-1E+10	1
4902551	72	C	08/09/2022	08:08	-132.190	48.953	0	116.00	0	6.6220	0	33.0210	0	25.912	0	114.984	0	211.5	4	70.4	4	-1E+10	1	-1E+10	1	-1E+10	1	-1E+10	1	-1E+10	1	-1E+10	1
4902551	72	C	08/09/2022	08:08	-132.190	48.953	0	117.10	0	6.6120	0	33.0380	0	25.926	0	116.074	0	210.3	4	70.0	4	-1E+10	1	-1E+10	1	-1E+10	1	-1E+10	1	-1E+10	1	-1E+10	1
4902551	72	C	08/09/2022	08:08	-132.190	48.953	0	117.90	0	6.6080	0	33.0440	0	25.932	0	116.867	0	209.6	4	69.8	4	-1E+10	1	-1E+10	1	-1E+10	1	-1E+10	1	-1E+10	1	-1E+10	1
4902551	72	C	08/09/2022	08:08	-132.190	48.953	0	118.90	0	6.6040	0	33.0470	0	25.935	0	117.858	0	208.4	4	69.4	4	-1E+10	1	-1E+10	1	-1E+10	1	-1E+10	1	-1E+10	1	-1E+10	1
4902551	72	C	08/09/2022	08:08	-132.190	48.953	0	120.10	0	6.5980	0	33.0550	0	25.942	0	119.047	0	207.1	4	69.0	4	-1E+10	1	-1E+10	1	-1E+10	1	-1E+10	1	-1E+10	1	-1E+10	1
4902551	72	C	08/09/2022	08:08	-132.190	48.953	0	120.90	0	6.5920	0	33.0610	0	25.947	0	119.840	0	206.6	4	68.7	4	-1E+10	1	-1E+10	1	-1E+10	1	-1E+10	1	-1E+10	1	-1E+10	1
4902551	72	C	08/09/2022	08:08	-132.190	48.953	0	122.00	0	6.5820	0	33.0770	0	25.961	0	120.930	0	205.5	4	68.4	4	-1E+10	1	-1E+10	1	-1E+10	1	-1E+10	1	-1E+10	1	-1E+10	1
4902551	72	C	08/09/2022	08:08	-132.190	48.953	0	123.20	0	6.5780	0	33.0820	0	25.966	0	122.119	0	204.5	4	68.0	4	-1E+10	1	-1E+10	1	-1E+10	1	-1E+10	1	-1E+10	1	-1E+10	1
4902551	72	C	08/09/2022	08:08	-132.190	48.953	0	124.00	0	6.5640	0	33.1030	0	25.984	0	122.912	0	203.8	4	67.8	4	-1E+10	1	-1E+10	1	-1E+10	1	-1E+10	1	-1E+10	1	-1E+10	1
4902551	72	C	08/09/2022	08:08	-132.190	48.953	0	124.80	0	6.5600	0	33.1240	0	26.001	0	123.705	0	202.9	4	67.5	4	-1E+10	1	-1E+10	1	-1E+10	1	-1E+10	1	-1E+10	1	-1E+10	1
4902551	72	C	08/09/2022	08:08	-132.190	48.953	0	125.70	0	6.5680	0	33.1480	0	26.019	0	124.596	0	202.2	4	67.3	4	-1E+10	1	-1E+10	1	-1E+10	1	-1E+10	1	-1E+10	1	-1E+10	1
4902551	72	C	08/09/2022	08:08	-132.190	48.953	0	126.90	0	6.5650	0	33.1840	0	26.048	0	125.785	0	201.2	4	67.0	4	-1E+10	1	-1E+10	1	-1E+10	1	-1E+10	1	-1E+10	1	-1E+10	1
4902551	72	C	08/09/2022	08:08	-132.190	48.953	0	128.30	0	6.5170	0	33.2000	0	26.067	0	127.173	0	200.8	4	66.8	4	-1E+10	1	-1E+10	1	-1E+10	1	-1E+10	1	-1E+10	1	-1E+10	1
4902551	72	C	08/09/2022	08:08	-132.190	48.953	0	129.20	0	6.5200	0	33.1860	0	26.055	0	128.065	0	200.8	4	66.8	4	-1E+10	1	-1E+10	1	-1E+10	1	-1E+10	1	-1E+10	1	-1E+10	1
4902551	72	C	08/09/2022	08:08	-132.190	48.953	0	130.20	0	6.5620	0	33.2110	0	26.069	0	129.055	0	200.2	4	66.7	4	-1E+10	1	-1E+10	1	-1E+10	1	-1E+10	1	-1E+10	1	-1E+10	1
4902551	72	C	08/09/2022	08:08	-132.190	48.953	0	131.10	0	6.5830	0	33.2170	0	26.071	0	129.947	0	199.5	4	66.5	4	-1E+10	1	-1E+10	1	-1E+10	1	-1E+10	1	-1E+10	1	-1E+10	1
4902551	72	C	08/09/2022	08:08	-132.190	48.953	0	132.10	0	6.5980	0	33.2340	0	26.083	0	130.938	0	198.6	4	66.2	4	-1E+10	1	-1E+10	1	-1E+10	1	-1E+10	1	-1E+10	1	-1E+10	1
4902551	72	C	08/09/2022	08:08	-132.190	48.953	0	133.10	0	6.6020	0	33.2360	0	26.084	0	131.929	0	197.7	4	65.9	4	-1E+10	1	-1E+10	1	-1E+10	1	-1E+10	1	-1E+10	1	-1E+10	1
4902551	72	C	08/09/2022	08:08	-132.190	48.953	0	134.00	0	6.6060	0	33.2420	0	26.088	0	132.821	0	196.6	4	65.5	4	-1E+10	1	-1E+10	1	-1E+10	1	-1E+10	1	-1E+10	1	-1E+10	1
4902551	72	C	08/09/2022	08:08	-132.190	48.953	0	135.00	0	6.6000	0	33.2520	0	26.097	0	133.812	0	195.3	4	65.1	4	-1E+10	1	-1E+10	1	-1E+10	1	-1E+10	1	-1E+10	1	-1E+10	1
4902551	72	C	08/09/2022	08:08	-132.190	48.953	0	135.90	0	6.5990	0	33.2540	0	26.099	0	134.703	0	194.1	4	64.7	4	-1E+10	1	-1E+10	1	-1E+10	1	-1E+10	1	-1E+10	1	-1E+10	1
4902551	72	C	08/09/2022	08:08	-132.190	48.953	0	136.90	0	6.5970	0	33.2550	0	26.100	0	135.694	0	192.7	4	64.2	4	-1E+10	1	-1E+10	1	-1E+10	1	-1E+10	1	-1E+10	1	-1E+10	1
4902551	72	C	08/09/2022	08:08	-132.190	48.953	0	137.80	0	6.5940	0	33.2580	0	26.102	0	136.586	0	191.4	4	63.8	4	-1E+10	1	-1E+10	1	-1E+10	1	-1E+10	1	-1E+10	1	-1E+10	1
4902551	72	C	08/09/2022	08:08	-132.190	48.953	0	138.70	0	6.5890	0	33.2650	0	26.109	0	137.478	0	189.9	4	63.3	4	-1E+10	1	-1E+10	1	-1E+10	1	-1E+10	1	-1E+10	1	-1E+10	1
4902551	72	C	08/09/2022	08:08	-132.190	48.953	0	140.00	0	6.5690	0	33.2850	0	26.127	0	138.766	0	187.5	4	62.5	4	-1E+10	1	-1E+10	1	-1E+10	1	-1E+10	1	-1E+10	1	-1E+10	1
4902551	72	C	08/09/2022	08:08	-132.190	48.953	0	141.30	0	6.5340	0	33.3330	0	26.169	0	140.054	0	185.3	4	61.7	4	-1E+10	1	-1E+10	1	-1E+10	1	-1E+10	1	-1E+10	1	-1E+10	1
4902551	72	C	08/09/2022	08:08	-132.190	48.953	0	142.30	0	6.5260	0	33.3400	0	26.176	0	141.045	0	183.7	4	61.2	4	-1E+10	1	-1E+10	1	-1E+10	1	-1E+10	1	-1E+10	1	-1E+10	1
4902551	72	C	08/09/2022	08:08	-132.190	48.953	0	143.20	0	6.5010	0	33.3590	0	26.194	0	141.937	0	182.0	4	60.6	4	-1E+10	1	-1E+10	1	-1E+10	1	-1E+10	1	-1E+10	1	-1E+10	1
4902551	72	C	08/09/2022	08:08	-132.190	48.953	0	144.10	0	6.4930	0	33.3660	0	26.201	0	142.828	0	180.2	4	60.0	4	-1E+10	1	-1E+10	1	-1E+10	1	-1E+10	1	-1E+10	1	-1E+10	1
4902551	72	C	08/09/2022	08:08	-132.190	48.953	0	145.10	0	6.4840	0	33.3720	0	26.207	0	143.819	0	178.5	4	59.4	4	-1E+10	1	-1E+10	1	-1E+10	1	-1E+10	1	-1E+10	1	-1E+10	1
4902551	72	C	08/09/2022	08:08	-132.190	48.953	0	146.10	0	6.4570	0	33.3970	0	26.230	0	144.810	0	176.6	4	58.7	4	-1E+10	1	-1E+10	1	-1E+10	1	-1E+10	1	-1E+10	1	-1E+10	1
4902551	72	C	08/09/2022	08:08	-132.190	48.953	0	147.00	0	6.4040	0	33.4510	0	26.279	0	145.702	0	175.4	4	58.3	4	-1E+10	1	-1E+10	1	-1E+10	1	-1E+10	1	-1E+10	1	-1E+10	1
4902551	72	C	08/09/2022	08:08	-132.190	48.953	0	148.00	0	6.3830	0	33.4780	0	26.303	0	146.693	0	174.6	4	58.0	4	-1E+10	1	-1E+10	1	-1E+10	1	-1E+10	1	-1E+10	1	-1E+10	1
4902551	72	C	08/09/2022	08:08	-132.190	48.953	0	149.00	0	6.3780	0	33.4880	0	26.312	0	147.683	0	173.6	4	57.7	4	-1E+10	1	-1E+10	1	-1E+10	1	-1E+10	1	-1E+10	1	-1E+10	1
4902551	72	C	08/09/2022	08:08	-132.190	48.953	0	150.00	0	6.3700	0	33.5100	0	26.330	0	148.674	0	172.9	4	57.4	4	-1E+10	1	-1E+10	1	-1E+10	1	-1E+10	1	-1E+10	1	-1E+10	1
4902551	72	C	08/09/2022	08:08	-132.190	48.953	0	150.90	0	6.3640	0	33.5180	0	26.337	0	149.566	0	172.0	4	57.1	4	-1E+10	1	-1E+10	1	-1E+10	1	-1E+10	1	-1E+10	1	-1E+10	1
4902551	72	C	08/09/2022	08:08	-132.190	48.953	0	151.80	0	6.3610	0	33.5230	0	26.342	0	150.458	0	171.0	4	56.8	4	-1E+10	1	-1E+10	1	-1E+10	1	-1E+10	1	-1E+10	1	-1E+10	1
4902551	72	C	08/09/2022	08:08	-132.190	48.953	0	152.70	0	6.3570	0	33.5320	0	26.349	0	151.349	0	170.0	4	56.5	4	-1E+10	1	-1E+10	1	-1E+10	1	-1E+10	1	-1E+10	1	-1E+10	1
4902551	72	C	08/09/2022	08:08	-132.190	48.953	0	153.60	0	6.3560	0	33.5360	0	26.353	0	152.241	0	169.1	4	56.2	4	-1E+10	1	-1E+10	1	-1E+10	1	-1E+10	1	-1E+10	1	-1E+10	1
4902551	72	C	08/09/2022	08:08	-132.190	48.953	0	154.90	0	6.3560	0	33.5450	0	26.360	0	153.529	0	167.2	4	55.6	4	-1E+10	1	-1E+10	1	-1E+10	1	-1E+10	1	-1E+10	1	-1E+10	1
4902551	72	C	08/09/2022	08:08	-132.190	48.953	0	156.20	0	6.3160	0	33.5830	0	26.395	0	154.817	0	165.2	4	54.9	4	-1E+10	1	-1E+10	1	-1E+10	1	-1E+10	1	-1E+10	1	-1E+10	1
4902551	72	C	08/09/2022	08:08	-132.190	48.953	0	157.00	0	6.2880	0	33.5870	0	26.402	0	155.610	0	164.4	4	54.5	4	-1E+10	1	-1E+10	1	-1E+10	1	-1E+10	1	-1E+10	1	-1E+10	1
4902551	72	C	08/09/2022	08:08	-132.190	48.953	0	157.90	0	6.2790	0	33.5920	0	26.407	0	156.501	0	163.4	4	54.2	4	-1E+10	1	-1E+10	1	-1E+10	1	-1E+10	1	-1E+10	1	-1E+10	1
4902551	72	C	08/09/2022	08:08	-132.190	48.953	0	158.70	0	6.2720	0	33.5970	0	26.412	0	157.294	0	162.2	4	53.8	4	-1E+10	1	-1E+10	1	-1E+10	1	-1E+10	1	-1E+10	1	-1E+10	1
4902551	72	C	08/09/2022	08:08	-132.190	48.953	0	159.90	0	6.2650	0	33.6000	0	26.415	0	158.483	0	160.6	4	53.2	4	-1E+10	1	-1E+10	1	-1E+10	1	-1E+10	1	-1E+10	1	-1E+10	1
4902551	72	C	08/09/2022	08:08	-132.190	48.953	0	161.10	0	6.2540	0	33.6060	0	26.421	0	159.672	0	158.5	4	52.5	4	-1E+10	1	-1E+10	1	-1E+10	1	-1E+10	1	-1E+10	1	-1E+10	1
4902551	72	C	08/09/2022	08:08	-132.190	48.953	0	161.90	0	6.2370	0	33.6160	0	26.431	0	160.464	0	157.0	4	52.0	4	-1E+10	1	-1E+10	1	-1E+10	1	-1E+10	1	-1E+10	1	-1E+10	1
4902551	72	C	08/09/2022	08:08	-132.190	48.953	0	162.80	0	6.2290	0	33.6200	0	26.435	0	161.356	0	155.9	4	51.7	4	-1E+10	1	-1E+10	1	-1E+10	1	-1E+10	1	-1E+10	1	-1E+10	1
4902551	72	C	08/09/2022	08:08	-132.190	48.953	0	163.60	0	6.2130	0	33.6300	0	26.445	0	162.149	0	154.7	4	51.2	4	-1E+10	1	-1E+10	1	-1E+10	1	-1E+10	1	-1E+10	1	-1E+10	1
4902551	72	C	08/09/2022	08:08	-132.190	48.953	0	164.90	0	6.1750	0	33.6430	0	26.460	0	163.437	0	152.8	4	50.6	4	-1E+10	1	-1E+10	1	-1E+10	1	-1E+10	1	-1E+10	1	-1E+10	1
4902551	72	C	08/09/2022	08:08	-132.190	48.953	0	166.10	0	6.1420	0	33.6600	0	26.478	0	164.626	0	150.9	4	49.9	4	-1E+10	1	-1E+10	1	-1E+10	1	-1E+10	1	-1E+10	1	-1E+10	1
4902551	72	C	08/09/2022	08:08	-132.190	48.953	0	167.00	0	6.1230	0	33.6660	0	26.485	0	165.517	0	149.8	4	49.6	4	-1E+10	1	-1E+10	1	-1E+10	1	-1E+10	1	-1E+10	1	-1E+10	1
4902551	72	C	08/09/2022	08:08	-132.190	48.953	0	167.90	0	6.1060	0	33.6710	0	26.491	0	166.409	0	148.6	4	49.1	4	-1E+10	1	-1E+10	1	-1E+10	1	-1E+10	1	-1E+10	1	-1E+10	1
4902551	72	C	08/09/2022	08:08	-132.190	48.953	0	168.70	0	6.0860	0	33.6810	0	26.502	0	167.201	0	147.4	4	48.7	4	-1E+10	1	-1E+10	1	-1E+10	1	-1E+10	1	-1E+10	1	-1E+10	1
4902551	72	C	08/09/2022	08:08	-132.190	48.953	0	169.90	0	6.0530	0	33.6880	0	26.511	0	168.390	0	145.7	4	48.1	4	-1E+10	1	-1E+10	1	-1E+10	1	-1E+10	1	-1E+10	1	-1E+10	1
4902551	72	C	08/09/2022	08:08	-132.190	48.953	0	171.10	0	6.0450	0	33.6900	0	26.514	0	169.579	0	144.0	4	47.5	4	-1E+10	1	-1E+10	1	-1E+10	1	-1E+10	1	-1E+10	1	-1E+10	1
4902551	72	C	08/09/2022	08:08	-132.190	48.953	0	172.00	0	6.0110	0	33.7020	0	26.528	0	170.471	0	142.6	4	47.0	4	-1E+10	1	-1E+10	1	-1E+10	1	-1E+10	1	-1E+10	1	-1E+10	1
4902551	72	C	08/09/2022	08:08	-132.190	48.953	0	173.10	0	5.9850	0	33.7070	0	26.535	0	171.561	0	141.3	4	46.6	4	-1E+10	1	-1E+10	1	-1E+10	1	-1E+10	1	-1E+10	1	-1E+10	1
4902551	72	C	08/09/2022	08:08	-132.190	48.953	0	173.80	0	5.9750	0	33.7100	0	26.538	0	172.254	0	140.6	4	46.4	4	-1E+10	1	-1E+10	1	-1E+10	1	-1E+10	1	-1E+10	1	-1E+10	1
4902551	72	C	08/09/2022	08:08	-132.190	48.953	0	174.80	0	5.9560	0	33.7160	0	26.546	0	173.245	0	139.7	4	46.0	4	-1E+10	1	-1E+10	1	-1E+10	1	-1E+10	1	-1E+10	1	-1E+10	1
4902551	72	C	08/09/2022	08:08	-132.190	48.953	0	176.00	0	5.9200	0	33.7340	0	26.564	0	174.433	0	138.9	4	45.7	4	-1E+10	1	-1E+10	1	-1E+10	1	-1E+10	1	-1E+10	1	-1E+10	1
4902551	72	C	08/09/2022	08:08	-132.190	48.953	0	176.70	0	5.9020	0	33.7310	0	26.564	0	175.127	0	138.4	4	45.6	4	-1E+10	1	-1E+10	1	-1E+10	1	-1E+10	1	-1E+10	1	-1E+10	1
4902551	72	C	08/09/2022	08:08	-132.190	48.953	0	177.90	0	5.8950	0	33.7310	0	26.565	0	176.316	0	137.6	4	45.3	4	-1E+10	1	-1E+10	1	-1E+10	1	-1E+10	1	-1E+10	1	-1E+10	1
4902551	72	C	08/09/2022	08:08	-132.190	48.953	0	179.10	0	5.8880	0	33.7320	0	26.567	0	177.505	0	136.7	4	45.0	4	-1E+10	1	-1E+10	1	-1E+10	1	-1E+10	1	-1E+10	1	-1E+10	1
4902551	72	C	08/09/2022	08:08	-132.190	48.953	0	179.90	0	5.8820	0	33.7320	0	26.567	0	178.297	0	136.1	4	44.8	4	-1E+10	1	-1E+10	1	-1E+10	1	-1E+10	1	-1E+10	1	-1E+10	1
4902551	72	C	08/09/2022	08:08	-132.190	48.953	0	180.80	0	5.8780	0	33.7330	0	26.569	0	179.189	0	135.4	4	44.6	4	-1E+10	1	-1E+10	1	-1E+10	1	-1E+10	1	-1E+10	1	-1E+10	1
4902551	72	C	08/09/2022	08:08	-132.190	48.953	0	182.00	0	5.8490	0	33.7420	0	26.579	0	180.377	0	134.5	4	44.2	4	-1E+10	1	-1E+10	1	-1E+10	1	-1E+10	1	-1E+10	1	-1E+10	1
4902551	72	C	08/09/2022	08:08	-132.190	48.953	0	183.30	0	5.8260	0	33.7460	0	26.585	0	181.665	0	133.7	4	43.9	4	-1E+10	1	-1E+10	1	-1E+10	1	-1E+10	1	-1E+10	1	-1E+10	1
4902551	72	C	08/09/2022	08:08	-132.190	48.953	0	184.10	0	5.8080	0	33.7500	0	26.591	0	182.458	0	133.3	4	43.8	4	-1E+10	1	-1E+10	1	-1E+10	1	-1E+10	1	-1E+10	1	-1E+10	1
4902551	72	C	08/09/2022	08:08	-132.190	48.953	0	185.00	0	5.7870	0	33.7520	0	26.595	0	183.349	0	132.9	4	43.7	4	-1E+10	1	-1E+10	1	-1E+10	1	-1E+10	1	-1E+10	1	-1E+10	1
4902551	72	C	08/09/2022	08:08	-132.190	48.953	0	185.90	0	5.7600	0	33.7530	0	26.599	0	184.241	0	132.6	4	43.5	4	-1E+10	1	-1E+10	1	-1E+10	1	-1E+10	1	-1E+10	1	-1E+10	1
4902551	72	C	08/09/2022	08:08	-132.190	48.953	0	186.80	0	5.7570	0	33.7520	0	26.599	0	185.133	0	132.3	4	43.4	4	-1E+10	1	-1E+10	1	-1E+10	1	-1E+10	1	-1E+10	1	-1E+10	1
4902551	72	C	08/09/2022	08:08	-132.190	48.953	0	187.70	0	5.7510	0	33.7540	0	26.601	0	186.024	0	131.8	4	43.2	4	-1E+10	1	-1E+10	1	-1E+10	1	-1E+10	1	-1E+10	1	-1E+10	1
4902551	72	C	08/09/2022	08:08	-132.190	48.953	0	188.60	0	5.7430	0	33.7560	0	26.603	0	186.916	0	131.4	4	43.1	4	-1E+10	1	-1E+10	1	-1E+10	1	-1E+10	1	-1E+10	1	-1E+10	1
4902551	72	C	08/09/2022	08:08	-132.190	48.953	0	189.50	0	5.7360	0	33.7550	0	26.604	0	187.807	0	130.9	4	42.9	4	-1E+10	1	-1E+10	1	-1E+10	1	-1E+10	1	-1E+10	1	-1E+10	1
4902551	72	C	08/09/2022	08:08	-132.190	48.953	0	190.90	0	5.7250	0	33.7570	0	26.606	0	189.194	0	130.2	4	42.7	4	-1E+10	1	-1E+10	1	-1E+10	1	-1E+10	1	-1E+10	1	-1E+10	1
4902551	72	C	08/09/2022	08:08	-132.190	48.953	0	192.30	0	5.6980	0	33.7660	0	26.617	0	190.581	0	129.4	4	42.4	4	-1E+10	1	-1E+10	1	-1E+10	1	-1E+10	1	-1E+10	1	-1E+10	1
4902551	72	C	08/09/2022	08:08	-132.190	48.953	0	193.20	0	5.6700	0	33.7660	0	26.620	0	191.472	0	129.1	4	42.3	4	-1E+10	1	-1E+10	1	-1E+10	1	-1E+10	1	-1E+10	1	-1E+10	1
4902551	72	C	08/09/2022	08:08	-132.190	48.953	0	194.10	0	5.6600	0	33.7630	0	26.619	0	192.364	0	128.6	4	42.1	4	-1E+10	1	-1E+10	1	-1E+10	1	-1E+10	1	-1E+10	1	-1E+10	1
4902551	72	C	08/09/2022	08:08	-132.190	48.953	0	195.10	0	5.6540	0	33.7660	0	26.622	0	193.355	0	128.1	4	41.9	4	-1E+10	1	-1E+10	1	-1E+10	1	-1E+10	1	-1E+10	1	-1E+10	1
4902551	72	C	08/09/2022	08:08	-132.190	48.953	0	196.00	0	5.6430	0	33.7670	0	26.624	0	194.246	0	127.6	4	41.8	4	-1E+10	1	-1E+10	1	-1E+10	1	-1E+10	1	-1E+10	1	-1E+10	1
4902551	72	C	08/09/2022	08:08	-132.190	48.953	0	197.00	0	5.6160	0	33.7660	0	26.627	0	195.237	0	127.2	4	41.6	4	-1E+10	1	-1E+10	1	-1E+10	1	-1E+10	1	-1E+10	1	-1E+10	1
4902551	72	C	08/09/2022	08:08	-132.190	48.953	0	197.90	0	5.6090	0	33.7700	0	26.631	0	196.128	0	126.7	4	41.4	4	-1E+10	1	-1E+10	1	-1E+10	1	-1E+10	1	-1E+10	1	-1E+10	1
4902551	72	C	08/09/2022	08:08	-132.190	48.953	0	198.90	0	5.6040	0	33.7710	0	26.632	0	197.119	0	126.2	4	41.3	4	-1E+10	1	-1E+10	1	-1E+10	1	-1E+10	1	-1E+10	1	-1E+10	1
4902551	72	C	08/09/2022	08:08	-132.190	48.953	0	199.90	0	5.6070	0	33.7750	0	26.635	0	198.109	0	125.7	4	41.1	4	-1E+10	1	-1E+10	1	-1E+10	1	-1E+10	1	-1E+10	1	-1E+10	1
4902551	72	C	08/09/2022	08:08	-132.190	48.953	0	200.90	0	5.6050	0	33.7770	0	26.637	0	199.100	0	125.2	4	40.9	4	-1E+10	1	-1E+10	1	-1E+10	1	-1E+10	1	-1E+10	1	-1E+10	1
4902551	72	C	08/09/2022	08:08	-132.190	48.953	0	201.90	0	5.5970	0	33.7780	0	26.639	0	200.090	0	124.6	4	40.8	4	-1E+10	1	-1E+10	1	-1E+10	1	-1E+10	1	-1E+10	1	-1E+10	1
4902551	72	C	08/09/2022	08:08	-132.190	48.953	0	202.90	0	5.5970	0	33.7770	0	26.638	0	201.081	0	124.1	4	40.6	4	-1E+10	1	-1E+10	1	-1E+10	1	-1E+10	1	-1E+10	1	-1E+10	1
4902551	72	C	08/09/2022	08:08	-132.190	48.953	0	203.90	0	5.5960	0	33.7780	0	26.639	0	202.072	0	123.5	4	40.4	4	-1E+10	1	-1E+10	1	-1E+10	1	-1E+10	1	-1E+10	1	-1E+10	1
4902551	72	C	08/09/2022	08:08	-132.190	48.953	0	204.90	0	5.5890	0	33.7830	0	26.644	0	203.062	0	122.9	4	40.2	4	-1E+10	1	-1E+10	1	-1E+10	1	-1E+10	1	-1E+10	1	-1E+10	1
4902551	72	C	08/09/2022	08:08	-132.190	48.953	0	205.90	0	5.5820	0	33.7820	0	26.644	0	204.053	0	122.3	4	40.0	4	-1E+10	1	-1E+10	1	-1E+10	1	-1E+10	1	-1E+10	1	-1E+10	1
4902551	72	C	08/09/2022	08:08	-132.190	48.953	0	207.00	0	5.5750	0	33.7830	0	26.645	0	205.142	0	121.7	4	39.8	4	-1E+10	1	-1E+10	1	-1E+10	1	-1E+10	1	-1E+10	1	-1E+10	1
4902551	72	C	08/09/2022	08:08	-132.190	48.953	0	208.00	0	5.5640	0	33.7870	0	26.650	0	206.133	0	121.1	4	39.6	4	-1E+10	1	-1E+10	1	-1E+10	1	-1E+10	1	-1E+10	1	-1E+10	1
4902551	72	C	08/09/2022	08:08	-132.190	48.953	0	209.00	0	5.5590	0	33.7850	0	26.649	0	207.123	0	120.5	4	39.4	4	-1E+10	1	-1E+10	1	-1E+10	1	-1E+10	1	-1E+10	1	-1E+10	1
4902551	72	C	08/09/2022	08:08	-132.190	48.953	0	210.10	0	5.5550	0	33.7850	0	26.649	0	208.213	0	119.8	4	39.1	4	-1E+10	1	-1E+10	1	-1E+10	1	-1E+10	1	-1E+10	1	-1E+10	1
4902551	72	C	08/09/2022	08:08	-132.190	48.953	0	211.10	0	5.5490	0	33.7850	0	26.650	0	209.203	0	119.1	4	38.9	4	-1E+10	1	-1E+10	1	-1E+10	1	-1E+10	1	-1E+10	1	-1E+10	1
4902551	72	C	08/09/2022	08:08	-132.190	48.953	0	212.20	0	5.5300	0	33.7920	0	26.658	0	210.293	0	118.4	4	38.6	4	-1E+10	1	-1E+10	1	-1E+10	1	-1E+10	1	-1E+10	1	-1E+10	1
4902551	72	C	08/09/2022	08:08	-132.190	48.953	0	213.20	0	5.4820	0	33.7850	0	26.658	0	211.283	0	117.6	4	38.3	4	-1E+10	1	-1E+10	1	-1E+10	1	-1E+10	1	-1E+10	1	-1E+10	1
4902551	72	C	08/09/2022	08:08	-132.190	48.953	0	214.30	0	5.4500	0	33.7890	0	26.665	0	212.373	0	116.7	4	38.0	4	-1E+10	1	-1E+10	1	-1E+10	1	-1E+10	1	-1E+10	1	-1E+10	1
4902551	72	C	08/09/2022	08:08	-132.190	48.953	0	215.40	0	5.4120	0	33.7870	0	26.668	0	213.462	0	115.7	4	37.7	4	-1E+10	1	-1E+10	1	-1E+10	1	-1E+10	1	-1E+10	1	-1E+10	1
4902551	72	C	08/09/2022	08:08	-132.190	48.953	0	216.40	0	5.4090	0	33.7840	0	26.666	0	214.453	0	114.8	4	37.4	4	-1E+10	1	-1E+10	1	-1E+10	1	-1E+10	1	-1E+10	1	-1E+10	1
4902551	72	C	08/09/2022	08:08	-132.190	48.953	0	217.50	0	5.4310	0	33.7820	0	26.662	0	215.542	0	114.0	4	37.1	4	-1E+10	1	-1E+10	1	-1E+10	1	-1E+10	1	-1E+10	1	-1E+10	1
4902551	72	C	08/09/2022	08:08	-132.190	48.953	0	218.60	0	5.4750	0	33.8040	0	26.674	0	216.632	0	113.4	4	37.0	4	-1E+10	1	-1E+10	1	-1E+10	1	-1E+10	1	-1E+10	1	-1E+10	1
4902551	72	C	08/09/2022	08:08	-132.190	48.953	0	219.70	0	5.4550	0	33.8070	0	26.679	0	217.722	0	112.8	4	36.8	4	-1E+10	1	-1E+10	1	-1E+10	1	-1E+10	1	-1E+10	1	-1E+10	1
4902551	72	C	08/09/2022	08:08	-132.190	48.953	0	220.70	0	5.4480	0	33.8020	0	26.676	0	218.712	0	112.2	4	36.6	4	-1E+10	1	-1E+10	1	-1E+10	1	-1E+10	1	-1E+10	1	-1E+10	1
4902551	72	C	08/09/2022	08:08	-132.190	48.953	0	221.90	0	5.4230	0	33.8030	0	26.679	0	219.901	0	111.6	4	36.4	4	-1E+10	1	-1E+10	1	-1E+10	1	-1E+10	1	-1E+10	1	-1E+10	1
4902551	72	C	08/09/2022	08:08	-132.190	48.953	0	222.90	0	5.3810	0	33.8140	0	26.693	0	220.891	0	111.1	4	36.2	4	-1E+10	1	-1E+10	1	-1E+10	1	-1E+10	1	-1E+10	1	-1E+10	1
4902551	72	C	08/09/2022	08:08	-132.190	48.953	0	224.10	0	5.3600	0	33.8050	0	26.688	0	222.080	0	110.7	4	36.0	4	-1E+10	1	-1E+10	1	-1E+10	1	-1E+10	1	-1E+10	1	-1E+10	1
4902551	72	C	08/09/2022	08:08	-132.190	48.953	0	225.20	0	5.3560	0	33.8090	0	26.692	0	223.169	0	110.3	4	35.9	4	-1E+10	1	-1E+10	1	-1E+10	1	-1E+10	1	-1E+10	1	-1E+10	1
4902551	72	C	08/09/2022	08:08	-132.190	48.953	0	226.30	0	5.3430	0	33.8110	0	26.695	0	224.259	0	110.0	4	35.8	4	-1E+10	1	-1E+10	1	-1E+10	1	-1E+10	1	-1E+10	1	-1E+10	1
4902551	72	C	08/09/2022	08:08	-132.190	48.953	0	227.40	0	5.3290	0	33.8120	0	26.698	0	225.348	0	109.7	4	35.7	4	-1E+10	1	-1E+10	1	-1E+10	1	-1E+10	1	-1E+10	1	-1E+10	1
4902551	72	C	08/09/2022	08:08	-132.190	48.953	0	228.50	0	5.2970	0	33.8170	0	26.705	0	226.437	0	109.4	4	35.5	4	-1E+10	1	-1E+10	1	-1E+10	1	-1E+10	1	-1E+10	1	-1E+10	1
4902551	72	C	08/09/2022	08:08	-132.190	48.953	0	229.60	0	5.2890	0	33.8110	0	26.702	0	227.527	0	109.1	4	35.4	4	-1E+10	1	-1E+10	1	-1E+10	1	-1E+10	1	-1E+10	1	-1E+10	1
4902551	72	C	08/09/2022	08:08	-132.190	48.953	0	230.70	0	5.2750	0	33.8060	0	26.699	0	228.616	0	108.9	4	35.4	4	-1E+10	1	-1E+10	1	-1E+10	1	-1E+10	1	-1E+10	1	-1E+10	1
4902551	72	C	08/09/2022	08:08	-132.190	48.953	0	231.80	0	5.2750	0	33.8100	0	26.702	0	229.706	0	108.7	4	35.3	4	-1E+10	1	-1E+10	1	-1E+10	1	-1E+10	1	-1E+10	1	-1E+10	1
4902551	72	C	08/09/2022	08:08	-132.190	48.953	0	232.90	0	5.2710	0	33.8110	0	26.704	0	230.795	0	108.4	4	35.2	4	-1E+10	1	-1E+10	1	-1E+10	1	-1E+10	1	-1E+10	1	-1E+10	1
4902551	72	C	08/09/2022	08:08	-132.190	48.953	0	234.10	0	5.2690	0	33.8100	0	26.703	0	231.984	0	108.1	4	35.1	4	-1E+10	1	-1E+10	1	-1E+10	1	-1E+10	1	-1E+10	1	-1E+10	1
4902551	72	C	08/09/2022	08:08	-132.190	48.953	0	235.30	0	5.2600	0	33.8070	0	26.702	0	233.172	0	107.8	4	35.0	4	-1E+10	1	-1E+10	1	-1E+10	1	-1E+10	1	-1E+10	1	-1E+10	1
4902551	72	C	08/09/2022	08:08	-132.190	48.953	0	236.40	0	5.2570	0	33.8080	0	26.703	0	234.262	0	107.5	4	34.9	4	-1E+10	1	-1E+10	1	-1E+10	1	-1E+10	1	-1E+10	1	-1E+10	1
4902551	72	C	08/09/2022	08:08	-132.190	48.953	0	237.60	0	5.2560	0	33.8110	0	26.705	0	235.450	0	107.2	4	34.8	4	-1E+10	1	-1E+10	1	-1E+10	1	-1E+10	1	-1E+10	1	-1E+10	1
4902551	72	C	08/09/2022	08:08	-132.190	48.953	0	238.70	0	5.2530	0	33.8100	0	26.705	0	236.540	0	106.9	4	34.7	4	-1E+10	1	-1E+10	1	-1E+10	1	-1E+10	1	-1E+10	1	-1E+10	1
4902551	72	C	08/09/2022	08:08	-132.190	48.953	0	239.90	0	5.2500	0	33.8110	0	26.706	0	237.728	0	106.6	4	34.6	4	-1E+10	1	-1E+10	1	-1E+10	1	-1E+10	1	-1E+10	1	-1E+10	1
4902551	72	C	08/09/2022	08:08	-132.190	48.953	0	241.00	0	5.2470	0	33.8130	0	26.708	0	238.817	0	106.4	4	34.5	4	-1E+10	1	-1E+10	1	-1E+10	1	-1E+10	1	-1E+10	1	-1E+10	1
4902551	72	C	08/09/2022	08:08	-132.190	48.953	0	242.10	0	5.2430	0	33.8120	0	26.708	0	239.907	0	106.1	4	34.4	4	-1E+10	1	-1E+10	1	-1E+10	1	-1E+10	1	-1E+10	1	-1E+10	1
4902551	72	C	08/09/2022	08:08	-132.190	48.953	0	243.30	0	5.2430	0	33.8120	0	26.708	0	241.095	0	105.8	4	34.3	4	-1E+10	1	-1E+10	1	-1E+10	1	-1E+10	1	-1E+10	1	-1E+10	1
4902551	72	C	08/09/2022	08:08	-132.190	48.953	0	244.40	0	5.2440	0	33.8160	0	26.711	0	242.185	0	105.5	4	34.2	4	-1E+10	1	-1E+10	1	-1E+10	1	-1E+10	1	-1E+10	1	-1E+10	1
4902551	72	C	08/09/2022	08:08	-132.190	48.953	0	245.50	0	5.2330	0	33.8220	0	26.717	0	243.274	0	105.3	4	34.2	4	-1E+10	1	-1E+10	1	-1E+10	1	-1E+10	1	-1E+10	1	-1E+10	1
4902551	72	C	08/09/2022	08:08	-132.190	48.953	0	246.70	0	5.2130	0	33.8250	0	26.722	0	244.462	0	105.1	4	34.1	4	-1E+10	1	-1E+10	1	-1E+10	1	-1E+10	1	-1E+10	1	-1E+10	1
4902551	72	C	08/09/2022	08:08	-132.190	48.953	0	247.80	0	5.1850	0	33.8140	0	26.716	0	245.552	0	104.9	4	34.0	4	-1E+10	1	-1E+10	1	-1E+10	1	-1E+10	1	-1E+10	1	-1E+10	1
4902551	72	C	08/09/2022	08:08	-132.190	48.953	0	248.90	0	5.1750	0	33.8120	0	26.716	0	246.641	0	104.6	4	33.9	4	-1E+10	1	-1E+10	1	-1E+10	1	-1E+10	1	-1E+10	1	-1E+10	1
4902551	72	C	08/09/2022	08:08	-132.190	48.953	0	250.10	0	5.1720	0	33.8100	0	26.714	0	247.830	0	104.2	4	33.7	4	-1E+10	1	-1E+10	1	-1E+10	1	-1E+10	1	-1E+10	1	-1E+10	1
4902551	72	C	08/09/2022	08:08	-132.190	48.953	0	251.20	0	5.1670	0	33.8180	0	26.721	0	248.919	0	103.8	4	33.6	4	-1E+10	1	-1E+10	1	-1E+10	1	-1E+10	1	-1E+10	1	-1E+10	1
4902551	72	C	08/09/2022	08:08	-132.190	48.953	0	252.30	0	5.1640	0	33.8110	0	26.716	0	250.008	0	103.4	4	33.5	4	-1E+10	1	-1E+10	1	-1E+10	1	-1E+10	1	-1E+10	1	-1E+10	1
4902551	72	C	08/09/2022	08:08	-132.190	48.953	0	253.50	0	5.1520	0	33.8100	0	26.717	0	251.197	0	103.0	4	33.3	4	-1E+10	1	-1E+10	1	-1E+10	1	-1E+10	1	-1E+10	1	-1E+10	1
4902551	72	C	08/09/2022	08:08	-132.190	48.953	0	254.60	0	5.1450	0	33.8130	0	26.720	0	252.286	0	102.5	4	33.2	4	-1E+10	1	-1E+10	1	-1E+10	1	-1E+10	1	-1E+10	1	-1E+10	1
4902551	72	C	08/09/2022	08:08	-132.190	48.953	0	255.70	0	5.1500	0	33.8100	0	26.717	0	253.375	0	101.9	4	33.0	4	-1E+10	1	-1E+10	1	-1E+10	1	-1E+10	1	-1E+10	1	-1E+10	1
4902551	72	C	08/09/2022	08:08	-132.190	48.953	0	256.90	0	5.1320	0	33.8280	0	26.733	0	254.564	0	101.4	4	32.8	4	-1E+10	1	-1E+10	1	-1E+10	1	-1E+10	1	-1E+10	1	-1E+10	1
4902551	72	C	08/09/2022	08:08	-132.190	48.953	0	258.00	0	5.1080	0	33.8130	0	26.724	0	255.653	0	101.0	4	32.7	4	-1E+10	1	-1E+10	1	-1E+10	1	-1E+10	1	-1E+10	1	-1E+10	1
4902551	72	C	08/09/2022	08:08	-132.190	48.953	0	259.10	0	5.0930	0	33.8150	0	26.728	0	256.742	0	100.5	4	32.5	4	-1E+10	1	-1E+10	1	-1E+10	1	-1E+10	1	-1E+10	1	-1E+10	1
4902551	72	C	08/09/2022	08:08	-132.190	48.953	0	260.20	0	5.0830	0	33.8150	0	26.729	0	257.832	0	99.9	4	32.3	4	-1E+10	1	-1E+10	1	-1E+10	1	-1E+10	1	-1E+10	1	-1E+10	1
4902551	72	C	08/09/2022	08:08	-132.190	48.953	0	261.40	0	5.0750	0	33.8180	0	26.732	0	259.020	0	99.3	4	32.1	4	-1E+10	1	-1E+10	1	-1E+10	1	-1E+10	1	-1E+10	1	-1E+10	1
4902551	72	C	08/09/2022	08:08	-132.190	48.953	0	262.50	0	5.0650	0	33.8180	0	26.733	0	260.109	0	98.7	4	31.9	4	-1E+10	1	-1E+10	1	-1E+10	1	-1E+10	1	-1E+10	1	-1E+10	1
4902551	72	C	08/09/2022	08:08	-132.190	48.953	0	263.60	0	5.0420	0	33.8220	0	26.739	0	261.198	0	98.0	4	31.7	4	-1E+10	1	-1E+10	1	-1E+10	1	-1E+10	1	-1E+10	1	-1E+10	1
4902551	72	C	08/09/2022	08:08	-132.190	48.953	0	264.70	0	5.0320	0	33.8200	0	26.739	0	262.288	0	97.4	4	31.5	4	-1E+10	1	-1E+10	1	-1E+10	1	-1E+10	1	-1E+10	1	-1E+10	1
4902551	72	C	08/09/2022	08:08	-132.190	48.953	0	265.80	0	5.0300	0	33.8220	0	26.740	0	263.377	0	96.8	4	31.3	4	-1E+10	1	-1E+10	1	-1E+10	1	-1E+10	1	-1E+10	1	-1E+10	1
4902551	72	C	08/09/2022	08:08	-132.190	48.953	0	266.90	0	5.0270	0	33.8240	0	26.742	0	264.466	0	96.3	4	31.1	4	-1E+10	1	-1E+10	1	-1E+10	1	-1E+10	1	-1E+10	1	-1E+10	1
4902551	72	C	08/09/2022	08:08	-132.190	48.953	0	268.00	0	5.0240	0	33.8250	0	26.743	0	265.556	0	95.8	4	30.9	4	-1E+10	1	-1E+10	1	-1E+10	1	-1E+10	1	-1E+10	1	-1E+10	1
4902551	72	C	08/09/2022	08:08	-132.190	48.953	0	269.10	0	5.0220	0	33.8270	0	26.745	0	266.645	0	95.3	4	30.8	4	-1E+10	1	-1E+10	1	-1E+10	1	-1E+10	1	-1E+10	1	-1E+10	1
4902551	72	C	08/09/2022	08:08	-132.190	48.953	0	270.20	0	5.0140	0	33.8290	0	26.748	0	267.734	0	94.8	4	30.6	4	-1E+10	1	-1E+10	1	-1E+10	1	-1E+10	1	-1E+10	1	-1E+10	1
4902551	72	C	08/09/2022	08:08	-132.190	48.953	0	271.30	0	5.0020	0	33.8280	0	26.748	0	268.823	0	94.2	4	30.4	4	-1E+10	1	-1E+10	1	-1E+10	1	-1E+10	1	-1E+10	1	-1E+10	1
4902551	72	C	08/09/2022	08:08	-132.190	48.953	0	272.40	0	4.9850	0	33.8350	0	26.756	0	269.913	0	93.6	4	30.2	4	-1E+10	1	-1E+10	1	-1E+10	1	-1E+10	1	-1E+10	1	-1E+10	1
4902551	72	C	08/09/2022	08:08	-132.190	48.953	0	273.50	0	4.9750	0	33.8330	0	26.755	0	271.002	0	93.1	4	30.0	4	-1E+10	1	-1E+10	1	-1E+10	1	-1E+10	1	-1E+10	1	-1E+10	1
4902551	72	C	08/09/2022	08:08	-132.190	48.953	0	274.60	0	4.9700	0	33.8330	0	26.756	0	272.091	0	92.7	4	29.9	4	-1E+10	1	-1E+10	1	-1E+10	1	-1E+10	1	-1E+10	1	-1E+10	1
4902551	72	C	08/09/2022	08:08	-132.190	48.953	0	275.70	0	4.9670	0	33.8340	0	26.757	0	273.180	0	92.2	4	29.7	4	-1E+10	1	-1E+10	1	-1E+10	1	-1E+10	1	-1E+10	1	-1E+10	1
4902551	72	C	08/09/2022	08:08	-132.190	48.953	0	276.80	0	4.9620	0	33.8360	0	26.759	0	274.269	0	91.8	4	29.6	4	-1E+10	1	-1E+10	1	-1E+10	1	-1E+10	1	-1E+10	1	-1E+10	1
4902551	72	C	08/09/2022	08:08	-132.190	48.953	0	277.80	0	4.9490	0	33.8430	0	26.766	0	275.260	0	91.3	4	29.4	4	-1E+10	1	-1E+10	1	-1E+10	1	-1E+10	1	-1E+10	1	-1E+10	1
4902551	72	C	08/09/2022	08:08	-132.190	48.953	0	278.90	0	4.9380	0	33.8360	0	26.762	0	276.349	0	90.8	4	29.3	4	-1E+10	1	-1E+10	1	-1E+10	1	-1E+10	1	-1E+10	1	-1E+10	1
4902551	72	C	08/09/2022	08:08	-132.190	48.953	0	280.00	0	4.9270	0	33.8380	0	26.765	0	277.438	0	90.4	4	29.1	4	-1E+10	1	-1E+10	1	-1E+10	1	-1E+10	1	-1E+10	1	-1E+10	1
4902551	72	C	08/09/2022	08:08	-132.190	48.953	0	281.00	0	4.9240	0	33.8400	0	26.767	0	278.428	0	89.8	4	28.9	4	-1E+10	1	-1E+10	1	-1E+10	1	-1E+10	1	-1E+10	1	-1E+10	1
4902551	72	C	08/09/2022	08:08	-132.190	48.953	0	282.10	0	4.9150	0	33.8370	0	26.765	0	279.517	0	89.2	4	28.7	4	-1E+10	1	-1E+10	1	-1E+10	1	-1E+10	1	-1E+10	1	-1E+10	1
4902551	72	C	08/09/2022	08:08	-132.190	48.953	0	283.20	0	4.9120	0	33.8380	0	26.767	0	280.607	0	88.5	4	28.5	4	-1E+10	1	-1E+10	1	-1E+10	1	-1E+10	1	-1E+10	1	-1E+10	1
4902551	72	C	08/09/2022	08:08	-132.190	48.953	0	284.20	0	4.9110	0	33.8380	0	26.767	0	281.597	0	87.8	4	28.3	4	-1E+10	1	-1E+10	1	-1E+10	1	-1E+10	1	-1E+10	1	-1E+10	1
4902551	72	C	08/09/2022	08:08	-132.190	48.953	0	285.30	0	4.9210	0	33.8380	0	26.766	0	282.686	0	87.2	4	28.1	4	-1E+10	1	-1E+10	1	-1E+10	1	-1E+10	1	-1E+10	1	-1E+10	1
4902551	72	C	08/09/2022	08:08	-132.190	48.953	0	286.40	0	4.9480	0	33.8360	0	26.761	0	283.775	0	86.5	4	27.9	4	-1E+10	1	-1E+10	1	-1E+10	1	-1E+10	1	-1E+10	1	-1E+10	1
4902551	72	C	08/09/2022	08:08	-132.190	48.953	0	287.40	0	4.9380	0	33.8560	0	26.778	0	284.765	0	86.1	4	27.7	4	-1E+10	1	-1E+10	1	-1E+10	1	-1E+10	1	-1E+10	1	-1E+10	1
4902551	72	C	08/09/2022	08:08	-132.190	48.953	0	288.50	0	4.9340	0	33.8560	0	26.778	0	285.854	0	85.8	4	27.6	4	-1E+10	1	-1E+10	1	-1E+10	1	-1E+10	1	-1E+10	1	-1E+10	1
4902551	72	C	08/09/2022	08:08	-132.190	48.953	0	289.50	0	4.9180	0	33.8620	0	26.785	0	286.845	0	85.5	4	27.5	4	-1E+10	1	-1E+10	1	-1E+10	1	-1E+10	1	-1E+10	1	-1E+10	1
4902551	72	C	08/09/2022	08:08	-132.190	48.953	0	290.60	0	4.9050	0	33.8600	0	26.785	0	287.934	0	85.2	4	27.4	4	-1E+10	1	-1E+10	1	-1E+10	1	-1E+10	1	-1E+10	1	-1E+10	1
4902551	72	C	08/09/2022	08:08	-132.190	48.953	0	291.60	0	4.8900	0	33.8590	0	26.786	0	288.924	0	84.8	4	27.3	4	-1E+10	1	-1E+10	1	-1E+10	1	-1E+10	1	-1E+10	1	-1E+10	1
4902551	72	C	08/09/2022	08:08	-132.190	48.953	0	292.70	0	4.8840	0	33.8550	0	26.783	0	290.013	0	84.4	4	27.1	4	-1E+10	1	-1E+10	1	-1E+10	1	-1E+10	1	-1E+10	1	-1E+10	1
4902551	72	C	08/09/2022	08:08	-132.190	48.953	0	293.70	0	4.8830	0	33.8560	0	26.784	0	291.003	0	83.9	4	27.0	4	-1E+10	1	-1E+10	1	-1E+10	1	-1E+10	1	-1E+10	1	-1E+10	1
4902551	72	C	08/09/2022	08:08	-132.190	48.953	0	294.70	0	4.8830	0	33.8550	0	26.783	0	291.993	0	83.4	4	26.8	4	-1E+10	1	-1E+10	1	-1E+10	1	-1E+10	1	-1E+10	1	-1E+10	1
4902551	72	C	08/09/2022	08:08	-132.190	48.953	0	295.80	0	4.8830	0	33.8560	0	26.784	0	293.082	0	82.8	4	26.6	4	-1E+10	1	-1E+10	1	-1E+10	1	-1E+10	1	-1E+10	1	-1E+10	1
4902551	72	C	08/09/2022	08:08	-132.190	48.953	0	296.80	0	4.8800	0	33.8580	0	26.786	0	294.072	0	82.2	4	26.4	4	-1E+10	1	-1E+10	1	-1E+10	1	-1E+10	1	-1E+10	1	-1E+10	1
4902551	72	C	08/09/2022	08:08	-132.190	48.953	0	297.80	0	4.8730	0	33.8590	0	26.788	0	295.063	0	81.5	4	26.2	4	-1E+10	1	-1E+10	1	-1E+10	1	-1E+10	1	-1E+10	1	-1E+10	1
4902551	72	C	08/09/2022	08:08	-132.190	48.953	0	298.90	0	4.8630	0	33.8580	0	26.788	0	296.152	0	80.7	4	26.0	4	-1E+10	1	-1E+10	1	-1E+10	1	-1E+10	1	-1E+10	1	-1E+10	1
4902551	72	C	08/09/2022	08:08	-132.190	48.953	0	299.90	0	4.8700	0	33.8590	0	26.788	0	297.142	0	80.1	4	25.8	4	-1E+10	1	-1E+10	1	-1E+10	1	-1E+10	1	-1E+10	1	-1E+10	1
4902551	72	C	08/09/2022	08:08	-132.190	48.953	0	300.90	0	4.8790	0	33.8670	0	26.793	0	298.132	0	79.4	4	25.5	4	-1E+10	1	-1E+10	1	-1E+10	1	-1E+10	1	-1E+10	1	-1E+10	1
4902551	72	C	08/09/2022	08:08	-132.190	48.953	0	301.90	0	4.8740	0	33.8700	0	26.796	0	299.122	0	78.8	4	25.3	4	-1E+10	1	-1E+10	1	-1E+10	1	-1E+10	1	-1E+10	1	-1E+10	1
4902551	72	C	08/09/2022	08:08	-132.190	48.953	0	302.90	0	4.8760	0	33.8690	0	26.795	0	300.112	0	78.1	4	25.1	4	-1E+10	1	-1E+10	1	-1E+10	1	-1E+10	1	-1E+10	1	-1E+10	1
4902551	72	C	08/09/2022	08:08	-132.190	48.953	0	303.90	0	4.8860	0	33.8680	0	26.793	0	301.102	0	77.5	4	24.9	4	-1E+10	1	-1E+10	1	-1E+10	1	-1E+10	1	-1E+10	1	-1E+10	1
4902551	72	C	08/09/2022	08:08	-132.190	48.953	0	305.00	0	4.8960	0	33.8770	0	26.799	0	302.191	0	76.9	4	24.8	4	-1E+10	1	-1E+10	1	-1E+10	1	-1E+10	1	-1E+10	1	-1E+10	1
4902551	72	C	08/09/2022	08:08	-132.190	48.953	0	305.70	0	4.8910	0	33.8830	0	26.805	0	302.884	0	76.5	4	24.6	4	-1E+10	1	-1E+10	1	-1E+10	1	-1E+10	1	-1E+10	1	-1E+10	1
4902551	72	C	08/09/2022	08:08	-132.190	48.953	0	306.90	0	4.8750	0	33.8820	0	26.806	0	304.072	0	75.8	4	24.4	4	-1E+10	1	-1E+10	1	-1E+10	1	-1E+10	1	-1E+10	1	-1E+10	1
4902551	72	C	08/09/2022	08:08	-132.190	48.953	0	308.10	0	4.8640	0	33.8880	0	26.812	0	305.260	0	75.1	4	24.1	4	-1E+10	1	-1E+10	1	-1E+10	1	-1E+10	1	-1E+10	1	-1E+10	1
4902551	72	C	08/09/2022	08:08	-132.190	48.953	0	308.80	0	4.8470	0	33.8870	0	26.813	0	305.953	0	74.6	4	24.0	4	-1E+10	1	-1E+10	1	-1E+10	1	-1E+10	1	-1E+10	1	-1E+10	1
4902551	72	C	08/09/2022	08:08	-132.190	48.953	0	310.00	0	4.8630	0	33.8830	0	26.808	0	307.141	0	74.0	4	23.8	4	-1E+10	1	-1E+10	1	-1E+10	1	-1E+10	1	-1E+10	1	-1E+10	1
4902551	72	C	08/09/2022	08:08	-132.190	48.953	0	311.20	0	4.8690	0	33.8940	0	26.816	0	308.329	0	73.5	4	23.6	4	-1E+10	1	-1E+10	1	-1E+10	1	-1E+10	1	-1E+10	1	-1E+10	1
4902551	72	C	08/09/2022	08:08	-132.190	48.953	0	311.90	0	4.8690	0	33.8940	0	26.816	0	309.022	0	73.2	4	23.5	4	-1E+10	1	-1E+10	1	-1E+10	1	-1E+10	1	-1E+10	1	-1E+10	1
4902551	72	C	08/09/2022	08:08	-132.190	48.953	0	312.70	0	4.8600	0	33.9000	0	26.822	0	309.814	0	72.8	4	23.4	4	-1E+10	1	-1E+10	1	-1E+10	1	-1E+10	1	-1E+10	1	-1E+10	1
4902551	72	C	08/09/2022	08:08	-132.190	48.953	0	313.90	0	4.8460	0	33.8970	0	26.821	0	311.002	0	72.4	4	23.3	4	-1E+10	1	-1E+10	1	-1E+10	1	-1E+10	1	-1E+10	1	-1E+10	1
4902551	72	C	08/09/2022	08:08	-132.190	48.953	0	315.10	0	4.8430	0	33.8990	0	26.823	0	312.190	0	71.8	4	23.1	4	-1E+10	1	-1E+10	1	-1E+10	1	-1E+10	1	-1E+10	1	-1E+10	1
4902551	72	C	08/09/2022	08:08	-132.190	48.953	0	315.80	0	4.8400	0	33.8990	0	26.823	0	312.883	0	71.5	4	23.0	4	-1E+10	1	-1E+10	1	-1E+10	1	-1E+10	1	-1E+10	1	-1E+10	1
4902551	72	C	08/09/2022	08:08	-132.190	48.953	0	316.60	0	4.8390	0	33.8980	0	26.823	0	313.676	0	71.2	4	22.9	4	-1E+10	1	-1E+10	1	-1E+10	1	-1E+10	1	-1E+10	1	-1E+10	1
4902551	72	C	08/09/2022	08:08	-132.190	48.953	0	317.80	0	4.8340	0	33.9010	0	26.826	0	314.863	0	70.6	4	22.7	4	-1E+10	1	-1E+10	1	-1E+10	1	-1E+10	1	-1E+10	1	-1E+10	1
4902551	72	C	08/09/2022	08:08	-132.190	48.953	0	319.00	0	4.8260	0	33.9080	0	26.832	0	316.052	0	70.0	4	22.5	4	-1E+10	1	-1E+10	1	-1E+10	1	-1E+10	1	-1E+10	1	-1E+10	1
4902551	72	C	08/09/2022	08:08	-132.190	48.953	0	319.80	0	4.8230	0	33.9010	0	26.827	0	316.843	0	69.5	4	22.3	4	-1E+10	1	-1E+10	1	-1E+10	1	-1E+10	1	-1E+10	1	-1E+10	1
4902551	72	C	08/09/2022	08:08	-132.190	48.953	0	320.70	0	4.8290	0	33.9010	0	26.826	0	317.735	0	69.0	4	22.2	4	-1E+10	1	-1E+10	1	-1E+10	1	-1E+10	1	-1E+10	1	-1E+10	1
4902551	72	C	08/09/2022	08:08	-132.190	48.953	0	321.90	0	4.8370	0	33.9050	0	26.828	0	318.922	0	68.3	4	21.9	4	-1E+10	1	-1E+10	1	-1E+10	1	-1E+10	1	-1E+10	1	-1E+10	1
4902551	72	C	08/09/2022	08:08	-132.190	48.953	0	323.20	0	4.8530	0	33.9100	0	26.831	0	320.209	0	67.6	4	21.8	4	-1E+10	1	-1E+10	1	-1E+10	1	-1E+10	1	-1E+10	1	-1E+10	1
4902551	72	C	08/09/2022	08:08	-132.190	48.953	0	324.00	0	4.8540	0	33.9200	0	26.838	0	321.001	0	67.3	4	21.7	4	-1E+10	1	-1E+10	1	-1E+10	1	-1E+10	1	-1E+10	1	-1E+10	1
4902551	72	C	08/09/2022	08:08	-132.190	48.953	0	324.90	0	4.8380	0	33.9180	0	26.839	0	321.892	0	67.0	4	21.5	4	-1E+10	1	-1E+10	1	-1E+10	1	-1E+10	1	-1E+10	1	-1E+10	1
4902551	72	C	08/09/2022	08:08	-132.190	48.953	0	325.70	0	4.8580	0	33.9060	0	26.827	0	322.684	0	66.7	4	21.5	4	-1E+10	1	-1E+10	1	-1E+10	1	-1E+10	1	-1E+10	1	-1E+10	1
4902551	72	C	08/09/2022	08:08	-132.190	48.953	0	326.90	0	4.8860	0	33.9250	0	26.839	0	323.872	0	66.4	4	21.4	4	-1E+10	1	-1E+10	1	-1E+10	1	-1E+10	1	-1E+10	1	-1E+10	1
4902551	72	C	08/09/2022	08:08	-132.190	48.953	0	328.20	0	4.8940	0	33.9280	0	26.840	0	325.159	0	66.2	4	21.3	4	-1E+10	1	-1E+10	1	-1E+10	1	-1E+10	1	-1E+10	1	-1E+10	1
4902551	72	C	08/09/2022	08:08	-132.190	48.953	0	329.10	0	4.8940	0	33.9280	0	26.840	0	326.050	0	66.0	4	21.3	4	-1E+10	1	-1E+10	1	-1E+10	1	-1E+10	1	-1E+10	1	-1E+10	1
4902551	72	C	08/09/2022	08:08	-132.190	48.953	0	329.90	0	4.8960	0	33.9290	0	26.841	0	326.842	0	65.8	4	21.2	4	-1E+10	1	-1E+10	1	-1E+10	1	-1E+10	1	-1E+10	1	-1E+10	1
4902551	72	C	08/09/2022	08:08	-132.190	48.953	0	330.70	0	4.8950	0	33.9290	0	26.841	0	327.634	0	65.7	4	21.1	4	-1E+10	1	-1E+10	1	-1E+10	1	-1E+10	1	-1E+10	1	-1E+10	1
4902551	72	C	08/09/2022	08:08	-132.190	48.953	0	331.60	0	4.8970	0	33.9300	0	26.842	0	328.525	0	65.4	4	21.1	4	-1E+10	1	-1E+10	1	-1E+10	1	-1E+10	1	-1E+10	1	-1E+10	1
4902551	72	C	08/09/2022	08:08	-132.190	48.953	0	332.90	0	4.8990	0	33.9300	0	26.841	0	329.812	0	65.2	4	21.0	4	-1E+10	1	-1E+10	1	-1E+10	1	-1E+10	1	-1E+10	1	-1E+10	1
4902551	72	C	08/09/2022	08:08	-132.190	48.953	0	334.20	0	4.9020	0	33.9310	0	26.842	0	331.099	0	64.9	4	20.9	4	-1E+10	1	-1E+10	1	-1E+10	1	-1E+10	1	-1E+10	1	-1E+10	1
4902551	72	C	08/09/2022	08:08	-132.190	48.953	0	335.00	0	4.8990	0	33.9360	0	26.846	0	331.891	0	64.7	4	20.8	4	-1E+10	1	-1E+10	1	-1E+10	1	-1E+10	1	-1E+10	1	-1E+10	1
4902551	72	C	08/09/2022	08:08	-132.190	48.953	0	335.90	0	4.8940	0	33.9330	0	26.844	0	332.782	0	64.5	4	20.8	4	-1E+10	1	-1E+10	1	-1E+10	1	-1E+10	1	-1E+10	1	-1E+10	1
4902551	72	C	08/09/2022	08:08	-132.190	48.953	0	336.70	0	4.8940	0	33.9330	0	26.844	0	333.574	0	64.3	4	20.7	4	-1E+10	1	-1E+10	1	-1E+10	1	-1E+10	1	-1E+10	1	-1E+10	1
4902551	72	C	08/09/2022	08:08	-132.190	48.953	0	338.00	0	4.8910	0	33.9330	0	26.845	0	334.861	0	63.8	4	20.5	4	-1E+10	1	-1E+10	1	-1E+10	1	-1E+10	1	-1E+10	1	-1E+10	1
4902551	72	C	08/09/2022	08:08	-132.190	48.953	0	339.30	0	4.8910	0	33.9330	0	26.845	0	336.147	0	63.3	4	20.4	4	-1E+10	1	-1E+10	1	-1E+10	1	-1E+10	1	-1E+10	1	-1E+10	1
4902551	72	C	08/09/2022	08:08	-132.190	48.953	0	340.10	0	4.8910	0	33.9330	0	26.845	0	336.939	0	62.9	4	20.3	4	-1E+10	1	-1E+10	1	-1E+10	1	-1E+10	1	-1E+10	1	-1E+10	1
4902551	72	C	08/09/2022	08:08	-132.190	48.953	0	341.00	0	4.8900	0	33.9390	0	26.850	0	337.830	0	62.6	4	20.2	4	-1E+10	1	-1E+10	1	-1E+10	1	-1E+10	1	-1E+10	1	-1E+10	1
4902551	72	C	08/09/2022	08:08	-132.190	48.953	0	341.80	0	4.8880	0	33.9400	0	26.851	0	338.622	0	62.3	4	20.1	4	-1E+10	1	-1E+10	1	-1E+10	1	-1E+10	1	-1E+10	1	-1E+10	1
4902551	72	C	08/09/2022	08:08	-132.190	48.953	0	342.70	0	4.8860	0	33.9400	0	26.851	0	339.513	0	62.1	4	20.0	4	-1E+10	1	-1E+10	1	-1E+10	1	-1E+10	1	-1E+10	1	-1E+10	1
4902551	72	C	08/09/2022	08:08	-132.190	48.953	0	344.00	0	4.8850	0	33.9410	0	26.852	0	340.800	0	61.6	4	19.8	4	-1E+10	1	-1E+10	1	-1E+10	1	-1E+10	1	-1E+10	1	-1E+10	1
4902551	72	C	08/09/2022	08:08	-132.190	48.953	0	345.30	0	4.8870	0	33.9430	0	26.853	0	342.087	0	61.1	4	19.7	4	-1E+10	1	-1E+10	1	-1E+10	1	-1E+10	1	-1E+10	1	-1E+10	1
4902551	72	C	08/09/2022	08:08	-132.190	48.953	0	346.20	0	4.8900	0	33.9430	0	26.853	0	342.978	0	60.8	4	19.6	4	-1E+10	1	-1E+10	1	-1E+10	1	-1E+10	1	-1E+10	1	-1E+10	1
4902551	72	C	08/09/2022	08:08	-132.190	48.953	0	347.00	0	4.8880	0	33.9440	0	26.854	0	343.769	0	60.5	4	19.5	4	-1E+10	1	-1E+10	1	-1E+10	1	-1E+10	1	-1E+10	1	-1E+10	1
4902551	72	C	08/09/2022	08:08	-132.190	48.953	0	347.90	0	4.8710	0	33.9540	0	26.864	0	344.660	0	60.2	4	19.4	4	-1E+10	1	-1E+10	1	-1E+10	1	-1E+10	1	-1E+10	1	-1E+10	1
4902551	72	C	08/09/2022	08:08	-132.190	48.953	0	348.80	0	4.8670	0	33.9490	0	26.860	0	345.551	0	60.1	4	19.3	4	-1E+10	1	-1E+10	1	-1E+10	1	-1E+10	1	-1E+10	1	-1E+10	1
4902551	72	C	08/09/2022	08:08	-132.190	48.953	0	349.70	0	4.8630	0	33.9520	0	26.863	0	346.442	0	59.8	4	19.3	4	-1E+10	1	-1E+10	1	-1E+10	1	-1E+10	1	-1E+10	1	-1E+10	1
4902551	72	C	08/09/2022	08:08	-132.190	48.953	0	352.70	0	4.8410	0	33.9530	0	26.866	0	349.412	0	59.2	4	19.0	4	-1E+10	1	-1E+10	1	-1E+10	1	-1E+10	1	-1E+10	1	-1E+10	1
4902551	72	C	08/09/2022	08:08	-132.190	48.953	0	358.10	0	4.8070	0	33.9550	0	26.872	0	354.757	0	58.2	4	18.7	4	-1E+10	1	-1E+10	1	-1E+10	1	-1E+10	1	-1E+10	1	-1E+10	1
4902551	72	C	08/09/2022	08:08	-132.190	48.953	0	363.10	0	4.7830	0	33.9600	0	26.878	0	359.706	0	57.2	4	18.4	4	-1E+10	1	-1E+10	1	-1E+10	1	-1E+10	1	-1E+10	1	-1E+10	1
4902551	72	C	08/09/2022	08:08	-132.190	48.953	0	368.00	0	4.7630	0	33.9650	0	26.885	0	364.556	0	56.7	4	18.2	4	-1E+10	1	-1E+10	1	-1E+10	1	-1E+10	1	-1E+10	1	-1E+10	1
4902551	72	C	08/09/2022	08:08	-132.190	48.953	0	373.00	0	4.7300	0	33.9660	0	26.889	0	369.504	0	56.2	4	18.0	4	-1E+10	1	-1E+10	1	-1E+10	1	-1E+10	1	-1E+10	1	-1E+10	1
4902551	72	C	08/09/2022	08:08	-132.190	48.953	0	378.00	0	4.7160	0	33.9660	0	26.891	0	374.453	0	55.5	4	17.8	4	-1E+10	1	-1E+10	1	-1E+10	1	-1E+10	1	-1E+10	1	-1E+10	1
4902551	72	C	08/09/2022	08:08	-132.190	48.953	0	383.00	0	4.6910	0	33.9690	0	26.896	0	379.401	0	54.5	4	17.5	4	-1E+10	1	-1E+10	1	-1E+10	1	-1E+10	1	-1E+10	1	-1E+10	1
4902551	72	C	08/09/2022	08:08	-132.190	48.953	0	387.70	0	4.6010	0	33.9770	0	26.912	0	384.053	0	53.8	4	17.2	4	-1E+10	1	-1E+10	1	-1E+10	1	-1E+10	1	-1E+10	1	-1E+10	1
4902551	72	C	08/09/2022	08:08	-132.190	48.953	0	392.90	0	4.6020	0	33.9640	0	26.902	0	389.199	0	51.9	4	16.6	4	-1E+10	1	-1E+10	1	-1E+10	1	-1E+10	1	-1E+10	1	-1E+10	1
4902551	72	C	08/09/2022	08:08	-132.190	48.953	0	398.20	0	4.6130	0	33.9810	0	26.914	0	394.444	0	50.2	4	16.1	4	-1E+10	1	-1E+10	1	-1E+10	1	-1E+10	1	-1E+10	1	-1E+10	1
4902551	72	C	08/09/2022	08:08	-132.190	48.953	0	403.10	0	4.6610	0	33.9880	0	26.914	0	399.293	0	48.6	4	15.6	4	-1E+10	1	-1E+10	1	-1E+10	1	-1E+10	1	-1E+10	1	-1E+10	1
4902551	72	C	08/09/2022	08:08	-132.190	48.953	0	408.10	0	4.6510	0	33.9970	0	26.923	0	404.241	0	47.3	4	15.2	4	-1E+10	1	-1E+10	1	-1E+10	1	-1E+10	1	-1E+10	1	-1E+10	1
4902551	72	C	08/09/2022	08:08	-132.190	48.953	0	413.10	0	4.6690	0	34.0020	0	26.925	0	409.189	0	46.2	4	14.8	4	-1E+10	1	-1E+10	1	-1E+10	1	-1E+10	1	-1E+10	1	-1E+10	1
4902551	72	C	08/09/2022	08:08	-132.190	48.953	0	418.10	0	4.6350	0	34.0110	0	26.936	0	414.137	0	45.4	4	14.5	4	-1E+10	1	-1E+10	1	-1E+10	1	-1E+10	1	-1E+10	1	-1E+10	1
4902551	72	C	08/09/2022	08:08	-132.190	48.953	0	423.20	0	4.6190	0	34.0110	0	26.937	0	419.183	0	44.5	4	14.3	4	-1E+10	1	-1E+10	1	-1E+10	1	-1E+10	1	-1E+10	1	-1E+10	1
4902551	72	C	08/09/2022	08:08	-132.190	48.953	0	428.30	0	4.6220	0	34.0150	0	26.940	0	424.229	0	43.3	4	13.9	4	-1E+10	1	-1E+10	1	-1E+10	1	-1E+10	1	-1E+10	1	-1E+10	1
4902551	72	C	08/09/2022	08:08	-132.190	48.953	0	433.00	0	4.6290	0	34.0220	0	26.945	0	428.880	0	42.7	4	13.7	4	-1E+10	1	-1E+10	1	-1E+10	1	-1E+10	1	-1E+10	1	-1E+10	1
4902551	72	C	08/09/2022	08:08	-132.190	48.953	0	437.80	0	4.5570	0	34.0320	0	26.961	0	433.629	0	43.3	4	13.8	4	-1E+10	1	-1E+10	1	-1E+10	1	-1E+10	1	-1E+10	1	-1E+10	1
4902551	72	C	08/09/2022	08:08	-132.190	48.953	0	443.10	0	4.4500	0	34.0260	0	26.968	0	438.873	0	43.4	4	13.8	4	-1E+10	1	-1E+10	1	-1E+10	1	-1E+10	1	-1E+10	1	-1E+10	1
4902551	72	C	08/09/2022	08:08	-132.190	48.953	0	447.90	0	4.3530	0	34.0130	0	26.968	0	443.622	0	42.8	4	13.6	4	-1E+10	1	-1E+10	1	-1E+10	1	-1E+10	1	-1E+10	1	-1E+10	1
4902551	72	C	08/09/2022	08:08	-132.190	48.953	0	452.60	0	4.3390	0	34.0170	0	26.972	0	448.272	0	41.9	4	13.3	4	-1E+10	1	-1E+10	1	-1E+10	1	-1E+10	1	-1E+10	1	-1E+10	1
4902551	72	C	08/09/2022	08:08	-132.190	48.953	0	457.80	0	4.3300	0	34.0220	0	26.977	0	453.417	0	40.9	4	13.0	4	-1E+10	1	-1E+10	1	-1E+10	1	-1E+10	1	-1E+10	1	-1E+10	1
4902551	72	C	08/09/2022	08:08	-132.190	48.953	0	463.10	0	4.3170	0	34.0260	0	26.982	0	458.660	0	40.0	4	12.7	4	-1E+10	1	-1E+10	1	-1E+10	1	-1E+10	1	-1E+10	1	-1E+10	1
4902551	72	C	08/09/2022	08:08	-132.190	48.953	0	467.90	0	4.2900	0	34.0310	0	26.989	0	463.409	0	39.0	4	12.4	4	-1E+10	1	-1E+10	1	-1E+10	1	-1E+10	1	-1E+10	1	-1E+10	1
4902551	72	C	08/09/2022	08:08	-132.190	48.953	0	472.70	0	4.2740	0	34.0340	0	26.993	0	468.157	0	38.1	4	12.1	4	-1E+10	1	-1E+10	1	-1E+10	1	-1E+10	1	-1E+10	1	-1E+10	1
4902551	72	C	08/09/2022	08:08	-132.190	48.953	0	478.00	0	4.2610	0	34.0420	0	27.001	0	473.400	0	37.0	4	11.8	4	-1E+10	1	-1E+10	1	-1E+10	1	-1E+10	1	-1E+10	1	-1E+10	1
4902551	72	C	08/09/2022	08:08	-132.190	48.953	0	482.90	0	4.2360	0	34.0490	0	27.009	0	478.248	0	36.3	4	11.5	4	-1E+10	1	-1E+10	1	-1E+10	1	-1E+10	1	-1E+10	1	-1E+10	1
4902551	72	C	08/09/2022	08:08	-132.190	48.953	0	487.80	0	4.2320	0	34.0520	0	27.012	0	483.095	0	35.5	4	11.3	4	-1E+10	1	-1E+10	1	-1E+10	1	-1E+10	1	-1E+10	1	-1E+10	1
4902551	72	C	08/09/2022	08:08	-132.190	48.953	0	493.00	0	4.1970	0	34.0590	0	27.021	0	488.239	0	34.7	4	11.0	4	-1E+10	1	-1E+10	1	-1E+10	1	-1E+10	1	-1E+10	1	-1E+10	1
4902551	72	C	08/09/2022	08:08	-132.190	48.953	0	498.20	0	4.1810	0	34.0650	0	27.028	0	493.382	0	34.0	4	10.8	4	-1E+10	1	-1E+10	1	-1E+10	1	-1E+10	1	-1E+10	1	-1E+10	1
4902551	72	C	08/09/2022	08:08	-132.190	48.953	0	503.00	0	4.1800	0	34.0660	0	27.028	0	498.130	0	33.6	4	10.6	4	-1E+10	1	-1E+10	1	-1E+10	1	-1E+10	1	-1E+10	1	-1E+10	1
4902551	72	C	08/09/2022	08:08	-132.190	48.953	0	507.80	0	4.1680	0	34.0730	0	27.035	0	502.878	0	33.0	4	10.4	4	-1E+10	1	-1E+10	1	-1E+10	1	-1E+10	1	-1E+10	1	-1E+10	1
4902551	72	C	08/09/2022	08:08	-132.190	48.953	0	512.70	0	4.1600	0	34.0750	0	27.038	0	507.724	0	32.5	4	10.3	4	-1E+10	1	-1E+10	1	-1E+10	1	-1E+10	1	-1E+10	1	-1E+10	1
4902551	72	C	08/09/2022	08:08	-132.190	48.953	0	517.60	0	4.1490	0	34.0790	0	27.042	0	512.571	0	31.9	4	10.1	4	-1E+10	1	-1E+10	1	-1E+10	1	-1E+10	1	-1E+10	1	-1E+10	1
4902551	72	C	08/09/2022	08:08	-132.190	48.953	0	522.70	0	4.1420	0	34.0820	0	27.045	0	517.615	0	31.3	4	9.9	4	-1E+10	1	-1E+10	1	-1E+10	1	-1E+10	1	-1E+10	1	-1E+10	1
4902551	72	C	08/09/2022	08:08	-132.190	48.953	0	527.80	0	4.1310	0	34.0860	0	27.050	0	522.659	0	30.6	4	9.7	4	-1E+10	1	-1E+10	1	-1E+10	1	-1E+10	1	-1E+10	1	-1E+10	1
4902551	72	C	08/09/2022	08:08	-132.190	48.953	0	532.90	0	4.1290	0	34.0880	0	27.051	0	527.703	0	29.6	4	9.4	4	-1E+10	1	-1E+10	1	-1E+10	1	-1E+10	1	-1E+10	1	-1E+10	1
4902551	72	C	08/09/2022	08:08	-132.190	48.953	0	538.00	0	4.1390	0	34.0940	0	27.055	0	532.746	0	28.5	4	9.0	4	-1E+10	1	-1E+10	1	-1E+10	1	-1E+10	1	-1E+10	1	-1E+10	1
4902551	72	C	08/09/2022	08:08	-132.190	48.953	0	543.20	0	4.1550	0	34.1080	0	27.065	0	537.889	0	28.0	4	8.9	4	-1E+10	1	-1E+10	1	-1E+10	1	-1E+10	1	-1E+10	1	-1E+10	1
4902551	72	C	08/09/2022	08:08	-132.190	48.953	0	548.10	0	4.1230	0	34.1060	0	27.067	0	542.734	0	27.9	4	8.8	4	-1E+10	1	-1E+10	1	-1E+10	1	-1E+10	1	-1E+10	1	-1E+10	1
4902551	72	C	08/09/2022	08:08	-132.190	48.953	0	553.00	0	4.1180	0	34.1070	0	27.068	0	547.580	0	27.5	4	8.7	4	-1E+10	1	-1E+10	1	-1E+10	1	-1E+10	1	-1E+10	1	-1E+10	1
4902551	72	C	08/09/2022	08:08	-132.190	48.953	0	558.00	0	4.0770	0	34.1140	0	27.078	0	552.524	0	27.1	4	8.6	4	-1E+10	1	-1E+10	1	-1E+10	1	-1E+10	1	-1E+10	1	-1E+10	1
4902551	72	C	08/09/2022	08:08	-132.190	48.953	0	562.60	0	4.0650	0	34.1150	0	27.080	0	557.073	0	26.6	4	8.4	4	-1E+10	1	-1E+10	1	-1E+10	1	-1E+10	1	-1E+10	1	-1E+10	1
4902551	72	C	08/09/2022	08:08	-132.190	48.953	0	567.80	0	4.0500	0	34.1160	0	27.082	0	562.215	0	25.7	4	8.1	4	-1E+10	1	-1E+10	1	-1E+10	1	-1E+10	1	-1E+10	1	-1E+10	1
4902551	72	C	08/09/2022	08:08	-132.190	48.953	0	573.00	0	4.0490	0	34.1200	0	27.085	0	567.357	0	24.6	4	7.8	4	-1E+10	1	-1E+10	1	-1E+10	1	-1E+10	1	-1E+10	1	-1E+10	1
4902551	72	C	08/09/2022	08:08	-132.190	48.953	0	578.00	0	4.0720	0	34.1250	0	27.087	0	572.301	0	23.2	4	7.3	4	-1E+10	1	-1E+10	1	-1E+10	1	-1E+10	1	-1E+10	1	-1E+10	1
4902551	72	C	08/09/2022	08:08	-132.190	48.953	0	583.10	0	4.0940	0	34.1330	0	27.091	0	577.343	0	21.7	4	6.9	4	-1E+10	1	-1E+10	1	-1E+10	1	-1E+10	1	-1E+10	1	-1E+10	1
4902551	72	C	08/09/2022	08:08	-132.190	48.953	0	587.80	0	4.1230	0	34.1390	0	27.093	0	581.990	0	20.6	4	6.5	4	-1E+10	1	-1E+10	1	-1E+10	1	-1E+10	1	-1E+10	1	-1E+10	1
4902551	72	C	08/09/2022	08:08	-132.190	48.953	0	592.60	0	4.1730	0	34.1540	0	27.100	0	586.736	0	20.1	4	6.4	4	-1E+10	1	-1E+10	1	-1E+10	1	-1E+10	1	-1E+10	1	-1E+10	1
4902551	72	C	08/09/2022	08:08	-132.190	48.953	0	597.90	0	4.1580	0	34.1570	0	27.104	0	591.976	0	20.1	4	6.4	4	-1E+10	1	-1E+10	1	-1E+10	1	-1E+10	1	-1E+10	1	-1E+10	1
4902551	72	C	08/09/2022	08:08	-132.190	48.953	0	603.20	0	4.1380	0	34.1570	0	27.106	0	597.216	0	19.8	4	6.3	4	-1E+10	1	-1E+10	1	-1E+10	1	-1E+10	1	-1E+10	1	-1E+10	1
4902551	72	C	08/09/2022	08:08	-132.190	48.953	0	608.10	0	4.1420	0	34.1590	0	27.107	0	602.060	0	19.6	4	6.2	4	-1E+10	1	-1E+10	1	-1E+10	1	-1E+10	1	-1E+10	1	-1E+10	1
4902551	72	C	08/09/2022	08:08	-132.190	48.953	0	613.00	0	4.1430	0	34.1610	0	27.109	0	606.905	0	19.3	4	6.1	4	-1E+10	1	-1E+10	1	-1E+10	1	-1E+10	1	-1E+10	1	-1E+10	1
4902551	72	C	08/09/2022	08:08	-132.190	48.953	0	618.30	0	4.1410	0	34.1630	0	27.111	0	612.144	0	18.9	4	6.0	4	-1E+10	1	-1E+10	1	-1E+10	1	-1E+10	1	-1E+10	1	-1E+10	1
4902551	72	C	08/09/2022	08:08	-132.190	48.953	0	623.00	0	4.1350	0	34.1680	0	27.115	0	616.790	0	18.5	4	5.9	4	-1E+10	1	-1E+10	1	-1E+10	1	-1E+10	1	-1E+10	1	-1E+10	1
4902551	72	C	08/09/2022	08:08	-132.190	48.953	0	627.90	0	4.1230	0	34.1740	0	27.121	0	621.634	0	18.3	4	5.8	4	-1E+10	1	-1E+10	1	-1E+10	1	-1E+10	1	-1E+10	1	-1E+10	1
4902551	72	C	08/09/2022	08:08	-132.190	48.953	0	632.70	0	4.0820	0	34.1790	0	27.129	0	626.379	0	18.8	4	5.9	4	-1E+10	1	-1E+10	1	-1E+10	1	-1E+10	1	-1E+10	1	-1E+10	1
4902551	72	C	08/09/2022	08:08	-132.190	48.953	0	637.60	0	4.0270	0	34.1760	0	27.133	0	631.223	0	18.9	4	6.0	4	-1E+10	1	-1E+10	1	-1E+10	1	-1E+10	1	-1E+10	1	-1E+10	1
4902551	72	C	08/09/2022	08:08	-132.190	48.953	0	642.50	0	4.0030	0	34.1780	0	27.137	0	636.066	0	18.8	4	5.9	4	-1E+10	1	-1E+10	1	-1E+10	1	-1E+10	1	-1E+10	1	-1E+10	1
4902551	72	C	08/09/2022	08:08	-132.190	48.953	0	647.60	0	3.9750	0	34.1780	0	27.140	0	641.107	0	18.5	4	5.8	4	-1E+10	1	-1E+10	1	-1E+10	1	-1E+10	1	-1E+10	1	-1E+10	1
4902551	72	C	08/09/2022	08:08	-132.190	48.953	0	652.70	0	3.9550	0	34.1870	0	27.149	0	646.148	0	18.6	4	5.9	4	-1E+10	1	-1E+10	1	-1E+10	1	-1E+10	1	-1E+10	1	-1E+10	1
4902551	72	C	08/09/2022	08:08	-132.190	48.953	0	657.90	0	3.9210	0	34.1880	0	27.153	0	651.288	0	18.5	4	5.8	4	-1E+10	1	-1E+10	1	-1E+10	1	-1E+10	1	-1E+10	1	-1E+10	1
4902551	72	C	08/09/2022	08:08	-132.190	48.953	0	663.10	0	3.9110	0	34.1890	0	27.155	0	656.427	0	18.3	4	5.8	4	-1E+10	1	-1E+10	1	-1E+10	1	-1E+10	1	-1E+10	1	-1E+10	1
4902551	72	C	08/09/2022	08:08	-132.190	48.953	0	668.30	0	3.9060	0	34.1920	0	27.158	0	661.567	0	18.5	4	5.8	4	-1E+10	1	-1E+10	1	-1E+10	1	-1E+10	1	-1E+10	1	-1E+10	1
4902551	72	C	08/09/2022	08:08	-132.190	48.953	0	673.30	0	3.8600	0	34.1930	0	27.163	0	666.508	0	18.5	4	5.8	4	-1E+10	1	-1E+10	1	-1E+10	1	-1E+10	1	-1E+10	1	-1E+10	1
4902551	72	C	08/09/2022	08:08	-132.190	48.953	0	677.90	0	3.8260	0	34.1930	0	27.167	0	671.055	0	18.3	4	5.8	4	-1E+10	1	-1E+10	1	-1E+10	1	-1E+10	1	-1E+10	1	-1E+10	1
4902551	72	C	08/09/2022	08:08	-132.190	48.953	0	682.50	0	3.8210	0	34.1940	0	27.168	0	675.601	0	17.9	4	5.6	4	-1E+10	1	-1E+10	1	-1E+10	1	-1E+10	1	-1E+10	1	-1E+10	1
4902551	72	C	08/09/2022	08:08	-132.190	48.953	0	687.50	0	3.8280	0	34.1970	0	27.170	0	680.542	0	17.4	4	5.5	4	-1E+10	1	-1E+10	1	-1E+10	1	-1E+10	1	-1E+10	1	-1E+10	1
4902551	72	C	08/09/2022	08:08	-132.190	48.953	0	692.50	0	3.8190	0	34.2030	0	27.176	0	685.483	0	16.9	4	5.3	4	-1E+10	1	-1E+10	1	-1E+10	1	-1E+10	1	-1E+10	1	-1E+10	1
4902551	72	C	08/09/2022	08:08	-132.190	48.953	0	697.60	0	3.8160	0	34.2070	0	27.179	0	690.523	0	16.0	4	5.0	4	-1E+10	1	-1E+10	1	-1E+10	1	-1E+10	1	-1E+10	1	-1E+10	1
4902551	72	C	08/09/2022	08:08	-132.190	48.953	0	702.70	0	3.8240	0	34.2150	0	27.185	0	695.563	0	15.4	4	4.8	4	-1E+10	1	-1E+10	1	-1E+10	1	-1E+10	1	-1E+10	1	-1E+10	1
4902551	72	C	08/09/2022	08:08	-132.190	48.953	0	707.80	0	3.8200	0	34.2200	0	27.189	0	700.603	0	14.7	4	4.6	4	-1E+10	1	-1E+10	1	-1E+10	1	-1E+10	1	-1E+10	1	-1E+10	1
4902551	72	C	08/09/2022	08:08	-132.190	48.953	0	713.00	0	3.8470	0	34.2290	0	27.194	0	705.741	0	14.1	4	4.4	4	-1E+10	1	-1E+10	1	-1E+10	1	-1E+10	1	-1E+10	1	-1E+10	1
4902551	72	C	08/09/2022	08:08	-132.190	48.953	0	718.10	0	3.8420	0	34.2330	0	27.197	0	710.780	0	14.0	4	4.4	4	-1E+10	1	-1E+10	1	-1E+10	1	-1E+10	1	-1E+10	1	-1E+10	1
4902551	72	C	08/09/2022	08:08	-132.190	48.953	0	723.10	0	3.8280	0	34.2360	0	27.201	0	715.721	0	13.8	4	4.4	4	-1E+10	1	-1E+10	1	-1E+10	1	-1E+10	1	-1E+10	1	-1E+10	1
4902551	72	C	08/09/2022	08:08	-132.190	48.953	0	728.10	0	3.8200	0	34.2390	0	27.204	0	720.661	0	13.7	4	4.3	4	-1E+10	1	-1E+10	1	-1E+10	1	-1E+10	1	-1E+10	1	-1E+10	1
4902551	72	C	08/09/2022	08:08	-132.190	48.953	0	733.00	0	3.7990	0	34.2450	0	27.211	0	725.502	0	13.8	4	4.3	4	-1E+10	1	-1E+10	1	-1E+10	1	-1E+10	1	-1E+10	1	-1E+10	1
4902551	72	C	08/09/2022	08:08	-132.190	48.953	0	737.90	0	3.7550	0	34.2450	0	27.216	0	730.344	0	13.9	4	4.4	4	-1E+10	1	-1E+10	1	-1E+10	1	-1E+10	1	-1E+10	1	-1E+10	1
4902551	72	C	08/09/2022	08:08	-132.190	48.953	0	742.70	0	3.7270	0	34.2460	0	27.219	0	735.086	0	13.7	4	4.3	4	-1E+10	1	-1E+10	1	-1E+10	1	-1E+10	1	-1E+10	1	-1E+10	1
4902551	72	C	08/09/2022	08:08	-132.190	48.953	0	747.70	0	3.7200	0	34.2520	0	27.225	0	740.026	0	13.5	4	4.2	4	-1E+10	1	-1E+10	1	-1E+10	1	-1E+10	1	-1E+10	1	-1E+10	1
4902551	72	C	08/09/2022	08:08	-132.190	48.953	0	752.80	0	3.7060	0	34.2530	0	27.227	0	745.065	0	13.4	4	4.2	4	-1E+10	1	-1E+10	1	-1E+10	1	-1E+10	1	-1E+10	1	-1E+10	1
4902551	72	C	08/09/2022	08:08	-132.190	48.953	0	758.00	0	3.6850	0	34.2560	0	27.232	0	750.202	0	13.0	4	4.1	4	-1E+10	1	-1E+10	1	-1E+10	1	-1E+10	1	-1E+10	1	-1E+10	1
4902551	72	C	08/09/2022	08:08	-132.190	48.953	0	763.20	0	3.6820	0	34.2630	0	27.237	0	755.339	0	12.4	4	3.9	4	-1E+10	1	-1E+10	1	-1E+10	1	-1E+10	1	-1E+10	1	-1E+10	1
4902551	72	C	08/09/2022	08:08	-132.190	48.953	0	767.90	0	3.6850	0	34.2690	0	27.242	0	759.982	0	11.9	4	3.7	4	-1E+10	1	-1E+10	1	-1E+10	1	-1E+10	1	-1E+10	1	-1E+10	1
4902551	72	C	08/09/2022	08:08	-132.190	48.953	0	772.80	0	3.6990	0	34.2780	0	27.248	0	764.822	0	11.6	4	3.6	4	-1E+10	1	-1E+10	1	-1E+10	1	-1E+10	1	-1E+10	1	-1E+10	1
4902551	72	C	08/09/2022	08:08	-132.190	48.953	0	778.10	0	3.7000	0	34.2840	0	27.253	0	770.058	0	11.4	4	3.6	4	-1E+10	1	-1E+10	1	-1E+10	1	-1E+10	1	-1E+10	1	-1E+10	1
4902551	72	C	08/09/2022	08:08	-132.190	48.953	0	783.10	0	3.6890	0	34.2900	0	27.258	0	774.997	0	11.3	4	3.6	4	-1E+10	1	-1E+10	1	-1E+10	1	-1E+10	1	-1E+10	1	-1E+10	1
4902551	72	C	08/09/2022	08:08	-132.190	48.953	0	788.00	0	3.6720	0	34.2920	0	27.262	0	779.837	0	11.3	4	3.5	4	-1E+10	1	-1E+10	1	-1E+10	1	-1E+10	1	-1E+10	1	-1E+10	1
4902551	72	C	08/09/2022	08:08	-132.190	48.953	0	793.10	0	3.6580	0	34.2950	0	27.266	0	784.875	0	11.3	4	3.5	4	-1E+10	1	-1E+10	1	-1E+10	1	-1E+10	1	-1E+10	1	-1E+10	1
4902551	72	C	08/09/2022	08:08	-132.190	48.953	0	797.80	0	3.6320	0	34.2980	0	27.270	0	789.517	0	11.3	4	3.5	4	-1E+10	1	-1E+10	1	-1E+10	1	-1E+10	1	-1E+10	1	-1E+10	1
4902551	72	C	08/09/2022	08:08	-132.190	48.953	0	802.60	0	3.6040	0	34.3010	0	27.276	0	794.258	0	11.3	4	3.5	4	-1E+10	1	-1E+10	1	-1E+10	1	-1E+10	1	-1E+10	1	-1E+10	1
4902551	72	C	08/09/2022	08:08	-132.190	48.953	0	807.90	0	3.5810	0	34.3030	0	27.279	0	799.493	0	11.3	4	3.5	4	-1E+10	1	-1E+10	1	-1E+10	1	-1E+10	1	-1E+10	1	-1E+10	1
4902551	72	C	08/09/2022	08:08	-132.190	48.953	0	813.30	0	3.5610	0	34.3080	0	27.285	0	804.826	0	11.3	4	3.5	4	-1E+10	1	-1E+10	1	-1E+10	1	-1E+10	1	-1E+10	1	-1E+10	1
4902551	72	C	08/09/2022	08:08	-132.190	48.953	0	818.00	0	3.5480	0	34.3080	0	27.287	0	809.468	0	11.3	4	3.5	4	-1E+10	1	-1E+10	1	-1E+10	1	-1E+10	1	-1E+10	1	-1E+10	1
4902551	72	C	08/09/2022	08:08	-132.190	48.953	0	823.00	0	3.5400	0	34.3110	0	27.290	0	814.406	0	11.3	4	3.5	4	-1E+10	1	-1E+10	1	-1E+10	1	-1E+10	1	-1E+10	1	-1E+10	1
4902551	72	C	08/09/2022	08:08	-132.190	48.953	0	827.80	0	3.5220	0	34.3150	0	27.295	0	819.147	0	11.2	4	3.5	4	-1E+10	1	-1E+10	1	-1E+10	1	-1E+10	1	-1E+10	1	-1E+10	1
4902551	72	C	08/09/2022	08:08	-132.190	48.953	0	832.70	0	3.5070	0	34.3170	0	27.298	0	823.986	0	11.2	4	3.5	4	-1E+10	1	-1E+10	1	-1E+10	1	-1E+10	1	-1E+10	1	-1E+10	1
4902551	72	C	08/09/2022	08:08	-132.190	48.953	0	837.70	0	3.4980	0	34.3180	0	27.300	0	828.924	0	11.2	4	3.5	4	-1E+10	1	-1E+10	1	-1E+10	1	-1E+10	1	-1E+10	1	-1E+10	1
4902551	72	C	08/09/2022	08:08	-132.190	48.953	0	842.90	0	3.4870	0	34.3200	0	27.302	0	834.059	0	11.2	4	3.5	4	-1E+10	1	-1E+10	1	-1E+10	1	-1E+10	1	-1E+10	1	-1E+10	1
4902551	72	C	08/09/2022	08:08	-132.190	48.953	0	848.20	0	3.4810	0	34.3210	0	27.304	0	839.293	0	11.2	4	3.5	4	-1E+10	1	-1E+10	1	-1E+10	1	-1E+10	1	-1E+10	1	-1E+10	1
4902551	72	C	08/09/2022	08:08	-132.190	48.953	0	853.10	0	3.4710	0	34.3230	0	27.306	0	844.131	0	11.2	4	3.5	4	-1E+10	1	-1E+10	1	-1E+10	1	-1E+10	1	-1E+10	1	-1E+10	1
4902551	72	C	08/09/2022	08:08	-132.190	48.953	0	857.70	0	3.4620	0	34.3240	0	27.308	0	848.674	0	11.3	4	3.5	4	-1E+10	1	-1E+10	1	-1E+10	1	-1E+10	1	-1E+10	1	-1E+10	1
4902551	72	C	08/09/2022	08:08	-132.190	48.953	0	862.90	0	3.4420	0	34.3270	0	27.312	0	853.808	0	11.3	4	3.5	4	-1E+10	1	-1E+10	1	-1E+10	1	-1E+10	1	-1E+10	1	-1E+10	1
4902551	72	C	08/09/2022	08:08	-132.190	48.953	0	868.20	0	3.4160	0	34.3300	0	27.317	0	859.042	0	11.3	4	3.5	4	-1E+10	1	-1E+10	1	-1E+10	1	-1E+10	1	-1E+10	1	-1E+10	1
4902551	72	C	08/09/2022	08:08	-132.190	48.953	0	873.00	0	3.4090	0	34.3310	0	27.319	0	863.781	0	11.3	4	3.5	4	-1E+10	1	-1E+10	1	-1E+10	1	-1E+10	1	-1E+10	1	-1E+10	1
4902551	72	C	08/09/2022	08:08	-132.190	48.953	0	877.90	0	3.4070	0	34.3320	0	27.320	0	868.619	0	11.3	4	3.5	4	-1E+10	1	-1E+10	1	-1E+10	1	-1E+10	1	-1E+10	1	-1E+10	1
4902551	72	C	08/09/2022	08:08	-132.190	48.953	0	882.80	0	3.4000	0	34.3340	0	27.322	0	873.457	0	11.3	4	3.5	4	-1E+10	1	-1E+10	1	-1E+10	1	-1E+10	1	-1E+10	1	-1E+10	1
4902551	72	C	08/09/2022	08:08	-132.190	48.953	0	887.70	0	3.3970	0	34.3350	0	27.323	0	878.295	0	11.3	4	3.5	4	-1E+10	1	-1E+10	1	-1E+10	1	-1E+10	1	-1E+10	1	-1E+10	1
4902551	72	C	08/09/2022	08:08	-132.190	48.953	0	892.70	0	3.3880	0	34.3370	0	27.326	0	883.231	0	11.3	4	3.5	4	-1E+10	1	-1E+10	1	-1E+10	1	-1E+10	1	-1E+10	1	-1E+10	1
4902551	72	C	08/09/2022	08:08	-132.190	48.953	0	897.80	0	3.3730	0	34.3400	0	27.329	0	888.267	0	11.3	4	3.5	4	-1E+10	1	-1E+10	1	-1E+10	1	-1E+10	1	-1E+10	1	-1E+10	1
4902551	72	C	08/09/2022	08:08	-132.190	48.953	0	902.90	0	3.3580	0	34.3430	0	27.333	0	893.302	0	11.3	4	3.5	4	-1E+10	1	-1E+10	1	-1E+10	1	-1E+10	1	-1E+10	1	-1E+10	1
4902551	72	C	08/09/2022	08:08	-132.190	48.953	0	908.00	0	3.3510	0	34.3430	0	27.334	0	898.336	0	11.3	4	3.5	4	-1E+10	1	-1E+10	1	-1E+10	1	-1E+10	1	-1E+10	1	-1E+10	1
4902551	72	C	08/09/2022	08:08	-132.190	48.953	0	913.10	0	3.3530	0	34.3450	0	27.335	0	903.371	0	11.4	4	3.5	4	-1E+10	1	-1E+10	1	-1E+10	1	-1E+10	1	-1E+10	1	-1E+10	1
4902551	72	C	08/09/2022	08:08	-132.190	48.953	0	918.20	0	3.3360	0	34.3480	0	27.339	0	908.406	0	11.4	4	3.5	4	-1E+10	1	-1E+10	1	-1E+10	1	-1E+10	1	-1E+10	1	-1E+10	1
4902551	72	C	08/09/2022	08:08	-132.190	48.953	0	922.80	0	3.3240	0	34.3480	0	27.341	0	912.947	0	11.4	4	3.6	4	-1E+10	1	-1E+10	1	-1E+10	1	-1E+10	1	-1E+10	1	-1E+10	1
4902551	72	C	08/09/2022	08:08	-132.190	48.953	0	927.50	0	3.3180	0	34.3490	0	27.342	0	917.586	0	11.5	4	3.6	4	-1E+10	1	-1E+10	1	-1E+10	1	-1E+10	1	-1E+10	1	-1E+10	1
4902551	72	C	08/09/2022	08:08	-132.190	48.953	0	932.80	0	3.3060	0	34.3510	0	27.345	0	922.818	0	11.5	4	3.6	4	-1E+10	1	-1E+10	1	-1E+10	1	-1E+10	1	-1E+10	1	-1E+10	1
4902551	72	C	08/09/2022	08:08	-132.190	48.953	0	938.10	0	3.2860	0	34.3530	0	27.348	0	928.049	0	11.5	4	3.6	4	-1E+10	1	-1E+10	1	-1E+10	1	-1E+10	1	-1E+10	1	-1E+10	1
4902551	72	C	08/09/2022	08:08	-132.190	48.953	0	942.80	0	3.2730	0	34.3570	0	27.353	0	932.688	0	11.6	4	3.6	4	-1E+10	1	-1E+10	1	-1E+10	1	-1E+10	1	-1E+10	1	-1E+10	1
4902551	72	C	08/09/2022	08:08	-132.190	48.953	0	947.60	0	3.2530	0	34.3560	0	27.354	0	937.426	0	11.6	4	3.6	4	-1E+10	1	-1E+10	1	-1E+10	1	-1E+10	1	-1E+10	1	-1E+10	1
4902551	72	C	08/09/2022	08:08	-132.190	48.953	0	953.00	0	3.2390	0	34.3590	0	27.358	0	942.756	0	11.7	4	3.6	4	-1E+10	1	-1E+10	1	-1E+10	1	-1E+10	1	-1E+10	1	-1E+10	1
4902551	72	C	08/09/2022	08:08	-132.190	48.953	0	957.80	0	3.2340	0	34.3610	0	27.360	0	947.494	0	11.7	4	3.6	4	-1E+10	1	-1E+10	1	-1E+10	1	-1E+10	1	-1E+10	1	-1E+10	1
4902551	72	C	08/09/2022	08:08	-132.190	48.953	0	962.70	0	3.2290	0	34.3640	0	27.362	0	952.330	0	11.7	4	3.6	4	-1E+10	1	-1E+10	1	-1E+10	1	-1E+10	1	-1E+10	1	-1E+10	1
4902551	72	C	08/09/2022	08:08	-132.190	48.953	0	968.10	0	3.2200	0	34.3640	0	27.363	0	957.659	0	11.7	4	3.6	4	-1E+10	1	-1E+10	1	-1E+10	1	-1E+10	1	-1E+10	1	-1E+10	1
4902551	72	C	08/09/2022	08:08	-132.190	48.953	0	973.00	0	3.2120	0	34.3660	0	27.366	0	962.495	0	11.7	4	3.6	4	-1E+10	1	-1E+10	1	-1E+10	1	-1E+10	1	-1E+10	1	-1E+10	1
4902551	72	C	08/09/2022	08:08	-132.190	48.953	0	977.90	0	3.2100	0	34.3670	0	27.367	0	967.331	0	11.7	4	3.6	4	-1E+10	1	-1E+10	1	-1E+10	1	-1E+10	1	-1E+10	1	-1E+10	1
4902551	72	C	08/09/2022	08:08	-132.190	48.953	0	982.80	0	3.2110	0	34.3680	0	27.367	0	972.167	0	11.8	4	3.6	4	-1E+10	1	-1E+10	1	-1E+10	1	-1E+10	1	-1E+10	1	-1E+10	1
4902551	72	C	08/09/2022	08:08	-132.190	48.953	0	987.80	0	3.2090	0	34.3720	0	27.371	0	977.101	0	11.8	4	3.7	4	-1E+10	1	-1E+10	1	-1E+10	1	-1E+10	1	-1E+10	1	-1E+10	1
4902551	72	C	08/09/2022	08:08	-132.190	48.953	0	992.70	0	3.1910	0	34.3750	0	27.375	0	981.936	0	11.8	4	3.7	4	-1E+10	1	-1E+10	1	-1E+10	1	-1E+10	1	-1E+10	1	-1E+10	1
4902551	72	C	08/09/2022	08:08	-132.190	48.953	0	997.60	0	3.1800	0	34.3770	0	27.378	0	986.772	0	11.9	4	3.7	4	-1E+10	1	-1E+10	1	-1E+10	1	-1E+10	1	-1E+10	1	-1E+10	1
4902551	72	C	08/09/2022	08:08	-132.190	48.953	0	1005.20	0	3.1600	0	34.3790	0	27.381	0	994.271	0	12.0	4	3.7	4	-1E+10	1	-1E+10	1	-1E+10	1	-1E+10	1	-1E+10	1	-1E+10	1
4902551	72	C	08/09/2022	08:08	-132.190	48.953	0	1015.50	0	3.1340	0	34.3830	0	27.387	0	1004.435	0	12.1	4	3.7	4	-1E+10	1	-1E+10	1	-1E+10	1	-1E+10	1	-1E+10	1	-1E+10	1
4902551	72	C	08/09/2022	08:08	-132.190	48.953	0	1025.80	0	3.1130	0	34.3860	0	27.391	0	1014.597	0	12.2	4	3.8	4	-1E+10	1	-1E+10	1	-1E+10	1	-1E+10	1	-1E+10	1	-1E+10	1
4902551	72	C	08/09/2022	08:08	-132.190	48.953	0	1035.50	0	3.0990	0	34.3890	0	27.395	0	1024.168	0	12.3	4	3.8	4	-1E+10	1	-1E+10	1	-1E+10	1	-1E+10	1	-1E+10	1	-1E+10	1
4902551	72	C	08/09/2022	08:08	-132.190	48.953	0	1045.60	0	3.0680	0	34.3920	0	27.400	0	1034.132	0	12.5	4	3.9	4	-1E+10	1	-1E+10	1	-1E+10	1	-1E+10	1	-1E+10	1	-1E+10	1
4902551	72	C	08/09/2022	08:08	-132.190	48.953	0	1056.10	0	3.0390	0	34.3980	0	27.408	0	1044.491	0	12.7	4	3.9	4	-1E+10	1	-1E+10	1	-1E+10	1	-1E+10	1	-1E+10	1	-1E+10	1
4902551	72	C	08/09/2022	08:08	-132.190	48.953	0	1065.50	0	3.0250	0	34.4000	0	27.411	0	1053.764	0	12.9	4	4.0	4	-1E+10	1	-1E+10	1	-1E+10	1	-1E+10	1	-1E+10	1	-1E+10	1
4902551	72	C	08/09/2022	08:08	-132.190	48.953	0	1075.20	0	3.0010	0	34.4040	0	27.416	0	1063.333	0	13.1	4	4.0	4	-1E+10	1	-1E+10	1	-1E+10	1	-1E+10	1	-1E+10	1	-1E+10	1
4902551	72	C	08/09/2022	08:08	-132.190	48.953	0	1085.00	0	2.9710	0	34.4100	0	27.423	0	1073.000	0	13.3	4	4.1	4	-1E+10	1	-1E+10	1	-1E+10	1	-1E+10	1	-1E+10	1	-1E+10	1
4902551	72	C	08/09/2022	08:08	-132.190	48.953	0	1095.40	0	2.9490	0	34.4120	0	27.427	0	1083.258	0	13.4	4	4.1	4	-1E+10	1	-1E+10	1	-1E+10	1	-1E+10	1	-1E+10	1	-1E+10	1
4902551	72	C	08/09/2022	08:08	-132.190	48.953	0	1105.70	0	2.9370	0	34.4140	0	27.430	0	1093.417	0	13.5	4	4.2	4	-1E+10	1	-1E+10	1	-1E+10	1	-1E+10	1	-1E+10	1	-1E+10	1
4902551	72	C	08/09/2022	08:08	-132.190	48.953	0	1115.70	0	2.9250	0	34.4160	0	27.433	0	1103.279	0	13.6	4	4.2	4	-1E+10	1	-1E+10	1	-1E+10	1	-1E+10	1	-1E+10	1	-1E+10	1
4902551	72	C	08/09/2022	08:08	-132.190	48.953	0	1125.40	0	2.9040	0	34.4190	0	27.437	0	1112.846	0	13.8	4	4.3	4	-1E+10	1	-1E+10	1	-1E+10	1	-1E+10	1	-1E+10	1	-1E+10	1
4902551	72	C	08/09/2022	08:08	-132.190	48.953	0	1135.50	0	2.8780	0	34.4230	0	27.442	0	1122.806	0	14.1	4	4.3	4	-1E+10	1	-1E+10	1	-1E+10	1	-1E+10	1	-1E+10	1	-1E+10	1
4902551	72	C	08/09/2022	08:08	-132.190	48.953	0	1145.40	0	2.8530	0	34.4260	0	27.447	0	1132.569	0	14.3	4	4.4	4	-1E+10	1	-1E+10	1	-1E+10	1	-1E+10	1	-1E+10	1	-1E+10	1
4902551	72	C	08/09/2022	08:08	-132.190	48.953	0	1155.30	0	2.8300	0	34.4290	0	27.452	0	1142.331	0	14.5	4	4.4	4	-1E+10	1	-1E+10	1	-1E+10	1	-1E+10	1	-1E+10	1	-1E+10	1
4902551	72	C	08/09/2022	08:08	-132.190	48.953	0	1166.00	0	2.8160	0	34.4310	0	27.454	0	1152.881	0	14.6	4	4.5	4	-1E+10	1	-1E+10	1	-1E+10	1	-1E+10	1	-1E+10	1	-1E+10	1
4902551	72	C	08/09/2022	08:08	-132.190	48.953	0	1175.30	0	2.8050	0	34.4320	0	27.456	0	1162.051	0	14.8	4	4.5	4	-1E+10	1	-1E+10	1	-1E+10	1	-1E+10	1	-1E+10	1	-1E+10	1
4902551	72	C	08/09/2022	08:08	-132.190	48.953	0	1185.40	0	2.7880	0	34.4350	0	27.460	0	1172.009	0	15.0	4	4.6	4	-1E+10	1	-1E+10	1	-1E+10	1	-1E+10	1	-1E+10	1	-1E+10	1
4902551	72	C	08/09/2022	08:08	-132.190	48.953	0	1195.40	0	2.7720	0	34.4370	0	27.463	0	1181.868	0	15.2	4	4.7	4	-1E+10	1	-1E+10	1	-1E+10	1	-1E+10	1	-1E+10	1	-1E+10	1
4902551	72	C	08/09/2022	08:08	-132.190	48.953	0	1205.30	0	2.7510	0	34.4410	0	27.468	0	1191.628	0	15.4	4	4.7	4	-1E+10	1	-1E+10	1	-1E+10	1	-1E+10	1	-1E+10	1	-1E+10	1
4902551	72	C	08/09/2022	08:08	-132.190	48.953	0	1215.30	0	2.7390	0	34.4430	0	27.471	0	1201.486	0	15.7	4	4.8	4	-1E+10	1	-1E+10	1	-1E+10	1	-1E+10	1	-1E+10	1	-1E+10	1
4902551	72	C	08/09/2022	08:08	-132.190	48.953	0	1225.40	0	2.7170	0	34.4460	0	27.475	0	1211.442	0	15.9	4	4.9	4	-1E+10	1	-1E+10	1	-1E+10	1	-1E+10	1	-1E+10	1	-1E+10	1
4902551	72	C	08/09/2022	08:08	-132.190	48.953	0	1235.40	0	2.7090	0	34.4470	0	27.477	0	1221.299	0	16.2	4	5.0	4	-1E+10	1	-1E+10	1	-1E+10	1	-1E+10	1	-1E+10	1	-1E+10	1
4902551	72	C	08/09/2022	08:08	-132.190	48.953	0	1245.10	0	2.6910	0	34.4510	0	27.482	0	1230.860	0	16.5	4	5.1	4	-1E+10	1	-1E+10	1	-1E+10	1	-1E+10	1	-1E+10	1	-1E+10	1
4902551	72	C	08/09/2022	08:08	-132.190	48.953	0	1255.50	0	2.6690	0	34.4540	0	27.486	0	1241.111	0	16.9	4	5.2	4	-1E+10	1	-1E+10	1	-1E+10	1	-1E+10	1	-1E+10	1	-1E+10	1
4902551	72	C	08/09/2022	08:08	-132.190	48.953	0	1265.60	0	2.6560	0	34.4570	0	27.490	0	1251.065	0	17.1	4	5.2	4	-1E+10	1	-1E+10	1	-1E+10	1	-1E+10	1	-1E+10	1	-1E+10	1
4902551	72	C	08/09/2022	08:08	-132.190	48.953	0	1275.30	0	2.6440	0	34.4590	0	27.492	0	1260.624	0	17.4	4	5.3	4	-1E+10	1	-1E+10	1	-1E+10	1	-1E+10	1	-1E+10	1	-1E+10	1
4902551	72	C	08/09/2022	08:08	-132.190	48.953	0	1285.20	0	2.6340	0	34.4610	0	27.495	0	1270.381	0	17.6	4	5.4	4	-1E+10	1	-1E+10	1	-1E+10	1	-1E+10	1	-1E+10	1	-1E+10	1
4902551	72	C	08/09/2022	08:08	-132.190	48.953	0	1295.30	0	2.6290	0	34.4620	0	27.496	0	1280.333	0	17.8	4	5.4	4	-1E+10	1	-1E+10	1	-1E+10	1	-1E+10	1	-1E+10	1	-1E+10	1
4902551	72	C	08/09/2022	08:08	-132.190	48.953	0	1305.60	0	2.6180	0	34.4640	0	27.499	0	1290.483	0	18.0	4	5.5	4	-1E+10	1	-1E+10	1	-1E+10	1	-1E+10	1	-1E+10	1	-1E+10	1
4902551	72	C	08/09/2022	08:08	-132.190	48.953	0	1315.40	0	2.6100	0	34.4650	0	27.500	0	1300.139	0	18.2	4	5.6	4	-1E+10	1	-1E+10	1	-1E+10	1	-1E+10	1	-1E+10	1	-1E+10	1
4902551	72	C	08/09/2022	08:08	-132.190	48.953	0	1325.10	0	2.6040	0	34.4670	0	27.502	0	1309.696	0	18.6	4	5.7	4	-1E+10	1	-1E+10	1	-1E+10	1	-1E+10	1	-1E+10	1	-1E+10	1
4902551	72	C	08/09/2022	08:08	-132.190	48.953	0	1335.40	0	2.5920	0	34.4690	0	27.505	0	1319.845	0	19.0	4	5.8	4	-1E+10	1	-1E+10	1	-1E+10	1	-1E+10	1	-1E+10	1	-1E+10	1
4902551	72	C	08/09/2022	08:08	-132.190	48.953	0	1345.70	0	2.5750	0	34.4720	0	27.509	0	1329.992	0	19.4	4	5.9	4	-1E+10	1	-1E+10	1	-1E+10	1	-1E+10	1	-1E+10	1	-1E+10	1
4902551	72	C	08/09/2022	08:08	-132.190	48.953	0	1355.80	0	2.5620	0	34.4740	0	27.512	0	1339.942	0	19.7	4	6.0	4	-1E+10	1	-1E+10	1	-1E+10	1	-1E+10	1	-1E+10	1	-1E+10	1
4902551	72	C	08/09/2022	08:08	-132.190	48.953	0	1365.80	0	2.5520	0	34.4760	0	27.514	0	1349.793	0	20.2	4	6.2	4	-1E+10	1	-1E+10	1	-1E+10	1	-1E+10	1	-1E+10	1	-1E+10	1
4902551	72	C	08/09/2022	08:08	-132.190	48.953	0	1375.80	0	2.5350	0	34.4790	0	27.518	0	1359.644	0	20.6	4	6.3	4	-1E+10	1	-1E+10	1	-1E+10	1	-1E+10	1	-1E+10	1	-1E+10	1
4902551	72	C	08/09/2022	08:08	-132.190	48.953	0	1385.50	0	2.5230	0	34.4810	0	27.521	0	1369.198	0	21.1	4	6.4	4	-1E+10	1	-1E+10	1	-1E+10	1	-1E+10	1	-1E+10	1	-1E+10	1
4902551	72	C	08/09/2022	08:08	-132.190	48.953	0	1395.80	0	2.5090	0	34.4840	0	27.525	0	1379.344	0	21.5	4	6.6	4	-1E+10	1	-1E+10	1	-1E+10	1	-1E+10	1	-1E+10	1	-1E+10	1
4902551	72	C	08/09/2022	08:08	-132.190	48.953	0	1405.60	0	2.4880	0	34.4860	0	27.528	0	1388.996	0	21.8	4	6.6	4	-1E+10	1	-1E+10	1	-1E+10	1	-1E+10	1	-1E+10	1	-1E+10	1
4902551	72	C	08/09/2022	08:08	-132.190	48.953	0	1415.40	0	2.4770	0	34.4870	0	27.530	0	1398.648	0	22.0	4	6.7	4	-1E+10	1	-1E+10	1	-1E+10	1	-1E+10	1	-1E+10	1	-1E+10	1
4902551	72	C	08/09/2022	08:08	-132.190	48.953	0	1425.60	0	2.4730	0	34.4890	0	27.532	0	1408.693	0	22.4	4	6.8	4	-1E+10	1	-1E+10	1	-1E+10	1	-1E+10	1	-1E+10	1	-1E+10	1
4902551	72	C	08/09/2022	08:08	-132.190	48.953	0	1435.40	0	2.4740	0	34.4890	0	27.532	0	1418.344	0	22.9	4	7.0	4	-1E+10	1	-1E+10	1	-1E+10	1	-1E+10	1	-1E+10	1	-1E+10	1
4902551	72	C	08/09/2022	08:08	-132.190	48.953	0	1445.20	0	2.4630	0	34.4920	0	27.535	0	1427.994	0	23.3	4	7.1	4	-1E+10	1	-1E+10	1	-1E+10	1	-1E+10	1	-1E+10	1	-1E+10	1
4902551	72	C	08/09/2022	08:08	-132.190	48.953	0	1455.20	0	2.4520	0	34.4930	0	27.537	0	1437.841	0	23.6	4	7.2	4	-1E+10	1	-1E+10	1	-1E+10	1	-1E+10	1	-1E+10	1	-1E+10	1
4902551	72	C	08/09/2022	08:08	-132.190	48.953	0	1465.20	0	2.4390	0	34.4960	0	27.540	0	1447.687	0	24.3	4	7.4	4	-1E+10	1	-1E+10	1	-1E+10	1	-1E+10	1	-1E+10	1	-1E+10	1
4902551	72	C	08/09/2022	08:08	-132.190	48.953	0	1475.30	0	2.4270	0	34.4980	0	27.543	0	1457.632	0	25.0	4	7.6	4	-1E+10	1	-1E+10	1	-1E+10	1	-1E+10	1	-1E+10	1	-1E+10	1
4902551	72	C	08/09/2022	08:08	-132.190	48.953	0	1485.60	0	2.4140	0	34.5010	0	27.547	0	1467.773	0	25.6	4	7.8	4	-1E+10	1	-1E+10	1	-1E+10	1	-1E+10	1	-1E+10	1	-1E+10	1
4902551	72	C	08/09/2022	08:08	-132.190	48.953	0	1495.40	0	2.4040	0	34.5030	0	27.549	0	1477.421	0	26.2	4	8.0	4	-1E+10	1	-1E+10	1	-1E+10	1	-1E+10	1	-1E+10	1	-1E+10	1
4902551	72	C	08/09/2022	08:08	-132.190	48.953	0	1505.40	0	2.3910	0	34.5050	0	27.552	0	1487.266	0	26.7	4	8.1	4	-1E+10	1	-1E+10	1	-1E+10	1	-1E+10	1	-1E+10	1	-1E+10	1
4902551	72	C	08/09/2022	08:08	-132.190	48.953	0	1515.40	0	2.3840	0	34.5070	0	27.554	0	1497.110	0	27.1	4	8.2	4	-1E+10	1	-1E+10	1	-1E+10	1	-1E+10	1	-1E+10	1	-1E+10	1
4902551	72	C	08/09/2022	08:08	-132.190	48.953	0	1525.00	0	2.3740	0	34.5080	0	27.556	0	1506.560	0	27.6	4	8.4	4	-1E+10	1	-1E+10	1	-1E+10	1	-1E+10	1	-1E+10	1	-1E+10	1
4902551	72	C	08/09/2022	08:08	-132.190	48.953	0	1535.40	0	2.3610	0	34.5110	0	27.559	0	1516.797	0	28.1	4	8.5	4	-1E+10	1	-1E+10	1	-1E+10	1	-1E+10	1	-1E+10	1	-1E+10	1
4902551	72	C	08/09/2022	08:08	-132.190	48.953	0	1545.80	0	2.3550	0	34.5120	0	27.561	0	1527.033	0	28.4	4	8.6	4	-1E+10	1	-1E+10	1	-1E+10	1	-1E+10	1	-1E+10	1	-1E+10	1
4902551	72	C	08/09/2022	08:08	-132.190	48.953	0	1555.70	0	2.3480	0	34.5130	0	27.562	0	1536.777	0	28.9	4	8.8	4	-1E+10	1	-1E+10	1	-1E+10	1	-1E+10	1	-1E+10	1	-1E+10	1
4902551	72	C	08/09/2022	08:08	-132.190	48.953	0	1565.40	0	2.3330	0	34.5160	0	27.566	0	1546.324	0	29.5	4	9.0	4	-1E+10	1	-1E+10	1	-1E+10	1	-1E+10	1	-1E+10	1	-1E+10	1
4902551	72	C	08/09/2022	08:08	-132.190	48.953	0	1575.30	0	2.3220	0	34.5170	0	27.567	0	1556.067	0	30.1	4	9.1	4	-1E+10	1	-1E+10	1	-1E+10	1	-1E+10	1	-1E+10	1	-1E+10	1
4902551	72	C	08/09/2022	08:08	-132.190	48.953	0	1585.20	0	2.3030	0	34.5200	0	27.571	0	1565.809	0	30.5	4	9.3	4	-1E+10	1	-1E+10	1	-1E+10	1	-1E+10	1	-1E+10	1	-1E+10	1
4902551	72	C	08/09/2022	08:08	-132.190	48.953	0	1595.00	0	2.2880	0	34.5220	0	27.574	0	1575.453	0	30.7	4	9.3	4	-1E+10	1	-1E+10	1	-1E+10	1	-1E+10	1	-1E+10	1	-1E+10	1
4902551	72	C	08/09/2022	08:08	-132.190	48.953	0	1605.00	0	2.2690	0	34.5240	0	27.577	0	1585.293	0	30.6	4	9.3	4	-1E+10	1	-1E+10	1	-1E+10	1	-1E+10	1	-1E+10	1	-1E+10	1
4902551	72	C	08/09/2022	08:08	-132.190	48.953	0	1615.40	0	2.2490	0	34.5250	0	27.580	0	1595.526	0	31.0	4	9.4	4	-1E+10	1	-1E+10	1	-1E+10	1	-1E+10	1	-1E+10	1	-1E+10	1
4902551	72	C	08/09/2022	08:08	-132.190	48.953	0	1625.80	0	2.2390	0	34.5270	0	27.582	0	1605.759	0	31.5	4	9.5	4	-1E+10	1	-1E+10	1	-1E+10	1	-1E+10	1	-1E+10	1	-1E+10	1
4902551	72	C	08/09/2022	08:08	-132.190	48.953	0	1635.40	0	2.2310	0	34.5280	0	27.584	0	1615.204	0	32.1	4	9.7	4	-1E+10	1	-1E+10	1	-1E+10	1	-1E+10	1	-1E+10	1	-1E+10	1
4902551	72	C	08/09/2022	08:08	-132.190	48.953	0	1645.00	0	2.2260	0	34.5300	0	27.586	0	1624.648	0	33.1	4	10.0	4	-1E+10	1	-1E+10	1	-1E+10	1	-1E+10	1	-1E+10	1	-1E+10	1
4902551	72	C	08/09/2022	08:08	-132.190	48.953	0	1655.10	0	2.2150	0	34.5320	0	27.588	0	1634.584	0	33.9	4	10.3	4	-1E+10	1	-1E+10	1	-1E+10	1	-1E+10	1	-1E+10	1	-1E+10	1
4902551	72	C	08/09/2022	08:08	-132.190	48.953	0	1665.20	0	2.1960	0	34.5360	0	27.593	0	1644.520	0	35.2	4	10.7	4	-1E+10	1	-1E+10	1	-1E+10	1	-1E+10	1	-1E+10	1	-1E+10	1
4902551	72	C	08/09/2022	08:08	-132.190	48.953	0	1675.50	0	2.1800	0	34.5380	0	27.596	0	1654.652	0	35.7	4	10.8	4	-1E+10	1	-1E+10	1	-1E+10	1	-1E+10	1	-1E+10	1	-1E+10	1
4902551	72	C	08/09/2022	08:08	-132.190	48.953	0	1685.30	0	2.1710	0	34.5400	0	27.599	0	1664.292	0	36.4	4	11.0	4	-1E+10	1	-1E+10	1	-1E+10	1	-1E+10	1	-1E+10	1	-1E+10	1
4902551	72	C	08/09/2022	08:08	-132.190	48.953	0	1695.10	0	2.1570	0	34.5420	0	27.601	0	1673.931	0	37.1	4	11.2	4	-1E+10	1	-1E+10	1	-1E+10	1	-1E+10	1	-1E+10	1	-1E+10	1
4902551	72	C	08/09/2022	08:08	-132.190	48.953	0	1705.60	0	2.1470	0	34.5440	0	27.604	0	1684.258	0	37.4	4	11.3	4	-1E+10	1	-1E+10	1	-1E+10	1	-1E+10	1	-1E+10	1	-1E+10	1
4902551	72	C	08/09/2022	08:08	-132.190	48.953	0	1715.30	0	2.1430	0	34.5450	0	27.605	0	1693.798	0	37.8	4	11.4	4	-1E+10	1	-1E+10	1	-1E+10	1	-1E+10	1	-1E+10	1	-1E+10	1
4902551	72	C	08/09/2022	08:08	-132.190	48.953	0	1725.10	0	2.1330	0	34.5460	0	27.607	0	1703.436	0	38.2	4	11.6	4	-1E+10	1	-1E+10	1	-1E+10	1	-1E+10	1	-1E+10	1	-1E+10	1
4902551	72	C	08/09/2022	08:08	-132.190	48.953	0	1735.10	0	2.1270	0	34.5470	0	27.608	0	1713.270	0	38.6	4	11.7	4	-1E+10	1	-1E+10	1	-1E+10	1	-1E+10	1	-1E+10	1	-1E+10	1
4902551	72	C	08/09/2022	08:08	-132.190	48.953	0	1745.20	0	2.1220	0	34.5480	0	27.609	0	1723.202	0	39.1	4	11.8	4	-1E+10	1	-1E+10	1	-1E+10	1	-1E+10	1	-1E+10	1	-1E+10	1
4902551	72	C	08/09/2022	08:08	-132.190	48.953	0	1755.20	0	2.1160	0	34.5500	0	27.611	0	1733.035	0	39.5	4	11.9	4	-1E+10	1	-1E+10	1	-1E+10	1	-1E+10	1	-1E+10	1	-1E+10	1
4902551	72	C	08/09/2022	08:08	-132.190	48.953	0	1765.30	0	2.1100	0	34.5500	0	27.612	0	1742.966	0	40.0	4	12.1	4	-1E+10	1	-1E+10	1	-1E+10	1	-1E+10	1	-1E+10	1	-1E+10	1
4902551	72	C	08/09/2022	08:08	-132.190	48.953	0	1775.80	0	2.1040	0	34.5520	0	27.614	0	1753.290	0	40.7	4	12.3	4	-1E+10	1	-1E+10	1	-1E+10	1	-1E+10	1	-1E+10	1	-1E+10	1
4902551	72	C	08/09/2022	08:08	-132.190	48.953	0	1785.80	0	2.0960	0	34.5540	0	27.616	0	1763.121	0	41.5	4	12.5	4	-1E+10	1	-1E+10	1	-1E+10	1	-1E+10	1	-1E+10	1	-1E+10	1
4902551	72	C	08/09/2022	08:08	-132.190	48.953	0	1795.50	0	2.0870	0	34.5560	0	27.619	0	1772.658	0	42.0	4	12.7	4	-1E+10	1	-1E+10	1	-1E+10	1	-1E+10	1	-1E+10	1	-1E+10	1
4902551	72	C	08/09/2022	08:08	-132.190	48.953	0	1805.50	0	2.0750	0	34.5570	0	27.620	0	1782.489	0	42.6	4	12.9	4	-1E+10	1	-1E+10	1	-1E+10	1	-1E+10	1	-1E+10	1	-1E+10	1
4902551	72	C	08/09/2022	08:08	-132.190	48.953	0	1815.60	0	2.0660	0	34.5590	0	27.623	0	1792.417	0	43.1	4	13.0	4	-1E+10	1	-1E+10	1	-1E+10	1	-1E+10	1	-1E+10	1	-1E+10	1
4902551	72	C	08/09/2022	08:08	-132.190	48.953	0	1825.60	0	2.0600	0	34.5600	0	27.624	0	1802.247	0	43.7	4	13.2	4	-1E+10	1	-1E+10	1	-1E+10	1	-1E+10	1	-1E+10	1	-1E+10	1
4902551	72	C	08/09/2022	08:08	-132.190	48.953	0	1835.60	0	2.0530	0	34.5610	0	27.626	0	1812.077	0	44.3	4	13.4	4	-1E+10	1	-1E+10	1	-1E+10	1	-1E+10	1	-1E+10	1	-1E+10	1
4902551	72	C	08/09/2022	08:08	-132.190	48.953	0	1845.40	0	2.0470	0	34.5620	0	27.627	0	1821.709	0	44.9	4	13.6	4	-1E+10	1	-1E+10	1	-1E+10	1	-1E+10	1	-1E+10	1	-1E+10	1
4902551	72	C	08/09/2022	08:08	-132.190	48.953	0	1855.30	0	2.0370	0	34.5640	0	27.629	0	1831.439	0	45.7	4	13.8	4	-1E+10	1	-1E+10	1	-1E+10	1	-1E+10	1	-1E+10	1	-1E+10	1
4902551	72	C	08/09/2022	08:08	-132.190	48.953	0	1865.30	0	2.0270	0	34.5660	0	27.632	0	1841.268	0	46.3	4	14.0	4	-1E+10	1	-1E+10	1	-1E+10	1	-1E+10	1	-1E+10	1	-1E+10	1
4902551	72	C	08/09/2022	08:08	-132.190	48.953	0	1875.50	0	2.0210	0	34.5670	0	27.633	0	1851.292	0	46.9	4	14.1	4	-1E+10	1	-1E+10	1	-1E+10	1	-1E+10	1	-1E+10	1	-1E+10	1
4902551	72	C	08/09/2022	08:08	-132.190	48.953	0	1885.30	0	2.0170	0	34.5680	0	27.634	0	1860.922	0	47.2	4	14.2	4	-1E+10	1	-1E+10	1	-1E+10	1	-1E+10	1	-1E+10	1	-1E+10	1
4902551	72	C	08/09/2022	08:08	-132.190	48.953	0	1895.20	0	2.0150	0	34.5690	0	27.635	0	1870.651	0	47.8	4	14.4	4	-1E+10	1	-1E+10	1	-1E+10	1	-1E+10	1	-1E+10	1	-1E+10	1
4902551	72	C	08/09/2022	08:08	-132.190	48.953	0	1905.30	0	2.0060	0	34.5710	0	27.638	0	1880.575	0	48.6	4	14.7	4	-1E+10	1	-1E+10	1	-1E+10	1	-1E+10	1	-1E+10	1	-1E+10	1
4902551	72	C	08/09/2022	08:08	-132.190	48.953	0	1915.40	0	1.9980	0	34.5730	0	27.640	0	1890.500	0	49.4	4	14.9	4	-1E+10	1	-1E+10	1	-1E+10	1	-1E+10	1	-1E+10	1	-1E+10	1
4902551	72	C	08/09/2022	08:08	-132.190	48.953	0	1925.60	0	1.9890	0	34.5740	0	27.641	0	1900.521	0	50.1	4	15.1	4	-1E+10	1	-1E+10	1	-1E+10	1	-1E+10	1	-1E+10	1	-1E+10	1
4902551	72	C	08/09/2022	08:08	-132.190	48.953	0	1935.40	0	1.9850	0	34.5750	0	27.643	0	1910.150	0	50.5	4	15.2	4	-1E+10	1	-1E+10	1	-1E+10	1	-1E+10	1	-1E+10	1	-1E+10	1
4902551	72	C	08/09/2022	08:08	-132.190	48.953	0	1945.20	0	1.9810	0	34.5760	0	27.644	0	1919.778	0	51.1	4	15.4	4	-1E+10	1	-1E+10	1	-1E+10	1	-1E+10	1	-1E+10	1	-1E+10	1
4902551	72	C	08/09/2022	08:08	-132.190	48.953	0	1955.10	0	1.9740	0	34.5780	0	27.646	0	1929.504	0	51.8	4	15.6	4	-1E+10	1	-1E+10	1	-1E+10	1	-1E+10	1	-1E+10	1	-1E+10	1
4902551	72	C	08/09/2022	08:08	-132.190	48.953	0	1965.40	0	1.9680	0	34.5790	0	27.647	0	1939.622	0	52.2	4	15.7	4	-1E+10	1	-1E+10	1	-1E+10	1	-1E+10	1	-1E+10	1	-1E+10	1
4902551	72	C	08/09/2022	08:08	-132.190	48.953	0	1974.00	0	1.9610	0	34.5800	0	27.649	0	1948.070	0	52.3	4	15.7	4	-1E+10	1	-1E+10	1	-1E+10	1	-1E+10	1	-1E+10	1	-1E+10	1
4902551	72	C	08/09/2022	08:08	-132.190	48.953	0																										
4902551	73	C	08/19/2022	13:07	-132.072	48.893	0	0.00	0	16.4700	0	32.2410	0	23.521	0	0.000	0	250.0	4	101.9	4	-1E+10	1	-1E+10	1	-1E+10	1	-1E+10	1	-1E+10	1	-1E+10	1
4902551	73	C	08/19/2022	13:07	-132.072	48.893	0	0.10	0	16.4720	0	32.2400	0	23.520	0	0.099	0	244.3	4	99.5	4	-1E+10	1	-1E+10	1	-1E+10	1	-1E+10	1	-1E+10	1	-1E+10	1
4902551	73	C	08/19/2022	13:07	-132.072	48.893	0	0.70	0	16.4710	0	32.2410	0	23.521	0	0.694	0	244.3	4	99.5	4	-1E+10	1	-1E+10	1	-1E+10	1	-1E+10	1	-1E+10	1	-1E+10	1
4902551	73	C	08/19/2022	13:07	-132.072	48.893	0	1.70	0	16.4740	0	32.2400	0	23.519	0	1.686	0	244.3	4	99.6	4	-1E+10	1	-1E+10	1	-1E+10	1	-1E+10	1	-1E+10	1	-1E+10	1
4902551	73	C	08/19/2022	13:07	-132.072	48.893	0	2.80	0	16.4750	0	32.2400	0	23.519	0	2.776	0	244.4	4	99.6	4	-1E+10	1	-1E+10	1	-1E+10	1	-1E+10	1	-1E+10	1	-1E+10	1
4902551	73	C	08/19/2022	13:07	-132.072	48.893	0	3.80	0	16.4750	0	32.2410	0	23.520	0	3.768	0	244.4	4	99.6	4	-1E+10	1	-1E+10	1	-1E+10	1	-1E+10	1	-1E+10	1	-1E+10	1
4902551	73	C	08/19/2022	13:07	-132.072	48.893	0	4.90	0	16.4750	0	32.2430	0	23.522	0	4.858	0	244.4	4	99.6	4	-1E+10	1	-1E+10	1	-1E+10	1	-1E+10	1	-1E+10	1	-1E+10	1
4902551	73	C	08/19/2022	13:07	-132.072	48.893	0	6.00	0	16.4750	0	32.2420	0	23.521	0	5.949	0	244.6	4	99.7	4	-1E+10	1	-1E+10	1	-1E+10	1	-1E+10	1	-1E+10	1	-1E+10	1
4902551	73	C	08/19/2022	13:07	-132.072	48.893	0	7.00	0	16.4760	0	32.2420	0	23.521	0	6.941	0	244.7	4	99.7	4	-1E+10	1	-1E+10	1	-1E+10	1	-1E+10	1	-1E+10	1	-1E+10	1
4902551	73	C	08/19/2022	13:07	-132.072	48.893	0	8.00	0	16.4750	0	32.2430	0	23.522	0	7.932	0	244.9	4	99.8	4	-1E+10	1	-1E+10	1	-1E+10	1	-1E+10	1	-1E+10	1	-1E+10	1
4902551	73	C	08/19/2022	13:07	-132.072	48.893	0	9.00	0	16.4750	0	32.2430	0	23.522	0	8.924	0	245.1	4	99.9	4	-1E+10	1	-1E+10	1	-1E+10	1	-1E+10	1	-1E+10	1	-1E+10	1
4902551	73	C	08/19/2022	13:07	-132.072	48.893	0	9.80	0	16.4750	0	32.2420	0	23.521	0	9.717	0	245.2	4	99.9	4	-1E+10	1	-1E+10	1	-1E+10	1	-1E+10	1	-1E+10	1	-1E+10	1
4902551	73	C	08/19/2022	13:07	-132.072	48.893	0	11.10	0	16.4750	0	32.2420	0	23.521	0	11.006	0	245.6	4	100.1	4	-1E+10	1	-1E+10	1	-1E+10	1	-1E+10	1	-1E+10	1	-1E+10	1
4902551	73	C	08/19/2022	13:07	-132.072	48.893	0	12.10	0	16.4760	0	32.2420	0	23.521	0	11.997	0	246.0	4	100.3	4	-1E+10	1	-1E+10	1	-1E+10	1	-1E+10	1	-1E+10	1	-1E+10	1
4902551	73	C	08/19/2022	13:07	-132.072	48.893	0	12.80	0	16.4750	0	32.2410	0	23.520	0	12.691	0	246.0	4	100.3	4	-1E+10	1	-1E+10	1	-1E+10	1	-1E+10	1	-1E+10	1	-1E+10	1
4902551	73	C	08/19/2022	13:07	-132.072	48.893	0	13.90	0	16.4750	0	32.2410	0	23.520	0	13.782	0	246.6	4	100.5	4	-1E+10	1	-1E+10	1	-1E+10	1	-1E+10	1	-1E+10	1	-1E+10	1
4902551	73	C	08/19/2022	13:07	-132.072	48.893	0	14.90	0	16.4570	0	32.2480	0	23.530	0	14.773	0	247.1	4	100.7	4	-1E+10	1	-1E+10	1	-1E+10	1	-1E+10	1	-1E+10	1	-1E+10	1
4902551	73	C	08/19/2022	13:07	-132.072	48.893	0	15.90	0	16.3590	0	32.2580	0	23.560	0	15.765	0	247.8	4	100.8	4	-1E+10	1	-1E+10	1	-1E+10	1	-1E+10	1	-1E+10	1	-1E+10	1
4902551	73	C	08/19/2022	13:07	-132.072	48.893	0	16.90	0	16.2400	0	32.2670	0	23.594	0	16.756	0	248.3	4	100.7	4	-1E+10	1	-1E+10	1	-1E+10	1	-1E+10	1	-1E+10	1	-1E+10	1
4902551	73	C	08/19/2022	13:07	-132.072	48.893	0	17.90	0	16.1910	0	32.2420	0	23.586	0	17.748	0	248.7	4	100.8	4	-1E+10	1	-1E+10	1	-1E+10	1	-1E+10	1	-1E+10	1	-1E+10	1
4902551	73	C	08/19/2022	13:07	-132.072	48.893	0	19.00	0	16.1690	0	32.2430	0	23.591	0	18.838	0	249.0	4	100.9	4	-1E+10	1	-1E+10	1	-1E+10	1	-1E+10	1	-1E+10	1	-1E+10	1
4902551	73	C	08/19/2022	13:07	-132.072	48.893	0	20.00	0	16.1230	0	32.2480	0	23.606	0	19.830	0	249.4	4	100.9	4	-1E+10	1	-1E+10	1	-1E+10	1	-1E+10	1	-1E+10	1	-1E+10	1
4902551	73	C	08/19/2022	13:07	-132.072	48.893	0	21.20	0	16.0440	0	32.2550	0	23.629	0	21.019	0	249.8	4	101.0	4	-1E+10	1	-1E+10	1	-1E+10	1	-1E+10	1	-1E+10	1	-1E+10	1
4902551	73	C	08/19/2022	13:07	-132.072	48.893	0	21.90	0	15.9890	0	32.2420	0	23.631	0	21.713	0	250.3	4	101.1	4	-1E+10	1	-1E+10	1	-1E+10	1	-1E+10	1	-1E+10	1	-1E+10	1
4902551	73	C	08/19/2022	13:07	-132.072	48.893	0	22.90	0	15.9050	0	32.2540	0	23.659	0	22.705	0	251.1	4	101.2	4	-1E+10	1	-1E+10	1	-1E+10	1	-1E+10	1	-1E+10	1	-1E+10	1
4902551	73	C	08/19/2022	13:07	-132.072	48.893	0	24.00	0	15.8350	0	32.2440	0	23.667	0	23.795	0	252.2	4	101.5	4	-1E+10	1	-1E+10	1	-1E+10	1	-1E+10	1	-1E+10	1	-1E+10	1
4902551	73	C	08/19/2022	13:07	-132.072	48.893	0	25.00	0	15.7670	0	32.2460	0	23.684	0	24.787	0	254.2	4	102.2	4	-1E+10	1	-1E+10	1	-1E+10	1	-1E+10	1	-1E+10	1	-1E+10	1
4902551	73	C	08/19/2022	13:07	-132.072	48.893	0	25.90	0	15.5210	0	32.2810	0	23.765	0	25.679	0	257.4	4	103.0	4	-1E+10	1	-1E+10	1	-1E+10	1	-1E+10	1	-1E+10	1	-1E+10	1
4902551	73	C	08/19/2022	13:07	-132.072	48.893	0	26.80	0	14.9050	0	32.2660	0	23.887	0	26.571	0	261.3	4	103.3	4	-1E+10	1	-1E+10	1	-1E+10	1	-1E+10	1	-1E+10	1	-1E+10	1
4902551	73	C	08/19/2022	13:07	-132.072	48.893	0	28.10	0	14.1170	0	32.2540	0	24.043	0	27.860	0	266.0	4	103.5	4	-1E+10	1	-1E+10	1	-1E+10	1	-1E+10	1	-1E+10	1	-1E+10	1
4902551	73	C	08/19/2022	13:07	-132.072	48.893	0	29.10	0	13.6580	0	32.2510	0	24.135	0	28.851	0	271.0	4	104.4	4	-1E+10	1	-1E+10	1	-1E+10	1	-1E+10	1	-1E+10	1	-1E+10	1
4902551	73	C	08/19/2022	13:07	-132.072	48.893	0	30.10	0	13.4790	0	32.2620	0	24.179	0	29.843	0	273.8	4	105.2	4	-1E+10	1	-1E+10	1	-1E+10	1	-1E+10	1	-1E+10	1	-1E+10	1
4902551	73	C	08/19/2022	13:07	-132.072	48.893	0	31.10	0	12.4960	0	32.3370	0	24.429	0	30.834	0	277.3	4	104.4	4	-1E+10	1	-1E+10	1	-1E+10	1	-1E+10	1	-1E+10	1	-1E+10	1
4902551	73	C	08/19/2022	13:07	-132.072	48.893	0	31.90	0	12.1200	0	32.3000	0	24.472	0	31.627	0	279.7	4	104.5	4	-1E+10	1	-1E+10	1	-1E+10	1	-1E+10	1	-1E+10	1	-1E+10	1
4902551	73	C	08/19/2022	13:07	-132.072	48.893	0	33.10	0	11.6790	0	32.3020	0	24.555	0	32.817	0	281.3	4	104.1	4	-1E+10	1	-1E+10	1	-1E+10	1	-1E+10	1	-1E+10	1	-1E+10	1
4902551	73	C	08/19/2022	13:07	-132.072	48.893	0	34.00	0	11.4720	0	32.2800	0	24.575	0	33.709	0	281.7	4	103.8	4	-1E+10	1	-1E+10	1	-1E+10	1	-1E+10	1	-1E+10	1	-1E+10	1
4902551	73	C	08/19/2022	13:07	-132.072	48.893	0	34.70	0	11.4280	0	32.2640	0	24.571	0	34.403	0	281.9	4	103.8	4	-1E+10	1	-1E+10	1	-1E+10	1	-1E+10	1	-1E+10	1	-1E+10	1
4902551	73	C	08/19/2022	13:07	-132.072	48.893	0	35.70	0	11.4090	0	32.2690	0	24.578	0	35.394	0	281.6	4	103.6	4	-1E+10	1	-1E+10	1	-1E+10	1	-1E+10	1	-1E+10	1	-1E+10	1
4902551	73	C	08/19/2022	13:07	-132.072	48.893	0	36.70	0	11.3890	0	32.2650	0	24.579	0	36.386	0	281.5	4	103.5	4	-1E+10	1	-1E+10	1	-1E+10	1	-1E+10	1	-1E+10	1	-1E+10	1
4902551	73	C	08/19/2022	13:07	-132.072	48.893	0	37.90	0	11.3680	0	32.2640	0	24.582	0	37.575	0	281.0	4	103.3	4	-1E+10	1	-1E+10	1	-1E+10	1	-1E+10	1	-1E+10	1	-1E+10	1
4902551	73	C	08/19/2022	13:07	-132.072	48.893	0	39.20	0	11.1140	0	32.2910	0	24.648	0	38.864	0	281.1	4	102.8	4	-1E+10	1	-1E+10	1	-1E+10	1	-1E+10	1	-1E+10	1	-1E+10	1
4902551	73	C	08/19/2022	13:07	-132.072	48.893	0	40.00	0	10.9740	0	32.2860	0	24.669	0	39.657	0	280.6	4	102.3	4	-1E+10	1	-1E+10	1	-1E+10	1	-1E+10	1	-1E+10	1	-1E+10	1
4902551	73	C	08/19/2022	13:07	-132.072	48.893	0	41.20	0	10.8050	0	32.2730	0	24.688	0	40.847	0	280.1	4	101.8	4	-1E+10	1	-1E+10	1	-1E+10	1	-1E+10	1	-1E+10	1	-1E+10	1
4902551	73	C	08/19/2022	13:07	-132.072	48.893	0	41.90	0	10.6310	0	32.2940	0	24.734	0	41.541	0	279.7	4	101.3	4	-1E+10	1	-1E+10	1	-1E+10	1	-1E+10	1	-1E+10	1	-1E+10	1
4902551	73	C	08/19/2022	13:07	-132.072	48.893	0	43.00	0	10.3860	0	32.2760	0	24.762	0	42.631	0	279.1	4	100.5	4	-1E+10	1	-1E+10	1	-1E+10	1	-1E+10	1	-1E+10	1	-1E+10	1
4902551	73	C	08/19/2022	13:07	-132.072	48.893	0	44.00	0	10.1100	0	32.2750	0	24.808	0	43.623	0	277.9	4	99.5	4	-1E+10	1	-1E+10	1	-1E+10	1	-1E+10	1	-1E+10	1	-1E+10	1
4902551	73	C	08/19/2022	13:07	-132.072	48.893	0	45.00	0	9.8470	0	32.2940	0	24.866	0	44.614	0	277.6	4	98.8	4	-1E+10	1	-1E+10	1	-1E+10	1	-1E+10	1	-1E+10	1	-1E+10	1
4902551	73	C	08/19/2022	13:07	-132.072	48.893	0	46.20	0	9.6990	0	32.2860	0	24.884	0	45.803	0	276.6	4	98.2	4	-1E+10	1	-1E+10	1	-1E+10	1	-1E+10	1	-1E+10	1	-1E+10	1
4902551	73	C	08/19/2022	13:07	-132.072	48.893	0	47.10	0	9.4550	0	32.3390	0	24.965	0	46.696	0	276.2	4	97.5	4	-1E+10	1	-1E+10	1	-1E+10	1	-1E+10	1	-1E+10	1	-1E+10	1
4902551	73	C	08/19/2022	13:07	-132.072	48.893	0	47.80	0	9.3020	0	32.2990	0	24.958	0	47.390	0	276.3	4	97.2	4	-1E+10	1	-1E+10	1	-1E+10	1	-1E+10	1	-1E+10	1	-1E+10	1
4902551	73	C	08/19/2022	13:07	-132.072	48.893	0	48.90	0	9.2380	0	32.3080	0	24.975	0	48.480	0	275.8	4	96.9	4	-1E+10	1	-1E+10	1	-1E+10	1	-1E+10	1	-1E+10	1	-1E+10	1
4902551	73	C	08/19/2022	13:07	-132.072	48.893	0	50.30	0	9.1500	0	32.2960	0	24.979	0	49.868	0	275.4	4	96.6	4	-1E+10	1	-1E+10	1	-1E+10	1	-1E+10	1	-1E+10	1	-1E+10	1
4902551	73	C	08/19/2022	13:07	-132.072	48.893	0	51.10	0	9.1060	0	32.3110	0	24.998	0	50.661	0	275.1	4	96.4	4	-1E+10	1	-1E+10	1	-1E+10	1	-1E+10	1	-1E+10	1	-1E+10	1
4902551	73	C	08/19/2022	13:07	-132.072	48.893	0	51.90	0	8.9930	0	32.3130	0	25.017	0	51.454	0	275.1	4	96.1	4	-1E+10	1	-1E+10	1	-1E+10	1	-1E+10	1	-1E+10	1	-1E+10	1
4902551	73	C	08/19/2022	13:07	-132.072	48.893	0	53.10	0	8.8270	0	32.3060	0	25.037	0	52.643	0	274.9	4	95.7	4	-1E+10	1	-1E+10	1	-1E+10	1	-1E+10	1	-1E+10	1	-1E+10	1
4902551	73	C	08/19/2022	13:07	-132.072	48.893	0	53.80	0	8.8010	0	32.3040	0	25.039	0	53.337	0	274.3	4	95.4	4	-1E+10	1	-1E+10	1	-1E+10	1	-1E+10	1	-1E+10	1	-1E+10	1
4902551	73	C	08/19/2022	13:07	-132.072	48.893	0	55.00	0	8.7390	0	32.3080	0	25.052	0	54.527	0	273.4	4	95.0	4	-1E+10	1	-1E+10	1	-1E+10	1	-1E+10	1	-1E+10	1	-1E+10	1
4902551	73	C	08/19/2022	13:07	-132.072	48.893	0	56.30	0	8.6650	0	32.3090	0	25.064	0	55.815	0	272.7	4	94.6	4	-1E+10	1	-1E+10	1	-1E+10	1	-1E+10	1	-1E+10	1	-1E+10	1
4902551	73	C	08/19/2022	13:07	-132.072	48.893	0	56.90	0	8.6390	0	32.3130	0	25.071	0	56.410	0	272.4	4	94.4	4	-1E+10	1	-1E+10	1	-1E+10	1	-1E+10	1	-1E+10	1	-1E+10	1
4902551	73	C	08/19/2022	13:07	-132.072	48.893	0	57.90	0	8.6070	0	32.3150	0	25.077	0	57.401	0	272.0	4	94.2	4	-1E+10	1	-1E+10	1	-1E+10	1	-1E+10	1	-1E+10	1	-1E+10	1
4902551	73	C	08/19/2022	13:07	-132.072	48.893	0	58.90	0	8.4970	0	32.3230	0	25.100	0	58.393	0	271.7	4	93.9	4	-1E+10	1	-1E+10	1	-1E+10	1	-1E+10	1	-1E+10	1	-1E+10	1
4902551	73	C	08/19/2022	13:07	-132.072	48.893	0	59.90	0	8.4230	0	32.3190	0	25.108	0	59.384	0	271.4	4	93.7	4	-1E+10	1	-1E+10	1	-1E+10	1	-1E+10	1	-1E+10	1	-1E+10	1
4902551	73	C	08/19/2022	13:07	-132.072	48.893	0	61.00	0	8.3770	0	32.3180	0	25.114	0	60.474	0	271.0	4	93.4	4	-1E+10	1	-1E+10	1	-1E+10	1	-1E+10	1	-1E+10	1	-1E+10	1
4902551	73	C	08/19/2022	13:07	-132.072	48.893	0	61.90	0	8.3460	0	32.3200	0	25.120	0	61.366	0	270.7	4	93.2	4	-1E+10	1	-1E+10	1	-1E+10	1	-1E+10	1	-1E+10	1	-1E+10	1
4902551	73	C	08/19/2022	13:07	-132.072	48.893	0	62.70	0	8.3270	0	32.3220	0	25.125	0	62.159	0	270.2	4	93.0	4	-1E+10	1	-1E+10	1	-1E+10	1	-1E+10	1	-1E+10	1	-1E+10	1
4902551	73	C	08/19/2022	13:07	-132.072	48.893	0	63.90	0	8.2720	0	32.3280	0	25.138	0	63.349	0	269.6	4	92.7	4	-1E+10	1	-1E+10	1	-1E+10	1	-1E+10	1	-1E+10	1	-1E+10	1
4902551	73	C	08/19/2022	13:07	-132.072	48.893	0	65.10	0	8.1780	0	32.3330	0	25.155	0	64.538	0	269.1	4	92.4	4	-1E+10	1	-1E+10	1	-1E+10	1	-1E+10	1	-1E+10	1	-1E+10	1
4902551	73	C	08/19/2022	13:07	-132.072	48.893	0	66.00	0	8.1420	0	32.3300	0	25.158	0	65.430	0	268.6	4	92.1	4	-1E+10	1	-1E+10	1	-1E+10	1	-1E+10	1	-1E+10	1	-1E+10	1
4902551	73	C	08/19/2022	13:07	-132.072	48.893	0	66.80	0	8.1210	0	32.3280	0	25.160	0	66.223	0	267.9	4	91.8	4	-1E+10	1	-1E+10	1	-1E+10	1	-1E+10	1	-1E+10	1	-1E+10	1
4902551	73	C	08/19/2022	13:07	-132.072	48.893	0	67.90	0	8.0910	0	32.3330	0	25.168	0	67.314	0	266.9	4	91.4	4	-1E+10	1	-1E+10	1	-1E+10	1	-1E+10	1	-1E+10	1	-1E+10	1
4902551	73	C	08/19/2022	13:07	-132.072	48.893	0	69.00	0	8.0220	0	32.3430	0	25.186	0	68.404	0	266.0	4	91.0	4	-1E+10	1	-1E+10	1	-1E+10	1	-1E+10	1	-1E+10	1	-1E+10	1
4902551	73	C	08/19/2022	13:07	-132.072	48.893	0	70.00	0	7.9350	0	32.3430	0	25.198	0	69.395	0	265.3	4	90.6	4	-1E+10	1	-1E+10	1	-1E+10	1	-1E+10	1	-1E+10	1	-1E+10	1
4902551	73	C	08/19/2022	13:07	-132.072	48.893	0	71.00	0	7.8730	0	32.3430	0	25.207	0	70.386	0	264.7	4	90.2	4	-1E+10	1	-1E+10	1	-1E+10	1	-1E+10	1	-1E+10	1	-1E+10	1
4902551	73	C	08/19/2022	13:07	-132.072	48.893	0	72.20	0	7.7890	0	32.3630	0	25.235	0	71.576	0	264.0	4	89.8	4	-1E+10	1	-1E+10	1	-1E+10	1	-1E+10	1	-1E+10	1	-1E+10	1
4902551	73	C	08/19/2022	13:07	-132.072	48.893	0	73.00	0	7.7430	0	32.3620	0	25.241	0	72.369	0	263.8	4	89.7	4	-1E+10	1	-1E+10	1	-1E+10	1	-1E+10	1	-1E+10	1	-1E+10	1
4902551	73	C	08/19/2022	13:07	-132.072	48.893	0	74.10	0	7.6960	0	32.3640	0	25.249	0	73.459	0	263.0	4	89.3	4	-1E+10	1	-1E+10	1	-1E+10	1	-1E+10	1	-1E+10	1	-1E+10	1
4902551	73	C	08/19/2022	13:07	-132.072	48.893	0	75.10	0	7.6380	0	32.3700	0	25.262	0	74.450	0	261.3	4	88.6	4	-1E+10	1	-1E+10	1	-1E+10	1	-1E+10	1	-1E+10	1	-1E+10	1
4902551	73	C	08/19/2022	13:07	-132.072	48.893	0	76.10	0	7.6010	0	32.3810	0	25.275	0	75.441	0	260.3	4	88.2	4	-1E+10	1	-1E+10	1	-1E+10	1	-1E+10	1	-1E+10	1	-1E+10	1
4902551	73	C	08/19/2022	13:07	-132.072	48.893	0	77.00	0	7.5700	0	32.3830	0	25.281	0	76.333	0	259.6	4	87.9	4	-1E+10	1	-1E+10	1	-1E+10	1	-1E+10	1	-1E+10	1	-1E+10	1
4902551	73	C	08/19/2022	13:07	-132.072	48.893	0	78.10	0	7.5280	0	32.3910	0	25.293	0	77.424	0	258.9	4	87.6	4	-1E+10	1	-1E+10	1	-1E+10	1	-1E+10	1	-1E+10	1	-1E+10	1
4902551	73	C	08/19/2022	13:07	-132.072	48.893	0	79.10	0	7.4580	0	32.3980	0	25.309	0	78.415	0	258.2	4	87.2	4	-1E+10	1	-1E+10	1	-1E+10	1	-1E+10	1	-1E+10	1	-1E+10	1
4902551	73	C	08/19/2022	13:07	-132.072	48.893	0	80.10	0	7.4310	0	32.4050	0	25.318	0	79.406	0	257.5	4	87.0	4	-1E+10	1	-1E+10	1	-1E+10	1	-1E+10	1	-1E+10	1	-1E+10	1
4902551	73	C	08/19/2022	13:07	-132.072	48.893	0	81.10	0	7.3800	0	32.4120	0	25.330	0	80.397	0	257.0	4	86.7	4	-1E+10	1	-1E+10	1	-1E+10	1	-1E+10	1	-1E+10	1	-1E+10	1
4902551	73	C	08/19/2022	13:07	-132.072	48.893	0	82.10	0	7.3530	0	32.4130	0	25.335	0	81.388	0	256.4	4	86.4	4	-1E+10	1	-1E+10	1	-1E+10	1	-1E+10	1	-1E+10	1	-1E+10	1
4902551	73	C	08/19/2022	13:07	-132.072	48.893	0	83.10	0	7.3490	0	32.4220	0	25.343	0	82.379	0	261.8	4	88.3	4	-1E+10	1	-1E+10	1	-1E+10	1	-1E+10	1	-1E+10	1	-1E+10	1
4902551	73	C	08/19/2022	13:07	-132.072	48.893	0	84.10	0	7.3440	0	32.4290	0	25.349	0	83.370	0	260.7	4	87.9	4	-1E+10	1	-1E+10	1	-1E+10	1	-1E+10	1	-1E+10	1	-1E+10	1
4902551	73	C	08/19/2022	13:07	-132.072	48.893	0	85.00	0	7.3390	0	32.4370	0	25.356	0	84.262	0	259.8	4	87.6	4	-1E+10	1	-1E+10	1	-1E+10	1	-1E+10	1	-1E+10	1	-1E+10	1
4902551	73	C	08/19/2022	13:07	-132.072	48.893	0	85.70	0	7.3020	0	32.4530	0	25.373	0	84.956	0	258.7	4	87.1	4	-1E+10	1	-1E+10	1	-1E+10	1	-1E+10	1	-1E+10	1	-1E+10	1
4902551	73	C	08/19/2022	13:07	-132.072	48.893	0	86.80	0	7.2620	0	32.4720	0	25.394	0	86.046	0	257.3	4	86.6	4	-1E+10	1	-1E+10	1	-1E+10	1	-1E+10	1	-1E+10	1	-1E+10	1
4902551	73	C	08/19/2022	13:07	-132.072	48.893	0	87.80	0	7.2500	0	32.4760	0	25.399	0	87.038	0	256.0	4	86.1	4	-1E+10	1	-1E+10	1	-1E+10	1	-1E+10	1	-1E+10	1	-1E+10	1
4902551	73	C	08/19/2022	13:07	-132.072	48.893	0	88.70	0	7.2380	0	32.4820	0	25.405	0	87.930	0	254.3	4	85.5	4	-1E+10	1	-1E+10	1	-1E+10	1	-1E+10	1	-1E+10	1	-1E+10	1
4902551	73	C	08/19/2022	13:07	-132.072	48.893	0	89.80	0	7.2040	0	32.5010	0	25.425	0	89.020	0	252.1	4	84.8	4	-1E+10	1	-1E+10	1	-1E+10	1	-1E+10	1	-1E+10	1	-1E+10	1
4902551	73	C	08/19/2022	13:07	-132.072	48.893	0	90.90	0	7.1280	0	32.5380	0	25.464	0	90.110	0	249.9	4	83.9	4	-1E+10	1	-1E+10	1	-1E+10	1	-1E+10	1	-1E+10	1	-1E+10	1
4902551	73	C	08/19/2022	13:07	-132.072	48.893	0	92.00	0	7.0980	0	32.5640	0	25.488	0	91.200	0	246.7	4	82.8	4	-1E+10	1	-1E+10	1	-1E+10	1	-1E+10	1	-1E+10	1	-1E+10	1
4902551	73	C	08/19/2022	13:07	-132.072	48.893	0	93.00	0	7.0510	0	32.5980	0	25.522	0	92.191	0	242.6	4	81.3	4	-1E+10	1	-1E+10	1	-1E+10	1	-1E+10	1	-1E+10	1	-1E+10	1
4902551	73	C	08/19/2022	13:07	-132.072	48.893	0	94.00	0	6.9810	0	32.6520	0	25.573	0	93.182	0	238.9	4	80.0	4	-1E+10	1	-1E+10	1	-1E+10	1	-1E+10	1	-1E+10	1	-1E+10	1
4902551	73	C	08/19/2022	13:07	-132.072	48.893	0	95.10	0	6.9130	0	32.7200	0	25.636	0	94.273	0	234.6	4	78.5	4	-1E+10	1	-1E+10	1	-1E+10	1	-1E+10	1	-1E+10	1	-1E+10	1
4902551	73	C	08/19/2022	13:07	-132.072	48.893	0	95.90	0	6.8780	0	32.7630	0	25.675	0	95.065	0	231.1	4	77.3	4	-1E+10	1	-1E+10	1	-1E+10	1	-1E+10	1	-1E+10	1	-1E+10	1
4902551	73	C	08/19/2022	13:07	-132.072	48.893	0	96.80	0	6.8430	0	32.8140	0	25.719	0	95.957	0	228.4	4	76.3	4	-1E+10	1	-1E+10	1	-1E+10	1	-1E+10	1	-1E+10	1	-1E+10	1
4902551	73	C	08/19/2022	13:07	-132.072	48.893	0	97.90	0	6.8260	0	32.8380	0	25.740	0	97.048	0	225.6	4	75.4	4	-1E+10	1	-1E+10	1	-1E+10	1	-1E+10	1	-1E+10	1	-1E+10	1
4902551	73	C	08/19/2022	13:07	-132.072	48.893	0	98.90	0	6.8100	0	32.8620	0	25.762	0	98.039	0	223.0	4	74.5	4	-1E+10	1	-1E+10	1	-1E+10	1	-1E+10	1	-1E+10	1	-1E+10	1
4902551	73	C	08/19/2022	13:07	-132.072	48.893	0	100.10	0	6.7920	0	32.8920	0	25.788	0	99.228	0	220.8	4	73.7	4	-1E+10	1	-1E+10	1	-1E+10	1	-1E+10	1	-1E+10	1	-1E+10	1
4902551	73	C	08/19/2022	13:07	-132.072	48.893	0	100.90	0	6.7730	0	32.9170	0	25.810	0	100.021	0	219.4	4	73.3	4	-1E+10	1	-1E+10	1	-1E+10	1	-1E+10	1	-1E+10	1	-1E+10	1
4902551	73	C	08/19/2022	13:07	-132.072	48.893	0	101.90	0	6.7310	0	32.9530	0	25.844	0	101.012	0	217.7	4	72.6	4	-1E+10	1	-1E+10	1	-1E+10	1	-1E+10	1	-1E+10	1	-1E+10	1
4902551	73	C	08/19/2022	13:07	-132.072	48.893	0	103.10	0	6.7090	0	32.9740	0	25.863	0	102.201	0	215.9	4	72.0	4	-1E+10	1	-1E+10	1	-1E+10	1	-1E+10	1	-1E+10	1	-1E+10	1
4902551	73	C	08/19/2022	13:07	-132.072	48.893	0	104.00	0	6.6890	0	32.9950	0	25.882	0	103.093	0	214.4	4	71.5	4	-1E+10	1	-1E+10	1	-1E+10	1	-1E+10	1	-1E+10	1	-1E+10	1
4902551	73	C	08/19/2022	13:07	-132.072	48.893	0	105.00	0	6.6810	0	33.0130	0	25.898	0	104.084	0	213.3	4	71.1	4	-1E+10	1	-1E+10	1	-1E+10	1	-1E+10	1	-1E+10	1	-1E+10	1
4902551	73	C	08/19/2022	13:07	-132.072	48.893	0	106.00	0	6.6800	0	33.0350	0	25.915	0	105.075	0	212.3	4	70.8	4	-1E+10	1	-1E+10	1	-1E+10	1	-1E+10	1	-1E+10	1	-1E+10	1
4902551	73	C	08/19/2022	13:07	-132.072	48.893	0	107.00	0	6.6760	0	33.0470	0	25.925	0	106.066	0	211.2	4	70.4	4	-1E+10	1	-1E+10	1	-1E+10	1	-1E+10	1	-1E+10	1	-1E+10	1
4902551	73	C	08/19/2022	13:07	-132.072	48.893	0	108.10	0	6.6650	0	33.0620	0	25.938	0	107.156	0	209.6	4	69.9	4	-1E+10	1	-1E+10	1	-1E+10	1	-1E+10	1	-1E+10	1	-1E+10	1
4902551	73	C	08/19/2022	13:07	-132.072	48.893	0	108.80	0	6.6560	0	33.0610	0	25.939	0	107.850	0	208.6	4	69.5	4	-1E+10	1	-1E+10	1	-1E+10	1	-1E+10	1	-1E+10	1	-1E+10	1
4902551	73	C	08/19/2022	13:07	-132.072	48.893	0	109.80	0	6.6410	0	33.0660	0	25.945	0	108.841	0	206.6	4	68.8	4	-1E+10	1	-1E+10	1	-1E+10	1	-1E+10	1	-1E+10	1	-1E+10	1
4902551	73	C	08/19/2022	13:07	-132.072	48.893	0	110.90	0	6.6260	0	33.0720	0	25.951	0	109.931	0	204.4	4	68.1	4	-1E+10	1	-1E+10	1	-1E+10	1	-1E+10	1	-1E+10	1	-1E+10	1
4902551	73	C	08/19/2022	13:07	-132.072	48.893	0	112.00	0	6.5840	0	33.1080	0	25.985	0	111.021	0	202.3	4	67.3	4	-1E+10	1	-1E+10	1	-1E+10	1	-1E+10	1	-1E+10	1	-1E+10	1
4902551	73	C	08/19/2022	13:07	-132.072	48.893	0	113.10	0	6.5840	0	33.1610	0	26.027	0	112.111	0	200.7	4	66.8	4	-1E+10	1	-1E+10	1	-1E+10	1	-1E+10	1	-1E+10	1	-1E+10	1
4902551	73	C	08/19/2022	13:07	-132.072	48.893	0	113.90	0	6.5770	0	33.1760	0	26.040	0	112.904	0	199.8	4	66.5	4	-1E+10	1	-1E+10	1	-1E+10	1	-1E+10	1	-1E+10	1	-1E+10	1
4902551	73	C	08/19/2022	13:07	-132.072	48.893	0	114.70	0	6.5770	0	33.1790	0	26.042	0	113.697	0	198.8	4	66.2	4	-1E+10	1	-1E+10	1	-1E+10	1	-1E+10	1	-1E+10	1	-1E+10	1
4902551	73	C	08/19/2022	13:07	-132.072	48.893	0	115.80	0	6.5680	0	33.1990	0	26.059	0	114.787	0	197.5	4	65.8	4	-1E+10	1	-1E+10	1	-1E+10	1	-1E+10	1	-1E+10	1	-1E+10	1
4902551	73	C	08/19/2022	13:07	-132.072	48.893	0	116.90	0	6.5570	0	33.2140	0	26.072	0	115.877	0	196.3	4	65.4	4	-1E+10	1	-1E+10	1	-1E+10	1	-1E+10	1	-1E+10	1	-1E+10	1
4902551	73	C	08/19/2022	13:07	-132.072	48.893	0	118.00	0	6.5460	0	33.2160	0	26.075	0	116.967	0	195.0	4	64.9	4	-1E+10	1	-1E+10	1	-1E+10	1	-1E+10	1	-1E+10	1	-1E+10	1
4902551	73	C	08/19/2022	13:07	-132.072	48.893	0	119.20	0	6.5070	0	33.2340	0	26.095	0	118.156	0	193.4	4	64.3	4	-1E+10	1	-1E+10	1	-1E+10	1	-1E+10	1	-1E+10	1	-1E+10	1
4902551	73	C	08/19/2022	13:07	-132.072	48.893	0	120.00	0	6.4660	0	33.2400	0	26.105	0	118.949	0	192.5	4	64.0	4	-1E+10	1	-1E+10	1	-1E+10	1	-1E+10	1	-1E+10	1	-1E+10	1
4902551	73	C	08/19/2022	13:07	-132.072	48.893	0	120.80	0	6.4570	0	33.2400	0	26.106	0	119.741	0	191.4	4	63.6	4	-1E+10	1	-1E+10	1	-1E+10	1	-1E+10	1	-1E+10	1	-1E+10	1
4902551	73	C	08/19/2022	13:07	-132.072	48.893	0	122.00	0	6.4460	0	33.2520	0	26.117	0	120.931	0	189.9	4	63.1	4	-1E+10	1	-1E+10	1	-1E+10	1	-1E+10	1	-1E+10	1	-1E+10	1
4902551	73	C	08/19/2022	13:07	-132.072	48.893	0	123.20	0	6.4330	0	33.2940	0	26.151	0	122.120	0	188.5	4	62.6	4	-1E+10	1	-1E+10	1	-1E+10	1	-1E+10	1	-1E+10	1	-1E+10	1
4902551	73	C	08/19/2022	13:07	-132.072	48.893	0	124.00	0	6.4300	0	33.3070	0	26.162	0	122.912	0	187.7	4	62.3	4	-1E+10	1	-1E+10	1	-1E+10	1	-1E+10	1	-1E+10	1	-1E+10	1
4902551	73	C	08/19/2022	13:07	-132.072	48.893	0	124.90	0	6.4160	0	33.3210	0	26.175	0	123.804	0	186.8	4	62.0	4	-1E+10	1	-1E+10	1	-1E+10	1	-1E+10	1	-1E+10	1	-1E+10	1
4902551	73	C	08/19/2022	13:07	-132.072	48.893	0	125.70	0	6.4130	0	33.3240	0	26.178	0	124.597	0	186.0	4	61.8	4	-1E+10	1	-1E+10	1	-1E+10	1	-1E+10	1	-1E+10	1	-1E+10	1
4902551	73	C	08/19/2022	13:07	-132.072	48.893	0	127.00	0	6.3990	0	33.3370	0	26.190	0	125.885	0	184.4	4	61.2	4	-1E+10	1	-1E+10	1	-1E+10	1	-1E+10	1	-1E+10	1	-1E+10	1
4902551	73	C	08/19/2022	13:07	-132.072	48.893	0	128.30	0	6.3880	0	33.3560	0	26.206	0	127.173	0	183.3	4	60.8	4	-1E+10	1	-1E+10	1	-1E+10	1	-1E+10	1	-1E+10	1	-1E+10	1
4902551	73	C	08/19/2022	13:07	-132.072	48.893	0	129.20	0	6.3860	0	33.3610	0	26.210	0	128.065	0	182.5	4	60.6	4	-1E+10	1	-1E+10	1	-1E+10	1	-1E+10	1	-1E+10	1	-1E+10	1
4902551	73	C	08/19/2022	13:07	-132.072	48.893	0	130.00	0	6.3840	0	33.3640	0	26.213	0	128.858	0	181.6	4	60.3	4	-1E+10	1	-1E+10	1	-1E+10	1	-1E+10	1	-1E+10	1	-1E+10	1
4902551	73	C	08/19/2022	13:07	-132.072	48.893	0	130.80	0	6.3790	0	33.3710	0	26.219	0	129.651	0	180.7	4	60.0	4	-1E+10	1	-1E+10	1	-1E+10	1	-1E+10	1	-1E+10	1	-1E+10	1
4902551	73	C	08/19/2022	13:07	-132.072	48.893	0	131.70	0	6.3760	0	33.3760	0	26.224	0	130.542	0	179.7	4	59.6	4	-1E+10	1	-1E+10	1	-1E+10	1	-1E+10	1	-1E+10	1	-1E+10	1
4902551	73	C	08/19/2022	13:07	-132.072	48.893	0	132.90	0	6.3670	0	33.3880	0	26.234	0	131.732	0	178.4	4	59.2	4	-1E+10	1	-1E+10	1	-1E+10	1	-1E+10	1	-1E+10	1	-1E+10	1
4902551	73	C	08/19/2022	13:07	-132.072	48.893	0	134.20	0	6.3590	0	33.4050	0	26.249	0	133.020	0	177.3	4	58.8	4	-1E+10	1	-1E+10	1	-1E+10	1	-1E+10	1	-1E+10	1	-1E+10	1
4902551	73	C	08/19/2022	13:07	-132.072	48.893	0	135.00	0	6.3470	0	33.4270	0	26.268	0	133.812	0	176.4	4	58.5	4	-1E+10	1	-1E+10	1	-1E+10	1	-1E+10	1	-1E+10	1	-1E+10	1
4902551	73	C	08/19/2022	13:07	-132.072	48.893	0	135.90	0	6.3380	0	33.4390	0	26.278	0	134.704	0	175.5	4	58.2	4	-1E+10	1	-1E+10	1	-1E+10	1	-1E+10	1	-1E+10	1	-1E+10	1
4902551	73	C	08/19/2022	13:07	-132.072	48.893	0	136.70	0	6.3330	0	33.4470	0	26.285	0	135.497	0	174.8	4	58.0	4	-1E+10	1	-1E+10	1	-1E+10	1	-1E+10	1	-1E+10	1	-1E+10	1
4902551	73	C	08/19/2022	13:07	-132.072	48.893	0	137.90	0	6.3300	0	33.4520	0	26.290	0	136.686	0	173.5	4	57.6	4	-1E+10	1	-1E+10	1	-1E+10	1	-1E+10	1	-1E+10	1	-1E+10	1
4902551	73	C	08/19/2022	13:07	-132.072	48.893	0	139.30	0	6.3230	0	33.4650	0	26.301	0	138.073	0	172.0	4	57.1	4	-1E+10	1	-1E+10	1	-1E+10	1	-1E+10	1	-1E+10	1	-1E+10	1
4902551	73	C	08/19/2022	13:07	-132.072	48.893	0	140.20	0	6.3070	0	33.4820	0	26.316	0	138.965	0	171.0	4	56.7	4	-1E+10	1	-1E+10	1	-1E+10	1	-1E+10	1	-1E+10	1	-1E+10	1
4902551	73	C	08/19/2022	13:07	-132.072	48.893	0	141.10	0	6.2980	0	33.4990	0	26.331	0	139.857	0	170.2	4	56.5	4	-1E+10	1	-1E+10	1	-1E+10	1	-1E+10	1	-1E+10	1	-1E+10	1
4902551	73	C	08/19/2022	13:07	-132.072	48.893	0	142.00	0	6.2930	0	33.5030	0	26.335	0	140.748	0	169.5	4	56.2	4	-1E+10	1	-1E+10	1	-1E+10	1	-1E+10	1	-1E+10	1	-1E+10	1
4902551	73	C	08/19/2022	13:07	-132.072	48.893	0	142.90	0	6.2910	0	33.5070	0	26.338	0	141.640	0	168.6	4	55.9	4	-1E+10	1	-1E+10	1	-1E+10	1	-1E+10	1	-1E+10	1	-1E+10	1
4902551	73	C	08/19/2022	13:07	-132.072	48.893	0	143.80	0	6.2860	0	33.5150	0	26.345	0	142.532	0	167.8	4	55.6	4	-1E+10	1	-1E+10	1	-1E+10	1	-1E+10	1	-1E+10	1	-1E+10	1
4902551	73	C	08/19/2022	13:07	-132.072	48.893	0	144.80	0	6.2850	0	33.5210	0	26.350	0	143.523	0	166.9	4	55.3	4	-1E+10	1	-1E+10	1	-1E+10	1	-1E+10	1	-1E+10	1	-1E+10	1
4902551	73	C	08/19/2022	13:07	-132.072	48.893	0	145.70	0	6.2850	0	33.5230	0	26.351	0	144.415	0	165.9	4	55.0	4	-1E+10	1	-1E+10	1	-1E+10	1	-1E+10	1	-1E+10	1	-1E+10	1
4902551	73	C	08/19/2022	13:07	-132.072	48.893	0	146.60	0	6.2850	0	33.5250	0	26.353	0	145.306	0	164.8	4	54.6	4	-1E+10	1	-1E+10	1	-1E+10	1	-1E+10	1	-1E+10	1	-1E+10	1
4902551	73	C	08/19/2022	13:07	-132.072	48.893	0	147.60	0	6.2730	0	33.5440	0	26.370	0	146.297	0	163.6	4	54.2	4	-1E+10	1	-1E+10	1	-1E+10	1	-1E+10	1	-1E+10	1	-1E+10	1
4902551	73	C	08/19/2022	13:07	-132.072	48.893	0	148.50	0	6.2380	0	33.5590	0	26.386	0	147.189	0	162.7	4	53.9	4	-1E+10	1	-1E+10	1	-1E+10	1	-1E+10	1	-1E+10	1	-1E+10	1
4902551	73	C	08/19/2022	13:07	-132.072	48.893	0	149.50	0	6.2360	0	33.5640	0	26.390	0	148.180	0	161.9	4	53.6	4	-1E+10	1	-1E+10	1	-1E+10	1	-1E+10	1	-1E+10	1	-1E+10	1
4902551	73	C	08/19/2022	13:07	-132.072	48.893	0	150.50	0	6.2380	0	33.5670	0	26.392	0	149.170	0	160.7	4	53.2	4	-1E+10	1	-1E+10	1	-1E+10	1	-1E+10	1	-1E+10	1	-1E+10	1
4902551	73	C	08/19/2022	13:07	-132.072	48.893	0	151.90	0	6.2180	0	33.5850	0	26.409	0	150.558	0	159.1	4	52.7	4	-1E+10	1	-1E+10	1	-1E+10	1	-1E+10	1	-1E+10	1	-1E+10	1
4902551	73	C	08/19/2022	13:07	-132.072	48.893	0	153.40	0	6.2030	0	33.5990	0	26.422	0	152.044	0	157.2	4	52.1	4	-1E+10	1	-1E+10	1	-1E+10	1	-1E+10	1	-1E+10	1	-1E+10	1
4902551	73	C	08/19/2022	13:07	-132.072	48.893	0	154.40	0	6.1750	0	33.6050	0	26.430	0	153.035	0	156.1	4	51.7	4	-1E+10	1	-1E+10	1	-1E+10	1	-1E+10	1	-1E+10	1	-1E+10	1
4902551	73	C	08/19/2022	13:07	-132.072	48.893	0	155.30	0	6.1650	0	33.6100	0	26.435	0	153.926	0	155.1	4	51.3	4	-1E+10	1	-1E+10	1	-1E+10	1	-1E+10	1	-1E+10	1	-1E+10	1
4902551	73	C	08/19/2022	13:07	-132.072	48.893	0	156.30	0	6.1590	0	33.6140	0	26.439	0	154.917	0	154.0	4	51.0	4	-1E+10	1	-1E+10	1	-1E+10	1	-1E+10	1	-1E+10	1	-1E+10	1
4902551	73	C	08/19/2022	13:07	-132.072	48.893	0	157.30	0	6.1360	0	33.6300	0	26.455	0	155.908	0	153.0	4	50.6	4	-1E+10	1	-1E+10	1	-1E+10	1	-1E+10	1	-1E+10	1	-1E+10	1
4902551	73	C	08/19/2022	13:07	-132.072	48.893	0	158.20	0	6.1280	0	33.6340	0	26.459	0	156.800	0	152.1	4	50.3	4	-1E+10	1	-1E+10	1	-1E+10	1	-1E+10	1	-1E+10	1	-1E+10	1
4902551	73	C	08/19/2022	13:07	-132.072	48.893	0	159.20	0	6.1100	0	33.6460	0	26.471	0	157.790	0	151.1	4	50.0	4	-1E+10	1	-1E+10	1	-1E+10	1	-1E+10	1	-1E+10	1	-1E+10	1
4902551	73	C	08/19/2022	13:07	-132.072	48.893	0	160.20	0	6.0790	0	33.6600	0	26.486	0	158.781	0	150.3	4	49.7	4	-1E+10	1	-1E+10	1	-1E+10	1	-1E+10	1	-1E+10	1	-1E+10	1
4902551	73	C	08/19/2022	13:07	-132.072	48.893	0	161.10	0	6.0450	0	33.6730	0	26.500	0	159.673	0	149.7	4	49.4	4	-1E+10	1	-1E+10	1	-1E+10	1	-1E+10	1	-1E+10	1	-1E+10	1
4902551	73	C	08/19/2022	13:07	-132.072	48.893	0	162.10	0	6.0370	0	33.6740	0	26.502	0	160.663	0	149.3	4	49.3	4	-1E+10	1	-1E+10	1	-1E+10	1	-1E+10	1	-1E+10	1	-1E+10	1
4902551	73	C	08/19/2022	13:07	-132.072	48.893	0	162.90	0	6.0320	0	33.6750	0	26.504	0	161.456	0	148.8	4	49.1	4	-1E+10	1	-1E+10	1	-1E+10	1	-1E+10	1	-1E+10	1	-1E+10	1
4902551	73	C	08/19/2022	13:07	-132.072	48.893	0	164.00	0	6.0190	0	33.6820	0	26.511	0	162.546	0	148.1	4	48.9	4	-1E+10	1	-1E+10	1	-1E+10	1	-1E+10	1	-1E+10	1	-1E+10	1
4902551	73	C	08/19/2022	13:07	-132.072	48.893	0	164.70	0	6.0100	0	33.6840	0	26.513	0	163.239	0	147.8	4	48.7	4	-1E+10	1	-1E+10	1	-1E+10	1	-1E+10	1	-1E+10	1	-1E+10	1
4902551	73	C	08/19/2022	13:07	-132.072	48.893	0	165.80	0	5.9950	0	33.6910	0	26.521	0	164.329	0	147.2	4	48.6	4	-1E+10	1	-1E+10	1	-1E+10	1	-1E+10	1	-1E+10	1	-1E+10	1
4902551	73	C	08/19/2022	13:07	-132.072	48.893	0	167.00	0	5.9750	0	33.7020	0	26.532	0	165.518	0	146.7	4	48.4	4	-1E+10	1	-1E+10	1	-1E+10	1	-1E+10	1	-1E+10	1	-1E+10	1
4902551	73	C	08/19/2022	13:07	-132.072	48.893	0	167.80	0	5.9600	0	33.7060	0	26.537	0	166.311	0	146.5	4	48.3	4	-1E+10	1	-1E+10	1	-1E+10	1	-1E+10	1	-1E+10	1	-1E+10	1
4902551	73	C	08/19/2022	13:07	-132.072	48.893	0	168.90	0	5.9510	0	33.7040	0	26.537	0	167.400	0	146.1	4	48.1	4	-1E+10	1	-1E+10	1	-1E+10	1	-1E+10	1	-1E+10	1	-1E+10	1
4902551	73	C	08/19/2022	13:07	-132.072	48.893	0	170.00	0	5.9490	0	33.7050	0	26.538	0	168.490	0	145.7	4	48.0	4	-1E+10	1	-1E+10	1	-1E+10	1	-1E+10	1	-1E+10	1	-1E+10	1
4902551	73	C	08/19/2022	13:07	-132.072	48.893	0	170.80	0	5.9440	0	33.7070	0	26.540	0	169.283	0	145.5	4	47.9	4	-1E+10	1	-1E+10	1	-1E+10	1	-1E+10	1	-1E+10	1	-1E+10	1
4902551	73	C	08/19/2022	13:07	-132.072	48.893	0	172.00	0	5.9320	0	33.7120	0	26.545	0	170.472	0	145.0	4	47.8	4	-1E+10	1	-1E+10	1	-1E+10	1	-1E+10	1	-1E+10	1	-1E+10	1
4902551	73	C	08/19/2022	13:07	-132.072	48.893	0	173.20	0	5.9180	0	33.7140	0	26.549	0	171.661	0	144.7	4	47.6	4	-1E+10	1	-1E+10	1	-1E+10	1	-1E+10	1	-1E+10	1	-1E+10	1
4902551	73	C	08/19/2022	13:07	-132.072	48.893	0	173.90	0	5.9080	0	33.7170	0	26.552	0	172.354	0	144.5	4	47.6	4	-1E+10	1	-1E+10	1	-1E+10	1	-1E+10	1	-1E+10	1	-1E+10	1
4902551	73	C	08/19/2022	13:07	-132.072	48.893	0	174.70	0	5.9070	0	33.7170	0	26.552	0	173.147	0	144.3	4	47.5	4	-1E+10	1	-1E+10	1	-1E+10	1	-1E+10	1	-1E+10	1	-1E+10	1
4902551	73	C	08/19/2022	13:07	-132.072	48.893	0	175.80	0	5.9050	0	33.7170	0	26.553	0	174.236	0	143.9	4	47.4	4	-1E+10	1	-1E+10	1	-1E+10	1	-1E+10	1	-1E+10	1	-1E+10	1
4902551	73	C	08/19/2022	13:07	-132.072	48.893	0	177.00	0	5.8990	0	33.7190	0	26.555	0	175.425	0	143.6	4	47.3	4	-1E+10	1	-1E+10	1	-1E+10	1	-1E+10	1	-1E+10	1	-1E+10	1
4902551	73	C	08/19/2022	13:07	-132.072	48.893	0	177.80	0	5.8950	0	33.7200	0	26.556	0	176.218	0	143.4	4	47.2	4	-1E+10	1	-1E+10	1	-1E+10	1	-1E+10	1	-1E+10	1	-1E+10	1
4902551	73	C	08/19/2022	13:07	-132.072	48.893	0	179.00	0	5.8910	0	33.7210	0	26.558	0	177.406	0	142.9	4	47.0	4	-1E+10	1	-1E+10	1	-1E+10	1	-1E+10	1	-1E+10	1	-1E+10	1
4902551	73	C	08/19/2022	13:07	-132.072	48.893	0	180.30	0	5.8850	0	33.7220	0	26.559	0	178.694	0	142.5	4	46.9	4	-1E+10	1	-1E+10	1	-1E+10	1	-1E+10	1	-1E+10	1	-1E+10	1
4902551	73	C	08/19/2022	13:07	-132.072	48.893	0	181.10	0	5.8840	0	33.7220	0	26.559	0	179.487	0	142.2	4	46.8	4	-1E+10	1	-1E+10	1	-1E+10	1	-1E+10	1	-1E+10	1	-1E+10	1
4902551	73	C	08/19/2022	13:07	-132.072	48.893	0	181.90	0	5.8830	0	33.7220	0	26.559	0	180.279	0	141.9	4	46.7	4	-1E+10	1	-1E+10	1	-1E+10	1	-1E+10	1	-1E+10	1	-1E+10	1
4902551	73	C	08/19/2022	13:07	-132.072	48.893	0	182.80	0	5.8790	0	33.7230	0	26.561	0	181.171	0	141.5	4	46.5	4	-1E+10	1	-1E+10	1	-1E+10	1	-1E+10	1	-1E+10	1	-1E+10	1
4902551	73	C	08/19/2022	13:07	-132.072	48.893	0	183.60	0	5.8740	0	33.7250	0	26.563	0	181.964	0	141.1	4	46.4	4	-1E+10	1	-1E+10	1	-1E+10	1	-1E+10	1	-1E+10	1	-1E+10	1
4902551	73	C	08/19/2022	13:07	-132.072	48.893	0	184.90	0	5.8660	0	33.7260	0	26.565	0	183.251	0	140.5	4	46.2	4	-1E+10	1	-1E+10	1	-1E+10	1	-1E+10	1	-1E+10	1	-1E+10	1
4902551	73	C	08/19/2022	13:07	-132.072	48.893	0	186.20	0	5.8590	0	33.7270	0	26.566	0	184.539	0	139.9	4	46.0	4	-1E+10	1	-1E+10	1	-1E+10	1	-1E+10	1	-1E+10	1	-1E+10	1
4902551	73	C	08/19/2022	13:07	-132.072	48.893	0	187.00	0	5.8470	0	33.7330	0	26.573	0	185.332	0	139.5	4	45.8	4	-1E+10	1	-1E+10	1	-1E+10	1	-1E+10	1	-1E+10	1	-1E+10	1
4902551	73	C	08/19/2022	13:07	-132.072	48.893	0	187.90	0	5.8370	0	33.7320	0	26.573	0	186.223	0	139.1	4	45.7	4	-1E+10	1	-1E+10	1	-1E+10	1	-1E+10	1	-1E+10	1	-1E+10	1
4902551	73	C	08/19/2022	13:07	-132.072	48.893	0	188.70	0	5.8320	0	33.7350	0	26.576	0	187.016	0	138.5	4	45.5	4	-1E+10	1	-1E+10	1	-1E+10	1	-1E+10	1	-1E+10	1	-1E+10	1
4902551	73	C	08/19/2022	13:07	-132.072	48.893	0	189.60	0	5.8280	0	33.7330	0	26.575	0	187.907	0	138.0	4	45.3	4	-1E+10	1	-1E+10	1	-1E+10	1	-1E+10	1	-1E+10	1	-1E+10	1
4902551	73	C	08/19/2022	13:07	-132.072	48.893	0	190.90	0	5.8240	0	33.7350	0	26.577	0	189.195	0	137.1	4	45.1	4	-1E+10	1	-1E+10	1	-1E+10	1	-1E+10	1	-1E+10	1	-1E+10	1
4902551	73	C	08/19/2022	13:07	-132.072	48.893	0	192.20	0	5.8130	0	33.7380	0	26.581	0	190.483	0	136.2	4	44.8	4	-1E+10	1	-1E+10	1	-1E+10	1	-1E+10	1	-1E+10	1	-1E+10	1
4902551	73	C	08/19/2022	13:07	-132.072	48.893	0	193.00	0	5.8030	0	33.7390	0	26.583	0	191.275	0	135.7	4	44.6	4	-1E+10	1	-1E+10	1	-1E+10	1	-1E+10	1	-1E+10	1	-1E+10	1
4902551	73	C	08/19/2022	13:07	-132.072	48.893	0	193.90	0	5.7790	0	33.7490	0	26.594	0	192.167	0	135.0	4	44.3	4	-1E+10	1	-1E+10	1	-1E+10	1	-1E+10	1	-1E+10	1	-1E+10	1
4902551	73	C	08/19/2022	13:07	-132.072	48.893	0	194.80	0	5.7570	0	33.7490	0	26.596	0	193.058	0	134.6	4	44.2	4	-1E+10	1	-1E+10	1	-1E+10	1	-1E+10	1	-1E+10	1	-1E+10	1
4902551	73	C	08/19/2022	13:07	-132.072	48.893	0	195.70	0	5.7430	0	33.7530	0	26.601	0	193.950	0	134.1	4	44.0	4	-1E+10	1	-1E+10	1	-1E+10	1	-1E+10	1	-1E+10	1	-1E+10	1
4902551	73	C	08/19/2022	13:07	-132.072	48.893	0	196.60	0	5.7320	0	33.7510	0	26.601	0	194.842	0	133.8	4	43.9	4	-1E+10	1	-1E+10	1	-1E+10	1	-1E+10	1	-1E+10	1	-1E+10	1
4902551	73	C	08/19/2022	13:07	-132.072	48.893	0	197.90	0	5.7260	0	33.7520	0	26.602	0	196.129	0	133.2	4	43.7	4	-1E+10	1	-1E+10	1	-1E+10	1	-1E+10	1	-1E+10	1	-1E+10	1
4902551	73	C	08/19/2022	13:07	-132.072	48.893	0	199.30	0	5.7230	0	33.7530	0	26.604	0	197.516	0	132.5	4	43.5	4	-1E+10	1	-1E+10	1	-1E+10	1	-1E+10	1	-1E+10	1	-1E+10	1
4902551	73	C	08/19/2022	13:07	-132.072	48.893	0	200.20	0	5.7190	0	33.7530	0	26.604	0	198.408	0	132.1	4	43.3	4	-1E+10	1	-1E+10	1	-1E+10	1	-1E+10	1	-1E+10	1	-1E+10	1
4902551	73	C	08/19/2022	13:07	-132.072	48.893	0	201.10	0	5.7180	0	33.7530	0	26.604	0	199.299	0	131.5	4	43.1	4	-1E+10	1	-1E+10	1	-1E+10	1	-1E+10	1	-1E+10	1	-1E+10	1
4902551	73	C	08/19/2022	13:07	-132.072	48.893	0	201.90	0	5.7120	0	33.7560	0	26.607	0	200.092	0	131.0	4	42.9	4	-1E+10	1	-1E+10	1	-1E+10	1	-1E+10	1	-1E+10	1	-1E+10	1
4902551	73	C	08/19/2022	13:07	-132.072	48.893	0	202.80	0	5.7060	0	33.7560	0	26.608	0	200.983	0	130.4	4	42.8	4	-1E+10	1	-1E+10	1	-1E+10	1	-1E+10	1	-1E+10	1	-1E+10	1
4902551	73	C	08/19/2022	13:07	-132.072	48.893	0	203.70	0	5.7050	0	33.7570	0	26.609	0	201.875	0	129.9	4	42.6	4	-1E+10	1	-1E+10	1	-1E+10	1	-1E+10	1	-1E+10	1	-1E+10	1
4902551	73	C	08/19/2022	13:07	-132.072	48.893	0	204.60	0	5.6980	0	33.7630	0	26.615	0	202.766	0	129.3	4	42.4	4	-1E+10	1	-1E+10	1	-1E+10	1	-1E+10	1	-1E+10	1	-1E+10	1
4902551	73	C	08/19/2022	13:07	-132.072	48.893	0	205.90	0	5.6850	0	33.7640	0	26.617	0	204.054	0	128.5	4	42.1	4	-1E+10	1	-1E+10	1	-1E+10	1	-1E+10	1	-1E+10	1	-1E+10	1
4902551	73	C	08/19/2022	13:07	-132.072	48.893	0	207.30	0	5.6700	0	33.7660	0	26.620	0	205.440	0	127.6	4	41.8	4	-1E+10	1	-1E+10	1	-1E+10	1	-1E+10	1	-1E+10	1	-1E+10	1
4902551	73	C	08/19/2022	13:07	-132.072	48.893	0	208.20	0	5.6580	0	33.7680	0	26.623	0	206.332	0	127.0	4	41.6	4	-1E+10	1	-1E+10	1	-1E+10	1	-1E+10	1	-1E+10	1	-1E+10	1
4902551	73	C	08/19/2022	13:07	-132.072	48.893	0	209.10	0	5.6340	0	33.7700	0	26.628	0	207.223	0	126.5	4	41.4	4	-1E+10	1	-1E+10	1	-1E+10	1	-1E+10	1	-1E+10	1	-1E+10	1
4902551	73	C	08/19/2022	13:07	-132.072	48.893	0	210.00	0	5.6230	0	33.7700	0	26.629	0	208.115	0	125.9	4	41.2	4	-1E+10	1	-1E+10	1	-1E+10	1	-1E+10	1	-1E+10	1	-1E+10	1
4902551	73	C	08/19/2022	13:07	-132.072	48.893	0	210.90	0	5.6170	0	33.7710	0	26.631	0	209.006	0	125.4	4	41.0	4	-1E+10	1	-1E+10	1	-1E+10	1	-1E+10	1	-1E+10	1	-1E+10	1
4902551	73	C	08/19/2022	13:07	-132.072	48.893	0	211.80	0	5.6020	0	33.7750	0	26.636	0	209.898	0	124.9	4	40.8	4	-1E+10	1	-1E+10	1	-1E+10	1	-1E+10	1	-1E+10	1	-1E+10	1
4902551	73	C	08/19/2022	13:07	-132.072	48.893	0	212.70	0	5.5950	0	33.7730	0	26.635	0	210.789	0	124.5	4	40.7	4	-1E+10	1	-1E+10	1	-1E+10	1	-1E+10	1	-1E+10	1	-1E+10	1
4902551	73	C	08/19/2022	13:07	-132.072	48.893	0	214.00	0	5.5880	0	33.7750	0	26.638	0	212.077	0	123.7	4	40.4	4	-1E+10	1	-1E+10	1	-1E+10	1	-1E+10	1	-1E+10	1	-1E+10	1
4902551	73	C	08/19/2022	13:07	-132.072	48.893	0	215.30	0	5.5810	0	33.7760	0	26.639	0	213.365	0	122.9	4	40.2	4	-1E+10	1	-1E+10	1	-1E+10	1	-1E+10	1	-1E+10	1	-1E+10	1
4902551	73	C	08/19/2022	13:07	-132.072	48.893	0	216.20	0	5.5740	0	33.7760	0	26.640	0	214.256	0	122.4	4	40.0	4	-1E+10	1	-1E+10	1	-1E+10	1	-1E+10	1	-1E+10	1	-1E+10	1
4902551	73	C	08/19/2022	13:07	-132.072	48.893	0	217.10	0	5.5660	0	33.7790	0	26.643	0	215.147	0	121.8	4	39.8	4	-1E+10	1	-1E+10	1	-1E+10	1	-1E+10	1	-1E+10	1	-1E+10	1
4902551	73	C	08/19/2022	13:07	-132.072	48.893	0	217.90	0	5.5510	0	33.7790	0	26.645	0	215.940	0	121.2	4	39.6	4	-1E+10	1	-1E+10	1	-1E+10	1	-1E+10	1	-1E+10	1	-1E+10	1
4902551	73	C	08/19/2022	13:07	-132.072	48.893	0	218.80	0	5.5420	0	33.7800	0	26.647	0	216.831	0	120.7	4	39.4	4	-1E+10	1	-1E+10	1	-1E+10	1	-1E+10	1	-1E+10	1	-1E+10	1
4902551	73	C	08/19/2022	13:07	-132.072	48.893	0	219.60	0	5.5330	0	33.7790	0	26.647	0	217.624	0	120.1	4	39.2	4	-1E+10	1	-1E+10	1	-1E+10	1	-1E+10	1	-1E+10	1	-1E+10	1
4902551	73	C	08/19/2022	13:07	-132.072	48.893	0	220.90	0	5.5210	0	33.7800	0	26.650	0	218.911	0	119.3	4	38.9	4	-1E+10	1	-1E+10	1	-1E+10	1	-1E+10	1	-1E+10	1	-1E+10	1
4902551	73	C	08/19/2022	13:07	-132.072	48.893	0	222.30	0	5.4950	0	33.7890	0	26.660	0	220.298	0	118.4	4	38.6	4	-1E+10	1	-1E+10	1	-1E+10	1	-1E+10	1	-1E+10	1	-1E+10	1
4902551	73	C	08/19/2022	13:07	-132.072	48.893	0	223.10	0	5.4800	0	33.7850	0	26.658	0	221.090	0	118.0	4	38.5	4	-1E+10	1	-1E+10	1	-1E+10	1	-1E+10	1	-1E+10	1	-1E+10	1
4902551	73	C	08/19/2022	13:07	-132.072	48.893	0	224.00	0	5.4770	0	33.7830	0	26.657	0	221.982	0	117.5	4	38.3	4	-1E+10	1	-1E+10	1	-1E+10	1	-1E+10	1	-1E+10	1	-1E+10	1
4902551	73	C	08/19/2022	13:07	-132.072	48.893	0	224.90	0	5.4730	0	33.7860	0	26.660	0	222.873	0	117.0	4	38.2	4	-1E+10	1	-1E+10	1	-1E+10	1	-1E+10	1	-1E+10	1	-1E+10	1
4902551	73	C	08/19/2022	13:07	-132.072	48.893	0	225.70	0	5.4510	0	33.7900	0	26.666	0	223.665	0	116.5	4	38.0	4	-1E+10	1	-1E+10	1	-1E+10	1	-1E+10	1	-1E+10	1	-1E+10	1
4902551	73	C	08/19/2022	13:07	-132.072	48.893	0	226.60	0	5.4480	0	33.7870	0	26.664	0	224.557	0	116.1	4	37.8	4	-1E+10	1	-1E+10	1	-1E+10	1	-1E+10	1	-1E+10	1	-1E+10	1
4902551	73	C	08/19/2022	13:07	-132.072	48.893	0	227.90	0	5.4400	0	33.7890	0	26.666	0	225.844	0	115.4	4	37.6	4	-1E+10	1	-1E+10	1	-1E+10	1	-1E+10	1	-1E+10	1	-1E+10	1
4902551	73	C	08/19/2022	13:07	-132.072	48.893	0	229.20	0	5.4230	0	33.7950	0	26.673	0	227.132	0	114.8	4	37.4	4	-1E+10	1	-1E+10	1	-1E+10	1	-1E+10	1	-1E+10	1	-1E+10	1
4902551	73	C	08/19/2022	13:07	-132.072	48.893	0	230.00	0	5.4120	0	33.7920	0	26.672	0	227.924	0	114.4	4	37.2	4	-1E+10	1	-1E+10	1	-1E+10	1	-1E+10	1	-1E+10	1	-1E+10	1
4902551	73	C	08/19/2022	13:07	-132.072	48.893	0	230.90	0	5.4110	0	33.7920	0	26.672	0	228.816	0	114.0	4	37.1	4	-1E+10	1	-1E+10	1	-1E+10	1	-1E+10	1	-1E+10	1	-1E+10	1
4902551	73	C	08/19/2022	13:07	-132.072	48.893	0	231.70	0	5.4110	0	33.7920	0	26.672	0	229.608	0	113.5	4	37.0	4	-1E+10	1	-1E+10	1	-1E+10	1	-1E+10	1	-1E+10	1	-1E+10	1
4902551	73	C	08/19/2022	13:07	-132.072	48.893	0	233.00	0	5.4040	0	33.7940	0	26.675	0	230.896	0	112.7	4	36.7	4	-1E+10	1	-1E+10	1	-1E+10	1	-1E+10	1	-1E+10	1	-1E+10	1
4902551	73	C	08/19/2022	13:07	-132.072	48.893	0	234.20	0	5.3980	0	33.7950	0	26.676	0	232.084	0	111.9	4	36.4	4	-1E+10	1	-1E+10	1	-1E+10	1	-1E+10	1	-1E+10	1	-1E+10	1
4902551	73	C	08/19/2022	13:07	-132.072	48.893	0	235.10	0	5.3890	0	33.7960	0	26.678	0	232.975	0	111.3	4	36.2	4	-1E+10	1	-1E+10	1	-1E+10	1	-1E+10	1	-1E+10	1	-1E+10	1
4902551	73	C	08/19/2022	13:07	-132.072	48.893	0	235.90	0	5.3850	0	33.7940	0	26.677	0	233.768	0	110.8	4	36.0	4	-1E+10	1	-1E+10	1	-1E+10	1	-1E+10	1	-1E+10	1	-1E+10	1
4902551	73	C	08/19/2022	13:07	-132.072	48.893	0	236.70	0	5.3840	0	33.7940	0	26.677	0	234.560	0	110.1	4	35.8	4	-1E+10	1	-1E+10	1	-1E+10	1	-1E+10	1	-1E+10	1	-1E+10	1
4902551	73	C	08/19/2022	13:07	-132.072	48.893	0	238.00	0	5.3670	0	33.8010	0	26.685	0	235.848	0	109.2	4	35.5	4	-1E+10	1	-1E+10	1	-1E+10	1	-1E+10	1	-1E+10	1	-1E+10	1
4902551	73	C	08/19/2022	13:07	-132.072	48.893	0	239.30	0	5.3540	0	33.8020	0	26.687	0	237.135	0	108.4	4	35.2	4	-1E+10	1	-1E+10	1	-1E+10	1	-1E+10	1	-1E+10	1	-1E+10	1
4902551	73	C	08/19/2022	13:07	-132.072	48.893	0	240.10	0	5.3350	0	33.8030	0	26.690	0	237.927	0	107.8	4	35.0	4	-1E+10	1	-1E+10	1	-1E+10	1	-1E+10	1	-1E+10	1	-1E+10	1
4902551	73	C	08/19/2022	13:07	-132.072	48.893	0	241.00	0	5.3200	0	33.8040	0	26.692	0	238.819	0	107.3	4	34.9	4	-1E+10	1	-1E+10	1	-1E+10	1	-1E+10	1	-1E+10	1	-1E+10	1
4902551	73	C	08/19/2022	13:07	-132.072	48.893	0	241.90	0	5.3070	0	33.8060	0	26.696	0	239.710	0	106.9	4	34.7	4	-1E+10	1	-1E+10	1	-1E+10	1	-1E+10	1	-1E+10	1	-1E+10	1
4902551	73	C	08/19/2022	13:07	-132.072	48.893	0	242.70	0	5.3020	0	33.8080	0	26.698	0	240.502	0	106.5	4	34.6	4	-1E+10	1	-1E+10	1	-1E+10	1	-1E+10	1	-1E+10	1	-1E+10	1
4902551	73	C	08/19/2022	13:07	-132.072	48.893	0	243.60	0	5.2960	0	33.8070	0	26.698	0	241.394	0	106.0	4	34.4	4	-1E+10	1	-1E+10	1	-1E+10	1	-1E+10	1	-1E+10	1	-1E+10	1
4902551	73	C	08/19/2022	13:07	-132.072	48.893	0	244.90	0	5.2890	0	33.8090	0	26.700	0	242.681	0	105.3	4	34.2	4	-1E+10	1	-1E+10	1	-1E+10	1	-1E+10	1	-1E+10	1	-1E+10	1
4902551	73	C	08/19/2022	13:07	-132.072	48.893	0	246.20	0	5.2670	0	33.8110	0	26.704	0	243.969	0	104.7	4	34.0	4	-1E+10	1	-1E+10	1	-1E+10	1	-1E+10	1	-1E+10	1	-1E+10	1
4902551	73	C	08/19/2022	13:07	-132.072	48.893	0	247.10	0	5.2630	0	33.8120	0	26.706	0	244.860	0	104.3	4	33.8	4	-1E+10	1	-1E+10	1	-1E+10	1	-1E+10	1	-1E+10	1	-1E+10	1
4902551	73	C	08/19/2022	13:07	-132.072	48.893	0	248.00	0	5.2560	0	33.8140	0	26.708	0	245.751	0	103.9	4	33.7	4	-1E+10	1	-1E+10	1	-1E+10	1	-1E+10	1	-1E+10	1	-1E+10	1
4902551	73	C	08/19/2022	13:07	-132.072	48.893	0	248.90	0	5.2500	0	33.8130	0	26.708	0	246.643	0	103.5	4	33.6	4	-1E+10	1	-1E+10	1	-1E+10	1	-1E+10	1	-1E+10	1	-1E+10	1
4902551	73	C	08/19/2022	13:07	-132.072	48.893	0	249.90	0	5.2450	0	33.8160	0	26.711	0	247.633	0	103.1	4	33.4	4	-1E+10	1	-1E+10	1	-1E+10	1	-1E+10	1	-1E+10	1	-1E+10	1
4902551	73	C	08/19/2022	13:07	-132.072	48.893	0	250.80	0	5.2380	0	33.8160	0	26.712	0	248.524	0	102.7	4	33.3	4	-1E+10	1	-1E+10	1	-1E+10	1	-1E+10	1	-1E+10	1	-1E+10	1
4902551	73	C	08/19/2022	13:07	-132.072	48.893	0	251.70	0	5.2300	0	33.8170	0	26.713	0	249.415	0	102.2	4	33.1	4	-1E+10	1	-1E+10	1	-1E+10	1	-1E+10	1	-1E+10	1	-1E+10	1
4902551	73	C	08/19/2022	13:07	-132.072	48.893	0	252.60	0	5.2160	0	33.8220	0	26.719	0	250.307	0	101.9	4	33.0	4	-1E+10	1	-1E+10	1	-1E+10	1	-1E+10	1	-1E+10	1	-1E+10	1
4902551	73	C	08/19/2022	13:07	-132.072	48.893	0	253.60	0	5.2080	0	33.8190	0	26.717	0	251.297	0	101.5	4	32.9	4	-1E+10	1	-1E+10	1	-1E+10	1	-1E+10	1	-1E+10	1	-1E+10	1
4902551	73	C	08/19/2022	13:07	-132.072	48.893	0	254.50	0	5.2050	0	33.8180	0	26.717	0	252.188	0	101.1	4	32.8	4	-1E+10	1	-1E+10	1	-1E+10	1	-1E+10	1	-1E+10	1	-1E+10	1
4902551	73	C	08/19/2022	13:07	-132.072	48.893	0	255.90	0	5.1970	0	33.8200	0	26.720	0	253.575	0	100.6	4	32.6	4	-1E+10	1	-1E+10	1	-1E+10	1	-1E+10	1	-1E+10	1	-1E+10	1
4902551	73	C	08/19/2022	13:07	-132.072	48.893	0	257.40	0	5.1830	0	33.8220	0	26.723	0	255.060	0	100.1	4	32.4	4	-1E+10	1	-1E+10	1	-1E+10	1	-1E+10	1	-1E+10	1	-1E+10	1
4902551	73	C	08/19/2022	13:07	-132.072	48.893	0	258.30	0	5.1810	0	33.8210	0	26.722	0	255.951	0	99.8	4	32.3	4	-1E+10	1	-1E+10	1	-1E+10	1	-1E+10	1	-1E+10	1	-1E+10	1
4902551	73	C	08/19/2022	13:07	-132.072	48.893	0	259.30	0	5.1770	0	33.8230	0	26.724	0	256.942	0	99.4	4	32.2	4	-1E+10	1	-1E+10	1	-1E+10	1	-1E+10	1	-1E+10	1	-1E+10	1
4902551	73	C	08/19/2022	13:07	-132.072	48.893	0	260.30	0	5.1700	0	33.8240	0	26.726	0	257.932	0	99.1	4	32.1	4	-1E+10	1	-1E+10	1	-1E+10	1	-1E+10	1	-1E+10	1	-1E+10	1
4902551	73	C	08/19/2022	13:07	-132.072	48.893	0	261.20	0	5.1640	0	33.8240	0	26.727	0	258.823	0	98.8	4	32.0	4	-1E+10	1	-1E+10	1	-1E+10	1	-1E+10	1	-1E+10	1	-1E+10	1
4902551	73	C	08/19/2022	13:07	-132.072	48.893	0	262.20	0	5.1610	0	33.8240	0	26.727	0	259.814	0	98.5	4	31.9	4	-1E+10	1	-1E+10	1	-1E+10	1	-1E+10	1	-1E+10	1	-1E+10	1
4902551	73	C	08/19/2022	13:07	-132.072	48.893	0	263.10	0	5.1550	0	33.8260	0	26.729	0	260.705	0	98.1	4	31.8	4	-1E+10	1	-1E+10	1	-1E+10	1	-1E+10	1	-1E+10	1	-1E+10	1
4902551	73	C	08/19/2022	13:07	-132.072	48.893	0	264.10	0	5.1520	0	33.8250	0	26.729	0	261.695	0	97.9	4	31.7	4	-1E+10	1	-1E+10	1	-1E+10	1	-1E+10	1	-1E+10	1	-1E+10	1
4902551	73	C	08/19/2022	13:07	-132.072	48.893	0	265.00	0	5.1490	0	33.8250	0	26.729	0	262.586	0	97.5	4	31.5	4	-1E+10	1	-1E+10	1	-1E+10	1	-1E+10	1	-1E+10	1	-1E+10	1
4902551	73	C	08/19/2022	13:07	-132.072	48.893	0	266.00	0	5.1450	0	33.8260	0	26.730	0	263.577	0	97.1	4	31.4	4	-1E+10	1	-1E+10	1	-1E+10	1	-1E+10	1	-1E+10	1	-1E+10	1
4902551	73	C	08/19/2022	13:07	-132.072	48.893	0	267.00	0	5.1330	0	33.8310	0	26.736	0	264.567	0	96.7	4	31.3	4	-1E+10	1	-1E+10	1	-1E+10	1	-1E+10	1	-1E+10	1	-1E+10	1
4902551	73	C	08/19/2022	13:07	-132.072	48.893	0	268.00	0	5.1160	0	33.8320	0	26.739	0	265.557	0	96.3	4	31.2	4	-1E+10	1	-1E+10	1	-1E+10	1	-1E+10	1	-1E+10	1	-1E+10	1
4902551	73	C	08/19/2022	13:07	-132.072	48.893	0	268.90	0	5.1070	0	33.8300	0	26.738	0	266.448	0	96.1	4	31.1	4	-1E+10	1	-1E+10	1	-1E+10	1	-1E+10	1	-1E+10	1	-1E+10	1
4902551	73	C	08/19/2022	13:07	-132.072	48.893	0	269.90	0	5.1020	0	33.8310	0	26.739	0	267.438	0	95.8	4	31.0	4	-1E+10	1	-1E+10	1	-1E+10	1	-1E+10	1	-1E+10	1	-1E+10	1
4902551	73	C	08/19/2022	13:07	-132.072	48.893	0	270.80	0	5.0950	0	33.8310	0	26.740	0	268.330	0	95.4	4	30.8	4	-1E+10	1	-1E+10	1	-1E+10	1	-1E+10	1	-1E+10	1	-1E+10	1
4902551	73	C	08/19/2022	13:07	-132.072	48.893	0	271.80	0	5.0920	0	33.8290	0	26.739	0	269.320	0	95.1	4	30.7	4	-1E+10	1	-1E+10	1	-1E+10	1	-1E+10	1	-1E+10	1	-1E+10	1
4902551	73	C	08/19/2022	13:07	-132.072	48.893	0	272.80	0	5.0910	0	33.8310	0	26.741	0	270.310	0	94.7	4	30.6	4	-1E+10	1	-1E+10	1	-1E+10	1	-1E+10	1	-1E+10	1	-1E+10	1
4902551	73	C	08/19/2022	13:07	-132.072	48.893	0	273.70	0	5.0910	0	33.8300	0	26.740	0	271.201	0	94.3	4	30.5	4	-1E+10	1	-1E+10	1	-1E+10	1	-1E+10	1	-1E+10	1	-1E+10	1
4902551	73	C	08/19/2022	13:07	-132.072	48.893	0	274.70	0	5.0900	0	33.8300	0	26.740	0	272.192	0	93.8	4	30.3	4	-1E+10	1	-1E+10	1	-1E+10	1	-1E+10	1	-1E+10	1	-1E+10	1
4902551	73	C	08/19/2022	13:07	-132.072	48.893	0	275.60	0	5.0820	0	33.8320	0	26.742	0	273.083	0	93.3	4	30.1	4	-1E+10	1	-1E+10	1	-1E+10	1	-1E+10	1	-1E+10	1	-1E+10	1
4902551	73	C	08/19/2022	13:07	-132.072	48.893	0	276.60	0	5.0710	0	33.8340	0	26.745	0	274.073	0	92.7	4	30.0	4	-1E+10	1	-1E+10	1	-1E+10	1	-1E+10	1	-1E+10	1	-1E+10	1
4902551	73	C	08/19/2022	13:07	-132.072	48.893	0	277.60	0	5.0680	0	33.8310	0	26.743	0	275.063	0	92.1	4	29.8	4	-1E+10	1	-1E+10	1	-1E+10	1	-1E+10	1	-1E+10	1	-1E+10	1
4902551	73	C	08/19/2022	13:07	-132.072	48.893	0	278.90	0	5.0510	0	33.8380	0	26.751	0	276.350	0	91.2	4	29.5	4	-1E+10	1	-1E+10	1	-1E+10	1	-1E+10	1	-1E+10	1	-1E+10	1
4902551	73	C	08/19/2022	13:07	-132.072	48.893	0	280.40	0	5.0170	0	33.8390	0	26.755	0	277.836	0	90.5	4	29.2	4	-1E+10	1	-1E+10	1	-1E+10	1	-1E+10	1	-1E+10	1	-1E+10	1
4902551	73	C	08/19/2022	13:07	-132.072	48.893	0	281.40	0	5.0040	0	33.8440	0	26.761	0	278.826	0	90.1	4	29.1	4	-1E+10	1	-1E+10	1	-1E+10	1	-1E+10	1	-1E+10	1	-1E+10	1
4902551	73	C	08/19/2022	13:07	-132.072	48.893	0	282.30	0	4.9880	0	33.8420	0	26.761	0	279.717	0	89.8	4	29.0	4	-1E+10	1	-1E+10	1	-1E+10	1	-1E+10	1	-1E+10	1	-1E+10	1
4902551	73	C	08/19/2022	13:07	-132.072	48.893	0	283.30	0	4.9870	0	33.8420	0	26.761	0	280.707	0	89.5	4	28.8	4	-1E+10	1	-1E+10	1	-1E+10	1	-1E+10	1	-1E+10	1	-1E+10	1
4902551	73	C	08/19/2022	13:07	-132.072	48.893	0	284.20	0	4.9860	0	33.8420	0	26.761	0	281.598	0	89.0	4	28.7	4	-1E+10	1	-1E+10	1	-1E+10	1	-1E+10	1	-1E+10	1	-1E+10	1
4902551	73	C	08/19/2022	13:07	-132.072	48.893	0	285.20	0	4.9850	0	33.8420	0	26.762	0	282.589	0	88.6	4	28.6	4	-1E+10	1	-1E+10	1	-1E+10	1	-1E+10	1	-1E+10	1	-1E+10	1
4902551	73	C	08/19/2022	13:07	-132.072	48.893	0	286.10	0	4.9830	0	33.8420	0	26.762	0	283.480	0	88.1	4	28.4	4	-1E+10	1	-1E+10	1	-1E+10	1	-1E+10	1	-1E+10	1	-1E+10	1
4902551	73	C	08/19/2022	13:07	-132.072	48.893	0	287.10	0	4.9790	0	33.8440	0	26.764	0	284.470	0	87.6	4	28.3	4	-1E+10	1	-1E+10	1	-1E+10	1	-1E+10	1	-1E+10	1	-1E+10	1
4902551	73	C	08/19/2022	13:07	-132.072	48.893	0	288.00	0	4.9700	0	33.8460	0	26.766	0	285.361	0	87.1	4	28.1	4	-1E+10	1	-1E+10	1	-1E+10	1	-1E+10	1	-1E+10	1	-1E+10	1
4902551	73	C	08/19/2022	13:07	-132.072	48.893	0	288.90	0	4.9590	0	33.8480	0	26.769	0	286.252	0	86.6	4	27.9	4	-1E+10	1	-1E+10	1	-1E+10	1	-1E+10	1	-1E+10	1	-1E+10	1
4902551	73	C	08/19/2022	13:07	-132.072	48.893	0	289.80	0	4.9500	0	33.8490	0	26.771	0	287.143	0	86.1	4	27.7	4	-1E+10	1	-1E+10	1	-1E+10	1	-1E+10	1	-1E+10	1	-1E+10	1
4902551	73	C	08/19/2022	13:07	-132.072	48.893	0	290.70	0	4.9300	0	33.8510	0	26.775	0	288.034	0	85.7	4	27.6	4	-1E+10	1	-1E+10	1	-1E+10	1	-1E+10	1	-1E+10	1	-1E+10	1
4902551	73	C	08/19/2022	13:07	-132.072	48.893	0	291.60	0	4.9220	0	33.8530	0	26.777	0	288.925	0	85.3	4	27.5	4	-1E+10	1	-1E+10	1	-1E+10	1	-1E+10	1	-1E+10	1	-1E+10	1
4902551	73	C	08/19/2022	13:07	-132.072	48.893	0	292.60	0	4.9110	0	33.8570	0	26.782	0	289.916	0	84.9	4	27.3	4	-1E+10	1	-1E+10	1	-1E+10	1	-1E+10	1	-1E+10	1	-1E+10	1
4902551	73	C	08/19/2022	13:07	-132.072	48.893	0	293.90	0	4.9040	0	33.8540	0	26.780	0	291.203	0	84.4	4	27.2	4	-1E+10	1	-1E+10	1	-1E+10	1	-1E+10	1	-1E+10	1	-1E+10	1
4902551	73	C	08/19/2022	13:07	-132.072	48.893	0	295.30	0	4.9030	0	33.8540	0	26.780	0	292.589	0	83.9	4	27.0	4	-1E+10	1	-1E+10	1	-1E+10	1	-1E+10	1	-1E+10	1	-1E+10	1
4902551	73	C	08/19/2022	13:07	-132.072	48.893	0	296.20	0	4.9010	0	33.8550	0	26.781	0	293.480	0	83.4	4	26.8	4	-1E+10	1	-1E+10	1	-1E+10	1	-1E+10	1	-1E+10	1	-1E+10	1
4902551	73	C	08/19/2022	13:07	-132.072	48.893	0	297.10	0	4.8960	0	33.8570	0	26.784	0	294.371	0	83.0	4	26.7	4	-1E+10	1	-1E+10	1	-1E+10	1	-1E+10	1	-1E+10	1	-1E+10	1
4902551	73	C	08/19/2022	13:07	-132.072	48.893	0	298.00	0	4.8760	0	33.8660	0	26.793	0	295.262	0	82.6	4	26.6	4	-1E+10	1	-1E+10	1	-1E+10	1	-1E+10	1	-1E+10	1	-1E+10	1
4902551	73	C	08/19/2022	13:07	-132.072	48.893	0	298.90	0	4.8660	0	33.8610	0	26.790	0	296.153	0	82.4	4	26.5	4	-1E+10	1	-1E+10	1	-1E+10	1	-1E+10	1	-1E+10	1	-1E+10	1
4902551	73	C	08/19/2022	13:07	-132.072	48.893	0	299.80	0	4.8620	0	33.8620	0	26.791	0	297.044	0	82.1	4	26.4	4	-1E+10	1	-1E+10	1	-1E+10	1	-1E+10	1	-1E+10	1	-1E+10	1
4902551	73	C	08/19/2022	13:07	-132.072	48.893	0	300.70	0	4.8600	0	33.8630	0	26.792	0	297.935	0	81.7	4	26.3	4	-1E+10	1	-1E+10	1	-1E+10	1	-1E+10	1	-1E+10	1	-1E+10	1
4902551	73	C	08/19/2022	13:07	-132.072	48.893	0	301.60	0	4.8530	0	33.8650	0	26.795	0	298.827	0	81.3	4	26.2	4	-1E+10	1	-1E+10	1	-1E+10	1	-1E+10	1	-1E+10	1	-1E+10	1
4902551	73	C	08/19/2022	13:07	-132.072	48.893	0	302.90	0	4.8510	0	33.8630	0	26.793	0	300.114	0	80.8	4	26.0	4	-1E+10	1	-1E+10	1	-1E+10	1	-1E+10	1	-1E+10	1	-1E+10	1
4902551	73	C	08/19/2022	13:07	-132.072	48.893	0	304.30	0	4.8490	0	33.8640	0	26.794	0	301.500	0	80.2	4	25.8	4	-1E+10	1	-1E+10	1	-1E+10	1	-1E+10	1	-1E+10	1	-1E+10	1
4902551	73	C	08/19/2022	13:07	-132.072	48.893	0	305.10	0	4.8480	0	33.8640	0	26.795	0	302.292	0	79.6	4	25.6	4	-1E+10	1	-1E+10	1	-1E+10	1	-1E+10	1	-1E+10	1	-1E+10	1
4902551	73	C	08/19/2022	13:07	-132.072	48.893	0	306.00	0	4.8430	0	33.8660	0	26.797	0	303.183	0	79.1	4	25.4	4	-1E+10	1	-1E+10	1	-1E+10	1	-1E+10	1	-1E+10	1	-1E+10	1
4902551	73	C	08/19/2022	13:07	-132.072	48.893	0	306.90	0	4.8390	0	33.8650	0	26.796	0	304.074	0	78.5	4	25.2	4	-1E+10	1	-1E+10	1	-1E+10	1	-1E+10	1	-1E+10	1	-1E+10	1
4902551	73	C	08/19/2022	13:07	-132.072	48.893	0	307.70	0	4.8380	0	33.8650	0	26.796	0	304.866	0	77.8	4	25.0	4	-1E+10	1	-1E+10	1	-1E+10	1	-1E+10	1	-1E+10	1	-1E+10	1
4902551	73	C	08/19/2022	13:07	-132.072	48.893	0	308.90	0	4.8200	0	33.8720	0	26.804	0	306.054	0	76.8	4	24.7	4	-1E+10	1	-1E+10	1	-1E+10	1	-1E+10	1	-1E+10	1	-1E+10	1
4902551	73	C	08/19/2022	13:07	-132.072	48.893	0	310.30	0	4.7900	0	33.8740	0	26.809	0	307.440	0	75.9	4	24.4	4	-1E+10	1	-1E+10	1	-1E+10	1	-1E+10	1	-1E+10	1	-1E+10	1
4902551	73	C	08/19/2022	13:07	-132.072	48.893	0	311.10	0	4.7840	0	33.8750	0	26.810	0	308.232	0	75.4	4	24.2	4	-1E+10	1	-1E+10	1	-1E+10	1	-1E+10	1	-1E+10	1	-1E+10	1
4902551	73	C	08/19/2022	13:07	-132.072	48.893	0	312.00	0	4.7790	0	33.8760	0	26.812	0	309.123	0	74.8	4	24.0	4	-1E+10	1	-1E+10	1	-1E+10	1	-1E+10	1	-1E+10	1	-1E+10	1
4902551	73	C	08/19/2022	13:07	-132.072	48.893	0	312.80	0	4.7780	0	33.8750	0	26.811	0	309.915	0	74.1	4	23.8	4	-1E+10	1	-1E+10	1	-1E+10	1	-1E+10	1	-1E+10	1	-1E+10	1
4902551	73	C	08/19/2022	13:07	-132.072	48.893	0	313.70	0	4.7720	0	33.8800	0	26.816	0	310.806	0	73.5	4	23.6	4	-1E+10	1	-1E+10	1	-1E+10	1	-1E+10	1	-1E+10	1	-1E+10	1
4902551	73	C	08/19/2022	13:07	-132.072	48.893	0	314.90	0	4.7520	0	33.8830	0	26.820	0	311.994	0	72.5	4	23.3	4	-1E+10	1	-1E+10	1	-1E+10	1	-1E+10	1	-1E+10	1	-1E+10	1
4902551	73	C	08/19/2022	13:07	-132.072	48.893	0	316.30	0	4.7210	0	33.8910	0	26.830	0	313.380	0	71.7	4	23.0	4	-1E+10	1	-1E+10	1	-1E+10	1	-1E+10	1	-1E+10	1	-1E+10	1
4902551	73	C	08/19/2022	13:07	-132.072	48.893	0	317.10	0	4.7100	0	33.8910	0	26.831	0	314.172	0	71.2	4	22.8	4	-1E+10	1	-1E+10	1	-1E+10	1	-1E+10	1	-1E+10	1	-1E+10	1
4902551	73	C	08/19/2022	13:07	-132.072	48.893	0	318.00	0	4.7100	0	33.8910	0	26.831	0	315.063	0	70.8	4	22.7	4	-1E+10	1	-1E+10	1	-1E+10	1	-1E+10	1	-1E+10	1	-1E+10	1
4902551	73	C	08/19/2022	13:07	-132.072	48.893	0	318.80	0	4.7090	0	33.8920	0	26.832	0	315.855	0	70.2	4	22.5	4	-1E+10	1	-1E+10	1	-1E+10	1	-1E+10	1	-1E+10	1	-1E+10	1
4902551	73	C	08/19/2022	13:07	-132.072	48.893	0	319.70	0	4.7140	0	33.8920	0	26.832	0	316.746	0	69.8	4	22.4	4	-1E+10	1	-1E+10	1	-1E+10	1	-1E+10	1	-1E+10	1	-1E+10	1
4902551	73	C	08/19/2022	13:07	-132.072	48.893	0	321.00	0	4.7420	0	33.8980	0	26.833	0	318.033	0	69.2	4	22.2	4	-1E+10	1	-1E+10	1	-1E+10	1	-1E+10	1	-1E+10	1	-1E+10	1
4902551	73	C	08/19/2022	13:07	-132.072	48.893	0	322.30	0	4.7520	0	33.9060	0	26.839	0	319.320	0	68.8	4	22.1	4	-1E+10	1	-1E+10	1	-1E+10	1	-1E+10	1	-1E+10	1	-1E+10	1
4902551	73	C	08/19/2022	13:07	-132.072	48.893	0	323.10	0	4.7510	0	33.9090	0	26.841	0	320.112	0	68.6	4	22.0	4	-1E+10	1	-1E+10	1	-1E+10	1	-1E+10	1	-1E+10	1	-1E+10	1
4902551	73	C	08/19/2022	13:07	-132.072	48.893	0	324.00	0	4.7360	0	33.9110	0	26.844	0	321.003	0	68.3	4	21.9	4	-1E+10	1	-1E+10	1	-1E+10	1	-1E+10	1	-1E+10	1	-1E+10	1
4902551	73	C	08/19/2022	13:07	-132.072	48.893	0	324.90	0	4.7250	0	33.9130	0	26.847	0	321.894	0	68.2	4	21.9	4	-1E+10	1	-1E+10	1	-1E+10	1	-1E+10	1	-1E+10	1	-1E+10	1
4902551	73	C	08/19/2022	13:07	-132.072	48.893	0	325.70	0	4.6980	0	33.9070	0	26.845	0	322.686	0	67.9	4	21.8	4	-1E+10	1	-1E+10	1	-1E+10	1	-1E+10	1	-1E+10	1	-1E+10	1
4902551	73	C	08/19/2022	13:07	-132.072	48.893	0	326.60	0	4.6720	0	33.9090	0	26.850	0	323.577	0	67.7	4	21.7	4	-1E+10	1	-1E+10	1	-1E+10	1	-1E+10	1	-1E+10	1	-1E+10	1
4902551	73	C	08/19/2022	13:07	-132.072	48.893	0	327.90	0	4.6570	0	33.9060	0	26.849	0	324.864	0	67.3	4	21.5	4	-1E+10	1	-1E+10	1	-1E+10	1	-1E+10	1	-1E+10	1	-1E+10	1
4902551	73	C	08/19/2022	13:07	-132.072	48.893	0	329.30	0	4.6480	0	33.9060	0	26.850	0	326.250	0	66.8	4	21.4	4	-1E+10	1	-1E+10	1	-1E+10	1	-1E+10	1	-1E+10	1	-1E+10	1
4902551	73	C	08/19/2022	13:07	-132.072	48.893	0	330.20	0	4.6370	0	33.9110	0	26.855	0	327.141	0	66.5	4	21.3	4	-1E+10	1	-1E+10	1	-1E+10	1	-1E+10	1	-1E+10	1	-1E+10	1
4902551	73	C	08/19/2022	13:07	-132.072	48.893	0	331.10	0	4.6340	0	33.9090	0	26.854	0	328.032	0	66.2	4	21.2	4	-1E+10	1	-1E+10	1	-1E+10	1	-1E+10	1	-1E+10	1	-1E+10	1
4902551	73	C	08/19/2022	13:07	-132.072	48.893	0	332.00	0	4.6320	0	33.9100	0	26.855	0	328.923	0	66.0	4	21.1	4	-1E+10	1	-1E+10	1	-1E+10	1	-1E+10	1	-1E+10	1	-1E+10	1
4902551	73	C	08/19/2022	13:07	-132.072	48.893	0	332.90	0	4.6310	0	33.9100	0	26.855	0	329.814	0	65.7	4	21.0	4	-1E+10	1	-1E+10	1	-1E+10	1	-1E+10	1	-1E+10	1	-1E+10	1
4902551	73	C	08/19/2022	13:07	-132.072	48.893	0	333.80	0	4.6320	0	33.9090	0	26.854	0	330.705	0	65.4	4	20.9	4	-1E+10	1	-1E+10	1	-1E+10	1	-1E+10	1	-1E+10	1	-1E+10	1
4902551	73	C	08/19/2022	13:07	-132.072	48.893	0	334.70	0	4.6280	0	33.9110	0	26.856	0	331.596	0	65.0	4	20.8	4	-1E+10	1	-1E+10	1	-1E+10	1	-1E+10	1	-1E+10	1	-1E+10	1
4902551	73	C	08/19/2022	13:07	-132.072	48.893	0	335.70	0	4.6240	0	33.9130	0	26.858	0	332.586	0	64.7	4	20.7	4	-1E+10	1	-1E+10	1	-1E+10	1	-1E+10	1	-1E+10	1	-1E+10	1
4902551	73	C	08/19/2022	13:07	-132.072	48.893	0	336.60	0	4.6110	0	33.9180	0	26.864	0	333.477	0	64.3	4	20.6	4	-1E+10	1	-1E+10	1	-1E+10	1	-1E+10	1	-1E+10	1	-1E+10	1
4902551	73	C	08/19/2022	13:07	-132.072	48.893	0	337.50	0	4.6020	0	33.9150	0	26.862	0	334.367	0	63.9	4	20.4	4	-1E+10	1	-1E+10	1	-1E+10	1	-1E+10	1	-1E+10	1	-1E+10	1
4902551	73	C	08/19/2022	13:07	-132.072	48.893	0	338.90	0	4.5940	0	33.9170	0	26.865	0	335.753	0	63.4	4	20.3	4	-1E+10	1	-1E+10	1	-1E+10	1	-1E+10	1	-1E+10	1	-1E+10	1
4902551	73	C	08/19/2022	13:07	-132.072	48.893	0	340.30	0	4.5830	0	33.9190	0	26.868	0	337.139	0	62.9	4	20.1	4	-1E+10	1	-1E+10	1	-1E+10	1	-1E+10	1	-1E+10	1	-1E+10	1
4902551	73	C	08/19/2022	13:07	-132.072	48.893	0	341.30	0	4.5790	0	33.9200	0	26.869	0	338.129	0	62.6	4	20.0	4	-1E+10	1	-1E+10	1	-1E+10	1	-1E+10	1	-1E+10	1	-1E+10	1
4902551	73	C	08/19/2022	13:07	-132.072	48.893	0	342.20	0	4.5760	0	33.9200	0	26.869	0	339.020	0	62.2	4	19.9	4	-1E+10	1	-1E+10	1	-1E+10	1	-1E+10	1	-1E+10	1	-1E+10	1
4902551	73	C	08/19/2022	13:07	-132.072	48.893	0	343.10	0	4.5730	0	33.9220	0	26.871	0	339.911	0	61.8	4	19.8	4	-1E+10	1	-1E+10	1	-1E+10	1	-1E+10	1	-1E+10	1	-1E+10	1
4902551	73	C	08/19/2022	13:07	-132.072	48.893	0	344.10	0	4.5660	0	33.9240	0	26.873	0	340.901	0	61.5	4	19.6	4	-1E+10	1	-1E+10	1	-1E+10	1	-1E+10	1	-1E+10	1	-1E+10	1
4902551	73	C	08/19/2022	13:07	-132.072	48.893	0	345.00	0	4.5620	0	33.9250	0	26.875	0	341.792	0	61.2	4	19.5	4	-1E+10	1	-1E+10	1	-1E+10	1	-1E+10	1	-1E+10	1	-1E+10	1
4902551	73	C	08/19/2022	13:07	-132.072	48.893	0	346.00	0	4.5580	0	33.9250	0	26.875	0	342.782	0	60.8	4	19.4	4	-1E+10	1	-1E+10	1	-1E+10	1	-1E+10	1	-1E+10	1	-1E+10	1
4902551	73	C	08/19/2022	13:07	-132.072	48.893	0	347.00	0	4.5560	0	33.9260	0	26.876	0	343.771	0	60.4	4	19.3	4	-1E+10	1	-1E+10	1	-1E+10	1	-1E+10	1	-1E+10	1	-1E+10	1
4902551	73	C	08/19/2022	13:07	-132.072	48.893	0	348.00	0	4.5510	0	33.9290	0	26.879	0	344.761	0	60.0	4	19.2	4	-1E+10	1	-1E+10	1	-1E+10	1	-1E+10	1	-1E+10	1	-1E+10	1
4902551	73	C	08/19/2022	13:07	-132.072	48.893	0	348.90	0	4.5450	0	33.9300	0	26.880	0	345.652	0	59.7	4	19.0	4	-1E+10	1	-1E+10	1	-1E+10	1	-1E+10	1	-1E+10	1	-1E+10	1
4902551	73	C	08/19/2022	13:07	-132.072	48.893	0	349.90	0	4.5420	0	33.9310	0	26.882	0	346.642	0	59.3	4	18.9	4	-1E+10	1	-1E+10	1	-1E+10	1	-1E+10	1	-1E+10	1	-1E+10	1
4902551	73	C	08/19/2022	13:07	-132.072	48.893	0	352.80	0	4.5200	0	33.9380	0	26.890	0	349.513	0	58.5	4	18.7	4	-1E+10	1	-1E+10	1	-1E+10	1	-1E+10	1	-1E+10	1	-1E+10	1
4902551	73	C	08/19/2022	13:07	-132.072	48.893	0	357.80	0	4.4980	0	33.9460	0	26.898	0	354.462	0	57.4	4	18.3	4	-1E+10	1	-1E+10	1	-1E+10	1	-1E+10	1	-1E+10	1	-1E+10	1
4902551	73	C	08/19/2022	13:07	-132.072	48.893	0	362.90	0	4.4900	0	33.9510	0	26.903	0	359.510	0	56.4	4	18.0	4	-1E+10	1	-1E+10	1	-1E+10	1	-1E+10	1	-1E+10	1	-1E+10	1
4902551	73	C	08/19/2022	13:07	-132.072	48.893	0	368.00	0	4.4850	0	33.9550	0	26.907	0	364.558	0	55.4	4	17.7	4	-1E+10	1	-1E+10	1	-1E+10	1	-1E+10	1	-1E+10	1	-1E+10	1
4902551	73	C	08/19/2022	13:07	-132.072	48.893	0	372.80	0	4.4830	0	33.9600	0	26.911	0	369.308	0	54.0	4	17.2	4	-1E+10	1	-1E+10	1	-1E+10	1	-1E+10	1	-1E+10	1	-1E+10	1
4902551	73	C	08/19/2022	13:07	-132.072	48.893	0	377.70	0	4.4980	0	33.9710	0	26.918	0	374.158	0	52.4	4	16.7	4	-1E+10	1	-1E+10	1	-1E+10	1	-1E+10	1	-1E+10	1	-1E+10	1
4902551	73	C	08/19/2022	13:07	-132.072	48.893	0	382.60	0	4.5020	0	33.9790	0	26.924	0	379.008	0	51.0	4	16.3	4	-1E+10	1	-1E+10	1	-1E+10	1	-1E+10	1	-1E+10	1	-1E+10	1
4902551	73	C	08/19/2022	13:07	-132.072	48.893	0	387.60	0	4.5080	0	33.9860	0	26.929	0	383.956	0	49.7	4	15.9	4	-1E+10	1	-1E+10	1	-1E+10	1	-1E+10	1	-1E+10	1	-1E+10	1
4902551	73	C	08/19/2022	13:07	-132.072	48.893	0	392.70	0	4.4930	0	33.9930	0	26.936	0	389.003	0	48.2	4	15.4	4	-1E+10	1	-1E+10	1	-1E+10	1	-1E+10	1	-1E+10	1	-1E+10	1
4902551	73	C	08/19/2022	13:07	-132.072	48.893	0	398.00	0	4.4920	0	34.0010	0	26.943	0	394.248	0	46.7	4	14.9	4	-1E+10	1	-1E+10	1	-1E+10	1	-1E+10	1	-1E+10	1	-1E+10	1
4902551	73	C	08/19/2022	13:07	-132.072	48.893	0	402.80	0	4.4830	0	34.0090	0	26.950	0	398.999	0	45.9	4	14.6	4	-1E+10	1	-1E+10	1	-1E+10	1	-1E+10	1	-1E+10	1	-1E+10	1
4902551	73	C	08/19/2022	13:07	-132.072	48.893	0	407.70	0	4.4590	0	34.0110	0	26.955	0	403.848	0	45.2	4	14.4	4	-1E+10	1	-1E+10	1	-1E+10	1	-1E+10	1	-1E+10	1	-1E+10	1
4902551	73	C	08/19/2022	13:07	-132.072	48.893	0	412.80	0	4.4550	0	34.0150	0	26.958	0	408.894	0	44.5	4	14.2	4	-1E+10	1	-1E+10	1	-1E+10	1	-1E+10	1	-1E+10	1	-1E+10	1
4902551	73	C	08/19/2022	13:07	-132.072	48.893	0	417.70	0	4.4310	0	34.0190	0	26.964	0	413.743	0	44.1	4	14.1	4	-1E+10	1	-1E+10	1	-1E+10	1	-1E+10	1	-1E+10	1	-1E+10	1
4902551	73	C	08/19/2022	13:07	-132.072	48.893	0	422.80	0	4.4010	0	34.0190	0	26.967	0	418.790	0	43.5	4	13.8	4	-1E+10	1	-1E+10	1	-1E+10	1	-1E+10	1	-1E+10	1	-1E+10	1
4902551	73	C	08/19/2022	13:07	-132.072	48.893	0	428.10	0	4.4050	0	34.0220	0	26.969	0	424.034	0	42.7	4	13.6	4	-1E+10	1	-1E+10	1	-1E+10	1	-1E+10	1	-1E+10	1	-1E+10	1
4902551	73	C	08/19/2022	13:07	-132.072	48.893	0	433.00	0	4.3550	0	34.0260	0	26.978	0	428.882	0	42.1	4	13.4	4	-1E+10	1	-1E+10	1	-1E+10	1	-1E+10	1	-1E+10	1	-1E+10	1
4902551	73	C	08/19/2022	13:07	-132.072	48.893	0	438.00	0	4.3440	0	34.0290	0	26.981	0	433.830	0	41.5	4	13.2	4	-1E+10	1	-1E+10	1	-1E+10	1	-1E+10	1	-1E+10	1	-1E+10	1
4902551	73	C	08/19/2022	13:07	-132.072	48.893	0	443.30	0	4.3270	0	34.0310	0	26.985	0	439.073	0	40.9	4	13.0	4	-1E+10	1	-1E+10	1	-1E+10	1	-1E+10	1	-1E+10	1	-1E+10	1
4902551	73	C	08/19/2022	13:07	-132.072	48.893	0	448.00	0	4.3200	0	34.0330	0	26.987	0	443.724	0	40.2	4	12.8	4	-1E+10	1	-1E+10	1	-1E+10	1	-1E+10	1	-1E+10	1	-1E+10	1
4902551	73	C	08/19/2022	13:07	-132.072	48.893	0	452.80	0	4.3160	0	34.0360	0	26.990	0	448.473	0	39.5	4	12.6	4	-1E+10	1	-1E+10	1	-1E+10	1	-1E+10	1	-1E+10	1	-1E+10	1
4902551	73	C	08/19/2022	13:07	-132.072	48.893	0	457.60	0	4.3170	0	34.0400	0	26.993	0	453.222	0	38.8	4	12.3	4	-1E+10	1	-1E+10	1	-1E+10	1	-1E+10	1	-1E+10	1	-1E+10	1
4902551	73	C	08/19/2022	13:07	-132.072	48.893	0	462.40	0	4.3160	0	34.0450	0	26.997	0	457.970	0	38.2	4	12.1	4	-1E+10	1	-1E+10	1	-1E+10	1	-1E+10	1	-1E+10	1	-1E+10	1
4902551	73	C	08/19/2022	13:07	-132.072	48.893	0	467.90	0	4.3190	0	34.0470	0	26.999	0	463.411	0	37.4	4	11.9	4	-1E+10	1	-1E+10	1	-1E+10	1	-1E+10	1	-1E+10	1	-1E+10	1
4902551	73	C	08/19/2022	13:07	-132.072	48.893	0	473.30	0	4.3060	0	34.0520	0	27.004	0	468.754	0	36.5	4	11.6	4	-1E+10	1	-1E+10	1	-1E+10	1	-1E+10	1	-1E+10	1	-1E+10	1
4902551	73	C	08/19/2022	13:07	-132.072	48.893	0	478.20	0	4.2950	0	34.0560	0	27.008	0	473.601	0	35.6	4	11.3	4	-1E+10	1	-1E+10	1	-1E+10	1	-1E+10	1	-1E+10	1	-1E+10	1
4902551	73	C	08/19/2022	13:07	-132.072	48.893	0	483.10	0	4.2940	0	34.0620	0	27.013	0	478.448	0	34.8	4	11.1	4	-1E+10	1	-1E+10	1	-1E+10	1	-1E+10	1	-1E+10	1	-1E+10	1
4902551	73	C	08/19/2022	13:07	-132.072	48.893	0	488.10	0	4.2890	0	34.0660	0	27.017	0	483.394	0	34.2	4	10.9	4	-1E+10	1	-1E+10	1	-1E+10	1	-1E+10	1	-1E+10	1	-1E+10	1
4902551	73	C	08/19/2022	13:07	-132.072	48.893	0	493.00	0	4.2790	0	34.0680	0	27.020	0	488.241	0	33.5	4	10.6	4	-1E+10	1	-1E+10	1	-1E+10	1	-1E+10	1	-1E+10	1	-1E+10	1
4902551	73	C	08/19/2022	13:07	-132.072	48.893	0	497.80	0	4.2630	0	34.0740	0	27.026	0	492.989	0	33.0	4	10.5	4	-1E+10	1	-1E+10	1	-1E+10	1	-1E+10	1	-1E+10	1	-1E+10	1
4902551	73	C	08/19/2022	13:07	-132.072	48.893	0	502.60	0	4.2570	0	34.0770	0	27.029	0	497.737	0	32.5	4	10.3	4	-1E+10	1	-1E+10	1	-1E+10	1	-1E+10	1	-1E+10	1	-1E+10	1
4902551	73	C	08/19/2022	13:07	-132.072	48.893	0	508.00	0	4.2470	0	34.0830	0	27.035	0	503.078	0	32.3	4	10.3	4	-1E+10	1	-1E+10	1	-1E+10	1	-1E+10	1	-1E+10	1	-1E+10	1
4902551	73	C	08/19/2022	13:07	-132.072	48.893	0	513.30	0	4.1870	0	34.0830	0	27.041	0	508.320	0	32.2	4	10.2	4	-1E+10	1	-1E+10	1	-1E+10	1	-1E+10	1	-1E+10	1	-1E+10	1
4902551	73	C	08/19/2022	13:07	-132.072	48.893	0	518.10	0	4.1520	0	34.0820	0	27.044	0	513.068	0	31.7	4	10.0	4	-1E+10	1	-1E+10	1	-1E+10	1	-1E+10	1	-1E+10	1	-1E+10	1
4902551	73	C	08/19/2022	13:07	-132.072	48.893	0	522.80	0	4.1420	0	34.0850	0	27.048	0	517.716	0	31.2	4	9.9	4	-1E+10	1	-1E+10	1	-1E+10	1	-1E+10	1	-1E+10	1	-1E+10	1
4902551	73	C	08/19/2022	13:07	-132.072	48.893	0	527.50	0	4.1340	0	34.0870	0	27.050	0	522.365	0	30.6	4	9.7	4	-1E+10	1	-1E+10	1	-1E+10	1	-1E+10	1	-1E+10	1	-1E+10	1
4902551	73	C	08/19/2022	13:07	-132.072	48.893	0	532.80	0	4.1240	0	34.0900	0	27.054	0	527.607	0	29.8	4	9.4	4	-1E+10	1	-1E+10	1	-1E+10	1	-1E+10	1	-1E+10	1	-1E+10	1
4902551	73	C	08/19/2022	13:07	-132.072	48.893	0	538.00	0	4.1090	0	34.0960	0	27.060	0	532.749	0	29.0	4	9.2	4	-1E+10	1	-1E+10	1	-1E+10	1	-1E+10	1	-1E+10	1	-1E+10	1
4902551	73	C	08/19/2022	13:07	-132.072	48.893	0	543.10	0	4.0960	0	34.1000	0	27.064	0	537.793	0	28.1	4	8.9	4	-1E+10	1	-1E+10	1	-1E+10	1	-1E+10	1	-1E+10	1	-1E+10	1
4902551	73	C	08/19/2022	13:07	-132.072	48.893	0	548.10	0	4.0790	0	34.1070	0	27.072	0	542.737	0	27.3	4	8.6	4	-1E+10	1	-1E+10	1	-1E+10	1	-1E+10	1	-1E+10	1	-1E+10	1
4902551	73	C	08/19/2022	13:07	-132.072	48.893	0	553.10	0	4.0720	0	34.1120	0	27.077	0	547.682	0	26.7	4	8.4	4	-1E+10	1	-1E+10	1	-1E+10	1	-1E+10	1	-1E+10	1	-1E+10	1
4902551	73	C	08/19/2022	13:07	-132.072	48.893	0	558.10	0	4.0600	0	34.1170	0	27.082	0	552.626	0	26.2	4	8.3	4	-1E+10	1	-1E+10	1	-1E+10	1	-1E+10	1	-1E+10	1	-1E+10	1
4902551	73	C	08/19/2022	13:07	-132.072	48.893	0	563.10	0	4.0530	0	34.1200	0	27.085	0	557.571	0	25.9	4	8.2	4	-1E+10	1	-1E+10	1	-1E+10	1	-1E+10	1	-1E+10	1	-1E+10	1
4902551	73	C	08/19/2022	13:07	-132.072	48.893	0	568.40	0	4.0410	0	34.1230	0	27.089	0	562.811	0	25.4	4	8.0	4	-1E+10	1	-1E+10	1	-1E+10	1	-1E+10	1	-1E+10	1	-1E+10	1
4902551	73	C	08/19/2022	13:07	-132.072	48.893	0	573.20	0	4.0210	0	34.1270	0	27.094	0	567.558	0	24.8	4	7.8	4	-1E+10	1	-1E+10	1	-1E+10	1	-1E+10	1	-1E+10	1	-1E+10	1
4902551	73	C	08/19/2022	13:07	-132.072	48.893	0	578.20	0	4.0080	0	34.1330	0	27.100	0	572.502	0	24.1	4	7.6	4	-1E+10	1	-1E+10	1	-1E+10	1	-1E+10	1	-1E+10	1	-1E+10	1
4902551	73	C	08/19/2022	13:07	-132.072	48.893	0	583.10	0	3.9890	0	34.1390	0	27.107	0	577.346	0	23.7	4	7.5	4	-1E+10	1	-1E+10	1	-1E+10	1	-1E+10	1	-1E+10	1	-1E+10	1
4902551	73	C	08/19/2022	13:07	-132.072	48.893	0	588.10	0	3.9720	0	34.1440	0	27.112	0	582.290	0	23.2	4	7.3	4	-1E+10	1	-1E+10	1	-1E+10	1	-1E+10	1	-1E+10	1	-1E+10	1
4902551	73	C	08/19/2022	13:07	-132.072	48.893	0	592.90	0	3.9510	0	34.1500	0	27.119	0	587.036	0	22.8	4	7.2	4	-1E+10	1	-1E+10	1	-1E+10	1	-1E+10	1	-1E+10	1	-1E+10	1
4902551	73	C	08/19/2022	13:07	-132.072	48.893	0	597.80	0	3.9390	0	34.1530	0	27.123	0	591.881	0	22.3	4	7.0	4	-1E+10	1	-1E+10	1	-1E+10	1	-1E+10	1	-1E+10	1	-1E+10	1
4902551	73	C	08/19/2022	13:07	-132.072	48.893	0	602.70	0	3.9140	0	34.1600	0	27.131	0	596.725	0	21.9	4	6.9	4	-1E+10	1	-1E+10	1	-1E+10	1	-1E+10	1	-1E+10	1	-1E+10	1
4902551	73	C	08/19/2022	13:07	-132.072	48.893	0	607.70	0	3.8880	0	34.1660	0	27.139	0	601.668	0	21.2	4	6.7	4	-1E+10	1	-1E+10	1	-1E+10	1	-1E+10	1	-1E+10	1	-1E+10	1
4902551	73	C	08/19/2022	13:07	-132.072	48.893	0	612.70	0	3.8740	0	34.1710	0	27.144	0	606.611	0	20.5	4	6.4	4	-1E+10	1	-1E+10	1	-1E+10	1	-1E+10	1	-1E+10	1	-1E+10	1
4902551	73	C	08/19/2022	13:07	-132.072	48.893	0	617.70	0	3.8640	0	34.1760	0	27.149	0	611.554	0	19.7	4	6.2	4	-1E+10	1	-1E+10	1	-1E+10	1	-1E+10	1	-1E+10	1	-1E+10	1
4902551	73	C	08/19/2022	13:07	-132.072	48.893	0	622.90	0	3.8590	0	34.1840	0	27.156	0	616.695	0	19.2	4	6.0	4	-1E+10	1	-1E+10	1	-1E+10	1	-1E+10	1	-1E+10	1	-1E+10	1
4902551	73	C	08/19/2022	13:07	-132.072	48.893	0	627.80	0	3.8330	0	34.1900	0	27.163	0	621.539	0	19.1	4	6.0	4	-1E+10	1	-1E+10	1	-1E+10	1	-1E+10	1	-1E+10	1	-1E+10	1
4902551	73	C	08/19/2022	13:07	-132.072	48.893	0	632.70	0	3.8260	0	34.1910	0	27.165	0	626.382	0	19.1	4	6.0	4	-1E+10	1	-1E+10	1	-1E+10	1	-1E+10	1	-1E+10	1	-1E+10	1
4902551	73	C	08/19/2022	13:07	-132.072	48.893	0	638.00	0	3.8060	0	34.1960	0	27.171	0	631.622	0	19.2	4	6.0	4	-1E+10	1	-1E+10	1	-1E+10	1	-1E+10	1	-1E+10	1	-1E+10	1
4902551	73	C	08/19/2022	13:07	-132.072	48.893	0	642.70	0	3.7910	0	34.1970	0	27.173	0	636.267	0	19.3	4	6.1	4	-1E+10	1	-1E+10	1	-1E+10	1	-1E+10	1	-1E+10	1	-1E+10	1
4902551	73	C	08/19/2022	13:07	-132.072	48.893	0	647.60	0	3.7830	0	34.1970	0	27.174	0	641.111	0	19.1	4	6.0	4	-1E+10	1	-1E+10	1	-1E+10	1	-1E+10	1	-1E+10	1	-1E+10	1
4902551	73	C	08/19/2022	13:07	-132.072	48.893	0	653.00	0	3.7680	0	34.2010	0	27.179	0	646.448	0	19.0	4	6.0	4	-1E+10	1	-1E+10	1	-1E+10	1	-1E+10	1	-1E+10	1	-1E+10	1
4902551	73	C	08/19/2022	13:07	-132.072	48.893	0	657.90	0	3.7570	0	34.2020	0	27.181	0	651.291	0	18.9	4	5.9	4	-1E+10	1	-1E+10	1	-1E+10	1	-1E+10	1	-1E+10	1	-1E+10	1
4902551	73	C	08/19/2022	13:07	-132.072	48.893	0	662.80	0	3.7570	0	34.2040	0	27.182	0	656.135	0	18.8	4	5.9	4	-1E+10	1	-1E+10	1	-1E+10	1	-1E+10	1	-1E+10	1	-1E+10	1
4902551	73	C	08/19/2022	13:07	-132.072	48.893	0	668.00	0	3.7280	0	34.2080	0	27.188	0	661.274	0	18.9	4	5.9	4	-1E+10	1	-1E+10	1	-1E+10	1	-1E+10	1	-1E+10	1	-1E+10	1
4902551	73	C	08/19/2022	13:07	-132.072	48.893	0	672.80	0	3.7200	0	34.2090	0	27.190	0	666.018	0	18.8	4	5.9	4	-1E+10	1	-1E+10	1	-1E+10	1	-1E+10	1	-1E+10	1	-1E+10	1
4902551	73	C	08/19/2022	13:07	-132.072	48.893	0	677.80	0	3.7170	0	34.2100	0	27.191	0	670.960	0	18.7	4	5.9	4	-1E+10	1	-1E+10	1	-1E+10	1	-1E+10	1	-1E+10	1	-1E+10	1
4902551	73	C	08/19/2022	13:07	-132.072	48.893	0	683.00	0	3.7150	0	34.2110	0	27.192	0	676.099	0	18.7	4	5.9	4	-1E+10	1	-1E+10	1	-1E+10	1	-1E+10	1	-1E+10	1	-1E+10	1
4902551	73	C	08/19/2022	13:07	-132.072	48.893	0	687.90	0	3.7100	0	34.2110	0	27.193	0	680.941	0	18.7	4	5.9	4	-1E+10	1	-1E+10	1	-1E+10	1	-1E+10	1	-1E+10	1	-1E+10	1
4902551	73	C	08/19/2022	13:07	-132.072	48.893	0	692.80	0	3.6990	0	34.2130	0	27.195	0	685.783	0	18.6	4	5.8	4	-1E+10	1	-1E+10	1	-1E+10	1	-1E+10	1	-1E+10	1	-1E+10	1
4902551	73	C	08/19/2022	13:07	-132.072	48.893	0	697.80	0	3.6910	0	34.2140	0	27.197	0	690.725	0	18.5	4	5.8	4	-1E+10	1	-1E+10	1	-1E+10	1	-1E+10	1	-1E+10	1	-1E+10	1
4902551	73	C	08/19/2022	13:07	-132.072	48.893	0	702.90	0	3.6850	0	34.2150	0	27.198	0	695.764	0	18.4	4	5.8	4	-1E+10	1	-1E+10	1	-1E+10	1	-1E+10	1	-1E+10	1	-1E+10	1
4902551	73	C	08/19/2022	13:07	-132.072	48.893	0	708.10	0	3.6750	0	34.2180	0	27.202	0	700.903	0	18.2	4	5.7	4	-1E+10	1	-1E+10	1	-1E+10	1	-1E+10	1	-1E+10	1	-1E+10	1
4902551	73	C	08/19/2022	13:07	-132.072	48.893	0	712.80	0	3.6670	0	34.2200	0	27.204	0	705.547	0	18.0	4	5.6	4	-1E+10	1	-1E+10	1	-1E+10	1	-1E+10	1	-1E+10	1	-1E+10	1
4902551	73	C	08/19/2022	13:07	-132.072	48.893	0	717.60	0	3.6570	0	34.2230	0	27.208	0	710.290	0	17.8	4	5.6	4	-1E+10	1	-1E+10	1	-1E+10	1	-1E+10	1	-1E+10	1	-1E+10	1
4902551	73	C	08/19/2022	13:07	-132.072	48.893	0	722.90	0	3.6500	0	34.2240	0	27.209	0	715.527	0	17.6	4	5.5	4	-1E+10	1	-1E+10	1	-1E+10	1	-1E+10	1	-1E+10	1	-1E+10	1
4902551	73	C	08/19/2022	13:07	-132.072	48.893	0	728.40	0	3.6400	0	34.2280	0	27.213	0	720.961	0	17.4	4	5.4	4	-1E+10	1	-1E+10	1	-1E+10	1	-1E+10	1	-1E+10	1	-1E+10	1
4902551	73	C	08/19/2022	13:07	-132.072	48.893	0	733.30	0	3.6370	0	34.2290	0	27.215	0	725.803	0	17.2	4	5.4	4	-1E+10	1	-1E+10	1	-1E+10	1	-1E+10	1	-1E+10	1	-1E+10	1
4902551	73	C	08/19/2022	13:07	-132.072	48.893	0	738.20	0	3.6300	0	34.2310	0	27.217	0	730.644	0	17.1	4	5.3	4	-1E+10	1	-1E+10	1	-1E+10	1	-1E+10	1	-1E+10	1	-1E+10	1
4902551	73	C	08/19/2022	13:07	-132.072	48.893	0	743.10	0	3.6210	0	34.2340	0	27.220	0	735.485	0	16.9	4	5.3	4	-1E+10	1	-1E+10	1	-1E+10	1	-1E+10	1	-1E+10	1	-1E+10	1
4902551	73	C	08/19/2022	13:07	-132.072	48.893	0	748.10	0	3.6060	0	34.2360	0	27.223	0	740.425	0	16.7	4	5.2	4	-1E+10	1	-1E+10	1	-1E+10	1	-1E+10	1	-1E+10	1	-1E+10	1
4902551	73	C	08/19/2022	13:07	-132.072	48.893	0	753.10	0	3.6010	0	34.2380	0	27.225	0	745.365	0	16.4	4	5.1	4	-1E+10	1	-1E+10	1	-1E+10	1	-1E+10	1	-1E+10	1	-1E+10	1
4902551	73	C	08/19/2022	13:07	-132.072	48.893	0	758.10	0	3.5970	0	34.2400	0	27.227	0	750.305	0	16.0	4	5.0	4	-1E+10	1	-1E+10	1	-1E+10	1	-1E+10	1	-1E+10	1	-1E+10	1
4902551	73	C	08/19/2022	13:07	-132.072	48.893	0	763.20	0	3.5890	0	34.2430	0	27.231	0	755.343	0	15.6	4	4.9	4	-1E+10	1	-1E+10	1	-1E+10	1	-1E+10	1	-1E+10	1	-1E+10	1
4902551	73	C	08/19/2022	13:07	-132.072	48.893	0	768.20	0	3.5960	0	34.2470	0	27.233	0	760.283	0	15.2	4	4.7	4	-1E+10	1	-1E+10	1	-1E+10	1	-1E+10	1	-1E+10	1	-1E+10	1
4902551	73	C	08/19/2022	13:07	-132.072	48.893	0	773.20	0	3.5790	0	34.2550	0	27.241	0	765.222	0	15.3	4	4.8	4	-1E+10	1	-1E+10	1	-1E+10	1	-1E+10	1	-1E+10	1	-1E+10	1
4902551	73	C	08/19/2022	13:07	-132.072	48.893	0	778.10	0	3.5560	0	34.2550	0	27.243	0	770.062	0	15.2	4	4.7	4	-1E+10	1	-1E+10	1	-1E+10	1	-1E+10	1	-1E+10	1	-1E+10	1
4902551	73	C	08/19/2022	13:07	-132.072	48.893	0	783.00	0	3.5450	0	34.2570	0	27.246	0	774.903	0	15.1	4	4.7	4	-1E+10	1	-1E+10	1	-1E+10	1	-1E+10	1	-1E+10	1	-1E+10	1
4902551	73	C	08/19/2022	13:07	-132.072	48.893	0	787.90	0	3.5320	0	34.2600	0	27.250	0	779.743	0	14.9	4	4.6	4	-1E+10	1	-1E+10	1	-1E+10	1	-1E+10	1	-1E+10	1	-1E+10	1
4902551	73	C	08/19/2022	13:07	-132.072	48.893	0	792.80	0	3.5190	0	34.2640	0	27.254	0	784.583	0	14.7	4	4.6	4	-1E+10	1	-1E+10	1	-1E+10	1	-1E+10	1	-1E+10	1	-1E+10	1
4902551	73	C	08/19/2022	13:07	-132.072	48.893	0	797.70	0	3.5040	0	34.2670	0	27.258	0	789.423	0	14.5	4	4.5	4	-1E+10	1	-1E+10	1	-1E+10	1	-1E+10	1	-1E+10	1	-1E+10	1
4902551	73	C	08/19/2022	13:07	-132.072	48.893	0	803.00	0	3.4920	0	34.2710	0	27.262	0	794.658	0	14.3	4	4.5	4	-1E+10	1	-1E+10	1	-1E+10	1	-1E+10	1	-1E+10	1	-1E+10	1
4902551	73	C	08/19/2022	13:07	-132.072	48.893	0	808.30	0	3.4800	0	34.2740	0	27.266	0	799.892	0	14.2	4	4.4	4	-1E+10	1	-1E+10	1	-1E+10	1	-1E+10	1	-1E+10	1	-1E+10	1
4902551	73	C	08/19/2022	13:07	-132.072	48.893	0	813.10	0	3.4640	0	34.2780	0	27.271	0	804.633	0	14.0	4	4.4	4	-1E+10	1	-1E+10	1	-1E+10	1	-1E+10	1	-1E+10	1	-1E+10	1
4902551	73	C	08/19/2022	13:07	-132.072	48.893	0	817.70	0	3.4500	0	34.2810	0	27.275	0	809.176	0	13.9	4	4.3	4	-1E+10	1	-1E+10	1	-1E+10	1	-1E+10	1	-1E+10	1	-1E+10	1
4902551	73	C	08/19/2022	13:07	-132.072	48.893	0	822.70	0	3.4340	0	34.2840	0	27.279	0	814.115	0	13.7	4	4.3	4	-1E+10	1	-1E+10	1	-1E+10	1	-1E+10	1	-1E+10	1	-1E+10	1
4902551	73	C	08/19/2022	13:07	-132.072	48.893	0	828.10	0	3.4240	0	34.2870	0	27.282	0	819.448	0	13.5	4	4.2	4	-1E+10	1	-1E+10	1	-1E+10	1	-1E+10	1	-1E+10	1	-1E+10	1
4902551	73	C	08/19/2022	13:07	-132.072	48.893	0	832.90	0	3.4160	0	34.2910	0	27.286	0	824.188	0	13.3	4	4.2	4	-1E+10	1	-1E+10	1	-1E+10	1	-1E+10	1	-1E+10	1	-1E+10	1
4902551	73	C	08/19/2022	13:07	-132.072	48.893	0	837.60	0	3.4130	0	34.2940	0	27.289	0	828.830	0	13.2	4	4.1	4	-1E+10	1	-1E+10	1	-1E+10	1	-1E+10	1	-1E+10	1	-1E+10	1
4902551	73	C	08/19/2022	13:07	-132.072	48.893	0	842.70	0	3.4050	0	34.2960	0	27.291	0	833.866	0	13.1	4	4.1	4	-1E+10	1	-1E+10	1	-1E+10	1	-1E+10	1	-1E+10	1	-1E+10	1
4902551	73	C	08/19/2022	13:07	-132.072	48.893	0	847.70	0	3.4070	0	34.2970	0	27.292	0	838.804	0	13.0	4	4.0	4	-1E+10	1	-1E+10	1	-1E+10	1	-1E+10	1	-1E+10	1	-1E+10	1
4902551	73	C	08/19/2022	13:07	-132.072	48.893	0	852.80	0	3.3980	0	34.3010	0	27.296	0	843.840	0	13.0	4	4.0	4	-1E+10	1	-1E+10	1	-1E+10	1	-1E+10	1	-1E+10	1	-1E+10	1
4902551	73	C	08/19/2022	13:07	-132.072	48.893	0	857.90	0	3.3840	0	34.3020	0	27.298	0	848.876	0	13.0	4	4.0	4	-1E+10	1	-1E+10	1	-1E+10	1	-1E+10	1	-1E+10	1	-1E+10	1
4902551	73	C	08/19/2022	13:07	-132.072	48.893	0	862.90	0	3.3710	0	34.3050	0	27.301	0	853.813	0	12.9	4	4.0	4	-1E+10	1	-1E+10	1	-1E+10	1	-1E+10	1	-1E+10	1	-1E+10	1
4902551	73	C	08/19/2022	13:07	-132.072	48.893	0	867.90	0	3.3630	0	34.3070	0	27.304	0	858.750	0	12.8	4	4.0	4	-1E+10	1	-1E+10	1	-1E+10	1	-1E+10	1	-1E+10	1	-1E+10	1
4902551	73	C	08/19/2022	13:07	-132.072	48.893	0	873.00	0	3.3540	0	34.3100	0	27.307	0	863.786	0	12.8	4	4.0	4	-1E+10	1	-1E+10	1	-1E+10	1	-1E+10	1	-1E+10	1	-1E+10	1
4902551	73	C	08/19/2022	13:07	-132.072	48.893	0	878.00	0	3.3470	0	34.3110	0	27.309	0	868.723	0	12.7	4	4.0	4	-1E+10	1	-1E+10	1	-1E+10	1	-1E+10	1	-1E+10	1	-1E+10	1
4902551	73	C	08/19/2022	13:07	-132.072	48.893	0	882.80	0	3.3430	0	34.3130	0	27.311	0	873.462	0	12.7	4	4.0	4	-1E+10	1	-1E+10	1	-1E+10	1	-1E+10	1	-1E+10	1	-1E+10	1
4902551	73	C	08/19/2022	13:07	-132.072	48.893	0	887.70	0	3.3310	0	34.3130	0	27.312	0	878.300	0	12.7	4	3.9	4	-1E+10	1	-1E+10	1	-1E+10	1	-1E+10	1	-1E+10	1	-1E+10	1
4902551	73	C	08/19/2022	13:07	-132.072	48.893	0	893.10	0	3.3270	0	34.3150	0	27.314	0	883.631	0	12.6	4	3.9	4	-1E+10	1	-1E+10	1	-1E+10	1	-1E+10	1	-1E+10	1	-1E+10	1
4902551	73	C	08/19/2022	13:07	-132.072	48.893	0	898.10	0	3.3240	0	34.3160	0	27.315	0	888.568	0	12.6	4	3.9	4	-1E+10	1	-1E+10	1	-1E+10	1	-1E+10	1	-1E+10	1	-1E+10	1
4902551	73	C	08/19/2022	13:07	-132.072	48.893	0	902.80	0	3.3220	0	34.3170	0	27.316	0	893.208	0	12.4	4	3.9	4	-1E+10	1	-1E+10	1	-1E+10	1	-1E+10	1	-1E+10	1	-1E+10	1
4902551	73	C	08/19/2022	13:07	-132.072	48.893	0	907.90	0	3.3150	0	34.3210	0	27.320	0	898.243	0	12.3	4	3.8	4	-1E+10	1	-1E+10	1	-1E+10	1	-1E+10	1	-1E+10	1	-1E+10	1
4902551	73	C	08/19/2022	13:07	-132.072	48.893	0	913.20	0	3.3150	0	34.3220	0	27.321	0	903.475	0	12.2	4	3.8	4	-1E+10	1	-1E+10	1	-1E+10	1	-1E+10	1	-1E+10	1	-1E+10	1
4902551	73	C	08/19/2022	13:07	-132.072	48.893	0	918.00	0	3.3160	0	34.3240	0	27.322	0	908.213	0	12.2	4	3.8	4	-1E+10	1	-1E+10	1	-1E+10	1	-1E+10	1	-1E+10	1	-1E+10	1
4902551	73	C	08/19/2022	13:07	-132.072	48.893	0	922.90	0	3.3030	0	34.3280	0	27.327	0	913.050	0	12.1	4	3.8	4	-1E+10	1	-1E+10	1	-1E+10	1	-1E+10	1	-1E+10	1	-1E+10	1
4902551	73	C	08/19/2022	13:07	-132.072	48.893	0	928.00	0	3.2950	0	34.3310	0	27.330	0	918.085	0	12.1	4	3.8	4	-1E+10	1	-1E+10	1	-1E+10	1	-1E+10	1	-1E+10	1	-1E+10	1
4902551	73	C	08/19/2022	13:07	-132.072	48.893	0	933.10	0	3.2870	0	34.3320	0	27.331	0	923.119	0	12.1	4	3.8	4	-1E+10	1	-1E+10	1	-1E+10	1	-1E+10	1	-1E+10	1	-1E+10	1
4902551	73	C	08/19/2022	13:07	-132.072	48.893	0	938.30	0	3.2690	0	34.3340	0	27.335	0	928.252	0	12.0	4	3.7	4	-1E+10	1	-1E+10	1	-1E+10	1	-1E+10	1	-1E+10	1	-1E+10	1
4902551	73	C	08/19/2022	13:07	-132.072	48.893	0	943.00	0	3.2560	0	34.3380	0	27.339	0	932.891	0	12.0	4	3.7	4	-1E+10	1	-1E+10	1	-1E+10	1	-1E+10	1	-1E+10	1	-1E+10	1
4902551	73	C	08/19/2022	13:07	-132.072	48.893	0	947.60	0	3.2460	0	34.3410	0	27.342	0	937.431	0	11.9	4	3.7	4	-1E+10	1	-1E+10	1	-1E+10	1	-1E+10	1	-1E+10	1	-1E+10	1
4902551	73	C	08/19/2022	13:07	-132.072	48.893	0	953.00	0	3.2340	0	34.3430	0	27.345	0	942.761	0	11.9	4	3.7	4	-1E+10	1	-1E+10	1	-1E+10	1	-1E+10	1	-1E+10	1	-1E+10	1
4902551	73	C	08/19/2022	13:07	-132.072	48.893	0	958.20	0	3.2270	0	34.3450	0	27.347	0	947.894	0	11.7	4	3.6	4	-1E+10	1	-1E+10	1	-1E+10	1	-1E+10	1	-1E+10	1	-1E+10	1
4902551	73	C	08/19/2022	13:07	-132.072	48.893	0	963.20	0	3.2440	0	34.3510	0	27.351	0	952.829	0	11.6	4	3.6	4	-1E+10	1	-1E+10	1	-1E+10	1	-1E+10	1	-1E+10	1	-1E+10	1
4902551	73	C	08/19/2022	13:07	-132.072	48.893	0	967.90	0	3.2420	0	34.3550	0	27.354	0	957.467	0	11.6	4	3.6	4	-1E+10	1	-1E+10	1	-1E+10	1	-1E+10	1	-1E+10	1	-1E+10	1
4902551	73	C	08/19/2022	13:07	-132.072	48.893	0	972.60	0	3.2230	0	34.3590	0	27.359	0	962.106	0	11.7	4	3.6	4	-1E+10	1	-1E+10	1	-1E+10	1	-1E+10	1	-1E+10	1	-1E+10	1
4902551	73	C	08/19/2022	13:07	-132.072	48.893	0	977.80	0	3.2220	0	34.3630	0	27.362	0	967.238	0	11.7	4	3.6	4	-1E+10	1	-1E+10	1	-1E+10	1	-1E+10	1	-1E+10	1	-1E+10	1
4902551	73	C	08/19/2022	13:07	-132.072	48.893	0	982.80	0	3.2100	0	34.3670	0	27.367	0	972.172	0	11.7	4	3.6	4	-1E+10	1	-1E+10	1	-1E+10	1	-1E+10	1	-1E+10	1	-1E+10	1
4902551	73	C	08/19/2022	13:07	-132.072	48.893	0	987.70	0	3.2010	0	34.3680	0	27.368	0	977.008	0	11.7	4	3.6	4	-1E+10	1	-1E+10	1	-1E+10	1	-1E+10	1	-1E+10	1	-1E+10	1
4902551	73	C	08/19/2022	13:07	-132.072	48.893	0	992.90	0	3.1950	0	34.3700	0	27.371	0	982.139	0	11.8	4	3.7	4	-1E+10	1	-1E+10	1	-1E+10	1	-1E+10	1	-1E+10	1	-1E+10	1
4902551	73	C	08/19/2022	13:07	-132.072	48.893	0	997.70	0	3.1850	0	34.3710	0	27.372	0	986.876	0	11.8	4	3.7	4	-1E+10	1	-1E+10	1	-1E+10	1	-1E+10	1	-1E+10	1	-1E+10	1
4902551	73	C	08/19/2022	13:07	-132.072	48.893	0	1005.00	0	3.1700	0	34.3740	0	27.376	0	994.079	0	11.9	4	3.7	4	-1E+10	1	-1E+10	1	-1E+10	1	-1E+10	1	-1E+10	1	-1E+10	1
4902551	73	C	08/19/2022	13:07	-132.072	48.893	0	1015.60	0	3.1400	0	34.3780	0	27.382	0	1004.539	0	12.0	4	3.7	4	-1E+10	1	-1E+10	1	-1E+10	1	-1E+10	1	-1E+10	1	-1E+10	1
4902551	73	C	08/19/2022	13:07	-132.072	48.893	0	1025.30	0	3.1210	0	34.3820	0	27.387	0	1014.110	0	12.1	4	3.7	4	-1E+10	1	-1E+10	1	-1E+10	1	-1E+10	1	-1E+10	1	-1E+10	1
4902551	73	C	08/19/2022	13:07	-132.072	48.893	0	1035.10	0	3.1060	0	34.3840	0	27.390	0	1023.779	0	12.2	4	3.8	4	-1E+10	1	-1E+10	1	-1E+10	1	-1E+10	1	-1E+10	1	-1E+10	1
4902551	73	C	08/19/2022	13:07	-132.072	48.893	0	1045.10	0	3.0790	0	34.3880	0	27.396	0	1033.645	0	12.3	4	3.8	4	-1E+10	1	-1E+10	1	-1E+10	1	-1E+10	1	-1E+10	1	-1E+10	1
4902551	73	C	08/19/2022	13:07	-132.072	48.893	0	1055.00	0	3.0680	0	34.3900	0	27.399	0	1043.412	0	12.3	4	3.8	4	-1E+10	1	-1E+10	1	-1E+10	1	-1E+10	1	-1E+10	1	-1E+10	1
4902551	73	C	08/19/2022	13:07	-132.072	48.893	0	1065.20	0	3.0540	0	34.3920	0	27.402	0	1053.474	0	12.4	4	3.8	4	-1E+10	1	-1E+10	1	-1E+10	1	-1E+10	1	-1E+10	1	-1E+10	1
4902551	73	C	08/19/2022	13:07	-132.072	48.893	0	1075.60	0	3.0250	0	34.3950	0	27.407	0	1063.733	0	12.5	4	3.9	4	-1E+10	1	-1E+10	1	-1E+10	1	-1E+10	1	-1E+10	1	-1E+10	1
4902551	73	C	08/19/2022	13:07	-132.072	48.893	0	1085.70	0	3.0160	0	34.3980	0	27.410	0	1073.696	0	12.6	4	3.9	4	-1E+10	1	-1E+10	1	-1E+10	1	-1E+10	1	-1E+10	1	-1E+10	1
4902551	73	C	08/19/2022	13:07	-132.072	48.893	0	1095.70	0	3.0070	0	34.4000	0	27.412	0	1083.560	0	12.7	4	3.9	4	-1E+10	1	-1E+10	1	-1E+10	1	-1E+10	1	-1E+10	1	-1E+10	1
4902551	73	C	08/19/2022	13:07	-132.072	48.893	0	1105.80	0	2.9970	0	34.4020	0	27.415	0	1093.521	0	12.8	4	3.9	4	-1E+10	1	-1E+10	1	-1E+10	1	-1E+10	1	-1E+10	1	-1E+10	1
4902551	73	C	08/19/2022	13:07	-132.072	48.893	0	1115.50	0	2.9840	0	34.4040	0	27.418	0	1103.088	0	12.9	4	4.0	4	-1E+10	1	-1E+10	1	-1E+10	1	-1E+10	1	-1E+10	1	-1E+10	1
4902551	73	C	08/19/2022	13:07	-132.072	48.893	0	1125.10	0	2.9730	0	34.4060	0	27.420	0	1112.556	0	13.1	4	4.0	4	-1E+10	1	-1E+10	1	-1E+10	1	-1E+10	1	-1E+10	1	-1E+10	1
4902551	73	C	08/19/2022	13:07	-132.072	48.893	0	1135.30	0	2.9630	0	34.4080	0	27.423	0	1122.615	0	13.2	4	4.1	4	-1E+10	1	-1E+10	1	-1E+10	1	-1E+10	1	-1E+10	1	-1E+10	1
4902551	73	C	08/19/2022	13:07	-132.072	48.893	0	1145.40	0	2.9440	0	34.4110	0	27.427	0	1132.575	0	13.3	4	4.1	4	-1E+10	1	-1E+10	1	-1E+10	1	-1E+10	1	-1E+10	1	-1E+10	1
4902551	73	C	08/19/2022	13:07	-132.072	48.893	0	1155.40	0	2.9270	0	34.4140	0	27.431	0	1142.436	0	13.5	4	4.1	4	-1E+10	1	-1E+10	1	-1E+10	1	-1E+10	1	-1E+10	1	-1E+10	1
4902551	73	C	08/19/2022	13:07	-132.072	48.893	0	1165.50	0	2.9050	0	34.4160	0	27.435	0	1152.395	0	13.6	4	4.2	4	-1E+10	1	-1E+10	1	-1E+10	1	-1E+10	1	-1E+10	1	-1E+10	1
4902551	73	C	08/19/2022	13:07	-132.072	48.893	0	1175.60	0	2.8880	0	34.4190	0	27.439	0	1162.353	0	13.8	4	4.2	4	-1E+10	1	-1E+10	1	-1E+10	1	-1E+10	1	-1E+10	1	-1E+10	1
4902551	73	C	08/19/2022	13:07	-132.072	48.893	0	1185.50	0	2.8760	0	34.4220	0	27.442	0	1172.114	0	14.0	4	4.3	4	-1E+10	1	-1E+10	1	-1E+10	1	-1E+10	1	-1E+10	1	-1E+10	1
4902551	73	C	08/19/2022	13:07	-132.072	48.893	0	1195.20	0	2.8650	0	34.4240	0	27.445	0	1181.677	0	14.1	4	4.3	4	-1E+10	1	-1E+10	1	-1E+10	1	-1E+10	1	-1E+10	1	-1E+10	1
4902551	73	C	08/19/2022	13:07	-132.072	48.893	0	1205.30	0	2.8420	0	34.4270	0	27.449	0	1191.635	0	14.1	4	4.3	4	-1E+10	1	-1E+10	1	-1E+10	1	-1E+10	1	-1E+10	1	-1E+10	1
4902551	73	C	08/19/2022	13:07	-132.072	48.893	0	1215.50	0	2.8220	0	34.4280	0	27.452	0	1201.690	0	14.3	4	4.4	4	-1E+10	1	-1E+10	1	-1E+10	1	-1E+10	1	-1E+10	1	-1E+10	1
4902551	73	C	08/19/2022	13:07	-132.072	48.893	0	1225.60	0	2.7920	0	34.4310	0	27.457	0	1211.646	0	14.7	4	4.5	4	-1E+10	1	-1E+10	1	-1E+10	1	-1E+10	1	-1E+10	1	-1E+10	1
4902551	73	C	08/19/2022	13:07	-132.072	48.893	0	1235.30	0	2.7660	0	34.4370	0	27.464	0	1221.207	0	15.1	4	4.6	4	-1E+10	1	-1E+10	1	-1E+10	1	-1E+10	1	-1E+10	1	-1E+10	1
4902551	73	C	08/19/2022	13:07	-132.072	48.893	0	1245.40	0	2.7440	0	34.4410	0	27.469	0	1231.163	0	15.4	4	4.7	4	-1E+10	1	-1E+10	1	-1E+10	1	-1E+10	1	-1E+10	1	-1E+10	1
4902551	73	C	08/19/2022	13:07	-132.072	48.893	0	1255.30	0	2.7350	0	34.4430	0	27.472	0	1240.920	0	15.6	4	4.8	4	-1E+10	1	-1E+10	1	-1E+10	1	-1E+10	1	-1E+10	1	-1E+10	1
4902551	73	C	08/19/2022	13:07	-132.072	48.893	0	1265.50	0	2.7140	0	34.4470	0	27.477	0	1250.973	0	16.0	4	4.9	4	-1E+10	1	-1E+10	1	-1E+10	1	-1E+10	1	-1E+10	1	-1E+10	1
4902551	73	C	08/19/2022	13:07	-132.072	48.893	0	1275.80	0	2.6980	0	34.4490	0	27.480	0	1261.124	0	16.4	4	5.0	4	-1E+10	1	-1E+10	1	-1E+10	1	-1E+10	1	-1E+10	1	-1E+10	1
4902551	73	C	08/19/2022	13:07	-132.072	48.893	0	1285.60	0	2.6790	0	34.4530	0	27.485	0	1270.782	0	16.8	4	5.1	4	-1E+10	1	-1E+10	1	-1E+10	1	-1E+10	1	-1E+10	1	-1E+10	1
4902551	73	C	08/19/2022	13:07	-132.072	48.893	0	1295.60	0	2.6580	0	34.4560	0	27.489	0	1280.636	0	17.2	4	5.3	4	-1E+10	1	-1E+10	1	-1E+10	1	-1E+10	1	-1E+10	1	-1E+10	1
4902551	73	C	08/19/2022	13:07	-132.072	48.893	0	1305.40	0	2.6410	0	34.4600	0	27.494	0	1290.293	0	17.7	4	5.4	4	-1E+10	1	-1E+10	1	-1E+10	1	-1E+10	1	-1E+10	1	-1E+10	1
4902551	73	C	08/19/2022	13:07	-132.072	48.893	0	1315.40	0	2.6120	0	34.4650	0	27.500	0	1300.146	0	18.3	4	5.6	4	-1E+10	1	-1E+10	1	-1E+10	1	-1E+10	1	-1E+10	1	-1E+10	1
4902551	73	C	08/19/2022	13:07	-132.072	48.893	0	1325.40	0	2.5960	0	34.4680	0	27.504	0	1309.999	0	18.8	4	5.7	4	-1E+10	1	-1E+10	1	-1E+10	1	-1E+10	1	-1E+10	1	-1E+10	1
4902551	73	C	08/19/2022	13:07	-132.072	48.893	0	1335.50	0	2.5770	0	34.4710	0	27.508	0	1319.950	0	19.2	4	5.9	4	-1E+10	1	-1E+10	1	-1E+10	1	-1E+10	1	-1E+10	1	-1E+10	1
4902551	73	C	08/19/2022	13:07	-132.072	48.893	0	1345.50	0	2.5640	0	34.4740	0	27.512	0	1329.802	0	19.6	4	6.0	4	-1E+10	1	-1E+10	1	-1E+10	1	-1E+10	1	-1E+10	1	-1E+10	1
4902551	73	C	08/19/2022	13:07	-132.072	48.893	0	1355.70	0	2.5570	0	34.4750	0	27.513	0	1339.851	0	19.9	4	6.1	4	-1E+10	1	-1E+10	1	-1E+10	1	-1E+10	1	-1E+10	1	-1E+10	1
4902551	73	C	08/19/2022	13:07	-132.072	48.893	0	1365.40	0	2.5430	0	34.4780	0	27.517	0	1349.407	0	20.4	4	6.2	4	-1E+10	1	-1E+10	1	-1E+10	1	-1E+10	1	-1E+10	1	-1E+10	1
4902551	73	C	08/19/2022	13:07	-132.072	48.893	0	1375.40	0	2.5290	0	34.4800	0	27.520	0	1359.257	0	20.7	4	6.3	4	-1E+10	1	-1E+10	1	-1E+10	1	-1E+10	1	-1E+10	1	-1E+10	1
4902551	73	C	08/19/2022	13:07	-132.072	48.893	0	1385.50	0	2.5180	0	34.4820	0	27.522	0	1369.206	0	21.0	4	6.4	4	-1E+10	1	-1E+10	1	-1E+10	1	-1E+10	1	-1E+10	1	-1E+10	1
4902551	73	C	08/19/2022	13:07	-132.072	48.893	0	1395.50	0	2.5060	0	34.4830	0	27.524	0	1379.056	0	21.2	4	6.5	4	-1E+10	1	-1E+10	1	-1E+10	1	-1E+10	1	-1E+10	1	-1E+10	1
4902551	73	C	08/19/2022	13:07	-132.072	48.893	0	1405.70	0	2.4910	0	34.4850	0	27.527	0	1389.102	0	21.7	4	6.6	4	-1E+10	1	-1E+10	1	-1E+10	1	-1E+10	1	-1E+10	1	-1E+10	1
4902551	73	C	08/19/2022	13:07	-132.072	48.893	0	1415.60	0	2.4800	0	34.4880	0	27.530	0	1398.852	0	22.1	4	6.7	4	-1E+10	1	-1E+10	1	-1E+10	1	-1E+10	1	-1E+10	1	-1E+10	1
4902551	73	C	08/19/2022	13:07	-132.072	48.893	0	1425.60	0	2.4700	0	34.4890	0	27.532	0	1408.700	0	22.5	4	6.9	4	-1E+10	1	-1E+10	1	-1E+10	1	-1E+10	1	-1E+10	1	-1E+10	1
4902551	73	C	08/19/2022	13:07	-132.072	48.893	0	1435.60	0	2.4600	0	34.4910	0	27.534	0	1418.548	0	22.9	4	7.0	4	-1E+10	1	-1E+10	1	-1E+10	1	-1E+10	1	-1E+10	1	-1E+10	1
4902551	73	C	08/19/2022	13:07	-132.072	48.893	0	1445.60	0	2.4570	0	34.4920	0	27.536	0	1428.396	0	23.3	4	7.1	4	-1E+10	1	-1E+10	1	-1E+10	1	-1E+10	1	-1E+10	1	-1E+10	1
4902551	73	C	08/19/2022	13:07	-132.072	48.893	0	1455.60	0	2.4450	0	34.4950	0	27.539	0	1438.243	0	24.0	4	7.3	4	-1E+10	1	-1E+10	1	-1E+10	1	-1E+10	1	-1E+10	1	-1E+10	1
4902551	73	C	08/19/2022	13:07	-132.072	48.893	0	1465.60	0	2.4350	0	34.4970	0	27.541	0	1448.089	0	24.5	4	7.5	4	-1E+10	1	-1E+10	1	-1E+10	1	-1E+10	1	-1E+10	1	-1E+10	1
4902551	73	C	08/19/2022	13:07	-132.072	48.893	0	1475.60	0	2.4270	0	34.4990	0	27.544	0	1457.935	0	24.9	4	7.6	4	-1E+10	1	-1E+10	1	-1E+10	1	-1E+10	1	-1E+10	1	-1E+10	1
4902551	73	C	08/19/2022	13:07	-132.072	48.893	0	1485.20	0	2.4160	0	34.5000	0	27.546	0	1467.387	0	25.3	4	7.7	4	-1E+10	1	-1E+10	1	-1E+10	1	-1E+10	1	-1E+10	1	-1E+10	1
4902551	73	C	08/19/2022	13:07	-132.072	48.893	0	1495.40	0	2.4010	0	34.5020	0	27.548	0	1477.429	0	25.8	4	7.8	4	-1E+10	1	-1E+10	1	-1E+10	1	-1E+10	1	-1E+10	1	-1E+10	1
4902551	73	C	08/19/2022	13:07	-132.072	48.893	0	1505.30	0	2.3920	0	34.5040	0	27.551	0	1487.175	0	26.2	4	8.0	4	-1E+10	1	-1E+10	1	-1E+10	1	-1E+10	1	-1E+10	1	-1E+10	1
4902551	73	C	08/19/2022	13:07	-132.072	48.893	0	1515.40	0	2.3830	0	34.5060	0	27.553	0	1497.118	0	26.7	4	8.1	4	-1E+10	1	-1E+10	1	-1E+10	1	-1E+10	1	-1E+10	1	-1E+10	1
4902551	73	C	08/19/2022	13:07	-132.072	48.893	0	1525.30	0	2.3720	0	34.5080	0	27.556	0	1506.863	0	27.3	4	8.3	4	-1E+10	1	-1E+10	1	-1E+10	1	-1E+10	1	-1E+10	1	-1E+10	1
4902551	73	C	08/19/2022	13:07	-132.072	48.893	0	1535.40	0	2.3610	0	34.5100	0	27.558	0	1516.805	0	27.9	4	8.5	4	-1E+10	1	-1E+10	1	-1E+10	1	-1E+10	1	-1E+10	1	-1E+10	1
4902551	73	C	08/19/2022	13:07	-132.072	48.893	0	1545.70	0	2.3430	0	34.5130	0	27.562	0	1526.943	0	28.7	4	8.7	4	-1E+10	1	-1E+10	1	-1E+10	1	-1E+10	1	-1E+10	1	-1E+10	1
4902551	73	C	08/19/2022	13:07	-132.072	48.893	0	1555.70	0	2.3300	0	34.5150	0	27.565	0	1536.785	0	29.4	4	8.9	4	-1E+10	1	-1E+10	1	-1E+10	1	-1E+10	1	-1E+10	1	-1E+10	1
4902551	73	C	08/19/2022	13:07	-132.072	48.893	0	1565.60	0	2.3150	0	34.5180	0	27.569	0	1546.529	0	30.1	4	9.1	4	-1E+10	1	-1E+10	1	-1E+10	1	-1E+10	1	-1E+10	1	-1E+10	1
4902551	73	C	08/19/2022	13:07	-132.072	48.893	0	1575.40	0	2.3020	0	34.5200	0	27.571	0	1556.173	0	30.6	4	9.3	4	-1E+10	1	-1E+10	1	-1E+10	1	-1E+10	1	-1E+10	1	-1E+10	1
4902551	73	C	08/19/2022	13:07	-132.072	48.893	0	1585.40	0	2.2930	0	34.5210	0	27.573	0	1566.014	0	31.1	4	9.4	4	-1E+10	1	-1E+10	1	-1E+10	1	-1E+10	1	-1E+10	1	-1E+10	1
4902551	73	C	08/19/2022	13:07	-132.072	48.893	0	1595.60	0	2.2830	0	34.5230	0	27.575	0	1576.052	0	31.6	4	9.6	4	-1E+10	1	-1E+10	1	-1E+10	1	-1E+10	1	-1E+10	1	-1E+10	1
4902551	73	C	08/19/2022	13:07	-132.072	48.893	0	1605.80	0	2.2690	0	34.5250	0	27.578	0	1586.089	0	32.0	4	9.7	4	-1E+10	1	-1E+10	1	-1E+10	1	-1E+10	1	-1E+10	1	-1E+10	1
4902551	73	C	08/19/2022	13:07	-132.072	48.893	0	1615.30	0	2.2610	0	34.5270	0	27.581	0	1595.436	0	32.3	4	9.8	4	-1E+10	1	-1E+10	1	-1E+10	1	-1E+10	1	-1E+10	1	-1E+10	1
4902551	73	C	08/19/2022	13:07	-132.072	48.893	0	1625.20	0	2.2530	0	34.5280	0	27.582	0	1605.177	0	32.7	4	9.9	4	-1E+10	1	-1E+10	1	-1E+10	1	-1E+10	1	-1E+10	1	-1E+10	1
4902551	73	C	08/19/2022	13:07	-132.072	48.893	0	1635.40	0	2.2440	0	34.5290	0	27.584	0	1615.212	0	33.2	4	10.1	4	-1E+10	1	-1E+10	1	-1E+10	1	-1E+10	1	-1E+10	1	-1E+10	1
4902551	73	C	08/19/2022	13:07	-132.072	48.893	0	1645.40	0	2.2350	0	34.5310	0	27.586	0	1625.051	0	33.6	4	10.2	4	-1E+10	1	-1E+10	1	-1E+10	1	-1E+10	1	-1E+10	1	-1E+10	1
4902551	73	C	08/19/2022	13:07	-132.072	48.893	0	1655.50	0	2.2230	0	34.5330	0	27.589	0	1634.987	0	34.1	4	10.3	4	-1E+10	1	-1E+10	1	-1E+10	1	-1E+10	1	-1E+10	1	-1E+10	1
4902551	73	C	08/19/2022	13:07	-132.072	48.893	0	1665.70	0	2.2160	0	34.5340	0	27.590	0	1645.021	0	34.6	4	10.5	4	-1E+10	1	-1E+10	1	-1E+10	1	-1E+10	1	-1E+10	1	-1E+10	1
4902551	73	C	08/19/2022	13:07	-132.072	48.893	0	1675.40	0	2.2030	0	34.5360	0	27.593	0	1654.563	0	35.3	4	10.7	4	-1E+10	1	-1E+10	1	-1E+10	1	-1E+10	1	-1E+10	1	-1E+10	1
4902551	73	C	08/19/2022	13:07	-132.072	48.893	0	1685.20	0	2.1920	0	34.5380	0	27.595	0	1664.202	0	35.9	4	10.9	4	-1E+10	1	-1E+10	1	-1E+10	1	-1E+10	1	-1E+10	1	-1E+10	1
4902551	73	C	08/19/2022	13:07	-132.072	48.893	0	1695.00	0	2.1820	0	34.5400	0	27.598	0	1673.841	0	36.4	4	11.0	4	-1E+10	1	-1E+10	1	-1E+10	1	-1E+10	1	-1E+10	1	-1E+10	1
4902551	73	C	08/19/2022	13:07	-132.072	48.893	0	1705.00	0	2.1770	0	34.5400	0	27.598	0	1683.677	0	36.9	4	11.2	4	-1E+10	1	-1E+10	1	-1E+10	1	-1E+10	1	-1E+10	1	-1E+10	1
4902551	73	C	08/19/2022	13:07	-132.072	48.893	0	1715.20	0	2.1680	0	34.5420	0	27.601	0	1693.709	0	37.5	4	11.3	4	-1E+10	1	-1E+10	1	-1E+10	1	-1E+10	1	-1E+10	1	-1E+10	1
4902551	73	C	08/19/2022	13:07	-132.072	48.893	0	1725.30	0	2.1630	0	34.5430	0	27.602	0	1703.642	0	38.0	4	11.5	4	-1E+10	1	-1E+10	1	-1E+10	1	-1E+10	1	-1E+10	1	-1E+10	1
4902551	73	C	08/19/2022	13:07	-132.072	48.893	0	1735.20	0	2.1530	0	34.5450	0	27.604	0	1713.377	0	38.7	4	11.7	4	-1E+10	1	-1E+10	1	-1E+10	1	-1E+10	1	-1E+10	1	-1E+10	1
4902551	73	C	08/19/2022	13:07	-132.072	48.893	0	1745.50	0	2.1440	0	34.5470	0	27.607	0	1723.506	0	39.7	4	12.0	4	-1E+10	1	-1E+10	1	-1E+10	1	-1E+10	1	-1E+10	1	-1E+10	1
4902551	73	C	08/19/2022	13:07	-132.072	48.893	0	1755.80	0	2.1280	0	34.5500	0	27.610	0	1733.634	0	40.8	4	12.3	4	-1E+10	1	-1E+10	1	-1E+10	1	-1E+10	1	-1E+10	1	-1E+10	1
4902551	73	C	08/19/2022	13:07	-132.072	48.893	0	1765.70	0	2.1180	0	34.5520	0	27.613	0	1743.369	0	41.4	4	12.5	4	-1E+10	1	-1E+10	1	-1E+10	1	-1E+10	1	-1E+10	1	-1E+10	1
4902551	73	C	08/19/2022	13:07	-132.072	48.893	0	1775.60	0	2.1120	0	34.5530	0	27.614	0	1753.103	0	41.9	4	12.7	4	-1E+10	1	-1E+10	1	-1E+10	1	-1E+10	1	-1E+10	1	-1E+10	1
4902551	73	C	08/19/2022	13:07	-132.072	48.893	0	1785.70	0	2.1020	0	34.5550	0	27.617	0	1763.033	0	42.5	4	12.9	4	-1E+10	1	-1E+10	1	-1E+10	1	-1E+10	1	-1E+10	1	-1E+10	1
4902551	73	C	08/19/2022	13:07	-132.072	48.893	0	1795.60	0	2.0890	0	34.5560	0	27.618	0	1772.766	0	43.3	4	13.1	4	-1E+10	1	-1E+10	1	-1E+10	1	-1E+10	1	-1E+10	1	-1E+10	1
4902551	73	C	08/19/2022	13:07	-132.072	48.893	0	1805.50	0	2.0790	0	34.5580	0	27.621	0	1782.498	0	43.7	4	13.2	4	-1E+10	1	-1E+10	1	-1E+10	1	-1E+10	1	-1E+10	1	-1E+10	1
4902551	73	C	08/19/2022	13:07	-132.072	48.893	0	1815.30	0	2.0760	0	34.5590	0	27.622	0	1792.132	0	44.0	4	13.3	4	-1E+10	1	-1E+10	1	-1E+10	1	-1E+10	1	-1E+10	1	-1E+10	1
4902551	73	C	08/19/2022	13:07	-132.072	48.893	0	1825.20	0	2.0690	0	34.5600	0	27.623	0	1801.864	0	44.5	4	13.4	4	-1E+10	1	-1E+10	1	-1E+10	1	-1E+10	1	-1E+10	1	-1E+10	1
4902551	73	C	08/19/2022	13:07	-132.072	48.893	0	1835.30	0	2.0620	0	34.5610	0	27.625	0	1811.792	0	45.1	4	13.6	4	-1E+10	1	-1E+10	1	-1E+10	1	-1E+10	1	-1E+10	1	-1E+10	1
4902551	73	C	08/19/2022	13:07	-132.072	48.893	0	1845.50	0	2.0510	0	34.5630	0	27.627	0	1821.817	0	46.1	4	13.9	4	-1E+10	1	-1E+10	1	-1E+10	1	-1E+10	1	-1E+10	1	-1E+10	1
4902551	73	C	08/19/2022	13:07	-132.072	48.893	0	1855.50	0	2.0410	0	34.5650	0	27.630	0	1831.646	0	46.9	4	14.2	4	-1E+10	1	-1E+10	1	-1E+10	1	-1E+10	1	-1E+10	1	-1E+10	1
4902551	73	C	08/19/2022	13:07	-132.072	48.893	0	1865.20	0	2.0320	0	34.5670	0	27.632	0	1841.179	0	47.6	4	14.4	4	-1E+10	1	-1E+10	1	-1E+10	1	-1E+10	1	-1E+10	1	-1E+10	1
4902551	73	C	08/19/2022	13:07	-132.072	48.893	0	1875.10	0	2.0250	0	34.5680	0	27.634	0	1850.909	0	48.2	4	14.6	4	-1E+10	1	-1E+10	1	-1E+10	1	-1E+10	1	-1E+10	1	-1E+10	1
4902551	73	C	08/19/2022	13:07	-132.072	48.893	0	1885.20	0	2.0160	0	34.5700	0	27.636	0	1860.834	0	48.8	4	14.7	4	-1E+10	1	-1E+10	1	-1E+10	1	-1E+10	1	-1E+10	1	-1E+10	1
4902551	73	C	08/19/2022	13:07	-132.072	48.893	0	1895.20	0	2.0080	0	34.5710	0	27.637	0	1870.661	0	49.5	4	14.9	4	-1E+10	1	-1E+10	1	-1E+10	1	-1E+10	1	-1E+10	1	-1E+10	1
4902551	73	C	08/19/2022	13:07	-132.072	48.893	0	1905.30	0	1.9990	0	34.5730	0	27.640	0	1880.586	0	50.2	4	15.1	4	-1E+10	1	-1E+10	1	-1E+10	1	-1E+10	1	-1E+10	1	-1E+10	1
4902551	73	C	08/19/2022	13:07	-132.072	48.893	0	1915.20	0	1.9890	0	34.5750	0	27.642	0	1890.313	0	50.8	4	15.3	4	-1E+10	1	-1E+10	1	-1E+10	1	-1E+10	1	-1E+10	1	-1E+10	1
4902551	73	C	08/19/2022	13:07	-132.072	48.893	0	1925.50	0	1.9840	0	34.5760	0	27.643	0	1900.434	0	51.1	4	15.4	4	-1E+10	1	-1E+10	1	-1E+10	1	-1E+10	1	-1E+10	1	-1E+10	1
4902551	73	C	08/19/2022	13:07	-132.072	48.893	0	1935.90	0	1.9820	0	34.5760	0	27.644	0	1910.652	0	51.6	4	15.6	4	-1E+10	1	-1E+10	1	-1E+10	1	-1E+10	1	-1E+10	1	-1E+10	1
4902551	73	C	08/19/2022	13:07	-132.072	48.893	0	1945.60	0	1.9720	0	34.5780	0	27.646	0	1920.181	0	52.5	4	15.8	4	-1E+10	1	-1E+10	1	-1E+10	1	-1E+10	1	-1E+10	1	-1E+10	1
4902551	73	C	08/19/2022	13:07	-132.072	48.893	0	1955.70	0	1.9590	0	34.5800	0	27.649	0	1930.104	0	53.3	4	16.0	4	-1E+10	1	-1E+10	1	-1E+10	1	-1E+10	1	-1E+10	1	-1E+10	1
4902551	73	C	08/19/2022	13:07	-132.072	48.893	0	1965.70	0	1.9530	0	34.5810	0	27.650	0	1939.927	0	53.8	4	16.2	4	-1E+10	1	-1E+10	1	-1E+10	1	-1E+10	1	-1E+10	1	-1E+10	1
4902551	73	C	08/19/2022	13:07	-132.072	48.893	0	1975.50	0	1.9430	0	34.5830	0	27.652	0	1949.554	0	54.4	4	16.4	4	-1E+10	1	-1E+10	1	-1E+10	1	-1E+10	1	-1E+10	1	-1E+10	1
4902551	73	C	08/19/2022	13:07	-132.072	48.893	0	1985.50	0	1.9330	0	34.5850	0	27.655	0	1959.377	0	54.9	4	16.5	4	-1E+10	1	-1E+10	1	-1E+10	1	-1E+10	1	-1E+10	1	-1E+10	1
4902551	73	C	08/19/2022	13:07	-132.072	48.893	0	1996.00	0	1.9270	0	34.5860	0	27.656	0	1969.690	0	55.0	4	16.6	4	-1E+10	1	-1E+10	1	-1E+10	1	-1E+10	1	-1E+10	1	-1E+10	1
4902551	73	C	08/19/2022	13:07	-132.072	48.893	0																										
4902551	74	C	08/29/2022	18:10	-131.838	48.876	0	0.10	0	17.2590	0	32.2020	0	23.308	0	0.099	0	243.5	4	100.7	4	-1E+10	1	-1E+10	1	-1E+10	1	-1E+10	1	-1E+10	1	-1E+10	1
4902551	74	C	08/29/2022	18:10	-131.838	48.876	0	0.20	0	17.2690	0	32.1930	0	23.299	0	0.198	0	-1e10	1	-1e10	1	-1E+10	1	-1E+10	1	-1E+10	1	-1E+10	1	-1E+10	1	-1E+10	1
4902551	74	C	08/29/2022	18:10	-131.838	48.876	0	0.30	0	17.2580	0	32.1940	0	23.302	0	0.297	0	237.8	4	98.3	4	-1E+10	1	-1E+10	1	-1E+10	1	-1E+10	1	-1E+10	1	-1E+10	1
4902551	74	C	08/29/2022	18:10	-131.838	48.876	0	1.10	0	17.2590	0	32.1890	0	23.298	0	1.091	0	237.8	4	98.4	4	-1E+10	1	-1E+10	1	-1E+10	1	-1E+10	1	-1E+10	1	-1E+10	1
4902551	74	C	08/29/2022	18:10	-131.838	48.876	0	2.00	0	17.2570	0	32.1910	0	23.300	0	1.983	0	237.8	4	98.3	4	-1E+10	1	-1E+10	1	-1E+10	1	-1E+10	1	-1E+10	1	-1E+10	1
4902551	74	C	08/29/2022	18:10	-131.838	48.876	0	3.00	0	17.2540	0	32.1960	0	23.305	0	2.975	0	237.9	4	98.4	4	-1E+10	1	-1E+10	1	-1E+10	1	-1E+10	1	-1E+10	1	-1E+10	1
4902551	74	C	08/29/2022	18:10	-131.838	48.876	0	3.80	0	17.2520	0	32.1960	0	23.305	0	3.768	0	237.9	4	98.4	4	-1E+10	1	-1E+10	1	-1E+10	1	-1E+10	1	-1E+10	1	-1E+10	1
4902551	74	C	08/29/2022	18:10	-131.838	48.876	0	4.80	0	17.2460	0	32.2000	0	23.310	0	4.759	0	238.0	4	98.4	4	-1E+10	1	-1E+10	1	-1E+10	1	-1E+10	1	-1E+10	1	-1E+10	1
4902551	74	C	08/29/2022	18:10	-131.838	48.876	0	6.00	0	17.2430	0	32.2010	0	23.311	0	5.949	0	238.0	4	98.4	4	-1E+10	1	-1E+10	1	-1E+10	1	-1E+10	1	-1E+10	1	-1E+10	1
4902551	74	C	08/29/2022	18:10	-131.838	48.876	0	6.90	0	17.2420	0	32.2020	0	23.312	0	6.841	0	238.0	4	98.4	4	-1E+10	1	-1E+10	1	-1E+10	1	-1E+10	1	-1E+10	1	-1E+10	1
4902551	74	C	08/29/2022	18:10	-131.838	48.876	0	7.80	0	17.2420	0	32.2010	0	23.312	0	7.734	0	238.1	4	98.4	4	-1E+10	1	-1E+10	1	-1E+10	1	-1E+10	1	-1E+10	1	-1E+10	1
4902551	74	C	08/29/2022	18:10	-131.838	48.876	0	8.90	0	17.2400	0	32.2020	0	23.313	0	8.824	0	238.1	4	98.5	4	-1E+10	1	-1E+10	1	-1E+10	1	-1E+10	1	-1E+10	1	-1E+10	1
4902551	74	C	08/29/2022	18:10	-131.838	48.876	0	9.90	0	17.2420	0	32.2000	0	23.311	0	9.816	0	238.3	4	98.5	4	-1E+10	1	-1E+10	1	-1E+10	1	-1E+10	1	-1E+10	1	-1E+10	1
4902551	74	C	08/29/2022	18:10	-131.838	48.876	0	10.90	0	17.2380	0	32.2020	0	23.314	0	10.807	0	238.4	4	98.5	4	-1E+10	1	-1E+10	1	-1E+10	1	-1E+10	1	-1E+10	1	-1E+10	1
4902551	74	C	08/29/2022	18:10	-131.838	48.876	0	12.00	0	17.2380	0	32.2010	0	23.313	0	11.898	0	238.6	4	98.6	4	-1E+10	1	-1E+10	1	-1E+10	1	-1E+10	1	-1E+10	1	-1E+10	1
4902551	74	C	08/29/2022	18:10	-131.838	48.876	0	13.10	0	17.2390	0	32.2010	0	23.313	0	12.989	0	238.8	4	98.7	4	-1E+10	1	-1E+10	1	-1E+10	1	-1E+10	1	-1E+10	1	-1E+10	1
4902551	74	C	08/29/2022	18:10	-131.838	48.876	0	14.10	0	17.2360	0	32.2020	0	23.314	0	13.980	0	239.2	4	98.9	4	-1E+10	1	-1E+10	1	-1E+10	1	-1E+10	1	-1E+10	1	-1E+10	1
4902551	74	C	08/29/2022	18:10	-131.838	48.876	0	14.90	0	17.2410	0	32.2020	0	23.313	0	14.773	0	239.4	4	99.0	4	-1E+10	1	-1E+10	1	-1E+10	1	-1E+10	1	-1E+10	1	-1E+10	1
4902551	74	C	08/29/2022	18:10	-131.838	48.876	0	15.70	0	17.2390	0	32.2020	0	23.314	0	15.566	0	239.8	4	99.1	4	-1E+10	1	-1E+10	1	-1E+10	1	-1E+10	1	-1E+10	1	-1E+10	1
4902551	74	C	08/29/2022	18:10	-131.838	48.876	0	16.80	0	17.2090	0	32.2050	0	23.323	0	16.657	0	240.5	4	99.4	4	-1E+10	1	-1E+10	1	-1E+10	1	-1E+10	1	-1E+10	1	-1E+10	1
4902551	74	C	08/29/2022	18:10	-131.838	48.876	0	17.90	0	17.2030	0	32.2050	0	23.324	0	17.748	0	241.1	4	99.6	4	-1E+10	1	-1E+10	1	-1E+10	1	-1E+10	1	-1E+10	1	-1E+10	1
4902551	74	C	08/29/2022	18:10	-131.838	48.876	0	19.00	0	17.1860	0	32.2080	0	23.331	0	18.838	0	241.8	4	99.9	4	-1E+10	1	-1E+10	1	-1E+10	1	-1E+10	1	-1E+10	1	-1E+10	1
4902551	74	C	08/29/2022	18:10	-131.838	48.876	0	20.10	0	17.1730	0	32.2110	0	23.336	0	19.929	0	242.7	4	100.2	4	-1E+10	1	-1E+10	1	-1E+10	1	-1E+10	1	-1E+10	1	-1E+10	1
4902551	74	C	08/29/2022	18:10	-131.838	48.876	0	21.00	0	17.1550	0	32.2170	0	23.345	0	20.821	0	243.4	4	100.5	4	-1E+10	1	-1E+10	1	-1E+10	1	-1E+10	1	-1E+10	1	-1E+10	1
4902551	74	C	08/29/2022	18:10	-131.838	48.876	0	21.90	0	17.1280	0	32.2190	0	23.353	0	21.713	0	244.5	4	100.9	4	-1E+10	1	-1E+10	1	-1E+10	1	-1E+10	1	-1E+10	1	-1E+10	1
4902551	74	C	08/29/2022	18:10	-131.838	48.876	0	23.10	0	16.8870	0	32.2360	0	23.422	0	22.903	0	248.6	4	102.1	4	-1E+10	1	-1E+10	1	-1E+10	1	-1E+10	1	-1E+10	1	-1E+10	1
4902551	74	C	08/29/2022	18:10	-131.838	48.876	0	24.10	0	16.5770	0	32.2540	0	23.507	0	23.894	0	253.2	4	103.4	4	-1E+10	1	-1E+10	1	-1E+10	1	-1E+10	1	-1E+10	1	-1E+10	1
4902551	74	C	08/29/2022	18:10	-131.838	48.876	0	24.90	0	16.0830	0	32.2680	0	23.630	0	24.688	0	257.1	4	104.0	4	-1E+10	1	-1E+10	1	-1E+10	1	-1E+10	1	-1E+10	1	-1E+10	1
4902551	74	C	08/29/2022	18:10	-131.838	48.876	0	25.90	0	15.5780	0	32.2560	0	23.733	0	25.679	0	260.5	4	104.4	4	-1E+10	1	-1E+10	1	-1E+10	1	-1E+10	1	-1E+10	1	-1E+10	1
4902551	74	C	08/29/2022	18:10	-131.838	48.876	0	27.00	0	15.0070	0	32.2780	0	23.874	0	26.770	0	263.2	4	104.3	4	-1E+10	1	-1E+10	1	-1E+10	1	-1E+10	1	-1E+10	1	-1E+10	1
4902551	74	C	08/29/2022	18:10	-131.838	48.876	0	28.10	0	14.1630	0	32.2820	0	24.055	0	27.860	0	266.2	4	103.7	4	-1E+10	1	-1E+10	1	-1E+10	1	-1E+10	1	-1E+10	1	-1E+10	1
4902551	74	C	08/29/2022	18:10	-131.838	48.876	0	29.30	0	13.9840	0	32.2810	0	24.092	0	29.050	0	266.9	4	103.6	4	-1E+10	1	-1E+10	1	-1E+10	1	-1E+10	1	-1E+10	1	-1E+10	1
4902551	74	C	08/29/2022	18:10	-131.838	48.876	0	30.00	0	13.9200	0	32.2640	0	24.092	0	29.744	0	267.8	4	103.8	4	-1E+10	1	-1E+10	1	-1E+10	1	-1E+10	1	-1E+10	1	-1E+10	1
4902551	74	C	08/29/2022	18:10	-131.838	48.876	0	31.00	0	13.8000	0	32.2740	0	24.124	0	30.735	0	269.7	4	104.3	4	-1E+10	1	-1E+10	1	-1E+10	1	-1E+10	1	-1E+10	1	-1E+10	1
4902551	74	C	08/29/2022	18:10	-131.838	48.876	0	31.90	0	13.0830	0	32.2670	0	24.262	0	31.627	0	273.6	4	104.2	4	-1E+10	1	-1E+10	1	-1E+10	1	-1E+10	1	-1E+10	1	-1E+10	1
4902551	74	C	08/29/2022	18:10	-131.838	48.876	0	33.00	0	11.9760	0	32.2810	0	24.484	0	32.718	0	277.5	4	103.4	4	-1E+10	1	-1E+10	1	-1E+10	1	-1E+10	1	-1E+10	1	-1E+10	1
4902551	74	C	08/29/2022	18:10	-131.838	48.876	0	34.10	0	11.4070	0	32.2780	0	24.585	0	33.808	0	278.5	4	102.5	4	-1E+10	1	-1E+10	1	-1E+10	1	-1E+10	1	-1E+10	1	-1E+10	1
4902551	74	C	08/29/2022	18:10	-131.838	48.876	0	35.00	0	11.3130	0	32.2530	0	24.583	0	34.701	0	278.9	4	102.4	4	-1E+10	1	-1E+10	1	-1E+10	1	-1E+10	1	-1E+10	1	-1E+10	1
4902551	74	C	08/29/2022	18:10	-131.838	48.876	0	35.70	0	11.2640	0	32.2540	0	24.592	0	35.395	0	278.7	4	102.3	4	-1E+10	1	-1E+10	1	-1E+10	1	-1E+10	1	-1E+10	1	-1E+10	1
4902551	74	C	08/29/2022	18:10	-131.838	48.876	0	37.10	0	11.0580	0	32.2590	0	24.633	0	36.782	0	278.9	4	101.9	4	-1E+10	1	-1E+10	1	-1E+10	1	-1E+10	1	-1E+10	1	-1E+10	1
4902551	74	C	08/29/2022	18:10	-131.838	48.876	0	38.10	0	10.8070	0	32.2530	0	24.672	0	37.774	0	278.9	4	101.3	4	-1E+10	1	-1E+10	1	-1E+10	1	-1E+10	1	-1E+10	1	-1E+10	1
4902551	74	C	08/29/2022	18:10	-131.838	48.876	0	39.00	0	10.5200	0	32.2630	0	24.729	0	38.666	0	278.9	4	100.7	4	-1E+10	1	-1E+10	1	-1E+10	1	-1E+10	1	-1E+10	1	-1E+10	1
4902551	74	C	08/29/2022	18:10	-131.838	48.876	0	40.00	0	10.2560	0	32.2810	0	24.788	0	39.657	0	279.0	4	100.2	4	-1E+10	1	-1E+10	1	-1E+10	1	-1E+10	1	-1E+10	1	-1E+10	1
4902551	74	C	08/29/2022	18:10	-131.838	48.876	0	40.90	0	10.1150	0	32.2770	0	24.808	0	40.550	0	278.8	4	99.8	4	-1E+10	1	-1E+10	1	-1E+10	1	-1E+10	1	-1E+10	1	-1E+10	1
4902551	74	C	08/29/2022	18:10	-131.838	48.876	0	42.00	0	10.0080	0	32.2850	0	24.832	0	41.640	0	278.0	4	99.3	4	-1E+10	1	-1E+10	1	-1E+10	1	-1E+10	1	-1E+10	1	-1E+10	1
4902551	74	C	08/29/2022	18:10	-131.838	48.876	0	43.00	0	9.9810	0	32.2750	0	24.829	0	42.631	0	276.9	4	98.9	4	-1E+10	1	-1E+10	1	-1E+10	1	-1E+10	1	-1E+10	1	-1E+10	1
4902551	74	C	08/29/2022	18:10	-131.838	48.876	0	44.10	0	9.8820	0	32.2780	0	24.848	0	43.722	0	275.9	4	98.3	4	-1E+10	1	-1E+10	1	-1E+10	1	-1E+10	1	-1E+10	1	-1E+10	1
4902551	74	C	08/29/2022	18:10	-131.838	48.876	0	44.80	0	9.7140	0	32.2830	0	24.879	0	44.416	0	275.8	4	97.9	4	-1E+10	1	-1E+10	1	-1E+10	1	-1E+10	1	-1E+10	1	-1E+10	1
4902551	74	C	08/29/2022	18:10	-131.838	48.876	0	46.00	0	9.4080	0	32.2790	0	24.925	0	45.605	0	276.2	4	97.4	4	-1E+10	1	-1E+10	1	-1E+10	1	-1E+10	1	-1E+10	1	-1E+10	1
4902551	74	C	08/29/2022	18:10	-131.838	48.876	0	47.20	0	9.3300	0	32.2780	0	24.937	0	46.795	0	275.8	4	97.1	4	-1E+10	1	-1E+10	1	-1E+10	1	-1E+10	1	-1E+10	1	-1E+10	1
4902551	74	C	08/29/2022	18:10	-131.838	48.876	0	47.90	0	9.3150	0	32.2790	0	24.940	0	47.489	0	275.3	4	96.9	4	-1E+10	1	-1E+10	1	-1E+10	1	-1E+10	1	-1E+10	1	-1E+10	1
4902551	74	C	08/29/2022	18:10	-131.838	48.876	0	48.90	0	9.2560	0	32.2820	0	24.952	0	48.480	0	274.7	4	96.5	4	-1E+10	1	-1E+10	1	-1E+10	1	-1E+10	1	-1E+10	1	-1E+10	1
4902551	74	C	08/29/2022	18:10	-131.838	48.876	0	50.00	0	9.1830	0	32.2840	0	24.965	0	49.570	0	274.0	4	96.1	4	-1E+10	1	-1E+10	1	-1E+10	1	-1E+10	1	-1E+10	1	-1E+10	1
4902551	74	C	08/29/2022	18:10	-131.838	48.876	0	51.10	0	9.0690	0	32.2830	0	24.982	0	50.661	0	273.3	4	95.7	4	-1E+10	1	-1E+10	1	-1E+10	1	-1E+10	1	-1E+10	1	-1E+10	1
4902551	74	C	08/29/2022	18:10	-131.838	48.876	0	51.80	0	8.9240	0	32.2980	0	25.016	0	51.355	0	273.0	4	95.2	4	-1E+10	1	-1E+10	1	-1E+10	1	-1E+10	1	-1E+10	1	-1E+10	1
4902551	74	C	08/29/2022	18:10	-131.838	48.876	0	52.80	0	8.7420	0	32.2900	0	25.037	0	52.346	0	273.1	4	94.9	4	-1E+10	1	-1E+10	1	-1E+10	1	-1E+10	1	-1E+10	1	-1E+10	1
4902551	74	C	08/29/2022	18:10	-131.838	48.876	0	53.90	0	8.6550	0	32.2890	0	25.050	0	53.436	0	272.5	4	94.5	4	-1E+10	1	-1E+10	1	-1E+10	1	-1E+10	1	-1E+10	1	-1E+10	1
4902551	74	C	08/29/2022	18:10	-131.838	48.876	0	55.00	0	8.5440	0	32.2960	0	25.072	0	54.527	0	272.0	4	94.1	4	-1E+10	1	-1E+10	1	-1E+10	1	-1E+10	1	-1E+10	1	-1E+10	1
4902551	74	C	08/29/2022	18:10	-131.838	48.876	0	56.30	0	8.3920	0	32.3070	0	25.103	0	55.815	0	271.8	4	93.7	4	-1E+10	1	-1E+10	1	-1E+10	1	-1E+10	1	-1E+10	1	-1E+10	1
4902551	74	C	08/29/2022	18:10	-131.838	48.876	0	57.00	0	8.3250	0	32.3040	0	25.111	0	56.509	0	271.6	4	93.5	4	-1E+10	1	-1E+10	1	-1E+10	1	-1E+10	1	-1E+10	1	-1E+10	1
4902551	74	C	08/29/2022	18:10	-131.838	48.876	0	58.20	0	8.2940	0	32.3020	0	25.114	0	57.699	0	271.2	4	93.3	4	-1E+10	1	-1E+10	1	-1E+10	1	-1E+10	1	-1E+10	1	-1E+10	1
4902551	74	C	08/29/2022	18:10	-131.838	48.876	0	58.90	0	8.2880	0	32.3000	0	25.113	0	58.393	0	271.1	4	93.2	4	-1E+10	1	-1E+10	1	-1E+10	1	-1E+10	1	-1E+10	1	-1E+10	1
4902551	74	C	08/29/2022	18:10	-131.838	48.876	0	60.00	0	8.2630	0	32.3050	0	25.121	0	59.483	0	270.6	4	93.0	4	-1E+10	1	-1E+10	1	-1E+10	1	-1E+10	1	-1E+10	1	-1E+10	1
4902551	74	C	08/29/2022	18:10	-131.838	48.876	0	61.20	0	8.1490	0	32.3100	0	25.141	0	60.673	0	270.6	4	92.8	4	-1E+10	1	-1E+10	1	-1E+10	1	-1E+10	1	-1E+10	1	-1E+10	1
4902551	74	C	08/29/2022	18:10	-131.838	48.876	0	62.10	0	8.1270	0	32.3100	0	25.145	0	61.565	0	270.3	4	92.7	4	-1E+10	1	-1E+10	1	-1E+10	1	-1E+10	1	-1E+10	1	-1E+10	1
4902551	74	C	08/29/2022	18:10	-131.838	48.876	0	63.10	0	8.1170	0	32.3110	0	25.147	0	62.556	0	269.8	4	92.4	4	-1E+10	1	-1E+10	1	-1E+10	1	-1E+10	1	-1E+10	1	-1E+10	1
4902551	74	C	08/29/2022	18:10	-131.838	48.876	0	64.00	0	8.1070	0	32.3100	0	25.148	0	63.448	0	269.2	4	92.2	4	-1E+10	1	-1E+10	1	-1E+10	1	-1E+10	1	-1E+10	1	-1E+10	1
4902551	74	C	08/29/2022	18:10	-131.838	48.876	0	64.90	0	8.0830	0	32.3140	0	25.154	0	64.340	0	268.7	4	92.0	4	-1E+10	1	-1E+10	1	-1E+10	1	-1E+10	1	-1E+10	1	-1E+10	1
4902551	74	C	08/29/2022	18:10	-131.838	48.876	0	66.10	0	8.0330	0	32.3160	0	25.163	0	65.530	0	268.1	4	91.7	4	-1E+10	1	-1E+10	1	-1E+10	1	-1E+10	1	-1E+10	1	-1E+10	1
4902551	74	C	08/29/2022	18:10	-131.838	48.876	0	67.00	0	8.0010	0	32.3160	0	25.168	0	66.422	0	267.7	4	91.5	4	-1E+10	1	-1E+10	1	-1E+10	1	-1E+10	1	-1E+10	1	-1E+10	1
4902551	74	C	08/29/2022	18:10	-131.838	48.876	0	67.90	0	7.9530	0	32.3220	0	25.179	0	67.314	0	267.3	4	91.3	4	-1E+10	1	-1E+10	1	-1E+10	1	-1E+10	1	-1E+10	1	-1E+10	1
4902551	74	C	08/29/2022	18:10	-131.838	48.876	0	68.80	0	7.9040	0	32.3280	0	25.191	0	68.206	0	267.0	4	91.1	4	-1E+10	1	-1E+10	1	-1E+10	1	-1E+10	1	-1E+10	1	-1E+10	1
4902551	74	C	08/29/2022	18:10	-131.838	48.876	0	70.10	0	7.8280	0	32.3350	0	25.207	0	69.494	0	266.8	4	90.8	4	-1E+10	1	-1E+10	1	-1E+10	1	-1E+10	1	-1E+10	1	-1E+10	1
4902551	74	C	08/29/2022	18:10	-131.838	48.876	0	71.00	0	7.8130	0	32.3370	0	25.211	0	70.386	0	266.4	4	90.7	4	-1E+10	1	-1E+10	1	-1E+10	1	-1E+10	1	-1E+10	1	-1E+10	1
4902551	74	C	08/29/2022	18:10	-131.838	48.876	0	72.00	0	7.7750	0	32.3420	0	25.220	0	71.378	0	266.2	4	90.5	4	-1E+10	1	-1E+10	1	-1E+10	1	-1E+10	1	-1E+10	1	-1E+10	1
4902551	74	C	08/29/2022	18:10	-131.838	48.876	0	72.90	0	7.7540	0	32.3440	0	25.225	0	72.270	0	266.0	4	90.4	4	-1E+10	1	-1E+10	1	-1E+10	1	-1E+10	1	-1E+10	1	-1E+10	1
4902551	74	C	08/29/2022	18:10	-131.838	48.876	0	73.80	0	7.7340	0	32.3450	0	25.228	0	73.162	0	265.6	4	90.3	4	-1E+10	1	-1E+10	1	-1E+10	1	-1E+10	1	-1E+10	1	-1E+10	1
4902551	74	C	08/29/2022	18:10	-131.838	48.876	0	74.80	0	7.7120	0	32.3500	0	25.235	0	74.153	0	265.3	4	90.1	4	-1E+10	1	-1E+10	1	-1E+10	1	-1E+10	1	-1E+10	1	-1E+10	1
4902551	74	C	08/29/2022	18:10	-131.838	48.876	0	75.80	0	7.7040	0	32.3510	0	25.237	0	75.144	0	264.9	4	89.9	4	-1E+10	1	-1E+10	1	-1E+10	1	-1E+10	1	-1E+10	1	-1E+10	1
4902551	74	C	08/29/2022	18:10	-131.838	48.876	0	76.80	0	7.7020	0	32.3510	0	25.238	0	76.135	0	264.4	4	89.8	4	-1E+10	1	-1E+10	1	-1E+10	1	-1E+10	1	-1E+10	1	-1E+10	1
4902551	74	C	08/29/2022	18:10	-131.838	48.876	0	77.80	0	7.6990	0	32.3520	0	25.239	0	77.126	0	263.9	4	89.6	4	-1E+10	1	-1E+10	1	-1E+10	1	-1E+10	1	-1E+10	1	-1E+10	1
4902551	74	C	08/29/2022	18:10	-131.838	48.876	0	78.80	0	7.6960	0	32.3520	0	25.239	0	78.118	0	263.3	4	89.4	4	-1E+10	1	-1E+10	1	-1E+10	1	-1E+10	1	-1E+10	1	-1E+10	1
4902551	74	C	08/29/2022	18:10	-131.838	48.876	0	79.90	0	7.6690	0	32.3570	0	25.247	0	79.208	0	262.7	4	89.2	4	-1E+10	1	-1E+10	1	-1E+10	1	-1E+10	1	-1E+10	1	-1E+10	1
4902551	74	C	08/29/2022	18:10	-131.838	48.876	0	81.00	0	7.6530	0	32.3580	0	25.250	0	80.298	0	262.1	4	88.9	4	-1E+10	1	-1E+10	1	-1E+10	1	-1E+10	1	-1E+10	1	-1E+10	1
4902551	74	C	08/29/2022	18:10	-131.838	48.876	0	82.20	0	7.6190	0	32.3640	0	25.260	0	81.487	0	261.5	4	88.7	4	-1E+10	1	-1E+10	1	-1E+10	1	-1E+10	1	-1E+10	1	-1E+10	1
4902551	74	C	08/29/2022	18:10	-131.838	48.876	0	83.00	0	7.6090	0	32.3640	0	25.261	0	82.280	0	267.7	4	90.7	4	-1E+10	1	-1E+10	1	-1E+10	1	-1E+10	1	-1E+10	1	-1E+10	1
4902551	74	C	08/29/2022	18:10	-131.838	48.876	0	84.30	0	7.5830	0	32.3690	0	25.269	0	83.569	0	267.1	4	90.5	4	-1E+10	1	-1E+10	1	-1E+10	1	-1E+10	1	-1E+10	1	-1E+10	1
4902551	74	C	08/29/2022	18:10	-131.838	48.876	0	85.20	0	7.5370	0	32.3770	0	25.281	0	84.461	0	266.8	4	90.3	4	-1E+10	1	-1E+10	1	-1E+10	1	-1E+10	1	-1E+10	1	-1E+10	1
4902551	74	C	08/29/2022	18:10	-131.838	48.876	0	85.90	0	7.5100	0	32.3860	0	25.292	0	85.155	0	266.4	4	90.1	4	-1E+10	1	-1E+10	1	-1E+10	1	-1E+10	1	-1E+10	1	-1E+10	1
4902551	74	C	08/29/2022	18:10	-131.838	48.876	0	86.90	0	7.4650	0	32.3960	0	25.306	0	86.146	0	266.1	4	89.9	4	-1E+10	1	-1E+10	1	-1E+10	1	-1E+10	1	-1E+10	1	-1E+10	1
4902551	74	C	08/29/2022	18:10	-131.838	48.876	0	87.80	0	7.4290	0	32.4020	0	25.316	0	87.038	0	265.8	4	89.7	4	-1E+10	1	-1E+10	1	-1E+10	1	-1E+10	1	-1E+10	1	-1E+10	1
4902551	74	C	08/29/2022	18:10	-131.838	48.876	0	88.90	0	7.4200	0	32.4070	0	25.321	0	88.128	0	265.3	4	89.6	4	-1E+10	1	-1E+10	1	-1E+10	1	-1E+10	1	-1E+10	1	-1E+10	1
4902551	74	C	08/29/2022	18:10	-131.838	48.876	0	89.90	0	7.4130	0	32.4120	0	25.326	0	89.119	0	264.8	4	89.4	4	-1E+10	1	-1E+10	1	-1E+10	1	-1E+10	1	-1E+10	1	-1E+10	1
4902551	74	C	08/29/2022	18:10	-131.838	48.876	0	91.00	0	7.4070	0	32.4160	0	25.330	0	90.209	0	264.1	4	89.1	4	-1E+10	1	-1E+10	1	-1E+10	1	-1E+10	1	-1E+10	1	-1E+10	1
4902551	74	C	08/29/2022	18:10	-131.838	48.876	0	92.10	0	7.3940	0	32.4200	0	25.335	0	91.299	0	263.4	4	88.9	4	-1E+10	1	-1E+10	1	-1E+10	1	-1E+10	1	-1E+10	1	-1E+10	1
4902551	74	C	08/29/2022	18:10	-131.838	48.876	0	93.10	0	7.3750	0	32.4250	0	25.342	0	92.291	0	262.6	4	88.6	4	-1E+10	1	-1E+10	1	-1E+10	1	-1E+10	1	-1E+10	1	-1E+10	1
4902551	74	C	08/29/2022	18:10	-131.838	48.876	0	94.00	0	7.3590	0	32.4300	0	25.348	0	93.182	0	261.8	4	88.3	4	-1E+10	1	-1E+10	1	-1E+10	1	-1E+10	1	-1E+10	1	-1E+10	1
4902551	74	C	08/29/2022	18:10	-131.838	48.876	0	94.90	0	7.3450	0	32.4340	0	25.353	0	94.074	0	260.9	4	87.9	4	-1E+10	1	-1E+10	1	-1E+10	1	-1E+10	1	-1E+10	1	-1E+10	1
4902551	74	C	08/29/2022	18:10	-131.838	48.876	0	96.10	0	7.3150	0	32.4470	0	25.367	0	95.264	0	259.8	4	87.5	4	-1E+10	1	-1E+10	1	-1E+10	1	-1E+10	1	-1E+10	1	-1E+10	1
4902551	74	C	08/29/2022	18:10	-131.838	48.876	0	97.00	0	7.3040	0	32.4500	0	25.371	0	96.156	0	259.0	4	87.2	4	-1E+10	1	-1E+10	1	-1E+10	1	-1E+10	1	-1E+10	1	-1E+10	1
4902551	74	C	08/29/2022	18:10	-131.838	48.876	0	97.80	0	7.2930	0	32.4550	0	25.376	0	96.949	0	258.3	4	87.0	4	-1E+10	1	-1E+10	1	-1E+10	1	-1E+10	1	-1E+10	1	-1E+10	1
4902551	74	C	08/29/2022	18:10	-131.838	48.876	0	99.00	0	7.2840	0	32.4590	0	25.381	0	98.138	0	257.2	4	86.6	4	-1E+10	1	-1E+10	1	-1E+10	1	-1E+10	1	-1E+10	1	-1E+10	1
4902551	74	C	08/29/2022	18:10	-131.838	48.876	0	100.10	0	7.2670	0	32.4660	0	25.389	0	99.228	0	256.2	4	86.2	4	-1E+10	1	-1E+10	1	-1E+10	1	-1E+10	1	-1E+10	1	-1E+10	1
4902551	74	C	08/29/2022	18:10	-131.838	48.876	0	101.00	0	7.2400	0	32.4800	0	25.403	0	100.120	0	255.5	4	85.9	4	-1E+10	1	-1E+10	1	-1E+10	1	-1E+10	1	-1E+10	1	-1E+10	1
4902551	74	C	08/29/2022	18:10	-131.838	48.876	0	101.70	0	7.2130	0	32.4930	0	25.417	0	100.814	0	254.8	4	85.7	4	-1E+10	1	-1E+10	1	-1E+10	1	-1E+10	1	-1E+10	1	-1E+10	1
4902551	74	C	08/29/2022	18:10	-131.838	48.876	0	102.90	0	7.1930	0	32.5030	0	25.428	0	102.003	0	253.6	4	85.2	4	-1E+10	1	-1E+10	1	-1E+10	1	-1E+10	1	-1E+10	1	-1E+10	1
4902551	74	C	08/29/2022	18:10	-131.838	48.876	0	104.00	0	7.1820	0	32.5080	0	25.433	0	103.093	0	252.4	4	84.8	4	-1E+10	1	-1E+10	1	-1E+10	1	-1E+10	1	-1E+10	1	-1E+10	1
4902551	74	C	08/29/2022	18:10	-131.838	48.876	0	105.00	0	7.1510	0	32.5200	0	25.447	0	104.084	0	250.5	4	84.1	4	-1E+10	1	-1E+10	1	-1E+10	1	-1E+10	1	-1E+10	1	-1E+10	1
4902551	74	C	08/29/2022	18:10	-131.838	48.876	0	106.10	0	7.0330	0	32.5590	0	25.493	0	105.174	0	248.9	4	83.4	4	-1E+10	1	-1E+10	1	-1E+10	1	-1E+10	1	-1E+10	1	-1E+10	1
4902551	74	C	08/29/2022	18:10	-131.838	48.876	0	107.00	0	6.8930	0	32.5910	0	25.537	0	106.066	0	247.6	4	82.7	4	-1E+10	1	-1E+10	1	-1E+10	1	-1E+10	1	-1E+10	1	-1E+10	1
4902551	74	C	08/29/2022	18:10	-131.838	48.876	0	107.90	0	6.8470	0	32.6150	0	25.562	0	106.958	0	245.3	4	81.9	4	-1E+10	1	-1E+10	1	-1E+10	1	-1E+10	1	-1E+10	1	-1E+10	1
4902551	74	C	08/29/2022	18:10	-131.838	48.876	0	108.90	0	6.8330	0	32.6290	0	25.575	0	107.949	0	243.4	4	81.2	4	-1E+10	1	-1E+10	1	-1E+10	1	-1E+10	1	-1E+10	1	-1E+10	1
4902551	74	C	08/29/2022	18:10	-131.838	48.876	0	110.00	0	6.8030	0	32.6450	0	25.592	0	109.039	0	241.9	4	80.7	4	-1E+10	1	-1E+10	1	-1E+10	1	-1E+10	1	-1E+10	1	-1E+10	1
4902551	74	C	08/29/2022	18:10	-131.838	48.876	0	111.20	0	6.7810	0	32.6620	0	25.608	0	110.228	0	240.0	4	80.0	4	-1E+10	1	-1E+10	1	-1E+10	1	-1E+10	1	-1E+10	1	-1E+10	1
4902551	74	C	08/29/2022	18:10	-131.838	48.876	0	111.80	0	6.7200	0	32.6790	0	25.629	0	110.823	0	238.7	4	79.4	4	-1E+10	1	-1E+10	1	-1E+10	1	-1E+10	1	-1E+10	1	-1E+10	1
4902551	74	C	08/29/2022	18:10	-131.838	48.876	0	112.80	0	6.6620	0	32.7000	0	25.653	0	111.814	0	236.7	4	78.7	4	-1E+10	1	-1E+10	1	-1E+10	1	-1E+10	1	-1E+10	1	-1E+10	1
4902551	74	C	08/29/2022	18:10	-131.838	48.876	0	113.80	0	6.6500	0	32.7140	0	25.666	0	112.805	0	234.5	4	78.0	4	-1E+10	1	-1E+10	1	-1E+10	1	-1E+10	1	-1E+10	1	-1E+10	1
4902551	74	C	08/29/2022	18:10	-131.838	48.876	0	114.90	0	6.6410	0	32.7380	0	25.686	0	113.895	0	232.1	4	77.2	4	-1E+10	1	-1E+10	1	-1E+10	1	-1E+10	1	-1E+10	1	-1E+10	1
4902551	74	C	08/29/2022	18:10	-131.838	48.876	0	116.10	0	6.6120	0	32.7770	0	25.721	0	115.084	0	229.5	4	76.3	4	-1E+10	1	-1E+10	1	-1E+10	1	-1E+10	1	-1E+10	1	-1E+10	1
4902551	74	C	08/29/2022	18:10	-131.838	48.876	0	117.00	0	6.5750	0	32.8170	0	25.757	0	115.976	0	227.7	4	75.6	4	-1E+10	1	-1E+10	1	-1E+10	1	-1E+10	1	-1E+10	1	-1E+10	1
4902551	74	C	08/29/2022	18:10	-131.838	48.876	0	118.00	0	6.5660	0	32.8640	0	25.795	0	116.967	0	226.2	4	75.1	4	-1E+10	1	-1E+10	1	-1E+10	1	-1E+10	1	-1E+10	1	-1E+10	1
4902551	74	C	08/29/2022	18:10	-131.838	48.876	0	119.00	0	6.5630	0	32.8850	0	25.812	0	117.958	0	224.7	4	74.6	4	-1E+10	1	-1E+10	1	-1E+10	1	-1E+10	1	-1E+10	1	-1E+10	1
4902551	74	C	08/29/2022	18:10	-131.838	48.876	0	119.90	0	6.5460	0	32.9300	0	25.850	0	118.850	0	223.3	4	74.2	4	-1E+10	1	-1E+10	1	-1E+10	1	-1E+10	1	-1E+10	1	-1E+10	1
4902551	74	C	08/29/2022	18:10	-131.838	48.876	0	120.80	0	6.4960	0	32.9520	0	25.874	0	119.742	0	222.0	4	73.7	4	-1E+10	1	-1E+10	1	-1E+10	1	-1E+10	1	-1E+10	1	-1E+10	1
4902551	74	C	08/29/2022	18:10	-131.838	48.876	0	121.80	0	6.4710	0	32.9540	0	25.878	0	120.733	0	220.5	4	73.1	4	-1E+10	1	-1E+10	1	-1E+10	1	-1E+10	1	-1E+10	1	-1E+10	1
4902551	74	C	08/29/2022	18:10	-131.838	48.876	0	123.00	0	6.4690	0	32.9790	0	25.898	0	121.922	0	218.3	4	72.4	4	-1E+10	1	-1E+10	1	-1E+10	1	-1E+10	1	-1E+10	1	-1E+10	1
4902551	74	C	08/29/2022	18:10	-131.838	48.876	0	123.90	0	6.4100	0	33.0350	0	25.950	0	122.814	0	216.7	4	71.8	4	-1E+10	1	-1E+10	1	-1E+10	1	-1E+10	1	-1E+10	1	-1E+10	1
4902551	74	C	08/29/2022	18:10	-131.838	48.876	0	124.80	0	6.3630	0	33.0810	0	25.992	0	123.705	0	215.6	4	71.4	4	-1E+10	1	-1E+10	1	-1E+10	1	-1E+10	1	-1E+10	1	-1E+10	1
4902551	74	C	08/29/2022	18:10	-131.838	48.876	0	125.80	0	6.3520	0	33.1050	0	26.013	0	124.696	0	214.6	4	71.1	4	-1E+10	1	-1E+10	1	-1E+10	1	-1E+10	1	-1E+10	1	-1E+10	1
4902551	74	C	08/29/2022	18:10	-131.838	48.876	0	126.80	0	6.3460	0	33.1180	0	26.024	0	125.687	0	213.7	4	70.8	4	-1E+10	1	-1E+10	1	-1E+10	1	-1E+10	1	-1E+10	1	-1E+10	1
4902551	74	C	08/29/2022	18:10	-131.838	48.876	0	128.00	0	6.3430	0	33.1240	0	26.029	0	126.876	0	212.5	4	70.4	4	-1E+10	1	-1E+10	1	-1E+10	1	-1E+10	1	-1E+10	1	-1E+10	1
4902551	74	C	08/29/2022	18:10	-131.838	48.876	0	129.00	0	6.3420	0	33.1280	0	26.032	0	127.867	0	211.5	4	70.0	4	-1E+10	1	-1E+10	1	-1E+10	1	-1E+10	1	-1E+10	1	-1E+10	1
4902551	74	C	08/29/2022	18:10	-131.838	48.876	0	129.90	0	6.3400	0	33.1300	0	26.034	0	128.759	0	210.0	4	69.5	4	-1E+10	1	-1E+10	1	-1E+10	1	-1E+10	1	-1E+10	1	-1E+10	1
4902551	74	C	08/29/2022	18:10	-131.838	48.876	0	131.10	0	6.3340	0	33.1400	0	26.043	0	129.948	0	207.9	4	68.8	4	-1E+10	1	-1E+10	1	-1E+10	1	-1E+10	1	-1E+10	1	-1E+10	1
4902551	74	C	08/29/2022	18:10	-131.838	48.876	0	132.00	0	6.3300	0	33.1470	0	26.049	0	130.840	0	206.2	4	68.3	4	-1E+10	1	-1E+10	1	-1E+10	1	-1E+10	1	-1E+10	1	-1E+10	1
4902551	74	C	08/29/2022	18:10	-131.838	48.876	0	133.00	0	6.3260	0	33.1520	0	26.053	0	131.831	0	204.4	4	67.7	4	-1E+10	1	-1E+10	1	-1E+10	1	-1E+10	1	-1E+10	1	-1E+10	1
4902551	74	C	08/29/2022	18:10	-131.838	48.876	0	133.90	0	6.3230	0	33.1600	0	26.060	0	132.723	0	202.3	4	67.0	4	-1E+10	1	-1E+10	1	-1E+10	1	-1E+10	1	-1E+10	1	-1E+10	1
4902551	74	C	08/29/2022	18:10	-131.838	48.876	0	134.80	0	6.3120	0	33.1760	0	26.074	0	133.614	0	200.0	4	66.2	4	-1E+10	1	-1E+10	1	-1E+10	1	-1E+10	1	-1E+10	1	-1E+10	1
4902551	74	C	08/29/2022	18:10	-131.838	48.876	0	135.90	0	6.2890	0	33.2230	0	26.114	0	134.704	0	198.0	4	65.5	4	-1E+10	1	-1E+10	1	-1E+10	1	-1E+10	1	-1E+10	1	-1E+10	1
4902551	74	C	08/29/2022	18:10	-131.838	48.876	0	136.90	0	6.2750	0	33.2490	0	26.136	0	135.695	0	196.4	4	65.0	4	-1E+10	1	-1E+10	1	-1E+10	1	-1E+10	1	-1E+10	1	-1E+10	1
4902551	74	C	08/29/2022	18:10	-131.838	48.876	0	138.00	0	6.2710	0	33.2590	0	26.145	0	136.785	0	194.5	4	64.4	4	-1E+10	1	-1E+10	1	-1E+10	1	-1E+10	1	-1E+10	1	-1E+10	1
4902551	74	C	08/29/2022	18:10	-131.838	48.876	0	138.70	0	6.2650	0	33.2670	0	26.152	0	137.479	0	193.2	4	63.9	4	-1E+10	1	-1E+10	1	-1E+10	1	-1E+10	1	-1E+10	1	-1E+10	1
4902551	74	C	08/29/2022	18:10	-131.838	48.876	0	139.90	0	6.2520	0	33.2970	0	26.177	0	138.668	0	191.2	4	63.3	4	-1E+10	1	-1E+10	1	-1E+10	1	-1E+10	1	-1E+10	1	-1E+10	1
4902551	74	C	08/29/2022	18:10	-131.838	48.876	0	141.10	0	6.2340	0	33.3360	0	26.210	0	139.857	0	188.8	4	62.4	4	-1E+10	1	-1E+10	1	-1E+10	1	-1E+10	1	-1E+10	1	-1E+10	1
4902551	74	C	08/29/2022	18:10	-131.838	48.876	0	142.00	0	6.2300	0	33.3610	0	26.230	0	140.749	0	187.6	4	62.0	4	-1E+10	1	-1E+10	1	-1E+10	1	-1E+10	1	-1E+10	1	-1E+10	1
4902551	74	C	08/29/2022	18:10	-131.838	48.876	0	142.80	0	6.2240	0	33.3710	0	26.239	0	141.541	0	186.5	4	61.7	4	-1E+10	1	-1E+10	1	-1E+10	1	-1E+10	1	-1E+10	1	-1E+10	1
4902551	74	C	08/29/2022	18:10	-131.838	48.876	0	143.70	0	6.2160	0	33.3890	0	26.254	0	142.433	0	185.5	4	61.4	4	-1E+10	1	-1E+10	1	-1E+10	1	-1E+10	1	-1E+10	1	-1E+10	1
4902551	74	C	08/29/2022	18:10	-131.838	48.876	0	144.60	0	6.2110	0	33.4010	0	26.264	0	143.325	0	184.5	4	61.0	4	-1E+10	1	-1E+10	1	-1E+10	1	-1E+10	1	-1E+10	1	-1E+10	1
4902551	74	C	08/29/2022	18:10	-131.838	48.876	0	145.90	0	6.2070	0	33.4140	0	26.275	0	144.613	0	182.9	4	60.5	4	-1E+10	1	-1E+10	1	-1E+10	1	-1E+10	1	-1E+10	1	-1E+10	1
4902551	74	C	08/29/2022	18:10	-131.838	48.876	0	147.40	0	6.2070	0	33.4300	0	26.288	0	146.099	0	181.4	4	60.0	4	-1E+10	1	-1E+10	1	-1E+10	1	-1E+10	1	-1E+10	1	-1E+10	1
4902551	74	C	08/29/2022	18:10	-131.838	48.876	0	148.30	0	6.2060	0	33.4330	0	26.290	0	146.991	0	180.3	4	59.6	4	-1E+10	1	-1E+10	1	-1E+10	1	-1E+10	1	-1E+10	1	-1E+10	1
4902551	74	C	08/29/2022	18:10	-131.838	48.876	0	149.20	0	6.2060	0	33.4380	0	26.294	0	147.883	0	178.9	4	59.2	4	-1E+10	1	-1E+10	1	-1E+10	1	-1E+10	1	-1E+10	1	-1E+10	1
4902551	74	C	08/29/2022	18:10	-131.838	48.876	0	150.20	0	6.1990	0	33.4420	0	26.298	0	148.873	0	177.3	4	58.6	4	-1E+10	1	-1E+10	1	-1E+10	1	-1E+10	1	-1E+10	1	-1E+10	1
4902551	74	C	08/29/2022	18:10	-131.838	48.876	0	151.10	0	6.1970	0	33.4430	0	26.299	0	149.765	0	175.4	4	58.0	4	-1E+10	1	-1E+10	1	-1E+10	1	-1E+10	1	-1E+10	1	-1E+10	1
4902551	74	C	08/29/2022	18:10	-131.838	48.876	0	152.10	0	6.1920	0	33.4530	0	26.308	0	150.756	0	173.6	4	57.4	4	-1E+10	1	-1E+10	1	-1E+10	1	-1E+10	1	-1E+10	1	-1E+10	1
4902551	74	C	08/29/2022	18:10	-131.838	48.876	0	153.10	0	6.1930	0	33.4720	0	26.323	0	151.747	0	171.9	4	56.9	4	-1E+10	1	-1E+10	1	-1E+10	1	-1E+10	1	-1E+10	1	-1E+10	1
4902551	74	C	08/29/2022	18:10	-131.838	48.876	0	154.00	0	6.1910	0	33.4780	0	26.328	0	152.639	0	170.2	4	56.3	4	-1E+10	1	-1E+10	1	-1E+10	1	-1E+10	1	-1E+10	1	-1E+10	1
4902551	74	C	08/29/2022	18:10	-131.838	48.876	0	155.00	0	6.1860	0	33.4950	0	26.342	0	153.629	0	168.5	4	55.7	4	-1E+10	1	-1E+10	1	-1E+10	1	-1E+10	1	-1E+10	1	-1E+10	1
4902551	74	C	08/29/2022	18:10	-131.838	48.876	0	155.90	0	6.1820	0	33.5000	0	26.346	0	154.521	0	166.3	4	55.0	4	-1E+10	1	-1E+10	1	-1E+10	1	-1E+10	1	-1E+10	1	-1E+10	1
4902551	74	C	08/29/2022	18:10	-131.838	48.876	0	156.90	0	6.1710	0	33.5320	0	26.373	0	155.512	0	164.0	4	54.2	4	-1E+10	1	-1E+10	1	-1E+10	1	-1E+10	1	-1E+10	1	-1E+10	1
4902551	74	C	08/29/2022	18:10	-131.838	48.876	0	157.90	0	6.1640	0	33.5560	0	26.393	0	156.503	0	162.2	4	53.7	4	-1E+10	1	-1E+10	1	-1E+10	1	-1E+10	1	-1E+10	1	-1E+10	1
4902551	74	C	08/29/2022	18:10	-131.838	48.876	0	159.00	0	6.1520	0	33.5930	0	26.424	0	157.592	0	161.2	4	53.3	4	-1E+10	1	-1E+10	1	-1E+10	1	-1E+10	1	-1E+10	1	-1E+10	1
4902551	74	C	08/29/2022	18:10	-131.838	48.876	0	160.00	0	6.1320	0	33.6160	0	26.444	0	158.583	0	160.6	4	53.1	4	-1E+10	1	-1E+10	1	-1E+10	1	-1E+10	1	-1E+10	1	-1E+10	1
4902551	74	C	08/29/2022	18:10	-131.838	48.876	0	161.10	0	6.1270	0	33.6230	0	26.451	0	159.673	0	160.0	4	52.9	4	-1E+10	1	-1E+10	1	-1E+10	1	-1E+10	1	-1E+10	1	-1E+10	1
4902551	74	C	08/29/2022	18:10	-131.838	48.876	0	162.10	0	6.1270	0	33.6240	0	26.451	0	160.664	0	159.3	4	52.7	4	-1E+10	1	-1E+10	1	-1E+10	1	-1E+10	1	-1E+10	1	-1E+10	1
4902551	74	C	08/29/2022	18:10	-131.838	48.876	0	163.20	0	6.1260	0	33.6250	0	26.452	0	161.754	0	158.6	4	52.4	4	-1E+10	1	-1E+10	1	-1E+10	1	-1E+10	1	-1E+10	1	-1E+10	1
4902551	74	C	08/29/2022	18:10	-131.838	48.876	0	164.20	0	6.1250	0	33.6260	0	26.453	0	162.744	0	157.7	4	52.2	4	-1E+10	1	-1E+10	1	-1E+10	1	-1E+10	1	-1E+10	1	-1E+10	1
4902551	74	C	08/29/2022	18:10	-131.838	48.876	0	165.30	0	6.1240	0	33.6270	0	26.454	0	163.834	0	156.7	4	51.8	4	-1E+10	1	-1E+10	1	-1E+10	1	-1E+10	1	-1E+10	1	-1E+10	1
4902551	74	C	08/29/2022	18:10	-131.838	48.876	0	166.30	0	6.1230	0	33.6280	0	26.455	0	164.825	0	155.7	4	51.5	4	-1E+10	1	-1E+10	1	-1E+10	1	-1E+10	1	-1E+10	1	-1E+10	1
4902551	74	C	08/29/2022	18:10	-131.838	48.876	0	167.30	0	6.1160	0	33.6350	0	26.461	0	165.816	0	154.5	4	51.1	4	-1E+10	1	-1E+10	1	-1E+10	1	-1E+10	1	-1E+10	1	-1E+10	1
4902551	74	C	08/29/2022	18:10	-131.838	48.876	0	168.40	0	6.1130	0	33.6380	0	26.464	0	166.905	0	153.2	4	50.7	4	-1E+10	1	-1E+10	1	-1E+10	1	-1E+10	1	-1E+10	1	-1E+10	1
4902551	74	C	08/29/2022	18:10	-131.838	48.876	0	169.40	0	6.1030	0	33.6450	0	26.471	0	167.896	0	151.9	4	50.2	4	-1E+10	1	-1E+10	1	-1E+10	1	-1E+10	1	-1E+10	1	-1E+10	1
4902551	74	C	08/29/2022	18:10	-131.838	48.876	0	170.50	0	6.0780	0	33.6600	0	26.486	0	168.986	0	150.7	4	49.8	4	-1E+10	1	-1E+10	1	-1E+10	1	-1E+10	1	-1E+10	1	-1E+10	1
4902551	74	C	08/29/2022	18:10	-131.838	48.876	0	171.60	0	6.0590	0	33.6660	0	26.493	0	170.076	0	149.7	4	49.4	4	-1E+10	1	-1E+10	1	-1E+10	1	-1E+10	1	-1E+10	1	-1E+10	1
4902551	74	C	08/29/2022	18:10	-131.838	48.876	0	173.00	0	6.0560	0	33.6680	0	26.495	0	171.463	0	148.4	4	49.0	4	-1E+10	1	-1E+10	1	-1E+10	1	-1E+10	1	-1E+10	1	-1E+10	1
4902551	74	C	08/29/2022	18:10	-131.838	48.876	0	175.00	0	6.0360	0	33.6780	0	26.506	0	173.444	0	146.0	4	48.2	4	-1E+10	1	-1E+10	1	-1E+10	1	-1E+10	1	-1E+10	1	-1E+10	1
4902551	74	C	08/29/2022	18:10	-131.838	48.876	0	176.20	0	6.0250	0	33.6790	0	26.508	0	174.633	0	144.6	4	47.7	4	-1E+10	1	-1E+10	1	-1E+10	1	-1E+10	1	-1E+10	1	-1E+10	1
4902551	74	C	08/29/2022	18:10	-131.838	48.876	0	177.00	0	6.0290	0	33.6810	0	26.509	0	175.425	0	143.4	4	47.3	4	-1E+10	1	-1E+10	1	-1E+10	1	-1E+10	1	-1E+10	1	-1E+10	1
4902551	74	C	08/29/2022	18:10	-131.838	48.876	0	177.80	0	5.9930	0	33.6940	0	26.524	0	176.218	0	142.4	4	47.0	4	-1E+10	1	-1E+10	1	-1E+10	1	-1E+10	1	-1E+10	1	-1E+10	1
4902551	74	C	08/29/2022	18:10	-131.838	48.876	0	179.00	0	5.9730	0	33.6990	0	26.530	0	177.407	0	141.0	4	46.5	4	-1E+10	1	-1E+10	1	-1E+10	1	-1E+10	1	-1E+10	1	-1E+10	1
4902551	74	C	08/29/2022	18:10	-131.838	48.876	0	180.20	0	5.9310	0	33.7130	0	26.546	0	178.596	0	139.7	4	46.0	4	-1E+10	1	-1E+10	1	-1E+10	1	-1E+10	1	-1E+10	1	-1E+10	1
4902551	74	C	08/29/2022	18:10	-131.838	48.876	0	181.10	0	5.9120	0	33.7180	0	26.553	0	179.487	0	138.8	4	45.7	4	-1E+10	1	-1E+10	1	-1E+10	1	-1E+10	1	-1E+10	1	-1E+10	1
4902551	74	C	08/29/2022	18:10	-131.838	48.876	0	181.90	0	5.9070	0	33.7180	0	26.553	0	180.280	0	137.9	4	45.4	4	-1E+10	1	-1E+10	1	-1E+10	1	-1E+10	1	-1E+10	1	-1E+10	1
4902551	74	C	08/29/2022	18:10	-131.838	48.876	0	182.70	0	5.9030	0	33.7190	0	26.555	0	181.072	0	136.9	4	45.1	4	-1E+10	1	-1E+10	1	-1E+10	1	-1E+10	1	-1E+10	1	-1E+10	1
4902551	74	C	08/29/2022	18:10	-131.838	48.876	0	183.90	0	5.8910	0	33.7210	0	26.558	0	182.261	0	135.4	4	44.6	4	-1E+10	1	-1E+10	1	-1E+10	1	-1E+10	1	-1E+10	1	-1E+10	1
4902551	74	C	08/29/2022	18:10	-131.838	48.876	0	185.20	0	5.8510	0	33.7320	0	26.571	0	183.549	0	133.9	4	44.0	4	-1E+10	1	-1E+10	1	-1E+10	1	-1E+10	1	-1E+10	1	-1E+10	1
4902551	74	C	08/29/2022	18:10	-131.838	48.876	0	186.00	0	5.8340	0	33.7380	0	26.578	0	184.341	0	132.9	4	43.7	4	-1E+10	1	-1E+10	1	-1E+10	1	-1E+10	1	-1E+10	1	-1E+10	1
4902551	74	C	08/29/2022	18:10	-131.838	48.876	0	186.90	0	5.8100	0	33.7420	0	26.584	0	185.233	0	132.1	4	43.4	4	-1E+10	1	-1E+10	1	-1E+10	1	-1E+10	1	-1E+10	1	-1E+10	1
4902551	74	C	08/29/2022	18:10	-131.838	48.876	0	187.70	0	5.7690	0	33.7580	0	26.602	0	186.025	0	131.3	4	43.1	4	-1E+10	1	-1E+10	1	-1E+10	1	-1E+10	1	-1E+10	1	-1E+10	1
4902551	74	C	08/29/2022	18:10	-131.838	48.876	0	189.00	0	5.7320	0	33.7540	0	26.603	0	187.313	0	130.5	4	42.8	4	-1E+10	1	-1E+10	1	-1E+10	1	-1E+10	1	-1E+10	1	-1E+10	1
4902551	74	C	08/29/2022	18:10	-131.838	48.876	0	190.30	0	5.7160	0	33.7580	0	26.608	0	188.601	0	129.6	4	42.5	4	-1E+10	1	-1E+10	1	-1E+10	1	-1E+10	1	-1E+10	1	-1E+10	1
4902551	74	C	08/29/2022	18:10	-131.838	48.876	0	191.20	0	5.6920	0	33.7610	0	26.614	0	189.493	0	129.2	4	42.3	4	-1E+10	1	-1E+10	1	-1E+10	1	-1E+10	1	-1E+10	1	-1E+10	1
4902551	74	C	08/29/2022	18:10	-131.838	48.876	0	192.00	0	5.6780	0	33.7630	0	26.617	0	190.285	0	128.8	4	42.2	4	-1E+10	1	-1E+10	1	-1E+10	1	-1E+10	1	-1E+10	1	-1E+10	1
4902551	74	C	08/29/2022	18:10	-131.838	48.876	0	192.90	0	5.6700	0	33.7620	0	26.617	0	191.177	0	128.3	4	42.0	4	-1E+10	1	-1E+10	1	-1E+10	1	-1E+10	1	-1E+10	1	-1E+10	1
4902551	74	C	08/29/2022	18:10	-131.838	48.876	0	193.80	0	5.6670	0	33.7630	0	26.618	0	192.068	0	127.9	4	41.9	4	-1E+10	1	-1E+10	1	-1E+10	1	-1E+10	1	-1E+10	1	-1E+10	1
4902551	74	C	08/29/2022	18:10	-131.838	48.876	0	194.70	0	5.6650	0	33.7620	0	26.618	0	192.960	0	127.2	4	41.7	4	-1E+10	1	-1E+10	1	-1E+10	1	-1E+10	1	-1E+10	1	-1E+10	1
4902551	74	C	08/29/2022	18:10	-131.838	48.876	0	195.90	0	5.6550	0	33.7660	0	26.622	0	194.148	0	126.2	4	41.3	4	-1E+10	1	-1E+10	1	-1E+10	1	-1E+10	1	-1E+10	1	-1E+10	1
4902551	74	C	08/29/2022	18:10	-131.838	48.876	0	197.30	0	5.6340	0	33.7680	0	26.626	0	195.535	0	125.3	4	41.0	4	-1E+10	1	-1E+10	1	-1E+10	1	-1E+10	1	-1E+10	1	-1E+10	1
4902551	74	C	08/29/2022	18:10	-131.838	48.876	0	198.10	0	5.6240	0	33.7680	0	26.627	0	196.328	0	124.6	4	40.8	4	-1E+10	1	-1E+10	1	-1E+10	1	-1E+10	1	-1E+10	1	-1E+10	1
4902551	74	C	08/29/2022	18:10	-131.838	48.876	0	199.00	0	5.6130	0	33.7710	0	26.631	0	197.219	0	123.8	4	40.5	4	-1E+10	1	-1E+10	1	-1E+10	1	-1E+10	1	-1E+10	1	-1E+10	1
4902551	74	C	08/29/2022	18:10	-131.838	48.876	0	199.90	0	5.6020	0	33.7700	0	26.632	0	198.111	0	123.2	4	40.3	4	-1E+10	1	-1E+10	1	-1E+10	1	-1E+10	1	-1E+10	1	-1E+10	1
4902551	74	C	08/29/2022	18:10	-131.838	48.876	0	200.80	0	5.5890	0	33.7730	0	26.636	0	199.002	0	122.3	4	40.0	4	-1E+10	1	-1E+10	1	-1E+10	1	-1E+10	1	-1E+10	1	-1E+10	1
4902551	74	C	08/29/2022	18:10	-131.838	48.876	0	201.70	0	5.5530	0	33.7810	0	26.646	0	199.894	0	122.0	4	39.8	4	-1E+10	1	-1E+10	1	-1E+10	1	-1E+10	1	-1E+10	1	-1E+10	1
4902551	74	C	08/29/2022	18:10	-131.838	48.876	0	202.60	0	5.5400	0	33.7790	0	26.646	0	200.785	0	121.6	4	39.7	4	-1E+10	1	-1E+10	1	-1E+10	1	-1E+10	1	-1E+10	1	-1E+10	1
4902551	74	C	08/29/2022	18:10	-131.838	48.876	0	203.90	0	5.5230	0	33.7820	0	26.651	0	202.073	0	121.0	4	39.5	4	-1E+10	1	-1E+10	1	-1E+10	1	-1E+10	1	-1E+10	1	-1E+10	1
4902551	74	C	08/29/2022	18:10	-131.838	48.876	0	205.30	0	5.5180	0	33.7810	0	26.651	0	203.460	0	120.4	4	39.3	4	-1E+10	1	-1E+10	1	-1E+10	1	-1E+10	1	-1E+10	1	-1E+10	1
4902551	74	C	08/29/2022	18:10	-131.838	48.876	0	206.20	0	5.5170	0	33.7820	0	26.651	0	204.351	0	120.0	4	39.2	4	-1E+10	1	-1E+10	1	-1E+10	1	-1E+10	1	-1E+10	1	-1E+10	1
4902551	74	C	08/29/2022	18:10	-131.838	48.876	0	207.10	0	5.5080	0	33.7830	0	26.653	0	205.243	0	119.6	4	39.0	4	-1E+10	1	-1E+10	1	-1E+10	1	-1E+10	1	-1E+10	1	-1E+10	1
4902551	74	C	08/29/2022	18:10	-131.838	48.876	0	208.00	0	5.4960	0	33.7850	0	26.656	0	206.134	0	119.2	4	38.9	4	-1E+10	1	-1E+10	1	-1E+10	1	-1E+10	1	-1E+10	1	-1E+10	1
4902551	74	C	08/29/2022	18:10	-131.838	48.876	0	209.00	0	5.4940	0	33.7850	0	26.657	0	207.125	0	118.8	4	38.7	4	-1E+10	1	-1E+10	1	-1E+10	1	-1E+10	1	-1E+10	1	-1E+10	1
4902551	74	C	08/29/2022	18:10	-131.838	48.876	0	209.90	0	5.4910	0	33.7850	0	26.657	0	208.016	0	118.4	4	38.6	4	-1E+10	1	-1E+10	1	-1E+10	1	-1E+10	1	-1E+10	1	-1E+10	1
4902551	74	C	08/29/2022	18:10	-131.838	48.876	0	210.80	0	5.4850	0	33.7860	0	26.658	0	208.908	0	118.0	4	38.5	4	-1E+10	1	-1E+10	1	-1E+10	1	-1E+10	1	-1E+10	1	-1E+10	1
4902551	74	C	08/29/2022	18:10	-131.838	48.876	0	211.70	0	5.4610	0	33.7900	0	26.665	0	209.799	0	117.7	4	38.4	4	-1E+10	1	-1E+10	1	-1E+10	1	-1E+10	1	-1E+10	1	-1E+10	1
4902551	74	C	08/29/2022	18:10	-131.838	48.876	0	212.60	0	5.4510	0	33.7900	0	26.666	0	210.691	0	117.4	4	38.3	4	-1E+10	1	-1E+10	1	-1E+10	1	-1E+10	1	-1E+10	1	-1E+10	1
4902551	74	C	08/29/2022	18:10	-131.838	48.876	0	213.50	0	5.4440	0	33.7920	0	26.668	0	211.582	0	117.1	4	38.2	4	-1E+10	1	-1E+10	1	-1E+10	1	-1E+10	1	-1E+10	1	-1E+10	1
4902551	74	C	08/29/2022	18:10	-131.838	48.876	0	214.90	0	5.4330	0	33.7900	0	26.668	0	212.969	0	116.7	4	38.0	4	-1E+10	1	-1E+10	1	-1E+10	1	-1E+10	1	-1E+10	1	-1E+10	1
4902551	74	C	08/29/2022	18:10	-131.838	48.876	0	216.40	0	5.4110	0	33.7920	0	26.672	0	214.454	0	116.3	4	37.9	4	-1E+10	1	-1E+10	1	-1E+10	1	-1E+10	1	-1E+10	1	-1E+10	1
4902551	74	C	08/29/2022	18:10	-131.838	48.876	0	217.30	0	5.3990	0	33.7940	0	26.675	0	215.346	0	116.1	4	37.8	4	-1E+10	1	-1E+10	1	-1E+10	1	-1E+10	1	-1E+10	1	-1E+10	1
4902551	74	C	08/29/2022	18:10	-131.838	48.876	0	218.30	0	5.3960	0	33.7940	0	26.675	0	216.336	0	115.8	4	37.7	4	-1E+10	1	-1E+10	1	-1E+10	1	-1E+10	1	-1E+10	1	-1E+10	1
4902551	74	C	08/29/2022	18:10	-131.838	48.876	0	219.30	0	5.3960	0	33.7930	0	26.675	0	217.327	0	115.5	4	37.6	4	-1E+10	1	-1E+10	1	-1E+10	1	-1E+10	1	-1E+10	1	-1E+10	1
4902551	74	C	08/29/2022	18:10	-131.838	48.876	0	220.20	0	5.3940	0	33.7930	0	26.675	0	218.218	0	115.2	4	37.5	4	-1E+10	1	-1E+10	1	-1E+10	1	-1E+10	1	-1E+10	1	-1E+10	1
4902551	74	C	08/29/2022	18:10	-131.838	48.876	0	221.20	0	5.3940	0	33.7930	0	26.675	0	219.209	0	114.8	4	37.3	4	-1E+10	1	-1E+10	1	-1E+10	1	-1E+10	1	-1E+10	1	-1E+10	1
4902551	74	C	08/29/2022	18:10	-131.838	48.876	0	222.20	0	5.3930	0	33.7930	0	26.675	0	220.199	0	114.3	4	37.2	4	-1E+10	1	-1E+10	1	-1E+10	1	-1E+10	1	-1E+10	1	-1E+10	1
4902551	74	C	08/29/2022	18:10	-131.838	48.876	0	223.10	0	5.3920	0	33.7930	0	26.675	0	221.091	0	113.8	4	37.0	4	-1E+10	1	-1E+10	1	-1E+10	1	-1E+10	1	-1E+10	1	-1E+10	1
4902551	74	C	08/29/2022	18:10	-131.838	48.876	0	224.10	0	5.3890	0	33.7940	0	26.676	0	222.081	0	113.3	4	36.9	4	-1E+10	1	-1E+10	1	-1E+10	1	-1E+10	1	-1E+10	1	-1E+10	1
4902551	74	C	08/29/2022	18:10	-131.838	48.876	0	225.10	0	5.3900	0	33.7920	0	26.675	0	223.072	0	112.6	4	36.7	4	-1E+10	1	-1E+10	1	-1E+10	1	-1E+10	1	-1E+10	1	-1E+10	1
4902551	74	C	08/29/2022	18:10	-131.838	48.876	0	226.00	0	5.3890	0	33.7930	0	26.676	0	223.963	0	112.0	4	36.4	4	-1E+10	1	-1E+10	1	-1E+10	1	-1E+10	1	-1E+10	1	-1E+10	1
4902551	74	C	08/29/2022	18:10	-131.838	48.876	0	227.00	0	5.3880	0	33.7930	0	26.676	0	224.953	0	111.2	4	36.2	4	-1E+10	1	-1E+10	1	-1E+10	1	-1E+10	1	-1E+10	1	-1E+10	1
4902551	74	C	08/29/2022	18:10	-131.838	48.876	0	228.00	0	5.3860	0	33.7920	0	26.675	0	225.944	0	110.3	4	35.9	4	-1E+10	1	-1E+10	1	-1E+10	1	-1E+10	1	-1E+10	1	-1E+10	1
4902551	74	C	08/29/2022	18:10	-131.838	48.876	0	229.00	0	5.3770	0	33.7940	0	26.678	0	226.934	0	109.5	4	35.6	4	-1E+10	1	-1E+10	1	-1E+10	1	-1E+10	1	-1E+10	1	-1E+10	1
4902551	74	C	08/29/2022	18:10	-131.838	48.876	0	230.00	0	5.3520	0	33.8030	0	26.688	0	227.925	0	108.7	4	35.3	4	-1E+10	1	-1E+10	1	-1E+10	1	-1E+10	1	-1E+10	1	-1E+10	1
4902551	74	C	08/29/2022	18:10	-131.838	48.876	0	231.00	0	5.3310	0	33.8030	0	26.690	0	228.915	0	108.0	4	35.1	4	-1E+10	1	-1E+10	1	-1E+10	1	-1E+10	1	-1E+10	1	-1E+10	1
4902551	74	C	08/29/2022	18:10	-131.838	48.876	0	232.10	0	5.3180	0	33.8050	0	26.693	0	230.005	0	107.3	4	34.9	4	-1E+10	1	-1E+10	1	-1E+10	1	-1E+10	1	-1E+10	1	-1E+10	1
4902551	74	C	08/29/2022	18:10	-131.838	48.876	0	233.10	0	5.3080	0	33.8050	0	26.695	0	230.995	0	106.7	4	34.7	4	-1E+10	1	-1E+10	1	-1E+10	1	-1E+10	1	-1E+10	1	-1E+10	1
4902551	74	C	08/29/2022	18:10	-131.838	48.876	0	234.10	0	5.2890	0	33.8110	0	26.702	0	231.985	0	106.0	4	34.4	4	-1E+10	1	-1E+10	1	-1E+10	1	-1E+10	1	-1E+10	1	-1E+10	1
4902551	74	C	08/29/2022	18:10	-131.838	48.876	0	235.10	0	5.2780	0	33.8100	0	26.702	0	232.976	0	105.5	4	34.2	4	-1E+10	1	-1E+10	1	-1E+10	1	-1E+10	1	-1E+10	1	-1E+10	1
4902551	74	C	08/29/2022	18:10	-131.838	48.876	0	236.20	0	5.2730	0	33.8120	0	26.704	0	234.065	0	104.8	4	34.0	4	-1E+10	1	-1E+10	1	-1E+10	1	-1E+10	1	-1E+10	1	-1E+10	1
4902551	74	C	08/29/2022	18:10	-131.838	48.876	0	237.20	0	5.2690	0	33.8110	0	26.704	0	235.056	0	104.2	4	33.8	4	-1E+10	1	-1E+10	1	-1E+10	1	-1E+10	1	-1E+10	1	-1E+10	1
4902551	74	C	08/29/2022	18:10	-131.838	48.876	0	238.20	0	5.2660	0	33.8120	0	26.705	0	236.046	0	103.5	4	33.6	4	-1E+10	1	-1E+10	1	-1E+10	1	-1E+10	1	-1E+10	1	-1E+10	1
4902551	74	C	08/29/2022	18:10	-131.838	48.876	0	239.20	0	5.2630	0	33.8130	0	26.706	0	237.036	0	102.7	4	33.3	4	-1E+10	1	-1E+10	1	-1E+10	1	-1E+10	1	-1E+10	1	-1E+10	1
4902551	74	C	08/29/2022	18:10	-131.838	48.876	0	240.30	0	5.2550	0	33.8160	0	26.710	0	238.126	0	102.1	4	33.1	4	-1E+10	1	-1E+10	1	-1E+10	1	-1E+10	1	-1E+10	1	-1E+10	1
4902551	74	C	08/29/2022	18:10	-131.838	48.876	0	241.30	0	5.2510	0	33.8170	0	26.711	0	239.116	0	101.5	4	32.9	4	-1E+10	1	-1E+10	1	-1E+10	1	-1E+10	1	-1E+10	1	-1E+10	1
4902551	74	C	08/29/2022	18:10	-131.838	48.876	0	242.40	0	5.2420	0	33.8240	0	26.717	0	240.206	0	100.9	4	32.7	4	-1E+10	1	-1E+10	1	-1E+10	1	-1E+10	1	-1E+10	1	-1E+10	1
4902551	74	C	08/29/2022	18:10	-131.838	48.876	0	243.40	0	5.2310	0	33.8250	0	26.719	0	241.196	0	100.5	4	32.6	4	-1E+10	1	-1E+10	1	-1E+10	1	-1E+10	1	-1E+10	1	-1E+10	1
4902551	74	C	08/29/2022	18:10	-131.838	48.876	0	244.50	0	5.2280	0	33.8260	0	26.721	0	242.285	0	100.0	4	32.4	4	-1E+10	1	-1E+10	1	-1E+10	1	-1E+10	1	-1E+10	1	-1E+10	1
4902551	74	C	08/29/2022	18:10	-131.838	48.876	0	245.50	0	5.2200	0	33.8250	0	26.721	0	243.276	0	99.4	4	32.2	4	-1E+10	1	-1E+10	1	-1E+10	1	-1E+10	1	-1E+10	1	-1E+10	1
4902551	74	C	08/29/2022	18:10	-131.838	48.876	0	246.60	0	5.2140	0	33.8260	0	26.722	0	244.365	0	98.9	4	32.0	4	-1E+10	1	-1E+10	1	-1E+10	1	-1E+10	1	-1E+10	1	-1E+10	1
4902551	74	C	08/29/2022	18:10	-131.838	48.876	0	247.60	0	5.1830	0	33.8320	0	26.731	0	245.355	0	98.4	4	31.9	4	-1E+10	1	-1E+10	1	-1E+10	1	-1E+10	1	-1E+10	1	-1E+10	1
4902551	74	C	08/29/2022	18:10	-131.838	48.876	0	248.70	0	5.1600	0	33.8260	0	26.729	0	246.445	0	97.9	4	31.7	4	-1E+10	1	-1E+10	1	-1E+10	1	-1E+10	1	-1E+10	1	-1E+10	1
4902551	74	C	08/29/2022	18:10	-131.838	48.876	0	249.70	0	5.1510	0	33.8330	0	26.735	0	247.435	0	97.4	4	31.5	4	-1E+10	1	-1E+10	1	-1E+10	1	-1E+10	1	-1E+10	1	-1E+10	1
4902551	74	C	08/29/2022	18:10	-131.838	48.876	0	250.80	0	5.1540	0	33.8280	0	26.731	0	248.525	0	96.9	4	31.4	4	-1E+10	1	-1E+10	1	-1E+10	1	-1E+10	1	-1E+10	1	-1E+10	1
4902551	74	C	08/29/2022	18:10	-131.838	48.876	0	251.80	0	5.1660	0	33.8350	0	26.735	0	249.515	0	96.5	4	31.2	4	-1E+10	1	-1E+10	1	-1E+10	1	-1E+10	1	-1E+10	1	-1E+10	1
4902551	74	C	08/29/2022	18:10	-131.838	48.876	0	252.80	0	5.1640	0	33.8340	0	26.734	0	250.505	0	96.1	4	31.1	4	-1E+10	1	-1E+10	1	-1E+10	1	-1E+10	1	-1E+10	1	-1E+10	1
4902551	74	C	08/29/2022	18:10	-131.838	48.876	0	253.90	0	5.1600	0	33.8360	0	26.737	0	251.595	0	95.6	4	30.9	4	-1E+10	1	-1E+10	1	-1E+10	1	-1E+10	1	-1E+10	1	-1E+10	1
4902551	74	C	08/29/2022	18:10	-131.838	48.876	0	254.90	0	5.1500	0	33.8370	0	26.738	0	252.585	0	95.2	4	30.8	4	-1E+10	1	-1E+10	1	-1E+10	1	-1E+10	1	-1E+10	1	-1E+10	1
4902551	74	C	08/29/2022	18:10	-131.838	48.876	0	255.90	0	5.1420	0	33.8370	0	26.739	0	253.575	0	94.8	4	30.7	4	-1E+10	1	-1E+10	1	-1E+10	1	-1E+10	1	-1E+10	1	-1E+10	1
4902551	74	C	08/29/2022	18:10	-131.838	48.876	0	257.00	0	5.1360	0	33.8380	0	26.741	0	254.664	0	94.4	4	30.5	4	-1E+10	1	-1E+10	1	-1E+10	1	-1E+10	1	-1E+10	1	-1E+10	1
4902551	74	C	08/29/2022	18:10	-131.838	48.876	0	258.00	0	5.1270	0	33.8380	0	26.742	0	255.655	0	94.0	4	30.4	4	-1E+10	1	-1E+10	1	-1E+10	1	-1E+10	1	-1E+10	1	-1E+10	1
4902551	74	C	08/29/2022	18:10	-131.838	48.876	0	259.10	0	5.1180	0	33.8390	0	26.744	0	256.744	0	93.6	4	30.3	4	-1E+10	1	-1E+10	1	-1E+10	1	-1E+10	1	-1E+10	1	-1E+10	1
4902551	74	C	08/29/2022	18:10	-131.838	48.876	0	260.10	0	5.1090	0	33.8390	0	26.745	0	257.734	0	93.1	4	30.1	4	-1E+10	1	-1E+10	1	-1E+10	1	-1E+10	1	-1E+10	1	-1E+10	1
4902551	74	C	08/29/2022	18:10	-131.838	48.876	0	261.20	0	5.1000	0	33.8430	0	26.749	0	258.824	0	92.8	4	30.0	4	-1E+10	1	-1E+10	1	-1E+10	1	-1E+10	1	-1E+10	1	-1E+10	1
4902551	74	C	08/29/2022	18:10	-131.838	48.876	0	262.20	0	5.0900	0	33.8430	0	26.750	0	259.814	0	92.4	4	29.9	4	-1E+10	1	-1E+10	1	-1E+10	1	-1E+10	1	-1E+10	1	-1E+10	1
4902551	74	C	08/29/2022	18:10	-131.838	48.876	0	263.20	0	5.0830	0	33.8440	0	26.752	0	260.804	0	92.0	4	29.7	4	-1E+10	1	-1E+10	1	-1E+10	1	-1E+10	1	-1E+10	1	-1E+10	1
4902551	74	C	08/29/2022	18:10	-131.838	48.876	0	264.20	0	5.0780	0	33.8440	0	26.752	0	261.795	0	91.6	4	29.6	4	-1E+10	1	-1E+10	1	-1E+10	1	-1E+10	1	-1E+10	1	-1E+10	1
4902551	74	C	08/29/2022	18:10	-131.838	48.876	0	265.30	0	5.0750	0	33.8450	0	26.753	0	262.884	0	91.3	4	29.5	4	-1E+10	1	-1E+10	1	-1E+10	1	-1E+10	1	-1E+10	1	-1E+10	1
4902551	74	C	08/29/2022	18:10	-131.838	48.876	0	266.30	0	5.0740	0	33.8460	0	26.754	0	263.874	0	90.9	4	29.4	4	-1E+10	1	-1E+10	1	-1E+10	1	-1E+10	1	-1E+10	1	-1E+10	1
4902551	74	C	08/29/2022	18:10	-131.838	48.876	0	267.30	0	5.0810	0	33.8490	0	26.756	0	264.864	0	90.5	4	29.3	4	-1E+10	1	-1E+10	1	-1E+10	1	-1E+10	1	-1E+10	1	-1E+10	1
4902551	74	C	08/29/2022	18:10	-131.838	48.876	0	268.30	0	5.0800	0	33.8490	0	26.756	0	265.855	0	90.2	4	29.1	4	-1E+10	1	-1E+10	1	-1E+10	1	-1E+10	1	-1E+10	1	-1E+10	1
4902551	74	C	08/29/2022	18:10	-131.838	48.876	0	269.30	0	5.0750	0	33.8520	0	26.759	0	266.845	0	89.8	4	29.0	4	-1E+10	1	-1E+10	1	-1E+10	1	-1E+10	1	-1E+10	1	-1E+10	1
4902551	74	C	08/29/2022	18:10	-131.838	48.876	0	270.30	0	5.0690	0	33.8510	0	26.759	0	267.835	0	89.4	4	28.9	4	-1E+10	1	-1E+10	1	-1E+10	1	-1E+10	1	-1E+10	1	-1E+10	1
4902551	74	C	08/29/2022	18:10	-131.838	48.876	0	271.20	0	5.0640	0	33.8510	0	26.760	0	268.726	0	89.0	4	28.8	4	-1E+10	1	-1E+10	1	-1E+10	1	-1E+10	1	-1E+10	1	-1E+10	1
4902551	74	C	08/29/2022	18:10	-131.838	48.876	0	272.20	0	5.0570	0	33.8510	0	26.760	0	269.716	0	88.6	4	28.6	4	-1E+10	1	-1E+10	1	-1E+10	1	-1E+10	1	-1E+10	1	-1E+10	1
4902551	74	C	08/29/2022	18:10	-131.838	48.876	0	273.20	0	5.0490	0	33.8540	0	26.764	0	270.707	0	88.3	4	28.5	4	-1E+10	1	-1E+10	1	-1E+10	1	-1E+10	1	-1E+10	1	-1E+10	1
4902551	74	C	08/29/2022	18:10	-131.838	48.876	0	274.20	0	5.0440	0	33.8540	0	26.764	0	271.697	0	87.9	4	28.4	4	-1E+10	1	-1E+10	1	-1E+10	1	-1E+10	1	-1E+10	1	-1E+10	1
4902551	74	C	08/29/2022	18:10	-131.838	48.876	0	275.20	0	5.0420	0	33.8540	0	26.764	0	272.687	0	87.5	4	28.2	4	-1E+10	1	-1E+10	1	-1E+10	1	-1E+10	1	-1E+10	1	-1E+10	1
4902551	74	C	08/29/2022	18:10	-131.838	48.876	0	276.20	0	5.0380	0	33.8560	0	26.767	0	273.677	0	87.1	4	28.1	4	-1E+10	1	-1E+10	1	-1E+10	1	-1E+10	1	-1E+10	1	-1E+10	1
4902551	74	C	08/29/2022	18:10	-131.838	48.876	0	277.20	0	5.0290	0	33.8590	0	26.770	0	274.668	0	86.8	4	28.0	4	-1E+10	1	-1E+10	1	-1E+10	1	-1E+10	1	-1E+10	1	-1E+10	1
4902551	74	C	08/29/2022	18:10	-131.838	48.876	0	278.10	0	5.0240	0	33.8600	0	26.771	0	275.559	0	86.6	4	27.9	4	-1E+10	1	-1E+10	1	-1E+10	1	-1E+10	1	-1E+10	1	-1E+10	1
4902551	74	C	08/29/2022	18:10	-131.838	48.876	0	279.10	0	5.0210	0	33.8590	0	26.771	0	276.549	0	86.3	4	27.9	4	-1E+10	1	-1E+10	1	-1E+10	1	-1E+10	1	-1E+10	1	-1E+10	1
4902551	74	C	08/29/2022	18:10	-131.838	48.876	0	280.10	0	5.0200	0	33.8600	0	26.772	0	277.539	0	86.1	4	27.8	4	-1E+10	1	-1E+10	1	-1E+10	1	-1E+10	1	-1E+10	1	-1E+10	1
4902551	74	C	08/29/2022	18:10	-131.838	48.876	0	281.10	0	5.0200	0	33.8600	0	26.772	0	278.529	0	85.8	4	27.7	4	-1E+10	1	-1E+10	1	-1E+10	1	-1E+10	1	-1E+10	1	-1E+10	1
4902551	74	C	08/29/2022	18:10	-131.838	48.876	0	282.00	0	5.0010	0	33.8630	0	26.776	0	279.420	0	85.6	4	27.6	4	-1E+10	1	-1E+10	1	-1E+10	1	-1E+10	1	-1E+10	1	-1E+10	1
4902551	74	C	08/29/2022	18:10	-131.838	48.876	0	283.00	0	4.9810	0	33.8640	0	26.779	0	280.411	0	85.5	4	27.6	4	-1E+10	1	-1E+10	1	-1E+10	1	-1E+10	1	-1E+10	1	-1E+10	1
4902551	74	C	08/29/2022	18:10	-131.838	48.876	0	283.90	0	4.9740	0	33.8610	0	26.778	0	281.302	0	85.4	4	27.5	4	-1E+10	1	-1E+10	1	-1E+10	1	-1E+10	1	-1E+10	1	-1E+10	1
4902551	74	C	08/29/2022	18:10	-131.838	48.876	0	284.90	0	4.9730	0	33.8620	0	26.779	0	282.292	0	85.2	4	27.5	4	-1E+10	1	-1E+10	1	-1E+10	1	-1E+10	1	-1E+10	1	-1E+10	1
4902551	74	C	08/29/2022	18:10	-131.838	48.876	0	285.80	0	4.9690	0	33.8610	0	26.778	0	283.183	0	85.1	4	27.4	4	-1E+10	1	-1E+10	1	-1E+10	1	-1E+10	1	-1E+10	1	-1E+10	1
4902551	74	C	08/29/2022	18:10	-131.838	48.876	0	286.80	0	4.9700	0	33.8610	0	26.778	0	284.173	0	84.9	4	27.4	4	-1E+10	1	-1E+10	1	-1E+10	1	-1E+10	1	-1E+10	1	-1E+10	1
4902551	74	C	08/29/2022	18:10	-131.838	48.876	0	287.70	0	4.9680	0	33.8630	0	26.780	0	285.064	0	84.7	4	27.3	4	-1E+10	1	-1E+10	1	-1E+10	1	-1E+10	1	-1E+10	1	-1E+10	1
4902551	74	C	08/29/2022	18:10	-131.838	48.876	0	288.70	0	4.9640	0	33.8610	0	26.779	0	286.055	0	84.4	4	27.2	4	-1E+10	1	-1E+10	1	-1E+10	1	-1E+10	1	-1E+10	1	-1E+10	1
4902551	74	C	08/29/2022	18:10	-131.838	48.876	0	289.60	0	4.9570	0	33.8650	0	26.783	0	286.946	0	84.1	4	27.1	4	-1E+10	1	-1E+10	1	-1E+10	1	-1E+10	1	-1E+10	1	-1E+10	1
4902551	74	C	08/29/2022	18:10	-131.838	48.876	0	290.60	0	4.9390	0	33.8620	0	26.783	0	287.936	0	83.9	4	27.0	4	-1E+10	1	-1E+10	1	-1E+10	1	-1E+10	1	-1E+10	1	-1E+10	1
4902551	74	C	08/29/2022	18:10	-131.838	48.876	0	291.50	0	4.9380	0	33.8620	0	26.783	0	288.827	0	83.6	4	26.9	4	-1E+10	1	-1E+10	1	-1E+10	1	-1E+10	1	-1E+10	1	-1E+10	1
4902551	74	C	08/29/2022	18:10	-131.838	48.876	0	292.90	0	4.9360	0	33.8620	0	26.783	0	290.213	0	83.1	4	26.8	4	-1E+10	1	-1E+10	1	-1E+10	1	-1E+10	1	-1E+10	1	-1E+10	1
4902551	74	C	08/29/2022	18:10	-131.838	48.876	0	294.40	0	4.9330	0	33.8640	0	26.785	0	291.698	0	82.6	4	26.6	4	-1E+10	1	-1E+10	1	-1E+10	1	-1E+10	1	-1E+10	1	-1E+10	1
4902551	74	C	08/29/2022	18:10	-131.838	48.876	0	295.30	0	4.9250	0	33.8620	0	26.784	0	292.589	0	82.2	4	26.5	4	-1E+10	1	-1E+10	1	-1E+10	1	-1E+10	1	-1E+10	1	-1E+10	1
4902551	74	C	08/29/2022	18:10	-131.838	48.876	0	296.20	0	4.9210	0	33.8630	0	26.785	0	293.480	0	81.8	4	26.3	4	-1E+10	1	-1E+10	1	-1E+10	1	-1E+10	1	-1E+10	1	-1E+10	1
4902551	74	C	08/29/2022	18:10	-131.838	48.876	0	297.20	0	4.9200	0	33.8630	0	26.786	0	294.471	0	81.4	4	26.2	4	-1E+10	1	-1E+10	1	-1E+10	1	-1E+10	1	-1E+10	1	-1E+10	1
4902551	74	C	08/29/2022	18:10	-131.838	48.876	0	298.20	0	4.9180	0	33.8640	0	26.787	0	295.461	0	80.9	4	26.0	4	-1E+10	1	-1E+10	1	-1E+10	1	-1E+10	1	-1E+10	1	-1E+10	1
4902551	74	C	08/29/2022	18:10	-131.838	48.876	0	299.10	0	4.9090	0	33.8670	0	26.790	0	296.352	0	80.4	4	25.9	4	-1E+10	1	-1E+10	1	-1E+10	1	-1E+10	1	-1E+10	1	-1E+10	1
4902551	74	C	08/29/2022	18:10	-131.838	48.876	0	300.10	0	4.8980	0	33.8710	0	26.794	0	297.342	0	80.0	4	25.8	4	-1E+10	1	-1E+10	1	-1E+10	1	-1E+10	1	-1E+10	1	-1E+10	1
4902551	74	C	08/29/2022	18:10	-131.838	48.876	0	301.10	0	4.8950	0	33.8710	0	26.795	0	298.332	0	79.7	4	25.6	4	-1E+10	1	-1E+10	1	-1E+10	1	-1E+10	1	-1E+10	1	-1E+10	1
4902551	74	C	08/29/2022	18:10	-131.838	48.876	0	302.10	0	4.8910	0	33.8720	0	26.796	0	299.322	0	79.3	4	25.5	4	-1E+10	1	-1E+10	1	-1E+10	1	-1E+10	1	-1E+10	1	-1E+10	1
4902551	74	C	08/29/2022	18:10	-131.838	48.876	0	303.10	0	4.8860	0	33.8730	0	26.797	0	300.312	0	79.0	4	25.4	4	-1E+10	1	-1E+10	1	-1E+10	1	-1E+10	1	-1E+10	1	-1E+10	1
4902551	74	C	08/29/2022	18:10	-131.838	48.876	0	304.00	0	4.8800	0	33.8750	0	26.800	0	301.203	0	78.7	4	25.3	4	-1E+10	1	-1E+10	1	-1E+10	1	-1E+10	1	-1E+10	1	-1E+10	1
4902551	74	C	08/29/2022	18:10	-131.838	48.876	0	305.00	0	4.8650	0	33.8760	0	26.802	0	302.193	0	78.4	4	25.2	4	-1E+10	1	-1E+10	1	-1E+10	1	-1E+10	1	-1E+10	1	-1E+10	1
4902551	74	C	08/29/2022	18:10	-131.838	48.876	0	306.00	0	4.8650	0	33.8760	0	26.802	0	303.183	0	78.1	4	25.1	4	-1E+10	1	-1E+10	1	-1E+10	1	-1E+10	1	-1E+10	1	-1E+10	1
4902551	74	C	08/29/2022	18:10	-131.838	48.876	0	307.00	0	4.8660	0	33.8760	0	26.802	0	304.173	0	77.8	4	25.0	4	-1E+10	1	-1E+10	1	-1E+10	1	-1E+10	1	-1E+10	1	-1E+10	1
4902551	74	C	08/29/2022	18:10	-131.838	48.876	0	308.00	0	4.8650	0	33.8760	0	26.802	0	305.163	0	77.4	4	24.9	4	-1E+10	1	-1E+10	1	-1E+10	1	-1E+10	1	-1E+10	1	-1E+10	1
4902551	74	C	08/29/2022	18:10	-131.838	48.876	0	309.00	0	4.8610	0	33.8770	0	26.803	0	306.153	0	77.0	4	24.7	4	-1E+10	1	-1E+10	1	-1E+10	1	-1E+10	1	-1E+10	1	-1E+10	1
4902551	74	C	08/29/2022	18:10	-131.838	48.876	0	310.00	0	4.8560	0	33.8770	0	26.804	0	307.144	0	76.5	4	24.6	4	-1E+10	1	-1E+10	1	-1E+10	1	-1E+10	1	-1E+10	1	-1E+10	1
4902551	74	C	08/29/2022	18:10	-131.838	48.876	0	310.90	0	4.8530	0	33.8780	0	26.805	0	308.035	0	76.0	4	24.4	4	-1E+10	1	-1E+10	1	-1E+10	1	-1E+10	1	-1E+10	1	-1E+10	1
4902551	74	C	08/29/2022	18:10	-131.838	48.876	0	312.00	0	4.8460	0	33.8790	0	26.807	0	309.124	0	75.5	4	24.3	4	-1E+10	1	-1E+10	1	-1E+10	1	-1E+10	1	-1E+10	1	-1E+10	1
4902551	74	C	08/29/2022	18:10	-131.838	48.876	0	313.00	0	4.8360	0	33.8800	0	26.809	0	310.114	0	75.2	4	24.2	4	-1E+10	1	-1E+10	1	-1E+10	1	-1E+10	1	-1E+10	1	-1E+10	1
4902551	74	C	08/29/2022	18:10	-131.838	48.876	0	314.00	0	4.8280	0	33.8830	0	26.812	0	311.104	0	74.8	4	24.0	4	-1E+10	1	-1E+10	1	-1E+10	1	-1E+10	1	-1E+10	1	-1E+10	1
4902551	74	C	08/29/2022	18:10	-131.838	48.876	0	315.00	0	4.8250	0	33.8850	0	26.814	0	312.094	0	74.4	4	23.9	4	-1E+10	1	-1E+10	1	-1E+10	1	-1E+10	1	-1E+10	1	-1E+10	1
4902551	74	C	08/29/2022	18:10	-131.838	48.876	0	316.00	0	4.8090	0	33.8880	0	26.818	0	313.084	0	74.1	4	23.8	4	-1E+10	1	-1E+10	1	-1E+10	1	-1E+10	1	-1E+10	1	-1E+10	1
4902551	74	C	08/29/2022	18:10	-131.838	48.876	0	317.00	0	4.8010	0	33.8900	0	26.820	0	314.074	0	73.8	4	23.7	4	-1E+10	1	-1E+10	1	-1E+10	1	-1E+10	1	-1E+10	1	-1E+10	1
4902551	74	C	08/29/2022	18:10	-131.838	48.876	0	318.00	0	4.7950	0	33.8880	0	26.820	0	315.064	0	73.4	4	23.6	4	-1E+10	1	-1E+10	1	-1E+10	1	-1E+10	1	-1E+10	1	-1E+10	1
4902551	74	C	08/29/2022	18:10	-131.838	48.876	0	319.10	0	4.7900	0	33.8890	0	26.821	0	316.153	0	73.1	4	23.5	4	-1E+10	1	-1E+10	1	-1E+10	1	-1E+10	1	-1E+10	1	-1E+10	1
4902551	74	C	08/29/2022	18:10	-131.838	48.876	0	320.10	0	4.7740	0	33.8910	0	26.824	0	317.143	0	72.9	4	23.4	4	-1E+10	1	-1E+10	1	-1E+10	1	-1E+10	1	-1E+10	1	-1E+10	1
4902551	74	C	08/29/2022	18:10	-131.838	48.876	0	321.10	0	4.7670	0	33.8910	0	26.825	0	318.133	0	72.7	4	23.3	4	-1E+10	1	-1E+10	1	-1E+10	1	-1E+10	1	-1E+10	1	-1E+10	1
4902551	74	C	08/29/2022	18:10	-131.838	48.876	0	322.00	0	4.7620	0	33.8920	0	26.826	0	319.024	0	72.4	4	23.2	4	-1E+10	1	-1E+10	1	-1E+10	1	-1E+10	1	-1E+10	1	-1E+10	1
4902551	74	C	08/29/2022	18:10	-131.838	48.876	0	322.70	0	4.7600	0	33.8910	0	26.826	0	319.717	0	72.2	4	23.2	4	-1E+10	1	-1E+10	1	-1E+10	1	-1E+10	1	-1E+10	1	-1E+10	1
4902551	74	C	08/29/2022	18:10	-131.838	48.876	0	323.90	0	4.7570	0	33.8920	0	26.827	0	320.905	0	71.8	4	23.0	4	-1E+10	1	-1E+10	1	-1E+10	1	-1E+10	1	-1E+10	1	-1E+10	1
4902551	74	C	08/29/2022	18:10	-131.838	48.876	0	325.00	0	4.7460	0	33.8950	0	26.831	0	321.994	0	71.4	4	22.9	4	-1E+10	1	-1E+10	1	-1E+10	1	-1E+10	1	-1E+10	1	-1E+10	1
4902551	74	C	08/29/2022	18:10	-131.838	48.876	0	326.20	0	4.7350	0	33.8950	0	26.832	0	323.182	0	71.0	4	22.8	4	-1E+10	1	-1E+10	1	-1E+10	1	-1E+10	1	-1E+10	1	-1E+10	1
4902551	74	C	08/29/2022	18:10	-131.838	48.876	0	327.00	0	4.7270	0	33.8950	0	26.833	0	323.974	0	70.8	4	22.7	4	-1E+10	1	-1E+10	1	-1E+10	1	-1E+10	1	-1E+10	1	-1E+10	1
4902551	74	C	08/29/2022	18:10	-131.838	48.876	0	327.70	0	4.7270	0	33.8950	0	26.833	0	324.667	0	70.6	4	22.6	4	-1E+10	1	-1E+10	1	-1E+10	1	-1E+10	1	-1E+10	1	-1E+10	1
4902551	74	C	08/29/2022	18:10	-131.838	48.876	0	328.90	0	4.7200	0	33.8970	0	26.835	0	325.855	0	70.2	4	22.5	4	-1E+10	1	-1E+10	1	-1E+10	1	-1E+10	1	-1E+10	1	-1E+10	1
4902551	74	C	08/29/2022	18:10	-131.838	48.876	0	330.10	0	4.7110	0	33.8980	0	26.837	0	327.042	0	69.9	4	22.4	4	-1E+10	1	-1E+10	1	-1E+10	1	-1E+10	1	-1E+10	1	-1E+10	1
4902551	74	C	08/29/2022	18:10	-131.838	48.876	0	330.90	0	4.7100	0	33.8980	0	26.837	0	327.834	0	69.7	4	22.3	4	-1E+10	1	-1E+10	1	-1E+10	1	-1E+10	1	-1E+10	1	-1E+10	1
4902551	74	C	08/29/2022	18:10	-131.838	48.876	0	332.00	0	4.7080	0	33.8980	0	26.837	0	328.923	0	69.3	4	22.2	4	-1E+10	1	-1E+10	1	-1E+10	1	-1E+10	1	-1E+10	1	-1E+10	1
4902551	74	C	08/29/2022	18:10	-131.838	48.876	0	333.20	0	4.7080	0	33.8980	0	26.837	0	330.111	0	68.8	4	22.0	4	-1E+10	1	-1E+10	1	-1E+10	1	-1E+10	1	-1E+10	1	-1E+10	1
4902551	74	C	08/29/2022	18:10	-131.838	48.876	0	334.00	0	4.7070	0	33.8990	0	26.838	0	330.903	0	68.4	4	21.9	4	-1E+10	1	-1E+10	1	-1E+10	1	-1E+10	1	-1E+10	1	-1E+10	1
4902551	74	C	08/29/2022	18:10	-131.838	48.876	0	334.80	0	4.7060	0	33.8980	0	26.837	0	331.695	0	68.1	4	21.8	4	-1E+10	1	-1E+10	1	-1E+10	1	-1E+10	1	-1E+10	1	-1E+10	1
4902551	74	C	08/29/2022	18:10	-131.838	48.876	0	335.70	0	4.7040	0	33.8980	0	26.838	0	332.586	0	67.6	4	21.7	4	-1E+10	1	-1E+10	1	-1E+10	1	-1E+10	1	-1E+10	1	-1E+10	1
4902551	74	C	08/29/2022	18:10	-131.838	48.876	0	336.90	0	4.6830	0	33.9040	0	26.845	0	333.774	0	67.0	4	21.5	4	-1E+10	1	-1E+10	1	-1E+10	1	-1E+10	1	-1E+10	1	-1E+10	1
4902551	74	C	08/29/2022	18:10	-131.838	48.876	0	338.20	0	4.6630	0	33.9060	0	26.849	0	335.061	0	66.7	4	21.4	4	-1E+10	1	-1E+10	1	-1E+10	1	-1E+10	1	-1E+10	1	-1E+10	1
4902551	74	C	08/29/2022	18:10	-131.838	48.876	0	339.10	0	4.6620	0	33.9060	0	26.849	0	335.952	0	66.5	4	21.3	4	-1E+10	1	-1E+10	1	-1E+10	1	-1E+10	1	-1E+10	1	-1E+10	1
4902551	74	C	08/29/2022	18:10	-131.838	48.876	0	339.90	0	4.6610	0	33.9060	0	26.849	0	336.744	0	66.2	4	21.2	4	-1E+10	1	-1E+10	1	-1E+10	1	-1E+10	1	-1E+10	1	-1E+10	1
4902551	74	C	08/29/2022	18:10	-131.838	48.876	0	340.80	0	4.6560	0	33.9090	0	26.852	0	337.635	0	65.9	4	21.1	4	-1E+10	1	-1E+10	1	-1E+10	1	-1E+10	1	-1E+10	1	-1E+10	1
4902551	74	C	08/29/2022	18:10	-131.838	48.876	0	341.60	0	4.6500	0	33.9090	0	26.852	0	338.427	0	65.7	4	21.0	4	-1E+10	1	-1E+10	1	-1E+10	1	-1E+10	1	-1E+10	1	-1E+10	1
4902551	74	C	08/29/2022	18:10	-131.838	48.876	0	342.90	0	4.6420	0	33.9120	0	26.856	0	339.713	0	65.4	4	20.9	4	-1E+10	1	-1E+10	1	-1E+10	1	-1E+10	1	-1E+10	1	-1E+10	1
4902551	74	C	08/29/2022	18:10	-131.838	48.876	0	344.20	0	4.6390	0	33.9120	0	26.856	0	341.000	0	65.1	4	20.8	4	-1E+10	1	-1E+10	1	-1E+10	1	-1E+10	1	-1E+10	1	-1E+10	1
4902551	74	C	08/29/2022	18:10	-131.838	48.876	0	345.10	0	4.6350	0	33.9140	0	26.858	0	341.891	0	65.0	4	20.8	4	-1E+10	1	-1E+10	1	-1E+10	1	-1E+10	1	-1E+10	1	-1E+10	1
4902551	74	C	08/29/2022	18:10	-131.838	48.876	0	346.00	0	4.6330	0	33.9140	0	26.858	0	342.782	0	64.7	4	20.7	4	-1E+10	1	-1E+10	1	-1E+10	1	-1E+10	1	-1E+10	1	-1E+10	1
4902551	74	C	08/29/2022	18:10	-131.838	48.876	0	346.80	0	4.6320	0	33.9140	0	26.858	0	343.574	0	64.5	4	20.6	4	-1E+10	1	-1E+10	1	-1E+10	1	-1E+10	1	-1E+10	1	-1E+10	1
4902551	74	C	08/29/2022	18:10	-131.838	48.876	0	347.70	0	4.6290	0	33.9150	0	26.859	0	344.465	0	64.3	4	20.6	4	-1E+10	1	-1E+10	1	-1E+10	1	-1E+10	1	-1E+10	1	-1E+10	1
4902551	74	C	08/29/2022	18:10	-131.838	48.876	0	348.60	0	4.6280	0	33.9150	0	26.860	0	345.356	0	64.1	4	20.5	4	-1E+10	1	-1E+10	1	-1E+10	1	-1E+10	1	-1E+10	1	-1E+10	1
4902551	74	C	08/29/2022	18:10	-131.838	48.876	0	349.90	0	4.6230	0	33.9170	0	26.862	0	346.643	0	63.7	4	20.4	4	-1E+10	1	-1E+10	1	-1E+10	1	-1E+10	1	-1E+10	1	-1E+10	1
4902551	74	C	08/29/2022	18:10	-131.838	48.876	0	353.10	0	4.6090	0	33.9200	0	26.866	0	349.810	0	63.1	4	20.2	4	-1E+10	1	-1E+10	1	-1E+10	1	-1E+10	1	-1E+10	1	-1E+10	1
4902551	74	C	08/29/2022	18:10	-131.838	48.876	0	357.70	0	4.5920	0	33.9220	0	26.869	0	354.363	0	62.1	4	19.9	4	-1E+10	1	-1E+10	1	-1E+10	1	-1E+10	1	-1E+10	1	-1E+10	1
4902551	74	C	08/29/2022	18:10	-131.838	48.876	0	362.80	0	4.5780	0	33.9260	0	26.874	0	359.411	0	60.9	4	19.5	4	-1E+10	1	-1E+10	1	-1E+10	1	-1E+10	1	-1E+10	1	-1E+10	1
4902551	74	C	08/29/2022	18:10	-131.838	48.876	0	367.80	0	4.5630	0	33.9310	0	26.880	0	364.360	0	59.8	4	19.1	4	-1E+10	1	-1E+10	1	-1E+10	1	-1E+10	1	-1E+10	1	-1E+10	1
4902551	74	C	08/29/2022	18:10	-131.838	48.876	0	373.00	0	4.5480	0	33.9360	0	26.885	0	369.507	0	58.5	4	18.7	4	-1E+10	1	-1E+10	1	-1E+10	1	-1E+10	1	-1E+10	1	-1E+10	1
4902551	74	C	08/29/2022	18:10	-131.838	48.876	0	378.20	0	4.5250	0	33.9410	0	26.892	0	374.654	0	57.3	4	18.3	4	-1E+10	1	-1E+10	1	-1E+10	1	-1E+10	1	-1E+10	1	-1E+10	1
4902551	74	C	08/29/2022	18:10	-131.838	48.876	0	383.00	0	4.5050	0	33.9440	0	26.896	0	379.404	0	56.3	4	18.0	4	-1E+10	1	-1E+10	1	-1E+10	1	-1E+10	1	-1E+10	1	-1E+10	1
4902551	74	C	08/29/2022	18:10	-131.838	48.876	0	387.80	0	4.4880	0	33.9480	0	26.901	0	384.155	0	55.3	4	17.6	4	-1E+10	1	-1E+10	1	-1E+10	1	-1E+10	1	-1E+10	1	-1E+10	1
4902551	74	C	08/29/2022	18:10	-131.838	48.876	0	393.00	0	4.4750	0	33.9540	0	26.907	0	389.301	0	54.3	4	17.3	4	-1E+10	1	-1E+10	1	-1E+10	1	-1E+10	1	-1E+10	1	-1E+10	1
4902551	74	C	08/29/2022	18:10	-131.838	48.876	0	398.10	0	4.4580	0	33.9580	0	26.912	0	394.348	0	53.1	4	16.9	4	-1E+10	1	-1E+10	1	-1E+10	1	-1E+10	1	-1E+10	1	-1E+10	1
4902551	74	C	08/29/2022	18:10	-131.838	48.876	0	402.90	0	4.4300	0	33.9650	0	26.921	0	399.098	0	52.2	4	16.6	4	-1E+10	1	-1E+10	1	-1E+10	1	-1E+10	1	-1E+10	1	-1E+10	1
4902551	74	C	08/29/2022	18:10	-131.838	48.876	0	407.70	0	4.4190	0	33.9680	0	26.925	0	403.848	0	51.3	4	16.3	4	-1E+10	1	-1E+10	1	-1E+10	1	-1E+10	1	-1E+10	1	-1E+10	1
4902551	74	C	08/29/2022	18:10	-131.838	48.876	0	412.90	0	4.4070	0	33.9740	0	26.931	0	408.994	0	50.3	4	16.0	4	-1E+10	1	-1E+10	1	-1E+10	1	-1E+10	1	-1E+10	1	-1E+10	1
4902551	74	C	08/29/2022	18:10	-131.838	48.876	0	418.20	0	4.3960	0	33.9780	0	26.935	0	414.238	0	49.5	4	15.8	4	-1E+10	1	-1E+10	1	-1E+10	1	-1E+10	1	-1E+10	1	-1E+10	1
4902551	74	C	08/29/2022	18:10	-131.838	48.876	0	423.00	0	4.3890	0	33.9810	0	26.938	0	418.988	0	48.6	4	15.5	4	-1E+10	1	-1E+10	1	-1E+10	1	-1E+10	1	-1E+10	1	-1E+10	1
4902551	74	C	08/29/2022	18:10	-131.838	48.876	0	427.80	0	4.3800	0	33.9850	0	26.942	0	423.738	0	47.7	4	15.2	4	-1E+10	1	-1E+10	1	-1E+10	1	-1E+10	1	-1E+10	1	-1E+10	1
4902551	74	C	08/29/2022	18:10	-131.838	48.876	0	433.00	0	4.3720	0	33.9890	0	26.947	0	428.883	0	46.3	4	14.7	4	-1E+10	1	-1E+10	1	-1E+10	1	-1E+10	1	-1E+10	1	-1E+10	1
4902551	74	C	08/29/2022	18:10	-131.838	48.876	0	438.20	0	4.3520	0	33.9990	0	26.957	0	434.028	0	45.2	4	14.4	4	-1E+10	1	-1E+10	1	-1E+10	1	-1E+10	1	-1E+10	1	-1E+10	1
4902551	74	C	08/29/2022	18:10	-131.838	48.876	0	443.10	0	4.3440	0	34.0020	0	26.960	0	438.876	0	44.1	4	14.0	4	-1E+10	1	-1E+10	1	-1E+10	1	-1E+10	1	-1E+10	1	-1E+10	1
4902551	74	C	08/29/2022	18:10	-131.838	48.876	0	448.00	0	4.3280	0	34.0090	0	26.967	0	443.724	0	43.0	4	13.7	4	-1E+10	1	-1E+10	1	-1E+10	1	-1E+10	1	-1E+10	1	-1E+10	1
4902551	74	C	08/29/2022	18:10	-131.838	48.876	0	453.00	0	4.3120	0	34.0160	0	26.975	0	448.671	0	42.0	4	13.4	4	-1E+10	1	-1E+10	1	-1E+10	1	-1E+10	1	-1E+10	1	-1E+10	1
4902551	74	C	08/29/2022	18:10	-131.838	48.876	0	458.10	0	4.3000	0	34.0200	0	26.979	0	453.717	0	41.2	4	13.1	4	-1E+10	1	-1E+10	1	-1E+10	1	-1E+10	1	-1E+10	1	-1E+10	1
4902551	74	C	08/29/2022	18:10	-131.838	48.876	0	463.30	0	4.2880	0	34.0250	0	26.984	0	458.861	0	40.3	4	12.8	4	-1E+10	1	-1E+10	1	-1E+10	1	-1E+10	1	-1E+10	1	-1E+10	1
4902551	74	C	08/29/2022	18:10	-131.838	48.876	0	467.90	0	4.2720	0	34.0310	0	26.991	0	463.412	0	39.5	4	12.6	4	-1E+10	1	-1E+10	1	-1E+10	1	-1E+10	1	-1E+10	1	-1E+10	1
4902551	74	C	08/29/2022	18:10	-131.838	48.876	0	472.60	0	4.2630	0	34.0350	0	26.995	0	468.062	0	38.9	4	12.4	4	-1E+10	1	-1E+10	1	-1E+10	1	-1E+10	1	-1E+10	1	-1E+10	1
4902551	74	C	08/29/2022	18:10	-131.838	48.876	0	477.90	0	4.2500	0	34.0400	0	27.000	0	473.305	0	38.4	4	12.2	4	-1E+10	1	-1E+10	1	-1E+10	1	-1E+10	1	-1E+10	1	-1E+10	1
4902551	74	C	08/29/2022	18:10	-131.838	48.876	0	483.10	0	4.2370	0	34.0450	0	27.006	0	478.449	0	37.8	4	12.0	4	-1E+10	1	-1E+10	1	-1E+10	1	-1E+10	1	-1E+10	1	-1E+10	1
4902551	74	C	08/29/2022	18:10	-131.838	48.876	0	487.80	0	4.2310	0	34.0470	0	27.008	0	483.098	0	37.4	4	11.9	4	-1E+10	1	-1E+10	1	-1E+10	1	-1E+10	1	-1E+10	1	-1E+10	1
4902551	74	C	08/29/2022	18:10	-131.838	48.876	0	493.00	0	4.2220	0	34.0500	0	27.011	0	488.242	0	36.8	4	11.7	4	-1E+10	1	-1E+10	1	-1E+10	1	-1E+10	1	-1E+10	1	-1E+10	1
4902551	74	C	08/29/2022	18:10	-131.838	48.876	0	498.20	0	4.2050	0	34.0550	0	27.017	0	493.386	0	35.9	4	11.4	4	-1E+10	1	-1E+10	1	-1E+10	1	-1E+10	1	-1E+10	1	-1E+10	1
4902551	74	C	08/29/2022	18:10	-131.838	48.876	0	503.10	0	4.1860	0	34.0630	0	27.025	0	498.232	0	35.1	4	11.1	4	-1E+10	1	-1E+10	1	-1E+10	1	-1E+10	1	-1E+10	1	-1E+10	1
4902551	74	C	08/29/2022	18:10	-131.838	48.876	0	508.00	0	4.1720	0	34.0680	0	27.031	0	503.079	0	34.5	4	10.9	4	-1E+10	1	-1E+10	1	-1E+10	1	-1E+10	1	-1E+10	1	-1E+10	1
4902551	74	C	08/29/2022	18:10	-131.838	48.876	0	513.00	0	4.1650	0	34.0700	0	27.033	0	508.025	0	33.8	4	10.7	4	-1E+10	1	-1E+10	1	-1E+10	1	-1E+10	1	-1E+10	1	-1E+10	1
4902551	74	C	08/29/2022	18:10	-131.838	48.876	0	518.00	0	4.1460	0	34.0770	0	27.041	0	512.970	0	33.1	4	10.5	4	-1E+10	1	-1E+10	1	-1E+10	1	-1E+10	1	-1E+10	1	-1E+10	1
4902551	74	C	08/29/2022	18:10	-131.838	48.876	0	523.20	0	4.1390	0	34.0790	0	27.043	0	518.113	0	32.5	4	10.3	4	-1E+10	1	-1E+10	1	-1E+10	1	-1E+10	1	-1E+10	1	-1E+10	1
4902551	74	C	08/29/2022	18:10	-131.838	48.876	0	528.10	0	4.1310	0	34.0820	0	27.046	0	522.959	0	31.8	4	10.1	4	-1E+10	1	-1E+10	1	-1E+10	1	-1E+10	1	-1E+10	1	-1E+10	1
4902551	74	C	08/29/2022	18:10	-131.838	48.876	0	533.00	0	4.1200	0	34.0860	0	27.051	0	527.805	0	31.0	4	9.8	4	-1E+10	1	-1E+10	1	-1E+10	1	-1E+10	1	-1E+10	1	-1E+10	1
4902551	74	C	08/29/2022	18:10	-131.838	48.876	0	538.00	0	4.1040	0	34.0920	0	27.057	0	532.750	0	30.2	4	9.6	4	-1E+10	1	-1E+10	1	-1E+10	1	-1E+10	1	-1E+10	1	-1E+10	1
4902551	74	C	08/29/2022	18:10	-131.838	48.876	0	543.00	0	4.0940	0	34.0970	0	27.062	0	537.695	0	29.3	4	9.3	4	-1E+10	1	-1E+10	1	-1E+10	1	-1E+10	1	-1E+10	1	-1E+10	1
4902551	74	C	08/29/2022	18:10	-131.838	48.876	0	548.10	0	4.0810	0	34.1030	0	27.068	0	542.738	0	28.6	4	9.0	4	-1E+10	1	-1E+10	1	-1E+10	1	-1E+10	1	-1E+10	1	-1E+10	1
4902551	74	C	08/29/2022	18:10	-131.838	48.876	0	552.90	0	4.0700	0	34.1080	0	27.074	0	547.485	0	28.1	4	8.9	4	-1E+10	1	-1E+10	1	-1E+10	1	-1E+10	1	-1E+10	1	-1E+10	1
4902551	74	C	08/29/2022	18:10	-131.838	48.876	0	557.70	0	4.0640	0	34.1100	0	27.076	0	552.232	0	27.6	4	8.7	4	-1E+10	1	-1E+10	1	-1E+10	1	-1E+10	1	-1E+10	1	-1E+10	1
4902551	74	C	08/29/2022	18:10	-131.838	48.876	0	562.50	0	4.0570	0	34.1120	0	27.078	0	556.978	0	27.0	4	8.5	4	-1E+10	1	-1E+10	1	-1E+10	1	-1E+10	1	-1E+10	1	-1E+10	1
4902551	74	C	08/29/2022	18:10	-131.838	48.876	0	567.50	0	4.0390	0	34.1190	0	27.086	0	561.922	0	26.5	4	8.4	4	-1E+10	1	-1E+10	1	-1E+10	1	-1E+10	1	-1E+10	1	-1E+10	1
4902551	74	C	08/29/2022	18:10	-131.838	48.876	0	572.90	0	4.0350	0	34.1210	0	27.088	0	567.262	0	26.1	4	8.2	4	-1E+10	1	-1E+10	1	-1E+10	1	-1E+10	1	-1E+10	1	-1E+10	1
4902551	74	C	08/29/2022	18:10	-131.838	48.876	0	578.40	0	4.0320	0	34.1240	0	27.090	0	572.700	0	25.4	4	8.0	4	-1E+10	1	-1E+10	1	-1E+10	1	-1E+10	1	-1E+10	1	-1E+10	1
4902551	74	C	08/29/2022	18:10	-131.838	48.876	0	583.40	0	4.0220	0	34.1280	0	27.095	0	577.644	0	24.8	4	7.8	4	-1E+10	1	-1E+10	1	-1E+10	1	-1E+10	1	-1E+10	1	-1E+10	1
4902551	74	C	08/29/2022	18:10	-131.838	48.876	0	588.30	0	4.0050	0	34.1340	0	27.101	0	582.489	0	24.1	4	7.6	4	-1E+10	1	-1E+10	1	-1E+10	1	-1E+10	1	-1E+10	1	-1E+10	1
4902551	74	C	08/29/2022	18:10	-131.838	48.876	0	592.90	0	3.9980	0	34.1390	0	27.106	0	587.037	0	23.5	4	7.4	4	-1E+10	1	-1E+10	1	-1E+10	1	-1E+10	1	-1E+10	1	-1E+10	1
4902551	74	C	08/29/2022	18:10	-131.838	48.876	0	597.60	0	3.9830	0	34.1440	0	27.111	0	591.684	0	23.0	4	7.3	4	-1E+10	1	-1E+10	1	-1E+10	1	-1E+10	1	-1E+10	1	-1E+10	1
4902551	74	C	08/29/2022	18:10	-131.838	48.876	0	602.70	0	3.9820	0	34.1470	0	27.114	0	596.726	0	22.4	4	7.1	4	-1E+10	1	-1E+10	1	-1E+10	1	-1E+10	1	-1E+10	1	-1E+10	1
4902551	74	C	08/29/2022	18:10	-131.838	48.876	0	607.90	0	3.9820	0	34.1520	0	27.118	0	601.867	0	21.8	4	6.9	4	-1E+10	1	-1E+10	1	-1E+10	1	-1E+10	1	-1E+10	1	-1E+10	1
4902551	74	C	08/29/2022	18:10	-131.838	48.876	0	613.10	0	3.9520	0	34.1590	0	27.127	0	607.008	0	21.3	4	6.7	4	-1E+10	1	-1E+10	1	-1E+10	1	-1E+10	1	-1E+10	1	-1E+10	1
4902551	74	C	08/29/2022	18:10	-131.838	48.876	0	618.20	0	3.9410	0	34.1640	0	27.132	0	612.050	0	20.9	4	6.6	4	-1E+10	1	-1E+10	1	-1E+10	1	-1E+10	1	-1E+10	1	-1E+10	1
4902551	74	C	08/29/2022	18:10	-131.838	48.876	0	622.80	0	3.9330	0	34.1660	0	27.134	0	616.597	0	20.7	4	6.5	4	-1E+10	1	-1E+10	1	-1E+10	1	-1E+10	1	-1E+10	1	-1E+10	1
4902551	74	C	08/29/2022	18:10	-131.838	48.876	0	627.50	0	3.9260	0	34.1690	0	27.137	0	621.243	0	20.5	4	6.5	4	-1E+10	1	-1E+10	1	-1E+10	1	-1E+10	1	-1E+10	1	-1E+10	1
4902551	74	C	08/29/2022	18:10	-131.838	48.876	0	632.60	0	3.9180	0	34.1710	0	27.140	0	626.285	0	20.2	4	6.4	4	-1E+10	1	-1E+10	1	-1E+10	1	-1E+10	1	-1E+10	1	-1E+10	1
4902551	74	C	08/29/2022	18:10	-131.838	48.876	0	637.60	0	3.9080	0	34.1740	0	27.143	0	631.227	0	19.9	4	6.3	4	-1E+10	1	-1E+10	1	-1E+10	1	-1E+10	1	-1E+10	1	-1E+10	1
4902551	74	C	08/29/2022	18:10	-131.838	48.876	0	642.70	0	3.9010	0	34.1770	0	27.146	0	636.268	0	19.5	4	6.1	4	-1E+10	1	-1E+10	1	-1E+10	1	-1E+10	1	-1E+10	1	-1E+10	1
4902551	74	C	08/29/2022	18:10	-131.838	48.876	0	647.70	0	3.8920	0	34.1810	0	27.150	0	641.211	0	19.1	4	6.0	4	-1E+10	1	-1E+10	1	-1E+10	1	-1E+10	1	-1E+10	1	-1E+10	1
4902551	74	C	08/29/2022	18:10	-131.838	48.876	0	652.80	0	3.8830	0	34.1830	0	27.153	0	646.252	0	18.7	4	5.9	4	-1E+10	1	-1E+10	1	-1E+10	1	-1E+10	1	-1E+10	1	-1E+10	1
4902551	74	C	08/29/2022	18:10	-131.838	48.876	0	657.80	0	3.8690	0	34.1890	0	27.159	0	651.194	0	18.1	4	5.7	4	-1E+10	1	-1E+10	1	-1E+10	1	-1E+10	1	-1E+10	1	-1E+10	1
4902551	74	C	08/29/2022	18:10	-131.838	48.876	0	662.90	0	3.8560	0	34.1940	0	27.165	0	656.234	0	17.6	4	5.6	4	-1E+10	1	-1E+10	1	-1E+10	1	-1E+10	1	-1E+10	1	-1E+10	1
4902551	74	C	08/29/2022	18:10	-131.838	48.876	0	668.00	0	3.8480	0	34.2000	0	27.170	0	661.275	0	17.2	4	5.4	4	-1E+10	1	-1E+10	1	-1E+10	1	-1E+10	1	-1E+10	1	-1E+10	1
4902551	74	C	08/29/2022	18:10	-131.838	48.876	0	673.00	0	3.8300	0	34.2050	0	27.176	0	666.217	0	17.0	4	5.3	4	-1E+10	1	-1E+10	1	-1E+10	1	-1E+10	1	-1E+10	1	-1E+10	1
4902551	74	C	08/29/2022	18:10	-131.838	48.876	0	678.10	0	3.8120	0	34.2090	0	27.181	0	671.257	0	16.9	4	5.3	4	-1E+10	1	-1E+10	1	-1E+10	1	-1E+10	1	-1E+10	1	-1E+10	1
4902551	74	C	08/29/2022	18:10	-131.838	48.876	0	683.10	0	3.8020	0	34.2100	0	27.183	0	676.199	0	16.7	4	5.3	4	-1E+10	1	-1E+10	1	-1E+10	1	-1E+10	1	-1E+10	1	-1E+10	1
4902551	74	C	08/29/2022	18:10	-131.838	48.876	0	688.20	0	3.7930	0	34.2120	0	27.185	0	681.239	0	16.5	4	5.2	4	-1E+10	1	-1E+10	1	-1E+10	1	-1E+10	1	-1E+10	1	-1E+10	1
4902551	74	C	08/29/2022	18:10	-131.838	48.876	0	693.30	0	3.7820	0	34.2140	0	27.188	0	686.279	0	16.2	4	5.1	4	-1E+10	1	-1E+10	1	-1E+10	1	-1E+10	1	-1E+10	1	-1E+10	1
4902551	74	C	08/29/2022	18:10	-131.838	48.876	0	698.00	0	3.7630	0	34.2180	0	27.193	0	690.923	0	16.1	4	5.1	4	-1E+10	1	-1E+10	1	-1E+10	1	-1E+10	1	-1E+10	1	-1E+10	1
4902551	74	C	08/29/2022	18:10	-131.838	48.876	0	702.90	0	3.7500	0	34.2190	0	27.195	0	695.766	0	16.0	4	5.0	4	-1E+10	1	-1E+10	1	-1E+10	1	-1E+10	1	-1E+10	1	-1E+10	1
4902551	74	C	08/29/2022	18:10	-131.838	48.876	0	707.90	0	3.7390	0	34.2220	0	27.199	0	700.706	0	15.7	4	4.9	4	-1E+10	1	-1E+10	1	-1E+10	1	-1E+10	1	-1E+10	1	-1E+10	1
4902551	74	C	08/29/2022	18:10	-131.838	48.876	0	713.00	0	3.7280	0	34.2250	0	27.202	0	705.746	0	15.4	4	4.8	4	-1E+10	1	-1E+10	1	-1E+10	1	-1E+10	1	-1E+10	1	-1E+10	1
4902551	74	C	08/29/2022	18:10	-131.838	48.876	0	718.20	0	3.7300	0	34.2290	0	27.205	0	710.884	0	15.0	4	4.7	4	-1E+10	1	-1E+10	1	-1E+10	1	-1E+10	1	-1E+10	1	-1E+10	1
4902551	74	C	08/29/2022	18:10	-131.838	48.876	0	723.20	0	3.7320	0	34.2350	0	27.210	0	715.825	0	14.7	4	4.6	4	-1E+10	1	-1E+10	1	-1E+10	1	-1E+10	1	-1E+10	1	-1E+10	1
4902551	74	C	08/29/2022	18:10	-131.838	48.876	0	728.10	0	3.7240	0	34.2390	0	27.214	0	720.666	0	14.6	4	4.6	4	-1E+10	1	-1E+10	1	-1E+10	1	-1E+10	1	-1E+10	1	-1E+10	1
4902551	74	C	08/29/2022	18:10	-131.838	48.876	0	733.10	0	3.7060	0	34.2420	0	27.218	0	725.606	0	14.6	4	4.6	4	-1E+10	1	-1E+10	1	-1E+10	1	-1E+10	1	-1E+10	1	-1E+10	1
4902551	74	C	08/29/2022	18:10	-131.838	48.876	0	738.20	0	3.6830	0	34.2420	0	27.220	0	730.645	0	14.6	4	4.6	4	-1E+10	1	-1E+10	1	-1E+10	1	-1E+10	1	-1E+10	1	-1E+10	1
4902551	74	C	08/29/2022	18:10	-131.838	48.876	0	742.90	0	3.6580	0	34.2460	0	27.226	0	735.289	0	14.5	4	4.5	4	-1E+10	1	-1E+10	1	-1E+10	1	-1E+10	1	-1E+10	1	-1E+10	1
4902551	74	C	08/29/2022	18:10	-131.838	48.876	0	747.70	0	3.6530	0	34.2480	0	27.228	0	740.031	0	14.4	4	4.5	4	-1E+10	1	-1E+10	1	-1E+10	1	-1E+10	1	-1E+10	1	-1E+10	1
4902551	74	C	08/29/2022	18:10	-131.838	48.876	0	753.00	0	3.6490	0	34.2490	0	27.229	0	745.268	0	14.5	4	4.5	4	-1E+10	1	-1E+10	1	-1E+10	1	-1E+10	1	-1E+10	1	-1E+10	1
4902551	74	C	08/29/2022	18:10	-131.838	48.876	0	758.00	0	3.6340	0	34.2500	0	27.232	0	750.207	0	14.4	4	4.5	4	-1E+10	1	-1E+10	1	-1E+10	1	-1E+10	1	-1E+10	1	-1E+10	1
4902551	74	C	08/29/2022	18:10	-131.838	48.876	0	762.90	0	3.6290	0	34.2510	0	27.233	0	755.048	0	14.4	4	4.5	4	-1E+10	1	-1E+10	1	-1E+10	1	-1E+10	1	-1E+10	1	-1E+10	1
4902551	74	C	08/29/2022	18:10	-131.838	48.876	0	767.90	0	3.6170	0	34.2530	0	27.236	0	759.987	0	14.5	4	4.5	4	-1E+10	1	-1E+10	1	-1E+10	1	-1E+10	1	-1E+10	1	-1E+10	1
4902551	74	C	08/29/2022	18:10	-131.838	48.876	0	772.60	0	3.5850	0	34.2550	0	27.241	0	764.630	0	14.4	4	4.5	4	-1E+10	1	-1E+10	1	-1E+10	1	-1E+10	1	-1E+10	1	-1E+10	1
4902551	74	C	08/29/2022	18:10	-131.838	48.876	0	777.90	0	3.5750	0	34.2590	0	27.245	0	769.866	0	14.2	4	4.4	4	-1E+10	1	-1E+10	1	-1E+10	1	-1E+10	1	-1E+10	1	-1E+10	1
4902551	74	C	08/29/2022	18:10	-131.838	48.876	0	783.30	0	3.5630	0	34.2640	0	27.250	0	775.200	0	14.0	4	4.4	4	-1E+10	1	-1E+10	1	-1E+10	1	-1E+10	1	-1E+10	1	-1E+10	1
4902551	74	C	08/29/2022	18:10	-131.838	48.876	0	788.30	0	3.5530	0	34.2660	0	27.253	0	780.139	0	14.0	4	4.4	4	-1E+10	1	-1E+10	1	-1E+10	1	-1E+10	1	-1E+10	1	-1E+10	1
4902551	74	C	08/29/2022	18:10	-131.838	48.876	0	793.20	0	3.5430	0	34.2680	0	27.255	0	784.979	0	13.9	4	4.3	4	-1E+10	1	-1E+10	1	-1E+10	1	-1E+10	1	-1E+10	1	-1E+10	1
4902551	74	C	08/29/2022	18:10	-131.838	48.876	0	798.30	0	3.5380	0	34.2690	0	27.256	0	790.017	0	13.7	4	4.3	4	-1E+10	1	-1E+10	1	-1E+10	1	-1E+10	1	-1E+10	1	-1E+10	1
4902551	74	C	08/29/2022	18:10	-131.838	48.876	0	802.80	0	3.5320	0	34.2710	0	27.259	0	794.461	0	13.5	4	4.2	4	-1E+10	1	-1E+10	1	-1E+10	1	-1E+10	1	-1E+10	1	-1E+10	1
4902551	74	C	08/29/2022	18:10	-131.838	48.876	0	807.50	0	3.5290	0	34.2740	0	27.261	0	799.104	0	13.4	4	4.2	4	-1E+10	1	-1E+10	1	-1E+10	1	-1E+10	1	-1E+10	1	-1E+10	1
4902551	74	C	08/29/2022	18:10	-131.838	48.876	0	812.60	0	3.5220	0	34.2780	0	27.265	0	804.141	0	13.3	4	4.1	4	-1E+10	1	-1E+10	1	-1E+10	1	-1E+10	1	-1E+10	1	-1E+10	1
4902551	74	C	08/29/2022	18:10	-131.838	48.876	0	817.90	0	3.5140	0	34.2790	0	27.267	0	809.375	0	13.2	4	4.1	4	-1E+10	1	-1E+10	1	-1E+10	1	-1E+10	1	-1E+10	1	-1E+10	1
4902551	74	C	08/29/2022	18:10	-131.838	48.876	0	823.20	0	3.5050	0	34.2820	0	27.270	0	814.610	0	13.0	4	4.1	4	-1E+10	1	-1E+10	1	-1E+10	1	-1E+10	1	-1E+10	1	-1E+10	1
4902551	74	C	08/29/2022	18:10	-131.838	48.876	0	828.00	0	3.5000	0	34.2840	0	27.272	0	819.350	0	12.9	4	4.0	4	-1E+10	1	-1E+10	1	-1E+10	1	-1E+10	1	-1E+10	1	-1E+10	1
4902551	74	C	08/29/2022	18:10	-131.838	48.876	0	832.80	0	3.4960	0	34.2860	0	27.274	0	824.091	0	12.8	4	4.0	4	-1E+10	1	-1E+10	1	-1E+10	1	-1E+10	1	-1E+10	1	-1E+10	1
4902551	74	C	08/29/2022	18:10	-131.838	48.876	0	838.10	0	3.4920	0	34.2880	0	27.276	0	829.325	0	12.8	4	4.0	4	-1E+10	1	-1E+10	1	-1E+10	1	-1E+10	1	-1E+10	1	-1E+10	1
4902551	74	C	08/29/2022	18:10	-131.838	48.876	0	842.90	0	3.4900	0	34.2880	0	27.277	0	834.065	0	12.8	4	4.0	4	-1E+10	1	-1E+10	1	-1E+10	1	-1E+10	1	-1E+10	1	-1E+10	1
4902551	74	C	08/29/2022	18:10	-131.838	48.876	0	847.70	0	3.4830	0	34.2900	0	27.279	0	838.805	0	12.8	4	4.0	4	-1E+10	1	-1E+10	1	-1E+10	1	-1E+10	1	-1E+10	1	-1E+10	1
4902551	74	C	08/29/2022	18:10	-131.838	48.876	0	853.00	0	3.4820	0	34.2920	0	27.281	0	844.039	0	12.8	4	4.0	4	-1E+10	1	-1E+10	1	-1E+10	1	-1E+10	1	-1E+10	1	-1E+10	1
4902551	74	C	08/29/2022	18:10	-131.838	48.876	0	858.10	0	3.4710	0	34.2920	0	27.282	0	849.075	0	13.0	4	4.0	4	-1E+10	1	-1E+10	1	-1E+10	1	-1E+10	1	-1E+10	1	-1E+10	1
4902551	74	C	08/29/2022	18:10	-131.838	48.876	0	862.90	0	3.4370	0	34.2930	0	27.286	0	853.814	0	12.9	4	4.0	4	-1E+10	1	-1E+10	1	-1E+10	1	-1E+10	1	-1E+10	1	-1E+10	1
4902551	74	C	08/29/2022	18:10	-131.838	48.876	0	867.80	0	3.4380	0	34.2970	0	27.289	0	858.653	0	12.8	4	4.0	4	-1E+10	1	-1E+10	1	-1E+10	1	-1E+10	1	-1E+10	1	-1E+10	1
4902551	74	C	08/29/2022	18:10	-131.838	48.876	0	872.70	0	3.4280	0	34.2990	0	27.291	0	863.491	0	12.9	4	4.0	4	-1E+10	1	-1E+10	1	-1E+10	1	-1E+10	1	-1E+10	1	-1E+10	1
4902551	74	C	08/29/2022	18:10	-131.838	48.876	0	877.80	0	3.4050	0	34.3010	0	27.295	0	868.527	0	12.8	4	4.0	4	-1E+10	1	-1E+10	1	-1E+10	1	-1E+10	1	-1E+10	1	-1E+10	1
4902551	74	C	08/29/2022	18:10	-131.838	48.876	0	883.00	0	3.3970	0	34.3020	0	27.297	0	873.661	0	12.8	4	4.0	4	-1E+10	1	-1E+10	1	-1E+10	1	-1E+10	1	-1E+10	1	-1E+10	1
4902551	74	C	08/29/2022	18:10	-131.838	48.876	0	888.20	0	3.3850	0	34.3040	0	27.300	0	878.795	0	12.6	4	3.9	4	-1E+10	1	-1E+10	1	-1E+10	1	-1E+10	1	-1E+10	1	-1E+10	1
4902551	74	C	08/29/2022	18:10	-131.838	48.876	0	893.10	0	3.3770	0	34.3070	0	27.303	0	883.633	0	12.5	4	3.9	4	-1E+10	1	-1E+10	1	-1E+10	1	-1E+10	1	-1E+10	1	-1E+10	1
4902551	74	C	08/29/2022	18:10	-131.838	48.876	0	898.10	0	3.3730	0	34.3080	0	27.304	0	888.569	0	12.2	4	3.8	4	-1E+10	1	-1E+10	1	-1E+10	1	-1E+10	1	-1E+10	1	-1E+10	1
4902551	74	C	08/29/2022	18:10	-131.838	48.876	0	903.20	0	3.3870	0	34.3150	0	27.308	0	893.604	0	12.1	4	3.8	4	-1E+10	1	-1E+10	1	-1E+10	1	-1E+10	1	-1E+10	1	-1E+10	1
4902551	74	C	08/29/2022	18:10	-131.838	48.876	0	907.80	0	3.3690	0	34.3170	0	27.312	0	898.145	0	12.0	4	3.7	4	-1E+10	1	-1E+10	1	-1E+10	1	-1E+10	1	-1E+10	1	-1E+10	1
4902551	74	C	08/29/2022	18:10	-131.838	48.876	0	913.00	0	3.3570	0	34.3220	0	27.317	0	903.279	0	12.0	4	3.7	4	-1E+10	1	-1E+10	1	-1E+10	1	-1E+10	1	-1E+10	1	-1E+10	1
4902551	74	C	08/29/2022	18:10	-131.838	48.876	0	918.20	0	3.3510	0	34.3230	0	27.318	0	908.412	0	12.0	4	3.7	4	-1E+10	1	-1E+10	1	-1E+10	1	-1E+10	1	-1E+10	1	-1E+10	1
4902551	74	C	08/29/2022	18:10	-131.838	48.876	0	923.10	0	3.3400	0	34.3260	0	27.322	0	913.249	0	12.0	4	3.7	4	-1E+10	1	-1E+10	1	-1E+10	1	-1E+10	1	-1E+10	1	-1E+10	1
4902551	74	C	08/29/2022	18:10	-131.838	48.876	0	927.90	0	3.3230	0	34.3270	0	27.324	0	917.987	0	12.1	4	3.8	4	-1E+10	1	-1E+10	1	-1E+10	1	-1E+10	1	-1E+10	1	-1E+10	1
4902551	74	C	08/29/2022	18:10	-131.838	48.876	0	932.80	0	3.3070	0	34.3270	0	27.326	0	922.824	0	12.1	4	3.8	4	-1E+10	1	-1E+10	1	-1E+10	1	-1E+10	1	-1E+10	1	-1E+10	1
4902551	74	C	08/29/2022	18:10	-131.838	48.876	0	937.70	0	3.3030	0	34.3280	0	27.327	0	927.661	0	12.0	4	3.7	4	-1E+10	1	-1E+10	1	-1E+10	1	-1E+10	1	-1E+10	1	-1E+10	1
4902551	74	C	08/29/2022	18:10	-131.838	48.876	0	942.60	0	3.3020	0	34.3310	0	27.329	0	932.498	0	12.0	4	3.7	4	-1E+10	1	-1E+10	1	-1E+10	1	-1E+10	1	-1E+10	1	-1E+10	1
4902551	74	C	08/29/2022	18:10	-131.838	48.876	0	947.70	0	3.2970	0	34.3310	0	27.330	0	937.532	0	12.0	4	3.7	4	-1E+10	1	-1E+10	1	-1E+10	1	-1E+10	1	-1E+10	1	-1E+10	1
4902551	74	C	08/29/2022	18:10	-131.838	48.876	0	952.60	0	3.2870	0	34.3330	0	27.332	0	942.368	0	12.0	4	3.7	4	-1E+10	1	-1E+10	1	-1E+10	1	-1E+10	1	-1E+10	1	-1E+10	1
4902551	74	C	08/29/2022	18:10	-131.838	48.876	0	957.60	0	3.2730	0	34.3360	0	27.336	0	947.303	0	11.9	4	3.7	4	-1E+10	1	-1E+10	1	-1E+10	1	-1E+10	1	-1E+10	1	-1E+10	1
4902551	74	C	08/29/2022	18:10	-131.838	48.876	0	962.60	0	3.2670	0	34.3380	0	27.338	0	952.238	0	11.9	4	3.7	4	-1E+10	1	-1E+10	1	-1E+10	1	-1E+10	1	-1E+10	1	-1E+10	1
4902551	74	C	08/29/2022	18:10	-131.838	48.876	0	967.60	0	3.2570	0	34.3400	0	27.341	0	957.173	0	11.9	4	3.7	4	-1E+10	1	-1E+10	1	-1E+10	1	-1E+10	1	-1E+10	1	-1E+10	1
4902551	74	C	08/29/2022	18:10	-131.838	48.876	0	972.70	0	3.2520	0	34.3400	0	27.341	0	962.206	0	11.9	4	3.7	4	-1E+10	1	-1E+10	1	-1E+10	1	-1E+10	1	-1E+10	1	-1E+10	1
4902551	74	C	08/29/2022	18:10	-131.838	48.876	0	977.70	0	3.2400	0	34.3430	0	27.345	0	967.141	0	11.9	4	3.7	4	-1E+10	1	-1E+10	1	-1E+10	1	-1E+10	1	-1E+10	1	-1E+10	1
4902551	74	C	08/29/2022	18:10	-131.838	48.876	0	982.70	0	3.2340	0	34.3440	0	27.346	0	972.075	0	11.9	4	3.7	4	-1E+10	1	-1E+10	1	-1E+10	1	-1E+10	1	-1E+10	1	-1E+10	1
4902551	74	C	08/29/2022	18:10	-131.838	48.876	0	987.60	0	3.2250	0	34.3460	0	27.349	0	976.910	0	11.9	4	3.7	4	-1E+10	1	-1E+10	1	-1E+10	1	-1E+10	1	-1E+10	1	-1E+10	1
4902551	74	C	08/29/2022	18:10	-131.838	48.876	0	992.60	0	3.2200	0	34.3480	0	27.351	0	981.845	0	11.8	4	3.7	4	-1E+10	1	-1E+10	1	-1E+10	1	-1E+10	1	-1E+10	1	-1E+10	1
4902551	74	C	08/29/2022	18:10	-131.838	48.876	0	997.50	0	3.2130	0	34.3490	0	27.352	0	986.680	0	11.9	4	3.7	4	-1E+10	1	-1E+10	1	-1E+10	1	-1E+10	1	-1E+10	1	-1E+10	1
4902551	74	C	08/29/2022	18:10	-131.838	48.876	0	1005.30	0	3.1910	0	34.3520	0	27.357	0	994.377	0	11.8	4	3.7	4	-1E+10	1	-1E+10	1	-1E+10	1	-1E+10	1	-1E+10	1	-1E+10	1
4902551	74	C	08/29/2022	18:10	-131.838	48.876	0	1015.30	0	3.1680	0	34.3560	0	27.362	0	1004.244	0	11.9	4	3.7	4	-1E+10	1	-1E+10	1	-1E+10	1	-1E+10	1	-1E+10	1	-1E+10	1
4902551	74	C	08/29/2022	18:10	-131.838	48.876	0	1025.30	0	3.1460	0	34.3600	0	27.367	0	1014.111	0	11.9	4	3.7	4	-1E+10	1	-1E+10	1	-1E+10	1	-1E+10	1	-1E+10	1	-1E+10	1
4902551	74	C	08/29/2022	18:10	-131.838	48.876	0	1035.40	0	3.1220	0	34.3660	0	27.374	0	1024.076	0	11.9	4	3.7	4	-1E+10	1	-1E+10	1	-1E+10	1	-1E+10	1	-1E+10	1	-1E+10	1
4902551	74	C	08/29/2022	18:10	-131.838	48.876	0	1045.40	0	3.1000	0	34.3720	0	27.381	0	1033.942	0	12.0	4	3.7	4	-1E+10	1	-1E+10	1	-1E+10	1	-1E+10	1	-1E+10	1	-1E+10	1
4902551	74	C	08/29/2022	18:10	-131.838	48.876	0	1055.40	0	3.0890	0	34.3780	0	27.387	0	1043.808	0	12.1	4	3.7	4	-1E+10	1	-1E+10	1	-1E+10	1	-1E+10	1	-1E+10	1	-1E+10	1
4902551	74	C	08/29/2022	18:10	-131.838	48.876	0	1065.30	0	3.0650	0	34.3840	0	27.394	0	1053.574	0	12.2	4	3.8	4	-1E+10	1	-1E+10	1	-1E+10	1	-1E+10	1	-1E+10	1	-1E+10	1
4902551	74	C	08/29/2022	18:10	-131.838	48.876	0	1075.40	0	3.0230	0	34.3890	0	27.402	0	1063.538	0	12.4	4	3.8	4	-1E+10	1	-1E+10	1	-1E+10	1	-1E+10	1	-1E+10	1	-1E+10	1
4902551	74	C	08/29/2022	18:10	-131.838	48.876	0	1085.30	0	2.9920	0	34.3940	0	27.409	0	1073.303	0	12.6	4	3.9	4	-1E+10	1	-1E+10	1	-1E+10	1	-1E+10	1	-1E+10	1	-1E+10	1
4902551	74	C	08/29/2022	18:10	-131.838	48.876	0	1095.60	0	2.9850	0	34.4010	0	27.415	0	1083.463	0	12.8	4	3.9	4	-1E+10	1	-1E+10	1	-1E+10	1	-1E+10	1	-1E+10	1	-1E+10	1
4902551	74	C	08/29/2022	18:10	-131.838	48.876	0	1105.30	0	2.9700	0	34.4050	0	27.420	0	1093.030	0	13.0	4	4.0	4	-1E+10	1	-1E+10	1	-1E+10	1	-1E+10	1	-1E+10	1	-1E+10	1
4902551	74	C	08/29/2022	18:10	-131.838	48.876	0	1115.40	0	2.9620	0	34.4080	0	27.423	0	1102.991	0	13.1	4	4.0	4	-1E+10	1	-1E+10	1	-1E+10	1	-1E+10	1	-1E+10	1	-1E+10	1
4902551	74	C	08/29/2022	18:10	-131.838	48.876	0	1125.50	0	2.9510	0	34.4100	0	27.426	0	1112.952	0	13.2	4	4.1	4	-1E+10	1	-1E+10	1	-1E+10	1	-1E+10	1	-1E+10	1	-1E+10	1
4902551	74	C	08/29/2022	18:10	-131.838	48.876	0	1135.20	0	2.9280	0	34.4120	0	27.429	0	1122.518	0	13.3	4	4.1	4	-1E+10	1	-1E+10	1	-1E+10	1	-1E+10	1	-1E+10	1	-1E+10	1
4902551	74	C	08/29/2022	18:10	-131.838	48.876	0	1145.20	0	2.9060	0	34.4130	0	27.432	0	1132.379	0	13.3	4	4.1	4	-1E+10	1	-1E+10	1	-1E+10	1	-1E+10	1	-1E+10	1	-1E+10	1
4902551	74	C	08/29/2022	18:10	-131.838	48.876	0	1155.30	0	2.8760	0	34.4160	0	27.437	0	1142.339	0	13.5	4	4.1	4	-1E+10	1	-1E+10	1	-1E+10	1	-1E+10	1	-1E+10	1	-1E+10	1
4902551	74	C	08/29/2022	18:10	-131.838	48.876	0	1165.30	0	2.8600	0	34.4190	0	27.441	0	1152.199	0	13.6	4	4.2	4	-1E+10	1	-1E+10	1	-1E+10	1	-1E+10	1	-1E+10	1	-1E+10	1
4902551	74	C	08/29/2022	18:10	-131.838	48.876	0	1175.40	0	2.8500	0	34.4210	0	27.444	0	1162.158	0	13.8	4	4.2	4	-1E+10	1	-1E+10	1	-1E+10	1	-1E+10	1	-1E+10	1	-1E+10	1
4902551	74	C	08/29/2022	18:10	-131.838	48.876	0	1185.60	0	2.8310	0	34.4250	0	27.448	0	1172.215	0	13.9	4	4.3	4	-1E+10	1	-1E+10	1	-1E+10	1	-1E+10	1	-1E+10	1	-1E+10	1
4902551	74	C	08/29/2022	18:10	-131.838	48.876	0	1195.70	0	2.8160	0	34.4260	0	27.451	0	1182.172	0	14.0	4	4.3	4	-1E+10	1	-1E+10	1	-1E+10	1	-1E+10	1	-1E+10	1	-1E+10	1
4902551	74	C	08/29/2022	18:10	-131.838	48.876	0	1205.40	0	2.7950	0	34.4290	0	27.455	0	1191.735	0	14.2	4	4.4	4	-1E+10	1	-1E+10	1	-1E+10	1	-1E+10	1	-1E+10	1	-1E+10	1
4902551	74	C	08/29/2022	18:10	-131.838	48.876	0	1215.10	0	2.7740	0	34.4310	0	27.458	0	1201.297	0	14.4	4	4.4	4	-1E+10	1	-1E+10	1	-1E+10	1	-1E+10	1	-1E+10	1	-1E+10	1
4902551	74	C	08/29/2022	18:10	-131.838	48.876	0	1225.30	0	2.7650	0	34.4350	0	27.462	0	1211.352	0	14.8	4	4.5	4	-1E+10	1	-1E+10	1	-1E+10	1	-1E+10	1	-1E+10	1	-1E+10	1
4902551	74	C	08/29/2022	18:10	-131.838	48.876	0	1235.30	0	2.7570	0	34.4380	0	27.466	0	1221.209	0	15.0	4	4.6	4	-1E+10	1	-1E+10	1	-1E+10	1	-1E+10	1	-1E+10	1	-1E+10	1
4902551	74	C	08/29/2022	18:10	-131.838	48.876	0	1245.30	0	2.7510	0	34.4390	0	27.467	0	1231.066	0	15.1	4	4.6	4	-1E+10	1	-1E+10	1	-1E+10	1	-1E+10	1	-1E+10	1	-1E+10	1
4902551	74	C	08/29/2022	18:10	-131.838	48.876	0	1255.30	0	2.7350	0	34.4410	0	27.470	0	1240.922	0	15.4	4	4.7	4	-1E+10	1	-1E+10	1	-1E+10	1	-1E+10	1	-1E+10	1	-1E+10	1
4902551	74	C	08/29/2022	18:10	-131.838	48.876	0	1265.30	0	2.7180	0	34.4450	0	27.475	0	1250.778	0	15.8	4	4.8	4	-1E+10	1	-1E+10	1	-1E+10	1	-1E+10	1	-1E+10	1	-1E+10	1
4902551	74	C	08/29/2022	18:10	-131.838	48.876	0	1275.20	0	2.7000	0	34.4490	0	27.480	0	1260.535	0	16.3	4	5.0	4	-1E+10	1	-1E+10	1	-1E+10	1	-1E+10	1	-1E+10	1	-1E+10	1
4902551	74	C	08/29/2022	18:10	-131.838	48.876	0	1285.10	0	2.6850	0	34.4520	0	27.483	0	1270.291	0	16.6	4	5.1	4	-1E+10	1	-1E+10	1	-1E+10	1	-1E+10	1	-1E+10	1	-1E+10	1
4902551	74	C	08/29/2022	18:10	-131.838	48.876	0	1295.10	0	2.6680	0	34.4550	0	27.487	0	1280.145	0	16.9	4	5.2	4	-1E+10	1	-1E+10	1	-1E+10	1	-1E+10	1	-1E+10	1	-1E+10	1
4902551	74	C	08/29/2022	18:10	-131.838	48.876	0	1305.30	0	2.6560	0	34.4570	0	27.490	0	1290.196	0	17.3	4	5.3	4	-1E+10	1	-1E+10	1	-1E+10	1	-1E+10	1	-1E+10	1	-1E+10	1
4902551	74	C	08/29/2022	18:10	-131.838	48.876	0	1315.60	0	2.6390	0	34.4600	0	27.494	0	1300.345	0	17.6	4	5.4	4	-1E+10	1	-1E+10	1	-1E+10	1	-1E+10	1	-1E+10	1	-1E+10	1
4902551	74	C	08/29/2022	18:10	-131.838	48.876	0	1325.40	0	2.6200	0	34.4630	0	27.498	0	1310.001	0	18.1	4	5.5	4	-1E+10	1	-1E+10	1	-1E+10	1	-1E+10	1	-1E+10	1	-1E+10	1
4902551	74	C	08/29/2022	18:10	-131.838	48.876	0	1335.40	0	2.6050	0	34.4660	0	27.502	0	1319.854	0	18.5	4	5.7	4	-1E+10	1	-1E+10	1	-1E+10	1	-1E+10	1	-1E+10	1	-1E+10	1
4902551	74	C	08/29/2022	18:10	-131.838	48.876	0	1345.80	0	2.5890	0	34.4690	0	27.505	0	1330.100	0	19.0	4	5.8	4	-1E+10	1	-1E+10	1	-1E+10	1	-1E+10	1	-1E+10	1	-1E+10	1
4902551	74	C	08/29/2022	18:10	-131.838	48.876	0	1355.70	0	2.5730	0	34.4720	0	27.509	0	1339.853	0	19.5	4	6.0	4	-1E+10	1	-1E+10	1	-1E+10	1	-1E+10	1	-1E+10	1	-1E+10	1
4902551	74	C	08/29/2022	18:10	-131.838	48.876	0	1365.50	0	2.5570	0	34.4750	0	27.513	0	1349.507	0	19.9	4	6.1	4	-1E+10	1	-1E+10	1	-1E+10	1	-1E+10	1	-1E+10	1	-1E+10	1
4902551	74	C	08/29/2022	18:10	-131.838	48.876	0	1375.50	0	2.5400	0	34.4780	0	27.517	0	1359.358	0	20.4	4	6.2	4	-1E+10	1	-1E+10	1	-1E+10	1	-1E+10	1	-1E+10	1	-1E+10	1
4902551	74	C	08/29/2022	18:10	-131.838	48.876	0	1385.70	0	2.5250	0	34.4800	0	27.520	0	1369.405	0	20.9	4	6.4	4	-1E+10	1	-1E+10	1	-1E+10	1	-1E+10	1	-1E+10	1	-1E+10	1
4902551	74	C	08/29/2022	18:10	-131.838	48.876	0	1395.60	0	2.5100	0	34.4830	0	27.524	0	1379.156	0	21.3	4	6.5	4	-1E+10	1	-1E+10	1	-1E+10	1	-1E+10	1	-1E+10	1	-1E+10	1
4902551	74	C	08/29/2022	18:10	-131.838	48.876	0	1405.70	0	2.4990	0	34.4840	0	27.525	0	1389.104	0	21.6	4	6.6	4	-1E+10	1	-1E+10	1	-1E+10	1	-1E+10	1	-1E+10	1	-1E+10	1
4902551	74	C	08/29/2022	18:10	-131.838	48.876	0	1415.70	0	2.4870	0	34.4870	0	27.529	0	1398.953	0	22.0	4	6.7	4	-1E+10	1	-1E+10	1	-1E+10	1	-1E+10	1	-1E+10	1	-1E+10	1
4902551	74	C	08/29/2022	18:10	-131.838	48.876	0	1425.80	0	2.4740	0	34.4890	0	27.532	0	1408.900	0	22.5	4	6.9	4	-1E+10	1	-1E+10	1	-1E+10	1	-1E+10	1	-1E+10	1	-1E+10	1
4902551	74	C	08/29/2022	18:10	-131.838	48.876	0	1435.50	0	2.4620	0	34.4910	0	27.534	0	1418.452	0	23.1	4	7.0	4	-1E+10	1	-1E+10	1	-1E+10	1	-1E+10	1	-1E+10	1	-1E+10	1
4902551	74	C	08/29/2022	18:10	-131.838	48.876	0	1445.50	0	2.4540	0	34.4930	0	27.537	0	1428.300	0	23.7	4	7.2	4	-1E+10	1	-1E+10	1	-1E+10	1	-1E+10	1	-1E+10	1	-1E+10	1
4902551	74	C	08/29/2022	18:10	-131.838	48.876	0	1455.50	0	2.4400	0	34.4960	0	27.540	0	1438.147	0	24.4	4	7.4	4	-1E+10	1	-1E+10	1	-1E+10	1	-1E+10	1	-1E+10	1	-1E+10	1
4902551	74	C	08/29/2022	18:10	-131.838	48.876	0	1465.00	0	2.4270	0	34.4980	0	27.543	0	1447.501	0	24.9	4	7.6	4	-1E+10	1	-1E+10	1	-1E+10	1	-1E+10	1	-1E+10	1	-1E+10	1
4902551	74	C	08/29/2022	18:10	-131.838	48.876	0	1475.20	0	2.4130	0	34.5010	0	27.547	0	1457.544	0	25.4	4	7.7	4	-1E+10	1	-1E+10	1	-1E+10	1	-1E+10	1	-1E+10	1	-1E+10	1
4902551	74	C	08/29/2022	18:10	-131.838	48.876	0	1485.40	0	2.4030	0	34.5020	0	27.548	0	1467.586	0	25.8	4	7.9	4	-1E+10	1	-1E+10	1	-1E+10	1	-1E+10	1	-1E+10	1	-1E+10	1
4902551	74	C	08/29/2022	18:10	-131.838	48.876	0	1495.50	0	2.3920	0	34.5040	0	27.551	0	1477.530	0	26.4	4	8.0	4	-1E+10	1	-1E+10	1	-1E+10	1	-1E+10	1	-1E+10	1	-1E+10	1
4902551	74	C	08/29/2022	18:10	-131.838	48.876	0	1505.50	0	2.3740	0	34.5070	0	27.555	0	1487.375	0	27.0	4	8.2	4	-1E+10	1	-1E+10	1	-1E+10	1	-1E+10	1	-1E+10	1	-1E+10	1
4902551	74	C	08/29/2022	18:10	-131.838	48.876	0	1515.50	0	2.3610	0	34.5100	0	27.558	0	1497.219	0	27.7	4	8.4	4	-1E+10	1	-1E+10	1	-1E+10	1	-1E+10	1	-1E+10	1	-1E+10	1
4902551	74	C	08/29/2022	18:10	-131.838	48.876	0	1525.30	0	2.3440	0	34.5120	0	27.561	0	1506.866	0	28.4	4	8.6	4	-1E+10	1	-1E+10	1	-1E+10	1	-1E+10	1	-1E+10	1	-1E+10	1
4902551	74	C	08/29/2022	18:10	-131.838	48.876	0	1535.30	0	2.3320	0	34.5150	0	27.565	0	1516.709	0	29.0	4	8.8	4	-1E+10	1	-1E+10	1	-1E+10	1	-1E+10	1	-1E+10	1	-1E+10	1
4902551	74	C	08/29/2022	18:10	-131.838	48.876	0	1545.50	0	2.3210	0	34.5160	0	27.566	0	1526.749	0	29.5	4	9.0	4	-1E+10	1	-1E+10	1	-1E+10	1	-1E+10	1	-1E+10	1	-1E+10	1
4902551	74	C	08/29/2022	18:10	-131.838	48.876	0	1555.50	0	2.3090	0	34.5180	0	27.569	0	1536.591	0	29.9	4	9.1	4	-1E+10	1	-1E+10	1	-1E+10	1	-1E+10	1	-1E+10	1	-1E+10	1
4902551	74	C	08/29/2022	18:10	-131.838	48.876	0	1565.30	0	2.3020	0	34.5190	0	27.571	0	1546.236	0	30.4	4	9.2	4	-1E+10	1	-1E+10	1	-1E+10	1	-1E+10	1	-1E+10	1	-1E+10	1
4902551	74	C	08/29/2022	18:10	-131.838	48.876	0	1575.30	0	2.2900	0	34.5210	0	27.573	0	1556.078	0	31.0	4	9.4	4	-1E+10	1	-1E+10	1	-1E+10	1	-1E+10	1	-1E+10	1	-1E+10	1
4902551	74	C	08/29/2022	18:10	-131.838	48.876	0	1585.50	0	2.2760	0	34.5240	0	27.577	0	1566.115	0	31.5	4	9.5	4	-1E+10	1	-1E+10	1	-1E+10	1	-1E+10	1	-1E+10	1	-1E+10	1
4902551	74	C	08/29/2022	18:10	-131.838	48.876	0	1595.40	0	2.2670	0	34.5250	0	27.578	0	1575.857	0	31.9	4	9.7	4	-1E+10	1	-1E+10	1	-1E+10	1	-1E+10	1	-1E+10	1	-1E+10	1
4902551	74	C	08/29/2022	18:10	-131.838	48.876	0	1605.00	0	2.2570	0	34.5270	0	27.581	0	1585.304	0	32.6	4	9.9	4	-1E+10	1	-1E+10	1	-1E+10	1	-1E+10	1	-1E+10	1	-1E+10	1
4902551	74	C	08/29/2022	18:10	-131.838	48.876	0	1615.00	0	2.2410	0	34.5300	0	27.585	0	1595.144	0	33.1	4	10.0	4	-1E+10	1	-1E+10	1	-1E+10	1	-1E+10	1	-1E+10	1	-1E+10	1
4902551	74	C	08/29/2022	18:10	-131.838	48.876	0	1625.20	0	2.2360	0	34.5300	0	27.585	0	1605.179	0	33.5	4	10.2	4	-1E+10	1	-1E+10	1	-1E+10	1	-1E+10	1	-1E+10	1	-1E+10	1
4902551	74	C	08/29/2022	18:10	-131.838	48.876	0	1635.70	0	2.2250	0	34.5320	0	27.588	0	1615.510	0	34.0	4	10.3	4	-1E+10	1	-1E+10	1	-1E+10	1	-1E+10	1	-1E+10	1	-1E+10	1
4902551	74	C	08/29/2022	18:10	-131.838	48.876	0	1645.30	0	2.2140	0	34.5340	0	27.590	0	1624.955	0	34.7	4	10.5	4	-1E+10	1	-1E+10	1	-1E+10	1	-1E+10	1	-1E+10	1	-1E+10	1
4902551	74	C	08/29/2022	18:10	-131.838	48.876	0	1655.10	0	2.1980	0	34.5360	0	27.593	0	1634.596	0	35.1	4	10.6	4	-1E+10	1	-1E+10	1	-1E+10	1	-1E+10	1	-1E+10	1	-1E+10	1
4902551	74	C	08/29/2022	18:10	-131.838	48.876	0	1665.10	0	2.1930	0	34.5370	0	27.594	0	1644.433	0	35.5	4	10.8	4	-1E+10	1	-1E+10	1	-1E+10	1	-1E+10	1	-1E+10	1	-1E+10	1
4902551	74	C	08/29/2022	18:10	-131.838	48.876	0	1675.20	0	2.1860	0	34.5380	0	27.596	0	1654.368	0	36.2	4	11.0	4	-1E+10	1	-1E+10	1	-1E+10	1	-1E+10	1	-1E+10	1	-1E+10	1
4902551	74	C	08/29/2022	18:10	-131.838	48.876	0	1685.50	0	2.1700	0	34.5410	0	27.599	0	1664.500	0	37.2	4	11.3	4	-1E+10	1	-1E+10	1	-1E+10	1	-1E+10	1	-1E+10	1	-1E+10	1
4902551	74	C	08/29/2022	18:10	-131.838	48.876	0	1695.50	0	2.1600	0	34.5440	0	27.603	0	1674.336	0	38.0	4	11.5	4	-1E+10	1	-1E+10	1	-1E+10	1	-1E+10	1	-1E+10	1	-1E+10	1
4902551	74	C	08/29/2022	18:10	-131.838	48.876	0	1705.50	0	2.1510	0	34.5450	0	27.604	0	1684.171	0	38.5	4	11.6	4	-1E+10	1	-1E+10	1	-1E+10	1	-1E+10	1	-1E+10	1	-1E+10	1
4902551	74	C	08/29/2022	18:10	-131.838	48.876	0	1715.40	0	2.1440	0	34.5460	0	27.606	0	1693.908	0	39.0	4	11.8	4	-1E+10	1	-1E+10	1	-1E+10	1	-1E+10	1	-1E+10	1	-1E+10	1
4902551	74	C	08/29/2022	18:10	-131.838	48.876	0	1725.40	0	2.1320	0	34.5480	0	27.608	0	1703.743	0	39.6	4	12.0	4	-1E+10	1	-1E+10	1	-1E+10	1	-1E+10	1	-1E+10	1	-1E+10	1
4902551	74	C	08/29/2022	18:10	-131.838	48.876	0	1735.20	0	2.1270	0	34.5490	0	27.610	0	1713.380	0	40.1	4	12.1	4	-1E+10	1	-1E+10	1	-1E+10	1	-1E+10	1	-1E+10	1	-1E+10	1
4902551	74	C	08/29/2022	18:10	-131.838	48.876	0	1745.20	0	2.1170	0	34.5510	0	27.612	0	1723.214	0	41.1	4	12.4	4	-1E+10	1	-1E+10	1	-1E+10	1	-1E+10	1	-1E+10	1	-1E+10	1
4902551	74	C	08/29/2022	18:10	-131.838	48.876	0	1755.20	0	2.1070	0	34.5530	0	27.614	0	1733.047	0	41.5	4	12.6	4	-1E+10	1	-1E+10	1	-1E+10	1	-1E+10	1	-1E+10	1	-1E+10	1
4902551	74	C	08/29/2022	18:10	-131.838	48.876	0	1765.50	0	2.1010	0	34.5540	0	27.616	0	1743.175	0	42.3	4	12.8	4	-1E+10	1	-1E+10	1	-1E+10	1	-1E+10	1	-1E+10	1	-1E+10	1
4902551	74	C	08/29/2022	18:10	-131.838	48.876	0	1775.70	0	2.0890	0	34.5560	0	27.618	0	1753.204	0	43.2	4	13.0	4	-1E+10	1	-1E+10	1	-1E+10	1	-1E+10	1	-1E+10	1	-1E+10	1
4902551	74	C	08/29/2022	18:10	-131.838	48.876	0	1785.60	0	2.0760	0	34.5580	0	27.621	0	1762.937	0	43.8	4	13.2	4	-1E+10	1	-1E+10	1	-1E+10	1	-1E+10	1	-1E+10	1	-1E+10	1
4902551	74	C	08/29/2022	18:10	-131.838	48.876	0	1795.70	0	2.0670	0	34.5600	0	27.623	0	1772.867	0	44.5	4	13.4	4	-1E+10	1	-1E+10	1	-1E+10	1	-1E+10	1	-1E+10	1	-1E+10	1
4902551	74	C	08/29/2022	18:10	-131.838	48.876	0	1805.60	0	2.0550	0	34.5620	0	27.626	0	1782.599	0	45.1	4	13.6	4	-1E+10	1	-1E+10	1	-1E+10	1	-1E+10	1	-1E+10	1	-1E+10	1
4902551	74	C	08/29/2022	18:10	-131.838	48.876	0	1815.50	0	2.0470	0	34.5630	0	27.627	0	1792.332	0	45.5	4	13.7	4	-1E+10	1	-1E+10	1	-1E+10	1	-1E+10	1	-1E+10	1	-1E+10	1
4902551	74	C	08/29/2022	18:10	-131.838	48.876	0	1825.60	0	2.0370	0	34.5650	0	27.630	0	1802.260	0	46.0	4	13.9	4	-1E+10	1	-1E+10	1	-1E+10	1	-1E+10	1	-1E+10	1	-1E+10	1
4902551	74	C	08/29/2022	18:10	-131.838	48.876	0	1835.50	0	2.0320	0	34.5660	0	27.631	0	1811.991	0	46.5	4	14.0	4	-1E+10	1	-1E+10	1	-1E+10	1	-1E+10	1	-1E+10	1	-1E+10	1
4902551	74	C	08/29/2022	18:10	-131.838	48.876	0	1845.50	0	2.0230	0	34.5670	0	27.633	0	1821.820	0	47.1	4	14.2	4	-1E+10	1	-1E+10	1	-1E+10	1	-1E+10	1	-1E+10	1	-1E+10	1
4902551	74	C	08/29/2022	18:10	-131.838	48.876	0	1855.90	0	2.0150	0	34.5690	0	27.635	0	1832.042	0	47.8	4	14.4	4	-1E+10	1	-1E+10	1	-1E+10	1	-1E+10	1	-1E+10	1	-1E+10	1
4902551	74	C	08/29/2022	18:10	-131.838	48.876	0	1865.40	0	2.0090	0	34.5700	0	27.636	0	1841.379	0	48.4	4	14.6	4	-1E+10	1	-1E+10	1	-1E+10	1	-1E+10	1	-1E+10	1	-1E+10	1
4902551	74	C	08/29/2022	18:10	-131.838	48.876	0	1875.40	0	2.0020	0	34.5720	0	27.638	0	1851.207	0	49.1	4	14.8	4	-1E+10	1	-1E+10	1	-1E+10	1	-1E+10	1	-1E+10	1	-1E+10	1
4902551	74	C	08/29/2022	18:10	-131.838	48.876	0	1885.40	0	1.9950	0	34.5730	0	27.640	0	1861.034	0	49.5	4	14.9	4	-1E+10	1	-1E+10	1	-1E+10	1	-1E+10	1	-1E+10	1	-1E+10	1
4902551	74	C	08/29/2022	18:10	-131.838	48.876	0	1895.20	0	1.9920	0	34.5730	0	27.640	0	1870.664	0	50.0	4	15.1	4	-1E+10	1	-1E+10	1	-1E+10	1	-1E+10	1	-1E+10	1	-1E+10	1
4902551	74	C	08/29/2022	18:10	-131.838	48.876	0	1905.60	0	1.9860	0	34.5740	0	27.642	0	1880.884	0	50.4	4	15.2	4	-1E+10	1	-1E+10	1	-1E+10	1	-1E+10	1	-1E+10	1	-1E+10	1
4902551	74	C	08/29/2022	18:10	-131.838	48.876	0	1915.60	0	1.9840	0	34.5750	0	27.643	0	1890.709	0	50.7	4	15.3	4	-1E+10	1	-1E+10	1	-1E+10	1	-1E+10	1	-1E+10	1	-1E+10	1
4902551	74	C	08/29/2022	18:10	-131.838	48.876	0	1925.30	0	1.9810	0	34.5760	0	27.644	0	1900.240	0	51.3	4	15.5	4	-1E+10	1	-1E+10	1	-1E+10	1	-1E+10	1	-1E+10	1	-1E+10	1
4902551	74	C	08/29/2022	18:10	-131.838	48.876	0	1935.10	0	1.9710	0	34.5780	0	27.646	0	1909.869	0	51.9	4	15.6	4	-1E+10	1	-1E+10	1	-1E+10	1	-1E+10	1	-1E+10	1	-1E+10	1
4902551	74	C	08/29/2022	18:10	-131.838	48.876	0	1945.30	0	1.9640	0	34.5790	0	27.647	0	1919.890	0	52.5	4	15.8	4	-1E+10	1	-1E+10	1	-1E+10	1	-1E+10	1	-1E+10	1	-1E+10	1
4902551	74	C	08/29/2022	18:10	-131.838	48.876	0	1955.20	0	1.9580	0	34.5800	0	27.649	0	1929.616	0	53.0	4	16.0	4	-1E+10	1	-1E+10	1	-1E+10	1	-1E+10	1	-1E+10	1	-1E+10	1
4902551	74	C	08/29/2022	18:10	-131.838	48.876	0	1965.20	0	1.9530	0	34.5810	0	27.650	0	1939.439	0	53.4	4	16.1	4	-1E+10	1	-1E+10	1	-1E+10	1	-1E+10	1	-1E+10	1	-1E+10	1
4902551	74	C	08/29/2022	18:10	-131.838	48.876	0	1975.30	0	1.9490	0	34.5820	0	27.651	0	1949.361	0	53.8	4	16.2	4	-1E+10	1	-1E+10	1	-1E+10	1	-1E+10	1	-1E+10	1	-1E+10	1
4902551	74	C	08/29/2022	18:10	-131.838	48.876	0	1985.80	0	1.9390	0	34.5840	0	27.654	0	1959.675	0	54.0	4	16.3	4	-1E+10	1	-1E+10	1	-1E+10	1	-1E+10	1	-1E+10	1	-1E+10	1
4902551	74	C	08/29/2022	18:10	-131.838	48.876	0	1991.50	0	1.9360	0	34.5840	0	27.654	0	1965.273	0	53.8	4	16.2	4	-1E+10	1	-1E+10	1	-1E+10	1	-1E+10	1	-1E+10	1	-1E+10	1
4902551	74	C	08/29/2022	18:10	-131.838	48.876	0																										
4902551	75	C	09/08/2022	23:14	-131.689	48.724	0	0.30	0	17.2420	0	32.2120	0	23.320	0	0.297	0	235.4	4	97.3	4	-1E+10	1	-1E+10	1	-1E+10	1	-1E+10	1	-1E+10	1	-1E+10	1
4902551	75	C	09/08/2022	23:14	-131.689	48.724	0	1.10	0	17.2410	0	32.2180	0	23.325	0	1.091	0	235.5	4	97.4	4	-1E+10	1	-1E+10	1	-1E+10	1	-1E+10	1	-1E+10	1	-1E+10	1
4902551	75	C	09/08/2022	23:14	-131.689	48.724	0	2.10	0	17.2380	0	32.2220	0	23.329	0	2.082	0	235.3	4	97.3	4	-1E+10	1	-1E+10	1	-1E+10	1	-1E+10	1	-1E+10	1	-1E+10	1
4902551	75	C	09/08/2022	23:14	-131.689	48.724	0	3.10	0	17.2430	0	32.2170	0	23.324	0	3.074	0	235.5	4	97.4	4	-1E+10	1	-1E+10	1	-1E+10	1	-1E+10	1	-1E+10	1	-1E+10	1
4902551	75	C	09/08/2022	23:14	-131.689	48.724	0	3.90	0	17.2390	0	32.2200	0	23.327	0	3.867	0	235.4	4	97.3	4	-1E+10	1	-1E+10	1	-1E+10	1	-1E+10	1	-1E+10	1	-1E+10	1
4902551	75	C	09/08/2022	23:14	-131.689	48.724	0	4.80	0	17.2340	0	32.2250	0	23.332	0	4.759	0	235.5	4	97.3	4	-1E+10	1	-1E+10	1	-1E+10	1	-1E+10	1	-1E+10	1	-1E+10	1
4902551	75	C	09/08/2022	23:14	-131.689	48.724	0	5.80	0	17.2300	0	32.2270	0	23.334	0	5.751	0	235.4	4	97.3	4	-1E+10	1	-1E+10	1	-1E+10	1	-1E+10	1	-1E+10	1	-1E+10	1
4902551	75	C	09/08/2022	23:14	-131.689	48.724	0	6.70	0	17.2320	0	32.2250	0	23.332	0	6.643	0	235.6	4	97.4	4	-1E+10	1	-1E+10	1	-1E+10	1	-1E+10	1	-1E+10	1	-1E+10	1
4902551	75	C	09/08/2022	23:14	-131.689	48.724	0	7.80	0	17.2310	0	32.2250	0	23.333	0	7.734	0	235.7	4	97.4	4	-1E+10	1	-1E+10	1	-1E+10	1	-1E+10	1	-1E+10	1	-1E+10	1
4902551	75	C	09/08/2022	23:14	-131.689	48.724	0	9.00	0	17.2300	0	32.2250	0	23.333	0	8.924	0	235.8	4	97.5	4	-1E+10	1	-1E+10	1	-1E+10	1	-1E+10	1	-1E+10	1	-1E+10	1
4902551	75	C	09/08/2022	23:14	-131.689	48.724	0	9.80	0	17.2320	0	32.2250	0	23.333	0	9.717	0	235.8	4	97.5	4	-1E+10	1	-1E+10	1	-1E+10	1	-1E+10	1	-1E+10	1	-1E+10	1
4902551	75	C	09/08/2022	23:14	-131.689	48.724	0	10.60	0	17.2240	0	32.2240	0	23.334	0	10.510	0	235.9	4	97.5	4	-1E+10	1	-1E+10	1	-1E+10	1	-1E+10	1	-1E+10	1	-1E+10	1
4902551	75	C	09/08/2022	23:14	-131.689	48.724	0	11.90	0	17.2150	0	32.2250	0	23.337	0	11.799	0	236.2	4	97.6	4	-1E+10	1	-1E+10	1	-1E+10	1	-1E+10	1	-1E+10	1	-1E+10	1
4902551	75	C	09/08/2022	23:14	-131.689	48.724	0	13.10	0	17.2120	0	32.2250	0	23.337	0	12.989	0	236.3	4	97.7	4	-1E+10	1	-1E+10	1	-1E+10	1	-1E+10	1	-1E+10	1	-1E+10	1
4902551	75	C	09/08/2022	23:14	-131.689	48.724	0	13.90	0	17.2210	0	32.2270	0	23.337	0	13.782	0	236.4	4	97.7	4	-1E+10	1	-1E+10	1	-1E+10	1	-1E+10	1	-1E+10	1	-1E+10	1
4902551	75	C	09/08/2022	23:14	-131.689	48.724	0	14.70	0	17.2200	0	32.2270	0	23.337	0	14.575	0	236.7	4	97.8	4	-1E+10	1	-1E+10	1	-1E+10	1	-1E+10	1	-1E+10	1	-1E+10	1
4902551	75	C	09/08/2022	23:14	-131.689	48.724	0	16.00	0	17.2170	0	32.2230	0	23.335	0	15.864	0	236.9	4	97.9	4	-1E+10	1	-1E+10	1	-1E+10	1	-1E+10	1	-1E+10	1	-1E+10	1
4902551	75	C	09/08/2022	23:14	-131.689	48.724	0	17.30	0	17.2110	0	32.2280	0	23.340	0	17.153	0	237.3	4	98.1	4	-1E+10	1	-1E+10	1	-1E+10	1	-1E+10	1	-1E+10	1	-1E+10	1
4902551	75	C	09/08/2022	23:14	-131.689	48.724	0	18.10	0	17.2120	0	32.2200	0	23.334	0	17.946	0	237.6	4	98.2	4	-1E+10	1	-1E+10	1	-1E+10	1	-1E+10	1	-1E+10	1	-1E+10	1
4902551	75	C	09/08/2022	23:14	-131.689	48.724	0	18.90	0	17.2080	0	32.2260	0	23.339	0	18.739	0	237.9	4	98.3	4	-1E+10	1	-1E+10	1	-1E+10	1	-1E+10	1	-1E+10	1	-1E+10	1
4902551	75	C	09/08/2022	23:14	-131.689	48.724	0	20.00	0	17.2050	0	32.2250	0	23.339	0	19.830	0	238.5	4	98.5	4	-1E+10	1	-1E+10	1	-1E+10	1	-1E+10	1	-1E+10	1	-1E+10	1
4902551	75	C	09/08/2022	23:14	-131.689	48.724	0	21.00	0	17.2020	0	32.2250	0	23.340	0	20.821	0	239.0	4	98.8	4	-1E+10	1	-1E+10	1	-1E+10	1	-1E+10	1	-1E+10	1	-1E+10	1
4902551	75	C	09/08/2022	23:14	-131.689	48.724	0	21.70	0	17.1990	0	32.2250	0	23.341	0	21.515	0	239.9	4	99.1	4	-1E+10	1	-1E+10	1	-1E+10	1	-1E+10	1	-1E+10	1	-1E+10	1
4902551	75	C	09/08/2022	23:14	-131.689	48.724	0	22.90	0	17.1920	0	32.2250	0	23.342	0	22.705	0	241.4	4	99.7	4	-1E+10	1	-1E+10	1	-1E+10	1	-1E+10	1	-1E+10	1	-1E+10	1
4902551	75	C	09/08/2022	23:14	-131.689	48.724	0	23.90	0	17.1390	0	32.2290	0	23.358	0	23.696	0	243.9	4	100.7	4	-1E+10	1	-1E+10	1	-1E+10	1	-1E+10	1	-1E+10	1	-1E+10	1
4902551	75	C	09/08/2022	23:14	-131.689	48.724	0	24.90	0	16.5180	0	32.2320	0	23.504	0	24.688	0	263.0	4	107.3	4	-1E+10	1	-1E+10	1	-1E+10	1	-1E+10	1	-1E+10	1	-1E+10	1
4902551	75	C	09/08/2022	23:14	-131.689	48.724	0	26.00	0	14.5800	0	32.3800	0	24.044	0	25.778	0	273.3	4	107.4	4	-1E+10	1	-1E+10	1	-1E+10	1	-1E+10	1	-1E+10	1	-1E+10	1
4902551	75	C	09/08/2022	23:14	-131.689	48.724	0	27.10	0	13.5180	0	32.3010	0	24.201	0	26.869	0	277.7	4	106.8	4	-1E+10	1	-1E+10	1	-1E+10	1	-1E+10	1	-1E+10	1	-1E+10	1
4902551	75	C	09/08/2022	23:14	-131.689	48.724	0	28.10	0	13.2800	0	32.3060	0	24.253	0	27.860	0	278.7	4	106.6	4	-1E+10	1	-1E+10	1	-1E+10	1	-1E+10	1	-1E+10	1	-1E+10	1
4902551	75	C	09/08/2022	23:14	-131.689	48.724	0	29.00	0	12.9840	0	32.3180	0	24.320	0	28.753	0	280.2	4	106.6	4	-1E+10	1	-1E+10	1	-1E+10	1	-1E+10	1	-1E+10	1	-1E+10	1
4902551	75	C	09/08/2022	23:14	-131.689	48.724	0	30.00	0	12.4530	0	32.3340	0	24.435	0	29.744	0	281.2	4	105.8	4	-1E+10	1	-1E+10	1	-1E+10	1	-1E+10	1	-1E+10	1	-1E+10	1
4902551	75	C	09/08/2022	23:14	-131.689	48.724	0	31.30	0	12.2310	0	32.3250	0	24.470	0	31.033	0	281.3	4	105.4	4	-1E+10	1	-1E+10	1	-1E+10	1	-1E+10	1	-1E+10	1	-1E+10	1
4902551	75	C	09/08/2022	23:14	-131.689	48.724	0	32.20	0	12.2220	0	32.3230	0	24.470	0	31.925	0	281.1	4	105.3	4	-1E+10	1	-1E+10	1	-1E+10	1	-1E+10	1	-1E+10	1	-1E+10	1
4902551	75	C	09/08/2022	23:14	-131.689	48.724	0	32.90	0	12.1620	0	32.3320	0	24.489	0	32.619	0	281.0	4	105.1	4	-1E+10	1	-1E+10	1	-1E+10	1	-1E+10	1	-1E+10	1	-1E+10	1
4902551	75	C	09/08/2022	23:14	-131.689	48.724	0	34.00	0	12.1180	0	32.3230	0	24.490	0	33.710	0	280.8	4	104.9	4	-1E+10	1	-1E+10	1	-1E+10	1	-1E+10	1	-1E+10	1	-1E+10	1
4902551	75	C	09/08/2022	23:14	-131.689	48.724	0	35.00	0	11.9680	0	32.3370	0	24.529	0	34.701	0	280.6	4	104.5	4	-1E+10	1	-1E+10	1	-1E+10	1	-1E+10	1	-1E+10	1	-1E+10	1
4902551	75	C	09/08/2022	23:14	-131.689	48.724	0	35.90	0	11.8810	0	32.3310	0	24.540	0	35.593	0	280.5	4	104.3	4	-1E+10	1	-1E+10	1	-1E+10	1	-1E+10	1	-1E+10	1	-1E+10	1
4902551	75	C	09/08/2022	23:14	-131.689	48.724	0	36.80	0	11.6550	0	32.3550	0	24.600	0	36.486	0	280.7	4	103.9	4	-1E+10	1	-1E+10	1	-1E+10	1	-1E+10	1	-1E+10	1	-1E+10	1
4902551	75	C	09/08/2022	23:14	-131.689	48.724	0	38.00	0	11.3280	0	32.3650	0	24.667	0	37.675	0	281.0	4	103.3	4	-1E+10	1	-1E+10	1	-1E+10	1	-1E+10	1	-1E+10	1	-1E+10	1
4902551	75	C	09/08/2022	23:14	-131.689	48.724	0	39.00	0	11.2130	0	32.3570	0	24.682	0	38.667	0	280.6	4	102.9	4	-1E+10	1	-1E+10	1	-1E+10	1	-1E+10	1	-1E+10	1	-1E+10	1
4902551	75	C	09/08/2022	23:14	-131.689	48.724	0	40.20	0	11.1570	0	32.3590	0	24.693	0	39.856	0	279.5	4	102.4	4	-1E+10	1	-1E+10	1	-1E+10	1	-1E+10	1	-1E+10	1	-1E+10	1
4902551	75	C	09/08/2022	23:14	-131.689	48.724	0	40.90	0	11.0430	0	32.3720	0	24.723	0	40.550	0	279.0	4	101.9	4	-1E+10	1	-1E+10	1	-1E+10	1	-1E+10	1	-1E+10	1	-1E+10	1
4902551	75	C	09/08/2022	23:14	-131.689	48.724	0	42.00	0	10.8380	0	32.3630	0	24.752	0	41.641	0	278.4	4	101.3	4	-1E+10	1	-1E+10	1	-1E+10	1	-1E+10	1	-1E+10	1	-1E+10	1
4902551	75	C	09/08/2022	23:14	-131.689	48.724	0	43.10	0	10.4410	0	32.3780	0	24.832	0	42.731	0	278.2	4	100.4	4	-1E+10	1	-1E+10	1	-1E+10	1	-1E+10	1	-1E+10	1	-1E+10	1
4902551	75	C	09/08/2022	23:14	-131.689	48.724	0	44.10	0	10.1150	0	32.3870	0	24.894	0	43.722	0	277.5	4	99.4	4	-1E+10	1	-1E+10	1	-1E+10	1	-1E+10	1	-1E+10	1	-1E+10	1
4902551	75	C	09/08/2022	23:14	-131.689	48.724	0	45.10	0	9.9290	0	32.3890	0	24.927	0	44.714	0	276.3	4	98.6	4	-1E+10	1	-1E+10	1	-1E+10	1	-1E+10	1	-1E+10	1	-1E+10	1
4902551	75	C	09/08/2022	23:14	-131.689	48.724	0	46.10	0	9.8650	0	32.3890	0	24.937	0	45.705	0	275.0	4	98.0	4	-1E+10	1	-1E+10	1	-1E+10	1	-1E+10	1	-1E+10	1	-1E+10	1
4902551	75	C	09/08/2022	23:14	-131.689	48.724	0	47.10	0	9.5050	0	32.4030	0	25.007	0	46.696	0	274.8	4	97.2	4	-1E+10	1	-1E+10	1	-1E+10	1	-1E+10	1	-1E+10	1	-1E+10	1
4902551	75	C	09/08/2022	23:14	-131.689	48.724	0	48.10	0	9.4130	0	32.3980	0	25.017	0	47.688	0	274.4	4	96.8	4	-1E+10	1	-1E+10	1	-1E+10	1	-1E+10	1	-1E+10	1	-1E+10	1
4902551	75	C	09/08/2022	23:14	-131.689	48.724	0	49.10	0	9.3600	0	32.4000	0	25.027	0	48.679	0	273.7	4	96.5	4	-1E+10	1	-1E+10	1	-1E+10	1	-1E+10	1	-1E+10	1	-1E+10	1
4902551	75	C	09/08/2022	23:14	-131.689	48.724	0	50.10	0	9.2830	0	32.3940	0	25.035	0	49.670	0	273.3	4	96.2	4	-1E+10	1	-1E+10	1	-1E+10	1	-1E+10	1	-1E+10	1	-1E+10	1
4902551	75	C	09/08/2022	23:14	-131.689	48.724	0	51.00	0	9.2280	0	32.4000	0	25.048	0	50.562	0	272.8	4	95.9	4	-1E+10	1	-1E+10	1	-1E+10	1	-1E+10	1	-1E+10	1	-1E+10	1
4902551	75	C	09/08/2022	23:14	-131.689	48.724	0	51.80	0	9.1280	0	32.3940	0	25.059	0	51.355	0	272.8	4	95.7	4	-1E+10	1	-1E+10	1	-1E+10	1	-1E+10	1	-1E+10	1	-1E+10	1
4902551	75	C	09/08/2022	23:14	-131.689	48.724	0	52.90	0	9.0610	0	32.3900	0	25.067	0	52.446	0	272.4	4	95.4	4	-1E+10	1	-1E+10	1	-1E+10	1	-1E+10	1	-1E+10	1	-1E+10	1
4902551	75	C	09/08/2022	23:14	-131.689	48.724	0	54.00	0	8.9800	0	32.3910	0	25.080	0	53.536	0	272.0	4	95.1	4	-1E+10	1	-1E+10	1	-1E+10	1	-1E+10	1	-1E+10	1	-1E+10	1
4902551	75	C	09/08/2022	23:14	-131.689	48.724	0	54.90	0	8.8780	0	32.3900	0	25.095	0	54.428	0	272.0	4	94.8	4	-1E+10	1	-1E+10	1	-1E+10	1	-1E+10	1	-1E+10	1	-1E+10	1
4902551	75	C	09/08/2022	23:14	-131.689	48.724	0	55.80	0	8.8150	0	32.3810	0	25.098	0	55.321	0	271.8	4	94.7	4	-1E+10	1	-1E+10	1	-1E+10	1	-1E+10	1	-1E+10	1	-1E+10	1
4902551	75	C	09/08/2022	23:14	-131.689	48.724	0	57.00	0	8.7490	0	32.3800	0	25.107	0	56.510	0	271.3	4	94.4	4	-1E+10	1	-1E+10	1	-1E+10	1	-1E+10	1	-1E+10	1	-1E+10	1
4902551	75	C	09/08/2022	23:14	-131.689	48.724	0	58.00	0	8.7240	0	32.3850	0	25.115	0	57.501	0	271.0	4	94.2	4	-1E+10	1	-1E+10	1	-1E+10	1	-1E+10	1	-1E+10	1	-1E+10	1
4902551	75	C	09/08/2022	23:14	-131.689	48.724	0	58.90	0	8.6160	0	32.3840	0	25.130	0	58.394	0	271.0	4	94.0	4	-1E+10	1	-1E+10	1	-1E+10	1	-1E+10	1	-1E+10	1	-1E+10	1
4902551	75	C	09/08/2022	23:14	-131.689	48.724	0	59.90	0	8.5420	0	32.3830	0	25.141	0	59.385	0	270.9	4	93.8	4	-1E+10	1	-1E+10	1	-1E+10	1	-1E+10	1	-1E+10	1	-1E+10	1
4902551	75	C	09/08/2022	23:14	-131.689	48.724	0	60.80	0	8.5040	0	32.3830	0	25.146	0	60.277	0	270.7	4	93.6	4	-1E+10	1	-1E+10	1	-1E+10	1	-1E+10	1	-1E+10	1	-1E+10	1
4902551	75	C	09/08/2022	23:14	-131.689	48.724	0	62.10	0	8.4370	0	32.3820	0	25.155	0	61.566	0	270.5	4	93.4	4	-1E+10	1	-1E+10	1	-1E+10	1	-1E+10	1	-1E+10	1	-1E+10	1
4902551	75	C	09/08/2022	23:14	-131.689	48.724	0	63.00	0	8.3440	0	32.3930	0	25.178	0	62.458	0	270.5	4	93.2	4	-1E+10	1	-1E+10	1	-1E+10	1	-1E+10	1	-1E+10	1	-1E+10	1
4902551	75	C	09/08/2022	23:14	-131.689	48.724	0	64.00	0	8.2620	0	32.3930	0	25.190	0	63.449	0	270.6	4	93.1	4	-1E+10	1	-1E+10	1	-1E+10	1	-1E+10	1	-1E+10	1	-1E+10	1
4902551	75	C	09/08/2022	23:14	-131.689	48.724	0	65.00	0	8.1610	0	32.4110	0	25.219	0	64.440	0	270.6	4	92.9	4	-1E+10	1	-1E+10	1	-1E+10	1	-1E+10	1	-1E+10	1	-1E+10	1
4902551	75	C	09/08/2022	23:14	-131.689	48.724	0	65.90	0	8.1280	0	32.4000	0	25.215	0	65.332	0	270.7	4	92.8	4	-1E+10	1	-1E+10	1	-1E+10	1	-1E+10	1	-1E+10	1	-1E+10	1
4902551	75	C	09/08/2022	23:14	-131.689	48.724	0	66.90	0	8.0800	0	32.4060	0	25.227	0	66.323	0	270.5	4	92.7	4	-1E+10	1	-1E+10	1	-1E+10	1	-1E+10	1	-1E+10	1	-1E+10	1
4902551	75	C	09/08/2022	23:14	-131.689	48.724	0	67.90	0	8.0510	0	32.4040	0	25.229	0	67.315	0	270.4	4	92.6	4	-1E+10	1	-1E+10	1	-1E+10	1	-1E+10	1	-1E+10	1	-1E+10	1
4902551	75	C	09/08/2022	23:14	-131.689	48.724	0	68.90	0	8.0420	0	32.4020	0	25.229	0	68.306	0	270.2	4	92.5	4	-1E+10	1	-1E+10	1	-1E+10	1	-1E+10	1	-1E+10	1	-1E+10	1
4902551	75	C	09/08/2022	23:14	-131.689	48.724	0	69.80	0	8.0120	0	32.4030	0	25.234	0	69.198	0	270.0	4	92.4	4	-1E+10	1	-1E+10	1	-1E+10	1	-1E+10	1	-1E+10	1	-1E+10	1
4902551	75	C	09/08/2022	23:14	-131.689	48.724	0	71.10	0	7.9680	0	32.4020	0	25.240	0	70.487	0	269.9	4	92.3	4	-1E+10	1	-1E+10	1	-1E+10	1	-1E+10	1	-1E+10	1	-1E+10	1
4902551	75	C	09/08/2022	23:14	-131.689	48.724	0	72.00	0	7.9430	0	32.4040	0	25.245	0	71.379	0	269.6	4	92.1	4	-1E+10	1	-1E+10	1	-1E+10	1	-1E+10	1	-1E+10	1	-1E+10	1
4902551	75	C	09/08/2022	23:14	-131.689	48.724	0	72.90	0	7.9280	0	32.4040	0	25.247	0	72.271	0	269.5	4	92.0	4	-1E+10	1	-1E+10	1	-1E+10	1	-1E+10	1	-1E+10	1	-1E+10	1
4902551	75	C	09/08/2022	23:14	-131.689	48.724	0	73.90	0	7.9020	0	32.4050	0	25.252	0	73.262	0	269.3	4	91.9	4	-1E+10	1	-1E+10	1	-1E+10	1	-1E+10	1	-1E+10	1	-1E+10	1
4902551	75	C	09/08/2022	23:14	-131.689	48.724	0	75.10	0	7.8510	0	32.4050	0	25.259	0	74.451	0	269.1	4	91.7	4	-1E+10	1	-1E+10	1	-1E+10	1	-1E+10	1	-1E+10	1	-1E+10	1
4902551	75	C	09/08/2022	23:14	-131.689	48.724	0	76.00	0	7.8070	0	32.4070	0	25.267	0	75.343	0	269.0	4	91.6	4	-1E+10	1	-1E+10	1	-1E+10	1	-1E+10	1	-1E+10	1	-1E+10	1
4902551	75	C	09/08/2022	23:14	-131.689	48.724	0	76.90	0	7.7850	0	32.4070	0	25.270	0	76.235	0	269.0	4	91.6	4	-1E+10	1	-1E+10	1	-1E+10	1	-1E+10	1	-1E+10	1	-1E+10	1
4902551	75	C	09/08/2022	23:14	-131.689	48.724	0	78.10	0	7.7600	0	32.4100	0	25.276	0	77.425	0	268.8	4	91.4	4	-1E+10	1	-1E+10	1	-1E+10	1	-1E+10	1	-1E+10	1	-1E+10	1
4902551	75	C	09/08/2022	23:14	-131.689	48.724	0	79.00	0	7.7410	0	32.4110	0	25.279	0	78.317	0	268.5	4	91.3	4	-1E+10	1	-1E+10	1	-1E+10	1	-1E+10	1	-1E+10	1	-1E+10	1
4902551	75	C	09/08/2022	23:14	-131.689	48.724	0	79.90	0	7.7330	0	32.4110	0	25.281	0	79.209	0	268.2	4	91.2	4	-1E+10	1	-1E+10	1	-1E+10	1	-1E+10	1	-1E+10	1	-1E+10	1
4902551	75	C	09/08/2022	23:14	-131.689	48.724	0	80.90	0	7.7230	0	32.4110	0	25.282	0	80.200	0	267.9	4	91.1	4	-1E+10	1	-1E+10	1	-1E+10	1	-1E+10	1	-1E+10	1	-1E+10	1
4902551	75	C	09/08/2022	23:14	-131.689	48.724	0	81.90	0	7.7020	0	32.4140	0	25.287	0	81.191	0	267.5	4	90.9	4	-1E+10	1	-1E+10	1	-1E+10	1	-1E+10	1	-1E+10	1	-1E+10	1
4902551	75	C	09/08/2022	23:14	-131.689	48.724	0	82.90	0	7.6710	0	32.4140	0	25.292	0	82.182	0	274.0	4	93.0	4	-1E+10	1	-1E+10	1	-1E+10	1	-1E+10	1	-1E+10	1	-1E+10	1
4902551	75	C	09/08/2022	23:14	-131.689	48.724	0	83.90	0	7.6490	0	32.4150	0	25.296	0	83.174	0	273.6	4	92.8	4	-1E+10	1	-1E+10	1	-1E+10	1	-1E+10	1	-1E+10	1	-1E+10	1
4902551	75	C	09/08/2022	23:14	-131.689	48.724	0	84.90	0	7.6130	0	32.4180	0	25.303	0	84.165	0	273.3	4	92.7	4	-1E+10	1	-1E+10	1	-1E+10	1	-1E+10	1	-1E+10	1	-1E+10	1
4902551	75	C	09/08/2022	23:14	-131.689	48.724	0	85.90	0	7.6020	0	32.4170	0	25.304	0	85.156	0	272.9	4	92.5	4	-1E+10	1	-1E+10	1	-1E+10	1	-1E+10	1	-1E+10	1	-1E+10	1
4902551	75	C	09/08/2022	23:14	-131.689	48.724	0	86.90	0	7.5850	0	32.4180	0	25.307	0	86.147	0	272.5	4	92.3	4	-1E+10	1	-1E+10	1	-1E+10	1	-1E+10	1	-1E+10	1	-1E+10	1
4902551	75	C	09/08/2022	23:14	-131.689	48.724	0	87.90	0	7.5680	0	32.4190	0	25.310	0	87.138	0	271.9	4	92.1	4	-1E+10	1	-1E+10	1	-1E+10	1	-1E+10	1	-1E+10	1	-1E+10	1
4902551	75	C	09/08/2022	23:14	-131.689	48.724	0	88.90	0	7.5380	0	32.4210	0	25.316	0	88.129	0	271.5	4	91.9	4	-1E+10	1	-1E+10	1	-1E+10	1	-1E+10	1	-1E+10	1	-1E+10	1
4902551	75	C	09/08/2022	23:14	-131.689	48.724	0	89.90	0	7.4810	0	32.4250	0	25.327	0	89.120	0	271.1	4	91.7	4	-1E+10	1	-1E+10	1	-1E+10	1	-1E+10	1	-1E+10	1	-1E+10	1
4902551	75	C	09/08/2022	23:14	-131.689	48.724	0	91.00	0	7.4230	0	32.4320	0	25.340	0	90.210	0	270.7	4	91.4	4	-1E+10	1	-1E+10	1	-1E+10	1	-1E+10	1	-1E+10	1	-1E+10	1
4902551	75	C	09/08/2022	23:14	-131.689	48.724	0	92.00	0	7.3820	0	32.4330	0	25.347	0	91.202	0	270.3	4	91.2	4	-1E+10	1	-1E+10	1	-1E+10	1	-1E+10	1	-1E+10	1	-1E+10	1
4902551	75	C	09/08/2022	23:14	-131.689	48.724	0	93.10	0	7.3680	0	32.4340	0	25.350	0	92.292	0	269.6	4	90.9	4	-1E+10	1	-1E+10	1	-1E+10	1	-1E+10	1	-1E+10	1	-1E+10	1
4902551	75	C	09/08/2022	23:14	-131.689	48.724	0	93.80	0	7.3520	0	32.4360	0	25.353	0	92.986	0	269.3	4	90.8	4	-1E+10	1	-1E+10	1	-1E+10	1	-1E+10	1	-1E+10	1	-1E+10	1
4902551	75	C	09/08/2022	23:14	-131.689	48.724	0	94.80	0	7.3300	0	32.4400	0	25.359	0	93.977	0	268.5	4	90.5	4	-1E+10	1	-1E+10	1	-1E+10	1	-1E+10	1	-1E+10	1	-1E+10	1
4902551	75	C	09/08/2022	23:14	-131.689	48.724	0	95.90	0	7.2930	0	32.4440	0	25.368	0	95.067	0	267.7	4	90.1	4	-1E+10	1	-1E+10	1	-1E+10	1	-1E+10	1	-1E+10	1	-1E+10	1
4902551	75	C	09/08/2022	23:14	-131.689	48.724	0	97.00	0	7.2430	0	32.4550	0	25.383	0	96.157	0	267.1	4	89.8	4	-1E+10	1	-1E+10	1	-1E+10	1	-1E+10	1	-1E+10	1	-1E+10	1
4902551	75	C	09/08/2022	23:14	-131.689	48.724	0	98.20	0	7.2190	0	32.4590	0	25.390	0	97.346	0	266.3	4	89.5	4	-1E+10	1	-1E+10	1	-1E+10	1	-1E+10	1	-1E+10	1	-1E+10	1
4902551	75	C	09/08/2022	23:14	-131.689	48.724	0	99.00	0	7.2130	0	32.4600	0	25.391	0	98.139	0	265.8	4	89.4	4	-1E+10	1	-1E+10	1	-1E+10	1	-1E+10	1	-1E+10	1	-1E+10	1
4902551	75	C	09/08/2022	23:14	-131.689	48.724	0	100.20	0	7.1990	0	32.4650	0	25.397	0	99.328	0	264.8	4	89.0	4	-1E+10	1	-1E+10	1	-1E+10	1	-1E+10	1	-1E+10	1	-1E+10	1
4902551	75	C	09/08/2022	23:14	-131.689	48.724	0	101.10	0	7.1830	0	32.4690	0	25.402	0	100.220	0	264.1	4	88.7	4	-1E+10	1	-1E+10	1	-1E+10	1	-1E+10	1	-1E+10	1	-1E+10	1
4902551	75	C	09/08/2022	23:14	-131.689	48.724	0	101.80	0	7.1540	0	32.4780	0	25.413	0	100.914	0	263.6	4	88.5	4	-1E+10	1	-1E+10	1	-1E+10	1	-1E+10	1	-1E+10	1	-1E+10	1
4902551	75	C	09/08/2022	23:14	-131.689	48.724	0	102.80	0	7.1290	0	32.4860	0	25.423	0	101.905	0	262.7	4	88.2	4	-1E+10	1	-1E+10	1	-1E+10	1	-1E+10	1	-1E+10	1	-1E+10	1
4902551	75	C	09/08/2022	23:14	-131.689	48.724	0	103.80	0	7.1180	0	32.4880	0	25.426	0	102.896	0	261.7	4	87.8	4	-1E+10	1	-1E+10	1	-1E+10	1	-1E+10	1	-1E+10	1	-1E+10	1
4902551	75	C	09/08/2022	23:14	-131.689	48.724	0	104.70	0	7.1040	0	32.4950	0	25.433	0	103.788	0	260.8	4	87.5	4	-1E+10	1	-1E+10	1	-1E+10	1	-1E+10	1	-1E+10	1	-1E+10	1
4902551	75	C	09/08/2022	23:14	-131.689	48.724	0	105.70	0	7.0850	0	32.5070	0	25.445	0	104.779	0	259.8	4	87.1	4	-1E+10	1	-1E+10	1	-1E+10	1	-1E+10	1	-1E+10	1	-1E+10	1
4902551	75	C	09/08/2022	23:14	-131.689	48.724	0	106.70	0	7.0410	0	32.5300	0	25.469	0	105.770	0	258.7	4	86.6	4	-1E+10	1	-1E+10	1	-1E+10	1	-1E+10	1	-1E+10	1	-1E+10	1
4902551	75	C	09/08/2022	23:14	-131.689	48.724	0	107.90	0	7.0030	0	32.5500	0	25.490	0	106.959	0	257.4	4	86.2	4	-1E+10	1	-1E+10	1	-1E+10	1	-1E+10	1	-1E+10	1	-1E+10	1
4902551	75	C	09/08/2022	23:14	-131.689	48.724	0	109.10	0	6.9610	0	32.5770	0	25.517	0	108.149	0	256.5	4	85.8	4	-1E+10	1	-1E+10	1	-1E+10	1	-1E+10	1	-1E+10	1	-1E+10	1
4902551	75	C	09/08/2022	23:14	-131.689	48.724	0	110.30	0	6.9500	0	32.5830	0	25.523	0	109.338	0	255.5	4	85.4	4	-1E+10	1	-1E+10	1	-1E+10	1	-1E+10	1	-1E+10	1	-1E+10	1
4902551	75	C	09/08/2022	23:14	-131.689	48.724	0	111.00	0	6.9420	0	32.5860	0	25.527	0	110.032	0	254.8	4	85.2	4	-1E+10	1	-1E+10	1	-1E+10	1	-1E+10	1	-1E+10	1	-1E+10	1
4902551	75	C	09/08/2022	23:14	-131.689	48.724	0	111.90	0	6.9360	0	32.5920	0	25.532	0	110.924	0	253.7	4	84.8	4	-1E+10	1	-1E+10	1	-1E+10	1	-1E+10	1	-1E+10	1	-1E+10	1
4902551	75	C	09/08/2022	23:14	-131.689	48.724	0	112.80	0	6.9260	0	32.6000	0	25.540	0	111.815	0	252.6	4	84.4	4	-1E+10	1	-1E+10	1	-1E+10	1	-1E+10	1	-1E+10	1	-1E+10	1
4902551	75	C	09/08/2022	23:14	-131.689	48.724	0	114.10	0	6.8850	0	32.6380	0	25.575	0	113.104	0	250.8	4	83.8	4	-1E+10	1	-1E+10	1	-1E+10	1	-1E+10	1	-1E+10	1	-1E+10	1
4902551	75	C	09/08/2022	23:14	-131.689	48.724	0	115.00	0	6.8270	0	32.6790	0	25.615	0	113.996	0	249.2	4	83.2	4	-1E+10	1	-1E+10	1	-1E+10	1	-1E+10	1	-1E+10	1	-1E+10	1
4902551	75	C	09/08/2022	23:14	-131.689	48.724	0	116.00	0	6.7970	0	32.7050	0	25.640	0	114.987	0	247.4	4	82.5	4	-1E+10	1	-1E+10	1	-1E+10	1	-1E+10	1	-1E+10	1	-1E+10	1
4902551	75	C	09/08/2022	23:14	-131.689	48.724	0	117.10	0	6.7810	0	32.7190	0	25.653	0	116.077	0	245.5	4	81.9	4	-1E+10	1	-1E+10	1	-1E+10	1	-1E+10	1	-1E+10	1	-1E+10	1
4902551	75	C	09/08/2022	23:14	-131.689	48.724	0	118.00	0	6.7700	0	32.7260	0	25.660	0	116.969	0	244.3	4	81.5	4	-1E+10	1	-1E+10	1	-1E+10	1	-1E+10	1	-1E+10	1	-1E+10	1
4902551	75	C	09/08/2022	23:14	-131.689	48.724	0	118.90	0	6.7500	0	32.7360	0	25.670	0	117.860	0	242.8	4	80.9	4	-1E+10	1	-1E+10	1	-1E+10	1	-1E+10	1	-1E+10	1	-1E+10	1
4902551	75	C	09/08/2022	23:14	-131.689	48.724	0	119.80	0	6.7090	0	32.7670	0	25.700	0	118.752	0	241.3	4	80.4	4	-1E+10	1	-1E+10	1	-1E+10	1	-1E+10	1	-1E+10	1	-1E+10	1
4902551	75	C	09/08/2022	23:14	-131.689	48.724	0	120.90	0	6.6910	0	32.7810	0	25.714	0	119.842	0	239.8	4	79.8	4	-1E+10	1	-1E+10	1	-1E+10	1	-1E+10	1	-1E+10	1	-1E+10	1
4902551	75	C	09/08/2022	23:14	-131.689	48.724	0	121.90	0	6.6850	0	32.7810	0	25.714	0	120.833	0	237.8	4	79.1	4	-1E+10	1	-1E+10	1	-1E+10	1	-1E+10	1	-1E+10	1	-1E+10	1
4902551	75	C	09/08/2022	23:14	-131.689	48.724	0	123.10	0	6.6480	0	32.7910	0	25.727	0	122.023	0	234.1	4	77.8	4	-1E+10	1	-1E+10	1	-1E+10	1	-1E+10	1	-1E+10	1	-1E+10	1
4902551	75	C	09/08/2022	23:14	-131.689	48.724	0	124.10	0	6.5940	0	32.8360	0	25.770	0	123.013	0	232.2	4	77.2	4	-1E+10	1	-1E+10	1	-1E+10	1	-1E+10	1	-1E+10	1	-1E+10	1
4902551	75	C	09/08/2022	23:14	-131.689	48.724	0	125.00	0	6.5840	0	32.8550	0	25.786	0	123.905	0	230.0	4	76.4	4	-1E+10	1	-1E+10	1	-1E+10	1	-1E+10	1	-1E+10	1	-1E+10	1
4902551	75	C	09/08/2022	23:14	-131.689	48.724	0	126.00	0	6.5780	0	32.8650	0	25.794	0	124.896	0	227.5	4	75.6	4	-1E+10	1	-1E+10	1	-1E+10	1	-1E+10	1	-1E+10	1	-1E+10	1
4902551	75	C	09/08/2022	23:14	-131.689	48.724	0	127.10	0	6.5540	0	32.8920	0	25.819	0	125.986	0	224.2	4	74.5	4	-1E+10	1	-1E+10	1	-1E+10	1	-1E+10	1	-1E+10	1	-1E+10	1
4902551	75	C	09/08/2022	23:14	-131.689	48.724	0	127.90	0	6.5230	0	32.9250	0	25.849	0	126.779	0	222.1	4	73.7	4	-1E+10	1	-1E+10	1	-1E+10	1	-1E+10	1	-1E+10	1	-1E+10	1
4902551	75	C	09/08/2022	23:14	-131.689	48.724	0	128.90	0	6.4790	0	32.9590	0	25.881	0	127.770	0	219.2	4	72.7	4	-1E+10	1	-1E+10	1	-1E+10	1	-1E+10	1	-1E+10	1	-1E+10	1
4902551	75	C	09/08/2022	23:14	-131.689	48.724	0	130.00	0	6.4430	0	32.9720	0	25.896	0	128.860	0	215.4	4	71.4	4	-1E+10	1	-1E+10	1	-1E+10	1	-1E+10	1	-1E+10	1	-1E+10	1
4902551	75	C	09/08/2022	23:14	-131.689	48.724	0	130.80	0	6.3770	0	33.0010	0	25.928	0	129.653	0	212.9	4	70.5	4	-1E+10	1	-1E+10	1	-1E+10	1	-1E+10	1	-1E+10	1	-1E+10	1
4902551	75	C	09/08/2022	23:14	-131.689	48.724	0	132.00	0	6.3040	0	33.1080	0	26.021	0	130.842	0	210.3	4	69.5	4	-1E+10	1	-1E+10	1	-1E+10	1	-1E+10	1	-1E+10	1	-1E+10	1
4902551	75	C	09/08/2022	23:14	-131.689	48.724	0	132.90	0	6.2930	0	33.1690	0	26.071	0	131.734	0	209.0	4	69.1	4	-1E+10	1	-1E+10	1	-1E+10	1	-1E+10	1	-1E+10	1	-1E+10	1
4902551	75	C	09/08/2022	23:14	-131.689	48.724	0	133.90	0	6.2930	0	33.1800	0	26.080	0	132.724	0	208.1	4	68.8	4	-1E+10	1	-1E+10	1	-1E+10	1	-1E+10	1	-1E+10	1	-1E+10	1
4902551	75	C	09/08/2022	23:14	-131.689	48.724	0	135.00	0	6.2980	0	33.1890	0	26.086	0	133.814	0	207.2	4	68.6	4	-1E+10	1	-1E+10	1	-1E+10	1	-1E+10	1	-1E+10	1	-1E+10	1
4902551	75	C	09/08/2022	23:14	-131.689	48.724	0	136.00	0	6.2990	0	33.1910	0	26.087	0	134.805	0	206.1	4	68.2	4	-1E+10	1	-1E+10	1	-1E+10	1	-1E+10	1	-1E+10	1	-1E+10	1
4902551	75	C	09/08/2022	23:14	-131.689	48.724	0	137.10	0	6.2920	0	33.1970	0	26.093	0	135.895	0	204.8	4	67.8	4	-1E+10	1	-1E+10	1	-1E+10	1	-1E+10	1	-1E+10	1	-1E+10	1
4902551	75	C	09/08/2022	23:14	-131.689	48.724	0	137.80	0	6.2890	0	33.2000	0	26.096	0	136.589	0	203.9	4	67.5	4	-1E+10	1	-1E+10	1	-1E+10	1	-1E+10	1	-1E+10	1	-1E+10	1
4902551	75	C	09/08/2022	23:14	-131.689	48.724	0	138.90	0	6.2890	0	33.2020	0	26.097	0	137.679	0	202.3	4	66.9	4	-1E+10	1	-1E+10	1	-1E+10	1	-1E+10	1	-1E+10	1	-1E+10	1
4902551	75	C	09/08/2022	23:14	-131.689	48.724	0	140.10	0	6.2890	0	33.2050	0	26.100	0	138.868	0	200.2	4	66.2	4	-1E+10	1	-1E+10	1	-1E+10	1	-1E+10	1	-1E+10	1	-1E+10	1
4902551	75	C	09/08/2022	23:14	-131.689	48.724	0	140.80	0	6.2810	0	33.2120	0	26.106	0	139.562	0	198.7	4	65.7	4	-1E+10	1	-1E+10	1	-1E+10	1	-1E+10	1	-1E+10	1	-1E+10	1
4902551	75	C	09/08/2022	23:14	-131.689	48.724	0	141.70	0	6.2770	0	33.2190	0	26.112	0	140.453	0	197.1	4	65.2	4	-1E+10	1	-1E+10	1	-1E+10	1	-1E+10	1	-1E+10	1	-1E+10	1
4902551	75	C	09/08/2022	23:14	-131.689	48.724	0	142.90	0	6.2780	0	33.2260	0	26.118	0	141.642	0	194.7	4	64.4	4	-1E+10	1	-1E+10	1	-1E+10	1	-1E+10	1	-1E+10	1	-1E+10	1
4902551	75	C	09/08/2022	23:14	-131.689	48.724	0	144.10	0	6.2780	0	33.2310	0	26.122	0	142.831	0	191.8	4	63.5	4	-1E+10	1	-1E+10	1	-1E+10	1	-1E+10	1	-1E+10	1	-1E+10	1
4902551	75	C	09/08/2022	23:14	-131.689	48.724	0	144.80	0	6.2800	0	33.2330	0	26.123	0	143.525	0	189.8	4	62.8	4	-1E+10	1	-1E+10	1	-1E+10	1	-1E+10	1	-1E+10	1	-1E+10	1
4902551	75	C	09/08/2022	23:14	-131.689	48.724	0	146.00	0	6.2620	0	33.2540	0	26.142	0	144.714	0	186.9	4	61.8	4	-1E+10	1	-1E+10	1	-1E+10	1	-1E+10	1	-1E+10	1	-1E+10	1
4902551	75	C	09/08/2022	23:14	-131.689	48.724	0	147.30	0	6.2820	0	33.2980	0	26.174	0	146.002	0	184.1	4	60.9	4	-1E+10	1	-1E+10	1	-1E+10	1	-1E+10	1	-1E+10	1	-1E+10	1
4902551	75	C	09/08/2022	23:14	-131.689	48.724	0	148.10	0	6.2870	0	33.3380	0	26.205	0	146.795	0	182.3	4	60.4	4	-1E+10	1	-1E+10	1	-1E+10	1	-1E+10	1	-1E+10	1	-1E+10	1
4902551	75	C	09/08/2022	23:14	-131.689	48.724	0	149.00	0	6.3020	0	33.3340	0	26.200	0	147.687	0	180.6	4	59.8	4	-1E+10	1	-1E+10	1	-1E+10	1	-1E+10	1	-1E+10	1	-1E+10	1
4902551	75	C	09/08/2022	23:14	-131.689	48.724	0	149.80	0	6.3100	0	33.3590	0	26.219	0	148.479	0	178.8	4	59.3	4	-1E+10	1	-1E+10	1	-1E+10	1	-1E+10	1	-1E+10	1	-1E+10	1
4902551	75	C	09/08/2022	23:14	-131.689	48.724	0	150.70	0	6.3230	0	33.3700	0	26.226	0	149.371	0	177.1	4	58.7	4	-1E+10	1	-1E+10	1	-1E+10	1	-1E+10	1	-1E+10	1	-1E+10	1
4902551	75	C	09/08/2022	23:14	-131.689	48.724	0	151.60	0	6.3400	0	33.4100	0	26.255	0	150.263	0	175.5	4	58.2	4	-1E+10	1	-1E+10	1	-1E+10	1	-1E+10	1	-1E+10	1	-1E+10	1
4902551	75	C	09/08/2022	23:14	-131.689	48.724	0	152.60	0	6.3450	0	33.4410	0	26.279	0	151.253	0	174.0	4	57.8	4	-1E+10	1	-1E+10	1	-1E+10	1	-1E+10	1	-1E+10	1	-1E+10	1
4902551	75	C	09/08/2022	23:14	-131.689	48.724	0	153.50	0	6.3460	0	33.4490	0	26.285	0	152.145	0	172.5	4	57.3	4	-1E+10	1	-1E+10	1	-1E+10	1	-1E+10	1	-1E+10	1	-1E+10	1
4902551	75	C	09/08/2022	23:14	-131.689	48.724	0	154.50	0	6.3490	0	33.4510	0	26.286	0	153.136	0	171.0	4	56.8	4	-1E+10	1	-1E+10	1	-1E+10	1	-1E+10	1	-1E+10	1	-1E+10	1
4902551	75	C	09/08/2022	23:14	-131.689	48.724	0	155.50	0	6.3470	0	33.4580	0	26.292	0	154.127	0	169.4	4	56.2	4	-1E+10	1	-1E+10	1	-1E+10	1	-1E+10	1	-1E+10	1	-1E+10	1
4902551	75	C	09/08/2022	23:14	-131.689	48.724	0	156.60	0	6.3480	0	33.4680	0	26.300	0	155.217	0	167.8	4	55.7	4	-1E+10	1	-1E+10	1	-1E+10	1	-1E+10	1	-1E+10	1	-1E+10	1
4902551	75	C	09/08/2022	23:14	-131.689	48.724	0	157.60	0	6.3400	0	33.4870	0	26.316	0	156.207	0	166.3	4	55.2	4	-1E+10	1	-1E+10	1	-1E+10	1	-1E+10	1	-1E+10	1	-1E+10	1
4902551	75	C	09/08/2022	23:14	-131.689	48.724	0	158.60	0	6.3180	0	33.5090	0	26.336	0	157.198	0	164.9	4	54.7	4	-1E+10	1	-1E+10	1	-1E+10	1	-1E+10	1	-1E+10	1	-1E+10	1
4902551	75	C	09/08/2022	23:14	-131.689	48.724	0	159.70	0	6.3040	0	33.5180	0	26.345	0	158.288	0	163.5	4	54.2	4	-1E+10	1	-1E+10	1	-1E+10	1	-1E+10	1	-1E+10	1	-1E+10	1
4902551	75	C	09/08/2022	23:14	-131.689	48.724	0	160.80	0	6.2970	0	33.5200	0	26.348	0	159.378	0	162.3	4	53.8	4	-1E+10	1	-1E+10	1	-1E+10	1	-1E+10	1	-1E+10	1	-1E+10	1
4902551	75	C	09/08/2022	23:14	-131.689	48.724	0	161.90	0	6.2940	0	33.5220	0	26.350	0	160.468	0	161.0	4	53.4	4	-1E+10	1	-1E+10	1	-1E+10	1	-1E+10	1	-1E+10	1	-1E+10	1
4902551	75	C	09/08/2022	23:14	-131.689	48.724	0	163.00	0	6.2660	0	33.5460	0	26.372	0	161.558	0	159.6	4	52.9	4	-1E+10	1	-1E+10	1	-1E+10	1	-1E+10	1	-1E+10	1	-1E+10	1
4902551	75	C	09/08/2022	23:14	-131.689	48.724	0	164.10	0	6.2520	0	33.5510	0	26.378	0	162.648	0	158.1	4	52.4	4	-1E+10	1	-1E+10	1	-1E+10	1	-1E+10	1	-1E+10	1	-1E+10	1
4902551	75	C	09/08/2022	23:14	-131.689	48.724	0	165.20	0	6.2360	0	33.5580	0	26.385	0	163.737	0	156.5	4	51.9	4	-1E+10	1	-1E+10	1	-1E+10	1	-1E+10	1	-1E+10	1	-1E+10	1
4902551	75	C	09/08/2022	23:14	-131.689	48.724	0	166.30	0	6.2120	0	33.5740	0	26.401	0	164.827	0	155.3	4	51.4	4	-1E+10	1	-1E+10	1	-1E+10	1	-1E+10	1	-1E+10	1	-1E+10	1
4902551	75	C	09/08/2022	23:14	-131.689	48.724	0	167.40	0	6.1950	0	33.5850	0	26.412	0	165.917	0	154.0	4	51.0	4	-1E+10	1	-1E+10	1	-1E+10	1	-1E+10	1	-1E+10	1	-1E+10	1
4902551	75	C	09/08/2022	23:14	-131.689	48.724	0	168.60	0	6.1770	0	33.5970	0	26.424	0	167.106	0	152.8	4	50.6	4	-1E+10	1	-1E+10	1	-1E+10	1	-1E+10	1	-1E+10	1	-1E+10	1
4902551	75	C	09/08/2022	23:14	-131.689	48.724	0	169.70	0	6.1500	0	33.6160	0	26.442	0	168.196	0	151.6	4	50.1	4	-1E+10	1	-1E+10	1	-1E+10	1	-1E+10	1	-1E+10	1	-1E+10	1
4902551	75	C	09/08/2022	23:14	-131.689	48.724	0	170.90	0	6.1410	0	33.6200	0	26.447	0	169.385	0	150.4	4	49.8	4	-1E+10	1	-1E+10	1	-1E+10	1	-1E+10	1	-1E+10	1	-1E+10	1
4902551	75	C	09/08/2022	23:14	-131.689	48.724	0	172.00	0	6.1230	0	33.6290	0	26.456	0	170.474	0	149.3	4	49.4	4	-1E+10	1	-1E+10	1	-1E+10	1	-1E+10	1	-1E+10	1	-1E+10	1
4902551	75	C	09/08/2022	23:14	-131.689	48.724	0	173.10	0	6.1130	0	33.6360	0	26.463	0	171.564	0	148.1	4	49.0	4	-1E+10	1	-1E+10	1	-1E+10	1	-1E+10	1	-1E+10	1	-1E+10	1
4902551	75	C	09/08/2022	23:14	-131.689	48.724	0	174.30	0	6.1000	0	33.6420	0	26.469	0	172.753	0	146.9	4	48.5	4	-1E+10	1	-1E+10	1	-1E+10	1	-1E+10	1	-1E+10	1	-1E+10	1
4902551	75	C	09/08/2022	23:14	-131.689	48.724	0	175.40	0	6.0730	0	33.6540	0	26.482	0	173.843	0	145.8	4	48.2	4	-1E+10	1	-1E+10	1	-1E+10	1	-1E+10	1	-1E+10	1	-1E+10	1
4902551	75	C	09/08/2022	23:14	-131.689	48.724	0	176.60	0	6.0560	0	33.6620	0	26.490	0	175.032	0	144.7	4	47.8	4	-1E+10	1	-1E+10	1	-1E+10	1	-1E+10	1	-1E+10	1	-1E+10	1
4902551	75	C	09/08/2022	23:14	-131.689	48.724	0	177.70	0	6.0410	0	33.6680	0	26.497	0	176.121	0	143.8	4	47.5	4	-1E+10	1	-1E+10	1	-1E+10	1	-1E+10	1	-1E+10	1	-1E+10	1
4902551	75	C	09/08/2022	23:14	-131.689	48.724	0	178.90	0	6.0330	0	33.6710	0	26.500	0	177.310	0	142.8	4	47.1	4	-1E+10	1	-1E+10	1	-1E+10	1	-1E+10	1	-1E+10	1	-1E+10	1
4902551	75	C	09/08/2022	23:14	-131.689	48.724	0	180.00	0	6.0250	0	33.6750	0	26.505	0	178.400	0	141.5	4	46.7	4	-1E+10	1	-1E+10	1	-1E+10	1	-1E+10	1	-1E+10	1	-1E+10	1
4902551	75	C	09/08/2022	23:14	-131.689	48.724	0	181.20	0	5.9760	0	33.6940	0	26.526	0	179.589	0	140.6	4	46.3	4	-1E+10	1	-1E+10	1	-1E+10	1	-1E+10	1	-1E+10	1	-1E+10	1
4902551	75	C	09/08/2022	23:14	-131.689	48.724	0	182.30	0	5.9720	0	33.6920	0	26.525	0	180.678	0	139.6	4	46.0	4	-1E+10	1	-1E+10	1	-1E+10	1	-1E+10	1	-1E+10	1	-1E+10	1
4902551	75	C	09/08/2022	23:14	-131.689	48.724	0	183.50	0	5.9680	0	33.6940	0	26.527	0	181.867	0	138.5	4	45.7	4	-1E+10	1	-1E+10	1	-1E+10	1	-1E+10	1	-1E+10	1	-1E+10	1
4902551	75	C	09/08/2022	23:14	-131.689	48.724	0	184.60	0	5.9340	0	33.7070	0	26.541	0	182.957	0	137.4	4	45.3	4	-1E+10	1	-1E+10	1	-1E+10	1	-1E+10	1	-1E+10	1	-1E+10	1
4902551	75	C	09/08/2022	23:14	-131.689	48.724	0	185.80	0	5.9210	0	33.7080	0	26.544	0	184.146	0	136.5	4	44.9	4	-1E+10	1	-1E+10	1	-1E+10	1	-1E+10	1	-1E+10	1	-1E+10	1
4902551	75	C	09/08/2022	23:14	-131.689	48.724	0	186.90	0	5.9020	0	33.7140	0	26.551	0	185.235	0	135.7	4	44.7	4	-1E+10	1	-1E+10	1	-1E+10	1	-1E+10	1	-1E+10	1	-1E+10	1
4902551	75	C	09/08/2022	23:14	-131.689	48.724	0	188.00	0	5.8800	0	33.7220	0	26.560	0	186.325	0	134.9	4	44.4	4	-1E+10	1	-1E+10	1	-1E+10	1	-1E+10	1	-1E+10	1	-1E+10	1
4902551	75	C	09/08/2022	23:14	-131.689	48.724	0	189.10	0	5.8600	0	33.7240	0	26.564	0	187.415	0	134.2	4	44.1	4	-1E+10	1	-1E+10	1	-1E+10	1	-1E+10	1	-1E+10	1	-1E+10	1
4902551	75	C	09/08/2022	23:14	-131.689	48.724	0	190.20	0	5.8450	0	33.7290	0	26.570	0	188.505	0	133.4	4	43.9	4	-1E+10	1	-1E+10	1	-1E+10	1	-1E+10	1	-1E+10	1	-1E+10	1
4902551	75	C	09/08/2022	23:14	-131.689	48.724	0	191.30	0	5.8390	0	33.7270	0	26.569	0	189.594	0	132.6	4	43.6	4	-1E+10	1	-1E+10	1	-1E+10	1	-1E+10	1	-1E+10	1	-1E+10	1
4902551	75	C	09/08/2022	23:14	-131.689	48.724	0	192.40	0	5.8300	0	33.7290	0	26.572	0	190.684	0	131.8	4	43.3	4	-1E+10	1	-1E+10	1	-1E+10	1	-1E+10	1	-1E+10	1	-1E+10	1
4902551	75	C	09/08/2022	23:14	-131.689	48.724	0	193.40	0	5.8240	0	33.7300	0	26.573	0	191.675	0	130.9	4	43.0	4	-1E+10	1	-1E+10	1	-1E+10	1	-1E+10	1	-1E+10	1	-1E+10	1
4902551	75	C	09/08/2022	23:14	-131.689	48.724	0	194.50	0	5.8130	0	33.7340	0	26.578	0	192.764	0	130.0	4	42.7	4	-1E+10	1	-1E+10	1	-1E+10	1	-1E+10	1	-1E+10	1	-1E+10	1
4902551	75	C	09/08/2022	23:14	-131.689	48.724	0	195.60	0	5.7830	0	33.7390	0	26.585	0	193.854	0	129.2	4	42.4	4	-1E+10	1	-1E+10	1	-1E+10	1	-1E+10	1	-1E+10	1	-1E+10	1
4902551	75	C	09/08/2022	23:14	-131.689	48.724	0	196.70	0	5.7470	0	33.7490	0	26.598	0	194.944	0	128.6	4	42.2	4	-1E+10	1	-1E+10	1	-1E+10	1	-1E+10	1	-1E+10	1	-1E+10	1
4902551	75	C	09/08/2022	23:14	-131.689	48.724	0	197.70	0	5.6960	0	33.7540	0	26.608	0	195.934	0	128.3	4	42.0	4	-1E+10	1	-1E+10	1	-1E+10	1	-1E+10	1	-1E+10	1	-1E+10	1
4902551	75	C	09/08/2022	23:14	-131.689	48.724	0	198.50	0	5.6960	0	33.7540	0	26.608	0	196.727	0	127.9	4	41.9	4	-1E+10	1	-1E+10	1	-1E+10	1	-1E+10	1	-1E+10	1	-1E+10	1
4902551	75	C	09/08/2022	23:14	-131.689	48.724	0	199.70	0	5.6840	0	33.7580	0	26.612	0	197.915	0	127.3	4	41.7	4	-1E+10	1	-1E+10	1	-1E+10	1	-1E+10	1	-1E+10	1	-1E+10	1
4902551	75	C	09/08/2022	23:14	-131.689	48.724	0	200.90	0	5.6730	0	33.7570	0	26.613	0	199.104	0	126.7	4	41.5	4	-1E+10	1	-1E+10	1	-1E+10	1	-1E+10	1	-1E+10	1	-1E+10	1
4902551	75	C	09/08/2022	23:14	-131.689	48.724	0	202.10	0	5.6500	0	33.7640	0	26.621	0	200.293	0	126.2	4	41.3	4	-1E+10	1	-1E+10	1	-1E+10	1	-1E+10	1	-1E+10	1	-1E+10	1
4902551	75	C	09/08/2022	23:14	-131.689	48.724	0	202.90	0	5.6390	0	33.7640	0	26.623	0	201.085	0	125.9	4	41.2	4	-1E+10	1	-1E+10	1	-1E+10	1	-1E+10	1	-1E+10	1	-1E+10	1
4902551	75	C	09/08/2022	23:14	-131.689	48.724	0	203.70	0	5.6390	0	33.7630	0	26.622	0	201.878	0	125.5	4	41.1	4	-1E+10	1	-1E+10	1	-1E+10	1	-1E+10	1	-1E+10	1	-1E+10	1
4902551	75	C	09/08/2022	23:14	-131.689	48.724	0	205.00	0	5.6330	0	33.7650	0	26.624	0	203.165	0	124.8	4	40.8	4	-1E+10	1	-1E+10	1	-1E+10	1	-1E+10	1	-1E+10	1	-1E+10	1
4902551	75	C	09/08/2022	23:14	-131.689	48.724	0	206.20	0	5.6290	0	33.7650	0	26.625	0	204.354	0	124.1	4	40.6	4	-1E+10	1	-1E+10	1	-1E+10	1	-1E+10	1	-1E+10	1	-1E+10	1
4902551	75	C	09/08/2022	23:14	-131.689	48.724	0	207.00	0	5.6280	0	33.7650	0	26.625	0	205.146	0	123.6	4	40.4	4	-1E+10	1	-1E+10	1	-1E+10	1	-1E+10	1	-1E+10	1	-1E+10	1
4902551	75	C	09/08/2022	23:14	-131.689	48.724	0	207.80	0	5.6270	0	33.7650	0	26.625	0	205.939	0	123.1	4	40.3	4	-1E+10	1	-1E+10	1	-1E+10	1	-1E+10	1	-1E+10	1	-1E+10	1
4902551	75	C	09/08/2022	23:14	-131.689	48.724	0	208.90	0	5.6210	0	33.7660	0	26.626	0	207.029	0	122.3	4	40.0	4	-1E+10	1	-1E+10	1	-1E+10	1	-1E+10	1	-1E+10	1	-1E+10	1
4902551	75	C	09/08/2022	23:14	-131.689	48.724	0	210.10	0	5.5950	0	33.7700	0	26.633	0	208.217	0	121.5	4	39.7	4	-1E+10	1	-1E+10	1	-1E+10	1	-1E+10	1	-1E+10	1	-1E+10	1
4902551	75	C	09/08/2022	23:14	-131.689	48.724	0	210.90	0	5.5680	0	33.7740	0	26.639	0	209.010	0	121.2	4	39.6	4	-1E+10	1	-1E+10	1	-1E+10	1	-1E+10	1	-1E+10	1	-1E+10	1
4902551	75	C	09/08/2022	23:14	-131.689	48.724	0	211.80	0	5.5470	0	33.7770	0	26.644	0	209.901	0	120.8	4	39.5	4	-1E+10	1	-1E+10	1	-1E+10	1	-1E+10	1	-1E+10	1	-1E+10	1
4902551	75	C	09/08/2022	23:14	-131.689	48.724	0	213.00	0	5.5380	0	33.7780	0	26.646	0	211.090	0	120.2	4	39.3	4	-1E+10	1	-1E+10	1	-1E+10	1	-1E+10	1	-1E+10	1	-1E+10	1
4902551	75	C	09/08/2022	23:14	-131.689	48.724	0	214.20	0	5.5310	0	33.7790	0	26.648	0	212.278	0	119.7	4	39.1	4	-1E+10	1	-1E+10	1	-1E+10	1	-1E+10	1	-1E+10	1	-1E+10	1
4902551	75	C	09/08/2022	23:14	-131.689	48.724	0	215.00	0	5.5280	0	33.7800	0	26.649	0	213.071	0	119.2	4	38.9	4	-1E+10	1	-1E+10	1	-1E+10	1	-1E+10	1	-1E+10	1	-1E+10	1
4902551	75	C	09/08/2022	23:14	-131.689	48.724	0	215.80	0	5.5250	0	33.7800	0	26.649	0	213.863	0	118.8	4	38.8	4	-1E+10	1	-1E+10	1	-1E+10	1	-1E+10	1	-1E+10	1	-1E+10	1
4902551	75	C	09/08/2022	23:14	-131.689	48.724	0	217.00	0	5.5190	0	33.7800	0	26.650	0	215.052	0	118.0	4	38.5	4	-1E+10	1	-1E+10	1	-1E+10	1	-1E+10	1	-1E+10	1	-1E+10	1
4902551	75	C	09/08/2022	23:14	-131.689	48.724	0	218.20	0	5.5070	0	33.7840	0	26.654	0	216.240	0	117.2	4	38.3	4	-1E+10	1	-1E+10	1	-1E+10	1	-1E+10	1	-1E+10	1	-1E+10	1
4902551	75	C	09/08/2022	23:14	-131.689	48.724	0	219.10	0	5.4950	0	33.7840	0	26.656	0	217.132	0	116.8	4	38.1	4	-1E+10	1	-1E+10	1	-1E+10	1	-1E+10	1	-1E+10	1	-1E+10	1
4902551	75	C	09/08/2022	23:14	-131.689	48.724	0	219.90	0	5.4780	0	33.7860	0	26.659	0	217.924	0	116.4	4	38.0	4	-1E+10	1	-1E+10	1	-1E+10	1	-1E+10	1	-1E+10	1	-1E+10	1
4902551	75	C	09/08/2022	23:14	-131.689	48.724	0	220.70	0	5.4680	0	33.7870	0	26.661	0	218.717	0	116.1	4	37.8	4	-1E+10	1	-1E+10	1	-1E+10	1	-1E+10	1	-1E+10	1	-1E+10	1
4902551	75	C	09/08/2022	23:14	-131.689	48.724	0	221.90	0	5.4510	0	33.7900	0	26.666	0	219.905	0	115.7	4	37.7	4	-1E+10	1	-1E+10	1	-1E+10	1	-1E+10	1	-1E+10	1	-1E+10	1
4902551	75	C	09/08/2022	23:14	-131.689	48.724	0	223.20	0	5.4390	0	33.7920	0	26.669	0	221.193	0	115.3	4	37.6	4	-1E+10	1	-1E+10	1	-1E+10	1	-1E+10	1	-1E+10	1	-1E+10	1
4902551	75	C	09/08/2022	23:14	-131.689	48.724	0	224.10	0	5.4320	0	33.7930	0	26.670	0	222.084	0	115.0	4	37.5	4	-1E+10	1	-1E+10	1	-1E+10	1	-1E+10	1	-1E+10	1	-1E+10	1
4902551	75	C	09/08/2022	23:14	-131.689	48.724	0	225.00	0	5.4290	0	33.7930	0	26.671	0	222.976	0	114.7	4	37.4	4	-1E+10	1	-1E+10	1	-1E+10	1	-1E+10	1	-1E+10	1	-1E+10	1
4902551	75	C	09/08/2022	23:14	-131.689	48.724	0	225.80	0	5.4280	0	33.7930	0	26.671	0	223.768	0	114.4	4	37.2	4	-1E+10	1	-1E+10	1	-1E+10	1	-1E+10	1	-1E+10	1	-1E+10	1
4902551	75	C	09/08/2022	23:14	-131.689	48.724	0	226.70	0	5.4250	0	33.7950	0	26.673	0	224.659	0	114.0	4	37.1	4	-1E+10	1	-1E+10	1	-1E+10	1	-1E+10	1	-1E+10	1	-1E+10	1
4902551	75	C	09/08/2022	23:14	-131.689	48.724	0	228.00	0	5.4120	0	33.7960	0	26.675	0	225.947	0	113.3	4	36.9	4	-1E+10	1	-1E+10	1	-1E+10	1	-1E+10	1	-1E+10	1	-1E+10	1
4902551	75	C	09/08/2022	23:14	-131.689	48.724	0	229.30	0	5.4030	0	33.7960	0	26.676	0	227.235	0	112.8	4	36.7	4	-1E+10	1	-1E+10	1	-1E+10	1	-1E+10	1	-1E+10	1	-1E+10	1
4902551	75	C	09/08/2022	23:14	-131.689	48.724	0	230.10	0	5.3990	0	33.7970	0	26.678	0	228.027	0	112.5	4	36.6	4	-1E+10	1	-1E+10	1	-1E+10	1	-1E+10	1	-1E+10	1	-1E+10	1
4902551	75	C	09/08/2022	23:14	-131.689	48.724	0	231.00	0	5.3870	0	33.7970	0	26.679	0	228.918	0	112.1	4	36.5	4	-1E+10	1	-1E+10	1	-1E+10	1	-1E+10	1	-1E+10	1	-1E+10	1
4902551	75	C	09/08/2022	23:14	-131.689	48.724	0	231.90	0	5.3800	0	33.7970	0	26.680	0	229.810	0	111.9	4	36.4	4	-1E+10	1	-1E+10	1	-1E+10	1	-1E+10	1	-1E+10	1	-1E+10	1
4902551	75	C	09/08/2022	23:14	-131.689	48.724	0	232.70	0	5.3730	0	33.7990	0	26.682	0	230.602	0	111.6	4	36.3	4	-1E+10	1	-1E+10	1	-1E+10	1	-1E+10	1	-1E+10	1	-1E+10	1
4902551	75	C	09/08/2022	23:14	-131.689	48.724	0	234.00	0	5.3660	0	33.8000	0	26.684	0	231.890	0	111.2	4	36.2	4	-1E+10	1	-1E+10	1	-1E+10	1	-1E+10	1	-1E+10	1	-1E+10	1
4902551	75	C	09/08/2022	23:14	-131.689	48.724	0	235.30	0	5.3600	0	33.8010	0	26.685	0	233.177	0	110.8	4	36.0	4	-1E+10	1	-1E+10	1	-1E+10	1	-1E+10	1	-1E+10	1	-1E+10	1
4902551	75	C	09/08/2022	23:14	-131.689	48.724	0	236.20	0	5.3580	0	33.8010	0	26.686	0	234.069	0	110.5	4	35.9	4	-1E+10	1	-1E+10	1	-1E+10	1	-1E+10	1	-1E+10	1	-1E+10	1
4902551	75	C	09/08/2022	23:14	-131.689	48.724	0	237.00	0	5.3560	0	33.8010	0	26.686	0	234.861	0	110.2	4	35.8	4	-1E+10	1	-1E+10	1	-1E+10	1	-1E+10	1	-1E+10	1	-1E+10	1
4902551	75	C	09/08/2022	23:14	-131.689	48.724	0	237.90	0	5.3550	0	33.8010	0	26.686	0	235.752	0	109.9	4	35.7	4	-1E+10	1	-1E+10	1	-1E+10	1	-1E+10	1	-1E+10	1	-1E+10	1
4902551	75	C	09/08/2022	23:14	-131.689	48.724	0	238.70	0	5.3530	0	33.8020	0	26.687	0	236.545	0	109.5	4	35.6	4	-1E+10	1	-1E+10	1	-1E+10	1	-1E+10	1	-1E+10	1	-1E+10	1
4902551	75	C	09/08/2022	23:14	-131.689	48.724	0	240.00	0	5.3530	0	33.8010	0	26.686	0	237.832	0	108.9	4	35.4	4	-1E+10	1	-1E+10	1	-1E+10	1	-1E+10	1	-1E+10	1	-1E+10	1
4902551	75	C	09/08/2022	23:14	-131.689	48.724	0	241.20	0	5.3500	0	33.8020	0	26.687	0	239.020	0	108.3	4	35.2	4	-1E+10	1	-1E+10	1	-1E+10	1	-1E+10	1	-1E+10	1	-1E+10	1
4902551	75	C	09/08/2022	23:14	-131.689	48.724	0	242.10	0	5.3420	0	33.8040	0	26.690	0	239.912	0	107.8	4	35.0	4	-1E+10	1	-1E+10	1	-1E+10	1	-1E+10	1	-1E+10	1	-1E+10	1
4902551	75	C	09/08/2022	23:14	-131.689	48.724	0	243.00	0	5.3230	0	33.8070	0	26.695	0	240.803	0	107.3	4	34.9	4	-1E+10	1	-1E+10	1	-1E+10	1	-1E+10	1	-1E+10	1	-1E+10	1
4902551	75	C	09/08/2022	23:14	-131.689	48.724	0	243.80	0	5.3140	0	33.8090	0	26.697	0	241.595	0	106.9	4	34.7	4	-1E+10	1	-1E+10	1	-1E+10	1	-1E+10	1	-1E+10	1	-1E+10	1
4902551	75	C	09/08/2022	23:14	-131.689	48.724	0	244.70	0	5.3010	0	33.8100	0	26.699	0	242.487	0	106.5	4	34.6	4	-1E+10	1	-1E+10	1	-1E+10	1	-1E+10	1	-1E+10	1	-1E+10	1
4902551	75	C	09/08/2022	23:14	-131.689	48.724	0	245.90	0	5.2990	0	33.8100	0	26.700	0	243.675	0	106.1	4	34.4	4	-1E+10	1	-1E+10	1	-1E+10	1	-1E+10	1	-1E+10	1	-1E+10	1
4902551	75	C	09/08/2022	23:14	-131.689	48.724	0	247.30	0	5.2990	0	33.8100	0	26.700	0	245.062	0	105.4	4	34.2	4	-1E+10	1	-1E+10	1	-1E+10	1	-1E+10	1	-1E+10	1	-1E+10	1
4902551	75	C	09/08/2022	23:14	-131.689	48.724	0	248.10	0	5.2980	0	33.8100	0	26.700	0	245.854	0	105.0	4	34.1	4	-1E+10	1	-1E+10	1	-1E+10	1	-1E+10	1	-1E+10	1	-1E+10	1
4902551	75	C	09/08/2022	23:14	-131.689	48.724	0	248.90	0	5.2960	0	33.8100	0	26.700	0	246.646	0	104.4	4	33.9	4	-1E+10	1	-1E+10	1	-1E+10	1	-1E+10	1	-1E+10	1	-1E+10	1
4902551	75	C	09/08/2022	23:14	-131.689	48.724	0	249.80	0	5.2950	0	33.8100	0	26.700	0	247.538	0	103.9	4	33.7	4	-1E+10	1	-1E+10	1	-1E+10	1	-1E+10	1	-1E+10	1	-1E+10	1
4902551	75	C	09/08/2022	23:14	-131.689	48.724	0	250.70	0	5.2910	0	33.8110	0	26.701	0	248.429	0	103.3	4	33.5	4	-1E+10	1	-1E+10	1	-1E+10	1	-1E+10	1	-1E+10	1	-1E+10	1
4902551	75	C	09/08/2022	23:14	-131.689	48.724	0	251.90	0	5.2750	0	33.8150	0	26.707	0	249.617	0	102.4	4	33.2	4	-1E+10	1	-1E+10	1	-1E+10	1	-1E+10	1	-1E+10	1	-1E+10	1
4902551	75	C	09/08/2022	23:14	-131.689	48.724	0	253.20	0	5.2570	0	33.8160	0	26.709	0	250.905	0	101.7	4	33.0	4	-1E+10	1	-1E+10	1	-1E+10	1	-1E+10	1	-1E+10	1	-1E+10	1
4902551	75	C	09/08/2022	23:14	-131.689	48.724	0	254.00	0	5.2440	0	33.8180	0	26.713	0	251.697	0	101.1	4	32.8	4	-1E+10	1	-1E+10	1	-1E+10	1	-1E+10	1	-1E+10	1	-1E+10	1
4902551	75	C	09/08/2022	23:14	-131.689	48.724	0	254.90	0	5.2240	0	33.8200	0	26.716	0	252.588	0	100.7	4	32.6	4	-1E+10	1	-1E+10	1	-1E+10	1	-1E+10	1	-1E+10	1	-1E+10	1
4902551	75	C	09/08/2022	23:14	-131.689	48.724	0	255.70	0	5.2170	0	33.8230	0	26.720	0	253.381	0	100.2	4	32.5	4	-1E+10	1	-1E+10	1	-1E+10	1	-1E+10	1	-1E+10	1	-1E+10	1
4902551	75	C	09/08/2022	23:14	-131.689	48.724	0	257.00	0	5.2140	0	33.8230	0	26.720	0	254.668	0	99.6	4	32.3	4	-1E+10	1	-1E+10	1	-1E+10	1	-1E+10	1	-1E+10	1	-1E+10	1
4902551	75	C	09/08/2022	23:14	-131.689	48.724	0	258.30	0	5.2130	0	33.8230	0	26.720	0	255.955	0	98.8	4	32.0	4	-1E+10	1	-1E+10	1	-1E+10	1	-1E+10	1	-1E+10	1	-1E+10	1
4902551	75	C	09/08/2022	23:14	-131.689	48.724	0	259.20	0	5.2080	0	33.8260	0	26.723	0	256.847	0	98.2	4	31.8	4	-1E+10	1	-1E+10	1	-1E+10	1	-1E+10	1	-1E+10	1	-1E+10	1
4902551	75	C	09/08/2022	23:14	-131.689	48.724	0	260.00	0	5.2030	0	33.8260	0	26.724	0	257.639	0	97.6	4	31.6	4	-1E+10	1	-1E+10	1	-1E+10	1	-1E+10	1	-1E+10	1	-1E+10	1
4902551	75	C	09/08/2022	23:14	-131.689	48.724	0	260.90	0	5.1950	0	33.8270	0	26.725	0	258.530	0	97.1	4	31.4	4	-1E+10	1	-1E+10	1	-1E+10	1	-1E+10	1	-1E+10	1	-1E+10	1
4902551	75	C	09/08/2022	23:14	-131.689	48.724	0	261.70	0	5.1900	0	33.8280	0	26.727	0	259.322	0	96.4	4	31.2	4	-1E+10	1	-1E+10	1	-1E+10	1	-1E+10	1	-1E+10	1	-1E+10	1
4902551	75	C	09/08/2022	23:14	-131.689	48.724	0	263.00	0	5.1700	0	33.8310	0	26.731	0	260.610	0	95.6	4	31.0	4	-1E+10	1	-1E+10	1	-1E+10	1	-1E+10	1	-1E+10	1	-1E+10	1
4902551	75	C	09/08/2022	23:14	-131.689	48.724	0	264.30	0	5.1530	0	33.8340	0	26.736	0	261.897	0	94.8	4	30.7	4	-1E+10	1	-1E+10	1	-1E+10	1	-1E+10	1	-1E+10	1	-1E+10	1
4902551	75	C	09/08/2022	23:14	-131.689	48.724	0	265.20	0	5.1500	0	33.8330	0	26.735	0	262.788	0	94.2	4	30.5	4	-1E+10	1	-1E+10	1	-1E+10	1	-1E+10	1	-1E+10	1	-1E+10	1
4902551	75	C	09/08/2022	23:14	-131.689	48.724	0	266.00	0	5.1460	0	33.8350	0	26.737	0	263.581	0	93.6	4	30.3	4	-1E+10	1	-1E+10	1	-1E+10	1	-1E+10	1	-1E+10	1	-1E+10	1
4902551	75	C	09/08/2022	23:14	-131.689	48.724	0	266.90	0	5.1410	0	33.8340	0	26.737	0	264.472	0	93.0	4	30.1	4	-1E+10	1	-1E+10	1	-1E+10	1	-1E+10	1	-1E+10	1	-1E+10	1
4902551	75	C	09/08/2022	23:14	-131.689	48.724	0	267.80	0	5.1230	0	33.8360	0	26.741	0	265.363	0	92.4	4	29.9	4	-1E+10	1	-1E+10	1	-1E+10	1	-1E+10	1	-1E+10	1	-1E+10	1
4902551	75	C	09/08/2022	23:14	-131.689	48.724	0	268.60	0	5.1020	0	33.8440	0	26.750	0	266.155	0	92.0	4	29.7	4	-1E+10	1	-1E+10	1	-1E+10	1	-1E+10	1	-1E+10	1	-1E+10	1
4902551	75	C	09/08/2022	23:14	-131.689	48.724	0	269.90	0	5.0870	0	33.8410	0	26.749	0	267.443	0	91.3	4	29.5	4	-1E+10	1	-1E+10	1	-1E+10	1	-1E+10	1	-1E+10	1	-1E+10	1
4902551	75	C	09/08/2022	23:14	-131.689	48.724	0	271.30	0	5.0820	0	33.8420	0	26.750	0	268.829	0	90.6	4	29.3	4	-1E+10	1	-1E+10	1	-1E+10	1	-1E+10	1	-1E+10	1	-1E+10	1
4902551	75	C	09/08/2022	23:14	-131.689	48.724	0	272.20	0	5.0800	0	33.8430	0	26.751	0	269.720	0	90.1	4	29.1	4	-1E+10	1	-1E+10	1	-1E+10	1	-1E+10	1	-1E+10	1	-1E+10	1
4902551	75	C	09/08/2022	23:14	-131.689	48.724	0	273.20	0	5.0780	0	33.8430	0	26.752	0	270.710	0	89.6	4	28.9	4	-1E+10	1	-1E+10	1	-1E+10	1	-1E+10	1	-1E+10	1	-1E+10	1
4902551	75	C	09/08/2022	23:14	-131.689	48.724	0	274.10	0	5.0730	0	33.8430	0	26.752	0	271.602	0	88.9	4	28.7	4	-1E+10	1	-1E+10	1	-1E+10	1	-1E+10	1	-1E+10	1	-1E+10	1
4902551	75	C	09/08/2022	23:14	-131.689	48.724	0	275.00	0	5.0640	0	33.8450	0	26.755	0	272.493	0	88.3	4	28.5	4	-1E+10	1	-1E+10	1	-1E+10	1	-1E+10	1	-1E+10	1	-1E+10	1
4902551	75	C	09/08/2022	23:14	-131.689	48.724	0	275.90	0	5.0360	0	33.8510	0	26.763	0	273.384	0	87.8	4	28.4	4	-1E+10	1	-1E+10	1	-1E+10	1	-1E+10	1	-1E+10	1	-1E+10	1
4902551	75	C	09/08/2022	23:14	-131.689	48.724	0	276.80	0	5.0220	0	33.8520	0	26.765	0	274.275	0	87.4	4	28.2	4	-1E+10	1	-1E+10	1	-1E+10	1	-1E+10	1	-1E+10	1	-1E+10	1
4902551	75	C	09/08/2022	23:14	-131.689	48.724	0	277.80	0	5.0180	0	33.8520	0	26.766	0	275.265	0	86.9	4	28.0	4	-1E+10	1	-1E+10	1	-1E+10	1	-1E+10	1	-1E+10	1	-1E+10	1
4902551	75	C	09/08/2022	23:14	-131.689	48.724	0	278.70	0	5.0120	0	33.8530	0	26.767	0	276.157	0	86.5	4	27.9	4	-1E+10	1	-1E+10	1	-1E+10	1	-1E+10	1	-1E+10	1	-1E+10	1
4902551	75	C	09/08/2022	23:14	-131.689	48.724	0	279.70	0	5.0040	0	33.8540	0	26.769	0	277.147	0	86.0	4	27.8	4	-1E+10	1	-1E+10	1	-1E+10	1	-1E+10	1	-1E+10	1	-1E+10	1
4902551	75	C	09/08/2022	23:14	-131.689	48.724	0	280.70	0	4.9990	0	33.8550	0	26.770	0	278.137	0	85.6	4	27.6	4	-1E+10	1	-1E+10	1	-1E+10	1	-1E+10	1	-1E+10	1	-1E+10	1
4902551	75	C	09/08/2022	23:14	-131.689	48.724	0	281.60	0	4.9960	0	33.8560	0	26.771	0	279.028	0	85.1	4	27.5	4	-1E+10	1	-1E+10	1	-1E+10	1	-1E+10	1	-1E+10	1	-1E+10	1
4902551	75	C	09/08/2022	23:14	-131.689	48.724	0	282.60	0	4.9880	0	33.8570	0	26.773	0	280.018	0	84.7	4	27.3	4	-1E+10	1	-1E+10	1	-1E+10	1	-1E+10	1	-1E+10	1	-1E+10	1
4902551	75	C	09/08/2022	23:14	-131.689	48.724	0	283.60	0	4.9810	0	33.8580	0	26.775	0	281.009	0	84.3	4	27.2	4	-1E+10	1	-1E+10	1	-1E+10	1	-1E+10	1	-1E+10	1	-1E+10	1
4902551	75	C	09/08/2022	23:14	-131.689	48.724	0	284.60	0	4.9790	0	33.8580	0	26.775	0	281.999	0	83.8	4	27.0	4	-1E+10	1	-1E+10	1	-1E+10	1	-1E+10	1	-1E+10	1	-1E+10	1
4902551	75	C	09/08/2022	23:14	-131.689	48.724	0	285.60	0	4.9510	0	33.8640	0	26.783	0	282.989	0	83.5	4	26.9	4	-1E+10	1	-1E+10	1	-1E+10	1	-1E+10	1	-1E+10	1	-1E+10	1
4902551	75	C	09/08/2022	23:14	-131.689	48.724	0	286.60	0	4.9320	0	33.8630	0	26.784	0	283.979	0	83.2	4	26.8	4	-1E+10	1	-1E+10	1	-1E+10	1	-1E+10	1	-1E+10	1	-1E+10	1
4902551	75	C	09/08/2022	23:14	-131.689	48.724	0	287.60	0	4.9290	0	33.8630	0	26.784	0	284.969	0	82.9	4	26.7	4	-1E+10	1	-1E+10	1	-1E+10	1	-1E+10	1	-1E+10	1	-1E+10	1
4902551	75	C	09/08/2022	23:14	-131.689	48.724	0	288.60	0	4.9250	0	33.8630	0	26.785	0	285.959	0	82.6	4	26.6	4	-1E+10	1	-1E+10	1	-1E+10	1	-1E+10	1	-1E+10	1	-1E+10	1
4902551	75	C	09/08/2022	23:14	-131.689	48.724	0	289.60	0	4.9240	0	33.8660	0	26.787	0	286.950	0	82.3	4	26.5	4	-1E+10	1	-1E+10	1	-1E+10	1	-1E+10	1	-1E+10	1	-1E+10	1
4902551	75	C	09/08/2022	23:14	-131.689	48.724	0	290.60	0	4.9240	0	33.8660	0	26.787	0	287.940	0	82.0	4	26.4	4	-1E+10	1	-1E+10	1	-1E+10	1	-1E+10	1	-1E+10	1	-1E+10	1
4902551	75	C	09/08/2022	23:14	-131.689	48.724	0	291.70	0	4.9230	0	33.8650	0	26.787	0	289.029	0	81.6	4	26.3	4	-1E+10	1	-1E+10	1	-1E+10	1	-1E+10	1	-1E+10	1	-1E+10	1
4902551	75	C	09/08/2022	23:14	-131.689	48.724	0	292.70	0	4.9230	0	33.8660	0	26.788	0	290.019	0	81.2	4	26.2	4	-1E+10	1	-1E+10	1	-1E+10	1	-1E+10	1	-1E+10	1	-1E+10	1
4902551	75	C	09/08/2022	23:14	-131.689	48.724	0	293.80	0	4.9200	0	33.8670	0	26.789	0	291.108	0	80.9	4	26.0	4	-1E+10	1	-1E+10	1	-1E+10	1	-1E+10	1	-1E+10	1	-1E+10	1
4902551	75	C	09/08/2022	23:14	-131.689	48.724	0	294.80	0	4.9040	0	33.8710	0	26.794	0	292.098	0	80.5	4	25.9	4	-1E+10	1	-1E+10	1	-1E+10	1	-1E+10	1	-1E+10	1	-1E+10	1
4902551	75	C	09/08/2022	23:14	-131.689	48.724	0	295.90	0	4.8990	0	33.8690	0	26.793	0	293.187	0	80.1	4	25.8	4	-1E+10	1	-1E+10	1	-1E+10	1	-1E+10	1	-1E+10	1	-1E+10	1
4902551	75	C	09/08/2022	23:14	-131.689	48.724	0	296.90	0	4.9000	0	33.8700	0	26.793	0	294.178	0	79.8	4	25.7	4	-1E+10	1	-1E+10	1	-1E+10	1	-1E+10	1	-1E+10	1	-1E+10	1
4902551	75	C	09/08/2022	23:14	-131.689	48.724	0	297.90	0	4.8950	0	33.8710	0	26.795	0	295.168	0	79.4	4	25.6	4	-1E+10	1	-1E+10	1	-1E+10	1	-1E+10	1	-1E+10	1	-1E+10	1
4902551	75	C	09/08/2022	23:14	-131.689	48.724	0	299.00	0	4.8880	0	33.8720	0	26.796	0	296.257	0	79.0	4	25.4	4	-1E+10	1	-1E+10	1	-1E+10	1	-1E+10	1	-1E+10	1	-1E+10	1
4902551	75	C	09/08/2022	23:14	-131.689	48.724	0	300.00	0	4.8850	0	33.8720	0	26.797	0	297.247	0	78.6	4	25.3	4	-1E+10	1	-1E+10	1	-1E+10	1	-1E+10	1	-1E+10	1	-1E+10	1
4902551	75	C	09/08/2022	23:14	-131.689	48.724	0	301.10	0	4.8780	0	33.8750	0	26.800	0	298.336	0	78.2	4	25.2	4	-1E+10	1	-1E+10	1	-1E+10	1	-1E+10	1	-1E+10	1	-1E+10	1
4902551	75	C	09/08/2022	23:14	-131.689	48.724	0	302.10	0	4.8680	0	33.8760	0	26.802	0	299.326	0	77.9	4	25.0	4	-1E+10	1	-1E+10	1	-1E+10	1	-1E+10	1	-1E+10	1	-1E+10	1
4902551	75	C	09/08/2022	23:14	-131.689	48.724	0	303.20	0	4.8660	0	33.8760	0	26.802	0	300.415	0	77.5	4	24.9	4	-1E+10	1	-1E+10	1	-1E+10	1	-1E+10	1	-1E+10	1	-1E+10	1
4902551	75	C	09/08/2022	23:14	-131.689	48.724	0	304.30	0	4.8630	0	33.8760	0	26.802	0	301.504	0	77.2	4	24.8	4	-1E+10	1	-1E+10	1	-1E+10	1	-1E+10	1	-1E+10	1	-1E+10	1
4902551	75	C	09/08/2022	23:14	-131.689	48.724	0	305.30	0	4.8590	0	33.8770	0	26.804	0	302.494	0	76.8	4	24.7	4	-1E+10	1	-1E+10	1	-1E+10	1	-1E+10	1	-1E+10	1	-1E+10	1
4902551	75	C	09/08/2022	23:14	-131.689	48.724	0	306.40	0	4.8580	0	33.8770	0	26.804	0	303.584	0	76.3	4	24.5	4	-1E+10	1	-1E+10	1	-1E+10	1	-1E+10	1	-1E+10	1	-1E+10	1
4902551	75	C	09/08/2022	23:14	-131.689	48.724	0	307.50	0	4.8570	0	33.8770	0	26.804	0	304.673	0	75.9	4	24.4	4	-1E+10	1	-1E+10	1	-1E+10	1	-1E+10	1	-1E+10	1	-1E+10	1
4902551	75	C	09/08/2022	23:14	-131.689	48.724	0	308.60	0	4.8550	0	33.8780	0	26.805	0	305.762	0	75.3	4	24.2	4	-1E+10	1	-1E+10	1	-1E+10	1	-1E+10	1	-1E+10	1	-1E+10	1
4902551	75	C	09/08/2022	23:14	-131.689	48.724	0	309.70	0	4.8520	0	33.8800	0	26.807	0	306.851	0	74.8	4	24.1	4	-1E+10	1	-1E+10	1	-1E+10	1	-1E+10	1	-1E+10	1	-1E+10	1
4902551	75	C	09/08/2022	23:14	-131.689	48.724	0	310.70	0	4.8500	0	33.8820	0	26.809	0	307.841	0	74.3	4	23.9	4	-1E+10	1	-1E+10	1	-1E+10	1	-1E+10	1	-1E+10	1	-1E+10	1
4902551	75	C	09/08/2022	23:14	-131.689	48.724	0	311.80	0	4.8400	0	33.8850	0	26.812	0	308.930	0	73.8	4	23.7	4	-1E+10	1	-1E+10	1	-1E+10	1	-1E+10	1	-1E+10	1	-1E+10	1
4902551	75	C	09/08/2022	23:14	-131.689	48.724	0	312.90	0	4.8380	0	33.8860	0	26.813	0	310.019	0	73.4	4	23.6	4	-1E+10	1	-1E+10	1	-1E+10	1	-1E+10	1	-1E+10	1	-1E+10	1
4902551	75	C	09/08/2022	23:14	-131.689	48.724	0	314.00	0	4.8370	0	33.8870	0	26.814	0	311.108	0	72.9	4	23.4	4	-1E+10	1	-1E+10	1	-1E+10	1	-1E+10	1	-1E+10	1	-1E+10	1
4902551	75	C	09/08/2022	23:14	-131.689	48.724	0	315.10	0	4.8320	0	33.8920	0	26.819	0	312.197	0	72.5	4	23.3	4	-1E+10	1	-1E+10	1	-1E+10	1	-1E+10	1	-1E+10	1	-1E+10	1
4902551	75	C	09/08/2022	23:14	-131.689	48.724	0	316.20	0	4.8210	0	33.8950	0	26.822	0	313.286	0	72.1	4	23.2	4	-1E+10	1	-1E+10	1	-1E+10	1	-1E+10	1	-1E+10	1	-1E+10	1
4902551	75	C	09/08/2022	23:14	-131.689	48.724	0	317.30	0	4.8130	0	33.8960	0	26.824	0	314.375	0	71.9	4	23.1	4	-1E+10	1	-1E+10	1	-1E+10	1	-1E+10	1	-1E+10	1	-1E+10	1
4902551	75	C	09/08/2022	23:14	-131.689	48.724	0	318.40	0	4.8080	0	33.8970	0	26.825	0	315.464	0	71.7	4	23.0	4	-1E+10	1	-1E+10	1	-1E+10	1	-1E+10	1	-1E+10	1	-1E+10	1
4902551	75	C	09/08/2022	23:14	-131.689	48.724	0	319.50	0	4.8050	0	33.8970	0	26.826	0	316.553	0	71.4	4	22.9	4	-1E+10	1	-1E+10	1	-1E+10	1	-1E+10	1	-1E+10	1	-1E+10	1
4902551	75	C	09/08/2022	23:14	-131.689	48.724	0	320.60	0	4.8030	0	33.8970	0	26.826	0	317.642	0	71.1	4	22.8	4	-1E+10	1	-1E+10	1	-1E+10	1	-1E+10	1	-1E+10	1	-1E+10	1
4902551	75	C	09/08/2022	23:14	-131.689	48.724	0	321.60	0	4.8000	0	33.8980	0	26.827	0	318.632	0	70.8	4	22.7	4	-1E+10	1	-1E+10	1	-1E+10	1	-1E+10	1	-1E+10	1	-1E+10	1
4902551	75	C	09/08/2022	23:14	-131.689	48.724	0	322.70	0	4.7960	0	33.8970	0	26.827	0	319.721	0	70.5	4	22.6	4	-1E+10	1	-1E+10	1	-1E+10	1	-1E+10	1	-1E+10	1	-1E+10	1
4902551	75	C	09/08/2022	23:14	-131.689	48.724	0	323.80	0	4.7870	0	33.8990	0	26.829	0	320.810	0	70.2	4	22.5	4	-1E+10	1	-1E+10	1	-1E+10	1	-1E+10	1	-1E+10	1	-1E+10	1
4902551	75	C	09/08/2022	23:14	-131.689	48.724	0	324.90	0	4.7800	0	33.8980	0	26.829	0	321.899	0	69.8	4	22.4	4	-1E+10	1	-1E+10	1	-1E+10	1	-1E+10	1	-1E+10	1	-1E+10	1
4902551	75	C	09/08/2022	23:14	-131.689	48.724	0	326.00	0	4.7780	0	33.8980	0	26.829	0	322.988	0	69.4	4	22.3	4	-1E+10	1	-1E+10	1	-1E+10	1	-1E+10	1	-1E+10	1	-1E+10	1
4902551	75	C	09/08/2022	23:14	-131.689	48.724	0	327.10	0	4.7680	0	33.9010	0	26.833	0	324.077	0	69.0	4	22.1	4	-1E+10	1	-1E+10	1	-1E+10	1	-1E+10	1	-1E+10	1	-1E+10	1
4902551	75	C	09/08/2022	23:14	-131.689	48.724	0	328.20	0	4.7580	0	33.9000	0	26.833	0	325.166	0	68.5	4	22.0	4	-1E+10	1	-1E+10	1	-1E+10	1	-1E+10	1	-1E+10	1	-1E+10	1
4902551	75	C	09/08/2022	23:14	-131.689	48.724	0	329.30	0	4.7550	0	33.9010	0	26.834	0	326.255	0	67.9	4	21.8	4	-1E+10	1	-1E+10	1	-1E+10	1	-1E+10	1	-1E+10	1	-1E+10	1
4902551	75	C	09/08/2022	23:14	-131.689	48.724	0	330.40	0	4.7490	0	33.9010	0	26.835	0	327.344	0	67.3	4	21.6	4	-1E+10	1	-1E+10	1	-1E+10	1	-1E+10	1	-1E+10	1	-1E+10	1
4902551	75	C	09/08/2022	23:14	-131.689	48.724	0	331.40	0	4.7380	0	33.9050	0	26.839	0	328.334	0	66.8	4	21.4	4	-1E+10	1	-1E+10	1	-1E+10	1	-1E+10	1	-1E+10	1	-1E+10	1
4902551	75	C	09/08/2022	23:14	-131.689	48.724	0	332.50	0	4.7250	0	33.9060	0	26.842	0	329.423	0	66.4	4	21.3	4	-1E+10	1	-1E+10	1	-1E+10	1	-1E+10	1	-1E+10	1	-1E+10	1
4902551	75	C	09/08/2022	23:14	-131.689	48.724	0	333.70	0	4.7100	0	33.9090	0	26.846	0	330.611	0	65.9	4	21.1	4	-1E+10	1	-1E+10	1	-1E+10	1	-1E+10	1	-1E+10	1	-1E+10	1
4902551	75	C	09/08/2022	23:14	-131.689	48.724	0	334.70	0	4.6990	0	33.9110	0	26.849	0	331.601	0	65.6	4	21.0	4	-1E+10	1	-1E+10	1	-1E+10	1	-1E+10	1	-1E+10	1	-1E+10	1
4902551	75	C	09/08/2022	23:14	-131.689	48.724	0	335.90	0	4.6790	0	33.9140	0	26.853	0	332.789	0	65.4	4	20.9	4	-1E+10	1	-1E+10	1	-1E+10	1	-1E+10	1	-1E+10	1	-1E+10	1
4902551	75	C	09/08/2022	23:14	-131.689	48.724	0	337.00	0	4.6710	0	33.9150	0	26.855	0	333.878	0	65.1	4	20.9	4	-1E+10	1	-1E+10	1	-1E+10	1	-1E+10	1	-1E+10	1	-1E+10	1
4902551	75	C	09/08/2022	23:14	-131.689	48.724	0	338.10	0	4.6650	0	33.9150	0	26.855	0	334.967	0	64.8	4	20.8	4	-1E+10	1	-1E+10	1	-1E+10	1	-1E+10	1	-1E+10	1	-1E+10	1
4902551	75	C	09/08/2022	23:14	-131.689	48.724	0	339.20	0	4.6640	0	33.9150	0	26.856	0	336.055	0	64.6	4	20.7	4	-1E+10	1	-1E+10	1	-1E+10	1	-1E+10	1	-1E+10	1	-1E+10	1
4902551	75	C	09/08/2022	23:14	-131.689	48.724	0	340.30	0	4.6620	0	33.9150	0	26.856	0	337.144	0	64.2	4	20.6	4	-1E+10	1	-1E+10	1	-1E+10	1	-1E+10	1	-1E+10	1	-1E+10	1
4902551	75	C	09/08/2022	23:14	-131.689	48.724	0	341.40	0	4.6600	0	33.9160	0	26.857	0	338.233	0	63.9	4	20.5	4	-1E+10	1	-1E+10	1	-1E+10	1	-1E+10	1	-1E+10	1	-1E+10	1
4902551	75	C	09/08/2022	23:14	-131.689	48.724	0	342.50	0	4.6580	0	33.9160	0	26.857	0	339.322	0	63.5	4	20.3	4	-1E+10	1	-1E+10	1	-1E+10	1	-1E+10	1	-1E+10	1	-1E+10	1
4902551	75	C	09/08/2022	23:14	-131.689	48.724	0	343.90	0	4.6450	0	33.9190	0	26.861	0	340.708	0	63.1	4	20.2	4	-1E+10	1	-1E+10	1	-1E+10	1	-1E+10	1	-1E+10	1	-1E+10	1
4902551	75	C	09/08/2022	23:14	-131.689	48.724	0	345.90	0	4.6320	0	33.9200	0	26.863	0	342.688	0	62.5	4	20.0	4	-1E+10	1	-1E+10	1	-1E+10	1	-1E+10	1	-1E+10	1	-1E+10	1
4902551	75	C	09/08/2022	23:14	-131.689	48.724	0	347.10	0	4.6220	0	33.9220	0	26.866	0	343.876	0	62.0	4	19.8	4	-1E+10	1	-1E+10	1	-1E+10	1	-1E+10	1	-1E+10	1	-1E+10	1
4902551	75	C	09/08/2022	23:14	-131.689	48.724	0	347.90	0	4.6190	0	33.9230	0	26.867	0	344.668	0	61.7	4	19.7	4	-1E+10	1	-1E+10	1	-1E+10	1	-1E+10	1	-1E+10	1	-1E+10	1
4902551	75	C	09/08/2022	23:14	-131.689	48.724	0	348.70	0	4.6160	0	33.9230	0	26.867	0	345.459	0	61.5	4	19.7	4	-1E+10	1	-1E+10	1	-1E+10	1	-1E+10	1	-1E+10	1	-1E+10	1
4902551	75	C	09/08/2022	23:14	-131.689	48.724	0	349.90	0	4.6110	0	33.9230	0	26.868	0	346.647	0	61.0	4	19.5	4	-1E+10	1	-1E+10	1	-1E+10	1	-1E+10	1	-1E+10	1	-1E+10	1
4902551	75	C	09/08/2022	23:14	-131.689	48.724	0	353.30	0	4.5770	0	33.9290	0	26.876	0	350.013	0	60.0	4	19.2	4	-1E+10	1	-1E+10	1	-1E+10	1	-1E+10	1	-1E+10	1	-1E+10	1
4902551	75	C	09/08/2022	23:14	-131.689	48.724	0	358.00	0	4.5480	0	33.9340	0	26.883	0	354.665	0	58.9	4	18.8	4	-1E+10	1	-1E+10	1	-1E+10	1	-1E+10	1	-1E+10	1	-1E+10	1
4902551	75	C	09/08/2022	23:14	-131.689	48.724	0	362.80	0	4.5360	0	33.9370	0	26.887	0	359.416	0	57.7	4	18.4	4	-1E+10	1	-1E+10	1	-1E+10	1	-1E+10	1	-1E+10	1	-1E+10	1
4902551	75	C	09/08/2022	23:14	-131.689	48.724	0	368.00	0	4.5140	0	33.9420	0	26.894	0	364.563	0	56.3	4	18.0	4	-1E+10	1	-1E+10	1	-1E+10	1	-1E+10	1	-1E+10	1	-1E+10	1
4902551	75	C	09/08/2022	23:14	-131.689	48.724	0	372.80	0	4.4960	0	33.9480	0	26.900	0	369.314	0	54.9	4	17.5	4	-1E+10	1	-1E+10	1	-1E+10	1	-1E+10	1	-1E+10	1	-1E+10	1
4902551	75	C	09/08/2022	23:14	-131.689	48.724	0	377.60	0	4.4750	0	33.9550	0	26.908	0	374.065	0	53.5	4	17.1	4	-1E+10	1	-1E+10	1	-1E+10	1	-1E+10	1	-1E+10	1	-1E+10	1
4902551	75	C	09/08/2022	23:14	-131.689	48.724	0	382.90	0	4.4550	0	33.9610	0	26.915	0	379.310	0	52.5	4	16.7	4	-1E+10	1	-1E+10	1	-1E+10	1	-1E+10	1	-1E+10	1	-1E+10	1
4902551	75	C	09/08/2022	23:14	-131.689	48.724	0	387.80	0	4.4460	0	33.9640	0	26.918	0	384.160	0	51.4	4	16.4	4	-1E+10	1	-1E+10	1	-1E+10	1	-1E+10	1	-1E+10	1	-1E+10	1
4902551	75	C	09/08/2022	23:14	-131.689	48.724	0	392.70	0	4.4330	0	33.9690	0	26.924	0	389.009	0	50.0	4	15.9	4	-1E+10	1	-1E+10	1	-1E+10	1	-1E+10	1	-1E+10	1	-1E+10	1
4902551	75	C	09/08/2022	23:14	-131.689	48.724	0	398.10	0	4.4100	0	33.9780	0	26.933	0	394.353	0	48.3	4	15.4	4	-1E+10	1	-1E+10	1	-1E+10	1	-1E+10	1	-1E+10	1	-1E+10	1
4902551	75	C	09/08/2022	23:14	-131.689	48.724	0	403.00	0	4.3860	0	33.9870	0	26.943	0	399.203	0	46.7	4	14.8	4	-1E+10	1	-1E+10	1	-1E+10	1	-1E+10	1	-1E+10	1	-1E+10	1
4902551	75	C	09/08/2022	23:14	-131.689	48.724	0	407.60	0	4.3580	0	33.9980	0	26.955	0	403.755	0	45.7	4	14.5	4	-1E+10	1	-1E+10	1	-1E+10	1	-1E+10	1	-1E+10	1	-1E+10	1
4902551	75	C	09/08/2022	23:14	-131.689	48.724	0	412.80	0	4.3490	0	34.0020	0	26.959	0	408.901	0	45.1	4	14.3	4	-1E+10	1	-1E+10	1	-1E+10	1	-1E+10	1	-1E+10	1	-1E+10	1
4902551	75	C	09/08/2022	23:14	-131.689	48.724	0	417.90	0	4.3400	0	34.0050	0	26.963	0	413.947	0	44.3	4	14.1	4	-1E+10	1	-1E+10	1	-1E+10	1	-1E+10	1	-1E+10	1	-1E+10	1
4902551	75	C	09/08/2022	23:14	-131.689	48.724	0	423.00	0	4.3290	0	34.0090	0	26.967	0	418.994	0	43.6	4	13.8	4	-1E+10	1	-1E+10	1	-1E+10	1	-1E+10	1	-1E+10	1	-1E+10	1
4902551	75	C	09/08/2022	23:14	-131.689	48.724	0	428.30	0	4.3170	0	34.0130	0	26.971	0	424.238	0	42.9	4	13.6	4	-1E+10	1	-1E+10	1	-1E+10	1	-1E+10	1	-1E+10	1	-1E+10	1
4902551	75	C	09/08/2022	23:14	-131.689	48.724	0	433.30	0	4.3120	0	34.0160	0	26.974	0	429.186	0	42.3	4	13.4	4	-1E+10	1	-1E+10	1	-1E+10	1	-1E+10	1	-1E+10	1	-1E+10	1
4902551	75	C	09/08/2022	23:14	-131.689	48.724	0	438.30	0	4.3000	0	34.0200	0	26.979	0	434.133	0	41.6	4	13.2	4	-1E+10	1	-1E+10	1	-1E+10	1	-1E+10	1	-1E+10	1	-1E+10	1
4902551	75	C	09/08/2022	23:14	-131.689	48.724	0	443.00	0	4.2930	0	34.0230	0	26.982	0	438.783	0	41.2	4	13.1	4	-1E+10	1	-1E+10	1	-1E+10	1	-1E+10	1	-1E+10	1	-1E+10	1
4902551	75	C	09/08/2022	23:14	-131.689	48.724	0	447.60	0	4.2910	0	34.0240	0	26.983	0	443.335	0	40.7	4	12.9	4	-1E+10	1	-1E+10	1	-1E+10	1	-1E+10	1	-1E+10	1	-1E+10	1
4902551	75	C	09/08/2022	23:14	-131.689	48.724	0	452.80	0	4.2790	0	34.0290	0	26.988	0	448.480	0	39.9	4	12.7	4	-1E+10	1	-1E+10	1	-1E+10	1	-1E+10	1	-1E+10	1	-1E+10	1
4902551	75	C	09/08/2022	23:14	-131.689	48.724	0	458.10	0	4.2680	0	34.0330	0	26.993	0	453.723	0	39.3	4	12.5	4	-1E+10	1	-1E+10	1	-1E+10	1	-1E+10	1	-1E+10	1	-1E+10	1
4902551	75	C	09/08/2022	23:14	-131.689	48.724	0	463.00	0	4.2600	0	34.0360	0	26.996	0	458.571	0	38.8	4	12.3	4	-1E+10	1	-1E+10	1	-1E+10	1	-1E+10	1	-1E+10	1	-1E+10	1
4902551	75	C	09/08/2022	23:14	-131.689	48.724	0	468.00	0	4.2550	0	34.0380	0	26.998	0	463.518	0	38.2	4	12.1	4	-1E+10	1	-1E+10	1	-1E+10	1	-1E+10	1	-1E+10	1	-1E+10	1
4902551	75	C	09/08/2022	23:14	-131.689	48.724	0	473.00	0	4.2370	0	34.0440	0	27.005	0	468.464	0	37.6	4	11.9	4	-1E+10	1	-1E+10	1	-1E+10	1	-1E+10	1	-1E+10	1	-1E+10	1
4902551	75	C	09/08/2022	23:14	-131.689	48.724	0	477.90	0	4.2330	0	34.0460	0	27.007	0	473.311	0	37.2	4	11.8	4	-1E+10	1	-1E+10	1	-1E+10	1	-1E+10	1	-1E+10	1	-1E+10	1
4902551	75	C	09/08/2022	23:14	-131.689	48.724	0	483.00	0	4.2250	0	34.0490	0	27.010	0	478.357	0	36.8	4	11.7	4	-1E+10	1	-1E+10	1	-1E+10	1	-1E+10	1	-1E+10	1	-1E+10	1
4902551	75	C	09/08/2022	23:14	-131.689	48.724	0	488.00	0	4.2200	0	34.0510	0	27.012	0	483.303	0	36.4	4	11.5	4	-1E+10	1	-1E+10	1	-1E+10	1	-1E+10	1	-1E+10	1	-1E+10	1
4902551	75	C	09/08/2022	23:14	-131.689	48.724	0	493.10	0	4.2140	0	34.0530	0	27.014	0	488.348	0	35.9	4	11.4	4	-1E+10	1	-1E+10	1	-1E+10	1	-1E+10	1	-1E+10	1	-1E+10	1
4902551	75	C	09/08/2022	23:14	-131.689	48.724	0	498.20	0	4.2060	0	34.0560	0	27.018	0	493.392	0	35.3	4	11.2	4	-1E+10	1	-1E+10	1	-1E+10	1	-1E+10	1	-1E+10	1	-1E+10	1
4902551	75	C	09/08/2022	23:14	-131.689	48.724	0	503.30	0	4.1990	0	34.0590	0	27.021	0	498.437	0	34.6	4	11.0	4	-1E+10	1	-1E+10	1	-1E+10	1	-1E+10	1	-1E+10	1	-1E+10	1
4902551	75	C	09/08/2022	23:14	-131.689	48.724	0	508.30	0	4.1860	0	34.0630	0	27.025	0	503.383	0	33.8	4	10.7	4	-1E+10	1	-1E+10	1	-1E+10	1	-1E+10	1	-1E+10	1	-1E+10	1
4902551	75	C	09/08/2022	23:14	-131.689	48.724	0	513.00	0	4.1670	0	34.0700	0	27.033	0	508.032	0	33.0	4	10.5	4	-1E+10	1	-1E+10	1	-1E+10	1	-1E+10	1	-1E+10	1	-1E+10	1
4902551	75	C	09/08/2022	23:14	-131.689	48.724	0	517.70	0	4.1540	0	34.0750	0	27.038	0	512.680	0	32.5	4	10.3	4	-1E+10	1	-1E+10	1	-1E+10	1	-1E+10	1	-1E+10	1	-1E+10	1
4902551	75	C	09/08/2022	23:14	-131.689	48.724	0	522.90	0	4.1450	0	34.0780	0	27.042	0	517.823	0	31.9	4	10.1	4	-1E+10	1	-1E+10	1	-1E+10	1	-1E+10	1	-1E+10	1	-1E+10	1
4902551	75	C	09/08/2022	23:14	-131.689	48.724	0	527.80	0	4.1330	0	34.0830	0	27.047	0	522.670	0	31.5	4	10.0	4	-1E+10	1	-1E+10	1	-1E+10	1	-1E+10	1	-1E+10	1	-1E+10	1
4902551	75	C	09/08/2022	23:14	-131.689	48.724	0	532.60	0	4.1290	0	34.0850	0	27.049	0	527.417	0	31.1	4	9.9	4	-1E+10	1	-1E+10	1	-1E+10	1	-1E+10	1	-1E+10	1	-1E+10	1
4902551	75	C	09/08/2022	23:14	-131.689	48.724	0	537.70	0	4.1210	0	34.0870	0	27.052	0	532.461	0	30.6	4	9.7	4	-1E+10	1	-1E+10	1	-1E+10	1	-1E+10	1	-1E+10	1	-1E+10	1
4902551	75	C	09/08/2022	23:14	-131.689	48.724	0	542.90	0	4.1170	0	34.0920	0	27.056	0	537.603	0	30.2	4	9.5	4	-1E+10	1	-1E+10	1	-1E+10	1	-1E+10	1	-1E+10	1	-1E+10	1
4902551	75	C	09/08/2022	23:14	-131.689	48.724	0	548.10	0	4.1080	0	34.0940	0	27.059	0	542.746	0	29.6	4	9.4	4	-1E+10	1	-1E+10	1	-1E+10	1	-1E+10	1	-1E+10	1	-1E+10	1
4902551	75	C	09/08/2022	23:14	-131.689	48.724	0	553.00	0	4.0810	0	34.1010	0	27.067	0	547.592	0	28.9	4	9.1	4	-1E+10	1	-1E+10	1	-1E+10	1	-1E+10	1	-1E+10	1	-1E+10	1
4902551	75	C	09/08/2022	23:14	-131.689	48.724	0	557.90	0	4.0680	0	34.1060	0	27.072	0	552.437	0	28.1	4	8.9	4	-1E+10	1	-1E+10	1	-1E+10	1	-1E+10	1	-1E+10	1	-1E+10	1
4902551	75	C	09/08/2022	23:14	-131.689	48.724	0	563.10	0	4.0490	0	34.1130	0	27.080	0	557.579	0	27.4	4	8.7	4	-1E+10	1	-1E+10	1	-1E+10	1	-1E+10	1	-1E+10	1	-1E+10	1
4902551	75	C	09/08/2022	23:14	-131.689	48.724	0	568.00	0	4.0420	0	34.1160	0	27.083	0	562.425	0	27.1	4	8.5	4	-1E+10	1	-1E+10	1	-1E+10	1	-1E+10	1	-1E+10	1	-1E+10	1
4902551	75	C	09/08/2022	23:14	-131.689	48.724	0	572.90	0	4.0320	0	34.1200	0	27.087	0	567.270	0	26.8	4	8.5	4	-1E+10	1	-1E+10	1	-1E+10	1	-1E+10	1	-1E+10	1	-1E+10	1
4902551	75	C	09/08/2022	23:14	-131.689	48.724	0	578.20	0	4.0300	0	34.1210	0	27.088	0	572.510	0	26.6	4	8.4	4	-1E+10	1	-1E+10	1	-1E+10	1	-1E+10	1	-1E+10	1	-1E+10	1
4902551	75	C	09/08/2022	23:14	-131.689	48.724	0	582.90	0	4.0290	0	34.1210	0	27.088	0	577.158	0	26.4	4	8.3	4	-1E+10	1	-1E+10	1	-1E+10	1	-1E+10	1	-1E+10	1	-1E+10	1
4902551	75	C	09/08/2022	23:14	-131.689	48.724	0	587.60	0	4.0290	0	34.1210	0	27.088	0	581.805	0	26.0	4	8.2	4	-1E+10	1	-1E+10	1	-1E+10	1	-1E+10	1	-1E+10	1	-1E+10	1
4902551	75	C	09/08/2022	23:14	-131.689	48.724	0	592.80	0	4.0200	0	34.1240	0	27.092	0	586.946	0	25.3	4	8.0	4	-1E+10	1	-1E+10	1	-1E+10	1	-1E+10	1	-1E+10	1	-1E+10	1
4902551	75	C	09/08/2022	23:14	-131.689	48.724	0	598.00	0	3.9980	0	34.1310	0	27.100	0	592.087	0	24.3	4	7.7	4	-1E+10	1	-1E+10	1	-1E+10	1	-1E+10	1	-1E+10	1	-1E+10	1
4902551	75	C	09/08/2022	23:14	-131.689	48.724	0	603.00	0	3.9750	0	34.1390	0	27.108	0	597.031	0	23.6	4	7.4	4	-1E+10	1	-1E+10	1	-1E+10	1	-1E+10	1	-1E+10	1	-1E+10	1
4902551	75	C	09/08/2022	23:14	-131.689	48.724	0	608.10	0	3.9660	0	34.1420	0	27.112	0	602.073	0	22.8	4	7.2	4	-1E+10	1	-1E+10	1	-1E+10	1	-1E+10	1	-1E+10	1	-1E+10	1
4902551	75	C	09/08/2022	23:14	-131.689	48.724	0	613.20	0	3.9480	0	34.1530	0	27.122	0	607.115	0	22.0	4	6.9	4	-1E+10	1	-1E+10	1	-1E+10	1	-1E+10	1	-1E+10	1	-1E+10	1
4902551	75	C	09/08/2022	23:14	-131.689	48.724	0	618.20	0	3.9300	0	34.1570	0	27.127	0	612.058	0	21.3	4	6.7	4	-1E+10	1	-1E+10	1	-1E+10	1	-1E+10	1	-1E+10	1	-1E+10	1
4902551	75	C	09/08/2022	23:14	-131.689	48.724	0	623.10	0	3.9110	0	34.1650	0	27.136	0	616.902	0	20.7	4	6.5	4	-1E+10	1	-1E+10	1	-1E+10	1	-1E+10	1	-1E+10	1	-1E+10	1
4902551	75	C	09/08/2022	23:14	-131.689	48.724	0	627.70	0	3.9060	0	34.1680	0	27.139	0	621.449	0	20.3	4	6.4	4	-1E+10	1	-1E+10	1	-1E+10	1	-1E+10	1	-1E+10	1	-1E+10	1
4902551	75	C	09/08/2022	23:14	-131.689	48.724	0	632.80	0	3.9070	0	34.1720	0	27.142	0	626.491	0	19.6	4	6.2	4	-1E+10	1	-1E+10	1	-1E+10	1	-1E+10	1	-1E+10	1	-1E+10	1
4902551	75	C	09/08/2022	23:14	-131.689	48.724	0	638.10	0	3.9040	0	34.1790	0	27.148	0	631.730	0	19.1	4	6.0	4	-1E+10	1	-1E+10	1	-1E+10	1	-1E+10	1	-1E+10	1	-1E+10	1
4902551	75	C	09/08/2022	23:14	-131.689	48.724	0	643.10	0	3.8890	0	34.1840	0	27.153	0	636.673	0	18.9	4	6.0	4	-1E+10	1	-1E+10	1	-1E+10	1	-1E+10	1	-1E+10	1	-1E+10	1
4902551	75	C	09/08/2022	23:14	-131.689	48.724	0	648.00	0	3.8830	0	34.1840	0	27.154	0	641.516	0	18.6	4	5.9	4	-1E+10	1	-1E+10	1	-1E+10	1	-1E+10	1	-1E+10	1	-1E+10	1
4902551	75	C	09/08/2022	23:14	-131.689	48.724	0	653.00	0	3.8760	0	34.1880	0	27.158	0	646.458	0	18.2	4	5.7	4	-1E+10	1	-1E+10	1	-1E+10	1	-1E+10	1	-1E+10	1	-1E+10	1
4902551	75	C	09/08/2022	23:14	-131.689	48.724	0	658.00	0	3.8570	0	34.1930	0	27.164	0	651.400	0	17.8	4	5.6	4	-1E+10	1	-1E+10	1	-1E+10	1	-1E+10	1	-1E+10	1	-1E+10	1
4902551	75	C	09/08/2022	23:14	-131.689	48.724	0	663.10	0	3.8380	0	34.1980	0	27.170	0	656.441	0	17.2	4	5.4	4	-1E+10	1	-1E+10	1	-1E+10	1	-1E+10	1	-1E+10	1	-1E+10	1
4902551	75	C	09/08/2022	23:14	-131.689	48.724	0	667.70	0	3.8270	0	34.2020	0	27.174	0	660.988	0	16.7	4	5.3	4	-1E+10	1	-1E+10	1	-1E+10	1	-1E+10	1	-1E+10	1	-1E+10	1
4902551	75	C	09/08/2022	23:14	-131.689	48.724	0	672.80	0	3.8080	0	34.2120	0	27.184	0	666.028	0	16.2	4	5.1	4	-1E+10	1	-1E+10	1	-1E+10	1	-1E+10	1	-1E+10	1	-1E+10	1
4902551	75	C	09/08/2022	23:14	-131.689	48.724	0	677.90	0	3.7940	0	34.2180	0	27.190	0	671.069	0	16.0	4	5.0	4	-1E+10	1	-1E+10	1	-1E+10	1	-1E+10	1	-1E+10	1	-1E+10	1
4902551	75	C	09/08/2022	23:14	-131.689	48.724	0	682.50	0	3.7560	0	34.2240	0	27.198	0	675.615	0	16.0	4	5.0	4	-1E+10	1	-1E+10	1	-1E+10	1	-1E+10	1	-1E+10	1	-1E+10	1
4902551	75	C	09/08/2022	23:14	-131.689	48.724	0	687.80	0	3.7350	0	34.2230	0	27.200	0	680.853	0	15.9	4	5.0	4	-1E+10	1	-1E+10	1	-1E+10	1	-1E+10	1	-1E+10	1	-1E+10	1
4902551	75	C	09/08/2022	23:14	-131.689	48.724	0	693.10	0	3.7210	0	34.2260	0	27.204	0	686.091	0	15.5	4	4.9	4	-1E+10	1	-1E+10	1	-1E+10	1	-1E+10	1	-1E+10	1	-1E+10	1
4902551	75	C	09/08/2022	23:14	-131.689	48.724	0	698.00	0	3.7060	0	34.2310	0	27.209	0	690.933	0	15.1	4	4.7	4	-1E+10	1	-1E+10	1	-1E+10	1	-1E+10	1	-1E+10	1	-1E+10	1
4902551	75	C	09/08/2022	23:14	-131.689	48.724	0	702.80	0	3.7010	0	34.2390	0	27.216	0	695.676	0	14.8	4	4.6	4	-1E+10	1	-1E+10	1	-1E+10	1	-1E+10	1	-1E+10	1	-1E+10	1
4902551	75	C	09/08/2022	23:14	-131.689	48.724	0	707.70	0	3.6920	0	34.2420	0	27.219	0	700.518	0	14.6	4	4.6	4	-1E+10	1	-1E+10	1	-1E+10	1	-1E+10	1	-1E+10	1	-1E+10	1
4902551	75	C	09/08/2022	23:14	-131.689	48.724	0	712.90	0	3.6830	0	34.2440	0	27.222	0	705.657	0	14.4	4	4.5	4	-1E+10	1	-1E+10	1	-1E+10	1	-1E+10	1	-1E+10	1	-1E+10	1
4902551	75	C	09/08/2022	23:14	-131.689	48.724	0	718.00	0	3.6750	0	34.2480	0	27.226	0	710.696	0	14.2	4	4.4	4	-1E+10	1	-1E+10	1	-1E+10	1	-1E+10	1	-1E+10	1	-1E+10	1
4902551	75	C	09/08/2022	23:14	-131.689	48.724	0	722.90	0	3.6710	0	34.2510	0	27.229	0	715.538	0	14.0	4	4.4	4	-1E+10	1	-1E+10	1	-1E+10	1	-1E+10	1	-1E+10	1	-1E+10	1
4902551	75	C	09/08/2022	23:14	-131.689	48.724	0	727.80	0	3.6670	0	34.2540	0	27.231	0	720.380	0	13.8	4	4.3	4	-1E+10	1	-1E+10	1	-1E+10	1	-1E+10	1	-1E+10	1	-1E+10	1
4902551	75	C	09/08/2022	23:14	-131.689	48.724	0	732.90	0	3.6670	0	34.2560	0	27.233	0	725.419	0	13.7	4	4.3	4	-1E+10	1	-1E+10	1	-1E+10	1	-1E+10	1	-1E+10	1	-1E+10	1
4902551	75	C	09/08/2022	23:14	-131.689	48.724	0	738.10	0	3.6680	0	34.2560	0	27.233	0	730.557	0	13.6	4	4.3	4	-1E+10	1	-1E+10	1	-1E+10	1	-1E+10	1	-1E+10	1	-1E+10	1
4902551	75	C	09/08/2022	23:14	-131.689	48.724	0	742.90	0	3.6660	0	34.2580	0	27.235	0	735.299	0	13.4	4	4.2	4	-1E+10	1	-1E+10	1	-1E+10	1	-1E+10	1	-1E+10	1	-1E+10	1
4902551	75	C	09/08/2022	23:14	-131.689	48.724	0	747.80	0	3.6620	0	34.2610	0	27.238	0	740.140	0	13.2	4	4.2	4	-1E+10	1	-1E+10	1	-1E+10	1	-1E+10	1	-1E+10	1	-1E+10	1
4902551	75	C	09/08/2022	23:14	-131.689	48.724	0	752.90	0	3.6620	0	34.2630	0	27.239	0	745.179	0	13.1	4	4.1	4	-1E+10	1	-1E+10	1	-1E+10	1	-1E+10	1	-1E+10	1	-1E+10	1
4902551	75	C	09/08/2022	23:14	-131.689	48.724	0	758.00	0	3.6600	0	34.2680	0	27.244	0	750.218	0	13.0	4	4.1	4	-1E+10	1	-1E+10	1	-1E+10	1	-1E+10	1	-1E+10	1	-1E+10	1
4902551	75	C	09/08/2022	23:14	-131.689	48.724	0	763.20	0	3.6540	0	34.2720	0	27.247	0	755.355	0	13.1	4	4.1	4	-1E+10	1	-1E+10	1	-1E+10	1	-1E+10	1	-1E+10	1	-1E+10	1
4902551	75	C	09/08/2022	23:14	-131.689	48.724	0	768.10	0	3.6020	0	34.2700	0	27.251	0	760.195	0	13.3	4	4.2	4	-1E+10	1	-1E+10	1	-1E+10	1	-1E+10	1	-1E+10	1	-1E+10	1
4902551	75	C	09/08/2022	23:14	-131.689	48.724	0	773.10	0	3.5930	0	34.2680	0	27.250	0	765.135	0	13.3	4	4.2	4	-1E+10	1	-1E+10	1	-1E+10	1	-1E+10	1	-1E+10	1	-1E+10	1
4902551	75	C	09/08/2022	23:14	-131.689	48.724	0	778.30	0	3.6000	0	34.2700	0	27.251	0	770.272	0	13.2	4	4.1	4	-1E+10	1	-1E+10	1	-1E+10	1	-1E+10	1	-1E+10	1	-1E+10	1
4902551	75	C	09/08/2022	23:14	-131.689	48.724	0	783.00	0	3.5510	0	34.2740	0	27.259	0	774.915	0	13.2	4	4.1	4	-1E+10	1	-1E+10	1	-1E+10	1	-1E+10	1	-1E+10	1	-1E+10	1
4902551	75	C	09/08/2022	23:14	-131.689	48.724	0	787.70	0	3.5340	0	34.2750	0	27.262	0	779.557	0	13.1	4	4.1	4	-1E+10	1	-1E+10	1	-1E+10	1	-1E+10	1	-1E+10	1	-1E+10	1
4902551	75	C	09/08/2022	23:14	-131.689	48.724	0	792.90	0	3.5200	0	34.2810	0	27.268	0	784.694	0	12.9	4	4.0	4	-1E+10	1	-1E+10	1	-1E+10	1	-1E+10	1	-1E+10	1	-1E+10	1
4902551	75	C	09/08/2022	23:14	-131.689	48.724	0	798.10	0	3.5170	0	34.2820	0	27.269	0	789.830	0	12.9	4	4.0	4	-1E+10	1	-1E+10	1	-1E+10	1	-1E+10	1	-1E+10	1	-1E+10	1
4902551	75	C	09/08/2022	23:14	-131.689	48.724	0	802.90	0	3.5140	0	34.2830	0	27.270	0	794.571	0	12.9	4	4.0	4	-1E+10	1	-1E+10	1	-1E+10	1	-1E+10	1	-1E+10	1	-1E+10	1
4902551	75	C	09/08/2022	23:14	-131.689	48.724	0	807.70	0	3.5090	0	34.2850	0	27.272	0	799.312	0	12.8	4	4.0	4	-1E+10	1	-1E+10	1	-1E+10	1	-1E+10	1	-1E+10	1	-1E+10	1
4902551	75	C	09/08/2022	23:14	-131.689	48.724	0	813.00	0	3.5020	0	34.2860	0	27.274	0	804.547	0	12.8	4	4.0	4	-1E+10	1	-1E+10	1	-1E+10	1	-1E+10	1	-1E+10	1	-1E+10	1
4902551	75	C	09/08/2022	23:14	-131.689	48.724	0	818.00	0	3.4950	0	34.2880	0	27.276	0	809.485	0	12.7	4	4.0	4	-1E+10	1	-1E+10	1	-1E+10	1	-1E+10	1	-1E+10	1	-1E+10	1
4902551	75	C	09/08/2022	23:14	-131.689	48.724	0	822.80	0	3.4940	0	34.2880	0	27.276	0	814.226	0	12.7	4	3.9	4	-1E+10	1	-1E+10	1	-1E+10	1	-1E+10	1	-1E+10	1	-1E+10	1
4902551	75	C	09/08/2022	23:14	-131.689	48.724	0	827.60	0	3.4900	0	34.2890	0	27.277	0	818.967	0	12.5	4	3.9	4	-1E+10	1	-1E+10	1	-1E+10	1	-1E+10	1	-1E+10	1	-1E+10	1
4902551	75	C	09/08/2022	23:14	-131.689	48.724	0	832.90	0	3.4720	0	34.2940	0	27.283	0	824.201	0	12.4	4	3.9	4	-1E+10	1	-1E+10	1	-1E+10	1	-1E+10	1	-1E+10	1	-1E+10	1
4902551	75	C	09/08/2022	23:14	-131.689	48.724	0	838.30	0	3.4620	0	34.2990	0	27.288	0	829.534	0	12.2	4	3.8	4	-1E+10	1	-1E+10	1	-1E+10	1	-1E+10	1	-1E+10	1	-1E+10	1
4902551	75	C	09/08/2022	23:14	-131.689	48.724	0	842.90	0	3.4590	0	34.3030	0	27.291	0	834.076	0	12.2	4	3.8	4	-1E+10	1	-1E+10	1	-1E+10	1	-1E+10	1	-1E+10	1	-1E+10	1
4902551	75	C	09/08/2022	23:14	-131.689	48.724	0	847.60	0	3.4350	0	34.3070	0	27.297	0	838.718	0	12.2	4	3.8	4	-1E+10	1	-1E+10	1	-1E+10	1	-1E+10	1	-1E+10	1	-1E+10	1
4902551	75	C	09/08/2022	23:14	-131.689	48.724	0	852.80	0	3.4250	0	34.3080	0	27.299	0	843.853	0	12.1	4	3.8	4	-1E+10	1	-1E+10	1	-1E+10	1	-1E+10	1	-1E+10	1	-1E+10	1
4902551	75	C	09/08/2022	23:14	-131.689	48.724	0	858.00	0	3.4220	0	34.3090	0	27.300	0	848.988	0	12.0	4	3.8	4	-1E+10	1	-1E+10	1	-1E+10	1	-1E+10	1	-1E+10	1	-1E+10	1
4902551	75	C	09/08/2022	23:14	-131.689	48.724	0	863.20	0	3.4170	0	34.3120	0	27.303	0	854.122	0	11.9	4	3.7	4	-1E+10	1	-1E+10	1	-1E+10	1	-1E+10	1	-1E+10	1	-1E+10	1
4902551	75	C	09/08/2022	23:14	-131.689	48.724	0	868.00	0	3.4120	0	34.3140	0	27.305	0	858.862	0	11.9	4	3.7	4	-1E+10	1	-1E+10	1	-1E+10	1	-1E+10	1	-1E+10	1	-1E+10	1
4902551	75	C	09/08/2022	23:14	-131.689	48.724	0	872.80	0	3.4030	0	34.3170	0	27.308	0	863.602	0	11.8	4	3.7	4	-1E+10	1	-1E+10	1	-1E+10	1	-1E+10	1	-1E+10	1	-1E+10	1
4902551	75	C	09/08/2022	23:14	-131.689	48.724	0	878.20	0	3.3990	0	34.3190	0	27.310	0	868.934	0	11.7	4	3.7	4	-1E+10	1	-1E+10	1	-1E+10	1	-1E+10	1	-1E+10	1	-1E+10	1
4902551	75	C	09/08/2022	23:14	-131.689	48.724	0	883.10	0	3.3830	0	34.3230	0	27.315	0	873.772	0	11.7	4	3.7	4	-1E+10	1	-1E+10	1	-1E+10	1	-1E+10	1	-1E+10	1	-1E+10	1
4902551	75	C	09/08/2022	23:14	-131.689	48.724	0	887.90	0	3.3760	0	34.3250	0	27.317	0	878.511	0	11.7	4	3.6	4	-1E+10	1	-1E+10	1	-1E+10	1	-1E+10	1	-1E+10	1	-1E+10	1
4902551	75	C	09/08/2022	23:14	-131.689	48.724	0	892.80	0	3.3600	0	34.3270	0	27.320	0	883.349	0	11.7	4	3.6	4	-1E+10	1	-1E+10	1	-1E+10	1	-1E+10	1	-1E+10	1	-1E+10	1
4902551	75	C	09/08/2022	23:14	-131.689	48.724	0	897.70	0	3.3460	0	34.3290	0	27.323	0	888.186	0	11.7	4	3.6	4	-1E+10	1	-1E+10	1	-1E+10	1	-1E+10	1	-1E+10	1	-1E+10	1
4902551	75	C	09/08/2022	23:14	-131.689	48.724	0	903.00	0	3.3460	0	34.3290	0	27.323	0	893.419	0	11.7	4	3.6	4	-1E+10	1	-1E+10	1	-1E+10	1	-1E+10	1	-1E+10	1	-1E+10	1
4902551	75	C	09/08/2022	23:14	-131.689	48.724	0	908.10	0	3.3430	0	34.3300	0	27.324	0	898.454	0	11.7	4	3.6	4	-1E+10	1	-1E+10	1	-1E+10	1	-1E+10	1	-1E+10	1	-1E+10	1
4902551	75	C	09/08/2022	23:14	-131.689	48.724	0	913.30	0	3.3400	0	34.3310	0	27.325	0	903.587	0	11.7	4	3.6	4	-1E+10	1	-1E+10	1	-1E+10	1	-1E+10	1	-1E+10	1	-1E+10	1
4902551	75	C	09/08/2022	23:14	-131.689	48.724	0	917.90	0	3.3300	0	34.3330	0	27.328	0	908.129	0	11.7	4	3.6	4	-1E+10	1	-1E+10	1	-1E+10	1	-1E+10	1	-1E+10	1	-1E+10	1
4902551	75	C	09/08/2022	23:14	-131.689	48.724	0	922.60	0	3.3170	0	34.3340	0	27.330	0	912.768	0	11.8	4	3.7	4	-1E+10	1	-1E+10	1	-1E+10	1	-1E+10	1	-1E+10	1	-1E+10	1
4902551	75	C	09/08/2022	23:14	-131.689	48.724	0	927.70	0	3.2970	0	34.3360	0	27.334	0	917.803	0	11.8	4	3.7	4	-1E+10	1	-1E+10	1	-1E+10	1	-1E+10	1	-1E+10	1	-1E+10	1
4902551	75	C	09/08/2022	23:14	-131.689	48.724	0	932.70	0	3.2780	0	34.3390	0	27.338	0	922.738	0	11.8	4	3.7	4	-1E+10	1	-1E+10	1	-1E+10	1	-1E+10	1	-1E+10	1	-1E+10	1
4902551	75	C	09/08/2022	23:14	-131.689	48.724	0	937.80	0	3.2590	0	34.3410	0	27.341	0	927.773	0	11.9	4	3.7	4	-1E+10	1	-1E+10	1	-1E+10	1	-1E+10	1	-1E+10	1	-1E+10	1
4902551	75	C	09/08/2022	23:14	-131.689	48.724	0	943.00	0	3.2350	0	34.3440	0	27.346	0	932.905	0	11.9	4	3.7	4	-1E+10	1	-1E+10	1	-1E+10	1	-1E+10	1	-1E+10	1	-1E+10	1
4902551	75	C	09/08/2022	23:14	-131.689	48.724	0	947.80	0	3.2300	0	34.3440	0	27.346	0	937.643	0	11.9	4	3.7	4	-1E+10	1	-1E+10	1	-1E+10	1	-1E+10	1	-1E+10	1	-1E+10	1
4902551	75	C	09/08/2022	23:14	-131.689	48.724	0	952.70	0	3.2180	0	34.3460	0	27.349	0	942.480	0	11.8	4	3.7	4	-1E+10	1	-1E+10	1	-1E+10	1	-1E+10	1	-1E+10	1	-1E+10	1
4902551	75	C	09/08/2022	23:14	-131.689	48.724	0	958.00	0	3.2140	0	34.3470	0	27.350	0	947.711	0	11.8	4	3.7	4	-1E+10	1	-1E+10	1	-1E+10	1	-1E+10	1	-1E+10	1	-1E+10	1
4902551	75	C	09/08/2022	23:14	-131.689	48.724	0	963.20	0	3.2130	0	34.3480	0	27.351	0	952.843	0	11.8	4	3.7	4	-1E+10	1	-1E+10	1	-1E+10	1	-1E+10	1	-1E+10	1	-1E+10	1
4902551	75	C	09/08/2022	23:14	-131.689	48.724	0	968.00	0	3.2060	0	34.3500	0	27.353	0	957.581	0	11.8	4	3.7	4	-1E+10	1	-1E+10	1	-1E+10	1	-1E+10	1	-1E+10	1	-1E+10	1
4902551	75	C	09/08/2022	23:14	-131.689	48.724	0	972.80	0	3.1870	0	34.3530	0	27.358	0	962.318	0	11.9	4	3.7	4	-1E+10	1	-1E+10	1	-1E+10	1	-1E+10	1	-1E+10	1	-1E+10	1
4902551	75	C	09/08/2022	23:14	-131.689	48.724	0	978.10	0	3.1640	0	34.3580	0	27.364	0	967.549	0	11.9	4	3.7	4	-1E+10	1	-1E+10	1	-1E+10	1	-1E+10	1	-1E+10	1	-1E+10	1
4902551	75	C	09/08/2022	23:14	-131.689	48.724	0	983.10	0	3.1600	0	34.3590	0	27.365	0	972.483	0	11.9	4	3.7	4	-1E+10	1	-1E+10	1	-1E+10	1	-1E+10	1	-1E+10	1	-1E+10	1
4902551	75	C	09/08/2022	23:14	-131.689	48.724	0	988.00	0	3.1580	0	34.3600	0	27.366	0	977.319	0	11.9	4	3.7	4	-1E+10	1	-1E+10	1	-1E+10	1	-1E+10	1	-1E+10	1	-1E+10	1
4902551	75	C	09/08/2022	23:14	-131.689	48.724	0	992.90	0	3.1560	0	34.3610	0	27.367	0	982.154	0	11.9	4	3.7	4	-1E+10	1	-1E+10	1	-1E+10	1	-1E+10	1	-1E+10	1	-1E+10	1
4902551	75	C	09/08/2022	23:14	-131.689	48.724	0	997.70	0	3.1500	0	34.3640	0	27.370	0	986.891	0	11.9	4	3.7	4	-1E+10	1	-1E+10	1	-1E+10	1	-1E+10	1	-1E+10	1	-1E+10	1
4902551	75	C	09/08/2022	23:14	-131.689	48.724	0	1005.40	0	3.1310	0	34.3680	0	27.375	0	994.489	0	11.9	4	3.7	4	-1E+10	1	-1E+10	1	-1E+10	1	-1E+10	1	-1E+10	1	-1E+10	1
4902551	75	C	09/08/2022	23:14	-131.689	48.724	0	1015.30	0	3.1050	0	34.3720	0	27.381	0	1004.258	0	11.9	4	3.7	4	-1E+10	1	-1E+10	1	-1E+10	1	-1E+10	1	-1E+10	1	-1E+10	1
4902551	75	C	09/08/2022	23:14	-131.689	48.724	0	1025.10	0	3.0910	0	34.3750	0	27.384	0	1013.928	0	11.9	4	3.7	4	-1E+10	1	-1E+10	1	-1E+10	1	-1E+10	1	-1E+10	1	-1E+10	1
4902551	75	C	09/08/2022	23:14	-131.689	48.724	0	1035.30	0	3.0680	0	34.3790	0	27.390	0	1023.992	0	12.0	4	3.7	4	-1E+10	1	-1E+10	1	-1E+10	1	-1E+10	1	-1E+10	1	-1E+10	1
4902551	75	C	09/08/2022	23:14	-131.689	48.724	0	1045.60	0	3.0360	0	34.3850	0	27.397	0	1034.154	0	12.1	4	3.7	4	-1E+10	1	-1E+10	1	-1E+10	1	-1E+10	1	-1E+10	1	-1E+10	1
4902551	75	C	09/08/2022	23:14	-131.689	48.724	0	1055.60	0	3.0050	0	34.3890	0	27.403	0	1044.020	0	12.2	4	3.8	4	-1E+10	1	-1E+10	1	-1E+10	1	-1E+10	1	-1E+10	1	-1E+10	1
4902551	75	C	09/08/2022	23:14	-131.689	48.724	0	1065.40	0	2.9840	0	34.3920	0	27.408	0	1053.688	0	12.2	4	3.8	4	-1E+10	1	-1E+10	1	-1E+10	1	-1E+10	1	-1E+10	1	-1E+10	1
4902551	75	C	09/08/2022	23:14	-131.689	48.724	0	1075.10	0	2.9750	0	34.3940	0	27.410	0	1063.256	0	12.4	4	3.8	4	-1E+10	1	-1E+10	1	-1E+10	1	-1E+10	1	-1E+10	1	-1E+10	1
4902551	75	C	09/08/2022	23:14	-131.689	48.724	0	1085.10	0	2.9590	0	34.3980	0	27.415	0	1073.121	0	12.4	4	3.8	4	-1E+10	1	-1E+10	1	-1E+10	1	-1E+10	1	-1E+10	1	-1E+10	1
4902551	75	C	09/08/2022	23:14	-131.689	48.724	0	1095.30	0	2.9530	0	34.3990	0	27.416	0	1083.182	0	12.4	4	3.8	4	-1E+10	1	-1E+10	1	-1E+10	1	-1E+10	1	-1E+10	1	-1E+10	1
4902551	75	C	09/08/2022	23:14	-131.689	48.724	0	1105.30	0	2.9420	0	34.4010	0	27.419	0	1093.045	0	12.5	4	3.9	4	-1E+10	1	-1E+10	1	-1E+10	1	-1E+10	1	-1E+10	1	-1E+10	1
4902551	75	C	09/08/2022	23:14	-131.689	48.724	0	1115.10	0	2.9220	0	34.4040	0	27.423	0	1102.711	0	12.6	4	3.9	4	-1E+10	1	-1E+10	1	-1E+10	1	-1E+10	1	-1E+10	1	-1E+10	1
4902551	75	C	09/08/2022	23:14	-131.689	48.724	0	1125.20	0	2.9160	0	34.4050	0	27.425	0	1112.672	0	12.7	4	3.9	4	-1E+10	1	-1E+10	1	-1E+10	1	-1E+10	1	-1E+10	1	-1E+10	1
4902551	75	C	09/08/2022	23:14	-131.689	48.724	0	1135.30	0	2.9030	0	34.4080	0	27.428	0	1122.632	0	12.8	4	3.9	4	-1E+10	1	-1E+10	1	-1E+10	1	-1E+10	1	-1E+10	1	-1E+10	1
4902551	75	C	09/08/2022	23:14	-131.689	48.724	0	1145.30	0	2.8910	0	34.4100	0	27.431	0	1132.494	0	12.9	4	4.0	4	-1E+10	1	-1E+10	1	-1E+10	1	-1E+10	1	-1E+10	1	-1E+10	1
4902551	75	C	09/08/2022	23:14	-131.689	48.724	0	1155.20	0	2.8770	0	34.4120	0	27.434	0	1142.256	0	13.0	4	4.0	4	-1E+10	1	-1E+10	1	-1E+10	1	-1E+10	1	-1E+10	1	-1E+10	1
4902551	75	C	09/08/2022	23:14	-131.689	48.724	0	1165.30	0	2.8670	0	34.4140	0	27.436	0	1152.215	0	13.2	4	4.1	4	-1E+10	1	-1E+10	1	-1E+10	1	-1E+10	1	-1E+10	1	-1E+10	1
4902551	75	C	09/08/2022	23:14	-131.689	48.724	0	1175.40	0	2.8520	0	34.4170	0	27.440	0	1162.174	0	13.4	4	4.1	4	-1E+10	1	-1E+10	1	-1E+10	1	-1E+10	1	-1E+10	1	-1E+10	1
4902551	75	C	09/08/2022	23:14	-131.689	48.724	0	1185.30	0	2.8390	0	34.4200	0	27.444	0	1171.935	0	13.6	4	4.2	4	-1E+10	1	-1E+10	1	-1E+10	1	-1E+10	1	-1E+10	1	-1E+10	1
4902551	75	C	09/08/2022	23:14	-131.689	48.724	0	1195.70	0	2.8170	0	34.4230	0	27.448	0	1182.189	0	13.7	4	4.2	4	-1E+10	1	-1E+10	1	-1E+10	1	-1E+10	1	-1E+10	1	-1E+10	1
4902551	75	C	09/08/2022	23:14	-131.689	48.724	0	1205.60	0	2.7940	0	34.4260	0	27.453	0	1191.949	0	13.9	4	4.3	4	-1E+10	1	-1E+10	1	-1E+10	1	-1E+10	1	-1E+10	1	-1E+10	1
4902551	75	C	09/08/2022	23:14	-131.689	48.724	0	1215.10	0	2.7650	0	34.4300	0	27.458	0	1201.314	0	14.1	4	4.3	4	-1E+10	1	-1E+10	1	-1E+10	1	-1E+10	1	-1E+10	1	-1E+10	1
4902551	75	C	09/08/2022	23:14	-131.689	48.724	0	1225.40	0	2.7470	0	34.4340	0	27.463	0	1211.468	0	14.4	4	4.4	4	-1E+10	1	-1E+10	1	-1E+10	1	-1E+10	1	-1E+10	1	-1E+10	1
4902551	75	C	09/08/2022	23:14	-131.689	48.724	0	1235.80	0	2.7280	0	34.4380	0	27.468	0	1221.719	0	14.6	4	4.5	4	-1E+10	1	-1E+10	1	-1E+10	1	-1E+10	1	-1E+10	1	-1E+10	1
4902551	75	C	09/08/2022	23:14	-131.689	48.724	0	1245.80	0	2.7080	0	34.4400	0	27.472	0	1231.576	0	14.7	4	4.5	4	-1E+10	1	-1E+10	1	-1E+10	1	-1E+10	1	-1E+10	1	-1E+10	1
4902551	75	C	09/08/2022	23:14	-131.689	48.724	0	1255.40	0	2.6900	0	34.4420	0	27.475	0	1241.038	0	14.8	4	4.5	4	-1E+10	1	-1E+10	1	-1E+10	1	-1E+10	1	-1E+10	1	-1E+10	1
4902551	75	C	09/08/2022	23:14	-131.689	48.724	0	1265.10	0	2.6810	0	34.4440	0	27.477	0	1250.598	0	15.1	4	4.6	4	-1E+10	1	-1E+10	1	-1E+10	1	-1E+10	1	-1E+10	1	-1E+10	1
4902551	75	C	09/08/2022	23:14	-131.689	48.724	0	1275.50	0	2.6650	0	34.4470	0	27.481	0	1260.848	0	15.5	4	4.7	4	-1E+10	1	-1E+10	1	-1E+10	1	-1E+10	1	-1E+10	1	-1E+10	1
4902551	75	C	09/08/2022	23:14	-131.689	48.724	0	1285.50	0	2.6490	0	34.4510	0	27.486	0	1270.703	0	15.8	4	4.8	4	-1E+10	1	-1E+10	1	-1E+10	1	-1E+10	1	-1E+10	1	-1E+10	1
4902551	75	C	09/08/2022	23:14	-131.689	48.724	0	1295.40	0	2.6340	0	34.4540	0	27.489	0	1280.459	0	16.2	4	5.0	4	-1E+10	1	-1E+10	1	-1E+10	1	-1E+10	1	-1E+10	1	-1E+10	1
4902551	75	C	09/08/2022	23:14	-131.689	48.724	0	1305.30	0	2.6180	0	34.4580	0	27.494	0	1290.214	0	16.6	4	5.1	4	-1E+10	1	-1E+10	1	-1E+10	1	-1E+10	1	-1E+10	1	-1E+10	1
4902551	75	C	09/08/2022	23:14	-131.689	48.724	0	1315.40	0	2.6000	0	34.4610	0	27.498	0	1300.166	0	16.9	4	5.2	4	-1E+10	1	-1E+10	1	-1E+10	1	-1E+10	1	-1E+10	1	-1E+10	1
4902551	75	C	09/08/2022	23:14	-131.689	48.724	0	1325.30	0	2.5770	0	34.4640	0	27.502	0	1309.921	0	17.1	4	5.2	4	-1E+10	1	-1E+10	1	-1E+10	1	-1E+10	1	-1E+10	1	-1E+10	1
4902551	75	C	09/08/2022	23:14	-131.689	48.724	0	1335.40	0	2.5670	0	34.4650	0	27.504	0	1319.872	0	17.3	4	5.3	4	-1E+10	1	-1E+10	1	-1E+10	1	-1E+10	1	-1E+10	1	-1E+10	1
4902551	75	C	09/08/2022	23:14	-131.689	48.724	0	1345.60	0	2.5530	0	34.4670	0	27.507	0	1329.921	0	17.7	4	5.4	4	-1E+10	1	-1E+10	1	-1E+10	1	-1E+10	1	-1E+10	1	-1E+10	1
4902551	75	C	09/08/2022	23:14	-131.689	48.724	0	1355.50	0	2.5350	0	34.4710	0	27.512	0	1339.675	0	18.1	4	5.5	4	-1E+10	1	-1E+10	1	-1E+10	1	-1E+10	1	-1E+10	1	-1E+10	1
4902551	75	C	09/08/2022	23:14	-131.689	48.724	0	1365.40	0	2.5250	0	34.4720	0	27.513	0	1349.427	0	18.3	4	5.6	4	-1E+10	1	-1E+10	1	-1E+10	1	-1E+10	1	-1E+10	1	-1E+10	1
4902551	75	C	09/08/2022	23:14	-131.689	48.724	0	1375.50	0	2.5210	0	34.4740	0	27.515	0	1359.377	0	18.7	4	5.7	4	-1E+10	1	-1E+10	1	-1E+10	1	-1E+10	1	-1E+10	1	-1E+10	1
4902551	75	C	09/08/2022	23:14	-131.689	48.724	0	1385.50	0	2.5060	0	34.4770	0	27.519	0	1369.227	0	19.4	4	5.9	4	-1E+10	1	-1E+10	1	-1E+10	1	-1E+10	1	-1E+10	1	-1E+10	1
4902551	75	C	09/08/2022	23:14	-131.689	48.724	0	1395.50	0	2.4880	0	34.4810	0	27.524	0	1379.077	0	19.9	4	6.1	4	-1E+10	1	-1E+10	1	-1E+10	1	-1E+10	1	-1E+10	1	-1E+10	1
4902551	75	C	09/08/2022	23:14	-131.689	48.724	0	1405.60	0	2.4780	0	34.4820	0	27.526	0	1389.025	0	20.3	4	6.2	4	-1E+10	1	-1E+10	1	-1E+10	1	-1E+10	1	-1E+10	1	-1E+10	1
4902551	75	C	09/08/2022	23:14	-131.689	48.724	0	1415.60	0	2.4660	0	34.4850	0	27.529	0	1398.874	0	20.7	4	6.3	4	-1E+10	1	-1E+10	1	-1E+10	1	-1E+10	1	-1E+10	1	-1E+10	1
4902551	75	C	09/08/2022	23:14	-131.689	48.724	0	1425.40	0	2.4580	0	34.4870	0	27.531	0	1408.525	0	21.2	4	6.5	4	-1E+10	1	-1E+10	1	-1E+10	1	-1E+10	1	-1E+10	1	-1E+10	1
4902551	75	C	09/08/2022	23:14	-131.689	48.724	0	1435.30	0	2.4470	0	34.4890	0	27.534	0	1418.275	0	21.9	4	6.7	4	-1E+10	1	-1E+10	1	-1E+10	1	-1E+10	1	-1E+10	1	-1E+10	1
4902551	75	C	09/08/2022	23:14	-131.689	48.724	0	1445.50	0	2.4290	0	34.4930	0	27.539	0	1428.319	0	22.8	4	6.9	4	-1E+10	1	-1E+10	1	-1E+10	1	-1E+10	1	-1E+10	1	-1E+10	1
4902551	75	C	09/08/2022	23:14	-131.689	48.724	0	1455.30	0	2.4110	0	34.4960	0	27.543	0	1437.970	0	23.5	4	7.2	4	-1E+10	1	-1E+10	1	-1E+10	1	-1E+10	1	-1E+10	1	-1E+10	1
4902551	75	C	09/08/2022	23:14	-131.689	48.724	0	1465.40	0	2.3970	0	34.4990	0	27.546	0	1447.915	0	24.2	4	7.4	4	-1E+10	1	-1E+10	1	-1E+10	1	-1E+10	1	-1E+10	1	-1E+10	1
4902551	75	C	09/08/2022	23:14	-131.689	48.724	0	1475.60	0	2.3860	0	34.5010	0	27.549	0	1457.958	0	24.5	4	7.5	4	-1E+10	1	-1E+10	1	-1E+10	1	-1E+10	1	-1E+10	1	-1E+10	1
4902551	75	C	09/08/2022	23:14	-131.689	48.724	0	1485.30	0	2.3810	0	34.5020	0	27.550	0	1467.508	0	25.0	4	7.6	4	-1E+10	1	-1E+10	1	-1E+10	1	-1E+10	1	-1E+10	1	-1E+10	1
4902551	75	C	09/08/2022	23:14	-131.689	48.724	0	1495.10	0	2.3660	0	34.5050	0	27.554	0	1477.157	0	25.6	4	7.8	4	-1E+10	1	-1E+10	1	-1E+10	1	-1E+10	1	-1E+10	1	-1E+10	1
4902551	75	C	09/08/2022	23:14	-131.689	48.724	0	1505.30	0	2.3510	0	34.5070	0	27.557	0	1487.198	0	26.2	4	8.0	4	-1E+10	1	-1E+10	1	-1E+10	1	-1E+10	1	-1E+10	1	-1E+10	1
4902551	75	C	09/08/2022	23:14	-131.689	48.724	0	1515.30	0	2.3380	0	34.5090	0	27.559	0	1497.043	0	26.7	4	8.1	4	-1E+10	1	-1E+10	1	-1E+10	1	-1E+10	1	-1E+10	1	-1E+10	1
4902551	75	C	09/08/2022	23:14	-131.689	48.724	0	1525.30	0	2.3190	0	34.5120	0	27.563	0	1506.887	0	27.0	4	8.2	4	-1E+10	1	-1E+10	1	-1E+10	1	-1E+10	1	-1E+10	1	-1E+10	1
4902551	75	C	09/08/2022	23:14	-131.689	48.724	0	1535.70	0	2.3160	0	34.5130	0	27.564	0	1517.124	0	27.1	4	8.2	4	-1E+10	1	-1E+10	1	-1E+10	1	-1E+10	1	-1E+10	1	-1E+10	1
4902551	75	C	09/08/2022	23:14	-131.689	48.724	0	1545.30	0	2.3150	0	34.5130	0	27.565	0	1526.573	0	27.3	4	8.3	4	-1E+10	1	-1E+10	1	-1E+10	1	-1E+10	1	-1E+10	1	-1E+10	1
4902551	75	C	09/08/2022	23:14	-131.689	48.724	0	1555.20	0	2.3110	0	34.5130	0	27.565	0	1536.317	0	27.8	4	8.5	4	-1E+10	1	-1E+10	1	-1E+10	1	-1E+10	1	-1E+10	1	-1E+10	1
4902551	75	C	09/08/2022	23:14	-131.689	48.724	0	1565.60	0	2.2940	0	34.5170	0	27.570	0	1546.553	0	28.6	4	8.7	4	-1E+10	1	-1E+10	1	-1E+10	1	-1E+10	1	-1E+10	1	-1E+10	1
4902551	75	C	09/08/2022	23:14	-131.689	48.724	0	1575.50	0	2.2860	0	34.5180	0	27.571	0	1556.296	0	29.1	4	8.8	4	-1E+10	1	-1E+10	1	-1E+10	1	-1E+10	1	-1E+10	1	-1E+10	1
4902551	75	C	09/08/2022	23:14	-131.689	48.724	0	1585.40	0	2.2680	0	34.5210	0	27.575	0	1566.039	0	30.3	4	9.2	4	-1E+10	1	-1E+10	1	-1E+10	1	-1E+10	1	-1E+10	1	-1E+10	1
4902551	75	C	09/08/2022	23:14	-131.689	48.724	0	1595.30	0	2.2500	0	34.5250	0	27.580	0	1575.781	0	31.5	4	9.5	4	-1E+10	1	-1E+10	1	-1E+10	1	-1E+10	1	-1E+10	1	-1E+10	1
4902551	75	C	09/08/2022	23:14	-131.689	48.724	0	1605.20	0	2.2390	0	34.5270	0	27.582	0	1585.523	0	32.2	4	9.8	4	-1E+10	1	-1E+10	1	-1E+10	1	-1E+10	1	-1E+10	1	-1E+10	1
4902551	75	C	09/08/2022	23:14	-131.689	48.724	0	1615.60	0	2.2210	0	34.5300	0	27.586	0	1595.756	0	33.2	4	10.1	4	-1E+10	1	-1E+10	1	-1E+10	1	-1E+10	1	-1E+10	1	-1E+10	1
4902551	75	C	09/08/2022	23:14	-131.689	48.724	0	1625.30	0	2.2130	0	34.5330	0	27.589	0	1605.300	0	33.8	4	10.2	4	-1E+10	1	-1E+10	1	-1E+10	1	-1E+10	1	-1E+10	1	-1E+10	1
4902551	75	C	09/08/2022	23:14	-131.689	48.724	0	1635.30	0	2.2020	0	34.5340	0	27.591	0	1615.139	0	34.3	4	10.4	4	-1E+10	1	-1E+10	1	-1E+10	1	-1E+10	1	-1E+10	1	-1E+10	1
4902551	75	C	09/08/2022	23:14	-131.689	48.724	0	1645.60	0	2.1900	0	34.5360	0	27.594	0	1625.273	0	34.8	4	10.5	4	-1E+10	1	-1E+10	1	-1E+10	1	-1E+10	1	-1E+10	1	-1E+10	1
4902551	75	C	09/08/2022	23:14	-131.689	48.724	0	1655.30	0	2.1820	0	34.5370	0	27.595	0	1634.815	0	35.1	4	10.6	4	-1E+10	1	-1E+10	1	-1E+10	1	-1E+10	1	-1E+10	1	-1E+10	1
4902551	75	C	09/08/2022	23:14	-131.689	48.724	0	1665.10	0	2.1680	0	34.5390	0	27.598	0	1644.456	0	35.3	4	10.7	4	-1E+10	1	-1E+10	1	-1E+10	1	-1E+10	1	-1E+10	1	-1E+10	1
4902551	75	C	09/08/2022	23:14	-131.689	48.724	0	1675.30	0	2.1660	0	34.5390	0	27.598	0	1654.490	0	35.7	4	10.8	4	-1E+10	1	-1E+10	1	-1E+10	1	-1E+10	1	-1E+10	1	-1E+10	1
4902551	75	C	09/08/2022	23:14	-131.689	48.724	0	1685.30	0	2.1560	0	34.5410	0	27.601	0	1664.326	0	36.7	4	11.1	4	-1E+10	1	-1E+10	1	-1E+10	1	-1E+10	1	-1E+10	1	-1E+10	1
4902551	75	C	09/08/2022	23:14	-131.689	48.724	0	1695.10	0	2.1390	0	34.5440	0	27.604	0	1673.966	0	37.7	4	11.4	4	-1E+10	1	-1E+10	1	-1E+10	1	-1E+10	1	-1E+10	1	-1E+10	1
4902551	75	C	09/08/2022	23:14	-131.689	48.724	0	1705.40	0	2.1240	0	34.5470	0	27.608	0	1684.096	0	38.6	4	11.7	4	-1E+10	1	-1E+10	1	-1E+10	1	-1E+10	1	-1E+10	1	-1E+10	1
4902551	75	C	09/08/2022	23:14	-131.689	48.724	0	1715.40	0	2.1090	0	34.5490	0	27.611	0	1693.932	0	39.2	4	11.9	4	-1E+10	1	-1E+10	1	-1E+10	1	-1E+10	1	-1E+10	1	-1E+10	1
4902551	75	C	09/08/2022	23:14	-131.689	48.724	0	1725.60	0	2.1040	0	34.5510	0	27.613	0	1703.963	0	39.5	4	11.9	4	-1E+10	1	-1E+10	1	-1E+10	1	-1E+10	1	-1E+10	1	-1E+10	1
4902551	75	C	09/08/2022	23:14	-131.689	48.724	0	1735.60	0	2.1030	0	34.5510	0	27.613	0	1713.797	0	39.7	4	12.0	4	-1E+10	1	-1E+10	1	-1E+10	1	-1E+10	1	-1E+10	1	-1E+10	1
4902551	75	C	09/08/2022	23:14	-131.689	48.724	0	1745.60	0	2.1010	0	34.5520	0	27.614	0	1723.631	0	40.4	4	12.2	4	-1E+10	1	-1E+10	1	-1E+10	1	-1E+10	1	-1E+10	1	-1E+10	1
4902551	75	C	09/08/2022	23:14	-131.689	48.724	0	1755.50	0	2.0870	0	34.5540	0	27.617	0	1733.366	0	41.5	4	12.5	4	-1E+10	1	-1E+10	1	-1E+10	1	-1E+10	1	-1E+10	1	-1E+10	1
4902551	75	C	09/08/2022	23:14	-131.689	48.724	0	1765.60	0	2.0760	0	34.5560	0	27.619	0	1743.297	0	42.1	4	12.7	4	-1E+10	1	-1E+10	1	-1E+10	1	-1E+10	1	-1E+10	1	-1E+10	1
4902551	75	C	09/08/2022	23:14	-131.689	48.724	0	1775.50	0	2.0680	0	34.5570	0	27.621	0	1753.031	0	42.8	4	12.9	4	-1E+10	1	-1E+10	1	-1E+10	1	-1E+10	1	-1E+10	1	-1E+10	1
4902551	75	C	09/08/2022	23:14	-131.689	48.724	0	1785.20	0	2.0600	0	34.5590	0	27.623	0	1762.568	0	43.4	4	13.1	4	-1E+10	1	-1E+10	1	-1E+10	1	-1E+10	1	-1E+10	1	-1E+10	1
4902551	75	C	09/08/2022	23:14	-131.689	48.724	0	1795.10	0	2.0540	0	34.5600	0	27.624	0	1772.302	0	43.9	4	13.3	4	-1E+10	1	-1E+10	1	-1E+10	1	-1E+10	1	-1E+10	1	-1E+10	1
4902551	75	C	09/08/2022	23:14	-131.689	48.724	0	1805.30	0	2.0470	0	34.5620	0	27.627	0	1782.329	0	44.7	4	13.5	4	-1E+10	1	-1E+10	1	-1E+10	1	-1E+10	1	-1E+10	1	-1E+10	1
4902551	75	C	09/08/2022	23:14	-131.689	48.724	0	1815.50	0	2.0360	0	34.5640	0	27.629	0	1792.356	0	45.5	4	13.7	4	-1E+10	1	-1E+10	1	-1E+10	1	-1E+10	1	-1E+10	1	-1E+10	1
4902551	75	C	09/08/2022	23:14	-131.689	48.724	0	1825.50	0	2.0290	0	34.5650	0	27.631	0	1802.187	0	46.1	4	13.9	4	-1E+10	1	-1E+10	1	-1E+10	1	-1E+10	1	-1E+10	1	-1E+10	1
4902551	75	C	09/08/2022	23:14	-131.689	48.724	0	1835.60	0	2.0180	0	34.5670	0	27.633	0	1812.115	0	46.7	4	14.1	4	-1E+10	1	-1E+10	1	-1E+10	1	-1E+10	1	-1E+10	1	-1E+10	1
4902551	75	C	09/08/2022	23:14	-131.689	48.724	0	1845.40	0	2.0150	0	34.5680	0	27.634	0	1821.747	0	47.3	4	14.3	4	-1E+10	1	-1E+10	1	-1E+10	1	-1E+10	1	-1E+10	1	-1E+10	1
4902551	75	C	09/08/2022	23:14	-131.689	48.724	0	1855.00	0	2.0070	0	34.5700	0	27.636	0	1831.183	0	48.0	4	14.5	4	-1E+10	1	-1E+10	1	-1E+10	1	-1E+10	1	-1E+10	1	-1E+10	1
4902551	75	C	09/08/2022	23:14	-131.689	48.724	0	1865.50	0	1.9980	0	34.5710	0	27.638	0	1841.503	0	48.6	4	14.6	4	-1E+10	1	-1E+10	1	-1E+10	1	-1E+10	1	-1E+10	1	-1E+10	1
4902551	75	C	09/08/2022	23:14	-131.689	48.724	0	1875.50	0	1.9940	0	34.5720	0	27.639	0	1851.331	0	49.0	4	14.8	4	-1E+10	1	-1E+10	1	-1E+10	1	-1E+10	1	-1E+10	1	-1E+10	1
4902551	75	C	09/08/2022	23:14	-131.689	48.724	0	1885.50	0	1.9900	0	34.5730	0	27.640	0	1861.158	0	49.5	4	14.9	4	-1E+10	1	-1E+10	1	-1E+10	1	-1E+10	1	-1E+10	1	-1E+10	1
4902551	75	C	09/08/2022	23:14	-131.689	48.724	0	1895.40	0	1.9810	0	34.5750	0	27.643	0	1870.887	0	50.2	4	15.1	4	-1E+10	1	-1E+10	1	-1E+10	1	-1E+10	1	-1E+10	1	-1E+10	1
4902551	75	C	09/08/2022	23:14	-131.689	48.724	0	1905.70	0	1.9740	0	34.5760	0	27.644	0	1881.008	0	50.9	4	15.3	4	-1E+10	1	-1E+10	1	-1E+10	1	-1E+10	1	-1E+10	1	-1E+10	1
4902551	75	C	09/08/2022	23:14	-131.689	48.724	0	1915.40	0	1.9640	0	34.5780	0	27.646	0	1890.539	0	51.9	4	15.6	4	-1E+10	1	-1E+10	1	-1E+10	1	-1E+10	1	-1E+10	1	-1E+10	1
4902551	75	C	09/08/2022	23:14	-131.689	48.724	0	1925.10	0	1.9530	0	34.5800	0	27.649	0	1900.070	0	52.8	4	15.9	4	-1E+10	1	-1E+10	1	-1E+10	1	-1E+10	1	-1E+10	1	-1E+10	1
4902551	75	C	09/08/2022	23:14	-131.689	48.724	0	1935.20	0	1.9460	0	34.5820	0	27.651	0	1909.993	0	53.5	4	16.1	4	-1E+10	1	-1E+10	1	-1E+10	1	-1E+10	1	-1E+10	1	-1E+10	1
4902551	75	C	09/08/2022	23:14	-131.689	48.724	0	1945.20	0	1.9380	0	34.5830	0	27.653	0	1919.818	0	54.1	4	16.3	4	-1E+10	1	-1E+10	1	-1E+10	1	-1E+10	1	-1E+10	1	-1E+10	1
4902551	75	C	09/08/2022	23:14	-131.689	48.724	0	1955.40	0	1.9330	0	34.5840	0	27.654	0	1929.839	0	54.4	4	16.4	4	-1E+10	1	-1E+10	1	-1E+10	1	-1E+10	1	-1E+10	1	-1E+10	1
4902551	75	C	09/08/2022	23:14	-131.689	48.724	0	1965.60	0	1.9300	0	34.5850	0	27.655	0	1939.859	0	54.9	4	16.5	4	-1E+10	1	-1E+10	1	-1E+10	1	-1E+10	1	-1E+10	1	-1E+10	1
4902551	75	C	09/08/2022	23:14	-131.689	48.724	0	1975.40	0	1.9250	0	34.5860	0	27.656	0	1949.486	0	55.3	4	16.6	4	-1E+10	1	-1E+10	1	-1E+10	1	-1E+10	1	-1E+10	1	-1E+10	1
4902551	75	C	09/08/2022	23:14	-131.689	48.724	0	1985.30	0	1.9220	0	34.5860	0	27.656	0	1959.211	0	55.6	4	16.7	4	-1E+10	1	-1E+10	1	-1E+10	1	-1E+10	1	-1E+10	1	-1E+10	1
4902551	75	C	09/08/2022	23:14	-131.689	48.724	0	1995.40	0	1.9200	0	34.5870	0	27.658	0	1969.131	0	55.9	4	16.8	4	-1E+10	1	-1E+10	1	-1E+10	1	-1E+10	1	-1E+10	1	-1E+10	1
4902551	75	C	09/08/2022	23:14	-131.689	48.724	0	2005.50	0	1.9150	0	34.5880	0	27.659	0	1979.051	0	56.2	4	16.9	4	-1E+10	1	-1E+10	1	-1E+10	1	-1E+10	1	-1E+10	1	-1E+10	1
4902551	75	C	09/08/2022	23:14	-131.689	48.724	0	2015.70	0	1.9140	0	34.5880	0	27.659	0	1989.069	0	56.3	4	16.9	4	-1E+10	1	-1E+10	1	-1E+10	1	-1E+10	1	-1E+10	1	-1E+10	1
4902551	75	C	09/08/2022	23:14	-131.689	48.724	0	2025.80	0	1.9110	0	34.5890	0	27.660	0	1998.989	0	56.6	4	17.0	4	-1E+10	1	-1E+10	1	-1E+10	1	-1E+10	1	-1E+10	1	-1E+10	1
4902551	75	C	09/08/2022	23:14	-131.689	48.724	0	2034.00	0	1.9070	0	34.5900	0	27.661	0	2007.041	0	56.5	4	17.0	4	-1E+10	1	-1E+10	1	-1E+10	1	-1E+10	1	-1E+10	1	-1E+10	1
4902551	75	C	09/08/2022	23:14	-131.689	48.724	0																										
4902551	76	C	09/19/2022	04:19	-131.761	48.654	0	0.00	0	16.4680	0	32.2290	0	23.512	0	0.000	0	-1e10	1	-1e10	1	-1E+10	1	-1E+10	1	-1E+10	1	-1E+10	1	-1E+10	1	-1E+10	1
4902551	76	C	09/19/2022	04:19	-131.761	48.654	0	0.20	0	16.4810	0	32.2250	0	23.506	0	0.198	0	236.1	4	96.2	4	-1E+10	1	-1E+10	1	-1E+10	1	-1E+10	1	-1E+10	1	-1E+10	1
4902551	76	C	09/19/2022	04:19	-131.761	48.654	0	0.40	0	16.4815	0	32.2245	0	23.506	0	0.397	0	236.1	4	96.2	4	-1E+10	1	-1E+10	1	-1E+10	1	-1E+10	1	-1E+10	1	-1E+10	1
4902551	76	C	09/19/2022	04:19	-131.761	48.654	0	1.00	0	16.4830	0	32.2230	0	23.504	0	0.992	0	236.2	4	96.2	4	-1E+10	1	-1E+10	1	-1E+10	1	-1E+10	1	-1E+10	1	-1E+10	1
4902551	76	C	09/19/2022	04:19	-131.761	48.654	0	2.30	0	16.4850	0	32.2200	0	23.502	0	2.281	0	236.1	4	96.2	4	-1E+10	1	-1E+10	1	-1E+10	1	-1E+10	1	-1E+10	1	-1E+10	1
4902551	76	C	09/19/2022	04:19	-131.761	48.654	0	3.10	0	16.4840	0	32.2210	0	23.503	0	3.074	0	236.1	4	96.2	4	-1E+10	1	-1E+10	1	-1E+10	1	-1E+10	1	-1E+10	1	-1E+10	1
4902551	76	C	09/19/2022	04:19	-131.761	48.654	0	3.80	0	16.4830	0	32.2230	0	23.504	0	3.768	0	236.2	4	96.2	4	-1E+10	1	-1E+10	1	-1E+10	1	-1E+10	1	-1E+10	1	-1E+10	1
4902551	76	C	09/19/2022	04:19	-131.761	48.654	0	5.00	0	16.4800	0	32.2260	0	23.507	0	4.958	0	236.2	4	96.2	4	-1E+10	1	-1E+10	1	-1E+10	1	-1E+10	1	-1E+10	1	-1E+10	1
4902551	76	C	09/19/2022	04:19	-131.761	48.654	0	6.00	0	16.4810	0	32.2260	0	23.507	0	5.949	0	236.3	4	96.3	4	-1E+10	1	-1E+10	1	-1E+10	1	-1E+10	1	-1E+10	1	-1E+10	1
4902551	76	C	09/19/2022	04:19	-131.761	48.654	0	6.90	0	16.4850	0	32.2260	0	23.506	0	6.842	0	236.3	4	96.3	4	-1E+10	1	-1E+10	1	-1E+10	1	-1E+10	1	-1E+10	1	-1E+10	1
4902551	76	C	09/19/2022	04:19	-131.761	48.654	0	7.90	0	16.4850	0	32.2260	0	23.506	0	7.833	0	236.3	4	96.3	4	-1E+10	1	-1E+10	1	-1E+10	1	-1E+10	1	-1E+10	1	-1E+10	1
4902551	76	C	09/19/2022	04:19	-131.761	48.654	0	8.90	0	16.4850	0	32.2250	0	23.506	0	8.825	0	236.5	4	96.4	4	-1E+10	1	-1E+10	1	-1E+10	1	-1E+10	1	-1E+10	1	-1E+10	1
4902551	76	C	09/19/2022	04:19	-131.761	48.654	0	10.10	0	16.4860	0	32.2260	0	23.506	0	10.014	0	236.7	4	96.5	4	-1E+10	1	-1E+10	1	-1E+10	1	-1E+10	1	-1E+10	1	-1E+10	1
4902551	76	C	09/19/2022	04:19	-131.761	48.654	0	11.00	0	16.4860	0	32.2260	0	23.506	0	10.907	0	236.8	4	96.5	4	-1E+10	1	-1E+10	1	-1E+10	1	-1E+10	1	-1E+10	1	-1E+10	1
4902551	76	C	09/19/2022	04:19	-131.761	48.654	0	12.10	0	16.4860	0	32.2260	0	23.506	0	11.997	0	236.9	4	96.5	4	-1E+10	1	-1E+10	1	-1E+10	1	-1E+10	1	-1E+10	1	-1E+10	1
4902551	76	C	09/19/2022	04:19	-131.761	48.654	0	12.80	0	16.4860	0	32.2260	0	23.506	0	12.691	0	236.9	4	96.6	4	-1E+10	1	-1E+10	1	-1E+10	1	-1E+10	1	-1E+10	1	-1E+10	1
4902551	76	C	09/19/2022	04:19	-131.761	48.654	0	13.90	0	16.4880	0	32.2250	0	23.505	0	13.782	0	237.1	4	96.6	4	-1E+10	1	-1E+10	1	-1E+10	1	-1E+10	1	-1E+10	1	-1E+10	1
4902551	76	C	09/19/2022	04:19	-131.761	48.654	0	15.00	0	16.4890	0	32.2260	0	23.506	0	14.873	0	237.3	4	96.7	4	-1E+10	1	-1E+10	1	-1E+10	1	-1E+10	1	-1E+10	1	-1E+10	1
4902551	76	C	09/19/2022	04:19	-131.761	48.654	0	15.80	0	16.4900	0	32.2250	0	23.505	0	15.666	0	237.4	4	96.8	4	-1E+10	1	-1E+10	1	-1E+10	1	-1E+10	1	-1E+10	1	-1E+10	1
4902551	76	C	09/19/2022	04:19	-131.761	48.654	0	16.90	0	16.4890	0	32.2260	0	23.506	0	16.756	0	237.5	4	96.8	4	-1E+10	1	-1E+10	1	-1E+10	1	-1E+10	1	-1E+10	1	-1E+10	1
4902551	76	C	09/19/2022	04:19	-131.761	48.654	0	18.00	0	16.4880	0	32.2270	0	23.507	0	17.847	0	237.8	4	96.9	4	-1E+10	1	-1E+10	1	-1E+10	1	-1E+10	1	-1E+10	1	-1E+10	1
4902551	76	C	09/19/2022	04:19	-131.761	48.654	0	19.00	0	16.4880	0	32.2240	0	23.505	0	18.839	0	238.0	4	97.0	4	-1E+10	1	-1E+10	1	-1E+10	1	-1E+10	1	-1E+10	1	-1E+10	1
4902551	76	C	09/19/2022	04:19	-131.761	48.654	0	20.10	0	16.4830	0	32.2260	0	23.507	0	19.929	0	238.5	4	97.2	4	-1E+10	1	-1E+10	1	-1E+10	1	-1E+10	1	-1E+10	1	-1E+10	1
4902551	76	C	09/19/2022	04:19	-131.761	48.654	0	20.80	0	16.4830	0	32.2260	0	23.507	0	20.623	0	238.8	4	97.3	4	-1E+10	1	-1E+10	1	-1E+10	1	-1E+10	1	-1E+10	1	-1E+10	1
4902551	76	C	09/19/2022	04:19	-131.761	48.654	0	21.90	0	16.4830	0	32.2250	0	23.507	0	21.714	0	239.3	4	97.5	4	-1E+10	1	-1E+10	1	-1E+10	1	-1E+10	1	-1E+10	1	-1E+10	1
4902551	76	C	09/19/2022	04:19	-131.761	48.654	0	23.00	0	16.4820	0	32.2240	0	23.506	0	22.804	0	239.9	4	97.8	4	-1E+10	1	-1E+10	1	-1E+10	1	-1E+10	1	-1E+10	1	-1E+10	1
4902551	76	C	09/19/2022	04:19	-131.761	48.654	0	24.00	0	16.4870	0	32.2250	0	23.506	0	23.796	0	240.7	4	98.1	4	-1E+10	1	-1E+10	1	-1E+10	1	-1E+10	1	-1E+10	1	-1E+10	1
4902551	76	C	09/19/2022	04:19	-131.761	48.654	0	25.10	0	16.4840	0	32.2260	0	23.507	0	24.886	0	241.5	4	98.4	4	-1E+10	1	-1E+10	1	-1E+10	1	-1E+10	1	-1E+10	1	-1E+10	1
4902551	76	C	09/19/2022	04:19	-131.761	48.654	0	25.80	0	16.4840	0	32.2240	0	23.506	0	25.580	0	242.3	4	98.7	4	-1E+10	1	-1E+10	1	-1E+10	1	-1E+10	1	-1E+10	1	-1E+10	1
4902551	76	C	09/19/2022	04:19	-131.761	48.654	0	26.80	0	16.4620	0	32.2240	0	23.511	0	26.572	0	243.3	4	99.1	4	-1E+10	1	-1E+10	1	-1E+10	1	-1E+10	1	-1E+10	1	-1E+10	1
4902551	76	C	09/19/2022	04:19	-131.761	48.654	0	27.80	0	16.4540	0	32.2230	0	23.512	0	27.563	0	245.2	4	99.9	4	-1E+10	1	-1E+10	1	-1E+10	1	-1E+10	1	-1E+10	1	-1E+10	1
4902551	76	C	09/19/2022	04:19	-131.761	48.654	0	29.10	0	16.4290	0	32.2010	0	23.501	0	28.852	0	256.1	4	104.2	4	-1E+10	1	-1E+10	1	-1E+10	1	-1E+10	1	-1E+10	1	-1E+10	1
4902551	76	C	09/19/2022	04:19	-131.761	48.654	0	29.90	0	15.5810	0	32.2730	0	23.746	0	29.645	0	263.1	4	105.4	4	-1E+10	1	-1E+10	1	-1E+10	1	-1E+10	1	-1E+10	1	-1E+10	1
4902551	76	C	09/19/2022	04:19	-131.761	48.654	0	31.00	0	14.0860	0	32.2690	0	24.061	0	30.736	0	270.3	4	105.1	4	-1E+10	1	-1E+10	1	-1E+10	1	-1E+10	1	-1E+10	1	-1E+10	1
4902551	76	C	09/19/2022	04:19	-131.761	48.654	0	31.90	0	13.8030	0	32.2720	0	24.122	0	31.628	0	273.1	4	105.6	4	-1E+10	1	-1E+10	1	-1E+10	1	-1E+10	1	-1E+10	1	-1E+10	1
4902551	76	C	09/19/2022	04:19	-131.761	48.654	0	32.80	0	13.1130	0	32.2930	0	24.276	0	32.520	0	276.1	4	105.3	4	-1E+10	1	-1E+10	1	-1E+10	1	-1E+10	1	-1E+10	1	-1E+10	1
4902551	76	C	09/19/2022	04:19	-131.761	48.654	0	33.90	0	12.6700	0	32.2980	0	24.366	0	33.611	0	276.9	4	104.6	4	-1E+10	1	-1E+10	1	-1E+10	1	-1E+10	1	-1E+10	1	-1E+10	1
4902551	76	C	09/19/2022	04:19	-131.761	48.654	0	34.90	0	12.5680	0	32.2950	0	24.383	0	34.602	0	277.2	4	104.5	4	-1E+10	1	-1E+10	1	-1E+10	1	-1E+10	1	-1E+10	1	-1E+10	1
4902551	76	C	09/19/2022	04:19	-131.761	48.654	0	36.00	0	12.3560	0	32.3190	0	24.442	0	35.693	0	277.7	4	104.3	4	-1E+10	1	-1E+10	1	-1E+10	1	-1E+10	1	-1E+10	1	-1E+10	1
4902551	76	C	09/19/2022	04:19	-131.761	48.654	0	36.90	0	12.1510	0	32.2990	0	24.465	0	36.585	0	277.6	4	103.8	4	-1E+10	1	-1E+10	1	-1E+10	1	-1E+10	1	-1E+10	1	-1E+10	1
4902551	76	C	09/19/2022	04:19	-131.761	48.654	0	38.20	0	12.0400	0	32.3040	0	24.490	0	37.874	0	277.2	4	103.4	4	-1E+10	1	-1E+10	1	-1E+10	1	-1E+10	1	-1E+10	1	-1E+10	1
4902551	76	C	09/19/2022	04:19	-131.761	48.654	0	38.80	0	11.9770	0	32.2990	0	24.498	0	38.468	0	276.9	4	103.1	4	-1E+10	1	-1E+10	1	-1E+10	1	-1E+10	1	-1E+10	1	-1E+10	1
4902551	76	C	09/19/2022	04:19	-131.761	48.654	0	40.00	0	11.6670	0	32.2970	0	24.553	0	39.658	0	276.2	4	102.2	4	-1E+10	1	-1E+10	1	-1E+10	1	-1E+10	1	-1E+10	1	-1E+10	1
4902551	76	C	09/19/2022	04:19	-131.761	48.654	0	41.10	0	11.2990	0	32.3030	0	24.624	0	40.749	0	275.3	4	101.1	4	-1E+10	1	-1E+10	1	-1E+10	1	-1E+10	1	-1E+10	1	-1E+10	1
4902551	76	C	09/19/2022	04:19	-131.761	48.654	0	41.90	0	11.0420	0	32.3090	0	24.675	0	41.542	0	274.5	4	100.3	4	-1E+10	1	-1E+10	1	-1E+10	1	-1E+10	1	-1E+10	1	-1E+10	1
4902551	76	C	09/19/2022	04:19	-131.761	48.654	0	43.10	0	10.6070	0	32.3070	0	24.749	0	42.731	0	274.0	4	99.1	4	-1E+10	1	-1E+10	1	-1E+10	1	-1E+10	1	-1E+10	1	-1E+10	1
4902551	76	C	09/19/2022	04:19	-131.761	48.654	0	44.00	0	10.3760	0	32.3190	0	24.797	0	43.624	0	274.1	4	98.7	4	-1E+10	1	-1E+10	1	-1E+10	1	-1E+10	1	-1E+10	1	-1E+10	1
4902551	76	C	09/19/2022	04:19	-131.761	48.654	0	44.80	0	10.3370	0	32.3170	0	24.802	0	44.417	0	273.5	4	98.4	4	-1E+10	1	-1E+10	1	-1E+10	1	-1E+10	1	-1E+10	1	-1E+10	1
4902551	76	C	09/19/2022	04:19	-131.761	48.654	0	46.00	0	10.2860	0	32.3180	0	24.812	0	45.606	0	272.9	4	98.1	4	-1E+10	1	-1E+10	1	-1E+10	1	-1E+10	1	-1E+10	1	-1E+10	1
4902551	76	C	09/19/2022	04:19	-131.761	48.654	0	47.10	0	10.1570	0	32.3220	0	24.837	0	46.697	0	272.4	4	97.6	4	-1E+10	1	-1E+10	1	-1E+10	1	-1E+10	1	-1E+10	1	-1E+10	1
4902551	76	C	09/19/2022	04:19	-131.761	48.654	0	48.00	0	10.0360	0	32.3180	0	24.854	0	47.589	0	272.3	4	97.3	4	-1E+10	1	-1E+10	1	-1E+10	1	-1E+10	1	-1E+10	1	-1E+10	1
4902551	76	C	09/19/2022	04:19	-131.761	48.654	0	48.90	0	9.8340	0	32.3350	0	24.900	0	48.481	0	272.4	4	96.9	4	-1E+10	1	-1E+10	1	-1E+10	1	-1E+10	1	-1E+10	1	-1E+10	1
4902551	76	C	09/19/2022	04:19	-131.761	48.654	0	50.10	0	9.7420	0	32.3320	0	24.913	0	49.671	0	272.2	4	96.7	4	-1E+10	1	-1E+10	1	-1E+10	1	-1E+10	1	-1E+10	1	-1E+10	1
4902551	76	C	09/19/2022	04:19	-131.761	48.654	0	50.90	0	9.6600	0	32.3350	0	24.929	0	50.464	0	271.9	4	96.4	4	-1E+10	1	-1E+10	1	-1E+10	1	-1E+10	1	-1E+10	1	-1E+10	1
4902551	76	C	09/19/2022	04:19	-131.761	48.654	0	52.10	0	9.5440	0	32.3360	0	24.948	0	51.653	0	271.5	4	96.1	4	-1E+10	1	-1E+10	1	-1E+10	1	-1E+10	1	-1E+10	1	-1E+10	1
4902551	76	C	09/19/2022	04:19	-131.761	48.654	0	53.10	0	9.4840	0	32.3380	0	24.959	0	52.644	0	271.2	4	95.8	4	-1E+10	1	-1E+10	1	-1E+10	1	-1E+10	1	-1E+10	1	-1E+10	1
4902551	76	C	09/19/2022	04:19	-131.761	48.654	0	54.10	0	9.4280	0	32.3350	0	24.966	0	53.636	0	270.8	4	95.5	4	-1E+10	1	-1E+10	1	-1E+10	1	-1E+10	1	-1E+10	1	-1E+10	1
4902551	76	C	09/19/2022	04:19	-131.761	48.654	0	55.00	0	9.3430	0	32.3390	0	24.983	0	54.528	0	270.3	4	95.2	4	-1E+10	1	-1E+10	1	-1E+10	1	-1E+10	1	-1E+10	1	-1E+10	1
4902551	76	C	09/19/2022	04:19	-131.761	48.654	0	56.00	0	9.1760	0	32.3490	0	25.017	0	55.519	0	270.3	4	94.9	4	-1E+10	1	-1E+10	1	-1E+10	1	-1E+10	1	-1E+10	1	-1E+10	1
4902551	76	C	09/19/2022	04:19	-131.761	48.654	0	57.20	0	8.9440	0	32.3590	0	25.061	0	56.709	0	270.4	4	94.4	4	-1E+10	1	-1E+10	1	-1E+10	1	-1E+10	1	-1E+10	1	-1E+10	1
4902551	76	C	09/19/2022	04:19	-131.761	48.654	0	57.80	0	8.8730	0	32.3610	0	25.073	0	57.304	0	270.3	4	94.2	4	-1E+10	1	-1E+10	1	-1E+10	1	-1E+10	1	-1E+10	1	-1E+10	1
4902551	76	C	09/19/2022	04:19	-131.761	48.654	0	58.70	0	8.8300	0	32.3620	0	25.080	0	58.196	0	270.0	4	94.0	4	-1E+10	1	-1E+10	1	-1E+10	1	-1E+10	1	-1E+10	1	-1E+10	1
4902551	76	C	09/19/2022	04:19	-131.761	48.654	0	59.70	0	8.7500	0	32.3710	0	25.100	0	59.187	0	269.8	4	93.8	4	-1E+10	1	-1E+10	1	-1E+10	1	-1E+10	1	-1E+10	1	-1E+10	1
4902551	76	C	09/19/2022	04:19	-131.761	48.654	0	60.70	0	8.6020	0	32.3870	0	25.135	0	60.178	0	269.6	4	93.4	4	-1E+10	1	-1E+10	1	-1E+10	1	-1E+10	1	-1E+10	1	-1E+10	1
4902551	76	C	09/19/2022	04:19	-131.761	48.654	0	61.70	0	8.5660	0	32.3780	0	25.133	0	61.169	0	269.3	4	93.3	4	-1E+10	1	-1E+10	1	-1E+10	1	-1E+10	1	-1E+10	1	-1E+10	1
4902551	76	C	09/19/2022	04:19	-131.761	48.654	0	62.80	0	8.4670	0	32.3840	0	25.153	0	62.260	0	269.1	4	93.0	4	-1E+10	1	-1E+10	1	-1E+10	1	-1E+10	1	-1E+10	1	-1E+10	1
4902551	76	C	09/19/2022	04:19	-131.761	48.654	0	63.90	0	8.3680	0	32.3810	0	25.165	0	63.350	0	269.1	4	92.8	4	-1E+10	1	-1E+10	1	-1E+10	1	-1E+10	1	-1E+10	1	-1E+10	1
4902551	76	C	09/19/2022	04:19	-131.761	48.654	0	64.90	0	8.3320	0	32.3840	0	25.173	0	64.341	0	268.8	4	92.6	4	-1E+10	1	-1E+10	1	-1E+10	1	-1E+10	1	-1E+10	1	-1E+10	1
4902551	76	C	09/19/2022	04:19	-131.761	48.654	0	65.90	0	8.2370	0	32.3850	0	25.187	0	65.333	0	268.8	4	92.4	4	-1E+10	1	-1E+10	1	-1E+10	1	-1E+10	1	-1E+10	1	-1E+10	1
4902551	76	C	09/19/2022	04:19	-131.761	48.654	0	67.10	0	8.1080	0	32.3930	0	25.213	0	66.522	0	268.4	4	92.0	4	-1E+10	1	-1E+10	1	-1E+10	1	-1E+10	1	-1E+10	1	-1E+10	1
4902551	76	C	09/19/2022	04:19	-131.761	48.654	0	68.00	0	7.9970	0	32.3980	0	25.233	0	67.414	0	268.2	4	91.7	4	-1E+10	1	-1E+10	1	-1E+10	1	-1E+10	1	-1E+10	1	-1E+10	1
4902551	76	C	09/19/2022	04:19	-131.761	48.654	0	68.90	0	7.9540	0	32.3980	0	25.239	0	68.306	0	267.9	4	91.5	4	-1E+10	1	-1E+10	1	-1E+10	1	-1E+10	1	-1E+10	1	-1E+10	1
4902551	76	C	09/19/2022	04:19	-131.761	48.654	0	70.10	0	7.9270	0	32.3990	0	25.243	0	69.496	0	267.5	4	91.3	4	-1E+10	1	-1E+10	1	-1E+10	1	-1E+10	1	-1E+10	1	-1E+10	1
4902551	76	C	09/19/2022	04:19	-131.761	48.654	0	71.00	0	7.8930	0	32.4010	0	25.250	0	70.388	0	267.2	4	91.2	4	-1E+10	1	-1E+10	1	-1E+10	1	-1E+10	1	-1E+10	1	-1E+10	1
4902551	76	C	09/19/2022	04:19	-131.761	48.654	0	72.00	0	7.8360	0	32.4020	0	25.259	0	71.379	0	267.0	4	91.0	4	-1E+10	1	-1E+10	1	-1E+10	1	-1E+10	1	-1E+10	1	-1E+10	1
4902551	76	C	09/19/2022	04:19	-131.761	48.654	0	73.00	0	7.7620	0	32.4070	0	25.273	0	72.370	0	266.9	4	90.8	4	-1E+10	1	-1E+10	1	-1E+10	1	-1E+10	1	-1E+10	1	-1E+10	1
4902551	76	C	09/19/2022	04:19	-131.761	48.654	0	74.00	0	7.7360	0	32.4060	0	25.276	0	73.361	0	266.7	4	90.7	4	-1E+10	1	-1E+10	1	-1E+10	1	-1E+10	1	-1E+10	1	-1E+10	1
4902551	76	C	09/19/2022	04:19	-131.761	48.654	0	74.90	0	7.7230	0	32.4070	0	25.279	0	74.254	0	266.3	4	90.5	4	-1E+10	1	-1E+10	1	-1E+10	1	-1E+10	1	-1E+10	1	-1E+10	1
4902551	76	C	09/19/2022	04:19	-131.761	48.654	0	75.80	0	7.6940	0	32.4080	0	25.284	0	75.146	0	266.1	4	90.4	4	-1E+10	1	-1E+10	1	-1E+10	1	-1E+10	1	-1E+10	1	-1E+10	1
4902551	76	C	09/19/2022	04:19	-131.761	48.654	0	76.80	0	7.6760	0	32.4090	0	25.287	0	76.137	0	265.7	4	90.2	4	-1E+10	1	-1E+10	1	-1E+10	1	-1E+10	1	-1E+10	1	-1E+10	1
4902551	76	C	09/19/2022	04:19	-131.761	48.654	0	77.90	0	7.6570	0	32.4090	0	25.290	0	77.227	0	265.3	4	90.1	4	-1E+10	1	-1E+10	1	-1E+10	1	-1E+10	1	-1E+10	1	-1E+10	1
4902551	76	C	09/19/2022	04:19	-131.761	48.654	0	79.00	0	7.6000	0	32.4140	0	25.302	0	78.317	0	265.1	4	89.9	4	-1E+10	1	-1E+10	1	-1E+10	1	-1E+10	1	-1E+10	1	-1E+10	1
4902551	76	C	09/19/2022	04:19	-131.761	48.654	0	80.30	0	7.5000	0	32.4240	0	25.323	0	79.606	0	265.0	4	89.6	4	-1E+10	1	-1E+10	1	-1E+10	1	-1E+10	1	-1E+10	1	-1E+10	1
4902551	76	C	09/19/2022	04:19	-131.761	48.654	0	81.10	0	7.4960	0	32.4240	0	25.324	0	80.399	0	264.9	4	89.6	4	-1E+10	1	-1E+10	1	-1E+10	1	-1E+10	1	-1E+10	1	-1E+10	1
4902551	76	C	09/19/2022	04:19	-131.761	48.654	0	81.90	0	7.4700	0	32.4260	0	25.329	0	81.192	0	264.8	4	89.5	4	-1E+10	1	-1E+10	1	-1E+10	1	-1E+10	1	-1E+10	1	-1E+10	1
4902551	76	C	09/19/2022	04:19	-131.761	48.654	0	83.10	0	7.4480	0	32.4280	0	25.334	0	82.381	0	271.4	4	91.7	4	-1E+10	1	-1E+10	1	-1E+10	1	-1E+10	1	-1E+10	1	-1E+10	1
4902551	76	C	09/19/2022	04:19	-131.761	48.654	0	83.90	0	7.4430	0	32.4280	0	25.334	0	83.174	0	271.2	4	91.6	4	-1E+10	1	-1E+10	1	-1E+10	1	-1E+10	1	-1E+10	1	-1E+10	1
4902551	76	C	09/19/2022	04:19	-131.761	48.654	0	85.10	0	7.4280	0	32.4300	0	25.338	0	84.363	0	271.0	4	91.5	4	-1E+10	1	-1E+10	1	-1E+10	1	-1E+10	1	-1E+10	1	-1E+10	1
4902551	76	C	09/19/2022	04:19	-131.761	48.654	0	85.80	0	7.3990	0	32.4320	0	25.344	0	85.057	0	270.8	4	91.4	4	-1E+10	1	-1E+10	1	-1E+10	1	-1E+10	1	-1E+10	1	-1E+10	1
4902551	76	C	09/19/2022	04:19	-131.761	48.654	0	87.00	0	7.3740	0	32.4360	0	25.350	0	86.247	0	270.6	4	91.3	4	-1E+10	1	-1E+10	1	-1E+10	1	-1E+10	1	-1E+10	1	-1E+10	1
4902551	76	C	09/19/2022	04:19	-131.761	48.654	0	88.30	0	7.3570	0	32.4380	0	25.354	0	87.535	0	270.4	4	91.2	4	-1E+10	1	-1E+10	1	-1E+10	1	-1E+10	1	-1E+10	1	-1E+10	1
4902551	76	C	09/19/2022	04:19	-131.761	48.654	0	89.10	0	7.3480	0	32.4390	0	25.356	0	88.328	0	270.3	4	91.1	4	-1E+10	1	-1E+10	1	-1E+10	1	-1E+10	1	-1E+10	1	-1E+10	1
4902551	76	C	09/19/2022	04:19	-131.761	48.654	0	90.10	0	7.3380	0	32.4410	0	25.359	0	89.319	0	269.9	4	91.0	4	-1E+10	1	-1E+10	1	-1E+10	1	-1E+10	1	-1E+10	1	-1E+10	1
4902551	76	C	09/19/2022	04:19	-131.761	48.654	0	91.20	0	7.3300	0	32.4420	0	25.361	0	90.409	0	269.6	4	90.8	4	-1E+10	1	-1E+10	1	-1E+10	1	-1E+10	1	-1E+10	1	-1E+10	1
4902551	76	C	09/19/2022	04:19	-131.761	48.654	0	91.80	0	7.3230	0	32.4440	0	25.364	0	91.004	0	269.3	4	90.7	4	-1E+10	1	-1E+10	1	-1E+10	1	-1E+10	1	-1E+10	1	-1E+10	1
4902551	76	C	09/19/2022	04:19	-131.761	48.654	0	93.10	0	7.3160	0	32.4450	0	25.365	0	92.292	0	268.7	4	90.5	4	-1E+10	1	-1E+10	1	-1E+10	1	-1E+10	1	-1E+10	1	-1E+10	1
4902551	76	C	09/19/2022	04:19	-131.761	48.654	0	94.20	0	7.3070	0	32.4460	0	25.367	0	93.383	0	268.0	4	90.3	4	-1E+10	1	-1E+10	1	-1E+10	1	-1E+10	1	-1E+10	1	-1E+10	1
4902551	76	C	09/19/2022	04:19	-131.761	48.654	0	94.80	0	7.3010	0	32.4470	0	25.369	0	93.977	0	267.6	4	90.1	4	-1E+10	1	-1E+10	1	-1E+10	1	-1E+10	1	-1E+10	1	-1E+10	1
4902551	76	C	09/19/2022	04:19	-131.761	48.654	0	96.10	0	7.2650	0	32.4530	0	25.379	0	95.266	0	266.8	4	89.8	4	-1E+10	1	-1E+10	1	-1E+10	1	-1E+10	1	-1E+10	1	-1E+10	1
4902551	76	C	09/19/2022	04:19	-131.761	48.654	0	97.00	0	7.2410	0	32.4570	0	25.385	0	96.158	0	266.4	4	89.6	4	-1E+10	1	-1E+10	1	-1E+10	1	-1E+10	1	-1E+10	1	-1E+10	1
4902551	76	C	09/19/2022	04:19	-131.761	48.654	0	97.90	0	7.2150	0	32.4640	0	25.394	0	97.050	0	265.8	4	89.3	4	-1E+10	1	-1E+10	1	-1E+10	1	-1E+10	1	-1E+10	1	-1E+10	1
4902551	76	C	09/19/2022	04:19	-131.761	48.654	0	98.80	0	7.1990	0	32.4680	0	25.399	0	97.942	0	265.2	4	89.1	4	-1E+10	1	-1E+10	1	-1E+10	1	-1E+10	1	-1E+10	1	-1E+10	1
4902551	76	C	09/19/2022	04:19	-131.761	48.654	0	100.00	0	7.1800	0	32.4750	0	25.407	0	99.131	0	264.4	4	88.8	4	-1E+10	1	-1E+10	1	-1E+10	1	-1E+10	1	-1E+10	1	-1E+10	1
4902551	76	C	09/19/2022	04:19	-131.761	48.654	0	101.00	0	7.1370	0	32.4890	0	25.424	0	100.122	0	263.8	4	88.5	4	-1E+10	1	-1E+10	1	-1E+10	1	-1E+10	1	-1E+10	1	-1E+10	1
4902551	76	C	09/19/2022	04:19	-131.761	48.654	0	101.90	0	7.1090	0	32.4960	0	25.434	0	101.014	0	263.1	4	88.2	4	-1E+10	1	-1E+10	1	-1E+10	1	-1E+10	1	-1E+10	1	-1E+10	1
4902551	76	C	09/19/2022	04:19	-131.761	48.654	0	103.10	0	7.0920	0	32.5020	0	25.441	0	102.203	0	261.9	4	87.8	4	-1E+10	1	-1E+10	1	-1E+10	1	-1E+10	1	-1E+10	1	-1E+10	1
4902551	76	C	09/19/2022	04:19	-131.761	48.654	0	104.10	0	7.0850	0	32.5060	0	25.445	0	103.194	0	260.8	4	87.4	4	-1E+10	1	-1E+10	1	-1E+10	1	-1E+10	1	-1E+10	1	-1E+10	1
4902551	76	C	09/19/2022	04:19	-131.761	48.654	0	105.30	0	7.0420	0	32.5300	0	25.469	0	104.383	0	259.8	4	87.0	4	-1E+10	1	-1E+10	1	-1E+10	1	-1E+10	1	-1E+10	1	-1E+10	1
4902551	76	C	09/19/2022	04:19	-131.761	48.654	0	106.00	0	7.0360	0	32.5330	0	25.473	0	105.077	0	259.1	4	86.8	4	-1E+10	1	-1E+10	1	-1E+10	1	-1E+10	1	-1E+10	1	-1E+10	1
4902551	76	C	09/19/2022	04:19	-131.761	48.654	0	107.00	0	7.0190	0	32.5430	0	25.483	0	106.068	0	258.2	4	86.5	4	-1E+10	1	-1E+10	1	-1E+10	1	-1E+10	1	-1E+10	1	-1E+10	1
4902551	76	C	09/19/2022	04:19	-131.761	48.654	0	108.10	0	7.0090	0	32.5560	0	25.494	0	107.158	0	257.3	4	86.2	4	-1E+10	1	-1E+10	1	-1E+10	1	-1E+10	1	-1E+10	1	-1E+10	1
4902551	76	C	09/19/2022	04:19	-131.761	48.654	0	109.00	0	6.9910	0	32.5740	0	25.511	0	108.050	0	256.5	4	85.8	4	-1E+10	1	-1E+10	1	-1E+10	1	-1E+10	1	-1E+10	1	-1E+10	1
4902551	76	C	09/19/2022	04:19	-131.761	48.654	0	110.00	0	6.9790	0	32.5870	0	25.523	0	109.041	0	255.4	4	85.5	4	-1E+10	1	-1E+10	1	-1E+10	1	-1E+10	1	-1E+10	1	-1E+10	1
4902551	76	C	09/19/2022	04:19	-131.761	48.654	0	110.90	0	6.9670	0	32.6000	0	25.535	0	109.933	0	254.7	4	85.2	4	-1E+10	1	-1E+10	1	-1E+10	1	-1E+10	1	-1E+10	1	-1E+10	1
4902551	76	C	09/19/2022	04:19	-131.761	48.654	0	112.10	0	6.9520	0	32.6130	0	25.547	0	111.122	0	253.3	4	84.7	4	-1E+10	1	-1E+10	1	-1E+10	1	-1E+10	1	-1E+10	1	-1E+10	1
4902551	76	C	09/19/2022	04:19	-131.761	48.654	0	113.00	0	6.9350	0	32.6310	0	25.563	0	112.014	0	252.5	4	84.4	4	-1E+10	1	-1E+10	1	-1E+10	1	-1E+10	1	-1E+10	1	-1E+10	1
4902551	76	C	09/19/2022	04:19	-131.761	48.654	0	113.90	0	6.9210	0	32.6490	0	25.579	0	112.906	0	251.8	4	84.2	4	-1E+10	1	-1E+10	1	-1E+10	1	-1E+10	1	-1E+10	1	-1E+10	1
4902551	76	C	09/19/2022	04:19	-131.761	48.654	0	114.90	0	6.9120	0	32.6590	0	25.588	0	113.897	0	250.6	4	83.8	4	-1E+10	1	-1E+10	1	-1E+10	1	-1E+10	1	-1E+10	1	-1E+10	1
4902551	76	C	09/19/2022	04:19	-131.761	48.654	0	115.90	0	6.9060	0	32.6660	0	25.595	0	114.888	0	249.1	4	83.3	4	-1E+10	1	-1E+10	1	-1E+10	1	-1E+10	1	-1E+10	1	-1E+10	1
4902551	76	C	09/19/2022	04:19	-131.761	48.654	0	116.90	0	6.9000	0	32.6730	0	25.601	0	115.879	0	247.8	4	82.8	4	-1E+10	1	-1E+10	1	-1E+10	1	-1E+10	1	-1E+10	1	-1E+10	1
4902551	76	C	09/19/2022	04:19	-131.761	48.654	0	117.90	0	6.8690	0	32.7030	0	25.629	0	116.870	0	246.8	4	82.5	4	-1E+10	1	-1E+10	1	-1E+10	1	-1E+10	1	-1E+10	1	-1E+10	1
4902551	76	C	09/19/2022	04:19	-131.761	48.654	0	119.00	0	6.8560	0	32.7130	0	25.638	0	117.960	0	245.4	4	82.0	4	-1E+10	1	-1E+10	1	-1E+10	1	-1E+10	1	-1E+10	1	-1E+10	1
4902551	76	C	09/19/2022	04:19	-131.761	48.654	0	120.00	0	6.8500	0	32.7190	0	25.644	0	118.951	0	243.3	4	81.3	4	-1E+10	1	-1E+10	1	-1E+10	1	-1E+10	1	-1E+10	1	-1E+10	1
4902551	76	C	09/19/2022	04:19	-131.761	48.654	0	121.20	0	6.8290	0	32.7380	0	25.662	0	120.140	0	241.3	4	80.5	4	-1E+10	1	-1E+10	1	-1E+10	1	-1E+10	1	-1E+10	1	-1E+10	1
4902551	76	C	09/19/2022	04:19	-131.761	48.654	0	122.00	0	6.8070	0	32.7610	0	25.683	0	120.933	0	239.6	4	80.0	4	-1E+10	1	-1E+10	1	-1E+10	1	-1E+10	1	-1E+10	1	-1E+10	1
4902551	76	C	09/19/2022	04:19	-131.761	48.654	0	123.30	0	6.7840	0	32.7800	0	25.701	0	122.221	0	237.1	4	79.1	4	-1E+10	1	-1E+10	1	-1E+10	1	-1E+10	1	-1E+10	1	-1E+10	1
4902551	76	C	09/19/2022	04:19	-131.761	48.654	0	124.00	0	6.7720	0	32.7930	0	25.712	0	122.915	0	236.1	4	78.7	4	-1E+10	1	-1E+10	1	-1E+10	1	-1E+10	1	-1E+10	1	-1E+10	1
4902551	76	C	09/19/2022	04:19	-131.761	48.654	0	124.90	0	6.7500	0	32.8080	0	25.727	0	123.807	0	234.7	4	78.2	4	-1E+10	1	-1E+10	1	-1E+10	1	-1E+10	1	-1E+10	1	-1E+10	1
4902551	76	C	09/19/2022	04:19	-131.761	48.654	0	125.90	0	6.7130	0	32.8360	0	25.754	0	124.798	0	233.2	4	77.7	4	-1E+10	1	-1E+10	1	-1E+10	1	-1E+10	1	-1E+10	1	-1E+10	1
4902551	76	C	09/19/2022	04:19	-131.761	48.654	0	127.10	0	6.5990	0	32.8570	0	25.785	0	125.987	0	231.7	4	77.0	4	-1E+10	1	-1E+10	1	-1E+10	1	-1E+10	1	-1E+10	1	-1E+10	1
4902551	76	C	09/19/2022	04:19	-131.761	48.654	0	128.00	0	6.5700	0	32.9070	0	25.829	0	126.879	0	230.6	4	76.6	4	-1E+10	1	-1E+10	1	-1E+10	1	-1E+10	1	-1E+10	1	-1E+10	1
4902551	76	C	09/19/2022	04:19	-131.761	48.654	0	128.90	0	6.5450	0	32.9210	0	25.843	0	127.771	0	229.6	4	76.3	4	-1E+10	1	-1E+10	1	-1E+10	1	-1E+10	1	-1E+10	1	-1E+10	1
4902551	76	C	09/19/2022	04:19	-131.761	48.654	0	129.90	0	6.5340	0	32.9330	0	25.854	0	128.762	0	228.5	4	75.9	4	-1E+10	1	-1E+10	1	-1E+10	1	-1E+10	1	-1E+10	1	-1E+10	1
4902551	76	C	09/19/2022	04:19	-131.761	48.654	0	130.80	0	6.5260	0	32.9390	0	25.860	0	129.654	0	227.1	4	75.4	4	-1E+10	1	-1E+10	1	-1E+10	1	-1E+10	1	-1E+10	1	-1E+10	1
4902551	76	C	09/19/2022	04:19	-131.761	48.654	0	132.10	0	6.5200	0	32.9470	0	25.867	0	130.942	0	225.2	4	74.8	4	-1E+10	1	-1E+10	1	-1E+10	1	-1E+10	1	-1E+10	1	-1E+10	1
4902551	76	C	09/19/2022	04:19	-131.761	48.654	0	133.00	0	6.5130	0	32.9620	0	25.879	0	131.834	0	223.9	4	74.3	4	-1E+10	1	-1E+10	1	-1E+10	1	-1E+10	1	-1E+10	1	-1E+10	1
4902551	76	C	09/19/2022	04:19	-131.761	48.654	0	134.00	0	6.5090	0	32.9730	0	25.889	0	132.824	0	222.3	4	73.8	4	-1E+10	1	-1E+10	1	-1E+10	1	-1E+10	1	-1E+10	1	-1E+10	1
4902551	76	C	09/19/2022	04:19	-131.761	48.654	0	135.00	0	6.4930	0	32.9990	0	25.911	0	133.815	0	220.8	4	73.3	4	-1E+10	1	-1E+10	1	-1E+10	1	-1E+10	1	-1E+10	1	-1E+10	1
4902551	76	C	09/19/2022	04:19	-131.761	48.654	0	135.80	0	6.4820	0	33.0150	0	25.925	0	134.608	0	219.7	4	72.9	4	-1E+10	1	-1E+10	1	-1E+10	1	-1E+10	1	-1E+10	1	-1E+10	1
4902551	76	C	09/19/2022	04:19	-131.761	48.654	0	136.80	0	6.4760	0	33.0360	0	25.943	0	135.599	0	218.3	4	72.5	4	-1E+10	1	-1E+10	1	-1E+10	1	-1E+10	1	-1E+10	1	-1E+10	1
4902551	76	C	09/19/2022	04:19	-131.761	48.654	0	138.00	0	6.4740	0	33.0570	0	25.959	0	136.788	0	216.9	4	72.0	4	-1E+10	1	-1E+10	1	-1E+10	1	-1E+10	1	-1E+10	1	-1E+10	1
4902551	76	C	09/19/2022	04:19	-131.761	48.654	0	139.00	0	6.4740	0	33.0680	0	25.968	0	137.779	0	215.6	4	71.6	4	-1E+10	1	-1E+10	1	-1E+10	1	-1E+10	1	-1E+10	1	-1E+10	1
4902551	76	C	09/19/2022	04:19	-131.761	48.654	0	140.20	0	6.4770	0	33.0780	0	25.976	0	138.968	0	214.1	4	71.1	4	-1E+10	1	-1E+10	1	-1E+10	1	-1E+10	1	-1E+10	1	-1E+10	1
4902551	76	C	09/19/2022	04:19	-131.761	48.654	0	140.90	0	6.4720	0	33.0860	0	25.983	0	139.662	0	213.1	4	70.8	4	-1E+10	1	-1E+10	1	-1E+10	1	-1E+10	1	-1E+10	1	-1E+10	1
4902551	76	C	09/19/2022	04:19	-131.761	48.654	0	142.00	0	6.4430	0	33.1080	0	26.004	0	140.752	0	211.4	4	70.2	4	-1E+10	1	-1E+10	1	-1E+10	1	-1E+10	1	-1E+10	1	-1E+10	1
4902551	76	C	09/19/2022	04:19	-131.761	48.654	0	143.20	0	6.4120	0	33.1440	0	26.036	0	141.941	0	209.2	4	69.4	4	-1E+10	1	-1E+10	1	-1E+10	1	-1E+10	1	-1E+10	1	-1E+10	1
4902551	76	C	09/19/2022	04:19	-131.761	48.654	0	144.00	0	6.4020	0	33.1580	0	26.048	0	142.733	0	208.0	4	69.0	4	-1E+10	1	-1E+10	1	-1E+10	1	-1E+10	1	-1E+10	1	-1E+10	1
4902551	76	C	09/19/2022	04:19	-131.761	48.654	0	144.80	0	6.3990	0	33.1630	0	26.053	0	143.526	0	206.8	4	68.6	4	-1E+10	1	-1E+10	1	-1E+10	1	-1E+10	1	-1E+10	1	-1E+10	1
4902551	76	C	09/19/2022	04:19	-131.761	48.654	0	145.90	0	6.3950	0	33.1670	0	26.056	0	144.616	0	204.9	4	67.9	4	-1E+10	1	-1E+10	1	-1E+10	1	-1E+10	1	-1E+10	1	-1E+10	1
4902551	76	C	09/19/2022	04:19	-131.761	48.654	0	147.10	0	6.3740	0	33.1890	0	26.076	0	145.805	0	202.3	4	67.0	4	-1E+10	1	-1E+10	1	-1E+10	1	-1E+10	1	-1E+10	1	-1E+10	1
4902551	76	C	09/19/2022	04:19	-131.761	48.654	0	147.90	0	6.3410	0	33.2350	0	26.117	0	146.598	0	200.9	4	66.6	4	-1E+10	1	-1E+10	1	-1E+10	1	-1E+10	1	-1E+10	1	-1E+10	1
4902551	76	C	09/19/2022	04:19	-131.761	48.654	0	148.70	0	6.3240	0	33.2510	0	26.132	0	147.390	0	199.9	4	66.2	4	-1E+10	1	-1E+10	1	-1E+10	1	-1E+10	1	-1E+10	1	-1E+10	1
4902551	76	C	09/19/2022	04:19	-131.761	48.654	0	149.90	0	6.3070	0	33.2680	0	26.147	0	148.579	0	198.3	4	65.7	4	-1E+10	1	-1E+10	1	-1E+10	1	-1E+10	1	-1E+10	1	-1E+10	1
4902551	76	C	09/19/2022	04:19	-131.761	48.654	0	151.10	0	6.2990	0	33.2830	0	26.160	0	149.768	0	196.6	4	65.1	4	-1E+10	1	-1E+10	1	-1E+10	1	-1E+10	1	-1E+10	1	-1E+10	1
4902551	76	C	09/19/2022	04:19	-131.761	48.654	0	151.80	0	6.2900	0	33.3000	0	26.175	0	150.462	0	195.5	4	64.7	4	-1E+10	1	-1E+10	1	-1E+10	1	-1E+10	1	-1E+10	1	-1E+10	1
4902551	76	C	09/19/2022	04:19	-131.761	48.654	0	153.00	0	6.2690	0	33.3240	0	26.196	0	151.651	0	193.9	4	64.2	4	-1E+10	1	-1E+10	1	-1E+10	1	-1E+10	1	-1E+10	1	-1E+10	1
4902551	76	C	09/19/2022	04:19	-131.761	48.654	0	154.10	0	6.2490	0	33.3410	0	26.212	0	152.741	0	192.5	4	63.7	4	-1E+10	1	-1E+10	1	-1E+10	1	-1E+10	1	-1E+10	1	-1E+10	1
4902551	76	C	09/19/2022	04:19	-131.761	48.654	0	154.90	0	6.2410	0	33.3540	0	26.224	0	153.533	0	191.6	4	63.4	4	-1E+10	1	-1E+10	1	-1E+10	1	-1E+10	1	-1E+10	1	-1E+10	1
4902551	76	C	09/19/2022	04:19	-131.761	48.654	0	155.70	0	6.2290	0	33.3680	0	26.236	0	154.326	0	190.5	4	63.0	4	-1E+10	1	-1E+10	1	-1E+10	1	-1E+10	1	-1E+10	1	-1E+10	1
4902551	76	C	09/19/2022	04:19	-131.761	48.654	0	156.90	0	6.2060	0	33.4090	0	26.272	0	155.515	0	188.8	4	62.5	4	-1E+10	1	-1E+10	1	-1E+10	1	-1E+10	1	-1E+10	1	-1E+10	1
4902551	76	C	09/19/2022	04:19	-131.761	48.654	0	158.10	0	6.2000	0	33.4190	0	26.280	0	156.704	0	187.4	4	62.0	4	-1E+10	1	-1E+10	1	-1E+10	1	-1E+10	1	-1E+10	1	-1E+10	1
4902551	76	C	09/19/2022	04:19	-131.761	48.654	0	159.00	0	6.1960	0	33.4230	0	26.284	0	157.596	0	186.3	4	61.6	4	-1E+10	1	-1E+10	1	-1E+10	1	-1E+10	1	-1E+10	1	-1E+10	1
4902551	76	C	09/19/2022	04:19	-131.761	48.654	0	159.80	0	6.1820	0	33.4430	0	26.301	0	158.388	0	184.9	4	61.1	4	-1E+10	1	-1E+10	1	-1E+10	1	-1E+10	1	-1E+10	1	-1E+10	1
4902551	76	C	09/19/2022	04:19	-131.761	48.654	0	160.70	0	6.1750	0	33.4530	0	26.310	0	159.280	0	183.7	4	60.7	4	-1E+10	1	-1E+10	1	-1E+10	1	-1E+10	1	-1E+10	1	-1E+10	1
4902551	76	C	09/19/2022	04:19	-131.761	48.654	0	161.90	0	6.1570	0	33.4740	0	26.329	0	160.469	0	182.4	4	60.3	4	-1E+10	1	-1E+10	1	-1E+10	1	-1E+10	1	-1E+10	1	-1E+10	1
4902551	76	C	09/19/2022	04:19	-131.761	48.654	0	163.30	0	6.1430	0	33.4940	0	26.347	0	161.856	0	181.1	4	59.9	4	-1E+10	1	-1E+10	1	-1E+10	1	-1E+10	1	-1E+10	1	-1E+10	1
4902551	76	C	09/19/2022	04:19	-131.761	48.654	0	164.20	0	6.1380	0	33.5010	0	26.353	0	162.748	0	180.3	4	59.6	4	-1E+10	1	-1E+10	1	-1E+10	1	-1E+10	1	-1E+10	1	-1E+10	1
4902551	76	C	09/19/2022	04:19	-131.761	48.654	0	165.20	0	6.1350	0	33.5050	0	26.356	0	163.738	0	179.5	4	59.3	4	-1E+10	1	-1E+10	1	-1E+10	1	-1E+10	1	-1E+10	1	-1E+10	1
4902551	76	C	09/19/2022	04:19	-131.761	48.654	0	166.00	0	6.1330	0	33.5070	0	26.358	0	164.531	0	178.5	4	59.0	4	-1E+10	1	-1E+10	1	-1E+10	1	-1E+10	1	-1E+10	1	-1E+10	1
4902551	76	C	09/19/2022	04:19	-131.761	48.654	0	166.90	0	6.1310	0	33.5090	0	26.360	0	165.423	0	177.6	4	58.7	4	-1E+10	1	-1E+10	1	-1E+10	1	-1E+10	1	-1E+10	1	-1E+10	1
4902551	76	C	09/19/2022	04:19	-131.761	48.654	0	167.80	0	6.1290	0	33.5120	0	26.363	0	166.314	0	176.4	4	58.3	4	-1E+10	1	-1E+10	1	-1E+10	1	-1E+10	1	-1E+10	1	-1E+10	1
4902551	76	C	09/19/2022	04:19	-131.761	48.654	0	168.70	0	6.1220	0	33.5200	0	26.370	0	167.206	0	175.0	4	57.8	4	-1E+10	1	-1E+10	1	-1E+10	1	-1E+10	1	-1E+10	1	-1E+10	1
4902551	76	C	09/19/2022	04:19	-131.761	48.654	0	169.60	0	6.1120	0	33.5330	0	26.381	0	168.098	0	173.7	4	57.4	4	-1E+10	1	-1E+10	1	-1E+10	1	-1E+10	1	-1E+10	1	-1E+10	1
4902551	76	C	09/19/2022	04:19	-131.761	48.654	0	170.60	0	6.1020	0	33.5440	0	26.391	0	169.088	0	172.5	4	57.0	4	-1E+10	1	-1E+10	1	-1E+10	1	-1E+10	1	-1E+10	1	-1E+10	1
4902551	76	C	09/19/2022	04:19	-131.761	48.654	0	171.50	0	6.0870	0	33.5650	0	26.410	0	169.980	0	171.3	4	56.6	4	-1E+10	1	-1E+10	1	-1E+10	1	-1E+10	1	-1E+10	1	-1E+10	1
4902551	76	C	09/19/2022	04:19	-131.761	48.654	0	172.90	0	6.0770	0	33.5830	0	26.425	0	171.367	0	169.9	4	56.1	4	-1E+10	1	-1E+10	1	-1E+10	1	-1E+10	1	-1E+10	1	-1E+10	1
4902551	76	C	09/19/2022	04:19	-131.761	48.654	0	174.30	0	6.0650	0	33.6030	0	26.443	0	172.754	0	168.6	4	55.7	4	-1E+10	1	-1E+10	1	-1E+10	1	-1E+10	1	-1E+10	1	-1E+10	1
4902551	76	C	09/19/2022	04:19	-131.761	48.654	0	175.20	0	6.0510	0	33.6150	0	26.454	0	173.646	0	167.6	4	55.3	4	-1E+10	1	-1E+10	1	-1E+10	1	-1E+10	1	-1E+10	1	-1E+10	1
4902551	76	C	09/19/2022	04:19	-131.761	48.654	0	176.20	0	6.0390	0	33.6180	0	26.458	0	174.636	0	166.8	4	55.0	4	-1E+10	1	-1E+10	1	-1E+10	1	-1E+10	1	-1E+10	1	-1E+10	1
4902551	76	C	09/19/2022	04:19	-131.761	48.654	0	177.10	0	6.0360	0	33.6180	0	26.458	0	175.528	0	165.9	4	54.7	4	-1E+10	1	-1E+10	1	-1E+10	1	-1E+10	1	-1E+10	1	-1E+10	1
4902551	76	C	09/19/2022	04:19	-131.761	48.654	0	178.00	0	6.0300	0	33.6220	0	26.462	0	176.420	0	164.9	4	54.4	4	-1E+10	1	-1E+10	1	-1E+10	1	-1E+10	1	-1E+10	1	-1E+10	1
4902551	76	C	09/19/2022	04:19	-131.761	48.654	0	179.00	0	6.0180	0	33.6310	0	26.471	0	177.410	0	163.5	4	53.9	4	-1E+10	1	-1E+10	1	-1E+10	1	-1E+10	1	-1E+10	1	-1E+10	1
4902551	76	C	09/19/2022	04:19	-131.761	48.654	0	179.90	0	5.9870	0	33.6490	0	26.489	0	178.302	0	162.4	4	53.5	4	-1E+10	1	-1E+10	1	-1E+10	1	-1E+10	1	-1E+10	1	-1E+10	1
4902551	76	C	09/19/2022	04:19	-131.761	48.654	0	180.90	0	5.9810	0	33.6510	0	26.491	0	179.293	0	161.2	4	53.1	4	-1E+10	1	-1E+10	1	-1E+10	1	-1E+10	1	-1E+10	1	-1E+10	1
4902551	76	C	09/19/2022	04:19	-131.761	48.654	0	181.90	0	5.9700	0	33.6580	0	26.498	0	180.283	0	160.2	4	52.8	4	-1E+10	1	-1E+10	1	-1E+10	1	-1E+10	1	-1E+10	1	-1E+10	1
4902551	76	C	09/19/2022	04:19	-131.761	48.654	0	182.90	0	5.9510	0	33.6640	0	26.505	0	181.274	0	159.1	4	52.4	4	-1E+10	1	-1E+10	1	-1E+10	1	-1E+10	1	-1E+10	1	-1E+10	1
4902551	76	C	09/19/2022	04:19	-131.761	48.654	0	183.90	0	5.9370	0	33.6690	0	26.511	0	182.265	0	158.3	4	52.1	4	-1E+10	1	-1E+10	1	-1E+10	1	-1E+10	1	-1E+10	1	-1E+10	1
4902551	76	C	09/19/2022	04:19	-131.761	48.654	0	184.90	0	5.9080	0	33.6860	0	26.528	0	183.255	0	157.2	4	51.7	4	-1E+10	1	-1E+10	1	-1E+10	1	-1E+10	1	-1E+10	1	-1E+10	1
4902551	76	C	09/19/2022	04:19	-131.761	48.654	0	185.90	0	5.8870	0	33.6880	0	26.532	0	184.246	0	156.5	4	51.5	4	-1E+10	1	-1E+10	1	-1E+10	1	-1E+10	1	-1E+10	1	-1E+10	1
4902551	76	C	09/19/2022	04:19	-131.761	48.654	0	187.00	0	5.8840	0	33.6890	0	26.533	0	185.336	0	155.9	4	51.3	4	-1E+10	1	-1E+10	1	-1E+10	1	-1E+10	1	-1E+10	1	-1E+10	1
4902551	76	C	09/19/2022	04:19	-131.761	48.654	0	188.00	0	5.8840	0	33.6900	0	26.534	0	186.326	0	155.2	4	51.1	4	-1E+10	1	-1E+10	1	-1E+10	1	-1E+10	1	-1E+10	1	-1E+10	1
4902551	76	C	09/19/2022	04:19	-131.761	48.654	0	189.10	0	5.8730	0	33.6960	0	26.540	0	187.416	0	154.5	4	50.8	4	-1E+10	1	-1E+10	1	-1E+10	1	-1E+10	1	-1E+10	1	-1E+10	1
4902551	76	C	09/19/2022	04:19	-131.761	48.654	0	190.10	0	5.8670	0	33.6970	0	26.542	0	188.407	0	153.8	4	50.6	4	-1E+10	1	-1E+10	1	-1E+10	1	-1E+10	1	-1E+10	1	-1E+10	1
4902551	76	C	09/19/2022	04:19	-131.761	48.654	0	191.20	0	5.8540	0	33.7000	0	26.546	0	189.496	0	153.0	4	50.3	4	-1E+10	1	-1E+10	1	-1E+10	1	-1E+10	1	-1E+10	1	-1E+10	1
4902551	76	C	09/19/2022	04:19	-131.761	48.654	0	192.20	0	5.8350	0	33.7060	0	26.553	0	190.487	0	152.3	4	50.0	4	-1E+10	1	-1E+10	1	-1E+10	1	-1E+10	1	-1E+10	1	-1E+10	1
4902551	76	C	09/19/2022	04:19	-131.761	48.654	0	193.30	0	5.8180	0	33.7100	0	26.558	0	191.577	0	151.6	4	49.8	4	-1E+10	1	-1E+10	1	-1E+10	1	-1E+10	1	-1E+10	1	-1E+10	1
4902551	76	C	09/19/2022	04:19	-131.761	48.654	0	194.40	0	5.8000	0	33.7130	0	26.563	0	192.666	0	151.0	4	49.6	4	-1E+10	1	-1E+10	1	-1E+10	1	-1E+10	1	-1E+10	1	-1E+10	1
4902551	76	C	09/19/2022	04:19	-131.761	48.654	0	195.50	0	5.7910	0	33.7170	0	26.567	0	193.756	0	150.5	4	49.4	4	-1E+10	1	-1E+10	1	-1E+10	1	-1E+10	1	-1E+10	1	-1E+10	1
4902551	76	C	09/19/2022	04:19	-131.761	48.654	0	196.60	0	5.7870	0	33.7160	0	26.567	0	194.846	0	150.0	4	49.2	4	-1E+10	1	-1E+10	1	-1E+10	1	-1E+10	1	-1E+10	1	-1E+10	1
4902551	76	C	09/19/2022	04:19	-131.761	48.654	0	197.70	0	5.7860	0	33.7170	0	26.567	0	195.935	0	149.3	4	49.0	4	-1E+10	1	-1E+10	1	-1E+10	1	-1E+10	1	-1E+10	1	-1E+10	1
4902551	76	C	09/19/2022	04:19	-131.761	48.654	0	198.80	0	5.7820	0	33.7180	0	26.569	0	197.025	0	148.7	4	48.8	4	-1E+10	1	-1E+10	1	-1E+10	1	-1E+10	1	-1E+10	1	-1E+10	1
4902551	76	C	09/19/2022	04:19	-131.761	48.654	0	199.80	0	5.7780	0	33.7200	0	26.571	0	198.016	0	148.1	4	48.6	4	-1E+10	1	-1E+10	1	-1E+10	1	-1E+10	1	-1E+10	1	-1E+10	1
4902551	76	C	09/19/2022	04:19	-131.761	48.654	0	200.90	0	5.7680	0	33.7220	0	26.574	0	199.105	0	147.4	4	48.4	4	-1E+10	1	-1E+10	1	-1E+10	1	-1E+10	1	-1E+10	1	-1E+10	1
4902551	76	C	09/19/2022	04:19	-131.761	48.654	0	202.00	0	5.7570	0	33.7280	0	26.580	0	200.195	0	146.9	4	48.2	4	-1E+10	1	-1E+10	1	-1E+10	1	-1E+10	1	-1E+10	1	-1E+10	1
4902551	76	C	09/19/2022	04:19	-131.761	48.654	0	203.00	0	5.7380	0	33.7320	0	26.585	0	201.186	0	146.2	4	48.0	4	-1E+10	1	-1E+10	1	-1E+10	1	-1E+10	1	-1E+10	1	-1E+10	1
4902551	76	C	09/19/2022	04:19	-131.761	48.654	0	203.90	0	5.7030	0	33.7300	0	26.588	0	202.077	0	146.0	4	47.8	4	-1E+10	1	-1E+10	1	-1E+10	1	-1E+10	1	-1E+10	1	-1E+10	1
4902551	76	C	09/19/2022	04:19	-131.761	48.654	0	204.90	0	5.6970	0	33.7310	0	26.589	0	203.068	0	144.7	4	47.4	4	-1E+10	1	-1E+10	1	-1E+10	1	-1E+10	1	-1E+10	1	-1E+10	1
4902551	76	C	09/19/2022	04:19	-131.761	48.654	0	205.80	0	5.6940	0	33.7310	0	26.590	0	203.959	0	143.2	4	46.9	4	-1E+10	1	-1E+10	1	-1E+10	1	-1E+10	1	-1E+10	1	-1E+10	1
4902551	76	C	09/19/2022	04:19	-131.761	48.654	0	206.70	0	5.6940	0	33.7300	0	26.589	0	204.851	0	142.6	4	46.7	4	-1E+10	1	-1E+10	1	-1E+10	1	-1E+10	1	-1E+10	1	-1E+10	1
4902551	76	C	09/19/2022	04:19	-131.761	48.654	0	207.90	0	5.6760	0	33.7330	0	26.594	0	206.039	0	141.6	4	46.4	4	-1E+10	1	-1E+10	1	-1E+10	1	-1E+10	1	-1E+10	1	-1E+10	1
4902551	76	C	09/19/2022	04:19	-131.761	48.654	0	209.10	0	5.6510	0	33.7370	0	26.600	0	207.228	0	140.6	4	46.0	4	-1E+10	1	-1E+10	1	-1E+10	1	-1E+10	1	-1E+10	1	-1E+10	1
4902551	76	C	09/19/2022	04:19	-131.761	48.654	0	210.00	0	5.6270	0	33.7430	0	26.607	0	208.119	0	140.0	4	45.8	4	-1E+10	1	-1E+10	1	-1E+10	1	-1E+10	1	-1E+10	1	-1E+10	1
4902551	76	C	09/19/2022	04:19	-131.761	48.654	0	211.00	0	5.6200	0	33.7430	0	26.608	0	209.110	0	138.1	4	45.2	4	-1E+10	1	-1E+10	1	-1E+10	1	-1E+10	1	-1E+10	1	-1E+10	1
4902551	76	C	09/19/2022	04:19	-131.761	48.654	0	211.80	0	5.6190	0	33.7430	0	26.608	0	209.902	0	137.2	4	44.9	4	-1E+10	1	-1E+10	1	-1E+10	1	-1E+10	1	-1E+10	1	-1E+10	1
4902551	76	C	09/19/2022	04:19	-131.761	48.654	0	213.00	0	5.6150	0	33.7430	0	26.609	0	211.091	0	136.1	4	44.5	4	-1E+10	1	-1E+10	1	-1E+10	1	-1E+10	1	-1E+10	1	-1E+10	1
4902551	76	C	09/19/2022	04:19	-131.761	48.654	0	214.40	0	5.6110	0	33.7440	0	26.610	0	212.478	0	134.9	4	44.1	4	-1E+10	1	-1E+10	1	-1E+10	1	-1E+10	1	-1E+10	1	-1E+10	1
4902551	76	C	09/19/2022	04:19	-131.761	48.654	0	215.30	0	5.5880	0	33.7500	0	26.618	0	213.369	0	134.2	4	43.9	4	-1E+10	1	-1E+10	1	-1E+10	1	-1E+10	1	-1E+10	1	-1E+10	1
4902551	76	C	09/19/2022	04:19	-131.761	48.654	0	216.30	0	5.5680	0	33.7530	0	26.623	0	214.360	0	133.6	4	43.6	4	-1E+10	1	-1E+10	1	-1E+10	1	-1E+10	1	-1E+10	1	-1E+10	1
4902551	76	C	09/19/2022	04:19	-131.761	48.654	0	217.20	0	5.5650	0	33.7540	0	26.624	0	215.251	0	132.9	4	43.4	4	-1E+10	1	-1E+10	1	-1E+10	1	-1E+10	1	-1E+10	1	-1E+10	1
4902551	76	C	09/19/2022	04:19	-131.761	48.654	0	218.20	0	5.5530	0	33.7550	0	26.626	0	216.242	0	132.4	4	43.2	4	-1E+10	1	-1E+10	1	-1E+10	1	-1E+10	1	-1E+10	1	-1E+10	1
4902551	76	C	09/19/2022	04:19	-131.761	48.654	0	219.20	0	5.5340	0	33.7610	0	26.633	0	217.232	0	131.9	4	43.0	4	-1E+10	1	-1E+10	1	-1E+10	1	-1E+10	1	-1E+10	1	-1E+10	1
4902551	76	C	09/19/2022	04:19	-131.761	48.654	0	220.10	0	5.5220	0	33.7580	0	26.632	0	218.124	0	131.5	4	42.9	4	-1E+10	1	-1E+10	1	-1E+10	1	-1E+10	1	-1E+10	1	-1E+10	1
4902551	76	C	09/19/2022	04:19	-131.761	48.654	0	221.10	0	5.5140	0	33.7600	0	26.635	0	219.114	0	131.1	4	42.8	4	-1E+10	1	-1E+10	1	-1E+10	1	-1E+10	1	-1E+10	1	-1E+10	1
4902551	76	C	09/19/2022	04:19	-131.761	48.654	0	222.10	0	5.4920	0	33.7600	0	26.637	0	220.105	0	130.8	4	42.7	4	-1E+10	1	-1E+10	1	-1E+10	1	-1E+10	1	-1E+10	1	-1E+10	1
4902551	76	C	09/19/2022	04:19	-131.761	48.654	0	223.10	0	5.4910	0	33.7610	0	26.638	0	221.095	0	130.4	4	42.5	4	-1E+10	1	-1E+10	1	-1E+10	1	-1E+10	1	-1E+10	1	-1E+10	1
4902551	76	C	09/19/2022	04:19	-131.761	48.654	0	224.10	0	5.4870	0	33.7610	0	26.639	0	222.086	0	130.0	4	42.4	4	-1E+10	1	-1E+10	1	-1E+10	1	-1E+10	1	-1E+10	1	-1E+10	1
4902551	76	C	09/19/2022	04:19	-131.761	48.654	0	225.10	0	5.4770	0	33.7600	0	26.639	0	223.076	0	129.5	4	42.2	4	-1E+10	1	-1E+10	1	-1E+10	1	-1E+10	1	-1E+10	1	-1E+10	1
4902551	76	C	09/19/2022	04:19	-131.761	48.654	0	226.10	0	5.4800	0	33.7620	0	26.640	0	224.067	0	129.0	4	42.1	4	-1E+10	1	-1E+10	1	-1E+10	1	-1E+10	1	-1E+10	1	-1E+10	1
4902551	76	C	09/19/2022	04:19	-131.761	48.654	0	227.10	0	5.4800	0	33.7620	0	26.640	0	225.057	0	128.5	4	41.9	4	-1E+10	1	-1E+10	1	-1E+10	1	-1E+10	1	-1E+10	1	-1E+10	1
4902551	76	C	09/19/2022	04:19	-131.761	48.654	0	228.10	0	5.4790	0	33.7630	0	26.641	0	226.047	0	128.0	4	41.7	4	-1E+10	1	-1E+10	1	-1E+10	1	-1E+10	1	-1E+10	1	-1E+10	1
4902551	76	C	09/19/2022	04:19	-131.761	48.654	0	229.10	0	5.4710	0	33.7650	0	26.644	0	227.038	0	127.4	4	41.5	4	-1E+10	1	-1E+10	1	-1E+10	1	-1E+10	1	-1E+10	1	-1E+10	1
4902551	76	C	09/19/2022	04:19	-131.761	48.654	0	230.10	0	5.4590	0	33.7670	0	26.647	0	228.028	0	126.9	4	41.4	4	-1E+10	1	-1E+10	1	-1E+10	1	-1E+10	1	-1E+10	1	-1E+10	1
4902551	76	C	09/19/2022	04:19	-131.761	48.654	0	231.10	0	5.4520	0	33.7660	0	26.647	0	229.019	0	126.4	4	41.2	4	-1E+10	1	-1E+10	1	-1E+10	1	-1E+10	1	-1E+10	1	-1E+10	1
4902551	76	C	09/19/2022	04:19	-131.761	48.654	0	232.10	0	5.4500	0	33.7670	0	26.648	0	230.009	0	125.8	4	41.0	4	-1E+10	1	-1E+10	1	-1E+10	1	-1E+10	1	-1E+10	1	-1E+10	1
4902551	76	C	09/19/2022	04:19	-131.761	48.654	0	233.10	0	5.4400	0	33.7680	0	26.650	0	231.000	0	125.2	4	40.8	4	-1E+10	1	-1E+10	1	-1E+10	1	-1E+10	1	-1E+10	1	-1E+10	1
4902551	76	C	09/19/2022	04:19	-131.761	48.654	0	234.00	0	5.4290	0	33.7680	0	26.651	0	231.891	0	124.7	4	40.6	4	-1E+10	1	-1E+10	1	-1E+10	1	-1E+10	1	-1E+10	1	-1E+10	1
4902551	76	C	09/19/2022	04:19	-131.761	48.654	0	235.00	0	5.4180	0	33.7680	0	26.652	0	232.882	0	124.1	4	40.4	4	-1E+10	1	-1E+10	1	-1E+10	1	-1E+10	1	-1E+10	1	-1E+10	1
4902551	76	C	09/19/2022	04:19	-131.761	48.654	0	236.00	0	5.4110	0	33.7690	0	26.654	0	233.872	0	123.4	4	40.2	4	-1E+10	1	-1E+10	1	-1E+10	1	-1E+10	1	-1E+10	1	-1E+10	1
4902551	76	C	09/19/2022	04:19	-131.761	48.654	0	237.00	0	5.4010	0	33.7700	0	26.656	0	234.862	0	122.8	4	40.0	4	-1E+10	1	-1E+10	1	-1E+10	1	-1E+10	1	-1E+10	1	-1E+10	1
4902551	76	C	09/19/2022	04:19	-131.761	48.654	0	238.00	0	5.3930	0	33.7710	0	26.658	0	235.853	0	122.1	4	39.7	4	-1E+10	1	-1E+10	1	-1E+10	1	-1E+10	1	-1E+10	1	-1E+10	1
4902551	76	C	09/19/2022	04:19	-131.761	48.654	0	238.90	0	5.3830	0	33.7700	0	26.658	0	236.744	0	121.4	4	39.5	4	-1E+10	1	-1E+10	1	-1E+10	1	-1E+10	1	-1E+10	1	-1E+10	1
4902551	76	C	09/19/2022	04:19	-131.761	48.654	0	239.90	0	5.3420	0	33.7740	0	26.666	0	237.735	0	120.9	4	39.3	4	-1E+10	1	-1E+10	1	-1E+10	1	-1E+10	1	-1E+10	1	-1E+10	1
4902551	76	C	09/19/2022	04:19	-131.761	48.654	0	240.90	0	5.3290	0	33.7770	0	26.670	0	238.725	0	120.4	4	39.1	4	-1E+10	1	-1E+10	1	-1E+10	1	-1E+10	1	-1E+10	1	-1E+10	1
4902551	76	C	09/19/2022	04:19	-131.761	48.654	0	241.90	0	5.3230	0	33.7760	0	26.670	0	239.715	0	119.9	4	38.9	4	-1E+10	1	-1E+10	1	-1E+10	1	-1E+10	1	-1E+10	1	-1E+10	1
4902551	76	C	09/19/2022	04:19	-131.761	48.654	0	242.80	0	5.3100	0	33.7780	0	26.673	0	240.607	0	119.4	4	38.8	4	-1E+10	1	-1E+10	1	-1E+10	1	-1E+10	1	-1E+10	1	-1E+10	1
4902551	76	C	09/19/2022	04:19	-131.761	48.654	0	243.80	0	5.3060	0	33.7780	0	26.674	0	241.597	0	119.0	4	38.6	4	-1E+10	1	-1E+10	1	-1E+10	1	-1E+10	1	-1E+10	1	-1E+10	1
4902551	76	C	09/19/2022	04:19	-131.761	48.654	0	244.70	0	5.3030	0	33.7780	0	26.674	0	242.488	0	118.5	4	38.5	4	-1E+10	1	-1E+10	1	-1E+10	1	-1E+10	1	-1E+10	1	-1E+10	1
4902551	76	C	09/19/2022	04:19	-131.761	48.654	0	245.70	0	5.3010	0	33.7780	0	26.674	0	243.479	0	117.8	4	38.3	4	-1E+10	1	-1E+10	1	-1E+10	1	-1E+10	1	-1E+10	1	-1E+10	1
4902551	76	C	09/19/2022	04:19	-131.761	48.654	0	246.60	0	5.2940	0	33.7800	0	26.677	0	244.370	0	117.2	4	38.0	4	-1E+10	1	-1E+10	1	-1E+10	1	-1E+10	1	-1E+10	1	-1E+10	1
4902551	76	C	09/19/2022	04:19	-131.761	48.654	0	247.50	0	5.2760	0	33.7800	0	26.679	0	245.261	0	116.6	4	37.8	4	-1E+10	1	-1E+10	1	-1E+10	1	-1E+10	1	-1E+10	1	-1E+10	1
4902551	76	C	09/19/2022	04:19	-131.761	48.654	0	248.90	0	5.2500	0	33.7840	0	26.685	0	246.648	0	115.9	4	37.6	4	-1E+10	1	-1E+10	1	-1E+10	1	-1E+10	1	-1E+10	1	-1E+10	1
4902551	76	C	09/19/2022	04:19	-131.761	48.654	0	250.30	0	5.2320	0	33.7850	0	26.688	0	248.034	0	115.3	4	37.4	4	-1E+10	1	-1E+10	1	-1E+10	1	-1E+10	1	-1E+10	1	-1E+10	1
4902551	76	C	09/19/2022	04:19	-131.761	48.654	0	251.30	0	5.2260	0	33.7860	0	26.689	0	249.025	0	114.9	4	37.2	4	-1E+10	1	-1E+10	1	-1E+10	1	-1E+10	1	-1E+10	1	-1E+10	1
4902551	76	C	09/19/2022	04:19	-131.761	48.654	0	252.20	0	5.2190	0	33.7860	0	26.690	0	249.916	0	114.5	4	37.1	4	-1E+10	1	-1E+10	1	-1E+10	1	-1E+10	1	-1E+10	1	-1E+10	1
4902551	76	C	09/19/2022	04:19	-131.761	48.654	0	253.10	0	5.2070	0	33.7870	0	26.692	0	250.807	0	114.0	4	36.9	4	-1E+10	1	-1E+10	1	-1E+10	1	-1E+10	1	-1E+10	1	-1E+10	1
4902551	76	C	09/19/2022	04:19	-131.761	48.654	0	254.00	0	5.2000	0	33.7850	0	26.691	0	251.699	0	113.5	4	36.8	4	-1E+10	1	-1E+10	1	-1E+10	1	-1E+10	1	-1E+10	1	-1E+10	1
4902551	76	C	09/19/2022	04:19	-131.761	48.654	0	254.90	0	5.1970	0	33.7860	0	26.693	0	252.590	0	112.9	4	36.6	4	-1E+10	1	-1E+10	1	-1E+10	1	-1E+10	1	-1E+10	1	-1E+10	1
4902551	76	C	09/19/2022	04:19	-131.761	48.654	0	255.80	0	5.1810	0	33.7910	0	26.698	0	253.481	0	112.4	4	36.4	4	-1E+10	1	-1E+10	1	-1E+10	1	-1E+10	1	-1E+10	1	-1E+10	1
4902551	76	C	09/19/2022	04:19	-131.761	48.654	0	256.80	0	5.1610	0	33.7910	0	26.701	0	254.472	0	112.0	4	36.2	4	-1E+10	1	-1E+10	1	-1E+10	1	-1E+10	1	-1E+10	1	-1E+10	1
4902551	76	C	09/19/2022	04:19	-131.761	48.654	0	257.70	0	5.1590	0	33.7900	0	26.700	0	255.363	0	111.6	4	36.1	4	-1E+10	1	-1E+10	1	-1E+10	1	-1E+10	1	-1E+10	1	-1E+10	1
4902551	76	C	09/19/2022	04:19	-131.761	48.654	0	259.00	0	5.1560	0	33.7900	0	26.701	0	256.650	0	111.0	4	35.9	4	-1E+10	1	-1E+10	1	-1E+10	1	-1E+10	1	-1E+10	1	-1E+10	1
4902551	76	C	09/19/2022	04:19	-131.761	48.654	0	260.30	0	5.1460	0	33.7930	0	26.704	0	257.938	0	110.3	4	35.7	4	-1E+10	1	-1E+10	1	-1E+10	1	-1E+10	1	-1E+10	1	-1E+10	1
4902551	76	C	09/19/2022	04:19	-131.761	48.654	0	261.20	0	5.1350	0	33.7920	0	26.705	0	258.829	0	109.9	4	35.5	4	-1E+10	1	-1E+10	1	-1E+10	1	-1E+10	1	-1E+10	1	-1E+10	1
4902551	76	C	09/19/2022	04:19	-131.761	48.654	0	262.10	0	5.1290	0	33.7920	0	26.705	0	259.720	0	109.4	4	35.4	4	-1E+10	1	-1E+10	1	-1E+10	1	-1E+10	1	-1E+10	1	-1E+10	1
4902551	76	C	09/19/2022	04:19	-131.761	48.654	0	263.00	0	5.1120	0	33.7990	0	26.713	0	260.611	0	108.9	4	35.2	4	-1E+10	1	-1E+10	1	-1E+10	1	-1E+10	1	-1E+10	1	-1E+10	1
4902551	76	C	09/19/2022	04:19	-131.761	48.654	0	263.90	0	5.1020	0	33.7960	0	26.712	0	261.503	0	108.6	4	35.1	4	-1E+10	1	-1E+10	1	-1E+10	1	-1E+10	1	-1E+10	1	-1E+10	1
4902551	76	C	09/19/2022	04:19	-131.761	48.654	0	264.80	0	5.0960	0	33.7970	0	26.713	0	262.394	0	108.2	4	35.0	4	-1E+10	1	-1E+10	1	-1E+10	1	-1E+10	1	-1E+10	1	-1E+10	1
4902551	76	C	09/19/2022	04:19	-131.761	48.654	0	265.70	0	5.0870	0	33.7980	0	26.715	0	263.285	0	107.8	4	34.8	4	-1E+10	1	-1E+10	1	-1E+10	1	-1E+10	1	-1E+10	1	-1E+10	1
4902551	76	C	09/19/2022	04:19	-131.761	48.654	0	266.60	0	5.0730	0	33.7990	0	26.717	0	264.176	0	107.5	4	34.7	4	-1E+10	1	-1E+10	1	-1E+10	1	-1E+10	1	-1E+10	1	-1E+10	1
4902551	76	C	09/19/2022	04:19	-131.761	48.654	0	267.90	0	5.0680	0	33.7990	0	26.718	0	265.464	0	107.0	4	34.6	4	-1E+10	1	-1E+10	1	-1E+10	1	-1E+10	1	-1E+10	1	-1E+10	1
4902551	76	C	09/19/2022	04:19	-131.761	48.654	0	269.30	0	5.0690	0	33.7990	0	26.718	0	266.850	0	106.3	4	34.3	4	-1E+10	1	-1E+10	1	-1E+10	1	-1E+10	1	-1E+10	1	-1E+10	1
4902551	76	C	09/19/2022	04:19	-131.761	48.654	0	270.20	0	5.0680	0	33.7990	0	26.718	0	267.741	0	105.9	4	34.2	4	-1E+10	1	-1E+10	1	-1E+10	1	-1E+10	1	-1E+10	1	-1E+10	1
4902551	76	C	09/19/2022	04:19	-131.761	48.654	0	271.10	0	5.0650	0	33.7980	0	26.717	0	268.633	0	105.4	4	34.0	4	-1E+10	1	-1E+10	1	-1E+10	1	-1E+10	1	-1E+10	1	-1E+10	1
4902551	76	C	09/19/2022	04:19	-131.761	48.654	0	272.00	0	5.0480	0	33.8040	0	26.724	0	269.524	0	104.9	4	33.9	4	-1E+10	1	-1E+10	1	-1E+10	1	-1E+10	1	-1E+10	1	-1E+10	1
4902551	76	C	09/19/2022	04:19	-131.761	48.654	0	272.90	0	5.0420	0	33.8030	0	26.724	0	270.415	0	104.4	4	33.7	4	-1E+10	1	-1E+10	1	-1E+10	1	-1E+10	1	-1E+10	1	-1E+10	1
4902551	76	C	09/19/2022	04:19	-131.761	48.654	0	273.90	0	5.0420	0	33.8030	0	26.724	0	271.405	0	104.0	4	33.6	4	-1E+10	1	-1E+10	1	-1E+10	1	-1E+10	1	-1E+10	1	-1E+10	1
4902551	76	C	09/19/2022	04:19	-131.761	48.654	0	274.70	0	5.0410	0	33.8020	0	26.723	0	272.198	0	103.4	4	33.4	4	-1E+10	1	-1E+10	1	-1E+10	1	-1E+10	1	-1E+10	1	-1E+10	1
4902551	76	C	09/19/2022	04:19	-131.761	48.654	0	275.70	0	5.0340	0	33.8040	0	26.726	0	273.188	0	102.9	4	33.2	4	-1E+10	1	-1E+10	1	-1E+10	1	-1E+10	1	-1E+10	1	-1E+10	1
4902551	76	C	09/19/2022	04:19	-131.761	48.654	0	276.60	0	5.0260	0	33.8050	0	26.727	0	274.079	0	102.3	4	33.0	4	-1E+10	1	-1E+10	1	-1E+10	1	-1E+10	1	-1E+10	1	-1E+10	1
4902551	76	C	09/19/2022	04:19	-131.761	48.654	0	277.90	0	5.0070	0	33.8070	0	26.731	0	275.366	0	101.5	4	32.7	4	-1E+10	1	-1E+10	1	-1E+10	1	-1E+10	1	-1E+10	1	-1E+10	1
4902551	76	C	09/19/2022	04:19	-131.761	48.654	0	279.40	0	4.9880	0	33.8100	0	26.736	0	276.852	0	100.7	4	32.5	4	-1E+10	1	-1E+10	1	-1E+10	1	-1E+10	1	-1E+10	1	-1E+10	1
4902551	76	C	09/19/2022	04:19	-131.761	48.654	0	280.30	0	4.9780	0	33.8100	0	26.737	0	277.743	0	100.3	4	32.3	4	-1E+10	1	-1E+10	1	-1E+10	1	-1E+10	1	-1E+10	1	-1E+10	1
4902551	76	C	09/19/2022	04:19	-131.761	48.654	0	281.20	0	4.9750	0	33.8100	0	26.737	0	278.634	0	99.8	4	32.2	4	-1E+10	1	-1E+10	1	-1E+10	1	-1E+10	1	-1E+10	1	-1E+10	1
4902551	76	C	09/19/2022	04:19	-131.761	48.654	0	282.20	0	4.9750	0	33.8100	0	26.737	0	279.624	0	99.3	4	32.0	4	-1E+10	1	-1E+10	1	-1E+10	1	-1E+10	1	-1E+10	1	-1E+10	1
4902551	76	C	09/19/2022	04:19	-131.761	48.654	0	283.10	0	4.9730	0	33.8100	0	26.737	0	280.515	0	98.7	4	31.8	4	-1E+10	1	-1E+10	1	-1E+10	1	-1E+10	1	-1E+10	1	-1E+10	1
4902551	76	C	09/19/2022	04:19	-131.761	48.654	0	284.00	0	4.9700	0	33.8100	0	26.738	0	281.406	0	98.2	4	31.6	4	-1E+10	1	-1E+10	1	-1E+10	1	-1E+10	1	-1E+10	1	-1E+10	1
4902551	76	C	09/19/2022	04:19	-131.761	48.654	0	284.90	0	4.9520	0	33.8130	0	26.742	0	282.298	0	97.6	4	31.4	4	-1E+10	1	-1E+10	1	-1E+10	1	-1E+10	1	-1E+10	1	-1E+10	1
4902551	76	C	09/19/2022	04:19	-131.761	48.654	0	285.80	0	4.9220	0	33.8160	0	26.748	0	283.189	0	97.3	4	31.3	4	-1E+10	1	-1E+10	1	-1E+10	1	-1E+10	1	-1E+10	1	-1E+10	1
4902551	76	C	09/19/2022	04:19	-131.761	48.654	0	286.80	0	4.9120	0	33.8180	0	26.751	0	284.179	0	96.9	4	31.2	4	-1E+10	1	-1E+10	1	-1E+10	1	-1E+10	1	-1E+10	1	-1E+10	1
4902551	76	C	09/19/2022	04:19	-131.761	48.654	0	287.70	0	4.9090	0	33.8170	0	26.750	0	285.070	0	96.6	4	31.1	4	-1E+10	1	-1E+10	1	-1E+10	1	-1E+10	1	-1E+10	1	-1E+10	1
4902551	76	C	09/19/2022	04:19	-131.761	48.654	0	288.70	0	4.9090	0	33.8170	0	26.750	0	286.060	0	96.2	4	31.0	4	-1E+10	1	-1E+10	1	-1E+10	1	-1E+10	1	-1E+10	1	-1E+10	1
4902551	76	C	09/19/2022	04:19	-131.761	48.654	0	289.60	0	4.9090	0	33.8170	0	26.750	0	286.951	0	95.8	4	30.8	4	-1E+10	1	-1E+10	1	-1E+10	1	-1E+10	1	-1E+10	1	-1E+10	1
4902551	76	C	09/19/2022	04:19	-131.761	48.654	0	290.60	0	4.9090	0	33.8170	0	26.750	0	287.942	0	95.3	4	30.7	4	-1E+10	1	-1E+10	1	-1E+10	1	-1E+10	1	-1E+10	1	-1E+10	1
4902551	76	C	09/19/2022	04:19	-131.761	48.654	0	291.50	0	4.9060	0	33.8180	0	26.751	0	288.833	0	94.8	4	30.5	4	-1E+10	1	-1E+10	1	-1E+10	1	-1E+10	1	-1E+10	1	-1E+10	1
4902551	76	C	09/19/2022	04:19	-131.761	48.654	0	292.90	0	4.8910	0	33.8190	0	26.754	0	290.219	0	94.0	4	30.2	4	-1E+10	1	-1E+10	1	-1E+10	1	-1E+10	1	-1E+10	1	-1E+10	1
4902551	76	C	09/19/2022	04:19	-131.761	48.654	0	294.40	0	4.8830	0	33.8210	0	26.756	0	291.704	0	93.2	4	30.0	4	-1E+10	1	-1E+10	1	-1E+10	1	-1E+10	1	-1E+10	1	-1E+10	1
4902551	76	C	09/19/2022	04:19	-131.761	48.654	0	295.30	0	4.8820	0	33.8210	0	26.757	0	292.595	0	92.5	4	29.8	4	-1E+10	1	-1E+10	1	-1E+10	1	-1E+10	1	-1E+10	1	-1E+10	1
4902551	76	C	09/19/2022	04:19	-131.761	48.654	0	296.30	0	4.8800	0	33.8220	0	26.758	0	293.585	0	91.8	4	29.5	4	-1E+10	1	-1E+10	1	-1E+10	1	-1E+10	1	-1E+10	1	-1E+10	1
4902551	76	C	09/19/2022	04:19	-131.761	48.654	0	297.30	0	4.8720	0	33.8240	0	26.760	0	294.576	0	91.1	4	29.3	4	-1E+10	1	-1E+10	1	-1E+10	1	-1E+10	1	-1E+10	1	-1E+10	1
4902551	76	C	09/19/2022	04:19	-131.761	48.654	0	298.20	0	4.8690	0	33.8250	0	26.761	0	295.467	0	90.5	4	29.1	4	-1E+10	1	-1E+10	1	-1E+10	1	-1E+10	1	-1E+10	1	-1E+10	1
4902551	76	C	09/19/2022	04:19	-131.761	48.654	0	299.20	0	4.8550	0	33.8280	0	26.765	0	296.457	0	90.0	4	28.9	4	-1E+10	1	-1E+10	1	-1E+10	1	-1E+10	1	-1E+10	1	-1E+10	1
4902551	76	C	09/19/2022	04:19	-131.761	48.654	0	300.10	0	4.8740	0	33.8220	0	26.758	0	297.348	0	89.5	4	28.8	4	-1E+10	1	-1E+10	1	-1E+10	1	-1E+10	1	-1E+10	1	-1E+10	1
4902551	76	C	09/19/2022	04:19	-131.761	48.654	0	301.10	0	4.8540	0	33.8420	0	26.776	0	298.338	0	89.1	4	28.6	4	-1E+10	1	-1E+10	1	-1E+10	1	-1E+10	1	-1E+10	1	-1E+10	1
4902551	76	C	09/19/2022	04:19	-131.761	48.654	0	302.00	0	4.8260	0	33.8340	0	26.773	0	299.229	0	88.8	4	28.5	4	-1E+10	1	-1E+10	1	-1E+10	1	-1E+10	1	-1E+10	1	-1E+10	1
4902551	76	C	09/19/2022	04:19	-131.761	48.654	0	303.00	0	4.8250	0	33.8350	0	26.774	0	300.219	0	88.5	4	28.4	4	-1E+10	1	-1E+10	1	-1E+10	1	-1E+10	1	-1E+10	1	-1E+10	1
4902551	76	C	09/19/2022	04:19	-131.761	48.654	0	304.00	0	4.8240	0	33.8350	0	26.774	0	301.209	0	88.1	4	28.3	4	-1E+10	1	-1E+10	1	-1E+10	1	-1E+10	1	-1E+10	1	-1E+10	1
4902551	76	C	09/19/2022	04:19	-131.761	48.654	0	304.90	0	4.8230	0	33.8350	0	26.774	0	302.100	0	87.7	4	28.2	4	-1E+10	1	-1E+10	1	-1E+10	1	-1E+10	1	-1E+10	1	-1E+10	1
4902551	76	C	09/19/2022	04:19	-131.761	48.654	0	305.90	0	4.8220	0	33.8350	0	26.774	0	303.090	0	87.2	4	28.0	4	-1E+10	1	-1E+10	1	-1E+10	1	-1E+10	1	-1E+10	1	-1E+10	1
4902551	76	C	09/19/2022	04:19	-131.761	48.654	0	306.90	0	4.8190	0	33.8360	0	26.776	0	304.081	0	86.7	4	27.9	4	-1E+10	1	-1E+10	1	-1E+10	1	-1E+10	1	-1E+10	1	-1E+10	1
4902551	76	C	09/19/2022	04:19	-131.761	48.654	0	307.90	0	4.8190	0	33.8360	0	26.776	0	305.071	0	86.2	4	27.7	4	-1E+10	1	-1E+10	1	-1E+10	1	-1E+10	1	-1E+10	1	-1E+10	1
4902551	76	C	09/19/2022	04:19	-131.761	48.654	0	308.90	0	4.8210	0	33.8390	0	26.778	0	306.061	0	85.6	4	27.5	4	-1E+10	1	-1E+10	1	-1E+10	1	-1E+10	1	-1E+10	1	-1E+10	1
4902551	76	C	09/19/2022	04:19	-131.761	48.654	0	309.80	0	4.8180	0	33.8410	0	26.780	0	306.952	0	85.0	4	27.3	4	-1E+10	1	-1E+10	1	-1E+10	1	-1E+10	1	-1E+10	1	-1E+10	1
4902551	76	C	09/19/2022	04:19	-131.761	48.654	0	310.80	0	4.8170	0	33.8410	0	26.780	0	307.942	0	84.3	4	27.1	4	-1E+10	1	-1E+10	1	-1E+10	1	-1E+10	1	-1E+10	1	-1E+10	1
4902551	76	C	09/19/2022	04:19	-131.761	48.654	0	311.80	0	4.8060	0	33.8440	0	26.783	0	308.932	0	83.7	4	26.9	4	-1E+10	1	-1E+10	1	-1E+10	1	-1E+10	1	-1E+10	1	-1E+10	1
4902551	76	C	09/19/2022	04:19	-131.761	48.654	0	312.80	0	4.8040	0	33.8460	0	26.785	0	309.922	0	83.1	4	26.7	4	-1E+10	1	-1E+10	1	-1E+10	1	-1E+10	1	-1E+10	1	-1E+10	1
4902551	76	C	09/19/2022	04:19	-131.761	48.654	0	313.80	0	4.8290	0	33.8420	0	26.779	0	310.912	0	82.6	4	26.5	4	-1E+10	1	-1E+10	1	-1E+10	1	-1E+10	1	-1E+10	1	-1E+10	1
4902551	76	C	09/19/2022	04:19	-131.761	48.654	0	314.80	0	4.8590	0	33.8620	0	26.792	0	311.902	0	82.3	4	26.5	4	-1E+10	1	-1E+10	1	-1E+10	1	-1E+10	1	-1E+10	1	-1E+10	1
4902551	76	C	09/19/2022	04:19	-131.761	48.654	0	315.80	0	4.8590	0	33.8610	0	26.791	0	312.892	0	82.1	4	26.4	4	-1E+10	1	-1E+10	1	-1E+10	1	-1E+10	1	-1E+10	1	-1E+10	1
4902551	76	C	09/19/2022	04:19	-131.761	48.654	0	316.80	0	4.8580	0	33.8630	0	26.793	0	313.882	0	81.9	4	26.3	4	-1E+10	1	-1E+10	1	-1E+10	1	-1E+10	1	-1E+10	1	-1E+10	1
4902551	76	C	09/19/2022	04:19	-131.761	48.654	0	317.80	0	4.8510	0	33.8620	0	26.793	0	314.872	0	81.7	4	26.3	4	-1E+10	1	-1E+10	1	-1E+10	1	-1E+10	1	-1E+10	1	-1E+10	1
4902551	76	C	09/19/2022	04:19	-131.761	48.654	0	318.80	0	4.8440	0	33.8630	0	26.794	0	315.862	0	81.4	4	26.2	4	-1E+10	1	-1E+10	1	-1E+10	1	-1E+10	1	-1E+10	1	-1E+10	1
4902551	76	C	09/19/2022	04:19	-131.761	48.654	0	319.80	0	4.8370	0	33.8610	0	26.793	0	316.852	0	81.2	4	26.1	4	-1E+10	1	-1E+10	1	-1E+10	1	-1E+10	1	-1E+10	1	-1E+10	1
4902551	76	C	09/19/2022	04:19	-131.761	48.654	0	320.80	0	4.8270	0	33.8630	0	26.796	0	317.842	0	80.9	4	26.0	4	-1E+10	1	-1E+10	1	-1E+10	1	-1E+10	1	-1E+10	1	-1E+10	1
4902551	76	C	09/19/2022	04:19	-131.761	48.654	0	321.80	0	4.7810	0	33.8660	0	26.804	0	318.832	0	80.7	4	25.9	4	-1E+10	1	-1E+10	1	-1E+10	1	-1E+10	1	-1E+10	1	-1E+10	1
4902551	76	C	09/19/2022	04:19	-131.761	48.654	0	322.70	0	4.7560	0	33.8600	0	26.802	0	319.723	0	80.4	4	25.8	4	-1E+10	1	-1E+10	1	-1E+10	1	-1E+10	1	-1E+10	1	-1E+10	1
4902551	76	C	09/19/2022	04:19	-131.761	48.654	0	323.80	0	4.7130	0	33.8510	0	26.799	0	320.812	0	80.0	4	25.6	4	-1E+10	1	-1E+10	1	-1E+10	1	-1E+10	1	-1E+10	1	-1E+10	1
4902551	76	C	09/19/2022	04:19	-131.761	48.654	0	324.90	0	4.7230	0	33.8560	0	26.802	0	321.901	0	79.5	4	25.5	4	-1E+10	1	-1E+10	1	-1E+10	1	-1E+10	1	-1E+10	1	-1E+10	1
4902551	76	C	09/19/2022	04:19	-131.761	48.654	0	326.00	0	4.7420	0	33.8590	0	26.802	0	322.990	0	79.1	4	25.4	4	-1E+10	1	-1E+10	1	-1E+10	1	-1E+10	1	-1E+10	1	-1E+10	1
4902551	76	C	09/19/2022	04:19	-131.761	48.654	0	326.80	0	4.7400	0	33.8630	0	26.806	0	323.782	0	78.8	4	25.3	4	-1E+10	1	-1E+10	1	-1E+10	1	-1E+10	1	-1E+10	1	-1E+10	1
4902551	76	C	09/19/2022	04:19	-131.761	48.654	0	328.00	0	4.7380	0	33.8620	0	26.805	0	324.970	0	78.4	4	25.1	4	-1E+10	1	-1E+10	1	-1E+10	1	-1E+10	1	-1E+10	1	-1E+10	1
4902551	76	C	09/19/2022	04:19	-131.761	48.654	0	329.10	0	4.7280	0	33.8650	0	26.809	0	326.059	0	78.0	4	25.0	4	-1E+10	1	-1E+10	1	-1E+10	1	-1E+10	1	-1E+10	1	-1E+10	1
4902551	76	C	09/19/2022	04:19	-131.761	48.654	0	329.90	0	4.7180	0	33.8640	0	26.809	0	326.851	0	77.7	4	24.9	4	-1E+10	1	-1E+10	1	-1E+10	1	-1E+10	1	-1E+10	1	-1E+10	1
4902551	76	C	09/19/2022	04:19	-131.761	48.654	0	330.70	0	4.7150	0	33.8620	0	26.808	0	327.643	0	77.4	4	24.8	4	-1E+10	1	-1E+10	1	-1E+10	1	-1E+10	1	-1E+10	1	-1E+10	1
4902551	76	C	09/19/2022	04:19	-131.761	48.654	0	331.90	0	4.7030	0	33.8650	0	26.812	0	328.831	0	77.0	4	24.7	4	-1E+10	1	-1E+10	1	-1E+10	1	-1E+10	1	-1E+10	1	-1E+10	1
4902551	76	C	09/19/2022	04:19	-131.761	48.654	0	333.10	0	4.6940	0	33.8660	0	26.813	0	330.019	0	76.6	4	24.5	4	-1E+10	1	-1E+10	1	-1E+10	1	-1E+10	1	-1E+10	1	-1E+10	1
4902551	76	C	09/19/2022	04:19	-131.761	48.654	0	333.90	0	4.6910	0	33.8660	0	26.814	0	330.811	0	76.3	4	24.4	4	-1E+10	1	-1E+10	1	-1E+10	1	-1E+10	1	-1E+10	1	-1E+10	1
4902551	76	C	09/19/2022	04:19	-131.761	48.654	0	334.70	0	4.6900	0	33.8660	0	26.814	0	331.603	0	76.1	4	24.4	4	-1E+10	1	-1E+10	1	-1E+10	1	-1E+10	1	-1E+10	1	-1E+10	1
4902551	76	C	09/19/2022	04:19	-131.761	48.654	0	336.00	0	4.6880	0	33.8670	0	26.815	0	332.890	0	75.6	4	24.2	4	-1E+10	1	-1E+10	1	-1E+10	1	-1E+10	1	-1E+10	1	-1E+10	1
4902551	76	C	09/19/2022	04:19	-131.761	48.654	0	337.20	0	4.6840	0	33.8690	0	26.817	0	334.078	0	75.2	4	24.1	4	-1E+10	1	-1E+10	1	-1E+10	1	-1E+10	1	-1E+10	1	-1E+10	1
4902551	76	C	09/19/2022	04:19	-131.761	48.654	0	338.00	0	4.6770	0	33.8700	0	26.818	0	334.870	0	74.9	4	24.0	4	-1E+10	1	-1E+10	1	-1E+10	1	-1E+10	1	-1E+10	1	-1E+10	1
4902551	76	C	09/19/2022	04:19	-131.761	48.654	0	338.80	0	4.6710	0	33.8680	0	26.818	0	335.662	0	74.6	4	23.9	4	-1E+10	1	-1E+10	1	-1E+10	1	-1E+10	1	-1E+10	1	-1E+10	1
4902551	76	C	09/19/2022	04:19	-131.761	48.654	0	339.60	0	4.6650	0	33.8780	0	26.826	0	336.454	0	74.3	4	23.8	4	-1E+10	1	-1E+10	1	-1E+10	1	-1E+10	1	-1E+10	1	-1E+10	1
4902551	76	C	09/19/2022	04:19	-131.761	48.654	0	340.90	0	4.6550	0	33.8660	0	26.818	0	337.740	0	73.9	4	23.6	4	-1E+10	1	-1E+10	1	-1E+10	1	-1E+10	1	-1E+10	1	-1E+10	1
4902551	76	C	09/19/2022	04:19	-131.761	48.654	0	342.10	0	4.6300	0	33.8730	0	26.826	0	338.928	0	73.4	4	23.5	4	-1E+10	1	-1E+10	1	-1E+10	1	-1E+10	1	-1E+10	1	-1E+10	1
4902551	76	C	09/19/2022	04:19	-131.761	48.654	0	343.00	0	4.6200	0	33.8700	0	26.825	0	339.819	0	73.2	4	23.4	4	-1E+10	1	-1E+10	1	-1E+10	1	-1E+10	1	-1E+10	1	-1E+10	1
4902551	76	C	09/19/2022	04:19	-131.761	48.654	0	343.80	0	4.6090	0	33.8720	0	26.827	0	340.611	0	72.9	4	23.3	4	-1E+10	1	-1E+10	1	-1E+10	1	-1E+10	1	-1E+10	1	-1E+10	1
4902551	76	C	09/19/2022	04:19	-131.761	48.654	0	344.70	0	4.5960	0	33.8710	0	26.828	0	341.502	0	72.7	4	23.2	4	-1E+10	1	-1E+10	1	-1E+10	1	-1E+10	1	-1E+10	1	-1E+10	1
4902551	76	C	09/19/2022	04:19	-131.761	48.654	0	345.90	0	4.5870	0	33.8710	0	26.829	0	342.690	0	72.2	4	23.1	4	-1E+10	1	-1E+10	1	-1E+10	1	-1E+10	1	-1E+10	1	-1E+10	1
4902551	76	C	09/19/2022	04:19	-131.761	48.654	0	347.20	0	4.5810	0	33.8710	0	26.830	0	343.977	0	71.7	4	22.9	4	-1E+10	1	-1E+10	1	-1E+10	1	-1E+10	1	-1E+10	1	-1E+10	1
4902551	76	C	09/19/2022	04:19	-131.761	48.654	0	348.10	0	4.5770	0	33.8720	0	26.831	0	344.868	0	71.5	4	22.8	4	-1E+10	1	-1E+10	1	-1E+10	1	-1E+10	1	-1E+10	1	-1E+10	1
4902551	76	C	09/19/2022	04:19	-131.761	48.654	0	348.90	0	4.5750	0	33.8720	0	26.831	0	345.660	0	71.1	4	22.7	4	-1E+10	1	-1E+10	1	-1E+10	1	-1E+10	1	-1E+10	1	-1E+10	1
4902551	76	C	09/19/2022	04:19	-131.761	48.654	0	349.80	0	4.5750	0	33.8720	0	26.831	0	346.551	0	70.8	4	22.6	4	-1E+10	1	-1E+10	1	-1E+10	1	-1E+10	1	-1E+10	1	-1E+10	1
4902551	76	C	09/19/2022	04:19	-131.761	48.654	0	352.80	0	4.5570	0	33.8770	0	26.837	0	349.520	0	69.7	4	22.3	4	-1E+10	1	-1E+10	1	-1E+10	1	-1E+10	1	-1E+10	1	-1E+10	1
4902551	76	C	09/19/2022	04:19	-131.761	48.654	0	357.70	0	4.5220	0	33.8800	0	26.843	0	354.370	0	68.3	4	21.8	4	-1E+10	1	-1E+10	1	-1E+10	1	-1E+10	1	-1E+10	1	-1E+10	1
4902551	76	C	09/19/2022	04:19	-131.761	48.654	0	362.80	0	4.5090	0	33.8840	0	26.848	0	359.419	0	66.7	4	21.3	4	-1E+10	1	-1E+10	1	-1E+10	1	-1E+10	1	-1E+10	1	-1E+10	1
4902551	76	C	09/19/2022	04:19	-131.761	48.654	0	367.80	0	4.4870	0	33.8920	0	26.857	0	364.368	0	65.1	4	20.7	4	-1E+10	1	-1E+10	1	-1E+10	1	-1E+10	1	-1E+10	1	-1E+10	1
4902551	76	C	09/19/2022	04:19	-131.761	48.654	0	372.90	0	4.4850	0	33.8980	0	26.862	0	369.415	0	63.8	4	20.3	4	-1E+10	1	-1E+10	1	-1E+10	1	-1E+10	1	-1E+10	1	-1E+10	1
4902551	76	C	09/19/2022	04:19	-131.761	48.654	0	378.00	0	4.4690	0	33.9040	0	26.868	0	374.463	0	62.2	4	19.8	4	-1E+10	1	-1E+10	1	-1E+10	1	-1E+10	1	-1E+10	1	-1E+10	1
4902551	76	C	09/19/2022	04:19	-131.761	48.654	0	383.00	0	4.4490	0	33.9110	0	26.876	0	379.412	0	61.0	4	19.4	4	-1E+10	1	-1E+10	1	-1E+10	1	-1E+10	1	-1E+10	1	-1E+10	1
4902551	76	C	09/19/2022	04:19	-131.761	48.654	0	388.00	0	4.4420	0	33.9160	0	26.881	0	384.360	0	59.8	4	19.0	4	-1E+10	1	-1E+10	1	-1E+10	1	-1E+10	1	-1E+10	1	-1E+10	1
4902551	76	C	09/19/2022	04:19	-131.761	48.654	0	393.00	0	4.4320	0	33.9220	0	26.887	0	389.309	0	58.7	4	18.7	4	-1E+10	1	-1E+10	1	-1E+10	1	-1E+10	1	-1E+10	1	-1E+10	1
4902551	76	C	09/19/2022	04:19	-131.761	48.654	0	397.90	0	4.4310	0	33.9280	0	26.892	0	394.158	0	57.6	4	18.3	4	-1E+10	1	-1E+10	1	-1E+10	1	-1E+10	1	-1E+10	1	-1E+10	1
4902551	76	C	09/19/2022	04:19	-131.761	48.654	0	402.80	0	4.4260	0	33.9360	0	26.898	0	399.007	0	56.5	4	18.0	4	-1E+10	1	-1E+10	1	-1E+10	1	-1E+10	1	-1E+10	1	-1E+10	1
4902551	76	C	09/19/2022	04:19	-131.761	48.654	0	407.80	0	4.4090	0	33.9380	0	26.902	0	403.955	0	55.6	4	17.7	4	-1E+10	1	-1E+10	1	-1E+10	1	-1E+10	1	-1E+10	1	-1E+10	1
4902551	76	C	09/19/2022	04:19	-131.761	48.654	0	412.70	0	4.4040	0	33.9420	0	26.906	0	408.804	0	54.2	4	17.2	4	-1E+10	1	-1E+10	1	-1E+10	1	-1E+10	1	-1E+10	1	-1E+10	1
4902551	76	C	09/19/2022	04:19	-131.761	48.654	0	417.70	0	4.4070	0	33.9540	0	26.915	0	413.752	0	52.9	4	16.8	4	-1E+10	1	-1E+10	1	-1E+10	1	-1E+10	1	-1E+10	1	-1E+10	1
4902551	76	C	09/19/2022	04:19	-131.761	48.654	0	422.80	0	4.3990	0	33.9620	0	26.922	0	418.799	0	52.1	4	16.6	4	-1E+10	1	-1E+10	1	-1E+10	1	-1E+10	1	-1E+10	1	-1E+10	1
4902551	76	C	09/19/2022	04:19	-131.761	48.654	0	428.00	0	4.3900	0	33.9630	0	26.924	0	423.944	0	51.1	4	16.3	4	-1E+10	1	-1E+10	1	-1E+10	1	-1E+10	1	-1E+10	1	-1E+10	1
4902551	76	C	09/19/2022	04:19	-131.761	48.654	0	432.60	0	4.3780	0	33.9680	0	26.929	0	428.496	0	50.1	4	15.9	4	-1E+10	1	-1E+10	1	-1E+10	1	-1E+10	1	-1E+10	1	-1E+10	1
4902551	76	C	09/19/2022	04:19	-131.761	48.654	0	438.00	0	4.3740	0	33.9740	0	26.934	0	433.839	0	49.2	4	15.7	4	-1E+10	1	-1E+10	1	-1E+10	1	-1E+10	1	-1E+10	1	-1E+10	1
4902551	76	C	09/19/2022	04:19	-131.761	48.654	0	443.30	0	4.3570	0	33.9780	0	26.939	0	439.083	0	48.1	4	15.3	4	-1E+10	1	-1E+10	1	-1E+10	1	-1E+10	1	-1E+10	1	-1E+10	1
4902551	76	C	09/19/2022	04:19	-131.761	48.654	0	448.20	0	4.3460	0	33.9840	0	26.945	0	443.931	0	47.0	4	14.9	4	-1E+10	1	-1E+10	1	-1E+10	1	-1E+10	1	-1E+10	1	-1E+10	1
4902551	76	C	09/19/2022	04:19	-131.761	48.654	0	453.20	0	4.3240	0	33.9910	0	26.953	0	448.878	0	45.8	4	14.6	4	-1E+10	1	-1E+10	1	-1E+10	1	-1E+10	1	-1E+10	1	-1E+10	1
4902551	76	C	09/19/2022	04:19	-131.761	48.654	0	458.20	0	4.3330	0	33.9990	0	26.959	0	453.825	0	44.8	4	14.2	4	-1E+10	1	-1E+10	1	-1E+10	1	-1E+10	1	-1E+10	1	-1E+10	1
4902551	76	C	09/19/2022	04:19	-131.761	48.654	0	463.30	0	4.3500	0	34.0050	0	26.962	0	458.871	0	43.6	4	13.9	4	-1E+10	1	-1E+10	1	-1E+10	1	-1E+10	1	-1E+10	1	-1E+10	1
4902551	76	C	09/19/2022	04:19	-131.761	48.654	0	467.90	0	4.3440	0	34.0150	0	26.970	0	463.422	0	42.7	4	13.6	4	-1E+10	1	-1E+10	1	-1E+10	1	-1E+10	1	-1E+10	1	-1E+10	1
4902551	76	C	09/19/2022	04:19	-131.761	48.654	0	472.60	0	4.3250	0	34.0200	0	26.976	0	468.071	0	42.0	4	13.4	4	-1E+10	1	-1E+10	1	-1E+10	1	-1E+10	1	-1E+10	1	-1E+10	1
4902551	76	C	09/19/2022	04:19	-131.761	48.654	0	478.00	0	4.3140	0	34.0230	0	26.980	0	473.413	0	41.2	4	13.1	4	-1E+10	1	-1E+10	1	-1E+10	1	-1E+10	1	-1E+10	1	-1E+10	1
4902551	76	C	09/19/2022	04:19	-131.761	48.654	0	482.80	0	4.3060	0	34.0260	0	26.983	0	478.162	0	40.4	4	12.8	4	-1E+10	1	-1E+10	1	-1E+10	1	-1E+10	1	-1E+10	1	-1E+10	1
4902551	76	C	09/19/2022	04:19	-131.761	48.654	0	487.90	0	4.2870	0	34.0310	0	26.989	0	483.207	0	39.1	4	12.4	4	-1E+10	1	-1E+10	1	-1E+10	1	-1E+10	1	-1E+10	1	-1E+10	1
4902551	76	C	09/19/2022	04:19	-131.761	48.654	0	493.10	0	4.2700	0	34.0380	0	26.997	0	488.351	0	37.9	4	12.0	4	-1E+10	1	-1E+10	1	-1E+10	1	-1E+10	1	-1E+10	1	-1E+10	1
4902551	76	C	09/19/2022	04:19	-131.761	48.654	0	498.10	0	4.2400	0	34.0440	0	27.005	0	493.297	0	36.9	4	11.7	4	-1E+10	1	-1E+10	1	-1E+10	1	-1E+10	1	-1E+10	1	-1E+10	1
4902551	76	C	09/19/2022	04:19	-131.761	48.654	0	503.10	0	4.2130	0	34.0490	0	27.012	0	498.243	0	36.2	4	11.5	4	-1E+10	1	-1E+10	1	-1E+10	1	-1E+10	1	-1E+10	1	-1E+10	1
4902551	76	C	09/19/2022	04:19	-131.761	48.654	0	508.20	0	4.1960	0	34.0540	0	27.017	0	503.287	0	35.5	4	11.3	4	-1E+10	1	-1E+10	1	-1E+10	1	-1E+10	1	-1E+10	1	-1E+10	1
4902551	76	C	09/19/2022	04:19	-131.761	48.654	0	513.00	0	4.1860	0	34.0560	0	27.020	0	508.035	0	34.8	4	11.0	4	-1E+10	1	-1E+10	1	-1E+10	1	-1E+10	1	-1E+10	1	-1E+10	1
4902551	76	C	09/19/2022	04:19	-131.761	48.654	0	517.80	0	4.1790	0	34.0600	0	27.024	0	512.782	0	33.9	4	10.8	4	-1E+10	1	-1E+10	1	-1E+10	1	-1E+10	1	-1E+10	1	-1E+10	1
4902551	76	C	09/19/2022	04:19	-131.761	48.654	0	523.00	0	4.1640	0	34.0670	0	27.031	0	517.926	0	32.9	4	10.4	4	-1E+10	1	-1E+10	1	-1E+10	1	-1E+10	1	-1E+10	1	-1E+10	1
4902551	76	C	09/19/2022	04:19	-131.761	48.654	0	527.90	0	4.1470	0	34.0750	0	27.039	0	522.772	0	32.0	4	10.1	4	-1E+10	1	-1E+10	1	-1E+10	1	-1E+10	1	-1E+10	1	-1E+10	1
4902551	76	C	09/19/2022	04:19	-131.761	48.654	0	532.80	0	4.1400	0	34.0800	0	27.044	0	527.618	0	31.1	4	9.8	4	-1E+10	1	-1E+10	1	-1E+10	1	-1E+10	1	-1E+10	1	-1E+10	1
4902551	76	C	09/19/2022	04:19	-131.761	48.654	0	537.90	0	4.1410	0	34.0860	0	27.049	0	532.662	0	30.4	4	9.6	4	-1E+10	1	-1E+10	1	-1E+10	1	-1E+10	1	-1E+10	1	-1E+10	1
4902551	76	C	09/19/2022	04:19	-131.761	48.654	0	542.70	0	4.1270	0	34.0890	0	27.053	0	537.409	0	29.7	4	9.4	4	-1E+10	1	-1E+10	1	-1E+10	1	-1E+10	1	-1E+10	1	-1E+10	1
4902551	76	C	09/19/2022	04:19	-131.761	48.654	0	548.10	0	4.1140	0	34.0960	0	27.059	0	542.749	0	28.8	4	9.1	4	-1E+10	1	-1E+10	1	-1E+10	1	-1E+10	1	-1E+10	1	-1E+10	1
4902551	76	C	09/19/2022	04:19	-131.761	48.654	0	552.90	0	4.1010	0	34.1010	0	27.065	0	547.496	0	28.2	4	8.9	4	-1E+10	1	-1E+10	1	-1E+10	1	-1E+10	1	-1E+10	1	-1E+10	1
4902551	76	C	09/19/2022	04:19	-131.761	48.654	0	557.80	0	4.0860	0	34.1060	0	27.070	0	552.342	0	27.6	4	8.7	4	-1E+10	1	-1E+10	1	-1E+10	1	-1E+10	1	-1E+10	1	-1E+10	1
4902551	76	C	09/19/2022	04:19	-131.761	48.654	0	563.10	0	4.0730	0	34.1100	0	27.075	0	557.583	0	26.8	4	8.5	4	-1E+10	1	-1E+10	1	-1E+10	1	-1E+10	1	-1E+10	1	-1E+10	1
4902551	76	C	09/19/2022	04:19	-131.761	48.654	0	567.90	0	4.0630	0	34.1140	0	27.079	0	562.329	0	26.2	4	8.3	4	-1E+10	1	-1E+10	1	-1E+10	1	-1E+10	1	-1E+10	1	-1E+10	1
4902551	76	C	09/19/2022	04:19	-131.761	48.654	0	572.60	0	4.0500	0	34.1180	0	27.084	0	566.977	0	25.4	4	8.0	4	-1E+10	1	-1E+10	1	-1E+10	1	-1E+10	1	-1E+10	1	-1E+10	1
4902551	76	C	09/19/2022	04:19	-131.761	48.654	0	577.70	0	4.0380	0	34.1250	0	27.091	0	572.020	0	24.8	4	7.8	4	-1E+10	1	-1E+10	1	-1E+10	1	-1E+10	1	-1E+10	1	-1E+10	1
4902551	76	C	09/19/2022	04:19	-131.761	48.654	0	582.90	0	4.0320	0	34.1280	0	27.094	0	577.161	0	24.2	4	7.6	4	-1E+10	1	-1E+10	1	-1E+10	1	-1E+10	1	-1E+10	1	-1E+10	1
4902551	76	C	09/19/2022	04:19	-131.761	48.654	0	588.10	0	4.0220	0	34.1330	0	27.099	0	582.303	0	23.4	4	7.4	4	-1E+10	1	-1E+10	1	-1E+10	1	-1E+10	1	-1E+10	1	-1E+10	1
4902551	76	C	09/19/2022	04:19	-131.761	48.654	0	592.90	0	4.0050	0	34.1400	0	27.106	0	587.049	0	22.5	4	7.1	4	-1E+10	1	-1E+10	1	-1E+10	1	-1E+10	1	-1E+10	1	-1E+10	1
4902551	76	C	09/19/2022	04:19	-131.761	48.654	0	597.80	0	3.9910	0	34.1500	0	27.115	0	591.893	0	21.8	4	6.9	4	-1E+10	1	-1E+10	1	-1E+10	1	-1E+10	1	-1E+10	1	-1E+10	1
4902551	76	C	09/19/2022	04:19	-131.761	48.654	0	602.80	0	3.9850	0	34.1550	0	27.120	0	596.837	0	21.5	4	6.8	4	-1E+10	1	-1E+10	1	-1E+10	1	-1E+10	1	-1E+10	1	-1E+10	1
4902551	76	C	09/19/2022	04:19	-131.761	48.654	0	607.90	0	3.9770	0	34.1580	0	27.123	0	601.879	0	21.2	4	6.7	4	-1E+10	1	-1E+10	1	-1E+10	1	-1E+10	1	-1E+10	1	-1E+10	1
4902551	76	C	09/19/2022	04:19	-131.761	48.654	0	613.00	0	3.9700	0	34.1600	0	27.126	0	606.921	0	20.9	4	6.6	4	-1E+10	1	-1E+10	1	-1E+10	1	-1E+10	1	-1E+10	1	-1E+10	1
4902551	76	C	09/19/2022	04:19	-131.761	48.654	0	617.90	0	3.9570	0	34.1620	0	27.129	0	611.765	0	20.7	4	6.5	4	-1E+10	1	-1E+10	1	-1E+10	1	-1E+10	1	-1E+10	1	-1E+10	1
4902551	76	C	09/19/2022	04:19	-131.761	48.654	0	623.10	0	3.9440	0	34.1650	0	27.132	0	616.906	0	20.1	4	6.3	4	-1E+10	1	-1E+10	1	-1E+10	1	-1E+10	1	-1E+10	1	-1E+10	1
4902551	76	C	09/19/2022	04:19	-131.761	48.654	0	628.20	0	3.9200	0	34.1730	0	27.141	0	621.948	0	19.4	4	6.1	4	-1E+10	1	-1E+10	1	-1E+10	1	-1E+10	1	-1E+10	1	-1E+10	1
4902551	76	C	09/19/2022	04:19	-131.761	48.654	0	632.90	0	3.9090	0	34.1780	0	27.146	0	626.594	0	18.8	4	5.9	4	-1E+10	1	-1E+10	1	-1E+10	1	-1E+10	1	-1E+10	1	-1E+10	1
4902551	76	C	09/19/2022	04:19	-131.761	48.654	0	637.80	0	3.9020	0	34.1820	0	27.150	0	631.438	0	18.1	4	5.7	4	-1E+10	1	-1E+10	1	-1E+10	1	-1E+10	1	-1E+10	1	-1E+10	1
4902551	76	C	09/19/2022	04:19	-131.761	48.654	0	643.00	0	3.8910	0	34.1910	0	27.158	0	636.578	0	17.6	4	5.5	4	-1E+10	1	-1E+10	1	-1E+10	1	-1E+10	1	-1E+10	1	-1E+10	1
4902551	76	C	09/19/2022	04:19	-131.761	48.654	0	647.80	0	3.8810	0	34.1970	0	27.164	0	641.322	0	17.4	4	5.5	4	-1E+10	1	-1E+10	1	-1E+10	1	-1E+10	1	-1E+10	1	-1E+10	1
4902551	76	C	09/19/2022	04:19	-131.761	48.654	0	652.90	0	3.8720	0	34.1990	0	27.167	0	646.364	0	17.3	4	5.4	4	-1E+10	1	-1E+10	1	-1E+10	1	-1E+10	1	-1E+10	1	-1E+10	1
4902551	76	C	09/19/2022	04:19	-131.761	48.654	0	657.70	0	3.8630	0	34.2000	0	27.169	0	651.108	0	17.2	4	5.4	4	-1E+10	1	-1E+10	1	-1E+10	1	-1E+10	1	-1E+10	1	-1E+10	1
4902551	76	C	09/19/2022	04:19	-131.761	48.654	0	662.70	0	3.8430	0	34.2030	0	27.173	0	656.050	0	17.1	4	5.4	4	-1E+10	1	-1E+10	1	-1E+10	1	-1E+10	1	-1E+10	1	-1E+10	1
4902551	76	C	09/19/2022	04:19	-131.761	48.654	0	667.90	0	3.8240	0	34.2050	0	27.177	0	661.190	0	17.0	4	5.4	4	-1E+10	1	-1E+10	1	-1E+10	1	-1E+10	1	-1E+10	1	-1E+10	1
4902551	76	C	09/19/2022	04:19	-131.761	48.654	0	672.70	0	3.8070	0	34.2070	0	27.180	0	665.934	0	16.9	4	5.3	4	-1E+10	1	-1E+10	1	-1E+10	1	-1E+10	1	-1E+10	1	-1E+10	1
4902551	76	C	09/19/2022	04:19	-131.761	48.654	0	677.50	0	3.7980	0	34.2080	0	27.182	0	670.678	0	16.8	4	5.3	4	-1E+10	1	-1E+10	1	-1E+10	1	-1E+10	1	-1E+10	1	-1E+10	1
4902551	76	C	09/19/2022	04:19	-131.761	48.654	0	682.50	0	3.7860	0	34.2110	0	27.185	0	675.619	0	16.7	4	5.2	4	-1E+10	1	-1E+10	1	-1E+10	1	-1E+10	1	-1E+10	1	-1E+10	1
4902551	76	C	09/19/2022	04:19	-131.761	48.654	0	687.60	0	3.7820	0	34.2120	0	27.186	0	680.660	0	16.5	4	5.2	4	-1E+10	1	-1E+10	1	-1E+10	1	-1E+10	1	-1E+10	1	-1E+10	1
4902551	76	C	09/19/2022	04:19	-131.761	48.654	0	692.60	0	3.7760	0	34.2130	0	27.188	0	685.601	0	16.3	4	5.1	4	-1E+10	1	-1E+10	1	-1E+10	1	-1E+10	1	-1E+10	1	-1E+10	1
4902551	76	C	09/19/2022	04:19	-131.761	48.654	0	697.70	0	3.7690	0	34.2160	0	27.191	0	690.641	0	16.1	4	5.1	4	-1E+10	1	-1E+10	1	-1E+10	1	-1E+10	1	-1E+10	1	-1E+10	1
4902551	76	C	09/19/2022	04:19	-131.761	48.654	0	702.80	0	3.7610	0	34.2200	0	27.195	0	695.681	0	16.0	4	5.0	4	-1E+10	1	-1E+10	1	-1E+10	1	-1E+10	1	-1E+10	1	-1E+10	1
4902551	76	C	09/19/2022	04:19	-131.761	48.654	0	708.00	0	3.7600	0	34.2210	0	27.196	0	700.819	0	15.8	4	5.0	4	-1E+10	1	-1E+10	1	-1E+10	1	-1E+10	1	-1E+10	1	-1E+10	1
4902551	76	C	09/19/2022	04:19	-131.761	48.654	0	713.10	0	3.7560	0	34.2230	0	27.198	0	705.859	0	15.7	4	4.9	4	-1E+10	1	-1E+10	1	-1E+10	1	-1E+10	1	-1E+10	1	-1E+10	1
4902551	76	C	09/19/2022	04:19	-131.761	48.654	0	718.30	0	3.7460	0	34.2250	0	27.201	0	710.997	0	15.5	4	4.9	4	-1E+10	1	-1E+10	1	-1E+10	1	-1E+10	1	-1E+10	1	-1E+10	1
4902551	76	C	09/19/2022	04:19	-131.761	48.654	0	723.40	0	3.7330	0	34.2280	0	27.204	0	716.037	0	15.3	4	4.8	4	-1E+10	1	-1E+10	1	-1E+10	1	-1E+10	1	-1E+10	1	-1E+10	1
4902551	76	C	09/19/2022	04:19	-131.761	48.654	0	728.40	0	3.7240	0	34.2310	0	27.208	0	720.977	0	15.1	4	4.7	4	-1E+10	1	-1E+10	1	-1E+10	1	-1E+10	1	-1E+10	1	-1E+10	1
4902551	76	C	09/19/2022	04:19	-131.761	48.654	0	733.30	0	3.7170	0	34.2330	0	27.210	0	725.819	0	14.9	4	4.7	4	-1E+10	1	-1E+10	1	-1E+10	1	-1E+10	1	-1E+10	1	-1E+10	1
4902551	76	C	09/19/2022	04:19	-131.761	48.654	0	738.20	0	3.7050	0	34.2370	0	27.214	0	730.660	0	14.7	4	4.6	4	-1E+10	1	-1E+10	1	-1E+10	1	-1E+10	1	-1E+10	1	-1E+10	1
4902551	76	C	09/19/2022	04:19	-131.761	48.654	0	743.10	0	3.6980	0	34.2400	0	27.217	0	735.502	0	14.5	4	4.5	4	-1E+10	1	-1E+10	1	-1E+10	1	-1E+10	1	-1E+10	1	-1E+10	1
4902551	76	C	09/19/2022	04:19	-131.761	48.654	0	748.00	0	3.6920	0	34.2430	0	27.220	0	740.343	0	14.3	4	4.5	4	-1E+10	1	-1E+10	1	-1E+10	1	-1E+10	1	-1E+10	1	-1E+10	1
4902551	76	C	09/19/2022	04:19	-131.761	48.654	0	752.70	0	3.6790	0	34.2480	0	27.226	0	744.986	0	14.2	4	4.4	4	-1E+10	1	-1E+10	1	-1E+10	1	-1E+10	1	-1E+10	1	-1E+10	1
4902551	76	C	09/19/2022	04:19	-131.761	48.654	0	757.80	0	3.6640	0	34.2500	0	27.229	0	750.025	0	14.1	4	4.4	4	-1E+10	1	-1E+10	1	-1E+10	1	-1E+10	1	-1E+10	1	-1E+10	1
4902551	76	C	09/19/2022	04:19	-131.761	48.654	0	762.80	0	3.6580	0	34.2520	0	27.231	0	754.964	0	13.9	4	4.4	4	-1E+10	1	-1E+10	1	-1E+10	1	-1E+10	1	-1E+10	1	-1E+10	1
4902551	76	C	09/19/2022	04:19	-131.761	48.654	0	767.70	0	3.6530	0	34.2540	0	27.233	0	759.805	0	13.8	4	4.3	4	-1E+10	1	-1E+10	1	-1E+10	1	-1E+10	1	-1E+10	1	-1E+10	1
4902551	76	C	09/19/2022	04:19	-131.761	48.654	0	773.00	0	3.6310	0	34.2570	0	27.238	0	765.041	0	13.7	4	4.3	4	-1E+10	1	-1E+10	1	-1E+10	1	-1E+10	1	-1E+10	1	-1E+10	1
4902551	76	C	09/19/2022	04:19	-131.761	48.654	0	778.00	0	3.6200	0	34.2590	0	27.240	0	769.980	0	13.5	4	4.2	4	-1E+10	1	-1E+10	1	-1E+10	1	-1E+10	1	-1E+10	1	-1E+10	1
4902551	76	C	09/19/2022	04:19	-131.761	48.654	0	782.80	0	3.6080	0	34.2620	0	27.244	0	774.722	0	13.2	4	4.1	4	-1E+10	1	-1E+10	1	-1E+10	1	-1E+10	1	-1E+10	1	-1E+10	1
4902551	76	C	09/19/2022	04:19	-131.761	48.654	0	788.10	0	3.6020	0	34.2700	0	27.251	0	779.957	0	12.8	4	4.0	4	-1E+10	1	-1E+10	1	-1E+10	1	-1E+10	1	-1E+10	1	-1E+10	1
4902551	76	C	09/19/2022	04:19	-131.761	48.654	0	793.20	0	3.5710	0	34.2770	0	27.260	0	784.995	0	12.6	4	4.0	4	-1E+10	1	-1E+10	1	-1E+10	1	-1E+10	1	-1E+10	1	-1E+10	1
4902551	76	C	09/19/2022	04:19	-131.761	48.654	0	797.90	0	3.5610	0	34.2820	0	27.265	0	789.638	0	12.4	4	3.9	4	-1E+10	1	-1E+10	1	-1E+10	1	-1E+10	1	-1E+10	1	-1E+10	1
4902551	76	C	09/19/2022	04:19	-131.761	48.654	0	802.70	0	3.5420	0	34.2880	0	27.271	0	794.379	0	12.4	4	3.9	4	-1E+10	1	-1E+10	1	-1E+10	1	-1E+10	1	-1E+10	1	-1E+10	1
4902551	76	C	09/19/2022	04:19	-131.761	48.654	0	808.00	0	3.5210	0	34.2910	0	27.276	0	799.614	0	12.4	4	3.9	4	-1E+10	1	-1E+10	1	-1E+10	1	-1E+10	1	-1E+10	1	-1E+10	1
4902551	76	C	09/19/2022	04:19	-131.761	48.654	0	812.90	0	3.5030	0	34.2920	0	27.278	0	804.453	0	12.3	4	3.8	4	-1E+10	1	-1E+10	1	-1E+10	1	-1E+10	1	-1E+10	1	-1E+10	1
4902551	76	C	09/19/2022	04:19	-131.761	48.654	0	817.70	0	3.4960	0	34.2940	0	27.281	0	809.194	0	12.2	4	3.8	4	-1E+10	1	-1E+10	1	-1E+10	1	-1E+10	1	-1E+10	1	-1E+10	1
4902551	76	C	09/19/2022	04:19	-131.761	48.654	0	823.10	0	3.4760	0	34.3000	0	27.287	0	814.528	0	12.1	4	3.8	4	-1E+10	1	-1E+10	1	-1E+10	1	-1E+10	1	-1E+10	1	-1E+10	1
4902551	76	C	09/19/2022	04:19	-131.761	48.654	0	828.10	0	3.4650	0	34.3020	0	27.290	0	819.466	0	12.1	4	3.8	4	-1E+10	1	-1E+10	1	-1E+10	1	-1E+10	1	-1E+10	1	-1E+10	1
4902551	76	C	09/19/2022	04:19	-131.761	48.654	0	833.10	0	3.4610	0	34.3030	0	27.291	0	824.404	0	12.0	4	3.8	4	-1E+10	1	-1E+10	1	-1E+10	1	-1E+10	1	-1E+10	1	-1E+10	1
4902551	76	C	09/19/2022	04:19	-131.761	48.654	0	838.10	0	3.4460	0	34.3060	0	27.295	0	829.342	0	12.0	4	3.7	4	-1E+10	1	-1E+10	1	-1E+10	1	-1E+10	1	-1E+10	1	-1E+10	1
4902551	76	C	09/19/2022	04:19	-131.761	48.654	0	842.80	0	3.4380	0	34.3070	0	27.297	0	833.983	0	12.0	4	3.7	4	-1E+10	1	-1E+10	1	-1E+10	1	-1E+10	1	-1E+10	1	-1E+10	1
4902551	76	C	09/19/2022	04:19	-131.761	48.654	0	847.80	0	3.4270	0	34.3090	0	27.299	0	838.921	0	12.0	4	3.7	4	-1E+10	1	-1E+10	1	-1E+10	1	-1E+10	1	-1E+10	1	-1E+10	1
4902551	76	C	09/19/2022	04:19	-131.761	48.654	0	852.90	0	3.4200	0	34.3110	0	27.302	0	843.957	0	11.9	4	3.7	4	-1E+10	1	-1E+10	1	-1E+10	1	-1E+10	1	-1E+10	1	-1E+10	1
4902551	76	C	09/19/2022	04:19	-131.761	48.654	0	857.60	0	3.4140	0	34.3120	0	27.303	0	848.598	0	11.9	4	3.7	4	-1E+10	1	-1E+10	1	-1E+10	1	-1E+10	1	-1E+10	1	-1E+10	1
4902551	76	C	09/19/2022	04:19	-131.761	48.654	0	862.80	0	3.4010	0	34.3140	0	27.306	0	853.733	0	11.9	4	3.7	4	-1E+10	1	-1E+10	1	-1E+10	1	-1E+10	1	-1E+10	1	-1E+10	1
4902551	76	C	09/19/2022	04:19	-131.761	48.654	0	868.00	0	3.3860	0	34.3160	0	27.309	0	858.868	0	11.9	4	3.7	4	-1E+10	1	-1E+10	1	-1E+10	1	-1E+10	1	-1E+10	1	-1E+10	1
4902551	76	C	09/19/2022	04:19	-131.761	48.654	0	872.80	0	3.3700	0	34.3190	0	27.313	0	863.607	0	12.0	4	3.7	4	-1E+10	1	-1E+10	1	-1E+10	1	-1E+10	1	-1E+10	1	-1E+10	1
4902551	76	C	09/19/2022	04:19	-131.761	48.654	0	878.10	0	3.3580	0	34.3200	0	27.315	0	868.840	0	12.0	4	3.7	4	-1E+10	1	-1E+10	1	-1E+10	1	-1E+10	1	-1E+10	1	-1E+10	1
4902551	76	C	09/19/2022	04:19	-131.761	48.654	0	882.90	0	3.3400	0	34.3220	0	27.318	0	873.580	0	12.0	4	3.7	4	-1E+10	1	-1E+10	1	-1E+10	1	-1E+10	1	-1E+10	1	-1E+10	1
4902551	76	C	09/19/2022	04:19	-131.761	48.654	0	887.70	0	3.3140	0	34.3260	0	27.324	0	878.319	0	12.0	4	3.7	4	-1E+10	1	-1E+10	1	-1E+10	1	-1E+10	1	-1E+10	1	-1E+10	1
4902551	76	C	09/19/2022	04:19	-131.761	48.654	0	892.70	0	3.2940	0	34.3300	0	27.329	0	883.256	0	11.9	4	3.7	4	-1E+10	1	-1E+10	1	-1E+10	1	-1E+10	1	-1E+10	1	-1E+10	1
4902551	76	C	09/19/2022	04:19	-131.761	48.654	0	897.60	0	3.2810	0	34.3340	0	27.333	0	888.093	0	11.9	4	3.7	4	-1E+10	1	-1E+10	1	-1E+10	1	-1E+10	1	-1E+10	1	-1E+10	1
4902551	76	C	09/19/2022	04:19	-131.761	48.654	0	902.70	0	3.2690	0	34.3360	0	27.336	0	893.129	0	11.9	4	3.7	4	-1E+10	1	-1E+10	1	-1E+10	1	-1E+10	1	-1E+10	1	-1E+10	1
4902551	76	C	09/19/2022	04:19	-131.761	48.654	0	908.10	0	3.2640	0	34.3360	0	27.337	0	898.460	0	11.9	4	3.7	4	-1E+10	1	-1E+10	1	-1E+10	1	-1E+10	1	-1E+10	1	-1E+10	1
4902551	76	C	09/19/2022	04:19	-131.761	48.654	0	913.00	0	3.2630	0	34.3370	0	27.337	0	903.297	0	11.9	4	3.7	4	-1E+10	1	-1E+10	1	-1E+10	1	-1E+10	1	-1E+10	1	-1E+10	1
4902551	76	C	09/19/2022	04:19	-131.761	48.654	0	917.90	0	3.2620	0	34.3370	0	27.338	0	908.134	0	11.9	4	3.7	4	-1E+10	1	-1E+10	1	-1E+10	1	-1E+10	1	-1E+10	1	-1E+10	1
4902551	76	C	09/19/2022	04:19	-131.761	48.654	0	922.80	0	3.2620	0	34.3370	0	27.338	0	912.972	0	11.9	4	3.7	4	-1E+10	1	-1E+10	1	-1E+10	1	-1E+10	1	-1E+10	1	-1E+10	1
4902551	76	C	09/19/2022	04:19	-131.761	48.654	0	927.80	0	3.2600	0	34.3370	0	27.338	0	917.907	0	11.9	4	3.7	4	-1E+10	1	-1E+10	1	-1E+10	1	-1E+10	1	-1E+10	1	-1E+10	1
4902551	76	C	09/19/2022	04:19	-131.761	48.654	0	932.90	0	3.2510	0	34.3390	0	27.340	0	922.942	0	11.9	4	3.7	4	-1E+10	1	-1E+10	1	-1E+10	1	-1E+10	1	-1E+10	1	-1E+10	1
4902551	76	C	09/19/2022	04:19	-131.761	48.654	0	938.10	0	3.2440	0	34.3410	0	27.343	0	928.075	0	11.9	4	3.7	4	-1E+10	1	-1E+10	1	-1E+10	1	-1E+10	1	-1E+10	1	-1E+10	1
4902551	76	C	09/19/2022	04:19	-131.761	48.654	0	943.20	0	3.2320	0	34.3430	0	27.345	0	933.109	0	11.9	4	3.7	4	-1E+10	1	-1E+10	1	-1E+10	1	-1E+10	1	-1E+10	1	-1E+10	1
4902551	76	C	09/19/2022	04:19	-131.761	48.654	0	948.00	0	3.2210	0	34.3450	0	27.348	0	937.847	0	11.9	4	3.7	4	-1E+10	1	-1E+10	1	-1E+10	1	-1E+10	1	-1E+10	1	-1E+10	1
4902551	76	C	09/19/2022	04:19	-131.761	48.654	0	952.70	0	3.2120	0	34.3470	0	27.350	0	942.486	0	11.9	4	3.7	4	-1E+10	1	-1E+10	1	-1E+10	1	-1E+10	1	-1E+10	1	-1E+10	1
4902551	76	C	09/19/2022	04:19	-131.761	48.654	0	957.90	0	3.1920	0	34.3510	0	27.355	0	947.618	0	11.9	4	3.7	4	-1E+10	1	-1E+10	1	-1E+10	1	-1E+10	1	-1E+10	1	-1E+10	1
4902551	76	C	09/19/2022	04:19	-131.761	48.654	0	963.00	0	3.1860	0	34.3520	0	27.357	0	952.652	0	11.9	4	3.7	4	-1E+10	1	-1E+10	1	-1E+10	1	-1E+10	1	-1E+10	1	-1E+10	1
4902551	76	C	09/19/2022	04:19	-131.761	48.654	0	968.10	0	3.1760	0	34.3530	0	27.359	0	957.686	0	11.9	4	3.7	4	-1E+10	1	-1E+10	1	-1E+10	1	-1E+10	1	-1E+10	1	-1E+10	1
4902551	76	C	09/19/2022	04:19	-131.761	48.654	0	973.00	0	3.1720	0	34.3540	0	27.360	0	962.522	0	11.9	4	3.7	4	-1E+10	1	-1E+10	1	-1E+10	1	-1E+10	1	-1E+10	1	-1E+10	1
4902551	76	C	09/19/2022	04:19	-131.761	48.654	0	977.80	0	3.1540	0	34.3590	0	27.366	0	967.259	0	11.9	4	3.7	4	-1E+10	1	-1E+10	1	-1E+10	1	-1E+10	1	-1E+10	1	-1E+10	1
4902551	76	C	09/19/2022	04:19	-131.761	48.654	0	983.00	0	3.1390	0	34.3620	0	27.369	0	972.391	0	11.9	4	3.7	4	-1E+10	1	-1E+10	1	-1E+10	1	-1E+10	1	-1E+10	1	-1E+10	1
4902551	76	C	09/19/2022	04:19	-131.761	48.654	0	988.20	0	3.1260	0	34.3660	0	27.374	0	977.522	0	11.9	4	3.7	4	-1E+10	1	-1E+10	1	-1E+10	1	-1E+10	1	-1E+10	1	-1E+10	1
4902551	76	C	09/19/2022	04:19	-131.761	48.654	0	993.00	0	3.1180	0	34.3680	0	27.376	0	982.259	0	11.9	4	3.7	4	-1E+10	1	-1E+10	1	-1E+10	1	-1E+10	1	-1E+10	1	-1E+10	1
4902551	76	C	09/19/2022	04:19	-131.761	48.654	0	997.80	0	3.1150	0	34.3690	0	27.377	0	986.996	0	11.9	4	3.7	4	-1E+10	1	-1E+10	1	-1E+10	1	-1E+10	1	-1E+10	1	-1E+10	1
4902551	76	C	09/19/2022	04:19	-131.761	48.654	0	1005.50	0	3.1070	0	34.3710	0	27.380	0	994.595	0	11.9	4	3.7	4	-1E+10	1	-1E+10	1	-1E+10	1	-1E+10	1	-1E+10	1	-1E+10	1
4902551	76	C	09/19/2022	04:19	-131.761	48.654	0	1015.70	0	3.0950	0	34.3740	0	27.383	0	1004.659	0	12.0	4	3.7	4	-1E+10	1	-1E+10	1	-1E+10	1	-1E+10	1	-1E+10	1	-1E+10	1
4902551	76	C	09/19/2022	04:19	-131.761	48.654	0	1025.40	0	3.0710	0	34.3770	0	27.388	0	1014.231	0	12.0	4	3.7	4	-1E+10	1	-1E+10	1	-1E+10	1	-1E+10	1	-1E+10	1	-1E+10	1
4902551	76	C	09/19/2022	04:19	-131.761	48.654	0	1035.20	0	3.0490	0	34.3790	0	27.391	0	1023.900	0	12.0	4	3.7	4	-1E+10	1	-1E+10	1	-1E+10	1	-1E+10	1	-1E+10	1	-1E+10	1
4902551	76	C	09/19/2022	04:19	-131.761	48.654	0	1045.30	0	3.0310	0	34.3830	0	27.396	0	1033.865	0	12.1	4	3.7	4	-1E+10	1	-1E+10	1	-1E+10	1	-1E+10	1	-1E+10	1	-1E+10	1
4902551	76	C	09/19/2022	04:19	-131.761	48.654	0	1055.50	0	3.0170	0	34.3850	0	27.399	0	1043.928	0	12.1	4	3.7	4	-1E+10	1	-1E+10	1	-1E+10	1	-1E+10	1	-1E+10	1	-1E+10	1
4902551	76	C	09/19/2022	04:19	-131.761	48.654	0	1065.70	0	2.9990	0	34.3890	0	27.404	0	1053.990	0	12.2	4	3.8	4	-1E+10	1	-1E+10	1	-1E+10	1	-1E+10	1	-1E+10	1	-1E+10	1
4902551	76	C	09/19/2022	04:19	-131.761	48.654	0	1075.60	0	2.9910	0	34.3900	0	27.406	0	1063.756	0	12.3	4	3.8	4	-1E+10	1	-1E+10	1	-1E+10	1	-1E+10	1	-1E+10	1	-1E+10	1
4902551	76	C	09/19/2022	04:19	-131.761	48.654	0	1085.50	0	2.9630	0	34.3950	0	27.412	0	1073.522	0	12.4	4	3.8	4	-1E+10	1	-1E+10	1	-1E+10	1	-1E+10	1	-1E+10	1	-1E+10	1
4902551	76	C	09/19/2022	04:19	-131.761	48.654	0	1095.50	0	2.9550	0	34.3960	0	27.414	0	1083.386	0	12.4	4	3.8	4	-1E+10	1	-1E+10	1	-1E+10	1	-1E+10	1	-1E+10	1	-1E+10	1
4902551	76	C	09/19/2022	04:19	-131.761	48.654	0	1105.70	0	2.9360	0	34.4000	0	27.419	0	1093.447	0	12.5	4	3.9	4	-1E+10	1	-1E+10	1	-1E+10	1	-1E+10	1	-1E+10	1	-1E+10	1
4902551	76	C	09/19/2022	04:19	-131.761	48.654	0	1115.60	0	2.9150	0	34.4040	0	27.424	0	1103.211	0	12.7	4	3.9	4	-1E+10	1	-1E+10	1	-1E+10	1	-1E+10	1	-1E+10	1	-1E+10	1
4902551	76	C	09/19/2022	04:19	-131.761	48.654	0	1125.10	0	2.8930	0	34.4080	0	27.429	0	1112.580	0	12.8	4	3.9	4	-1E+10	1	-1E+10	1	-1E+10	1	-1E+10	1	-1E+10	1	-1E+10	1
4902551	76	C	09/19/2022	04:19	-131.761	48.654	0	1135.00	0	2.8700	0	34.4120	0	27.434	0	1122.344	0	13.0	4	4.0	4	-1E+10	1	-1E+10	1	-1E+10	1	-1E+10	1	-1E+10	1	-1E+10	1
4902551	76	C	09/19/2022	04:19	-131.761	48.654	0	1145.00	0	2.8450	0	34.4160	0	27.440	0	1132.205	0	13.2	4	4.0	4	-1E+10	1	-1E+10	1	-1E+10	1	-1E+10	1	-1E+10	1	-1E+10	1
4902551	76	C	09/19/2022	04:19	-131.761	48.654	0	1155.20	0	2.8210	0	34.4200	0	27.445	0	1142.264	0	13.4	4	4.1	4	-1E+10	1	-1E+10	1	-1E+10	1	-1E+10	1	-1E+10	1	-1E+10	1
4902551	76	C	09/19/2022	04:19	-131.761	48.654	0	1165.30	0	2.7970	0	34.4240	0	27.451	0	1152.223	0	13.6	4	4.2	4	-1E+10	1	-1E+10	1	-1E+10	1	-1E+10	1	-1E+10	1	-1E+10	1
4902551	76	C	09/19/2022	04:19	-131.761	48.654	0	1175.30	0	2.7780	0	34.4280	0	27.455	0	1162.083	0	13.9	4	4.3	4	-1E+10	1	-1E+10	1	-1E+10	1	-1E+10	1	-1E+10	1	-1E+10	1
4902551	76	C	09/19/2022	04:19	-131.761	48.654	0	1185.40	0	2.7620	0	34.4320	0	27.460	0	1172.041	0	14.2	4	4.4	4	-1E+10	1	-1E+10	1	-1E+10	1	-1E+10	1	-1E+10	1	-1E+10	1
4902551	76	C	09/19/2022	04:19	-131.761	48.654	0	1195.20	0	2.7440	0	34.4350	0	27.464	0	1181.703	0	14.3	4	4.4	4	-1E+10	1	-1E+10	1	-1E+10	1	-1E+10	1	-1E+10	1	-1E+10	1
4902551	76	C	09/19/2022	04:19	-131.761	48.654	0	1205.30	0	2.7250	0	34.4380	0	27.468	0	1191.661	0	14.6	4	4.5	4	-1E+10	1	-1E+10	1	-1E+10	1	-1E+10	1	-1E+10	1	-1E+10	1
4902551	76	C	09/19/2022	04:19	-131.761	48.654	0	1215.50	0	2.7070	0	34.4420	0	27.473	0	1201.716	0	15.1	4	4.6	4	-1E+10	1	-1E+10	1	-1E+10	1	-1E+10	1	-1E+10	1	-1E+10	1
4902551	76	C	09/19/2022	04:19	-131.761	48.654	0	1225.80	0	2.7030	0	34.4440	0	27.475	0	1211.870	0	15.4	4	4.7	4	-1E+10	1	-1E+10	1	-1E+10	1	-1E+10	1	-1E+10	1	-1E+10	1
4902551	76	C	09/19/2022	04:19	-131.761	48.654	0	1235.70	0	2.6990	0	34.4450	0	27.476	0	1221.628	0	15.9	4	4.9	4	-1E+10	1	-1E+10	1	-1E+10	1	-1E+10	1	-1E+10	1	-1E+10	1
4902551	76	C	09/19/2022	04:19	-131.761	48.654	0	1245.80	0	2.6940	0	34.4490	0	27.480	0	1231.584	0	16.5	4	5.0	4	-1E+10	1	-1E+10	1	-1E+10	1	-1E+10	1	-1E+10	1	-1E+10	1
4902551	76	C	09/19/2022	04:19	-131.761	48.654	0	1255.40	0	2.6860	0	34.4520	0	27.483	0	1241.046	0	16.7	4	5.1	4	-1E+10	1	-1E+10	1	-1E+10	1	-1E+10	1	-1E+10	1	-1E+10	1
4902551	76	C	09/19/2022	04:19	-131.761	48.654	0	1265.20	0	2.6720	0	34.4540	0	27.486	0	1250.705	0	16.9	4	5.2	4	-1E+10	1	-1E+10	1	-1E+10	1	-1E+10	1	-1E+10	1	-1E+10	1
4902551	76	C	09/19/2022	04:19	-131.761	48.654	0	1275.20	0	2.6580	0	34.4560	0	27.489	0	1260.560	0	17.1	4	5.2	4	-1E+10	1	-1E+10	1	-1E+10	1	-1E+10	1	-1E+10	1	-1E+10	1
4902551	76	C	09/19/2022	04:19	-131.761	48.654	0	1285.10	0	2.6450	0	34.4580	0	27.492	0	1270.317	0	17.3	4	5.3	4	-1E+10	1	-1E+10	1	-1E+10	1	-1E+10	1	-1E+10	1	-1E+10	1
4902551	76	C	09/19/2022	04:19	-131.761	48.654	0	1295.20	0	2.6300	0	34.4600	0	27.494	0	1280.270	0	17.6	4	5.4	4	-1E+10	1	-1E+10	1	-1E+10	1	-1E+10	1	-1E+10	1	-1E+10	1
4902551	76	C	09/19/2022	04:19	-131.761	48.654	0	1305.60	0	2.6150	0	34.4630	0	27.498	0	1290.518	0	18.0	4	5.5	4	-1E+10	1	-1E+10	1	-1E+10	1	-1E+10	1	-1E+10	1	-1E+10	1
4902551	76	C	09/19/2022	04:19	-131.761	48.654	0	1315.50	0	2.6010	0	34.4650	0	27.501	0	1300.273	0	18.3	4	5.6	4	-1E+10	1	-1E+10	1	-1E+10	1	-1E+10	1	-1E+10	1	-1E+10	1
4902551	76	C	09/19/2022	04:19	-131.761	48.654	0	1325.40	0	2.5870	0	34.4670	0	27.504	0	1310.028	0	18.7	4	5.7	4	-1E+10	1	-1E+10	1	-1E+10	1	-1E+10	1	-1E+10	1	-1E+10	1
4902551	76	C	09/19/2022	04:19	-131.761	48.654	0	1335.40	0	2.5820	0	34.4700	0	27.507	0	1319.881	0	19.2	4	5.9	4	-1E+10	1	-1E+10	1	-1E+10	1	-1E+10	1	-1E+10	1	-1E+10	1
4902551	76	C	09/19/2022	04:19	-131.761	48.654	0	1345.50	0	2.5740	0	34.4720	0	27.509	0	1329.831	0	19.7	4	6.0	4	-1E+10	1	-1E+10	1	-1E+10	1	-1E+10	1	-1E+10	1	-1E+10	1
4902551	76	C	09/19/2022	04:19	-131.761	48.654	0	1355.60	0	2.5680	0	34.4730	0	27.511	0	1339.782	0	20.0	4	6.1	4	-1E+10	1	-1E+10	1	-1E+10	1	-1E+10	1	-1E+10	1	-1E+10	1
4902551	76	C	09/19/2022	04:19	-131.761	48.654	0	1365.40	0	2.5480	0	34.4760	0	27.515	0	1349.436	0	20.5	4	6.3	4	-1E+10	1	-1E+10	1	-1E+10	1	-1E+10	1	-1E+10	1	-1E+10	1
4902551	76	C	09/19/2022	04:19	-131.761	48.654	0	1375.40	0	2.5310	0	34.4790	0	27.519	0	1359.287	0	21.1	4	6.4	4	-1E+10	1	-1E+10	1	-1E+10	1	-1E+10	1	-1E+10	1	-1E+10	1
4902551	76	C	09/19/2022	04:19	-131.761	48.654	0	1385.30	0	2.5200	0	34.4820	0	27.522	0	1369.039	0	21.6	4	6.6	4	-1E+10	1	-1E+10	1	-1E+10	1	-1E+10	1	-1E+10	1	-1E+10	1
4902551	76	C	09/19/2022	04:19	-131.761	48.654	0	1395.40	0	2.5130	0	34.4830	0	27.523	0	1378.987	0	22.1	4	6.7	4	-1E+10	1	-1E+10	1	-1E+10	1	-1E+10	1	-1E+10	1	-1E+10	1
4902551	76	C	09/19/2022	04:19	-131.761	48.654	0	1405.30	0	2.4990	0	34.4860	0	27.527	0	1388.738	0	22.5	4	6.9	4	-1E+10	1	-1E+10	1	-1E+10	1	-1E+10	1	-1E+10	1	-1E+10	1
4902551	76	C	09/19/2022	04:19	-131.761	48.654	0	1415.20	0	2.4830	0	34.4890	0	27.531	0	1398.489	0	22.9	4	7.0	4	-1E+10	1	-1E+10	1	-1E+10	1	-1E+10	1	-1E+10	1	-1E+10	1
4902551	76	C	09/19/2022	04:19	-131.761	48.654	0	1425.30	0	2.4760	0	34.4900	0	27.532	0	1408.436	0	23.4	4	7.1	4	-1E+10	1	-1E+10	1	-1E+10	1	-1E+10	1	-1E+10	1	-1E+10	1
4902551	76	C	09/19/2022	04:19	-131.761	48.654	0	1435.40	0	2.4610	0	34.4930	0	27.536	0	1418.383	0	24.1	4	7.3	4	-1E+10	1	-1E+10	1	-1E+10	1	-1E+10	1	-1E+10	1	-1E+10	1
4902551	76	C	09/19/2022	04:19	-131.761	48.654	0	1445.80	0	2.4530	0	34.4950	0	27.538	0	1428.624	0	24.5	4	7.5	4	-1E+10	1	-1E+10	1	-1E+10	1	-1E+10	1	-1E+10	1	-1E+10	1
4902551	76	C	09/19/2022	04:19	-131.761	48.654	0	1455.40	0	2.4450	0	34.4960	0	27.540	0	1438.077	0	24.7	4	7.5	4	-1E+10	1	-1E+10	1	-1E+10	1	-1E+10	1	-1E+10	1	-1E+10	1
4902551	76	C	09/19/2022	04:19	-131.761	48.654	0	1465.20	0	2.4370	0	34.4980	0	27.542	0	1447.727	0	25.0	4	7.6	4	-1E+10	1	-1E+10	1	-1E+10	1	-1E+10	1	-1E+10	1	-1E+10	1
4902551	76	C	09/19/2022	04:19	-131.761	48.654	0	1475.40	0	2.4220	0	34.4990	0	27.544	0	1457.770	0	25.3	4	7.7	4	-1E+10	1	-1E+10	1	-1E+10	1	-1E+10	1	-1E+10	1	-1E+10	1
4902551	76	C	09/19/2022	04:19	-131.761	48.654	0	1485.40	0	2.4130	0	34.5010	0	27.547	0	1467.616	0	25.7	4	7.8	4	-1E+10	1	-1E+10	1	-1E+10	1	-1E+10	1	-1E+10	1	-1E+10	1
4902551	76	C	09/19/2022	04:19	-131.761	48.654	0	1495.30	0	2.4060	0	34.5020	0	27.548	0	1477.363	0	26.1	4	7.9	4	-1E+10	1	-1E+10	1	-1E+10	1	-1E+10	1	-1E+10	1	-1E+10	1
4902551	76	C	09/19/2022	04:19	-131.761	48.654	0	1505.50	0	2.3950	0	34.5040	0	27.551	0	1487.405	0	26.5	4	8.1	4	-1E+10	1	-1E+10	1	-1E+10	1	-1E+10	1	-1E+10	1	-1E+10	1
4902551	76	C	09/19/2022	04:19	-131.761	48.654	0	1515.50	0	2.3730	0	34.5070	0	27.555	0	1497.249	0	26.9	4	8.2	4	-1E+10	1	-1E+10	1	-1E+10	1	-1E+10	1	-1E+10	1	-1E+10	1
4902551	76	C	09/19/2022	04:19	-131.761	48.654	0	1525.50	0	2.3450	0	34.5110	0	27.560	0	1507.093	0	27.4	4	8.3	4	-1E+10	1	-1E+10	1	-1E+10	1	-1E+10	1	-1E+10	1	-1E+10	1
4902551	76	C	09/19/2022	04:19	-131.761	48.654	0	1535.50	0	2.3340	0	34.5110	0	27.561	0	1516.937	0	27.5	4	8.4	4	-1E+10	1	-1E+10	1	-1E+10	1	-1E+10	1	-1E+10	1	-1E+10	1
4902551	76	C	09/19/2022	04:19	-131.761	48.654	0	1545.30	0	2.3210	0	34.5130	0	27.564	0	1526.583	0	28.0	4	8.5	4	-1E+10	1	-1E+10	1	-1E+10	1	-1E+10	1	-1E+10	1	-1E+10	1
4902551	76	C	09/19/2022	04:19	-131.761	48.654	0	1555.10	0	2.3040	0	34.5160	0	27.568	0	1536.228	0	28.6	4	8.7	4	-1E+10	1	-1E+10	1	-1E+10	1	-1E+10	1	-1E+10	1	-1E+10	1
4902551	76	C	09/19/2022	04:19	-131.761	48.654	0	1565.20	0	2.2920	0	34.5180	0	27.571	0	1546.169	0	29.0	4	8.8	4	-1E+10	1	-1E+10	1	-1E+10	1	-1E+10	1	-1E+10	1	-1E+10	1
4902551	76	C	09/19/2022	04:19	-131.761	48.654	0	1575.60	0	2.2810	0	34.5200	0	27.573	0	1556.404	0	29.4	4	8.9	4	-1E+10	1	-1E+10	1	-1E+10	1	-1E+10	1	-1E+10	1	-1E+10	1
4902551	76	C	09/19/2022	04:19	-131.761	48.654	0	1585.40	0	2.2760	0	34.5210	0	27.574	0	1566.049	0	29.8	4	9.0	4	-1E+10	1	-1E+10	1	-1E+10	1	-1E+10	1	-1E+10	1	-1E+10	1
4902551	76	C	09/19/2022	04:19	-131.761	48.654	0	1595.20	0	2.2700	0	34.5220	0	27.576	0	1575.693	0	30.5	4	9.3	4	-1E+10	1	-1E+10	1	-1E+10	1	-1E+10	1	-1E+10	1	-1E+10	1
4902551	76	C	09/19/2022	04:19	-131.761	48.654	0	1605.30	0	2.2530	0	34.5250	0	27.580	0	1585.631	0	31.6	4	9.6	4	-1E+10	1	-1E+10	1	-1E+10	1	-1E+10	1	-1E+10	1	-1E+10	1
4902551	76	C	09/19/2022	04:19	-131.761	48.654	0	1615.40	0	2.2440	0	34.5270	0	27.582	0	1595.570	0	32.3	4	9.8	4	-1E+10	1	-1E+10	1	-1E+10	1	-1E+10	1	-1E+10	1	-1E+10	1
4902551	76	C	09/19/2022	04:19	-131.761	48.654	0	1625.60	0	2.2350	0	34.5290	0	27.584	0	1605.606	0	33.4	4	10.1	4	-1E+10	1	-1E+10	1	-1E+10	1	-1E+10	1	-1E+10	1	-1E+10	1
4902551	76	C	09/19/2022	04:19	-131.761	48.654	0	1635.40	0	2.2200	0	34.5330	0	27.589	0	1615.248	0	34.4	4	10.4	4	-1E+10	1	-1E+10	1	-1E+10	1	-1E+10	1	-1E+10	1	-1E+10	1
4902551	76	C	09/19/2022	04:19	-131.761	48.654	0	1645.20	0	2.2130	0	34.5340	0	27.590	0	1624.889	0	34.7	4	10.5	4	-1E+10	1	-1E+10	1	-1E+10	1	-1E+10	1	-1E+10	1	-1E+10	1
4902551	76	C	09/19/2022	04:19	-131.761	48.654	0	1655.40	0	2.2060	0	34.5350	0	27.592	0	1634.924	0	35.4	4	10.7	4	-1E+10	1	-1E+10	1	-1E+10	1	-1E+10	1	-1E+10	1	-1E+10	1
4902551	76	C	09/19/2022	04:19	-131.761	48.654	0	1665.40	0	2.1920	0	34.5380	0	27.595	0	1644.762	0	36.0	4	10.9	4	-1E+10	1	-1E+10	1	-1E+10	1	-1E+10	1	-1E+10	1	-1E+10	1
4902551	76	C	09/19/2022	04:19	-131.761	48.654	0	1675.50	0	2.1850	0	34.5390	0	27.597	0	1654.697	0	36.5	4	11.1	4	-1E+10	1	-1E+10	1	-1E+10	1	-1E+10	1	-1E+10	1	-1E+10	1
4902551	76	C	09/19/2022	04:19	-131.761	48.654	0	1685.40	0	2.1720	0	34.5410	0	27.599	0	1664.435	0	37.5	4	11.4	4	-1E+10	1	-1E+10	1	-1E+10	1	-1E+10	1	-1E+10	1	-1E+10	1
4902551	76	C	09/19/2022	04:19	-131.761	48.654	0	1695.20	0	2.1510	0	34.5440	0	27.603	0	1674.075	0	38.4	4	11.6	4	-1E+10	1	-1E+10	1	-1E+10	1	-1E+10	1	-1E+10	1	-1E+10	1
4902551	76	C	09/19/2022	04:19	-131.761	48.654	0	1705.20	0	2.1430	0	34.5460	0	27.606	0	1683.911	0	39.1	4	11.8	4	-1E+10	1	-1E+10	1	-1E+10	1	-1E+10	1	-1E+10	1	-1E+10	1
4902551	76	C	09/19/2022	04:19	-131.761	48.654	0	1715.30	0	2.1250	0	34.5490	0	27.610	0	1693.844	0	39.9	4	12.1	4	-1E+10	1	-1E+10	1	-1E+10	1	-1E+10	1	-1E+10	1	-1E+10	1
4902551	76	C	09/19/2022	04:19	-131.761	48.654	0	1725.70	0	2.1180	0	34.5500	0	27.611	0	1704.072	0	40.6	4	12.3	4	-1E+10	1	-1E+10	1	-1E+10	1	-1E+10	1	-1E+10	1	-1E+10	1
4902551	76	C	09/19/2022	04:19	-131.761	48.654	0	1735.60	0	2.1060	0	34.5520	0	27.614	0	1713.808	0	41.5	4	12.6	4	-1E+10	1	-1E+10	1	-1E+10	1	-1E+10	1	-1E+10	1	-1E+10	1
4902551	76	C	09/19/2022	04:19	-131.761	48.654	0	1745.50	0	2.0930	0	34.5540	0	27.616	0	1723.544	0	42.3	4	12.8	4	-1E+10	1	-1E+10	1	-1E+10	1	-1E+10	1	-1E+10	1	-1E+10	1
4902551	76	C	09/19/2022	04:19	-131.761	48.654	0	1755.30	0	2.0840	0	34.5560	0	27.619	0	1733.181	0	42.6	4	12.9	4	-1E+10	1	-1E+10	1	-1E+10	1	-1E+10	1	-1E+10	1	-1E+10	1
4902551	76	C	09/19/2022	04:19	-131.761	48.654	0	1765.30	0	2.0740	0	34.5580	0	27.621	0	1743.014	0	42.9	4	13.0	4	-1E+10	1	-1E+10	1	-1E+10	1	-1E+10	1	-1E+10	1	-1E+10	1
4902551	76	C	09/19/2022	04:19	-131.761	48.654	0	1775.40	0	2.0670	0	34.5590	0	27.622	0	1752.944	0	43.4	4	13.1	4	-1E+10	1	-1E+10	1	-1E+10	1	-1E+10	1	-1E+10	1	-1E+10	1
4902551	76	C	09/19/2022	04:19	-131.761	48.654	0	1785.50	0	2.0620	0	34.5600	0	27.624	0	1762.875	0	44.1	4	13.3	4	-1E+10	1	-1E+10	1	-1E+10	1	-1E+10	1	-1E+10	1	-1E+10	1
4902551	76	C	09/19/2022	04:19	-131.761	48.654	0	1795.70	0	2.0470	0	34.5620	0	27.627	0	1772.903	0	45.0	4	13.6	4	-1E+10	1	-1E+10	1	-1E+10	1	-1E+10	1	-1E+10	1	-1E+10	1
4902551	76	C	09/19/2022	04:19	-131.761	48.654	0	1805.60	0	2.0410	0	34.5640	0	27.629	0	1782.636	0	45.9	4	13.9	4	-1E+10	1	-1E+10	1	-1E+10	1	-1E+10	1	-1E+10	1	-1E+10	1
4902551	76	C	09/19/2022	04:19	-131.761	48.654	0	1815.20	0	2.0270	0	34.5670	0	27.632	0	1792.073	0	47.3	4	14.3	4	-1E+10	1	-1E+10	1	-1E+10	1	-1E+10	1	-1E+10	1	-1E+10	1
4902551	76	C	09/19/2022	04:19	-131.761	48.654	0	1825.00	0	2.0180	0	34.5680	0	27.634	0	1801.707	0	48.1	4	14.5	4	-1E+10	1	-1E+10	1	-1E+10	1	-1E+10	1	-1E+10	1	-1E+10	1
4902551	76	C	09/19/2022	04:19	-131.761	48.654	0	1835.40	0	2.0110	0	34.5700	0	27.636	0	1811.930	0	48.7	4	14.7	4	-1E+10	1	-1E+10	1	-1E+10	1	-1E+10	1	-1E+10	1	-1E+10	1
4902551	76	C	09/19/2022	04:19	-131.761	48.654	0	1845.60	0	2.0020	0	34.5710	0	27.638	0	1821.956	0	49.4	4	14.9	4	-1E+10	1	-1E+10	1	-1E+10	1	-1E+10	1	-1E+10	1	-1E+10	1
4902551	76	C	09/19/2022	04:19	-131.761	48.654	0	1855.30	0	1.9960	0	34.5720	0	27.639	0	1831.490	0	49.8	4	15.0	4	-1E+10	1	-1E+10	1	-1E+10	1	-1E+10	1	-1E+10	1	-1E+10	1
4902551	76	C	09/19/2022	04:19	-131.761	48.654	0	1865.30	0	1.9940	0	34.5730	0	27.640	0	1841.318	0	50.1	4	15.1	4	-1E+10	1	-1E+10	1	-1E+10	1	-1E+10	1	-1E+10	1	-1E+10	1
4902551	76	C	09/19/2022	04:19	-131.761	48.654	0	1875.60	0	1.9890	0	34.5730	0	27.640	0	1851.441	0	50.6	4	15.2	4	-1E+10	1	-1E+10	1	-1E+10	1	-1E+10	1	-1E+10	1	-1E+10	1
4902551	76	C	09/19/2022	04:19	-131.761	48.654	0	1885.60	0	1.9860	0	34.5740	0	27.641	0	1861.268	0	51.1	4	15.4	4	-1E+10	1	-1E+10	1	-1E+10	1	-1E+10	1	-1E+10	1	-1E+10	1
4902551	76	C	09/19/2022	04:19	-131.761	48.654	0	1895.10	0	1.9800	0	34.5760	0	27.644	0	1870.604	0	51.4	4	15.5	4	-1E+10	1	-1E+10	1	-1E+10	1	-1E+10	1	-1E+10	1	-1E+10	1
4902551	76	C	09/19/2022	04:19	-131.761	48.654	0	1905.30	0	1.9760	0	34.5760	0	27.644	0	1880.627	0	51.7	4	15.6	4	-1E+10	1	-1E+10	1	-1E+10	1	-1E+10	1	-1E+10	1	-1E+10	1
4902551	76	C	09/19/2022	04:19	-131.761	48.654	0	1915.50	0	1.9750	0	34.5770	0	27.645	0	1890.650	0	52.0	4	15.7	4	-1E+10	1	-1E+10	1	-1E+10	1	-1E+10	1	-1E+10	1	-1E+10	1
4902551	76	C	09/19/2022	04:19	-131.761	48.654	0	1925.50	0	1.9700	0	34.5780	0	27.646	0	1900.475	0	52.5	4	15.8	4	-1E+10	1	-1E+10	1	-1E+10	1	-1E+10	1	-1E+10	1	-1E+10	1
4902551	76	C	09/19/2022	04:19	-131.761	48.654	0	1935.90	0	1.9640	0	34.5790	0	27.647	0	1910.693	0	53.0	4	16.0	4	-1E+10	1	-1E+10	1	-1E+10	1	-1E+10	1	-1E+10	1	-1E+10	1
4902551	76	C	09/19/2022	04:19	-131.761	48.654	0	1945.60	0	1.9620	0	34.5790	0	27.648	0	1920.223	0	53.8	4	16.2	4	-1E+10	1	-1E+10	1	-1E+10	1	-1E+10	1	-1E+10	1	-1E+10	1
4902551	76	C	09/19/2022	04:19	-131.761	48.654	0	1955.30	0	1.9450	0	34.5820	0	27.651	0	1929.753	0	55.0	4	16.6	4	-1E+10	1	-1E+10	1	-1E+10	1	-1E+10	1	-1E+10	1	-1E+10	1
4902551	76	C	09/19/2022	04:19	-131.761	48.654	0	1965.40	0	1.9360	0	34.5840	0	27.654	0	1939.675	0	55.8	4	16.8	4	-1E+10	1	-1E+10	1	-1E+10	1	-1E+10	1	-1E+10	1	-1E+10	1
4902551	76	C	09/19/2022	04:19	-131.761	48.654	0	1975.40	0	1.9260	0	34.5860	0	27.656	0	1949.498	0	56.4	4	17.0	4	-1E+10	1	-1E+10	1	-1E+10	1	-1E+10	1	-1E+10	1	-1E+10	1
4902551	76	C	09/19/2022	04:19	-131.761	48.654	0	1985.40	0	1.9210	0	34.5870	0	27.657	0	1959.321	0	56.7	4	17.1	4	-1E+10	1	-1E+10	1	-1E+10	1	-1E+10	1	-1E+10	1	-1E+10	1
4902551	76	C	09/19/2022	04:19	-131.761	48.654	0	1995.60	0	1.9180	0	34.5870	0	27.658	0	1969.340	0	56.6	4	17.0	4	-1E+10	1	-1E+10	1	-1E+10	1	-1E+10	1	-1E+10	1	-1E+10	1
4902551	76	C	09/19/2022	04:19	-131.761	48.654	0																										
4902551	77	C	09/29/2022	09:07	-131.708	48.595	0	0.10	0	16.8500	0	32.2840	0	23.467	0	0.099	0	244.3	4	100.3	4	-1E+10	1	-1E+10	1	-1E+10	1	-1E+10	1	-1E+10	1	-1E+10	1
4902551	77	C	09/29/2022	09:07	-131.708	48.595	0	0.20	0	16.8520	0	32.2800	0	23.463	0	0.198	0	-1e10	1	-1e10	1	-1E+10	1	-1E+10	1	-1E+10	1	-1E+10	1	-1E+10	1	-1E+10	1
4902551	77	C	09/29/2022	09:07	-131.708	48.595	0	0.30	0	16.8600	0	32.2720	0	23.455	0	0.297	0	239.0	4	98.1	4	-1E+10	1	-1E+10	1	-1E+10	1	-1E+10	1	-1E+10	1	-1E+10	1
4902551	77	C	09/29/2022	09:07	-131.708	48.595	0	0.90	0	16.8600	0	32.2690	0	23.453	0	0.892	0	239.1	4	98.2	4	-1E+10	1	-1E+10	1	-1E+10	1	-1E+10	1	-1E+10	1	-1E+10	1
4902551	77	C	09/29/2022	09:07	-131.708	48.595	0	1.90	0	16.8610	0	32.2630	0	23.448	0	1.884	0	239.4	4	98.3	4	-1E+10	1	-1E+10	1	-1E+10	1	-1E+10	1	-1E+10	1	-1E+10	1
4902551	77	C	09/29/2022	09:07	-131.708	48.595	0	2.90	0	16.8600	0	32.2560	0	23.443	0	2.875	0	239.7	4	98.4	4	-1E+10	1	-1E+10	1	-1E+10	1	-1E+10	1	-1E+10	1	-1E+10	1
4902551	77	C	09/29/2022	09:07	-131.708	48.595	0	3.90	0	16.8560	0	32.2670	0	23.452	0	3.867	0	240.2	4	98.6	4	-1E+10	1	-1E+10	1	-1E+10	1	-1E+10	1	-1E+10	1	-1E+10	1
4902551	77	C	09/29/2022	09:07	-131.708	48.595	0	4.80	0	16.8170	0	32.2940	0	23.482	0	4.759	0	240.6	4	98.8	4	-1E+10	1	-1E+10	1	-1E+10	1	-1E+10	1	-1E+10	1	-1E+10	1
4902551	77	C	09/29/2022	09:07	-131.708	48.595	0	5.80	0	16.7830	0	32.2850	0	23.483	0	5.751	0	241.1	4	98.9	4	-1E+10	1	-1E+10	1	-1E+10	1	-1E+10	1	-1E+10	1	-1E+10	1
4902551	77	C	09/29/2022	09:07	-131.708	48.595	0	6.90	0	16.7150	0	32.2870	0	23.500	0	6.842	0	241.3	4	98.8	4	-1E+10	1	-1E+10	1	-1E+10	1	-1E+10	1	-1E+10	1	-1E+10	1
4902551	77	C	09/29/2022	09:07	-131.708	48.595	0	8.00	0	16.7060	0	32.2790	0	23.496	0	7.932	0	241.4	4	98.8	4	-1E+10	1	-1E+10	1	-1E+10	1	-1E+10	1	-1E+10	1	-1E+10	1
4902551	77	C	09/29/2022	09:07	-131.708	48.595	0	9.10	0	16.7030	0	32.2790	0	23.497	0	9.023	0	241.3	4	98.8	4	-1E+10	1	-1E+10	1	-1E+10	1	-1E+10	1	-1E+10	1	-1E+10	1
4902551	77	C	09/29/2022	09:07	-131.708	48.595	0	9.90	0	16.6990	0	32.2800	0	23.499	0	9.816	0	241.4	4	98.8	4	-1E+10	1	-1E+10	1	-1E+10	1	-1E+10	1	-1E+10	1	-1E+10	1
4902551	77	C	09/29/2022	09:07	-131.708	48.595	0	11.00	0	16.6920	0	32.2790	0	23.500	0	10.907	0	241.3	4	98.8	4	-1E+10	1	-1E+10	1	-1E+10	1	-1E+10	1	-1E+10	1	-1E+10	1
4902551	77	C	09/29/2022	09:07	-131.708	48.595	0	12.20	0	16.6850	0	32.2790	0	23.501	0	12.097	0	241.4	4	98.8	4	-1E+10	1	-1E+10	1	-1E+10	1	-1E+10	1	-1E+10	1	-1E+10	1
4902551	77	C	09/29/2022	09:07	-131.708	48.595	0	12.90	0	16.6830	0	32.2780	0	23.501	0	12.791	0	241.4	4	98.8	4	-1E+10	1	-1E+10	1	-1E+10	1	-1E+10	1	-1E+10	1	-1E+10	1
4902551	77	C	09/29/2022	09:07	-131.708	48.595	0	13.70	0	16.6810	0	32.2790	0	23.502	0	13.584	0	241.4	4	98.8	4	-1E+10	1	-1E+10	1	-1E+10	1	-1E+10	1	-1E+10	1	-1E+10	1
4902551	77	C	09/29/2022	09:07	-131.708	48.595	0	14.80	0	16.6760	0	32.2790	0	23.503	0	14.674	0	241.5	4	98.8	4	-1E+10	1	-1E+10	1	-1E+10	1	-1E+10	1	-1E+10	1	-1E+10	1
4902551	77	C	09/29/2022	09:07	-131.708	48.595	0	16.00	0	16.6740	0	32.2780	0	23.503	0	15.864	0	241.6	4	98.9	4	-1E+10	1	-1E+10	1	-1E+10	1	-1E+10	1	-1E+10	1	-1E+10	1
4902551	77	C	09/29/2022	09:07	-131.708	48.595	0	17.00	0	16.6720	0	32.2780	0	23.504	0	16.856	0	241.6	4	98.9	4	-1E+10	1	-1E+10	1	-1E+10	1	-1E+10	1	-1E+10	1	-1E+10	1
4902551	77	C	09/29/2022	09:07	-131.708	48.595	0	18.10	0	16.6690	0	32.2780	0	23.504	0	17.946	0	241.8	4	98.9	4	-1E+10	1	-1E+10	1	-1E+10	1	-1E+10	1	-1E+10	1	-1E+10	1
4902551	77	C	09/29/2022	09:07	-131.708	48.595	0	19.10	0	16.6650	0	32.2780	0	23.505	0	18.938	0	242.0	4	99.0	4	-1E+10	1	-1E+10	1	-1E+10	1	-1E+10	1	-1E+10	1	-1E+10	1
4902551	77	C	09/29/2022	09:07	-131.708	48.595	0	19.90	0	16.6500	0	32.2810	0	23.511	0	19.731	0	242.5	4	99.2	4	-1E+10	1	-1E+10	1	-1E+10	1	-1E+10	1	-1E+10	1	-1E+10	1
4902551	77	C	09/29/2022	09:07	-131.708	48.595	0	20.90	0	16.6350	0	32.2830	0	23.516	0	20.722	0	243.5	4	99.6	4	-1E+10	1	-1E+10	1	-1E+10	1	-1E+10	1	-1E+10	1	-1E+10	1
4902551	77	C	09/29/2022	09:07	-131.708	48.595	0	22.00	0	16.5650	0	32.2900	0	23.538	0	21.813	0	245.7	4	100.3	4	-1E+10	1	-1E+10	1	-1E+10	1	-1E+10	1	-1E+10	1	-1E+10	1
4902551	77	C	09/29/2022	09:07	-131.708	48.595	0	22.80	0	16.3090	0	32.2940	0	23.599	0	22.606	0	247.6	4	100.6	4	-1E+10	1	-1E+10	1	-1E+10	1	-1E+10	1	-1E+10	1	-1E+10	1
4902551	77	C	09/29/2022	09:07	-131.708	48.595	0	23.80	0	16.1150	0	32.2940	0	23.643	0	23.598	0	249.4	4	101.0	4	-1E+10	1	-1E+10	1	-1E+10	1	-1E+10	1	-1E+10	1	-1E+10	1
4902551	77	C	09/29/2022	09:07	-131.708	48.595	0	24.90	0	15.7900	0	32.3120	0	23.729	0	24.688	0	251.3	4	101.1	4	-1E+10	1	-1E+10	1	-1E+10	1	-1E+10	1	-1E+10	1	-1E+10	1
4902551	77	C	09/29/2022	09:07	-131.708	48.595	0	26.00	0	15.5680	0	32.2880	0	23.760	0	25.779	0	253.5	4	101.5	4	-1E+10	1	-1E+10	1	-1E+10	1	-1E+10	1	-1E+10	1	-1E+10	1
4902551	77	C	09/29/2022	09:07	-131.708	48.595	0	27.00	0	15.0880	0	32.3090	0	23.881	0	26.770	0	255.5	4	101.4	4	-1E+10	1	-1E+10	1	-1E+10	1	-1E+10	1	-1E+10	1	-1E+10	1
4902551	77	C	09/29/2022	09:07	-131.708	48.595	0	28.10	0	14.9680	0	32.3060	0	23.904	0	27.861	0	256.8	4	101.6	4	-1E+10	1	-1E+10	1	-1E+10	1	-1E+10	1	-1E+10	1	-1E+10	1
4902551	77	C	09/29/2022	09:07	-131.708	48.595	0	29.10	0	14.9380	0	32.2950	0	23.902	0	28.852	0	257.8	4	102.0	4	-1E+10	1	-1E+10	1	-1E+10	1	-1E+10	1	-1E+10	1	-1E+10	1
4902551	77	C	09/29/2022	09:07	-131.708	48.595	0	30.10	0	14.8860	0	32.3020	0	23.919	0	29.844	0	259.0	4	102.3	4	-1E+10	1	-1E+10	1	-1E+10	1	-1E+10	1	-1E+10	1	-1E+10	1
4902551	77	C	09/29/2022	09:07	-131.708	48.595	0	31.30	0	14.5940	0	32.3270	0	24.000	0	31.033	0	260.9	4	102.5	4	-1E+10	1	-1E+10	1	-1E+10	1	-1E+10	1	-1E+10	1	-1E+10	1
4902551	77	C	09/29/2022	09:07	-131.708	48.595	0	32.10	0	14.4760	0	32.2970	0	24.002	0	31.826	0	262.7	4	103.0	4	-1E+10	1	-1E+10	1	-1E+10	1	-1E+10	1	-1E+10	1	-1E+10	1
4902551	77	C	09/29/2022	09:07	-131.708	48.595	0	33.00	0	13.9340	0	32.3130	0	24.127	0	32.719	0	265.5	4	103.0	4	-1E+10	1	-1E+10	1	-1E+10	1	-1E+10	1	-1E+10	1	-1E+10	1
4902551	77	C	09/29/2022	09:07	-131.708	48.595	0	34.10	0	13.5390	0	32.3000	0	24.197	0	33.809	0	268.0	4	103.1	4	-1E+10	1	-1E+10	1	-1E+10	1	-1E+10	1	-1E+10	1	-1E+10	1
4902551	77	C	09/29/2022	09:07	-131.708	48.595	0	35.10	0	13.0900	0	32.3180	0	24.300	0	34.801	0	269.7	4	102.8	4	-1E+10	1	-1E+10	1	-1E+10	1	-1E+10	1	-1E+10	1	-1E+10	1
4902551	77	C	09/29/2022	09:07	-131.708	48.595	0	35.70	0	12.6580	0	32.3340	0	24.396	0	35.395	0	270.4	4	102.2	4	-1E+10	1	-1E+10	1	-1E+10	1	-1E+10	1	-1E+10	1	-1E+10	1
4902551	77	C	09/29/2022	09:07	-131.708	48.595	0	36.70	0	11.9540	0	32.3300	0	24.526	0	36.387	0	272.0	4	101.3	4	-1E+10	1	-1E+10	1	-1E+10	1	-1E+10	1	-1E+10	1	-1E+10	1
4902551	77	C	09/29/2022	09:07	-131.708	48.595	0	37.80	0	11.4810	0	32.3420	0	24.622	0	37.477	0	272.8	4	100.6	4	-1E+10	1	-1E+10	1	-1E+10	1	-1E+10	1	-1E+10	1	-1E+10	1
4902551	77	C	09/29/2022	09:07	-131.708	48.595	0	38.80	0	11.1320	0	32.3380	0	24.681	0	38.469	0	273.6	4	100.2	4	-1E+10	1	-1E+10	1	-1E+10	1	-1E+10	1	-1E+10	1	-1E+10	1
4902551	77	C	09/29/2022	09:07	-131.708	48.595	0	40.00	0	11.0050	0	32.3200	0	24.690	0	39.658	0	273.5	4	99.8	4	-1E+10	1	-1E+10	1	-1E+10	1	-1E+10	1	-1E+10	1	-1E+10	1
4902551	77	C	09/29/2022	09:07	-131.708	48.595	0	41.10	0	10.7470	0	32.3300	0	24.742	0	40.749	0	272.9	4	99.1	4	-1E+10	1	-1E+10	1	-1E+10	1	-1E+10	1	-1E+10	1	-1E+10	1
4902551	77	C	09/29/2022	09:07	-131.708	48.595	0	42.00	0	10.4720	0	32.3250	0	24.786	0	41.641	0	272.5	4	98.3	4	-1E+10	1	-1E+10	1	-1E+10	1	-1E+10	1	-1E+10	1	-1E+10	1
4902551	77	C	09/29/2022	09:07	-131.708	48.595	0	43.00	0	10.2080	0	32.3410	0	24.843	0	42.632	0	272.2	4	97.7	4	-1E+10	1	-1E+10	1	-1E+10	1	-1E+10	1	-1E+10	1	-1E+10	1
4902551	77	C	09/29/2022	09:07	-131.708	48.595	0	44.10	0	10.0820	0	32.3300	0	24.855	0	43.723	0	271.7	4	97.3	4	-1E+10	1	-1E+10	1	-1E+10	1	-1E+10	1	-1E+10	1	-1E+10	1
4902551	77	C	09/29/2022	09:07	-131.708	48.595	0	44.90	0	9.9790	0	32.3350	0	24.876	0	44.516	0	271.5	4	97.0	4	-1E+10	1	-1E+10	1	-1E+10	1	-1E+10	1	-1E+10	1	-1E+10	1
4902551	77	C	09/29/2022	09:07	-131.708	48.595	0	46.00	0	9.8430	0	32.3270	0	24.892	0	45.606	0	271.0	4	96.5	4	-1E+10	1	-1E+10	1	-1E+10	1	-1E+10	1	-1E+10	1	-1E+10	1
4902551	77	C	09/29/2022	09:07	-131.708	48.595	0	46.90	0	9.6930	0	32.3490	0	24.934	0	46.499	0	270.6	4	96.0	4	-1E+10	1	-1E+10	1	-1E+10	1	-1E+10	1	-1E+10	1	-1E+10	1
4902551	77	C	09/29/2022	09:07	-131.708	48.595	0	48.10	0	9.5950	0	32.3430	0	24.945	0	47.688	0	270.0	4	95.6	4	-1E+10	1	-1E+10	1	-1E+10	1	-1E+10	1	-1E+10	1	-1E+10	1
4902551	77	C	09/29/2022	09:07	-131.708	48.595	0	48.80	0	9.5280	0	32.3480	0	24.960	0	48.382	0	269.8	4	95.4	4	-1E+10	1	-1E+10	1	-1E+10	1	-1E+10	1	-1E+10	1	-1E+10	1
4902551	77	C	09/29/2022	09:07	-131.708	48.595	0	49.70	0	9.4490	0	32.3450	0	24.970	0	49.274	0	269.6	4	95.2	4	-1E+10	1	-1E+10	1	-1E+10	1	-1E+10	1	-1E+10	1	-1E+10	1
4902551	77	C	09/29/2022	09:07	-131.708	48.595	0	50.70	0	9.3940	0	32.3470	0	24.981	0	50.266	0	269.2	4	94.9	4	-1E+10	1	-1E+10	1	-1E+10	1	-1E+10	1	-1E+10	1	-1E+10	1
4902551	77	C	09/29/2022	09:07	-131.708	48.595	0	51.70	0	9.2750	0	32.3480	0	25.000	0	51.257	0	269.1	4	94.6	4	-1E+10	1	-1E+10	1	-1E+10	1	-1E+10	1	-1E+10	1	-1E+10	1
4902551	77	C	09/29/2022	09:07	-131.708	48.595	0	52.80	0	9.2100	0	32.3510	0	25.013	0	52.347	0	268.9	4	94.4	4	-1E+10	1	-1E+10	1	-1E+10	1	-1E+10	1	-1E+10	1	-1E+10	1
4902551	77	C	09/29/2022	09:07	-131.708	48.595	0	54.00	0	9.0620	0	32.3630	0	25.045	0	53.537	0	268.8	4	94.1	4	-1E+10	1	-1E+10	1	-1E+10	1	-1E+10	1	-1E+10	1	-1E+10	1
4902551	77	C	09/29/2022	09:07	-131.708	48.595	0	54.90	0	8.9420	0	32.3580	0	25.060	0	54.429	0	269.1	4	94.0	4	-1E+10	1	-1E+10	1	-1E+10	1	-1E+10	1	-1E+10	1	-1E+10	1
4902551	77	C	09/29/2022	09:07	-131.708	48.595	0	55.80	0	8.8970	0	32.3610	0	25.069	0	55.321	0	269.0	4	93.8	4	-1E+10	1	-1E+10	1	-1E+10	1	-1E+10	1	-1E+10	1	-1E+10	1
4902551	77	C	09/29/2022	09:07	-131.708	48.595	0	56.80	0	8.8280	0	32.3660	0	25.084	0	56.313	0	269.0	4	93.7	4	-1E+10	1	-1E+10	1	-1E+10	1	-1E+10	1	-1E+10	1	-1E+10	1
4902551	77	C	09/29/2022	09:07	-131.708	48.595	0	57.80	0	8.7750	0	32.3610	0	25.088	0	57.304	0	269.0	4	93.6	4	-1E+10	1	-1E+10	1	-1E+10	1	-1E+10	1	-1E+10	1	-1E+10	1
4902551	77	C	09/29/2022	09:07	-131.708	48.595	0	58.80	0	8.7130	0	32.3690	0	25.104	0	58.295	0	269.0	4	93.5	4	-1E+10	1	-1E+10	1	-1E+10	1	-1E+10	1	-1E+10	1	-1E+10	1
4902551	77	C	09/29/2022	09:07	-131.708	48.595	0	59.80	0	8.6560	0	32.3650	0	25.109	0	59.286	0	269.2	4	93.4	4	-1E+10	1	-1E+10	1	-1E+10	1	-1E+10	1	-1E+10	1	-1E+10	1
4902551	77	C	09/29/2022	09:07	-131.708	48.595	0	61.00	0	8.6440	0	32.3620	0	25.109	0	60.476	0	269.2	4	93.4	4	-1E+10	1	-1E+10	1	-1E+10	1	-1E+10	1	-1E+10	1	-1E+10	1
4902551	77	C	09/29/2022	09:07	-131.708	48.595	0	62.00	0	8.6420	0	32.3620	0	25.109	0	61.467	0	269.1	4	93.3	4	-1E+10	1	-1E+10	1	-1E+10	1	-1E+10	1	-1E+10	1	-1E+10	1
4902551	77	C	09/29/2022	09:07	-131.708	48.595	0	62.90	0	8.6250	0	32.3640	0	25.113	0	62.359	0	268.9	4	93.2	4	-1E+10	1	-1E+10	1	-1E+10	1	-1E+10	1	-1E+10	1	-1E+10	1
4902551	77	C	09/29/2022	09:07	-131.708	48.595	0	64.10	0	8.6160	0	32.3630	0	25.114	0	63.549	0	268.8	4	93.2	4	-1E+10	1	-1E+10	1	-1E+10	1	-1E+10	1	-1E+10	1	-1E+10	1
4902551	77	C	09/29/2022	09:07	-131.708	48.595	0	65.00	0	8.5820	0	32.3730	0	25.127	0	64.441	0	268.7	4	93.1	4	-1E+10	1	-1E+10	1	-1E+10	1	-1E+10	1	-1E+10	1	-1E+10	1
4902551	77	C	09/29/2022	09:07	-131.708	48.595	0	65.90	0	8.5100	0	32.3750	0	25.139	0	65.333	0	268.7	4	92.9	4	-1E+10	1	-1E+10	1	-1E+10	1	-1E+10	1	-1E+10	1	-1E+10	1
4902551	77	C	09/29/2022	09:07	-131.708	48.595	0	67.00	0	8.4230	0	32.3750	0	25.152	0	66.423	0	268.8	4	92.8	4	-1E+10	1	-1E+10	1	-1E+10	1	-1E+10	1	-1E+10	1	-1E+10	1
4902551	77	C	09/29/2022	09:07	-131.708	48.595	0	68.10	0	8.4010	0	32.3710	0	25.152	0	67.514	0	268.6	4	92.7	4	-1E+10	1	-1E+10	1	-1E+10	1	-1E+10	1	-1E+10	1	-1E+10	1
4902551	77	C	09/29/2022	09:07	-131.708	48.595	0	69.10	0	8.3900	0	32.3710	0	25.154	0	68.505	0	268.4	4	92.6	4	-1E+10	1	-1E+10	1	-1E+10	1	-1E+10	1	-1E+10	1	-1E+10	1
4902551	77	C	09/29/2022	09:07	-131.708	48.595	0	70.10	0	8.3830	0	32.3730	0	25.157	0	69.496	0	268.1	4	92.5	4	-1E+10	1	-1E+10	1	-1E+10	1	-1E+10	1	-1E+10	1	-1E+10	1
4902551	77	C	09/29/2022	09:07	-131.708	48.595	0	71.00	0	8.3750	0	32.3830	0	25.166	0	70.388	0	267.7	4	92.3	4	-1E+10	1	-1E+10	1	-1E+10	1	-1E+10	1	-1E+10	1	-1E+10	1
4902551	77	C	09/29/2022	09:07	-131.708	48.595	0	71.70	0	8.3160	0	32.3790	0	25.171	0	71.082	0	267.5	4	92.1	4	-1E+10	1	-1E+10	1	-1E+10	1	-1E+10	1	-1E+10	1	-1E+10	1
4902551	77	C	09/29/2022	09:07	-131.708	48.595	0	72.70	0	8.2950	0	32.3810	0	25.176	0	72.073	0	267.2	4	92.0	4	-1E+10	1	-1E+10	1	-1E+10	1	-1E+10	1	-1E+10	1	-1E+10	1
4902551	77	C	09/29/2022	09:07	-131.708	48.595	0	73.90	0	8.2090	0	32.3990	0	25.203	0	73.263	0	266.7	4	91.6	4	-1E+10	1	-1E+10	1	-1E+10	1	-1E+10	1	-1E+10	1	-1E+10	1
4902551	77	C	09/29/2022	09:07	-131.708	48.595	0	75.00	0	8.0860	0	32.4090	0	25.228	0	74.353	0	266.5	4	91.3	4	-1E+10	1	-1E+10	1	-1E+10	1	-1E+10	1	-1E+10	1	-1E+10	1
4902551	77	C	09/29/2022	09:07	-131.708	48.595	0	75.90	0	8.0320	0	32.4020	0	25.231	0	75.245	0	266.3	4	91.1	4	-1E+10	1	-1E+10	1	-1E+10	1	-1E+10	1	-1E+10	1	-1E+10	1
4902551	77	C	09/29/2022	09:07	-131.708	48.595	0	76.80	0	7.9730	0	32.3990	0	25.237	0	76.137	0	266.2	4	91.0	4	-1E+10	1	-1E+10	1	-1E+10	1	-1E+10	1	-1E+10	1	-1E+10	1
4902551	77	C	09/29/2022	09:07	-131.708	48.595	0	77.90	0	7.8890	0	32.4040	0	25.253	0	77.228	0	266.2	4	90.8	4	-1E+10	1	-1E+10	1	-1E+10	1	-1E+10	1	-1E+10	1	-1E+10	1
4902551	77	C	09/29/2022	09:07	-131.708	48.595	0	79.00	0	7.8210	0	32.4080	0	25.266	0	78.318	0	266.2	4	90.7	4	-1E+10	1	-1E+10	1	-1E+10	1	-1E+10	1	-1E+10	1	-1E+10	1
4902551	77	C	09/29/2022	09:07	-131.708	48.595	0	80.30	0	7.7580	0	32.4040	0	25.271	0	79.606	0	266.4	4	90.6	4	-1E+10	1	-1E+10	1	-1E+10	1	-1E+10	1	-1E+10	1	-1E+10	1
4902551	77	C	09/29/2022	09:07	-131.708	48.595	0	80.90	0	7.7420	0	32.4040	0	25.274	0	80.201	0	266.5	4	90.6	4	-1E+10	1	-1E+10	1	-1E+10	1	-1E+10	1	-1E+10	1	-1E+10	1
4902551	77	C	09/29/2022	09:07	-131.708	48.595	0	82.00	0	7.7260	0	32.4080	0	25.279	0	81.291	0	266.5	4	90.6	4	-1E+10	1	-1E+10	1	-1E+10	1	-1E+10	1	-1E+10	1	-1E+10	1
4902551	77	C	09/29/2022	09:07	-131.708	48.595	0	83.10	0	7.7460	0	32.4250	0	25.290	0	82.382	0	273.1	4	92.9	4	-1E+10	1	-1E+10	1	-1E+10	1	-1E+10	1	-1E+10	1	-1E+10	1
4902551	77	C	09/29/2022	09:07	-131.708	48.595	0	83.90	0	7.7720	0	32.4320	0	25.292	0	83.174	0	272.6	4	92.8	4	-1E+10	1	-1E+10	1	-1E+10	1	-1E+10	1	-1E+10	1	-1E+10	1
4902551	77	C	09/29/2022	09:07	-131.708	48.595	0	84.80	0	7.7610	0	32.4410	0	25.300	0	84.067	0	272.1	4	92.6	4	-1E+10	1	-1E+10	1	-1E+10	1	-1E+10	1	-1E+10	1	-1E+10	1
4902551	77	C	09/29/2022	09:07	-131.708	48.595	0	85.80	0	7.7340	0	32.4430	0	25.306	0	85.058	0	271.5	4	92.3	4	-1E+10	1	-1E+10	1	-1E+10	1	-1E+10	1	-1E+10	1	-1E+10	1
4902551	77	C	09/29/2022	09:07	-131.708	48.595	0	86.90	0	7.6220	0	32.4580	0	25.333	0	86.148	0	271.3	4	92.0	4	-1E+10	1	-1E+10	1	-1E+10	1	-1E+10	1	-1E+10	1	-1E+10	1
4902551	77	C	09/29/2022	09:07	-131.708	48.595	0	88.00	0	7.5210	0	32.4530	0	25.343	0	87.238	0	271.4	4	91.8	4	-1E+10	1	-1E+10	1	-1E+10	1	-1E+10	1	-1E+10	1	-1E+10	1
4902551	77	C	09/29/2022	09:07	-131.708	48.595	0	88.90	0	7.4730	0	32.4600	0	25.355	0	88.130	0	271.0	4	91.6	4	-1E+10	1	-1E+10	1	-1E+10	1	-1E+10	1	-1E+10	1	-1E+10	1
4902551	77	C	09/29/2022	09:07	-131.708	48.595	0	90.10	0	7.4240	0	32.4580	0	25.361	0	89.320	0	270.7	4	91.4	4	-1E+10	1	-1E+10	1	-1E+10	1	-1E+10	1	-1E+10	1	-1E+10	1
4902551	77	C	09/29/2022	09:07	-131.708	48.595	0	90.80	0	7.3780	0	32.4570	0	25.366	0	90.013	0	270.4	4	91.2	4	-1E+10	1	-1E+10	1	-1E+10	1	-1E+10	1	-1E+10	1	-1E+10	1
4902551	77	C	09/29/2022	09:07	-131.708	48.595	0	91.80	0	7.3570	0	32.4590	0	25.371	0	91.004	0	269.7	4	90.9	4	-1E+10	1	-1E+10	1	-1E+10	1	-1E+10	1	-1E+10	1	-1E+10	1
4902551	77	C	09/29/2022	09:07	-131.708	48.595	0	92.80	0	7.3100	0	32.4640	0	25.381	0	91.996	0	268.8	4	90.6	4	-1E+10	1	-1E+10	1	-1E+10	1	-1E+10	1	-1E+10	1	-1E+10	1
4902551	77	C	09/29/2022	09:07	-131.708	48.595	0	93.80	0	7.2780	0	32.4600	0	25.382	0	92.987	0	268.0	4	90.2	4	-1E+10	1	-1E+10	1	-1E+10	1	-1E+10	1	-1E+10	1	-1E+10	1
4902551	77	C	09/29/2022	09:07	-131.708	48.595	0	94.80	0	7.2580	0	32.4610	0	25.386	0	93.978	0	267.2	4	89.9	4	-1E+10	1	-1E+10	1	-1E+10	1	-1E+10	1	-1E+10	1	-1E+10	1
4902551	77	C	09/29/2022	09:07	-131.708	48.595	0	95.80	0	7.2390	0	32.4610	0	25.388	0	94.969	0	266.1	4	89.5	4	-1E+10	1	-1E+10	1	-1E+10	1	-1E+10	1	-1E+10	1	-1E+10	1
4902551	77	C	09/29/2022	09:07	-131.708	48.595	0	97.00	0	7.2210	0	32.4630	0	25.392	0	96.158	0	264.6	4	89.0	4	-1E+10	1	-1E+10	1	-1E+10	1	-1E+10	1	-1E+10	1	-1E+10	1
4902551	77	C	09/29/2022	09:07	-131.708	48.595	0	97.70	0	7.1980	0	32.4630	0	25.396	0	96.852	0	263.5	4	88.5	4	-1E+10	1	-1E+10	1	-1E+10	1	-1E+10	1	-1E+10	1	-1E+10	1
4902551	77	C	09/29/2022	09:07	-131.708	48.595	0	98.70	0	7.1730	0	32.4660	0	25.401	0	97.843	0	262.1	4	88.0	4	-1E+10	1	-1E+10	1	-1E+10	1	-1E+10	1	-1E+10	1	-1E+10	1
4902551	77	C	09/29/2022	09:07	-131.708	48.595	0	99.90	0	7.1310	0	32.4820	0	25.420	0	99.032	0	260.6	4	87.4	4	-1E+10	1	-1E+10	1	-1E+10	1	-1E+10	1	-1E+10	1	-1E+10	1
4902551	77	C	09/29/2022	09:07	-131.708	48.595	0	101.10	0	7.1100	0	32.4940	0	25.432	0	100.222	0	259.2	4	86.9	4	-1E+10	1	-1E+10	1	-1E+10	1	-1E+10	1	-1E+10	1	-1E+10	1
4902551	77	C	09/29/2022	09:07	-131.708	48.595	0	102.30	0	7.1010	0	32.5020	0	25.439	0	101.411	0	257.4	4	86.3	4	-1E+10	1	-1E+10	1	-1E+10	1	-1E+10	1	-1E+10	1	-1E+10	1
4902551	77	C	09/29/2022	09:07	-131.708	48.595	0	103.00	0	7.0790	0	32.5210	0	25.457	0	102.105	0	256.5	4	86.0	4	-1E+10	1	-1E+10	1	-1E+10	1	-1E+10	1	-1E+10	1	-1E+10	1
4902551	77	C	09/29/2022	09:07	-131.708	48.595	0	104.00	0	7.0640	0	32.5410	0	25.475	0	103.096	0	255.5	4	85.6	4	-1E+10	1	-1E+10	1	-1E+10	1	-1E+10	1	-1E+10	1	-1E+10	1
4902551	77	C	09/29/2022	09:07	-131.708	48.595	0	105.00	0	7.0480	0	32.5630	0	25.495	0	104.087	0	254.6	4	85.3	4	-1E+10	1	-1E+10	1	-1E+10	1	-1E+10	1	-1E+10	1	-1E+10	1
4902551	77	C	09/29/2022	09:07	-131.708	48.595	0	106.10	0	7.0330	0	32.5760	0	25.507	0	105.177	0	253.4	4	84.9	4	-1E+10	1	-1E+10	1	-1E+10	1	-1E+10	1	-1E+10	1	-1E+10	1
4902551	77	C	09/29/2022	09:07	-131.708	48.595	0	107.00	0	7.0210	0	32.5870	0	25.517	0	106.069	0	252.6	4	84.6	4	-1E+10	1	-1E+10	1	-1E+10	1	-1E+10	1	-1E+10	1	-1E+10	1
4902551	77	C	09/29/2022	09:07	-131.708	48.595	0	107.90	0	6.9940	0	32.6050	0	25.535	0	106.961	0	251.8	4	84.3	4	-1E+10	1	-1E+10	1	-1E+10	1	-1E+10	1	-1E+10	1	-1E+10	1
4902551	77	C	09/29/2022	09:07	-131.708	48.595	0	108.80	0	6.9450	0	32.6290	0	25.560	0	107.853	0	251.1	4	84.0	4	-1E+10	1	-1E+10	1	-1E+10	1	-1E+10	1	-1E+10	1	-1E+10	1
4902551	77	C	09/29/2022	09:07	-131.708	48.595	0	109.80	0	6.9180	0	32.6410	0	25.573	0	108.844	0	250.1	4	83.6	4	-1E+10	1	-1E+10	1	-1E+10	1	-1E+10	1	-1E+10	1	-1E+10	1
4902551	77	C	09/29/2022	09:07	-131.708	48.595	0	110.90	0	6.9000	0	32.6550	0	25.587	0	109.934	0	248.5	4	83.1	4	-1E+10	1	-1E+10	1	-1E+10	1	-1E+10	1	-1E+10	1	-1E+10	1
4902551	77	C	09/29/2022	09:07	-131.708	48.595	0	112.00	0	6.8880	0	32.6640	0	25.595	0	111.024	0	247.0	4	82.5	4	-1E+10	1	-1E+10	1	-1E+10	1	-1E+10	1	-1E+10	1	-1E+10	1
4902551	77	C	09/29/2022	09:07	-131.708	48.595	0	113.20	0	6.8760	0	32.6790	0	25.609	0	112.213	0	245.6	4	82.0	4	-1E+10	1	-1E+10	1	-1E+10	1	-1E+10	1	-1E+10	1	-1E+10	1
4902551	77	C	09/29/2022	09:07	-131.708	48.595	0	114.10	0	6.8680	0	32.6870	0	25.616	0	113.105	0	244.6	4	81.7	4	-1E+10	1	-1E+10	1	-1E+10	1	-1E+10	1	-1E+10	1	-1E+10	1
4902551	77	C	09/29/2022	09:07	-131.708	48.595	0	114.90	0	6.8640	0	32.6920	0	25.621	0	113.898	0	243.7	4	81.4	4	-1E+10	1	-1E+10	1	-1E+10	1	-1E+10	1	-1E+10	1	-1E+10	1
4902551	77	C	09/29/2022	09:07	-131.708	48.595	0	116.10	0	6.8550	0	32.7000	0	25.628	0	115.087	0	242.2	4	80.9	4	-1E+10	1	-1E+10	1	-1E+10	1	-1E+10	1	-1E+10	1	-1E+10	1
4902551	77	C	09/29/2022	09:07	-131.708	48.595	0	116.90	0	6.8490	0	32.7070	0	25.634	0	115.880	0	241.1	4	80.5	4	-1E+10	1	-1E+10	1	-1E+10	1	-1E+10	1	-1E+10	1	-1E+10	1
4902551	77	C	09/29/2022	09:07	-131.708	48.595	0	117.70	0	6.8450	0	32.7090	0	25.637	0	116.673	0	240.0	4	80.1	4	-1E+10	1	-1E+10	1	-1E+10	1	-1E+10	1	-1E+10	1	-1E+10	1
4902551	77	C	09/29/2022	09:07	-131.708	48.595	0	118.90	0	6.8080	0	32.7540	0	25.677	0	117.862	0	238.5	4	79.6	4	-1E+10	1	-1E+10	1	-1E+10	1	-1E+10	1	-1E+10	1	-1E+10	1
4902551	77	C	09/29/2022	09:07	-131.708	48.595	0	119.90	0	6.7940	0	32.7800	0	25.699	0	118.853	0	237.6	4	79.3	4	-1E+10	1	-1E+10	1	-1E+10	1	-1E+10	1	-1E+10	1	-1E+10	1
4902551	77	C	09/29/2022	09:07	-131.708	48.595	0	120.80	0	6.7940	0	32.7860	0	25.704	0	119.745	0	236.6	4	79.0	4	-1E+10	1	-1E+10	1	-1E+10	1	-1E+10	1	-1E+10	1	-1E+10	1
4902551	77	C	09/29/2022	09:07	-131.708	48.595	0	122.10	0	6.7950	0	32.7960	0	25.712	0	121.033	0	234.9	4	78.4	4	-1E+10	1	-1E+10	1	-1E+10	1	-1E+10	1	-1E+10	1	-1E+10	1
4902551	77	C	09/29/2022	09:07	-131.708	48.595	0	123.00	0	6.8040	0	32.8110	0	25.722	0	121.925	0	233.2	4	77.9	4	-1E+10	1	-1E+10	1	-1E+10	1	-1E+10	1	-1E+10	1	-1E+10	1
4902551	77	C	09/29/2022	09:07	-131.708	48.595	0	123.90	0	6.7980	0	32.8170	0	25.728	0	122.817	0	231.3	4	77.2	4	-1E+10	1	-1E+10	1	-1E+10	1	-1E+10	1	-1E+10	1	-1E+10	1
4902551	77	C	09/29/2022	09:07	-131.708	48.595	0	125.10	0	6.7940	0	32.8410	0	25.747	0	124.006	0	228.6	4	76.3	4	-1E+10	1	-1E+10	1	-1E+10	1	-1E+10	1	-1E+10	1	-1E+10	1
4902551	77	C	09/29/2022	09:07	-131.708	48.595	0	126.10	0	6.7820	0	32.8620	0	25.766	0	124.997	0	226.4	4	75.6	4	-1E+10	1	-1E+10	1	-1E+10	1	-1E+10	1	-1E+10	1	-1E+10	1
4902551	77	C	09/29/2022	09:07	-131.708	48.595	0	127.00	0	6.7560	0	32.8960	0	25.796	0	125.889	0	223.7	4	74.6	4	-1E+10	1	-1E+10	1	-1E+10	1	-1E+10	1	-1E+10	1	-1E+10	1
4902551	77	C	09/29/2022	09:07	-131.708	48.595	0	128.10	0	6.7170	0	32.9440	0	25.839	0	126.979	0	221.3	4	73.8	4	-1E+10	1	-1E+10	1	-1E+10	1	-1E+10	1	-1E+10	1	-1E+10	1
4902551	77	C	09/29/2022	09:07	-131.708	48.595	0	128.80	0	6.6970	0	32.9800	0	25.870	0	127.672	0	220.0	4	73.4	4	-1E+10	1	-1E+10	1	-1E+10	1	-1E+10	1	-1E+10	1	-1E+10	1
4902551	77	C	09/29/2022	09:07	-131.708	48.595	0	129.80	0	6.6920	0	32.9870	0	25.876	0	128.663	0	218.3	4	72.8	4	-1E+10	1	-1E+10	1	-1E+10	1	-1E+10	1	-1E+10	1	-1E+10	1
4902551	77	C	09/29/2022	09:07	-131.708	48.595	0	130.80	0	6.6840	0	32.9960	0	25.884	0	129.654	0	216.3	4	72.1	4	-1E+10	1	-1E+10	1	-1E+10	1	-1E+10	1	-1E+10	1	-1E+10	1
4902551	77	C	09/29/2022	09:07	-131.708	48.595	0	131.80	0	6.6660	0	33.0170	0	25.903	0	130.645	0	214.0	4	71.3	4	-1E+10	1	-1E+10	1	-1E+10	1	-1E+10	1	-1E+10	1	-1E+10	1
4902551	77	C	09/29/2022	09:07	-131.708	48.595	0	133.00	0	6.6280	0	33.0680	0	25.948	0	131.834	0	212.1	4	70.7	4	-1E+10	1	-1E+10	1	-1E+10	1	-1E+10	1	-1E+10	1	-1E+10	1
4902551	77	C	09/29/2022	09:07	-131.708	48.595	0	134.00	0	6.6020	0	33.1030	0	25.979	0	132.825	0	210.7	4	70.2	4	-1E+10	1	-1E+10	1	-1E+10	1	-1E+10	1	-1E+10	1	-1E+10	1
4902551	77	C	09/29/2022	09:07	-131.708	48.595	0	135.10	0	6.5840	0	33.1210	0	25.996	0	133.915	0	208.7	4	69.5	4	-1E+10	1	-1E+10	1	-1E+10	1	-1E+10	1	-1E+10	1	-1E+10	1
4902551	77	C	09/29/2022	09:07	-131.708	48.595	0	135.80	0	6.5710	0	33.1360	0	26.009	0	134.609	0	207.2	4	69.0	4	-1E+10	1	-1E+10	1	-1E+10	1	-1E+10	1	-1E+10	1	-1E+10	1
4902551	77	C	09/29/2022	09:07	-131.708	48.595	0	136.90	0	6.5460	0	33.1600	0	26.031	0	135.699	0	204.7	4	68.1	4	-1E+10	1	-1E+10	1	-1E+10	1	-1E+10	1	-1E+10	1	-1E+10	1
4902551	77	C	09/29/2022	09:07	-131.708	48.595	0	138.00	0	6.4910	0	33.2000	0	26.070	0	136.789	0	202.6	4	67.3	4	-1E+10	1	-1E+10	1	-1E+10	1	-1E+10	1	-1E+10	1	-1E+10	1
4902551	77	C	09/29/2022	09:07	-131.708	48.595	0	139.00	0	6.4750	0	33.2170	0	26.086	0	137.780	0	200.6	4	66.7	4	-1E+10	1	-1E+10	1	-1E+10	1	-1E+10	1	-1E+10	1	-1E+10	1
4902551	77	C	09/29/2022	09:07	-131.708	48.595	0	140.10	0	6.4600	0	33.2320	0	26.099	0	138.870	0	198.6	4	66.0	4	-1E+10	1	-1E+10	1	-1E+10	1	-1E+10	1	-1E+10	1	-1E+10	1
4902551	77	C	09/29/2022	09:07	-131.708	48.595	0	140.70	0	6.4460	0	33.2450	0	26.111	0	139.464	0	197.1	4	65.5	4	-1E+10	1	-1E+10	1	-1E+10	1	-1E+10	1	-1E+10	1	-1E+10	1
4902551	77	C	09/29/2022	09:07	-131.708	48.595	0	141.80	0	6.4110	0	33.2840	0	26.147	0	140.554	0	195.0	4	64.7	4	-1E+10	1	-1E+10	1	-1E+10	1	-1E+10	1	-1E+10	1	-1E+10	1
4902551	77	C	09/29/2022	09:07	-131.708	48.595	0	142.90	0	6.3800	0	33.3150	0	26.175	0	141.644	0	192.9	4	64.0	4	-1E+10	1	-1E+10	1	-1E+10	1	-1E+10	1	-1E+10	1	-1E+10	1
4902551	77	C	09/29/2022	09:07	-131.708	48.595	0	144.00	0	6.3590	0	33.3360	0	26.194	0	142.734	0	190.5	4	63.2	4	-1E+10	1	-1E+10	1	-1E+10	1	-1E+10	1	-1E+10	1	-1E+10	1
4902551	77	C	09/29/2022	09:07	-131.708	48.595	0	145.20	0	6.3330	0	33.3620	0	26.218	0	143.923	0	188.2	4	62.4	4	-1E+10	1	-1E+10	1	-1E+10	1	-1E+10	1	-1E+10	1	-1E+10	1
4902551	77	C	09/29/2022	09:07	-131.708	48.595	0	146.00	0	6.3120	0	33.3840	0	26.238	0	144.716	0	186.8	4	61.9	4	-1E+10	1	-1E+10	1	-1E+10	1	-1E+10	1	-1E+10	1	-1E+10	1
4902551	77	C	09/29/2022	09:07	-131.708	48.595	0	146.80	0	6.2840	0	33.4100	0	26.262	0	145.508	0	185.6	4	61.5	4	-1E+10	1	-1E+10	1	-1E+10	1	-1E+10	1	-1E+10	1	-1E+10	1
4902551	77	C	09/29/2022	09:07	-131.708	48.595	0	147.60	0	6.2530	0	33.4410	0	26.291	0	146.301	0	184.3	4	61.0	4	-1E+10	1	-1E+10	1	-1E+10	1	-1E+10	1	-1E+10	1	-1E+10	1
4902551	77	C	09/29/2022	09:07	-131.708	48.595	0	148.90	0	6.2230	0	33.4760	0	26.322	0	147.589	0	182.9	4	60.5	4	-1E+10	1	-1E+10	1	-1E+10	1	-1E+10	1	-1E+10	1	-1E+10	1
4902551	77	C	09/29/2022	09:07	-131.708	48.595	0	150.40	0	6.2090	0	33.4950	0	26.339	0	149.075	0	181.6	4	60.1	4	-1E+10	1	-1E+10	1	-1E+10	1	-1E+10	1	-1E+10	1	-1E+10	1
4902551	77	C	09/29/2022	09:07	-131.708	48.595	0	151.30	0	6.1890	0	33.5150	0	26.357	0	149.967	0	180.9	4	59.9	4	-1E+10	1	-1E+10	1	-1E+10	1	-1E+10	1	-1E+10	1	-1E+10	1
4902551	77	C	09/29/2022	09:07	-131.708	48.595	0	152.20	0	6.1820	0	33.5210	0	26.363	0	150.859	0	180.3	4	59.6	4	-1E+10	1	-1E+10	1	-1E+10	1	-1E+10	1	-1E+10	1	-1E+10	1
4902551	77	C	09/29/2022	09:07	-131.708	48.595	0	153.10	0	6.1810	0	33.5210	0	26.363	0	151.751	0	179.6	4	59.4	4	-1E+10	1	-1E+10	1	-1E+10	1	-1E+10	1	-1E+10	1	-1E+10	1
4902551	77	C	09/29/2022	09:07	-131.708	48.595	0	154.00	0	6.1790	0	33.5230	0	26.365	0	152.642	0	178.9	4	59.2	4	-1E+10	1	-1E+10	1	-1E+10	1	-1E+10	1	-1E+10	1	-1E+10	1
4902551	77	C	09/29/2022	09:07	-131.708	48.595	0	155.00	0	6.1750	0	33.5270	0	26.369	0	153.633	0	177.8	4	58.8	4	-1E+10	1	-1E+10	1	-1E+10	1	-1E+10	1	-1E+10	1	-1E+10	1
4902551	77	C	09/29/2022	09:07	-131.708	48.595	0	155.80	0	6.1650	0	33.5390	0	26.379	0	154.426	0	177.0	4	58.5	4	-1E+10	1	-1E+10	1	-1E+10	1	-1E+10	1	-1E+10	1	-1E+10	1
4902551	77	C	09/29/2022	09:07	-131.708	48.595	0	156.90	0	6.1500	0	33.5500	0	26.390	0	155.516	0	176.0	4	58.2	4	-1E+10	1	-1E+10	1	-1E+10	1	-1E+10	1	-1E+10	1	-1E+10	1
4902551	77	C	09/29/2022	09:07	-131.708	48.595	0	158.00	0	6.1360	0	33.5600	0	26.400	0	156.606	0	175.2	4	57.9	4	-1E+10	1	-1E+10	1	-1E+10	1	-1E+10	1	-1E+10	1	-1E+10	1
4902551	77	C	09/29/2022	09:07	-131.708	48.595	0	158.80	0	6.1170	0	33.5750	0	26.414	0	157.398	0	174.8	4	57.8	4	-1E+10	1	-1E+10	1	-1E+10	1	-1E+10	1	-1E+10	1	-1E+10	1
4902551	77	C	09/29/2022	09:07	-131.708	48.595	0	160.00	0	6.1130	0	33.5770	0	26.416	0	158.587	0	174.0	4	57.5	4	-1E+10	1	-1E+10	1	-1E+10	1	-1E+10	1	-1E+10	1	-1E+10	1
4902551	77	C	09/29/2022	09:07	-131.708	48.595	0	161.20	0	6.1120	0	33.5790	0	26.418	0	159.776	0	173.2	4	57.2	4	-1E+10	1	-1E+10	1	-1E+10	1	-1E+10	1	-1E+10	1	-1E+10	1
4902551	77	C	09/29/2022	09:07	-131.708	48.595	0	161.90	0	6.1120	0	33.5790	0	26.418	0	160.470	0	172.6	4	57.0	4	-1E+10	1	-1E+10	1	-1E+10	1	-1E+10	1	-1E+10	1	-1E+10	1
4902551	77	C	09/29/2022	09:07	-131.708	48.595	0	162.70	0	6.1090	0	33.5810	0	26.420	0	161.262	0	172.0	4	56.8	4	-1E+10	1	-1E+10	1	-1E+10	1	-1E+10	1	-1E+10	1	-1E+10	1
4902551	77	C	09/29/2022	09:07	-131.708	48.595	0	164.00	0	6.0840	0	33.5950	0	26.434	0	162.550	0	171.1	4	56.5	4	-1E+10	1	-1E+10	1	-1E+10	1	-1E+10	1	-1E+10	1	-1E+10	1
4902551	77	C	09/29/2022	09:07	-131.708	48.595	0	165.20	0	6.0750	0	33.6010	0	26.440	0	163.739	0	170.2	4	56.2	4	-1E+10	1	-1E+10	1	-1E+10	1	-1E+10	1	-1E+10	1	-1E+10	1
4902551	77	C	09/29/2022	09:07	-131.708	48.595	0	166.00	0	6.0740	0	33.6010	0	26.440	0	164.532	0	169.5	4	56.0	4	-1E+10	1	-1E+10	1	-1E+10	1	-1E+10	1	-1E+10	1	-1E+10	1
4902551	77	C	09/29/2022	09:07	-131.708	48.595	0	166.90	0	6.0690	0	33.6040	0	26.443	0	165.424	0	168.8	4	55.7	4	-1E+10	1	-1E+10	1	-1E+10	1	-1E+10	1	-1E+10	1	-1E+10	1
4902551	77	C	09/29/2022	09:07	-131.708	48.595	0	167.70	0	6.0610	0	33.6080	0	26.447	0	166.216	0	168.2	4	55.5	4	-1E+10	1	-1E+10	1	-1E+10	1	-1E+10	1	-1E+10	1	-1E+10	1
4902551	77	C	09/29/2022	09:07	-131.708	48.595	0	168.60	0	6.0430	0	33.6180	0	26.457	0	167.108	0	167.5	4	55.3	4	-1E+10	1	-1E+10	1	-1E+10	1	-1E+10	1	-1E+10	1	-1E+10	1
4902551	77	C	09/29/2022	09:07	-131.708	48.595	0	169.90	0	6.0300	0	33.6240	0	26.464	0	168.396	0	166.5	4	54.9	4	-1E+10	1	-1E+10	1	-1E+10	1	-1E+10	1	-1E+10	1	-1E+10	1
4902551	77	C	09/29/2022	09:07	-131.708	48.595	0	171.20	0	6.0250	0	33.6300	0	26.469	0	169.684	0	165.4	4	54.6	4	-1E+10	1	-1E+10	1	-1E+10	1	-1E+10	1	-1E+10	1	-1E+10	1
4902551	77	C	09/29/2022	09:07	-131.708	48.595	0	172.10	0	6.0190	0	33.6350	0	26.474	0	170.575	0	164.8	4	54.3	4	-1E+10	1	-1E+10	1	-1E+10	1	-1E+10	1	-1E+10	1	-1E+10	1
4902551	77	C	09/29/2022	09:07	-131.708	48.595	0	173.00	0	6.0210	0	33.6350	0	26.473	0	171.467	0	164.0	4	54.1	4	-1E+10	1	-1E+10	1	-1E+10	1	-1E+10	1	-1E+10	1	-1E+10	1
4902551	77	C	09/29/2022	09:07	-131.708	48.595	0	173.90	0	6.0250	0	33.6380	0	26.475	0	172.359	0	163.2	4	53.8	4	-1E+10	1	-1E+10	1	-1E+10	1	-1E+10	1	-1E+10	1	-1E+10	1
4902551	77	C	09/29/2022	09:07	-131.708	48.595	0	174.70	0	6.0240	0	33.6400	0	26.477	0	173.151	0	162.3	4	53.5	4	-1E+10	1	-1E+10	1	-1E+10	1	-1E+10	1	-1E+10	1	-1E+10	1
4902551	77	C	09/29/2022	09:07	-131.708	48.595	0	175.60	0	6.0050	0	33.6520	0	26.489	0	174.043	0	161.1	4	53.1	4	-1E+10	1	-1E+10	1	-1E+10	1	-1E+10	1	-1E+10	1	-1E+10	1
4902551	77	C	09/29/2022	09:07	-131.708	48.595	0	176.90	0	5.9840	0	33.6570	0	26.495	0	175.331	0	159.4	4	52.5	4	-1E+10	1	-1E+10	1	-1E+10	1	-1E+10	1	-1E+10	1	-1E+10	1
4902551	77	C	09/29/2022	09:07	-131.708	48.595	0	178.30	0	5.9710	0	33.6600	0	26.499	0	176.718	0	157.6	4	51.9	4	-1E+10	1	-1E+10	1	-1E+10	1	-1E+10	1	-1E+10	1	-1E+10	1
4902551	77	C	09/29/2022	09:07	-131.708	48.595	0	179.20	0	5.9700	0	33.6620	0	26.501	0	177.609	0	156.6	4	51.6	4	-1E+10	1	-1E+10	1	-1E+10	1	-1E+10	1	-1E+10	1	-1E+10	1
4902551	77	C	09/29/2022	09:07	-131.708	48.595	0	180.10	0	5.9660	0	33.6660	0	26.505	0	178.501	0	155.8	4	51.3	4	-1E+10	1	-1E+10	1	-1E+10	1	-1E+10	1	-1E+10	1	-1E+10	1
4902551	77	C	09/29/2022	09:07	-131.708	48.595	0	181.00	0	5.9490	0	33.6810	0	26.519	0	179.393	0	154.8	4	51.0	4	-1E+10	1	-1E+10	1	-1E+10	1	-1E+10	1	-1E+10	1	-1E+10	1
4902551	77	C	09/29/2022	09:07	-131.708	48.595	0	181.90	0	5.9490	0	33.6840	0	26.521	0	180.284	0	154.0	4	50.7	4	-1E+10	1	-1E+10	1	-1E+10	1	-1E+10	1	-1E+10	1	-1E+10	1
4902551	77	C	09/29/2022	09:07	-131.708	48.595	0	182.80	0	5.9440	0	33.6900	0	26.527	0	181.176	0	153.1	4	50.4	4	-1E+10	1	-1E+10	1	-1E+10	1	-1E+10	1	-1E+10	1	-1E+10	1
4902551	77	C	09/29/2022	09:07	-131.708	48.595	0	183.70	0	5.9310	0	33.7000	0	26.536	0	182.068	0	152.3	4	50.2	4	-1E+10	1	-1E+10	1	-1E+10	1	-1E+10	1	-1E+10	1	-1E+10	1
4902551	77	C	09/29/2022	09:07	-131.708	48.595	0	184.60	0	5.9290	0	33.7040	0	26.539	0	182.959	0	151.6	4	49.9	4	-1E+10	1	-1E+10	1	-1E+10	1	-1E+10	1	-1E+10	1	-1E+10	1
4902551	77	C	09/29/2022	09:07	-131.708	48.595	0	185.90	0	5.9260	0	33.7060	0	26.541	0	184.247	0	150.5	4	49.6	4	-1E+10	1	-1E+10	1	-1E+10	1	-1E+10	1	-1E+10	1	-1E+10	1
4902551	77	C	09/29/2022	09:07	-131.708	48.595	0	187.30	0	5.9170	0	33.7100	0	26.546	0	185.634	0	149.4	4	49.2	4	-1E+10	1	-1E+10	1	-1E+10	1	-1E+10	1	-1E+10	1	-1E+10	1
4902551	77	C	09/29/2022	09:07	-131.708	48.595	0	188.10	0	5.9150	0	33.7110	0	26.547	0	186.426	0	148.7	4	49.0	4	-1E+10	1	-1E+10	1	-1E+10	1	-1E+10	1	-1E+10	1	-1E+10	1
4902551	77	C	09/29/2022	09:07	-131.708	48.595	0	189.00	0	5.9000	0	33.7200	0	26.556	0	187.318	0	148.1	4	48.8	4	-1E+10	1	-1E+10	1	-1E+10	1	-1E+10	1	-1E+10	1	-1E+10	1
4902551	77	C	09/29/2022	09:07	-131.708	48.595	0	189.90	0	5.8940	0	33.7230	0	26.559	0	188.210	0	147.6	4	48.6	4	-1E+10	1	-1E+10	1	-1E+10	1	-1E+10	1	-1E+10	1	-1E+10	1
4902551	77	C	09/29/2022	09:07	-131.708	48.595	0	190.70	0	5.8800	0	33.7240	0	26.561	0	189.002	0	147.2	4	48.4	4	-1E+10	1	-1E+10	1	-1E+10	1	-1E+10	1	-1E+10	1	-1E+10	1
4902551	77	C	09/29/2022	09:07	-131.708	48.595	0	191.60	0	5.8780	0	33.7260	0	26.563	0	189.894	0	146.6	4	48.2	4	-1E+10	1	-1E+10	1	-1E+10	1	-1E+10	1	-1E+10	1	-1E+10	1
4902551	77	C	09/29/2022	09:07	-131.708	48.595	0	192.90	0	5.8490	0	33.7260	0	26.567	0	191.182	0	145.7	4	47.9	4	-1E+10	1	-1E+10	1	-1E+10	1	-1E+10	1	-1E+10	1	-1E+10	1
4902551	77	C	09/29/2022	09:07	-131.708	48.595	0	194.20	0	5.8270	0	33.7290	0	26.572	0	192.469	0	144.8	4	47.6	4	-1E+10	1	-1E+10	1	-1E+10	1	-1E+10	1	-1E+10	1	-1E+10	1
4902551	77	C	09/29/2022	09:07	-131.708	48.595	0	195.10	0	5.8160	0	33.7300	0	26.574	0	193.361	0	144.2	4	47.4	4	-1E+10	1	-1E+10	1	-1E+10	1	-1E+10	1	-1E+10	1	-1E+10	1
4902551	77	C	09/29/2022	09:07	-131.708	48.595	0	196.00	0	5.8060	0	33.7310	0	26.576	0	194.252	0	143.5	4	47.1	4	-1E+10	1	-1E+10	1	-1E+10	1	-1E+10	1	-1E+10	1	-1E+10	1
4902551	77	C	09/29/2022	09:07	-131.708	48.595	0	196.90	0	5.8010	0	33.7310	0	26.577	0	195.144	0	142.9	4	46.9	4	-1E+10	1	-1E+10	1	-1E+10	1	-1E+10	1	-1E+10	1	-1E+10	1
4902551	77	C	09/29/2022	09:07	-131.708	48.595	0	197.80	0	5.7980	0	33.7300	0	26.576	0	196.036	0	142.2	4	46.7	4	-1E+10	1	-1E+10	1	-1E+10	1	-1E+10	1	-1E+10	1	-1E+10	1
4902551	77	C	09/29/2022	09:07	-131.708	48.595	0	198.60	0	5.7910	0	33.7320	0	26.579	0	196.828	0	141.4	4	46.4	4	-1E+10	1	-1E+10	1	-1E+10	1	-1E+10	1	-1E+10	1	-1E+10	1
4902551	77	C	09/29/2022	09:07	-131.708	48.595	0	199.90	0	5.7640	0	33.7340	0	26.584	0	198.116	0	140.2	4	46.0	4	-1E+10	1	-1E+10	1	-1E+10	1	-1E+10	1	-1E+10	1	-1E+10	1
4902551	77	C	09/29/2022	09:07	-131.708	48.595	0	201.30	0	5.7530	0	33.7340	0	26.585	0	199.503	0	138.8	4	45.5	4	-1E+10	1	-1E+10	1	-1E+10	1	-1E+10	1	-1E+10	1	-1E+10	1
4902551	77	C	09/29/2022	09:07	-131.708	48.595	0	202.10	0	5.7410	0	33.7410	0	26.592	0	200.295	0	137.8	4	45.2	4	-1E+10	1	-1E+10	1	-1E+10	1	-1E+10	1	-1E+10	1	-1E+10	1
4902551	77	C	09/29/2022	09:07	-131.708	48.595	0	203.00	0	5.7270	0	33.7390	0	26.592	0	201.187	0	137.0	4	44.9	4	-1E+10	1	-1E+10	1	-1E+10	1	-1E+10	1	-1E+10	1	-1E+10	1
4902551	77	C	09/29/2022	09:07	-131.708	48.595	0	203.90	0	5.7200	0	33.7410	0	26.595	0	202.078	0	135.9	4	44.6	4	-1E+10	1	-1E+10	1	-1E+10	1	-1E+10	1	-1E+10	1	-1E+10	1
4902551	77	C	09/29/2022	09:07	-131.708	48.595	0	204.70	0	5.7060	0	33.7440	0	26.599	0	202.871	0	134.9	4	44.2	4	-1E+10	1	-1E+10	1	-1E+10	1	-1E+10	1	-1E+10	1	-1E+10	1
4902551	77	C	09/29/2022	09:07	-131.708	48.595	0	205.60	0	5.6960	0	33.7460	0	26.601	0	203.762	0	133.9	4	43.9	4	-1E+10	1	-1E+10	1	-1E+10	1	-1E+10	1	-1E+10	1	-1E+10	1
4902551	77	C	09/29/2022	09:07	-131.708	48.595	0	206.90	0	5.6810	0	33.7520	0	26.608	0	205.050	0	132.8	4	43.5	4	-1E+10	1	-1E+10	1	-1E+10	1	-1E+10	1	-1E+10	1	-1E+10	1
4902551	77	C	09/29/2022	09:07	-131.708	48.595	0	208.20	0	5.6210	0	33.7580	0	26.620	0	206.338	0	131.9	4	43.2	4	-1E+10	1	-1E+10	1	-1E+10	1	-1E+10	1	-1E+10	1	-1E+10	1
4902551	77	C	09/29/2022	09:07	-131.708	48.595	0	209.10	0	5.6150	0	33.7600	0	26.622	0	207.229	0	131.4	4	43.0	4	-1E+10	1	-1E+10	1	-1E+10	1	-1E+10	1	-1E+10	1	-1E+10	1
4902551	77	C	09/29/2022	09:07	-131.708	48.595	0	210.00	0	5.6050	0	33.7600	0	26.624	0	208.121	0	130.7	4	42.7	4	-1E+10	1	-1E+10	1	-1E+10	1	-1E+10	1	-1E+10	1	-1E+10	1
4902551	77	C	09/29/2022	09:07	-131.708	48.595	0	210.90	0	5.6040	0	33.7570	0	26.621	0	209.012	0	130.1	4	42.5	4	-1E+10	1	-1E+10	1	-1E+10	1	-1E+10	1	-1E+10	1	-1E+10	1
4902551	77	C	09/29/2022	09:07	-131.708	48.595	0	211.70	0	5.6030	0	33.7560	0	26.621	0	209.804	0	129.3	4	42.3	4	-1E+10	1	-1E+10	1	-1E+10	1	-1E+10	1	-1E+10	1	-1E+10	1
4902551	77	C	09/29/2022	09:07	-131.708	48.595	0	212.60	0	5.5920	0	33.7600	0	26.625	0	210.696	0	128.4	4	42.0	4	-1E+10	1	-1E+10	1	-1E+10	1	-1E+10	1	-1E+10	1	-1E+10	1
4902551	77	C	09/29/2022	09:07	-131.708	48.595	0	213.90	0	5.5680	0	33.7640	0	26.631	0	211.984	0	127.4	4	41.6	4	-1E+10	1	-1E+10	1	-1E+10	1	-1E+10	1	-1E+10	1	-1E+10	1
4902551	77	C	09/29/2022	09:07	-131.708	48.595	0	215.20	0	5.5330	0	33.7680	0	26.639	0	213.271	0	126.6	4	41.3	4	-1E+10	1	-1E+10	1	-1E+10	1	-1E+10	1	-1E+10	1	-1E+10	1
4902551	77	C	09/29/2022	09:07	-131.708	48.595	0	216.10	0	5.5310	0	33.7660	0	26.637	0	214.163	0	126.0	4	41.1	4	-1E+10	1	-1E+10	1	-1E+10	1	-1E+10	1	-1E+10	1	-1E+10	1
4902551	77	C	09/29/2022	09:07	-131.708	48.595	0	217.00	0	5.5290	0	33.7670	0	26.638	0	215.054	0	125.4	4	40.9	4	-1E+10	1	-1E+10	1	-1E+10	1	-1E+10	1	-1E+10	1	-1E+10	1
4902551	77	C	09/29/2022	09:07	-131.708	48.595	0	217.90	0	5.5140	0	33.7680	0	26.641	0	215.946	0	124.8	4	40.7	4	-1E+10	1	-1E+10	1	-1E+10	1	-1E+10	1	-1E+10	1	-1E+10	1
4902551	77	C	09/29/2022	09:07	-131.708	48.595	0	218.70	0	5.4960	0	33.7730	0	26.647	0	216.738	0	124.1	4	40.5	4	-1E+10	1	-1E+10	1	-1E+10	1	-1E+10	1	-1E+10	1	-1E+10	1
4902551	77	C	09/29/2022	09:07	-131.708	48.595	0	219.60	0	5.4720	0	33.7750	0	26.651	0	217.630	0	123.7	4	40.3	4	-1E+10	1	-1E+10	1	-1E+10	1	-1E+10	1	-1E+10	1	-1E+10	1
4902551	77	C	09/29/2022	09:07	-131.708	48.595	0	220.90	0	5.4430	0	33.7740	0	26.654	0	218.917	0	123.0	4	40.1	4	-1E+10	1	-1E+10	1	-1E+10	1	-1E+10	1	-1E+10	1	-1E+10	1
4902551	77	C	09/29/2022	09:07	-131.708	48.595	0	222.30	0	5.4290	0	33.7730	0	26.655	0	220.304	0	122.3	4	39.8	4	-1E+10	1	-1E+10	1	-1E+10	1	-1E+10	1	-1E+10	1	-1E+10	1
4902551	77	C	09/29/2022	09:07	-131.708	48.595	0	223.20	0	5.4150	0	33.7770	0	26.660	0	221.195	0	121.7	4	39.6	4	-1E+10	1	-1E+10	1	-1E+10	1	-1E+10	1	-1E+10	1	-1E+10	1
4902551	77	C	09/29/2022	09:07	-131.708	48.595	0	224.00	0	5.3990	0	33.7760	0	26.661	0	221.988	0	121.2	4	39.4	4	-1E+10	1	-1E+10	1	-1E+10	1	-1E+10	1	-1E+10	1	-1E+10	1
4902551	77	C	09/29/2022	09:07	-131.708	48.595	0	224.90	0	5.3950	0	33.7750	0	26.661	0	222.879	0	120.7	4	39.3	4	-1E+10	1	-1E+10	1	-1E+10	1	-1E+10	1	-1E+10	1	-1E+10	1
4902551	77	C	09/29/2022	09:07	-131.708	48.595	0	225.80	0	5.3900	0	33.7760	0	26.662	0	223.771	0	120.0	4	39.1	4	-1E+10	1	-1E+10	1	-1E+10	1	-1E+10	1	-1E+10	1	-1E+10	1
4902551	77	C	09/29/2022	09:07	-131.708	48.595	0	226.70	0	5.3820	0	33.7770	0	26.664	0	224.662	0	119.4	4	38.8	4	-1E+10	1	-1E+10	1	-1E+10	1	-1E+10	1	-1E+10	1	-1E+10	1
4902551	77	C	09/29/2022	09:07	-131.708	48.595	0	227.60	0	5.3680	0	33.7770	0	26.665	0	225.553	0	118.7	4	38.6	4	-1E+10	1	-1E+10	1	-1E+10	1	-1E+10	1	-1E+10	1	-1E+10	1
4902551	77	C	09/29/2022	09:07	-131.708	48.595	0	228.90	0	5.3550	0	33.7780	0	26.668	0	226.841	0	117.7	4	38.3	4	-1E+10	1	-1E+10	1	-1E+10	1	-1E+10	1	-1E+10	1	-1E+10	1
4902551	77	C	09/29/2022	09:07	-131.708	48.595	0	230.30	0	5.3440	0	33.7780	0	26.669	0	228.228	0	116.7	4	37.9	4	-1E+10	1	-1E+10	1	-1E+10	1	-1E+10	1	-1E+10	1	-1E+10	1
4902551	77	C	09/29/2022	09:07	-131.708	48.595	0	231.10	0	5.3370	0	33.7790	0	26.671	0	229.020	0	115.8	4	37.6	4	-1E+10	1	-1E+10	1	-1E+10	1	-1E+10	1	-1E+10	1	-1E+10	1
4902551	77	C	09/29/2022	09:07	-131.708	48.595	0	232.00	0	5.3210	0	33.7810	0	26.674	0	229.911	0	115.1	4	37.4	4	-1E+10	1	-1E+10	1	-1E+10	1	-1E+10	1	-1E+10	1	-1E+10	1
4902551	77	C	09/29/2022	09:07	-131.708	48.595	0	232.90	0	5.2960	0	33.7840	0	26.679	0	230.803	0	114.4	4	37.2	4	-1E+10	1	-1E+10	1	-1E+10	1	-1E+10	1	-1E+10	1	-1E+10	1
4902551	77	C	09/29/2022	09:07	-131.708	48.595	0	233.80	0	5.2920	0	33.7860	0	26.681	0	231.694	0	113.8	4	37.0	4	-1E+10	1	-1E+10	1	-1E+10	1	-1E+10	1	-1E+10	1	-1E+10	1
4902551	77	C	09/29/2022	09:07	-131.708	48.595	0	234.60	0	5.2870	0	33.7850	0	26.681	0	232.487	0	113.2	4	36.8	4	-1E+10	1	-1E+10	1	-1E+10	1	-1E+10	1	-1E+10	1	-1E+10	1
4902551	77	C	09/29/2022	09:07	-131.708	48.595	0	235.90	0	5.2770	0	33.7860	0	26.683	0	233.774	0	112.2	4	36.4	4	-1E+10	1	-1E+10	1	-1E+10	1	-1E+10	1	-1E+10	1	-1E+10	1
4902551	77	C	09/29/2022	09:07	-131.708	48.595	0	237.20	0	5.2670	0	33.7940	0	26.691	0	235.062	0	111.3	4	36.1	4	-1E+10	1	-1E+10	1	-1E+10	1	-1E+10	1	-1E+10	1	-1E+10	1
4902551	77	C	09/29/2022	09:07	-131.708	48.595	0	238.10	0	5.2420	0	33.7950	0	26.694	0	235.953	0	110.8	4	35.9	4	-1E+10	1	-1E+10	1	-1E+10	1	-1E+10	1	-1E+10	1	-1E+10	1
4902551	77	C	09/29/2022	09:07	-131.708	48.595	0	238.90	0	5.2230	0	33.7930	0	26.695	0	236.745	0	110.4	4	35.8	4	-1E+10	1	-1E+10	1	-1E+10	1	-1E+10	1	-1E+10	1	-1E+10	1
4902551	77	C	09/29/2022	09:07	-131.708	48.595	0	239.80	0	5.2080	0	33.7940	0	26.698	0	237.637	0	109.9	4	35.6	4	-1E+10	1	-1E+10	1	-1E+10	1	-1E+10	1	-1E+10	1	-1E+10	1
4902551	77	C	09/29/2022	09:07	-131.708	48.595	0	240.60	0	5.1960	0	33.7960	0	26.701	0	238.429	0	109.4	4	35.4	4	-1E+10	1	-1E+10	1	-1E+10	1	-1E+10	1	-1E+10	1	-1E+10	1
4902551	77	C	09/29/2022	09:07	-131.708	48.595	0	241.90	0	5.1690	0	33.7960	0	26.704	0	239.717	0	108.7	4	35.2	4	-1E+10	1	-1E+10	1	-1E+10	1	-1E+10	1	-1E+10	1	-1E+10	1
4902551	77	C	09/29/2022	09:07	-131.708	48.595	0	243.20	0	5.1440	0	33.7980	0	26.708	0	241.004	0	108.1	4	35.0	4	-1E+10	1	-1E+10	1	-1E+10	1	-1E+10	1	-1E+10	1	-1E+10	1
4902551	77	C	09/29/2022	09:07	-131.708	48.595	0	244.10	0	5.1270	0	33.8020	0	26.713	0	241.895	0	107.9	4	34.9	4	-1E+10	1	-1E+10	1	-1E+10	1	-1E+10	1	-1E+10	1	-1E+10	1
4902551	77	C	09/29/2022	09:07	-131.708	48.595	0	245.00	0	5.1210	0	33.8000	0	26.712	0	242.787	0	107.6	4	34.8	4	-1E+10	1	-1E+10	1	-1E+10	1	-1E+10	1	-1E+10	1	-1E+10	1
4902551	77	C	09/29/2022	09:07	-131.708	48.595	0	245.90	0	5.1190	0	33.8010	0	26.713	0	243.678	0	107.4	4	34.7	4	-1E+10	1	-1E+10	1	-1E+10	1	-1E+10	1	-1E+10	1	-1E+10	1
4902551	77	C	09/29/2022	09:07	-131.708	48.595	0	246.70	0	5.1190	0	33.8000	0	26.713	0	244.470	0	107.1	4	34.6	4	-1E+10	1	-1E+10	1	-1E+10	1	-1E+10	1	-1E+10	1	-1E+10	1
4902551	77	C	09/29/2022	09:07	-131.708	48.595	0	247.60	0	5.1180	0	33.8000	0	26.713	0	245.362	0	106.8	4	34.5	4	-1E+10	1	-1E+10	1	-1E+10	1	-1E+10	1	-1E+10	1	-1E+10	1
4902551	77	C	09/29/2022	09:07	-131.708	48.595	0	248.90	0	5.1130	0	33.8010	0	26.714	0	246.649	0	106.2	4	34.4	4	-1E+10	1	-1E+10	1	-1E+10	1	-1E+10	1	-1E+10	1	-1E+10	1
4902551	77	C	09/29/2022	09:07	-131.708	48.595	0	250.30	0	5.1080	0	33.8010	0	26.715	0	248.036	0	105.7	4	34.2	4	-1E+10	1	-1E+10	1	-1E+10	1	-1E+10	1	-1E+10	1	-1E+10	1
4902551	77	C	09/29/2022	09:07	-131.708	48.595	0	251.10	0	5.0990	0	33.8030	0	26.717	0	248.828	0	105.3	4	34.0	4	-1E+10	1	-1E+10	1	-1E+10	1	-1E+10	1	-1E+10	1	-1E+10	1
4902551	77	C	09/29/2022	09:07	-131.708	48.595	0	252.00	0	5.0930	0	33.8020	0	26.717	0	249.719	0	104.9	4	33.9	4	-1E+10	1	-1E+10	1	-1E+10	1	-1E+10	1	-1E+10	1	-1E+10	1
4902551	77	C	09/29/2022	09:07	-131.708	48.595	0	252.90	0	5.0750	0	33.8040	0	26.721	0	250.611	0	104.6	4	33.8	4	-1E+10	1	-1E+10	1	-1E+10	1	-1E+10	1	-1E+10	1	-1E+10	1
4902551	77	C	09/29/2022	09:07	-131.708	48.595	0	253.80	0	5.0790	0	33.8050	0	26.721	0	251.502	0	104.2	4	33.7	4	-1E+10	1	-1E+10	1	-1E+10	1	-1E+10	1	-1E+10	1	-1E+10	1
4902551	77	C	09/29/2022	09:07	-131.708	48.595	0	254.70	0	5.0640	0	33.8070	0	26.725	0	252.393	0	104.0	4	33.6	4	-1E+10	1	-1E+10	1	-1E+10	1	-1E+10	1	-1E+10	1	-1E+10	1
4902551	77	C	09/29/2022	09:07	-131.708	48.595	0	255.60	0	5.0600	0	33.8050	0	26.723	0	253.285	0	103.7	4	33.5	4	-1E+10	1	-1E+10	1	-1E+10	1	-1E+10	1	-1E+10	1	-1E+10	1
4902551	77	C	09/29/2022	09:07	-131.708	48.595	0	256.90	0	5.0540	0	33.8050	0	26.724	0	254.572	0	103.3	4	33.4	4	-1E+10	1	-1E+10	1	-1E+10	1	-1E+10	1	-1E+10	1	-1E+10	1
4902551	77	C	09/29/2022	09:07	-131.708	48.595	0	258.30	0	5.0530	0	33.8050	0	26.724	0	255.958	0	102.8	4	33.2	4	-1E+10	1	-1E+10	1	-1E+10	1	-1E+10	1	-1E+10	1	-1E+10	1
4902551	77	C	09/29/2022	09:07	-131.708	48.595	0	259.30	0	5.0510	0	33.8070	0	26.726	0	256.949	0	102.4	4	33.1	4	-1E+10	1	-1E+10	1	-1E+10	1	-1E+10	1	-1E+10	1	-1E+10	1
4902551	77	C	09/29/2022	09:07	-131.708	48.595	0	260.10	0	5.0490	0	33.8050	0	26.725	0	257.741	0	102.0	4	32.9	4	-1E+10	1	-1E+10	1	-1E+10	1	-1E+10	1	-1E+10	1	-1E+10	1
4902551	77	C	09/29/2022	09:07	-131.708	48.595	0	261.00	0	5.0430	0	33.8080	0	26.728	0	258.632	0	101.5	4	32.8	4	-1E+10	1	-1E+10	1	-1E+10	1	-1E+10	1	-1E+10	1	-1E+10	1
4902551	77	C	09/29/2022	09:07	-131.708	48.595	0	262.00	0	5.0260	0	33.8140	0	26.734	0	259.623	0	101.1	4	32.6	4	-1E+10	1	-1E+10	1	-1E+10	1	-1E+10	1	-1E+10	1	-1E+10	1
4902551	77	C	09/29/2022	09:07	-131.708	48.595	0	262.90	0	5.0040	0	33.8070	0	26.731	0	260.514	0	100.8	4	32.5	4	-1E+10	1	-1E+10	1	-1E+10	1	-1E+10	1	-1E+10	1	-1E+10	1
4902551	77	C	09/29/2022	09:07	-131.708	48.595	0	263.80	0	5.0000	0	33.8080	0	26.733	0	261.405	0	100.4	4	32.4	4	-1E+10	1	-1E+10	1	-1E+10	1	-1E+10	1	-1E+10	1	-1E+10	1
4902551	77	C	09/29/2022	09:07	-131.708	48.595	0	264.70	0	4.9880	0	33.8080	0	26.734	0	262.296	0	100.0	4	32.2	4	-1E+10	1	-1E+10	1	-1E+10	1	-1E+10	1	-1E+10	1	-1E+10	1
4902551	77	C	09/29/2022	09:07	-131.708	48.595	0	265.70	0	4.9880	0	33.8100	0	26.736	0	263.287	0	99.6	4	32.1	4	-1E+10	1	-1E+10	1	-1E+10	1	-1E+10	1	-1E+10	1	-1E+10	1
4902551	77	C	09/29/2022	09:07	-131.708	48.595	0	266.60	0	4.9800	0	33.8070	0	26.734	0	264.178	0	99.1	4	32.0	4	-1E+10	1	-1E+10	1	-1E+10	1	-1E+10	1	-1E+10	1	-1E+10	1
4902551	77	C	09/29/2022	09:07	-131.708	48.595	0	267.60	0	4.9790	0	33.8090	0	26.736	0	265.168	0	98.7	4	31.8	4	-1E+10	1	-1E+10	1	-1E+10	1	-1E+10	1	-1E+10	1	-1E+10	1
4902551	77	C	09/29/2022	09:07	-131.708	48.595	0	268.90	0	4.9670	0	33.8120	0	26.740	0	266.456	0	98.1	4	31.6	4	-1E+10	1	-1E+10	1	-1E+10	1	-1E+10	1	-1E+10	1	-1E+10	1
4902551	77	C	09/29/2022	09:07	-131.708	48.595	0	270.40	0	4.9570	0	33.8130	0	26.742	0	267.941	0	97.4	4	31.4	4	-1E+10	1	-1E+10	1	-1E+10	1	-1E+10	1	-1E+10	1	-1E+10	1
4902551	77	C	09/29/2022	09:07	-131.708	48.595	0	271.30	0	4.9570	0	33.8130	0	26.742	0	268.832	0	97.0	4	31.2	4	-1E+10	1	-1E+10	1	-1E+10	1	-1E+10	1	-1E+10	1	-1E+10	1
4902551	77	C	09/29/2022	09:07	-131.708	48.595	0	272.30	0	4.9500	0	33.8170	0	26.746	0	269.822	0	96.5	4	31.1	4	-1E+10	1	-1E+10	1	-1E+10	1	-1E+10	1	-1E+10	1	-1E+10	1
4902551	77	C	09/29/2022	09:07	-131.708	48.595	0	273.30	0	4.9390	0	33.8150	0	26.745	0	270.813	0	96.0	4	30.9	4	-1E+10	1	-1E+10	1	-1E+10	1	-1E+10	1	-1E+10	1	-1E+10	1
4902551	77	C	09/29/2022	09:07	-131.708	48.595	0	274.30	0	4.9310	0	33.8170	0	26.748	0	271.803	0	95.6	4	30.8	4	-1E+10	1	-1E+10	1	-1E+10	1	-1E+10	1	-1E+10	1	-1E+10	1
4902551	77	C	09/29/2022	09:07	-131.708	48.595	0	275.20	0	4.9180	0	33.8200	0	26.752	0	272.694	0	95.2	4	30.6	4	-1E+10	1	-1E+10	1	-1E+10	1	-1E+10	1	-1E+10	1	-1E+10	1
4902551	77	C	09/29/2022	09:07	-131.708	48.595	0	276.20	0	4.9100	0	33.8180	0	26.751	0	273.684	0	94.8	4	30.5	4	-1E+10	1	-1E+10	1	-1E+10	1	-1E+10	1	-1E+10	1	-1E+10	1
4902551	77	C	09/29/2022	09:07	-131.708	48.595	0	277.20	0	4.9080	0	33.8190	0	26.752	0	274.675	0	94.4	4	30.4	4	-1E+10	1	-1E+10	1	-1E+10	1	-1E+10	1	-1E+10	1	-1E+10	1
4902551	77	C	09/29/2022	09:07	-131.708	48.595	0	278.20	0	4.9020	0	33.8200	0	26.753	0	275.665	0	93.9	4	30.2	4	-1E+10	1	-1E+10	1	-1E+10	1	-1E+10	1	-1E+10	1	-1E+10	1
4902551	77	C	09/29/2022	09:07	-131.708	48.595	0	279.20	0	4.8980	0	33.8210	0	26.755	0	276.655	0	93.5	4	30.1	4	-1E+10	1	-1E+10	1	-1E+10	1	-1E+10	1	-1E+10	1	-1E+10	1
4902551	77	C	09/29/2022	09:07	-131.708	48.595	0	280.10	0	4.8930	0	33.8230	0	26.757	0	277.546	0	93.0	4	29.9	4	-1E+10	1	-1E+10	1	-1E+10	1	-1E+10	1	-1E+10	1	-1E+10	1
4902551	77	C	09/29/2022	09:07	-131.708	48.595	0	281.10	0	4.8850	0	33.8220	0	26.757	0	278.536	0	92.6	4	29.8	4	-1E+10	1	-1E+10	1	-1E+10	1	-1E+10	1	-1E+10	1	-1E+10	1
4902551	77	C	09/29/2022	09:07	-131.708	48.595	0	282.10	0	4.8810	0	33.8220	0	26.757	0	279.527	0	92.2	4	29.6	4	-1E+10	1	-1E+10	1	-1E+10	1	-1E+10	1	-1E+10	1	-1E+10	1
4902551	77	C	09/29/2022	09:07	-131.708	48.595	0	283.10	0	4.8810	0	33.8220	0	26.757	0	280.517	0	91.7	4	29.5	4	-1E+10	1	-1E+10	1	-1E+10	1	-1E+10	1	-1E+10	1	-1E+10	1
4902551	77	C	09/29/2022	09:07	-131.708	48.595	0	284.10	0	4.8700	0	33.8290	0	26.764	0	281.507	0	91.2	4	29.3	4	-1E+10	1	-1E+10	1	-1E+10	1	-1E+10	1	-1E+10	1	-1E+10	1
4902551	77	C	09/29/2022	09:07	-131.708	48.595	0	285.10	0	4.8640	0	33.8250	0	26.762	0	282.497	0	90.8	4	29.2	4	-1E+10	1	-1E+10	1	-1E+10	1	-1E+10	1	-1E+10	1	-1E+10	1
4902551	77	C	09/29/2022	09:07	-131.708	48.595	0	286.10	0	4.8620	0	33.8260	0	26.763	0	283.487	0	90.2	4	29.0	4	-1E+10	1	-1E+10	1	-1E+10	1	-1E+10	1	-1E+10	1	-1E+10	1
4902551	77	C	09/29/2022	09:07	-131.708	48.595	0	287.10	0	4.8530	0	33.8270	0	26.764	0	284.478	0	89.7	4	28.8	4	-1E+10	1	-1E+10	1	-1E+10	1	-1E+10	1	-1E+10	1	-1E+10	1
4902551	77	C	09/29/2022	09:07	-131.708	48.595	0	288.10	0	4.8350	0	33.8320	0	26.770	0	285.468	0	89.3	4	28.7	4	-1E+10	1	-1E+10	1	-1E+10	1	-1E+10	1	-1E+10	1	-1E+10	1
4902551	77	C	09/29/2022	09:07	-131.708	48.595	0	289.10	0	4.8270	0	33.8290	0	26.769	0	286.458	0	88.8	4	28.5	4	-1E+10	1	-1E+10	1	-1E+10	1	-1E+10	1	-1E+10	1	-1E+10	1
4902551	77	C	09/29/2022	09:07	-131.708	48.595	0	290.10	0	4.8250	0	33.8290	0	26.769	0	287.448	0	88.4	4	28.4	4	-1E+10	1	-1E+10	1	-1E+10	1	-1E+10	1	-1E+10	1	-1E+10	1
4902551	77	C	09/29/2022	09:07	-131.708	48.595	0	291.10	0	4.8210	0	33.8310	0	26.771	0	288.438	0	87.9	4	28.2	4	-1E+10	1	-1E+10	1	-1E+10	1	-1E+10	1	-1E+10	1	-1E+10	1
4902551	77	C	09/29/2022	09:07	-131.708	48.595	0	292.00	0	4.8150	0	33.8320	0	26.773	0	289.329	0	87.4	4	28.1	4	-1E+10	1	-1E+10	1	-1E+10	1	-1E+10	1	-1E+10	1	-1E+10	1
4902551	77	C	09/29/2022	09:07	-131.708	48.595	0	292.90	0	4.8120	0	33.8320	0	26.773	0	290.221	0	87.0	4	27.9	4	-1E+10	1	-1E+10	1	-1E+10	1	-1E+10	1	-1E+10	1	-1E+10	1
4902551	77	C	09/29/2022	09:07	-131.708	48.595	0	294.00	0	4.8070	0	33.8320	0	26.774	0	291.310	0	86.3	4	27.7	4	-1E+10	1	-1E+10	1	-1E+10	1	-1E+10	1	-1E+10	1	-1E+10	1
4902551	77	C	09/29/2022	09:07	-131.708	48.595	0	294.80	0	4.8030	0	33.8320	0	26.774	0	292.102	0	85.8	4	27.5	4	-1E+10	1	-1E+10	1	-1E+10	1	-1E+10	1	-1E+10	1	-1E+10	1
4902551	77	C	09/29/2022	09:07	-131.708	48.595	0	295.90	0	4.7720	0	33.8400	0	26.784	0	293.191	0	85.2	4	27.3	4	-1E+10	1	-1E+10	1	-1E+10	1	-1E+10	1	-1E+10	1	-1E+10	1
4902551	77	C	09/29/2022	09:07	-131.708	48.595	0	297.00	0	4.7540	0	33.8390	0	26.785	0	294.280	0	84.8	4	27.2	4	-1E+10	1	-1E+10	1	-1E+10	1	-1E+10	1	-1E+10	1	-1E+10	1
4902551	77	C	09/29/2022	09:07	-131.708	48.595	0	297.80	0	4.7520	0	33.8390	0	26.785	0	295.072	0	84.5	4	27.1	4	-1E+10	1	-1E+10	1	-1E+10	1	-1E+10	1	-1E+10	1	-1E+10	1
4902551	77	C	09/29/2022	09:07	-131.708	48.595	0	298.90	0	4.7450	0	33.8410	0	26.788	0	296.161	0	84.1	4	27.0	4	-1E+10	1	-1E+10	1	-1E+10	1	-1E+10	1	-1E+10	1	-1E+10	1
4902551	77	C	09/29/2022	09:07	-131.708	48.595	0	300.10	0	4.7360	0	33.8420	0	26.789	0	297.349	0	83.7	4	26.8	4	-1E+10	1	-1E+10	1	-1E+10	1	-1E+10	1	-1E+10	1	-1E+10	1
4902551	77	C	09/29/2022	09:07	-131.708	48.595	0	300.90	0	4.7300	0	33.8440	0	26.792	0	298.142	0	83.4	4	26.7	4	-1E+10	1	-1E+10	1	-1E+10	1	-1E+10	1	-1E+10	1	-1E+10	1
4902551	77	C	09/29/2022	09:07	-131.708	48.595	0	301.70	0	4.7270	0	33.8430	0	26.791	0	298.934	0	83.2	4	26.7	4	-1E+10	1	-1E+10	1	-1E+10	1	-1E+10	1	-1E+10	1	-1E+10	1
4902551	77	C	09/29/2022	09:07	-131.708	48.595	0	303.00	0	4.7220	0	33.8440	0	26.793	0	300.221	0	82.9	4	26.6	4	-1E+10	1	-1E+10	1	-1E+10	1	-1E+10	1	-1E+10	1	-1E+10	1
4902551	77	C	09/29/2022	09:07	-131.708	48.595	0	304.20	0	4.7200	0	33.8450	0	26.794	0	301.409	0	82.4	4	26.4	4	-1E+10	1	-1E+10	1	-1E+10	1	-1E+10	1	-1E+10	1	-1E+10	1
4902551	77	C	09/29/2022	09:07	-131.708	48.595	0	305.00	0	4.7190	0	33.8450	0	26.794	0	302.201	0	82.1	4	26.3	4	-1E+10	1	-1E+10	1	-1E+10	1	-1E+10	1	-1E+10	1	-1E+10	1
4902551	77	C	09/29/2022	09:07	-131.708	48.595	0	305.80	0	4.7180	0	33.8450	0	26.794	0	302.993	0	81.7	4	26.2	4	-1E+10	1	-1E+10	1	-1E+10	1	-1E+10	1	-1E+10	1	-1E+10	1
4902551	77	C	09/29/2022	09:07	-131.708	48.595	0	306.70	0	4.7110	0	33.8460	0	26.795	0	303.884	0	81.4	4	26.1	4	-1E+10	1	-1E+10	1	-1E+10	1	-1E+10	1	-1E+10	1	-1E+10	1
4902551	77	C	09/29/2022	09:07	-131.708	48.595	0	307.90	0	4.7020	0	33.8470	0	26.797	0	305.072	0	80.9	4	25.9	4	-1E+10	1	-1E+10	1	-1E+10	1	-1E+10	1	-1E+10	1	-1E+10	1
4902551	77	C	09/29/2022	09:07	-131.708	48.595	0	309.20	0	4.6940	0	33.8500	0	26.800	0	306.359	0	80.4	4	25.8	4	-1E+10	1	-1E+10	1	-1E+10	1	-1E+10	1	-1E+10	1	-1E+10	1
4902551	77	C	09/29/2022	09:07	-131.708	48.595	0	310.00	0	4.6940	0	33.8480	0	26.799	0	307.151	0	80.1	4	25.6	4	-1E+10	1	-1E+10	1	-1E+10	1	-1E+10	1	-1E+10	1	-1E+10	1
4902551	77	C	09/29/2022	09:07	-131.708	48.595	0	310.80	0	4.6930	0	33.8480	0	26.799	0	307.943	0	79.7	4	25.5	4	-1E+10	1	-1E+10	1	-1E+10	1	-1E+10	1	-1E+10	1	-1E+10	1
4902551	77	C	09/29/2022	09:07	-131.708	48.595	0	311.70	0	4.6870	0	33.8500	0	26.801	0	308.835	0	79.4	4	25.4	4	-1E+10	1	-1E+10	1	-1E+10	1	-1E+10	1	-1E+10	1	-1E+10	1
4902551	77	C	09/29/2022	09:07	-131.708	48.595	0	312.90	0	4.6700	0	33.8540	0	26.806	0	310.023	0	78.9	4	25.3	4	-1E+10	1	-1E+10	1	-1E+10	1	-1E+10	1	-1E+10	1	-1E+10	1
4902551	77	C	09/29/2022	09:07	-131.708	48.595	0	314.30	0	4.6650	0	33.8540	0	26.807	0	311.409	0	78.4	4	25.1	4	-1E+10	1	-1E+10	1	-1E+10	1	-1E+10	1	-1E+10	1	-1E+10	1
4902551	77	C	09/29/2022	09:07	-131.708	48.595	0	315.10	0	4.6650	0	33.8540	0	26.807	0	312.201	0	78.1	4	25.0	4	-1E+10	1	-1E+10	1	-1E+10	1	-1E+10	1	-1E+10	1	-1E+10	1
4902551	77	C	09/29/2022	09:07	-131.708	48.595	0	316.00	0	4.6620	0	33.8550	0	26.808	0	313.092	0	77.8	4	24.9	4	-1E+10	1	-1E+10	1	-1E+10	1	-1E+10	1	-1E+10	1	-1E+10	1
4902551	77	C	09/29/2022	09:07	-131.708	48.595	0	316.80	0	4.6560	0	33.8570	0	26.810	0	313.884	0	77.5	4	24.8	4	-1E+10	1	-1E+10	1	-1E+10	1	-1E+10	1	-1E+10	1	-1E+10	1
4902551	77	C	09/29/2022	09:07	-131.708	48.595	0	317.70	0	4.6560	0	33.8560	0	26.809	0	314.775	0	77.2	4	24.7	4	-1E+10	1	-1E+10	1	-1E+10	1	-1E+10	1	-1E+10	1	-1E+10	1
4902551	77	C	09/29/2022	09:07	-131.708	48.595	0	319.00	0	4.6490	0	33.8600	0	26.813	0	316.062	0	76.8	4	24.6	4	-1E+10	1	-1E+10	1	-1E+10	1	-1E+10	1	-1E+10	1	-1E+10	1
4902551	77	C	09/29/2022	09:07	-131.708	48.595	0	320.30	0	4.6460	0	33.8610	0	26.815	0	317.349	0	76.4	4	24.4	4	-1E+10	1	-1E+10	1	-1E+10	1	-1E+10	1	-1E+10	1	-1E+10	1
4902551	77	C	09/29/2022	09:07	-131.708	48.595	0	321.20	0	4.6420	0	33.8620	0	26.816	0	318.240	0	76.2	4	24.4	4	-1E+10	1	-1E+10	1	-1E+10	1	-1E+10	1	-1E+10	1	-1E+10	1
4902551	77	C	09/29/2022	09:07	-131.708	48.595	0	322.00	0	4.6390	0	33.8630	0	26.817	0	319.032	0	75.9	4	24.3	4	-1E+10	1	-1E+10	1	-1E+10	1	-1E+10	1	-1E+10	1	-1E+10	1
4902551	77	C	09/29/2022	09:07	-131.708	48.595	0	322.90	0	4.6350	0	33.8640	0	26.818	0	319.923	0	75.7	4	24.2	4	-1E+10	1	-1E+10	1	-1E+10	1	-1E+10	1	-1E+10	1	-1E+10	1
4902551	77	C	09/29/2022	09:07	-131.708	48.595	0	323.80	0	4.6330	0	33.8650	0	26.819	0	320.814	0	75.4	4	24.1	4	-1E+10	1	-1E+10	1	-1E+10	1	-1E+10	1	-1E+10	1	-1E+10	1
4902551	77	C	09/29/2022	09:07	-131.708	48.595	0	324.70	0	4.6320	0	33.8650	0	26.819	0	321.705	0	75.1	4	24.0	4	-1E+10	1	-1E+10	1	-1E+10	1	-1E+10	1	-1E+10	1	-1E+10	1
4902551	77	C	09/29/2022	09:07	-131.708	48.595	0	325.90	0	4.6300	0	33.8650	0	26.819	0	322.893	0	74.6	4	23.9	4	-1E+10	1	-1E+10	1	-1E+10	1	-1E+10	1	-1E+10	1	-1E+10	1
4902551	77	C	09/29/2022	09:07	-131.708	48.595	0	327.30	0	4.6270	0	33.8670	0	26.821	0	324.279	0	74.0	4	23.7	4	-1E+10	1	-1E+10	1	-1E+10	1	-1E+10	1	-1E+10	1	-1E+10	1
4902551	77	C	09/29/2022	09:07	-131.708	48.595	0	328.20	0	4.6220	0	33.8670	0	26.822	0	325.170	0	73.7	4	23.6	4	-1E+10	1	-1E+10	1	-1E+10	1	-1E+10	1	-1E+10	1	-1E+10	1
4902551	77	C	09/29/2022	09:07	-131.708	48.595	0	329.00	0	4.6170	0	33.8700	0	26.825	0	325.962	0	73.3	4	23.4	4	-1E+10	1	-1E+10	1	-1E+10	1	-1E+10	1	-1E+10	1	-1E+10	1
4902551	77	C	09/29/2022	09:07	-131.708	48.595	0	330.00	0	4.6090	0	33.8700	0	26.826	0	326.952	0	73.0	4	23.3	4	-1E+10	1	-1E+10	1	-1E+10	1	-1E+10	1	-1E+10	1	-1E+10	1
4902551	77	C	09/29/2022	09:07	-131.708	48.595	0	330.80	0	4.6060	0	33.8720	0	26.828	0	327.744	0	72.7	4	23.2	4	-1E+10	1	-1E+10	1	-1E+10	1	-1E+10	1	-1E+10	1	-1E+10	1
4902551	77	C	09/29/2022	09:07	-131.708	48.595	0	331.70	0	4.6040	0	33.8730	0	26.829	0	328.635	0	72.3	4	23.1	4	-1E+10	1	-1E+10	1	-1E+10	1	-1E+10	1	-1E+10	1	-1E+10	1
4902551	77	C	09/29/2022	09:07	-131.708	48.595	0	332.60	0	4.5990	0	33.8740	0	26.830	0	329.526	0	72.1	4	23.0	4	-1E+10	1	-1E+10	1	-1E+10	1	-1E+10	1	-1E+10	1	-1E+10	1
4902551	77	C	09/29/2022	09:07	-131.708	48.595	0	333.90	0	4.5970	0	33.8750	0	26.831	0	330.813	0	71.6	4	22.9	4	-1E+10	1	-1E+10	1	-1E+10	1	-1E+10	1	-1E+10	1	-1E+10	1
4902551	77	C	09/29/2022	09:07	-131.708	48.595	0	335.30	0	4.5910	0	33.8780	0	26.834	0	332.199	0	71.1	4	22.7	4	-1E+10	1	-1E+10	1	-1E+10	1	-1E+10	1	-1E+10	1	-1E+10	1
4902551	77	C	09/29/2022	09:07	-131.708	48.595	0	336.10	0	4.5860	0	33.8780	0	26.835	0	332.991	0	70.8	4	22.6	4	-1E+10	1	-1E+10	1	-1E+10	1	-1E+10	1	-1E+10	1	-1E+10	1
4902551	77	C	09/29/2022	09:07	-131.708	48.595	0	337.00	0	4.5770	0	33.8820	0	26.839	0	333.882	0	70.5	4	22.5	4	-1E+10	1	-1E+10	1	-1E+10	1	-1E+10	1	-1E+10	1	-1E+10	1
4902551	77	C	09/29/2022	09:07	-131.708	48.595	0	337.90	0	4.5710	0	33.8810	0	26.839	0	334.773	0	70.3	4	22.5	4	-1E+10	1	-1E+10	1	-1E+10	1	-1E+10	1	-1E+10	1	-1E+10	1
4902551	77	C	09/29/2022	09:07	-131.708	48.595	0	338.80	0	4.5720	0	33.8860	0	26.843	0	335.663	0	70.0	4	22.4	4	-1E+10	1	-1E+10	1	-1E+10	1	-1E+10	1	-1E+10	1	-1E+10	1
4902551	77	C	09/29/2022	09:07	-131.708	48.595	0	339.70	0	4.5640	0	33.8830	0	26.841	0	336.554	0	69.8	4	22.3	4	-1E+10	1	-1E+10	1	-1E+10	1	-1E+10	1	-1E+10	1	-1E+10	1
4902551	77	C	09/29/2022	09:07	-131.708	48.595	0	341.00	0	4.5540	0	33.8840	0	26.843	0	337.841	0	69.4	4	22.2	4	-1E+10	1	-1E+10	1	-1E+10	1	-1E+10	1	-1E+10	1	-1E+10	1
4902551	77	C	09/29/2022	09:07	-131.708	48.595	0	342.30	0	4.5490	0	33.8850	0	26.844	0	339.128	0	69.0	4	22.0	4	-1E+10	1	-1E+10	1	-1E+10	1	-1E+10	1	-1E+10	1	-1E+10	1
4902551	77	C	09/29/2022	09:07	-131.708	48.595	0	343.20	0	4.5470	0	33.8840	0	26.844	0	340.019	0	68.8	4	21.9	4	-1E+10	1	-1E+10	1	-1E+10	1	-1E+10	1	-1E+10	1	-1E+10	1
4902551	77	C	09/29/2022	09:07	-131.708	48.595	0	344.00	0	4.5430	0	33.8840	0	26.844	0	340.811	0	68.5	4	21.9	4	-1E+10	1	-1E+10	1	-1E+10	1	-1E+10	1	-1E+10	1	-1E+10	1
4902551	77	C	09/29/2022	09:07	-131.708	48.595	0	344.90	0	4.5400	0	33.8850	0	26.845	0	341.702	0	68.2	4	21.8	4	-1E+10	1	-1E+10	1	-1E+10	1	-1E+10	1	-1E+10	1	-1E+10	1
4902551	77	C	09/29/2022	09:07	-131.708	48.595	0	345.80	0	4.5320	0	33.8880	0	26.849	0	342.593	0	67.9	4	21.7	4	-1E+10	1	-1E+10	1	-1E+10	1	-1E+10	1	-1E+10	1	-1E+10	1
4902551	77	C	09/29/2022	09:07	-131.708	48.595	0	346.60	0	4.5280	0	33.8890	0	26.850	0	343.385	0	67.8	4	21.6	4	-1E+10	1	-1E+10	1	-1E+10	1	-1E+10	1	-1E+10	1	-1E+10	1
4902551	77	C	09/29/2022	09:07	-131.708	48.595	0	347.90	0	4.5250	0	33.8920	0	26.852	0	344.672	0	67.5	4	21.5	4	-1E+10	1	-1E+10	1	-1E+10	1	-1E+10	1	-1E+10	1	-1E+10	1
4902551	77	C	09/29/2022	09:07	-131.708	48.595	0	349.20	0	4.5250	0	33.8930	0	26.853	0	345.959	0	67.2	4	21.4	4	-1E+10	1	-1E+10	1	-1E+10	1	-1E+10	1	-1E+10	1	-1E+10	1
4902551	77	C	09/29/2022	09:07	-131.708	48.595	0	350.10	0	4.5250	0	33.8930	0	26.853	0	346.849	0	67.0	4	21.4	4	-1E+10	1	-1E+10	1	-1E+10	1	-1E+10	1	-1E+10	1	-1E+10	1
4902551	77	C	09/29/2022	09:07	-131.708	48.595	0	353.00	0	4.5230	0	33.8940	0	26.854	0	349.720	0	66.2	4	21.1	4	-1E+10	1	-1E+10	1	-1E+10	1	-1E+10	1	-1E+10	1	-1E+10	1
4902551	77	C	09/29/2022	09:07	-131.708	48.595	0	358.00	0	4.5050	0	33.9030	0	26.863	0	354.669	0	65.0	4	20.7	4	-1E+10	1	-1E+10	1	-1E+10	1	-1E+10	1	-1E+10	1	-1E+10	1
4902551	77	C	09/29/2022	09:07	-131.708	48.595	0	363.20	0	4.4990	0	33.9060	0	26.867	0	359.816	0	64.1	4	20.5	4	-1E+10	1	-1E+10	1	-1E+10	1	-1E+10	1	-1E+10	1	-1E+10	1
4902551	77	C	09/29/2022	09:07	-131.708	48.595	0	367.90	0	4.4940	0	33.9080	0	26.869	0	364.468	0	63.0	4	20.1	4	-1E+10	1	-1E+10	1	-1E+10	1	-1E+10	1	-1E+10	1	-1E+10	1
4902551	77	C	09/29/2022	09:07	-131.708	48.595	0	372.60	0	4.4900	0	33.9150	0	26.875	0	369.120	0	61.9	4	19.7	4	-1E+10	1	-1E+10	1	-1E+10	1	-1E+10	1	-1E+10	1	-1E+10	1
4902551	77	C	09/29/2022	09:07	-131.708	48.595	0	377.70	0	4.4760	0	33.9220	0	26.882	0	374.168	0	61.1	4	19.5	4	-1E+10	1	-1E+10	1	-1E+10	1	-1E+10	1	-1E+10	1	-1E+10	1
4902551	77	C	09/29/2022	09:07	-131.708	48.595	0	382.70	0	4.4710	0	33.9240	0	26.884	0	379.117	0	60.5	4	19.3	4	-1E+10	1	-1E+10	1	-1E+10	1	-1E+10	1	-1E+10	1	-1E+10	1
4902551	77	C	09/29/2022	09:07	-131.708	48.595	0	388.00	0	4.4680	0	33.9260	0	26.886	0	384.362	0	59.7	4	19.0	4	-1E+10	1	-1E+10	1	-1E+10	1	-1E+10	1	-1E+10	1	-1E+10	1
4902551	77	C	09/29/2022	09:07	-131.708	48.595	0	392.80	0	4.4650	0	33.9290	0	26.889	0	389.113	0	58.5	4	18.7	4	-1E+10	1	-1E+10	1	-1E+10	1	-1E+10	1	-1E+10	1	-1E+10	1
4902551	77	C	09/29/2022	09:07	-131.708	48.595	0	397.70	0	4.4610	0	33.9340	0	26.893	0	393.962	0	56.9	4	18.1	4	-1E+10	1	-1E+10	1	-1E+10	1	-1E+10	1	-1E+10	1	-1E+10	1
4902551	77	C	09/29/2022	09:07	-131.708	48.595	0	403.00	0	4.4490	0	33.9440	0	26.902	0	399.207	0	54.9	4	17.5	4	-1E+10	1	-1E+10	1	-1E+10	1	-1E+10	1	-1E+10	1	-1E+10	1
4902551	77	C	09/29/2022	09:07	-131.708	48.595	0	408.10	0	4.4480	0	33.9560	0	26.912	0	404.254	0	52.9	4	16.9	4	-1E+10	1	-1E+10	1	-1E+10	1	-1E+10	1	-1E+10	1	-1E+10	1
4902551	77	C	09/29/2022	09:07	-131.708	48.595	0	412.80	0	4.4390	0	33.9630	0	26.919	0	408.905	0	51.9	4	16.5	4	-1E+10	1	-1E+10	1	-1E+10	1	-1E+10	1	-1E+10	1	-1E+10	1
4902551	77	C	09/29/2022	09:07	-131.708	48.595	0	417.60	0	4.4270	0	33.9670	0	26.923	0	413.655	0	50.7	4	16.1	4	-1E+10	1	-1E+10	1	-1E+10	1	-1E+10	1	-1E+10	1	-1E+10	1
4902551	77	C	09/29/2022	09:07	-131.708	48.595	0	422.50	0	4.4080	0	33.9750	0	26.932	0	418.504	0	49.6	4	15.8	4	-1E+10	1	-1E+10	1	-1E+10	1	-1E+10	1	-1E+10	1	-1E+10	1
4902551	77	C	09/29/2022	09:07	-131.708	48.595	0	427.90	0	4.3790	0	33.9800	0	26.939	0	423.848	0	48.7	4	15.5	4	-1E+10	1	-1E+10	1	-1E+10	1	-1E+10	1	-1E+10	1	-1E+10	1
4902551	77	C	09/29/2022	09:07	-131.708	48.595	0	432.90	0	4.3660	0	33.9830	0	26.942	0	428.795	0	47.8	4	15.2	4	-1E+10	1	-1E+10	1	-1E+10	1	-1E+10	1	-1E+10	1	-1E+10	1
4902551	77	C	09/29/2022	09:07	-131.708	48.595	0	437.70	0	4.3560	0	33.9870	0	26.947	0	433.545	0	46.8	4	14.9	4	-1E+10	1	-1E+10	1	-1E+10	1	-1E+10	1	-1E+10	1	-1E+10	1
4902551	77	C	09/29/2022	09:07	-131.708	48.595	0	442.80	0	4.3470	0	33.9910	0	26.951	0	438.591	0	45.6	4	14.5	4	-1E+10	1	-1E+10	1	-1E+10	1	-1E+10	1	-1E+10	1	-1E+10	1
4902551	77	C	09/29/2022	09:07	-131.708	48.595	0	447.60	0	4.3410	0	33.9970	0	26.956	0	443.340	0	44.6	4	14.2	4	-1E+10	1	-1E+10	1	-1E+10	1	-1E+10	1	-1E+10	1	-1E+10	1
4902551	77	C	09/29/2022	09:07	-131.708	48.595	0	452.60	0	4.3350	0	34.0060	0	26.964	0	448.287	0	43.8	4	13.9	4	-1E+10	1	-1E+10	1	-1E+10	1	-1E+10	1	-1E+10	1	-1E+10	1
4902551	77	C	09/29/2022	09:07	-131.708	48.595	0	457.80	0	4.3260	0	34.0090	0	26.968	0	453.432	0	43.1	4	13.7	4	-1E+10	1	-1E+10	1	-1E+10	1	-1E+10	1	-1E+10	1	-1E+10	1
4902551	77	C	09/29/2022	09:07	-131.708	48.595	0	463.00	0	4.3200	0	34.0120	0	26.971	0	458.576	0	42.2	4	13.4	4	-1E+10	1	-1E+10	1	-1E+10	1	-1E+10	1	-1E+10	1	-1E+10	1
4902551	77	C	09/29/2022	09:07	-131.708	48.595	0	467.80	0	4.3080	0	34.0180	0	26.977	0	463.325	0	41.2	4	13.1	4	-1E+10	1	-1E+10	1	-1E+10	1	-1E+10	1	-1E+10	1	-1E+10	1
4902551	77	C	09/29/2022	09:07	-131.708	48.595	0	472.70	0	4.2920	0	34.0240	0	26.983	0	468.173	0	40.4	4	12.8	4	-1E+10	1	-1E+10	1	-1E+10	1	-1E+10	1	-1E+10	1	-1E+10	1
4902551	77	C	09/29/2022	09:07	-131.708	48.595	0	478.10	0	4.2790	0	34.0280	0	26.988	0	473.515	0	39.6	4	12.6	4	-1E+10	1	-1E+10	1	-1E+10	1	-1E+10	1	-1E+10	1	-1E+10	1
4902551	77	C	09/29/2022	09:07	-131.708	48.595	0	483.10	0	4.2740	0	34.0310	0	26.991	0	478.461	0	38.8	4	12.3	4	-1E+10	1	-1E+10	1	-1E+10	1	-1E+10	1	-1E+10	1	-1E+10	1
4902551	77	C	09/29/2022	09:07	-131.708	48.595	0	488.00	0	4.2530	0	34.0380	0	26.998	0	483.308	0	38.0	4	12.0	4	-1E+10	1	-1E+10	1	-1E+10	1	-1E+10	1	-1E+10	1	-1E+10	1
4902551	77	C	09/29/2022	09:07	-131.708	48.595	0	493.00	0	4.2360	0	34.0420	0	27.003	0	488.255	0	37.2	4	11.8	4	-1E+10	1	-1E+10	1	-1E+10	1	-1E+10	1	-1E+10	1	-1E+10	1
4902551	77	C	09/29/2022	09:07	-131.708	48.595	0	498.00	0	4.2330	0	34.0460	0	27.007	0	493.200	0	36.5	4	11.6	4	-1E+10	1	-1E+10	1	-1E+10	1	-1E+10	1	-1E+10	1	-1E+10	1
4902551	77	C	09/29/2022	09:07	-131.708	48.595	0	503.00	0	4.2290	0	34.0520	0	27.012	0	498.146	0	35.9	4	11.4	4	-1E+10	1	-1E+10	1	-1E+10	1	-1E+10	1	-1E+10	1	-1E+10	1
4902551	77	C	09/29/2022	09:07	-131.708	48.595	0	507.70	0	4.2220	0	34.0560	0	27.016	0	502.795	0	35.3	4	11.2	4	-1E+10	1	-1E+10	1	-1E+10	1	-1E+10	1	-1E+10	1	-1E+10	1
4902551	77	C	09/29/2022	09:07	-131.708	48.595	0	512.80	0	4.2080	0	34.0580	0	27.019	0	507.840	0	34.6	4	11.0	4	-1E+10	1	-1E+10	1	-1E+10	1	-1E+10	1	-1E+10	1	-1E+10	1
4902551	77	C	09/29/2022	09:07	-131.708	48.595	0	517.90	0	4.1980	0	34.0620	0	27.024	0	512.884	0	33.8	4	10.7	4	-1E+10	1	-1E+10	1	-1E+10	1	-1E+10	1	-1E+10	1	-1E+10	1
4902551	77	C	09/29/2022	09:07	-131.708	48.595	0	522.70	0	4.1820	0	34.0660	0	27.028	0	517.632	0	33.3	4	10.5	4	-1E+10	1	-1E+10	1	-1E+10	1	-1E+10	1	-1E+10	1	-1E+10	1
4902551	77	C	09/29/2022	09:07	-131.708	48.595	0	528.00	0	4.1660	0	34.0700	0	27.033	0	522.874	0	32.5	4	10.3	4	-1E+10	1	-1E+10	1	-1E+10	1	-1E+10	1	-1E+10	1	-1E+10	1
4902551	77	C	09/29/2022	09:07	-131.708	48.595	0	533.20	0	4.1510	0	34.0760	0	27.040	0	528.017	0	32.0	4	10.1	4	-1E+10	1	-1E+10	1	-1E+10	1	-1E+10	1	-1E+10	1	-1E+10	1
4902551	77	C	09/29/2022	09:07	-131.708	48.595	0	537.80	0	4.1430	0	34.0790	0	27.043	0	532.566	0	31.4	4	9.9	4	-1E+10	1	-1E+10	1	-1E+10	1	-1E+10	1	-1E+10	1	-1E+10	1
4902551	77	C	09/29/2022	09:07	-131.708	48.595	0	542.90	0	4.1350	0	34.0830	0	27.047	0	537.610	0	30.7	4	9.7	4	-1E+10	1	-1E+10	1	-1E+10	1	-1E+10	1	-1E+10	1	-1E+10	1
4902551	77	C	09/29/2022	09:07	-131.708	48.595	0	548.00	0	4.1220	0	34.0880	0	27.052	0	542.653	0	30.2	4	9.6	4	-1E+10	1	-1E+10	1	-1E+10	1	-1E+10	1	-1E+10	1	-1E+10	1
4902551	77	C	09/29/2022	09:07	-131.708	48.595	0	553.00	0	4.1190	0	34.0900	0	27.054	0	547.598	0	29.6	4	9.4	4	-1E+10	1	-1E+10	1	-1E+10	1	-1E+10	1	-1E+10	1	-1E+10	1
4902551	77	C	09/29/2022	09:07	-131.708	48.595	0	557.90	0	4.1130	0	34.0950	0	27.059	0	552.444	0	28.8	4	9.1	4	-1E+10	1	-1E+10	1	-1E+10	1	-1E+10	1	-1E+10	1	-1E+10	1
4902551	77	C	09/29/2022	09:07	-131.708	48.595	0	562.90	0	4.1060	0	34.1000	0	27.064	0	557.388	0	28.0	4	8.9	4	-1E+10	1	-1E+10	1	-1E+10	1	-1E+10	1	-1E+10	1	-1E+10	1
4902551	77	C	09/29/2022	09:07	-131.708	48.595	0	567.90	0	4.0980	0	34.1050	0	27.068	0	562.332	0	27.4	4	8.7	4	-1E+10	1	-1E+10	1	-1E+10	1	-1E+10	1	-1E+10	1	-1E+10	1
4902551	77	C	09/29/2022	09:07	-131.708	48.595	0	572.90	0	4.0880	0	34.1090	0	27.073	0	567.276	0	26.6	4	8.4	4	-1E+10	1	-1E+10	1	-1E+10	1	-1E+10	1	-1E+10	1	-1E+10	1
4902551	77	C	09/29/2022	09:07	-131.708	48.595	0	577.80	0	4.0710	0	34.1170	0	27.081	0	572.122	0	26.0	4	8.2	4	-1E+10	1	-1E+10	1	-1E+10	1	-1E+10	1	-1E+10	1	-1E+10	1
4902551	77	C	09/29/2022	09:07	-131.708	48.595	0	582.70	0	4.0630	0	34.1200	0	27.084	0	576.967	0	25.4	4	8.0	4	-1E+10	1	-1E+10	1	-1E+10	1	-1E+10	1	-1E+10	1	-1E+10	1
4902551	77	C	09/29/2022	09:07	-131.708	48.595	0	588.10	0	4.0510	0	34.1250	0	27.089	0	582.306	0	24.7	4	7.8	4	-1E+10	1	-1E+10	1	-1E+10	1	-1E+10	1	-1E+10	1	-1E+10	1
4902551	77	C	09/29/2022	09:07	-131.708	48.595	0	593.00	0	4.0370	0	34.1300	0	27.095	0	587.151	0	24.0	4	7.6	4	-1E+10	1	-1E+10	1	-1E+10	1	-1E+10	1	-1E+10	1	-1E+10	1
4902551	77	C	09/29/2022	09:07	-131.708	48.595	0	598.00	0	4.0270	0	34.1360	0	27.101	0	592.094	0	23.4	4	7.4	4	-1E+10	1	-1E+10	1	-1E+10	1	-1E+10	1	-1E+10	1	-1E+10	1
4902551	77	C	09/29/2022	09:07	-131.708	48.595	0	603.00	0	4.0170	0	34.1410	0	27.106	0	597.038	0	23.0	4	7.3	4	-1E+10	1	-1E+10	1	-1E+10	1	-1E+10	1	-1E+10	1	-1E+10	1
4902551	77	C	09/29/2022	09:07	-131.708	48.595	0	607.70	0	4.0110	0	34.1430	0	27.108	0	601.685	0	22.6	4	7.1	4	-1E+10	1	-1E+10	1	-1E+10	1	-1E+10	1	-1E+10	1	-1E+10	1
4902551	77	C	09/29/2022	09:07	-131.708	48.595	0	612.80	0	4.0010	0	34.1470	0	27.112	0	606.727	0	22.0	4	6.9	4	-1E+10	1	-1E+10	1	-1E+10	1	-1E+10	1	-1E+10	1	-1E+10	1
4902551	77	C	09/29/2022	09:07	-131.708	48.595	0	617.90	0	3.9900	0	34.1520	0	27.117	0	611.769	0	21.5	4	6.8	4	-1E+10	1	-1E+10	1	-1E+10	1	-1E+10	1	-1E+10	1	-1E+10	1
4902551	77	C	09/29/2022	09:07	-131.708	48.595	0	623.00	0	3.9820	0	34.1560	0	27.121	0	616.810	0	21.0	4	6.6	4	-1E+10	1	-1E+10	1	-1E+10	1	-1E+10	1	-1E+10	1	-1E+10	1
4902551	77	C	09/29/2022	09:07	-131.708	48.595	0	628.20	0	3.9670	0	34.1610	0	27.127	0	621.951	0	20.4	4	6.4	4	-1E+10	1	-1E+10	1	-1E+10	1	-1E+10	1	-1E+10	1	-1E+10	1
4902551	77	C	09/29/2022	09:07	-131.708	48.595	0	632.90	0	3.9490	0	34.1670	0	27.133	0	626.597	0	19.9	4	6.3	4	-1E+10	1	-1E+10	1	-1E+10	1	-1E+10	1	-1E+10	1	-1E+10	1
4902551	77	C	09/29/2022	09:07	-131.708	48.595	0	637.80	0	3.9370	0	34.1710	0	27.138	0	631.441	0	19.6	4	6.2	4	-1E+10	1	-1E+10	1	-1E+10	1	-1E+10	1	-1E+10	1	-1E+10	1
4902551	77	C	09/29/2022	09:07	-131.708	48.595	0	642.80	0	3.9260	0	34.1750	0	27.142	0	636.384	0	19.3	4	6.1	4	-1E+10	1	-1E+10	1	-1E+10	1	-1E+10	1	-1E+10	1	-1E+10	1
4902551	77	C	09/29/2022	09:07	-131.708	48.595	0	647.80	0	3.9160	0	34.1780	0	27.146	0	641.326	0	19.0	4	6.0	4	-1E+10	1	-1E+10	1	-1E+10	1	-1E+10	1	-1E+10	1	-1E+10	1
4902551	77	C	09/29/2022	09:07	-131.708	48.595	0	652.80	0	3.8840	0	34.1840	0	27.154	0	646.268	0	18.5	4	5.8	4	-1E+10	1	-1E+10	1	-1E+10	1	-1E+10	1	-1E+10	1	-1E+10	1
4902551	77	C	09/29/2022	09:07	-131.708	48.595	0	657.90	0	3.8690	0	34.1880	0	27.158	0	651.309	0	18.1	4	5.7	4	-1E+10	1	-1E+10	1	-1E+10	1	-1E+10	1	-1E+10	1	-1E+10	1
4902551	77	C	09/29/2022	09:07	-131.708	48.595	0	662.70	0	3.8680	0	34.1920	0	27.162	0	656.054	0	17.8	4	5.6	4	-1E+10	1	-1E+10	1	-1E+10	1	-1E+10	1	-1E+10	1	-1E+10	1
4902551	77	C	09/29/2022	09:07	-131.708	48.595	0	668.00	0	3.8600	0	34.1960	0	27.166	0	661.292	0	17.6	4	5.5	4	-1E+10	1	-1E+10	1	-1E+10	1	-1E+10	1	-1E+10	1	-1E+10	1
4902551	77	C	09/29/2022	09:07	-131.708	48.595	0	672.90	0	3.8440	0	34.1980	0	27.169	0	666.135	0	17.4	4	5.5	4	-1E+10	1	-1E+10	1	-1E+10	1	-1E+10	1	-1E+10	1	-1E+10	1
4902551	77	C	09/29/2022	09:07	-131.708	48.595	0	677.50	0	3.8290	0	34.2020	0	27.174	0	670.681	0	17.2	4	5.4	4	-1E+10	1	-1E+10	1	-1E+10	1	-1E+10	1	-1E+10	1	-1E+10	1
4902551	77	C	09/29/2022	09:07	-131.708	48.595	0	682.80	0	3.8200	0	34.2050	0	27.177	0	675.919	0	17.0	4	5.3	4	-1E+10	1	-1E+10	1	-1E+10	1	-1E+10	1	-1E+10	1	-1E+10	1
4902551	77	C	09/29/2022	09:07	-131.708	48.595	0	688.10	0	3.8190	0	34.2060	0	27.178	0	681.157	0	16.8	4	5.3	4	-1E+10	1	-1E+10	1	-1E+10	1	-1E+10	1	-1E+10	1	-1E+10	1
4902551	77	C	09/29/2022	09:07	-131.708	48.595	0	693.10	0	3.8110	0	34.2080	0	27.180	0	686.099	0	16.7	4	5.2	4	-1E+10	1	-1E+10	1	-1E+10	1	-1E+10	1	-1E+10	1	-1E+10	1
4902551	77	C	09/29/2022	09:07	-131.708	48.595	0	698.00	0	3.7980	0	34.2100	0	27.183	0	690.941	0	16.5	4	5.2	4	-1E+10	1	-1E+10	1	-1E+10	1	-1E+10	1	-1E+10	1	-1E+10	1
4902551	77	C	09/29/2022	09:07	-131.708	48.595	0	703.10	0	3.7830	0	34.2140	0	27.188	0	695.981	0	16.3	4	5.1	4	-1E+10	1	-1E+10	1	-1E+10	1	-1E+10	1	-1E+10	1	-1E+10	1
4902551	77	C	09/29/2022	09:07	-131.708	48.595	0	707.70	0	3.7770	0	34.2150	0	27.189	0	700.527	0	16.2	4	5.1	4	-1E+10	1	-1E+10	1	-1E+10	1	-1E+10	1	-1E+10	1	-1E+10	1
4902551	77	C	09/29/2022	09:07	-131.708	48.595	0	712.90	0	3.7710	0	34.2170	0	27.192	0	705.665	0	16.0	4	5.0	4	-1E+10	1	-1E+10	1	-1E+10	1	-1E+10	1	-1E+10	1	-1E+10	1
4902551	77	C	09/29/2022	09:07	-131.708	48.595	0	718.00	0	3.7620	0	34.2200	0	27.195	0	710.705	0	15.8	4	5.0	4	-1E+10	1	-1E+10	1	-1E+10	1	-1E+10	1	-1E+10	1	-1E+10	1
4902551	77	C	09/29/2022	09:07	-131.708	48.595	0	722.70	0	3.7510	0	34.2230	0	27.198	0	715.349	0	15.6	4	4.9	4	-1E+10	1	-1E+10	1	-1E+10	1	-1E+10	1	-1E+10	1	-1E+10	1
4902551	77	C	09/29/2022	09:07	-131.708	48.595	0	728.00	0	3.7340	0	34.2270	0	27.203	0	720.586	0	15.4	4	4.8	4	-1E+10	1	-1E+10	1	-1E+10	1	-1E+10	1	-1E+10	1	-1E+10	1
4902551	77	C	09/29/2022	09:07	-131.708	48.595	0	733.20	0	3.7210	0	34.2300	0	27.207	0	725.724	0	15.1	4	4.7	4	-1E+10	1	-1E+10	1	-1E+10	1	-1E+10	1	-1E+10	1	-1E+10	1
4902551	77	C	09/29/2022	09:07	-131.708	48.595	0	737.90	0	3.7110	0	34.2340	0	27.211	0	730.368	0	14.9	4	4.7	4	-1E+10	1	-1E+10	1	-1E+10	1	-1E+10	1	-1E+10	1	-1E+10	1
4902551	77	C	09/29/2022	09:07	-131.708	48.595	0	742.80	0	3.7030	0	34.2370	0	27.215	0	735.209	0	14.8	4	4.6	4	-1E+10	1	-1E+10	1	-1E+10	1	-1E+10	1	-1E+10	1	-1E+10	1
4902551	77	C	09/29/2022	09:07	-131.708	48.595	0	747.60	0	3.6990	0	34.2390	0	27.217	0	739.951	0	14.6	4	4.6	4	-1E+10	1	-1E+10	1	-1E+10	1	-1E+10	1	-1E+10	1	-1E+10	1
4902551	77	C	09/29/2022	09:07	-131.708	48.595	0	753.00	0	3.6940	0	34.2420	0	27.219	0	745.287	0	14.3	4	4.5	4	-1E+10	1	-1E+10	1	-1E+10	1	-1E+10	1	-1E+10	1	-1E+10	1
4902551	77	C	09/29/2022	09:07	-131.708	48.595	0	758.30	0	3.6900	0	34.2450	0	27.222	0	750.523	0	14.1	4	4.4	4	-1E+10	1	-1E+10	1	-1E+10	1	-1E+10	1	-1E+10	1	-1E+10	1
4902551	77	C	09/29/2022	09:07	-131.708	48.595	0	763.20	0	3.6830	0	34.2490	0	27.226	0	755.364	0	13.9	4	4.3	4	-1E+10	1	-1E+10	1	-1E+10	1	-1E+10	1	-1E+10	1	-1E+10	1
4902551	77	C	09/29/2022	09:07	-131.708	48.595	0	768.30	0	3.6770	0	34.2510	0	27.228	0	760.402	0	13.7	4	4.3	4	-1E+10	1	-1E+10	1	-1E+10	1	-1E+10	1	-1E+10	1	-1E+10	1
4902551	77	C	09/29/2022	09:07	-131.708	48.595	0	772.80	0	3.6740	0	34.2540	0	27.231	0	764.848	0	13.5	4	4.2	4	-1E+10	1	-1E+10	1	-1E+10	1	-1E+10	1	-1E+10	1	-1E+10	1
4902551	77	C	09/29/2022	09:07	-131.708	48.595	0	777.50	0	3.6690	0	34.2580	0	27.235	0	769.491	0	13.3	4	4.2	4	-1E+10	1	-1E+10	1	-1E+10	1	-1E+10	1	-1E+10	1	-1E+10	1
4902551	77	C	09/29/2022	09:07	-131.708	48.595	0	782.60	0	3.6630	0	34.2600	0	27.237	0	774.528	0	13.2	4	4.2	4	-1E+10	1	-1E+10	1	-1E+10	1	-1E+10	1	-1E+10	1	-1E+10	1
4902551	77	C	09/29/2022	09:07	-131.708	48.595	0	787.60	0	3.6450	0	34.2640	0	27.242	0	779.468	0	13.2	4	4.1	4	-1E+10	1	-1E+10	1	-1E+10	1	-1E+10	1	-1E+10	1	-1E+10	1
4902551	77	C	09/29/2022	09:07	-131.708	48.595	0	792.70	0	3.6160	0	34.2670	0	27.247	0	784.505	0	13.2	4	4.1	4	-1E+10	1	-1E+10	1	-1E+10	1	-1E+10	1	-1E+10	1	-1E+10	1
4902551	77	C	09/29/2022	09:07	-131.708	48.595	0	797.70	0	3.6080	0	34.2690	0	27.250	0	789.444	0	13.2	4	4.1	4	-1E+10	1	-1E+10	1	-1E+10	1	-1E+10	1	-1E+10	1	-1E+10	1
4902551	77	C	09/29/2022	09:07	-131.708	48.595	0	802.70	0	3.5960	0	34.2700	0	27.252	0	794.383	0	13.1	4	4.1	4	-1E+10	1	-1E+10	1	-1E+10	1	-1E+10	1	-1E+10	1	-1E+10	1
4902551	77	C	09/29/2022	09:07	-131.708	48.595	0	807.70	0	3.5740	0	34.2730	0	27.256	0	799.322	0	13.0	4	4.1	4	-1E+10	1	-1E+10	1	-1E+10	1	-1E+10	1	-1E+10	1	-1E+10	1
4902551	77	C	09/29/2022	09:07	-131.708	48.595	0	812.90	0	3.5570	0	34.2760	0	27.260	0	804.458	0	12.9	4	4.0	4	-1E+10	1	-1E+10	1	-1E+10	1	-1E+10	1	-1E+10	1	-1E+10	1
4902551	77	C	09/29/2022	09:07	-131.708	48.595	0	818.10	0	3.5350	0	34.2810	0	27.266	0	809.594	0	12.8	4	4.0	4	-1E+10	1	-1E+10	1	-1E+10	1	-1E+10	1	-1E+10	1	-1E+10	1
4902551	77	C	09/29/2022	09:07	-131.708	48.595	0	823.20	0	3.5230	0	34.2830	0	27.269	0	814.631	0	12.7	4	4.0	4	-1E+10	1	-1E+10	1	-1E+10	1	-1E+10	1	-1E+10	1	-1E+10	1
4902551	77	C	09/29/2022	09:07	-131.708	48.595	0	828.30	0	3.5160	0	34.2860	0	27.272	0	819.668	0	12.6	4	3.9	4	-1E+10	1	-1E+10	1	-1E+10	1	-1E+10	1	-1E+10	1	-1E+10	1
4902551	77	C	09/29/2022	09:07	-131.708	48.595	0	833.00	0	3.5000	0	34.2890	0	27.276	0	824.309	0	12.6	4	3.9	4	-1E+10	1	-1E+10	1	-1E+10	1	-1E+10	1	-1E+10	1	-1E+10	1
4902551	77	C	09/29/2022	09:07	-131.708	48.595	0	837.60	0	3.4880	0	34.2900	0	27.278	0	828.852	0	12.6	4	3.9	4	-1E+10	1	-1E+10	1	-1E+10	1	-1E+10	1	-1E+10	1	-1E+10	1
4902551	77	C	09/29/2022	09:07	-131.708	48.595	0	842.90	0	3.4750	0	34.2910	0	27.280	0	834.086	0	12.6	4	3.9	4	-1E+10	1	-1E+10	1	-1E+10	1	-1E+10	1	-1E+10	1	-1E+10	1
4902551	77	C	09/29/2022	09:07	-131.708	48.595	0	848.20	0	3.4610	0	34.2930	0	27.283	0	839.320	0	12.5	4	3.9	4	-1E+10	1	-1E+10	1	-1E+10	1	-1E+10	1	-1E+10	1	-1E+10	1
4902551	77	C	09/29/2022	09:07	-131.708	48.595	0	853.10	0	3.4540	0	34.2950	0	27.286	0	844.159	0	12.5	4	3.9	4	-1E+10	1	-1E+10	1	-1E+10	1	-1E+10	1	-1E+10	1	-1E+10	1
4902551	77	C	09/29/2022	09:07	-131.708	48.595	0	857.90	0	3.4470	0	34.2960	0	27.287	0	848.899	0	12.4	4	3.9	4	-1E+10	1	-1E+10	1	-1E+10	1	-1E+10	1	-1E+10	1	-1E+10	1
4902551	77	C	09/29/2022	09:07	-131.708	48.595	0	862.90	0	3.4410	0	34.2980	0	27.289	0	853.836	0	12.4	4	3.9	4	-1E+10	1	-1E+10	1	-1E+10	1	-1E+10	1	-1E+10	1	-1E+10	1
4902551	77	C	09/29/2022	09:07	-131.708	48.595	0	867.60	0	3.4250	0	34.3020	0	27.294	0	858.477	0	12.3	4	3.8	4	-1E+10	1	-1E+10	1	-1E+10	1	-1E+10	1	-1E+10	1	-1E+10	1
4902551	77	C	09/29/2022	09:07	-131.708	48.595	0	872.80	0	3.4140	0	34.3040	0	27.297	0	863.612	0	12.2	4	3.8	4	-1E+10	1	-1E+10	1	-1E+10	1	-1E+10	1	-1E+10	1	-1E+10	1
4902551	77	C	09/29/2022	09:07	-131.708	48.595	0	877.90	0	3.4060	0	34.3050	0	27.298	0	868.648	0	12.2	4	3.8	4	-1E+10	1	-1E+10	1	-1E+10	1	-1E+10	1	-1E+10	1	-1E+10	1
4902551	77	C	09/29/2022	09:07	-131.708	48.595	0	883.10	0	3.3870	0	34.3100	0	27.304	0	873.782	0	12.1	4	3.8	4	-1E+10	1	-1E+10	1	-1E+10	1	-1E+10	1	-1E+10	1	-1E+10	1
4902551	77	C	09/29/2022	09:07	-131.708	48.595	0	888.00	0	3.3760	0	34.3130	0	27.308	0	878.620	0	12.0	4	3.7	4	-1E+10	1	-1E+10	1	-1E+10	1	-1E+10	1	-1E+10	1	-1E+10	1
4902551	77	C	09/29/2022	09:07	-131.708	48.595	0	892.90	0	3.3640	0	34.3160	0	27.311	0	883.458	0	11.9	4	3.7	4	-1E+10	1	-1E+10	1	-1E+10	1	-1E+10	1	-1E+10	1	-1E+10	1
4902551	77	C	09/29/2022	09:07	-131.708	48.595	0	898.00	0	3.3490	0	34.3210	0	27.317	0	888.493	0	11.9	4	3.7	4	-1E+10	1	-1E+10	1	-1E+10	1	-1E+10	1	-1E+10	1	-1E+10	1
4902551	77	C	09/29/2022	09:07	-131.708	48.595	0	903.00	0	3.3410	0	34.3250	0	27.321	0	893.429	0	11.8	4	3.7	4	-1E+10	1	-1E+10	1	-1E+10	1	-1E+10	1	-1E+10	1	-1E+10	1
4902551	77	C	09/29/2022	09:07	-131.708	48.595	0	908.10	0	3.3340	0	34.3260	0	27.322	0	898.464	0	11.9	4	3.7	4	-1E+10	1	-1E+10	1	-1E+10	1	-1E+10	1	-1E+10	1	-1E+10	1
4902551	77	C	09/29/2022	09:07	-131.708	48.595	0	912.80	0	3.3220	0	34.3270	0	27.324	0	903.104	0	11.9	4	3.7	4	-1E+10	1	-1E+10	1	-1E+10	1	-1E+10	1	-1E+10	1	-1E+10	1
4902551	77	C	09/29/2022	09:07	-131.708	48.595	0	917.60	0	3.3020	0	34.3290	0	27.327	0	907.843	0	11.8	4	3.7	4	-1E+10	1	-1E+10	1	-1E+10	1	-1E+10	1	-1E+10	1	-1E+10	1
4902551	77	C	09/29/2022	09:07	-131.708	48.595	0	922.80	0	3.2880	0	34.3310	0	27.330	0	912.976	0	11.8	4	3.7	4	-1E+10	1	-1E+10	1	-1E+10	1	-1E+10	1	-1E+10	1	-1E+10	1
4902551	77	C	09/29/2022	09:07	-131.708	48.595	0	928.10	0	3.2780	0	34.3350	0	27.335	0	918.208	0	11.8	4	3.7	4	-1E+10	1	-1E+10	1	-1E+10	1	-1E+10	1	-1E+10	1	-1E+10	1
4902551	77	C	09/29/2022	09:07	-131.708	48.595	0	933.10	0	3.2630	0	34.3370	0	27.338	0	923.144	0	11.8	4	3.7	4	-1E+10	1	-1E+10	1	-1E+10	1	-1E+10	1	-1E+10	1	-1E+10	1
4902551	77	C	09/29/2022	09:07	-131.708	48.595	0	937.90	0	3.2490	0	34.3400	0	27.341	0	927.882	0	11.8	4	3.7	4	-1E+10	1	-1E+10	1	-1E+10	1	-1E+10	1	-1E+10	1	-1E+10	1
4902551	77	C	09/29/2022	09:07	-131.708	48.595	0	943.00	0	3.2340	0	34.3430	0	27.345	0	932.916	0	11.8	4	3.7	4	-1E+10	1	-1E+10	1	-1E+10	1	-1E+10	1	-1E+10	1	-1E+10	1
4902551	77	C	09/29/2022	09:07	-131.708	48.595	0	948.00	0	3.2270	0	34.3440	0	27.347	0	937.852	0	11.8	4	3.7	4	-1E+10	1	-1E+10	1	-1E+10	1	-1E+10	1	-1E+10	1	-1E+10	1
4902551	77	C	09/29/2022	09:07	-131.708	48.595	0	953.00	0	3.2250	0	34.3450	0	27.348	0	942.787	0	11.8	4	3.7	4	-1E+10	1	-1E+10	1	-1E+10	1	-1E+10	1	-1E+10	1	-1E+10	1
4902551	77	C	09/29/2022	09:07	-131.708	48.595	0	958.10	0	3.2150	0	34.3480	0	27.351	0	947.821	0	11.8	4	3.7	4	-1E+10	1	-1E+10	1	-1E+10	1	-1E+10	1	-1E+10	1	-1E+10	1
4902551	77	C	09/29/2022	09:07	-131.708	48.595	0	963.10	0	3.2020	0	34.3500	0	27.354	0	952.756	0	11.8	4	3.7	4	-1E+10	1	-1E+10	1	-1E+10	1	-1E+10	1	-1E+10	1	-1E+10	1
4902551	77	C	09/29/2022	09:07	-131.708	48.595	0	968.20	0	3.1920	0	34.3520	0	27.356	0	957.789	0	11.8	4	3.7	4	-1E+10	1	-1E+10	1	-1E+10	1	-1E+10	1	-1E+10	1	-1E+10	1
4902551	77	C	09/29/2022	09:07	-131.708	48.595	0	973.20	0	3.1810	0	34.3540	0	27.359	0	962.724	0	11.8	4	3.7	4	-1E+10	1	-1E+10	1	-1E+10	1	-1E+10	1	-1E+10	1	-1E+10	1
4902551	77	C	09/29/2022	09:07	-131.708	48.595	0	978.30	0	3.1680	0	34.3570	0	27.363	0	967.757	0	11.8	4	3.7	4	-1E+10	1	-1E+10	1	-1E+10	1	-1E+10	1	-1E+10	1	-1E+10	1
4902551	77	C	09/29/2022	09:07	-131.708	48.595	0	983.40	0	3.1630	0	34.3590	0	27.365	0	972.791	0	11.8	4	3.7	4	-1E+10	1	-1E+10	1	-1E+10	1	-1E+10	1	-1E+10	1	-1E+10	1
4902551	77	C	09/29/2022	09:07	-131.708	48.595	0	987.90	0	3.1530	0	34.3610	0	27.367	0	977.232	0	11.8	4	3.7	4	-1E+10	1	-1E+10	1	-1E+10	1	-1E+10	1	-1E+10	1	-1E+10	1
4902551	77	C	09/29/2022	09:07	-131.708	48.595	0	992.50	0	3.1460	0	34.3620	0	27.369	0	981.771	0	11.8	4	3.7	4	-1E+10	1	-1E+10	1	-1E+10	1	-1E+10	1	-1E+10	1	-1E+10	1
4902551	77	C	09/29/2022	09:07	-131.708	48.595	0	997.60	0	3.1440	0	34.3630	0	27.370	0	986.804	0	11.8	4	3.7	4	-1E+10	1	-1E+10	1	-1E+10	1	-1E+10	1	-1E+10	1	-1E+10	1
4902551	77	C	09/29/2022	09:07	-131.708	48.595	0	1005.20	0	3.1280	0	34.3660	0	27.374	0	994.304	0	11.9	4	3.7	4	-1E+10	1	-1E+10	1	-1E+10	1	-1E+10	1	-1E+10	1	-1E+10	1
4902551	77	C	09/29/2022	09:07	-131.708	48.595	0	1015.20	0	3.1000	0	34.3700	0	27.379	0	1004.171	0	11.9	4	3.7	4	-1E+10	1	-1E+10	1	-1E+10	1	-1E+10	1	-1E+10	1	-1E+10	1
4902551	77	C	09/29/2022	09:07	-131.708	48.595	0	1025.10	0	3.0650	0	34.3770	0	27.388	0	1013.940	0	12.0	4	3.7	4	-1E+10	1	-1E+10	1	-1E+10	1	-1E+10	1	-1E+10	1	-1E+10	1
4902551	77	C	09/29/2022	09:07	-131.708	48.595	0	1035.10	0	3.0340	0	34.3820	0	27.395	0	1023.807	0	12.1	4	3.7	4	-1E+10	1	-1E+10	1	-1E+10	1	-1E+10	1	-1E+10	1	-1E+10	1
4902551	77	C	09/29/2022	09:07	-131.708	48.595	0	1045.60	0	3.0130	0	34.3860	0	27.400	0	1034.166	0	12.1	4	3.7	4	-1E+10	1	-1E+10	1	-1E+10	1	-1E+10	1	-1E+10	1	-1E+10	1
4902551	77	C	09/29/2022	09:07	-131.708	48.595	0	1055.40	0	3.0060	0	34.3880	0	27.403	0	1043.835	0	12.2	4	3.8	4	-1E+10	1	-1E+10	1	-1E+10	1	-1E+10	1	-1E+10	1	-1E+10	1
4902551	77	C	09/29/2022	09:07	-131.708	48.595	0	1065.40	0	2.9810	0	34.3920	0	27.408	0	1053.700	0	12.3	4	3.8	4	-1E+10	1	-1E+10	1	-1E+10	1	-1E+10	1	-1E+10	1	-1E+10	1
4902551	77	C	09/29/2022	09:07	-131.708	48.595	0	1075.40	0	2.9600	0	34.3960	0	27.413	0	1063.565	0	12.4	4	3.8	4	-1E+10	1	-1E+10	1	-1E+10	1	-1E+10	1	-1E+10	1	-1E+10	1
4902551	77	C	09/29/2022	09:07	-131.708	48.595	0	1085.60	0	2.9380	0	34.3990	0	27.418	0	1073.627	0	12.5	4	3.8	4	-1E+10	1	-1E+10	1	-1E+10	1	-1E+10	1	-1E+10	1	-1E+10	1
4902551	77	C	09/29/2022	09:07	-131.708	48.595	0	1095.30	0	2.9280	0	34.4010	0	27.420	0	1083.195	0	12.5	4	3.9	4	-1E+10	1	-1E+10	1	-1E+10	1	-1E+10	1	-1E+10	1	-1E+10	1
4902551	77	C	09/29/2022	09:07	-131.708	48.595	0	1105.30	0	2.9150	0	34.4040	0	27.424	0	1093.058	0	12.6	4	3.9	4	-1E+10	1	-1E+10	1	-1E+10	1	-1E+10	1	-1E+10	1	-1E+10	1
4902551	77	C	09/29/2022	09:07	-131.708	48.595	0	1115.30	0	2.8930	0	34.4080	0	27.429	0	1102.921	0	12.7	4	3.9	4	-1E+10	1	-1E+10	1	-1E+10	1	-1E+10	1	-1E+10	1	-1E+10	1
4902551	77	C	09/29/2022	09:07	-131.708	48.595	0	1125.10	0	2.8830	0	34.4100	0	27.432	0	1112.586	0	12.8	4	3.9	4	-1E+10	1	-1E+10	1	-1E+10	1	-1E+10	1	-1E+10	1	-1E+10	1
4902551	77	C	09/29/2022	09:07	-131.708	48.595	0	1135.20	0	2.8760	0	34.4110	0	27.433	0	1122.547	0	12.9	4	4.0	4	-1E+10	1	-1E+10	1	-1E+10	1	-1E+10	1	-1E+10	1	-1E+10	1
4902551	77	C	09/29/2022	09:07	-131.708	48.595	0	1145.50	0	2.8640	0	34.4130	0	27.436	0	1132.704	0	13.0	4	4.0	4	-1E+10	1	-1E+10	1	-1E+10	1	-1E+10	1	-1E+10	1	-1E+10	1
4902551	77	C	09/29/2022	09:07	-131.708	48.595	0	1155.80	0	2.8370	0	34.4180	0	27.442	0	1142.861	0	13.2	4	4.1	4	-1E+10	1	-1E+10	1	-1E+10	1	-1E+10	1	-1E+10	1	-1E+10	1
4902551	77	C	09/29/2022	09:07	-131.708	48.595	0	1165.50	0	2.8300	0	34.4200	0	27.444	0	1152.426	0	13.3	4	4.1	4	-1E+10	1	-1E+10	1	-1E+10	1	-1E+10	1	-1E+10	1	-1E+10	1
4902551	77	C	09/29/2022	09:07	-131.708	48.595	0	1175.70	0	2.8270	0	34.4200	0	27.445	0	1162.484	0	13.4	4	4.1	4	-1E+10	1	-1E+10	1	-1E+10	1	-1E+10	1	-1E+10	1	-1E+10	1
4902551	77	C	09/29/2022	09:07	-131.708	48.595	0	1185.30	0	2.8200	0	34.4220	0	27.447	0	1171.949	0	13.7	4	4.2	4	-1E+10	1	-1E+10	1	-1E+10	1	-1E+10	1	-1E+10	1	-1E+10	1
4902551	77	C	09/29/2022	09:07	-131.708	48.595	0	1195.30	0	2.7950	0	34.4270	0	27.453	0	1181.808	0	14.0	4	4.3	4	-1E+10	1	-1E+10	1	-1E+10	1	-1E+10	1	-1E+10	1	-1E+10	1
4902551	77	C	09/29/2022	09:07	-131.708	48.595	0	1205.50	0	2.7850	0	34.4300	0	27.457	0	1191.864	0	14.2	4	4.4	4	-1E+10	1	-1E+10	1	-1E+10	1	-1E+10	1	-1E+10	1	-1E+10	1
4902551	77	C	09/29/2022	09:07	-131.708	48.595	0	1215.50	0	2.7790	0	34.4310	0	27.458	0	1201.722	0	14.3	4	4.4	4	-1E+10	1	-1E+10	1	-1E+10	1	-1E+10	1	-1E+10	1	-1E+10	1
4902551	77	C	09/29/2022	09:07	-131.708	48.595	0	1225.50	0	2.7670	0	34.4340	0	27.462	0	1211.580	0	14.5	4	4.5	4	-1E+10	1	-1E+10	1	-1E+10	1	-1E+10	1	-1E+10	1	-1E+10	1
4902551	77	C	09/29/2022	09:07	-131.708	48.595	0	1235.50	0	2.7490	0	34.4360	0	27.465	0	1221.438	0	14.7	4	4.5	4	-1E+10	1	-1E+10	1	-1E+10	1	-1E+10	1	-1E+10	1	-1E+10	1
4902551	77	C	09/29/2022	09:07	-131.708	48.595	0	1245.30	0	2.7420	0	34.4380	0	27.467	0	1231.098	0	14.9	4	4.6	4	-1E+10	1	-1E+10	1	-1E+10	1	-1E+10	1	-1E+10	1	-1E+10	1
4902551	77	C	09/29/2022	09:07	-131.708	48.595	0	1255.20	0	2.7220	0	34.4410	0	27.471	0	1240.855	0	15.3	4	4.7	4	-1E+10	1	-1E+10	1	-1E+10	1	-1E+10	1	-1E+10	1	-1E+10	1
4902551	77	C	09/29/2022	09:07	-131.708	48.595	0	1265.50	0	2.7070	0	34.4460	0	27.477	0	1251.007	0	15.9	4	4.9	4	-1E+10	1	-1E+10	1	-1E+10	1	-1E+10	1	-1E+10	1	-1E+10	1
4902551	77	C	09/29/2022	09:07	-131.708	48.595	0	1275.70	0	2.6930	0	34.4490	0	27.480	0	1261.060	0	16.2	4	5.0	4	-1E+10	1	-1E+10	1	-1E+10	1	-1E+10	1	-1E+10	1	-1E+10	1
4902551	77	C	09/29/2022	09:07	-131.708	48.595	0	1285.40	0	2.6880	0	34.4500	0	27.481	0	1270.619	0	16.3	4	5.0	4	-1E+10	1	-1E+10	1	-1E+10	1	-1E+10	1	-1E+10	1	-1E+10	1
4902551	77	C	09/29/2022	09:07	-131.708	48.595	0	1295.00	0	2.6760	0	34.4520	0	27.484	0	1280.080	0	16.5	4	5.1	4	-1E+10	1	-1E+10	1	-1E+10	1	-1E+10	1	-1E+10	1	-1E+10	1
4902551	77	C	09/29/2022	09:07	-131.708	48.595	0	1305.10	0	2.6540	0	34.4550	0	27.489	0	1290.032	0	16.9	4	5.2	4	-1E+10	1	-1E+10	1	-1E+10	1	-1E+10	1	-1E+10	1	-1E+10	1
4902551	77	C	09/29/2022	09:07	-131.708	48.595	0	1315.10	0	2.6430	0	34.4570	0	27.491	0	1299.886	0	17.3	4	5.3	4	-1E+10	1	-1E+10	1	-1E+10	1	-1E+10	1	-1E+10	1	-1E+10	1
4902551	77	C	09/29/2022	09:07	-131.708	48.595	0	1325.30	0	2.6260	0	34.4610	0	27.496	0	1309.936	0	17.8	4	5.4	4	-1E+10	1	-1E+10	1	-1E+10	1	-1E+10	1	-1E+10	1	-1E+10	1
4902551	77	C	09/29/2022	09:07	-131.708	48.595	0	1335.50	0	2.6060	0	34.4630	0	27.499	0	1319.986	0	18.2	4	5.6	4	-1E+10	1	-1E+10	1	-1E+10	1	-1E+10	1	-1E+10	1	-1E+10	1
4902551	77	C	09/29/2022	09:07	-131.708	48.595	0	1345.60	0	2.5730	0	34.4690	0	27.507	0	1329.937	0	18.9	4	5.8	4	-1E+10	1	-1E+10	1	-1E+10	1	-1E+10	1	-1E+10	1	-1E+10	1
4902551	77	C	09/29/2022	09:07	-131.708	48.595	0	1355.40	0	2.5680	0	34.4710	0	27.509	0	1339.592	0	19.2	4	5.9	4	-1E+10	1	-1E+10	1	-1E+10	1	-1E+10	1	-1E+10	1	-1E+10	1
4902551	77	C	09/29/2022	09:07	-131.708	48.595	0	1365.20	0	2.5610	0	34.4720	0	27.510	0	1349.246	0	19.5	4	6.0	4	-1E+10	1	-1E+10	1	-1E+10	1	-1E+10	1	-1E+10	1	-1E+10	1
4902551	77	C	09/29/2022	09:07	-131.708	48.595	0	1375.40	0	2.5480	0	34.4750	0	27.514	0	1359.294	0	20.0	4	6.1	4	-1E+10	1	-1E+10	1	-1E+10	1	-1E+10	1	-1E+10	1	-1E+10	1
4902551	77	C	09/29/2022	09:07	-131.708	48.595	0	1385.20	0	2.5290	0	34.4780	0	27.518	0	1368.948	0	20.5	4	6.3	4	-1E+10	1	-1E+10	1	-1E+10	1	-1E+10	1	-1E+10	1	-1E+10	1
4902551	77	C	09/29/2022	09:07	-131.708	48.595	0	1395.10	0	2.5160	0	34.4810	0	27.522	0	1378.699	0	21.1	4	6.4	4	-1E+10	1	-1E+10	1	-1E+10	1	-1E+10	1	-1E+10	1	-1E+10	1
4902551	77	C	09/29/2022	09:07	-131.708	48.595	0	1405.10	0	2.5060	0	34.4830	0	27.524	0	1388.549	0	21.5	4	6.6	4	-1E+10	1	-1E+10	1	-1E+10	1	-1E+10	1	-1E+10	1	-1E+10	1
4902551	77	C	09/29/2022	09:07	-131.708	48.595	0	1415.00	0	2.4890	0	34.4860	0	27.528	0	1398.299	0	22.0	4	6.7	4	-1E+10	1	-1E+10	1	-1E+10	1	-1E+10	1	-1E+10	1	-1E+10	1
4902551	77	C	09/29/2022	09:07	-131.708	48.595	0	1425.20	0	2.4810	0	34.4880	0	27.530	0	1408.345	0	22.4	4	6.8	4	-1E+10	1	-1E+10	1	-1E+10	1	-1E+10	1	-1E+10	1	-1E+10	1
4902551	77	C	09/29/2022	09:07	-131.708	48.595	0	1435.80	0	2.4680	0	34.4900	0	27.533	0	1418.784	0	22.8	4	6.9	4	-1E+10	1	-1E+10	1	-1E+10	1	-1E+10	1	-1E+10	1	-1E+10	1
4902551	77	C	09/29/2022	09:07	-131.708	48.595	0	1445.50	0	2.4570	0	34.4910	0	27.535	0	1428.336	0	23.3	4	7.1	4	-1E+10	1	-1E+10	1	-1E+10	1	-1E+10	1	-1E+10	1	-1E+10	1
4902551	77	C	09/29/2022	09:07	-131.708	48.595	0	1455.30	0	2.4470	0	34.4940	0	27.538	0	1437.987	0	23.7	4	7.2	4	-1E+10	1	-1E+10	1	-1E+10	1	-1E+10	1	-1E+10	1	-1E+10	1
4902551	77	C	09/29/2022	09:07	-131.708	48.595	0	1465.30	0	2.4400	0	34.4950	0	27.539	0	1447.833	0	24.0	4	7.3	4	-1E+10	1	-1E+10	1	-1E+10	1	-1E+10	1	-1E+10	1	-1E+10	1
4902551	77	C	09/29/2022	09:07	-131.708	48.595	0	1475.40	0	2.4270	0	34.4970	0	27.542	0	1457.778	0	24.3	4	7.4	4	-1E+10	1	-1E+10	1	-1E+10	1	-1E+10	1	-1E+10	1	-1E+10	1
4902551	77	C	09/29/2022	09:07	-131.708	48.595	0	1485.50	0	2.4190	0	34.4980	0	27.544	0	1467.722	0	24.6	4	7.5	4	-1E+10	1	-1E+10	1	-1E+10	1	-1E+10	1	-1E+10	1	-1E+10	1
4902551	77	C	09/29/2022	09:07	-131.708	48.595	0	1495.50	0	2.4080	0	34.5000	0	27.546	0	1477.568	0	24.8	4	7.5	4	-1E+10	1	-1E+10	1	-1E+10	1	-1E+10	1	-1E+10	1	-1E+10	1
4902551	77	C	09/29/2022	09:07	-131.708	48.595	0	1505.50	0	2.3980	0	34.5010	0	27.548	0	1487.413	0	24.8	4	7.6	4	-1E+10	1	-1E+10	1	-1E+10	1	-1E+10	1	-1E+10	1	-1E+10	1
4902551	77	C	09/29/2022	09:07	-131.708	48.595	0	1515.60	0	2.3920	0	34.5020	0	27.549	0	1497.356	0	25.1	4	7.6	4	-1E+10	1	-1E+10	1	-1E+10	1	-1E+10	1	-1E+10	1	-1E+10	1
4902551	77	C	09/29/2022	09:07	-131.708	48.595	0	1525.30	0	2.3840	0	34.5030	0	27.551	0	1506.904	0	25.4	4	7.7	4	-1E+10	1	-1E+10	1	-1E+10	1	-1E+10	1	-1E+10	1	-1E+10	1
4902551	77	C	09/29/2022	09:07	-131.708	48.595	0	1535.20	0	2.3790	0	34.5040	0	27.552	0	1516.649	0	25.7	4	7.8	4	-1E+10	1	-1E+10	1	-1E+10	1	-1E+10	1	-1E+10	1	-1E+10	1
4902551	77	C	09/29/2022	09:07	-131.708	48.595	0	1545.30	0	2.3720	0	34.5060	0	27.554	0	1526.591	0	26.3	4	8.0	4	-1E+10	1	-1E+10	1	-1E+10	1	-1E+10	1	-1E+10	1	-1E+10	1
4902551	77	C	09/29/2022	09:07	-131.708	48.595	0	1555.00	0	2.3630	0	34.5070	0	27.556	0	1536.138	0	26.7	4	8.1	4	-1E+10	1	-1E+10	1	-1E+10	1	-1E+10	1	-1E+10	1	-1E+10	1
4902551	77	C	09/29/2022	09:07	-131.708	48.595	0	1565.20	0	2.3500	0	34.5100	0	27.559	0	1546.177	0	27.2	4	8.3	4	-1E+10	1	-1E+10	1	-1E+10	1	-1E+10	1	-1E+10	1	-1E+10	1
4902551	77	C	09/29/2022	09:07	-131.708	48.595	0	1575.60	0	2.3410	0	34.5110	0	27.561	0	1556.413	0	27.7	4	8.4	4	-1E+10	1	-1E+10	1	-1E+10	1	-1E+10	1	-1E+10	1	-1E+10	1
4902551	77	C	09/29/2022	09:07	-131.708	48.595	0	1585.60	0	2.3310	0	34.5130	0	27.564	0	1566.254	0	28.0	4	8.5	4	-1E+10	1	-1E+10	1	-1E+10	1	-1E+10	1	-1E+10	1	-1E+10	1
4902551	77	C	09/29/2022	09:07	-131.708	48.595	0	1595.70	0	2.3250	0	34.5140	0	27.565	0	1576.193	0	28.6	4	8.7	4	-1E+10	1	-1E+10	1	-1E+10	1	-1E+10	1	-1E+10	1	-1E+10	1
4902551	77	C	09/29/2022	09:07	-131.708	48.595	0	1605.20	0	2.3100	0	34.5170	0	27.569	0	1585.541	0	29.5	4	8.9	4	-1E+10	1	-1E+10	1	-1E+10	1	-1E+10	1	-1E+10	1	-1E+10	1
4902551	77	C	09/29/2022	09:07	-131.708	48.595	0	1615.40	0	2.2910	0	34.5200	0	27.573	0	1595.578	0	30.3	4	9.2	4	-1E+10	1	-1E+10	1	-1E+10	1	-1E+10	1	-1E+10	1	-1E+10	1
4902551	77	C	09/29/2022	09:07	-131.708	48.595	0	1625.30	0	2.2720	0	34.5230	0	27.577	0	1605.319	0	31.2	4	9.5	4	-1E+10	1	-1E+10	1	-1E+10	1	-1E+10	1	-1E+10	1	-1E+10	1
4902551	77	C	09/29/2022	09:07	-131.708	48.595	0	1635.20	0	2.2530	0	34.5260	0	27.581	0	1615.060	0	31.7	4	9.6	4	-1E+10	1	-1E+10	1	-1E+10	1	-1E+10	1	-1E+10	1	-1E+10	1
4902551	77	C	09/29/2022	09:07	-131.708	48.595	0	1645.30	0	2.2470	0	34.5270	0	27.582	0	1624.997	0	32.2	4	9.8	4	-1E+10	1	-1E+10	1	-1E+10	1	-1E+10	1	-1E+10	1	-1E+10	1
4902551	77	C	09/29/2022	09:07	-131.708	48.595	0	1655.30	0	2.2360	0	34.5290	0	27.584	0	1634.835	0	32.8	4	9.9	4	-1E+10	1	-1E+10	1	-1E+10	1	-1E+10	1	-1E+10	1	-1E+10	1
4902551	77	C	09/29/2022	09:07	-131.708	48.595	0	1665.50	0	2.2310	0	34.5300	0	27.586	0	1644.869	0	33.3	4	10.1	4	-1E+10	1	-1E+10	1	-1E+10	1	-1E+10	1	-1E+10	1	-1E+10	1
4902551	77	C	09/29/2022	09:07	-131.708	48.595	0	1675.40	0	2.2230	0	34.5320	0	27.588	0	1654.608	0	33.8	4	10.3	4	-1E+10	1	-1E+10	1	-1E+10	1	-1E+10	1	-1E+10	1	-1E+10	1
4902551	77	C	09/29/2022	09:07	-131.708	48.595	0	1685.30	0	2.2160	0	34.5330	0	27.589	0	1664.346	0	34.3	4	10.4	4	-1E+10	1	-1E+10	1	-1E+10	1	-1E+10	1	-1E+10	1	-1E+10	1
4902551	77	C	09/29/2022	09:07	-131.708	48.595	0	1695.60	0	2.2110	0	34.5350	0	27.591	0	1674.477	0	35.2	4	10.7	4	-1E+10	1	-1E+10	1	-1E+10	1	-1E+10	1	-1E+10	1	-1E+10	1
4902551	77	C	09/29/2022	09:07	-131.708	48.595	0	1705.50	0	2.1980	0	34.5370	0	27.594	0	1684.215	0	36.2	4	11.0	4	-1E+10	1	-1E+10	1	-1E+10	1	-1E+10	1	-1E+10	1	-1E+10	1
4902551	77	C	09/29/2022	09:07	-131.708	48.595	0	1715.40	0	2.1780	0	34.5400	0	27.598	0	1693.952	0	36.9	4	11.2	4	-1E+10	1	-1E+10	1	-1E+10	1	-1E+10	1	-1E+10	1	-1E+10	1
4902551	77	C	09/29/2022	09:07	-131.708	48.595	0	1725.40	0	2.1680	0	34.5420	0	27.601	0	1703.786	0	37.6	4	11.4	4	-1E+10	1	-1E+10	1	-1E+10	1	-1E+10	1	-1E+10	1	-1E+10	1
4902551	77	C	09/29/2022	09:07	-131.708	48.595	0	1735.20	0	2.1570	0	34.5440	0	27.603	0	1713.424	0	38.3	4	11.6	4	-1E+10	1	-1E+10	1	-1E+10	1	-1E+10	1	-1E+10	1	-1E+10	1
4902551	77	C	09/29/2022	09:07	-131.708	48.595	0	1745.30	0	2.1440	0	34.5460	0	27.606	0	1723.356	0	38.9	4	11.8	4	-1E+10	1	-1E+10	1	-1E+10	1	-1E+10	1	-1E+10	1	-1E+10	1
4902551	77	C	09/29/2022	09:07	-131.708	48.595	0	1755.30	0	2.1370	0	34.5480	0	27.608	0	1733.190	0	39.4	4	11.9	4	-1E+10	1	-1E+10	1	-1E+10	1	-1E+10	1	-1E+10	1	-1E+10	1
4902551	77	C	09/29/2022	09:07	-131.708	48.595	0	1765.30	0	2.1260	0	34.5490	0	27.610	0	1743.023	0	39.9	4	12.1	4	-1E+10	1	-1E+10	1	-1E+10	1	-1E+10	1	-1E+10	1	-1E+10	1
4902551	77	C	09/29/2022	09:07	-131.708	48.595	0	1775.40	0	2.1180	0	34.5500	0	27.611	0	1752.954	0	40.6	4	12.3	4	-1E+10	1	-1E+10	1	-1E+10	1	-1E+10	1	-1E+10	1	-1E+10	1
4902551	77	C	09/29/2022	09:07	-131.708	48.595	0	1785.20	0	2.1090	0	34.5520	0	27.614	0	1762.589	0	41.3	4	12.5	4	-1E+10	1	-1E+10	1	-1E+10	1	-1E+10	1	-1E+10	1	-1E+10	1
4902551	77	C	09/29/2022	09:07	-131.708	48.595	0	1795.20	0	2.1000	0	34.5540	0	27.616	0	1772.421	0	42.0	4	12.7	4	-1E+10	1	-1E+10	1	-1E+10	1	-1E+10	1	-1E+10	1	-1E+10	1
4902551	77	C	09/29/2022	09:07	-131.708	48.595	0	1805.20	0	2.0900	0	34.5560	0	27.618	0	1782.252	0	42.9	4	12.9	4	-1E+10	1	-1E+10	1	-1E+10	1	-1E+10	1	-1E+10	1	-1E+10	1
4902551	77	C	09/29/2022	09:07	-131.708	48.595	0	1815.40	0	2.0750	0	34.5580	0	27.621	0	1792.279	0	43.7	4	13.2	4	-1E+10	1	-1E+10	1	-1E+10	1	-1E+10	1	-1E+10	1	-1E+10	1
4902551	77	C	09/29/2022	09:07	-131.708	48.595	0	1825.80	0	2.0670	0	34.5600	0	27.624	0	1802.503	0	44.3	4	13.4	4	-1E+10	1	-1E+10	1	-1E+10	1	-1E+10	1	-1E+10	1	-1E+10	1
4902551	77	C	09/29/2022	09:07	-131.708	48.595	0	1835.60	0	2.0550	0	34.5620	0	27.626	0	1812.136	0	44.8	4	13.5	4	-1E+10	1	-1E+10	1	-1E+10	1	-1E+10	1	-1E+10	1	-1E+10	1
4902551	77	C	09/29/2022	09:07	-131.708	48.595	0	1845.80	0	2.0510	0	34.5630	0	27.627	0	1822.162	0	45.3	4	13.7	4	-1E+10	1	-1E+10	1	-1E+10	1	-1E+10	1	-1E+10	1	-1E+10	1
4902551	77	C	09/29/2022	09:07	-131.708	48.595	0	1855.40	0	2.0410	0	34.5640	0	27.629	0	1831.598	0	46.1	4	13.9	4	-1E+10	1	-1E+10	1	-1E+10	1	-1E+10	1	-1E+10	1	-1E+10	1
4902551	77	C	09/29/2022	09:07	-131.708	48.595	0	1865.10	0	2.0320	0	34.5660	0	27.631	0	1841.131	0	46.5	4	14.0	4	-1E+10	1	-1E+10	1	-1E+10	1	-1E+10	1	-1E+10	1	-1E+10	1
4902551	77	C	09/29/2022	09:07	-131.708	48.595	0	1875.20	0	2.0300	0	34.5670	0	27.632	0	1851.057	0	47.1	4	14.2	4	-1E+10	1	-1E+10	1	-1E+10	1	-1E+10	1	-1E+10	1	-1E+10	1
4902551	77	C	09/29/2022	09:07	-131.708	48.595	0	1885.10	0	2.0220	0	34.5680	0	27.634	0	1860.787	0	47.7	4	14.4	4	-1E+10	1	-1E+10	1	-1E+10	1	-1E+10	1	-1E+10	1	-1E+10	1
4902551	77	C	09/29/2022	09:07	-131.708	48.595	0	1895.10	0	2.0150	0	34.5690	0	27.635	0	1870.614	0	48.2	4	14.5	4	-1E+10	1	-1E+10	1	-1E+10	1	-1E+10	1	-1E+10	1	-1E+10	1
4902551	77	C	09/29/2022	09:07	-131.708	48.595	0	1905.30	0	2.0090	0	34.5700	0	27.637	0	1880.637	0	48.8	4	14.7	4	-1E+10	1	-1E+10	1	-1E+10	1	-1E+10	1	-1E+10	1	-1E+10	1
4902551	77	C	09/29/2022	09:07	-131.708	48.595	0	1915.40	0	2.0020	0	34.5720	0	27.639	0	1890.561	0	49.7	4	15.0	4	-1E+10	1	-1E+10	1	-1E+10	1	-1E+10	1	-1E+10	1	-1E+10	1
4902551	77	C	09/29/2022	09:07	-131.708	48.595	0	1925.60	0	1.9920	0	34.5740	0	27.641	0	1900.584	0	50.4	4	15.2	4	-1E+10	1	-1E+10	1	-1E+10	1	-1E+10	1	-1E+10	1	-1E+10	1
4902551	77	C	09/29/2022	09:07	-131.708	48.595	0	1935.30	0	1.9850	0	34.5750	0	27.643	0	1910.114	0	50.9	4	15.4	4	-1E+10	1	-1E+10	1	-1E+10	1	-1E+10	1	-1E+10	1	-1E+10	1
4902551	77	C	09/29/2022	09:07	-131.708	48.595	0	1945.40	0	1.9760	0	34.5770	0	27.645	0	1920.037	0	51.8	4	15.6	4	-1E+10	1	-1E+10	1	-1E+10	1	-1E+10	1	-1E+10	1	-1E+10	1
4902551	77	C	09/29/2022	09:07	-131.708	48.595	0	1955.50	0	1.9680	0	34.5790	0	27.647	0	1929.960	0	52.5	4	15.8	4	-1E+10	1	-1E+10	1	-1E+10	1	-1E+10	1	-1E+10	1	-1E+10	1
4902551	77	C	09/29/2022	09:07	-131.708	48.595	0	1965.70	0	1.9570	0	34.5800	0	27.649	0	1939.980	0	53.0	4	16.0	4	-1E+10	1	-1E+10	1	-1E+10	1	-1E+10	1	-1E+10	1	-1E+10	1
4902551	77	C	09/29/2022	09:07	-131.708	48.595	0	1974.10	0	1.9550	0	34.5810	0	27.650	0	1948.232	0	52.9	4	15.9	4	-1E+10	1	-1E+10	1	-1E+10	1	-1E+10	1	-1E+10	1	-1E+10	1
4902551	77	C	09/29/2022	09:07	-131.708	48.595	0																										
4902551	78	C	10/09/2022	14:17	-131.615	48.520	0	0.00	0	16.9130	0	32.2940	0	23.460	0	0.000	0	235.0	4	96.6	4	-1E+10	1	-1E+10	1	-1E+10	1	-1E+10	1	-1E+10	1	-1E+10	1
4902551	78	C	10/09/2022	14:17	-131.615	48.520	0	0.20	0	16.9132	0	32.2935	0	23.459	0	0.198	0	235.0	4	96.6	4	-1E+10	1	-1E+10	1	-1E+10	1	-1E+10	1	-1E+10	1	-1E+10	1
4902551	78	C	10/09/2022	14:17	-131.615	48.520	0	0.80	0	16.9140	0	32.2920	0	23.458	0	0.793	0	235.0	4	96.6	4	-1E+10	1	-1E+10	1	-1E+10	1	-1E+10	1	-1E+10	1	-1E+10	1
4902551	78	C	10/09/2022	14:17	-131.615	48.520	0	2.00	0	16.9140	0	32.2940	0	23.459	0	1.983	0	235.0	4	96.6	4	-1E+10	1	-1E+10	1	-1E+10	1	-1E+10	1	-1E+10	1	-1E+10	1
4902551	78	C	10/09/2022	14:17	-131.615	48.520	0	3.10	0	16.9160	0	32.2940	0	23.459	0	3.074	0	234.9	4	96.6	4	-1E+10	1	-1E+10	1	-1E+10	1	-1E+10	1	-1E+10	1	-1E+10	1
4902551	78	C	10/09/2022	14:17	-131.615	48.520	0	3.80	0	16.9170	0	32.2940	0	23.459	0	3.768	0	235.0	4	96.6	4	-1E+10	1	-1E+10	1	-1E+10	1	-1E+10	1	-1E+10	1	-1E+10	1
4902551	78	C	10/09/2022	14:17	-131.615	48.520	0	4.80	0	16.9170	0	32.2950	0	23.460	0	4.759	0	235.0	4	96.6	4	-1E+10	1	-1E+10	1	-1E+10	1	-1E+10	1	-1E+10	1	-1E+10	1
4902551	78	C	10/09/2022	14:17	-131.615	48.520	0	6.00	0	16.9170	0	32.2930	0	23.458	0	5.949	0	235.0	4	96.6	4	-1E+10	1	-1E+10	1	-1E+10	1	-1E+10	1	-1E+10	1	-1E+10	1
4902551	78	C	10/09/2022	14:17	-131.615	48.520	0	6.70	0	16.9170	0	32.2950	0	23.460	0	6.643	0	235.0	4	96.6	4	-1E+10	1	-1E+10	1	-1E+10	1	-1E+10	1	-1E+10	1	-1E+10	1
4902551	78	C	10/09/2022	14:17	-131.615	48.520	0	7.90	0	16.9170	0	32.2950	0	23.460	0	7.833	0	234.9	4	96.6	4	-1E+10	1	-1E+10	1	-1E+10	1	-1E+10	1	-1E+10	1	-1E+10	1
4902551	78	C	10/09/2022	14:17	-131.615	48.520	0	9.10	0	16.9170	0	32.2950	0	23.460	0	9.023	0	234.9	4	96.6	4	-1E+10	1	-1E+10	1	-1E+10	1	-1E+10	1	-1E+10	1	-1E+10	1
4902551	78	C	10/09/2022	14:17	-131.615	48.520	0	9.80	0	16.9170	0	32.2950	0	23.460	0	9.717	0	235.0	4	96.6	4	-1E+10	1	-1E+10	1	-1E+10	1	-1E+10	1	-1E+10	1	-1E+10	1
4902551	78	C	10/09/2022	14:17	-131.615	48.520	0	11.00	0	16.9170	0	32.2950	0	23.460	0	10.907	0	234.9	4	96.6	4	-1E+10	1	-1E+10	1	-1E+10	1	-1E+10	1	-1E+10	1	-1E+10	1
4902551	78	C	10/09/2022	14:17	-131.615	48.520	0	12.20	0	16.9170	0	32.2950	0	23.460	0	12.097	0	235.0	4	96.6	4	-1E+10	1	-1E+10	1	-1E+10	1	-1E+10	1	-1E+10	1	-1E+10	1
4902551	78	C	10/09/2022	14:17	-131.615	48.520	0	13.00	0	16.9170	0	32.2950	0	23.460	0	12.890	0	234.9	4	96.6	4	-1E+10	1	-1E+10	1	-1E+10	1	-1E+10	1	-1E+10	1	-1E+10	1
4902551	78	C	10/09/2022	14:17	-131.615	48.520	0	13.70	0	16.9170	0	32.2950	0	23.460	0	13.584	0	234.9	4	96.6	4	-1E+10	1	-1E+10	1	-1E+10	1	-1E+10	1	-1E+10	1	-1E+10	1
4902551	78	C	10/09/2022	14:17	-131.615	48.520	0	14.80	0	16.9170	0	32.2950	0	23.460	0	14.675	0	234.9	4	96.6	4	-1E+10	1	-1E+10	1	-1E+10	1	-1E+10	1	-1E+10	1	-1E+10	1
4902551	78	C	10/09/2022	14:17	-131.615	48.520	0	15.90	0	16.9180	0	32.2940	0	23.459	0	15.765	0	234.9	4	96.6	4	-1E+10	1	-1E+10	1	-1E+10	1	-1E+10	1	-1E+10	1	-1E+10	1
4902551	78	C	10/09/2022	14:17	-131.615	48.520	0	16.90	0	16.9180	0	32.2940	0	23.459	0	16.757	0	234.8	4	96.5	4	-1E+10	1	-1E+10	1	-1E+10	1	-1E+10	1	-1E+10	1	-1E+10	1
4902551	78	C	10/09/2022	14:17	-131.615	48.520	0	18.10	0	16.9190	0	32.2940	0	23.459	0	17.946	0	234.8	4	96.5	4	-1E+10	1	-1E+10	1	-1E+10	1	-1E+10	1	-1E+10	1	-1E+10	1
4902551	78	C	10/09/2022	14:17	-131.615	48.520	0	18.80	0	16.9180	0	32.2940	0	23.459	0	18.641	0	234.7	4	96.5	4	-1E+10	1	-1E+10	1	-1E+10	1	-1E+10	1	-1E+10	1	-1E+10	1
4902551	78	C	10/09/2022	14:17	-131.615	48.520	0	19.90	0	16.8990	0	32.2930	0	23.463	0	19.731	0	234.8	4	96.5	4	-1E+10	1	-1E+10	1	-1E+10	1	-1E+10	1	-1E+10	1	-1E+10	1
4902551	78	C	10/09/2022	14:17	-131.615	48.520	0	21.00	0	16.8940	0	32.2920	0	23.463	0	20.822	0	234.9	4	96.5	4	-1E+10	1	-1E+10	1	-1E+10	1	-1E+10	1	-1E+10	1	-1E+10	1
4902551	78	C	10/09/2022	14:17	-131.615	48.520	0	22.00	0	16.8790	0	32.2950	0	23.469	0	21.813	0	235.0	4	96.6	4	-1E+10	1	-1E+10	1	-1E+10	1	-1E+10	1	-1E+10	1	-1E+10	1
4902551	78	C	10/09/2022	14:17	-131.615	48.520	0	23.00	0	16.8590	0	32.2950	0	23.474	0	22.805	0	235.3	4	96.6	4	-1E+10	1	-1E+10	1	-1E+10	1	-1E+10	1	-1E+10	1	-1E+10	1
4902551	78	C	10/09/2022	14:17	-131.615	48.520	0	23.90	0	16.8490	0	32.2910	0	23.473	0	23.697	0	235.5	4	96.7	4	-1E+10	1	-1E+10	1	-1E+10	1	-1E+10	1	-1E+10	1	-1E+10	1
4902551	78	C	10/09/2022	14:17	-131.615	48.520	0	24.90	0	16.8220	0	32.2900	0	23.479	0	24.688	0	235.8	4	96.8	4	-1E+10	1	-1E+10	1	-1E+10	1	-1E+10	1	-1E+10	1	-1E+10	1
4902551	78	C	10/09/2022	14:17	-131.615	48.520	0	25.90	0	16.8130	0	32.2900	0	23.481	0	25.680	0	236.1	4	96.9	4	-1E+10	1	-1E+10	1	-1E+10	1	-1E+10	1	-1E+10	1	-1E+10	1
4902551	78	C	10/09/2022	14:17	-131.615	48.520	0	27.00	0	16.7750	0	32.2880	0	23.488	0	26.770	0	236.7	4	97.0	4	-1E+10	1	-1E+10	1	-1E+10	1	-1E+10	1	-1E+10	1	-1E+10	1
4902551	78	C	10/09/2022	14:17	-131.615	48.520	0	28.30	0	16.7010	0	32.2900	0	23.507	0	28.059	0	237.3	4	97.2	4	-1E+10	1	-1E+10	1	-1E+10	1	-1E+10	1	-1E+10	1	-1E+10	1
4902551	78	C	10/09/2022	14:17	-131.615	48.520	0	29.10	0	16.6220	0	32.2880	0	23.523	0	28.852	0	238.1	4	97.3	4	-1E+10	1	-1E+10	1	-1E+10	1	-1E+10	1	-1E+10	1	-1E+10	1
4902551	78	C	10/09/2022	14:17	-131.615	48.520	0	30.10	0	16.5000	0	32.2870	0	23.551	0	29.844	0	239.3	4	97.6	4	-1E+10	1	-1E+10	1	-1E+10	1	-1E+10	1	-1E+10	1	-1E+10	1
4902551	78	C	10/09/2022	14:17	-131.615	48.520	0	31.00	0	16.3660	0	32.2890	0	23.583	0	30.736	0	240.5	4	97.8	4	-1E+10	1	-1E+10	1	-1E+10	1	-1E+10	1	-1E+10	1	-1E+10	1
4902551	78	C	10/09/2022	14:17	-131.615	48.520	0	32.00	0	16.1330	0	32.2850	0	23.632	0	31.727	0	241.6	4	97.8	4	-1E+10	1	-1E+10	1	-1E+10	1	-1E+10	1	-1E+10	1	-1E+10	1
4902551	78	C	10/09/2022	14:17	-131.615	48.520	0	33.00	0	16.0360	0	32.2860	0	23.655	0	32.719	0	242.5	4	98.0	4	-1E+10	1	-1E+10	1	-1E+10	1	-1E+10	1	-1E+10	1	-1E+10	1
4902551	78	C	10/09/2022	14:17	-131.615	48.520	0	34.20	0	15.9050	0	32.2910	0	23.688	0	33.909	0	243.7	4	98.3	4	-1E+10	1	-1E+10	1	-1E+10	1	-1E+10	1	-1E+10	1	-1E+10	1
4902551	78	C	10/09/2022	14:17	-131.615	48.520	0	34.90	0	15.8550	0	32.2890	0	23.698	0	34.603	0	244.4	4	98.4	4	-1E+10	1	-1E+10	1	-1E+10	1	-1E+10	1	-1E+10	1	-1E+10	1
4902551	78	C	10/09/2022	14:17	-131.615	48.520	0	36.10	0	15.7390	0	32.2920	0	23.726	0	35.792	0	245.5	4	98.7	4	-1E+10	1	-1E+10	1	-1E+10	1	-1E+10	1	-1E+10	1	-1E+10	1
4902551	78	C	10/09/2022	14:17	-131.615	48.520	0	37.00	0	15.6900	0	32.2870	0	23.733	0	36.684	0	246.4	4	98.9	4	-1E+10	1	-1E+10	1	-1E+10	1	-1E+10	1	-1E+10	1	-1E+10	1
4902551	78	C	10/09/2022	14:17	-131.615	48.520	0	38.30	0	15.5560	0	32.2860	0	23.762	0	37.973	0	248.4	4	99.5	4	-1E+10	1	-1E+10	1	-1E+10	1	-1E+10	1	-1E+10	1	-1E+10	1
4902551	78	C	10/09/2022	14:17	-131.615	48.520	0	39.00	0	15.5040	0	32.2820	0	23.770	0	38.667	0	250.0	4	100.0	4	-1E+10	1	-1E+10	1	-1E+10	1	-1E+10	1	-1E+10	1	-1E+10	1
4902551	78	C	10/09/2022	14:17	-131.615	48.520	0	40.00	0	15.2760	0	32.2720	0	23.812	0	39.659	0	252.8	4	100.7	4	-1E+10	1	-1E+10	1	-1E+10	1	-1E+10	1	-1E+10	1	-1E+10	1
4902551	78	C	10/09/2022	14:17	-131.615	48.520	0	41.00	0	14.3900	0	32.2690	0	23.999	0	40.650	0	260.0	4	101.7	4	-1E+10	1	-1E+10	1	-1E+10	1	-1E+10	1	-1E+10	1	-1E+10	1
4902551	78	C	10/09/2022	14:17	-131.615	48.520	0	42.10	0	12.9650	0	32.2840	0	24.298	0	41.740	0	265.4	4	100.9	4	-1E+10	1	-1E+10	1	-1E+10	1	-1E+10	1	-1E+10	1	-1E+10	1
4902551	78	C	10/09/2022	14:17	-131.615	48.520	0	43.00	0	12.3930	0	32.2710	0	24.398	0	42.633	0	267.0	4	100.3	4	-1E+10	1	-1E+10	1	-1E+10	1	-1E+10	1	-1E+10	1	-1E+10	1
4902551	78	C	10/09/2022	14:17	-131.615	48.520	0	44.00	0	12.1470	0	32.2590	0	24.435	0	43.624	0	267.7	4	100.0	4	-1E+10	1	-1E+10	1	-1E+10	1	-1E+10	1	-1E+10	1	-1E+10	1
4902551	78	C	10/09/2022	14:17	-131.615	48.520	0	45.00	0	12.1170	0	32.2580	0	24.440	0	44.615	0	267.6	4	99.9	4	-1E+10	1	-1E+10	1	-1E+10	1	-1E+10	1	-1E+10	1	-1E+10	1
4902551	78	C	10/09/2022	14:17	-131.615	48.520	0	46.20	0	12.0630	0	32.2600	0	24.452	0	45.805	0	267.7	4	99.9	4	-1E+10	1	-1E+10	1	-1E+10	1	-1E+10	1	-1E+10	1	-1E+10	1
4902551	78	C	10/09/2022	14:17	-131.615	48.520	0	46.90	0	11.7760	0	32.2760	0	24.517	0	46.499	0	267.7	4	99.3	4	-1E+10	1	-1E+10	1	-1E+10	1	-1E+10	1	-1E+10	1	-1E+10	1
4902551	78	C	10/09/2022	14:17	-131.615	48.520	0	48.00	0	11.4220	0	32.2660	0	24.574	0	47.589	0	268.6	4	98.9	4	-1E+10	1	-1E+10	1	-1E+10	1	-1E+10	1	-1E+10	1	-1E+10	1
4902551	78	C	10/09/2022	14:17	-131.615	48.520	0	49.10	0	11.1330	0	32.2680	0	24.627	0	48.680	0	268.8	4	98.3	4	-1E+10	1	-1E+10	1	-1E+10	1	-1E+10	1	-1E+10	1	-1E+10	1
4902551	78	C	10/09/2022	14:17	-131.615	48.520	0	50.00	0	11.0200	0	32.2650	0	24.644	0	49.572	0	268.4	4	98.0	4	-1E+10	1	-1E+10	1	-1E+10	1	-1E+10	1	-1E+10	1	-1E+10	1
4902551	78	C	10/09/2022	14:17	-131.615	48.520	0	51.10	0	10.8450	0	32.2700	0	24.679	0	50.663	0	268.4	4	97.6	4	-1E+10	1	-1E+10	1	-1E+10	1	-1E+10	1	-1E+10	1	-1E+10	1
4902551	78	C	10/09/2022	14:17	-131.615	48.520	0	52.00	0	10.8250	0	32.2660	0	24.679	0	51.555	0	268.4	4	97.5	4	-1E+10	1	-1E+10	1	-1E+10	1	-1E+10	1	-1E+10	1	-1E+10	1
4902551	78	C	10/09/2022	14:17	-131.615	48.520	0	53.10	0	10.7440	0	32.2630	0	24.691	0	52.645	0	268.0	4	97.3	4	-1E+10	1	-1E+10	1	-1E+10	1	-1E+10	1	-1E+10	1	-1E+10	1
4902551	78	C	10/09/2022	14:17	-131.615	48.520	0	53.70	0	10.6100	0	32.2750	0	24.723	0	53.240	0	267.9	4	96.9	4	-1E+10	1	-1E+10	1	-1E+10	1	-1E+10	1	-1E+10	1	-1E+10	1
4902551	78	C	10/09/2022	14:17	-131.615	48.520	0	54.70	0	10.2760	0	32.2740	0	24.779	0	54.231	0	267.6	4	96.1	4	-1E+10	1	-1E+10	1	-1E+10	1	-1E+10	1	-1E+10	1	-1E+10	1
4902551	78	C	10/09/2022	14:17	-131.615	48.520	0	55.70	0	10.0720	0	32.2800	0	24.818	0	55.223	0	267.6	4	95.7	4	-1E+10	1	-1E+10	1	-1E+10	1	-1E+10	1	-1E+10	1	-1E+10	1
4902551	78	C	10/09/2022	14:17	-131.615	48.520	0	56.80	0	9.8720	0	32.2810	0	24.852	0	56.313	0	267.9	4	95.4	4	-1E+10	1	-1E+10	1	-1E+10	1	-1E+10	1	-1E+10	1	-1E+10	1
4902551	78	C	10/09/2022	14:17	-131.615	48.520	0	57.90	0	9.8260	0	32.2800	0	24.859	0	57.403	0	267.7	4	95.3	4	-1E+10	1	-1E+10	1	-1E+10	1	-1E+10	1	-1E+10	1	-1E+10	1
4902551	78	C	10/09/2022	14:17	-131.615	48.520	0	59.00	0	9.7700	0	32.2820	0	24.869	0	58.494	0	267.6	4	95.1	4	-1E+10	1	-1E+10	1	-1E+10	1	-1E+10	1	-1E+10	1	-1E+10	1
4902551	78	C	10/09/2022	14:17	-131.615	48.520	0	60.10	0	9.7070	0	32.2830	0	24.881	0	59.584	0	267.4	4	94.9	4	-1E+10	1	-1E+10	1	-1E+10	1	-1E+10	1	-1E+10	1	-1E+10	1
4902551	78	C	10/09/2022	14:17	-131.615	48.520	0	60.90	0	9.6800	0	32.2850	0	24.886	0	60.377	0	267.3	4	94.8	4	-1E+10	1	-1E+10	1	-1E+10	1	-1E+10	1	-1E+10	1	-1E+10	1
4902551	78	C	10/09/2022	14:17	-131.615	48.520	0	61.70	0	9.6560	0	32.2820	0	24.888	0	61.170	0	267.1	4	94.7	4	-1E+10	1	-1E+10	1	-1E+10	1	-1E+10	1	-1E+10	1	-1E+10	1
4902551	78	C	10/09/2022	14:17	-131.615	48.520	0	62.70	0	9.6280	0	32.2900	0	24.899	0	62.161	0	266.6	4	94.4	4	-1E+10	1	-1E+10	1	-1E+10	1	-1E+10	1	-1E+10	1	-1E+10	1
4902551	78	C	10/09/2022	14:17	-131.615	48.520	0	63.80	0	9.5520	0	32.2830	0	24.906	0	63.252	0	266.2	4	94.2	4	-1E+10	1	-1E+10	1	-1E+10	1	-1E+10	1	-1E+10	1	-1E+10	1
4902551	78	C	10/09/2022	14:17	-131.615	48.520	0	64.90	0	9.3570	0	32.2970	0	24.948	0	64.342	0	266.2	4	93.8	4	-1E+10	1	-1E+10	1	-1E+10	1	-1E+10	1	-1E+10	1	-1E+10	1
4902551	78	C	10/09/2022	14:17	-131.615	48.520	0	66.00	0	9.2390	0	32.3010	0	24.969	0	65.433	0	266.2	4	93.5	4	-1E+10	1	-1E+10	1	-1E+10	1	-1E+10	1	-1E+10	1	-1E+10	1
4902551	78	C	10/09/2022	14:17	-131.615	48.520	0	66.90	0	9.1960	0	32.2980	0	24.974	0	66.325	0	266.2	4	93.4	4	-1E+10	1	-1E+10	1	-1E+10	1	-1E+10	1	-1E+10	1	-1E+10	1
4902551	78	C	10/09/2022	14:17	-131.615	48.520	0	67.80	0	9.1730	0	32.3030	0	24.981	0	67.217	0	266.0	4	93.3	4	-1E+10	1	-1E+10	1	-1E+10	1	-1E+10	1	-1E+10	1	-1E+10	1
4902551	78	C	10/09/2022	14:17	-131.615	48.520	0	68.90	0	9.1590	0	32.3020	0	24.983	0	68.307	0	265.8	4	93.2	4	-1E+10	1	-1E+10	1	-1E+10	1	-1E+10	1	-1E+10	1	-1E+10	1
4902551	78	C	10/09/2022	14:17	-131.615	48.520	0	70.00	0	9.1480	0	32.3030	0	24.985	0	69.398	0	265.5	4	93.1	4	-1E+10	1	-1E+10	1	-1E+10	1	-1E+10	1	-1E+10	1	-1E+10	1
4902551	78	C	10/09/2022	14:17	-131.615	48.520	0	71.10	0	9.1470	0	32.3000	0	24.983	0	70.488	0	265.2	4	93.0	4	-1E+10	1	-1E+10	1	-1E+10	1	-1E+10	1	-1E+10	1	-1E+10	1
4902551	78	C	10/09/2022	14:17	-131.615	48.520	0	72.00	0	9.1330	0	32.3030	0	24.988	0	71.380	0	265.1	4	92.9	4	-1E+10	1	-1E+10	1	-1E+10	1	-1E+10	1	-1E+10	1	-1E+10	1
4902551	78	C	10/09/2022	14:17	-131.615	48.520	0	72.70	0	9.1230	0	32.3030	0	24.989	0	72.074	0	264.8	4	92.8	4	-1E+10	1	-1E+10	1	-1E+10	1	-1E+10	1	-1E+10	1	-1E+10	1
4902551	78	C	10/09/2022	14:17	-131.615	48.520	0	73.90	0	9.0660	0	32.3060	0	25.000	0	73.263	0	264.5	4	92.6	4	-1E+10	1	-1E+10	1	-1E+10	1	-1E+10	1	-1E+10	1	-1E+10	1
4902551	78	C	10/09/2022	14:17	-131.615	48.520	0	75.40	0	8.9890	0	32.3050	0	25.012	0	74.750	0	264.3	4	92.3	4	-1E+10	1	-1E+10	1	-1E+10	1	-1E+10	1	-1E+10	1	-1E+10	1
4902551	78	C	10/09/2022	14:17	-131.615	48.520	0	76.00	0	8.9470	0	32.3090	0	25.021	0	75.345	0	264.2	4	92.2	4	-1E+10	1	-1E+10	1	-1E+10	1	-1E+10	1	-1E+10	1	-1E+10	1
4902551	78	C	10/09/2022	14:17	-131.615	48.520	0	76.70	0	8.8000	0	32.3240	0	25.056	0	76.039	0	264.3	4	92.0	4	-1E+10	1	-1E+10	1	-1E+10	1	-1E+10	1	-1E+10	1	-1E+10	1
4902551	78	C	10/09/2022	14:17	-131.615	48.520	0	77.90	0	8.6560	0	32.3290	0	25.081	0	77.228	0	264.5	4	91.7	4	-1E+10	1	-1E+10	1	-1E+10	1	-1E+10	1	-1E+10	1	-1E+10	1
4902551	78	C	10/09/2022	14:17	-131.615	48.520	0	79.20	0	8.6250	0	32.3280	0	25.085	0	78.517	0	264.1	4	91.5	4	-1E+10	1	-1E+10	1	-1E+10	1	-1E+10	1	-1E+10	1	-1E+10	1
4902551	78	C	10/09/2022	14:17	-131.615	48.520	0	80.10	0	8.6120	0	32.3280	0	25.087	0	79.409	0	263.4	4	91.3	4	-1E+10	1	-1E+10	1	-1E+10	1	-1E+10	1	-1E+10	1	-1E+10	1
4902551	78	C	10/09/2022	14:17	-131.615	48.520	0	81.10	0	8.5050	0	32.3350	0	25.109	0	80.400	0	263.2	4	91.0	4	-1E+10	1	-1E+10	1	-1E+10	1	-1E+10	1	-1E+10	1	-1E+10	1
4902551	78	C	10/09/2022	14:17	-131.615	48.520	0	82.00	0	8.3470	0	32.3450	0	25.140	0	81.292	0	263.6	4	90.8	4	-1E+10	1	-1E+10	1	-1E+10	1	-1E+10	1	-1E+10	1	-1E+10	1
4902551	78	C	10/09/2022	14:17	-131.615	48.520	0	82.90	0	8.2780	0	32.3480	0	25.153	0	82.184	0	270.2	4	93.0	4	-1E+10	1	-1E+10	1	-1E+10	1	-1E+10	1	-1E+10	1	-1E+10	1
4902551	78	C	10/09/2022	14:17	-131.615	48.520	0	83.90	0	8.2540	0	32.3500	0	25.158	0	83.175	0	270.1	4	92.9	4	-1E+10	1	-1E+10	1	-1E+10	1	-1E+10	1	-1E+10	1	-1E+10	1
4902551	78	C	10/09/2022	14:17	-131.615	48.520	0	84.90	0	8.2450	0	32.3510	0	25.160	0	84.166	0	270.0	4	92.8	4	-1E+10	1	-1E+10	1	-1E+10	1	-1E+10	1	-1E+10	1	-1E+10	1
4902551	78	C	10/09/2022	14:17	-131.615	48.520	0	86.00	0	8.2290	0	32.3500	0	25.161	0	85.256	0	269.9	4	92.7	4	-1E+10	1	-1E+10	1	-1E+10	1	-1E+10	1	-1E+10	1	-1E+10	1
4902551	78	C	10/09/2022	14:17	-131.615	48.520	0	87.20	0	8.1730	0	32.3540	0	25.173	0	86.446	0	269.9	4	92.6	4	-1E+10	1	-1E+10	1	-1E+10	1	-1E+10	1	-1E+10	1	-1E+10	1
4902551	78	C	10/09/2022	14:17	-131.615	48.520	0	88.00	0	8.1300	0	32.3590	0	25.183	0	87.239	0	270.0	4	92.6	4	-1E+10	1	-1E+10	1	-1E+10	1	-1E+10	1	-1E+10	1	-1E+10	1
4902551	78	C	10/09/2022	14:17	-131.615	48.520	0	89.30	0	8.1050	0	32.3610	0	25.188	0	88.527	0	270.0	4	92.5	4	-1E+10	1	-1E+10	1	-1E+10	1	-1E+10	1	-1E+10	1	-1E+10	1
4902551	78	C	10/09/2022	14:17	-131.615	48.520	0	90.20	0	8.0870	0	32.3620	0	25.192	0	89.419	0	269.9	4	92.5	4	-1E+10	1	-1E+10	1	-1E+10	1	-1E+10	1	-1E+10	1	-1E+10	1
4902551	78	C	10/09/2022	14:17	-131.615	48.520	0	90.90	0	8.0800	0	32.3630	0	25.193	0	90.113	0	269.9	4	92.5	4	-1E+10	1	-1E+10	1	-1E+10	1	-1E+10	1	-1E+10	1	-1E+10	1
4902551	78	C	10/09/2022	14:17	-131.615	48.520	0	92.10	0	8.0350	0	32.3680	0	25.204	0	91.302	0	269.9	4	92.4	4	-1E+10	1	-1E+10	1	-1E+10	1	-1E+10	1	-1E+10	1	-1E+10	1
4902551	78	C	10/09/2022	14:17	-131.615	48.520	0	92.80	0	8.0050	0	32.3700	0	25.210	0	91.996	0	270.0	4	92.3	4	-1E+10	1	-1E+10	1	-1E+10	1	-1E+10	1	-1E+10	1	-1E+10	1
4902551	78	C	10/09/2022	14:17	-131.615	48.520	0	93.80	0	8.0020	0	32.3700	0	25.210	0	92.987	0	269.9	4	92.3	4	-1E+10	1	-1E+10	1	-1E+10	1	-1E+10	1	-1E+10	1	-1E+10	1
4902551	78	C	10/09/2022	14:17	-131.615	48.520	0	94.90	0	7.9950	0	32.3700	0	25.211	0	94.078	0	269.8	4	92.2	4	-1E+10	1	-1E+10	1	-1E+10	1	-1E+10	1	-1E+10	1	-1E+10	1
4902551	78	C	10/09/2022	14:17	-131.615	48.520	0	96.30	0	7.9850	0	32.3700	0	25.213	0	95.465	0	269.8	4	92.2	4	-1E+10	1	-1E+10	1	-1E+10	1	-1E+10	1	-1E+10	1	-1E+10	1
4902551	78	C	10/09/2022	14:17	-131.615	48.520	0	97.20	0	7.9830	0	32.3690	0	25.212	0	96.357	0	269.7	4	92.2	4	-1E+10	1	-1E+10	1	-1E+10	1	-1E+10	1	-1E+10	1	-1E+10	1
4902551	78	C	10/09/2022	14:17	-131.615	48.520	0	97.80	0	7.9420	0	32.3760	0	25.224	0	96.952	0	269.7	4	92.1	4	-1E+10	1	-1E+10	1	-1E+10	1	-1E+10	1	-1E+10	1	-1E+10	1
4902551	78	C	10/09/2022	14:17	-131.615	48.520	0	98.90	0	7.8910	0	32.3840	0	25.237	0	98.042	0	269.9	4	92.1	4	-1E+10	1	-1E+10	1	-1E+10	1	-1E+10	1	-1E+10	1	-1E+10	1
4902551	78	C	10/09/2022	14:17	-131.615	48.520	0	100.00	0	7.8720	0	32.3870	0	25.242	0	99.132	0	270.0	4	92.1	4	-1E+10	1	-1E+10	1	-1E+10	1	-1E+10	1	-1E+10	1	-1E+10	1
4902551	78	C	10/09/2022	14:17	-131.615	48.520	0	101.20	0	7.8280	0	32.3960	0	25.256	0	100.321	0	270.3	4	92.1	4	-1E+10	1	-1E+10	1	-1E+10	1	-1E+10	1	-1E+10	1	-1E+10	1
4902551	78	C	10/09/2022	14:17	-131.615	48.520	0	102.00	0	7.7690	0	32.4060	0	25.272	0	101.114	0	270.4	4	92.0	4	-1E+10	1	-1E+10	1	-1E+10	1	-1E+10	1	-1E+10	1	-1E+10	1
4902551	78	C	10/09/2022	14:17	-131.615	48.520	0	103.20	0	7.7040	0	32.4310	0	25.301	0	102.304	0	270.4	4	91.9	4	-1E+10	1	-1E+10	1	-1E+10	1	-1E+10	1	-1E+10	1	-1E+10	1
4902551	78	C	10/09/2022	14:17	-131.615	48.520	0	104.00	0	7.6590	0	32.4310	0	25.307	0	103.096	0	270.3	4	91.8	4	-1E+10	1	-1E+10	1	-1E+10	1	-1E+10	1	-1E+10	1	-1E+10	1
4902551	78	C	10/09/2022	14:17	-131.615	48.520	0	105.30	0	7.5690	0	32.4320	0	25.320	0	104.385	0	270.3	4	91.6	4	-1E+10	1	-1E+10	1	-1E+10	1	-1E+10	1	-1E+10	1	-1E+10	1
4902551	78	C	10/09/2022	14:17	-131.615	48.520	0	106.00	0	7.5400	0	32.4340	0	25.326	0	105.078	0	270.3	4	91.5	4	-1E+10	1	-1E+10	1	-1E+10	1	-1E+10	1	-1E+10	1	-1E+10	1
4902551	78	C	10/09/2022	14:17	-131.615	48.520	0	107.00	0	7.5030	0	32.4370	0	25.333	0	106.070	0	270.2	4	91.4	4	-1E+10	1	-1E+10	1	-1E+10	1	-1E+10	1	-1E+10	1	-1E+10	1
4902551	78	C	10/09/2022	14:17	-131.615	48.520	0	108.00	0	7.4760	0	32.4400	0	25.340	0	107.061	0	269.9	4	91.3	4	-1E+10	1	-1E+10	1	-1E+10	1	-1E+10	1	-1E+10	1	-1E+10	1
4902551	78	C	10/09/2022	14:17	-131.615	48.520	0	109.10	0	7.4170	0	32.4460	0	25.352	0	108.151	0	269.9	4	91.1	4	-1E+10	1	-1E+10	1	-1E+10	1	-1E+10	1	-1E+10	1	-1E+10	1
4902551	78	C	10/09/2022	14:17	-131.615	48.520	0	109.90	0	7.3870	0	32.4460	0	25.357	0	108.944	0	269.9	4	91.1	4	-1E+10	1	-1E+10	1	-1E+10	1	-1E+10	1	-1E+10	1	-1E+10	1
4902551	78	C	10/09/2022	14:17	-131.615	48.520	0	110.70	0	7.3680	0	32.4460	0	25.359	0	109.736	0	269.8	4	91.0	4	-1E+10	1	-1E+10	1	-1E+10	1	-1E+10	1	-1E+10	1	-1E+10	1
4902551	78	C	10/09/2022	14:17	-131.615	48.520	0	111.80	0	7.3220	0	32.4470	0	25.366	0	110.827	0	269.8	4	90.9	4	-1E+10	1	-1E+10	1	-1E+10	1	-1E+10	1	-1E+10	1	-1E+10	1
4902551	78	C	10/09/2022	14:17	-131.615	48.520	0	112.90	0	7.2530	0	32.4480	0	25.376	0	111.917	0	269.9	4	90.8	4	-1E+10	1	-1E+10	1	-1E+10	1	-1E+10	1	-1E+10	1	-1E+10	1
4902551	78	C	10/09/2022	14:17	-131.615	48.520	0	114.00	0	7.2400	0	32.4480	0	25.378	0	113.007	0	269.7	4	90.7	4	-1E+10	1	-1E+10	1	-1E+10	1	-1E+10	1	-1E+10	1	-1E+10	1
4902551	78	C	10/09/2022	14:17	-131.615	48.520	0	115.10	0	7.2080	0	32.4490	0	25.383	0	114.097	0	269.4	4	90.5	4	-1E+10	1	-1E+10	1	-1E+10	1	-1E+10	1	-1E+10	1	-1E+10	1
4902551	78	C	10/09/2022	14:17	-131.615	48.520	0	116.10	0	7.1400	0	32.4540	0	25.397	0	115.088	0	269.1	4	90.3	4	-1E+10	1	-1E+10	1	-1E+10	1	-1E+10	1	-1E+10	1	-1E+10	1
4902551	78	C	10/09/2022	14:17	-131.615	48.520	0	117.00	0	7.0560	0	32.4580	0	25.411	0	115.980	0	269.0	4	90.1	4	-1E+10	1	-1E+10	1	-1E+10	1	-1E+10	1	-1E+10	1	-1E+10	1
4902551	78	C	10/09/2022	14:17	-131.615	48.520	0	117.70	0	7.0350	0	32.4590	0	25.415	0	116.673	0	268.7	4	89.9	4	-1E+10	1	-1E+10	1	-1E+10	1	-1E+10	1	-1E+10	1	-1E+10	1
4902551	78	C	10/09/2022	14:17	-131.615	48.520	0	118.80	0	7.0180	0	32.4610	0	25.418	0	117.764	0	268.1	4	89.7	4	-1E+10	1	-1E+10	1	-1E+10	1	-1E+10	1	-1E+10	1	-1E+10	1
4902551	78	C	10/09/2022	14:17	-131.615	48.520	0	119.70	0	6.9960	0	32.4640	0	25.424	0	118.655	0	267.2	4	89.4	4	-1E+10	1	-1E+10	1	-1E+10	1	-1E+10	1	-1E+10	1	-1E+10	1
4902551	78	C	10/09/2022	14:17	-131.615	48.520	0	120.70	0	6.9810	0	32.4700	0	25.430	0	119.646	0	266.0	4	88.9	4	-1E+10	1	-1E+10	1	-1E+10	1	-1E+10	1	-1E+10	1	-1E+10	1
4902551	78	C	10/09/2022	14:17	-131.615	48.520	0	121.70	0	6.9410	0	32.4820	0	25.445	0	120.637	0	264.8	4	88.5	4	-1E+10	1	-1E+10	1	-1E+10	1	-1E+10	1	-1E+10	1	-1E+10	1
4902551	78	C	10/09/2022	14:17	-131.615	48.520	0	122.90	0	6.9110	0	32.5000	0	25.463	0	121.827	0	263.1	4	87.9	4	-1E+10	1	-1E+10	1	-1E+10	1	-1E+10	1	-1E+10	1	-1E+10	1
4902551	78	C	10/09/2022	14:17	-131.615	48.520	0	124.10	0	6.8870	0	32.5130	0	25.477	0	123.016	0	261.8	4	87.4	4	-1E+10	1	-1E+10	1	-1E+10	1	-1E+10	1	-1E+10	1	-1E+10	1
4902551	78	C	10/09/2022	14:17	-131.615	48.520	0	125.20	0	6.8650	0	32.5310	0	25.494	0	124.106	0	260.4	4	86.9	4	-1E+10	1	-1E+10	1	-1E+10	1	-1E+10	1	-1E+10	1	-1E+10	1
4902551	78	C	10/09/2022	14:17	-131.615	48.520	0	125.90	0	6.8400	0	32.5400	0	25.504	0	124.799	0	259.4	4	86.5	4	-1E+10	1	-1E+10	1	-1E+10	1	-1E+10	1	-1E+10	1	-1E+10	1
4902551	78	C	10/09/2022	14:17	-131.615	48.520	0	127.00	0	6.8350	0	32.5480	0	25.511	0	125.890	0	257.0	4	85.7	4	-1E+10	1	-1E+10	1	-1E+10	1	-1E+10	1	-1E+10	1	-1E+10	1
4902551	78	C	10/09/2022	14:17	-131.615	48.520	0	127.90	0	6.8260	0	32.5640	0	25.525	0	126.781	0	254.5	4	84.9	4	-1E+10	1	-1E+10	1	-1E+10	1	-1E+10	1	-1E+10	1	-1E+10	1
4902551	78	C	10/09/2022	14:17	-131.615	48.520	0	128.90	0	6.8060	0	32.5840	0	25.543	0	127.772	0	252.2	4	84.0	4	-1E+10	1	-1E+10	1	-1E+10	1	-1E+10	1	-1E+10	1	-1E+10	1
4902551	78	C	10/09/2022	14:17	-131.615	48.520	0	130.00	0	6.7870	0	32.6090	0	25.566	0	128.862	0	250.1	4	83.3	4	-1E+10	1	-1E+10	1	-1E+10	1	-1E+10	1	-1E+10	1	-1E+10	1
4902551	78	C	10/09/2022	14:17	-131.615	48.520	0	131.20	0	6.7690	0	32.6590	0	25.607	0	130.051	0	248.7	4	82.9	4	-1E+10	1	-1E+10	1	-1E+10	1	-1E+10	1	-1E+10	1	-1E+10	1
4902551	78	C	10/09/2022	14:17	-131.615	48.520	0	131.90	0	6.7660	0	32.6640	0	25.612	0	130.745	0	247.4	4	82.4	4	-1E+10	1	-1E+10	1	-1E+10	1	-1E+10	1	-1E+10	1	-1E+10	1
4902551	78	C	10/09/2022	14:17	-131.615	48.520	0	133.10	0	6.7590	0	32.6760	0	25.622	0	131.934	0	244.5	4	81.4	4	-1E+10	1	-1E+10	1	-1E+10	1	-1E+10	1	-1E+10	1	-1E+10	1
4902551	78	C	10/09/2022	14:17	-131.615	48.520	0	133.90	0	6.7540	0	32.6840	0	25.629	0	132.727	0	242.3	4	80.7	4	-1E+10	1	-1E+10	1	-1E+10	1	-1E+10	1	-1E+10	1	-1E+10	1
4902551	78	C	10/09/2022	14:17	-131.615	48.520	0	134.90	0	6.7460	0	32.7020	0	25.644	0	133.718	0	238.8	4	79.5	4	-1E+10	1	-1E+10	1	-1E+10	1	-1E+10	1	-1E+10	1	-1E+10	1
4902551	78	C	10/09/2022	14:17	-131.615	48.520	0	136.00	0	6.7350	0	32.7420	0	25.677	0	134.808	0	235.5	4	78.5	4	-1E+10	1	-1E+10	1	-1E+10	1	-1E+10	1	-1E+10	1	-1E+10	1
4902551	78	C	10/09/2022	14:17	-131.615	48.520	0	137.00	0	6.7200	0	32.7920	0	25.719	0	135.799	0	233.0	4	77.6	4	-1E+10	1	-1E+10	1	-1E+10	1	-1E+10	1	-1E+10	1	-1E+10	1
4902551	78	C	10/09/2022	14:17	-131.615	48.520	0	137.90	0	6.6880	0	32.8410	0	25.761	0	136.691	0	231.2	4	77.0	4	-1E+10	1	-1E+10	1	-1E+10	1	-1E+10	1	-1E+10	1	-1E+10	1
4902551	78	C	10/09/2022	14:17	-131.615	48.520	0	138.80	0	6.6540	0	32.8860	0	25.801	0	137.582	0	229.4	4	76.3	4	-1E+10	1	-1E+10	1	-1E+10	1	-1E+10	1	-1E+10	1	-1E+10	1
4902551	78	C	10/09/2022	14:17	-131.615	48.520	0	139.70	0	6.6430	0	32.9020	0	25.815	0	138.474	0	227.1	4	75.6	4	-1E+10	1	-1E+10	1	-1E+10	1	-1E+10	1	-1E+10	1	-1E+10	1
4902551	78	C	10/09/2022	14:17	-131.615	48.520	0	140.90	0	6.6130	0	32.9560	0	25.862	0	139.663	0	224.0	4	74.5	4	-1E+10	1	-1E+10	1	-1E+10	1	-1E+10	1	-1E+10	1	-1E+10	1
4902551	78	C	10/09/2022	14:17	-131.615	48.520	0	141.70	0	6.6070	0	32.9680	0	25.872	0	140.456	0	222.3	4	74.0	4	-1E+10	1	-1E+10	1	-1E+10	1	-1E+10	1	-1E+10	1	-1E+10	1
4902551	78	C	10/09/2022	14:17	-131.615	48.520	0	142.70	0	6.6000	0	32.9840	0	25.886	0	141.447	0	219.2	4	72.9	4	-1E+10	1	-1E+10	1	-1E+10	1	-1E+10	1	-1E+10	1	-1E+10	1
4902551	78	C	10/09/2022	14:17	-131.615	48.520	0	143.80	0	6.5900	0	33.0050	0	25.904	0	142.537	0	215.4	4	71.7	4	-1E+10	1	-1E+10	1	-1E+10	1	-1E+10	1	-1E+10	1	-1E+10	1
4902551	78	C	10/09/2022	14:17	-131.615	48.520	0	145.10	0	6.5730	0	33.0350	0	25.929	0	143.825	0	211.8	4	70.5	4	-1E+10	1	-1E+10	1	-1E+10	1	-1E+10	1	-1E+10	1	-1E+10	1
4902551	78	C	10/09/2022	14:17	-131.615	48.520	0	146.00	0	6.5530	0	33.0750	0	25.964	0	144.717	0	209.8	4	69.8	4	-1E+10	1	-1E+10	1	-1E+10	1	-1E+10	1	-1E+10	1	-1E+10	1
4902551	78	C	10/09/2022	14:17	-131.615	48.520	0	146.90	0	6.5430	0	33.0890	0	25.976	0	145.609	0	207.6	4	69.0	4	-1E+10	1	-1E+10	1	-1E+10	1	-1E+10	1	-1E+10	1	-1E+10	1
4902551	78	C	10/09/2022	14:17	-131.615	48.520	0	147.80	0	6.5180	0	33.1190	0	26.003	0	146.500	0	205.3	4	68.3	4	-1E+10	1	-1E+10	1	-1E+10	1	-1E+10	1	-1E+10	1	-1E+10	1
4902551	78	C	10/09/2022	14:17	-131.615	48.520	0	148.80	0	6.4900	0	33.1620	0	26.040	0	147.491	0	203.0	4	67.5	4	-1E+10	1	-1E+10	1	-1E+10	1	-1E+10	1	-1E+10	1	-1E+10	1
4902551	78	C	10/09/2022	14:17	-131.615	48.520	0	149.90	0	6.4770	0	33.1820	0	26.058	0	148.581	0	200.7	4	66.7	4	-1E+10	1	-1E+10	1	-1E+10	1	-1E+10	1	-1E+10	1	-1E+10	1
4902551	78	C	10/09/2022	14:17	-131.615	48.520	0	150.90	0	6.4700	0	33.1990	0	26.072	0	149.572	0	198.1	4	65.8	4	-1E+10	1	-1E+10	1	-1E+10	1	-1E+10	1	-1E+10	1	-1E+10	1
4902551	78	C	10/09/2022	14:17	-131.615	48.520	0	152.00	0	6.4530	0	33.2220	0	26.092	0	150.662	0	195.4	4	64.9	4	-1E+10	1	-1E+10	1	-1E+10	1	-1E+10	1	-1E+10	1	-1E+10	1
4902551	78	C	10/09/2022	14:17	-131.615	48.520	0	152.80	0	6.4380	0	33.2430	0	26.111	0	151.454	0	193.4	4	64.2	4	-1E+10	1	-1E+10	1	-1E+10	1	-1E+10	1	-1E+10	1	-1E+10	1
4902551	78	C	10/09/2022	14:17	-131.615	48.520	0	153.60	0	6.4180	0	33.2620	0	26.129	0	152.247	0	191.4	4	63.6	4	-1E+10	1	-1E+10	1	-1E+10	1	-1E+10	1	-1E+10	1	-1E+10	1
4902551	78	C	10/09/2022	14:17	-131.615	48.520	0	154.90	0	6.3130	0	33.3500	0	26.211	0	153.535	0	189.5	4	62.8	4	-1E+10	1	-1E+10	1	-1E+10	1	-1E+10	1	-1E+10	1	-1E+10	1
4902551	78	C	10/09/2022	14:17	-131.615	48.520	0	156.30	0	6.2400	0	33.4170	0	26.274	0	154.922	0	188.2	4	62.3	4	-1E+10	1	-1E+10	1	-1E+10	1	-1E+10	1	-1E+10	1	-1E+10	1
4902551	78	C	10/09/2022	14:17	-131.615	48.520	0	157.20	0	6.2520	0	33.4290	0	26.282	0	155.814	0	187.3	4	62.0	4	-1E+10	1	-1E+10	1	-1E+10	1	-1E+10	1	-1E+10	1	-1E+10	1
4902551	78	C	10/09/2022	14:17	-131.615	48.520	0	158.10	0	6.2530	0	33.4420	0	26.292	0	156.706	0	186.5	4	61.8	4	-1E+10	1	-1E+10	1	-1E+10	1	-1E+10	1	-1E+10	1	-1E+10	1
4902551	78	C	10/09/2022	14:17	-131.615	48.520	0	159.00	0	6.2530	0	33.4400	0	26.290	0	157.598	0	185.7	4	61.5	4	-1E+10	1	-1E+10	1	-1E+10	1	-1E+10	1	-1E+10	1	-1E+10	1
4902551	78	C	10/09/2022	14:17	-131.615	48.520	0	159.90	0	6.2440	0	33.4590	0	26.306	0	158.489	0	184.8	4	61.2	4	-1E+10	1	-1E+10	1	-1E+10	1	-1E+10	1	-1E+10	1	-1E+10	1
4902551	78	C	10/09/2022	14:17	-131.615	48.520	0	160.90	0	6.2310	0	33.4700	0	26.317	0	159.480	0	184.0	4	60.9	4	-1E+10	1	-1E+10	1	-1E+10	1	-1E+10	1	-1E+10	1	-1E+10	1
4902551	78	C	10/09/2022	14:17	-131.615	48.520	0	161.70	0	6.2260	0	33.4800	0	26.325	0	160.273	0	183.4	4	60.7	4	-1E+10	1	-1E+10	1	-1E+10	1	-1E+10	1	-1E+10	1	-1E+10	1
4902551	78	C	10/09/2022	14:17	-131.615	48.520	0	163.00	0	6.2200	0	33.4910	0	26.335	0	161.561	0	182.2	4	60.3	4	-1E+10	1	-1E+10	1	-1E+10	1	-1E+10	1	-1E+10	1	-1E+10	1
4902551	78	C	10/09/2022	14:17	-131.615	48.520	0	164.10	0	6.2130	0	33.5060	0	26.347	0	162.651	0	181.2	4	60.0	4	-1E+10	1	-1E+10	1	-1E+10	1	-1E+10	1	-1E+10	1	-1E+10	1
4902551	78	C	10/09/2022	14:17	-131.615	48.520	0	164.80	0	6.2090	0	33.5120	0	26.353	0	163.344	0	180.4	4	59.7	4	-1E+10	1	-1E+10	1	-1E+10	1	-1E+10	1	-1E+10	1	-1E+10	1
4902551	78	C	10/09/2022	14:17	-131.615	48.520	0	165.90	0	6.2030	0	33.5180	0	26.358	0	164.434	0	179.2	4	59.3	4	-1E+10	1	-1E+10	1	-1E+10	1	-1E+10	1	-1E+10	1	-1E+10	1
4902551	78	C	10/09/2022	14:17	-131.615	48.520	0	167.00	0	6.2030	0	33.5280	0	26.366	0	165.524	0	178.3	4	59.0	4	-1E+10	1	-1E+10	1	-1E+10	1	-1E+10	1	-1E+10	1	-1E+10	1
4902551	78	C	10/09/2022	14:17	-131.615	48.520	0	167.80	0	6.2060	0	33.5310	0	26.368	0	166.316	0	177.6	4	58.8	4	-1E+10	1	-1E+10	1	-1E+10	1	-1E+10	1	-1E+10	1	-1E+10	1
4902551	78	C	10/09/2022	14:17	-131.615	48.520	0	168.80	0	6.2030	0	33.5340	0	26.371	0	167.307	0	176.4	4	58.4	4	-1E+10	1	-1E+10	1	-1E+10	1	-1E+10	1	-1E+10	1	-1E+10	1
4902551	78	C	10/09/2022	14:17	-131.615	48.520	0	170.00	0	6.2010	0	33.5370	0	26.373	0	168.496	0	175.3	4	58.0	4	-1E+10	1	-1E+10	1	-1E+10	1	-1E+10	1	-1E+10	1	-1E+10	1
4902551	78	C	10/09/2022	14:17	-131.615	48.520	0	171.00	0	6.1870	0	33.5520	0	26.387	0	169.487	0	174.0	4	57.6	4	-1E+10	1	-1E+10	1	-1E+10	1	-1E+10	1	-1E+10	1	-1E+10	1
4902551	78	C	10/09/2022	14:17	-131.615	48.520	0	172.20	0	6.1750	0	33.5590	0	26.394	0	170.676	0	172.7	4	57.1	4	-1E+10	1	-1E+10	1	-1E+10	1	-1E+10	1	-1E+10	1	-1E+10	1
4902551	78	C	10/09/2022	14:17	-131.615	48.520	0	173.00	0	6.1720	0	33.5610	0	26.396	0	171.468	0	171.6	4	56.8	4	-1E+10	1	-1E+10	1	-1E+10	1	-1E+10	1	-1E+10	1	-1E+10	1
4902551	78	C	10/09/2022	14:17	-131.615	48.520	0	173.80	0	6.1570	0	33.5690	0	26.404	0	172.261	0	170.5	4	56.4	4	-1E+10	1	-1E+10	1	-1E+10	1	-1E+10	1	-1E+10	1	-1E+10	1
4902551	78	C	10/09/2022	14:17	-131.615	48.520	0	175.00	0	6.1500	0	33.5750	0	26.410	0	173.450	0	168.9	4	55.8	4	-1E+10	1	-1E+10	1	-1E+10	1	-1E+10	1	-1E+10	1	-1E+10	1
4902551	78	C	10/09/2022	14:17	-131.615	48.520	0	176.20	0	6.1340	0	33.5830	0	26.418	0	174.639	0	167.1	4	55.2	4	-1E+10	1	-1E+10	1	-1E+10	1	-1E+10	1	-1E+10	1	-1E+10	1
4902551	78	C	10/09/2022	14:17	-131.615	48.520	0	177.00	0	6.1360	0	33.6150	0	26.443	0	175.431	0	166.2	4	55.0	4	-1E+10	1	-1E+10	1	-1E+10	1	-1E+10	1	-1E+10	1	-1E+10	1
4902551	78	C	10/09/2022	14:17	-131.615	48.520	0	177.90	0	6.1100	0	33.6320	0	26.460	0	176.323	0	165.6	4	54.7	4	-1E+10	1	-1E+10	1	-1E+10	1	-1E+10	1	-1E+10	1	-1E+10	1
4902551	78	C	10/09/2022	14:17	-131.615	48.520	0	178.70	0	6.1010	0	33.6360	0	26.464	0	177.115	0	164.9	4	54.5	4	-1E+10	1	-1E+10	1	-1E+10	1	-1E+10	1	-1E+10	1	-1E+10	1
4902551	78	C	10/09/2022	14:17	-131.615	48.520	0	179.90	0	6.0900	0	33.6410	0	26.470	0	178.304	0	163.7	4	54.1	4	-1E+10	1	-1E+10	1	-1E+10	1	-1E+10	1	-1E+10	1	-1E+10	1
4902551	78	C	10/09/2022	14:17	-131.615	48.520	0	181.20	0	6.0670	0	33.6510	0	26.480	0	179.592	0	162.7	4	53.7	4	-1E+10	1	-1E+10	1	-1E+10	1	-1E+10	1	-1E+10	1	-1E+10	1
4902551	78	C	10/09/2022	14:17	-131.615	48.520	0	182.10	0	6.0440	0	33.6600	0	26.490	0	180.484	0	162.0	4	53.5	4	-1E+10	1	-1E+10	1	-1E+10	1	-1E+10	1	-1E+10	1	-1E+10	1
4902551	78	C	10/09/2022	14:17	-131.615	48.520	0	182.90	0	6.0380	0	33.6610	0	26.492	0	181.276	0	161.4	4	53.3	4	-1E+10	1	-1E+10	1	-1E+10	1	-1E+10	1	-1E+10	1	-1E+10	1
4902551	78	C	10/09/2022	14:17	-131.615	48.520	0	183.80	0	6.0270	0	33.6650	0	26.496	0	182.168	0	160.8	4	53.1	4	-1E+10	1	-1E+10	1	-1E+10	1	-1E+10	1	-1E+10	1	-1E+10	1
4902551	78	C	10/09/2022	14:17	-131.615	48.520	0	184.70	0	6.0150	0	33.6690	0	26.501	0	183.059	0	160.1	4	52.8	4	-1E+10	1	-1E+10	1	-1E+10	1	-1E+10	1	-1E+10	1	-1E+10	1
4902551	78	C	10/09/2022	14:17	-131.615	48.520	0	185.60	0	6.0010	0	33.6710	0	26.504	0	183.951	0	159.5	4	52.6	4	-1E+10	1	-1E+10	1	-1E+10	1	-1E+10	1	-1E+10	1	-1E+10	1
4902551	78	C	10/09/2022	14:17	-131.615	48.520	0	186.90	0	5.9910	0	33.6730	0	26.507	0	185.239	0	158.4	4	52.2	4	-1E+10	1	-1E+10	1	-1E+10	1	-1E+10	1	-1E+10	1	-1E+10	1
4902551	78	C	10/09/2022	14:17	-131.615	48.520	0	188.30	0	5.9750	0	33.6780	0	26.513	0	186.626	0	157.4	4	51.9	4	-1E+10	1	-1E+10	1	-1E+10	1	-1E+10	1	-1E+10	1	-1E+10	1
4902551	78	C	10/09/2022	14:17	-131.615	48.520	0	189.20	0	5.9590	0	33.6800	0	26.517	0	187.517	0	156.7	4	51.6	4	-1E+10	1	-1E+10	1	-1E+10	1	-1E+10	1	-1E+10	1	-1E+10	1
4902551	78	C	10/09/2022	14:17	-131.615	48.520	0	190.10	0	5.9260	0	33.6880	0	26.527	0	188.409	0	156.0	4	51.4	4	-1E+10	1	-1E+10	1	-1E+10	1	-1E+10	1	-1E+10	1	-1E+10	1
4902551	78	C	10/09/2022	14:17	-131.615	48.520	0	191.00	0	5.8960	0	33.6930	0	26.535	0	189.301	0	155.6	4	51.2	4	-1E+10	1	-1E+10	1	-1E+10	1	-1E+10	1	-1E+10	1	-1E+10	1
4902551	78	C	10/09/2022	14:17	-131.615	48.520	0	192.00	0	5.8890	0	33.6940	0	26.537	0	190.291	0	155.0	4	51.0	4	-1E+10	1	-1E+10	1	-1E+10	1	-1E+10	1	-1E+10	1	-1E+10	1
4902551	78	C	10/09/2022	14:17	-131.615	48.520	0	192.90	0	5.8800	0	33.6950	0	26.539	0	191.183	0	154.3	4	50.8	4	-1E+10	1	-1E+10	1	-1E+10	1	-1E+10	1	-1E+10	1	-1E+10	1
4902551	78	C	10/09/2022	14:17	-131.615	48.520	0	193.80	0	5.8700	0	33.6980	0	26.542	0	192.074	0	153.5	4	50.5	4	-1E+10	1	-1E+10	1	-1E+10	1	-1E+10	1	-1E+10	1	-1E+10	1
4902551	78	C	10/09/2022	14:17	-131.615	48.520	0	194.70	0	5.8550	0	33.7000	0	26.546	0	192.966	0	152.6	4	50.2	4	-1E+10	1	-1E+10	1	-1E+10	1	-1E+10	1	-1E+10	1	-1E+10	1
4902551	78	C	10/09/2022	14:17	-131.615	48.520	0	195.70	0	5.8480	0	33.7000	0	26.546	0	193.957	0	151.9	4	49.9	4	-1E+10	1	-1E+10	1	-1E+10	1	-1E+10	1	-1E+10	1	-1E+10	1
4902551	78	C	10/09/2022	14:17	-131.615	48.520	0	196.60	0	5.8220	0	33.7040	0	26.553	0	194.848	0	151.1	4	49.6	4	-1E+10	1	-1E+10	1	-1E+10	1	-1E+10	1	-1E+10	1	-1E+10	1
4902551	78	C	10/09/2022	14:17	-131.615	48.520	0	197.60	0	5.8130	0	33.7050	0	26.555	0	195.839	0	150.3	4	49.3	4	-1E+10	1	-1E+10	1	-1E+10	1	-1E+10	1	-1E+10	1	-1E+10	1
4902551	78	C	10/09/2022	14:17	-131.615	48.520	0	198.50	0	5.8030	0	33.7070	0	26.558	0	196.730	0	149.4	4	49.1	4	-1E+10	1	-1E+10	1	-1E+10	1	-1E+10	1	-1E+10	1	-1E+10	1
4902551	78	C	10/09/2022	14:17	-131.615	48.520	0	199.50	0	5.7690	0	33.7110	0	26.565	0	197.721	0	148.8	4	48.8	4	-1E+10	1	-1E+10	1	-1E+10	1	-1E+10	1	-1E+10	1	-1E+10	1
4902551	78	C	10/09/2022	14:17	-131.615	48.520	0	200.90	0	5.7430	0	33.7120	0	26.569	0	199.108	0	147.9	4	48.5	4	-1E+10	1	-1E+10	1	-1E+10	1	-1E+10	1	-1E+10	1	-1E+10	1
4902551	78	C	10/09/2022	14:17	-131.615	48.520	0	202.40	0	5.7270	0	33.7150	0	26.573	0	200.594	0	146.9	4	48.2	4	-1E+10	1	-1E+10	1	-1E+10	1	-1E+10	1	-1E+10	1	-1E+10	1
4902551	78	C	10/09/2022	14:17	-131.615	48.520	0	203.40	0	5.7170	0	33.7140	0	26.574	0	201.584	0	146.2	4	47.9	4	-1E+10	1	-1E+10	1	-1E+10	1	-1E+10	1	-1E+10	1	-1E+10	1
4902551	78	C	10/09/2022	14:17	-131.615	48.520	0	204.30	0	5.6680	0	33.7220	0	26.586	0	202.476	0	145.7	4	47.7	4	-1E+10	1	-1E+10	1	-1E+10	1	-1E+10	1	-1E+10	1	-1E+10	1
4902551	78	C	10/09/2022	14:17	-131.615	48.520	0	205.30	0	5.6620	0	33.7200	0	26.585	0	203.466	0	145.2	4	47.5	4	-1E+10	1	-1E+10	1	-1E+10	1	-1E+10	1	-1E+10	1	-1E+10	1
4902551	78	C	10/09/2022	14:17	-131.615	48.520	0	206.20	0	5.6580	0	33.7200	0	26.585	0	204.358	0	144.7	4	47.3	4	-1E+10	1	-1E+10	1	-1E+10	1	-1E+10	1	-1E+10	1	-1E+10	1
4902551	78	C	10/09/2022	14:17	-131.615	48.520	0	207.20	0	5.6120	0	33.7280	0	26.597	0	205.348	0	144.3	4	47.2	4	-1E+10	1	-1E+10	1	-1E+10	1	-1E+10	1	-1E+10	1	-1E+10	1
4902551	78	C	10/09/2022	14:17	-131.615	48.520	0	208.10	0	5.6070	0	33.7250	0	26.596	0	206.240	0	143.9	4	47.0	4	-1E+10	1	-1E+10	1	-1E+10	1	-1E+10	1	-1E+10	1	-1E+10	1
4902551	78	C	10/09/2022	14:17	-131.615	48.520	0	209.10	0	5.6030	0	33.7260	0	26.597	0	207.231	0	143.4	4	46.9	4	-1E+10	1	-1E+10	1	-1E+10	1	-1E+10	1	-1E+10	1	-1E+10	1
4902551	78	C	10/09/2022	14:17	-131.615	48.520	0	210.00	0	5.5980	0	33.7260	0	26.598	0	208.122	0	142.9	4	46.7	4	-1E+10	1	-1E+10	1	-1E+10	1	-1E+10	1	-1E+10	1	-1E+10	1
4902551	78	C	10/09/2022	14:17	-131.615	48.520	0	211.00	0	5.5920	0	33.7270	0	26.599	0	209.113	0	142.4	4	46.5	4	-1E+10	1	-1E+10	1	-1E+10	1	-1E+10	1	-1E+10	1	-1E+10	1
4902551	78	C	10/09/2022	14:17	-131.615	48.520	0	212.00	0	5.5910	0	33.7270	0	26.599	0	210.103	0	141.9	4	46.4	4	-1E+10	1	-1E+10	1	-1E+10	1	-1E+10	1	-1E+10	1	-1E+10	1
4902551	78	C	10/09/2022	14:17	-131.615	48.520	0	212.90	0	5.5910	0	33.7270	0	26.599	0	210.995	0	141.3	4	46.2	4	-1E+10	1	-1E+10	1	-1E+10	1	-1E+10	1	-1E+10	1	-1E+10	1
4902551	78	C	10/09/2022	14:17	-131.615	48.520	0	213.90	0	5.5840	0	33.7280	0	26.601	0	211.985	0	140.7	4	46.0	4	-1E+10	1	-1E+10	1	-1E+10	1	-1E+10	1	-1E+10	1	-1E+10	1
4902551	78	C	10/09/2022	14:17	-131.615	48.520	0	214.90	0	5.5780	0	33.7300	0	26.603	0	212.976	0	140.0	4	45.7	4	-1E+10	1	-1E+10	1	-1E+10	1	-1E+10	1	-1E+10	1	-1E+10	1
4902551	78	C	10/09/2022	14:17	-131.615	48.520	0	215.80	0	5.5690	0	33.7300	0	26.604	0	213.867	0	139.3	4	45.5	4	-1E+10	1	-1E+10	1	-1E+10	1	-1E+10	1	-1E+10	1	-1E+10	1
4902551	78	C	10/09/2022	14:17	-131.615	48.520	0	216.80	0	5.5640	0	33.7300	0	26.605	0	214.858	0	138.5	4	45.2	4	-1E+10	1	-1E+10	1	-1E+10	1	-1E+10	1	-1E+10	1	-1E+10	1
4902551	78	C	10/09/2022	14:17	-131.615	48.520	0	217.70	0	5.5600	0	33.7300	0	26.605	0	215.749	0	137.7	4	45.0	4	-1E+10	1	-1E+10	1	-1E+10	1	-1E+10	1	-1E+10	1	-1E+10	1
4902551	78	C	10/09/2022	14:17	-131.615	48.520	0	218.60	0	5.5520	0	33.7310	0	26.607	0	216.641	0	136.8	4	44.7	4	-1E+10	1	-1E+10	1	-1E+10	1	-1E+10	1	-1E+10	1	-1E+10	1
4902551	78	C	10/09/2022	14:17	-131.615	48.520	0	219.60	0	5.5300	0	33.7340	0	26.612	0	217.631	0	136.0	4	44.4	4	-1E+10	1	-1E+10	1	-1E+10	1	-1E+10	1	-1E+10	1	-1E+10	1
4902551	78	C	10/09/2022	14:17	-131.615	48.520	0	220.90	0	5.5230	0	33.7340	0	26.613	0	218.919	0	134.7	4	44.0	4	-1E+10	1	-1E+10	1	-1E+10	1	-1E+10	1	-1E+10	1	-1E+10	1
4902551	78	C	10/09/2022	14:17	-131.615	48.520	0	222.30	0	5.5140	0	33.7360	0	26.616	0	220.305	0	133.3	4	43.5	4	-1E+10	1	-1E+10	1	-1E+10	1	-1E+10	1	-1E+10	1	-1E+10	1
4902551	78	C	10/09/2022	14:17	-131.615	48.520	0	223.30	0	5.4870	0	33.7420	0	26.624	0	221.296	0	132.4	4	43.2	4	-1E+10	1	-1E+10	1	-1E+10	1	-1E+10	1	-1E+10	1	-1E+10	1
4902551	78	C	10/09/2022	14:17	-131.615	48.520	0	224.20	0	5.4720	0	33.7400	0	26.624	0	222.187	0	131.5	4	42.9	4	-1E+10	1	-1E+10	1	-1E+10	1	-1E+10	1	-1E+10	1	-1E+10	1
4902551	78	C	10/09/2022	14:17	-131.615	48.520	0	225.10	0	5.4630	0	33.7410	0	26.626	0	223.079	0	130.6	4	42.6	4	-1E+10	1	-1E+10	1	-1E+10	1	-1E+10	1	-1E+10	1	-1E+10	1
4902551	78	C	10/09/2022	14:17	-131.615	48.520	0	226.10	0	5.4280	0	33.7430	0	26.631	0	224.069	0	129.9	4	42.3	4	-1E+10	1	-1E+10	1	-1E+10	1	-1E+10	1	-1E+10	1	-1E+10	1
4902551	78	C	10/09/2022	14:17	-131.615	48.520	0	227.00	0	5.4190	0	33.7430	0	26.632	0	224.961	0	129.1	4	42.0	4	-1E+10	1	-1E+10	1	-1E+10	1	-1E+10	1	-1E+10	1	-1E+10	1
4902551	78	C	10/09/2022	14:17	-131.615	48.520	0	227.90	0	5.3870	0	33.7470	0	26.639	0	225.852	0	128.3	4	41.7	4	-1E+10	1	-1E+10	1	-1E+10	1	-1E+10	1	-1E+10	1	-1E+10	1
4902551	78	C	10/09/2022	14:17	-131.615	48.520	0	228.90	0	5.3820	0	33.7520	0	26.644	0	226.843	0	127.7	4	41.5	4	-1E+10	1	-1E+10	1	-1E+10	1	-1E+10	1	-1E+10	1	-1E+10	1
4902551	78	C	10/09/2022	14:17	-131.615	48.520	0	229.80	0	5.3790	0	33.7530	0	26.645	0	227.734	0	127.0	4	41.3	4	-1E+10	1	-1E+10	1	-1E+10	1	-1E+10	1	-1E+10	1	-1E+10	1
4902551	78	C	10/09/2022	14:17	-131.615	48.520	0	230.80	0	5.3760	0	33.7520	0	26.645	0	228.725	0	126.3	4	41.1	4	-1E+10	1	-1E+10	1	-1E+10	1	-1E+10	1	-1E+10	1	-1E+10	1
4902551	78	C	10/09/2022	14:17	-131.615	48.520	0	231.80	0	5.3670	0	33.7550	0	26.648	0	229.715	0	125.7	4	40.9	4	-1E+10	1	-1E+10	1	-1E+10	1	-1E+10	1	-1E+10	1	-1E+10	1
4902551	78	C	10/09/2022	14:17	-131.615	48.520	0	232.80	0	5.3630	0	33.7570	0	26.650	0	230.705	0	124.9	4	40.6	4	-1E+10	1	-1E+10	1	-1E+10	1	-1E+10	1	-1E+10	1	-1E+10	1
4902551	78	C	10/09/2022	14:17	-131.615	48.520	0	233.70	0	5.3680	0	33.7590	0	26.651	0	231.597	0	124.2	4	40.4	4	-1E+10	1	-1E+10	1	-1E+10	1	-1E+10	1	-1E+10	1	-1E+10	1
4902551	78	C	10/09/2022	14:17	-131.615	48.520	0	234.70	0	5.3630	0	33.7610	0	26.653	0	232.587	0	123.5	4	40.2	4	-1E+10	1	-1E+10	1	-1E+10	1	-1E+10	1	-1E+10	1	-1E+10	1
4902551	78	C	10/09/2022	14:17	-131.615	48.520	0	235.70	0	5.3650	0	33.7630	0	26.655	0	233.578	0	122.7	4	39.9	4	-1E+10	1	-1E+10	1	-1E+10	1	-1E+10	1	-1E+10	1	-1E+10	1
4902551	78	C	10/09/2022	14:17	-131.615	48.520	0	236.60	0	5.3570	0	33.7650	0	26.657	0	234.469	0	122.0	4	39.7	4	-1E+10	1	-1E+10	1	-1E+10	1	-1E+10	1	-1E+10	1	-1E+10	1
4902551	78	C	10/09/2022	14:17	-131.615	48.520	0	237.60	0	5.3290	0	33.7710	0	26.665	0	235.459	0	121.5	4	39.5	4	-1E+10	1	-1E+10	1	-1E+10	1	-1E+10	1	-1E+10	1	-1E+10	1
4902551	78	C	10/09/2022	14:17	-131.615	48.520	0	238.60	0	5.3240	0	33.7690	0	26.664	0	236.450	0	121.0	4	39.3	4	-1E+10	1	-1E+10	1	-1E+10	1	-1E+10	1	-1E+10	1	-1E+10	1
4902551	78	C	10/09/2022	14:17	-131.615	48.520	0	239.60	0	5.3110	0	33.7680	0	26.665	0	237.440	0	120.3	4	39.1	4	-1E+10	1	-1E+10	1	-1E+10	1	-1E+10	1	-1E+10	1	-1E+10	1
4902551	78	C	10/09/2022	14:17	-131.615	48.520	0	240.50	0	5.2920	0	33.7680	0	26.667	0	238.332	0	119.6	4	38.8	4	-1E+10	1	-1E+10	1	-1E+10	1	-1E+10	1	-1E+10	1	-1E+10	1
4902551	78	C	10/09/2022	14:17	-131.615	48.520	0	241.90	0	5.2740	0	33.7680	0	26.669	0	239.718	0	118.6	4	38.5	4	-1E+10	1	-1E+10	1	-1E+10	1	-1E+10	1	-1E+10	1	-1E+10	1
4902551	78	C	10/09/2022	14:17	-131.615	48.520	0	243.40	0	5.2620	0	33.7740	0	26.675	0	241.204	0	117.8	4	38.2	4	-1E+10	1	-1E+10	1	-1E+10	1	-1E+10	1	-1E+10	1	-1E+10	1
4902551	78	C	10/09/2022	14:17	-131.615	48.520	0	244.40	0	5.2360	0	33.7750	0	26.679	0	242.194	0	117.3	4	38.0	4	-1E+10	1	-1E+10	1	-1E+10	1	-1E+10	1	-1E+10	1	-1E+10	1
4902551	78	C	10/09/2022	14:17	-131.615	48.520	0	245.40	0	5.2270	0	33.7760	0	26.681	0	243.185	0	116.8	4	37.9	4	-1E+10	1	-1E+10	1	-1E+10	1	-1E+10	1	-1E+10	1	-1E+10	1
4902551	78	C	10/09/2022	14:17	-131.615	48.520	0	246.30	0	5.2190	0	33.7790	0	26.684	0	244.076	0	116.3	4	37.7	4	-1E+10	1	-1E+10	1	-1E+10	1	-1E+10	1	-1E+10	1	-1E+10	1
4902551	78	C	10/09/2022	14:17	-131.615	48.520	0	247.30	0	5.2210	0	33.7790	0	26.684	0	245.066	0	115.9	4	37.6	4	-1E+10	1	-1E+10	1	-1E+10	1	-1E+10	1	-1E+10	1	-1E+10	1
4902551	78	C	10/09/2022	14:17	-131.615	48.520	0	248.30	0	5.2170	0	33.7800	0	26.686	0	246.057	0	115.4	4	37.4	4	-1E+10	1	-1E+10	1	-1E+10	1	-1E+10	1	-1E+10	1	-1E+10	1
4902551	78	C	10/09/2022	14:17	-131.615	48.520	0	249.30	0	5.2150	0	33.7800	0	26.686	0	247.047	0	115.0	4	37.3	4	-1E+10	1	-1E+10	1	-1E+10	1	-1E+10	1	-1E+10	1	-1E+10	1
4902551	78	C	10/09/2022	14:17	-131.615	48.520	0	250.30	0	5.2120	0	33.7820	0	26.688	0	248.037	0	114.5	4	37.1	4	-1E+10	1	-1E+10	1	-1E+10	1	-1E+10	1	-1E+10	1	-1E+10	1
4902551	78	C	10/09/2022	14:17	-131.615	48.520	0	251.20	0	5.1900	0	33.7820	0	26.690	0	248.929	0	114.1	4	37.0	4	-1E+10	1	-1E+10	1	-1E+10	1	-1E+10	1	-1E+10	1	-1E+10	1
4902551	78	C	10/09/2022	14:17	-131.615	48.520	0	252.20	0	5.1830	0	33.7800	0	26.689	0	249.919	0	113.7	4	36.8	4	-1E+10	1	-1E+10	1	-1E+10	1	-1E+10	1	-1E+10	1	-1E+10	1
4902551	78	C	10/09/2022	14:17	-131.615	48.520	0	253.20	0	5.1630	0	33.7810	0	26.693	0	250.909	0	113.3	4	36.7	4	-1E+10	1	-1E+10	1	-1E+10	1	-1E+10	1	-1E+10	1	-1E+10	1
4902551	78	C	10/09/2022	14:17	-131.615	48.520	0	254.20	0	5.1390	0	33.7800	0	26.695	0	251.900	0	112.8	4	36.5	4	-1E+10	1	-1E+10	1	-1E+10	1	-1E+10	1	-1E+10	1	-1E+10	1
4902551	78	C	10/09/2022	14:17	-131.615	48.520	0	255.20	0	5.1310	0	33.7790	0	26.695	0	252.890	0	112.3	4	36.3	4	-1E+10	1	-1E+10	1	-1E+10	1	-1E+10	1	-1E+10	1	-1E+10	1
4902551	78	C	10/09/2022	14:17	-131.615	48.520	0	256.20	0	5.1150	0	33.7800	0	26.697	0	253.881	0	111.8	4	36.1	4	-1E+10	1	-1E+10	1	-1E+10	1	-1E+10	1	-1E+10	1	-1E+10	1
4902551	78	C	10/09/2022	14:17	-131.615	48.520	0	257.10	0	5.1120	0	33.7780	0	26.696	0	254.772	0	111.2	4	35.9	4	-1E+10	1	-1E+10	1	-1E+10	1	-1E+10	1	-1E+10	1	-1E+10	1
4902551	78	C	10/09/2022	14:17	-131.615	48.520	0	258.10	0	5.0830	0	33.7790	0	26.700	0	255.762	0	110.6	4	35.7	4	-1E+10	1	-1E+10	1	-1E+10	1	-1E+10	1	-1E+10	1	-1E+10	1
4902551	78	C	10/09/2022	14:17	-131.615	48.520	0	259.00	0	5.0760	0	33.7810	0	26.703	0	256.653	0	110.0	4	35.5	4	-1E+10	1	-1E+10	1	-1E+10	1	-1E+10	1	-1E+10	1	-1E+10	1
4902551	78	C	10/09/2022	14:17	-131.615	48.520	0	259.90	0	5.0700	0	33.7820	0	26.704	0	257.545	0	109.4	4	35.3	4	-1E+10	1	-1E+10	1	-1E+10	1	-1E+10	1	-1E+10	1	-1E+10	1
4902551	78	C	10/09/2022	14:17	-131.615	48.520	0	260.90	0	5.0630	0	33.7880	0	26.710	0	258.535	0	108.8	4	35.1	4	-1E+10	1	-1E+10	1	-1E+10	1	-1E+10	1	-1E+10	1	-1E+10	1
4902551	78	C	10/09/2022	14:17	-131.615	48.520	0	261.90	0	5.0570	0	33.7890	0	26.711	0	259.525	0	108.3	4	35.0	4	-1E+10	1	-1E+10	1	-1E+10	1	-1E+10	1	-1E+10	1	-1E+10	1
4902551	78	C	10/09/2022	14:17	-131.615	48.520	0	263.00	0	5.0420	0	33.7920	0	26.715	0	260.615	0	107.9	4	34.8	4	-1E+10	1	-1E+10	1	-1E+10	1	-1E+10	1	-1E+10	1	-1E+10	1
4902551	78	C	10/09/2022	14:17	-131.615	48.520	0	264.00	0	5.0390	0	33.7920	0	26.716	0	261.605	0	107.5	4	34.7	4	-1E+10	1	-1E+10	1	-1E+10	1	-1E+10	1	-1E+10	1	-1E+10	1
4902551	78	C	10/09/2022	14:17	-131.615	48.520	0	265.00	0	5.0390	0	33.7920	0	26.716	0	262.595	0	107.1	4	34.6	4	-1E+10	1	-1E+10	1	-1E+10	1	-1E+10	1	-1E+10	1	-1E+10	1
4902551	78	C	10/09/2022	14:17	-131.615	48.520	0	265.70	0	5.0400	0	33.7910	0	26.715	0	263.288	0	106.7	4	34.4	4	-1E+10	1	-1E+10	1	-1E+10	1	-1E+10	1	-1E+10	1	-1E+10	1
4902551	78	C	10/09/2022	14:17	-131.615	48.520	0	266.80	0	5.0410	0	33.7920	0	26.715	0	264.378	0	106.0	4	34.2	4	-1E+10	1	-1E+10	1	-1E+10	1	-1E+10	1	-1E+10	1	-1E+10	1
4902551	78	C	10/09/2022	14:17	-131.615	48.520	0	267.90	0	5.0390	0	33.7940	0	26.717	0	265.467	0	105.2	4	34.0	4	-1E+10	1	-1E+10	1	-1E+10	1	-1E+10	1	-1E+10	1	-1E+10	1
4902551	78	C	10/09/2022	14:17	-131.615	48.520	0	269.00	0	5.0360	0	33.7960	0	26.719	0	266.556	0	104.6	4	33.8	4	-1E+10	1	-1E+10	1	-1E+10	1	-1E+10	1	-1E+10	1	-1E+10	1
4902551	78	C	10/09/2022	14:17	-131.615	48.520	0	270.20	0	5.0250	0	33.7990	0	26.723	0	267.745	0	104.0	4	33.6	4	-1E+10	1	-1E+10	1	-1E+10	1	-1E+10	1	-1E+10	1	-1E+10	1
4902551	78	C	10/09/2022	14:17	-131.615	48.520	0	271.00	0	5.0140	0	33.7970	0	26.722	0	268.537	0	103.6	4	33.4	4	-1E+10	1	-1E+10	1	-1E+10	1	-1E+10	1	-1E+10	1	-1E+10	1
4902551	78	C	10/09/2022	14:17	-131.615	48.520	0	271.70	0	5.0060	0	33.7990	0	26.725	0	269.230	0	103.3	4	33.3	4	-1E+10	1	-1E+10	1	-1E+10	1	-1E+10	1	-1E+10	1	-1E+10	1
4902551	78	C	10/09/2022	14:17	-131.615	48.520	0	272.90	0	4.9950	0	33.8000	0	26.727	0	270.418	0	102.8	4	33.1	4	-1E+10	1	-1E+10	1	-1E+10	1	-1E+10	1	-1E+10	1	-1E+10	1
4902551	78	C	10/09/2022	14:17	-131.615	48.520	0	274.10	0	4.9840	0	33.8010	0	26.729	0	271.607	0	102.3	4	33.0	4	-1E+10	1	-1E+10	1	-1E+10	1	-1E+10	1	-1E+10	1	-1E+10	1
4902551	78	C	10/09/2022	14:17	-131.615	48.520	0	274.90	0	4.9730	0	33.8010	0	26.730	0	272.399	0	102.0	4	32.9	4	-1E+10	1	-1E+10	1	-1E+10	1	-1E+10	1	-1E+10	1	-1E+10	1
4902551	78	C	10/09/2022	14:17	-131.615	48.520	0	275.80	0	4.9700	0	33.8010	0	26.731	0	273.290	0	101.6	4	32.7	4	-1E+10	1	-1E+10	1	-1E+10	1	-1E+10	1	-1E+10	1	-1E+10	1
4902551	78	C	10/09/2022	14:17	-131.615	48.520	0	277.00	0	4.9650	0	33.8020	0	26.732	0	274.478	0	101.1	4	32.6	4	-1E+10	1	-1E+10	1	-1E+10	1	-1E+10	1	-1E+10	1	-1E+10	1
4902551	78	C	10/09/2022	14:17	-131.615	48.520	0	278.20	0	4.9630	0	33.8020	0	26.732	0	275.667	0	100.5	4	32.4	4	-1E+10	1	-1E+10	1	-1E+10	1	-1E+10	1	-1E+10	1	-1E+10	1
4902551	78	C	10/09/2022	14:17	-131.615	48.520	0	279.00	0	4.9610	0	33.8030	0	26.733	0	276.459	0	100.1	4	32.2	4	-1E+10	1	-1E+10	1	-1E+10	1	-1E+10	1	-1E+10	1	-1E+10	1
4902551	78	C	10/09/2022	14:17	-131.615	48.520	0	279.90	0	4.9570	0	33.8060	0	26.736	0	277.350	0	99.7	4	32.1	4	-1E+10	1	-1E+10	1	-1E+10	1	-1E+10	1	-1E+10	1	-1E+10	1
4902551	78	C	10/09/2022	14:17	-131.615	48.520	0	280.70	0	4.9460	0	33.8060	0	26.737	0	278.142	0	99.4	4	32.0	4	-1E+10	1	-1E+10	1	-1E+10	1	-1E+10	1	-1E+10	1	-1E+10	1
4902551	78	C	10/09/2022	14:17	-131.615	48.520	0	281.50	0	4.9440	0	33.8070	0	26.738	0	278.934	0	99.0	4	31.9	4	-1E+10	1	-1E+10	1	-1E+10	1	-1E+10	1	-1E+10	1	-1E+10	1
4902551	78	C	10/09/2022	14:17	-131.615	48.520	0	282.90	0	4.9430	0	33.8080	0	26.739	0	280.321	0	98.4	4	31.7	4	-1E+10	1	-1E+10	1	-1E+10	1	-1E+10	1	-1E+10	1	-1E+10	1
4902551	78	C	10/09/2022	14:17	-131.615	48.520	0	284.20	0	4.9410	0	33.8100	0	26.741	0	281.608	0	97.9	4	31.5	4	-1E+10	1	-1E+10	1	-1E+10	1	-1E+10	1	-1E+10	1	-1E+10	1
4902551	78	C	10/09/2022	14:17	-131.615	48.520	0	285.10	0	4.9390	0	33.8110	0	26.742	0	282.499	0	97.5	4	31.4	4	-1E+10	1	-1E+10	1	-1E+10	1	-1E+10	1	-1E+10	1	-1E+10	1
4902551	78	C	10/09/2022	14:17	-131.615	48.520	0	285.90	0	4.9380	0	33.8110	0	26.742	0	283.291	0	97.2	4	31.3	4	-1E+10	1	-1E+10	1	-1E+10	1	-1E+10	1	-1E+10	1	-1E+10	1
4902551	78	C	10/09/2022	14:17	-131.615	48.520	0	286.70	0	4.9340	0	33.8120	0	26.743	0	284.083	0	96.8	4	31.2	4	-1E+10	1	-1E+10	1	-1E+10	1	-1E+10	1	-1E+10	1	-1E+10	1
4902551	78	C	10/09/2022	14:17	-131.615	48.520	0	288.00	0	4.9300	0	33.8120	0	26.744	0	285.371	0	96.2	4	31.0	4	-1E+10	1	-1E+10	1	-1E+10	1	-1E+10	1	-1E+10	1	-1E+10	1
4902551	78	C	10/09/2022	14:17	-131.615	48.520	0	289.30	0	4.9280	0	33.8130	0	26.745	0	286.658	0	95.6	4	30.8	4	-1E+10	1	-1E+10	1	-1E+10	1	-1E+10	1	-1E+10	1	-1E+10	1
4902551	78	C	10/09/2022	14:17	-131.615	48.520	0	290.10	0	4.9180	0	33.8160	0	26.748	0	287.450	0	95.2	4	30.6	4	-1E+10	1	-1E+10	1	-1E+10	1	-1E+10	1	-1E+10	1	-1E+10	1
4902551	78	C	10/09/2022	14:17	-131.615	48.520	0	291.00	0	4.9080	0	33.8150	0	26.749	0	288.341	0	94.8	4	30.5	4	-1E+10	1	-1E+10	1	-1E+10	1	-1E+10	1	-1E+10	1	-1E+10	1
4902551	78	C	10/09/2022	14:17	-131.615	48.520	0	291.90	0	4.9040	0	33.8150	0	26.749	0	289.232	0	94.3	4	30.3	4	-1E+10	1	-1E+10	1	-1E+10	1	-1E+10	1	-1E+10	1	-1E+10	1
4902551	78	C	10/09/2022	14:17	-131.615	48.520	0	292.70	0	4.8960	0	33.8160	0	26.751	0	290.025	0	93.8	4	30.2	4	-1E+10	1	-1E+10	1	-1E+10	1	-1E+10	1	-1E+10	1	-1E+10	1
4902551	78	C	10/09/2022	14:17	-131.615	48.520	0	293.60	0	4.8960	0	33.8160	0	26.751	0	290.916	0	93.3	4	30.0	4	-1E+10	1	-1E+10	1	-1E+10	1	-1E+10	1	-1E+10	1	-1E+10	1
4902551	78	C	10/09/2022	14:17	-131.615	48.520	0	294.90	0	4.8800	0	33.8190	0	26.755	0	292.203	0	92.7	4	29.8	4	-1E+10	1	-1E+10	1	-1E+10	1	-1E+10	1	-1E+10	1	-1E+10	1
4902551	78	C	10/09/2022	14:17	-131.615	48.520	0	296.30	0	4.8640	0	33.8220	0	26.759	0	293.589	0	92.1	4	29.6	4	-1E+10	1	-1E+10	1	-1E+10	1	-1E+10	1	-1E+10	1	-1E+10	1
4902551	78	C	10/09/2022	14:17	-131.615	48.520	0	297.10	0	4.8620	0	33.8220	0	26.760	0	294.381	0	91.7	4	29.5	4	-1E+10	1	-1E+10	1	-1E+10	1	-1E+10	1	-1E+10	1	-1E+10	1
4902551	78	C	10/09/2022	14:17	-131.615	48.520	0	298.00	0	4.8600	0	33.8220	0	26.760	0	295.272	0	91.2	4	29.3	4	-1E+10	1	-1E+10	1	-1E+10	1	-1E+10	1	-1E+10	1	-1E+10	1
4902551	78	C	10/09/2022	14:17	-131.615	48.520	0	298.90	0	4.8570	0	33.8230	0	26.761	0	296.163	0	90.8	4	29.2	4	-1E+10	1	-1E+10	1	-1E+10	1	-1E+10	1	-1E+10	1	-1E+10	1
4902551	78	C	10/09/2022	14:17	-131.615	48.520	0	299.80	0	4.8530	0	33.8230	0	26.761	0	297.054	0	90.4	4	29.0	4	-1E+10	1	-1E+10	1	-1E+10	1	-1E+10	1	-1E+10	1	-1E+10	1
4902551	78	C	10/09/2022	14:17	-131.615	48.520	0	300.70	0	4.8520	0	33.8240	0	26.762	0	297.946	0	89.8	4	28.9	4	-1E+10	1	-1E+10	1	-1E+10	1	-1E+10	1	-1E+10	1	-1E+10	1
4902551	78	C	10/09/2022	14:17	-131.615	48.520	0	301.90	0	4.8460	0	33.8250	0	26.764	0	299.134	0	89.1	4	28.6	4	-1E+10	1	-1E+10	1	-1E+10	1	-1E+10	1	-1E+10	1	-1E+10	1
4902551	78	C	10/09/2022	14:17	-131.615	48.520	0	303.30	0	4.8340	0	33.8290	0	26.768	0	300.520	0	88.4	4	28.4	4	-1E+10	1	-1E+10	1	-1E+10	1	-1E+10	1	-1E+10	1	-1E+10	1
4902551	78	C	10/09/2022	14:17	-131.615	48.520	0	304.20	0	4.8260	0	33.8300	0	26.770	0	301.411	0	88.0	4	28.3	4	-1E+10	1	-1E+10	1	-1E+10	1	-1E+10	1	-1E+10	1	-1E+10	1
4902551	78	C	10/09/2022	14:17	-131.615	48.520	0	305.00	0	4.8250	0	33.8300	0	26.770	0	302.203	0	87.6	4	28.1	4	-1E+10	1	-1E+10	1	-1E+10	1	-1E+10	1	-1E+10	1	-1E+10	1
4902551	78	C	10/09/2022	14:17	-131.615	48.520	0	305.90	0	4.8230	0	33.8300	0	26.770	0	303.094	0	87.0	4	28.0	4	-1E+10	1	-1E+10	1	-1E+10	1	-1E+10	1	-1E+10	1	-1E+10	1
4902551	78	C	10/09/2022	14:17	-131.615	48.520	0	306.80	0	4.8160	0	33.8320	0	26.773	0	303.985	0	86.6	4	27.8	4	-1E+10	1	-1E+10	1	-1E+10	1	-1E+10	1	-1E+10	1	-1E+10	1
4902551	78	C	10/09/2022	14:17	-131.615	48.520	0	307.70	0	4.8050	0	33.8360	0	26.777	0	304.876	0	86.2	4	27.7	4	-1E+10	1	-1E+10	1	-1E+10	1	-1E+10	1	-1E+10	1	-1E+10	1
4902551	78	C	10/09/2022	14:17	-131.615	48.520	0	308.60	0	4.8020	0	33.8370	0	26.778	0	305.767	0	85.8	4	27.5	4	-1E+10	1	-1E+10	1	-1E+10	1	-1E+10	1	-1E+10	1	-1E+10	1
4902551	78	C	10/09/2022	14:17	-131.615	48.520	0	309.90	0	4.7950	0	33.8380	0	26.780	0	307.055	0	85.2	4	27.3	4	-1E+10	1	-1E+10	1	-1E+10	1	-1E+10	1	-1E+10	1	-1E+10	1
4902551	78	C	10/09/2022	14:17	-131.615	48.520	0	311.30	0	4.7900	0	33.8390	0	26.781	0	308.441	0	84.6	4	27.1	4	-1E+10	1	-1E+10	1	-1E+10	1	-1E+10	1	-1E+10	1	-1E+10	1
4902551	78	C	10/09/2022	14:17	-131.615	48.520	0	312.20	0	4.7890	0	33.8390	0	26.781	0	309.332	0	84.2	4	27.0	4	-1E+10	1	-1E+10	1	-1E+10	1	-1E+10	1	-1E+10	1	-1E+10	1
4902551	78	C	10/09/2022	14:17	-131.615	48.520	0	313.10	0	4.7750	0	33.8440	0	26.787	0	310.223	0	83.9	4	26.9	4	-1E+10	1	-1E+10	1	-1E+10	1	-1E+10	1	-1E+10	1	-1E+10	1
4902551	78	C	10/09/2022	14:17	-131.615	48.520	0	314.00	0	4.7690	0	33.8440	0	26.787	0	311.114	0	83.6	4	26.8	4	-1E+10	1	-1E+10	1	-1E+10	1	-1E+10	1	-1E+10	1	-1E+10	1
4902551	78	C	10/09/2022	14:17	-131.615	48.520	0	314.90	0	4.7660	0	33.8450	0	26.789	0	312.005	0	83.3	4	26.7	4	-1E+10	1	-1E+10	1	-1E+10	1	-1E+10	1	-1E+10	1	-1E+10	1
4902551	78	C	10/09/2022	14:17	-131.615	48.520	0	315.80	0	4.7640	0	33.8450	0	26.789	0	312.896	0	83.1	4	26.6	4	-1E+10	1	-1E+10	1	-1E+10	1	-1E+10	1	-1E+10	1	-1E+10	1
4902551	78	C	10/09/2022	14:17	-131.615	48.520	0	316.70	0	4.7630	0	33.8450	0	26.789	0	313.787	0	82.7	4	26.5	4	-1E+10	1	-1E+10	1	-1E+10	1	-1E+10	1	-1E+10	1	-1E+10	1
4902551	78	C	10/09/2022	14:17	-131.615	48.520	0	317.60	0	4.7570	0	33.8460	0	26.790	0	314.678	0	82.4	4	26.4	4	-1E+10	1	-1E+10	1	-1E+10	1	-1E+10	1	-1E+10	1	-1E+10	1
4902551	78	C	10/09/2022	14:17	-131.615	48.520	0	318.90	0	4.7540	0	33.8470	0	26.792	0	315.965	0	81.8	4	26.2	4	-1E+10	1	-1E+10	1	-1E+10	1	-1E+10	1	-1E+10	1	-1E+10	1
4902551	78	C	10/09/2022	14:17	-131.615	48.520	0	320.30	0	4.7470	0	33.8480	0	26.793	0	317.351	0	81.2	4	26.0	4	-1E+10	1	-1E+10	1	-1E+10	1	-1E+10	1	-1E+10	1	-1E+10	1
4902551	78	C	10/09/2022	14:17	-131.615	48.520	0	321.20	0	4.7460	0	33.8480	0	26.793	0	318.242	0	80.8	4	25.9	4	-1E+10	1	-1E+10	1	-1E+10	1	-1E+10	1	-1E+10	1	-1E+10	1
4902551	78	C	10/09/2022	14:17	-131.615	48.520	0	322.10	0	4.7390	0	33.8490	0	26.795	0	319.133	0	80.5	4	25.8	4	-1E+10	1	-1E+10	1	-1E+10	1	-1E+10	1	-1E+10	1	-1E+10	1
4902551	78	C	10/09/2022	14:17	-131.615	48.520	0	323.00	0	4.7310	0	33.8540	0	26.800	0	320.024	0	80.2	4	25.7	4	-1E+10	1	-1E+10	1	-1E+10	1	-1E+10	1	-1E+10	1	-1E+10	1
4902551	78	C	10/09/2022	14:17	-131.615	48.520	0	323.90	0	4.7300	0	33.8540	0	26.800	0	320.915	0	79.9	4	25.6	4	-1E+10	1	-1E+10	1	-1E+10	1	-1E+10	1	-1E+10	1	-1E+10	1
4902551	78	C	10/09/2022	14:17	-131.615	48.520	0	324.90	0	4.7290	0	33.8540	0	26.800	0	321.905	0	79.5	4	25.5	4	-1E+10	1	-1E+10	1	-1E+10	1	-1E+10	1	-1E+10	1	-1E+10	1
4902551	78	C	10/09/2022	14:17	-131.615	48.520	0	325.80	0	4.7280	0	33.8540	0	26.800	0	322.796	0	79.1	4	25.4	4	-1E+10	1	-1E+10	1	-1E+10	1	-1E+10	1	-1E+10	1	-1E+10	1
4902551	78	C	10/09/2022	14:17	-131.615	48.520	0	326.70	0	4.7260	0	33.8550	0	26.801	0	323.687	0	78.8	4	25.2	4	-1E+10	1	-1E+10	1	-1E+10	1	-1E+10	1	-1E+10	1	-1E+10	1
4902551	78	C	10/09/2022	14:17	-131.615	48.520	0	327.60	0	4.7220	0	33.8570	0	26.803	0	324.578	0	78.4	4	25.1	4	-1E+10	1	-1E+10	1	-1E+10	1	-1E+10	1	-1E+10	1	-1E+10	1
4902551	78	C	10/09/2022	14:17	-131.615	48.520	0	328.90	0	4.7130	0	33.8590	0	26.806	0	325.865	0	77.9	4	24.9	4	-1E+10	1	-1E+10	1	-1E+10	1	-1E+10	1	-1E+10	1	-1E+10	1
4902551	78	C	10/09/2022	14:17	-131.615	48.520	0	330.30	0	4.7050	0	33.8610	0	26.808	0	327.251	0	77.4	4	24.8	4	-1E+10	1	-1E+10	1	-1E+10	1	-1E+10	1	-1E+10	1	-1E+10	1
4902551	78	C	10/09/2022	14:17	-131.615	48.520	0	331.20	0	4.6960	0	33.8690	0	26.815	0	328.142	0	77.0	4	24.7	4	-1E+10	1	-1E+10	1	-1E+10	1	-1E+10	1	-1E+10	1	-1E+10	1
4902551	78	C	10/09/2022	14:17	-131.615	48.520	0	332.10	0	4.6850	0	33.8620	0	26.811	0	329.033	0	76.8	4	24.6	4	-1E+10	1	-1E+10	1	-1E+10	1	-1E+10	1	-1E+10	1	-1E+10	1
4902551	78	C	10/09/2022	14:17	-131.615	48.520	0	333.00	0	4.6780	0	33.8630	0	26.813	0	329.924	0	76.5	4	24.5	4	-1E+10	1	-1E+10	1	-1E+10	1	-1E+10	1	-1E+10	1	-1E+10	1
4902551	78	C	10/09/2022	14:17	-131.615	48.520	0	333.90	0	4.6720	0	33.8620	0	26.813	0	330.815	0	76.2	4	24.4	4	-1E+10	1	-1E+10	1	-1E+10	1	-1E+10	1	-1E+10	1	-1E+10	1
4902551	78	C	10/09/2022	14:17	-131.615	48.520	0	334.80	0	4.6670	0	33.8640	0	26.815	0	331.706	0	75.8	4	24.3	4	-1E+10	1	-1E+10	1	-1E+10	1	-1E+10	1	-1E+10	1	-1E+10	1
4902551	78	C	10/09/2022	14:17	-131.615	48.520	0	335.60	0	4.6590	0	33.8650	0	26.816	0	332.498	0	75.5	4	24.2	4	-1E+10	1	-1E+10	1	-1E+10	1	-1E+10	1	-1E+10	1	-1E+10	1
4902551	78	C	10/09/2022	14:17	-131.615	48.520	0	336.90	0	4.6590	0	33.8680	0	26.819	0	333.785	0	75.1	4	24.0	4	-1E+10	1	-1E+10	1	-1E+10	1	-1E+10	1	-1E+10	1	-1E+10	1
4902551	78	C	10/09/2022	14:17	-131.615	48.520	0	338.30	0	4.6520	0	33.8700	0	26.821	0	335.171	0	74.7	4	23.9	4	-1E+10	1	-1E+10	1	-1E+10	1	-1E+10	1	-1E+10	1	-1E+10	1
4902551	78	C	10/09/2022	14:17	-131.615	48.520	0	339.20	0	4.6500	0	33.8710	0	26.822	0	336.062	0	74.5	4	23.8	4	-1E+10	1	-1E+10	1	-1E+10	1	-1E+10	1	-1E+10	1	-1E+10	1
4902551	78	C	10/09/2022	14:17	-131.615	48.520	0	340.10	0	4.6490	0	33.8710	0	26.822	0	336.953	0	74.2	4	23.8	4	-1E+10	1	-1E+10	1	-1E+10	1	-1E+10	1	-1E+10	1	-1E+10	1
4902551	78	C	10/09/2022	14:17	-131.615	48.520	0	341.00	0	4.6480	0	33.8710	0	26.822	0	337.844	0	74.0	4	23.7	4	-1E+10	1	-1E+10	1	-1E+10	1	-1E+10	1	-1E+10	1	-1E+10	1
4902551	78	C	10/09/2022	14:17	-131.615	48.520	0	341.80	0	4.6480	0	33.8710	0	26.822	0	338.636	0	73.6	4	23.6	4	-1E+10	1	-1E+10	1	-1E+10	1	-1E+10	1	-1E+10	1	-1E+10	1
4902551	78	C	10/09/2022	14:17	-131.615	48.520	0	342.70	0	4.6470	0	33.8710	0	26.823	0	339.527	0	73.3	4	23.5	4	-1E+10	1	-1E+10	1	-1E+10	1	-1E+10	1	-1E+10	1	-1E+10	1
4902551	78	C	10/09/2022	14:17	-131.615	48.520	0	343.60	0	4.6420	0	33.8720	0	26.824	0	340.417	0	72.9	4	23.3	4	-1E+10	1	-1E+10	1	-1E+10	1	-1E+10	1	-1E+10	1	-1E+10	1
4902551	78	C	10/09/2022	14:17	-131.615	48.520	0	344.90	0	4.6370	0	33.8750	0	26.827	0	341.704	0	72.4	4	23.2	4	-1E+10	1	-1E+10	1	-1E+10	1	-1E+10	1	-1E+10	1	-1E+10	1
4902551	78	C	10/09/2022	14:17	-131.615	48.520	0	346.20	0	4.6320	0	33.8780	0	26.830	0	342.991	0	72.0	4	23.0	4	-1E+10	1	-1E+10	1	-1E+10	1	-1E+10	1	-1E+10	1	-1E+10	1
4902551	78	C	10/09/2022	14:17	-131.615	48.520	0	347.00	0	4.6310	0	33.8790	0	26.831	0	343.783	0	71.7	4	22.9	4	-1E+10	1	-1E+10	1	-1E+10	1	-1E+10	1	-1E+10	1	-1E+10	1
4902551	78	C	10/09/2022	14:17	-131.615	48.520	0	347.90	0	4.6300	0	33.8790	0	26.831	0	344.674	0	71.5	4	22.9	4	-1E+10	1	-1E+10	1	-1E+10	1	-1E+10	1	-1E+10	1	-1E+10	1
4902551	78	C	10/09/2022	14:17	-131.615	48.520	0	348.80	0	4.6230	0	33.8820	0	26.834	0	345.565	0	71.2	4	22.8	4	-1E+10	1	-1E+10	1	-1E+10	1	-1E+10	1	-1E+10	1	-1E+10	1
4902551	78	C	10/09/2022	14:17	-131.615	48.520	0	349.60	0	4.6200	0	33.8830	0	26.835	0	346.357	0	71.0	4	22.7	4	-1E+10	1	-1E+10	1	-1E+10	1	-1E+10	1	-1E+10	1	-1E+10	1
4902551	78	C	10/09/2022	14:17	-131.615	48.520	0	352.60	0	4.6090	0	33.8860	0	26.839	0	349.326	0	70.3	4	22.5	4	-1E+10	1	-1E+10	1	-1E+10	1	-1E+10	1	-1E+10	1	-1E+10	1
4902551	78	C	10/09/2022	14:17	-131.615	48.520	0	358.00	0	4.5980	0	33.8900	0	26.843	0	354.672	0	68.8	4	22.0	4	-1E+10	1	-1E+10	1	-1E+10	1	-1E+10	1	-1E+10	1	-1E+10	1
4902551	78	C	10/09/2022	14:17	-131.615	48.520	0	363.20	0	4.5840	0	33.8950	0	26.849	0	359.819	0	67.3	4	21.5	4	-1E+10	1	-1E+10	1	-1E+10	1	-1E+10	1	-1E+10	1	-1E+10	1
4902551	78	C	10/09/2022	14:17	-131.615	48.520	0	368.10	0	4.5730	0	33.9010	0	26.855	0	364.669	0	65.7	4	21.0	4	-1E+10	1	-1E+10	1	-1E+10	1	-1E+10	1	-1E+10	1	-1E+10	1
4902551	78	C	10/09/2022	14:17	-131.615	48.520	0	373.10	0	4.5590	0	33.9070	0	26.861	0	369.618	0	64.2	4	20.5	4	-1E+10	1	-1E+10	1	-1E+10	1	-1E+10	1	-1E+10	1	-1E+10	1
4902551	78	C	10/09/2022	14:17	-131.615	48.520	0	378.00	0	4.5440	0	33.9120	0	26.867	0	374.468	0	62.7	4	20.0	4	-1E+10	1	-1E+10	1	-1E+10	1	-1E+10	1	-1E+10	1	-1E+10	1
4902551	78	C	10/09/2022	14:17	-131.615	48.520	0	382.90	0	4.5310	0	33.9180	0	26.873	0	379.317	0	60.9	4	19.4	4	-1E+10	1	-1E+10	1	-1E+10	1	-1E+10	1	-1E+10	1	-1E+10	1
4902551	78	C	10/09/2022	14:17	-131.615	48.520	0	387.80	0	4.5050	0	33.9290	0	26.884	0	384.167	0	59.4	4	18.9	4	-1E+10	1	-1E+10	1	-1E+10	1	-1E+10	1	-1E+10	1	-1E+10	1
4902551	78	C	10/09/2022	14:17	-131.615	48.520	0	392.90	0	4.4940	0	33.9330	0	26.889	0	389.215	0	58.4	4	18.6	4	-1E+10	1	-1E+10	1	-1E+10	1	-1E+10	1	-1E+10	1	-1E+10	1
4902551	78	C	10/09/2022	14:17	-131.615	48.520	0	398.10	0	4.4830	0	33.9370	0	26.893	0	394.361	0	57.0	4	18.2	4	-1E+10	1	-1E+10	1	-1E+10	1	-1E+10	1	-1E+10	1	-1E+10	1
4902551	78	C	10/09/2022	14:17	-131.615	48.520	0	402.90	0	4.4630	0	33.9420	0	26.899	0	399.111	0	55.4	4	17.7	4	-1E+10	1	-1E+10	1	-1E+10	1	-1E+10	1	-1E+10	1	-1E+10	1
4902551	78	C	10/09/2022	14:17	-131.615	48.520	0	407.80	0	4.4520	0	33.9540	0	26.910	0	403.960	0	54.1	4	17.2	4	-1E+10	1	-1E+10	1	-1E+10	1	-1E+10	1	-1E+10	1	-1E+10	1
4902551	78	C	10/09/2022	14:17	-131.615	48.520	0	413.10	0	4.4390	0	33.9600	0	26.916	0	409.205	0	53.2	4	17.0	4	-1E+10	1	-1E+10	1	-1E+10	1	-1E+10	1	-1E+10	1	-1E+10	1
4902551	78	C	10/09/2022	14:17	-131.615	48.520	0	418.10	0	4.4350	0	33.9620	0	26.918	0	414.153	0	52.4	4	16.7	4	-1E+10	1	-1E+10	1	-1E+10	1	-1E+10	1	-1E+10	1	-1E+10	1
4902551	78	C	10/09/2022	14:17	-131.615	48.520	0	423.00	0	4.4290	0	33.9660	0	26.922	0	419.002	0	51.4	4	16.4	4	-1E+10	1	-1E+10	1	-1E+10	1	-1E+10	1	-1E+10	1	-1E+10	1
4902551	78	C	10/09/2022	14:17	-131.615	48.520	0	427.90	0	4.4120	0	33.9720	0	26.929	0	423.850	0	50.1	4	16.0	4	-1E+10	1	-1E+10	1	-1E+10	1	-1E+10	1	-1E+10	1	-1E+10	1
4902551	78	C	10/09/2022	14:17	-131.615	48.520	0	432.70	0	4.3990	0	33.9780	0	26.935	0	428.600	0	48.8	4	15.5	4	-1E+10	1	-1E+10	1	-1E+10	1	-1E+10	1	-1E+10	1	-1E+10	1
4902551	78	C	10/09/2022	14:17	-131.615	48.520	0	438.10	0	4.3860	0	33.9860	0	26.943	0	433.943	0	47.5	4	15.1	4	-1E+10	1	-1E+10	1	-1E+10	1	-1E+10	1	-1E+10	1	-1E+10	1
4902551	78	C	10/09/2022	14:17	-131.615	48.520	0	443.10	0	4.3720	0	33.9930	0	26.950	0	438.891	0	46.7	4	14.8	4	-1E+10	1	-1E+10	1	-1E+10	1	-1E+10	1	-1E+10	1	-1E+10	1
4902551	78	C	10/09/2022	14:17	-131.615	48.520	0	447.70	0	4.3640	0	33.9950	0	26.952	0	443.442	0	45.9	4	14.6	4	-1E+10	1	-1E+10	1	-1E+10	1	-1E+10	1	-1E+10	1	-1E+10	1
4902551	78	C	10/09/2022	14:17	-131.615	48.520	0	452.70	0	4.3550	0	34.0000	0	26.957	0	448.389	0	44.9	4	14.3	4	-1E+10	1	-1E+10	1	-1E+10	1	-1E+10	1	-1E+10	1	-1E+10	1
4902551	78	C	10/09/2022	14:17	-131.615	48.520	0	457.90	0	4.3440	0	34.0040	0	26.962	0	453.534	0	43.8	4	13.9	4	-1E+10	1	-1E+10	1	-1E+10	1	-1E+10	1	-1E+10	1	-1E+10	1
4902551	78	C	10/09/2022	14:17	-131.615	48.520	0	462.70	0	4.3290	0	34.0090	0	26.967	0	458.283	0	42.5	4	13.5	4	-1E+10	1	-1E+10	1	-1E+10	1	-1E+10	1	-1E+10	1	-1E+10	1
4902551	78	C	10/09/2022	14:17	-131.615	48.520	0	467.60	0	4.3090	0	34.0170	0	26.976	0	463.131	0	41.2	4	13.1	4	-1E+10	1	-1E+10	1	-1E+10	1	-1E+10	1	-1E+10	1	-1E+10	1
4902551	78	C	10/09/2022	14:17	-131.615	48.520	0	472.50	0	4.2900	0	34.0250	0	26.984	0	467.978	0	39.8	4	12.6	4	-1E+10	1	-1E+10	1	-1E+10	1	-1E+10	1	-1E+10	1	-1E+10	1
4902551	78	C	10/09/2022	14:17	-131.615	48.520	0	477.40	0	4.2690	0	34.0320	0	26.992	0	472.826	0	38.7	4	12.3	4	-1E+10	1	-1E+10	1	-1E+10	1	-1E+10	1	-1E+10	1	-1E+10	1
4902551	78	C	10/09/2022	14:17	-131.615	48.520	0	482.80	0	4.2520	0	34.0370	0	26.998	0	478.168	0	37.6	4	11.9	4	-1E+10	1	-1E+10	1	-1E+10	1	-1E+10	1	-1E+10	1	-1E+10	1
4902551	78	C	10/09/2022	14:17	-131.615	48.520	0	487.90	0	4.2390	0	34.0420	0	27.003	0	483.213	0	36.3	4	11.5	4	-1E+10	1	-1E+10	1	-1E+10	1	-1E+10	1	-1E+10	1	-1E+10	1
4902551	78	C	10/09/2022	14:17	-131.615	48.520	0	492.70	0	4.2160	0	34.0510	0	27.013	0	487.961	0	35.3	4	11.2	4	-1E+10	1	-1E+10	1	-1E+10	1	-1E+10	1	-1E+10	1	-1E+10	1
4902551	78	C	10/09/2022	14:17	-131.615	48.520	0	497.70	0	4.2000	0	34.0570	0	27.019	0	492.907	0	34.5	4	10.9	4	-1E+10	1	-1E+10	1	-1E+10	1	-1E+10	1	-1E+10	1	-1E+10	1
4902551	78	C	10/09/2022	14:17	-131.615	48.520	0	502.90	0	4.1880	0	34.0620	0	27.024	0	498.051	0	33.7	4	10.7	4	-1E+10	1	-1E+10	1	-1E+10	1	-1E+10	1	-1E+10	1	-1E+10	1
4902551	78	C	10/09/2022	14:17	-131.615	48.520	0	507.80	0	4.1780	0	34.0660	0	27.029	0	502.898	0	33.0	4	10.5	4	-1E+10	1	-1E+10	1	-1E+10	1	-1E+10	1	-1E+10	1	-1E+10	1
4902551	78	C	10/09/2022	14:17	-131.615	48.520	0	512.70	0	4.1640	0	34.0700	0	27.033	0	507.744	0	32.2	4	10.2	4	-1E+10	1	-1E+10	1	-1E+10	1	-1E+10	1	-1E+10	1	-1E+10	1
4902551	78	C	10/09/2022	14:17	-131.615	48.520	0	517.90	0	4.1510	0	34.0750	0	27.039	0	512.888	0	31.4	4	10.0	4	-1E+10	1	-1E+10	1	-1E+10	1	-1E+10	1	-1E+10	1	-1E+10	1
4902551	78	C	10/09/2022	14:17	-131.615	48.520	0	522.70	0	4.1360	0	34.0810	0	27.045	0	517.635	0	30.9	4	9.8	4	-1E+10	1	-1E+10	1	-1E+10	1	-1E+10	1	-1E+10	1	-1E+10	1
4902551	78	C	10/09/2022	14:17	-131.615	48.520	0	527.70	0	4.1250	0	34.0850	0	27.049	0	522.581	0	30.5	4	9.7	4	-1E+10	1	-1E+10	1	-1E+10	1	-1E+10	1	-1E+10	1	-1E+10	1
4902551	78	C	10/09/2022	14:17	-131.615	48.520	0	532.70	0	4.1190	0	34.0870	0	27.052	0	527.526	0	30.1	4	9.5	4	-1E+10	1	-1E+10	1	-1E+10	1	-1E+10	1	-1E+10	1	-1E+10	1
4902551	78	C	10/09/2022	14:17	-131.615	48.520	0	537.80	0	4.1140	0	34.0890	0	27.054	0	532.570	0	29.8	4	9.4	4	-1E+10	1	-1E+10	1	-1E+10	1	-1E+10	1	-1E+10	1	-1E+10	1
4902551	78	C	10/09/2022	14:17	-131.615	48.520	0	542.90	0	4.1070	0	34.0920	0	27.057	0	537.613	0	29.3	4	9.3	4	-1E+10	1	-1E+10	1	-1E+10	1	-1E+10	1	-1E+10	1	-1E+10	1
4902551	78	C	10/09/2022	14:17	-131.615	48.520	0	548.10	0	4.1000	0	34.0940	0	27.059	0	542.756	0	28.8	4	9.1	4	-1E+10	1	-1E+10	1	-1E+10	1	-1E+10	1	-1E+10	1	-1E+10	1
4902551	78	C	10/09/2022	14:17	-131.615	48.520	0	552.90	0	4.0900	0	34.0980	0	27.064	0	547.503	0	28.3	4	8.9	4	-1E+10	1	-1E+10	1	-1E+10	1	-1E+10	1	-1E+10	1	-1E+10	1
4902551	78	C	10/09/2022	14:17	-131.615	48.520	0	557.80	0	4.0810	0	34.1010	0	27.067	0	552.349	0	27.8	4	8.8	4	-1E+10	1	-1E+10	1	-1E+10	1	-1E+10	1	-1E+10	1	-1E+10	1
4902551	78	C	10/09/2022	14:17	-131.615	48.520	0	563.10	0	4.0750	0	34.1030	0	27.069	0	557.590	0	27.2	4	8.6	4	-1E+10	1	-1E+10	1	-1E+10	1	-1E+10	1	-1E+10	1	-1E+10	1
4902551	78	C	10/09/2022	14:17	-131.615	48.520	0	567.90	0	4.0620	0	34.1080	0	27.075	0	562.336	0	26.6	4	8.4	4	-1E+10	1	-1E+10	1	-1E+10	1	-1E+10	1	-1E+10	1	-1E+10	1
4902551	78	C	10/09/2022	14:17	-131.615	48.520	0	572.60	0	4.0500	0	34.1130	0	27.080	0	566.984	0	25.9	4	8.2	4	-1E+10	1	-1E+10	1	-1E+10	1	-1E+10	1	-1E+10	1	-1E+10	1
4902551	78	C	10/09/2022	14:17	-131.615	48.520	0	577.90	0	4.0330	0	34.1190	0	27.086	0	572.224	0	25.3	4	8.0	4	-1E+10	1	-1E+10	1	-1E+10	1	-1E+10	1	-1E+10	1	-1E+10	1
4902551	78	C	10/09/2022	14:17	-131.615	48.520	0	583.20	0	4.0210	0	34.1240	0	27.092	0	577.465	0	24.7	4	7.8	4	-1E+10	1	-1E+10	1	-1E+10	1	-1E+10	1	-1E+10	1	-1E+10	1
4902551	78	C	10/09/2022	14:17	-131.615	48.520	0	587.80	0	4.0130	0	34.1270	0	27.095	0	582.013	0	24.3	4	7.7	4	-1E+10	1	-1E+10	1	-1E+10	1	-1E+10	1	-1E+10	1	-1E+10	1
4902551	78	C	10/09/2022	14:17	-131.615	48.520	0	592.50	0	4.0060	0	34.1290	0	27.097	0	586.661	0	23.8	4	7.5	4	-1E+10	1	-1E+10	1	-1E+10	1	-1E+10	1	-1E+10	1	-1E+10	1
4902551	78	C	10/09/2022	14:17	-131.615	48.520	0	597.60	0	3.9820	0	34.1380	0	27.107	0	591.703	0	23.2	4	7.3	4	-1E+10	1	-1E+10	1	-1E+10	1	-1E+10	1	-1E+10	1	-1E+10	1
4902551	78	C	10/09/2022	14:17	-131.615	48.520	0	602.70	0	3.9740	0	34.1410	0	27.110	0	596.745	0	22.9	4	7.2	4	-1E+10	1	-1E+10	1	-1E+10	1	-1E+10	1	-1E+10	1	-1E+10	1
4902551	78	C	10/09/2022	14:17	-131.615	48.520	0	607.70	0	3.9720	0	34.1420	0	27.111	0	601.689	0	22.5	4	7.1	4	-1E+10	1	-1E+10	1	-1E+10	1	-1E+10	1	-1E+10	1	-1E+10	1
4902551	78	C	10/09/2022	14:17	-131.615	48.520	0	612.70	0	3.9580	0	34.1480	0	27.117	0	606.632	0	22.0	4	6.9	4	-1E+10	1	-1E+10	1	-1E+10	1	-1E+10	1	-1E+10	1	-1E+10	1
4902551	78	C	10/09/2022	14:17	-131.615	48.520	0	617.60	0	3.9470	0	34.1510	0	27.121	0	611.476	0	21.6	4	6.8	4	-1E+10	1	-1E+10	1	-1E+10	1	-1E+10	1	-1E+10	1	-1E+10	1
4902551	78	C	10/09/2022	14:17	-131.615	48.520	0	623.00	0	3.9360	0	34.1550	0	27.125	0	616.815	0	21.1	4	6.6	4	-1E+10	1	-1E+10	1	-1E+10	1	-1E+10	1	-1E+10	1	-1E+10	1
4902551	78	C	10/09/2022	14:17	-131.615	48.520	0	628.30	0	3.9240	0	34.1600	0	27.130	0	622.054	0	20.5	4	6.5	4	-1E+10	1	-1E+10	1	-1E+10	1	-1E+10	1	-1E+10	1	-1E+10	1
4902551	78	C	10/09/2022	14:17	-131.615	48.520	0	633.10	0	3.9040	0	34.1650	0	27.136	0	626.799	0	20.0	4	6.3	4	-1E+10	1	-1E+10	1	-1E+10	1	-1E+10	1	-1E+10	1	-1E+10	1
4902551	78	C	10/09/2022	14:17	-131.615	48.520	0	638.00	0	3.8910	0	34.1700	0	27.142	0	631.643	0	19.6	4	6.2	4	-1E+10	1	-1E+10	1	-1E+10	1	-1E+10	1	-1E+10	1	-1E+10	1
4902551	78	C	10/09/2022	14:17	-131.615	48.520	0	642.80	0	3.8800	0	34.1740	0	27.146	0	636.388	0	19.2	4	6.0	4	-1E+10	1	-1E+10	1	-1E+10	1	-1E+10	1	-1E+10	1	-1E+10	1
4902551	78	C	10/09/2022	14:17	-131.615	48.520	0	647.60	0	3.8700	0	34.1780	0	27.150	0	641.133	0	18.9	4	5.9	4	-1E+10	1	-1E+10	1	-1E+10	1	-1E+10	1	-1E+10	1	-1E+10	1
4902551	78	C	10/09/2022	14:17	-131.615	48.520	0	652.80	0	3.8590	0	34.1820	0	27.155	0	646.273	0	18.6	4	5.8	4	-1E+10	1	-1E+10	1	-1E+10	1	-1E+10	1	-1E+10	1	-1E+10	1
4902551	78	C	10/09/2022	14:17	-131.615	48.520	0	658.10	0	3.8500	0	34.1850	0	27.158	0	651.511	0	18.3	4	5.7	4	-1E+10	1	-1E+10	1	-1E+10	1	-1E+10	1	-1E+10	1	-1E+10	1
4902551	78	C	10/09/2022	14:17	-131.615	48.520	0	663.00	0	3.8390	0	34.1890	0	27.162	0	656.355	0	18.0	4	5.7	4	-1E+10	1	-1E+10	1	-1E+10	1	-1E+10	1	-1E+10	1	-1E+10	1
4902551	78	C	10/09/2022	14:17	-131.615	48.520	0	667.80	0	3.8310	0	34.1920	0	27.165	0	661.099	0	17.8	4	5.6	4	-1E+10	1	-1E+10	1	-1E+10	1	-1E+10	1	-1E+10	1	-1E+10	1
4902551	78	C	10/09/2022	14:17	-131.615	48.520	0	672.60	0	3.8210	0	34.1950	0	27.169	0	665.843	0	17.5	4	5.5	4	-1E+10	1	-1E+10	1	-1E+10	1	-1E+10	1	-1E+10	1	-1E+10	1
4902551	78	C	10/09/2022	14:17	-131.615	48.520	0	677.90	0	3.8090	0	34.2000	0	27.174	0	671.081	0	17.3	4	5.4	4	-1E+10	1	-1E+10	1	-1E+10	1	-1E+10	1	-1E+10	1	-1E+10	1
4902551	78	C	10/09/2022	14:17	-131.615	48.520	0	683.30	0	3.8010	0	34.2020	0	27.177	0	676.418	0	16.9	4	5.3	4	-1E+10	1	-1E+10	1	-1E+10	1	-1E+10	1	-1E+10	1	-1E+10	1
4902551	78	C	10/09/2022	14:17	-131.615	48.520	0	688.20	0	3.7830	0	34.2070	0	27.182	0	681.261	0	16.7	4	5.2	4	-1E+10	1	-1E+10	1	-1E+10	1	-1E+10	1	-1E+10	1	-1E+10	1
4902551	78	C	10/09/2022	14:17	-131.615	48.520	0	692.80	0	3.7690	0	34.2120	0	27.188	0	685.807	0	16.4	4	5.2	4	-1E+10	1	-1E+10	1	-1E+10	1	-1E+10	1	-1E+10	1	-1E+10	1
4902551	78	C	10/09/2022	14:17	-131.615	48.520	0	697.80	0	3.7590	0	34.2140	0	27.190	0	690.748	0	16.2	4	5.1	4	-1E+10	1	-1E+10	1	-1E+10	1	-1E+10	1	-1E+10	1	-1E+10	1
4902551	78	C	10/09/2022	14:17	-131.615	48.520	0	702.90	0	3.7550	0	34.2170	0	27.193	0	695.788	0	15.9	4	5.0	4	-1E+10	1	-1E+10	1	-1E+10	1	-1E+10	1	-1E+10	1	-1E+10	1
4902551	78	C	10/09/2022	14:17	-131.615	48.520	0	708.00	0	3.7460	0	34.2220	0	27.198	0	700.828	0	15.7	4	4.9	4	-1E+10	1	-1E+10	1	-1E+10	1	-1E+10	1	-1E+10	1	-1E+10	1
4902551	78	C	10/09/2022	14:17	-131.615	48.520	0	713.20	0	3.7300	0	34.2260	0	27.203	0	705.967	0	15.5	4	4.9	4	-1E+10	1	-1E+10	1	-1E+10	1	-1E+10	1	-1E+10	1	-1E+10	1
4902551	78	C	10/09/2022	14:17	-131.615	48.520	0	718.20	0	3.7190	0	34.2290	0	27.206	0	710.907	0	15.3	4	4.8	4	-1E+10	1	-1E+10	1	-1E+10	1	-1E+10	1	-1E+10	1	-1E+10	1
4902551	78	C	10/09/2022	14:17	-131.615	48.520	0	723.20	0	3.7030	0	34.2330	0	27.211	0	715.848	0	15.1	4	4.7	4	-1E+10	1	-1E+10	1	-1E+10	1	-1E+10	1	-1E+10	1	-1E+10	1
4902551	78	C	10/09/2022	14:17	-131.615	48.520	0	728.20	0	3.6960	0	34.2350	0	27.214	0	720.788	0	15.0	4	4.7	4	-1E+10	1	-1E+10	1	-1E+10	1	-1E+10	1	-1E+10	1	-1E+10	1
4902551	78	C	10/09/2022	14:17	-131.615	48.520	0	732.90	0	3.6930	0	34.2360	0	27.215	0	725.432	0	14.9	4	4.7	4	-1E+10	1	-1E+10	1	-1E+10	1	-1E+10	1	-1E+10	1	-1E+10	1
4902551	78	C	10/09/2022	14:17	-131.615	48.520	0	737.70	0	3.6820	0	34.2380	0	27.217	0	730.175	0	14.7	4	4.6	4	-1E+10	1	-1E+10	1	-1E+10	1	-1E+10	1	-1E+10	1	-1E+10	1
4902551	78	C	10/09/2022	14:17	-131.615	48.520	0	743.00	0	3.6770	0	34.2400	0	27.219	0	735.412	0	14.5	4	4.5	4	-1E+10	1	-1E+10	1	-1E+10	1	-1E+10	1	-1E+10	1	-1E+10	1
4902551	78	C	10/09/2022	14:17	-131.615	48.520	0	747.90	0	3.6600	0	34.2440	0	27.224	0	740.253	0	14.3	4	4.5	4	-1E+10	1	-1E+10	1	-1E+10	1	-1E+10	1	-1E+10	1	-1E+10	1
4902551	78	C	10/09/2022	14:17	-131.615	48.520	0	752.90	0	3.6430	0	34.2480	0	27.229	0	745.193	0	14.1	4	4.4	4	-1E+10	1	-1E+10	1	-1E+10	1	-1E+10	1	-1E+10	1	-1E+10	1
4902551	78	C	10/09/2022	14:17	-131.615	48.520	0	757.90	0	3.6360	0	34.2510	0	27.232	0	750.133	0	13.9	4	4.3	4	-1E+10	1	-1E+10	1	-1E+10	1	-1E+10	1	-1E+10	1	-1E+10	1
4902551	78	C	10/09/2022	14:17	-131.615	48.520	0	762.90	0	3.6310	0	34.2560	0	27.237	0	755.073	0	13.7	4	4.3	4	-1E+10	1	-1E+10	1	-1E+10	1	-1E+10	1	-1E+10	1	-1E+10	1
4902551	78	C	10/09/2022	14:17	-131.615	48.520	0	768.00	0	3.6150	0	34.2600	0	27.242	0	760.111	0	13.6	4	4.2	4	-1E+10	1	-1E+10	1	-1E+10	1	-1E+10	1	-1E+10	1	-1E+10	1
4902551	78	C	10/09/2022	14:17	-131.615	48.520	0	772.70	0	3.6070	0	34.2620	0	27.244	0	764.754	0	13.5	4	4.2	4	-1E+10	1	-1E+10	1	-1E+10	1	-1E+10	1	-1E+10	1	-1E+10	1
4902551	78	C	10/09/2022	14:17	-131.615	48.520	0	777.90	0	3.5940	0	34.2640	0	27.247	0	769.891	0	13.4	4	4.2	4	-1E+10	1	-1E+10	1	-1E+10	1	-1E+10	1	-1E+10	1	-1E+10	1
4902551	78	C	10/09/2022	14:17	-131.615	48.520	0	783.40	0	3.5850	0	34.2660	0	27.249	0	775.324	0	13.3	4	4.1	4	-1E+10	1	-1E+10	1	-1E+10	1	-1E+10	1	-1E+10	1	-1E+10	1
4902551	78	C	10/09/2022	14:17	-131.615	48.520	0	788.30	0	3.5810	0	34.2690	0	27.252	0	780.164	0	13.1	4	4.1	4	-1E+10	1	-1E+10	1	-1E+10	1	-1E+10	1	-1E+10	1	-1E+10	1
4902551	78	C	10/09/2022	14:17	-131.615	48.520	0	793.30	0	3.5900	0	34.2710	0	27.253	0	785.103	0	12.9	4	4.0	4	-1E+10	1	-1E+10	1	-1E+10	1	-1E+10	1	-1E+10	1	-1E+10	1
4902551	78	C	10/09/2022	14:17	-131.615	48.520	0	798.40	0	3.5860	0	34.2730	0	27.255	0	790.141	0	12.8	4	4.0	4	-1E+10	1	-1E+10	1	-1E+10	1	-1E+10	1	-1E+10	1	-1E+10	1
4902551	78	C	10/09/2022	14:17	-131.615	48.520	0	803.00	0	3.5740	0	34.2760	0	27.259	0	794.685	0	12.8	4	4.0	4	-1E+10	1	-1E+10	1	-1E+10	1	-1E+10	1	-1E+10	1	-1E+10	1
4902551	78	C	10/09/2022	14:17	-131.615	48.520	0	807.50	0	3.5670	0	34.2780	0	27.261	0	799.130	0	12.7	4	4.0	4	-1E+10	1	-1E+10	1	-1E+10	1	-1E+10	1	-1E+10	1	-1E+10	1
4902551	78	C	10/09/2022	14:17	-131.615	48.520	0	812.70	0	3.5490	0	34.2820	0	27.266	0	804.266	0	12.7	4	4.0	4	-1E+10	1	-1E+10	1	-1E+10	1	-1E+10	1	-1E+10	1	-1E+10	1
4902551	78	C	10/09/2022	14:17	-131.615	48.520	0	817.90	0	3.5290	0	34.2840	0	27.269	0	809.402	0	12.6	4	4.0	4	-1E+10	1	-1E+10	1	-1E+10	1	-1E+10	1	-1E+10	1	-1E+10	1
4902551	78	C	10/09/2022	14:17	-131.615	48.520	0	823.20	0	3.5070	0	34.2860	0	27.273	0	814.636	0	12.6	4	3.9	4	-1E+10	1	-1E+10	1	-1E+10	1	-1E+10	1	-1E+10	1	-1E+10	1
4902551	78	C	10/09/2022	14:17	-131.615	48.520	0	828.00	0	3.4960	0	34.2870	0	27.275	0	819.377	0	12.6	4	3.9	4	-1E+10	1	-1E+10	1	-1E+10	1	-1E+10	1	-1E+10	1	-1E+10	1
4902551	78	C	10/09/2022	14:17	-131.615	48.520	0	833.00	0	3.4810	0	34.2900	0	27.279	0	824.315	0	12.5	4	3.9	4	-1E+10	1	-1E+10	1	-1E+10	1	-1E+10	1	-1E+10	1	-1E+10	1
4902551	78	C	10/09/2022	14:17	-131.615	48.520	0	837.90	0	3.4700	0	34.2930	0	27.282	0	829.154	0	12.3	4	3.9	4	-1E+10	1	-1E+10	1	-1E+10	1	-1E+10	1	-1E+10	1	-1E+10	1
4902551	78	C	10/09/2022	14:17	-131.615	48.520	0	842.80	0	3.4510	0	34.2970	0	27.287	0	833.993	0	12.2	4	3.8	4	-1E+10	1	-1E+10	1	-1E+10	1	-1E+10	1	-1E+10	1	-1E+10	1
4902551	78	C	10/09/2022	14:17	-131.615	48.520	0	847.60	0	3.4390	0	34.3020	0	27.293	0	838.733	0	12.1	4	3.8	4	-1E+10	1	-1E+10	1	-1E+10	1	-1E+10	1	-1E+10	1	-1E+10	1
4902551	78	C	10/09/2022	14:17	-131.615	48.520	0	852.90	0	3.4310	0	34.3060	0	27.297	0	843.967	0	12.0	4	3.7	4	-1E+10	1	-1E+10	1	-1E+10	1	-1E+10	1	-1E+10	1	-1E+10	1
4902551	78	C	10/09/2022	14:17	-131.615	48.520	0	858.30	0	3.4260	0	34.3090	0	27.299	0	849.300	0	11.9	4	3.7	4	-1E+10	1	-1E+10	1	-1E+10	1	-1E+10	1	-1E+10	1	-1E+10	1
4902551	78	C	10/09/2022	14:17	-131.615	48.520	0	863.20	0	3.4200	0	34.3110	0	27.302	0	854.138	0	11.9	4	3.7	4	-1E+10	1	-1E+10	1	-1E+10	1	-1E+10	1	-1E+10	1	-1E+10	1
4902551	78	C	10/09/2022	14:17	-131.615	48.520	0	868.10	0	3.4120	0	34.3140	0	27.305	0	858.977	0	11.8	4	3.7	4	-1E+10	1	-1E+10	1	-1E+10	1	-1E+10	1	-1E+10	1	-1E+10	1
4902551	78	C	10/09/2022	14:17	-131.615	48.520	0	873.00	0	3.4000	0	34.3170	0	27.308	0	863.815	0	11.8	4	3.7	4	-1E+10	1	-1E+10	1	-1E+10	1	-1E+10	1	-1E+10	1	-1E+10	1
4902551	78	C	10/09/2022	14:17	-131.615	48.520	0	878.10	0	3.3900	0	34.3180	0	27.310	0	868.851	0	11.8	4	3.7	4	-1E+10	1	-1E+10	1	-1E+10	1	-1E+10	1	-1E+10	1	-1E+10	1
4902551	78	C	10/09/2022	14:17	-131.615	48.520	0	883.20	0	3.3720	0	34.3200	0	27.314	0	873.887	0	11.9	4	3.7	4	-1E+10	1	-1E+10	1	-1E+10	1	-1E+10	1	-1E+10	1	-1E+10	1
4902551	78	C	10/09/2022	14:17	-131.615	48.520	0	888.30	0	3.3670	0	34.3200	0	27.314	0	878.922	0	11.8	4	3.7	4	-1E+10	1	-1E+10	1	-1E+10	1	-1E+10	1	-1E+10	1	-1E+10	1
4902551	78	C	10/09/2022	14:17	-131.615	48.520	0	893.00	0	3.3600	0	34.3220	0	27.316	0	883.563	0	11.8	4	3.7	4	-1E+10	1	-1E+10	1	-1E+10	1	-1E+10	1	-1E+10	1	-1E+10	1
4902551	78	C	10/09/2022	14:17	-131.615	48.520	0	897.70	0	3.3530	0	34.3230	0	27.318	0	888.203	0	11.8	4	3.7	4	-1E+10	1	-1E+10	1	-1E+10	1	-1E+10	1	-1E+10	1	-1E+10	1
4902551	78	C	10/09/2022	14:17	-131.615	48.520	0	902.90	0	3.3450	0	34.3250	0	27.320	0	893.337	0	11.8	4	3.7	4	-1E+10	1	-1E+10	1	-1E+10	1	-1E+10	1	-1E+10	1	-1E+10	1
4902551	78	C	10/09/2022	14:17	-131.615	48.520	0	908.00	0	3.3340	0	34.3270	0	27.323	0	898.372	0	11.8	4	3.7	4	-1E+10	1	-1E+10	1	-1E+10	1	-1E+10	1	-1E+10	1	-1E+10	1
4902551	78	C	10/09/2022	14:17	-131.615	48.520	0	913.10	0	3.3120	0	34.3290	0	27.327	0	903.407	0	11.8	4	3.7	4	-1E+10	1	-1E+10	1	-1E+10	1	-1E+10	1	-1E+10	1	-1E+10	1
4902551	78	C	10/09/2022	14:17	-131.615	48.520	0	918.20	0	3.2910	0	34.3340	0	27.332	0	908.442	0	11.8	4	3.7	4	-1E+10	1	-1E+10	1	-1E+10	1	-1E+10	1	-1E+10	1	-1E+10	1
4902551	78	C	10/09/2022	14:17	-131.615	48.520	0	922.90	0	3.2810	0	34.3360	0	27.335	0	913.082	0	11.8	4	3.7	4	-1E+10	1	-1E+10	1	-1E+10	1	-1E+10	1	-1E+10	1	-1E+10	1
4902551	78	C	10/09/2022	14:17	-131.615	48.520	0	927.60	0	3.2730	0	34.3370	0	27.337	0	917.721	0	11.8	4	3.7	4	-1E+10	1	-1E+10	1	-1E+10	1	-1E+10	1	-1E+10	1	-1E+10	1
4902551	78	C	10/09/2022	14:17	-131.615	48.520	0	932.90	0	3.2610	0	34.3390	0	27.339	0	922.953	0	11.8	4	3.7	4	-1E+10	1	-1E+10	1	-1E+10	1	-1E+10	1	-1E+10	1	-1E+10	1
4902551	78	C	10/09/2022	14:17	-131.615	48.520	0	938.20	0	3.2480	0	34.3410	0	27.342	0	928.185	0	11.8	4	3.7	4	-1E+10	1	-1E+10	1	-1E+10	1	-1E+10	1	-1E+10	1	-1E+10	1
4902551	78	C	10/09/2022	14:17	-131.615	48.520	0	943.10	0	3.2360	0	34.3430	0	27.345	0	933.022	0	11.8	4	3.7	4	-1E+10	1	-1E+10	1	-1E+10	1	-1E+10	1	-1E+10	1	-1E+10	1
4902551	78	C	10/09/2022	14:17	-131.615	48.520	0	947.90	0	3.2260	0	34.3450	0	27.348	0	937.760	0	11.8	4	3.7	4	-1E+10	1	-1E+10	1	-1E+10	1	-1E+10	1	-1E+10	1	-1E+10	1
4902551	78	C	10/09/2022	14:17	-131.615	48.520	0	952.90	0	3.2170	0	34.3470	0	27.350	0	942.695	0	11.8	4	3.7	4	-1E+10	1	-1E+10	1	-1E+10	1	-1E+10	1	-1E+10	1	-1E+10	1
4902551	78	C	10/09/2022	14:17	-131.615	48.520	0	957.90	0	3.2130	0	34.3470	0	27.350	0	947.630	0	11.8	4	3.7	4	-1E+10	1	-1E+10	1	-1E+10	1	-1E+10	1	-1E+10	1	-1E+10	1
4902551	78	C	10/09/2022	14:17	-131.615	48.520	0	963.00	0	3.2080	0	34.3480	0	27.352	0	952.664	0	11.8	4	3.7	4	-1E+10	1	-1E+10	1	-1E+10	1	-1E+10	1	-1E+10	1	-1E+10	1
4902551	78	C	10/09/2022	14:17	-131.615	48.520	0	967.70	0	3.2030	0	34.3500	0	27.354	0	957.303	0	11.8	4	3.7	4	-1E+10	1	-1E+10	1	-1E+10	1	-1E+10	1	-1E+10	1	-1E+10	1
4902551	78	C	10/09/2022	14:17	-131.615	48.520	0	972.90	0	3.1950	0	34.3510	0	27.355	0	962.435	0	11.8	4	3.7	4	-1E+10	1	-1E+10	1	-1E+10	1	-1E+10	1	-1E+10	1	-1E+10	1
4902551	78	C	10/09/2022	14:17	-131.615	48.520	0	978.20	0	3.1860	0	34.3530	0	27.358	0	967.665	0	11.8	4	3.7	4	-1E+10	1	-1E+10	1	-1E+10	1	-1E+10	1	-1E+10	1	-1E+10	1
4902551	78	C	10/09/2022	14:17	-131.615	48.520	0	983.00	0	3.1790	0	34.3540	0	27.359	0	972.403	0	11.8	4	3.7	4	-1E+10	1	-1E+10	1	-1E+10	1	-1E+10	1	-1E+10	1	-1E+10	1
4902551	78	C	10/09/2022	14:17	-131.615	48.520	0	987.90	0	3.1660	0	34.3570	0	27.363	0	977.238	0	11.8	4	3.7	4	-1E+10	1	-1E+10	1	-1E+10	1	-1E+10	1	-1E+10	1	-1E+10	1
4902551	78	C	10/09/2022	14:17	-131.615	48.520	0	992.70	0	3.1550	0	34.3600	0	27.366	0	981.975	0	11.8	4	3.7	4	-1E+10	1	-1E+10	1	-1E+10	1	-1E+10	1	-1E+10	1	-1E+10	1
4902551	78	C	10/09/2022	14:17	-131.615	48.520	0	998.00	0	3.1490	0	34.3610	0	27.368	0	987.206	0	11.8	4	3.7	4	-1E+10	1	-1E+10	1	-1E+10	1	-1E+10	1	-1E+10	1	-1E+10	1
4902551	78	C	10/09/2022	14:17	-131.615	48.520	0	1005.80	0	3.1350	0	34.3640	0	27.371	0	994.903	0	11.8	4	3.7	4	-1E+10	1	-1E+10	1	-1E+10	1	-1E+10	1	-1E+10	1	-1E+10	1
4902551	78	C	10/09/2022	14:17	-131.615	48.520	0	1015.80	0	3.1120	0	34.3670	0	27.376	0	1004.770	0	11.9	4	3.7	4	-1E+10	1	-1E+10	1	-1E+10	1	-1E+10	1	-1E+10	1	-1E+10	1
4902551	78	C	10/09/2022	14:17	-131.615	48.520	0	1025.90	0	3.0940	0	34.3710	0	27.381	0	1014.736	0	11.9	4	3.7	4	-1E+10	1	-1E+10	1	-1E+10	1	-1E+10	1	-1E+10	1	-1E+10	1
4902551	78	C	10/09/2022	14:17	-131.615	48.520	0	1035.50	0	3.0800	0	34.3750	0	27.385	0	1024.208	0	11.9	4	3.7	4	-1E+10	1	-1E+10	1	-1E+10	1	-1E+10	1	-1E+10	1	-1E+10	1
4902551	78	C	10/09/2022	14:17	-131.615	48.520	0	1045.40	0	3.0610	0	34.3780	0	27.390	0	1033.976	0	12.0	4	3.7	4	-1E+10	1	-1E+10	1	-1E+10	1	-1E+10	1	-1E+10	1	-1E+10	1
4902551	78	C	10/09/2022	14:17	-131.615	48.520	0	1055.00	0	3.0490	0	34.3800	0	27.392	0	1043.447	0	12.0	4	3.7	4	-1E+10	1	-1E+10	1	-1E+10	1	-1E+10	1	-1E+10	1	-1E+10	1
4902551	78	C	10/09/2022	14:17	-131.615	48.520	0	1065.30	0	3.0360	0	34.3830	0	27.396	0	1053.609	0	12.1	4	3.7	4	-1E+10	1	-1E+10	1	-1E+10	1	-1E+10	1	-1E+10	1	-1E+10	1
4902551	78	C	10/09/2022	14:17	-131.615	48.520	0	1075.70	0	3.0140	0	34.3870	0	27.401	0	1063.868	0	12.1	4	3.7	4	-1E+10	1	-1E+10	1	-1E+10	1	-1E+10	1	-1E+10	1	-1E+10	1
4902551	78	C	10/09/2022	14:17	-131.615	48.520	0	1085.50	0	2.9990	0	34.3890	0	27.404	0	1073.535	0	12.2	4	3.8	4	-1E+10	1	-1E+10	1	-1E+10	1	-1E+10	1	-1E+10	1	-1E+10	1
4902551	78	C	10/09/2022	14:17	-131.615	48.520	0	1095.30	0	2.9720	0	34.3930	0	27.410	0	1083.202	0	12.3	4	3.8	4	-1E+10	1	-1E+10	1	-1E+10	1	-1E+10	1	-1E+10	1	-1E+10	1
4902551	78	C	10/09/2022	14:17	-131.615	48.520	0	1105.40	0	2.9550	0	34.3960	0	27.414	0	1093.164	0	12.4	4	3.8	4	-1E+10	1	-1E+10	1	-1E+10	1	-1E+10	1	-1E+10	1	-1E+10	1
4902551	78	C	10/09/2022	14:17	-131.615	48.520	0	1115.30	0	2.9450	0	34.3990	0	27.417	0	1102.929	0	12.4	4	3.8	4	-1E+10	1	-1E+10	1	-1E+10	1	-1E+10	1	-1E+10	1	-1E+10	1
4902551	78	C	10/09/2022	14:17	-131.615	48.520	0	1125.20	0	2.9300	0	34.4020	0	27.421	0	1112.693	0	12.5	4	3.9	4	-1E+10	1	-1E+10	1	-1E+10	1	-1E+10	1	-1E+10	1	-1E+10	1
4902551	78	C	10/09/2022	14:17	-131.615	48.520	0	1135.30	0	2.9180	0	34.4040	0	27.424	0	1122.653	0	12.6	4	3.9	4	-1E+10	1	-1E+10	1	-1E+10	1	-1E+10	1	-1E+10	1	-1E+10	1
4902551	78	C	10/09/2022	14:17	-131.615	48.520	0	1145.20	0	2.9020	0	34.4070	0	27.428	0	1132.416	0	12.7	4	3.9	4	-1E+10	1	-1E+10	1	-1E+10	1	-1E+10	1	-1E+10	1	-1E+10	1
4902551	78	C	10/09/2022	14:17	-131.615	48.520	0	1155.40	0	2.8880	0	34.4090	0	27.431	0	1142.475	0	12.8	4	3.9	4	-1E+10	1	-1E+10	1	-1E+10	1	-1E+10	1	-1E+10	1	-1E+10	1
4902551	78	C	10/09/2022	14:17	-131.615	48.520	0	1165.70	0	2.8710	0	34.4120	0	27.434	0	1152.631	0	12.9	4	4.0	4	-1E+10	1	-1E+10	1	-1E+10	1	-1E+10	1	-1E+10	1	-1E+10	1
4902551	78	C	10/09/2022	14:17	-131.615	48.520	0	1175.60	0	2.8570	0	34.4140	0	27.437	0	1162.393	0	13.0	4	4.0	4	-1E+10	1	-1E+10	1	-1E+10	1	-1E+10	1	-1E+10	1	-1E+10	1
4902551	78	C	10/09/2022	14:17	-131.615	48.520	0	1185.60	0	2.8450	0	34.4160	0	27.440	0	1172.253	0	13.2	4	4.1	4	-1E+10	1	-1E+10	1	-1E+10	1	-1E+10	1	-1E+10	1	-1E+10	1
4902551	78	C	10/09/2022	14:17	-131.615	48.520	0	1195.30	0	2.8280	0	34.4200	0	27.445	0	1181.816	0	13.4	4	4.1	4	-1E+10	1	-1E+10	1	-1E+10	1	-1E+10	1	-1E+10	1	-1E+10	1
4902551	78	C	10/09/2022	14:17	-131.615	48.520	0	1205.20	0	2.8140	0	34.4220	0	27.448	0	1191.577	0	13.6	4	4.2	4	-1E+10	1	-1E+10	1	-1E+10	1	-1E+10	1	-1E+10	1	-1E+10	1
4902551	78	C	10/09/2022	14:17	-131.615	48.520	0	1215.40	0	2.7960	0	34.4260	0	27.453	0	1201.632	0	13.8	4	4.2	4	-1E+10	1	-1E+10	1	-1E+10	1	-1E+10	1	-1E+10	1	-1E+10	1
4902551	78	C	10/09/2022	14:17	-131.615	48.520	0	1225.40	0	2.7750	0	34.4300	0	27.458	0	1211.490	0	14.1	4	4.3	4	-1E+10	1	-1E+10	1	-1E+10	1	-1E+10	1	-1E+10	1	-1E+10	1
4902551	78	C	10/09/2022	14:17	-131.615	48.520	0	1235.70	0	2.7590	0	34.4340	0	27.462	0	1221.643	0	14.4	4	4.4	4	-1E+10	1	-1E+10	1	-1E+10	1	-1E+10	1	-1E+10	1	-1E+10	1
4902551	78	C	10/09/2022	14:17	-131.615	48.520	0	1245.40	0	2.7470	0	34.4360	0	27.465	0	1231.205	0	14.6	4	4.5	4	-1E+10	1	-1E+10	1	-1E+10	1	-1E+10	1	-1E+10	1	-1E+10	1
4902551	78	C	10/09/2022	14:17	-131.615	48.520	0	1255.50	0	2.7270	0	34.4390	0	27.469	0	1241.160	0	14.7	4	4.5	4	-1E+10	1	-1E+10	1	-1E+10	1	-1E+10	1	-1E+10	1	-1E+10	1
4902551	78	C	10/09/2022	14:17	-131.615	48.520	0	1265.40	0	2.7100	0	34.4420	0	27.473	0	1250.917	0	14.9	4	4.6	4	-1E+10	1	-1E+10	1	-1E+10	1	-1E+10	1	-1E+10	1	-1E+10	1
4902551	78	C	10/09/2022	14:17	-131.615	48.520	0	1275.10	0	2.6970	0	34.4440	0	27.476	0	1260.477	0	15.1	4	4.6	4	-1E+10	1	-1E+10	1	-1E+10	1	-1E+10	1	-1E+10	1	-1E+10	1
4902551	78	C	10/09/2022	14:17	-131.615	48.520	0	1285.30	0	2.6790	0	34.4470	0	27.480	0	1270.530	0	15.4	4	4.7	4	-1E+10	1	-1E+10	1	-1E+10	1	-1E+10	1	-1E+10	1	-1E+10	1
4902551	78	C	10/09/2022	14:17	-131.615	48.520	0	1295.20	0	2.6650	0	34.4490	0	27.483	0	1280.286	0	15.6	4	4.8	4	-1E+10	1	-1E+10	1	-1E+10	1	-1E+10	1	-1E+10	1	-1E+10	1
4902551	78	C	10/09/2022	14:17	-131.615	48.520	0	1305.20	0	2.6550	0	34.4510	0	27.485	0	1290.140	0	16.0	4	4.9	4	-1E+10	1	-1E+10	1	-1E+10	1	-1E+10	1	-1E+10	1	-1E+10	1
4902551	78	C	10/09/2022	14:17	-131.615	48.520	0	1315.60	0	2.6430	0	34.4540	0	27.489	0	1300.388	0	16.3	4	5.0	4	-1E+10	1	-1E+10	1	-1E+10	1	-1E+10	1	-1E+10	1	-1E+10	1
4902551	78	C	10/09/2022	14:17	-131.615	48.520	0	1325.50	0	2.6250	0	34.4570	0	27.493	0	1310.143	0	16.6	4	5.1	4	-1E+10	1	-1E+10	1	-1E+10	1	-1E+10	1	-1E+10	1	-1E+10	1
4902551	78	C	10/09/2022	14:17	-131.615	48.520	0	1335.10	0	2.6040	0	34.4600	0	27.497	0	1319.601	0	17.0	4	5.2	4	-1E+10	1	-1E+10	1	-1E+10	1	-1E+10	1	-1E+10	1	-1E+10	1
4902551	78	C	10/09/2022	14:17	-131.615	48.520	0	1345.40	0	2.5860	0	34.4630	0	27.501	0	1329.749	0	17.3	4	5.3	4	-1E+10	1	-1E+10	1	-1E+10	1	-1E+10	1	-1E+10	1	-1E+10	1
4902551	78	C	10/09/2022	14:17	-131.615	48.520	0	1355.80	0	2.5750	0	34.4660	0	27.504	0	1339.995	0	17.8	4	5.4	4	-1E+10	1	-1E+10	1	-1E+10	1	-1E+10	1	-1E+10	1	-1E+10	1
4902551	78	C	10/09/2022	14:17	-131.615	48.520	0	1365.60	0	2.5570	0	34.4690	0	27.508	0	1349.650	0	18.3	4	5.6	4	-1E+10	1	-1E+10	1	-1E+10	1	-1E+10	1	-1E+10	1	-1E+10	1
4902551	78	C	10/09/2022	14:17	-131.615	48.520	0	1375.60	0	2.5420	0	34.4720	0	27.512	0	1359.501	0	18.7	4	5.7	4	-1E+10	1	-1E+10	1	-1E+10	1	-1E+10	1	-1E+10	1	-1E+10	1
4902551	78	C	10/09/2022	14:17	-131.615	48.520	0	1385.60	0	2.5300	0	34.4740	0	27.515	0	1369.351	0	19.1	4	5.8	4	-1E+10	1	-1E+10	1	-1E+10	1	-1E+10	1	-1E+10	1	-1E+10	1
4902551	78	C	10/09/2022	14:17	-131.615	48.520	0	1395.10	0	2.5180	0	34.4760	0	27.517	0	1378.709	0	19.5	4	6.0	4	-1E+10	1	-1E+10	1	-1E+10	1	-1E+10	1	-1E+10	1	-1E+10	1
4902551	78	C	10/09/2022	14:17	-131.615	48.520	0	1405.30	0	2.5050	0	34.4790	0	27.521	0	1388.755	0	20.2	4	6.2	4	-1E+10	1	-1E+10	1	-1E+10	1	-1E+10	1	-1E+10	1	-1E+10	1
4902551	78	C	10/09/2022	14:17	-131.615	48.520	0	1415.70	0	2.4930	0	34.4820	0	27.524	0	1398.998	0	21.0	4	6.4	4	-1E+10	1	-1E+10	1	-1E+10	1	-1E+10	1	-1E+10	1	-1E+10	1
4902551	78	C	10/09/2022	14:17	-131.615	48.520	0	1426.00	0	2.4810	0	34.4860	0	27.529	0	1409.143	0	22.0	4	6.7	4	-1E+10	1	-1E+10	1	-1E+10	1	-1E+10	1	-1E+10	1	-1E+10	1
4902551	78	C	10/09/2022	14:17	-131.615	48.520	0	1435.60	0	2.4700	0	34.4890	0	27.532	0	1418.597	0	22.6	4	6.9	4	-1E+10	1	-1E+10	1	-1E+10	1	-1E+10	1	-1E+10	1	-1E+10	1
4902551	78	C	10/09/2022	14:17	-131.615	48.520	0	1445.40	0	2.4530	0	34.4920	0	27.536	0	1428.248	0	23.3	4	7.1	4	-1E+10	1	-1E+10	1	-1E+10	1	-1E+10	1	-1E+10	1	-1E+10	1
4902551	78	C	10/09/2022	14:17	-131.615	48.520	0	1455.10	0	2.4440	0	34.4940	0	27.538	0	1437.800	0	23.6	4	7.2	4	-1E+10	1	-1E+10	1	-1E+10	1	-1E+10	1	-1E+10	1	-1E+10	1
4902551	78	C	10/09/2022	14:17	-131.615	48.520	0	1465.20	0	2.4310	0	34.4950	0	27.540	0	1447.745	0	24.0	4	7.3	4	-1E+10	1	-1E+10	1	-1E+10	1	-1E+10	1	-1E+10	1	-1E+10	1
4902551	78	C	10/09/2022	14:17	-131.615	48.520	0	1475.30	0	2.4220	0	34.4980	0	27.543	0	1457.690	0	24.9	4	7.6	4	-1E+10	1	-1E+10	1	-1E+10	1	-1E+10	1	-1E+10	1	-1E+10	1
4902551	78	C	10/09/2022	14:17	-131.615	48.520	0	1485.20	0	2.3990	0	34.5020	0	27.549	0	1467.437	0	25.3	4	7.7	4	-1E+10	1	-1E+10	1	-1E+10	1	-1E+10	1	-1E+10	1	-1E+10	1
4902551	78	C	10/09/2022	14:17	-131.615	48.520	0	1495.40	0	2.3900	0	34.5030	0	27.550	0	1477.480	0	25.7	4	7.8	4	-1E+10	1	-1E+10	1	-1E+10	1	-1E+10	1	-1E+10	1	-1E+10	1
4902551	78	C	10/09/2022	14:17	-131.615	48.520	0	1505.30	0	2.3840	0	34.5040	0	27.552	0	1487.226	0	26.1	4	7.9	4	-1E+10	1	-1E+10	1	-1E+10	1	-1E+10	1	-1E+10	1	-1E+10	1
4902551	78	C	10/09/2022	14:17	-131.615	48.520	0	1515.20	0	2.3780	0	34.5050	0	27.553	0	1496.972	0	26.6	4	8.1	4	-1E+10	1	-1E+10	1	-1E+10	1	-1E+10	1	-1E+10	1	-1E+10	1
4902551	78	C	10/09/2022	14:17	-131.615	48.520	0	1525.40	0	2.3670	0	34.5080	0	27.556	0	1507.013	0	27.2	4	8.3	4	-1E+10	1	-1E+10	1	-1E+10	1	-1E+10	1	-1E+10	1	-1E+10	1
4902551	78	C	10/09/2022	14:17	-131.615	48.520	0	1535.10	0	2.3550	0	34.5090	0	27.558	0	1516.561	0	27.8	4	8.4	4	-1E+10	1	-1E+10	1	-1E+10	1	-1E+10	1	-1E+10	1	-1E+10	1
4902551	78	C	10/09/2022	14:17	-131.615	48.520	0	1545.40	0	2.3460	0	34.5120	0	27.561	0	1526.700	0	28.3	4	8.6	4	-1E+10	1	-1E+10	1	-1E+10	1	-1E+10	1	-1E+10	1	-1E+10	1
4902551	78	C	10/09/2022	14:17	-131.615	48.520	0	1555.90	0	2.3370	0	34.5130	0	27.563	0	1537.035	0	28.7	4	8.7	4	-1E+10	1	-1E+10	1	-1E+10	1	-1E+10	1	-1E+10	1	-1E+10	1
4902551	78	C	10/09/2022	14:17	-131.615	48.520	0	1565.40	0	2.3300	0	34.5150	0	27.565	0	1546.385	0	29.0	4	8.8	4	-1E+10	1	-1E+10	1	-1E+10	1	-1E+10	1	-1E+10	1	-1E+10	1
4902551	78	C	10/09/2022	14:17	-131.615	48.520	0	1575.00	0	2.3230	0	34.5160	0	27.567	0	1555.833	0	29.4	4	8.9	4	-1E+10	1	-1E+10	1	-1E+10	1	-1E+10	1	-1E+10	1	-1E+10	1
4902551	78	C	10/09/2022	14:17	-131.615	48.520	0	1585.10	0	2.3160	0	34.5170	0	27.568	0	1565.773	0	30.0	4	9.1	4	-1E+10	1	-1E+10	1	-1E+10	1	-1E+10	1	-1E+10	1	-1E+10	1
4902551	78	C	10/09/2022	14:17	-131.615	48.520	0	1595.20	0	2.3060	0	34.5190	0	27.570	0	1575.712	0	30.5	4	9.3	4	-1E+10	1	-1E+10	1	-1E+10	1	-1E+10	1	-1E+10	1	-1E+10	1
4902551	78	C	10/09/2022	14:17	-131.615	48.520	0	1605.40	0	2.2910	0	34.5210	0	27.573	0	1585.749	0	31.3	4	9.5	4	-1E+10	1	-1E+10	1	-1E+10	1	-1E+10	1	-1E+10	1	-1E+10	1
4902551	78	C	10/09/2022	14:17	-131.615	48.520	0	1615.60	0	2.2790	0	34.5240	0	27.577	0	1595.786	0	31.8	4	9.6	4	-1E+10	1	-1E+10	1	-1E+10	1	-1E+10	1	-1E+10	1	-1E+10	1
4902551	78	C	10/09/2022	14:17	-131.615	48.520	0	1625.50	0	2.2720	0	34.5250	0	27.578	0	1605.527	0	32.2	4	9.8	4	-1E+10	1	-1E+10	1	-1E+10	1	-1E+10	1	-1E+10	1	-1E+10	1
4902551	78	C	10/09/2022	14:17	-131.615	48.520	0	1635.50	0	2.2640	0	34.5260	0	27.580	0	1615.366	0	32.6	4	9.9	4	-1E+10	1	-1E+10	1	-1E+10	1	-1E+10	1	-1E+10	1	-1E+10	1
4902551	78	C	10/09/2022	14:17	-131.615	48.520	0	1645.70	0	2.2560	0	34.5280	0	27.582	0	1625.401	0	33.1	4	10.1	4	-1E+10	1	-1E+10	1	-1E+10	1	-1E+10	1	-1E+10	1	-1E+10	1
4902551	78	C	10/09/2022	14:17	-131.615	48.520	0	1655.20	0	2.2440	0	34.5300	0	27.585	0	1634.747	0	33.6	4	10.2	4	-1E+10	1	-1E+10	1	-1E+10	1	-1E+10	1	-1E+10	1	-1E+10	1
4902551	78	C	10/09/2022	14:17	-131.615	48.520	0	1665.20	0	2.2320	0	34.5310	0	27.586	0	1644.585	0	34.0	4	10.3	4	-1E+10	1	-1E+10	1	-1E+10	1	-1E+10	1	-1E+10	1	-1E+10	1
4902551	78	C	10/09/2022	14:17	-131.615	48.520	0	1675.30	0	2.2240	0	34.5330	0	27.589	0	1654.521	0	34.4	4	10.4	4	-1E+10	1	-1E+10	1	-1E+10	1	-1E+10	1	-1E+10	1	-1E+10	1
4902551	78	C	10/09/2022	14:17	-131.615	48.520	0	1685.40	0	2.2150	0	34.5340	0	27.590	0	1664.456	0	35.0	4	10.6	4	-1E+10	1	-1E+10	1	-1E+10	1	-1E+10	1	-1E+10	1	-1E+10	1
4902551	78	C	10/09/2022	14:17	-131.615	48.520	0	1695.60	0	2.2050	0	34.5360	0	27.593	0	1674.489	0	35.7	4	10.8	4	-1E+10	1	-1E+10	1	-1E+10	1	-1E+10	1	-1E+10	1	-1E+10	1
4902551	78	C	10/09/2022	14:17	-131.615	48.520	0	1705.50	0	2.1940	0	34.5380	0	27.595	0	1684.226	0	36.3	4	11.0	4	-1E+10	1	-1E+10	1	-1E+10	1	-1E+10	1	-1E+10	1	-1E+10	1
4902551	78	C	10/09/2022	14:17	-131.615	48.520	0	1715.50	0	2.1840	0	34.5400	0	27.598	0	1694.062	0	36.9	4	11.2	4	-1E+10	1	-1E+10	1	-1E+10	1	-1E+10	1	-1E+10	1	-1E+10	1
4902551	78	C	10/09/2022	14:17	-131.615	48.520	0	1725.60	0	2.1770	0	34.5410	0	27.599	0	1703.995	0	37.4	4	11.3	4	-1E+10	1	-1E+10	1	-1E+10	1	-1E+10	1	-1E+10	1	-1E+10	1
4902551	78	C	10/09/2022	14:17	-131.615	48.520	0	1735.20	0	2.1710	0	34.5420	0	27.600	0	1713.436	0	38.1	4	11.5	4	-1E+10	1	-1E+10	1	-1E+10	1	-1E+10	1	-1E+10	1	-1E+10	1
4902551	78	C	10/09/2022	14:17	-131.615	48.520	0	1745.40	0	2.1590	0	34.5440	0	27.603	0	1723.467	0	39.1	4	11.8	4	-1E+10	1	-1E+10	1	-1E+10	1	-1E+10	1	-1E+10	1	-1E+10	1
4902551	78	C	10/09/2022	14:17	-131.615	48.520	0	1755.50	0	2.1480	0	34.5470	0	27.606	0	1733.398	0	39.8	4	12.0	4	-1E+10	1	-1E+10	1	-1E+10	1	-1E+10	1	-1E+10	1	-1E+10	1
4902551	78	C	10/09/2022	14:17	-131.615	48.520	0	1765.50	0	2.1340	0	34.5490	0	27.609	0	1743.232	0	40.5	4	12.2	4	-1E+10	1	-1E+10	1	-1E+10	1	-1E+10	1	-1E+10	1	-1E+10	1
4902551	78	C	10/09/2022	14:17	-131.615	48.520	0	1775.70	0	2.1220	0	34.5510	0	27.612	0	1753.261	0	41.2	4	12.5	4	-1E+10	1	-1E+10	1	-1E+10	1	-1E+10	1	-1E+10	1	-1E+10	1
4902551	78	C	10/09/2022	14:17	-131.615	48.520	0	1785.50	0	2.1080	0	34.5530	0	27.615	0	1762.896	0	42.0	4	12.7	4	-1E+10	1	-1E+10	1	-1E+10	1	-1E+10	1	-1E+10	1	-1E+10	1
4902551	78	C	10/09/2022	14:17	-131.615	48.520	0	1795.40	0	2.0980	0	34.5550	0	27.617	0	1772.630	0	42.8	4	12.9	4	-1E+10	1	-1E+10	1	-1E+10	1	-1E+10	1	-1E+10	1	-1E+10	1
4902551	78	C	10/09/2022	14:17	-131.615	48.520	0	1805.50	0	2.0870	0	34.5570	0	27.619	0	1782.559	0	43.4	4	13.1	4	-1E+10	1	-1E+10	1	-1E+10	1	-1E+10	1	-1E+10	1	-1E+10	1
4902551	78	C	10/09/2022	14:17	-131.615	48.520	0	1815.30	0	2.0810	0	34.5580	0	27.621	0	1792.193	0	43.9	4	13.3	4	-1E+10	1	-1E+10	1	-1E+10	1	-1E+10	1	-1E+10	1	-1E+10	1
4902551	78	C	10/09/2022	14:17	-131.615	48.520	0	1825.30	0	2.0720	0	34.5600	0	27.623	0	1802.024	0	44.4	4	13.4	4	-1E+10	1	-1E+10	1	-1E+10	1	-1E+10	1	-1E+10	1	-1E+10	1
4902551	78	C	10/09/2022	14:17	-131.615	48.520	0	1835.50	0	2.0600	0	34.5620	0	27.626	0	1812.050	0	44.9	4	13.5	4	-1E+10	1	-1E+10	1	-1E+10	1	-1E+10	1	-1E+10	1	-1E+10	1
4902551	78	C	10/09/2022	14:17	-131.615	48.520	0	1845.50	0	2.0530	0	34.5620	0	27.626	0	1821.880	0	45.2	4	13.6	4	-1E+10	1	-1E+10	1	-1E+10	1	-1E+10	1	-1E+10	1	-1E+10	1
4902551	78	C	10/09/2022	14:17	-131.615	48.520	0	1855.70	0	2.0480	0	34.5630	0	27.628	0	1831.905	0	45.8	4	13.8	4	-1E+10	1	-1E+10	1	-1E+10	1	-1E+10	1	-1E+10	1	-1E+10	1
4902551	78	C	10/09/2022	14:17	-131.615	48.520	0	1865.90	0	2.0410	0	34.5650	0	27.630	0	1841.930	0	46.5	4	14.0	4	-1E+10	1	-1E+10	1	-1E+10	1	-1E+10	1	-1E+10	1	-1E+10	1
4902551	78	C	10/09/2022	14:17	-131.615	48.520	0	1875.40	0	2.0350	0	34.5660	0	27.631	0	1851.267	0	47.1	4	14.2	4	-1E+10	1	-1E+10	1	-1E+10	1	-1E+10	1	-1E+10	1	-1E+10	1
4902551	78	C	10/09/2022	14:17	-131.615	48.520	0	1885.10	0	2.0300	0	34.5680	0	27.633	0	1860.800	0	47.7	4	14.4	4	-1E+10	1	-1E+10	1	-1E+10	1	-1E+10	1	-1E+10	1	-1E+10	1
4902551	78	C	10/09/2022	14:17	-131.615	48.520	0	1895.00	0	2.0220	0	34.5690	0	27.635	0	1870.529	0	48.1	4	14.5	4	-1E+10	1	-1E+10	1	-1E+10	1	-1E+10	1	-1E+10	1	-1E+10	1
4902551	78	C	10/09/2022	14:17	-131.615	48.520	0	1905.20	0	2.0140	0	34.5700	0	27.636	0	1880.552	0	48.5	4	14.6	4	-1E+10	1	-1E+10	1	-1E+10	1	-1E+10	1	-1E+10	1	-1E+10	1
4902551	78	C	10/09/2022	14:17	-131.615	48.520	0	1915.20	0	2.0040	0	34.5710	0	27.638	0	1890.378	0	49.0	4	14.8	4	-1E+10	1	-1E+10	1	-1E+10	1	-1E+10	1	-1E+10	1	-1E+10	1
4902551	78	C	10/09/2022	14:17	-131.615	48.520	0	1925.40	0	1.9970	0	34.5730	0	27.640	0	1900.400	0	49.4	4	14.9	4	-1E+10	1	-1E+10	1	-1E+10	1	-1E+10	1	-1E+10	1	-1E+10	1
4902551	78	C	10/09/2022	14:17	-131.615	48.520	0	1935.80	0	1.9920	0	34.5740	0	27.641	0	1910.619	0	50.0	4	15.1	4	-1E+10	1	-1E+10	1	-1E+10	1	-1E+10	1	-1E+10	1	-1E+10	1
4902551	78	C	10/09/2022	14:17	-131.615	48.520	0	1945.50	0	1.9830	0	34.5750	0	27.643	0	1920.149	0	50.7	4	15.3	4	-1E+10	1	-1E+10	1	-1E+10	1	-1E+10	1	-1E+10	1	-1E+10	1
4902551	78	C	10/09/2022	14:17	-131.615	48.520	0	1955.20	0	1.9750	0	34.5770	0	27.645	0	1929.678	0	51.5	4	15.5	4	-1E+10	1	-1E+10	1	-1E+10	1	-1E+10	1	-1E+10	1	-1E+10	1
4902551	78	C	10/09/2022	14:17	-131.615	48.520	0	1965.50	0	1.9700	0	34.5780	0	27.646	0	1939.797	0	52.5	4	15.8	4	-1E+10	1	-1E+10	1	-1E+10	1	-1E+10	1	-1E+10	1	-1E+10	1
4902551	78	C	10/09/2022	14:17	-131.615	48.520	0	1976.00	0	1.9630	0	34.5810	0	27.649	0	1950.112	0	52.5	4	15.8	4	-1E+10	1	-1E+10	1	-1E+10	1	-1E+10	1	-1E+10	1	-1E+10	1
4902551	78	C	10/09/2022	14:17	-131.615	48.520	0																										
4902551	79	C	10/19/2022	19:07	-131.555	48.463	0	0.00	0	16.8410	0	32.2990	0	23.480	0	0.000	0	235.8	4	96.8	4	-1E+10	1	-1E+10	1	-1E+10	1	-1E+10	1	-1E+10	1	-1E+10	1
4902551	79	C	10/19/2022	19:07	-131.555	48.463	0	0.10	0	16.8410	0	32.2987	0	23.480	0	0.099	0	235.8	4	96.8	4	-1E+10	1	-1E+10	1	-1E+10	1	-1E+10	1	-1E+10	1	-1E+10	1
4902551	79	C	10/19/2022	19:07	-131.555	48.463	0	1.00	0	16.8410	0	32.2960	0	23.478	0	0.992	0	235.9	4	96.9	4	-1E+10	1	-1E+10	1	-1E+10	1	-1E+10	1	-1E+10	1	-1E+10	1
4902551	79	C	10/19/2022	19:07	-131.555	48.463	0	2.00	0	16.8410	0	32.2960	0	23.478	0	1.983	0	235.9	4	96.9	4	-1E+10	1	-1E+10	1	-1E+10	1	-1E+10	1	-1E+10	1	-1E+10	1
4902551	79	C	10/19/2022	19:07	-131.555	48.463	0	3.00	0	16.8380	0	32.2960	0	23.479	0	2.975	0	235.9	4	96.8	4	-1E+10	1	-1E+10	1	-1E+10	1	-1E+10	1	-1E+10	1	-1E+10	1
4902551	79	C	10/19/2022	19:07	-131.555	48.463	0	4.10	0	16.8330	0	32.3010	0	23.484	0	4.065	0	235.9	4	96.8	4	-1E+10	1	-1E+10	1	-1E+10	1	-1E+10	1	-1E+10	1	-1E+10	1
4902551	79	C	10/19/2022	19:07	-131.555	48.463	0	4.90	0	16.8300	0	32.3030	0	23.486	0	4.859	0	235.9	4	96.8	4	-1E+10	1	-1E+10	1	-1E+10	1	-1E+10	1	-1E+10	1	-1E+10	1
4902551	79	C	10/19/2022	19:07	-131.555	48.463	0	6.10	0	16.8300	0	32.3030	0	23.486	0	6.048	0	235.9	4	96.8	4	-1E+10	1	-1E+10	1	-1E+10	1	-1E+10	1	-1E+10	1	-1E+10	1
4902551	79	C	10/19/2022	19:07	-131.555	48.463	0	7.00	0	16.8300	0	32.3050	0	23.488	0	6.941	0	235.8	4	96.8	4	-1E+10	1	-1E+10	1	-1E+10	1	-1E+10	1	-1E+10	1	-1E+10	1
4902551	79	C	10/19/2022	19:07	-131.555	48.463	0	8.10	0	16.8300	0	32.3040	0	23.487	0	8.032	0	235.9	4	96.8	4	-1E+10	1	-1E+10	1	-1E+10	1	-1E+10	1	-1E+10	1	-1E+10	1
4902551	79	C	10/19/2022	19:07	-131.555	48.463	0	9.40	0	16.8300	0	32.3050	0	23.488	0	9.321	0	235.9	4	96.8	4	-1E+10	1	-1E+10	1	-1E+10	1	-1E+10	1	-1E+10	1	-1E+10	1
4902551	79	C	10/19/2022	19:07	-131.555	48.463	0	10.10	0	16.8300	0	32.3030	0	23.486	0	10.015	0	235.9	4	96.8	4	-1E+10	1	-1E+10	1	-1E+10	1	-1E+10	1	-1E+10	1	-1E+10	1
4902551	79	C	10/19/2022	19:07	-131.555	48.463	0	11.00	0	16.8300	0	32.3040	0	23.487	0	10.907	0	235.8	4	96.8	4	-1E+10	1	-1E+10	1	-1E+10	1	-1E+10	1	-1E+10	1	-1E+10	1
4902551	79	C	10/19/2022	19:07	-131.555	48.463	0	12.00	0	16.8300	0	32.3040	0	23.487	0	11.898	0	235.9	4	96.8	4	-1E+10	1	-1E+10	1	-1E+10	1	-1E+10	1	-1E+10	1	-1E+10	1
4902551	79	C	10/19/2022	19:07	-131.555	48.463	0	13.00	0	16.8300	0	32.3050	0	23.488	0	12.890	0	235.9	4	96.8	4	-1E+10	1	-1E+10	1	-1E+10	1	-1E+10	1	-1E+10	1	-1E+10	1
4902551	79	C	10/19/2022	19:07	-131.555	48.463	0	14.00	0	16.8300	0	32.3050	0	23.488	0	13.881	0	235.9	4	96.8	4	-1E+10	1	-1E+10	1	-1E+10	1	-1E+10	1	-1E+10	1	-1E+10	1
4902551	79	C	10/19/2022	19:07	-131.555	48.463	0	15.10	0	16.8300	0	32.3050	0	23.488	0	14.972	0	235.9	4	96.8	4	-1E+10	1	-1E+10	1	-1E+10	1	-1E+10	1	-1E+10	1	-1E+10	1
4902551	79	C	10/19/2022	19:07	-131.555	48.463	0	16.10	0	16.8300	0	32.3060	0	23.489	0	15.964	0	236.0	4	96.9	4	-1E+10	1	-1E+10	1	-1E+10	1	-1E+10	1	-1E+10	1	-1E+10	1
4902551	79	C	10/19/2022	19:07	-131.555	48.463	0	17.30	0	16.8310	0	32.3050	0	23.488	0	17.153	0	236.0	4	96.9	4	-1E+10	1	-1E+10	1	-1E+10	1	-1E+10	1	-1E+10	1	-1E+10	1
4902551	79	C	10/19/2022	19:07	-131.555	48.463	0	18.10	0	16.8310	0	32.3050	0	23.488	0	17.947	0	235.9	4	96.9	4	-1E+10	1	-1E+10	1	-1E+10	1	-1E+10	1	-1E+10	1	-1E+10	1
4902551	79	C	10/19/2022	19:07	-131.555	48.463	0	19.10	0	16.8310	0	32.3050	0	23.488	0	18.938	0	236.1	4	96.9	4	-1E+10	1	-1E+10	1	-1E+10	1	-1E+10	1	-1E+10	1	-1E+10	1
4902551	79	C	10/19/2022	19:07	-131.555	48.463	0	20.10	0	16.8310	0	32.3050	0	23.488	0	19.930	0	236.1	4	96.9	4	-1E+10	1	-1E+10	1	-1E+10	1	-1E+10	1	-1E+10	1	-1E+10	1
4902551	79	C	10/19/2022	19:07	-131.555	48.463	0	21.10	0	16.8310	0	32.3030	0	23.486	0	20.921	0	236.2	4	96.9	4	-1E+10	1	-1E+10	1	-1E+10	1	-1E+10	1	-1E+10	1	-1E+10	1
4902551	79	C	10/19/2022	19:07	-131.555	48.463	0	22.30	0	16.8310	0	32.3060	0	23.489	0	22.111	0	236.2	4	97.0	4	-1E+10	1	-1E+10	1	-1E+10	1	-1E+10	1	-1E+10	1	-1E+10	1
4902551	79	C	10/19/2022	19:07	-131.555	48.463	0	22.90	0	16.8310	0	32.3050	0	23.488	0	22.706	0	236.3	4	97.0	4	-1E+10	1	-1E+10	1	-1E+10	1	-1E+10	1	-1E+10	1	-1E+10	1
4902551	79	C	10/19/2022	19:07	-131.555	48.463	0	23.90	0	16.8310	0	32.3060	0	23.489	0	23.697	0	236.4	4	97.0	4	-1E+10	1	-1E+10	1	-1E+10	1	-1E+10	1	-1E+10	1	-1E+10	1
4902551	79	C	10/19/2022	19:07	-131.555	48.463	0	24.90	0	16.8310	0	32.3050	0	23.488	0	24.689	0	236.5	4	97.1	4	-1E+10	1	-1E+10	1	-1E+10	1	-1E+10	1	-1E+10	1	-1E+10	1
4902551	79	C	10/19/2022	19:07	-131.555	48.463	0	25.90	0	16.8290	0	32.3060	0	23.489	0	25.680	0	236.7	4	97.2	4	-1E+10	1	-1E+10	1	-1E+10	1	-1E+10	1	-1E+10	1	-1E+10	1
4902551	79	C	10/19/2022	19:07	-131.555	48.463	0	27.00	0	16.8290	0	32.3060	0	23.489	0	26.771	0	237.0	4	97.3	4	-1E+10	1	-1E+10	1	-1E+10	1	-1E+10	1	-1E+10	1	-1E+10	1
4902551	79	C	10/19/2022	19:07	-131.555	48.463	0	27.90	0	16.8290	0	32.3060	0	23.489	0	27.663	0	237.3	4	97.4	4	-1E+10	1	-1E+10	1	-1E+10	1	-1E+10	1	-1E+10	1	-1E+10	1
4902551	79	C	10/19/2022	19:07	-131.555	48.463	0	28.90	0	16.8280	0	32.3060	0	23.490	0	28.654	0	237.6	4	97.5	4	-1E+10	1	-1E+10	1	-1E+10	1	-1E+10	1	-1E+10	1	-1E+10	1
4902551	79	C	10/19/2022	19:07	-131.555	48.463	0	29.90	0	16.8250	0	32.3060	0	23.490	0	29.646	0	238.0	4	97.7	4	-1E+10	1	-1E+10	1	-1E+10	1	-1E+10	1	-1E+10	1	-1E+10	1
4902551	79	C	10/19/2022	19:07	-131.555	48.463	0	30.80	0	16.8220	0	32.3050	0	23.490	0	30.538	0	238.5	4	97.9	4	-1E+10	1	-1E+10	1	-1E+10	1	-1E+10	1	-1E+10	1	-1E+10	1
4902551	79	C	10/19/2022	19:07	-131.555	48.463	0	31.80	0	16.8230	0	32.3050	0	23.490	0	31.529	0	239.5	4	98.3	4	-1E+10	1	-1E+10	1	-1E+10	1	-1E+10	1	-1E+10	1	-1E+10	1
4902551	79	C	10/19/2022	19:07	-131.555	48.463	0	32.90	0	16.8230	0	32.3040	0	23.489	0	32.620	0	240.8	4	98.8	4	-1E+10	1	-1E+10	1	-1E+10	1	-1E+10	1	-1E+10	1	-1E+10	1
4902551	79	C	10/19/2022	19:07	-131.555	48.463	0	34.00	0	16.7780	0	32.2960	0	23.494	0	33.710	0	243.2	4	99.7	4	-1E+10	1	-1E+10	1	-1E+10	1	-1E+10	1	-1E+10	1	-1E+10	1
4902551	79	C	10/19/2022	19:07	-131.555	48.463	0	35.20	0	16.0790	0	32.3620	0	23.704	0	34.900	0	247.6	4	100.2	4	-1E+10	1	-1E+10	1	-1E+10	1	-1E+10	1	-1E+10	1	-1E+10	1
4902551	79	C	10/19/2022	19:07	-131.555	48.463	0	35.90	0	15.7520	0	32.3250	0	23.748	0	35.594	0	250.3	4	100.7	4	-1E+10	1	-1E+10	1	-1E+10	1	-1E+10	1	-1E+10	1	-1E+10	1
4902551	79	C	10/19/2022	19:07	-131.555	48.463	0	37.10	0	15.1760	0	32.3190	0	23.870	0	36.784	0	254.0	4	101.0	4	-1E+10	1	-1E+10	1	-1E+10	1	-1E+10	1	-1E+10	1	-1E+10	1
4902551	79	C	10/19/2022	19:07	-131.555	48.463	0	38.10	0	15.0350	0	32.3160	0	23.898	0	37.775	0	256.6	4	101.7	4	-1E+10	1	-1E+10	1	-1E+10	1	-1E+10	1	-1E+10	1	-1E+10	1
4902551	79	C	10/19/2022	19:07	-131.555	48.463	0	39.00	0	14.6430	0	32.3250	0	23.989	0	38.667	0	258.0	4	101.5	4	-1E+10	1	-1E+10	1	-1E+10	1	-1E+10	1	-1E+10	1	-1E+10	1
4902551	79	C	10/19/2022	19:07	-131.555	48.463	0	39.90	0	14.1730	0	32.3370	0	24.096	0	39.560	0	259.8	4	101.3	4	-1E+10	1	-1E+10	1	-1E+10	1	-1E+10	1	-1E+10	1	-1E+10	1
4902551	79	C	10/19/2022	19:07	-131.555	48.463	0	41.10	0	13.7800	0	32.3340	0	24.174	0	40.749	0	262.6	4	101.6	4	-1E+10	1	-1E+10	1	-1E+10	1	-1E+10	1	-1E+10	1	-1E+10	1
4902551	79	C	10/19/2022	19:07	-131.555	48.463	0	41.90	0	13.6480	0	32.3280	0	24.197	0	41.542	0	264.6	4	102.0	4	-1E+10	1	-1E+10	1	-1E+10	1	-1E+10	1	-1E+10	1	-1E+10	1
4902551	79	C	10/19/2022	19:07	-131.555	48.463	0	43.10	0	12.8490	0	32.3540	0	24.375	0	42.732	0	268.3	4	101.8	4	-1E+10	1	-1E+10	1	-1E+10	1	-1E+10	1	-1E+10	1	-1E+10	1
4902551	79	C	10/19/2022	19:07	-131.555	48.463	0	44.10	0	11.9170	0	32.3700	0	24.564	0	43.723	0	269.8	4	100.4	4	-1E+10	1	-1E+10	1	-1E+10	1	-1E+10	1	-1E+10	1	-1E+10	1
4902551	79	C	10/19/2022	19:07	-131.555	48.463	0	45.10	0	11.3750	0	32.3530	0	24.650	0	44.715	0	271.4	4	99.9	4	-1E+10	1	-1E+10	1	-1E+10	1	-1E+10	1	-1E+10	1	-1E+10	1
4902551	79	C	10/19/2022	19:07	-131.555	48.463	0	46.30	0	11.0590	0	32.3510	0	24.704	0	45.904	0	272.2	4	99.5	4	-1E+10	1	-1E+10	1	-1E+10	1	-1E+10	1	-1E+10	1	-1E+10	1
4902551	79	C	10/19/2022	19:07	-131.555	48.463	0	47.10	0	10.7870	0	32.3320	0	24.737	0	46.697	0	273.2	4	99.3	4	-1E+10	1	-1E+10	1	-1E+10	1	-1E+10	1	-1E+10	1	-1E+10	1
4902551	79	C	10/19/2022	19:07	-131.555	48.463	0	47.90	0	10.6510	0	32.3400	0	24.767	0	47.491	0	273.8	4	99.2	4	-1E+10	1	-1E+10	1	-1E+10	1	-1E+10	1	-1E+10	1	-1E+10	1
4902551	79	C	10/19/2022	19:07	-131.555	48.463	0	48.90	0	10.5430	0	32.3490	0	24.792	0	48.482	0	274.5	4	99.2	4	-1E+10	1	-1E+10	1	-1E+10	1	-1E+10	1	-1E+10	1	-1E+10	1
4902551	79	C	10/19/2022	19:07	-131.555	48.463	0	49.90	0	10.4680	0	32.3610	0	24.815	0	49.473	0	274.7	4	99.2	4	-1E+10	1	-1E+10	1	-1E+10	1	-1E+10	1	-1E+10	1	-1E+10	1
4902551	79	C	10/19/2022	19:07	-131.555	48.463	0	51.10	0	10.2690	0	32.4050	0	24.883	0	50.663	0	274.9	4	98.8	4	-1E+10	1	-1E+10	1	-1E+10	1	-1E+10	1	-1E+10	1	-1E+10	1
4902551	79	C	10/19/2022	19:07	-131.555	48.463	0	51.90	0	10.1530	0	32.3840	0	24.886	0	51.456	0	275.2	4	98.7	4	-1E+10	1	-1E+10	1	-1E+10	1	-1E+10	1	-1E+10	1	-1E+10	1
4902551	79	C	10/19/2022	19:07	-131.555	48.463	0	52.90	0	9.8160	0	32.3810	0	24.939	0	52.447	0	275.7	4	98.1	4	-1E+10	1	-1E+10	1	-1E+10	1	-1E+10	1	-1E+10	1	-1E+10	1
4902551	79	C	10/19/2022	19:07	-131.555	48.463	0	53.80	0	9.6900	0	32.3930	0	24.969	0	53.339	0	275.6	4	97.8	4	-1E+10	1	-1E+10	1	-1E+10	1	-1E+10	1	-1E+10	1	-1E+10	1
4902551	79	C	10/19/2022	19:07	-131.555	48.463	0	54.70	0	9.5310	0	32.4100	0	25.008	0	54.231	0	275.4	4	97.5	4	-1E+10	1	-1E+10	1	-1E+10	1	-1E+10	1	-1E+10	1	-1E+10	1
4902551	79	C	10/19/2022	19:07	-131.555	48.463	0	55.70	0	9.3610	0	32.4160	0	25.040	0	55.223	0	274.8	4	96.9	4	-1E+10	1	-1E+10	1	-1E+10	1	-1E+10	1	-1E+10	1	-1E+10	1
4902551	79	C	10/19/2022	19:07	-131.555	48.463	0	56.80	0	9.2090	0	32.4190	0	25.066	0	56.313	0	274.5	4	96.4	4	-1E+10	1	-1E+10	1	-1E+10	1	-1E+10	1	-1E+10	1	-1E+10	1
4902551	79	C	10/19/2022	19:07	-131.555	48.463	0	57.90	0	9.0420	0	32.4200	0	25.093	0	57.404	0	274.1	4	96.0	4	-1E+10	1	-1E+10	1	-1E+10	1	-1E+10	1	-1E+10	1	-1E+10	1
4902551	79	C	10/19/2022	19:07	-131.555	48.463	0	59.00	0	8.9690	0	32.4240	0	25.108	0	58.494	0	273.5	4	95.6	4	-1E+10	1	-1E+10	1	-1E+10	1	-1E+10	1	-1E+10	1	-1E+10	1
4902551	79	C	10/19/2022	19:07	-131.555	48.463	0	60.10	0	8.8160	0	32.4250	0	25.132	0	59.584	0	273.3	4	95.2	4	-1E+10	1	-1E+10	1	-1E+10	1	-1E+10	1	-1E+10	1	-1E+10	1
4902551	79	C	10/19/2022	19:07	-131.555	48.463	0	61.00	0	8.7590	0	32.4240	0	25.140	0	60.477	0	272.9	4	95.0	4	-1E+10	1	-1E+10	1	-1E+10	1	-1E+10	1	-1E+10	1	-1E+10	1
4902551	79	C	10/19/2022	19:07	-131.555	48.463	0	61.80	0	8.7140	0	32.4260	0	25.148	0	61.270	0	272.6	4	94.7	4	-1E+10	1	-1E+10	1	-1E+10	1	-1E+10	1	-1E+10	1	-1E+10	1
4902551	79	C	10/19/2022	19:07	-131.555	48.463	0	62.80	0	8.6620	0	32.4250	0	25.155	0	62.261	0	271.9	4	94.4	4	-1E+10	1	-1E+10	1	-1E+10	1	-1E+10	1	-1E+10	1	-1E+10	1
4902551	79	C	10/19/2022	19:07	-131.555	48.463	0	64.00	0	8.5750	0	32.4300	0	25.172	0	63.450	0	271.3	4	94.0	4	-1E+10	1	-1E+10	1	-1E+10	1	-1E+10	1	-1E+10	1	-1E+10	1
4902551	79	C	10/19/2022	19:07	-131.555	48.463	0	64.90	0	8.4670	0	32.4310	0	25.189	0	64.343	0	271.0	4	93.7	4	-1E+10	1	-1E+10	1	-1E+10	1	-1E+10	1	-1E+10	1	-1E+10	1
4902551	79	C	10/19/2022	19:07	-131.555	48.463	0	65.80	0	8.4510	0	32.4300	0	25.191	0	65.235	0	270.4	4	93.4	4	-1E+10	1	-1E+10	1	-1E+10	1	-1E+10	1	-1E+10	1	-1E+10	1
4902551	79	C	10/19/2022	19:07	-131.555	48.463	0	67.00	0	8.4250	0	32.4300	0	25.195	0	66.424	0	269.5	4	93.1	4	-1E+10	1	-1E+10	1	-1E+10	1	-1E+10	1	-1E+10	1	-1E+10	1
4902551	79	C	10/19/2022	19:07	-131.555	48.463	0	67.90	0	8.3460	0	32.4330	0	25.209	0	67.316	0	269.0	4	92.7	4	-1E+10	1	-1E+10	1	-1E+10	1	-1E+10	1	-1E+10	1	-1E+10	1
4902551	79	C	10/19/2022	19:07	-131.555	48.463	0	68.90	0	8.3160	0	32.4290	0	25.210	0	68.308	0	268.5	4	92.5	4	-1E+10	1	-1E+10	1	-1E+10	1	-1E+10	1	-1E+10	1	-1E+10	1
4902551	79	C	10/19/2022	19:07	-131.555	48.463	0	69.80	0	8.2520	0	32.4320	0	25.222	0	69.200	0	268.2	4	92.3	4	-1E+10	1	-1E+10	1	-1E+10	1	-1E+10	1	-1E+10	1	-1E+10	1
4902551	79	C	10/19/2022	19:07	-131.555	48.463	0	70.80	0	8.1580	0	32.4380	0	25.241	0	70.191	0	268.3	4	92.1	4	-1E+10	1	-1E+10	1	-1E+10	1	-1E+10	1	-1E+10	1	-1E+10	1
4902551	79	C	10/19/2022	19:07	-131.555	48.463	0	72.10	0	8.1010	0	32.4420	0	25.252	0	71.479	0	267.9	4	91.9	4	-1E+10	1	-1E+10	1	-1E+10	1	-1E+10	1	-1E+10	1	-1E+10	1
4902551	79	C	10/19/2022	19:07	-131.555	48.463	0	73.00	0	8.0840	0	32.4400	0	25.253	0	72.372	0	267.5	4	91.7	4	-1E+10	1	-1E+10	1	-1E+10	1	-1E+10	1	-1E+10	1	-1E+10	1
4902551	79	C	10/19/2022	19:07	-131.555	48.463	0	74.00	0	7.9830	0	32.4460	0	25.272	0	73.363	0	267.2	4	91.4	4	-1E+10	1	-1E+10	1	-1E+10	1	-1E+10	1	-1E+10	1	-1E+10	1
4902551	79	C	10/19/2022	19:07	-131.555	48.463	0	75.00	0	7.9590	0	32.4430	0	25.273	0	74.354	0	266.9	4	91.2	4	-1E+10	1	-1E+10	1	-1E+10	1	-1E+10	1	-1E+10	1	-1E+10	1
4902551	79	C	10/19/2022	19:07	-131.555	48.463	0	75.90	0	7.9190	0	32.4450	0	25.281	0	75.246	0	266.5	4	91.0	4	-1E+10	1	-1E+10	1	-1E+10	1	-1E+10	1	-1E+10	1	-1E+10	1
4902551	79	C	10/19/2022	19:07	-131.555	48.463	0	76.90	0	7.8800	0	32.4460	0	25.287	0	76.237	0	266.2	4	90.8	4	-1E+10	1	-1E+10	1	-1E+10	1	-1E+10	1	-1E+10	1	-1E+10	1
4902551	79	C	10/19/2022	19:07	-131.555	48.463	0	77.80	0	7.8470	0	32.4480	0	25.293	0	77.129	0	265.7	4	90.6	4	-1E+10	1	-1E+10	1	-1E+10	1	-1E+10	1	-1E+10	1	-1E+10	1
4902551	79	C	10/19/2022	19:07	-131.555	48.463	0	79.00	0	7.8150	0	32.4480	0	25.298	0	78.319	0	265.1	4	90.3	4	-1E+10	1	-1E+10	1	-1E+10	1	-1E+10	1	-1E+10	1	-1E+10	1
4902551	79	C	10/19/2022	19:07	-131.555	48.463	0	79.90	0	7.7830	0	32.4480	0	25.303	0	79.211	0	264.7	4	90.1	4	-1E+10	1	-1E+10	1	-1E+10	1	-1E+10	1	-1E+10	1	-1E+10	1
4902551	79	C	10/19/2022	19:07	-131.555	48.463	0	80.80	0	7.6780	0	32.4420	0	25.313	0	80.103	0	264.7	4	89.9	4	-1E+10	1	-1E+10	1	-1E+10	1	-1E+10	1	-1E+10	1	-1E+10	1
4902551	79	C	10/19/2022	19:07	-131.555	48.463	0	81.80	0	7.6330	0	32.4390	0	25.317	0	81.094	0	264.9	4	89.9	4	-1E+10	1	-1E+10	1	-1E+10	1	-1E+10	1	-1E+10	1	-1E+10	1
4902551	79	C	10/19/2022	19:07	-131.555	48.463	0	82.80	0	7.5960	0	32.4490	0	25.330	0	82.085	0	271.4	4	92.0	4	-1E+10	1	-1E+10	1	-1E+10	1	-1E+10	1	-1E+10	1	-1E+10	1
4902551	79	C	10/19/2022	19:07	-131.555	48.463	0	84.10	0	7.5510	0	32.4550	0	25.341	0	83.374	0	270.5	4	91.6	4	-1E+10	1	-1E+10	1	-1E+10	1	-1E+10	1	-1E+10	1	-1E+10	1
4902551	79	C	10/19/2022	19:07	-131.555	48.463	0	84.90	0	7.4720	0	32.4530	0	25.350	0	84.167	0	270.2	4	91.3	4	-1E+10	1	-1E+10	1	-1E+10	1	-1E+10	1	-1E+10	1	-1E+10	1
4902551	79	C	10/19/2022	19:07	-131.555	48.463	0	86.10	0	7.4270	0	32.4520	0	25.355	0	85.356	0	270.0	4	91.2	4	-1E+10	1	-1E+10	1	-1E+10	1	-1E+10	1	-1E+10	1	-1E+10	1
4902551	79	C	10/19/2022	19:07	-131.555	48.463	0	87.10	0	7.4140	0	32.4540	0	25.359	0	86.347	0	269.5	4	91.0	4	-1E+10	1	-1E+10	1	-1E+10	1	-1E+10	1	-1E+10	1	-1E+10	1
4902551	79	C	10/19/2022	19:07	-131.555	48.463	0	88.20	0	7.3920	0	32.4580	0	25.365	0	87.437	0	268.8	4	90.7	4	-1E+10	1	-1E+10	1	-1E+10	1	-1E+10	1	-1E+10	1	-1E+10	1
4902551	79	C	10/19/2022	19:07	-131.555	48.463	0	88.90	0	7.3700	0	32.4580	0	25.368	0	88.131	0	268.4	4	90.5	4	-1E+10	1	-1E+10	1	-1E+10	1	-1E+10	1	-1E+10	1	-1E+10	1
4902551	79	C	10/19/2022	19:07	-131.555	48.463	0	90.10	0	7.3630	0	32.4580	0	25.369	0	89.321	0	267.7	4	90.3	4	-1E+10	1	-1E+10	1	-1E+10	1	-1E+10	1	-1E+10	1	-1E+10	1
4902551	79	C	10/19/2022	19:07	-131.555	48.463	0	91.10	0	7.3160	0	32.4600	0	25.377	0	90.312	0	267.1	4	90.0	4	-1E+10	1	-1E+10	1	-1E+10	1	-1E+10	1	-1E+10	1	-1E+10	1
4902551	79	C	10/19/2022	19:07	-131.555	48.463	0	92.00	0	7.2850	0	32.4600	0	25.381	0	91.204	0	266.6	4	89.8	4	-1E+10	1	-1E+10	1	-1E+10	1	-1E+10	1	-1E+10	1	-1E+10	1
4902551	79	C	10/19/2022	19:07	-131.555	48.463	0	93.10	0	7.2340	0	32.4650	0	25.392	0	92.294	0	266.1	4	89.5	4	-1E+10	1	-1E+10	1	-1E+10	1	-1E+10	1	-1E+10	1	-1E+10	1
4902551	79	C	10/19/2022	19:07	-131.555	48.463	0	93.90	0	7.1800	0	32.4690	0	25.403	0	93.087	0	265.9	4	89.3	4	-1E+10	1	-1E+10	1	-1E+10	1	-1E+10	1	-1E+10	1	-1E+10	1
4902551	79	C	10/19/2022	19:07	-131.555	48.463	0	94.70	0	7.1620	0	32.4690	0	25.405	0	93.880	0	265.5	4	89.1	4	-1E+10	1	-1E+10	1	-1E+10	1	-1E+10	1	-1E+10	1	-1E+10	1
4902551	79	C	10/19/2022	19:07	-131.555	48.463	0	95.90	0	7.1430	0	32.4710	0	25.409	0	95.069	0	264.7	4	88.8	4	-1E+10	1	-1E+10	1	-1E+10	1	-1E+10	1	-1E+10	1	-1E+10	1
4902551	79	C	10/19/2022	19:07	-131.555	48.463	0	97.10	0	7.1270	0	32.4700	0	25.411	0	96.258	0	263.8	4	88.5	4	-1E+10	1	-1E+10	1	-1E+10	1	-1E+10	1	-1E+10	1	-1E+10	1
4902551	79	C	10/19/2022	19:07	-131.555	48.463	0	97.90	0	7.1160	0	32.4720	0	25.414	0	97.051	0	262.9	4	88.2	4	-1E+10	1	-1E+10	1	-1E+10	1	-1E+10	1	-1E+10	1	-1E+10	1
4902551	79	C	10/19/2022	19:07	-131.555	48.463	0	98.80	0	7.0910	0	32.4760	0	25.420	0	97.943	0	262.1	4	87.9	4	-1E+10	1	-1E+10	1	-1E+10	1	-1E+10	1	-1E+10	1	-1E+10	1
4902551	79	C	10/19/2022	19:07	-131.555	48.463	0	100.10	0	7.0000	0	32.5020	0	25.453	0	99.232	0	261.0	4	87.3	4	-1E+10	1	-1E+10	1	-1E+10	1	-1E+10	1	-1E+10	1	-1E+10	1
4902551	79	C	10/19/2022	19:07	-131.555	48.463	0	101.00	0	6.9820	0	32.5080	0	25.460	0	100.124	0	259.9	4	86.9	4	-1E+10	1	-1E+10	1	-1E+10	1	-1E+10	1	-1E+10	1	-1E+10	1
4902551	79	C	10/19/2022	19:07	-131.555	48.463	0	101.90	0	6.9830	0	32.5140	0	25.465	0	101.016	0	258.7	4	86.5	4	-1E+10	1	-1E+10	1	-1E+10	1	-1E+10	1	-1E+10	1	-1E+10	1
4902551	79	C	10/19/2022	19:07	-131.555	48.463	0	102.90	0	6.9950	0	32.5260	0	25.472	0	102.007	0	257.3	4	86.1	4	-1E+10	1	-1E+10	1	-1E+10	1	-1E+10	1	-1E+10	1	-1E+10	1
4902551	79	C	10/19/2022	19:07	-131.555	48.463	0	104.00	0	6.9960	0	32.5320	0	25.477	0	103.097	0	255.8	4	85.6	4	-1E+10	1	-1E+10	1	-1E+10	1	-1E+10	1	-1E+10	1	-1E+10	1
4902551	79	C	10/19/2022	19:07	-131.555	48.463	0	105.00	0	6.9830	0	32.5560	0	25.498	0	104.088	0	254.3	4	85.1	4	-1E+10	1	-1E+10	1	-1E+10	1	-1E+10	1	-1E+10	1	-1E+10	1
4902551	79	C	10/19/2022	19:07	-131.555	48.463	0	106.00	0	6.9900	0	32.5750	0	25.512	0	105.079	0	251.6	4	84.2	4	-1E+10	1	-1E+10	1	-1E+10	1	-1E+10	1	-1E+10	1	-1E+10	1
4902551	79	C	10/19/2022	19:07	-131.555	48.463	0	107.00	0	7.0050	0	32.6060	0	25.534	0	106.070	0	249.2	4	83.5	4	-1E+10	1	-1E+10	1	-1E+10	1	-1E+10	1	-1E+10	1	-1E+10	1
4902551	79	C	10/19/2022	19:07	-131.555	48.463	0	108.00	0	6.9900	0	32.6250	0	25.551	0	107.061	0	246.6	4	82.6	4	-1E+10	1	-1E+10	1	-1E+10	1	-1E+10	1	-1E+10	1	-1E+10	1
4902551	79	C	10/19/2022	19:07	-131.555	48.463	0	108.90	0	6.9550	0	32.6420	0	25.569	0	107.953	0	245.0	4	82.0	4	-1E+10	1	-1E+10	1	-1E+10	1	-1E+10	1	-1E+10	1	-1E+10	1
4902551	79	C	10/19/2022	19:07	-131.555	48.463	0	109.80	0	6.9280	0	32.6640	0	25.590	0	108.845	0	243.6	4	81.5	4	-1E+10	1	-1E+10	1	-1E+10	1	-1E+10	1	-1E+10	1	-1E+10	1
4902551	79	C	10/19/2022	19:07	-131.555	48.463	0	110.80	0	6.9510	0	32.7070	0	25.621	0	109.836	0	242.4	4	81.1	4	-1E+10	1	-1E+10	1	-1E+10	1	-1E+10	1	-1E+10	1	-1E+10	1
4902551	79	C	10/19/2022	19:07	-131.555	48.463	0	111.80	0	6.9390	0	32.7270	0	25.638	0	110.827	0	241.5	4	80.8	4	-1E+10	1	-1E+10	1	-1E+10	1	-1E+10	1	-1E+10	1	-1E+10	1
4902551	79	C	10/19/2022	19:07	-131.555	48.463	0	113.00	0	6.8910	0	32.7260	0	25.644	0	112.016	0	240.2	4	80.3	4	-1E+10	1	-1E+10	1	-1E+10	1	-1E+10	1	-1E+10	1	-1E+10	1
4902551	79	C	10/19/2022	19:07	-131.555	48.463	0	114.00	0	6.8540	0	32.7280	0	25.650	0	113.007	0	238.6	4	79.7	4	-1E+10	1	-1E+10	1	-1E+10	1	-1E+10	1	-1E+10	1	-1E+10	1
4902551	79	C	10/19/2022	19:07	-131.555	48.463	0	115.00	0	6.8130	0	32.7620	0	25.683	0	113.998	0	237.6	4	79.3	4	-1E+10	1	-1E+10	1	-1E+10	1	-1E+10	1	-1E+10	1	-1E+10	1
4902551	79	C	10/19/2022	19:07	-131.555	48.463	0	115.90	0	6.7960	0	32.7920	0	25.708	0	114.890	0	236.7	4	79.0	4	-1E+10	1	-1E+10	1	-1E+10	1	-1E+10	1	-1E+10	1	-1E+10	1
4902551	79	C	10/19/2022	19:07	-131.555	48.463	0	116.90	0	6.7670	0	32.8040	0	25.722	0	115.881	0	235.9	4	78.7	4	-1E+10	1	-1E+10	1	-1E+10	1	-1E+10	1	-1E+10	1	-1E+10	1
4902551	79	C	10/19/2022	19:07	-131.555	48.463	0	118.00	0	6.7320	0	32.8090	0	25.730	0	116.971	0	235.0	4	78.3	4	-1E+10	1	-1E+10	1	-1E+10	1	-1E+10	1	-1E+10	1	-1E+10	1
4902551	79	C	10/19/2022	19:07	-131.555	48.463	0	119.10	0	6.6330	0	32.8230	0	25.754	0	118.061	0	233.4	4	77.6	4	-1E+10	1	-1E+10	1	-1E+10	1	-1E+10	1	-1E+10	1	-1E+10	1
4902551	79	C	10/19/2022	19:07	-131.555	48.463	0	120.00	0	6.5340	0	32.8300	0	25.772	0	118.953	0	232.3	4	77.1	4	-1E+10	1	-1E+10	1	-1E+10	1	-1E+10	1	-1E+10	1	-1E+10	1
4902551	79	C	10/19/2022	19:07	-131.555	48.463	0	121.00	0	6.4630	0	32.8590	0	25.804	0	119.944	0	230.7	4	76.4	4	-1E+10	1	-1E+10	1	-1E+10	1	-1E+10	1	-1E+10	1	-1E+10	1
4902551	79	C	10/19/2022	19:07	-131.555	48.463	0	122.00	0	6.4400	0	32.8860	0	25.829	0	120.935	0	228.8	4	75.8	4	-1E+10	1	-1E+10	1	-1E+10	1	-1E+10	1	-1E+10	1	-1E+10	1
4902551	79	C	10/19/2022	19:07	-131.555	48.463	0	123.00	0	6.4340	0	32.9350	0	25.868	0	121.926	0	227.4	4	75.3	4	-1E+10	1	-1E+10	1	-1E+10	1	-1E+10	1	-1E+10	1	-1E+10	1
4902551	79	C	10/19/2022	19:07	-131.555	48.463	0	124.20	0	6.4330	0	32.9680	0	25.894	0	123.115	0	226.2	4	75.0	4	-1E+10	1	-1E+10	1	-1E+10	1	-1E+10	1	-1E+10	1	-1E+10	1
4902551	79	C	10/19/2022	19:07	-131.555	48.463	0	124.90	0	6.4320	0	32.9770	0	25.902	0	123.809	0	225.4	4	74.7	4	-1E+10	1	-1E+10	1	-1E+10	1	-1E+10	1	-1E+10	1	-1E+10	1
4902551	79	C	10/19/2022	19:07	-131.555	48.463	0	125.90	0	6.4300	0	32.9830	0	25.907	0	124.800	0	224.0	4	74.2	4	-1E+10	1	-1E+10	1	-1E+10	1	-1E+10	1	-1E+10	1	-1E+10	1
4902551	79	C	10/19/2022	19:07	-131.555	48.463	0	127.00	0	6.4270	0	32.9890	0	25.912	0	125.890	0	222.4	4	73.7	4	-1E+10	1	-1E+10	1	-1E+10	1	-1E+10	1	-1E+10	1	-1E+10	1
4902551	79	C	10/19/2022	19:07	-131.555	48.463	0	128.00	0	6.4150	0	32.9970	0	25.920	0	126.881	0	220.3	4	73.0	4	-1E+10	1	-1E+10	1	-1E+10	1	-1E+10	1	-1E+10	1	-1E+10	1
4902551	79	C	10/19/2022	19:07	-131.555	48.463	0	129.20	0	6.4310	0	33.0260	0	25.940	0	128.070	0	218.0	4	72.3	4	-1E+10	1	-1E+10	1	-1E+10	1	-1E+10	1	-1E+10	1	-1E+10	1
4902551	79	C	10/19/2022	19:07	-131.555	48.463	0	129.90	0	6.4140	0	33.0360	0	25.950	0	128.764	0	216.7	4	71.8	4	-1E+10	1	-1E+10	1	-1E+10	1	-1E+10	1	-1E+10	1	-1E+10	1
4902551	79	C	10/19/2022	19:07	-131.555	48.463	0	130.90	0	6.4100	0	33.0660	0	25.975	0	129.755	0	214.9	4	71.2	4	-1E+10	1	-1E+10	1	-1E+10	1	-1E+10	1	-1E+10	1	-1E+10	1
4902551	79	C	10/19/2022	19:07	-131.555	48.463	0	132.00	0	6.4130	0	33.0840	0	25.988	0	130.845	0	212.9	4	70.6	4	-1E+10	1	-1E+10	1	-1E+10	1	-1E+10	1	-1E+10	1	-1E+10	1
4902551	79	C	10/19/2022	19:07	-131.555	48.463	0	133.00	0	6.4140	0	33.0970	0	25.999	0	131.836	0	210.6	4	69.8	4	-1E+10	1	-1E+10	1	-1E+10	1	-1E+10	1	-1E+10	1	-1E+10	1
4902551	79	C	10/19/2022	19:07	-131.555	48.463	0	134.00	0	6.4070	0	33.1310	0	26.026	0	132.827	0	208.4	4	69.1	4	-1E+10	1	-1E+10	1	-1E+10	1	-1E+10	1	-1E+10	1	-1E+10	1
4902551	79	C	10/19/2022	19:07	-131.555	48.463	0	135.00	0	6.4090	0	33.1730	0	26.059	0	133.818	0	206.1	4	68.4	4	-1E+10	1	-1E+10	1	-1E+10	1	-1E+10	1	-1E+10	1	-1E+10	1
4902551	79	C	10/19/2022	19:07	-131.555	48.463	0	136.10	0	6.4050	0	33.2140	0	26.092	0	134.908	0	204.4	4	67.8	4	-1E+10	1	-1E+10	1	-1E+10	1	-1E+10	1	-1E+10	1	-1E+10	1
4902551	79	C	10/19/2022	19:07	-131.555	48.463	0	136.80	0	6.4090	0	33.2300	0	26.104	0	135.601	0	203.0	4	67.4	4	-1E+10	1	-1E+10	1	-1E+10	1	-1E+10	1	-1E+10	1	-1E+10	1
4902551	79	C	10/19/2022	19:07	-131.555	48.463	0	137.80	0	6.4210	0	33.2430	0	26.113	0	136.592	0	201.0	4	66.7	4	-1E+10	1	-1E+10	1	-1E+10	1	-1E+10	1	-1E+10	1	-1E+10	1
4902551	79	C	10/19/2022	19:07	-131.555	48.463	0	139.00	0	6.4710	0	33.2700	0	26.128	0	137.781	0	199.4	4	66.3	4	-1E+10	1	-1E+10	1	-1E+10	1	-1E+10	1	-1E+10	1	-1E+10	1
4902551	79	C	10/19/2022	19:07	-131.555	48.463	0	139.70	0	6.5280	0	33.3050	0	26.148	0	138.475	0	198.4	4	66.1	4	-1E+10	1	-1E+10	1	-1E+10	1	-1E+10	1	-1E+10	1	-1E+10	1
4902551	79	C	10/19/2022	19:07	-131.555	48.463	0	140.80	0	6.5270	0	33.3100	0	26.152	0	139.565	0	197.2	4	65.7	4	-1E+10	1	-1E+10	1	-1E+10	1	-1E+10	1	-1E+10	1	-1E+10	1
4902551	79	C	10/19/2022	19:07	-131.555	48.463	0	142.00	0	6.5250	0	33.3110	0	26.153	0	140.754	0	195.8	4	65.2	4	-1E+10	1	-1E+10	1	-1E+10	1	-1E+10	1	-1E+10	1	-1E+10	1
4902551	79	C	10/19/2022	19:07	-131.555	48.463	0	143.00	0	6.5060	0	33.3380	0	26.177	0	141.745	0	194.3	4	64.7	4	-1E+10	1	-1E+10	1	-1E+10	1	-1E+10	1	-1E+10	1	-1E+10	1
4902551	79	C	10/19/2022	19:07	-131.555	48.463	0	144.20	0	6.4490	0	33.3610	0	26.203	0	142.934	0	192.9	4	64.1	4	-1E+10	1	-1E+10	1	-1E+10	1	-1E+10	1	-1E+10	1	-1E+10	1
4902551	79	C	10/19/2022	19:07	-131.555	48.463	0	145.00	0	6.4410	0	33.3780	0	26.217	0	143.727	0	191.9	4	63.8	4	-1E+10	1	-1E+10	1	-1E+10	1	-1E+10	1	-1E+10	1	-1E+10	1
4902551	79	C	10/19/2022	19:07	-131.555	48.463	0	145.70	0	6.4270	0	33.3920	0	26.230	0	144.420	0	190.8	4	63.4	4	-1E+10	1	-1E+10	1	-1E+10	1	-1E+10	1	-1E+10	1	-1E+10	1
4902551	79	C	10/19/2022	19:07	-131.555	48.463	0	146.80	0	6.4190	0	33.4090	0	26.244	0	145.510	0	189.2	4	62.9	4	-1E+10	1	-1E+10	1	-1E+10	1	-1E+10	1	-1E+10	1	-1E+10	1
4902551	79	C	10/19/2022	19:07	-131.555	48.463	0	148.10	0	6.4210	0	33.4260	0	26.257	0	146.798	0	187.3	4	62.3	4	-1E+10	1	-1E+10	1	-1E+10	1	-1E+10	1	-1E+10	1	-1E+10	1
4902551	79	C	10/19/2022	19:07	-131.555	48.463	0	148.90	0	6.4020	0	33.4410	0	26.272	0	147.591	0	186.2	4	61.9	4	-1E+10	1	-1E+10	1	-1E+10	1	-1E+10	1	-1E+10	1	-1E+10	1
4902551	79	C	10/19/2022	19:07	-131.555	48.463	0	149.70	0	6.4040	0	33.4660	0	26.291	0	148.384	0	185.4	4	61.6	4	-1E+10	1	-1E+10	1	-1E+10	1	-1E+10	1	-1E+10	1	-1E+10	1
4902551	79	C	10/19/2022	19:07	-131.555	48.463	0	150.90	0	6.4010	0	33.4750	0	26.299	0	149.573	0	184.2	4	61.2	4	-1E+10	1	-1E+10	1	-1E+10	1	-1E+10	1	-1E+10	1	-1E+10	1
4902551	79	C	10/19/2022	19:07	-131.555	48.463	0	152.30	0	6.3810	0	33.5030	0	26.323	0	150.960	0	183.2	4	60.9	4	-1E+10	1	-1E+10	1	-1E+10	1	-1E+10	1	-1E+10	1	-1E+10	1
4902551	79	C	10/19/2022	19:07	-131.555	48.463	0	153.10	0	6.3810	0	33.5100	0	26.329	0	151.753	0	182.4	4	60.6	4	-1E+10	1	-1E+10	1	-1E+10	1	-1E+10	1	-1E+10	1	-1E+10	1
4902551	79	C	10/19/2022	19:07	-131.555	48.463	0	154.00	0	6.3760	0	33.5200	0	26.337	0	152.644	0	181.7	4	60.4	4	-1E+10	1	-1E+10	1	-1E+10	1	-1E+10	1	-1E+10	1	-1E+10	1
4902551	79	C	10/19/2022	19:07	-131.555	48.463	0	154.80	0	6.3710	0	33.5290	0	26.345	0	153.437	0	180.9	4	60.1	4	-1E+10	1	-1E+10	1	-1E+10	1	-1E+10	1	-1E+10	1	-1E+10	1
4902551	79	C	10/19/2022	19:07	-131.555	48.463	0	155.70	0	6.3670	0	33.5380	0	26.353	0	154.329	0	180.1	4	59.8	4	-1E+10	1	-1E+10	1	-1E+10	1	-1E+10	1	-1E+10	1	-1E+10	1
4902551	79	C	10/19/2022	19:07	-131.555	48.463	0	156.60	0	6.3640	0	33.5440	0	26.358	0	155.220	0	179.3	4	59.6	4	-1E+10	1	-1E+10	1	-1E+10	1	-1E+10	1	-1E+10	1	-1E+10	1
4902551	79	C	10/19/2022	19:07	-131.555	48.463	0	157.60	0	6.3610	0	33.5470	0	26.361	0	156.211	0	178.5	4	59.3	4	-1E+10	1	-1E+10	1	-1E+10	1	-1E+10	1	-1E+10	1	-1E+10	1
4902551	79	C	10/19/2022	19:07	-131.555	48.463	0	158.90	0	6.3490	0	33.5580	0	26.371	0	157.499	0	177.4	4	58.9	4	-1E+10	1	-1E+10	1	-1E+10	1	-1E+10	1	-1E+10	1	-1E+10	1
4902551	79	C	10/19/2022	19:07	-131.555	48.463	0	160.40	0	6.3290	0	33.5760	0	26.388	0	158.985	0	176.5	4	58.6	4	-1E+10	1	-1E+10	1	-1E+10	1	-1E+10	1	-1E+10	1	-1E+10	1
4902551	79	C	10/19/2022	19:07	-131.555	48.463	0	161.40	0	6.3290	0	33.5770	0	26.389	0	159.976	0	175.9	4	58.4	4	-1E+10	1	-1E+10	1	-1E+10	1	-1E+10	1	-1E+10	1	-1E+10	1
4902551	79	C	10/19/2022	19:07	-131.555	48.463	0	162.40	0	6.3290	0	33.5770	0	26.389	0	160.967	0	175.3	4	58.2	4	-1E+10	1	-1E+10	1	-1E+10	1	-1E+10	1	-1E+10	1	-1E+10	1
4902551	79	C	10/19/2022	19:07	-131.555	48.463	0	163.40	0	6.3290	0	33.5770	0	26.389	0	161.958	0	174.6	4	58.0	4	-1E+10	1	-1E+10	1	-1E+10	1	-1E+10	1	-1E+10	1	-1E+10	1
4902551	79	C	10/19/2022	19:07	-131.555	48.463	0	164.40	0	6.3260	0	33.5790	0	26.391	0	162.949	0	173.8	4	57.7	4	-1E+10	1	-1E+10	1	-1E+10	1	-1E+10	1	-1E+10	1	-1E+10	1
4902551	79	C	10/19/2022	19:07	-131.555	48.463	0	165.40	0	6.3170	0	33.5870	0	26.398	0	163.939	0	173.0	4	57.5	4	-1E+10	1	-1E+10	1	-1E+10	1	-1E+10	1	-1E+10	1	-1E+10	1
4902551	79	C	10/19/2022	19:07	-131.555	48.463	0	166.40	0	6.3150	0	33.5880	0	26.399	0	164.930	0	172.2	4	57.2	4	-1E+10	1	-1E+10	1	-1E+10	1	-1E+10	1	-1E+10	1	-1E+10	1
4902551	79	C	10/19/2022	19:07	-131.555	48.463	0	167.40	0	6.3050	0	33.5950	0	26.406	0	165.921	0	171.4	4	56.9	4	-1E+10	1	-1E+10	1	-1E+10	1	-1E+10	1	-1E+10	1	-1E+10	1
4902551	79	C	10/19/2022	19:07	-131.555	48.463	0	168.40	0	6.2950	0	33.6020	0	26.413	0	166.912	0	170.5	4	56.6	4	-1E+10	1	-1E+10	1	-1E+10	1	-1E+10	1	-1E+10	1	-1E+10	1
4902551	79	C	10/19/2022	19:07	-131.555	48.463	0	169.40	0	6.2810	0	33.6130	0	26.423	0	167.902	0	169.7	4	56.3	4	-1E+10	1	-1E+10	1	-1E+10	1	-1E+10	1	-1E+10	1	-1E+10	1
4902551	79	C	10/19/2022	19:07	-131.555	48.463	0	170.40	0	6.2750	0	33.6160	0	26.426	0	168.893	0	168.8	4	56.0	4	-1E+10	1	-1E+10	1	-1E+10	1	-1E+10	1	-1E+10	1	-1E+10	1
4902551	79	C	10/19/2022	19:07	-131.555	48.463	0	171.40	0	6.2610	0	33.6260	0	26.436	0	169.884	0	167.8	4	55.7	4	-1E+10	1	-1E+10	1	-1E+10	1	-1E+10	1	-1E+10	1	-1E+10	1
4902551	79	C	10/19/2022	19:07	-131.555	48.463	0	172.40	0	6.2530	0	33.6300	0	26.440	0	170.875	0	167.1	4	55.4	4	-1E+10	1	-1E+10	1	-1E+10	1	-1E+10	1	-1E+10	1	-1E+10	1
4902551	79	C	10/19/2022	19:07	-131.555	48.463	0	173.50	0	6.2410	0	33.6400	0	26.450	0	171.964	0	166.2	4	55.1	4	-1E+10	1	-1E+10	1	-1E+10	1	-1E+10	1	-1E+10	1	-1E+10	1
4902551	79	C	10/19/2022	19:07	-131.555	48.463	0	174.50	0	6.2270	0	33.6460	0	26.456	0	172.955	0	165.3	4	54.8	4	-1E+10	1	-1E+10	1	-1E+10	1	-1E+10	1	-1E+10	1	-1E+10	1
4902551	79	C	10/19/2022	19:07	-131.555	48.463	0	175.50	0	6.2070	0	33.6540	0	26.465	0	173.946	0	164.5	4	54.5	4	-1E+10	1	-1E+10	1	-1E+10	1	-1E+10	1	-1E+10	1	-1E+10	1
4902551	79	C	10/19/2022	19:07	-131.555	48.463	0	176.50	0	6.1830	0	33.6600	0	26.473	0	174.937	0	163.7	4	54.2	4	-1E+10	1	-1E+10	1	-1E+10	1	-1E+10	1	-1E+10	1	-1E+10	1
4902551	79	C	10/19/2022	19:07	-131.555	48.463	0	177.50	0	6.1400	0	33.6700	0	26.486	0	175.927	0	163.0	4	53.9	4	-1E+10	1	-1E+10	1	-1E+10	1	-1E+10	1	-1E+10	1	-1E+10	1
4902551	79	C	10/19/2022	19:07	-131.555	48.463	0	178.50	0	6.1260	0	33.6720	0	26.490	0	176.918	0	162.4	4	53.7	4	-1E+10	1	-1E+10	1	-1E+10	1	-1E+10	1	-1E+10	1	-1E+10	1
4902551	79	C	10/19/2022	19:07	-131.555	48.463	0	180.00	0	6.1040	0	33.6780	0	26.497	0	178.404	0	161.4	4	53.4	4	-1E+10	1	-1E+10	1	-1E+10	1	-1E+10	1	-1E+10	1	-1E+10	1
4902551	79	C	10/19/2022	19:07	-131.555	48.463	0	181.20	0	6.1010	0	33.6780	0	26.497	0	179.593	0	160.7	4	53.1	4	-1E+10	1	-1E+10	1	-1E+10	1	-1E+10	1	-1E+10	1	-1E+10	1
4902551	79	C	10/19/2022	19:07	-131.555	48.463	0	182.00	0	6.0820	0	33.6820	0	26.503	0	180.386	0	160.1	4	52.9	4	-1E+10	1	-1E+10	1	-1E+10	1	-1E+10	1	-1E+10	1	-1E+10	1
4902551	79	C	10/19/2022	19:07	-131.555	48.463	0	182.80	0	6.0570	0	33.6860	0	26.509	0	181.178	0	159.8	4	52.8	4	-1E+10	1	-1E+10	1	-1E+10	1	-1E+10	1	-1E+10	1	-1E+10	1
4902551	79	C	10/19/2022	19:07	-131.555	48.463	0	184.00	0	6.0180	0	33.6900	0	26.517	0	182.367	0	159.3	4	52.6	4	-1E+10	1	-1E+10	1	-1E+10	1	-1E+10	1	-1E+10	1	-1E+10	1
4902551	79	C	10/19/2022	19:07	-131.555	48.463	0	185.20	0	6.0030	0	33.6930	0	26.522	0	183.556	0	158.7	4	52.3	4	-1E+10	1	-1E+10	1	-1E+10	1	-1E+10	1	-1E+10	1	-1E+10	1
4902551	79	C	10/19/2022	19:07	-131.555	48.463	0	186.00	0	5.9960	0	33.6930	0	26.523	0	184.348	0	158.3	4	52.2	4	-1E+10	1	-1E+10	1	-1E+10	1	-1E+10	1	-1E+10	1	-1E+10	1
4902551	79	C	10/19/2022	19:07	-131.555	48.463	0	186.80	0	5.9930	0	33.6930	0	26.523	0	185.141	0	157.8	4	52.0	4	-1E+10	1	-1E+10	1	-1E+10	1	-1E+10	1	-1E+10	1	-1E+10	1
4902551	79	C	10/19/2022	19:07	-131.555	48.463	0	187.90	0	5.9860	0	33.6930	0	26.524	0	186.231	0	156.8	4	51.7	4	-1E+10	1	-1E+10	1	-1E+10	1	-1E+10	1	-1E+10	1	-1E+10	1
4902551	79	C	10/19/2022	19:07	-131.555	48.463	0	189.10	0	5.9700	0	33.6980	0	26.530	0	187.419	0	155.9	4	51.4	4	-1E+10	1	-1E+10	1	-1E+10	1	-1E+10	1	-1E+10	1	-1E+10	1
4902551	79	C	10/19/2022	19:07	-131.555	48.463	0	189.90	0	5.9600	0	33.6990	0	26.532	0	188.212	0	155.4	4	51.2	4	-1E+10	1	-1E+10	1	-1E+10	1	-1E+10	1	-1E+10	1	-1E+10	1
4902551	79	C	10/19/2022	19:07	-131.555	48.463	0	190.70	0	5.9500	0	33.7000	0	26.534	0	189.004	0	154.7	4	51.0	4	-1E+10	1	-1E+10	1	-1E+10	1	-1E+10	1	-1E+10	1	-1E+10	1
4902551	79	C	10/19/2022	19:07	-131.555	48.463	0	192.00	0	5.9440	0	33.7000	0	26.535	0	190.292	0	153.6	4	50.6	4	-1E+10	1	-1E+10	1	-1E+10	1	-1E+10	1	-1E+10	1	-1E+10	1
4902551	79	C	10/19/2022	19:07	-131.555	48.463	0	193.20	0	5.9240	0	33.7010	0	26.538	0	191.481	0	152.6	4	50.2	4	-1E+10	1	-1E+10	1	-1E+10	1	-1E+10	1	-1E+10	1	-1E+10	1
4902551	79	C	10/19/2022	19:07	-131.555	48.463	0	194.10	0	5.9230	0	33.7020	0	26.539	0	192.373	0	151.8	4	50.0	4	-1E+10	1	-1E+10	1	-1E+10	1	-1E+10	1	-1E+10	1	-1E+10	1
4902551	79	C	10/19/2022	19:07	-131.555	48.463	0	194.90	0	5.9200	0	33.7020	0	26.539	0	193.165	0	150.9	4	49.7	4	-1E+10	1	-1E+10	1	-1E+10	1	-1E+10	1	-1E+10	1	-1E+10	1
4902551	79	C	10/19/2022	19:07	-131.555	48.463	0	195.70	0	5.9190	0	33.7020	0	26.539	0	193.958	0	150.0	4	49.4	4	-1E+10	1	-1E+10	1	-1E+10	1	-1E+10	1	-1E+10	1	-1E+10	1
4902551	79	C	10/19/2022	19:07	-131.555	48.463	0	196.90	0	5.8820	0	33.7130	0	26.553	0	195.146	0	148.6	4	48.9	4	-1E+10	1	-1E+10	1	-1E+10	1	-1E+10	1	-1E+10	1	-1E+10	1
4902551	79	C	10/19/2022	19:07	-131.555	48.463	0	198.20	0	5.8240	0	33.7160	0	26.562	0	196.434	0	147.4	4	48.4	4	-1E+10	1	-1E+10	1	-1E+10	1	-1E+10	1	-1E+10	1	-1E+10	1
4902551	79	C	10/19/2022	19:07	-131.555	48.463	0	199.00	0	5.8070	0	33.7190	0	26.567	0	197.227	0	146.6	4	48.2	4	-1E+10	1	-1E+10	1	-1E+10	1	-1E+10	1	-1E+10	1	-1E+10	1
4902551	79	C	10/19/2022	19:07	-131.555	48.463	0	199.80	0	5.7910	0	33.7180	0	26.568	0	198.019	0	145.9	4	47.9	4	-1E+10	1	-1E+10	1	-1E+10	1	-1E+10	1	-1E+10	1	-1E+10	1
4902551	79	C	10/19/2022	19:07	-131.555	48.463	0	201.00	0	5.7600	0	33.7220	0	26.575	0	199.208	0	144.7	4	47.5	4	-1E+10	1	-1E+10	1	-1E+10	1	-1E+10	1	-1E+10	1	-1E+10	1
4902551	79	C	10/19/2022	19:07	-131.555	48.463	0	202.20	0	5.7350	0	33.7220	0	26.578	0	200.397	0	143.5	4	47.1	4	-1E+10	1	-1E+10	1	-1E+10	1	-1E+10	1	-1E+10	1	-1E+10	1
4902551	79	C	10/19/2022	19:07	-131.555	48.463	0	203.00	0	5.7250	0	33.7240	0	26.581	0	201.189	0	142.7	4	46.8	4	-1E+10	1	-1E+10	1	-1E+10	1	-1E+10	1	-1E+10	1	-1E+10	1
4902551	79	C	10/19/2022	19:07	-131.555	48.463	0	203.90	0	5.7080	0	33.7260	0	26.584	0	202.081	0	141.8	4	46.5	4	-1E+10	1	-1E+10	1	-1E+10	1	-1E+10	1	-1E+10	1	-1E+10	1
4902551	79	C	10/19/2022	19:07	-131.555	48.463	0	204.70	0	5.6760	0	33.7330	0	26.594	0	202.873	0	141.2	4	46.2	4	-1E+10	1	-1E+10	1	-1E+10	1	-1E+10	1	-1E+10	1	-1E+10	1
4902551	79	C	10/19/2022	19:07	-131.555	48.463	0	205.90	0	5.6750	0	33.7370	0	26.597	0	204.062	0	140.2	4	45.9	4	-1E+10	1	-1E+10	1	-1E+10	1	-1E+10	1	-1E+10	1	-1E+10	1
4902551	79	C	10/19/2022	19:07	-131.555	48.463	0	207.10	0	5.6340	0	33.7520	0	26.614	0	205.250	0	139.2	4	45.5	4	-1E+10	1	-1E+10	1	-1E+10	1	-1E+10	1	-1E+10	1	-1E+10	1
4902551	79	C	10/19/2022	19:07	-131.555	48.463	0	207.90	0	5.5900	0	33.7460	0	26.614	0	206.043	0	138.8	4	45.4	4	-1E+10	1	-1E+10	1	-1E+10	1	-1E+10	1	-1E+10	1	-1E+10	1
4902551	79	C	10/19/2022	19:07	-131.555	48.463	0	208.70	0	5.5640	0	33.7400	0	26.613	0	206.835	0	138.4	4	45.2	4	-1E+10	1	-1E+10	1	-1E+10	1	-1E+10	1	-1E+10	1	-1E+10	1
4902551	79	C	10/19/2022	19:07	-131.555	48.463	0	210.00	0	5.5480	0	33.7420	0	26.616	0	208.123	0	137.6	4	44.9	4	-1E+10	1	-1E+10	1	-1E+10	1	-1E+10	1	-1E+10	1	-1E+10	1
4902551	79	C	10/19/2022	19:07	-131.555	48.463	0	211.20	0	5.5380	0	33.7410	0	26.617	0	209.312	0	136.9	4	44.7	4	-1E+10	1	-1E+10	1	-1E+10	1	-1E+10	1	-1E+10	1	-1E+10	1
4902551	79	C	10/19/2022	19:07	-131.555	48.463	0	212.00	0	5.5330	0	33.7430	0	26.619	0	210.104	0	136.2	4	44.5	4	-1E+10	1	-1E+10	1	-1E+10	1	-1E+10	1	-1E+10	1	-1E+10	1
4902551	79	C	10/19/2022	19:07	-131.555	48.463	0	212.80	0	5.5180	0	33.7420	0	26.620	0	210.897	0	135.7	4	44.3	4	-1E+10	1	-1E+10	1	-1E+10	1	-1E+10	1	-1E+10	1	-1E+10	1
4902551	79	C	10/19/2022	19:07	-131.555	48.463	0	213.70	0	5.5060	0	33.7420	0	26.621	0	211.788	0	135.1	4	44.1	4	-1E+10	1	-1E+10	1	-1E+10	1	-1E+10	1	-1E+10	1	-1E+10	1
4902551	79	C	10/19/2022	19:07	-131.555	48.463	0	214.90	0	5.4700	0	33.7440	0	26.627	0	212.977	0	134.4	4	43.8	4	-1E+10	1	-1E+10	1	-1E+10	1	-1E+10	1	-1E+10	1	-1E+10	1
4902551	79	C	10/19/2022	19:07	-131.555	48.463	0	216.20	0	5.4570	0	33.7440	0	26.629	0	214.264	0	133.7	4	43.5	4	-1E+10	1	-1E+10	1	-1E+10	1	-1E+10	1	-1E+10	1	-1E+10	1
4902551	79	C	10/19/2022	19:07	-131.555	48.463	0	217.00	0	5.4410	0	33.7470	0	26.633	0	215.057	0	133.2	4	43.4	4	-1E+10	1	-1E+10	1	-1E+10	1	-1E+10	1	-1E+10	1	-1E+10	1
4902551	79	C	10/19/2022	19:07	-131.555	48.463	0	217.90	0	5.4210	0	33.7460	0	26.634	0	215.948	0	132.8	4	43.2	4	-1E+10	1	-1E+10	1	-1E+10	1	-1E+10	1	-1E+10	1	-1E+10	1
4902551	79	C	10/19/2022	19:07	-131.555	48.463	0	218.70	0	5.4170	0	33.7480	0	26.637	0	216.741	0	132.4	4	43.1	4	-1E+10	1	-1E+10	1	-1E+10	1	-1E+10	1	-1E+10	1	-1E+10	1
4902551	79	C	10/19/2022	19:07	-131.555	48.463	0	220.00	0	5.4160	0	33.7470	0	26.636	0	218.028	0	131.7	4	42.9	4	-1E+10	1	-1E+10	1	-1E+10	1	-1E+10	1	-1E+10	1	-1E+10	1
4902551	79	C	10/19/2022	19:07	-131.555	48.463	0	221.20	0	5.4140	0	33.7480	0	26.637	0	219.217	0	130.8	4	42.6	4	-1E+10	1	-1E+10	1	-1E+10	1	-1E+10	1	-1E+10	1	-1E+10	1
4902551	79	C	10/19/2022	19:07	-131.555	48.463	0	222.10	0	5.4050	0	33.7470	0	26.637	0	220.109	0	130.3	4	42.4	4	-1E+10	1	-1E+10	1	-1E+10	1	-1E+10	1	-1E+10	1	-1E+10	1
4902551	79	C	10/19/2022	19:07	-131.555	48.463	0	222.90	0	5.3990	0	33.7500	0	26.640	0	220.901	0	129.7	4	42.2	4	-1E+10	1	-1E+10	1	-1E+10	1	-1E+10	1	-1E+10	1	-1E+10	1
4902551	79	C	10/19/2022	19:07	-131.555	48.463	0	223.70	0	5.3830	0	33.7510	0	26.643	0	221.693	0	129.2	4	42.0	4	-1E+10	1	-1E+10	1	-1E+10	1	-1E+10	1	-1E+10	1	-1E+10	1
4902551	79	C	10/19/2022	19:07	-131.555	48.463	0	225.00	0	5.3630	0	33.7520	0	26.646	0	222.981	0	128.4	4	41.7	4	-1E+10	1	-1E+10	1	-1E+10	1	-1E+10	1	-1E+10	1	-1E+10	1
4902551	79	C	10/19/2022	19:07	-131.555	48.463	0	226.20	0	5.3460	0	33.7520	0	26.648	0	224.170	0	127.6	4	41.5	4	-1E+10	1	-1E+10	1	-1E+10	1	-1E+10	1	-1E+10	1	-1E+10	1
4902551	79	C	10/19/2022	19:07	-131.555	48.463	0	227.10	0	5.3440	0	33.7510	0	26.648	0	225.061	0	127.0	4	41.3	4	-1E+10	1	-1E+10	1	-1E+10	1	-1E+10	1	-1E+10	1	-1E+10	1
4902551	79	C	10/19/2022	19:07	-131.555	48.463	0	227.90	0	5.3370	0	33.7520	0	26.649	0	225.853	0	126.3	4	41.0	4	-1E+10	1	-1E+10	1	-1E+10	1	-1E+10	1	-1E+10	1	-1E+10	1
4902551	79	C	10/19/2022	19:07	-131.555	48.463	0	228.80	0	5.3330	0	33.7540	0	26.651	0	226.745	0	125.6	4	40.8	4	-1E+10	1	-1E+10	1	-1E+10	1	-1E+10	1	-1E+10	1	-1E+10	1
4902551	79	C	10/19/2022	19:07	-131.555	48.463	0	229.60	0	5.2900	0	33.7640	0	26.664	0	227.537	0	125.1	4	40.6	4	-1E+10	1	-1E+10	1	-1E+10	1	-1E+10	1	-1E+10	1	-1E+10	1
4902551	79	C	10/19/2022	19:07	-131.555	48.463	0	230.90	0	5.2730	0	33.7560	0	26.660	0	228.825	0	124.5	4	40.4	4	-1E+10	1	-1E+10	1	-1E+10	1	-1E+10	1	-1E+10	1	-1E+10	1
4902551	79	C	10/19/2022	19:07	-131.555	48.463	0	232.20	0	5.2600	0	33.7570	0	26.662	0	230.112	0	123.8	4	40.1	4	-1E+10	1	-1E+10	1	-1E+10	1	-1E+10	1	-1E+10	1	-1E+10	1
4902551	79	C	10/19/2022	19:07	-131.555	48.463	0	233.10	0	5.2520	0	33.7580	0	26.664	0	231.004	0	123.3	4	40.0	4	-1E+10	1	-1E+10	1	-1E+10	1	-1E+10	1	-1E+10	1	-1E+10	1
4902551	79	C	10/19/2022	19:07	-131.555	48.463	0	234.00	0	5.2410	0	33.7580	0	26.665	0	231.895	0	122.8	4	39.8	4	-1E+10	1	-1E+10	1	-1E+10	1	-1E+10	1	-1E+10	1	-1E+10	1
4902551	79	C	10/19/2022	19:07	-131.555	48.463	0	234.90	0	5.2320	0	33.7580	0	26.666	0	232.787	0	122.3	4	39.6	4	-1E+10	1	-1E+10	1	-1E+10	1	-1E+10	1	-1E+10	1	-1E+10	1
4902551	79	C	10/19/2022	19:07	-131.555	48.463	0	235.70	0	5.2200	0	33.7590	0	26.668	0	233.579	0	121.9	4	39.5	4	-1E+10	1	-1E+10	1	-1E+10	1	-1E+10	1	-1E+10	1	-1E+10	1
4902551	79	C	10/19/2022	19:07	-131.555	48.463	0	236.60	0	5.2150	0	33.7600	0	26.670	0	234.470	0	121.4	4	39.3	4	-1E+10	1	-1E+10	1	-1E+10	1	-1E+10	1	-1E+10	1	-1E+10	1
4902551	79	C	10/19/2022	19:07	-131.555	48.463	0	237.90	0	5.2100	0	33.7600	0	26.670	0	235.758	0	120.6	4	39.1	4	-1E+10	1	-1E+10	1	-1E+10	1	-1E+10	1	-1E+10	1	-1E+10	1
4902551	79	C	10/19/2022	19:07	-131.555	48.463	0	239.30	0	5.1890	0	33.7620	0	26.674	0	237.144	0	119.9	4	38.8	4	-1E+10	1	-1E+10	1	-1E+10	1	-1E+10	1	-1E+10	1	-1E+10	1
4902551	79	C	10/19/2022	19:07	-131.555	48.463	0	240.20	0	5.1860	0	33.7630	0	26.676	0	238.036	0	119.4	4	38.7	4	-1E+10	1	-1E+10	1	-1E+10	1	-1E+10	1	-1E+10	1	-1E+10	1
4902551	79	C	10/19/2022	19:07	-131.555	48.463	0	241.10	0	5.1790	0	33.7640	0	26.677	0	238.927	0	118.9	4	38.5	4	-1E+10	1	-1E+10	1	-1E+10	1	-1E+10	1	-1E+10	1	-1E+10	1
4902551	79	C	10/19/2022	19:07	-131.555	48.463	0	242.00	0	5.1640	0	33.7650	0	26.680	0	239.819	0	118.4	4	38.3	4	-1E+10	1	-1E+10	1	-1E+10	1	-1E+10	1	-1E+10	1	-1E+10	1
4902551	79	C	10/19/2022	19:07	-131.555	48.463	0	242.90	0	5.1520	0	33.7640	0	26.680	0	240.710	0	118.0	4	38.2	4	-1E+10	1	-1E+10	1	-1E+10	1	-1E+10	1	-1E+10	1	-1E+10	1
4902551	79	C	10/19/2022	19:07	-131.555	48.463	0	243.90	0	5.1490	0	33.7640	0	26.681	0	241.700	0	117.5	4	38.0	4	-1E+10	1	-1E+10	1	-1E+10	1	-1E+10	1	-1E+10	1	-1E+10	1
4902551	79	C	10/19/2022	19:07	-131.555	48.463	0	244.80	0	5.1340	0	33.7660	0	26.684	0	242.592	0	117.1	4	37.9	4	-1E+10	1	-1E+10	1	-1E+10	1	-1E+10	1	-1E+10	1	-1E+10	1
4902551	79	C	10/19/2022	19:07	-131.555	48.463	0	245.70	0	5.1310	0	33.7660	0	26.684	0	243.483	0	116.6	4	37.7	4	-1E+10	1	-1E+10	1	-1E+10	1	-1E+10	1	-1E+10	1	-1E+10	1
4902551	79	C	10/19/2022	19:07	-131.555	48.463	0	246.90	0	5.1280	0	33.7660	0	26.685	0	244.671	0	115.9	4	37.5	4	-1E+10	1	-1E+10	1	-1E+10	1	-1E+10	1	-1E+10	1	-1E+10	1
4902551	79	C	10/19/2022	19:07	-131.555	48.463	0	248.30	0	5.1220	0	33.7660	0	26.685	0	246.058	0	115.1	4	37.2	4	-1E+10	1	-1E+10	1	-1E+10	1	-1E+10	1	-1E+10	1	-1E+10	1
4902551	79	C	10/19/2022	19:07	-131.555	48.463	0	249.30	0	5.1110	0	33.7680	0	26.688	0	247.048	0	114.6	4	37.0	4	-1E+10	1	-1E+10	1	-1E+10	1	-1E+10	1	-1E+10	1	-1E+10	1
4902551	79	C	10/19/2022	19:07	-131.555	48.463	0	250.10	0	5.1040	0	33.7690	0	26.690	0	247.841	0	114.1	4	36.9	4	-1E+10	1	-1E+10	1	-1E+10	1	-1E+10	1	-1E+10	1	-1E+10	1
4902551	79	C	10/19/2022	19:07	-131.555	48.463	0	251.10	0	5.0990	0	33.7690	0	26.690	0	248.831	0	113.6	4	36.7	4	-1E+10	1	-1E+10	1	-1E+10	1	-1E+10	1	-1E+10	1	-1E+10	1
4902551	79	C	10/19/2022	19:07	-131.555	48.463	0	251.90	0	5.0960	0	33.7700	0	26.692	0	249.623	0	113.0	4	36.5	4	-1E+10	1	-1E+10	1	-1E+10	1	-1E+10	1	-1E+10	1	-1E+10	1
4902551	79	C	10/19/2022	19:07	-131.555	48.463	0	252.90	0	5.0910	0	33.7700	0	26.692	0	250.614	0	112.4	4	36.3	4	-1E+10	1	-1E+10	1	-1E+10	1	-1E+10	1	-1E+10	1	-1E+10	1
4902551	79	C	10/19/2022	19:07	-131.555	48.463	0	253.80	0	5.0860	0	33.7710	0	26.693	0	251.505	0	111.8	4	36.1	4	-1E+10	1	-1E+10	1	-1E+10	1	-1E+10	1	-1E+10	1	-1E+10	1
4902551	79	C	10/19/2022	19:07	-131.555	48.463	0	254.70	0	5.0640	0	33.7730	0	26.698	0	252.396	0	111.3	4	36.0	4	-1E+10	1	-1E+10	1	-1E+10	1	-1E+10	1	-1E+10	1	-1E+10	1
4902551	79	C	10/19/2022	19:07	-131.555	48.463	0	255.60	0	5.0560	0	33.7730	0	26.698	0	253.288	0	110.8	4	35.8	4	-1E+10	1	-1E+10	1	-1E+10	1	-1E+10	1	-1E+10	1	-1E+10	1
4902551	79	C	10/19/2022	19:07	-131.555	48.463	0	256.60	0	5.0520	0	33.7740	0	26.700	0	254.278	0	110.2	4	35.6	4	-1E+10	1	-1E+10	1	-1E+10	1	-1E+10	1	-1E+10	1	-1E+10	1
4902551	79	C	10/19/2022	19:07	-131.555	48.463	0	257.90	0	5.0410	0	33.7740	0	26.701	0	255.565	0	109.4	4	35.3	4	-1E+10	1	-1E+10	1	-1E+10	1	-1E+10	1	-1E+10	1	-1E+10	1
4902551	79	C	10/19/2022	19:07	-131.555	48.463	0	259.40	0	5.0240	0	33.7760	0	26.705	0	257.051	0	108.6	4	35.0	4	-1E+10	1	-1E+10	1	-1E+10	1	-1E+10	1	-1E+10	1	-1E+10	1
4902551	79	C	10/19/2022	19:07	-131.555	48.463	0	260.30	0	5.0050	0	33.7800	0	26.710	0	257.942	0	108.3	4	34.9	4	-1E+10	1	-1E+10	1	-1E+10	1	-1E+10	1	-1E+10	1	-1E+10	1
4902551	79	C	10/19/2022	19:07	-131.555	48.463	0	261.20	0	4.9990	0	33.7800	0	26.711	0	258.833	0	107.9	4	34.8	4	-1E+10	1	-1E+10	1	-1E+10	1	-1E+10	1	-1E+10	1	-1E+10	1
4902551	79	C	10/19/2022	19:07	-131.555	48.463	0	262.20	0	4.9940	0	33.7810	0	26.712	0	259.824	0	107.5	4	34.7	4	-1E+10	1	-1E+10	1	-1E+10	1	-1E+10	1	-1E+10	1	-1E+10	1
4902551	79	C	10/19/2022	19:07	-131.555	48.463	0	263.20	0	4.9870	0	33.7810	0	26.713	0	260.814	0	107.1	4	34.5	4	-1E+10	1	-1E+10	1	-1E+10	1	-1E+10	1	-1E+10	1	-1E+10	1
4902551	79	C	10/19/2022	19:07	-131.555	48.463	0	264.10	0	4.9840	0	33.7820	0	26.714	0	261.705	0	106.7	4	34.4	4	-1E+10	1	-1E+10	1	-1E+10	1	-1E+10	1	-1E+10	1	-1E+10	1
4902551	79	C	10/19/2022	19:07	-131.555	48.463	0	265.10	0	4.9820	0	33.7830	0	26.715	0	262.696	0	106.3	4	34.3	4	-1E+10	1	-1E+10	1	-1E+10	1	-1E+10	1	-1E+10	1	-1E+10	1
4902551	79	C	10/19/2022	19:07	-131.555	48.463	0	266.10	0	4.9790	0	33.7850	0	26.717	0	263.686	0	105.9	4	34.1	4	-1E+10	1	-1E+10	1	-1E+10	1	-1E+10	1	-1E+10	1	-1E+10	1
4902551	79	C	10/19/2022	19:07	-131.555	48.463	0	267.10	0	4.9760	0	33.7860	0	26.718	0	264.676	0	105.5	4	34.0	4	-1E+10	1	-1E+10	1	-1E+10	1	-1E+10	1	-1E+10	1	-1E+10	1
4902551	79	C	10/19/2022	19:07	-131.555	48.463	0	268.00	0	4.9750	0	33.7860	0	26.718	0	265.567	0	105.0	4	33.8	4	-1E+10	1	-1E+10	1	-1E+10	1	-1E+10	1	-1E+10	1	-1E+10	1
4902551	79	C	10/19/2022	19:07	-131.555	48.463	0	269.00	0	4.9720	0	33.7870	0	26.719	0	266.558	0	104.5	4	33.7	4	-1E+10	1	-1E+10	1	-1E+10	1	-1E+10	1	-1E+10	1	-1E+10	1
4902551	79	C	10/19/2022	19:07	-131.555	48.463	0	270.00	0	4.9710	0	33.7870	0	26.719	0	267.548	0	104.0	4	33.5	4	-1E+10	1	-1E+10	1	-1E+10	1	-1E+10	1	-1E+10	1	-1E+10	1
4902551	79	C	10/19/2022	19:07	-131.555	48.463	0	270.90	0	4.9700	0	33.7880	0	26.720	0	268.439	0	103.4	4	33.3	4	-1E+10	1	-1E+10	1	-1E+10	1	-1E+10	1	-1E+10	1	-1E+10	1
4902551	79	C	10/19/2022	19:07	-131.555	48.463	0	271.90	0	4.9570	0	33.7930	0	26.726	0	269.430	0	102.9	4	33.1	4	-1E+10	1	-1E+10	1	-1E+10	1	-1E+10	1	-1E+10	1	-1E+10	1
4902551	79	C	10/19/2022	19:07	-131.555	48.463	0	272.90	0	4.9410	0	33.7930	0	26.728	0	270.420	0	102.5	4	33.0	4	-1E+10	1	-1E+10	1	-1E+10	1	-1E+10	1	-1E+10	1	-1E+10	1
4902551	79	C	10/19/2022	19:07	-131.555	48.463	0	273.80	0	4.9360	0	33.7940	0	26.729	0	271.311	0	102.0	4	32.9	4	-1E+10	1	-1E+10	1	-1E+10	1	-1E+10	1	-1E+10	1	-1E+10	1
4902551	79	C	10/19/2022	19:07	-131.555	48.463	0	274.80	0	4.9350	0	33.7930	0	26.728	0	272.301	0	101.5	4	32.7	4	-1E+10	1	-1E+10	1	-1E+10	1	-1E+10	1	-1E+10	1	-1E+10	1
4902551	79	C	10/19/2022	19:07	-131.555	48.463	0	275.80	0	4.9340	0	33.7930	0	26.728	0	273.292	0	100.9	4	32.5	4	-1E+10	1	-1E+10	1	-1E+10	1	-1E+10	1	-1E+10	1	-1E+10	1
4902551	79	C	10/19/2022	19:07	-131.555	48.463	0	276.80	0	4.9230	0	33.7990	0	26.734	0	274.282	0	100.3	4	32.3	4	-1E+10	1	-1E+10	1	-1E+10	1	-1E+10	1	-1E+10	1	-1E+10	1
4902551	79	C	10/19/2022	19:07	-131.555	48.463	0	277.80	0	4.9100	0	33.7980	0	26.735	0	275.272	0	99.9	4	32.1	4	-1E+10	1	-1E+10	1	-1E+10	1	-1E+10	1	-1E+10	1	-1E+10	1
4902551	79	C	10/19/2022	19:07	-131.555	48.463	0	278.80	0	4.8960	0	33.8000	0	26.738	0	276.262	0	99.5	4	32.0	4	-1E+10	1	-1E+10	1	-1E+10	1	-1E+10	1	-1E+10	1	-1E+10	1
4902551	79	C	10/19/2022	19:07	-131.555	48.463	0	279.80	0	4.8800	0	33.8020	0	26.742	0	277.252	0	99.1	4	31.9	4	-1E+10	1	-1E+10	1	-1E+10	1	-1E+10	1	-1E+10	1	-1E+10	1
4902551	79	C	10/19/2022	19:07	-131.555	48.463	0	280.80	0	4.8700	0	33.8030	0	26.743	0	278.243	0	98.8	4	31.8	4	-1E+10	1	-1E+10	1	-1E+10	1	-1E+10	1	-1E+10	1	-1E+10	1
4902551	79	C	10/19/2022	19:07	-131.555	48.463	0	281.80	0	4.8700	0	33.8030	0	26.743	0	279.233	0	98.6	4	31.7	4	-1E+10	1	-1E+10	1	-1E+10	1	-1E+10	1	-1E+10	1	-1E+10	1
4902551	79	C	10/19/2022	19:07	-131.555	48.463	0	282.80	0	4.8670	0	33.8040	0	26.745	0	280.223	0	98.3	4	31.6	4	-1E+10	1	-1E+10	1	-1E+10	1	-1E+10	1	-1E+10	1	-1E+10	1
4902551	79	C	10/19/2022	19:07	-131.555	48.463	0	283.90	0	4.8640	0	33.8040	0	26.745	0	281.312	0	98.0	4	31.5	4	-1E+10	1	-1E+10	1	-1E+10	1	-1E+10	1	-1E+10	1	-1E+10	1
4902551	79	C	10/19/2022	19:07	-131.555	48.463	0	284.90	0	4.8640	0	33.8040	0	26.745	0	282.303	0	97.7	4	31.4	4	-1E+10	1	-1E+10	1	-1E+10	1	-1E+10	1	-1E+10	1	-1E+10	1
4902551	79	C	10/19/2022	19:07	-131.555	48.463	0	285.90	0	4.8650	0	33.8040	0	26.745	0	283.293	0	97.3	4	31.3	4	-1E+10	1	-1E+10	1	-1E+10	1	-1E+10	1	-1E+10	1	-1E+10	1
4902551	79	C	10/19/2022	19:07	-131.555	48.463	0	286.90	0	4.8630	0	33.8030	0	26.744	0	284.283	0	96.9	4	31.1	4	-1E+10	1	-1E+10	1	-1E+10	1	-1E+10	1	-1E+10	1	-1E+10	1
4902551	79	C	10/19/2022	19:07	-131.555	48.463	0	287.90	0	4.8620	0	33.8040	0	26.745	0	285.273	0	96.4	4	31.0	4	-1E+10	1	-1E+10	1	-1E+10	1	-1E+10	1	-1E+10	1	-1E+10	1
4902551	79	C	10/19/2022	19:07	-131.555	48.463	0	289.00	0	4.8560	0	33.8060	0	26.747	0	286.362	0	95.9	4	30.8	4	-1E+10	1	-1E+10	1	-1E+10	1	-1E+10	1	-1E+10	1	-1E+10	1
4902551	79	C	10/19/2022	19:07	-131.555	48.463	0	290.00	0	4.8430	0	33.8090	0	26.751	0	287.353	0	95.5	4	30.7	4	-1E+10	1	-1E+10	1	-1E+10	1	-1E+10	1	-1E+10	1	-1E+10	1
4902551	79	C	10/19/2022	19:07	-131.555	48.463	0	291.00	0	4.8410	0	33.8090	0	26.752	0	288.343	0	95.1	4	30.6	4	-1E+10	1	-1E+10	1	-1E+10	1	-1E+10	1	-1E+10	1	-1E+10	1
4902551	79	C	10/19/2022	19:07	-131.555	48.463	0	292.10	0	4.8350	0	33.8110	0	26.754	0	289.432	0	94.7	4	30.4	4	-1E+10	1	-1E+10	1	-1E+10	1	-1E+10	1	-1E+10	1	-1E+10	1
4902551	79	C	10/19/2022	19:07	-131.555	48.463	0	293.10	0	4.8310	0	33.8110	0	26.754	0	290.422	0	94.4	4	30.3	4	-1E+10	1	-1E+10	1	-1E+10	1	-1E+10	1	-1E+10	1	-1E+10	1
4902551	79	C	10/19/2022	19:07	-131.555	48.463	0	294.10	0	4.8180	0	33.8150	0	26.759	0	291.412	0	94.1	4	30.2	4	-1E+10	1	-1E+10	1	-1E+10	1	-1E+10	1	-1E+10	1	-1E+10	1
4902551	79	C	10/19/2022	19:07	-131.555	48.463	0	295.10	0	4.8130	0	33.8160	0	26.760	0	292.402	0	93.8	4	30.1	4	-1E+10	1	-1E+10	1	-1E+10	1	-1E+10	1	-1E+10	1	-1E+10	1
4902551	79	C	10/19/2022	19:07	-131.555	48.463	0	296.20	0	4.8110	0	33.8160	0	26.760	0	293.492	0	93.6	4	30.0	4	-1E+10	1	-1E+10	1	-1E+10	1	-1E+10	1	-1E+10	1	-1E+10	1
4902551	79	C	10/19/2022	19:07	-131.555	48.463	0	297.20	0	4.8100	0	33.8160	0	26.761	0	294.482	0	93.3	4	29.9	4	-1E+10	1	-1E+10	1	-1E+10	1	-1E+10	1	-1E+10	1	-1E+10	1
4902551	79	C	10/19/2022	19:07	-131.555	48.463	0	298.20	0	4.8020	0	33.8180	0	26.763	0	295.472	0	93.0	4	29.9	4	-1E+10	1	-1E+10	1	-1E+10	1	-1E+10	1	-1E+10	1	-1E+10	1
4902551	79	C	10/19/2022	19:07	-131.555	48.463	0	299.20	0	4.7950	0	33.8180	0	26.764	0	296.462	0	92.8	4	29.8	4	-1E+10	1	-1E+10	1	-1E+10	1	-1E+10	1	-1E+10	1	-1E+10	1
4902551	79	C	10/19/2022	19:07	-131.555	48.463	0	300.30	0	4.7880	0	33.8210	0	26.767	0	297.551	0	92.6	4	29.7	4	-1E+10	1	-1E+10	1	-1E+10	1	-1E+10	1	-1E+10	1	-1E+10	1
4902551	79	C	10/19/2022	19:07	-131.555	48.463	0	301.30	0	4.7830	0	33.8210	0	26.768	0	298.541	0	92.4	4	29.6	4	-1E+10	1	-1E+10	1	-1E+10	1	-1E+10	1	-1E+10	1	-1E+10	1
4902551	79	C	10/19/2022	19:07	-131.555	48.463	0	302.40	0	4.7820	0	33.8200	0	26.767	0	299.630	0	92.2	4	29.6	4	-1E+10	1	-1E+10	1	-1E+10	1	-1E+10	1	-1E+10	1	-1E+10	1
4902551	79	C	10/19/2022	19:07	-131.555	48.463	0	303.40	0	4.7820	0	33.8210	0	26.768	0	300.620	0	92.0	4	29.5	4	-1E+10	1	-1E+10	1	-1E+10	1	-1E+10	1	-1E+10	1	-1E+10	1
4902551	79	C	10/19/2022	19:07	-131.555	48.463	0	304.50	0	4.7820	0	33.8210	0	26.768	0	301.710	0	91.8	4	29.4	4	-1E+10	1	-1E+10	1	-1E+10	1	-1E+10	1	-1E+10	1	-1E+10	1
4902551	79	C	10/19/2022	19:07	-131.555	48.463	0	305.50	0	4.7820	0	33.8210	0	26.768	0	302.700	0	91.5	4	29.3	4	-1E+10	1	-1E+10	1	-1E+10	1	-1E+10	1	-1E+10	1	-1E+10	1
4902551	79	C	10/19/2022	19:07	-131.555	48.463	0	306.50	0	4.7760	0	33.8220	0	26.769	0	303.690	0	91.2	4	29.3	4	-1E+10	1	-1E+10	1	-1E+10	1	-1E+10	1	-1E+10	1	-1E+10	1
4902551	79	C	10/19/2022	19:07	-131.555	48.463	0	307.50	0	4.7740	0	33.8230	0	26.770	0	304.680	0	91.0	4	29.2	4	-1E+10	1	-1E+10	1	-1E+10	1	-1E+10	1	-1E+10	1	-1E+10	1
4902551	79	C	10/19/2022	19:07	-131.555	48.463	0	308.50	0	4.7740	0	33.8230	0	26.770	0	305.670	0	90.7	4	29.1	4	-1E+10	1	-1E+10	1	-1E+10	1	-1E+10	1	-1E+10	1	-1E+10	1
4902551	79	C	10/19/2022	19:07	-131.555	48.463	0	310.00	0	4.7670	0	33.8260	0	26.773	0	307.155	0	90.3	4	29.0	4	-1E+10	1	-1E+10	1	-1E+10	1	-1E+10	1	-1E+10	1	-1E+10	1
4902551	79	C	10/19/2022	19:07	-131.555	48.463	0	311.20	0	4.7620	0	33.8250	0	26.773	0	308.343	0	90.0	4	28.9	4	-1E+10	1	-1E+10	1	-1E+10	1	-1E+10	1	-1E+10	1	-1E+10	1
4902551	79	C	10/19/2022	19:07	-131.555	48.463	0	312.00	0	4.7550	0	33.8250	0	26.774	0	309.135	0	89.9	4	28.8	4	-1E+10	1	-1E+10	1	-1E+10	1	-1E+10	1	-1E+10	1	-1E+10	1
4902551	79	C	10/19/2022	19:07	-131.555	48.463	0	312.80	0	4.7530	0	33.8260	0	26.775	0	309.927	0	89.6	4	28.7	4	-1E+10	1	-1E+10	1	-1E+10	1	-1E+10	1	-1E+10	1	-1E+10	1
4902551	79	C	10/19/2022	19:07	-131.555	48.463	0	314.00	0	4.7520	0	33.8260	0	26.775	0	311.115	0	89.3	4	28.6	4	-1E+10	1	-1E+10	1	-1E+10	1	-1E+10	1	-1E+10	1	-1E+10	1
4902551	79	C	10/19/2022	19:07	-131.555	48.463	0	315.20	0	4.7510	0	33.8260	0	26.775	0	312.304	0	89.0	4	28.5	4	-1E+10	1	-1E+10	1	-1E+10	1	-1E+10	1	-1E+10	1	-1E+10	1
4902551	79	C	10/19/2022	19:07	-131.555	48.463	0	316.00	0	4.7470	0	33.8270	0	26.776	0	313.096	0	88.8	4	28.5	4	-1E+10	1	-1E+10	1	-1E+10	1	-1E+10	1	-1E+10	1	-1E+10	1
4902551	79	C	10/19/2022	19:07	-131.555	48.463	0	316.80	0	4.7440	0	33.8270	0	26.777	0	313.888	0	88.5	4	28.4	4	-1E+10	1	-1E+10	1	-1E+10	1	-1E+10	1	-1E+10	1	-1E+10	1
4902551	79	C	10/19/2022	19:07	-131.555	48.463	0	317.60	0	4.7430	0	33.8280	0	26.778	0	314.680	0	88.3	4	28.3	4	-1E+10	1	-1E+10	1	-1E+10	1	-1E+10	1	-1E+10	1	-1E+10	1
4902551	79	C	10/19/2022	19:07	-131.555	48.463	0	318.90	0	4.7410	0	33.8290	0	26.779	0	315.967	0	87.9	4	28.2	4	-1E+10	1	-1E+10	1	-1E+10	1	-1E+10	1	-1E+10	1	-1E+10	1
4902551	79	C	10/19/2022	19:07	-131.555	48.463	0	320.10	0	4.7380	0	33.8300	0	26.780	0	317.155	0	87.4	4	28.0	4	-1E+10	1	-1E+10	1	-1E+10	1	-1E+10	1	-1E+10	1	-1E+10	1
4902551	79	C	10/19/2022	19:07	-131.555	48.463	0	321.00	0	4.7360	0	33.8300	0	26.780	0	318.046	0	87.1	4	27.9	4	-1E+10	1	-1E+10	1	-1E+10	1	-1E+10	1	-1E+10	1	-1E+10	1
4902551	79	C	10/19/2022	19:07	-131.555	48.463	0	321.80	0	4.7340	0	33.8310	0	26.781	0	318.838	0	86.8	4	27.8	4	-1E+10	1	-1E+10	1	-1E+10	1	-1E+10	1	-1E+10	1	-1E+10	1
4902551	79	C	10/19/2022	19:07	-131.555	48.463	0	322.70	0	4.7310	0	33.8320	0	26.782	0	319.729	0	86.6	4	27.7	4	-1E+10	1	-1E+10	1	-1E+10	1	-1E+10	1	-1E+10	1	-1E+10	1
4902551	79	C	10/19/2022	19:07	-131.555	48.463	0	323.90	0	4.7280	0	33.8320	0	26.783	0	320.917	0	86.1	4	27.6	4	-1E+10	1	-1E+10	1	-1E+10	1	-1E+10	1	-1E+10	1	-1E+10	1
4902551	79	C	10/19/2022	19:07	-131.555	48.463	0	325.20	0	4.7270	0	33.8330	0	26.783	0	322.204	0	85.5	4	27.4	4	-1E+10	1	-1E+10	1	-1E+10	1	-1E+10	1	-1E+10	1	-1E+10	1
4902551	79	C	10/19/2022	19:07	-131.555	48.463	0	326.10	0	4.7230	0	33.8340	0	26.785	0	323.095	0	85.2	4	27.3	4	-1E+10	1	-1E+10	1	-1E+10	1	-1E+10	1	-1E+10	1	-1E+10	1
4902551	79	C	10/19/2022	19:07	-131.555	48.463	0	326.90	0	4.7180	0	33.8350	0	26.786	0	323.887	0	84.8	4	27.2	4	-1E+10	1	-1E+10	1	-1E+10	1	-1E+10	1	-1E+10	1	-1E+10	1
4902551	79	C	10/19/2022	19:07	-131.555	48.463	0	327.80	0	4.7110	0	33.8360	0	26.788	0	324.778	0	84.5	4	27.1	4	-1E+10	1	-1E+10	1	-1E+10	1	-1E+10	1	-1E+10	1	-1E+10	1
4902551	79	C	10/19/2022	19:07	-131.555	48.463	0	328.70	0	4.7060	0	33.8380	0	26.790	0	325.669	0	84.2	4	27.0	4	-1E+10	1	-1E+10	1	-1E+10	1	-1E+10	1	-1E+10	1	-1E+10	1
4902551	79	C	10/19/2022	19:07	-131.555	48.463	0	330.00	0	4.6930	0	33.8390	0	26.792	0	326.956	0	83.7	4	26.8	4	-1E+10	1	-1E+10	1	-1E+10	1	-1E+10	1	-1E+10	1	-1E+10	1
4902551	79	C	10/19/2022	19:07	-131.555	48.463	0	331.30	0	4.6910	0	33.8390	0	26.792	0	328.243	0	83.1	4	26.6	4	-1E+10	1	-1E+10	1	-1E+10	1	-1E+10	1	-1E+10	1	-1E+10	1
4902551	79	C	10/19/2022	19:07	-131.555	48.463	0	332.20	0	4.6880	0	33.8400	0	26.793	0	329.134	0	82.8	4	26.5	4	-1E+10	1	-1E+10	1	-1E+10	1	-1E+10	1	-1E+10	1	-1E+10	1
4902551	79	C	10/19/2022	19:07	-131.555	48.463	0	333.00	0	4.6850	0	33.8410	0	26.794	0	329.926	0	82.4	4	26.4	4	-1E+10	1	-1E+10	1	-1E+10	1	-1E+10	1	-1E+10	1	-1E+10	1
4902551	79	C	10/19/2022	19:07	-131.555	48.463	0	333.90	0	4.6830	0	33.8420	0	26.796	0	330.817	0	82.0	4	26.3	4	-1E+10	1	-1E+10	1	-1E+10	1	-1E+10	1	-1E+10	1	-1E+10	1
4902551	79	C	10/19/2022	19:07	-131.555	48.463	0	334.80	0	4.6830	0	33.8430	0	26.796	0	331.708	0	81.5	4	26.1	4	-1E+10	1	-1E+10	1	-1E+10	1	-1E+10	1	-1E+10	1	-1E+10	1
4902551	79	C	10/19/2022	19:07	-131.555	48.463	0	335.70	0	4.6830	0	33.8430	0	26.796	0	332.599	0	81.0	4	25.9	4	-1E+10	1	-1E+10	1	-1E+10	1	-1E+10	1	-1E+10	1	-1E+10	1
4902551	79	C	10/19/2022	19:07	-131.555	48.463	0	336.60	0	4.6850	0	33.8450	0	26.798	0	333.490	0	80.6	4	25.8	4	-1E+10	1	-1E+10	1	-1E+10	1	-1E+10	1	-1E+10	1	-1E+10	1
4902551	79	C	10/19/2022	19:07	-131.555	48.463	0	337.90	0	4.6850	0	33.8470	0	26.799	0	334.777	0	79.9	4	25.6	4	-1E+10	1	-1E+10	1	-1E+10	1	-1E+10	1	-1E+10	1	-1E+10	1
4902551	79	C	10/19/2022	19:07	-131.555	48.463	0	339.20	0	4.6830	0	33.8490	0	26.801	0	336.063	0	79.2	4	25.4	4	-1E+10	1	-1E+10	1	-1E+10	1	-1E+10	1	-1E+10	1	-1E+10	1
4902551	79	C	10/19/2022	19:07	-131.555	48.463	0	340.10	0	4.6820	0	33.8520	0	26.804	0	336.954	0	78.8	4	25.2	4	-1E+10	1	-1E+10	1	-1E+10	1	-1E+10	1	-1E+10	1	-1E+10	1
4902551	79	C	10/19/2022	19:07	-131.555	48.463	0	340.90	0	4.6790	0	33.8540	0	26.806	0	337.746	0	78.4	4	25.1	4	-1E+10	1	-1E+10	1	-1E+10	1	-1E+10	1	-1E+10	1	-1E+10	1
4902551	79	C	10/19/2022	19:07	-131.555	48.463	0	341.80	0	4.6750	0	33.8550	0	26.807	0	338.637	0	78.1	4	25.0	4	-1E+10	1	-1E+10	1	-1E+10	1	-1E+10	1	-1E+10	1	-1E+10	1
4902551	79	C	10/19/2022	19:07	-131.555	48.463	0	342.70	0	4.6620	0	33.8540	0	26.807	0	339.528	0	77.7	4	24.9	4	-1E+10	1	-1E+10	1	-1E+10	1	-1E+10	1	-1E+10	1	-1E+10	1
4902551	79	C	10/19/2022	19:07	-131.555	48.463	0	343.90	0	4.6540	0	33.8570	0	26.811	0	340.716	0	77.1	4	24.7	4	-1E+10	1	-1E+10	1	-1E+10	1	-1E+10	1	-1E+10	1	-1E+10	1
4902551	79	C	10/19/2022	19:07	-131.555	48.463	0	345.30	0	4.6450	0	33.8590	0	26.813	0	342.102	0	76.5	4	24.5	4	-1E+10	1	-1E+10	1	-1E+10	1	-1E+10	1	-1E+10	1	-1E+10	1
4902551	79	C	10/19/2022	19:07	-131.555	48.463	0	346.20	0	4.6430	0	33.8600	0	26.814	0	342.993	0	76.1	4	24.3	4	-1E+10	1	-1E+10	1	-1E+10	1	-1E+10	1	-1E+10	1	-1E+10	1
4902551	79	C	10/19/2022	19:07	-131.555	48.463	0	347.00	0	4.6400	0	33.8620	0	26.816	0	343.785	0	75.8	4	24.2	4	-1E+10	1	-1E+10	1	-1E+10	1	-1E+10	1	-1E+10	1	-1E+10	1
4902551	79	C	10/19/2022	19:07	-131.555	48.463	0	347.90	0	4.6390	0	33.8640	0	26.818	0	344.676	0	75.4	4	24.1	4	-1E+10	1	-1E+10	1	-1E+10	1	-1E+10	1	-1E+10	1	-1E+10	1
4902551	79	C	10/19/2022	19:07	-131.555	48.463	0	348.80	0	4.6370	0	33.8650	0	26.819	0	345.567	0	75.1	4	24.0	4	-1E+10	1	-1E+10	1	-1E+10	1	-1E+10	1	-1E+10	1	-1E+10	1
4902551	79	C	10/19/2022	19:07	-131.555	48.463	0	349.70	0	4.6280	0	33.8680	0	26.822	0	346.458	0	74.9	4	24.0	4	-1E+10	1	-1E+10	1	-1E+10	1	-1E+10	1	-1E+10	1	-1E+10	1
4902551	79	C	10/19/2022	19:07	-131.555	48.463	0	352.80	0	4.6230	0	33.8710	0	26.825	0	349.526	0	74.3	4	23.7	4	-1E+10	1	-1E+10	1	-1E+10	1	-1E+10	1	-1E+10	1	-1E+10	1
4902551	79	C	10/19/2022	19:07	-131.555	48.463	0	358.00	0	4.6150	0	33.8740	0	26.829	0	354.674	0	73.1	4	23.4	4	-1E+10	1	-1E+10	1	-1E+10	1	-1E+10	1	-1E+10	1	-1E+10	1
4902551	79	C	10/19/2022	19:07	-131.555	48.463	0	362.90	0	4.6070	0	33.8770	0	26.832	0	359.524	0	72.0	4	23.0	4	-1E+10	1	-1E+10	1	-1E+10	1	-1E+10	1	-1E+10	1	-1E+10	1
4902551	79	C	10/19/2022	19:07	-131.555	48.463	0	367.80	0	4.5960	0	33.8800	0	26.835	0	364.374	0	70.5	4	22.5	4	-1E+10	1	-1E+10	1	-1E+10	1	-1E+10	1	-1E+10	1	-1E+10	1
4902551	79	C	10/19/2022	19:07	-131.555	48.463	0	372.80	0	4.5810	0	33.8880	0	26.843	0	369.323	0	69.1	4	22.1	4	-1E+10	1	-1E+10	1	-1E+10	1	-1E+10	1	-1E+10	1	-1E+10	1
4902551	79	C	10/19/2022	19:07	-131.555	48.463	0	377.80	0	4.5660	0	33.8890	0	26.846	0	374.272	0	67.5	4	21.5	4	-1E+10	1	-1E+10	1	-1E+10	1	-1E+10	1	-1E+10	1	-1E+10	1
4902551	79	C	10/19/2022	19:07	-131.555	48.463	0	382.70	0	4.5440	0	33.8990	0	26.856	0	379.121	0	65.6	4	20.9	4	-1E+10	1	-1E+10	1	-1E+10	1	-1E+10	1	-1E+10	1	-1E+10	1
4902551	79	C	10/19/2022	19:07	-131.555	48.463	0	387.80	0	4.5460	0	33.9070	0	26.862	0	384.169	0	64.3	4	20.5	4	-1E+10	1	-1E+10	1	-1E+10	1	-1E+10	1	-1E+10	1	-1E+10	1
4902551	79	C	10/19/2022	19:07	-131.555	48.463	0	393.00	0	4.5380	0	33.9110	0	26.867	0	389.316	0	63.1	4	20.1	4	-1E+10	1	-1E+10	1	-1E+10	1	-1E+10	1	-1E+10	1	-1E+10	1
4902551	79	C	10/19/2022	19:07	-131.555	48.463	0	397.70	0	4.5230	0	33.9150	0	26.871	0	393.967	0	62.0	4	19.8	4	-1E+10	1	-1E+10	1	-1E+10	1	-1E+10	1	-1E+10	1	-1E+10	1
4902551	79	C	10/19/2022	19:07	-131.555	48.463	0	402.90	0	4.5050	0	33.9190	0	26.877	0	399.113	0	60.4	4	19.3	4	-1E+10	1	-1E+10	1	-1E+10	1	-1E+10	1	-1E+10	1	-1E+10	1
4902551	79	C	10/19/2022	19:07	-131.555	48.463	0	408.20	0	4.4930	0	33.9260	0	26.883	0	404.358	0	58.9	4	18.8	4	-1E+10	1	-1E+10	1	-1E+10	1	-1E+10	1	-1E+10	1	-1E+10	1
4902551	79	C	10/19/2022	19:07	-131.555	48.463	0	413.10	0	4.4810	0	33.9350	0	26.892	0	409.207	0	57.9	4	18.5	4	-1E+10	1	-1E+10	1	-1E+10	1	-1E+10	1	-1E+10	1	-1E+10	1
4902551	79	C	10/19/2022	19:07	-131.555	48.463	0	417.90	0	4.4720	0	33.9380	0	26.895	0	413.957	0	57.2	4	18.2	4	-1E+10	1	-1E+10	1	-1E+10	1	-1E+10	1	-1E+10	1	-1E+10	1
4902551	79	C	10/19/2022	19:07	-131.555	48.463	0	422.80	0	4.4670	0	33.9410	0	26.898	0	418.806	0	56.5	4	18.0	4	-1E+10	1	-1E+10	1	-1E+10	1	-1E+10	1	-1E+10	1	-1E+10	1
4902551	79	C	10/19/2022	19:07	-131.555	48.463	0	427.80	0	4.4640	0	33.9430	0	26.900	0	423.754	0	55.6	4	17.7	4	-1E+10	1	-1E+10	1	-1E+10	1	-1E+10	1	-1E+10	1	-1E+10	1
4902551	79	C	10/19/2022	19:07	-131.555	48.463	0	432.70	0	4.4620	0	33.9480	0	26.904	0	428.602	0	54.4	4	17.3	4	-1E+10	1	-1E+10	1	-1E+10	1	-1E+10	1	-1E+10	1	-1E+10	1
4902551	79	C	10/19/2022	19:07	-131.555	48.463	0	437.60	0	4.4490	0	33.9540	0	26.911	0	433.451	0	53.3	4	17.0	4	-1E+10	1	-1E+10	1	-1E+10	1	-1E+10	1	-1E+10	1	-1E+10	1
4902551	79	C	10/19/2022	19:07	-131.555	48.463	0	442.60	0	4.4390	0	33.9610	0	26.917	0	438.398	0	52.1	4	16.6	4	-1E+10	1	-1E+10	1	-1E+10	1	-1E+10	1	-1E+10	1	-1E+10	1
4902551	79	C	10/19/2022	19:07	-131.555	48.463	0	447.50	0	4.4320	0	33.9670	0	26.923	0	443.246	0	51.1	4	16.3	4	-1E+10	1	-1E+10	1	-1E+10	1	-1E+10	1	-1E+10	1	-1E+10	1
4902551	79	C	10/19/2022	19:07	-131.555	48.463	0	452.90	0	4.4210	0	33.9720	0	26.928	0	448.589	0	49.9	4	15.9	4	-1E+10	1	-1E+10	1	-1E+10	1	-1E+10	1	-1E+10	1	-1E+10	1
4902551	79	C	10/19/2022	19:07	-131.555	48.463	0	458.40	0	4.3990	0	33.9790	0	26.936	0	454.031	0	48.6	4	15.5	4	-1E+10	1	-1E+10	1	-1E+10	1	-1E+10	1	-1E+10	1	-1E+10	1
4902551	79	C	10/19/2022	19:07	-131.555	48.463	0	463.30	0	4.3710	0	33.9820	0	26.941	0	458.879	0	47.4	4	15.1	4	-1E+10	1	-1E+10	1	-1E+10	1	-1E+10	1	-1E+10	1	-1E+10	1
4902551	79	C	10/19/2022	19:07	-131.555	48.463	0	468.30	0	4.3750	0	33.9910	0	26.948	0	463.825	0	46.0	4	14.6	4	-1E+10	1	-1E+10	1	-1E+10	1	-1E+10	1	-1E+10	1	-1E+10	1
4902551	79	C	10/19/2022	19:07	-131.555	48.463	0	473.20	0	4.3550	0	34.0000	0	26.957	0	468.673	0	45.0	4	14.3	4	-1E+10	1	-1E+10	1	-1E+10	1	-1E+10	1	-1E+10	1	-1E+10	1
4902551	79	C	10/19/2022	19:07	-131.555	48.463	0	478.20	0	4.3370	0	34.0060	0	26.964	0	473.620	0	44.4	4	14.1	4	-1E+10	1	-1E+10	1	-1E+10	1	-1E+10	1	-1E+10	1	-1E+10	1
4902551	79	C	10/19/2022	19:07	-131.555	48.463	0	483.10	0	4.3270	0	34.0080	0	26.967	0	478.467	0	43.7	4	13.9	4	-1E+10	1	-1E+10	1	-1E+10	1	-1E+10	1	-1E+10	1	-1E+10	1
4902551	79	C	10/19/2022	19:07	-131.555	48.463	0	488.10	0	4.3110	0	34.0120	0	26.972	0	483.413	0	43.0	4	13.7	4	-1E+10	1	-1E+10	1	-1E+10	1	-1E+10	1	-1E+10	1	-1E+10	1
4902551	79	C	10/19/2022	19:07	-131.555	48.463	0	493.20	0	4.3060	0	34.0160	0	26.975	0	488.458	0	42.2	4	13.4	4	-1E+10	1	-1E+10	1	-1E+10	1	-1E+10	1	-1E+10	1	-1E+10	1
4902551	79	C	10/19/2022	19:07	-131.555	48.463	0	498.20	0	4.2980	0	34.0180	0	26.978	0	493.404	0	41.2	4	13.1	4	-1E+10	1	-1E+10	1	-1E+10	1	-1E+10	1	-1E+10	1	-1E+10	1
4902551	79	C	10/19/2022	19:07	-131.555	48.463	0	502.90	0	4.2800	0	34.0260	0	26.986	0	498.053	0	40.1	4	12.7	4	-1E+10	1	-1E+10	1	-1E+10	1	-1E+10	1	-1E+10	1	-1E+10	1
4902551	79	C	10/19/2022	19:07	-131.555	48.463	0	507.90	0	4.2680	0	34.0330	0	26.993	0	502.999	0	38.9	4	12.3	4	-1E+10	1	-1E+10	1	-1E+10	1	-1E+10	1	-1E+10	1	-1E+10	1
4902551	79	C	10/19/2022	19:07	-131.555	48.463	0	512.90	0	4.2510	0	34.0400	0	27.000	0	507.945	0	37.8	4	12.0	4	-1E+10	1	-1E+10	1	-1E+10	1	-1E+10	1	-1E+10	1	-1E+10	1
4902551	79	C	10/19/2022	19:07	-131.555	48.463	0	517.70	0	4.2390	0	34.0450	0	27.006	0	512.693	0	36.9	4	11.7	4	-1E+10	1	-1E+10	1	-1E+10	1	-1E+10	1	-1E+10	1	-1E+10	1
4902551	79	C	10/19/2022	19:07	-131.555	48.463	0	522.60	0	4.2260	0	34.0490	0	27.010	0	517.539	0	35.9	4	11.4	4	-1E+10	1	-1E+10	1	-1E+10	1	-1E+10	1	-1E+10	1	-1E+10	1
4902551	79	C	10/19/2022	19:07	-131.555	48.463	0	527.50	0	4.2120	0	34.0540	0	27.016	0	522.385	0	34.8	4	11.0	4	-1E+10	1	-1E+10	1	-1E+10	1	-1E+10	1	-1E+10	1	-1E+10	1
4902551	79	C	10/19/2022	19:07	-131.555	48.463	0	532.60	0	4.1930	0	34.0610	0	27.023	0	527.429	0	33.8	4	10.7	4	-1E+10	1	-1E+10	1	-1E+10	1	-1E+10	1	-1E+10	1	-1E+10	1
4902551	79	C	10/19/2022	19:07	-131.555	48.463	0	538.00	0	4.1790	0	34.0670	0	27.030	0	532.770	0	33.1	4	10.5	4	-1E+10	1	-1E+10	1	-1E+10	1	-1E+10	1	-1E+10	1	-1E+10	1
4902551	79	C	10/19/2022	19:07	-131.555	48.463	0	543.00	0	4.1720	0	34.0690	0	27.032	0	537.715	0	32.4	4	10.3	4	-1E+10	1	-1E+10	1	-1E+10	1	-1E+10	1	-1E+10	1	-1E+10	1
4902551	79	C	10/19/2022	19:07	-131.555	48.463	0	547.90	0	4.1580	0	34.0740	0	27.037	0	542.561	0	31.6	4	10.0	4	-1E+10	1	-1E+10	1	-1E+10	1	-1E+10	1	-1E+10	1	-1E+10	1
4902551	79	C	10/19/2022	19:07	-131.555	48.463	0	553.00	0	4.1400	0	34.0810	0	27.045	0	547.605	0	30.9	4	9.8	4	-1E+10	1	-1E+10	1	-1E+10	1	-1E+10	1	-1E+10	1	-1E+10	1
4902551	79	C	10/19/2022	19:07	-131.555	48.463	0	557.70	0	4.1320	0	34.0830	0	27.047	0	552.253	0	30.4	4	9.6	4	-1E+10	1	-1E+10	1	-1E+10	1	-1E+10	1	-1E+10	1	-1E+10	1
4902551	79	C	10/19/2022	19:07	-131.555	48.463	0	563.00	0	4.1210	0	34.0870	0	27.052	0	557.494	0	29.8	4	9.4	4	-1E+10	1	-1E+10	1	-1E+10	1	-1E+10	1	-1E+10	1	-1E+10	1
4902551	79	C	10/19/2022	19:07	-131.555	48.463	0	568.30	0	4.1110	0	34.0910	0	27.056	0	562.735	0	29.1	4	9.2	4	-1E+10	1	-1E+10	1	-1E+10	1	-1E+10	1	-1E+10	1	-1E+10	1
4902551	79	C	10/19/2022	19:07	-131.555	48.463	0	573.20	0	4.1030	0	34.0940	0	27.059	0	567.580	0	28.5	4	9.0	4	-1E+10	1	-1E+10	1	-1E+10	1	-1E+10	1	-1E+10	1	-1E+10	1
4902551	79	C	10/19/2022	19:07	-131.555	48.463	0	578.20	0	4.0930	0	34.0980	0	27.063	0	572.524	0	27.8	4	8.8	4	-1E+10	1	-1E+10	1	-1E+10	1	-1E+10	1	-1E+10	1	-1E+10	1
4902551	79	C	10/19/2022	19:07	-131.555	48.463	0	583.20	0	4.0780	0	34.1030	0	27.069	0	577.468	0	27.1	4	8.6	4	-1E+10	1	-1E+10	1	-1E+10	1	-1E+10	1	-1E+10	1	-1E+10	1
4902551	79	C	10/19/2022	19:07	-131.555	48.463	0	588.20	0	4.0650	0	34.1080	0	27.074	0	582.412	0	26.3	4	8.3	4	-1E+10	1	-1E+10	1	-1E+10	1	-1E+10	1	-1E+10	1	-1E+10	1
4902551	79	C	10/19/2022	19:07	-131.555	48.463	0	593.20	0	4.0410	0	34.1170	0	27.084	0	587.356	0	25.7	4	8.1	4	-1E+10	1	-1E+10	1	-1E+10	1	-1E+10	1	-1E+10	1	-1E+10	1
4902551	79	C	10/19/2022	19:07	-131.555	48.463	0	597.80	0	4.0300	0	34.1210	0	27.088	0	591.904	0	25.4	4	8.0	4	-1E+10	1	-1E+10	1	-1E+10	1	-1E+10	1	-1E+10	1	-1E+10	1
4902551	79	C	10/19/2022	19:07	-131.555	48.463	0	602.50	0	4.0280	0	34.1220	0	27.089	0	596.551	0	25.0	4	7.9	4	-1E+10	1	-1E+10	1	-1E+10	1	-1E+10	1	-1E+10	1	-1E+10	1
4902551	79	C	10/19/2022	19:07	-131.555	48.463	0	607.60	0	4.0210	0	34.1240	0	27.092	0	601.593	0	24.5	4	7.7	4	-1E+10	1	-1E+10	1	-1E+10	1	-1E+10	1	-1E+10	1	-1E+10	1
4902551	79	C	10/19/2022	19:07	-131.555	48.463	0	612.70	0	4.0090	0	34.1290	0	27.097	0	606.635	0	23.9	4	7.6	4	-1E+10	1	-1E+10	1	-1E+10	1	-1E+10	1	-1E+10	1	-1E+10	1
4902551	79	C	10/19/2022	19:07	-131.555	48.463	0	617.80	0	3.9950	0	34.1350	0	27.103	0	611.677	0	23.4	4	7.4	4	-1E+10	1	-1E+10	1	-1E+10	1	-1E+10	1	-1E+10	1	-1E+10	1
4902551	79	C	10/19/2022	19:07	-131.555	48.463	0	623.00	0	3.9840	0	34.1390	0	27.108	0	616.818	0	23.0	4	7.2	4	-1E+10	1	-1E+10	1	-1E+10	1	-1E+10	1	-1E+10	1	-1E+10	1
4902551	79	C	10/19/2022	19:07	-131.555	48.463	0	628.20	0	3.9750	0	34.1420	0	27.111	0	621.959	0	22.5	4	7.1	4	-1E+10	1	-1E+10	1	-1E+10	1	-1E+10	1	-1E+10	1	-1E+10	1
4902551	79	C	10/19/2022	19:07	-131.555	48.463	0	632.90	0	3.9630	0	34.1460	0	27.115	0	626.605	0	22.0	4	6.9	4	-1E+10	1	-1E+10	1	-1E+10	1	-1E+10	1	-1E+10	1	-1E+10	1
4902551	79	C	10/19/2022	19:07	-131.555	48.463	0	637.60	0	3.9480	0	34.1500	0	27.120	0	631.251	0	21.5	4	6.8	4	-1E+10	1	-1E+10	1	-1E+10	1	-1E+10	1	-1E+10	1	-1E+10	1
4902551	79	C	10/19/2022	19:07	-131.555	48.463	0	642.70	0	3.9340	0	34.1550	0	27.125	0	636.292	0	21.1	4	6.6	4	-1E+10	1	-1E+10	1	-1E+10	1	-1E+10	1	-1E+10	1	-1E+10	1
4902551	79	C	10/19/2022	19:07	-131.555	48.463	0	647.90	0	3.9200	0	34.1600	0	27.131	0	641.433	0	20.7	4	6.5	4	-1E+10	1	-1E+10	1	-1E+10	1	-1E+10	1	-1E+10	1	-1E+10	1
4902551	79	C	10/19/2022	19:07	-131.555	48.463	0	653.10	0	3.9090	0	34.1630	0	27.134	0	646.573	0	20.3	4	6.4	4	-1E+10	1	-1E+10	1	-1E+10	1	-1E+10	1	-1E+10	1	-1E+10	1
4902551	79	C	10/19/2022	19:07	-131.555	48.463	0	657.80	0	3.9000	0	34.1660	0	27.138	0	651.218	0	19.9	4	6.3	4	-1E+10	1	-1E+10	1	-1E+10	1	-1E+10	1	-1E+10	1	-1E+10	1
4902551	79	C	10/19/2022	19:07	-131.555	48.463	0	662.50	0	3.8910	0	34.1690	0	27.141	0	655.864	0	19.5	4	6.1	4	-1E+10	1	-1E+10	1	-1E+10	1	-1E+10	1	-1E+10	1	-1E+10	1
4902551	79	C	10/19/2022	19:07	-131.555	48.463	0	667.60	0	3.8730	0	34.1750	0	27.148	0	660.905	0	19.0	4	6.0	4	-1E+10	1	-1E+10	1	-1E+10	1	-1E+10	1	-1E+10	1	-1E+10	1
4902551	79	C	10/19/2022	19:07	-131.555	48.463	0	672.70	0	3.8570	0	34.1800	0	27.153	0	665.945	0	18.6	4	5.9	4	-1E+10	1	-1E+10	1	-1E+10	1	-1E+10	1	-1E+10	1	-1E+10	1
4902551	79	C	10/19/2022	19:07	-131.555	48.463	0	677.90	0	3.8440	0	34.1850	0	27.159	0	671.085	0	18.2	4	5.7	4	-1E+10	1	-1E+10	1	-1E+10	1	-1E+10	1	-1E+10	1	-1E+10	1
4902551	79	C	10/19/2022	19:07	-131.555	48.463	0	683.00	0	3.8280	0	34.1900	0	27.164	0	676.125	0	17.9	4	5.6	4	-1E+10	1	-1E+10	1	-1E+10	1	-1E+10	1	-1E+10	1	-1E+10	1
4902551	79	C	10/19/2022	19:07	-131.555	48.463	0	688.20	0	3.8210	0	34.1930	0	27.167	0	681.264	0	17.5	4	5.5	4	-1E+10	1	-1E+10	1	-1E+10	1	-1E+10	1	-1E+10	1	-1E+10	1
4902551	79	C	10/19/2022	19:07	-131.555	48.463	0	693.30	0	3.8060	0	34.1990	0	27.174	0	686.305	0	17.1	4	5.4	4	-1E+10	1	-1E+10	1	-1E+10	1	-1E+10	1	-1E+10	1	-1E+10	1
4902551	79	C	10/19/2022	19:07	-131.555	48.463	0	698.30	0	3.7910	0	34.2040	0	27.179	0	691.246	0	16.8	4	5.3	4	-1E+10	1	-1E+10	1	-1E+10	1	-1E+10	1	-1E+10	1	-1E+10	1
4902551	79	C	10/19/2022	19:07	-131.555	48.463	0	703.00	0	3.7750	0	34.2080	0	27.184	0	695.891	0	16.4	4	5.2	4	-1E+10	1	-1E+10	1	-1E+10	1	-1E+10	1	-1E+10	1	-1E+10	1
4902551	79	C	10/19/2022	19:07	-131.555	48.463	0	707.80	0	3.7590	0	34.2120	0	27.189	0	700.634	0	16.2	4	5.1	4	-1E+10	1	-1E+10	1	-1E+10	1	-1E+10	1	-1E+10	1	-1E+10	1
4902551	79	C	10/19/2022	19:07	-131.555	48.463	0	712.70	0	3.7370	0	34.2190	0	27.197	0	705.476	0	16.0	4	5.0	4	-1E+10	1	-1E+10	1	-1E+10	1	-1E+10	1	-1E+10	1	-1E+10	1
4902551	79	C	10/19/2022	19:07	-131.555	48.463	0	717.80	0	3.7300	0	34.2200	0	27.198	0	710.516	0	15.8	4	5.0	4	-1E+10	1	-1E+10	1	-1E+10	1	-1E+10	1	-1E+10	1	-1E+10	1
4902551	79	C	10/19/2022	19:07	-131.555	48.463	0	722.90	0	3.7230	0	34.2220	0	27.200	0	715.555	0	15.6	4	4.9	4	-1E+10	1	-1E+10	1	-1E+10	1	-1E+10	1	-1E+10	1	-1E+10	1
4902551	79	C	10/19/2022	19:07	-131.555	48.463	0	728.20	0	3.7060	0	34.2270	0	27.206	0	720.792	0	15.4	4	4.8	4	-1E+10	1	-1E+10	1	-1E+10	1	-1E+10	1	-1E+10	1	-1E+10	1
4902551	79	C	10/19/2022	19:07	-131.555	48.463	0	733.10	0	3.6990	0	34.2290	0	27.208	0	725.634	0	15.3	4	4.8	4	-1E+10	1	-1E+10	1	-1E+10	1	-1E+10	1	-1E+10	1	-1E+10	1
4902551	79	C	10/19/2022	19:07	-131.555	48.463	0	738.10	0	3.6920	0	34.2320	0	27.212	0	730.574	0	15.2	4	4.8	4	-1E+10	1	-1E+10	1	-1E+10	1	-1E+10	1	-1E+10	1	-1E+10	1
4902551	79	C	10/19/2022	19:07	-131.555	48.463	0	743.10	0	3.6900	0	34.2320	0	27.212	0	735.514	0	15.0	4	4.7	4	-1E+10	1	-1E+10	1	-1E+10	1	-1E+10	1	-1E+10	1	-1E+10	1
4902551	79	C	10/19/2022	19:07	-131.555	48.463	0	747.80	0	3.6840	0	34.2340	0	27.214	0	740.158	0	14.8	4	4.6	4	-1E+10	1	-1E+10	1	-1E+10	1	-1E+10	1	-1E+10	1	-1E+10	1
4902551	79	C	10/19/2022	19:07	-131.555	48.463	0	752.60	0	3.6760	0	34.2370	0	27.217	0	744.900	0	14.6	4	4.6	4	-1E+10	1	-1E+10	1	-1E+10	1	-1E+10	1	-1E+10	1	-1E+10	1
4902551	79	C	10/19/2022	19:07	-131.555	48.463	0	757.40	0	3.6660	0	34.2410	0	27.221	0	749.643	0	14.4	4	4.5	4	-1E+10	1	-1E+10	1	-1E+10	1	-1E+10	1	-1E+10	1	-1E+10	1
4902551	79	C	10/19/2022	19:07	-131.555	48.463	0	762.90	0	3.6560	0	34.2440	0	27.225	0	755.076	0	14.2	4	4.4	4	-1E+10	1	-1E+10	1	-1E+10	1	-1E+10	1	-1E+10	1	-1E+10	1
4902551	79	C	10/19/2022	19:07	-131.555	48.463	0	768.40	0	3.6450	0	34.2500	0	27.231	0	760.510	0	14.0	4	4.4	4	-1E+10	1	-1E+10	1	-1E+10	1	-1E+10	1	-1E+10	1	-1E+10	1
4902551	79	C	10/19/2022	19:07	-131.555	48.463	0	773.30	0	3.6330	0	34.2530	0	27.234	0	765.351	0	13.8	4	4.3	4	-1E+10	1	-1E+10	1	-1E+10	1	-1E+10	1	-1E+10	1	-1E+10	1
4902551	79	C	10/19/2022	19:07	-131.555	48.463	0	778.20	0	3.6230	0	34.2560	0	27.238	0	770.191	0	13.6	4	4.3	4	-1E+10	1	-1E+10	1	-1E+10	1	-1E+10	1	-1E+10	1	-1E+10	1
4902551	79	C	10/19/2022	19:07	-131.555	48.463	0	783.10	0	3.6130	0	34.2600	0	27.242	0	775.032	0	13.5	4	4.2	4	-1E+10	1	-1E+10	1	-1E+10	1	-1E+10	1	-1E+10	1	-1E+10	1
4902551	79	C	10/19/2022	19:07	-131.555	48.463	0	788.10	0	3.6050	0	34.2630	0	27.245	0	779.971	0	13.3	4	4.2	4	-1E+10	1	-1E+10	1	-1E+10	1	-1E+10	1	-1E+10	1	-1E+10	1
4902551	79	C	10/19/2022	19:07	-131.555	48.463	0	793.10	0	3.5960	0	34.2660	0	27.248	0	784.910	0	13.2	4	4.1	4	-1E+10	1	-1E+10	1	-1E+10	1	-1E+10	1	-1E+10	1	-1E+10	1
4902551	79	C	10/19/2022	19:07	-131.555	48.463	0	798.10	0	3.5840	0	34.2690	0	27.252	0	789.849	0	13.1	4	4.1	4	-1E+10	1	-1E+10	1	-1E+10	1	-1E+10	1	-1E+10	1	-1E+10	1
4902551	79	C	10/19/2022	19:07	-131.555	48.463	0	803.10	0	3.5750	0	34.2710	0	27.255	0	794.788	0	13.0	4	4.1	4	-1E+10	1	-1E+10	1	-1E+10	1	-1E+10	1	-1E+10	1	-1E+10	1
4902551	79	C	10/19/2022	19:07	-131.555	48.463	0	808.20	0	3.5570	0	34.2750	0	27.259	0	799.825	0	13.0	4	4.1	4	-1E+10	1	-1E+10	1	-1E+10	1	-1E+10	1	-1E+10	1	-1E+10	1
4902551	79	C	10/19/2022	19:07	-131.555	48.463	0	813.20	0	3.5490	0	34.2760	0	27.261	0	804.764	0	12.9	4	4.0	4	-1E+10	1	-1E+10	1	-1E+10	1	-1E+10	1	-1E+10	1	-1E+10	1
4902551	79	C	10/19/2022	19:07	-131.555	48.463	0	818.20	0	3.5320	0	34.2790	0	27.265	0	809.702	0	12.8	4	4.0	4	-1E+10	1	-1E+10	1	-1E+10	1	-1E+10	1	-1E+10	1	-1E+10	1
4902551	79	C	10/19/2022	19:07	-131.555	48.463	0	823.30	0	3.5170	0	34.2830	0	27.270	0	814.739	0	12.7	4	4.0	4	-1E+10	1	-1E+10	1	-1E+10	1	-1E+10	1	-1E+10	1	-1E+10	1
4902551	79	C	10/19/2022	19:07	-131.555	48.463	0	828.00	0	3.5140	0	34.2840	0	27.271	0	819.381	0	12.6	4	3.9	4	-1E+10	1	-1E+10	1	-1E+10	1	-1E+10	1	-1E+10	1	-1E+10	1
4902551	79	C	10/19/2022	19:07	-131.555	48.463	0	832.60	0	3.5020	0	34.2860	0	27.274	0	823.924	0	12.5	4	3.9	4	-1E+10	1	-1E+10	1	-1E+10	1	-1E+10	1	-1E+10	1	-1E+10	1
4902551	79	C	10/19/2022	19:07	-131.555	48.463	0	837.70	0	3.4820	0	34.2920	0	27.280	0	828.961	0	12.4	4	3.9	4	-1E+10	1	-1E+10	1	-1E+10	1	-1E+10	1	-1E+10	1	-1E+10	1
4902551	79	C	10/19/2022	19:07	-131.555	48.463	0	842.80	0	3.4720	0	34.2940	0	27.283	0	833.998	0	12.3	4	3.8	4	-1E+10	1	-1E+10	1	-1E+10	1	-1E+10	1	-1E+10	1	-1E+10	1
4902551	79	C	10/19/2022	19:07	-131.555	48.463	0	847.80	0	3.4660	0	34.2970	0	27.286	0	838.935	0	12.3	4	3.8	4	-1E+10	1	-1E+10	1	-1E+10	1	-1E+10	1	-1E+10	1	-1E+10	1
4902551	79	C	10/19/2022	19:07	-131.555	48.463	0	852.90	0	3.4590	0	34.2980	0	27.288	0	843.972	0	12.2	4	3.8	4	-1E+10	1	-1E+10	1	-1E+10	1	-1E+10	1	-1E+10	1	-1E+10	1
4902551	79	C	10/19/2022	19:07	-131.555	48.463	0	857.70	0	3.4540	0	34.2990	0	27.289	0	848.712	0	12.2	4	3.8	4	-1E+10	1	-1E+10	1	-1E+10	1	-1E+10	1	-1E+10	1	-1E+10	1
4902551	79	C	10/19/2022	19:07	-131.555	48.463	0	862.90	0	3.4480	0	34.3010	0	27.291	0	853.847	0	12.0	4	3.8	4	-1E+10	1	-1E+10	1	-1E+10	1	-1E+10	1	-1E+10	1	-1E+10	1
4902551	79	C	10/19/2022	19:07	-131.555	48.463	0	868.30	0	3.4360	0	34.3060	0	27.296	0	859.179	0	11.9	4	3.7	4	-1E+10	1	-1E+10	1	-1E+10	1	-1E+10	1	-1E+10	1	-1E+10	1
4902551	79	C	10/19/2022	19:07	-131.555	48.463	0	872.90	0	3.4310	0	34.3110	0	27.301	0	863.721	0	11.8	4	3.7	4	-1E+10	1	-1E+10	1	-1E+10	1	-1E+10	1	-1E+10	1	-1E+10	1
4902551	79	C	10/19/2022	19:07	-131.555	48.463	0	877.60	0	3.4180	0	34.3130	0	27.304	0	868.362	0	11.8	4	3.7	4	-1E+10	1	-1E+10	1	-1E+10	1	-1E+10	1	-1E+10	1	-1E+10	1
4902551	79	C	10/19/2022	19:07	-131.555	48.463	0	882.80	0	3.3980	0	34.3170	0	27.309	0	873.496	0	11.8	4	3.7	4	-1E+10	1	-1E+10	1	-1E+10	1	-1E+10	1	-1E+10	1	-1E+10	1
4902551	79	C	10/19/2022	19:07	-131.555	48.463	0	888.10	0	3.3750	0	34.3210	0	27.314	0	878.729	0	11.8	4	3.7	4	-1E+10	1	-1E+10	1	-1E+10	1	-1E+10	1	-1E+10	1	-1E+10	1
4902551	79	C	10/19/2022	19:07	-131.555	48.463	0	893.10	0	3.3710	0	34.3210	0	27.314	0	883.666	0	11.8	4	3.7	4	-1E+10	1	-1E+10	1	-1E+10	1	-1E+10	1	-1E+10	1	-1E+10	1
4902551	79	C	10/19/2022	19:07	-131.555	48.463	0	898.10	0	3.3670	0	34.3220	0	27.316	0	888.603	0	11.8	4	3.7	4	-1E+10	1	-1E+10	1	-1E+10	1	-1E+10	1	-1E+10	1	-1E+10	1
4902551	79	C	10/19/2022	19:07	-131.555	48.463	0	903.10	0	3.3510	0	34.3260	0	27.320	0	893.539	0	11.8	4	3.7	4	-1E+10	1	-1E+10	1	-1E+10	1	-1E+10	1	-1E+10	1	-1E+10	1
4902551	79	C	10/19/2022	19:07	-131.555	48.463	0	907.80	0	3.3360	0	34.3280	0	27.323	0	898.179	0	11.8	4	3.7	4	-1E+10	1	-1E+10	1	-1E+10	1	-1E+10	1	-1E+10	1	-1E+10	1
4902551	79	C	10/19/2022	19:07	-131.555	48.463	0	912.90	0	3.3280	0	34.3280	0	27.324	0	903.214	0	11.8	4	3.7	4	-1E+10	1	-1E+10	1	-1E+10	1	-1E+10	1	-1E+10	1	-1E+10	1
4902551	79	C	10/19/2022	19:07	-131.555	48.463	0	918.10	0	3.3160	0	34.3300	0	27.327	0	908.348	0	11.8	4	3.7	4	-1E+10	1	-1E+10	1	-1E+10	1	-1E+10	1	-1E+10	1	-1E+10	1
4902551	79	C	10/19/2022	19:07	-131.555	48.463	0	922.80	0	3.3080	0	34.3320	0	27.329	0	912.987	0	11.8	4	3.7	4	-1E+10	1	-1E+10	1	-1E+10	1	-1E+10	1	-1E+10	1	-1E+10	1
4902551	79	C	10/19/2022	19:07	-131.555	48.463	0	928.00	0	3.2970	0	34.3330	0	27.331	0	918.121	0	11.8	4	3.7	4	-1E+10	1	-1E+10	1	-1E+10	1	-1E+10	1	-1E+10	1	-1E+10	1
4902551	79	C	10/19/2022	19:07	-131.555	48.463	0	933.20	0	3.2920	0	34.3340	0	27.333	0	923.254	0	11.8	4	3.7	4	-1E+10	1	-1E+10	1	-1E+10	1	-1E+10	1	-1E+10	1	-1E+10	1
4902551	79	C	10/19/2022	19:07	-131.555	48.463	0	938.00	0	3.2810	0	34.3360	0	27.335	0	927.992	0	11.8	4	3.7	4	-1E+10	1	-1E+10	1	-1E+10	1	-1E+10	1	-1E+10	1	-1E+10	1
4902551	79	C	10/19/2022	19:07	-131.555	48.463	0	942.80	0	3.2710	0	34.3370	0	27.337	0	932.730	0	11.8	4	3.7	4	-1E+10	1	-1E+10	1	-1E+10	1	-1E+10	1	-1E+10	1	-1E+10	1
4902551	79	C	10/19/2022	19:07	-131.555	48.463	0	947.70	0	3.2570	0	34.3400	0	27.341	0	937.567	0	11.8	4	3.7	4	-1E+10	1	-1E+10	1	-1E+10	1	-1E+10	1	-1E+10	1	-1E+10	1
4902551	79	C	10/19/2022	19:07	-131.555	48.463	0	952.50	0	3.2490	0	34.3410	0	27.342	0	942.305	0	11.8	4	3.7	4	-1E+10	1	-1E+10	1	-1E+10	1	-1E+10	1	-1E+10	1	-1E+10	1
4902551	79	C	10/19/2022	19:07	-131.555	48.463	0	957.90	0	3.2370	0	34.3430	0	27.345	0	947.635	0	11.8	4	3.7	4	-1E+10	1	-1E+10	1	-1E+10	1	-1E+10	1	-1E+10	1	-1E+10	1
4902551	79	C	10/19/2022	19:07	-131.555	48.463	0	963.40	0	3.2180	0	34.3460	0	27.349	0	953.063	0	11.8	4	3.7	4	-1E+10	1	-1E+10	1	-1E+10	1	-1E+10	1	-1E+10	1	-1E+10	1
4902551	79	C	10/19/2022	19:07	-131.555	48.463	0	968.30	0	3.2070	0	34.3490	0	27.353	0	957.900	0	11.8	4	3.7	4	-1E+10	1	-1E+10	1	-1E+10	1	-1E+10	1	-1E+10	1	-1E+10	1
4902551	79	C	10/19/2022	19:07	-131.555	48.463	0	973.30	0	3.1970	0	34.3520	0	27.356	0	962.834	0	11.8	4	3.7	4	-1E+10	1	-1E+10	1	-1E+10	1	-1E+10	1	-1E+10	1	-1E+10	1
4902551	79	C	10/19/2022	19:07	-131.555	48.463	0	978.30	0	3.1890	0	34.3520	0	27.357	0	967.769	0	11.8	4	3.7	4	-1E+10	1	-1E+10	1	-1E+10	1	-1E+10	1	-1E+10	1	-1E+10	1
4902551	79	C	10/19/2022	19:07	-131.555	48.463	0	983.30	0	3.1840	0	34.3540	0	27.359	0	972.704	0	11.8	4	3.6	4	-1E+10	1	-1E+10	1	-1E+10	1	-1E+10	1	-1E+10	1	-1E+10	1
4902551	79	C	10/19/2022	19:07	-131.555	48.463	0	988.30	0	3.1770	0	34.3550	0	27.360	0	977.638	0	11.8	4	3.7	4	-1E+10	1	-1E+10	1	-1E+10	1	-1E+10	1	-1E+10	1	-1E+10	1
4902551	79	C	10/19/2022	19:07	-131.555	48.463	0	993.30	0	3.1620	0	34.3580	0	27.364	0	982.573	0	11.8	4	3.7	4	-1E+10	1	-1E+10	1	-1E+10	1	-1E+10	1	-1E+10	1	-1E+10	1
4902551	79	C	10/19/2022	19:07	-131.555	48.463	0	998.30	0	3.1440	0	34.3620	0	27.369	0	987.507	0	11.8	4	3.7	4	-1E+10	1	-1E+10	1	-1E+10	1	-1E+10	1	-1E+10	1	-1E+10	1
4902551	79	C	10/19/2022	19:07	-131.555	48.463	0	1005.80	0	3.1280	0	34.3650	0	27.373	0	994.908	0	11.8	4	3.7	4	-1E+10	1	-1E+10	1	-1E+10	1	-1E+10	1	-1E+10	1	-1E+10	1
4902551	79	C	10/19/2022	19:07	-131.555	48.463	0	1015.50	0	3.1130	0	34.3680	0	27.377	0	1004.480	0	11.9	4	3.7	4	-1E+10	1	-1E+10	1	-1E+10	1	-1E+10	1	-1E+10	1	-1E+10	1
4902551	79	C	10/19/2022	19:07	-131.555	48.463	0	1025.10	0	3.0940	0	34.3720	0	27.382	0	1013.952	0	11.9	4	3.7	4	-1E+10	1	-1E+10	1	-1E+10	1	-1E+10	1	-1E+10	1	-1E+10	1
4902551	79	C	10/19/2022	19:07	-131.555	48.463	0	1035.40	0	3.0800	0	34.3740	0	27.385	0	1024.115	0	11.9	4	3.7	4	-1E+10	1	-1E+10	1	-1E+10	1	-1E+10	1	-1E+10	1	-1E+10	1
4902551	79	C	10/19/2022	19:07	-131.555	48.463	0	1045.50	0	3.0650	0	34.3780	0	27.389	0	1034.080	0	12.0	4	3.7	4	-1E+10	1	-1E+10	1	-1E+10	1	-1E+10	1	-1E+10	1	-1E+10	1
4902551	79	C	10/19/2022	19:07	-131.555	48.463	0	1055.30	0	3.0400	0	34.3820	0	27.395	0	1043.749	0	12.1	4	3.7	4	-1E+10	1	-1E+10	1	-1E+10	1	-1E+10	1	-1E+10	1	-1E+10	1
4902551	79	C	10/19/2022	19:07	-131.555	48.463	0	1065.10	0	3.0170	0	34.3860	0	27.400	0	1053.417	0	12.1	4	3.7	4	-1E+10	1	-1E+10	1	-1E+10	1	-1E+10	1	-1E+10	1	-1E+10	1
4902551	79	C	10/19/2022	19:07	-131.555	48.463	0	1075.60	0	2.9990	0	34.3890	0	27.404	0	1063.775	0	12.2	4	3.8	4	-1E+10	1	-1E+10	1	-1E+10	1	-1E+10	1	-1E+10	1	-1E+10	1
4902551	79	C	10/19/2022	19:07	-131.555	48.463	0	1086.10	0	2.9870	0	34.3910	0	27.407	0	1074.133	0	12.2	4	3.8	4	-1E+10	1	-1E+10	1	-1E+10	1	-1E+10	1	-1E+10	1	-1E+10	1
4902551	79	C	10/19/2022	19:07	-131.555	48.463	0	1095.60	0	2.9690	0	34.3940	0	27.411	0	1083.504	0	12.3	4	3.8	4	-1E+10	1	-1E+10	1	-1E+10	1	-1E+10	1	-1E+10	1	-1E+10	1
4902551	79	C	10/19/2022	19:07	-131.555	48.463	0	1105.40	0	2.9550	0	34.3970	0	27.415	0	1093.170	0	12.4	4	3.8	4	-1E+10	1	-1E+10	1	-1E+10	1	-1E+10	1	-1E+10	1	-1E+10	1
4902551	79	C	10/19/2022	19:07	-131.555	48.463	0	1115.40	0	2.9350	0	34.4010	0	27.420	0	1103.033	0	12.5	4	3.9	4	-1E+10	1	-1E+10	1	-1E+10	1	-1E+10	1	-1E+10	1	-1E+10	1
4902551	79	C	10/19/2022	19:07	-131.555	48.463	0	1125.40	0	2.9120	0	34.4050	0	27.425	0	1112.896	0	12.7	4	3.9	4	-1E+10	1	-1E+10	1	-1E+10	1	-1E+10	1	-1E+10	1	-1E+10	1
4902551	79	C	10/19/2022	19:07	-131.555	48.463	0	1135.70	0	2.8950	0	34.4090	0	27.430	0	1123.054	0	12.9	4	4.0	4	-1E+10	1	-1E+10	1	-1E+10	1	-1E+10	1	-1E+10	1	-1E+10	1
4902551	79	C	10/19/2022	19:07	-131.555	48.463	0	1145.60	0	2.8800	0	34.4120	0	27.434	0	1132.817	0	13.0	4	4.0	4	-1E+10	1	-1E+10	1	-1E+10	1	-1E+10	1	-1E+10	1	-1E+10	1
4902551	79	C	10/19/2022	19:07	-131.555	48.463	0	1155.30	0	2.8640	0	34.4150	0	27.437	0	1142.382	0	13.1	4	4.0	4	-1E+10	1	-1E+10	1	-1E+10	1	-1E+10	1	-1E+10	1	-1E+10	1
4902551	79	C	10/19/2022	19:07	-131.555	48.463	0	1165.30	0	2.8520	0	34.4170	0	27.440	0	1152.243	0	13.2	4	4.0	4	-1E+10	1	-1E+10	1	-1E+10	1	-1E+10	1	-1E+10	1	-1E+10	1
4902551	79	C	10/19/2022	19:07	-131.555	48.463	0	1175.20	0	2.8400	0	34.4180	0	27.442	0	1162.005	0	13.2	4	4.1	4	-1E+10	1	-1E+10	1	-1E+10	1	-1E+10	1	-1E+10	1	-1E+10	1
4902551	79	C	10/19/2022	19:07	-131.555	48.463	0	1185.30	0	2.8260	0	34.4200	0	27.445	0	1171.963	0	13.4	4	4.1	4	-1E+10	1	-1E+10	1	-1E+10	1	-1E+10	1	-1E+10	1	-1E+10	1
4902551	79	C	10/19/2022	19:07	-131.555	48.463	0	1195.60	0	2.8020	0	34.4250	0	27.451	0	1182.118	0	13.6	4	4.2	4	-1E+10	1	-1E+10	1	-1E+10	1	-1E+10	1	-1E+10	1	-1E+10	1
4902551	79	C	10/19/2022	19:07	-131.555	48.463	0	1205.70	0	2.7880	0	34.4280	0	27.455	0	1192.076	0	13.8	4	4.2	4	-1E+10	1	-1E+10	1	-1E+10	1	-1E+10	1	-1E+10	1	-1E+10	1
4902551	79	C	10/19/2022	19:07	-131.555	48.463	0	1215.60	0	2.7760	0	34.4300	0	27.457	0	1201.836	0	14.0	4	4.3	4	-1E+10	1	-1E+10	1	-1E+10	1	-1E+10	1	-1E+10	1	-1E+10	1
4902551	79	C	10/19/2022	19:07	-131.555	48.463	0	1225.70	0	2.7620	0	34.4320	0	27.460	0	1211.792	0	14.1	4	4.3	4	-1E+10	1	-1E+10	1	-1E+10	1	-1E+10	1	-1E+10	1	-1E+10	1
4902551	79	C	10/19/2022	19:07	-131.555	48.463	0	1235.10	0	2.7540	0	34.4340	0	27.463	0	1221.058	0	14.3	4	4.4	4	-1E+10	1	-1E+10	1	-1E+10	1	-1E+10	1	-1E+10	1	-1E+10	1
4902551	79	C	10/19/2022	19:07	-131.555	48.463	0	1245.40	0	2.7410	0	34.4360	0	27.465	0	1231.211	0	14.5	4	4.5	4	-1E+10	1	-1E+10	1	-1E+10	1	-1E+10	1	-1E+10	1	-1E+10	1
4902551	79	C	10/19/2022	19:07	-131.555	48.463	0	1255.50	0	2.7330	0	34.4390	0	27.469	0	1241.166	0	14.9	4	4.6	4	-1E+10	1	-1E+10	1	-1E+10	1	-1E+10	1	-1E+10	1	-1E+10	1
4902551	79	C	10/19/2022	19:07	-131.555	48.463	0	1265.20	0	2.7240	0	34.4410	0	27.471	0	1250.727	0	15.1	4	4.6	4	-1E+10	1	-1E+10	1	-1E+10	1	-1E+10	1	-1E+10	1	-1E+10	1
4902551	79	C	10/19/2022	19:07	-131.555	48.463	0	1275.50	0	2.7100	0	34.4440	0	27.475	0	1260.878	0	15.3	4	4.7	4	-1E+10	1	-1E+10	1	-1E+10	1	-1E+10	1	-1E+10	1	-1E+10	1
4902551	79	C	10/19/2022	19:07	-131.555	48.463	0	1285.50	0	2.7000	0	34.4450	0	27.476	0	1270.733	0	15.5	4	4.8	4	-1E+10	1	-1E+10	1	-1E+10	1	-1E+10	1	-1E+10	1	-1E+10	1
4902551	79	C	10/19/2022	19:07	-131.555	48.463	0	1295.50	0	2.6810	0	34.4490	0	27.481	0	1280.588	0	15.9	4	4.9	4	-1E+10	1	-1E+10	1	-1E+10	1	-1E+10	1	-1E+10	1	-1E+10	1
4902551	79	C	10/19/2022	19:07	-131.555	48.463	0	1305.50	0	2.6660	0	34.4520	0	27.485	0	1290.442	0	16.2	4	5.0	4	-1E+10	1	-1E+10	1	-1E+10	1	-1E+10	1	-1E+10	1	-1E+10	1
4902551	79	C	10/19/2022	19:07	-131.555	48.463	0	1315.20	0	2.6520	0	34.4550	0	27.489	0	1300.000	0	16.4	4	5.0	4	-1E+10	1	-1E+10	1	-1E+10	1	-1E+10	1	-1E+10	1	-1E+10	1
4902551	79	C	10/19/2022	19:07	-131.555	48.463	0	1325.20	0	2.6410	0	34.4560	0	27.491	0	1309.854	0	16.6	4	5.1	4	-1E+10	1	-1E+10	1	-1E+10	1	-1E+10	1	-1E+10	1	-1E+10	1
4902551	79	C	10/19/2022	19:07	-131.555	48.463	0	1335.40	0	2.6260	0	34.4590	0	27.494	0	1319.904	0	17.1	4	5.2	4	-1E+10	1	-1E+10	1	-1E+10	1	-1E+10	1	-1E+10	1	-1E+10	1
4902551	79	C	10/19/2022	19:07	-131.555	48.463	0	1345.30	0	2.6120	0	34.4620	0	27.498	0	1329.658	0	17.5	4	5.4	4	-1E+10	1	-1E+10	1	-1E+10	1	-1E+10	1	-1E+10	1	-1E+10	1
4902551	79	C	10/19/2022	19:07	-131.555	48.463	0	1355.20	0	2.5950	0	34.4650	0	27.502	0	1339.411	0	18.0	4	5.5	4	-1E+10	1	-1E+10	1	-1E+10	1	-1E+10	1	-1E+10	1	-1E+10	1
4902551	79	C	10/19/2022	19:07	-131.555	48.463	0	1365.60	0	2.5690	0	34.4690	0	27.507	0	1349.657	0	18.7	4	5.7	4	-1E+10	1	-1E+10	1	-1E+10	1	-1E+10	1	-1E+10	1	-1E+10	1
4902551	79	C	10/19/2022	19:07	-131.555	48.463	0	1375.60	0	2.5550	0	34.4730	0	27.512	0	1359.508	0	19.2	4	5.9	4	-1E+10	1	-1E+10	1	-1E+10	1	-1E+10	1	-1E+10	1	-1E+10	1
4902551	79	C	10/19/2022	19:07	-131.555	48.463	0	1385.30	0	2.5450	0	34.4750	0	27.514	0	1369.063	0	19.6	4	6.0	4	-1E+10	1	-1E+10	1	-1E+10	1	-1E+10	1	-1E+10	1	-1E+10	1
4902551	79	C	10/19/2022	19:07	-131.555	48.463	0	1395.10	0	2.5270	0	34.4780	0	27.518	0	1378.716	0	20.3	4	6.2	4	-1E+10	1	-1E+10	1	-1E+10	1	-1E+10	1	-1E+10	1	-1E+10	1
4902551	79	C	10/19/2022	19:07	-131.555	48.463	0	1405.00	0	2.5180	0	34.4810	0	27.521	0	1388.467	0	20.8	4	6.3	4	-1E+10	1	-1E+10	1	-1E+10	1	-1E+10	1	-1E+10	1	-1E+10	1
4902551	79	C	10/19/2022	19:07	-131.555	48.463	0	1415.00	0	2.5120	0	34.4820	0	27.523	0	1398.316	0	21.2	4	6.5	4	-1E+10	1	-1E+10	1	-1E+10	1	-1E+10	1	-1E+10	1	-1E+10	1
4902551	79	C	10/19/2022	19:07	-131.555	48.463	0	1425.10	0	2.5000	0	34.4840	0	27.525	0	1408.263	0	21.7	4	6.6	4	-1E+10	1	-1E+10	1	-1E+10	1	-1E+10	1	-1E+10	1	-1E+10	1
4902551	79	C	10/19/2022	19:07	-131.555	48.463	0	1435.50	0	2.4810	0	34.4880	0	27.530	0	1418.506	0	22.4	4	6.8	4	-1E+10	1	-1E+10	1	-1E+10	1	-1E+10	1	-1E+10	1	-1E+10	1
4902551	79	C	10/19/2022	19:07	-131.555	48.463	0	1445.60	0	2.4660	0	34.4900	0	27.533	0	1428.452	0	23.0	4	7.0	4	-1E+10	1	-1E+10	1	-1E+10	1	-1E+10	1	-1E+10	1	-1E+10	1
4902551	79	C	10/19/2022	19:07	-131.555	48.463	0	1455.40	0	2.4540	0	34.4920	0	27.536	0	1438.102	0	23.7	4	7.2	4	-1E+10	1	-1E+10	1	-1E+10	1	-1E+10	1	-1E+10	1	-1E+10	1
4902551	79	C	10/19/2022	19:07	-131.555	48.463	0	1465.30	0	2.4340	0	34.4960	0	27.541	0	1447.851	0	24.4	4	7.4	4	-1E+10	1	-1E+10	1	-1E+10	1	-1E+10	1	-1E+10	1	-1E+10	1
4902551	79	C	10/19/2022	19:07	-131.555	48.463	0	1475.50	0	2.4240	0	34.4980	0	27.543	0	1457.894	0	24.9	4	7.6	4	-1E+10	1	-1E+10	1	-1E+10	1	-1E+10	1	-1E+10	1	-1E+10	1
4902551	79	C	10/19/2022	19:07	-131.555	48.463	0	1485.40	0	2.4070	0	34.5010	0	27.547	0	1467.642	0	25.5	4	7.8	4	-1E+10	1	-1E+10	1	-1E+10	1	-1E+10	1	-1E+10	1	-1E+10	1
4902551	79	C	10/19/2022	19:07	-131.555	48.463	0	1495.10	0	2.3960	0	34.5030	0	27.550	0	1477.192	0	25.9	4	7.9	4	-1E+10	1	-1E+10	1	-1E+10	1	-1E+10	1	-1E+10	1	-1E+10	1
4902551	79	C	10/19/2022	19:07	-131.555	48.463	0	1505.10	0	2.3790	0	34.5050	0	27.553	0	1487.037	0	26.4	4	8.0	4	-1E+10	1	-1E+10	1	-1E+10	1	-1E+10	1	-1E+10	1	-1E+10	1
4902551	79	C	10/19/2022	19:07	-131.555	48.463	0	1515.40	0	2.3720	0	34.5070	0	27.555	0	1497.177	0	26.7	4	8.1	4	-1E+10	1	-1E+10	1	-1E+10	1	-1E+10	1	-1E+10	1	-1E+10	1
4902551	79	C	10/19/2022	19:07	-131.555	48.463	0	1525.50	0	2.3690	0	34.5070	0	27.555	0	1507.119	0	27.2	4	8.3	4	-1E+10	1	-1E+10	1	-1E+10	1	-1E+10	1	-1E+10	1	-1E+10	1
4902551	79	C	10/19/2022	19:07	-131.555	48.463	0	1535.50	0	2.3540	0	34.5100	0	27.559	0	1516.963	0	27.9	4	8.5	4	-1E+10	1	-1E+10	1	-1E+10	1	-1E+10	1	-1E+10	1	-1E+10	1
4902551	79	C	10/19/2022	19:07	-131.555	48.463	0	1545.80	0	2.3380	0	34.5130	0	27.563	0	1527.102	0	28.5	4	8.6	4	-1E+10	1	-1E+10	1	-1E+10	1	-1E+10	1	-1E+10	1	-1E+10	1
4902551	79	C	10/19/2022	19:07	-131.555	48.463	0	1555.60	0	2.3280	0	34.5140	0	27.564	0	1536.747	0	29.0	4	8.8	4	-1E+10	1	-1E+10	1	-1E+10	1	-1E+10	1	-1E+10	1	-1E+10	1
4902551	79	C	10/19/2022	19:07	-131.555	48.463	0	1565.50	0	2.3170	0	34.5160	0	27.567	0	1546.491	0	29.5	4	9.0	4	-1E+10	1	-1E+10	1	-1E+10	1	-1E+10	1	-1E+10	1	-1E+10	1
4902551	79	C	10/19/2022	19:07	-131.555	48.463	0	1575.70	0	2.3010	0	34.5190	0	27.571	0	1556.530	0	29.9	4	9.1	4	-1E+10	1	-1E+10	1	-1E+10	1	-1E+10	1	-1E+10	1	-1E+10	1
4902551	79	C	10/19/2022	19:07	-131.555	48.463	0	1585.60	0	2.2900	0	34.5200	0	27.572	0	1566.273	0	30.1	4	9.1	4	-1E+10	1	-1E+10	1	-1E+10	1	-1E+10	1	-1E+10	1	-1E+10	1
4902551	79	C	10/19/2022	19:07	-131.555	48.463	0	1595.40	0	2.2730	0	34.5220	0	27.575	0	1575.917	0	30.7	4	9.3	4	-1E+10	1	-1E+10	1	-1E+10	1	-1E+10	1	-1E+10	1	-1E+10	1
4902551	79	C	10/19/2022	19:07	-131.555	48.463	0	1605.20	0	2.2560	0	34.5250	0	27.579	0	1585.561	0	31.3	4	9.5	4	-1E+10	1	-1E+10	1	-1E+10	1	-1E+10	1	-1E+10	1	-1E+10	1
4902551	79	C	10/19/2022	19:07	-131.555	48.463	0	1615.40	0	2.2460	0	34.5260	0	27.581	0	1595.597	0	32.0	4	9.7	4	-1E+10	1	-1E+10	1	-1E+10	1	-1E+10	1	-1E+10	1	-1E+10	1
4902551	79	C	10/19/2022	19:07	-131.555	48.463	0	1625.40	0	2.2290	0	34.5300	0	27.586	0	1605.437	0	33.0	4	10.0	4	-1E+10	1	-1E+10	1	-1E+10	1	-1E+10	1	-1E+10	1	-1E+10	1
4902551	79	C	10/19/2022	19:07	-131.555	48.463	0	1635.70	0	2.2130	0	34.5320	0	27.589	0	1615.571	0	33.7	4	10.2	4	-1E+10	1	-1E+10	1	-1E+10	1	-1E+10	1	-1E+10	1	-1E+10	1
4902551	79	C	10/19/2022	19:07	-131.555	48.463	0	1645.50	0	2.2060	0	34.5340	0	27.591	0	1625.213	0	34.1	4	10.3	4	-1E+10	1	-1E+10	1	-1E+10	1	-1E+10	1	-1E+10	1	-1E+10	1
4902551	79	C	10/19/2022	19:07	-131.555	48.463	0	1655.10	0	2.2000	0	34.5350	0	27.592	0	1634.658	0	34.5	4	10.4	4	-1E+10	1	-1E+10	1	-1E+10	1	-1E+10	1	-1E+10	1	-1E+10	1
4902551	79	C	10/19/2022	19:07	-131.555	48.463	0	1665.10	0	2.1940	0	34.5360	0	27.593	0	1644.495	0	35.2	4	10.7	4	-1E+10	1	-1E+10	1	-1E+10	1	-1E+10	1	-1E+10	1	-1E+10	1
4902551	79	C	10/19/2022	19:07	-131.555	48.463	0	1675.20	0	2.1820	0	34.5380	0	27.596	0	1654.431	0	36.1	4	10.9	4	-1E+10	1	-1E+10	1	-1E+10	1	-1E+10	1	-1E+10	1	-1E+10	1
4902551	79	C	10/19/2022	19:07	-131.555	48.463	0	1685.60	0	2.1750	0	34.5400	0	27.598	0	1664.661	0	37.0	4	11.2	4	-1E+10	1	-1E+10	1	-1E+10	1	-1E+10	1	-1E+10	1	-1E+10	1
4902551	79	C	10/19/2022	19:07	-131.555	48.463	0	1695.50	0	2.1630	0	34.5430	0	27.602	0	1674.399	0	37.7	4	11.4	4	-1E+10	1	-1E+10	1	-1E+10	1	-1E+10	1	-1E+10	1	-1E+10	1
4902551	79	C	10/19/2022	19:07	-131.555	48.463	0	1705.10	0	2.1560	0	34.5440	0	27.603	0	1683.842	0	38.3	4	11.6	4	-1E+10	1	-1E+10	1	-1E+10	1	-1E+10	1	-1E+10	1	-1E+10	1
4902551	79	C	10/19/2022	19:07	-131.555	48.463	0	1715.40	0	2.1440	0	34.5460	0	27.606	0	1693.972	0	38.9	4	11.8	4	-1E+10	1	-1E+10	1	-1E+10	1	-1E+10	1	-1E+10	1	-1E+10	1
4902551	79	C	10/19/2022	19:07	-131.555	48.463	0	1725.80	0	2.1350	0	34.5470	0	27.607	0	1704.200	0	39.5	4	11.9	4	-1E+10	1	-1E+10	1	-1E+10	1	-1E+10	1	-1E+10	1	-1E+10	1
4902551	79	C	10/19/2022	19:07	-131.555	48.463	0	1735.70	0	2.1260	0	34.5490	0	27.610	0	1713.936	0	40.1	4	12.1	4	-1E+10	1	-1E+10	1	-1E+10	1	-1E+10	1	-1E+10	1	-1E+10	1
4902551	79	C	10/19/2022	19:07	-131.555	48.463	0	1745.80	0	2.1160	0	34.5500	0	27.611	0	1723.869	0	40.7	4	12.3	4	-1E+10	1	-1E+10	1	-1E+10	1	-1E+10	1	-1E+10	1	-1E+10	1
4902551	79	C	10/19/2022	19:07	-131.555	48.463	0	1755.50	0	2.1050	0	34.5530	0	27.615	0	1733.407	0	41.2	4	12.5	4	-1E+10	1	-1E+10	1	-1E+10	1	-1E+10	1	-1E+10	1	-1E+10	1
4902551	79	C	10/19/2022	19:07	-131.555	48.463	0	1765.20	0	2.0990	0	34.5540	0	27.616	0	1742.945	0	41.6	4	12.6	4	-1E+10	1	-1E+10	1	-1E+10	1	-1E+10	1	-1E+10	1	-1E+10	1
4902551	79	C	10/19/2022	19:07	-131.555	48.463	0	1775.10	0	2.0930	0	34.5540	0	27.616	0	1752.680	0	42.0	4	12.7	4	-1E+10	1	-1E+10	1	-1E+10	1	-1E+10	1	-1E+10	1	-1E+10	1
4902551	79	C	10/19/2022	19:07	-131.555	48.463	0	1785.20	0	2.0870	0	34.5560	0	27.619	0	1762.610	0	42.4	4	12.8	4	-1E+10	1	-1E+10	1	-1E+10	1	-1E+10	1	-1E+10	1	-1E+10	1
4902551	79	C	10/19/2022	19:07	-131.555	48.463	0	1795.30	0	2.0820	0	34.5570	0	27.620	0	1772.541	0	42.9	4	13.0	4	-1E+10	1	-1E+10	1	-1E+10	1	-1E+10	1	-1E+10	1	-1E+10	1
4902551	79	C	10/19/2022	19:07	-131.555	48.463	0	1805.40	0	2.0760	0	34.5580	0	27.621	0	1782.470	0	43.5	4	13.1	4	-1E+10	1	-1E+10	1	-1E+10	1	-1E+10	1	-1E+10	1	-1E+10	1
4902551	79	C	10/19/2022	19:07	-131.555	48.463	0	1815.40	0	2.0680	0	34.5590	0	27.623	0	1792.301	0	44.1	4	13.3	4	-1E+10	1	-1E+10	1	-1E+10	1	-1E+10	1	-1E+10	1	-1E+10	1
4902551	79	C	10/19/2022	19:07	-131.555	48.463	0	1825.40	0	2.0630	0	34.5600	0	27.624	0	1802.131	0	44.7	4	13.5	4	-1E+10	1	-1E+10	1	-1E+10	1	-1E+10	1	-1E+10	1	-1E+10	1
4902551	79	C	10/19/2022	19:07	-131.555	48.463	0	1835.30	0	2.0550	0	34.5620	0	27.626	0	1811.863	0	45.6	4	13.8	4	-1E+10	1	-1E+10	1	-1E+10	1	-1E+10	1	-1E+10	1	-1E+10	1
4902551	79	C	10/19/2022	19:07	-131.555	48.463	0	1845.50	0	2.0430	0	34.5650	0	27.630	0	1821.889	0	46.5	4	14.0	4	-1E+10	1	-1E+10	1	-1E+10	1	-1E+10	1	-1E+10	1	-1E+10	1
4902551	79	C	10/19/2022	19:07	-131.555	48.463	0	1855.60	0	2.0340	0	34.5660	0	27.631	0	1831.816	0	47.0	4	14.2	4	-1E+10	1	-1E+10	1	-1E+10	1	-1E+10	1	-1E+10	1	-1E+10	1
4902551	79	C	10/19/2022	19:07	-131.555	48.463	0	1865.70	0	2.0280	0	34.5670	0	27.632	0	1841.743	0	47.4	4	14.3	4	-1E+10	1	-1E+10	1	-1E+10	1	-1E+10	1	-1E+10	1	-1E+10	1
4902551	79	C	10/19/2022	19:07	-131.555	48.463	0	1875.70	0	2.0230	0	34.5680	0	27.634	0	1851.571	0	47.7	4	14.4	4	-1E+10	1	-1E+10	1	-1E+10	1	-1E+10	1	-1E+10	1	-1E+10	1
4902551	79	C	10/19/2022	19:07	-131.555	48.463	0	1885.70	0	2.0200	0	34.5690	0	27.635	0	1861.399	0	48.0	4	14.5	4	-1E+10	1	-1E+10	1	-1E+10	1	-1E+10	1	-1E+10	1	-1E+10	1
4902551	79	C	10/19/2022	19:07	-131.555	48.463	0	1895.40	0	2.0160	0	34.5700	0	27.636	0	1870.931	0	48.3	4	14.6	4	-1E+10	1	-1E+10	1	-1E+10	1	-1E+10	1	-1E+10	1	-1E+10	1
4902551	79	C	10/19/2022	19:07	-131.555	48.463	0	1905.20	0	2.0100	0	34.5710	0	27.637	0	1880.561	0	48.8	4	14.7	4	-1E+10	1	-1E+10	1	-1E+10	1	-1E+10	1	-1E+10	1	-1E+10	1
4902551	79	C	10/19/2022	19:07	-131.555	48.463	0	1915.50	0	2.0030	0	34.5720	0	27.639	0	1890.683	0	49.2	4	14.8	4	-1E+10	1	-1E+10	1	-1E+10	1	-1E+10	1	-1E+10	1	-1E+10	1
4902551	79	C	10/19/2022	19:07	-131.555	48.463	0	1925.50	0	2.0020	0	34.5720	0	27.639	0	1900.508	0	49.5	4	14.9	4	-1E+10	1	-1E+10	1	-1E+10	1	-1E+10	1	-1E+10	1	-1E+10	1
4902551	79	C	10/19/2022	19:07	-131.555	48.463	0	1935.40	0	1.9970	0	34.5730	0	27.640	0	1910.235	0	50.0	4	15.1	4	-1E+10	1	-1E+10	1	-1E+10	1	-1E+10	1	-1E+10	1	-1E+10	1
4902551	79	C	10/19/2022	19:07	-131.555	48.463	0	1945.40	0	1.9900	0	34.5740	0	27.641	0	1920.060	0	50.7	4	15.3	4	-1E+10	1	-1E+10	1	-1E+10	1	-1E+10	1	-1E+10	1	-1E+10	1
4902551	79	C	10/19/2022	19:07	-131.555	48.463	0	1955.40	0	1.9790	0	34.5760	0	27.644	0	1929.885	0	51.3	4	15.4	4	-1E+10	1	-1E+10	1	-1E+10	1	-1E+10	1	-1E+10	1	-1E+10	1
4902551	79	C	10/19/2022	19:07	-131.555	48.463	0	1965.40	0	1.9730	0	34.5770	0	27.645	0	1939.709	0	51.8	4	15.6	4	-1E+10	1	-1E+10	1	-1E+10	1	-1E+10	1	-1E+10	1	-1E+10	1
4902551	79	C	10/19/2022	19:07	-131.555	48.463	0	1975.50	0	1.9650	0	34.5790	0	27.648	0	1949.631	0	52.3	4	15.8	4	-1E+10	1	-1E+10	1	-1E+10	1	-1E+10	1	-1E+10	1	-1E+10	1
4902551	79	C	10/19/2022	19:07	-131.555	48.463	0	1986.10	0	1.9560	0	34.5810	0	27.650	0	1960.043	0	52.8	4	15.9	4	-1E+10	1	-1E+10	1	-1E+10	1	-1E+10	1	-1E+10	1	-1E+10	1
4902551	79	C	10/19/2022	19:07	-131.555	48.463	0	1991.90	0	1.9520	0	34.5820	0	27.651	0	1965.740	0	52.6	4	15.8	4	-1E+10	1	-1E+10	1	-1E+10	1	-1E+10	1	-1E+10	1	-1E+10	1
4902551	79	C	10/19/2022	19:07	-131.555	48.463	0																										
4902551	80	C	10/30/2022	00:08	-131.522	48.392	0	0.00	0	14.7590	0	32.3390	0	23.974	0	0.000	0	239.8	4	94.5	4	-1E+10	1	-1E+10	1	-1E+10	1	-1E+10	1	-1E+10	1	-1E+10	1
4902551	80	C	10/30/2022	00:08	-131.522	48.392	0	0.20	0	14.7590	0	32.3392	0	23.974	0	0.198	0	-1e10	1	-1e10	1	-1E+10	1	-1E+10	1	-1E+10	1	-1E+10	1	-1E+10	1	-1E+10	1
4902551	80	C	10/30/2022	00:08	-131.522	48.392	0	0.30	0	14.7590	0	32.3392	0	23.974	0	0.297	0	-1e10	1	-1e10	1	-1E+10	1	-1E+10	1	-1E+10	1	-1E+10	1	-1E+10	1	-1E+10	1
4902551	80	C	10/30/2022	00:08	-131.522	48.392	0	1.30	0	14.7590	0	32.3400	0	23.974	0	1.289	0	239.8	4	94.6	4	-1E+10	1	-1E+10	1	-1E+10	1	-1E+10	1	-1E+10	1	-1E+10	1
4902551	80	C	10/30/2022	00:08	-131.522	48.392	0	2.00	0	14.7610	0	32.3390	0	23.973	0	1.983	0	239.7	4	94.5	4	-1E+10	1	-1E+10	1	-1E+10	1	-1E+10	1	-1E+10	1	-1E+10	1
4902551	80	C	10/30/2022	00:08	-131.522	48.392	0	2.60	0	14.7610	0	32.3390	0	23.973	0	2.578	0	239.8	4	94.6	4	-1E+10	1	-1E+10	1	-1E+10	1	-1E+10	1	-1E+10	1	-1E+10	1
4902551	80	C	10/30/2022	00:08	-131.522	48.392	0	2.90	0	14.7610	0	32.3390	0	23.973	0	2.876	0	-1e10	1	-1e10	1	-1E+10	1	-1E+10	1	-1E+10	1	-1E+10	1	-1E+10	1	-1E+10	1
4902551	80	C	10/30/2022	00:08	-131.522	48.392	0	3.00	0	14.7611	0	32.3390	0	23.973	0	2.975	0	239.8	4	94.6	4	-1E+10	1	-1E+10	1	-1E+10	1	-1E+10	1	-1E+10	1	-1E+10	1
4902551	80	C	10/30/2022	00:08	-131.522	48.392	0	4.10	0	14.7620	0	32.3390	0	23.973	0	4.065	0	239.7	4	94.5	4	-1E+10	1	-1E+10	1	-1E+10	1	-1E+10	1	-1E+10	1	-1E+10	1
4902551	80	C	10/30/2022	00:08	-131.522	48.392	0	5.00	0	14.7610	0	32.3400	0	23.974	0	4.958	0	239.8	4	94.6	4	-1E+10	1	-1E+10	1	-1E+10	1	-1E+10	1	-1E+10	1	-1E+10	1
4902551	80	C	10/30/2022	00:08	-131.522	48.392	0	5.80	0	14.7610	0	32.3400	0	23.974	0	5.751	0	239.8	4	94.5	4	-1E+10	1	-1E+10	1	-1E+10	1	-1E+10	1	-1E+10	1	-1E+10	1
4902551	80	C	10/30/2022	00:08	-131.522	48.392	0	6.80	0	14.7610	0	32.3390	0	23.973	0	6.743	0	239.8	4	94.6	4	-1E+10	1	-1E+10	1	-1E+10	1	-1E+10	1	-1E+10	1	-1E+10	1
4902551	80	C	10/30/2022	00:08	-131.522	48.392	0	7.70	0	14.7640	0	32.3390	0	23.973	0	7.635	0	239.7	4	94.5	4	-1E+10	1	-1E+10	1	-1E+10	1	-1E+10	1	-1E+10	1	-1E+10	1
4902551	80	C	10/30/2022	00:08	-131.522	48.392	0	8.60	0	14.7640	0	32.3390	0	23.973	0	8.527	0	239.8	4	94.6	4	-1E+10	1	-1E+10	1	-1E+10	1	-1E+10	1	-1E+10	1	-1E+10	1
4902551	80	C	10/30/2022	00:08	-131.522	48.392	0	9.60	0	14.7640	0	32.3390	0	23.973	0	9.519	0	239.8	4	94.6	4	-1E+10	1	-1E+10	1	-1E+10	1	-1E+10	1	-1E+10	1	-1E+10	1
4902551	80	C	10/30/2022	00:08	-131.522	48.392	0	10.60	0	14.7640	0	32.3400	0	23.974	0	10.510	0	239.7	4	94.5	4	-1E+10	1	-1E+10	1	-1E+10	1	-1E+10	1	-1E+10	1	-1E+10	1
4902551	80	C	10/30/2022	00:08	-131.522	48.392	0	11.70	0	14.7650	0	32.3390	0	23.973	0	11.601	0	239.7	4	94.5	4	-1E+10	1	-1E+10	1	-1E+10	1	-1E+10	1	-1E+10	1	-1E+10	1
4902551	80	C	10/30/2022	00:08	-131.522	48.392	0	12.70	0	14.7650	0	32.3390	0	23.973	0	12.593	0	239.8	4	94.6	4	-1E+10	1	-1E+10	1	-1E+10	1	-1E+10	1	-1E+10	1	-1E+10	1
4902551	80	C	10/30/2022	00:08	-131.522	48.392	0	13.60	0	14.7650	0	32.3390	0	23.973	0	13.485	0	239.8	4	94.6	4	-1E+10	1	-1E+10	1	-1E+10	1	-1E+10	1	-1E+10	1	-1E+10	1
4902551	80	C	10/30/2022	00:08	-131.522	48.392	0	14.90	0	14.7660	0	32.3400	0	23.973	0	14.774	0	239.8	4	94.6	4	-1E+10	1	-1E+10	1	-1E+10	1	-1E+10	1	-1E+10	1	-1E+10	1
4902551	80	C	10/30/2022	00:08	-131.522	48.392	0	16.20	0	14.7660	0	32.3400	0	23.973	0	16.063	0	239.8	4	94.6	4	-1E+10	1	-1E+10	1	-1E+10	1	-1E+10	1	-1E+10	1	-1E+10	1
4902551	80	C	10/30/2022	00:08	-131.522	48.392	0	17.00	0	14.7680	0	32.3400	0	23.973	0	16.856	0	239.8	4	94.6	4	-1E+10	1	-1E+10	1	-1E+10	1	-1E+10	1	-1E+10	1	-1E+10	1
4902551	80	C	10/30/2022	00:08	-131.522	48.392	0	18.00	0	14.7670	0	32.3400	0	23.973	0	17.848	0	239.7	4	94.6	4	-1E+10	1	-1E+10	1	-1E+10	1	-1E+10	1	-1E+10	1	-1E+10	1
4902551	80	C	10/30/2022	00:08	-131.522	48.392	0	19.20	0	14.7690	0	32.3410	0	23.974	0	19.037	0	239.7	4	94.5	4	-1E+10	1	-1E+10	1	-1E+10	1	-1E+10	1	-1E+10	1	-1E+10	1
4902551	80	C	10/30/2022	00:08	-131.522	48.392	0	19.90	0	14.7680	0	32.3400	0	23.973	0	19.731	0	239.7	4	94.5	4	-1E+10	1	-1E+10	1	-1E+10	1	-1E+10	1	-1E+10	1	-1E+10	1
4902551	80	C	10/30/2022	00:08	-131.522	48.392	0	20.80	0	14.7670	0	32.3370	0	23.971	0	20.624	0	239.8	4	94.6	4	-1E+10	1	-1E+10	1	-1E+10	1	-1E+10	1	-1E+10	1	-1E+10	1
4902551	80	C	10/30/2022	00:08	-131.522	48.392	0	22.00	0	14.7660	0	32.3410	0	23.974	0	21.813	0	239.8	4	94.6	4	-1E+10	1	-1E+10	1	-1E+10	1	-1E+10	1	-1E+10	1	-1E+10	1
4902551	80	C	10/30/2022	00:08	-131.522	48.392	0	23.00	0	14.7670	0	32.3410	0	23.974	0	22.805	0	239.8	4	94.6	4	-1E+10	1	-1E+10	1	-1E+10	1	-1E+10	1	-1E+10	1	-1E+10	1
4902551	80	C	10/30/2022	00:08	-131.522	48.392	0	24.00	0	14.7670	0	32.3420	0	23.975	0	23.796	0	239.9	4	94.6	4	-1E+10	1	-1E+10	1	-1E+10	1	-1E+10	1	-1E+10	1	-1E+10	1
4902551	80	C	10/30/2022	00:08	-131.522	48.392	0	25.10	0	14.7670	0	32.3420	0	23.975	0	24.887	0	240.1	4	94.7	4	-1E+10	1	-1E+10	1	-1E+10	1	-1E+10	1	-1E+10	1	-1E+10	1
4902551	80	C	10/30/2022	00:08	-131.522	48.392	0	26.20	0	14.7730	0	32.3430	0	23.974	0	25.978	0	240.2	4	94.7	4	-1E+10	1	-1E+10	1	-1E+10	1	-1E+10	1	-1E+10	1	-1E+10	1
4902551	80	C	10/30/2022	00:08	-131.522	48.392	0	27.00	0	14.7730	0	32.3420	0	23.974	0	26.771	0	240.2	4	94.8	4	-1E+10	1	-1E+10	1	-1E+10	1	-1E+10	1	-1E+10	1	-1E+10	1
4902551	80	C	10/30/2022	00:08	-131.522	48.392	0	28.10	0	14.7730	0	32.3420	0	23.974	0	27.861	0	240.3	4	94.8	4	-1E+10	1	-1E+10	1	-1E+10	1	-1E+10	1	-1E+10	1	-1E+10	1
4902551	80	C	10/30/2022	00:08	-131.522	48.392	0	29.00	0	14.7730	0	32.3430	0	23.975	0	28.754	0	240.5	4	94.9	4	-1E+10	1	-1E+10	1	-1E+10	1	-1E+10	1	-1E+10	1	-1E+10	1
4902551	80	C	10/30/2022	00:08	-131.522	48.392	0	29.90	0	14.7710	0	32.3430	0	23.975	0	29.646	0	240.7	4	94.9	4	-1E+10	1	-1E+10	1	-1E+10	1	-1E+10	1	-1E+10	1	-1E+10	1
4902551	80	C	10/30/2022	00:08	-131.522	48.392	0	31.00	0	14.7720	0	32.3420	0	23.974	0	30.736	0	240.9	4	95.0	4	-1E+10	1	-1E+10	1	-1E+10	1	-1E+10	1	-1E+10	1	-1E+10	1
4902551	80	C	10/30/2022	00:08	-131.522	48.392	0	31.70	0	14.7720	0	32.3430	0	23.975	0	31.430	0	241.0	4	95.1	4	-1E+10	1	-1E+10	1	-1E+10	1	-1E+10	1	-1E+10	1	-1E+10	1
4902551	80	C	10/30/2022	00:08	-131.522	48.392	0	32.90	0	14.7700	0	32.3420	0	23.975	0	32.620	0	241.4	4	95.2	4	-1E+10	1	-1E+10	1	-1E+10	1	-1E+10	1	-1E+10	1	-1E+10	1
4902551	80	C	10/30/2022	00:08	-131.522	48.392	0	34.20	0	14.7690	0	32.3450	0	23.977	0	33.909	0	241.6	4	95.3	4	-1E+10	1	-1E+10	1	-1E+10	1	-1E+10	1	-1E+10	1	-1E+10	1
4902551	80	C	10/30/2022	00:08	-131.522	48.392	0	35.00	0	14.7560	0	32.3420	0	23.978	0	34.702	0	241.9	4	95.4	4	-1E+10	1	-1E+10	1	-1E+10	1	-1E+10	1	-1E+10	1	-1E+10	1
4902551	80	C	10/30/2022	00:08	-131.522	48.392	0	36.00	0	14.7480	0	32.3430	0	23.980	0	35.694	0	242.2	4	95.5	4	-1E+10	1	-1E+10	1	-1E+10	1	-1E+10	1	-1E+10	1	-1E+10	1
4902551	80	C	10/30/2022	00:08	-131.522	48.392	0	37.10	0	14.7540	0	32.3410	0	23.977	0	36.784	0	242.7	4	95.7	4	-1E+10	1	-1E+10	1	-1E+10	1	-1E+10	1	-1E+10	1	-1E+10	1
4902551	80	C	10/30/2022	00:08	-131.522	48.392	0	37.80	0	14.7450	0	32.3410	0	23.979	0	37.478	0	243.0	4	95.8	4	-1E+10	1	-1E+10	1	-1E+10	1	-1E+10	1	-1E+10	1	-1E+10	1
4902551	80	C	10/30/2022	00:08	-131.522	48.392	0	38.80	0	14.7300	0	32.3420	0	23.983	0	38.469	0	243.8	4	96.1	4	-1E+10	1	-1E+10	1	-1E+10	1	-1E+10	1	-1E+10	1	-1E+10	1
4902551	80	C	10/30/2022	00:08	-131.522	48.392	0	40.10	0	14.7110	0	32.3420	0	23.987	0	39.758	0	244.8	4	96.4	4	-1E+10	1	-1E+10	1	-1E+10	1	-1E+10	1	-1E+10	1	-1E+10	1
4902551	80	C	10/30/2022	00:08	-131.522	48.392	0	41.00	0	14.7150	0	32.3410	0	23.986	0	40.650	0	245.7	4	96.8	4	-1E+10	1	-1E+10	1	-1E+10	1	-1E+10	1	-1E+10	1	-1E+10	1
4902551	80	C	10/30/2022	00:08	-131.522	48.392	0	41.70	0	14.6780	0	32.3410	0	23.994	0	41.344	0	247.1	4	97.3	4	-1E+10	1	-1E+10	1	-1E+10	1	-1E+10	1	-1E+10	1	-1E+10	1
4902551	80	C	10/30/2022	00:08	-131.522	48.392	0	43.00	0	14.6120	0	32.3330	0	24.001	0	42.633	0	250.0	4	98.3	4	-1E+10	1	-1E+10	1	-1E+10	1	-1E+10	1	-1E+10	1	-1E+10	1
4902551	80	C	10/30/2022	00:08	-131.522	48.392	0	44.00	0	14.4040	0	32.3320	0	24.044	0	43.625	0	254.2	4	99.5	4	-1E+10	1	-1E+10	1	-1E+10	1	-1E+10	1	-1E+10	1	-1E+10	1
4902551	80	C	10/30/2022	00:08	-131.522	48.392	0	45.10	0	13.2110	0	32.3770	0	24.322	0	44.715	0	261.9	4	100.1	4	-1E+10	1	-1E+10	1	-1E+10	1	-1E+10	1	-1E+10	1	-1E+10	1
4902551	80	C	10/30/2022	00:08	-131.522	48.392	0	46.00	0	12.2240	0	32.3550	0	24.495	0	45.607	0	266.9	4	100.0	4	-1E+10	1	-1E+10	1	-1E+10	1	-1E+10	1	-1E+10	1	-1E+10	1
4902551	80	C	10/30/2022	00:08	-131.522	48.392	0	47.10	0	11.3590	0	32.3410	0	24.643	0	46.698	0	271.8	4	100.0	4	-1E+10	1	-1E+10	1	-1E+10	1	-1E+10	1	-1E+10	1	-1E+10	1
4902551	80	C	10/30/2022	00:08	-131.522	48.392	0	48.00	0	10.6440	0	32.3680	0	24.790	0	47.590	0	274.1	4	99.3	4	-1E+10	1	-1E+10	1	-1E+10	1	-1E+10	1	-1E+10	1	-1E+10	1
4902551	80	C	10/30/2022	00:08	-131.522	48.392	0	49.00	0	10.1360	0	32.3680	0	24.876	0	48.581	0	274.3	4	98.3	4	-1E+10	1	-1E+10	1	-1E+10	1	-1E+10	1	-1E+10	1	-1E+10	1
4902551	80	C	10/30/2022	00:08	-131.522	48.392	0	49.90	0	10.0710	0	32.3710	0	24.889	0	49.474	0	274.2	4	98.1	4	-1E+10	1	-1E+10	1	-1E+10	1	-1E+10	1	-1E+10	1	-1E+10	1
4902551	80	C	10/30/2022	00:08	-131.522	48.392	0	51.10	0	9.9770	0	32.3770	0	24.910	0	50.663	0	274.0	4	97.9	4	-1E+10	1	-1E+10	1	-1E+10	1	-1E+10	1	-1E+10	1	-1E+10	1
4902551	80	C	10/30/2022	00:08	-131.522	48.392	0	52.10	0	9.8950	0	32.3780	0	24.924	0	51.654	0	273.9	4	97.7	4	-1E+10	1	-1E+10	1	-1E+10	1	-1E+10	1	-1E+10	1	-1E+10	1
4902551	80	C	10/30/2022	00:08	-131.522	48.392	0	53.00	0	9.8280	0	32.3820	0	24.938	0	52.547	0	273.8	4	97.5	4	-1E+10	1	-1E+10	1	-1E+10	1	-1E+10	1	-1E+10	1	-1E+10	1
4902551	80	C	10/30/2022	00:08	-131.522	48.392	0	53.80	0	9.7700	0	32.3830	0	24.948	0	53.340	0	273.6	4	97.3	4	-1E+10	1	-1E+10	1	-1E+10	1	-1E+10	1	-1E+10	1	-1E+10	1
4902551	80	C	10/30/2022	00:08	-131.522	48.392	0	55.00	0	9.6580	0	32.3920	0	24.973	0	54.529	0	273.2	4	96.9	4	-1E+10	1	-1E+10	1	-1E+10	1	-1E+10	1	-1E+10	1	-1E+10	1
4902551	80	C	10/30/2022	00:08	-131.522	48.392	0	56.10	0	9.4890	0	32.3910	0	25.000	0	55.620	0	273.5	4	96.7	4	-1E+10	1	-1E+10	1	-1E+10	1	-1E+10	1	-1E+10	1	-1E+10	1
4902551	80	C	10/30/2022	00:08	-131.522	48.392	0	57.00	0	9.4510	0	32.3880	0	25.004	0	56.512	0	273.5	4	96.6	4	-1E+10	1	-1E+10	1	-1E+10	1	-1E+10	1	-1E+10	1	-1E+10	1
4902551	80	C	10/30/2022	00:08	-131.522	48.392	0	57.90	0	9.4170	0	32.3930	0	25.013	0	57.404	0	273.2	4	96.4	4	-1E+10	1	-1E+10	1	-1E+10	1	-1E+10	1	-1E+10	1	-1E+10	1
4902551	80	C	10/30/2022	00:08	-131.522	48.392	0	59.10	0	9.3240	0	32.3980	0	25.032	0	58.594	0	272.7	4	96.0	4	-1E+10	1	-1E+10	1	-1E+10	1	-1E+10	1	-1E+10	1	-1E+10	1
4902551	80	C	10/30/2022	00:08	-131.522	48.392	0	60.00	0	9.2650	0	32.3960	0	25.039	0	59.486	0	272.6	4	95.9	4	-1E+10	1	-1E+10	1	-1E+10	1	-1E+10	1	-1E+10	1	-1E+10	1
4902551	80	C	10/30/2022	00:08	-131.522	48.392	0	60.90	0	9.2230	0	32.4000	0	25.049	0	60.378	0	272.3	4	95.7	4	-1E+10	1	-1E+10	1	-1E+10	1	-1E+10	1	-1E+10	1	-1E+10	1
4902551	80	C	10/30/2022	00:08	-131.522	48.392	0	62.00	0	9.1260	0	32.4110	0	25.073	0	61.468	0	272.2	4	95.4	4	-1E+10	1	-1E+10	1	-1E+10	1	-1E+10	1	-1E+10	1	-1E+10	1
4902551	80	C	10/30/2022	00:08	-131.522	48.392	0	63.10	0	9.0060	0	32.4140	0	25.094	0	62.559	0	272.1	4	95.2	4	-1E+10	1	-1E+10	1	-1E+10	1	-1E+10	1	-1E+10	1	-1E+10	1
4902551	80	C	10/30/2022	00:08	-131.522	48.392	0	64.00	0	8.9490	0	32.4240	0	25.111	0	63.451	0	272.0	4	95.0	4	-1E+10	1	-1E+10	1	-1E+10	1	-1E+10	1	-1E+10	1	-1E+10	1
4902551	80	C	10/30/2022	00:08	-131.522	48.392	0	64.70	0	8.8870	0	32.4160	0	25.114	0	64.145	0	271.9	4	94.8	4	-1E+10	1	-1E+10	1	-1E+10	1	-1E+10	1	-1E+10	1	-1E+10	1
4902551	80	C	10/30/2022	00:08	-131.522	48.392	0	65.70	0	8.8150	0	32.4220	0	25.130	0	65.136	0	271.6	4	94.6	4	-1E+10	1	-1E+10	1	-1E+10	1	-1E+10	1	-1E+10	1	-1E+10	1
4902551	80	C	10/30/2022	00:08	-131.522	48.392	0	66.80	0	8.7400	0	32.4190	0	25.139	0	66.226	0	271.2	4	94.3	4	-1E+10	1	-1E+10	1	-1E+10	1	-1E+10	1	-1E+10	1	-1E+10	1
4902551	80	C	10/30/2022	00:08	-131.522	48.392	0	68.00	0	8.6560	0	32.4240	0	25.156	0	67.416	0	270.7	4	94.0	4	-1E+10	1	-1E+10	1	-1E+10	1	-1E+10	1	-1E+10	1	-1E+10	1
4902551	80	C	10/30/2022	00:08	-131.522	48.392	0	69.10	0	8.5010	0	32.4250	0	25.180	0	68.506	0	270.2	4	93.5	4	-1E+10	1	-1E+10	1	-1E+10	1	-1E+10	1	-1E+10	1	-1E+10	1
4902551	80	C	10/30/2022	00:08	-131.522	48.392	0	70.00	0	8.4140	0	32.4270	0	25.194	0	69.398	0	269.3	4	93.0	4	-1E+10	1	-1E+10	1	-1E+10	1	-1E+10	1	-1E+10	1	-1E+10	1
4902551	80	C	10/30/2022	00:08	-131.522	48.392	0	71.00	0	8.2510	0	32.4330	0	25.223	0	70.390	0	269.4	4	92.7	4	-1E+10	1	-1E+10	1	-1E+10	1	-1E+10	1	-1E+10	1	-1E+10	1
4902551	80	C	10/30/2022	00:08	-131.522	48.392	0	72.00	0	8.1870	0	32.4320	0	25.232	0	71.381	0	269.2	4	92.5	4	-1E+10	1	-1E+10	1	-1E+10	1	-1E+10	1	-1E+10	1	-1E+10	1
4902551	80	C	10/30/2022	00:08	-131.522	48.392	0	73.10	0	8.1710	0	32.4320	0	25.234	0	72.471	0	269.1	4	92.4	4	-1E+10	1	-1E+10	1	-1E+10	1	-1E+10	1	-1E+10	1	-1E+10	1
4902551	80	C	10/30/2022	00:08	-131.522	48.392	0	74.00	0	8.1440	0	32.4350	0	25.240	0	73.363	0	268.8	4	92.3	4	-1E+10	1	-1E+10	1	-1E+10	1	-1E+10	1	-1E+10	1	-1E+10	1
4902551	80	C	10/30/2022	00:08	-131.522	48.392	0	74.90	0	8.0700	0	32.4410	0	25.256	0	74.255	0	268.5	4	92.0	4	-1E+10	1	-1E+10	1	-1E+10	1	-1E+10	1	-1E+10	1	-1E+10	1
4902551	80	C	10/30/2022	00:08	-131.522	48.392	0	76.00	0	8.0160	0	32.4430	0	25.265	0	75.346	0	267.8	4	91.7	4	-1E+10	1	-1E+10	1	-1E+10	1	-1E+10	1	-1E+10	1	-1E+10	1
4902551	80	C	10/30/2022	00:08	-131.522	48.392	0	77.20	0	7.9330	0	32.4450	0	25.279	0	76.535	0	267.5	4	91.4	4	-1E+10	1	-1E+10	1	-1E+10	1	-1E+10	1	-1E+10	1	-1E+10	1
4902551	80	C	10/30/2022	00:08	-131.522	48.392	0	77.90	0	7.9280	0	32.4440	0	25.279	0	77.229	0	267.1	4	91.2	4	-1E+10	1	-1E+10	1	-1E+10	1	-1E+10	1	-1E+10	1	-1E+10	1
4902551	80	C	10/30/2022	00:08	-131.522	48.392	0	78.90	0	7.9150	0	32.4440	0	25.281	0	78.220	0	266.5	4	91.0	4	-1E+10	1	-1E+10	1	-1E+10	1	-1E+10	1	-1E+10	1	-1E+10	1
4902551	80	C	10/30/2022	00:08	-131.522	48.392	0	80.00	0	7.8890	0	32.4430	0	25.283	0	79.310	0	265.9	4	90.7	4	-1E+10	1	-1E+10	1	-1E+10	1	-1E+10	1	-1E+10	1	-1E+10	1
4902551	80	C	10/30/2022	00:08	-131.522	48.392	0	81.30	0	7.7670	0	32.4500	0	25.306	0	80.599	0	265.7	4	90.4	4	-1E+10	1	-1E+10	1	-1E+10	1	-1E+10	1	-1E+10	1	-1E+10	1
4902551	80	C	10/30/2022	00:08	-131.522	48.392	0	82.00	0	7.6790	0	32.4520	0	25.320	0	81.293	0	265.8	4	90.3	4	-1E+10	1	-1E+10	1	-1E+10	1	-1E+10	1	-1E+10	1	-1E+10	1
4902551	80	C	10/30/2022	00:08	-131.522	48.392	0	82.90	0	7.6250	0	32.4490	0	25.326	0	82.185	0	272.5	4	92.4	4	-1E+10	1	-1E+10	1	-1E+10	1	-1E+10	1	-1E+10	1	-1E+10	1
4902551	80	C	10/30/2022	00:08	-131.522	48.392	0	84.00	0	7.5990	0	32.4500	0	25.330	0	83.275	0	272.4	4	92.3	4	-1E+10	1	-1E+10	1	-1E+10	1	-1E+10	1	-1E+10	1	-1E+10	1
4902551	80	C	10/30/2022	00:08	-131.522	48.392	0	84.90	0	7.5810	0	32.4530	0	25.335	0	84.167	0	272.1	4	92.2	4	-1E+10	1	-1E+10	1	-1E+10	1	-1E+10	1	-1E+10	1	-1E+10	1
4902551	80	C	10/30/2022	00:08	-131.522	48.392	0	86.00	0	7.5490	0	32.4530	0	25.339	0	85.257	0	271.8	4	92.1	4	-1E+10	1	-1E+10	1	-1E+10	1	-1E+10	1	-1E+10	1	-1E+10	1
4902551	80	C	10/30/2022	00:08	-131.522	48.392	0	87.10	0	7.5110	0	32.4550	0	25.346	0	86.348	0	271.7	4	91.9	4	-1E+10	1	-1E+10	1	-1E+10	1	-1E+10	1	-1E+10	1	-1E+10	1
4902551	80	C	10/30/2022	00:08	-131.522	48.392	0	87.90	0	7.4910	0	32.4550	0	25.349	0	87.141	0	271.4	4	91.8	4	-1E+10	1	-1E+10	1	-1E+10	1	-1E+10	1	-1E+10	1	-1E+10	1
4902551	80	C	10/30/2022	00:08	-131.522	48.392	0	89.20	0	7.4600	0	32.4530	0	25.352	0	88.429	0	271.0	4	91.6	4	-1E+10	1	-1E+10	1	-1E+10	1	-1E+10	1	-1E+10	1	-1E+10	1
4902551	80	C	10/30/2022	00:08	-131.522	48.392	0	90.00	0	7.4380	0	32.4510	0	25.353	0	89.222	0	270.7	4	91.5	4	-1E+10	1	-1E+10	1	-1E+10	1	-1E+10	1	-1E+10	1	-1E+10	1
4902551	80	C	10/30/2022	00:08	-131.522	48.392	0	91.10	0	7.3530	0	32.4570	0	25.370	0	90.312	0	270.6	4	91.3	4	-1E+10	1	-1E+10	1	-1E+10	1	-1E+10	1	-1E+10	1	-1E+10	1
4902551	80	C	10/30/2022	00:08	-131.522	48.392	0	92.00	0	7.2790	0	32.4630	0	25.384	0	91.204	0	270.7	4	91.1	4	-1E+10	1	-1E+10	1	-1E+10	1	-1E+10	1	-1E+10	1	-1E+10	1
4902551	80	C	10/30/2022	00:08	-131.522	48.392	0	93.10	0	7.2430	0	32.4620	0	25.389	0	92.295	0	270.7	4	91.0	4	-1E+10	1	-1E+10	1	-1E+10	1	-1E+10	1	-1E+10	1	-1E+10	1
4902551	80	C	10/30/2022	00:08	-131.522	48.392	0	94.00	0	7.2340	0	32.4620	0	25.390	0	93.187	0	270.6	4	91.0	4	-1E+10	1	-1E+10	1	-1E+10	1	-1E+10	1	-1E+10	1	-1E+10	1
4902551	80	C	10/30/2022	00:08	-131.522	48.392	0	95.20	0	7.2240	0	32.4620	0	25.391	0	94.376	0	270.3	4	90.9	4	-1E+10	1	-1E+10	1	-1E+10	1	-1E+10	1	-1E+10	1	-1E+10	1
4902551	80	C	10/30/2022	00:08	-131.522	48.392	0	95.80	0	7.2080	0	32.4620	0	25.393	0	94.971	0	270.2	4	90.8	4	-1E+10	1	-1E+10	1	-1E+10	1	-1E+10	1	-1E+10	1	-1E+10	1
4902551	80	C	10/30/2022	00:08	-131.522	48.392	0	97.00	0	7.1690	0	32.4640	0	25.400	0	96.160	0	270.1	4	90.7	4	-1E+10	1	-1E+10	1	-1E+10	1	-1E+10	1	-1E+10	1	-1E+10	1
4902551	80	C	10/30/2022	00:08	-131.522	48.392	0	98.20	0	7.1280	0	32.4680	0	25.409	0	97.349	0	269.9	4	90.6	4	-1E+10	1	-1E+10	1	-1E+10	1	-1E+10	1	-1E+10	1	-1E+10	1
4902551	80	C	10/30/2022	00:08	-131.522	48.392	0	99.00	0	7.1110	0	32.4670	0	25.410	0	98.142	0	269.8	4	90.5	4	-1E+10	1	-1E+10	1	-1E+10	1	-1E+10	1	-1E+10	1	-1E+10	1
4902551	80	C	10/30/2022	00:08	-131.522	48.392	0	99.90	0	7.1110	0	32.4660	0	25.410	0	99.034	0	269.6	4	90.4	4	-1E+10	1	-1E+10	1	-1E+10	1	-1E+10	1	-1E+10	1	-1E+10	1
4902551	80	C	10/30/2022	00:08	-131.522	48.392	0	101.30	0	7.1050	0	32.4660	0	25.410	0	100.422	0	269.3	4	90.3	4	-1E+10	1	-1E+10	1	-1E+10	1	-1E+10	1	-1E+10	1	-1E+10	1
4902551	80	C	10/30/2022	00:08	-131.522	48.392	0	102.20	0	7.0930	0	32.4650	0	25.411	0	101.314	0	268.8	4	90.1	4	-1E+10	1	-1E+10	1	-1E+10	1	-1E+10	1	-1E+10	1	-1E+10	1
4902551	80	C	10/30/2022	00:08	-131.522	48.392	0	102.90	0	7.0840	0	32.4670	0	25.414	0	102.007	0	268.7	4	90.1	4	-1E+10	1	-1E+10	1	-1E+10	1	-1E+10	1	-1E+10	1	-1E+10	1
4902551	80	C	10/30/2022	00:08	-131.522	48.392	0	103.90	0	7.0650	0	32.4680	0	25.417	0	102.998	0	268.4	4	89.9	4	-1E+10	1	-1E+10	1	-1E+10	1	-1E+10	1	-1E+10	1	-1E+10	1
4902551	80	C	10/30/2022	00:08	-131.522	48.392	0	104.90	0	7.0440	0	32.4680	0	25.420	0	103.990	0	268.1	4	89.8	4	-1E+10	1	-1E+10	1	-1E+10	1	-1E+10	1	-1E+10	1	-1E+10	1
4902551	80	C	10/30/2022	00:08	-131.522	48.392	0	105.90	0	6.9880	0	32.4750	0	25.433	0	104.981	0	267.7	4	89.5	4	-1E+10	1	-1E+10	1	-1E+10	1	-1E+10	1	-1E+10	1	-1E+10	1
4902551	80	C	10/30/2022	00:08	-131.522	48.392	0	107.00	0	6.9440	0	32.4840	0	25.446	0	106.071	0	267.4	4	89.3	4	-1E+10	1	-1E+10	1	-1E+10	1	-1E+10	1	-1E+10	1	-1E+10	1
4902551	80	C	10/30/2022	00:08	-131.522	48.392	0	107.90	0	6.9310	0	32.4860	0	25.449	0	106.963	0	267.0	4	89.2	4	-1E+10	1	-1E+10	1	-1E+10	1	-1E+10	1	-1E+10	1	-1E+10	1
4902551	80	C	10/30/2022	00:08	-131.522	48.392	0	108.70	0	6.9210	0	32.4860	0	25.451	0	107.756	0	266.6	4	89.0	4	-1E+10	1	-1E+10	1	-1E+10	1	-1E+10	1	-1E+10	1	-1E+10	1
4902551	80	C	10/30/2022	00:08	-131.522	48.392	0	109.90	0	6.9060	0	32.4880	0	25.454	0	108.945	0	266.1	4	88.8	4	-1E+10	1	-1E+10	1	-1E+10	1	-1E+10	1	-1E+10	1	-1E+10	1
4902551	80	C	10/30/2022	00:08	-131.522	48.392	0	111.10	0	6.8900	0	32.4910	0	25.459	0	110.134	0	265.5	4	88.6	4	-1E+10	1	-1E+10	1	-1E+10	1	-1E+10	1	-1E+10	1	-1E+10	1
4902551	80	C	10/30/2022	00:08	-131.522	48.392	0	111.90	0	6.8860	0	32.4920	0	25.460	0	110.927	0	264.8	4	88.4	4	-1E+10	1	-1E+10	1	-1E+10	1	-1E+10	1	-1E+10	1	-1E+10	1
4902551	80	C	10/30/2022	00:08	-131.522	48.392	0	112.80	0	6.8760	0	32.4940	0	25.463	0	111.819	0	264.3	4	88.2	4	-1E+10	1	-1E+10	1	-1E+10	1	-1E+10	1	-1E+10	1	-1E+10	1
4902551	80	C	10/30/2022	00:08	-131.522	48.392	0	113.90	0	6.8660	0	32.4980	0	25.468	0	112.909	0	263.4	4	87.9	4	-1E+10	1	-1E+10	1	-1E+10	1	-1E+10	1	-1E+10	1	-1E+10	1
4902551	80	C	10/30/2022	00:08	-131.522	48.392	0	115.10	0	6.8520	0	32.5050	0	25.475	0	114.098	0	262.4	4	87.5	4	-1E+10	1	-1E+10	1	-1E+10	1	-1E+10	1	-1E+10	1	-1E+10	1
4902551	80	C	10/30/2022	00:08	-131.522	48.392	0	116.30	0	6.8470	0	32.5080	0	25.478	0	115.287	0	261.1	4	87.1	4	-1E+10	1	-1E+10	1	-1E+10	1	-1E+10	1	-1E+10	1	-1E+10	1
4902551	80	C	10/30/2022	00:08	-131.522	48.392	0	117.20	0	6.8390	0	32.5130	0	25.483	0	116.179	0	260.0	4	86.7	4	-1E+10	1	-1E+10	1	-1E+10	1	-1E+10	1	-1E+10	1	-1E+10	1
4902551	80	C	10/30/2022	00:08	-131.522	48.392	0	118.10	0	6.8120	0	32.5290	0	25.499	0	117.071	0	258.8	4	86.2	4	-1E+10	1	-1E+10	1	-1E+10	1	-1E+10	1	-1E+10	1	-1E+10	1
4902551	80	C	10/30/2022	00:08	-131.522	48.392	0	118.90	0	6.7930	0	32.5460	0	25.515	0	117.864	0	257.9	4	85.9	4	-1E+10	1	-1E+10	1	-1E+10	1	-1E+10	1	-1E+10	1	-1E+10	1
4902551	80	C	10/30/2022	00:08	-131.522	48.392	0	120.00	0	6.7710	0	32.5700	0	25.537	0	118.954	0	256.7	4	85.5	4	-1E+10	1	-1E+10	1	-1E+10	1	-1E+10	1	-1E+10	1	-1E+10	1
4902551	80	C	10/30/2022	00:08	-131.522	48.392	0	120.90	0	6.7520	0	32.6070	0	25.568	0	119.846	0	255.9	4	85.2	4	-1E+10	1	-1E+10	1	-1E+10	1	-1E+10	1	-1E+10	1	-1E+10	1
4902551	80	C	10/30/2022	00:08	-131.522	48.392	0	121.80	0	6.7410	0	32.6170	0	25.578	0	120.738	0	254.7	4	84.8	4	-1E+10	1	-1E+10	1	-1E+10	1	-1E+10	1	-1E+10	1	-1E+10	1
4902551	80	C	10/30/2022	00:08	-131.522	48.392	0	123.10	0	6.7460	0	32.6380	0	25.594	0	122.026	0	252.3	4	84.0	4	-1E+10	1	-1E+10	1	-1E+10	1	-1E+10	1	-1E+10	1	-1E+10	1
4902551	80	C	10/30/2022	00:08	-131.522	48.392	0	124.00	0	6.7560	0	32.6490	0	25.601	0	122.918	0	250.8	4	83.5	4	-1E+10	1	-1E+10	1	-1E+10	1	-1E+10	1	-1E+10	1	-1E+10	1
4902551	80	C	10/30/2022	00:08	-131.522	48.392	0	125.10	0	6.7390	0	32.6640	0	25.615	0	124.008	0	248.9	4	82.9	4	-1E+10	1	-1E+10	1	-1E+10	1	-1E+10	1	-1E+10	1	-1E+10	1
4902551	80	C	10/30/2022	00:08	-131.522	48.392	0	125.80	0	6.7040	0	32.6740	0	25.628	0	124.702	0	247.7	4	82.4	4	-1E+10	1	-1E+10	1	-1E+10	1	-1E+10	1	-1E+10	1	-1E+10	1
4902551	80	C	10/30/2022	00:08	-131.522	48.392	0	127.00	0	6.6910	0	32.6990	0	25.649	0	125.891	0	246.0	4	81.9	4	-1E+10	1	-1E+10	1	-1E+10	1	-1E+10	1	-1E+10	1	-1E+10	1
4902551	80	C	10/30/2022	00:08	-131.522	48.392	0	128.20	0	6.6800	0	32.7210	0	25.668	0	127.080	0	243.9	4	81.1	4	-1E+10	1	-1E+10	1	-1E+10	1	-1E+10	1	-1E+10	1	-1E+10	1
4902551	80	C	10/30/2022	00:08	-131.522	48.392	0	129.10	0	6.6750	0	32.7280	0	25.674	0	127.972	0	242.0	4	80.5	4	-1E+10	1	-1E+10	1	-1E+10	1	-1E+10	1	-1E+10	1	-1E+10	1
4902551	80	C	10/30/2022	00:08	-131.522	48.392	0	129.90	0	6.6720	0	32.7320	0	25.678	0	128.765	0	240.5	4	80.0	4	-1E+10	1	-1E+10	1	-1E+10	1	-1E+10	1	-1E+10	1	-1E+10	1
4902551	80	C	10/30/2022	00:08	-131.522	48.392	0	130.90	0	6.6560	0	32.7640	0	25.705	0	129.756	0	238.3	4	79.2	4	-1E+10	1	-1E+10	1	-1E+10	1	-1E+10	1	-1E+10	1	-1E+10	1
4902551	80	C	10/30/2022	00:08	-131.522	48.392	0	132.00	0	6.6420	0	32.8000	0	25.735	0	130.846	0	236.1	4	78.5	4	-1E+10	1	-1E+10	1	-1E+10	1	-1E+10	1	-1E+10	1	-1E+10	1
4902551	80	C	10/30/2022	00:08	-131.522	48.392	0	133.10	0	6.6120	0	32.8220	0	25.756	0	131.936	0	233.9	4	77.7	4	-1E+10	1	-1E+10	1	-1E+10	1	-1E+10	1	-1E+10	1	-1E+10	1
4902551	80	C	10/30/2022	00:08	-131.522	48.392	0	134.00	0	6.5920	0	32.8400	0	25.773	0	132.828	0	231.7	4	77.0	4	-1E+10	1	-1E+10	1	-1E+10	1	-1E+10	1	-1E+10	1	-1E+10	1
4902551	80	C	10/30/2022	00:08	-131.522	48.392	0	135.20	0	6.5900	0	32.8720	0	25.799	0	134.017	0	228.9	4	76.1	4	-1E+10	1	-1E+10	1	-1E+10	1	-1E+10	1	-1E+10	1	-1E+10	1
4902551	80	C	10/30/2022	00:08	-131.522	48.392	0	135.90	0	6.5720	0	32.8840	0	25.810	0	134.710	0	227.0	4	75.4	4	-1E+10	1	-1E+10	1	-1E+10	1	-1E+10	1	-1E+10	1	-1E+10	1
4902551	80	C	10/30/2022	00:08	-131.522	48.392	0	136.90	0	6.5230	0	32.9060	0	25.834	0	135.701	0	224.5	4	74.5	4	-1E+10	1	-1E+10	1	-1E+10	1	-1E+10	1	-1E+10	1	-1E+10	1
4902551	80	C	10/30/2022	00:08	-131.522	48.392	0	137.90	0	6.5210	0	32.9120	0	25.839	0	136.692	0	221.8	4	73.6	4	-1E+10	1	-1E+10	1	-1E+10	1	-1E+10	1	-1E+10	1	-1E+10	1
4902551	80	C	10/30/2022	00:08	-131.522	48.392	0	139.00	0	6.4880	0	32.9640	0	25.884	0	137.782	0	218.9	4	72.6	4	-1E+10	1	-1E+10	1	-1E+10	1	-1E+10	1	-1E+10	1	-1E+10	1
4902551	80	C	10/30/2022	00:08	-131.522	48.392	0	140.00	0	6.4590	0	33.0050	0	25.920	0	138.773	0	216.5	4	71.8	4	-1E+10	1	-1E+10	1	-1E+10	1	-1E+10	1	-1E+10	1	-1E+10	1
4902551	80	C	10/30/2022	00:08	-131.522	48.392	0	141.00	0	6.4410	0	33.0550	0	25.962	0	139.764	0	214.6	4	71.2	4	-1E+10	1	-1E+10	1	-1E+10	1	-1E+10	1	-1E+10	1	-1E+10	1
4902551	80	C	10/30/2022	00:08	-131.522	48.392	0	142.00	0	6.4390	0	33.0580	0	25.965	0	140.755	0	212.8	4	70.6	4	-1E+10	1	-1E+10	1	-1E+10	1	-1E+10	1	-1E+10	1	-1E+10	1
4902551	80	C	10/30/2022	00:08	-131.522	48.392	0	143.00	0	6.4260	0	33.1070	0	26.005	0	141.746	0	210.4	4	69.8	4	-1E+10	1	-1E+10	1	-1E+10	1	-1E+10	1	-1E+10	1	-1E+10	1
4902551	80	C	10/30/2022	00:08	-131.522	48.392	0	144.10	0	6.4180	0	33.1330	0	26.027	0	142.836	0	207.6	4	68.8	4	-1E+10	1	-1E+10	1	-1E+10	1	-1E+10	1	-1E+10	1	-1E+10	1
4902551	80	C	10/30/2022	00:08	-131.522	48.392	0	144.80	0	6.4170	0	33.1350	0	26.028	0	143.529	0	205.5	4	68.2	4	-1E+10	1	-1E+10	1	-1E+10	1	-1E+10	1	-1E+10	1	-1E+10	1
4902551	80	C	10/30/2022	00:08	-131.522	48.392	0	145.90	0	6.4080	0	33.1650	0	26.053	0	144.619	0	201.9	4	67.0	4	-1E+10	1	-1E+10	1	-1E+10	1	-1E+10	1	-1E+10	1	-1E+10	1
4902551	80	C	10/30/2022	00:08	-131.522	48.392	0	147.10	0	6.3920	0	33.2030	0	26.085	0	145.808	0	198.5	4	65.8	4	-1E+10	1	-1E+10	1	-1E+10	1	-1E+10	1	-1E+10	1	-1E+10	1
4902551	80	C	10/30/2022	00:08	-131.522	48.392	0	147.90	0	6.3760	0	33.2340	0	26.112	0	146.601	0	196.5	4	65.2	4	-1E+10	1	-1E+10	1	-1E+10	1	-1E+10	1	-1E+10	1	-1E+10	1
4902551	80	C	10/30/2022	00:08	-131.522	48.392	0	148.80	0	6.3720	0	33.2760	0	26.145	0	147.493	0	194.8	4	64.6	4	-1E+10	1	-1E+10	1	-1E+10	1	-1E+10	1	-1E+10	1	-1E+10	1
4902551	80	C	10/30/2022	00:08	-131.522	48.392	0	149.60	0	6.3540	0	33.3200	0	26.182	0	148.286	0	193.4	4	64.1	4	-1E+10	1	-1E+10	1	-1E+10	1	-1E+10	1	-1E+10	1	-1E+10	1
4902551	80	C	10/30/2022	00:08	-131.522	48.392	0	150.90	0	6.3490	0	33.3220	0	26.185	0	149.574	0	191.0	4	63.3	4	-1E+10	1	-1E+10	1	-1E+10	1	-1E+10	1	-1E+10	1	-1E+10	1
4902551	80	C	10/30/2022	00:08	-131.522	48.392	0	152.20	0	6.3380	0	33.3400	0	26.200	0	150.862	0	188.3	4	62.4	4	-1E+10	1	-1E+10	1	-1E+10	1	-1E+10	1	-1E+10	1	-1E+10	1
4902551	80	C	10/30/2022	00:08	-131.522	48.392	0	153.10	0	6.3350	0	33.3590	0	26.216	0	151.754	0	186.7	4	61.9	4	-1E+10	1	-1E+10	1	-1E+10	1	-1E+10	1	-1E+10	1	-1E+10	1
4902551	80	C	10/30/2022	00:08	-131.522	48.392	0	154.10	0	6.3590	0	33.3790	0	26.228	0	152.744	0	185.0	4	61.4	4	-1E+10	1	-1E+10	1	-1E+10	1	-1E+10	1	-1E+10	1	-1E+10	1
4902551	80	C	10/30/2022	00:08	-131.522	48.392	0	155.00	0	6.3750	0	33.3900	0	26.235	0	153.636	0	183.3	4	60.8	4	-1E+10	1	-1E+10	1	-1E+10	1	-1E+10	1	-1E+10	1	-1E+10	1
4902551	80	C	10/30/2022	00:08	-131.522	48.392	0	155.90	0	6.3910	0	33.4480	0	26.279	0	154.528	0	181.7	4	60.4	4	-1E+10	1	-1E+10	1	-1E+10	1	-1E+10	1	-1E+10	1	-1E+10	1
4902551	80	C	10/30/2022	00:08	-131.522	48.392	0	156.90	0	6.3870	0	33.4540	0	26.284	0	155.519	0	180.4	4	59.9	4	-1E+10	1	-1E+10	1	-1E+10	1	-1E+10	1	-1E+10	1	-1E+10	1
4902551	80	C	10/30/2022	00:08	-131.522	48.392	0	157.90	0	6.3790	0	33.4630	0	26.292	0	156.509	0	179.1	4	59.5	4	-1E+10	1	-1E+10	1	-1E+10	1	-1E+10	1	-1E+10	1	-1E+10	1
4902551	80	C	10/30/2022	00:08	-131.522	48.392	0	158.80	0	6.3710	0	33.4770	0	26.304	0	157.401	0	177.8	4	59.1	4	-1E+10	1	-1E+10	1	-1E+10	1	-1E+10	1	-1E+10	1	-1E+10	1
4902551	80	C	10/30/2022	00:08	-131.522	48.392	0	159.80	0	6.3620	0	33.4880	0	26.314	0	158.392	0	176.3	4	58.6	4	-1E+10	1	-1E+10	1	-1E+10	1	-1E+10	1	-1E+10	1	-1E+10	1
4902551	80	C	10/30/2022	00:08	-131.522	48.392	0	160.70	0	6.3460	0	33.5010	0	26.326	0	159.284	0	175.0	4	58.1	4	-1E+10	1	-1E+10	1	-1E+10	1	-1E+10	1	-1E+10	1	-1E+10	1
4902551	80	C	10/30/2022	00:08	-131.522	48.392	0	161.70	0	6.2970	0	33.5380	0	26.362	0	160.275	0	173.8	4	57.7	4	-1E+10	1	-1E+10	1	-1E+10	1	-1E+10	1	-1E+10	1	-1E+10	1
4902551	80	C	10/30/2022	00:08	-131.522	48.392	0	162.70	0	6.2690	0	33.5450	0	26.371	0	161.265	0	172.8	4	57.3	4	-1E+10	1	-1E+10	1	-1E+10	1	-1E+10	1	-1E+10	1	-1E+10	1
4902551	80	C	10/30/2022	00:08	-131.522	48.392	0	163.70	0	6.2470	0	33.5530	0	26.380	0	162.256	0	171.7	4	56.9	4	-1E+10	1	-1E+10	1	-1E+10	1	-1E+10	1	-1E+10	1	-1E+10	1
4902551	80	C	10/30/2022	00:08	-131.522	48.392	0	164.60	0	6.2420	0	33.5530	0	26.381	0	163.148	0	170.4	4	56.5	4	-1E+10	1	-1E+10	1	-1E+10	1	-1E+10	1	-1E+10	1	-1E+10	1
4902551	80	C	10/30/2022	00:08	-131.522	48.392	0	165.60	0	6.2290	0	33.5600	0	26.388	0	164.139	0	169.0	4	56.0	4	-1E+10	1	-1E+10	1	-1E+10	1	-1E+10	1	-1E+10	1	-1E+10	1
4902551	80	C	10/30/2022	00:08	-131.522	48.392	0	166.60	0	6.2120	0	33.5710	0	26.399	0	165.129	0	167.7	4	55.6	4	-1E+10	1	-1E+10	1	-1E+10	1	-1E+10	1	-1E+10	1	-1E+10	1
4902551	80	C	10/30/2022	00:08	-131.522	48.392	0	167.60	0	6.1830	0	33.5940	0	26.421	0	166.120	0	166.6	4	55.1	4	-1E+10	1	-1E+10	1	-1E+10	1	-1E+10	1	-1E+10	1	-1E+10	1
4902551	80	C	10/30/2022	00:08	-131.522	48.392	0	168.60	0	6.1640	0	33.6070	0	26.433	0	167.111	0	165.4	4	54.7	4	-1E+10	1	-1E+10	1	-1E+10	1	-1E+10	1	-1E+10	1	-1E+10	1
4902551	80	C	10/30/2022	00:08	-131.522	48.392	0	169.50	0	6.1350	0	33.6240	0	26.450	0	168.003	0	164.4	4	54.4	4	-1E+10	1	-1E+10	1	-1E+10	1	-1E+10	1	-1E+10	1	-1E+10	1
4902551	80	C	10/30/2022	00:08	-131.522	48.392	0	170.50	0	6.1080	0	33.6350	0	26.463	0	168.993	0	163.6	4	54.1	4	-1E+10	1	-1E+10	1	-1E+10	1	-1E+10	1	-1E+10	1	-1E+10	1
4902551	80	C	10/30/2022	00:08	-131.522	48.392	0	171.50	0	6.1030	0	33.6370	0	26.465	0	169.984	0	162.8	4	53.8	4	-1E+10	1	-1E+10	1	-1E+10	1	-1E+10	1	-1E+10	1	-1E+10	1
4902551	80	C	10/30/2022	00:08	-131.522	48.392	0	172.50	0	6.1000	0	33.6530	0	26.478	0	170.975	0	162.0	4	53.6	4	-1E+10	1	-1E+10	1	-1E+10	1	-1E+10	1	-1E+10	1	-1E+10	1
4902551	80	C	10/30/2022	00:08	-131.522	48.392	0	173.50	0	6.0730	0	33.6680	0	26.493	0	171.966	0	161.4	4	53.3	4	-1E+10	1	-1E+10	1	-1E+10	1	-1E+10	1	-1E+10	1	-1E+10	1
4902551	80	C	10/30/2022	00:08	-131.522	48.392	0	174.50	0	6.0590	0	33.6710	0	26.497	0	172.956	0	160.9	4	53.1	4	-1E+10	1	-1E+10	1	-1E+10	1	-1E+10	1	-1E+10	1	-1E+10	1
4902551	80	C	10/30/2022	00:08	-131.522	48.392	0	175.50	0	6.0420	0	33.6740	0	26.502	0	173.947	0	160.3	4	52.9	4	-1E+10	1	-1E+10	1	-1E+10	1	-1E+10	1	-1E+10	1	-1E+10	1
4902551	80	C	10/30/2022	00:08	-131.522	48.392	0	176.50	0	6.0180	0	33.6790	0	26.509	0	174.938	0	159.9	4	52.8	4	-1E+10	1	-1E+10	1	-1E+10	1	-1E+10	1	-1E+10	1	-1E+10	1
4902551	80	C	10/30/2022	00:08	-131.522	48.392	0	177.60	0	6.0100	0	33.6800	0	26.510	0	176.028	0	159.4	4	52.6	4	-1E+10	1	-1E+10	1	-1E+10	1	-1E+10	1	-1E+10	1	-1E+10	1
4902551	80	C	10/30/2022	00:08	-131.522	48.392	0	178.60	0	6.0110	0	33.6810	0	26.511	0	177.018	0	158.8	4	52.4	4	-1E+10	1	-1E+10	1	-1E+10	1	-1E+10	1	-1E+10	1	-1E+10	1
4902551	80	C	10/30/2022	00:08	-131.522	48.392	0	179.60	0	6.0110	0	33.6810	0	26.511	0	178.009	0	158.3	4	52.2	4	-1E+10	1	-1E+10	1	-1E+10	1	-1E+10	1	-1E+10	1	-1E+10	1
4902551	80	C	10/30/2022	00:08	-131.522	48.392	0	180.60	0	6.0100	0	33.6820	0	26.512	0	179.000	0	157.5	4	52.0	4	-1E+10	1	-1E+10	1	-1E+10	1	-1E+10	1	-1E+10	1	-1E+10	1
4902551	80	C	10/30/2022	00:08	-131.522	48.392	0	181.60	0	6.0100	0	33.6830	0	26.513	0	179.990	0	156.8	4	51.7	4	-1E+10	1	-1E+10	1	-1E+10	1	-1E+10	1	-1E+10	1	-1E+10	1
4902551	80	C	10/30/2022	00:08	-131.522	48.392	0	182.60	0	6.0090	0	33.6840	0	26.514	0	180.981	0	156.1	4	51.5	4	-1E+10	1	-1E+10	1	-1E+10	1	-1E+10	1	-1E+10	1	-1E+10	1
4902551	80	C	10/30/2022	00:08	-131.522	48.392	0	183.50	0	6.0050	0	33.6860	0	26.516	0	181.873	0	155.3	4	51.2	4	-1E+10	1	-1E+10	1	-1E+10	1	-1E+10	1	-1E+10	1	-1E+10	1
4902551	80	C	10/30/2022	00:08	-131.522	48.392	0	184.90	0	5.9940	0	33.6900	0	26.520	0	183.260	0	153.9	4	50.8	4	-1E+10	1	-1E+10	1	-1E+10	1	-1E+10	1	-1E+10	1	-1E+10	1
4902551	80	C	10/30/2022	00:08	-131.522	48.392	0	186.80	0	5.9570	0	33.7020	0	26.534	0	185.142	0	151.9	4	50.1	4	-1E+10	1	-1E+10	1	-1E+10	1	-1E+10	1	-1E+10	1	-1E+10	1
4902551	80	C	10/30/2022	00:08	-131.522	48.392	0	188.00	0	5.9340	0	33.7080	0	26.542	0	186.331	0	150.9	4	49.7	4	-1E+10	1	-1E+10	1	-1E+10	1	-1E+10	1	-1E+10	1	-1E+10	1
4902551	80	C	10/30/2022	00:08	-131.522	48.392	0	188.80	0	5.9150	0	33.7140	0	26.549	0	187.123	0	150.2	4	49.4	4	-1E+10	1	-1E+10	1	-1E+10	1	-1E+10	1	-1E+10	1	-1E+10	1
4902551	80	C	10/30/2022	00:08	-131.522	48.392	0	189.90	0	5.8810	0	33.7150	0	26.554	0	188.213	0	149.3	4	49.1	4	-1E+10	1	-1E+10	1	-1E+10	1	-1E+10	1	-1E+10	1	-1E+10	1
4902551	80	C	10/30/2022	00:08	-131.522	48.392	0	191.00	0	5.8650	0	33.7170	0	26.558	0	189.303	0	148.2	4	48.7	4	-1E+10	1	-1E+10	1	-1E+10	1	-1E+10	1	-1E+10	1	-1E+10	1
4902551	80	C	10/30/2022	00:08	-131.522	48.392	0	191.80	0	5.8420	0	33.7190	0	26.562	0	190.095	0	147.5	4	48.5	4	-1E+10	1	-1E+10	1	-1E+10	1	-1E+10	1	-1E+10	1	-1E+10	1
4902551	80	C	10/30/2022	00:08	-131.522	48.392	0	193.00	0	5.8160	0	33.7230	0	26.569	0	191.284	0	146.5	4	48.1	4	-1E+10	1	-1E+10	1	-1E+10	1	-1E+10	1	-1E+10	1	-1E+10	1
4902551	80	C	10/30/2022	00:08	-131.522	48.392	0	194.20	0	5.7940	0	33.7270	0	26.574	0	192.473	0	145.7	4	47.8	4	-1E+10	1	-1E+10	1	-1E+10	1	-1E+10	1	-1E+10	1	-1E+10	1
4902551	80	C	10/30/2022	00:08	-131.522	48.392	0	195.00	0	5.7550	0	33.7310	0	26.582	0	193.265	0	145.2	4	47.6	4	-1E+10	1	-1E+10	1	-1E+10	1	-1E+10	1	-1E+10	1	-1E+10	1
4902551	80	C	10/30/2022	00:08	-131.522	48.392	0	195.80	0	5.7470	0	33.7300	0	26.583	0	194.058	0	144.7	4	47.5	4	-1E+10	1	-1E+10	1	-1E+10	1	-1E+10	1	-1E+10	1	-1E+10	1
4902551	80	C	10/30/2022	00:08	-131.522	48.392	0	197.00	0	5.7320	0	33.7320	0	26.586	0	195.247	0	144.0	4	47.2	4	-1E+10	1	-1E+10	1	-1E+10	1	-1E+10	1	-1E+10	1	-1E+10	1
4902551	80	C	10/30/2022	00:08	-131.522	48.392	0	198.30	0	5.6970	0	33.7350	0	26.593	0	196.535	0	143.3	4	47.0	4	-1E+10	1	-1E+10	1	-1E+10	1	-1E+10	1	-1E+10	1	-1E+10	1
4902551	80	C	10/30/2022	00:08	-131.522	48.392	0	199.10	0	5.6890	0	33.7340	0	26.593	0	197.327	0	142.9	4	46.8	4	-1E+10	1	-1E+10	1	-1E+10	1	-1E+10	1	-1E+10	1	-1E+10	1
4902551	80	C	10/30/2022	00:08	-131.522	48.392	0	200.00	0	5.6830	0	33.7350	0	26.594	0	198.219	0	142.3	4	46.6	4	-1E+10	1	-1E+10	1	-1E+10	1	-1E+10	1	-1E+10	1	-1E+10	1
4902551	80	C	10/30/2022	00:08	-131.522	48.392	0	200.90	0	5.6770	0	33.7340	0	26.594	0	199.110	0	141.8	4	46.4	4	-1E+10	1	-1E+10	1	-1E+10	1	-1E+10	1	-1E+10	1	-1E+10	1
4902551	80	C	10/30/2022	00:08	-131.522	48.392	0	201.80	0	5.6400	0	33.7390	0	26.603	0	200.002	0	141.5	4	46.3	4	-1E+10	1	-1E+10	1	-1E+10	1	-1E+10	1	-1E+10	1	-1E+10	1
4902551	80	C	10/30/2022	00:08	-131.522	48.392	0	202.60	0	5.6340	0	33.7380	0	26.603	0	200.794	0	141.0	4	46.1	4	-1E+10	1	-1E+10	1	-1E+10	1	-1E+10	1	-1E+10	1	-1E+10	1
4902551	80	C	10/30/2022	00:08	-131.522	48.392	0	203.90	0	5.6290	0	33.7380	0	26.603	0	202.082	0	140.3	4	45.9	4	-1E+10	1	-1E+10	1	-1E+10	1	-1E+10	1	-1E+10	1	-1E+10	1
4902551	80	C	10/30/2022	00:08	-131.522	48.392	0	205.30	0	5.6250	0	33.7380	0	26.604	0	203.469	0	139.5	4	45.6	4	-1E+10	1	-1E+10	1	-1E+10	1	-1E+10	1	-1E+10	1	-1E+10	1
4902551	80	C	10/30/2022	00:08	-131.522	48.392	0	206.20	0	5.6160	0	33.7400	0	26.606	0	204.360	0	138.9	4	45.4	4	-1E+10	1	-1E+10	1	-1E+10	1	-1E+10	1	-1E+10	1	-1E+10	1
4902551	80	C	10/30/2022	00:08	-131.522	48.392	0	207.10	0	5.6070	0	33.7400	0	26.607	0	205.252	0	138.3	4	45.2	4	-1E+10	1	-1E+10	1	-1E+10	1	-1E+10	1	-1E+10	1	-1E+10	1
4902551	80	C	10/30/2022	00:08	-131.522	48.392	0	208.00	0	5.5990	0	33.7400	0	26.608	0	206.143	0	137.7	4	45.0	4	-1E+10	1	-1E+10	1	-1E+10	1	-1E+10	1	-1E+10	1	-1E+10	1
4902551	80	C	10/30/2022	00:08	-131.522	48.392	0	208.80	0	5.5910	0	33.7400	0	26.609	0	206.936	0	137.1	4	44.8	4	-1E+10	1	-1E+10	1	-1E+10	1	-1E+10	1	-1E+10	1	-1E+10	1
4902551	80	C	10/30/2022	00:08	-131.522	48.392	0	209.70	0	5.5850	0	33.7400	0	26.610	0	207.827	0	136.4	4	44.6	4	-1E+10	1	-1E+10	1	-1E+10	1	-1E+10	1	-1E+10	1	-1E+10	1
4902551	80	C	10/30/2022	00:08	-131.522	48.392	0	210.60	0	5.5760	0	33.7400	0	26.611	0	208.719	0	135.6	4	44.3	4	-1E+10	1	-1E+10	1	-1E+10	1	-1E+10	1	-1E+10	1	-1E+10	1
4902551	80	C	10/30/2022	00:08	-131.522	48.392	0	212.00	0	5.5630	0	33.7420	0	26.614	0	210.106	0	134.5	4	43.9	4	-1E+10	1	-1E+10	1	-1E+10	1	-1E+10	1	-1E+10	1	-1E+10	1
4902551	80	C	10/30/2022	00:08	-131.522	48.392	0	213.40	0	5.5060	0	33.7460	0	26.624	0	211.492	0	133.6	4	43.6	4	-1E+10	1	-1E+10	1	-1E+10	1	-1E+10	1	-1E+10	1	-1E+10	1
4902551	80	C	10/30/2022	00:08	-131.522	48.392	0	214.30	0	5.4900	0	33.7470	0	26.627	0	212.384	0	133.0	4	43.4	4	-1E+10	1	-1E+10	1	-1E+10	1	-1E+10	1	-1E+10	1	-1E+10	1
4902551	80	C	10/30/2022	00:08	-131.522	48.392	0	215.20	0	5.4850	0	33.7460	0	26.627	0	213.275	0	132.4	4	43.2	4	-1E+10	1	-1E+10	1	-1E+10	1	-1E+10	1	-1E+10	1	-1E+10	1
4902551	80	C	10/30/2022	00:08	-131.522	48.392	0	216.20	0	5.4790	0	33.7470	0	26.628	0	214.266	0	131.8	4	43.0	4	-1E+10	1	-1E+10	1	-1E+10	1	-1E+10	1	-1E+10	1	-1E+10	1
4902551	80	C	10/30/2022	00:08	-131.522	48.392	0	217.10	0	5.4520	0	33.7510	0	26.635	0	215.157	0	131.1	4	42.7	4	-1E+10	1	-1E+10	1	-1E+10	1	-1E+10	1	-1E+10	1	-1E+10	1
4902551	80	C	10/30/2022	00:08	-131.522	48.392	0	218.10	0	5.4440	0	33.7490	0	26.634	0	216.148	0	130.5	4	42.5	4	-1E+10	1	-1E+10	1	-1E+10	1	-1E+10	1	-1E+10	1	-1E+10	1
4902551	80	C	10/30/2022	00:08	-131.522	48.392	0	219.00	0	5.4370	0	33.7490	0	26.635	0	217.039	0	129.9	4	42.3	4	-1E+10	1	-1E+10	1	-1E+10	1	-1E+10	1	-1E+10	1	-1E+10	1
4902551	80	C	10/30/2022	00:08	-131.522	48.392	0	220.00	0	5.4250	0	33.7510	0	26.638	0	218.030	0	129.3	4	42.1	4	-1E+10	1	-1E+10	1	-1E+10	1	-1E+10	1	-1E+10	1	-1E+10	1
4902551	80	C	10/30/2022	00:08	-131.522	48.392	0	220.90	0	5.4080	0	33.7500	0	26.639	0	218.921	0	128.7	4	41.9	4	-1E+10	1	-1E+10	1	-1E+10	1	-1E+10	1	-1E+10	1	-1E+10	1
4902551	80	C	10/30/2022	00:08	-131.522	48.392	0	221.90	0	5.3860	0	33.7530	0	26.644	0	219.912	0	128.1	4	41.7	4	-1E+10	1	-1E+10	1	-1E+10	1	-1E+10	1	-1E+10	1	-1E+10	1
4902551	80	C	10/30/2022	00:08	-131.522	48.392	0	222.80	0	5.3730	0	33.7540	0	26.647	0	220.803	0	127.6	4	41.5	4	-1E+10	1	-1E+10	1	-1E+10	1	-1E+10	1	-1E+10	1	-1E+10	1
4902551	80	C	10/30/2022	00:08	-131.522	48.392	0	223.80	0	5.3640	0	33.7540	0	26.648	0	221.794	0	127.1	4	41.3	4	-1E+10	1	-1E+10	1	-1E+10	1	-1E+10	1	-1E+10	1	-1E+10	1
4902551	80	C	10/30/2022	00:08	-131.522	48.392	0	224.80	0	5.3580	0	33.7550	0	26.649	0	222.784	0	126.6	4	41.1	4	-1E+10	1	-1E+10	1	-1E+10	1	-1E+10	1	-1E+10	1	-1E+10	1
4902551	80	C	10/30/2022	00:08	-131.522	48.392	0	225.70	0	5.3530	0	33.7560	0	26.650	0	223.676	0	126.0	4	41.0	4	-1E+10	1	-1E+10	1	-1E+10	1	-1E+10	1	-1E+10	1	-1E+10	1
4902551	80	C	10/30/2022	00:08	-131.522	48.392	0	226.70	0	5.3490	0	33.7560	0	26.651	0	224.666	0	125.4	4	40.7	4	-1E+10	1	-1E+10	1	-1E+10	1	-1E+10	1	-1E+10	1	-1E+10	1
4902551	80	C	10/30/2022	00:08	-131.522	48.392	0	227.70	0	5.3330	0	33.7570	0	26.654	0	225.657	0	124.8	4	40.5	4	-1E+10	1	-1E+10	1	-1E+10	1	-1E+10	1	-1E+10	1	-1E+10	1
4902551	80	C	10/30/2022	00:08	-131.522	48.392	0	228.70	0	5.3200	0	33.7590	0	26.657	0	226.647	0	124.2	4	40.4	4	-1E+10	1	-1E+10	1	-1E+10	1	-1E+10	1	-1E+10	1	-1E+10	1
4902551	80	C	10/30/2022	00:08	-131.522	48.392	0	229.70	0	5.3050	0	33.7600	0	26.659	0	227.638	0	123.7	4	40.2	4	-1E+10	1	-1E+10	1	-1E+10	1	-1E+10	1	-1E+10	1	-1E+10	1
4902551	80	C	10/30/2022	00:08	-131.522	48.392	0	230.70	0	5.2940	0	33.7600	0	26.661	0	228.628	0	123.3	4	40.0	4	-1E+10	1	-1E+10	1	-1E+10	1	-1E+10	1	-1E+10	1	-1E+10	1
4902551	80	C	10/30/2022	00:08	-131.522	48.392	0	231.70	0	5.2720	0	33.7650	0	26.667	0	229.619	0	122.8	4	39.8	4	-1E+10	1	-1E+10	1	-1E+10	1	-1E+10	1	-1E+10	1	-1E+10	1
4902551	80	C	10/30/2022	00:08	-131.522	48.392	0	232.70	0	5.2640	0	33.7620	0	26.666	0	230.609	0	122.5	4	39.7	4	-1E+10	1	-1E+10	1	-1E+10	1	-1E+10	1	-1E+10	1	-1E+10	1
4902551	80	C	10/30/2022	00:08	-131.522	48.392	0	233.70	0	5.2620	0	33.7630	0	26.667	0	231.600	0	122.0	4	39.6	4	-1E+10	1	-1E+10	1	-1E+10	1	-1E+10	1	-1E+10	1	-1E+10	1
4902551	80	C	10/30/2022	00:08	-131.522	48.392	0	234.70	0	5.2570	0	33.7620	0	26.666	0	232.590	0	121.6	4	39.4	4	-1E+10	1	-1E+10	1	-1E+10	1	-1E+10	1	-1E+10	1	-1E+10	1
4902551	80	C	10/30/2022	00:08	-131.522	48.392	0	235.80	0	5.2450	0	33.7650	0	26.670	0	233.679	0	121.2	4	39.3	4	-1E+10	1	-1E+10	1	-1E+10	1	-1E+10	1	-1E+10	1	-1E+10	1
4902551	80	C	10/30/2022	00:08	-131.522	48.392	0	236.80	0	5.2340	0	33.7640	0	26.671	0	234.670	0	120.8	4	39.1	4	-1E+10	1	-1E+10	1	-1E+10	1	-1E+10	1	-1E+10	1	-1E+10	1
4902551	80	C	10/30/2022	00:08	-131.522	48.392	0	237.80	0	5.2300	0	33.7660	0	26.673	0	235.660	0	120.4	4	39.0	4	-1E+10	1	-1E+10	1	-1E+10	1	-1E+10	1	-1E+10	1	-1E+10	1
4902551	80	C	10/30/2022	00:08	-131.522	48.392	0	238.80	0	5.2230	0	33.7650	0	26.673	0	236.651	0	119.9	4	38.9	4	-1E+10	1	-1E+10	1	-1E+10	1	-1E+10	1	-1E+10	1	-1E+10	1
4902551	80	C	10/30/2022	00:08	-131.522	48.392	0	239.80	0	5.2190	0	33.7650	0	26.673	0	237.641	0	119.4	4	38.7	4	-1E+10	1	-1E+10	1	-1E+10	1	-1E+10	1	-1E+10	1	-1E+10	1
4902551	80	C	10/30/2022	00:08	-131.522	48.392	0	240.80	0	5.2170	0	33.7650	0	26.674	0	238.632	0	118.9	4	38.5	4	-1E+10	1	-1E+10	1	-1E+10	1	-1E+10	1	-1E+10	1	-1E+10	1
4902551	80	C	10/30/2022	00:08	-131.522	48.392	0	241.80	0	5.2130	0	33.7650	0	26.674	0	239.622	0	118.3	4	38.3	4	-1E+10	1	-1E+10	1	-1E+10	1	-1E+10	1	-1E+10	1	-1E+10	1
4902551	80	C	10/30/2022	00:08	-131.522	48.392	0	242.80	0	5.2020	0	33.7680	0	26.678	0	240.612	0	117.8	4	38.1	4	-1E+10	1	-1E+10	1	-1E+10	1	-1E+10	1	-1E+10	1	-1E+10	1
4902551	80	C	10/30/2022	00:08	-131.522	48.392	0	243.80	0	5.1850	0	33.7680	0	26.680	0	241.603	0	117.2	4	38.0	4	-1E+10	1	-1E+10	1	-1E+10	1	-1E+10	1	-1E+10	1	-1E+10	1
4902551	80	C	10/30/2022	00:08	-131.522	48.392	0	244.80	0	5.1810	0	33.7670	0	26.679	0	242.593	0	116.7	4	37.8	4	-1E+10	1	-1E+10	1	-1E+10	1	-1E+10	1	-1E+10	1	-1E+10	1
4902551	80	C	10/30/2022	00:08	-131.522	48.392	0	245.80	0	5.1750	0	33.7670	0	26.680	0	243.584	0	116.1	4	37.6	4	-1E+10	1	-1E+10	1	-1E+10	1	-1E+10	1	-1E+10	1	-1E+10	1
4902551	80	C	10/30/2022	00:08	-131.522	48.392	0	246.90	0	5.1650	0	33.7680	0	26.682	0	244.673	0	115.6	4	37.4	4	-1E+10	1	-1E+10	1	-1E+10	1	-1E+10	1	-1E+10	1	-1E+10	1
4902551	80	C	10/30/2022	00:08	-131.522	48.392	0	247.90	0	5.1520	0	33.7700	0	26.685	0	245.663	0	115.0	4	37.2	4	-1E+10	1	-1E+10	1	-1E+10	1	-1E+10	1	-1E+10	1	-1E+10	1
4902551	80	C	10/30/2022	00:08	-131.522	48.392	0	248.90	0	5.1430	0	33.7700	0	26.686	0	246.654	0	114.4	4	37.0	4	-1E+10	1	-1E+10	1	-1E+10	1	-1E+10	1	-1E+10	1	-1E+10	1
4902551	80	C	10/30/2022	00:08	-131.522	48.392	0	250.00	0	5.1370	0	33.7700	0	26.687	0	247.743	0	113.8	4	36.8	4	-1E+10	1	-1E+10	1	-1E+10	1	-1E+10	1	-1E+10	1	-1E+10	1
4902551	80	C	10/30/2022	00:08	-131.522	48.392	0	251.00	0	5.1310	0	33.7710	0	26.688	0	248.734	0	113.2	4	36.6	4	-1E+10	1	-1E+10	1	-1E+10	1	-1E+10	1	-1E+10	1	-1E+10	1
4902551	80	C	10/30/2022	00:08	-131.522	48.392	0	252.10	0	5.1270	0	33.7710	0	26.689	0	249.823	0	112.5	4	36.4	4	-1E+10	1	-1E+10	1	-1E+10	1	-1E+10	1	-1E+10	1	-1E+10	1
4902551	80	C	10/30/2022	00:08	-131.522	48.392	0	253.10	0	5.1240	0	33.7700	0	26.688	0	250.813	0	111.8	4	36.2	4	-1E+10	1	-1E+10	1	-1E+10	1	-1E+10	1	-1E+10	1	-1E+10	1
4902551	80	C	10/30/2022	00:08	-131.522	48.392	0	254.10	0	5.0960	0	33.7720	0	26.693	0	251.804	0	111.2	4	35.9	4	-1E+10	1	-1E+10	1	-1E+10	1	-1E+10	1	-1E+10	1	-1E+10	1
4902551	80	C	10/30/2022	00:08	-131.522	48.392	0	255.20	0	5.0850	0	33.7750	0	26.697	0	252.893	0	110.6	4	35.7	4	-1E+10	1	-1E+10	1	-1E+10	1	-1E+10	1	-1E+10	1	-1E+10	1
4902551	80	C	10/30/2022	00:08	-131.522	48.392	0	256.20	0	5.0630	0	33.7770	0	26.701	0	253.884	0	110.1	4	35.6	4	-1E+10	1	-1E+10	1	-1E+10	1	-1E+10	1	-1E+10	1	-1E+10	1
4902551	80	C	10/30/2022	00:08	-131.522	48.392	0	257.30	0	5.0570	0	33.7780	0	26.702	0	254.973	0	109.5	4	35.4	4	-1E+10	1	-1E+10	1	-1E+10	1	-1E+10	1	-1E+10	1	-1E+10	1
4902551	80	C	10/30/2022	00:08	-131.522	48.392	0	258.40	0	5.0510	0	33.7790	0	26.704	0	256.062	0	109.0	4	35.2	4	-1E+10	1	-1E+10	1	-1E+10	1	-1E+10	1	-1E+10	1	-1E+10	1
4902551	80	C	10/30/2022	00:08	-131.522	48.392	0	259.40	0	5.0510	0	33.7790	0	26.704	0	257.053	0	108.3	4	35.0	4	-1E+10	1	-1E+10	1	-1E+10	1	-1E+10	1	-1E+10	1	-1E+10	1
4902551	80	C	10/30/2022	00:08	-131.522	48.392	0	260.40	0	5.0450	0	33.7810	0	26.706	0	258.043	0	107.8	4	34.8	4	-1E+10	1	-1E+10	1	-1E+10	1	-1E+10	1	-1E+10	1	-1E+10	1
4902551	80	C	10/30/2022	00:08	-131.522	48.392	0	261.50	0	5.0370	0	33.7810	0	26.707	0	259.132	0	107.3	4	34.6	4	-1E+10	1	-1E+10	1	-1E+10	1	-1E+10	1	-1E+10	1	-1E+10	1
4902551	80	C	10/30/2022	00:08	-131.522	48.392	0	262.50	0	5.0210	0	33.7830	0	26.710	0	260.123	0	106.8	4	34.5	4	-1E+10	1	-1E+10	1	-1E+10	1	-1E+10	1	-1E+10	1	-1E+10	1
4902551	80	C	10/30/2022	00:08	-131.522	48.392	0	263.60	0	5.0180	0	33.7840	0	26.712	0	261.212	0	106.3	4	34.3	4	-1E+10	1	-1E+10	1	-1E+10	1	-1E+10	1	-1E+10	1	-1E+10	1
4902551	80	C	10/30/2022	00:08	-131.522	48.392	0	264.60	0	5.0060	0	33.7850	0	26.714	0	262.202	0	105.9	4	34.1	4	-1E+10	1	-1E+10	1	-1E+10	1	-1E+10	1	-1E+10	1	-1E+10	1
4902551	80	C	10/30/2022	00:08	-131.522	48.392	0	265.70	0	4.9960	0	33.7890	0	26.718	0	263.292	0	105.5	4	34.0	4	-1E+10	1	-1E+10	1	-1E+10	1	-1E+10	1	-1E+10	1	-1E+10	1
4902551	80	C	10/30/2022	00:08	-131.522	48.392	0	266.80	0	4.9930	0	33.7850	0	26.715	0	264.381	0	105.1	4	33.9	4	-1E+10	1	-1E+10	1	-1E+10	1	-1E+10	1	-1E+10	1	-1E+10	1
4902551	80	C	10/30/2022	00:08	-131.522	48.392	0	267.80	0	4.9910	0	33.7860	0	26.716	0	265.371	0	104.6	4	33.7	4	-1E+10	1	-1E+10	1	-1E+10	1	-1E+10	1	-1E+10	1	-1E+10	1
4902551	80	C	10/30/2022	00:08	-131.522	48.392	0	268.90	0	4.9910	0	33.7850	0	26.715	0	266.460	0	104.0	4	33.5	4	-1E+10	1	-1E+10	1	-1E+10	1	-1E+10	1	-1E+10	1	-1E+10	1
4902551	80	C	10/30/2022	00:08	-131.522	48.392	0	269.90	0	4.9900	0	33.7850	0	26.716	0	267.451	0	103.5	4	33.3	4	-1E+10	1	-1E+10	1	-1E+10	1	-1E+10	1	-1E+10	1	-1E+10	1
4902551	80	C	10/30/2022	00:08	-131.522	48.392	0	271.00	0	4.9850	0	33.7860	0	26.717	0	268.540	0	102.9	4	33.2	4	-1E+10	1	-1E+10	1	-1E+10	1	-1E+10	1	-1E+10	1	-1E+10	1
4902551	80	C	10/30/2022	00:08	-131.522	48.392	0	272.00	0	4.9820	0	33.7850	0	26.717	0	269.530	0	102.3	4	33.0	4	-1E+10	1	-1E+10	1	-1E+10	1	-1E+10	1	-1E+10	1	-1E+10	1
4902551	80	C	10/30/2022	00:08	-131.522	48.392	0	273.10	0	4.9630	0	33.7890	0	26.722	0	270.620	0	101.7	4	32.8	4	-1E+10	1	-1E+10	1	-1E+10	1	-1E+10	1	-1E+10	1	-1E+10	1
4902551	80	C	10/30/2022	00:08	-131.522	48.392	0	274.20	0	4.9440	0	33.7950	0	26.729	0	271.709	0	101.2	4	32.6	4	-1E+10	1	-1E+10	1	-1E+10	1	-1E+10	1	-1E+10	1	-1E+10	1
4902551	80	C	10/30/2022	00:08	-131.522	48.392	0	275.20	0	4.9290	0	33.7940	0	26.730	0	272.699	0	100.7	4	32.4	4	-1E+10	1	-1E+10	1	-1E+10	1	-1E+10	1	-1E+10	1	-1E+10	1
4902551	80	C	10/30/2022	00:08	-131.522	48.392	0	276.30	0	4.9270	0	33.7940	0	26.730	0	273.788	0	100.3	4	32.3	4	-1E+10	1	-1E+10	1	-1E+10	1	-1E+10	1	-1E+10	1	-1E+10	1
4902551	80	C	10/30/2022	00:08	-131.522	48.392	0	277.40	0	4.9120	0	33.7950	0	26.732	0	274.878	0	99.8	4	32.1	4	-1E+10	1	-1E+10	1	-1E+10	1	-1E+10	1	-1E+10	1	-1E+10	1
4902551	80	C	10/30/2022	00:08	-131.522	48.392	0	278.50	0	4.9110	0	33.7940	0	26.732	0	275.967	0	99.3	4	32.0	4	-1E+10	1	-1E+10	1	-1E+10	1	-1E+10	1	-1E+10	1	-1E+10	1
4902551	80	C	10/30/2022	00:08	-131.522	48.392	0	279.50	0	4.9060	0	33.7960	0	26.734	0	276.957	0	98.8	4	31.8	4	-1E+10	1	-1E+10	1	-1E+10	1	-1E+10	1	-1E+10	1	-1E+10	1
4902551	80	C	10/30/2022	00:08	-131.522	48.392	0	280.60	0	4.9040	0	33.7950	0	26.733	0	278.046	0	98.2	4	31.6	4	-1E+10	1	-1E+10	1	-1E+10	1	-1E+10	1	-1E+10	1	-1E+10	1
4902551	80	C	10/30/2022	00:08	-131.522	48.392	0	281.70	0	4.8910	0	33.8000	0	26.739	0	279.136	0	97.6	4	31.4	4	-1E+10	1	-1E+10	1	-1E+10	1	-1E+10	1	-1E+10	1	-1E+10	1
4902551	80	C	10/30/2022	00:08	-131.522	48.392	0	282.80	0	4.8780	0	33.8010	0	26.741	0	280.225	0	97.1	4	31.2	4	-1E+10	1	-1E+10	1	-1E+10	1	-1E+10	1	-1E+10	1	-1E+10	1
4902551	80	C	10/30/2022	00:08	-131.522	48.392	0	283.80	0	4.8650	0	33.8030	0	26.744	0	281.215	0	96.7	4	31.1	4	-1E+10	1	-1E+10	1	-1E+10	1	-1E+10	1	-1E+10	1	-1E+10	1
4902551	80	C	10/30/2022	00:08	-131.522	48.392	0	284.90	0	4.8570	0	33.8030	0	26.745	0	282.304	0	96.3	4	30.9	4	-1E+10	1	-1E+10	1	-1E+10	1	-1E+10	1	-1E+10	1	-1E+10	1
4902551	80	C	10/30/2022	00:08	-131.522	48.392	0	286.00	0	4.8560	0	33.8030	0	26.745	0	283.394	0	95.9	4	30.8	4	-1E+10	1	-1E+10	1	-1E+10	1	-1E+10	1	-1E+10	1	-1E+10	1
4902551	80	C	10/30/2022	00:08	-131.522	48.392	0	287.10	0	4.8540	0	33.8030	0	26.745	0	284.483	0	95.4	4	30.6	4	-1E+10	1	-1E+10	1	-1E+10	1	-1E+10	1	-1E+10	1	-1E+10	1
4902551	80	C	10/30/2022	00:08	-131.522	48.392	0	288.20	0	4.8490	0	33.8040	0	26.747	0	285.572	0	94.9	4	30.5	4	-1E+10	1	-1E+10	1	-1E+10	1	-1E+10	1	-1E+10	1	-1E+10	1
4902551	80	C	10/30/2022	00:08	-131.522	48.392	0	289.20	0	4.8420	0	33.8040	0	26.747	0	286.562	0	94.4	4	30.3	4	-1E+10	1	-1E+10	1	-1E+10	1	-1E+10	1	-1E+10	1	-1E+10	1
4902551	80	C	10/30/2022	00:08	-131.522	48.392	0	290.30	0	4.8340	0	33.8060	0	26.750	0	287.651	0	93.9	4	30.2	4	-1E+10	1	-1E+10	1	-1E+10	1	-1E+10	1	-1E+10	1	-1E+10	1
4902551	80	C	10/30/2022	00:08	-131.522	48.392	0	291.40	0	4.8290	0	33.8080	0	26.752	0	288.741	0	93.5	4	30.0	4	-1E+10	1	-1E+10	1	-1E+10	1	-1E+10	1	-1E+10	1	-1E+10	1
4902551	80	C	10/30/2022	00:08	-131.522	48.392	0	292.40	0	4.8280	0	33.8080	0	26.752	0	289.731	0	92.9	4	29.8	4	-1E+10	1	-1E+10	1	-1E+10	1	-1E+10	1	-1E+10	1	-1E+10	1
4902551	80	C	10/30/2022	00:08	-131.522	48.392	0	293.50	0	4.8260	0	33.8070	0	26.752	0	290.820	0	92.4	4	29.7	4	-1E+10	1	-1E+10	1	-1E+10	1	-1E+10	1	-1E+10	1	-1E+10	1
4902551	80	C	10/30/2022	00:08	-131.522	48.392	0	294.50	0	4.8170	0	33.8140	0	26.758	0	291.810	0	91.8	4	29.5	4	-1E+10	1	-1E+10	1	-1E+10	1	-1E+10	1	-1E+10	1	-1E+10	1
4902551	80	C	10/30/2022	00:08	-131.522	48.392	0	295.60	0	4.8130	0	33.8130	0	26.758	0	292.899	0	91.3	4	29.3	4	-1E+10	1	-1E+10	1	-1E+10	1	-1E+10	1	-1E+10	1	-1E+10	1
4902551	80	C	10/30/2022	00:08	-131.522	48.392	0	296.60	0	4.8130	0	33.8130	0	26.758	0	293.890	0	90.8	4	29.2	4	-1E+10	1	-1E+10	1	-1E+10	1	-1E+10	1	-1E+10	1	-1E+10	1
4902551	80	C	10/30/2022	00:08	-131.522	48.392	0	297.70	0	4.8040	0	33.8140	0	26.760	0	294.979	0	90.2	4	29.0	4	-1E+10	1	-1E+10	1	-1E+10	1	-1E+10	1	-1E+10	1	-1E+10	1
4902551	80	C	10/30/2022	00:08	-131.522	48.392	0	298.70	0	4.8030	0	33.8160	0	26.761	0	295.969	0	89.6	4	28.8	4	-1E+10	1	-1E+10	1	-1E+10	1	-1E+10	1	-1E+10	1	-1E+10	1
4902551	80	C	10/30/2022	00:08	-131.522	48.392	0	299.80	0	4.7920	0	33.8190	0	26.765	0	297.058	0	89.1	4	28.6	4	-1E+10	1	-1E+10	1	-1E+10	1	-1E+10	1	-1E+10	1	-1E+10	1
4902551	80	C	10/30/2022	00:08	-131.522	48.392	0	300.80	0	4.7820	0	33.8200	0	26.767	0	298.048	0	88.6	4	28.4	4	-1E+10	1	-1E+10	1	-1E+10	1	-1E+10	1	-1E+10	1	-1E+10	1
4902551	80	C	10/30/2022	00:08	-131.522	48.392	0	301.90	0	4.7730	0	33.8210	0	26.769	0	299.137	0	88.1	4	28.3	4	-1E+10	1	-1E+10	1	-1E+10	1	-1E+10	1	-1E+10	1	-1E+10	1
4902551	80	C	10/30/2022	00:08	-131.522	48.392	0	302.90	0	4.7660	0	33.8220	0	26.770	0	300.127	0	87.5	4	28.1	4	-1E+10	1	-1E+10	1	-1E+10	1	-1E+10	1	-1E+10	1	-1E+10	1
4902551	80	C	10/30/2022	00:08	-131.522	48.392	0	303.90	0	4.7530	0	33.8250	0	26.774	0	301.118	0	87.0	4	27.9	4	-1E+10	1	-1E+10	1	-1E+10	1	-1E+10	1	-1E+10	1	-1E+10	1
4902551	80	C	10/30/2022	00:08	-131.522	48.392	0	305.00	0	4.7530	0	33.8280	0	26.776	0	302.207	0	86.5	4	27.7	4	-1E+10	1	-1E+10	1	-1E+10	1	-1E+10	1	-1E+10	1	-1E+10	1
4902551	80	C	10/30/2022	00:08	-131.522	48.392	0	306.00	0	4.7470	0	33.8310	0	26.780	0	303.197	0	86.0	4	27.6	4	-1E+10	1	-1E+10	1	-1E+10	1	-1E+10	1	-1E+10	1	-1E+10	1
4902551	80	C	10/30/2022	00:08	-131.522	48.392	0	307.10	0	4.7430	0	33.8330	0	26.782	0	304.286	0	85.6	4	27.4	4	-1E+10	1	-1E+10	1	-1E+10	1	-1E+10	1	-1E+10	1	-1E+10	1
4902551	80	C	10/30/2022	00:08	-131.522	48.392	0	308.10	0	4.7380	0	33.8340	0	26.783	0	305.276	0	85.1	4	27.3	4	-1E+10	1	-1E+10	1	-1E+10	1	-1E+10	1	-1E+10	1	-1E+10	1
4902551	80	C	10/30/2022	00:08	-131.522	48.392	0	309.20	0	4.7340	0	33.8350	0	26.784	0	306.365	0	84.7	4	27.2	4	-1E+10	1	-1E+10	1	-1E+10	1	-1E+10	1	-1E+10	1	-1E+10	1
4902551	80	C	10/30/2022	00:08	-131.522	48.392	0	310.20	0	4.7290	0	33.8360	0	26.786	0	307.355	0	84.2	4	27.0	4	-1E+10	1	-1E+10	1	-1E+10	1	-1E+10	1	-1E+10	1	-1E+10	1
4902551	80	C	10/30/2022	00:08	-131.522	48.392	0	311.30	0	4.7200	0	33.8380	0	26.788	0	308.444	0	83.8	4	26.9	4	-1E+10	1	-1E+10	1	-1E+10	1	-1E+10	1	-1E+10	1	-1E+10	1
4902551	80	C	10/30/2022	00:08	-131.522	48.392	0	312.40	0	4.7150	0	33.8380	0	26.789	0	309.533	0	83.4	4	26.7	4	-1E+10	1	-1E+10	1	-1E+10	1	-1E+10	1	-1E+10	1	-1E+10	1
4902551	80	C	10/30/2022	00:08	-131.522	48.392	0	313.40	0	4.7110	0	33.8380	0	26.789	0	310.523	0	83.0	4	26.6	4	-1E+10	1	-1E+10	1	-1E+10	1	-1E+10	1	-1E+10	1	-1E+10	1
4902551	80	C	10/30/2022	00:08	-131.522	48.392	0	314.50	0	4.6980	0	33.8420	0	26.794	0	311.612	0	82.5	4	26.4	4	-1E+10	1	-1E+10	1	-1E+10	1	-1E+10	1	-1E+10	1	-1E+10	1
4902551	80	C	10/30/2022	00:08	-131.522	48.392	0	315.50	0	4.6940	0	33.8420	0	26.794	0	312.603	0	82.2	4	26.3	4	-1E+10	1	-1E+10	1	-1E+10	1	-1E+10	1	-1E+10	1	-1E+10	1
4902551	80	C	10/30/2022	00:08	-131.522	48.392	0	316.60	0	4.6850	0	33.8440	0	26.797	0	313.692	0	81.8	4	26.2	4	-1E+10	1	-1E+10	1	-1E+10	1	-1E+10	1	-1E+10	1	-1E+10	1
4902551	80	C	10/30/2022	00:08	-131.522	48.392	0	317.60	0	4.6800	0	33.8440	0	26.797	0	314.682	0	81.4	4	26.1	4	-1E+10	1	-1E+10	1	-1E+10	1	-1E+10	1	-1E+10	1	-1E+10	1
4902551	80	C	10/30/2022	00:08	-131.522	48.392	0	318.60	0	4.6760	0	33.8440	0	26.798	0	315.672	0	81.0	4	25.9	4	-1E+10	1	-1E+10	1	-1E+10	1	-1E+10	1	-1E+10	1	-1E+10	1
4902551	80	C	10/30/2022	00:08	-131.522	48.392	0	319.70	0	4.6670	0	33.8470	0	26.801	0	316.761	0	80.6	4	25.8	4	-1E+10	1	-1E+10	1	-1E+10	1	-1E+10	1	-1E+10	1	-1E+10	1
4902551	80	C	10/30/2022	00:08	-131.522	48.392	0	320.70	0	4.6620	0	33.8490	0	26.803	0	317.751	0	80.2	4	25.6	4	-1E+10	1	-1E+10	1	-1E+10	1	-1E+10	1	-1E+10	1	-1E+10	1
4902551	80	C	10/30/2022	00:08	-131.522	48.392	0	321.80	0	4.6600	0	33.8500	0	26.804	0	318.840	0	79.8	4	25.5	4	-1E+10	1	-1E+10	1	-1E+10	1	-1E+10	1	-1E+10	1	-1E+10	1
4902551	80	C	10/30/2022	00:08	-131.522	48.392	0	322.80	0	4.6560	0	33.8500	0	26.805	0	319.830	0	79.4	4	25.4	4	-1E+10	1	-1E+10	1	-1E+10	1	-1E+10	1	-1E+10	1	-1E+10	1
4902551	80	C	10/30/2022	00:08	-131.522	48.392	0	323.90	0	4.6480	0	33.8530	0	26.808	0	320.919	0	79.0	4	25.3	4	-1E+10	1	-1E+10	1	-1E+10	1	-1E+10	1	-1E+10	1	-1E+10	1
4902551	80	C	10/30/2022	00:08	-131.522	48.392	0	324.90	0	4.6330	0	33.8550	0	26.811	0	321.909	0	78.7	4	25.2	4	-1E+10	1	-1E+10	1	-1E+10	1	-1E+10	1	-1E+10	1	-1E+10	1
4902551	80	C	10/30/2022	00:08	-131.522	48.392	0	325.90	0	4.6320	0	33.8550	0	26.811	0	322.899	0	78.4	4	25.1	4	-1E+10	1	-1E+10	1	-1E+10	1	-1E+10	1	-1E+10	1	-1E+10	1
4902551	80	C	10/30/2022	00:08	-131.522	48.392	0	327.00	0	4.6320	0	33.8550	0	26.811	0	323.988	0	78.1	4	25.0	4	-1E+10	1	-1E+10	1	-1E+10	1	-1E+10	1	-1E+10	1	-1E+10	1
4902551	80	C	10/30/2022	00:08	-131.522	48.392	0	327.90	0	4.6220	0	33.8580	0	26.815	0	324.879	0	77.9	4	24.9	4	-1E+10	1	-1E+10	1	-1E+10	1	-1E+10	1	-1E+10	1	-1E+10	1
4902551	80	C	10/30/2022	00:08	-131.522	48.392	0	329.10	0	4.6110	0	33.8580	0	26.816	0	326.067	0	77.6	4	24.8	4	-1E+10	1	-1E+10	1	-1E+10	1	-1E+10	1	-1E+10	1	-1E+10	1
4902551	80	C	10/30/2022	00:08	-131.522	48.392	0	329.90	0	4.6100	0	33.8590	0	26.817	0	326.859	0	77.4	4	24.7	4	-1E+10	1	-1E+10	1	-1E+10	1	-1E+10	1	-1E+10	1	-1E+10	1
4902551	80	C	10/30/2022	00:08	-131.522	48.392	0	331.00	0	4.6030	0	33.8600	0	26.818	0	327.948	0	77.1	4	24.6	4	-1E+10	1	-1E+10	1	-1E+10	1	-1E+10	1	-1E+10	1	-1E+10	1
4902551	80	C	10/30/2022	00:08	-131.522	48.392	0	332.20	0	4.5980	0	33.8610	0	26.820	0	329.136	0	76.8	4	24.5	4	-1E+10	1	-1E+10	1	-1E+10	1	-1E+10	1	-1E+10	1	-1E+10	1
4902551	80	C	10/30/2022	00:08	-131.522	48.392	0	333.00	0	4.5940	0	33.8620	0	26.821	0	329.928	0	76.6	4	24.5	4	-1E+10	1	-1E+10	1	-1E+10	1	-1E+10	1	-1E+10	1	-1E+10	1
4902551	80	C	10/30/2022	00:08	-131.522	48.392	0	333.70	0	4.5850	0	33.8620	0	26.822	0	330.621	0	76.4	4	24.4	4	-1E+10	1	-1E+10	1	-1E+10	1	-1E+10	1	-1E+10	1	-1E+10	1
4902551	80	C	10/30/2022	00:08	-131.522	48.392	0	334.90	0	4.5820	0	33.8620	0	26.822	0	331.809	0	76.1	4	24.3	4	-1E+10	1	-1E+10	1	-1E+10	1	-1E+10	1	-1E+10	1	-1E+10	1
4902551	80	C	10/30/2022	00:08	-131.522	48.392	0	336.10	0	4.5820	0	33.8620	0	26.822	0	332.997	0	75.7	4	24.2	4	-1E+10	1	-1E+10	1	-1E+10	1	-1E+10	1	-1E+10	1	-1E+10	1
4902551	80	C	10/30/2022	00:08	-131.522	48.392	0	336.90	0	4.5800	0	33.8630	0	26.823	0	333.789	0	75.4	4	24.1	4	-1E+10	1	-1E+10	1	-1E+10	1	-1E+10	1	-1E+10	1	-1E+10	1
4902551	80	C	10/30/2022	00:08	-131.522	48.392	0	338.00	0	4.5780	0	33.8630	0	26.824	0	334.878	0	75.1	4	24.0	4	-1E+10	1	-1E+10	1	-1E+10	1	-1E+10	1	-1E+10	1	-1E+10	1
4902551	80	C	10/30/2022	00:08	-131.522	48.392	0	339.20	0	4.5770	0	33.8630	0	26.824	0	336.066	0	74.6	4	23.8	4	-1E+10	1	-1E+10	1	-1E+10	1	-1E+10	1	-1E+10	1	-1E+10	1
4902551	80	C	10/30/2022	00:08	-131.522	48.392	0	340.00	0	4.5720	0	33.8650	0	26.826	0	336.858	0	74.4	4	23.7	4	-1E+10	1	-1E+10	1	-1E+10	1	-1E+10	1	-1E+10	1	-1E+10	1
4902551	80	C	10/30/2022	00:08	-131.522	48.392	0	340.80	0	4.5650	0	33.8670	0	26.828	0	337.650	0	74.1	4	23.7	4	-1E+10	1	-1E+10	1	-1E+10	1	-1E+10	1	-1E+10	1	-1E+10	1
4902551	80	C	10/30/2022	00:08	-131.522	48.392	0	341.70	0	4.5630	0	33.8660	0	26.828	0	338.541	0	73.9	4	23.6	4	-1E+10	1	-1E+10	1	-1E+10	1	-1E+10	1	-1E+10	1	-1E+10	1
4902551	80	C	10/30/2022	00:08	-131.522	48.392	0	342.90	0	4.5590	0	33.8670	0	26.829	0	339.728	0	73.5	4	23.5	4	-1E+10	1	-1E+10	1	-1E+10	1	-1E+10	1	-1E+10	1	-1E+10	1
4902551	80	C	10/30/2022	00:08	-131.522	48.392	0	344.10	0	4.5540	0	33.8680	0	26.830	0	340.916	0	73.1	4	23.3	4	-1E+10	1	-1E+10	1	-1E+10	1	-1E+10	1	-1E+10	1	-1E+10	1
4902551	80	C	10/30/2022	00:08	-131.522	48.392	0	344.90	0	4.5490	0	33.8700	0	26.832	0	341.708	0	72.9	4	23.3	4	-1E+10	1	-1E+10	1	-1E+10	1	-1E+10	1	-1E+10	1	-1E+10	1
4902551	80	C	10/30/2022	00:08	-131.522	48.392	0	345.80	0	4.5470	0	33.8710	0	26.833	0	342.599	0	72.6	4	23.2	4	-1E+10	1	-1E+10	1	-1E+10	1	-1E+10	1	-1E+10	1	-1E+10	1
4902551	80	C	10/30/2022	00:08	-131.522	48.392	0	347.00	0	4.5440	0	33.8740	0	26.836	0	343.787	0	72.3	4	23.1	4	-1E+10	1	-1E+10	1	-1E+10	1	-1E+10	1	-1E+10	1	-1E+10	1
4902551	80	C	10/30/2022	00:08	-131.522	48.392	0	348.30	0	4.5450	0	33.8760	0	26.838	0	345.074	0	72.1	4	23.0	4	-1E+10	1	-1E+10	1	-1E+10	1	-1E+10	1	-1E+10	1	-1E+10	1
4902551	80	C	10/30/2022	00:08	-131.522	48.392	0	349.10	0	4.5450	0	33.8770	0	26.838	0	345.866	0	71.9	4	22.9	4	-1E+10	1	-1E+10	1	-1E+10	1	-1E+10	1	-1E+10	1	-1E+10	1
4902551	80	C	10/30/2022	00:08	-131.522	48.392	0	349.90	0	4.5430	0	33.8780	0	26.839	0	346.658	0	71.7	4	22.9	4	-1E+10	1	-1E+10	1	-1E+10	1	-1E+10	1	-1E+10	1	-1E+10	1
4902551	80	C	10/30/2022	00:08	-131.522	48.392	0	352.70	0	4.5380	0	33.8790	0	26.841	0	349.430	0	71.0	4	22.6	4	-1E+10	1	-1E+10	1	-1E+10	1	-1E+10	1	-1E+10	1	-1E+10	1
4902551	80	C	10/30/2022	00:08	-131.522	48.392	0	357.70	0	4.5310	0	33.8820	0	26.844	0	354.379	0	69.4	4	22.2	4	-1E+10	1	-1E+10	1	-1E+10	1	-1E+10	1	-1E+10	1	-1E+10	1
4902551	80	C	10/30/2022	00:08	-131.522	48.392	0	362.70	0	4.5160	0	33.8880	0	26.850	0	359.328	0	67.4	4	21.5	4	-1E+10	1	-1E+10	1	-1E+10	1	-1E+10	1	-1E+10	1	-1E+10	1
4902551	80	C	10/30/2022	00:08	-131.522	48.392	0	367.90	0	4.4960	0	33.8970	0	26.860	0	364.475	0	65.4	4	20.8	4	-1E+10	1	-1E+10	1	-1E+10	1	-1E+10	1	-1E+10	1	-1E+10	1
4902551	80	C	10/30/2022	00:08	-131.522	48.392	0	373.20	0	4.4860	0	33.9050	0	26.867	0	369.721	0	63.9	4	20.4	4	-1E+10	1	-1E+10	1	-1E+10	1	-1E+10	1	-1E+10	1	-1E+10	1
4902551	80	C	10/30/2022	00:08	-131.522	48.392	0	378.10	0	4.4660	0	33.9100	0	26.873	0	374.571	0	62.3	4	19.8	4	-1E+10	1	-1E+10	1	-1E+10	1	-1E+10	1	-1E+10	1	-1E+10	1
4902551	80	C	10/30/2022	00:08	-131.522	48.392	0	383.00	0	4.4560	0	33.9160	0	26.879	0	379.421	0	60.4	4	19.2	4	-1E+10	1	-1E+10	1	-1E+10	1	-1E+10	1	-1E+10	1	-1E+10	1
4902551	80	C	10/30/2022	00:08	-131.522	48.392	0	388.10	0	4.4330	0	33.9240	0	26.888	0	384.469	0	58.8	4	18.7	4	-1E+10	1	-1E+10	1	-1E+10	1	-1E+10	1	-1E+10	1	-1E+10	1
4902551	80	C	10/30/2022	00:08	-131.522	48.392	0	392.70	0	4.4290	0	33.9300	0	26.893	0	389.021	0	57.4	4	18.3	4	-1E+10	1	-1E+10	1	-1E+10	1	-1E+10	1	-1E+10	1	-1E+10	1
4902551	80	C	10/30/2022	00:08	-131.522	48.392	0	397.80	0	4.4140	0	33.9350	0	26.899	0	394.069	0	56.0	4	17.8	4	-1E+10	1	-1E+10	1	-1E+10	1	-1E+10	1	-1E+10	1	-1E+10	1
4902551	80	C	10/30/2022	00:08	-131.522	48.392	0	403.00	0	4.4020	0	33.9420	0	26.906	0	399.215	0	54.5	4	17.4	4	-1E+10	1	-1E+10	1	-1E+10	1	-1E+10	1	-1E+10	1	-1E+10	1
4902551	80	C	10/30/2022	00:08	-131.522	48.392	0	407.70	0	4.4070	0	33.9490	0	26.911	0	403.866	0	53.4	4	17.0	4	-1E+10	1	-1E+10	1	-1E+10	1	-1E+10	1	-1E+10	1	-1E+10	1
4902551	80	C	10/30/2022	00:08	-131.522	48.392	0	413.00	0	4.3990	0	33.9550	0	26.917	0	409.111	0	52.3	4	16.6	4	-1E+10	1	-1E+10	1	-1E+10	1	-1E+10	1	-1E+10	1	-1E+10	1
4902551	80	C	10/30/2022	00:08	-131.522	48.392	0	418.30	0	4.3820	0	33.9580	0	26.921	0	414.356	0	51.1	4	16.3	4	-1E+10	1	-1E+10	1	-1E+10	1	-1E+10	1	-1E+10	1	-1E+10	1
4902551	80	C	10/30/2022	00:08	-131.522	48.392	0	423.10	0	4.3700	0	33.9640	0	26.927	0	419.106	0	49.8	4	15.9	4	-1E+10	1	-1E+10	1	-1E+10	1	-1E+10	1	-1E+10	1	-1E+10	1
4902551	80	C	10/30/2022	00:08	-131.522	48.392	0	428.10	0	4.3600	0	33.9710	0	26.933	0	424.053	0	48.6	4	15.5	4	-1E+10	1	-1E+10	1	-1E+10	1	-1E+10	1	-1E+10	1	-1E+10	1
4902551	80	C	10/30/2022	00:08	-131.522	48.392	0	433.00	0	4.3610	0	33.9800	0	26.941	0	428.902	0	47.3	4	15.0	4	-1E+10	1	-1E+10	1	-1E+10	1	-1E+10	1	-1E+10	1	-1E+10	1
4902551	80	C	10/30/2022	00:08	-131.522	48.392	0	438.00	0	4.3530	0	33.9890	0	26.949	0	433.849	0	46.2	4	14.7	4	-1E+10	1	-1E+10	1	-1E+10	1	-1E+10	1	-1E+10	1	-1E+10	1
4902551	80	C	10/30/2022	00:08	-131.522	48.392	0	442.90	0	4.3340	0	33.9970	0	26.957	0	438.698	0	45.3	4	14.4	4	-1E+10	1	-1E+10	1	-1E+10	1	-1E+10	1	-1E+10	1	-1E+10	1
4902551	80	C	10/30/2022	00:08	-131.522	48.392	0	447.90	0	4.3280	0	34.0000	0	26.960	0	443.645	0	44.5	4	14.1	4	-1E+10	1	-1E+10	1	-1E+10	1	-1E+10	1	-1E+10	1	-1E+10	1
4902551	80	C	10/30/2022	00:08	-131.522	48.392	0	452.90	0	4.3190	0	34.0060	0	26.966	0	448.592	0	43.4	4	13.8	4	-1E+10	1	-1E+10	1	-1E+10	1	-1E+10	1	-1E+10	1	-1E+10	1
4902551	80	C	10/30/2022	00:08	-131.522	48.392	0	457.80	0	4.2830	0	34.0110	0	26.974	0	453.440	0	42.5	4	13.5	4	-1E+10	1	-1E+10	1	-1E+10	1	-1E+10	1	-1E+10	1	-1E+10	1
4902551	80	C	10/30/2022	00:08	-131.522	48.392	0	462.70	0	4.2710	0	34.0150	0	26.978	0	458.288	0	41.8	4	13.3	4	-1E+10	1	-1E+10	1	-1E+10	1	-1E+10	1	-1E+10	1	-1E+10	1
4902551	80	C	10/30/2022	00:08	-131.522	48.392	0	467.60	0	4.2630	0	34.0190	0	26.982	0	463.136	0	41.2	4	13.1	4	-1E+10	1	-1E+10	1	-1E+10	1	-1E+10	1	-1E+10	1	-1E+10	1
4902551	80	C	10/30/2022	00:08	-131.522	48.392	0	472.60	0	4.2690	0	34.0220	0	26.984	0	468.083	0	40.3	4	12.8	4	-1E+10	1	-1E+10	1	-1E+10	1	-1E+10	1	-1E+10	1	-1E+10	1
4902551	80	C	10/30/2022	00:08	-131.522	48.392	0	477.70	0	4.2700	0	34.0290	0	26.989	0	473.128	0	39.4	4	12.5	4	-1E+10	1	-1E+10	1	-1E+10	1	-1E+10	1	-1E+10	1	-1E+10	1
4902551	80	C	10/30/2022	00:08	-131.522	48.392	0	482.70	0	4.2610	0	34.0340	0	26.994	0	478.074	0	38.5	4	12.2	4	-1E+10	1	-1E+10	1	-1E+10	1	-1E+10	1	-1E+10	1	-1E+10	1
4902551	80	C	10/30/2022	00:08	-131.522	48.392	0	487.70	0	4.2530	0	34.0380	0	26.998	0	483.021	0	37.7	4	12.0	4	-1E+10	1	-1E+10	1	-1E+10	1	-1E+10	1	-1E+10	1	-1E+10	1
4902551	80	C	10/30/2022	00:08	-131.522	48.392	0	492.70	0	4.2420	0	34.0450	0	27.005	0	487.967	0	37.0	4	11.7	4	-1E+10	1	-1E+10	1	-1E+10	1	-1E+10	1	-1E+10	1	-1E+10	1
4902551	80	C	10/30/2022	00:08	-131.522	48.392	0	498.00	0	4.2330	0	34.0480	0	27.009	0	493.210	0	36.2	4	11.5	4	-1E+10	1	-1E+10	1	-1E+10	1	-1E+10	1	-1E+10	1	-1E+10	1
4902551	80	C	10/30/2022	00:08	-131.522	48.392	0	503.10	0	4.2200	0	34.0520	0	27.013	0	498.255	0	35.2	4	11.2	4	-1E+10	1	-1E+10	1	-1E+10	1	-1E+10	1	-1E+10	1	-1E+10	1
4902551	80	C	10/30/2022	00:08	-131.522	48.392	0	507.80	0	4.2010	0	34.0590	0	27.021	0	502.904	0	34.2	4	10.8	4	-1E+10	1	-1E+10	1	-1E+10	1	-1E+10	1	-1E+10	1	-1E+10	1
4902551	80	C	10/30/2022	00:08	-131.522	48.392	0	513.00	0	4.1790	0	34.0660	0	27.029	0	508.047	0	33.3	4	10.5	4	-1E+10	1	-1E+10	1	-1E+10	1	-1E+10	1	-1E+10	1	-1E+10	1
4902551	80	C	10/30/2022	00:08	-131.522	48.392	0	518.30	0	4.1550	0	34.0750	0	27.038	0	513.289	0	32.7	4	10.3	4	-1E+10	1	-1E+10	1	-1E+10	1	-1E+10	1	-1E+10	1	-1E+10	1
4902551	80	C	10/30/2022	00:08	-131.522	48.392	0	523.30	0	4.1450	0	34.0780	0	27.042	0	518.235	0	32.2	4	10.2	4	-1E+10	1	-1E+10	1	-1E+10	1	-1E+10	1	-1E+10	1	-1E+10	1
4902551	80	C	10/30/2022	00:08	-131.522	48.392	0	527.90	0	4.1360	0	34.0810	0	27.045	0	522.784	0	31.8	4	10.1	4	-1E+10	1	-1E+10	1	-1E+10	1	-1E+10	1	-1E+10	1	-1E+10	1
4902551	80	C	10/30/2022	00:08	-131.522	48.392	0	532.60	0	4.1280	0	34.0830	0	27.048	0	527.433	0	31.4	4	9.9	4	-1E+10	1	-1E+10	1	-1E+10	1	-1E+10	1	-1E+10	1	-1E+10	1
4902551	80	C	10/30/2022	00:08	-131.522	48.392	0	537.80	0	4.1200	0	34.0860	0	27.051	0	532.576	0	30.9	4	9.8	4	-1E+10	1	-1E+10	1	-1E+10	1	-1E+10	1	-1E+10	1	-1E+10	1
4902551	80	C	10/30/2022	00:08	-131.522	48.392	0	542.90	0	4.1110	0	34.0890	0	27.054	0	537.620	0	30.3	4	9.6	4	-1E+10	1	-1E+10	1	-1E+10	1	-1E+10	1	-1E+10	1	-1E+10	1
4902551	80	C	10/30/2022	00:08	-131.522	48.392	0	548.00	0	4.0950	0	34.0950	0	27.061	0	542.663	0	29.7	4	9.4	4	-1E+10	1	-1E+10	1	-1E+10	1	-1E+10	1	-1E+10	1	-1E+10	1
4902551	80	C	10/30/2022	00:08	-131.522	48.392	0	553.10	0	4.0820	0	34.0990	0	27.065	0	547.707	0	29.0	4	9.2	4	-1E+10	1	-1E+10	1	-1E+10	1	-1E+10	1	-1E+10	1	-1E+10	1
4902551	80	C	10/30/2022	00:08	-131.522	48.392	0	557.90	0	4.0710	0	34.1030	0	27.070	0	552.454	0	28.5	4	9.0	4	-1E+10	1	-1E+10	1	-1E+10	1	-1E+10	1	-1E+10	1	-1E+10	1
4902551	80	C	10/30/2022	00:08	-131.522	48.392	0	562.70	0	4.0660	0	34.1050	0	27.072	0	557.201	0	27.8	4	8.8	4	-1E+10	1	-1E+10	1	-1E+10	1	-1E+10	1	-1E+10	1	-1E+10	1
4902551	80	C	10/30/2022	00:08	-131.522	48.392	0	568.10	0	4.0460	0	34.1120	0	27.079	0	562.541	0	27.0	4	8.5	4	-1E+10	1	-1E+10	1	-1E+10	1	-1E+10	1	-1E+10	1	-1E+10	1
4902551	80	C	10/30/2022	00:08	-131.522	48.392	0	573.10	0	4.0300	0	34.1180	0	27.086	0	567.485	0	26.5	4	8.4	4	-1E+10	1	-1E+10	1	-1E+10	1	-1E+10	1	-1E+10	1	-1E+10	1
4902551	80	C	10/30/2022	00:08	-131.522	48.392	0	578.00	0	4.0200	0	34.1220	0	27.090	0	572.330	0	26.0	4	8.2	4	-1E+10	1	-1E+10	1	-1E+10	1	-1E+10	1	-1E+10	1	-1E+10	1
4902551	80	C	10/30/2022	00:08	-131.522	48.392	0	583.00	0	4.0100	0	34.1250	0	27.093	0	577.274	0	25.5	4	8.0	4	-1E+10	1	-1E+10	1	-1E+10	1	-1E+10	1	-1E+10	1	-1E+10	1
4902551	80	C	10/30/2022	00:08	-131.522	48.392	0	588.00	0	3.9860	0	34.1330	0	27.102	0	582.218	0	25.1	4	7.9	4	-1E+10	1	-1E+10	1	-1E+10	1	-1E+10	1	-1E+10	1	-1E+10	1
4902551	80	C	10/30/2022	00:08	-131.522	48.392	0	593.00	0	3.9830	0	34.1340	0	27.103	0	587.162	0	24.7	4	7.8	4	-1E+10	1	-1E+10	1	-1E+10	1	-1E+10	1	-1E+10	1	-1E+10	1
4902551	80	C	10/30/2022	00:08	-131.522	48.392	0	597.60	0	3.9750	0	34.1360	0	27.106	0	591.710	0	24.1	4	7.6	4	-1E+10	1	-1E+10	1	-1E+10	1	-1E+10	1	-1E+10	1	-1E+10	1
4902551	80	C	10/30/2022	00:08	-131.522	48.392	0	602.80	0	3.9560	0	34.1430	0	27.113	0	596.851	0	23.5	4	7.4	4	-1E+10	1	-1E+10	1	-1E+10	1	-1E+10	1	-1E+10	1	-1E+10	1
4902551	80	C	10/30/2022	00:08	-131.522	48.392	0	607.90	0	3.9440	0	34.1480	0	27.119	0	601.894	0	22.7	4	7.2	4	-1E+10	1	-1E+10	1	-1E+10	1	-1E+10	1	-1E+10	1	-1E+10	1
4902551	80	C	10/30/2022	00:08	-131.522	48.392	0	613.00	0	3.9300	0	34.1530	0	27.124	0	606.936	0	22.1	4	7.0	4	-1E+10	1	-1E+10	1	-1E+10	1	-1E+10	1	-1E+10	1	-1E+10	1
4902551	80	C	10/30/2022	00:08	-131.522	48.392	0	618.10	0	3.9230	0	34.1570	0	27.128	0	611.978	0	21.6	4	6.8	4	-1E+10	1	-1E+10	1	-1E+10	1	-1E+10	1	-1E+10	1	-1E+10	1
4902551	80	C	10/30/2022	00:08	-131.522	48.392	0	622.70	0	3.9210	0	34.1570	0	27.128	0	616.525	0	21.0	4	6.6	4	-1E+10	1	-1E+10	1	-1E+10	1	-1E+10	1	-1E+10	1	-1E+10	1
4902551	80	C	10/30/2022	00:08	-131.522	48.392	0	627.80	0	3.9010	0	34.1660	0	27.137	0	621.567	0	20.2	4	6.4	4	-1E+10	1	-1E+10	1	-1E+10	1	-1E+10	1	-1E+10	1	-1E+10	1
4902551	80	C	10/30/2022	00:08	-131.522	48.392	0	632.90	0	3.8890	0	34.1700	0	27.142	0	626.609	0	19.9	4	6.3	4	-1E+10	1	-1E+10	1	-1E+10	1	-1E+10	1	-1E+10	1	-1E+10	1
4902551	80	C	10/30/2022	00:08	-131.522	48.392	0	637.60	0	3.8870	0	34.1710	0	27.143	0	631.255	0	19.6	4	6.2	4	-1E+10	1	-1E+10	1	-1E+10	1	-1E+10	1	-1E+10	1	-1E+10	1
4902551	80	C	10/30/2022	00:08	-131.522	48.392	0	642.80	0	3.8750	0	34.1750	0	27.147	0	636.395	0	19.3	4	6.1	4	-1E+10	1	-1E+10	1	-1E+10	1	-1E+10	1	-1E+10	1	-1E+10	1
4902551	80	C	10/30/2022	00:08	-131.522	48.392	0	648.00	0	3.8680	0	34.1780	0	27.150	0	641.536	0	18.9	4	5.9	4	-1E+10	1	-1E+10	1	-1E+10	1	-1E+10	1	-1E+10	1	-1E+10	1
4902551	80	C	10/30/2022	00:08	-131.522	48.392	0	652.80	0	3.8580	0	34.1820	0	27.155	0	646.280	0	18.5	4	5.8	4	-1E+10	1	-1E+10	1	-1E+10	1	-1E+10	1	-1E+10	1	-1E+10	1
4902551	80	C	10/30/2022	00:08	-131.522	48.392	0	657.90	0	3.8450	0	34.1880	0	27.161	0	651.321	0	18.1	4	5.7	4	-1E+10	1	-1E+10	1	-1E+10	1	-1E+10	1	-1E+10	1	-1E+10	1
4902551	80	C	10/30/2022	00:08	-131.522	48.392	0	663.00	0	3.8390	0	34.1910	0	27.164	0	656.362	0	17.9	4	5.6	4	-1E+10	1	-1E+10	1	-1E+10	1	-1E+10	1	-1E+10	1	-1E+10	1
4902551	80	C	10/30/2022	00:08	-131.522	48.392	0	667.80	0	3.8330	0	34.1930	0	27.166	0	661.107	0	17.6	4	5.5	4	-1E+10	1	-1E+10	1	-1E+10	1	-1E+10	1	-1E+10	1	-1E+10	1
4902551	80	C	10/30/2022	00:08	-131.522	48.392	0	672.60	0	3.8230	0	34.1960	0	27.169	0	665.851	0	17.3	4	5.4	4	-1E+10	1	-1E+10	1	-1E+10	1	-1E+10	1	-1E+10	1	-1E+10	1
4902551	80	C	10/30/2022	00:08	-131.522	48.392	0	677.60	0	3.8070	0	34.2020	0	27.176	0	670.793	0	17.0	4	5.3	4	-1E+10	1	-1E+10	1	-1E+10	1	-1E+10	1	-1E+10	1	-1E+10	1
4902551	80	C	10/30/2022	00:08	-131.522	48.392	0	682.60	0	3.7980	0	34.2050	0	27.179	0	675.734	0	16.7	4	5.2	4	-1E+10	1	-1E+10	1	-1E+10	1	-1E+10	1	-1E+10	1	-1E+10	1
4902551	80	C	10/30/2022	00:08	-131.522	48.392	0	687.70	0	3.7860	0	34.2080	0	27.183	0	680.775	0	16.4	4	5.1	4	-1E+10	1	-1E+10	1	-1E+10	1	-1E+10	1	-1E+10	1	-1E+10	1
4902551	80	C	10/30/2022	00:08	-131.522	48.392	0	693.00	0	3.7690	0	34.2130	0	27.189	0	686.013	0	16.2	4	5.1	4	-1E+10	1	-1E+10	1	-1E+10	1	-1E+10	1	-1E+10	1	-1E+10	1
4902551	80	C	10/30/2022	00:08	-131.522	48.392	0	698.20	0	3.7570	0	34.2170	0	27.193	0	691.152	0	16.0	4	5.0	4	-1E+10	1	-1E+10	1	-1E+10	1	-1E+10	1	-1E+10	1	-1E+10	1
4902551	80	C	10/30/2022	00:08	-131.522	48.392	0	703.20	0	3.7480	0	34.2190	0	27.195	0	696.093	0	15.9	4	5.0	4	-1E+10	1	-1E+10	1	-1E+10	1	-1E+10	1	-1E+10	1	-1E+10	1
4902551	80	C	10/30/2022	00:08	-131.522	48.392	0	707.80	0	3.7400	0	34.2200	0	27.197	0	700.639	0	15.7	4	4.9	4	-1E+10	1	-1E+10	1	-1E+10	1	-1E+10	1	-1E+10	1	-1E+10	1
4902551	80	C	10/30/2022	00:08	-131.522	48.392	0	712.70	0	3.7230	0	34.2240	0	27.202	0	705.481	0	15.5	4	4.9	4	-1E+10	1	-1E+10	1	-1E+10	1	-1E+10	1	-1E+10	1	-1E+10	1
4902551	80	C	10/30/2022	00:08	-131.522	48.392	0	717.80	0	3.7110	0	34.2260	0	27.205	0	710.520	0	15.3	4	4.8	4	-1E+10	1	-1E+10	1	-1E+10	1	-1E+10	1	-1E+10	1	-1E+10	1
4902551	80	C	10/30/2022	00:08	-131.522	48.392	0	723.00	0	3.6980	0	34.2300	0	27.209	0	715.659	0	15.1	4	4.7	4	-1E+10	1	-1E+10	1	-1E+10	1	-1E+10	1	-1E+10	1	-1E+10	1
4902551	80	C	10/30/2022	00:08	-131.522	48.392	0	727.80	0	3.6850	0	34.2340	0	27.214	0	720.402	0	14.9	4	4.7	4	-1E+10	1	-1E+10	1	-1E+10	1	-1E+10	1	-1E+10	1	-1E+10	1
4902551	80	C	10/30/2022	00:08	-131.522	48.392	0	732.70	0	3.6780	0	34.2360	0	27.216	0	725.243	0	14.8	4	4.6	4	-1E+10	1	-1E+10	1	-1E+10	1	-1E+10	1	-1E+10	1	-1E+10	1
4902551	80	C	10/30/2022	00:08	-131.522	48.392	0	738.10	0	3.6680	0	34.2380	0	27.219	0	730.579	0	14.7	4	4.6	4	-1E+10	1	-1E+10	1	-1E+10	1	-1E+10	1	-1E+10	1	-1E+10	1
4902551	80	C	10/30/2022	00:08	-131.522	48.392	0	743.10	0	3.6600	0	34.2400	0	27.221	0	735.519	0	14.6	4	4.6	4	-1E+10	1	-1E+10	1	-1E+10	1	-1E+10	1	-1E+10	1	-1E+10	1
4902551	80	C	10/30/2022	00:08	-131.522	48.392	0	747.80	0	3.6550	0	34.2420	0	27.223	0	740.163	0	14.4	4	4.5	4	-1E+10	1	-1E+10	1	-1E+10	1	-1E+10	1	-1E+10	1	-1E+10	1
4902551	80	C	10/30/2022	00:08	-131.522	48.392	0	753.00	0	3.6370	0	34.2470	0	27.229	0	745.301	0	14.3	4	4.5	4	-1E+10	1	-1E+10	1	-1E+10	1	-1E+10	1	-1E+10	1	-1E+10	1
4902551	80	C	10/30/2022	00:08	-131.522	48.392	0	758.20	0	3.6340	0	34.2480	0	27.230	0	750.438	0	14.1	4	4.4	4	-1E+10	1	-1E+10	1	-1E+10	1	-1E+10	1	-1E+10	1	-1E+10	1
4902551	80	C	10/30/2022	00:08	-131.522	48.392	0	763.10	0	3.6290	0	34.2500	0	27.232	0	755.279	0	14.0	4	4.4	4	-1E+10	1	-1E+10	1	-1E+10	1	-1E+10	1	-1E+10	1	-1E+10	1
4902551	80	C	10/30/2022	00:08	-131.522	48.392	0	767.90	0	3.6230	0	34.2530	0	27.235	0	760.021	0	13.9	4	4.3	4	-1E+10	1	-1E+10	1	-1E+10	1	-1E+10	1	-1E+10	1	-1E+10	1
4902551	80	C	10/30/2022	00:08	-131.522	48.392	0	772.80	0	3.6140	0	34.2560	0	27.239	0	764.862	0	13.7	4	4.3	4	-1E+10	1	-1E+10	1	-1E+10	1	-1E+10	1	-1E+10	1	-1E+10	1
4902551	80	C	10/30/2022	00:08	-131.522	48.392	0	777.80	0	3.6000	0	34.2590	0	27.242	0	769.801	0	13.6	4	4.3	4	-1E+10	1	-1E+10	1	-1E+10	1	-1E+10	1	-1E+10	1	-1E+10	1
4902551	80	C	10/30/2022	00:08	-131.522	48.392	0	782.70	0	3.5970	0	34.2610	0	27.244	0	774.642	0	13.5	4	4.2	4	-1E+10	1	-1E+10	1	-1E+10	1	-1E+10	1	-1E+10	1	-1E+10	1
4902551	80	C	10/30/2022	00:08	-131.522	48.392	0	787.80	0	3.5850	0	34.2630	0	27.247	0	779.680	0	13.4	4	4.2	4	-1E+10	1	-1E+10	1	-1E+10	1	-1E+10	1	-1E+10	1	-1E+10	1
4902551	80	C	10/30/2022	00:08	-131.522	48.392	0	792.80	0	3.5660	0	34.2670	0	27.252	0	784.619	0	13.2	4	4.1	4	-1E+10	1	-1E+10	1	-1E+10	1	-1E+10	1	-1E+10	1	-1E+10	1
4902551	80	C	10/30/2022	00:08	-131.522	48.392	0	797.80	0	3.5530	0	34.2710	0	27.257	0	789.558	0	13.1	4	4.1	4	-1E+10	1	-1E+10	1	-1E+10	1	-1E+10	1	-1E+10	1	-1E+10	1
4902551	80	C	10/30/2022	00:08	-131.522	48.392	0	802.90	0	3.5450	0	34.2730	0	27.259	0	794.595	0	13.0	4	4.1	4	-1E+10	1	-1E+10	1	-1E+10	1	-1E+10	1	-1E+10	1	-1E+10	1
4902551	80	C	10/30/2022	00:08	-131.522	48.392	0	808.00	0	3.5380	0	34.2760	0	27.262	0	799.633	0	12.9	4	4.0	4	-1E+10	1	-1E+10	1	-1E+10	1	-1E+10	1	-1E+10	1	-1E+10	1
4902551	80	C	10/30/2022	00:08	-131.522	48.392	0	813.00	0	3.5200	0	34.2790	0	27.266	0	804.571	0	12.8	4	4.0	4	-1E+10	1	-1E+10	1	-1E+10	1	-1E+10	1	-1E+10	1	-1E+10	1
4902551	80	C	10/30/2022	00:08	-131.522	48.392	0	818.10	0	3.5100	0	34.2820	0	27.270	0	809.609	0	12.8	4	4.0	4	-1E+10	1	-1E+10	1	-1E+10	1	-1E+10	1	-1E+10	1	-1E+10	1
4902551	80	C	10/30/2022	00:08	-131.522	48.392	0	823.10	0	3.5030	0	34.2840	0	27.272	0	814.547	0	12.7	4	4.0	4	-1E+10	1	-1E+10	1	-1E+10	1	-1E+10	1	-1E+10	1	-1E+10	1
4902551	80	C	10/30/2022	00:08	-131.522	48.392	0	828.10	0	3.4940	0	34.2860	0	27.274	0	819.485	0	12.6	4	3.9	4	-1E+10	1	-1E+10	1	-1E+10	1	-1E+10	1	-1E+10	1	-1E+10	1
4902551	80	C	10/30/2022	00:08	-131.522	48.392	0	833.00	0	3.4860	0	34.2880	0	27.277	0	824.325	0	12.5	4	3.9	4	-1E+10	1	-1E+10	1	-1E+10	1	-1E+10	1	-1E+10	1	-1E+10	1
4902551	80	C	10/30/2022	00:08	-131.522	48.392	0	837.90	0	3.4730	0	34.2910	0	27.280	0	829.164	0	12.5	4	3.9	4	-1E+10	1	-1E+10	1	-1E+10	1	-1E+10	1	-1E+10	1	-1E+10	1
4902551	80	C	10/30/2022	00:08	-131.522	48.392	0	842.80	0	3.4580	0	34.2940	0	27.284	0	834.003	0	12.4	4	3.9	4	-1E+10	1	-1E+10	1	-1E+10	1	-1E+10	1	-1E+10	1	-1E+10	1
4902551	80	C	10/30/2022	00:08	-131.522	48.392	0	847.70	0	3.4490	0	34.2960	0	27.287	0	838.842	0	12.3	4	3.8	4	-1E+10	1	-1E+10	1	-1E+10	1	-1E+10	1	-1E+10	1	-1E+10	1
4902551	80	C	10/30/2022	00:08	-131.522	48.392	0	852.70	0	3.4450	0	34.2990	0	27.290	0	843.780	0	12.2	4	3.8	4	-1E+10	1	-1E+10	1	-1E+10	1	-1E+10	1	-1E+10	1	-1E+10	1
4902551	80	C	10/30/2022	00:08	-131.522	48.392	0	857.60	0	3.4390	0	34.3020	0	27.293	0	848.619	0	12.2	4	3.8	4	-1E+10	1	-1E+10	1	-1E+10	1	-1E+10	1	-1E+10	1	-1E+10	1
4902551	80	C	10/30/2022	00:08	-131.522	48.392	0	862.50	0	3.4310	0	34.3040	0	27.295	0	853.457	0	12.1	4	3.8	4	-1E+10	1	-1E+10	1	-1E+10	1	-1E+10	1	-1E+10	1	-1E+10	1
4902551	80	C	10/30/2022	00:08	-131.522	48.392	0	867.90	0	3.4260	0	34.3070	0	27.298	0	858.790	0	12.1	4	3.8	4	-1E+10	1	-1E+10	1	-1E+10	1	-1E+10	1	-1E+10	1	-1E+10	1
4902551	80	C	10/30/2022	00:08	-131.522	48.392	0	872.90	0	3.4150	0	34.3070	0	27.299	0	863.727	0	12.0	4	3.7	4	-1E+10	1	-1E+10	1	-1E+10	1	-1E+10	1	-1E+10	1	-1E+10	1
4902551	80	C	10/30/2022	00:08	-131.522	48.392	0	877.50	0	3.4060	0	34.3090	0	27.301	0	868.269	0	12.0	4	3.7	4	-1E+10	1	-1E+10	1	-1E+10	1	-1E+10	1	-1E+10	1	-1E+10	1
4902551	80	C	10/30/2022	00:08	-131.522	48.392	0	882.70	0	3.3990	0	34.3110	0	27.304	0	873.403	0	12.0	4	3.7	4	-1E+10	1	-1E+10	1	-1E+10	1	-1E+10	1	-1E+10	1	-1E+10	1
4902551	80	C	10/30/2022	00:08	-131.522	48.392	0	887.90	0	3.3890	0	34.3130	0	27.306	0	878.538	0	11.9	4	3.7	4	-1E+10	1	-1E+10	1	-1E+10	1	-1E+10	1	-1E+10	1	-1E+10	1
4902551	80	C	10/30/2022	00:08	-131.522	48.392	0	892.80	0	3.3820	0	34.3160	0	27.309	0	883.376	0	11.9	4	3.7	4	-1E+10	1	-1E+10	1	-1E+10	1	-1E+10	1	-1E+10	1	-1E+10	1
4902551	80	C	10/30/2022	00:08	-131.522	48.392	0	897.60	0	3.3720	0	34.3190	0	27.313	0	888.115	0	11.8	4	3.7	4	-1E+10	1	-1E+10	1	-1E+10	1	-1E+10	1	-1E+10	1	-1E+10	1
4902551	80	C	10/30/2022	00:08	-131.522	48.392	0	902.90	0	3.3550	0	34.3230	0	27.318	0	893.347	0	11.8	4	3.7	4	-1E+10	1	-1E+10	1	-1E+10	1	-1E+10	1	-1E+10	1	-1E+10	1
4902551	80	C	10/30/2022	00:08	-131.522	48.392	0	907.90	0	3.3480	0	34.3240	0	27.319	0	898.284	0	11.8	4	3.7	4	-1E+10	1	-1E+10	1	-1E+10	1	-1E+10	1	-1E+10	1	-1E+10	1
4902551	80	C	10/30/2022	00:08	-131.522	48.392	0	912.60	0	3.3400	0	34.3250	0	27.321	0	902.924	0	11.8	4	3.7	4	-1E+10	1	-1E+10	1	-1E+10	1	-1E+10	1	-1E+10	1	-1E+10	1
4902551	80	C	10/30/2022	00:08	-131.522	48.392	0	917.70	0	3.3260	0	34.3290	0	27.325	0	907.959	0	11.8	4	3.7	4	-1E+10	1	-1E+10	1	-1E+10	1	-1E+10	1	-1E+10	1	-1E+10	1
4902551	80	C	10/30/2022	00:08	-131.522	48.392	0	922.90	0	3.3210	0	34.3300	0	27.327	0	913.092	0	11.8	4	3.7	4	-1E+10	1	-1E+10	1	-1E+10	1	-1E+10	1	-1E+10	1	-1E+10	1
4902551	80	C	10/30/2022	00:08	-131.522	48.392	0	928.00	0	3.3110	0	34.3310	0	27.328	0	918.127	0	11.8	4	3.7	4	-1E+10	1	-1E+10	1	-1E+10	1	-1E+10	1	-1E+10	1	-1E+10	1
4902551	80	C	10/30/2022	00:08	-131.522	48.392	0	932.90	0	3.2960	0	34.3340	0	27.332	0	922.964	0	11.7	4	3.6	4	-1E+10	1	-1E+10	1	-1E+10	1	-1E+10	1	-1E+10	1	-1E+10	1
4902551	80	C	10/30/2022	00:08	-131.522	48.392	0	937.70	0	3.2880	0	34.3360	0	27.335	0	927.702	0	11.7	4	3.6	4	-1E+10	1	-1E+10	1	-1E+10	1	-1E+10	1	-1E+10	1	-1E+10	1
4902551	80	C	10/30/2022	00:08	-131.522	48.392	0	943.00	0	3.2710	0	34.3390	0	27.339	0	932.934	0	11.7	4	3.6	4	-1E+10	1	-1E+10	1	-1E+10	1	-1E+10	1	-1E+10	1	-1E+10	1
4902551	80	C	10/30/2022	00:08	-131.522	48.392	0	948.00	0	3.2570	0	34.3410	0	27.341	0	937.869	0	11.8	4	3.7	4	-1E+10	1	-1E+10	1	-1E+10	1	-1E+10	1	-1E+10	1	-1E+10	1
4902551	80	C	10/30/2022	00:08	-131.522	48.392	0	952.60	0	3.2400	0	34.3430	0	27.345	0	942.410	0	11.8	4	3.7	4	-1E+10	1	-1E+10	1	-1E+10	1	-1E+10	1	-1E+10	1	-1E+10	1
4902551	80	C	10/30/2022	00:08	-131.522	48.392	0	957.80	0	3.2270	0	34.3460	0	27.348	0	947.542	0	11.8	4	3.7	4	-1E+10	1	-1E+10	1	-1E+10	1	-1E+10	1	-1E+10	1	-1E+10	1
4902551	80	C	10/30/2022	00:08	-131.522	48.392	0	963.10	0	3.2160	0	34.3470	0	27.350	0	952.774	0	11.8	4	3.7	4	-1E+10	1	-1E+10	1	-1E+10	1	-1E+10	1	-1E+10	1	-1E+10	1
4902551	80	C	10/30/2022	00:08	-131.522	48.392	0	967.90	0	3.2040	0	34.3490	0	27.353	0	957.511	0	11.8	4	3.7	4	-1E+10	1	-1E+10	1	-1E+10	1	-1E+10	1	-1E+10	1	-1E+10	1
4902551	80	C	10/30/2022	00:08	-131.522	48.392	0	972.80	0	3.1920	0	34.3510	0	27.356	0	962.347	0	11.8	4	3.7	4	-1E+10	1	-1E+10	1	-1E+10	1	-1E+10	1	-1E+10	1	-1E+10	1
4902551	80	C	10/30/2022	00:08	-131.522	48.392	0	977.60	0	3.1810	0	34.3540	0	27.359	0	967.085	0	11.8	4	3.6	4	-1E+10	1	-1E+10	1	-1E+10	1	-1E+10	1	-1E+10	1	-1E+10	1
4902551	80	C	10/30/2022	00:08	-131.522	48.392	0	982.50	0	3.1730	0	34.3560	0	27.361	0	971.921	0	11.8	4	3.6	4	-1E+10	1	-1E+10	1	-1E+10	1	-1E+10	1	-1E+10	1	-1E+10	1
4902551	80	C	10/30/2022	00:08	-131.522	48.392	0	987.50	0	3.1580	0	34.3590	0	27.365	0	976.855	0	11.8	4	3.7	4	-1E+10	1	-1E+10	1	-1E+10	1	-1E+10	1	-1E+10	1	-1E+10	1
4902551	80	C	10/30/2022	00:08	-131.522	48.392	0	992.50	0	3.1450	0	34.3610	0	27.368	0	981.790	0	11.8	4	3.7	4	-1E+10	1	-1E+10	1	-1E+10	1	-1E+10	1	-1E+10	1	-1E+10	1
4902551	80	C	10/30/2022	00:08	-131.522	48.392	0	997.50	0	3.1340	0	34.3640	0	27.371	0	986.724	0	11.8	4	3.7	4	-1E+10	1	-1E+10	1	-1E+10	1	-1E+10	1	-1E+10	1	-1E+10	1
4902551	80	C	10/30/2022	00:08	-131.522	48.392	0	1005.00	0	3.1270	0	34.3650	0	27.373	0	994.125	0	11.8	4	3.7	4	-1E+10	1	-1E+10	1	-1E+10	1	-1E+10	1	-1E+10	1	-1E+10	1
4902551	80	C	10/30/2022	00:08	-131.522	48.392	0	1015.30	0	3.1080	0	34.3690	0	27.378	0	1004.289	0	11.8	4	3.7	4	-1E+10	1	-1E+10	1	-1E+10	1	-1E+10	1	-1E+10	1	-1E+10	1
4902551	80	C	10/30/2022	00:08	-131.522	48.392	0	1025.40	0	3.0860	0	34.3730	0	27.383	0	1014.255	0	11.9	4	3.7	4	-1E+10	1	-1E+10	1	-1E+10	1	-1E+10	1	-1E+10	1	-1E+10	1
4902551	80	C	10/30/2022	00:08	-131.522	48.392	0	1035.30	0	3.0760	0	34.3750	0	27.386	0	1024.023	0	11.9	4	3.7	4	-1E+10	1	-1E+10	1	-1E+10	1	-1E+10	1	-1E+10	1	-1E+10	1
4902551	80	C	10/30/2022	00:08	-131.522	48.392	0	1045.40	0	3.0660	0	34.3770	0	27.388	0	1033.988	0	11.9	4	3.7	4	-1E+10	1	-1E+10	1	-1E+10	1	-1E+10	1	-1E+10	1	-1E+10	1
4902551	80	C	10/30/2022	00:08	-131.522	48.392	0	1055.70	0	3.0530	0	34.3790	0	27.391	0	1044.150	0	12.0	4	3.7	4	-1E+10	1	-1E+10	1	-1E+10	1	-1E+10	1	-1E+10	1	-1E+10	1
4902551	80	C	10/30/2022	00:08	-131.522	48.392	0	1065.70	0	3.0350	0	34.3820	0	27.395	0	1054.016	0	12.0	4	3.7	4	-1E+10	1	-1E+10	1	-1E+10	1	-1E+10	1	-1E+10	1	-1E+10	1
4902551	80	C	10/30/2022	00:08	-131.522	48.392	0	1075.50	0	3.0170	0	34.3860	0	27.400	0	1063.683	0	12.1	4	3.7	4	-1E+10	1	-1E+10	1	-1E+10	1	-1E+10	1	-1E+10	1	-1E+10	1
4902551	80	C	10/30/2022	00:08	-131.522	48.392	0	1085.40	0	3.0070	0	34.3890	0	27.403	0	1073.449	0	12.3	4	3.8	4	-1E+10	1	-1E+10	1	-1E+10	1	-1E+10	1	-1E+10	1	-1E+10	1
4902551	80	C	10/30/2022	00:08	-131.522	48.392	0	1095.30	0	3.0040	0	34.3940	0	27.408	0	1083.215	0	12.4	4	3.8	4	-1E+10	1	-1E+10	1	-1E+10	1	-1E+10	1	-1E+10	1	-1E+10	1
4902551	80	C	10/30/2022	00:08	-131.522	48.392	0	1105.40	0	2.9820	0	34.3960	0	27.411	0	1093.177	0	12.4	4	3.8	4	-1E+10	1	-1E+10	1	-1E+10	1	-1E+10	1	-1E+10	1	-1E+10	1
4902551	80	C	10/30/2022	00:08	-131.522	48.392	0	1115.50	0	2.9510	0	34.3980	0	27.416	0	1103.139	0	12.5	4	3.9	4	-1E+10	1	-1E+10	1	-1E+10	1	-1E+10	1	-1E+10	1	-1E+10	1
4902551	80	C	10/30/2022	00:08	-131.522	48.392	0	1125.20	0	2.9390	0	34.4040	0	27.422	0	1112.706	0	12.8	4	3.9	4	-1E+10	1	-1E+10	1	-1E+10	1	-1E+10	1	-1E+10	1	-1E+10	1
4902551	80	C	10/30/2022	00:08	-131.522	48.392	0	1135.30	0	2.9230	0	34.4080	0	27.426	0	1122.667	0	12.9	4	4.0	4	-1E+10	1	-1E+10	1	-1E+10	1	-1E+10	1	-1E+10	1	-1E+10	1
4902551	80	C	10/30/2022	00:08	-131.522	48.392	0	1145.70	0	2.9020	0	34.4100	0	27.430	0	1132.923	0	12.9	4	4.0	4	-1E+10	1	-1E+10	1	-1E+10	1	-1E+10	1	-1E+10	1	-1E+10	1
4902551	80	C	10/30/2022	00:08	-131.522	48.392	0	1155.70	0	2.8870	0	34.4120	0	27.433	0	1142.784	0	13.0	4	4.0	4	-1E+10	1	-1E+10	1	-1E+10	1	-1E+10	1	-1E+10	1	-1E+10	1
4902551	80	C	10/30/2022	00:08	-131.522	48.392	0	1165.50	0	2.8700	0	34.4150	0	27.437	0	1152.448	0	13.3	4	4.1	4	-1E+10	1	-1E+10	1	-1E+10	1	-1E+10	1	-1E+10	1	-1E+10	1
4902551	80	C	10/30/2022	00:08	-131.522	48.392	0	1175.60	0	2.8570	0	34.4180	0	27.441	0	1162.407	0	13.5	4	4.2	4	-1E+10	1	-1E+10	1	-1E+10	1	-1E+10	1	-1E+10	1	-1E+10	1
4902551	80	C	10/30/2022	00:08	-131.522	48.392	0	1185.60	0	2.8400	0	34.4220	0	27.445	0	1172.267	0	13.7	4	4.2	4	-1E+10	1	-1E+10	1	-1E+10	1	-1E+10	1	-1E+10	1	-1E+10	1
4902551	80	C	10/30/2022	00:08	-131.522	48.392	0	1195.30	0	2.8230	0	34.4250	0	27.449	0	1181.830	0	13.9	4	4.3	4	-1E+10	1	-1E+10	1	-1E+10	1	-1E+10	1	-1E+10	1	-1E+10	1
4902551	80	C	10/30/2022	00:08	-131.522	48.392	0	1205.00	0	2.8090	0	34.4270	0	27.452	0	1191.393	0	14.0	4	4.3	4	-1E+10	1	-1E+10	1	-1E+10	1	-1E+10	1	-1E+10	1	-1E+10	1
4902551	80	C	10/30/2022	00:08	-131.522	48.392	0	1214.90	0	2.7970	0	34.4290	0	27.455	0	1201.153	0	14.2	4	4.4	4	-1E+10	1	-1E+10	1	-1E+10	1	-1E+10	1	-1E+10	1	-1E+10	1
4902551	80	C	10/30/2022	00:08	-131.522	48.392	0	1225.00	0	2.7800	0	34.4320	0	27.459	0	1211.110	0	14.4	4	4.4	4	-1E+10	1	-1E+10	1	-1E+10	1	-1E+10	1	-1E+10	1	-1E+10	1
4902551	80	C	10/30/2022	00:08	-131.522	48.392	0	1235.10	0	2.7610	0	34.4350	0	27.463	0	1221.066	0	14.7	4	4.5	4	-1E+10	1	-1E+10	1	-1E+10	1	-1E+10	1	-1E+10	1	-1E+10	1
4902551	80	C	10/30/2022	00:08	-131.522	48.392	0	1245.20	0	2.7380	0	34.4390	0	27.468	0	1231.022	0	15.0	4	4.6	4	-1E+10	1	-1E+10	1	-1E+10	1	-1E+10	1	-1E+10	1	-1E+10	1
4902551	80	C	10/30/2022	00:08	-131.522	48.392	0	1255.30	0	2.7230	0	34.4420	0	27.472	0	1240.977	0	15.4	4	4.7	4	-1E+10	1	-1E+10	1	-1E+10	1	-1E+10	1	-1E+10	1	-1E+10	1
4902551	80	C	10/30/2022	00:08	-131.522	48.392	0	1265.50	0	2.7140	0	34.4450	0	27.475	0	1251.031	0	15.7	4	4.8	4	-1E+10	1	-1E+10	1	-1E+10	1	-1E+10	1	-1E+10	1	-1E+10	1
4902551	80	C	10/30/2022	00:08	-131.522	48.392	0	1275.50	0	2.6860	0	34.4490	0	27.481	0	1260.886	0	16.1	4	4.9	4	-1E+10	1	-1E+10	1	-1E+10	1	-1E+10	1	-1E+10	1	-1E+10	1
4902551	80	C	10/30/2022	00:08	-131.522	48.392	0	1285.60	0	2.6650	0	34.4530	0	27.486	0	1270.840	0	16.5	4	5.0	4	-1E+10	1	-1E+10	1	-1E+10	1	-1E+10	1	-1E+10	1	-1E+10	1
4902551	80	C	10/30/2022	00:08	-131.522	48.392	0	1295.50	0	2.6510	0	34.4560	0	27.490	0	1280.596	0	17.0	4	5.2	4	-1E+10	1	-1E+10	1	-1E+10	1	-1E+10	1	-1E+10	1	-1E+10	1
4902551	80	C	10/30/2022	00:08	-131.522	48.392	0	1305.30	0	2.6370	0	34.4590	0	27.493	0	1290.254	0	17.5	4	5.3	4	-1E+10	1	-1E+10	1	-1E+10	1	-1E+10	1	-1E+10	1	-1E+10	1
4902551	80	C	10/30/2022	00:08	-131.522	48.392	0	1315.30	0	2.6160	0	34.4630	0	27.498	0	1300.108	0	17.9	4	5.5	4	-1E+10	1	-1E+10	1	-1E+10	1	-1E+10	1	-1E+10	1	-1E+10	1
4902551	80	C	10/30/2022	00:08	-131.522	48.392	0	1325.20	0	2.5940	0	34.4670	0	27.503	0	1309.862	0	18.4	4	5.6	4	-1E+10	1	-1E+10	1	-1E+10	1	-1E+10	1	-1E+10	1	-1E+10	1
4902551	80	C	10/30/2022	00:08	-131.522	48.392	0	1335.40	0	2.5730	0	34.4700	0	27.508	0	1319.912	0	18.8	4	5.7	4	-1E+10	1	-1E+10	1	-1E+10	1	-1E+10	1	-1E+10	1	-1E+10	1
4902551	80	C	10/30/2022	00:08	-131.522	48.392	0	1345.40	0	2.5550	0	34.4730	0	27.512	0	1329.765	0	19.2	4	5.9	4	-1E+10	1	-1E+10	1	-1E+10	1	-1E+10	1	-1E+10	1	-1E+10	1
4902551	80	C	10/30/2022	00:08	-131.522	48.392	0	1355.30	0	2.5400	0	34.4760	0	27.515	0	1339.518	0	19.6	4	6.0	4	-1E+10	1	-1E+10	1	-1E+10	1	-1E+10	1	-1E+10	1	-1E+10	1
4902551	80	C	10/30/2022	00:08	-131.522	48.392	0	1365.40	0	2.5230	0	34.4780	0	27.518	0	1349.469	0	19.8	4	6.1	4	-1E+10	1	-1E+10	1	-1E+10	1	-1E+10	1	-1E+10	1	-1E+10	1
4902551	80	C	10/30/2022	00:08	-131.522	48.392	0	1375.30	0	2.5100	0	34.4790	0	27.520	0	1359.221	0	20.4	4	6.2	4	-1E+10	1	-1E+10	1	-1E+10	1	-1E+10	1	-1E+10	1	-1E+10	1
4902551	80	C	10/30/2022	00:08	-131.522	48.392	0	1385.50	0	2.4960	0	34.4830	0	27.525	0	1369.269	0	21.1	4	6.4	4	-1E+10	1	-1E+10	1	-1E+10	1	-1E+10	1	-1E+10	1	-1E+10	1
4902551	80	C	10/30/2022	00:08	-131.522	48.392	0	1395.80	0	2.4830	0	34.4860	0	27.528	0	1379.414	0	21.7	4	6.6	4	-1E+10	1	-1E+10	1	-1E+10	1	-1E+10	1	-1E+10	1	-1E+10	1
4902551	80	C	10/30/2022	00:08	-131.522	48.392	0	1405.80	0	2.4690	0	34.4890	0	27.532	0	1389.264	0	22.2	4	6.8	4	-1E+10	1	-1E+10	1	-1E+10	1	-1E+10	1	-1E+10	1	-1E+10	1
4902551	80	C	10/30/2022	00:08	-131.522	48.392	0	1415.50	0	2.4600	0	34.4900	0	27.533	0	1398.818	0	22.6	4	6.9	4	-1E+10	1	-1E+10	1	-1E+10	1	-1E+10	1	-1E+10	1	-1E+10	1
4902551	80	C	10/30/2022	00:08	-131.522	48.392	0	1425.20	0	2.4480	0	34.4920	0	27.536	0	1408.371	0	23.1	4	7.0	4	-1E+10	1	-1E+10	1	-1E+10	1	-1E+10	1	-1E+10	1	-1E+10	1
4902551	80	C	10/30/2022	00:08	-131.522	48.392	0	1435.40	0	2.4390	0	34.4940	0	27.539	0	1418.417	0	23.5	4	7.2	4	-1E+10	1	-1E+10	1	-1E+10	1	-1E+10	1	-1E+10	1	-1E+10	1
4902551	80	C	10/30/2022	00:08	-131.522	48.392	0	1445.60	0	2.4310	0	34.4960	0	27.541	0	1428.461	0	23.8	4	7.3	4	-1E+10	1	-1E+10	1	-1E+10	1	-1E+10	1	-1E+10	1	-1E+10	1
4902551	80	C	10/30/2022	00:08	-131.522	48.392	0	1455.50	0	2.4180	0	34.4980	0	27.544	0	1438.210	0	24.1	4	7.4	4	-1E+10	1	-1E+10	1	-1E+10	1	-1E+10	1	-1E+10	1	-1E+10	1
4902551	80	C	10/30/2022	00:08	-131.522	48.392	0	1465.20	0	2.4070	0	34.4990	0	27.545	0	1447.762	0	24.4	4	7.4	4	-1E+10	1	-1E+10	1	-1E+10	1	-1E+10	1	-1E+10	1	-1E+10	1
4902551	80	C	10/30/2022	00:08	-131.522	48.392	0	1475.50	0	2.3980	0	34.5010	0	27.548	0	1457.904	0	24.8	4	7.5	4	-1E+10	1	-1E+10	1	-1E+10	1	-1E+10	1	-1E+10	1	-1E+10	1
4902551	80	C	10/30/2022	00:08	-131.522	48.392	0	1485.80	0	2.3880	0	34.5020	0	27.549	0	1468.045	0	25.1	4	7.7	4	-1E+10	1	-1E+10	1	-1E+10	1	-1E+10	1	-1E+10	1	-1E+10	1
4902551	80	C	10/30/2022	00:08	-131.522	48.392	0	1495.80	0	2.3780	0	34.5040	0	27.552	0	1477.891	0	25.5	4	7.8	4	-1E+10	1	-1E+10	1	-1E+10	1	-1E+10	1	-1E+10	1	-1E+10	1
4902551	80	C	10/30/2022	00:08	-131.522	48.392	0	1505.70	0	2.3690	0	34.5050	0	27.554	0	1487.637	0	25.8	4	7.8	4	-1E+10	1	-1E+10	1	-1E+10	1	-1E+10	1	-1E+10	1	-1E+10	1
4902551	80	C	10/30/2022	00:08	-131.522	48.392	0	1515.60	0	2.3610	0	34.5070	0	27.556	0	1497.384	0	26.3	4	8.0	4	-1E+10	1	-1E+10	1	-1E+10	1	-1E+10	1	-1E+10	1	-1E+10	1
4902551	80	C	10/30/2022	00:08	-131.522	48.392	0	1525.60	0	2.3480	0	34.5090	0	27.559	0	1507.228	0	26.8	4	8.1	4	-1E+10	1	-1E+10	1	-1E+10	1	-1E+10	1	-1E+10	1	-1E+10	1
4902551	80	C	10/30/2022	00:08	-131.522	48.392	0	1535.60	0	2.3410	0	34.5100	0	27.560	0	1517.071	0	27.2	4	8.3	4	-1E+10	1	-1E+10	1	-1E+10	1	-1E+10	1	-1E+10	1	-1E+10	1
4902551	80	C	10/30/2022	00:08	-131.522	48.392	0	1545.70	0	2.3310	0	34.5120	0	27.562	0	1527.013	0	27.7	4	8.4	4	-1E+10	1	-1E+10	1	-1E+10	1	-1E+10	1	-1E+10	1	-1E+10	1
4902551	80	C	10/30/2022	00:08	-131.522	48.392	0	1555.50	0	2.3210	0	34.5140	0	27.565	0	1536.659	0	28.3	4	8.6	4	-1E+10	1	-1E+10	1	-1E+10	1	-1E+10	1	-1E+10	1	-1E+10	1
4902551	80	C	10/30/2022	00:08	-131.522	48.392	0	1565.20	0	2.3100	0	34.5160	0	27.567	0	1546.206	0	29.0	4	8.8	4	-1E+10	1	-1E+10	1	-1E+10	1	-1E+10	1	-1E+10	1	-1E+10	1
4902551	80	C	10/30/2022	00:08	-131.522	48.392	0	1575.40	0	2.3000	0	34.5180	0	27.570	0	1556.245	0	29.7	4	9.0	4	-1E+10	1	-1E+10	1	-1E+10	1	-1E+10	1	-1E+10	1	-1E+10	1
4902551	80	C	10/30/2022	00:08	-131.522	48.392	0	1585.40	0	2.2880	0	34.5200	0	27.573	0	1566.086	0	30.4	4	9.2	4	-1E+10	1	-1E+10	1	-1E+10	1	-1E+10	1	-1E+10	1	-1E+10	1
4902551	80	C	10/30/2022	00:08	-131.522	48.392	0	1595.60	0	2.2680	0	34.5230	0	27.577	0	1576.124	0	31.2	4	9.5	4	-1E+10	1	-1E+10	1	-1E+10	1	-1E+10	1	-1E+10	1	-1E+10	1
4902551	80	C	10/30/2022	00:08	-131.522	48.392	0	1605.50	0	2.2560	0	34.5250	0	27.579	0	1585.866	0	31.7	4	9.6	4	-1E+10	1	-1E+10	1	-1E+10	1	-1E+10	1	-1E+10	1	-1E+10	1
4902551	80	C	10/30/2022	00:08	-131.522	48.392	0	1615.40	0	2.2450	0	34.5280	0	27.583	0	1595.608	0	32.3	4	9.8	4	-1E+10	1	-1E+10	1	-1E+10	1	-1E+10	1	-1E+10	1	-1E+10	1
4902551	80	C	10/30/2022	00:08	-131.522	48.392	0	1625.50	0	2.2340	0	34.5290	0	27.584	0	1605.546	0	33.1	4	10.0	4	-1E+10	1	-1E+10	1	-1E+10	1	-1E+10	1	-1E+10	1	-1E+10	1
4902551	80	C	10/30/2022	00:08	-131.522	48.392	0	1635.20	0	2.2190	0	34.5320	0	27.588	0	1615.090	0	33.9	4	10.3	4	-1E+10	1	-1E+10	1	-1E+10	1	-1E+10	1	-1E+10	1	-1E+10	1
4902551	80	C	10/30/2022	00:08	-131.522	48.392	0	1645.50	0	2.2090	0	34.5340	0	27.590	0	1625.224	0	34.6	4	10.5	4	-1E+10	1	-1E+10	1	-1E+10	1	-1E+10	1	-1E+10	1	-1E+10	1
4902551	80	C	10/30/2022	00:08	-131.522	48.392	0	1655.80	0	2.1970	0	34.5360	0	27.593	0	1635.357	0	35.1	4	10.6	4	-1E+10	1	-1E+10	1	-1E+10	1	-1E+10	1	-1E+10	1	-1E+10	1
4902551	80	C	10/30/2022	00:08	-131.522	48.392	0	1665.40	0	2.1920	0	34.5370	0	27.594	0	1644.801	0	35.5	4	10.7	4	-1E+10	1	-1E+10	1	-1E+10	1	-1E+10	1	-1E+10	1	-1E+10	1
4902551	80	C	10/30/2022	00:08	-131.522	48.392	0	1675.00	0	2.1840	0	34.5380	0	27.596	0	1654.245	0	36.1	4	10.9	4	-1E+10	1	-1E+10	1	-1E+10	1	-1E+10	1	-1E+10	1	-1E+10	1
4902551	80	C	10/30/2022	00:08	-131.522	48.392	0	1685.10	0	2.1740	0	34.5400	0	27.598	0	1664.180	0	36.6	4	11.1	4	-1E+10	1	-1E+10	1	-1E+10	1	-1E+10	1	-1E+10	1	-1E+10	1
4902551	80	C	10/30/2022	00:08	-131.522	48.392	0	1695.10	0	2.1660	0	34.5410	0	27.600	0	1674.017	0	37.4	4	11.3	4	-1E+10	1	-1E+10	1	-1E+10	1	-1E+10	1	-1E+10	1	-1E+10	1
4902551	80	C	10/30/2022	00:08	-131.522	48.392	0	1705.70	0	2.1490	0	34.5450	0	27.604	0	1684.443	0	38.5	4	11.6	4	-1E+10	1	-1E+10	1	-1E+10	1	-1E+10	1	-1E+10	1	-1E+10	1
4902551	80	C	10/30/2022	00:08	-131.522	48.392	0	1715.40	0	2.1370	0	34.5470	0	27.607	0	1693.983	0	39.0	4	11.8	4	-1E+10	1	-1E+10	1	-1E+10	1	-1E+10	1	-1E+10	1	-1E+10	1
4902551	80	C	10/30/2022	00:08	-131.522	48.392	0	1725.40	0	2.1300	0	34.5480	0	27.608	0	1703.818	0	39.5	4	11.9	4	-1E+10	1	-1E+10	1	-1E+10	1	-1E+10	1	-1E+10	1	-1E+10	1
4902551	80	C	10/30/2022	00:08	-131.522	48.392	0	1735.60	0	2.1230	0	34.5490	0	27.610	0	1713.849	0	40.0	4	12.1	4	-1E+10	1	-1E+10	1	-1E+10	1	-1E+10	1	-1E+10	1	-1E+10	1
4902551	80	C	10/30/2022	00:08	-131.522	48.392	0	1745.50	0	2.1170	0	34.5500	0	27.611	0	1723.585	0	40.6	4	12.3	4	-1E+10	1	-1E+10	1	-1E+10	1	-1E+10	1	-1E+10	1	-1E+10	1
4902551	80	C	10/30/2022	00:08	-131.522	48.392	0	1755.60	0	2.1060	0	34.5520	0	27.614	0	1733.517	0	41.4	4	12.5	4	-1E+10	1	-1E+10	1	-1E+10	1	-1E+10	1	-1E+10	1	-1E+10	1
4902551	80	C	10/30/2022	00:08	-131.522	48.392	0	1765.40	0	2.0940	0	34.5540	0	27.616	0	1743.154	0	42.1	4	12.7	4	-1E+10	1	-1E+10	1	-1E+10	1	-1E+10	1	-1E+10	1	-1E+10	1
4902551	80	C	10/30/2022	00:08	-131.522	48.392	0	1775.40	0	2.0800	0	34.5560	0	27.619	0	1752.986	0	42.8	4	12.9	4	-1E+10	1	-1E+10	1	-1E+10	1	-1E+10	1	-1E+10	1	-1E+10	1
4902551	80	C	10/30/2022	00:08	-131.522	48.392	0	1785.70	0	2.0730	0	34.5580	0	27.621	0	1763.114	0	43.3	4	13.1	4	-1E+10	1	-1E+10	1	-1E+10	1	-1E+10	1	-1E+10	1	-1E+10	1
4902551	80	C	10/30/2022	00:08	-131.522	48.392	0	1795.60	0	2.0640	0	34.5590	0	27.623	0	1772.847	0	44.0	4	13.3	4	-1E+10	1	-1E+10	1	-1E+10	1	-1E+10	1	-1E+10	1	-1E+10	1
4902551	80	C	10/30/2022	00:08	-131.522	48.392	0	1805.30	0	2.0590	0	34.5610	0	27.625	0	1782.384	0	44.4	4	13.4	4	-1E+10	1	-1E+10	1	-1E+10	1	-1E+10	1	-1E+10	1	-1E+10	1
4902551	80	C	10/30/2022	00:08	-131.522	48.392	0	1815.20	0	2.0520	0	34.5620	0	27.626	0	1792.116	0	45.1	4	13.6	4	-1E+10	1	-1E+10	1	-1E+10	1	-1E+10	1	-1E+10	1	-1E+10	1
4902551	80	C	10/30/2022	00:08	-131.522	48.392	0	1825.40	0	2.0420	0	34.5640	0	27.629	0	1802.143	0	45.7	4	13.8	4	-1E+10	1	-1E+10	1	-1E+10	1	-1E+10	1	-1E+10	1	-1E+10	1
4902551	80	C	10/30/2022	00:08	-131.522	48.392	0	1835.30	0	2.0330	0	34.5650	0	27.630	0	1811.875	0	46.3	4	14.0	4	-1E+10	1	-1E+10	1	-1E+10	1	-1E+10	1	-1E+10	1	-1E+10	1
4902551	80	C	10/30/2022	00:08	-131.522	48.392	0	1845.30	0	2.0260	0	34.5670	0	27.632	0	1821.704	0	47.0	4	14.2	4	-1E+10	1	-1E+10	1	-1E+10	1	-1E+10	1	-1E+10	1	-1E+10	1
4902551	80	C	10/30/2022	00:08	-131.522	48.392	0	1855.30	0	2.0180	0	34.5680	0	27.634	0	1831.534	0	47.6	4	14.3	4	-1E+10	1	-1E+10	1	-1E+10	1	-1E+10	1	-1E+10	1	-1E+10	1
4902551	80	C	10/30/2022	00:08	-131.522	48.392	0	1865.50	0	2.0130	0	34.5690	0	27.635	0	1841.559	0	47.8	4	14.4	4	-1E+10	1	-1E+10	1	-1E+10	1	-1E+10	1	-1E+10	1	-1E+10	1
4902551	80	C	10/30/2022	00:08	-131.522	48.392	0	1875.60	0	2.0090	0	34.5700	0	27.636	0	1851.485	0	48.1	4	14.5	4	-1E+10	1	-1E+10	1	-1E+10	1	-1E+10	1	-1E+10	1	-1E+10	1
4902551	80	C	10/30/2022	00:08	-131.522	48.392	0	1885.60	0	2.0050	0	34.5710	0	27.638	0	1861.313	0	48.8	4	14.7	4	-1E+10	1	-1E+10	1	-1E+10	1	-1E+10	1	-1E+10	1	-1E+10	1
4902551	80	C	10/30/2022	00:08	-131.522	48.392	0	1895.30	0	1.9960	0	34.5720	0	27.639	0	1870.845	0	49.5	4	14.9	4	-1E+10	1	-1E+10	1	-1E+10	1	-1E+10	1	-1E+10	1	-1E+10	1
4902551	80	C	10/30/2022	00:08	-131.522	48.392	0	1905.40	0	1.9910	0	34.5730	0	27.640	0	1880.770	0	50.0	4	15.1	4	-1E+10	1	-1E+10	1	-1E+10	1	-1E+10	1	-1E+10	1	-1E+10	1
4902551	80	C	10/30/2022	00:08	-131.522	48.392	0	1915.30	0	1.9880	0	34.5740	0	27.641	0	1890.498	0	50.3	4	15.2	4	-1E+10	1	-1E+10	1	-1E+10	1	-1E+10	1	-1E+10	1	-1E+10	1
4902551	80	C	10/30/2022	00:08	-131.522	48.392	0	1925.30	0	1.9840	0	34.5750	0	27.643	0	1900.324	0	50.8	4	15.3	4	-1E+10	1	-1E+10	1	-1E+10	1	-1E+10	1	-1E+10	1	-1E+10	1
4902551	80	C	10/30/2022	00:08	-131.522	48.392	0	1935.40	0	1.9790	0	34.5760	0	27.644	0	1910.248	0	51.3	4	15.4	4	-1E+10	1	-1E+10	1	-1E+10	1	-1E+10	1	-1E+10	1	-1E+10	1
4902551	80	C	10/30/2022	00:08	-131.522	48.392	0	1945.30	0	1.9720	0	34.5770	0	27.645	0	1919.975	0	51.9	4	15.6	4	-1E+10	1	-1E+10	1	-1E+10	1	-1E+10	1	-1E+10	1	-1E+10	1
4902551	80	C	10/30/2022	00:08	-131.522	48.392	0	1955.30	0	1.9660	0	34.5790	0	27.647	0	1929.799	0	52.4	4	15.8	4	-1E+10	1	-1E+10	1	-1E+10	1	-1E+10	1	-1E+10	1	-1E+10	1
4902551	80	C	10/30/2022	00:08	-131.522	48.392	0	1965.40	0	1.9600	0	34.5800	0	27.649	0	1939.722	0	53.1	4	16.0	4	-1E+10	1	-1E+10	1	-1E+10	1	-1E+10	1	-1E+10	1	-1E+10	1
4902551	80	C	10/30/2022	00:08	-131.522	48.392	0	1975.60	0	1.9500	0	34.5820	0	27.651	0	1949.742	0	53.8	4	16.2	4	-1E+10	1	-1E+10	1	-1E+10	1	-1E+10	1	-1E+10	1	-1E+10	1
4902551	80	C	10/30/2022	00:08	-131.522	48.392	0	1985.80	0	1.9450	0	34.5830	0	27.652	0	1959.761	0	54.2	4	16.3	4	-1E+10	1	-1E+10	1	-1E+10	1	-1E+10	1	-1E+10	1	-1E+10	1
4902551	80	C	10/30/2022	00:08	-131.522	48.392	0	1996.10	0	1.9400	0	34.5840	0	27.654	0	1969.879	0	54.5	4	16.4	4	-1E+10	1	-1E+10	1	-1E+10	1	-1E+10	1	-1E+10	1	-1E+10	1
4902551	80	C	10/30/2022	00:08	-131.522	48.392	0	2001.80	0	1.9370	0	34.5850	0	27.655	0	1975.477	0	54.5	4	16.4	4	-1E+10	1	-1E+10	1	-1E+10	1	-1E+10	1	-1E+10	1	-1E+10	1
4902551	80	C	10/30/2022	00:08	-131.522	48.392	0																										
4902551	81	C	11/09/2022	05:02	-131.524	48.326	0	0.20	0	12.4620	0	32.3440	0	24.441	0	0.198	0	253.9	4	95.6	4	-1E+10	1	-1E+10	1	-1E+10	1	-1E+10	1	-1E+10	1	-1E+10	1
4902551	81	C	11/09/2022	05:02	-131.524	48.326	0	0.30	0	12.4690	0	32.3340	0	24.431	0	0.297	0	-1e10	1	-1e10	1	-1E+10	1	-1E+10	1	-1E+10	1	-1E+10	1	-1E+10	1	-1E+10	1
4902551	81	C	11/09/2022	05:02	-131.524	48.326	0	0.40	0	12.4810	0	32.3340	0	24.429	0	0.397	0	247.7	4	93.3	4	-1E+10	1	-1E+10	1	-1E+10	1	-1E+10	1	-1E+10	1	-1E+10	1
4902551	81	C	11/09/2022	05:02	-131.524	48.326	0	1.10	0	12.4680	0	32.3470	0	24.442	0	1.091	0	247.6	4	93.2	4	-1E+10	1	-1E+10	1	-1E+10	1	-1E+10	1	-1E+10	1	-1E+10	1
4902551	81	C	11/09/2022	05:02	-131.524	48.326	0	1.90	0	12.4750	0	32.3420	0	24.437	0	1.884	0	247.7	4	93.3	4	-1E+10	1	-1E+10	1	-1E+10	1	-1E+10	1	-1E+10	1	-1E+10	1
4902551	81	C	11/09/2022	05:02	-131.524	48.326	0	3.30	0	12.4820	0	32.3370	0	24.431	0	3.272	0	247.7	4	93.3	4	-1E+10	1	-1E+10	1	-1E+10	1	-1E+10	1	-1E+10	1	-1E+10	1
4902551	81	C	11/09/2022	05:02	-131.524	48.326	0	4.00	0	12.4810	0	32.3380	0	24.432	0	3.966	0	247.7	4	93.2	4	-1E+10	1	-1E+10	1	-1E+10	1	-1E+10	1	-1E+10	1	-1E+10	1
4902551	81	C	11/09/2022	05:02	-131.524	48.326	0	5.00	0	12.4820	0	32.3390	0	24.433	0	4.958	0	247.6	4	93.2	4	-1E+10	1	-1E+10	1	-1E+10	1	-1E+10	1	-1E+10	1	-1E+10	1
4902551	81	C	11/09/2022	05:02	-131.524	48.326	0	5.90	0	12.4810	0	32.3390	0	24.433	0	5.850	0	247.7	4	93.3	4	-1E+10	1	-1E+10	1	-1E+10	1	-1E+10	1	-1E+10	1	-1E+10	1
4902551	81	C	11/09/2022	05:02	-131.524	48.326	0	6.80	0	12.4810	0	32.3390	0	24.433	0	6.743	0	247.6	4	93.2	4	-1E+10	1	-1E+10	1	-1E+10	1	-1E+10	1	-1E+10	1	-1E+10	1
4902551	81	C	11/09/2022	05:02	-131.524	48.326	0	7.90	0	12.4820	0	32.3390	0	24.433	0	7.833	0	247.7	4	93.3	4	-1E+10	1	-1E+10	1	-1E+10	1	-1E+10	1	-1E+10	1	-1E+10	1
4902551	81	C	11/09/2022	05:02	-131.524	48.326	0	8.80	0	12.4820	0	32.3380	0	24.432	0	8.726	0	247.6	4	93.2	4	-1E+10	1	-1E+10	1	-1E+10	1	-1E+10	1	-1E+10	1	-1E+10	1
4902551	81	C	11/09/2022	05:02	-131.524	48.326	0	9.90	0	12.4820	0	32.3380	0	24.432	0	9.816	0	247.6	4	93.2	4	-1E+10	1	-1E+10	1	-1E+10	1	-1E+10	1	-1E+10	1	-1E+10	1
4902551	81	C	11/09/2022	05:02	-131.524	48.326	0	10.90	0	12.4820	0	32.3380	0	24.432	0	10.808	0	247.6	4	93.2	4	-1E+10	1	-1E+10	1	-1E+10	1	-1E+10	1	-1E+10	1	-1E+10	1
4902551	81	C	11/09/2022	05:02	-131.524	48.326	0	11.90	0	12.4830	0	32.3380	0	24.432	0	11.799	0	247.6	4	93.2	4	-1E+10	1	-1E+10	1	-1E+10	1	-1E+10	1	-1E+10	1	-1E+10	1
4902551	81	C	11/09/2022	05:02	-131.524	48.326	0	13.00	0	12.4820	0	32.3370	0	24.432	0	12.890	0	247.7	4	93.3	4	-1E+10	1	-1E+10	1	-1E+10	1	-1E+10	1	-1E+10	1	-1E+10	1
4902551	81	C	11/09/2022	05:02	-131.524	48.326	0	14.10	0	12.4830	0	32.3390	0	24.433	0	13.981	0	247.7	4	93.3	4	-1E+10	1	-1E+10	1	-1E+10	1	-1E+10	1	-1E+10	1	-1E+10	1
4902551	81	C	11/09/2022	05:02	-131.524	48.326	0	14.80	0	12.4830	0	32.3380	0	24.432	0	14.675	0	247.7	4	93.3	4	-1E+10	1	-1E+10	1	-1E+10	1	-1E+10	1	-1E+10	1	-1E+10	1
4902551	81	C	11/09/2022	05:02	-131.524	48.326	0	15.80	0	12.4830	0	32.3380	0	24.432	0	15.666	0	247.6	4	93.2	4	-1E+10	1	-1E+10	1	-1E+10	1	-1E+10	1	-1E+10	1	-1E+10	1
4902551	81	C	11/09/2022	05:02	-131.524	48.326	0	17.00	0	12.4830	0	32.3380	0	24.432	0	16.856	0	247.6	4	93.2	4	-1E+10	1	-1E+10	1	-1E+10	1	-1E+10	1	-1E+10	1	-1E+10	1
4902551	81	C	11/09/2022	05:02	-131.524	48.326	0	18.00	0	12.4830	0	32.3380	0	24.432	0	17.848	0	247.7	4	93.3	4	-1E+10	1	-1E+10	1	-1E+10	1	-1E+10	1	-1E+10	1	-1E+10	1
4902551	81	C	11/09/2022	05:02	-131.524	48.326	0	19.10	0	12.4830	0	32.3390	0	24.433	0	18.938	0	247.6	4	93.2	4	-1E+10	1	-1E+10	1	-1E+10	1	-1E+10	1	-1E+10	1	-1E+10	1
4902551	81	C	11/09/2022	05:02	-131.524	48.326	0	20.10	0	12.4830	0	32.3380	0	24.432	0	19.930	0	247.6	4	93.2	4	-1E+10	1	-1E+10	1	-1E+10	1	-1E+10	1	-1E+10	1	-1E+10	1
4902551	81	C	11/09/2022	05:02	-131.524	48.326	0	21.00	0	12.4830	0	32.3390	0	24.433	0	20.822	0	247.6	4	93.2	4	-1E+10	1	-1E+10	1	-1E+10	1	-1E+10	1	-1E+10	1	-1E+10	1
4902551	81	C	11/09/2022	05:02	-131.524	48.326	0	22.00	0	12.4830	0	32.3380	0	24.432	0	21.814	0	247.7	4	93.3	4	-1E+10	1	-1E+10	1	-1E+10	1	-1E+10	1	-1E+10	1	-1E+10	1
4902551	81	C	11/09/2022	05:02	-131.524	48.326	0	22.90	0	12.4830	0	32.3390	0	24.433	0	22.706	0	247.7	4	93.3	4	-1E+10	1	-1E+10	1	-1E+10	1	-1E+10	1	-1E+10	1	-1E+10	1
4902551	81	C	11/09/2022	05:02	-131.524	48.326	0	23.80	0	12.4820	0	32.3390	0	24.433	0	23.598	0	247.7	4	93.3	4	-1E+10	1	-1E+10	1	-1E+10	1	-1E+10	1	-1E+10	1	-1E+10	1
4902551	81	C	11/09/2022	05:02	-131.524	48.326	0	25.10	0	12.4820	0	32.3310	0	24.427	0	24.887	0	247.8	4	93.3	4	-1E+10	1	-1E+10	1	-1E+10	1	-1E+10	1	-1E+10	1	-1E+10	1
4902551	81	C	11/09/2022	05:02	-131.524	48.326	0	26.00	0	12.4820	0	32.3380	0	24.433	0	25.779	0	247.8	4	93.3	4	-1E+10	1	-1E+10	1	-1E+10	1	-1E+10	1	-1E+10	1	-1E+10	1
4902551	81	C	11/09/2022	05:02	-131.524	48.326	0	27.00	0	12.4830	0	32.3380	0	24.433	0	26.771	0	247.7	4	93.3	4	-1E+10	1	-1E+10	1	-1E+10	1	-1E+10	1	-1E+10	1	-1E+10	1
4902551	81	C	11/09/2022	05:02	-131.524	48.326	0	27.90	0	12.4830	0	32.3390	0	24.433	0	27.663	0	247.8	4	93.3	4	-1E+10	1	-1E+10	1	-1E+10	1	-1E+10	1	-1E+10	1	-1E+10	1
4902551	81	C	11/09/2022	05:02	-131.524	48.326	0	28.80	0	12.4820	0	32.3380	0	24.433	0	28.555	0	247.8	4	93.3	4	-1E+10	1	-1E+10	1	-1E+10	1	-1E+10	1	-1E+10	1	-1E+10	1
4902551	81	C	11/09/2022	05:02	-131.524	48.326	0	29.80	0	12.4840	0	32.3390	0	24.433	0	29.547	0	247.8	4	93.3	4	-1E+10	1	-1E+10	1	-1E+10	1	-1E+10	1	-1E+10	1	-1E+10	1
4902551	81	C	11/09/2022	05:02	-131.524	48.326	0	30.80	0	12.4850	0	32.3400	0	24.434	0	30.538	0	247.9	4	93.3	4	-1E+10	1	-1E+10	1	-1E+10	1	-1E+10	1	-1E+10	1	-1E+10	1
4902551	81	C	11/09/2022	05:02	-131.524	48.326	0	32.10	0	12.4850	0	32.3400	0	24.434	0	31.827	0	247.9	4	93.4	4	-1E+10	1	-1E+10	1	-1E+10	1	-1E+10	1	-1E+10	1	-1E+10	1
4902551	81	C	11/09/2022	05:02	-131.524	48.326	0	33.10	0	12.4850	0	32.3400	0	24.434	0	32.819	0	248.0	4	93.4	4	-1E+10	1	-1E+10	1	-1E+10	1	-1E+10	1	-1E+10	1	-1E+10	1
4902551	81	C	11/09/2022	05:02	-131.524	48.326	0	34.00	0	12.4850	0	32.3410	0	24.435	0	33.711	0	248.0	4	93.4	4	-1E+10	1	-1E+10	1	-1E+10	1	-1E+10	1	-1E+10	1	-1E+10	1
4902551	81	C	11/09/2022	05:02	-131.524	48.326	0	35.00	0	12.4860	0	32.3400	0	24.434	0	34.702	0	248.1	4	93.4	4	-1E+10	1	-1E+10	1	-1E+10	1	-1E+10	1	-1E+10	1	-1E+10	1
4902551	81	C	11/09/2022	05:02	-131.524	48.326	0	35.90	0	12.4860	0	32.3410	0	24.435	0	35.595	0	248.2	4	93.5	4	-1E+10	1	-1E+10	1	-1E+10	1	-1E+10	1	-1E+10	1	-1E+10	1
4902551	81	C	11/09/2022	05:02	-131.524	48.326	0	37.10	0	12.4870	0	32.3400	0	24.434	0	36.784	0	248.3	4	93.5	4	-1E+10	1	-1E+10	1	-1E+10	1	-1E+10	1	-1E+10	1	-1E+10	1
4902551	81	C	11/09/2022	05:02	-131.524	48.326	0	38.00	0	12.4860	0	32.3400	0	24.434	0	37.677	0	248.5	4	93.6	4	-1E+10	1	-1E+10	1	-1E+10	1	-1E+10	1	-1E+10	1	-1E+10	1
4902551	81	C	11/09/2022	05:02	-131.524	48.326	0	38.90	0	12.4820	0	32.3410	0	24.435	0	38.569	0	248.6	4	93.6	4	-1E+10	1	-1E+10	1	-1E+10	1	-1E+10	1	-1E+10	1	-1E+10	1
4902551	81	C	11/09/2022	05:02	-131.524	48.326	0	40.00	0	12.4820	0	32.3410	0	24.435	0	39.659	0	248.8	4	93.7	4	-1E+10	1	-1E+10	1	-1E+10	1	-1E+10	1	-1E+10	1	-1E+10	1
4902551	81	C	11/09/2022	05:02	-131.524	48.326	0	41.10	0	12.4780	0	32.3410	0	24.436	0	40.750	0	249.0	4	93.8	4	-1E+10	1	-1E+10	1	-1E+10	1	-1E+10	1	-1E+10	1	-1E+10	1
4902551	81	C	11/09/2022	05:02	-131.524	48.326	0	42.10	0	12.4750	0	32.3410	0	24.437	0	41.741	0	249.4	4	93.9	4	-1E+10	1	-1E+10	1	-1E+10	1	-1E+10	1	-1E+10	1	-1E+10	1
4902551	81	C	11/09/2022	05:02	-131.524	48.326	0	43.10	0	12.4750	0	32.3420	0	24.438	0	42.733	0	249.9	4	94.1	4	-1E+10	1	-1E+10	1	-1E+10	1	-1E+10	1	-1E+10	1	-1E+10	1
4902551	81	C	11/09/2022	05:02	-131.524	48.326	0	43.80	0	11.9750	0	32.3590	0	24.545	0	43.427	0	262.8	4	97.9	4	-1E+10	1	-1E+10	1	-1E+10	1	-1E+10	1	-1E+10	1	-1E+10	1
4902551	81	C	11/09/2022	05:02	-131.524	48.326	0	44.90	0	10.1920	0	32.4000	0	24.892	0	44.517	0	270.0	4	96.9	4	-1E+10	1	-1E+10	1	-1E+10	1	-1E+10	1	-1E+10	1	-1E+10	1
4902551	81	C	11/09/2022	05:02	-131.524	48.326	0	46.10	0	9.6150	0	32.4090	0	24.994	0	45.707	0	272.1	4	96.5	4	-1E+10	1	-1E+10	1	-1E+10	1	-1E+10	1	-1E+10	1	-1E+10	1
4902551	81	C	11/09/2022	05:02	-131.524	48.326	0	47.00	0	9.2370	0	32.4370	0	25.076	0	46.599	0	272.8	4	95.9	4	-1E+10	1	-1E+10	1	-1E+10	1	-1E+10	1	-1E+10	1	-1E+10	1
4902551	81	C	11/09/2022	05:02	-131.524	48.326	0	47.90	0	9.1070	0	32.4180	0	25.081	0	47.491	0	272.9	4	95.7	4	-1E+10	1	-1E+10	1	-1E+10	1	-1E+10	1	-1E+10	1	-1E+10	1
4902551	81	C	11/09/2022	05:02	-131.524	48.326	0	49.10	0	9.0440	0	32.4160	0	25.090	0	48.681	0	272.8	4	95.5	4	-1E+10	1	-1E+10	1	-1E+10	1	-1E+10	1	-1E+10	1	-1E+10	1
4902551	81	C	11/09/2022	05:02	-131.524	48.326	0	50.10	0	8.9980	0	32.4180	0	25.098	0	49.672	0	272.7	4	95.4	4	-1E+10	1	-1E+10	1	-1E+10	1	-1E+10	1	-1E+10	1	-1E+10	1
4902551	81	C	11/09/2022	05:02	-131.524	48.326	0	51.00	0	8.9160	0	32.4210	0	25.113	0	50.564	0	272.5	4	95.1	4	-1E+10	1	-1E+10	1	-1E+10	1	-1E+10	1	-1E+10	1	-1E+10	1
4902551	81	C	11/09/2022	05:02	-131.524	48.326	0	52.00	0	8.8300	0	32.4270	0	25.131	0	51.556	0	272.4	4	94.9	4	-1E+10	1	-1E+10	1	-1E+10	1	-1E+10	1	-1E+10	1	-1E+10	1
4902551	81	C	11/09/2022	05:02	-131.524	48.326	0	52.80	0	8.7470	0	32.4300	0	25.146	0	52.349	0	272.6	4	94.8	4	-1E+10	1	-1E+10	1	-1E+10	1	-1E+10	1	-1E+10	1	-1E+10	1
4902551	81	C	11/09/2022	05:02	-131.524	48.326	0	53.80	0	8.7160	0	32.4280	0	25.149	0	53.340	0	272.4	4	94.7	4	-1E+10	1	-1E+10	1	-1E+10	1	-1E+10	1	-1E+10	1	-1E+10	1
4902551	81	C	11/09/2022	05:02	-131.524	48.326	0	55.10	0	8.6670	0	32.4270	0	25.156	0	54.629	0	272.3	4	94.5	4	-1E+10	1	-1E+10	1	-1E+10	1	-1E+10	1	-1E+10	1	-1E+10	1
4902551	81	C	11/09/2022	05:02	-131.524	48.326	0	56.00	0	8.5660	0	32.4340	0	25.177	0	55.521	0	272.3	4	94.3	4	-1E+10	1	-1E+10	1	-1E+10	1	-1E+10	1	-1E+10	1	-1E+10	1
4902551	81	C	11/09/2022	05:02	-131.524	48.326	0	57.00	0	8.4890	0	32.4380	0	25.192	0	56.512	0	271.9	4	94.0	4	-1E+10	1	-1E+10	1	-1E+10	1	-1E+10	1	-1E+10	1	-1E+10	1
4902551	81	C	11/09/2022	05:02	-131.524	48.326	0	58.10	0	8.4300	0	32.4390	0	25.201	0	57.603	0	271.3	4	93.7	4	-1E+10	1	-1E+10	1	-1E+10	1	-1E+10	1	-1E+10	1	-1E+10	1
4902551	81	C	11/09/2022	05:02	-131.524	48.326	0	59.10	0	8.3710	0	32.4390	0	25.210	0	58.594	0	271.1	4	93.5	4	-1E+10	1	-1E+10	1	-1E+10	1	-1E+10	1	-1E+10	1	-1E+10	1
4902551	81	C	11/09/2022	05:02	-131.524	48.326	0	60.10	0	8.3420	0	32.4390	0	25.214	0	59.585	0	270.8	4	93.3	4	-1E+10	1	-1E+10	1	-1E+10	1	-1E+10	1	-1E+10	1	-1E+10	1
4902551	81	C	11/09/2022	05:02	-131.524	48.326	0	61.00	0	8.2850	0	32.4400	0	25.223	0	60.477	0	270.5	4	93.1	4	-1E+10	1	-1E+10	1	-1E+10	1	-1E+10	1	-1E+10	1	-1E+10	1
4902551	81	C	11/09/2022	05:02	-131.524	48.326	0	62.00	0	8.2520	0	32.4380	0	25.227	0	61.469	0	270.2	4	93.0	4	-1E+10	1	-1E+10	1	-1E+10	1	-1E+10	1	-1E+10	1	-1E+10	1
4902551	81	C	11/09/2022	05:02	-131.524	48.326	0	63.10	0	8.2010	0	32.4420	0	25.237	0	62.559	0	269.9	4	92.8	4	-1E+10	1	-1E+10	1	-1E+10	1	-1E+10	1	-1E+10	1	-1E+10	1
4902551	81	C	11/09/2022	05:02	-131.524	48.326	0	63.80	0	8.1860	0	32.4400	0	25.238	0	63.253	0	269.6	4	92.6	4	-1E+10	1	-1E+10	1	-1E+10	1	-1E+10	1	-1E+10	1	-1E+10	1
4902551	81	C	11/09/2022	05:02	-131.524	48.326	0	65.00	0	8.1420	0	32.4400	0	25.244	0	64.442	0	269.2	4	92.4	4	-1E+10	1	-1E+10	1	-1E+10	1	-1E+10	1	-1E+10	1	-1E+10	1
4902551	81	C	11/09/2022	05:02	-131.524	48.326	0	66.20	0	8.0610	0	32.4450	0	25.260	0	65.632	0	268.6	4	92.0	4	-1E+10	1	-1E+10	1	-1E+10	1	-1E+10	1	-1E+10	1	-1E+10	1
4902551	81	C	11/09/2022	05:02	-131.524	48.326	0	67.10	0	8.0340	0	32.4450	0	25.264	0	66.524	0	268.1	4	91.8	4	-1E+10	1	-1E+10	1	-1E+10	1	-1E+10	1	-1E+10	1	-1E+10	1
4902551	81	C	11/09/2022	05:02	-131.524	48.326	0	67.90	0	8.0260	0	32.4440	0	25.264	0	67.317	0	267.6	4	91.6	4	-1E+10	1	-1E+10	1	-1E+10	1	-1E+10	1	-1E+10	1	-1E+10	1
4902551	81	C	11/09/2022	05:02	-131.524	48.326	0	69.30	0	8.0090	0	32.4440	0	25.267	0	68.705	0	266.9	4	91.3	4	-1E+10	1	-1E+10	1	-1E+10	1	-1E+10	1	-1E+10	1	-1E+10	1
4902551	81	C	11/09/2022	05:02	-131.524	48.326	0	69.90	0	7.9800	0	32.4450	0	25.272	0	69.300	0	266.6	4	91.2	4	-1E+10	1	-1E+10	1	-1E+10	1	-1E+10	1	-1E+10	1	-1E+10	1
4902551	81	C	11/09/2022	05:02	-131.524	48.326	0	70.80	0	7.9230	0	32.4460	0	25.281	0	70.192	0	266.2	4	90.9	4	-1E+10	1	-1E+10	1	-1E+10	1	-1E+10	1	-1E+10	1	-1E+10	1
4902551	81	C	11/09/2022	05:02	-131.524	48.326	0	72.00	0	7.8190	0	32.4480	0	25.297	0	71.381	0	266.1	4	90.7	4	-1E+10	1	-1E+10	1	-1E+10	1	-1E+10	1	-1E+10	1	-1E+10	1
4902551	81	C	11/09/2022	05:02	-131.524	48.326	0	73.30	0	7.6990	0	32.4530	0	25.318	0	72.670	0	266.0	4	90.4	4	-1E+10	1	-1E+10	1	-1E+10	1	-1E+10	1	-1E+10	1	-1E+10	1
4902551	81	C	11/09/2022	05:02	-131.524	48.326	0	74.20	0	7.6750	0	32.4520	0	25.321	0	73.562	0	265.9	4	90.3	4	-1E+10	1	-1E+10	1	-1E+10	1	-1E+10	1	-1E+10	1	-1E+10	1
4902551	81	C	11/09/2022	05:02	-131.524	48.326	0	75.00	0	7.6490	0	32.4530	0	25.325	0	74.355	0	265.7	4	90.2	4	-1E+10	1	-1E+10	1	-1E+10	1	-1E+10	1	-1E+10	1	-1E+10	1
4902551	81	C	11/09/2022	05:02	-131.524	48.326	0	76.00	0	7.6140	0	32.4540	0	25.331	0	75.346	0	265.5	4	90.1	4	-1E+10	1	-1E+10	1	-1E+10	1	-1E+10	1	-1E+10	1	-1E+10	1
4902551	81	C	11/09/2022	05:02	-131.524	48.326	0	77.20	0	7.5930	0	32.4510	0	25.332	0	76.536	0	265.3	4	89.9	4	-1E+10	1	-1E+10	1	-1E+10	1	-1E+10	1	-1E+10	1	-1E+10	1
4902551	81	C	11/09/2022	05:02	-131.524	48.326	0	77.80	0	7.5410	0	32.4560	0	25.343	0	77.130	0	265.2	4	89.8	4	-1E+10	1	-1E+10	1	-1E+10	1	-1E+10	1	-1E+10	1	-1E+10	1
4902551	81	C	11/09/2022	05:02	-131.524	48.326	0	79.10	0	7.5260	0	32.4550	0	25.344	0	78.419	0	264.9	4	89.7	4	-1E+10	1	-1E+10	1	-1E+10	1	-1E+10	1	-1E+10	1	-1E+10	1
4902551	81	C	11/09/2022	05:02	-131.524	48.326	0	80.00	0	7.5040	0	32.4550	0	25.347	0	79.311	0	264.5	4	89.5	4	-1E+10	1	-1E+10	1	-1E+10	1	-1E+10	1	-1E+10	1	-1E+10	1
4902551	81	C	11/09/2022	05:02	-131.524	48.326	0	81.00	0	7.4740	0	32.4560	0	25.352	0	80.302	0	264.2	4	89.3	4	-1E+10	1	-1E+10	1	-1E+10	1	-1E+10	1	-1E+10	1	-1E+10	1
4902551	81	C	11/09/2022	05:02	-131.524	48.326	0	82.20	0	7.4190	0	32.4590	0	25.362	0	81.492	0	264.0	4	89.2	4	-1E+10	1	-1E+10	1	-1E+10	1	-1E+10	1	-1E+10	1	-1E+10	1
4902551	81	C	11/09/2022	05:02	-131.524	48.326	0	82.90	0	7.3980	0	32.4580	0	25.364	0	82.185	0	270.7	4	91.4	4	-1E+10	1	-1E+10	1	-1E+10	1	-1E+10	1	-1E+10	1	-1E+10	1
4902551	81	C	11/09/2022	05:02	-131.524	48.326	0	84.10	0	7.3000	0	32.4620	0	25.381	0	83.375	0	270.8	4	91.2	4	-1E+10	1	-1E+10	1	-1E+10	1	-1E+10	1	-1E+10	1	-1E+10	1
4902551	81	C	11/09/2022	05:02	-131.524	48.326	0	85.10	0	7.2490	0	32.4630	0	25.388	0	84.366	0	270.7	4	91.1	4	-1E+10	1	-1E+10	1	-1E+10	1	-1E+10	1	-1E+10	1	-1E+10	1
4902551	81	C	11/09/2022	05:02	-131.524	48.326	0	85.90	0	7.2300	0	32.4640	0	25.392	0	85.159	0	270.7	4	91.0	4	-1E+10	1	-1E+10	1	-1E+10	1	-1E+10	1	-1E+10	1	-1E+10	1
4902551	81	C	11/09/2022	05:02	-131.524	48.326	0	86.80	0	7.2230	0	32.4640	0	25.393	0	86.051	0	270.5	4	91.0	4	-1E+10	1	-1E+10	1	-1E+10	1	-1E+10	1	-1E+10	1	-1E+10	1
4902551	81	C	11/09/2022	05:02	-131.524	48.326	0	87.70	0	7.2000	0	32.4660	0	25.398	0	86.943	0	270.4	4	90.9	4	-1E+10	1	-1E+10	1	-1E+10	1	-1E+10	1	-1E+10	1	-1E+10	1
4902551	81	C	11/09/2022	05:02	-131.524	48.326	0	88.70	0	7.1890	0	32.4650	0	25.398	0	87.934	0	270.2	4	90.8	4	-1E+10	1	-1E+10	1	-1E+10	1	-1E+10	1	-1E+10	1	-1E+10	1
4902551	81	C	11/09/2022	05:02	-131.524	48.326	0	89.70	0	7.1820	0	32.4670	0	25.401	0	88.925	0	270.2	4	90.7	4	-1E+10	1	-1E+10	1	-1E+10	1	-1E+10	1	-1E+10	1	-1E+10	1
4902551	81	C	11/09/2022	05:02	-131.524	48.326	0	91.10	0	7.1680	0	32.4660	0	25.402	0	90.313	0	269.8	4	90.6	4	-1E+10	1	-1E+10	1	-1E+10	1	-1E+10	1	-1E+10	1	-1E+10	1
4902551	81	C	11/09/2022	05:02	-131.524	48.326	0	92.10	0	7.1630	0	32.4650	0	25.402	0	91.304	0	269.7	4	90.6	4	-1E+10	1	-1E+10	1	-1E+10	1	-1E+10	1	-1E+10	1	-1E+10	1
4902551	81	C	11/09/2022	05:02	-131.524	48.326	0	93.30	0	7.1050	0	32.4690	0	25.413	0	92.493	0	269.6	4	90.4	4	-1E+10	1	-1E+10	1	-1E+10	1	-1E+10	1	-1E+10	1	-1E+10	1
4902551	81	C	11/09/2022	05:02	-131.524	48.326	0	94.00	0	7.0880	0	32.4680	0	25.414	0	93.187	0	269.5	4	90.3	4	-1E+10	1	-1E+10	1	-1E+10	1	-1E+10	1	-1E+10	1	-1E+10	1
4902551	81	C	11/09/2022	05:02	-131.524	48.326	0	95.00	0	7.0730	0	32.4690	0	25.417	0	94.178	0	269.5	4	90.3	4	-1E+10	1	-1E+10	1	-1E+10	1	-1E+10	1	-1E+10	1	-1E+10	1
4902551	81	C	11/09/2022	05:02	-131.524	48.326	0	96.10	0	6.9850	0	32.4740	0	25.433	0	95.269	0	269.6	4	90.2	4	-1E+10	1	-1E+10	1	-1E+10	1	-1E+10	1	-1E+10	1	-1E+10	1
4902551	81	C	11/09/2022	05:02	-131.524	48.326	0	97.10	0	6.9690	0	32.4750	0	25.436	0	96.260	0	269.5	4	90.1	4	-1E+10	1	-1E+10	1	-1E+10	1	-1E+10	1	-1E+10	1	-1E+10	1
4902551	81	C	11/09/2022	05:02	-131.524	48.326	0	98.10	0	6.9490	0	32.4780	0	25.441	0	97.251	0	269.4	4	90.0	4	-1E+10	1	-1E+10	1	-1E+10	1	-1E+10	1	-1E+10	1	-1E+10	1
4902551	81	C	11/09/2022	05:02	-131.524	48.326	0	99.30	0	6.9070	0	32.4790	0	25.447	0	98.440	0	269.1	4	89.8	4	-1E+10	1	-1E+10	1	-1E+10	1	-1E+10	1	-1E+10	1	-1E+10	1
4902551	81	C	11/09/2022	05:02	-131.524	48.326	0	100.10	0	6.9000	0	32.4780	0	25.447	0	99.233	0	269.0	4	89.8	4	-1E+10	1	-1E+10	1	-1E+10	1	-1E+10	1	-1E+10	1	-1E+10	1
4902551	81	C	11/09/2022	05:02	-131.524	48.326	0	101.10	0	6.8830	0	32.4800	0	25.451	0	100.224	0	268.8	4	89.7	4	-1E+10	1	-1E+10	1	-1E+10	1	-1E+10	1	-1E+10	1	-1E+10	1
4902551	81	C	11/09/2022	05:02	-131.524	48.326	0	101.90	0	6.8740	0	32.4810	0	25.453	0	101.017	0	268.6	4	89.6	4	-1E+10	1	-1E+10	1	-1E+10	1	-1E+10	1	-1E+10	1	-1E+10	1
4902551	81	C	11/09/2022	05:02	-131.524	48.326	0	102.70	0	6.8660	0	32.4810	0	25.454	0	101.810	0	268.4	4	89.5	4	-1E+10	1	-1E+10	1	-1E+10	1	-1E+10	1	-1E+10	1	-1E+10	1
4902551	81	C	11/09/2022	05:02	-131.524	48.326	0	103.70	0	6.8560	0	32.4840	0	25.458	0	102.801	0	268.1	4	89.4	4	-1E+10	1	-1E+10	1	-1E+10	1	-1E+10	1	-1E+10	1	-1E+10	1
4902551	81	C	11/09/2022	05:02	-131.524	48.326	0	104.80	0	6.8360	0	32.4890	0	25.464	0	103.891	0	267.9	4	89.3	4	-1E+10	1	-1E+10	1	-1E+10	1	-1E+10	1	-1E+10	1	-1E+10	1
4902551	81	C	11/09/2022	05:02	-131.524	48.326	0	105.90	0	6.8120	0	32.4910	0	25.469	0	104.981	0	267.7	4	89.2	4	-1E+10	1	-1E+10	1	-1E+10	1	-1E+10	1	-1E+10	1	-1E+10	1
4902551	81	C	11/09/2022	05:02	-131.524	48.326	0	106.90	0	6.8000	0	32.4920	0	25.471	0	105.972	0	267.4	4	89.0	4	-1E+10	1	-1E+10	1	-1E+10	1	-1E+10	1	-1E+10	1	-1E+10	1
4902551	81	C	11/09/2022	05:02	-131.524	48.326	0	108.00	0	6.7890	0	32.4940	0	25.474	0	107.062	0	267.0	4	88.9	4	-1E+10	1	-1E+10	1	-1E+10	1	-1E+10	1	-1E+10	1	-1E+10	1
4902551	81	C	11/09/2022	05:02	-131.524	48.326	0	109.00	0	6.7840	0	32.4950	0	25.476	0	108.054	0	266.5	4	88.7	4	-1E+10	1	-1E+10	1	-1E+10	1	-1E+10	1	-1E+10	1	-1E+10	1
4902551	81	C	11/09/2022	05:02	-131.524	48.326	0	110.00	0	6.7770	0	32.4970	0	25.478	0	109.045	0	265.8	4	88.5	4	-1E+10	1	-1E+10	1	-1E+10	1	-1E+10	1	-1E+10	1	-1E+10	1
4902551	81	C	11/09/2022	05:02	-131.524	48.326	0	111.00	0	6.7730	0	32.4980	0	25.480	0	110.036	0	264.9	4	88.2	4	-1E+10	1	-1E+10	1	-1E+10	1	-1E+10	1	-1E+10	1	-1E+10	1
4902551	81	C	11/09/2022	05:02	-131.524	48.326	0	112.00	0	6.7650	0	32.5010	0	25.483	0	111.027	0	263.8	4	87.8	4	-1E+10	1	-1E+10	1	-1E+10	1	-1E+10	1	-1E+10	1	-1E+10	1
4902551	81	C	11/09/2022	05:02	-131.524	48.326	0	113.00	0	6.7570	0	32.5080	0	25.490	0	112.018	0	262.4	4	87.3	4	-1E+10	1	-1E+10	1	-1E+10	1	-1E+10	1	-1E+10	1	-1E+10	1
4902551	81	C	11/09/2022	05:02	-131.524	48.326	0	114.00	0	6.7440	0	32.5350	0	25.513	0	113.009	0	261.1	4	86.9	4	-1E+10	1	-1E+10	1	-1E+10	1	-1E+10	1	-1E+10	1	-1E+10	1
4902551	81	C	11/09/2022	05:02	-131.524	48.326	0	115.00	0	6.7360	0	32.5530	0	25.528	0	114.000	0	260.0	4	86.5	4	-1E+10	1	-1E+10	1	-1E+10	1	-1E+10	1	-1E+10	1	-1E+10	1
4902551	81	C	11/09/2022	05:02	-131.524	48.326	0	116.00	0	6.7200	0	32.5610	0	25.536	0	114.991	0	258.7	4	86.1	4	-1E+10	1	-1E+10	1	-1E+10	1	-1E+10	1	-1E+10	1	-1E+10	1
4902551	81	C	11/09/2022	05:02	-131.524	48.326	0	117.00	0	6.6850	0	32.5820	0	25.557	0	115.982	0	257.7	4	85.7	4	-1E+10	1	-1E+10	1	-1E+10	1	-1E+10	1	-1E+10	1	-1E+10	1
4902551	81	C	11/09/2022	05:02	-131.524	48.326	0	117.90	0	6.6670	0	32.5940	0	25.569	0	116.874	0	256.7	4	85.3	4	-1E+10	1	-1E+10	1	-1E+10	1	-1E+10	1	-1E+10	1	-1E+10	1
4902551	81	C	11/09/2022	05:02	-131.524	48.326	0	118.90	0	6.6350	0	32.6060	0	25.583	0	117.865	0	255.7	4	84.9	4	-1E+10	1	-1E+10	1	-1E+10	1	-1E+10	1	-1E+10	1	-1E+10	1
4902551	81	C	11/09/2022	05:02	-131.524	48.326	0	119.90	0	6.6120	0	32.6190	0	25.596	0	118.856	0	254.8	4	84.6	4	-1E+10	1	-1E+10	1	-1E+10	1	-1E+10	1	-1E+10	1	-1E+10	1
4902551	81	C	11/09/2022	05:02	-131.524	48.326	0	120.80	0	6.6060	0	32.6320	0	25.607	0	119.748	0	254.3	4	84.4	4	-1E+10	1	-1E+10	1	-1E+10	1	-1E+10	1	-1E+10	1	-1E+10	1
4902551	81	C	11/09/2022	05:02	-131.524	48.326	0	121.80	0	6.5940	0	32.6430	0	25.617	0	120.739	0	253.3	4	84.0	4	-1E+10	1	-1E+10	1	-1E+10	1	-1E+10	1	-1E+10	1	-1E+10	1
4902551	81	C	11/09/2022	05:02	-131.524	48.326	0	122.80	0	6.5840	0	32.6530	0	25.627	0	121.730	0	252.2	4	83.7	4	-1E+10	1	-1E+10	1	-1E+10	1	-1E+10	1	-1E+10	1	-1E+10	1
4902551	81	C	11/09/2022	05:02	-131.524	48.326	0	123.80	0	6.5610	0	32.6700	0	25.643	0	122.721	0	251.4	4	83.4	4	-1E+10	1	-1E+10	1	-1E+10	1	-1E+10	1	-1E+10	1	-1E+10	1
4902551	81	C	11/09/2022	05:02	-131.524	48.326	0	125.00	0	6.5530	0	32.6780	0	25.650	0	123.910	0	250.3	4	83.0	4	-1E+10	1	-1E+10	1	-1E+10	1	-1E+10	1	-1E+10	1	-1E+10	1
4902551	81	C	11/09/2022	05:02	-131.524	48.326	0	126.10	0	6.5480	0	32.6830	0	25.655	0	125.000	0	248.8	4	82.5	4	-1E+10	1	-1E+10	1	-1E+10	1	-1E+10	1	-1E+10	1	-1E+10	1
4902551	81	C	11/09/2022	05:02	-131.524	48.326	0	127.00	0	6.5430	0	32.6870	0	25.659	0	125.892	0	247.4	4	82.0	4	-1E+10	1	-1E+10	1	-1E+10	1	-1E+10	1	-1E+10	1	-1E+10	1
4902551	81	C	11/09/2022	05:02	-131.524	48.326	0	127.90	0	6.5360	0	32.6930	0	25.664	0	126.784	0	246.5	4	81.7	4	-1E+10	1	-1E+10	1	-1E+10	1	-1E+10	1	-1E+10	1	-1E+10	1
4902551	81	C	11/09/2022	05:02	-131.524	48.326	0	129.00	0	6.5310	0	32.7000	0	25.670	0	127.874	0	245.1	4	81.2	4	-1E+10	1	-1E+10	1	-1E+10	1	-1E+10	1	-1E+10	1	-1E+10	1
4902551	81	C	11/09/2022	05:02	-131.524	48.326	0	129.90	0	6.5080	0	32.7120	0	25.683	0	128.766	0	244.1	4	80.9	4	-1E+10	1	-1E+10	1	-1E+10	1	-1E+10	1	-1E+10	1	-1E+10	1
4902551	81	C	11/09/2022	05:02	-131.524	48.326	0	130.70	0	6.5030	0	32.7170	0	25.687	0	129.558	0	242.9	4	80.5	4	-1E+10	1	-1E+10	1	-1E+10	1	-1E+10	1	-1E+10	1	-1E+10	1
4902551	81	C	11/09/2022	05:02	-131.524	48.326	0	132.10	0	6.5030	0	32.7360	0	25.702	0	130.946	0	240.9	4	79.8	4	-1E+10	1	-1E+10	1	-1E+10	1	-1E+10	1	-1E+10	1	-1E+10	1
4902551	81	C	11/09/2022	05:02	-131.524	48.326	0	132.80	0	6.5050	0	32.7440	0	25.709	0	131.639	0	239.6	4	79.4	4	-1E+10	1	-1E+10	1	-1E+10	1	-1E+10	1	-1E+10	1	-1E+10	1
4902551	81	C	11/09/2022	05:02	-131.524	48.326	0	134.10	0	6.4190	0	32.7710	0	25.741	0	132.928	0	236.5	4	78.2	4	-1E+10	1	-1E+10	1	-1E+10	1	-1E+10	1	-1E+10	1	-1E+10	1
4902551	81	C	11/09/2022	05:02	-131.524	48.326	0	134.80	0	6.4000	0	32.7850	0	25.754	0	133.621	0	234.5	4	77.5	4	-1E+10	1	-1E+10	1	-1E+10	1	-1E+10	1	-1E+10	1	-1E+10	1
4902551	81	C	11/09/2022	05:02	-131.524	48.326	0	135.90	0	6.3670	0	32.8200	0	25.786	0	134.711	0	231.9	4	76.7	4	-1E+10	1	-1E+10	1	-1E+10	1	-1E+10	1	-1E+10	1	-1E+10	1
4902551	81	C	11/09/2022	05:02	-131.524	48.326	0	137.10	0	6.2990	0	32.8880	0	25.848	0	135.900	0	229.4	4	75.7	4	-1E+10	1	-1E+10	1	-1E+10	1	-1E+10	1	-1E+10	1	-1E+10	1
4902551	81	C	11/09/2022	05:02	-131.524	48.326	0	138.00	0	6.2830	0	32.9180	0	25.874	0	136.792	0	227.1	4	75.0	4	-1E+10	1	-1E+10	1	-1E+10	1	-1E+10	1	-1E+10	1	-1E+10	1
4902551	81	C	11/09/2022	05:02	-131.524	48.326	0	138.70	0	6.2670	0	32.9350	0	25.889	0	137.486	0	225.1	4	74.3	4	-1E+10	1	-1E+10	1	-1E+10	1	-1E+10	1	-1E+10	1	-1E+10	1
4902551	81	C	11/09/2022	05:02	-131.524	48.326	0	139.90	0	6.2390	0	32.9910	0	25.937	0	138.675	0	221.8	4	73.2	4	-1E+10	1	-1E+10	1	-1E+10	1	-1E+10	1	-1E+10	1	-1E+10	1
4902551	81	C	11/09/2022	05:02	-131.524	48.326	0	141.00	0	6.2310	0	33.0510	0	25.986	0	139.765	0	218.4	4	72.1	4	-1E+10	1	-1E+10	1	-1E+10	1	-1E+10	1	-1E+10	1	-1E+10	1
4902551	81	C	11/09/2022	05:02	-131.524	48.326	0	142.00	0	6.2310	0	33.0790	0	26.008	0	140.756	0	215.8	4	71.2	4	-1E+10	1	-1E+10	1	-1E+10	1	-1E+10	1	-1E+10	1	-1E+10	1
4902551	81	C	11/09/2022	05:02	-131.524	48.326	0	142.90	0	6.2320	0	33.1000	0	26.024	0	141.648	0	213.2	4	70.4	4	-1E+10	1	-1E+10	1	-1E+10	1	-1E+10	1	-1E+10	1	-1E+10	1
4902551	81	C	11/09/2022	05:02	-131.524	48.326	0	144.10	0	6.2400	0	33.1320	0	26.048	0	142.837	0	209.6	4	69.2	4	-1E+10	1	-1E+10	1	-1E+10	1	-1E+10	1	-1E+10	1	-1E+10	1
4902551	81	C	11/09/2022	05:02	-131.524	48.326	0	144.80	0	6.2410	0	33.1690	0	26.078	0	143.530	0	207.3	4	68.5	4	-1E+10	1	-1E+10	1	-1E+10	1	-1E+10	1	-1E+10	1	-1E+10	1
4902551	81	C	11/09/2022	05:02	-131.524	48.326	0	145.90	0	6.2510	0	33.2480	0	26.139	0	144.620	0	204.5	4	67.6	4	-1E+10	1	-1E+10	1	-1E+10	1	-1E+10	1	-1E+10	1	-1E+10	1
4902551	81	C	11/09/2022	05:02	-131.524	48.326	0	147.10	0	6.2620	0	33.2800	0	26.163	0	145.809	0	202.3	4	66.9	4	-1E+10	1	-1E+10	1	-1E+10	1	-1E+10	1	-1E+10	1	-1E+10	1
4902551	81	C	11/09/2022	05:02	-131.524	48.326	0	148.40	0	6.2690	0	33.3030	0	26.180	0	147.097	0	199.0	4	65.9	4	-1E+10	1	-1E+10	1	-1E+10	1	-1E+10	1	-1E+10	1	-1E+10	1
4902551	81	C	11/09/2022	05:02	-131.524	48.326	0	149.10	0	6.2690	0	33.3020	0	26.179	0	147.791	0	197.3	4	65.3	4	-1E+10	1	-1E+10	1	-1E+10	1	-1E+10	1	-1E+10	1	-1E+10	1
4902551	81	C	11/09/2022	05:02	-131.524	48.326	0	150.10	0	6.2730	0	33.3170	0	26.190	0	148.782	0	194.2	4	64.3	4	-1E+10	1	-1E+10	1	-1E+10	1	-1E+10	1	-1E+10	1	-1E+10	1
4902551	81	C	11/09/2022	05:02	-131.524	48.326	0	151.10	0	6.2970	0	33.3600	0	26.221	0	149.773	0	190.9	4	63.2	4	-1E+10	1	-1E+10	1	-1E+10	1	-1E+10	1	-1E+10	1	-1E+10	1
4902551	81	C	11/09/2022	05:02	-131.524	48.326	0	151.80	0	6.3100	0	33.3910	0	26.244	0	150.466	0	189.2	4	62.7	4	-1E+10	1	-1E+10	1	-1E+10	1	-1E+10	1	-1E+10	1	-1E+10	1
4902551	81	C	11/09/2022	05:02	-131.524	48.326	0	153.00	0	6.3170	0	33.4170	0	26.264	0	151.655	0	186.7	4	61.9	4	-1E+10	1	-1E+10	1	-1E+10	1	-1E+10	1	-1E+10	1	-1E+10	1
4902551	81	C	11/09/2022	05:02	-131.524	48.326	0	154.20	0	6.3280	0	33.4650	0	26.300	0	152.844	0	184.8	4	61.3	4	-1E+10	1	-1E+10	1	-1E+10	1	-1E+10	1	-1E+10	1	-1E+10	1
4902551	81	C	11/09/2022	05:02	-131.524	48.326	0	155.20	0	6.3240	0	33.4840	0	26.316	0	153.835	0	183.7	4	61.0	4	-1E+10	1	-1E+10	1	-1E+10	1	-1E+10	1	-1E+10	1	-1E+10	1
4902551	81	C	11/09/2022	05:02	-131.524	48.326	0	156.10	0	6.3200	0	33.4940	0	26.324	0	154.727	0	182.9	4	60.7	4	-1E+10	1	-1E+10	1	-1E+10	1	-1E+10	1	-1E+10	1	-1E+10	1
4902551	81	C	11/09/2022	05:02	-131.524	48.326	0	156.80	0	6.3150	0	33.4990	0	26.329	0	155.421	0	182.3	4	60.5	4	-1E+10	1	-1E+10	1	-1E+10	1	-1E+10	1	-1E+10	1	-1E+10	1
4902551	81	C	11/09/2022	05:02	-131.524	48.326	0	158.00	0	6.3010	0	33.5100	0	26.339	0	156.610	0	180.9	4	60.0	4	-1E+10	1	-1E+10	1	-1E+10	1	-1E+10	1	-1E+10	1	-1E+10	1
4902551	81	C	11/09/2022	05:02	-131.524	48.326	0	159.00	0	6.2890	0	33.5360	0	26.361	0	157.600	0	179.8	4	59.6	4	-1E+10	1	-1E+10	1	-1E+10	1	-1E+10	1	-1E+10	1	-1E+10	1
4902551	81	C	11/09/2022	05:02	-131.524	48.326	0	159.70	0	6.2880	0	33.5390	0	26.364	0	158.294	0	179.1	4	59.4	4	-1E+10	1	-1E+10	1	-1E+10	1	-1E+10	1	-1E+10	1	-1E+10	1
4902551	81	C	11/09/2022	05:02	-131.524	48.326	0	160.90	0	6.2800	0	33.5540	0	26.377	0	159.483	0	177.9	4	59.0	4	-1E+10	1	-1E+10	1	-1E+10	1	-1E+10	1	-1E+10	1	-1E+10	1
4902551	81	C	11/09/2022	05:02	-131.524	48.326	0	162.10	0	6.2760	0	33.5610	0	26.383	0	160.672	0	176.7	4	58.6	4	-1E+10	1	-1E+10	1	-1E+10	1	-1E+10	1	-1E+10	1	-1E+10	1
4902551	81	C	11/09/2022	05:02	-131.524	48.326	0	162.90	0	6.2690	0	33.5720	0	26.392	0	161.464	0	176.0	4	58.3	4	-1E+10	1	-1E+10	1	-1E+10	1	-1E+10	1	-1E+10	1	-1E+10	1
4902551	81	C	11/09/2022	05:02	-131.524	48.326	0	163.90	0	6.2660	0	33.5770	0	26.397	0	162.455	0	174.7	4	57.9	4	-1E+10	1	-1E+10	1	-1E+10	1	-1E+10	1	-1E+10	1	-1E+10	1
4902551	81	C	11/09/2022	05:02	-131.524	48.326	0	165.30	0	6.2610	0	33.5860	0	26.404	0	163.842	0	173.4	4	57.5	4	-1E+10	1	-1E+10	1	-1E+10	1	-1E+10	1	-1E+10	1	-1E+10	1
4902551	81	C	11/09/2022	05:02	-131.524	48.326	0	166.10	0	6.2510	0	33.5980	0	26.415	0	164.635	0	172.7	4	57.2	4	-1E+10	1	-1E+10	1	-1E+10	1	-1E+10	1	-1E+10	1	-1E+10	1
4902551	81	C	11/09/2022	05:02	-131.524	48.326	0	166.90	0	6.2400	0	33.6030	0	26.421	0	165.428	0	172.1	4	57.0	4	-1E+10	1	-1E+10	1	-1E+10	1	-1E+10	1	-1E+10	1	-1E+10	1
4902551	81	C	11/09/2022	05:02	-131.524	48.326	0	167.80	0	6.2240	0	33.6160	0	26.433	0	166.319	0	171.6	4	56.9	4	-1E+10	1	-1E+10	1	-1E+10	1	-1E+10	1	-1E+10	1	-1E+10	1
4902551	81	C	11/09/2022	05:02	-131.524	48.326	0	169.00	0	6.2240	0	33.6190	0	26.435	0	167.508	0	170.8	4	56.6	4	-1E+10	1	-1E+10	1	-1E+10	1	-1E+10	1	-1E+10	1	-1E+10	1
4902551	81	C	11/09/2022	05:02	-131.524	48.326	0	170.30	0	6.2210	0	33.6200	0	26.436	0	168.796	0	169.8	4	56.3	4	-1E+10	1	-1E+10	1	-1E+10	1	-1E+10	1	-1E+10	1	-1E+10	1
4902551	81	C	11/09/2022	05:02	-131.524	48.326	0	171.10	0	6.2200	0	33.6230	0	26.439	0	169.589	0	168.9	4	56.0	4	-1E+10	1	-1E+10	1	-1E+10	1	-1E+10	1	-1E+10	1	-1E+10	1
4902551	81	C	11/09/2022	05:02	-131.524	48.326	0	171.90	0	6.2120	0	33.6250	0	26.441	0	170.381	0	168.1	4	55.7	4	-1E+10	1	-1E+10	1	-1E+10	1	-1E+10	1	-1E+10	1	-1E+10	1
4902551	81	C	11/09/2022	05:02	-131.524	48.326	0	172.80	0	6.1810	0	33.6240	0	26.445	0	171.273	0	167.5	4	55.4	4	-1E+10	1	-1E+10	1	-1E+10	1	-1E+10	1	-1E+10	1	-1E+10	1
4902551	81	C	11/09/2022	05:02	-131.524	48.326	0	173.70	0	6.1090	0	33.6420	0	26.468	0	172.165	0	167.1	4	55.2	4	-1E+10	1	-1E+10	1	-1E+10	1	-1E+10	1	-1E+10	1	-1E+10	1
4902551	81	C	11/09/2022	05:02	-131.524	48.326	0	174.90	0	6.0720	0	33.6440	0	26.474	0	173.354	0	166.5	4	55.0	4	-1E+10	1	-1E+10	1	-1E+10	1	-1E+10	1	-1E+10	1	-1E+10	1
4902551	81	C	11/09/2022	05:02	-131.524	48.326	0	176.20	0	6.0480	0	33.6500	0	26.482	0	174.642	0	165.8	4	54.7	4	-1E+10	1	-1E+10	1	-1E+10	1	-1E+10	1	-1E+10	1	-1E+10	1
4902551	81	C	11/09/2022	05:02	-131.524	48.326	0	177.10	0	6.0210	0	33.6420	0	26.479	0	175.533	0	165.4	4	54.6	4	-1E+10	1	-1E+10	1	-1E+10	1	-1E+10	1	-1E+10	1	-1E+10	1
4902551	81	C	11/09/2022	05:02	-131.524	48.326	0	177.90	0	6.0140	0	33.6430	0	26.481	0	176.326	0	164.9	4	54.4	4	-1E+10	1	-1E+10	1	-1E+10	1	-1E+10	1	-1E+10	1	-1E+10	1
4902551	81	C	11/09/2022	05:02	-131.524	48.326	0	178.80	0	6.0100	0	33.6430	0	26.481	0	177.218	0	164.2	4	54.1	4	-1E+10	1	-1E+10	1	-1E+10	1	-1E+10	1	-1E+10	1	-1E+10	1
4902551	81	C	11/09/2022	05:02	-131.524	48.326	0	180.00	0	5.9930	0	33.6460	0	26.486	0	178.406	0	163.2	4	53.8	4	-1E+10	1	-1E+10	1	-1E+10	1	-1E+10	1	-1E+10	1	-1E+10	1
4902551	81	C	11/09/2022	05:02	-131.524	48.326	0	181.30	0	5.9800	0	33.6530	0	26.493	0	179.694	0	162.2	4	53.5	4	-1E+10	1	-1E+10	1	-1E+10	1	-1E+10	1	-1E+10	1	-1E+10	1
4902551	81	C	11/09/2022	05:02	-131.524	48.326	0	182.10	0	5.9680	0	33.6590	0	26.499	0	180.487	0	161.6	4	53.2	4	-1E+10	1	-1E+10	1	-1E+10	1	-1E+10	1	-1E+10	1	-1E+10	1
4902551	81	C	11/09/2022	05:02	-131.524	48.326	0	182.90	0	5.9610	0	33.6620	0	26.502	0	181.279	0	160.9	4	53.0	4	-1E+10	1	-1E+10	1	-1E+10	1	-1E+10	1	-1E+10	1	-1E+10	1
4902551	81	C	11/09/2022	05:02	-131.524	48.326	0	183.80	0	5.9540	0	33.6680	0	26.508	0	182.171	0	160.2	4	52.8	4	-1E+10	1	-1E+10	1	-1E+10	1	-1E+10	1	-1E+10	1	-1E+10	1
4902551	81	C	11/09/2022	05:02	-131.524	48.326	0	184.60	0	5.9520	0	33.6680	0	26.508	0	182.964	0	159.5	4	52.6	4	-1E+10	1	-1E+10	1	-1E+10	1	-1E+10	1	-1E+10	1	-1E+10	1
4902551	81	C	11/09/2022	05:02	-131.524	48.326	0	185.90	0	5.9510	0	33.6680	0	26.508	0	184.252	0	158.4	4	52.2	4	-1E+10	1	-1E+10	1	-1E+10	1	-1E+10	1	-1E+10	1	-1E+10	1
4902551	81	C	11/09/2022	05:02	-131.524	48.326	0	187.10	0	5.9450	0	33.6710	0	26.511	0	185.440	0	157.2	4	51.8	4	-1E+10	1	-1E+10	1	-1E+10	1	-1E+10	1	-1E+10	1	-1E+10	1
4902551	81	C	11/09/2022	05:02	-131.524	48.326	0	187.90	0	5.9300	0	33.6740	0	26.516	0	186.233	0	156.3	4	51.5	4	-1E+10	1	-1E+10	1	-1E+10	1	-1E+10	1	-1E+10	1	-1E+10	1
4902551	81	C	11/09/2022	05:02	-131.524	48.326	0	188.80	0	5.9010	0	33.6870	0	26.530	0	187.125	0	155.6	4	51.2	4	-1E+10	1	-1E+10	1	-1E+10	1	-1E+10	1	-1E+10	1	-1E+10	1
4902551	81	C	11/09/2022	05:02	-131.524	48.326	0	189.60	0	5.8860	0	33.6910	0	26.535	0	187.917	0	154.9	4	51.0	4	-1E+10	1	-1E+10	1	-1E+10	1	-1E+10	1	-1E+10	1	-1E+10	1
4902551	81	C	11/09/2022	05:02	-131.524	48.326	0	190.90	0	5.8690	0	33.6970	0	26.541	0	189.205	0	154.0	4	50.7	4	-1E+10	1	-1E+10	1	-1E+10	1	-1E+10	1	-1E+10	1	-1E+10	1
4902551	81	C	11/09/2022	05:02	-131.524	48.326	0	192.20	0	5.8580	0	33.7020	0	26.547	0	190.493	0	153.1	4	50.3	4	-1E+10	1	-1E+10	1	-1E+10	1	-1E+10	1	-1E+10	1	-1E+10	1
4902551	81	C	11/09/2022	05:02	-131.524	48.326	0	193.10	0	5.8440	0	33.7080	0	26.553	0	191.384	0	152.5	4	50.1	4	-1E+10	1	-1E+10	1	-1E+10	1	-1E+10	1	-1E+10	1	-1E+10	1
4902551	81	C	11/09/2022	05:02	-131.524	48.326	0	194.00	0	5.8390	0	33.7080	0	26.554	0	192.276	0	152.0	4	49.9	4	-1E+10	1	-1E+10	1	-1E+10	1	-1E+10	1	-1E+10	1	-1E+10	1
4902551	81	C	11/09/2022	05:02	-131.524	48.326	0	194.90	0	5.8370	0	33.7090	0	26.555	0	193.168	0	151.4	4	49.7	4	-1E+10	1	-1E+10	1	-1E+10	1	-1E+10	1	-1E+10	1	-1E+10	1
4902551	81	C	11/09/2022	05:02	-131.524	48.326	0	195.70	0	5.8200	0	33.7120	0	26.559	0	193.960	0	150.7	4	49.5	4	-1E+10	1	-1E+10	1	-1E+10	1	-1E+10	1	-1E+10	1	-1E+10	1
4902551	81	C	11/09/2022	05:02	-131.524	48.326	0	196.70	0	5.8180	0	33.7120	0	26.560	0	194.951	0	150.2	4	49.3	4	-1E+10	1	-1E+10	1	-1E+10	1	-1E+10	1	-1E+10	1	-1E+10	1
4902551	81	C	11/09/2022	05:02	-131.524	48.326	0	197.90	0	5.7920	0	33.7150	0	26.565	0	196.139	0	149.5	4	49.1	4	-1E+10	1	-1E+10	1	-1E+10	1	-1E+10	1	-1E+10	1	-1E+10	1
4902551	81	C	11/09/2022	05:02	-131.524	48.326	0	199.30	0	5.7760	0	33.7180	0	26.570	0	197.526	0	148.8	4	48.8	4	-1E+10	1	-1E+10	1	-1E+10	1	-1E+10	1	-1E+10	1	-1E+10	1
4902551	81	C	11/09/2022	05:02	-131.524	48.326	0	200.20	0	5.7580	0	33.7200	0	26.573	0	198.418	0	148.4	4	48.7	4	-1E+10	1	-1E+10	1	-1E+10	1	-1E+10	1	-1E+10	1	-1E+10	1
4902551	81	C	11/09/2022	05:02	-131.524	48.326	0	201.10	0	5.7550	0	33.7200	0	26.574	0	199.309	0	147.9	4	48.5	4	-1E+10	1	-1E+10	1	-1E+10	1	-1E+10	1	-1E+10	1	-1E+10	1
4902551	81	C	11/09/2022	05:02	-131.524	48.326	0	202.00	0	5.7520	0	33.7210	0	26.575	0	200.201	0	147.3	4	48.3	4	-1E+10	1	-1E+10	1	-1E+10	1	-1E+10	1	-1E+10	1	-1E+10	1
4902551	81	C	11/09/2022	05:02	-131.524	48.326	0	202.90	0	5.7410	0	33.7240	0	26.579	0	201.093	0	146.8	4	48.2	4	-1E+10	1	-1E+10	1	-1E+10	1	-1E+10	1	-1E+10	1	-1E+10	1
4902551	81	C	11/09/2022	05:02	-131.524	48.326	0	203.80	0	5.7400	0	33.7240	0	26.579	0	201.984	0	146.3	4	48.0	4	-1E+10	1	-1E+10	1	-1E+10	1	-1E+10	1	-1E+10	1	-1E+10	1
4902551	81	C	11/09/2022	05:02	-131.524	48.326	0	204.70	0	5.7400	0	33.7250	0	26.580	0	202.876	0	145.8	4	47.8	4	-1E+10	1	-1E+10	1	-1E+10	1	-1E+10	1	-1E+10	1	-1E+10	1
4902551	81	C	11/09/2022	05:02	-131.524	48.326	0	205.60	0	5.7140	0	33.7330	0	26.589	0	203.767	0	145.4	4	47.7	4	-1E+10	1	-1E+10	1	-1E+10	1	-1E+10	1	-1E+10	1	-1E+10	1
4902551	81	C	11/09/2022	05:02	-131.524	48.326	0	206.90	0	5.6870	0	33.7350	0	26.594	0	205.055	0	145.1	4	47.5	4	-1E+10	1	-1E+10	1	-1E+10	1	-1E+10	1	-1E+10	1	-1E+10	1
4902551	81	C	11/09/2022	05:02	-131.524	48.326	0	208.20	0	5.6820	0	33.7340	0	26.594	0	206.343	0	144.5	4	47.3	4	-1E+10	1	-1E+10	1	-1E+10	1	-1E+10	1	-1E+10	1	-1E+10	1
4902551	81	C	11/09/2022	05:02	-131.524	48.326	0	209.10	0	5.6800	0	33.7350	0	26.595	0	207.234	0	144.2	4	47.2	4	-1E+10	1	-1E+10	1	-1E+10	1	-1E+10	1	-1E+10	1	-1E+10	1
4902551	81	C	11/09/2022	05:02	-131.524	48.326	0	210.00	0	5.6760	0	33.7340	0	26.594	0	208.126	0	143.7	4	47.1	4	-1E+10	1	-1E+10	1	-1E+10	1	-1E+10	1	-1E+10	1	-1E+10	1
4902551	81	C	11/09/2022	05:02	-131.524	48.326	0	210.90	0	5.6680	0	33.7340	0	26.595	0	209.017	0	143.3	4	46.9	4	-1E+10	1	-1E+10	1	-1E+10	1	-1E+10	1	-1E+10	1	-1E+10	1
4902551	81	C	11/09/2022	05:02	-131.524	48.326	0	211.80	0	5.6510	0	33.7360	0	26.599	0	209.909	0	142.8	4	46.7	4	-1E+10	1	-1E+10	1	-1E+10	1	-1E+10	1	-1E+10	1	-1E+10	1
4902551	81	C	11/09/2022	05:02	-131.524	48.326	0	212.70	0	5.6350	0	33.7370	0	26.602	0	210.800	0	142.5	4	46.6	4	-1E+10	1	-1E+10	1	-1E+10	1	-1E+10	1	-1E+10	1	-1E+10	1
4902551	81	C	11/09/2022	05:02	-131.524	48.326	0	213.60	0	5.6350	0	33.7370	0	26.602	0	211.692	0	142.1	4	46.5	4	-1E+10	1	-1E+10	1	-1E+10	1	-1E+10	1	-1E+10	1	-1E+10	1
4902551	81	C	11/09/2022	05:02	-131.524	48.326	0	214.90	0	5.6240	0	33.7380	0	26.604	0	212.979	0	141.6	4	46.3	4	-1E+10	1	-1E+10	1	-1E+10	1	-1E+10	1	-1E+10	1	-1E+10	1
4902551	81	C	11/09/2022	05:02	-131.524	48.326	0	216.40	0	5.6150	0	33.7390	0	26.606	0	214.465	0	141.0	4	46.1	4	-1E+10	1	-1E+10	1	-1E+10	1	-1E+10	1	-1E+10	1	-1E+10	1
4902551	81	C	11/09/2022	05:02	-131.524	48.326	0	217.20	0	5.6090	0	33.7400	0	26.607	0	215.258	0	140.6	4	46.0	4	-1E+10	1	-1E+10	1	-1E+10	1	-1E+10	1	-1E+10	1	-1E+10	1
4902551	81	C	11/09/2022	05:02	-131.524	48.326	0	218.20	0	5.6100	0	33.7420	0	26.609	0	216.248	0	140.3	4	45.9	4	-1E+10	1	-1E+10	1	-1E+10	1	-1E+10	1	-1E+10	1	-1E+10	1
4902551	81	C	11/09/2022	05:02	-131.524	48.326	0	219.10	0	5.6080	0	33.7410	0	26.608	0	217.140	0	139.9	4	45.7	4	-1E+10	1	-1E+10	1	-1E+10	1	-1E+10	1	-1E+10	1	-1E+10	1
4902551	81	C	11/09/2022	05:02	-131.524	48.326	0	220.00	0	5.5950	0	33.7400	0	26.609	0	218.031	0	139.5	4	45.6	4	-1E+10	1	-1E+10	1	-1E+10	1	-1E+10	1	-1E+10	1	-1E+10	1
4902551	81	C	11/09/2022	05:02	-131.524	48.326	0	220.90	0	5.5840	0	33.7440	0	26.614	0	218.923	0	139.1	4	45.5	4	-1E+10	1	-1E+10	1	-1E+10	1	-1E+10	1	-1E+10	1	-1E+10	1
4902551	81	C	11/09/2022	05:02	-131.524	48.326	0	221.80	0	5.5720	0	33.7450	0	26.616	0	219.814	0	138.8	4	45.3	4	-1E+10	1	-1E+10	1	-1E+10	1	-1E+10	1	-1E+10	1	-1E+10	1
4902551	81	C	11/09/2022	05:02	-131.524	48.326	0	222.70	0	5.5620	0	33.7460	0	26.618	0	220.706	0	138.5	4	45.2	4	-1E+10	1	-1E+10	1	-1E+10	1	-1E+10	1	-1E+10	1	-1E+10	1
4902551	81	C	11/09/2022	05:02	-131.524	48.326	0	223.60	0	5.5530	0	33.7460	0	26.619	0	221.597	0	138.2	4	45.1	4	-1E+10	1	-1E+10	1	-1E+10	1	-1E+10	1	-1E+10	1	-1E+10	1
4902551	81	C	11/09/2022	05:02	-131.524	48.326	0	224.90	0	5.5470	0	33.7460	0	26.620	0	222.885	0	137.7	4	45.0	4	-1E+10	1	-1E+10	1	-1E+10	1	-1E+10	1	-1E+10	1	-1E+10	1
4902551	81	C	11/09/2022	05:02	-131.524	48.326	0	226.40	0	5.5440	0	33.7460	0	26.620	0	224.370	0	137.1	4	44.8	4	-1E+10	1	-1E+10	1	-1E+10	1	-1E+10	1	-1E+10	1	-1E+10	1
4902551	81	C	11/09/2022	05:02	-131.524	48.326	0	227.30	0	5.5410	0	33.7470	0	26.621	0	225.262	0	136.7	4	44.6	4	-1E+10	1	-1E+10	1	-1E+10	1	-1E+10	1	-1E+10	1	-1E+10	1
4902551	81	C	11/09/2022	05:02	-131.524	48.326	0	228.20	0	5.5350	0	33.7470	0	26.622	0	226.153	0	136.3	4	44.5	4	-1E+10	1	-1E+10	1	-1E+10	1	-1E+10	1	-1E+10	1	-1E+10	1
4902551	81	C	11/09/2022	05:02	-131.524	48.326	0	229.20	0	5.5280	0	33.7470	0	26.623	0	227.144	0	135.9	4	44.4	4	-1E+10	1	-1E+10	1	-1E+10	1	-1E+10	1	-1E+10	1	-1E+10	1
4902551	81	C	11/09/2022	05:02	-131.524	48.326	0	230.10	0	5.5230	0	33.7470	0	26.623	0	228.035	0	135.5	4	44.2	4	-1E+10	1	-1E+10	1	-1E+10	1	-1E+10	1	-1E+10	1	-1E+10	1
4902551	81	C	11/09/2022	05:02	-131.524	48.326	0	231.00	0	5.5200	0	33.7480	0	26.624	0	228.927	0	135.0	4	44.1	4	-1E+10	1	-1E+10	1	-1E+10	1	-1E+10	1	-1E+10	1	-1E+10	1
4902551	81	C	11/09/2022	05:02	-131.524	48.326	0	231.90	0	5.5130	0	33.7490	0	26.626	0	229.818	0	134.5	4	43.9	4	-1E+10	1	-1E+10	1	-1E+10	1	-1E+10	1	-1E+10	1	-1E+10	1
4902551	81	C	11/09/2022	05:02	-131.524	48.326	0	232.80	0	5.5050	0	33.7490	0	26.627	0	230.709	0	134.0	4	43.7	4	-1E+10	1	-1E+10	1	-1E+10	1	-1E+10	1	-1E+10	1	-1E+10	1
4902551	81	C	11/09/2022	05:02	-131.524	48.326	0	233.80	0	5.4980	0	33.7510	0	26.629	0	231.700	0	133.6	4	43.6	4	-1E+10	1	-1E+10	1	-1E+10	1	-1E+10	1	-1E+10	1	-1E+10	1
4902551	81	C	11/09/2022	05:02	-131.524	48.326	0	234.70	0	5.4940	0	33.7520	0	26.631	0	232.591	0	133.1	4	43.4	4	-1E+10	1	-1E+10	1	-1E+10	1	-1E+10	1	-1E+10	1	-1E+10	1
4902551	81	C	11/09/2022	05:02	-131.524	48.326	0	235.60	0	5.4860	0	33.7500	0	26.630	0	233.483	0	132.7	4	43.2	4	-1E+10	1	-1E+10	1	-1E+10	1	-1E+10	1	-1E+10	1	-1E+10	1
4902551	81	C	11/09/2022	05:02	-131.524	48.326	0	236.90	0	5.4600	0	33.7530	0	26.636	0	234.770	0	132.0	4	43.0	4	-1E+10	1	-1E+10	1	-1E+10	1	-1E+10	1	-1E+10	1	-1E+10	1
4902551	81	C	11/09/2022	05:02	-131.524	48.326	0	238.40	0	5.4380	0	33.7540	0	26.639	0	236.256	0	131.5	4	42.8	4	-1E+10	1	-1E+10	1	-1E+10	1	-1E+10	1	-1E+10	1	-1E+10	1
4902551	81	C	11/09/2022	05:02	-131.524	48.326	0	239.30	0	5.4290	0	33.7540	0	26.640	0	237.147	0	131.1	4	42.7	4	-1E+10	1	-1E+10	1	-1E+10	1	-1E+10	1	-1E+10	1	-1E+10	1
4902551	81	C	11/09/2022	05:02	-131.524	48.326	0	240.30	0	5.4300	0	33.7540	0	26.640	0	238.138	0	130.6	4	42.5	4	-1E+10	1	-1E+10	1	-1E+10	1	-1E+10	1	-1E+10	1	-1E+10	1
4902551	81	C	11/09/2022	05:02	-131.524	48.326	0	241.20	0	5.4290	0	33.7530	0	26.639	0	239.029	0	130.1	4	42.4	4	-1E+10	1	-1E+10	1	-1E+10	1	-1E+10	1	-1E+10	1	-1E+10	1
4902551	81	C	11/09/2022	05:02	-131.524	48.326	0	242.20	0	5.4250	0	33.7540	0	26.641	0	240.020	0	129.6	4	42.2	4	-1E+10	1	-1E+10	1	-1E+10	1	-1E+10	1	-1E+10	1	-1E+10	1
4902551	81	C	11/09/2022	05:02	-131.524	48.326	0	243.10	0	5.3890	0	33.7530	0	26.644	0	240.911	0	129.1	4	42.0	4	-1E+10	1	-1E+10	1	-1E+10	1	-1E+10	1	-1E+10	1	-1E+10	1
4902551	81	C	11/09/2022	05:02	-131.524	48.326	0	244.10	0	5.3890	0	33.7520	0	26.643	0	241.901	0	128.5	4	41.8	4	-1E+10	1	-1E+10	1	-1E+10	1	-1E+10	1	-1E+10	1	-1E+10	1
4902551	81	C	11/09/2022	05:02	-131.524	48.326	0	245.00	0	5.3890	0	33.7530	0	26.644	0	242.793	0	127.9	4	41.6	4	-1E+10	1	-1E+10	1	-1E+10	1	-1E+10	1	-1E+10	1	-1E+10	1
4902551	81	C	11/09/2022	05:02	-131.524	48.326	0	246.00	0	5.3740	0	33.7550	0	26.647	0	243.783	0	127.2	4	41.4	4	-1E+10	1	-1E+10	1	-1E+10	1	-1E+10	1	-1E+10	1	-1E+10	1
4902551	81	C	11/09/2022	05:02	-131.524	48.326	0	247.00	0	5.3690	0	33.7540	0	26.647	0	244.774	0	126.6	4	41.2	4	-1E+10	1	-1E+10	1	-1E+10	1	-1E+10	1	-1E+10	1	-1E+10	1
4902551	81	C	11/09/2022	05:02	-131.524	48.326	0	247.90	0	5.3430	0	33.7610	0	26.656	0	245.665	0	126.1	4	41.0	4	-1E+10	1	-1E+10	1	-1E+10	1	-1E+10	1	-1E+10	1	-1E+10	1
4902551	81	C	11/09/2022	05:02	-131.524	48.326	0	248.90	0	5.3300	0	33.7600	0	26.657	0	246.655	0	125.7	4	40.8	4	-1E+10	1	-1E+10	1	-1E+10	1	-1E+10	1	-1E+10	1	-1E+10	1
4902551	81	C	11/09/2022	05:02	-131.524	48.326	0	249.80	0	5.3240	0	33.7600	0	26.657	0	247.547	0	125.2	4	40.7	4	-1E+10	1	-1E+10	1	-1E+10	1	-1E+10	1	-1E+10	1	-1E+10	1
4902551	81	C	11/09/2022	05:02	-131.524	48.326	0	250.80	0	5.3210	0	33.7600	0	26.658	0	248.537	0	124.7	4	40.5	4	-1E+10	1	-1E+10	1	-1E+10	1	-1E+10	1	-1E+10	1	-1E+10	1
4902551	81	C	11/09/2022	05:02	-131.524	48.326	0	251.80	0	5.3190	0	33.7610	0	26.659	0	249.527	0	124.3	4	40.4	4	-1E+10	1	-1E+10	1	-1E+10	1	-1E+10	1	-1E+10	1	-1E+10	1
4902551	81	C	11/09/2022	05:02	-131.524	48.326	0	252.80	0	5.3140	0	33.7600	0	26.658	0	250.518	0	123.7	4	40.2	4	-1E+10	1	-1E+10	1	-1E+10	1	-1E+10	1	-1E+10	1	-1E+10	1
4902551	81	C	11/09/2022	05:02	-131.524	48.326	0	253.70	0	5.3050	0	33.7610	0	26.660	0	251.409	0	123.1	4	40.0	4	-1E+10	1	-1E+10	1	-1E+10	1	-1E+10	1	-1E+10	1	-1E+10	1
4902551	81	C	11/09/2022	05:02	-131.524	48.326	0	254.70	0	5.2950	0	33.7610	0	26.661	0	252.399	0	122.6	4	39.8	4	-1E+10	1	-1E+10	1	-1E+10	1	-1E+10	1	-1E+10	1	-1E+10	1
4902551	81	C	11/09/2022	05:02	-131.524	48.326	0	255.70	0	5.2570	0	33.7560	0	26.662	0	253.390	0	122.0	4	39.6	4	-1E+10	1	-1E+10	1	-1E+10	1	-1E+10	1	-1E+10	1	-1E+10	1
4902551	81	C	11/09/2022	05:02	-131.524	48.326	0	256.70	0	5.2490	0	33.7580	0	26.664	0	254.380	0	121.3	4	39.3	4	-1E+10	1	-1E+10	1	-1E+10	1	-1E+10	1	-1E+10	1	-1E+10	1
4902551	81	C	11/09/2022	05:02	-131.524	48.326	0	257.60	0	5.2360	0	33.7590	0	26.667	0	255.272	0	120.7	4	39.1	4	-1E+10	1	-1E+10	1	-1E+10	1	-1E+10	1	-1E+10	1	-1E+10	1
4902551	81	C	11/09/2022	05:02	-131.524	48.326	0	258.60	0	5.2150	0	33.7620	0	26.672	0	256.262	0	120.1	4	38.9	4	-1E+10	1	-1E+10	1	-1E+10	1	-1E+10	1	-1E+10	1	-1E+10	1
4902551	81	C	11/09/2022	05:02	-131.524	48.326	0	259.60	0	5.2170	0	33.7650	0	26.674	0	257.252	0	119.6	4	38.7	4	-1E+10	1	-1E+10	1	-1E+10	1	-1E+10	1	-1E+10	1	-1E+10	1
4902551	81	C	11/09/2022	05:02	-131.524	48.326	0	260.50	0	5.1970	0	33.7670	0	26.678	0	258.143	0	119.2	4	38.6	4	-1E+10	1	-1E+10	1	-1E+10	1	-1E+10	1	-1E+10	1	-1E+10	1
4902551	81	C	11/09/2022	05:02	-131.524	48.326	0	261.50	0	5.1950	0	33.7680	0	26.679	0	259.134	0	118.8	4	38.5	4	-1E+10	1	-1E+10	1	-1E+10	1	-1E+10	1	-1E+10	1	-1E+10	1
4902551	81	C	11/09/2022	05:02	-131.524	48.326	0	262.90	0	5.1650	0	33.7660	0	26.681	0	260.520	0	118.3	4	38.3	4	-1E+10	1	-1E+10	1	-1E+10	1	-1E+10	1	-1E+10	1	-1E+10	1
4902551	81	C	11/09/2022	05:02	-131.524	48.326	0	264.40	0	5.1530	0	33.7660	0	26.682	0	262.006	0	117.6	4	38.0	4	-1E+10	1	-1E+10	1	-1E+10	1	-1E+10	1	-1E+10	1	-1E+10	1
4902551	81	C	11/09/2022	05:02	-131.524	48.326	0	265.40	0	5.1450	0	33.7640	0	26.681	0	262.996	0	117.2	4	37.9	4	-1E+10	1	-1E+10	1	-1E+10	1	-1E+10	1	-1E+10	1	-1E+10	1
4902551	81	C	11/09/2022	05:02	-131.524	48.326	0	266.40	0	5.1400	0	33.7650	0	26.683	0	263.986	0	116.7	4	37.7	4	-1E+10	1	-1E+10	1	-1E+10	1	-1E+10	1	-1E+10	1	-1E+10	1
4902551	81	C	11/09/2022	05:02	-131.524	48.326	0	267.40	0	5.1300	0	33.7650	0	26.684	0	264.977	0	116.1	4	37.5	4	-1E+10	1	-1E+10	1	-1E+10	1	-1E+10	1	-1E+10	1	-1E+10	1
4902551	81	C	11/09/2022	05:02	-131.524	48.326	0	268.40	0	5.1150	0	33.7660	0	26.686	0	265.967	0	115.6	4	37.4	4	-1E+10	1	-1E+10	1	-1E+10	1	-1E+10	1	-1E+10	1	-1E+10	1
4902551	81	C	11/09/2022	05:02	-131.524	48.326	0	269.40	0	5.1000	0	33.7660	0	26.688	0	266.957	0	115.1	4	37.2	4	-1E+10	1	-1E+10	1	-1E+10	1	-1E+10	1	-1E+10	1	-1E+10	1
4902551	81	C	11/09/2022	05:02	-131.524	48.326	0	270.40	0	5.0960	0	33.7660	0	26.689	0	267.948	0	114.5	4	37.0	4	-1E+10	1	-1E+10	1	-1E+10	1	-1E+10	1	-1E+10	1	-1E+10	1
4902551	81	C	11/09/2022	05:02	-131.524	48.326	0	271.40	0	5.0960	0	33.7660	0	26.689	0	268.938	0	113.8	4	36.8	4	-1E+10	1	-1E+10	1	-1E+10	1	-1E+10	1	-1E+10	1	-1E+10	1
4902551	81	C	11/09/2022	05:02	-131.524	48.326	0	272.40	0	5.0900	0	33.7670	0	26.690	0	269.928	0	113.2	4	36.6	4	-1E+10	1	-1E+10	1	-1E+10	1	-1E+10	1	-1E+10	1	-1E+10	1
4902551	81	C	11/09/2022	05:02	-131.524	48.326	0	273.40	0	5.0770	0	33.7690	0	26.693	0	270.918	0	112.5	4	36.3	4	-1E+10	1	-1E+10	1	-1E+10	1	-1E+10	1	-1E+10	1	-1E+10	1
4902551	81	C	11/09/2022	05:02	-131.524	48.326	0	274.40	0	5.0720	0	33.7680	0	26.693	0	271.909	0	111.9	4	36.1	4	-1E+10	1	-1E+10	1	-1E+10	1	-1E+10	1	-1E+10	1	-1E+10	1
4902551	81	C	11/09/2022	05:02	-131.524	48.326	0	275.30	0	5.0590	0	33.7710	0	26.697	0	272.800	0	111.2	4	35.9	4	-1E+10	1	-1E+10	1	-1E+10	1	-1E+10	1	-1E+10	1	-1E+10	1
4902551	81	C	11/09/2022	05:02	-131.524	48.326	0	276.40	0	5.0480	0	33.7740	0	26.700	0	273.889	0	110.6	4	35.7	4	-1E+10	1	-1E+10	1	-1E+10	1	-1E+10	1	-1E+10	1	-1E+10	1
4902551	81	C	11/09/2022	05:02	-131.524	48.326	0	277.40	0	5.0420	0	33.7780	0	26.704	0	274.879	0	110.1	4	35.5	4	-1E+10	1	-1E+10	1	-1E+10	1	-1E+10	1	-1E+10	1	-1E+10	1
4902551	81	C	11/09/2022	05:02	-131.524	48.326	0	278.40	0	5.0410	0	33.7830	0	26.708	0	275.870	0	109.7	4	35.4	4	-1E+10	1	-1E+10	1	-1E+10	1	-1E+10	1	-1E+10	1	-1E+10	1
4902551	81	C	11/09/2022	05:02	-131.524	48.326	0	279.50	0	5.0440	0	33.7840	0	26.709	0	276.959	0	109.3	4	35.3	4	-1E+10	1	-1E+10	1	-1E+10	1	-1E+10	1	-1E+10	1	-1E+10	1
4902551	81	C	11/09/2022	05:02	-131.524	48.326	0	280.50	0	5.0440	0	33.7870	0	26.711	0	277.949	0	108.9	4	35.2	4	-1E+10	1	-1E+10	1	-1E+10	1	-1E+10	1	-1E+10	1	-1E+10	1
4902551	81	C	11/09/2022	05:02	-131.524	48.326	0	281.50	0	5.0460	0	33.7870	0	26.711	0	278.939	0	108.6	4	35.0	4	-1E+10	1	-1E+10	1	-1E+10	1	-1E+10	1	-1E+10	1	-1E+10	1
4902551	81	C	11/09/2022	05:02	-131.524	48.326	0	282.60	0	5.0490	0	33.7890	0	26.712	0	280.029	0	108.2	4	34.9	4	-1E+10	1	-1E+10	1	-1E+10	1	-1E+10	1	-1E+10	1	-1E+10	1
4902551	81	C	11/09/2022	05:02	-131.524	48.326	0	283.60	0	5.0500	0	33.7910	0	26.714	0	281.019	0	107.9	4	34.8	4	-1E+10	1	-1E+10	1	-1E+10	1	-1E+10	1	-1E+10	1	-1E+10	1
4902551	81	C	11/09/2022	05:02	-131.524	48.326	0	284.60	0	5.0500	0	33.7900	0	26.713	0	282.009	0	107.5	4	34.7	4	-1E+10	1	-1E+10	1	-1E+10	1	-1E+10	1	-1E+10	1	-1E+10	1
4902551	81	C	11/09/2022	05:02	-131.524	48.326	0	285.70	0	5.0480	0	33.7890	0	26.712	0	283.098	0	107.1	4	34.6	4	-1E+10	1	-1E+10	1	-1E+10	1	-1E+10	1	-1E+10	1	-1E+10	1
4902551	81	C	11/09/2022	05:02	-131.524	48.326	0	286.70	0	5.0460	0	33.7900	0	26.713	0	284.089	0	106.6	4	34.4	4	-1E+10	1	-1E+10	1	-1E+10	1	-1E+10	1	-1E+10	1	-1E+10	1
4902551	81	C	11/09/2022	05:02	-131.524	48.326	0	287.80	0	5.0460	0	33.7900	0	26.713	0	285.178	0	106.0	4	34.2	4	-1E+10	1	-1E+10	1	-1E+10	1	-1E+10	1	-1E+10	1	-1E+10	1
4902551	81	C	11/09/2022	05:02	-131.524	48.326	0	288.80	0	5.0430	0	33.7910	0	26.715	0	286.168	0	105.5	4	34.1	4	-1E+10	1	-1E+10	1	-1E+10	1	-1E+10	1	-1E+10	1	-1E+10	1
4902551	81	C	11/09/2022	05:02	-131.524	48.326	0	289.90	0	5.0400	0	33.7900	0	26.714	0	287.257	0	104.8	4	33.8	4	-1E+10	1	-1E+10	1	-1E+10	1	-1E+10	1	-1E+10	1	-1E+10	1
4902551	81	C	11/09/2022	05:02	-131.524	48.326	0	290.90	0	5.0320	0	33.7890	0	26.714	0	288.247	0	104.2	4	33.6	4	-1E+10	1	-1E+10	1	-1E+10	1	-1E+10	1	-1E+10	1	-1E+10	1
4902551	81	C	11/09/2022	05:02	-131.524	48.326	0	291.90	0	5.0350	0	33.7910	0	26.715	0	289.237	0	103.5	4	33.4	4	-1E+10	1	-1E+10	1	-1E+10	1	-1E+10	1	-1E+10	1	-1E+10	1
4902551	81	C	11/09/2022	05:02	-131.524	48.326	0	293.00	0	5.0300	0	33.7930	0	26.718	0	290.327	0	102.8	4	33.2	4	-1E+10	1	-1E+10	1	-1E+10	1	-1E+10	1	-1E+10	1	-1E+10	1
4902551	81	C	11/09/2022	05:02	-131.524	48.326	0	294.00	0	5.0160	0	33.7950	0	26.721	0	291.317	0	102.1	4	32.9	4	-1E+10	1	-1E+10	1	-1E+10	1	-1E+10	1	-1E+10	1	-1E+10	1
4902551	81	C	11/09/2022	05:02	-131.524	48.326	0	295.00	0	4.9880	0	33.7970	0	26.726	0	292.307	0	101.6	4	32.7	4	-1E+10	1	-1E+10	1	-1E+10	1	-1E+10	1	-1E+10	1	-1E+10	1
4902551	81	C	11/09/2022	05:02	-131.524	48.326	0	296.00	0	4.9720	0	33.7970	0	26.727	0	293.297	0	101.1	4	32.6	4	-1E+10	1	-1E+10	1	-1E+10	1	-1E+10	1	-1E+10	1	-1E+10	1
4902551	81	C	11/09/2022	05:02	-131.524	48.326	0	297.00	0	4.9620	0	33.7980	0	26.729	0	294.287	0	100.6	4	32.4	4	-1E+10	1	-1E+10	1	-1E+10	1	-1E+10	1	-1E+10	1	-1E+10	1
4902551	81	C	11/09/2022	05:02	-131.524	48.326	0	298.10	0	4.9570	0	33.7970	0	26.729	0	295.377	0	100.0	4	32.2	4	-1E+10	1	-1E+10	1	-1E+10	1	-1E+10	1	-1E+10	1	-1E+10	1
4902551	81	C	11/09/2022	05:02	-131.524	48.326	0	299.00	0	4.9530	0	33.7960	0	26.729	0	296.268	0	99.3	4	32.0	4	-1E+10	1	-1E+10	1	-1E+10	1	-1E+10	1	-1E+10	1	-1E+10	1
4902551	81	C	11/09/2022	05:02	-131.524	48.326	0	299.70	0	4.9450	0	33.7980	0	26.731	0	296.961	0	98.9	4	31.8	4	-1E+10	1	-1E+10	1	-1E+10	1	-1E+10	1	-1E+10	1	-1E+10	1
4902551	81	C	11/09/2022	05:02	-131.524	48.326	0	300.90	0	4.9270	0	33.7990	0	26.734	0	298.149	0	98.1	4	31.6	4	-1E+10	1	-1E+10	1	-1E+10	1	-1E+10	1	-1E+10	1	-1E+10	1
4902551	81	C	11/09/2022	05:02	-131.524	48.326	0	302.00	0	4.9090	0	33.8010	0	26.738	0	299.238	0	97.3	4	31.3	4	-1E+10	1	-1E+10	1	-1E+10	1	-1E+10	1	-1E+10	1	-1E+10	1
4902551	81	C	11/09/2022	05:02	-131.524	48.326	0	303.20	0	4.8980	0	33.8030	0	26.741	0	300.426	0	96.4	4	31.0	4	-1E+10	1	-1E+10	1	-1E+10	1	-1E+10	1	-1E+10	1	-1E+10	1
4902551	81	C	11/09/2022	05:02	-131.524	48.326	0	304.00	0	4.8920	0	33.8040	0	26.742	0	301.218	0	95.8	4	30.8	4	-1E+10	1	-1E+10	1	-1E+10	1	-1E+10	1	-1E+10	1	-1E+10	1
4902551	81	C	11/09/2022	05:02	-131.524	48.326	0	304.80	0	4.8900	0	33.8050	0	26.743	0	302.010	0	95.3	4	30.6	4	-1E+10	1	-1E+10	1	-1E+10	1	-1E+10	1	-1E+10	1	-1E+10	1
4902551	81	C	11/09/2022	05:02	-131.524	48.326	0	305.90	0	4.8700	0	33.8080	0	26.748	0	303.100	0	94.4	4	30.4	4	-1E+10	1	-1E+10	1	-1E+10	1	-1E+10	1	-1E+10	1	-1E+10	1
4902551	81	C	11/09/2022	05:02	-131.524	48.326	0	307.10	0	4.8490	0	33.8090	0	26.751	0	304.288	0	93.7	4	30.1	4	-1E+10	1	-1E+10	1	-1E+10	1	-1E+10	1	-1E+10	1	-1E+10	1
4902551	81	C	11/09/2022	05:02	-131.524	48.326	0	307.90	0	4.8470	0	33.8110	0	26.753	0	305.080	0	93.2	4	29.9	4	-1E+10	1	-1E+10	1	-1E+10	1	-1E+10	1	-1E+10	1	-1E+10	1
4902551	81	C	11/09/2022	05:02	-131.524	48.326	0	308.70	0	4.8420	0	33.8110	0	26.753	0	305.872	0	92.7	4	29.8	4	-1E+10	1	-1E+10	1	-1E+10	1	-1E+10	1	-1E+10	1	-1E+10	1
4902551	81	C	11/09/2022	05:02	-131.524	48.326	0	309.90	0	4.8320	0	33.8120	0	26.755	0	307.060	0	91.9	4	29.5	4	-1E+10	1	-1E+10	1	-1E+10	1	-1E+10	1	-1E+10	1	-1E+10	1
4902551	81	C	11/09/2022	05:02	-131.524	48.326	0	311.20	0	4.8190	0	33.8150	0	26.759	0	308.347	0	91.2	4	29.3	4	-1E+10	1	-1E+10	1	-1E+10	1	-1E+10	1	-1E+10	1	-1E+10	1
4902551	81	C	11/09/2022	05:02	-131.524	48.326	0	312.00	0	4.8100	0	33.8160	0	26.761	0	309.139	0	90.8	4	29.2	4	-1E+10	1	-1E+10	1	-1E+10	1	-1E+10	1	-1E+10	1	-1E+10	1
4902551	81	C	11/09/2022	05:02	-131.524	48.326	0	312.80	0	4.8080	0	33.8160	0	26.761	0	309.931	0	90.3	4	29.0	4	-1E+10	1	-1E+10	1	-1E+10	1	-1E+10	1	-1E+10	1	-1E+10	1
4902551	81	C	11/09/2022	05:02	-131.524	48.326	0	314.00	0	4.8030	0	33.8170	0	26.762	0	311.119	0	89.5	4	28.7	4	-1E+10	1	-1E+10	1	-1E+10	1	-1E+10	1	-1E+10	1	-1E+10	1
4902551	81	C	11/09/2022	05:02	-131.524	48.326	0	315.20	0	4.8010	0	33.8180	0	26.763	0	312.307	0	88.6	4	28.5	4	-1E+10	1	-1E+10	1	-1E+10	1	-1E+10	1	-1E+10	1	-1E+10	1
4902551	81	C	11/09/2022	05:02	-131.524	48.326	0	316.00	0	4.7970	0	33.8180	0	26.764	0	313.099	0	88.0	4	28.3	4	-1E+10	1	-1E+10	1	-1E+10	1	-1E+10	1	-1E+10	1	-1E+10	1
4902551	81	C	11/09/2022	05:02	-131.524	48.326	0	316.90	0	4.7910	0	33.8200	0	26.766	0	313.991	0	87.4	4	28.1	4	-1E+10	1	-1E+10	1	-1E+10	1	-1E+10	1	-1E+10	1	-1E+10	1
4902551	81	C	11/09/2022	05:02	-131.524	48.326	0	317.70	0	4.7800	0	33.8200	0	26.767	0	314.783	0	86.8	4	27.8	4	-1E+10	1	-1E+10	1	-1E+10	1	-1E+10	1	-1E+10	1	-1E+10	1
4902551	81	C	11/09/2022	05:02	-131.524	48.326	0	318.90	0	4.7610	0	33.8230	0	26.772	0	315.971	0	86.0	4	27.6	4	-1E+10	1	-1E+10	1	-1E+10	1	-1E+10	1	-1E+10	1	-1E+10	1
4902551	81	C	11/09/2022	05:02	-131.524	48.326	0	320.20	0	4.7490	0	33.8250	0	26.775	0	317.258	0	85.2	4	27.3	4	-1E+10	1	-1E+10	1	-1E+10	1	-1E+10	1	-1E+10	1	-1E+10	1
4902551	81	C	11/09/2022	05:02	-131.524	48.326	0	321.00	0	4.7370	0	33.8280	0	26.778	0	318.050	0	84.7	4	27.1	4	-1E+10	1	-1E+10	1	-1E+10	1	-1E+10	1	-1E+10	1	-1E+10	1
4902551	81	C	11/09/2022	05:02	-131.524	48.326	0	321.90	0	4.7310	0	33.8290	0	26.780	0	318.941	0	84.2	4	27.0	4	-1E+10	1	-1E+10	1	-1E+10	1	-1E+10	1	-1E+10	1	-1E+10	1
4902551	81	C	11/09/2022	05:02	-131.524	48.326	0	322.70	0	4.7150	0	33.8310	0	26.783	0	319.733	0	83.7	4	26.8	4	-1E+10	1	-1E+10	1	-1E+10	1	-1E+10	1	-1E+10	1	-1E+10	1
4902551	81	C	11/09/2022	05:02	-131.524	48.326	0	323.90	0	4.7080	0	33.8330	0	26.786	0	320.921	0	83.1	4	26.6	4	-1E+10	1	-1E+10	1	-1E+10	1	-1E+10	1	-1E+10	1	-1E+10	1
4902551	81	C	11/09/2022	05:02	-131.524	48.326	0	325.30	0	4.6930	0	33.8360	0	26.790	0	322.307	0	82.5	4	26.4	4	-1E+10	1	-1E+10	1	-1E+10	1	-1E+10	1	-1E+10	1	-1E+10	1
4902551	81	C	11/09/2022	05:02	-131.524	48.326	0	326.10	0	4.6910	0	33.8370	0	26.791	0	323.099	0	82.1	4	26.3	4	-1E+10	1	-1E+10	1	-1E+10	1	-1E+10	1	-1E+10	1	-1E+10	1
4902551	81	C	11/09/2022	05:02	-131.524	48.326	0	327.00	0	4.6840	0	33.8380	0	26.792	0	323.990	0	81.7	4	26.1	4	-1E+10	1	-1E+10	1	-1E+10	1	-1E+10	1	-1E+10	1	-1E+10	1
4902551	81	C	11/09/2022	05:02	-131.524	48.326	0	327.90	0	4.6800	0	33.8390	0	26.793	0	324.881	0	81.2	4	26.0	4	-1E+10	1	-1E+10	1	-1E+10	1	-1E+10	1	-1E+10	1	-1E+10	1
4902551	81	C	11/09/2022	05:02	-131.524	48.326	0	328.80	0	4.6790	0	33.8390	0	26.794	0	325.772	0	80.8	4	25.8	4	-1E+10	1	-1E+10	1	-1E+10	1	-1E+10	1	-1E+10	1	-1E+10	1
4902551	81	C	11/09/2022	05:02	-131.524	48.326	0	329.60	0	4.6770	0	33.8390	0	26.794	0	326.564	0	80.2	4	25.7	4	-1E+10	1	-1E+10	1	-1E+10	1	-1E+10	1	-1E+10	1	-1E+10	1
4902551	81	C	11/09/2022	05:02	-131.524	48.326	0	330.90	0	4.6660	0	33.8420	0	26.797	0	327.851	0	79.4	4	25.4	4	-1E+10	1	-1E+10	1	-1E+10	1	-1E+10	1	-1E+10	1	-1E+10	1
4902551	81	C	11/09/2022	05:02	-131.524	48.326	0	332.30	0	4.6520	0	33.8460	0	26.802	0	329.237	0	78.7	4	25.2	4	-1E+10	1	-1E+10	1	-1E+10	1	-1E+10	1	-1E+10	1	-1E+10	1
4902551	81	C	11/09/2022	05:02	-131.524	48.326	0	333.10	0	4.6480	0	33.8450	0	26.802	0	330.029	0	78.2	4	25.0	4	-1E+10	1	-1E+10	1	-1E+10	1	-1E+10	1	-1E+10	1	-1E+10	1
4902551	81	C	11/09/2022	05:02	-131.524	48.326	0	334.00	0	4.6440	0	33.8470	0	26.804	0	330.920	0	77.6	4	24.8	4	-1E+10	1	-1E+10	1	-1E+10	1	-1E+10	1	-1E+10	1	-1E+10	1
4902551	81	C	11/09/2022	05:02	-131.524	48.326	0	334.90	0	4.6320	0	33.8500	0	26.807	0	331.811	0	77.2	4	24.7	4	-1E+10	1	-1E+10	1	-1E+10	1	-1E+10	1	-1E+10	1	-1E+10	1
4902551	81	C	11/09/2022	05:02	-131.524	48.326	0	335.80	0	4.6260	0	33.8500	0	26.808	0	332.702	0	76.8	4	24.6	4	-1E+10	1	-1E+10	1	-1E+10	1	-1E+10	1	-1E+10	1	-1E+10	1
4902551	81	C	11/09/2022	05:02	-131.524	48.326	0	336.70	0	4.6180	0	33.8520	0	26.811	0	333.593	0	76.4	4	24.4	4	-1E+10	1	-1E+10	1	-1E+10	1	-1E+10	1	-1E+10	1	-1E+10	1
4902551	81	C	11/09/2022	05:02	-131.524	48.326	0	337.60	0	4.6050	0	33.8550	0	26.814	0	334.484	0	76.0	4	24.3	4	-1E+10	1	-1E+10	1	-1E+10	1	-1E+10	1	-1E+10	1	-1E+10	1
4902551	81	C	11/09/2022	05:02	-131.524	48.326	0	338.90	0	4.5960	0	33.8570	0	26.817	0	335.771	0	75.4	4	24.1	4	-1E+10	1	-1E+10	1	-1E+10	1	-1E+10	1	-1E+10	1	-1E+10	1
4902551	81	C	11/09/2022	05:02	-131.524	48.326	0	340.30	0	4.5910	0	33.8580	0	26.818	0	337.157	0	74.7	4	23.9	4	-1E+10	1	-1E+10	1	-1E+10	1	-1E+10	1	-1E+10	1	-1E+10	1
4902551	81	C	11/09/2022	05:02	-131.524	48.326	0	341.20	0	4.5860	0	33.8600	0	26.820	0	338.048	0	74.3	4	23.7	4	-1E+10	1	-1E+10	1	-1E+10	1	-1E+10	1	-1E+10	1	-1E+10	1
4902551	81	C	11/09/2022	05:02	-131.524	48.326	0	342.10	0	4.5830	0	33.8600	0	26.821	0	338.939	0	73.9	4	23.6	4	-1E+10	1	-1E+10	1	-1E+10	1	-1E+10	1	-1E+10	1	-1E+10	1
4902551	81	C	11/09/2022	05:02	-131.524	48.326	0	343.00	0	4.5750	0	33.8620	0	26.823	0	339.830	0	73.5	4	23.5	4	-1E+10	1	-1E+10	1	-1E+10	1	-1E+10	1	-1E+10	1	-1E+10	1
4902551	81	C	11/09/2022	05:02	-131.524	48.326	0	343.90	0	4.5720	0	33.8630	0	26.824	0	340.720	0	73.0	4	23.3	4	-1E+10	1	-1E+10	1	-1E+10	1	-1E+10	1	-1E+10	1	-1E+10	1
4902551	81	C	11/09/2022	05:02	-131.524	48.326	0	344.90	0	4.5640	0	33.8650	0	26.827	0	341.710	0	72.5	4	23.2	4	-1E+10	1	-1E+10	1	-1E+10	1	-1E+10	1	-1E+10	1	-1E+10	1
4902551	81	C	11/09/2022	05:02	-131.524	48.326	0	345.80	0	4.5620	0	33.8660	0	26.828	0	342.601	0	72.1	4	23.0	4	-1E+10	1	-1E+10	1	-1E+10	1	-1E+10	1	-1E+10	1	-1E+10	1
4902551	81	C	11/09/2022	05:02	-131.524	48.326	0	346.70	0	4.5480	0	33.8700	0	26.833	0	343.492	0	71.6	4	22.9	4	-1E+10	1	-1E+10	1	-1E+10	1	-1E+10	1	-1E+10	1	-1E+10	1
4902551	81	C	11/09/2022	05:02	-131.524	48.326	0	347.90	0	4.5370	0	33.8720	0	26.835	0	344.680	0	71.1	4	22.7	4	-1E+10	1	-1E+10	1	-1E+10	1	-1E+10	1	-1E+10	1	-1E+10	1
4902551	81	C	11/09/2022	05:02	-131.524	48.326	0	349.30	0	4.5320	0	33.8740	0	26.837	0	346.066	0	70.5	4	22.5	4	-1E+10	1	-1E+10	1	-1E+10	1	-1E+10	1	-1E+10	1	-1E+10	1
4902551	81	C	11/09/2022	05:02	-131.524	48.326	0	350.20	0	4.5290	0	33.8740	0	26.838	0	346.957	0	70.1	4	22.4	4	-1E+10	1	-1E+10	1	-1E+10	1	-1E+10	1	-1E+10	1	-1E+10	1
4902551	81	C	11/09/2022	05:02	-131.524	48.326	0	352.90	0	4.5100	0	33.8790	0	26.844	0	349.630	0	68.8	4	21.9	4	-1E+10	1	-1E+10	1	-1E+10	1	-1E+10	1	-1E+10	1	-1E+10	1
4902551	81	C	11/09/2022	05:02	-131.524	48.326	0	357.70	0	4.4770	0	33.8890	0	26.855	0	354.381	0	66.9	4	21.3	4	-1E+10	1	-1E+10	1	-1E+10	1	-1E+10	1	-1E+10	1	-1E+10	1
4902551	81	C	11/09/2022	05:02	-131.524	48.326	0	363.10	0	4.4540	0	33.8990	0	26.866	0	359.726	0	65.0	4	20.7	4	-1E+10	1	-1E+10	1	-1E+10	1	-1E+10	1	-1E+10	1	-1E+10	1
4902551	81	C	11/09/2022	05:02	-131.524	48.326	0	368.00	0	4.4370	0	33.9070	0	26.874	0	364.576	0	63.4	4	20.2	4	-1E+10	1	-1E+10	1	-1E+10	1	-1E+10	1	-1E+10	1	-1E+10	1
4902551	81	C	11/09/2022	05:02	-131.524	48.326	0	372.90	0	4.4240	0	33.9130	0	26.880	0	369.426	0	61.7	4	19.6	4	-1E+10	1	-1E+10	1	-1E+10	1	-1E+10	1	-1E+10	1	-1E+10	1
4902551	81	C	11/09/2022	05:02	-131.524	48.326	0	378.00	0	4.4050	0	33.9230	0	26.890	0	374.474	0	60.1	4	19.1	4	-1E+10	1	-1E+10	1	-1E+10	1	-1E+10	1	-1E+10	1	-1E+10	1
4902551	81	C	11/09/2022	05:02	-131.524	48.326	0	383.00	0	4.3970	0	33.9270	0	26.894	0	379.423	0	58.5	4	18.6	4	-1E+10	1	-1E+10	1	-1E+10	1	-1E+10	1	-1E+10	1	-1E+10	1
4902551	81	C	11/09/2022	05:02	-131.524	48.326	0	388.10	0	4.3830	0	33.9360	0	26.903	0	384.471	0	57.1	4	18.2	4	-1E+10	1	-1E+10	1	-1E+10	1	-1E+10	1	-1E+10	1	-1E+10	1
4902551	81	C	11/09/2022	05:02	-131.524	48.326	0	392.80	0	4.3780	0	33.9400	0	26.907	0	389.122	0	55.7	4	17.7	4	-1E+10	1	-1E+10	1	-1E+10	1	-1E+10	1	-1E+10	1	-1E+10	1
4902551	81	C	11/09/2022	05:02	-131.524	48.326	0	397.90	0	4.3720	0	33.9460	0	26.912	0	394.170	0	53.5	4	17.0	4	-1E+10	1	-1E+10	1	-1E+10	1	-1E+10	1	-1E+10	1	-1E+10	1
4902551	81	C	11/09/2022	05:02	-131.524	48.326	0	403.00	0	4.3770	0	33.9570	0	26.920	0	399.217	0	52.0	4	16.5	4	-1E+10	1	-1E+10	1	-1E+10	1	-1E+10	1	-1E+10	1	-1E+10	1
4902551	81	C	11/09/2022	05:02	-131.524	48.326	0	407.70	0	4.3710	0	33.9600	0	26.923	0	403.868	0	50.9	4	16.2	4	-1E+10	1	-1E+10	1	-1E+10	1	-1E+10	1	-1E+10	1	-1E+10	1
4902551	81	C	11/09/2022	05:02	-131.524	48.326	0	413.00	0	4.3640	0	33.9660	0	26.929	0	409.113	0	49.5	4	15.7	4	-1E+10	1	-1E+10	1	-1E+10	1	-1E+10	1	-1E+10	1	-1E+10	1
4902551	81	C	11/09/2022	05:02	-131.524	48.326	0	418.30	0	4.3480	0	33.9730	0	26.936	0	414.358	0	48.3	4	15.3	4	-1E+10	1	-1E+10	1	-1E+10	1	-1E+10	1	-1E+10	1	-1E+10	1
4902551	81	C	11/09/2022	05:02	-131.524	48.326	0	423.10	0	4.3350	0	33.9800	0	26.943	0	419.108	0	47.4	4	15.0	4	-1E+10	1	-1E+10	1	-1E+10	1	-1E+10	1	-1E+10	1	-1E+10	1
4902551	81	C	11/09/2022	05:02	-131.524	48.326	0	428.00	0	4.3230	0	33.9860	0	26.949	0	423.957	0	46.5	4	14.8	4	-1E+10	1	-1E+10	1	-1E+10	1	-1E+10	1	-1E+10	1	-1E+10	1
4902551	81	C	11/09/2022	05:02	-131.524	48.326	0	432.80	0	4.3050	0	33.9900	0	26.954	0	428.707	0	45.3	4	14.4	4	-1E+10	1	-1E+10	1	-1E+10	1	-1E+10	1	-1E+10	1	-1E+10	1
4902551	81	C	11/09/2022	05:02	-131.524	48.326	0	437.60	0	4.3030	0	33.9970	0	26.960	0	433.456	0	44.0	4	14.0	4	-1E+10	1	-1E+10	1	-1E+10	1	-1E+10	1	-1E+10	1	-1E+10	1
4902551	81	C	11/09/2022	05:02	-131.524	48.326	0	442.90	0	4.2790	0	34.0060	0	26.970	0	438.700	0	42.4	4	13.5	4	-1E+10	1	-1E+10	1	-1E+10	1	-1E+10	1	-1E+10	1	-1E+10	1
4902551	81	C	11/09/2022	05:02	-131.524	48.326	0	448.30	0	4.2500	0	34.0130	0	26.979	0	444.043	0	41.2	4	13.1	4	-1E+10	1	-1E+10	1	-1E+10	1	-1E+10	1	-1E+10	1	-1E+10	1
4902551	81	C	11/09/2022	05:02	-131.524	48.326	0	453.30	0	4.2420	0	34.0200	0	26.985	0	448.991	0	40.0	4	12.7	4	-1E+10	1	-1E+10	1	-1E+10	1	-1E+10	1	-1E+10	1	-1E+10	1
4902551	81	C	11/09/2022	05:02	-131.524	48.326	0	458.30	0	4.2260	0	34.0260	0	26.992	0	453.938	0	39.0	4	12.4	4	-1E+10	1	-1E+10	1	-1E+10	1	-1E+10	1	-1E+10	1	-1E+10	1
4902551	81	C	11/09/2022	05:02	-131.524	48.326	0	462.90	0	4.2130	0	34.0320	0	26.998	0	458.489	0	38.3	4	12.1	4	-1E+10	1	-1E+10	1	-1E+10	1	-1E+10	1	-1E+10	1	-1E+10	1
4902551	81	C	11/09/2022	05:02	-131.524	48.326	0	467.60	0	4.2100	0	34.0370	0	27.002	0	463.139	0	37.8	4	12.0	4	-1E+10	1	-1E+10	1	-1E+10	1	-1E+10	1	-1E+10	1	-1E+10	1
4902551	81	C	11/09/2022	05:02	-131.524	48.326	0	472.90	0	4.2050	0	34.0410	0	27.006	0	468.382	0	37.2	4	11.8	4	-1E+10	1	-1E+10	1	-1E+10	1	-1E+10	1	-1E+10	1	-1E+10	1
4902551	81	C	11/09/2022	05:02	-131.524	48.326	0	478.10	0	4.2000	0	34.0460	0	27.010	0	473.527	0	36.6	4	11.6	4	-1E+10	1	-1E+10	1	-1E+10	1	-1E+10	1	-1E+10	1	-1E+10	1
4902551	81	C	11/09/2022	05:02	-131.524	48.326	0	482.90	0	4.1970	0	34.0490	0	27.013	0	478.275	0	36.1	4	11.4	4	-1E+10	1	-1E+10	1	-1E+10	1	-1E+10	1	-1E+10	1	-1E+10	1
4902551	81	C	11/09/2022	05:02	-131.524	48.326	0	487.70	0	4.1920	0	34.0530	0	27.017	0	483.024	0	35.3	4	11.2	4	-1E+10	1	-1E+10	1	-1E+10	1	-1E+10	1	-1E+10	1	-1E+10	1
4902551	81	C	11/09/2022	05:02	-131.524	48.326	0	493.00	0	4.1810	0	34.0580	0	27.022	0	488.267	0	34.6	4	11.0	4	-1E+10	1	-1E+10	1	-1E+10	1	-1E+10	1	-1E+10	1	-1E+10	1
4902551	81	C	11/09/2022	05:02	-131.524	48.326	0	498.20	0	4.1750	0	34.0620	0	27.026	0	493.410	0	33.8	4	10.7	4	-1E+10	1	-1E+10	1	-1E+10	1	-1E+10	1	-1E+10	1	-1E+10	1
4902551	81	C	11/09/2022	05:02	-131.524	48.326	0	503.20	0	4.1630	0	34.0680	0	27.032	0	498.356	0	33.1	4	10.5	4	-1E+10	1	-1E+10	1	-1E+10	1	-1E+10	1	-1E+10	1	-1E+10	1
4902551	81	C	11/09/2022	05:02	-131.524	48.326	0	507.80	0	4.1510	0	34.0720	0	27.036	0	502.907	0	32.6	4	10.3	4	-1E+10	1	-1E+10	1	-1E+10	1	-1E+10	1	-1E+10	1	-1E+10	1
4902551	81	C	11/09/2022	05:02	-131.524	48.326	0	512.60	0	4.1410	0	34.0770	0	27.041	0	507.654	0	32.2	4	10.2	4	-1E+10	1	-1E+10	1	-1E+10	1	-1E+10	1	-1E+10	1	-1E+10	1
4902551	81	C	11/09/2022	05:02	-131.524	48.326	0	517.90	0	4.1350	0	34.0790	0	27.044	0	512.897	0	31.7	4	10.0	4	-1E+10	1	-1E+10	1	-1E+10	1	-1E+10	1	-1E+10	1	-1E+10	1
4902551	81	C	11/09/2022	05:02	-131.524	48.326	0	522.90	0	4.1260	0	34.0840	0	27.049	0	517.842	0	31.1	4	9.9	4	-1E+10	1	-1E+10	1	-1E+10	1	-1E+10	1	-1E+10	1	-1E+10	1
4902551	81	C	11/09/2022	05:02	-131.524	48.326	0	527.80	0	4.1180	0	34.0860	0	27.051	0	522.689	0	30.7	4	9.7	4	-1E+10	1	-1E+10	1	-1E+10	1	-1E+10	1	-1E+10	1	-1E+10	1
4902551	81	C	11/09/2022	05:02	-131.524	48.326	0	533.00	0	4.1050	0	34.0910	0	27.056	0	527.832	0	30.3	4	9.6	4	-1E+10	1	-1E+10	1	-1E+10	1	-1E+10	1	-1E+10	1	-1E+10	1
4902551	81	C	11/09/2022	05:02	-131.524	48.326	0	537.80	0	4.0940	0	34.0950	0	27.061	0	532.579	0	30.0	4	9.5	4	-1E+10	1	-1E+10	1	-1E+10	1	-1E+10	1	-1E+10	1	-1E+10	1
4902551	81	C	11/09/2022	05:02	-131.524	48.326	0	542.60	0	4.0910	0	34.0960	0	27.062	0	537.326	0	29.7	4	9.4	4	-1E+10	1	-1E+10	1	-1E+10	1	-1E+10	1	-1E+10	1	-1E+10	1
4902551	81	C	11/09/2022	05:02	-131.524	48.326	0	547.90	0	4.0860	0	34.0980	0	27.064	0	542.568	0	29.2	4	9.2	4	-1E+10	1	-1E+10	1	-1E+10	1	-1E+10	1	-1E+10	1	-1E+10	1
4902551	81	C	11/09/2022	05:02	-131.524	48.326	0	553.10	0	4.0760	0	34.1010	0	27.067	0	547.710	0	28.6	4	9.0	4	-1E+10	1	-1E+10	1	-1E+10	1	-1E+10	1	-1E+10	1	-1E+10	1
4902551	81	C	11/09/2022	05:02	-131.524	48.326	0	557.90	0	4.0600	0	34.1070	0	27.074	0	552.457	0	28.1	4	8.9	4	-1E+10	1	-1E+10	1	-1E+10	1	-1E+10	1	-1E+10	1	-1E+10	1
4902551	81	C	11/09/2022	05:02	-131.524	48.326	0	562.70	0	4.0520	0	34.1100	0	27.077	0	557.204	0	27.7	4	8.8	4	-1E+10	1	-1E+10	1	-1E+10	1	-1E+10	1	-1E+10	1	-1E+10	1
4902551	81	C	11/09/2022	05:02	-131.524	48.326	0	567.90	0	4.0410	0	34.1130	0	27.081	0	562.346	0	27.3	4	8.6	4	-1E+10	1	-1E+10	1	-1E+10	1	-1E+10	1	-1E+10	1	-1E+10	1
4902551	81	C	11/09/2022	05:02	-131.524	48.326	0	573.00	0	4.0300	0	34.1170	0	27.085	0	567.389	0	26.8	4	8.5	4	-1E+10	1	-1E+10	1	-1E+10	1	-1E+10	1	-1E+10	1	-1E+10	1
4902551	81	C	11/09/2022	05:02	-131.524	48.326	0	578.00	0	4.0180	0	34.1210	0	27.089	0	572.333	0	26.2	4	8.3	4	-1E+10	1	-1E+10	1	-1E+10	1	-1E+10	1	-1E+10	1	-1E+10	1
4902551	81	C	11/09/2022	05:02	-131.524	48.326	0	583.10	0	4.0040	0	34.1260	0	27.095	0	577.376	0	25.8	4	8.1	4	-1E+10	1	-1E+10	1	-1E+10	1	-1E+10	1	-1E+10	1	-1E+10	1
4902551	81	C	11/09/2022	05:02	-131.524	48.326	0	588.10	0	3.9940	0	34.1290	0	27.098	0	582.320	0	25.3	4	8.0	4	-1E+10	1	-1E+10	1	-1E+10	1	-1E+10	1	-1E+10	1	-1E+10	1
4902551	81	C	11/09/2022	05:02	-131.524	48.326	0	593.10	0	3.9800	0	34.1340	0	27.104	0	587.264	0	24.8	4	7.8	4	-1E+10	1	-1E+10	1	-1E+10	1	-1E+10	1	-1E+10	1	-1E+10	1
4902551	81	C	11/09/2022	05:02	-131.524	48.326	0	598.10	0	3.9650	0	34.1390	0	27.109	0	592.208	0	24.4	4	7.7	4	-1E+10	1	-1E+10	1	-1E+10	1	-1E+10	1	-1E+10	1	-1E+10	1
4902551	81	C	11/09/2022	05:02	-131.524	48.326	0	603.20	0	3.9560	0	34.1420	0	27.113	0	597.250	0	24.0	4	7.6	4	-1E+10	1	-1E+10	1	-1E+10	1	-1E+10	1	-1E+10	1	-1E+10	1
4902551	81	C	11/09/2022	05:02	-131.524	48.326	0	607.80	0	3.9520	0	34.1440	0	27.115	0	601.798	0	23.6	4	7.5	4	-1E+10	1	-1E+10	1	-1E+10	1	-1E+10	1	-1E+10	1	-1E+10	1
4902551	81	C	11/09/2022	05:02	-131.524	48.326	0	613.00	0	3.9400	0	34.1480	0	27.119	0	606.939	0	23.2	4	7.3	4	-1E+10	1	-1E+10	1	-1E+10	1	-1E+10	1	-1E+10	1	-1E+10	1
4902551	81	C	11/09/2022	05:02	-131.524	48.326	0	618.20	0	3.9290	0	34.1510	0	27.123	0	612.080	0	22.5	4	7.1	4	-1E+10	1	-1E+10	1	-1E+10	1	-1E+10	1	-1E+10	1	-1E+10	1
4902551	81	C	11/09/2022	05:02	-131.524	48.326	0	622.90	0	3.9230	0	34.1560	0	27.127	0	616.727	0	21.9	4	6.9	4	-1E+10	1	-1E+10	1	-1E+10	1	-1E+10	1	-1E+10	1	-1E+10	1
4902551	81	C	11/09/2022	05:02	-131.524	48.326	0	627.70	0	3.9090	0	34.1610	0	27.133	0	621.472	0	21.5	4	6.8	4	-1E+10	1	-1E+10	1	-1E+10	1	-1E+10	1	-1E+10	1	-1E+10	1
4902551	81	C	11/09/2022	05:02	-131.524	48.326	0	632.70	0	3.8960	0	34.1640	0	27.136	0	626.415	0	21.0	4	6.6	4	-1E+10	1	-1E+10	1	-1E+10	1	-1E+10	1	-1E+10	1	-1E+10	1
4902551	81	C	11/09/2022	05:02	-131.524	48.326	0	637.70	0	3.8890	0	34.1680	0	27.140	0	631.358	0	20.6	4	6.5	4	-1E+10	1	-1E+10	1	-1E+10	1	-1E+10	1	-1E+10	1	-1E+10	1
4902551	81	C	11/09/2022	05:02	-131.524	48.326	0	642.60	0	3.8800	0	34.1720	0	27.144	0	636.201	0	20.1	4	6.3	4	-1E+10	1	-1E+10	1	-1E+10	1	-1E+10	1	-1E+10	1	-1E+10	1
4902551	81	C	11/09/2022	05:02	-131.524	48.326	0	647.70	0	3.8720	0	34.1760	0	27.148	0	641.243	0	19.7	4	6.2	4	-1E+10	1	-1E+10	1	-1E+10	1	-1E+10	1	-1E+10	1	-1E+10	1
4902551	81	C	11/09/2022	05:02	-131.524	48.326	0	652.70	0	3.8610	0	34.1790	0	27.152	0	646.185	0	19.3	4	6.1	4	-1E+10	1	-1E+10	1	-1E+10	1	-1E+10	1	-1E+10	1	-1E+10	1
4902551	81	C	11/09/2022	05:02	-131.524	48.326	0	657.70	0	3.8510	0	34.1820	0	27.155	0	651.128	0	18.8	4	5.9	4	-1E+10	1	-1E+10	1	-1E+10	1	-1E+10	1	-1E+10	1	-1E+10	1
4902551	81	C	11/09/2022	05:02	-131.524	48.326	0	662.70	0	3.8420	0	34.1870	0	27.160	0	656.070	0	18.4	4	5.8	4	-1E+10	1	-1E+10	1	-1E+10	1	-1E+10	1	-1E+10	1	-1E+10	1
4902551	81	C	11/09/2022	05:02	-131.524	48.326	0	667.70	0	3.8380	0	34.1890	0	27.162	0	661.012	0	18.0	4	5.6	4	-1E+10	1	-1E+10	1	-1E+10	1	-1E+10	1	-1E+10	1	-1E+10	1
4902551	81	C	11/09/2022	05:02	-131.524	48.326	0	672.90	0	3.8280	0	34.1930	0	27.167	0	666.151	0	17.5	4	5.5	4	-1E+10	1	-1E+10	1	-1E+10	1	-1E+10	1	-1E+10	1	-1E+10	1
4902551	81	C	11/09/2022	05:02	-131.524	48.326	0	678.20	0	3.8110	0	34.1990	0	27.173	0	671.390	0	17.1	4	5.4	4	-1E+10	1	-1E+10	1	-1E+10	1	-1E+10	1	-1E+10	1	-1E+10	1
4902551	81	C	11/09/2022	05:02	-131.524	48.326	0	683.30	0	3.7980	0	34.2030	0	27.178	0	676.430	0	16.8	4	5.3	4	-1E+10	1	-1E+10	1	-1E+10	1	-1E+10	1	-1E+10	1	-1E+10	1
4902551	81	C	11/09/2022	05:02	-131.524	48.326	0	688.00	0	3.7920	0	34.2060	0	27.181	0	681.075	0	16.5	4	5.2	4	-1E+10	1	-1E+10	1	-1E+10	1	-1E+10	1	-1E+10	1	-1E+10	1
4902551	81	C	11/09/2022	05:02	-131.524	48.326	0	692.90	0	3.7760	0	34.2100	0	27.185	0	685.918	0	16.3	4	5.1	4	-1E+10	1	-1E+10	1	-1E+10	1	-1E+10	1	-1E+10	1	-1E+10	1
4902551	81	C	11/09/2022	05:02	-131.524	48.326	0	697.80	0	3.7670	0	34.2130	0	27.189	0	690.760	0	16.0	4	5.0	4	-1E+10	1	-1E+10	1	-1E+10	1	-1E+10	1	-1E+10	1	-1E+10	1
4902551	81	C	11/09/2022	05:02	-131.524	48.326	0	702.80	0	3.7550	0	34.2170	0	27.193	0	695.702	0	15.8	4	5.0	4	-1E+10	1	-1E+10	1	-1E+10	1	-1E+10	1	-1E+10	1	-1E+10	1
4902551	81	C	11/09/2022	05:02	-131.524	48.326	0	707.90	0	3.7400	0	34.2210	0	27.198	0	700.742	0	15.7	4	4.9	4	-1E+10	1	-1E+10	1	-1E+10	1	-1E+10	1	-1E+10	1	-1E+10	1
4902551	81	C	11/09/2022	05:02	-131.524	48.326	0	713.00	0	3.7330	0	34.2230	0	27.200	0	705.781	0	15.6	4	4.9	4	-1E+10	1	-1E+10	1	-1E+10	1	-1E+10	1	-1E+10	1	-1E+10	1
4902551	81	C	11/09/2022	05:02	-131.524	48.326	0	718.10	0	3.7250	0	34.2250	0	27.203	0	710.821	0	15.4	4	4.8	4	-1E+10	1	-1E+10	1	-1E+10	1	-1E+10	1	-1E+10	1	-1E+10	1
4902551	81	C	11/09/2022	05:02	-131.524	48.326	0	722.80	0	3.7190	0	34.2270	0	27.205	0	715.465	0	15.2	4	4.8	4	-1E+10	1	-1E+10	1	-1E+10	1	-1E+10	1	-1E+10	1	-1E+10	1
4902551	81	C	11/09/2022	05:02	-131.524	48.326	0	727.90	0	3.7120	0	34.2290	0	27.207	0	720.505	0	15.0	4	4.7	4	-1E+10	1	-1E+10	1	-1E+10	1	-1E+10	1	-1E+10	1	-1E+10	1
4902551	81	C	11/09/2022	05:02	-131.524	48.326	0	733.00	0	3.7010	0	34.2320	0	27.211	0	725.544	0	14.9	4	4.7	4	-1E+10	1	-1E+10	1	-1E+10	1	-1E+10	1	-1E+10	1	-1E+10	1
4902551	81	C	11/09/2022	05:02	-131.524	48.326	0	737.70	0	3.6870	0	34.2350	0	27.214	0	730.188	0	14.7	4	4.6	4	-1E+10	1	-1E+10	1	-1E+10	1	-1E+10	1	-1E+10	1	-1E+10	1
4902551	81	C	11/09/2022	05:02	-131.524	48.326	0	742.80	0	3.6710	0	34.2390	0	27.219	0	735.227	0	14.6	4	4.6	4	-1E+10	1	-1E+10	1	-1E+10	1	-1E+10	1	-1E+10	1	-1E+10	1
4902551	81	C	11/09/2022	05:02	-131.524	48.326	0	748.00	0	3.6640	0	34.2410	0	27.222	0	740.365	0	14.4	4	4.5	4	-1E+10	1	-1E+10	1	-1E+10	1	-1E+10	1	-1E+10	1	-1E+10	1
4902551	81	C	11/09/2022	05:02	-131.524	48.326	0	752.70	0	3.6540	0	34.2440	0	27.225	0	745.009	0	14.3	4	4.5	4	-1E+10	1	-1E+10	1	-1E+10	1	-1E+10	1	-1E+10	1	-1E+10	1
4902551	81	C	11/09/2022	05:02	-131.524	48.326	0	757.90	0	3.6400	0	34.2470	0	27.229	0	750.146	0	14.1	4	4.4	4	-1E+10	1	-1E+10	1	-1E+10	1	-1E+10	1	-1E+10	1	-1E+10	1
4902551	81	C	11/09/2022	05:02	-131.524	48.326	0	763.10	0	3.6270	0	34.2500	0	27.232	0	755.283	0	14.1	4	4.4	4	-1E+10	1	-1E+10	1	-1E+10	1	-1E+10	1	-1E+10	1	-1E+10	1
4902551	81	C	11/09/2022	05:02	-131.524	48.326	0	767.80	0	3.6220	0	34.2520	0	27.235	0	759.927	0	14.0	4	4.4	4	-1E+10	1	-1E+10	1	-1E+10	1	-1E+10	1	-1E+10	1	-1E+10	1
4902551	81	C	11/09/2022	05:02	-131.524	48.326	0	772.80	0	3.6170	0	34.2550	0	27.237	0	764.866	0	13.9	4	4.3	4	-1E+10	1	-1E+10	1	-1E+10	1	-1E+10	1	-1E+10	1	-1E+10	1
4902551	81	C	11/09/2022	05:02	-131.524	48.326	0	777.90	0	3.6140	0	34.2560	0	27.239	0	769.905	0	13.8	4	4.3	4	-1E+10	1	-1E+10	1	-1E+10	1	-1E+10	1	-1E+10	1	-1E+10	1
4902551	81	C	11/09/2022	05:02	-131.524	48.326	0	782.60	0	3.6060	0	34.2570	0	27.240	0	774.548	0	13.6	4	4.3	4	-1E+10	1	-1E+10	1	-1E+10	1	-1E+10	1	-1E+10	1	-1E+10	1
4902551	81	C	11/09/2022	05:02	-131.524	48.326	0	787.80	0	3.5990	0	34.2600	0	27.243	0	779.684	0	13.4	4	4.2	4	-1E+10	1	-1E+10	1	-1E+10	1	-1E+10	1	-1E+10	1	-1E+10	1
4902551	81	C	11/09/2022	05:02	-131.524	48.326	0	793.00	0	3.5890	0	34.2640	0	27.248	0	784.821	0	13.3	4	4.2	4	-1E+10	1	-1E+10	1	-1E+10	1	-1E+10	1	-1E+10	1	-1E+10	1
4902551	81	C	11/09/2022	05:02	-131.524	48.326	0	797.70	0	3.5780	0	34.2680	0	27.252	0	789.464	0	13.2	4	4.1	4	-1E+10	1	-1E+10	1	-1E+10	1	-1E+10	1	-1E+10	1	-1E+10	1
4902551	81	C	11/09/2022	05:02	-131.524	48.326	0	802.80	0	3.5700	0	34.2690	0	27.253	0	794.501	0	13.1	4	4.1	4	-1E+10	1	-1E+10	1	-1E+10	1	-1E+10	1	-1E+10	1	-1E+10	1
4902551	81	C	11/09/2022	05:02	-131.524	48.326	0	807.80	0	3.5550	0	34.2740	0	27.259	0	799.440	0	13.0	4	4.1	4	-1E+10	1	-1E+10	1	-1E+10	1	-1E+10	1	-1E+10	1	-1E+10	1
4902551	81	C	11/09/2022	05:02	-131.524	48.326	0	812.90	0	3.5420	0	34.2770	0	27.263	0	804.478	0	12.8	4	4.0	4	-1E+10	1	-1E+10	1	-1E+10	1	-1E+10	1	-1E+10	1	-1E+10	1
4902551	81	C	11/09/2022	05:02	-131.524	48.326	0	818.00	0	3.5260	0	34.2810	0	27.267	0	809.515	0	12.8	4	4.0	4	-1E+10	1	-1E+10	1	-1E+10	1	-1E+10	1	-1E+10	1	-1E+10	1
4902551	81	C	11/09/2022	05:02	-131.524	48.326	0	823.00	0	3.5140	0	34.2820	0	27.269	0	814.453	0	12.7	4	4.0	4	-1E+10	1	-1E+10	1	-1E+10	1	-1E+10	1	-1E+10	1	-1E+10	1
4902551	81	C	11/09/2022	05:02	-131.524	48.326	0	828.20	0	3.5020	0	34.2850	0	27.273	0	819.589	0	12.6	4	3.9	4	-1E+10	1	-1E+10	1	-1E+10	1	-1E+10	1	-1E+10	1	-1E+10	1
4902551	81	C	11/09/2022	05:02	-131.524	48.326	0	832.90	0	3.4900	0	34.2880	0	27.276	0	824.231	0	12.5	4	3.9	4	-1E+10	1	-1E+10	1	-1E+10	1	-1E+10	1	-1E+10	1	-1E+10	1
4902551	81	C	11/09/2022	05:02	-131.524	48.326	0	838.00	0	3.4790	0	34.2920	0	27.281	0	829.268	0	12.4	4	3.9	4	-1E+10	1	-1E+10	1	-1E+10	1	-1E+10	1	-1E+10	1	-1E+10	1
4902551	81	C	11/09/2022	05:02	-131.524	48.326	0	843.10	0	3.4620	0	34.2950	0	27.285	0	834.304	0	12.4	4	3.9	4	-1E+10	1	-1E+10	1	-1E+10	1	-1E+10	1	-1E+10	1	-1E+10	1
4902551	81	C	11/09/2022	05:02	-131.524	48.326	0	847.80	0	3.4480	0	34.2980	0	27.289	0	838.946	0	12.4	4	3.9	4	-1E+10	1	-1E+10	1	-1E+10	1	-1E+10	1	-1E+10	1	-1E+10	1
4902551	81	C	11/09/2022	05:02	-131.524	48.326	0	852.70	0	3.4350	0	34.2990	0	27.291	0	843.785	0	12.4	4	3.9	4	-1E+10	1	-1E+10	1	-1E+10	1	-1E+10	1	-1E+10	1	-1E+10	1
4902551	81	C	11/09/2022	05:02	-131.524	48.326	0	857.50	0	3.4210	0	34.3020	0	27.294	0	848.525	0	12.3	4	3.8	4	-1E+10	1	-1E+10	1	-1E+10	1	-1E+10	1	-1E+10	1	-1E+10	1
4902551	81	C	11/09/2022	05:02	-131.524	48.326	0	862.70	0	3.4160	0	34.3040	0	27.296	0	853.660	0	12.1	4	3.8	4	-1E+10	1	-1E+10	1	-1E+10	1	-1E+10	1	-1E+10	1	-1E+10	1
4902551	81	C	11/09/2022	05:02	-131.524	48.326	0	867.90	0	3.4110	0	34.3090	0	27.301	0	858.795	0	12.1	4	3.8	4	-1E+10	1	-1E+10	1	-1E+10	1	-1E+10	1	-1E+10	1	-1E+10	1
4902551	81	C	11/09/2022	05:02	-131.524	48.326	0	872.90	0	3.4000	0	34.3110	0	27.304	0	863.732	0	12.0	4	3.8	4	-1E+10	1	-1E+10	1	-1E+10	1	-1E+10	1	-1E+10	1	-1E+10	1
4902551	81	C	11/09/2022	05:02	-131.524	48.326	0	877.70	0	3.3940	0	34.3120	0	27.305	0	868.472	0	12.0	4	3.7	4	-1E+10	1	-1E+10	1	-1E+10	1	-1E+10	1	-1E+10	1	-1E+10	1
4902551	81	C	11/09/2022	05:02	-131.524	48.326	0	882.90	0	3.3850	0	34.3140	0	27.307	0	873.606	0	12.0	4	3.7	4	-1E+10	1	-1E+10	1	-1E+10	1	-1E+10	1	-1E+10	1	-1E+10	1
4902551	81	C	11/09/2022	05:02	-131.524	48.326	0	888.20	0	3.3730	0	34.3160	0	27.310	0	878.839	0	12.0	4	3.7	4	-1E+10	1	-1E+10	1	-1E+10	1	-1E+10	1	-1E+10	1	-1E+10	1
4902551	81	C	11/09/2022	05:02	-131.524	48.326	0	892.90	0	3.3570	0	34.3190	0	27.314	0	883.480	0	12.0	4	3.7	4	-1E+10	1	-1E+10	1	-1E+10	1	-1E+10	1	-1E+10	1	-1E+10	1
4902551	81	C	11/09/2022	05:02	-131.524	48.326	0	897.70	0	3.3490	0	34.3200	0	27.316	0	888.219	0	12.0	4	3.7	4	-1E+10	1	-1E+10	1	-1E+10	1	-1E+10	1	-1E+10	1	-1E+10	1
4902551	81	C	11/09/2022	05:02	-131.524	48.326	0	903.00	0	3.3340	0	34.3220	0	27.319	0	893.452	0	12.0	4	3.7	4	-1E+10	1	-1E+10	1	-1E+10	1	-1E+10	1	-1E+10	1	-1E+10	1
4902551	81	C	11/09/2022	05:02	-131.524	48.326	0	908.00	0	3.3220	0	34.3240	0	27.322	0	898.388	0	11.9	4	3.7	4	-1E+10	1	-1E+10	1	-1E+10	1	-1E+10	1	-1E+10	1	-1E+10	1
4902551	81	C	11/09/2022	05:02	-131.524	48.326	0	913.00	0	3.3210	0	34.3250	0	27.322	0	903.324	0	11.8	4	3.7	4	-1E+10	1	-1E+10	1	-1E+10	1	-1E+10	1	-1E+10	1	-1E+10	1
4902551	81	C	11/09/2022	05:02	-131.524	48.326	0	918.00	0	3.3180	0	34.3280	0	27.325	0	908.260	0	11.8	4	3.7	4	-1E+10	1	-1E+10	1	-1E+10	1	-1E+10	1	-1E+10	1	-1E+10	1
4902551	81	C	11/09/2022	05:02	-131.524	48.326	0	922.80	0	3.3070	0	34.3310	0	27.329	0	912.999	0	11.7	4	3.6	4	-1E+10	1	-1E+10	1	-1E+10	1	-1E+10	1	-1E+10	1	-1E+10	1
4902551	81	C	11/09/2022	05:02	-131.524	48.326	0	928.00	0	3.2990	0	34.3330	0	27.331	0	918.132	0	11.7	4	3.6	4	-1E+10	1	-1E+10	1	-1E+10	1	-1E+10	1	-1E+10	1	-1E+10	1
4902551	81	C	11/09/2022	05:02	-131.524	48.326	0	933.30	0	3.2840	0	34.3360	0	27.335	0	923.364	0	11.7	4	3.6	4	-1E+10	1	-1E+10	1	-1E+10	1	-1E+10	1	-1E+10	1	-1E+10	1
4902551	81	C	11/09/2022	05:02	-131.524	48.326	0	938.10	0	3.2710	0	34.3390	0	27.338	0	928.103	0	11.7	4	3.6	4	-1E+10	1	-1E+10	1	-1E+10	1	-1E+10	1	-1E+10	1	-1E+10	1
4902551	81	C	11/09/2022	05:02	-131.524	48.326	0	943.00	0	3.2680	0	34.3390	0	27.339	0	932.939	0	11.7	4	3.6	4	-1E+10	1	-1E+10	1	-1E+10	1	-1E+10	1	-1E+10	1	-1E+10	1
4902551	81	C	11/09/2022	05:02	-131.524	48.326	0	947.90	0	3.2620	0	34.3410	0	27.341	0	937.776	0	11.7	4	3.6	4	-1E+10	1	-1E+10	1	-1E+10	1	-1E+10	1	-1E+10	1	-1E+10	1
4902551	81	C	11/09/2022	05:02	-131.524	48.326	0	952.90	0	3.2520	0	34.3420	0	27.343	0	942.712	0	11.7	4	3.6	4	-1E+10	1	-1E+10	1	-1E+10	1	-1E+10	1	-1E+10	1	-1E+10	1
4902551	81	C	11/09/2022	05:02	-131.524	48.326	0	957.90	0	3.2460	0	34.3430	0	27.344	0	947.647	0	11.7	4	3.6	4	-1E+10	1	-1E+10	1	-1E+10	1	-1E+10	1	-1E+10	1	-1E+10	1
4902551	81	C	11/09/2022	05:02	-131.524	48.326	0	962.80	0	3.2350	0	34.3450	0	27.347	0	952.483	0	11.7	4	3.6	4	-1E+10	1	-1E+10	1	-1E+10	1	-1E+10	1	-1E+10	1	-1E+10	1
4902551	81	C	11/09/2022	05:02	-131.524	48.326	0	967.80	0	3.2210	0	34.3470	0	27.350	0	957.418	0	11.7	4	3.6	4	-1E+10	1	-1E+10	1	-1E+10	1	-1E+10	1	-1E+10	1	-1E+10	1
4902551	81	C	11/09/2022	05:02	-131.524	48.326	0	972.90	0	3.2120	0	34.3490	0	27.352	0	962.452	0	11.8	4	3.6	4	-1E+10	1	-1E+10	1	-1E+10	1	-1E+10	1	-1E+10	1	-1E+10	1
4902551	81	C	11/09/2022	05:02	-131.524	48.326	0	977.90	0	3.2010	0	34.3500	0	27.354	0	967.387	0	11.8	4	3.6	4	-1E+10	1	-1E+10	1	-1E+10	1	-1E+10	1	-1E+10	1	-1E+10	1
4902551	81	C	11/09/2022	05:02	-131.524	48.326	0	982.90	0	3.1920	0	34.3520	0	27.356	0	972.321	0	11.8	4	3.6	4	-1E+10	1	-1E+10	1	-1E+10	1	-1E+10	1	-1E+10	1	-1E+10	1
4902551	81	C	11/09/2022	05:02	-131.524	48.326	0	988.00	0	3.1770	0	34.3550	0	27.360	0	977.354	0	11.7	4	3.6	4	-1E+10	1	-1E+10	1	-1E+10	1	-1E+10	1	-1E+10	1	-1E+10	1
4902551	81	C	11/09/2022	05:02	-131.524	48.326	0	993.10	0	3.1650	0	34.3580	0	27.364	0	982.387	0	11.8	4	3.6	4	-1E+10	1	-1E+10	1	-1E+10	1	-1E+10	1	-1E+10	1	-1E+10	1
4902551	81	C	11/09/2022	05:02	-131.524	48.326	0	998.10	0	3.1550	0	34.3590	0	27.366	0	987.322	0	11.8	4	3.6	4	-1E+10	1	-1E+10	1	-1E+10	1	-1E+10	1	-1E+10	1	-1E+10	1
4902551	81	C	11/09/2022	05:02	-131.524	48.326	0	1005.60	0	3.1400	0	34.3620	0	27.369	0	994.723	0	11.8	4	3.6	4	-1E+10	1	-1E+10	1	-1E+10	1	-1E+10	1	-1E+10	1	-1E+10	1
4902551	81	C	11/09/2022	05:02	-131.524	48.326	0	1015.80	0	3.1250	0	34.3660	0	27.374	0	1004.788	0	11.8	4	3.7	4	-1E+10	1	-1E+10	1	-1E+10	1	-1E+10	1	-1E+10	1	-1E+10	1
4902551	81	C	11/09/2022	05:02	-131.524	48.326	0	1025.40	0	3.1100	0	34.3690	0	27.378	0	1014.261	0	11.8	4	3.7	4	-1E+10	1	-1E+10	1	-1E+10	1	-1E+10	1	-1E+10	1	-1E+10	1
4902551	81	C	11/09/2022	05:02	-131.524	48.326	0	1035.10	0	3.0990	0	34.3710	0	27.380	0	1023.832	0	11.9	4	3.7	4	-1E+10	1	-1E+10	1	-1E+10	1	-1E+10	1	-1E+10	1	-1E+10	1
4902551	81	C	11/09/2022	05:02	-131.524	48.326	0	1045.30	0	3.0770	0	34.3750	0	27.386	0	1033.896	0	11.9	4	3.7	4	-1E+10	1	-1E+10	1	-1E+10	1	-1E+10	1	-1E+10	1	-1E+10	1
4902551	81	C	11/09/2022	05:02	-131.524	48.326	0	1055.50	0	3.0580	0	34.3790	0	27.391	0	1043.959	0	12.0	4	3.7	4	-1E+10	1	-1E+10	1	-1E+10	1	-1E+10	1	-1E+10	1	-1E+10	1
4902551	81	C	11/09/2022	05:02	-131.524	48.326	0	1065.40	0	3.0470	0	34.3810	0	27.393	0	1053.726	0	12.0	4	3.7	4	-1E+10	1	-1E+10	1	-1E+10	1	-1E+10	1	-1E+10	1	-1E+10	1
4902551	81	C	11/09/2022	05:02	-131.524	48.326	0	1075.30	0	3.0320	0	34.3830	0	27.396	0	1063.492	0	12.1	4	3.7	4	-1E+10	1	-1E+10	1	-1E+10	1	-1E+10	1	-1E+10	1	-1E+10	1
4902551	81	C	11/09/2022	05:02	-131.524	48.326	0	1085.30	0	3.0010	0	34.3890	0	27.404	0	1073.357	0	12.2	4	3.8	4	-1E+10	1	-1E+10	1	-1E+10	1	-1E+10	1	-1E+10	1	-1E+10	1
4902551	81	C	11/09/2022	05:02	-131.524	48.326	0	1095.70	0	2.9760	0	34.3930	0	27.410	0	1083.616	0	12.3	4	3.8	4	-1E+10	1	-1E+10	1	-1E+10	1	-1E+10	1	-1E+10	1	-1E+10	1
4902551	81	C	11/09/2022	05:02	-131.524	48.326	0	1105.80	0	2.9550	0	34.3970	0	27.415	0	1093.578	0	12.4	4	3.8	4	-1E+10	1	-1E+10	1	-1E+10	1	-1E+10	1	-1E+10	1	-1E+10	1
4902551	81	C	11/09/2022	05:02	-131.524	48.326	0	1115.60	0	2.9370	0	34.4010	0	27.420	0	1103.244	0	12.5	4	3.8	4	-1E+10	1	-1E+10	1	-1E+10	1	-1E+10	1	-1E+10	1	-1E+10	1
4902551	81	C	11/09/2022	05:02	-131.524	48.326	0	1125.40	0	2.9240	0	34.4030	0	27.422	0	1112.910	0	12.5	4	3.9	4	-1E+10	1	-1E+10	1	-1E+10	1	-1E+10	1	-1E+10	1	-1E+10	1
4902551	81	C	11/09/2022	05:02	-131.524	48.326	0	1135.20	0	2.9100	0	34.4050	0	27.425	0	1122.575	0	12.7	4	3.9	4	-1E+10	1	-1E+10	1	-1E+10	1	-1E+10	1	-1E+10	1	-1E+10	1
4902551	81	C	11/09/2022	05:02	-131.524	48.326	0	1145.30	0	2.8910	0	34.4100	0	27.431	0	1132.535	0	12.8	4	3.9	4	-1E+10	1	-1E+10	1	-1E+10	1	-1E+10	1	-1E+10	1	-1E+10	1
4902551	81	C	11/09/2022	05:02	-131.524	48.326	0	1155.40	0	2.8790	0	34.4120	0	27.434	0	1142.495	0	12.9	4	4.0	4	-1E+10	1	-1E+10	1	-1E+10	1	-1E+10	1	-1E+10	1	-1E+10	1
4902551	81	C	11/09/2022	05:02	-131.524	48.326	0	1165.50	0	2.8650	0	34.4150	0	27.437	0	1152.455	0	13.1	4	4.0	4	-1E+10	1	-1E+10	1	-1E+10	1	-1E+10	1	-1E+10	1	-1E+10	1
4902551	81	C	11/09/2022	05:02	-131.524	48.326	0	1175.70	0	2.8530	0	34.4170	0	27.440	0	1162.512	0	13.1	4	4.0	4	-1E+10	1	-1E+10	1	-1E+10	1	-1E+10	1	-1E+10	1	-1E+10	1
4902551	81	C	11/09/2022	05:02	-131.524	48.326	0	1185.50	0	2.8470	0	34.4180	0	27.441	0	1172.175	0	13.2	4	4.1	4	-1E+10	1	-1E+10	1	-1E+10	1	-1E+10	1	-1E+10	1	-1E+10	1
4902551	81	C	11/09/2022	05:02	-131.524	48.326	0	1195.10	0	2.8320	0	34.4200	0	27.444	0	1181.640	0	13.4	4	4.1	4	-1E+10	1	-1E+10	1	-1E+10	1	-1E+10	1	-1E+10	1	-1E+10	1
4902551	81	C	11/09/2022	05:02	-131.524	48.326	0	1205.10	0	2.8150	0	34.4230	0	27.448	0	1191.499	0	13.5	4	4.2	4	-1E+10	1	-1E+10	1	-1E+10	1	-1E+10	1	-1E+10	1	-1E+10	1
4902551	81	C	11/09/2022	05:02	-131.524	48.326	0	1215.20	0	2.8020	0	34.4250	0	27.451	0	1201.456	0	13.7	4	4.2	4	-1E+10	1	-1E+10	1	-1E+10	1	-1E+10	1	-1E+10	1	-1E+10	1
4902551	81	C	11/09/2022	05:02	-131.524	48.326	0	1225.60	0	2.7850	0	34.4280	0	27.455	0	1211.709	0	14.0	4	4.3	4	-1E+10	1	-1E+10	1	-1E+10	1	-1E+10	1	-1E+10	1	-1E+10	1
4902551	81	C	11/09/2022	05:02	-131.524	48.326	0	1235.70	0	2.7710	0	34.4320	0	27.460	0	1221.665	0	14.3	4	4.4	4	-1E+10	1	-1E+10	1	-1E+10	1	-1E+10	1	-1E+10	1	-1E+10	1
4902551	81	C	11/09/2022	05:02	-131.524	48.326	0	1245.40	0	2.7560	0	34.4350	0	27.463	0	1231.226	0	14.5	4	4.4	4	-1E+10	1	-1E+10	1	-1E+10	1	-1E+10	1	-1E+10	1	-1E+10	1
4902551	81	C	11/09/2022	05:02	-131.524	48.326	0	1255.50	0	2.7410	0	34.4370	0	27.466	0	1241.182	0	14.7	4	4.5	4	-1E+10	1	-1E+10	1	-1E+10	1	-1E+10	1	-1E+10	1	-1E+10	1
4902551	81	C	11/09/2022	05:02	-131.524	48.326	0	1265.70	0	2.7300	0	34.4400	0	27.470	0	1251.235	0	15.1	4	4.6	4	-1E+10	1	-1E+10	1	-1E+10	1	-1E+10	1	-1E+10	1	-1E+10	1
4902551	81	C	11/09/2022	05:02	-131.524	48.326	0	1275.30	0	2.7160	0	34.4430	0	27.473	0	1260.697	0	15.3	4	4.7	4	-1E+10	1	-1E+10	1	-1E+10	1	-1E+10	1	-1E+10	1	-1E+10	1
4902551	81	C	11/09/2022	05:02	-131.524	48.326	0	1285.40	0	2.6960	0	34.4470	0	27.478	0	1270.651	0	15.7	4	4.8	4	-1E+10	1	-1E+10	1	-1E+10	1	-1E+10	1	-1E+10	1	-1E+10	1
4902551	81	C	11/09/2022	05:02	-131.524	48.326	0	1295.40	0	2.6810	0	34.4500	0	27.482	0	1280.505	0	16.0	4	4.9	4	-1E+10	1	-1E+10	1	-1E+10	1	-1E+10	1	-1E+10	1	-1E+10	1
4902551	81	C	11/09/2022	05:02	-131.524	48.326	0	1305.30	0	2.6670	0	34.4520	0	27.485	0	1290.261	0	16.3	4	5.0	4	-1E+10	1	-1E+10	1	-1E+10	1	-1E+10	1	-1E+10	1	-1E+10	1
4902551	81	C	11/09/2022	05:02	-131.524	48.326	0	1315.30	0	2.6530	0	34.4540	0	27.488	0	1300.115	0	16.6	4	5.1	4	-1E+10	1	-1E+10	1	-1E+10	1	-1E+10	1	-1E+10	1	-1E+10	1
4902551	81	C	11/09/2022	05:02	-131.524	48.326	0	1325.20	0	2.6400	0	34.4580	0	27.492	0	1309.870	0	17.0	4	5.2	4	-1E+10	1	-1E+10	1	-1E+10	1	-1E+10	1	-1E+10	1	-1E+10	1
4902551	81	C	11/09/2022	05:02	-131.524	48.326	0	1335.10	0	2.6190	0	34.4610	0	27.496	0	1319.625	0	17.3	4	5.3	4	-1E+10	1	-1E+10	1	-1E+10	1	-1E+10	1	-1E+10	1	-1E+10	1
4902551	81	C	11/09/2022	05:02	-131.524	48.326	0	1345.20	0	2.6080	0	34.4630	0	27.499	0	1329.576	0	17.6	4	5.4	4	-1E+10	1	-1E+10	1	-1E+10	1	-1E+10	1	-1E+10	1	-1E+10	1
4902551	81	C	11/09/2022	05:02	-131.524	48.326	0	1355.40	0	2.6040	0	34.4650	0	27.501	0	1339.625	0	18.1	4	5.5	4	-1E+10	1	-1E+10	1	-1E+10	1	-1E+10	1	-1E+10	1	-1E+10	1
4902551	81	C	11/09/2022	05:02	-131.524	48.326	0	1365.40	0	2.5910	0	34.4680	0	27.505	0	1349.477	0	18.5	4	5.7	4	-1E+10	1	-1E+10	1	-1E+10	1	-1E+10	1	-1E+10	1	-1E+10	1
4902551	81	C	11/09/2022	05:02	-131.524	48.326	0	1375.20	0	2.5760	0	34.4700	0	27.508	0	1359.131	0	18.8	4	5.7	4	-1E+10	1	-1E+10	1	-1E+10	1	-1E+10	1	-1E+10	1	-1E+10	1
4902551	81	C	11/09/2022	05:02	-131.524	48.326	0	1385.10	0	2.5620	0	34.4720	0	27.510	0	1368.883	0	19.2	4	5.9	4	-1E+10	1	-1E+10	1	-1E+10	1	-1E+10	1	-1E+10	1	-1E+10	1
4902551	81	C	11/09/2022	05:02	-131.524	48.326	0	1395.20	0	2.5380	0	34.4760	0	27.516	0	1378.832	0	19.6	4	6.0	4	-1E+10	1	-1E+10	1	-1E+10	1	-1E+10	1	-1E+10	1	-1E+10	1
4902551	81	C	11/09/2022	05:02	-131.524	48.326	0	1405.50	0	2.5210	0	34.4780	0	27.519	0	1388.977	0	20.0	4	6.1	4	-1E+10	1	-1E+10	1	-1E+10	1	-1E+10	1	-1E+10	1	-1E+10	1
4902551	81	C	11/09/2022	05:02	-131.524	48.326	0	1415.60	0	2.5100	0	34.4810	0	27.522	0	1398.925	0	20.5	4	6.3	4	-1E+10	1	-1E+10	1	-1E+10	1	-1E+10	1	-1E+10	1	-1E+10	1
4902551	81	C	11/09/2022	05:02	-131.524	48.326	0	1425.40	0	2.4980	0	34.4830	0	27.525	0	1408.577	0	21.0	4	6.4	4	-1E+10	1	-1E+10	1	-1E+10	1	-1E+10	1	-1E+10	1	-1E+10	1
4902551	81	C	11/09/2022	05:02	-131.524	48.326	0	1435.20	0	2.4900	0	34.4850	0	27.527	0	1418.228	0	21.3	4	6.5	4	-1E+10	1	-1E+10	1	-1E+10	1	-1E+10	1	-1E+10	1	-1E+10	1
4902551	81	C	11/09/2022	05:02	-131.524	48.326	0	1445.30	0	2.4780	0	34.4870	0	27.530	0	1428.175	0	21.7	4	6.6	4	-1E+10	1	-1E+10	1	-1E+10	1	-1E+10	1	-1E+10	1	-1E+10	1
4902551	81	C	11/09/2022	05:02	-131.524	48.326	0	1455.60	0	2.4680	0	34.4880	0	27.531	0	1438.317	0	22.2	4	6.8	4	-1E+10	1	-1E+10	1	-1E+10	1	-1E+10	1	-1E+10	1	-1E+10	1
4902551	81	C	11/09/2022	05:02	-131.524	48.326	0	1465.40	0	2.4500	0	34.4910	0	27.535	0	1447.967	0	22.8	4	6.9	4	-1E+10	1	-1E+10	1	-1E+10	1	-1E+10	1	-1E+10	1	-1E+10	1
4902551	81	C	11/09/2022	05:02	-131.524	48.326	0	1475.30	0	2.4370	0	34.4940	0	27.539	0	1457.716	0	23.3	4	7.1	4	-1E+10	1	-1E+10	1	-1E+10	1	-1E+10	1	-1E+10	1	-1E+10	1
4902551	81	C	11/09/2022	05:02	-131.524	48.326	0	1485.60	0	2.4210	0	34.4960	0	27.542	0	1467.857	0	23.9	4	7.3	4	-1E+10	1	-1E+10	1	-1E+10	1	-1E+10	1	-1E+10	1	-1E+10	1
4902551	81	C	11/09/2022	05:02	-131.524	48.326	0	1495.20	0	2.4120	0	34.4980	0	27.544	0	1477.309	0	24.3	4	7.4	4	-1E+10	1	-1E+10	1	-1E+10	1	-1E+10	1	-1E+10	1	-1E+10	1
4902551	81	C	11/09/2022	05:02	-131.524	48.326	0	1505.30	0	2.4070	0	34.4990	0	27.546	0	1487.252	0	24.6	4	7.5	4	-1E+10	1	-1E+10	1	-1E+10	1	-1E+10	1	-1E+10	1	-1E+10	1
4902551	81	C	11/09/2022	05:02	-131.524	48.326	0	1515.50	0	2.4010	0	34.5000	0	27.547	0	1497.294	0	25.0	4	7.6	4	-1E+10	1	-1E+10	1	-1E+10	1	-1E+10	1	-1E+10	1	-1E+10	1
4902551	81	C	11/09/2022	05:02	-131.524	48.326	0	1525.30	0	2.3880	0	34.5030	0	27.551	0	1506.941	0	25.4	4	7.7	4	-1E+10	1	-1E+10	1	-1E+10	1	-1E+10	1	-1E+10	1	-1E+10	1
4902551	81	C	11/09/2022	05:02	-131.524	48.326	0	1535.60	0	2.3820	0	34.5040	0	27.552	0	1517.080	0	25.8	4	7.9	4	-1E+10	1	-1E+10	1	-1E+10	1	-1E+10	1	-1E+10	1	-1E+10	1
4902551	81	C	11/09/2022	05:02	-131.524	48.326	0	1545.40	0	2.3600	0	34.5070	0	27.556	0	1526.727	0	26.4	4	8.0	4	-1E+10	1	-1E+10	1	-1E+10	1	-1E+10	1	-1E+10	1	-1E+10	1
4902551	81	C	11/09/2022	05:02	-131.524	48.326	0	1555.20	0	2.3490	0	34.5090	0	27.559	0	1536.373	0	27.0	4	8.2	4	-1E+10	1	-1E+10	1	-1E+10	1	-1E+10	1	-1E+10	1	-1E+10	1
4902551	81	C	11/09/2022	05:02	-131.524	48.326	0	1565.20	0	2.3380	0	34.5110	0	27.561	0	1546.215	0	27.5	4	8.4	4	-1E+10	1	-1E+10	1	-1E+10	1	-1E+10	1	-1E+10	1	-1E+10	1
4902551	81	C	11/09/2022	05:02	-131.524	48.326	0	1575.10	0	2.3310	0	34.5120	0	27.563	0	1555.959	0	28.2	4	8.6	4	-1E+10	1	-1E+10	1	-1E+10	1	-1E+10	1	-1E+10	1	-1E+10	1
4902551	81	C	11/09/2022	05:02	-131.524	48.326	0	1585.60	0	2.3150	0	34.5150	0	27.566	0	1566.292	0	28.9	4	8.8	4	-1E+10	1	-1E+10	1	-1E+10	1	-1E+10	1	-1E+10	1	-1E+10	1
4902551	81	C	11/09/2022	05:02	-131.524	48.326	0	1595.50	0	2.3040	0	34.5170	0	27.569	0	1576.035	0	29.6	4	9.0	4	-1E+10	1	-1E+10	1	-1E+10	1	-1E+10	1	-1E+10	1	-1E+10	1
4902551	81	C	11/09/2022	05:02	-131.524	48.326	0	1605.30	0	2.2920	0	34.5200	0	27.572	0	1585.679	0	30.1	4	9.1	4	-1E+10	1	-1E+10	1	-1E+10	1	-1E+10	1	-1E+10	1	-1E+10	1
4902551	81	C	11/09/2022	05:02	-131.524	48.326	0	1615.60	0	2.2850	0	34.5210	0	27.574	0	1595.814	0	30.8	4	9.4	4	-1E+10	1	-1E+10	1	-1E+10	1	-1E+10	1	-1E+10	1	-1E+10	1
4902551	81	C	11/09/2022	05:02	-131.524	48.326	0	1625.50	0	2.2730	0	34.5230	0	27.576	0	1605.555	0	31.6	4	9.6	4	-1E+10	1	-1E+10	1	-1E+10	1	-1E+10	1	-1E+10	1	-1E+10	1
4902551	81	C	11/09/2022	05:02	-131.524	48.326	0	1635.50	0	2.2600	0	34.5260	0	27.580	0	1615.395	0	32.5	4	9.8	4	-1E+10	1	-1E+10	1	-1E+10	1	-1E+10	1	-1E+10	1	-1E+10	1
4902551	81	C	11/09/2022	05:02	-131.524	48.326	0	1645.60	0	2.2510	0	34.5270	0	27.582	0	1625.332	0	33.3	4	10.1	4	-1E+10	1	-1E+10	1	-1E+10	1	-1E+10	1	-1E+10	1	-1E+10	1
4902551	81	C	11/09/2022	05:02	-131.524	48.326	0	1655.70	0	2.2330	0	34.5310	0	27.586	0	1635.268	0	34.2	4	10.4	4	-1E+10	1	-1E+10	1	-1E+10	1	-1E+10	1	-1E+10	1	-1E+10	1
4902551	81	C	11/09/2022	05:02	-131.524	48.326	0	1665.60	0	2.2150	0	34.5340	0	27.590	0	1645.008	0	34.9	4	10.6	4	-1E+10	1	-1E+10	1	-1E+10	1	-1E+10	1	-1E+10	1	-1E+10	1
4902551	81	C	11/09/2022	05:02	-131.524	48.326	0	1675.30	0	2.2070	0	34.5350	0	27.592	0	1654.550	0	35.6	4	10.8	4	-1E+10	1	-1E+10	1	-1E+10	1	-1E+10	1	-1E+10	1	-1E+10	1
4902551	81	C	11/09/2022	05:02	-131.524	48.326	0	1685.50	0	2.1910	0	34.5380	0	27.595	0	1664.584	0	36.3	4	11.0	4	-1E+10	1	-1E+10	1	-1E+10	1	-1E+10	1	-1E+10	1	-1E+10	1
4902551	81	C	11/09/2022	05:02	-131.524	48.326	0	1695.50	0	2.1790	0	34.5400	0	27.598	0	1674.420	0	36.9	4	11.2	4	-1E+10	1	-1E+10	1	-1E+10	1	-1E+10	1	-1E+10	1	-1E+10	1
4902551	81	C	11/09/2022	05:02	-131.524	48.326	0	1705.20	0	2.1660	0	34.5420	0	27.601	0	1683.961	0	37.8	4	11.4	4	-1E+10	1	-1E+10	1	-1E+10	1	-1E+10	1	-1E+10	1	-1E+10	1
4902551	81	C	11/09/2022	05:02	-131.524	48.326	0	1715.20	0	2.1510	0	34.5440	0	27.604	0	1693.797	0	38.4	4	11.6	4	-1E+10	1	-1E+10	1	-1E+10	1	-1E+10	1	-1E+10	1	-1E+10	1
4902551	81	C	11/09/2022	05:02	-131.524	48.326	0	1725.30	0	2.1370	0	34.5470	0	27.607	0	1703.730	0	39.0	4	11.8	4	-1E+10	1	-1E+10	1	-1E+10	1	-1E+10	1	-1E+10	1	-1E+10	1
4902551	81	C	11/09/2022	05:02	-131.524	48.326	0	1735.20	0	2.1260	0	34.5480	0	27.609	0	1713.466	0	39.8	4	12.0	4	-1E+10	1	-1E+10	1	-1E+10	1	-1E+10	1	-1E+10	1	-1E+10	1
4902551	81	C	11/09/2022	05:02	-131.524	48.326	0	1745.40	0	2.1120	0	34.5510	0	27.612	0	1723.497	0	40.5	4	12.2	4	-1E+10	1	-1E+10	1	-1E+10	1	-1E+10	1	-1E+10	1	-1E+10	1
4902551	81	C	11/09/2022	05:02	-131.524	48.326	0	1755.70	0	2.1030	0	34.5520	0	27.614	0	1733.626	0	41.0	4	12.4	4	-1E+10	1	-1E+10	1	-1E+10	1	-1E+10	1	-1E+10	1	-1E+10	1
4902551	81	C	11/09/2022	05:02	-131.524	48.326	0	1765.60	0	2.0970	0	34.5530	0	27.615	0	1743.361	0	41.4	4	12.5	4	-1E+10	1	-1E+10	1	-1E+10	1	-1E+10	1	-1E+10	1	-1E+10	1
4902551	81	C	11/09/2022	05:02	-131.524	48.326	0	1775.20	0	2.0920	0	34.5540	0	27.617	0	1752.800	0	42.0	4	12.7	4	-1E+10	1	-1E+10	1	-1E+10	1	-1E+10	1	-1E+10	1	-1E+10	1
4902551	81	C	11/09/2022	05:02	-131.524	48.326	0	1785.50	0	2.0820	0	34.5560	0	27.619	0	1762.928	0	42.8	4	12.9	4	-1E+10	1	-1E+10	1	-1E+10	1	-1E+10	1	-1E+10	1	-1E+10	1
4902551	81	C	11/09/2022	05:02	-131.524	48.326	0	1795.40	0	2.0720	0	34.5580	0	27.621	0	1772.661	0	43.5	4	13.1	4	-1E+10	1	-1E+10	1	-1E+10	1	-1E+10	1	-1E+10	1	-1E+10	1
4902551	81	C	11/09/2022	05:02	-131.524	48.326	0	1805.00	0	2.0620	0	34.5600	0	27.624	0	1782.099	0	44.0	4	13.3	4	-1E+10	1	-1E+10	1	-1E+10	1	-1E+10	1	-1E+10	1	-1E+10	1
4902551	81	C	11/09/2022	05:02	-131.524	48.326	0	1815.10	0	2.0570	0	34.5610	0	27.625	0	1792.029	0	44.6	4	13.4	4	-1E+10	1	-1E+10	1	-1E+10	1	-1E+10	1	-1E+10	1	-1E+10	1
4902551	81	C	11/09/2022	05:02	-131.524	48.326	0	1825.10	0	2.0490	0	34.5620	0	27.627	0	1801.859	0	45.2	4	13.6	4	-1E+10	1	-1E+10	1	-1E+10	1	-1E+10	1	-1E+10	1	-1E+10	1
4902551	81	C	11/09/2022	05:02	-131.524	48.326	0	1835.10	0	2.0410	0	34.5640	0	27.629	0	1811.689	0	45.7	4	13.8	4	-1E+10	1	-1E+10	1	-1E+10	1	-1E+10	1	-1E+10	1	-1E+10	1
4902551	81	C	11/09/2022	05:02	-131.524	48.326	0	1845.40	0	2.0370	0	34.5650	0	27.630	0	1821.814	0	46.1	4	13.9	4	-1E+10	1	-1E+10	1	-1E+10	1	-1E+10	1	-1E+10	1	-1E+10	1
4902551	81	C	11/09/2022	05:02	-131.524	48.326	0	1855.60	0	2.0320	0	34.5660	0	27.631	0	1831.839	0	46.6	4	14.1	4	-1E+10	1	-1E+10	1	-1E+10	1	-1E+10	1	-1E+10	1	-1E+10	1
4902551	81	C	11/09/2022	05:02	-131.524	48.326	0	1865.30	0	2.0260	0	34.5670	0	27.633	0	1841.373	0	47.3	4	14.3	4	-1E+10	1	-1E+10	1	-1E+10	1	-1E+10	1	-1E+10	1	-1E+10	1
4902551	81	C	11/09/2022	05:02	-131.524	48.326	0	1875.00	0	2.0160	0	34.5690	0	27.635	0	1850.907	0	48.1	4	14.5	4	-1E+10	1	-1E+10	1	-1E+10	1	-1E+10	1	-1E+10	1	-1E+10	1
4902551	81	C	11/09/2022	05:02	-131.524	48.326	0	1885.20	0	2.0040	0	34.5710	0	27.638	0	1860.931	0	48.9	4	14.7	4	-1E+10	1	-1E+10	1	-1E+10	1	-1E+10	1	-1E+10	1	-1E+10	1
4902551	81	C	11/09/2022	05:02	-131.524	48.326	0	1895.50	0	1.9940	0	34.5730	0	27.640	0	1871.053	0	49.7	4	15.0	4	-1E+10	1	-1E+10	1	-1E+10	1	-1E+10	1	-1E+10	1	-1E+10	1
4902551	81	C	11/09/2022	05:02	-131.524	48.326	0	1905.80	0	1.9860	0	34.5740	0	27.642	0	1881.175	0	50.3	4	15.2	4	-1E+10	1	-1E+10	1	-1E+10	1	-1E+10	1	-1E+10	1	-1E+10	1
4902551	81	C	11/09/2022	05:02	-131.524	48.326	0	1915.80	0	1.9780	0	34.5750	0	27.643	0	1891.001	0	51.0	4	15.4	4	-1E+10	1	-1E+10	1	-1E+10	1	-1E+10	1	-1E+10	1	-1E+10	1
4902551	81	C	11/09/2022	05:02	-131.524	48.326	0	1925.30	0	1.9700	0	34.5770	0	27.645	0	1900.336	0	51.7	4	15.6	4	-1E+10	1	-1E+10	1	-1E+10	1	-1E+10	1	-1E+10	1	-1E+10	1
4902551	81	C	11/09/2022	05:02	-131.524	48.326	0	1935.50	0	1.9630	0	34.5780	0	27.647	0	1910.358	0	52.1	4	15.7	4	-1E+10	1	-1E+10	1	-1E+10	1	-1E+10	1	-1E+10	1	-1E+10	1
4902551	81	C	11/09/2022	05:02	-131.524	48.326	0	1945.50	0	1.9590	0	34.5790	0	27.648	0	1920.183	0	52.4	4	15.8	4	-1E+10	1	-1E+10	1	-1E+10	1	-1E+10	1	-1E+10	1	-1E+10	1
4902551	81	C	11/09/2022	05:02	-131.524	48.326	0	1955.20	0	1.9540	0	34.5800	0	27.649	0	1929.713	0	52.8	4	15.9	4	-1E+10	1	-1E+10	1	-1E+10	1	-1E+10	1	-1E+10	1	-1E+10	1
4902551	81	C	11/09/2022	05:02	-131.524	48.326	0	1965.00	0	1.9490	0	34.5810	0	27.650	0	1939.340	0	53.2	4	16.0	4	-1E+10	1	-1E+10	1	-1E+10	1	-1E+10	1	-1E+10	1	-1E+10	1
4902551	81	C	11/09/2022	05:02	-131.524	48.326	0	1975.10	0	1.9430	0	34.5820	0	27.652	0	1949.262	0	53.9	4	16.2	4	-1E+10	1	-1E+10	1	-1E+10	1	-1E+10	1	-1E+10	1	-1E+10	1
4902551	81	C	11/09/2022	05:02	-131.524	48.326	0	1985.70	0	1.9330	0	34.5850	0	27.655	0	1959.675	0	54.4	4	16.4	4	-1E+10	1	-1E+10	1	-1E+10	1	-1E+10	1	-1E+10	1	-1E+10	1
4902551	81	C	11/09/2022	05:02	-131.524	48.326	0	1991.40	0	1.9280	0	34.5860	0	27.656	0	1965.274	0	54.1	4	16.3	4	-1E+10	1	-1E+10	1	-1E+10	1	-1E+10	1	-1E+10	1	-1E+10	1
4902551	81	C	11/09/2022	05:02	-131.524	48.326	0																										
4902551	82	C	11/19/2022	10:00	-131.549	48.230	0	0.20	0	11.9660	8	32.3510	0	24.539	0	0.198	0	251.0	4	93.5	4	-1E+10	1	-1E+10	1	-1E+10	1	-1E+10	1	-1E+10	1	-1E+10	1
4902551	82	C	11/19/2022	10:00	-131.549	48.230	0	0.30	0	11.9660	8	32.3510	0	24.539	0	0.297	0	257.2	4	95.8	4	-1E+10	1	-1E+10	1	-1E+10	1	-1E+10	1	-1E+10	1	-1E+10	1
4902551	82	C	11/19/2022	10:00	-131.549	48.230	0	0.40	0	11.9660	0	32.3500	0	24.538	0	0.397	0	-1e10	1	-1e10	1	-1E+10	1	-1E+10	1	-1E+10	1	-1E+10	1	-1E+10	1	-1E+10	1
4902551	82	C	11/19/2022	10:00	-131.549	48.230	0	0.60	0	11.9664	0	32.3500	0	24.538	0	0.595	0	-1e10	1	-1e10	1	-1E+10	1	-1E+10	1	-1E+10	1	-1E+10	1	-1E+10	1	-1E+10	1
4902551	82	C	11/19/2022	10:00	-131.549	48.230	0	0.90	0	11.9670	0	32.3500	0	24.538	0	0.892	0	-1e10	1	-1e10	1	-1E+10	1	-1E+10	1	-1E+10	1	-1E+10	1	-1E+10	1	-1E+10	1
4902551	82	C	11/19/2022	10:00	-131.549	48.230	0	1.10	0	11.9670	0	32.3496	0	24.538	0	1.091	0	250.9	4	93.5	4	-1E+10	1	-1E+10	1	-1E+10	1	-1E+10	1	-1E+10	1	-1E+10	1
4902551	82	C	11/19/2022	10:00	-131.549	48.230	0	1.50	0	11.9670	0	32.3488	0	24.537	0	1.487	0	-1e10	1	-1e10	1	-1E+10	1	-1E+10	1	-1E+10	1	-1E+10	1	-1E+10	1	-1E+10	1
4902551	82	C	11/19/2022	10:00	-131.549	48.230	0	1.90	0	11.9670	0	32.3480	0	24.537	0	1.884	0	250.9	4	93.5	4	-1E+10	1	-1E+10	1	-1E+10	1	-1E+10	1	-1E+10	1	-1E+10	1
4902551	82	C	11/19/2022	10:00	-131.549	48.230	0	3.10	0	11.9670	0	32.3510	0	24.539	0	3.074	0	250.8	4	93.4	4	-1E+10	1	-1E+10	1	-1E+10	1	-1E+10	1	-1E+10	1	-1E+10	1
4902551	82	C	11/19/2022	10:00	-131.549	48.230	0	3.80	0	11.9670	0	32.3510	0	24.539	0	3.768	0	250.8	4	93.4	4	-1E+10	1	-1E+10	1	-1E+10	1	-1E+10	1	-1E+10	1	-1E+10	1
4902551	82	C	11/19/2022	10:00	-131.549	48.230	0	4.70	0	11.9670	0	32.3520	0	24.540	0	4.660	0	250.8	4	93.5	4	-1E+10	1	-1E+10	1	-1E+10	1	-1E+10	1	-1E+10	1	-1E+10	1
4902551	82	C	11/19/2022	10:00	-131.549	48.230	0	5.80	0	11.9680	0	32.3520	0	24.540	0	5.751	0	250.8	4	93.4	4	-1E+10	1	-1E+10	1	-1E+10	1	-1E+10	1	-1E+10	1	-1E+10	1
4902551	82	C	11/19/2022	10:00	-131.549	48.230	0	6.90	0	11.9680	0	32.3520	0	24.540	0	6.842	0	250.8	4	93.4	4	-1E+10	1	-1E+10	1	-1E+10	1	-1E+10	1	-1E+10	1	-1E+10	1
4902551	82	C	11/19/2022	10:00	-131.549	48.230	0	8.10	0	11.9680	0	32.3520	0	24.540	0	8.032	0	250.6	4	93.4	4	-1E+10	1	-1E+10	1	-1E+10	1	-1E+10	1	-1E+10	1	-1E+10	1
4902551	82	C	11/19/2022	10:00	-131.549	48.230	0	9.00	0	11.9680	0	32.3520	0	24.540	0	8.924	0	250.8	4	93.4	4	-1E+10	1	-1E+10	1	-1E+10	1	-1E+10	1	-1E+10	1	-1E+10	1
4902551	82	C	11/19/2022	10:00	-131.549	48.230	0	10.00	0	11.9680	0	32.3520	0	24.540	0	9.916	0	250.7	4	93.4	4	-1E+10	1	-1E+10	1	-1E+10	1	-1E+10	1	-1E+10	1	-1E+10	1
4902551	82	C	11/19/2022	10:00	-131.549	48.230	0	11.10	0	11.9680	0	32.3520	0	24.540	0	11.006	0	250.7	4	93.4	4	-1E+10	1	-1E+10	1	-1E+10	1	-1E+10	1	-1E+10	1	-1E+10	1
4902551	82	C	11/19/2022	10:00	-131.549	48.230	0	11.80	0	11.9680	0	32.3520	0	24.540	0	11.700	0	250.7	4	93.4	4	-1E+10	1	-1E+10	1	-1E+10	1	-1E+10	1	-1E+10	1	-1E+10	1
4902551	82	C	11/19/2022	10:00	-131.549	48.230	0	12.80	0	11.9680	0	32.3520	0	24.540	0	12.692	0	250.7	4	93.4	4	-1E+10	1	-1E+10	1	-1E+10	1	-1E+10	1	-1E+10	1	-1E+10	1
4902551	82	C	11/19/2022	10:00	-131.549	48.230	0	14.00	0	11.9690	0	32.3520	0	24.540	0	13.882	0	250.6	4	93.4	4	-1E+10	1	-1E+10	1	-1E+10	1	-1E+10	1	-1E+10	1	-1E+10	1
4902551	82	C	11/19/2022	10:00	-131.549	48.230	0	15.00	0	11.9690	0	32.3520	0	24.540	0	14.873	0	250.7	4	93.4	4	-1E+10	1	-1E+10	1	-1E+10	1	-1E+10	1	-1E+10	1	-1E+10	1
4902551	82	C	11/19/2022	10:00	-131.549	48.230	0	16.10	0	11.9690	0	32.3520	0	24.540	0	15.964	0	250.6	4	93.4	4	-1E+10	1	-1E+10	1	-1E+10	1	-1E+10	1	-1E+10	1	-1E+10	1
4902551	82	C	11/19/2022	10:00	-131.549	48.230	0	16.80	0	11.9690	0	32.3520	0	24.540	0	16.658	0	250.7	4	93.4	4	-1E+10	1	-1E+10	1	-1E+10	1	-1E+10	1	-1E+10	1	-1E+10	1
4902551	82	C	11/19/2022	10:00	-131.549	48.230	0	17.80	0	11.9690	0	32.3510	0	24.539	0	17.649	0	250.7	4	93.4	4	-1E+10	1	-1E+10	1	-1E+10	1	-1E+10	1	-1E+10	1	-1E+10	1
4902551	82	C	11/19/2022	10:00	-131.549	48.230	0	18.90	0	11.9690	0	32.3520	0	24.540	0	18.740	0	250.7	4	93.4	4	-1E+10	1	-1E+10	1	-1E+10	1	-1E+10	1	-1E+10	1	-1E+10	1
4902551	82	C	11/19/2022	10:00	-131.549	48.230	0	19.90	0	11.9700	0	32.3520	0	24.540	0	19.732	0	250.7	4	93.4	4	-1E+10	1	-1E+10	1	-1E+10	1	-1E+10	1	-1E+10	1	-1E+10	1
4902551	82	C	11/19/2022	10:00	-131.549	48.230	0	21.00	0	11.9700	0	32.3520	0	24.540	0	20.822	0	250.7	4	93.4	4	-1E+10	1	-1E+10	1	-1E+10	1	-1E+10	1	-1E+10	1	-1E+10	1
4902551	82	C	11/19/2022	10:00	-131.549	48.230	0	22.00	0	11.9700	0	32.3520	0	24.540	0	21.814	0	250.7	4	93.4	4	-1E+10	1	-1E+10	1	-1E+10	1	-1E+10	1	-1E+10	1	-1E+10	1
4902551	82	C	11/19/2022	10:00	-131.549	48.230	0	23.10	0	11.9700	0	32.3520	0	24.540	0	22.904	0	250.7	4	93.4	4	-1E+10	1	-1E+10	1	-1E+10	1	-1E+10	1	-1E+10	1	-1E+10	1
4902551	82	C	11/19/2022	10:00	-131.549	48.230	0	23.80	0	11.9700	0	32.3520	0	24.540	0	23.598	0	250.6	4	93.4	4	-1E+10	1	-1E+10	1	-1E+10	1	-1E+10	1	-1E+10	1	-1E+10	1
4902551	82	C	11/19/2022	10:00	-131.549	48.230	0	24.80	0	11.9700	0	32.3520	0	24.540	0	24.590	0	250.7	4	93.4	4	-1E+10	1	-1E+10	1	-1E+10	1	-1E+10	1	-1E+10	1	-1E+10	1
4902551	82	C	11/19/2022	10:00	-131.549	48.230	0	26.10	0	11.9700	0	32.3520	0	24.540	0	25.879	0	250.6	4	93.4	4	-1E+10	1	-1E+10	1	-1E+10	1	-1E+10	1	-1E+10	1	-1E+10	1
4902551	82	C	11/19/2022	10:00	-131.549	48.230	0	27.10	0	11.9700	0	32.3520	0	24.540	0	26.870	0	250.7	4	93.4	4	-1E+10	1	-1E+10	1	-1E+10	1	-1E+10	1	-1E+10	1	-1E+10	1
4902551	82	C	11/19/2022	10:00	-131.549	48.230	0	28.00	0	11.9700	0	32.3520	0	24.540	0	27.763	0	250.7	4	93.4	4	-1E+10	1	-1E+10	1	-1E+10	1	-1E+10	1	-1E+10	1	-1E+10	1
4902551	82	C	11/19/2022	10:00	-131.549	48.230	0	28.90	0	11.9710	0	32.3520	0	24.540	0	28.655	0	250.7	4	93.4	4	-1E+10	1	-1E+10	1	-1E+10	1	-1E+10	1	-1E+10	1	-1E+10	1
4902551	82	C	11/19/2022	10:00	-131.549	48.230	0	29.80	0	11.9710	0	32.3520	0	24.540	0	29.547	0	250.7	4	93.4	4	-1E+10	1	-1E+10	1	-1E+10	1	-1E+10	1	-1E+10	1	-1E+10	1
4902551	82	C	11/19/2022	10:00	-131.549	48.230	0	31.10	0	11.9710	0	32.3530	0	24.541	0	30.836	0	250.7	4	93.4	4	-1E+10	1	-1E+10	1	-1E+10	1	-1E+10	1	-1E+10	1	-1E+10	1
4902551	82	C	11/19/2022	10:00	-131.549	48.230	0	32.10	0	11.9710	0	32.3520	0	24.540	0	31.827	0	250.6	4	93.4	4	-1E+10	1	-1E+10	1	-1E+10	1	-1E+10	1	-1E+10	1	-1E+10	1
4902551	82	C	11/19/2022	10:00	-131.549	48.230	0	33.00	0	11.9710	0	32.3520	0	24.540	0	32.720	0	250.7	4	93.4	4	-1E+10	1	-1E+10	1	-1E+10	1	-1E+10	1	-1E+10	1	-1E+10	1
4902551	82	C	11/19/2022	10:00	-131.549	48.230	0	33.90	0	11.9710	0	32.3520	0	24.540	0	33.612	0	250.7	4	93.4	4	-1E+10	1	-1E+10	1	-1E+10	1	-1E+10	1	-1E+10	1	-1E+10	1
4902551	82	C	11/19/2022	10:00	-131.549	48.230	0	34.90	0	11.9710	0	32.3520	0	24.540	0	34.603	0	250.7	4	93.4	4	-1E+10	1	-1E+10	1	-1E+10	1	-1E+10	1	-1E+10	1	-1E+10	1
4902551	82	C	11/19/2022	10:00	-131.549	48.230	0	35.90	0	11.9710	0	32.3520	0	24.540	0	35.595	0	250.7	4	93.4	4	-1E+10	1	-1E+10	1	-1E+10	1	-1E+10	1	-1E+10	1	-1E+10	1
4902551	82	C	11/19/2022	10:00	-131.549	48.230	0	36.80	0	11.9720	0	32.3520	0	24.540	0	36.487	0	250.6	4	93.4	4	-1E+10	1	-1E+10	1	-1E+10	1	-1E+10	1	-1E+10	1	-1E+10	1
4902551	82	C	11/19/2022	10:00	-131.549	48.230	0	38.10	0	11.9710	0	32.3520	0	24.540	0	37.776	0	250.7	4	93.4	4	-1E+10	1	-1E+10	1	-1E+10	1	-1E+10	1	-1E+10	1	-1E+10	1
4902551	82	C	11/19/2022	10:00	-131.549	48.230	0	39.10	0	11.9710	0	32.3520	0	24.540	0	38.767	0	250.7	4	93.4	4	-1E+10	1	-1E+10	1	-1E+10	1	-1E+10	1	-1E+10	1	-1E+10	1
4902551	82	C	11/19/2022	10:00	-131.549	48.230	0	40.00	0	11.9700	0	32.3520	0	24.540	0	39.660	0	250.7	4	93.4	4	-1E+10	1	-1E+10	1	-1E+10	1	-1E+10	1	-1E+10	1	-1E+10	1
4902551	82	C	11/19/2022	10:00	-131.549	48.230	0	41.00	0	11.9700	0	32.3520	0	24.540	0	40.651	0	250.9	4	93.5	4	-1E+10	1	-1E+10	1	-1E+10	1	-1E+10	1	-1E+10	1	-1E+10	1
4902551	82	C	11/19/2022	10:00	-131.549	48.230	0	41.90	0	11.9640	0	32.3530	0	24.542	0	41.543	0	250.9	4	93.5	4	-1E+10	1	-1E+10	1	-1E+10	1	-1E+10	1	-1E+10	1	-1E+10	1
4902551	82	C	11/19/2022	10:00	-131.549	48.230	0	42.90	0	11.9640	0	32.3520	0	24.541	0	42.535	0	251.0	4	93.5	4	-1E+10	1	-1E+10	1	-1E+10	1	-1E+10	1	-1E+10	1	-1E+10	1
4902551	82	C	11/19/2022	10:00	-131.549	48.230	0	43.80	0	11.9640	0	32.3530	0	24.542	0	43.427	0	251.0	4	93.5	4	-1E+10	1	-1E+10	1	-1E+10	1	-1E+10	1	-1E+10	1	-1E+10	1
4902551	82	C	11/19/2022	10:00	-131.549	48.230	0	45.00	0	11.9620	0	32.3520	0	24.542	0	44.617	0	251.1	4	93.5	4	-1E+10	1	-1E+10	1	-1E+10	1	-1E+10	1	-1E+10	1	-1E+10	1
4902551	82	C	11/19/2022	10:00	-131.549	48.230	0	45.90	0	11.9610	0	32.3520	0	24.542	0	45.509	0	251.3	4	93.6	4	-1E+10	1	-1E+10	1	-1E+10	1	-1E+10	1	-1E+10	1	-1E+10	1
4902551	82	C	11/19/2022	10:00	-131.549	48.230	0	46.80	0	11.9600	0	32.3520	0	24.542	0	46.401	0	251.4	4	93.6	4	-1E+10	1	-1E+10	1	-1E+10	1	-1E+10	1	-1E+10	1	-1E+10	1
4902551	82	C	11/19/2022	10:00	-131.549	48.230	0	47.90	0	11.9590	0	32.3520	0	24.542	0	47.492	0	251.6	4	93.7	4	-1E+10	1	-1E+10	1	-1E+10	1	-1E+10	1	-1E+10	1	-1E+10	1
4902551	82	C	11/19/2022	10:00	-131.549	48.230	0	48.90	0	11.9550	0	32.3530	0	24.544	0	48.483	0	251.9	4	93.8	4	-1E+10	1	-1E+10	1	-1E+10	1	-1E+10	1	-1E+10	1	-1E+10	1
4902551	82	C	11/19/2022	10:00	-131.549	48.230	0	49.90	0	11.9300	0	32.3500	0	24.546	0	49.474	0	252.4	4	94.0	4	-1E+10	1	-1E+10	1	-1E+10	1	-1E+10	1	-1E+10	1	-1E+10	1
4902551	82	C	11/19/2022	10:00	-131.549	48.230	0	50.80	0	11.8530	0	32.3530	0	24.563	0	50.366	0	253.0	4	94.0	4	-1E+10	1	-1E+10	1	-1E+10	1	-1E+10	1	-1E+10	1	-1E+10	1
4902551	82	C	11/19/2022	10:00	-131.549	48.230	0	52.10	0	11.7390	0	32.3510	0	24.582	0	51.655	0	255.8	4	94.9	4	-1E+10	1	-1E+10	1	-1E+10	1	-1E+10	1	-1E+10	1	-1E+10	1
4902551	82	C	11/19/2022	10:00	-131.549	48.230	0	53.00	0	11.2820	0	32.3380	0	24.655	0	52.547	0	259.6	4	95.3	4	-1E+10	1	-1E+10	1	-1E+10	1	-1E+10	1	-1E+10	1	-1E+10	1
4902551	82	C	11/19/2022	10:00	-131.549	48.230	0	54.00	0	10.0520	0	32.3900	0	24.907	0	53.539	0	263.6	4	94.3	4	-1E+10	1	-1E+10	1	-1E+10	1	-1E+10	1	-1E+10	1	-1E+10	1
4902551	82	C	11/19/2022	10:00	-131.549	48.230	0	54.70	0	9.4980	0	32.4020	0	25.007	0	54.233	0	265.9	4	94.0	4	-1E+10	1	-1E+10	1	-1E+10	1	-1E+10	1	-1E+10	1	-1E+10	1
4902551	82	C	11/19/2022	10:00	-131.549	48.230	0	55.80	0	9.1820	0	32.4080	0	25.062	0	55.323	0	266.3	4	93.5	4	-1E+10	1	-1E+10	1	-1E+10	1	-1E+10	1	-1E+10	1	-1E+10	1
4902551	82	C	11/19/2022	10:00	-131.549	48.230	0	56.80	0	8.8400	0	32.4180	0	25.123	0	56.314	0	267.4	4	93.2	4	-1E+10	1	-1E+10	1	-1E+10	1	-1E+10	1	-1E+10	1	-1E+10	1
4902551	82	C	11/19/2022	10:00	-131.549	48.230	0	58.00	0	8.7300	0	32.4230	0	25.143	0	57.504	0	267.7	4	93.1	4	-1E+10	1	-1E+10	1	-1E+10	1	-1E+10	1	-1E+10	1	-1E+10	1
4902551	82	C	11/19/2022	10:00	-131.549	48.230	0	59.10	0	8.5580	0	32.4300	0	25.175	0	58.594	0	267.9	4	92.8	4	-1E+10	1	-1E+10	1	-1E+10	1	-1E+10	1	-1E+10	1	-1E+10	1
4902551	82	C	11/19/2022	10:00	-131.549	48.230	0	60.00	0	8.4660	0	32.4350	0	25.193	0	59.487	0	268.1	4	92.7	4	-1E+10	1	-1E+10	1	-1E+10	1	-1E+10	1	-1E+10	1	-1E+10	1
4902551	82	C	11/19/2022	10:00	-131.549	48.230	0	61.00	0	8.3530	0	32.4360	0	25.210	0	60.478	0	267.7	4	92.3	4	-1E+10	1	-1E+10	1	-1E+10	1	-1E+10	1	-1E+10	1	-1E+10	1
4902551	82	C	11/19/2022	10:00	-131.549	48.230	0	61.90	0	8.2050	0	32.4380	0	25.234	0	61.370	0	267.4	4	91.9	4	-1E+10	1	-1E+10	1	-1E+10	1	-1E+10	1	-1E+10	1	-1E+10	1
4902551	82	C	11/19/2022	10:00	-131.549	48.230	0	62.90	0	8.0260	0	32.4420	0	25.263	0	62.361	0	266.9	4	91.4	4	-1E+10	1	-1E+10	1	-1E+10	1	-1E+10	1	-1E+10	1	-1E+10	1
4902551	82	C	11/19/2022	10:00	-131.549	48.230	0	64.10	0	7.8270	0	32.4480	0	25.296	0	63.551	0	266.9	4	91.0	4	-1E+10	1	-1E+10	1	-1E+10	1	-1E+10	1	-1E+10	1	-1E+10	1
4902551	82	C	11/19/2022	10:00	-131.549	48.230	0	65.10	0	7.7640	0	32.4510	0	25.307	0	64.542	0	266.8	4	90.8	4	-1E+10	1	-1E+10	1	-1E+10	1	-1E+10	1	-1E+10	1	-1E+10	1
4902551	82	C	11/19/2022	10:00	-131.549	48.230	0	66.00	0	7.7570	0	32.4510	0	25.308	0	65.434	0	266.6	4	90.7	4	-1E+10	1	-1E+10	1	-1E+10	1	-1E+10	1	-1E+10	1	-1E+10	1
4902551	82	C	11/19/2022	10:00	-131.549	48.230	0	67.10	0	7.7520	0	32.4520	0	25.310	0	66.525	0	266.2	4	90.6	4	-1E+10	1	-1E+10	1	-1E+10	1	-1E+10	1	-1E+10	1	-1E+10	1
4902551	82	C	11/19/2022	10:00	-131.549	48.230	0	68.00	0	7.7520	0	32.4510	0	25.309	0	67.417	0	266.0	4	90.5	4	-1E+10	1	-1E+10	1	-1E+10	1	-1E+10	1	-1E+10	1	-1E+10	1
4902551	82	C	11/19/2022	10:00	-131.549	48.230	0	68.90	0	7.7400	0	32.4520	0	25.312	0	68.309	0	265.8	4	90.4	4	-1E+10	1	-1E+10	1	-1E+10	1	-1E+10	1	-1E+10	1	-1E+10	1
4902551	82	C	11/19/2022	10:00	-131.549	48.230	0	70.10	0	7.7020	0	32.4540	0	25.319	0	69.498	0	265.4	4	90.2	4	-1E+10	1	-1E+10	1	-1E+10	1	-1E+10	1	-1E+10	1	-1E+10	1
4902551	82	C	11/19/2022	10:00	-131.549	48.230	0	71.00	0	7.6830	0	32.4530	0	25.320	0	70.391	0	265.2	4	90.1	4	-1E+10	1	-1E+10	1	-1E+10	1	-1E+10	1	-1E+10	1	-1E+10	1
4902551	82	C	11/19/2022	10:00	-131.549	48.230	0	71.90	0	7.6680	0	32.4540	0	25.323	0	71.283	0	264.9	4	89.9	4	-1E+10	1	-1E+10	1	-1E+10	1	-1E+10	1	-1E+10	1	-1E+10	1
4902551	82	C	11/19/2022	10:00	-131.549	48.230	0	73.00	0	7.6530	0	32.4530	0	25.325	0	72.373	0	264.5	4	89.8	4	-1E+10	1	-1E+10	1	-1E+10	1	-1E+10	1	-1E+10	1	-1E+10	1
4902551	82	C	11/19/2022	10:00	-131.549	48.230	0	73.90	0	7.6390	0	32.4520	0	25.326	0	73.265	0	264.3	4	89.7	4	-1E+10	1	-1E+10	1	-1E+10	1	-1E+10	1	-1E+10	1	-1E+10	1
4902551	82	C	11/19/2022	10:00	-131.549	48.230	0	75.20	0	7.5840	0	32.4540	0	25.335	0	74.554	0	264.0	4	89.5	4	-1E+10	1	-1E+10	1	-1E+10	1	-1E+10	1	-1E+10	1	-1E+10	1
4902551	82	C	11/19/2022	10:00	-131.549	48.230	0	75.80	0	7.5330	0	32.4560	0	25.344	0	75.149	0	263.9	4	89.3	4	-1E+10	1	-1E+10	1	-1E+10	1	-1E+10	1	-1E+10	1	-1E+10	1
4902551	82	C	11/19/2022	10:00	-131.549	48.230	0	77.10	0	7.4760	0	32.4580	0	25.353	0	76.437	0	263.5	4	89.1	4	-1E+10	1	-1E+10	1	-1E+10	1	-1E+10	1	-1E+10	1	-1E+10	1
4902551	82	C	11/19/2022	10:00	-131.549	48.230	0	78.20	0	7.4410	0	32.4620	0	25.361	0	77.527	0	263.3	4	89.0	4	-1E+10	1	-1E+10	1	-1E+10	1	-1E+10	1	-1E+10	1	-1E+10	1
4902551	82	C	11/19/2022	10:00	-131.549	48.230	0	79.00	0	7.4370	0	32.4600	0	25.360	0	78.320	0	263.0	4	88.9	4	-1E+10	1	-1E+10	1	-1E+10	1	-1E+10	1	-1E+10	1	-1E+10	1
4902551	82	C	11/19/2022	10:00	-131.549	48.230	0	80.30	0	7.3940	0	32.4620	0	25.368	0	79.609	0	262.8	4	88.7	4	-1E+10	1	-1E+10	1	-1E+10	1	-1E+10	1	-1E+10	1	-1E+10	1
4902551	82	C	11/19/2022	10:00	-131.549	48.230	0	81.10	0	7.3650	0	32.4630	0	25.373	0	80.402	0	262.6	4	88.6	4	-1E+10	1	-1E+10	1	-1E+10	1	-1E+10	1	-1E+10	1	-1E+10	1
4902551	82	C	11/19/2022	10:00	-131.549	48.230	0	82.00	0	7.3020	0	32.4640	0	25.382	0	81.294	0	262.7	4	88.5	4	-1E+10	1	-1E+10	1	-1E+10	1	-1E+10	1	-1E+10	1	-1E+10	1
4902551	82	C	11/19/2022	10:00	-131.549	48.230	0	83.30	0	7.2740	0	32.4660	0	25.387	0	82.583	0	269.2	4	90.6	4	-1E+10	1	-1E+10	1	-1E+10	1	-1E+10	1	-1E+10	1	-1E+10	1
4902551	82	C	11/19/2022	10:00	-131.549	48.230	0	84.10	0	7.2640	0	32.4670	0	25.390	0	83.376	0	269.2	4	90.6	4	-1E+10	1	-1E+10	1	-1E+10	1	-1E+10	1	-1E+10	1	-1E+10	1
4902551	82	C	11/19/2022	10:00	-131.549	48.230	0	85.00	0	7.2510	0	32.4650	0	25.390	0	84.268	0	269.1	4	90.5	4	-1E+10	1	-1E+10	1	-1E+10	1	-1E+10	1	-1E+10	1	-1E+10	1
4902551	82	C	11/19/2022	10:00	-131.549	48.230	0	86.00	0	7.2230	0	32.4660	0	25.394	0	85.259	0	269.0	4	90.4	4	-1E+10	1	-1E+10	1	-1E+10	1	-1E+10	1	-1E+10	1	-1E+10	1
4902551	82	C	11/19/2022	10:00	-131.549	48.230	0	87.10	0	7.2040	0	32.4680	0	25.399	0	86.349	0	268.8	4	90.3	4	-1E+10	1	-1E+10	1	-1E+10	1	-1E+10	1	-1E+10	1	-1E+10	1
4902551	82	C	11/19/2022	10:00	-131.549	48.230	0	88.00	0	7.1870	0	32.4670	0	25.400	0	87.241	0	268.8	4	90.3	4	-1E+10	1	-1E+10	1	-1E+10	1	-1E+10	1	-1E+10	1	-1E+10	1
4902551	82	C	11/19/2022	10:00	-131.549	48.230	0	89.30	0	7.1510	0	32.4690	0	25.407	0	88.530	0	268.6	4	90.2	4	-1E+10	1	-1E+10	1	-1E+10	1	-1E+10	1	-1E+10	1	-1E+10	1
4902551	82	C	11/19/2022	10:00	-131.549	48.230	0	90.00	0	7.1340	0	32.4700	0	25.410	0	89.223	0	268.5	4	90.1	4	-1E+10	1	-1E+10	1	-1E+10	1	-1E+10	1	-1E+10	1	-1E+10	1
4902551	82	C	11/19/2022	10:00	-131.549	48.230	0	90.90	0	7.1010	0	32.4710	0	25.415	0	90.115	0	268.5	4	90.0	4	-1E+10	1	-1E+10	1	-1E+10	1	-1E+10	1	-1E+10	1	-1E+10	1
4902551	82	C	11/19/2022	10:00	-131.549	48.230	0	92.10	0	7.0790	0	32.4700	0	25.417	0	91.305	0	268.3	4	89.9	4	-1E+10	1	-1E+10	1	-1E+10	1	-1E+10	1	-1E+10	1	-1E+10	1
4902551	82	C	11/19/2022	10:00	-131.549	48.230	0	92.80	0	7.0570	0	32.4730	0	25.422	0	91.999	0	268.2	4	89.8	4	-1E+10	1	-1E+10	1	-1E+10	1	-1E+10	1	-1E+10	1	-1E+10	1
4902551	82	C	11/19/2022	10:00	-131.549	48.230	0	93.90	0	6.9930	0	32.4750	0	25.432	0	93.089	0	268.0	4	89.7	4	-1E+10	1	-1E+10	1	-1E+10	1	-1E+10	1	-1E+10	1	-1E+10	1
4902551	82	C	11/19/2022	10:00	-131.549	48.230	0	94.90	0	6.9570	0	32.4770	0	25.439	0	94.080	0	267.7	4	89.5	4	-1E+10	1	-1E+10	1	-1E+10	1	-1E+10	1	-1E+10	1	-1E+10	1
4902551	82	C	11/19/2022	10:00	-131.549	48.230	0	96.00	0	6.9520	0	32.4790	0	25.441	0	95.170	0	267.4	4	89.3	4	-1E+10	1	-1E+10	1	-1E+10	1	-1E+10	1	-1E+10	1	-1E+10	1
4902551	82	C	11/19/2022	10:00	-131.549	48.230	0	97.10	0	6.9450	0	32.4810	0	25.444	0	96.260	0	267.1	4	89.2	4	-1E+10	1	-1E+10	1	-1E+10	1	-1E+10	1	-1E+10	1	-1E+10	1
4902551	82	C	11/19/2022	10:00	-131.549	48.230	0	98.00	0	6.9210	0	32.4850	0	25.450	0	97.153	0	266.9	4	89.1	4	-1E+10	1	-1E+10	1	-1E+10	1	-1E+10	1	-1E+10	1	-1E+10	1
4902551	82	C	11/19/2022	10:00	-131.549	48.230	0	98.80	0	6.9140	0	32.4830	0	25.449	0	97.945	0	266.6	4	89.0	4	-1E+10	1	-1E+10	1	-1E+10	1	-1E+10	1	-1E+10	1	-1E+10	1
4902551	82	C	11/19/2022	10:00	-131.549	48.230	0	100.00	0	6.8840	0	32.4850	0	25.455	0	99.135	0	266.2	4	88.8	4	-1E+10	1	-1E+10	1	-1E+10	1	-1E+10	1	-1E+10	1	-1E+10	1
4902551	82	C	11/19/2022	10:00	-131.549	48.230	0	100.90	0	6.8150	0	32.4910	0	25.469	0	100.027	0	266.0	4	88.6	4	-1E+10	1	-1E+10	1	-1E+10	1	-1E+10	1	-1E+10	1	-1E+10	1
4902551	82	C	11/19/2022	10:00	-131.549	48.230	0	101.70	0	6.8020	0	32.4950	0	25.473	0	100.820	0	265.6	4	88.4	4	-1E+10	1	-1E+10	1	-1E+10	1	-1E+10	1	-1E+10	1	-1E+10	1
4902551	82	C	11/19/2022	10:00	-131.549	48.230	0	102.90	0	6.7720	0	32.4990	0	25.481	0	102.009	0	264.8	4	88.1	4	-1E+10	1	-1E+10	1	-1E+10	1	-1E+10	1	-1E+10	1	-1E+10	1
4902551	82	C	11/19/2022	10:00	-131.549	48.230	0	103.90	0	6.7450	0	32.5080	0	25.491	0	103.000	0	264.1	4	87.9	4	-1E+10	1	-1E+10	1	-1E+10	1	-1E+10	1	-1E+10	1	-1E+10	1
4902551	82	C	11/19/2022	10:00	-131.549	48.230	0	104.80	0	6.7290	0	32.5110	0	25.496	0	103.892	0	263.5	4	87.6	4	-1E+10	1	-1E+10	1	-1E+10	1	-1E+10	1	-1E+10	1	-1E+10	1
4902551	82	C	11/19/2022	10:00	-131.549	48.230	0	106.00	0	6.7020	0	32.5180	0	25.505	0	105.081	0	262.6	4	87.3	4	-1E+10	1	-1E+10	1	-1E+10	1	-1E+10	1	-1E+10	1	-1E+10	1
4902551	82	C	11/19/2022	10:00	-131.549	48.230	0	107.00	0	6.6870	0	32.5260	0	25.513	0	106.072	0	262.0	4	87.1	4	-1E+10	1	-1E+10	1	-1E+10	1	-1E+10	1	-1E+10	1	-1E+10	1
4902551	82	C	11/19/2022	10:00	-131.549	48.230	0	107.90	0	6.6810	0	32.5300	0	25.517	0	106.964	0	261.3	4	86.8	4	-1E+10	1	-1E+10	1	-1E+10	1	-1E+10	1	-1E+10	1	-1E+10	1
4902551	82	C	11/19/2022	10:00	-131.549	48.230	0	108.90	0	6.6770	0	32.5350	0	25.521	0	107.955	0	260.5	4	86.5	4	-1E+10	1	-1E+10	1	-1E+10	1	-1E+10	1	-1E+10	1	-1E+10	1
4902551	82	C	11/19/2022	10:00	-131.549	48.230	0	109.80	0	6.6680	0	32.5390	0	25.526	0	108.847	0	259.5	4	86.2	4	-1E+10	1	-1E+10	1	-1E+10	1	-1E+10	1	-1E+10	1	-1E+10	1
4902551	82	C	11/19/2022	10:00	-131.549	48.230	0	110.90	0	6.6590	0	32.5470	0	25.533	0	109.938	0	258.1	4	85.7	4	-1E+10	1	-1E+10	1	-1E+10	1	-1E+10	1	-1E+10	1	-1E+10	1
4902551	82	C	11/19/2022	10:00	-131.549	48.230	0	112.00	0	6.6440	0	32.5650	0	25.549	0	111.028	0	257.0	4	85.3	4	-1E+10	1	-1E+10	1	-1E+10	1	-1E+10	1	-1E+10	1	-1E+10	1
4902551	82	C	11/19/2022	10:00	-131.549	48.230	0	112.90	0	6.6400	0	32.5870	0	25.567	0	111.920	0	256.0	4	85.0	4	-1E+10	1	-1E+10	1	-1E+10	1	-1E+10	1	-1E+10	1	-1E+10	1
4902551	82	C	11/19/2022	10:00	-131.549	48.230	0	114.00	0	6.6360	0	32.6040	0	25.581	0	113.010	0	254.5	4	84.5	4	-1E+10	1	-1E+10	1	-1E+10	1	-1E+10	1	-1E+10	1	-1E+10	1
4902551	82	C	11/19/2022	10:00	-131.549	48.230	0	115.10	0	6.6020	0	32.6240	0	25.601	0	114.100	0	253.0	4	84.0	4	-1E+10	1	-1E+10	1	-1E+10	1	-1E+10	1	-1E+10	1	-1E+10	1
4902551	82	C	11/19/2022	10:00	-131.549	48.230	0	116.00	0	6.5860	0	32.6460	0	25.621	0	114.992	0	251.4	4	83.4	4	-1E+10	1	-1E+10	1	-1E+10	1	-1E+10	1	-1E+10	1	-1E+10	1
4902551	82	C	11/19/2022	10:00	-131.549	48.230	0	116.90	0	6.5790	0	32.6600	0	25.633	0	115.884	0	250.0	4	82.9	4	-1E+10	1	-1E+10	1	-1E+10	1	-1E+10	1	-1E+10	1	-1E+10	1
4902551	82	C	11/19/2022	10:00	-131.549	48.230	0	117.90	0	6.5560	0	32.6760	0	25.648	0	116.875	0	248.6	4	82.4	4	-1E+10	1	-1E+10	1	-1E+10	1	-1E+10	1	-1E+10	1	-1E+10	1
4902551	82	C	11/19/2022	10:00	-131.549	48.230	0	118.90	0	6.5040	0	32.6930	0	25.668	0	117.866	0	246.8	4	81.8	4	-1E+10	1	-1E+10	1	-1E+10	1	-1E+10	1	-1E+10	1	-1E+10	1
4902551	82	C	11/19/2022	10:00	-131.549	48.230	0	119.90	0	6.4780	0	32.7160	0	25.690	0	118.857	0	244.7	4	81.0	4	-1E+10	1	-1E+10	1	-1E+10	1	-1E+10	1	-1E+10	1	-1E+10	1
4902551	82	C	11/19/2022	10:00	-131.549	48.230	0	121.00	0	6.4830	0	32.7340	0	25.703	0	119.947	0	243.0	4	80.5	4	-1E+10	1	-1E+10	1	-1E+10	1	-1E+10	1	-1E+10	1	-1E+10	1
4902551	82	C	11/19/2022	10:00	-131.549	48.230	0	122.10	0	6.4310	0	32.7670	0	25.736	0	121.037	0	241.5	4	79.9	4	-1E+10	1	-1E+10	1	-1E+10	1	-1E+10	1	-1E+10	1	-1E+10	1
4902551	82	C	11/19/2022	10:00	-131.549	48.230	0	123.30	0	6.4080	0	32.7910	0	25.758	0	122.226	0	240.3	4	79.5	4	-1E+10	1	-1E+10	1	-1E+10	1	-1E+10	1	-1E+10	1	-1E+10	1
4902551	82	C	11/19/2022	10:00	-131.549	48.230	0	124.10	0	6.3890	0	32.8130	0	25.778	0	123.019	0	239.6	4	79.2	4	-1E+10	1	-1E+10	1	-1E+10	1	-1E+10	1	-1E+10	1	-1E+10	1
4902551	82	C	11/19/2022	10:00	-131.549	48.230	0	125.10	0	6.3820	0	32.8260	0	25.789	0	124.010	0	238.4	4	78.8	4	-1E+10	1	-1E+10	1	-1E+10	1	-1E+10	1	-1E+10	1	-1E+10	1
4902551	82	C	11/19/2022	10:00	-131.549	48.230	0	126.10	0	6.3820	0	32.8300	0	25.792	0	125.001	0	236.9	4	78.3	4	-1E+10	1	-1E+10	1	-1E+10	1	-1E+10	1	-1E+10	1	-1E+10	1
4902551	82	C	11/19/2022	10:00	-131.549	48.230	0	127.10	0	6.3790	0	32.8340	0	25.796	0	125.992	0	234.7	4	77.6	4	-1E+10	1	-1E+10	1	-1E+10	1	-1E+10	1	-1E+10	1	-1E+10	1
4902551	82	C	11/19/2022	10:00	-131.549	48.230	0	128.00	0	6.3760	0	32.8390	0	25.800	0	126.884	0	232.7	4	77.0	4	-1E+10	1	-1E+10	1	-1E+10	1	-1E+10	1	-1E+10	1	-1E+10	1
4902551	82	C	11/19/2022	10:00	-131.549	48.230	0	128.70	0	6.3730	0	32.8490	0	25.808	0	127.578	0	230.6	4	76.2	4	-1E+10	1	-1E+10	1	-1E+10	1	-1E+10	1	-1E+10	1	-1E+10	1
4902551	82	C	11/19/2022	10:00	-131.549	48.230	0	129.80	0	6.3780	0	32.8660	0	25.821	0	128.668	0	227.8	4	75.3	4	-1E+10	1	-1E+10	1	-1E+10	1	-1E+10	1	-1E+10	1	-1E+10	1
4902551	82	C	11/19/2022	10:00	-131.549	48.230	0	130.80	0	6.4040	0	32.8920	0	25.838	0	129.659	0	225.1	4	74.5	4	-1E+10	1	-1E+10	1	-1E+10	1	-1E+10	1	-1E+10	1	-1E+10	1
4902551	82	C	11/19/2022	10:00	-131.549	48.230	0	132.00	0	6.4630	0	32.9350	0	25.865	0	130.848	0	222.7	4	73.8	4	-1E+10	1	-1E+10	1	-1E+10	1	-1E+10	1	-1E+10	1	-1E+10	1
4902551	82	C	11/19/2022	10:00	-131.549	48.230	0	133.10	0	6.4530	0	32.9790	0	25.901	0	131.938	0	220.3	4	73.1	4	-1E+10	1	-1E+10	1	-1E+10	1	-1E+10	1	-1E+10	1	-1E+10	1
4902551	82	C	11/19/2022	10:00	-131.549	48.230	0	134.10	0	6.3910	0	33.0230	0	25.943	0	132.929	0	218.5	4	72.4	4	-1E+10	1	-1E+10	1	-1E+10	1	-1E+10	1	-1E+10	1	-1E+10	1
4902551	82	C	11/19/2022	10:00	-131.549	48.230	0	134.80	0	6.3170	0	33.0450	0	25.970	0	133.622	0	217.5	4	71.9	4	-1E+10	1	-1E+10	1	-1E+10	1	-1E+10	1	-1E+10	1	-1E+10	1
4902551	82	C	11/19/2022	10:00	-131.549	48.230	0	135.80	0	6.2730	0	33.0560	0	25.984	0	134.613	0	215.8	4	71.3	4	-1E+10	1	-1E+10	1	-1E+10	1	-1E+10	1	-1E+10	1	-1E+10	1
4902551	82	C	11/19/2022	10:00	-131.549	48.230	0	136.80	0	6.2430	0	33.0640	0	25.994	0	135.604	0	213.8	4	70.6	4	-1E+10	1	-1E+10	1	-1E+10	1	-1E+10	1	-1E+10	1	-1E+10	1
4902551	82	C	11/19/2022	10:00	-131.549	48.230	0	137.80	0	6.2210	0	33.0910	0	26.018	0	136.595	0	211.5	4	69.8	4	-1E+10	1	-1E+10	1	-1E+10	1	-1E+10	1	-1E+10	1	-1E+10	1
4902551	82	C	11/19/2022	10:00	-131.549	48.230	0	138.90	0	6.2210	0	33.1110	0	26.034	0	137.685	0	209.0	4	69.0	4	-1E+10	1	-1E+10	1	-1E+10	1	-1E+10	1	-1E+10	1	-1E+10	1
4902551	82	C	11/19/2022	10:00	-131.549	48.230	0	139.90	0	6.2000	0	33.1360	0	26.057	0	138.676	0	206.4	4	68.1	4	-1E+10	1	-1E+10	1	-1E+10	1	-1E+10	1	-1E+10	1	-1E+10	1
4902551	82	C	11/19/2022	10:00	-131.549	48.230	0	141.00	0	6.1780	0	33.1590	0	26.078	0	139.766	0	203.7	4	67.2	4	-1E+10	1	-1E+10	1	-1E+10	1	-1E+10	1	-1E+10	1	-1E+10	1
4902551	82	C	11/19/2022	10:00	-131.549	48.230	0	141.70	0	6.1750	0	33.1670	0	26.084	0	140.460	0	201.9	4	66.6	4	-1E+10	1	-1E+10	1	-1E+10	1	-1E+10	1	-1E+10	1	-1E+10	1
4902551	82	C	11/19/2022	10:00	-131.549	48.230	0	142.90	0	6.1420	0	33.2180	0	26.129	0	141.649	0	198.7	4	65.5	4	-1E+10	1	-1E+10	1	-1E+10	1	-1E+10	1	-1E+10	1	-1E+10	1
4902551	82	C	11/19/2022	10:00	-131.549	48.230	0	144.10	0	6.1290	0	33.2680	0	26.170	0	142.838	0	195.6	4	64.5	4	-1E+10	1	-1E+10	1	-1E+10	1	-1E+10	1	-1E+10	1	-1E+10	1
4902551	82	C	11/19/2022	10:00	-131.549	48.230	0	145.00	0	6.1250	0	33.3500	0	26.235	0	143.730	0	193.9	4	64.0	4	-1E+10	1	-1E+10	1	-1E+10	1	-1E+10	1	-1E+10	1	-1E+10	1
4902551	82	C	11/19/2022	10:00	-131.549	48.230	0	145.80	0	6.1310	0	33.3680	0	26.248	0	144.522	0	192.5	4	63.5	4	-1E+10	1	-1E+10	1	-1E+10	1	-1E+10	1	-1E+10	1	-1E+10	1
4902551	82	C	11/19/2022	10:00	-131.549	48.230	0	146.70	0	6.1320	0	33.3830	0	26.260	0	145.414	0	191.2	4	63.1	4	-1E+10	1	-1E+10	1	-1E+10	1	-1E+10	1	-1E+10	1	-1E+10	1
4902551	82	C	11/19/2022	10:00	-131.549	48.230	0	147.90	0	6.1310	0	33.4230	0	26.292	0	146.603	0	189.2	4	62.5	4	-1E+10	1	-1E+10	1	-1E+10	1	-1E+10	1	-1E+10	1	-1E+10	1
4902551	82	C	11/19/2022	10:00	-131.549	48.230	0	149.20	0	6.1340	0	33.4550	0	26.317	0	147.891	0	187.7	4	62.0	4	-1E+10	1	-1E+10	1	-1E+10	1	-1E+10	1	-1E+10	1	-1E+10	1
4902551	82	C	11/19/2022	10:00	-131.549	48.230	0	150.10	0	6.1250	0	33.4790	0	26.337	0	148.783	0	186.8	4	61.7	4	-1E+10	1	-1E+10	1	-1E+10	1	-1E+10	1	-1E+10	1	-1E+10	1
4902551	82	C	11/19/2022	10:00	-131.549	48.230	0	151.00	0	6.1160	0	33.4860	0	26.344	0	149.675	0	185.9	4	61.4	4	-1E+10	1	-1E+10	1	-1E+10	1	-1E+10	1	-1E+10	1	-1E+10	1
4902551	82	C	11/19/2022	10:00	-131.549	48.230	0	151.90	0	6.1040	0	33.4940	0	26.351	0	150.567	0	185.0	4	61.1	4	-1E+10	1	-1E+10	1	-1E+10	1	-1E+10	1	-1E+10	1	-1E+10	1
4902551	82	C	11/19/2022	10:00	-131.549	48.230	0	152.80	0	6.1000	0	33.4980	0	26.355	0	151.459	0	184.1	4	60.8	4	-1E+10	1	-1E+10	1	-1E+10	1	-1E+10	1	-1E+10	1	-1E+10	1
4902551	82	C	11/19/2022	10:00	-131.549	48.230	0	153.70	0	6.0990	0	33.5010	0	26.358	0	152.350	0	183.1	4	60.4	4	-1E+10	1	-1E+10	1	-1E+10	1	-1E+10	1	-1E+10	1	-1E+10	1
4902551	82	C	11/19/2022	10:00	-131.549	48.230	0	154.60	0	6.0970	0	33.5030	0	26.359	0	153.242	0	181.9	4	60.1	4	-1E+10	1	-1E+10	1	-1E+10	1	-1E+10	1	-1E+10	1	-1E+10	1
4902551	82	C	11/19/2022	10:00	-131.549	48.230	0	155.50	0	6.0950	0	33.5080	0	26.364	0	154.134	0	180.6	4	59.6	4	-1E+10	1	-1E+10	1	-1E+10	1	-1E+10	1	-1E+10	1	-1E+10	1
4902551	82	C	11/19/2022	10:00	-131.549	48.230	0	156.90	0	6.0930	0	33.5260	0	26.378	0	155.521	0	178.9	4	59.0	4	-1E+10	1	-1E+10	1	-1E+10	1	-1E+10	1	-1E+10	1	-1E+10	1
4902551	82	C	11/19/2022	10:00	-131.549	48.230	0	158.30	0	6.0900	0	33.5380	0	26.388	0	156.908	0	176.9	4	58.4	4	-1E+10	1	-1E+10	1	-1E+10	1	-1E+10	1	-1E+10	1	-1E+10	1
4902551	82	C	11/19/2022	10:00	-131.549	48.230	0	159.20	0	6.0870	0	33.5450	0	26.394	0	157.800	0	175.7	4	58.0	4	-1E+10	1	-1E+10	1	-1E+10	1	-1E+10	1	-1E+10	1	-1E+10	1
4902551	82	C	11/19/2022	10:00	-131.549	48.230	0	160.10	0	6.0830	0	33.5600	0	26.406	0	158.692	0	174.3	4	57.5	4	-1E+10	1	-1E+10	1	-1E+10	1	-1E+10	1	-1E+10	1	-1E+10	1
4902551	82	C	11/19/2022	10:00	-131.549	48.230	0	160.70	0	6.0830	0	33.5630	0	26.409	0	159.286	0	173.3	4	57.2	4	-1E+10	1	-1E+10	1	-1E+10	1	-1E+10	1	-1E+10	1	-1E+10	1
4902551	82	C	11/19/2022	10:00	-131.549	48.230	0	162.00	0	6.0850	0	33.5660	0	26.411	0	160.574	0	170.7	4	56.4	4	-1E+10	1	-1E+10	1	-1E+10	1	-1E+10	1	-1E+10	1	-1E+10	1
4902551	82	C	11/19/2022	10:00	-131.549	48.230	0	163.10	0	6.0830	0	33.5770	0	26.420	0	161.664	0	168.5	4	55.6	4	-1E+10	1	-1E+10	1	-1E+10	1	-1E+10	1	-1E+10	1	-1E+10	1
4902551	82	C	11/19/2022	10:00	-131.549	48.230	0	163.80	0	6.0800	0	33.5890	0	26.430	0	162.358	0	167.1	4	55.2	4	-1E+10	1	-1E+10	1	-1E+10	1	-1E+10	1	-1E+10	1	-1E+10	1
4902551	82	C	11/19/2022	10:00	-131.549	48.230	0	164.80	0	6.0730	0	33.6050	0	26.443	0	163.348	0	164.9	4	54.5	4	-1E+10	1	-1E+10	1	-1E+10	1	-1E+10	1	-1E+10	1	-1E+10	1
4902551	82	C	11/19/2022	10:00	-131.549	48.230	0	166.00	0	6.0570	0	33.6270	0	26.463	0	164.537	0	162.7	4	53.7	4	-1E+10	1	-1E+10	1	-1E+10	1	-1E+10	1	-1E+10	1	-1E+10	1
4902551	82	C	11/19/2022	10:00	-131.549	48.230	0	166.70	0	6.0350	0	33.6470	0	26.481	0	165.231	0	161.5	4	53.3	4	-1E+10	1	-1E+10	1	-1E+10	1	-1E+10	1	-1E+10	1	-1E+10	1
4902551	82	C	11/19/2022	10:00	-131.549	48.230	0	167.90	0	6.0040	0	33.6670	0	26.501	0	166.420	0	160.2	4	52.8	4	-1E+10	1	-1E+10	1	-1E+10	1	-1E+10	1	-1E+10	1	-1E+10	1
4902551	82	C	11/19/2022	10:00	-131.549	48.230	0	169.20	0	5.9710	0	33.6820	0	26.517	0	167.708	0	159.2	4	52.5	4	-1E+10	1	-1E+10	1	-1E+10	1	-1E+10	1	-1E+10	1	-1E+10	1
4902551	82	C	11/19/2022	10:00	-131.549	48.230	0	170.00	0	5.9690	0	33.6840	0	26.519	0	168.500	0	158.4	4	52.2	4	-1E+10	1	-1E+10	1	-1E+10	1	-1E+10	1	-1E+10	1	-1E+10	1
4902551	82	C	11/19/2022	10:00	-131.549	48.230	0	170.80	0	5.9660	0	33.6850	0	26.520	0	169.293	0	157.6	4	51.9	4	-1E+10	1	-1E+10	1	-1E+10	1	-1E+10	1	-1E+10	1	-1E+10	1
4902551	82	C	11/19/2022	10:00	-131.549	48.230	0	171.60	0	5.9570	0	33.6890	0	26.524	0	170.086	0	156.8	4	51.7	4	-1E+10	1	-1E+10	1	-1E+10	1	-1E+10	1	-1E+10	1	-1E+10	1
4902551	82	C	11/19/2022	10:00	-131.549	48.230	0	172.90	0	5.9430	0	33.6930	0	26.529	0	171.374	0	155.6	4	51.3	4	-1E+10	1	-1E+10	1	-1E+10	1	-1E+10	1	-1E+10	1	-1E+10	1
4902551	82	C	11/19/2022	10:00	-131.549	48.230	0	174.10	0	5.9270	0	33.7000	0	26.536	0	172.563	0	154.4	4	50.9	4	-1E+10	1	-1E+10	1	-1E+10	1	-1E+10	1	-1E+10	1	-1E+10	1
4902551	82	C	11/19/2022	10:00	-131.549	48.230	0	175.00	0	5.9250	0	33.7000	0	26.537	0	173.454	0	153.4	4	50.5	4	-1E+10	1	-1E+10	1	-1E+10	1	-1E+10	1	-1E+10	1	-1E+10	1
4902551	82	C	11/19/2022	10:00	-131.549	48.230	0	175.80	0	5.9230	0	33.7010	0	26.538	0	174.247	0	152.4	4	50.2	4	-1E+10	1	-1E+10	1	-1E+10	1	-1E+10	1	-1E+10	1	-1E+10	1
4902551	82	C	11/19/2022	10:00	-131.549	48.230	0	176.70	0	5.9200	0	33.7010	0	26.538	0	175.139	0	151.3	4	49.8	4	-1E+10	1	-1E+10	1	-1E+10	1	-1E+10	1	-1E+10	1	-1E+10	1
4902551	82	C	11/19/2022	10:00	-131.549	48.230	0	177.90	0	5.8940	0	33.7090	0	26.548	0	176.327	0	149.8	4	49.3	4	-1E+10	1	-1E+10	1	-1E+10	1	-1E+10	1	-1E+10	1	-1E+10	1
4902551	82	C	11/19/2022	10:00	-131.549	48.230	0	179.20	0	5.8730	0	33.7120	0	26.553	0	177.615	0	148.4	4	48.8	4	-1E+10	1	-1E+10	1	-1E+10	1	-1E+10	1	-1E+10	1	-1E+10	1
4902551	82	C	11/19/2022	10:00	-131.549	48.230	0	180.10	0	5.8350	0	33.7240	0	26.567	0	178.507	0	147.6	4	48.5	4	-1E+10	1	-1E+10	1	-1E+10	1	-1E+10	1	-1E+10	1	-1E+10	1
4902551	82	C	11/19/2022	10:00	-131.549	48.230	0	180.90	0	5.8280	0	33.7240	0	26.568	0	179.300	0	146.9	4	48.3	4	-1E+10	1	-1E+10	1	-1E+10	1	-1E+10	1	-1E+10	1	-1E+10	1
4902551	82	C	11/19/2022	10:00	-131.549	48.230	0	181.80	0	5.8020	0	33.7270	0	26.573	0	180.191	0	146.2	4	48.0	4	-1E+10	1	-1E+10	1	-1E+10	1	-1E+10	1	-1E+10	1	-1E+10	1
4902551	82	C	11/19/2022	10:00	-131.549	48.230	0	182.60	0	5.7890	0	33.7270	0	26.575	0	180.984	0	145.6	4	47.8	4	-1E+10	1	-1E+10	1	-1E+10	1	-1E+10	1	-1E+10	1	-1E+10	1
4902551	82	C	11/19/2022	10:00	-131.549	48.230	0	183.90	0	5.7330	0	33.7320	0	26.586	0	182.272	0	144.7	4	47.5	4	-1E+10	1	-1E+10	1	-1E+10	1	-1E+10	1	-1E+10	1	-1E+10	1
4902551	82	C	11/19/2022	10:00	-131.549	48.230	0	185.20	0	5.7010	0	33.7330	0	26.590	0	183.560	0	143.8	4	47.1	4	-1E+10	1	-1E+10	1	-1E+10	1	-1E+10	1	-1E+10	1	-1E+10	1
4902551	82	C	11/19/2022	10:00	-131.549	48.230	0	186.10	0	5.6940	0	33.7340	0	26.592	0	184.451	0	143.1	4	46.9	4	-1E+10	1	-1E+10	1	-1E+10	1	-1E+10	1	-1E+10	1	-1E+10	1
4902551	82	C	11/19/2022	10:00	-131.549	48.230	0	186.90	0	5.6870	0	33.7350	0	26.594	0	185.244	0	142.6	4	46.7	4	-1E+10	1	-1E+10	1	-1E+10	1	-1E+10	1	-1E+10	1	-1E+10	1
4902551	82	C	11/19/2022	10:00	-131.549	48.230	0	187.80	0	5.6690	0	33.7360	0	26.597	0	186.135	0	142.0	4	46.5	4	-1E+10	1	-1E+10	1	-1E+10	1	-1E+10	1	-1E+10	1	-1E+10	1
4902551	82	C	11/19/2022	10:00	-131.549	48.230	0	188.70	0	5.6460	0	33.7360	0	26.599	0	187.027	0	141.5	4	46.3	4	-1E+10	1	-1E+10	1	-1E+10	1	-1E+10	1	-1E+10	1	-1E+10	1
4902551	82	C	11/19/2022	10:00	-131.549	48.230	0	189.90	0	5.6530	0	33.7400	0	26.602	0	188.216	0	140.6	4	46.0	4	-1E+10	1	-1E+10	1	-1E+10	1	-1E+10	1	-1E+10	1	-1E+10	1
4902551	82	C	11/19/2022	10:00	-131.549	48.230	0	191.30	0	5.6660	0	33.7440	0	26.603	0	189.603	0	139.7	4	45.7	4	-1E+10	1	-1E+10	1	-1E+10	1	-1E+10	1	-1E+10	1	-1E+10	1
4902551	82	C	11/19/2022	10:00	-131.549	48.230	0	192.10	0	5.6580	0	33.7450	0	26.605	0	190.395	0	139.1	4	45.5	4	-1E+10	1	-1E+10	1	-1E+10	1	-1E+10	1	-1E+10	1	-1E+10	1
4902551	82	C	11/19/2022	10:00	-131.549	48.230	0	193.00	0	5.6480	0	33.7460	0	26.607	0	191.287	0	138.5	4	45.3	4	-1E+10	1	-1E+10	1	-1E+10	1	-1E+10	1	-1E+10	1	-1E+10	1
4902551	82	C	11/19/2022	10:00	-131.549	48.230	0	193.80	0	5.6040	0	33.7460	0	26.612	0	192.080	0	138.1	4	45.2	4	-1E+10	1	-1E+10	1	-1E+10	1	-1E+10	1	-1E+10	1	-1E+10	1
4902551	82	C	11/19/2022	10:00	-131.549	48.230	0	194.70	0	5.5710	0	33.7460	0	26.616	0	192.971	0	137.9	4	45.0	4	-1E+10	1	-1E+10	1	-1E+10	1	-1E+10	1	-1E+10	1	-1E+10	1
4902551	82	C	11/19/2022	10:00	-131.549	48.230	0	196.00	0	5.5080	0	33.7450	0	26.623	0	194.259	0	137.5	4	44.9	4	-1E+10	1	-1E+10	1	-1E+10	1	-1E+10	1	-1E+10	1	-1E+10	1
4902551	82	C	11/19/2022	10:00	-131.549	48.230	0	197.30	0	5.5050	0	33.7430	0	26.622	0	195.547	0	137.0	4	44.7	4	-1E+10	1	-1E+10	1	-1E+10	1	-1E+10	1	-1E+10	1	-1E+10	1
4902551	82	C	11/19/2022	10:00	-131.549	48.230	0	198.20	0	5.5010	0	33.7420	0	26.622	0	196.438	0	136.6	4	44.6	4	-1E+10	1	-1E+10	1	-1E+10	1	-1E+10	1	-1E+10	1	-1E+10	1
4902551	82	C	11/19/2022	10:00	-131.549	48.230	0	199.00	0	5.5010	0	33.7420	0	26.622	0	197.231	0	136.2	4	44.4	4	-1E+10	1	-1E+10	1	-1E+10	1	-1E+10	1	-1E+10	1	-1E+10	1
4902551	82	C	11/19/2022	10:00	-131.549	48.230	0	199.90	0	5.5000	0	33.7420	0	26.622	0	198.122	0	135.7	4	44.2	4	-1E+10	1	-1E+10	1	-1E+10	1	-1E+10	1	-1E+10	1	-1E+10	1
4902551	82	C	11/19/2022	10:00	-131.549	48.230	0	200.80	0	5.4990	0	33.7410	0	26.621	0	199.014	0	135.1	4	44.1	4	-1E+10	1	-1E+10	1	-1E+10	1	-1E+10	1	-1E+10	1	-1E+10	1
4902551	82	C	11/19/2022	10:00	-131.549	48.230	0	201.60	0	5.4920	0	33.7410	0	26.622	0	199.806	0	134.5	4	43.9	4	-1E+10	1	-1E+10	1	-1E+10	1	-1E+10	1	-1E+10	1	-1E+10	1
4902551	82	C	11/19/2022	10:00	-131.549	48.230	0	202.90	0	5.4440	0	33.7440	0	26.630	0	201.094	0	133.9	4	43.6	4	-1E+10	1	-1E+10	1	-1E+10	1	-1E+10	1	-1E+10	1	-1E+10	1
4902551	82	C	11/19/2022	10:00	-131.549	48.230	0	204.20	0	5.4340	0	33.7440	0	26.631	0	202.382	0	133.3	4	43.4	4	-1E+10	1	-1E+10	1	-1E+10	1	-1E+10	1	-1E+10	1	-1E+10	1
4902551	82	C	11/19/2022	10:00	-131.549	48.230	0	205.00	0	5.4210	0	33.7450	0	26.634	0	203.175	0	132.8	4	43.2	4	-1E+10	1	-1E+10	1	-1E+10	1	-1E+10	1	-1E+10	1	-1E+10	1
4902551	82	C	11/19/2022	10:00	-131.549	48.230	0	205.90	0	5.4130	0	33.7460	0	26.635	0	204.066	0	132.3	4	43.1	4	-1E+10	1	-1E+10	1	-1E+10	1	-1E+10	1	-1E+10	1	-1E+10	1
4902551	82	C	11/19/2022	10:00	-131.549	48.230	0	206.70	0	5.3880	0	33.7460	0	26.638	0	204.859	0	131.9	4	42.9	4	-1E+10	1	-1E+10	1	-1E+10	1	-1E+10	1	-1E+10	1	-1E+10	1
4902551	82	C	11/19/2022	10:00	-131.549	48.230	0	207.60	0	5.3760	0	33.7470	0	26.640	0	205.750	0	131.6	4	42.8	4	-1E+10	1	-1E+10	1	-1E+10	1	-1E+10	1	-1E+10	1	-1E+10	1
4902551	82	C	11/19/2022	10:00	-131.549	48.230	0	208.90	0	5.3630	0	33.7470	0	26.642	0	207.038	0	131.0	4	42.6	4	-1E+10	1	-1E+10	1	-1E+10	1	-1E+10	1	-1E+10	1	-1E+10	1
4902551	82	C	11/19/2022	10:00	-131.549	48.230	0	210.10	0	5.3550	0	33.7480	0	26.644	0	208.227	0	130.5	4	42.4	4	-1E+10	1	-1E+10	1	-1E+10	1	-1E+10	1	-1E+10	1	-1E+10	1
4902551	82	C	11/19/2022	10:00	-131.549	48.230	0	211.00	0	5.3540	0	33.7470	0	26.643	0	209.118	0	130.0	4	42.2	4	-1E+10	1	-1E+10	1	-1E+10	1	-1E+10	1	-1E+10	1	-1E+10	1
4902551	82	C	11/19/2022	10:00	-131.549	48.230	0	211.80	0	5.3420	0	33.7500	0	26.647	0	209.911	0	129.5	4	42.1	4	-1E+10	1	-1E+10	1	-1E+10	1	-1E+10	1	-1E+10	1	-1E+10	1
4902551	82	C	11/19/2022	10:00	-131.549	48.230	0	212.60	0	5.3300	0	33.7490	0	26.647	0	210.703	0	129.1	4	41.9	4	-1E+10	1	-1E+10	1	-1E+10	1	-1E+10	1	-1E+10	1	-1E+10	1
4902551	82	C	11/19/2022	10:00	-131.549	48.230	0	213.90	0	5.3240	0	33.7490	0	26.648	0	211.991	0	128.5	4	41.7	4	-1E+10	1	-1E+10	1	-1E+10	1	-1E+10	1	-1E+10	1	-1E+10	1
4902551	82	C	11/19/2022	10:00	-131.549	48.230	0	215.10	0	5.3150	0	33.7490	0	26.649	0	213.179	0	127.7	4	41.5	4	-1E+10	1	-1E+10	1	-1E+10	1	-1E+10	1	-1E+10	1	-1E+10	1
4902551	82	C	11/19/2022	10:00	-131.549	48.230	0	216.00	0	5.3030	0	33.7500	0	26.651	0	214.071	0	127.2	4	41.3	4	-1E+10	1	-1E+10	1	-1E+10	1	-1E+10	1	-1E+10	1	-1E+10	1
4902551	82	C	11/19/2022	10:00	-131.549	48.230	0	216.80	0	5.2940	0	33.7510	0	26.653	0	214.863	0	126.6	4	41.1	4	-1E+10	1	-1E+10	1	-1E+10	1	-1E+10	1	-1E+10	1	-1E+10	1
4902551	82	C	11/19/2022	10:00	-131.549	48.230	0	217.60	0	5.2840	0	33.7530	0	26.656	0	215.656	0	126.0	4	40.9	4	-1E+10	1	-1E+10	1	-1E+10	1	-1E+10	1	-1E+10	1	-1E+10	1
4902551	82	C	11/19/2022	10:00	-131.549	48.230	0	218.90	0	5.2610	0	33.7520	0	26.658	0	216.944	0	125.2	4	40.6	4	-1E+10	1	-1E+10	1	-1E+10	1	-1E+10	1	-1E+10	1	-1E+10	1
4902551	82	C	11/19/2022	10:00	-131.549	48.230	0	220.20	0	5.2500	0	33.7510	0	26.658	0	218.231	0	124.4	4	40.3	4	-1E+10	1	-1E+10	1	-1E+10	1	-1E+10	1	-1E+10	1	-1E+10	1
4902551	82	C	11/19/2022	10:00	-131.549	48.230	0	221.00	0	5.2420	0	33.7540	0	26.662	0	219.024	0	123.8	4	40.1	4	-1E+10	1	-1E+10	1	-1E+10	1	-1E+10	1	-1E+10	1	-1E+10	1
4902551	82	C	11/19/2022	10:00	-131.549	48.230	0	221.90	0	5.2330	0	33.7550	0	26.664	0	219.915	0	123.2	4	39.9	4	-1E+10	1	-1E+10	1	-1E+10	1	-1E+10	1	-1E+10	1	-1E+10	1
4902551	82	C	11/19/2022	10:00	-131.549	48.230	0	222.70	0	5.2310	0	33.7550	0	26.664	0	220.708	0	122.5	4	39.7	4	-1E+10	1	-1E+10	1	-1E+10	1	-1E+10	1	-1E+10	1	-1E+10	1
4902551	82	C	11/19/2022	10:00	-131.549	48.230	0	223.60	0	5.2110	0	33.7540	0	26.665	0	221.599	0	121.8	4	39.4	4	-1E+10	1	-1E+10	1	-1E+10	1	-1E+10	1	-1E+10	1	-1E+10	1
4902551	82	C	11/19/2022	10:00	-131.549	48.230	0	224.90	0	5.1990	0	33.7550	0	26.668	0	222.887	0	120.8	4	39.1	4	-1E+10	1	-1E+10	1	-1E+10	1	-1E+10	1	-1E+10	1	-1E+10	1
4902551	82	C	11/19/2022	10:00	-131.549	48.230	0	226.20	0	5.1700	0	33.7580	0	26.673	0	224.174	0	119.9	4	38.8	4	-1E+10	1	-1E+10	1	-1E+10	1	-1E+10	1	-1E+10	1	-1E+10	1
4902551	82	C	11/19/2022	10:00	-131.549	48.230	0	227.10	0	5.1550	0	33.7590	0	26.676	0	225.066	0	119.4	4	38.6	4	-1E+10	1	-1E+10	1	-1E+10	1	-1E+10	1	-1E+10	1	-1E+10	1
4902551	82	C	11/19/2022	10:00	-131.549	48.230	0	228.00	0	5.1470	0	33.7600	0	26.678	0	225.957	0	118.8	4	38.4	4	-1E+10	1	-1E+10	1	-1E+10	1	-1E+10	1	-1E+10	1	-1E+10	1
4902551	82	C	11/19/2022	10:00	-131.549	48.230	0	228.90	0	5.1420	0	33.7600	0	26.678	0	226.849	0	118.3	4	38.3	4	-1E+10	1	-1E+10	1	-1E+10	1	-1E+10	1	-1E+10	1	-1E+10	1
4902551	82	C	11/19/2022	10:00	-131.549	48.230	0	229.80	0	5.1360	0	33.7610	0	26.680	0	227.740	0	117.7	4	38.1	4	-1E+10	1	-1E+10	1	-1E+10	1	-1E+10	1	-1E+10	1	-1E+10	1
4902551	82	C	11/19/2022	10:00	-131.549	48.230	0	230.70	0	5.1290	0	33.7610	0	26.680	0	228.632	0	117.1	4	37.9	4	-1E+10	1	-1E+10	1	-1E+10	1	-1E+10	1	-1E+10	1	-1E+10	1
4902551	82	C	11/19/2022	10:00	-131.549	48.230	0	231.60	0	5.1180	0	33.7620	0	26.682	0	229.523	0	116.5	4	37.7	4	-1E+10	1	-1E+10	1	-1E+10	1	-1E+10	1	-1E+10	1	-1E+10	1
4902551	82	C	11/19/2022	10:00	-131.549	48.230	0	232.90	0	5.1040	0	33.7640	0	26.686	0	230.811	0	115.6	4	37.4	4	-1E+10	1	-1E+10	1	-1E+10	1	-1E+10	1	-1E+10	1	-1E+10	1
4902551	82	C	11/19/2022	10:00	-131.549	48.230	0	234.40	0	5.0820	0	33.7660	0	26.690	0	232.296	0	114.8	4	37.1	4	-1E+10	1	-1E+10	1	-1E+10	1	-1E+10	1	-1E+10	1	-1E+10	1
4902551	82	C	11/19/2022	10:00	-131.549	48.230	0	235.30	0	5.0710	0	33.7680	0	26.693	0	233.188	0	114.3	4	36.9	4	-1E+10	1	-1E+10	1	-1E+10	1	-1E+10	1	-1E+10	1	-1E+10	1
4902551	82	C	11/19/2022	10:00	-131.549	48.230	0	236.20	0	5.0610	0	33.7690	0	26.695	0	234.079	0	113.9	4	36.8	4	-1E+10	1	-1E+10	1	-1E+10	1	-1E+10	1	-1E+10	1	-1E+10	1
4902551	82	C	11/19/2022	10:00	-131.549	48.230	0	237.20	0	5.0540	0	33.7700	0	26.696	0	235.070	0	113.4	4	36.6	4	-1E+10	1	-1E+10	1	-1E+10	1	-1E+10	1	-1E+10	1	-1E+10	1
4902551	82	C	11/19/2022	10:00	-131.549	48.230	0	238.10	0	5.0490	0	33.7700	0	26.697	0	235.961	0	112.9	4	36.4	4	-1E+10	1	-1E+10	1	-1E+10	1	-1E+10	1	-1E+10	1	-1E+10	1
4902551	82	C	11/19/2022	10:00	-131.549	48.230	0	239.10	0	5.0370	0	33.7720	0	26.700	0	236.951	0	112.4	4	36.3	4	-1E+10	1	-1E+10	1	-1E+10	1	-1E+10	1	-1E+10	1	-1E+10	1
4902551	82	C	11/19/2022	10:00	-131.549	48.230	0	240.00	0	5.0270	0	33.7730	0	26.702	0	237.843	0	112.1	4	36.2	4	-1E+10	1	-1E+10	1	-1E+10	1	-1E+10	1	-1E+10	1	-1E+10	1
4902551	82	C	11/19/2022	10:00	-131.549	48.230	0	241.00	0	5.0160	0	33.7740	0	26.704	0	238.833	0	111.7	4	36.0	4	-1E+10	1	-1E+10	1	-1E+10	1	-1E+10	1	-1E+10	1	-1E+10	1
4902551	82	C	11/19/2022	10:00	-131.549	48.230	0	242.00	0	5.0160	0	33.7740	0	26.704	0	239.824	0	111.4	4	35.9	4	-1E+10	1	-1E+10	1	-1E+10	1	-1E+10	1	-1E+10	1	-1E+10	1
4902551	82	C	11/19/2022	10:00	-131.549	48.230	0	243.00	0	5.0170	0	33.7740	0	26.704	0	240.814	0	111.0	4	35.8	4	-1E+10	1	-1E+10	1	-1E+10	1	-1E+10	1	-1E+10	1	-1E+10	1
4902551	82	C	11/19/2022	10:00	-131.549	48.230	0	244.00	0	5.0140	0	33.7750	0	26.705	0	241.805	0	110.6	4	35.7	4	-1E+10	1	-1E+10	1	-1E+10	1	-1E+10	1	-1E+10	1	-1E+10	1
4902551	82	C	11/19/2022	10:00	-131.549	48.230	0	244.90	0	5.0050	0	33.7760	0	26.707	0	242.696	0	110.3	4	35.6	4	-1E+10	1	-1E+10	1	-1E+10	1	-1E+10	1	-1E+10	1	-1E+10	1
4902551	82	C	11/19/2022	10:00	-131.549	48.230	0	245.90	0	5.0020	0	33.7760	0	26.707	0	243.686	0	109.8	4	35.4	4	-1E+10	1	-1E+10	1	-1E+10	1	-1E+10	1	-1E+10	1	-1E+10	1
4902551	82	C	11/19/2022	10:00	-131.549	48.230	0	246.90	0	4.9990	0	33.7760	0	26.707	0	244.677	0	109.4	4	35.3	4	-1E+10	1	-1E+10	1	-1E+10	1	-1E+10	1	-1E+10	1	-1E+10	1
4902551	82	C	11/19/2022	10:00	-131.549	48.230	0	247.90	0	4.9990	0	33.7760	0	26.707	0	245.667	0	108.9	4	35.1	4	-1E+10	1	-1E+10	1	-1E+10	1	-1E+10	1	-1E+10	1	-1E+10	1
4902551	82	C	11/19/2022	10:00	-131.549	48.230	0	248.90	0	4.9930	0	33.7770	0	26.709	0	246.657	0	108.3	4	34.9	4	-1E+10	1	-1E+10	1	-1E+10	1	-1E+10	1	-1E+10	1	-1E+10	1
4902551	82	C	11/19/2022	10:00	-131.549	48.230	0	249.90	0	4.9880	0	33.7790	0	26.711	0	247.648	0	107.8	4	34.8	4	-1E+10	1	-1E+10	1	-1E+10	1	-1E+10	1	-1E+10	1	-1E+10	1
4902551	82	C	11/19/2022	10:00	-131.549	48.230	0	250.90	0	4.9810	0	33.7790	0	26.712	0	248.638	0	107.3	4	34.6	4	-1E+10	1	-1E+10	1	-1E+10	1	-1E+10	1	-1E+10	1	-1E+10	1
4902551	82	C	11/19/2022	10:00	-131.549	48.230	0	251.90	0	4.9800	0	33.7790	0	26.712	0	249.629	0	106.7	4	34.4	4	-1E+10	1	-1E+10	1	-1E+10	1	-1E+10	1	-1E+10	1	-1E+10	1
4902551	82	C	11/19/2022	10:00	-131.549	48.230	0	253.00	0	4.9800	0	33.7790	0	26.712	0	250.718	0	106.1	4	34.2	4	-1E+10	1	-1E+10	1	-1E+10	1	-1E+10	1	-1E+10	1	-1E+10	1
4902551	82	C	11/19/2022	10:00	-131.549	48.230	0	254.00	0	4.9810	0	33.7800	0	26.713	0	251.708	0	105.4	4	34.0	4	-1E+10	1	-1E+10	1	-1E+10	1	-1E+10	1	-1E+10	1	-1E+10	1
4902551	82	C	11/19/2022	10:00	-131.549	48.230	0	255.00	0	4.9750	0	33.7820	0	26.715	0	252.699	0	104.7	4	33.7	4	-1E+10	1	-1E+10	1	-1E+10	1	-1E+10	1	-1E+10	1	-1E+10	1
4902551	82	C	11/19/2022	10:00	-131.549	48.230	0	256.00	0	4.9640	0	33.7840	0	26.718	0	253.689	0	104.1	4	33.5	4	-1E+10	1	-1E+10	1	-1E+10	1	-1E+10	1	-1E+10	1	-1E+10	1
4902551	82	C	11/19/2022	10:00	-131.549	48.230	0	257.00	0	4.9540	0	33.7860	0	26.720	0	254.680	0	103.4	4	33.3	4	-1E+10	1	-1E+10	1	-1E+10	1	-1E+10	1	-1E+10	1	-1E+10	1
4902551	82	C	11/19/2022	10:00	-131.549	48.230	0	258.10	0	4.9430	0	33.7880	0	26.723	0	255.769	0	102.8	4	33.1	4	-1E+10	1	-1E+10	1	-1E+10	1	-1E+10	1	-1E+10	1	-1E+10	1
4902551	82	C	11/19/2022	10:00	-131.549	48.230	0	259.20	0	4.9380	0	33.7880	0	26.724	0	256.858	0	102.2	4	32.9	4	-1E+10	1	-1E+10	1	-1E+10	1	-1E+10	1	-1E+10	1	-1E+10	1
4902551	82	C	11/19/2022	10:00	-131.549	48.230	0	260.20	0	4.9400	0	33.7870	0	26.723	0	257.849	0	101.4	4	32.7	4	-1E+10	1	-1E+10	1	-1E+10	1	-1E+10	1	-1E+10	1	-1E+10	1
4902551	82	C	11/19/2022	10:00	-131.549	48.230	0	261.30	0	4.9370	0	33.7880	0	26.724	0	258.938	0	100.6	4	32.4	4	-1E+10	1	-1E+10	1	-1E+10	1	-1E+10	1	-1E+10	1	-1E+10	1
4902551	82	C	11/19/2022	10:00	-131.549	48.230	0	262.40	0	4.9160	0	33.7920	0	26.729	0	260.027	0	99.9	4	32.2	4	-1E+10	1	-1E+10	1	-1E+10	1	-1E+10	1	-1E+10	1	-1E+10	1
4902551	82	C	11/19/2022	10:00	-131.549	48.230	0	263.40	0	4.9060	0	33.7940	0	26.732	0	261.018	0	99.3	4	31.9	4	-1E+10	1	-1E+10	1	-1E+10	1	-1E+10	1	-1E+10	1	-1E+10	1
4902551	82	C	11/19/2022	10:00	-131.549	48.230	0	264.50	0	4.9040	0	33.7940	0	26.732	0	262.107	0	98.6	4	31.7	4	-1E+10	1	-1E+10	1	-1E+10	1	-1E+10	1	-1E+10	1	-1E+10	1
4902551	82	C	11/19/2022	10:00	-131.549	48.230	0	265.60	0	4.8970	0	33.7960	0	26.735	0	263.196	0	97.9	4	31.5	4	-1E+10	1	-1E+10	1	-1E+10	1	-1E+10	1	-1E+10	1	-1E+10	1
4902551	82	C	11/19/2022	10:00	-131.549	48.230	0	266.60	0	4.8820	0	33.8000	0	26.740	0	264.187	0	97.3	4	31.3	4	-1E+10	1	-1E+10	1	-1E+10	1	-1E+10	1	-1E+10	1	-1E+10	1
4902551	82	C	11/19/2022	10:00	-131.549	48.230	0	267.70	0	4.8740	0	33.8010	0	26.741	0	265.276	0	96.7	4	31.1	4	-1E+10	1	-1E+10	1	-1E+10	1	-1E+10	1	-1E+10	1	-1E+10	1
4902551	82	C	11/19/2022	10:00	-131.549	48.230	0	268.80	0	4.8690	0	33.8030	0	26.743	0	266.365	0	96.1	4	30.9	4	-1E+10	1	-1E+10	1	-1E+10	1	-1E+10	1	-1E+10	1	-1E+10	1
4902551	82	C	11/19/2022	10:00	-131.549	48.230	0	269.90	0	4.8590	0	33.8050	0	26.746	0	267.455	0	95.6	4	30.7	4	-1E+10	1	-1E+10	1	-1E+10	1	-1E+10	1	-1E+10	1	-1E+10	1
4902551	82	C	11/19/2022	10:00	-131.549	48.230	0	271.00	0	4.8520	0	33.8070	0	26.749	0	268.544	0	95.0	4	30.5	4	-1E+10	1	-1E+10	1	-1E+10	1	-1E+10	1	-1E+10	1	-1E+10	1
4902551	82	C	11/19/2022	10:00	-131.549	48.230	0	272.10	0	4.8470	0	33.8070	0	26.749	0	269.633	0	94.5	4	30.4	4	-1E+10	1	-1E+10	1	-1E+10	1	-1E+10	1	-1E+10	1	-1E+10	1
4902551	82	C	11/19/2022	10:00	-131.549	48.230	0	273.20	0	4.8390	0	33.8090	0	26.752	0	270.723	0	94.0	4	30.2	4	-1E+10	1	-1E+10	1	-1E+10	1	-1E+10	1	-1E+10	1	-1E+10	1
4902551	82	C	11/19/2022	10:00	-131.549	48.230	0	274.30	0	4.8300	0	33.8100	0	26.753	0	271.812	0	93.5	4	30.0	4	-1E+10	1	-1E+10	1	-1E+10	1	-1E+10	1	-1E+10	1	-1E+10	1
4902551	82	C	11/19/2022	10:00	-131.549	48.230	0	275.40	0	4.8200	0	33.8120	0	26.756	0	272.901	0	93.0	4	29.9	4	-1E+10	1	-1E+10	1	-1E+10	1	-1E+10	1	-1E+10	1	-1E+10	1
4902551	82	C	11/19/2022	10:00	-131.549	48.230	0	276.50	0	4.8100	0	33.8140	0	26.759	0	273.991	0	92.6	4	29.7	4	-1E+10	1	-1E+10	1	-1E+10	1	-1E+10	1	-1E+10	1	-1E+10	1
4902551	82	C	11/19/2022	10:00	-131.549	48.230	0	277.60	0	4.8060	0	33.8150	0	26.760	0	275.080	0	92.1	4	29.6	4	-1E+10	1	-1E+10	1	-1E+10	1	-1E+10	1	-1E+10	1	-1E+10	1
4902551	82	C	11/19/2022	10:00	-131.549	48.230	0	278.70	0	4.7920	0	33.8180	0	26.764	0	276.169	0	91.8	4	29.5	4	-1E+10	1	-1E+10	1	-1E+10	1	-1E+10	1	-1E+10	1	-1E+10	1
4902551	82	C	11/19/2022	10:00	-131.549	48.230	0	279.80	0	4.7900	0	33.8180	0	26.764	0	277.258	0	91.4	4	29.3	4	-1E+10	1	-1E+10	1	-1E+10	1	-1E+10	1	-1E+10	1	-1E+10	1
4902551	82	C	11/19/2022	10:00	-131.549	48.230	0	280.90	0	4.7870	0	33.8190	0	26.765	0	278.348	0	91.0	4	29.2	4	-1E+10	1	-1E+10	1	-1E+10	1	-1E+10	1	-1E+10	1	-1E+10	1
4902551	82	C	11/19/2022	10:00	-131.549	48.230	0	282.00	0	4.7790	0	33.8210	0	26.768	0	279.437	0	90.7	4	29.1	4	-1E+10	1	-1E+10	1	-1E+10	1	-1E+10	1	-1E+10	1	-1E+10	1
4902551	82	C	11/19/2022	10:00	-131.549	48.230	0	283.10	0	4.7760	0	33.8210	0	26.768	0	280.526	0	90.3	4	29.0	4	-1E+10	1	-1E+10	1	-1E+10	1	-1E+10	1	-1E+10	1	-1E+10	1
4902551	82	C	11/19/2022	10:00	-131.549	48.230	0	284.20	0	4.7760	0	33.8210	0	26.768	0	281.615	0	89.9	4	28.8	4	-1E+10	1	-1E+10	1	-1E+10	1	-1E+10	1	-1E+10	1	-1E+10	1
4902551	82	C	11/19/2022	10:00	-131.549	48.230	0	285.20	0	4.7720	0	33.8250	0	26.772	0	282.606	0	89.5	4	28.7	4	-1E+10	1	-1E+10	1	-1E+10	1	-1E+10	1	-1E+10	1	-1E+10	1
4902551	82	C	11/19/2022	10:00	-131.549	48.230	0	286.30	0	4.7710	0	33.8230	0	26.770	0	283.695	0	89.1	4	28.6	4	-1E+10	1	-1E+10	1	-1E+10	1	-1E+10	1	-1E+10	1	-1E+10	1
4902551	82	C	11/19/2022	10:00	-131.549	48.230	0	287.40	0	4.7700	0	33.8230	0	26.770	0	284.784	0	88.6	4	28.4	4	-1E+10	1	-1E+10	1	-1E+10	1	-1E+10	1	-1E+10	1	-1E+10	1
4902551	82	C	11/19/2022	10:00	-131.549	48.230	0	288.50	0	4.7700	0	33.8230	0	26.770	0	285.873	0	88.0	4	28.2	4	-1E+10	1	-1E+10	1	-1E+10	1	-1E+10	1	-1E+10	1	-1E+10	1
4902551	82	C	11/19/2022	10:00	-131.549	48.230	0	289.60	0	4.7640	0	33.8240	0	26.772	0	286.963	0	87.4	4	28.0	4	-1E+10	1	-1E+10	1	-1E+10	1	-1E+10	1	-1E+10	1	-1E+10	1
4902551	82	C	11/19/2022	10:00	-131.549	48.230	0	290.60	0	4.7540	0	33.8270	0	26.775	0	287.953	0	86.8	4	27.8	4	-1E+10	1	-1E+10	1	-1E+10	1	-1E+10	1	-1E+10	1	-1E+10	1
4902551	82	C	11/19/2022	10:00	-131.549	48.230	0	291.70	0	4.7460	0	33.8280	0	26.777	0	289.042	0	86.2	4	27.6	4	-1E+10	1	-1E+10	1	-1E+10	1	-1E+10	1	-1E+10	1	-1E+10	1
4902551	82	C	11/19/2022	10:00	-131.549	48.230	0	293.00	0	4.7300	0	33.8320	0	26.782	0	290.329	0	85.6	4	27.4	4	-1E+10	1	-1E+10	1	-1E+10	1	-1E+10	1	-1E+10	1	-1E+10	1
4902551	82	C	11/19/2022	10:00	-131.549	48.230	0	295.00	0	4.7160	0	33.8360	0	26.787	0	292.310	0	84.8	4	27.2	4	-1E+10	1	-1E+10	1	-1E+10	1	-1E+10	1	-1E+10	1	-1E+10	1
4902551	82	C	11/19/2022	10:00	-131.549	48.230	0	296.20	0	4.7090	0	33.8380	0	26.789	0	293.498	0	84.4	4	27.0	4	-1E+10	1	-1E+10	1	-1E+10	1	-1E+10	1	-1E+10	1	-1E+10	1
4902551	82	C	11/19/2022	10:00	-131.549	48.230	0	297.00	0	4.7090	0	33.8380	0	26.789	0	294.290	0	84.0	4	26.9	4	-1E+10	1	-1E+10	1	-1E+10	1	-1E+10	1	-1E+10	1	-1E+10	1
4902551	82	C	11/19/2022	10:00	-131.549	48.230	0	297.80	0	4.7090	0	33.8370	0	26.788	0	295.082	0	83.7	4	26.8	4	-1E+10	1	-1E+10	1	-1E+10	1	-1E+10	1	-1E+10	1	-1E+10	1
4902551	82	C	11/19/2022	10:00	-131.549	48.230	0	299.00	0	4.7050	0	33.8380	0	26.790	0	296.270	0	83.1	4	26.6	4	-1E+10	1	-1E+10	1	-1E+10	1	-1E+10	1	-1E+10	1	-1E+10	1
4902551	82	C	11/19/2022	10:00	-131.549	48.230	0	300.20	0	4.7000	0	33.8400	0	26.792	0	297.458	0	82.5	4	26.4	4	-1E+10	1	-1E+10	1	-1E+10	1	-1E+10	1	-1E+10	1	-1E+10	1
4902551	82	C	11/19/2022	10:00	-131.549	48.230	0	301.00	0	4.6930	0	33.8420	0	26.794	0	298.251	0	82.1	4	26.3	4	-1E+10	1	-1E+10	1	-1E+10	1	-1E+10	1	-1E+10	1	-1E+10	1
4902551	82	C	11/19/2022	10:00	-131.549	48.230	0	301.80	0	4.6890	0	33.8430	0	26.795	0	299.043	0	81.7	4	26.1	4	-1E+10	1	-1E+10	1	-1E+10	1	-1E+10	1	-1E+10	1	-1E+10	1
4902551	82	C	11/19/2022	10:00	-131.549	48.230	0	303.00	0	4.6840	0	33.8440	0	26.797	0	300.231	0	81.0	4	25.9	4	-1E+10	1	-1E+10	1	-1E+10	1	-1E+10	1	-1E+10	1	-1E+10	1
4902551	82	C	11/19/2022	10:00	-131.549	48.230	0	304.20	0	4.6820	0	33.8450	0	26.798	0	301.419	0	80.4	4	25.7	4	-1E+10	1	-1E+10	1	-1E+10	1	-1E+10	1	-1E+10	1	-1E+10	1
4902551	82	C	11/19/2022	10:00	-131.549	48.230	0	305.00	0	4.6740	0	33.8470	0	26.800	0	302.211	0	80.0	4	25.6	4	-1E+10	1	-1E+10	1	-1E+10	1	-1E+10	1	-1E+10	1	-1E+10	1
4902551	82	C	11/19/2022	10:00	-131.549	48.230	0	305.80	0	4.6710	0	33.8470	0	26.801	0	303.003	0	79.6	4	25.5	4	-1E+10	1	-1E+10	1	-1E+10	1	-1E+10	1	-1E+10	1	-1E+10	1
4902551	82	C	11/19/2022	10:00	-131.549	48.230	0	307.00	0	4.6630	0	33.8480	0	26.802	0	304.191	0	79.1	4	25.3	4	-1E+10	1	-1E+10	1	-1E+10	1	-1E+10	1	-1E+10	1	-1E+10	1
4902551	82	C	11/19/2022	10:00	-131.549	48.230	0	308.20	0	4.6420	0	33.8540	0	26.809	0	305.380	0	78.6	4	25.1	4	-1E+10	1	-1E+10	1	-1E+10	1	-1E+10	1	-1E+10	1	-1E+10	1
4902551	82	C	11/19/2022	10:00	-131.549	48.230	0	309.00	0	4.6390	0	33.8550	0	26.810	0	306.172	0	78.2	4	25.0	4	-1E+10	1	-1E+10	1	-1E+10	1	-1E+10	1	-1E+10	1	-1E+10	1
4902551	82	C	11/19/2022	10:00	-131.549	48.230	0	309.80	0	4.6330	0	33.8560	0	26.812	0	306.964	0	77.9	4	24.9	4	-1E+10	1	-1E+10	1	-1E+10	1	-1E+10	1	-1E+10	1	-1E+10	1
4902551	82	C	11/19/2022	10:00	-131.549	48.230	0	311.00	0	4.6080	0	33.8580	0	26.816	0	308.152	0	77.6	4	24.8	4	-1E+10	1	-1E+10	1	-1E+10	1	-1E+10	1	-1E+10	1	-1E+10	1
4902551	82	C	11/19/2022	10:00	-131.549	48.230	0	312.20	0	4.6040	0	33.8590	0	26.817	0	309.340	0	77.3	4	24.7	4	-1E+10	1	-1E+10	1	-1E+10	1	-1E+10	1	-1E+10	1	-1E+10	1
4902551	82	C	11/19/2022	10:00	-131.549	48.230	0	313.00	0	4.6030	0	33.8590	0	26.818	0	310.132	0	77.2	4	24.7	4	-1E+10	1	-1E+10	1	-1E+10	1	-1E+10	1	-1E+10	1	-1E+10	1
4902551	82	C	11/19/2022	10:00	-131.549	48.230	0	313.80	0	4.6040	0	33.8590	0	26.817	0	310.924	0	77.0	4	24.6	4	-1E+10	1	-1E+10	1	-1E+10	1	-1E+10	1	-1E+10	1	-1E+10	1
4902551	82	C	11/19/2022	10:00	-131.549	48.230	0	314.70	0	4.6020	0	33.8580	0	26.817	0	311.815	0	76.7	4	24.5	4	-1E+10	1	-1E+10	1	-1E+10	1	-1E+10	1	-1E+10	1	-1E+10	1
4902551	82	C	11/19/2022	10:00	-131.549	48.230	0	315.90	0	4.5910	0	33.8630	0	26.822	0	313.003	0	76.5	4	24.4	4	-1E+10	1	-1E+10	1	-1E+10	1	-1E+10	1	-1E+10	1	-1E+10	1
4902551	82	C	11/19/2022	10:00	-131.549	48.230	0	317.20	0	4.5910	0	33.8630	0	26.822	0	314.290	0	76.3	4	24.4	4	-1E+10	1	-1E+10	1	-1E+10	1	-1E+10	1	-1E+10	1	-1E+10	1
4902551	82	C	11/19/2022	10:00	-131.549	48.230	0	318.00	0	4.5900	0	33.8630	0	26.822	0	315.082	0	76.2	4	24.3	4	-1E+10	1	-1E+10	1	-1E+10	1	-1E+10	1	-1E+10	1	-1E+10	1
4902551	82	C	11/19/2022	10:00	-131.549	48.230	0	318.90	0	4.5890	0	33.8640	0	26.823	0	315.973	0	76.0	4	24.3	4	-1E+10	1	-1E+10	1	-1E+10	1	-1E+10	1	-1E+10	1	-1E+10	1
4902551	82	C	11/19/2022	10:00	-131.549	48.230	0	319.70	0	4.5860	0	33.8640	0	26.823	0	316.765	0	75.9	4	24.2	4	-1E+10	1	-1E+10	1	-1E+10	1	-1E+10	1	-1E+10	1	-1E+10	1
4902551	82	C	11/19/2022	10:00	-131.549	48.230	0	321.00	0	4.5830	0	33.8650	0	26.825	0	318.053	0	75.7	4	24.2	4	-1E+10	1	-1E+10	1	-1E+10	1	-1E+10	1	-1E+10	1	-1E+10	1
4902551	82	C	11/19/2022	10:00	-131.549	48.230	0	322.20	0	4.5830	0	33.8650	0	26.825	0	319.241	0	75.5	4	24.1	4	-1E+10	1	-1E+10	1	-1E+10	1	-1E+10	1	-1E+10	1	-1E+10	1
4902551	82	C	11/19/2022	10:00	-131.549	48.230	0	323.10	0	4.5820	0	33.8650	0	26.825	0	320.132	0	75.3	4	24.1	4	-1E+10	1	-1E+10	1	-1E+10	1	-1E+10	1	-1E+10	1	-1E+10	1
4902551	82	C	11/19/2022	10:00	-131.549	48.230	0	323.90	0	4.5820	0	33.8650	0	26.825	0	320.924	0	75.1	4	24.0	4	-1E+10	1	-1E+10	1	-1E+10	1	-1E+10	1	-1E+10	1	-1E+10	1
4902551	82	C	11/19/2022	10:00	-131.549	48.230	0	324.80	0	4.5820	0	33.8650	0	26.825	0	321.815	0	74.9	4	23.9	4	-1E+10	1	-1E+10	1	-1E+10	1	-1E+10	1	-1E+10	1	-1E+10	1
4902551	82	C	11/19/2022	10:00	-131.549	48.230	0	325.60	0	4.5820	0	33.8650	0	26.825	0	322.607	0	74.7	4	23.9	4	-1E+10	1	-1E+10	1	-1E+10	1	-1E+10	1	-1E+10	1	-1E+10	1
4902551	82	C	11/19/2022	10:00	-131.549	48.230	0	326.90	0	4.5750	0	33.8670	0	26.827	0	323.894	0	74.4	4	23.8	4	-1E+10	1	-1E+10	1	-1E+10	1	-1E+10	1	-1E+10	1	-1E+10	1
4902551	82	C	11/19/2022	10:00	-131.549	48.230	0	328.10	0	4.5730	0	33.8670	0	26.827	0	325.082	0	74.0	4	23.6	4	-1E+10	1	-1E+10	1	-1E+10	1	-1E+10	1	-1E+10	1	-1E+10	1
4902551	82	C	11/19/2022	10:00	-131.549	48.230	0	329.00	0	4.5710	0	33.8670	0	26.828	0	325.973	0	73.8	4	23.6	4	-1E+10	1	-1E+10	1	-1E+10	1	-1E+10	1	-1E+10	1	-1E+10	1
4902551	82	C	11/19/2022	10:00	-131.549	48.230	0	329.80	0	4.5660	0	33.8680	0	26.829	0	326.765	0	73.6	4	23.5	4	-1E+10	1	-1E+10	1	-1E+10	1	-1E+10	1	-1E+10	1	-1E+10	1
4902551	82	C	11/19/2022	10:00	-131.549	48.230	0	330.70	0	4.5660	0	33.8690	0	26.830	0	327.656	0	73.4	4	23.4	4	-1E+10	1	-1E+10	1	-1E+10	1	-1E+10	1	-1E+10	1	-1E+10	1
4902551	82	C	11/19/2022	10:00	-131.549	48.230	0	331.90	0	4.5650	0	33.8690	0	26.830	0	328.844	0	73.0	4	23.3	4	-1E+10	1	-1E+10	1	-1E+10	1	-1E+10	1	-1E+10	1	-1E+10	1
4902551	82	C	11/19/2022	10:00	-131.549	48.230	0	333.20	0	4.5620	0	33.8700	0	26.831	0	330.131	0	72.6	4	23.2	4	-1E+10	1	-1E+10	1	-1E+10	1	-1E+10	1	-1E+10	1	-1E+10	1
4902551	82	C	11/19/2022	10:00	-131.549	48.230	0	334.10	0	4.5590	0	33.8710	0	26.832	0	331.022	0	72.3	4	23.1	4	-1E+10	1	-1E+10	1	-1E+10	1	-1E+10	1	-1E+10	1	-1E+10	1
4902551	82	C	11/19/2022	10:00	-131.549	48.230	0	334.90	0	4.5580	0	33.8710	0	26.832	0	331.814	0	72.0	4	23.0	4	-1E+10	1	-1E+10	1	-1E+10	1	-1E+10	1	-1E+10	1	-1E+10	1
4902551	82	C	11/19/2022	10:00	-131.549	48.230	0	335.80	0	4.5550	0	33.8720	0	26.833	0	332.705	0	71.7	4	22.9	4	-1E+10	1	-1E+10	1	-1E+10	1	-1E+10	1	-1E+10	1	-1E+10	1
4902551	82	C	11/19/2022	10:00	-131.549	48.230	0	336.60	0	4.5540	0	33.8720	0	26.833	0	333.497	0	71.4	4	22.8	4	-1E+10	1	-1E+10	1	-1E+10	1	-1E+10	1	-1E+10	1	-1E+10	1
4902551	82	C	11/19/2022	10:00	-131.549	48.230	0	337.90	0	4.5500	0	33.8720	0	26.834	0	334.784	0	71.0	4	22.7	4	-1E+10	1	-1E+10	1	-1E+10	1	-1E+10	1	-1E+10	1	-1E+10	1
4902551	82	C	11/19/2022	10:00	-131.549	48.230	0	339.10	0	4.5470	0	33.8730	0	26.835	0	335.972	0	70.4	4	22.5	4	-1E+10	1	-1E+10	1	-1E+10	1	-1E+10	1	-1E+10	1	-1E+10	1
4902551	82	C	11/19/2022	10:00	-131.549	48.230	0	340.00	0	4.5410	0	33.8740	0	26.836	0	336.863	0	70.1	4	22.4	4	-1E+10	1	-1E+10	1	-1E+10	1	-1E+10	1	-1E+10	1	-1E+10	1
4902551	82	C	11/19/2022	10:00	-131.549	48.230	0	340.80	0	4.5370	0	33.8750	0	26.838	0	337.655	0	69.7	4	22.3	4	-1E+10	1	-1E+10	1	-1E+10	1	-1E+10	1	-1E+10	1	-1E+10	1
4902551	82	C	11/19/2022	10:00	-131.549	48.230	0	341.70	0	4.5330	0	33.8760	0	26.839	0	338.546	0	69.3	4	22.1	4	-1E+10	1	-1E+10	1	-1E+10	1	-1E+10	1	-1E+10	1	-1E+10	1
4902551	82	C	11/19/2022	10:00	-131.549	48.230	0	342.90	0	4.5180	0	33.8800	0	26.844	0	339.734	0	68.7	4	21.9	4	-1E+10	1	-1E+10	1	-1E+10	1	-1E+10	1	-1E+10	1	-1E+10	1
4902551	82	C	11/19/2022	10:00	-131.549	48.230	0	344.20	0	4.5090	0	33.8820	0	26.846	0	341.020	0	68.2	4	21.8	4	-1E+10	1	-1E+10	1	-1E+10	1	-1E+10	1	-1E+10	1	-1E+10	1
4902551	82	C	11/19/2022	10:00	-131.549	48.230	0	345.10	0	4.5080	0	33.8820	0	26.846	0	341.911	0	67.9	4	21.7	4	-1E+10	1	-1E+10	1	-1E+10	1	-1E+10	1	-1E+10	1	-1E+10	1
4902551	82	C	11/19/2022	10:00	-131.549	48.230	0	346.00	0	4.5010	0	33.8840	0	26.849	0	342.802	0	67.6	4	21.6	4	-1E+10	1	-1E+10	1	-1E+10	1	-1E+10	1	-1E+10	1	-1E+10	1
4902551	82	C	11/19/2022	10:00	-131.549	48.230	0	346.90	0	4.4930	0	33.8860	0	26.851	0	343.693	0	67.3	4	21.5	4	-1E+10	1	-1E+10	1	-1E+10	1	-1E+10	1	-1E+10	1	-1E+10	1
4902551	82	C	11/19/2022	10:00	-131.549	48.230	0	347.70	0	4.4900	0	33.8870	0	26.852	0	344.485	0	67.1	4	21.4	4	-1E+10	1	-1E+10	1	-1E+10	1	-1E+10	1	-1E+10	1	-1E+10	1
4902551	82	C	11/19/2022	10:00	-131.549	48.230	0	348.60	0	4.4880	0	33.8880	0	26.853	0	345.376	0	66.8	4	21.3	4	-1E+10	1	-1E+10	1	-1E+10	1	-1E+10	1	-1E+10	1	-1E+10	1
4902551	82	C	11/19/2022	10:00	-131.549	48.230	0	349.90	0	4.4830	0	33.8890	0	26.855	0	346.663	0	66.4	4	21.2	4	-1E+10	1	-1E+10	1	-1E+10	1	-1E+10	1	-1E+10	1	-1E+10	1
4902551	82	C	11/19/2022	10:00	-131.549	48.230	0	352.90	0	4.4650	0	33.8940	0	26.861	0	349.633	0	65.8	4	21.0	4	-1E+10	1	-1E+10	1	-1E+10	1	-1E+10	1	-1E+10	1	-1E+10	1
4902551	82	C	11/19/2022	10:00	-131.549	48.230	0	357.70	0	4.4590	0	33.8960	0	26.863	0	354.384	0	64.6	4	20.6	4	-1E+10	1	-1E+10	1	-1E+10	1	-1E+10	1	-1E+10	1	-1E+10	1
4902551	82	C	11/19/2022	10:00	-131.549	48.230	0	363.00	0	4.4310	0	33.9050	0	26.873	0	359.630	0	63.4	4	20.2	4	-1E+10	1	-1E+10	1	-1E+10	1	-1E+10	1	-1E+10	1	-1E+10	1
4902551	82	C	11/19/2022	10:00	-131.549	48.230	0	368.00	0	4.4210	0	33.9090	0	26.877	0	364.580	0	62.3	4	19.8	4	-1E+10	1	-1E+10	1	-1E+10	1	-1E+10	1	-1E+10	1	-1E+10	1
4902551	82	C	11/19/2022	10:00	-131.549	48.230	0	372.90	0	4.4070	0	33.9180	0	26.886	0	369.430	0	61.2	4	19.5	4	-1E+10	1	-1E+10	1	-1E+10	1	-1E+10	1	-1E+10	1	-1E+10	1
4902551	82	C	11/19/2022	10:00	-131.549	48.230	0	378.00	0	4.3950	0	33.9240	0	26.892	0	374.478	0	60.1	4	19.1	4	-1E+10	1	-1E+10	1	-1E+10	1	-1E+10	1	-1E+10	1	-1E+10	1
4902551	82	C	11/19/2022	10:00	-131.549	48.230	0	382.60	0	4.3850	0	33.9300	0	26.898	0	379.031	0	59.2	4	18.8	4	-1E+10	1	-1E+10	1	-1E+10	1	-1E+10	1	-1E+10	1	-1E+10	1
4902551	82	C	11/19/2022	10:00	-131.549	48.230	0	387.80	0	4.3770	0	33.9340	0	26.902	0	384.177	0	58.0	4	18.4	4	-1E+10	1	-1E+10	1	-1E+10	1	-1E+10	1	-1E+10	1	-1E+10	1
4902551	82	C	11/19/2022	10:00	-131.549	48.230	0	393.10	0	4.3690	0	33.9400	0	26.908	0	389.423	0	56.5	4	18.0	4	-1E+10	1	-1E+10	1	-1E+10	1	-1E+10	1	-1E+10	1	-1E+10	1
4902551	82	C	11/19/2022	10:00	-131.549	48.230	0	397.80	0	4.3540	0	33.9480	0	26.916	0	394.074	0	55.2	4	17.5	4	-1E+10	1	-1E+10	1	-1E+10	1	-1E+10	1	-1E+10	1	-1E+10	1
4902551	82	C	11/19/2022	10:00	-131.549	48.230	0	402.60	0	4.3420	0	33.9540	0	26.922	0	398.825	0	54.2	4	17.2	4	-1E+10	1	-1E+10	1	-1E+10	1	-1E+10	1	-1E+10	1	-1E+10	1
4902551	82	C	11/19/2022	10:00	-131.549	48.230	0	408.00	0	4.3350	0	33.9570	0	26.925	0	404.169	0	53.0	4	16.8	4	-1E+10	1	-1E+10	1	-1E+10	1	-1E+10	1	-1E+10	1	-1E+10	1
4902551	82	C	11/19/2022	10:00	-131.549	48.230	0	413.40	0	4.3250	0	33.9640	0	26.931	0	409.513	0	51.7	4	16.4	4	-1E+10	1	-1E+10	1	-1E+10	1	-1E+10	1	-1E+10	1	-1E+10	1
4902551	82	C	11/19/2022	10:00	-131.549	48.230	0	418.40	0	4.3200	0	33.9680	0	26.935	0	414.461	0	50.7	4	16.1	4	-1E+10	1	-1E+10	1	-1E+10	1	-1E+10	1	-1E+10	1	-1E+10	1
4902551	82	C	11/19/2022	10:00	-131.549	48.230	0	423.20	0	4.3130	0	33.9720	0	26.939	0	419.211	0	49.7	4	15.8	4	-1E+10	1	-1E+10	1	-1E+10	1	-1E+10	1	-1E+10	1	-1E+10	1
4902551	82	C	11/19/2022	10:00	-131.549	48.230	0	427.80	0	4.3030	0	33.9780	0	26.945	0	423.763	0	48.8	4	15.5	4	-1E+10	1	-1E+10	1	-1E+10	1	-1E+10	1	-1E+10	1	-1E+10	1
4902551	82	C	11/19/2022	10:00	-131.549	48.230	0	432.80	0	4.2970	0	33.9810	0	26.948	0	428.710	0	47.8	4	15.2	4	-1E+10	1	-1E+10	1	-1E+10	1	-1E+10	1	-1E+10	1	-1E+10	1
4902551	82	C	11/19/2022	10:00	-131.549	48.230	0	437.90	0	4.2880	0	33.9860	0	26.953	0	433.757	0	46.7	4	14.8	4	-1E+10	1	-1E+10	1	-1E+10	1	-1E+10	1	-1E+10	1	-1E+10	1
4902551	82	C	11/19/2022	10:00	-131.549	48.230	0	442.60	0	4.2790	0	33.9900	0	26.957	0	438.408	0	45.8	4	14.5	4	-1E+10	1	-1E+10	1	-1E+10	1	-1E+10	1	-1E+10	1	-1E+10	1
4902551	82	C	11/19/2022	10:00	-131.549	48.230	0	447.60	0	4.2720	0	33.9940	0	26.961	0	443.355	0	44.9	4	14.2	4	-1E+10	1	-1E+10	1	-1E+10	1	-1E+10	1	-1E+10	1	-1E+10	1
4902551	82	C	11/19/2022	10:00	-131.549	48.230	0	452.70	0	4.2620	0	33.9990	0	26.966	0	448.401	0	44.0	4	14.0	4	-1E+10	1	-1E+10	1	-1E+10	1	-1E+10	1	-1E+10	1	-1E+10	1
4902551	82	C	11/19/2022	10:00	-131.549	48.230	0	457.80	0	4.2580	0	34.0010	0	26.968	0	453.447	0	42.9	4	13.6	4	-1E+10	1	-1E+10	1	-1E+10	1	-1E+10	1	-1E+10	1	-1E+10	1
4902551	82	C	11/19/2022	10:00	-131.549	48.230	0	463.00	0	4.2480	0	34.0060	0	26.973	0	458.592	0	41.5	4	13.2	4	-1E+10	1	-1E+10	1	-1E+10	1	-1E+10	1	-1E+10	1	-1E+10	1
4902551	82	C	11/19/2022	10:00	-131.549	48.230	0	468.20	0	4.2300	0	34.0140	0	26.982	0	463.736	0	40.3	4	12.8	4	-1E+10	1	-1E+10	1	-1E+10	1	-1E+10	1	-1E+10	1	-1E+10	1
4902551	82	C	11/19/2022	10:00	-131.549	48.230	0	473.10	0	4.2120	0	34.0230	0	26.991	0	468.584	0	39.3	4	12.5	4	-1E+10	1	-1E+10	1	-1E+10	1	-1E+10	1	-1E+10	1	-1E+10	1
4902551	82	C	11/19/2022	10:00	-131.549	48.230	0	478.00	0	4.2030	0	34.0280	0	26.996	0	473.432	0	38.7	4	12.3	4	-1E+10	1	-1E+10	1	-1E+10	1	-1E+10	1	-1E+10	1	-1E+10	1
4902551	82	C	11/19/2022	10:00	-131.549	48.230	0	483.00	0	4.2010	0	34.0300	0	26.997	0	478.378	0	38.2	4	12.1	4	-1E+10	1	-1E+10	1	-1E+10	1	-1E+10	1	-1E+10	1	-1E+10	1
4902551	82	C	11/19/2022	10:00	-131.549	48.230	0	488.00	0	4.1910	0	34.0350	0	27.003	0	483.325	0	37.6	4	11.9	4	-1E+10	1	-1E+10	1	-1E+10	1	-1E+10	1	-1E+10	1	-1E+10	1
4902551	82	C	11/19/2022	10:00	-131.549	48.230	0	493.00	0	4.1800	0	34.0380	0	27.006	0	488.271	0	37.1	4	11.7	4	-1E+10	1	-1E+10	1	-1E+10	1	-1E+10	1	-1E+10	1	-1E+10	1
4902551	82	C	11/19/2022	10:00	-131.549	48.230	0	498.00	0	4.1780	0	34.0410	0	27.009	0	493.217	0	36.1	4	11.4	4	-1E+10	1	-1E+10	1	-1E+10	1	-1E+10	1	-1E+10	1	-1E+10	1
4902551	82	C	11/19/2022	10:00	-131.549	48.230	0	503.10	0	4.1710	0	34.0470	0	27.014	0	498.262	0	35.4	4	11.2	4	-1E+10	1	-1E+10	1	-1E+10	1	-1E+10	1	-1E+10	1	-1E+10	1
4902551	82	C	11/19/2022	10:00	-131.549	48.230	0	508.10	0	4.1630	0	34.0510	0	27.018	0	503.208	0	34.8	4	11.0	4	-1E+10	1	-1E+10	1	-1E+10	1	-1E+10	1	-1E+10	1	-1E+10	1
4902551	82	C	11/19/2022	10:00	-131.549	48.230	0	513.10	0	4.1550	0	34.0540	0	27.022	0	508.153	0	34.1	4	10.8	4	-1E+10	1	-1E+10	1	-1E+10	1	-1E+10	1	-1E+10	1	-1E+10	1
4902551	82	C	11/19/2022	10:00	-131.549	48.230	0	518.10	0	4.1400	0	34.0610	0	27.029	0	513.099	0	33.3	4	10.5	4	-1E+10	1	-1E+10	1	-1E+10	1	-1E+10	1	-1E+10	1	-1E+10	1
4902551	82	C	11/19/2022	10:00	-131.549	48.230	0	523.10	0	4.1270	0	34.0650	0	27.033	0	518.045	0	32.7	4	10.3	4	-1E+10	1	-1E+10	1	-1E+10	1	-1E+10	1	-1E+10	1	-1E+10	1
4902551	82	C	11/19/2022	10:00	-131.549	48.230	0	527.70	0	4.1210	0	34.0690	0	27.037	0	522.594	0	32.1	4	10.2	4	-1E+10	1	-1E+10	1	-1E+10	1	-1E+10	1	-1E+10	1	-1E+10	1
4902551	82	C	11/19/2022	10:00	-131.549	48.230	0	532.80	0	4.1080	0	34.0750	0	27.043	0	527.639	0	31.5	4	10.0	4	-1E+10	1	-1E+10	1	-1E+10	1	-1E+10	1	-1E+10	1	-1E+10	1
4902551	82	C	11/19/2022	10:00	-131.549	48.230	0	537.80	0	4.1000	0	34.0790	0	27.047	0	532.584	0	31.1	4	9.8	4	-1E+10	1	-1E+10	1	-1E+10	1	-1E+10	1	-1E+10	1	-1E+10	1
4902551	82	C	11/19/2022	10:00	-131.549	48.230	0	542.90	0	4.0950	0	34.0810	0	27.049	0	537.628	0	30.5	4	9.6	4	-1E+10	1	-1E+10	1	-1E+10	1	-1E+10	1	-1E+10	1	-1E+10	1
4902551	82	C	11/19/2022	10:00	-131.549	48.230	0	548.00	0	4.0840	0	34.0860	0	27.055	0	542.672	0	29.8	4	9.4	4	-1E+10	1	-1E+10	1	-1E+10	1	-1E+10	1	-1E+10	1	-1E+10	1
4902551	82	C	11/19/2022	10:00	-131.549	48.230	0	552.70	0	4.0700	0	34.0930	0	27.062	0	547.320	0	29.2	4	9.2	4	-1E+10	1	-1E+10	1	-1E+10	1	-1E+10	1	-1E+10	1	-1E+10	1
4902551	82	C	11/19/2022	10:00	-131.549	48.230	0	557.90	0	4.0580	0	34.0980	0	27.067	0	552.462	0	28.7	4	9.1	4	-1E+10	1	-1E+10	1	-1E+10	1	-1E+10	1	-1E+10	1	-1E+10	1
4902551	82	C	11/19/2022	10:00	-131.549	48.230	0	563.10	0	4.0460	0	34.1030	0	27.072	0	557.604	0	28.1	4	8.9	4	-1E+10	1	-1E+10	1	-1E+10	1	-1E+10	1	-1E+10	1	-1E+10	1
4902551	82	C	11/19/2022	10:00	-131.549	48.230	0	567.80	0	4.0330	0	34.1090	0	27.078	0	562.252	0	27.6	4	8.7	4	-1E+10	1	-1E+10	1	-1E+10	1	-1E+10	1	-1E+10	1	-1E+10	1
4902551	82	C	11/19/2022	10:00	-131.549	48.230	0	573.00	0	4.0210	0	34.1140	0	27.084	0	567.394	0	27.2	4	8.6	4	-1E+10	1	-1E+10	1	-1E+10	1	-1E+10	1	-1E+10	1	-1E+10	1
4902551	82	C	11/19/2022	10:00	-131.549	48.230	0	578.20	0	4.0100	0	34.1170	0	27.087	0	572.536	0	26.6	4	8.4	4	-1E+10	1	-1E+10	1	-1E+10	1	-1E+10	1	-1E+10	1	-1E+10	1
4902551	82	C	11/19/2022	10:00	-131.549	48.230	0	582.90	0	3.9970	0	34.1220	0	27.092	0	577.184	0	26.1	4	8.2	4	-1E+10	1	-1E+10	1	-1E+10	1	-1E+10	1	-1E+10	1	-1E+10	1
4902551	82	C	11/19/2022	10:00	-131.549	48.230	0	587.60	0	3.9840	0	34.1260	0	27.097	0	581.831	0	25.7	4	8.1	4	-1E+10	1	-1E+10	1	-1E+10	1	-1E+10	1	-1E+10	1	-1E+10	1
4902551	82	C	11/19/2022	10:00	-131.549	48.230	0	592.80	0	3.9650	0	34.1320	0	27.104	0	586.973	0	25.3	4	8.0	4	-1E+10	1	-1E+10	1	-1E+10	1	-1E+10	1	-1E+10	1	-1E+10	1
4902551	82	C	11/19/2022	10:00	-131.549	48.230	0	598.00	0	3.9560	0	34.1350	0	27.107	0	592.114	0	25.0	4	7.9	4	-1E+10	1	-1E+10	1	-1E+10	1	-1E+10	1	-1E+10	1	-1E+10	1
4902551	82	C	11/19/2022	10:00	-131.549	48.230	0	602.90	0	3.9500	0	34.1380	0	27.110	0	596.959	0	24.6	4	7.8	4	-1E+10	1	-1E+10	1	-1E+10	1	-1E+10	1	-1E+10	1	-1E+10	1
4902551	82	C	11/19/2022	10:00	-131.549	48.230	0	607.80	0	3.9380	0	34.1420	0	27.114	0	601.804	0	24.2	4	7.6	4	-1E+10	1	-1E+10	1	-1E+10	1	-1E+10	1	-1E+10	1	-1E+10	1
4902551	82	C	11/19/2022	10:00	-131.549	48.230	0	612.70	0	3.9220	0	34.1480	0	27.121	0	606.648	0	23.8	4	7.5	4	-1E+10	1	-1E+10	1	-1E+10	1	-1E+10	1	-1E+10	1	-1E+10	1
4902551	82	C	11/19/2022	10:00	-131.549	48.230	0	617.70	0	3.9160	0	34.1490	0	27.122	0	611.591	0	23.3	4	7.3	4	-1E+10	1	-1E+10	1	-1E+10	1	-1E+10	1	-1E+10	1	-1E+10	1
4902551	82	C	11/19/2022	10:00	-131.549	48.230	0	622.70	0	3.9050	0	34.1550	0	27.128	0	616.535	0	22.5	4	7.1	4	-1E+10	1	-1E+10	1	-1E+10	1	-1E+10	1	-1E+10	1	-1E+10	1
4902551	82	C	11/19/2022	10:00	-131.549	48.230	0	627.70	0	3.9010	0	34.1590	0	27.132	0	621.478	0	22.2	4	7.0	4	-1E+10	1	-1E+10	1	-1E+10	1	-1E+10	1	-1E+10	1	-1E+10	1
4902551	82	C	11/19/2022	10:00	-131.549	48.230	0	632.70	0	3.8980	0	34.1610	0	27.134	0	626.421	0	21.9	4	6.9	4	-1E+10	1	-1E+10	1	-1E+10	1	-1E+10	1	-1E+10	1	-1E+10	1
4902551	82	C	11/19/2022	10:00	-131.549	48.230	0	637.70	0	3.8860	0	34.1640	0	27.137	0	631.363	0	21.4	4	6.7	4	-1E+10	1	-1E+10	1	-1E+10	1	-1E+10	1	-1E+10	1	-1E+10	1
4902551	82	C	11/19/2022	10:00	-131.549	48.230	0	642.90	0	3.8690	0	34.1690	0	27.143	0	636.504	0	20.9	4	6.6	4	-1E+10	1	-1E+10	1	-1E+10	1	-1E+10	1	-1E+10	1	-1E+10	1
4902551	82	C	11/19/2022	10:00	-131.549	48.230	0	648.00	0	3.8540	0	34.1740	0	27.149	0	641.545	0	20.3	4	6.4	4	-1E+10	1	-1E+10	1	-1E+10	1	-1E+10	1	-1E+10	1	-1E+10	1
4902551	82	C	11/19/2022	10:00	-131.549	48.230	0	652.80	0	3.8460	0	34.1790	0	27.154	0	646.290	0	19.9	4	6.2	4	-1E+10	1	-1E+10	1	-1E+10	1	-1E+10	1	-1E+10	1	-1E+10	1
4902551	82	C	11/19/2022	10:00	-131.549	48.230	0	657.80	0	3.8350	0	34.1830	0	27.158	0	651.232	0	19.6	4	6.2	4	-1E+10	1	-1E+10	1	-1E+10	1	-1E+10	1	-1E+10	1	-1E+10	1
4902551	82	C	11/19/2022	10:00	-131.549	48.230	0	662.90	0	3.8040	0	34.1860	0	27.163	0	656.273	0	19.0	4	6.0	4	-1E+10	1	-1E+10	1	-1E+10	1	-1E+10	1	-1E+10	1	-1E+10	1
4902551	82	C	11/19/2022	10:00	-131.549	48.230	0	667.80	0	3.8070	0	34.1910	0	27.167	0	661.116	0	18.4	4	5.8	4	-1E+10	1	-1E+10	1	-1E+10	1	-1E+10	1	-1E+10	1	-1E+10	1
4902551	82	C	11/19/2022	10:00	-131.549	48.230	0	672.80	0	3.7960	0	34.1940	0	27.171	0	666.058	0	17.8	4	5.6	4	-1E+10	1	-1E+10	1	-1E+10	1	-1E+10	1	-1E+10	1	-1E+10	1
4902551	82	C	11/19/2022	10:00	-131.549	48.230	0	677.90	0	3.7860	0	34.2010	0	27.177	0	671.099	0	17.4	4	5.5	4	-1E+10	1	-1E+10	1	-1E+10	1	-1E+10	1	-1E+10	1	-1E+10	1
4902551	82	C	11/19/2022	10:00	-131.549	48.230	0	682.70	0	3.7760	0	34.2040	0	27.181	0	675.843	0	17.0	4	5.3	4	-1E+10	1	-1E+10	1	-1E+10	1	-1E+10	1	-1E+10	1	-1E+10	1
4902551	82	C	11/19/2022	10:00	-131.549	48.230	0	687.50	0	3.7700	0	34.2070	0	27.184	0	680.587	0	16.7	4	5.2	4	-1E+10	1	-1E+10	1	-1E+10	1	-1E+10	1	-1E+10	1	-1E+10	1
4902551	82	C	11/19/2022	10:00	-131.549	48.230	0	692.90	0	3.7610	0	34.2100	0	27.187	0	685.924	0	16.3	4	5.1	4	-1E+10	1	-1E+10	1	-1E+10	1	-1E+10	1	-1E+10	1	-1E+10	1
4902551	82	C	11/19/2022	10:00	-131.549	48.230	0	698.30	0	3.7450	0	34.2160	0	27.193	0	691.261	0	16.0	4	5.0	4	-1E+10	1	-1E+10	1	-1E+10	1	-1E+10	1	-1E+10	1	-1E+10	1
4902551	82	C	11/19/2022	10:00	-131.549	48.230	0	703.40	0	3.7380	0	34.2180	0	27.196	0	696.301	0	15.7	4	4.9	4	-1E+10	1	-1E+10	1	-1E+10	1	-1E+10	1	-1E+10	1	-1E+10	1
4902551	82	C	11/19/2022	10:00	-131.549	48.230	0	707.90	0	3.7320	0	34.2230	0	27.200	0	700.748	0	15.5	4	4.9	4	-1E+10	1	-1E+10	1	-1E+10	1	-1E+10	1	-1E+10	1	-1E+10	1
4902551	82	C	11/19/2022	10:00	-131.549	48.230	0	712.50	0	3.7260	0	34.2250	0	27.202	0	705.294	0	15.3	4	4.8	4	-1E+10	1	-1E+10	1	-1E+10	1	-1E+10	1	-1E+10	1	-1E+10	1
4902551	82	C	11/19/2022	10:00	-131.549	48.230	0	717.60	0	3.7200	0	34.2270	0	27.205	0	710.333	0	15.2	4	4.8	4	-1E+10	1	-1E+10	1	-1E+10	1	-1E+10	1	-1E+10	1	-1E+10	1
4902551	82	C	11/19/2022	10:00	-131.549	48.230	0	722.70	0	3.7100	0	34.2300	0	27.208	0	715.373	0	15.0	4	4.7	4	-1E+10	1	-1E+10	1	-1E+10	1	-1E+10	1	-1E+10	1	-1E+10	1
4902551	82	C	11/19/2022	10:00	-131.549	48.230	0	727.80	0	3.6970	0	34.2340	0	27.213	0	720.412	0	15.0	4	4.7	4	-1E+10	1	-1E+10	1	-1E+10	1	-1E+10	1	-1E+10	1	-1E+10	1
4902551	82	C	11/19/2022	10:00	-131.549	48.230	0	732.90	0	3.6950	0	34.2340	0	27.213	0	725.452	0	14.9	4	4.7	4	-1E+10	1	-1E+10	1	-1E+10	1	-1E+10	1	-1E+10	1	-1E+10	1
4902551	82	C	11/19/2022	10:00	-131.549	48.230	0	738.00	0	3.6930	0	34.2340	0	27.213	0	730.491	0	14.7	4	4.6	4	-1E+10	1	-1E+10	1	-1E+10	1	-1E+10	1	-1E+10	1	-1E+10	1
4902551	82	C	11/19/2022	10:00	-131.549	48.230	0	743.10	0	3.6790	0	34.2380	0	27.218	0	735.530	0	14.5	4	4.5	4	-1E+10	1	-1E+10	1	-1E+10	1	-1E+10	1	-1E+10	1	-1E+10	1
4902551	82	C	11/19/2022	10:00	-131.549	48.230	0	748.20	0	3.6670	0	34.2410	0	27.221	0	740.569	0	14.3	4	4.5	4	-1E+10	1	-1E+10	1	-1E+10	1	-1E+10	1	-1E+10	1	-1E+10	1
4902551	82	C	11/19/2022	10:00	-131.549	48.230	0	753.40	0	3.6520	0	34.2440	0	27.225	0	745.707	0	14.1	4	4.4	4	-1E+10	1	-1E+10	1	-1E+10	1	-1E+10	1	-1E+10	1	-1E+10	1
4902551	82	C	11/19/2022	10:00	-131.549	48.230	0	758.00	0	3.6340	0	34.2490	0	27.231	0	750.252	0	13.9	4	4.4	4	-1E+10	1	-1E+10	1	-1E+10	1	-1E+10	1	-1E+10	1	-1E+10	1
4902551	82	C	11/19/2022	10:00	-131.549	48.230	0	762.70	0	3.6240	0	34.2520	0	27.234	0	754.895	0	13.8	4	4.3	4	-1E+10	1	-1E+10	1	-1E+10	1	-1E+10	1	-1E+10	1	-1E+10	1
4902551	82	C	11/19/2022	10:00	-131.549	48.230	0	767.80	0	3.6130	0	34.2550	0	27.238	0	759.933	0	13.7	4	4.3	4	-1E+10	1	-1E+10	1	-1E+10	1	-1E+10	1	-1E+10	1	-1E+10	1
4902551	82	C	11/19/2022	10:00	-131.549	48.230	0	773.10	0	3.6020	0	34.2580	0	27.241	0	765.169	0	13.5	4	4.2	4	-1E+10	1	-1E+10	1	-1E+10	1	-1E+10	1	-1E+10	1	-1E+10	1
4902551	82	C	11/19/2022	10:00	-131.549	48.230	0	777.80	0	3.5950	0	34.2610	0	27.244	0	769.813	0	13.4	4	4.2	4	-1E+10	1	-1E+10	1	-1E+10	1	-1E+10	1	-1E+10	1	-1E+10	1
4902551	82	C	11/19/2022	10:00	-131.549	48.230	0	782.60	0	3.5820	0	34.2640	0	27.248	0	774.554	0	13.3	4	4.2	4	-1E+10	1	-1E+10	1	-1E+10	1	-1E+10	1	-1E+10	1	-1E+10	1
4902551	82	C	11/19/2022	10:00	-131.549	48.230	0	787.80	0	3.5700	0	34.2670	0	27.252	0	779.691	0	13.2	4	4.1	4	-1E+10	1	-1E+10	1	-1E+10	1	-1E+10	1	-1E+10	1	-1E+10	1
4902551	82	C	11/19/2022	10:00	-131.549	48.230	0	793.10	0	3.5520	0	34.2720	0	27.257	0	784.927	0	13.1	4	4.1	4	-1E+10	1	-1E+10	1	-1E+10	1	-1E+10	1	-1E+10	1	-1E+10	1
4902551	82	C	11/19/2022	10:00	-131.549	48.230	0	797.90	0	3.5400	0	34.2750	0	27.261	0	789.668	0	13.0	4	4.1	4	-1E+10	1	-1E+10	1	-1E+10	1	-1E+10	1	-1E+10	1	-1E+10	1
4902551	82	C	11/19/2022	10:00	-131.549	48.230	0	802.80	0	3.5280	0	34.2770	0	27.264	0	794.508	0	13.0	4	4.1	4	-1E+10	1	-1E+10	1	-1E+10	1	-1E+10	1	-1E+10	1	-1E+10	1
4902551	82	C	11/19/2022	10:00	-131.549	48.230	0	808.10	0	3.5030	0	34.2820	0	27.270	0	799.743	0	13.0	4	4.0	4	-1E+10	1	-1E+10	1	-1E+10	1	-1E+10	1	-1E+10	1	-1E+10	1
4902551	82	C	11/19/2022	10:00	-131.549	48.230	0	812.90	0	3.4860	0	34.2850	0	27.274	0	804.485	0	13.0	4	4.0	4	-1E+10	1	-1E+10	1	-1E+10	1	-1E+10	1	-1E+10	1	-1E+10	1
4902551	82	C	11/19/2022	10:00	-131.549	48.230	0	817.80	0	3.4670	0	34.2870	0	27.278	0	809.324	0	13.0	4	4.0	4	-1E+10	1	-1E+10	1	-1E+10	1	-1E+10	1	-1E+10	1	-1E+10	1
4902551	82	C	11/19/2022	10:00	-131.549	48.230	0	822.80	0	3.4570	0	34.2890	0	27.280	0	814.263	0	12.9	4	4.0	4	-1E+10	1	-1E+10	1	-1E+10	1	-1E+10	1	-1E+10	1	-1E+10	1
4902551	82	C	11/19/2022	10:00	-131.549	48.230	0	827.90	0	3.4540	0	34.2900	0	27.281	0	819.300	0	12.9	4	4.0	4	-1E+10	1	-1E+10	1	-1E+10	1	-1E+10	1	-1E+10	1	-1E+10	1
4902551	82	C	11/19/2022	10:00	-131.549	48.230	0	833.30	0	3.4460	0	34.2930	0	27.285	0	824.633	0	12.8	4	4.0	4	-1E+10	1	-1E+10	1	-1E+10	1	-1E+10	1	-1E+10	1	-1E+10	1
4902551	82	C	11/19/2022	10:00	-131.549	48.230	0	837.90	0	3.4400	0	34.2940	0	27.286	0	829.176	0	12.7	4	4.0	4	-1E+10	1	-1E+10	1	-1E+10	1	-1E+10	1	-1E+10	1	-1E+10	1
4902551	82	C	11/19/2022	10:00	-131.549	48.230	0	842.60	0	3.4310	0	34.2950	0	27.288	0	833.818	0	12.7	4	4.0	4	-1E+10	1	-1E+10	1	-1E+10	1	-1E+10	1	-1E+10	1	-1E+10	1
4902551	82	C	11/19/2022	10:00	-131.549	48.230	0	847.70	0	3.4200	0	34.2980	0	27.291	0	838.855	0	12.6	4	3.9	4	-1E+10	1	-1E+10	1	-1E+10	1	-1E+10	1	-1E+10	1	-1E+10	1
4902551	82	C	11/19/2022	10:00	-131.549	48.230	0	852.80	0	3.4100	0	34.3000	0	27.294	0	843.891	0	12.6	4	3.9	4	-1E+10	1	-1E+10	1	-1E+10	1	-1E+10	1	-1E+10	1	-1E+10	1
4902551	82	C	11/19/2022	10:00	-131.549	48.230	0	858.10	0	3.4040	0	34.3020	0	27.296	0	849.125	0	12.5	4	3.9	4	-1E+10	1	-1E+10	1	-1E+10	1	-1E+10	1	-1E+10	1	-1E+10	1
4902551	82	C	11/19/2022	10:00	-131.549	48.230	0	862.90	0	3.3940	0	34.3040	0	27.299	0	853.865	0	12.4	4	3.9	4	-1E+10	1	-1E+10	1	-1E+10	1	-1E+10	1	-1E+10	1	-1E+10	1
4902551	82	C	11/19/2022	10:00	-131.549	48.230	0	867.80	0	3.3970	0	34.3060	0	27.300	0	858.704	0	12.2	4	3.8	4	-1E+10	1	-1E+10	1	-1E+10	1	-1E+10	1	-1E+10	1	-1E+10	1
4902551	82	C	11/19/2022	10:00	-131.549	48.230	0	872.70	0	3.3940	0	34.3080	0	27.302	0	863.542	0	12.2	4	3.8	4	-1E+10	1	-1E+10	1	-1E+10	1	-1E+10	1	-1E+10	1	-1E+10	1
4902551	82	C	11/19/2022	10:00	-131.549	48.230	0	877.70	0	3.3860	0	34.3110	0	27.305	0	868.479	0	12.2	4	3.8	4	-1E+10	1	-1E+10	1	-1E+10	1	-1E+10	1	-1E+10	1	-1E+10	1
4902551	82	C	11/19/2022	10:00	-131.549	48.230	0	883.10	0	3.3720	0	34.3120	0	27.307	0	873.811	0	12.2	4	3.8	4	-1E+10	1	-1E+10	1	-1E+10	1	-1E+10	1	-1E+10	1	-1E+10	1
4902551	82	C	11/19/2022	10:00	-131.549	48.230	0	888.00	0	3.3570	0	34.3160	0	27.312	0	878.649	0	12.1	4	3.8	4	-1E+10	1	-1E+10	1	-1E+10	1	-1E+10	1	-1E+10	1	-1E+10	1
4902551	82	C	11/19/2022	10:00	-131.549	48.230	0	893.00	0	3.3490	0	34.3170	0	27.313	0	883.586	0	12.1	4	3.8	4	-1E+10	1	-1E+10	1	-1E+10	1	-1E+10	1	-1E+10	1	-1E+10	1
4902551	82	C	11/19/2022	10:00	-131.549	48.230	0	897.90	0	3.3420	0	34.3200	0	27.316	0	888.424	0	12.0	4	3.7	4	-1E+10	1	-1E+10	1	-1E+10	1	-1E+10	1	-1E+10	1	-1E+10	1
4902551	82	C	11/19/2022	10:00	-131.549	48.230	0	902.90	0	3.3390	0	34.3210	0	27.318	0	893.361	0	12.0	4	3.7	4	-1E+10	1	-1E+10	1	-1E+10	1	-1E+10	1	-1E+10	1	-1E+10	1
4902551	82	C	11/19/2022	10:00	-131.549	48.230	0	907.90	0	3.3380	0	34.3220	0	27.318	0	898.297	0	11.9	4	3.7	4	-1E+10	1	-1E+10	1	-1E+10	1	-1E+10	1	-1E+10	1	-1E+10	1
4902551	82	C	11/19/2022	10:00	-131.549	48.230	0	912.90	0	3.3370	0	34.3230	0	27.319	0	903.233	0	11.9	4	3.7	4	-1E+10	1	-1E+10	1	-1E+10	1	-1E+10	1	-1E+10	1	-1E+10	1
4902551	82	C	11/19/2022	10:00	-131.549	48.230	0	918.00	0	3.3330	0	34.3250	0	27.321	0	908.268	0	11.8	4	3.7	4	-1E+10	1	-1E+10	1	-1E+10	1	-1E+10	1	-1E+10	1	-1E+10	1
4902551	82	C	11/19/2022	10:00	-131.549	48.230	0	922.70	0	3.3280	0	34.3270	0	27.323	0	912.908	0	11.8	4	3.7	4	-1E+10	1	-1E+10	1	-1E+10	1	-1E+10	1	-1E+10	1	-1E+10	1
4902551	82	C	11/19/2022	10:00	-131.549	48.230	0	927.90	0	3.3210	0	34.3280	0	27.325	0	918.042	0	11.8	4	3.7	4	-1E+10	1	-1E+10	1	-1E+10	1	-1E+10	1	-1E+10	1	-1E+10	1
4902551	82	C	11/19/2022	10:00	-131.549	48.230	0	933.10	0	3.3180	0	34.3290	0	27.326	0	923.175	0	11.8	4	3.7	4	-1E+10	1	-1E+10	1	-1E+10	1	-1E+10	1	-1E+10	1	-1E+10	1
4902551	82	C	11/19/2022	10:00	-131.549	48.230	0	937.90	0	3.3110	0	34.3310	0	27.328	0	927.913	0	11.7	4	3.6	4	-1E+10	1	-1E+10	1	-1E+10	1	-1E+10	1	-1E+10	1	-1E+10	1
4902551	82	C	11/19/2022	10:00	-131.549	48.230	0	942.70	0	3.3060	0	34.3320	0	27.330	0	932.652	0	11.7	4	3.7	4	-1E+10	1	-1E+10	1	-1E+10	1	-1E+10	1	-1E+10	1	-1E+10	1
4902551	82	C	11/19/2022	10:00	-131.549	48.230	0	948.00	0	3.2850	0	34.3350	0	27.334	0	937.883	0	11.7	4	3.6	4	-1E+10	1	-1E+10	1	-1E+10	1	-1E+10	1	-1E+10	1	-1E+10	1
4902551	82	C	11/19/2022	10:00	-131.549	48.230	0	953.30	0	3.2720	0	34.3370	0	27.337	0	943.115	0	11.7	4	3.6	4	-1E+10	1	-1E+10	1	-1E+10	1	-1E+10	1	-1E+10	1	-1E+10	1
4902551	82	C	11/19/2022	10:00	-131.549	48.230	0	958.20	0	3.2690	0	34.3380	0	27.338	0	947.951	0	11.7	4	3.6	4	-1E+10	1	-1E+10	1	-1E+10	1	-1E+10	1	-1E+10	1	-1E+10	1
4902551	82	C	11/19/2022	10:00	-131.549	48.230	0	963.00	0	3.2590	0	34.3400	0	27.341	0	952.689	0	11.7	4	3.6	4	-1E+10	1	-1E+10	1	-1E+10	1	-1E+10	1	-1E+10	1	-1E+10	1
4902551	82	C	11/19/2022	10:00	-131.549	48.230	0	967.90	0	3.2510	0	34.3420	0	27.343	0	957.525	0	11.7	4	3.6	4	-1E+10	1	-1E+10	1	-1E+10	1	-1E+10	1	-1E+10	1	-1E+10	1
4902551	82	C	11/19/2022	10:00	-131.549	48.230	0	972.70	0	3.2420	0	34.3440	0	27.345	0	962.263	0	11.7	4	3.6	4	-1E+10	1	-1E+10	1	-1E+10	1	-1E+10	1	-1E+10	1	-1E+10	1
4902551	82	C	11/19/2022	10:00	-131.549	48.230	0	977.60	0	3.2340	0	34.3450	0	27.347	0	967.099	0	11.7	4	3.6	4	-1E+10	1	-1E+10	1	-1E+10	1	-1E+10	1	-1E+10	1	-1E+10	1
4902551	82	C	11/19/2022	10:00	-131.549	48.230	0	983.00	0	3.2180	0	34.3480	0	27.351	0	972.428	0	11.7	4	3.6	4	-1E+10	1	-1E+10	1	-1E+10	1	-1E+10	1	-1E+10	1	-1E+10	1
4902551	82	C	11/19/2022	10:00	-131.549	48.230	0	988.30	0	3.1960	0	34.3520	0	27.356	0	977.659	0	11.7	4	3.6	4	-1E+10	1	-1E+10	1	-1E+10	1	-1E+10	1	-1E+10	1	-1E+10	1
4902551	82	C	11/19/2022	10:00	-131.549	48.230	0	993.20	0	3.1820	0	34.3540	0	27.359	0	982.495	0	11.7	4	3.6	4	-1E+10	1	-1E+10	1	-1E+10	1	-1E+10	1	-1E+10	1	-1E+10	1
4902551	82	C	11/19/2022	10:00	-131.549	48.230	0	998.00	0	3.1670	0	34.3570	0	27.363	0	987.232	0	11.7	4	3.6	4	-1E+10	1	-1E+10	1	-1E+10	1	-1E+10	1	-1E+10	1	-1E+10	1
4902551	82	C	11/19/2022	10:00	-131.549	48.230	0	1005.20	0	3.1540	0	34.3600	0	27.366	0	994.337	0	11.8	4	3.6	4	-1E+10	1	-1E+10	1	-1E+10	1	-1E+10	1	-1E+10	1	-1E+10	1
4902551	82	C	11/19/2022	10:00	-131.549	48.230	0	1015.30	0	3.1370	0	34.3650	0	27.372	0	1004.304	0	11.8	4	3.6	4	-1E+10	1	-1E+10	1	-1E+10	1	-1E+10	1	-1E+10	1	-1E+10	1
4902551	82	C	11/19/2022	10:00	-131.549	48.230	0	1025.50	0	3.1140	0	34.3690	0	27.377	0	1014.369	0	11.8	4	3.7	4	-1E+10	1	-1E+10	1	-1E+10	1	-1E+10	1	-1E+10	1	-1E+10	1
4902551	82	C	11/19/2022	10:00	-131.549	48.230	0	1035.50	0	3.0840	0	34.3740	0	27.384	0	1024.236	0	11.9	4	3.7	4	-1E+10	1	-1E+10	1	-1E+10	1	-1E+10	1	-1E+10	1	-1E+10	1
4902551	82	C	11/19/2022	10:00	-131.549	48.230	0	1045.50	0	3.0610	0	34.3780	0	27.390	0	1034.102	0	11.9	4	3.7	4	-1E+10	1	-1E+10	1	-1E+10	1	-1E+10	1	-1E+10	1	-1E+10	1
4902551	82	C	11/19/2022	10:00	-131.549	48.230	0	1055.30	0	3.0490	0	34.3810	0	27.393	0	1043.771	0	12.0	4	3.7	4	-1E+10	1	-1E+10	1	-1E+10	1	-1E+10	1	-1E+10	1	-1E+10	1
4902551	82	C	11/19/2022	10:00	-131.549	48.230	0	1065.40	0	3.0310	0	34.3850	0	27.398	0	1053.735	0	12.1	4	3.7	4	-1E+10	1	-1E+10	1	-1E+10	1	-1E+10	1	-1E+10	1	-1E+10	1
4902551	82	C	11/19/2022	10:00	-131.549	48.230	0	1075.30	0	3.0060	0	34.3890	0	27.404	0	1063.502	0	12.2	4	3.8	4	-1E+10	1	-1E+10	1	-1E+10	1	-1E+10	1	-1E+10	1	-1E+10	1
4902551	82	C	11/19/2022	10:00	-131.549	48.230	0	1085.40	0	2.9840	0	34.3930	0	27.409	0	1073.465	0	12.2	4	3.8	4	-1E+10	1	-1E+10	1	-1E+10	1	-1E+10	1	-1E+10	1	-1E+10	1
4902551	82	C	11/19/2022	10:00	-131.549	48.230	0	1095.40	0	2.9690	0	34.3950	0	27.412	0	1083.329	0	12.3	4	3.8	4	-1E+10	1	-1E+10	1	-1E+10	1	-1E+10	1	-1E+10	1	-1E+10	1
4902551	82	C	11/19/2022	10:00	-131.549	48.230	0	1105.20	0	2.9570	0	34.3980	0	27.415	0	1092.996	0	12.4	4	3.8	4	-1E+10	1	-1E+10	1	-1E+10	1	-1E+10	1	-1E+10	1	-1E+10	1
4902551	82	C	11/19/2022	10:00	-131.549	48.230	0	1115.10	0	2.9440	0	34.4020	0	27.420	0	1102.761	0	12.6	4	3.9	4	-1E+10	1	-1E+10	1	-1E+10	1	-1E+10	1	-1E+10	1	-1E+10	1
4902551	82	C	11/19/2022	10:00	-131.549	48.230	0	1125.30	0	2.9290	0	34.4050	0	27.423	0	1112.821	0	12.8	4	3.9	4	-1E+10	1	-1E+10	1	-1E+10	1	-1E+10	1	-1E+10	1	-1E+10	1
4902551	82	C	11/19/2022	10:00	-131.549	48.230	0	1135.40	0	2.9040	0	34.4090	0	27.429	0	1122.782	0	12.9	4	4.0	4	-1E+10	1	-1E+10	1	-1E+10	1	-1E+10	1	-1E+10	1	-1E+10	1
4902551	82	C	11/19/2022	10:00	-131.549	48.230	0	1145.50	0	2.8860	0	34.4100	0	27.431	0	1132.742	0	13.0	4	4.0	4	-1E+10	1	-1E+10	1	-1E+10	1	-1E+10	1	-1E+10	1	-1E+10	1
4902551	82	C	11/19/2022	10:00	-131.549	48.230	0	1155.90	0	2.8630	0	34.4150	0	27.438	0	1142.998	0	13.2	4	4.1	4	-1E+10	1	-1E+10	1	-1E+10	1	-1E+10	1	-1E+10	1	-1E+10	1
4902551	82	C	11/19/2022	10:00	-131.549	48.230	0	1165.50	0	2.8480	0	34.4180	0	27.441	0	1152.465	0	13.4	4	4.1	4	-1E+10	1	-1E+10	1	-1E+10	1	-1E+10	1	-1E+10	1	-1E+10	1
4902551	82	C	11/19/2022	10:00	-131.549	48.230	0	1175.20	0	2.8360	0	34.4210	0	27.445	0	1162.029	0	13.5	4	4.2	4	-1E+10	1	-1E+10	1	-1E+10	1	-1E+10	1	-1E+10	1	-1E+10	1
4902551	82	C	11/19/2022	10:00	-131.549	48.230	0	1185.70	0	2.8190	0	34.4240	0	27.449	0	1172.382	0	13.6	4	4.2	4	-1E+10	1	-1E+10	1	-1E+10	1	-1E+10	1	-1E+10	1	-1E+10	1
4902551	82	C	11/19/2022	10:00	-131.549	48.230	0	1195.60	0	2.8040	0	34.4260	0	27.452	0	1182.143	0	13.8	4	4.2	4	-1E+10	1	-1E+10	1	-1E+10	1	-1E+10	1	-1E+10	1	-1E+10	1
4902551	82	C	11/19/2022	10:00	-131.549	48.230	0	1205.10	0	2.7880	0	34.4280	0	27.455	0	1191.510	0	14.0	4	4.3	4	-1E+10	1	-1E+10	1	-1E+10	1	-1E+10	1	-1E+10	1	-1E+10	1
4902551	82	C	11/19/2022	10:00	-131.549	48.230	0	1215.30	0	2.7760	0	34.4310	0	27.458	0	1201.566	0	14.2	4	4.3	4	-1E+10	1	-1E+10	1	-1E+10	1	-1E+10	1	-1E+10	1	-1E+10	1
4902551	82	C	11/19/2022	10:00	-131.549	48.230	0	1225.50	0	2.7630	0	34.4330	0	27.461	0	1211.621	0	14.4	4	4.4	4	-1E+10	1	-1E+10	1	-1E+10	1	-1E+10	1	-1E+10	1	-1E+10	1
4902551	82	C	11/19/2022	10:00	-131.549	48.230	0	1235.30	0	2.7540	0	34.4360	0	27.464	0	1221.282	0	14.7	4	4.5	4	-1E+10	1	-1E+10	1	-1E+10	1	-1E+10	1	-1E+10	1	-1E+10	1
4902551	82	C	11/19/2022	10:00	-131.549	48.230	0	1245.00	0	2.7440	0	34.4390	0	27.468	0	1230.843	0	14.8	4	4.6	4	-1E+10	1	-1E+10	1	-1E+10	1	-1E+10	1	-1E+10	1	-1E+10	1
4902551	82	C	11/19/2022	10:00	-131.549	48.230	0	1255.30	0	2.7280	0	34.4400	0	27.470	0	1240.996	0	14.9	4	4.6	4	-1E+10	1	-1E+10	1	-1E+10	1	-1E+10	1	-1E+10	1	-1E+10	1
4902551	82	C	11/19/2022	10:00	-131.549	48.230	0	1265.60	0	2.7090	0	34.4430	0	27.474	0	1251.148	0	15.2	4	4.7	4	-1E+10	1	-1E+10	1	-1E+10	1	-1E+10	1	-1E+10	1	-1E+10	1
4902551	82	C	11/19/2022	10:00	-131.549	48.230	0	1275.50	0	2.6990	0	34.4460	0	27.477	0	1260.905	0	15.6	4	4.8	4	-1E+10	1	-1E+10	1	-1E+10	1	-1E+10	1	-1E+10	1	-1E+10	1
4902551	82	C	11/19/2022	10:00	-131.549	48.230	0	1285.40	0	2.6810	0	34.4490	0	27.481	0	1270.662	0	15.9	4	4.9	4	-1E+10	1	-1E+10	1	-1E+10	1	-1E+10	1	-1E+10	1	-1E+10	1
4902551	82	C	11/19/2022	10:00	-131.549	48.230	0	1295.50	0	2.6680	0	34.4520	0	27.485	0	1280.615	0	16.1	4	4.9	4	-1E+10	1	-1E+10	1	-1E+10	1	-1E+10	1	-1E+10	1	-1E+10	1
4902551	82	C	11/19/2022	10:00	-131.549	48.230	0	1305.40	0	2.6510	0	34.4540	0	27.488	0	1290.371	0	16.4	4	5.0	4	-1E+10	1	-1E+10	1	-1E+10	1	-1E+10	1	-1E+10	1	-1E+10	1
4902551	82	C	11/19/2022	10:00	-131.549	48.230	0	1315.40	0	2.6370	0	34.4560	0	27.491	0	1300.225	0	16.7	4	5.1	4	-1E+10	1	-1E+10	1	-1E+10	1	-1E+10	1	-1E+10	1	-1E+10	1
4902551	82	C	11/19/2022	10:00	-131.549	48.230	0	1325.50	0	2.6250	0	34.4590	0	27.494	0	1310.177	0	17.3	4	5.3	4	-1E+10	1	-1E+10	1	-1E+10	1	-1E+10	1	-1E+10	1	-1E+10	1
4902551	82	C	11/19/2022	10:00	-131.549	48.230	0	1335.30	0	2.6080	0	34.4630	0	27.499	0	1319.833	0	17.8	4	5.4	4	-1E+10	1	-1E+10	1	-1E+10	1	-1E+10	1	-1E+10	1	-1E+10	1
4902551	82	C	11/19/2022	10:00	-131.549	48.230	0	1345.30	0	2.5890	0	34.4670	0	27.504	0	1329.686	0	18.3	4	5.6	4	-1E+10	1	-1E+10	1	-1E+10	1	-1E+10	1	-1E+10	1	-1E+10	1
4902551	82	C	11/19/2022	10:00	-131.549	48.230	0	1355.40	0	2.5730	0	34.4690	0	27.507	0	1339.637	0	18.6	4	5.7	4	-1E+10	1	-1E+10	1	-1E+10	1	-1E+10	1	-1E+10	1	-1E+10	1
4902551	82	C	11/19/2022	10:00	-131.549	48.230	0	1365.30	0	2.5570	0	34.4720	0	27.511	0	1349.390	0	19.2	4	5.9	4	-1E+10	1	-1E+10	1	-1E+10	1	-1E+10	1	-1E+10	1	-1E+10	1
4902551	82	C	11/19/2022	10:00	-131.549	48.230	0	1375.40	0	2.5390	0	34.4750	0	27.515	0	1359.340	0	19.8	4	6.0	4	-1E+10	1	-1E+10	1	-1E+10	1	-1E+10	1	-1E+10	1	-1E+10	1
4902551	82	C	11/19/2022	10:00	-131.549	48.230	0	1385.60	0	2.5250	0	34.4780	0	27.518	0	1369.387	0	20.3	4	6.2	4	-1E+10	1	-1E+10	1	-1E+10	1	-1E+10	1	-1E+10	1	-1E+10	1
4902551	82	C	11/19/2022	10:00	-131.549	48.230	0	1395.60	0	2.5050	0	34.4810	0	27.522	0	1379.238	0	20.9	4	6.4	4	-1E+10	1	-1E+10	1	-1E+10	1	-1E+10	1	-1E+10	1	-1E+10	1
4902551	82	C	11/19/2022	10:00	-131.549	48.230	0	1405.30	0	2.4840	0	34.4850	0	27.527	0	1388.792	0	21.4	4	6.5	4	-1E+10	1	-1E+10	1	-1E+10	1	-1E+10	1	-1E+10	1	-1E+10	1
4902551	82	C	11/19/2022	10:00	-131.549	48.230	0	1415.20	0	2.4720	0	34.4870	0	27.530	0	1398.543	0	21.8	4	6.6	4	-1E+10	1	-1E+10	1	-1E+10	1	-1E+10	1	-1E+10	1	-1E+10	1
4902551	82	C	11/19/2022	10:00	-131.549	48.230	0	1425.50	0	2.4620	0	34.4890	0	27.533	0	1408.688	0	22.3	4	6.8	4	-1E+10	1	-1E+10	1	-1E+10	1	-1E+10	1	-1E+10	1	-1E+10	1
4902551	82	C	11/19/2022	10:00	-131.549	48.230	0	1435.80	0	2.4490	0	34.4910	0	27.535	0	1418.832	0	22.8	4	7.0	4	-1E+10	1	-1E+10	1	-1E+10	1	-1E+10	1	-1E+10	1	-1E+10	1
4902551	82	C	11/19/2022	10:00	-131.549	48.230	0	1446.00	0	2.4330	0	34.4940	0	27.539	0	1428.876	0	23.5	4	7.2	4	-1E+10	1	-1E+10	1	-1E+10	1	-1E+10	1	-1E+10	1	-1E+10	1
4902551	82	C	11/19/2022	10:00	-131.549	48.230	0	1455.50	0	2.4180	0	34.4970	0	27.543	0	1438.232	0	24.1	4	7.3	4	-1E+10	1	-1E+10	1	-1E+10	1	-1E+10	1	-1E+10	1	-1E+10	1
4902551	82	C	11/19/2022	10:00	-131.549	48.230	0	1465.10	0	2.4080	0	34.4990	0	27.545	0	1447.685	0	24.7	4	7.5	4	-1E+10	1	-1E+10	1	-1E+10	1	-1E+10	1	-1E+10	1	-1E+10	1
4902551	82	C	11/19/2022	10:00	-131.549	48.230	0	1475.00	0	2.3920	0	34.5020	0	27.549	0	1457.433	0	25.3	4	7.7	4	-1E+10	1	-1E+10	1	-1E+10	1	-1E+10	1	-1E+10	1	-1E+10	1
4902551	82	C	11/19/2022	10:00	-131.549	48.230	0	1485.20	0	2.3770	0	34.5040	0	27.552	0	1467.476	0	25.8	4	7.8	4	-1E+10	1	-1E+10	1	-1E+10	1	-1E+10	1	-1E+10	1	-1E+10	1
4902551	82	C	11/19/2022	10:00	-131.549	48.230	0	1495.20	0	2.3700	0	34.5060	0	27.554	0	1477.322	0	26.3	4	8.0	4	-1E+10	1	-1E+10	1	-1E+10	1	-1E+10	1	-1E+10	1	-1E+10	1
4902551	82	C	11/19/2022	10:00	-131.549	48.230	0	1505.40	0	2.3600	0	34.5070	0	27.556	0	1487.364	0	26.8	4	8.1	4	-1E+10	1	-1E+10	1	-1E+10	1	-1E+10	1	-1E+10	1	-1E+10	1
4902551	82	C	11/19/2022	10:00	-131.549	48.230	0	1515.40	0	2.3390	0	34.5100	0	27.560	0	1497.209	0	27.5	4	8.4	4	-1E+10	1	-1E+10	1	-1E+10	1	-1E+10	1	-1E+10	1	-1E+10	1
4902551	82	C	11/19/2022	10:00	-131.549	48.230	0	1525.20	0	2.3230	0	34.5130	0	27.564	0	1506.856	0	28.2	4	8.6	4	-1E+10	1	-1E+10	1	-1E+10	1	-1E+10	1	-1E+10	1	-1E+10	1
4902551	82	C	11/19/2022	10:00	-131.549	48.230	0	1535.20	0	2.3100	0	34.5160	0	27.567	0	1516.700	0	28.8	4	8.7	4	-1E+10	1	-1E+10	1	-1E+10	1	-1E+10	1	-1E+10	1	-1E+10	1
4902551	82	C	11/19/2022	10:00	-131.549	48.230	0	1545.50	0	2.2990	0	34.5170	0	27.569	0	1526.839	0	29.3	4	8.9	4	-1E+10	1	-1E+10	1	-1E+10	1	-1E+10	1	-1E+10	1	-1E+10	1
4902551	82	C	11/19/2022	10:00	-131.549	48.230	0	1555.80	0	2.2890	0	34.5190	0	27.572	0	1536.977	0	29.8	4	9.0	4	-1E+10	1	-1E+10	1	-1E+10	1	-1E+10	1	-1E+10	1	-1E+10	1
4902551	82	C	11/19/2022	10:00	-131.549	48.230	0	1565.80	0	2.2770	0	34.5210	0	27.574	0	1546.820	0	30.3	4	9.2	4	-1E+10	1	-1E+10	1	-1E+10	1	-1E+10	1	-1E+10	1	-1E+10	1
4902551	82	C	11/19/2022	10:00	-131.549	48.230	0	1575.40	0	2.2700	0	34.5230	0	27.576	0	1556.268	0	30.7	4	9.3	4	-1E+10	1	-1E+10	1	-1E+10	1	-1E+10	1	-1E+10	1	-1E+10	1
4902551	82	C	11/19/2022	10:00	-131.549	48.230	0	1585.50	0	2.2600	0	34.5240	0	27.578	0	1566.208	0	31.1	4	9.4	4	-1E+10	1	-1E+10	1	-1E+10	1	-1E+10	1	-1E+10	1	-1E+10	1
4902551	82	C	11/19/2022	10:00	-131.549	48.230	0	1595.30	0	2.2530	0	34.5250	0	27.579	0	1575.852	0	31.5	4	9.6	4	-1E+10	1	-1E+10	1	-1E+10	1	-1E+10	1	-1E+10	1	-1E+10	1
4902551	82	C	11/19/2022	10:00	-131.549	48.230	0	1605.30	0	2.2460	0	34.5270	0	27.582	0	1585.693	0	32.0	4	9.7	4	-1E+10	1	-1E+10	1	-1E+10	1	-1E+10	1	-1E+10	1	-1E+10	1
4902551	82	C	11/19/2022	10:00	-131.549	48.230	0	1615.20	0	2.2380	0	34.5280	0	27.583	0	1595.435	0	32.6	4	9.9	4	-1E+10	1	-1E+10	1	-1E+10	1	-1E+10	1	-1E+10	1	-1E+10	1
4902551	82	C	11/19/2022	10:00	-131.549	48.230	0	1625.00	0	2.2280	0	34.5300	0	27.586	0	1605.078	0	33.1	4	10.0	4	-1E+10	1	-1E+10	1	-1E+10	1	-1E+10	1	-1E+10	1	-1E+10	1
4902551	82	C	11/19/2022	10:00	-131.549	48.230	0	1635.00	0	2.2190	0	34.5320	0	27.588	0	1614.917	0	33.6	4	10.2	4	-1E+10	1	-1E+10	1	-1E+10	1	-1E+10	1	-1E+10	1	-1E+10	1
4902551	82	C	11/19/2022	10:00	-131.549	48.230	0	1645.10	0	2.2160	0	34.5330	0	27.589	0	1624.854	0	34.0	4	10.3	4	-1E+10	1	-1E+10	1	-1E+10	1	-1E+10	1	-1E+10	1	-1E+10	1
4902551	82	C	11/19/2022	10:00	-131.549	48.230	0	1655.40	0	2.2080	0	34.5340	0	27.591	0	1634.988	0	34.7	4	10.5	4	-1E+10	1	-1E+10	1	-1E+10	1	-1E+10	1	-1E+10	1	-1E+10	1
4902551	82	C	11/19/2022	10:00	-131.549	48.230	0	1665.30	0	2.1970	0	34.5360	0	27.593	0	1644.727	0	35.3	4	10.7	4	-1E+10	1	-1E+10	1	-1E+10	1	-1E+10	1	-1E+10	1	-1E+10	1
4902551	82	C	11/19/2022	10:00	-131.549	48.230	0	1675.30	0	2.1880	0	34.5380	0	27.596	0	1654.565	0	35.7	4	10.8	4	-1E+10	1	-1E+10	1	-1E+10	1	-1E+10	1	-1E+10	1	-1E+10	1
4902551	82	C	11/19/2022	10:00	-131.549	48.230	0	1685.60	0	2.1810	0	34.5390	0	27.597	0	1664.697	0	36.2	4	11.0	4	-1E+10	1	-1E+10	1	-1E+10	1	-1E+10	1	-1E+10	1	-1E+10	1
4902551	82	C	11/19/2022	10:00	-131.549	48.230	0	1695.50	0	2.1770	0	34.5400	0	27.598	0	1674.435	0	36.9	4	11.2	4	-1E+10	1	-1E+10	1	-1E+10	1	-1E+10	1	-1E+10	1	-1E+10	1
4902551	82	C	11/19/2022	10:00	-131.549	48.230	0	1705.50	0	2.1660	0	34.5420	0	27.601	0	1684.271	0	37.5	4	11.3	4	-1E+10	1	-1E+10	1	-1E+10	1	-1E+10	1	-1E+10	1	-1E+10	1
4902551	82	C	11/19/2022	10:00	-131.549	48.230	0	1715.60	0	2.1600	0	34.5430	0	27.602	0	1694.205	0	37.9	4	11.5	4	-1E+10	1	-1E+10	1	-1E+10	1	-1E+10	1	-1E+10	1	-1E+10	1
4902551	82	C	11/19/2022	10:00	-131.549	48.230	0	1725.60	0	2.1530	0	34.5450	0	27.604	0	1704.040	0	38.3	4	11.6	4	-1E+10	1	-1E+10	1	-1E+10	1	-1E+10	1	-1E+10	1	-1E+10	1
4902551	82	C	11/19/2022	10:00	-131.549	48.230	0	1735.60	0	2.1440	0	34.5460	0	27.606	0	1713.875	0	38.7	4	11.7	4	-1E+10	1	-1E+10	1	-1E+10	1	-1E+10	1	-1E+10	1	-1E+10	1
4902551	82	C	11/19/2022	10:00	-131.549	48.230	0	1745.60	0	2.1380	0	34.5470	0	27.607	0	1723.709	0	39.3	4	11.9	4	-1E+10	1	-1E+10	1	-1E+10	1	-1E+10	1	-1E+10	1	-1E+10	1
4902551	82	C	11/19/2022	10:00	-131.549	48.230	0	1755.30	0	2.1300	0	34.5480	0	27.609	0	1733.248	0	40.0	4	12.1	4	-1E+10	1	-1E+10	1	-1E+10	1	-1E+10	1	-1E+10	1	-1E+10	1
4902551	82	C	11/19/2022	10:00	-131.549	48.230	0	1765.10	0	2.1200	0	34.5500	0	27.611	0	1742.884	0	40.7	4	12.3	4	-1E+10	1	-1E+10	1	-1E+10	1	-1E+10	1	-1E+10	1	-1E+10	1
4902551	82	C	11/19/2022	10:00	-131.549	48.230	0	1775.40	0	2.1100	0	34.5520	0	27.614	0	1753.012	0	41.3	4	12.5	4	-1E+10	1	-1E+10	1	-1E+10	1	-1E+10	1	-1E+10	1	-1E+10	1
4902551	82	C	11/19/2022	10:00	-131.549	48.230	0	1785.70	0	2.1020	0	34.5530	0	27.615	0	1763.140	0	41.8	4	12.6	4	-1E+10	1	-1E+10	1	-1E+10	1	-1E+10	1	-1E+10	1	-1E+10	1
4902551	82	C	11/19/2022	10:00	-131.549	48.230	0	1795.60	0	2.0950	0	34.5550	0	27.617	0	1772.873	0	42.2	4	12.8	4	-1E+10	1	-1E+10	1	-1E+10	1	-1E+10	1	-1E+10	1	-1E+10	1
4902551	82	C	11/19/2022	10:00	-131.549	48.230	0	1805.40	0	2.0910	0	34.5560	0	27.618	0	1782.508	0	42.8	4	12.9	4	-1E+10	1	-1E+10	1	-1E+10	1	-1E+10	1	-1E+10	1	-1E+10	1
4902551	82	C	11/19/2022	10:00	-131.549	48.230	0	1815.70	0	2.0830	0	34.5570	0	27.620	0	1792.634	0	43.3	4	13.1	4	-1E+10	1	-1E+10	1	-1E+10	1	-1E+10	1	-1E+10	1	-1E+10	1
4902551	82	C	11/19/2022	10:00	-131.549	48.230	0	1825.60	0	2.0780	0	34.5580	0	27.621	0	1802.366	0	43.7	4	13.2	4	-1E+10	1	-1E+10	1	-1E+10	1	-1E+10	1	-1E+10	1	-1E+10	1
4902551	82	C	11/19/2022	10:00	-131.549	48.230	0	1835.40	0	2.0720	0	34.5590	0	27.622	0	1812.000	0	44.2	4	13.4	4	-1E+10	1	-1E+10	1	-1E+10	1	-1E+10	1	-1E+10	1	-1E+10	1
4902551	82	C	11/19/2022	10:00	-131.549	48.230	0	1845.60	0	2.0630	0	34.5610	0	27.625	0	1822.026	0	44.9	4	13.6	4	-1E+10	1	-1E+10	1	-1E+10	1	-1E+10	1	-1E+10	1	-1E+10	1
4902551	82	C	11/19/2022	10:00	-131.549	48.230	0	1855.70	0	2.0480	0	34.5630	0	27.628	0	1831.954	0	45.8	4	13.8	4	-1E+10	1	-1E+10	1	-1E+10	1	-1E+10	1	-1E+10	1	-1E+10	1
4902551	82	C	11/19/2022	10:00	-131.549	48.230	0	1865.60	0	2.0350	0	34.5650	0	27.630	0	1841.684	0	46.4	4	14.0	4	-1E+10	1	-1E+10	1	-1E+10	1	-1E+10	1	-1E+10	1	-1E+10	1
4902551	82	C	11/19/2022	10:00	-131.549	48.230	0	1875.50	0	2.0290	0	34.5670	0	27.632	0	1851.414	0	46.9	4	14.1	4	-1E+10	1	-1E+10	1	-1E+10	1	-1E+10	1	-1E+10	1	-1E+10	1
4902551	82	C	11/19/2022	10:00	-131.549	48.230	0	1885.40	0	2.0240	0	34.5670	0	27.633	0	1861.144	0	47.4	4	14.3	4	-1E+10	1	-1E+10	1	-1E+10	1	-1E+10	1	-1E+10	1	-1E+10	1
4902551	82	C	11/19/2022	10:00	-131.549	48.230	0	1895.30	0	2.0150	0	34.5690	0	27.635	0	1870.873	0	48.0	4	14.5	4	-1E+10	1	-1E+10	1	-1E+10	1	-1E+10	1	-1E+10	1	-1E+10	1
4902551	82	C	11/19/2022	10:00	-131.549	48.230	0	1905.20	0	2.0080	0	34.5700	0	27.637	0	1880.602	0	48.5	4	14.6	4	-1E+10	1	-1E+10	1	-1E+10	1	-1E+10	1	-1E+10	1	-1E+10	1
4902551	82	C	11/19/2022	10:00	-131.549	48.230	0	1915.30	0	2.0030	0	34.5710	0	27.638	0	1890.526	0	49.0	4	14.8	4	-1E+10	1	-1E+10	1	-1E+10	1	-1E+10	1	-1E+10	1	-1E+10	1
4902551	82	C	11/19/2022	10:00	-131.549	48.230	0	1925.40	0	1.9950	0	34.5730	0	27.640	0	1900.451	0	49.7	4	15.0	4	-1E+10	1	-1E+10	1	-1E+10	1	-1E+10	1	-1E+10	1	-1E+10	1
4902551	82	C	11/19/2022	10:00	-131.549	48.230	0	1935.50	0	1.9850	0	34.5750	0	27.643	0	1910.375	0	50.4	4	15.2	4	-1E+10	1	-1E+10	1	-1E+10	1	-1E+10	1	-1E+10	1	-1E+10	1
4902551	82	C	11/19/2022	10:00	-131.549	48.230	0	1945.80	0	1.9760	0	34.5760	0	27.644	0	1920.494	0	51.2	4	15.4	4	-1E+10	1	-1E+10	1	-1E+10	1	-1E+10	1	-1E+10	1	-1E+10	1
4902551	82	C	11/19/2022	10:00	-131.549	48.230	0	1955.90	0	1.9670	0	34.5780	0	27.646	0	1930.417	0	51.9	4	15.6	4	-1E+10	1	-1E+10	1	-1E+10	1	-1E+10	1	-1E+10	1	-1E+10	1
4902551	82	C	11/19/2022	10:00	-131.549	48.230	0	1965.60	0	1.9590	0	34.5790	0	27.648	0	1939.947	0	52.7	4	15.9	4	-1E+10	1	-1E+10	1	-1E+10	1	-1E+10	1	-1E+10	1	-1E+10	1
4902551	82	C	11/19/2022	10:00	-131.549	48.230	0	1975.50	0	1.9500	0	34.5810	0	27.650	0	1949.672	0	53.1	4	16.0	4	-1E+10	1	-1E+10	1	-1E+10	1	-1E+10	1	-1E+10	1	-1E+10	1
4902551	82	C	11/19/2022	10:00	-131.549	48.230	0	1983.20	0	1.9460	0	34.5820	0	27.651	0	1957.236	0	53.1	4	16.0	4	-1E+10	1	-1E+10	1	-1E+10	1	-1E+10	1	-1E+10	1	-1E+10	1
4902551	82	C	11/19/2022	10:00	-131.549	48.230	0																										
4902551	83	C	11/29/2022	15:03	-131.536	48.173	0	0.00	0	11.3460	0	32.3230	0	24.631	0	0.000	0	254.4	4	93.5	4	-1E+10	1	-1E+10	1	-1E+10	1	-1E+10	1	-1E+10	1	-1E+10	1
4902551	83	C	11/29/2022	15:03	-131.536	48.173	0	0.20	0	11.3460	0	32.3240	0	24.631	0	0.198	0	260.6	4	95.8	4	-1E+10	1	-1E+10	1	-1E+10	1	-1E+10	1	-1E+10	1	-1E+10	1
4902551	83	C	11/29/2022	15:03	-131.536	48.173	0	0.30	0	11.3410	0	32.3280	0	24.635	0	0.297	0	-1e10	1	-1e10	1	-1E+10	1	-1E+10	1	-1E+10	1	-1E+10	1	-1E+10	1	-1E+10	1
4902551	83	C	11/29/2022	15:03	-131.536	48.173	0	0.40	0	11.3500	0	32.3190	0	24.627	0	0.397	0	254.3	4	93.5	4	-1E+10	1	-1E+10	1	-1E+10	1	-1E+10	1	-1E+10	1	-1E+10	1
4902551	83	C	11/29/2022	15:03	-131.536	48.173	0	0.90	0	11.3510	0	32.3190	0	24.627	0	0.892	0	-1e10	1	-1e10	1	-1E+10	1	-1E+10	1	-1E+10	1	-1E+10	1	-1E+10	1	-1E+10	1
4902551	83	C	11/29/2022	15:03	-131.536	48.173	0	1.10	0	11.3513	0	32.3190	0	24.627	0	1.091	0	254.2	4	93.5	4	-1E+10	1	-1E+10	1	-1E+10	1	-1E+10	1	-1E+10	1	-1E+10	1
4902551	83	C	11/29/2022	15:03	-131.536	48.173	0	2.10	0	11.3530	0	32.3190	0	24.626	0	2.082	0	-1e10	1	-1e10	1	-1E+10	1	-1E+10	1	-1E+10	1	-1E+10	1	-1E+10	1	-1E+10	1
4902551	83	C	11/29/2022	15:03	-131.536	48.173	0	2.20	0	11.3532	0	32.3193	0	24.626	0	2.181	0	254.3	4	93.5	4	-1E+10	1	-1E+10	1	-1E+10	1	-1E+10	1	-1E+10	1	-1E+10	1
4902551	83	C	11/29/2022	15:03	-131.536	48.173	0	2.80	0	11.3544	0	32.3211	0	24.628	0	2.776	0	254.2	4	93.5	4	-1E+10	1	-1E+10	1	-1E+10	1	-1E+10	1	-1E+10	1	-1E+10	1
4902551	83	C	11/29/2022	15:03	-131.536	48.173	0	3.10	0	11.3550	0	32.3220	0	24.628	0	3.074	0	254.1	4	93.4	4	-1E+10	1	-1E+10	1	-1E+10	1	-1E+10	1	-1E+10	1	-1E+10	1
4902551	83	C	11/29/2022	15:03	-131.536	48.173	0	4.00	0	11.3540	0	32.3240	0	24.630	0	3.966	0	254.2	4	93.5	4	-1E+10	1	-1E+10	1	-1E+10	1	-1E+10	1	-1E+10	1	-1E+10	1
4902551	83	C	11/29/2022	15:03	-131.536	48.173	0	4.90	0	11.3540	0	32.3250	0	24.631	0	4.859	0	254.1	4	93.4	4	-1E+10	1	-1E+10	1	-1E+10	1	-1E+10	1	-1E+10	1	-1E+10	1
4902551	83	C	11/29/2022	15:03	-131.536	48.173	0	6.00	0	11.3560	0	32.3250	0	24.630	0	5.949	0	254.1	4	93.4	4	-1E+10	1	-1E+10	1	-1E+10	1	-1E+10	1	-1E+10	1	-1E+10	1
4902551	83	C	11/29/2022	15:03	-131.536	48.173	0	7.00	0	11.3580	0	32.3250	0	24.630	0	6.941	0	254.1	4	93.4	4	-1E+10	1	-1E+10	1	-1E+10	1	-1E+10	1	-1E+10	1	-1E+10	1
4902551	83	C	11/29/2022	15:03	-131.536	48.173	0	7.80	0	11.3570	0	32.3250	0	24.630	0	7.734	0	254.1	4	93.4	4	-1E+10	1	-1E+10	1	-1E+10	1	-1E+10	1	-1E+10	1	-1E+10	1
4902551	83	C	11/29/2022	15:03	-131.536	48.173	0	9.00	0	11.3580	0	32.3250	0	24.630	0	8.924	0	254.0	4	93.4	4	-1E+10	1	-1E+10	1	-1E+10	1	-1E+10	1	-1E+10	1	-1E+10	1
4902551	83	C	11/29/2022	15:03	-131.536	48.173	0	9.90	0	11.3590	0	32.3250	0	24.630	0	9.817	0	254.0	4	93.4	4	-1E+10	1	-1E+10	1	-1E+10	1	-1E+10	1	-1E+10	1	-1E+10	1
4902551	83	C	11/29/2022	15:03	-131.536	48.173	0	10.90	0	11.3580	0	32.3250	0	24.630	0	10.808	0	254.0	4	93.4	4	-1E+10	1	-1E+10	1	-1E+10	1	-1E+10	1	-1E+10	1	-1E+10	1
4902551	83	C	11/29/2022	15:03	-131.536	48.173	0	12.00	0	11.3590	0	32.3250	0	24.630	0	11.899	0	254.0	4	93.4	4	-1E+10	1	-1E+10	1	-1E+10	1	-1E+10	1	-1E+10	1	-1E+10	1
4902551	83	C	11/29/2022	15:03	-131.536	48.173	0	12.90	0	11.3590	0	32.3240	0	24.629	0	12.791	0	254.0	4	93.4	4	-1E+10	1	-1E+10	1	-1E+10	1	-1E+10	1	-1E+10	1	-1E+10	1
4902551	83	C	11/29/2022	15:03	-131.536	48.173	0	13.70	0	11.3580	0	32.3260	0	24.631	0	13.584	0	254.0	4	93.4	4	-1E+10	1	-1E+10	1	-1E+10	1	-1E+10	1	-1E+10	1	-1E+10	1
4902551	83	C	11/29/2022	15:03	-131.536	48.173	0	15.00	0	11.3610	0	32.3250	0	24.630	0	14.873	0	254.0	4	93.4	4	-1E+10	1	-1E+10	1	-1E+10	1	-1E+10	1	-1E+10	1	-1E+10	1
4902551	83	C	11/29/2022	15:03	-131.536	48.173	0	16.30	0	11.3610	0	32.3250	0	24.630	0	16.162	0	254.0	4	93.4	4	-1E+10	1	-1E+10	1	-1E+10	1	-1E+10	1	-1E+10	1	-1E+10	1
4902551	83	C	11/29/2022	15:03	-131.536	48.173	0	17.10	0	11.3610	0	32.3250	0	24.630	0	16.956	0	253.9	4	93.4	4	-1E+10	1	-1E+10	1	-1E+10	1	-1E+10	1	-1E+10	1	-1E+10	1
4902551	83	C	11/29/2022	15:03	-131.536	48.173	0	17.90	0	11.3600	0	32.3250	0	24.630	0	17.749	0	253.9	4	93.4	4	-1E+10	1	-1E+10	1	-1E+10	1	-1E+10	1	-1E+10	1	-1E+10	1
4902551	83	C	11/29/2022	15:03	-131.536	48.173	0	18.80	0	11.3600	0	32.3250	0	24.630	0	18.641	0	253.9	4	93.4	4	-1E+10	1	-1E+10	1	-1E+10	1	-1E+10	1	-1E+10	1	-1E+10	1
4902551	83	C	11/29/2022	15:03	-131.536	48.173	0	19.60	0	11.3600	0	32.3250	0	24.630	0	19.434	0	254.0	4	93.4	4	-1E+10	1	-1E+10	1	-1E+10	1	-1E+10	1	-1E+10	1	-1E+10	1
4902551	83	C	11/29/2022	15:03	-131.536	48.173	0	20.80	0	11.3620	0	32.3250	0	24.630	0	20.624	0	253.9	4	93.4	4	-1E+10	1	-1E+10	1	-1E+10	1	-1E+10	1	-1E+10	1	-1E+10	1
4902551	83	C	11/29/2022	15:03	-131.536	48.173	0	22.00	0	11.3610	0	32.3250	0	24.630	0	21.814	0	254.0	4	93.4	4	-1E+10	1	-1E+10	1	-1E+10	1	-1E+10	1	-1E+10	1	-1E+10	1
4902551	83	C	11/29/2022	15:03	-131.536	48.173	0	23.00	0	11.3600	0	32.3250	0	24.630	0	22.805	0	253.9	4	93.4	4	-1E+10	1	-1E+10	1	-1E+10	1	-1E+10	1	-1E+10	1	-1E+10	1
4902551	83	C	11/29/2022	15:03	-131.536	48.173	0	24.10	0	11.3600	0	32.3250	0	24.630	0	23.896	0	254.0	4	93.4	4	-1E+10	1	-1E+10	1	-1E+10	1	-1E+10	1	-1E+10	1	-1E+10	1
4902551	83	C	11/29/2022	15:03	-131.536	48.173	0	24.70	0	11.3600	0	32.3240	0	24.629	0	24.491	0	253.9	4	93.4	4	-1E+10	1	-1E+10	1	-1E+10	1	-1E+10	1	-1E+10	1	-1E+10	1
4902551	83	C	11/29/2022	15:03	-131.536	48.173	0	25.80	0	11.3590	0	32.3240	0	24.630	0	25.581	0	253.9	4	93.4	4	-1E+10	1	-1E+10	1	-1E+10	1	-1E+10	1	-1E+10	1	-1E+10	1
4902551	83	C	11/29/2022	15:03	-131.536	48.173	0	26.90	0	11.3590	0	32.3240	0	24.630	0	26.672	0	253.9	4	93.4	4	-1E+10	1	-1E+10	1	-1E+10	1	-1E+10	1	-1E+10	1	-1E+10	1
4902551	83	C	11/29/2022	15:03	-131.536	48.173	0	27.80	0	11.3590	0	32.3250	0	24.630	0	27.564	0	253.9	4	93.4	4	-1E+10	1	-1E+10	1	-1E+10	1	-1E+10	1	-1E+10	1	-1E+10	1
4902551	83	C	11/29/2022	15:03	-131.536	48.173	0	29.00	0	11.3600	0	32.3250	0	24.630	0	28.754	0	254.0	4	93.4	4	-1E+10	1	-1E+10	1	-1E+10	1	-1E+10	1	-1E+10	1	-1E+10	1
4902551	83	C	11/29/2022	15:03	-131.536	48.173	0	29.80	0	11.3610	0	32.3250	0	24.630	0	29.547	0	253.9	4	93.4	4	-1E+10	1	-1E+10	1	-1E+10	1	-1E+10	1	-1E+10	1	-1E+10	1
4902551	83	C	11/29/2022	15:03	-131.536	48.173	0	30.90	0	11.3620	0	32.3250	0	24.630	0	30.638	0	253.9	4	93.4	4	-1E+10	1	-1E+10	1	-1E+10	1	-1E+10	1	-1E+10	1	-1E+10	1
4902551	83	C	11/29/2022	15:03	-131.536	48.173	0	32.00	0	11.3610	0	32.3250	0	24.630	0	31.729	0	253.9	4	93.4	4	-1E+10	1	-1E+10	1	-1E+10	1	-1E+10	1	-1E+10	1	-1E+10	1
4902551	83	C	11/29/2022	15:03	-131.536	48.173	0	32.90	0	11.3610	0	32.3250	0	24.630	0	32.621	0	254.0	4	93.4	4	-1E+10	1	-1E+10	1	-1E+10	1	-1E+10	1	-1E+10	1	-1E+10	1
4902551	83	C	11/29/2022	15:03	-131.536	48.173	0	33.90	0	11.3610	0	32.3240	0	24.629	0	33.612	0	253.9	4	93.4	4	-1E+10	1	-1E+10	1	-1E+10	1	-1E+10	1	-1E+10	1	-1E+10	1
4902551	83	C	11/29/2022	15:03	-131.536	48.173	0	34.80	0	11.3620	0	32.3250	0	24.630	0	34.505	0	253.9	4	93.4	4	-1E+10	1	-1E+10	1	-1E+10	1	-1E+10	1	-1E+10	1	-1E+10	1
4902551	83	C	11/29/2022	15:03	-131.536	48.173	0	35.70	0	11.3620	0	32.3250	0	24.630	0	35.397	0	253.9	4	93.4	4	-1E+10	1	-1E+10	1	-1E+10	1	-1E+10	1	-1E+10	1	-1E+10	1
4902551	83	C	11/29/2022	15:03	-131.536	48.173	0	36.90	0	11.3620	0	32.3250	0	24.630	0	36.587	0	253.9	4	93.4	4	-1E+10	1	-1E+10	1	-1E+10	1	-1E+10	1	-1E+10	1	-1E+10	1
4902551	83	C	11/29/2022	15:03	-131.536	48.173	0	37.80	0	11.3620	0	32.3250	0	24.630	0	37.479	0	253.9	4	93.4	4	-1E+10	1	-1E+10	1	-1E+10	1	-1E+10	1	-1E+10	1	-1E+10	1
4902551	83	C	11/29/2022	15:03	-131.536	48.173	0	39.00	0	11.3610	0	32.3240	0	24.630	0	38.668	0	254.0	4	93.4	4	-1E+10	1	-1E+10	1	-1E+10	1	-1E+10	1	-1E+10	1	-1E+10	1
4902551	83	C	11/29/2022	15:03	-131.536	48.173	0	40.10	0	11.3630	0	32.3250	0	24.630	0	39.759	0	253.9	4	93.4	4	-1E+10	1	-1E+10	1	-1E+10	1	-1E+10	1	-1E+10	1	-1E+10	1
4902551	83	C	11/29/2022	15:03	-131.536	48.173	0	40.80	0	11.3620	0	32.3250	0	24.630	0	40.453	0	253.9	4	93.4	4	-1E+10	1	-1E+10	1	-1E+10	1	-1E+10	1	-1E+10	1	-1E+10	1
4902551	83	C	11/29/2022	15:03	-131.536	48.173	0	41.80	0	11.3630	0	32.3250	0	24.630	0	41.444	0	253.9	4	93.4	4	-1E+10	1	-1E+10	1	-1E+10	1	-1E+10	1	-1E+10	1	-1E+10	1
4902551	83	C	11/29/2022	15:03	-131.536	48.173	0	42.90	0	11.3610	0	32.3250	0	24.630	0	42.535	0	253.8	4	93.4	4	-1E+10	1	-1E+10	1	-1E+10	1	-1E+10	1	-1E+10	1	-1E+10	1
4902551	83	C	11/29/2022	15:03	-131.536	48.173	0	43.90	0	11.3610	0	32.3250	0	24.630	0	43.526	0	253.9	4	93.4	4	-1E+10	1	-1E+10	1	-1E+10	1	-1E+10	1	-1E+10	1	-1E+10	1
4902551	83	C	11/29/2022	15:03	-131.536	48.173	0	45.00	0	11.3600	0	32.3260	0	24.631	0	44.617	0	253.9	4	93.4	4	-1E+10	1	-1E+10	1	-1E+10	1	-1E+10	1	-1E+10	1	-1E+10	1
4902551	83	C	11/29/2022	15:03	-131.536	48.173	0	45.70	0	11.3610	0	32.3250	0	24.630	0	45.311	0	253.9	4	93.4	4	-1E+10	1	-1E+10	1	-1E+10	1	-1E+10	1	-1E+10	1	-1E+10	1
4902551	83	C	11/29/2022	15:03	-131.536	48.173	0	46.80	0	11.3630	0	32.3250	0	24.630	0	46.401	0	253.9	4	93.4	4	-1E+10	1	-1E+10	1	-1E+10	1	-1E+10	1	-1E+10	1	-1E+10	1
4902551	83	C	11/29/2022	15:03	-131.536	48.173	0	48.10	0	11.3630	0	32.3250	0	24.630	0	47.690	0	253.9	4	93.4	4	-1E+10	1	-1E+10	1	-1E+10	1	-1E+10	1	-1E+10	1	-1E+10	1
4902551	83	C	11/29/2022	15:03	-131.536	48.173	0	49.10	0	11.3620	0	32.3250	0	24.630	0	48.681	0	253.9	4	93.4	4	-1E+10	1	-1E+10	1	-1E+10	1	-1E+10	1	-1E+10	1	-1E+10	1
4902551	83	C	11/29/2022	15:03	-131.536	48.173	0	50.00	0	11.3580	0	32.3260	0	24.632	0	49.574	0	254.0	4	93.4	4	-1E+10	1	-1E+10	1	-1E+10	1	-1E+10	1	-1E+10	1	-1E+10	1
4902551	83	C	11/29/2022	15:03	-131.536	48.173	0	50.90	0	11.3600	0	32.3250	0	24.631	0	50.466	0	254.0	4	93.4	4	-1E+10	1	-1E+10	1	-1E+10	1	-1E+10	1	-1E+10	1	-1E+10	1
4902551	83	C	11/29/2022	15:03	-131.536	48.173	0	51.70	0	11.3570	0	32.3250	0	24.631	0	51.259	0	254.1	4	93.4	4	-1E+10	1	-1E+10	1	-1E+10	1	-1E+10	1	-1E+10	1	-1E+10	1
4902551	83	C	11/29/2022	15:03	-131.536	48.173	0	52.80	0	11.3540	0	32.3250	0	24.632	0	52.349	0	254.1	4	93.4	4	-1E+10	1	-1E+10	1	-1E+10	1	-1E+10	1	-1E+10	1	-1E+10	1
4902551	83	C	11/29/2022	15:03	-131.536	48.173	0	54.00	0	11.3510	0	32.3250	0	24.632	0	53.539	0	254.3	4	93.5	4	-1E+10	1	-1E+10	1	-1E+10	1	-1E+10	1	-1E+10	1	-1E+10	1
4902551	83	C	11/29/2022	15:03	-131.536	48.173	0	54.90	0	11.3520	0	32.3250	0	24.632	0	54.431	0	254.4	4	93.5	4	-1E+10	1	-1E+10	1	-1E+10	1	-1E+10	1	-1E+10	1	-1E+10	1
4902551	83	C	11/29/2022	15:03	-131.536	48.173	0	55.70	0	11.3490	0	32.3240	0	24.632	0	55.224	0	254.6	4	93.6	4	-1E+10	1	-1E+10	1	-1E+10	1	-1E+10	1	-1E+10	1	-1E+10	1
4902551	83	C	11/29/2022	15:03	-131.536	48.173	0	56.90	0	11.3470	0	32.3250	0	24.633	0	56.414	0	254.8	4	93.7	4	-1E+10	1	-1E+10	1	-1E+10	1	-1E+10	1	-1E+10	1	-1E+10	1
4902551	83	C	11/29/2022	15:03	-131.536	48.173	0	58.00	0	11.3500	0	32.3230	0	24.631	0	57.504	0	255.0	4	93.8	4	-1E+10	1	-1E+10	1	-1E+10	1	-1E+10	1	-1E+10	1	-1E+10	1
4902551	83	C	11/29/2022	15:03	-131.536	48.173	0	59.10	0	11.2910	0	32.3250	0	24.643	0	58.595	0	255.7	4	93.9	4	-1E+10	1	-1E+10	1	-1E+10	1	-1E+10	1	-1E+10	1	-1E+10	1
4902551	83	C	11/29/2022	15:03	-131.536	48.173	0	60.20	0	11.2560	0	32.3250	0	24.650	0	59.685	0	256.3	4	94.1	4	-1E+10	1	-1E+10	1	-1E+10	1	-1E+10	1	-1E+10	1	-1E+10	1
4902551	83	C	11/29/2022	15:03	-131.536	48.173	0	61.00	0	11.0470	0	32.3240	0	24.686	0	60.478	0	257.2	4	94.0	4	-1E+10	1	-1E+10	1	-1E+10	1	-1E+10	1	-1E+10	1	-1E+10	1
4902551	83	C	11/29/2022	15:03	-131.536	48.173	0	61.90	0	10.5560	0	32.3540	0	24.794	0	61.370	0	258.8	4	93.6	4	-1E+10	1	-1E+10	1	-1E+10	1	-1E+10	1	-1E+10	1	-1E+10	1
4902551	83	C	11/29/2022	15:03	-131.536	48.173	0	63.10	0	10.1600	0	32.3670	0	24.872	0	62.560	0	261.3	4	93.7	4	-1E+10	1	-1E+10	1	-1E+10	1	-1E+10	1	-1E+10	1	-1E+10	1
4902551	83	C	11/29/2022	15:03	-131.536	48.173	0	64.00	0	9.7020	0	32.3780	0	24.956	0	63.452	0	262.4	4	93.2	4	-1E+10	1	-1E+10	1	-1E+10	1	-1E+10	1	-1E+10	1	-1E+10	1
4902551	83	C	11/29/2022	15:03	-131.536	48.173	0	65.00	0	9.3660	0	32.4010	0	25.027	0	64.443	0	263.1	4	92.8	4	-1E+10	1	-1E+10	1	-1E+10	1	-1E+10	1	-1E+10	1	-1E+10	1
4902551	83	C	11/29/2022	15:03	-131.536	48.173	0	66.10	0	9.0960	0	32.4120	0	25.079	0	65.534	0	263.6	4	92.4	4	-1E+10	1	-1E+10	1	-1E+10	1	-1E+10	1	-1E+10	1	-1E+10	1
4902551	83	C	11/29/2022	15:03	-131.536	48.173	0	66.90	0	9.0230	0	32.4130	0	25.091	0	66.327	0	264.2	4	92.4	4	-1E+10	1	-1E+10	1	-1E+10	1	-1E+10	1	-1E+10	1	-1E+10	1
4902551	83	C	11/29/2022	15:03	-131.536	48.173	0	67.90	0	8.8040	0	32.4190	0	25.129	0	67.318	0	264.3	4	92.0	4	-1E+10	1	-1E+10	1	-1E+10	1	-1E+10	1	-1E+10	1	-1E+10	1
4902551	83	C	11/29/2022	15:03	-131.536	48.173	0	69.10	0	8.4090	0	32.4460	0	25.210	0	68.508	0	264.7	4	91.4	4	-1E+10	1	-1E+10	1	-1E+10	1	-1E+10	1	-1E+10	1	-1E+10	1
4902551	83	C	11/29/2022	15:03	-131.536	48.173	0	69.80	0	8.3390	0	32.4430	0	25.218	0	69.201	0	264.5	4	91.2	4	-1E+10	1	-1E+10	1	-1E+10	1	-1E+10	1	-1E+10	1	-1E+10	1
4902551	83	C	11/29/2022	15:03	-131.536	48.173	0	70.90	0	8.2880	0	32.4420	0	25.225	0	70.292	0	264.0	4	90.9	4	-1E+10	1	-1E+10	1	-1E+10	1	-1E+10	1	-1E+10	1	-1E+10	1
4902551	83	C	11/29/2022	15:03	-131.536	48.173	0	71.90	0	8.1580	0	32.4470	0	25.248	0	71.283	0	263.7	4	90.5	4	-1E+10	1	-1E+10	1	-1E+10	1	-1E+10	1	-1E+10	1	-1E+10	1
4902551	83	C	11/29/2022	15:03	-131.536	48.173	0	72.90	0	7.9460	0	32.4590	0	25.288	0	72.274	0	263.9	4	90.2	4	-1E+10	1	-1E+10	1	-1E+10	1	-1E+10	1	-1E+10	1	-1E+10	1
4902551	83	C	11/29/2022	15:03	-131.536	48.173	0	73.90	0	7.8950	0	32.4560	0	25.293	0	73.266	0	263.6	4	90.0	4	-1E+10	1	-1E+10	1	-1E+10	1	-1E+10	1	-1E+10	1	-1E+10	1
4902551	83	C	11/29/2022	15:03	-131.536	48.173	0	75.10	0	7.8870	0	32.4540	0	25.292	0	74.455	0	263.2	4	89.8	4	-1E+10	1	-1E+10	1	-1E+10	1	-1E+10	1	-1E+10	1	-1E+10	1
4902551	83	C	11/29/2022	15:03	-131.536	48.173	0	75.90	0	7.8510	0	32.4550	0	25.298	0	75.248	0	263.0	4	89.7	4	-1E+10	1	-1E+10	1	-1E+10	1	-1E+10	1	-1E+10	1	-1E+10	1
4902551	83	C	11/29/2022	15:03	-131.536	48.173	0	77.20	0	7.7730	0	32.4570	0	25.311	0	76.537	0	263.0	4	89.5	4	-1E+10	1	-1E+10	1	-1E+10	1	-1E+10	1	-1E+10	1	-1E+10	1
4902551	83	C	11/29/2022	15:03	-131.536	48.173	0	78.10	0	7.7550	0	32.4560	0	25.313	0	77.429	0	262.7	4	89.4	4	-1E+10	1	-1E+10	1	-1E+10	1	-1E+10	1	-1E+10	1	-1E+10	1
4902551	83	C	11/29/2022	15:03	-131.536	48.173	0	78.80	0	7.7210	0	32.4590	0	25.320	0	78.123	0	262.7	4	89.3	4	-1E+10	1	-1E+10	1	-1E+10	1	-1E+10	1	-1E+10	1	-1E+10	1
4902551	83	C	11/29/2022	15:03	-131.536	48.173	0	79.90	0	7.6950	0	32.4580	0	25.323	0	79.213	0	262.6	4	89.2	4	-1E+10	1	-1E+10	1	-1E+10	1	-1E+10	1	-1E+10	1	-1E+10	1
4902551	83	C	11/29/2022	15:03	-131.536	48.173	0	80.90	0	7.6770	0	32.4580	0	25.325	0	80.204	0	262.5	4	89.2	4	-1E+10	1	-1E+10	1	-1E+10	1	-1E+10	1	-1E+10	1	-1E+10	1
4902551	83	C	11/29/2022	15:03	-131.536	48.173	0	82.00	0	7.6620	0	32.4580	0	25.327	0	81.294	0	262.3	4	89.1	4	-1E+10	1	-1E+10	1	-1E+10	1	-1E+10	1	-1E+10	1	-1E+10	1
4902551	83	C	11/29/2022	15:03	-131.536	48.173	0	83.10	0	7.6430	0	32.4590	0	25.331	0	82.385	0	268.7	4	91.2	4	-1E+10	1	-1E+10	1	-1E+10	1	-1E+10	1	-1E+10	1	-1E+10	1
4902551	83	C	11/29/2022	15:03	-131.536	48.173	0	84.10	0	7.6180	0	32.4590	0	25.334	0	83.376	0	268.4	4	91.1	4	-1E+10	1	-1E+10	1	-1E+10	1	-1E+10	1	-1E+10	1	-1E+10	1
4902551	83	C	11/29/2022	15:03	-131.536	48.173	0	85.00	0	7.5950	0	32.4610	0	25.339	0	84.268	0	268.3	4	91.0	4	-1E+10	1	-1E+10	1	-1E+10	1	-1E+10	1	-1E+10	1	-1E+10	1
4902551	83	C	11/29/2022	15:03	-131.536	48.173	0	85.70	0	7.5540	0	32.4620	0	25.346	0	84.962	0	268.2	4	90.8	4	-1E+10	1	-1E+10	1	-1E+10	1	-1E+10	1	-1E+10	1	-1E+10	1
4902551	83	C	11/29/2022	15:03	-131.536	48.173	0	86.90	0	7.4800	0	32.4660	0	25.359	0	86.151	0	268.2	4	90.7	4	-1E+10	1	-1E+10	1	-1E+10	1	-1E+10	1	-1E+10	1	-1E+10	1
4902551	83	C	11/29/2022	15:03	-131.536	48.173	0	88.00	0	7.4600	0	32.4670	0	25.363	0	87.242	0	268.1	4	90.6	4	-1E+10	1	-1E+10	1	-1E+10	1	-1E+10	1	-1E+10	1	-1E+10	1
4902551	83	C	11/29/2022	15:03	-131.536	48.173	0	89.10	0	7.4500	0	32.4680	0	25.365	0	88.332	0	267.9	4	90.5	4	-1E+10	1	-1E+10	1	-1E+10	1	-1E+10	1	-1E+10	1	-1E+10	1
4902551	83	C	11/29/2022	15:03	-131.536	48.173	0	90.00	0	7.4440	0	32.4680	0	25.366	0	89.224	0	267.8	4	90.5	4	-1E+10	1	-1E+10	1	-1E+10	1	-1E+10	1	-1E+10	1	-1E+10	1
4902551	83	C	11/29/2022	15:03	-131.536	48.173	0	90.70	0	7.4370	0	32.4680	0	25.367	0	89.918	0	267.7	4	90.4	4	-1E+10	1	-1E+10	1	-1E+10	1	-1E+10	1	-1E+10	1	-1E+10	1
4902551	83	C	11/29/2022	15:03	-131.536	48.173	0	91.80	0	7.4240	0	32.4680	0	25.369	0	91.008	0	267.5	4	90.4	4	-1E+10	1	-1E+10	1	-1E+10	1	-1E+10	1	-1E+10	1	-1E+10	1
4902551	83	C	11/29/2022	15:03	-131.536	48.173	0	92.90	0	7.3940	0	32.4690	0	25.373	0	92.098	0	267.5	4	90.3	4	-1E+10	1	-1E+10	1	-1E+10	1	-1E+10	1	-1E+10	1	-1E+10	1
4902551	83	C	11/29/2022	15:03	-131.536	48.173	0	94.00	0	7.3670	0	32.4700	0	25.378	0	93.188	0	267.5	4	90.2	4	-1E+10	1	-1E+10	1	-1E+10	1	-1E+10	1	-1E+10	1	-1E+10	1
4902551	83	C	11/29/2022	15:03	-131.536	48.173	0	95.10	0	7.3500	0	32.4710	0	25.381	0	94.279	0	267.4	4	90.2	4	-1E+10	1	-1E+10	1	-1E+10	1	-1E+10	1	-1E+10	1	-1E+10	1
4902551	83	C	11/29/2022	15:03	-131.536	48.173	0	96.10	0	7.3310	0	32.4710	0	25.384	0	95.270	0	267.2	4	90.1	4	-1E+10	1	-1E+10	1	-1E+10	1	-1E+10	1	-1E+10	1	-1E+10	1
4902551	83	C	11/29/2022	15:03	-131.536	48.173	0	97.10	0	7.3090	0	32.4700	0	25.386	0	96.261	0	267.1	4	90.0	4	-1E+10	1	-1E+10	1	-1E+10	1	-1E+10	1	-1E+10	1	-1E+10	1
4902551	83	C	11/29/2022	15:03	-131.536	48.173	0	97.90	0	7.2880	0	32.4720	0	25.390	0	97.054	0	267.0	4	89.9	4	-1E+10	1	-1E+10	1	-1E+10	1	-1E+10	1	-1E+10	1	-1E+10	1
4902551	83	C	11/29/2022	15:03	-131.536	48.173	0	98.70	0	7.2250	0	32.4770	0	25.403	0	97.847	0	267.0	4	89.8	4	-1E+10	1	-1E+10	1	-1E+10	1	-1E+10	1	-1E+10	1	-1E+10	1
4902551	83	C	11/29/2022	15:03	-131.536	48.173	0	99.80	0	7.1880	0	32.4740	0	25.406	0	98.937	0	267.0	4	89.7	4	-1E+10	1	-1E+10	1	-1E+10	1	-1E+10	1	-1E+10	1	-1E+10	1
4902551	83	C	11/29/2022	15:03	-131.536	48.173	0	100.90	0	7.0900	0	32.4830	0	25.426	0	100.027	0	266.9	4	89.5	4	-1E+10	1	-1E+10	1	-1E+10	1	-1E+10	1	-1E+10	1	-1E+10	1
4902551	83	C	11/29/2022	15:03	-131.536	48.173	0	102.10	0	7.0710	0	32.4860	0	25.431	0	101.217	0	266.6	4	89.3	4	-1E+10	1	-1E+10	1	-1E+10	1	-1E+10	1	-1E+10	1	-1E+10	1
4902551	83	C	11/29/2022	15:03	-131.536	48.173	0	102.90	0	7.0700	0	32.4860	0	25.431	0	102.009	0	266.3	4	89.2	4	-1E+10	1	-1E+10	1	-1E+10	1	-1E+10	1	-1E+10	1	-1E+10	1
4902551	83	C	11/29/2022	15:03	-131.536	48.173	0	103.80	0	7.0680	0	32.4850	0	25.430	0	102.901	0	266.0	4	89.1	4	-1E+10	1	-1E+10	1	-1E+10	1	-1E+10	1	-1E+10	1	-1E+10	1
4902551	83	C	11/29/2022	15:03	-131.536	48.173	0	104.90	0	7.0510	0	32.4880	0	25.435	0	103.992	0	265.5	4	88.9	4	-1E+10	1	-1E+10	1	-1E+10	1	-1E+10	1	-1E+10	1	-1E+10	1
4902551	83	C	11/29/2022	15:03	-131.536	48.173	0	106.10	0	6.9960	0	32.4990	0	25.451	0	105.181	0	265.3	4	88.7	4	-1E+10	1	-1E+10	1	-1E+10	1	-1E+10	1	-1E+10	1	-1E+10	1
4902551	83	C	11/29/2022	15:03	-131.536	48.173	0	107.00	0	6.9870	0	32.5010	0	25.454	0	106.073	0	265.0	4	88.6	4	-1E+10	1	-1E+10	1	-1E+10	1	-1E+10	1	-1E+10	1	-1E+10	1
4902551	83	C	11/29/2022	15:03	-131.536	48.173	0	107.90	0	6.9750	0	32.5040	0	25.458	0	106.965	0	264.8	4	88.6	4	-1E+10	1	-1E+10	1	-1E+10	1	-1E+10	1	-1E+10	1	-1E+10	1
4902551	83	C	11/29/2022	15:03	-131.536	48.173	0	109.00	0	6.9610	0	32.5070	0	25.462	0	108.055	0	264.4	4	88.4	4	-1E+10	1	-1E+10	1	-1E+10	1	-1E+10	1	-1E+10	1	-1E+10	1
4902551	83	C	11/29/2022	15:03	-131.536	48.173	0	110.10	0	6.9380	0	32.5120	0	25.469	0	109.145	0	263.7	4	88.1	4	-1E+10	1	-1E+10	1	-1E+10	1	-1E+10	1	-1E+10	1	-1E+10	1
4902551	83	C	11/29/2022	15:03	-131.536	48.173	0	111.00	0	6.9090	0	32.5230	0	25.482	0	110.037	0	263.1	4	87.9	4	-1E+10	1	-1E+10	1	-1E+10	1	-1E+10	1	-1E+10	1	-1E+10	1
4902551	83	C	11/29/2022	15:03	-131.536	48.173	0	111.80	0	6.9010	0	32.5250	0	25.484	0	110.830	0	262.5	4	87.6	4	-1E+10	1	-1E+10	1	-1E+10	1	-1E+10	1	-1E+10	1	-1E+10	1
4902551	83	C	11/29/2022	15:03	-131.536	48.173	0	112.90	0	6.8890	0	32.5280	0	25.488	0	111.920	0	261.6	4	87.3	4	-1E+10	1	-1E+10	1	-1E+10	1	-1E+10	1	-1E+10	1	-1E+10	1
4902551	83	C	11/29/2022	15:03	-131.536	48.173	0	114.10	0	6.8660	0	32.5380	0	25.499	0	113.109	0	260.6	4	86.9	4	-1E+10	1	-1E+10	1	-1E+10	1	-1E+10	1	-1E+10	1	-1E+10	1
4902551	83	C	11/29/2022	15:03	-131.536	48.173	0	115.00	0	6.8520	0	32.5450	0	25.506	0	114.001	0	259.8	4	86.7	4	-1E+10	1	-1E+10	1	-1E+10	1	-1E+10	1	-1E+10	1	-1E+10	1
4902551	83	C	11/29/2022	15:03	-131.536	48.173	0	115.90	0	6.8340	0	32.5590	0	25.520	0	114.893	0	259.2	4	86.4	4	-1E+10	1	-1E+10	1	-1E+10	1	-1E+10	1	-1E+10	1	-1E+10	1
4902551	83	C	11/29/2022	15:03	-131.536	48.173	0	117.00	0	6.8200	0	32.5690	0	25.530	0	115.983	0	258.5	4	86.2	4	-1E+10	1	-1E+10	1	-1E+10	1	-1E+10	1	-1E+10	1	-1E+10	1
4902551	83	C	11/29/2022	15:03	-131.536	48.173	0	118.00	0	6.8060	0	32.5770	0	25.538	0	116.974	0	257.9	4	86.0	4	-1E+10	1	-1E+10	1	-1E+10	1	-1E+10	1	-1E+10	1	-1E+10	1
4902551	83	C	11/29/2022	15:03	-131.536	48.173	0	118.90	0	6.7950	0	32.5870	0	25.547	0	117.866	0	257.2	4	85.7	4	-1E+10	1	-1E+10	1	-1E+10	1	-1E+10	1	-1E+10	1	-1E+10	1
4902551	83	C	11/29/2022	15:03	-131.536	48.173	0	120.10	0	6.7910	0	32.5910	0	25.551	0	119.056	0	255.6	4	85.2	4	-1E+10	1	-1E+10	1	-1E+10	1	-1E+10	1	-1E+10	1	-1E+10	1
4902551	83	C	11/29/2022	15:03	-131.536	48.173	0	121.00	0	6.7890	0	32.5930	0	25.553	0	119.948	0	254.1	4	84.7	4	-1E+10	1	-1E+10	1	-1E+10	1	-1E+10	1	-1E+10	1	-1E+10	1
4902551	83	C	11/29/2022	15:03	-131.536	48.173	0	122.00	0	6.7550	0	32.6150	0	25.574	0	120.939	0	252.4	4	84.0	4	-1E+10	1	-1E+10	1	-1E+10	1	-1E+10	1	-1E+10	1	-1E+10	1
4902551	83	C	11/29/2022	15:03	-131.536	48.173	0	122.90	0	6.7000	0	32.6340	0	25.597	0	121.830	0	250.3	4	83.3	4	-1E+10	1	-1E+10	1	-1E+10	1	-1E+10	1	-1E+10	1	-1E+10	1
4902551	83	C	11/29/2022	15:03	-131.536	48.173	0	124.10	0	6.6870	0	32.6660	0	25.623	0	123.020	0	247.2	4	82.2	4	-1E+10	1	-1E+10	1	-1E+10	1	-1E+10	1	-1E+10	1	-1E+10	1
4902551	83	C	11/29/2022	15:03	-131.536	48.173	0	125.20	0	6.6590	0	32.7090	0	25.661	0	124.110	0	244.8	4	81.4	4	-1E+10	1	-1E+10	1	-1E+10	1	-1E+10	1	-1E+10	1	-1E+10	1
4902551	83	C	11/29/2022	15:03	-131.536	48.173	0	126.00	0	6.6150	0	32.7340	0	25.686	0	124.903	0	243.7	4	81.0	4	-1E+10	1	-1E+10	1	-1E+10	1	-1E+10	1	-1E+10	1	-1E+10	1
4902551	83	C	11/29/2022	15:03	-131.536	48.173	0	127.30	0	6.5290	0	32.7610	0	25.719	0	126.191	0	242.3	4	80.3	4	-1E+10	1	-1E+10	1	-1E+10	1	-1E+10	1	-1E+10	1	-1E+10	1
4902551	83	C	11/29/2022	15:03	-131.536	48.173	0	128.10	0	6.4840	0	32.7520	0	25.717	0	126.984	0	241.6	4	80.0	4	-1E+10	1	-1E+10	1	-1E+10	1	-1E+10	1	-1E+10	1	-1E+10	1
4902551	83	C	11/29/2022	15:03	-131.536	48.173	0	129.00	0	6.4080	0	32.7810	0	25.750	0	127.875	0	240.8	4	79.6	4	-1E+10	1	-1E+10	1	-1E+10	1	-1E+10	1	-1E+10	1	-1E+10	1
4902551	83	C	11/29/2022	15:03	-131.536	48.173	0	129.80	0	6.3970	0	32.8040	0	25.770	0	128.668	0	239.7	4	79.3	4	-1E+10	1	-1E+10	1	-1E+10	1	-1E+10	1	-1E+10	1	-1E+10	1
4902551	83	C	11/29/2022	15:03	-131.536	48.173	0	131.10	0	6.3780	0	32.8360	0	25.797	0	129.957	0	238.7	4	78.9	4	-1E+10	1	-1E+10	1	-1E+10	1	-1E+10	1	-1E+10	1	-1E+10	1
4902551	83	C	11/29/2022	15:03	-131.536	48.173	0	132.10	0	6.3710	0	32.8440	0	25.804	0	130.947	0	237.8	4	78.6	4	-1E+10	1	-1E+10	1	-1E+10	1	-1E+10	1	-1E+10	1	-1E+10	1
4902551	83	C	11/29/2022	15:03	-131.536	48.173	0	133.00	0	6.3640	0	32.8530	0	25.812	0	131.839	0	236.8	4	78.3	4	-1E+10	1	-1E+10	1	-1E+10	1	-1E+10	1	-1E+10	1	-1E+10	1
4902551	83	C	11/29/2022	15:03	-131.536	48.173	0	134.00	0	6.3610	0	32.8630	0	25.821	0	132.830	0	235.7	4	77.9	4	-1E+10	1	-1E+10	1	-1E+10	1	-1E+10	1	-1E+10	1	-1E+10	1
4902551	83	C	11/29/2022	15:03	-131.536	48.173	0	135.00	0	6.3630	0	32.8710	0	25.827	0	133.821	0	234.7	4	77.6	4	-1E+10	1	-1E+10	1	-1E+10	1	-1E+10	1	-1E+10	1	-1E+10	1
4902551	83	C	11/29/2022	15:03	-131.536	48.173	0	136.00	0	6.3570	0	32.8770	0	25.832	0	134.812	0	233.7	4	77.3	4	-1E+10	1	-1E+10	1	-1E+10	1	-1E+10	1	-1E+10	1	-1E+10	1
4902551	83	C	11/29/2022	15:03	-131.536	48.173	0	137.00	0	6.3580	0	32.8870	0	25.840	0	135.803	0	232.6	4	76.9	4	-1E+10	1	-1E+10	1	-1E+10	1	-1E+10	1	-1E+10	1	-1E+10	1
4902551	83	C	11/29/2022	15:03	-131.536	48.173	0	137.90	0	6.3560	0	32.8910	0	25.844	0	136.695	0	231.4	4	76.5	4	-1E+10	1	-1E+10	1	-1E+10	1	-1E+10	1	-1E+10	1	-1E+10	1
4902551	83	C	11/29/2022	15:03	-131.536	48.173	0	138.80	0	6.3540	0	32.8950	0	25.847	0	137.587	0	230.0	4	76.1	4	-1E+10	1	-1E+10	1	-1E+10	1	-1E+10	1	-1E+10	1	-1E+10	1
4902551	83	C	11/29/2022	15:03	-131.536	48.173	0	139.90	0	6.3470	0	32.9210	0	25.868	0	138.677	0	228.4	4	75.5	4	-1E+10	1	-1E+10	1	-1E+10	1	-1E+10	1	-1E+10	1	-1E+10	1
4902551	83	C	11/29/2022	15:03	-131.536	48.173	0	140.90	0	6.3330	0	32.9430	0	25.888	0	139.668	0	226.9	4	75.0	4	-1E+10	1	-1E+10	1	-1E+10	1	-1E+10	1	-1E+10	1	-1E+10	1
4902551	83	C	11/29/2022	15:03	-131.536	48.173	0	142.10	0	6.3230	0	32.9720	0	25.912	0	140.857	0	225.6	4	74.6	4	-1E+10	1	-1E+10	1	-1E+10	1	-1E+10	1	-1E+10	1	-1E+10	1
4902551	83	C	11/29/2022	15:03	-131.536	48.173	0	142.80	0	6.3140	0	32.9800	0	25.919	0	141.550	0	224.4	4	74.2	4	-1E+10	1	-1E+10	1	-1E+10	1	-1E+10	1	-1E+10	1	-1E+10	1
4902551	83	C	11/29/2022	15:03	-131.536	48.173	0	143.90	0	6.3080	0	32.9830	0	25.922	0	142.640	0	222.8	4	73.6	4	-1E+10	1	-1E+10	1	-1E+10	1	-1E+10	1	-1E+10	1	-1E+10	1
4902551	83	C	11/29/2022	15:03	-131.536	48.173	0	145.00	0	6.2990	0	32.9910	0	25.930	0	143.730	0	220.8	4	72.9	4	-1E+10	1	-1E+10	1	-1E+10	1	-1E+10	1	-1E+10	1	-1E+10	1
4902551	83	C	11/29/2022	15:03	-131.536	48.173	0	145.70	0	6.2940	0	32.9960	0	25.934	0	144.424	0	219.3	4	72.4	4	-1E+10	1	-1E+10	1	-1E+10	1	-1E+10	1	-1E+10	1	-1E+10	1
4902551	83	C	11/29/2022	15:03	-131.536	48.173	0	146.90	0	6.2590	0	33.0330	0	25.968	0	145.613	0	217.1	4	71.7	4	-1E+10	1	-1E+10	1	-1E+10	1	-1E+10	1	-1E+10	1	-1E+10	1
4902551	83	C	11/29/2022	15:03	-131.536	48.173	0	148.00	0	6.2310	0	33.0620	0	25.994	0	146.703	0	215.2	4	71.0	4	-1E+10	1	-1E+10	1	-1E+10	1	-1E+10	1	-1E+10	1	-1E+10	1
4902551	83	C	11/29/2022	15:03	-131.536	48.173	0	148.70	0	6.2180	0	33.0750	0	26.006	0	147.397	0	214.0	4	70.6	4	-1E+10	1	-1E+10	1	-1E+10	1	-1E+10	1	-1E+10	1	-1E+10	1
4902551	83	C	11/29/2022	15:03	-131.536	48.173	0	149.80	0	6.1960	0	33.1050	0	26.033	0	148.487	0	212.4	4	70.1	4	-1E+10	1	-1E+10	1	-1E+10	1	-1E+10	1	-1E+10	1	-1E+10	1
4902551	83	C	11/29/2022	15:03	-131.536	48.173	0	151.00	0	6.1780	0	33.1380	0	26.061	0	149.676	0	210.8	4	69.5	4	-1E+10	1	-1E+10	1	-1E+10	1	-1E+10	1	-1E+10	1	-1E+10	1
4902551	83	C	11/29/2022	15:03	-131.536	48.173	0	151.70	0	6.1440	0	33.1810	0	26.099	0	150.369	0	209.9	4	69.2	4	-1E+10	1	-1E+10	1	-1E+10	1	-1E+10	1	-1E+10	1	-1E+10	1
4902551	83	C	11/29/2022	15:03	-131.536	48.173	0	153.00	0	6.1330	0	33.2330	0	26.142	0	151.657	0	209.0	4	68.9	4	-1E+10	1	-1E+10	1	-1E+10	1	-1E+10	1	-1E+10	1	-1E+10	1
4902551	83	C	11/29/2022	15:03	-131.536	48.173	0	154.30	0	6.1310	0	33.2360	0	26.144	0	152.946	0	208.2	4	68.6	4	-1E+10	1	-1E+10	1	-1E+10	1	-1E+10	1	-1E+10	1	-1E+10	1
4902551	83	C	11/29/2022	15:03	-131.536	48.173	0	155.20	0	6.1300	0	33.2380	0	26.146	0	153.837	0	207.4	4	68.4	4	-1E+10	1	-1E+10	1	-1E+10	1	-1E+10	1	-1E+10	1	-1E+10	1
4902551	83	C	11/29/2022	15:03	-131.536	48.173	0	156.00	0	6.1270	0	33.2410	0	26.149	0	154.630	0	206.8	4	68.2	4	-1E+10	1	-1E+10	1	-1E+10	1	-1E+10	1	-1E+10	1	-1E+10	1
4902551	83	C	11/29/2022	15:03	-131.536	48.173	0	156.90	0	6.1250	0	33.2440	0	26.151	0	155.522	0	205.9	4	67.9	4	-1E+10	1	-1E+10	1	-1E+10	1	-1E+10	1	-1E+10	1	-1E+10	1
4902551	83	C	11/29/2022	15:03	-131.536	48.173	0	157.70	0	6.1230	0	33.2480	0	26.155	0	156.314	0	205.1	4	67.6	4	-1E+10	1	-1E+10	1	-1E+10	1	-1E+10	1	-1E+10	1	-1E+10	1
4902551	83	C	11/29/2022	15:03	-131.536	48.173	0	159.00	0	6.1000	0	33.2600	0	26.167	0	157.603	0	203.9	4	67.2	4	-1E+10	1	-1E+10	1	-1E+10	1	-1E+10	1	-1E+10	1	-1E+10	1
4902551	83	C	11/29/2022	15:03	-131.536	48.173	0	160.20	0	6.0920	0	33.2680	0	26.175	0	158.792	0	202.5	4	66.7	4	-1E+10	1	-1E+10	1	-1E+10	1	-1E+10	1	-1E+10	1	-1E+10	1
4902551	83	C	11/29/2022	15:03	-131.536	48.173	0	161.00	0	6.0890	0	33.2710	0	26.177	0	159.584	0	201.3	4	66.3	4	-1E+10	1	-1E+10	1	-1E+10	1	-1E+10	1	-1E+10	1	-1E+10	1
4902551	83	C	11/29/2022	15:03	-131.536	48.173	0	161.80	0	6.0780	0	33.2860	0	26.191	0	160.377	0	200.4	4	66.0	4	-1E+10	1	-1E+10	1	-1E+10	1	-1E+10	1	-1E+10	1	-1E+10	1
4902551	83	C	11/29/2022	15:03	-131.536	48.173	0	162.70	0	6.0780	0	33.2900	0	26.194	0	161.269	0	199.2	4	65.6	4	-1E+10	1	-1E+10	1	-1E+10	1	-1E+10	1	-1E+10	1	-1E+10	1
4902551	83	C	11/29/2022	15:03	-131.536	48.173	0	163.90	0	6.0740	0	33.3310	0	26.227	0	162.458	0	197.4	4	65.0	4	-1E+10	1	-1E+10	1	-1E+10	1	-1E+10	1	-1E+10	1	-1E+10	1
4902551	83	C	11/29/2022	15:03	-131.536	48.173	0	165.20	0	6.0720	0	33.3480	0	26.240	0	163.746	0	195.9	4	64.6	4	-1E+10	1	-1E+10	1	-1E+10	1	-1E+10	1	-1E+10	1	-1E+10	1
4902551	83	C	11/29/2022	15:03	-131.536	48.173	0	166.10	0	6.0680	0	33.3570	0	26.248	0	164.637	0	194.9	4	64.2	4	-1E+10	1	-1E+10	1	-1E+10	1	-1E+10	1	-1E+10	1	-1E+10	1
4902551	83	C	11/29/2022	15:03	-131.536	48.173	0	167.00	0	6.0660	0	33.3650	0	26.254	0	165.529	0	193.8	4	63.9	4	-1E+10	1	-1E+10	1	-1E+10	1	-1E+10	1	-1E+10	1	-1E+10	1
4902551	83	C	11/29/2022	15:03	-131.536	48.173	0	167.90	0	6.0660	0	33.3710	0	26.259	0	166.421	0	192.7	4	63.5	4	-1E+10	1	-1E+10	1	-1E+10	1	-1E+10	1	-1E+10	1	-1E+10	1
4902551	83	C	11/29/2022	15:03	-131.536	48.173	0	168.80	0	6.0640	0	33.3740	0	26.262	0	167.312	0	191.6	4	63.2	4	-1E+10	1	-1E+10	1	-1E+10	1	-1E+10	1	-1E+10	1	-1E+10	1
4902551	83	C	11/29/2022	15:03	-131.536	48.173	0	169.60	0	6.0620	0	33.3800	0	26.267	0	168.105	0	190.6	4	62.8	4	-1E+10	1	-1E+10	1	-1E+10	1	-1E+10	1	-1E+10	1	-1E+10	1
4902551	83	C	11/29/2022	15:03	-131.536	48.173	0	170.90	0	6.0600	0	33.4170	0	26.296	0	169.393	0	189.0	4	62.3	4	-1E+10	1	-1E+10	1	-1E+10	1	-1E+10	1	-1E+10	1	-1E+10	1
4902551	83	C	11/29/2022	15:03	-131.536	48.173	0	172.30	0	6.0610	0	33.4210	0	26.299	0	170.780	0	186.9	4	61.6	4	-1E+10	1	-1E+10	1	-1E+10	1	-1E+10	1	-1E+10	1	-1E+10	1
4902551	83	C	11/29/2022	15:03	-131.536	48.173	0	173.20	0	6.0570	0	33.4280	0	26.305	0	171.672	0	185.6	4	61.2	4	-1E+10	1	-1E+10	1	-1E+10	1	-1E+10	1	-1E+10	1	-1E+10	1
4902551	83	C	11/29/2022	15:03	-131.536	48.173	0	174.10	0	6.0430	0	33.4570	0	26.330	0	172.564	0	184.4	4	60.8	4	-1E+10	1	-1E+10	1	-1E+10	1	-1E+10	1	-1E+10	1	-1E+10	1
4902551	83	C	11/29/2022	15:03	-131.536	48.173	0	175.00	0	6.0350	0	33.4810	0	26.350	0	173.455	0	183.2	4	60.4	4	-1E+10	1	-1E+10	1	-1E+10	1	-1E+10	1	-1E+10	1	-1E+10	1
4902551	83	C	11/29/2022	15:03	-131.536	48.173	0	175.90	0	6.0310	0	33.5130	0	26.376	0	174.347	0	182.2	4	60.1	4	-1E+10	1	-1E+10	1	-1E+10	1	-1E+10	1	-1E+10	1	-1E+10	1
4902551	83	C	11/29/2022	15:03	-131.536	48.173	0	176.70	0	6.0310	0	33.5130	0	26.376	0	175.139	0	181.5	4	59.8	4	-1E+10	1	-1E+10	1	-1E+10	1	-1E+10	1	-1E+10	1	-1E+10	1
4902551	83	C	11/29/2022	15:03	-131.536	48.173	0	177.80	0	6.0290	0	33.5270	0	26.387	0	176.229	0	180.3	4	59.4	4	-1E+10	1	-1E+10	1	-1E+10	1	-1E+10	1	-1E+10	1	-1E+10	1
4902551	83	C	11/29/2022	15:03	-131.536	48.173	0	178.80	0	6.0240	0	33.5440	0	26.401	0	177.220	0	179.2	4	59.1	4	-1E+10	1	-1E+10	1	-1E+10	1	-1E+10	1	-1E+10	1	-1E+10	1
4902551	83	C	11/29/2022	15:03	-131.536	48.173	0	179.80	0	6.0240	0	33.5450	0	26.402	0	178.211	0	178.3	4	58.8	4	-1E+10	1	-1E+10	1	-1E+10	1	-1E+10	1	-1E+10	1	-1E+10	1
4902551	83	C	11/29/2022	15:03	-131.536	48.173	0	180.80	0	6.0220	0	33.5480	0	26.405	0	179.201	0	177.1	4	58.4	4	-1E+10	1	-1E+10	1	-1E+10	1	-1E+10	1	-1E+10	1	-1E+10	1
4902551	83	C	11/29/2022	15:03	-131.536	48.173	0	181.90	0	6.0140	0	33.5610	0	26.416	0	180.291	0	175.8	4	58.0	4	-1E+10	1	-1E+10	1	-1E+10	1	-1E+10	1	-1E+10	1	-1E+10	1
4902551	83	C	11/29/2022	15:03	-131.536	48.173	0	182.90	0	6.0090	0	33.5700	0	26.424	0	181.282	0	174.7	4	57.6	4	-1E+10	1	-1E+10	1	-1E+10	1	-1E+10	1	-1E+10	1	-1E+10	1
4902551	83	C	11/29/2022	15:03	-131.536	48.173	0	184.00	0	6.0120	0	33.5790	0	26.430	0	182.372	0	173.4	4	57.2	4	-1E+10	1	-1E+10	1	-1E+10	1	-1E+10	1	-1E+10	1	-1E+10	1
4902551	83	C	11/29/2022	15:03	-131.536	48.173	0	184.80	0	6.0130	0	33.5870	0	26.437	0	183.164	0	172.6	4	56.9	4	-1E+10	1	-1E+10	1	-1E+10	1	-1E+10	1	-1E+10	1	-1E+10	1
4902551	83	C	11/29/2022	15:03	-131.536	48.173	0	185.90	0	6.0100	0	33.5880	0	26.438	0	184.254	0	171.3	4	56.5	4	-1E+10	1	-1E+10	1	-1E+10	1	-1E+10	1	-1E+10	1	-1E+10	1
4902551	83	C	11/29/2022	15:03	-131.536	48.173	0	187.10	0	6.0050	0	33.5950	0	26.444	0	185.443	0	169.7	4	55.9	4	-1E+10	1	-1E+10	1	-1E+10	1	-1E+10	1	-1E+10	1	-1E+10	1
4902551	83	C	11/29/2022	15:03	-131.536	48.173	0	187.90	0	6.0060	0	33.6020	0	26.449	0	186.236	0	168.7	4	55.6	4	-1E+10	1	-1E+10	1	-1E+10	1	-1E+10	1	-1E+10	1	-1E+10	1
4902551	83	C	11/29/2022	15:03	-131.536	48.173	0	188.80	0	6.0230	0	33.6160	0	26.458	0	187.127	0	167.7	4	55.3	4	-1E+10	1	-1E+10	1	-1E+10	1	-1E+10	1	-1E+10	1	-1E+10	1
4902551	83	C	11/29/2022	15:03	-131.536	48.173	0	189.60	0	6.0190	0	33.6230	0	26.464	0	187.920	0	166.9	4	55.0	4	-1E+10	1	-1E+10	1	-1E+10	1	-1E+10	1	-1E+10	1	-1E+10	1
4902551	83	C	11/29/2022	15:03	-131.536	48.173	0	190.90	0	5.9970	0	33.6310	0	26.473	0	189.208	0	165.5	4	54.6	4	-1E+10	1	-1E+10	1	-1E+10	1	-1E+10	1	-1E+10	1	-1E+10	1
4902551	83	C	11/29/2022	15:03	-131.536	48.173	0	192.30	0	5.9770	0	33.6470	0	26.489	0	190.595	0	164.3	4	54.2	4	-1E+10	1	-1E+10	1	-1E+10	1	-1E+10	1	-1E+10	1	-1E+10	1
4902551	83	C	11/29/2022	15:03	-131.536	48.173	0	193.20	0	5.9680	0	33.6490	0	26.491	0	191.486	0	163.6	4	53.9	4	-1E+10	1	-1E+10	1	-1E+10	1	-1E+10	1	-1E+10	1	-1E+10	1
4902551	83	C	11/29/2022	15:03	-131.536	48.173	0	194.10	0	5.9610	0	33.6520	0	26.495	0	192.378	0	162.9	4	53.7	4	-1E+10	1	-1E+10	1	-1E+10	1	-1E+10	1	-1E+10	1	-1E+10	1
4902551	83	C	11/29/2022	15:03	-131.536	48.173	0	195.00	0	5.9550	0	33.6550	0	26.498	0	193.269	0	162.1	4	53.4	4	-1E+10	1	-1E+10	1	-1E+10	1	-1E+10	1	-1E+10	1	-1E+10	1
4902551	83	C	11/29/2022	15:03	-131.536	48.173	0	195.90	0	5.9530	0	33.6570	0	26.500	0	194.161	0	161.4	4	53.2	4	-1E+10	1	-1E+10	1	-1E+10	1	-1E+10	1	-1E+10	1	-1E+10	1
4902551	83	C	11/29/2022	15:03	-131.536	48.173	0	196.80	0	5.9340	0	33.6660	0	26.509	0	195.052	0	160.7	4	52.9	4	-1E+10	1	-1E+10	1	-1E+10	1	-1E+10	1	-1E+10	1	-1E+10	1
4902551	83	C	11/29/2022	15:03	-131.536	48.173	0	197.70	0	5.9310	0	33.6670	0	26.510	0	195.944	0	160.0	4	52.7	4	-1E+10	1	-1E+10	1	-1E+10	1	-1E+10	1	-1E+10	1	-1E+10	1
4902551	83	C	11/29/2022	15:03	-131.536	48.173	0	198.70	0	5.9290	0	33.6670	0	26.510	0	196.935	0	159.1	4	52.4	4	-1E+10	1	-1E+10	1	-1E+10	1	-1E+10	1	-1E+10	1	-1E+10	1
4902551	83	C	11/29/2022	15:03	-131.536	48.173	0	199.60	0	5.9270	0	33.6680	0	26.511	0	197.826	0	158.2	4	52.1	4	-1E+10	1	-1E+10	1	-1E+10	1	-1E+10	1	-1E+10	1	-1E+10	1
4902551	83	C	11/29/2022	15:03	-131.536	48.173	0	200.50	0	5.9110	0	33.6760	0	26.520	0	198.718	0	157.4	4	51.8	4	-1E+10	1	-1E+10	1	-1E+10	1	-1E+10	1	-1E+10	1	-1E+10	1
4902551	83	C	11/29/2022	15:03	-131.536	48.173	0	201.90	0	5.8970	0	33.6780	0	26.523	0	200.105	0	156.1	4	51.4	4	-1E+10	1	-1E+10	1	-1E+10	1	-1E+10	1	-1E+10	1	-1E+10	1
4902551	83	C	11/29/2022	15:03	-131.536	48.173	0	203.30	0	5.8820	0	33.6810	0	26.527	0	201.492	0	154.8	4	50.9	4	-1E+10	1	-1E+10	1	-1E+10	1	-1E+10	1	-1E+10	1	-1E+10	1
4902551	83	C	11/29/2022	15:03	-131.536	48.173	0	204.30	0	5.8630	0	33.6870	0	26.534	0	202.482	0	153.8	4	50.6	4	-1E+10	1	-1E+10	1	-1E+10	1	-1E+10	1	-1E+10	1	-1E+10	1
4902551	83	C	11/29/2022	15:03	-131.536	48.173	0	205.20	0	5.8540	0	33.6880	0	26.536	0	203.374	0	152.9	4	50.2	4	-1E+10	1	-1E+10	1	-1E+10	1	-1E+10	1	-1E+10	1	-1E+10	1
4902551	83	C	11/29/2022	15:03	-131.536	48.173	0	206.20	0	5.8500	0	33.6900	0	26.538	0	204.364	0	151.8	4	49.9	4	-1E+10	1	-1E+10	1	-1E+10	1	-1E+10	1	-1E+10	1	-1E+10	1
4902551	83	C	11/29/2022	15:03	-131.536	48.173	0	207.10	0	5.8400	0	33.6940	0	26.543	0	205.256	0	150.7	4	49.5	4	-1E+10	1	-1E+10	1	-1E+10	1	-1E+10	1	-1E+10	1	-1E+10	1
4902551	83	C	11/29/2022	15:03	-131.536	48.173	0	208.10	0	5.8280	0	33.6960	0	26.546	0	206.247	0	149.6	4	49.1	4	-1E+10	1	-1E+10	1	-1E+10	1	-1E+10	1	-1E+10	1	-1E+10	1
4902551	83	C	11/29/2022	15:03	-131.536	48.173	0	209.10	0	5.8180	0	33.7000	0	26.550	0	207.237	0	148.4	4	48.8	4	-1E+10	1	-1E+10	1	-1E+10	1	-1E+10	1	-1E+10	1	-1E+10	1
4902551	83	C	11/29/2022	15:03	-131.536	48.173	0	210.00	0	5.8090	0	33.7010	0	26.552	0	208.129	0	147.3	4	48.4	4	-1E+10	1	-1E+10	1	-1E+10	1	-1E+10	1	-1E+10	1	-1E+10	1
4902551	83	C	11/29/2022	15:03	-131.536	48.173	0	211.00	0	5.7940	0	33.7030	0	26.556	0	209.119	0	146.1	4	48.0	4	-1E+10	1	-1E+10	1	-1E+10	1	-1E+10	1	-1E+10	1	-1E+10	1
4902551	83	C	11/29/2022	15:03	-131.536	48.173	0	211.90	0	5.7900	0	33.7040	0	26.557	0	210.011	0	144.8	4	47.5	4	-1E+10	1	-1E+10	1	-1E+10	1	-1E+10	1	-1E+10	1	-1E+10	1
4902551	83	C	11/29/2022	15:03	-131.536	48.173	0	212.90	0	5.7720	0	33.7070	0	26.561	0	211.001	0	143.5	4	47.1	4	-1E+10	1	-1E+10	1	-1E+10	1	-1E+10	1	-1E+10	1	-1E+10	1
4902551	83	C	11/29/2022	15:03	-131.536	48.173	0	213.80	0	5.7420	0	33.7070	0	26.565	0	211.893	0	142.3	4	46.7	4	-1E+10	1	-1E+10	1	-1E+10	1	-1E+10	1	-1E+10	1	-1E+10	1
4902551	83	C	11/29/2022	15:03	-131.536	48.173	0	214.80	0	5.6470	0	33.7270	0	26.592	0	212.883	0	141.4	4	46.3	4	-1E+10	1	-1E+10	1	-1E+10	1	-1E+10	1	-1E+10	1	-1E+10	1
4902551	83	C	11/29/2022	15:03	-131.536	48.173	0	215.80	0	5.6170	0	33.7230	0	26.593	0	213.874	0	140.5	4	46.0	4	-1E+10	1	-1E+10	1	-1E+10	1	-1E+10	1	-1E+10	1	-1E+10	1
4902551	83	C	11/29/2022	15:03	-131.536	48.173	0	216.70	0	5.6100	0	33.7230	0	26.594	0	214.765	0	139.6	4	45.7	4	-1E+10	1	-1E+10	1	-1E+10	1	-1E+10	1	-1E+10	1	-1E+10	1
4902551	83	C	11/29/2022	15:03	-131.536	48.173	0	217.70	0	5.6050	0	33.7240	0	26.595	0	215.756	0	138.6	4	45.3	4	-1E+10	1	-1E+10	1	-1E+10	1	-1E+10	1	-1E+10	1	-1E+10	1
4902551	83	C	11/29/2022	15:03	-131.536	48.173	0	218.70	0	5.5920	0	33.7290	0	26.601	0	216.747	0	137.6	4	45.0	4	-1E+10	1	-1E+10	1	-1E+10	1	-1E+10	1	-1E+10	1	-1E+10	1
4902551	83	C	11/29/2022	15:03	-131.536	48.173	0	219.60	0	5.5860	0	33.7280	0	26.601	0	217.638	0	136.5	4	44.6	4	-1E+10	1	-1E+10	1	-1E+10	1	-1E+10	1	-1E+10	1	-1E+10	1
4902551	83	C	11/29/2022	15:03	-131.536	48.173	0	220.60	0	5.5490	0	33.7280	0	26.605	0	218.629	0	135.6	4	44.3	4	-1E+10	1	-1E+10	1	-1E+10	1	-1E+10	1	-1E+10	1	-1E+10	1
4902551	83	C	11/29/2022	15:03	-131.536	48.173	0	221.50	0	5.5350	0	33.7290	0	26.608	0	219.520	0	134.4	4	43.9	4	-1E+10	1	-1E+10	1	-1E+10	1	-1E+10	1	-1E+10	1	-1E+10	1
4902551	83	C	11/29/2022	15:03	-131.536	48.173	0	222.90	0	5.4810	0	33.7350	0	26.619	0	220.907	0	133.1	4	43.4	4	-1E+10	1	-1E+10	1	-1E+10	1	-1E+10	1	-1E+10	1	-1E+10	1
4902551	83	C	11/29/2022	15:03	-131.536	48.173	0	224.30	0	5.4170	0	33.7400	0	26.630	0	222.294	0	131.9	4	42.9	4	-1E+10	1	-1E+10	1	-1E+10	1	-1E+10	1	-1E+10	1	-1E+10	1
4902551	83	C	11/29/2022	15:03	-131.536	48.173	0	225.30	0	5.4080	0	33.7400	0	26.631	0	223.284	0	131.2	4	42.7	4	-1E+10	1	-1E+10	1	-1E+10	1	-1E+10	1	-1E+10	1	-1E+10	1
4902551	83	C	11/29/2022	15:03	-131.536	48.173	0	226.20	0	5.3960	0	33.7400	0	26.633	0	224.175	0	130.4	4	42.4	4	-1E+10	1	-1E+10	1	-1E+10	1	-1E+10	1	-1E+10	1	-1E+10	1
4902551	83	C	11/29/2022	15:03	-131.536	48.173	0	227.10	0	5.3660	0	33.7440	0	26.639	0	225.067	0	129.7	4	42.2	4	-1E+10	1	-1E+10	1	-1E+10	1	-1E+10	1	-1E+10	1	-1E+10	1
4902551	83	C	11/29/2022	15:03	-131.536	48.173	0	228.00	0	5.3490	0	33.7440	0	26.641	0	225.958	0	128.9	4	41.9	4	-1E+10	1	-1E+10	1	-1E+10	1	-1E+10	1	-1E+10	1	-1E+10	1
4902551	83	C	11/29/2022	15:03	-131.536	48.173	0	229.00	0	5.3340	0	33.7440	0	26.643	0	226.949	0	128.3	4	41.7	4	-1E+10	1	-1E+10	1	-1E+10	1	-1E+10	1	-1E+10	1	-1E+10	1
4902551	83	C	11/29/2022	15:03	-131.536	48.173	0	229.90	0	5.3260	0	33.7450	0	26.645	0	227.840	0	127.4	4	41.4	4	-1E+10	1	-1E+10	1	-1E+10	1	-1E+10	1	-1E+10	1	-1E+10	1
4902551	83	C	11/29/2022	15:03	-131.536	48.173	0	230.80	0	5.3260	0	33.7460	0	26.646	0	228.732	0	126.6	4	41.1	4	-1E+10	1	-1E+10	1	-1E+10	1	-1E+10	1	-1E+10	1	-1E+10	1
4902551	83	C	11/29/2022	15:03	-131.536	48.173	0	231.70	0	5.3240	0	33.7470	0	26.647	0	229.623	0	125.6	4	40.8	4	-1E+10	1	-1E+10	1	-1E+10	1	-1E+10	1	-1E+10	1	-1E+10	1
4902551	83	C	11/29/2022	15:03	-131.536	48.173	0	232.70	0	5.3160	0	33.7490	0	26.649	0	230.614	0	124.7	4	40.5	4	-1E+10	1	-1E+10	1	-1E+10	1	-1E+10	1	-1E+10	1	-1E+10	1
4902551	83	C	11/29/2022	15:03	-131.536	48.173	0	233.60	0	5.3060	0	33.7520	0	26.653	0	231.505	0	123.9	4	40.2	4	-1E+10	1	-1E+10	1	-1E+10	1	-1E+10	1	-1E+10	1	-1E+10	1
4902551	83	C	11/29/2022	15:03	-131.536	48.173	0	234.50	0	5.2800	0	33.7540	0	26.657	0	232.397	0	123.3	4	40.0	4	-1E+10	1	-1E+10	1	-1E+10	1	-1E+10	1	-1E+10	1	-1E+10	1
4902551	83	C	11/29/2022	15:03	-131.536	48.173	0	235.90	0	5.2540	0	33.7560	0	26.662	0	233.783	0	122.3	4	39.6	4	-1E+10	1	-1E+10	1	-1E+10	1	-1E+10	1	-1E+10	1	-1E+10	1
4902551	83	C	11/29/2022	15:03	-131.536	48.173	0	237.30	0	5.2230	0	33.7590	0	26.668	0	235.170	0	121.5	4	39.4	4	-1E+10	1	-1E+10	1	-1E+10	1	-1E+10	1	-1E+10	1	-1E+10	1
4902551	83	C	11/29/2022	15:03	-131.536	48.173	0	238.20	0	5.2180	0	33.7590	0	26.669	0	236.061	0	120.9	4	39.2	4	-1E+10	1	-1E+10	1	-1E+10	1	-1E+10	1	-1E+10	1	-1E+10	1
4902551	83	C	11/29/2022	15:03	-131.536	48.173	0	239.10	0	5.2040	0	33.7590	0	26.670	0	236.953	0	120.4	4	39.0	4	-1E+10	1	-1E+10	1	-1E+10	1	-1E+10	1	-1E+10	1	-1E+10	1
4902551	83	C	11/29/2022	15:03	-131.536	48.173	0	240.00	0	5.1970	0	33.7610	0	26.673	0	237.844	0	119.8	4	38.8	4	-1E+10	1	-1E+10	1	-1E+10	1	-1E+10	1	-1E+10	1	-1E+10	1
4902551	83	C	11/29/2022	15:03	-131.536	48.173	0	240.90	0	5.1910	0	33.7600	0	26.673	0	238.735	0	119.2	4	38.6	4	-1E+10	1	-1E+10	1	-1E+10	1	-1E+10	1	-1E+10	1	-1E+10	1
4902551	83	C	11/29/2022	15:03	-131.536	48.173	0	241.80	0	5.1740	0	33.7610	0	26.675	0	239.627	0	118.7	4	38.4	4	-1E+10	1	-1E+10	1	-1E+10	1	-1E+10	1	-1E+10	1	-1E+10	1
4902551	83	C	11/29/2022	15:03	-131.536	48.173	0	242.70	0	5.1460	0	33.7630	0	26.680	0	240.518	0	118.3	4	38.3	4	-1E+10	1	-1E+10	1	-1E+10	1	-1E+10	1	-1E+10	1	-1E+10	1
4902551	83	C	11/29/2022	15:03	-131.536	48.173	0	243.60	0	5.1430	0	33.7640	0	26.681	0	241.410	0	117.7	4	38.1	4	-1E+10	1	-1E+10	1	-1E+10	1	-1E+10	1	-1E+10	1	-1E+10	1
4902551	83	C	11/29/2022	15:03	-131.536	48.173	0	244.90	0	5.1410	0	33.7640	0	26.682	0	242.697	0	116.9	4	37.8	4	-1E+10	1	-1E+10	1	-1E+10	1	-1E+10	1	-1E+10	1	-1E+10	1
4902551	83	C	11/29/2022	15:03	-131.536	48.173	0	246.30	0	5.1370	0	33.7640	0	26.682	0	244.084	0	116.1	4	37.5	4	-1E+10	1	-1E+10	1	-1E+10	1	-1E+10	1	-1E+10	1	-1E+10	1
4902551	83	C	11/29/2022	15:03	-131.536	48.173	0	247.20	0	5.1260	0	33.7650	0	26.684	0	244.975	0	115.4	4	37.3	4	-1E+10	1	-1E+10	1	-1E+10	1	-1E+10	1	-1E+10	1	-1E+10	1
4902551	83	C	11/29/2022	15:03	-131.536	48.173	0	248.10	0	5.1210	0	33.7650	0	26.685	0	245.866	0	114.8	4	37.1	4	-1E+10	1	-1E+10	1	-1E+10	1	-1E+10	1	-1E+10	1	-1E+10	1
4902551	83	C	11/29/2022	15:03	-131.536	48.173	0	249.00	0	5.1150	0	33.7650	0	26.685	0	246.758	0	114.1	4	36.9	4	-1E+10	1	-1E+10	1	-1E+10	1	-1E+10	1	-1E+10	1	-1E+10	1
4902551	83	C	11/29/2022	15:03	-131.536	48.173	0	249.90	0	5.1020	0	33.7660	0	26.688	0	247.649	0	113.3	4	36.6	4	-1E+10	1	-1E+10	1	-1E+10	1	-1E+10	1	-1E+10	1	-1E+10	1
4902551	83	C	11/29/2022	15:03	-131.536	48.173	0	250.80	0	5.0670	0	33.7690	0	26.694	0	248.541	0	112.6	4	36.4	4	-1E+10	1	-1E+10	1	-1E+10	1	-1E+10	1	-1E+10	1	-1E+10	1
4902551	83	C	11/29/2022	15:03	-131.536	48.173	0	251.70	0	5.0660	0	33.7690	0	26.694	0	249.432	0	112.0	4	36.1	4	-1E+10	1	-1E+10	1	-1E+10	1	-1E+10	1	-1E+10	1	-1E+10	1
4902551	83	C	11/29/2022	15:03	-131.536	48.173	0	252.60	0	5.0610	0	33.7690	0	26.695	0	250.323	0	111.2	4	35.9	4	-1E+10	1	-1E+10	1	-1E+10	1	-1E+10	1	-1E+10	1	-1E+10	1
4902551	83	C	11/29/2022	15:03	-131.536	48.173	0	253.90	0	5.0410	0	33.7720	0	26.699	0	251.611	0	110.3	4	35.6	4	-1E+10	1	-1E+10	1	-1E+10	1	-1E+10	1	-1E+10	1	-1E+10	1
4902551	83	C	11/29/2022	15:03	-131.536	48.173	0	255.20	0	5.0240	0	33.7750	0	26.704	0	252.898	0	109.5	4	35.3	4	-1E+10	1	-1E+10	1	-1E+10	1	-1E+10	1	-1E+10	1	-1E+10	1
4902551	83	C	11/29/2022	15:03	-131.536	48.173	0	256.10	0	5.0190	0	33.7750	0	26.704	0	253.790	0	108.9	4	35.1	4	-1E+10	1	-1E+10	1	-1E+10	1	-1E+10	1	-1E+10	1	-1E+10	1
4902551	83	C	11/29/2022	15:03	-131.536	48.173	0	257.00	0	5.0070	0	33.7770	0	26.707	0	254.681	0	108.3	4	34.9	4	-1E+10	1	-1E+10	1	-1E+10	1	-1E+10	1	-1E+10	1	-1E+10	1
4902551	83	C	11/29/2022	15:03	-131.536	48.173	0	257.90	0	5.0050	0	33.7770	0	26.707	0	255.572	0	107.7	4	34.7	4	-1E+10	1	-1E+10	1	-1E+10	1	-1E+10	1	-1E+10	1	-1E+10	1
4902551	83	C	11/29/2022	15:03	-131.536	48.173	0	258.80	0	4.9820	0	33.7770	0	26.710	0	256.464	0	107.2	4	34.5	4	-1E+10	1	-1E+10	1	-1E+10	1	-1E+10	1	-1E+10	1	-1E+10	1
4902551	83	C	11/29/2022	15:03	-131.536	48.173	0	259.70	0	4.9720	0	33.7760	0	26.710	0	257.355	0	106.6	4	34.3	4	-1E+10	1	-1E+10	1	-1E+10	1	-1E+10	1	-1E+10	1	-1E+10	1
4902551	83	C	11/29/2022	15:03	-131.536	48.173	0	260.60	0	4.9650	0	33.7770	0	26.712	0	258.246	0	105.9	4	34.1	4	-1E+10	1	-1E+10	1	-1E+10	1	-1E+10	1	-1E+10	1	-1E+10	1
4902551	83	C	11/29/2022	15:03	-131.536	48.173	0	261.90	0	4.9340	0	33.7800	0	26.718	0	259.534	0	104.9	4	33.8	4	-1E+10	1	-1E+10	1	-1E+10	1	-1E+10	1	-1E+10	1	-1E+10	1
4902551	83	C	11/29/2022	15:03	-131.536	48.173	0	263.30	0	4.9240	0	33.7780	0	26.717	0	260.920	0	103.9	4	33.4	4	-1E+10	1	-1E+10	1	-1E+10	1	-1E+10	1	-1E+10	1	-1E+10	1
4902551	83	C	11/29/2022	15:03	-131.536	48.173	0	264.10	0	4.9170	0	33.7790	0	26.719	0	261.712	0	103.2	4	33.2	4	-1E+10	1	-1E+10	1	-1E+10	1	-1E+10	1	-1E+10	1	-1E+10	1
4902551	83	C	11/29/2022	15:03	-131.536	48.173	0	265.00	0	4.9160	0	33.7790	0	26.719	0	262.604	0	102.4	4	32.9	4	-1E+10	1	-1E+10	1	-1E+10	1	-1E+10	1	-1E+10	1	-1E+10	1
4902551	83	C	11/29/2022	15:03	-131.536	48.173	0	265.90	0	4.9090	0	33.7800	0	26.721	0	263.495	0	101.5	4	32.7	4	-1E+10	1	-1E+10	1	-1E+10	1	-1E+10	1	-1E+10	1	-1E+10	1
4902551	83	C	11/29/2022	15:03	-131.536	48.173	0	266.80	0	4.8840	0	33.7830	0	26.726	0	264.386	0	100.8	4	32.4	4	-1E+10	1	-1E+10	1	-1E+10	1	-1E+10	1	-1E+10	1	-1E+10	1
4902551	83	C	11/29/2022	15:03	-131.536	48.173	0	267.70	0	4.8600	0	33.7850	0	26.730	0	265.277	0	100.1	4	32.2	4	-1E+10	1	-1E+10	1	-1E+10	1	-1E+10	1	-1E+10	1	-1E+10	1
4902551	83	C	11/29/2022	15:03	-131.536	48.173	0	268.60	0	4.8510	0	33.7860	0	26.732	0	266.169	0	99.6	4	32.0	4	-1E+10	1	-1E+10	1	-1E+10	1	-1E+10	1	-1E+10	1	-1E+10	1
4902551	83	C	11/29/2022	15:03	-131.536	48.173	0	269.90	0	4.8190	0	33.7900	0	26.739	0	267.456	0	98.9	4	31.8	4	-1E+10	1	-1E+10	1	-1E+10	1	-1E+10	1	-1E+10	1	-1E+10	1
4902551	83	C	11/29/2022	15:03	-131.536	48.173	0	271.30	0	4.8030	0	33.7910	0	26.741	0	268.843	0	98.3	4	31.5	4	-1E+10	1	-1E+10	1	-1E+10	1	-1E+10	1	-1E+10	1	-1E+10	1
4902551	83	C	11/29/2022	15:03	-131.536	48.173	0	272.20	0	4.7930	0	33.7940	0	26.745	0	269.734	0	98.0	4	31.4	4	-1E+10	1	-1E+10	1	-1E+10	1	-1E+10	1	-1E+10	1	-1E+10	1
4902551	83	C	11/29/2022	15:03	-131.536	48.173	0	273.10	0	4.7880	0	33.7940	0	26.745	0	270.625	0	97.6	4	31.3	4	-1E+10	1	-1E+10	1	-1E+10	1	-1E+10	1	-1E+10	1	-1E+10	1
4902551	83	C	11/29/2022	15:03	-131.536	48.173	0	274.00	0	4.7840	0	33.7930	0	26.745	0	271.516	0	97.3	4	31.2	4	-1E+10	1	-1E+10	1	-1E+10	1	-1E+10	1	-1E+10	1	-1E+10	1
4902551	83	C	11/29/2022	15:03	-131.536	48.173	0	274.90	0	4.7790	0	33.7960	0	26.748	0	272.408	0	96.9	4	31.1	4	-1E+10	1	-1E+10	1	-1E+10	1	-1E+10	1	-1E+10	1	-1E+10	1
4902551	83	C	11/29/2022	15:03	-131.536	48.173	0	275.80	0	4.7770	0	33.7960	0	26.748	0	273.299	0	96.5	4	31.0	4	-1E+10	1	-1E+10	1	-1E+10	1	-1E+10	1	-1E+10	1	-1E+10	1
4902551	83	C	11/29/2022	15:03	-131.536	48.173	0	276.70	0	4.7710	0	33.7980	0	26.750	0	274.190	0	96.1	4	30.8	4	-1E+10	1	-1E+10	1	-1E+10	1	-1E+10	1	-1E+10	1	-1E+10	1
4902551	83	C	11/29/2022	15:03	-131.536	48.173	0	277.60	0	4.7670	0	33.7970	0	26.750	0	275.081	0	95.8	4	30.7	4	-1E+10	1	-1E+10	1	-1E+10	1	-1E+10	1	-1E+10	1	-1E+10	1
4902551	83	C	11/29/2022	15:03	-131.536	48.173	0	278.60	0	4.7660	0	33.7970	0	26.750	0	276.072	0	95.3	4	30.6	4	-1E+10	1	-1E+10	1	-1E+10	1	-1E+10	1	-1E+10	1	-1E+10	1
4902551	83	C	11/29/2022	15:03	-131.536	48.173	0	279.90	0	4.7630	0	33.7970	0	26.751	0	277.359	0	94.6	4	30.3	4	-1E+10	1	-1E+10	1	-1E+10	1	-1E+10	1	-1E+10	1	-1E+10	1
4902551	83	C	11/29/2022	15:03	-131.536	48.173	0	281.30	0	4.7570	0	33.7970	0	26.751	0	278.745	0	93.8	4	30.1	4	-1E+10	1	-1E+10	1	-1E+10	1	-1E+10	1	-1E+10	1	-1E+10	1
4902551	83	C	11/29/2022	15:03	-131.536	48.173	0	282.20	0	4.7450	0	33.8010	0	26.756	0	279.636	0	93.3	4	29.9	4	-1E+10	1	-1E+10	1	-1E+10	1	-1E+10	1	-1E+10	1	-1E+10	1
4902551	83	C	11/29/2022	15:03	-131.536	48.173	0	283.20	0	4.7390	0	33.8000	0	26.756	0	280.627	0	92.8	4	29.7	4	-1E+10	1	-1E+10	1	-1E+10	1	-1E+10	1	-1E+10	1	-1E+10	1
4902551	83	C	11/29/2022	15:03	-131.536	48.173	0	284.10	0	4.7360	0	33.8010	0	26.757	0	281.518	0	92.3	4	29.6	4	-1E+10	1	-1E+10	1	-1E+10	1	-1E+10	1	-1E+10	1	-1E+10	1
4902551	83	C	11/29/2022	15:03	-131.536	48.173	0	285.10	0	4.7320	0	33.8030	0	26.759	0	282.508	0	91.7	4	29.4	4	-1E+10	1	-1E+10	1	-1E+10	1	-1E+10	1	-1E+10	1	-1E+10	1
4902551	83	C	11/29/2022	15:03	-131.536	48.173	0	286.00	0	4.7280	0	33.8040	0	26.760	0	283.399	0	91.2	4	29.2	4	-1E+10	1	-1E+10	1	-1E+10	1	-1E+10	1	-1E+10	1	-1E+10	1
4902551	83	C	11/29/2022	15:03	-131.536	48.173	0	287.00	0	4.7130	0	33.8080	0	26.765	0	284.390	0	90.7	4	29.0	4	-1E+10	1	-1E+10	1	-1E+10	1	-1E+10	1	-1E+10	1	-1E+10	1
4902551	83	C	11/29/2022	15:03	-131.536	48.173	0	287.90	0	4.7040	0	33.8100	0	26.767	0	285.281	0	90.3	4	28.9	4	-1E+10	1	-1E+10	1	-1E+10	1	-1E+10	1	-1E+10	1	-1E+10	1
4902551	83	C	11/29/2022	15:03	-131.536	48.173	0	288.90	0	4.7040	0	33.8100	0	26.767	0	286.271	0	89.9	4	28.8	4	-1E+10	1	-1E+10	1	-1E+10	1	-1E+10	1	-1E+10	1	-1E+10	1
4902551	83	C	11/29/2022	15:03	-131.536	48.173	0	289.80	0	4.7040	0	33.8100	0	26.767	0	287.162	0	89.4	4	28.6	4	-1E+10	1	-1E+10	1	-1E+10	1	-1E+10	1	-1E+10	1	-1E+10	1
4902551	83	C	11/29/2022	15:03	-131.536	48.173	0	290.70	0	4.7030	0	33.8100	0	26.768	0	288.053	0	89.0	4	28.5	4	-1E+10	1	-1E+10	1	-1E+10	1	-1E+10	1	-1E+10	1	-1E+10	1
4902551	83	C	11/29/2022	15:03	-131.536	48.173	0	291.70	0	4.6930	0	33.8130	0	26.771	0	289.044	0	88.6	4	28.4	4	-1E+10	1	-1E+10	1	-1E+10	1	-1E+10	1	-1E+10	1	-1E+10	1
4902551	83	C	11/29/2022	15:03	-131.536	48.173	0	292.60	0	4.6760	0	33.8160	0	26.775	0	289.935	0	88.3	4	28.2	4	-1E+10	1	-1E+10	1	-1E+10	1	-1E+10	1	-1E+10	1	-1E+10	1
4902551	83	C	11/29/2022	15:03	-131.536	48.173	0	293.60	0	4.6690	0	33.8180	0	26.778	0	290.925	0	88.0	4	28.2	4	-1E+10	1	-1E+10	1	-1E+10	1	-1E+10	1	-1E+10	1	-1E+10	1
4902551	83	C	11/29/2022	15:03	-131.536	48.173	0	294.50	0	4.6620	0	33.8190	0	26.779	0	291.816	0	87.8	4	28.1	4	-1E+10	1	-1E+10	1	-1E+10	1	-1E+10	1	-1E+10	1	-1E+10	1
4902551	83	C	11/29/2022	15:03	-131.536	48.173	0	295.90	0	4.6590	0	33.8200	0	26.780	0	293.202	0	87.4	4	27.9	4	-1E+10	1	-1E+10	1	-1E+10	1	-1E+10	1	-1E+10	1	-1E+10	1
4902551	83	C	11/29/2022	15:03	-131.536	48.173	0	297.40	0	4.6580	0	33.8210	0	26.781	0	294.688	0	86.9	4	27.8	4	-1E+10	1	-1E+10	1	-1E+10	1	-1E+10	1	-1E+10	1	-1E+10	1
4902551	83	C	11/29/2022	15:03	-131.536	48.173	0	298.30	0	4.6590	0	33.8210	0	26.781	0	295.579	0	86.6	4	27.7	4	-1E+10	1	-1E+10	1	-1E+10	1	-1E+10	1	-1E+10	1	-1E+10	1
4902551	83	C	11/29/2022	15:03	-131.536	48.173	0	299.30	0	4.6590	0	33.8210	0	26.781	0	296.569	0	86.3	4	27.6	4	-1E+10	1	-1E+10	1	-1E+10	1	-1E+10	1	-1E+10	1	-1E+10	1
4902551	83	C	11/29/2022	15:03	-131.536	48.173	0	300.30	0	4.6610	0	33.8220	0	26.782	0	297.559	0	85.9	4	27.5	4	-1E+10	1	-1E+10	1	-1E+10	1	-1E+10	1	-1E+10	1	-1E+10	1
4902551	83	C	11/29/2022	15:03	-131.536	48.173	0	301.30	0	4.6450	0	33.8210	0	26.783	0	298.549	0	85.6	4	27.4	4	-1E+10	1	-1E+10	1	-1E+10	1	-1E+10	1	-1E+10	1	-1E+10	1
4902551	83	C	11/29/2022	15:03	-131.536	48.173	0	302.20	0	4.6300	0	33.8220	0	26.785	0	299.440	0	85.3	4	27.3	4	-1E+10	1	-1E+10	1	-1E+10	1	-1E+10	1	-1E+10	1	-1E+10	1
4902551	83	C	11/29/2022	15:03	-131.536	48.173	0	303.20	0	4.6280	0	33.8230	0	26.786	0	300.430	0	84.9	4	27.2	4	-1E+10	1	-1E+10	1	-1E+10	1	-1E+10	1	-1E+10	1	-1E+10	1
4902551	83	C	11/29/2022	15:03	-131.536	48.173	0	304.20	0	4.6300	0	33.8240	0	26.787	0	301.421	0	84.6	4	27.1	4	-1E+10	1	-1E+10	1	-1E+10	1	-1E+10	1	-1E+10	1	-1E+10	1
4902551	83	C	11/29/2022	15:03	-131.536	48.173	0	305.10	0	4.6270	0	33.8250	0	26.788	0	302.312	0	84.2	4	26.9	4	-1E+10	1	-1E+10	1	-1E+10	1	-1E+10	1	-1E+10	1	-1E+10	1
4902551	83	C	11/29/2022	15:03	-131.536	48.173	0	306.00	0	4.6270	0	33.8250	0	26.788	0	303.203	0	83.9	4	26.8	4	-1E+10	1	-1E+10	1	-1E+10	1	-1E+10	1	-1E+10	1	-1E+10	1
4902551	83	C	11/29/2022	15:03	-131.536	48.173	0	306.90	0	4.6220	0	33.8320	0	26.794	0	304.094	0	83.6	4	26.7	4	-1E+10	1	-1E+10	1	-1E+10	1	-1E+10	1	-1E+10	1	-1E+10	1
4902551	83	C	11/29/2022	15:03	-131.536	48.173	0	308.00	0	4.6200	0	33.8310	0	26.793	0	305.183	0	83.2	4	26.6	4	-1E+10	1	-1E+10	1	-1E+10	1	-1E+10	1	-1E+10	1	-1E+10	1
4902551	83	C	11/29/2022	15:03	-131.536	48.173	0	308.70	0	4.6170	0	33.8330	0	26.795	0	305.876	0	83.0	4	26.5	4	-1E+10	1	-1E+10	1	-1E+10	1	-1E+10	1	-1E+10	1	-1E+10	1
4902551	83	C	11/29/2022	15:03	-131.536	48.173	0	309.80	0	4.6170	0	33.8330	0	26.795	0	306.965	0	82.7	4	26.4	4	-1E+10	1	-1E+10	1	-1E+10	1	-1E+10	1	-1E+10	1	-1E+10	1
4902551	83	C	11/29/2022	15:03	-131.536	48.173	0	311.00	0	4.6130	0	33.8350	0	26.797	0	308.153	0	82.4	4	26.3	4	-1E+10	1	-1E+10	1	-1E+10	1	-1E+10	1	-1E+10	1	-1E+10	1
4902551	83	C	11/29/2022	15:03	-131.536	48.173	0	311.70	0	4.6120	0	33.8350	0	26.798	0	308.847	0	82.2	4	26.3	4	-1E+10	1	-1E+10	1	-1E+10	1	-1E+10	1	-1E+10	1	-1E+10	1
4902551	83	C	11/29/2022	15:03	-131.536	48.173	0	312.80	0	4.6090	0	33.8360	0	26.799	0	309.936	0	81.9	4	26.2	4	-1E+10	1	-1E+10	1	-1E+10	1	-1E+10	1	-1E+10	1	-1E+10	1
4902551	83	C	11/29/2022	15:03	-131.536	48.173	0	314.00	0	4.6070	0	33.8370	0	26.800	0	311.124	0	81.6	4	26.1	4	-1E+10	1	-1E+10	1	-1E+10	1	-1E+10	1	-1E+10	1	-1E+10	1
4902551	83	C	11/29/2022	15:03	-131.536	48.173	0	314.70	0	4.6060	0	33.8380	0	26.801	0	311.817	0	81.4	4	26.0	4	-1E+10	1	-1E+10	1	-1E+10	1	-1E+10	1	-1E+10	1	-1E+10	1
4902551	83	C	11/29/2022	15:03	-131.536	48.173	0	315.90	0	4.6030	0	33.8380	0	26.801	0	313.005	0	81.1	4	25.9	4	-1E+10	1	-1E+10	1	-1E+10	1	-1E+10	1	-1E+10	1	-1E+10	1
4902551	83	C	11/29/2022	15:03	-131.536	48.173	0	317.10	0	4.5980	0	33.8410	0	26.804	0	314.193	0	80.8	4	25.8	4	-1E+10	1	-1E+10	1	-1E+10	1	-1E+10	1	-1E+10	1	-1E+10	1
4902551	83	C	11/29/2022	15:03	-131.536	48.173	0	317.80	0	4.5980	0	33.8400	0	26.803	0	314.886	0	80.6	4	25.7	4	-1E+10	1	-1E+10	1	-1E+10	1	-1E+10	1	-1E+10	1	-1E+10	1
4902551	83	C	11/29/2022	15:03	-131.536	48.173	0	319.00	0	4.5950	0	33.8410	0	26.804	0	316.074	0	80.3	4	25.7	4	-1E+10	1	-1E+10	1	-1E+10	1	-1E+10	1	-1E+10	1	-1E+10	1
4902551	83	C	11/29/2022	15:03	-131.536	48.173	0	320.20	0	4.5940	0	33.8410	0	26.804	0	317.262	0	80.0	4	25.6	4	-1E+10	1	-1E+10	1	-1E+10	1	-1E+10	1	-1E+10	1	-1E+10	1
4902551	83	C	11/29/2022	15:03	-131.536	48.173	0	321.00	0	4.5940	0	33.8420	0	26.805	0	318.054	0	79.8	4	25.5	4	-1E+10	1	-1E+10	1	-1E+10	1	-1E+10	1	-1E+10	1	-1E+10	1
4902551	83	C	11/29/2022	15:03	-131.536	48.173	0	321.80	0	4.5930	0	33.8420	0	26.805	0	318.846	0	79.6	4	25.4	4	-1E+10	1	-1E+10	1	-1E+10	1	-1E+10	1	-1E+10	1	-1E+10	1
4902551	83	C	11/29/2022	15:03	-131.536	48.173	0	323.00	0	4.5920	0	33.8420	0	26.805	0	320.034	0	79.2	4	25.3	4	-1E+10	1	-1E+10	1	-1E+10	1	-1E+10	1	-1E+10	1	-1E+10	1
4902551	83	C	11/29/2022	15:03	-131.536	48.173	0	324.20	0	4.5910	0	33.8430	0	26.806	0	321.222	0	78.9	4	25.2	4	-1E+10	1	-1E+10	1	-1E+10	1	-1E+10	1	-1E+10	1	-1E+10	1
4902551	83	C	11/29/2022	15:03	-131.536	48.173	0	325.00	0	4.5890	0	33.8450	0	26.808	0	322.014	0	78.6	4	25.1	4	-1E+10	1	-1E+10	1	-1E+10	1	-1E+10	1	-1E+10	1	-1E+10	1
4902551	83	C	11/29/2022	15:03	-131.536	48.173	0	325.80	0	4.5870	0	33.8450	0	26.808	0	322.806	0	78.4	4	25.0	4	-1E+10	1	-1E+10	1	-1E+10	1	-1E+10	1	-1E+10	1	-1E+10	1
4902551	83	C	11/29/2022	15:03	-131.536	48.173	0	326.70	0	4.5860	0	33.8460	0	26.809	0	323.697	0	78.1	4	25.0	4	-1E+10	1	-1E+10	1	-1E+10	1	-1E+10	1	-1E+10	1	-1E+10	1
4902551	83	C	11/29/2022	15:03	-131.536	48.173	0	327.90	0	4.5850	0	33.8470	0	26.810	0	324.885	0	77.7	4	24.8	4	-1E+10	1	-1E+10	1	-1E+10	1	-1E+10	1	-1E+10	1	-1E+10	1
4902551	83	C	11/29/2022	15:03	-131.536	48.173	0	329.20	0	4.5840	0	33.8470	0	26.810	0	326.173	0	77.2	4	24.7	4	-1E+10	1	-1E+10	1	-1E+10	1	-1E+10	1	-1E+10	1	-1E+10	1
4902551	83	C	11/29/2022	15:03	-131.536	48.173	0	330.10	0	4.5830	0	33.8480	0	26.811	0	327.064	0	76.9	4	24.6	4	-1E+10	1	-1E+10	1	-1E+10	1	-1E+10	1	-1E+10	1	-1E+10	1
4902551	83	C	11/29/2022	15:03	-131.536	48.173	0	330.90	0	4.5770	0	33.8480	0	26.812	0	327.856	0	76.5	4	24.4	4	-1E+10	1	-1E+10	1	-1E+10	1	-1E+10	1	-1E+10	1	-1E+10	1
4902551	83	C	11/29/2022	15:03	-131.536	48.173	0	331.80	0	4.5750	0	33.8490	0	26.813	0	328.747	0	76.2	4	24.3	4	-1E+10	1	-1E+10	1	-1E+10	1	-1E+10	1	-1E+10	1	-1E+10	1
4902551	83	C	11/29/2022	15:03	-131.536	48.173	0	333.00	0	4.5680	0	33.8520	0	26.816	0	329.935	0	75.7	4	24.2	4	-1E+10	1	-1E+10	1	-1E+10	1	-1E+10	1	-1E+10	1	-1E+10	1
4902551	83	C	11/29/2022	15:03	-131.536	48.173	0	334.30	0	4.5660	0	33.8540	0	26.818	0	331.222	0	75.3	4	24.0	4	-1E+10	1	-1E+10	1	-1E+10	1	-1E+10	1	-1E+10	1	-1E+10	1
4902551	83	C	11/29/2022	15:03	-131.536	48.173	0	335.10	0	4.5650	0	33.8540	0	26.818	0	332.014	0	75.0	4	24.0	4	-1E+10	1	-1E+10	1	-1E+10	1	-1E+10	1	-1E+10	1	-1E+10	1
4902551	83	C	11/29/2022	15:03	-131.536	48.173	0	336.00	0	4.5600	0	33.8570	0	26.821	0	332.905	0	74.7	4	23.9	4	-1E+10	1	-1E+10	1	-1E+10	1	-1E+10	1	-1E+10	1	-1E+10	1
4902551	83	C	11/29/2022	15:03	-131.536	48.173	0	336.80	0	4.5580	0	33.8570	0	26.821	0	333.696	0	74.4	4	23.8	4	-1E+10	1	-1E+10	1	-1E+10	1	-1E+10	1	-1E+10	1	-1E+10	1
4902551	83	C	11/29/2022	15:03	-131.536	48.173	0	337.70	0	4.5540	0	33.8580	0	26.822	0	334.587	0	74.1	4	23.7	4	-1E+10	1	-1E+10	1	-1E+10	1	-1E+10	1	-1E+10	1	-1E+10	1
4902551	83	C	11/29/2022	15:03	-131.536	48.173	0	338.60	0	4.5470	0	33.8580	0	26.823	0	335.478	0	73.9	4	23.6	4	-1E+10	1	-1E+10	1	-1E+10	1	-1E+10	1	-1E+10	1	-1E+10	1
4902551	83	C	11/29/2022	15:03	-131.536	48.173	0	339.90	0	4.5290	0	33.8600	0	26.827	0	336.765	0	73.4	4	23.4	4	-1E+10	1	-1E+10	1	-1E+10	1	-1E+10	1	-1E+10	1	-1E+10	1
4902551	83	C	11/29/2022	15:03	-131.536	48.173	0	341.20	0	4.5280	0	33.8610	0	26.827	0	338.052	0	73.1	4	23.3	4	-1E+10	1	-1E+10	1	-1E+10	1	-1E+10	1	-1E+10	1	-1E+10	1
4902551	83	C	11/29/2022	15:03	-131.536	48.173	0	342.10	0	4.5260	0	33.8620	0	26.828	0	338.943	0	72.9	4	23.2	4	-1E+10	1	-1E+10	1	-1E+10	1	-1E+10	1	-1E+10	1	-1E+10	1
4902551	83	C	11/29/2022	15:03	-131.536	48.173	0	343.00	0	4.5260	0	33.8630	0	26.829	0	339.834	0	72.6	4	23.1	4	-1E+10	1	-1E+10	1	-1E+10	1	-1E+10	1	-1E+10	1	-1E+10	1
4902551	83	C	11/29/2022	15:03	-131.536	48.173	0	343.90	0	4.5270	0	33.8630	0	26.829	0	340.725	0	72.3	4	23.1	4	-1E+10	1	-1E+10	1	-1E+10	1	-1E+10	1	-1E+10	1	-1E+10	1
4902551	83	C	11/29/2022	15:03	-131.536	48.173	0	344.80	0	4.5270	0	33.8630	0	26.829	0	341.616	0	72.0	4	23.0	4	-1E+10	1	-1E+10	1	-1E+10	1	-1E+10	1	-1E+10	1	-1E+10	1
4902551	83	C	11/29/2022	15:03	-131.536	48.173	0	345.70	0	4.5270	0	33.8630	0	26.829	0	342.507	0	71.6	4	22.9	4	-1E+10	1	-1E+10	1	-1E+10	1	-1E+10	1	-1E+10	1	-1E+10	1
4902551	83	C	11/29/2022	15:03	-131.536	48.173	0	346.60	0	4.5280	0	33.8640	0	26.830	0	343.398	0	71.2	4	22.7	4	-1E+10	1	-1E+10	1	-1E+10	1	-1E+10	1	-1E+10	1	-1E+10	1
4902551	83	C	11/29/2022	15:03	-131.536	48.173	0	347.90	0	4.5250	0	33.8660	0	26.832	0	344.685	0	70.6	4	22.5	4	-1E+10	1	-1E+10	1	-1E+10	1	-1E+10	1	-1E+10	1	-1E+10	1
4902551	83	C	11/29/2022	15:03	-131.536	48.173	0	349.30	0	4.5040	0	33.8750	0	26.841	0	346.071	0	70.3	4	22.4	4	-1E+10	1	-1E+10	1	-1E+10	1	-1E+10	1	-1E+10	1	-1E+10	1
4902551	83	C	11/29/2022	15:03	-131.536	48.173	0	350.30	0	4.5040	0	33.8750	0	26.841	0	347.061	0	70.1	4	22.4	4	-1E+10	1	-1E+10	1	-1E+10	1	-1E+10	1	-1E+10	1	-1E+10	1
4902551	83	C	11/29/2022	15:03	-131.536	48.173	0	353.00	0	4.5010	0	33.8750	0	26.842	0	349.734	0	69.4	4	22.1	4	-1E+10	1	-1E+10	1	-1E+10	1	-1E+10	1	-1E+10	1	-1E+10	1
4902551	83	C	11/29/2022	15:03	-131.536	48.173	0	357.70	0	4.4900	0	33.8780	0	26.845	0	354.386	0	68.0	4	21.7	4	-1E+10	1	-1E+10	1	-1E+10	1	-1E+10	1	-1E+10	1	-1E+10	1
4902551	83	C	11/29/2022	15:03	-131.536	48.173	0	362.50	0	4.4730	0	33.8840	0	26.852	0	359.137	0	66.8	4	21.3	4	-1E+10	1	-1E+10	1	-1E+10	1	-1E+10	1	-1E+10	1	-1E+10	1
4902551	83	C	11/29/2022	15:03	-131.536	48.173	0	367.80	0	4.4620	0	33.8890	0	26.857	0	364.384	0	65.6	4	20.9	4	-1E+10	1	-1E+10	1	-1E+10	1	-1E+10	1	-1E+10	1	-1E+10	1
4902551	83	C	11/29/2022	15:03	-131.536	48.173	0	373.30	0	4.4540	0	33.8950	0	26.863	0	369.828	0	64.6	4	20.6	4	-1E+10	1	-1E+10	1	-1E+10	1	-1E+10	1	-1E+10	1	-1E+10	1
4902551	83	C	11/29/2022	15:03	-131.536	48.173	0	378.30	0	4.4500	0	33.8970	0	26.865	0	374.777	0	63.6	4	20.2	4	-1E+10	1	-1E+10	1	-1E+10	1	-1E+10	1	-1E+10	1	-1E+10	1
4902551	83	C	11/29/2022	15:03	-131.536	48.173	0	383.30	0	4.4400	0	33.9020	0	26.870	0	379.725	0	62.2	4	19.8	4	-1E+10	1	-1E+10	1	-1E+10	1	-1E+10	1	-1E+10	1	-1E+10	1
4902551	83	C	11/29/2022	15:03	-131.536	48.173	0	388.40	0	4.4300	0	33.9090	0	26.876	0	384.773	0	61.0	4	19.4	4	-1E+10	1	-1E+10	1	-1E+10	1	-1E+10	1	-1E+10	1	-1E+10	1
4902551	83	C	11/29/2022	15:03	-131.536	48.173	0	392.90	0	4.4120	0	33.9160	0	26.884	0	389.227	0	60.2	4	19.1	4	-1E+10	1	-1E+10	1	-1E+10	1	-1E+10	1	-1E+10	1	-1E+10	1
4902551	83	C	11/29/2022	15:03	-131.536	48.173	0	397.50	0	4.3970	0	33.9230	0	26.891	0	393.780	0	59.3	4	18.9	4	-1E+10	1	-1E+10	1	-1E+10	1	-1E+10	1	-1E+10	1	-1E+10	1
4902551	83	C	11/29/2022	15:03	-131.536	48.173	0	402.60	0	4.3870	0	33.9280	0	26.896	0	398.827	0	58.4	4	18.6	4	-1E+10	1	-1E+10	1	-1E+10	1	-1E+10	1	-1E+10	1	-1E+10	1
4902551	83	C	11/29/2022	15:03	-131.536	48.173	0	407.60	0	4.3780	0	33.9330	0	26.901	0	403.775	0	57.5	4	18.3	4	-1E+10	1	-1E+10	1	-1E+10	1	-1E+10	1	-1E+10	1	-1E+10	1
4902551	83	C	11/29/2022	15:03	-131.536	48.173	0	412.60	0	4.3670	0	33.9380	0	26.906	0	408.723	0	56.6	4	18.0	4	-1E+10	1	-1E+10	1	-1E+10	1	-1E+10	1	-1E+10	1	-1E+10	1
4902551	83	C	11/29/2022	15:03	-131.536	48.173	0	417.60	0	4.3590	0	33.9430	0	26.911	0	413.671	0	55.8	4	17.7	4	-1E+10	1	-1E+10	1	-1E+10	1	-1E+10	1	-1E+10	1	-1E+10	1
4902551	83	C	11/29/2022	15:03	-131.536	48.173	0	422.50	0	4.3550	0	33.9450	0	26.913	0	418.520	0	54.8	4	17.4	4	-1E+10	1	-1E+10	1	-1E+10	1	-1E+10	1	-1E+10	1	-1E+10	1
4902551	83	C	11/29/2022	15:03	-131.536	48.173	0	427.90	0	4.3460	0	33.9510	0	26.919	0	423.864	0	53.3	4	17.0	4	-1E+10	1	-1E+10	1	-1E+10	1	-1E+10	1	-1E+10	1	-1E+10	1
4902551	83	C	11/29/2022	15:03	-131.536	48.173	0	433.30	0	4.3280	0	33.9600	0	26.928	0	429.207	0	51.8	4	16.5	4	-1E+10	1	-1E+10	1	-1E+10	1	-1E+10	1	-1E+10	1	-1E+10	1
4902551	83	C	11/29/2022	15:03	-131.536	48.173	0	438.10	0	4.3100	0	33.9690	0	26.937	0	433.957	0	50.8	4	16.1	4	-1E+10	1	-1E+10	1	-1E+10	1	-1E+10	1	-1E+10	1	-1E+10	1
4902551	83	C	11/29/2022	15:03	-131.536	48.173	0	443.00	0	4.2990	0	33.9740	0	26.942	0	438.806	0	50.1	4	15.9	4	-1E+10	1	-1E+10	1	-1E+10	1	-1E+10	1	-1E+10	1	-1E+10	1
4902551	83	C	11/29/2022	15:03	-131.536	48.173	0	447.90	0	4.2960	0	33.9760	0	26.944	0	443.654	0	49.4	4	15.7	4	-1E+10	1	-1E+10	1	-1E+10	1	-1E+10	1	-1E+10	1	-1E+10	1
4902551	83	C	11/29/2022	15:03	-131.536	48.173	0	452.80	0	4.2870	0	33.9810	0	26.949	0	448.502	0	48.5	4	15.4	4	-1E+10	1	-1E+10	1	-1E+10	1	-1E+10	1	-1E+10	1	-1E+10	1
4902551	83	C	11/29/2022	15:03	-131.536	48.173	0	457.70	0	4.2770	0	33.9870	0	26.955	0	453.350	0	47.7	4	15.2	4	-1E+10	1	-1E+10	1	-1E+10	1	-1E+10	1	-1E+10	1	-1E+10	1
4902551	83	C	11/29/2022	15:03	-131.536	48.173	0	462.60	0	4.2700	0	33.9910	0	26.959	0	458.198	0	47.1	4	14.9	4	-1E+10	1	-1E+10	1	-1E+10	1	-1E+10	1	-1E+10	1	-1E+10	1
4902551	83	C	11/29/2022	15:03	-131.536	48.173	0	467.90	0	4.2630	0	33.9960	0	26.964	0	463.442	0	46.4	4	14.7	4	-1E+10	1	-1E+10	1	-1E+10	1	-1E+10	1	-1E+10	1	-1E+10	1
4902551	83	C	11/29/2022	15:03	-131.536	48.173	0	473.30	0	4.2610	0	33.9980	0	26.966	0	468.785	0	45.5	4	14.4	4	-1E+10	1	-1E+10	1	-1E+10	1	-1E+10	1	-1E+10	1	-1E+10	1
4902551	83	C	11/29/2022	15:03	-131.536	48.173	0	478.00	0	4.2510	0	34.0040	0	26.972	0	473.434	0	44.2	4	14.0	4	-1E+10	1	-1E+10	1	-1E+10	1	-1E+10	1	-1E+10	1	-1E+10	1
4902551	83	C	11/29/2022	15:03	-131.536	48.173	0	482.70	0	4.2360	0	34.0120	0	26.980	0	478.084	0	43.1	4	13.7	4	-1E+10	1	-1E+10	1	-1E+10	1	-1E+10	1	-1E+10	1	-1E+10	1
4902551	83	C	11/29/2022	15:03	-131.536	48.173	0	488.00	0	4.2250	0	34.0180	0	26.985	0	483.327	0	41.8	4	13.3	4	-1E+10	1	-1E+10	1	-1E+10	1	-1E+10	1	-1E+10	1	-1E+10	1
4902551	83	C	11/29/2022	15:03	-131.536	48.173	0	493.20	0	4.2020	0	34.0290	0	26.997	0	488.471	0	40.7	4	12.9	4	-1E+10	1	-1E+10	1	-1E+10	1	-1E+10	1	-1E+10	1	-1E+10	1
4902551	83	C	11/29/2022	15:03	-131.536	48.173	0	498.00	0	4.1940	0	34.0330	0	27.001	0	493.220	0	40.1	4	12.7	4	-1E+10	1	-1E+10	1	-1E+10	1	-1E+10	1	-1E+10	1	-1E+10	1
4902551	83	C	11/29/2022	15:03	-131.536	48.173	0	502.80	0	4.1900	0	34.0340	0	27.002	0	497.968	0	39.1	4	12.4	4	-1E+10	1	-1E+10	1	-1E+10	1	-1E+10	1	-1E+10	1	-1E+10	1
4902551	83	C	11/29/2022	15:03	-131.536	48.173	0	508.10	0	4.1770	0	34.0400	0	27.008	0	503.210	0	37.8	4	12.0	4	-1E+10	1	-1E+10	1	-1E+10	1	-1E+10	1	-1E+10	1	-1E+10	1
4902551	83	C	11/29/2022	15:03	-131.536	48.173	0	513.30	0	4.1620	0	34.0460	0	27.014	0	508.354	0	36.4	4	11.5	4	-1E+10	1	-1E+10	1	-1E+10	1	-1E+10	1	-1E+10	1	-1E+10	1
4902551	83	C	11/29/2022	15:03	-131.536	48.173	0	518.10	0	4.1520	0	34.0510	0	27.020	0	513.102	0	35.0	4	11.1	4	-1E+10	1	-1E+10	1	-1E+10	1	-1E+10	1	-1E+10	1	-1E+10	1
4902551	83	C	11/29/2022	15:03	-131.536	48.173	0	523.00	0	4.1430	0	34.0580	0	27.026	0	517.948	0	33.7	4	10.7	4	-1E+10	1	-1E+10	1	-1E+10	1	-1E+10	1	-1E+10	1	-1E+10	1
4902551	83	C	11/29/2022	15:03	-131.536	48.173	0	527.80	0	4.1310	0	34.0640	0	27.032	0	522.696	0	32.9	4	10.4	4	-1E+10	1	-1E+10	1	-1E+10	1	-1E+10	1	-1E+10	1	-1E+10	1
4902551	83	C	11/29/2022	15:03	-131.536	48.173	0	532.90	0	4.1120	0	34.0710	0	27.040	0	527.740	0	32.1	4	10.2	4	-1E+10	1	-1E+10	1	-1E+10	1	-1E+10	1	-1E+10	1	-1E+10	1
4902551	83	C	11/29/2022	15:03	-131.536	48.173	0	538.30	0	4.0940	0	34.0770	0	27.046	0	533.081	0	31.2	4	9.9	4	-1E+10	1	-1E+10	1	-1E+10	1	-1E+10	1	-1E+10	1	-1E+10	1
4902551	83	C	11/29/2022	15:03	-131.536	48.173	0	543.00	0	4.0830	0	34.0820	0	27.051	0	537.729	0	30.4	4	9.6	4	-1E+10	1	-1E+10	1	-1E+10	1	-1E+10	1	-1E+10	1	-1E+10	1
4902551	83	C	11/29/2022	15:03	-131.536	48.173	0	547.70	0	4.0750	0	34.0870	0	27.056	0	542.378	0	29.8	4	9.4	4	-1E+10	1	-1E+10	1	-1E+10	1	-1E+10	1	-1E+10	1	-1E+10	1
4902551	83	C	11/29/2022	15:03	-131.536	48.173	0	553.00	0	4.0640	0	34.0920	0	27.061	0	547.619	0	29.0	4	9.2	4	-1E+10	1	-1E+10	1	-1E+10	1	-1E+10	1	-1E+10	1	-1E+10	1
4902551	83	C	11/29/2022	15:03	-131.536	48.173	0	557.90	0	4.0530	0	34.0970	0	27.067	0	552.465	0	28.6	4	9.0	4	-1E+10	1	-1E+10	1	-1E+10	1	-1E+10	1	-1E+10	1	-1E+10	1
4902551	83	C	11/29/2022	15:03	-131.536	48.173	0	562.90	0	4.0480	0	34.1000	0	27.070	0	557.410	0	28.1	4	8.9	4	-1E+10	1	-1E+10	1	-1E+10	1	-1E+10	1	-1E+10	1	-1E+10	1
4902551	83	C	11/29/2022	15:03	-131.536	48.173	0	568.10	0	4.0370	0	34.1040	0	27.074	0	562.552	0	27.6	4	8.7	4	-1E+10	1	-1E+10	1	-1E+10	1	-1E+10	1	-1E+10	1	-1E+10	1
4902551	83	C	11/29/2022	15:03	-131.536	48.173	0	572.80	0	4.0250	0	34.1100	0	27.080	0	567.200	0	27.1	4	8.5	4	-1E+10	1	-1E+10	1	-1E+10	1	-1E+10	1	-1E+10	1	-1E+10	1
4902551	83	C	11/29/2022	15:03	-131.536	48.173	0	577.60	0	4.0150	0	34.1140	0	27.084	0	571.946	0	26.6	4	8.4	4	-1E+10	1	-1E+10	1	-1E+10	1	-1E+10	1	-1E+10	1	-1E+10	1
4902551	83	C	11/29/2022	15:03	-131.536	48.173	0	582.50	0	3.9970	0	34.1210	0	27.092	0	576.791	0	26.3	4	8.3	4	-1E+10	1	-1E+10	1	-1E+10	1	-1E+10	1	-1E+10	1	-1E+10	1
4902551	83	C	11/29/2022	15:03	-131.536	48.173	0	587.40	0	3.9860	0	34.1270	0	27.098	0	581.636	0	25.9	4	8.2	4	-1E+10	1	-1E+10	1	-1E+10	1	-1E+10	1	-1E+10	1	-1E+10	1
4902551	83	C	11/29/2022	15:03	-131.536	48.173	0	592.50	0	3.9760	0	34.1300	0	27.101	0	586.679	0	25.6	4	8.1	4	-1E+10	1	-1E+10	1	-1E+10	1	-1E+10	1	-1E+10	1	-1E+10	1
4902551	83	C	11/29/2022	15:03	-131.536	48.173	0	597.50	0	3.9690	0	34.1340	0	27.105	0	591.623	0	25.2	4	8.0	4	-1E+10	1	-1E+10	1	-1E+10	1	-1E+10	1	-1E+10	1	-1E+10	1
4902551	83	C	11/29/2022	15:03	-131.536	48.173	0	602.70	0	3.9580	0	34.1370	0	27.108	0	596.764	0	24.8	4	7.8	4	-1E+10	1	-1E+10	1	-1E+10	1	-1E+10	1	-1E+10	1	-1E+10	1
4902551	83	C	11/29/2022	15:03	-131.536	48.173	0	607.90	0	3.9440	0	34.1420	0	27.114	0	601.906	0	24.4	4	7.7	4	-1E+10	1	-1E+10	1	-1E+10	1	-1E+10	1	-1E+10	1	-1E+10	1
4902551	83	C	11/29/2022	15:03	-131.536	48.173	0	613.10	0	3.9290	0	34.1460	0	27.119	0	607.047	0	24.0	4	7.6	4	-1E+10	1	-1E+10	1	-1E+10	1	-1E+10	1	-1E+10	1	-1E+10	1
4902551	83	C	11/29/2022	15:03	-131.536	48.173	0	617.90	0	3.9120	0	34.1520	0	27.125	0	611.792	0	23.6	4	7.4	4	-1E+10	1	-1E+10	1	-1E+10	1	-1E+10	1	-1E+10	1	-1E+10	1
4902551	83	C	11/29/2022	15:03	-131.536	48.173	0	622.90	0	3.9070	0	34.1550	0	27.128	0	616.736	0	23.5	4	7.4	4	-1E+10	1	-1E+10	1	-1E+10	1	-1E+10	1	-1E+10	1	-1E+10	1
4902551	83	C	11/29/2022	15:03	-131.536	48.173	0	628.20	0	3.8930	0	34.1570	0	27.131	0	621.975	0	23.3	4	7.3	4	-1E+10	1	-1E+10	1	-1E+10	1	-1E+10	1	-1E+10	1	-1E+10	1
4902551	83	C	11/29/2022	15:03	-131.536	48.173	0	633.10	0	3.8850	0	34.1600	0	27.134	0	626.819	0	23.1	4	7.3	4	-1E+10	1	-1E+10	1	-1E+10	1	-1E+10	1	-1E+10	1	-1E+10	1
4902551	83	C	11/29/2022	15:03	-131.536	48.173	0	638.20	0	3.8760	0	34.1620	0	27.137	0	631.861	0	22.8	4	7.2	4	-1E+10	1	-1E+10	1	-1E+10	1	-1E+10	1	-1E+10	1	-1E+10	1
4902551	83	C	11/29/2022	15:03	-131.536	48.173	0	642.90	0	3.8690	0	34.1650	0	27.140	0	636.507	0	22.6	4	7.1	4	-1E+10	1	-1E+10	1	-1E+10	1	-1E+10	1	-1E+10	1	-1E+10	1
4902551	83	C	11/29/2022	15:03	-131.536	48.173	0	647.60	0	3.8630	0	34.1660	0	27.141	0	641.153	0	22.4	4	7.0	4	-1E+10	1	-1E+10	1	-1E+10	1	-1E+10	1	-1E+10	1	-1E+10	1
4902551	83	C	11/29/2022	15:03	-131.536	48.173	0	652.90	0	3.8570	0	34.1680	0	27.144	0	646.392	0	22.2	4	7.0	4	-1E+10	1	-1E+10	1	-1E+10	1	-1E+10	1	-1E+10	1	-1E+10	1
4902551	83	C	11/29/2022	15:03	-131.536	48.173	0	658.10	0	3.8490	0	34.1710	0	27.147	0	651.532	0	21.9	4	6.9	4	-1E+10	1	-1E+10	1	-1E+10	1	-1E+10	1	-1E+10	1	-1E+10	1
4902551	83	C	11/29/2022	15:03	-131.536	48.173	0	663.00	0	3.8390	0	34.1740	0	27.150	0	656.376	0	21.6	4	6.8	4	-1E+10	1	-1E+10	1	-1E+10	1	-1E+10	1	-1E+10	1	-1E+10	1
4902551	83	C	11/29/2022	15:03	-131.536	48.173	0	667.80	0	3.8290	0	34.1760	0	27.153	0	661.120	0	21.3	4	6.7	4	-1E+10	1	-1E+10	1	-1E+10	1	-1E+10	1	-1E+10	1	-1E+10	1
4902551	83	C	11/29/2022	15:03	-131.536	48.173	0	673.00	0	3.8170	0	34.1790	0	27.157	0	666.260	0	20.8	4	6.5	4	-1E+10	1	-1E+10	1	-1E+10	1	-1E+10	1	-1E+10	1	-1E+10	1
4902551	83	C	11/29/2022	15:03	-131.536	48.173	0	677.90	0	3.8010	0	34.1840	0	27.162	0	671.103	0	20.3	4	6.4	4	-1E+10	1	-1E+10	1	-1E+10	1	-1E+10	1	-1E+10	1	-1E+10	1
4902551	83	C	11/29/2022	15:03	-131.536	48.173	0	682.70	0	3.7840	0	34.1900	0	27.169	0	675.847	0	19.8	4	6.2	4	-1E+10	1	-1E+10	1	-1E+10	1	-1E+10	1	-1E+10	1	-1E+10	1
4902551	83	C	11/29/2022	15:03	-131.536	48.173	0	688.10	0	3.7740	0	34.1930	0	27.172	0	681.184	0	19.3	4	6.1	4	-1E+10	1	-1E+10	1	-1E+10	1	-1E+10	1	-1E+10	1	-1E+10	1
4902551	83	C	11/29/2022	15:03	-131.536	48.173	0	693.20	0	3.7610	0	34.1970	0	27.177	0	686.224	0	18.7	4	5.9	4	-1E+10	1	-1E+10	1	-1E+10	1	-1E+10	1	-1E+10	1	-1E+10	1
4902551	83	C	11/29/2022	15:03	-131.536	48.173	0	697.70	0	3.7510	0	34.2010	0	27.181	0	690.671	0	18.0	4	5.6	4	-1E+10	1	-1E+10	1	-1E+10	1	-1E+10	1	-1E+10	1	-1E+10	1
4902551	83	C	11/29/2022	15:03	-131.536	48.173	0	702.70	0	3.7460	0	34.2060	0	27.185	0	695.613	0	17.4	4	5.5	4	-1E+10	1	-1E+10	1	-1E+10	1	-1E+10	1	-1E+10	1	-1E+10	1
4902551	83	C	11/29/2022	15:03	-131.536	48.173	0	707.70	0	3.7400	0	34.2110	0	27.190	0	700.554	0	17.0	4	5.3	4	-1E+10	1	-1E+10	1	-1E+10	1	-1E+10	1	-1E+10	1	-1E+10	1
4902551	83	C	11/29/2022	15:03	-131.536	48.173	0	712.70	0	3.7320	0	34.2140	0	27.193	0	705.495	0	16.6	4	5.2	4	-1E+10	1	-1E+10	1	-1E+10	1	-1E+10	1	-1E+10	1	-1E+10	1
4902551	83	C	11/29/2022	15:03	-131.536	48.173	0	717.80	0	3.7230	0	34.2180	0	27.197	0	710.535	0	16.4	4	5.1	4	-1E+10	1	-1E+10	1	-1E+10	1	-1E+10	1	-1E+10	1	-1E+10	1
4902551	83	C	11/29/2022	15:03	-131.536	48.173	0	722.90	0	3.7110	0	34.2210	0	27.201	0	715.574	0	16.1	4	5.1	4	-1E+10	1	-1E+10	1	-1E+10	1	-1E+10	1	-1E+10	1	-1E+10	1
4902551	83	C	11/29/2022	15:03	-131.536	48.173	0	728.10	0	3.7020	0	34.2240	0	27.204	0	720.713	0	15.8	4	5.0	4	-1E+10	1	-1E+10	1	-1E+10	1	-1E+10	1	-1E+10	1	-1E+10	1
4902551	83	C	11/29/2022	15:03	-131.536	48.173	0	732.70	0	3.6880	0	34.2280	0	27.209	0	725.258	0	15.6	4	4.9	4	-1E+10	1	-1E+10	1	-1E+10	1	-1E+10	1	-1E+10	1	-1E+10	1
4902551	83	C	11/29/2022	15:03	-131.536	48.173	0	737.80	0	3.6810	0	34.2300	0	27.211	0	730.297	0	15.3	4	4.8	4	-1E+10	1	-1E+10	1	-1E+10	1	-1E+10	1	-1E+10	1	-1E+10	1
4902551	83	C	11/29/2022	15:03	-131.536	48.173	0	742.80	0	3.6760	0	34.2330	0	27.214	0	735.238	0	14.9	4	4.7	4	-1E+10	1	-1E+10	1	-1E+10	1	-1E+10	1	-1E+10	1	-1E+10	1
4902551	83	C	11/29/2022	15:03	-131.536	48.173	0	747.80	0	3.6670	0	34.2370	0	27.218	0	740.178	0	14.6	4	4.6	4	-1E+10	1	-1E+10	1	-1E+10	1	-1E+10	1	-1E+10	1	-1E+10	1
4902551	83	C	11/29/2022	15:03	-131.536	48.173	0	752.80	0	3.6550	0	34.2420	0	27.223	0	745.118	0	14.4	4	4.5	4	-1E+10	1	-1E+10	1	-1E+10	1	-1E+10	1	-1E+10	1	-1E+10	1
4902551	83	C	11/29/2022	15:03	-131.536	48.173	0	757.70	0	3.6420	0	34.2460	0	27.228	0	749.959	0	14.2	4	4.5	4	-1E+10	1	-1E+10	1	-1E+10	1	-1E+10	1	-1E+10	1	-1E+10	1
4902551	83	C	11/29/2022	15:03	-131.536	48.173	0	762.70	0	3.6290	0	34.2500	0	27.232	0	754.899	0	14.1	4	4.4	4	-1E+10	1	-1E+10	1	-1E+10	1	-1E+10	1	-1E+10	1	-1E+10	1
4902551	83	C	11/29/2022	15:03	-131.536	48.173	0	767.80	0	3.6240	0	34.2520	0	27.234	0	759.937	0	14.1	4	4.4	4	-1E+10	1	-1E+10	1	-1E+10	1	-1E+10	1	-1E+10	1	-1E+10	1
4902551	83	C	11/29/2022	15:03	-131.536	48.173	0	772.90	0	3.6180	0	34.2530	0	27.236	0	764.976	0	14.0	4	4.4	4	-1E+10	1	-1E+10	1	-1E+10	1	-1E+10	1	-1E+10	1	-1E+10	1
4902551	83	C	11/29/2022	15:03	-131.536	48.173	0	777.90	0	3.6090	0	34.2550	0	27.238	0	769.915	0	13.9	4	4.4	4	-1E+10	1	-1E+10	1	-1E+10	1	-1E+10	1	-1E+10	1	-1E+10	1
4902551	83	C	11/29/2022	15:03	-131.536	48.173	0	783.00	0	3.6050	0	34.2560	0	27.240	0	774.954	0	13.8	4	4.3	4	-1E+10	1	-1E+10	1	-1E+10	1	-1E+10	1	-1E+10	1	-1E+10	1
4902551	83	C	11/29/2022	15:03	-131.536	48.173	0	787.70	0	3.5980	0	34.2580	0	27.242	0	779.597	0	13.8	4	4.3	4	-1E+10	1	-1E+10	1	-1E+10	1	-1E+10	1	-1E+10	1	-1E+10	1
4902551	83	C	11/29/2022	15:03	-131.536	48.173	0	793.00	0	3.5790	0	34.2610	0	27.246	0	784.832	0	13.7	4	4.3	4	-1E+10	1	-1E+10	1	-1E+10	1	-1E+10	1	-1E+10	1	-1E+10	1
4902551	83	C	11/29/2022	15:03	-131.536	48.173	0	798.30	0	3.5670	0	34.2630	0	27.249	0	790.067	0	13.6	4	4.2	4	-1E+10	1	-1E+10	1	-1E+10	1	-1E+10	1	-1E+10	1	-1E+10	1
4902551	83	C	11/29/2022	15:03	-131.536	48.173	0	803.20	0	3.5410	0	34.2680	0	27.255	0	794.908	0	13.3	4	4.1	4	-1E+10	1	-1E+10	1	-1E+10	1	-1E+10	1	-1E+10	1	-1E+10	1
4902551	83	C	11/29/2022	15:03	-131.536	48.173	0	808.10	0	3.5410	0	34.2730	0	27.259	0	799.748	0	13.0	4	4.1	4	-1E+10	1	-1E+10	1	-1E+10	1	-1E+10	1	-1E+10	1	-1E+10	1
4902551	83	C	11/29/2022	15:03	-131.536	48.173	0	813.10	0	3.5320	0	34.2770	0	27.264	0	804.686	0	13.0	4	4.1	4	-1E+10	1	-1E+10	1	-1E+10	1	-1E+10	1	-1E+10	1	-1E+10	1
4902551	83	C	11/29/2022	15:03	-131.536	48.173	0	818.10	0	3.5150	0	34.2800	0	27.268	0	809.625	0	13.0	4	4.1	4	-1E+10	1	-1E+10	1	-1E+10	1	-1E+10	1	-1E+10	1	-1E+10	1
4902551	83	C	11/29/2022	15:03	-131.536	48.173	0	823.10	0	3.5000	0	34.2820	0	27.271	0	814.563	0	13.1	4	4.1	4	-1E+10	1	-1E+10	1	-1E+10	1	-1E+10	1	-1E+10	1	-1E+10	1
4902551	83	C	11/29/2022	15:03	-131.536	48.173	0	828.20	0	3.4690	0	34.2840	0	27.275	0	819.601	0	12.9	4	4.0	4	-1E+10	1	-1E+10	1	-1E+10	1	-1E+10	1	-1E+10	1	-1E+10	1
4902551	83	C	11/29/2022	15:03	-131.536	48.173	0	832.80	0	3.4620	0	34.2870	0	27.278	0	824.144	0	12.7	4	4.0	4	-1E+10	1	-1E+10	1	-1E+10	1	-1E+10	1	-1E+10	1	-1E+10	1
4902551	83	C	11/29/2022	15:03	-131.536	48.173	0	837.90	0	3.4550	0	34.2920	0	27.283	0	829.181	0	12.5	4	3.9	4	-1E+10	1	-1E+10	1	-1E+10	1	-1E+10	1	-1E+10	1	-1E+10	1
4902551	83	C	11/29/2022	15:03	-131.536	48.173	0	843.10	0	3.4450	0	34.2970	0	27.288	0	834.316	0	12.4	4	3.9	4	-1E+10	1	-1E+10	1	-1E+10	1	-1E+10	1	-1E+10	1	-1E+10	1
4902551	83	C	11/29/2022	15:03	-131.536	48.173	0	848.00	0	3.4390	0	34.2980	0	27.289	0	839.155	0	12.2	4	3.8	4	-1E+10	1	-1E+10	1	-1E+10	1	-1E+10	1	-1E+10	1	-1E+10	1
4902551	83	C	11/29/2022	15:03	-131.536	48.173	0	853.10	0	3.4330	0	34.3010	0	27.292	0	844.192	0	12.1	4	3.8	4	-1E+10	1	-1E+10	1	-1E+10	1	-1E+10	1	-1E+10	1	-1E+10	1
4902551	83	C	11/29/2022	15:03	-131.536	48.173	0	857.90	0	3.4310	0	34.3030	0	27.294	0	848.932	0	12.1	4	3.8	4	-1E+10	1	-1E+10	1	-1E+10	1	-1E+10	1	-1E+10	1	-1E+10	1
4902551	83	C	11/29/2022	15:03	-131.536	48.173	0	862.80	0	3.4250	0	34.3040	0	27.296	0	853.771	0	12.1	4	3.8	4	-1E+10	1	-1E+10	1	-1E+10	1	-1E+10	1	-1E+10	1	-1E+10	1
4902551	83	C	11/29/2022	15:03	-131.536	48.173	0	867.70	0	3.4160	0	34.3060	0	27.298	0	858.609	0	12.0	4	3.7	4	-1E+10	1	-1E+10	1	-1E+10	1	-1E+10	1	-1E+10	1	-1E+10	1
4902551	83	C	11/29/2022	15:03	-131.536	48.173	0	872.70	0	3.4110	0	34.3070	0	27.299	0	863.547	0	12.0	4	3.7	4	-1E+10	1	-1E+10	1	-1E+10	1	-1E+10	1	-1E+10	1	-1E+10	1
4902551	83	C	11/29/2022	15:03	-131.536	48.173	0	877.70	0	3.4080	0	34.3080	0	27.300	0	868.484	0	12.0	4	3.7	4	-1E+10	1	-1E+10	1	-1E+10	1	-1E+10	1	-1E+10	1	-1E+10	1
4902551	83	C	11/29/2022	15:03	-131.536	48.173	0	882.70	0	3.4010	0	34.3100	0	27.303	0	873.421	0	11.9	4	3.7	4	-1E+10	1	-1E+10	1	-1E+10	1	-1E+10	1	-1E+10	1	-1E+10	1
4902551	83	C	11/29/2022	15:03	-131.536	48.173	0	887.80	0	3.3800	0	34.3140	0	27.308	0	878.456	0	11.9	4	3.7	4	-1E+10	1	-1E+10	1	-1E+10	1	-1E+10	1	-1E+10	1	-1E+10	1
4902551	83	C	11/29/2022	15:03	-131.536	48.173	0	893.00	0	3.3750	0	34.3150	0	27.309	0	883.591	0	11.9	4	3.7	4	-1E+10	1	-1E+10	1	-1E+10	1	-1E+10	1	-1E+10	1	-1E+10	1
4902551	83	C	11/29/2022	15:03	-131.536	48.173	0	898.30	0	3.3670	0	34.3170	0	27.312	0	888.824	0	11.9	4	3.7	4	-1E+10	1	-1E+10	1	-1E+10	1	-1E+10	1	-1E+10	1	-1E+10	1
4902551	83	C	11/29/2022	15:03	-131.536	48.173	0	903.10	0	3.3540	0	34.3200	0	27.315	0	893.563	0	11.8	4	3.7	4	-1E+10	1	-1E+10	1	-1E+10	1	-1E+10	1	-1E+10	1	-1E+10	1
4902551	83	C	11/29/2022	15:03	-131.536	48.173	0	907.80	0	3.3490	0	34.3200	0	27.316	0	898.203	0	11.8	4	3.7	4	-1E+10	1	-1E+10	1	-1E+10	1	-1E+10	1	-1E+10	1	-1E+10	1
4902551	83	C	11/29/2022	15:03	-131.536	48.173	0	912.60	0	3.3400	0	34.3220	0	27.318	0	902.942	0	11.8	4	3.7	4	-1E+10	1	-1E+10	1	-1E+10	1	-1E+10	1	-1E+10	1	-1E+10	1
4902551	83	C	11/29/2022	15:03	-131.536	48.173	0	917.50	0	3.3310	0	34.3240	0	27.321	0	907.780	0	11.8	4	3.7	4	-1E+10	1	-1E+10	1	-1E+10	1	-1E+10	1	-1E+10	1	-1E+10	1
4902551	83	C	11/29/2022	15:03	-131.536	48.173	0	922.50	0	3.3180	0	34.3260	0	27.324	0	912.716	0	11.8	4	3.7	4	-1E+10	1	-1E+10	1	-1E+10	1	-1E+10	1	-1E+10	1	-1E+10	1
4902551	83	C	11/29/2022	15:03	-131.536	48.173	0	927.60	0	3.3050	0	34.3290	0	27.327	0	917.750	0	11.8	4	3.7	4	-1E+10	1	-1E+10	1	-1E+10	1	-1E+10	1	-1E+10	1	-1E+10	1
4902551	83	C	11/29/2022	15:03	-131.536	48.173	0	932.70	0	3.2910	0	34.3320	0	27.331	0	922.785	0	11.7	4	3.6	4	-1E+10	1	-1E+10	1	-1E+10	1	-1E+10	1	-1E+10	1	-1E+10	1
4902551	83	C	11/29/2022	15:03	-131.536	48.173	0	937.90	0	3.2800	0	34.3350	0	27.334	0	927.918	0	11.7	4	3.6	4	-1E+10	1	-1E+10	1	-1E+10	1	-1E+10	1	-1E+10	1	-1E+10	1
4902551	83	C	11/29/2022	15:03	-131.536	48.173	0	943.10	0	3.2700	0	34.3370	0	27.337	0	933.051	0	11.7	4	3.6	4	-1E+10	1	-1E+10	1	-1E+10	1	-1E+10	1	-1E+10	1	-1E+10	1
4902551	83	C	11/29/2022	15:03	-131.536	48.173	0	948.30	0	3.2620	0	34.3390	0	27.339	0	938.184	0	11.7	4	3.6	4	-1E+10	1	-1E+10	1	-1E+10	1	-1E+10	1	-1E+10	1	-1E+10	1
4902551	83	C	11/29/2022	15:03	-131.536	48.173	0	953.10	0	3.2600	0	34.3400	0	27.340	0	942.922	0	11.7	4	3.6	4	-1E+10	1	-1E+10	1	-1E+10	1	-1E+10	1	-1E+10	1	-1E+10	1
4902551	83	C	11/29/2022	15:03	-131.536	48.173	0	957.80	0	3.2560	0	34.3410	0	27.342	0	947.561	0	11.7	4	3.6	4	-1E+10	1	-1E+10	1	-1E+10	1	-1E+10	1	-1E+10	1	-1E+10	1
4902551	83	C	11/29/2022	15:03	-131.536	48.173	0	963.10	0	3.2470	0	34.3430	0	27.344	0	952.793	0	11.7	4	3.6	4	-1E+10	1	-1E+10	1	-1E+10	1	-1E+10	1	-1E+10	1	-1E+10	1
4902551	83	C	11/29/2022	15:03	-131.536	48.173	0	967.80	0	3.2360	0	34.3440	0	27.346	0	957.432	0	11.7	4	3.6	4	-1E+10	1	-1E+10	1	-1E+10	1	-1E+10	1	-1E+10	1	-1E+10	1
4902551	83	C	11/29/2022	15:03	-131.536	48.173	0	972.50	0	3.2260	0	34.3460	0	27.348	0	962.071	0	11.7	4	3.6	4	-1E+10	1	-1E+10	1	-1E+10	1	-1E+10	1	-1E+10	1	-1E+10	1
4902551	83	C	11/29/2022	15:03	-131.536	48.173	0	977.80	0	3.2150	0	34.3480	0	27.351	0	967.301	0	11.7	4	3.6	4	-1E+10	1	-1E+10	1	-1E+10	1	-1E+10	1	-1E+10	1	-1E+10	1
4902551	83	C	11/29/2022	15:03	-131.536	48.173	0	983.00	0	3.2100	0	34.3500	0	27.353	0	972.434	0	11.7	4	3.6	4	-1E+10	1	-1E+10	1	-1E+10	1	-1E+10	1	-1E+10	1	-1E+10	1
4902551	83	C	11/29/2022	15:03	-131.536	48.173	0	987.90	0	3.2020	0	34.3510	0	27.355	0	977.269	0	11.7	4	3.6	4	-1E+10	1	-1E+10	1	-1E+10	1	-1E+10	1	-1E+10	1	-1E+10	1
4902551	83	C	11/29/2022	15:03	-131.536	48.173	0	992.60	0	3.1960	0	34.3530	0	27.357	0	981.908	0	11.7	4	3.6	4	-1E+10	1	-1E+10	1	-1E+10	1	-1E+10	1	-1E+10	1	-1E+10	1
4902551	83	C	11/29/2022	15:03	-131.536	48.173	0	997.90	0	3.1840	0	34.3550	0	27.360	0	987.138	0	11.7	4	3.6	4	-1E+10	1	-1E+10	1	-1E+10	1	-1E+10	1	-1E+10	1	-1E+10	1
4902551	83	C	11/29/2022	15:03	-131.536	48.173	0	1005.40	0	3.1640	0	34.3580	0	27.364	0	994.540	0	11.7	4	3.6	4	-1E+10	1	-1E+10	1	-1E+10	1	-1E+10	1	-1E+10	1	-1E+10	1
4902551	83	C	11/29/2022	15:03	-131.536	48.173	0	1015.10	0	3.1430	0	34.3620	0	27.369	0	1004.112	0	11.7	4	3.6	4	-1E+10	1	-1E+10	1	-1E+10	1	-1E+10	1	-1E+10	1	-1E+10	1
4902551	83	C	11/29/2022	15:03	-131.536	48.173	0	1025.40	0	3.1150	0	34.3670	0	27.376	0	1014.275	0	11.8	4	3.6	4	-1E+10	1	-1E+10	1	-1E+10	1	-1E+10	1	-1E+10	1	-1E+10	1
4902551	83	C	11/29/2022	15:03	-131.536	48.173	0	1035.70	0	3.0980	0	34.3710	0	27.381	0	1024.438	0	11.8	4	3.6	4	-1E+10	1	-1E+10	1	-1E+10	1	-1E+10	1	-1E+10	1	-1E+10	1
4902551	83	C	11/29/2022	15:03	-131.536	48.173	0	1045.50	0	3.0850	0	34.3730	0	27.383	0	1034.108	0	11.9	4	3.7	4	-1E+10	1	-1E+10	1	-1E+10	1	-1E+10	1	-1E+10	1	-1E+10	1
4902551	83	C	11/29/2022	15:03	-131.536	48.173	0	1055.30	0	3.0700	0	34.3760	0	27.387	0	1043.777	0	11.9	4	3.7	4	-1E+10	1	-1E+10	1	-1E+10	1	-1E+10	1	-1E+10	1	-1E+10	1
4902551	83	C	11/29/2022	15:03	-131.536	48.173	0	1065.00	0	3.0500	0	34.3800	0	27.392	0	1053.346	0	12.0	4	3.7	4	-1E+10	1	-1E+10	1	-1E+10	1	-1E+10	1	-1E+10	1	-1E+10	1
4902551	83	C	11/29/2022	15:03	-131.536	48.173	0	1075.20	0	3.0230	0	34.3860	0	27.400	0	1063.409	0	12.1	4	3.7	4	-1E+10	1	-1E+10	1	-1E+10	1	-1E+10	1	-1E+10	1	-1E+10	1
4902551	83	C	11/29/2022	15:03	-131.536	48.173	0	1085.20	0	2.9900	0	34.3920	0	27.407	0	1073.273	0	12.2	4	3.8	4	-1E+10	1	-1E+10	1	-1E+10	1	-1E+10	1	-1E+10	1	-1E+10	1
4902551	83	C	11/29/2022	15:03	-131.536	48.173	0	1095.20	0	2.9660	0	34.3960	0	27.413	0	1083.138	0	12.3	4	3.8	4	-1E+10	1	-1E+10	1	-1E+10	1	-1E+10	1	-1E+10	1	-1E+10	1
4902551	83	C	11/29/2022	15:03	-131.536	48.173	0	1105.60	0	2.9430	0	34.4000	0	27.418	0	1093.396	0	12.5	4	3.8	4	-1E+10	1	-1E+10	1	-1E+10	1	-1E+10	1	-1E+10	1	-1E+10	1
4902551	83	C	11/29/2022	15:03	-131.536	48.173	0	1116.00	0	2.9230	0	34.4040	0	27.423	0	1103.654	0	12.7	4	3.9	4	-1E+10	1	-1E+10	1	-1E+10	1	-1E+10	1	-1E+10	1	-1E+10	1
4902551	83	C	11/29/2022	15:03	-131.536	48.173	0	1125.50	0	2.9000	0	34.4090	0	27.429	0	1113.024	0	12.8	4	3.9	4	-1E+10	1	-1E+10	1	-1E+10	1	-1E+10	1	-1E+10	1	-1E+10	1
4902551	83	C	11/29/2022	15:03	-131.536	48.173	0	1135.60	0	2.8770	0	34.4120	0	27.434	0	1122.985	0	12.9	4	4.0	4	-1E+10	1	-1E+10	1	-1E+10	1	-1E+10	1	-1E+10	1	-1E+10	1
4902551	83	C	11/29/2022	15:03	-131.536	48.173	0	1145.70	0	2.8560	0	34.4150	0	27.438	0	1132.945	0	13.0	4	4.0	4	-1E+10	1	-1E+10	1	-1E+10	1	-1E+10	1	-1E+10	1	-1E+10	1
4902551	83	C	11/29/2022	15:03	-131.536	48.173	0	1155.50	0	2.8420	0	34.4170	0	27.441	0	1142.610	0	13.1	4	4.0	4	-1E+10	1	-1E+10	1	-1E+10	1	-1E+10	1	-1E+10	1	-1E+10	1
4902551	83	C	11/29/2022	15:03	-131.536	48.173	0	1165.40	0	2.8180	0	34.4210	0	27.446	0	1152.372	0	13.3	4	4.1	4	-1E+10	1	-1E+10	1	-1E+10	1	-1E+10	1	-1E+10	1	-1E+10	1
4902551	83	C	11/29/2022	15:03	-131.536	48.173	0	1175.50	0	2.8070	0	34.4230	0	27.449	0	1162.331	0	13.4	4	4.1	4	-1E+10	1	-1E+10	1	-1E+10	1	-1E+10	1	-1E+10	1	-1E+10	1
4902551	83	C	11/29/2022	15:03	-131.536	48.173	0	1185.30	0	2.7950	0	34.4250	0	27.452	0	1171.994	0	13.5	4	4.2	4	-1E+10	1	-1E+10	1	-1E+10	1	-1E+10	1	-1E+10	1	-1E+10	1
4902551	83	C	11/29/2022	15:03	-131.536	48.173	0	1195.20	0	2.7830	0	34.4270	0	27.454	0	1181.755	0	13.7	4	4.2	4	-1E+10	1	-1E+10	1	-1E+10	1	-1E+10	1	-1E+10	1	-1E+10	1
4902551	83	C	11/29/2022	15:03	-131.536	48.173	0	1205.40	0	2.7710	0	34.4300	0	27.458	0	1191.812	0	13.8	4	4.2	4	-1E+10	1	-1E+10	1	-1E+10	1	-1E+10	1	-1E+10	1	-1E+10	1
4902551	83	C	11/29/2022	15:03	-131.536	48.173	0	1215.60	0	2.7630	0	34.4310	0	27.459	0	1201.868	0	14.0	4	4.3	4	-1E+10	1	-1E+10	1	-1E+10	1	-1E+10	1	-1E+10	1	-1E+10	1
4902551	83	C	11/29/2022	15:03	-131.536	48.173	0	1225.40	0	2.7540	0	34.4330	0	27.462	0	1211.529	0	14.1	4	4.3	4	-1E+10	1	-1E+10	1	-1E+10	1	-1E+10	1	-1E+10	1	-1E+10	1
4902551	83	C	11/29/2022	15:03	-131.536	48.173	0	1235.10	0	2.7480	0	34.4340	0	27.463	0	1221.091	0	14.3	4	4.4	4	-1E+10	1	-1E+10	1	-1E+10	1	-1E+10	1	-1E+10	1	-1E+10	1
4902551	83	C	11/29/2022	15:03	-131.536	48.173	0	1245.00	0	2.7370	0	34.4370	0	27.467	0	1230.850	0	14.5	4	4.4	4	-1E+10	1	-1E+10	1	-1E+10	1	-1E+10	1	-1E+10	1	-1E+10	1
4902551	83	C	11/29/2022	15:03	-131.536	48.173	0	1255.10	0	2.7260	0	34.4390	0	27.469	0	1240.805	0	14.6	4	4.5	4	-1E+10	1	-1E+10	1	-1E+10	1	-1E+10	1	-1E+10	1	-1E+10	1
4902551	83	C	11/29/2022	15:03	-131.536	48.173	0	1265.40	0	2.7200	0	34.4400	0	27.471	0	1250.957	0	14.8	4	4.5	4	-1E+10	1	-1E+10	1	-1E+10	1	-1E+10	1	-1E+10	1	-1E+10	1
4902551	83	C	11/29/2022	15:03	-131.536	48.173	0	1275.30	0	2.7120	0	34.4420	0	27.473	0	1260.714	0	15.0	4	4.6	4	-1E+10	1	-1E+10	1	-1E+10	1	-1E+10	1	-1E+10	1	-1E+10	1
4902551	83	C	11/29/2022	15:03	-131.536	48.173	0	1285.30	0	2.6980	0	34.4440	0	27.476	0	1270.570	0	15.2	4	4.7	4	-1E+10	1	-1E+10	1	-1E+10	1	-1E+10	1	-1E+10	1	-1E+10	1
4902551	83	C	11/29/2022	15:03	-131.536	48.173	0	1295.60	0	2.6830	0	34.4470	0	27.480	0	1280.721	0	15.5	4	4.7	4	-1E+10	1	-1E+10	1	-1E+10	1	-1E+10	1	-1E+10	1	-1E+10	1
4902551	83	C	11/29/2022	15:03	-131.536	48.173	0	1305.60	0	2.6730	0	34.4490	0	27.482	0	1290.575	0	15.7	4	4.8	4	-1E+10	1	-1E+10	1	-1E+10	1	-1E+10	1	-1E+10	1	-1E+10	1
4902551	83	C	11/29/2022	15:03	-131.536	48.173	0	1315.30	0	2.6520	0	34.4520	0	27.486	0	1300.134	0	16.0	4	4.9	4	-1E+10	1	-1E+10	1	-1E+10	1	-1E+10	1	-1E+10	1	-1E+10	1
4902551	83	C	11/29/2022	15:03	-131.536	48.173	0	1325.30	0	2.6360	0	34.4550	0	27.490	0	1309.987	0	16.4	4	5.0	4	-1E+10	1	-1E+10	1	-1E+10	1	-1E+10	1	-1E+10	1	-1E+10	1
4902551	83	C	11/29/2022	15:03	-131.536	48.173	0	1335.70	0	2.6180	0	34.4590	0	27.495	0	1320.234	0	16.9	4	5.2	4	-1E+10	1	-1E+10	1	-1E+10	1	-1E+10	1	-1E+10	1	-1E+10	1
4902551	83	C	11/29/2022	15:03	-131.536	48.173	0	1345.40	0	2.6050	0	34.4620	0	27.499	0	1329.792	0	17.2	4	5.3	4	-1E+10	1	-1E+10	1	-1E+10	1	-1E+10	1	-1E+10	1	-1E+10	1
4902551	83	C	11/29/2022	15:03	-131.536	48.173	0	1355.10	0	2.5920	0	34.4640	0	27.501	0	1339.348	0	17.5	4	5.4	4	-1E+10	1	-1E+10	1	-1E+10	1	-1E+10	1	-1E+10	1	-1E+10	1
4902551	83	C	11/29/2022	15:03	-131.536	48.173	0	1365.40	0	2.5730	0	34.4670	0	27.505	0	1349.496	0	18.1	4	5.5	4	-1E+10	1	-1E+10	1	-1E+10	1	-1E+10	1	-1E+10	1	-1E+10	1
4902551	83	C	11/29/2022	15:03	-131.536	48.173	0	1375.60	0	2.5530	0	34.4710	0	27.510	0	1359.544	0	18.7	4	5.7	4	-1E+10	1	-1E+10	1	-1E+10	1	-1E+10	1	-1E+10	1	-1E+10	1
4902551	83	C	11/29/2022	15:03	-131.536	48.173	0	1385.70	0	2.5420	0	34.4740	0	27.514	0	1369.493	0	19.2	4	5.9	4	-1E+10	1	-1E+10	1	-1E+10	1	-1E+10	1	-1E+10	1	-1E+10	1
4902551	83	C	11/29/2022	15:03	-131.536	48.173	0	1395.50	0	2.5330	0	34.4760	0	27.516	0	1379.147	0	19.7	4	6.0	4	-1E+10	1	-1E+10	1	-1E+10	1	-1E+10	1	-1E+10	1	-1E+10	1
4902551	83	C	11/29/2022	15:03	-131.536	48.173	0	1405.40	0	2.5180	0	34.4790	0	27.520	0	1388.898	0	20.2	4	6.2	4	-1E+10	1	-1E+10	1	-1E+10	1	-1E+10	1	-1E+10	1	-1E+10	1
4902551	83	C	11/29/2022	15:03	-131.536	48.173	0	1415.60	0	2.4960	0	34.4820	0	27.524	0	1398.944	0	20.9	4	6.4	4	-1E+10	1	-1E+10	1	-1E+10	1	-1E+10	1	-1E+10	1	-1E+10	1
4902551	83	C	11/29/2022	15:03	-131.536	48.173	0	1425.70	0	2.4810	0	34.4860	0	27.529	0	1408.892	0	21.5	4	6.6	4	-1E+10	1	-1E+10	1	-1E+10	1	-1E+10	1	-1E+10	1	-1E+10	1
4902551	83	C	11/29/2022	15:03	-131.536	48.173	0	1435.60	0	2.4690	0	34.4880	0	27.531	0	1418.642	0	22.2	4	6.8	4	-1E+10	1	-1E+10	1	-1E+10	1	-1E+10	1	-1E+10	1	-1E+10	1
4902551	83	C	11/29/2022	15:03	-131.536	48.173	0	1445.40	0	2.4560	0	34.4910	0	27.535	0	1428.293	0	22.9	4	7.0	4	-1E+10	1	-1E+10	1	-1E+10	1	-1E+10	1	-1E+10	1	-1E+10	1
4902551	83	C	11/29/2022	15:03	-131.536	48.173	0	1455.50	0	2.4380	0	34.4940	0	27.539	0	1438.239	0	23.6	4	7.2	4	-1E+10	1	-1E+10	1	-1E+10	1	-1E+10	1	-1E+10	1	-1E+10	1
4902551	83	C	11/29/2022	15:03	-131.536	48.173	0	1465.40	0	2.4240	0	34.4970	0	27.542	0	1447.988	0	24.1	4	7.3	4	-1E+10	1	-1E+10	1	-1E+10	1	-1E+10	1	-1E+10	1	-1E+10	1
4902551	83	C	11/29/2022	15:03	-131.536	48.173	0	1475.60	0	2.4120	0	34.4980	0	27.544	0	1458.031	0	24.3	4	7.4	4	-1E+10	1	-1E+10	1	-1E+10	1	-1E+10	1	-1E+10	1	-1E+10	1
4902551	83	C	11/29/2022	15:03	-131.536	48.173	0	1485.70	0	2.4070	0	34.4990	0	27.546	0	1467.976	0	24.6	4	7.5	4	-1E+10	1	-1E+10	1	-1E+10	1	-1E+10	1	-1E+10	1	-1E+10	1
4902551	83	C	11/29/2022	15:03	-131.536	48.173	0	1495.40	0	2.4020	0	34.5010	0	27.548	0	1477.527	0	25.1	4	7.7	4	-1E+10	1	-1E+10	1	-1E+10	1	-1E+10	1	-1E+10	1	-1E+10	1
4902551	83	C	11/29/2022	15:03	-131.536	48.173	0	1505.20	0	2.3900	0	34.5030	0	27.550	0	1487.175	0	25.8	4	7.8	4	-1E+10	1	-1E+10	1	-1E+10	1	-1E+10	1	-1E+10	1	-1E+10	1
4902551	83	C	11/29/2022	15:03	-131.536	48.173	0	1515.20	0	2.3760	0	34.5050	0	27.553	0	1497.020	0	26.2	4	8.0	4	-1E+10	1	-1E+10	1	-1E+10	1	-1E+10	1	-1E+10	1	-1E+10	1
4902551	83	C	11/29/2022	15:03	-131.536	48.173	0	1525.30	0	2.3670	0	34.5070	0	27.555	0	1506.963	0	26.6	4	8.1	4	-1E+10	1	-1E+10	1	-1E+10	1	-1E+10	1	-1E+10	1	-1E+10	1
4902551	83	C	11/29/2022	15:03	-131.536	48.173	0	1535.70	0	2.3560	0	34.5090	0	27.558	0	1517.200	0	27.2	4	8.3	4	-1E+10	1	-1E+10	1	-1E+10	1	-1E+10	1	-1E+10	1	-1E+10	1
4902551	83	C	11/29/2022	15:03	-131.536	48.173	0	1545.60	0	2.3440	0	34.5110	0	27.561	0	1526.945	0	27.8	4	8.5	4	-1E+10	1	-1E+10	1	-1E+10	1	-1E+10	1	-1E+10	1	-1E+10	1
4902551	83	C	11/29/2022	15:03	-131.536	48.173	0	1555.70	0	2.3340	0	34.5130	0	27.563	0	1536.887	0	28.4	4	8.6	4	-1E+10	1	-1E+10	1	-1E+10	1	-1E+10	1	-1E+10	1	-1E+10	1
4902551	83	C	11/29/2022	15:03	-131.536	48.173	0	1565.50	0	2.3230	0	34.5150	0	27.566	0	1546.532	0	28.8	4	8.8	4	-1E+10	1	-1E+10	1	-1E+10	1	-1E+10	1	-1E+10	1	-1E+10	1
4902551	83	C	11/29/2022	15:03	-131.536	48.173	0	1575.40	0	2.3110	0	34.5170	0	27.568	0	1556.276	0	29.6	4	9.0	4	-1E+10	1	-1E+10	1	-1E+10	1	-1E+10	1	-1E+10	1	-1E+10	1
4902551	83	C	11/29/2022	15:03	-131.536	48.173	0	1585.60	0	2.2930	0	34.5200	0	27.572	0	1566.315	0	30.4	4	9.2	4	-1E+10	1	-1E+10	1	-1E+10	1	-1E+10	1	-1E+10	1	-1E+10	1
4902551	83	C	11/29/2022	15:03	-131.536	48.173	0	1595.60	0	2.2800	0	34.5220	0	27.575	0	1576.156	0	31.1	4	9.4	4	-1E+10	1	-1E+10	1	-1E+10	1	-1E+10	1	-1E+10	1	-1E+10	1
4902551	83	C	11/29/2022	15:03	-131.536	48.173	0	1605.70	0	2.2640	0	34.5250	0	27.579	0	1586.095	0	31.9	4	9.7	4	-1E+10	1	-1E+10	1	-1E+10	1	-1E+10	1	-1E+10	1	-1E+10	1
4902551	83	C	11/29/2022	15:03	-131.536	48.173	0	1615.40	0	2.2520	0	34.5270	0	27.581	0	1595.640	0	32.6	4	9.9	4	-1E+10	1	-1E+10	1	-1E+10	1	-1E+10	1	-1E+10	1	-1E+10	1
4902551	83	C	11/29/2022	15:03	-131.536	48.173	0	1625.20	0	2.2350	0	34.5290	0	27.584	0	1605.283	0	33.2	4	10.1	4	-1E+10	1	-1E+10	1	-1E+10	1	-1E+10	1	-1E+10	1	-1E+10	1
4902551	83	C	11/29/2022	15:03	-131.536	48.173	0	1635.20	0	2.2250	0	34.5320	0	27.588	0	1615.122	0	33.7	4	10.2	4	-1E+10	1	-1E+10	1	-1E+10	1	-1E+10	1	-1E+10	1	-1E+10	1
4902551	83	C	11/29/2022	15:03	-131.536	48.173	0	1645.20	0	2.2150	0	34.5330	0	27.589	0	1624.961	0	34.3	4	10.4	4	-1E+10	1	-1E+10	1	-1E+10	1	-1E+10	1	-1E+10	1	-1E+10	1
4902551	83	C	11/29/2022	15:03	-131.536	48.173	0	1655.40	0	2.2060	0	34.5350	0	27.592	0	1634.996	0	34.9	4	10.6	4	-1E+10	1	-1E+10	1	-1E+10	1	-1E+10	1	-1E+10	1	-1E+10	1
4902551	83	C	11/29/2022	15:03	-131.536	48.173	0	1665.30	0	2.1990	0	34.5360	0	27.593	0	1644.736	0	35.2	4	10.7	4	-1E+10	1	-1E+10	1	-1E+10	1	-1E+10	1	-1E+10	1	-1E+10	1
4902551	83	C	11/29/2022	15:03	-131.536	48.173	0	1675.40	0	2.1900	0	34.5370	0	27.595	0	1654.672	0	35.9	4	10.9	4	-1E+10	1	-1E+10	1	-1E+10	1	-1E+10	1	-1E+10	1	-1E+10	1
4902551	83	C	11/29/2022	15:03	-131.536	48.173	0	1685.60	0	2.1770	0	34.5400	0	27.598	0	1664.705	0	36.5	4	11.0	4	-1E+10	1	-1E+10	1	-1E+10	1	-1E+10	1	-1E+10	1	-1E+10	1
4902551	83	C	11/29/2022	15:03	-131.536	48.173	0	1695.60	0	2.1690	0	34.5410	0	27.600	0	1674.542	0	37.1	4	11.2	4	-1E+10	1	-1E+10	1	-1E+10	1	-1E+10	1	-1E+10	1	-1E+10	1
4902551	83	C	11/29/2022	15:03	-131.536	48.173	0	1705.40	0	2.1620	0	34.5430	0	27.602	0	1684.182	0	37.7	4	11.4	4	-1E+10	1	-1E+10	1	-1E+10	1	-1E+10	1	-1E+10	1	-1E+10	1
4902551	83	C	11/29/2022	15:03	-131.536	48.173	0	1715.20	0	2.1500	0	34.5450	0	27.604	0	1693.820	0	38.5	4	11.6	4	-1E+10	1	-1E+10	1	-1E+10	1	-1E+10	1	-1E+10	1	-1E+10	1
4902551	83	C	11/29/2022	15:03	-131.536	48.173	0	1725.10	0	2.1380	0	34.5470	0	27.607	0	1703.557	0	39.2	4	11.9	4	-1E+10	1	-1E+10	1	-1E+10	1	-1E+10	1	-1E+10	1	-1E+10	1
4902551	83	C	11/29/2022	15:03	-131.536	48.173	0	1735.20	0	2.1260	0	34.5490	0	27.610	0	1713.490	0	39.8	4	12.0	4	-1E+10	1	-1E+10	1	-1E+10	1	-1E+10	1	-1E+10	1	-1E+10	1
4902551	83	C	11/29/2022	15:03	-131.536	48.173	0	1745.60	0	2.1210	0	34.5500	0	27.611	0	1723.718	0	40.1	4	12.1	4	-1E+10	1	-1E+10	1	-1E+10	1	-1E+10	1	-1E+10	1	-1E+10	1
4902551	83	C	11/29/2022	15:03	-131.536	48.173	0	1755.50	0	2.1110	0	34.5510	0	27.613	0	1733.454	0	40.4	4	12.2	4	-1E+10	1	-1E+10	1	-1E+10	1	-1E+10	1	-1E+10	1	-1E+10	1
4902551	83	C	11/29/2022	15:03	-131.536	48.173	0	1765.40	0	2.1030	0	34.5520	0	27.614	0	1743.189	0	40.9	4	12.4	4	-1E+10	1	-1E+10	1	-1E+10	1	-1E+10	1	-1E+10	1	-1E+10	1
4902551	83	C	11/29/2022	15:03	-131.536	48.173	0	1775.30	0	2.0950	0	34.5540	0	27.616	0	1752.923	0	41.3	4	12.5	4	-1E+10	1	-1E+10	1	-1E+10	1	-1E+10	1	-1E+10	1	-1E+10	1
4902551	83	C	11/29/2022	15:03	-131.536	48.173	0	1785.30	0	2.0880	0	34.5550	0	27.618	0	1762.756	0	42.1	4	12.7	4	-1E+10	1	-1E+10	1	-1E+10	1	-1E+10	1	-1E+10	1	-1E+10	1
4902551	83	C	11/29/2022	15:03	-131.536	48.173	0	1795.30	0	2.0780	0	34.5570	0	27.620	0	1772.588	0	42.9	4	13.0	4	-1E+10	1	-1E+10	1	-1E+10	1	-1E+10	1	-1E+10	1	-1E+10	1
4902551	83	C	11/29/2022	15:03	-131.536	48.173	0	1805.30	0	2.0710	0	34.5580	0	27.622	0	1782.419	0	43.4	4	13.1	4	-1E+10	1	-1E+10	1	-1E+10	1	-1E+10	1	-1E+10	1	-1E+10	1
4902551	83	C	11/29/2022	15:03	-131.536	48.173	0	1815.30	0	2.0620	0	34.5600	0	27.624	0	1792.250	0	44.0	4	13.3	4	-1E+10	1	-1E+10	1	-1E+10	1	-1E+10	1	-1E+10	1	-1E+10	1
4902551	83	C	11/29/2022	15:03	-131.536	48.173	0	1825.20	0	2.0540	0	34.5610	0	27.625	0	1801.983	0	44.6	4	13.5	4	-1E+10	1	-1E+10	1	-1E+10	1	-1E+10	1	-1E+10	1	-1E+10	1
4902551	83	C	11/29/2022	15:03	-131.536	48.173	0	1835.30	0	2.0440	0	34.5630	0	27.628	0	1811.911	0	45.3	4	13.7	4	-1E+10	1	-1E+10	1	-1E+10	1	-1E+10	1	-1E+10	1	-1E+10	1
4902551	83	C	11/29/2022	15:03	-131.536	48.173	0	1845.40	0	2.0360	0	34.5650	0	27.630	0	1821.839	0	46.2	4	13.9	4	-1E+10	1	-1E+10	1	-1E+10	1	-1E+10	1	-1E+10	1	-1E+10	1
4902551	83	C	11/29/2022	15:03	-131.536	48.173	0	1855.40	0	2.0250	0	34.5670	0	27.633	0	1831.669	0	46.9	4	14.2	4	-1E+10	1	-1E+10	1	-1E+10	1	-1E+10	1	-1E+10	1	-1E+10	1
4902551	83	C	11/29/2022	15:03	-131.536	48.173	0	1865.30	0	2.0160	0	34.5680	0	27.634	0	1841.399	0	47.7	4	14.4	4	-1E+10	1	-1E+10	1	-1E+10	1	-1E+10	1	-1E+10	1	-1E+10	1
4902551	83	C	11/29/2022	15:03	-131.536	48.173	0	1875.30	0	2.0100	0	34.5700	0	27.636	0	1851.227	0	48.5	4	14.6	4	-1E+10	1	-1E+10	1	-1E+10	1	-1E+10	1	-1E+10	1	-1E+10	1
4902551	83	C	11/29/2022	15:03	-131.536	48.173	0	1885.50	0	2.0000	0	34.5720	0	27.639	0	1861.252	0	49.3	4	14.8	4	-1E+10	1	-1E+10	1	-1E+10	1	-1E+10	1	-1E+10	1	-1E+10	1
4902551	83	C	11/29/2022	15:03	-131.536	48.173	0	1895.90	0	1.9910	0	34.5730	0	27.640	0	1871.472	0	49.8	4	15.0	4	-1E+10	1	-1E+10	1	-1E+10	1	-1E+10	1	-1E+10	1	-1E+10	1
4902551	83	C	11/29/2022	15:03	-131.536	48.173	0	1905.40	0	1.9840	0	34.5750	0	27.642	0	1880.808	0	50.4	4	15.2	4	-1E+10	1	-1E+10	1	-1E+10	1	-1E+10	1	-1E+10	1	-1E+10	1
4902551	83	C	11/29/2022	15:03	-131.536	48.173	0	1915.00	0	1.9770	0	34.5760	0	27.644	0	1890.242	0	50.9	4	15.3	4	-1E+10	1	-1E+10	1	-1E+10	1	-1E+10	1	-1E+10	1	-1E+10	1
4902551	83	C	11/29/2022	15:03	-131.536	48.173	0	1925.20	0	1.9720	0	34.5770	0	27.645	0	1900.264	0	51.3	4	15.5	4	-1E+10	1	-1E+10	1	-1E+10	1	-1E+10	1	-1E+10	1	-1E+10	1
4902551	83	C	11/29/2022	15:03	-131.536	48.173	0	1935.60	0	1.9680	0	34.5780	0	27.646	0	1910.483	0	51.9	4	15.6	4	-1E+10	1	-1E+10	1	-1E+10	1	-1E+10	1	-1E+10	1	-1E+10	1
4902551	83	C	11/29/2022	15:03	-131.536	48.173	0	1945.70	0	1.9600	0	34.5790	0	27.648	0	1920.406	0	52.4	4	15.8	4	-1E+10	1	-1E+10	1	-1E+10	1	-1E+10	1	-1E+10	1	-1E+10	1
4902551	83	C	11/29/2022	15:03	-131.536	48.173	0	1955.20	0	1.9540	0	34.5800	0	27.649	0	1929.740	0	52.8	4	15.9	4	-1E+10	1	-1E+10	1	-1E+10	1	-1E+10	1	-1E+10	1	-1E+10	1
4902551	83	C	11/29/2022	15:03	-131.536	48.173	0	1965.30	0	1.9470	0	34.5820	0	27.651	0	1939.662	0	53.3	4	16.1	4	-1E+10	1	-1E+10	1	-1E+10	1	-1E+10	1	-1E+10	1	-1E+10	1
4902551	83	C	11/29/2022	15:03	-131.536	48.173	0	1974.50	0	1.9400	0	34.5830	0	27.653	0	1948.700	0	53.6	4	16.1	4	-1E+10	1	-1E+10	1	-1E+10	1	-1E+10	1	-1E+10	1	-1E+10	1
4902551	83	C	11/29/2022	15:03	-131.536	48.173	0																										
4902551	84	C	12/09/2022	20:02	-131.495	48.160	0	0.20	0	10.4560	0	32.3180	0	24.782	0	0.198	0	256.9	4	92.7	4	-1E+10	1	-1E+10	1	-1E+10	1	-1E+10	1	-1E+10	1	-1E+10	1
4902551	84	C	12/09/2022	20:02	-131.495	48.160	0	0.50	0	10.4557	0	32.3167	0	24.781	0	0.496	0	-1e10	1	-1e10	1	-1E+10	1	-1E+10	1	-1E+10	1	-1E+10	1	-1E+10	1	-1E+10	1
4902551	84	C	12/09/2022	20:02	-131.495	48.160	0	0.70	0	10.4554	0	32.3158	0	24.781	0	0.694	0	-1e10	1	-1e10	1	-1E+10	1	-1E+10	1	-1E+10	1	-1E+10	1	-1E+10	1	-1E+10	1
4902551	84	C	12/09/2022	20:02	-131.495	48.160	0	1.10	0	10.4550	0	32.3140	0	24.779	0	1.091	0	256.7	4	92.6	4	-1E+10	1	-1E+10	1	-1E+10	1	-1E+10	1	-1E+10	1	-1E+10	1
4902551	84	C	12/09/2022	20:02	-131.495	48.160	0	1.90	0	10.4520	0	32.3170	0	24.782	0	1.884	0	256.8	4	92.6	4	-1E+10	1	-1E+10	1	-1E+10	1	-1E+10	1	-1E+10	1	-1E+10	1
4902551	84	C	12/09/2022	20:02	-131.495	48.160	0	3.00	0	10.4500	0	32.3170	0	24.783	0	2.975	0	256.8	4	92.6	4	-1E+10	1	-1E+10	1	-1E+10	1	-1E+10	1	-1E+10	1	-1E+10	1
4902551	84	C	12/09/2022	20:02	-131.495	48.160	0	3.90	0	10.4490	0	32.3190	0	24.784	0	3.867	0	256.7	4	92.6	4	-1E+10	1	-1E+10	1	-1E+10	1	-1E+10	1	-1E+10	1	-1E+10	1
4902551	84	C	12/09/2022	20:02	-131.495	48.160	0	5.00	0	10.4480	0	32.3210	0	24.786	0	4.958	0	256.7	4	92.6	4	-1E+10	1	-1E+10	1	-1E+10	1	-1E+10	1	-1E+10	1	-1E+10	1
4902551	84	C	12/09/2022	20:02	-131.495	48.160	0	5.90	0	10.4480	0	32.3210	0	24.786	0	5.850	0	256.6	4	92.6	4	-1E+10	1	-1E+10	1	-1E+10	1	-1E+10	1	-1E+10	1	-1E+10	1
4902551	84	C	12/09/2022	20:02	-131.495	48.160	0	7.00	0	10.4480	0	32.3210	0	24.786	0	6.941	0	256.7	4	92.6	4	-1E+10	1	-1E+10	1	-1E+10	1	-1E+10	1	-1E+10	1	-1E+10	1
4902551	84	C	12/09/2022	20:02	-131.495	48.160	0	8.00	0	10.4480	0	32.3210	0	24.786	0	7.933	0	256.7	4	92.6	4	-1E+10	1	-1E+10	1	-1E+10	1	-1E+10	1	-1E+10	1	-1E+10	1
4902551	84	C	12/09/2022	20:02	-131.495	48.160	0	8.90	0	10.4480	0	32.3210	0	24.786	0	8.825	0	256.6	4	92.6	4	-1E+10	1	-1E+10	1	-1E+10	1	-1E+10	1	-1E+10	1	-1E+10	1
4902551	84	C	12/09/2022	20:02	-131.495	48.160	0	9.80	0	10.4480	0	32.3210	0	24.786	0	9.717	0	256.6	4	92.6	4	-1E+10	1	-1E+10	1	-1E+10	1	-1E+10	1	-1E+10	1	-1E+10	1
4902551	84	C	12/09/2022	20:02	-131.495	48.160	0	10.90	0	10.4470	0	32.3210	0	24.786	0	10.808	0	256.5	4	92.5	4	-1E+10	1	-1E+10	1	-1E+10	1	-1E+10	1	-1E+10	1	-1E+10	1
4902551	84	C	12/09/2022	20:02	-131.495	48.160	0	11.90	0	10.4470	0	32.3200	0	24.786	0	11.800	0	256.7	4	92.6	4	-1E+10	1	-1E+10	1	-1E+10	1	-1E+10	1	-1E+10	1	-1E+10	1
4902551	84	C	12/09/2022	20:02	-131.495	48.160	0	12.90	0	10.4460	0	32.3210	0	24.787	0	12.791	0	256.6	4	92.5	4	-1E+10	1	-1E+10	1	-1E+10	1	-1E+10	1	-1E+10	1	-1E+10	1
4902551	84	C	12/09/2022	20:02	-131.495	48.160	0	13.90	0	10.4460	0	32.3210	0	24.787	0	13.783	0	256.6	4	92.5	4	-1E+10	1	-1E+10	1	-1E+10	1	-1E+10	1	-1E+10	1	-1E+10	1
4902551	84	C	12/09/2022	20:02	-131.495	48.160	0	14.80	0	10.4460	0	32.3210	0	24.787	0	14.675	0	256.5	4	92.5	4	-1E+10	1	-1E+10	1	-1E+10	1	-1E+10	1	-1E+10	1	-1E+10	1
4902551	84	C	12/09/2022	20:02	-131.495	48.160	0	15.90	0	10.4470	0	32.3210	0	24.786	0	15.766	0	256.5	4	92.5	4	-1E+10	1	-1E+10	1	-1E+10	1	-1E+10	1	-1E+10	1	-1E+10	1
4902551	84	C	12/09/2022	20:02	-131.495	48.160	0	16.80	0	10.4450	0	32.3210	0	24.787	0	16.658	0	256.5	4	92.5	4	-1E+10	1	-1E+10	1	-1E+10	1	-1E+10	1	-1E+10	1	-1E+10	1
4902551	84	C	12/09/2022	20:02	-131.495	48.160	0	17.90	0	10.4450	0	32.3210	0	24.787	0	17.749	0	256.4	4	92.5	4	-1E+10	1	-1E+10	1	-1E+10	1	-1E+10	1	-1E+10	1	-1E+10	1
4902551	84	C	12/09/2022	20:02	-131.495	48.160	0	18.90	0	10.4460	0	32.3220	0	24.787	0	18.740	0	256.4	4	92.5	4	-1E+10	1	-1E+10	1	-1E+10	1	-1E+10	1	-1E+10	1	-1E+10	1
4902551	84	C	12/09/2022	20:02	-131.495	48.160	0	19.90	0	10.4460	0	32.3210	0	24.787	0	19.732	0	256.4	4	92.5	4	-1E+10	1	-1E+10	1	-1E+10	1	-1E+10	1	-1E+10	1	-1E+10	1
4902551	84	C	12/09/2022	20:02	-131.495	48.160	0	20.90	0	10.4440	0	32.3210	0	24.787	0	20.723	0	256.4	4	92.5	4	-1E+10	1	-1E+10	1	-1E+10	1	-1E+10	1	-1E+10	1	-1E+10	1
4902551	84	C	12/09/2022	20:02	-131.495	48.160	0	21.90	0	10.4450	0	32.3220	0	24.788	0	21.715	0	256.4	4	92.5	4	-1E+10	1	-1E+10	1	-1E+10	1	-1E+10	1	-1E+10	1	-1E+10	1
4902551	84	C	12/09/2022	20:02	-131.495	48.160	0	22.80	0	10.4460	0	32.3210	0	24.787	0	22.607	0	256.4	4	92.5	4	-1E+10	1	-1E+10	1	-1E+10	1	-1E+10	1	-1E+10	1	-1E+10	1
4902551	84	C	12/09/2022	20:02	-131.495	48.160	0	24.10	0	10.4460	0	32.3210	0	24.787	0	23.896	0	256.4	4	92.5	4	-1E+10	1	-1E+10	1	-1E+10	1	-1E+10	1	-1E+10	1	-1E+10	1
4902551	84	C	12/09/2022	20:02	-131.495	48.160	0	25.00	0	10.4460	0	32.3220	0	24.788	0	24.788	0	256.4	4	92.5	4	-1E+10	1	-1E+10	1	-1E+10	1	-1E+10	1	-1E+10	1	-1E+10	1
4902551	84	C	12/09/2022	20:02	-131.495	48.160	0	25.80	0	10.4460	0	32.3210	0	24.787	0	25.582	0	256.4	4	92.5	4	-1E+10	1	-1E+10	1	-1E+10	1	-1E+10	1	-1E+10	1	-1E+10	1
4902551	84	C	12/09/2022	20:02	-131.495	48.160	0	26.90	0	10.4460	0	32.3210	0	24.787	0	26.672	0	256.4	4	92.5	4	-1E+10	1	-1E+10	1	-1E+10	1	-1E+10	1	-1E+10	1	-1E+10	1
4902551	84	C	12/09/2022	20:02	-131.495	48.160	0	28.00	0	10.4470	0	32.3220	0	24.787	0	27.763	0	256.4	4	92.5	4	-1E+10	1	-1E+10	1	-1E+10	1	-1E+10	1	-1E+10	1	-1E+10	1
4902551	84	C	12/09/2022	20:02	-131.495	48.160	0	29.10	0	10.4490	0	32.3210	0	24.786	0	28.853	0	256.4	4	92.5	4	-1E+10	1	-1E+10	1	-1E+10	1	-1E+10	1	-1E+10	1	-1E+10	1
4902551	84	C	12/09/2022	20:02	-131.495	48.160	0	30.00	0	10.4500	0	32.3210	0	24.786	0	29.746	0	256.3	4	92.4	4	-1E+10	1	-1E+10	1	-1E+10	1	-1E+10	1	-1E+10	1	-1E+10	1
4902551	84	C	12/09/2022	20:02	-131.495	48.160	0	30.80	0	10.4500	0	32.3210	0	24.786	0	30.539	0	256.3	4	92.5	4	-1E+10	1	-1E+10	1	-1E+10	1	-1E+10	1	-1E+10	1	-1E+10	1
4902551	84	C	12/09/2022	20:02	-131.495	48.160	0	31.90	0	10.4500	0	32.3210	0	24.786	0	31.629	0	256.4	4	92.5	4	-1E+10	1	-1E+10	1	-1E+10	1	-1E+10	1	-1E+10	1	-1E+10	1
4902551	84	C	12/09/2022	20:02	-131.495	48.160	0	32.90	0	10.4500	0	32.3220	0	24.787	0	32.621	0	256.4	4	92.5	4	-1E+10	1	-1E+10	1	-1E+10	1	-1E+10	1	-1E+10	1	-1E+10	1
4902551	84	C	12/09/2022	20:02	-131.495	48.160	0	33.80	0	10.4500	0	32.3210	0	24.786	0	33.513	0	256.3	4	92.5	4	-1E+10	1	-1E+10	1	-1E+10	1	-1E+10	1	-1E+10	1	-1E+10	1
4902551	84	C	12/09/2022	20:02	-131.495	48.160	0	34.90	0	10.4500	0	32.3220	0	24.787	0	34.604	0	256.4	4	92.5	4	-1E+10	1	-1E+10	1	-1E+10	1	-1E+10	1	-1E+10	1	-1E+10	1
4902551	84	C	12/09/2022	20:02	-131.495	48.160	0	35.90	0	10.4500	0	32.3220	0	24.787	0	35.595	0	256.3	4	92.5	4	-1E+10	1	-1E+10	1	-1E+10	1	-1E+10	1	-1E+10	1	-1E+10	1
4902551	84	C	12/09/2022	20:02	-131.495	48.160	0	36.90	0	10.4500	0	32.3210	0	24.786	0	36.587	0	256.3	4	92.5	4	-1E+10	1	-1E+10	1	-1E+10	1	-1E+10	1	-1E+10	1	-1E+10	1
4902551	84	C	12/09/2022	20:02	-131.495	48.160	0	38.20	0	10.4500	0	32.3220	0	24.787	0	37.875	0	256.3	4	92.5	4	-1E+10	1	-1E+10	1	-1E+10	1	-1E+10	1	-1E+10	1	-1E+10	1
4902551	84	C	12/09/2022	20:02	-131.495	48.160	0	39.00	0	10.4500	0	32.3210	0	24.786	0	38.669	0	256.4	4	92.5	4	-1E+10	1	-1E+10	1	-1E+10	1	-1E+10	1	-1E+10	1	-1E+10	1
4902551	84	C	12/09/2022	20:02	-131.495	48.160	0	40.30	0	10.4480	0	32.3220	0	24.787	0	39.957	0	256.2	4	92.4	4	-1E+10	1	-1E+10	1	-1E+10	1	-1E+10	1	-1E+10	1	-1E+10	1
4902551	84	C	12/09/2022	20:02	-131.495	48.160	0	40.90	0	10.4510	0	32.3210	0	24.786	0	40.552	0	256.2	4	92.4	4	-1E+10	1	-1E+10	1	-1E+10	1	-1E+10	1	-1E+10	1	-1E+10	1
4902551	84	C	12/09/2022	20:02	-131.495	48.160	0	41.90	0	10.4500	0	32.3210	0	24.786	0	41.544	0	256.2	4	92.4	4	-1E+10	1	-1E+10	1	-1E+10	1	-1E+10	1	-1E+10	1	-1E+10	1
4902551	84	C	12/09/2022	20:02	-131.495	48.160	0	42.90	0	10.4500	0	32.3210	0	24.786	0	42.535	0	256.2	4	92.4	4	-1E+10	1	-1E+10	1	-1E+10	1	-1E+10	1	-1E+10	1	-1E+10	1
4902551	84	C	12/09/2022	20:02	-131.495	48.160	0	44.10	0	10.4500	0	32.3220	0	24.787	0	43.725	0	256.2	4	92.4	4	-1E+10	1	-1E+10	1	-1E+10	1	-1E+10	1	-1E+10	1	-1E+10	1
4902551	84	C	12/09/2022	20:02	-131.495	48.160	0	44.90	0	10.4480	0	32.3220	0	24.788	0	44.518	0	256.2	4	92.4	4	-1E+10	1	-1E+10	1	-1E+10	1	-1E+10	1	-1E+10	1	-1E+10	1
4902551	84	C	12/09/2022	20:02	-131.495	48.160	0	46.10	0	10.4500	0	32.3210	0	24.786	0	45.707	0	256.1	4	92.4	4	-1E+10	1	-1E+10	1	-1E+10	1	-1E+10	1	-1E+10	1	-1E+10	1
4902551	84	C	12/09/2022	20:02	-131.495	48.160	0	46.90	0	10.4500	0	32.3220	0	24.787	0	46.500	0	256.2	4	92.4	4	-1E+10	1	-1E+10	1	-1E+10	1	-1E+10	1	-1E+10	1	-1E+10	1
4902551	84	C	12/09/2022	20:02	-131.495	48.160	0	47.90	0	10.4500	0	32.3210	0	24.787	0	47.492	0	256.1	4	92.4	4	-1E+10	1	-1E+10	1	-1E+10	1	-1E+10	1	-1E+10	1	-1E+10	1
4902551	84	C	12/09/2022	20:02	-131.495	48.160	0	49.00	0	10.4500	0	32.3220	0	24.787	0	48.582	0	256.0	4	92.3	4	-1E+10	1	-1E+10	1	-1E+10	1	-1E+10	1	-1E+10	1	-1E+10	1
4902551	84	C	12/09/2022	20:02	-131.495	48.160	0	50.00	0	10.4510	0	32.3210	0	24.786	0	49.574	0	255.9	4	92.3	4	-1E+10	1	-1E+10	1	-1E+10	1	-1E+10	1	-1E+10	1	-1E+10	1
4902551	84	C	12/09/2022	20:02	-131.495	48.160	0	50.90	0	10.4520	0	32.3210	0	24.786	0	50.466	0	255.9	4	92.3	4	-1E+10	1	-1E+10	1	-1E+10	1	-1E+10	1	-1E+10	1	-1E+10	1
4902551	84	C	12/09/2022	20:02	-131.495	48.160	0	51.80	0	10.4520	0	32.3210	0	24.786	0	51.358	0	255.9	4	92.3	4	-1E+10	1	-1E+10	1	-1E+10	1	-1E+10	1	-1E+10	1	-1E+10	1
4902551	84	C	12/09/2022	20:02	-131.495	48.160	0	52.80	0	10.4510	0	32.3220	0	24.787	0	52.349	0	255.8	4	92.3	4	-1E+10	1	-1E+10	1	-1E+10	1	-1E+10	1	-1E+10	1	-1E+10	1
4902551	84	C	12/09/2022	20:02	-131.495	48.160	0	53.80	0	10.4520	0	32.3210	0	24.786	0	53.341	0	255.8	4	92.3	4	-1E+10	1	-1E+10	1	-1E+10	1	-1E+10	1	-1E+10	1	-1E+10	1
4902551	84	C	12/09/2022	20:02	-131.495	48.160	0	54.90	0	10.4520	0	32.3210	0	24.786	0	54.431	0	255.7	4	92.2	4	-1E+10	1	-1E+10	1	-1E+10	1	-1E+10	1	-1E+10	1	-1E+10	1
4902551	84	C	12/09/2022	20:02	-131.495	48.160	0	55.90	0	10.4510	0	32.3220	0	24.787	0	55.423	0	255.6	4	92.2	4	-1E+10	1	-1E+10	1	-1E+10	1	-1E+10	1	-1E+10	1	-1E+10	1
4902551	84	C	12/09/2022	20:02	-131.495	48.160	0	56.80	0	10.4510	0	32.3220	0	24.787	0	56.315	0	255.5	4	92.2	4	-1E+10	1	-1E+10	1	-1E+10	1	-1E+10	1	-1E+10	1	-1E+10	1
4902551	84	C	12/09/2022	20:02	-131.495	48.160	0	57.90	0	10.4520	0	32.3220	0	24.787	0	57.405	0	255.5	4	92.2	4	-1E+10	1	-1E+10	1	-1E+10	1	-1E+10	1	-1E+10	1	-1E+10	1
4902551	84	C	12/09/2022	20:02	-131.495	48.160	0	58.80	0	10.4510	0	32.3220	0	24.787	0	58.297	0	255.3	4	92.1	4	-1E+10	1	-1E+10	1	-1E+10	1	-1E+10	1	-1E+10	1	-1E+10	1
4902551	84	C	12/09/2022	20:02	-131.495	48.160	0	60.00	0	10.4500	0	32.3220	0	24.788	0	59.487	0	255.2	4	92.0	4	-1E+10	1	-1E+10	1	-1E+10	1	-1E+10	1	-1E+10	1	-1E+10	1
4902551	84	C	12/09/2022	20:02	-131.495	48.160	0	61.10	0	10.4460	0	32.3210	0	24.787	0	60.577	0	255.1	4	92.0	4	-1E+10	1	-1E+10	1	-1E+10	1	-1E+10	1	-1E+10	1	-1E+10	1
4902551	84	C	12/09/2022	20:02	-131.495	48.160	0	62.00	0	10.4480	0	32.3160	0	24.783	0	61.470	0	255.0	4	92.0	4	-1E+10	1	-1E+10	1	-1E+10	1	-1E+10	1	-1E+10	1	-1E+10	1
4902551	84	C	12/09/2022	20:02	-131.495	48.160	0	62.90	0	10.3290	0	32.3230	0	24.809	0	62.362	0	255.2	4	91.8	4	-1E+10	1	-1E+10	1	-1E+10	1	-1E+10	1	-1E+10	1	-1E+10	1
4902551	84	C	12/09/2022	20:02	-131.495	48.160	0	64.00	0	10.3130	0	32.3260	0	24.814	0	63.452	0	255.1	4	91.7	4	-1E+10	1	-1E+10	1	-1E+10	1	-1E+10	1	-1E+10	1	-1E+10	1
4902551	84	C	12/09/2022	20:02	-131.495	48.160	0	65.10	0	10.2310	0	32.3330	0	24.833	0	64.543	0	255.3	4	91.7	4	-1E+10	1	-1E+10	1	-1E+10	1	-1E+10	1	-1E+10	1	-1E+10	1
4902551	84	C	12/09/2022	20:02	-131.495	48.160	0	65.90	0	9.8820	0	32.3330	0	24.891	0	65.336	0	256.3	4	91.3	4	-1E+10	1	-1E+10	1	-1E+10	1	-1E+10	1	-1E+10	1	-1E+10	1
4902551	84	C	12/09/2022	20:02	-131.495	48.160	0	66.90	0	9.6590	0	32.3650	0	24.952	0	66.327	0	256.6	4	91.0	4	-1E+10	1	-1E+10	1	-1E+10	1	-1E+10	1	-1E+10	1	-1E+10	1
4902551	84	C	12/09/2022	20:02	-131.495	48.160	0	67.90	0	9.6610	0	32.3420	0	24.934	0	67.318	0	256.6	4	91.0	4	-1E+10	1	-1E+10	1	-1E+10	1	-1E+10	1	-1E+10	1	-1E+10	1
4902551	84	C	12/09/2022	20:02	-131.495	48.160	0	69.00	0	9.4050	0	32.3800	0	25.005	0	68.409	0	257.1	4	90.7	4	-1E+10	1	-1E+10	1	-1E+10	1	-1E+10	1	-1E+10	1	-1E+10	1
4902551	84	C	12/09/2022	20:02	-131.495	48.160	0	70.10	0	9.2710	0	32.3880	0	25.032	0	69.499	0	257.5	4	90.6	4	-1E+10	1	-1E+10	1	-1E+10	1	-1E+10	1	-1E+10	1	-1E+10	1
4902551	84	C	12/09/2022	20:02	-131.495	48.160	0	70.90	0	9.1550	0	32.3790	0	25.044	0	70.292	0	258.1	4	90.6	4	-1E+10	1	-1E+10	1	-1E+10	1	-1E+10	1	-1E+10	1	-1E+10	1
4902551	84	C	12/09/2022	20:02	-131.495	48.160	0	72.00	0	8.6850	0	32.4030	0	25.135	0	71.382	0	258.9	4	89.9	4	-1E+10	1	-1E+10	1	-1E+10	1	-1E+10	1	-1E+10	1	-1E+10	1
4902551	84	C	12/09/2022	20:02	-131.495	48.160	0	73.00	0	8.2410	0	32.4760	0	25.258	0	72.374	0	259.7	4	89.3	4	-1E+10	1	-1E+10	1	-1E+10	1	-1E+10	1	-1E+10	1	-1E+10	1
4902551	84	C	12/09/2022	20:02	-131.495	48.160	0	74.00	0	7.9890	0	32.4480	0	25.273	0	73.365	0	260.1	4	89.0	4	-1E+10	1	-1E+10	1	-1E+10	1	-1E+10	1	-1E+10	1	-1E+10	1
4902551	84	C	12/09/2022	20:02	-131.495	48.160	0	75.10	0	7.9100	0	32.4520	0	25.287	0	74.455	0	259.9	4	88.7	4	-1E+10	1	-1E+10	1	-1E+10	1	-1E+10	1	-1E+10	1	-1E+10	1
4902551	84	C	12/09/2022	20:02	-131.495	48.160	0	76.00	0	7.8740	0	32.4540	0	25.294	0	75.347	0	259.7	4	88.6	4	-1E+10	1	-1E+10	1	-1E+10	1	-1E+10	1	-1E+10	1	-1E+10	1
4902551	84	C	12/09/2022	20:02	-131.495	48.160	0	76.90	0	7.8440	0	32.4560	0	25.300	0	76.239	0	259.5	4	88.5	4	-1E+10	1	-1E+10	1	-1E+10	1	-1E+10	1	-1E+10	1	-1E+10	1
4902551	84	C	12/09/2022	20:02	-131.495	48.160	0	77.80	0	7.8160	0	32.4560	0	25.304	0	77.131	0	259.3	4	88.3	4	-1E+10	1	-1E+10	1	-1E+10	1	-1E+10	1	-1E+10	1	-1E+10	1
4902551	84	C	12/09/2022	20:02	-131.495	48.160	0	78.80	0	7.7740	0	32.4600	0	25.313	0	78.123	0	259.1	4	88.2	4	-1E+10	1	-1E+10	1	-1E+10	1	-1E+10	1	-1E+10	1	-1E+10	1
4902551	84	C	12/09/2022	20:02	-131.495	48.160	0	79.90	0	7.7520	0	32.4600	0	25.316	0	79.213	0	258.9	4	88.1	4	-1E+10	1	-1E+10	1	-1E+10	1	-1E+10	1	-1E+10	1	-1E+10	1
4902551	84	C	12/09/2022	20:02	-131.495	48.160	0	80.90	0	7.7200	0	32.4630	0	25.323	0	80.204	0	258.8	4	88.0	4	-1E+10	1	-1E+10	1	-1E+10	1	-1E+10	1	-1E+10	1	-1E+10	1
4902551	84	C	12/09/2022	20:02	-131.495	48.160	0	82.10	0	7.6740	0	32.4670	0	25.333	0	81.394	0	258.9	4	88.0	4	-1E+10	1	-1E+10	1	-1E+10	1	-1E+10	1	-1E+10	1	-1E+10	1
4902551	84	C	12/09/2022	20:02	-131.495	48.160	0	82.90	0	7.6590	0	32.4680	0	25.336	0	82.187	0	258.9	4	87.9	4	-1E+10	1	-1E+10	1	-1E+10	1	-1E+10	1	-1E+10	1	-1E+10	1
4902551	84	C	12/09/2022	20:02	-131.495	48.160	0	84.00	0	7.6340	0	32.4700	0	25.341	0	83.277	0	265.4	4	90.1	4	-1E+10	1	-1E+10	1	-1E+10	1	-1E+10	1	-1E+10	1	-1E+10	1
4902551	84	C	12/09/2022	20:02	-131.495	48.160	0	85.10	0	7.6250	0	32.4700	0	25.342	0	84.367	0	265.5	4	90.1	4	-1E+10	1	-1E+10	1	-1E+10	1	-1E+10	1	-1E+10	1	-1E+10	1
4902551	84	C	12/09/2022	20:02	-131.495	48.160	0	85.80	0	7.6200	0	32.4700	0	25.343	0	85.061	0	265.4	4	90.0	4	-1E+10	1	-1E+10	1	-1E+10	1	-1E+10	1	-1E+10	1	-1E+10	1
4902551	84	C	12/09/2022	20:02	-131.495	48.160	0	86.80	0	7.6150	0	32.4700	0	25.344	0	86.052	0	265.3	4	90.0	4	-1E+10	1	-1E+10	1	-1E+10	1	-1E+10	1	-1E+10	1	-1E+10	1
4902551	84	C	12/09/2022	20:02	-131.495	48.160	0	87.90	0	7.6130	0	32.4700	0	25.344	0	87.143	0	265.3	4	90.0	4	-1E+10	1	-1E+10	1	-1E+10	1	-1E+10	1	-1E+10	1	-1E+10	1
4902551	84	C	12/09/2022	20:02	-131.495	48.160	0	88.80	0	7.6100	0	32.4700	0	25.344	0	88.035	0	265.2	4	89.9	4	-1E+10	1	-1E+10	1	-1E+10	1	-1E+10	1	-1E+10	1	-1E+10	1
4902551	84	C	12/09/2022	20:02	-131.495	48.160	0	90.00	0	7.6020	0	32.4690	0	25.345	0	89.224	0	265.0	4	89.9	4	-1E+10	1	-1E+10	1	-1E+10	1	-1E+10	1	-1E+10	1	-1E+10	1
4902551	84	C	12/09/2022	20:02	-131.495	48.160	0	90.90	0	7.5760	0	32.4710	0	25.350	0	90.116	0	264.9	4	89.8	4	-1E+10	1	-1E+10	1	-1E+10	1	-1E+10	1	-1E+10	1	-1E+10	1
4902551	84	C	12/09/2022	20:02	-131.495	48.160	0	91.70	0	7.5280	0	32.4750	0	25.360	0	90.909	0	265.0	4	89.7	4	-1E+10	1	-1E+10	1	-1E+10	1	-1E+10	1	-1E+10	1	-1E+10	1
4902551	84	C	12/09/2022	20:02	-131.495	48.160	0	92.80	0	7.5100	0	32.4750	0	25.362	0	91.999	0	265.0	4	89.7	4	-1E+10	1	-1E+10	1	-1E+10	1	-1E+10	1	-1E+10	1	-1E+10	1
4902551	84	C	12/09/2022	20:02	-131.495	48.160	0	93.70	0	7.4740	0	32.4760	0	25.368	0	92.891	0	264.9	4	89.6	4	-1E+10	1	-1E+10	1	-1E+10	1	-1E+10	1	-1E+10	1	-1E+10	1
4902551	84	C	12/09/2022	20:02	-131.495	48.160	0	94.70	0	7.4280	0	32.4790	0	25.377	0	93.882	0	264.9	4	89.5	4	-1E+10	1	-1E+10	1	-1E+10	1	-1E+10	1	-1E+10	1	-1E+10	1
4902551	84	C	12/09/2022	20:02	-131.495	48.160	0	95.70	0	7.3830	0	32.4840	0	25.387	0	94.874	0	264.8	4	89.4	4	-1E+10	1	-1E+10	1	-1E+10	1	-1E+10	1	-1E+10	1	-1E+10	1
4902551	84	C	12/09/2022	20:02	-131.495	48.160	0	96.80	0	7.3470	0	32.4810	0	25.389	0	95.964	0	264.7	4	89.2	4	-1E+10	1	-1E+10	1	-1E+10	1	-1E+10	1	-1E+10	1	-1E+10	1
4902551	84	C	12/09/2022	20:02	-131.495	48.160	0	97.80	0	7.3190	0	32.4840	0	25.396	0	96.955	0	264.3	4	89.1	4	-1E+10	1	-1E+10	1	-1E+10	1	-1E+10	1	-1E+10	1	-1E+10	1
4902551	84	C	12/09/2022	20:02	-131.495	48.160	0	98.90	0	7.2790	0	32.4850	0	25.402	0	98.045	0	264.0	4	88.9	4	-1E+10	1	-1E+10	1	-1E+10	1	-1E+10	1	-1E+10	1	-1E+10	1
4902551	84	C	12/09/2022	20:02	-131.495	48.160	0	99.90	0	7.2580	0	32.4880	0	25.407	0	99.036	0	263.4	4	88.6	4	-1E+10	1	-1E+10	1	-1E+10	1	-1E+10	1	-1E+10	1	-1E+10	1
4902551	84	C	12/09/2022	20:02	-131.495	48.160	0	101.00	0	7.2200	0	32.4940	0	25.417	0	100.126	0	262.5	4	88.3	4	-1E+10	1	-1E+10	1	-1E+10	1	-1E+10	1	-1E+10	1	-1E+10	1
4902551	84	C	12/09/2022	20:02	-131.495	48.160	0	102.00	0	7.1900	0	32.5000	0	25.426	0	101.118	0	261.2	4	87.8	4	-1E+10	1	-1E+10	1	-1E+10	1	-1E+10	1	-1E+10	1	-1E+10	1
4902551	84	C	12/09/2022	20:02	-131.495	48.160	0	102.90	0	7.1790	0	32.5040	0	25.430	0	102.010	0	260.3	4	87.5	4	-1E+10	1	-1E+10	1	-1E+10	1	-1E+10	1	-1E+10	1	-1E+10	1
4902551	84	C	12/09/2022	20:02	-131.495	48.160	0	103.90	0	7.1270	0	32.5240	0	25.453	0	103.001	0	259.4	4	87.0	4	-1E+10	1	-1E+10	1	-1E+10	1	-1E+10	1	-1E+10	1	-1E+10	1
4902551	84	C	12/09/2022	20:02	-131.495	48.160	0	105.10	0	7.0880	0	32.5400	0	25.471	0	104.190	0	258.9	4	86.8	4	-1E+10	1	-1E+10	1	-1E+10	1	-1E+10	1	-1E+10	1	-1E+10	1
4902551	84	C	12/09/2022	20:02	-131.495	48.160	0	106.00	0	7.0760	0	32.5430	0	25.475	0	105.082	0	258.5	4	86.7	4	-1E+10	1	-1E+10	1	-1E+10	1	-1E+10	1	-1E+10	1	-1E+10	1
4902551	84	C	12/09/2022	20:02	-131.495	48.160	0	107.10	0	7.0540	0	32.5500	0	25.484	0	106.172	0	258.1	4	86.5	4	-1E+10	1	-1E+10	1	-1E+10	1	-1E+10	1	-1E+10	1	-1E+10	1
4902551	84	C	12/09/2022	20:02	-131.495	48.160	0	108.10	0	7.0390	0	32.5560	0	25.490	0	107.163	0	257.4	4	86.2	4	-1E+10	1	-1E+10	1	-1E+10	1	-1E+10	1	-1E+10	1	-1E+10	1
4902551	84	C	12/09/2022	20:02	-131.495	48.160	0	109.00	0	7.0230	0	32.5590	0	25.495	0	108.055	0	256.9	4	86.0	4	-1E+10	1	-1E+10	1	-1E+10	1	-1E+10	1	-1E+10	1	-1E+10	1
4902551	84	C	12/09/2022	20:02	-131.495	48.160	0	109.80	0	7.0020	0	32.5630	0	25.501	0	108.848	0	256.5	4	85.9	4	-1E+10	1	-1E+10	1	-1E+10	1	-1E+10	1	-1E+10	1	-1E+10	1
4902551	84	C	12/09/2022	20:02	-131.495	48.160	0	111.00	0	6.9810	0	32.5680	0	25.507	0	110.037	0	255.8	4	85.6	4	-1E+10	1	-1E+10	1	-1E+10	1	-1E+10	1	-1E+10	1	-1E+10	1
4902551	84	C	12/09/2022	20:02	-131.495	48.160	0	112.00	0	6.9690	0	32.5730	0	25.513	0	111.028	0	255.3	4	85.4	4	-1E+10	1	-1E+10	1	-1E+10	1	-1E+10	1	-1E+10	1	-1E+10	1
4902551	84	C	12/09/2022	20:02	-131.495	48.160	0	112.90	0	6.9660	0	32.5760	0	25.516	0	111.920	0	254.6	4	85.2	4	-1E+10	1	-1E+10	1	-1E+10	1	-1E+10	1	-1E+10	1	-1E+10	1
4902551	84	C	12/09/2022	20:02	-131.495	48.160	0	113.90	0	6.9660	0	32.5790	0	25.518	0	112.911	0	254.0	4	85.0	4	-1E+10	1	-1E+10	1	-1E+10	1	-1E+10	1	-1E+10	1	-1E+10	1
4902551	84	C	12/09/2022	20:02	-131.495	48.160	0	114.90	0	6.9660	0	32.5800	0	25.519	0	113.902	0	253.2	4	84.7	4	-1E+10	1	-1E+10	1	-1E+10	1	-1E+10	1	-1E+10	1	-1E+10	1
4902551	84	C	12/09/2022	20:02	-131.495	48.160	0	115.90	0	6.9600	0	32.5870	0	25.525	0	114.893	0	252.5	4	84.5	4	-1E+10	1	-1E+10	1	-1E+10	1	-1E+10	1	-1E+10	1	-1E+10	1
4902551	84	C	12/09/2022	20:02	-131.495	48.160	0	116.90	0	6.9530	0	32.5900	0	25.529	0	115.885	0	251.6	4	84.1	4	-1E+10	1	-1E+10	1	-1E+10	1	-1E+10	1	-1E+10	1	-1E+10	1
4902551	84	C	12/09/2022	20:02	-131.495	48.160	0	118.00	0	6.9430	0	32.5940	0	25.533	0	116.975	0	250.7	4	83.8	4	-1E+10	1	-1E+10	1	-1E+10	1	-1E+10	1	-1E+10	1	-1E+10	1
4902551	84	C	12/09/2022	20:02	-131.495	48.160	0	118.90	0	6.9200	0	32.6170	0	25.554	0	117.867	0	249.8	4	83.5	4	-1E+10	1	-1E+10	1	-1E+10	1	-1E+10	1	-1E+10	1	-1E+10	1
4902551	84	C	12/09/2022	20:02	-131.495	48.160	0	120.00	0	6.9090	0	32.6300	0	25.566	0	118.957	0	248.6	4	83.1	4	-1E+10	1	-1E+10	1	-1E+10	1	-1E+10	1	-1E+10	1	-1E+10	1
4902551	84	C	12/09/2022	20:02	-131.495	48.160	0	120.90	0	6.8740	0	32.6550	0	25.590	0	119.849	0	247.3	4	82.6	4	-1E+10	1	-1E+10	1	-1E+10	1	-1E+10	1	-1E+10	1	-1E+10	1
4902551	84	C	12/09/2022	20:02	-131.495	48.160	0	122.10	0	6.8470	0	32.6710	0	25.606	0	121.038	0	245.7	4	82.0	4	-1E+10	1	-1E+10	1	-1E+10	1	-1E+10	1	-1E+10	1	-1E+10	1
4902551	84	C	12/09/2022	20:02	-131.495	48.160	0	123.10	0	6.8340	0	32.6790	0	25.614	0	122.029	0	244.3	4	81.5	4	-1E+10	1	-1E+10	1	-1E+10	1	-1E+10	1	-1E+10	1	-1E+10	1
4902551	84	C	12/09/2022	20:02	-131.495	48.160	0	123.90	0	6.8170	0	32.6960	0	25.630	0	122.822	0	243.0	4	81.1	4	-1E+10	1	-1E+10	1	-1E+10	1	-1E+10	1	-1E+10	1	-1E+10	1
4902551	84	C	12/09/2022	20:02	-131.495	48.160	0	125.00	0	6.7690	0	32.7260	0	25.660	0	123.912	0	241.6	4	80.5	4	-1E+10	1	-1E+10	1	-1E+10	1	-1E+10	1	-1E+10	1	-1E+10	1
4902551	84	C	12/09/2022	20:02	-131.495	48.160	0	126.00	0	6.7130	0	32.7610	0	25.695	0	124.903	0	239.7	4	79.8	4	-1E+10	1	-1E+10	1	-1E+10	1	-1E+10	1	-1E+10	1	-1E+10	1
4902551	84	C	12/09/2022	20:02	-131.495	48.160	0	127.20	0	6.6150	0	32.8180	0	25.753	0	126.092	0	237.7	4	79.0	4	-1E+10	1	-1E+10	1	-1E+10	1	-1E+10	1	-1E+10	1	-1E+10	1
4902551	84	C	12/09/2022	20:02	-131.495	48.160	0	128.10	0	6.6070	0	32.8260	0	25.760	0	126.984	0	235.7	4	78.3	4	-1E+10	1	-1E+10	1	-1E+10	1	-1E+10	1	-1E+10	1	-1E+10	1
4902551	84	C	12/09/2022	20:02	-131.495	48.160	0	129.10	0	6.5900	0	32.8360	0	25.770	0	127.975	0	230.9	4	76.7	4	-1E+10	1	-1E+10	1	-1E+10	1	-1E+10	1	-1E+10	1	-1E+10	1
4902551	84	C	12/09/2022	20:02	-131.495	48.160	0	129.90	0	6.5570	0	32.8620	0	25.795	0	128.768	0	226.0	4	75.0	4	-1E+10	1	-1E+10	1	-1E+10	1	-1E+10	1	-1E+10	1	-1E+10	1
4902551	84	C	12/09/2022	20:02	-131.495	48.160	0	130.80	0	6.5050	0	32.9270	0	25.853	0	129.659	0	222.4	4	73.8	4	-1E+10	1	-1E+10	1	-1E+10	1	-1E+10	1	-1E+10	1	-1E+10	1
4902551	84	C	12/09/2022	20:02	-131.495	48.160	0	132.00	0	6.4780	0	32.9810	0	25.899	0	130.849	0	218.1	4	72.3	4	-1E+10	1	-1E+10	1	-1E+10	1	-1E+10	1	-1E+10	1	-1E+10	1
4902551	84	C	12/09/2022	20:02	-131.495	48.160	0	132.70	0	6.4460	0	33.0300	0	25.942	0	131.542	0	215.7	4	71.5	4	-1E+10	1	-1E+10	1	-1E+10	1	-1E+10	1	-1E+10	1	-1E+10	1
4902551	84	C	12/09/2022	20:02	-131.495	48.160	0	133.90	0	6.3580	0	33.0980	0	26.007	0	132.731	0	213.2	4	70.6	4	-1E+10	1	-1E+10	1	-1E+10	1	-1E+10	1	-1E+10	1	-1E+10	1
4902551	84	C	12/09/2022	20:02	-131.495	48.160	0	134.80	0	6.2660	0	33.1540	0	26.062	0	133.623	0	211.6	4	70.0	4	-1E+10	1	-1E+10	1	-1E+10	1	-1E+10	1	-1E+10	1	-1E+10	1
4902551	84	C	12/09/2022	20:02	-131.495	48.160	0	135.80	0	6.2410	0	33.1800	0	26.086	0	134.614	0	210.2	4	69.4	4	-1E+10	1	-1E+10	1	-1E+10	1	-1E+10	1	-1E+10	1	-1E+10	1
4902551	84	C	12/09/2022	20:02	-131.495	48.160	0	136.80	0	6.2170	0	33.1930	0	26.099	0	135.605	0	208.7	4	68.9	4	-1E+10	1	-1E+10	1	-1E+10	1	-1E+10	1	-1E+10	1	-1E+10	1
4902551	84	C	12/09/2022	20:02	-131.495	48.160	0	137.80	0	6.2020	0	33.2090	0	26.114	0	136.596	0	207.5	4	68.5	4	-1E+10	1	-1E+10	1	-1E+10	1	-1E+10	1	-1E+10	1	-1E+10	1
4902551	84	C	12/09/2022	20:02	-131.495	48.160	0	138.90	0	6.1910	0	33.2210	0	26.125	0	137.686	0	206.1	4	68.0	4	-1E+10	1	-1E+10	1	-1E+10	1	-1E+10	1	-1E+10	1	-1E+10	1
4902551	84	C	12/09/2022	20:02	-131.495	48.160	0	139.90	0	6.1870	0	33.2310	0	26.133	0	138.677	0	204.4	4	67.5	4	-1E+10	1	-1E+10	1	-1E+10	1	-1E+10	1	-1E+10	1	-1E+10	1
4902551	84	C	12/09/2022	20:02	-131.495	48.160	0	141.00	0	6.2030	0	33.2510	0	26.147	0	139.767	0	202.4	4	66.9	4	-1E+10	1	-1E+10	1	-1E+10	1	-1E+10	1	-1E+10	1	-1E+10	1
4902551	84	C	12/09/2022	20:02	-131.495	48.160	0	142.00	0	6.2300	0	33.2700	0	26.159	0	140.758	0	200.6	4	66.3	4	-1E+10	1	-1E+10	1	-1E+10	1	-1E+10	1	-1E+10	1	-1E+10	1
4902551	84	C	12/09/2022	20:02	-131.495	48.160	0	143.10	0	6.2350	0	33.2950	0	26.178	0	141.848	0	198.8	4	65.7	4	-1E+10	1	-1E+10	1	-1E+10	1	-1E+10	1	-1E+10	1	-1E+10	1
4902551	84	C	12/09/2022	20:02	-131.495	48.160	0	143.90	0	6.2260	0	33.3270	0	26.204	0	142.641	0	197.8	4	65.4	4	-1E+10	1	-1E+10	1	-1E+10	1	-1E+10	1	-1E+10	1	-1E+10	1
4902551	84	C	12/09/2022	20:02	-131.495	48.160	0	144.70	0	6.2090	0	33.3470	0	26.222	0	143.433	0	196.9	4	65.1	4	-1E+10	1	-1E+10	1	-1E+10	1	-1E+10	1	-1E+10	1	-1E+10	1
4902551	84	C	12/09/2022	20:02	-131.495	48.160	0	146.00	0	6.2050	0	33.3510	0	26.226	0	144.722	0	195.4	4	64.6	4	-1E+10	1	-1E+10	1	-1E+10	1	-1E+10	1	-1E+10	1	-1E+10	1
4902551	84	C	12/09/2022	20:02	-131.495	48.160	0	147.20	0	6.2040	0	33.3570	0	26.231	0	145.911	0	193.7	4	64.0	4	-1E+10	1	-1E+10	1	-1E+10	1	-1E+10	1	-1E+10	1	-1E+10	1
4902551	84	C	12/09/2022	20:02	-131.495	48.160	0	148.10	0	6.1990	0	33.3630	0	26.236	0	146.802	0	192.6	4	63.6	4	-1E+10	1	-1E+10	1	-1E+10	1	-1E+10	1	-1E+10	1	-1E+10	1
4902551	84	C	12/09/2022	20:02	-131.495	48.160	0	148.90	0	6.1820	0	33.4030	0	26.270	0	147.595	0	191.5	4	63.3	4	-1E+10	1	-1E+10	1	-1E+10	1	-1E+10	1	-1E+10	1	-1E+10	1
4902551	84	C	12/09/2022	20:02	-131.495	48.160	0	149.80	0	6.1920	0	33.4060	0	26.271	0	148.487	0	190.3	4	62.9	4	-1E+10	1	-1E+10	1	-1E+10	1	-1E+10	1	-1E+10	1	-1E+10	1
4902551	84	C	12/09/2022	20:02	-131.495	48.160	0	150.70	0	6.1900	0	33.4150	0	26.278	0	149.379	0	189.1	4	62.5	4	-1E+10	1	-1E+10	1	-1E+10	1	-1E+10	1	-1E+10	1	-1E+10	1
4902551	84	C	12/09/2022	20:02	-131.495	48.160	0	152.00	0	6.1860	0	33.4160	0	26.280	0	150.667	0	187.2	4	61.9	4	-1E+10	1	-1E+10	1	-1E+10	1	-1E+10	1	-1E+10	1	-1E+10	1
4902551	84	C	12/09/2022	20:02	-131.495	48.160	0	153.20	0	6.1850	0	33.4200	0	26.283	0	151.856	0	185.1	4	61.2	4	-1E+10	1	-1E+10	1	-1E+10	1	-1E+10	1	-1E+10	1	-1E+10	1
4902551	84	C	12/09/2022	20:02	-131.495	48.160	0	154.10	0	6.1270	0	33.4760	0	26.334	0	152.748	0	183.9	4	60.7	4	-1E+10	1	-1E+10	1	-1E+10	1	-1E+10	1	-1E+10	1	-1E+10	1
4902551	84	C	12/09/2022	20:02	-131.495	48.160	0	155.00	0	6.1270	0	33.4800	0	26.338	0	153.639	0	182.8	4	60.4	4	-1E+10	1	-1E+10	1	-1E+10	1	-1E+10	1	-1E+10	1	-1E+10	1
4902551	84	C	12/09/2022	20:02	-131.495	48.160	0	155.80	0	6.1260	0	33.4840	0	26.341	0	154.432	0	181.5	4	59.9	4	-1E+10	1	-1E+10	1	-1E+10	1	-1E+10	1	-1E+10	1	-1E+10	1
4902551	84	C	12/09/2022	20:02	-131.495	48.160	0	156.70	0	6.1230	0	33.4880	0	26.344	0	155.324	0	180.1	4	59.5	4	-1E+10	1	-1E+10	1	-1E+10	1	-1E+10	1	-1E+10	1	-1E+10	1
4902551	84	C	12/09/2022	20:02	-131.495	48.160	0	157.90	0	6.0990	0	33.5060	0	26.362	0	156.513	0	178.0	4	58.8	4	-1E+10	1	-1E+10	1	-1E+10	1	-1E+10	1	-1E+10	1	-1E+10	1
4902551	84	C	12/09/2022	20:02	-131.495	48.160	0	159.30	0	6.0440	0	33.5360	0	26.392	0	157.900	0	176.1	4	58.1	4	-1E+10	1	-1E+10	1	-1E+10	1	-1E+10	1	-1E+10	1	-1E+10	1
4902551	84	C	12/09/2022	20:02	-131.495	48.160	0	160.30	0	6.0060	0	33.5650	0	26.420	0	158.891	0	175.1	4	57.7	4	-1E+10	1	-1E+10	1	-1E+10	1	-1E+10	1	-1E+10	1	-1E+10	1
4902551	84	C	12/09/2022	20:02	-131.495	48.160	0	161.30	0	5.9850	0	33.5760	0	26.431	0	159.882	0	174.1	4	57.4	4	-1E+10	1	-1E+10	1	-1E+10	1	-1E+10	1	-1E+10	1	-1E+10	1
4902551	84	C	12/09/2022	20:02	-131.495	48.160	0	162.30	0	5.9810	0	33.5780	0	26.433	0	160.872	0	173.2	4	57.0	4	-1E+10	1	-1E+10	1	-1E+10	1	-1E+10	1	-1E+10	1	-1E+10	1
4902551	84	C	12/09/2022	20:02	-131.495	48.160	0	163.30	0	5.9780	0	33.5800	0	26.435	0	161.863	0	172.1	4	56.7	4	-1E+10	1	-1E+10	1	-1E+10	1	-1E+10	1	-1E+10	1	-1E+10	1
4902551	84	C	12/09/2022	20:02	-131.495	48.160	0	164.30	0	5.9480	0	33.6010	0	26.456	0	162.854	0	171.3	4	56.4	4	-1E+10	1	-1E+10	1	-1E+10	1	-1E+10	1	-1E+10	1	-1E+10	1
4902551	84	C	12/09/2022	20:02	-131.495	48.160	0	165.30	0	5.9410	0	33.6060	0	26.460	0	163.845	0	170.5	4	56.1	4	-1E+10	1	-1E+10	1	-1E+10	1	-1E+10	1	-1E+10	1	-1E+10	1
4902551	84	C	12/09/2022	20:02	-131.495	48.160	0	166.30	0	5.9400	0	33.6080	0	26.462	0	164.836	0	169.6	4	55.8	4	-1E+10	1	-1E+10	1	-1E+10	1	-1E+10	1	-1E+10	1	-1E+10	1
4902551	84	C	12/09/2022	20:02	-131.495	48.160	0	167.30	0	5.9410	0	33.6080	0	26.462	0	165.826	0	168.7	4	55.5	4	-1E+10	1	-1E+10	1	-1E+10	1	-1E+10	1	-1E+10	1	-1E+10	1
4902551	84	C	12/09/2022	20:02	-131.495	48.160	0	168.30	0	5.9330	0	33.6170	0	26.470	0	166.817	0	167.8	4	55.2	4	-1E+10	1	-1E+10	1	-1E+10	1	-1E+10	1	-1E+10	1	-1E+10	1
4902551	84	C	12/09/2022	20:02	-131.495	48.160	0	169.40	0	5.9290	0	33.6180	0	26.471	0	167.907	0	166.9	4	54.9	4	-1E+10	1	-1E+10	1	-1E+10	1	-1E+10	1	-1E+10	1	-1E+10	1
4902551	84	C	12/09/2022	20:02	-131.495	48.160	0	170.30	0	5.9250	0	33.6210	0	26.474	0	168.799	0	165.8	4	54.6	4	-1E+10	1	-1E+10	1	-1E+10	1	-1E+10	1	-1E+10	1	-1E+10	1
4902551	84	C	12/09/2022	20:02	-131.495	48.160	0	171.30	0	5.9220	0	33.6240	0	26.477	0	169.790	0	164.8	4	54.2	4	-1E+10	1	-1E+10	1	-1E+10	1	-1E+10	1	-1E+10	1	-1E+10	1
4902551	84	C	12/09/2022	20:02	-131.495	48.160	0	172.40	0	5.9150	0	33.6320	0	26.484	0	170.879	0	163.7	4	53.9	4	-1E+10	1	-1E+10	1	-1E+10	1	-1E+10	1	-1E+10	1	-1E+10	1
4902551	84	C	12/09/2022	20:02	-131.495	48.160	0	173.40	0	5.9130	0	33.6350	0	26.487	0	171.870	0	162.6	4	53.5	4	-1E+10	1	-1E+10	1	-1E+10	1	-1E+10	1	-1E+10	1	-1E+10	1
4902551	84	C	12/09/2022	20:02	-131.495	48.160	0	174.40	0	5.9080	0	33.6420	0	26.493	0	172.861	0	161.4	4	53.1	4	-1E+10	1	-1E+10	1	-1E+10	1	-1E+10	1	-1E+10	1	-1E+10	1
4902551	84	C	12/09/2022	20:02	-131.495	48.160	0	175.50	0	5.8850	0	33.6620	0	26.512	0	173.951	0	160.6	4	52.8	4	-1E+10	1	-1E+10	1	-1E+10	1	-1E+10	1	-1E+10	1	-1E+10	1
4902551	84	C	12/09/2022	20:02	-131.495	48.160	0	176.50	0	5.8740	0	33.6660	0	26.516	0	174.942	0	159.9	4	52.6	4	-1E+10	1	-1E+10	1	-1E+10	1	-1E+10	1	-1E+10	1	-1E+10	1
4902551	84	C	12/09/2022	20:02	-131.495	48.160	0	177.50	0	5.8690	0	33.6690	0	26.519	0	175.932	0	159.0	4	52.3	4	-1E+10	1	-1E+10	1	-1E+10	1	-1E+10	1	-1E+10	1	-1E+10	1
4902551	84	C	12/09/2022	20:02	-131.495	48.160	0	178.60	0	5.8600	0	33.6740	0	26.524	0	177.022	0	158.2	4	52.0	4	-1E+10	1	-1E+10	1	-1E+10	1	-1E+10	1	-1E+10	1	-1E+10	1
4902551	84	C	12/09/2022	20:02	-131.495	48.160	0	179.60	0	5.8510	0	33.6760	0	26.527	0	178.013	0	157.3	4	51.7	4	-1E+10	1	-1E+10	1	-1E+10	1	-1E+10	1	-1E+10	1	-1E+10	1
4902551	84	C	12/09/2022	20:02	-131.495	48.160	0	180.60	0	5.8390	0	33.6790	0	26.531	0	179.004	0	156.3	4	51.4	4	-1E+10	1	-1E+10	1	-1E+10	1	-1E+10	1	-1E+10	1	-1E+10	1
4902551	84	C	12/09/2022	20:02	-131.495	48.160	0	181.80	0	5.8300	0	33.6830	0	26.535	0	180.192	0	154.9	4	50.9	4	-1E+10	1	-1E+10	1	-1E+10	1	-1E+10	1	-1E+10	1	-1E+10	1
4902551	84	C	12/09/2022	20:02	-131.495	48.160	0	183.00	0	5.8150	0	33.6880	0	26.541	0	181.381	0	153.6	4	50.4	4	-1E+10	1	-1E+10	1	-1E+10	1	-1E+10	1	-1E+10	1	-1E+10	1
4902551	84	C	12/09/2022	20:02	-131.495	48.160	0	184.20	0	5.8090	0	33.6900	0	26.543	0	182.570	0	152.2	4	50.0	4	-1E+10	1	-1E+10	1	-1E+10	1	-1E+10	1	-1E+10	1	-1E+10	1
4902551	84	C	12/09/2022	20:02	-131.495	48.160	0	185.00	0	5.8050	0	33.6910	0	26.544	0	183.363	0	151.1	4	49.6	4	-1E+10	1	-1E+10	1	-1E+10	1	-1E+10	1	-1E+10	1	-1E+10	1
4902551	84	C	12/09/2022	20:02	-131.495	48.160	0	185.70	0	5.8000	0	33.6920	0	26.546	0	184.056	0	150.1	4	49.3	4	-1E+10	1	-1E+10	1	-1E+10	1	-1E+10	1	-1E+10	1	-1E+10	1
4902551	84	C	12/09/2022	20:02	-131.495	48.160	0	186.90	0	5.7890	0	33.6970	0	26.551	0	185.245	0	148.5	4	48.7	4	-1E+10	1	-1E+10	1	-1E+10	1	-1E+10	1	-1E+10	1	-1E+10	1
4902551	84	C	12/09/2022	20:02	-131.495	48.160	0	188.10	0	5.7680	0	33.7020	0	26.558	0	186.434	0	146.7	4	48.1	4	-1E+10	1	-1E+10	1	-1E+10	1	-1E+10	1	-1E+10	1	-1E+10	1
4902551	84	C	12/09/2022	20:02	-131.495	48.160	0	188.90	0	5.7510	0	33.7050	0	26.562	0	187.226	0	145.5	4	47.7	4	-1E+10	1	-1E+10	1	-1E+10	1	-1E+10	1	-1E+10	1	-1E+10	1
4902551	84	C	12/09/2022	20:02	-131.495	48.160	0	189.70	0	5.7290	0	33.7090	0	26.568	0	188.019	0	144.2	4	47.3	4	-1E+10	1	-1E+10	1	-1E+10	1	-1E+10	1	-1E+10	1	-1E+10	1
4902551	84	C	12/09/2022	20:02	-131.495	48.160	0	191.00	0	5.6740	0	33.7140	0	26.579	0	189.307	0	142.9	4	46.8	4	-1E+10	1	-1E+10	1	-1E+10	1	-1E+10	1	-1E+10	1	-1E+10	1
4902551	84	C	12/09/2022	20:02	-131.495	48.160	0	192.20	0	5.6190	0	33.7220	0	26.592	0	190.496	0	141.7	4	46.3	4	-1E+10	1	-1E+10	1	-1E+10	1	-1E+10	1	-1E+10	1	-1E+10	1
4902551	84	C	12/09/2022	20:02	-131.495	48.160	0	193.00	0	5.5830	0	33.7250	0	26.598	0	191.288	0	141.1	4	46.1	4	-1E+10	1	-1E+10	1	-1E+10	1	-1E+10	1	-1E+10	1	-1E+10	1
4902551	84	C	12/09/2022	20:02	-131.495	48.160	0	193.80	0	5.5560	0	33.7290	0	26.605	0	192.081	0	140.5	4	45.9	4	-1E+10	1	-1E+10	1	-1E+10	1	-1E+10	1	-1E+10	1	-1E+10	1
4902551	84	C	12/09/2022	20:02	-131.495	48.160	0	195.00	0	5.5540	0	33.7280	0	26.604	0	193.270	0	139.5	4	45.6	4	-1E+10	1	-1E+10	1	-1E+10	1	-1E+10	1	-1E+10	1	-1E+10	1
4902551	84	C	12/09/2022	20:02	-131.495	48.160	0	196.20	0	5.5360	0	33.7330	0	26.610	0	194.458	0	138.5	4	45.2	4	-1E+10	1	-1E+10	1	-1E+10	1	-1E+10	1	-1E+10	1	-1E+10	1
4902551	84	C	12/09/2022	20:02	-131.495	48.160	0	197.00	0	5.5200	0	33.7340	0	26.613	0	195.251	0	137.9	4	45.0	4	-1E+10	1	-1E+10	1	-1E+10	1	-1E+10	1	-1E+10	1	-1E+10	1
4902551	84	C	12/09/2022	20:02	-131.495	48.160	0	197.90	0	5.5130	0	33.7350	0	26.615	0	196.142	0	137.2	4	44.8	4	-1E+10	1	-1E+10	1	-1E+10	1	-1E+10	1	-1E+10	1	-1E+10	1
4902551	84	C	12/09/2022	20:02	-131.495	48.160	0	198.70	0	5.5080	0	33.7350	0	26.615	0	196.935	0	136.5	4	44.5	4	-1E+10	1	-1E+10	1	-1E+10	1	-1E+10	1	-1E+10	1	-1E+10	1
4902551	84	C	12/09/2022	20:02	-131.495	48.160	0	199.90	0	5.4960	0	33.7370	0	26.618	0	198.124	0	135.4	4	44.2	4	-1E+10	1	-1E+10	1	-1E+10	1	-1E+10	1	-1E+10	1	-1E+10	1
4902551	84	C	12/09/2022	20:02	-131.495	48.160	0	201.20	0	5.4910	0	33.7410	0	26.622	0	199.412	0	134.4	4	43.8	4	-1E+10	1	-1E+10	1	-1E+10	1	-1E+10	1	-1E+10	1	-1E+10	1
4902551	84	C	12/09/2022	20:02	-131.495	48.160	0	202.00	0	5.4870	0	33.7420	0	26.623	0	200.204	0	133.6	4	43.6	4	-1E+10	1	-1E+10	1	-1E+10	1	-1E+10	1	-1E+10	1	-1E+10	1
4902551	84	C	12/09/2022	20:02	-131.495	48.160	0	202.80	0	5.4720	0	33.7440	0	26.627	0	200.997	0	133.0	4	43.3	4	-1E+10	1	-1E+10	1	-1E+10	1	-1E+10	1	-1E+10	1	-1E+10	1
4902551	84	C	12/09/2022	20:02	-131.495	48.160	0	203.60	0	5.4680	0	33.7450	0	26.628	0	201.789	0	132.2	4	43.1	4	-1E+10	1	-1E+10	1	-1E+10	1	-1E+10	1	-1E+10	1	-1E+10	1
4902551	84	C	12/09/2022	20:02	-131.495	48.160	0	204.90	0	5.4500	0	33.7460	0	26.631	0	203.077	0	131.1	4	42.7	4	-1E+10	1	-1E+10	1	-1E+10	1	-1E+10	1	-1E+10	1	-1E+10	1
4902551	84	C	12/09/2022	20:02	-131.495	48.160	0	206.20	0	5.4310	0	33.7470	0	26.634	0	204.365	0	130.0	4	42.3	4	-1E+10	1	-1E+10	1	-1E+10	1	-1E+10	1	-1E+10	1	-1E+10	1
4902551	84	C	12/09/2022	20:02	-131.495	48.160	0	207.00	0	5.4180	0	33.7490	0	26.637	0	205.157	0	129.3	4	42.1	4	-1E+10	1	-1E+10	1	-1E+10	1	-1E+10	1	-1E+10	1	-1E+10	1
4902551	84	C	12/09/2022	20:02	-131.495	48.160	0	207.80	0	5.4020	0	33.7490	0	26.639	0	205.950	0	128.6	4	41.9	4	-1E+10	1	-1E+10	1	-1E+10	1	-1E+10	1	-1E+10	1	-1E+10	1
4902551	84	C	12/09/2022	20:02	-131.495	48.160	0	208.60	0	5.3820	0	33.7520	0	26.644	0	206.742	0	128.1	4	41.7	4	-1E+10	1	-1E+10	1	-1E+10	1	-1E+10	1	-1E+10	1	-1E+10	1
4902551	84	C	12/09/2022	20:02	-131.495	48.160	0	209.90	0	5.3690	0	33.7540	0	26.647	0	208.030	0	127.2	4	41.3	4	-1E+10	1	-1E+10	1	-1E+10	1	-1E+10	1	-1E+10	1	-1E+10	1
4902551	84	C	12/09/2022	20:02	-131.495	48.160	0	211.10	0	5.3590	0	33.7530	0	26.647	0	209.219	0	126.2	4	41.0	4	-1E+10	1	-1E+10	1	-1E+10	1	-1E+10	1	-1E+10	1	-1E+10	1
4902551	84	C	12/09/2022	20:02	-131.495	48.160	0	212.00	0	5.3430	0	33.7550	0	26.651	0	210.110	0	125.6	4	40.8	4	-1E+10	1	-1E+10	1	-1E+10	1	-1E+10	1	-1E+10	1	-1E+10	1
4902551	84	C	12/09/2022	20:02	-131.495	48.160	0	212.80	0	5.3410	0	33.7540	0	26.650	0	210.903	0	124.9	4	40.6	4	-1E+10	1	-1E+10	1	-1E+10	1	-1E+10	1	-1E+10	1	-1E+10	1
4902551	84	C	12/09/2022	20:02	-131.495	48.160	0	214.00	0	5.3100	0	33.7570	0	26.656	0	212.091	0	124.0	4	40.3	4	-1E+10	1	-1E+10	1	-1E+10	1	-1E+10	1	-1E+10	1	-1E+10	1
4902551	84	C	12/09/2022	20:02	-131.495	48.160	0	215.20	0	5.2990	0	33.7570	0	26.657	0	213.280	0	123.1	4	40.0	4	-1E+10	1	-1E+10	1	-1E+10	1	-1E+10	1	-1E+10	1	-1E+10	1
4902551	84	C	12/09/2022	20:02	-131.495	48.160	0	216.00	0	5.2770	0	33.7610	0	26.663	0	214.072	0	122.4	4	39.7	4	-1E+10	1	-1E+10	1	-1E+10	1	-1E+10	1	-1E+10	1	-1E+10	1
4902551	84	C	12/09/2022	20:02	-131.495	48.160	0	216.80	0	5.2680	0	33.7610	0	26.664	0	214.865	0	121.8	4	39.5	4	-1E+10	1	-1E+10	1	-1E+10	1	-1E+10	1	-1E+10	1	-1E+10	1
4902551	84	C	12/09/2022	20:02	-131.495	48.160	0	218.00	0	5.2570	0	33.7620	0	26.666	0	216.053	0	120.9	4	39.2	4	-1E+10	1	-1E+10	1	-1E+10	1	-1E+10	1	-1E+10	1	-1E+10	1
4902551	84	C	12/09/2022	20:02	-131.495	48.160	0	219.30	0	5.2510	0	33.7610	0	26.666	0	217.341	0	119.9	4	38.9	4	-1E+10	1	-1E+10	1	-1E+10	1	-1E+10	1	-1E+10	1	-1E+10	1
4902551	84	C	12/09/2022	20:02	-131.495	48.160	0	220.10	0	5.2420	0	33.7610	0	26.667	0	218.134	0	119.2	4	38.6	4	-1E+10	1	-1E+10	1	-1E+10	1	-1E+10	1	-1E+10	1	-1E+10	1
4902551	84	C	12/09/2022	20:02	-131.495	48.160	0	221.00	0	5.2150	0	33.7660	0	26.674	0	219.025	0	118.5	4	38.4	4	-1E+10	1	-1E+10	1	-1E+10	1	-1E+10	1	-1E+10	1	-1E+10	1
4902551	84	C	12/09/2022	20:02	-131.495	48.160	0	221.80	0	5.1940	0	33.7630	0	26.674	0	219.817	0	118.0	4	38.2	4	-1E+10	1	-1E+10	1	-1E+10	1	-1E+10	1	-1E+10	1	-1E+10	1
4902551	84	C	12/09/2022	20:02	-131.495	48.160	0	222.70	0	5.1390	0	33.7650	0	26.682	0	220.709	0	117.7	4	38.1	4	-1E+10	1	-1E+10	1	-1E+10	1	-1E+10	1	-1E+10	1	-1E+10	1
4902551	84	C	12/09/2022	20:02	-131.495	48.160	0	223.90	0	5.1350	0	33.7660	0	26.684	0	221.898	0	117.0	4	37.8	4	-1E+10	1	-1E+10	1	-1E+10	1	-1E+10	1	-1E+10	1	-1E+10	1
4902551	84	C	12/09/2022	20:02	-131.495	48.160	0	225.20	0	5.1290	0	33.7670	0	26.685	0	223.185	0	116.3	4	37.6	4	-1E+10	1	-1E+10	1	-1E+10	1	-1E+10	1	-1E+10	1	-1E+10	1
4902551	84	C	12/09/2022	20:02	-131.495	48.160	0	226.10	0	5.1260	0	33.7660	0	26.685	0	224.077	0	115.8	4	37.5	4	-1E+10	1	-1E+10	1	-1E+10	1	-1E+10	1	-1E+10	1	-1E+10	1
4902551	84	C	12/09/2022	20:02	-131.495	48.160	0	226.90	0	5.1240	0	33.7660	0	26.685	0	224.869	0	115.3	4	37.3	4	-1E+10	1	-1E+10	1	-1E+10	1	-1E+10	1	-1E+10	1	-1E+10	1
4902551	84	C	12/09/2022	20:02	-131.495	48.160	0	227.70	0	5.1120	0	33.7700	0	26.689	0	225.662	0	114.7	4	37.1	4	-1E+10	1	-1E+10	1	-1E+10	1	-1E+10	1	-1E+10	1	-1E+10	1
4902551	84	C	12/09/2022	20:02	-131.495	48.160	0	229.00	0	5.1010	0	33.7690	0	26.690	0	226.949	0	113.9	4	36.8	4	-1E+10	1	-1E+10	1	-1E+10	1	-1E+10	1	-1E+10	1	-1E+10	1
4902551	84	C	12/09/2022	20:02	-131.495	48.160	0	230.20	0	5.0940	0	33.7700	0	26.692	0	228.138	0	113.0	4	36.5	4	-1E+10	1	-1E+10	1	-1E+10	1	-1E+10	1	-1E+10	1	-1E+10	1
4902551	84	C	12/09/2022	20:02	-131.495	48.160	0	231.10	0	5.0700	0	33.7740	0	26.697	0	229.029	0	112.7	4	36.4	4	-1E+10	1	-1E+10	1	-1E+10	1	-1E+10	1	-1E+10	1	-1E+10	1
4902551	84	C	12/09/2022	20:02	-131.495	48.160	0	231.90	0	5.0530	0	33.7740	0	26.699	0	229.822	0	112.3	4	36.3	4	-1E+10	1	-1E+10	1	-1E+10	1	-1E+10	1	-1E+10	1	-1E+10	1
4902551	84	C	12/09/2022	20:02	-131.495	48.160	0	232.80	0	5.0520	0	33.7740	0	26.700	0	230.713	0	111.9	4	36.1	4	-1E+10	1	-1E+10	1	-1E+10	1	-1E+10	1	-1E+10	1	-1E+10	1
4902551	84	C	12/09/2022	20:02	-131.495	48.160	0	233.60	0	5.0510	0	33.7740	0	26.700	0	231.505	0	111.4	4	36.0	4	-1E+10	1	-1E+10	1	-1E+10	1	-1E+10	1	-1E+10	1	-1E+10	1
4902551	84	C	12/09/2022	20:02	-131.495	48.160	0	234.90	0	5.0480	0	33.7730	0	26.699	0	232.793	0	110.6	4	35.7	4	-1E+10	1	-1E+10	1	-1E+10	1	-1E+10	1	-1E+10	1	-1E+10	1
4902551	84	C	12/09/2022	20:02	-131.495	48.160	0	236.20	0	5.0370	0	33.7730	0	26.700	0	234.081	0	109.8	4	35.4	4	-1E+10	1	-1E+10	1	-1E+10	1	-1E+10	1	-1E+10	1	-1E+10	1
4902551	84	C	12/09/2022	20:02	-131.495	48.160	0	237.10	0	5.0020	0	33.7760	0	26.707	0	234.972	0	109.3	4	35.2	4	-1E+10	1	-1E+10	1	-1E+10	1	-1E+10	1	-1E+10	1	-1E+10	1
4902551	84	C	12/09/2022	20:02	-131.495	48.160	0	238.00	0	4.9960	0	33.7760	0	26.708	0	235.863	0	108.9	4	35.1	4	-1E+10	1	-1E+10	1	-1E+10	1	-1E+10	1	-1E+10	1	-1E+10	1
4902551	84	C	12/09/2022	20:02	-131.495	48.160	0	238.90	0	4.9930	0	33.7770	0	26.709	0	236.755	0	108.4	4	34.9	4	-1E+10	1	-1E+10	1	-1E+10	1	-1E+10	1	-1E+10	1	-1E+10	1
4902551	84	C	12/09/2022	20:02	-131.495	48.160	0	239.70	0	4.9890	0	33.7780	0	26.710	0	237.547	0	107.9	4	34.8	4	-1E+10	1	-1E+10	1	-1E+10	1	-1E+10	1	-1E+10	1	-1E+10	1
4902551	84	C	12/09/2022	20:02	-131.495	48.160	0	240.60	0	4.9880	0	33.7740	0	26.707	0	238.439	0	107.2	4	34.6	4	-1E+10	1	-1E+10	1	-1E+10	1	-1E+10	1	-1E+10	1	-1E+10	1
4902551	84	C	12/09/2022	20:02	-131.495	48.160	0	241.90	0	4.9790	0	33.7750	0	26.709	0	239.726	0	106.3	4	34.2	4	-1E+10	1	-1E+10	1	-1E+10	1	-1E+10	1	-1E+10	1	-1E+10	1
4902551	84	C	12/09/2022	20:02	-131.495	48.160	0	243.30	0	4.9320	0	33.7790	0	26.717	0	241.113	0	105.4	4	33.9	4	-1E+10	1	-1E+10	1	-1E+10	1	-1E+10	1	-1E+10	1	-1E+10	1
4902551	84	C	12/09/2022	20:02	-131.495	48.160	0	244.10	0	4.9160	0	33.7780	0	26.718	0	241.905	0	104.9	4	33.7	4	-1E+10	1	-1E+10	1	-1E+10	1	-1E+10	1	-1E+10	1	-1E+10	1
4902551	84	C	12/09/2022	20:02	-131.495	48.160	0	245.00	0	4.9140	0	33.7850	0	26.724	0	242.796	0	104.5	4	33.6	4	-1E+10	1	-1E+10	1	-1E+10	1	-1E+10	1	-1E+10	1	-1E+10	1
4902551	84	C	12/09/2022	20:02	-131.495	48.160	0	245.90	0	4.9120	0	33.7880	0	26.727	0	243.688	0	104.3	4	33.5	4	-1E+10	1	-1E+10	1	-1E+10	1	-1E+10	1	-1E+10	1	-1E+10	1
4902551	84	C	12/09/2022	20:02	-131.495	48.160	0	246.80	0	4.9130	0	33.7880	0	26.726	0	244.579	0	103.9	4	33.4	4	-1E+10	1	-1E+10	1	-1E+10	1	-1E+10	1	-1E+10	1	-1E+10	1
4902551	84	C	12/09/2022	20:02	-131.495	48.160	0	247.70	0	4.9120	0	33.7880	0	26.727	0	245.471	0	103.6	4	33.3	4	-1E+10	1	-1E+10	1	-1E+10	1	-1E+10	1	-1E+10	1	-1E+10	1
4902551	84	C	12/09/2022	20:02	-131.495	48.160	0	248.90	0	4.9170	0	33.7900	0	26.728	0	246.659	0	103.1	4	33.2	4	-1E+10	1	-1E+10	1	-1E+10	1	-1E+10	1	-1E+10	1	-1E+10	1
4902551	84	C	12/09/2022	20:02	-131.495	48.160	0	250.30	0	4.9200	0	33.7910	0	26.728	0	248.046	0	102.5	4	33.0	4	-1E+10	1	-1E+10	1	-1E+10	1	-1E+10	1	-1E+10	1	-1E+10	1
4902551	84	C	12/09/2022	20:02	-131.495	48.160	0	251.20	0	4.9190	0	33.7920	0	26.729	0	248.937	0	102.1	4	32.9	4	-1E+10	1	-1E+10	1	-1E+10	1	-1E+10	1	-1E+10	1	-1E+10	1
4902551	84	C	12/09/2022	20:02	-131.495	48.160	0	252.10	0	4.9110	0	33.7920	0	26.730	0	249.828	0	101.7	4	32.7	4	-1E+10	1	-1E+10	1	-1E+10	1	-1E+10	1	-1E+10	1	-1E+10	1
4902551	84	C	12/09/2022	20:02	-131.495	48.160	0	253.00	0	4.9070	0	33.7920	0	26.730	0	250.720	0	101.2	4	32.5	4	-1E+10	1	-1E+10	1	-1E+10	1	-1E+10	1	-1E+10	1	-1E+10	1
4902551	84	C	12/09/2022	20:02	-131.495	48.160	0	253.80	0	4.9000	0	33.7920	0	26.731	0	251.512	0	100.6	4	32.4	4	-1E+10	1	-1E+10	1	-1E+10	1	-1E+10	1	-1E+10	1	-1E+10	1
4902551	84	C	12/09/2022	20:02	-131.495	48.160	0	254.70	0	4.8830	0	33.7930	0	26.734	0	252.403	0	100.2	4	32.2	4	-1E+10	1	-1E+10	1	-1E+10	1	-1E+10	1	-1E+10	1	-1E+10	1
4902551	84	C	12/09/2022	20:02	-131.495	48.160	0	255.60	0	4.8930	0	33.7940	0	26.734	0	253.295	0	99.7	4	32.1	4	-1E+10	1	-1E+10	1	-1E+10	1	-1E+10	1	-1E+10	1	-1E+10	1
4902551	84	C	12/09/2022	20:02	-131.495	48.160	0	256.90	0	4.8850	0	33.7930	0	26.734	0	254.582	0	98.9	4	31.8	4	-1E+10	1	-1E+10	1	-1E+10	1	-1E+10	1	-1E+10	1	-1E+10	1
4902551	84	C	12/09/2022	20:02	-131.495	48.160	0	258.20	0	4.8700	0	33.7940	0	26.736	0	255.870	0	97.9	4	31.5	4	-1E+10	1	-1E+10	1	-1E+10	1	-1E+10	1	-1E+10	1	-1E+10	1
4902551	84	C	12/09/2022	20:02	-131.495	48.160	0	259.10	0	4.8740	0	33.7940	0	26.736	0	256.761	0	97.3	4	31.3	4	-1E+10	1	-1E+10	1	-1E+10	1	-1E+10	1	-1E+10	1	-1E+10	1
4902551	84	C	12/09/2022	20:02	-131.495	48.160	0	260.00	0	4.8450	0	33.7960	0	26.741	0	257.652	0	96.7	4	31.1	4	-1E+10	1	-1E+10	1	-1E+10	1	-1E+10	1	-1E+10	1	-1E+10	1
4902551	84	C	12/09/2022	20:02	-131.495	48.160	0	260.80	0	4.8280	0	33.7990	0	26.745	0	258.445	0	96.2	4	30.9	4	-1E+10	1	-1E+10	1	-1E+10	1	-1E+10	1	-1E+10	1	-1E+10	1
4902551	84	C	12/09/2022	20:02	-131.495	48.160	0	261.70	0	4.8190	0	33.7990	0	26.746	0	259.336	0	95.7	4	30.7	4	-1E+10	1	-1E+10	1	-1E+10	1	-1E+10	1	-1E+10	1	-1E+10	1
4902551	84	C	12/09/2022	20:02	-131.495	48.160	0	262.60	0	4.8030	0	33.7980	0	26.747	0	260.227	0	95.4	4	30.6	4	-1E+10	1	-1E+10	1	-1E+10	1	-1E+10	1	-1E+10	1	-1E+10	1
4902551	84	C	12/09/2022	20:02	-131.495	48.160	0	263.90	0	4.7570	0	33.8010	0	26.754	0	261.515	0	95.0	4	30.5	4	-1E+10	1	-1E+10	1	-1E+10	1	-1E+10	1	-1E+10	1	-1E+10	1
4902551	84	C	12/09/2022	20:02	-131.495	48.160	0	265.30	0	4.7570	0	33.8000	0	26.753	0	262.901	0	94.5	4	30.3	4	-1E+10	1	-1E+10	1	-1E+10	1	-1E+10	1	-1E+10	1	-1E+10	1
4902551	84	C	12/09/2022	20:02	-131.495	48.160	0	266.20	0	4.7560	0	33.8010	0	26.754	0	263.792	0	94.1	4	30.2	4	-1E+10	1	-1E+10	1	-1E+10	1	-1E+10	1	-1E+10	1	-1E+10	1
4902551	84	C	12/09/2022	20:02	-131.495	48.160	0	267.10	0	4.7560	0	33.8000	0	26.754	0	264.684	0	93.8	4	30.1	4	-1E+10	1	-1E+10	1	-1E+10	1	-1E+10	1	-1E+10	1	-1E+10	1
4902551	84	C	12/09/2022	20:02	-131.495	48.160	0	268.00	0	4.7490	0	33.8010	0	26.755	0	265.575	0	93.3	4	29.9	4	-1E+10	1	-1E+10	1	-1E+10	1	-1E+10	1	-1E+10	1	-1E+10	1
4902551	84	C	12/09/2022	20:02	-131.495	48.160	0	268.90	0	4.7340	0	33.8010	0	26.757	0	266.466	0	93.0	4	29.8	4	-1E+10	1	-1E+10	1	-1E+10	1	-1E+10	1	-1E+10	1	-1E+10	1
4902551	84	C	12/09/2022	20:02	-131.495	48.160	0	269.80	0	4.7320	0	33.8020	0	26.758	0	267.357	0	92.5	4	29.6	4	-1E+10	1	-1E+10	1	-1E+10	1	-1E+10	1	-1E+10	1	-1E+10	1
4902551	84	C	12/09/2022	20:02	-131.495	48.160	0	270.70	0	4.7200	0	33.8040	0	26.761	0	268.249	0	92.1	4	29.5	4	-1E+10	1	-1E+10	1	-1E+10	1	-1E+10	1	-1E+10	1	-1E+10	1
4902551	84	C	12/09/2022	20:02	-131.495	48.160	0	271.70	0	4.7090	0	33.8040	0	26.762	0	269.239	0	91.8	4	29.4	4	-1E+10	1	-1E+10	1	-1E+10	1	-1E+10	1	-1E+10	1	-1E+10	1
4902551	84	C	12/09/2022	20:02	-131.495	48.160	0	272.60	0	4.7060	0	33.8040	0	26.762	0	270.130	0	91.4	4	29.3	4	-1E+10	1	-1E+10	1	-1E+10	1	-1E+10	1	-1E+10	1	-1E+10	1
4902551	84	C	12/09/2022	20:02	-131.495	48.160	0	273.90	0	4.6990	0	33.8060	0	26.765	0	271.418	0	90.9	4	29.1	4	-1E+10	1	-1E+10	1	-1E+10	1	-1E+10	1	-1E+10	1	-1E+10	1
4902551	84	C	12/09/2022	20:02	-131.495	48.160	0	275.40	0	4.6880	0	33.8060	0	26.766	0	272.903	0	90.3	4	28.9	4	-1E+10	1	-1E+10	1	-1E+10	1	-1E+10	1	-1E+10	1	-1E+10	1
4902551	84	C	12/09/2022	20:02	-131.495	48.160	0	276.30	0	4.6840	0	33.8080	0	26.768	0	273.794	0	90.0	4	28.8	4	-1E+10	1	-1E+10	1	-1E+10	1	-1E+10	1	-1E+10	1	-1E+10	1
4902551	84	C	12/09/2022	20:02	-131.495	48.160	0	277.20	0	4.6780	0	33.8080	0	26.769	0	274.686	0	89.6	4	28.7	4	-1E+10	1	-1E+10	1	-1E+10	1	-1E+10	1	-1E+10	1	-1E+10	1
4902551	84	C	12/09/2022	20:02	-131.495	48.160	0	278.20	0	4.6720	0	33.8070	0	26.768	0	275.676	0	89.2	4	28.5	4	-1E+10	1	-1E+10	1	-1E+10	1	-1E+10	1	-1E+10	1	-1E+10	1
4902551	84	C	12/09/2022	20:02	-131.495	48.160	0	279.10	0	4.6660	0	33.8080	0	26.770	0	276.567	0	88.8	4	28.4	4	-1E+10	1	-1E+10	1	-1E+10	1	-1E+10	1	-1E+10	1	-1E+10	1
4902551	84	C	12/09/2022	20:02	-131.495	48.160	0	280.10	0	4.6660	0	33.8080	0	26.770	0	277.557	0	88.3	4	28.2	4	-1E+10	1	-1E+10	1	-1E+10	1	-1E+10	1	-1E+10	1	-1E+10	1
4902551	84	C	12/09/2022	20:02	-131.495	48.160	0	281.10	0	4.6570	0	33.8120	0	26.774	0	278.548	0	87.9	4	28.1	4	-1E+10	1	-1E+10	1	-1E+10	1	-1E+10	1	-1E+10	1	-1E+10	1
4902551	84	C	12/09/2022	20:02	-131.495	48.160	0	282.00	0	4.6460	0	33.8120	0	26.775	0	279.439	0	87.5	4	28.0	4	-1E+10	1	-1E+10	1	-1E+10	1	-1E+10	1	-1E+10	1	-1E+10	1
4902551	84	C	12/09/2022	20:02	-131.495	48.160	0	283.00	0	4.6420	0	33.8130	0	26.777	0	280.429	0	87.1	4	27.9	4	-1E+10	1	-1E+10	1	-1E+10	1	-1E+10	1	-1E+10	1	-1E+10	1
4902551	84	C	12/09/2022	20:02	-131.495	48.160	0	284.00	0	4.6400	0	33.8140	0	26.778	0	281.419	0	86.7	4	27.7	4	-1E+10	1	-1E+10	1	-1E+10	1	-1E+10	1	-1E+10	1	-1E+10	1
4902551	84	C	12/09/2022	20:02	-131.495	48.160	0	284.90	0	4.6320	0	33.8140	0	26.778	0	282.310	0	86.3	4	27.6	4	-1E+10	1	-1E+10	1	-1E+10	1	-1E+10	1	-1E+10	1	-1E+10	1
4902551	84	C	12/09/2022	20:02	-131.495	48.160	0	285.90	0	4.6240	0	33.8160	0	26.781	0	283.301	0	86.0	4	27.5	4	-1E+10	1	-1E+10	1	-1E+10	1	-1E+10	1	-1E+10	1	-1E+10	1
4902551	84	C	12/09/2022	20:02	-131.495	48.160	0	286.90	0	4.6170	0	33.8170	0	26.782	0	284.291	0	85.6	4	27.4	4	-1E+10	1	-1E+10	1	-1E+10	1	-1E+10	1	-1E+10	1	-1E+10	1
4902551	84	C	12/09/2022	20:02	-131.495	48.160	0	287.90	0	4.6180	0	33.8170	0	26.782	0	285.281	0	85.2	4	27.2	4	-1E+10	1	-1E+10	1	-1E+10	1	-1E+10	1	-1E+10	1	-1E+10	1
4902551	84	C	12/09/2022	20:02	-131.495	48.160	0	288.80	0	4.6090	0	33.8190	0	26.785	0	286.172	0	84.8	4	27.1	4	-1E+10	1	-1E+10	1	-1E+10	1	-1E+10	1	-1E+10	1	-1E+10	1
4902551	84	C	12/09/2022	20:02	-131.495	48.160	0	289.90	0	4.5990	0	33.8210	0	26.788	0	287.262	0	84.5	4	27.0	4	-1E+10	1	-1E+10	1	-1E+10	1	-1E+10	1	-1E+10	1	-1E+10	1
4902551	84	C	12/09/2022	20:02	-131.495	48.160	0	290.90	0	4.5980	0	33.8220	0	26.789	0	288.252	0	84.1	4	26.9	4	-1E+10	1	-1E+10	1	-1E+10	1	-1E+10	1	-1E+10	1	-1E+10	1
4902551	84	C	12/09/2022	20:02	-131.495	48.160	0	291.90	0	4.5970	0	33.8230	0	26.789	0	289.242	0	83.8	4	26.8	4	-1E+10	1	-1E+10	1	-1E+10	1	-1E+10	1	-1E+10	1	-1E+10	1
4902551	84	C	12/09/2022	20:02	-131.495	48.160	0	292.90	0	4.5960	0	33.8240	0	26.790	0	290.232	0	83.5	4	26.7	4	-1E+10	1	-1E+10	1	-1E+10	1	-1E+10	1	-1E+10	1	-1E+10	1
4902551	84	C	12/09/2022	20:02	-131.495	48.160	0	293.90	0	4.5960	0	33.8230	0	26.790	0	291.222	0	83.1	4	26.6	4	-1E+10	1	-1E+10	1	-1E+10	1	-1E+10	1	-1E+10	1	-1E+10	1
4902551	84	C	12/09/2022	20:02	-131.495	48.160	0	294.90	0	4.5960	0	33.8240	0	26.790	0	292.212	0	82.7	4	26.4	4	-1E+10	1	-1E+10	1	-1E+10	1	-1E+10	1	-1E+10	1	-1E+10	1
4902551	84	C	12/09/2022	20:02	-131.495	48.160	0	295.80	0	4.5960	0	33.8240	0	26.790	0	293.104	0	82.2	4	26.3	4	-1E+10	1	-1E+10	1	-1E+10	1	-1E+10	1	-1E+10	1	-1E+10	1
4902551	84	C	12/09/2022	20:02	-131.495	48.160	0	296.90	0	4.5980	0	33.8250	0	26.791	0	294.193	0	81.7	4	26.1	4	-1E+10	1	-1E+10	1	-1E+10	1	-1E+10	1	-1E+10	1	-1E+10	1
4902551	84	C	12/09/2022	20:02	-131.495	48.160	0	297.80	0	4.5950	0	33.8300	0	26.795	0	295.084	0	81.2	4	25.9	4	-1E+10	1	-1E+10	1	-1E+10	1	-1E+10	1	-1E+10	1	-1E+10	1
4902551	84	C	12/09/2022	20:02	-131.495	48.160	0	298.90	0	4.5930	0	33.8310	0	26.796	0	296.173	0	80.7	4	25.8	4	-1E+10	1	-1E+10	1	-1E+10	1	-1E+10	1	-1E+10	1	-1E+10	1
4902551	84	C	12/09/2022	20:02	-131.495	48.160	0	299.90	0	4.5810	0	33.8320	0	26.798	0	297.163	0	80.3	4	25.7	4	-1E+10	1	-1E+10	1	-1E+10	1	-1E+10	1	-1E+10	1	-1E+10	1
4902551	84	C	12/09/2022	20:02	-131.495	48.160	0	300.90	0	4.5650	0	33.8350	0	26.803	0	298.153	0	80.1	4	25.6	4	-1E+10	1	-1E+10	1	-1E+10	1	-1E+10	1	-1E+10	1	-1E+10	1
4902551	84	C	12/09/2022	20:02	-131.495	48.160	0	301.90	0	4.5570	0	33.8350	0	26.803	0	299.144	0	79.7	4	25.4	4	-1E+10	1	-1E+10	1	-1E+10	1	-1E+10	1	-1E+10	1	-1E+10	1
4902551	84	C	12/09/2022	20:02	-131.495	48.160	0	302.90	0	4.5520	0	33.8370	0	26.806	0	300.134	0	79.4	4	25.3	4	-1E+10	1	-1E+10	1	-1E+10	1	-1E+10	1	-1E+10	1	-1E+10	1
4902551	84	C	12/09/2022	20:02	-131.495	48.160	0	304.00	0	4.5510	0	33.8370	0	26.806	0	301.223	0	79.1	4	25.3	4	-1E+10	1	-1E+10	1	-1E+10	1	-1E+10	1	-1E+10	1	-1E+10	1
4902551	84	C	12/09/2022	20:02	-131.495	48.160	0	305.00	0	4.5480	0	33.8380	0	26.807	0	302.213	0	78.8	4	25.2	4	-1E+10	1	-1E+10	1	-1E+10	1	-1E+10	1	-1E+10	1	-1E+10	1
4902551	84	C	12/09/2022	20:02	-131.495	48.160	0	306.00	0	4.5460	0	33.8400	0	26.809	0	303.203	0	78.6	4	25.1	4	-1E+10	1	-1E+10	1	-1E+10	1	-1E+10	1	-1E+10	1	-1E+10	1
4902551	84	C	12/09/2022	20:02	-131.495	48.160	0	307.00	0	4.5430	0	33.8410	0	26.810	0	304.193	0	78.3	4	25.0	4	-1E+10	1	-1E+10	1	-1E+10	1	-1E+10	1	-1E+10	1	-1E+10	1
4902551	84	C	12/09/2022	20:02	-131.495	48.160	0	308.10	0	4.5420	0	33.8410	0	26.810	0	305.282	0	77.9	4	24.9	4	-1E+10	1	-1E+10	1	-1E+10	1	-1E+10	1	-1E+10	1	-1E+10	1
4902551	84	C	12/09/2022	20:02	-131.495	48.160	0	309.10	0	4.5360	0	33.8430	0	26.812	0	306.273	0	77.6	4	24.8	4	-1E+10	1	-1E+10	1	-1E+10	1	-1E+10	1	-1E+10	1	-1E+10	1
4902551	84	C	12/09/2022	20:02	-131.495	48.160	0	310.20	0	4.5350	0	33.8430	0	26.812	0	307.362	0	77.3	4	24.7	4	-1E+10	1	-1E+10	1	-1E+10	1	-1E+10	1	-1E+10	1	-1E+10	1
4902551	84	C	12/09/2022	20:02	-131.495	48.160	0	311.20	0	4.5330	0	33.8440	0	26.813	0	308.352	0	77.1	4	24.6	4	-1E+10	1	-1E+10	1	-1E+10	1	-1E+10	1	-1E+10	1	-1E+10	1
4902551	84	C	12/09/2022	20:02	-131.495	48.160	0	312.30	0	4.5270	0	33.8460	0	26.815	0	309.441	0	76.8	4	24.5	4	-1E+10	1	-1E+10	1	-1E+10	1	-1E+10	1	-1E+10	1	-1E+10	1
4902551	84	C	12/09/2022	20:02	-131.495	48.160	0	313.30	0	4.5250	0	33.8470	0	26.816	0	310.431	0	76.5	4	24.4	4	-1E+10	1	-1E+10	1	-1E+10	1	-1E+10	1	-1E+10	1	-1E+10	1
4902551	84	C	12/09/2022	20:02	-131.495	48.160	0	314.40	0	4.5230	0	33.8470	0	26.817	0	311.520	0	76.3	4	24.3	4	-1E+10	1	-1E+10	1	-1E+10	1	-1E+10	1	-1E+10	1	-1E+10	1
4902551	84	C	12/09/2022	20:02	-131.495	48.160	0	315.40	0	4.5220	0	33.8480	0	26.818	0	312.510	0	76.0	4	24.2	4	-1E+10	1	-1E+10	1	-1E+10	1	-1E+10	1	-1E+10	1	-1E+10	1
4902551	84	C	12/09/2022	20:02	-131.495	48.160	0	316.50	0	4.5200	0	33.8500	0	26.819	0	313.599	0	75.7	4	24.1	4	-1E+10	1	-1E+10	1	-1E+10	1	-1E+10	1	-1E+10	1	-1E+10	1
4902551	84	C	12/09/2022	20:02	-131.495	48.160	0	317.50	0	4.5160	0	33.8520	0	26.821	0	314.589	0	75.5	4	24.1	4	-1E+10	1	-1E+10	1	-1E+10	1	-1E+10	1	-1E+10	1	-1E+10	1
4902551	84	C	12/09/2022	20:02	-131.495	48.160	0	318.50	0	4.5140	0	33.8530	0	26.822	0	315.579	0	75.2	4	24.0	4	-1E+10	1	-1E+10	1	-1E+10	1	-1E+10	1	-1E+10	1	-1E+10	1
4902551	84	C	12/09/2022	20:02	-131.495	48.160	0	319.60	0	4.5130	0	33.8540	0	26.823	0	316.669	0	75.0	4	23.9	4	-1E+10	1	-1E+10	1	-1E+10	1	-1E+10	1	-1E+10	1	-1E+10	1
4902551	84	C	12/09/2022	20:02	-131.495	48.160	0	320.60	0	4.5120	0	33.8540	0	26.823	0	317.659	0	74.8	4	23.8	4	-1E+10	1	-1E+10	1	-1E+10	1	-1E+10	1	-1E+10	1	-1E+10	1
4902551	84	C	12/09/2022	20:02	-131.495	48.160	0	321.70	0	4.5080	0	33.8550	0	26.825	0	318.748	0	74.6	4	23.8	4	-1E+10	1	-1E+10	1	-1E+10	1	-1E+10	1	-1E+10	1	-1E+10	1
4902551	84	C	12/09/2022	20:02	-131.495	48.160	0	322.70	0	4.5050	0	33.8570	0	26.827	0	319.738	0	74.4	4	23.7	4	-1E+10	1	-1E+10	1	-1E+10	1	-1E+10	1	-1E+10	1	-1E+10	1
4902551	84	C	12/09/2022	20:02	-131.495	48.160	0	323.70	0	4.5040	0	33.8570	0	26.827	0	320.728	0	74.2	4	23.7	4	-1E+10	1	-1E+10	1	-1E+10	1	-1E+10	1	-1E+10	1	-1E+10	1
4902551	84	C	12/09/2022	20:02	-131.495	48.160	0	324.80	0	4.5030	0	33.8580	0	26.828	0	321.817	0	74.0	4	23.6	4	-1E+10	1	-1E+10	1	-1E+10	1	-1E+10	1	-1E+10	1	-1E+10	1
4902551	84	C	12/09/2022	20:02	-131.495	48.160	0	325.80	0	4.5040	0	33.8580	0	26.828	0	322.807	0	73.8	4	23.5	4	-1E+10	1	-1E+10	1	-1E+10	1	-1E+10	1	-1E+10	1	-1E+10	1
4902551	84	C	12/09/2022	20:02	-131.495	48.160	0	326.90	0	4.5040	0	33.8580	0	26.828	0	323.896	0	73.5	4	23.4	4	-1E+10	1	-1E+10	1	-1E+10	1	-1E+10	1	-1E+10	1	-1E+10	1
4902551	84	C	12/09/2022	20:02	-131.495	48.160	0	327.90	0	4.5030	0	33.8580	0	26.828	0	324.886	0	73.3	4	23.4	4	-1E+10	1	-1E+10	1	-1E+10	1	-1E+10	1	-1E+10	1	-1E+10	1
4902551	84	C	12/09/2022	20:02	-131.495	48.160	0	328.90	0	4.5030	0	33.8580	0	26.828	0	325.876	0	72.9	4	23.2	4	-1E+10	1	-1E+10	1	-1E+10	1	-1E+10	1	-1E+10	1	-1E+10	1
4902551	84	C	12/09/2022	20:02	-131.495	48.160	0	330.00	0	4.5000	0	33.8600	0	26.830	0	326.965	0	72.6	4	23.2	4	-1E+10	1	-1E+10	1	-1E+10	1	-1E+10	1	-1E+10	1	-1E+10	1
4902551	84	C	12/09/2022	20:02	-131.495	48.160	0	331.00	0	4.4940	0	33.8630	0	26.833	0	327.955	0	72.4	4	23.1	4	-1E+10	1	-1E+10	1	-1E+10	1	-1E+10	1	-1E+10	1	-1E+10	1
4902551	84	C	12/09/2022	20:02	-131.495	48.160	0	332.10	0	4.4940	0	33.8630	0	26.833	0	329.044	0	72.2	4	23.0	4	-1E+10	1	-1E+10	1	-1E+10	1	-1E+10	1	-1E+10	1	-1E+10	1
4902551	84	C	12/09/2022	20:02	-131.495	48.160	0	333.20	0	4.4930	0	33.8640	0	26.834	0	330.133	0	71.9	4	22.9	4	-1E+10	1	-1E+10	1	-1E+10	1	-1E+10	1	-1E+10	1	-1E+10	1
4902551	84	C	12/09/2022	20:02	-131.495	48.160	0	334.20	0	4.4940	0	33.8650	0	26.834	0	331.123	0	71.6	4	22.8	4	-1E+10	1	-1E+10	1	-1E+10	1	-1E+10	1	-1E+10	1	-1E+10	1
4902551	84	C	12/09/2022	20:02	-131.495	48.160	0	335.20	0	4.4950	0	33.8690	0	26.837	0	332.113	0	71.4	4	22.8	4	-1E+10	1	-1E+10	1	-1E+10	1	-1E+10	1	-1E+10	1	-1E+10	1
4902551	84	C	12/09/2022	20:02	-131.495	48.160	0	336.30	0	4.4950	0	33.8700	0	26.838	0	333.202	0	71.2	4	22.7	4	-1E+10	1	-1E+10	1	-1E+10	1	-1E+10	1	-1E+10	1	-1E+10	1
4902551	84	C	12/09/2022	20:02	-131.495	48.160	0	337.30	0	4.4950	0	33.8710	0	26.839	0	334.192	0	71.0	4	22.6	4	-1E+10	1	-1E+10	1	-1E+10	1	-1E+10	1	-1E+10	1	-1E+10	1
4902551	84	C	12/09/2022	20:02	-131.495	48.160	0	338.30	0	4.4940	0	33.8710	0	26.839	0	335.182	0	70.8	4	22.6	4	-1E+10	1	-1E+10	1	-1E+10	1	-1E+10	1	-1E+10	1	-1E+10	1
4902551	84	C	12/09/2022	20:02	-131.495	48.160	0	339.40	0	4.4920	0	33.8730	0	26.841	0	336.271	0	70.6	4	22.5	4	-1E+10	1	-1E+10	1	-1E+10	1	-1E+10	1	-1E+10	1	-1E+10	1
4902551	84	C	12/09/2022	20:02	-131.495	48.160	0	340.50	0	4.4890	0	33.8740	0	26.842	0	337.360	0	70.4	4	22.4	4	-1E+10	1	-1E+10	1	-1E+10	1	-1E+10	1	-1E+10	1	-1E+10	1
4902551	84	C	12/09/2022	20:02	-131.495	48.160	0	341.50	0	4.4890	0	33.8750	0	26.843	0	338.350	0	70.3	4	22.4	4	-1E+10	1	-1E+10	1	-1E+10	1	-1E+10	1	-1E+10	1	-1E+10	1
4902551	84	C	12/09/2022	20:02	-131.495	48.160	0	342.60	0	4.4880	0	33.8750	0	26.843	0	339.439	0	70.1	4	22.3	4	-1E+10	1	-1E+10	1	-1E+10	1	-1E+10	1	-1E+10	1	-1E+10	1
4902551	84	C	12/09/2022	20:02	-131.495	48.160	0	343.60	0	4.4880	0	33.8760	0	26.844	0	340.429	0	69.9	4	22.3	4	-1E+10	1	-1E+10	1	-1E+10	1	-1E+10	1	-1E+10	1	-1E+10	1
4902551	84	C	12/09/2022	20:02	-131.495	48.160	0	344.70	0	4.4870	0	33.8760	0	26.844	0	341.518	0	69.7	4	22.2	4	-1E+10	1	-1E+10	1	-1E+10	1	-1E+10	1	-1E+10	1	-1E+10	1
4902551	84	C	12/09/2022	20:02	-131.495	48.160	0	345.70	0	4.4870	0	33.8770	0	26.845	0	342.508	0	69.5	4	22.1	4	-1E+10	1	-1E+10	1	-1E+10	1	-1E+10	1	-1E+10	1	-1E+10	1
4902551	84	C	12/09/2022	20:02	-131.495	48.160	0	346.80	0	4.4860	0	33.8770	0	26.845	0	343.596	0	69.2	4	22.1	4	-1E+10	1	-1E+10	1	-1E+10	1	-1E+10	1	-1E+10	1	-1E+10	1
4902551	84	C	12/09/2022	20:02	-131.495	48.160	0	347.80	0	4.4860	0	33.8770	0	26.845	0	344.586	0	68.9	4	22.0	4	-1E+10	1	-1E+10	1	-1E+10	1	-1E+10	1	-1E+10	1	-1E+10	1
4902551	84	C	12/09/2022	20:02	-131.495	48.160	0	348.90	0	4.4860	0	33.8770	0	26.845	0	345.675	0	68.7	4	21.9	4	-1E+10	1	-1E+10	1	-1E+10	1	-1E+10	1	-1E+10	1	-1E+10	1
4902551	84	C	12/09/2022	20:02	-131.495	48.160	0	349.90	0	4.4860	0	33.8770	0	26.845	0	346.665	0	68.4	4	21.8	4	-1E+10	1	-1E+10	1	-1E+10	1	-1E+10	1	-1E+10	1	-1E+10	1
4902551	84	C	12/09/2022	20:02	-131.495	48.160	0	353.00	0	4.4760	0	33.8810	0	26.849	0	349.734	0	67.5	4	21.5	4	-1E+10	1	-1E+10	1	-1E+10	1	-1E+10	1	-1E+10	1	-1E+10	1
4902551	84	C	12/09/2022	20:02	-131.495	48.160	0	357.90	0	4.4630	0	33.8870	0	26.855	0	354.584	0	66.2	4	21.1	4	-1E+10	1	-1E+10	1	-1E+10	1	-1E+10	1	-1E+10	1	-1E+10	1
4902551	84	C	12/09/2022	20:02	-131.495	48.160	0	362.80	0	4.4510	0	33.8920	0	26.861	0	359.435	0	65.0	4	20.7	4	-1E+10	1	-1E+10	1	-1E+10	1	-1E+10	1	-1E+10	1	-1E+10	1
4902551	84	C	12/09/2022	20:02	-131.495	48.160	0	367.80	0	4.4420	0	33.8960	0	26.865	0	364.384	0	63.7	4	20.3	4	-1E+10	1	-1E+10	1	-1E+10	1	-1E+10	1	-1E+10	1	-1E+10	1
4902551	84	C	12/09/2022	20:02	-131.495	48.160	0	372.60	0	4.4290	0	33.9010	0	26.870	0	369.135	0	62.8	4	20.0	4	-1E+10	1	-1E+10	1	-1E+10	1	-1E+10	1	-1E+10	1	-1E+10	1
4902551	84	C	12/09/2022	20:02	-131.495	48.160	0	377.50	0	4.4190	0	33.9050	0	26.874	0	373.985	0	61.9	4	19.7	4	-1E+10	1	-1E+10	1	-1E+10	1	-1E+10	1	-1E+10	1	-1E+10	1
4902551	84	C	12/09/2022	20:02	-131.495	48.160	0	382.90	0	4.4090	0	33.9080	0	26.878	0	379.330	0	60.7	4	19.3	4	-1E+10	1	-1E+10	1	-1E+10	1	-1E+10	1	-1E+10	1	-1E+10	1
4902551	84	C	12/09/2022	20:02	-131.495	48.160	0	388.20	0	4.3910	0	33.9140	0	26.885	0	384.576	0	59.4	4	18.9	4	-1E+10	1	-1E+10	1	-1E+10	1	-1E+10	1	-1E+10	1	-1E+10	1
4902551	84	C	12/09/2022	20:02	-131.495	48.160	0	393.20	0	4.3780	0	33.9180	0	26.889	0	389.524	0	58.1	4	18.5	4	-1E+10	1	-1E+10	1	-1E+10	1	-1E+10	1	-1E+10	1	-1E+10	1
4902551	84	C	12/09/2022	20:02	-131.495	48.160	0	398.10	0	4.3540	0	33.9260	0	26.898	0	394.374	0	57.0	4	18.1	4	-1E+10	1	-1E+10	1	-1E+10	1	-1E+10	1	-1E+10	1	-1E+10	1
4902551	84	C	12/09/2022	20:02	-131.495	48.160	0	403.20	0	4.3450	0	33.9300	0	26.902	0	399.421	0	56.2	4	17.8	4	-1E+10	1	-1E+10	1	-1E+10	1	-1E+10	1	-1E+10	1	-1E+10	1
4902551	84	C	12/09/2022	20:02	-131.495	48.160	0	408.20	0	4.3400	0	33.9330	0	26.905	0	404.369	0	54.9	4	17.5	4	-1E+10	1	-1E+10	1	-1E+10	1	-1E+10	1	-1E+10	1	-1E+10	1
4902551	84	C	12/09/2022	20:02	-131.495	48.160	0	413.30	0	4.3220	0	33.9400	0	26.913	0	409.417	0	53.3	4	16.9	4	-1E+10	1	-1E+10	1	-1E+10	1	-1E+10	1	-1E+10	1	-1E+10	1
4902551	84	C	12/09/2022	20:02	-131.495	48.160	0	417.90	0	4.3080	0	33.9470	0	26.920	0	413.969	0	52.1	4	16.5	4	-1E+10	1	-1E+10	1	-1E+10	1	-1E+10	1	-1E+10	1	-1E+10	1
4902551	84	C	12/09/2022	20:02	-131.495	48.160	0	422.70	0	4.2960	0	33.9540	0	26.927	0	418.719	0	50.6	4	16.1	4	-1E+10	1	-1E+10	1	-1E+10	1	-1E+10	1	-1E+10	1	-1E+10	1
4902551	84	C	12/09/2022	20:02	-131.495	48.160	0	427.90	0	4.2820	0	33.9640	0	26.936	0	423.864	0	49.0	4	15.5	4	-1E+10	1	-1E+10	1	-1E+10	1	-1E+10	1	-1E+10	1	-1E+10	1
4902551	84	C	12/09/2022	20:02	-131.495	48.160	0	433.10	0	4.2680	0	33.9750	0	26.946	0	429.010	0	47.4	4	15.0	4	-1E+10	1	-1E+10	1	-1E+10	1	-1E+10	1	-1E+10	1	-1E+10	1
4902551	84	C	12/09/2022	20:02	-131.495	48.160	0	437.90	0	4.2540	0	33.9860	0	26.957	0	433.760	0	46.1	4	14.6	4	-1E+10	1	-1E+10	1	-1E+10	1	-1E+10	1	-1E+10	1	-1E+10	1
4902551	84	C	12/09/2022	20:02	-131.495	48.160	0	442.70	0	4.2440	0	33.9950	0	26.965	0	438.509	0	45.1	4	14.3	4	-1E+10	1	-1E+10	1	-1E+10	1	-1E+10	1	-1E+10	1	-1E+10	1
4902551	84	C	12/09/2022	20:02	-131.495	48.160	0	448.00	0	4.2380	0	33.9990	0	26.969	0	443.753	0	44.3	4	14.1	4	-1E+10	1	-1E+10	1	-1E+10	1	-1E+10	1	-1E+10	1	-1E+10	1
4902551	84	C	12/09/2022	20:02	-131.495	48.160	0	452.90	0	4.2300	0	34.0050	0	26.974	0	448.602	0	43.4	4	13.7	4	-1E+10	1	-1E+10	1	-1E+10	1	-1E+10	1	-1E+10	1	-1E+10	1
4902551	84	C	12/09/2022	20:02	-131.495	48.160	0	457.80	0	4.2210	0	34.0120	0	26.981	0	453.450	0	42.8	4	13.6	4	-1E+10	1	-1E+10	1	-1E+10	1	-1E+10	1	-1E+10	1	-1E+10	1
4902551	84	C	12/09/2022	20:02	-131.495	48.160	0	463.00	0	4.2190	0	34.0130	0	26.982	0	458.595	0	41.9	4	13.3	4	-1E+10	1	-1E+10	1	-1E+10	1	-1E+10	1	-1E+10	1	-1E+10	1
4902551	84	C	12/09/2022	20:02	-131.495	48.160	0	467.90	0	4.2130	0	34.0180	0	26.987	0	463.443	0	40.5	4	12.8	4	-1E+10	1	-1E+10	1	-1E+10	1	-1E+10	1	-1E+10	1	-1E+10	1
4902551	84	C	12/09/2022	20:02	-131.495	48.160	0	472.70	0	4.1900	0	34.0310	0	26.999	0	468.192	0	39.1	4	12.4	4	-1E+10	1	-1E+10	1	-1E+10	1	-1E+10	1	-1E+10	1	-1E+10	1
4902551	84	C	12/09/2022	20:02	-131.495	48.160	0	478.00	0	4.1710	0	34.0420	0	27.010	0	473.435	0	38.2	4	12.1	4	-1E+10	1	-1E+10	1	-1E+10	1	-1E+10	1	-1E+10	1	-1E+10	1
4902551	84	C	12/09/2022	20:02	-131.495	48.160	0	482.90	0	4.1620	0	34.0460	0	27.014	0	478.282	0	37.4	4	11.9	4	-1E+10	1	-1E+10	1	-1E+10	1	-1E+10	1	-1E+10	1	-1E+10	1
4902551	84	C	12/09/2022	20:02	-131.495	48.160	0	487.90	0	4.1530	0	34.0500	0	27.018	0	483.229	0	36.8	4	11.6	4	-1E+10	1	-1E+10	1	-1E+10	1	-1E+10	1	-1E+10	1	-1E+10	1
4902551	84	C	12/09/2022	20:02	-131.495	48.160	0	493.00	0	4.1450	0	34.0530	0	27.022	0	488.274	0	36.0	4	11.4	4	-1E+10	1	-1E+10	1	-1E+10	1	-1E+10	1	-1E+10	1	-1E+10	1
4902551	84	C	12/09/2022	20:02	-131.495	48.160	0	497.70	0	4.1380	0	34.0560	0	27.025	0	492.923	0	35.1	4	11.1	4	-1E+10	1	-1E+10	1	-1E+10	1	-1E+10	1	-1E+10	1	-1E+10	1
4902551	84	C	12/09/2022	20:02	-131.495	48.160	0	502.80	0	4.1260	0	34.0610	0	27.030	0	497.968	0	34.1	4	10.8	4	-1E+10	1	-1E+10	1	-1E+10	1	-1E+10	1	-1E+10	1	-1E+10	1
4902551	84	C	12/09/2022	20:02	-131.495	48.160	0	508.00	0	4.1130	0	34.0660	0	27.035	0	503.112	0	33.2	4	10.5	4	-1E+10	1	-1E+10	1	-1E+10	1	-1E+10	1	-1E+10	1	-1E+10	1
4902551	84	C	12/09/2022	20:02	-131.495	48.160	0	512.70	0	4.1070	0	34.0690	0	27.038	0	507.761	0	32.5	4	10.3	4	-1E+10	1	-1E+10	1	-1E+10	1	-1E+10	1	-1E+10	1	-1E+10	1
4902551	84	C	12/09/2022	20:02	-131.495	48.160	0	517.50	0	4.1010	0	34.0720	0	27.041	0	512.509	0	31.6	4	10.0	4	-1E+10	1	-1E+10	1	-1E+10	1	-1E+10	1	-1E+10	1	-1E+10	1
4902551	84	C	12/09/2022	20:02	-131.495	48.160	0	522.80	0	4.0820	0	34.0810	0	27.051	0	517.751	0	30.5	4	9.6	4	-1E+10	1	-1E+10	1	-1E+10	1	-1E+10	1	-1E+10	1	-1E+10	1
4902551	84	C	12/09/2022	20:02	-131.495	48.160	0	528.20	0	4.0680	0	34.0880	0	27.058	0	523.092	0	29.8	4	9.4	4	-1E+10	1	-1E+10	1	-1E+10	1	-1E+10	1	-1E+10	1	-1E+10	1
4902551	84	C	12/09/2022	20:02	-131.495	48.160	0	533.10	0	4.0630	0	34.0910	0	27.061	0	527.939	0	29.2	4	9.2	4	-1E+10	1	-1E+10	1	-1E+10	1	-1E+10	1	-1E+10	1	-1E+10	1
4902551	84	C	12/09/2022	20:02	-131.495	48.160	0	538.10	0	4.0500	0	34.0960	0	27.066	0	532.884	0	28.5	4	9.0	4	-1E+10	1	-1E+10	1	-1E+10	1	-1E+10	1	-1E+10	1	-1E+10	1
4902551	84	C	12/09/2022	20:02	-131.495	48.160	0	543.10	0	4.0380	0	34.1020	0	27.072	0	537.829	0	27.9	4	8.8	4	-1E+10	1	-1E+10	1	-1E+10	1	-1E+10	1	-1E+10	1	-1E+10	1
4902551	84	C	12/09/2022	20:02	-131.495	48.160	0	548.20	0	4.0270	0	34.1070	0	27.077	0	542.873	0	27.4	4	8.7	4	-1E+10	1	-1E+10	1	-1E+10	1	-1E+10	1	-1E+10	1	-1E+10	1
4902551	84	C	12/09/2022	20:02	-131.495	48.160	0	553.30	0	4.0180	0	34.1110	0	27.081	0	547.917	0	26.9	4	8.5	4	-1E+10	1	-1E+10	1	-1E+10	1	-1E+10	1	-1E+10	1	-1E+10	1
4902551	84	C	12/09/2022	20:02	-131.495	48.160	0	558.00	0	4.0110	0	34.1140	0	27.084	0	552.565	0	26.5	4	8.4	4	-1E+10	1	-1E+10	1	-1E+10	1	-1E+10	1	-1E+10	1	-1E+10	1
4902551	84	C	12/09/2022	20:02	-131.495	48.160	0	562.90	0	3.9980	0	34.1190	0	27.090	0	557.410	0	26.1	4	8.2	4	-1E+10	1	-1E+10	1	-1E+10	1	-1E+10	1	-1E+10	1	-1E+10	1
4902551	84	C	12/09/2022	20:02	-131.495	48.160	0	567.90	0	3.9870	0	34.1230	0	27.094	0	562.355	0	25.7	4	8.1	4	-1E+10	1	-1E+10	1	-1E+10	1	-1E+10	1	-1E+10	1	-1E+10	1
4902551	84	C	12/09/2022	20:02	-131.495	48.160	0	572.80	0	3.9780	0	34.1260	0	27.097	0	567.200	0	25.2	4	8.0	4	-1E+10	1	-1E+10	1	-1E+10	1	-1E+10	1	-1E+10	1	-1E+10	1
4902551	84	C	12/09/2022	20:02	-131.495	48.160	0	577.90	0	3.9580	0	34.1340	0	27.106	0	572.243	0	24.8	4	7.8	4	-1E+10	1	-1E+10	1	-1E+10	1	-1E+10	1	-1E+10	1	-1E+10	1
4902551	84	C	12/09/2022	20:02	-131.495	48.160	0	583.20	0	3.9480	0	34.1370	0	27.109	0	577.484	0	24.3	4	7.7	4	-1E+10	1	-1E+10	1	-1E+10	1	-1E+10	1	-1E+10	1	-1E+10	1
4902551	84	C	12/09/2022	20:02	-131.495	48.160	0	588.00	0	3.9320	0	34.1430	0	27.116	0	582.230	0	23.8	4	7.5	4	-1E+10	1	-1E+10	1	-1E+10	1	-1E+10	1	-1E+10	1	-1E+10	1
4902551	84	C	12/09/2022	20:02	-131.495	48.160	0	593.10	0	3.9100	0	34.1510	0	27.124	0	587.273	0	23.5	4	7.4	4	-1E+10	1	-1E+10	1	-1E+10	1	-1E+10	1	-1E+10	1	-1E+10	1
4902551	84	C	12/09/2022	20:02	-131.495	48.160	0	598.20	0	3.8980	0	34.1540	0	27.128	0	592.316	0	23.3	4	7.3	4	-1E+10	1	-1E+10	1	-1E+10	1	-1E+10	1	-1E+10	1	-1E+10	1
4902551	84	C	12/09/2022	20:02	-131.495	48.160	0	603.10	0	3.8890	0	34.1560	0	27.131	0	597.161	0	23.1	4	7.3	4	-1E+10	1	-1E+10	1	-1E+10	1	-1E+10	1	-1E+10	1	-1E+10	1
4902551	84	C	12/09/2022	20:02	-131.495	48.160	0	608.10	0	3.8850	0	34.1580	0	27.133	0	602.104	0	22.7	4	7.2	4	-1E+10	1	-1E+10	1	-1E+10	1	-1E+10	1	-1E+10	1	-1E+10	1
4902551	84	C	12/09/2022	20:02	-131.495	48.160	0	613.20	0	3.8740	0	34.1620	0	27.137	0	607.146	0	22.3	4	7.0	4	-1E+10	1	-1E+10	1	-1E+10	1	-1E+10	1	-1E+10	1	-1E+10	1
4902551	84	C	12/09/2022	20:02	-131.495	48.160	0	617.80	0	3.8640	0	34.1650	0	27.140	0	611.694	0	21.7	4	6.8	4	-1E+10	1	-1E+10	1	-1E+10	1	-1E+10	1	-1E+10	1	-1E+10	1
4902551	84	C	12/09/2022	20:02	-131.495	48.160	0	622.50	0	3.8530	0	34.1700	0	27.145	0	616.341	0	21.2	4	6.7	4	-1E+10	1	-1E+10	1	-1E+10	1	-1E+10	1	-1E+10	1	-1E+10	1
4902551	84	C	12/09/2022	20:02	-131.495	48.160	0	627.80	0	3.8350	0	34.1760	0	27.152	0	621.580	0	20.9	4	6.6	4	-1E+10	1	-1E+10	1	-1E+10	1	-1E+10	1	-1E+10	1	-1E+10	1
4902551	84	C	12/09/2022	20:02	-131.495	48.160	0	633.20	0	3.8300	0	34.1780	0	27.154	0	626.919	0	20.4	4	6.4	4	-1E+10	1	-1E+10	1	-1E+10	1	-1E+10	1	-1E+10	1	-1E+10	1
4902551	84	C	12/09/2022	20:02	-131.495	48.160	0	637.90	0	3.8270	0	34.1820	0	27.158	0	631.565	0	20.1	4	6.3	4	-1E+10	1	-1E+10	1	-1E+10	1	-1E+10	1	-1E+10	1	-1E+10	1
4902551	84	C	12/09/2022	20:02	-131.495	48.160	0	642.70	0	3.8170	0	34.1850	0	27.161	0	636.310	0	20.1	4	6.3	4	-1E+10	1	-1E+10	1	-1E+10	1	-1E+10	1	-1E+10	1	-1E+10	1
4902551	84	C	12/09/2022	20:02	-131.495	48.160	0	648.10	0	3.8010	0	34.1870	0	27.164	0	641.648	0	20.1	4	6.3	4	-1E+10	1	-1E+10	1	-1E+10	1	-1E+10	1	-1E+10	1	-1E+10	1
4902551	84	C	12/09/2022	20:02	-131.495	48.160	0	653.00	0	3.7890	0	34.1890	0	27.167	0	646.492	0	19.8	4	6.2	4	-1E+10	1	-1E+10	1	-1E+10	1	-1E+10	1	-1E+10	1	-1E+10	1
4902551	84	C	12/09/2022	20:02	-131.495	48.160	0	658.00	0	3.7840	0	34.1920	0	27.170	0	651.434	0	19.2	4	6.0	4	-1E+10	1	-1E+10	1	-1E+10	1	-1E+10	1	-1E+10	1	-1E+10	1
4902551	84	C	12/09/2022	20:02	-131.495	48.160	0	662.90	0	3.7830	0	34.1950	0	27.173	0	656.277	0	18.9	4	5.9	4	-1E+10	1	-1E+10	1	-1E+10	1	-1E+10	1	-1E+10	1	-1E+10	1
4902551	84	C	12/09/2022	20:02	-131.495	48.160	0	667.90	0	3.7820	0	34.1970	0	27.174	0	661.220	0	18.8	4	5.9	4	-1E+10	1	-1E+10	1	-1E+10	1	-1E+10	1	-1E+10	1	-1E+10	1
4902551	84	C	12/09/2022	20:02	-131.495	48.160	0	672.80	0	3.7670	0	34.1980	0	27.177	0	666.063	0	18.7	4	5.9	4	-1E+10	1	-1E+10	1	-1E+10	1	-1E+10	1	-1E+10	1	-1E+10	1
4902551	84	C	12/09/2022	20:02	-131.495	48.160	0	677.80	0	3.7560	0	34.2010	0	27.180	0	671.005	0	18.4	4	5.8	4	-1E+10	1	-1E+10	1	-1E+10	1	-1E+10	1	-1E+10	1	-1E+10	1
4902551	84	C	12/09/2022	20:02	-131.495	48.160	0	682.70	0	3.7470	0	34.2050	0	27.184	0	675.848	0	18.1	4	5.7	4	-1E+10	1	-1E+10	1	-1E+10	1	-1E+10	1	-1E+10	1	-1E+10	1
4902551	84	C	12/09/2022	20:02	-131.495	48.160	0	687.70	0	3.7300	0	34.2080	0	27.188	0	680.789	0	17.9	4	5.6	4	-1E+10	1	-1E+10	1	-1E+10	1	-1E+10	1	-1E+10	1	-1E+10	1
4902551	84	C	12/09/2022	20:02	-131.495	48.160	0	692.70	0	3.7190	0	34.2100	0	27.191	0	685.731	0	17.4	4	5.5	4	-1E+10	1	-1E+10	1	-1E+10	1	-1E+10	1	-1E+10	1	-1E+10	1
4902551	84	C	12/09/2022	20:02	-131.495	48.160	0	697.70	0	3.7100	0	34.2150	0	27.196	0	690.672	0	16.9	4	5.3	4	-1E+10	1	-1E+10	1	-1E+10	1	-1E+10	1	-1E+10	1	-1E+10	1
4902551	84	C	12/09/2022	20:02	-131.495	48.160	0	703.20	0	3.7030	0	34.2200	0	27.201	0	696.108	0	16.5	4	5.2	4	-1E+10	1	-1E+10	1	-1E+10	1	-1E+10	1	-1E+10	1	-1E+10	1
4902551	84	C	12/09/2022	20:02	-131.495	48.160	0	708.50	0	3.7040	0	34.2230	0	27.203	0	701.345	0	16.4	4	5.2	4	-1E+10	1	-1E+10	1	-1E+10	1	-1E+10	1	-1E+10	1	-1E+10	1
4902551	84	C	12/09/2022	20:02	-131.495	48.160	0	713.10	0	3.6900	0	34.2250	0	27.206	0	705.891	0	16.4	4	5.2	4	-1E+10	1	-1E+10	1	-1E+10	1	-1E+10	1	-1E+10	1	-1E+10	1
4902551	84	C	12/09/2022	20:02	-131.495	48.160	0	718.00	0	3.6790	0	34.2260	0	27.208	0	710.733	0	16.2	4	5.1	4	-1E+10	1	-1E+10	1	-1E+10	1	-1E+10	1	-1E+10	1	-1E+10	1
4902551	84	C	12/09/2022	20:02	-131.495	48.160	0	722.90	0	3.6720	0	34.2290	0	27.211	0	715.575	0	16.1	4	5.0	4	-1E+10	1	-1E+10	1	-1E+10	1	-1E+10	1	-1E+10	1	-1E+10	1
4902551	84	C	12/09/2022	20:02	-131.495	48.160	0	727.80	0	3.6640	0	34.2310	0	27.213	0	720.417	0	15.9	4	5.0	4	-1E+10	1	-1E+10	1	-1E+10	1	-1E+10	1	-1E+10	1	-1E+10	1
4902551	84	C	12/09/2022	20:02	-131.495	48.160	0	732.70	0	3.6600	0	34.2330	0	27.215	0	725.259	0	15.8	4	4.9	4	-1E+10	1	-1E+10	1	-1E+10	1	-1E+10	1	-1E+10	1	-1E+10	1
4902551	84	C	12/09/2022	20:02	-131.495	48.160	0	737.60	0	3.6600	0	34.2340	0	27.216	0	730.100	0	15.6	4	4.9	4	-1E+10	1	-1E+10	1	-1E+10	1	-1E+10	1	-1E+10	1	-1E+10	1
4902551	84	C	12/09/2022	20:02	-131.495	48.160	0	742.90	0	3.6520	0	34.2350	0	27.218	0	735.337	0	15.5	4	4.9	4	-1E+10	1	-1E+10	1	-1E+10	1	-1E+10	1	-1E+10	1	-1E+10	1
4902551	84	C	12/09/2022	20:02	-131.495	48.160	0	748.20	0	3.6380	0	34.2390	0	27.222	0	740.574	0	15.3	4	4.8	4	-1E+10	1	-1E+10	1	-1E+10	1	-1E+10	1	-1E+10	1	-1E+10	1
4902551	84	C	12/09/2022	20:02	-131.495	48.160	0	753.10	0	3.6260	0	34.2420	0	27.226	0	745.415	0	15.2	4	4.8	4	-1E+10	1	-1E+10	1	-1E+10	1	-1E+10	1	-1E+10	1	-1E+10	1
4902551	84	C	12/09/2022	20:02	-131.495	48.160	0	758.10	0	3.6170	0	34.2440	0	27.229	0	750.355	0	14.9	4	4.7	4	-1E+10	1	-1E+10	1	-1E+10	1	-1E+10	1	-1E+10	1	-1E+10	1
4902551	84	C	12/09/2022	20:02	-131.495	48.160	0	763.00	0	3.6120	0	34.2470	0	27.232	0	755.196	0	14.6	4	4.6	4	-1E+10	1	-1E+10	1	-1E+10	1	-1E+10	1	-1E+10	1	-1E+10	1
4902551	84	C	12/09/2022	20:02	-131.495	48.160	0	767.90	0	3.6060	0	34.2510	0	27.235	0	760.037	0	14.4	4	4.5	4	-1E+10	1	-1E+10	1	-1E+10	1	-1E+10	1	-1E+10	1	-1E+10	1
4902551	84	C	12/09/2022	20:02	-131.495	48.160	0	772.90	0	3.6010	0	34.2520	0	27.237	0	764.977	0	14.1	4	4.4	4	-1E+10	1	-1E+10	1	-1E+10	1	-1E+10	1	-1E+10	1	-1E+10	1
4902551	84	C	12/09/2022	20:02	-131.495	48.160	0	777.90	0	3.5950	0	34.2570	0	27.241	0	769.916	0	14.0	4	4.4	4	-1E+10	1	-1E+10	1	-1E+10	1	-1E+10	1	-1E+10	1	-1E+10	1
4902551	84	C	12/09/2022	20:02	-131.495	48.160	0	782.90	0	3.5800	0	34.2590	0	27.244	0	774.856	0	14.0	4	4.4	4	-1E+10	1	-1E+10	1	-1E+10	1	-1E+10	1	-1E+10	1	-1E+10	1
4902551	84	C	12/09/2022	20:02	-131.495	48.160	0	788.00	0	3.5670	0	34.2620	0	27.248	0	779.894	0	14.0	4	4.4	4	-1E+10	1	-1E+10	1	-1E+10	1	-1E+10	1	-1E+10	1	-1E+10	1
4902551	84	C	12/09/2022	20:02	-131.495	48.160	0	793.00	0	3.5580	0	34.2630	0	27.250	0	784.833	0	14.0	4	4.4	4	-1E+10	1	-1E+10	1	-1E+10	1	-1E+10	1	-1E+10	1	-1E+10	1
4902551	84	C	12/09/2022	20:02	-131.495	48.160	0	798.10	0	3.5460	0	34.2650	0	27.252	0	789.871	0	13.9	4	4.3	4	-1E+10	1	-1E+10	1	-1E+10	1	-1E+10	1	-1E+10	1	-1E+10	1
4902551	84	C	12/09/2022	20:02	-131.495	48.160	0	803.10	0	3.5350	0	34.2670	0	27.255	0	794.810	0	13.6	4	4.3	4	-1E+10	1	-1E+10	1	-1E+10	1	-1E+10	1	-1E+10	1	-1E+10	1
4902551	84	C	12/09/2022	20:02	-131.495	48.160	0	808.00	0	3.5240	0	34.2720	0	27.260	0	799.650	0	13.4	4	4.2	4	-1E+10	1	-1E+10	1	-1E+10	1	-1E+10	1	-1E+10	1	-1E+10	1
4902551	84	C	12/09/2022	20:02	-131.495	48.160	0	812.90	0	3.5190	0	34.2760	0	27.264	0	804.490	0	13.2	4	4.1	4	-1E+10	1	-1E+10	1	-1E+10	1	-1E+10	1	-1E+10	1	-1E+10	1
4902551	84	C	12/09/2022	20:02	-131.495	48.160	0	818.00	0	3.4960	0	34.2800	0	27.269	0	809.527	0	13.1	4	4.1	4	-1E+10	1	-1E+10	1	-1E+10	1	-1E+10	1	-1E+10	1	-1E+10	1
4902551	84	C	12/09/2022	20:02	-131.495	48.160	0	823.10	0	3.4800	0	34.2820	0	27.273	0	814.564	0	12.9	4	4.0	4	-1E+10	1	-1E+10	1	-1E+10	1	-1E+10	1	-1E+10	1	-1E+10	1
4902551	84	C	12/09/2022	20:02	-131.495	48.160	0	828.00	0	3.4830	0	34.2870	0	27.276	0	819.404	0	12.7	4	4.0	4	-1E+10	1	-1E+10	1	-1E+10	1	-1E+10	1	-1E+10	1	-1E+10	1
4902551	84	C	12/09/2022	20:02	-131.495	48.160	0	832.90	0	3.4650	0	34.2880	0	27.279	0	824.243	0	12.5	4	3.9	4	-1E+10	1	-1E+10	1	-1E+10	1	-1E+10	1	-1E+10	1	-1E+10	1
4902551	84	C	12/09/2022	20:02	-131.495	48.160	0	837.90	0	3.4620	0	34.2930	0	27.283	0	829.182	0	12.3	4	3.8	4	-1E+10	1	-1E+10	1	-1E+10	1	-1E+10	1	-1E+10	1	-1E+10	1
4902551	84	C	12/09/2022	20:02	-131.495	48.160	0	843.00	0	3.4540	0	34.2970	0	27.287	0	834.218	0	12.2	4	3.8	4	-1E+10	1	-1E+10	1	-1E+10	1	-1E+10	1	-1E+10	1	-1E+10	1
4902551	84	C	12/09/2022	20:02	-131.495	48.160	0	848.20	0	3.4430	0	34.2990	0	27.290	0	839.354	0	12.2	4	3.8	4	-1E+10	1	-1E+10	1	-1E+10	1	-1E+10	1	-1E+10	1	-1E+10	1
4902551	84	C	12/09/2022	20:02	-131.495	48.160	0	853.00	0	3.4350	0	34.3010	0	27.292	0	844.094	0	12.1	4	3.8	4	-1E+10	1	-1E+10	1	-1E+10	1	-1E+10	1	-1E+10	1	-1E+10	1
4902551	84	C	12/09/2022	20:02	-131.495	48.160	0	857.90	0	3.4290	0	34.3030	0	27.294	0	848.933	0	12.1	4	3.8	4	-1E+10	1	-1E+10	1	-1E+10	1	-1E+10	1	-1E+10	1	-1E+10	1
4902551	84	C	12/09/2022	20:02	-131.495	48.160	0	862.90	0	3.4110	0	34.3050	0	27.298	0	853.870	0	12.0	4	3.8	4	-1E+10	1	-1E+10	1	-1E+10	1	-1E+10	1	-1E+10	1	-1E+10	1
4902551	84	C	12/09/2022	20:02	-131.495	48.160	0	867.90	0	3.3970	0	34.3080	0	27.301	0	858.808	0	12.0	4	3.7	4	-1E+10	1	-1E+10	1	-1E+10	1	-1E+10	1	-1E+10	1	-1E+10	1
4902551	84	C	12/09/2022	20:02	-131.495	48.160	0	872.90	0	3.3880	0	34.3100	0	27.304	0	863.745	0	12.0	4	3.7	4	-1E+10	1	-1E+10	1	-1E+10	1	-1E+10	1	-1E+10	1	-1E+10	1
4902551	84	C	12/09/2022	20:02	-131.495	48.160	0	877.80	0	3.3800	0	34.3130	0	27.307	0	868.584	0	12.0	4	3.7	4	-1E+10	1	-1E+10	1	-1E+10	1	-1E+10	1	-1E+10	1	-1E+10	1
4902551	84	C	12/09/2022	20:02	-131.495	48.160	0	882.90	0	3.3750	0	34.3140	0	27.308	0	873.619	0	11.9	4	3.7	4	-1E+10	1	-1E+10	1	-1E+10	1	-1E+10	1	-1E+10	1	-1E+10	1
4902551	84	C	12/09/2022	20:02	-131.495	48.160	0	887.90	0	3.3640	0	34.3170	0	27.312	0	878.556	0	11.8	4	3.7	4	-1E+10	1	-1E+10	1	-1E+10	1	-1E+10	1	-1E+10	1	-1E+10	1
4902551	84	C	12/09/2022	20:02	-131.495	48.160	0	893.10	0	3.3510	0	34.3190	0	27.315	0	883.691	0	11.8	4	3.7	4	-1E+10	1	-1E+10	1	-1E+10	1	-1E+10	1	-1E+10	1	-1E+10	1
4902551	84	C	12/09/2022	20:02	-131.495	48.160	0	898.30	0	3.3400	0	34.3220	0	27.318	0	888.825	0	11.8	4	3.7	4	-1E+10	1	-1E+10	1	-1E+10	1	-1E+10	1	-1E+10	1	-1E+10	1
4902551	84	C	12/09/2022	20:02	-131.495	48.160	0	902.90	0	3.3340	0	34.3230	0	27.320	0	893.366	0	11.8	4	3.7	4	-1E+10	1	-1E+10	1	-1E+10	1	-1E+10	1	-1E+10	1	-1E+10	1
4902551	84	C	12/09/2022	20:02	-131.495	48.160	0	907.60	0	3.3220	0	34.3260	0	27.323	0	898.007	0	11.8	4	3.7	4	-1E+10	1	-1E+10	1	-1E+10	1	-1E+10	1	-1E+10	1	-1E+10	1
4902551	84	C	12/09/2022	20:02	-131.495	48.160	0	912.80	0	3.3100	0	34.3280	0	27.326	0	903.141	0	11.7	4	3.6	4	-1E+10	1	-1E+10	1	-1E+10	1	-1E+10	1	-1E+10	1	-1E+10	1
4902551	84	C	12/09/2022	20:02	-131.495	48.160	0	918.00	0	3.3030	0	34.3290	0	27.327	0	908.274	0	11.7	4	3.6	4	-1E+10	1	-1E+10	1	-1E+10	1	-1E+10	1	-1E+10	1	-1E+10	1
4902551	84	C	12/09/2022	20:02	-131.495	48.160	0	923.10	0	3.2930	0	34.3320	0	27.331	0	913.309	0	11.7	4	3.6	4	-1E+10	1	-1E+10	1	-1E+10	1	-1E+10	1	-1E+10	1	-1E+10	1
4902551	84	C	12/09/2022	20:02	-131.495	48.160	0	928.20	0	3.2850	0	34.3340	0	27.333	0	918.344	0	11.7	4	3.6	4	-1E+10	1	-1E+10	1	-1E+10	1	-1E+10	1	-1E+10	1	-1E+10	1
4902551	84	C	12/09/2022	20:02	-131.495	48.160	0	933.30	0	3.2790	0	34.3350	0	27.335	0	923.378	0	11.7	4	3.6	4	-1E+10	1	-1E+10	1	-1E+10	1	-1E+10	1	-1E+10	1	-1E+10	1
4902551	84	C	12/09/2022	20:02	-131.495	48.160	0	938.00	0	3.2750	0	34.3360	0	27.336	0	928.018	0	11.7	4	3.6	4	-1E+10	1	-1E+10	1	-1E+10	1	-1E+10	1	-1E+10	1	-1E+10	1
4902551	84	C	12/09/2022	20:02	-131.495	48.160	0	942.70	0	3.2700	0	34.3370	0	27.337	0	932.658	0	11.7	4	3.6	4	-1E+10	1	-1E+10	1	-1E+10	1	-1E+10	1	-1E+10	1	-1E+10	1
4902551	84	C	12/09/2022	20:02	-131.495	48.160	0	947.80	0	3.2630	0	34.3380	0	27.339	0	937.692	0	11.7	4	3.6	4	-1E+10	1	-1E+10	1	-1E+10	1	-1E+10	1	-1E+10	1	-1E+10	1
4902551	84	C	12/09/2022	20:02	-131.495	48.160	0	953.00	0	3.2510	0	34.3410	0	27.342	0	942.825	0	11.7	4	3.6	4	-1E+10	1	-1E+10	1	-1E+10	1	-1E+10	1	-1E+10	1	-1E+10	1
4902551	84	C	12/09/2022	20:02	-131.495	48.160	0	958.20	0	3.2370	0	34.3440	0	27.346	0	947.957	0	11.7	4	3.6	4	-1E+10	1	-1E+10	1	-1E+10	1	-1E+10	1	-1E+10	1	-1E+10	1
4902551	84	C	12/09/2022	20:02	-131.495	48.160	0	962.90	0	3.2290	0	34.3460	0	27.348	0	952.596	0	11.7	4	3.6	4	-1E+10	1	-1E+10	1	-1E+10	1	-1E+10	1	-1E+10	1	-1E+10	1
4902551	84	C	12/09/2022	20:02	-131.495	48.160	0	967.50	0	3.2230	0	34.3470	0	27.350	0	957.137	0	11.7	4	3.6	4	-1E+10	1	-1E+10	1	-1E+10	1	-1E+10	1	-1E+10	1	-1E+10	1
4902551	84	C	12/09/2022	20:02	-131.495	48.160	0	973.00	0	3.2100	0	34.3500	0	27.353	0	962.565	0	11.7	4	3.6	4	-1E+10	1	-1E+10	1	-1E+10	1	-1E+10	1	-1E+10	1	-1E+10	1
4902551	84	C	12/09/2022	20:02	-131.495	48.160	0	977.90	0	3.2020	0	34.3510	0	27.355	0	967.401	0	11.7	4	3.6	4	-1E+10	1	-1E+10	1	-1E+10	1	-1E+10	1	-1E+10	1	-1E+10	1
4902551	84	C	12/09/2022	20:02	-131.495	48.160	0	982.80	0	3.1930	0	34.3520	0	27.356	0	972.237	0	11.7	4	3.6	4	-1E+10	1	-1E+10	1	-1E+10	1	-1E+10	1	-1E+10	1	-1E+10	1
4902551	84	C	12/09/2022	20:02	-131.495	48.160	0	987.60	0	3.1800	0	34.3550	0	27.360	0	976.975	0	11.7	4	3.6	4	-1E+10	1	-1E+10	1	-1E+10	1	-1E+10	1	-1E+10	1	-1E+10	1
4902551	84	C	12/09/2022	20:02	-131.495	48.160	0	992.90	0	3.1650	0	34.3580	0	27.364	0	982.205	0	11.7	4	3.6	4	-1E+10	1	-1E+10	1	-1E+10	1	-1E+10	1	-1E+10	1	-1E+10	1
4902551	84	C	12/09/2022	20:02	-131.495	48.160	0	998.30	0	3.1520	0	34.3600	0	27.367	0	987.534	0	11.7	4	3.6	4	-1E+10	1	-1E+10	1	-1E+10	1	-1E+10	1	-1E+10	1	-1E+10	1
4902551	84	C	12/09/2022	20:02	-131.495	48.160	0	1005.50	0	3.1390	0	34.3630	0	27.370	0	994.640	0	11.7	4	3.6	4	-1E+10	1	-1E+10	1	-1E+10	1	-1E+10	1	-1E+10	1	-1E+10	1
4902551	84	C	12/09/2022	20:02	-131.495	48.160	0	1015.20	0	3.1150	0	34.3680	0	27.377	0	1004.212	0	11.8	4	3.6	4	-1E+10	1	-1E+10	1	-1E+10	1	-1E+10	1	-1E+10	1	-1E+10	1
4902551	84	C	12/09/2022	20:02	-131.495	48.160	0	1025.30	0	3.1010	0	34.3710	0	27.380	0	1014.178	0	11.8	4	3.7	4	-1E+10	1	-1E+10	1	-1E+10	1	-1E+10	1	-1E+10	1	-1E+10	1
4902551	84	C	12/09/2022	20:02	-131.495	48.160	0	1035.50	0	3.0780	0	34.3750	0	27.386	0	1024.242	0	11.9	4	3.7	4	-1E+10	1	-1E+10	1	-1E+10	1	-1E+10	1	-1E+10	1	-1E+10	1
4902551	84	C	12/09/2022	20:02	-131.495	48.160	0	1045.70	0	3.0620	0	34.3780	0	27.389	0	1034.306	0	11.9	4	3.7	4	-1E+10	1	-1E+10	1	-1E+10	1	-1E+10	1	-1E+10	1	-1E+10	1
4902551	84	C	12/09/2022	20:02	-131.495	48.160	0	1055.30	0	3.0470	0	34.3800	0	27.393	0	1043.778	0	12.0	4	3.7	4	-1E+10	1	-1E+10	1	-1E+10	1	-1E+10	1	-1E+10	1	-1E+10	1
4902551	84	C	12/09/2022	20:02	-131.495	48.160	0	1065.30	0	3.0310	0	34.3830	0	27.396	0	1053.644	0	12.0	4	3.7	4	-1E+10	1	-1E+10	1	-1E+10	1	-1E+10	1	-1E+10	1	-1E+10	1
4902551	84	C	12/09/2022	20:02	-131.495	48.160	0	1075.20	0	3.0130	0	34.3870	0	27.401	0	1063.410	0	12.1	4	3.7	4	-1E+10	1	-1E+10	1	-1E+10	1	-1E+10	1	-1E+10	1	-1E+10	1
4902551	84	C	12/09/2022	20:02	-131.495	48.160	0	1085.10	0	2.9990	0	34.3900	0	27.405	0	1073.176	0	12.2	4	3.8	4	-1E+10	1	-1E+10	1	-1E+10	1	-1E+10	1	-1E+10	1	-1E+10	1
4902551	84	C	12/09/2022	20:02	-131.495	48.160	0	1095.00	0	2.9830	0	34.3930	0	27.409	0	1082.942	0	12.2	4	3.8	4	-1E+10	1	-1E+10	1	-1E+10	1	-1E+10	1	-1E+10	1	-1E+10	1
4902551	84	C	12/09/2022	20:02	-131.495	48.160	0	1105.10	0	2.9700	0	34.3950	0	27.412	0	1092.904	0	12.3	4	3.8	4	-1E+10	1	-1E+10	1	-1E+10	1	-1E+10	1	-1E+10	1	-1E+10	1
4902551	84	C	12/09/2022	20:02	-131.495	48.160	0	1115.50	0	2.9530	0	34.3980	0	27.416	0	1103.162	0	12.4	4	3.8	4	-1E+10	1	-1E+10	1	-1E+10	1	-1E+10	1	-1E+10	1	-1E+10	1
4902551	84	C	12/09/2022	20:02	-131.495	48.160	0	1125.40	0	2.9430	0	34.4000	0	27.418	0	1112.927	0	12.4	4	3.8	4	-1E+10	1	-1E+10	1	-1E+10	1	-1E+10	1	-1E+10	1	-1E+10	1
4902551	84	C	12/09/2022	20:02	-131.495	48.160	0	1135.20	0	2.9320	0	34.4020	0	27.421	0	1122.592	0	12.5	4	3.9	4	-1E+10	1	-1E+10	1	-1E+10	1	-1E+10	1	-1E+10	1	-1E+10	1
4902551	84	C	12/09/2022	20:02	-131.495	48.160	0	1145.40	0	2.9200	0	34.4040	0	27.424	0	1132.651	0	12.6	4	3.9	4	-1E+10	1	-1E+10	1	-1E+10	1	-1E+10	1	-1E+10	1	-1E+10	1
4902551	84	C	12/09/2022	20:02	-131.495	48.160	0	1155.50	0	2.8960	0	34.4080	0	27.429	0	1142.611	0	12.7	4	3.9	4	-1E+10	1	-1E+10	1	-1E+10	1	-1E+10	1	-1E+10	1	-1E+10	1
4902551	84	C	12/09/2022	20:02	-131.495	48.160	0	1165.40	0	2.8800	0	34.4110	0	27.433	0	1152.374	0	12.9	4	4.0	4	-1E+10	1	-1E+10	1	-1E+10	1	-1E+10	1	-1E+10	1	-1E+10	1
4902551	84	C	12/09/2022	20:02	-131.495	48.160	0	1175.20	0	2.8670	0	34.4130	0	27.436	0	1162.037	0	13.0	4	4.0	4	-1E+10	1	-1E+10	1	-1E+10	1	-1E+10	1	-1E+10	1	-1E+10	1
4902551	84	C	12/09/2022	20:02	-131.495	48.160	0	1185.30	0	2.8510	0	34.4160	0	27.440	0	1171.996	0	13.1	4	4.0	4	-1E+10	1	-1E+10	1	-1E+10	1	-1E+10	1	-1E+10	1	-1E+10	1
4902551	84	C	12/09/2022	20:02	-131.495	48.160	0	1195.40	0	2.8380	0	34.4190	0	27.443	0	1181.954	0	13.3	4	4.1	4	-1E+10	1	-1E+10	1	-1E+10	1	-1E+10	1	-1E+10	1	-1E+10	1
4902551	84	C	12/09/2022	20:02	-131.495	48.160	0	1205.10	0	2.8220	0	34.4220	0	27.447	0	1191.517	0	13.5	4	4.2	4	-1E+10	1	-1E+10	1	-1E+10	1	-1E+10	1	-1E+10	1	-1E+10	1
4902551	84	C	12/09/2022	20:02	-131.495	48.160	0	1215.40	0	2.8080	0	34.4250	0	27.451	0	1201.672	0	13.7	4	4.2	4	-1E+10	1	-1E+10	1	-1E+10	1	-1E+10	1	-1E+10	1	-1E+10	1
4902551	84	C	12/09/2022	20:02	-131.495	48.160	0	1225.70	0	2.7940	0	34.4280	0	27.454	0	1211.826	0	13.9	4	4.3	4	-1E+10	1	-1E+10	1	-1E+10	1	-1E+10	1	-1E+10	1	-1E+10	1
4902551	84	C	12/09/2022	20:02	-131.495	48.160	0	1235.70	0	2.7830	0	34.4310	0	27.458	0	1221.684	0	14.1	4	4.3	4	-1E+10	1	-1E+10	1	-1E+10	1	-1E+10	1	-1E+10	1	-1E+10	1
4902551	84	C	12/09/2022	20:02	-131.495	48.160	0	1245.70	0	2.7690	0	34.4330	0	27.461	0	1231.541	0	14.3	4	4.4	4	-1E+10	1	-1E+10	1	-1E+10	1	-1E+10	1	-1E+10	1	-1E+10	1
4902551	84	C	12/09/2022	20:02	-131.495	48.160	0	1255.60	0	2.7480	0	34.4360	0	27.465	0	1241.299	0	14.6	4	4.5	4	-1E+10	1	-1E+10	1	-1E+10	1	-1E+10	1	-1E+10	1	-1E+10	1
4902551	84	C	12/09/2022	20:02	-131.495	48.160	0	1265.30	0	2.7290	0	34.4400	0	27.470	0	1250.860	0	14.8	4	4.5	4	-1E+10	1	-1E+10	1	-1E+10	1	-1E+10	1	-1E+10	1	-1E+10	1
4902551	84	C	12/09/2022	20:02	-131.495	48.160	0	1275.40	0	2.7160	0	34.4420	0	27.473	0	1260.815	0	15.0	4	4.6	4	-1E+10	1	-1E+10	1	-1E+10	1	-1E+10	1	-1E+10	1	-1E+10	1
4902551	84	C	12/09/2022	20:02	-131.495	48.160	0	1285.40	0	2.7030	0	34.4450	0	27.476	0	1270.670	0	15.3	4	4.7	4	-1E+10	1	-1E+10	1	-1E+10	1	-1E+10	1	-1E+10	1	-1E+10	1
4902551	84	C	12/09/2022	20:02	-131.495	48.160	0	1295.10	0	2.6870	0	34.4480	0	27.480	0	1280.229	0	15.6	4	4.8	4	-1E+10	1	-1E+10	1	-1E+10	1	-1E+10	1	-1E+10	1	-1E+10	1
4902551	84	C	12/09/2022	20:02	-131.495	48.160	0	1305.20	0	2.6720	0	34.4500	0	27.483	0	1290.182	0	15.9	4	4.9	4	-1E+10	1	-1E+10	1	-1E+10	1	-1E+10	1	-1E+10	1	-1E+10	1
4902551	84	C	12/09/2022	20:02	-131.495	48.160	0	1315.40	0	2.6570	0	34.4530	0	27.487	0	1300.234	0	16.3	4	5.0	4	-1E+10	1	-1E+10	1	-1E+10	1	-1E+10	1	-1E+10	1	-1E+10	1
4902551	84	C	12/09/2022	20:02	-131.495	48.160	0	1325.60	0	2.6360	0	34.4570	0	27.492	0	1310.284	0	16.7	4	5.1	4	-1E+10	1	-1E+10	1	-1E+10	1	-1E+10	1	-1E+10	1	-1E+10	1
4902551	84	C	12/09/2022	20:02	-131.495	48.160	0	1335.60	0	2.6210	0	34.4600	0	27.496	0	1320.138	0	17.0	4	5.2	4	-1E+10	1	-1E+10	1	-1E+10	1	-1E+10	1	-1E+10	1	-1E+10	1
4902551	84	C	12/09/2022	20:02	-131.495	48.160	0	1345.50	0	2.6010	0	34.4630	0	27.500	0	1329.892	0	17.4	4	5.3	4	-1E+10	1	-1E+10	1	-1E+10	1	-1E+10	1	-1E+10	1	-1E+10	1
4902551	84	C	12/09/2022	20:02	-131.495	48.160	0	1355.40	0	2.5860	0	34.4660	0	27.503	0	1339.645	0	17.8	4	5.5	4	-1E+10	1	-1E+10	1	-1E+10	1	-1E+10	1	-1E+10	1	-1E+10	1
4902551	84	C	12/09/2022	20:02	-131.495	48.160	0	1365.10	0	2.5730	0	34.4680	0	27.506	0	1349.202	0	18.2	4	5.6	4	-1E+10	1	-1E+10	1	-1E+10	1	-1E+10	1	-1E+10	1	-1E+10	1
4902551	84	C	12/09/2022	20:02	-131.495	48.160	0	1375.10	0	2.5620	0	34.4710	0	27.510	0	1359.053	0	18.6	4	5.7	4	-1E+10	1	-1E+10	1	-1E+10	1	-1E+10	1	-1E+10	1	-1E+10	1
4902551	84	C	12/09/2022	20:02	-131.495	48.160	0	1385.30	0	2.5510	0	34.4730	0	27.512	0	1369.101	0	18.8	4	5.8	4	-1E+10	1	-1E+10	1	-1E+10	1	-1E+10	1	-1E+10	1	-1E+10	1
4902551	84	C	12/09/2022	20:02	-131.495	48.160	0	1395.20	0	2.5410	0	34.4740	0	27.514	0	1378.853	0	19.1	4	5.8	4	-1E+10	1	-1E+10	1	-1E+10	1	-1E+10	1	-1E+10	1	-1E+10	1
4902551	84	C	12/09/2022	20:02	-131.495	48.160	0	1405.40	0	2.5270	0	34.4760	0	27.517	0	1388.900	0	19.6	4	6.0	4	-1E+10	1	-1E+10	1	-1E+10	1	-1E+10	1	-1E+10	1	-1E+10	1
4902551	84	C	12/09/2022	20:02	-131.495	48.160	0	1415.80	0	2.5140	0	34.4790	0	27.520	0	1399.143	0	20.2	4	6.2	4	-1E+10	1	-1E+10	1	-1E+10	1	-1E+10	1	-1E+10	1	-1E+10	1
4902551	84	C	12/09/2022	20:02	-131.495	48.160	0	1425.80	0	2.4990	0	34.4820	0	27.524	0	1408.992	0	20.8	4	6.3	4	-1E+10	1	-1E+10	1	-1E+10	1	-1E+10	1	-1E+10	1	-1E+10	1
4902551	84	C	12/09/2022	20:02	-131.495	48.160	0	1435.90	0	2.4900	0	34.4840	0	27.526	0	1418.939	0	21.3	4	6.5	4	-1E+10	1	-1E+10	1	-1E+10	1	-1E+10	1	-1E+10	1	-1E+10	1
4902551	84	C	12/09/2022	20:02	-131.495	48.160	0	1445.90	0	2.4790	0	34.4860	0	27.529	0	1428.787	0	21.7	4	6.6	4	-1E+10	1	-1E+10	1	-1E+10	1	-1E+10	1	-1E+10	1	-1E+10	1
4902551	84	C	12/09/2022	20:02	-131.495	48.160	0	1455.90	0	2.4680	0	34.4890	0	27.532	0	1438.635	0	22.2	4	6.8	4	-1E+10	1	-1E+10	1	-1E+10	1	-1E+10	1	-1E+10	1	-1E+10	1
4902551	84	C	12/09/2022	20:02	-131.495	48.160	0	1465.90	0	2.4550	0	34.4910	0	27.535	0	1448.482	0	22.9	4	7.0	4	-1E+10	1	-1E+10	1	-1E+10	1	-1E+10	1	-1E+10	1	-1E+10	1
4902551	84	C	12/09/2022	20:02	-131.495	48.160	0	1475.80	0	2.4430	0	34.4930	0	27.538	0	1458.230	0	23.3	4	7.1	4	-1E+10	1	-1E+10	1	-1E+10	1	-1E+10	1	-1E+10	1	-1E+10	1
4902551	84	C	12/09/2022	20:02	-131.495	48.160	0	1485.70	0	2.4350	0	34.4950	0	27.540	0	1467.978	0	23.8	4	7.3	4	-1E+10	1	-1E+10	1	-1E+10	1	-1E+10	1	-1E+10	1	-1E+10	1
4902551	84	C	12/09/2022	20:02	-131.495	48.160	0	1495.60	0	2.4240	0	34.4970	0	27.543	0	1477.725	0	24.3	4	7.4	4	-1E+10	1	-1E+10	1	-1E+10	1	-1E+10	1	-1E+10	1	-1E+10	1
4902551	84	C	12/09/2022	20:02	-131.495	48.160	0	1505.40	0	2.4120	0	34.4990	0	27.545	0	1487.374	0	24.9	4	7.6	4	-1E+10	1	-1E+10	1	-1E+10	1	-1E+10	1	-1E+10	1	-1E+10	1
4902551	84	C	12/09/2022	20:02	-131.495	48.160	0	1515.20	0	2.3960	0	34.5020	0	27.549	0	1497.022	0	25.6	4	7.8	4	-1E+10	1	-1E+10	1	-1E+10	1	-1E+10	1	-1E+10	1	-1E+10	1
4902551	84	C	12/09/2022	20:02	-131.495	48.160	0	1525.30	0	2.3820	0	34.5050	0	27.553	0	1506.965	0	26.1	4	7.9	4	-1E+10	1	-1E+10	1	-1E+10	1	-1E+10	1	-1E+10	1	-1E+10	1
4902551	84	C	12/09/2022	20:02	-131.495	48.160	0	1535.30	0	2.3690	0	34.5070	0	27.555	0	1516.808	0	26.7	4	8.1	4	-1E+10	1	-1E+10	1	-1E+10	1	-1E+10	1	-1E+10	1	-1E+10	1
4902551	84	C	12/09/2022	20:02	-131.495	48.160	0	1545.30	0	2.3560	0	34.5090	0	27.558	0	1526.652	0	27.3	4	8.3	4	-1E+10	1	-1E+10	1	-1E+10	1	-1E+10	1	-1E+10	1	-1E+10	1
4902551	84	C	12/09/2022	20:02	-131.495	48.160	0	1555.60	0	2.3410	0	34.5110	0	27.561	0	1536.790	0	27.9	4	8.5	4	-1E+10	1	-1E+10	1	-1E+10	1	-1E+10	1	-1E+10	1	-1E+10	1
4902551	84	C	12/09/2022	20:02	-131.495	48.160	0	1565.60	0	2.3280	0	34.5140	0	27.564	0	1546.633	0	28.4	4	8.6	4	-1E+10	1	-1E+10	1	-1E+10	1	-1E+10	1	-1E+10	1	-1E+10	1
4902551	84	C	12/09/2022	20:02	-131.495	48.160	0	1575.70	0	2.3170	0	34.5150	0	27.566	0	1556.573	0	29.0	4	8.8	4	-1E+10	1	-1E+10	1	-1E+10	1	-1E+10	1	-1E+10	1	-1E+10	1
4902551	84	C	12/09/2022	20:02	-131.495	48.160	0	1585.90	0	2.3040	0	34.5180	0	27.570	0	1566.612	0	29.6	4	9.0	4	-1E+10	1	-1E+10	1	-1E+10	1	-1E+10	1	-1E+10	1	-1E+10	1
4902551	84	C	12/09/2022	20:02	-131.495	48.160	0	1595.50	0	2.2930	0	34.5200	0	27.572	0	1576.059	0	30.1	4	9.1	4	-1E+10	1	-1E+10	1	-1E+10	1	-1E+10	1	-1E+10	1	-1E+10	1
4902551	84	C	12/09/2022	20:02	-131.495	48.160	0	1605.30	0	2.2830	0	34.5220	0	27.575	0	1585.703	0	30.6	4	9.3	4	-1E+10	1	-1E+10	1	-1E+10	1	-1E+10	1	-1E+10	1	-1E+10	1
4902551	84	C	12/09/2022	20:02	-131.495	48.160	0	1615.30	0	2.2720	0	34.5230	0	27.576	0	1595.543	0	31.2	4	9.5	4	-1E+10	1	-1E+10	1	-1E+10	1	-1E+10	1	-1E+10	1	-1E+10	1
4902551	84	C	12/09/2022	20:02	-131.495	48.160	0	1625.80	0	2.2620	0	34.5250	0	27.579	0	1605.875	0	31.7	4	9.6	4	-1E+10	1	-1E+10	1	-1E+10	1	-1E+10	1	-1E+10	1	-1E+10	1
4902551	84	C	12/09/2022	20:02	-131.495	48.160	0	1635.50	0	2.2530	0	34.5270	0	27.581	0	1615.419	0	32.4	4	9.8	4	-1E+10	1	-1E+10	1	-1E+10	1	-1E+10	1	-1E+10	1	-1E+10	1
4902551	84	C	12/09/2022	20:02	-131.495	48.160	0	1645.50	0	2.2400	0	34.5290	0	27.584	0	1625.258	0	33.0	4	10.0	4	-1E+10	1	-1E+10	1	-1E+10	1	-1E+10	1	-1E+10	1	-1E+10	1
4902551	84	C	12/09/2022	20:02	-131.495	48.160	0	1655.70	0	2.2270	0	34.5310	0	27.587	0	1635.293	0	33.4	4	10.1	4	-1E+10	1	-1E+10	1	-1E+10	1	-1E+10	1	-1E+10	1	-1E+10	1
4902551	84	C	12/09/2022	20:02	-131.495	48.160	0	1665.60	0	2.2180	0	34.5320	0	27.588	0	1645.033	0	33.9	4	10.3	4	-1E+10	1	-1E+10	1	-1E+10	1	-1E+10	1	-1E+10	1	-1E+10	1
4902551	84	C	12/09/2022	20:02	-131.495	48.160	0	1675.50	0	2.2130	0	34.5330	0	27.590	0	1654.772	0	34.7	4	10.5	4	-1E+10	1	-1E+10	1	-1E+10	1	-1E+10	1	-1E+10	1	-1E+10	1
4902551	84	C	12/09/2022	20:02	-131.495	48.160	0	1685.50	0	2.1980	0	34.5360	0	27.593	0	1664.609	0	35.6	4	10.8	4	-1E+10	1	-1E+10	1	-1E+10	1	-1E+10	1	-1E+10	1	-1E+10	1
4902551	84	C	12/09/2022	20:02	-131.495	48.160	0	1695.60	0	2.1820	0	34.5390	0	27.597	0	1674.544	0	36.5	4	11.1	4	-1E+10	1	-1E+10	1	-1E+10	1	-1E+10	1	-1E+10	1	-1E+10	1
4902551	84	C	12/09/2022	20:02	-131.495	48.160	0	1705.40	0	2.1670	0	34.5410	0	27.600	0	1684.184	0	37.3	4	11.3	4	-1E+10	1	-1E+10	1	-1E+10	1	-1E+10	1	-1E+10	1	-1E+10	1
4902551	84	C	12/09/2022	20:02	-131.495	48.160	0	1715.30	0	2.1560	0	34.5430	0	27.602	0	1693.921	0	37.9	4	11.5	4	-1E+10	1	-1E+10	1	-1E+10	1	-1E+10	1	-1E+10	1	-1E+10	1
4902551	84	C	12/09/2022	20:02	-131.495	48.160	0	1725.30	0	2.1410	0	34.5460	0	27.606	0	1703.756	0	38.2	4	11.6	4	-1E+10	1	-1E+10	1	-1E+10	1	-1E+10	1	-1E+10	1	-1E+10	1
4902551	84	C	12/09/2022	20:02	-131.495	48.160	0	1735.40	0	2.1250	0	34.5470	0	27.608	0	1713.689	0	38.7	4	11.7	4	-1E+10	1	-1E+10	1	-1E+10	1	-1E+10	1	-1E+10	1	-1E+10	1
4902551	84	C	12/09/2022	20:02	-131.495	48.160	0	1745.20	0	2.1180	0	34.5490	0	27.610	0	1723.327	0	39.7	4	12.0	4	-1E+10	1	-1E+10	1	-1E+10	1	-1E+10	1	-1E+10	1	-1E+10	1
4902551	84	C	12/09/2022	20:02	-131.495	48.160	0	1755.30	0	2.1140	0	34.5510	0	27.612	0	1733.259	0	40.7	4	12.3	4	-1E+10	1	-1E+10	1	-1E+10	1	-1E+10	1	-1E+10	1	-1E+10	1
4902551	84	C	12/09/2022	20:02	-131.495	48.160	0	1765.50	0	2.1060	0	34.5520	0	27.614	0	1743.289	0	41.2	4	12.5	4	-1E+10	1	-1E+10	1	-1E+10	1	-1E+10	1	-1E+10	1	-1E+10	1
4902551	84	C	12/09/2022	20:02	-131.495	48.160	0	1775.40	0	2.0990	0	34.5540	0	27.616	0	1753.024	0	41.7	4	12.6	4	-1E+10	1	-1E+10	1	-1E+10	1	-1E+10	1	-1E+10	1	-1E+10	1
4902551	84	C	12/09/2022	20:02	-131.495	48.160	0	1785.30	0	2.0910	0	34.5550	0	27.617	0	1762.758	0	42.1	4	12.7	4	-1E+10	1	-1E+10	1	-1E+10	1	-1E+10	1	-1E+10	1	-1E+10	1
4902551	84	C	12/09/2022	20:02	-131.495	48.160	0	1795.40	0	2.0830	0	34.5560	0	27.619	0	1772.688	0	42.6	4	12.9	4	-1E+10	1	-1E+10	1	-1E+10	1	-1E+10	1	-1E+10	1	-1E+10	1
4902551	84	C	12/09/2022	20:02	-131.495	48.160	0	1805.40	0	2.0780	0	34.5570	0	27.620	0	1782.520	0	43.0	4	13.0	4	-1E+10	1	-1E+10	1	-1E+10	1	-1E+10	1	-1E+10	1	-1E+10	1
4902551	84	C	12/09/2022	20:02	-131.495	48.160	0	1815.20	0	2.0700	0	34.5580	0	27.622	0	1792.154	0	43.5	4	13.1	4	-1E+10	1	-1E+10	1	-1E+10	1	-1E+10	1	-1E+10	1	-1E+10	1
4902551	84	C	12/09/2022	20:02	-131.495	48.160	0	1825.20	0	2.0610	0	34.5600	0	27.624	0	1801.985	0	44.3	4	13.4	4	-1E+10	1	-1E+10	1	-1E+10	1	-1E+10	1	-1E+10	1	-1E+10	1
4902551	84	C	12/09/2022	20:02	-131.495	48.160	0	1835.40	0	2.0510	0	34.5620	0	27.626	0	1812.012	0	45.0	4	13.6	4	-1E+10	1	-1E+10	1	-1E+10	1	-1E+10	1	-1E+10	1	-1E+10	1
4902551	84	C	12/09/2022	20:02	-131.495	48.160	0	1845.20	0	2.0420	0	34.5640	0	27.629	0	1821.645	0	45.6	4	13.8	4	-1E+10	1	-1E+10	1	-1E+10	1	-1E+10	1	-1E+10	1	-1E+10	1
4902551	84	C	12/09/2022	20:02	-131.495	48.160	0	1855.10	0	2.0360	0	34.5650	0	27.630	0	1831.376	0	46.0	4	13.9	4	-1E+10	1	-1E+10	1	-1E+10	1	-1E+10	1	-1E+10	1	-1E+10	1
4902551	84	C	12/09/2022	20:02	-131.495	48.160	0	1865.20	0	2.0300	0	34.5660	0	27.631	0	1841.303	0	46.5	4	14.0	4	-1E+10	1	-1E+10	1	-1E+10	1	-1E+10	1	-1E+10	1	-1E+10	1
4902551	84	C	12/09/2022	20:02	-131.495	48.160	0	1875.10	0	2.0250	0	34.5670	0	27.633	0	1851.033	0	47.1	4	14.2	4	-1E+10	1	-1E+10	1	-1E+10	1	-1E+10	1	-1E+10	1	-1E+10	1
4902551	84	C	12/09/2022	20:02	-131.495	48.160	0	1885.30	0	2.0140	0	34.5690	0	27.635	0	1861.058	0	47.9	4	14.4	4	-1E+10	1	-1E+10	1	-1E+10	1	-1E+10	1	-1E+10	1	-1E+10	1
4902551	84	C	12/09/2022	20:02	-131.495	48.160	0	1895.50	0	2.0040	0	34.5710	0	27.638	0	1871.082	0	48.6	4	14.7	4	-1E+10	1	-1E+10	1	-1E+10	1	-1E+10	1	-1E+10	1	-1E+10	1
4902551	84	C	12/09/2022	20:02	-131.495	48.160	0	1905.60	0	1.9940	0	34.5720	0	27.639	0	1881.007	0	49.4	4	14.9	4	-1E+10	1	-1E+10	1	-1E+10	1	-1E+10	1	-1E+10	1	-1E+10	1
4902551	84	C	12/09/2022	20:02	-131.495	48.160	0	1915.40	0	1.9870	0	34.5740	0	27.642	0	1890.637	0	50.1	4	15.1	4	-1E+10	1	-1E+10	1	-1E+10	1	-1E+10	1	-1E+10	1	-1E+10	1
4902551	84	C	12/09/2022	20:02	-131.495	48.160	0	1925.20	0	1.9800	0	34.5750	0	27.643	0	1900.266	0	50.7	4	15.3	4	-1E+10	1	-1E+10	1	-1E+10	1	-1E+10	1	-1E+10	1	-1E+10	1
4902551	84	C	12/09/2022	20:02	-131.495	48.160	0	1935.10	0	1.9730	0	34.5770	0	27.645	0	1909.994	0	51.4	4	15.5	4	-1E+10	1	-1E+10	1	-1E+10	1	-1E+10	1	-1E+10	1	-1E+10	1
4902551	84	C	12/09/2022	20:02	-131.495	48.160	0	1945.30	0	1.9660	0	34.5780	0	27.646	0	1920.016	0	51.9	4	15.6	4	-1E+10	1	-1E+10	1	-1E+10	1	-1E+10	1	-1E+10	1	-1E+10	1
4902551	84	C	12/09/2022	20:02	-131.495	48.160	0	1955.50	0	1.9600	0	34.5790	0	27.648	0	1930.037	0	52.6	4	15.9	4	-1E+10	1	-1E+10	1	-1E+10	1	-1E+10	1	-1E+10	1	-1E+10	1
4902551	84	C	12/09/2022	20:02	-131.495	48.160	0	1965.30	0	1.9520	0	34.5810	0	27.650	0	1939.665	0	53.5	4	16.1	4	-1E+10	1	-1E+10	1	-1E+10	1	-1E+10	1	-1E+10	1	-1E+10	1
4902551	84	C	12/09/2022	20:02	-131.495	48.160	0	1975.30	0	1.9420	0	34.5830	0	27.653	0	1949.489	0	54.2	4	16.3	4	-1E+10	1	-1E+10	1	-1E+10	1	-1E+10	1	-1E+10	1	-1E+10	1
4902551	84	C	12/09/2022	20:02	-131.495	48.160	0	1985.40	0	1.9360	0	34.5840	0	27.654	0	1959.410	0	54.7	4	16.5	4	-1E+10	1	-1E+10	1	-1E+10	1	-1E+10	1	-1E+10	1	-1E+10	1
4902551	84	C	12/09/2022	20:02	-131.495	48.160	0	1995.50	0	1.9320	0	34.5850	0	27.655	0	1969.331	0	55.1	4	16.6	4	-1E+10	1	-1E+10	1	-1E+10	1	-1E+10	1	-1E+10	1	-1E+10	1
4902551	84	C	12/09/2022	20:02	-131.495	48.160	0	2005.70	0	1.9280	0	34.5850	0	27.655	0	1979.350	0	55.6	4	16.7	4	-1E+10	1	-1E+10	1	-1E+10	1	-1E+10	1	-1E+10	1	-1E+10	1
4902551	84	C	12/09/2022	20:02	-131.495	48.160	0	2016.00	0	1.9210	0	34.5870	0	27.658	0	1989.467	0	56.2	4	16.9	4	-1E+10	1	-1E+10	1	-1E+10	1	-1E+10	1	-1E+10	1	-1E+10	1
4902551	84	C	12/09/2022	20:02	-131.495	48.160	0	2025.70	0	1.9140	0	34.5880	0	27.659	0	1998.994	0	56.7	4	17.1	4	-1E+10	1	-1E+10	1	-1E+10	1	-1E+10	1	-1E+10	1	-1E+10	1
4902551	84	C	12/09/2022	20:02	-131.495	48.160	0	2035.80	0	1.9090	0	34.5890	0	27.660	0	2008.913	0	56.5	4	17.0	4	-1E+10	1	-1E+10	1	-1E+10	1	-1E+10	1	-1E+10	1	-1E+10	1
4902551	84	C	12/09/2022	20:02	-131.495	48.160	0																										
4902551	85	C	12/20/2022	01:16	-131.420	48.095	0	0.70	0	9.6380	0	32.3100	0	24.912	0	0.694	0	268.1	4	95.0	4	-1E+10	1	-1E+10	1	-1E+10	1	-1E+10	1	-1E+10	1	-1E+10	1
4902551	85	C	12/20/2022	01:16	-131.420	48.095	0	0.80	0	9.6360	0	32.3080	0	24.910	0	0.793	0	-1e10	1	-1e10	1	-1E+10	1	-1E+10	1	-1E+10	1	-1E+10	1	-1E+10	1	-1E+10	1
4902551	85	C	12/20/2022	01:16	-131.420	48.095	0	0.90	0	9.6590	0	32.3080	0	24.907	0	0.892	0	261.2	4	92.6	4	-1E+10	1	-1E+10	1	-1E+10	1	-1E+10	1	-1E+10	1	-1E+10	1
4902551	85	C	12/20/2022	01:16	-131.420	48.095	0	2.00	0	9.6580	0	32.3110	0	24.909	0	1.983	0	261.1	4	92.6	4	-1E+10	1	-1E+10	1	-1E+10	1	-1E+10	1	-1E+10	1	-1E+10	1
4902551	85	C	12/20/2022	01:16	-131.420	48.095	0	2.90	0	9.6580	0	32.3110	0	24.909	0	2.876	0	261.2	4	92.6	4	-1E+10	1	-1E+10	1	-1E+10	1	-1E+10	1	-1E+10	1	-1E+10	1
4902551	85	C	12/20/2022	01:16	-131.420	48.095	0	3.80	0	9.6580	0	32.3110	0	24.909	0	3.768	0	261.1	4	92.6	4	-1E+10	1	-1E+10	1	-1E+10	1	-1E+10	1	-1E+10	1	-1E+10	1
4902551	85	C	12/20/2022	01:16	-131.420	48.095	0	4.80	0	9.6580	0	32.3110	0	24.909	0	4.760	0	261.1	4	92.6	4	-1E+10	1	-1E+10	1	-1E+10	1	-1E+10	1	-1E+10	1	-1E+10	1
4902551	85	C	12/20/2022	01:16	-131.420	48.095	0	5.80	0	9.6610	0	32.3110	0	24.909	0	5.751	0	261.1	4	92.6	4	-1E+10	1	-1E+10	1	-1E+10	1	-1E+10	1	-1E+10	1	-1E+10	1
4902551	85	C	12/20/2022	01:16	-131.420	48.095	0	7.00	0	9.6640	0	32.3130	0	24.910	0	6.941	0	261.0	4	92.6	4	-1E+10	1	-1E+10	1	-1E+10	1	-1E+10	1	-1E+10	1	-1E+10	1
4902551	85	C	12/20/2022	01:16	-131.420	48.095	0	7.70	0	9.6650	0	32.3120	0	24.909	0	7.635	0	261.1	4	92.6	4	-1E+10	1	-1E+10	1	-1E+10	1	-1E+10	1	-1E+10	1	-1E+10	1
4902551	85	C	12/20/2022	01:16	-131.420	48.095	0	8.80	0	9.6640	0	32.3120	0	24.909	0	8.726	0	261.1	4	92.6	4	-1E+10	1	-1E+10	1	-1E+10	1	-1E+10	1	-1E+10	1	-1E+10	1
4902551	85	C	12/20/2022	01:16	-131.420	48.095	0	10.00	0	9.6630	0	32.3120	0	24.909	0	9.916	0	261.1	4	92.6	4	-1E+10	1	-1E+10	1	-1E+10	1	-1E+10	1	-1E+10	1	-1E+10	1
4902551	85	C	12/20/2022	01:16	-131.420	48.095	0	10.90	0	9.6640	0	32.3120	0	24.909	0	10.808	0	261.0	4	92.6	4	-1E+10	1	-1E+10	1	-1E+10	1	-1E+10	1	-1E+10	1	-1E+10	1
4902551	85	C	12/20/2022	01:16	-131.420	48.095	0	11.90	0	9.6630	0	32.3120	0	24.909	0	11.800	0	261.1	4	92.6	4	-1E+10	1	-1E+10	1	-1E+10	1	-1E+10	1	-1E+10	1	-1E+10	1
4902551	85	C	12/20/2022	01:16	-131.420	48.095	0	13.20	0	9.6620	0	32.3120	0	24.910	0	13.089	0	261.1	4	92.6	4	-1E+10	1	-1E+10	1	-1E+10	1	-1E+10	1	-1E+10	1	-1E+10	1
4902551	85	C	12/20/2022	01:16	-131.420	48.095	0	13.90	0	9.6620	0	32.3110	0	24.909	0	13.783	0	261.0	4	92.6	4	-1E+10	1	-1E+10	1	-1E+10	1	-1E+10	1	-1E+10	1	-1E+10	1
4902551	85	C	12/20/2022	01:16	-131.420	48.095	0	15.00	0	9.6630	0	32.3110	0	24.909	0	14.873	0	261.0	4	92.5	4	-1E+10	1	-1E+10	1	-1E+10	1	-1E+10	1	-1E+10	1	-1E+10	1
4902551	85	C	12/20/2022	01:16	-131.420	48.095	0	16.10	0	9.6640	0	32.3110	0	24.909	0	15.964	0	261.0	4	92.5	4	-1E+10	1	-1E+10	1	-1E+10	1	-1E+10	1	-1E+10	1	-1E+10	1
4902551	85	C	12/20/2022	01:16	-131.420	48.095	0	16.80	0	9.6640	0	32.3120	0	24.909	0	16.658	0	261.0	4	92.5	4	-1E+10	1	-1E+10	1	-1E+10	1	-1E+10	1	-1E+10	1	-1E+10	1
4902551	85	C	12/20/2022	01:16	-131.420	48.095	0	17.80	0	9.6630	0	32.3120	0	24.910	0	17.650	0	261.0	4	92.5	4	-1E+10	1	-1E+10	1	-1E+10	1	-1E+10	1	-1E+10	1	-1E+10	1
4902551	85	C	12/20/2022	01:16	-131.420	48.095	0	19.10	0	9.6640	0	32.3120	0	24.909	0	18.939	0	260.9	4	92.5	4	-1E+10	1	-1E+10	1	-1E+10	1	-1E+10	1	-1E+10	1	-1E+10	1
4902551	85	C	12/20/2022	01:16	-131.420	48.095	0	20.10	0	9.6660	0	32.3120	0	24.909	0	19.930	0	260.9	4	92.5	4	-1E+10	1	-1E+10	1	-1E+10	1	-1E+10	1	-1E+10	1	-1E+10	1
4902551	85	C	12/20/2022	01:16	-131.420	48.095	0	21.10	0	9.6660	0	32.3120	0	24.909	0	20.922	0	260.9	4	92.5	4	-1E+10	1	-1E+10	1	-1E+10	1	-1E+10	1	-1E+10	1	-1E+10	1
4902551	85	C	12/20/2022	01:16	-131.420	48.095	0	21.90	0	9.6660	0	32.3120	0	24.909	0	21.715	0	260.9	4	92.5	4	-1E+10	1	-1E+10	1	-1E+10	1	-1E+10	1	-1E+10	1	-1E+10	1
4902551	85	C	12/20/2022	01:16	-131.420	48.095	0	22.90	0	9.6650	0	32.3120	0	24.909	0	22.706	0	260.9	4	92.5	4	-1E+10	1	-1E+10	1	-1E+10	1	-1E+10	1	-1E+10	1	-1E+10	1
4902551	85	C	12/20/2022	01:16	-131.420	48.095	0	24.30	0	9.6650	0	32.3120	0	24.909	0	24.094	0	260.9	4	92.5	4	-1E+10	1	-1E+10	1	-1E+10	1	-1E+10	1	-1E+10	1	-1E+10	1
4902551	85	C	12/20/2022	01:16	-131.420	48.095	0	25.00	0	9.6630	0	32.3120	0	24.910	0	24.788	0	260.9	4	92.5	4	-1E+10	1	-1E+10	1	-1E+10	1	-1E+10	1	-1E+10	1	-1E+10	1
4902551	85	C	12/20/2022	01:16	-131.420	48.095	0	25.90	0	9.6630	0	32.3120	0	24.910	0	25.681	0	260.9	4	92.5	4	-1E+10	1	-1E+10	1	-1E+10	1	-1E+10	1	-1E+10	1	-1E+10	1
4902551	85	C	12/20/2022	01:16	-131.420	48.095	0	26.80	0	9.6640	0	32.3130	0	24.910	0	26.573	0	260.8	4	92.5	4	-1E+10	1	-1E+10	1	-1E+10	1	-1E+10	1	-1E+10	1	-1E+10	1
4902551	85	C	12/20/2022	01:16	-131.420	48.095	0	27.80	0	9.6680	0	32.3120	0	24.909	0	27.565	0	260.8	4	92.5	4	-1E+10	1	-1E+10	1	-1E+10	1	-1E+10	1	-1E+10	1	-1E+10	1
4902551	85	C	12/20/2022	01:16	-131.420	48.095	0	28.90	0	9.6700	0	32.3130	0	24.909	0	28.655	0	260.7	4	92.5	4	-1E+10	1	-1E+10	1	-1E+10	1	-1E+10	1	-1E+10	1	-1E+10	1
4902551	85	C	12/20/2022	01:16	-131.420	48.095	0	29.80	0	9.6700	0	32.3130	0	24.909	0	29.548	0	260.8	4	92.5	4	-1E+10	1	-1E+10	1	-1E+10	1	-1E+10	1	-1E+10	1	-1E+10	1
4902551	85	C	12/20/2022	01:16	-131.420	48.095	0	30.80	0	9.6690	0	32.3130	0	24.910	0	30.539	0	260.7	4	92.5	4	-1E+10	1	-1E+10	1	-1E+10	1	-1E+10	1	-1E+10	1	-1E+10	1
4902551	85	C	12/20/2022	01:16	-131.420	48.095	0	32.00	0	9.6700	0	32.3130	0	24.909	0	31.729	0	260.7	4	92.5	4	-1E+10	1	-1E+10	1	-1E+10	1	-1E+10	1	-1E+10	1	-1E+10	1
4902551	85	C	12/20/2022	01:16	-131.420	48.095	0	33.00	0	9.6700	0	32.3130	0	24.909	0	32.720	0	260.7	4	92.5	4	-1E+10	1	-1E+10	1	-1E+10	1	-1E+10	1	-1E+10	1	-1E+10	1
4902551	85	C	12/20/2022	01:16	-131.420	48.095	0	33.90	0	9.6710	0	32.3130	0	24.909	0	33.612	0	260.7	4	92.5	4	-1E+10	1	-1E+10	1	-1E+10	1	-1E+10	1	-1E+10	1	-1E+10	1
4902551	85	C	12/20/2022	01:16	-131.420	48.095	0	34.90	0	9.6710	0	32.3130	0	24.909	0	34.604	0	260.7	4	92.5	4	-1E+10	1	-1E+10	1	-1E+10	1	-1E+10	1	-1E+10	1	-1E+10	1
4902551	85	C	12/20/2022	01:16	-131.420	48.095	0	35.80	0	9.6710	0	32.3130	0	24.909	0	35.496	0	260.6	4	92.4	4	-1E+10	1	-1E+10	1	-1E+10	1	-1E+10	1	-1E+10	1	-1E+10	1
4902551	85	C	12/20/2022	01:16	-131.420	48.095	0	37.00	0	9.6710	0	32.3130	0	24.909	0	36.686	0	260.6	4	92.4	4	-1E+10	1	-1E+10	1	-1E+10	1	-1E+10	1	-1E+10	1	-1E+10	1
4902551	85	C	12/20/2022	01:16	-131.420	48.095	0	38.10	0	9.6710	0	32.3130	0	24.909	0	37.776	0	260.6	4	92.4	4	-1E+10	1	-1E+10	1	-1E+10	1	-1E+10	1	-1E+10	1	-1E+10	1
4902551	85	C	12/20/2022	01:16	-131.420	48.095	0	39.00	0	9.6710	0	32.3130	0	24.909	0	38.669	0	260.5	4	92.4	4	-1E+10	1	-1E+10	1	-1E+10	1	-1E+10	1	-1E+10	1	-1E+10	1
4902551	85	C	12/20/2022	01:16	-131.420	48.095	0	39.90	0	9.6700	0	32.3120	0	24.909	0	39.561	0	260.6	4	92.4	4	-1E+10	1	-1E+10	1	-1E+10	1	-1E+10	1	-1E+10	1	-1E+10	1
4902551	85	C	12/20/2022	01:16	-131.420	48.095	0	41.10	0	9.6690	0	32.3120	0	24.909	0	40.751	0	260.6	4	92.4	4	-1E+10	1	-1E+10	1	-1E+10	1	-1E+10	1	-1E+10	1	-1E+10	1
4902551	85	C	12/20/2022	01:16	-131.420	48.095	0	42.00	0	9.6700	0	32.3130	0	24.910	0	41.643	0	260.5	4	92.4	4	-1E+10	1	-1E+10	1	-1E+10	1	-1E+10	1	-1E+10	1	-1E+10	1
4902551	85	C	12/20/2022	01:16	-131.420	48.095	0	43.00	0	9.6690	0	32.3120	0	24.909	0	42.634	0	260.4	4	92.4	4	-1E+10	1	-1E+10	1	-1E+10	1	-1E+10	1	-1E+10	1	-1E+10	1
4902551	85	C	12/20/2022	01:16	-131.420	48.095	0	44.10	0	9.6690	0	32.3130	0	24.910	0	43.725	0	260.5	4	92.4	4	-1E+10	1	-1E+10	1	-1E+10	1	-1E+10	1	-1E+10	1	-1E+10	1
4902551	85	C	12/20/2022	01:16	-131.420	48.095	0	44.80	0	9.6700	0	32.3130	0	24.910	0	44.419	0	260.4	4	92.4	4	-1E+10	1	-1E+10	1	-1E+10	1	-1E+10	1	-1E+10	1	-1E+10	1
4902551	85	C	12/20/2022	01:16	-131.420	48.095	0	45.80	0	9.6690	0	32.3130	0	24.910	0	45.410	0	260.4	4	92.3	4	-1E+10	1	-1E+10	1	-1E+10	1	-1E+10	1	-1E+10	1	-1E+10	1
4902551	85	C	12/20/2022	01:16	-131.420	48.095	0	47.00	0	9.6680	0	32.3130	0	24.910	0	46.600	0	260.3	4	92.3	4	-1E+10	1	-1E+10	1	-1E+10	1	-1E+10	1	-1E+10	1	-1E+10	1
4902551	85	C	12/20/2022	01:16	-131.420	48.095	0	47.70	0	9.6680	0	32.3140	0	24.911	0	47.294	0	260.2	4	92.3	4	-1E+10	1	-1E+10	1	-1E+10	1	-1E+10	1	-1E+10	1	-1E+10	1
4902551	85	C	12/20/2022	01:16	-131.420	48.095	0	48.80	0	9.6680	0	32.3130	0	24.910	0	48.384	0	260.2	4	92.3	4	-1E+10	1	-1E+10	1	-1E+10	1	-1E+10	1	-1E+10	1	-1E+10	1
4902551	85	C	12/20/2022	01:16	-131.420	48.095	0	49.90	0	9.6690	0	32.3130	0	24.910	0	49.475	0	260.1	4	92.3	4	-1E+10	1	-1E+10	1	-1E+10	1	-1E+10	1	-1E+10	1	-1E+10	1
4902551	85	C	12/20/2022	01:16	-131.420	48.095	0	51.00	0	9.6690	0	32.3120	0	24.909	0	50.565	0	260.0	4	92.2	4	-1E+10	1	-1E+10	1	-1E+10	1	-1E+10	1	-1E+10	1	-1E+10	1
4902551	85	C	12/20/2022	01:16	-131.420	48.095	0	52.10	0	9.6700	0	32.3130	0	24.910	0	51.656	0	259.9	4	92.2	4	-1E+10	1	-1E+10	1	-1E+10	1	-1E+10	1	-1E+10	1	-1E+10	1
4902551	85	C	12/20/2022	01:16	-131.420	48.095	0	52.80	0	9.6710	0	32.3120	0	24.909	0	52.350	0	259.9	4	92.2	4	-1E+10	1	-1E+10	1	-1E+10	1	-1E+10	1	-1E+10	1	-1E+10	1
4902551	85	C	12/20/2022	01:16	-131.420	48.095	0	53.90	0	9.6680	0	32.3130	0	24.910	0	53.440	0	259.9	4	92.2	4	-1E+10	1	-1E+10	1	-1E+10	1	-1E+10	1	-1E+10	1	-1E+10	1
4902551	85	C	12/20/2022	01:16	-131.420	48.095	0	54.90	0	9.6650	0	32.3140	0	24.911	0	54.432	0	259.7	4	92.1	4	-1E+10	1	-1E+10	1	-1E+10	1	-1E+10	1	-1E+10	1	-1E+10	1
4902551	85	C	12/20/2022	01:16	-131.420	48.095	0	55.90	0	9.6660	0	32.3130	0	24.910	0	55.423	0	259.6	4	92.1	4	-1E+10	1	-1E+10	1	-1E+10	1	-1E+10	1	-1E+10	1	-1E+10	1
4902551	85	C	12/20/2022	01:16	-131.420	48.095	0	56.90	0	9.6650	0	32.3140	0	24.911	0	56.414	0	259.4	4	92.0	4	-1E+10	1	-1E+10	1	-1E+10	1	-1E+10	1	-1E+10	1	-1E+10	1
4902551	85	C	12/20/2022	01:16	-131.420	48.095	0	57.90	0	9.6650	0	32.3140	0	24.911	0	57.406	0	259.3	4	91.9	4	-1E+10	1	-1E+10	1	-1E+10	1	-1E+10	1	-1E+10	1	-1E+10	1
4902551	85	C	12/20/2022	01:16	-131.420	48.095	0	58.90	0	9.6650	0	32.3140	0	24.911	0	58.397	0	259.1	4	91.9	4	-1E+10	1	-1E+10	1	-1E+10	1	-1E+10	1	-1E+10	1	-1E+10	1
4902551	85	C	12/20/2022	01:16	-131.420	48.095	0	59.80	0	9.6630	0	32.3140	0	24.912	0	59.289	0	258.9	4	91.8	4	-1E+10	1	-1E+10	1	-1E+10	1	-1E+10	1	-1E+10	1	-1E+10	1
4902551	85	C	12/20/2022	01:16	-131.420	48.095	0	61.00	0	9.6570	0	32.3150	0	24.914	0	60.479	0	258.5	4	91.7	4	-1E+10	1	-1E+10	1	-1E+10	1	-1E+10	1	-1E+10	1	-1E+10	1
4902551	85	C	12/20/2022	01:16	-131.420	48.095	0	62.00	0	9.6560	0	32.3150	0	24.914	0	61.470	0	258.1	4	91.5	4	-1E+10	1	-1E+10	1	-1E+10	1	-1E+10	1	-1E+10	1	-1E+10	1
4902551	85	C	12/20/2022	01:16	-131.420	48.095	0	63.00	0	9.6520	0	32.3150	0	24.914	0	62.461	0	257.8	4	91.4	4	-1E+10	1	-1E+10	1	-1E+10	1	-1E+10	1	-1E+10	1	-1E+10	1
4902551	85	C	12/20/2022	01:16	-131.420	48.095	0	64.10	0	9.6460	0	32.3160	0	24.916	0	63.552	0	257.0	4	91.1	4	-1E+10	1	-1E+10	1	-1E+10	1	-1E+10	1	-1E+10	1	-1E+10	1
4902551	85	C	12/20/2022	01:16	-131.420	48.095	0	65.10	0	9.6380	0	32.3110	0	24.914	0	64.543	0	256.6	4	90.9	4	-1E+10	1	-1E+10	1	-1E+10	1	-1E+10	1	-1E+10	1	-1E+10	1
4902551	85	C	12/20/2022	01:16	-131.420	48.095	0	65.90	0	9.5740	0	32.3050	0	24.919	0	65.336	0	256.2	4	90.7	4	-1E+10	1	-1E+10	1	-1E+10	1	-1E+10	1	-1E+10	1	-1E+10	1
4902551	85	C	12/20/2022	01:16	-131.420	48.095	0	67.10	0	8.9620	0	32.3580	0	25.057	0	66.526	0	258.3	4	90.2	4	-1E+10	1	-1E+10	1	-1E+10	1	-1E+10	1	-1E+10	1	-1E+10	1
4902551	85	C	12/20/2022	01:16	-131.420	48.095	0	68.10	0	8.4970	0	32.3860	0	25.150	0	67.517	0	258.8	4	89.5	4	-1E+10	1	-1E+10	1	-1E+10	1	-1E+10	1	-1E+10	1	-1E+10	1
4902551	85	C	12/20/2022	01:16	-131.420	48.095	0	69.00	0	7.9750	0	32.4520	0	25.278	0	68.409	0	259.8	4	88.8	4	-1E+10	1	-1E+10	1	-1E+10	1	-1E+10	1	-1E+10	1	-1E+10	1
4902551	85	C	12/20/2022	01:16	-131.420	48.095	0	70.00	0	7.8770	0	32.4420	0	25.284	0	69.400	0	260.2	4	88.8	4	-1E+10	1	-1E+10	1	-1E+10	1	-1E+10	1	-1E+10	1	-1E+10	1
4902551	85	C	12/20/2022	01:16	-131.420	48.095	0	71.00	0	7.7890	0	32.4390	0	25.294	0	70.391	0	260.4	4	88.7	4	-1E+10	1	-1E+10	1	-1E+10	1	-1E+10	1	-1E+10	1	-1E+10	1
4902551	85	C	12/20/2022	01:16	-131.420	48.095	0	71.80	0	7.6590	0	32.4760	0	25.342	0	71.184	0	260.7	4	88.5	4	-1E+10	1	-1E+10	1	-1E+10	1	-1E+10	1	-1E+10	1	-1E+10	1
4902551	85	C	12/20/2022	01:16	-131.420	48.095	0	72.90	0	7.5890	0	32.4640	0	25.342	0	72.275	0	260.9	4	88.4	4	-1E+10	1	-1E+10	1	-1E+10	1	-1E+10	1	-1E+10	1	-1E+10	1
4902551	85	C	12/20/2022	01:16	-131.420	48.095	0	74.00	0	7.5300	0	32.4650	0	25.351	0	73.365	0	261.0	4	88.4	4	-1E+10	1	-1E+10	1	-1E+10	1	-1E+10	1	-1E+10	1	-1E+10	1
4902551	85	C	12/20/2022	01:16	-131.420	48.095	0	74.80	0	7.5160	0	32.4640	0	25.352	0	74.158	0	260.9	4	88.3	4	-1E+10	1	-1E+10	1	-1E+10	1	-1E+10	1	-1E+10	1	-1E+10	1
4902551	85	C	12/20/2022	01:16	-131.420	48.095	0	75.80	0	7.5030	0	32.4650	0	25.355	0	75.149	0	260.9	4	88.3	4	-1E+10	1	-1E+10	1	-1E+10	1	-1E+10	1	-1E+10	1	-1E+10	1
4902551	85	C	12/20/2022	01:16	-131.420	48.095	0	76.90	0	7.4840	0	32.4670	0	25.359	0	76.240	0	260.9	4	88.2	4	-1E+10	1	-1E+10	1	-1E+10	1	-1E+10	1	-1E+10	1	-1E+10	1
4902551	85	C	12/20/2022	01:16	-131.420	48.095	0	77.80	0	7.4680	0	32.4680	0	25.362	0	77.132	0	261.1	4	88.3	4	-1E+10	1	-1E+10	1	-1E+10	1	-1E+10	1	-1E+10	1	-1E+10	1
4902551	85	C	12/20/2022	01:16	-131.420	48.095	0	79.10	0	7.4010	0	32.4690	0	25.372	0	78.421	0	261.1	4	88.1	4	-1E+10	1	-1E+10	1	-1E+10	1	-1E+10	1	-1E+10	1	-1E+10	1
4902551	85	C	12/20/2022	01:16	-131.420	48.095	0	80.10	0	7.3430	0	32.4720	0	25.383	0	79.412	0	261.0	4	88.0	4	-1E+10	1	-1E+10	1	-1E+10	1	-1E+10	1	-1E+10	1	-1E+10	1
4902551	85	C	12/20/2022	01:16	-131.420	48.095	0	81.00	0	7.3250	0	32.4730	0	25.386	0	80.304	0	260.9	4	87.9	4	-1E+10	1	-1E+10	1	-1E+10	1	-1E+10	1	-1E+10	1	-1E+10	1
4902551	85	C	12/20/2022	01:16	-131.420	48.095	0	82.10	0	7.2560	0	32.4750	0	25.397	0	81.394	0	260.8	4	87.8	4	-1E+10	1	-1E+10	1	-1E+10	1	-1E+10	1	-1E+10	1	-1E+10	1
4902551	85	C	12/20/2022	01:16	-131.420	48.095	0	83.00	0	7.2400	0	32.4760	0	25.400	0	82.286	0	260.5	4	87.6	4	-1E+10	1	-1E+10	1	-1E+10	1	-1E+10	1	-1E+10	1	-1E+10	1
4902551	85	C	12/20/2022	01:16	-131.420	48.095	0	83.90	0	7.2260	0	32.4800	0	25.405	0	83.178	0	266.7	4	89.7	4	-1E+10	1	-1E+10	1	-1E+10	1	-1E+10	1	-1E+10	1	-1E+10	1
4902551	85	C	12/20/2022	01:16	-131.420	48.095	0	85.10	0	7.2150	0	32.4830	0	25.409	0	84.368	0	266.3	4	89.5	4	-1E+10	1	-1E+10	1	-1E+10	1	-1E+10	1	-1E+10	1	-1E+10	1
4902551	85	C	12/20/2022	01:16	-131.420	48.095	0	86.10	0	7.2140	0	32.4820	0	25.408	0	85.359	0	265.9	4	89.4	4	-1E+10	1	-1E+10	1	-1E+10	1	-1E+10	1	-1E+10	1	-1E+10	1
4902551	85	C	12/20/2022	01:16	-131.420	48.095	0	87.00	0	7.2010	0	32.4850	0	25.412	0	86.251	0	265.5	4	89.2	4	-1E+10	1	-1E+10	1	-1E+10	1	-1E+10	1	-1E+10	1	-1E+10	1
4902551	85	C	12/20/2022	01:16	-131.420	48.095	0	88.00	0	7.1860	0	32.4870	0	25.416	0	87.242	0	265.3	4	89.1	4	-1E+10	1	-1E+10	1	-1E+10	1	-1E+10	1	-1E+10	1	-1E+10	1
4902551	85	C	12/20/2022	01:16	-131.420	48.095	0	89.20	0	7.1510	0	32.4960	0	25.428	0	88.432	0	265.1	4	89.0	4	-1E+10	1	-1E+10	1	-1E+10	1	-1E+10	1	-1E+10	1	-1E+10	1
4902551	85	C	12/20/2022	01:16	-131.420	48.095	0	89.90	0	7.1300	0	32.4970	0	25.431	0	89.125	0	265.1	4	88.9	4	-1E+10	1	-1E+10	1	-1E+10	1	-1E+10	1	-1E+10	1	-1E+10	1
4902551	85	C	12/20/2022	01:16	-131.420	48.095	0	91.10	0	7.1240	0	32.4970	0	25.432	0	90.315	0	264.7	4	88.8	4	-1E+10	1	-1E+10	1	-1E+10	1	-1E+10	1	-1E+10	1	-1E+10	1
4902551	85	C	12/20/2022	01:16	-131.420	48.095	0	91.90	0	7.1180	0	32.4980	0	25.434	0	91.108	0	264.3	4	88.7	4	-1E+10	1	-1E+10	1	-1E+10	1	-1E+10	1	-1E+10	1	-1E+10	1
4902551	85	C	12/20/2022	01:16	-131.420	48.095	0	93.20	0	7.0510	0	32.5060	0	25.449	0	92.396	0	264.0	4	88.4	4	-1E+10	1	-1E+10	1	-1E+10	1	-1E+10	1	-1E+10	1	-1E+10	1
4902551	85	C	12/20/2022	01:16	-131.420	48.095	0	93.80	0	7.0360	0	32.5090	0	25.453	0	92.991	0	263.9	4	88.4	4	-1E+10	1	-1E+10	1	-1E+10	1	-1E+10	1	-1E+10	1	-1E+10	1
4902551	85	C	12/20/2022	01:16	-131.420	48.095	0	94.80	0	7.0120	0	32.5180	0	25.464	0	93.982	0	263.7	4	88.3	4	-1E+10	1	-1E+10	1	-1E+10	1	-1E+10	1	-1E+10	1	-1E+10	1
4902551	85	C	12/20/2022	01:16	-131.420	48.095	0	95.70	0	6.9880	0	32.5210	0	25.469	0	94.874	0	263.6	4	88.2	4	-1E+10	1	-1E+10	1	-1E+10	1	-1E+10	1	-1E+10	1	-1E+10	1
4902551	85	C	12/20/2022	01:16	-131.420	48.095	0	96.70	0	6.9520	0	32.5280	0	25.480	0	95.865	0	263.4	4	88.1	4	-1E+10	1	-1E+10	1	-1E+10	1	-1E+10	1	-1E+10	1	-1E+10	1
4902551	85	C	12/20/2022	01:16	-131.420	48.095	0	97.70	0	6.9320	0	32.5290	0	25.483	0	96.856	0	263.3	4	88.0	4	-1E+10	1	-1E+10	1	-1E+10	1	-1E+10	1	-1E+10	1	-1E+10	1
4902551	85	C	12/20/2022	01:16	-131.420	48.095	0	99.10	0	6.9190	0	32.5340	0	25.489	0	98.244	0	262.7	4	87.8	4	-1E+10	1	-1E+10	1	-1E+10	1	-1E+10	1	-1E+10	1	-1E+10	1
4902551	85	C	12/20/2022	01:16	-131.420	48.095	0	100.00	0	6.9180	0	32.5360	0	25.490	0	99.136	0	262.3	4	87.6	4	-1E+10	1	-1E+10	1	-1E+10	1	-1E+10	1	-1E+10	1	-1E+10	1
4902551	85	C	12/20/2022	01:16	-131.420	48.095	0	100.90	0	6.9120	0	32.5380	0	25.493	0	100.028	0	261.8	4	87.4	4	-1E+10	1	-1E+10	1	-1E+10	1	-1E+10	1	-1E+10	1	-1E+10	1
4902551	85	C	12/20/2022	01:16	-131.420	48.095	0	102.10	0	6.8840	0	32.5450	0	25.502	0	101.217	0	261.2	4	87.2	4	-1E+10	1	-1E+10	1	-1E+10	1	-1E+10	1	-1E+10	1	-1E+10	1
4902551	85	C	12/20/2022	01:16	-131.420	48.095	0	102.90	0	6.8660	0	32.5460	0	25.505	0	102.010	0	260.7	4	87.0	4	-1E+10	1	-1E+10	1	-1E+10	1	-1E+10	1	-1E+10	1	-1E+10	1
4902551	85	C	12/20/2022	01:16	-131.420	48.095	0	103.90	0	6.8360	0	32.5490	0	25.512	0	103.001	0	260.1	4	86.7	4	-1E+10	1	-1E+10	1	-1E+10	1	-1E+10	1	-1E+10	1	-1E+10	1
4902551	85	C	12/20/2022	01:16	-131.420	48.095	0	105.00	0	6.7900	0	32.5650	0	25.530	0	104.091	0	259.0	4	86.3	4	-1E+10	1	-1E+10	1	-1E+10	1	-1E+10	1	-1E+10	1	-1E+10	1
4902551	85	C	12/20/2022	01:16	-131.420	48.095	0	106.00	0	6.7570	0	32.5840	0	25.550	0	105.083	0	257.7	4	85.8	4	-1E+10	1	-1E+10	1	-1E+10	1	-1E+10	1	-1E+10	1	-1E+10	1
4902551	85	C	12/20/2022	01:16	-131.420	48.095	0	107.10	0	6.7400	0	32.5960	0	25.561	0	106.173	0	256.7	4	85.4	4	-1E+10	1	-1E+10	1	-1E+10	1	-1E+10	1	-1E+10	1	-1E+10	1
4902551	85	C	12/20/2022	01:16	-131.420	48.095	0	107.90	0	6.7230	0	32.6080	0	25.573	0	106.966	0	255.5	4	85.0	4	-1E+10	1	-1E+10	1	-1E+10	1	-1E+10	1	-1E+10	1	-1E+10	1
4902551	85	C	12/20/2022	01:16	-131.420	48.095	0	109.10	0	6.6870	0	32.6270	0	25.593	0	108.155	0	253.6	4	84.3	4	-1E+10	1	-1E+10	1	-1E+10	1	-1E+10	1	-1E+10	1	-1E+10	1
4902551	85	C	12/20/2022	01:16	-131.420	48.095	0	110.00	0	6.6570	0	32.6520	0	25.616	0	109.047	0	252.4	4	83.9	4	-1E+10	1	-1E+10	1	-1E+10	1	-1E+10	1	-1E+10	1	-1E+10	1
4902551	85	C	12/20/2022	01:16	-131.420	48.095	0	111.20	0	6.6330	0	32.6750	0	25.637	0	110.236	0	250.8	4	83.3	4	-1E+10	1	-1E+10	1	-1E+10	1	-1E+10	1	-1E+10	1	-1E+10	1
4902551	85	C	12/20/2022	01:16	-131.420	48.095	0	112.10	0	6.6080	0	32.6980	0	25.659	0	111.128	0	249.4	4	82.8	4	-1E+10	1	-1E+10	1	-1E+10	1	-1E+10	1	-1E+10	1	-1E+10	1
4902551	85	C	12/20/2022	01:16	-131.420	48.095	0	113.10	0	6.5870	0	32.7190	0	25.678	0	112.119	0	248.1	4	82.4	4	-1E+10	1	-1E+10	1	-1E+10	1	-1E+10	1	-1E+10	1	-1E+10	1
4902551	85	C	12/20/2022	01:16	-131.420	48.095	0	113.90	0	6.5660	0	32.7420	0	25.699	0	112.912	0	247.4	4	82.1	4	-1E+10	1	-1E+10	1	-1E+10	1	-1E+10	1	-1E+10	1	-1E+10	1
4902551	85	C	12/20/2022	01:16	-131.420	48.095	0	115.10	0	6.5560	0	32.7510	0	25.707	0	114.101	0	246.4	4	81.8	4	-1E+10	1	-1E+10	1	-1E+10	1	-1E+10	1	-1E+10	1	-1E+10	1
4902551	85	C	12/20/2022	01:16	-131.420	48.095	0	116.00	0	6.5530	0	32.7560	0	25.712	0	114.993	0	245.2	4	81.4	4	-1E+10	1	-1E+10	1	-1E+10	1	-1E+10	1	-1E+10	1	-1E+10	1
4902551	85	C	12/20/2022	01:16	-131.420	48.095	0	116.90	0	6.5510	0	32.7570	0	25.713	0	115.885	0	243.1	4	80.7	4	-1E+10	1	-1E+10	1	-1E+10	1	-1E+10	1	-1E+10	1	-1E+10	1
4902551	85	C	12/20/2022	01:16	-131.420	48.095	0	118.10	0	6.5400	0	32.7700	0	25.724	0	117.074	0	240.7	4	79.8	4	-1E+10	1	-1E+10	1	-1E+10	1	-1E+10	1	-1E+10	1	-1E+10	1
4902551	85	C	12/20/2022	01:16	-131.420	48.095	0	118.90	0	6.5040	0	32.8030	0	25.755	0	117.867	0	239.3	4	79.4	4	-1E+10	1	-1E+10	1	-1E+10	1	-1E+10	1	-1E+10	1	-1E+10	1
4902551	85	C	12/20/2022	01:16	-131.420	48.095	0	120.10	0	6.4830	0	32.8230	0	25.774	0	119.056	0	237.2	4	78.6	4	-1E+10	1	-1E+10	1	-1E+10	1	-1E+10	1	-1E+10	1	-1E+10	1
4902551	85	C	12/20/2022	01:16	-131.420	48.095	0	120.90	0	6.4780	0	32.8300	0	25.780	0	119.849	0	235.2	4	78.0	4	-1E+10	1	-1E+10	1	-1E+10	1	-1E+10	1	-1E+10	1	-1E+10	1
4902551	85	C	12/20/2022	01:16	-131.420	48.095	0	122.20	0	6.4620	0	32.8660	0	25.810	0	121.138	0	232.1	4	76.9	4	-1E+10	1	-1E+10	1	-1E+10	1	-1E+10	1	-1E+10	1	-1E+10	1
4902551	85	C	12/20/2022	01:16	-131.420	48.095	0	122.90	0	6.4490	0	32.9040	0	25.842	0	121.831	0	230.8	4	76.5	4	-1E+10	1	-1E+10	1	-1E+10	1	-1E+10	1	-1E+10	1	-1E+10	1
4902551	85	C	12/20/2022	01:16	-131.420	48.095	0	123.90	0	6.4400	0	32.9220	0	25.857	0	122.822	0	228.8	4	75.8	4	-1E+10	1	-1E+10	1	-1E+10	1	-1E+10	1	-1E+10	1	-1E+10	1
4902551	85	C	12/20/2022	01:16	-131.420	48.095	0	125.00	0	6.4290	0	32.9530	0	25.883	0	123.912	0	226.7	4	75.1	4	-1E+10	1	-1E+10	1	-1E+10	1	-1E+10	1	-1E+10	1	-1E+10	1
4902551	85	C	12/20/2022	01:16	-131.420	48.095	0	125.90	0	6.4230	0	32.9760	0	25.902	0	124.804	0	225.0	4	74.5	4	-1E+10	1	-1E+10	1	-1E+10	1	-1E+10	1	-1E+10	1	-1E+10	1
4902551	85	C	12/20/2022	01:16	-131.420	48.095	0	126.80	0	6.4160	0	33.0230	0	25.940	0	125.696	0	223.5	4	74.1	4	-1E+10	1	-1E+10	1	-1E+10	1	-1E+10	1	-1E+10	1	-1E+10	1
4902551	85	C	12/20/2022	01:16	-131.420	48.095	0	127.90	0	6.4110	0	33.0630	0	25.972	0	126.786	0	222.0	4	73.6	4	-1E+10	1	-1E+10	1	-1E+10	1	-1E+10	1	-1E+10	1	-1E+10	1
4902551	85	C	12/20/2022	01:16	-131.420	48.095	0	128.90	0	6.4070	0	33.0770	0	25.984	0	127.777	0	220.6	4	73.1	4	-1E+10	1	-1E+10	1	-1E+10	1	-1E+10	1	-1E+10	1	-1E+10	1
4902551	85	C	12/20/2022	01:16	-131.420	48.095	0	129.90	0	6.3930	0	33.1100	0	26.012	0	128.768	0	219.1	4	72.6	4	-1E+10	1	-1E+10	1	-1E+10	1	-1E+10	1	-1E+10	1	-1E+10	1
4902551	85	C	12/20/2022	01:16	-131.420	48.095	0	130.90	0	6.3700	0	33.1520	0	26.048	0	129.759	0	217.7	4	72.1	4	-1E+10	1	-1E+10	1	-1E+10	1	-1E+10	1	-1E+10	1	-1E+10	1
4902551	85	C	12/20/2022	01:16	-131.420	48.095	0	132.00	0	6.3560	0	33.1670	0	26.061	0	130.849	0	216.0	4	71.6	4	-1E+10	1	-1E+10	1	-1E+10	1	-1E+10	1	-1E+10	1	-1E+10	1
4902551	85	C	12/20/2022	01:16	-131.420	48.095	0	133.10	0	6.3420	0	33.1850	0	26.077	0	131.939	0	214.1	4	70.9	4	-1E+10	1	-1E+10	1	-1E+10	1	-1E+10	1	-1E+10	1	-1E+10	1
4902551	85	C	12/20/2022	01:16	-131.420	48.095	0	134.00	0	6.3320	0	33.2030	0	26.093	0	132.831	0	212.5	4	70.4	4	-1E+10	1	-1E+10	1	-1E+10	1	-1E+10	1	-1E+10	1	-1E+10	1
4902551	85	C	12/20/2022	01:16	-131.420	48.095	0	134.90	0	6.3310	0	33.2050	0	26.094	0	133.723	0	210.8	4	69.8	4	-1E+10	1	-1E+10	1	-1E+10	1	-1E+10	1	-1E+10	1	-1E+10	1
4902551	85	C	12/20/2022	01:16	-131.420	48.095	0	136.10	0	6.3290	0	33.2120	0	26.100	0	134.912	0	208.6	4	69.1	4	-1E+10	1	-1E+10	1	-1E+10	1	-1E+10	1	-1E+10	1	-1E+10	1
4902551	85	C	12/20/2022	01:16	-131.420	48.095	0	136.90	0	6.3200	0	33.2340	0	26.119	0	135.705	0	206.9	4	68.5	4	-1E+10	1	-1E+10	1	-1E+10	1	-1E+10	1	-1E+10	1	-1E+10	1
4902551	85	C	12/20/2022	01:16	-131.420	48.095	0	138.10	0	6.3070	0	33.2600	0	26.141	0	136.894	0	204.6	4	67.7	4	-1E+10	1	-1E+10	1	-1E+10	1	-1E+10	1	-1E+10	1	-1E+10	1
4902551	85	C	12/20/2022	01:16	-131.420	48.095	0	139.00	0	6.2870	0	33.2830	0	26.162	0	137.786	0	203.1	4	67.2	4	-1E+10	1	-1E+10	1	-1E+10	1	-1E+10	1	-1E+10	1	-1E+10	1
4902551	85	C	12/20/2022	01:16	-131.420	48.095	0	139.70	0	6.2800	0	33.2920	0	26.170	0	138.480	0	201.9	4	66.8	4	-1E+10	1	-1E+10	1	-1E+10	1	-1E+10	1	-1E+10	1	-1E+10	1
4902551	85	C	12/20/2022	01:16	-131.420	48.095	0	140.70	0	6.2650	0	33.3340	0	26.205	0	139.471	0	200.5	4	66.3	4	-1E+10	1	-1E+10	1	-1E+10	1	-1E+10	1	-1E+10	1	-1E+10	1
4902551	85	C	12/20/2022	01:16	-131.420	48.095	0	141.80	0	6.2530	0	33.3490	0	26.218	0	140.561	0	199.2	4	65.9	4	-1E+10	1	-1E+10	1	-1E+10	1	-1E+10	1	-1E+10	1	-1E+10	1
4902551	85	C	12/20/2022	01:16	-131.420	48.095	0	142.90	0	6.2430	0	33.3720	0	26.238	0	141.651	0	198.0	4	65.5	4	-1E+10	1	-1E+10	1	-1E+10	1	-1E+10	1	-1E+10	1	-1E+10	1
4902551	85	C	12/20/2022	01:16	-131.420	48.095	0	144.00	0	6.2350	0	33.3880	0	26.251	0	142.741	0	196.8	4	65.1	4	-1E+10	1	-1E+10	1	-1E+10	1	-1E+10	1	-1E+10	1	-1E+10	1
4902551	85	C	12/20/2022	01:16	-131.420	48.095	0	145.10	0	6.2310	0	33.3960	0	26.258	0	143.831	0	195.6	4	64.7	4	-1E+10	1	-1E+10	1	-1E+10	1	-1E+10	1	-1E+10	1	-1E+10	1
4902551	85	C	12/20/2022	01:16	-131.420	48.095	0	146.00	0	6.2290	0	33.4000	0	26.261	0	144.722	0	194.6	4	64.4	4	-1E+10	1	-1E+10	1	-1E+10	1	-1E+10	1	-1E+10	1	-1E+10	1
4902551	85	C	12/20/2022	01:16	-131.420	48.095	0	146.90	0	6.2270	0	33.4030	0	26.264	0	145.614	0	193.4	4	64.0	4	-1E+10	1	-1E+10	1	-1E+10	1	-1E+10	1	-1E+10	1	-1E+10	1
4902551	85	C	12/20/2022	01:16	-131.420	48.095	0	148.10	0	6.2230	0	33.4080	0	26.269	0	146.803	0	191.2	4	63.3	4	-1E+10	1	-1E+10	1	-1E+10	1	-1E+10	1	-1E+10	1	-1E+10	1
4902551	85	C	12/20/2022	01:16	-131.420	48.095	0	149.00	0	6.2110	0	33.4250	0	26.283	0	147.695	0	189.3	4	62.6	4	-1E+10	1	-1E+10	1	-1E+10	1	-1E+10	1	-1E+10	1	-1E+10	1
4902551	85	C	12/20/2022	01:16	-131.420	48.095	0	150.00	0	6.1990	0	33.4400	0	26.297	0	148.686	0	187.8	4	62.1	4	-1E+10	1	-1E+10	1	-1E+10	1	-1E+10	1	-1E+10	1	-1E+10	1
4902551	85	C	12/20/2022	01:16	-131.420	48.095	0	151.10	0	6.1790	0	33.4620	0	26.317	0	149.776	0	186.6	4	61.7	4	-1E+10	1	-1E+10	1	-1E+10	1	-1E+10	1	-1E+10	1	-1E+10	1
4902551	85	C	12/20/2022	01:16	-131.420	48.095	0	152.00	0	6.1720	0	33.4700	0	26.324	0	150.668	0	185.5	4	61.3	4	-1E+10	1	-1E+10	1	-1E+10	1	-1E+10	1	-1E+10	1	-1E+10	1
4902551	85	C	12/20/2022	01:16	-131.420	48.095	0	153.10	0	6.1640	0	33.4810	0	26.334	0	151.758	0	184.2	4	60.9	4	-1E+10	1	-1E+10	1	-1E+10	1	-1E+10	1	-1E+10	1	-1E+10	1
4902551	85	C	12/20/2022	01:16	-131.420	48.095	0	153.80	0	6.1530	0	33.4940	0	26.345	0	152.451	0	183.3	4	60.6	4	-1E+10	1	-1E+10	1	-1E+10	1	-1E+10	1	-1E+10	1	-1E+10	1
4902551	85	C	12/20/2022	01:16	-131.420	48.095	0	154.90	0	6.1460	0	33.5150	0	26.363	0	153.541	0	182.1	4	60.2	4	-1E+10	1	-1E+10	1	-1E+10	1	-1E+10	1	-1E+10	1	-1E+10	1
4902551	85	C	12/20/2022	01:16	-131.420	48.095	0	156.00	0	6.1410	0	33.5310	0	26.376	0	154.631	0	181.0	4	59.8	4	-1E+10	1	-1E+10	1	-1E+10	1	-1E+10	1	-1E+10	1	-1E+10	1
4902551	85	C	12/20/2022	01:16	-131.420	48.095	0	156.80	0	6.1380	0	33.5410	0	26.384	0	155.424	0	180.3	4	59.6	4	-1E+10	1	-1E+10	1	-1E+10	1	-1E+10	1	-1E+10	1	-1E+10	1
4902551	85	C	12/20/2022	01:16	-131.420	48.095	0	158.00	0	6.1290	0	33.5510	0	26.393	0	156.613	0	179.1	4	59.2	4	-1E+10	1	-1E+10	1	-1E+10	1	-1E+10	1	-1E+10	1	-1E+10	1
4902551	85	C	12/20/2022	01:16	-131.420	48.095	0	159.20	0	6.1200	0	33.5630	0	26.404	0	157.802	0	178.0	4	58.8	4	-1E+10	1	-1E+10	1	-1E+10	1	-1E+10	1	-1E+10	1	-1E+10	1
4902551	85	C	12/20/2022	01:16	-131.420	48.095	0	160.00	0	6.1160	0	33.5630	0	26.405	0	158.594	0	177.4	4	58.6	4	-1E+10	1	-1E+10	1	-1E+10	1	-1E+10	1	-1E+10	1	-1E+10	1
4902551	85	C	12/20/2022	01:16	-131.420	48.095	0	160.80	0	6.1100	0	33.5660	0	26.408	0	159.387	0	176.7	4	58.4	4	-1E+10	1	-1E+10	1	-1E+10	1	-1E+10	1	-1E+10	1	-1E+10	1
4902551	85	C	12/20/2022	01:16	-131.420	48.095	0	162.00	0	6.1050	0	33.5680	0	26.410	0	160.576	0	175.5	4	58.0	4	-1E+10	1	-1E+10	1	-1E+10	1	-1E+10	1	-1E+10	1	-1E+10	1
4902551	85	C	12/20/2022	01:16	-131.420	48.095	0	163.20	0	6.0830	0	33.5710	0	26.415	0	161.765	0	174.2	4	57.5	4	-1E+10	1	-1E+10	1	-1E+10	1	-1E+10	1	-1E+10	1	-1E+10	1
4902551	85	C	12/20/2022	01:16	-131.420	48.095	0	164.00	0	6.0780	0	33.5730	0	26.417	0	162.558	0	173.3	4	57.2	4	-1E+10	1	-1E+10	1	-1E+10	1	-1E+10	1	-1E+10	1	-1E+10	1
4902551	85	C	12/20/2022	01:16	-131.420	48.095	0	164.80	0	6.0680	0	33.5790	0	26.423	0	163.350	0	172.4	4	56.9	4	-1E+10	1	-1E+10	1	-1E+10	1	-1E+10	1	-1E+10	1	-1E+10	1
4902551	85	C	12/20/2022	01:16	-131.420	48.095	0	165.90	0	6.0580	0	33.5880	0	26.432	0	164.440	0	170.9	4	56.4	4	-1E+10	1	-1E+10	1	-1E+10	1	-1E+10	1	-1E+10	1	-1E+10	1
4902551	85	C	12/20/2022	01:16	-131.420	48.095	0	167.10	0	6.0350	0	33.6020	0	26.446	0	165.629	0	169.5	4	55.9	4	-1E+10	1	-1E+10	1	-1E+10	1	-1E+10	1	-1E+10	1	-1E+10	1
4902551	85	C	12/20/2022	01:16	-131.420	48.095	0	167.80	0	6.0310	0	33.6070	0	26.450	0	166.323	0	168.4	4	55.6	4	-1E+10	1	-1E+10	1	-1E+10	1	-1E+10	1	-1E+10	1	-1E+10	1
4902551	85	C	12/20/2022	01:16	-131.420	48.095	0	169.00	0	6.0050	0	33.6350	0	26.475	0	167.512	0	167.4	4	55.2	4	-1E+10	1	-1E+10	1	-1E+10	1	-1E+10	1	-1E+10	1	-1E+10	1
4902551	85	C	12/20/2022	01:16	-131.420	48.095	0	170.30	0	5.9740	0	33.6530	0	26.493	0	168.800	0	166.5	4	54.9	4	-1E+10	1	-1E+10	1	-1E+10	1	-1E+10	1	-1E+10	1	-1E+10	1
4902551	85	C	12/20/2022	01:16	-131.420	48.095	0	171.20	0	5.9710	0	33.6540	0	26.495	0	169.692	0	165.9	4	54.7	4	-1E+10	1	-1E+10	1	-1E+10	1	-1E+10	1	-1E+10	1	-1E+10	1
4902551	85	C	12/20/2022	01:16	-131.420	48.095	0	172.00	0	5.9620	0	33.6560	0	26.497	0	170.484	0	165.3	4	54.5	4	-1E+10	1	-1E+10	1	-1E+10	1	-1E+10	1	-1E+10	1	-1E+10	1
4902551	85	C	12/20/2022	01:16	-131.420	48.095	0	172.80	0	5.9570	0	33.6570	0	26.499	0	171.277	0	164.7	4	54.3	4	-1E+10	1	-1E+10	1	-1E+10	1	-1E+10	1	-1E+10	1	-1E+10	1
4902551	85	C	12/20/2022	01:16	-131.420	48.095	0	173.60	0	5.9540	0	33.6570	0	26.499	0	172.069	0	164.0	4	54.0	4	-1E+10	1	-1E+10	1	-1E+10	1	-1E+10	1	-1E+10	1	-1E+10	1
4902551	85	C	12/20/2022	01:16	-131.420	48.095	0	174.90	0	5.9400	0	33.6600	0	26.503	0	173.357	0	163.0	4	53.7	4	-1E+10	1	-1E+10	1	-1E+10	1	-1E+10	1	-1E+10	1	-1E+10	1
4902551	85	C	12/20/2022	01:16	-131.420	48.095	0	176.20	0	5.9230	0	33.6650	0	26.509	0	174.645	0	162.0	4	53.3	4	-1E+10	1	-1E+10	1	-1E+10	1	-1E+10	1	-1E+10	1	-1E+10	1
4902551	85	C	12/20/2022	01:16	-131.420	48.095	0	177.00	0	5.9210	0	33.6650	0	26.510	0	175.438	0	161.2	4	53.1	4	-1E+10	1	-1E+10	1	-1E+10	1	-1E+10	1	-1E+10	1	-1E+10	1
4902551	85	C	12/20/2022	01:16	-131.420	48.095	0	177.90	0	5.9120	0	33.6680	0	26.513	0	176.330	0	160.5	4	52.8	4	-1E+10	1	-1E+10	1	-1E+10	1	-1E+10	1	-1E+10	1	-1E+10	1
4902551	85	C	12/20/2022	01:16	-131.420	48.095	0	178.70	0	5.9030	0	33.6730	0	26.518	0	177.122	0	159.7	4	52.6	4	-1E+10	1	-1E+10	1	-1E+10	1	-1E+10	1	-1E+10	1	-1E+10	1
4902551	85	C	12/20/2022	01:16	-131.420	48.095	0	179.90	0	5.8890	0	33.6780	0	26.524	0	178.311	0	158.5	4	52.1	4	-1E+10	1	-1E+10	1	-1E+10	1	-1E+10	1	-1E+10	1	-1E+10	1
4902551	85	C	12/20/2022	01:16	-131.420	48.095	0	181.10	0	5.8840	0	33.6790	0	26.525	0	179.500	0	157.1	4	51.7	4	-1E+10	1	-1E+10	1	-1E+10	1	-1E+10	1	-1E+10	1	-1E+10	1
4902551	85	C	12/20/2022	01:16	-131.420	48.095	0	182.00	0	5.8790	0	33.6810	0	26.527	0	180.392	0	156.0	4	51.3	4	-1E+10	1	-1E+10	1	-1E+10	1	-1E+10	1	-1E+10	1	-1E+10	1
4902551	85	C	12/20/2022	01:16	-131.420	48.095	0	182.80	0	5.8710	0	33.6830	0	26.530	0	181.184	0	155.3	4	51.1	4	-1E+10	1	-1E+10	1	-1E+10	1	-1E+10	1	-1E+10	1	-1E+10	1
4902551	85	C	12/20/2022	01:16	-131.420	48.095	0	183.70	0	5.8460	0	33.6900	0	26.539	0	182.076	0	154.4	4	50.8	4	-1E+10	1	-1E+10	1	-1E+10	1	-1E+10	1	-1E+10	1	-1E+10	1
4902551	85	C	12/20/2022	01:16	-131.420	48.095	0	184.60	0	5.8370	0	33.6980	0	26.546	0	182.968	0	153.7	4	50.5	4	-1E+10	1	-1E+10	1	-1E+10	1	-1E+10	1	-1E+10	1	-1E+10	1
4902551	85	C	12/20/2022	01:16	-131.420	48.095	0	185.90	0	5.8110	0	33.7050	0	26.555	0	184.255	0	152.8	4	50.2	4	-1E+10	1	-1E+10	1	-1E+10	1	-1E+10	1	-1E+10	1	-1E+10	1
4902551	85	C	12/20/2022	01:16	-131.420	48.095	0	187.20	0	5.7780	0	33.7120	0	26.564	0	185.543	0	151.8	4	49.8	4	-1E+10	1	-1E+10	1	-1E+10	1	-1E+10	1	-1E+10	1	-1E+10	1
4902551	85	C	12/20/2022	01:16	-131.420	48.095	0	188.20	0	5.7660	0	33.7110	0	26.565	0	186.534	0	151.3	4	49.6	4	-1E+10	1	-1E+10	1	-1E+10	1	-1E+10	1	-1E+10	1	-1E+10	1
4902551	85	C	12/20/2022	01:16	-131.420	48.095	0	189.00	0	5.7580	0	33.7120	0	26.567	0	187.327	0	150.6	4	49.4	4	-1E+10	1	-1E+10	1	-1E+10	1	-1E+10	1	-1E+10	1	-1E+10	1
4902551	85	C	12/20/2022	01:16	-131.420	48.095	0	189.90	0	5.7470	0	33.7130	0	26.569	0	188.218	0	150.0	4	49.2	4	-1E+10	1	-1E+10	1	-1E+10	1	-1E+10	1	-1E+10	1	-1E+10	1
4902551	85	C	12/20/2022	01:16	-131.420	48.095	0	190.80	0	5.7210	0	33.7170	0	26.575	0	189.110	0	149.5	4	49.0	4	-1E+10	1	-1E+10	1	-1E+10	1	-1E+10	1	-1E+10	1	-1E+10	1
4902551	85	C	12/20/2022	01:16	-131.420	48.095	0	191.80	0	5.7010	0	33.7150	0	26.576	0	190.101	0	148.9	4	48.8	4	-1E+10	1	-1E+10	1	-1E+10	1	-1E+10	1	-1E+10	1	-1E+10	1
4902551	85	C	12/20/2022	01:16	-131.420	48.095	0	192.70	0	5.6930	0	33.7160	0	26.578	0	190.992	0	148.3	4	48.6	4	-1E+10	1	-1E+10	1	-1E+10	1	-1E+10	1	-1E+10	1	-1E+10	1
4902551	85	C	12/20/2022	01:16	-131.420	48.095	0	193.60	0	5.6810	0	33.7170	0	26.580	0	191.884	0	147.8	4	48.4	4	-1E+10	1	-1E+10	1	-1E+10	1	-1E+10	1	-1E+10	1	-1E+10	1
4902551	85	C	12/20/2022	01:16	-131.420	48.095	0	194.90	0	5.6450	0	33.7210	0	26.588	0	193.172	0	147.1	4	48.1	4	-1E+10	1	-1E+10	1	-1E+10	1	-1E+10	1	-1E+10	1	-1E+10	1
4902551	85	C	12/20/2022	01:16	-131.420	48.095	0	196.30	0	5.6290	0	33.7240	0	26.592	0	194.559	0	146.4	4	47.9	4	-1E+10	1	-1E+10	1	-1E+10	1	-1E+10	1	-1E+10	1	-1E+10	1
4902551	85	C	12/20/2022	01:16	-131.420	48.095	0	197.30	0	5.6200	0	33.7250	0	26.594	0	195.549	0	146.0	4	47.7	4	-1E+10	1	-1E+10	1	-1E+10	1	-1E+10	1	-1E+10	1	-1E+10	1
4902551	85	C	12/20/2022	01:16	-131.420	48.095	0	198.20	0	5.6100	0	33.7250	0	26.595	0	196.441	0	145.6	4	47.6	4	-1E+10	1	-1E+10	1	-1E+10	1	-1E+10	1	-1E+10	1	-1E+10	1
4902551	85	C	12/20/2022	01:16	-131.420	48.095	0	199.10	0	5.6060	0	33.7260	0	26.596	0	197.332	0	145.1	4	47.4	4	-1E+10	1	-1E+10	1	-1E+10	1	-1E+10	1	-1E+10	1	-1E+10	1
4902551	85	C	12/20/2022	01:16	-131.420	48.095	0	200.10	0	5.5820	0	33.7250	0	26.599	0	198.323	0	144.8	4	47.3	4	-1E+10	1	-1E+10	1	-1E+10	1	-1E+10	1	-1E+10	1	-1E+10	1
4902551	85	C	12/20/2022	01:16	-131.420	48.095	0	201.00	0	5.5680	0	33.7250	0	26.600	0	199.215	0	144.5	4	47.2	4	-1E+10	1	-1E+10	1	-1E+10	1	-1E+10	1	-1E+10	1	-1E+10	1
4902551	85	C	12/20/2022	01:16	-131.420	48.095	0	202.00	0	5.5520	0	33.7250	0	26.602	0	200.205	0	144.2	4	47.1	4	-1E+10	1	-1E+10	1	-1E+10	1	-1E+10	1	-1E+10	1	-1E+10	1
4902551	85	C	12/20/2022	01:16	-131.420	48.095	0	203.00	0	5.5440	0	33.7270	0	26.605	0	201.196	0	143.9	4	47.0	4	-1E+10	1	-1E+10	1	-1E+10	1	-1E+10	1	-1E+10	1	-1E+10	1
4902551	85	C	12/20/2022	01:16	-131.420	48.095	0	203.90	0	5.5430	0	33.7260	0	26.604	0	202.087	0	143.4	4	46.8	4	-1E+10	1	-1E+10	1	-1E+10	1	-1E+10	1	-1E+10	1	-1E+10	1
4902551	85	C	12/20/2022	01:16	-131.420	48.095	0	204.80	0	5.5410	0	33.7250	0	26.603	0	202.979	0	143.0	4	46.7	4	-1E+10	1	-1E+10	1	-1E+10	1	-1E+10	1	-1E+10	1	-1E+10	1
4902551	85	C	12/20/2022	01:16	-131.420	48.095	0	205.80	0	5.5420	0	33.7240	0	26.603	0	203.970	0	142.3	4	46.5	4	-1E+10	1	-1E+10	1	-1E+10	1	-1E+10	1	-1E+10	1	-1E+10	1
4902551	85	C	12/20/2022	01:16	-131.420	48.095	0	206.70	0	5.5250	0	33.7220	0	26.603	0	204.861	0	141.6	4	46.2	4	-1E+10	1	-1E+10	1	-1E+10	1	-1E+10	1	-1E+10	1	-1E+10	1
4902551	85	C	12/20/2022	01:16	-131.420	48.095	0	207.60	0	5.5050	0	33.7220	0	26.605	0	205.753	0	140.9	4	46.0	4	-1E+10	1	-1E+10	1	-1E+10	1	-1E+10	1	-1E+10	1	-1E+10	1
4902551	85	C	12/20/2022	01:16	-131.420	48.095	0	208.60	0	5.4890	0	33.7250	0	26.610	0	206.743	0	140.2	4	45.7	4	-1E+10	1	-1E+10	1	-1E+10	1	-1E+10	1	-1E+10	1	-1E+10	1
4902551	85	C	12/20/2022	01:16	-131.420	48.095	0	209.90	0	5.4610	0	33.7280	0	26.615	0	208.031	0	139.5	4	45.5	4	-1E+10	1	-1E+10	1	-1E+10	1	-1E+10	1	-1E+10	1	-1E+10	1
4902551	85	C	12/20/2022	01:16	-131.420	48.095	0	211.30	0	5.4540	0	33.7260	0	26.615	0	209.418	0	138.6	4	45.1	4	-1E+10	1	-1E+10	1	-1E+10	1	-1E+10	1	-1E+10	1	-1E+10	1
4902551	85	C	12/20/2022	01:16	-131.420	48.095	0	212.30	0	5.4540	0	33.7260	0	26.615	0	210.408	0	137.8	4	44.9	4	-1E+10	1	-1E+10	1	-1E+10	1	-1E+10	1	-1E+10	1	-1E+10	1
4902551	85	C	12/20/2022	01:16	-131.420	48.095	0	213.20	0	5.4450	0	33.7270	0	26.617	0	211.300	0	137.0	4	44.6	4	-1E+10	1	-1E+10	1	-1E+10	1	-1E+10	1	-1E+10	1	-1E+10	1
4902551	85	C	12/20/2022	01:16	-131.420	48.095	0	214.10	0	5.4280	0	33.7280	0	26.619	0	212.192	0	136.2	4	44.3	4	-1E+10	1	-1E+10	1	-1E+10	1	-1E+10	1	-1E+10	1	-1E+10	1
4902551	85	C	12/20/2022	01:16	-131.420	48.095	0	215.10	0	5.4010	0	33.7310	0	26.625	0	213.182	0	135.5	4	44.1	4	-1E+10	1	-1E+10	1	-1E+10	1	-1E+10	1	-1E+10	1	-1E+10	1
4902551	85	C	12/20/2022	01:16	-131.420	48.095	0	216.00	0	5.3890	0	33.7330	0	26.628	0	214.074	0	134.9	4	43.9	4	-1E+10	1	-1E+10	1	-1E+10	1	-1E+10	1	-1E+10	1	-1E+10	1
4902551	85	C	12/20/2022	01:16	-131.420	48.095	0	216.90	0	5.3740	0	33.7330	0	26.630	0	214.965	0	134.4	4	43.7	4	-1E+10	1	-1E+10	1	-1E+10	1	-1E+10	1	-1E+10	1	-1E+10	1
4902551	85	C	12/20/2022	01:16	-131.420	48.095	0	217.90	0	5.3690	0	33.7340	0	26.631	0	215.956	0	133.8	4	43.5	4	-1E+10	1	-1E+10	1	-1E+10	1	-1E+10	1	-1E+10	1	-1E+10	1
4902551	85	C	12/20/2022	01:16	-131.420	48.095	0	218.80	0	5.3570	0	33.7340	0	26.633	0	216.847	0	133.1	4	43.3	4	-1E+10	1	-1E+10	1	-1E+10	1	-1E+10	1	-1E+10	1	-1E+10	1
4902551	85	C	12/20/2022	01:16	-131.420	48.095	0	219.70	0	5.3380	0	33.7370	0	26.637	0	217.739	0	132.5	4	43.1	4	-1E+10	1	-1E+10	1	-1E+10	1	-1E+10	1	-1E+10	1	-1E+10	1
4902551	85	C	12/20/2022	01:16	-131.420	48.095	0	220.60	0	5.3320	0	33.7350	0	26.636	0	218.630	0	131.9	4	42.8	4	-1E+10	1	-1E+10	1	-1E+10	1	-1E+10	1	-1E+10	1	-1E+10	1
4902551	85	C	12/20/2022	01:16	-131.420	48.095	0	221.60	0	5.3200	0	33.7360	0	26.638	0	219.621	0	131.3	4	42.6	4	-1E+10	1	-1E+10	1	-1E+10	1	-1E+10	1	-1E+10	1	-1E+10	1
4902551	85	C	12/20/2022	01:16	-131.420	48.095	0	222.90	0	5.2870	0	33.7390	0	26.645	0	220.908	0	130.3	4	42.3	4	-1E+10	1	-1E+10	1	-1E+10	1	-1E+10	1	-1E+10	1	-1E+10	1
4902551	85	C	12/20/2022	01:16	-131.420	48.095	0	224.30	0	5.2690	0	33.7400	0	26.648	0	222.295	0	129.4	4	42.0	4	-1E+10	1	-1E+10	1	-1E+10	1	-1E+10	1	-1E+10	1	-1E+10	1
4902551	85	C	12/20/2022	01:16	-131.420	48.095	0	225.30	0	5.2630	0	33.7410	0	26.649	0	223.286	0	128.8	4	41.8	4	-1E+10	1	-1E+10	1	-1E+10	1	-1E+10	1	-1E+10	1	-1E+10	1
4902551	85	C	12/20/2022	01:16	-131.420	48.095	0	226.20	0	5.2540	0	33.7410	0	26.650	0	224.177	0	128.1	4	41.5	4	-1E+10	1	-1E+10	1	-1E+10	1	-1E+10	1	-1E+10	1	-1E+10	1
4902551	85	C	12/20/2022	01:16	-131.420	48.095	0	227.10	0	5.2460	0	33.7420	0	26.652	0	225.069	0	127.5	4	41.3	4	-1E+10	1	-1E+10	1	-1E+10	1	-1E+10	1	-1E+10	1	-1E+10	1
4902551	85	C	12/20/2022	01:16	-131.420	48.095	0	228.00	0	5.2370	0	33.7440	0	26.654	0	225.960	0	126.7	4	41.1	4	-1E+10	1	-1E+10	1	-1E+10	1	-1E+10	1	-1E+10	1	-1E+10	1
4902551	85	C	12/20/2022	01:16	-131.420	48.095	0	229.00	0	5.2250	0	33.7430	0	26.655	0	226.951	0	126.0	4	40.8	4	-1E+10	1	-1E+10	1	-1E+10	1	-1E+10	1	-1E+10	1	-1E+10	1
4902551	85	C	12/20/2022	01:16	-131.420	48.095	0	229.90	0	5.2190	0	33.7440	0	26.657	0	227.842	0	125.2	4	40.6	4	-1E+10	1	-1E+10	1	-1E+10	1	-1E+10	1	-1E+10	1	-1E+10	1
4902551	85	C	12/20/2022	01:16	-131.420	48.095	0	230.80	0	5.2110	0	33.7440	0	26.658	0	228.733	0	124.4	4	40.3	4	-1E+10	1	-1E+10	1	-1E+10	1	-1E+10	1	-1E+10	1	-1E+10	1
4902551	85	C	12/20/2022	01:16	-131.420	48.095	0	231.70	0	5.2050	0	33.7450	0	26.659	0	229.625	0	123.5	4	40.0	4	-1E+10	1	-1E+10	1	-1E+10	1	-1E+10	1	-1E+10	1	-1E+10	1
4902551	85	C	12/20/2022	01:16	-131.420	48.095	0	232.70	0	5.1950	0	33.7460	0	26.661	0	230.615	0	122.5	4	39.7	4	-1E+10	1	-1E+10	1	-1E+10	1	-1E+10	1	-1E+10	1	-1E+10	1
4902551	85	C	12/20/2022	01:16	-131.420	48.095	0	233.60	0	5.1810	0	33.7470	0	26.663	0	231.507	0	121.6	4	39.4	4	-1E+10	1	-1E+10	1	-1E+10	1	-1E+10	1	-1E+10	1	-1E+10	1
4902551	85	C	12/20/2022	01:16	-131.420	48.095	0	234.60	0	5.1750	0	33.7470	0	26.664	0	232.497	0	120.5	4	39.0	4	-1E+10	1	-1E+10	1	-1E+10	1	-1E+10	1	-1E+10	1	-1E+10	1
4902551	85	C	12/20/2022	01:16	-131.420	48.095	0	235.90	0	5.1690	0	33.7460	0	26.664	0	233.785	0	118.9	4	38.5	4	-1E+10	1	-1E+10	1	-1E+10	1	-1E+10	1	-1E+10	1	-1E+10	1
4902551	85	C	12/20/2022	01:16	-131.420	48.095	0	237.40	0	5.1230	0	33.7530	0	26.675	0	235.271	0	117.3	4	37.9	4	-1E+10	1	-1E+10	1	-1E+10	1	-1E+10	1	-1E+10	1	-1E+10	1
4902551	85	C	12/20/2022	01:16	-131.420	48.095	0	238.30	0	5.0940	0	33.7560	0	26.681	0	236.162	0	116.5	4	37.6	4	-1E+10	1	-1E+10	1	-1E+10	1	-1E+10	1	-1E+10	1	-1E+10	1
4902551	85	C	12/20/2022	01:16	-131.420	48.095	0	239.20	0	5.0830	0	33.7560	0	26.682	0	237.053	0	115.7	4	37.4	4	-1E+10	1	-1E+10	1	-1E+10	1	-1E+10	1	-1E+10	1	-1E+10	1
4902551	85	C	12/20/2022	01:16	-131.420	48.095	0	240.10	0	5.0690	0	33.7610	0	26.687	0	237.945	0	114.9	4	37.1	4	-1E+10	1	-1E+10	1	-1E+10	1	-1E+10	1	-1E+10	1	-1E+10	1
4902551	85	C	12/20/2022	01:16	-131.420	48.095	0	241.10	0	5.0510	0	33.7600	0	26.689	0	238.935	0	114.1	4	36.8	4	-1E+10	1	-1E+10	1	-1E+10	1	-1E+10	1	-1E+10	1	-1E+10	1
4902551	85	C	12/20/2022	01:16	-131.420	48.095	0	242.00	0	5.0460	0	33.7610	0	26.690	0	239.827	0	113.3	4	36.6	4	-1E+10	1	-1E+10	1	-1E+10	1	-1E+10	1	-1E+10	1	-1E+10	1
4902551	85	C	12/20/2022	01:16	-131.420	48.095	0	243.00	0	5.0280	0	33.7660	0	26.696	0	240.817	0	112.5	4	36.3	4	-1E+10	1	-1E+10	1	-1E+10	1	-1E+10	1	-1E+10	1	-1E+10	1
4902551	85	C	12/20/2022	01:16	-131.420	48.095	0	243.90	0	5.0220	0	33.7640	0	26.695	0	241.708	0	111.7	4	36.0	4	-1E+10	1	-1E+10	1	-1E+10	1	-1E+10	1	-1E+10	1	-1E+10	1
4902551	85	C	12/20/2022	01:16	-131.420	48.095	0	244.80	0	5.0040	0	33.7670	0	26.700	0	242.600	0	111.0	4	35.8	4	-1E+10	1	-1E+10	1	-1E+10	1	-1E+10	1	-1E+10	1	-1E+10	1
4902551	85	C	12/20/2022	01:16	-131.420	48.095	0	245.80	0	4.9910	0	33.7690	0	26.703	0	243.590	0	110.4	4	35.6	4	-1E+10	1	-1E+10	1	-1E+10	1	-1E+10	1	-1E+10	1	-1E+10	1
4902551	85	C	12/20/2022	01:16	-131.420	48.095	0	246.70	0	4.9860	0	33.7690	0	26.703	0	244.482	0	109.8	4	35.4	4	-1E+10	1	-1E+10	1	-1E+10	1	-1E+10	1	-1E+10	1	-1E+10	1
4902551	85	C	12/20/2022	01:16	-131.420	48.095	0	247.60	0	4.9800	0	33.7710	0	26.705	0	245.373	0	109.1	4	35.2	4	-1E+10	1	-1E+10	1	-1E+10	1	-1E+10	1	-1E+10	1	-1E+10	1
4902551	85	C	12/20/2022	01:16	-131.420	48.095	0	248.60	0	4.9640	0	33.7730	0	26.709	0	246.363	0	108.6	4	35.0	4	-1E+10	1	-1E+10	1	-1E+10	1	-1E+10	1	-1E+10	1	-1E+10	1
4902551	85	C	12/20/2022	01:16	-131.420	48.095	0	249.50	0	4.9350	0	33.7780	0	26.716	0	247.255	0	108.2	4	34.8	4	-1E+10	1	-1E+10	1	-1E+10	1	-1E+10	1	-1E+10	1	-1E+10	1
4902551	85	C	12/20/2022	01:16	-131.420	48.095	0	250.90	0	4.9290	0	33.7770	0	26.716	0	248.641	0	107.6	4	34.6	4	-1E+10	1	-1E+10	1	-1E+10	1	-1E+10	1	-1E+10	1	-1E+10	1
4902551	85	C	12/20/2022	01:16	-131.420	48.095	0	252.40	0	4.9250	0	33.7770	0	26.716	0	250.127	0	107.0	4	34.4	4	-1E+10	1	-1E+10	1	-1E+10	1	-1E+10	1	-1E+10	1	-1E+10	1
4902551	85	C	12/20/2022	01:16	-131.420	48.095	0	253.40	0	4.9240	0	33.7780	0	26.717	0	251.117	0	106.5	4	34.3	4	-1E+10	1	-1E+10	1	-1E+10	1	-1E+10	1	-1E+10	1	-1E+10	1
4902551	85	C	12/20/2022	01:16	-131.420	48.095	0	254.30	0	4.9230	0	33.7780	0	26.717	0	252.009	0	105.9	4	34.1	4	-1E+10	1	-1E+10	1	-1E+10	1	-1E+10	1	-1E+10	1	-1E+10	1
4902551	85	C	12/20/2022	01:16	-131.420	48.095	0	255.30	0	4.9220	0	33.7770	0	26.717	0	252.999	0	105.3	4	33.9	4	-1E+10	1	-1E+10	1	-1E+10	1	-1E+10	1	-1E+10	1	-1E+10	1
4902551	85	C	12/20/2022	01:16	-131.420	48.095	0	256.30	0	4.9210	0	33.7780	0	26.718	0	253.989	0	104.6	4	33.7	4	-1E+10	1	-1E+10	1	-1E+10	1	-1E+10	1	-1E+10	1	-1E+10	1
4902551	85	C	12/20/2022	01:16	-131.420	48.095	0	257.20	0	4.9170	0	33.7780	0	26.718	0	254.881	0	103.8	4	33.4	4	-1E+10	1	-1E+10	1	-1E+10	1	-1E+10	1	-1E+10	1	-1E+10	1
4902551	85	C	12/20/2022	01:16	-131.420	48.095	0	258.20	0	4.9060	0	33.7810	0	26.722	0	255.871	0	103.0	4	33.1	4	-1E+10	1	-1E+10	1	-1E+10	1	-1E+10	1	-1E+10	1	-1E+10	1
4902551	85	C	12/20/2022	01:16	-131.420	48.095	0	259.20	0	4.8970	0	33.7810	0	26.723	0	256.861	0	102.3	4	32.9	4	-1E+10	1	-1E+10	1	-1E+10	1	-1E+10	1	-1E+10	1	-1E+10	1
4902551	85	C	12/20/2022	01:16	-131.420	48.095	0	260.20	0	4.8850	0	33.7840	0	26.727	0	257.852	0	101.6	4	32.7	4	-1E+10	1	-1E+10	1	-1E+10	1	-1E+10	1	-1E+10	1	-1E+10	1
4902551	85	C	12/20/2022	01:16	-131.420	48.095	0	261.20	0	4.8770	0	33.7880	0	26.731	0	258.842	0	101.0	4	32.5	4	-1E+10	1	-1E+10	1	-1E+10	1	-1E+10	1	-1E+10	1	-1E+10	1
4902551	85	C	12/20/2022	01:16	-131.420	48.095	0	262.10	0	4.8690	0	33.7900	0	26.733	0	259.734	0	100.5	4	32.3	4	-1E+10	1	-1E+10	1	-1E+10	1	-1E+10	1	-1E+10	1	-1E+10	1
4902551	85	C	12/20/2022	01:16	-131.420	48.095	0	263.20	0	4.8650	0	33.7910	0	26.734	0	260.823	0	99.9	4	32.1	4	-1E+10	1	-1E+10	1	-1E+10	1	-1E+10	1	-1E+10	1	-1E+10	1
4902551	85	C	12/20/2022	01:16	-131.420	48.095	0	264.20	0	4.8470	0	33.7900	0	26.736	0	261.813	0	99.4	4	31.9	4	-1E+10	1	-1E+10	1	-1E+10	1	-1E+10	1	-1E+10	1	-1E+10	1
4902551	85	C	12/20/2022	01:16	-131.420	48.095	0	265.20	0	4.8410	0	33.7940	0	26.739	0	262.804	0	98.9	4	31.8	4	-1E+10	1	-1E+10	1	-1E+10	1	-1E+10	1	-1E+10	1	-1E+10	1
4902551	85	C	12/20/2022	01:16	-131.420	48.095	0	266.10	0	4.8380	0	33.7940	0	26.740	0	263.695	0	98.4	4	31.6	4	-1E+10	1	-1E+10	1	-1E+10	1	-1E+10	1	-1E+10	1	-1E+10	1
4902551	85	C	12/20/2022	01:16	-131.420	48.095	0	267.00	0	4.8320	0	33.7950	0	26.741	0	264.586	0	97.9	4	31.4	4	-1E+10	1	-1E+10	1	-1E+10	1	-1E+10	1	-1E+10	1	-1E+10	1
4902551	85	C	12/20/2022	01:16	-131.420	48.095	0	268.10	0	4.8250	0	33.7960	0	26.743	0	265.675	0	97.3	4	31.2	4	-1E+10	1	-1E+10	1	-1E+10	1	-1E+10	1	-1E+10	1	-1E+10	1
4902551	85	C	12/20/2022	01:16	-131.420	48.095	0	268.90	0	4.8200	0	33.7960	0	26.743	0	266.468	0	96.8	4	31.1	4	-1E+10	1	-1E+10	1	-1E+10	1	-1E+10	1	-1E+10	1	-1E+10	1
4902551	85	C	12/20/2022	01:16	-131.420	48.095	0	270.00	0	4.7950	0	33.7990	0	26.749	0	267.557	0	96.2	4	30.9	4	-1E+10	1	-1E+10	1	-1E+10	1	-1E+10	1	-1E+10	1	-1E+10	1
4902551	85	C	12/20/2022	01:16	-131.420	48.095	0	271.10	0	4.7930	0	33.8000	0	26.750	0	268.646	0	95.6	4	30.7	4	-1E+10	1	-1E+10	1	-1E+10	1	-1E+10	1	-1E+10	1	-1E+10	1
4902551	85	C	12/20/2022	01:16	-131.420	48.095	0	271.90	0	4.8080	0	33.8020	0	26.749	0	269.439	0	95.2	4	30.6	4	-1E+10	1	-1E+10	1	-1E+10	1	-1E+10	1	-1E+10	1	-1E+10	1
4902551	85	C	12/20/2022	01:16	-131.420	48.095	0	273.00	0	4.8120	0	33.8050	0	26.751	0	270.528	0	94.7	4	30.4	4	-1E+10	1	-1E+10	1	-1E+10	1	-1E+10	1	-1E+10	1	-1E+10	1
4902551	85	C	12/20/2022	01:16	-131.420	48.095	0	274.20	0	4.8120	0	33.8070	0	26.753	0	271.716	0	94.1	4	30.2	4	-1E+10	1	-1E+10	1	-1E+10	1	-1E+10	1	-1E+10	1	-1E+10	1
4902551	85	C	12/20/2022	01:16	-131.420	48.095	0	274.90	0	4.8080	0	33.8070	0	26.753	0	272.410	0	93.7	4	30.1	4	-1E+10	1	-1E+10	1	-1E+10	1	-1E+10	1	-1E+10	1	-1E+10	1
4902551	85	C	12/20/2022	01:16	-131.420	48.095	0	276.00	0	4.8050	0	33.8080	0	26.755	0	273.499	0	93.0	4	29.9	4	-1E+10	1	-1E+10	1	-1E+10	1	-1E+10	1	-1E+10	1	-1E+10	1
4902551	85	C	12/20/2022	01:16	-131.420	48.095	0	277.20	0	4.8030	0	33.8100	0	26.756	0	274.687	0	92.3	4	29.6	4	-1E+10	1	-1E+10	1	-1E+10	1	-1E+10	1	-1E+10	1	-1E+10	1
4902551	85	C	12/20/2022	01:16	-131.420	48.095	0	278.00	0	4.7880	0	33.8100	0	26.758	0	275.479	0	91.8	4	29.5	4	-1E+10	1	-1E+10	1	-1E+10	1	-1E+10	1	-1E+10	1	-1E+10	1
4902551	85	C	12/20/2022	01:16	-131.420	48.095	0	278.80	0	4.7650	0	33.8140	0	26.764	0	276.272	0	91.5	4	29.3	4	-1E+10	1	-1E+10	1	-1E+10	1	-1E+10	1	-1E+10	1	-1E+10	1
4902551	85	C	12/20/2022	01:16	-131.420	48.095	0	280.00	0	4.7440	0	33.8140	0	26.766	0	277.460	0	91.1	4	29.2	4	-1E+10	1	-1E+10	1	-1E+10	1	-1E+10	1	-1E+10	1	-1E+10	1
4902551	85	C	12/20/2022	01:16	-131.420	48.095	0	281.30	0	4.7340	0	33.8150	0	26.768	0	278.747	0	90.7	4	29.1	4	-1E+10	1	-1E+10	1	-1E+10	1	-1E+10	1	-1E+10	1	-1E+10	1
4902551	85	C	12/20/2022	01:16	-131.420	48.095	0	282.10	0	4.7320	0	33.8140	0	26.767	0	279.539	0	90.4	4	29.0	4	-1E+10	1	-1E+10	1	-1E+10	1	-1E+10	1	-1E+10	1	-1E+10	1
4902551	85	C	12/20/2022	01:16	-131.420	48.095	0	282.90	0	4.7330	0	33.8130	0	26.767	0	280.332	0	90.1	4	28.9	4	-1E+10	1	-1E+10	1	-1E+10	1	-1E+10	1	-1E+10	1	-1E+10	1
4902551	85	C	12/20/2022	01:16	-131.420	48.095	0	283.70	0	4.7310	0	33.8140	0	26.768	0	281.124	0	89.8	4	28.8	4	-1E+10	1	-1E+10	1	-1E+10	1	-1E+10	1	-1E+10	1	-1E+10	1
4902551	85	C	12/20/2022	01:16	-131.420	48.095	0	284.90	0	4.7290	0	33.8140	0	26.768	0	282.312	0	89.2	4	28.6	4	-1E+10	1	-1E+10	1	-1E+10	1	-1E+10	1	-1E+10	1	-1E+10	1
4902551	85	C	12/20/2022	01:16	-131.420	48.095	0	286.20	0	4.7230	0	33.8150	0	26.769	0	283.599	0	88.7	4	28.4	4	-1E+10	1	-1E+10	1	-1E+10	1	-1E+10	1	-1E+10	1	-1E+10	1
4902551	85	C	12/20/2022	01:16	-131.420	48.095	0	287.00	0	4.7220	0	33.8160	0	26.770	0	284.392	0	88.3	4	28.3	4	-1E+10	1	-1E+10	1	-1E+10	1	-1E+10	1	-1E+10	1	-1E+10	1
4902551	85	C	12/20/2022	01:16	-131.420	48.095	0	287.80	0	4.7120	0	33.8150	0	26.771	0	285.184	0	87.9	4	28.1	4	-1E+10	1	-1E+10	1	-1E+10	1	-1E+10	1	-1E+10	1	-1E+10	1
4902551	85	C	12/20/2022	01:16	-131.420	48.095	0	288.60	0	4.7110	0	33.8150	0	26.771	0	285.976	0	87.4	4	28.0	4	-1E+10	1	-1E+10	1	-1E+10	1	-1E+10	1	-1E+10	1	-1E+10	1
4902551	85	C	12/20/2022	01:16	-131.420	48.095	0	289.90	0	4.6950	0	33.8160	0	26.773	0	287.263	0	86.7	4	27.8	4	-1E+10	1	-1E+10	1	-1E+10	1	-1E+10	1	-1E+10	1	-1E+10	1
4902551	85	C	12/20/2022	01:16	-131.420	48.095	0	291.20	0	4.6860	0	33.8180	0	26.776	0	288.550	0	86.0	4	27.5	4	-1E+10	1	-1E+10	1	-1E+10	1	-1E+10	1	-1E+10	1	-1E+10	1
4902551	85	C	12/20/2022	01:16	-131.420	48.095	0	292.00	0	4.6820	0	33.8170	0	26.775	0	289.343	0	85.5	4	27.4	4	-1E+10	1	-1E+10	1	-1E+10	1	-1E+10	1	-1E+10	1	-1E+10	1
4902551	85	C	12/20/2022	01:16	-131.420	48.095	0	292.80	0	4.6750	0	33.8180	0	26.777	0	290.135	0	85.0	4	27.2	4	-1E+10	1	-1E+10	1	-1E+10	1	-1E+10	1	-1E+10	1	-1E+10	1
4902551	85	C	12/20/2022	01:16	-131.420	48.095	0	293.70	0	4.6710	0	33.8200	0	26.779	0	291.026	0	84.5	4	27.1	4	-1E+10	1	-1E+10	1	-1E+10	1	-1E+10	1	-1E+10	1	-1E+10	1
4902551	85	C	12/20/2022	01:16	-131.420	48.095	0	294.90	0	4.6600	0	33.8220	0	26.782	0	292.214	0	83.9	4	26.8	4	-1E+10	1	-1E+10	1	-1E+10	1	-1E+10	1	-1E+10	1	-1E+10	1
4902551	85	C	12/20/2022	01:16	-131.420	48.095	0	296.20	0	4.6330	0	33.8250	0	26.787	0	293.501	0	83.4	4	26.7	4	-1E+10	1	-1E+10	1	-1E+10	1	-1E+10	1	-1E+10	1	-1E+10	1
4902551	85	C	12/20/2022	01:16	-131.420	48.095	0	297.00	0	4.6350	0	33.8270	0	26.789	0	294.294	0	83.1	4	26.6	4	-1E+10	1	-1E+10	1	-1E+10	1	-1E+10	1	-1E+10	1	-1E+10	1
4902551	85	C	12/20/2022	01:16	-131.420	48.095	0	297.90	0	4.6340	0	33.8300	0	26.791	0	295.185	0	82.8	4	26.5	4	-1E+10	1	-1E+10	1	-1E+10	1	-1E+10	1	-1E+10	1	-1E+10	1
4902551	85	C	12/20/2022	01:16	-131.420	48.095	0	298.70	0	4.6350	0	33.8290	0	26.790	0	295.977	0	82.4	4	26.4	4	-1E+10	1	-1E+10	1	-1E+10	1	-1E+10	1	-1E+10	1	-1E+10	1
4902551	85	C	12/20/2022	01:16	-131.420	48.095	0	300.00	0	4.6190	0	33.8330	0	26.795	0	297.264	0	81.9	4	26.2	4	-1E+10	1	-1E+10	1	-1E+10	1	-1E+10	1	-1E+10	1	-1E+10	1
4902551	85	C	12/20/2022	01:16	-131.420	48.095	0	301.30	0	4.6010	0	33.8340	0	26.798	0	298.551	0	81.5	4	26.0	4	-1E+10	1	-1E+10	1	-1E+10	1	-1E+10	1	-1E+10	1	-1E+10	1
4902551	85	C	12/20/2022	01:16	-131.420	48.095	0	302.20	0	4.5970	0	33.8340	0	26.798	0	299.442	0	81.2	4	25.9	4	-1E+10	1	-1E+10	1	-1E+10	1	-1E+10	1	-1E+10	1	-1E+10	1
4902551	85	C	12/20/2022	01:16	-131.420	48.095	0	303.10	0	4.5950	0	33.8340	0	26.798	0	300.334	0	80.9	4	25.8	4	-1E+10	1	-1E+10	1	-1E+10	1	-1E+10	1	-1E+10	1	-1E+10	1
4902551	85	C	12/20/2022	01:16	-131.420	48.095	0	303.90	0	4.5920	0	33.8350	0	26.800	0	301.126	0	80.6	4	25.7	4	-1E+10	1	-1E+10	1	-1E+10	1	-1E+10	1	-1E+10	1	-1E+10	1
4902551	85	C	12/20/2022	01:16	-131.420	48.095	0	304.80	0	4.5880	0	33.8360	0	26.801	0	302.017	0	80.2	4	25.6	4	-1E+10	1	-1E+10	1	-1E+10	1	-1E+10	1	-1E+10	1	-1E+10	1
4902551	85	C	12/20/2022	01:16	-131.420	48.095	0	305.70	0	4.5840	0	33.8370	0	26.802	0	302.908	0	79.9	4	25.5	4	-1E+10	1	-1E+10	1	-1E+10	1	-1E+10	1	-1E+10	1	-1E+10	1
4902551	85	C	12/20/2022	01:16	-131.420	48.095	0	306.60	0	4.5820	0	33.8370	0	26.802	0	303.799	0	79.6	4	25.4	4	-1E+10	1	-1E+10	1	-1E+10	1	-1E+10	1	-1E+10	1	-1E+10	1
4902551	85	C	12/20/2022	01:16	-131.420	48.095	0	307.90	0	4.5740	0	33.8390	0	26.805	0	305.086	0	79.0	4	25.2	4	-1E+10	1	-1E+10	1	-1E+10	1	-1E+10	1	-1E+10	1	-1E+10	1
4902551	85	C	12/20/2022	01:16	-131.420	48.095	0	309.30	0	4.5630	0	33.8420	0	26.808	0	306.472	0	78.7	4	25.1	4	-1E+10	1	-1E+10	1	-1E+10	1	-1E+10	1	-1E+10	1	-1E+10	1
4902551	85	C	12/20/2022	01:16	-131.420	48.095	0	310.20	0	4.5650	0	33.8420	0	26.808	0	307.364	0	78.4	4	25.0	4	-1E+10	1	-1E+10	1	-1E+10	1	-1E+10	1	-1E+10	1	-1E+10	1
4902551	85	C	12/20/2022	01:16	-131.420	48.095	0	311.10	0	4.5650	0	33.8420	0	26.808	0	308.255	0	78.1	4	24.9	4	-1E+10	1	-1E+10	1	-1E+10	1	-1E+10	1	-1E+10	1	-1E+10	1
4902551	85	C	12/20/2022	01:16	-131.420	48.095	0	312.00	0	4.5580	0	33.8430	0	26.810	0	309.146	0	77.8	4	24.8	4	-1E+10	1	-1E+10	1	-1E+10	1	-1E+10	1	-1E+10	1	-1E+10	1
4902551	85	C	12/20/2022	01:16	-131.420	48.095	0	312.90	0	4.5550	0	33.8440	0	26.811	0	310.037	0	77.5	4	24.7	4	-1E+10	1	-1E+10	1	-1E+10	1	-1E+10	1	-1E+10	1	-1E+10	1
4902551	85	C	12/20/2022	01:16	-131.420	48.095	0	313.80	0	4.5540	0	33.8430	0	26.810	0	310.928	0	77.2	4	24.6	4	-1E+10	1	-1E+10	1	-1E+10	1	-1E+10	1	-1E+10	1	-1E+10	1
4902551	85	C	12/20/2022	01:16	-131.420	48.095	0	314.70	0	4.5540	0	33.8440	0	26.811	0	311.819	0	76.8	4	24.5	4	-1E+10	1	-1E+10	1	-1E+10	1	-1E+10	1	-1E+10	1	-1E+10	1
4902551	85	C	12/20/2022	01:16	-131.420	48.095	0	315.70	0	4.5530	0	33.8440	0	26.811	0	312.809	0	76.4	4	24.4	4	-1E+10	1	-1E+10	1	-1E+10	1	-1E+10	1	-1E+10	1	-1E+10	1
4902551	85	C	12/20/2022	01:16	-131.420	48.095	0	316.60	0	4.5500	0	33.8440	0	26.811	0	313.700	0	76.0	4	24.2	4	-1E+10	1	-1E+10	1	-1E+10	1	-1E+10	1	-1E+10	1	-1E+10	1
4902551	85	C	12/20/2022	01:16	-131.420	48.095	0	317.90	0	4.5430	0	33.8450	0	26.813	0	314.987	0	75.3	4	24.0	4	-1E+10	1	-1E+10	1	-1E+10	1	-1E+10	1	-1E+10	1	-1E+10	1
4902551	85	C	12/20/2022	01:16	-131.420	48.095	0	319.40	0	4.5300	0	33.8500	0	26.818	0	316.472	0	74.8	4	23.8	4	-1E+10	1	-1E+10	1	-1E+10	1	-1E+10	1	-1E+10	1	-1E+10	1
4902551	85	C	12/20/2022	01:16	-131.420	48.095	0	320.30	0	4.5280	0	33.8500	0	26.819	0	317.363	0	74.5	4	23.8	4	-1E+10	1	-1E+10	1	-1E+10	1	-1E+10	1	-1E+10	1	-1E+10	1
4902551	85	C	12/20/2022	01:16	-131.420	48.095	0	321.20	0	4.5270	0	33.8510	0	26.819	0	318.255	0	74.1	4	23.6	4	-1E+10	1	-1E+10	1	-1E+10	1	-1E+10	1	-1E+10	1	-1E+10	1
4902551	85	C	12/20/2022	01:16	-131.420	48.095	0	322.10	0	4.5220	0	33.8540	0	26.822	0	319.146	0	73.8	4	23.5	4	-1E+10	1	-1E+10	1	-1E+10	1	-1E+10	1	-1E+10	1	-1E+10	1
4902551	85	C	12/20/2022	01:16	-131.420	48.095	0	323.10	0	4.5200	0	33.8550	0	26.823	0	320.136	0	73.5	4	23.4	4	-1E+10	1	-1E+10	1	-1E+10	1	-1E+10	1	-1E+10	1	-1E+10	1
4902551	85	C	12/20/2022	01:16	-131.420	48.095	0	324.00	0	4.5190	0	33.8560	0	26.824	0	321.027	0	73.1	4	23.3	4	-1E+10	1	-1E+10	1	-1E+10	1	-1E+10	1	-1E+10	1	-1E+10	1
4902551	85	C	12/20/2022	01:16	-131.420	48.095	0	324.90	0	4.5150	0	33.8570	0	26.826	0	321.918	0	72.8	4	23.2	4	-1E+10	1	-1E+10	1	-1E+10	1	-1E+10	1	-1E+10	1	-1E+10	1
4902551	85	C	12/20/2022	01:16	-131.420	48.095	0	325.90	0	4.5120	0	33.8590	0	26.827	0	322.908	0	72.6	4	23.1	4	-1E+10	1	-1E+10	1	-1E+10	1	-1E+10	1	-1E+10	1	-1E+10	1
4902551	85	C	12/20/2022	01:16	-131.420	48.095	0	326.80	0	4.5100	0	33.8600	0	26.828	0	323.799	0	72.3	4	23.1	4	-1E+10	1	-1E+10	1	-1E+10	1	-1E+10	1	-1E+10	1	-1E+10	1
4902551	85	C	12/20/2022	01:16	-131.420	48.095	0	327.80	0	4.5050	0	33.8610	0	26.830	0	324.789	0	72.1	4	23.0	4	-1E+10	1	-1E+10	1	-1E+10	1	-1E+10	1	-1E+10	1	-1E+10	1
4902551	85	C	12/20/2022	01:16	-131.420	48.095	0	328.70	0	4.5040	0	33.8620	0	26.831	0	325.680	0	71.8	4	22.9	4	-1E+10	1	-1E+10	1	-1E+10	1	-1E+10	1	-1E+10	1	-1E+10	1
4902551	85	C	12/20/2022	01:16	-131.420	48.095	0	329.60	0	4.5010	0	33.8630	0	26.832	0	326.571	0	71.5	4	22.8	4	-1E+10	1	-1E+10	1	-1E+10	1	-1E+10	1	-1E+10	1	-1E+10	1
4902551	85	C	12/20/2022	01:16	-131.420	48.095	0	330.60	0	4.4990	0	33.8640	0	26.833	0	327.561	0	71.2	4	22.7	4	-1E+10	1	-1E+10	1	-1E+10	1	-1E+10	1	-1E+10	1	-1E+10	1
4902551	85	C	12/20/2022	01:16	-131.420	48.095	0	331.90	0	4.4960	0	33.8650	0	26.834	0	328.848	0	70.8	4	22.6	4	-1E+10	1	-1E+10	1	-1E+10	1	-1E+10	1	-1E+10	1	-1E+10	1
4902551	85	C	12/20/2022	01:16	-131.420	48.095	0	333.40	0	4.4950	0	33.8660	0	26.835	0	330.333	0	70.4	4	22.4	4	-1E+10	1	-1E+10	1	-1E+10	1	-1E+10	1	-1E+10	1	-1E+10	1
4902551	85	C	12/20/2022	01:16	-131.420	48.095	0	334.30	0	4.4940	0	33.8670	0	26.836	0	331.224	0	70.1	4	22.4	4	-1E+10	1	-1E+10	1	-1E+10	1	-1E+10	1	-1E+10	1	-1E+10	1
4902551	85	C	12/20/2022	01:16	-131.420	48.095	0	335.30	0	4.4910	0	33.8700	0	26.839	0	332.214	0	69.9	4	22.3	4	-1E+10	1	-1E+10	1	-1E+10	1	-1E+10	1	-1E+10	1	-1E+10	1
4902551	85	C	12/20/2022	01:16	-131.420	48.095	0	336.20	0	4.4900	0	33.8710	0	26.839	0	333.105	0	69.6	4	22.2	4	-1E+10	1	-1E+10	1	-1E+10	1	-1E+10	1	-1E+10	1	-1E+10	1
4902551	85	C	12/20/2022	01:16	-131.420	48.095	0	337.10	0	4.4870	0	33.8720	0	26.841	0	333.996	0	69.3	4	22.1	4	-1E+10	1	-1E+10	1	-1E+10	1	-1E+10	1	-1E+10	1	-1E+10	1
4902551	85	C	12/20/2022	01:16	-131.420	48.095	0	338.10	0	4.4820	0	33.8740	0	26.843	0	334.986	0	69.1	4	22.0	4	-1E+10	1	-1E+10	1	-1E+10	1	-1E+10	1	-1E+10	1	-1E+10	1
4902551	85	C	12/20/2022	01:16	-131.420	48.095	0	339.00	0	4.4790	0	33.8750	0	26.844	0	335.877	0	68.9	4	22.0	4	-1E+10	1	-1E+10	1	-1E+10	1	-1E+10	1	-1E+10	1	-1E+10	1
4902551	85	C	12/20/2022	01:16	-131.420	48.095	0	340.00	0	4.4780	0	33.8750	0	26.844	0	336.867	0	68.7	4	21.9	4	-1E+10	1	-1E+10	1	-1E+10	1	-1E+10	1	-1E+10	1	-1E+10	1
4902551	85	C	12/20/2022	01:16	-131.420	48.095	0	340.90	0	4.4770	0	33.8760	0	26.845	0	337.758	0	68.5	4	21.8	4	-1E+10	1	-1E+10	1	-1E+10	1	-1E+10	1	-1E+10	1	-1E+10	1
4902551	85	C	12/20/2022	01:16	-131.420	48.095	0	341.90	0	4.4760	0	33.8760	0	26.845	0	338.748	0	68.3	4	21.7	4	-1E+10	1	-1E+10	1	-1E+10	1	-1E+10	1	-1E+10	1	-1E+10	1
4902551	85	C	12/20/2022	01:16	-131.420	48.095	0	342.90	0	4.4760	0	33.8760	0	26.845	0	339.738	0	68.0	4	21.7	4	-1E+10	1	-1E+10	1	-1E+10	1	-1E+10	1	-1E+10	1	-1E+10	1
4902551	85	C	12/20/2022	01:16	-131.420	48.095	0	343.80	0	4.4750	0	33.8770	0	26.846	0	340.629	0	67.8	4	21.6	4	-1E+10	1	-1E+10	1	-1E+10	1	-1E+10	1	-1E+10	1	-1E+10	1
4902551	85	C	12/20/2022	01:16	-131.420	48.095	0	344.80	0	4.4730	0	33.8780	0	26.847	0	341.619	0	67.5	4	21.5	4	-1E+10	1	-1E+10	1	-1E+10	1	-1E+10	1	-1E+10	1	-1E+10	1
4902551	85	C	12/20/2022	01:16	-131.420	48.095	0	345.70	0	4.4690	0	33.8800	0	26.849	0	342.510	0	67.3	4	21.4	4	-1E+10	1	-1E+10	1	-1E+10	1	-1E+10	1	-1E+10	1	-1E+10	1
4902551	85	C	12/20/2022	01:16	-131.420	48.095	0	346.70	0	4.4680	0	33.8800	0	26.849	0	343.500	0	67.0	4	21.3	4	-1E+10	1	-1E+10	1	-1E+10	1	-1E+10	1	-1E+10	1	-1E+10	1
4902551	85	C	12/20/2022	01:16	-131.420	48.095	0	347.60	0	4.4680	0	33.8810	0	26.850	0	344.390	0	66.8	4	21.3	4	-1E+10	1	-1E+10	1	-1E+10	1	-1E+10	1	-1E+10	1	-1E+10	1
4902551	85	C	12/20/2022	01:16	-131.420	48.095	0	348.60	0	4.4660	0	33.8820	0	26.851	0	345.380	0	66.5	4	21.2	4	-1E+10	1	-1E+10	1	-1E+10	1	-1E+10	1	-1E+10	1	-1E+10	1
4902551	85	C	12/20/2022	01:16	-131.420	48.095	0	349.50	0	4.4660	0	33.8820	0	26.851	0	346.271	0	66.1	4	21.1	4	-1E+10	1	-1E+10	1	-1E+10	1	-1E+10	1	-1E+10	1	-1E+10	1
4902551	85	C	12/20/2022	01:16	-131.420	48.095	0	352.90	0	4.4540	0	33.8860	0	26.855	0	349.637	0	65.2	4	20.8	4	-1E+10	1	-1E+10	1	-1E+10	1	-1E+10	1	-1E+10	1	-1E+10	1
4902551	85	C	12/20/2022	01:16	-131.420	48.095	0	358.20	0	4.4420	0	33.8920	0	26.861	0	354.884	0	63.8	4	20.3	4	-1E+10	1	-1E+10	1	-1E+10	1	-1E+10	1	-1E+10	1	-1E+10	1
4902551	85	C	12/20/2022	01:16	-131.420	48.095	0	363.00	0	4.4260	0	33.8980	0	26.868	0	359.635	0	62.4	4	19.9	4	-1E+10	1	-1E+10	1	-1E+10	1	-1E+10	1	-1E+10	1	-1E+10	1
4902551	85	C	12/20/2022	01:16	-131.420	48.095	0	367.70	0	4.4130	0	33.9030	0	26.873	0	364.287	0	61.2	4	19.5	4	-1E+10	1	-1E+10	1	-1E+10	1	-1E+10	1	-1E+10	1	-1E+10	1
4902551	85	C	12/20/2022	01:16	-131.420	48.095	0	372.80	0	4.3990	0	33.9090	0	26.880	0	369.335	0	59.8	4	19.0	4	-1E+10	1	-1E+10	1	-1E+10	1	-1E+10	1	-1E+10	1	-1E+10	1
4902551	85	C	12/20/2022	01:16	-131.420	48.095	0	377.80	0	4.3890	0	33.9150	0	26.886	0	374.284	0	58.4	4	18.6	4	-1E+10	1	-1E+10	1	-1E+10	1	-1E+10	1	-1E+10	1	-1E+10	1
4902551	85	C	12/20/2022	01:16	-131.420	48.095	0	382.80	0	4.3740	0	33.9200	0	26.891	0	379.233	0	56.9	4	18.1	4	-1E+10	1	-1E+10	1	-1E+10	1	-1E+10	1	-1E+10	1	-1E+10	1
4902551	85	C	12/20/2022	01:16	-131.420	48.095	0	388.10	0	4.3520	0	33.9290	0	26.901	0	384.479	0	55.1	4	17.5	4	-1E+10	1	-1E+10	1	-1E+10	1	-1E+10	1	-1E+10	1	-1E+10	1
4902551	85	C	12/20/2022	01:16	-131.420	48.095	0	392.90	0	4.3250	0	33.9390	0	26.911	0	389.230	0	53.7	4	17.1	4	-1E+10	1	-1E+10	1	-1E+10	1	-1E+10	1	-1E+10	1	-1E+10	1
4902551	85	C	12/20/2022	01:16	-131.420	48.095	0	397.60	0	4.3100	0	33.9450	0	26.918	0	393.881	0	52.5	4	16.7	4	-1E+10	1	-1E+10	1	-1E+10	1	-1E+10	1	-1E+10	1	-1E+10	1
4902551	85	C	12/20/2022	01:16	-131.420	48.095	0	402.70	0	4.2940	0	33.9520	0	26.925	0	398.929	0	51.4	4	16.3	4	-1E+10	1	-1E+10	1	-1E+10	1	-1E+10	1	-1E+10	1	-1E+10	1
4902551	85	C	12/20/2022	01:16	-131.420	48.095	0	407.60	0	4.2820	0	33.9590	0	26.932	0	403.778	0	50.2	4	15.9	4	-1E+10	1	-1E+10	1	-1E+10	1	-1E+10	1	-1E+10	1	-1E+10	1
4902551	85	C	12/20/2022	01:16	-131.420	48.095	0	412.90	0	4.2710	0	33.9670	0	26.940	0	409.023	0	49.1	4	15.6	4	-1E+10	1	-1E+10	1	-1E+10	1	-1E+10	1	-1E+10	1	-1E+10	1
4902551	85	C	12/20/2022	01:16	-131.420	48.095	0	418.30	0	4.2650	0	33.9720	0	26.944	0	414.367	0	47.9	4	15.2	4	-1E+10	1	-1E+10	1	-1E+10	1	-1E+10	1	-1E+10	1	-1E+10	1
4902551	85	C	12/20/2022	01:16	-131.420	48.095	0	423.10	0	4.2550	0	33.9810	0	26.952	0	419.117	0	46.7	4	14.8	4	-1E+10	1	-1E+10	1	-1E+10	1	-1E+10	1	-1E+10	1	-1E+10	1
4902551	85	C	12/20/2022	01:16	-131.420	48.095	0	428.00	0	4.2450	0	33.9880	0	26.959	0	423.966	0	45.5	4	14.4	4	-1E+10	1	-1E+10	1	-1E+10	1	-1E+10	1	-1E+10	1	-1E+10	1
4902551	85	C	12/20/2022	01:16	-131.420	48.095	0	432.90	0	4.2350	0	33.9960	0	26.967	0	428.815	0	44.4	4	14.1	4	-1E+10	1	-1E+10	1	-1E+10	1	-1E+10	1	-1E+10	1	-1E+10	1
4902551	85	C	12/20/2022	01:16	-131.420	48.095	0	437.90	0	4.2290	0	34.0020	0	26.972	0	433.762	0	43.3	4	13.7	4	-1E+10	1	-1E+10	1	-1E+10	1	-1E+10	1	-1E+10	1	-1E+10	1
4902551	85	C	12/20/2022	01:16	-131.420	48.095	0	442.90	0	4.2220	0	34.0090	0	26.978	0	438.710	0	42.2	4	13.4	4	-1E+10	1	-1E+10	1	-1E+10	1	-1E+10	1	-1E+10	1	-1E+10	1
4902551	85	C	12/20/2022	01:16	-131.420	48.095	0	448.00	0	4.2100	0	34.0170	0	26.986	0	443.756	0	40.9	4	13.0	4	-1E+10	1	-1E+10	1	-1E+10	1	-1E+10	1	-1E+10	1	-1E+10	1
4902551	85	C	12/20/2022	01:16	-131.420	48.095	0	452.80	0	4.1960	0	34.0250	0	26.994	0	448.505	0	39.8	4	12.6	4	-1E+10	1	-1E+10	1	-1E+10	1	-1E+10	1	-1E+10	1	-1E+10	1
4902551	85	C	12/20/2022	01:16	-131.420	48.095	0	457.80	0	4.1880	0	34.0290	0	26.998	0	453.453	0	39.0	4	12.4	4	-1E+10	1	-1E+10	1	-1E+10	1	-1E+10	1	-1E+10	1	-1E+10	1
4902551	85	C	12/20/2022	01:16	-131.420	48.095	0	462.90	0	4.1810	0	34.0330	0	27.002	0	458.498	0	37.9	4	12.0	4	-1E+10	1	-1E+10	1	-1E+10	1	-1E+10	1	-1E+10	1	-1E+10	1
4902551	85	C	12/20/2022	01:16	-131.420	48.095	0	467.60	0	4.1710	0	34.0380	0	27.007	0	463.149	0	36.5	4	11.6	4	-1E+10	1	-1E+10	1	-1E+10	1	-1E+10	1	-1E+10	1	-1E+10	1
4902551	85	C	12/20/2022	01:16	-131.420	48.095	0	472.60	0	4.1470	0	34.0500	0	27.019	0	468.095	0	35.3	4	11.2	4	-1E+10	1	-1E+10	1	-1E+10	1	-1E+10	1	-1E+10	1	-1E+10	1
4902551	85	C	12/20/2022	01:16	-131.420	48.095	0	478.00	0	4.1320	0	34.0570	0	27.026	0	473.438	0	34.4	4	10.9	4	-1E+10	1	-1E+10	1	-1E+10	1	-1E+10	1	-1E+10	1	-1E+10	1
4902551	85	C	12/20/2022	01:16	-131.420	48.095	0	483.20	0	4.1190	0	34.0620	0	27.031	0	478.582	0	33.6	4	10.6	4	-1E+10	1	-1E+10	1	-1E+10	1	-1E+10	1	-1E+10	1	-1E+10	1
4902551	85	C	12/20/2022	01:16	-131.420	48.095	0	488.00	0	4.1100	0	34.0670	0	27.036	0	483.331	0	33.1	4	10.5	4	-1E+10	1	-1E+10	1	-1E+10	1	-1E+10	1	-1E+10	1	-1E+10	1
4902551	85	C	12/20/2022	01:16	-131.420	48.095	0	493.00	0	4.1040	0	34.0700	0	27.039	0	488.277	0	32.6	4	10.3	4	-1E+10	1	-1E+10	1	-1E+10	1	-1E+10	1	-1E+10	1	-1E+10	1
4902551	85	C	12/20/2022	01:16	-131.420	48.095	0	498.00	0	4.0960	0	34.0740	0	27.043	0	493.223	0	32.0	4	10.1	4	-1E+10	1	-1E+10	1	-1E+10	1	-1E+10	1	-1E+10	1	-1E+10	1
4902551	85	C	12/20/2022	01:16	-131.420	48.095	0	503.20	0	4.0880	0	34.0780	0	27.047	0	498.367	0	31.4	4	9.9	4	-1E+10	1	-1E+10	1	-1E+10	1	-1E+10	1	-1E+10	1	-1E+10	1
4902551	85	C	12/20/2022	01:16	-131.420	48.095	0	507.90	0	4.0810	0	34.0810	0	27.051	0	503.016	0	30.7	4	9.7	4	-1E+10	1	-1E+10	1	-1E+10	1	-1E+10	1	-1E+10	1	-1E+10	1
4902551	85	C	12/20/2022	01:16	-131.420	48.095	0	512.70	0	4.0710	0	34.0860	0	27.056	0	507.764	0	30.0	4	9.5	4	-1E+10	1	-1E+10	1	-1E+10	1	-1E+10	1	-1E+10	1	-1E+10	1
4902551	85	C	12/20/2022	01:16	-131.420	48.095	0	517.90	0	4.0620	0	34.0900	0	27.060	0	512.908	0	29.2	4	9.2	4	-1E+10	1	-1E+10	1	-1E+10	1	-1E+10	1	-1E+10	1	-1E+10	1
4902551	85	C	12/20/2022	01:16	-131.420	48.095	0	523.10	0	4.0460	0	34.0970	0	27.067	0	518.051	0	28.5	4	9.0	4	-1E+10	1	-1E+10	1	-1E+10	1	-1E+10	1	-1E+10	1	-1E+10	1
4902551	85	C	12/20/2022	01:16	-131.420	48.095	0	528.00	0	4.0400	0	34.1000	0	27.070	0	522.898	0	27.8	4	8.8	4	-1E+10	1	-1E+10	1	-1E+10	1	-1E+10	1	-1E+10	1	-1E+10	1
4902551	85	C	12/20/2022	01:16	-131.420	48.095	0	532.80	0	4.0240	0	34.1070	0	27.077	0	527.645	0	27.2	4	8.6	4	-1E+10	1	-1E+10	1	-1E+10	1	-1E+10	1	-1E+10	1	-1E+10	1
4902551	85	C	12/20/2022	01:16	-131.420	48.095	0	538.00	0	4.0130	0	34.1120	0	27.082	0	532.788	0	26.6	4	8.4	4	-1E+10	1	-1E+10	1	-1E+10	1	-1E+10	1	-1E+10	1	-1E+10	1
4902551	85	C	12/20/2022	01:16	-131.420	48.095	0	542.90	0	4.0010	0	34.1170	0	27.088	0	537.634	0	26.1	4	8.2	4	-1E+10	1	-1E+10	1	-1E+10	1	-1E+10	1	-1E+10	1	-1E+10	1
4902551	85	C	12/20/2022	01:16	-131.420	48.095	0	547.70	0	3.9870	0	34.1220	0	27.093	0	542.382	0	25.7	4	8.1	4	-1E+10	1	-1E+10	1	-1E+10	1	-1E+10	1	-1E+10	1	-1E+10	1
4902551	85	C	12/20/2022	01:16	-131.420	48.095	0	553.10	0	3.9720	0	34.1280	0	27.099	0	547.722	0	25.3	4	8.0	4	-1E+10	1	-1E+10	1	-1E+10	1	-1E+10	1	-1E+10	1	-1E+10	1
4902551	85	C	12/20/2022	01:16	-131.420	48.095	0	557.90	0	3.9660	0	34.1300	0	27.102	0	552.469	0	24.9	4	7.8	4	-1E+10	1	-1E+10	1	-1E+10	1	-1E+10	1	-1E+10	1	-1E+10	1
4902551	85	C	12/20/2022	01:16	-131.420	48.095	0	562.80	0	3.9480	0	34.1370	0	27.109	0	557.315	0	24.5	4	7.7	4	-1E+10	1	-1E+10	1	-1E+10	1	-1E+10	1	-1E+10	1	-1E+10	1
4902551	85	C	12/20/2022	01:16	-131.420	48.095	0	568.10	0	3.9310	0	34.1430	0	27.116	0	562.556	0	24.1	4	7.6	4	-1E+10	1	-1E+10	1	-1E+10	1	-1E+10	1	-1E+10	1	-1E+10	1
4902551	85	C	12/20/2022	01:16	-131.420	48.095	0	573.10	0	3.9230	0	34.1460	0	27.119	0	567.500	0	23.8	4	7.5	4	-1E+10	1	-1E+10	1	-1E+10	1	-1E+10	1	-1E+10	1	-1E+10	1
4902551	85	C	12/20/2022	01:16	-131.420	48.095	0	577.90	0	3.9160	0	34.1490	0	27.122	0	572.247	0	23.4	4	7.4	4	-1E+10	1	-1E+10	1	-1E+10	1	-1E+10	1	-1E+10	1	-1E+10	1
4902551	85	C	12/20/2022	01:16	-131.420	48.095	0	582.80	0	3.9070	0	34.1520	0	27.125	0	577.092	0	23.0	4	7.2	4	-1E+10	1	-1E+10	1	-1E+10	1	-1E+10	1	-1E+10	1	-1E+10	1
4902551	85	C	12/20/2022	01:16	-131.420	48.095	0	587.70	0	3.9010	0	34.1550	0	27.128	0	581.937	0	22.6	4	7.1	4	-1E+10	1	-1E+10	1	-1E+10	1	-1E+10	1	-1E+10	1	-1E+10	1
4902551	85	C	12/20/2022	01:16	-131.420	48.095	0	592.70	0	3.8940	0	34.1580	0	27.132	0	586.881	0	22.1	4	7.0	4	-1E+10	1	-1E+10	1	-1E+10	1	-1E+10	1	-1E+10	1	-1E+10	1
4902551	85	C	12/20/2022	01:16	-131.420	48.095	0	597.70	0	3.8870	0	34.1620	0	27.135	0	591.825	0	21.6	4	6.8	4	-1E+10	1	-1E+10	1	-1E+10	1	-1E+10	1	-1E+10	1	-1E+10	1
4902551	85	C	12/20/2022	01:16	-131.420	48.095	0	602.80	0	3.8750	0	34.1670	0	27.141	0	596.867	0	21.2	4	6.7	4	-1E+10	1	-1E+10	1	-1E+10	1	-1E+10	1	-1E+10	1	-1E+10	1
4902551	85	C	12/20/2022	01:16	-131.420	48.095	0	607.90	0	3.8690	0	34.1700	0	27.144	0	601.910	0	21.0	4	6.6	4	-1E+10	1	-1E+10	1	-1E+10	1	-1E+10	1	-1E+10	1	-1E+10	1
4902551	85	C	12/20/2022	01:16	-131.420	48.095	0	613.10	0	3.8650	0	34.1720	0	27.146	0	607.051	0	20.8	4	6.5	4	-1E+10	1	-1E+10	1	-1E+10	1	-1E+10	1	-1E+10	1	-1E+10	1
4902551	85	C	12/20/2022	01:16	-131.420	48.095	0	617.80	0	3.8620	0	34.1730	0	27.147	0	611.698	0	20.8	4	6.5	4	-1E+10	1	-1E+10	1	-1E+10	1	-1E+10	1	-1E+10	1	-1E+10	1
4902551	85	C	12/20/2022	01:16	-131.420	48.095	0	622.70	0	3.8480	0	34.1770	0	27.151	0	616.542	0	20.9	4	6.6	4	-1E+10	1	-1E+10	1	-1E+10	1	-1E+10	1	-1E+10	1	-1E+10	1
4902551	85	C	12/20/2022	01:16	-131.420	48.095	0	627.90	0	3.8290	0	34.1790	0	27.155	0	621.683	0	21.0	4	6.6	4	-1E+10	1	-1E+10	1	-1E+10	1	-1E+10	1	-1E+10	1	-1E+10	1
4902551	85	C	12/20/2022	01:16	-131.420	48.095	0	633.30	0	3.8140	0	34.1810	0	27.158	0	627.021	0	21.0	4	6.6	4	-1E+10	1	-1E+10	1	-1E+10	1	-1E+10	1	-1E+10	1	-1E+10	1
4902551	85	C	12/20/2022	01:16	-131.420	48.095	0	638.20	0	3.8020	0	34.1840	0	27.162	0	631.865	0	20.8	4	6.5	4	-1E+10	1	-1E+10	1	-1E+10	1	-1E+10	1	-1E+10	1	-1E+10	1
4902551	85	C	12/20/2022	01:16	-131.420	48.095	0	642.90	0	3.7970	0	34.1860	0	27.164	0	636.512	0	20.6	4	6.5	4	-1E+10	1	-1E+10	1	-1E+10	1	-1E+10	1	-1E+10	1	-1E+10	1
4902551	85	C	12/20/2022	01:16	-131.420	48.095	0	647.80	0	3.7880	0	34.1880	0	27.166	0	641.355	0	20.5	4	6.4	4	-1E+10	1	-1E+10	1	-1E+10	1	-1E+10	1	-1E+10	1	-1E+10	1
4902551	85	C	12/20/2022	01:16	-131.420	48.095	0	653.00	0	3.7780	0	34.1900	0	27.169	0	646.496	0	20.2	4	6.4	4	-1E+10	1	-1E+10	1	-1E+10	1	-1E+10	1	-1E+10	1	-1E+10	1
4902551	85	C	12/20/2022	01:16	-131.420	48.095	0	657.80	0	3.7670	0	34.1940	0	27.173	0	651.240	0	19.9	4	6.2	4	-1E+10	1	-1E+10	1	-1E+10	1	-1E+10	1	-1E+10	1	-1E+10	1
4902551	85	C	12/20/2022	01:16	-131.420	48.095	0	662.90	0	3.7550	0	34.1970	0	27.177	0	656.281	0	19.6	4	6.2	4	-1E+10	1	-1E+10	1	-1E+10	1	-1E+10	1	-1E+10	1	-1E+10	1
4902551	85	C	12/20/2022	01:16	-131.420	48.095	0	668.00	0	3.7460	0	34.1990	0	27.179	0	661.322	0	19.2	4	6.0	4	-1E+10	1	-1E+10	1	-1E+10	1	-1E+10	1	-1E+10	1	-1E+10	1
4902551	85	C	12/20/2022	01:16	-131.420	48.095	0	672.90	0	3.7410	0	34.2020	0	27.182	0	666.166	0	18.8	4	5.9	4	-1E+10	1	-1E+10	1	-1E+10	1	-1E+10	1	-1E+10	1	-1E+10	1
4902551	85	C	12/20/2022	01:16	-131.420	48.095	0	677.80	0	3.7370	0	34.2060	0	27.186	0	671.009	0	18.7	4	5.9	4	-1E+10	1	-1E+10	1	-1E+10	1	-1E+10	1	-1E+10	1	-1E+10	1
4902551	85	C	12/20/2022	01:16	-131.420	48.095	0	682.80	0	3.7270	0	34.2070	0	27.188	0	675.950	0	18.6	4	5.8	4	-1E+10	1	-1E+10	1	-1E+10	1	-1E+10	1	-1E+10	1	-1E+10	1
4902551	85	C	12/20/2022	01:16	-131.420	48.095	0	687.70	0	3.7180	0	34.2080	0	27.190	0	680.793	0	18.4	4	5.8	4	-1E+10	1	-1E+10	1	-1E+10	1	-1E+10	1	-1E+10	1	-1E+10	1
4902551	85	C	12/20/2022	01:16	-131.420	48.095	0	692.80	0	3.7100	0	34.2100	0	27.192	0	685.834	0	18.0	4	5.6	4	-1E+10	1	-1E+10	1	-1E+10	1	-1E+10	1	-1E+10	1	-1E+10	1
4902551	85	C	12/20/2022	01:16	-131.420	48.095	0	697.90	0	3.7010	0	34.2130	0	27.195	0	690.874	0	17.5	4	5.5	4	-1E+10	1	-1E+10	1	-1E+10	1	-1E+10	1	-1E+10	1	-1E+10	1
4902551	85	C	12/20/2022	01:16	-131.420	48.095	0	703.00	0	3.6930	0	34.2150	0	27.198	0	695.914	0	16.7	4	5.2	4	-1E+10	1	-1E+10	1	-1E+10	1	-1E+10	1	-1E+10	1	-1E+10	1
4902551	85	C	12/20/2022	01:16	-131.420	48.095	0	707.70	0	3.7020	0	34.2220	0	27.202	0	700.559	0	16.0	4	5.0	4	-1E+10	1	-1E+10	1	-1E+10	1	-1E+10	1	-1E+10	1	-1E+10	1
4902551	85	C	12/20/2022	01:16	-131.420	48.095	0	713.00	0	3.7050	0	34.2260	0	27.205	0	705.796	0	15.9	4	5.0	4	-1E+10	1	-1E+10	1	-1E+10	1	-1E+10	1	-1E+10	1	-1E+10	1
4902551	85	C	12/20/2022	01:16	-131.420	48.095	0	718.30	0	3.6860	0	34.2280	0	27.209	0	711.034	0	16.0	4	5.0	4	-1E+10	1	-1E+10	1	-1E+10	1	-1E+10	1	-1E+10	1	-1E+10	1
4902551	85	C	12/20/2022	01:16	-131.420	48.095	0	723.10	0	3.6710	0	34.2300	0	27.212	0	715.777	0	15.7	4	4.9	4	-1E+10	1	-1E+10	1	-1E+10	1	-1E+10	1	-1E+10	1	-1E+10	1
4902551	85	C	12/20/2022	01:16	-131.420	48.095	0	727.90	0	3.6720	0	34.2310	0	27.213	0	720.520	0	15.5	4	4.9	4	-1E+10	1	-1E+10	1	-1E+10	1	-1E+10	1	-1E+10	1	-1E+10	1
4902551	85	C	12/20/2022	01:16	-131.420	48.095	0	732.70	0	3.6610	0	34.2350	0	27.217	0	725.263	0	15.3	4	4.8	4	-1E+10	1	-1E+10	1	-1E+10	1	-1E+10	1	-1E+10	1	-1E+10	1
4902551	85	C	12/20/2022	01:16	-131.420	48.095	0	737.90	0	3.6530	0	34.2380	0	27.220	0	730.401	0	15.3	4	4.8	4	-1E+10	1	-1E+10	1	-1E+10	1	-1E+10	1	-1E+10	1	-1E+10	1
4902551	85	C	12/20/2022	01:16	-131.420	48.095	0	743.20	0	3.6400	0	34.2410	0	27.224	0	735.638	0	15.4	4	4.8	4	-1E+10	1	-1E+10	1	-1E+10	1	-1E+10	1	-1E+10	1	-1E+10	1
4902551	85	C	12/20/2022	01:16	-131.420	48.095	0	748.10	0	3.6110	0	34.2420	0	27.228	0	740.479	0	15.3	4	4.8	4	-1E+10	1	-1E+10	1	-1E+10	1	-1E+10	1	-1E+10	1	-1E+10	1
4902551	85	C	12/20/2022	01:16	-131.420	48.095	0	753.00	0	3.6100	0	34.2450	0	27.230	0	745.321	0	15.0	4	4.7	4	-1E+10	1	-1E+10	1	-1E+10	1	-1E+10	1	-1E+10	1	-1E+10	1
4902551	85	C	12/20/2022	01:16	-131.420	48.095	0	757.90	0	3.6010	0	34.2490	0	27.234	0	750.162	0	14.8	4	4.6	4	-1E+10	1	-1E+10	1	-1E+10	1	-1E+10	1	-1E+10	1	-1E+10	1
4902551	85	C	12/20/2022	01:16	-131.420	48.095	0	762.80	0	3.5890	0	34.2520	0	27.238	0	755.003	0	14.7	4	4.6	4	-1E+10	1	-1E+10	1	-1E+10	1	-1E+10	1	-1E+10	1	-1E+10	1
4902551	85	C	12/20/2022	01:16	-131.420	48.095	0	767.80	0	3.5580	0	34.2550	0	27.243	0	759.943	0	14.5	4	4.5	4	-1E+10	1	-1E+10	1	-1E+10	1	-1E+10	1	-1E+10	1	-1E+10	1
4902551	85	C	12/20/2022	01:16	-131.420	48.095	0	772.80	0	3.5580	0	34.2580	0	27.246	0	764.883	0	13.8	4	4.3	4	-1E+10	1	-1E+10	1	-1E+10	1	-1E+10	1	-1E+10	1	-1E+10	1
4902551	85	C	12/20/2022	01:16	-131.420	48.095	0	777.70	0	3.5640	0	34.2630	0	27.249	0	769.723	0	13.5	4	4.2	4	-1E+10	1	-1E+10	1	-1E+10	1	-1E+10	1	-1E+10	1	-1E+10	1
4902551	85	C	12/20/2022	01:16	-131.420	48.095	0	782.70	0	3.5470	0	34.2680	0	27.255	0	774.663	0	13.4	4	4.2	4	-1E+10	1	-1E+10	1	-1E+10	1	-1E+10	1	-1E+10	1	-1E+10	1
4902551	85	C	12/20/2022	01:16	-131.420	48.095	0	787.70	0	3.5330	0	34.2710	0	27.258	0	779.602	0	13.2	4	4.1	4	-1E+10	1	-1E+10	1	-1E+10	1	-1E+10	1	-1E+10	1	-1E+10	1
4902551	85	C	12/20/2022	01:16	-131.420	48.095	0	792.80	0	3.5290	0	34.2740	0	27.261	0	784.640	0	13.0	4	4.1	4	-1E+10	1	-1E+10	1	-1E+10	1	-1E+10	1	-1E+10	1	-1E+10	1
4902551	85	C	12/20/2022	01:16	-131.420	48.095	0	797.90	0	3.5210	0	34.2770	0	27.264	0	789.678	0	12.8	4	4.0	4	-1E+10	1	-1E+10	1	-1E+10	1	-1E+10	1	-1E+10	1	-1E+10	1
4902551	85	C	12/20/2022	01:16	-131.420	48.095	0	803.10	0	3.5060	0	34.2810	0	27.269	0	794.814	0	12.7	4	4.0	4	-1E+10	1	-1E+10	1	-1E+10	1	-1E+10	1	-1E+10	1	-1E+10	1
4902551	85	C	12/20/2022	01:16	-131.420	48.095	0	808.20	0	3.4890	0	34.2860	0	27.275	0	799.852	0	12.6	4	3.9	4	-1E+10	1	-1E+10	1	-1E+10	1	-1E+10	1	-1E+10	1	-1E+10	1
4902551	85	C	12/20/2022	01:16	-131.420	48.095	0	812.90	0	3.4840	0	34.2880	0	27.277	0	804.495	0	12.6	4	3.9	4	-1E+10	1	-1E+10	1	-1E+10	1	-1E+10	1	-1E+10	1	-1E+10	1
4902551	85	C	12/20/2022	01:16	-131.420	48.095	0	817.60	0	3.4750	0	34.2890	0	27.279	0	809.137	0	12.5	4	3.9	4	-1E+10	1	-1E+10	1	-1E+10	1	-1E+10	1	-1E+10	1	-1E+10	1
4902551	85	C	12/20/2022	01:16	-131.420	48.095	0	822.80	0	3.4680	0	34.2910	0	27.281	0	814.273	0	12.4	4	3.9	4	-1E+10	1	-1E+10	1	-1E+10	1	-1E+10	1	-1E+10	1	-1E+10	1
4902551	85	C	12/20/2022	01:16	-131.420	48.095	0	827.90	0	3.4610	0	34.2940	0	27.284	0	819.310	0	12.3	4	3.8	4	-1E+10	1	-1E+10	1	-1E+10	1	-1E+10	1	-1E+10	1	-1E+10	1
4902551	85	C	12/20/2022	01:16	-131.420	48.095	0	833.20	0	3.4530	0	34.2960	0	27.286	0	824.545	0	12.2	4	3.8	4	-1E+10	1	-1E+10	1	-1E+10	1	-1E+10	1	-1E+10	1	-1E+10	1
4902551	85	C	12/20/2022	01:16	-131.420	48.095	0	837.90	0	3.4500	0	34.2970	0	27.287	0	829.186	0	12.2	4	3.8	4	-1E+10	1	-1E+10	1	-1E+10	1	-1E+10	1	-1E+10	1	-1E+10	1
4902551	85	C	12/20/2022	01:16	-131.420	48.095	0	842.60	0	3.4350	0	34.3010	0	27.292	0	833.828	0	12.1	4	3.8	4	-1E+10	1	-1E+10	1	-1E+10	1	-1E+10	1	-1E+10	1	-1E+10	1
4902551	85	C	12/20/2022	01:16	-131.420	48.095	0	847.90	0	3.4290	0	34.3020	0	27.294	0	839.062	0	12.1	4	3.8	4	-1E+10	1	-1E+10	1	-1E+10	1	-1E+10	1	-1E+10	1	-1E+10	1
4902551	85	C	12/20/2022	01:16	-131.420	48.095	0	853.20	0	3.4190	0	34.3040	0	27.296	0	844.296	0	12.1	4	3.8	4	-1E+10	1	-1E+10	1	-1E+10	1	-1E+10	1	-1E+10	1	-1E+10	1
4902551	85	C	12/20/2022	01:16	-131.420	48.095	0	858.10	0	3.4090	0	34.3060	0	27.299	0	849.135	0	12.1	4	3.8	4	-1E+10	1	-1E+10	1	-1E+10	1	-1E+10	1	-1E+10	1	-1E+10	1
4902551	85	C	12/20/2022	01:16	-131.420	48.095	0	862.90	0	3.3990	0	34.3080	0	27.301	0	853.875	0	12.0	4	3.7	4	-1E+10	1	-1E+10	1	-1E+10	1	-1E+10	1	-1E+10	1	-1E+10	1
4902551	85	C	12/20/2022	01:16	-131.420	48.095	0	868.30	0	3.3900	0	34.3100	0	27.304	0	859.208	0	12.0	4	3.7	4	-1E+10	1	-1E+10	1	-1E+10	1	-1E+10	1	-1E+10	1	-1E+10	1
4902551	85	C	12/20/2022	01:16	-131.420	48.095	0	873.20	0	3.3810	0	34.3120	0	27.306	0	864.046	0	12.0	4	3.7	4	-1E+10	1	-1E+10	1	-1E+10	1	-1E+10	1	-1E+10	1	-1E+10	1
4902551	85	C	12/20/2022	01:16	-131.420	48.095	0	877.70	0	3.3700	0	34.3140	0	27.309	0	868.490	0	11.9	4	3.7	4	-1E+10	1	-1E+10	1	-1E+10	1	-1E+10	1	-1E+10	1	-1E+10	1
4902551	85	C	12/20/2022	01:16	-131.420	48.095	0	882.60	0	3.3560	0	34.3180	0	27.313	0	873.328	0	11.8	4	3.7	4	-1E+10	1	-1E+10	1	-1E+10	1	-1E+10	1	-1E+10	1	-1E+10	1
4902551	85	C	12/20/2022	01:16	-131.420	48.095	0	887.90	0	3.3470	0	34.3200	0	27.316	0	878.562	0	11.8	4	3.7	4	-1E+10	1	-1E+10	1	-1E+10	1	-1E+10	1	-1E+10	1	-1E+10	1
4902551	85	C	12/20/2022	01:16	-131.420	48.095	0	893.20	0	3.3430	0	34.3210	0	27.317	0	883.795	0	11.8	4	3.7	4	-1E+10	1	-1E+10	1	-1E+10	1	-1E+10	1	-1E+10	1	-1E+10	1
4902551	85	C	12/20/2022	01:16	-131.420	48.095	0	898.20	0	3.3320	0	34.3230	0	27.320	0	888.731	0	11.7	4	3.7	4	-1E+10	1	-1E+10	1	-1E+10	1	-1E+10	1	-1E+10	1	-1E+10	1
4902551	85	C	12/20/2022	01:16	-131.420	48.095	0	903.10	0	3.3120	0	34.3270	0	27.325	0	893.569	0	11.7	4	3.6	4	-1E+10	1	-1E+10	1	-1E+10	1	-1E+10	1	-1E+10	1	-1E+10	1
4902551	85	C	12/20/2022	01:16	-131.420	48.095	0	908.10	0	3.2970	0	34.3310	0	27.329	0	898.506	0	11.7	4	3.6	4	-1E+10	1	-1E+10	1	-1E+10	1	-1E+10	1	-1E+10	1	-1E+10	1
4902551	85	C	12/20/2022	01:16	-131.420	48.095	0	913.20	0	3.2860	0	34.3330	0	27.332	0	903.541	0	11.6	4	3.6	4	-1E+10	1	-1E+10	1	-1E+10	1	-1E+10	1	-1E+10	1	-1E+10	1
4902551	85	C	12/20/2022	01:16	-131.420	48.095	0	918.00	0	3.2750	0	34.3360	0	27.336	0	908.280	0	11.6	4	3.6	4	-1E+10	1	-1E+10	1	-1E+10	1	-1E+10	1	-1E+10	1	-1E+10	1
4902551	85	C	12/20/2022	01:16	-131.420	48.095	0	922.90	0	3.2660	0	34.3380	0	27.338	0	913.117	0	11.6	4	3.6	4	-1E+10	1	-1E+10	1	-1E+10	1	-1E+10	1	-1E+10	1	-1E+10	1
4902551	85	C	12/20/2022	01:16	-131.420	48.095	0	927.90	0	3.2550	0	34.3400	0	27.341	0	918.053	0	11.6	4	3.6	4	-1E+10	1	-1E+10	1	-1E+10	1	-1E+10	1	-1E+10	1	-1E+10	1
4902551	85	C	12/20/2022	01:16	-131.420	48.095	0	933.00	0	3.2450	0	34.3430	0	27.344	0	923.088	0	11.6	4	3.6	4	-1E+10	1	-1E+10	1	-1E+10	1	-1E+10	1	-1E+10	1	-1E+10	1
4902551	85	C	12/20/2022	01:16	-131.420	48.095	0	938.10	0	3.2400	0	34.3440	0	27.345	0	928.122	0	11.6	4	3.6	4	-1E+10	1	-1E+10	1	-1E+10	1	-1E+10	1	-1E+10	1	-1E+10	1
4902551	85	C	12/20/2022	01:16	-131.420	48.095	0	942.80	0	3.2340	0	34.3450	0	27.347	0	932.762	0	11.6	4	3.6	4	-1E+10	1	-1E+10	1	-1E+10	1	-1E+10	1	-1E+10	1	-1E+10	1
4902551	85	C	12/20/2022	01:16	-131.420	48.095	0	947.90	0	3.2170	0	34.3480	0	27.351	0	937.796	0	11.6	4	3.6	4	-1E+10	1	-1E+10	1	-1E+10	1	-1E+10	1	-1E+10	1	-1E+10	1
4902551	85	C	12/20/2022	01:16	-131.420	48.095	0	953.10	0	3.2120	0	34.3490	0	27.352	0	942.929	0	11.6	4	3.6	4	-1E+10	1	-1E+10	1	-1E+10	1	-1E+10	1	-1E+10	1	-1E+10	1
4902551	85	C	12/20/2022	01:16	-131.420	48.095	0	957.90	0	3.2050	0	34.3510	0	27.354	0	947.667	0	11.6	4	3.6	4	-1E+10	1	-1E+10	1	-1E+10	1	-1E+10	1	-1E+10	1	-1E+10	1
4902551	85	C	12/20/2022	01:16	-131.420	48.095	0	962.70	0	3.1940	0	34.3520	0	27.356	0	952.405	0	11.6	4	3.6	4	-1E+10	1	-1E+10	1	-1E+10	1	-1E+10	1	-1E+10	1	-1E+10	1
4902551	85	C	12/20/2022	01:16	-131.420	48.095	0	967.90	0	3.1920	0	34.3530	0	27.357	0	957.537	0	11.6	4	3.6	4	-1E+10	1	-1E+10	1	-1E+10	1	-1E+10	1	-1E+10	1	-1E+10	1
4902551	85	C	12/20/2022	01:16	-131.420	48.095	0	973.20	0	3.1910	0	34.3530	0	27.357	0	962.768	0	11.6	4	3.6	4	-1E+10	1	-1E+10	1	-1E+10	1	-1E+10	1	-1E+10	1	-1E+10	1
4902551	85	C	12/20/2022	01:16	-131.420	48.095	0	978.00	0	3.1810	0	34.3550	0	27.360	0	967.506	0	11.6	4	3.6	4	-1E+10	1	-1E+10	1	-1E+10	1	-1E+10	1	-1E+10	1	-1E+10	1
4902551	85	C	12/20/2022	01:16	-131.420	48.095	0	982.80	0	3.1670	0	34.3580	0	27.364	0	972.243	0	11.7	4	3.6	4	-1E+10	1	-1E+10	1	-1E+10	1	-1E+10	1	-1E+10	1	-1E+10	1
4902551	85	C	12/20/2022	01:16	-131.420	48.095	0	987.70	0	3.1560	0	34.3600	0	27.366	0	977.079	0	11.7	4	3.6	4	-1E+10	1	-1E+10	1	-1E+10	1	-1E+10	1	-1E+10	1	-1E+10	1
4902551	85	C	12/20/2022	01:16	-131.420	48.095	0	992.60	0	3.1500	0	34.3610	0	27.368	0	981.915	0	11.7	4	3.6	4	-1E+10	1	-1E+10	1	-1E+10	1	-1E+10	1	-1E+10	1	-1E+10	1
4902551	85	C	12/20/2022	01:16	-131.420	48.095	0	997.50	0	3.1390	0	34.3630	0	27.370	0	986.751	0	11.7	4	3.6	4	-1E+10	1	-1E+10	1	-1E+10	1	-1E+10	1	-1E+10	1	-1E+10	1
4902551	85	C	12/20/2022	01:16	-131.420	48.095	0	1005.00	0	3.1060	0	34.3690	0	27.378	0	994.152	0	11.8	4	3.6	4	-1E+10	1	-1E+10	1	-1E+10	1	-1E+10	1	-1E+10	1	-1E+10	1
4902551	85	C	12/20/2022	01:16	-131.420	48.095	0	1015.10	0	3.0780	0	34.3750	0	27.385	0	1004.119	0	11.9	4	3.7	4	-1E+10	1	-1E+10	1	-1E+10	1	-1E+10	1	-1E+10	1	-1E+10	1
4902551	85	C	12/20/2022	01:16	-131.420	48.095	0	1025.50	0	3.0550	0	34.3790	0	27.391	0	1014.381	0	11.9	4	3.7	4	-1E+10	1	-1E+10	1	-1E+10	1	-1E+10	1	-1E+10	1	-1E+10	1
4902551	85	C	12/20/2022	01:16	-131.420	48.095	0	1035.30	0	3.0380	0	34.3820	0	27.395	0	1024.051	0	12.0	4	3.7	4	-1E+10	1	-1E+10	1	-1E+10	1	-1E+10	1	-1E+10	1	-1E+10	1
4902551	85	C	12/20/2022	01:16	-131.420	48.095	0	1045.30	0	3.0160	0	34.3860	0	27.400	0	1033.918	0	12.1	4	3.7	4	-1E+10	1	-1E+10	1	-1E+10	1	-1E+10	1	-1E+10	1	-1E+10	1
4902551	85	C	12/20/2022	01:16	-131.420	48.095	0	1055.20	0	2.9960	0	34.3900	0	27.405	0	1043.685	0	12.1	4	3.7	4	-1E+10	1	-1E+10	1	-1E+10	1	-1E+10	1	-1E+10	1	-1E+10	1
4902551	85	C	12/20/2022	01:16	-131.420	48.095	0	1065.20	0	2.9790	0	34.3930	0	27.409	0	1053.551	0	12.2	4	3.8	4	-1E+10	1	-1E+10	1	-1E+10	1	-1E+10	1	-1E+10	1	-1E+10	1
4902551	85	C	12/20/2022	01:16	-131.420	48.095	0	1075.50	0	2.9700	0	34.3950	0	27.412	0	1063.712	0	12.3	4	3.8	4	-1E+10	1	-1E+10	1	-1E+10	1	-1E+10	1	-1E+10	1	-1E+10	1
4902551	85	C	12/20/2022	01:16	-131.420	48.095	0	1085.50	0	2.9540	0	34.3980	0	27.415	0	1073.577	0	12.4	4	3.8	4	-1E+10	1	-1E+10	1	-1E+10	1	-1E+10	1	-1E+10	1	-1E+10	1
4902551	85	C	12/20/2022	01:16	-131.420	48.095	0	1095.30	0	2.9350	0	34.4010	0	27.420	0	1083.244	0	12.5	4	3.8	4	-1E+10	1	-1E+10	1	-1E+10	1	-1E+10	1	-1E+10	1	-1E+10	1
4902551	85	C	12/20/2022	01:16	-131.420	48.095	0	1105.40	0	2.9160	0	34.4050	0	27.425	0	1093.207	0	12.6	4	3.9	4	-1E+10	1	-1E+10	1	-1E+10	1	-1E+10	1	-1E+10	1	-1E+10	1
4902551	85	C	12/20/2022	01:16	-131.420	48.095	0	1115.30	0	2.8970	0	34.4080	0	27.429	0	1102.972	0	12.7	4	3.9	4	-1E+10	1	-1E+10	1	-1E+10	1	-1E+10	1	-1E+10	1	-1E+10	1
4902551	85	C	12/20/2022	01:16	-131.420	48.095	0	1125.30	0	2.8860	0	34.4100	0	27.431	0	1112.835	0	12.8	4	3.9	4	-1E+10	1	-1E+10	1	-1E+10	1	-1E+10	1	-1E+10	1	-1E+10	1
4902551	85	C	12/20/2022	01:16	-131.420	48.095	0	1135.50	0	2.8730	0	34.4120	0	27.434	0	1122.894	0	12.9	4	4.0	4	-1E+10	1	-1E+10	1	-1E+10	1	-1E+10	1	-1E+10	1	-1E+10	1
4902551	85	C	12/20/2022	01:16	-131.420	48.095	0	1145.40	0	2.8580	0	34.4150	0	27.438	0	1132.658	0	13.1	4	4.0	4	-1E+10	1	-1E+10	1	-1E+10	1	-1E+10	1	-1E+10	1	-1E+10	1
4902551	85	C	12/20/2022	01:16	-131.420	48.095	0	1155.30	0	2.8370	0	34.4190	0	27.443	0	1142.421	0	13.3	4	4.1	4	-1E+10	1	-1E+10	1	-1E+10	1	-1E+10	1	-1E+10	1	-1E+10	1
4902551	85	C	12/20/2022	01:16	-131.420	48.095	0	1165.40	0	2.8190	0	34.4210	0	27.446	0	1152.380	0	13.4	4	4.1	4	-1E+10	1	-1E+10	1	-1E+10	1	-1E+10	1	-1E+10	1	-1E+10	1
4902551	85	C	12/20/2022	01:16	-131.420	48.095	0	1175.40	0	2.8020	0	34.4240	0	27.450	0	1162.241	0	13.6	4	4.2	4	-1E+10	1	-1E+10	1	-1E+10	1	-1E+10	1	-1E+10	1	-1E+10	1
4902551	85	C	12/20/2022	01:16	-131.420	48.095	0	1185.60	0	2.7860	0	34.4270	0	27.454	0	1172.298	0	13.7	4	4.2	4	-1E+10	1	-1E+10	1	-1E+10	1	-1E+10	1	-1E+10	1	-1E+10	1
4902551	85	C	12/20/2022	01:16	-131.420	48.095	0	1195.40	0	2.7720	0	34.4300	0	27.458	0	1181.961	0	13.9	4	4.3	4	-1E+10	1	-1E+10	1	-1E+10	1	-1E+10	1	-1E+10	1	-1E+10	1
4902551	85	C	12/20/2022	01:16	-131.420	48.095	0	1205.30	0	2.7580	0	34.4320	0	27.461	0	1191.722	0	14.1	4	4.3	4	-1E+10	1	-1E+10	1	-1E+10	1	-1E+10	1	-1E+10	1	-1E+10	1
4902551	85	C	12/20/2022	01:16	-131.420	48.095	0	1215.30	0	2.7420	0	34.4350	0	27.464	0	1201.580	0	14.3	4	4.4	4	-1E+10	1	-1E+10	1	-1E+10	1	-1E+10	1	-1E+10	1	-1E+10	1
4902551	85	C	12/20/2022	01:16	-131.420	48.095	0	1225.50	0	2.7300	0	34.4380	0	27.468	0	1211.636	0	14.5	4	4.4	4	-1E+10	1	-1E+10	1	-1E+10	1	-1E+10	1	-1E+10	1	-1E+10	1
4902551	85	C	12/20/2022	01:16	-131.420	48.095	0	1235.60	0	2.7190	0	34.4400	0	27.471	0	1221.592	0	14.7	4	4.5	4	-1E+10	1	-1E+10	1	-1E+10	1	-1E+10	1	-1E+10	1	-1E+10	1
4902551	85	C	12/20/2022	01:16	-131.420	48.095	0	1245.40	0	2.7080	0	34.4420	0	27.473	0	1231.253	0	14.9	4	4.6	4	-1E+10	1	-1E+10	1	-1E+10	1	-1E+10	1	-1E+10	1	-1E+10	1
4902551	85	C	12/20/2022	01:16	-131.420	48.095	0	1255.40	0	2.6960	0	34.4440	0	27.476	0	1241.110	0	15.2	4	4.6	4	-1E+10	1	-1E+10	1	-1E+10	1	-1E+10	1	-1E+10	1	-1E+10	1
4902551	85	C	12/20/2022	01:16	-131.420	48.095	0	1265.50	0	2.6800	0	34.4470	0	27.480	0	1251.065	0	15.5	4	4.7	4	-1E+10	1	-1E+10	1	-1E+10	1	-1E+10	1	-1E+10	1	-1E+10	1
4902551	85	C	12/20/2022	01:16	-131.420	48.095	0	1275.20	0	2.6670	0	34.4490	0	27.482	0	1260.625	0	15.7	4	4.8	4	-1E+10	1	-1E+10	1	-1E+10	1	-1E+10	1	-1E+10	1	-1E+10	1
4902551	85	C	12/20/2022	01:16	-131.420	48.095	0	1285.10	0	2.6560	0	34.4520	0	27.486	0	1270.382	0	16.0	4	4.9	4	-1E+10	1	-1E+10	1	-1E+10	1	-1E+10	1	-1E+10	1	-1E+10	1
4902551	85	C	12/20/2022	01:16	-131.420	48.095	0	1295.00	0	2.6440	0	34.4540	0	27.489	0	1280.138	0	16.3	4	5.0	4	-1E+10	1	-1E+10	1	-1E+10	1	-1E+10	1	-1E+10	1	-1E+10	1
4902551	85	C	12/20/2022	01:16	-131.420	48.095	0	1305.00	0	2.6290	0	34.4570	0	27.492	0	1289.993	0	16.6	4	5.1	4	-1E+10	1	-1E+10	1	-1E+10	1	-1E+10	1	-1E+10	1	-1E+10	1
4902551	85	C	12/20/2022	01:16	-131.420	48.095	0	1315.00	0	2.6170	0	34.4600	0	27.496	0	1299.847	0	17.0	4	5.2	4	-1E+10	1	-1E+10	1	-1E+10	1	-1E+10	1	-1E+10	1	-1E+10	1
4902551	85	C	12/20/2022	01:16	-131.420	48.095	0	1325.00	0	2.6040	0	34.4620	0	27.498	0	1309.701	0	17.3	4	5.3	4	-1E+10	1	-1E+10	1	-1E+10	1	-1E+10	1	-1E+10	1	-1E+10	1
4902551	85	C	12/20/2022	01:16	-131.420	48.095	0	1335.10	0	2.5890	0	34.4650	0	27.502	0	1319.653	0	17.8	4	5.4	4	-1E+10	1	-1E+10	1	-1E+10	1	-1E+10	1	-1E+10	1	-1E+10	1
4902551	85	C	12/20/2022	01:16	-131.420	48.095	0	1345.20	0	2.5710	0	34.4680	0	27.506	0	1329.604	0	18.2	4	5.6	4	-1E+10	1	-1E+10	1	-1E+10	1	-1E+10	1	-1E+10	1	-1E+10	1
4902551	85	C	12/20/2022	01:16	-131.420	48.095	0	1355.40	0	2.5570	0	34.4710	0	27.510	0	1339.653	0	18.7	4	5.7	4	-1E+10	1	-1E+10	1	-1E+10	1	-1E+10	1	-1E+10	1	-1E+10	1
4902551	85	C	12/20/2022	01:16	-131.420	48.095	0	1365.50	0	2.5430	0	34.4740	0	27.513	0	1349.604	0	19.3	4	5.9	4	-1E+10	1	-1E+10	1	-1E+10	1	-1E+10	1	-1E+10	1	-1E+10	1
4902551	85	C	12/20/2022	01:16	-131.420	48.095	0	1375.70	0	2.5260	0	34.4770	0	27.517	0	1359.652	0	19.8	4	6.1	4	-1E+10	1	-1E+10	1	-1E+10	1	-1E+10	1	-1E+10	1	-1E+10	1
4902551	85	C	12/20/2022	01:16	-131.420	48.095	0	1385.40	0	2.5080	0	34.4800	0	27.521	0	1369.207	0	20.4	4	6.2	4	-1E+10	1	-1E+10	1	-1E+10	1	-1E+10	1	-1E+10	1	-1E+10	1
4902551	85	C	12/20/2022	01:16	-131.420	48.095	0	1395.30	0	2.4940	0	34.4830	0	27.525	0	1378.959	0	20.8	4	6.4	4	-1E+10	1	-1E+10	1	-1E+10	1	-1E+10	1	-1E+10	1	-1E+10	1
4902551	85	C	12/20/2022	01:16	-131.420	48.095	0	1405.30	0	2.4820	0	34.4850	0	27.528	0	1388.809	0	21.3	4	6.5	4	-1E+10	1	-1E+10	1	-1E+10	1	-1E+10	1	-1E+10	1	-1E+10	1
4902551	85	C	12/20/2022	01:16	-131.420	48.095	0	1415.20	0	2.4700	0	34.4870	0	27.530	0	1398.560	0	21.7	4	6.6	4	-1E+10	1	-1E+10	1	-1E+10	1	-1E+10	1	-1E+10	1	-1E+10	1
4902551	85	C	12/20/2022	01:16	-131.420	48.095	0	1425.30	0	2.4580	0	34.4890	0	27.533	0	1408.508	0	22.2	4	6.8	4	-1E+10	1	-1E+10	1	-1E+10	1	-1E+10	1	-1E+10	1	-1E+10	1
4902551	85	C	12/20/2022	01:16	-131.420	48.095	0	1435.40	0	2.4440	0	34.4920	0	27.537	0	1418.455	0	22.5	4	6.8	4	-1E+10	1	-1E+10	1	-1E+10	1	-1E+10	1	-1E+10	1	-1E+10	1
4902551	85	C	12/20/2022	01:16	-131.420	48.095	0	1445.40	0	2.4280	0	34.4940	0	27.540	0	1428.303	0	22.9	4	7.0	4	-1E+10	1	-1E+10	1	-1E+10	1	-1E+10	1	-1E+10	1	-1E+10	1
4902551	85	C	12/20/2022	01:16	-131.420	48.095	0	1455.10	0	2.4090	0	34.4970	0	27.544	0	1437.855	0	23.4	4	7.1	4	-1E+10	1	-1E+10	1	-1E+10	1	-1E+10	1	-1E+10	1	-1E+10	1
4902551	85	C	12/20/2022	01:16	-131.420	48.095	0	1465.30	0	2.3930	0	34.4990	0	27.547	0	1447.900	0	24.2	4	7.4	4	-1E+10	1	-1E+10	1	-1E+10	1	-1E+10	1	-1E+10	1	-1E+10	1
4902551	85	C	12/20/2022	01:16	-131.420	48.095	0	1475.60	0	2.3790	0	34.5020	0	27.550	0	1458.042	0	25.0	4	7.6	4	-1E+10	1	-1E+10	1	-1E+10	1	-1E+10	1	-1E+10	1	-1E+10	1
4902551	85	C	12/20/2022	01:16	-131.420	48.095	0	1485.00	0	2.3650	0	34.5050	0	27.554	0	1467.297	0	25.4	4	7.7	4	-1E+10	1	-1E+10	1	-1E+10	1	-1E+10	1	-1E+10	1	-1E+10	1
4902551	85	C	12/20/2022	01:16	-131.420	48.095	0	1495.30	0	2.3540	0	34.5060	0	27.555	0	1477.439	0	25.9	4	7.9	4	-1E+10	1	-1E+10	1	-1E+10	1	-1E+10	1	-1E+10	1	-1E+10	1
4902551	85	C	12/20/2022	01:16	-131.420	48.095	0	1505.60	0	2.3490	0	34.5080	0	27.558	0	1487.579	0	26.6	4	8.1	4	-1E+10	1	-1E+10	1	-1E+10	1	-1E+10	1	-1E+10	1	-1E+10	1
4902551	85	C	12/20/2022	01:16	-131.420	48.095	0	1515.40	0	2.3370	0	34.5100	0	27.560	0	1497.227	0	27.0	4	8.2	4	-1E+10	1	-1E+10	1	-1E+10	1	-1E+10	1	-1E+10	1	-1E+10	1
4902551	85	C	12/20/2022	01:16	-131.420	48.095	0	1525.10	0	2.3260	0	34.5120	0	27.563	0	1506.776	0	27.2	4	8.3	4	-1E+10	1	-1E+10	1	-1E+10	1	-1E+10	1	-1E+10	1	-1E+10	1
4902551	85	C	12/20/2022	01:16	-131.420	48.095	0	1535.10	0	2.3170	0	34.5130	0	27.564	0	1516.620	0	27.5	4	8.4	4	-1E+10	1	-1E+10	1	-1E+10	1	-1E+10	1	-1E+10	1	-1E+10	1
4902551	85	C	12/20/2022	01:16	-131.420	48.095	0	1545.20	0	2.3090	0	34.5140	0	27.566	0	1526.562	0	27.8	4	8.5	4	-1E+10	1	-1E+10	1	-1E+10	1	-1E+10	1	-1E+10	1	-1E+10	1
4902551	85	C	12/20/2022	01:16	-131.420	48.095	0	1555.10	0	2.3010	0	34.5160	0	27.568	0	1536.307	0	28.2	4	8.6	4	-1E+10	1	-1E+10	1	-1E+10	1	-1E+10	1	-1E+10	1	-1E+10	1
4902551	85	C	12/20/2022	01:16	-131.420	48.095	0	1565.30	0	2.2890	0	34.5180	0	27.571	0	1546.347	0	28.7	4	8.7	4	-1E+10	1	-1E+10	1	-1E+10	1	-1E+10	1	-1E+10	1	-1E+10	1
4902551	85	C	12/20/2022	01:16	-131.420	48.095	0	1575.70	0	2.2810	0	34.5190	0	27.572	0	1556.582	0	29.3	4	8.9	4	-1E+10	1	-1E+10	1	-1E+10	1	-1E+10	1	-1E+10	1	-1E+10	1
4902551	85	C	12/20/2022	01:16	-131.420	48.095	0	1585.80	0	2.2700	0	34.5210	0	27.575	0	1566.523	0	29.9	4	9.1	4	-1E+10	1	-1E+10	1	-1E+10	1	-1E+10	1	-1E+10	1	-1E+10	1
4902551	85	C	12/20/2022	01:16	-131.420	48.095	0	1595.40	0	2.2530	0	34.5230	0	27.578	0	1575.970	0	30.5	4	9.3	4	-1E+10	1	-1E+10	1	-1E+10	1	-1E+10	1	-1E+10	1	-1E+10	1
4902551	85	C	12/20/2022	01:16	-131.420	48.095	0	1605.10	0	2.2420	0	34.5260	0	27.581	0	1585.516	0	31.4	4	9.5	4	-1E+10	1	-1E+10	1	-1E+10	1	-1E+10	1	-1E+10	1	-1E+10	1
4902551	85	C	12/20/2022	01:16	-131.420	48.095	0	1615.80	0	2.2330	0	34.5280	0	27.584	0	1596.045	0	31.9	4	9.7	4	-1E+10	1	-1E+10	1	-1E+10	1	-1E+10	1	-1E+10	1	-1E+10	1
4902551	85	C	12/20/2022	01:16	-131.420	48.095	0	1625.30	0	2.2170	0	34.5300	0	27.587	0	1605.393	0	32.1	4	9.7	4	-1E+10	1	-1E+10	1	-1E+10	1	-1E+10	1	-1E+10	1	-1E+10	1
4902551	85	C	12/20/2022	01:16	-131.420	48.095	0	1635.30	0	2.2070	0	34.5310	0	27.588	0	1615.232	0	32.8	4	9.9	4	-1E+10	1	-1E+10	1	-1E+10	1	-1E+10	1	-1E+10	1	-1E+10	1
4902551	85	C	12/20/2022	01:16	-131.420	48.095	0	1645.70	0	2.1980	0	34.5330	0	27.591	0	1625.465	0	33.4	4	10.1	4	-1E+10	1	-1E+10	1	-1E+10	1	-1E+10	1	-1E+10	1	-1E+10	1
4902551	85	C	12/20/2022	01:16	-131.420	48.095	0	1655.30	0	2.1870	0	34.5350	0	27.593	0	1634.910	0	34.0	4	10.3	4	-1E+10	1	-1E+10	1	-1E+10	1	-1E+10	1	-1E+10	1	-1E+10	1
4902551	85	C	12/20/2022	01:16	-131.420	48.095	0	1665.30	0	2.1760	0	34.5370	0	27.596	0	1644.748	0	34.7	4	10.5	4	-1E+10	1	-1E+10	1	-1E+10	1	-1E+10	1	-1E+10	1	-1E+10	1
4902551	85	C	12/20/2022	01:16	-131.420	48.095	0	1675.30	0	2.1670	0	34.5380	0	27.597	0	1654.585	0	35.4	4	10.7	4	-1E+10	1	-1E+10	1	-1E+10	1	-1E+10	1	-1E+10	1	-1E+10	1
4902551	85	C	12/20/2022	01:16	-131.420	48.095	0	1685.30	0	2.1550	0	34.5410	0	27.601	0	1664.422	0	36.1	4	10.9	4	-1E+10	1	-1E+10	1	-1E+10	1	-1E+10	1	-1E+10	1	-1E+10	1
4902551	85	C	12/20/2022	01:16	-131.420	48.095	0	1695.40	0	2.1460	0	34.5430	0	27.603	0	1674.357	0	36.7	4	11.1	4	-1E+10	1	-1E+10	1	-1E+10	1	-1E+10	1	-1E+10	1	-1E+10	1
4902551	85	C	12/20/2022	01:16	-131.420	48.095	0	1705.60	0	2.1370	0	34.5440	0	27.605	0	1684.390	0	37.3	4	11.3	4	-1E+10	1	-1E+10	1	-1E+10	1	-1E+10	1	-1E+10	1	-1E+10	1
4902551	85	C	12/20/2022	01:16	-131.420	48.095	0	1715.60	0	2.1290	0	34.5460	0	27.607	0	1694.226	0	37.9	4	11.5	4	-1E+10	1	-1E+10	1	-1E+10	1	-1E+10	1	-1E+10	1	-1E+10	1
4902551	85	C	12/20/2022	01:16	-131.420	48.095	0	1725.60	0	2.1210	0	34.5470	0	27.608	0	1704.061	0	38.4	4	11.6	4	-1E+10	1	-1E+10	1	-1E+10	1	-1E+10	1	-1E+10	1	-1E+10	1
4902551	85	C	12/20/2022	01:16	-131.420	48.095	0	1735.60	0	2.1120	0	34.5490	0	27.611	0	1713.896	0	39.0	4	11.8	4	-1E+10	1	-1E+10	1	-1E+10	1	-1E+10	1	-1E+10	1	-1E+10	1
4902551	85	C	12/20/2022	01:16	-131.420	48.095	0	1745.40	0	2.1040	0	34.5500	0	27.612	0	1723.534	0	39.8	4	12.0	4	-1E+10	1	-1E+10	1	-1E+10	1	-1E+10	1	-1E+10	1	-1E+10	1
4902551	85	C	12/20/2022	01:16	-131.420	48.095	0	1755.60	0	2.0920	0	34.5530	0	27.616	0	1733.564	0	40.6	4	12.3	4	-1E+10	1	-1E+10	1	-1E+10	1	-1E+10	1	-1E+10	1	-1E+10	1
4902551	85	C	12/20/2022	01:16	-131.420	48.095	0	1765.40	0	2.0830	0	34.5540	0	27.617	0	1743.201	0	41.4	4	12.5	4	-1E+10	1	-1E+10	1	-1E+10	1	-1E+10	1	-1E+10	1	-1E+10	1
4902551	85	C	12/20/2022	01:16	-131.420	48.095	0	1775.40	0	2.0750	0	34.5560	0	27.619	0	1753.034	0	42.4	4	12.8	4	-1E+10	1	-1E+10	1	-1E+10	1	-1E+10	1	-1E+10	1	-1E+10	1
4902551	85	C	12/20/2022	01:16	-131.420	48.095	0	1785.30	0	2.0630	0	34.5590	0	27.623	0	1762.768	0	43.5	4	13.1	4	-1E+10	1	-1E+10	1	-1E+10	1	-1E+10	1	-1E+10	1	-1E+10	1
4902551	85	C	12/20/2022	01:16	-131.420	48.095	0	1795.40	0	2.0540	0	34.5610	0	27.625	0	1772.699	0	44.3	4	13.4	4	-1E+10	1	-1E+10	1	-1E+10	1	-1E+10	1	-1E+10	1	-1E+10	1
4902551	85	C	12/20/2022	01:16	-131.420	48.095	0	1805.60	0	2.0490	0	34.5620	0	27.626	0	1782.727	0	44.9	4	13.6	4	-1E+10	1	-1E+10	1	-1E+10	1	-1E+10	1	-1E+10	1	-1E+10	1
4902551	85	C	12/20/2022	01:16	-131.420	48.095	0	1815.50	0	2.0380	0	34.5640	0	27.629	0	1792.460	0	45.7	4	13.8	4	-1E+10	1	-1E+10	1	-1E+10	1	-1E+10	1	-1E+10	1	-1E+10	1
4902551	85	C	12/20/2022	01:16	-131.420	48.095	0	1825.40	0	2.0310	0	34.5650	0	27.630	0	1802.192	0	46.2	4	13.9	4	-1E+10	1	-1E+10	1	-1E+10	1	-1E+10	1	-1E+10	1	-1E+10	1
4902551	85	C	12/20/2022	01:16	-131.420	48.095	0	1835.40	0	2.0240	0	34.5670	0	27.633	0	1812.022	0	46.9	4	14.1	4	-1E+10	1	-1E+10	1	-1E+10	1	-1E+10	1	-1E+10	1	-1E+10	1
4902551	85	C	12/20/2022	01:16	-131.420	48.095	0	1845.70	0	2.0190	0	34.5680	0	27.634	0	1822.147	0	47.4	4	14.3	4	-1E+10	1	-1E+10	1	-1E+10	1	-1E+10	1	-1E+10	1	-1E+10	1
4902551	85	C	12/20/2022	01:16	-131.420	48.095	0	1855.30	0	2.0130	0	34.5690	0	27.635	0	1831.583	0	48.0	4	14.5	4	-1E+10	1	-1E+10	1	-1E+10	1	-1E+10	1	-1E+10	1	-1E+10	1
4902551	85	C	12/20/2022	01:16	-131.420	48.095	0	1865.00	0	2.0090	0	34.5700	0	27.636	0	1841.117	0	48.5	4	14.6	4	-1E+10	1	-1E+10	1	-1E+10	1	-1E+10	1	-1E+10	1	-1E+10	1
4902551	85	C	12/20/2022	01:16	-131.420	48.095	0	1875.50	0	2.0050	0	34.5710	0	27.637	0	1851.437	0	49.0	4	14.8	4	-1E+10	1	-1E+10	1	-1E+10	1	-1E+10	1	-1E+10	1	-1E+10	1
4902551	85	C	12/20/2022	01:16	-131.420	48.095	0	1885.20	0	2.0000	0	34.5720	0	27.639	0	1860.970	0	49.6	4	15.0	4	-1E+10	1	-1E+10	1	-1E+10	1	-1E+10	1	-1E+10	1	-1E+10	1
4902551	85	C	12/20/2022	01:16	-131.420	48.095	0	1895.10	0	1.9890	0	34.5740	0	27.641	0	1870.700	0	50.3	4	15.2	4	-1E+10	1	-1E+10	1	-1E+10	1	-1E+10	1	-1E+10	1	-1E+10	1
4902551	85	C	12/20/2022	01:16	-131.420	48.095	0	1905.20	0	1.9820	0	34.5750	0	27.643	0	1880.625	0	50.9	4	15.3	4	-1E+10	1	-1E+10	1	-1E+10	1	-1E+10	1	-1E+10	1	-1E+10	1
4902551	85	C	12/20/2022	01:16	-131.420	48.095	0	1915.30	0	1.9740	0	34.5770	0	27.645	0	1890.550	0	51.5	4	15.5	4	-1E+10	1	-1E+10	1	-1E+10	1	-1E+10	1	-1E+10	1	-1E+10	1
4902551	85	C	12/20/2022	01:16	-131.420	48.095	0	1925.30	0	1.9690	0	34.5780	0	27.646	0	1900.376	0	52.2	4	15.7	4	-1E+10	1	-1E+10	1	-1E+10	1	-1E+10	1	-1E+10	1	-1E+10	1
4902551	85	C	12/20/2022	01:16	-131.420	48.095	0	1935.10	0	1.9610	0	34.5790	0	27.648	0	1910.005	0	52.8	4	15.9	4	-1E+10	1	-1E+10	1	-1E+10	1	-1E+10	1	-1E+10	1	-1E+10	1
4902551	85	C	12/20/2022	01:16	-131.420	48.095	0	1945.00	0	1.9530	0	34.5810	0	27.650	0	1919.732	0	53.3	4	16.0	4	-1E+10	1	-1E+10	1	-1E+10	1	-1E+10	1	-1E+10	1	-1E+10	1
4902551	85	C	12/20/2022	01:16	-131.420	48.095	0	1955.20	0	1.9460	0	34.5820	0	27.651	0	1929.753	0	53.8	4	16.2	4	-1E+10	1	-1E+10	1	-1E+10	1	-1E+10	1	-1E+10	1	-1E+10	1
4902551	85	C	12/20/2022	01:16	-131.420	48.095	0	1965.60	0	1.9400	0	34.5840	0	27.653	0	1939.971	0	54.4	4	16.4	4	-1E+10	1	-1E+10	1	-1E+10	1	-1E+10	1	-1E+10	1	-1E+10	1
4902551	85	C	12/20/2022	01:16	-131.420	48.095	0	1975.90	0	1.9380	0	34.5850	0	27.654	0	1950.089	0	54.6	4	16.4	4	-1E+10	1	-1E+10	1	-1E+10	1	-1E+10	1	-1E+10	1	-1E+10	1
4902551	85	C	12/20/2022	01:16	-131.420	48.095	0	1982.50	0	1.9350	0	34.5850	0	27.655	0	1956.573	0	54.4	4	16.4	4	-1E+10	1	-1E+10	1	-1E+10	1	-1E+10	1	-1E+10	1	-1E+10	1
4902551	85	C	12/20/2022	01:16	-131.420	48.095	0																										
4902551	86	C	12/30/2022	05:59	-131.370	48.032	0	0.10	0	9.1940	0	32.2790	0	24.958	0	0.099	0	262.8	4	92.2	4	-1E+10	1	-1E+10	1	-1E+10	1	-1E+10	1	-1E+10	1	-1E+10	1
4902551	86	C	12/30/2022	05:59	-131.370	48.032	0	1.00	0	9.1960	0	32.2800	0	24.959	0	0.992	0	262.8	4	92.2	4	-1E+10	1	-1E+10	1	-1E+10	1	-1E+10	1	-1E+10	1	-1E+10	1
4902551	86	C	12/30/2022	05:59	-131.370	48.032	0	2.00	0	9.1970	0	32.2800	0	24.959	0	1.983	0	262.9	4	92.2	4	-1E+10	1	-1E+10	1	-1E+10	1	-1E+10	1	-1E+10	1	-1E+10	1
4902551	86	C	12/30/2022	05:59	-131.370	48.032	0	2.80	0	9.1970	0	32.2800	0	24.959	0	2.776	0	262.8	4	92.2	4	-1E+10	1	-1E+10	1	-1E+10	1	-1E+10	1	-1E+10	1	-1E+10	1
4902551	86	C	12/30/2022	05:59	-131.370	48.032	0	4.10	0	9.1970	0	32.2800	0	24.959	0	4.066	0	262.8	4	92.2	4	-1E+10	1	-1E+10	1	-1E+10	1	-1E+10	1	-1E+10	1	-1E+10	1
4902551	86	C	12/30/2022	05:59	-131.370	48.032	0	5.00	0	9.1970	0	32.2810	0	24.959	0	4.958	0	262.7	4	92.2	4	-1E+10	1	-1E+10	1	-1E+10	1	-1E+10	1	-1E+10	1	-1E+10	1
4902551	86	C	12/30/2022	05:59	-131.370	48.032	0	5.90	0	9.1970	0	32.2810	0	24.959	0	5.850	0	-1e10	1	-1e10	1	-1E+10	1	-1E+10	1	-1E+10	1	-1E+10	1	-1E+10	1	-1E+10	1
4902551	86	C	12/30/2022	05:59	-131.370	48.032	0	6.00	0	9.1970	0	32.2810	0	24.959	0	5.950	0	262.7	4	92.2	4	-1E+10	1	-1E+10	1	-1E+10	1	-1E+10	1	-1E+10	1	-1E+10	1
4902551	86	C	12/30/2022	05:59	-131.370	48.032	0	6.70	0	9.1970	0	32.2810	0	24.959	0	6.644	0	262.7	4	92.2	4	-1E+10	1	-1E+10	1	-1E+10	1	-1E+10	1	-1E+10	1	-1E+10	1
4902551	86	C	12/30/2022	05:59	-131.370	48.032	0	7.00	0	9.1970	0	32.2810	0	24.959	0	6.941	0	-1e10	1	-1e10	1	-1E+10	1	-1E+10	1	-1E+10	1	-1E+10	1	-1E+10	1	-1E+10	1
4902551	86	C	12/30/2022	05:59	-131.370	48.032	0	7.60	0	9.1970	0	32.2810	0	24.959	0	7.536	0	262.7	4	92.2	4	-1E+10	1	-1E+10	1	-1E+10	1	-1E+10	1	-1E+10	1	-1E+10	1
4902551	86	C	12/30/2022	05:59	-131.370	48.032	0	7.90	0	9.1970	0	32.2810	0	24.959	0	7.834	0	-1e10	1	-1e10	1	-1E+10	1	-1E+10	1	-1E+10	1	-1E+10	1	-1E+10	1	-1E+10	1
4902551	86	C	12/30/2022	05:59	-131.370	48.032	0	8.50	0	9.1970	0	32.2810	0	24.959	0	8.428	0	262.7	4	92.2	4	-1E+10	1	-1E+10	1	-1E+10	1	-1E+10	1	-1E+10	1	-1E+10	1
4902551	86	C	12/30/2022	05:59	-131.370	48.032	0	8.90	0	9.1970	0	32.2810	0	24.959	0	8.825	0	-1e10	1	-1e10	1	-1E+10	1	-1E+10	1	-1E+10	1	-1E+10	1	-1E+10	1	-1E+10	1
4902551	86	C	12/30/2022	05:59	-131.370	48.032	0	9.50	0	9.1970	0	32.2810	0	24.959	0	9.420	0	262.7	4	92.2	4	-1E+10	1	-1E+10	1	-1E+10	1	-1E+10	1	-1E+10	1	-1E+10	1
4902551	86	C	12/30/2022	05:59	-131.370	48.032	0	9.70	0	9.1970	0	32.2810	0	24.959	0	9.618	0	-1e10	1	-1e10	1	-1E+10	1	-1E+10	1	-1E+10	1	-1E+10	1	-1E+10	1	-1E+10	1
4902551	86	C	12/30/2022	05:59	-131.370	48.032	0	10.20	0	9.1970	0	32.2810	0	24.959	0	10.114	0	-1e10	1	-1e10	1	-1E+10	1	-1E+10	1	-1E+10	1	-1E+10	1	-1E+10	1	-1E+10	1
4902551	86	C	12/30/2022	05:59	-131.370	48.032	0	10.90	0	9.1970	0	32.2810	0	24.959	0	10.808	0	262.7	4	92.2	4	-1E+10	1	-1E+10	1	-1E+10	1	-1E+10	1	-1E+10	1	-1E+10	1
4902551	86	C	12/30/2022	05:59	-131.370	48.032	0	11.60	0	9.1970	0	32.2810	0	24.959	0	11.502	0	-1e10	1	-1e10	1	-1E+10	1	-1E+10	1	-1E+10	1	-1E+10	1	-1E+10	1	-1E+10	1
4902551	86	C	12/30/2022	05:59	-131.370	48.032	0	12.00	0	9.1970	0	32.2810	0	24.959	0	11.899	0	-1e10	1	-1e10	1	-1E+10	1	-1E+10	1	-1E+10	1	-1E+10	1	-1E+10	1	-1E+10	1
4902551	86	C	12/30/2022	05:59	-131.370	48.032	0	12.10	0	9.1970	0	32.2810	0	24.959	0	11.998	0	262.6	4	92.2	4	-1E+10	1	-1E+10	1	-1E+10	1	-1E+10	1	-1E+10	1	-1E+10	1
4902551	86	C	12/30/2022	05:59	-131.370	48.032	0	12.80	0	9.1970	0	32.2810	0	24.959	0	12.692	0	262.6	4	92.1	4	-1E+10	1	-1E+10	1	-1E+10	1	-1E+10	1	-1E+10	1	-1E+10	1
4902551	86	C	12/30/2022	05:59	-131.370	48.032	0	13.90	0	9.1970	0	32.2810	0	24.959	0	13.783	0	262.6	4	92.2	4	-1E+10	1	-1E+10	1	-1E+10	1	-1E+10	1	-1E+10	1	-1E+10	1
4902551	86	C	12/30/2022	05:59	-131.370	48.032	0	14.80	0	9.1970	0	32.2810	0	24.960	0	14.675	0	262.6	4	92.2	4	-1E+10	1	-1E+10	1	-1E+10	1	-1E+10	1	-1E+10	1	-1E+10	1
4902551	86	C	12/30/2022	05:59	-131.370	48.032	0	15.60	0	9.1980	0	32.2800	0	24.959	0	15.468	0	262.6	4	92.2	4	-1E+10	1	-1E+10	1	-1E+10	1	-1E+10	1	-1E+10	1	-1E+10	1
4902551	86	C	12/30/2022	05:59	-131.370	48.032	0	16.90	0	9.1980	0	32.2810	0	24.959	0	16.757	0	262.6	4	92.1	4	-1E+10	1	-1E+10	1	-1E+10	1	-1E+10	1	-1E+10	1	-1E+10	1
4902551	86	C	12/30/2022	05:59	-131.370	48.032	0	18.10	0	9.1970	0	32.2810	0	24.960	0	17.947	0	262.6	4	92.2	4	-1E+10	1	-1E+10	1	-1E+10	1	-1E+10	1	-1E+10	1	-1E+10	1
4902551	86	C	12/30/2022	05:59	-131.370	48.032	0	18.80	0	9.1980	0	32.2810	0	24.959	0	18.641	0	262.6	4	92.1	4	-1E+10	1	-1E+10	1	-1E+10	1	-1E+10	1	-1E+10	1	-1E+10	1
4902551	86	C	12/30/2022	05:59	-131.370	48.032	0	19.80	0	9.1980	0	32.2810	0	24.959	0	19.633	0	262.5	4	92.1	4	-1E+10	1	-1E+10	1	-1E+10	1	-1E+10	1	-1E+10	1	-1E+10	1
4902551	86	C	12/30/2022	05:59	-131.370	48.032	0	21.10	0	9.1990	0	32.2810	0	24.959	0	20.922	0	262.6	4	92.1	4	-1E+10	1	-1E+10	1	-1E+10	1	-1E+10	1	-1E+10	1	-1E+10	1
4902551	86	C	12/30/2022	05:59	-131.370	48.032	0	22.00	0	9.1990	0	32.2810	0	24.959	0	21.814	0	262.6	4	92.2	4	-1E+10	1	-1E+10	1	-1E+10	1	-1E+10	1	-1E+10	1	-1E+10	1
4902551	86	C	12/30/2022	05:59	-131.370	48.032	0	22.90	0	9.2000	0	32.2810	0	24.959	0	22.707	0	262.5	4	92.1	4	-1E+10	1	-1E+10	1	-1E+10	1	-1E+10	1	-1E+10	1	-1E+10	1
4902551	86	C	12/30/2022	05:59	-131.370	48.032	0	24.00	0	9.2000	0	32.2810	0	24.959	0	23.797	0	262.5	4	92.1	4	-1E+10	1	-1E+10	1	-1E+10	1	-1E+10	1	-1E+10	1	-1E+10	1
4902551	86	C	12/30/2022	05:59	-131.370	48.032	0	24.90	0	9.1990	0	32.2810	0	24.959	0	24.689	0	262.4	4	92.1	4	-1E+10	1	-1E+10	1	-1E+10	1	-1E+10	1	-1E+10	1	-1E+10	1
4902551	86	C	12/30/2022	05:59	-131.370	48.032	0	25.90	0	9.2000	0	32.2810	0	24.959	0	25.681	0	262.5	4	92.1	4	-1E+10	1	-1E+10	1	-1E+10	1	-1E+10	1	-1E+10	1	-1E+10	1
4902551	86	C	12/30/2022	05:59	-131.370	48.032	0	26.90	0	9.2000	0	32.2810	0	24.959	0	26.672	0	262.5	4	92.1	4	-1E+10	1	-1E+10	1	-1E+10	1	-1E+10	1	-1E+10	1	-1E+10	1
4902551	86	C	12/30/2022	05:59	-131.370	48.032	0	27.90	0	9.2000	0	32.2810	0	24.959	0	27.664	0	262.5	4	92.1	4	-1E+10	1	-1E+10	1	-1E+10	1	-1E+10	1	-1E+10	1	-1E+10	1
4902551	86	C	12/30/2022	05:59	-131.370	48.032	0	29.00	0	9.2000	0	32.2810	0	24.959	0	28.755	0	262.5	4	92.1	4	-1E+10	1	-1E+10	1	-1E+10	1	-1E+10	1	-1E+10	1	-1E+10	1
4902551	86	C	12/30/2022	05:59	-131.370	48.032	0	30.20	0	9.2000	0	32.2810	0	24.959	0	29.944	0	262.4	4	92.1	4	-1E+10	1	-1E+10	1	-1E+10	1	-1E+10	1	-1E+10	1	-1E+10	1
4902551	86	C	12/30/2022	05:59	-131.370	48.032	0	31.00	0	9.2000	0	32.2810	0	24.959	0	30.737	0	262.4	4	92.1	4	-1E+10	1	-1E+10	1	-1E+10	1	-1E+10	1	-1E+10	1	-1E+10	1
4902551	86	C	12/30/2022	05:59	-131.370	48.032	0	31.80	0	9.2010	0	32.2810	0	24.959	0	31.531	0	262.4	4	92.1	4	-1E+10	1	-1E+10	1	-1E+10	1	-1E+10	1	-1E+10	1	-1E+10	1
4902551	86	C	12/30/2022	05:59	-131.370	48.032	0	32.70	0	9.2010	0	32.2810	0	24.959	0	32.423	0	262.5	4	92.1	4	-1E+10	1	-1E+10	1	-1E+10	1	-1E+10	1	-1E+10	1	-1E+10	1
4902551	86	C	12/30/2022	05:59	-131.370	48.032	0	33.90	0	9.2010	0	32.2810	0	24.959	0	33.613	0	262.4	4	92.1	4	-1E+10	1	-1E+10	1	-1E+10	1	-1E+10	1	-1E+10	1	-1E+10	1
4902551	86	C	12/30/2022	05:59	-131.370	48.032	0	35.10	0	9.2010	0	32.2810	0	24.959	0	34.802	0	262.4	4	92.1	4	-1E+10	1	-1E+10	1	-1E+10	1	-1E+10	1	-1E+10	1	-1E+10	1
4902551	86	C	12/30/2022	05:59	-131.370	48.032	0	35.80	0	9.2010	0	32.2810	0	24.959	0	35.496	0	262.5	4	92.1	4	-1E+10	1	-1E+10	1	-1E+10	1	-1E+10	1	-1E+10	1	-1E+10	1
4902551	86	C	12/30/2022	05:59	-131.370	48.032	0	36.80	0	9.2010	0	32.2810	0	24.959	0	36.488	0	262.4	4	92.1	4	-1E+10	1	-1E+10	1	-1E+10	1	-1E+10	1	-1E+10	1	-1E+10	1
4902551	86	C	12/30/2022	05:59	-131.370	48.032	0	38.10	0	9.2020	0	32.2810	0	24.959	0	37.777	0	262.4	4	92.1	4	-1E+10	1	-1E+10	1	-1E+10	1	-1E+10	1	-1E+10	1	-1E+10	1
4902551	86	C	12/30/2022	05:59	-131.370	48.032	0	39.00	0	9.2020	0	32.2810	0	24.959	0	38.669	0	262.4	4	92.1	4	-1E+10	1	-1E+10	1	-1E+10	1	-1E+10	1	-1E+10	1	-1E+10	1
4902551	86	C	12/30/2022	05:59	-131.370	48.032	0	39.80	0	9.2020	0	32.2810	0	24.959	0	39.462	0	262.4	4	92.1	4	-1E+10	1	-1E+10	1	-1E+10	1	-1E+10	1	-1E+10	1	-1E+10	1
4902551	86	C	12/30/2022	05:59	-131.370	48.032	0	40.80	0	9.2020	0	32.2810	0	24.959	0	40.454	0	262.3	4	92.1	4	-1E+10	1	-1E+10	1	-1E+10	1	-1E+10	1	-1E+10	1	-1E+10	1
4902551	86	C	12/30/2022	05:59	-131.370	48.032	0	41.80	0	9.2020	0	32.2810	0	24.959	0	41.445	0	262.4	4	92.1	4	-1E+10	1	-1E+10	1	-1E+10	1	-1E+10	1	-1E+10	1	-1E+10	1
4902551	86	C	12/30/2022	05:59	-131.370	48.032	0	42.90	0	9.2020	0	32.2810	0	24.959	0	42.535	0	262.4	4	92.1	4	-1E+10	1	-1E+10	1	-1E+10	1	-1E+10	1	-1E+10	1	-1E+10	1
4902551	86	C	12/30/2022	05:59	-131.370	48.032	0	44.00	0	9.2020	0	32.2810	0	24.959	0	43.626	0	262.4	4	92.1	4	-1E+10	1	-1E+10	1	-1E+10	1	-1E+10	1	-1E+10	1	-1E+10	1
4902551	86	C	12/30/2022	05:59	-131.370	48.032	0	44.90	0	9.2030	0	32.2820	0	24.960	0	44.518	0	262.3	4	92.1	4	-1E+10	1	-1E+10	1	-1E+10	1	-1E+10	1	-1E+10	1	-1E+10	1
4902551	86	C	12/30/2022	05:59	-131.370	48.032	0	46.00	0	9.2020	0	32.2820	0	24.960	0	45.609	0	262.3	4	92.1	4	-1E+10	1	-1E+10	1	-1E+10	1	-1E+10	1	-1E+10	1	-1E+10	1
4902551	86	C	12/30/2022	05:59	-131.370	48.032	0	47.10	0	9.2030	0	32.2820	0	24.960	0	46.699	0	262.3	4	92.0	4	-1E+10	1	-1E+10	1	-1E+10	1	-1E+10	1	-1E+10	1	-1E+10	1
4902551	86	C	12/30/2022	05:59	-131.370	48.032	0	47.80	0	9.2030	0	32.2820	0	24.960	0	47.393	0	262.3	4	92.1	4	-1E+10	1	-1E+10	1	-1E+10	1	-1E+10	1	-1E+10	1	-1E+10	1
4902551	86	C	12/30/2022	05:59	-131.370	48.032	0	48.80	0	9.2030	0	32.2820	0	24.960	0	48.385	0	262.3	4	92.1	4	-1E+10	1	-1E+10	1	-1E+10	1	-1E+10	1	-1E+10	1	-1E+10	1
4902551	86	C	12/30/2022	05:59	-131.370	48.032	0	49.90	0	9.2030	0	32.2820	0	24.960	0	49.475	0	262.3	4	92.0	4	-1E+10	1	-1E+10	1	-1E+10	1	-1E+10	1	-1E+10	1	-1E+10	1
4902551	86	C	12/30/2022	05:59	-131.370	48.032	0	50.80	0	9.2030	0	32.2820	0	24.960	0	50.367	0	262.2	4	92.0	4	-1E+10	1	-1E+10	1	-1E+10	1	-1E+10	1	-1E+10	1	-1E+10	1
4902551	86	C	12/30/2022	05:59	-131.370	48.032	0	52.10	0	9.2030	0	32.2820	0	24.960	0	51.656	0	262.2	4	92.0	4	-1E+10	1	-1E+10	1	-1E+10	1	-1E+10	1	-1E+10	1	-1E+10	1
4902551	86	C	12/30/2022	05:59	-131.370	48.032	0	53.10	0	9.2040	0	32.2820	0	24.960	0	52.647	0	262.2	4	92.0	4	-1E+10	1	-1E+10	1	-1E+10	1	-1E+10	1	-1E+10	1	-1E+10	1
4902551	86	C	12/30/2022	05:59	-131.370	48.032	0	53.80	0	9.2030	0	32.2820	0	24.960	0	53.341	0	262.1	4	92.0	4	-1E+10	1	-1E+10	1	-1E+10	1	-1E+10	1	-1E+10	1	-1E+10	1
4902551	86	C	12/30/2022	05:59	-131.370	48.032	0	54.80	0	9.2040	0	32.2820	0	24.960	0	54.333	0	262.0	4	92.0	4	-1E+10	1	-1E+10	1	-1E+10	1	-1E+10	1	-1E+10	1	-1E+10	1
4902551	86	C	12/30/2022	05:59	-131.370	48.032	0	55.90	0	9.2040	0	32.2820	0	24.960	0	55.423	0	262.1	4	92.0	4	-1E+10	1	-1E+10	1	-1E+10	1	-1E+10	1	-1E+10	1	-1E+10	1
4902551	86	C	12/30/2022	05:59	-131.370	48.032	0	56.90	0	9.2030	0	32.2820	0	24.960	0	56.415	0	262.1	4	92.0	4	-1E+10	1	-1E+10	1	-1E+10	1	-1E+10	1	-1E+10	1	-1E+10	1
4902551	86	C	12/30/2022	05:59	-131.370	48.032	0	58.00	0	9.2030	0	32.2820	0	24.960	0	57.505	0	262.0	4	92.0	4	-1E+10	1	-1E+10	1	-1E+10	1	-1E+10	1	-1E+10	1	-1E+10	1
4902551	86	C	12/30/2022	05:59	-131.370	48.032	0	58.70	0	9.2040	0	32.2820	0	24.960	0	58.199	0	262.0	4	92.0	4	-1E+10	1	-1E+10	1	-1E+10	1	-1E+10	1	-1E+10	1	-1E+10	1
4902551	86	C	12/30/2022	05:59	-131.370	48.032	0	59.80	0	9.2040	0	32.2820	0	24.960	0	59.289	0	261.9	4	91.9	4	-1E+10	1	-1E+10	1	-1E+10	1	-1E+10	1	-1E+10	1	-1E+10	1
4902551	86	C	12/30/2022	05:59	-131.370	48.032	0	60.90	0	9.2030	0	32.2820	0	24.960	0	60.380	0	261.9	4	91.9	4	-1E+10	1	-1E+10	1	-1E+10	1	-1E+10	1	-1E+10	1	-1E+10	1
4902551	86	C	12/30/2022	05:59	-131.370	48.032	0	61.90	0	9.2040	0	32.2820	0	24.960	0	61.371	0	261.8	4	91.9	4	-1E+10	1	-1E+10	1	-1E+10	1	-1E+10	1	-1E+10	1	-1E+10	1
4902551	86	C	12/30/2022	05:59	-131.370	48.032	0	63.00	0	9.2040	0	32.2810	0	24.959	0	62.462	0	261.8	4	91.9	4	-1E+10	1	-1E+10	1	-1E+10	1	-1E+10	1	-1E+10	1	-1E+10	1
4902551	86	C	12/30/2022	05:59	-131.370	48.032	0	64.00	0	9.2030	0	32.2810	0	24.959	0	63.453	0	261.8	4	91.9	4	-1E+10	1	-1E+10	1	-1E+10	1	-1E+10	1	-1E+10	1	-1E+10	1
4902551	86	C	12/30/2022	05:59	-131.370	48.032	0	65.00	0	9.1990	0	32.2820	0	24.961	0	64.444	0	261.7	4	91.8	4	-1E+10	1	-1E+10	1	-1E+10	1	-1E+10	1	-1E+10	1	-1E+10	1
4902551	86	C	12/30/2022	05:59	-131.370	48.032	0	66.00	0	9.1970	0	32.2850	0	24.963	0	65.435	0	261.6	4	91.8	4	-1E+10	1	-1E+10	1	-1E+10	1	-1E+10	1	-1E+10	1	-1E+10	1
4902551	86	C	12/30/2022	05:59	-131.370	48.032	0	67.20	0	9.1940	0	32.2850	0	24.964	0	66.625	0	261.5	4	91.8	4	-1E+10	1	-1E+10	1	-1E+10	1	-1E+10	1	-1E+10	1	-1E+10	1
4902551	86	C	12/30/2022	05:59	-131.370	48.032	0	67.90	0	9.1970	0	32.2830	0	24.962	0	67.319	0	261.5	4	91.8	4	-1E+10	1	-1E+10	1	-1E+10	1	-1E+10	1	-1E+10	1	-1E+10	1
4902551	86	C	12/30/2022	05:59	-131.370	48.032	0	68.90	0	9.1920	0	32.2850	0	24.964	0	68.310	0	261.5	4	91.7	4	-1E+10	1	-1E+10	1	-1E+10	1	-1E+10	1	-1E+10	1	-1E+10	1
4902551	86	C	12/30/2022	05:59	-131.370	48.032	0	69.90	0	9.1800	0	32.2890	0	24.969	0	69.301	0	261.4	4	91.7	4	-1E+10	1	-1E+10	1	-1E+10	1	-1E+10	1	-1E+10	1	-1E+10	1
4902551	86	C	12/30/2022	05:59	-131.370	48.032	0	70.90	0	9.1800	0	32.2890	0	24.969	0	70.293	0	261.4	4	91.7	4	-1E+10	1	-1E+10	1	-1E+10	1	-1E+10	1	-1E+10	1	-1E+10	1
4902551	86	C	12/30/2022	05:59	-131.370	48.032	0	72.00	0	9.1840	0	32.2880	0	24.968	0	71.383	0	261.1	4	91.6	4	-1E+10	1	-1E+10	1	-1E+10	1	-1E+10	1	-1E+10	1	-1E+10	1
4902551	86	C	12/30/2022	05:59	-131.370	48.032	0	73.00	0	9.1850	0	32.2880	0	24.968	0	72.374	0	261.1	4	91.6	4	-1E+10	1	-1E+10	1	-1E+10	1	-1E+10	1	-1E+10	1	-1E+10	1
4902551	86	C	12/30/2022	05:59	-131.370	48.032	0	74.10	0	9.1810	0	32.2900	0	24.970	0	73.465	0	260.9	4	91.5	4	-1E+10	1	-1E+10	1	-1E+10	1	-1E+10	1	-1E+10	1	-1E+10	1
4902551	86	C	12/30/2022	05:59	-131.370	48.032	0	75.10	0	9.1790	0	32.2890	0	24.970	0	74.456	0	260.9	4	91.5	4	-1E+10	1	-1E+10	1	-1E+10	1	-1E+10	1	-1E+10	1	-1E+10	1
4902551	86	C	12/30/2022	05:59	-131.370	48.032	0	76.00	0	9.1740	0	32.2910	0	24.972	0	75.348	0	260.7	4	91.4	4	-1E+10	1	-1E+10	1	-1E+10	1	-1E+10	1	-1E+10	1	-1E+10	1
4902551	86	C	12/30/2022	05:59	-131.370	48.032	0	77.00	0	9.1690	0	32.2910	0	24.973	0	76.339	0	260.6	4	91.4	4	-1E+10	1	-1E+10	1	-1E+10	1	-1E+10	1	-1E+10	1	-1E+10	1
4902551	86	C	12/30/2022	05:59	-131.370	48.032	0	78.00	0	9.1700	0	32.2900	0	24.972	0	77.331	0	260.3	4	91.3	4	-1E+10	1	-1E+10	1	-1E+10	1	-1E+10	1	-1E+10	1	-1E+10	1
4902551	86	C	12/30/2022	05:59	-131.370	48.032	0	78.90	0	9.1600	0	32.2920	0	24.975	0	78.223	0	260.2	4	91.2	4	-1E+10	1	-1E+10	1	-1E+10	1	-1E+10	1	-1E+10	1	-1E+10	1
4902551	86	C	12/30/2022	05:59	-131.370	48.032	0	79.90	0	9.1350	0	32.3000	0	24.985	0	79.214	0	260.1	4	91.1	4	-1E+10	1	-1E+10	1	-1E+10	1	-1E+10	1	-1E+10	1	-1E+10	1
4902551	86	C	12/30/2022	05:59	-131.370	48.032	0	80.80	0	9.1200	0	32.2990	0	24.987	0	80.106	0	259.9	4	91.0	4	-1E+10	1	-1E+10	1	-1E+10	1	-1E+10	1	-1E+10	1	-1E+10	1
4902551	86	C	12/30/2022	05:59	-131.370	48.032	0	81.80	0	9.0940	0	32.3050	0	24.995	0	81.097	0	259.7	4	90.9	4	-1E+10	1	-1E+10	1	-1E+10	1	-1E+10	1	-1E+10	1	-1E+10	1
4902551	86	C	12/30/2022	05:59	-131.370	48.032	0	83.10	0	9.0610	0	32.3120	0	25.006	0	82.386	0	265.8	4	93.0	4	-1E+10	1	-1E+10	1	-1E+10	1	-1E+10	1	-1E+10	1	-1E+10	1
4902551	86	C	12/30/2022	05:59	-131.370	48.032	0	83.90	0	9.0510	0	32.3100	0	25.006	0	83.179	0	265.2	4	92.8	4	-1E+10	1	-1E+10	1	-1E+10	1	-1E+10	1	-1E+10	1	-1E+10	1
4902551	86	C	12/30/2022	05:59	-131.370	48.032	0	85.10	0	9.0370	0	32.3080	0	25.007	0	84.368	0	263.9	4	92.3	4	-1E+10	1	-1E+10	1	-1E+10	1	-1E+10	1	-1E+10	1	-1E+10	1
4902551	86	C	12/30/2022	05:59	-131.370	48.032	0	86.00	0	8.9460	0	32.3160	0	25.027	0	85.260	0	263.0	4	91.8	4	-1E+10	1	-1E+10	1	-1E+10	1	-1E+10	1	-1E+10	1	-1E+10	1
4902551	86	C	12/30/2022	05:59	-131.370	48.032	0	86.90	0	8.6340	0	32.3500	0	25.101	0	86.152	0	263.2	4	91.3	4	-1E+10	1	-1E+10	1	-1E+10	1	-1E+10	1	-1E+10	1	-1E+10	1
4902551	86	C	12/30/2022	05:59	-131.370	48.032	0	88.00	0	8.1700	0	32.4000	0	25.209	0	87.243	0	263.9	4	90.6	4	-1E+10	1	-1E+10	1	-1E+10	1	-1E+10	1	-1E+10	1	-1E+10	1
4902551	86	C	12/30/2022	05:59	-131.370	48.032	0	89.20	0	7.7900	0	32.4360	0	25.292	0	88.432	0	264.5	4	90.1	4	-1E+10	1	-1E+10	1	-1E+10	1	-1E+10	1	-1E+10	1	-1E+10	1
4902551	86	C	12/30/2022	05:59	-131.370	48.032	0	90.10	0	7.6210	0	32.4540	0	25.330	0	89.324	0	264.0	4	89.5	4	-1E+10	1	-1E+10	1	-1E+10	1	-1E+10	1	-1E+10	1	-1E+10	1
4902551	86	C	12/30/2022	05:59	-131.370	48.032	0	90.90	0	7.5130	0	32.4630	0	25.352	0	90.117	0	263.7	4	89.3	4	-1E+10	1	-1E+10	1	-1E+10	1	-1E+10	1	-1E+10	1	-1E+10	1
4902551	86	C	12/30/2022	05:59	-131.370	48.032	0	92.00	0	7.4420	0	32.4680	0	25.366	0	91.207	0	263.4	4	89.0	4	-1E+10	1	-1E+10	1	-1E+10	1	-1E+10	1	-1E+10	1	-1E+10	1
4902551	86	C	12/30/2022	05:59	-131.370	48.032	0	92.90	0	7.3690	0	32.4740	0	25.381	0	92.099	0	263.1	4	88.7	4	-1E+10	1	-1E+10	1	-1E+10	1	-1E+10	1	-1E+10	1	-1E+10	1
4902551	86	C	12/30/2022	05:59	-131.370	48.032	0	93.90	0	7.2320	0	32.4870	0	25.410	0	93.091	0	262.4	4	88.2	4	-1E+10	1	-1E+10	1	-1E+10	1	-1E+10	1	-1E+10	1	-1E+10	1
4902551	86	C	12/30/2022	05:59	-131.370	48.032	0	95.10	0	7.1590	0	32.4950	0	25.426	0	94.280	0	261.6	4	87.8	4	-1E+10	1	-1E+10	1	-1E+10	1	-1E+10	1	-1E+10	1	-1E+10	1
4902551	86	C	12/30/2022	05:59	-131.370	48.032	0	96.00	0	7.1320	0	32.5010	0	25.434	0	95.172	0	260.9	4	87.5	4	-1E+10	1	-1E+10	1	-1E+10	1	-1E+10	1	-1E+10	1	-1E+10	1
4902551	86	C	12/30/2022	05:59	-131.370	48.032	0	96.70	0	7.0640	0	32.5090	0	25.450	0	95.866	0	260.6	4	87.3	4	-1E+10	1	-1E+10	1	-1E+10	1	-1E+10	1	-1E+10	1	-1E+10	1
4902551	86	C	12/30/2022	05:59	-131.370	48.032	0	98.10	0	7.0150	0	32.5190	0	25.464	0	97.253	0	259.7	4	86.9	4	-1E+10	1	-1E+10	1	-1E+10	1	-1E+10	1	-1E+10	1	-1E+10	1
4902551	86	C	12/30/2022	05:59	-131.370	48.032	0	99.10	0	6.9700	0	32.5330	0	25.481	0	98.245	0	259.2	4	86.7	4	-1E+10	1	-1E+10	1	-1E+10	1	-1E+10	1	-1E+10	1	-1E+10	1
4902551	86	C	12/30/2022	05:59	-131.370	48.032	0	100.00	0	6.9550	0	32.5370	0	25.486	0	99.137	0	258.6	4	86.5	4	-1E+10	1	-1E+10	1	-1E+10	1	-1E+10	1	-1E+10	1	-1E+10	1
4902551	86	C	12/30/2022	05:59	-131.370	48.032	0	100.70	0	6.9140	0	32.5490	0	25.501	0	99.830	0	258.2	4	86.2	4	-1E+10	1	-1E+10	1	-1E+10	1	-1E+10	1	-1E+10	1	-1E+10	1
4902551	86	C	12/30/2022	05:59	-131.370	48.032	0	101.80	0	6.8710	0	32.5670	0	25.521	0	100.921	0	257.6	4	86.0	4	-1E+10	1	-1E+10	1	-1E+10	1	-1E+10	1	-1E+10	1	-1E+10	1
4902551	86	C	12/30/2022	05:59	-131.370	48.032	0	102.90	0	6.8430	0	32.5780	0	25.533	0	102.011	0	257.0	4	85.7	4	-1E+10	1	-1E+10	1	-1E+10	1	-1E+10	1	-1E+10	1	-1E+10	1
4902551	86	C	12/30/2022	05:59	-131.370	48.032	0	104.00	0	6.8130	0	32.5910	0	25.548	0	103.101	0	256.4	4	85.5	4	-1E+10	1	-1E+10	1	-1E+10	1	-1E+10	1	-1E+10	1	-1E+10	1
4902551	86	C	12/30/2022	05:59	-131.370	48.032	0	105.10	0	6.7860	0	32.6020	0	25.560	0	104.191	0	255.5	4	85.1	4	-1E+10	1	-1E+10	1	-1E+10	1	-1E+10	1	-1E+10	1	-1E+10	1
4902551	86	C	12/30/2022	05:59	-131.370	48.032	0	106.00	0	6.7700	0	32.6100	0	25.568	0	105.083	0	254.8	4	84.9	4	-1E+10	1	-1E+10	1	-1E+10	1	-1E+10	1	-1E+10	1	-1E+10	1
4902551	86	C	12/30/2022	05:59	-131.370	48.032	0	106.80	0	6.7570	0	32.6170	0	25.576	0	105.876	0	254.2	4	84.6	4	-1E+10	1	-1E+10	1	-1E+10	1	-1E+10	1	-1E+10	1	-1E+10	1
4902551	86	C	12/30/2022	05:59	-131.370	48.032	0	107.80	0	6.7510	0	32.6190	0	25.578	0	106.867	0	253.2	4	84.3	4	-1E+10	1	-1E+10	1	-1E+10	1	-1E+10	1	-1E+10	1	-1E+10	1
4902551	86	C	12/30/2022	05:59	-131.370	48.032	0	108.80	0	6.7100	0	32.6380	0	25.598	0	107.858	0	252.3	4	84.0	4	-1E+10	1	-1E+10	1	-1E+10	1	-1E+10	1	-1E+10	1	-1E+10	1
4902551	86	C	12/30/2022	05:59	-131.370	48.032	0	109.80	0	6.6830	0	32.6540	0	25.614	0	108.849	0	251.5	4	83.6	4	-1E+10	1	-1E+10	1	-1E+10	1	-1E+10	1	-1E+10	1	-1E+10	1
4902551	86	C	12/30/2022	05:59	-131.370	48.032	0	110.80	0	6.6570	0	32.6710	0	25.631	0	109.840	0	250.5	4	83.3	4	-1E+10	1	-1E+10	1	-1E+10	1	-1E+10	1	-1E+10	1	-1E+10	1
4902551	86	C	12/30/2022	05:59	-131.370	48.032	0	111.90	0	6.6210	0	32.6870	0	25.648	0	110.931	0	249.2	4	82.8	4	-1E+10	1	-1E+10	1	-1E+10	1	-1E+10	1	-1E+10	1	-1E+10	1
4902551	86	C	12/30/2022	05:59	-131.370	48.032	0	113.20	0	6.5940	0	32.7050	0	25.666	0	112.219	0	247.6	4	82.2	4	-1E+10	1	-1E+10	1	-1E+10	1	-1E+10	1	-1E+10	1	-1E+10	1
4902551	86	C	12/30/2022	05:59	-131.370	48.032	0	113.90	0	6.5560	0	32.7290	0	25.690	0	112.913	0	246.6	4	81.8	4	-1E+10	1	-1E+10	1	-1E+10	1	-1E+10	1	-1E+10	1	-1E+10	1
4902551	86	C	12/30/2022	05:59	-131.370	48.032	0	115.10	0	6.5220	0	32.7610	0	25.720	0	114.102	0	245.0	4	81.2	4	-1E+10	1	-1E+10	1	-1E+10	1	-1E+10	1	-1E+10	1	-1E+10	1
4902551	86	C	12/30/2022	05:59	-131.370	48.032	0	115.90	0	6.5140	0	32.7700	0	25.728	0	114.895	0	243.5	4	80.7	4	-1E+10	1	-1E+10	1	-1E+10	1	-1E+10	1	-1E+10	1	-1E+10	1
4902551	86	C	12/30/2022	05:59	-131.370	48.032	0	117.10	0	6.5110	0	32.7760	0	25.733	0	116.084	0	240.4	4	79.7	4	-1E+10	1	-1E+10	1	-1E+10	1	-1E+10	1	-1E+10	1	-1E+10	1
4902551	86	C	12/30/2022	05:59	-131.370	48.032	0	118.00	0	6.5090	0	32.7800	0	25.736	0	116.976	0	237.6	4	78.8	4	-1E+10	1	-1E+10	1	-1E+10	1	-1E+10	1	-1E+10	1	-1E+10	1
4902551	86	C	12/30/2022	05:59	-131.370	48.032	0	119.10	0	6.4930	0	32.8120	0	25.764	0	118.066	0	234.8	4	77.8	4	-1E+10	1	-1E+10	1	-1E+10	1	-1E+10	1	-1E+10	1	-1E+10	1
4902551	86	C	12/30/2022	05:59	-131.370	48.032	0	119.70	0	6.4820	0	32.8290	0	25.778	0	118.661	0	233.2	4	77.3	4	-1E+10	1	-1E+10	1	-1E+10	1	-1E+10	1	-1E+10	1	-1E+10	1
4902551	86	C	12/30/2022	05:59	-131.370	48.032	0	120.70	0	6.4620	0	32.8730	0	25.816	0	119.652	0	230.6	4	76.4	4	-1E+10	1	-1E+10	1	-1E+10	1	-1E+10	1	-1E+10	1	-1E+10	1
4902551	86	C	12/30/2022	05:59	-131.370	48.032	0	121.90	0	6.4460	0	32.9060	0	25.844	0	120.841	0	228.1	4	75.6	4	-1E+10	1	-1E+10	1	-1E+10	1	-1E+10	1	-1E+10	1	-1E+10	1
4902551	86	C	12/30/2022	05:59	-131.370	48.032	0	123.10	0	6.4250	0	32.9520	0	25.883	0	122.030	0	225.9	4	74.8	4	-1E+10	1	-1E+10	1	-1E+10	1	-1E+10	1	-1E+10	1	-1E+10	1
4902551	86	C	12/30/2022	05:59	-131.370	48.032	0	124.00	0	6.4120	0	32.9880	0	25.913	0	122.922	0	224.2	4	74.3	4	-1E+10	1	-1E+10	1	-1E+10	1	-1E+10	1	-1E+10	1	-1E+10	1
4902551	86	C	12/30/2022	05:59	-131.370	48.032	0	125.00	0	6.3810	0	33.0420	0	25.959	0	123.913	0	222.5	4	73.7	4	-1E+10	1	-1E+10	1	-1E+10	1	-1E+10	1	-1E+10	1	-1E+10	1
4902551	86	C	12/30/2022	05:59	-131.370	48.032	0	126.10	0	6.3550	0	33.0840	0	25.996	0	125.003	0	221.3	4	73.3	4	-1E+10	1	-1E+10	1	-1E+10	1	-1E+10	1	-1E+10	1	-1E+10	1
4902551	86	C	12/30/2022	05:59	-131.370	48.032	0	126.80	0	6.3460	0	33.1070	0	26.015	0	125.697	0	220.8	4	73.1	4	-1E+10	1	-1E+10	1	-1E+10	1	-1E+10	1	-1E+10	1	-1E+10	1
4902551	86	C	12/30/2022	05:59	-131.370	48.032	0	127.90	0	6.3430	0	33.1190	0	26.025	0	126.787	0	220.0	4	72.8	4	-1E+10	1	-1E+10	1	-1E+10	1	-1E+10	1	-1E+10	1	-1E+10	1
4902551	86	C	12/30/2022	05:59	-131.370	48.032	0	129.00	0	6.3420	0	33.1240	0	26.029	0	127.877	0	219.1	4	72.5	4	-1E+10	1	-1E+10	1	-1E+10	1	-1E+10	1	-1E+10	1	-1E+10	1
4902551	86	C	12/30/2022	05:59	-131.370	48.032	0	129.80	0	6.3420	0	33.1250	0	26.030	0	128.670	0	218.4	4	72.3	4	-1E+10	1	-1E+10	1	-1E+10	1	-1E+10	1	-1E+10	1	-1E+10	1
4902551	86	C	12/30/2022	05:59	-131.370	48.032	0	130.80	0	6.3410	0	33.1310	0	26.035	0	129.661	0	217.4	4	72.0	4	-1E+10	1	-1E+10	1	-1E+10	1	-1E+10	1	-1E+10	1	-1E+10	1
4902551	86	C	12/30/2022	05:59	-131.370	48.032	0	131.90	0	6.3410	0	33.1320	0	26.036	0	130.751	0	216.1	4	71.6	4	-1E+10	1	-1E+10	1	-1E+10	1	-1E+10	1	-1E+10	1	-1E+10	1
4902551	86	C	12/30/2022	05:59	-131.370	48.032	0	132.90	0	6.3400	0	33.1360	0	26.039	0	131.742	0	214.7	4	71.1	4	-1E+10	1	-1E+10	1	-1E+10	1	-1E+10	1	-1E+10	1	-1E+10	1
4902551	86	C	12/30/2022	05:59	-131.370	48.032	0	134.00	0	6.3390	0	33.1410	0	26.043	0	132.832	0	212.9	4	70.5	4	-1E+10	1	-1E+10	1	-1E+10	1	-1E+10	1	-1E+10	1	-1E+10	1
4902551	86	C	12/30/2022	05:59	-131.370	48.032	0	134.90	0	6.3380	0	33.1520	0	26.052	0	133.724	0	211.0	4	69.9	4	-1E+10	1	-1E+10	1	-1E+10	1	-1E+10	1	-1E+10	1	-1E+10	1
4902551	86	C	12/30/2022	05:59	-131.370	48.032	0	136.00	0	6.3290	0	33.1700	0	26.067	0	134.814	0	209.4	4	69.3	4	-1E+10	1	-1E+10	1	-1E+10	1	-1E+10	1	-1E+10	1	-1E+10	1
4902551	86	C	12/30/2022	05:59	-131.370	48.032	0	137.00	0	6.3310	0	33.2060	0	26.095	0	135.805	0	207.7	4	68.8	4	-1E+10	1	-1E+10	1	-1E+10	1	-1E+10	1	-1E+10	1	-1E+10	1
4902551	86	C	12/30/2022	05:59	-131.370	48.032	0	138.10	0	6.3320	0	33.2210	0	26.107	0	136.895	0	205.6	4	68.1	4	-1E+10	1	-1E+10	1	-1E+10	1	-1E+10	1	-1E+10	1	-1E+10	1
4902551	86	C	12/30/2022	05:59	-131.370	48.032	0	138.90	0	6.3310	0	33.2620	0	26.139	0	137.688	0	204.1	4	67.6	4	-1E+10	1	-1E+10	1	-1E+10	1	-1E+10	1	-1E+10	1	-1E+10	1
4902551	86	C	12/30/2022	05:59	-131.370	48.032	0	139.90	0	6.3120	0	33.2970	0	26.170	0	138.679	0	202.5	4	67.1	4	-1E+10	1	-1E+10	1	-1E+10	1	-1E+10	1	-1E+10	1	-1E+10	1
4902551	86	C	12/30/2022	05:59	-131.370	48.032	0	141.00	0	6.3090	0	33.3040	0	26.175	0	139.769	0	200.8	4	66.5	4	-1E+10	1	-1E+10	1	-1E+10	1	-1E+10	1	-1E+10	1	-1E+10	1
4902551	86	C	12/30/2022	05:59	-131.370	48.032	0	142.00	0	6.3060	0	33.3070	0	26.178	0	140.760	0	198.9	4	65.9	4	-1E+10	1	-1E+10	1	-1E+10	1	-1E+10	1	-1E+10	1	-1E+10	1
4902551	86	C	12/30/2022	05:59	-131.370	48.032	0	143.10	0	6.2880	0	33.3520	0	26.216	0	141.850	0	197.0	4	65.3	4	-1E+10	1	-1E+10	1	-1E+10	1	-1E+10	1	-1E+10	1	-1E+10	1
4902551	86	C	12/30/2022	05:59	-131.370	48.032	0	143.80	0	6.2810	0	33.3700	0	26.231	0	142.543	0	196.1	4	65.0	4	-1E+10	1	-1E+10	1	-1E+10	1	-1E+10	1	-1E+10	1	-1E+10	1
4902551	86	C	12/30/2022	05:59	-131.370	48.032	0	144.80	0	6.2770	0	33.3800	0	26.240	0	143.534	0	194.4	4	64.4	4	-1E+10	1	-1E+10	1	-1E+10	1	-1E+10	1	-1E+10	1	-1E+10	1
4902551	86	C	12/30/2022	05:59	-131.370	48.032	0	145.90	0	6.2760	0	33.3840	0	26.243	0	144.624	0	192.5	4	63.8	4	-1E+10	1	-1E+10	1	-1E+10	1	-1E+10	1	-1E+10	1	-1E+10	1
4902551	86	C	12/30/2022	05:59	-131.370	48.032	0	147.00	0	6.2710	0	33.3960	0	26.253	0	145.714	0	190.6	4	63.1	4	-1E+10	1	-1E+10	1	-1E+10	1	-1E+10	1	-1E+10	1	-1E+10	1
4902551	86	C	12/30/2022	05:59	-131.370	48.032	0	148.20	0	6.2600	0	33.4210	0	26.274	0	146.903	0	188.5	4	62.4	4	-1E+10	1	-1E+10	1	-1E+10	1	-1E+10	1	-1E+10	1	-1E+10	1
4902551	86	C	12/30/2022	05:59	-131.370	48.032	0	149.00	0	6.2510	0	33.4300	0	26.282	0	147.696	0	187.2	4	62.0	4	-1E+10	1	-1E+10	1	-1E+10	1	-1E+10	1	-1E+10	1	-1E+10	1
4902551	86	C	12/30/2022	05:59	-131.370	48.032	0	149.70	0	6.2520	0	33.4340	0	26.285	0	148.390	0	185.8	4	61.5	4	-1E+10	1	-1E+10	1	-1E+10	1	-1E+10	1	-1E+10	1	-1E+10	1
4902551	86	C	12/30/2022	05:59	-131.370	48.032	0	151.00	0	6.2310	0	33.4600	0	26.309	0	149.678	0	183.7	4	60.8	4	-1E+10	1	-1E+10	1	-1E+10	1	-1E+10	1	-1E+10	1	-1E+10	1
4902551	86	C	12/30/2022	05:59	-131.370	48.032	0	152.20	0	6.1980	0	33.4930	0	26.339	0	150.867	0	181.7	4	60.1	4	-1E+10	1	-1E+10	1	-1E+10	1	-1E+10	1	-1E+10	1	-1E+10	1
4902551	86	C	12/30/2022	05:59	-131.370	48.032	0	153.10	0	6.1750	0	33.5160	0	26.360	0	151.759	0	180.7	4	59.8	4	-1E+10	1	-1E+10	1	-1E+10	1	-1E+10	1	-1E+10	1	-1E+10	1
4902551	86	C	12/30/2022	05:59	-131.370	48.032	0	153.90	0	6.1590	0	33.5340	0	26.376	0	152.551	0	179.8	4	59.4	4	-1E+10	1	-1E+10	1	-1E+10	1	-1E+10	1	-1E+10	1	-1E+10	1
4902551	86	C	12/30/2022	05:59	-131.370	48.032	0	154.80	0	6.1520	0	33.5410	0	26.383	0	153.443	0	178.8	4	59.1	4	-1E+10	1	-1E+10	1	-1E+10	1	-1E+10	1	-1E+10	1	-1E+10	1
4902551	86	C	12/30/2022	05:59	-131.370	48.032	0	155.70	0	6.1410	0	33.5550	0	26.395	0	154.335	0	177.9	4	58.8	4	-1E+10	1	-1E+10	1	-1E+10	1	-1E+10	1	-1E+10	1	-1E+10	1
4902551	86	C	12/30/2022	05:59	-131.370	48.032	0	157.00	0	6.1300	0	33.5690	0	26.407	0	155.623	0	176.5	4	58.3	4	-1E+10	1	-1E+10	1	-1E+10	1	-1E+10	1	-1E+10	1	-1E+10	1
4902551	86	C	12/30/2022	05:59	-131.370	48.032	0	158.30	0	6.1230	0	33.5810	0	26.418	0	156.911	0	174.9	4	57.8	4	-1E+10	1	-1E+10	1	-1E+10	1	-1E+10	1	-1E+10	1	-1E+10	1
4902551	86	C	12/30/2022	05:59	-131.370	48.032	0	159.20	0	6.1230	0	33.5810	0	26.418	0	157.803	0	173.8	4	57.4	4	-1E+10	1	-1E+10	1	-1E+10	1	-1E+10	1	-1E+10	1	-1E+10	1
4902551	86	C	12/30/2022	05:59	-131.370	48.032	0	160.10	0	6.1210	0	33.5830	0	26.420	0	158.695	0	172.5	4	57.0	4	-1E+10	1	-1E+10	1	-1E+10	1	-1E+10	1	-1E+10	1	-1E+10	1
4902551	86	C	12/30/2022	05:59	-131.370	48.032	0	161.00	0	6.1040	0	33.5940	0	26.431	0	159.586	0	171.3	4	56.6	4	-1E+10	1	-1E+10	1	-1E+10	1	-1E+10	1	-1E+10	1	-1E+10	1
4902551	86	C	12/30/2022	05:59	-131.370	48.032	0	161.90	0	6.0780	0	33.6080	0	26.445	0	160.478	0	169.9	4	56.1	4	-1E+10	1	-1E+10	1	-1E+10	1	-1E+10	1	-1E+10	1	-1E+10	1
4902551	86	C	12/30/2022	05:59	-131.370	48.032	0	162.90	0	6.0330	0	33.6260	0	26.465	0	161.469	0	168.6	4	55.6	4	-1E+10	1	-1E+10	1	-1E+10	1	-1E+10	1	-1E+10	1	-1E+10	1
4902551	86	C	12/30/2022	05:59	-131.370	48.032	0	163.90	0	6.0030	0	33.6330	0	26.474	0	162.460	0	167.7	4	55.3	4	-1E+10	1	-1E+10	1	-1E+10	1	-1E+10	1	-1E+10	1	-1E+10	1
4902551	86	C	12/30/2022	05:59	-131.370	48.032	0	164.90	0	5.9850	0	33.6400	0	26.482	0	163.450	0	166.9	4	55.0	4	-1E+10	1	-1E+10	1	-1E+10	1	-1E+10	1	-1E+10	1	-1E+10	1
4902551	86	C	12/30/2022	05:59	-131.370	48.032	0	165.90	0	5.9620	0	33.6490	0	26.492	0	164.441	0	166.2	4	54.8	4	-1E+10	1	-1E+10	1	-1E+10	1	-1E+10	1	-1E+10	1	-1E+10	1
4902551	86	C	12/30/2022	05:59	-131.370	48.032	0	166.90	0	5.9470	0	33.6550	0	26.498	0	165.432	0	165.7	4	54.6	4	-1E+10	1	-1E+10	1	-1E+10	1	-1E+10	1	-1E+10	1	-1E+10	1
4902551	86	C	12/30/2022	05:59	-131.370	48.032	0	167.90	0	5.9330	0	33.6590	0	26.503	0	166.423	0	165.2	4	54.4	4	-1E+10	1	-1E+10	1	-1E+10	1	-1E+10	1	-1E+10	1	-1E+10	1
4902551	86	C	12/30/2022	05:59	-131.370	48.032	0	169.00	0	5.9240	0	33.6600	0	26.505	0	167.513	0	164.6	4	54.2	4	-1E+10	1	-1E+10	1	-1E+10	1	-1E+10	1	-1E+10	1	-1E+10	1
4902551	86	C	12/30/2022	05:59	-131.370	48.032	0	170.00	0	5.9170	0	33.6590	0	26.505	0	168.504	0	164.0	4	54.0	4	-1E+10	1	-1E+10	1	-1E+10	1	-1E+10	1	-1E+10	1	-1E+10	1
4902551	86	C	12/30/2022	05:59	-131.370	48.032	0	171.00	0	5.9130	0	33.6600	0	26.507	0	169.494	0	163.4	4	53.8	4	-1E+10	1	-1E+10	1	-1E+10	1	-1E+10	1	-1E+10	1	-1E+10	1
4902551	86	C	12/30/2022	05:59	-131.370	48.032	0	172.10	0	5.9100	0	33.6600	0	26.507	0	170.584	0	162.6	4	53.5	4	-1E+10	1	-1E+10	1	-1E+10	1	-1E+10	1	-1E+10	1	-1E+10	1
4902551	86	C	12/30/2022	05:59	-131.370	48.032	0	173.10	0	5.8900	0	33.6650	0	26.513	0	171.575	0	161.8	4	53.2	4	-1E+10	1	-1E+10	1	-1E+10	1	-1E+10	1	-1E+10	1	-1E+10	1
4902551	86	C	12/30/2022	05:59	-131.370	48.032	0	174.10	0	5.8840	0	33.6660	0	26.515	0	172.566	0	161.0	4	53.0	4	-1E+10	1	-1E+10	1	-1E+10	1	-1E+10	1	-1E+10	1	-1E+10	1
4902551	86	C	12/30/2022	05:59	-131.370	48.032	0	175.20	0	5.8800	0	33.6680	0	26.517	0	173.656	0	160.2	4	52.7	4	-1E+10	1	-1E+10	1	-1E+10	1	-1E+10	1	-1E+10	1	-1E+10	1
4902551	86	C	12/30/2022	05:59	-131.370	48.032	0	176.20	0	5.8640	0	33.6720	0	26.522	0	174.646	0	159.3	4	52.4	4	-1E+10	1	-1E+10	1	-1E+10	1	-1E+10	1	-1E+10	1	-1E+10	1
4902551	86	C	12/30/2022	05:59	-131.370	48.032	0	177.30	0	5.8570	0	33.6740	0	26.525	0	175.736	0	158.4	4	52.1	4	-1E+10	1	-1E+10	1	-1E+10	1	-1E+10	1	-1E+10	1	-1E+10	1
4902551	86	C	12/30/2022	05:59	-131.370	48.032	0	178.30	0	5.8520	0	33.6750	0	26.526	0	176.727	0	157.5	4	51.8	4	-1E+10	1	-1E+10	1	-1E+10	1	-1E+10	1	-1E+10	1	-1E+10	1
4902551	86	C	12/30/2022	05:59	-131.370	48.032	0	179.30	0	5.8410	0	33.6770	0	26.529	0	177.718	0	156.3	4	51.4	4	-1E+10	1	-1E+10	1	-1E+10	1	-1E+10	1	-1E+10	1	-1E+10	1
4902551	86	C	12/30/2022	05:59	-131.370	48.032	0	180.40	0	5.8080	0	33.6840	0	26.539	0	178.808	0	155.4	4	51.0	4	-1E+10	1	-1E+10	1	-1E+10	1	-1E+10	1	-1E+10	1	-1E+10	1
4902551	86	C	12/30/2022	05:59	-131.370	48.032	0	181.40	0	5.8000	0	33.6870	0	26.542	0	179.798	0	154.5	4	50.7	4	-1E+10	1	-1E+10	1	-1E+10	1	-1E+10	1	-1E+10	1	-1E+10	1
4902551	86	C	12/30/2022	05:59	-131.370	48.032	0	182.40	0	5.7940	0	33.6890	0	26.544	0	180.789	0	153.6	4	50.4	4	-1E+10	1	-1E+10	1	-1E+10	1	-1E+10	1	-1E+10	1	-1E+10	1
4902551	86	C	12/30/2022	05:59	-131.370	48.032	0	183.40	0	5.7830	0	33.6920	0	26.548	0	181.780	0	152.8	4	50.1	4	-1E+10	1	-1E+10	1	-1E+10	1	-1E+10	1	-1E+10	1	-1E+10	1
4902551	86	C	12/30/2022	05:59	-131.370	48.032	0	184.90	0	5.7580	0	33.6940	0	26.553	0	183.266	0	151.1	4	49.6	4	-1E+10	1	-1E+10	1	-1E+10	1	-1E+10	1	-1E+10	1	-1E+10	1
4902551	86	C	12/30/2022	05:59	-131.370	48.032	0	186.20	0	5.7200	0	33.7020	0	26.564	0	184.554	0	149.8	4	49.1	4	-1E+10	1	-1E+10	1	-1E+10	1	-1E+10	1	-1E+10	1	-1E+10	1
4902551	86	C	12/30/2022	05:59	-131.370	48.032	0	187.00	0	5.6750	0	33.7070	0	26.573	0	185.346	0	149.2	4	48.8	4	-1E+10	1	-1E+10	1	-1E+10	1	-1E+10	1	-1E+10	1	-1E+10	1
4902551	86	C	12/30/2022	05:59	-131.370	48.032	0	187.80	0	5.6580	0	33.7100	0	26.577	0	186.139	0	148.6	4	48.6	4	-1E+10	1	-1E+10	1	-1E+10	1	-1E+10	1	-1E+10	1	-1E+10	1
4902551	86	C	12/30/2022	05:59	-131.370	48.032	0	188.60	0	5.6520	0	33.7100	0	26.578	0	186.931	0	148.0	4	48.4	4	-1E+10	1	-1E+10	1	-1E+10	1	-1E+10	1	-1E+10	1	-1E+10	1
4902551	86	C	12/30/2022	05:59	-131.370	48.032	0	189.90	0	5.6400	0	33.7100	0	26.580	0	188.219	0	147.0	4	48.1	4	-1E+10	1	-1E+10	1	-1E+10	1	-1E+10	1	-1E+10	1	-1E+10	1
4902551	86	C	12/30/2022	05:59	-131.370	48.032	0	191.10	0	5.6040	0	33.7170	0	26.589	0	189.408	0	146.1	4	47.8	4	-1E+10	1	-1E+10	1	-1E+10	1	-1E+10	1	-1E+10	1	-1E+10	1
4902551	86	C	12/30/2022	05:59	-131.370	48.032	0	191.90	0	5.5950	0	33.7170	0	26.591	0	190.201	0	145.6	4	47.6	4	-1E+10	1	-1E+10	1	-1E+10	1	-1E+10	1	-1E+10	1	-1E+10	1
4902551	86	C	12/30/2022	05:59	-131.370	48.032	0	192.70	0	5.5860	0	33.7190	0	26.593	0	190.993	0	145.0	4	47.4	4	-1E+10	1	-1E+10	1	-1E+10	1	-1E+10	1	-1E+10	1	-1E+10	1
4902551	86	C	12/30/2022	05:59	-131.370	48.032	0	193.90	0	5.5760	0	33.7210	0	26.596	0	192.182	0	144.2	4	47.1	4	-1E+10	1	-1E+10	1	-1E+10	1	-1E+10	1	-1E+10	1	-1E+10	1
4902551	86	C	12/30/2022	05:59	-131.370	48.032	0	195.10	0	5.5740	0	33.7230	0	26.598	0	193.371	0	143.2	4	46.8	4	-1E+10	1	-1E+10	1	-1E+10	1	-1E+10	1	-1E+10	1	-1E+10	1
4902551	86	C	12/30/2022	05:59	-131.370	48.032	0	196.00	0	5.5330	0	33.7230	0	26.603	0	194.262	0	142.8	4	46.6	4	-1E+10	1	-1E+10	1	-1E+10	1	-1E+10	1	-1E+10	1	-1E+10	1
4902551	86	C	12/30/2022	05:59	-131.370	48.032	0	196.80	0	5.5290	0	33.7240	0	26.604	0	195.055	0	142.2	4	46.4	4	-1E+10	1	-1E+10	1	-1E+10	1	-1E+10	1	-1E+10	1	-1E+10	1
4902551	86	C	12/30/2022	05:59	-131.370	48.032	0	198.00	0	5.5140	0	33.7240	0	26.606	0	196.244	0	141.4	4	46.1	4	-1E+10	1	-1E+10	1	-1E+10	1	-1E+10	1	-1E+10	1	-1E+10	1
4902551	86	C	12/30/2022	05:59	-131.370	48.032	0	199.30	0	5.4930	0	33.7250	0	26.609	0	197.532	0	140.6	4	45.9	4	-1E+10	1	-1E+10	1	-1E+10	1	-1E+10	1	-1E+10	1	-1E+10	1
4902551	86	C	12/30/2022	05:59	-131.370	48.032	0	200.10	0	5.4810	0	33.7270	0	26.612	0	198.324	0	140.0	4	45.6	4	-1E+10	1	-1E+10	1	-1E+10	1	-1E+10	1	-1E+10	1	-1E+10	1
4902551	86	C	12/30/2022	05:59	-131.370	48.032	0	200.90	0	5.4760	0	33.7260	0	26.612	0	199.117	0	139.5	4	45.5	4	-1E+10	1	-1E+10	1	-1E+10	1	-1E+10	1	-1E+10	1	-1E+10	1
4902551	86	C	12/30/2022	05:59	-131.370	48.032	0	201.80	0	5.4520	0	33.7320	0	26.620	0	200.008	0	138.9	4	45.3	4	-1E+10	1	-1E+10	1	-1E+10	1	-1E+10	1	-1E+10	1	-1E+10	1
4902551	86	C	12/30/2022	05:59	-131.370	48.032	0	203.00	0	5.4310	0	33.7290	0	26.620	0	201.197	0	138.2	4	45.0	4	-1E+10	1	-1E+10	1	-1E+10	1	-1E+10	1	-1E+10	1	-1E+10	1
4902551	86	C	12/30/2022	05:59	-131.370	48.032	0	204.30	0	5.4300	0	33.7300	0	26.621	0	202.485	0	137.3	4	44.7	4	-1E+10	1	-1E+10	1	-1E+10	1	-1E+10	1	-1E+10	1	-1E+10	1
4902551	86	C	12/30/2022	05:59	-131.370	48.032	0	205.10	0	5.4250	0	33.7290	0	26.620	0	203.277	0	136.6	4	44.5	4	-1E+10	1	-1E+10	1	-1E+10	1	-1E+10	1	-1E+10	1	-1E+10	1
4902551	86	C	12/30/2022	05:59	-131.370	48.032	0	206.00	0	5.4200	0	33.7290	0	26.621	0	204.169	0	135.9	4	44.2	4	-1E+10	1	-1E+10	1	-1E+10	1	-1E+10	1	-1E+10	1	-1E+10	1
4902551	86	C	12/30/2022	05:59	-131.370	48.032	0	206.80	0	5.4070	0	33.7300	0	26.623	0	204.961	0	135.3	4	44.0	4	-1E+10	1	-1E+10	1	-1E+10	1	-1E+10	1	-1E+10	1	-1E+10	1
4902551	86	C	12/30/2022	05:59	-131.370	48.032	0	207.70	0	5.3900	0	33.7330	0	26.628	0	205.853	0	134.6	4	43.8	4	-1E+10	1	-1E+10	1	-1E+10	1	-1E+10	1	-1E+10	1	-1E+10	1
4902551	86	C	12/30/2022	05:59	-131.370	48.032	0	208.90	0	5.3790	0	33.7340	0	26.630	0	207.042	0	133.6	4	43.4	4	-1E+10	1	-1E+10	1	-1E+10	1	-1E+10	1	-1E+10	1	-1E+10	1
4902551	86	C	12/30/2022	05:59	-131.370	48.032	0	210.30	0	5.3600	0	33.7390	0	26.636	0	208.428	0	132.7	4	43.1	4	-1E+10	1	-1E+10	1	-1E+10	1	-1E+10	1	-1E+10	1	-1E+10	1
4902551	86	C	12/30/2022	05:59	-131.370	48.032	0	211.10	0	5.3710	0	33.7410	0	26.636	0	209.221	0	132.1	4	42.9	4	-1E+10	1	-1E+10	1	-1E+10	1	-1E+10	1	-1E+10	1	-1E+10	1
4902551	86	C	12/30/2022	05:59	-131.370	48.032	0	212.00	0	5.3700	0	33.7430	0	26.638	0	210.113	0	131.5	4	42.8	4	-1E+10	1	-1E+10	1	-1E+10	1	-1E+10	1	-1E+10	1	-1E+10	1
4902551	86	C	12/30/2022	05:59	-131.370	48.032	0	212.90	0	5.3630	0	33.7460	0	26.641	0	211.004	0	131.0	4	42.6	4	-1E+10	1	-1E+10	1	-1E+10	1	-1E+10	1	-1E+10	1	-1E+10	1
4902551	86	C	12/30/2022	05:59	-131.370	48.032	0	213.80	0	5.3620	0	33.7460	0	26.641	0	211.896	0	130.5	4	42.4	4	-1E+10	1	-1E+10	1	-1E+10	1	-1E+10	1	-1E+10	1	-1E+10	1
4902551	86	C	12/30/2022	05:59	-131.370	48.032	0	214.60	0	5.3570	0	33.7490	0	26.644	0	212.688	0	130.0	4	42.2	4	-1E+10	1	-1E+10	1	-1E+10	1	-1E+10	1	-1E+10	1	-1E+10	1
4902551	86	C	12/30/2022	05:59	-131.370	48.032	0	215.90	0	5.3450	0	33.7490	0	26.646	0	213.976	0	129.2	4	42.0	4	-1E+10	1	-1E+10	1	-1E+10	1	-1E+10	1	-1E+10	1	-1E+10	1
4902551	86	C	12/30/2022	05:59	-131.370	48.032	0	217.30	0	5.3430	0	33.7490	0	26.646	0	215.363	0	128.2	4	41.7	4	-1E+10	1	-1E+10	1	-1E+10	1	-1E+10	1	-1E+10	1	-1E+10	1
4902551	86	C	12/30/2022	05:59	-131.370	48.032	0	218.20	0	5.3380	0	33.7490	0	26.647	0	216.254	0	127.5	4	41.4	4	-1E+10	1	-1E+10	1	-1E+10	1	-1E+10	1	-1E+10	1	-1E+10	1
4902551	86	C	12/30/2022	05:59	-131.370	48.032	0	219.10	0	5.3330	0	33.7500	0	26.648	0	217.146	0	126.9	4	41.2	4	-1E+10	1	-1E+10	1	-1E+10	1	-1E+10	1	-1E+10	1	-1E+10	1
4902551	86	C	12/30/2022	05:59	-131.370	48.032	0	220.00	0	5.3250	0	33.7510	0	26.650	0	218.037	0	126.1	4	41.0	4	-1E+10	1	-1E+10	1	-1E+10	1	-1E+10	1	-1E+10	1	-1E+10	1
4902551	86	C	12/30/2022	05:59	-131.370	48.032	0	220.90	0	5.3160	0	33.7480	0	26.648	0	218.929	0	125.4	4	40.7	4	-1E+10	1	-1E+10	1	-1E+10	1	-1E+10	1	-1E+10	1	-1E+10	1
4902551	86	C	12/30/2022	05:59	-131.370	48.032	0	221.80	0	5.2840	0	33.7520	0	26.655	0	219.820	0	124.7	4	40.5	4	-1E+10	1	-1E+10	1	-1E+10	1	-1E+10	1	-1E+10	1	-1E+10	1
4902551	86	C	12/30/2022	05:59	-131.370	48.032	0	222.70	0	5.2540	0	33.7540	0	26.660	0	220.712	0	123.8	4	40.2	4	-1E+10	1	-1E+10	1	-1E+10	1	-1E+10	1	-1E+10	1	-1E+10	1
4902551	86	C	12/30/2022	05:59	-131.370	48.032	0	223.60	0	5.2590	0	33.7470	0	26.654	0	221.603	0	123.0	4	39.9	4	-1E+10	1	-1E+10	1	-1E+10	1	-1E+10	1	-1E+10	1	-1E+10	1
4902551	86	C	12/30/2022	05:59	-131.370	48.032	0	224.90	0	5.2560	0	33.7530	0	26.659	0	222.891	0	121.7	4	39.5	4	-1E+10	1	-1E+10	1	-1E+10	1	-1E+10	1	-1E+10	1	-1E+10	1
4902551	86	C	12/30/2022	05:59	-131.370	48.032	0	226.40	0	5.1980	0	33.7570	0	26.669	0	224.376	0	120.6	4	39.1	4	-1E+10	1	-1E+10	1	-1E+10	1	-1E+10	1	-1E+10	1	-1E+10	1
4902551	86	C	12/30/2022	05:59	-131.370	48.032	0	227.30	0	5.1850	0	33.7570	0	26.671	0	225.268	0	120.0	4	38.9	4	-1E+10	1	-1E+10	1	-1E+10	1	-1E+10	1	-1E+10	1	-1E+10	1
4902551	86	C	12/30/2022	05:59	-131.370	48.032	0	228.20	0	5.1740	0	33.7570	0	26.672	0	226.159	0	119.3	4	38.6	4	-1E+10	1	-1E+10	1	-1E+10	1	-1E+10	1	-1E+10	1	-1E+10	1
4902551	86	C	12/30/2022	05:59	-131.370	48.032	0	229.10	0	5.1670	0	33.7580	0	26.674	0	227.051	0	118.6	4	38.4	4	-1E+10	1	-1E+10	1	-1E+10	1	-1E+10	1	-1E+10	1	-1E+10	1
4902551	86	C	12/30/2022	05:59	-131.370	48.032	0	230.10	0	5.1570	0	33.7570	0	26.674	0	228.041	0	117.8	4	38.1	4	-1E+10	1	-1E+10	1	-1E+10	1	-1E+10	1	-1E+10	1	-1E+10	1
4902551	86	C	12/30/2022	05:59	-131.370	48.032	0	231.00	0	5.1310	0	33.7620	0	26.681	0	228.933	0	117.1	4	37.9	4	-1E+10	1	-1E+10	1	-1E+10	1	-1E+10	1	-1E+10	1	-1E+10	1
4902551	86	C	12/30/2022	05:59	-131.370	48.032	0	231.90	0	5.1110	0	33.7660	0	26.686	0	229.824	0	116.7	4	37.7	4	-1E+10	1	-1E+10	1	-1E+10	1	-1E+10	1	-1E+10	1	-1E+10	1
4902551	86	C	12/30/2022	05:59	-131.370	48.032	0	232.90	0	5.1080	0	33.7660	0	26.687	0	230.815	0	116.2	4	37.6	4	-1E+10	1	-1E+10	1	-1E+10	1	-1E+10	1	-1E+10	1	-1E+10	1
4902551	86	C	12/30/2022	05:59	-131.370	48.032	0	233.80	0	5.1060	0	33.7670	0	26.688	0	231.706	0	115.7	4	37.4	4	-1E+10	1	-1E+10	1	-1E+10	1	-1E+10	1	-1E+10	1	-1E+10	1
4902551	86	C	12/30/2022	05:59	-131.370	48.032	0	234.80	0	5.1040	0	33.7670	0	26.688	0	232.697	0	115.2	4	37.2	4	-1E+10	1	-1E+10	1	-1E+10	1	-1E+10	1	-1E+10	1	-1E+10	1
4902551	86	C	12/30/2022	05:59	-131.370	48.032	0	235.70	0	5.0990	0	33.7670	0	26.689	0	233.588	0	114.7	4	37.1	4	-1E+10	1	-1E+10	1	-1E+10	1	-1E+10	1	-1E+10	1	-1E+10	1
4902551	86	C	12/30/2022	05:59	-131.370	48.032	0	236.60	0	5.0940	0	33.7680	0	26.690	0	234.480	0	114.1	4	36.9	4	-1E+10	1	-1E+10	1	-1E+10	1	-1E+10	1	-1E+10	1	-1E+10	1
4902551	86	C	12/30/2022	05:59	-131.370	48.032	0	237.60	0	5.0850	0	33.7680	0	26.691	0	235.470	0	113.5	4	36.7	4	-1E+10	1	-1E+10	1	-1E+10	1	-1E+10	1	-1E+10	1	-1E+10	1
4902551	86	C	12/30/2022	05:59	-131.370	48.032	0	238.50	0	5.0830	0	33.7700	0	26.693	0	236.361	0	112.8	4	36.4	4	-1E+10	1	-1E+10	1	-1E+10	1	-1E+10	1	-1E+10	1	-1E+10	1
4902551	86	C	12/30/2022	05:59	-131.370	48.032	0	239.90	0	5.0740	0	33.7700	0	26.694	0	237.748	0	111.8	4	36.1	4	-1E+10	1	-1E+10	1	-1E+10	1	-1E+10	1	-1E+10	1	-1E+10	1
4902551	86	C	12/30/2022	05:59	-131.370	48.032	0	241.30	0	5.0680	0	33.7700	0	26.695	0	239.135	0	110.6	4	35.7	4	-1E+10	1	-1E+10	1	-1E+10	1	-1E+10	1	-1E+10	1	-1E+10	1
4902551	86	C	12/30/2022	05:59	-131.370	48.032	0	242.30	0	5.0580	0	33.7700	0	26.696	0	240.125	0	109.8	4	35.4	4	-1E+10	1	-1E+10	1	-1E+10	1	-1E+10	1	-1E+10	1	-1E+10	1
4902551	86	C	12/30/2022	05:59	-131.370	48.032	0	243.20	0	5.0240	0	33.7720	0	26.701	0	241.017	0	109.1	4	35.2	4	-1E+10	1	-1E+10	1	-1E+10	1	-1E+10	1	-1E+10	1	-1E+10	1
4902551	86	C	12/30/2022	05:59	-131.370	48.032	0	244.20	0	5.0030	0	33.7740	0	26.705	0	242.007	0	108.4	4	35.0	4	-1E+10	1	-1E+10	1	-1E+10	1	-1E+10	1	-1E+10	1	-1E+10	1
4902551	86	C	12/30/2022	05:59	-131.370	48.032	0	245.10	0	4.9830	0	33.7730	0	26.707	0	242.898	0	107.7	4	34.7	4	-1E+10	1	-1E+10	1	-1E+10	1	-1E+10	1	-1E+10	1	-1E+10	1
4902551	86	C	12/30/2022	05:59	-131.370	48.032	0	246.10	0	4.9690	0	33.7740	0	26.709	0	243.889	0	107.0	4	34.5	4	-1E+10	1	-1E+10	1	-1E+10	1	-1E+10	1	-1E+10	1	-1E+10	1
4902551	86	C	12/30/2022	05:59	-131.370	48.032	0	247.00	0	4.9570	0	33.7740	0	26.710	0	244.780	0	106.2	4	34.2	4	-1E+10	1	-1E+10	1	-1E+10	1	-1E+10	1	-1E+10	1	-1E+10	1
4902551	86	C	12/30/2022	05:59	-131.370	48.032	0	248.00	0	4.9390	0	33.7750	0	26.713	0	245.771	0	105.6	4	34.0	4	-1E+10	1	-1E+10	1	-1E+10	1	-1E+10	1	-1E+10	1	-1E+10	1
4902551	86	C	12/30/2022	05:59	-131.370	48.032	0	248.90	0	4.9200	0	33.7770	0	26.717	0	246.662	0	105.0	4	33.8	4	-1E+10	1	-1E+10	1	-1E+10	1	-1E+10	1	-1E+10	1	-1E+10	1
4902551	86	C	12/30/2022	05:59	-131.370	48.032	0	249.90	0	4.9140	0	33.7780	0	26.718	0	247.652	0	104.2	4	33.5	4	-1E+10	1	-1E+10	1	-1E+10	1	-1E+10	1	-1E+10	1	-1E+10	1
4902551	86	C	12/30/2022	05:59	-131.370	48.032	0	250.90	0	4.9120	0	33.7770	0	26.718	0	248.643	0	103.5	4	33.3	4	-1E+10	1	-1E+10	1	-1E+10	1	-1E+10	1	-1E+10	1	-1E+10	1
4902551	86	C	12/30/2022	05:59	-131.370	48.032	0	251.80	0	4.9000	0	33.7800	0	26.722	0	249.534	0	102.6	4	33.0	4	-1E+10	1	-1E+10	1	-1E+10	1	-1E+10	1	-1E+10	1	-1E+10	1
4902551	86	C	12/30/2022	05:59	-131.370	48.032	0	252.80	0	4.8880	0	33.7800	0	26.723	0	250.525	0	101.9	4	32.8	4	-1E+10	1	-1E+10	1	-1E+10	1	-1E+10	1	-1E+10	1	-1E+10	1
4902551	86	C	12/30/2022	05:59	-131.370	48.032	0	253.80	0	4.8830	0	33.7820	0	26.725	0	251.515	0	101.1	4	32.5	4	-1E+10	1	-1E+10	1	-1E+10	1	-1E+10	1	-1E+10	1	-1E+10	1
4902551	86	C	12/30/2022	05:59	-131.370	48.032	0	254.70	0	4.8760	0	33.7840	0	26.727	0	252.406	0	100.4	4	32.3	4	-1E+10	1	-1E+10	1	-1E+10	1	-1E+10	1	-1E+10	1	-1E+10	1
4902551	86	C	12/30/2022	05:59	-131.370	48.032	0	255.70	0	4.8670	0	33.7860	0	26.730	0	253.397	0	99.7	4	32.0	4	-1E+10	1	-1E+10	1	-1E+10	1	-1E+10	1	-1E+10	1	-1E+10	1
4902551	86	C	12/30/2022	05:59	-131.370	48.032	0	256.60	0	4.8590	0	33.7870	0	26.732	0	254.288	0	99.0	4	31.8	4	-1E+10	1	-1E+10	1	-1E+10	1	-1E+10	1	-1E+10	1	-1E+10	1
4902551	86	C	12/30/2022	05:59	-131.370	48.032	0	257.60	0	4.8530	0	33.7890	0	26.734	0	255.278	0	98.2	4	31.6	4	-1E+10	1	-1E+10	1	-1E+10	1	-1E+10	1	-1E+10	1	-1E+10	1
4902551	86	C	12/30/2022	05:59	-131.370	48.032	0	258.50	0	4.8470	0	33.7900	0	26.736	0	256.170	0	97.5	4	31.3	4	-1E+10	1	-1E+10	1	-1E+10	1	-1E+10	1	-1E+10	1	-1E+10	1
4902551	86	C	12/30/2022	05:59	-131.370	48.032	0	259.90	0	4.8300	0	33.7940	0	26.741	0	257.556	0	96.4	4	31.0	4	-1E+10	1	-1E+10	1	-1E+10	1	-1E+10	1	-1E+10	1	-1E+10	1
4902551	86	C	12/30/2022	05:59	-131.370	48.032	0	261.40	0	4.8210	0	33.7960	0	26.743	0	259.042	0	95.4	4	30.6	4	-1E+10	1	-1E+10	1	-1E+10	1	-1E+10	1	-1E+10	1	-1E+10	1
4902551	86	C	12/30/2022	05:59	-131.370	48.032	0	262.30	0	4.8150	0	33.7970	0	26.745	0	259.933	0	94.7	4	30.4	4	-1E+10	1	-1E+10	1	-1E+10	1	-1E+10	1	-1E+10	1	-1E+10	1
4902551	86	C	12/30/2022	05:59	-131.370	48.032	0	263.30	0	4.8080	0	33.7980	0	26.746	0	260.923	0	94.0	4	30.2	4	-1E+10	1	-1E+10	1	-1E+10	1	-1E+10	1	-1E+10	1	-1E+10	1
4902551	86	C	12/30/2022	05:59	-131.370	48.032	0	264.20	0	4.7930	0	33.8020	0	26.751	0	261.815	0	93.3	4	29.9	4	-1E+10	1	-1E+10	1	-1E+10	1	-1E+10	1	-1E+10	1	-1E+10	1
4902551	86	C	12/30/2022	05:59	-131.370	48.032	0	265.20	0	4.7690	0	33.8050	0	26.756	0	262.805	0	92.7	4	29.7	4	-1E+10	1	-1E+10	1	-1E+10	1	-1E+10	1	-1E+10	1	-1E+10	1
4902551	86	C	12/30/2022	05:59	-131.370	48.032	0	266.20	0	4.7530	0	33.8070	0	26.759	0	263.795	0	92.2	4	29.6	4	-1E+10	1	-1E+10	1	-1E+10	1	-1E+10	1	-1E+10	1	-1E+10	1
4902551	86	C	12/30/2022	05:59	-131.370	48.032	0	267.20	0	4.7460	0	33.8090	0	26.762	0	264.786	0	91.8	4	29.4	4	-1E+10	1	-1E+10	1	-1E+10	1	-1E+10	1	-1E+10	1	-1E+10	1
4902551	86	C	12/30/2022	05:59	-131.370	48.032	0	268.10	0	4.7430	0	33.8090	0	26.762	0	265.677	0	91.4	4	29.3	4	-1E+10	1	-1E+10	1	-1E+10	1	-1E+10	1	-1E+10	1	-1E+10	1
4902551	86	C	12/30/2022	05:59	-131.370	48.032	0	269.10	0	4.7410	0	33.8100	0	26.763	0	266.667	0	90.9	4	29.1	4	-1E+10	1	-1E+10	1	-1E+10	1	-1E+10	1	-1E+10	1	-1E+10	1
4902551	86	C	12/30/2022	05:59	-131.370	48.032	0	270.10	0	4.7380	0	33.8100	0	26.764	0	267.658	0	90.4	4	29.0	4	-1E+10	1	-1E+10	1	-1E+10	1	-1E+10	1	-1E+10	1	-1E+10	1
4902551	86	C	12/30/2022	05:59	-131.370	48.032	0	271.00	0	4.7350	0	33.8110	0	26.765	0	268.549	0	89.9	4	28.8	4	-1E+10	1	-1E+10	1	-1E+10	1	-1E+10	1	-1E+10	1	-1E+10	1
4902551	86	C	12/30/2022	05:59	-131.370	48.032	0	272.00	0	4.7320	0	33.8110	0	26.765	0	269.539	0	89.4	4	28.6	4	-1E+10	1	-1E+10	1	-1E+10	1	-1E+10	1	-1E+10	1	-1E+10	1
4902551	86	C	12/30/2022	05:59	-131.370	48.032	0	272.90	0	4.7220	0	33.8130	0	26.768	0	270.430	0	88.9	4	28.5	4	-1E+10	1	-1E+10	1	-1E+10	1	-1E+10	1	-1E+10	1	-1E+10	1
4902551	86	C	12/30/2022	05:59	-131.370	48.032	0	273.80	0	4.7110	0	33.8150	0	26.771	0	271.322	0	88.5	4	28.3	4	-1E+10	1	-1E+10	1	-1E+10	1	-1E+10	1	-1E+10	1	-1E+10	1
4902551	86	C	12/30/2022	05:59	-131.370	48.032	0	274.80	0	4.7050	0	33.8160	0	26.772	0	272.312	0	88.1	4	28.2	4	-1E+10	1	-1E+10	1	-1E+10	1	-1E+10	1	-1E+10	1	-1E+10	1
4902551	86	C	12/30/2022	05:59	-131.370	48.032	0	275.80	0	4.6980	0	33.8180	0	26.774	0	273.302	0	87.6	4	28.1	4	-1E+10	1	-1E+10	1	-1E+10	1	-1E+10	1	-1E+10	1	-1E+10	1
4902551	86	C	12/30/2022	05:59	-131.370	48.032	0	276.70	0	4.6920	0	33.8200	0	26.777	0	274.194	0	87.2	4	27.9	4	-1E+10	1	-1E+10	1	-1E+10	1	-1E+10	1	-1E+10	1	-1E+10	1
4902551	86	C	12/30/2022	05:59	-131.370	48.032	0	277.70	0	4.6900	0	33.8200	0	26.777	0	275.184	0	86.8	4	27.8	4	-1E+10	1	-1E+10	1	-1E+10	1	-1E+10	1	-1E+10	1	-1E+10	1
4902551	86	C	12/30/2022	05:59	-131.370	48.032	0	278.70	0	4.6860	0	33.8210	0	26.778	0	276.174	0	86.4	4	27.7	4	-1E+10	1	-1E+10	1	-1E+10	1	-1E+10	1	-1E+10	1	-1E+10	1
4902551	86	C	12/30/2022	05:59	-131.370	48.032	0	279.60	0	4.6780	0	33.8230	0	26.781	0	277.065	0	86.1	4	27.5	4	-1E+10	1	-1E+10	1	-1E+10	1	-1E+10	1	-1E+10	1	-1E+10	1
4902551	86	C	12/30/2022	05:59	-131.370	48.032	0	280.60	0	4.6670	0	33.8250	0	26.783	0	278.056	0	85.7	4	27.4	4	-1E+10	1	-1E+10	1	-1E+10	1	-1E+10	1	-1E+10	1	-1E+10	1
4902551	86	C	12/30/2022	05:59	-131.370	48.032	0	281.60	0	4.6640	0	33.8250	0	26.784	0	279.046	0	85.4	4	27.3	4	-1E+10	1	-1E+10	1	-1E+10	1	-1E+10	1	-1E+10	1	-1E+10	1
4902551	86	C	12/30/2022	05:59	-131.370	48.032	0	282.60	0	4.6660	0	33.8260	0	26.784	0	280.036	0	85.0	4	27.2	4	-1E+10	1	-1E+10	1	-1E+10	1	-1E+10	1	-1E+10	1	-1E+10	1
4902551	86	C	12/30/2022	05:59	-131.370	48.032	0	283.60	0	4.6580	0	33.8290	0	26.788	0	281.026	0	84.6	4	27.1	4	-1E+10	1	-1E+10	1	-1E+10	1	-1E+10	1	-1E+10	1	-1E+10	1
4902551	86	C	12/30/2022	05:59	-131.370	48.032	0	284.60	0	4.6560	0	33.8290	0	26.788	0	282.017	0	84.3	4	27.0	4	-1E+10	1	-1E+10	1	-1E+10	1	-1E+10	1	-1E+10	1	-1E+10	1
4902551	86	C	12/30/2022	05:59	-131.370	48.032	0	285.60	0	4.6550	0	33.8320	0	26.790	0	283.007	0	84.0	4	26.9	4	-1E+10	1	-1E+10	1	-1E+10	1	-1E+10	1	-1E+10	1	-1E+10	1
4902551	86	C	12/30/2022	05:59	-131.370	48.032	0	286.60	0	4.6540	0	33.8320	0	26.790	0	283.997	0	83.7	4	26.8	4	-1E+10	1	-1E+10	1	-1E+10	1	-1E+10	1	-1E+10	1	-1E+10	1
4902551	86	C	12/30/2022	05:59	-131.370	48.032	0	287.60	0	4.6530	0	33.8330	0	26.791	0	284.987	0	83.4	4	26.7	4	-1E+10	1	-1E+10	1	-1E+10	1	-1E+10	1	-1E+10	1	-1E+10	1
4902551	86	C	12/30/2022	05:59	-131.370	48.032	0	288.60	0	4.6510	0	33.8330	0	26.791	0	285.978	0	83.0	4	26.6	4	-1E+10	1	-1E+10	1	-1E+10	1	-1E+10	1	-1E+10	1	-1E+10	1
4902551	86	C	12/30/2022	05:59	-131.370	48.032	0	289.60	0	4.6500	0	33.8330	0	26.792	0	286.968	0	82.6	4	26.4	4	-1E+10	1	-1E+10	1	-1E+10	1	-1E+10	1	-1E+10	1	-1E+10	1
4902551	86	C	12/30/2022	05:59	-131.370	48.032	0	290.60	0	4.6480	0	33.8340	0	26.793	0	287.958	0	82.2	4	26.3	4	-1E+10	1	-1E+10	1	-1E+10	1	-1E+10	1	-1E+10	1	-1E+10	1
4902551	86	C	12/30/2022	05:59	-131.370	48.032	0	291.60	0	4.6450	0	33.8340	0	26.793	0	288.948	0	81.7	4	26.1	4	-1E+10	1	-1E+10	1	-1E+10	1	-1E+10	1	-1E+10	1	-1E+10	1
4902551	86	C	12/30/2022	05:59	-131.370	48.032	0	292.60	0	4.6370	0	33.8360	0	26.795	0	289.938	0	81.3	4	26.0	4	-1E+10	1	-1E+10	1	-1E+10	1	-1E+10	1	-1E+10	1	-1E+10	1
4902551	86	C	12/30/2022	05:59	-131.370	48.032	0	293.60	0	4.6280	0	33.8370	0	26.797	0	290.929	0	80.9	4	25.9	4	-1E+10	1	-1E+10	1	-1E+10	1	-1E+10	1	-1E+10	1	-1E+10	1
4902551	86	C	12/30/2022	05:59	-131.370	48.032	0	294.60	0	4.6170	0	33.8380	0	26.799	0	291.919	0	80.5	4	25.7	4	-1E+10	1	-1E+10	1	-1E+10	1	-1E+10	1	-1E+10	1	-1E+10	1
4902551	86	C	12/30/2022	05:59	-131.370	48.032	0	295.60	0	4.6150	0	33.8390	0	26.800	0	292.909	0	80.1	4	25.6	4	-1E+10	1	-1E+10	1	-1E+10	1	-1E+10	1	-1E+10	1	-1E+10	1
4902551	86	C	12/30/2022	05:59	-131.370	48.032	0	296.60	0	4.6120	0	33.8390	0	26.801	0	293.899	0	79.7	4	25.5	4	-1E+10	1	-1E+10	1	-1E+10	1	-1E+10	1	-1E+10	1	-1E+10	1
4902551	86	C	12/30/2022	05:59	-131.370	48.032	0	297.60	0	4.6080	0	33.8400	0	26.802	0	294.889	0	79.3	4	25.3	4	-1E+10	1	-1E+10	1	-1E+10	1	-1E+10	1	-1E+10	1	-1E+10	1
4902551	86	C	12/30/2022	05:59	-131.370	48.032	0	298.60	0	4.6020	0	33.8410	0	26.803	0	295.880	0	78.9	4	25.2	4	-1E+10	1	-1E+10	1	-1E+10	1	-1E+10	1	-1E+10	1	-1E+10	1
4902551	86	C	12/30/2022	05:59	-131.370	48.032	0	299.50	0	4.5940	0	33.8420	0	26.805	0	296.771	0	78.5	4	25.1	4	-1E+10	1	-1E+10	1	-1E+10	1	-1E+10	1	-1E+10	1	-1E+10	1
4902551	86	C	12/30/2022	05:59	-131.370	48.032	0	300.50	0	4.5810	0	33.8450	0	26.809	0	297.761	0	78.2	4	25.0	4	-1E+10	1	-1E+10	1	-1E+10	1	-1E+10	1	-1E+10	1	-1E+10	1
4902551	86	C	12/30/2022	05:59	-131.370	48.032	0	301.60	0	4.5750	0	33.8450	0	26.809	0	298.850	0	77.9	4	24.9	4	-1E+10	1	-1E+10	1	-1E+10	1	-1E+10	1	-1E+10	1	-1E+10	1
4902551	86	C	12/30/2022	05:59	-131.370	48.032	0	302.50	0	4.5680	0	33.8470	0	26.812	0	299.741	0	77.7	4	24.8	4	-1E+10	1	-1E+10	1	-1E+10	1	-1E+10	1	-1E+10	1	-1E+10	1
4902551	86	C	12/30/2022	05:59	-131.370	48.032	0	303.60	0	4.5590	0	33.8490	0	26.814	0	300.830	0	77.5	4	24.7	4	-1E+10	1	-1E+10	1	-1E+10	1	-1E+10	1	-1E+10	1	-1E+10	1
4902551	86	C	12/30/2022	05:59	-131.370	48.032	0	304.60	0	4.5550	0	33.8500	0	26.816	0	301.821	0	77.3	4	24.7	4	-1E+10	1	-1E+10	1	-1E+10	1	-1E+10	1	-1E+10	1	-1E+10	1
4902551	86	C	12/30/2022	05:59	-131.370	48.032	0	305.60	0	4.5550	0	33.8500	0	26.816	0	302.811	0	77.1	4	24.6	4	-1E+10	1	-1E+10	1	-1E+10	1	-1E+10	1	-1E+10	1	-1E+10	1
4902551	86	C	12/30/2022	05:59	-131.370	48.032	0	306.60	0	4.5550	0	33.8500	0	26.816	0	303.801	0	76.9	4	24.5	4	-1E+10	1	-1E+10	1	-1E+10	1	-1E+10	1	-1E+10	1	-1E+10	1
4902551	86	C	12/30/2022	05:59	-131.370	48.032	0	307.60	0	4.5530	0	33.8500	0	26.816	0	304.791	0	76.6	4	24.5	4	-1E+10	1	-1E+10	1	-1E+10	1	-1E+10	1	-1E+10	1	-1E+10	1
4902551	86	C	12/30/2022	05:59	-131.370	48.032	0	308.60	0	4.5520	0	33.8500	0	26.816	0	305.781	0	76.3	4	24.4	4	-1E+10	1	-1E+10	1	-1E+10	1	-1E+10	1	-1E+10	1	-1E+10	1
4902551	86	C	12/30/2022	05:59	-131.370	48.032	0	309.60	0	4.5500	0	33.8510	0	26.817	0	306.771	0	76.0	4	24.3	4	-1E+10	1	-1E+10	1	-1E+10	1	-1E+10	1	-1E+10	1	-1E+10	1
4902551	86	C	12/30/2022	05:59	-131.370	48.032	0	310.60	0	4.5470	0	33.8510	0	26.817	0	307.761	0	75.8	4	24.2	4	-1E+10	1	-1E+10	1	-1E+10	1	-1E+10	1	-1E+10	1	-1E+10	1
4902551	86	C	12/30/2022	05:59	-131.370	48.032	0	311.60	0	4.5440	0	33.8520	0	26.818	0	308.751	0	75.4	4	24.1	4	-1E+10	1	-1E+10	1	-1E+10	1	-1E+10	1	-1E+10	1	-1E+10	1
4902551	86	C	12/30/2022	05:59	-131.370	48.032	0	312.70	0	4.5430	0	33.8520	0	26.818	0	309.841	0	75.0	4	23.9	4	-1E+10	1	-1E+10	1	-1E+10	1	-1E+10	1	-1E+10	1	-1E+10	1
4902551	86	C	12/30/2022	05:59	-131.370	48.032	0	313.70	0	4.5420	0	33.8520	0	26.819	0	310.831	0	74.7	4	23.8	4	-1E+10	1	-1E+10	1	-1E+10	1	-1E+10	1	-1E+10	1	-1E+10	1
4902551	86	C	12/30/2022	05:59	-131.370	48.032	0	314.70	0	4.5420	0	33.8520	0	26.819	0	311.821	0	74.3	4	23.7	4	-1E+10	1	-1E+10	1	-1E+10	1	-1E+10	1	-1E+10	1	-1E+10	1
4902551	86	C	12/30/2022	05:59	-131.370	48.032	0	315.70	0	4.5400	0	33.8530	0	26.820	0	312.811	0	73.9	4	23.6	4	-1E+10	1	-1E+10	1	-1E+10	1	-1E+10	1	-1E+10	1	-1E+10	1
4902551	86	C	12/30/2022	05:59	-131.370	48.032	0	316.70	0	4.5420	0	33.8550	0	26.821	0	313.801	0	73.4	4	23.4	4	-1E+10	1	-1E+10	1	-1E+10	1	-1E+10	1	-1E+10	1	-1E+10	1
4902551	86	C	12/30/2022	05:59	-131.370	48.032	0	317.70	0	4.5330	0	33.8590	0	26.825	0	314.791	0	73.0	4	23.3	4	-1E+10	1	-1E+10	1	-1E+10	1	-1E+10	1	-1E+10	1	-1E+10	1
4902551	86	C	12/30/2022	05:59	-131.370	48.032	0	318.80	0	4.5180	0	33.8600	0	26.828	0	315.880	0	72.8	4	23.2	4	-1E+10	1	-1E+10	1	-1E+10	1	-1E+10	1	-1E+10	1	-1E+10	1
4902551	86	C	12/30/2022	05:59	-131.370	48.032	0	319.80	0	4.5160	0	33.8600	0	26.828	0	316.870	0	72.4	4	23.1	4	-1E+10	1	-1E+10	1	-1E+10	1	-1E+10	1	-1E+10	1	-1E+10	1
4902551	86	C	12/30/2022	05:59	-131.370	48.032	0	320.80	0	4.5130	0	33.8620	0	26.830	0	317.860	0	72.1	4	23.0	4	-1E+10	1	-1E+10	1	-1E+10	1	-1E+10	1	-1E+10	1	-1E+10	1
4902551	86	C	12/30/2022	05:59	-131.370	48.032	0	321.80	0	4.5090	0	33.8630	0	26.831	0	318.850	0	71.7	4	22.9	4	-1E+10	1	-1E+10	1	-1E+10	1	-1E+10	1	-1E+10	1	-1E+10	1
4902551	86	C	12/30/2022	05:59	-131.370	48.032	0	322.90	0	4.5090	0	33.8630	0	26.831	0	319.939	0	71.3	4	22.7	4	-1E+10	1	-1E+10	1	-1E+10	1	-1E+10	1	-1E+10	1	-1E+10	1
4902551	86	C	12/30/2022	05:59	-131.370	48.032	0	323.90	0	4.5070	0	33.8630	0	26.831	0	320.929	0	71.0	4	22.6	4	-1E+10	1	-1E+10	1	-1E+10	1	-1E+10	1	-1E+10	1	-1E+10	1
4902551	86	C	12/30/2022	05:59	-131.370	48.032	0	324.90	0	4.5050	0	33.8640	0	26.832	0	321.920	0	70.5	4	22.5	4	-1E+10	1	-1E+10	1	-1E+10	1	-1E+10	1	-1E+10	1	-1E+10	1
4902551	86	C	12/30/2022	05:59	-131.370	48.032	0	326.00	0	4.5000	0	33.8660	0	26.834	0	323.009	0	70.1	4	22.4	4	-1E+10	1	-1E+10	1	-1E+10	1	-1E+10	1	-1E+10	1	-1E+10	1
4902551	86	C	12/30/2022	05:59	-131.370	48.032	0	327.00	0	4.4960	0	33.8670	0	26.836	0	323.999	0	69.7	4	22.2	4	-1E+10	1	-1E+10	1	-1E+10	1	-1E+10	1	-1E+10	1	-1E+10	1
4902551	86	C	12/30/2022	05:59	-131.370	48.032	0	328.10	0	4.4840	0	33.8720	0	26.841	0	325.088	0	69.4	4	22.1	4	-1E+10	1	-1E+10	1	-1E+10	1	-1E+10	1	-1E+10	1	-1E+10	1
4902551	86	C	12/30/2022	05:59	-131.370	48.032	0	329.10	0	4.4820	0	33.8760	0	26.844	0	326.078	0	69.2	4	22.1	4	-1E+10	1	-1E+10	1	-1E+10	1	-1E+10	1	-1E+10	1	-1E+10	1
4902551	86	C	12/30/2022	05:59	-131.370	48.032	0	330.10	0	4.4810	0	33.8770	0	26.845	0	327.068	0	69.0	4	22.0	4	-1E+10	1	-1E+10	1	-1E+10	1	-1E+10	1	-1E+10	1	-1E+10	1
4902551	86	C	12/30/2022	05:59	-131.370	48.032	0	331.10	0	4.4800	0	33.8780	0	26.846	0	328.058	0	68.8	4	21.9	4	-1E+10	1	-1E+10	1	-1E+10	1	-1E+10	1	-1E+10	1	-1E+10	1
4902551	86	C	12/30/2022	05:59	-131.370	48.032	0	332.20	0	4.4800	0	33.8780	0	26.846	0	329.147	0	68.6	4	21.9	4	-1E+10	1	-1E+10	1	-1E+10	1	-1E+10	1	-1E+10	1	-1E+10	1
4902551	86	C	12/30/2022	05:59	-131.370	48.032	0	333.20	0	4.4800	0	33.8780	0	26.846	0	330.137	0	68.4	4	21.8	4	-1E+10	1	-1E+10	1	-1E+10	1	-1E+10	1	-1E+10	1	-1E+10	1
4902551	86	C	12/30/2022	05:59	-131.370	48.032	0	334.30	0	4.4800	0	33.8790	0	26.847	0	331.226	0	68.1	4	21.7	4	-1E+10	1	-1E+10	1	-1E+10	1	-1E+10	1	-1E+10	1	-1E+10	1
4902551	86	C	12/30/2022	05:59	-131.370	48.032	0	335.30	0	4.4780	0	33.8800	0	26.848	0	332.216	0	67.9	4	21.6	4	-1E+10	1	-1E+10	1	-1E+10	1	-1E+10	1	-1E+10	1	-1E+10	1
4902551	86	C	12/30/2022	05:59	-131.370	48.032	0	336.30	0	4.4770	0	33.8800	0	26.848	0	333.206	0	67.6	4	21.5	4	-1E+10	1	-1E+10	1	-1E+10	1	-1E+10	1	-1E+10	1	-1E+10	1
4902551	86	C	12/30/2022	05:59	-131.370	48.032	0	337.40	0	4.4760	0	33.8800	0	26.848	0	334.295	0	67.3	4	21.4	4	-1E+10	1	-1E+10	1	-1E+10	1	-1E+10	1	-1E+10	1	-1E+10	1
4902551	86	C	12/30/2022	05:59	-131.370	48.032	0	338.40	0	4.4720	0	33.8810	0	26.849	0	335.285	0	67.0	4	21.3	4	-1E+10	1	-1E+10	1	-1E+10	1	-1E+10	1	-1E+10	1	-1E+10	1
4902551	86	C	12/30/2022	05:59	-131.370	48.032	0	339.40	0	4.4690	0	33.8820	0	26.850	0	336.275	0	66.7	4	21.2	4	-1E+10	1	-1E+10	1	-1E+10	1	-1E+10	1	-1E+10	1	-1E+10	1
4902551	86	C	12/30/2022	05:59	-131.370	48.032	0	340.90	0	4.4630	0	33.8850	0	26.854	0	337.760	0	66.3	4	21.1	4	-1E+10	1	-1E+10	1	-1E+10	1	-1E+10	1	-1E+10	1	-1E+10	1
4902551	86	C	12/30/2022	05:59	-131.370	48.032	0	342.40	0	4.4620	0	33.8860	0	26.854	0	339.245	0	66.0	4	21.0	4	-1E+10	1	-1E+10	1	-1E+10	1	-1E+10	1	-1E+10	1	-1E+10	1
4902551	86	C	12/30/2022	05:59	-131.370	48.032	0	343.90	0	4.4570	0	33.8870	0	26.856	0	340.730	0	65.6	4	20.9	4	-1E+10	1	-1E+10	1	-1E+10	1	-1E+10	1	-1E+10	1	-1E+10	1
4902551	86	C	12/30/2022	05:59	-131.370	48.032	0	345.00	0	4.4560	0	33.8890	0	26.857	0	341.819	0	65.2	4	20.8	4	-1E+10	1	-1E+10	1	-1E+10	1	-1E+10	1	-1E+10	1	-1E+10	1
4902551	86	C	12/30/2022	05:59	-131.370	48.032	0	345.80	0	4.4530	0	33.8920	0	26.860	0	342.611	0	65.0	4	20.7	4	-1E+10	1	-1E+10	1	-1E+10	1	-1E+10	1	-1E+10	1	-1E+10	1
4902551	86	C	12/30/2022	05:59	-131.370	48.032	0	347.00	0	4.4510	0	33.8920	0	26.860	0	343.798	0	64.7	4	20.6	4	-1E+10	1	-1E+10	1	-1E+10	1	-1E+10	1	-1E+10	1	-1E+10	1
4902551	86	C	12/30/2022	05:59	-131.370	48.032	0	348.20	0	4.4490	0	33.8940	0	26.862	0	344.986	0	64.4	4	20.5	4	-1E+10	1	-1E+10	1	-1E+10	1	-1E+10	1	-1E+10	1	-1E+10	1
4902551	86	C	12/30/2022	05:59	-131.370	48.032	0	348.90	0	4.4490	0	33.8940	0	26.862	0	345.679	0	64.2	4	20.4	4	-1E+10	1	-1E+10	1	-1E+10	1	-1E+10	1	-1E+10	1	-1E+10	1
4902551	86	C	12/30/2022	05:59	-131.370	48.032	0	349.70	0	4.4490	0	33.8940	0	26.862	0	346.471	0	63.9	4	20.3	4	-1E+10	1	-1E+10	1	-1E+10	1	-1E+10	1	-1E+10	1	-1E+10	1
4902551	86	C	12/30/2022	05:59	-131.370	48.032	0	352.80	0	4.4410	0	33.8980	0	26.866	0	349.540	0	62.8	4	20.0	4	-1E+10	1	-1E+10	1	-1E+10	1	-1E+10	1	-1E+10	1	-1E+10	1
4902551	86	C	12/30/2022	05:59	-131.370	48.032	0	358.10	0	4.4200	0	33.9090	0	26.877	0	354.787	0	61.5	4	19.6	4	-1E+10	1	-1E+10	1	-1E+10	1	-1E+10	1	-1E+10	1	-1E+10	1
4902551	86	C	12/30/2022	05:59	-131.370	48.032	0	363.10	0	4.4130	0	33.9120	0	26.880	0	359.736	0	60.3	4	19.2	4	-1E+10	1	-1E+10	1	-1E+10	1	-1E+10	1	-1E+10	1	-1E+10	1
4902551	86	C	12/30/2022	05:59	-131.370	48.032	0	367.80	0	4.3990	0	33.9170	0	26.886	0	364.388	0	59.1	4	18.8	4	-1E+10	1	-1E+10	1	-1E+10	1	-1E+10	1	-1E+10	1	-1E+10	1
4902551	86	C	12/30/2022	05:59	-131.370	48.032	0	372.60	0	4.3870	0	33.9220	0	26.891	0	369.140	0	58.0	4	18.4	4	-1E+10	1	-1E+10	1	-1E+10	1	-1E+10	1	-1E+10	1	-1E+10	1
4902551	86	C	12/30/2022	05:59	-131.370	48.032	0	377.90	0	4.3780	0	33.9270	0	26.896	0	374.386	0	56.7	4	18.0	4	-1E+10	1	-1E+10	1	-1E+10	1	-1E+10	1	-1E+10	1	-1E+10	1
4902551	86	C	12/30/2022	05:59	-131.370	48.032	0	382.90	0	4.3670	0	33.9320	0	26.901	0	379.334	0	55.5	4	17.6	4	-1E+10	1	-1E+10	1	-1E+10	1	-1E+10	1	-1E+10	1	-1E+10	1
4902551	86	C	12/30/2022	05:59	-131.370	48.032	0	387.90	0	4.3550	0	33.9360	0	26.906	0	384.283	0	54.0	4	17.2	4	-1E+10	1	-1E+10	1	-1E+10	1	-1E+10	1	-1E+10	1	-1E+10	1
4902551	86	C	12/30/2022	05:59	-131.370	48.032	0	393.00	0	4.3280	0	33.9470	0	26.918	0	389.331	0	52.9	4	16.8	4	-1E+10	1	-1E+10	1	-1E+10	1	-1E+10	1	-1E+10	1	-1E+10	1
4902551	86	C	12/30/2022	05:59	-131.370	48.032	0	397.80	0	4.3190	0	33.9510	0	26.922	0	394.082	0	52.2	4	16.6	4	-1E+10	1	-1E+10	1	-1E+10	1	-1E+10	1	-1E+10	1	-1E+10	1
4902551	86	C	12/30/2022	05:59	-131.370	48.032	0	402.80	0	4.3130	0	33.9530	0	26.924	0	399.030	0	51.3	4	16.3	4	-1E+10	1	-1E+10	1	-1E+10	1	-1E+10	1	-1E+10	1	-1E+10	1
4902551	86	C	12/30/2022	05:59	-131.370	48.032	0	407.70	0	4.3040	0	33.9580	0	26.929	0	403.879	0	50.1	4	15.9	4	-1E+10	1	-1E+10	1	-1E+10	1	-1E+10	1	-1E+10	1	-1E+10	1
4902551	86	C	12/30/2022	05:59	-131.370	48.032	0	412.80	0	4.2820	0	33.9650	0	26.937	0	408.927	0	48.8	4	15.5	4	-1E+10	1	-1E+10	1	-1E+10	1	-1E+10	1	-1E+10	1	-1E+10	1
4902551	86	C	12/30/2022	05:59	-131.370	48.032	0	418.20	0	4.2650	0	33.9730	0	26.945	0	414.271	0	47.9	4	15.2	4	-1E+10	1	-1E+10	1	-1E+10	1	-1E+10	1	-1E+10	1	-1E+10	1
4902551	86	C	12/30/2022	05:59	-131.370	48.032	0	423.00	0	4.2540	0	33.9780	0	26.950	0	419.021	0	47.1	4	15.0	4	-1E+10	1	-1E+10	1	-1E+10	1	-1E+10	1	-1E+10	1	-1E+10	1
4902551	86	C	12/30/2022	05:59	-131.370	48.032	0	428.00	0	4.2460	0	33.9830	0	26.955	0	423.968	0	46.3	4	14.7	4	-1E+10	1	-1E+10	1	-1E+10	1	-1E+10	1	-1E+10	1	-1E+10	1
4902551	86	C	12/30/2022	05:59	-131.370	48.032	0	433.20	0	4.2380	0	33.9880	0	26.960	0	429.114	0	45.6	4	14.5	4	-1E+10	1	-1E+10	1	-1E+10	1	-1E+10	1	-1E+10	1	-1E+10	1
4902551	86	C	12/30/2022	05:59	-131.370	48.032	0	438.10	0	4.2330	0	33.9930	0	26.964	0	433.963	0	45.0	4	14.3	4	-1E+10	1	-1E+10	1	-1E+10	1	-1E+10	1	-1E+10	1	-1E+10	1
4902551	86	C	12/30/2022	05:59	-131.370	48.032	0	443.10	0	4.2300	0	33.9960	0	26.967	0	438.910	0	44.4	4	14.1	4	-1E+10	1	-1E+10	1	-1E+10	1	-1E+10	1	-1E+10	1	-1E+10	1
4902551	86	C	12/30/2022	05:59	-131.370	48.032	0	448.10	0	4.2250	0	34.0000	0	26.971	0	443.858	0	43.9	4	13.9	4	-1E+10	1	-1E+10	1	-1E+10	1	-1E+10	1	-1E+10	1	-1E+10	1
4902551	86	C	12/30/2022	05:59	-131.370	48.032	0	453.20	0	4.2220	0	34.0040	0	26.974	0	448.904	0	43.4	4	13.8	4	-1E+10	1	-1E+10	1	-1E+10	1	-1E+10	1	-1E+10	1	-1E+10	1
4902551	86	C	12/30/2022	05:59	-131.370	48.032	0	458.00	0	4.2190	0	34.0070	0	26.977	0	453.653	0	42.9	4	13.6	4	-1E+10	1	-1E+10	1	-1E+10	1	-1E+10	1	-1E+10	1	-1E+10	1
4902551	86	C	12/30/2022	05:59	-131.370	48.032	0	462.80	0	4.2150	0	34.0100	0	26.980	0	458.402	0	42.3	4	13.4	4	-1E+10	1	-1E+10	1	-1E+10	1	-1E+10	1	-1E+10	1	-1E+10	1
4902551	86	C	12/30/2022	05:59	-131.370	48.032	0	468.10	0	4.2120	0	34.0130	0	26.983	0	463.646	0	41.5	4	13.1	4	-1E+10	1	-1E+10	1	-1E+10	1	-1E+10	1	-1E+10	1	-1E+10	1
4902551	86	C	12/30/2022	05:59	-131.370	48.032	0	473.00	0	4.2080	0	34.0170	0	26.986	0	468.494	0	40.7	4	12.9	4	-1E+10	1	-1E+10	1	-1E+10	1	-1E+10	1	-1E+10	1	-1E+10	1
4902551	86	C	12/30/2022	05:59	-131.370	48.032	0	477.90	0	4.1990	0	34.0230	0	26.992	0	473.341	0	40.0	4	12.7	4	-1E+10	1	-1E+10	1	-1E+10	1	-1E+10	1	-1E+10	1	-1E+10	1
4902551	86	C	12/30/2022	05:59	-131.370	48.032	0	482.90	0	4.1930	0	34.0270	0	26.996	0	478.288	0	39.1	4	12.4	4	-1E+10	1	-1E+10	1	-1E+10	1	-1E+10	1	-1E+10	1	-1E+10	1
4902551	86	C	12/30/2022	05:59	-131.370	48.032	0	487.80	0	4.1820	0	34.0330	0	27.002	0	483.136	0	38.5	4	12.2	4	-1E+10	1	-1E+10	1	-1E+10	1	-1E+10	1	-1E+10	1	-1E+10	1
4902551	86	C	12/30/2022	05:59	-131.370	48.032	0	493.10	0	4.1770	0	34.0360	0	27.005	0	488.379	0	37.8	4	12.0	4	-1E+10	1	-1E+10	1	-1E+10	1	-1E+10	1	-1E+10	1	-1E+10	1
4902551	86	C	12/30/2022	05:59	-131.370	48.032	0	498.00	0	4.1700	0	34.0390	0	27.008	0	493.226	0	37.2	4	11.8	4	-1E+10	1	-1E+10	1	-1E+10	1	-1E+10	1	-1E+10	1	-1E+10	1
4902551	86	C	12/30/2022	05:59	-131.370	48.032	0	502.90	0	4.1620	0	34.0430	0	27.012	0	498.073	0	36.6	4	11.6	4	-1E+10	1	-1E+10	1	-1E+10	1	-1E+10	1	-1E+10	1	-1E+10	1
4902551	86	C	12/30/2022	05:59	-131.370	48.032	0	507.80	0	4.1550	0	34.0470	0	27.016	0	502.920	0	36.0	4	11.4	4	-1E+10	1	-1E+10	1	-1E+10	1	-1E+10	1	-1E+10	1	-1E+10	1
4902551	86	C	12/30/2022	05:59	-131.370	48.032	0	512.70	0	4.1490	0	34.0500	0	27.019	0	507.767	0	35.3	4	11.2	4	-1E+10	1	-1E+10	1	-1E+10	1	-1E+10	1	-1E+10	1	-1E+10	1
4902551	86	C	12/30/2022	05:59	-131.370	48.032	0	518.10	0	4.1400	0	34.0540	0	27.023	0	513.108	0	34.4	4	10.9	4	-1E+10	1	-1E+10	1	-1E+10	1	-1E+10	1	-1E+10	1	-1E+10	1
4902551	86	C	12/30/2022	05:59	-131.370	48.032	0	523.00	0	4.1310	0	34.0580	0	27.027	0	517.955	0	33.7	4	10.7	4	-1E+10	1	-1E+10	1	-1E+10	1	-1E+10	1	-1E+10	1	-1E+10	1
4902551	86	C	12/30/2022	05:59	-131.370	48.032	0	527.80	0	4.1210	0	34.0630	0	27.032	0	522.703	0	32.8	4	10.4	4	-1E+10	1	-1E+10	1	-1E+10	1	-1E+10	1	-1E+10	1	-1E+10	1
4902551	86	C	12/30/2022	05:59	-131.370	48.032	0	533.00	0	4.1110	0	34.0680	0	27.037	0	527.846	0	31.8	4	10.1	4	-1E+10	1	-1E+10	1	-1E+10	1	-1E+10	1	-1E+10	1	-1E+10	1
4902551	86	C	12/30/2022	05:59	-131.370	48.032	0	537.80	0	4.0960	0	34.0760	0	27.045	0	532.593	0	31.0	4	9.8	4	-1E+10	1	-1E+10	1	-1E+10	1	-1E+10	1	-1E+10	1	-1E+10	1
4902551	86	C	12/30/2022	05:59	-131.370	48.032	0	542.60	0	4.0880	0	34.0800	0	27.049	0	537.341	0	30.3	4	9.6	4	-1E+10	1	-1E+10	1	-1E+10	1	-1E+10	1	-1E+10	1	-1E+10	1
4902551	86	C	12/30/2022	05:59	-131.370	48.032	0	547.90	0	4.0750	0	34.0870	0	27.056	0	542.582	0	29.6	4	9.4	4	-1E+10	1	-1E+10	1	-1E+10	1	-1E+10	1	-1E+10	1	-1E+10	1
4902551	86	C	12/30/2022	05:59	-131.370	48.032	0	553.00	0	4.0640	0	34.0920	0	27.061	0	547.626	0	29.1	4	9.2	4	-1E+10	1	-1E+10	1	-1E+10	1	-1E+10	1	-1E+10	1	-1E+10	1
4902551	86	C	12/30/2022	05:59	-131.370	48.032	0	558.20	0	4.0530	0	34.0960	0	27.066	0	552.769	0	28.6	4	9.1	4	-1E+10	1	-1E+10	1	-1E+10	1	-1E+10	1	-1E+10	1	-1E+10	1
4902551	86	C	12/30/2022	05:59	-131.370	48.032	0	563.20	0	4.0470	0	34.0990	0	27.069	0	557.713	0	28.1	4	8.9	4	-1E+10	1	-1E+10	1	-1E+10	1	-1E+10	1	-1E+10	1	-1E+10	1
4902551	86	C	12/30/2022	05:59	-131.370	48.032	0	568.20	0	4.0370	0	34.1030	0	27.073	0	562.658	0	27.3	4	8.6	4	-1E+10	1	-1E+10	1	-1E+10	1	-1E+10	1	-1E+10	1	-1E+10	1
4902551	86	C	12/30/2022	05:59	-131.370	48.032	0	573.20	0	4.0220	0	34.1100	0	27.080	0	567.602	0	26.6	4	8.4	4	-1E+10	1	-1E+10	1	-1E+10	1	-1E+10	1	-1E+10	1	-1E+10	1
4902551	86	C	12/30/2022	05:59	-131.370	48.032	0	577.80	0	4.0010	0	34.1180	0	27.089	0	572.151	0	26.1	4	8.2	4	-1E+10	1	-1E+10	1	-1E+10	1	-1E+10	1	-1E+10	1	-1E+10	1
4902551	86	C	12/30/2022	05:59	-131.370	48.032	0	582.60	0	3.9900	0	34.1220	0	27.093	0	576.898	0	25.6	4	8.1	4	-1E+10	1	-1E+10	1	-1E+10	1	-1E+10	1	-1E+10	1	-1E+10	1
4902551	86	C	12/30/2022	05:59	-131.370	48.032	0	588.00	0	3.9730	0	34.1290	0	27.100	0	582.237	0	25.1	4	7.9	4	-1E+10	1	-1E+10	1	-1E+10	1	-1E+10	1	-1E+10	1	-1E+10	1
4902551	86	C	12/30/2022	05:59	-131.370	48.032	0	592.90	0	3.9620	0	34.1330	0	27.105	0	587.082	0	24.8	4	7.8	4	-1E+10	1	-1E+10	1	-1E+10	1	-1E+10	1	-1E+10	1	-1E+10	1
4902551	86	C	12/30/2022	05:59	-131.370	48.032	0	597.90	0	3.9470	0	34.1380	0	27.110	0	592.026	0	24.4	4	7.7	4	-1E+10	1	-1E+10	1	-1E+10	1	-1E+10	1	-1E+10	1	-1E+10	1
4902551	86	C	12/30/2022	05:59	-131.370	48.032	0	603.00	0	3.9320	0	34.1430	0	27.116	0	597.069	0	24.0	4	7.6	4	-1E+10	1	-1E+10	1	-1E+10	1	-1E+10	1	-1E+10	1	-1E+10	1
4902551	86	C	12/30/2022	05:59	-131.370	48.032	0	607.70	0	3.9210	0	34.1470	0	27.120	0	601.716	0	23.7	4	7.5	4	-1E+10	1	-1E+10	1	-1E+10	1	-1E+10	1	-1E+10	1	-1E+10	1
4902551	86	C	12/30/2022	05:59	-131.370	48.032	0	612.90	0	3.9080	0	34.1510	0	27.125	0	606.857	0	23.2	4	7.3	4	-1E+10	1	-1E+10	1	-1E+10	1	-1E+10	1	-1E+10	1	-1E+10	1
4902551	86	C	12/30/2022	05:59	-131.370	48.032	0	618.10	0	3.8890	0	34.1570	0	27.131	0	611.998	0	22.7	4	7.1	4	-1E+10	1	-1E+10	1	-1E+10	1	-1E+10	1	-1E+10	1	-1E+10	1
4902551	86	C	12/30/2022	05:59	-131.370	48.032	0	623.00	0	3.8680	0	34.1640	0	27.139	0	616.842	0	22.4	4	7.0	4	-1E+10	1	-1E+10	1	-1E+10	1	-1E+10	1	-1E+10	1	-1E+10	1
4902551	86	C	12/30/2022	05:59	-131.370	48.032	0	628.00	0	3.8530	0	34.1680	0	27.144	0	621.785	0	22.1	4	7.0	4	-1E+10	1	-1E+10	1	-1E+10	1	-1E+10	1	-1E+10	1	-1E+10	1
4902551	86	C	12/30/2022	05:59	-131.370	48.032	0	633.00	0	3.8440	0	34.1710	0	27.147	0	626.728	0	21.9	4	6.9	4	-1E+10	1	-1E+10	1	-1E+10	1	-1E+10	1	-1E+10	1	-1E+10	1
4902551	86	C	12/30/2022	05:59	-131.370	48.032	0	638.10	0	3.8340	0	34.1740	0	27.151	0	631.770	0	21.6	4	6.8	4	-1E+10	1	-1E+10	1	-1E+10	1	-1E+10	1	-1E+10	1	-1E+10	1
4902551	86	C	12/30/2022	05:59	-131.370	48.032	0	643.20	0	3.8240	0	34.1760	0	27.153	0	636.812	0	21.1	4	6.6	4	-1E+10	1	-1E+10	1	-1E+10	1	-1E+10	1	-1E+10	1	-1E+10	1
4902551	86	C	12/30/2022	05:59	-131.370	48.032	0	648.30	0	3.8030	0	34.1820	0	27.160	0	641.853	0	20.7	4	6.5	4	-1E+10	1	-1E+10	1	-1E+10	1	-1E+10	1	-1E+10	1	-1E+10	1
4902551	86	C	12/30/2022	05:59	-131.370	48.032	0	652.90	0	3.7860	0	34.1870	0	27.166	0	646.400	0	20.3	4	6.4	4	-1E+10	1	-1E+10	1	-1E+10	1	-1E+10	1	-1E+10	1	-1E+10	1
4902551	86	C	12/30/2022	05:59	-131.370	48.032	0	657.60	0	3.7790	0	34.1910	0	27.170	0	651.046	0	19.9	4	6.3	4	-1E+10	1	-1E+10	1	-1E+10	1	-1E+10	1	-1E+10	1	-1E+10	1
4902551	86	C	12/30/2022	05:59	-131.370	48.032	0	662.80	0	3.7730	0	34.1930	0	27.172	0	656.186	0	19.5	4	6.1	4	-1E+10	1	-1E+10	1	-1E+10	1	-1E+10	1	-1E+10	1	-1E+10	1
4902551	86	C	12/30/2022	05:59	-131.370	48.032	0	668.10	0	3.7610	0	34.1960	0	27.176	0	661.425	0	19.1	4	6.0	4	-1E+10	1	-1E+10	1	-1E+10	1	-1E+10	1	-1E+10	1	-1E+10	1
4902551	86	C	12/30/2022	05:59	-131.370	48.032	0	672.90	0	3.7500	0	34.2000	0	27.180	0	666.169	0	18.6	4	5.8	4	-1E+10	1	-1E+10	1	-1E+10	1	-1E+10	1	-1E+10	1	-1E+10	1
4902551	86	C	12/30/2022	05:59	-131.370	48.032	0	677.70	0	3.7360	0	34.2060	0	27.186	0	670.914	0	18.3	4	5.7	4	-1E+10	1	-1E+10	1	-1E+10	1	-1E+10	1	-1E+10	1	-1E+10	1
4902551	86	C	12/30/2022	05:59	-131.370	48.032	0	683.00	0	3.7300	0	34.2080	0	27.188	0	676.152	0	17.9	4	5.6	4	-1E+10	1	-1E+10	1	-1E+10	1	-1E+10	1	-1E+10	1	-1E+10	1
4902551	86	C	12/30/2022	05:59	-131.370	48.032	0	688.30	0	3.7230	0	34.2120	0	27.192	0	681.390	0	17.7	4	5.6	4	-1E+10	1	-1E+10	1	-1E+10	1	-1E+10	1	-1E+10	1	-1E+10	1
4902551	86	C	12/30/2022	05:59	-131.370	48.032	0	693.10	0	3.7170	0	34.2140	0	27.194	0	686.134	0	17.6	4	5.5	4	-1E+10	1	-1E+10	1	-1E+10	1	-1E+10	1	-1E+10	1	-1E+10	1
4902551	86	C	12/30/2022	05:59	-131.370	48.032	0	697.90	0	3.7010	0	34.2170	0	27.198	0	690.878	0	17.6	4	5.5	4	-1E+10	1	-1E+10	1	-1E+10	1	-1E+10	1	-1E+10	1	-1E+10	1
4902551	86	C	12/30/2022	05:59	-131.370	48.032	0	703.20	0	3.6770	0	34.2200	0	27.203	0	696.116	0	17.4	4	5.5	4	-1E+10	1	-1E+10	1	-1E+10	1	-1E+10	1	-1E+10	1	-1E+10	1
4902551	86	C	12/30/2022	05:59	-131.370	48.032	0	708.00	0	3.6710	0	34.2230	0	27.206	0	700.859	0	17.3	4	5.4	4	-1E+10	1	-1E+10	1	-1E+10	1	-1E+10	1	-1E+10	1	-1E+10	1
4902551	86	C	12/30/2022	05:59	-131.370	48.032	0	712.70	0	3.6660	0	34.2250	0	27.208	0	705.504	0	17.1	4	5.4	4	-1E+10	1	-1E+10	1	-1E+10	1	-1E+10	1	-1E+10	1	-1E+10	1
4902551	86	C	12/30/2022	05:59	-131.370	48.032	0	717.90	0	3.6570	0	34.2280	0	27.212	0	710.643	0	17.0	4	5.3	4	-1E+10	1	-1E+10	1	-1E+10	1	-1E+10	1	-1E+10	1	-1E+10	1
4902551	86	C	12/30/2022	05:59	-131.370	48.032	0	723.10	0	3.6340	0	34.2310	0	27.216	0	715.781	0	17.1	4	5.3	4	-1E+10	1	-1E+10	1	-1E+10	1	-1E+10	1	-1E+10	1	-1E+10	1
4902551	86	C	12/30/2022	05:59	-131.370	48.032	0	728.00	0	3.6310	0	34.2320	0	27.217	0	720.623	0	17.1	4	5.3	4	-1E+10	1	-1E+10	1	-1E+10	1	-1E+10	1	-1E+10	1	-1E+10	1
4902551	86	C	12/30/2022	05:59	-131.370	48.032	0	732.70	0	3.6190	0	34.2340	0	27.220	0	725.267	0	17.0	4	5.3	4	-1E+10	1	-1E+10	1	-1E+10	1	-1E+10	1	-1E+10	1	-1E+10	1
4902551	86	C	12/30/2022	05:59	-131.370	48.032	0	738.00	0	3.6140	0	34.2340	0	27.221	0	730.504	0	16.9	4	5.3	4	-1E+10	1	-1E+10	1	-1E+10	1	-1E+10	1	-1E+10	1	-1E+10	1
4902551	86	C	12/30/2022	05:59	-131.370	48.032	0	743.20	0	3.5990	0	34.2380	0	27.225	0	735.642	0	16.5	4	5.2	4	-1E+10	1	-1E+10	1	-1E+10	1	-1E+10	1	-1E+10	1	-1E+10	1
4902551	86	C	12/30/2022	05:59	-131.370	48.032	0	747.90	0	3.5900	0	34.2400	0	27.228	0	740.286	0	16.3	4	5.1	4	-1E+10	1	-1E+10	1	-1E+10	1	-1E+10	1	-1E+10	1	-1E+10	1
4902551	86	C	12/30/2022	05:59	-131.370	48.032	0	753.00	0	3.5820	0	34.2430	0	27.231	0	745.325	0	16.0	4	5.0	4	-1E+10	1	-1E+10	1	-1E+10	1	-1E+10	1	-1E+10	1	-1E+10	1
4902551	86	C	12/30/2022	05:59	-131.370	48.032	0	758.10	0	3.5750	0	34.2450	0	27.233	0	750.364	0	15.5	4	4.9	4	-1E+10	1	-1E+10	1	-1E+10	1	-1E+10	1	-1E+10	1	-1E+10	1
4902551	86	C	12/30/2022	05:59	-131.370	48.032	0	762.80	0	3.5620	0	34.2490	0	27.238	0	755.007	0	15.0	4	4.7	4	-1E+10	1	-1E+10	1	-1E+10	1	-1E+10	1	-1E+10	1	-1E+10	1
4902551	86	C	12/30/2022	05:59	-131.370	48.032	0	768.00	0	3.5530	0	34.2550	0	27.244	0	760.145	0	14.3	4	4.5	4	-1E+10	1	-1E+10	1	-1E+10	1	-1E+10	1	-1E+10	1	-1E+10	1
4902551	86	C	12/30/2022	05:59	-131.370	48.032	0	773.30	0	3.5580	0	34.2620	0	27.249	0	765.381	0	14.0	4	4.4	4	-1E+10	1	-1E+10	1	-1E+10	1	-1E+10	1	-1E+10	1	-1E+10	1
4902551	86	C	12/30/2022	05:59	-131.370	48.032	0	777.90	0	3.5440	0	34.2650	0	27.253	0	769.925	0	13.9	4	4.3	4	-1E+10	1	-1E+10	1	-1E+10	1	-1E+10	1	-1E+10	1	-1E+10	1
4902551	86	C	12/30/2022	05:59	-131.370	48.032	0	782.70	0	3.5340	0	34.2680	0	27.256	0	774.667	0	13.8	4	4.3	4	-1E+10	1	-1E+10	1	-1E+10	1	-1E+10	1	-1E+10	1	-1E+10	1
4902551	86	C	12/30/2022	05:59	-131.370	48.032	0	788.00	0	3.5290	0	34.2690	0	27.257	0	779.903	0	13.8	4	4.3	4	-1E+10	1	-1E+10	1	-1E+10	1	-1E+10	1	-1E+10	1	-1E+10	1
4902551	86	C	12/30/2022	05:59	-131.370	48.032	0	793.00	0	3.5120	0	34.2710	0	27.260	0	784.842	0	13.6	4	4.3	4	-1E+10	1	-1E+10	1	-1E+10	1	-1E+10	1	-1E+10	1	-1E+10	1
4902551	86	C	12/30/2022	05:59	-131.370	48.032	0	798.10	0	3.5050	0	34.2740	0	27.264	0	789.880	0	13.4	4	4.2	4	-1E+10	1	-1E+10	1	-1E+10	1	-1E+10	1	-1E+10	1	-1E+10	1
4902551	86	C	12/30/2022	05:59	-131.370	48.032	0	803.20	0	3.4990	0	34.2770	0	27.267	0	794.918	0	13.3	4	4.1	4	-1E+10	1	-1E+10	1	-1E+10	1	-1E+10	1	-1E+10	1	-1E+10	1
4902551	86	C	12/30/2022	05:59	-131.370	48.032	0	808.00	0	3.4910	0	34.2790	0	27.269	0	799.659	0	13.1	4	4.1	4	-1E+10	1	-1E+10	1	-1E+10	1	-1E+10	1	-1E+10	1	-1E+10	1
4902551	86	C	12/30/2022	05:59	-131.370	48.032	0	813.00	0	3.4850	0	34.2820	0	27.272	0	804.598	0	12.8	4	4.0	4	-1E+10	1	-1E+10	1	-1E+10	1	-1E+10	1	-1E+10	1	-1E+10	1
4902551	86	C	12/30/2022	05:59	-131.370	48.032	0	818.00	0	3.4780	0	34.2870	0	27.277	0	809.537	0	12.6	4	3.9	4	-1E+10	1	-1E+10	1	-1E+10	1	-1E+10	1	-1E+10	1	-1E+10	1
4902551	86	C	12/30/2022	05:59	-131.370	48.032	0	823.20	0	3.4560	0	34.2910	0	27.282	0	814.673	0	12.5	4	3.9	4	-1E+10	1	-1E+10	1	-1E+10	1	-1E+10	1	-1E+10	1	-1E+10	1
4902551	86	C	12/30/2022	05:59	-131.370	48.032	0	827.90	0	3.4480	0	34.2930	0	27.284	0	819.315	0	12.3	4	3.8	4	-1E+10	1	-1E+10	1	-1E+10	1	-1E+10	1	-1E+10	1	-1E+10	1
4902551	86	C	12/30/2022	05:59	-131.370	48.032	0	832.90	0	3.4440	0	34.2980	0	27.289	0	824.253	0	12.2	4	3.8	4	-1E+10	1	-1E+10	1	-1E+10	1	-1E+10	1	-1E+10	1	-1E+10	1
4902551	86	C	12/30/2022	05:59	-131.370	48.032	0	838.10	0	3.4370	0	34.2990	0	27.290	0	829.389	0	12.2	4	3.8	4	-1E+10	1	-1E+10	1	-1E+10	1	-1E+10	1	-1E+10	1	-1E+10	1
4902551	86	C	12/30/2022	05:59	-131.370	48.032	0	843.20	0	3.4270	0	34.3020	0	27.294	0	834.426	0	12.1	4	3.8	4	-1E+10	1	-1E+10	1	-1E+10	1	-1E+10	1	-1E+10	1	-1E+10	1
4902551	86	C	12/30/2022	05:59	-131.370	48.032	0	847.90	0	3.4160	0	34.3040	0	27.296	0	839.067	0	12.1	4	3.8	4	-1E+10	1	-1E+10	1	-1E+10	1	-1E+10	1	-1E+10	1	-1E+10	1
4902551	86	C	12/30/2022	05:59	-131.370	48.032	0	852.70	0	3.3990	0	34.3080	0	27.301	0	843.808	0	12.0	4	3.7	4	-1E+10	1	-1E+10	1	-1E+10	1	-1E+10	1	-1E+10	1	-1E+10	1
4902551	86	C	12/30/2022	05:59	-131.370	48.032	0	857.70	0	3.3930	0	34.3090	0	27.303	0	848.745	0	12.0	4	3.7	4	-1E+10	1	-1E+10	1	-1E+10	1	-1E+10	1	-1E+10	1	-1E+10	1
4902551	86	C	12/30/2022	05:59	-131.370	48.032	0	862.80	0	3.3850	0	34.3110	0	27.305	0	853.782	0	11.9	4	3.7	4	-1E+10	1	-1E+10	1	-1E+10	1	-1E+10	1	-1E+10	1	-1E+10	1
4902551	86	C	12/30/2022	05:59	-131.370	48.032	0	868.00	0	3.3780	0	34.3130	0	27.307	0	858.917	0	11.9	4	3.7	4	-1E+10	1	-1E+10	1	-1E+10	1	-1E+10	1	-1E+10	1	-1E+10	1
4902551	86	C	12/30/2022	05:59	-131.370	48.032	0	872.80	0	3.3660	0	34.3160	0	27.311	0	863.656	0	11.9	4	3.7	4	-1E+10	1	-1E+10	1	-1E+10	1	-1E+10	1	-1E+10	1	-1E+10	1
4902551	86	C	12/30/2022	05:59	-131.370	48.032	0	877.70	0	3.3510	0	34.3190	0	27.315	0	868.495	0	11.8	4	3.7	4	-1E+10	1	-1E+10	1	-1E+10	1	-1E+10	1	-1E+10	1	-1E+10	1
4902551	86	C	12/30/2022	05:59	-131.370	48.032	0	882.70	0	3.3430	0	34.3210	0	27.317	0	873.432	0	11.8	4	3.7	4	-1E+10	1	-1E+10	1	-1E+10	1	-1E+10	1	-1E+10	1	-1E+10	1
4902551	86	C	12/30/2022	05:59	-131.370	48.032	0	887.70	0	3.3390	0	34.3220	0	27.318	0	878.369	0	11.8	4	3.7	4	-1E+10	1	-1E+10	1	-1E+10	1	-1E+10	1	-1E+10	1	-1E+10	1
4902551	86	C	12/30/2022	05:59	-131.370	48.032	0	893.00	0	3.3370	0	34.3220	0	27.318	0	883.602	0	11.8	4	3.7	4	-1E+10	1	-1E+10	1	-1E+10	1	-1E+10	1	-1E+10	1	-1E+10	1
4902551	86	C	12/30/2022	05:59	-131.370	48.032	0	898.10	0	3.3290	0	34.3240	0	27.321	0	888.638	0	11.8	4	3.7	4	-1E+10	1	-1E+10	1	-1E+10	1	-1E+10	1	-1E+10	1	-1E+10	1
4902551	86	C	12/30/2022	05:59	-131.370	48.032	0	902.80	0	3.3210	0	34.3260	0	27.323	0	893.278	0	11.7	4	3.6	4	-1E+10	1	-1E+10	1	-1E+10	1	-1E+10	1	-1E+10	1	-1E+10	1
4902551	86	C	12/30/2022	05:59	-131.370	48.032	0	907.50	0	3.3150	0	34.3270	0	27.325	0	897.919	0	11.7	4	3.6	4	-1E+10	1	-1E+10	1	-1E+10	1	-1E+10	1	-1E+10	1	-1E+10	1
4902551	86	C	12/30/2022	05:59	-131.370	48.032	0	912.80	0	3.3020	0	34.3300	0	27.328	0	903.151	0	11.6	4	3.6	4	-1E+10	1	-1E+10	1	-1E+10	1	-1E+10	1	-1E+10	1	-1E+10	1
4902551	86	C	12/30/2022	05:59	-131.370	48.032	0	918.00	0	3.2900	0	34.3330	0	27.332	0	908.285	0	11.6	4	3.6	4	-1E+10	1	-1E+10	1	-1E+10	1	-1E+10	1	-1E+10	1	-1E+10	1
4902551	86	C	12/30/2022	05:59	-131.370	48.032	0	923.20	0	3.2810	0	34.3350	0	27.334	0	913.419	0	11.6	4	3.6	4	-1E+10	1	-1E+10	1	-1E+10	1	-1E+10	1	-1E+10	1	-1E+10	1
4902551	86	C	12/30/2022	05:59	-131.370	48.032	0	927.90	0	3.2730	0	34.3370	0	27.337	0	918.058	0	11.6	4	3.6	4	-1E+10	1	-1E+10	1	-1E+10	1	-1E+10	1	-1E+10	1	-1E+10	1
4902551	86	C	12/30/2022	05:59	-131.370	48.032	0	932.50	0	3.2580	0	34.3400	0	27.340	0	922.599	0	11.6	4	3.6	4	-1E+10	1	-1E+10	1	-1E+10	1	-1E+10	1	-1E+10	1	-1E+10	1
4902551	86	C	12/30/2022	05:59	-131.370	48.032	0	937.70	0	3.2550	0	34.3410	0	27.342	0	927.733	0	11.6	4	3.6	4	-1E+10	1	-1E+10	1	-1E+10	1	-1E+10	1	-1E+10	1	-1E+10	1
4902551	86	C	12/30/2022	05:59	-131.370	48.032	0	942.90	0	3.2500	0	34.3420	0	27.343	0	932.866	0	11.5	4	3.6	4	-1E+10	1	-1E+10	1	-1E+10	1	-1E+10	1	-1E+10	1	-1E+10	1
4902551	86	C	12/30/2022	05:59	-131.370	48.032	0	948.10	0	3.2420	0	34.3440	0	27.345	0	937.999	0	11.5	4	3.6	4	-1E+10	1	-1E+10	1	-1E+10	1	-1E+10	1	-1E+10	1	-1E+10	1
4902551	86	C	12/30/2022	05:59	-131.370	48.032	0	953.30	0	3.2360	0	34.3450	0	27.347	0	943.132	0	11.6	4	3.6	4	-1E+10	1	-1E+10	1	-1E+10	1	-1E+10	1	-1E+10	1	-1E+10	1
4902551	86	C	12/30/2022	05:59	-131.370	48.032	0	958.30	0	3.2270	0	34.3470	0	27.349	0	948.067	0	11.6	4	3.6	4	-1E+10	1	-1E+10	1	-1E+10	1	-1E+10	1	-1E+10	1	-1E+10	1
4902551	86	C	12/30/2022	05:59	-131.370	48.032	0	962.90	0	3.2250	0	34.3480	0	27.350	0	952.608	0	11.6	4	3.6	4	-1E+10	1	-1E+10	1	-1E+10	1	-1E+10	1	-1E+10	1	-1E+10	1
4902551	86	C	12/30/2022	05:59	-131.370	48.032	0	967.50	0	3.2240	0	34.3480	0	27.350	0	957.148	0	11.6	4	3.6	4	-1E+10	1	-1E+10	1	-1E+10	1	-1E+10	1	-1E+10	1	-1E+10	1
4902551	86	C	12/30/2022	05:59	-131.370	48.032	0	972.50	0	3.2120	0	34.3490	0	27.352	0	962.083	0	11.6	4	3.6	4	-1E+10	1	-1E+10	1	-1E+10	1	-1E+10	1	-1E+10	1	-1E+10	1
4902551	86	C	12/30/2022	05:59	-131.370	48.032	0	977.60	0	3.1930	0	34.3530	0	27.357	0	967.117	0	11.6	4	3.6	4	-1E+10	1	-1E+10	1	-1E+10	1	-1E+10	1	-1E+10	1	-1E+10	1
4902551	86	C	12/30/2022	05:59	-131.370	48.032	0	982.70	0	3.1840	0	34.3550	0	27.360	0	972.150	0	11.6	4	3.6	4	-1E+10	1	-1E+10	1	-1E+10	1	-1E+10	1	-1E+10	1	-1E+10	1
4902551	86	C	12/30/2022	05:59	-131.370	48.032	0	987.70	0	3.1800	0	34.3560	0	27.361	0	977.085	0	11.6	4	3.6	4	-1E+10	1	-1E+10	1	-1E+10	1	-1E+10	1	-1E+10	1	-1E+10	1
4902551	86	C	12/30/2022	05:59	-131.370	48.032	0	992.70	0	3.1670	0	34.3590	0	27.364	0	982.019	0	11.6	4	3.6	4	-1E+10	1	-1E+10	1	-1E+10	1	-1E+10	1	-1E+10	1	-1E+10	1
4902551	86	C	12/30/2022	05:59	-131.370	48.032	0	997.70	0	3.1580	0	34.3610	0	27.367	0	986.954	0	11.6	4	3.6	4	-1E+10	1	-1E+10	1	-1E+10	1	-1E+10	1	-1E+10	1	-1E+10	1
4902551	86	C	12/30/2022	05:59	-131.370	48.032	0	1005.20	0	3.1480	0	34.3630	0	27.369	0	994.355	0	11.6	4	3.6	4	-1E+10	1	-1E+10	1	-1E+10	1	-1E+10	1	-1E+10	1	-1E+10	1
4902551	86	C	12/30/2022	05:59	-131.370	48.032	0	1015.20	0	3.1290	0	34.3670	0	27.374	0	1004.223	0	11.7	4	3.6	4	-1E+10	1	-1E+10	1	-1E+10	1	-1E+10	1	-1E+10	1	-1E+10	1
4902551	86	C	12/30/2022	05:59	-131.370	48.032	0	1025.30	0	3.1060	0	34.3700	0	27.379	0	1014.190	0	11.7	4	3.6	4	-1E+10	1	-1E+10	1	-1E+10	1	-1E+10	1	-1E+10	1	-1E+10	1
4902551	86	C	12/30/2022	05:59	-131.370	48.032	0	1035.50	0	3.0830	0	34.3740	0	27.384	0	1024.254	0	11.8	4	3.7	4	-1E+10	1	-1E+10	1	-1E+10	1	-1E+10	1	-1E+10	1	-1E+10	1
4902551	86	C	12/30/2022	05:59	-131.370	48.032	0	1045.70	0	3.0640	0	34.3780	0	27.389	0	1034.318	0	11.9	4	3.7	4	-1E+10	1	-1E+10	1	-1E+10	1	-1E+10	1	-1E+10	1	-1E+10	1
4902551	86	C	12/30/2022	05:59	-131.370	48.032	0	1055.80	0	3.0400	0	34.3830	0	27.396	0	1044.283	0	11.9	4	3.7	4	-1E+10	1	-1E+10	1	-1E+10	1	-1E+10	1	-1E+10	1	-1E+10	1
4902551	86	C	12/30/2022	05:59	-131.370	48.032	0	1065.80	0	3.0250	0	34.3850	0	27.399	0	1054.149	0	12.0	4	3.7	4	-1E+10	1	-1E+10	1	-1E+10	1	-1E+10	1	-1E+10	1	-1E+10	1
4902551	86	C	12/30/2022	05:59	-131.370	48.032	0	1075.80	0	3.0150	0	34.3880	0	27.402	0	1064.014	0	12.0	4	3.7	4	-1E+10	1	-1E+10	1	-1E+10	1	-1E+10	1	-1E+10	1	-1E+10	1
4902551	86	C	12/30/2022	05:59	-131.370	48.032	0	1085.80	0	2.9910	0	34.3940	0	27.409	0	1073.879	0	12.1	4	3.7	4	-1E+10	1	-1E+10	1	-1E+10	1	-1E+10	1	-1E+10	1	-1E+10	1
4902551	86	C	12/30/2022	05:59	-131.370	48.032	0	1095.40	0	2.9770	0	34.3980	0	27.413	0	1083.349	0	12.1	4	3.7	4	-1E+10	1	-1E+10	1	-1E+10	1	-1E+10	1	-1E+10	1	-1E+10	1
4902551	86	C	12/30/2022	05:59	-131.370	48.032	0	1105.60	0	2.9620	0	34.4010	0	27.417	0	1093.410	0	12.2	4	3.8	4	-1E+10	1	-1E+10	1	-1E+10	1	-1E+10	1	-1E+10	1	-1E+10	1
4902551	86	C	12/30/2022	05:59	-131.370	48.032	0	1115.40	0	2.9390	0	34.4040	0	27.422	0	1103.077	0	12.4	4	3.8	4	-1E+10	1	-1E+10	1	-1E+10	1	-1E+10	1	-1E+10	1	-1E+10	1
4902551	86	C	12/30/2022	05:59	-131.370	48.032	0	1125.30	0	2.9220	0	34.4060	0	27.425	0	1112.841	0	12.5	4	3.9	4	-1E+10	1	-1E+10	1	-1E+10	1	-1E+10	1	-1E+10	1	-1E+10	1
4902551	86	C	12/30/2022	05:59	-131.370	48.032	0	1135.60	0	2.9060	0	34.4090	0	27.429	0	1122.999	0	12.6	4	3.9	4	-1E+10	1	-1E+10	1	-1E+10	1	-1E+10	1	-1E+10	1	-1E+10	1
4902551	86	C	12/30/2022	05:59	-131.370	48.032	0	1145.80	0	2.8860	0	34.4110	0	27.432	0	1133.059	0	12.8	4	3.9	4	-1E+10	1	-1E+10	1	-1E+10	1	-1E+10	1	-1E+10	1	-1E+10	1
4902551	86	C	12/30/2022	05:59	-131.370	48.032	0	1155.50	0	2.8670	0	34.4140	0	27.436	0	1142.625	0	12.9	4	4.0	4	-1E+10	1	-1E+10	1	-1E+10	1	-1E+10	1	-1E+10	1	-1E+10	1
4902551	86	C	12/30/2022	05:59	-131.370	48.032	0	1165.10	0	2.8550	0	34.4160	0	27.439	0	1152.091	0	13.0	4	4.0	4	-1E+10	1	-1E+10	1	-1E+10	1	-1E+10	1	-1E+10	1	-1E+10	1
4902551	86	C	12/30/2022	05:59	-131.370	48.032	0	1175.10	0	2.8380	0	34.4180	0	27.442	0	1161.952	0	13.2	4	4.1	4	-1E+10	1	-1E+10	1	-1E+10	1	-1E+10	1	-1E+10	1	-1E+10	1
4902551	86	C	12/30/2022	05:59	-131.370	48.032	0	1185.30	0	2.8250	0	34.4210	0	27.446	0	1172.009	0	13.3	4	4.1	4	-1E+10	1	-1E+10	1	-1E+10	1	-1E+10	1	-1E+10	1	-1E+10	1
4902551	86	C	12/30/2022	05:59	-131.370	48.032	0	1195.20	0	2.8150	0	34.4230	0	27.448	0	1181.771	0	13.5	4	4.1	4	-1E+10	1	-1E+10	1	-1E+10	1	-1E+10	1	-1E+10	1	-1E+10	1
4902551	86	C	12/30/2022	05:59	-131.370	48.032	0	1205.30	0	2.8030	0	34.4260	0	27.452	0	1191.729	0	13.6	4	4.2	4	-1E+10	1	-1E+10	1	-1E+10	1	-1E+10	1	-1E+10	1	-1E+10	1
4902551	86	C	12/30/2022	05:59	-131.370	48.032	0	1215.50	0	2.7860	0	34.4290	0	27.456	0	1201.785	0	13.8	4	4.3	4	-1E+10	1	-1E+10	1	-1E+10	1	-1E+10	1	-1E+10	1	-1E+10	1
4902551	86	C	12/30/2022	05:59	-131.370	48.032	0	1225.10	0	2.7790	0	34.4310	0	27.458	0	1211.249	0	14.0	4	4.3	4	-1E+10	1	-1E+10	1	-1E+10	1	-1E+10	1	-1E+10	1	-1E+10	1
4902551	86	C	12/30/2022	05:59	-131.370	48.032	0	1235.40	0	2.7650	0	34.4340	0	27.462	0	1221.402	0	14.3	4	4.4	4	-1E+10	1	-1E+10	1	-1E+10	1	-1E+10	1	-1E+10	1	-1E+10	1
4902551	86	C	12/30/2022	05:59	-131.370	48.032	0	1245.80	0	2.7470	0	34.4370	0	27.466	0	1231.654	0	14.6	4	4.5	4	-1E+10	1	-1E+10	1	-1E+10	1	-1E+10	1	-1E+10	1	-1E+10	1
4902551	86	C	12/30/2022	05:59	-131.370	48.032	0	1255.30	0	2.7290	0	34.4400	0	27.470	0	1241.018	0	14.9	4	4.6	4	-1E+10	1	-1E+10	1	-1E+10	1	-1E+10	1	-1E+10	1	-1E+10	1
4902551	86	C	12/30/2022	05:59	-131.370	48.032	0	1265.40	0	2.7100	0	34.4430	0	27.474	0	1250.973	0	15.0	4	4.6	4	-1E+10	1	-1E+10	1	-1E+10	1	-1E+10	1	-1E+10	1	-1E+10	1
4902551	86	C	12/30/2022	05:59	-131.370	48.032	0	1275.50	0	2.7000	0	34.4450	0	27.476	0	1260.928	0	15.2	4	4.7	4	-1E+10	1	-1E+10	1	-1E+10	1	-1E+10	1	-1E+10	1	-1E+10	1
4902551	86	C	12/30/2022	05:59	-131.370	48.032	0	1285.60	0	2.6830	0	34.4480	0	27.480	0	1270.882	0	15.5	4	4.8	4	-1E+10	1	-1E+10	1	-1E+10	1	-1E+10	1	-1E+10	1	-1E+10	1
4902551	86	C	12/30/2022	05:59	-131.370	48.032	0	1295.60	0	2.6670	0	34.4510	0	27.484	0	1280.737	0	15.8	4	4.8	4	-1E+10	1	-1E+10	1	-1E+10	1	-1E+10	1	-1E+10	1	-1E+10	1
4902551	86	C	12/30/2022	05:59	-131.370	48.032	0	1305.60	0	2.6580	0	34.4520	0	27.486	0	1290.592	0	16.0	4	4.9	4	-1E+10	1	-1E+10	1	-1E+10	1	-1E+10	1	-1E+10	1	-1E+10	1
4902551	86	C	12/30/2022	05:59	-131.370	48.032	0	1315.70	0	2.6440	0	34.4550	0	27.489	0	1300.544	0	16.3	4	5.0	4	-1E+10	1	-1E+10	1	-1E+10	1	-1E+10	1	-1E+10	1	-1E+10	1
4902551	86	C	12/30/2022	05:59	-131.370	48.032	0	1325.40	0	2.6340	0	34.4570	0	27.492	0	1310.103	0	16.6	4	5.1	4	-1E+10	1	-1E+10	1	-1E+10	1	-1E+10	1	-1E+10	1	-1E+10	1
4902551	86	C	12/30/2022	05:59	-131.370	48.032	0	1335.30	0	2.6250	0	34.4590	0	27.494	0	1319.857	0	16.9	4	5.2	4	-1E+10	1	-1E+10	1	-1E+10	1	-1E+10	1	-1E+10	1	-1E+10	1
4902551	86	C	12/30/2022	05:59	-131.370	48.032	0	1345.60	0	2.6030	0	34.4620	0	27.499	0	1330.006	0	17.2	4	5.3	4	-1E+10	1	-1E+10	1	-1E+10	1	-1E+10	1	-1E+10	1	-1E+10	1
4902551	86	C	12/30/2022	05:59	-131.370	48.032	0	1355.40	0	2.5800	0	34.4650	0	27.503	0	1339.661	0	17.5	4	5.4	4	-1E+10	1	-1E+10	1	-1E+10	1	-1E+10	1	-1E+10	1	-1E+10	1
4902551	86	C	12/30/2022	05:59	-131.370	48.032	0	1365.20	0	2.5650	0	34.4680	0	27.507	0	1349.316	0	18.0	4	5.5	4	-1E+10	1	-1E+10	1	-1E+10	1	-1E+10	1	-1E+10	1	-1E+10	1
4902551	86	C	12/30/2022	05:59	-131.370	48.032	0	1375.20	0	2.5480	0	34.4720	0	27.512	0	1359.167	0	18.4	4	5.6	4	-1E+10	1	-1E+10	1	-1E+10	1	-1E+10	1	-1E+10	1	-1E+10	1
4902551	86	C	12/30/2022	05:59	-131.370	48.032	0	1385.60	0	2.5300	0	34.4750	0	27.515	0	1369.412	0	18.8	4	5.7	4	-1E+10	1	-1E+10	1	-1E+10	1	-1E+10	1	-1E+10	1	-1E+10	1
4902551	86	C	12/30/2022	05:59	-131.370	48.032	0	1395.70	0	2.5190	0	34.4770	0	27.518	0	1379.361	0	19.1	4	5.8	4	-1E+10	1	-1E+10	1	-1E+10	1	-1E+10	1	-1E+10	1	-1E+10	1
4902551	86	C	12/30/2022	05:59	-131.370	48.032	0	1405.50	0	2.5080	0	34.4790	0	27.521	0	1389.014	0	19.4	4	5.9	4	-1E+10	1	-1E+10	1	-1E+10	1	-1E+10	1	-1E+10	1	-1E+10	1
4902551	86	C	12/30/2022	05:59	-131.370	48.032	0	1415.50	0	2.5000	0	34.4800	0	27.522	0	1398.864	0	19.8	4	6.0	4	-1E+10	1	-1E+10	1	-1E+10	1	-1E+10	1	-1E+10	1	-1E+10	1
4902551	86	C	12/30/2022	05:59	-131.370	48.032	0	1425.40	0	2.4830	0	34.4830	0	27.526	0	1408.615	0	20.3	4	6.2	4	-1E+10	1	-1E+10	1	-1E+10	1	-1E+10	1	-1E+10	1	-1E+10	1
4902551	86	C	12/30/2022	05:59	-131.370	48.032	0	1435.60	0	2.4700	0	34.4860	0	27.530	0	1418.660	0	20.8	4	6.3	4	-1E+10	1	-1E+10	1	-1E+10	1	-1E+10	1	-1E+10	1	-1E+10	1
4902551	86	C	12/30/2022	05:59	-131.370	48.032	0	1445.20	0	2.4580	0	34.4870	0	27.531	0	1428.114	0	21.2	4	6.4	4	-1E+10	1	-1E+10	1	-1E+10	1	-1E+10	1	-1E+10	1	-1E+10	1
4902551	86	C	12/30/2022	05:59	-131.370	48.032	0	1455.50	0	2.4460	0	34.4890	0	27.534	0	1438.258	0	21.7	4	6.6	4	-1E+10	1	-1E+10	1	-1E+10	1	-1E+10	1	-1E+10	1	-1E+10	1
4902551	86	C	12/30/2022	05:59	-131.370	48.032	0	1465.30	0	2.4320	0	34.4920	0	27.538	0	1447.908	0	22.3	4	6.8	4	-1E+10	1	-1E+10	1	-1E+10	1	-1E+10	1	-1E+10	1	-1E+10	1
4902551	86	C	12/30/2022	05:59	-131.370	48.032	0	1475.30	0	2.4170	0	34.4950	0	27.541	0	1457.755	0	22.8	4	7.0	4	-1E+10	1	-1E+10	1	-1E+10	1	-1E+10	1	-1E+10	1	-1E+10	1
4902551	86	C	12/30/2022	05:59	-131.370	48.032	0	1485.70	0	2.4050	0	34.4970	0	27.544	0	1467.995	0	23.3	4	7.1	4	-1E+10	1	-1E+10	1	-1E+10	1	-1E+10	1	-1E+10	1	-1E+10	1
4902551	86	C	12/30/2022	05:59	-131.370	48.032	0	1495.30	0	2.3920	0	34.4990	0	27.547	0	1477.447	0	23.8	4	7.2	4	-1E+10	1	-1E+10	1	-1E+10	1	-1E+10	1	-1E+10	1	-1E+10	1
4902551	86	C	12/30/2022	05:59	-131.370	48.032	0	1505.10	0	2.3750	0	34.5020	0	27.551	0	1487.096	0	24.0	4	7.3	4	-1E+10	1	-1E+10	1	-1E+10	1	-1E+10	1	-1E+10	1	-1E+10	1
4902551	86	C	12/30/2022	05:59	-131.370	48.032	0	1515.40	0	2.3630	0	34.5030	0	27.552	0	1497.236	0	24.2	4	7.4	4	-1E+10	1	-1E+10	1	-1E+10	1	-1E+10	1	-1E+10	1	-1E+10	1
4902551	86	C	12/30/2022	05:59	-131.370	48.032	0	1525.30	0	2.3590	0	34.5040	0	27.554	0	1506.982	0	24.5	4	7.5	4	-1E+10	1	-1E+10	1	-1E+10	1	-1E+10	1	-1E+10	1	-1E+10	1
4902551	86	C	12/30/2022	05:59	-131.370	48.032	0	1535.30	0	2.3510	0	34.5050	0	27.555	0	1516.826	0	25.1	4	7.6	4	-1E+10	1	-1E+10	1	-1E+10	1	-1E+10	1	-1E+10	1	-1E+10	1
4902551	86	C	12/30/2022	05:59	-131.370	48.032	0	1545.50	0	2.3350	0	34.5080	0	27.559	0	1526.867	0	25.8	4	7.9	4	-1E+10	1	-1E+10	1	-1E+10	1	-1E+10	1	-1E+10	1	-1E+10	1
4902551	86	C	12/30/2022	05:59	-131.370	48.032	0	1555.60	0	2.3260	0	34.5100	0	27.561	0	1536.808	0	26.3	4	8.0	4	-1E+10	1	-1E+10	1	-1E+10	1	-1E+10	1	-1E+10	1	-1E+10	1
4902551	86	C	12/30/2022	05:59	-131.370	48.032	0	1565.60	0	2.3170	0	34.5110	0	27.563	0	1546.651	0	26.9	4	8.2	4	-1E+10	1	-1E+10	1	-1E+10	1	-1E+10	1	-1E+10	1	-1E+10	1
4902551	86	C	12/30/2022	05:59	-131.370	48.032	0	1575.60	0	2.2970	0	34.5150	0	27.568	0	1556.493	0	27.6	4	8.4	4	-1E+10	1	-1E+10	1	-1E+10	1	-1E+10	1	-1E+10	1	-1E+10	1
4902551	86	C	12/30/2022	05:59	-131.370	48.032	0	1585.40	0	2.2870	0	34.5170	0	27.570	0	1566.138	0	28.1	4	8.5	4	-1E+10	1	-1E+10	1	-1E+10	1	-1E+10	1	-1E+10	1	-1E+10	1
4902551	86	C	12/30/2022	05:59	-131.370	48.032	0	1595.00	0	2.2730	0	34.5190	0	27.573	0	1575.586	0	28.7	4	8.7	4	-1E+10	1	-1E+10	1	-1E+10	1	-1E+10	1	-1E+10	1	-1E+10	1
4902551	86	C	12/30/2022	05:59	-131.370	48.032	0	1605.40	0	2.2640	0	34.5210	0	27.575	0	1585.820	0	29.2	4	8.9	4	-1E+10	1	-1E+10	1	-1E+10	1	-1E+10	1	-1E+10	1	-1E+10	1
4902551	86	C	12/30/2022	05:59	-131.370	48.032	0	1615.50	0	2.2550	0	34.5220	0	27.577	0	1595.759	0	29.9	4	9.1	4	-1E+10	1	-1E+10	1	-1E+10	1	-1E+10	1	-1E+10	1	-1E+10	1
4902551	86	C	12/30/2022	05:59	-131.370	48.032	0	1625.50	0	2.2400	0	34.5250	0	27.581	0	1605.599	0	30.7	4	9.3	4	-1E+10	1	-1E+10	1	-1E+10	1	-1E+10	1	-1E+10	1	-1E+10	1
4902551	86	C	12/30/2022	05:59	-131.370	48.032	0	1635.50	0	2.2290	0	34.5270	0	27.583	0	1615.438	0	31.4	4	9.5	4	-1E+10	1	-1E+10	1	-1E+10	1	-1E+10	1	-1E+10	1	-1E+10	1
4902551	86	C	12/30/2022	05:59	-131.370	48.032	0	1645.40	0	2.2150	0	34.5300	0	27.587	0	1625.179	0	32.2	4	9.8	4	-1E+10	1	-1E+10	1	-1E+10	1	-1E+10	1	-1E+10	1	-1E+10	1
4902551	86	C	12/30/2022	05:59	-131.370	48.032	0	1655.40	0	2.2020	0	34.5320	0	27.590	0	1635.017	0	33.0	4	10.0	4	-1E+10	1	-1E+10	1	-1E+10	1	-1E+10	1	-1E+10	1	-1E+10	1
4902551	86	C	12/30/2022	05:59	-131.370	48.032	0	1665.40	0	2.1930	0	34.5340	0	27.592	0	1644.855	0	33.6	4	10.2	4	-1E+10	1	-1E+10	1	-1E+10	1	-1E+10	1	-1E+10	1	-1E+10	1
4902551	86	C	12/30/2022	05:59	-131.370	48.032	0	1675.50	0	2.1820	0	34.5360	0	27.594	0	1654.791	0	34.3	4	10.4	4	-1E+10	1	-1E+10	1	-1E+10	1	-1E+10	1	-1E+10	1	-1E+10	1
4902551	86	C	12/30/2022	05:59	-131.370	48.032	0	1685.50	0	2.1700	0	34.5380	0	27.597	0	1664.629	0	35.1	4	10.6	4	-1E+10	1	-1E+10	1	-1E+10	1	-1E+10	1	-1E+10	1	-1E+10	1
4902551	86	C	12/30/2022	05:59	-131.370	48.032	0	1695.50	0	2.1590	0	34.5400	0	27.600	0	1674.465	0	35.9	4	10.9	4	-1E+10	1	-1E+10	1	-1E+10	1	-1E+10	1	-1E+10	1	-1E+10	1
4902551	86	C	12/30/2022	05:59	-131.370	48.032	0	1705.50	0	2.1460	0	34.5420	0	27.602	0	1684.302	0	36.6	4	11.1	4	-1E+10	1	-1E+10	1	-1E+10	1	-1E+10	1	-1E+10	1	-1E+10	1
4902551	86	C	12/30/2022	05:59	-131.370	48.032	0	1715.30	0	2.1340	0	34.5450	0	27.606	0	1693.941	0	37.2	4	11.3	4	-1E+10	1	-1E+10	1	-1E+10	1	-1E+10	1	-1E+10	1	-1E+10	1
4902551	86	C	12/30/2022	05:59	-131.370	48.032	0	1725.40	0	2.1270	0	34.5460	0	27.607	0	1703.874	0	37.8	4	11.4	4	-1E+10	1	-1E+10	1	-1E+10	1	-1E+10	1	-1E+10	1	-1E+10	1
4902551	86	C	12/30/2022	05:59	-131.370	48.032	0	1735.20	0	2.1190	0	34.5480	0	27.609	0	1713.512	0	38.5	4	11.6	4	-1E+10	1	-1E+10	1	-1E+10	1	-1E+10	1	-1E+10	1	-1E+10	1
4902551	86	C	12/30/2022	05:59	-131.370	48.032	0	1745.20	0	2.1110	0	34.5490	0	27.611	0	1723.347	0	39.3	4	11.9	4	-1E+10	1	-1E+10	1	-1E+10	1	-1E+10	1	-1E+10	1	-1E+10	1
4902551	86	C	12/30/2022	05:59	-131.370	48.032	0	1755.10	0	2.1020	0	34.5520	0	27.614	0	1733.083	0	40.3	4	12.2	4	-1E+10	1	-1E+10	1	-1E+10	1	-1E+10	1	-1E+10	1	-1E+10	1
4902551	86	C	12/30/2022	05:59	-131.370	48.032	0	1765.40	0	2.0950	0	34.5530	0	27.615	0	1743.211	0	41.1	4	12.4	4	-1E+10	1	-1E+10	1	-1E+10	1	-1E+10	1	-1E+10	1	-1E+10	1
4902551	86	C	12/30/2022	05:59	-131.370	48.032	0	1775.50	0	2.0860	0	34.5550	0	27.618	0	1753.143	0	42.0	4	12.7	4	-1E+10	1	-1E+10	1	-1E+10	1	-1E+10	1	-1E+10	1	-1E+10	1
4902551	86	C	12/30/2022	05:59	-131.370	48.032	0	1785.50	0	2.0770	0	34.5570	0	27.620	0	1762.975	0	43.0	4	13.0	4	-1E+10	1	-1E+10	1	-1E+10	1	-1E+10	1	-1E+10	1	-1E+10	1
4902551	86	C	12/30/2022	05:59	-131.370	48.032	0	1795.30	0	2.0670	0	34.5590	0	27.623	0	1772.611	0	43.7	4	13.2	4	-1E+10	1	-1E+10	1	-1E+10	1	-1E+10	1	-1E+10	1	-1E+10	1
4902551	86	C	12/30/2022	05:59	-131.370	48.032	0	1805.30	0	2.0620	0	34.5600	0	27.624	0	1782.442	0	44.4	4	13.4	4	-1E+10	1	-1E+10	1	-1E+10	1	-1E+10	1	-1E+10	1	-1E+10	1
4902551	86	C	12/30/2022	05:59	-131.370	48.032	0	1815.50	0	2.0530	0	34.5620	0	27.626	0	1792.470	0	45.1	4	13.6	4	-1E+10	1	-1E+10	1	-1E+10	1	-1E+10	1	-1E+10	1	-1E+10	1
4902551	86	C	12/30/2022	05:59	-131.370	48.032	0	1825.40	0	2.0480	0	34.5630	0	27.627	0	1802.203	0	45.6	4	13.8	4	-1E+10	1	-1E+10	1	-1E+10	1	-1E+10	1	-1E+10	1	-1E+10	1
4902551	86	C	12/30/2022	05:59	-131.370	48.032	0	1835.50	0	2.0440	0	34.5640	0	27.629	0	1812.131	0	46.4	4	14.0	4	-1E+10	1	-1E+10	1	-1E+10	1	-1E+10	1	-1E+10	1	-1E+10	1
4902551	86	C	12/30/2022	05:59	-131.370	48.032	0	1845.60	0	2.0290	0	34.5670	0	27.632	0	1822.059	0	47.3	4	14.3	4	-1E+10	1	-1E+10	1	-1E+10	1	-1E+10	1	-1E+10	1	-1E+10	1
4902551	86	C	12/30/2022	05:59	-131.370	48.032	0	1855.20	0	2.0230	0	34.5680	0	27.634	0	1831.496	0	47.8	4	14.4	4	-1E+10	1	-1E+10	1	-1E+10	1	-1E+10	1	-1E+10	1	-1E+10	1
4902551	86	C	12/30/2022	05:59	-131.370	48.032	0	1865.40	0	2.0150	0	34.5700	0	27.636	0	1841.521	0	48.3	4	14.6	4	-1E+10	1	-1E+10	1	-1E+10	1	-1E+10	1	-1E+10	1	-1E+10	1
4902551	86	C	12/30/2022	05:59	-131.370	48.032	0	1875.60	0	2.0110	0	34.5700	0	27.636	0	1851.546	0	48.8	4	14.7	4	-1E+10	1	-1E+10	1	-1E+10	1	-1E+10	1	-1E+10	1	-1E+10	1
4902551	86	C	12/30/2022	05:59	-131.370	48.032	0	1885.60	0	2.0040	0	34.5720	0	27.638	0	1861.374	0	49.5	4	14.9	4	-1E+10	1	-1E+10	1	-1E+10	1	-1E+10	1	-1E+10	1	-1E+10	1
4902551	86	C	12/30/2022	05:59	-131.370	48.032	0	1895.50	0	1.9950	0	34.5730	0	27.640	0	1871.103	0	50.0	4	15.1	4	-1E+10	1	-1E+10	1	-1E+10	1	-1E+10	1	-1E+10	1	-1E+10	1
4902551	86	C	12/30/2022	05:59	-131.370	48.032	0	1905.50	0	1.9900	0	34.5740	0	27.641	0	1880.931	0	50.5	4	15.2	4	-1E+10	1	-1E+10	1	-1E+10	1	-1E+10	1	-1E+10	1	-1E+10	1
4902551	86	C	12/30/2022	05:59	-131.370	48.032	0	1915.70	0	1.9820	0	34.5760	0	27.643	0	1890.954	0	51.3	4	15.4	4	-1E+10	1	-1E+10	1	-1E+10	1	-1E+10	1	-1E+10	1	-1E+10	1
4902551	86	C	12/30/2022	05:59	-131.370	48.032	0	1925.60	0	1.9730	0	34.5770	0	27.645	0	1900.682	0	51.9	4	15.6	4	-1E+10	1	-1E+10	1	-1E+10	1	-1E+10	1	-1E+10	1	-1E+10	1
4902551	86	C	12/30/2022	05:59	-131.370	48.032	0	1935.50	0	1.9680	0	34.5790	0	27.647	0	1910.409	0	52.5	4	15.8	4	-1E+10	1	-1E+10	1	-1E+10	1	-1E+10	1	-1E+10	1	-1E+10	1
4902551	86	C	12/30/2022	05:59	-131.370	48.032	0	1945.40	0	1.9610	0	34.5800	0	27.648	0	1920.136	0	53.0	4	16.0	4	-1E+10	1	-1E+10	1	-1E+10	1	-1E+10	1	-1E+10	1	-1E+10	1
4902551	86	C	12/30/2022	05:59	-131.370	48.032	0	1955.30	0	1.9560	0	34.5810	0	27.650	0	1929.863	0	53.4	4	16.1	4	-1E+10	1	-1E+10	1	-1E+10	1	-1E+10	1	-1E+10	1	-1E+10	1
4902551	86	C	12/30/2022	05:59	-131.370	48.032	0	1965.40	0	1.9490	0	34.5820	0	27.651	0	1939.786	0	53.7	4	16.2	4	-1E+10	1	-1E+10	1	-1E+10	1	-1E+10	1	-1E+10	1	-1E+10	1
4902551	86	C	12/30/2022	05:59	-131.370	48.032	0	1975.60	0	1.9430	0	34.5830	0	27.652	0	1949.806	0	54.1	4	16.3	4	-1E+10	1	-1E+10	1	-1E+10	1	-1E+10	1	-1E+10	1	-1E+10	1
4902551	86	C	12/30/2022	05:59	-131.370	48.032	0	1985.30	0	1.9340	0	34.5850	0	27.655	0	1959.335	0	54.7	4	16.5	4	-1E+10	1	-1E+10	1	-1E+10	1	-1E+10	1	-1E+10	1	-1E+10	1
4902551	86	C	12/30/2022	05:59	-131.370	48.032	0	1995.20	0	1.9260	0	34.5860	0	27.656	0	1969.059	0	55.2	4	16.6	4	-1E+10	1	-1E+10	1	-1E+10	1	-1E+10	1	-1E+10	1	-1E+10	1
4902551	86	C	12/30/2022	05:59	-131.370	48.032	0	2005.60	0	1.9220	0	34.5870	0	27.657	0	1979.275	0	55.5	4	16.7	4	-1E+10	1	-1E+10	1	-1E+10	1	-1E+10	1	-1E+10	1	-1E+10	1
4902551	86	C	12/30/2022	05:59	-131.370	48.032	0	2016.20	0	1.9170	0	34.5880	0	27.659	0	1989.686	0	55.6	4	16.7	4	-1E+10	1	-1E+10	1	-1E+10	1	-1E+10	1	-1E+10	1	-1E+10	1
4902551	86	C	12/30/2022	05:59	-131.370	48.032	0	2020.90	0	1.9150	0	34.5890	0	27.660	0	1994.303	0	55.4	4	16.7	4	-1E+10	1	-1E+10	1	-1E+10	1	-1E+10	1	-1E+10	1	-1E+10	1
4902551	86	C	12/30/2022	05:59	-131.370	48.032	0																										
4902551	87	C	01/09/2023	11:04	-131.335	47.994	0	0.20	0	9.0640	0	32.3280	0	25.017	0	0.198	0	263.0	4	92.1	4	-1E+10	1	-1E+10	1	-1E+10	1	-1E+10	1	-1E+10	1	-1E+10	1
4902551	87	C	01/09/2023	11:04	-131.335	47.994	0	0.40	0	9.0640	0	32.3282	0	25.017	0	0.397	0	-1e10	1	-1e10	1	-1E+10	1	-1E+10	1	-1E+10	1	-1E+10	1	-1E+10	1	-1E+10	1
4902551	87	C	01/09/2023	11:04	-131.335	47.994	0	0.50	0	9.0640	0	32.3284	0	25.017	0	0.496	0	-1e10	1	-1e10	1	-1E+10	1	-1E+10	1	-1E+10	1	-1E+10	1	-1E+10	1	-1E+10	1
4902551	87	C	01/09/2023	11:04	-131.335	47.994	0	0.60	0	9.0640	0	32.3285	0	25.017	0	0.595	0	-1e10	1	-1e10	1	-1E+10	1	-1E+10	1	-1E+10	1	-1E+10	1	-1E+10	1	-1E+10	1
4902551	87	C	01/09/2023	11:04	-131.335	47.994	0	1.00	0	9.0640	0	32.3290	0	25.018	0	0.992	0	262.9	4	92.0	4	-1E+10	1	-1E+10	1	-1E+10	1	-1E+10	1	-1E+10	1	-1E+10	1
4902551	87	C	01/09/2023	11:04	-131.335	47.994	0	1.10	0	9.0642	0	32.3288	0	25.017	0	1.091	0	-1e10	1	-1e10	1	-1E+10	1	-1E+10	1	-1E+10	1	-1E+10	1	-1E+10	1	-1E+10	1
4902551	87	C	01/09/2023	11:04	-131.335	47.994	0	1.20	0	9.0645	0	32.3285	0	25.017	0	1.190	0	-1e10	1	-1e10	1	-1E+10	1	-1E+10	1	-1E+10	1	-1E+10	1	-1E+10	1	-1E+10	1
4902551	87	C	01/09/2023	11:04	-131.335	47.994	0	1.50	0	9.0653	0	32.3278	0	25.016	0	1.487	0	-1e10	1	-1e10	1	-1E+10	1	-1E+10	1	-1E+10	1	-1E+10	1	-1E+10	1	-1E+10	1
4902551	87	C	01/09/2023	11:04	-131.335	47.994	0	1.80	0	9.0660	0	32.3270	0	25.016	0	1.785	0	-1e10	1	-1e10	1	-1E+10	1	-1E+10	1	-1E+10	1	-1E+10	1	-1E+10	1	-1E+10	1
4902551	87	C	01/09/2023	11:04	-131.335	47.994	0	1.90	0	9.0661	0	32.3270	0	25.016	0	1.884	0	262.9	4	92.0	4	-1E+10	1	-1E+10	1	-1E+10	1	-1E+10	1	-1E+10	1	-1E+10	1
4902551	87	C	01/09/2023	11:04	-131.335	47.994	0	2.90	0	9.0670	0	32.3270	0	25.016	0	2.876	0	262.9	4	92.0	4	-1E+10	1	-1E+10	1	-1E+10	1	-1E+10	1	-1E+10	1	-1E+10	1
4902551	87	C	01/09/2023	11:04	-131.335	47.994	0	4.20	0	9.0670	0	32.3280	0	25.016	0	4.165	0	262.9	4	92.0	4	-1E+10	1	-1E+10	1	-1E+10	1	-1E+10	1	-1E+10	1	-1E+10	1
4902551	87	C	01/09/2023	11:04	-131.335	47.994	0	5.10	0	9.0670	0	32.3280	0	25.016	0	5.057	0	262.8	4	92.0	4	-1E+10	1	-1E+10	1	-1E+10	1	-1E+10	1	-1E+10	1	-1E+10	1
4902551	87	C	01/09/2023	11:04	-131.335	47.994	0	5.90	0	9.0670	0	32.3280	0	25.016	0	5.850	0	262.8	4	92.0	4	-1E+10	1	-1E+10	1	-1E+10	1	-1E+10	1	-1E+10	1	-1E+10	1
4902551	87	C	01/09/2023	11:04	-131.335	47.994	0	6.90	0	9.0670	0	32.3280	0	25.016	0	6.842	0	262.8	4	92.0	4	-1E+10	1	-1E+10	1	-1E+10	1	-1E+10	1	-1E+10	1	-1E+10	1
4902551	87	C	01/09/2023	11:04	-131.335	47.994	0	8.00	0	9.0700	0	32.3280	0	25.016	0	7.933	0	262.8	4	92.0	4	-1E+10	1	-1E+10	1	-1E+10	1	-1E+10	1	-1E+10	1	-1E+10	1
4902551	87	C	01/09/2023	11:04	-131.335	47.994	0	9.00	0	9.0690	0	32.3280	0	25.016	0	8.924	0	262.8	4	92.0	4	-1E+10	1	-1E+10	1	-1E+10	1	-1E+10	1	-1E+10	1	-1E+10	1
4902551	87	C	01/09/2023	11:04	-131.335	47.994	0	10.20	0	9.0700	0	32.3280	0	25.016	0	10.114	0	262.7	4	92.0	4	-1E+10	1	-1E+10	1	-1E+10	1	-1E+10	1	-1E+10	1	-1E+10	1
4902551	87	C	01/09/2023	11:04	-131.335	47.994	0	10.90	0	9.0710	0	32.3280	0	25.016	0	10.808	0	262.7	4	92.0	4	-1E+10	1	-1E+10	1	-1E+10	1	-1E+10	1	-1E+10	1	-1E+10	1
4902551	87	C	01/09/2023	11:04	-131.335	47.994	0	12.10	0	9.0710	0	32.3280	0	25.016	0	11.998	0	262.7	4	92.0	4	-1E+10	1	-1E+10	1	-1E+10	1	-1E+10	1	-1E+10	1	-1E+10	1
4902551	87	C	01/09/2023	11:04	-131.335	47.994	0	12.90	0	9.0720	0	32.3280	0	25.016	0	12.791	0	262.6	4	91.9	4	-1E+10	1	-1E+10	1	-1E+10	1	-1E+10	1	-1E+10	1	-1E+10	1
4902551	87	C	01/09/2023	11:04	-131.335	47.994	0	13.90	0	9.0720	0	32.3280	0	25.016	0	13.783	0	262.7	4	92.0	4	-1E+10	1	-1E+10	1	-1E+10	1	-1E+10	1	-1E+10	1	-1E+10	1
4902551	87	C	01/09/2023	11:04	-131.335	47.994	0	15.20	0	9.0710	0	32.3280	0	25.016	0	15.072	0	262.7	4	92.0	4	-1E+10	1	-1E+10	1	-1E+10	1	-1E+10	1	-1E+10	1	-1E+10	1
4902551	87	C	01/09/2023	11:04	-131.335	47.994	0	16.00	0	9.0710	0	32.3280	0	25.016	0	15.865	0	262.6	4	91.9	4	-1E+10	1	-1E+10	1	-1E+10	1	-1E+10	1	-1E+10	1	-1E+10	1
4902551	87	C	01/09/2023	11:04	-131.335	47.994	0	17.20	0	9.0720	0	32.3280	0	25.016	0	17.055	0	262.6	4	91.9	4	-1E+10	1	-1E+10	1	-1E+10	1	-1E+10	1	-1E+10	1	-1E+10	1
4902551	87	C	01/09/2023	11:04	-131.335	47.994	0	18.10	0	9.0730	0	32.3280	0	25.016	0	17.947	0	262.7	4	91.9	4	-1E+10	1	-1E+10	1	-1E+10	1	-1E+10	1	-1E+10	1	-1E+10	1
4902551	87	C	01/09/2023	11:04	-131.335	47.994	0	18.80	0	9.0720	0	32.3280	0	25.016	0	18.641	0	262.6	4	91.9	4	-1E+10	1	-1E+10	1	-1E+10	1	-1E+10	1	-1E+10	1	-1E+10	1
4902551	87	C	01/09/2023	11:04	-131.335	47.994	0	19.70	0	9.0710	0	32.3280	0	25.016	0	19.534	0	262.6	4	91.9	4	-1E+10	1	-1E+10	1	-1E+10	1	-1E+10	1	-1E+10	1	-1E+10	1
4902551	87	C	01/09/2023	11:04	-131.335	47.994	0	21.10	0	9.0700	0	32.3280	0	25.016	0	20.922	0	262.6	4	91.9	4	-1E+10	1	-1E+10	1	-1E+10	1	-1E+10	1	-1E+10	1	-1E+10	1
4902551	87	C	01/09/2023	11:04	-131.335	47.994	0	22.10	0	9.0700	0	32.3280	0	25.016	0	21.913	0	262.6	4	91.9	4	-1E+10	1	-1E+10	1	-1E+10	1	-1E+10	1	-1E+10	1	-1E+10	1
4902551	87	C	01/09/2023	11:04	-131.335	47.994	0	23.00	0	9.0690	0	32.3280	0	25.016	0	22.806	0	262.6	4	91.9	4	-1E+10	1	-1E+10	1	-1E+10	1	-1E+10	1	-1E+10	1	-1E+10	1
4902551	87	C	01/09/2023	11:04	-131.335	47.994	0	24.00	0	9.0700	0	32.3280	0	25.016	0	23.797	0	262.5	4	91.9	4	-1E+10	1	-1E+10	1	-1E+10	1	-1E+10	1	-1E+10	1	-1E+10	1
4902551	87	C	01/09/2023	11:04	-131.335	47.994	0	25.00	0	9.0700	0	32.3280	0	25.016	0	24.789	0	262.5	4	91.9	4	-1E+10	1	-1E+10	1	-1E+10	1	-1E+10	1	-1E+10	1	-1E+10	1
4902551	87	C	01/09/2023	11:04	-131.335	47.994	0	25.90	0	9.0720	0	32.3280	0	25.016	0	25.681	0	262.5	4	91.9	4	-1E+10	1	-1E+10	1	-1E+10	1	-1E+10	1	-1E+10	1	-1E+10	1
4902551	87	C	01/09/2023	11:04	-131.335	47.994	0	26.90	0	9.0710	0	32.3280	0	25.016	0	26.673	0	262.5	4	91.9	4	-1E+10	1	-1E+10	1	-1E+10	1	-1E+10	1	-1E+10	1	-1E+10	1
4902551	87	C	01/09/2023	11:04	-131.335	47.994	0	27.80	0	9.0720	0	32.3280	0	25.016	0	27.565	0	262.5	4	91.9	4	-1E+10	1	-1E+10	1	-1E+10	1	-1E+10	1	-1E+10	1	-1E+10	1
4902551	87	C	01/09/2023	11:04	-131.335	47.994	0	28.70	0	9.0720	0	32.3280	0	25.016	0	28.457	0	262.6	4	91.9	4	-1E+10	1	-1E+10	1	-1E+10	1	-1E+10	1	-1E+10	1	-1E+10	1
4902551	87	C	01/09/2023	11:04	-131.335	47.994	0	30.10	0	9.0730	0	32.3280	0	25.016	0	29.845	0	262.5	4	91.9	4	-1E+10	1	-1E+10	1	-1E+10	1	-1E+10	1	-1E+10	1	-1E+10	1
4902551	87	C	01/09/2023	11:04	-131.335	47.994	0	31.00	0	9.0730	0	32.3280	0	25.016	0	30.738	0	262.4	4	91.9	4	-1E+10	1	-1E+10	1	-1E+10	1	-1E+10	1	-1E+10	1	-1E+10	1
4902551	87	C	01/09/2023	11:04	-131.335	47.994	0	32.00	0	9.0730	0	32.3280	0	25.016	0	31.729	0	262.5	4	91.9	4	-1E+10	1	-1E+10	1	-1E+10	1	-1E+10	1	-1E+10	1	-1E+10	1
4902551	87	C	01/09/2023	11:04	-131.335	47.994	0	33.00	0	9.0730	0	32.3280	0	25.016	0	32.720	0	262.5	4	91.9	4	-1E+10	1	-1E+10	1	-1E+10	1	-1E+10	1	-1E+10	1	-1E+10	1
4902551	87	C	01/09/2023	11:04	-131.335	47.994	0	34.10	0	9.0720	0	32.3280	0	25.016	0	33.811	0	262.5	4	91.9	4	-1E+10	1	-1E+10	1	-1E+10	1	-1E+10	1	-1E+10	1	-1E+10	1
4902551	87	C	01/09/2023	11:04	-131.335	47.994	0	35.10	0	9.0720	0	32.3280	0	25.016	0	34.803	0	262.4	4	91.9	4	-1E+10	1	-1E+10	1	-1E+10	1	-1E+10	1	-1E+10	1	-1E+10	1
4902551	87	C	01/09/2023	11:04	-131.335	47.994	0	36.10	0	9.0730	0	32.3280	0	25.016	0	35.794	0	262.4	4	91.9	4	-1E+10	1	-1E+10	1	-1E+10	1	-1E+10	1	-1E+10	1	-1E+10	1
4902551	87	C	01/09/2023	11:04	-131.335	47.994	0	37.10	0	9.0730	0	32.3280	0	25.016	0	36.785	0	262.4	4	91.9	4	-1E+10	1	-1E+10	1	-1E+10	1	-1E+10	1	-1E+10	1	-1E+10	1
4902551	87	C	01/09/2023	11:04	-131.335	47.994	0	38.00	0	9.0710	0	32.3290	0	25.017	0	37.678	0	262.4	4	91.9	4	-1E+10	1	-1E+10	1	-1E+10	1	-1E+10	1	-1E+10	1	-1E+10	1
4902551	87	C	01/09/2023	11:04	-131.335	47.994	0	38.90	0	9.0710	0	32.3280	0	25.016	0	38.570	0	262.4	4	91.9	4	-1E+10	1	-1E+10	1	-1E+10	1	-1E+10	1	-1E+10	1	-1E+10	1
4902551	87	C	01/09/2023	11:04	-131.335	47.994	0	40.00	0	9.0710	0	32.3280	0	25.016	0	39.661	0	262.4	4	91.8	4	-1E+10	1	-1E+10	1	-1E+10	1	-1E+10	1	-1E+10	1	-1E+10	1
4902551	87	C	01/09/2023	11:04	-131.335	47.994	0	41.10	0	9.0710	0	32.3290	0	25.017	0	40.751	0	262.3	4	91.8	4	-1E+10	1	-1E+10	1	-1E+10	1	-1E+10	1	-1E+10	1	-1E+10	1
4902551	87	C	01/09/2023	11:04	-131.335	47.994	0	42.00	0	9.0730	0	32.3280	0	25.016	0	41.643	0	262.3	4	91.8	4	-1E+10	1	-1E+10	1	-1E+10	1	-1E+10	1	-1E+10	1	-1E+10	1
4902551	87	C	01/09/2023	11:04	-131.335	47.994	0	43.00	0	9.0700	0	32.3280	0	25.017	0	42.635	0	262.3	4	91.8	4	-1E+10	1	-1E+10	1	-1E+10	1	-1E+10	1	-1E+10	1	-1E+10	1
4902551	87	C	01/09/2023	11:04	-131.335	47.994	0	44.00	0	9.0690	0	32.3280	0	25.017	0	43.626	0	262.4	4	91.8	4	-1E+10	1	-1E+10	1	-1E+10	1	-1E+10	1	-1E+10	1	-1E+10	1
4902551	87	C	01/09/2023	11:04	-131.335	47.994	0	44.90	0	9.0700	0	32.3280	0	25.017	0	44.518	0	262.3	4	91.8	4	-1E+10	1	-1E+10	1	-1E+10	1	-1E+10	1	-1E+10	1	-1E+10	1
4902551	87	C	01/09/2023	11:04	-131.335	47.994	0	45.80	0	9.0710	0	32.3290	0	25.017	0	45.411	0	262.2	4	91.8	4	-1E+10	1	-1E+10	1	-1E+10	1	-1E+10	1	-1E+10	1	-1E+10	1
4902551	87	C	01/09/2023	11:04	-131.335	47.994	0	46.80	0	9.0710	0	32.3280	0	25.016	0	46.402	0	262.2	4	91.8	4	-1E+10	1	-1E+10	1	-1E+10	1	-1E+10	1	-1E+10	1	-1E+10	1
4902551	87	C	01/09/2023	11:04	-131.335	47.994	0	48.00	0	9.0730	0	32.3280	0	25.016	0	47.592	0	262.2	4	91.8	4	-1E+10	1	-1E+10	1	-1E+10	1	-1E+10	1	-1E+10	1	-1E+10	1
4902551	87	C	01/09/2023	11:04	-131.335	47.994	0	48.90	0	9.0750	0	32.3280	0	25.016	0	48.484	0	262.2	4	91.8	4	-1E+10	1	-1E+10	1	-1E+10	1	-1E+10	1	-1E+10	1	-1E+10	1
4902551	87	C	01/09/2023	11:04	-131.335	47.994	0	49.80	0	9.0740	0	32.3280	0	25.016	0	49.376	0	262.3	4	91.8	4	-1E+10	1	-1E+10	1	-1E+10	1	-1E+10	1	-1E+10	1	-1E+10	1
4902551	87	C	01/09/2023	11:04	-131.335	47.994	0	50.90	0	9.0730	0	32.3280	0	25.016	0	50.467	0	262.2	4	91.8	4	-1E+10	1	-1E+10	1	-1E+10	1	-1E+10	1	-1E+10	1	-1E+10	1
4902551	87	C	01/09/2023	11:04	-131.335	47.994	0	52.00	0	9.0730	0	32.3280	0	25.016	0	51.557	0	262.2	4	91.8	4	-1E+10	1	-1E+10	1	-1E+10	1	-1E+10	1	-1E+10	1	-1E+10	1
4902551	87	C	01/09/2023	11:04	-131.335	47.994	0	53.10	0	9.0740	0	32.3290	0	25.017	0	52.648	0	262.2	4	91.8	4	-1E+10	1	-1E+10	1	-1E+10	1	-1E+10	1	-1E+10	1	-1E+10	1
4902551	87	C	01/09/2023	11:04	-131.335	47.994	0	54.10	0	9.0740	0	32.3280	0	25.016	0	53.639	0	262.2	4	91.8	4	-1E+10	1	-1E+10	1	-1E+10	1	-1E+10	1	-1E+10	1	-1E+10	1
4902551	87	C	01/09/2023	11:04	-131.335	47.994	0	55.10	0	9.0740	0	32.3280	0	25.016	0	54.630	0	262.2	4	91.8	4	-1E+10	1	-1E+10	1	-1E+10	1	-1E+10	1	-1E+10	1	-1E+10	1
4902551	87	C	01/09/2023	11:04	-131.335	47.994	0	56.20	0	9.0750	0	32.3280	0	25.016	0	55.721	0	262.1	4	91.8	4	-1E+10	1	-1E+10	1	-1E+10	1	-1E+10	1	-1E+10	1	-1E+10	1
4902551	87	C	01/09/2023	11:04	-131.335	47.994	0	57.10	0	9.0740	0	32.3280	0	25.016	0	56.613	0	262.0	4	91.7	4	-1E+10	1	-1E+10	1	-1E+10	1	-1E+10	1	-1E+10	1	-1E+10	1
4902551	87	C	01/09/2023	11:04	-131.335	47.994	0	58.00	0	9.0710	0	32.3290	0	25.017	0	57.505	0	262.0	4	91.7	4	-1E+10	1	-1E+10	1	-1E+10	1	-1E+10	1	-1E+10	1	-1E+10	1
4902551	87	C	01/09/2023	11:04	-131.335	47.994	0	59.10	0	9.0730	0	32.3280	0	25.016	0	58.596	0	262.0	4	91.7	4	-1E+10	1	-1E+10	1	-1E+10	1	-1E+10	1	-1E+10	1	-1E+10	1
4902551	87	C	01/09/2023	11:04	-131.335	47.994	0	60.00	0	9.0740	0	32.3290	0	25.017	0	59.488	0	262.0	4	91.7	4	-1E+10	1	-1E+10	1	-1E+10	1	-1E+10	1	-1E+10	1	-1E+10	1
4902551	87	C	01/09/2023	11:04	-131.335	47.994	0	61.00	0	9.0740	0	32.3280	0	25.016	0	60.479	0	261.9	4	91.7	4	-1E+10	1	-1E+10	1	-1E+10	1	-1E+10	1	-1E+10	1	-1E+10	1
4902551	87	C	01/09/2023	11:04	-131.335	47.994	0	62.00	0	9.0750	0	32.3280	0	25.016	0	61.471	0	261.9	4	91.7	4	-1E+10	1	-1E+10	1	-1E+10	1	-1E+10	1	-1E+10	1	-1E+10	1
4902551	87	C	01/09/2023	11:04	-131.335	47.994	0	63.00	0	9.0730	0	32.3250	0	25.014	0	62.462	0	261.9	4	91.7	4	-1E+10	1	-1E+10	1	-1E+10	1	-1E+10	1	-1E+10	1	-1E+10	1
4902551	87	C	01/09/2023	11:04	-131.335	47.994	0	63.90	0	9.0720	0	32.3280	0	25.017	0	63.354	0	261.9	4	91.7	4	-1E+10	1	-1E+10	1	-1E+10	1	-1E+10	1	-1E+10	1	-1E+10	1
4902551	87	C	01/09/2023	11:04	-131.335	47.994	0	64.90	0	9.0670	0	32.3260	0	25.016	0	64.345	0	261.9	4	91.7	4	-1E+10	1	-1E+10	1	-1E+10	1	-1E+10	1	-1E+10	1	-1E+10	1
4902551	87	C	01/09/2023	11:04	-131.335	47.994	0	66.00	0	9.0540	0	32.3300	0	25.021	0	65.436	0	261.8	4	91.6	4	-1E+10	1	-1E+10	1	-1E+10	1	-1E+10	1	-1E+10	1	-1E+10	1
4902551	87	C	01/09/2023	11:04	-131.335	47.994	0	66.90	0	9.0430	0	32.3260	0	25.020	0	66.328	0	261.8	4	91.6	4	-1E+10	1	-1E+10	1	-1E+10	1	-1E+10	1	-1E+10	1	-1E+10	1
4902551	87	C	01/09/2023	11:04	-131.335	47.994	0	68.10	0	9.0250	0	32.3300	0	25.026	0	67.517	0	261.7	4	91.5	4	-1E+10	1	-1E+10	1	-1E+10	1	-1E+10	1	-1E+10	1	-1E+10	1
4902551	87	C	01/09/2023	11:04	-131.335	47.994	0	69.00	0	9.0260	0	32.3260	0	25.022	0	68.410	0	261.6	4	91.5	4	-1E+10	1	-1E+10	1	-1E+10	1	-1E+10	1	-1E+10	1	-1E+10	1
4902551	87	C	01/09/2023	11:04	-131.335	47.994	0	69.90	0	9.0110	0	32.3260	0	25.025	0	69.302	0	261.5	4	91.4	4	-1E+10	1	-1E+10	1	-1E+10	1	-1E+10	1	-1E+10	1	-1E+10	1
4902551	87	C	01/09/2023	11:04	-131.335	47.994	0	71.20	0	8.9790	0	32.3270	0	25.030	0	70.590	0	261.3	4	91.3	4	-1E+10	1	-1E+10	1	-1E+10	1	-1E+10	1	-1E+10	1	-1E+10	1
4902551	87	C	01/09/2023	11:04	-131.335	47.994	0	71.90	0	8.9760	0	32.3270	0	25.031	0	71.284	0	261.1	4	91.2	4	-1E+10	1	-1E+10	1	-1E+10	1	-1E+10	1	-1E+10	1	-1E+10	1
4902551	87	C	01/09/2023	11:04	-131.335	47.994	0	73.10	0	8.9730	0	32.3260	0	25.031	0	72.474	0	260.8	4	91.1	4	-1E+10	1	-1E+10	1	-1E+10	1	-1E+10	1	-1E+10	1	-1E+10	1
4902551	87	C	01/09/2023	11:04	-131.335	47.994	0	73.90	0	8.9500	0	32.3260	0	25.034	0	73.267	0	260.6	4	91.0	4	-1E+10	1	-1E+10	1	-1E+10	1	-1E+10	1	-1E+10	1	-1E+10	1
4902551	87	C	01/09/2023	11:04	-131.335	47.994	0	75.00	0	8.9180	0	32.3260	0	25.039	0	74.357	0	260.5	4	90.9	4	-1E+10	1	-1E+10	1	-1E+10	1	-1E+10	1	-1E+10	1	-1E+10	1
4902551	87	C	01/09/2023	11:04	-131.335	47.994	0	76.10	0	8.9080	0	32.3260	0	25.041	0	75.448	0	260.2	4	90.8	4	-1E+10	1	-1E+10	1	-1E+10	1	-1E+10	1	-1E+10	1	-1E+10	1
4902551	87	C	01/09/2023	11:04	-131.335	47.994	0	76.90	0	8.8920	0	32.3300	0	25.046	0	76.241	0	259.9	4	90.6	4	-1E+10	1	-1E+10	1	-1E+10	1	-1E+10	1	-1E+10	1	-1E+10	1
4902551	87	C	01/09/2023	11:04	-131.335	47.994	0	77.80	0	8.8790	0	32.3290	0	25.047	0	77.133	0	259.6	4	90.5	4	-1E+10	1	-1E+10	1	-1E+10	1	-1E+10	1	-1E+10	1	-1E+10	1
4902551	87	C	01/09/2023	11:04	-131.335	47.994	0	78.80	0	8.8760	0	32.3290	0	25.048	0	78.124	0	259.1	4	90.3	4	-1E+10	1	-1E+10	1	-1E+10	1	-1E+10	1	-1E+10	1	-1E+10	1
4902551	87	C	01/09/2023	11:04	-131.335	47.994	0	79.90	0	8.8690	0	32.3300	0	25.050	0	79.214	0	258.7	4	90.2	4	-1E+10	1	-1E+10	1	-1E+10	1	-1E+10	1	-1E+10	1	-1E+10	1
4902551	87	C	01/09/2023	11:04	-131.335	47.994	0	80.90	0	8.8550	0	32.3310	0	25.053	0	80.205	0	258.1	4	89.9	4	-1E+10	1	-1E+10	1	-1E+10	1	-1E+10	1	-1E+10	1	-1E+10	1
4902551	87	C	01/09/2023	11:04	-131.335	47.994	0	81.90	0	8.8460	0	32.3290	0	25.053	0	81.197	0	257.4	4	89.7	4	-1E+10	1	-1E+10	1	-1E+10	1	-1E+10	1	-1E+10	1	-1E+10	1
4902551	87	C	01/09/2023	11:04	-131.335	47.994	0	83.00	0	8.8280	0	32.3270	0	25.054	0	82.287	0	263.2	4	91.6	4	-1E+10	1	-1E+10	1	-1E+10	1	-1E+10	1	-1E+10	1	-1E+10	1
4902551	87	C	01/09/2023	11:04	-131.335	47.994	0	84.00	0	8.6900	0	32.3460	0	25.090	0	83.278	0	262.7	4	91.2	4	-1E+10	1	-1E+10	1	-1E+10	1	-1E+10	1	-1E+10	1	-1E+10	1
4902551	87	C	01/09/2023	11:04	-131.335	47.994	0	85.10	0	8.4390	0	32.3840	0	25.157	0	84.369	0	262.8	4	90.7	4	-1E+10	1	-1E+10	1	-1E+10	1	-1E+10	1	-1E+10	1	-1E+10	1
4902551	87	C	01/09/2023	11:04	-131.335	47.994	0	86.00	0	8.3070	0	32.3990	0	25.188	0	85.261	0	262.8	4	90.5	4	-1E+10	1	-1E+10	1	-1E+10	1	-1E+10	1	-1E+10	1	-1E+10	1
4902551	87	C	01/09/2023	11:04	-131.335	47.994	0	86.80	0	8.2350	0	32.4070	0	25.205	0	86.054	0	262.5	4	90.3	4	-1E+10	1	-1E+10	1	-1E+10	1	-1E+10	1	-1E+10	1	-1E+10	1
4902551	87	C	01/09/2023	11:04	-131.335	47.994	0	87.90	0	7.9930	0	32.4480	0	25.273	0	87.144	0	262.7	4	89.8	4	-1E+10	1	-1E+10	1	-1E+10	1	-1E+10	1	-1E+10	1	-1E+10	1
4902551	87	C	01/09/2023	11:04	-131.335	47.994	0	89.10	0	7.9130	0	32.4510	0	25.286	0	88.333	0	262.2	4	89.5	4	-1E+10	1	-1E+10	1	-1E+10	1	-1E+10	1	-1E+10	1	-1E+10	1
4902551	87	C	01/09/2023	11:04	-131.335	47.994	0	90.10	0	7.8280	0	32.4560	0	25.303	0	89.324	0	261.9	4	89.3	4	-1E+10	1	-1E+10	1	-1E+10	1	-1E+10	1	-1E+10	1	-1E+10	1
4902551	87	C	01/09/2023	11:04	-131.335	47.994	0	91.00	0	7.5000	0	32.4980	0	25.382	0	90.217	0	261.7	4	88.6	4	-1E+10	1	-1E+10	1	-1E+10	1	-1E+10	1	-1E+10	1	-1E+10	1
4902551	87	C	01/09/2023	11:04	-131.335	47.994	0	92.00	0	7.4340	0	32.5020	0	25.394	0	91.208	0	260.4	4	88.0	4	-1E+10	1	-1E+10	1	-1E+10	1	-1E+10	1	-1E+10	1	-1E+10	1
4902551	87	C	01/09/2023	11:04	-131.335	47.994	0	93.00	0	7.3770	0	32.5060	0	25.405	0	92.199	0	259.1	4	87.4	4	-1E+10	1	-1E+10	1	-1E+10	1	-1E+10	1	-1E+10	1	-1E+10	1
4902551	87	C	01/09/2023	11:04	-131.335	47.994	0	93.90	0	7.2670	0	32.5200	0	25.431	0	93.091	0	258.3	4	87.0	4	-1E+10	1	-1E+10	1	-1E+10	1	-1E+10	1	-1E+10	1	-1E+10	1
4902551	87	C	01/09/2023	11:04	-131.335	47.994	0	95.00	0	7.1360	0	32.5390	0	25.464	0	94.181	0	257.8	4	86.5	4	-1E+10	1	-1E+10	1	-1E+10	1	-1E+10	1	-1E+10	1	-1E+10	1
4902551	87	C	01/09/2023	11:04	-131.335	47.994	0	96.10	0	7.0040	0	32.5530	0	25.492	0	95.271	0	257.3	4	86.1	4	-1E+10	1	-1E+10	1	-1E+10	1	-1E+10	1	-1E+10	1	-1E+10	1
4902551	87	C	01/09/2023	11:04	-131.335	47.994	0	96.90	0	6.9090	0	32.5750	0	25.522	0	96.064	0	257.0	4	85.9	4	-1E+10	1	-1E+10	1	-1E+10	1	-1E+10	1	-1E+10	1	-1E+10	1
4902551	87	C	01/09/2023	11:04	-131.335	47.994	0	97.70	0	6.7530	0	32.6070	0	25.568	0	96.857	0	256.8	4	85.5	4	-1E+10	1	-1E+10	1	-1E+10	1	-1E+10	1	-1E+10	1	-1E+10	1
4902551	87	C	01/09/2023	11:04	-131.335	47.994	0	98.90	0	6.7200	0	32.6100	0	25.575	0	98.047	0	256.4	4	85.3	4	-1E+10	1	-1E+10	1	-1E+10	1	-1E+10	1	-1E+10	1	-1E+10	1
4902551	87	C	01/09/2023	11:04	-131.335	47.994	0	100.00	0	6.7070	0	32.6160	0	25.581	0	99.137	0	255.7	4	85.0	4	-1E+10	1	-1E+10	1	-1E+10	1	-1E+10	1	-1E+10	1	-1E+10	1
4902551	87	C	01/09/2023	11:04	-131.335	47.994	0	101.10	0	6.7080	0	32.6200	0	25.584	0	100.227	0	255.1	4	84.8	4	-1E+10	1	-1E+10	1	-1E+10	1	-1E+10	1	-1E+10	1	-1E+10	1
4902551	87	C	01/09/2023	11:04	-131.335	47.994	0	102.00	0	6.7160	0	32.6240	0	25.586	0	101.119	0	254.3	4	84.6	4	-1E+10	1	-1E+10	1	-1E+10	1	-1E+10	1	-1E+10	1	-1E+10	1
4902551	87	C	01/09/2023	11:04	-131.335	47.994	0	102.90	0	6.7120	0	32.6360	0	25.596	0	102.011	0	253.7	4	84.4	4	-1E+10	1	-1E+10	1	-1E+10	1	-1E+10	1	-1E+10	1	-1E+10	1
4902551	87	C	01/09/2023	11:04	-131.335	47.994	0	104.00	0	6.6970	0	32.6360	0	25.598	0	103.101	0	252.8	4	84.1	4	-1E+10	1	-1E+10	1	-1E+10	1	-1E+10	1	-1E+10	1	-1E+10	1
4902551	87	C	01/09/2023	11:04	-131.335	47.994	0	105.00	0	6.6840	0	32.6400	0	25.603	0	104.092	0	251.4	4	83.6	4	-1E+10	1	-1E+10	1	-1E+10	1	-1E+10	1	-1E+10	1	-1E+10	1
4902551	87	C	01/09/2023	11:04	-131.335	47.994	0	106.10	0	6.6380	0	32.6690	0	25.632	0	105.183	0	250.0	4	83.0	4	-1E+10	1	-1E+10	1	-1E+10	1	-1E+10	1	-1E+10	1	-1E+10	1
4902551	87	C	01/09/2023	11:04	-131.335	47.994	0	107.00	0	6.6100	0	32.6910	0	25.653	0	106.075	0	249.2	4	82.8	4	-1E+10	1	-1E+10	1	-1E+10	1	-1E+10	1	-1E+10	1	-1E+10	1
4902551	87	C	01/09/2023	11:04	-131.335	47.994	0	107.70	0	6.6020	0	32.6960	0	25.658	0	106.768	0	248.5	4	82.5	4	-1E+10	1	-1E+10	1	-1E+10	1	-1E+10	1	-1E+10	1	-1E+10	1
4902551	87	C	01/09/2023	11:04	-131.335	47.994	0	109.00	0	6.5940	0	32.7050	0	25.666	0	108.057	0	247.2	4	82.1	4	-1E+10	1	-1E+10	1	-1E+10	1	-1E+10	1	-1E+10	1	-1E+10	1
4902551	87	C	01/09/2023	11:04	-131.335	47.994	0	109.80	0	6.5880	0	32.7240	0	25.682	0	108.850	0	246.3	4	81.8	4	-1E+10	1	-1E+10	1	-1E+10	1	-1E+10	1	-1E+10	1	-1E+10	1
4902551	87	C	01/09/2023	11:04	-131.335	47.994	0	110.80	0	6.5980	0	32.7460	0	25.698	0	109.841	0	245.0	4	81.4	4	-1E+10	1	-1E+10	1	-1E+10	1	-1E+10	1	-1E+10	1	-1E+10	1
4902551	87	C	01/09/2023	11:04	-131.335	47.994	0	112.10	0	6.5700	0	32.7790	0	25.728	0	111.129	0	242.9	4	80.6	4	-1E+10	1	-1E+10	1	-1E+10	1	-1E+10	1	-1E+10	1	-1E+10	1
4902551	87	C	01/09/2023	11:04	-131.335	47.994	0	113.10	0	6.5450	0	32.7890	0	25.739	0	112.120	0	240.8	4	79.9	4	-1E+10	1	-1E+10	1	-1E+10	1	-1E+10	1	-1E+10	1	-1E+10	1
4902551	87	C	01/09/2023	11:04	-131.335	47.994	0	114.10	0	6.4990	0	32.8230	0	25.771	0	113.111	0	238.0	4	78.9	4	-1E+10	1	-1E+10	1	-1E+10	1	-1E+10	1	-1E+10	1	-1E+10	1
4902551	87	C	01/09/2023	11:04	-131.335	47.994	0	114.90	0	6.4870	0	32.8410	0	25.787	0	113.904	0	236.3	4	78.3	4	-1E+10	1	-1E+10	1	-1E+10	1	-1E+10	1	-1E+10	1	-1E+10	1
4902551	87	C	01/09/2023	11:04	-131.335	47.994	0	116.10	0	6.4640	0	32.8740	0	25.816	0	115.093	0	233.3	4	77.3	4	-1E+10	1	-1E+10	1	-1E+10	1	-1E+10	1	-1E+10	1	-1E+10	1
4902551	87	C	01/09/2023	11:04	-131.335	47.994	0	116.90	0	6.4610	0	32.8920	0	25.831	0	115.886	0	231.8	4	76.8	4	-1E+10	1	-1E+10	1	-1E+10	1	-1E+10	1	-1E+10	1	-1E+10	1
4902551	87	C	01/09/2023	11:04	-131.335	47.994	0	118.00	0	6.4560	0	32.9200	0	25.853	0	116.976	0	230.1	4	76.3	4	-1E+10	1	-1E+10	1	-1E+10	1	-1E+10	1	-1E+10	1	-1E+10	1
4902551	87	C	01/09/2023	11:04	-131.335	47.994	0	119.10	0	6.4580	0	32.9330	0	25.863	0	118.067	0	228.3	4	75.7	4	-1E+10	1	-1E+10	1	-1E+10	1	-1E+10	1	-1E+10	1	-1E+10	1
4902551	87	C	01/09/2023	11:04	-131.335	47.994	0	120.00	0	6.4670	0	32.9540	0	25.879	0	118.958	0	226.9	4	75.2	4	-1E+10	1	-1E+10	1	-1E+10	1	-1E+10	1	-1E+10	1	-1E+10	1
4902551	87	C	01/09/2023	11:04	-131.335	47.994	0	121.00	0	6.4830	0	32.9860	0	25.902	0	119.950	0	225.1	4	74.7	4	-1E+10	1	-1E+10	1	-1E+10	1	-1E+10	1	-1E+10	1	-1E+10	1
4902551	87	C	01/09/2023	11:04	-131.335	47.994	0	122.00	0	6.4370	0	33.0260	0	25.940	0	120.941	0	223.3	4	74.0	4	-1E+10	1	-1E+10	1	-1E+10	1	-1E+10	1	-1E+10	1	-1E+10	1
4902551	87	C	01/09/2023	11:04	-131.335	47.994	0	122.70	0	6.4290	0	33.0320	0	25.945	0	121.634	0	222.1	4	73.6	4	-1E+10	1	-1E+10	1	-1E+10	1	-1E+10	1	-1E+10	1	-1E+10	1
4902551	87	C	01/09/2023	11:04	-131.335	47.994	0	123.80	0	6.3980	0	33.0520	0	25.965	0	122.724	0	220.2	4	73.0	4	-1E+10	1	-1E+10	1	-1E+10	1	-1E+10	1	-1E+10	1	-1E+10	1
4902551	87	C	01/09/2023	11:04	-131.335	47.994	0	125.00	0	6.3500	0	33.0910	0	26.002	0	123.914	0	219.0	4	72.5	4	-1E+10	1	-1E+10	1	-1E+10	1	-1E+10	1	-1E+10	1	-1E+10	1
4902551	87	C	01/09/2023	11:04	-131.335	47.994	0	125.70	0	6.3480	0	33.0960	0	26.006	0	124.607	0	217.9	4	72.1	4	-1E+10	1	-1E+10	1	-1E+10	1	-1E+10	1	-1E+10	1	-1E+10	1
4902551	87	C	01/09/2023	11:04	-131.335	47.994	0	126.80	0	6.3380	0	33.1270	0	26.032	0	125.697	0	216.0	4	71.5	4	-1E+10	1	-1E+10	1	-1E+10	1	-1E+10	1	-1E+10	1	-1E+10	1
4902551	87	C	01/09/2023	11:04	-131.335	47.994	0	128.00	0	6.3300	0	33.1630	0	26.061	0	126.887	0	214.2	4	70.9	4	-1E+10	1	-1E+10	1	-1E+10	1	-1E+10	1	-1E+10	1	-1E+10	1
4902551	87	C	01/09/2023	11:04	-131.335	47.994	0	128.80	0	6.3280	0	33.1780	0	26.073	0	127.679	0	213.1	4	70.6	4	-1E+10	1	-1E+10	1	-1E+10	1	-1E+10	1	-1E+10	1	-1E+10	1
4902551	87	C	01/09/2023	11:04	-131.335	47.994	0	130.00	0	6.3100	0	33.2070	0	26.099	0	128.869	0	211.0	4	69.8	4	-1E+10	1	-1E+10	1	-1E+10	1	-1E+10	1	-1E+10	1	-1E+10	1
4902551	87	C	01/09/2023	11:04	-131.335	47.994	0	131.20	0	6.2850	0	33.2520	0	26.137	0	130.058	0	209.3	4	69.3	4	-1E+10	1	-1E+10	1	-1E+10	1	-1E+10	1	-1E+10	1	-1E+10	1
4902551	87	C	01/09/2023	11:04	-131.335	47.994	0	132.00	0	6.2810	0	33.2610	0	26.145	0	130.851	0	208.4	4	69.0	4	-1E+10	1	-1E+10	1	-1E+10	1	-1E+10	1	-1E+10	1	-1E+10	1
4902551	87	C	01/09/2023	11:04	-131.335	47.994	0	132.70	0	6.2800	0	33.2650	0	26.148	0	131.544	0	207.4	4	68.7	4	-1E+10	1	-1E+10	1	-1E+10	1	-1E+10	1	-1E+10	1	-1E+10	1
4902551	87	C	01/09/2023	11:04	-131.335	47.994	0	133.80	0	6.2760	0	33.2710	0	26.153	0	132.634	0	205.6	4	68.1	4	-1E+10	1	-1E+10	1	-1E+10	1	-1E+10	1	-1E+10	1	-1E+10	1
4902551	87	C	01/09/2023	11:04	-131.335	47.994	0	135.10	0	6.2600	0	33.2960	0	26.175	0	133.923	0	203.0	4	67.2	4	-1E+10	1	-1E+10	1	-1E+10	1	-1E+10	1	-1E+10	1	-1E+10	1
4902551	87	C	01/09/2023	11:04	-131.335	47.994	0	136.10	0	6.2440	0	33.3170	0	26.194	0	134.914	0	201.1	4	66.5	4	-1E+10	1	-1E+10	1	-1E+10	1	-1E+10	1	-1E+10	1	-1E+10	1
4902551	87	C	01/09/2023	11:04	-131.335	47.994	0	137.00	0	6.2100	0	33.3570	0	26.230	0	135.805	0	199.5	4	66.0	4	-1E+10	1	-1E+10	1	-1E+10	1	-1E+10	1	-1E+10	1	-1E+10	1
4902551	87	C	01/09/2023	11:04	-131.335	47.994	0	138.10	0	6.1860	0	33.3850	0	26.255	0	136.895	0	198.1	4	65.5	4	-1E+10	1	-1E+10	1	-1E+10	1	-1E+10	1	-1E+10	1	-1E+10	1
4902551	87	C	01/09/2023	11:04	-131.335	47.994	0	138.80	0	6.1700	0	33.4050	0	26.273	0	137.589	0	197.3	4	65.2	4	-1E+10	1	-1E+10	1	-1E+10	1	-1E+10	1	-1E+10	1	-1E+10	1
4902551	87	C	01/09/2023	11:04	-131.335	47.994	0	139.90	0	6.1490	0	33.4360	0	26.300	0	138.679	0	196.4	4	64.9	4	-1E+10	1	-1E+10	1	-1E+10	1	-1E+10	1	-1E+10	1	-1E+10	1
4902551	87	C	01/09/2023	11:04	-131.335	47.994	0	141.10	0	6.1410	0	33.4510	0	26.313	0	139.868	0	195.7	4	64.6	4	-1E+10	1	-1E+10	1	-1E+10	1	-1E+10	1	-1E+10	1	-1E+10	1
4902551	87	C	01/09/2023	11:04	-131.335	47.994	0	141.90	0	6.1360	0	33.4570	0	26.318	0	140.661	0	195.0	4	64.4	4	-1E+10	1	-1E+10	1	-1E+10	1	-1E+10	1	-1E+10	1	-1E+10	1
4902551	87	C	01/09/2023	11:04	-131.335	47.994	0	142.70	0	6.1330	0	33.4610	0	26.322	0	141.454	0	194.4	4	64.2	4	-1E+10	1	-1E+10	1	-1E+10	1	-1E+10	1	-1E+10	1	-1E+10	1
4902551	87	C	01/09/2023	11:04	-131.335	47.994	0	143.90	0	6.1280	0	33.4680	0	26.328	0	142.643	0	193.4	4	63.9	4	-1E+10	1	-1E+10	1	-1E+10	1	-1E+10	1	-1E+10	1	-1E+10	1
4902551	87	C	01/09/2023	11:04	-131.335	47.994	0	145.10	0	6.1250	0	33.4730	0	26.332	0	143.832	0	192.3	4	63.5	4	-1E+10	1	-1E+10	1	-1E+10	1	-1E+10	1	-1E+10	1	-1E+10	1
4902551	87	C	01/09/2023	11:04	-131.335	47.994	0	145.90	0	6.1230	0	33.4760	0	26.335	0	144.625	0	191.5	4	63.3	4	-1E+10	1	-1E+10	1	-1E+10	1	-1E+10	1	-1E+10	1	-1E+10	1
4902551	87	C	01/09/2023	11:04	-131.335	47.994	0	146.80	0	6.1150	0	33.4870	0	26.344	0	145.516	0	190.8	4	63.0	4	-1E+10	1	-1E+10	1	-1E+10	1	-1E+10	1	-1E+10	1	-1E+10	1
4902551	87	C	01/09/2023	11:04	-131.335	47.994	0	148.00	0	6.1090	0	33.4940	0	26.351	0	146.706	0	189.7	4	62.6	4	-1E+10	1	-1E+10	1	-1E+10	1	-1E+10	1	-1E+10	1	-1E+10	1
4902551	87	C	01/09/2023	11:04	-131.335	47.994	0	149.20	0	6.1060	0	33.4970	0	26.354	0	147.895	0	188.3	4	62.2	4	-1E+10	1	-1E+10	1	-1E+10	1	-1E+10	1	-1E+10	1	-1E+10	1
4902551	87	C	01/09/2023	11:04	-131.335	47.994	0	149.90	0	6.1030	0	33.5010	0	26.357	0	148.588	0	187.4	4	61.9	4	-1E+10	1	-1E+10	1	-1E+10	1	-1E+10	1	-1E+10	1	-1E+10	1
4902551	87	C	01/09/2023	11:04	-131.335	47.994	0	150.70	0	6.1020	0	33.5030	0	26.359	0	149.381	0	186.1	4	61.5	4	-1E+10	1	-1E+10	1	-1E+10	1	-1E+10	1	-1E+10	1	-1E+10	1
4902551	87	C	01/09/2023	11:04	-131.335	47.994	0	151.90	0	6.1000	0	33.5130	0	26.367	0	150.570	0	184.0	4	60.7	4	-1E+10	1	-1E+10	1	-1E+10	1	-1E+10	1	-1E+10	1	-1E+10	1
4902551	87	C	01/09/2023	11:04	-131.335	47.994	0	153.10	0	6.0980	0	33.5350	0	26.385	0	151.759	0	181.7	4	60.0	4	-1E+10	1	-1E+10	1	-1E+10	1	-1E+10	1	-1E+10	1	-1E+10	1
4902551	87	C	01/09/2023	11:04	-131.335	47.994	0	153.90	0	6.1010	0	33.5490	0	26.395	0	152.552	0	180.7	4	59.7	4	-1E+10	1	-1E+10	1	-1E+10	1	-1E+10	1	-1E+10	1	-1E+10	1
4902551	87	C	01/09/2023	11:04	-131.335	47.994	0	154.80	0	6.1010	0	33.5660	0	26.409	0	153.444	0	179.4	4	59.3	4	-1E+10	1	-1E+10	1	-1E+10	1	-1E+10	1	-1E+10	1	-1E+10	1
4902551	87	C	01/09/2023	11:04	-131.335	47.994	0	155.60	0	6.0980	0	33.5710	0	26.413	0	154.236	0	178.5	4	58.9	4	-1E+10	1	-1E+10	1	-1E+10	1	-1E+10	1	-1E+10	1	-1E+10	1
4902551	87	C	01/09/2023	11:04	-131.335	47.994	0	156.90	0	6.0940	0	33.5760	0	26.418	0	155.524	0	177.0	4	58.5	4	-1E+10	1	-1E+10	1	-1E+10	1	-1E+10	1	-1E+10	1	-1E+10	1
4902551	87	C	01/09/2023	11:04	-131.335	47.994	0	158.30	0	6.0870	0	33.5830	0	26.424	0	156.912	0	175.4	4	57.9	4	-1E+10	1	-1E+10	1	-1E+10	1	-1E+10	1	-1E+10	1	-1E+10	1
4902551	87	C	01/09/2023	11:04	-131.335	47.994	0	159.20	0	6.0790	0	33.5900	0	26.430	0	157.803	0	174.2	4	57.5	4	-1E+10	1	-1E+10	1	-1E+10	1	-1E+10	1	-1E+10	1	-1E+10	1
4902551	87	C	01/09/2023	11:04	-131.335	47.994	0	160.20	0	6.0680	0	33.6040	0	26.443	0	158.794	0	173.1	4	57.1	4	-1E+10	1	-1E+10	1	-1E+10	1	-1E+10	1	-1E+10	1	-1E+10	1
4902551	87	C	01/09/2023	11:04	-131.335	47.994	0	161.20	0	6.0640	0	33.6140	0	26.451	0	159.785	0	172.2	4	56.8	4	-1E+10	1	-1E+10	1	-1E+10	1	-1E+10	1	-1E+10	1	-1E+10	1
4902551	87	C	01/09/2023	11:04	-131.335	47.994	0	162.20	0	6.0620	0	33.6210	0	26.457	0	160.776	0	171.3	4	56.5	4	-1E+10	1	-1E+10	1	-1E+10	1	-1E+10	1	-1E+10	1	-1E+10	1
4902551	87	C	01/09/2023	11:04	-131.335	47.994	0	163.20	0	6.0610	0	33.6240	0	26.460	0	161.767	0	170.4	4	56.3	4	-1E+10	1	-1E+10	1	-1E+10	1	-1E+10	1	-1E+10	1	-1E+10	1
4902551	87	C	01/09/2023	11:04	-131.335	47.994	0	164.20	0	6.0590	0	33.6280	0	26.463	0	162.757	0	169.5	4	56.0	4	-1E+10	1	-1E+10	1	-1E+10	1	-1E+10	1	-1E+10	1	-1E+10	1
4902551	87	C	01/09/2023	11:04	-131.335	47.994	0	165.20	0	6.0540	0	33.6380	0	26.472	0	163.748	0	168.7	4	55.7	4	-1E+10	1	-1E+10	1	-1E+10	1	-1E+10	1	-1E+10	1	-1E+10	1
4902551	87	C	01/09/2023	11:04	-131.335	47.994	0	166.30	0	6.0490	0	33.6450	0	26.478	0	164.838	0	168.0	4	55.5	4	-1E+10	1	-1E+10	1	-1E+10	1	-1E+10	1	-1E+10	1	-1E+10	1
4902551	87	C	01/09/2023	11:04	-131.335	47.994	0	167.30	0	6.0470	0	33.6480	0	26.480	0	165.829	0	167.4	4	55.2	4	-1E+10	1	-1E+10	1	-1E+10	1	-1E+10	1	-1E+10	1	-1E+10	1
4902551	87	C	01/09/2023	11:04	-131.335	47.994	0	168.30	0	6.0450	0	33.6500	0	26.482	0	166.820	0	166.6	4	55.0	4	-1E+10	1	-1E+10	1	-1E+10	1	-1E+10	1	-1E+10	1	-1E+10	1
4902551	87	C	01/09/2023	11:04	-131.335	47.994	0	169.40	0	6.0420	0	33.6530	0	26.485	0	167.910	0	165.9	4	54.7	4	-1E+10	1	-1E+10	1	-1E+10	1	-1E+10	1	-1E+10	1	-1E+10	1
4902551	87	C	01/09/2023	11:04	-131.335	47.994	0	170.40	0	6.0410	0	33.6540	0	26.486	0	168.900	0	165.1	4	54.5	4	-1E+10	1	-1E+10	1	-1E+10	1	-1E+10	1	-1E+10	1	-1E+10	1
4902551	87	C	01/09/2023	11:04	-131.335	47.994	0	171.40	0	6.0410	0	33.6560	0	26.487	0	169.891	0	164.2	4	54.2	4	-1E+10	1	-1E+10	1	-1E+10	1	-1E+10	1	-1E+10	1	-1E+10	1
4902551	87	C	01/09/2023	11:04	-131.335	47.994	0	172.40	0	6.0300	0	33.6630	0	26.494	0	170.882	0	163.5	4	54.0	4	-1E+10	1	-1E+10	1	-1E+10	1	-1E+10	1	-1E+10	1	-1E+10	1
4902551	87	C	01/09/2023	11:04	-131.335	47.994	0	173.40	0	6.0200	0	33.6700	0	26.501	0	171.873	0	162.7	4	53.7	4	-1E+10	1	-1E+10	1	-1E+10	1	-1E+10	1	-1E+10	1	-1E+10	1
4902551	87	C	01/09/2023	11:04	-131.335	47.994	0	174.40	0	6.0150	0	33.6730	0	26.504	0	172.864	0	162.0	4	53.4	4	-1E+10	1	-1E+10	1	-1E+10	1	-1E+10	1	-1E+10	1	-1E+10	1
4902551	87	C	01/09/2023	11:04	-131.335	47.994	0	175.40	0	6.0120	0	33.6740	0	26.505	0	173.854	0	161.2	4	53.2	4	-1E+10	1	-1E+10	1	-1E+10	1	-1E+10	1	-1E+10	1	-1E+10	1
4902551	87	C	01/09/2023	11:04	-131.335	47.994	0	176.40	0	6.0040	0	33.6780	0	26.510	0	174.845	0	160.3	4	52.9	4	-1E+10	1	-1E+10	1	-1E+10	1	-1E+10	1	-1E+10	1	-1E+10	1
4902551	87	C	01/09/2023	11:04	-131.335	47.994	0	177.30	0	5.9960	0	33.6820	0	26.514	0	175.737	0	159.6	4	52.6	4	-1E+10	1	-1E+10	1	-1E+10	1	-1E+10	1	-1E+10	1	-1E+10	1
4902551	87	C	01/09/2023	11:04	-131.335	47.994	0	178.90	0	5.9570	0	33.6970	0	26.530	0	177.322	0	158.7	4	52.3	4	-1E+10	1	-1E+10	1	-1E+10	1	-1E+10	1	-1E+10	1	-1E+10	1
4902551	87	C	01/09/2023	11:04	-131.335	47.994	0	180.10	0	5.9320	0	33.7020	0	26.538	0	178.511	0	158.2	4	52.1	4	-1E+10	1	-1E+10	1	-1E+10	1	-1E+10	1	-1E+10	1	-1E+10	1
4902551	87	C	01/09/2023	11:04	-131.335	47.994	0	180.90	0	5.9290	0	33.7040	0	26.539	0	179.303	0	157.9	4	52.0	4	-1E+10	1	-1E+10	1	-1E+10	1	-1E+10	1	-1E+10	1	-1E+10	1
4902551	87	C	01/09/2023	11:04	-131.335	47.994	0	181.70	0	5.9260	0	33.7040	0	26.540	0	180.096	0	157.6	4	51.9	4	-1E+10	1	-1E+10	1	-1E+10	1	-1E+10	1	-1E+10	1	-1E+10	1
4902551	87	C	01/09/2023	11:04	-131.335	47.994	0	182.90	0	5.9220	0	33.7050	0	26.541	0	181.285	0	157.0	4	51.7	4	-1E+10	1	-1E+10	1	-1E+10	1	-1E+10	1	-1E+10	1	-1E+10	1
4902551	87	C	01/09/2023	11:04	-131.335	47.994	0	184.20	0	5.9110	0	33.7070	0	26.544	0	182.573	0	156.4	4	51.5	4	-1E+10	1	-1E+10	1	-1E+10	1	-1E+10	1	-1E+10	1	-1E+10	1
4902551	87	C	01/09/2023	11:04	-131.335	47.994	0	185.00	0	5.8980	0	33.7110	0	26.549	0	183.365	0	156.1	4	51.4	4	-1E+10	1	-1E+10	1	-1E+10	1	-1E+10	1	-1E+10	1	-1E+10	1
4902551	87	C	01/09/2023	11:04	-131.335	47.994	0	185.80	0	5.8890	0	33.7100	0	26.549	0	184.158	0	155.8	4	51.3	4	-1E+10	1	-1E+10	1	-1E+10	1	-1E+10	1	-1E+10	1	-1E+10	1
4902551	87	C	01/09/2023	11:04	-131.335	47.994	0	186.70	0	5.8840	0	33.7110	0	26.551	0	185.050	0	155.4	4	51.1	4	-1E+10	1	-1E+10	1	-1E+10	1	-1E+10	1	-1E+10	1	-1E+10	1
4902551	87	C	01/09/2023	11:04	-131.335	47.994	0	187.90	0	5.8820	0	33.7110	0	26.551	0	186.239	0	154.7	4	50.9	4	-1E+10	1	-1E+10	1	-1E+10	1	-1E+10	1	-1E+10	1	-1E+10	1
4902551	87	C	01/09/2023	11:04	-131.335	47.994	0	189.20	0	5.8790	0	33.7120	0	26.552	0	187.526	0	154.0	4	50.7	4	-1E+10	1	-1E+10	1	-1E+10	1	-1E+10	1	-1E+10	1	-1E+10	1
4902551	87	C	01/09/2023	11:04	-131.335	47.994	0	190.00	0	5.8750	0	33.7130	0	26.553	0	188.319	0	153.5	4	50.5	4	-1E+10	1	-1E+10	1	-1E+10	1	-1E+10	1	-1E+10	1	-1E+10	1
4902551	87	C	01/09/2023	11:04	-131.335	47.994	0	190.90	0	5.8680	0	33.7150	0	26.556	0	189.211	0	153.0	4	50.3	4	-1E+10	1	-1E+10	1	-1E+10	1	-1E+10	1	-1E+10	1	-1E+10	1
4902551	87	C	01/09/2023	11:04	-131.335	47.994	0	191.70	0	5.8640	0	33.7140	0	26.556	0	190.003	0	152.4	4	50.1	4	-1E+10	1	-1E+10	1	-1E+10	1	-1E+10	1	-1E+10	1	-1E+10	1
4902551	87	C	01/09/2023	11:04	-131.335	47.994	0	193.00	0	5.8600	0	33.7150	0	26.557	0	191.291	0	151.4	4	49.8	4	-1E+10	1	-1E+10	1	-1E+10	1	-1E+10	1	-1E+10	1	-1E+10	1
4902551	87	C	01/09/2023	11:04	-131.335	47.994	0	194.20	0	5.8620	0	33.7160	0	26.557	0	192.480	0	150.2	4	49.4	4	-1E+10	1	-1E+10	1	-1E+10	1	-1E+10	1	-1E+10	1	-1E+10	1
4902551	87	C	01/09/2023	11:04	-131.335	47.994	0	195.10	0	5.8530	0	33.7170	0	26.559	0	193.372	0	149.5	4	49.1	4	-1E+10	1	-1E+10	1	-1E+10	1	-1E+10	1	-1E+10	1	-1E+10	1
4902551	87	C	01/09/2023	11:04	-131.335	47.994	0	195.90	0	5.8490	0	33.7180	0	26.561	0	194.164	0	148.6	4	48.9	4	-1E+10	1	-1E+10	1	-1E+10	1	-1E+10	1	-1E+10	1	-1E+10	1
4902551	87	C	01/09/2023	11:04	-131.335	47.994	0	196.70	0	5.8130	0	33.7270	0	26.572	0	194.957	0	147.9	4	48.6	4	-1E+10	1	-1E+10	1	-1E+10	1	-1E+10	1	-1E+10	1	-1E+10	1
4902551	87	C	01/09/2023	11:04	-131.335	47.994	0	198.00	0	5.7890	0	33.7310	0	26.578	0	196.244	0	147.3	4	48.4	4	-1E+10	1	-1E+10	1	-1E+10	1	-1E+10	1	-1E+10	1	-1E+10	1
4902551	87	C	01/09/2023	11:04	-131.335	47.994	0	199.20	0	5.7740	0	33.7350	0	26.583	0	197.433	0	146.8	4	48.2	4	-1E+10	1	-1E+10	1	-1E+10	1	-1E+10	1	-1E+10	1	-1E+10	1
4902551	87	C	01/09/2023	11:04	-131.335	47.994	0	200.10	0	5.7370	0	33.7330	0	26.586	0	198.325	0	146.4	4	48.0	4	-1E+10	1	-1E+10	1	-1E+10	1	-1E+10	1	-1E+10	1	-1E+10	1
4902551	87	C	01/09/2023	11:04	-131.335	47.994	0	201.00	0	5.7300	0	33.7320	0	26.586	0	199.216	0	145.9	4	47.9	4	-1E+10	1	-1E+10	1	-1E+10	1	-1E+10	1	-1E+10	1	-1E+10	1
4902551	87	C	01/09/2023	11:04	-131.335	47.994	0	201.80	0	5.7180	0	33.7320	0	26.588	0	200.009	0	145.5	4	47.7	4	-1E+10	1	-1E+10	1	-1E+10	1	-1E+10	1	-1E+10	1	-1E+10	1
4902551	87	C	01/09/2023	11:04	-131.335	47.994	0	202.70	0	5.7090	0	33.7320	0	26.589	0	200.901	0	145.0	4	47.5	4	-1E+10	1	-1E+10	1	-1E+10	1	-1E+10	1	-1E+10	1	-1E+10	1
4902551	87	C	01/09/2023	11:04	-131.335	47.994	0	203.60	0	5.7010	0	33.7330	0	26.591	0	201.792	0	144.4	4	47.3	4	-1E+10	1	-1E+10	1	-1E+10	1	-1E+10	1	-1E+10	1	-1E+10	1
4902551	87	C	01/09/2023	11:04	-131.335	47.994	0	204.90	0	5.6800	0	33.7350	0	26.595	0	203.080	0	143.6	4	47.0	4	-1E+10	1	-1E+10	1	-1E+10	1	-1E+10	1	-1E+10	1	-1E+10	1
4902551	87	C	01/09/2023	11:04	-131.335	47.994	0	206.20	0	5.6690	0	33.7360	0	26.597	0	204.368	0	142.7	4	46.7	4	-1E+10	1	-1E+10	1	-1E+10	1	-1E+10	1	-1E+10	1	-1E+10	1
4902551	87	C	01/09/2023	11:04	-131.335	47.994	0	207.10	0	5.6670	0	33.7360	0	26.597	0	205.259	0	142.0	4	46.5	4	-1E+10	1	-1E+10	1	-1E+10	1	-1E+10	1	-1E+10	1	-1E+10	1
4902551	87	C	01/09/2023	11:04	-131.335	47.994	0	207.90	0	5.6620	0	33.7370	0	26.598	0	206.052	0	141.4	4	46.3	4	-1E+10	1	-1E+10	1	-1E+10	1	-1E+10	1	-1E+10	1	-1E+10	1
4902551	87	C	01/09/2023	11:04	-131.335	47.994	0	208.80	0	5.6610	0	33.7370	0	26.599	0	206.943	0	140.6	4	46.0	4	-1E+10	1	-1E+10	1	-1E+10	1	-1E+10	1	-1E+10	1	-1E+10	1
4902551	87	C	01/09/2023	11:04	-131.335	47.994	0	209.70	0	5.6500	0	33.7390	0	26.602	0	207.835	0	139.9	4	45.8	4	-1E+10	1	-1E+10	1	-1E+10	1	-1E+10	1	-1E+10	1	-1E+10	1
4902551	87	C	01/09/2023	11:04	-131.335	47.994	0	210.60	0	5.6350	0	33.7400	0	26.604	0	208.726	0	139.3	4	45.6	4	-1E+10	1	-1E+10	1	-1E+10	1	-1E+10	1	-1E+10	1	-1E+10	1
4902551	87	C	01/09/2023	11:04	-131.335	47.994	0	211.90	0	5.6160	0	33.7420	0	26.608	0	210.014	0	138.4	4	45.3	4	-1E+10	1	-1E+10	1	-1E+10	1	-1E+10	1	-1E+10	1	-1E+10	1
4902551	87	C	01/09/2023	11:04	-131.335	47.994	0	213.30	0	5.5990	0	33.7460	0	26.613	0	211.401	0	137.6	4	45.0	4	-1E+10	1	-1E+10	1	-1E+10	1	-1E+10	1	-1E+10	1	-1E+10	1
4902551	87	C	01/09/2023	11:04	-131.335	47.994	0	214.20	0	5.5760	0	33.7470	0	26.617	0	212.293	0	137.1	4	44.8	4	-1E+10	1	-1E+10	1	-1E+10	1	-1E+10	1	-1E+10	1	-1E+10	1
4902551	87	C	01/09/2023	11:04	-131.335	47.994	0	215.10	0	5.5660	0	33.7480	0	26.619	0	213.184	0	136.6	4	44.6	4	-1E+10	1	-1E+10	1	-1E+10	1	-1E+10	1	-1E+10	1	-1E+10	1
4902551	87	C	01/09/2023	11:04	-131.335	47.994	0	216.00	0	5.5630	0	33.7480	0	26.619	0	214.076	0	136.1	4	44.4	4	-1E+10	1	-1E+10	1	-1E+10	1	-1E+10	1	-1E+10	1	-1E+10	1
4902551	87	C	01/09/2023	11:04	-131.335	47.994	0	216.80	0	5.5600	0	33.7480	0	26.620	0	214.868	0	135.5	4	44.3	4	-1E+10	1	-1E+10	1	-1E+10	1	-1E+10	1	-1E+10	1	-1E+10	1
4902551	87	C	01/09/2023	11:04	-131.335	47.994	0	217.70	0	5.5550	0	33.7480	0	26.620	0	215.760	0	134.9	4	44.1	4	-1E+10	1	-1E+10	1	-1E+10	1	-1E+10	1	-1E+10	1	-1E+10	1
4902551	87	C	01/09/2023	11:04	-131.335	47.994	0	218.60	0	5.5460	0	33.7480	0	26.621	0	216.651	0	134.3	4	43.9	4	-1E+10	1	-1E+10	1	-1E+10	1	-1E+10	1	-1E+10	1	-1E+10	1
4902551	87	C	01/09/2023	11:04	-131.335	47.994	0	219.90	0	5.5400	0	33.7480	0	26.622	0	217.939	0	133.3	4	43.5	4	-1E+10	1	-1E+10	1	-1E+10	1	-1E+10	1	-1E+10	1	-1E+10	1
4902551	87	C	01/09/2023	11:04	-131.335	47.994	0	221.20	0	5.5080	0	33.7490	0	26.627	0	219.226	0	132.2	4	43.1	4	-1E+10	1	-1E+10	1	-1E+10	1	-1E+10	1	-1E+10	1	-1E+10	1
4902551	87	C	01/09/2023	11:04	-131.335	47.994	0	222.10	0	5.4770	0	33.7540	0	26.634	0	220.118	0	131.5	4	42.9	4	-1E+10	1	-1E+10	1	-1E+10	1	-1E+10	1	-1E+10	1	-1E+10	1
4902551	87	C	01/09/2023	11:04	-131.335	47.994	0	223.00	0	5.4400	0	33.7540	0	26.639	0	221.009	0	131.0	4	42.7	4	-1E+10	1	-1E+10	1	-1E+10	1	-1E+10	1	-1E+10	1	-1E+10	1
4902551	87	C	01/09/2023	11:04	-131.335	47.994	0	223.90	0	5.4250	0	33.7530	0	26.640	0	221.901	0	130.6	4	42.5	4	-1E+10	1	-1E+10	1	-1E+10	1	-1E+10	1	-1E+10	1	-1E+10	1
4902551	87	C	01/09/2023	11:04	-131.335	47.994	0	224.80	0	5.4250	0	33.7530	0	26.640	0	222.792	0	130.0	4	42.3	4	-1E+10	1	-1E+10	1	-1E+10	1	-1E+10	1	-1E+10	1	-1E+10	1
4902551	87	C	01/09/2023	11:04	-131.335	47.994	0	225.70	0	5.4210	0	33.7530	0	26.640	0	223.684	0	129.5	4	42.2	4	-1E+10	1	-1E+10	1	-1E+10	1	-1E+10	1	-1E+10	1	-1E+10	1
4902551	87	C	01/09/2023	11:04	-131.335	47.994	0	226.90	0	5.4090	0	33.7540	0	26.642	0	224.873	0	128.6	4	41.9	4	-1E+10	1	-1E+10	1	-1E+10	1	-1E+10	1	-1E+10	1	-1E+10	1
4902551	87	C	01/09/2023	11:04	-131.335	47.994	0	228.30	0	5.3830	0	33.7560	0	26.647	0	226.259	0	127.7	4	41.5	4	-1E+10	1	-1E+10	1	-1E+10	1	-1E+10	1	-1E+10	1	-1E+10	1
4902551	87	C	01/09/2023	11:04	-131.335	47.994	0	229.20	0	5.3650	0	33.7570	0	26.650	0	227.151	0	127.1	4	41.3	4	-1E+10	1	-1E+10	1	-1E+10	1	-1E+10	1	-1E+10	1	-1E+10	1
4902551	87	C	01/09/2023	11:04	-131.335	47.994	0	230.00	0	5.3400	0	33.7580	0	26.654	0	227.943	0	126.6	4	41.1	4	-1E+10	1	-1E+10	1	-1E+10	1	-1E+10	1	-1E+10	1	-1E+10	1
4902551	87	C	01/09/2023	11:04	-131.335	47.994	0	230.80	0	5.3350	0	33.7570	0	26.653	0	228.736	0	126.2	4	41.0	4	-1E+10	1	-1E+10	1	-1E+10	1	-1E+10	1	-1E+10	1	-1E+10	1
4902551	87	C	01/09/2023	11:04	-131.335	47.994	0	231.70	0	5.3290	0	33.7570	0	26.654	0	229.627	0	125.5	4	40.8	4	-1E+10	1	-1E+10	1	-1E+10	1	-1E+10	1	-1E+10	1	-1E+10	1
4902551	87	C	01/09/2023	11:04	-131.335	47.994	0	232.90	0	5.3150	0	33.7570	0	26.656	0	230.816	0	124.6	4	40.5	4	-1E+10	1	-1E+10	1	-1E+10	1	-1E+10	1	-1E+10	1	-1E+10	1
4902551	87	C	01/09/2023	11:04	-131.335	47.994	0	234.20	0	5.3030	0	33.7580	0	26.658	0	232.103	0	123.7	4	40.2	4	-1E+10	1	-1E+10	1	-1E+10	1	-1E+10	1	-1E+10	1	-1E+10	1
4902551	87	C	01/09/2023	11:04	-131.335	47.994	0	235.00	0	5.2870	0	33.7620	0	26.663	0	232.896	0	123.1	4	39.9	4	-1E+10	1	-1E+10	1	-1E+10	1	-1E+10	1	-1E+10	1	-1E+10	1
4902551	87	C	01/09/2023	11:04	-131.335	47.994	0	235.80	0	5.2760	0	33.7610	0	26.664	0	233.688	0	122.5	4	39.7	4	-1E+10	1	-1E+10	1	-1E+10	1	-1E+10	1	-1E+10	1	-1E+10	1
4902551	87	C	01/09/2023	11:04	-131.335	47.994	0	237.00	0	5.2600	0	33.7620	0	26.666	0	234.877	0	121.5	4	39.4	4	-1E+10	1	-1E+10	1	-1E+10	1	-1E+10	1	-1E+10	1	-1E+10	1
4902551	87	C	01/09/2023	11:04	-131.335	47.994	0	238.20	0	5.2300	0	33.7650	0	26.672	0	236.065	0	120.6	4	39.1	4	-1E+10	1	-1E+10	1	-1E+10	1	-1E+10	1	-1E+10	1	-1E+10	1
4902551	87	C	01/09/2023	11:04	-131.335	47.994	0	239.10	0	5.2200	0	33.7650	0	26.673	0	236.957	0	120.1	4	38.9	4	-1E+10	1	-1E+10	1	-1E+10	1	-1E+10	1	-1E+10	1	-1E+10	1
4902551	87	C	01/09/2023	11:04	-131.335	47.994	0	239.90	0	5.2130	0	33.7650	0	26.674	0	237.749	0	119.6	4	38.7	4	-1E+10	1	-1E+10	1	-1E+10	1	-1E+10	1	-1E+10	1	-1E+10	1
4902551	87	C	01/09/2023	11:04	-131.335	47.994	0	240.70	0	5.2080	0	33.7650	0	26.675	0	238.541	0	118.9	4	38.5	4	-1E+10	1	-1E+10	1	-1E+10	1	-1E+10	1	-1E+10	1	-1E+10	1
4902551	87	C	01/09/2023	11:04	-131.335	47.994	0	242.00	0	5.1940	0	33.7660	0	26.677	0	239.829	0	118.0	4	38.2	4	-1E+10	1	-1E+10	1	-1E+10	1	-1E+10	1	-1E+10	1	-1E+10	1
4902551	87	C	01/09/2023	11:04	-131.335	47.994	0	243.20	0	5.1710	0	33.7690	0	26.682	0	241.017	0	117.2	4	37.9	4	-1E+10	1	-1E+10	1	-1E+10	1	-1E+10	1	-1E+10	1	-1E+10	1
4902551	87	C	01/09/2023	11:04	-131.335	47.994	0	244.10	0	5.1610	0	33.7690	0	26.683	0	241.909	0	116.7	4	37.8	4	-1E+10	1	-1E+10	1	-1E+10	1	-1E+10	1	-1E+10	1	-1E+10	1
4902551	87	C	01/09/2023	11:04	-131.335	47.994	0	244.90	0	5.1630	0	33.7710	0	26.685	0	242.701	0	116.1	4	37.6	4	-1E+10	1	-1E+10	1	-1E+10	1	-1E+10	1	-1E+10	1	-1E+10	1
4902551	87	C	01/09/2023	11:04	-131.335	47.994	0	245.80	0	5.1570	0	33.7700	0	26.684	0	243.593	0	115.5	4	37.4	4	-1E+10	1	-1E+10	1	-1E+10	1	-1E+10	1	-1E+10	1	-1E+10	1
4902551	87	C	01/09/2023	11:04	-131.335	47.994	0	247.00	0	5.1150	0	33.7720	0	26.691	0	244.781	0	114.8	4	37.1	4	-1E+10	1	-1E+10	1	-1E+10	1	-1E+10	1	-1E+10	1	-1E+10	1
4902551	87	C	01/09/2023	11:04	-131.335	47.994	0	248.20	0	5.0970	0	33.7720	0	26.693	0	245.970	0	114.0	4	36.8	4	-1E+10	1	-1E+10	1	-1E+10	1	-1E+10	1	-1E+10	1	-1E+10	1
4902551	87	C	01/09/2023	11:04	-131.335	47.994	0	249.00	0	5.0940	0	33.7710	0	26.693	0	246.762	0	113.5	4	36.7	4	-1E+10	1	-1E+10	1	-1E+10	1	-1E+10	1	-1E+10	1	-1E+10	1
4902551	87	C	01/09/2023	11:04	-131.335	47.994	0	249.90	0	5.0750	0	33.7750	0	26.698	0	247.653	0	113.0	4	36.5	4	-1E+10	1	-1E+10	1	-1E+10	1	-1E+10	1	-1E+10	1	-1E+10	1
4902551	87	C	01/09/2023	11:04	-131.335	47.994	0	250.70	0	5.0500	0	33.7760	0	26.702	0	248.446	0	112.6	4	36.3	4	-1E+10	1	-1E+10	1	-1E+10	1	-1E+10	1	-1E+10	1	-1E+10	1
4902551	87	C	01/09/2023	11:04	-131.335	47.994	0	252.00	0	5.0410	0	33.7750	0	26.702	0	249.733	0	111.9	4	36.1	4	-1E+10	1	-1E+10	1	-1E+10	1	-1E+10	1	-1E+10	1	-1E+10	1
4902551	87	C	01/09/2023	11:04	-131.335	47.994	0	253.30	0	5.0400	0	33.7740	0	26.701	0	251.021	0	111.2	4	35.9	4	-1E+10	1	-1E+10	1	-1E+10	1	-1E+10	1	-1E+10	1	-1E+10	1
4902551	87	C	01/09/2023	11:04	-131.335	47.994	0	254.20	0	5.0350	0	33.7740	0	26.702	0	251.912	0	110.6	4	35.7	4	-1E+10	1	-1E+10	1	-1E+10	1	-1E+10	1	-1E+10	1	-1E+10	1
4902551	87	C	01/09/2023	11:04	-131.335	47.994	0	255.10	0	5.0030	0	33.7790	0	26.709	0	252.803	0	110.1	4	35.5	4	-1E+10	1	-1E+10	1	-1E+10	1	-1E+10	1	-1E+10	1	-1E+10	1
4902551	87	C	01/09/2023	11:04	-131.335	47.994	0	255.90	0	4.9910	0	33.7770	0	26.709	0	253.596	0	109.8	4	35.4	4	-1E+10	1	-1E+10	1	-1E+10	1	-1E+10	1	-1E+10	1	-1E+10	1
4902551	87	C	01/09/2023	11:04	-131.335	47.994	0	256.80	0	4.9840	0	33.7790	0	26.711	0	254.487	0	109.4	4	35.2	4	-1E+10	1	-1E+10	1	-1E+10	1	-1E+10	1	-1E+10	1	-1E+10	1
4902551	87	C	01/09/2023	11:04	-131.335	47.994	0	257.70	0	4.9800	0	33.7780	0	26.711	0	255.378	0	109.0	4	35.1	4	-1E+10	1	-1E+10	1	-1E+10	1	-1E+10	1	-1E+10	1	-1E+10	1
4902551	87	C	01/09/2023	11:04	-131.335	47.994	0	258.60	0	4.9790	0	33.7790	0	26.712	0	256.270	0	108.4	4	34.9	4	-1E+10	1	-1E+10	1	-1E+10	1	-1E+10	1	-1E+10	1	-1E+10	1
4902551	87	C	01/09/2023	11:04	-131.335	47.994	0	259.90	0	4.9770	0	33.7780	0	26.711	0	257.557	0	107.7	4	34.7	4	-1E+10	1	-1E+10	1	-1E+10	1	-1E+10	1	-1E+10	1	-1E+10	1
4902551	87	C	01/09/2023	11:04	-131.335	47.994	0	261.30	0	4.9720	0	33.7790	0	26.713	0	258.944	0	106.8	4	34.4	4	-1E+10	1	-1E+10	1	-1E+10	1	-1E+10	1	-1E+10	1	-1E+10	1
4902551	87	C	01/09/2023	11:04	-131.335	47.994	0	262.20	0	4.9660	0	33.7790	0	26.713	0	259.835	0	106.3	4	34.2	4	-1E+10	1	-1E+10	1	-1E+10	1	-1E+10	1	-1E+10	1	-1E+10	1
4902551	87	C	01/09/2023	11:04	-131.335	47.994	0	263.20	0	4.9490	0	33.7820	0	26.718	0	260.825	0	105.8	4	34.1	4	-1E+10	1	-1E+10	1	-1E+10	1	-1E+10	1	-1E+10	1	-1E+10	1
4902551	87	C	01/09/2023	11:04	-131.335	47.994	0	264.10	0	4.9380	0	33.7840	0	26.721	0	261.717	0	105.2	4	33.9	4	-1E+10	1	-1E+10	1	-1E+10	1	-1E+10	1	-1E+10	1	-1E+10	1
4902551	87	C	01/09/2023	11:04	-131.335	47.994	0	265.00	0	4.9360	0	33.7860	0	26.722	0	262.608	0	104.8	4	33.7	4	-1E+10	1	-1E+10	1	-1E+10	1	-1E+10	1	-1E+10	1	-1E+10	1
4902551	87	C	01/09/2023	11:04	-131.335	47.994	0	266.00	0	4.9340	0	33.7870	0	26.723	0	263.598	0	104.3	4	33.6	4	-1E+10	1	-1E+10	1	-1E+10	1	-1E+10	1	-1E+10	1	-1E+10	1
4902551	87	C	01/09/2023	11:04	-131.335	47.994	0	266.90	0	4.9470	0	33.7890	0	26.724	0	264.490	0	103.8	4	33.4	4	-1E+10	1	-1E+10	1	-1E+10	1	-1E+10	1	-1E+10	1	-1E+10	1
4902551	87	C	01/09/2023	11:04	-131.335	47.994	0	267.90	0	4.9510	0	33.7960	0	26.729	0	265.480	0	103.2	4	33.2	4	-1E+10	1	-1E+10	1	-1E+10	1	-1E+10	1	-1E+10	1	-1E+10	1
4902551	87	C	01/09/2023	11:04	-131.335	47.994	0	268.80	0	4.9610	0	33.7910	0	26.724	0	266.371	0	102.7	4	33.1	4	-1E+10	1	-1E+10	1	-1E+10	1	-1E+10	1	-1E+10	1	-1E+10	1
4902551	87	C	01/09/2023	11:04	-131.335	47.994	0	269.80	0	4.9500	0	33.7940	0	26.727	0	267.361	0	102.1	4	32.9	4	-1E+10	1	-1E+10	1	-1E+10	1	-1E+10	1	-1E+10	1	-1E+10	1
4902551	87	C	01/09/2023	11:04	-131.335	47.994	0	270.70	0	4.9230	0	33.7950	0	26.731	0	268.253	0	101.7	4	32.7	4	-1E+10	1	-1E+10	1	-1E+10	1	-1E+10	1	-1E+10	1	-1E+10	1
4902551	87	C	01/09/2023	11:04	-131.335	47.994	0	271.70	0	4.9200	0	33.7950	0	26.731	0	269.243	0	101.2	4	32.6	4	-1E+10	1	-1E+10	1	-1E+10	1	-1E+10	1	-1E+10	1	-1E+10	1
4902551	87	C	01/09/2023	11:04	-131.335	47.994	0	272.60	0	4.9170	0	33.7960	0	26.733	0	270.134	0	100.7	4	32.4	4	-1E+10	1	-1E+10	1	-1E+10	1	-1E+10	1	-1E+10	1	-1E+10	1
4902551	87	C	01/09/2023	11:04	-131.335	47.994	0	273.60	0	4.9090	0	33.7970	0	26.734	0	271.125	0	100.1	4	32.2	4	-1E+10	1	-1E+10	1	-1E+10	1	-1E+10	1	-1E+10	1	-1E+10	1
4902551	87	C	01/09/2023	11:04	-131.335	47.994	0	274.50	0	4.8960	0	33.7950	0	26.734	0	272.016	0	99.5	4	32.0	4	-1E+10	1	-1E+10	1	-1E+10	1	-1E+10	1	-1E+10	1	-1E+10	1
4902551	87	C	01/09/2023	11:04	-131.335	47.994	0	275.50	0	4.8810	0	33.7960	0	26.737	0	273.006	0	99.0	4	31.8	4	-1E+10	1	-1E+10	1	-1E+10	1	-1E+10	1	-1E+10	1	-1E+10	1
4902551	87	C	01/09/2023	11:04	-131.335	47.994	0	276.90	0	4.8630	0	33.7970	0	26.739	0	274.393	0	98.2	4	31.5	4	-1E+10	1	-1E+10	1	-1E+10	1	-1E+10	1	-1E+10	1	-1E+10	1
4902551	87	C	01/09/2023	11:04	-131.335	47.994	0	278.90	0	4.8320	0	33.8000	0	26.745	0	276.373	0	97.3	4	31.3	4	-1E+10	1	-1E+10	1	-1E+10	1	-1E+10	1	-1E+10	1	-1E+10	1
4902551	87	C	01/09/2023	11:04	-131.335	47.994	0	280.40	0	4.8230	0	33.8020	0	26.748	0	277.859	0	96.8	4	31.1	4	-1E+10	1	-1E+10	1	-1E+10	1	-1E+10	1	-1E+10	1	-1E+10	1
4902551	87	C	01/09/2023	11:04	-131.335	47.994	0	281.40	0	4.8220	0	33.8010	0	26.747	0	278.849	0	96.4	4	30.9	4	-1E+10	1	-1E+10	1	-1E+10	1	-1E+10	1	-1E+10	1	-1E+10	1
4902551	87	C	01/09/2023	11:04	-131.335	47.994	0	282.30	0	4.8110	0	33.8030	0	26.750	0	279.740	0	96.0	4	30.8	4	-1E+10	1	-1E+10	1	-1E+10	1	-1E+10	1	-1E+10	1	-1E+10	1
4902551	87	C	01/09/2023	11:04	-131.335	47.994	0	283.20	0	4.8100	0	33.8030	0	26.750	0	280.631	0	95.6	4	30.7	4	-1E+10	1	-1E+10	1	-1E+10	1	-1E+10	1	-1E+10	1	-1E+10	1
4902551	87	C	01/09/2023	11:04	-131.335	47.994	0	284.20	0	4.8050	0	33.8050	0	26.752	0	281.622	0	95.2	4	30.5	4	-1E+10	1	-1E+10	1	-1E+10	1	-1E+10	1	-1E+10	1	-1E+10	1
4902551	87	C	01/09/2023	11:04	-131.335	47.994	0	285.10	0	4.8050	0	33.8040	0	26.752	0	282.513	0	94.7	4	30.4	4	-1E+10	1	-1E+10	1	-1E+10	1	-1E+10	1	-1E+10	1	-1E+10	1
4902551	87	C	01/09/2023	11:04	-131.335	47.994	0	286.10	0	4.8060	0	33.8030	0	26.751	0	283.503	0	94.3	4	30.3	4	-1E+10	1	-1E+10	1	-1E+10	1	-1E+10	1	-1E+10	1	-1E+10	1
4902551	87	C	01/09/2023	11:04	-131.335	47.994	0	287.10	0	4.7850	0	33.8080	0	26.757	0	284.493	0	93.9	4	30.1	4	-1E+10	1	-1E+10	1	-1E+10	1	-1E+10	1	-1E+10	1	-1E+10	1
4902551	87	C	01/09/2023	11:04	-131.335	47.994	0	288.10	0	4.7850	0	33.8080	0	26.757	0	285.483	0	93.4	4	30.0	4	-1E+10	1	-1E+10	1	-1E+10	1	-1E+10	1	-1E+10	1	-1E+10	1
4902551	87	C	01/09/2023	11:04	-131.335	47.994	0	289.10	0	4.7860	0	33.8070	0	26.756	0	286.474	0	93.0	4	29.8	4	-1E+10	1	-1E+10	1	-1E+10	1	-1E+10	1	-1E+10	1	-1E+10	1
4902551	87	C	01/09/2023	11:04	-131.335	47.994	0	290.10	0	4.7860	0	33.8080	0	26.757	0	287.464	0	92.4	4	29.7	4	-1E+10	1	-1E+10	1	-1E+10	1	-1E+10	1	-1E+10	1	-1E+10	1
4902551	87	C	01/09/2023	11:04	-131.335	47.994	0	291.10	0	4.7830	0	33.8090	0	26.758	0	288.454	0	91.9	4	29.5	4	-1E+10	1	-1E+10	1	-1E+10	1	-1E+10	1	-1E+10	1	-1E+10	1
4902551	87	C	01/09/2023	11:04	-131.335	47.994	0	292.20	0	4.7770	0	33.8100	0	26.759	0	289.543	0	91.2	4	29.3	4	-1E+10	1	-1E+10	1	-1E+10	1	-1E+10	1	-1E+10	1	-1E+10	1
4902551	87	C	01/09/2023	11:04	-131.335	47.994	0	293.20	0	4.7710	0	33.8110	0	26.761	0	290.534	0	90.7	4	29.1	4	-1E+10	1	-1E+10	1	-1E+10	1	-1E+10	1	-1E+10	1	-1E+10	1
4902551	87	C	01/09/2023	11:04	-131.335	47.994	0	294.20	0	4.7600	0	33.8140	0	26.765	0	291.524	0	90.1	4	28.9	4	-1E+10	1	-1E+10	1	-1E+10	1	-1E+10	1	-1E+10	1	-1E+10	1
4902551	87	C	01/09/2023	11:04	-131.335	47.994	0	295.30	0	4.7440	0	33.8180	0	26.769	0	292.613	0	89.7	4	28.8	4	-1E+10	1	-1E+10	1	-1E+10	1	-1E+10	1	-1E+10	1	-1E+10	1
4902551	87	C	01/09/2023	11:04	-131.335	47.994	0	296.30	0	4.7340	0	33.8210	0	26.773	0	293.603	0	89.4	4	28.7	4	-1E+10	1	-1E+10	1	-1E+10	1	-1E+10	1	-1E+10	1	-1E+10	1
4902551	87	C	01/09/2023	11:04	-131.335	47.994	0	297.40	0	4.7320	0	33.8220	0	26.774	0	294.692	0	89.2	4	28.6	4	-1E+10	1	-1E+10	1	-1E+10	1	-1E+10	1	-1E+10	1	-1E+10	1
4902551	87	C	01/09/2023	11:04	-131.335	47.994	0	298.40	0	4.7320	0	33.8210	0	26.773	0	295.683	0	88.9	4	28.5	4	-1E+10	1	-1E+10	1	-1E+10	1	-1E+10	1	-1E+10	1	-1E+10	1
4902551	87	C	01/09/2023	11:04	-131.335	47.994	0	299.50	0	4.7260	0	33.8230	0	26.775	0	296.772	0	88.6	4	28.4	4	-1E+10	1	-1E+10	1	-1E+10	1	-1E+10	1	-1E+10	1	-1E+10	1
4902551	87	C	01/09/2023	11:04	-131.335	47.994	0	300.50	0	4.7250	0	33.8230	0	26.776	0	297.762	0	88.3	4	28.3	4	-1E+10	1	-1E+10	1	-1E+10	1	-1E+10	1	-1E+10	1	-1E+10	1
4902551	87	C	01/09/2023	11:04	-131.335	47.994	0	301.50	0	4.7240	0	33.8230	0	26.776	0	298.752	0	87.9	4	28.2	4	-1E+10	1	-1E+10	1	-1E+10	1	-1E+10	1	-1E+10	1	-1E+10	1
4902551	87	C	01/09/2023	11:04	-131.335	47.994	0	302.50	0	4.7240	0	33.8230	0	26.776	0	299.742	0	87.5	4	28.0	4	-1E+10	1	-1E+10	1	-1E+10	1	-1E+10	1	-1E+10	1	-1E+10	1
4902551	87	C	01/09/2023	11:04	-131.335	47.994	0	303.60	0	4.7230	0	33.8230	0	26.776	0	300.831	0	87.1	4	27.9	4	-1E+10	1	-1E+10	1	-1E+10	1	-1E+10	1	-1E+10	1	-1E+10	1
4902551	87	C	01/09/2023	11:04	-131.335	47.994	0	304.60	0	4.7220	0	33.8230	0	26.776	0	301.822	0	86.6	4	27.7	4	-1E+10	1	-1E+10	1	-1E+10	1	-1E+10	1	-1E+10	1	-1E+10	1
4902551	87	C	01/09/2023	11:04	-131.335	47.994	0	305.60	0	4.7200	0	33.8240	0	26.777	0	302.812	0	86.0	4	27.5	4	-1E+10	1	-1E+10	1	-1E+10	1	-1E+10	1	-1E+10	1	-1E+10	1
4902551	87	C	01/09/2023	11:04	-131.335	47.994	0	306.50	0	4.7140	0	33.8260	0	26.779	0	303.703	0	85.5	4	27.4	4	-1E+10	1	-1E+10	1	-1E+10	1	-1E+10	1	-1E+10	1	-1E+10	1
4902551	87	C	01/09/2023	11:04	-131.335	47.994	0	308.00	0	4.6960	0	33.8280	0	26.783	0	305.188	0	84.7	4	27.1	4	-1E+10	1	-1E+10	1	-1E+10	1	-1E+10	1	-1E+10	1	-1E+10	1
4902551	87	C	01/09/2023	11:04	-131.335	47.994	0	309.20	0	4.6870	0	33.8300	0	26.785	0	306.376	0	84.1	4	26.9	4	-1E+10	1	-1E+10	1	-1E+10	1	-1E+10	1	-1E+10	1	-1E+10	1
4902551	87	C	01/09/2023	11:04	-131.335	47.994	0	310.00	0	4.6830	0	33.8310	0	26.787	0	307.168	0	83.8	4	26.8	4	-1E+10	1	-1E+10	1	-1E+10	1	-1E+10	1	-1E+10	1	-1E+10	1
4902551	87	C	01/09/2023	11:04	-131.335	47.994	0	310.70	0	4.6810	0	33.8340	0	26.789	0	307.861	0	83.5	4	26.7	4	-1E+10	1	-1E+10	1	-1E+10	1	-1E+10	1	-1E+10	1	-1E+10	1
4902551	87	C	01/09/2023	11:04	-131.335	47.994	0	311.90	0	4.6800	0	33.8370	0	26.792	0	309.050	0	83.0	4	26.6	4	-1E+10	1	-1E+10	1	-1E+10	1	-1E+10	1	-1E+10	1	-1E+10	1
4902551	87	C	01/09/2023	11:04	-131.335	47.994	0	313.10	0	4.6750	0	33.8370	0	26.792	0	310.238	0	82.5	4	26.4	4	-1E+10	1	-1E+10	1	-1E+10	1	-1E+10	1	-1E+10	1	-1E+10	1
4902551	87	C	01/09/2023	11:04	-131.335	47.994	0	313.80	0	4.6720	0	33.8380	0	26.793	0	310.931	0	82.2	4	26.3	4	-1E+10	1	-1E+10	1	-1E+10	1	-1E+10	1	-1E+10	1	-1E+10	1
4902551	87	C	01/09/2023	11:04	-131.335	47.994	0	315.00	0	4.6600	0	33.8400	0	26.796	0	312.119	0	81.8	4	26.2	4	-1E+10	1	-1E+10	1	-1E+10	1	-1E+10	1	-1E+10	1	-1E+10	1
4902551	87	C	01/09/2023	11:04	-131.335	47.994	0	316.20	0	4.6520	0	33.8410	0	26.798	0	313.307	0	81.3	4	26.0	4	-1E+10	1	-1E+10	1	-1E+10	1	-1E+10	1	-1E+10	1	-1E+10	1
4902551	87	C	01/09/2023	11:04	-131.335	47.994	0	317.00	0	4.6460	0	33.8410	0	26.799	0	314.099	0	81.0	4	25.9	4	-1E+10	1	-1E+10	1	-1E+10	1	-1E+10	1	-1E+10	1	-1E+10	1
4902551	87	C	01/09/2023	11:04	-131.335	47.994	0	317.70	0	4.6440	0	33.8420	0	26.800	0	314.792	0	80.7	4	25.8	4	-1E+10	1	-1E+10	1	-1E+10	1	-1E+10	1	-1E+10	1	-1E+10	1
4902551	87	C	01/09/2023	11:04	-131.335	47.994	0	318.90	0	4.6390	0	33.8430	0	26.801	0	315.980	0	80.3	4	25.7	4	-1E+10	1	-1E+10	1	-1E+10	1	-1E+10	1	-1E+10	1	-1E+10	1
4902551	87	C	01/09/2023	11:04	-131.335	47.994	0	320.10	0	4.6300	0	33.8460	0	26.804	0	317.168	0	79.9	4	25.6	4	-1E+10	1	-1E+10	1	-1E+10	1	-1E+10	1	-1E+10	1	-1E+10	1
4902551	87	C	01/09/2023	11:04	-131.335	47.994	0	320.90	0	4.6230	0	33.8480	0	26.807	0	317.960	0	79.7	4	25.5	4	-1E+10	1	-1E+10	1	-1E+10	1	-1E+10	1	-1E+10	1	-1E+10	1
4902551	87	C	01/09/2023	11:04	-131.335	47.994	0	321.70	0	4.6220	0	33.8480	0	26.807	0	318.752	0	79.6	4	25.4	4	-1E+10	1	-1E+10	1	-1E+10	1	-1E+10	1	-1E+10	1	-1E+10	1
4902551	87	C	01/09/2023	11:04	-131.335	47.994	0	322.90	0	4.6170	0	33.8490	0	26.808	0	319.941	0	79.3	4	25.3	4	-1E+10	1	-1E+10	1	-1E+10	1	-1E+10	1	-1E+10	1	-1E+10	1
4902551	87	C	01/09/2023	11:04	-131.335	47.994	0	324.10	0	4.6160	0	33.8500	0	26.809	0	321.129	0	79.0	4	25.2	4	-1E+10	1	-1E+10	1	-1E+10	1	-1E+10	1	-1E+10	1	-1E+10	1
4902551	87	C	01/09/2023	11:04	-131.335	47.994	0	324.90	0	4.6100	0	33.8520	0	26.811	0	321.921	0	78.8	4	25.2	4	-1E+10	1	-1E+10	1	-1E+10	1	-1E+10	1	-1E+10	1	-1E+10	1
4902551	87	C	01/09/2023	11:04	-131.335	47.994	0	325.80	0	4.6110	0	33.8520	0	26.811	0	322.812	0	78.6	4	25.1	4	-1E+10	1	-1E+10	1	-1E+10	1	-1E+10	1	-1E+10	1	-1E+10	1
4902551	87	C	01/09/2023	11:04	-131.335	47.994	0	327.00	0	4.6110	0	33.8520	0	26.811	0	324.000	0	78.3	4	25.0	4	-1E+10	1	-1E+10	1	-1E+10	1	-1E+10	1	-1E+10	1	-1E+10	1
4902551	87	C	01/09/2023	11:04	-131.335	47.994	0	328.30	0	4.6090	0	33.8520	0	26.811	0	325.287	0	78.0	4	24.9	4	-1E+10	1	-1E+10	1	-1E+10	1	-1E+10	1	-1E+10	1	-1E+10	1
4902551	87	C	01/09/2023	11:04	-131.335	47.994	0	329.10	0	4.6020	0	33.8530	0	26.813	0	326.079	0	77.8	4	24.9	4	-1E+10	1	-1E+10	1	-1E+10	1	-1E+10	1	-1E+10	1	-1E+10	1
4902551	87	C	01/09/2023	11:04	-131.335	47.994	0	329.90	0	4.5850	0	33.8540	0	26.816	0	326.871	0	77.6	4	24.8	4	-1E+10	1	-1E+10	1	-1E+10	1	-1E+10	1	-1E+10	1	-1E+10	1
4902551	87	C	01/09/2023	11:04	-131.335	47.994	0	330.70	0	4.5860	0	33.8560	0	26.817	0	327.663	0	77.5	4	24.7	4	-1E+10	1	-1E+10	1	-1E+10	1	-1E+10	1	-1E+10	1	-1E+10	1
4902551	87	C	01/09/2023	11:04	-131.335	47.994	0	332.00	0	4.5840	0	33.8540	0	26.816	0	328.950	0	77.2	4	24.7	4	-1E+10	1	-1E+10	1	-1E+10	1	-1E+10	1	-1E+10	1	-1E+10	1
4902551	87	C	01/09/2023	11:04	-131.335	47.994	0	333.20	0	4.5840	0	33.8530	0	26.815	0	330.138	0	76.8	4	24.5	4	-1E+10	1	-1E+10	1	-1E+10	1	-1E+10	1	-1E+10	1	-1E+10	1
4902551	87	C	01/09/2023	11:04	-131.335	47.994	0	334.10	0	4.5830	0	33.8530	0	26.815	0	331.029	0	76.5	4	24.4	4	-1E+10	1	-1E+10	1	-1E+10	1	-1E+10	1	-1E+10	1	-1E+10	1
4902551	87	C	01/09/2023	11:04	-131.335	47.994	0	334.90	0	4.5830	0	33.8530	0	26.815	0	331.821	0	76.1	4	24.3	4	-1E+10	1	-1E+10	1	-1E+10	1	-1E+10	1	-1E+10	1	-1E+10	1
4902551	87	C	01/09/2023	11:04	-131.335	47.994	0	335.80	0	4.5670	0	33.8540	0	26.818	0	332.712	0	75.9	4	24.2	4	-1E+10	1	-1E+10	1	-1E+10	1	-1E+10	1	-1E+10	1	-1E+10	1
4902551	87	C	01/09/2023	11:04	-131.335	47.994	0	337.00	0	4.5560	0	33.8540	0	26.819	0	333.900	0	75.5	4	24.1	4	-1E+10	1	-1E+10	1	-1E+10	1	-1E+10	1	-1E+10	1	-1E+10	1
4902551	87	C	01/09/2023	11:04	-131.335	47.994	0	338.30	0	4.5470	0	33.8560	0	26.821	0	335.187	0	75.1	4	24.0	4	-1E+10	1	-1E+10	1	-1E+10	1	-1E+10	1	-1E+10	1	-1E+10	1
4902551	87	C	01/09/2023	11:04	-131.335	47.994	0	339.10	0	4.5470	0	33.8560	0	26.821	0	335.979	0	74.9	4	23.9	4	-1E+10	1	-1E+10	1	-1E+10	1	-1E+10	1	-1E+10	1	-1E+10	1
4902551	87	C	01/09/2023	11:04	-131.335	47.994	0	340.00	0	4.5460	0	33.8560	0	26.822	0	336.870	0	74.7	4	23.8	4	-1E+10	1	-1E+10	1	-1E+10	1	-1E+10	1	-1E+10	1	-1E+10	1
4902551	87	C	01/09/2023	11:04	-131.335	47.994	0	340.80	0	4.5360	0	33.8580	0	26.824	0	337.662	0	74.5	4	23.8	4	-1E+10	1	-1E+10	1	-1E+10	1	-1E+10	1	-1E+10	1	-1E+10	1
4902551	87	C	01/09/2023	11:04	-131.335	47.994	0	341.70	0	4.5340	0	33.8580	0	26.824	0	338.553	0	74.3	4	23.7	4	-1E+10	1	-1E+10	1	-1E+10	1	-1E+10	1	-1E+10	1	-1E+10	1
4902551	87	C	01/09/2023	11:04	-131.335	47.994	0	342.90	0	4.5300	0	33.8590	0	26.826	0	339.741	0	74.0	4	23.6	4	-1E+10	1	-1E+10	1	-1E+10	1	-1E+10	1	-1E+10	1	-1E+10	1
4902551	87	C	01/09/2023	11:04	-131.335	47.994	0	344.20	0	4.5280	0	33.8600	0	26.827	0	341.028	0	73.7	4	23.5	4	-1E+10	1	-1E+10	1	-1E+10	1	-1E+10	1	-1E+10	1	-1E+10	1
4902551	87	C	01/09/2023	11:04	-131.335	47.994	0	345.00	0	4.5270	0	33.8610	0	26.828	0	341.820	0	73.5	4	23.4	4	-1E+10	1	-1E+10	1	-1E+10	1	-1E+10	1	-1E+10	1	-1E+10	1
4902551	87	C	01/09/2023	11:04	-131.335	47.994	0	345.80	0	4.5250	0	33.8610	0	26.828	0	342.612	0	73.3	4	23.4	4	-1E+10	1	-1E+10	1	-1E+10	1	-1E+10	1	-1E+10	1	-1E+10	1
4902551	87	C	01/09/2023	11:04	-131.335	47.994	0	346.70	0	4.5240	0	33.8630	0	26.830	0	343.503	0	73.0	4	23.3	4	-1E+10	1	-1E+10	1	-1E+10	1	-1E+10	1	-1E+10	1	-1E+10	1
4902551	87	C	01/09/2023	11:04	-131.335	47.994	0	347.90	0	4.5240	0	33.8630	0	26.830	0	344.691	0	72.6	4	23.2	4	-1E+10	1	-1E+10	1	-1E+10	1	-1E+10	1	-1E+10	1	-1E+10	1
4902551	87	C	01/09/2023	11:04	-131.335	47.994	0	349.20	0	4.5240	0	33.8640	0	26.830	0	345.978	0	72.2	4	23.0	4	-1E+10	1	-1E+10	1	-1E+10	1	-1E+10	1	-1E+10	1	-1E+10	1
4902551	87	C	01/09/2023	11:04	-131.335	47.994	0	350.00	0	4.5210	0	33.8650	0	26.831	0	346.770	0	71.9	4	22.9	4	-1E+10	1	-1E+10	1	-1E+10	1	-1E+10	1	-1E+10	1	-1E+10	1
4902551	87	C	01/09/2023	11:04	-131.335	47.994	0	352.90	0	4.5080	0	33.8680	0	26.835	0	349.640	0	71.0	4	22.6	4	-1E+10	1	-1E+10	1	-1E+10	1	-1E+10	1	-1E+10	1	-1E+10	1
4902551	87	C	01/09/2023	11:04	-131.335	47.994	0	357.90	0	4.4900	0	33.8710	0	26.840	0	354.590	0	69.0	4	22.0	4	-1E+10	1	-1E+10	1	-1E+10	1	-1E+10	1	-1E+10	1	-1E+10	1
4902551	87	C	01/09/2023	11:04	-131.335	47.994	0	362.70	0	4.4640	0	33.8770	0	26.847	0	359.341	0	66.7	4	21.2	4	-1E+10	1	-1E+10	1	-1E+10	1	-1E+10	1	-1E+10	1	-1E+10	1
4902551	87	C	01/09/2023	11:04	-131.335	47.994	0	367.70	0	4.4350	0	33.8860	0	26.858	0	364.291	0	64.2	4	20.4	4	-1E+10	1	-1E+10	1	-1E+10	1	-1E+10	1	-1E+10	1	-1E+10	1
4902551	87	C	01/09/2023	11:04	-131.335	47.994	0	372.80	0	4.4160	0	33.8940	0	26.866	0	369.339	0	61.6	4	19.6	4	-1E+10	1	-1E+10	1	-1E+10	1	-1E+10	1	-1E+10	1	-1E+10	1
4902551	87	C	01/09/2023	11:04	-131.335	47.994	0	377.80	0	4.3920	0	33.9100	0	26.881	0	374.288	0	58.9	4	18.7	4	-1E+10	1	-1E+10	1	-1E+10	1	-1E+10	1	-1E+10	1	-1E+10	1
4902551	87	C	01/09/2023	11:04	-131.335	47.994	0	382.90	0	4.3860	0	33.9230	0	26.892	0	379.336	0	56.6	4	18.0	4	-1E+10	1	-1E+10	1	-1E+10	1	-1E+10	1	-1E+10	1	-1E+10	1
4902551	87	C	01/09/2023	11:04	-131.335	47.994	0	388.10	0	4.3610	0	33.9340	0	26.904	0	384.483	0	54.8	4	17.4	4	-1E+10	1	-1E+10	1	-1E+10	1	-1E+10	1	-1E+10	1	-1E+10	1
4902551	87	C	01/09/2023	11:04	-131.335	47.994	0	392.80	0	4.3470	0	33.9420	0	26.912	0	389.134	0	53.5	4	17.0	4	-1E+10	1	-1E+10	1	-1E+10	1	-1E+10	1	-1E+10	1	-1E+10	1
4902551	87	C	01/09/2023	11:04	-131.335	47.994	0	397.70	0	4.3350	0	33.9480	0	26.918	0	393.984	0	52.3	4	16.6	4	-1E+10	1	-1E+10	1	-1E+10	1	-1E+10	1	-1E+10	1	-1E+10	1
4902551	87	C	01/09/2023	11:04	-131.335	47.994	0	403.10	0	4.3190	0	33.9540	0	26.924	0	399.328	0	51.1	4	16.2	4	-1E+10	1	-1E+10	1	-1E+10	1	-1E+10	1	-1E+10	1	-1E+10	1
4902551	87	C	01/09/2023	11:04	-131.335	47.994	0	408.20	0	4.3060	0	33.9590	0	26.929	0	404.376	0	50.1	4	15.9	4	-1E+10	1	-1E+10	1	-1E+10	1	-1E+10	1	-1E+10	1	-1E+10	1
4902551	87	C	01/09/2023	11:04	-131.335	47.994	0	412.90	0	4.2920	0	33.9630	0	26.934	0	409.027	0	49.1	4	15.6	4	-1E+10	1	-1E+10	1	-1E+10	1	-1E+10	1	-1E+10	1	-1E+10	1
4902551	87	C	01/09/2023	11:04	-131.335	47.994	0	417.70	0	4.2770	0	33.9710	0	26.942	0	413.777	0	48.2	4	15.3	4	-1E+10	1	-1E+10	1	-1E+10	1	-1E+10	1	-1E+10	1	-1E+10	1
4902551	87	C	01/09/2023	11:04	-131.335	47.994	0	422.60	0	4.2700	0	33.9740	0	26.945	0	418.626	0	47.5	4	15.1	4	-1E+10	1	-1E+10	1	-1E+10	1	-1E+10	1	-1E+10	1	-1E+10	1
4902551	87	C	01/09/2023	11:04	-131.335	47.994	0	427.60	0	4.2630	0	33.9770	0	26.948	0	423.574	0	46.7	4	14.8	4	-1E+10	1	-1E+10	1	-1E+10	1	-1E+10	1	-1E+10	1	-1E+10	1
4902551	87	C	01/09/2023	11:04	-131.335	47.994	0	432.60	0	4.2530	0	33.9820	0	26.954	0	428.522	0	45.9	4	14.6	4	-1E+10	1	-1E+10	1	-1E+10	1	-1E+10	1	-1E+10	1	-1E+10	1
4902551	87	C	01/09/2023	11:04	-131.335	47.994	0	437.70	0	4.2450	0	33.9870	0	26.958	0	433.568	0	45.1	4	14.3	4	-1E+10	1	-1E+10	1	-1E+10	1	-1E+10	1	-1E+10	1	-1E+10	1
4902551	87	C	01/09/2023	11:04	-131.335	47.994	0	443.20	0	4.2360	0	33.9920	0	26.963	0	439.011	0	44.1	4	14.0	4	-1E+10	1	-1E+10	1	-1E+10	1	-1E+10	1	-1E+10	1	-1E+10	1
4902551	87	C	01/09/2023	11:04	-131.335	47.994	0	448.10	0	4.2270	0	33.9980	0	26.969	0	443.859	0	43.1	4	13.7	4	-1E+10	1	-1E+10	1	-1E+10	1	-1E+10	1	-1E+10	1	-1E+10	1
4902551	87	C	01/09/2023	11:04	-131.335	47.994	0	452.70	0	4.2160	0	34.0050	0	26.976	0	448.411	0	42.1	4	13.3	4	-1E+10	1	-1E+10	1	-1E+10	1	-1E+10	1	-1E+10	1	-1E+10	1
4902551	87	C	01/09/2023	11:04	-131.335	47.994	0	457.90	0	4.2060	0	34.0130	0	26.983	0	453.556	0	41.0	4	13.0	4	-1E+10	1	-1E+10	1	-1E+10	1	-1E+10	1	-1E+10	1	-1E+10	1
4902551	87	C	01/09/2023	11:04	-131.335	47.994	0	463.20	0	4.1960	0	34.0210	0	26.991	0	458.800	0	40.3	4	12.8	4	-1E+10	1	-1E+10	1	-1E+10	1	-1E+10	1	-1E+10	1	-1E+10	1
4902551	87	C	01/09/2023	11:04	-131.335	47.994	0	468.00	0	4.1920	0	34.0240	0	26.994	0	463.549	0	39.7	4	12.6	4	-1E+10	1	-1E+10	1	-1E+10	1	-1E+10	1	-1E+10	1	-1E+10	1
4902551	87	C	01/09/2023	11:04	-131.335	47.994	0	472.90	0	4.1880	0	34.0280	0	26.997	0	468.396	0	39.0	4	12.4	4	-1E+10	1	-1E+10	1	-1E+10	1	-1E+10	1	-1E+10	1	-1E+10	1
4902551	87	C	01/09/2023	11:04	-131.335	47.994	0	477.80	0	4.1830	0	34.0310	0	27.000	0	473.244	0	38.0	4	12.1	4	-1E+10	1	-1E+10	1	-1E+10	1	-1E+10	1	-1E+10	1	-1E+10	1
4902551	87	C	01/09/2023	11:04	-131.335	47.994	0	482.90	0	4.1720	0	34.0370	0	27.006	0	478.290	0	37.0	4	11.7	4	-1E+10	1	-1E+10	1	-1E+10	1	-1E+10	1	-1E+10	1	-1E+10	1
4902551	87	C	01/09/2023	11:04	-131.335	47.994	0	487.90	0	4.1570	0	34.0450	0	27.014	0	483.236	0	36.2	4	11.4	4	-1E+10	1	-1E+10	1	-1E+10	1	-1E+10	1	-1E+10	1	-1E+10	1
4902551	87	C	01/09/2023	11:04	-131.335	47.994	0	493.10	0	4.1480	0	34.0490	0	27.018	0	488.380	0	35.5	4	11.2	4	-1E+10	1	-1E+10	1	-1E+10	1	-1E+10	1	-1E+10	1	-1E+10	1
4902551	87	C	01/09/2023	11:04	-131.335	47.994	0	497.80	0	4.1400	0	34.0530	0	27.022	0	493.030	0	34.7	4	11.0	4	-1E+10	1	-1E+10	1	-1E+10	1	-1E+10	1	-1E+10	1	-1E+10	1
4902551	87	C	01/09/2023	11:04	-131.335	47.994	0	502.60	0	4.1280	0	34.0580	0	27.027	0	497.778	0	34.0	4	10.7	4	-1E+10	1	-1E+10	1	-1E+10	1	-1E+10	1	-1E+10	1	-1E+10	1
4902551	87	C	01/09/2023	11:04	-131.335	47.994	0	507.80	0	4.1220	0	34.0610	0	27.031	0	502.922	0	33.2	4	10.5	4	-1E+10	1	-1E+10	1	-1E+10	1	-1E+10	1	-1E+10	1	-1E+10	1
4902551	87	C	01/09/2023	11:04	-131.335	47.994	0	513.00	0	4.1110	0	34.0670	0	27.036	0	508.066	0	32.2	4	10.2	4	-1E+10	1	-1E+10	1	-1E+10	1	-1E+10	1	-1E+10	1	-1E+10	1
4902551	87	C	01/09/2023	11:04	-131.335	47.994	0	518.10	0	4.0950	0	34.0740	0	27.044	0	513.110	0	31.4	4	9.9	4	-1E+10	1	-1E+10	1	-1E+10	1	-1E+10	1	-1E+10	1	-1E+10	1
4902551	87	C	01/09/2023	11:04	-131.335	47.994	0	523.00	0	4.0860	0	34.0790	0	27.049	0	517.957	0	30.8	4	9.8	4	-1E+10	1	-1E+10	1	-1E+10	1	-1E+10	1	-1E+10	1	-1E+10	1
4902551	87	C	01/09/2023	11:04	-131.335	47.994	0	527.80	0	4.0800	0	34.0820	0	27.052	0	522.705	0	30.2	4	9.6	4	-1E+10	1	-1E+10	1	-1E+10	1	-1E+10	1	-1E+10	1	-1E+10	1
4902551	87	C	01/09/2023	11:04	-131.335	47.994	0	533.10	0	4.0690	0	34.0870	0	27.057	0	527.947	0	29.6	4	9.4	4	-1E+10	1	-1E+10	1	-1E+10	1	-1E+10	1	-1E+10	1	-1E+10	1
4902551	87	C	01/09/2023	11:04	-131.335	47.994	0	538.10	0	4.0590	0	34.0920	0	27.062	0	532.892	0	29.2	4	9.2	4	-1E+10	1	-1E+10	1	-1E+10	1	-1E+10	1	-1E+10	1	-1E+10	1
4902551	87	C	01/09/2023	11:04	-131.335	47.994	0	543.10	0	4.0540	0	34.0950	0	27.065	0	537.837	0	28.8	4	9.1	4	-1E+10	1	-1E+10	1	-1E+10	1	-1E+10	1	-1E+10	1	-1E+10	1
4902551	87	C	01/09/2023	11:04	-131.335	47.994	0	548.20	0	4.0460	0	34.0990	0	27.069	0	542.881	0	28.5	4	9.0	4	-1E+10	1	-1E+10	1	-1E+10	1	-1E+10	1	-1E+10	1	-1E+10	1
4902551	87	C	01/09/2023	11:04	-131.335	47.994	0	552.80	0	4.0430	0	34.1000	0	27.070	0	547.430	0	28.2	4	8.9	4	-1E+10	1	-1E+10	1	-1E+10	1	-1E+10	1	-1E+10	1	-1E+10	1
4902551	87	C	01/09/2023	11:04	-131.335	47.994	0	557.90	0	4.0380	0	34.1030	0	27.073	0	552.474	0	27.8	4	8.8	4	-1E+10	1	-1E+10	1	-1E+10	1	-1E+10	1	-1E+10	1	-1E+10	1
4902551	87	C	01/09/2023	11:04	-131.335	47.994	0	563.00	0	4.0310	0	34.1060	0	27.076	0	557.518	0	27.4	4	8.7	4	-1E+10	1	-1E+10	1	-1E+10	1	-1E+10	1	-1E+10	1	-1E+10	1
4902551	87	C	01/09/2023	11:04	-131.335	47.994	0	567.60	0	4.0260	0	34.1080	0	27.078	0	562.067	0	27.1	4	8.6	4	-1E+10	1	-1E+10	1	-1E+10	1	-1E+10	1	-1E+10	1	-1E+10	1
4902551	87	C	01/09/2023	11:04	-131.335	47.994	0	572.80	0	4.0180	0	34.1110	0	27.081	0	567.209	0	26.7	4	8.4	4	-1E+10	1	-1E+10	1	-1E+10	1	-1E+10	1	-1E+10	1	-1E+10	1
4902551	87	C	01/09/2023	11:04	-131.335	47.994	0	577.80	0	4.0040	0	34.1180	0	27.088	0	572.153	0	26.2	4	8.3	4	-1E+10	1	-1E+10	1	-1E+10	1	-1E+10	1	-1E+10	1	-1E+10	1
4902551	87	C	01/09/2023	11:04	-131.335	47.994	0	582.90	0	3.9970	0	34.1200	0	27.091	0	577.196	0	25.8	4	8.2	4	-1E+10	1	-1E+10	1	-1E+10	1	-1E+10	1	-1E+10	1	-1E+10	1
4902551	87	C	01/09/2023	11:04	-131.335	47.994	0	588.10	0	3.9860	0	34.1250	0	27.096	0	582.338	0	25.5	4	8.0	4	-1E+10	1	-1E+10	1	-1E+10	1	-1E+10	1	-1E+10	1	-1E+10	1
4902551	87	C	01/09/2023	11:04	-131.335	47.994	0	592.70	0	3.9810	0	34.1270	0	27.098	0	586.887	0	25.1	4	7.9	4	-1E+10	1	-1E+10	1	-1E+10	1	-1E+10	1	-1E+10	1	-1E+10	1
4902551	87	C	01/09/2023	11:04	-131.335	47.994	0	597.80	0	3.9670	0	34.1320	0	27.104	0	591.929	0	24.7	4	7.8	4	-1E+10	1	-1E+10	1	-1E+10	1	-1E+10	1	-1E+10	1	-1E+10	1
4902551	87	C	01/09/2023	11:04	-131.335	47.994	0	602.90	0	3.9530	0	34.1380	0	27.110	0	596.972	0	24.4	4	7.7	4	-1E+10	1	-1E+10	1	-1E+10	1	-1E+10	1	-1E+10	1	-1E+10	1
4902551	87	C	01/09/2023	11:04	-131.335	47.994	0	607.90	0	3.9430	0	34.1410	0	27.113	0	601.916	0	24.1	4	7.6	4	-1E+10	1	-1E+10	1	-1E+10	1	-1E+10	1	-1E+10	1	-1E+10	1
4902551	87	C	01/09/2023	11:04	-131.335	47.994	0	612.90	0	3.9310	0	34.1450	0	27.118	0	606.859	0	23.7	4	7.5	4	-1E+10	1	-1E+10	1	-1E+10	1	-1E+10	1	-1E+10	1	-1E+10	1
4902551	87	C	01/09/2023	11:04	-131.335	47.994	0	617.90	0	3.9190	0	34.1500	0	27.123	0	611.802	0	23.5	4	7.4	4	-1E+10	1	-1E+10	1	-1E+10	1	-1E+10	1	-1E+10	1	-1E+10	1
4902551	87	C	01/09/2023	11:04	-131.335	47.994	0	623.00	0	3.9110	0	34.1520	0	27.125	0	616.844	0	23.3	4	7.3	4	-1E+10	1	-1E+10	1	-1E+10	1	-1E+10	1	-1E+10	1	-1E+10	1
4902551	87	C	01/09/2023	11:04	-131.335	47.994	0	628.00	0	3.9040	0	34.1540	0	27.128	0	621.788	0	23.1	4	7.3	4	-1E+10	1	-1E+10	1	-1E+10	1	-1E+10	1	-1E+10	1	-1E+10	1
4902551	87	C	01/09/2023	11:04	-131.335	47.994	0	633.20	0	3.8980	0	34.1560	0	27.130	0	626.928	0	22.8	4	7.2	4	-1E+10	1	-1E+10	1	-1E+10	1	-1E+10	1	-1E+10	1	-1E+10	1
4902551	87	C	01/09/2023	11:04	-131.335	47.994	0	638.00	0	3.8870	0	34.1590	0	27.133	0	631.674	0	22.4	4	7.1	4	-1E+10	1	-1E+10	1	-1E+10	1	-1E+10	1	-1E+10	1	-1E+10	1
4902551	87	C	01/09/2023	11:04	-131.335	47.994	0	642.80	0	3.8740	0	34.1630	0	27.138	0	636.419	0	22.1	4	7.0	4	-1E+10	1	-1E+10	1	-1E+10	1	-1E+10	1	-1E+10	1	-1E+10	1
4902551	87	C	01/09/2023	11:04	-131.335	47.994	0	647.70	0	3.8610	0	34.1680	0	27.143	0	641.262	0	21.8	4	6.8	4	-1E+10	1	-1E+10	1	-1E+10	1	-1E+10	1	-1E+10	1	-1E+10	1
4902551	87	C	01/09/2023	11:04	-131.335	47.994	0	652.70	0	3.8460	0	34.1720	0	27.148	0	646.205	0	21.4	4	6.7	4	-1E+10	1	-1E+10	1	-1E+10	1	-1E+10	1	-1E+10	1	-1E+10	1
4902551	87	C	01/09/2023	11:04	-131.335	47.994	0	657.80	0	3.8310	0	34.1770	0	27.153	0	651.246	0	21.1	4	6.6	4	-1E+10	1	-1E+10	1	-1E+10	1	-1E+10	1	-1E+10	1	-1E+10	1
4902551	87	C	01/09/2023	11:04	-131.335	47.994	0	662.90	0	3.8240	0	34.1790	0	27.156	0	656.287	0	20.9	4	6.6	4	-1E+10	1	-1E+10	1	-1E+10	1	-1E+10	1	-1E+10	1	-1E+10	1
4902551	87	C	01/09/2023	11:04	-131.335	47.994	0	668.10	0	3.8200	0	34.1800	0	27.157	0	661.427	0	20.6	4	6.5	4	-1E+10	1	-1E+10	1	-1E+10	1	-1E+10	1	-1E+10	1	-1E+10	1
4902551	87	C	01/09/2023	11:04	-131.335	47.994	0	672.90	0	3.8070	0	34.1840	0	27.162	0	666.172	0	20.3	4	6.4	4	-1E+10	1	-1E+10	1	-1E+10	1	-1E+10	1	-1E+10	1	-1E+10	1
4902551	87	C	01/09/2023	11:04	-131.335	47.994	0	677.80	0	3.7880	0	34.1890	0	27.167	0	671.015	0	20.0	4	6.3	4	-1E+10	1	-1E+10	1	-1E+10	1	-1E+10	1	-1E+10	1	-1E+10	1
4902551	87	C	01/09/2023	11:04	-131.335	47.994	0	682.80	0	3.7770	0	34.1920	0	27.171	0	675.957	0	19.7	4	6.2	4	-1E+10	1	-1E+10	1	-1E+10	1	-1E+10	1	-1E+10	1	-1E+10	1
4902551	87	C	01/09/2023	11:04	-131.335	47.994	0	687.80	0	3.7650	0	34.1960	0	27.175	0	680.898	0	19.4	4	6.1	4	-1E+10	1	-1E+10	1	-1E+10	1	-1E+10	1	-1E+10	1	-1E+10	1
4902551	87	C	01/09/2023	11:04	-131.335	47.994	0	692.90	0	3.7530	0	34.1990	0	27.179	0	685.939	0	19.2	4	6.0	4	-1E+10	1	-1E+10	1	-1E+10	1	-1E+10	1	-1E+10	1	-1E+10	1
4902551	87	C	01/09/2023	11:04	-131.335	47.994	0	697.90	0	3.7360	0	34.2030	0	27.184	0	690.880	0	19.0	4	6.0	4	-1E+10	1	-1E+10	1	-1E+10	1	-1E+10	1	-1E+10	1	-1E+10	1
4902551	87	C	01/09/2023	11:04	-131.335	47.994	0	703.00	0	3.7220	0	34.2070	0	27.188	0	695.920	0	18.8	4	5.9	4	-1E+10	1	-1E+10	1	-1E+10	1	-1E+10	1	-1E+10	1	-1E+10	1
4902551	87	C	01/09/2023	11:04	-131.335	47.994	0	708.10	0	3.7080	0	34.2100	0	27.192	0	700.961	0	18.6	4	5.8	4	-1E+10	1	-1E+10	1	-1E+10	1	-1E+10	1	-1E+10	1	-1E+10	1
4902551	87	C	01/09/2023	11:04	-131.335	47.994	0	713.20	0	3.6900	0	34.2140	0	27.197	0	706.001	0	18.4	4	5.8	4	-1E+10	1	-1E+10	1	-1E+10	1	-1E+10	1	-1E+10	1	-1E+10	1
4902551	87	C	01/09/2023	11:04	-131.335	47.994	0	718.00	0	3.6720	0	34.2190	0	27.203	0	710.744	0	18.3	4	5.7	4	-1E+10	1	-1E+10	1	-1E+10	1	-1E+10	1	-1E+10	1	-1E+10	1
4902551	87	C	01/09/2023	11:04	-131.335	47.994	0	723.00	0	3.6640	0	34.2200	0	27.205	0	715.685	0	18.2	4	5.7	4	-1E+10	1	-1E+10	1	-1E+10	1	-1E+10	1	-1E+10	1	-1E+10	1
4902551	87	C	01/09/2023	11:04	-131.335	47.994	0	728.00	0	3.6530	0	34.2230	0	27.208	0	720.626	0	18.0	4	5.6	4	-1E+10	1	-1E+10	1	-1E+10	1	-1E+10	1	-1E+10	1	-1E+10	1
4902551	87	C	01/09/2023	11:04	-131.335	47.994	0	732.70	0	3.6470	0	34.2250	0	27.210	0	725.270	0	17.9	4	5.6	4	-1E+10	1	-1E+10	1	-1E+10	1	-1E+10	1	-1E+10	1	-1E+10	1
4902551	87	C	01/09/2023	11:04	-131.335	47.994	0	737.90	0	3.6390	0	34.2270	0	27.213	0	730.408	0	17.7	4	5.5	4	-1E+10	1	-1E+10	1	-1E+10	1	-1E+10	1	-1E+10	1	-1E+10	1
4902551	87	C	01/09/2023	11:04	-131.335	47.994	0	743.10	0	3.6260	0	34.2300	0	27.216	0	735.546	0	17.4	4	5.4	4	-1E+10	1	-1E+10	1	-1E+10	1	-1E+10	1	-1E+10	1	-1E+10	1
4902551	87	C	01/09/2023	11:04	-131.335	47.994	0	747.80	0	3.6140	0	34.2330	0	27.220	0	740.190	0	17.1	4	5.3	4	-1E+10	1	-1E+10	1	-1E+10	1	-1E+10	1	-1E+10	1	-1E+10	1
4902551	87	C	01/09/2023	11:04	-131.335	47.994	0	752.60	0	3.5970	0	34.2370	0	27.225	0	744.932	0	16.8	4	5.3	4	-1E+10	1	-1E+10	1	-1E+10	1	-1E+10	1	-1E+10	1	-1E+10	1
4902551	87	C	01/09/2023	11:04	-131.335	47.994	0	757.60	0	3.5850	0	34.2410	0	27.229	0	749.873	0	16.6	4	5.2	4	-1E+10	1	-1E+10	1	-1E+10	1	-1E+10	1	-1E+10	1	-1E+10	1
4902551	87	C	01/09/2023	11:04	-131.335	47.994	0	762.60	0	3.5780	0	34.2430	0	27.232	0	754.812	0	16.5	4	5.2	4	-1E+10	1	-1E+10	1	-1E+10	1	-1E+10	1	-1E+10	1	-1E+10	1
4902551	87	C	01/09/2023	11:04	-131.335	47.994	0	767.70	0	3.5700	0	34.2440	0	27.233	0	759.851	0	16.3	4	5.1	4	-1E+10	1	-1E+10	1	-1E+10	1	-1E+10	1	-1E+10	1	-1E+10	1
4902551	87	C	01/09/2023	11:04	-131.335	47.994	0	772.90	0	3.5620	0	34.2460	0	27.236	0	764.988	0	16.0	4	5.0	4	-1E+10	1	-1E+10	1	-1E+10	1	-1E+10	1	-1E+10	1	-1E+10	1
4902551	87	C	01/09/2023	11:04	-131.335	47.994	0	778.10	0	3.5420	0	34.2510	0	27.242	0	770.126	0	15.7	4	4.9	4	-1E+10	1	-1E+10	1	-1E+10	1	-1E+10	1	-1E+10	1	-1E+10	1
4902551	87	C	01/09/2023	11:04	-131.335	47.994	0	783.30	0	3.5290	0	34.2550	0	27.246	0	775.263	0	15.5	4	4.8	4	-1E+10	1	-1E+10	1	-1E+10	1	-1E+10	1	-1E+10	1	-1E+10	1
4902551	87	C	01/09/2023	11:04	-131.335	47.994	0	788.10	0	3.5220	0	34.2570	0	27.248	0	780.004	0	15.3	4	4.8	4	-1E+10	1	-1E+10	1	-1E+10	1	-1E+10	1	-1E+10	1	-1E+10	1
4902551	87	C	01/09/2023	11:04	-131.335	47.994	0	792.70	0	3.5120	0	34.2600	0	27.252	0	784.549	0	15.2	4	4.7	4	-1E+10	1	-1E+10	1	-1E+10	1	-1E+10	1	-1E+10	1	-1E+10	1
4902551	87	C	01/09/2023	11:04	-131.335	47.994	0	798.00	0	3.5050	0	34.2620	0	27.254	0	789.784	0	15.0	4	4.7	4	-1E+10	1	-1E+10	1	-1E+10	1	-1E+10	1	-1E+10	1	-1E+10	1
4902551	87	C	01/09/2023	11:04	-131.335	47.994	0	802.80	0	3.4980	0	34.2640	0	27.256	0	794.526	0	14.8	4	4.6	4	-1E+10	1	-1E+10	1	-1E+10	1	-1E+10	1	-1E+10	1	-1E+10	1
4902551	87	C	01/09/2023	11:04	-131.335	47.994	0	807.70	0	3.4880	0	34.2670	0	27.260	0	799.366	0	14.6	4	4.6	4	-1E+10	1	-1E+10	1	-1E+10	1	-1E+10	1	-1E+10	1	-1E+10	1
4902551	87	C	01/09/2023	11:04	-131.335	47.994	0	813.00	0	3.4740	0	34.2710	0	27.264	0	804.601	0	14.4	4	4.5	4	-1E+10	1	-1E+10	1	-1E+10	1	-1E+10	1	-1E+10	1	-1E+10	1
4902551	87	C	01/09/2023	11:04	-131.335	47.994	0	817.80	0	3.4700	0	34.2720	0	27.265	0	809.342	0	14.2	4	4.4	4	-1E+10	1	-1E+10	1	-1E+10	1	-1E+10	1	-1E+10	1	-1E+10	1
4902551	87	C	01/09/2023	11:04	-131.335	47.994	0	822.70	0	3.4600	0	34.2750	0	27.269	0	814.182	0	14.0	4	4.4	4	-1E+10	1	-1E+10	1	-1E+10	1	-1E+10	1	-1E+10	1	-1E+10	1
4902551	87	C	01/09/2023	11:04	-131.335	47.994	0	828.10	0	3.4450	0	34.2790	0	27.274	0	819.515	0	13.8	4	4.3	4	-1E+10	1	-1E+10	1	-1E+10	1	-1E+10	1	-1E+10	1	-1E+10	1
4902551	87	C	01/09/2023	11:04	-131.335	47.994	0	832.90	0	3.4300	0	34.2840	0	27.279	0	824.256	0	13.7	4	4.3	4	-1E+10	1	-1E+10	1	-1E+10	1	-1E+10	1	-1E+10	1	-1E+10	1
4902551	87	C	01/09/2023	11:04	-131.335	47.994	0	837.80	0	3.4230	0	34.2860	0	27.281	0	829.095	0	13.6	4	4.2	4	-1E+10	1	-1E+10	1	-1E+10	1	-1E+10	1	-1E+10	1	-1E+10	1
4902551	87	C	01/09/2023	11:04	-131.335	47.994	0	843.30	0	3.4100	0	34.2890	0	27.285	0	834.527	0	13.4	4	4.2	4	-1E+10	1	-1E+10	1	-1E+10	1	-1E+10	1	-1E+10	1	-1E+10	1
4902551	87	C	01/09/2023	11:04	-131.335	47.994	0	848.20	0	3.4020	0	34.2910	0	27.287	0	839.366	0	13.3	4	4.2	4	-1E+10	1	-1E+10	1	-1E+10	1	-1E+10	1	-1E+10	1	-1E+10	1
4902551	87	C	01/09/2023	11:04	-131.335	47.994	0	852.90	0	3.3910	0	34.2940	0	27.291	0	844.008	0	13.3	4	4.1	4	-1E+10	1	-1E+10	1	-1E+10	1	-1E+10	1	-1E+10	1	-1E+10	1
4902551	87	C	01/09/2023	11:04	-131.335	47.994	0	857.70	0	3.3810	0	34.2960	0	27.293	0	848.748	0	13.2	4	4.1	4	-1E+10	1	-1E+10	1	-1E+10	1	-1E+10	1	-1E+10	1	-1E+10	1
4902551	87	C	01/09/2023	11:04	-131.335	47.994	0	863.00	0	3.3730	0	34.2980	0	27.296	0	853.982	0	13.1	4	4.1	4	-1E+10	1	-1E+10	1	-1E+10	1	-1E+10	1	-1E+10	1	-1E+10	1
4902551	87	C	01/09/2023	11:04	-131.335	47.994	0	868.20	0	3.3680	0	34.3000	0	27.298	0	859.117	0	12.9	4	4.0	4	-1E+10	1	-1E+10	1	-1E+10	1	-1E+10	1	-1E+10	1	-1E+10	1
4902551	87	C	01/09/2023	11:04	-131.335	47.994	0	873.10	0	3.3640	0	34.3030	0	27.301	0	863.956	0	12.7	4	4.0	4	-1E+10	1	-1E+10	1	-1E+10	1	-1E+10	1	-1E+10	1	-1E+10	1
4902551	87	C	01/09/2023	11:04	-131.335	47.994	0	877.90	0	3.3600	0	34.3040	0	27.302	0	868.696	0	12.5	4	3.9	4	-1E+10	1	-1E+10	1	-1E+10	1	-1E+10	1	-1E+10	1	-1E+10	1
4902551	87	C	01/09/2023	11:04	-131.335	47.994	0	882.70	0	3.3520	0	34.3090	0	27.307	0	873.435	0	12.4	4	3.8	4	-1E+10	1	-1E+10	1	-1E+10	1	-1E+10	1	-1E+10	1	-1E+10	1
4902551	87	C	01/09/2023	11:04	-131.335	47.994	0	887.50	0	3.3450	0	34.3130	0	27.310	0	878.175	0	12.2	4	3.8	4	-1E+10	1	-1E+10	1	-1E+10	1	-1E+10	1	-1E+10	1	-1E+10	1
4902551	87	C	01/09/2023	11:04	-131.335	47.994	0	892.50	0	3.3370	0	34.3160	0	27.314	0	883.112	0	12.2	4	3.8	4	-1E+10	1	-1E+10	1	-1E+10	1	-1E+10	1	-1E+10	1	-1E+10	1
4902551	87	C	01/09/2023	11:04	-131.335	47.994	0	897.90	0	3.3320	0	34.3170	0	27.315	0	888.443	0	12.1	4	3.8	4	-1E+10	1	-1E+10	1	-1E+10	1	-1E+10	1	-1E+10	1	-1E+10	1
4902551	87	C	01/09/2023	11:04	-131.335	47.994	0	903.20	0	3.3160	0	34.3210	0	27.320	0	893.676	0	12.0	4	3.7	4	-1E+10	1	-1E+10	1	-1E+10	1	-1E+10	1	-1E+10	1	-1E+10	1
4902551	87	C	01/09/2023	11:04	-131.335	47.994	0	908.20	0	3.3020	0	34.3250	0	27.324	0	898.613	0	11.9	4	3.7	4	-1E+10	1	-1E+10	1	-1E+10	1	-1E+10	1	-1E+10	1	-1E+10	1
4902551	87	C	01/09/2023	11:04	-131.335	47.994	0	913.20	0	3.2930	0	34.3270	0	27.327	0	903.549	0	11.9	4	3.7	4	-1E+10	1	-1E+10	1	-1E+10	1	-1E+10	1	-1E+10	1	-1E+10	1
4902551	87	C	01/09/2023	11:04	-131.335	47.994	0	918.10	0	3.2840	0	34.3300	0	27.330	0	908.387	0	11.8	4	3.7	4	-1E+10	1	-1E+10	1	-1E+10	1	-1E+10	1	-1E+10	1	-1E+10	1
4902551	87	C	01/09/2023	11:04	-131.335	47.994	0	923.20	0	3.2790	0	34.3310	0	27.331	0	913.422	0	11.8	4	3.7	4	-1E+10	1	-1E+10	1	-1E+10	1	-1E+10	1	-1E+10	1	-1E+10	1
4902551	87	C	01/09/2023	11:04	-131.335	47.994	0	928.20	0	3.2690	0	34.3340	0	27.335	0	918.358	0	11.7	4	3.6	4	-1E+10	1	-1E+10	1	-1E+10	1	-1E+10	1	-1E+10	1	-1E+10	1
4902551	87	C	01/09/2023	11:04	-131.335	47.994	0	933.20	0	3.2570	0	34.3370	0	27.338	0	923.294	0	11.8	4	3.6	4	-1E+10	1	-1E+10	1	-1E+10	1	-1E+10	1	-1E+10	1	-1E+10	1
4902551	87	C	01/09/2023	11:04	-131.335	47.994	0	938.20	0	3.2500	0	34.3380	0	27.340	0	928.230	0	11.7	4	3.6	4	-1E+10	1	-1E+10	1	-1E+10	1	-1E+10	1	-1E+10	1	-1E+10	1
4902551	87	C	01/09/2023	11:04	-131.335	47.994	0	943.20	0	3.2330	0	34.3410	0	27.344	0	933.165	0	11.7	4	3.6	4	-1E+10	1	-1E+10	1	-1E+10	1	-1E+10	1	-1E+10	1	-1E+10	1
4902551	87	C	01/09/2023	11:04	-131.335	47.994	0	948.20	0	3.2270	0	34.3440	0	27.347	0	938.101	0	11.6	4	3.6	4	-1E+10	1	-1E+10	1	-1E+10	1	-1E+10	1	-1E+10	1	-1E+10	1
4902551	87	C	01/09/2023	11:04	-131.335	47.994	0	952.90	0	3.2200	0	34.3460	0	27.349	0	942.740	0	11.6	4	3.6	4	-1E+10	1	-1E+10	1	-1E+10	1	-1E+10	1	-1E+10	1	-1E+10	1
4902551	87	C	01/09/2023	11:04	-131.335	47.994	0	957.60	0	3.2110	0	34.3480	0	27.351	0	947.379	0	11.6	4	3.6	4	-1E+10	1	-1E+10	1	-1E+10	1	-1E+10	1	-1E+10	1	-1E+10	1
4902551	87	C	01/09/2023	11:04	-131.335	47.994	0	962.70	0	3.2000	0	34.3500	0	27.354	0	952.414	0	11.6	4	3.6	4	-1E+10	1	-1E+10	1	-1E+10	1	-1E+10	1	-1E+10	1	-1E+10	1
4902551	87	C	01/09/2023	11:04	-131.335	47.994	0	967.90	0	3.1930	0	34.3520	0	27.356	0	957.546	0	11.6	4	3.6	4	-1E+10	1	-1E+10	1	-1E+10	1	-1E+10	1	-1E+10	1	-1E+10	1
4902551	87	C	01/09/2023	11:04	-131.335	47.994	0	972.80	0	3.1810	0	34.3550	0	27.360	0	962.382	0	11.6	4	3.6	4	-1E+10	1	-1E+10	1	-1E+10	1	-1E+10	1	-1E+10	1	-1E+10	1
4902551	87	C	01/09/2023	11:04	-131.335	47.994	0	977.70	0	3.1610	0	34.3590	0	27.365	0	967.219	0	11.6	4	3.6	4	-1E+10	1	-1E+10	1	-1E+10	1	-1E+10	1	-1E+10	1	-1E+10	1
4902551	87	C	01/09/2023	11:04	-131.335	47.994	0	983.00	0	3.1540	0	34.3600	0	27.366	0	972.449	0	11.6	4	3.6	4	-1E+10	1	-1E+10	1	-1E+10	1	-1E+10	1	-1E+10	1	-1E+10	1
4902551	87	C	01/09/2023	11:04	-131.335	47.994	0	988.00	0	3.1430	0	34.3620	0	27.369	0	977.384	0	11.7	4	3.6	4	-1E+10	1	-1E+10	1	-1E+10	1	-1E+10	1	-1E+10	1	-1E+10	1
4902551	87	C	01/09/2023	11:04	-131.335	47.994	0	993.10	0	3.1270	0	34.3650	0	27.373	0	982.417	0	11.7	4	3.6	4	-1E+10	1	-1E+10	1	-1E+10	1	-1E+10	1	-1E+10	1	-1E+10	1
4902551	87	C	01/09/2023	11:04	-131.335	47.994	0	998.20	0	3.1120	0	34.3680	0	27.377	0	987.451	0	11.7	4	3.6	4	-1E+10	1	-1E+10	1	-1E+10	1	-1E+10	1	-1E+10	1	-1E+10	1
4902551	87	C	01/09/2023	11:04	-131.335	47.994	0	1005.40	0	3.0960	0	34.3710	0	27.381	0	994.556	0	11.7	4	3.6	4	-1E+10	1	-1E+10	1	-1E+10	1	-1E+10	1	-1E+10	1	-1E+10	1
4902551	87	C	01/09/2023	11:04	-131.335	47.994	0	1015.20	0	3.0760	0	34.3750	0	27.386	0	1004.227	0	11.8	4	3.6	4	-1E+10	1	-1E+10	1	-1E+10	1	-1E+10	1	-1E+10	1	-1E+10	1
4902551	87	C	01/09/2023	11:04	-131.335	47.994	0	1025.20	0	3.0640	0	34.3780	0	27.389	0	1014.094	0	11.8	4	3.7	4	-1E+10	1	-1E+10	1	-1E+10	1	-1E+10	1	-1E+10	1	-1E+10	1
4902551	87	C	01/09/2023	11:04	-131.335	47.994	0	1035.10	0	3.0520	0	34.3800	0	27.392	0	1023.863	0	11.9	4	3.7	4	-1E+10	1	-1E+10	1	-1E+10	1	-1E+10	1	-1E+10	1	-1E+10	1
4902551	87	C	01/09/2023	11:04	-131.335	47.994	0	1045.50	0	3.0350	0	34.3830	0	27.396	0	1034.125	0	11.9	4	3.7	4	-1E+10	1	-1E+10	1	-1E+10	1	-1E+10	1	-1E+10	1	-1E+10	1
4902551	87	C	01/09/2023	11:04	-131.335	47.994	0	1055.40	0	3.0220	0	34.3860	0	27.400	0	1043.892	0	12.0	4	3.7	4	-1E+10	1	-1E+10	1	-1E+10	1	-1E+10	1	-1E+10	1	-1E+10	1
4902551	87	C	01/09/2023	11:04	-131.335	47.994	0	1065.50	0	3.0150	0	34.3870	0	27.401	0	1053.857	0	12.0	4	3.7	4	-1E+10	1	-1E+10	1	-1E+10	1	-1E+10	1	-1E+10	1	-1E+10	1
4902551	87	C	01/09/2023	11:04	-131.335	47.994	0	1075.30	0	3.0010	0	34.3900	0	27.405	0	1063.525	0	12.1	4	3.7	4	-1E+10	1	-1E+10	1	-1E+10	1	-1E+10	1	-1E+10	1	-1E+10	1
4902551	87	C	01/09/2023	11:04	-131.335	47.994	0	1085.30	0	2.9820	0	34.3930	0	27.409	0	1073.390	0	12.2	4	3.8	4	-1E+10	1	-1E+10	1	-1E+10	1	-1E+10	1	-1E+10	1	-1E+10	1
4902551	87	C	01/09/2023	11:04	-131.335	47.994	0	1095.70	0	2.9650	0	34.3960	0	27.413	0	1083.649	0	12.3	4	3.8	4	-1E+10	1	-1E+10	1	-1E+10	1	-1E+10	1	-1E+10	1	-1E+10	1
4902551	87	C	01/09/2023	11:04	-131.335	47.994	0	1105.70	0	2.9450	0	34.4000	0	27.418	0	1093.513	0	12.4	4	3.8	4	-1E+10	1	-1E+10	1	-1E+10	1	-1E+10	1	-1E+10	1	-1E+10	1
4902551	87	C	01/09/2023	11:04	-131.335	47.994	0	1115.50	0	2.9230	0	34.4040	0	27.423	0	1103.179	0	12.5	4	3.8	4	-1E+10	1	-1E+10	1	-1E+10	1	-1E+10	1	-1E+10	1	-1E+10	1
4902551	87	C	01/09/2023	11:04	-131.335	47.994	0	1125.30	0	2.9120	0	34.4060	0	27.426	0	1112.845	0	12.6	4	3.9	4	-1E+10	1	-1E+10	1	-1E+10	1	-1E+10	1	-1E+10	1	-1E+10	1
4902551	87	C	01/09/2023	11:04	-131.335	47.994	0	1135.50	0	2.8980	0	34.4090	0	27.429	0	1122.905	0	12.7	4	3.9	4	-1E+10	1	-1E+10	1	-1E+10	1	-1E+10	1	-1E+10	1	-1E+10	1
4902551	87	C	01/09/2023	11:04	-131.335	47.994	0	1145.70	0	2.8790	0	34.4120	0	27.434	0	1132.964	0	12.9	4	4.0	4	-1E+10	1	-1E+10	1	-1E+10	1	-1E+10	1	-1E+10	1	-1E+10	1
4902551	87	C	01/09/2023	11:04	-131.335	47.994	0	1155.40	0	2.8600	0	34.4160	0	27.439	0	1142.530	0	13.0	4	4.0	4	-1E+10	1	-1E+10	1	-1E+10	1	-1E+10	1	-1E+10	1	-1E+10	1
4902551	87	C	01/09/2023	11:04	-131.335	47.994	0	1165.20	0	2.8470	0	34.4180	0	27.441	0	1152.194	0	13.2	4	4.1	4	-1E+10	1	-1E+10	1	-1E+10	1	-1E+10	1	-1E+10	1	-1E+10	1
4902551	87	C	01/09/2023	11:04	-131.335	47.994	0	1175.50	0	2.8320	0	34.4210	0	27.445	0	1162.350	0	13.3	4	4.1	4	-1E+10	1	-1E+10	1	-1E+10	1	-1E+10	1	-1E+10	1	-1E+10	1
4902551	87	C	01/09/2023	11:04	-131.335	47.994	0	1185.40	0	2.8200	0	34.4230	0	27.448	0	1172.112	0	13.5	4	4.1	4	-1E+10	1	-1E+10	1	-1E+10	1	-1E+10	1	-1E+10	1	-1E+10	1
4902551	87	C	01/09/2023	11:04	-131.335	47.994	0	1195.40	0	2.8050	0	34.4260	0	27.452	0	1181.972	0	13.7	4	4.2	4	-1E+10	1	-1E+10	1	-1E+10	1	-1E+10	1	-1E+10	1	-1E+10	1
4902551	87	C	01/09/2023	11:04	-131.335	47.994	0	1205.50	0	2.7930	0	34.4280	0	27.454	0	1191.930	0	13.9	4	4.3	4	-1E+10	1	-1E+10	1	-1E+10	1	-1E+10	1	-1E+10	1	-1E+10	1
4902551	87	C	01/09/2023	11:04	-131.335	47.994	0	1215.20	0	2.7730	0	34.4320	0	27.459	0	1201.493	0	14.2	4	4.3	4	-1E+10	1	-1E+10	1	-1E+10	1	-1E+10	1	-1E+10	1	-1E+10	1
4902551	87	C	01/09/2023	11:04	-131.335	47.994	0	1225.00	0	2.7500	0	34.4350	0	27.464	0	1211.154	0	14.4	4	4.4	4	-1E+10	1	-1E+10	1	-1E+10	1	-1E+10	1	-1E+10	1	-1E+10	1
4902551	87	C	01/09/2023	11:04	-131.335	47.994	0	1234.90	0	2.7370	0	34.4380	0	27.467	0	1220.914	0	14.7	4	4.5	4	-1E+10	1	-1E+10	1	-1E+10	1	-1E+10	1	-1E+10	1	-1E+10	1
4902551	87	C	01/09/2023	11:04	-131.335	47.994	0	1245.40	0	2.7210	0	34.4410	0	27.471	0	1231.264	0	15.0	4	4.6	4	-1E+10	1	-1E+10	1	-1E+10	1	-1E+10	1	-1E+10	1	-1E+10	1
4902551	87	C	01/09/2023	11:04	-131.335	47.994	0	1255.40	0	2.7000	0	34.4450	0	27.476	0	1241.121	0	15.4	4	4.7	4	-1E+10	1	-1E+10	1	-1E+10	1	-1E+10	1	-1E+10	1	-1E+10	1
4902551	87	C	01/09/2023	11:04	-131.335	47.994	0	1265.40	0	2.6770	0	34.4490	0	27.482	0	1250.978	0	15.6	4	4.8	4	-1E+10	1	-1E+10	1	-1E+10	1	-1E+10	1	-1E+10	1	-1E+10	1
4902551	87	C	01/09/2023	11:04	-131.335	47.994	0	1275.30	0	2.6600	0	34.4510	0	27.485	0	1260.735	0	15.8	4	4.8	4	-1E+10	1	-1E+10	1	-1E+10	1	-1E+10	1	-1E+10	1	-1E+10	1
4902551	87	C	01/09/2023	11:04	-131.335	47.994	0	1285.40	0	2.6430	0	34.4530	0	27.488	0	1270.689	0	16.0	4	4.9	4	-1E+10	1	-1E+10	1	-1E+10	1	-1E+10	1	-1E+10	1	-1E+10	1
4902551	87	C	01/09/2023	11:04	-131.335	47.994	0	1295.20	0	2.6350	0	34.4550	0	27.490	0	1280.347	0	16.2	4	5.0	4	-1E+10	1	-1E+10	1	-1E+10	1	-1E+10	1	-1E+10	1	-1E+10	1
4902551	87	C	01/09/2023	11:04	-131.335	47.994	0	1305.40	0	2.6240	0	34.4570	0	27.493	0	1290.399	0	16.3	4	5.0	4	-1E+10	1	-1E+10	1	-1E+10	1	-1E+10	1	-1E+10	1	-1E+10	1
4902551	87	C	01/09/2023	11:04	-131.335	47.994	0	1315.50	0	2.6070	0	34.4590	0	27.496	0	1300.352	0	16.6	4	5.1	4	-1E+10	1	-1E+10	1	-1E+10	1	-1E+10	1	-1E+10	1	-1E+10	1
4902551	87	C	01/09/2023	11:04	-131.335	47.994	0	1325.20	0	2.5850	0	34.4620	0	27.500	0	1309.910	0	16.8	4	5.1	4	-1E+10	1	-1E+10	1	-1E+10	1	-1E+10	1	-1E+10	1	-1E+10	1
4902551	87	C	01/09/2023	11:04	-131.335	47.994	0	1335.10	0	2.5700	0	34.4640	0	27.503	0	1319.665	0	17.1	4	5.2	4	-1E+10	1	-1E+10	1	-1E+10	1	-1E+10	1	-1E+10	1	-1E+10	1
4902551	87	C	01/09/2023	11:04	-131.335	47.994	0	1345.00	0	2.5560	0	34.4660	0	27.506	0	1329.419	0	17.3	4	5.3	4	-1E+10	1	-1E+10	1	-1E+10	1	-1E+10	1	-1E+10	1	-1E+10	1
4902551	87	C	01/09/2023	11:04	-131.335	47.994	0	1355.30	0	2.5520	0	34.4670	0	27.507	0	1339.567	0	17.5	4	5.4	4	-1E+10	1	-1E+10	1	-1E+10	1	-1E+10	1	-1E+10	1	-1E+10	1
4902551	87	C	01/09/2023	11:04	-131.335	47.994	0	1365.60	0	2.5410	0	34.4690	0	27.510	0	1349.715	0	18.0	4	5.5	4	-1E+10	1	-1E+10	1	-1E+10	1	-1E+10	1	-1E+10	1	-1E+10	1
4902551	87	C	01/09/2023	11:04	-131.335	47.994	0	1375.60	0	2.5180	0	34.4740	0	27.516	0	1359.566	0	18.5	4	5.6	4	-1E+10	1	-1E+10	1	-1E+10	1	-1E+10	1	-1E+10	1	-1E+10	1
4902551	87	C	01/09/2023	11:04	-131.335	47.994	0	1385.30	0	2.5100	0	34.4750	0	27.517	0	1369.122	0	18.8	4	5.7	4	-1E+10	1	-1E+10	1	-1E+10	1	-1E+10	1	-1E+10	1	-1E+10	1
4902551	87	C	01/09/2023	11:04	-131.335	47.994	0	1395.10	0	2.4990	0	34.4770	0	27.520	0	1378.775	0	19.2	4	5.8	4	-1E+10	1	-1E+10	1	-1E+10	1	-1E+10	1	-1E+10	1	-1E+10	1
4902551	87	C	01/09/2023	11:04	-131.335	47.994	0	1405.40	0	2.4830	0	34.4800	0	27.524	0	1388.921	0	19.6	4	6.0	4	-1E+10	1	-1E+10	1	-1E+10	1	-1E+10	1	-1E+10	1	-1E+10	1
4902551	87	C	01/09/2023	11:04	-131.335	47.994	0	1415.40	0	2.4710	0	34.4820	0	27.526	0	1398.770	0	19.9	4	6.1	4	-1E+10	1	-1E+10	1	-1E+10	1	-1E+10	1	-1E+10	1	-1E+10	1
4902551	87	C	01/09/2023	11:04	-131.335	47.994	0	1425.40	0	2.4660	0	34.4830	0	27.527	0	1408.620	0	20.2	4	6.2	4	-1E+10	1	-1E+10	1	-1E+10	1	-1E+10	1	-1E+10	1	-1E+10	1
4902551	87	C	01/09/2023	11:04	-131.335	47.994	0	1435.90	0	2.4510	0	34.4860	0	27.531	0	1418.961	0	20.8	4	6.3	4	-1E+10	1	-1E+10	1	-1E+10	1	-1E+10	1	-1E+10	1	-1E+10	1
4902551	87	C	01/09/2023	11:04	-131.335	47.994	0	1445.90	0	2.4330	0	34.4890	0	27.535	0	1428.809	0	21.4	4	6.5	4	-1E+10	1	-1E+10	1	-1E+10	1	-1E+10	1	-1E+10	1	-1E+10	1
4902551	87	C	01/09/2023	11:04	-131.335	47.994	0	1455.40	0	2.4170	0	34.4920	0	27.539	0	1438.164	0	21.9	4	6.7	4	-1E+10	1	-1E+10	1	-1E+10	1	-1E+10	1	-1E+10	1	-1E+10	1
4902551	87	C	01/09/2023	11:04	-131.335	47.994	0	1465.40	0	2.4060	0	34.4940	0	27.541	0	1448.012	0	22.5	4	6.8	4	-1E+10	1	-1E+10	1	-1E+10	1	-1E+10	1	-1E+10	1	-1E+10	1
4902551	87	C	01/09/2023	11:04	-131.335	47.994	0	1475.40	0	2.3860	0	34.4980	0	27.546	0	1457.858	0	23.2	4	7.0	4	-1E+10	1	-1E+10	1	-1E+10	1	-1E+10	1	-1E+10	1	-1E+10	1
4902551	87	C	01/09/2023	11:04	-131.335	47.994	0	1485.60	0	2.3700	0	34.5000	0	27.549	0	1467.902	0	23.8	4	7.2	4	-1E+10	1	-1E+10	1	-1E+10	1	-1E+10	1	-1E+10	1	-1E+10	1
4902551	87	C	01/09/2023	11:04	-131.335	47.994	0	1495.70	0	2.3560	0	34.5030	0	27.553	0	1477.846	0	24.4	4	7.4	4	-1E+10	1	-1E+10	1	-1E+10	1	-1E+10	1	-1E+10	1	-1E+10	1
4902551	87	C	01/09/2023	11:04	-131.335	47.994	0	1505.50	0	2.3420	0	34.5050	0	27.556	0	1487.495	0	25.1	4	7.6	4	-1E+10	1	-1E+10	1	-1E+10	1	-1E+10	1	-1E+10	1	-1E+10	1
4902551	87	C	01/09/2023	11:04	-131.335	47.994	0	1515.20	0	2.3280	0	34.5080	0	27.559	0	1497.044	0	25.6	4	7.8	4	-1E+10	1	-1E+10	1	-1E+10	1	-1E+10	1	-1E+10	1	-1E+10	1
4902551	87	C	01/09/2023	11:04	-131.335	47.994	0	1525.20	0	2.3160	0	34.5100	0	27.562	0	1506.889	0	26.3	4	8.0	4	-1E+10	1	-1E+10	1	-1E+10	1	-1E+10	1	-1E+10	1	-1E+10	1
4902551	87	C	01/09/2023	11:04	-131.335	47.994	0	1535.60	0	2.3030	0	34.5130	0	27.565	0	1517.127	0	26.8	4	8.2	4	-1E+10	1	-1E+10	1	-1E+10	1	-1E+10	1	-1E+10	1	-1E+10	1
4902551	87	C	01/09/2023	11:04	-131.335	47.994	0	1545.80	0	2.2920	0	34.5150	0	27.568	0	1527.167	0	27.3	4	8.3	4	-1E+10	1	-1E+10	1	-1E+10	1	-1E+10	1	-1E+10	1	-1E+10	1
4902551	87	C	01/09/2023	11:04	-131.335	47.994	0	1555.80	0	2.2840	0	34.5160	0	27.570	0	1537.010	0	27.7	4	8.4	4	-1E+10	1	-1E+10	1	-1E+10	1	-1E+10	1	-1E+10	1	-1E+10	1
4902551	87	C	01/09/2023	11:04	-131.335	47.994	0	1565.40	0	2.2780	0	34.5170	0	27.571	0	1546.459	0	28.1	4	8.5	4	-1E+10	1	-1E+10	1	-1E+10	1	-1E+10	1	-1E+10	1	-1E+10	1
4902551	87	C	01/09/2023	11:04	-131.335	47.994	0	1575.20	0	2.2710	0	34.5190	0	27.573	0	1556.105	0	28.7	4	8.7	4	-1E+10	1	-1E+10	1	-1E+10	1	-1E+10	1	-1E+10	1	-1E+10	1
4902551	87	C	01/09/2023	11:04	-131.335	47.994	0	1585.60	0	2.2630	0	34.5210	0	27.575	0	1566.340	0	29.3	4	8.9	4	-1E+10	1	-1E+10	1	-1E+10	1	-1E+10	1	-1E+10	1	-1E+10	1
4902551	87	C	01/09/2023	11:04	-131.335	47.994	0	1595.60	0	2.2570	0	34.5220	0	27.577	0	1576.182	0	29.8	4	9.0	4	-1E+10	1	-1E+10	1	-1E+10	1	-1E+10	1	-1E+10	1	-1E+10	1
4902551	87	C	01/09/2023	11:04	-131.335	47.994	0	1605.20	0	2.2500	0	34.5240	0	27.579	0	1585.629	0	30.2	4	9.2	4	-1E+10	1	-1E+10	1	-1E+10	1	-1E+10	1	-1E+10	1	-1E+10	1
4902551	87	C	01/09/2023	11:04	-131.335	47.994	0	1615.20	0	2.2400	0	34.5250	0	27.581	0	1595.469	0	30.7	4	9.3	4	-1E+10	1	-1E+10	1	-1E+10	1	-1E+10	1	-1E+10	1	-1E+10	1
4902551	87	C	01/09/2023	11:04	-131.335	47.994	0	1625.60	0	2.2290	0	34.5270	0	27.583	0	1605.703	0	31.4	4	9.5	4	-1E+10	1	-1E+10	1	-1E+10	1	-1E+10	1	-1E+10	1	-1E+10	1
4902551	87	C	01/09/2023	11:04	-131.335	47.994	0	1635.50	0	2.2150	0	34.5290	0	27.586	0	1615.444	0	32.0	4	9.7	4	-1E+10	1	-1E+10	1	-1E+10	1	-1E+10	1	-1E+10	1	-1E+10	1
4902551	87	C	01/09/2023	11:04	-131.335	47.994	0	1645.40	0	2.2050	0	34.5310	0	27.588	0	1625.185	0	32.5	4	9.9	4	-1E+10	1	-1E+10	1	-1E+10	1	-1E+10	1	-1E+10	1	-1E+10	1
4902551	87	C	01/09/2023	11:04	-131.335	47.994	0	1655.40	0	2.1960	0	34.5330	0	27.591	0	1635.023	0	33.1	4	10.0	4	-1E+10	1	-1E+10	1	-1E+10	1	-1E+10	1	-1E+10	1	-1E+10	1
4902551	87	C	01/09/2023	11:04	-131.335	47.994	0	1665.40	0	2.1880	0	34.5340	0	27.592	0	1644.861	0	33.9	4	10.3	4	-1E+10	1	-1E+10	1	-1E+10	1	-1E+10	1	-1E+10	1	-1E+10	1
4902551	87	C	01/09/2023	11:04	-131.335	47.994	0	1675.20	0	2.1740	0	34.5370	0	27.596	0	1654.502	0	34.9	4	10.6	4	-1E+10	1	-1E+10	1	-1E+10	1	-1E+10	1	-1E+10	1	-1E+10	1
4902551	87	C	01/09/2023	11:04	-131.335	47.994	0	1685.10	0	2.1560	0	34.5400	0	27.600	0	1664.241	0	35.8	4	10.8	4	-1E+10	1	-1E+10	1	-1E+10	1	-1E+10	1	-1E+10	1	-1E+10	1
4902551	87	C	01/09/2023	11:04	-131.335	47.994	0	1695.40	0	2.1470	0	34.5420	0	27.602	0	1674.373	0	36.3	4	11.0	4	-1E+10	1	-1E+10	1	-1E+10	1	-1E+10	1	-1E+10	1	-1E+10	1
4902551	87	C	01/09/2023	11:04	-131.335	47.994	0	1705.40	0	2.1370	0	34.5440	0	27.605	0	1684.209	0	37.0	4	11.2	4	-1E+10	1	-1E+10	1	-1E+10	1	-1E+10	1	-1E+10	1	-1E+10	1
4902551	87	C	01/09/2023	11:04	-131.335	47.994	0	1715.20	0	2.1290	0	34.5460	0	27.607	0	1693.848	0	37.7	4	11.4	4	-1E+10	1	-1E+10	1	-1E+10	1	-1E+10	1	-1E+10	1	-1E+10	1
4902551	87	C	01/09/2023	11:04	-131.335	47.994	0	1725.10	0	2.1180	0	34.5480	0	27.609	0	1703.585	0	38.3	4	11.6	4	-1E+10	1	-1E+10	1	-1E+10	1	-1E+10	1	-1E+10	1	-1E+10	1
4902551	87	C	01/09/2023	11:04	-131.335	47.994	0	1735.50	0	2.1110	0	34.5490	0	27.611	0	1713.814	0	38.9	4	11.8	4	-1E+10	1	-1E+10	1	-1E+10	1	-1E+10	1	-1E+10	1	-1E+10	1
4902551	87	C	01/09/2023	11:04	-131.335	47.994	0	1745.80	0	2.1020	0	34.5510	0	27.613	0	1723.943	0	39.6	4	12.0	4	-1E+10	1	-1E+10	1	-1E+10	1	-1E+10	1	-1E+10	1	-1E+10	1
4902551	87	C	01/09/2023	11:04	-131.335	47.994	0	1755.40	0	2.0920	0	34.5530	0	27.616	0	1733.384	0	40.4	4	12.2	4	-1E+10	1	-1E+10	1	-1E+10	1	-1E+10	1	-1E+10	1	-1E+10	1
4902551	87	C	01/09/2023	11:04	-131.335	47.994	0	1765.00	0	2.0820	0	34.5550	0	27.618	0	1742.824	0	41.1	4	12.4	4	-1E+10	1	-1E+10	1	-1E+10	1	-1E+10	1	-1E+10	1	-1E+10	1
4902551	87	C	01/09/2023	11:04	-131.335	47.994	0	1775.10	0	2.0730	0	34.5570	0	27.620	0	1752.755	0	41.9	4	12.6	4	-1E+10	1	-1E+10	1	-1E+10	1	-1E+10	1	-1E+10	1	-1E+10	1
4902551	87	C	01/09/2023	11:04	-131.335	47.994	0	1785.40	0	2.0610	0	34.5580	0	27.622	0	1762.883	0	42.8	4	12.9	4	-1E+10	1	-1E+10	1	-1E+10	1	-1E+10	1	-1E+10	1	-1E+10	1
4902551	87	C	01/09/2023	11:04	-131.335	47.994	0	1795.40	0	2.0490	0	34.5610	0	27.626	0	1772.715	0	43.7	4	13.2	4	-1E+10	1	-1E+10	1	-1E+10	1	-1E+10	1	-1E+10	1	-1E+10	1
4902551	87	C	01/09/2023	11:04	-131.335	47.994	0	1805.30	0	2.0390	0	34.5630	0	27.628	0	1782.449	0	44.5	4	13.4	4	-1E+10	1	-1E+10	1	-1E+10	1	-1E+10	1	-1E+10	1	-1E+10	1
4902551	87	C	01/09/2023	11:04	-131.335	47.994	0	1815.40	0	2.0290	0	34.5650	0	27.630	0	1792.378	0	45.2	4	13.6	4	-1E+10	1	-1E+10	1	-1E+10	1	-1E+10	1	-1E+10	1	-1E+10	1
4902551	87	C	01/09/2023	11:04	-131.335	47.994	0	1825.40	0	2.0220	0	34.5660	0	27.632	0	1802.209	0	45.7	4	13.8	4	-1E+10	1	-1E+10	1	-1E+10	1	-1E+10	1	-1E+10	1	-1E+10	1
4902551	87	C	01/09/2023	11:04	-131.335	47.994	0	1835.10	0	2.0160	0	34.5670	0	27.633	0	1811.744	0	46.2	4	13.9	4	-1E+10	1	-1E+10	1	-1E+10	1	-1E+10	1	-1E+10	1	-1E+10	1
4902551	87	C	01/09/2023	11:04	-131.335	47.994	0	1845.00	0	2.0110	0	34.5680	0	27.634	0	1821.476	0	46.7	4	14.1	4	-1E+10	1	-1E+10	1	-1E+10	1	-1E+10	1	-1E+10	1	-1E+10	1
4902551	87	C	01/09/2023	11:04	-131.335	47.994	0	1855.00	0	2.0080	0	34.5690	0	27.636	0	1831.305	0	47.2	4	14.2	4	-1E+10	1	-1E+10	1	-1E+10	1	-1E+10	1	-1E+10	1	-1E+10	1
4902551	87	C	01/09/2023	11:04	-131.335	47.994	0	1865.20	0	2.0000	0	34.5710	0	27.638	0	1841.331	0	47.9	4	14.4	4	-1E+10	1	-1E+10	1	-1E+10	1	-1E+10	1	-1E+10	1	-1E+10	1
4902551	87	C	01/09/2023	11:04	-131.335	47.994	0	1875.40	0	1.9950	0	34.5720	0	27.639	0	1851.356	0	48.3	4	14.6	4	-1E+10	1	-1E+10	1	-1E+10	1	-1E+10	1	-1E+10	1	-1E+10	1
4902551	87	C	01/09/2023	11:04	-131.335	47.994	0	1885.20	0	1.9900	0	34.5730	0	27.640	0	1860.988	0	48.8	4	14.7	4	-1E+10	1	-1E+10	1	-1E+10	1	-1E+10	1	-1E+10	1	-1E+10	1
4902551	87	C	01/09/2023	11:04	-131.335	47.994	0	1895.50	0	1.9830	0	34.5740	0	27.642	0	1871.110	0	49.5	4	14.9	4	-1E+10	1	-1E+10	1	-1E+10	1	-1E+10	1	-1E+10	1	-1E+10	1
4902551	87	C	01/09/2023	11:04	-131.335	47.994	0	1905.60	0	1.9750	0	34.5760	0	27.644	0	1881.035	0	50.1	4	15.1	4	-1E+10	1	-1E+10	1	-1E+10	1	-1E+10	1	-1E+10	1	-1E+10	1
4902551	87	C	01/09/2023	11:04	-131.335	47.994	0	1915.60	0	1.9690	0	34.5770	0	27.645	0	1890.862	0	50.7	4	15.3	4	-1E+10	1	-1E+10	1	-1E+10	1	-1E+10	1	-1E+10	1	-1E+10	1
4902551	87	C	01/09/2023	11:04	-131.335	47.994	0	1925.40	0	1.9620	0	34.5780	0	27.647	0	1900.492	0	51.4	4	15.5	4	-1E+10	1	-1E+10	1	-1E+10	1	-1E+10	1	-1E+10	1	-1E+10	1
4902551	87	C	01/09/2023	11:04	-131.335	47.994	0	1935.50	0	1.9530	0	34.5800	0	27.649	0	1910.416	0	51.9	4	15.6	4	-1E+10	1	-1E+10	1	-1E+10	1	-1E+10	1	-1E+10	1	-1E+10	1
4902551	87	C	01/09/2023	11:04	-131.335	47.994	0	1945.50	0	1.9500	0	34.5810	0	27.650	0	1920.241	0	52.3	4	15.7	4	-1E+10	1	-1E+10	1	-1E+10	1	-1E+10	1	-1E+10	1	-1E+10	1
4902551	87	C	01/09/2023	11:04	-131.335	47.994	0	1955.40	0	1.9460	0	34.5820	0	27.651	0	1929.968	0	52.6	4	15.8	4	-1E+10	1	-1E+10	1	-1E+10	1	-1E+10	1	-1E+10	1	-1E+10	1
4902551	87	C	01/09/2023	11:04	-131.335	47.994	0	1965.50	0	1.9440	0	34.5820	0	27.651	0	1939.891	0	53.1	4	16.0	4	-1E+10	1	-1E+10	1	-1E+10	1	-1E+10	1	-1E+10	1	-1E+10	1
4902551	87	C	01/09/2023	11:04	-131.335	47.994	0	1975.20	0	1.9350	0	34.5840	0	27.654	0	1949.420	0	53.8	4	16.2	4	-1E+10	1	-1E+10	1	-1E+10	1	-1E+10	1	-1E+10	1	-1E+10	1
4902551	87	C	01/09/2023	11:04	-131.335	47.994	0	1985.00	0	1.9290	0	34.5860	0	27.656	0	1959.047	0	54.0	4	16.3	4	-1E+10	1	-1E+10	1	-1E+10	1	-1E+10	1	-1E+10	1	-1E+10	1
4902551	87	C	01/09/2023	11:04	-131.335	47.994	0	1995.70	0	1.9260	0	34.5860	0	27.656	0	1969.557	0	54.0	4	16.2	4	-1E+10	1	-1E+10	1	-1E+10	1	-1E+10	1	-1E+10	1	-1E+10	1
4902551	87	C	01/09/2023	11:04	-131.335	47.994	0	2000.80	0	1.9250	0	34.5870	0	27.657	0	1974.567	0	53.5	4	16.1	4	-1E+10	1	-1E+10	1	-1E+10	1	-1E+10	1	-1E+10	1	-1E+10	1
4902551	87	C	01/09/2023	11:04	-131.335	47.994	0																										
4902551	88	C	01/19/2023	16:00	-131.315	47.928	0	1.40	0	8.9470	0	32.3010	0	25.014	0	1.388	0	263.9	4	92.1	4	-1E+10	1	-1E+10	1	-1E+10	1	-1E+10	1	-1E+10	1	-1E+10	1
4902551	88	C	01/19/2023	16:00	-131.315	47.928	0	1.90	0	8.9470	0	32.3020	0	25.015	0	1.884	0	-1e10	1	-1e10	1	-1E+10	1	-1E+10	1	-1E+10	1	-1E+10	1	-1E+10	1	-1E+10	1
4902551	88	C	01/19/2023	16:00	-131.315	47.928	0	2.10	0	8.9474	0	32.3016	0	25.014	0	2.082	0	263.9	4	92.1	4	-1E+10	1	-1E+10	1	-1E+10	1	-1E+10	1	-1E+10	1	-1E+10	1
4902551	88	C	01/19/2023	16:00	-131.315	47.928	0	2.40	0	8.9479	0	32.3011	0	25.014	0	2.380	0	-1e10	1	-1e10	1	-1E+10	1	-1E+10	1	-1E+10	1	-1E+10	1	-1E+10	1	-1E+10	1
4902551	88	C	01/19/2023	16:00	-131.315	47.928	0	2.70	0	8.9485	0	32.3005	0	25.013	0	2.677	0	-1e10	1	-1e10	1	-1E+10	1	-1E+10	1	-1E+10	1	-1E+10	1	-1E+10	1	-1E+10	1
4902551	88	C	01/19/2023	16:00	-131.315	47.928	0	2.90	0	8.9488	0	32.3002	0	25.013	0	2.876	0	263.9	4	92.1	4	-1E+10	1	-1E+10	1	-1E+10	1	-1E+10	1	-1E+10	1	-1E+10	1
4902551	88	C	01/19/2023	16:00	-131.315	47.928	0	3.00	0	8.9490	0	32.3000	0	25.013	0	2.975	0	-1e10	1	-1e10	1	-1E+10	1	-1E+10	1	-1E+10	1	-1E+10	1	-1E+10	1	-1E+10	1
4902551	88	C	01/19/2023	16:00	-131.315	47.928	0	3.10	0	8.9490	0	32.3000	0	25.013	0	3.074	0	263.9	4	92.1	4	-1E+10	1	-1E+10	1	-1E+10	1	-1E+10	1	-1E+10	1	-1E+10	1
4902551	88	C	01/19/2023	16:00	-131.315	47.928	0	4.10	0	8.9490	0	32.3000	0	25.013	0	4.066	0	263.9	4	92.1	4	-1E+10	1	-1E+10	1	-1E+10	1	-1E+10	1	-1E+10	1	-1E+10	1
4902551	88	C	01/19/2023	16:00	-131.315	47.928	0	5.10	0	8.9480	0	32.3030	0	25.015	0	5.057	0	263.7	4	92.1	4	-1E+10	1	-1E+10	1	-1E+10	1	-1E+10	1	-1E+10	1	-1E+10	1
4902551	88	C	01/19/2023	16:00	-131.315	47.928	0	6.10	0	8.9500	0	32.3030	0	25.015	0	6.049	0	263.7	4	92.1	4	-1E+10	1	-1E+10	1	-1E+10	1	-1E+10	1	-1E+10	1	-1E+10	1
4902551	88	C	01/19/2023	16:00	-131.315	47.928	0	6.90	0	8.9510	0	32.3030	0	25.015	0	6.842	0	263.7	4	92.0	4	-1E+10	1	-1E+10	1	-1E+10	1	-1E+10	1	-1E+10	1	-1E+10	1
4902551	88	C	01/19/2023	16:00	-131.315	47.928	0	8.10	0	8.9510	0	32.3030	0	25.015	0	8.032	0	263.6	4	92.0	4	-1E+10	1	-1E+10	1	-1E+10	1	-1E+10	1	-1E+10	1	-1E+10	1
4902551	88	C	01/19/2023	16:00	-131.315	47.928	0	9.10	0	8.9510	0	32.3030	0	25.015	0	9.023	0	263.6	4	92.0	4	-1E+10	1	-1E+10	1	-1E+10	1	-1E+10	1	-1E+10	1	-1E+10	1
4902551	88	C	01/19/2023	16:00	-131.315	47.928	0	9.80	0	8.9510	0	32.3030	0	25.015	0	9.718	0	263.6	4	92.0	4	-1E+10	1	-1E+10	1	-1E+10	1	-1E+10	1	-1E+10	1	-1E+10	1
4902551	88	C	01/19/2023	16:00	-131.315	47.928	0	10.70	0	8.9510	0	32.3030	0	25.015	0	10.610	0	263.6	4	92.0	4	-1E+10	1	-1E+10	1	-1E+10	1	-1E+10	1	-1E+10	1	-1E+10	1
4902551	88	C	01/19/2023	16:00	-131.315	47.928	0	12.10	0	8.9510	0	32.3030	0	25.015	0	11.998	0	263.5	4	92.0	4	-1E+10	1	-1E+10	1	-1E+10	1	-1E+10	1	-1E+10	1	-1E+10	1
4902551	88	C	01/19/2023	16:00	-131.315	47.928	0	13.10	0	8.9520	0	32.3030	0	25.015	0	12.990	0	263.5	4	92.0	4	-1E+10	1	-1E+10	1	-1E+10	1	-1E+10	1	-1E+10	1	-1E+10	1
4902551	88	C	01/19/2023	16:00	-131.315	47.928	0	14.00	0	8.9520	0	32.3030	0	25.015	0	13.882	0	263.5	4	92.0	4	-1E+10	1	-1E+10	1	-1E+10	1	-1E+10	1	-1E+10	1	-1E+10	1
4902551	88	C	01/19/2023	16:00	-131.315	47.928	0	14.90	0	8.9520	0	32.3030	0	25.015	0	14.775	0	263.4	4	92.0	4	-1E+10	1	-1E+10	1	-1E+10	1	-1E+10	1	-1E+10	1	-1E+10	1
4902551	88	C	01/19/2023	16:00	-131.315	47.928	0	16.00	0	8.9550	0	32.3040	0	25.015	0	15.865	0	263.4	4	92.0	4	-1E+10	1	-1E+10	1	-1E+10	1	-1E+10	1	-1E+10	1	-1E+10	1
4902551	88	C	01/19/2023	16:00	-131.315	47.928	0	16.90	0	8.9550	0	32.3030	0	25.014	0	16.758	0	263.4	4	91.9	4	-1E+10	1	-1E+10	1	-1E+10	1	-1E+10	1	-1E+10	1	-1E+10	1
4902551	88	C	01/19/2023	16:00	-131.315	47.928	0	17.90	0	8.9540	0	32.3040	0	25.015	0	17.749	0	263.4	4	92.0	4	-1E+10	1	-1E+10	1	-1E+10	1	-1E+10	1	-1E+10	1	-1E+10	1
4902551	88	C	01/19/2023	16:00	-131.315	47.928	0	18.90	0	8.9550	0	32.3030	0	25.014	0	18.741	0	263.4	4	92.0	4	-1E+10	1	-1E+10	1	-1E+10	1	-1E+10	1	-1E+10	1	-1E+10	1
4902551	88	C	01/19/2023	16:00	-131.315	47.928	0	20.00	0	8.9530	0	32.3030	0	25.015	0	19.831	0	263.4	4	92.0	4	-1E+10	1	-1E+10	1	-1E+10	1	-1E+10	1	-1E+10	1	-1E+10	1
4902551	88	C	01/19/2023	16:00	-131.315	47.928	0	21.00	0	8.9560	0	32.3040	0	25.015	0	20.823	0	263.4	4	92.0	4	-1E+10	1	-1E+10	1	-1E+10	1	-1E+10	1	-1E+10	1	-1E+10	1
4902551	88	C	01/19/2023	16:00	-131.315	47.928	0	22.10	0	8.9570	0	32.3040	0	25.015	0	21.914	0	263.4	4	92.0	4	-1E+10	1	-1E+10	1	-1E+10	1	-1E+10	1	-1E+10	1	-1E+10	1
4902551	88	C	01/19/2023	16:00	-131.315	47.928	0	22.90	0	8.9560	0	32.3030	0	25.014	0	22.707	0	263.4	4	92.0	4	-1E+10	1	-1E+10	1	-1E+10	1	-1E+10	1	-1E+10	1	-1E+10	1
4902551	88	C	01/19/2023	16:00	-131.315	47.928	0	23.90	0	8.9560	0	32.3040	0	25.015	0	23.698	0	263.3	4	91.9	4	-1E+10	1	-1E+10	1	-1E+10	1	-1E+10	1	-1E+10	1	-1E+10	1
4902551	88	C	01/19/2023	16:00	-131.315	47.928	0	25.00	0	8.9570	0	32.3040	0	25.015	0	24.789	0	263.3	4	91.9	4	-1E+10	1	-1E+10	1	-1E+10	1	-1E+10	1	-1E+10	1	-1E+10	1
4902551	88	C	01/19/2023	16:00	-131.315	47.928	0	26.00	0	8.9570	0	32.3040	0	25.015	0	25.780	0	263.3	4	91.9	4	-1E+10	1	-1E+10	1	-1E+10	1	-1E+10	1	-1E+10	1	-1E+10	1
4902551	88	C	01/19/2023	16:00	-131.315	47.928	0	27.10	0	8.9570	0	32.3030	0	25.014	0	26.871	0	263.3	4	91.9	4	-1E+10	1	-1E+10	1	-1E+10	1	-1E+10	1	-1E+10	1	-1E+10	1
4902551	88	C	01/19/2023	16:00	-131.315	47.928	0	27.80	0	8.9580	0	32.3030	0	25.014	0	27.565	0	263.4	4	92.0	4	-1E+10	1	-1E+10	1	-1E+10	1	-1E+10	1	-1E+10	1	-1E+10	1
4902551	88	C	01/19/2023	16:00	-131.315	47.928	0	28.90	0	8.9580	0	32.3040	0	25.015	0	28.656	0	263.3	4	91.9	4	-1E+10	1	-1E+10	1	-1E+10	1	-1E+10	1	-1E+10	1	-1E+10	1
4902551	88	C	01/19/2023	16:00	-131.315	47.928	0	30.00	0	8.9580	0	32.3040	0	25.015	0	29.746	0	263.3	4	91.9	4	-1E+10	1	-1E+10	1	-1E+10	1	-1E+10	1	-1E+10	1	-1E+10	1
4902551	88	C	01/19/2023	16:00	-131.315	47.928	0	31.00	0	8.9590	0	32.3030	0	25.014	0	30.738	0	263.3	4	91.9	4	-1E+10	1	-1E+10	1	-1E+10	1	-1E+10	1	-1E+10	1	-1E+10	1
4902551	88	C	01/19/2023	16:00	-131.315	47.928	0	32.00	0	8.9590	0	32.3040	0	25.015	0	31.729	0	263.3	4	91.9	4	-1E+10	1	-1E+10	1	-1E+10	1	-1E+10	1	-1E+10	1	-1E+10	1
4902551	88	C	01/19/2023	16:00	-131.315	47.928	0	33.00	0	8.9590	0	32.3040	0	25.015	0	32.721	0	263.2	4	91.9	4	-1E+10	1	-1E+10	1	-1E+10	1	-1E+10	1	-1E+10	1	-1E+10	1
4902551	88	C	01/19/2023	16:00	-131.315	47.928	0	34.20	0	8.9590	0	32.3030	0	25.014	0	33.910	0	263.2	4	91.9	4	-1E+10	1	-1E+10	1	-1E+10	1	-1E+10	1	-1E+10	1	-1E+10	1
4902551	88	C	01/19/2023	16:00	-131.315	47.928	0	34.80	0	8.9580	0	32.3040	0	25.015	0	34.505	0	263.3	4	91.9	4	-1E+10	1	-1E+10	1	-1E+10	1	-1E+10	1	-1E+10	1	-1E+10	1
4902551	88	C	01/19/2023	16:00	-131.315	47.928	0	35.80	0	8.9590	0	32.3040	0	25.015	0	35.497	0	263.2	4	91.9	4	-1E+10	1	-1E+10	1	-1E+10	1	-1E+10	1	-1E+10	1	-1E+10	1
4902551	88	C	01/19/2023	16:00	-131.315	47.928	0	36.90	0	8.9580	0	32.3040	0	25.015	0	36.587	0	263.2	4	91.9	4	-1E+10	1	-1E+10	1	-1E+10	1	-1E+10	1	-1E+10	1	-1E+10	1
4902551	88	C	01/19/2023	16:00	-131.315	47.928	0	37.90	0	8.9580	0	32.3040	0	25.015	0	37.579	0	263.2	4	91.9	4	-1E+10	1	-1E+10	1	-1E+10	1	-1E+10	1	-1E+10	1	-1E+10	1
4902551	88	C	01/19/2023	16:00	-131.315	47.928	0	38.90	0	8.9600	0	32.3040	0	25.015	0	38.570	0	263.2	4	91.9	4	-1E+10	1	-1E+10	1	-1E+10	1	-1E+10	1	-1E+10	1	-1E+10	1
4902551	88	C	01/19/2023	16:00	-131.315	47.928	0	39.80	0	8.9600	0	32.3030	0	25.014	0	39.462	0	263.2	4	91.9	4	-1E+10	1	-1E+10	1	-1E+10	1	-1E+10	1	-1E+10	1	-1E+10	1
4902551	88	C	01/19/2023	16:00	-131.315	47.928	0	40.80	0	8.9600	0	32.3040	0	25.015	0	40.454	0	263.2	4	91.9	4	-1E+10	1	-1E+10	1	-1E+10	1	-1E+10	1	-1E+10	1	-1E+10	1
4902551	88	C	01/19/2023	16:00	-131.315	47.928	0	41.80	0	8.9600	0	32.3030	0	25.014	0	41.445	0	263.2	4	91.9	4	-1E+10	1	-1E+10	1	-1E+10	1	-1E+10	1	-1E+10	1	-1E+10	1
4902551	88	C	01/19/2023	16:00	-131.315	47.928	0	43.10	0	8.9600	0	32.3030	0	25.014	0	42.734	0	263.1	4	91.9	4	-1E+10	1	-1E+10	1	-1E+10	1	-1E+10	1	-1E+10	1	-1E+10	1
4902551	88	C	01/19/2023	16:00	-131.315	47.928	0	44.00	0	8.9600	0	32.3030	0	25.014	0	43.626	0	263.1	4	91.9	4	-1E+10	1	-1E+10	1	-1E+10	1	-1E+10	1	-1E+10	1	-1E+10	1
4902551	88	C	01/19/2023	16:00	-131.315	47.928	0	45.00	0	8.9600	0	32.3040	0	25.015	0	44.618	0	263.2	4	91.9	4	-1E+10	1	-1E+10	1	-1E+10	1	-1E+10	1	-1E+10	1	-1E+10	1
4902551	88	C	01/19/2023	16:00	-131.315	47.928	0	46.00	0	8.9600	0	32.3040	0	25.015	0	45.609	0	263.1	4	91.9	4	-1E+10	1	-1E+10	1	-1E+10	1	-1E+10	1	-1E+10	1	-1E+10	1
4902551	88	C	01/19/2023	16:00	-131.315	47.928	0	46.90	0	8.9600	0	32.3040	0	25.015	0	46.501	0	263.1	4	91.9	4	-1E+10	1	-1E+10	1	-1E+10	1	-1E+10	1	-1E+10	1	-1E+10	1
4902551	88	C	01/19/2023	16:00	-131.315	47.928	0	48.10	0	8.9610	0	32.3040	0	25.015	0	47.691	0	263.1	4	91.9	4	-1E+10	1	-1E+10	1	-1E+10	1	-1E+10	1	-1E+10	1	-1E+10	1
4902551	88	C	01/19/2023	16:00	-131.315	47.928	0	49.00	0	8.9610	0	32.3040	0	25.015	0	48.583	0	263.1	4	91.9	4	-1E+10	1	-1E+10	1	-1E+10	1	-1E+10	1	-1E+10	1	-1E+10	1
4902551	88	C	01/19/2023	16:00	-131.315	47.928	0	49.80	0	8.9610	0	32.3040	0	25.015	0	49.376	0	263.0	4	91.8	4	-1E+10	1	-1E+10	1	-1E+10	1	-1E+10	1	-1E+10	1	-1E+10	1
4902551	88	C	01/19/2023	16:00	-131.315	47.928	0	51.00	0	8.9610	0	32.3040	0	25.015	0	50.566	0	263.0	4	91.8	4	-1E+10	1	-1E+10	1	-1E+10	1	-1E+10	1	-1E+10	1	-1E+10	1
4902551	88	C	01/19/2023	16:00	-131.315	47.928	0	52.10	0	8.9610	0	32.3040	0	25.015	0	51.657	0	262.9	4	91.8	4	-1E+10	1	-1E+10	1	-1E+10	1	-1E+10	1	-1E+10	1	-1E+10	1
4902551	88	C	01/19/2023	16:00	-131.315	47.928	0	53.00	0	8.9610	0	32.3040	0	25.015	0	52.549	0	262.9	4	91.8	4	-1E+10	1	-1E+10	1	-1E+10	1	-1E+10	1	-1E+10	1	-1E+10	1
4902551	88	C	01/19/2023	16:00	-131.315	47.928	0	53.90	0	8.9610	0	32.3040	0	25.015	0	53.441	0	262.9	4	91.8	4	-1E+10	1	-1E+10	1	-1E+10	1	-1E+10	1	-1E+10	1	-1E+10	1
4902551	88	C	01/19/2023	16:00	-131.315	47.928	0	55.00	0	8.9610	0	32.3040	0	25.015	0	54.532	0	262.9	4	91.8	4	-1E+10	1	-1E+10	1	-1E+10	1	-1E+10	1	-1E+10	1	-1E+10	1
4902551	88	C	01/19/2023	16:00	-131.315	47.928	0	56.10	0	8.9610	0	32.3030	0	25.014	0	55.622	0	262.8	4	91.8	4	-1E+10	1	-1E+10	1	-1E+10	1	-1E+10	1	-1E+10	1	-1E+10	1
4902551	88	C	01/19/2023	16:00	-131.315	47.928	0	57.00	0	8.9610	0	32.3040	0	25.015	0	56.514	0	262.8	4	91.8	4	-1E+10	1	-1E+10	1	-1E+10	1	-1E+10	1	-1E+10	1	-1E+10	1
4902551	88	C	01/19/2023	16:00	-131.315	47.928	0	58.00	0	8.9610	0	32.3040	0	25.015	0	57.506	0	262.7	4	91.7	4	-1E+10	1	-1E+10	1	-1E+10	1	-1E+10	1	-1E+10	1	-1E+10	1
4902551	88	C	01/19/2023	16:00	-131.315	47.928	0	59.10	0	8.9600	0	32.3040	0	25.015	0	58.596	0	262.7	4	91.7	4	-1E+10	1	-1E+10	1	-1E+10	1	-1E+10	1	-1E+10	1	-1E+10	1
4902551	88	C	01/19/2023	16:00	-131.315	47.928	0	59.90	0	8.9580	0	32.3050	0	25.016	0	59.389	0	262.6	4	91.7	4	-1E+10	1	-1E+10	1	-1E+10	1	-1E+10	1	-1E+10	1	-1E+10	1
4902551	88	C	01/19/2023	16:00	-131.315	47.928	0	60.80	0	8.9580	0	32.3050	0	25.016	0	60.281	0	262.5	4	91.7	4	-1E+10	1	-1E+10	1	-1E+10	1	-1E+10	1	-1E+10	1	-1E+10	1
4902551	88	C	01/19/2023	16:00	-131.315	47.928	0	61.90	0	8.9590	0	32.3040	0	25.015	0	61.372	0	262.5	4	91.7	4	-1E+10	1	-1E+10	1	-1E+10	1	-1E+10	1	-1E+10	1	-1E+10	1
4902551	88	C	01/19/2023	16:00	-131.315	47.928	0	63.10	0	8.9590	0	32.3040	0	25.015	0	62.561	0	262.5	4	91.6	4	-1E+10	1	-1E+10	1	-1E+10	1	-1E+10	1	-1E+10	1	-1E+10	1
4902551	88	C	01/19/2023	16:00	-131.315	47.928	0	64.00	0	8.9580	0	32.3050	0	25.016	0	63.454	0	262.4	4	91.6	4	-1E+10	1	-1E+10	1	-1E+10	1	-1E+10	1	-1E+10	1	-1E+10	1
4902551	88	C	01/19/2023	16:00	-131.315	47.928	0	64.90	0	8.9580	0	32.3050	0	25.016	0	64.346	0	262.3	4	91.6	4	-1E+10	1	-1E+10	1	-1E+10	1	-1E+10	1	-1E+10	1	-1E+10	1
4902551	88	C	01/19/2023	16:00	-131.315	47.928	0	66.10	0	8.9570	0	32.3050	0	25.016	0	65.535	0	262.3	4	91.6	4	-1E+10	1	-1E+10	1	-1E+10	1	-1E+10	1	-1E+10	1	-1E+10	1
4902551	88	C	01/19/2023	16:00	-131.315	47.928	0	67.00	0	8.9590	0	32.3050	0	25.016	0	66.427	0	262.1	4	91.5	4	-1E+10	1	-1E+10	1	-1E+10	1	-1E+10	1	-1E+10	1	-1E+10	1
4902551	88	C	01/19/2023	16:00	-131.315	47.928	0	67.90	0	8.9560	0	32.3060	0	25.017	0	67.320	0	262.1	4	91.5	4	-1E+10	1	-1E+10	1	-1E+10	1	-1E+10	1	-1E+10	1	-1E+10	1
4902551	88	C	01/19/2023	16:00	-131.315	47.928	0	68.90	0	8.9500	0	32.3080	0	25.020	0	68.311	0	262.0	4	91.5	4	-1E+10	1	-1E+10	1	-1E+10	1	-1E+10	1	-1E+10	1	-1E+10	1
4902551	88	C	01/19/2023	16:00	-131.315	47.928	0	69.80	0	8.9460	0	32.3070	0	25.020	0	69.203	0	262.0	4	91.4	4	-1E+10	1	-1E+10	1	-1E+10	1	-1E+10	1	-1E+10	1	-1E+10	1
4902551	88	C	01/19/2023	16:00	-131.315	47.928	0	71.10	0	8.9460	0	32.3060	0	25.019	0	70.492	0	261.8	4	91.4	4	-1E+10	1	-1E+10	1	-1E+10	1	-1E+10	1	-1E+10	1	-1E+10	1
4902551	88	C	01/19/2023	16:00	-131.315	47.928	0	72.00	0	8.9470	0	32.3070	0	25.020	0	71.384	0	261.8	4	91.4	4	-1E+10	1	-1E+10	1	-1E+10	1	-1E+10	1	-1E+10	1	-1E+10	1
4902551	88	C	01/19/2023	16:00	-131.315	47.928	0	72.90	0	8.9470	0	32.3060	0	25.019	0	72.276	0	261.7	4	91.3	4	-1E+10	1	-1E+10	1	-1E+10	1	-1E+10	1	-1E+10	1	-1E+10	1
4902551	88	C	01/19/2023	16:00	-131.315	47.928	0	73.90	0	8.9440	0	32.3070	0	25.020	0	73.267	0	261.6	4	91.3	4	-1E+10	1	-1E+10	1	-1E+10	1	-1E+10	1	-1E+10	1	-1E+10	1
4902551	88	C	01/19/2023	16:00	-131.315	47.928	0	74.90	0	8.9450	0	32.3060	0	25.019	0	74.258	0	261.4	4	91.2	4	-1E+10	1	-1E+10	1	-1E+10	1	-1E+10	1	-1E+10	1	-1E+10	1
4902551	88	C	01/19/2023	16:00	-131.315	47.928	0	76.10	0	8.9370	0	32.3070	0	25.021	0	75.448	0	261.2	4	91.2	4	-1E+10	1	-1E+10	1	-1E+10	1	-1E+10	1	-1E+10	1	-1E+10	1
4902551	88	C	01/19/2023	16:00	-131.315	47.928	0	77.00	0	8.9340	0	32.3100	0	25.024	0	76.340	0	261.0	4	91.1	4	-1E+10	1	-1E+10	1	-1E+10	1	-1E+10	1	-1E+10	1	-1E+10	1
4902551	88	C	01/19/2023	16:00	-131.315	47.928	0	77.90	0	8.9310	0	32.3080	0	25.023	0	77.232	0	260.8	4	91.0	4	-1E+10	1	-1E+10	1	-1E+10	1	-1E+10	1	-1E+10	1	-1E+10	1
4902551	88	C	01/19/2023	16:00	-131.315	47.928	0	79.10	0	8.9310	0	32.3080	0	25.023	0	78.422	0	260.5	4	90.9	4	-1E+10	1	-1E+10	1	-1E+10	1	-1E+10	1	-1E+10	1	-1E+10	1
4902551	88	C	01/19/2023	16:00	-131.315	47.928	0	79.90	0	8.9290	0	32.3100	0	25.025	0	79.215	0	260.1	4	90.8	4	-1E+10	1	-1E+10	1	-1E+10	1	-1E+10	1	-1E+10	1	-1E+10	1
4902551	88	C	01/19/2023	16:00	-131.315	47.928	0	80.70	0	8.9210	0	32.3080	0	25.025	0	80.008	0	259.8	4	90.6	4	-1E+10	1	-1E+10	1	-1E+10	1	-1E+10	1	-1E+10	1	-1E+10	1
4902551	88	C	01/19/2023	16:00	-131.315	47.928	0	81.70	0	8.8900	0	32.3170	0	25.036	0	80.999	0	259.2	4	90.4	4	-1E+10	1	-1E+10	1	-1E+10	1	-1E+10	1	-1E+10	1	-1E+10	1
4902551	88	C	01/19/2023	16:00	-131.315	47.928	0	82.90	0	8.8660	0	32.3150	0	25.039	0	82.188	0	258.1	4	89.9	4	-1E+10	1	-1E+10	1	-1E+10	1	-1E+10	1	-1E+10	1	-1E+10	1
4902551	88	C	01/19/2023	16:00	-131.315	47.928	0	84.10	0	8.8530	0	32.3150	0	25.041	0	83.378	0	263.7	4	91.9	4	-1E+10	1	-1E+10	1	-1E+10	1	-1E+10	1	-1E+10	1	-1E+10	1
4902551	88	C	01/19/2023	16:00	-131.315	47.928	0	85.10	0	8.7390	0	32.3370	0	25.075	0	84.369	0	263.2	4	91.5	4	-1E+10	1	-1E+10	1	-1E+10	1	-1E+10	1	-1E+10	1	-1E+10	1
4902551	88	C	01/19/2023	16:00	-131.315	47.928	0	86.10	0	8.6500	0	32.3600	0	25.107	0	85.360	0	262.8	4	91.2	4	-1E+10	1	-1E+10	1	-1E+10	1	-1E+10	1	-1E+10	1	-1E+10	1
4902551	88	C	01/19/2023	16:00	-131.315	47.928	0	87.00	0	8.5990	0	32.3690	0	25.121	0	86.252	0	262.9	4	91.1	4	-1E+10	1	-1E+10	1	-1E+10	1	-1E+10	1	-1E+10	1	-1E+10	1
4902551	88	C	01/19/2023	16:00	-131.315	47.928	0	87.90	0	8.4360	0	32.3950	0	25.166	0	87.144	0	262.9	4	90.8	4	-1E+10	1	-1E+10	1	-1E+10	1	-1E+10	1	-1E+10	1	-1E+10	1
4902551	88	C	01/19/2023	16:00	-131.315	47.928	0	88.90	0	8.2930	0	32.4070	0	25.197	0	88.136	0	262.7	4	90.4	4	-1E+10	1	-1E+10	1	-1E+10	1	-1E+10	1	-1E+10	1	-1E+10	1
4902551	88	C	01/19/2023	16:00	-131.315	47.928	0	90.00	0	8.1930	0	32.4200	0	25.222	0	89.226	0	262.2	4	90.1	4	-1E+10	1	-1E+10	1	-1E+10	1	-1E+10	1	-1E+10	1	-1E+10	1
4902551	88	C	01/19/2023	16:00	-131.315	47.928	0	91.00	0	8.1180	0	32.4240	0	25.236	0	90.217	0	261.6	4	89.7	4	-1E+10	1	-1E+10	1	-1E+10	1	-1E+10	1	-1E+10	1	-1E+10	1
4902551	88	C	01/19/2023	16:00	-131.315	47.928	0	92.00	0	7.9260	0	32.4750	0	25.303	0	91.208	0	261.7	4	89.4	4	-1E+10	1	-1E+10	1	-1E+10	1	-1E+10	1	-1E+10	1	-1E+10	1
4902551	88	C	01/19/2023	16:00	-131.315	47.928	0	93.00	0	7.7610	0	32.4780	0	25.329	0	92.199	0	261.6	4	89.0	4	-1E+10	1	-1E+10	1	-1E+10	1	-1E+10	1	-1E+10	1	-1E+10	1
4902551	88	C	01/19/2023	16:00	-131.315	47.928	0	94.10	0	7.6550	0	32.4850	0	25.350	0	93.290	0	261.6	4	88.8	4	-1E+10	1	-1E+10	1	-1E+10	1	-1E+10	1	-1E+10	1	-1E+10	1
4902551	88	C	01/19/2023	16:00	-131.315	47.928	0	95.10	0	7.6040	0	32.4870	0	25.359	0	94.281	0	261.3	4	88.6	4	-1E+10	1	-1E+10	1	-1E+10	1	-1E+10	1	-1E+10	1	-1E+10	1
4902551	88	C	01/19/2023	16:00	-131.315	47.928	0	96.00	0	7.5790	0	32.4920	0	25.366	0	95.173	0	261.2	4	88.5	4	-1E+10	1	-1E+10	1	-1E+10	1	-1E+10	1	-1E+10	1	-1E+10	1
4902551	88	C	01/19/2023	16:00	-131.315	47.928	0	96.90	0	7.4910	0	32.5030	0	25.387	0	96.065	0	261.0	4	88.3	4	-1E+10	1	-1E+10	1	-1E+10	1	-1E+10	1	-1E+10	1	-1E+10	1
4902551	88	C	01/19/2023	16:00	-131.315	47.928	0	97.80	0	7.4850	0	32.5040	0	25.389	0	96.957	0	260.7	4	88.2	4	-1E+10	1	-1E+10	1	-1E+10	1	-1E+10	1	-1E+10	1	-1E+10	1
4902551	88	C	01/19/2023	16:00	-131.315	47.928	0	99.00	0	7.4740	0	32.5100	0	25.395	0	98.146	0	260.2	4	88.0	4	-1E+10	1	-1E+10	1	-1E+10	1	-1E+10	1	-1E+10	1	-1E+10	1
4902551	88	C	01/19/2023	16:00	-131.315	47.928	0	99.90	0	7.4210	0	32.5040	0	25.397	0	99.038	0	260.0	4	87.8	4	-1E+10	1	-1E+10	1	-1E+10	1	-1E+10	1	-1E+10	1	-1E+10	1
4902551	88	C	01/19/2023	16:00	-131.315	47.928	0	100.80	0	7.3460	0	32.5220	0	25.422	0	99.930	0	259.6	4	87.6	4	-1E+10	1	-1E+10	1	-1E+10	1	-1E+10	1	-1E+10	1	-1E+10	1
4902551	88	C	01/19/2023	16:00	-131.315	47.928	0	102.10	0	7.2750	0	32.5340	0	25.441	0	101.219	0	259.1	4	87.3	4	-1E+10	1	-1E+10	1	-1E+10	1	-1E+10	1	-1E+10	1	-1E+10	1
4902551	88	C	01/19/2023	16:00	-131.315	47.928	0	103.00	0	7.2530	0	32.5330	0	25.443	0	102.111	0	258.3	4	87.0	4	-1E+10	1	-1E+10	1	-1E+10	1	-1E+10	1	-1E+10	1	-1E+10	1
4902551	88	C	01/19/2023	16:00	-131.315	47.928	0	103.90	0	7.2260	0	32.5400	0	25.452	0	103.003	0	257.6	4	86.6	4	-1E+10	1	-1E+10	1	-1E+10	1	-1E+10	1	-1E+10	1	-1E+10	1
4902551	88	C	01/19/2023	16:00	-131.315	47.928	0	105.10	0	7.1820	0	32.5510	0	25.467	0	104.192	0	256.3	4	86.1	4	-1E+10	1	-1E+10	1	-1E+10	1	-1E+10	1	-1E+10	1	-1E+10	1
4902551	88	C	01/19/2023	16:00	-131.315	47.928	0	106.30	0	7.1100	0	32.5720	0	25.493	0	105.382	0	255.3	4	85.7	4	-1E+10	1	-1E+10	1	-1E+10	1	-1E+10	1	-1E+10	1	-1E+10	1
4902551	88	C	01/19/2023	16:00	-131.315	47.928	0	107.00	0	7.0510	0	32.5830	0	25.510	0	106.075	0	255.2	4	85.5	4	-1E+10	1	-1E+10	1	-1E+10	1	-1E+10	1	-1E+10	1	-1E+10	1
4902551	88	C	01/19/2023	16:00	-131.315	47.928	0	108.10	0	6.9870	0	32.6000	0	25.532	0	107.166	0	254.5	4	85.2	4	-1E+10	1	-1E+10	1	-1E+10	1	-1E+10	1	-1E+10	1	-1E+10	1
4902551	88	C	01/19/2023	16:00	-131.315	47.928	0	109.10	0	6.9740	0	32.6040	0	25.537	0	108.157	0	254.0	4	85.0	4	-1E+10	1	-1E+10	1	-1E+10	1	-1E+10	1	-1E+10	1	-1E+10	1
4902551	88	C	01/19/2023	16:00	-131.315	47.928	0	110.00	0	6.9550	0	32.6120	0	25.546	0	109.049	0	253.6	4	84.8	4	-1E+10	1	-1E+10	1	-1E+10	1	-1E+10	1	-1E+10	1	-1E+10	1
4902551	88	C	01/19/2023	16:00	-131.315	47.928	0	111.10	0	6.9140	0	32.6270	0	25.563	0	110.139	0	253.2	4	84.6	4	-1E+10	1	-1E+10	1	-1E+10	1	-1E+10	1	-1E+10	1	-1E+10	1
4902551	88	C	01/19/2023	16:00	-131.315	47.928	0	112.00	0	6.8920	0	32.6360	0	25.573	0	111.031	0	253.0	4	84.5	4	-1E+10	1	-1E+10	1	-1E+10	1	-1E+10	1	-1E+10	1	-1E+10	1
4902551	88	C	01/19/2023	16:00	-131.315	47.928	0	113.20	0	6.8610	0	32.6490	0	25.587	0	112.220	0	252.6	4	84.3	4	-1E+10	1	-1E+10	1	-1E+10	1	-1E+10	1	-1E+10	1	-1E+10	1
4902551	88	C	01/19/2023	16:00	-131.315	47.928	0	114.10	0	6.8550	0	32.6520	0	25.590	0	113.112	0	252.0	4	84.1	4	-1E+10	1	-1E+10	1	-1E+10	1	-1E+10	1	-1E+10	1	-1E+10	1
4902551	88	C	01/19/2023	16:00	-131.315	47.928	0	115.10	0	6.8430	0	32.6590	0	25.597	0	114.103	0	251.3	4	83.9	4	-1E+10	1	-1E+10	1	-1E+10	1	-1E+10	1	-1E+10	1	-1E+10	1
4902551	88	C	01/19/2023	16:00	-131.315	47.928	0	116.20	0	6.8370	0	32.6620	0	25.601	0	115.193	0	250.1	4	83.5	4	-1E+10	1	-1E+10	1	-1E+10	1	-1E+10	1	-1E+10	1	-1E+10	1
4902551	88	C	01/19/2023	16:00	-131.315	47.928	0	116.90	0	6.8300	0	32.6650	0	25.604	0	115.887	0	248.8	4	83.0	4	-1E+10	1	-1E+10	1	-1E+10	1	-1E+10	1	-1E+10	1	-1E+10	1
4902551	88	C	01/19/2023	16:00	-131.315	47.928	0	118.00	0	6.8190	0	32.6710	0	25.610	0	116.977	0	246.6	4	82.3	4	-1E+10	1	-1E+10	1	-1E+10	1	-1E+10	1	-1E+10	1	-1E+10	1
4902551	88	C	01/19/2023	16:00	-131.315	47.928	0	118.90	0	6.7960	0	32.6840	0	25.623	0	117.869	0	245.0	4	81.7	4	-1E+10	1	-1E+10	1	-1E+10	1	-1E+10	1	-1E+10	1	-1E+10	1
4902551	88	C	01/19/2023	16:00	-131.315	47.928	0	120.00	0	6.7460	0	32.7110	0	25.651	0	118.959	0	242.8	4	80.9	4	-1E+10	1	-1E+10	1	-1E+10	1	-1E+10	1	-1E+10	1	-1E+10	1
4902551	88	C	01/19/2023	16:00	-131.315	47.928	0	120.90	0	6.7230	0	32.7310	0	25.670	0	119.851	0	240.7	4	80.2	4	-1E+10	1	-1E+10	1	-1E+10	1	-1E+10	1	-1E+10	1	-1E+10	1
4902551	88	C	01/19/2023	16:00	-131.315	47.928	0	122.00	0	6.6780	0	32.7920	0	25.724	0	120.941	0	238.8	4	79.5	4	-1E+10	1	-1E+10	1	-1E+10	1	-1E+10	1	-1E+10	1	-1E+10	1
4902551	88	C	01/19/2023	16:00	-131.315	47.928	0	123.10	0	6.6480	0	32.8300	0	25.758	0	122.031	0	237.0	4	78.8	4	-1E+10	1	-1E+10	1	-1E+10	1	-1E+10	1	-1E+10	1	-1E+10	1
4902551	88	C	01/19/2023	16:00	-131.315	47.928	0	123.90	0	6.6290	0	32.8480	0	25.774	0	122.824	0	235.6	4	78.4	4	-1E+10	1	-1E+10	1	-1E+10	1	-1E+10	1	-1E+10	1	-1E+10	1
4902551	88	C	01/19/2023	16:00	-131.315	47.928	0	125.10	0	6.6060	0	32.8720	0	25.796	0	124.013	0	233.7	4	77.7	4	-1E+10	1	-1E+10	1	-1E+10	1	-1E+10	1	-1E+10	1	-1E+10	1
4902551	88	C	01/19/2023	16:00	-131.315	47.928	0	126.10	0	6.5930	0	32.8880	0	25.811	0	125.004	0	231.7	4	77.0	4	-1E+10	1	-1E+10	1	-1E+10	1	-1E+10	1	-1E+10	1	-1E+10	1
4902551	88	C	01/19/2023	16:00	-131.315	47.928	0	127.00	0	6.5600	0	32.9240	0	25.843	0	125.896	0	229.4	4	76.2	4	-1E+10	1	-1E+10	1	-1E+10	1	-1E+10	1	-1E+10	1	-1E+10	1
4902551	88	C	01/19/2023	16:00	-131.315	47.928	0	128.10	0	6.5280	0	32.9690	0	25.883	0	126.986	0	227.0	4	75.4	4	-1E+10	1	-1E+10	1	-1E+10	1	-1E+10	1	-1E+10	1	-1E+10	1
4902551	88	C	01/19/2023	16:00	-131.315	47.928	0	128.90	0	6.5220	0	32.9760	0	25.889	0	127.779	0	225.4	4	74.9	4	-1E+10	1	-1E+10	1	-1E+10	1	-1E+10	1	-1E+10	1	-1E+10	1
4902551	88	C	01/19/2023	16:00	-131.315	47.928	0	129.80	0	6.5020	0	33.0010	0	25.912	0	128.671	0	223.4	4	74.2	4	-1E+10	1	-1E+10	1	-1E+10	1	-1E+10	1	-1E+10	1	-1E+10	1
4902551	88	C	01/19/2023	16:00	-131.315	47.928	0	131.00	0	6.4730	0	33.0410	0	25.947	0	129.860	0	221.0	4	73.3	4	-1E+10	1	-1E+10	1	-1E+10	1	-1E+10	1	-1E+10	1	-1E+10	1
4902551	88	C	01/19/2023	16:00	-131.315	47.928	0	132.00	0	6.4360	0	33.0900	0	25.990	0	130.851	0	219.0	4	72.6	4	-1E+10	1	-1E+10	1	-1E+10	1	-1E+10	1	-1E+10	1	-1E+10	1
4902551	88	C	01/19/2023	16:00	-131.315	47.928	0	133.00	0	6.4160	0	33.1120	0	26.010	0	131.842	0	217.0	4	72.0	4	-1E+10	1	-1E+10	1	-1E+10	1	-1E+10	1	-1E+10	1	-1E+10	1
4902551	88	C	01/19/2023	16:00	-131.315	47.928	0	134.10	0	6.4060	0	33.1210	0	26.019	0	132.932	0	214.9	4	71.3	4	-1E+10	1	-1E+10	1	-1E+10	1	-1E+10	1	-1E+10	1	-1E+10	1
4902551	88	C	01/19/2023	16:00	-131.315	47.928	0	134.90	0	6.3800	0	33.1430	0	26.039	0	133.725	0	213.7	4	70.8	4	-1E+10	1	-1E+10	1	-1E+10	1	-1E+10	1	-1E+10	1	-1E+10	1
4902551	88	C	01/19/2023	16:00	-131.315	47.928	0	135.70	0	6.3540	0	33.1730	0	26.066	0	134.518	0	212.4	4	70.4	4	-1E+10	1	-1E+10	1	-1E+10	1	-1E+10	1	-1E+10	1	-1E+10	1
4902551	88	C	01/19/2023	16:00	-131.315	47.928	0	136.90	0	6.3440	0	33.2000	0	26.089	0	135.707	0	210.6	4	69.8	4	-1E+10	1	-1E+10	1	-1E+10	1	-1E+10	1	-1E+10	1	-1E+10	1
4902551	88	C	01/19/2023	16:00	-131.315	47.928	0	138.10	0	6.3420	0	33.2090	0	26.096	0	136.896	0	208.7	4	69.1	4	-1E+10	1	-1E+10	1	-1E+10	1	-1E+10	1	-1E+10	1	-1E+10	1
4902551	88	C	01/19/2023	16:00	-131.315	47.928	0	138.90	0	6.3390	0	33.2160	0	26.102	0	137.689	0	207.4	4	68.7	4	-1E+10	1	-1E+10	1	-1E+10	1	-1E+10	1	-1E+10	1	-1E+10	1
4902551	88	C	01/19/2023	16:00	-131.315	47.928	0	139.70	0	6.3320	0	33.2290	0	26.113	0	138.482	0	206.0	4	68.2	4	-1E+10	1	-1E+10	1	-1E+10	1	-1E+10	1	-1E+10	1	-1E+10	1
4902551	88	C	01/19/2023	16:00	-131.315	47.928	0	141.00	0	6.2960	0	33.2770	0	26.156	0	139.770	0	204.2	4	67.6	4	-1E+10	1	-1E+10	1	-1E+10	1	-1E+10	1	-1E+10	1	-1E+10	1
4902551	88	C	01/19/2023	16:00	-131.315	47.928	0	142.30	0	6.2750	0	33.3000	0	26.177	0	141.058	0	202.7	4	67.1	4	-1E+10	1	-1E+10	1	-1E+10	1	-1E+10	1	-1E+10	1	-1E+10	1
4902551	88	C	01/19/2023	16:00	-131.315	47.928	0	143.20	0	6.2640	0	33.3140	0	26.189	0	141.950	0	201.7	4	66.7	4	-1E+10	1	-1E+10	1	-1E+10	1	-1E+10	1	-1E+10	1	-1E+10	1
4902551	88	C	01/19/2023	16:00	-131.315	47.928	0	144.10	0	6.2560	0	33.3210	0	26.196	0	142.842	0	200.6	4	66.4	4	-1E+10	1	-1E+10	1	-1E+10	1	-1E+10	1	-1E+10	1	-1E+10	1
4902551	88	C	01/19/2023	16:00	-131.315	47.928	0	145.00	0	6.2490	0	33.3270	0	26.201	0	143.734	0	199.3	4	66.0	4	-1E+10	1	-1E+10	1	-1E+10	1	-1E+10	1	-1E+10	1	-1E+10	1
4902551	88	C	01/19/2023	16:00	-131.315	47.928	0	145.90	0	6.2220	0	33.3540	0	26.226	0	144.626	0	198.2	4	65.5	4	-1E+10	1	-1E+10	1	-1E+10	1	-1E+10	1	-1E+10	1	-1E+10	1
4902551	88	C	01/19/2023	16:00	-131.315	47.928	0	146.80	0	6.2070	0	33.3700	0	26.241	0	145.517	0	197.0	4	65.1	4	-1E+10	1	-1E+10	1	-1E+10	1	-1E+10	1	-1E+10	1	-1E+10	1
4902551	88	C	01/19/2023	16:00	-131.315	47.928	0	147.70	0	6.1830	0	33.3930	0	26.262	0	146.409	0	196.0	4	64.8	4	-1E+10	1	-1E+10	1	-1E+10	1	-1E+10	1	-1E+10	1	-1E+10	1
4902551	88	C	01/19/2023	16:00	-131.315	47.928	0	148.70	0	6.1750	0	33.4000	0	26.268	0	147.400	0	195.0	4	64.4	4	-1E+10	1	-1E+10	1	-1E+10	1	-1E+10	1	-1E+10	1	-1E+10	1
4902551	88	C	01/19/2023	16:00	-131.315	47.928	0	149.60	0	6.1690	0	33.4040	0	26.272	0	148.292	0	193.8	4	64.1	4	-1E+10	1	-1E+10	1	-1E+10	1	-1E+10	1	-1E+10	1	-1E+10	1
4902551	88	C	01/19/2023	16:00	-131.315	47.928	0	150.60	0	6.1530	0	33.4180	0	26.285	0	149.283	0	192.8	4	63.7	4	-1E+10	1	-1E+10	1	-1E+10	1	-1E+10	1	-1E+10	1	-1E+10	1
4902551	88	C	01/19/2023	16:00	-131.315	47.928	0	151.50	0	6.1310	0	33.4380	0	26.304	0	150.175	0	191.8	4	63.3	4	-1E+10	1	-1E+10	1	-1E+10	1	-1E+10	1	-1E+10	1	-1E+10	1
4902551	88	C	01/19/2023	16:00	-131.315	47.928	0	152.50	0	6.1190	0	33.4670	0	26.328	0	151.165	0	190.9	4	63.1	4	-1E+10	1	-1E+10	1	-1E+10	1	-1E+10	1	-1E+10	1	-1E+10	1
4902551	88	C	01/19/2023	16:00	-131.315	47.928	0	153.50	0	6.1170	0	33.4750	0	26.335	0	152.156	0	190.1	4	62.8	4	-1E+10	1	-1E+10	1	-1E+10	1	-1E+10	1	-1E+10	1	-1E+10	1
4902551	88	C	01/19/2023	16:00	-131.315	47.928	0	154.50	0	6.1160	0	33.4770	0	26.337	0	153.147	0	189.0	4	62.4	4	-1E+10	1	-1E+10	1	-1E+10	1	-1E+10	1	-1E+10	1	-1E+10	1
4902551	88	C	01/19/2023	16:00	-131.315	47.928	0	155.50	0	6.1060	0	33.4800	0	26.340	0	154.138	0	187.6	4	61.9	4	-1E+10	1	-1E+10	1	-1E+10	1	-1E+10	1	-1E+10	1	-1E+10	1
4902551	88	C	01/19/2023	16:00	-131.315	47.928	0	156.50	0	6.1020	0	33.4790	0	26.340	0	155.129	0	186.0	4	61.4	4	-1E+10	1	-1E+10	1	-1E+10	1	-1E+10	1	-1E+10	1	-1E+10	1
4902551	88	C	01/19/2023	16:00	-131.315	47.928	0	157.50	0	6.0920	0	33.4840	0	26.345	0	156.120	0	184.6	4	60.9	4	-1E+10	1	-1E+10	1	-1E+10	1	-1E+10	1	-1E+10	1	-1E+10	1
4902551	88	C	01/19/2023	16:00	-131.315	47.928	0	158.50	0	6.0820	0	33.4960	0	26.356	0	157.111	0	183.2	4	60.4	4	-1E+10	1	-1E+10	1	-1E+10	1	-1E+10	1	-1E+10	1	-1E+10	1
4902551	88	C	01/19/2023	16:00	-131.315	47.928	0	159.50	0	6.0770	0	33.5010	0	26.360	0	158.102	0	181.7	4	60.0	4	-1E+10	1	-1E+10	1	-1E+10	1	-1E+10	1	-1E+10	1	-1E+10	1
4902551	88	C	01/19/2023	16:00	-131.315	47.928	0	160.50	0	6.0680	0	33.5100	0	26.369	0	159.092	0	180.1	4	59.4	4	-1E+10	1	-1E+10	1	-1E+10	1	-1E+10	1	-1E+10	1	-1E+10	1
4902551	88	C	01/19/2023	16:00	-131.315	47.928	0	161.60	0	6.0550	0	33.5310	0	26.387	0	160.182	0	178.7	4	58.9	4	-1E+10	1	-1E+10	1	-1E+10	1	-1E+10	1	-1E+10	1	-1E+10	1
4902551	88	C	01/19/2023	16:00	-131.315	47.928	0	162.60	0	6.0420	0	33.5490	0	26.403	0	161.173	0	177.3	4	58.5	4	-1E+10	1	-1E+10	1	-1E+10	1	-1E+10	1	-1E+10	1	-1E+10	1
4902551	88	C	01/19/2023	16:00	-131.315	47.928	0	163.60	0	6.0430	0	33.5600	0	26.411	0	162.164	0	176.0	4	58.0	4	-1E+10	1	-1E+10	1	-1E+10	1	-1E+10	1	-1E+10	1	-1E+10	1
4902551	88	C	01/19/2023	16:00	-131.315	47.928	0	164.70	0	6.0340	0	33.5720	0	26.422	0	163.254	0	174.5	4	57.6	4	-1E+10	1	-1E+10	1	-1E+10	1	-1E+10	1	-1E+10	1	-1E+10	1
4902551	88	C	01/19/2023	16:00	-131.315	47.928	0	165.70	0	6.0020	0	33.5980	0	26.446	0	164.245	0	173.3	4	57.1	4	-1E+10	1	-1E+10	1	-1E+10	1	-1E+10	1	-1E+10	1	-1E+10	1
4902551	88	C	01/19/2023	16:00	-131.315	47.928	0	166.70	0	5.9910	0	33.6030	0	26.452	0	165.235	0	172.1	4	56.7	4	-1E+10	1	-1E+10	1	-1E+10	1	-1E+10	1	-1E+10	1	-1E+10	1
4902551	88	C	01/19/2023	16:00	-131.315	47.928	0	167.80	0	5.9820	0	33.6150	0	26.462	0	166.325	0	171.0	4	56.3	4	-1E+10	1	-1E+10	1	-1E+10	1	-1E+10	1	-1E+10	1	-1E+10	1
4902551	88	C	01/19/2023	16:00	-131.315	47.928	0	168.80	0	5.9710	0	33.6160	0	26.465	0	167.316	0	169.8	4	55.9	4	-1E+10	1	-1E+10	1	-1E+10	1	-1E+10	1	-1E+10	1	-1E+10	1
4902551	88	C	01/19/2023	16:00	-131.315	47.928	0	169.50	0	5.9650	0	33.6240	0	26.472	0	168.010	0	168.6	4	55.5	4	-1E+10	1	-1E+10	1	-1E+10	1	-1E+10	1	-1E+10	1	-1E+10	1
4902551	88	C	01/19/2023	16:00	-131.315	47.928	0	171.00	0	5.9650	0	33.6330	0	26.479	0	169.496	0	166.1	4	54.7	4	-1E+10	1	-1E+10	1	-1E+10	1	-1E+10	1	-1E+10	1	-1E+10	1
4902551	88	C	01/19/2023	16:00	-131.315	47.928	0	172.20	0	5.9460	0	33.6510	0	26.495	0	170.685	0	164.5	4	54.2	4	-1E+10	1	-1E+10	1	-1E+10	1	-1E+10	1	-1E+10	1	-1E+10	1
4902551	88	C	01/19/2023	16:00	-131.315	47.928	0	173.00	0	5.9390	0	33.6570	0	26.501	0	171.478	0	163.6	4	53.9	4	-1E+10	1	-1E+10	1	-1E+10	1	-1E+10	1	-1E+10	1	-1E+10	1
4902551	88	C	01/19/2023	16:00	-131.315	47.928	0	173.80	0	5.9260	0	33.6620	0	26.507	0	172.270	0	162.8	4	53.6	4	-1E+10	1	-1E+10	1	-1E+10	1	-1E+10	1	-1E+10	1	-1E+10	1
4902551	88	C	01/19/2023	16:00	-131.315	47.928	0	175.00	0	5.9140	0	33.6720	0	26.516	0	173.459	0	161.5	4	53.1	4	-1E+10	1	-1E+10	1	-1E+10	1	-1E+10	1	-1E+10	1	-1E+10	1
4902551	88	C	01/19/2023	16:00	-131.315	47.928	0	176.20	0	5.8560	0	33.6810	0	26.530	0	174.648	0	160.3	4	52.7	4	-1E+10	1	-1E+10	1	-1E+10	1	-1E+10	1	-1E+10	1	-1E+10	1
4902551	88	C	01/19/2023	16:00	-131.315	47.928	0	177.00	0	5.8270	0	33.6820	0	26.535	0	175.441	0	159.6	4	52.4	4	-1E+10	1	-1E+10	1	-1E+10	1	-1E+10	1	-1E+10	1	-1E+10	1
4902551	88	C	01/19/2023	16:00	-131.315	47.928	0	177.80	0	5.8230	0	33.6820	0	26.535	0	176.233	0	158.8	4	52.2	4	-1E+10	1	-1E+10	1	-1E+10	1	-1E+10	1	-1E+10	1	-1E+10	1
4902551	88	C	01/19/2023	16:00	-131.315	47.928	0	178.70	0	5.7960	0	33.6950	0	26.549	0	177.125	0	158.1	4	51.9	4	-1E+10	1	-1E+10	1	-1E+10	1	-1E+10	1	-1E+10	1	-1E+10	1
4902551	88	C	01/19/2023	16:00	-131.315	47.928	0	179.90	0	5.7870	0	33.7000	0	26.554	0	178.314	0	157.2	4	51.6	4	-1E+10	1	-1E+10	1	-1E+10	1	-1E+10	1	-1E+10	1	-1E+10	1
4902551	88	C	01/19/2023	16:00	-131.315	47.928	0	181.10	0	5.7660	0	33.7080	0	26.563	0	179.503	0	156.5	4	51.3	4	-1E+10	1	-1E+10	1	-1E+10	1	-1E+10	1	-1E+10	1	-1E+10	1
4902551	88	C	01/19/2023	16:00	-131.315	47.928	0	182.00	0	5.7420	0	33.7050	0	26.563	0	180.394	0	156.2	4	51.2	4	-1E+10	1	-1E+10	1	-1E+10	1	-1E+10	1	-1E+10	1	-1E+10	1
4902551	88	C	01/19/2023	16:00	-131.315	47.928	0	182.90	0	5.7410	0	33.7060	0	26.564	0	181.286	0	155.7	4	51.1	4	-1E+10	1	-1E+10	1	-1E+10	1	-1E+10	1	-1E+10	1	-1E+10	1
4902551	88	C	01/19/2023	16:00	-131.315	47.928	0	183.70	0	5.7390	0	33.7070	0	26.565	0	182.079	0	155.4	4	50.9	4	-1E+10	1	-1E+10	1	-1E+10	1	-1E+10	1	-1E+10	1	-1E+10	1
4902551	88	C	01/19/2023	16:00	-131.315	47.928	0	184.60	0	5.7370	0	33.7080	0	26.566	0	182.970	0	154.9	4	50.8	4	-1E+10	1	-1E+10	1	-1E+10	1	-1E+10	1	-1E+10	1	-1E+10	1
4902551	88	C	01/19/2023	16:00	-131.315	47.928	0	185.90	0	5.7330	0	33.7090	0	26.568	0	184.258	0	154.1	4	50.5	4	-1E+10	1	-1E+10	1	-1E+10	1	-1E+10	1	-1E+10	1	-1E+10	1
4902551	88	C	01/19/2023	16:00	-131.315	47.928	0	187.20	0	5.7290	0	33.7090	0	26.568	0	185.546	0	153.3	4	50.3	4	-1E+10	1	-1E+10	1	-1E+10	1	-1E+10	1	-1E+10	1	-1E+10	1
4902551	88	C	01/19/2023	16:00	-131.315	47.928	0	188.10	0	5.7270	0	33.7090	0	26.568	0	186.438	0	152.6	4	50.0	4	-1E+10	1	-1E+10	1	-1E+10	1	-1E+10	1	-1E+10	1	-1E+10	1
4902551	88	C	01/19/2023	16:00	-131.315	47.928	0	189.00	0	5.7250	0	33.7110	0	26.570	0	187.329	0	151.9	4	49.8	4	-1E+10	1	-1E+10	1	-1E+10	1	-1E+10	1	-1E+10	1	-1E+10	1
4902551	88	C	01/19/2023	16:00	-131.315	47.928	0	189.80	0	5.7240	0	33.7100	0	26.569	0	188.122	0	151.1	4	49.5	4	-1E+10	1	-1E+10	1	-1E+10	1	-1E+10	1	-1E+10	1	-1E+10	1
4902551	88	C	01/19/2023	16:00	-131.315	47.928	0	190.80	0	5.7220	0	33.7090	0	26.569	0	189.113	0	150.2	4	49.2	4	-1E+10	1	-1E+10	1	-1E+10	1	-1E+10	1	-1E+10	1	-1E+10	1
4902551	88	C	01/19/2023	16:00	-131.315	47.928	0	191.60	0	5.7210	0	33.7140	0	26.573	0	189.905	0	149.6	4	49.0	4	-1E+10	1	-1E+10	1	-1E+10	1	-1E+10	1	-1E+10	1	-1E+10	1
4902551	88	C	01/19/2023	16:00	-131.315	47.928	0	192.60	0	5.7140	0	33.7200	0	26.579	0	190.896	0	149.0	4	48.8	4	-1E+10	1	-1E+10	1	-1E+10	1	-1E+10	1	-1E+10	1	-1E+10	1
4902551	88	C	01/19/2023	16:00	-131.315	47.928	0	193.90	0	5.7040	0	33.7210	0	26.581	0	192.184	0	148.2	4	48.6	4	-1E+10	1	-1E+10	1	-1E+10	1	-1E+10	1	-1E+10	1	-1E+10	1
4902551	88	C	01/19/2023	16:00	-131.315	47.928	0	195.30	0	5.6940	0	33.7230	0	26.583	0	193.571	0	147.3	4	48.3	4	-1E+10	1	-1E+10	1	-1E+10	1	-1E+10	1	-1E+10	1	-1E+10	1
4902551	88	C	01/19/2023	16:00	-131.315	47.928	0	196.20	0	5.6780	0	33.7240	0	26.586	0	194.462	0	146.8	4	48.1	4	-1E+10	1	-1E+10	1	-1E+10	1	-1E+10	1	-1E+10	1	-1E+10	1
4902551	88	C	01/19/2023	16:00	-131.315	47.928	0	197.10	0	5.6610	0	33.7280	0	26.591	0	195.354	0	146.3	4	47.9	4	-1E+10	1	-1E+10	1	-1E+10	1	-1E+10	1	-1E+10	1	-1E+10	1
4902551	88	C	01/19/2023	16:00	-131.315	47.928	0	198.00	0	5.6470	0	33.7270	0	26.592	0	196.246	0	145.8	4	47.7	4	-1E+10	1	-1E+10	1	-1E+10	1	-1E+10	1	-1E+10	1	-1E+10	1
4902551	88	C	01/19/2023	16:00	-131.315	47.928	0	198.90	0	5.6440	0	33.7270	0	26.593	0	197.137	0	145.2	4	47.5	4	-1E+10	1	-1E+10	1	-1E+10	1	-1E+10	1	-1E+10	1	-1E+10	1
4902551	88	C	01/19/2023	16:00	-131.315	47.928	0	199.90	0	5.6380	0	33.7300	0	26.596	0	198.128	0	144.6	4	47.3	4	-1E+10	1	-1E+10	1	-1E+10	1	-1E+10	1	-1E+10	1	-1E+10	1
4902551	88	C	01/19/2023	16:00	-131.315	47.928	0	200.80	0	5.6190	0	33.7310	0	26.599	0	199.020	0	144.1	4	47.1	4	-1E+10	1	-1E+10	1	-1E+10	1	-1E+10	1	-1E+10	1	-1E+10	1
4902551	88	C	01/19/2023	16:00	-131.315	47.928	0	201.70	0	5.6070	0	33.7310	0	26.600	0	199.911	0	143.6	4	46.9	4	-1E+10	1	-1E+10	1	-1E+10	1	-1E+10	1	-1E+10	1	-1E+10	1
4902551	88	C	01/19/2023	16:00	-131.315	47.928	0	202.60	0	5.5730	0	33.7370	0	26.609	0	200.803	0	143.1	4	46.8	4	-1E+10	1	-1E+10	1	-1E+10	1	-1E+10	1	-1E+10	1	-1E+10	1
4902551	88	C	01/19/2023	16:00	-131.315	47.928	0	203.90	0	5.5600	0	33.7310	0	26.606	0	202.090	0	142.3	4	46.5	4	-1E+10	1	-1E+10	1	-1E+10	1	-1E+10	1	-1E+10	1	-1E+10	1
4902551	88	C	01/19/2023	16:00	-131.315	47.928	0	205.40	0	5.5320	0	33.7370	0	26.614	0	203.576	0	141.5	4	46.2	4	-1E+10	1	-1E+10	1	-1E+10	1	-1E+10	1	-1E+10	1	-1E+10	1
4902551	88	C	01/19/2023	16:00	-131.315	47.928	0	206.30	0	5.5290	0	33.7310	0	26.610	0	204.468	0	140.9	4	46.0	4	-1E+10	1	-1E+10	1	-1E+10	1	-1E+10	1	-1E+10	1	-1E+10	1
4902551	88	C	01/19/2023	16:00	-131.315	47.928	0	207.20	0	5.5170	0	33.7340	0	26.613	0	205.360	0	140.3	4	45.8	4	-1E+10	1	-1E+10	1	-1E+10	1	-1E+10	1	-1E+10	1	-1E+10	1
4902551	88	C	01/19/2023	16:00	-131.315	47.928	0	208.20	0	5.5050	0	33.7360	0	26.617	0	206.350	0	139.8	4	45.6	4	-1E+10	1	-1E+10	1	-1E+10	1	-1E+10	1	-1E+10	1	-1E+10	1
4902551	88	C	01/19/2023	16:00	-131.315	47.928	0	209.10	0	5.4960	0	33.7360	0	26.618	0	207.242	0	139.3	4	45.4	4	-1E+10	1	-1E+10	1	-1E+10	1	-1E+10	1	-1E+10	1	-1E+10	1
4902551	88	C	01/19/2023	16:00	-131.315	47.928	0	210.00	0	5.4790	0	33.7400	0	26.623	0	208.133	0	138.8	4	45.3	4	-1E+10	1	-1E+10	1	-1E+10	1	-1E+10	1	-1E+10	1	-1E+10	1
4902551	88	C	01/19/2023	16:00	-131.315	47.928	0	210.90	0	5.4740	0	33.7370	0	26.621	0	209.025	0	138.4	4	45.1	4	-1E+10	1	-1E+10	1	-1E+10	1	-1E+10	1	-1E+10	1	-1E+10	1
4902551	88	C	01/19/2023	16:00	-131.315	47.928	0	211.90	0	5.4700	0	33.7390	0	26.623	0	210.015	0	137.9	4	44.9	4	-1E+10	1	-1E+10	1	-1E+10	1	-1E+10	1	-1E+10	1	-1E+10	1
4902551	88	C	01/19/2023	16:00	-131.315	47.928	0	212.80	0	5.4670	0	33.7390	0	26.623	0	210.907	0	137.4	4	44.8	4	-1E+10	1	-1E+10	1	-1E+10	1	-1E+10	1	-1E+10	1	-1E+10	1
4902551	88	C	01/19/2023	16:00	-131.315	47.928	0	213.80	0	5.4620	0	33.7390	0	26.624	0	211.898	0	136.8	4	44.6	4	-1E+10	1	-1E+10	1	-1E+10	1	-1E+10	1	-1E+10	1	-1E+10	1
4902551	88	C	01/19/2023	16:00	-131.315	47.928	0	214.70	0	5.4570	0	33.7400	0	26.625	0	212.789	0	136.2	4	44.4	4	-1E+10	1	-1E+10	1	-1E+10	1	-1E+10	1	-1E+10	1	-1E+10	1
4902551	88	C	01/19/2023	16:00	-131.315	47.928	0	215.60	0	5.4510	0	33.7400	0	26.626	0	213.681	0	135.7	4	44.2	4	-1E+10	1	-1E+10	1	-1E+10	1	-1E+10	1	-1E+10	1	-1E+10	1
4902551	88	C	01/19/2023	16:00	-131.315	47.928	0	216.60	0	5.4480	0	33.7400	0	26.627	0	214.671	0	134.9	4	43.9	4	-1E+10	1	-1E+10	1	-1E+10	1	-1E+10	1	-1E+10	1	-1E+10	1
4902551	88	C	01/19/2023	16:00	-131.315	47.928	0	217.60	0	5.4410	0	33.7410	0	26.628	0	215.662	0	134.2	4	43.7	4	-1E+10	1	-1E+10	1	-1E+10	1	-1E+10	1	-1E+10	1	-1E+10	1
4902551	88	C	01/19/2023	16:00	-131.315	47.928	0	218.50	0	5.4380	0	33.7400	0	26.628	0	216.553	0	133.5	4	43.5	4	-1E+10	1	-1E+10	1	-1E+10	1	-1E+10	1	-1E+10	1	-1E+10	1
4902551	88	C	01/19/2023	16:00	-131.315	47.928	0	219.90	0	5.4290	0	33.7430	0	26.631	0	217.940	0	132.3	4	43.1	4	-1E+10	1	-1E+10	1	-1E+10	1	-1E+10	1	-1E+10	1	-1E+10	1
4902551	88	C	01/19/2023	16:00	-131.315	47.928	0	221.40	0	5.3950	0	33.7490	0	26.640	0	219.426	0	131.4	4	42.7	4	-1E+10	1	-1E+10	1	-1E+10	1	-1E+10	1	-1E+10	1	-1E+10	1
4902551	88	C	01/19/2023	16:00	-131.315	47.928	0	222.40	0	5.3810	0	33.7450	0	26.638	0	220.416	0	130.8	4	42.5	4	-1E+10	1	-1E+10	1	-1E+10	1	-1E+10	1	-1E+10	1	-1E+10	1
4902551	88	C	01/19/2023	16:00	-131.315	47.928	0	223.30	0	5.3790	0	33.7460	0	26.639	0	221.308	0	130.1	4	42.3	4	-1E+10	1	-1E+10	1	-1E+10	1	-1E+10	1	-1E+10	1	-1E+10	1
4902551	88	C	01/19/2023	16:00	-131.315	47.928	0	224.30	0	5.3740	0	33.7470	0	26.641	0	222.299	0	129.5	4	42.1	4	-1E+10	1	-1E+10	1	-1E+10	1	-1E+10	1	-1E+10	1	-1E+10	1
4902551	88	C	01/19/2023	16:00	-131.315	47.928	0	225.30	0	5.3730	0	33.7480	0	26.642	0	223.289	0	128.8	4	41.9	4	-1E+10	1	-1E+10	1	-1E+10	1	-1E+10	1	-1E+10	1	-1E+10	1
4902551	88	C	01/19/2023	16:00	-131.315	47.928	0	226.20	0	5.3700	0	33.7490	0	26.643	0	224.181	0	128.1	4	41.6	4	-1E+10	1	-1E+10	1	-1E+10	1	-1E+10	1	-1E+10	1	-1E+10	1
4902551	88	C	01/19/2023	16:00	-131.315	47.928	0	227.20	0	5.3630	0	33.7490	0	26.644	0	225.171	0	127.4	4	41.4	4	-1E+10	1	-1E+10	1	-1E+10	1	-1E+10	1	-1E+10	1	-1E+10	1
4902551	88	C	01/19/2023	16:00	-131.315	47.928	0	228.10	0	5.3580	0	33.7520	0	26.647	0	226.063	0	126.6	4	41.1	4	-1E+10	1	-1E+10	1	-1E+10	1	-1E+10	1	-1E+10	1	-1E+10	1
4902551	88	C	01/19/2023	16:00	-131.315	47.928	0	229.10	0	5.3360	0	33.7580	0	26.654	0	227.053	0	125.9	4	40.9	4	-1E+10	1	-1E+10	1	-1E+10	1	-1E+10	1	-1E+10	1	-1E+10	1
4902551	88	C	01/19/2023	16:00	-131.315	47.928	0	230.10	0	5.3030	0	33.7530	0	26.654	0	228.044	0	125.3	4	40.7	4	-1E+10	1	-1E+10	1	-1E+10	1	-1E+10	1	-1E+10	1	-1E+10	1
4902551	88	C	01/19/2023	16:00	-131.315	47.928	0	231.00	0	5.2900	0	33.7520	0	26.655	0	228.935	0	124.6	4	40.4	4	-1E+10	1	-1E+10	1	-1E+10	1	-1E+10	1	-1E+10	1	-1E+10	1
4902551	88	C	01/19/2023	16:00	-131.315	47.928	0	232.00	0	5.2920	0	33.7560	0	26.658	0	229.926	0	124.0	4	40.2	4	-1E+10	1	-1E+10	1	-1E+10	1	-1E+10	1	-1E+10	1	-1E+10	1
4902551	88	C	01/19/2023	16:00	-131.315	47.928	0	233.00	0	5.2870	0	33.7570	0	26.659	0	230.916	0	123.4	4	40.0	4	-1E+10	1	-1E+10	1	-1E+10	1	-1E+10	1	-1E+10	1	-1E+10	1
4902551	88	C	01/19/2023	16:00	-131.315	47.928	0	233.90	0	5.2850	0	33.7570	0	26.659	0	231.807	0	122.8	4	39.8	4	-1E+10	1	-1E+10	1	-1E+10	1	-1E+10	1	-1E+10	1	-1E+10	1
4902551	88	C	01/19/2023	16:00	-131.315	47.928	0	234.90	0	5.2820	0	33.7570	0	26.660	0	232.798	0	122.1	4	39.6	4	-1E+10	1	-1E+10	1	-1E+10	1	-1E+10	1	-1E+10	1	-1E+10	1
4902551	88	C	01/19/2023	16:00	-131.315	47.928	0	235.90	0	5.2700	0	33.7630	0	26.666	0	233.788	0	121.4	4	39.4	4	-1E+10	1	-1E+10	1	-1E+10	1	-1E+10	1	-1E+10	1	-1E+10	1
4902551	88	C	01/19/2023	16:00	-131.315	47.928	0	236.80	0	5.2420	0	33.7600	0	26.667	0	234.680	0	120.9	4	39.2	4	-1E+10	1	-1E+10	1	-1E+10	1	-1E+10	1	-1E+10	1	-1E+10	1
4902551	88	C	01/19/2023	16:00	-131.315	47.928	0	237.80	0	5.2240	0	33.7660	0	26.674	0	235.670	0	120.3	4	39.0	4	-1E+10	1	-1E+10	1	-1E+10	1	-1E+10	1	-1E+10	1	-1E+10	1
4902551	88	C	01/19/2023	16:00	-131.315	47.928	0	238.70	0	5.2020	0	33.7630	0	26.674	0	236.562	0	119.8	4	38.8	4	-1E+10	1	-1E+10	1	-1E+10	1	-1E+10	1	-1E+10	1	-1E+10	1
4902551	88	C	01/19/2023	16:00	-131.315	47.928	0	239.70	0	5.1930	0	33.7620	0	26.674	0	237.552	0	119.2	4	38.6	4	-1E+10	1	-1E+10	1	-1E+10	1	-1E+10	1	-1E+10	1	-1E+10	1
4902551	88	C	01/19/2023	16:00	-131.315	47.928	0	240.60	0	5.1820	0	33.7650	0	26.678	0	238.444	0	118.4	4	38.3	4	-1E+10	1	-1E+10	1	-1E+10	1	-1E+10	1	-1E+10	1	-1E+10	1
4902551	88	C	01/19/2023	16:00	-131.315	47.928	0	241.60	0	5.1640	0	33.7630	0	26.678	0	239.434	0	117.6	4	38.0	4	-1E+10	1	-1E+10	1	-1E+10	1	-1E+10	1	-1E+10	1	-1E+10	1
4902551	88	C	01/19/2023	16:00	-131.315	47.928	0	242.60	0	5.1420	0	33.7680	0	26.685	0	240.425	0	116.8	4	37.8	4	-1E+10	1	-1E+10	1	-1E+10	1	-1E+10	1	-1E+10	1	-1E+10	1
4902551	88	C	01/19/2023	16:00	-131.315	47.928	0	243.60	0	5.1210	0	33.7620	0	26.682	0	241.415	0	116.0	4	37.5	4	-1E+10	1	-1E+10	1	-1E+10	1	-1E+10	1	-1E+10	1	-1E+10	1
4902551	88	C	01/19/2023	16:00	-131.315	47.928	0	244.60	0	5.1140	0	33.7640	0	26.685	0	242.405	0	115.3	4	37.3	4	-1E+10	1	-1E+10	1	-1E+10	1	-1E+10	1	-1E+10	1	-1E+10	1
4902551	88	C	01/19/2023	16:00	-131.315	47.928	0	245.60	0	5.1050	0	33.7640	0	26.686	0	243.396	0	114.6	4	37.0	4	-1E+10	1	-1E+10	1	-1E+10	1	-1E+10	1	-1E+10	1	-1E+10	1
4902551	88	C	01/19/2023	16:00	-131.315	47.928	0	246.50	0	5.0930	0	33.7640	0	26.687	0	244.287	0	113.9	4	36.8	4	-1E+10	1	-1E+10	1	-1E+10	1	-1E+10	1	-1E+10	1	-1E+10	1
4902551	88	C	01/19/2023	16:00	-131.315	47.928	0	247.50	0	5.0880	0	33.7640	0	26.688	0	245.278	0	113.1	4	36.5	4	-1E+10	1	-1E+10	1	-1E+10	1	-1E+10	1	-1E+10	1	-1E+10	1
4902551	88	C	01/19/2023	16:00	-131.315	47.928	0	248.90	0	5.0570	0	33.7680	0	26.694	0	246.664	0	112.0	4	36.1	4	-1E+10	1	-1E+10	1	-1E+10	1	-1E+10	1	-1E+10	1	-1E+10	1
4902551	88	C	01/19/2023	16:00	-131.315	47.928	0	250.40	0	5.0380	0	33.7680	0	26.697	0	248.150	0	110.9	4	35.8	4	-1E+10	1	-1E+10	1	-1E+10	1	-1E+10	1	-1E+10	1	-1E+10	1
4902551	88	C	01/19/2023	16:00	-131.315	47.928	0	251.30	0	5.0340	0	33.7690	0	26.698	0	249.041	0	110.1	4	35.5	4	-1E+10	1	-1E+10	1	-1E+10	1	-1E+10	1	-1E+10	1	-1E+10	1
4902551	88	C	01/19/2023	16:00	-131.315	47.928	0	252.30	0	5.0220	0	33.7730	0	26.702	0	250.032	0	109.2	4	35.2	4	-1E+10	1	-1E+10	1	-1E+10	1	-1E+10	1	-1E+10	1	-1E+10	1
4902551	88	C	01/19/2023	16:00	-131.315	47.928	0	253.30	0	4.9970	0	33.7760	0	26.708	0	251.022	0	108.4	4	35.0	4	-1E+10	1	-1E+10	1	-1E+10	1	-1E+10	1	-1E+10	1	-1E+10	1
4902551	88	C	01/19/2023	16:00	-131.315	47.928	0	254.30	0	4.9850	0	33.7750	0	26.708	0	252.013	0	107.7	4	34.7	4	-1E+10	1	-1E+10	1	-1E+10	1	-1E+10	1	-1E+10	1	-1E+10	1
4902551	88	C	01/19/2023	16:00	-131.315	47.928	0	255.30	0	4.9730	0	33.7750	0	26.709	0	253.003	0	107.1	4	34.5	4	-1E+10	1	-1E+10	1	-1E+10	1	-1E+10	1	-1E+10	1	-1E+10	1
4902551	88	C	01/19/2023	16:00	-131.315	47.928	0	256.30	0	4.9660	0	33.7800	0	26.714	0	253.993	0	106.4	4	34.3	4	-1E+10	1	-1E+10	1	-1E+10	1	-1E+10	1	-1E+10	1	-1E+10	1
4902551	88	C	01/19/2023	16:00	-131.315	47.928	0	257.20	0	4.9480	0	33.7770	0	26.714	0	254.885	0	105.8	4	34.1	4	-1E+10	1	-1E+10	1	-1E+10	1	-1E+10	1	-1E+10	1	-1E+10	1
4902551	88	C	01/19/2023	16:00	-131.315	47.928	0	258.20	0	4.9370	0	33.7790	0	26.717	0	255.875	0	105.0	4	33.8	4	-1E+10	1	-1E+10	1	-1E+10	1	-1E+10	1	-1E+10	1	-1E+10	1
4902551	88	C	01/19/2023	16:00	-131.315	47.928	0	259.20	0	4.9140	0	33.7790	0	26.719	0	256.865	0	104.3	4	33.6	4	-1E+10	1	-1E+10	1	-1E+10	1	-1E+10	1	-1E+10	1	-1E+10	1
4902551	88	C	01/19/2023	16:00	-131.315	47.928	0	260.10	0	4.9110	0	33.7790	0	26.720	0	257.757	0	103.6	4	33.3	4	-1E+10	1	-1E+10	1	-1E+10	1	-1E+10	1	-1E+10	1	-1E+10	1
4902551	88	C	01/19/2023	16:00	-131.315	47.928	0	261.10	0	4.9070	0	33.7790	0	26.720	0	258.747	0	102.7	4	33.0	4	-1E+10	1	-1E+10	1	-1E+10	1	-1E+10	1	-1E+10	1	-1E+10	1
4902551	88	C	01/19/2023	16:00	-131.315	47.928	0	262.10	0	4.8910	0	33.7860	0	26.727	0	259.737	0	101.9	4	32.8	4	-1E+10	1	-1E+10	1	-1E+10	1	-1E+10	1	-1E+10	1	-1E+10	1
4902551	88	C	01/19/2023	16:00	-131.315	47.928	0	263.00	0	4.8750	0	33.7840	0	26.728	0	260.629	0	101.2	4	32.5	4	-1E+10	1	-1E+10	1	-1E+10	1	-1E+10	1	-1E+10	1	-1E+10	1
4902551	88	C	01/19/2023	16:00	-131.315	47.928	0	264.00	0	4.8640	0	33.7870	0	26.731	0	261.619	0	100.5	4	32.3	4	-1E+10	1	-1E+10	1	-1E+10	1	-1E+10	1	-1E+10	1	-1E+10	1
4902551	88	C	01/19/2023	16:00	-131.315	47.928	0	265.00	0	4.8600	0	33.7870	0	26.732	0	262.610	0	99.9	4	32.1	4	-1E+10	1	-1E+10	1	-1E+10	1	-1E+10	1	-1E+10	1	-1E+10	1
4902551	88	C	01/19/2023	16:00	-131.315	47.928	0	266.00	0	4.8560	0	33.7890	0	26.734	0	263.600	0	99.1	4	31.9	4	-1E+10	1	-1E+10	1	-1E+10	1	-1E+10	1	-1E+10	1	-1E+10	1
4902551	88	C	01/19/2023	16:00	-131.315	47.928	0	266.90	0	4.8510	0	33.7890	0	26.734	0	264.491	0	98.5	4	31.6	4	-1E+10	1	-1E+10	1	-1E+10	1	-1E+10	1	-1E+10	1	-1E+10	1
4902551	88	C	01/19/2023	16:00	-131.315	47.928	0	267.90	0	4.8420	0	33.7900	0	26.736	0	265.481	0	97.7	4	31.4	4	-1E+10	1	-1E+10	1	-1E+10	1	-1E+10	1	-1E+10	1	-1E+10	1
4902551	88	C	01/19/2023	16:00	-131.315	47.928	0	268.80	0	4.8220	0	33.7930	0	26.741	0	266.373	0	97.1	4	31.2	4	-1E+10	1	-1E+10	1	-1E+10	1	-1E+10	1	-1E+10	1	-1E+10	1
4902551	88	C	01/19/2023	16:00	-131.315	47.928	0	269.80	0	4.8150	0	33.7940	0	26.742	0	267.363	0	96.5	4	31.0	4	-1E+10	1	-1E+10	1	-1E+10	1	-1E+10	1	-1E+10	1	-1E+10	1
4902551	88	C	01/19/2023	16:00	-131.315	47.928	0	270.80	0	4.8050	0	33.7980	0	26.747	0	268.353	0	95.8	4	30.8	4	-1E+10	1	-1E+10	1	-1E+10	1	-1E+10	1	-1E+10	1	-1E+10	1
4902551	88	C	01/19/2023	16:00	-131.315	47.928	0	271.70	0	4.7980	0	33.7970	0	26.747	0	269.245	0	95.2	4	30.6	4	-1E+10	1	-1E+10	1	-1E+10	1	-1E+10	1	-1E+10	1	-1E+10	1
4902551	88	C	01/19/2023	16:00	-131.315	47.928	0	272.70	0	4.7920	0	33.7990	0	26.749	0	270.235	0	94.6	4	30.4	4	-1E+10	1	-1E+10	1	-1E+10	1	-1E+10	1	-1E+10	1	-1E+10	1
4902551	88	C	01/19/2023	16:00	-131.315	47.928	0	273.60	0	4.7800	0	33.8010	0	26.752	0	271.126	0	94.0	4	30.2	4	-1E+10	1	-1E+10	1	-1E+10	1	-1E+10	1	-1E+10	1	-1E+10	1
4902551	88	C	01/19/2023	16:00	-131.315	47.928	0	274.60	0	4.7760	0	33.8000	0	26.751	0	272.117	0	93.4	4	29.9	4	-1E+10	1	-1E+10	1	-1E+10	1	-1E+10	1	-1E+10	1	-1E+10	1
4902551	88	C	01/19/2023	16:00	-131.315	47.928	0	275.90	0	4.7680	0	33.8020	0	26.754	0	273.404	0	92.3	4	29.6	4	-1E+10	1	-1E+10	1	-1E+10	1	-1E+10	1	-1E+10	1	-1E+10	1
4902551	88	C	01/19/2023	16:00	-131.315	47.928	0	277.40	0	4.7490	0	33.8060	0	26.759	0	274.889	0	91.3	4	29.3	4	-1E+10	1	-1E+10	1	-1E+10	1	-1E+10	1	-1E+10	1	-1E+10	1
4902551	88	C	01/19/2023	16:00	-131.315	47.928	0	278.30	0	4.7440	0	33.8070	0	26.761	0	275.781	0	90.7	4	29.1	4	-1E+10	1	-1E+10	1	-1E+10	1	-1E+10	1	-1E+10	1	-1E+10	1
4902551	88	C	01/19/2023	16:00	-131.315	47.928	0	279.20	0	4.7430	0	33.8070	0	26.761	0	276.672	0	90.0	4	28.8	4	-1E+10	1	-1E+10	1	-1E+10	1	-1E+10	1	-1E+10	1	-1E+10	1
4902551	88	C	01/19/2023	16:00	-131.315	47.928	0	280.20	0	4.7360	0	33.8090	0	26.763	0	277.662	0	89.3	4	28.6	4	-1E+10	1	-1E+10	1	-1E+10	1	-1E+10	1	-1E+10	1	-1E+10	1
4902551	88	C	01/19/2023	16:00	-131.315	47.928	0	281.10	0	4.7260	0	33.8130	0	26.767	0	278.553	0	88.6	4	28.4	4	-1E+10	1	-1E+10	1	-1E+10	1	-1E+10	1	-1E+10	1	-1E+10	1
4902551	88	C	01/19/2023	16:00	-131.315	47.928	0	282.00	0	4.7090	0	33.8170	0	26.772	0	279.445	0	88.1	4	28.2	4	-1E+10	1	-1E+10	1	-1E+10	1	-1E+10	1	-1E+10	1	-1E+10	1
4902551	88	C	01/19/2023	16:00	-131.315	47.928	0	283.00	0	4.7030	0	33.8170	0	26.773	0	280.435	0	87.6	4	28.1	4	-1E+10	1	-1E+10	1	-1E+10	1	-1E+10	1	-1E+10	1	-1E+10	1
4902551	88	C	01/19/2023	16:00	-131.315	47.928	0	283.90	0	4.6970	0	33.8170	0	26.774	0	281.326	0	87.1	4	27.9	4	-1E+10	1	-1E+10	1	-1E+10	1	-1E+10	1	-1E+10	1	-1E+10	1
4902551	88	C	01/19/2023	16:00	-131.315	47.928	0	284.80	0	4.6940	0	33.8190	0	26.776	0	282.217	0	86.6	4	27.7	4	-1E+10	1	-1E+10	1	-1E+10	1	-1E+10	1	-1E+10	1	-1E+10	1
4902551	88	C	01/19/2023	16:00	-131.315	47.928	0	285.80	0	4.6910	0	33.8200	0	26.777	0	283.208	0	86.1	4	27.5	4	-1E+10	1	-1E+10	1	-1E+10	1	-1E+10	1	-1E+10	1	-1E+10	1
4902551	88	C	01/19/2023	16:00	-131.315	47.928	0	286.70	0	4.6890	0	33.8220	0	26.779	0	284.099	0	85.5	4	27.4	4	-1E+10	1	-1E+10	1	-1E+10	1	-1E+10	1	-1E+10	1	-1E+10	1
4902551	88	C	01/19/2023	16:00	-131.315	47.928	0	287.60	0	4.6740	0	33.8240	0	26.782	0	284.990	0	85.0	4	27.2	4	-1E+10	1	-1E+10	1	-1E+10	1	-1E+10	1	-1E+10	1	-1E+10	1
4902551	88	C	01/19/2023	16:00	-131.315	47.928	0	288.60	0	4.6740	0	33.8240	0	26.782	0	285.980	0	84.4	4	27.0	4	-1E+10	1	-1E+10	1	-1E+10	1	-1E+10	1	-1E+10	1	-1E+10	1
4902551	88	C	01/19/2023	16:00	-131.315	47.928	0	289.90	0	4.6700	0	33.8280	0	26.785	0	287.268	0	83.6	4	26.8	4	-1E+10	1	-1E+10	1	-1E+10	1	-1E+10	1	-1E+10	1	-1E+10	1
4902551	88	C	01/19/2023	16:00	-131.315	47.928	0	291.40	0	4.6660	0	33.8320	0	26.789	0	288.753	0	82.9	4	26.5	4	-1E+10	1	-1E+10	1	-1E+10	1	-1E+10	1	-1E+10	1	-1E+10	1
4902551	88	C	01/19/2023	16:00	-131.315	47.928	0	292.30	0	4.6660	0	33.8330	0	26.790	0	289.644	0	82.4	4	26.4	4	-1E+10	1	-1E+10	1	-1E+10	1	-1E+10	1	-1E+10	1	-1E+10	1
4902551	88	C	01/19/2023	16:00	-131.315	47.928	0	293.20	0	4.6710	0	33.8340	0	26.790	0	290.535	0	81.9	4	26.2	4	-1E+10	1	-1E+10	1	-1E+10	1	-1E+10	1	-1E+10	1	-1E+10	1
4902551	88	C	01/19/2023	16:00	-131.315	47.928	0	294.20	0	4.6580	0	33.8370	0	26.794	0	291.526	0	81.4	4	26.0	4	-1E+10	1	-1E+10	1	-1E+10	1	-1E+10	1	-1E+10	1	-1E+10	1
4902551	88	C	01/19/2023	16:00	-131.315	47.928	0	295.10	0	4.6580	0	33.8380	0	26.795	0	292.417	0	80.9	4	25.9	4	-1E+10	1	-1E+10	1	-1E+10	1	-1E+10	1	-1E+10	1	-1E+10	1
4902551	88	C	01/19/2023	16:00	-131.315	47.928	0	296.10	0	4.6570	0	33.8450	0	26.800	0	293.407	0	80.5	4	25.8	4	-1E+10	1	-1E+10	1	-1E+10	1	-1E+10	1	-1E+10	1	-1E+10	1
4902551	88	C	01/19/2023	16:00	-131.315	47.928	0	297.00	0	4.6470	0	33.8450	0	26.802	0	294.298	0	80.1	4	25.6	4	-1E+10	1	-1E+10	1	-1E+10	1	-1E+10	1	-1E+10	1	-1E+10	1
4902551	88	C	01/19/2023	16:00	-131.315	47.928	0	298.00	0	4.6400	0	33.8450	0	26.802	0	295.288	0	79.7	4	25.5	4	-1E+10	1	-1E+10	1	-1E+10	1	-1E+10	1	-1E+10	1	-1E+10	1
4902551	88	C	01/19/2023	16:00	-131.315	47.928	0	298.90	0	4.6250	0	33.8450	0	26.804	0	296.179	0	79.3	4	25.4	4	-1E+10	1	-1E+10	1	-1E+10	1	-1E+10	1	-1E+10	1	-1E+10	1
4902551	88	C	01/19/2023	16:00	-131.315	47.928	0	299.90	0	4.6170	0	33.8450	0	26.805	0	297.170	0	78.9	4	25.2	4	-1E+10	1	-1E+10	1	-1E+10	1	-1E+10	1	-1E+10	1	-1E+10	1
4902551	88	C	01/19/2023	16:00	-131.315	47.928	0	300.90	0	4.6130	0	33.8440	0	26.804	0	298.160	0	78.5	4	25.1	4	-1E+10	1	-1E+10	1	-1E+10	1	-1E+10	1	-1E+10	1	-1E+10	1
4902551	88	C	01/19/2023	16:00	-131.315	47.928	0	301.80	0	4.6070	0	33.8490	0	26.809	0	299.051	0	78.1	4	25.0	4	-1E+10	1	-1E+10	1	-1E+10	1	-1E+10	1	-1E+10	1	-1E+10	1
4902551	88	C	01/19/2023	16:00	-131.315	47.928	0	302.80	0	4.5990	0	33.8490	0	26.810	0	300.041	0	77.8	4	24.9	4	-1E+10	1	-1E+10	1	-1E+10	1	-1E+10	1	-1E+10	1	-1E+10	1
4902551	88	C	01/19/2023	16:00	-131.315	47.928	0	303.80	0	4.5900	0	33.8520	0	26.813	0	301.031	0	77.5	4	24.8	4	-1E+10	1	-1E+10	1	-1E+10	1	-1E+10	1	-1E+10	1	-1E+10	1
4902551	88	C	01/19/2023	16:00	-131.315	47.928	0	304.70	0	4.5820	0	33.8510	0	26.813	0	301.922	0	77.3	4	24.7	4	-1E+10	1	-1E+10	1	-1E+10	1	-1E+10	1	-1E+10	1	-1E+10	1
4902551	88	C	01/19/2023	16:00	-131.315	47.928	0	305.70	0	4.5850	0	33.8520	0	26.814	0	302.913	0	76.9	4	24.6	4	-1E+10	1	-1E+10	1	-1E+10	1	-1E+10	1	-1E+10	1	-1E+10	1
4902551	88	C	01/19/2023	16:00	-131.315	47.928	0	306.70	0	4.5840	0	33.8530	0	26.815	0	303.903	0	76.6	4	24.5	4	-1E+10	1	-1E+10	1	-1E+10	1	-1E+10	1	-1E+10	1	-1E+10	1
4902551	88	C	01/19/2023	16:00	-131.315	47.928	0	307.70	0	4.5840	0	33.8550	0	26.816	0	304.893	0	76.3	4	24.4	4	-1E+10	1	-1E+10	1	-1E+10	1	-1E+10	1	-1E+10	1	-1E+10	1
4902551	88	C	01/19/2023	16:00	-131.315	47.928	0	308.70	0	4.5790	0	33.8560	0	26.818	0	305.883	0	76.0	4	24.3	4	-1E+10	1	-1E+10	1	-1E+10	1	-1E+10	1	-1E+10	1	-1E+10	1
4902551	88	C	01/19/2023	16:00	-131.315	47.928	0	309.70	0	4.5690	0	33.8580	0	26.820	0	306.873	0	75.7	4	24.2	4	-1E+10	1	-1E+10	1	-1E+10	1	-1E+10	1	-1E+10	1	-1E+10	1
4902551	88	C	01/19/2023	16:00	-131.315	47.928	0	310.70	0	4.5550	0	33.8600	0	26.824	0	307.863	0	75.5	4	24.1	4	-1E+10	1	-1E+10	1	-1E+10	1	-1E+10	1	-1E+10	1	-1E+10	1
4902551	88	C	01/19/2023	16:00	-131.315	47.928	0	311.70	0	4.5510	0	33.8610	0	26.825	0	308.853	0	75.3	4	24.0	4	-1E+10	1	-1E+10	1	-1E+10	1	-1E+10	1	-1E+10	1	-1E+10	1
4902551	88	C	01/19/2023	16:00	-131.315	47.928	0	312.70	0	4.5510	0	33.8610	0	26.825	0	309.844	0	75.1	4	24.0	4	-1E+10	1	-1E+10	1	-1E+10	1	-1E+10	1	-1E+10	1	-1E+10	1
4902551	88	C	01/19/2023	16:00	-131.315	47.928	0	313.70	0	4.5510	0	33.8620	0	26.826	0	310.834	0	75.0	4	23.9	4	-1E+10	1	-1E+10	1	-1E+10	1	-1E+10	1	-1E+10	1	-1E+10	1
4902551	88	C	01/19/2023	16:00	-131.315	47.928	0	314.80	0	4.5510	0	33.8610	0	26.825	0	311.923	0	74.7	4	23.9	4	-1E+10	1	-1E+10	1	-1E+10	1	-1E+10	1	-1E+10	1	-1E+10	1
4902551	88	C	01/19/2023	16:00	-131.315	47.928	0	315.80	0	4.5510	0	33.8630	0	26.826	0	312.913	0	74.5	4	23.8	4	-1E+10	1	-1E+10	1	-1E+10	1	-1E+10	1	-1E+10	1	-1E+10	1
4902551	88	C	01/19/2023	16:00	-131.315	47.928	0	316.80	0	4.5510	0	33.8640	0	26.827	0	313.903	0	74.3	4	23.7	4	-1E+10	1	-1E+10	1	-1E+10	1	-1E+10	1	-1E+10	1	-1E+10	1
4902551	88	C	01/19/2023	16:00	-131.315	47.928	0	317.80	0	4.5510	0	33.8650	0	26.828	0	314.893	0	74.1	4	23.6	4	-1E+10	1	-1E+10	1	-1E+10	1	-1E+10	1	-1E+10	1	-1E+10	1
4902551	88	C	01/19/2023	16:00	-131.315	47.928	0	318.90	0	4.5510	0	33.8660	0	26.829	0	315.982	0	73.9	4	23.6	4	-1E+10	1	-1E+10	1	-1E+10	1	-1E+10	1	-1E+10	1	-1E+10	1
4902551	88	C	01/19/2023	16:00	-131.315	47.928	0	319.90	0	4.5480	0	33.8660	0	26.829	0	316.972	0	73.7	4	23.5	4	-1E+10	1	-1E+10	1	-1E+10	1	-1E+10	1	-1E+10	1	-1E+10	1
4902551	88	C	01/19/2023	16:00	-131.315	47.928	0	320.90	0	4.5740	0	33.8550	0	26.818	0	317.962	0	73.4	4	23.4	4	-1E+10	1	-1E+10	1	-1E+10	1	-1E+10	1	-1E+10	1	-1E+10	1
4902551	88	C	01/19/2023	16:00	-131.315	47.928	0	322.00	0	4.5940	0	33.8740	0	26.831	0	319.051	0	73.0	4	23.3	4	-1E+10	1	-1E+10	1	-1E+10	1	-1E+10	1	-1E+10	1	-1E+10	1
4902551	88	C	01/19/2023	16:00	-131.315	47.928	0	323.00	0	4.5890	0	33.8770	0	26.833	0	320.041	0	72.8	4	23.2	4	-1E+10	1	-1E+10	1	-1E+10	1	-1E+10	1	-1E+10	1	-1E+10	1
4902551	88	C	01/19/2023	16:00	-131.315	47.928	0	324.00	0	4.5830	0	33.8770	0	26.834	0	321.032	0	72.5	4	23.2	4	-1E+10	1	-1E+10	1	-1E+10	1	-1E+10	1	-1E+10	1	-1E+10	1
4902551	88	C	01/19/2023	16:00	-131.315	47.928	0	325.10	0	4.5730	0	33.8770	0	26.835	0	322.121	0	72.2	4	23.1	4	-1E+10	1	-1E+10	1	-1E+10	1	-1E+10	1	-1E+10	1	-1E+10	1
4902551	88	C	01/19/2023	16:00	-131.315	47.928	0	326.10	0	4.5700	0	33.8770	0	26.836	0	323.111	0	71.9	4	23.0	4	-1E+10	1	-1E+10	1	-1E+10	1	-1E+10	1	-1E+10	1	-1E+10	1
4902551	88	C	01/19/2023	16:00	-131.315	47.928	0	327.10	0	4.5700	0	33.8770	0	26.836	0	324.101	0	71.5	4	22.8	4	-1E+10	1	-1E+10	1	-1E+10	1	-1E+10	1	-1E+10	1	-1E+10	1
4902551	88	C	01/19/2023	16:00	-131.315	47.928	0	328.10	0	4.5700	0	33.8790	0	26.837	0	325.091	0	71.2	4	22.7	4	-1E+10	1	-1E+10	1	-1E+10	1	-1E+10	1	-1E+10	1	-1E+10	1
4902551	88	C	01/19/2023	16:00	-131.315	47.928	0	329.20	0	4.5370	0	33.8780	0	26.840	0	326.180	0	70.8	4	22.6	4	-1E+10	1	-1E+10	1	-1E+10	1	-1E+10	1	-1E+10	1	-1E+10	1
4902551	88	C	01/19/2023	16:00	-131.315	47.928	0	330.20	0	4.5340	0	33.8740	0	26.837	0	327.170	0	70.5	4	22.5	4	-1E+10	1	-1E+10	1	-1E+10	1	-1E+10	1	-1E+10	1	-1E+10	1
4902551	88	C	01/19/2023	16:00	-131.315	47.928	0	331.20	0	4.5210	0	33.8770	0	26.841	0	328.160	0	70.1	4	22.4	4	-1E+10	1	-1E+10	1	-1E+10	1	-1E+10	1	-1E+10	1	-1E+10	1
4902551	88	C	01/19/2023	16:00	-131.315	47.928	0	332.30	0	4.5190	0	33.8760	0	26.840	0	329.249	0	69.7	4	22.2	4	-1E+10	1	-1E+10	1	-1E+10	1	-1E+10	1	-1E+10	1	-1E+10	1
4902551	88	C	01/19/2023	16:00	-131.315	47.928	0	333.30	0	4.5080	0	33.8760	0	26.841	0	330.239	0	69.4	4	22.1	4	-1E+10	1	-1E+10	1	-1E+10	1	-1E+10	1	-1E+10	1	-1E+10	1
4902551	88	C	01/19/2023	16:00	-131.315	47.928	0	334.40	0	4.5070	0	33.8770	0	26.842	0	331.328	0	68.9	4	22.0	4	-1E+10	1	-1E+10	1	-1E+10	1	-1E+10	1	-1E+10	1	-1E+10	1
4902551	88	C	01/19/2023	16:00	-131.315	47.928	0	335.40	0	4.5030	0	33.8770	0	26.843	0	332.318	0	68.5	4	21.9	4	-1E+10	1	-1E+10	1	-1E+10	1	-1E+10	1	-1E+10	1	-1E+10	1
4902551	88	C	01/19/2023	16:00	-131.315	47.928	0	336.50	0	4.4940	0	33.8810	0	26.847	0	333.407	0	68.1	4	21.7	4	-1E+10	1	-1E+10	1	-1E+10	1	-1E+10	1	-1E+10	1	-1E+10	1
4902551	88	C	01/19/2023	16:00	-131.315	47.928	0	337.50	0	4.4900	0	33.8790	0	26.846	0	334.397	0	67.8	4	21.6	4	-1E+10	1	-1E+10	1	-1E+10	1	-1E+10	1	-1E+10	1	-1E+10	1
4902551	88	C	01/19/2023	16:00	-131.315	47.928	0	338.60	0	4.4660	0	33.8840	0	26.852	0	335.486	0	67.4	4	21.5	4	-1E+10	1	-1E+10	1	-1E+10	1	-1E+10	1	-1E+10	1	-1E+10	1
4902551	88	C	01/19/2023	16:00	-131.315	47.928	0	340.00	0	4.4610	0	33.8840	0	26.853	0	336.872	0	66.9	4	21.3	4	-1E+10	1	-1E+10	1	-1E+10	1	-1E+10	1	-1E+10	1	-1E+10	1
4902551	88	C	01/19/2023	16:00	-131.315	47.928	0	341.90	0	4.4740	0	33.8910	0	26.857	0	338.753	0	66.3	4	21.1	4	-1E+10	1	-1E+10	1	-1E+10	1	-1E+10	1	-1E+10	1	-1E+10	1
4902551	88	C	01/19/2023	16:00	-131.315	47.928	0	343.20	0	4.4740	0	33.8960	0	26.861	0	340.040	0	66.0	4	21.0	4	-1E+10	1	-1E+10	1	-1E+10	1	-1E+10	1	-1E+10	1	-1E+10	1
4902551	88	C	01/19/2023	16:00	-131.315	47.928	0	344.00	0	4.4690	0	33.8970	0	26.862	0	340.832	0	65.7	4	20.9	4	-1E+10	1	-1E+10	1	-1E+10	1	-1E+10	1	-1E+10	1	-1E+10	1
4902551	88	C	01/19/2023	16:00	-131.315	47.928	0	344.80	0	4.4650	0	33.8970	0	26.863	0	341.624	0	65.5	4	20.9	4	-1E+10	1	-1E+10	1	-1E+10	1	-1E+10	1	-1E+10	1	-1E+10	1
4902551	88	C	01/19/2023	16:00	-131.315	47.928	0	345.60	0	4.4590	0	33.8990	0	26.865	0	342.416	0	65.4	4	20.8	4	-1E+10	1	-1E+10	1	-1E+10	1	-1E+10	1	-1E+10	1	-1E+10	1
4902551	88	C	01/19/2023	16:00	-131.315	47.928	0	346.90	0	4.4510	0	33.8980	0	26.865	0	343.703	0	65.2	4	20.8	4	-1E+10	1	-1E+10	1	-1E+10	1	-1E+10	1	-1E+10	1	-1E+10	1
4902551	88	C	01/19/2023	16:00	-131.315	47.928	0	348.10	0	4.4480	0	33.8990	0	26.866	0	344.891	0	65.0	4	20.7	4	-1E+10	1	-1E+10	1	-1E+10	1	-1E+10	1	-1E+10	1	-1E+10	1
4902551	88	C	01/19/2023	16:00	-131.315	47.928	0	348.90	0	4.4460	0	33.8980	0	26.866	0	345.683	0	64.8	4	20.6	4	-1E+10	1	-1E+10	1	-1E+10	1	-1E+10	1	-1E+10	1	-1E+10	1
4902551	88	C	01/19/2023	16:00	-131.315	47.928	0	349.70	0	4.4460	0	33.8980	0	26.866	0	346.475	0	64.7	4	20.6	4	-1E+10	1	-1E+10	1	-1E+10	1	-1E+10	1	-1E+10	1	-1E+10	1
4902551	88	C	01/19/2023	16:00	-131.315	47.928	0	352.60	0	4.4480	0	33.9040	0	26.870	0	349.345	0	64.2	4	20.5	4	-1E+10	1	-1E+10	1	-1E+10	1	-1E+10	1	-1E+10	1	-1E+10	1
4902551	88	C	01/19/2023	16:00	-131.315	47.928	0	357.70	0	4.4490	0	33.9080	0	26.873	0	354.394	0	63.3	4	20.1	4	-1E+10	1	-1E+10	1	-1E+10	1	-1E+10	1	-1E+10	1	-1E+10	1
4902551	88	C	01/19/2023	16:00	-131.315	47.928	0	362.70	0	4.4430	0	33.9110	0	26.876	0	359.343	0	62.0	4	19.7	4	-1E+10	1	-1E+10	1	-1E+10	1	-1E+10	1	-1E+10	1	-1E+10	1
4902551	88	C	01/19/2023	16:00	-131.315	47.928	0	367.90	0	4.4120	0	33.9110	0	26.880	0	364.491	0	60.6	4	19.3	4	-1E+10	1	-1E+10	1	-1E+10	1	-1E+10	1	-1E+10	1	-1E+10	1
4902551	88	C	01/19/2023	16:00	-131.315	47.928	0	373.00	0	4.4000	0	33.9140	0	26.884	0	369.539	0	59.1	4	18.8	4	-1E+10	1	-1E+10	1	-1E+10	1	-1E+10	1	-1E+10	1	-1E+10	1
4902551	88	C	01/19/2023	16:00	-131.315	47.928	0	378.20	0	4.3840	0	33.9210	0	26.891	0	374.686	0	57.5	4	18.3	4	-1E+10	1	-1E+10	1	-1E+10	1	-1E+10	1	-1E+10	1	-1E+10	1
4902551	88	C	01/19/2023	16:00	-131.315	47.928	0	383.00	0	4.3710	0	33.9300	0	26.899	0	379.437	0	56.4	4	17.9	4	-1E+10	1	-1E+10	1	-1E+10	1	-1E+10	1	-1E+10	1	-1E+10	1
4902551	88	C	01/19/2023	16:00	-131.315	47.928	0	387.90	0	4.3670	0	33.9340	0	26.903	0	384.287	0	55.3	4	17.6	4	-1E+10	1	-1E+10	1	-1E+10	1	-1E+10	1	-1E+10	1	-1E+10	1
4902551	88	C	01/19/2023	16:00	-131.315	47.928	0	392.80	0	4.3600	0	33.9380	0	26.907	0	389.137	0	53.8	4	17.1	4	-1E+10	1	-1E+10	1	-1E+10	1	-1E+10	1	-1E+10	1	-1E+10	1
4902551	88	C	01/19/2023	16:00	-131.315	47.928	0	397.90	0	4.3470	0	33.9470	0	26.916	0	394.184	0	52.3	4	16.6	4	-1E+10	1	-1E+10	1	-1E+10	1	-1E+10	1	-1E+10	1	-1E+10	1
4902551	88	C	01/19/2023	16:00	-131.315	47.928	0	403.00	0	4.3300	0	33.9550	0	26.924	0	399.232	0	51.1	4	16.2	4	-1E+10	1	-1E+10	1	-1E+10	1	-1E+10	1	-1E+10	1	-1E+10	1
4902551	88	C	01/19/2023	16:00	-131.315	47.928	0	408.10	0	4.3210	0	33.9590	0	26.928	0	404.279	0	49.9	4	15.8	4	-1E+10	1	-1E+10	1	-1E+10	1	-1E+10	1	-1E+10	1	-1E+10	1
4902551	88	C	01/19/2023	16:00	-131.315	47.928	0	413.20	0	4.3100	0	33.9660	0	26.935	0	409.326	0	48.6	4	15.4	4	-1E+10	1	-1E+10	1	-1E+10	1	-1E+10	1	-1E+10	1	-1E+10	1
4902551	88	C	01/19/2023	16:00	-131.315	47.928	0	417.80	0	4.3030	0	33.9720	0	26.940	0	413.879	0	47.5	4	15.1	4	-1E+10	1	-1E+10	1	-1E+10	1	-1E+10	1	-1E+10	1	-1E+10	1
4902551	88	C	01/19/2023	16:00	-131.315	47.928	0	423.00	0	4.2860	0	33.9780	0	26.947	0	419.025	0	46.3	4	14.7	4	-1E+10	1	-1E+10	1	-1E+10	1	-1E+10	1	-1E+10	1	-1E+10	1
4902551	88	C	01/19/2023	16:00	-131.315	47.928	0	428.20	0	4.2700	0	33.9870	0	26.956	0	424.170	0	45.1	4	14.3	4	-1E+10	1	-1E+10	1	-1E+10	1	-1E+10	1	-1E+10	1	-1E+10	1
4902551	88	C	01/19/2023	16:00	-131.315	47.928	0	433.10	0	4.2590	0	33.9920	0	26.961	0	429.019	0	44.1	4	14.0	4	-1E+10	1	-1E+10	1	-1E+10	1	-1E+10	1	-1E+10	1	-1E+10	1
4902551	88	C	01/19/2023	16:00	-131.315	47.928	0	438.00	0	4.2510	0	33.9990	0	26.967	0	433.868	0	43.1	4	13.7	4	-1E+10	1	-1E+10	1	-1E+10	1	-1E+10	1	-1E+10	1	-1E+10	1
4902551	88	C	01/19/2023	16:00	-131.315	47.928	0	443.00	0	4.2380	0	34.0060	0	26.974	0	438.815	0	42.2	4	13.4	4	-1E+10	1	-1E+10	1	-1E+10	1	-1E+10	1	-1E+10	1	-1E+10	1
4902551	88	C	01/19/2023	16:00	-131.315	47.928	0	448.10	0	4.2260	0	34.0110	0	26.980	0	443.862	0	41.4	4	13.1	4	-1E+10	1	-1E+10	1	-1E+10	1	-1E+10	1	-1E+10	1	-1E+10	1
4902551	88	C	01/19/2023	16:00	-131.315	47.928	0	453.20	0	4.2140	0	34.0150	0	26.984	0	448.908	0	40.6	4	12.9	4	-1E+10	1	-1E+10	1	-1E+10	1	-1E+10	1	-1E+10	1	-1E+10	1
4902551	88	C	01/19/2023	16:00	-131.315	47.928	0	457.90	0	4.2060	0	34.0200	0	26.989	0	453.558	0	39.8	4	12.6	4	-1E+10	1	-1E+10	1	-1E+10	1	-1E+10	1	-1E+10	1	-1E+10	1
4902551	88	C	01/19/2023	16:00	-131.315	47.928	0	462.70	0	4.1970	0	34.0240	0	26.993	0	458.308	0	38.9	4	12.3	4	-1E+10	1	-1E+10	1	-1E+10	1	-1E+10	1	-1E+10	1	-1E+10	1
4902551	88	C	01/19/2023	16:00	-131.315	47.928	0	468.10	0	4.1850	0	34.0300	0	26.999	0	463.650	0	38.0	4	12.0	4	-1E+10	1	-1E+10	1	-1E+10	1	-1E+10	1	-1E+10	1	-1E+10	1
4902551	88	C	01/19/2023	16:00	-131.315	47.928	0	472.90	0	4.1730	0	34.0370	0	27.006	0	468.399	0	37.2	4	11.8	4	-1E+10	1	-1E+10	1	-1E+10	1	-1E+10	1	-1E+10	1	-1E+10	1
4902551	88	C	01/19/2023	16:00	-131.315	47.928	0	477.90	0	4.1610	0	34.0430	0	27.012	0	473.346	0	36.4	4	11.5	4	-1E+10	1	-1E+10	1	-1E+10	1	-1E+10	1	-1E+10	1	-1E+10	1
4902551	88	C	01/19/2023	16:00	-131.315	47.928	0	483.30	0	4.1530	0	34.0470	0	27.016	0	478.688	0	35.6	4	11.3	4	-1E+10	1	-1E+10	1	-1E+10	1	-1E+10	1	-1E+10	1	-1E+10	1
4902551	88	C	01/19/2023	16:00	-131.315	47.928	0	487.90	0	4.1450	0	34.0520	0	27.021	0	483.239	0	34.8	4	11.0	4	-1E+10	1	-1E+10	1	-1E+10	1	-1E+10	1	-1E+10	1	-1E+10	1
4902551	88	C	01/19/2023	16:00	-131.315	47.928	0	492.60	0	4.1350	0	34.0570	0	27.026	0	487.889	0	34.0	4	10.8	4	-1E+10	1	-1E+10	1	-1E+10	1	-1E+10	1	-1E+10	1	-1E+10	1
4902551	88	C	01/19/2023	16:00	-131.315	47.928	0	497.70	0	4.1200	0	34.0640	0	27.033	0	492.934	0	33.2	4	10.5	4	-1E+10	1	-1E+10	1	-1E+10	1	-1E+10	1	-1E+10	1	-1E+10	1
4902551	88	C	01/19/2023	16:00	-131.315	47.928	0	502.80	0	4.1120	0	34.0680	0	27.037	0	497.979	0	32.5	4	10.3	4	-1E+10	1	-1E+10	1	-1E+10	1	-1E+10	1	-1E+10	1	-1E+10	1
4902551	88	C	01/19/2023	16:00	-131.315	47.928	0	507.90	0	4.1000	0	34.0720	0	27.042	0	503.024	0	31.7	4	10.0	4	-1E+10	1	-1E+10	1	-1E+10	1	-1E+10	1	-1E+10	1	-1E+10	1
4902551	88	C	01/19/2023	16:00	-131.315	47.928	0	513.10	0	4.0920	0	34.0760	0	27.046	0	508.168	0	30.9	4	9.8	4	-1E+10	1	-1E+10	1	-1E+10	1	-1E+10	1	-1E+10	1	-1E+10	1
4902551	88	C	01/19/2023	16:00	-131.315	47.928	0	517.90	0	4.0740	0	34.0840	0	27.054	0	512.916	0	30.1	4	9.5	4	-1E+10	1	-1E+10	1	-1E+10	1	-1E+10	1	-1E+10	1	-1E+10	1
4902551	88	C	01/19/2023	16:00	-131.315	47.928	0	522.80	0	4.0630	0	34.0880	0	27.058	0	517.762	0	29.6	4	9.4	4	-1E+10	1	-1E+10	1	-1E+10	1	-1E+10	1	-1E+10	1	-1E+10	1
4902551	88	C	01/19/2023	16:00	-131.315	47.928	0	527.80	0	4.0530	0	34.0930	0	27.063	0	522.708	0	29.2	4	9.2	4	-1E+10	1	-1E+10	1	-1E+10	1	-1E+10	1	-1E+10	1	-1E+10	1
4902551	88	C	01/19/2023	16:00	-131.315	47.928	0	532.90	0	4.0500	0	34.0940	0	27.064	0	527.752	0	28.8	4	9.1	4	-1E+10	1	-1E+10	1	-1E+10	1	-1E+10	1	-1E+10	1	-1E+10	1
4902551	88	C	01/19/2023	16:00	-131.315	47.928	0	537.90	0	4.0430	0	34.0980	0	27.068	0	532.697	0	28.4	4	9.0	4	-1E+10	1	-1E+10	1	-1E+10	1	-1E+10	1	-1E+10	1	-1E+10	1
4902551	88	C	01/19/2023	16:00	-131.315	47.928	0	542.60	0	4.0380	0	34.1000	0	27.070	0	537.346	0	28.0	4	8.8	4	-1E+10	1	-1E+10	1	-1E+10	1	-1E+10	1	-1E+10	1	-1E+10	1
4902551	88	C	01/19/2023	16:00	-131.315	47.928	0	547.80	0	4.0330	0	34.1020	0	27.073	0	542.489	0	27.4	4	8.7	4	-1E+10	1	-1E+10	1	-1E+10	1	-1E+10	1	-1E+10	1	-1E+10	1
4902551	88	C	01/19/2023	16:00	-131.315	47.928	0	553.00	0	4.0170	0	34.1100	0	27.081	0	547.631	0	26.8	4	8.5	4	-1E+10	1	-1E+10	1	-1E+10	1	-1E+10	1	-1E+10	1	-1E+10	1
4902551	88	C	01/19/2023	16:00	-131.315	47.928	0	557.90	0	4.0080	0	34.1130	0	27.084	0	552.477	0	26.3	4	8.3	4	-1E+10	1	-1E+10	1	-1E+10	1	-1E+10	1	-1E+10	1	-1E+10	1
4902551	88	C	01/19/2023	16:00	-131.315	47.928	0	562.70	0	4.0000	0	34.1180	0	27.089	0	557.224	0	25.8	4	8.2	4	-1E+10	1	-1E+10	1	-1E+10	1	-1E+10	1	-1E+10	1	-1E+10	1
4902551	88	C	01/19/2023	16:00	-131.315	47.928	0	567.60	0	3.9940	0	34.1200	0	27.091	0	562.070	0	25.3	4	8.0	4	-1E+10	1	-1E+10	1	-1E+10	1	-1E+10	1	-1E+10	1	-1E+10	1
4902551	88	C	01/19/2023	16:00	-131.315	47.928	0	572.50	0	3.9740	0	34.1280	0	27.099	0	566.916	0	24.9	4	7.8	4	-1E+10	1	-1E+10	1	-1E+10	1	-1E+10	1	-1E+10	1	-1E+10	1
4902551	88	C	01/19/2023	16:00	-131.315	47.928	0	577.50	0	3.9600	0	34.1340	0	27.106	0	571.860	0	24.7	4	7.8	4	-1E+10	1	-1E+10	1	-1E+10	1	-1E+10	1	-1E+10	1	-1E+10	1
4902551	88	C	01/19/2023	16:00	-131.315	47.928	0	582.50	0	3.9520	0	34.1370	0	27.109	0	576.804	0	24.4	4	7.7	4	-1E+10	1	-1E+10	1	-1E+10	1	-1E+10	1	-1E+10	1	-1E+10	1
4902551	88	C	01/19/2023	16:00	-131.315	47.928	0	587.50	0	3.9460	0	34.1390	0	27.111	0	581.748	0	24.2	4	7.6	4	-1E+10	1	-1E+10	1	-1E+10	1	-1E+10	1	-1E+10	1	-1E+10	1
4902551	88	C	01/19/2023	16:00	-131.315	47.928	0	592.60	0	3.9410	0	34.1410	0	27.113	0	586.791	0	24.0	4	7.6	4	-1E+10	1	-1E+10	1	-1E+10	1	-1E+10	1	-1E+10	1	-1E+10	1
4902551	88	C	01/19/2023	16:00	-131.315	47.928	0	597.70	0	3.9330	0	34.1440	0	27.116	0	591.834	0	23.7	4	7.5	4	-1E+10	1	-1E+10	1	-1E+10	1	-1E+10	1	-1E+10	1	-1E+10	1
4902551	88	C	01/19/2023	16:00	-131.315	47.928	0	602.80	0	3.9200	0	34.1480	0	27.121	0	596.877	0	23.5	4	7.4	4	-1E+10	1	-1E+10	1	-1E+10	1	-1E+10	1	-1E+10	1	-1E+10	1
4902551	88	C	01/19/2023	16:00	-131.315	47.928	0	608.00	0	3.9160	0	34.1490	0	27.122	0	602.018	0	23.2	4	7.3	4	-1E+10	1	-1E+10	1	-1E+10	1	-1E+10	1	-1E+10	1	-1E+10	1
4902551	88	C	01/19/2023	16:00	-131.315	47.928	0	613.20	0	3.9040	0	34.1530	0	27.127	0	607.159	0	22.9	4	7.2	4	-1E+10	1	-1E+10	1	-1E+10	1	-1E+10	1	-1E+10	1	-1E+10	1
4902551	88	C	01/19/2023	16:00	-131.315	47.928	0	618.30	0	3.8900	0	34.1570	0	27.131	0	612.202	0	22.6	4	7.1	4	-1E+10	1	-1E+10	1	-1E+10	1	-1E+10	1	-1E+10	1	-1E+10	1
4902551	88	C	01/19/2023	16:00	-131.315	47.928	0	622.90	0	3.8820	0	34.1600	0	27.135	0	616.749	0	22.3	4	7.0	4	-1E+10	1	-1E+10	1	-1E+10	1	-1E+10	1	-1E+10	1	-1E+10	1
4902551	88	C	01/19/2023	16:00	-131.315	47.928	0	627.50	0	3.8640	0	34.1660	0	27.141	0	621.297	0	22.0	4	6.9	4	-1E+10	1	-1E+10	1	-1E+10	1	-1E+10	1	-1E+10	1	-1E+10	1
4902551	88	C	01/19/2023	16:00	-131.315	47.928	0	632.50	0	3.8520	0	34.1690	0	27.145	0	626.240	0	21.8	4	6.9	4	-1E+10	1	-1E+10	1	-1E+10	1	-1E+10	1	-1E+10	1	-1E+10	1
4902551	88	C	01/19/2023	16:00	-131.315	47.928	0	637.60	0	3.8390	0	34.1720	0	27.149	0	631.282	0	21.4	4	6.7	4	-1E+10	1	-1E+10	1	-1E+10	1	-1E+10	1	-1E+10	1	-1E+10	1
4902551	88	C	01/19/2023	16:00	-131.315	47.928	0	642.60	0	3.8220	0	34.1770	0	27.154	0	636.225	0	21.1	4	6.6	4	-1E+10	1	-1E+10	1	-1E+10	1	-1E+10	1	-1E+10	1	-1E+10	1
4902551	88	C	01/19/2023	16:00	-131.315	47.928	0	647.60	0	3.8080	0	34.1810	0	27.159	0	641.167	0	20.8	4	6.5	4	-1E+10	1	-1E+10	1	-1E+10	1	-1E+10	1	-1E+10	1	-1E+10	1
4902551	88	C	01/19/2023	16:00	-131.315	47.928	0	652.60	0	3.7940	0	34.1860	0	27.164	0	646.110	0	20.5	4	6.4	4	-1E+10	1	-1E+10	1	-1E+10	1	-1E+10	1	-1E+10	1	-1E+10	1
4902551	88	C	01/19/2023	16:00	-131.315	47.928	0	657.60	0	3.7810	0	34.1900	0	27.169	0	651.052	0	20.3	4	6.4	4	-1E+10	1	-1E+10	1	-1E+10	1	-1E+10	1	-1E+10	1	-1E+10	1
4902551	88	C	01/19/2023	16:00	-131.315	47.928	0	662.60	0	3.7700	0	34.1930	0	27.172	0	655.995	0	20.1	4	6.3	4	-1E+10	1	-1E+10	1	-1E+10	1	-1E+10	1	-1E+10	1	-1E+10	1
4902551	88	C	01/19/2023	16:00	-131.315	47.928	0	667.60	0	3.7630	0	34.1950	0	27.175	0	660.937	0	20.0	4	6.3	4	-1E+10	1	-1E+10	1	-1E+10	1	-1E+10	1	-1E+10	1	-1E+10	1
4902551	88	C	01/19/2023	16:00	-131.315	47.928	0	672.70	0	3.7560	0	34.1960	0	27.176	0	665.978	0	19.8	4	6.2	4	-1E+10	1	-1E+10	1	-1E+10	1	-1E+10	1	-1E+10	1	-1E+10	1
4902551	88	C	01/19/2023	16:00	-131.315	47.928	0	677.80	0	3.7470	0	34.1990	0	27.179	0	671.019	0	19.7	4	6.2	4	-1E+10	1	-1E+10	1	-1E+10	1	-1E+10	1	-1E+10	1	-1E+10	1
4902551	88	C	01/19/2023	16:00	-131.315	47.928	0	682.90	0	3.7420	0	34.2000	0	27.181	0	676.060	0	19.5	4	6.1	4	-1E+10	1	-1E+10	1	-1E+10	1	-1E+10	1	-1E+10	1	-1E+10	1
4902551	88	C	01/19/2023	16:00	-131.315	47.928	0	688.00	0	3.7310	0	34.2030	0	27.184	0	681.100	0	19.3	4	6.1	4	-1E+10	1	-1E+10	1	-1E+10	1	-1E+10	1	-1E+10	1	-1E+10	1
4902551	88	C	01/19/2023	16:00	-131.315	47.928	0	693.20	0	3.7210	0	34.2060	0	27.188	0	686.239	0	19.2	4	6.0	4	-1E+10	1	-1E+10	1	-1E+10	1	-1E+10	1	-1E+10	1	-1E+10	1
4902551	88	C	01/19/2023	16:00	-131.315	47.928	0	698.00	0	3.7100	0	34.2080	0	27.190	0	690.983	0	18.9	4	5.9	4	-1E+10	1	-1E+10	1	-1E+10	1	-1E+10	1	-1E+10	1	-1E+10	1
4902551	88	C	01/19/2023	16:00	-131.315	47.928	0	702.80	0	3.7040	0	34.2100	0	27.193	0	695.727	0	18.7	4	5.9	4	-1E+10	1	-1E+10	1	-1E+10	1	-1E+10	1	-1E+10	1	-1E+10	1
4902551	88	C	01/19/2023	16:00	-131.315	47.928	0	707.80	0	3.6910	0	34.2140	0	27.197	0	700.668	0	18.4	4	5.8	4	-1E+10	1	-1E+10	1	-1E+10	1	-1E+10	1	-1E+10	1	-1E+10	1
4902551	88	C	01/19/2023	16:00	-131.315	47.928	0	712.90	0	3.6850	0	34.2150	0	27.199	0	705.708	0	18.2	4	5.7	4	-1E+10	1	-1E+10	1	-1E+10	1	-1E+10	1	-1E+10	1	-1E+10	1
4902551	88	C	01/19/2023	16:00	-131.315	47.928	0	718.00	0	3.6690	0	34.2200	0	27.204	0	710.748	0	17.9	4	5.6	4	-1E+10	1	-1E+10	1	-1E+10	1	-1E+10	1	-1E+10	1	-1E+10	1
4902551	88	C	01/19/2023	16:00	-131.315	47.928	0	723.10	0	3.6620	0	34.2210	0	27.206	0	715.788	0	17.6	4	5.5	4	-1E+10	1	-1E+10	1	-1E+10	1	-1E+10	1	-1E+10	1	-1E+10	1
4902551	88	C	01/19/2023	16:00	-131.315	47.928	0	727.90	0	3.6510	0	34.2250	0	27.210	0	720.531	0	17.4	4	5.5	4	-1E+10	1	-1E+10	1	-1E+10	1	-1E+10	1	-1E+10	1	-1E+10	1
4902551	88	C	01/19/2023	16:00	-131.315	47.928	0	732.70	0	3.6430	0	34.2270	0	27.212	0	725.274	0	17.3	4	5.4	4	-1E+10	1	-1E+10	1	-1E+10	1	-1E+10	1	-1E+10	1	-1E+10	1
4902551	88	C	01/19/2023	16:00	-131.315	47.928	0	738.10	0	3.6300	0	34.2300	0	27.216	0	730.610	0	17.0	4	5.3	4	-1E+10	1	-1E+10	1	-1E+10	1	-1E+10	1	-1E+10	1	-1E+10	1
4902551	88	C	01/19/2023	16:00	-131.315	47.928	0	743.20	0	3.6170	0	34.2330	0	27.220	0	735.649	0	16.7	4	5.2	4	-1E+10	1	-1E+10	1	-1E+10	1	-1E+10	1	-1E+10	1	-1E+10	1
4902551	88	C	01/19/2023	16:00	-131.315	47.928	0	747.80	0	3.6040	0	34.2370	0	27.224	0	740.194	0	16.5	4	5.2	4	-1E+10	1	-1E+10	1	-1E+10	1	-1E+10	1	-1E+10	1	-1E+10	1
4902551	88	C	01/19/2023	16:00	-131.315	47.928	0	752.60	0	3.5940	0	34.2390	0	27.227	0	744.937	0	16.3	4	5.1	4	-1E+10	1	-1E+10	1	-1E+10	1	-1E+10	1	-1E+10	1	-1E+10	1
4902551	88	C	01/19/2023	16:00	-131.315	47.928	0	757.80	0	3.5750	0	34.2440	0	27.233	0	750.075	0	16.0	4	5.0	4	-1E+10	1	-1E+10	1	-1E+10	1	-1E+10	1	-1E+10	1	-1E+10	1
4902551	88	C	01/19/2023	16:00	-131.315	47.928	0	763.30	0	3.5550	0	34.2490	0	27.239	0	755.509	0	15.8	4	4.9	4	-1E+10	1	-1E+10	1	-1E+10	1	-1E+10	1	-1E+10	1	-1E+10	1
4902551	88	C	01/19/2023	16:00	-131.315	47.928	0	768.20	0	3.5480	0	34.2510	0	27.241	0	760.350	0	15.7	4	4.9	4	-1E+10	1	-1E+10	1	-1E+10	1	-1E+10	1	-1E+10	1	-1E+10	1
4902551	88	C	01/19/2023	16:00	-131.315	47.928	0	773.20	0	3.5340	0	34.2540	0	27.245	0	765.290	0	15.5	4	4.9	4	-1E+10	1	-1E+10	1	-1E+10	1	-1E+10	1	-1E+10	1	-1E+10	1
4902551	88	C	01/19/2023	16:00	-131.315	47.928	0	778.20	0	3.5260	0	34.2560	0	27.247	0	770.229	0	15.4	4	4.8	4	-1E+10	1	-1E+10	1	-1E+10	1	-1E+10	1	-1E+10	1	-1E+10	1
4902551	88	C	01/19/2023	16:00	-131.315	47.928	0	783.20	0	3.5200	0	34.2580	0	27.249	0	775.169	0	15.1	4	4.7	4	-1E+10	1	-1E+10	1	-1E+10	1	-1E+10	1	-1E+10	1	-1E+10	1
4902551	88	C	01/19/2023	16:00	-131.315	47.928	0	788.20	0	3.5050	0	34.2630	0	27.255	0	780.108	0	14.8	4	4.6	4	-1E+10	1	-1E+10	1	-1E+10	1	-1E+10	1	-1E+10	1	-1E+10	1
4902551	88	C	01/19/2023	16:00	-131.315	47.928	0	793.20	0	3.4960	0	34.2650	0	27.257	0	785.047	0	14.6	4	4.6	4	-1E+10	1	-1E+10	1	-1E+10	1	-1E+10	1	-1E+10	1	-1E+10	1
4902551	88	C	01/19/2023	16:00	-131.315	47.928	0	798.20	0	3.4880	0	34.2680	0	27.260	0	789.986	0	14.3	4	4.5	4	-1E+10	1	-1E+10	1	-1E+10	1	-1E+10	1	-1E+10	1	-1E+10	1
4902551	88	C	01/19/2023	16:00	-131.315	47.928	0	803.20	0	3.4750	0	34.2720	0	27.265	0	794.925	0	14.1	4	4.4	4	-1E+10	1	-1E+10	1	-1E+10	1	-1E+10	1	-1E+10	1	-1E+10	1
4902551	88	C	01/19/2023	16:00	-131.315	47.928	0	808.20	0	3.4640	0	34.2760	0	27.269	0	799.864	0	13.9	4	4.3	4	-1E+10	1	-1E+10	1	-1E+10	1	-1E+10	1	-1E+10	1	-1E+10	1
4902551	88	C	01/19/2023	16:00	-131.315	47.928	0	813.20	0	3.4590	0	34.2770	0	27.270	0	804.803	0	13.7	4	4.3	4	-1E+10	1	-1E+10	1	-1E+10	1	-1E+10	1	-1E+10	1	-1E+10	1
4902551	88	C	01/19/2023	16:00	-131.315	47.928	0	818.20	0	3.4480	0	34.2800	0	27.274	0	809.742	0	13.6	4	4.2	4	-1E+10	1	-1E+10	1	-1E+10	1	-1E+10	1	-1E+10	1	-1E+10	1
4902551	88	C	01/19/2023	16:00	-131.315	47.928	0	823.10	0	3.4350	0	34.2840	0	27.278	0	814.582	0	13.4	4	4.2	4	-1E+10	1	-1E+10	1	-1E+10	1	-1E+10	1	-1E+10	1	-1E+10	1
4902551	88	C	01/19/2023	16:00	-131.315	47.928	0	828.00	0	3.4310	0	34.2860	0	27.280	0	819.421	0	13.3	4	4.1	4	-1E+10	1	-1E+10	1	-1E+10	1	-1E+10	1	-1E+10	1	-1E+10	1
4902551	88	C	01/19/2023	16:00	-131.315	47.928	0	832.90	0	3.4200	0	34.2900	0	27.285	0	824.261	0	13.2	4	4.1	4	-1E+10	1	-1E+10	1	-1E+10	1	-1E+10	1	-1E+10	1	-1E+10	1
4902551	88	C	01/19/2023	16:00	-131.315	47.928	0	837.80	0	3.4150	0	34.2910	0	27.286	0	829.100	0	13.1	4	4.1	4	-1E+10	1	-1E+10	1	-1E+10	1	-1E+10	1	-1E+10	1	-1E+10	1
4902551	88	C	01/19/2023	16:00	-131.315	47.928	0	842.60	0	3.4120	0	34.2920	0	27.287	0	833.841	0	13.0	4	4.1	4	-1E+10	1	-1E+10	1	-1E+10	1	-1E+10	1	-1E+10	1	-1E+10	1
4902551	88	C	01/19/2023	16:00	-131.315	47.928	0	847.80	0	3.4060	0	34.2930	0	27.289	0	838.977	0	12.9	4	4.0	4	-1E+10	1	-1E+10	1	-1E+10	1	-1E+10	1	-1E+10	1	-1E+10	1
4902551	88	C	01/19/2023	16:00	-131.315	47.928	0	853.00	0	3.3990	0	34.2960	0	27.292	0	844.112	0	12.8	4	4.0	4	-1E+10	1	-1E+10	1	-1E+10	1	-1E+10	1	-1E+10	1	-1E+10	1
4902551	88	C	01/19/2023	16:00	-131.315	47.928	0	857.70	0	3.3880	0	34.3000	0	27.296	0	848.753	0	12.7	4	4.0	4	-1E+10	1	-1E+10	1	-1E+10	1	-1E+10	1	-1E+10	1	-1E+10	1
4902551	88	C	01/19/2023	16:00	-131.315	47.928	0	862.90	0	3.3730	0	34.3030	0	27.300	0	853.889	0	12.7	4	3.9	4	-1E+10	1	-1E+10	1	-1E+10	1	-1E+10	1	-1E+10	1	-1E+10	1
4902551	88	C	01/19/2023	16:00	-131.315	47.928	0	868.10	0	3.3560	0	34.3050	0	27.303	0	859.024	0	12.6	4	3.9	4	-1E+10	1	-1E+10	1	-1E+10	1	-1E+10	1	-1E+10	1	-1E+10	1
4902551	88	C	01/19/2023	16:00	-131.315	47.928	0	872.90	0	3.3470	0	34.3080	0	27.306	0	863.763	0	12.4	4	3.9	4	-1E+10	1	-1E+10	1	-1E+10	1	-1E+10	1	-1E+10	1	-1E+10	1
4902551	88	C	01/19/2023	16:00	-131.315	47.928	0	877.70	0	3.3350	0	34.3130	0	27.311	0	868.503	0	12.3	4	3.8	4	-1E+10	1	-1E+10	1	-1E+10	1	-1E+10	1	-1E+10	1	-1E+10	1
4902551	88	C	01/19/2023	16:00	-131.315	47.928	0	882.90	0	3.3260	0	34.3160	0	27.315	0	873.638	0	12.2	4	3.8	4	-1E+10	1	-1E+10	1	-1E+10	1	-1E+10	1	-1E+10	1	-1E+10	1
4902551	88	C	01/19/2023	16:00	-131.315	47.928	0	888.20	0	3.3210	0	34.3170	0	27.316	0	878.871	0	12.1	4	3.8	4	-1E+10	1	-1E+10	1	-1E+10	1	-1E+10	1	-1E+10	1	-1E+10	1
4902551	88	C	01/19/2023	16:00	-131.315	47.928	0	893.00	0	3.3180	0	34.3200	0	27.319	0	883.611	0	12.0	4	3.7	4	-1E+10	1	-1E+10	1	-1E+10	1	-1E+10	1	-1E+10	1	-1E+10	1
4902551	88	C	01/19/2023	16:00	-131.315	47.928	0	897.80	0	3.3100	0	34.3230	0	27.322	0	888.350	0	12.0	4	3.7	4	-1E+10	1	-1E+10	1	-1E+10	1	-1E+10	1	-1E+10	1	-1E+10	1
4902551	88	C	01/19/2023	16:00	-131.315	47.928	0	902.70	0	3.2920	0	34.3260	0	27.326	0	893.188	0	11.9	4	3.7	4	-1E+10	1	-1E+10	1	-1E+10	1	-1E+10	1	-1E+10	1	-1E+10	1
4902551	88	C	01/19/2023	16:00	-131.315	47.928	0	907.70	0	3.2700	0	34.3300	0	27.331	0	898.125	0	11.9	4	3.7	4	-1E+10	1	-1E+10	1	-1E+10	1	-1E+10	1	-1E+10	1	-1E+10	1
4902551	88	C	01/19/2023	16:00	-131.315	47.928	0	912.70	0	3.2610	0	34.3320	0	27.334	0	903.061	0	11.9	4	3.7	4	-1E+10	1	-1E+10	1	-1E+10	1	-1E+10	1	-1E+10	1	-1E+10	1
4902551	88	C	01/19/2023	16:00	-131.315	47.928	0	917.70	0	3.2540	0	34.3340	0	27.336	0	907.997	0	11.9	4	3.7	4	-1E+10	1	-1E+10	1	-1E+10	1	-1E+10	1	-1E+10	1	-1E+10	1
4902551	88	C	01/19/2023	16:00	-131.315	47.928	0	922.90	0	3.2390	0	34.3360	0	27.339	0	913.131	0	11.9	4	3.7	4	-1E+10	1	-1E+10	1	-1E+10	1	-1E+10	1	-1E+10	1	-1E+10	1
4902551	88	C	01/19/2023	16:00	-131.315	47.928	0	928.00	0	3.2310	0	34.3380	0	27.341	0	918.166	0	11.9	4	3.7	4	-1E+10	1	-1E+10	1	-1E+10	1	-1E+10	1	-1E+10	1	-1E+10	1
4902551	88	C	01/19/2023	16:00	-131.315	47.928	0	932.80	0	3.2230	0	34.3390	0	27.343	0	922.904	0	11.8	4	3.7	4	-1E+10	1	-1E+10	1	-1E+10	1	-1E+10	1	-1E+10	1	-1E+10	1
4902551	88	C	01/19/2023	16:00	-131.315	47.928	0	937.70	0	3.2110	0	34.3420	0	27.346	0	927.742	0	11.8	4	3.7	4	-1E+10	1	-1E+10	1	-1E+10	1	-1E+10	1	-1E+10	1	-1E+10	1
4902551	88	C	01/19/2023	16:00	-131.315	47.928	0	942.70	0	3.1950	0	34.3450	0	27.350	0	932.677	0	11.7	4	3.6	4	-1E+10	1	-1E+10	1	-1E+10	1	-1E+10	1	-1E+10	1	-1E+10	1
4902551	88	C	01/19/2023	16:00	-131.315	47.928	0	947.80	0	3.1820	0	34.3490	0	27.355	0	937.712	0	11.7	4	3.6	4	-1E+10	1	-1E+10	1	-1E+10	1	-1E+10	1	-1E+10	1	-1E+10	1
4902551	88	C	01/19/2023	16:00	-131.315	47.928	0	953.00	0	3.1740	0	34.3520	0	27.358	0	942.845	0	11.6	4	3.6	4	-1E+10	1	-1E+10	1	-1E+10	1	-1E+10	1	-1E+10	1	-1E+10	1
4902551	88	C	01/19/2023	16:00	-131.315	47.928	0	957.80	0	3.1750	0	34.3540	0	27.359	0	947.583	0	11.6	4	3.6	4	-1E+10	1	-1E+10	1	-1E+10	1	-1E+10	1	-1E+10	1	-1E+10	1
4902551	88	C	01/19/2023	16:00	-131.315	47.928	0	962.70	0	3.1670	0	34.3570	0	27.363	0	952.419	0	11.6	4	3.6	4	-1E+10	1	-1E+10	1	-1E+10	1	-1E+10	1	-1E+10	1	-1E+10	1
4902551	88	C	01/19/2023	16:00	-131.315	47.928	0	968.10	0	3.1570	0	34.3590	0	27.365	0	957.749	0	11.6	4	3.6	4	-1E+10	1	-1E+10	1	-1E+10	1	-1E+10	1	-1E+10	1	-1E+10	1
4902551	88	C	01/19/2023	16:00	-131.315	47.928	0	973.10	0	3.1530	0	34.3600	0	27.366	0	962.684	0	11.6	4	3.6	4	-1E+10	1	-1E+10	1	-1E+10	1	-1E+10	1	-1E+10	1	-1E+10	1
4902551	88	C	01/19/2023	16:00	-131.315	47.928	0	978.00	0	3.1410	0	34.3620	0	27.369	0	967.521	0	11.6	4	3.6	4	-1E+10	1	-1E+10	1	-1E+10	1	-1E+10	1	-1E+10	1	-1E+10	1
4902551	88	C	01/19/2023	16:00	-131.315	47.928	0	983.10	0	3.1340	0	34.3640	0	27.371	0	972.554	0	11.6	4	3.6	4	-1E+10	1	-1E+10	1	-1E+10	1	-1E+10	1	-1E+10	1	-1E+10	1
4902551	88	C	01/19/2023	16:00	-131.315	47.928	0	987.80	0	3.1290	0	34.3650	0	27.373	0	977.193	0	11.6	4	3.6	4	-1E+10	1	-1E+10	1	-1E+10	1	-1E+10	1	-1E+10	1	-1E+10	1
4902551	88	C	01/19/2023	16:00	-131.315	47.928	0	993.00	0	3.1240	0	34.3660	0	27.374	0	982.325	0	11.6	4	3.6	4	-1E+10	1	-1E+10	1	-1E+10	1	-1E+10	1	-1E+10	1	-1E+10	1
4902551	88	C	01/19/2023	16:00	-131.315	47.928	0	998.30	0	3.1150	0	34.3680	0	27.376	0	987.555	0	11.7	4	3.6	4	-1E+10	1	-1E+10	1	-1E+10	1	-1E+10	1	-1E+10	1	-1E+10	1
4902551	88	C	01/19/2023	16:00	-131.315	47.928	0	1005.70	0	3.0940	0	34.3720	0	27.382	0	994.858	0	11.7	4	3.6	4	-1E+10	1	-1E+10	1	-1E+10	1	-1E+10	1	-1E+10	1	-1E+10	1
4902551	88	C	01/19/2023	16:00	-131.315	47.928	0	1015.80	0	3.0790	0	34.3750	0	27.385	0	1004.825	0	11.7	4	3.6	4	-1E+10	1	-1E+10	1	-1E+10	1	-1E+10	1	-1E+10	1	-1E+10	1
4902551	88	C	01/19/2023	16:00	-131.315	47.928	0	1025.50	0	3.0670	0	34.3770	0	27.388	0	1014.397	0	11.8	4	3.6	4	-1E+10	1	-1E+10	1	-1E+10	1	-1E+10	1	-1E+10	1	-1E+10	1
4902551	88	C	01/19/2023	16:00	-131.315	47.928	0	1035.40	0	3.0450	0	34.3810	0	27.393	0	1024.165	0	11.9	4	3.7	4	-1E+10	1	-1E+10	1	-1E+10	1	-1E+10	1	-1E+10	1	-1E+10	1
4902551	88	C	01/19/2023	16:00	-131.315	47.928	0	1045.40	0	3.0250	0	34.3850	0	27.398	0	1034.032	0	11.9	4	3.7	4	-1E+10	1	-1E+10	1	-1E+10	1	-1E+10	1	-1E+10	1	-1E+10	1
4902551	88	C	01/19/2023	16:00	-131.315	47.928	0	1055.40	0	3.0140	0	34.3870	0	27.401	0	1043.899	0	12.0	4	3.7	4	-1E+10	1	-1E+10	1	-1E+10	1	-1E+10	1	-1E+10	1	-1E+10	1
4902551	88	C	01/19/2023	16:00	-131.315	47.928	0	1065.50	0	2.9940	0	34.3910	0	27.406	0	1053.863	0	12.1	4	3.7	4	-1E+10	1	-1E+10	1	-1E+10	1	-1E+10	1	-1E+10	1	-1E+10	1
4902551	88	C	01/19/2023	16:00	-131.315	47.928	0	1075.40	0	2.9760	0	34.3940	0	27.410	0	1063.630	0	12.1	4	3.7	4	-1E+10	1	-1E+10	1	-1E+10	1	-1E+10	1	-1E+10	1	-1E+10	1
4902551	88	C	01/19/2023	16:00	-131.315	47.928	0	1085.30	0	2.9610	0	34.3970	0	27.414	0	1073.396	0	12.2	4	3.8	4	-1E+10	1	-1E+10	1	-1E+10	1	-1E+10	1	-1E+10	1	-1E+10	1
4902551	88	C	01/19/2023	16:00	-131.315	47.928	0	1095.30	0	2.9480	0	34.4000	0	27.418	0	1083.261	0	12.3	4	3.8	4	-1E+10	1	-1E+10	1	-1E+10	1	-1E+10	1	-1E+10	1	-1E+10	1
4902551	88	C	01/19/2023	16:00	-131.315	47.928	0	1105.60	0	2.9320	0	34.4030	0	27.421	0	1093.421	0	12.5	4	3.8	4	-1E+10	1	-1E+10	1	-1E+10	1	-1E+10	1	-1E+10	1	-1E+10	1
4902551	88	C	01/19/2023	16:00	-131.315	47.928	0	1115.60	0	2.9110	0	34.4060	0	27.426	0	1103.284	0	12.5	4	3.9	4	-1E+10	1	-1E+10	1	-1E+10	1	-1E+10	1	-1E+10	1	-1E+10	1
4902551	88	C	01/19/2023	16:00	-131.315	47.928	0	1125.20	0	2.8970	0	34.4080	0	27.429	0	1112.753	0	12.6	4	3.9	4	-1E+10	1	-1E+10	1	-1E+10	1	-1E+10	1	-1E+10	1	-1E+10	1
4902551	88	C	01/19/2023	16:00	-131.315	47.928	0	1135.30	0	2.8830	0	34.4100	0	27.432	0	1122.714	0	12.8	4	3.9	4	-1E+10	1	-1E+10	1	-1E+10	1	-1E+10	1	-1E+10	1	-1E+10	1
4902551	88	C	01/19/2023	16:00	-131.315	47.928	0	1145.40	0	2.8640	0	34.4140	0	27.437	0	1132.675	0	13.0	4	4.0	4	-1E+10	1	-1E+10	1	-1E+10	1	-1E+10	1	-1E+10	1	-1E+10	1
4902551	88	C	01/19/2023	16:00	-131.315	47.928	0	1155.50	0	2.8450	0	34.4170	0	27.441	0	1142.635	0	13.1	4	4.0	4	-1E+10	1	-1E+10	1	-1E+10	1	-1E+10	1	-1E+10	1	-1E+10	1
4902551	88	C	01/19/2023	16:00	-131.315	47.928	0	1165.70	0	2.8260	0	34.4210	0	27.446	0	1152.694	0	13.3	4	4.1	4	-1E+10	1	-1E+10	1	-1E+10	1	-1E+10	1	-1E+10	1	-1E+10	1
4902551	88	C	01/19/2023	16:00	-131.315	47.928	0	1175.40	0	2.8110	0	34.4240	0	27.449	0	1162.259	0	13.4	4	4.1	4	-1E+10	1	-1E+10	1	-1E+10	1	-1E+10	1	-1E+10	1	-1E+10	1
4902551	88	C	01/19/2023	16:00	-131.315	47.928	0	1185.00	0	2.8020	0	34.4260	0	27.452	0	1171.725	0	13.6	4	4.2	4	-1E+10	1	-1E+10	1	-1E+10	1	-1E+10	1	-1E+10	1	-1E+10	1
4902551	88	C	01/19/2023	16:00	-131.315	47.928	0	1195.30	0	2.7920	0	34.4280	0	27.454	0	1181.881	0	13.8	4	4.2	4	-1E+10	1	-1E+10	1	-1E+10	1	-1E+10	1	-1E+10	1	-1E+10	1
4902551	88	C	01/19/2023	16:00	-131.315	47.928	0	1205.50	0	2.7710	0	34.4310	0	27.459	0	1191.937	0	13.9	4	4.3	4	-1E+10	1	-1E+10	1	-1E+10	1	-1E+10	1	-1E+10	1	-1E+10	1
4902551	88	C	01/19/2023	16:00	-131.315	47.928	0	1215.30	0	2.7470	0	34.4340	0	27.463	0	1201.599	0	14.1	4	4.3	4	-1E+10	1	-1E+10	1	-1E+10	1	-1E+10	1	-1E+10	1	-1E+10	1
4902551	88	C	01/19/2023	16:00	-131.315	47.928	0	1225.10	0	2.7300	0	34.4370	0	27.467	0	1211.260	0	14.3	4	4.4	4	-1E+10	1	-1E+10	1	-1E+10	1	-1E+10	1	-1E+10	1	-1E+10	1
4902551	88	C	01/19/2023	16:00	-131.315	47.928	0	1235.10	0	2.7170	0	34.4390	0	27.470	0	1221.118	0	14.5	4	4.4	4	-1E+10	1	-1E+10	1	-1E+10	1	-1E+10	1	-1E+10	1	-1E+10	1
4902551	88	C	01/19/2023	16:00	-131.315	47.928	0	1245.50	0	2.7040	0	34.4420	0	27.473	0	1231.370	0	14.7	4	4.5	4	-1E+10	1	-1E+10	1	-1E+10	1	-1E+10	1	-1E+10	1	-1E+10	1
4902551	88	C	01/19/2023	16:00	-131.315	47.928	0	1255.80	0	2.6880	0	34.4440	0	27.476	0	1241.523	0	14.9	4	4.6	4	-1E+10	1	-1E+10	1	-1E+10	1	-1E+10	1	-1E+10	1	-1E+10	1
4902551	88	C	01/19/2023	16:00	-131.315	47.928	0	1265.80	0	2.6680	0	34.4470	0	27.481	0	1251.379	0	15.2	4	4.7	4	-1E+10	1	-1E+10	1	-1E+10	1	-1E+10	1	-1E+10	1	-1E+10	1
4902551	88	C	01/19/2023	16:00	-131.315	47.928	0	1275.40	0	2.6530	0	34.4500	0	27.484	0	1260.841	0	15.5	4	4.8	4	-1E+10	1	-1E+10	1	-1E+10	1	-1E+10	1	-1E+10	1	-1E+10	1
4902551	88	C	01/19/2023	16:00	-131.315	47.928	0	1285.50	0	2.6370	0	34.4530	0	27.488	0	1270.796	0	15.9	4	4.9	4	-1E+10	1	-1E+10	1	-1E+10	1	-1E+10	1	-1E+10	1	-1E+10	1
4902551	88	C	01/19/2023	16:00	-131.315	47.928	0	1295.50	0	2.6210	0	34.4560	0	27.492	0	1280.651	0	16.3	4	5.0	4	-1E+10	1	-1E+10	1	-1E+10	1	-1E+10	1	-1E+10	1	-1E+10	1
4902551	88	C	01/19/2023	16:00	-131.315	47.928	0	1305.60	0	2.5990	0	34.4610	0	27.498	0	1290.604	0	16.8	4	5.1	4	-1E+10	1	-1E+10	1	-1E+10	1	-1E+10	1	-1E+10	1	-1E+10	1
4902551	88	C	01/19/2023	16:00	-131.315	47.928	0	1315.30	0	2.5850	0	34.4630	0	27.501	0	1300.163	0	17.1	4	5.2	4	-1E+10	1	-1E+10	1	-1E+10	1	-1E+10	1	-1E+10	1	-1E+10	1
4902551	88	C	01/19/2023	16:00	-131.315	47.928	0	1325.20	0	2.5680	0	34.4650	0	27.504	0	1309.918	0	17.4	4	5.3	4	-1E+10	1	-1E+10	1	-1E+10	1	-1E+10	1	-1E+10	1	-1E+10	1
4902551	88	C	01/19/2023	16:00	-131.315	47.928	0	1335.30	0	2.5530	0	34.4680	0	27.508	0	1319.870	0	17.8	4	5.4	4	-1E+10	1	-1E+10	1	-1E+10	1	-1E+10	1	-1E+10	1	-1E+10	1
4902551	88	C	01/19/2023	16:00	-131.315	47.928	0	1345.20	0	2.5470	0	34.4700	0	27.510	0	1329.624	0	18.0	4	5.5	4	-1E+10	1	-1E+10	1	-1E+10	1	-1E+10	1	-1E+10	1	-1E+10	1
4902551	88	C	01/19/2023	16:00	-131.315	47.928	0	1355.20	0	2.5370	0	34.4710	0	27.512	0	1339.477	0	18.3	4	5.6	4	-1E+10	1	-1E+10	1	-1E+10	1	-1E+10	1	-1E+10	1	-1E+10	1
4902551	88	C	01/19/2023	16:00	-131.315	47.928	0	1365.30	0	2.5200	0	34.4740	0	27.515	0	1349.427	0	18.7	4	5.7	4	-1E+10	1	-1E+10	1	-1E+10	1	-1E+10	1	-1E+10	1	-1E+10	1
4902551	88	C	01/19/2023	16:00	-131.315	47.928	0	1375.20	0	2.5020	0	34.4770	0	27.519	0	1359.180	0	19.0	4	5.8	4	-1E+10	1	-1E+10	1	-1E+10	1	-1E+10	1	-1E+10	1	-1E+10	1
4902551	88	C	01/19/2023	16:00	-131.315	47.928	0	1385.20	0	2.4950	0	34.4780	0	27.521	0	1369.031	0	19.3	4	5.9	4	-1E+10	1	-1E+10	1	-1E+10	1	-1E+10	1	-1E+10	1	-1E+10	1
4902551	88	C	01/19/2023	16:00	-131.315	47.928	0	1395.30	0	2.4850	0	34.4800	0	27.523	0	1378.981	0	19.6	4	6.0	4	-1E+10	1	-1E+10	1	-1E+10	1	-1E+10	1	-1E+10	1	-1E+10	1
4902551	88	C	01/19/2023	16:00	-131.315	47.928	0	1405.10	0	2.4770	0	34.4820	0	27.526	0	1388.634	0	20.2	4	6.1	4	-1E+10	1	-1E+10	1	-1E+10	1	-1E+10	1	-1E+10	1	-1E+10	1
4902551	88	C	01/19/2023	16:00	-131.315	47.928	0	1415.10	0	2.4570	0	34.4850	0	27.530	0	1398.483	0	20.9	4	6.4	4	-1E+10	1	-1E+10	1	-1E+10	1	-1E+10	1	-1E+10	1	-1E+10	1
4902551	88	C	01/19/2023	16:00	-131.315	47.928	0	1425.70	0	2.4380	0	34.4890	0	27.535	0	1408.923	0	21.4	4	6.5	4	-1E+10	1	-1E+10	1	-1E+10	1	-1E+10	1	-1E+10	1	-1E+10	1
4902551	88	C	01/19/2023	16:00	-131.315	47.928	0	1435.50	0	2.4270	0	34.4910	0	27.537	0	1418.575	0	21.8	4	6.6	4	-1E+10	1	-1E+10	1	-1E+10	1	-1E+10	1	-1E+10	1	-1E+10	1
4902551	88	C	01/19/2023	16:00	-131.315	47.928	0	1445.20	0	2.4180	0	34.4930	0	27.540	0	1428.128	0	22.2	4	6.8	4	-1E+10	1	-1E+10	1	-1E+10	1	-1E+10	1	-1E+10	1	-1E+10	1
4902551	88	C	01/19/2023	16:00	-131.315	47.928	0	1455.10	0	2.4070	0	34.4950	0	27.542	0	1437.877	0	22.6	4	6.9	4	-1E+10	1	-1E+10	1	-1E+10	1	-1E+10	1	-1E+10	1	-1E+10	1
4902551	88	C	01/19/2023	16:00	-131.315	47.928	0	1465.30	0	2.3950	0	34.4970	0	27.545	0	1447.922	0	23.3	4	7.1	4	-1E+10	1	-1E+10	1	-1E+10	1	-1E+10	1	-1E+10	1	-1E+10	1
4902551	88	C	01/19/2023	16:00	-131.315	47.928	0	1475.30	0	2.3750	0	34.5000	0	27.549	0	1457.769	0	23.9	4	7.3	4	-1E+10	1	-1E+10	1	-1E+10	1	-1E+10	1	-1E+10	1	-1E+10	1
4902551	88	C	01/19/2023	16:00	-131.315	47.928	0	1485.20	0	2.3600	0	34.5030	0	27.553	0	1467.517	0	24.4	4	7.4	4	-1E+10	1	-1E+10	1	-1E+10	1	-1E+10	1	-1E+10	1	-1E+10	1
4902551	88	C	01/19/2023	16:00	-131.315	47.928	0	1495.30	0	2.3480	0	34.5050	0	27.555	0	1477.461	0	24.8	4	7.5	4	-1E+10	1	-1E+10	1	-1E+10	1	-1E+10	1	-1E+10	1	-1E+10	1
4902551	88	C	01/19/2023	16:00	-131.315	47.928	0	1505.00	0	2.3360	0	34.5070	0	27.558	0	1487.011	0	25.2	4	7.7	4	-1E+10	1	-1E+10	1	-1E+10	1	-1E+10	1	-1E+10	1	-1E+10	1
4902551	88	C	01/19/2023	16:00	-131.315	47.928	0	1515.00	0	2.3260	0	34.5080	0	27.559	0	1496.856	0	25.7	4	7.8	4	-1E+10	1	-1E+10	1	-1E+10	1	-1E+10	1	-1E+10	1	-1E+10	1
4902551	88	C	01/19/2023	16:00	-131.315	47.928	0	1525.10	0	2.3150	0	34.5110	0	27.563	0	1506.800	0	26.3	4	8.0	4	-1E+10	1	-1E+10	1	-1E+10	1	-1E+10	1	-1E+10	1	-1E+10	1
4902551	88	C	01/19/2023	16:00	-131.315	47.928	0	1535.50	0	2.3050	0	34.5130	0	27.565	0	1517.037	0	27.0	4	8.2	4	-1E+10	1	-1E+10	1	-1E+10	1	-1E+10	1	-1E+10	1	-1E+10	1
4902551	88	C	01/19/2023	16:00	-131.315	47.928	0	1545.50	0	2.2910	0	34.5150	0	27.568	0	1526.881	0	27.6	4	8.4	4	-1E+10	1	-1E+10	1	-1E+10	1	-1E+10	1	-1E+10	1	-1E+10	1
4902551	88	C	01/19/2023	16:00	-131.315	47.928	0	1555.30	0	2.2780	0	34.5170	0	27.571	0	1536.528	0	28.2	4	8.5	4	-1E+10	1	-1E+10	1	-1E+10	1	-1E+10	1	-1E+10	1	-1E+10	1
4902551	88	C	01/19/2023	16:00	-131.315	47.928	0	1565.30	0	2.2630	0	34.5200	0	27.574	0	1546.370	0	28.7	4	8.7	4	-1E+10	1	-1E+10	1	-1E+10	1	-1E+10	1	-1E+10	1	-1E+10	1
4902551	88	C	01/19/2023	16:00	-131.315	47.928	0	1575.30	0	2.2570	0	34.5210	0	27.576	0	1556.213	0	29.1	4	8.8	4	-1E+10	1	-1E+10	1	-1E+10	1	-1E+10	1	-1E+10	1	-1E+10	1
4902551	88	C	01/19/2023	16:00	-131.315	47.928	0	1585.50	0	2.2520	0	34.5220	0	27.577	0	1566.251	0	29.4	4	8.9	4	-1E+10	1	-1E+10	1	-1E+10	1	-1E+10	1	-1E+10	1	-1E+10	1
4902551	88	C	01/19/2023	16:00	-131.315	47.928	0	1595.40	0	2.2450	0	34.5230	0	27.578	0	1575.994	0	29.7	4	9.0	4	-1E+10	1	-1E+10	1	-1E+10	1	-1E+10	1	-1E+10	1	-1E+10	1
4902551	88	C	01/19/2023	16:00	-131.315	47.928	0	1605.50	0	2.2410	0	34.5240	0	27.580	0	1585.934	0	30.2	4	9.1	4	-1E+10	1	-1E+10	1	-1E+10	1	-1E+10	1	-1E+10	1	-1E+10	1
4902551	88	C	01/19/2023	16:00	-131.315	47.928	0	1615.60	0	2.2330	0	34.5260	0	27.582	0	1595.872	0	30.6	4	9.3	4	-1E+10	1	-1E+10	1	-1E+10	1	-1E+10	1	-1E+10	1	-1E+10	1
4902551	88	C	01/19/2023	16:00	-131.315	47.928	0	1625.20	0	2.2270	0	34.5270	0	27.583	0	1605.319	0	31.1	4	9.4	4	-1E+10	1	-1E+10	1	-1E+10	1	-1E+10	1	-1E+10	1	-1E+10	1
4902551	88	C	01/19/2023	16:00	-131.315	47.928	0	1635.40	0	2.2170	0	34.5290	0	27.586	0	1615.355	0	31.7	4	9.6	4	-1E+10	1	-1E+10	1	-1E+10	1	-1E+10	1	-1E+10	1	-1E+10	1
4902551	88	C	01/19/2023	16:00	-131.315	47.928	0	1645.70	0	2.2080	0	34.5310	0	27.588	0	1625.489	0	32.2	4	9.8	4	-1E+10	1	-1E+10	1	-1E+10	1	-1E+10	1	-1E+10	1	-1E+10	1
4902551	88	C	01/19/2023	16:00	-131.315	47.928	0	1655.60	0	2.2010	0	34.5320	0	27.590	0	1635.230	0	32.8	4	9.9	4	-1E+10	1	-1E+10	1	-1E+10	1	-1E+10	1	-1E+10	1	-1E+10	1
4902551	88	C	01/19/2023	16:00	-131.315	47.928	0	1665.60	0	2.1890	0	34.5340	0	27.592	0	1645.068	0	33.7	4	10.2	4	-1E+10	1	-1E+10	1	-1E+10	1	-1E+10	1	-1E+10	1	-1E+10	1
4902551	88	C	01/19/2023	16:00	-131.315	47.928	0	1675.50	0	2.1720	0	34.5370	0	27.596	0	1654.807	0	34.5	4	10.4	4	-1E+10	1	-1E+10	1	-1E+10	1	-1E+10	1	-1E+10	1	-1E+10	1
4902551	88	C	01/19/2023	16:00	-131.315	47.928	0	1685.50	0	2.1630	0	34.5390	0	27.598	0	1664.645	0	35.0	4	10.6	4	-1E+10	1	-1E+10	1	-1E+10	1	-1E+10	1	-1E+10	1	-1E+10	1
4902551	88	C	01/19/2023	16:00	-131.315	47.928	0	1695.60	0	2.1560	0	34.5410	0	27.601	0	1674.580	0	35.6	4	10.8	4	-1E+10	1	-1E+10	1	-1E+10	1	-1E+10	1	-1E+10	1	-1E+10	1
4902551	88	C	01/19/2023	16:00	-131.315	47.928	0	1705.50	0	2.1470	0	34.5420	0	27.602	0	1684.318	0	36.1	4	10.9	4	-1E+10	1	-1E+10	1	-1E+10	1	-1E+10	1	-1E+10	1	-1E+10	1
4902551	88	C	01/19/2023	16:00	-131.315	47.928	0	1715.40	0	2.1420	0	34.5440	0	27.604	0	1694.055	0	36.6	4	11.1	4	-1E+10	1	-1E+10	1	-1E+10	1	-1E+10	1	-1E+10	1	-1E+10	1
4902551	88	C	01/19/2023	16:00	-131.315	47.928	0	1725.70	0	2.1330	0	34.5450	0	27.606	0	1704.186	0	37.2	4	11.2	4	-1E+10	1	-1E+10	1	-1E+10	1	-1E+10	1	-1E+10	1	-1E+10	1
4902551	88	C	01/19/2023	16:00	-131.315	47.928	0	1735.60	0	2.1270	0	34.5460	0	27.607	0	1713.922	0	37.8	4	11.4	4	-1E+10	1	-1E+10	1	-1E+10	1	-1E+10	1	-1E+10	1	-1E+10	1
4902551	88	C	01/19/2023	16:00	-131.315	47.928	0	1745.60	0	2.1150	0	34.5480	0	27.610	0	1723.757	0	38.5	4	11.6	4	-1E+10	1	-1E+10	1	-1E+10	1	-1E+10	1	-1E+10	1	-1E+10	1
4902551	88	C	01/19/2023	16:00	-131.315	47.928	0	1755.60	0	2.1060	0	34.5500	0	27.612	0	1733.591	0	39.2	4	11.8	4	-1E+10	1	-1E+10	1	-1E+10	1	-1E+10	1	-1E+10	1	-1E+10	1
4902551	88	C	01/19/2023	16:00	-131.315	47.928	0	1765.20	0	2.0990	0	34.5520	0	27.614	0	1743.031	0	39.7	4	12.0	4	-1E+10	1	-1E+10	1	-1E+10	1	-1E+10	1	-1E+10	1	-1E+10	1
4902551	88	C	01/19/2023	16:00	-131.315	47.928	0	1775.10	0	2.0940	0	34.5520	0	27.615	0	1752.766	0	40.6	4	12.3	4	-1E+10	1	-1E+10	1	-1E+10	1	-1E+10	1	-1E+10	1	-1E+10	1
4902551	88	C	01/19/2023	16:00	-131.315	47.928	0	1785.10	0	2.0820	0	34.5550	0	27.618	0	1762.599	0	41.7	4	12.6	4	-1E+10	1	-1E+10	1	-1E+10	1	-1E+10	1	-1E+10	1	-1E+10	1
4902551	88	C	01/19/2023	16:00	-131.315	47.928	0	1795.10	0	2.0660	0	34.5580	0	27.622	0	1772.431	0	42.9	4	13.0	4	-1E+10	1	-1E+10	1	-1E+10	1	-1E+10	1	-1E+10	1	-1E+10	1
4902551	88	C	01/19/2023	16:00	-131.315	47.928	0	1805.50	0	2.0510	0	34.5610	0	27.625	0	1782.656	0	43.9	4	13.2	4	-1E+10	1	-1E+10	1	-1E+10	1	-1E+10	1	-1E+10	1	-1E+10	1
4902551	88	C	01/19/2023	16:00	-131.315	47.928	0	1815.60	0	2.0430	0	34.5630	0	27.628	0	1792.586	0	44.7	4	13.5	4	-1E+10	1	-1E+10	1	-1E+10	1	-1E+10	1	-1E+10	1	-1E+10	1
4902551	88	C	01/19/2023	16:00	-131.315	47.928	0	1825.50	0	2.0340	0	34.5650	0	27.630	0	1802.318	0	45.2	4	13.6	4	-1E+10	1	-1E+10	1	-1E+10	1	-1E+10	1	-1E+10	1	-1E+10	1
4902551	88	C	01/19/2023	16:00	-131.315	47.928	0	1835.50	0	2.0290	0	34.5650	0	27.631	0	1812.149	0	45.9	4	13.8	4	-1E+10	1	-1E+10	1	-1E+10	1	-1E+10	1	-1E+10	1	-1E+10	1
4902551	88	C	01/19/2023	16:00	-131.315	47.928	0	1845.40	0	2.0190	0	34.5670	0	27.633	0	1821.880	0	46.5	4	14.0	4	-1E+10	1	-1E+10	1	-1E+10	1	-1E+10	1	-1E+10	1	-1E+10	1
4902551	88	C	01/19/2023	16:00	-131.315	47.928	0	1855.30	0	2.0140	0	34.5690	0	27.635	0	1831.611	0	47.0	4	14.2	4	-1E+10	1	-1E+10	1	-1E+10	1	-1E+10	1	-1E+10	1	-1E+10	1
4902551	88	C	01/19/2023	16:00	-131.315	47.928	0	1865.60	0	2.0070	0	34.5700	0	27.636	0	1841.735	0	47.3	4	14.3	4	-1E+10	1	-1E+10	1	-1E+10	1	-1E+10	1	-1E+10	1	-1E+10	1
4902551	88	C	01/19/2023	16:00	-131.315	47.928	0	1875.60	0	2.0050	0	34.5700	0	27.637	0	1851.564	0	47.6	4	14.4	4	-1E+10	1	-1E+10	1	-1E+10	1	-1E+10	1	-1E+10	1	-1E+10	1
4902551	88	C	01/19/2023	16:00	-131.315	47.928	0	1885.40	0	2.0000	0	34.5710	0	27.638	0	1861.195	0	48.0	4	14.5	4	-1E+10	1	-1E+10	1	-1E+10	1	-1E+10	1	-1E+10	1	-1E+10	1
4902551	88	C	01/19/2023	16:00	-131.315	47.928	0	1895.30	0	1.9930	0	34.5720	0	27.639	0	1870.925	0	48.5	4	14.6	4	-1E+10	1	-1E+10	1	-1E+10	1	-1E+10	1	-1E+10	1	-1E+10	1
4902551	88	C	01/19/2023	16:00	-131.315	47.928	0	1905.20	0	1.9870	0	34.5730	0	27.641	0	1880.654	0	49.1	4	14.8	4	-1E+10	1	-1E+10	1	-1E+10	1	-1E+10	1	-1E+10	1	-1E+10	1
4902551	88	C	01/19/2023	16:00	-131.315	47.928	0	1915.30	0	1.9810	0	34.5750	0	27.643	0	1890.579	0	49.6	4	15.0	4	-1E+10	1	-1E+10	1	-1E+10	1	-1E+10	1	-1E+10	1	-1E+10	1
4902551	88	C	01/19/2023	16:00	-131.315	47.928	0	1925.30	0	1.9760	0	34.5760	0	27.644	0	1900.405	0	50.1	4	15.1	4	-1E+10	1	-1E+10	1	-1E+10	1	-1E+10	1	-1E+10	1	-1E+10	1
4902551	88	C	01/19/2023	16:00	-131.315	47.928	0	1935.40	0	1.9690	0	34.5780	0	27.646	0	1910.329	0	50.7	4	15.3	4	-1E+10	1	-1E+10	1	-1E+10	1	-1E+10	1	-1E+10	1	-1E+10	1
4902551	88	C	01/19/2023	16:00	-131.315	47.928	0	1945.60	0	1.9640	0	34.5780	0	27.647	0	1920.351	0	51.2	4	15.4	4	-1E+10	1	-1E+10	1	-1E+10	1	-1E+10	1	-1E+10	1	-1E+10	1
4902551	88	C	01/19/2023	16:00	-131.315	47.928	0	1955.40	0	1.9590	0	34.5800	0	27.649	0	1929.980	0	51.7	4	15.6	4	-1E+10	1	-1E+10	1	-1E+10	1	-1E+10	1	-1E+10	1	-1E+10	1
4902551	88	C	01/19/2023	16:00	-131.315	47.928	0	1965.20	0	1.9520	0	34.5810	0	27.650	0	1939.608	0	52.3	4	15.7	4	-1E+10	1	-1E+10	1	-1E+10	1	-1E+10	1	-1E+10	1	-1E+10	1
4902551	88	C	01/19/2023	16:00	-131.315	47.928	0	1975.30	0	1.9440	0	34.5820	0	27.652	0	1949.530	0	52.8	4	15.9	4	-1E+10	1	-1E+10	1	-1E+10	1	-1E+10	1	-1E+10	1	-1E+10	1
4902551	88	C	01/19/2023	16:00	-131.315	47.928	0	1985.50	0	1.9390	0	34.5840	0	27.654	0	1959.550	0	52.7	4	15.9	4	-1E+10	1	-1E+10	1	-1E+10	1	-1E+10	1	-1E+10	1	-1E+10	1
4902551	88	C	01/19/2023	16:00	-131.315	47.928	0																										
4902551	89	C	01/29/2023	21:04	-131.310	47.864	0	0.40	0	8.7460	0	32.3140	0	25.055	0	0.397	0	-1e10	1	-1e10	1	-1E+10	1	-1E+10	1	-1E+10	1	-1E+10	1	-1E+10	1	-1E+10	1
4902551	89	C	01/29/2023	21:04	-131.310	47.864	0	0.50	0	8.7450	0	32.3135	0	25.055	0	0.496	0	269.8	4	93.7	4	-1E+10	1	-1E+10	1	-1E+10	1	-1E+10	1	-1E+10	1	-1E+10	1
4902551	89	C	01/29/2023	21:04	-131.310	47.864	0	1.00	0	8.7400	0	32.3110	0	25.053	0	0.992	0	269.7	4	93.7	4	-1E+10	1	-1E+10	1	-1E+10	1	-1E+10	1	-1E+10	1	-1E+10	1
4902551	89	C	01/29/2023	21:04	-131.310	47.864	0	2.00	0	8.7410	0	32.3080	0	25.051	0	1.983	0	269.4	4	93.6	4	-1E+10	1	-1E+10	1	-1E+10	1	-1E+10	1	-1E+10	1	-1E+10	1
4902551	89	C	01/29/2023	21:04	-131.310	47.864	0	3.00	0	8.7420	0	32.3040	0	25.048	0	2.975	0	269.4	4	93.6	4	-1E+10	1	-1E+10	1	-1E+10	1	-1E+10	1	-1E+10	1	-1E+10	1
4902551	89	C	01/29/2023	21:04	-131.310	47.864	0	3.90	0	8.7370	0	32.3090	0	25.052	0	3.867	0	269.3	4	93.6	4	-1E+10	1	-1E+10	1	-1E+10	1	-1E+10	1	-1E+10	1	-1E+10	1
4902551	89	C	01/29/2023	21:04	-131.310	47.864	0	4.90	0	8.7320	0	32.3120	0	25.055	0	4.859	0	269.3	4	93.6	4	-1E+10	1	-1E+10	1	-1E+10	1	-1E+10	1	-1E+10	1	-1E+10	1
4902551	89	C	01/29/2023	21:04	-131.310	47.864	0	5.90	0	8.7290	0	32.3120	0	25.056	0	5.850	0	269.2	4	93.5	4	-1E+10	1	-1E+10	1	-1E+10	1	-1E+10	1	-1E+10	1	-1E+10	1
4902551	89	C	01/29/2023	21:04	-131.310	47.864	0	6.90	0	8.7280	0	32.3120	0	25.056	0	6.842	0	269.2	4	93.5	4	-1E+10	1	-1E+10	1	-1E+10	1	-1E+10	1	-1E+10	1	-1E+10	1
4902551	89	C	01/29/2023	21:04	-131.310	47.864	0	8.10	0	8.7300	0	32.3120	0	25.056	0	8.032	0	269.3	4	93.5	4	-1E+10	1	-1E+10	1	-1E+10	1	-1E+10	1	-1E+10	1	-1E+10	1
4902551	89	C	01/29/2023	21:04	-131.310	47.864	0	9.10	0	8.7280	0	32.3120	0	25.056	0	9.024	0	269.1	4	93.5	4	-1E+10	1	-1E+10	1	-1E+10	1	-1E+10	1	-1E+10	1	-1E+10	1
4902551	89	C	01/29/2023	21:04	-131.310	47.864	0	9.90	0	8.7290	0	32.3120	0	25.056	0	9.817	0	269.1	4	93.5	4	-1E+10	1	-1E+10	1	-1E+10	1	-1E+10	1	-1E+10	1	-1E+10	1
4902551	89	C	01/29/2023	21:04	-131.310	47.864	0	10.90	0	8.7290	0	32.3120	0	25.056	0	10.808	0	269.0	4	93.5	4	-1E+10	1	-1E+10	1	-1E+10	1	-1E+10	1	-1E+10	1	-1E+10	1
4902551	89	C	01/29/2023	21:04	-131.310	47.864	0	12.10	0	8.7290	0	32.3120	0	25.056	0	11.998	0	269.0	4	93.5	4	-1E+10	1	-1E+10	1	-1E+10	1	-1E+10	1	-1E+10	1	-1E+10	1
4902551	89	C	01/29/2023	21:04	-131.310	47.864	0	13.10	0	8.7300	0	32.3120	0	25.056	0	12.990	0	269.0	4	93.4	4	-1E+10	1	-1E+10	1	-1E+10	1	-1E+10	1	-1E+10	1	-1E+10	1
4902551	89	C	01/29/2023	21:04	-131.310	47.864	0	13.80	0	8.7280	0	32.3120	0	25.056	0	13.684	0	268.9	4	93.4	4	-1E+10	1	-1E+10	1	-1E+10	1	-1E+10	1	-1E+10	1	-1E+10	1
4902551	89	C	01/29/2023	21:04	-131.310	47.864	0	15.00	0	8.7270	0	32.3120	0	25.056	0	14.874	0	268.9	4	93.4	4	-1E+10	1	-1E+10	1	-1E+10	1	-1E+10	1	-1E+10	1	-1E+10	1
4902551	89	C	01/29/2023	21:04	-131.310	47.864	0	16.10	0	8.7230	0	32.3120	0	25.057	0	15.964	0	268.8	4	93.4	4	-1E+10	1	-1E+10	1	-1E+10	1	-1E+10	1	-1E+10	1	-1E+10	1
4902551	89	C	01/29/2023	21:04	-131.310	47.864	0	17.10	0	8.7230	0	32.3120	0	25.057	0	16.956	0	268.9	4	93.4	4	-1E+10	1	-1E+10	1	-1E+10	1	-1E+10	1	-1E+10	1	-1E+10	1
4902551	89	C	01/29/2023	21:04	-131.310	47.864	0	17.90	0	8.7230	0	32.3120	0	25.057	0	17.749	0	268.8	4	93.4	4	-1E+10	1	-1E+10	1	-1E+10	1	-1E+10	1	-1E+10	1	-1E+10	1
4902551	89	C	01/29/2023	21:04	-131.310	47.864	0	19.00	0	8.7220	0	32.3120	0	25.057	0	18.840	0	268.8	4	93.4	4	-1E+10	1	-1E+10	1	-1E+10	1	-1E+10	1	-1E+10	1	-1E+10	1
4902551	89	C	01/29/2023	21:04	-131.310	47.864	0	20.10	0	8.7220	0	32.3130	0	25.058	0	19.931	0	268.8	4	93.4	4	-1E+10	1	-1E+10	1	-1E+10	1	-1E+10	1	-1E+10	1	-1E+10	1
4902551	89	C	01/29/2023	21:04	-131.310	47.864	0	21.30	0	8.7220	0	32.3120	0	25.057	0	21.120	0	268.7	4	93.3	4	-1E+10	1	-1E+10	1	-1E+10	1	-1E+10	1	-1E+10	1	-1E+10	1
4902551	89	C	01/29/2023	21:04	-131.310	47.864	0	22.00	0	8.7220	0	32.3120	0	25.057	0	21.814	0	268.7	4	93.3	4	-1E+10	1	-1E+10	1	-1E+10	1	-1E+10	1	-1E+10	1	-1E+10	1
4902551	89	C	01/29/2023	21:04	-131.310	47.864	0	22.90	0	8.7220	0	32.3120	0	25.057	0	22.707	0	268.8	4	93.3	4	-1E+10	1	-1E+10	1	-1E+10	1	-1E+10	1	-1E+10	1	-1E+10	1
4902551	89	C	01/29/2023	21:04	-131.310	47.864	0	23.90	0	8.7220	0	32.3120	0	25.057	0	23.698	0	268.7	4	93.3	4	-1E+10	1	-1E+10	1	-1E+10	1	-1E+10	1	-1E+10	1	-1E+10	1
4902551	89	C	01/29/2023	21:04	-131.310	47.864	0	25.00	0	8.7230	0	32.3120	0	25.057	0	24.789	0	268.8	4	93.4	4	-1E+10	1	-1E+10	1	-1E+10	1	-1E+10	1	-1E+10	1	-1E+10	1
4902551	89	C	01/29/2023	21:04	-131.310	47.864	0	26.10	0	8.7220	0	32.3120	0	25.057	0	25.880	0	268.6	4	93.3	4	-1E+10	1	-1E+10	1	-1E+10	1	-1E+10	1	-1E+10	1	-1E+10	1
4902551	89	C	01/29/2023	21:04	-131.310	47.864	0	27.30	0	8.7230	0	32.3120	0	25.057	0	27.069	0	268.7	4	93.3	4	-1E+10	1	-1E+10	1	-1E+10	1	-1E+10	1	-1E+10	1	-1E+10	1
4902551	89	C	01/29/2023	21:04	-131.310	47.864	0	28.00	0	8.7230	0	32.3120	0	25.057	0	27.764	0	268.6	4	93.3	4	-1E+10	1	-1E+10	1	-1E+10	1	-1E+10	1	-1E+10	1	-1E+10	1
4902551	89	C	01/29/2023	21:04	-131.310	47.864	0	28.90	0	8.7230	0	32.3120	0	25.057	0	28.656	0	268.7	4	93.3	4	-1E+10	1	-1E+10	1	-1E+10	1	-1E+10	1	-1E+10	1	-1E+10	1
4902551	89	C	01/29/2023	21:04	-131.310	47.864	0	29.90	0	8.7230	0	32.3120	0	25.057	0	29.647	0	268.6	4	93.3	4	-1E+10	1	-1E+10	1	-1E+10	1	-1E+10	1	-1E+10	1	-1E+10	1
4902551	89	C	01/29/2023	21:04	-131.310	47.864	0	30.90	0	8.7230	0	32.3120	0	25.057	0	30.639	0	268.6	4	93.3	4	-1E+10	1	-1E+10	1	-1E+10	1	-1E+10	1	-1E+10	1	-1E+10	1
4902551	89	C	01/29/2023	21:04	-131.310	47.864	0	31.90	0	8.7240	0	32.3120	0	25.057	0	31.630	0	268.5	4	93.3	4	-1E+10	1	-1E+10	1	-1E+10	1	-1E+10	1	-1E+10	1	-1E+10	1
4902551	89	C	01/29/2023	21:04	-131.310	47.864	0	32.90	0	8.7240	0	32.3120	0	25.057	0	32.622	0	268.6	4	93.3	4	-1E+10	1	-1E+10	1	-1E+10	1	-1E+10	1	-1E+10	1	-1E+10	1
4902551	89	C	01/29/2023	21:04	-131.310	47.864	0	33.90	0	8.7240	0	32.3120	0	25.057	0	33.613	0	268.5	4	93.3	4	-1E+10	1	-1E+10	1	-1E+10	1	-1E+10	1	-1E+10	1	-1E+10	1
4902551	89	C	01/29/2023	21:04	-131.310	47.864	0	35.00	0	8.7240	0	32.3120	0	25.057	0	34.704	0	268.5	4	93.3	4	-1E+10	1	-1E+10	1	-1E+10	1	-1E+10	1	-1E+10	1	-1E+10	1
4902551	89	C	01/29/2023	21:04	-131.310	47.864	0	36.10	0	8.7250	0	32.3120	0	25.057	0	35.794	0	268.4	4	93.2	4	-1E+10	1	-1E+10	1	-1E+10	1	-1E+10	1	-1E+10	1	-1E+10	1
4902551	89	C	01/29/2023	21:04	-131.310	47.864	0	37.10	0	8.7250	0	32.3120	0	25.057	0	36.786	0	268.4	4	93.2	4	-1E+10	1	-1E+10	1	-1E+10	1	-1E+10	1	-1E+10	1	-1E+10	1
4902551	89	C	01/29/2023	21:04	-131.310	47.864	0	37.90	0	8.7250	0	32.3130	0	25.058	0	37.579	0	268.4	4	93.2	4	-1E+10	1	-1E+10	1	-1E+10	1	-1E+10	1	-1E+10	1	-1E+10	1
4902551	89	C	01/29/2023	21:04	-131.310	47.864	0	38.70	0	8.7250	0	32.3120	0	25.057	0	38.372	0	268.3	4	93.2	4	-1E+10	1	-1E+10	1	-1E+10	1	-1E+10	1	-1E+10	1	-1E+10	1
4902551	89	C	01/29/2023	21:04	-131.310	47.864	0	39.80	0	8.7240	0	32.3120	0	25.057	0	39.463	0	268.2	4	93.2	4	-1E+10	1	-1E+10	1	-1E+10	1	-1E+10	1	-1E+10	1	-1E+10	1
4902551	89	C	01/29/2023	21:04	-131.310	47.864	0	40.90	0	8.7240	0	32.3120	0	25.057	0	40.553	0	268.2	4	93.2	4	-1E+10	1	-1E+10	1	-1E+10	1	-1E+10	1	-1E+10	1	-1E+10	1
4902551	89	C	01/29/2023	21:04	-131.310	47.864	0	42.00	0	8.7240	0	32.3110	0	25.056	0	41.644	0	268.2	4	93.1	4	-1E+10	1	-1E+10	1	-1E+10	1	-1E+10	1	-1E+10	1	-1E+10	1
4902551	89	C	01/29/2023	21:04	-131.310	47.864	0	43.10	0	8.7230	0	32.3120	0	25.057	0	42.734	0	268.2	4	93.1	4	-1E+10	1	-1E+10	1	-1E+10	1	-1E+10	1	-1E+10	1	-1E+10	1
4902551	89	C	01/29/2023	21:04	-131.310	47.864	0	44.00	0	8.7230	0	32.3120	0	25.057	0	43.627	0	268.0	4	93.1	4	-1E+10	1	-1E+10	1	-1E+10	1	-1E+10	1	-1E+10	1	-1E+10	1
4902551	89	C	01/29/2023	21:04	-131.310	47.864	0	44.80	0	8.7230	0	32.3120	0	25.057	0	44.420	0	268.0	4	93.1	4	-1E+10	1	-1E+10	1	-1E+10	1	-1E+10	1	-1E+10	1	-1E+10	1
4902551	89	C	01/29/2023	21:04	-131.310	47.864	0	45.90	0	8.7230	0	32.3120	0	25.057	0	45.510	0	268.0	4	93.1	4	-1E+10	1	-1E+10	1	-1E+10	1	-1E+10	1	-1E+10	1	-1E+10	1
4902551	89	C	01/29/2023	21:04	-131.310	47.864	0	47.00	0	8.7240	0	32.3120	0	25.057	0	46.601	0	267.9	4	93.1	4	-1E+10	1	-1E+10	1	-1E+10	1	-1E+10	1	-1E+10	1	-1E+10	1
4902551	89	C	01/29/2023	21:04	-131.310	47.864	0	48.10	0	8.7240	0	32.3120	0	25.057	0	47.691	0	267.9	4	93.1	4	-1E+10	1	-1E+10	1	-1E+10	1	-1E+10	1	-1E+10	1	-1E+10	1
4902551	89	C	01/29/2023	21:04	-131.310	47.864	0	49.00	0	8.7240	0	32.3120	0	25.057	0	48.584	0	267.9	4	93.0	4	-1E+10	1	-1E+10	1	-1E+10	1	-1E+10	1	-1E+10	1	-1E+10	1
4902551	89	C	01/29/2023	21:04	-131.310	47.864	0	49.80	0	8.7240	0	32.3120	0	25.057	0	49.377	0	267.8	4	93.0	4	-1E+10	1	-1E+10	1	-1E+10	1	-1E+10	1	-1E+10	1	-1E+10	1
4902551	89	C	01/29/2023	21:04	-131.310	47.864	0	50.90	0	8.7250	0	32.3120	0	25.057	0	50.467	0	267.8	4	93.0	4	-1E+10	1	-1E+10	1	-1E+10	1	-1E+10	1	-1E+10	1	-1E+10	1
4902551	89	C	01/29/2023	21:04	-131.310	47.864	0	52.00	0	8.7240	0	32.3130	0	25.058	0	51.558	0	267.6	4	93.0	4	-1E+10	1	-1E+10	1	-1E+10	1	-1E+10	1	-1E+10	1	-1E+10	1
4902551	89	C	01/29/2023	21:04	-131.310	47.864	0	53.10	0	8.7240	0	32.3120	0	25.057	0	52.648	0	267.5	4	92.9	4	-1E+10	1	-1E+10	1	-1E+10	1	-1E+10	1	-1E+10	1	-1E+10	1
4902551	89	C	01/29/2023	21:04	-131.310	47.864	0	54.10	0	8.7240	0	32.3120	0	25.057	0	53.640	0	267.3	4	92.9	4	-1E+10	1	-1E+10	1	-1E+10	1	-1E+10	1	-1E+10	1	-1E+10	1
4902551	89	C	01/29/2023	21:04	-131.310	47.864	0	55.00	0	8.7250	0	32.3120	0	25.057	0	54.532	0	267.3	4	92.8	4	-1E+10	1	-1E+10	1	-1E+10	1	-1E+10	1	-1E+10	1	-1E+10	1
4902551	89	C	01/29/2023	21:04	-131.310	47.864	0	55.80	0	8.7250	0	32.3120	0	25.057	0	55.325	0	267.1	4	92.8	4	-1E+10	1	-1E+10	1	-1E+10	1	-1E+10	1	-1E+10	1	-1E+10	1
4902551	89	C	01/29/2023	21:04	-131.310	47.864	0	56.90	0	8.7230	0	32.3120	0	25.058	0	56.415	0	266.9	4	92.7	4	-1E+10	1	-1E+10	1	-1E+10	1	-1E+10	1	-1E+10	1	-1E+10	1
4902551	89	C	01/29/2023	21:04	-131.310	47.864	0	58.10	0	8.7220	0	32.3130	0	25.059	0	57.605	0	266.6	4	92.6	4	-1E+10	1	-1E+10	1	-1E+10	1	-1E+10	1	-1E+10	1	-1E+10	1
4902551	89	C	01/29/2023	21:04	-131.310	47.864	0	58.90	0	8.7230	0	32.3130	0	25.058	0	58.398	0	266.3	4	92.5	4	-1E+10	1	-1E+10	1	-1E+10	1	-1E+10	1	-1E+10	1	-1E+10	1
4902551	89	C	01/29/2023	21:04	-131.310	47.864	0	59.70	0	8.7220	0	32.3130	0	25.059	0	59.191	0	266.2	4	92.5	4	-1E+10	1	-1E+10	1	-1E+10	1	-1E+10	1	-1E+10	1	-1E+10	1
4902551	89	C	01/29/2023	21:04	-131.310	47.864	0	60.80	0	8.7200	0	32.3130	0	25.059	0	60.282	0	265.9	4	92.3	4	-1E+10	1	-1E+10	1	-1E+10	1	-1E+10	1	-1E+10	1	-1E+10	1
4902551	89	C	01/29/2023	21:04	-131.310	47.864	0	61.80	0	8.7190	0	32.3140	0	25.060	0	61.273	0	265.5	4	92.2	4	-1E+10	1	-1E+10	1	-1E+10	1	-1E+10	1	-1E+10	1	-1E+10	1
4902551	89	C	01/29/2023	21:04	-131.310	47.864	0	62.90	0	8.7180	0	32.3130	0	25.059	0	62.363	0	265.1	4	92.1	4	-1E+10	1	-1E+10	1	-1E+10	1	-1E+10	1	-1E+10	1	-1E+10	1
4902551	89	C	01/29/2023	21:04	-131.310	47.864	0	63.90	0	8.7180	0	32.3130	0	25.059	0	63.355	0	264.5	4	91.9	4	-1E+10	1	-1E+10	1	-1E+10	1	-1E+10	1	-1E+10	1	-1E+10	1
4902551	89	C	01/29/2023	21:04	-131.310	47.864	0	64.90	0	8.7160	0	32.3140	0	25.060	0	64.346	0	263.9	4	91.6	4	-1E+10	1	-1E+10	1	-1E+10	1	-1E+10	1	-1E+10	1	-1E+10	1
4902551	89	C	01/29/2023	21:04	-131.310	47.864	0	65.90	0	8.7130	0	32.3140	0	25.061	0	65.337	0	263.1	4	91.4	4	-1E+10	1	-1E+10	1	-1E+10	1	-1E+10	1	-1E+10	1	-1E+10	1
4902551	89	C	01/29/2023	21:04	-131.310	47.864	0	67.20	0	8.7120	0	32.3140	0	25.061	0	66.626	0	262.1	4	91.0	4	-1E+10	1	-1E+10	1	-1E+10	1	-1E+10	1	-1E+10	1	-1E+10	1
4902551	89	C	01/29/2023	21:04	-131.310	47.864	0	67.90	0	8.7040	0	32.3150	0	25.063	0	67.320	0	261.4	4	90.7	4	-1E+10	1	-1E+10	1	-1E+10	1	-1E+10	1	-1E+10	1	-1E+10	1
4902551	89	C	01/29/2023	21:04	-131.310	47.864	0	68.90	0	8.6890	0	32.3180	0	25.068	0	68.311	0	260.4	4	90.4	4	-1E+10	1	-1E+10	1	-1E+10	1	-1E+10	1	-1E+10	1	-1E+10	1
4902551	89	C	01/29/2023	21:04	-131.310	47.864	0	69.90	0	8.6750	0	32.3200	0	25.071	0	69.303	0	259.3	4	90.0	4	-1E+10	1	-1E+10	1	-1E+10	1	-1E+10	1	-1E+10	1	-1E+10	1
4902551	89	C	01/29/2023	21:04	-131.310	47.864	0	70.90	0	8.5560	0	32.3390	0	25.104	0	70.294	0	258.1	4	89.3	4	-1E+10	1	-1E+10	1	-1E+10	1	-1E+10	1	-1E+10	1	-1E+10	1
4902551	89	C	01/29/2023	21:04	-131.310	47.864	0	71.90	0	8.4580	0	32.3580	0	25.134	0	71.285	0	257.1	4	88.8	4	-1E+10	1	-1E+10	1	-1E+10	1	-1E+10	1	-1E+10	1	-1E+10	1
4902551	89	C	01/29/2023	21:04	-131.310	47.864	0	73.00	0	8.3140	0	32.3790	0	25.171	0	72.376	0	256.3	4	88.2	4	-1E+10	1	-1E+10	1	-1E+10	1	-1E+10	1	-1E+10	1	-1E+10	1
4902551	89	C	01/29/2023	21:04	-131.310	47.864	0	74.00	0	8.2100	0	32.3930	0	25.198	0	73.367	0	255.4	4	87.8	4	-1E+10	1	-1E+10	1	-1E+10	1	-1E+10	1	-1E+10	1	-1E+10	1
4902551	89	C	01/29/2023	21:04	-131.310	47.864	0	75.10	0	7.9550	0	32.4290	0	25.263	0	74.457	0	254.5	4	87.0	4	-1E+10	1	-1E+10	1	-1E+10	1	-1E+10	1	-1E+10	1	-1E+10	1
4902551	89	C	01/29/2023	21:04	-131.310	47.864	0	76.10	0	7.6460	0	32.4750	0	25.343	0	75.448	0	255.0	4	86.6	4	-1E+10	1	-1E+10	1	-1E+10	1	-1E+10	1	-1E+10	1	-1E+10	1
4902551	89	C	01/29/2023	21:04	-131.310	47.864	0	76.80	0	7.5770	0	32.4920	0	25.366	0	76.142	0	254.8	4	86.4	4	-1E+10	1	-1E+10	1	-1E+10	1	-1E+10	1	-1E+10	1	-1E+10	1
4902551	89	C	01/29/2023	21:04	-131.310	47.864	0	78.00	0	7.5010	0	32.5050	0	25.387	0	77.332	0	254.5	4	86.1	4	-1E+10	1	-1E+10	1	-1E+10	1	-1E+10	1	-1E+10	1	-1E+10	1
4902551	89	C	01/29/2023	21:04	-131.310	47.864	0	79.10	0	7.4270	0	32.5140	0	25.404	0	78.422	0	254.3	4	85.9	4	-1E+10	1	-1E+10	1	-1E+10	1	-1E+10	1	-1E+10	1	-1E+10	1
4902551	89	C	01/29/2023	21:04	-131.310	47.864	0	79.80	0	7.4110	0	32.5180	0	25.410	0	79.116	0	254.1	4	85.8	4	-1E+10	1	-1E+10	1	-1E+10	1	-1E+10	1	-1E+10	1	-1E+10	1
4902551	89	C	01/29/2023	21:04	-131.310	47.864	0	80.90	0	7.4100	0	32.5170	0	25.409	0	80.206	0	253.8	4	85.7	4	-1E+10	1	-1E+10	1	-1E+10	1	-1E+10	1	-1E+10	1	-1E+10	1
4902551	89	C	01/29/2023	21:04	-131.310	47.864	0	81.90	0	7.3650	0	32.5250	0	25.421	0	81.198	0	253.5	4	85.5	4	-1E+10	1	-1E+10	1	-1E+10	1	-1E+10	1	-1E+10	1	-1E+10	1
4902551	89	C	01/29/2023	21:04	-131.310	47.864	0	82.80	0	7.3040	0	32.5390	0	25.441	0	82.090	0	253.4	4	85.4	4	-1E+10	1	-1E+10	1	-1E+10	1	-1E+10	1	-1E+10	1	-1E+10	1
4902551	89	C	01/29/2023	21:04	-131.310	47.864	0	83.80	0	7.2870	0	32.5400	0	25.444	0	83.081	0	259.6	4	87.4	4	-1E+10	1	-1E+10	1	-1E+10	1	-1E+10	1	-1E+10	1	-1E+10	1
4902551	89	C	01/29/2023	21:04	-131.310	47.864	0	84.80	0	7.2800	0	32.5420	0	25.446	0	84.072	0	259.1	4	87.3	4	-1E+10	1	-1E+10	1	-1E+10	1	-1E+10	1	-1E+10	1	-1E+10	1
4902551	89	C	01/29/2023	21:04	-131.310	47.864	0	85.90	0	7.2650	0	32.5460	0	25.452	0	85.163	0	258.9	4	87.2	4	-1E+10	1	-1E+10	1	-1E+10	1	-1E+10	1	-1E+10	1	-1E+10	1
4902551	89	C	01/29/2023	21:04	-131.310	47.864	0	87.10	0	7.2080	0	32.5570	0	25.468	0	86.352	0	258.7	4	87.0	4	-1E+10	1	-1E+10	1	-1E+10	1	-1E+10	1	-1E+10	1	-1E+10	1
4902551	89	C	01/29/2023	21:04	-131.310	47.864	0	87.90	0	7.1910	0	32.5600	0	25.473	0	87.145	0	258.4	4	86.9	4	-1E+10	1	-1E+10	1	-1E+10	1	-1E+10	1	-1E+10	1	-1E+10	1
4902551	89	C	01/29/2023	21:04	-131.310	47.864	0	88.80	0	7.1540	0	32.5690	0	25.485	0	88.037	0	258.2	4	86.7	4	-1E+10	1	-1E+10	1	-1E+10	1	-1E+10	1	-1E+10	1	-1E+10	1
4902551	89	C	01/29/2023	21:04	-131.310	47.864	0	89.90	0	7.1280	0	32.5740	0	25.492	0	89.127	0	257.9	4	86.6	4	-1E+10	1	-1E+10	1	-1E+10	1	-1E+10	1	-1E+10	1	-1E+10	1
4902551	89	C	01/29/2023	21:04	-131.310	47.864	0	91.00	0	7.0830	0	32.5870	0	25.509	0	90.218	0	257.6	4	86.4	4	-1E+10	1	-1E+10	1	-1E+10	1	-1E+10	1	-1E+10	1	-1E+10	1
4902551	89	C	01/29/2023	21:04	-131.310	47.864	0	92.10	0	7.0390	0	32.5970	0	25.522	0	91.308	0	257.3	4	86.2	4	-1E+10	1	-1E+10	1	-1E+10	1	-1E+10	1	-1E+10	1	-1E+10	1
4902551	89	C	01/29/2023	21:04	-131.310	47.864	0	93.00	0	7.0260	0	32.5990	0	25.526	0	92.200	0	256.9	4	86.1	4	-1E+10	1	-1E+10	1	-1E+10	1	-1E+10	1	-1E+10	1	-1E+10	1
4902551	89	C	01/29/2023	21:04	-131.310	47.864	0	93.80	0	6.9930	0	32.6100	0	25.539	0	92.993	0	256.6	4	85.9	4	-1E+10	1	-1E+10	1	-1E+10	1	-1E+10	1	-1E+10	1	-1E+10	1
4902551	89	C	01/29/2023	21:04	-131.310	47.864	0	94.90	0	6.9600	0	32.6240	0	25.554	0	94.083	0	256.3	4	85.8	4	-1E+10	1	-1E+10	1	-1E+10	1	-1E+10	1	-1E+10	1	-1E+10	1
4902551	89	C	01/29/2023	21:04	-131.310	47.864	0	96.00	0	6.9420	0	32.6280	0	25.560	0	95.173	0	256.1	4	85.7	4	-1E+10	1	-1E+10	1	-1E+10	1	-1E+10	1	-1E+10	1	-1E+10	1
4902551	89	C	01/29/2023	21:04	-131.310	47.864	0	97.10	0	6.8930	0	32.6390	0	25.575	0	96.264	0	255.8	4	85.5	4	-1E+10	1	-1E+10	1	-1E+10	1	-1E+10	1	-1E+10	1	-1E+10	1
4902551	89	C	01/29/2023	21:04	-131.310	47.864	0	98.00	0	6.8720	0	32.6390	0	25.578	0	97.156	0	255.5	4	85.3	4	-1E+10	1	-1E+10	1	-1E+10	1	-1E+10	1	-1E+10	1	-1E+10	1
4902551	89	C	01/29/2023	21:04	-131.310	47.864	0	98.70	0	6.8600	0	32.6400	0	25.580	0	97.850	0	255.2	4	85.2	4	-1E+10	1	-1E+10	1	-1E+10	1	-1E+10	1	-1E+10	1	-1E+10	1
4902551	89	C	01/29/2023	21:04	-131.310	47.864	0	100.00	0	6.8510	0	32.6380	0	25.580	0	99.138	0	254.3	4	84.9	4	-1E+10	1	-1E+10	1	-1E+10	1	-1E+10	1	-1E+10	1	-1E+10	1
4902551	89	C	01/29/2023	21:04	-131.310	47.864	0	101.00	0	6.8310	0	32.6550	0	25.596	0	100.129	0	253.4	4	84.5	4	-1E+10	1	-1E+10	1	-1E+10	1	-1E+10	1	-1E+10	1	-1E+10	1
4902551	89	C	01/29/2023	21:04	-131.310	47.864	0	102.00	0	6.8190	0	32.6790	0	25.616	0	101.120	0	252.1	4	84.1	4	-1E+10	1	-1E+10	1	-1E+10	1	-1E+10	1	-1E+10	1	-1E+10	1
4902551	89	C	01/29/2023	21:04	-131.310	47.864	0	103.10	0	6.8120	0	32.6900	0	25.626	0	102.211	0	250.5	4	83.6	4	-1E+10	1	-1E+10	1	-1E+10	1	-1E+10	1	-1E+10	1	-1E+10	1
4902551	89	C	01/29/2023	21:04	-131.310	47.864	0	104.10	0	6.7910	0	32.7020	0	25.638	0	103.202	0	249.3	4	83.1	4	-1E+10	1	-1E+10	1	-1E+10	1	-1E+10	1	-1E+10	1	-1E+10	1
4902551	89	C	01/29/2023	21:04	-131.310	47.864	0	104.80	0	6.7530	0	32.7350	0	25.669	0	103.895	0	248.8	4	82.9	4	-1E+10	1	-1E+10	1	-1E+10	1	-1E+10	1	-1E+10	1	-1E+10	1
4902551	89	C	01/29/2023	21:04	-131.310	47.864	0	105.90	0	6.7400	0	32.7520	0	25.684	0	104.986	0	248.1	4	82.7	4	-1E+10	1	-1E+10	1	-1E+10	1	-1E+10	1	-1E+10	1	-1E+10	1
4902551	89	C	01/29/2023	21:04	-131.310	47.864	0	107.10	0	6.7450	0	32.7560	0	25.687	0	106.175	0	247.4	4	82.5	4	-1E+10	1	-1E+10	1	-1E+10	1	-1E+10	1	-1E+10	1	-1E+10	1
4902551	89	C	01/29/2023	21:04	-131.310	47.864	0	107.90	0	6.7510	0	32.7650	0	25.693	0	106.968	0	247.0	4	82.3	4	-1E+10	1	-1E+10	1	-1E+10	1	-1E+10	1	-1E+10	1	-1E+10	1
4902551	89	C	01/29/2023	21:04	-131.310	47.864	0	109.20	0	6.7560	0	32.7730	0	25.699	0	108.256	0	246.4	4	82.1	4	-1E+10	1	-1E+10	1	-1E+10	1	-1E+10	1	-1E+10	1	-1E+10	1
4902551	89	C	01/29/2023	21:04	-131.310	47.864	0	110.10	0	6.7600	0	32.7760	0	25.700	0	109.148	0	246.0	4	82.0	4	-1E+10	1	-1E+10	1	-1E+10	1	-1E+10	1	-1E+10	1	-1E+10	1
4902551	89	C	01/29/2023	21:04	-131.310	47.864	0	111.00	0	6.7610	0	32.7900	0	25.711	0	110.040	0	245.7	4	81.9	4	-1E+10	1	-1E+10	1	-1E+10	1	-1E+10	1	-1E+10	1	-1E+10	1
4902551	89	C	01/29/2023	21:04	-131.310	47.864	0	111.90	0	6.7590	0	32.7930	0	25.714	0	110.932	0	245.4	4	81.8	4	-1E+10	1	-1E+10	1	-1E+10	1	-1E+10	1	-1E+10	1	-1E+10	1
4902551	89	C	01/29/2023	21:04	-131.310	47.864	0	113.10	0	6.7520	0	32.7980	0	25.719	0	112.122	0	244.8	4	81.6	4	-1E+10	1	-1E+10	1	-1E+10	1	-1E+10	1	-1E+10	1	-1E+10	1
4902551	89	C	01/29/2023	21:04	-131.310	47.864	0	114.00	0	6.7460	0	32.7990	0	25.720	0	113.014	0	244.4	4	81.5	4	-1E+10	1	-1E+10	1	-1E+10	1	-1E+10	1	-1E+10	1	-1E+10	1
4902551	89	C	01/29/2023	21:04	-131.310	47.864	0	115.00	0	6.7030	0	32.8120	0	25.736	0	114.005	0	244.0	4	81.3	4	-1E+10	1	-1E+10	1	-1E+10	1	-1E+10	1	-1E+10	1	-1E+10	1
4902551	89	C	01/29/2023	21:04	-131.310	47.864	0	116.00	0	6.6790	0	32.8220	0	25.747	0	114.996	0	243.4	4	81.0	4	-1E+10	1	-1E+10	1	-1E+10	1	-1E+10	1	-1E+10	1	-1E+10	1
4902551	89	C	01/29/2023	21:04	-131.310	47.864	0	117.00	0	6.6640	0	32.8310	0	25.756	0	115.987	0	242.6	4	80.8	4	-1E+10	1	-1E+10	1	-1E+10	1	-1E+10	1	-1E+10	1	-1E+10	1
4902551	89	C	01/29/2023	21:04	-131.310	47.864	0	118.10	0	6.6530	0	32.8350	0	25.761	0	117.077	0	241.8	4	80.4	4	-1E+10	1	-1E+10	1	-1E+10	1	-1E+10	1	-1E+10	1	-1E+10	1
4902551	89	C	01/29/2023	21:04	-131.310	47.864	0	118.90	0	6.6490	0	32.8370	0	25.763	0	117.870	0	241.0	4	80.2	4	-1E+10	1	-1E+10	1	-1E+10	1	-1E+10	1	-1E+10	1	-1E+10	1
4902551	89	C	01/29/2023	21:04	-131.310	47.864	0	119.70	0	6.6300	0	32.8390	0	25.767	0	118.663	0	239.9	4	79.8	4	-1E+10	1	-1E+10	1	-1E+10	1	-1E+10	1	-1E+10	1	-1E+10	1
4902551	89	C	01/29/2023	21:04	-131.310	47.864	0	120.80	0	6.6180	0	32.8420	0	25.771	0	119.753	0	238.6	4	79.3	4	-1E+10	1	-1E+10	1	-1E+10	1	-1E+10	1	-1E+10	1	-1E+10	1
4902551	89	C	01/29/2023	21:04	-131.310	47.864	0	122.00	0	6.6110	0	32.8490	0	25.778	0	120.942	0	237.1	4	78.8	4	-1E+10	1	-1E+10	1	-1E+10	1	-1E+10	1	-1E+10	1	-1E+10	1
4902551	89	C	01/29/2023	21:04	-131.310	47.864	0	122.90	0	6.6090	0	32.8650	0	25.790	0	121.834	0	236.0	4	78.5	4	-1E+10	1	-1E+10	1	-1E+10	1	-1E+10	1	-1E+10	1	-1E+10	1
4902551	89	C	01/29/2023	21:04	-131.310	47.864	0	123.80	0	6.6100	0	32.8720	0	25.796	0	122.726	0	234.7	4	78.0	4	-1E+10	1	-1E+10	1	-1E+10	1	-1E+10	1	-1E+10	1	-1E+10	1
4902551	89	C	01/29/2023	21:04	-131.310	47.864	0	125.00	0	6.6140	0	32.9030	0	25.820	0	123.915	0	232.9	4	77.5	4	-1E+10	1	-1E+10	1	-1E+10	1	-1E+10	1	-1E+10	1	-1E+10	1
4902551	89	C	01/29/2023	21:04	-131.310	47.864	0	126.00	0	6.6200	0	32.9400	0	25.848	0	124.906	0	231.7	4	77.1	4	-1E+10	1	-1E+10	1	-1E+10	1	-1E+10	1	-1E+10	1	-1E+10	1
4902551	89	C	01/29/2023	21:04	-131.310	47.864	0	126.90	0	6.6190	0	32.9700	0	25.872	0	125.798	0	230.7	4	76.8	4	-1E+10	1	-1E+10	1	-1E+10	1	-1E+10	1	-1E+10	1	-1E+10	1
4902551	89	C	01/29/2023	21:04	-131.310	47.864	0	127.90	0	6.6180	0	32.9740	0	25.875	0	126.789	0	229.8	4	76.5	4	-1E+10	1	-1E+10	1	-1E+10	1	-1E+10	1	-1E+10	1	-1E+10	1
4902551	89	C	01/29/2023	21:04	-131.310	47.864	0	128.80	0	6.6150	0	32.9790	0	25.880	0	127.681	0	228.8	4	76.2	4	-1E+10	1	-1E+10	1	-1E+10	1	-1E+10	1	-1E+10	1	-1E+10	1
4902551	89	C	01/29/2023	21:04	-131.310	47.864	0	130.10	0	6.6010	0	33.0020	0	25.900	0	128.969	0	227.7	4	75.8	4	-1E+10	1	-1E+10	1	-1E+10	1	-1E+10	1	-1E+10	1	-1E+10	1
4902551	89	C	01/29/2023	21:04	-131.310	47.864	0	131.10	0	6.5850	0	33.0280	0	25.922	0	129.960	0	227.1	4	75.6	4	-1E+10	1	-1E+10	1	-1E+10	1	-1E+10	1	-1E+10	1	-1E+10	1
4902551	89	C	01/29/2023	21:04	-131.310	47.864	0	131.80	0	6.5770	0	33.0390	0	25.932	0	130.654	0	226.6	4	75.4	4	-1E+10	1	-1E+10	1	-1E+10	1	-1E+10	1	-1E+10	1	-1E+10	1
4902551	89	C	01/29/2023	21:04	-131.310	47.864	0	132.80	0	6.5750	0	33.0420	0	25.935	0	131.645	0	225.8	4	75.1	4	-1E+10	1	-1E+10	1	-1E+10	1	-1E+10	1	-1E+10	1	-1E+10	1
4902551	89	C	01/29/2023	21:04	-131.310	47.864	0	133.90	0	6.5660	0	33.0530	0	25.944	0	132.735	0	225.0	4	74.8	4	-1E+10	1	-1E+10	1	-1E+10	1	-1E+10	1	-1E+10	1	-1E+10	1
4902551	89	C	01/29/2023	21:04	-131.310	47.864	0	134.80	0	6.5580	0	33.0680	0	25.957	0	133.627	0	224.2	4	74.6	4	-1E+10	1	-1E+10	1	-1E+10	1	-1E+10	1	-1E+10	1	-1E+10	1
4902551	89	C	01/29/2023	21:04	-131.310	47.864	0	135.90	0	6.5510	0	33.0790	0	25.967	0	134.717	0	223.4	4	74.3	4	-1E+10	1	-1E+10	1	-1E+10	1	-1E+10	1	-1E+10	1	-1E+10	1
4902551	89	C	01/29/2023	21:04	-131.310	47.864	0	136.90	0	6.5470	0	33.0820	0	25.970	0	135.708	0	222.5	4	74.0	4	-1E+10	1	-1E+10	1	-1E+10	1	-1E+10	1	-1E+10	1	-1E+10	1
4902551	89	C	01/29/2023	21:04	-131.310	47.864	0	137.90	0	6.5450	0	33.0880	0	25.975	0	136.699	0	221.6	4	73.7	4	-1E+10	1	-1E+10	1	-1E+10	1	-1E+10	1	-1E+10	1	-1E+10	1
4902551	89	C	01/29/2023	21:04	-131.310	47.864	0	139.00	0	6.5260	0	33.1150	0	25.998	0	137.789	0	220.7	4	73.4	4	-1E+10	1	-1E+10	1	-1E+10	1	-1E+10	1	-1E+10	1	-1E+10	1
4902551	89	C	01/29/2023	21:04	-131.310	47.864	0	140.10	0	6.5200	0	33.1260	0	26.008	0	138.879	0	219.9	4	73.1	4	-1E+10	1	-1E+10	1	-1E+10	1	-1E+10	1	-1E+10	1	-1E+10	1
4902551	89	C	01/29/2023	21:04	-131.310	47.864	0	140.90	0	6.5200	0	33.1270	0	26.009	0	139.672	0	219.2	4	72.9	4	-1E+10	1	-1E+10	1	-1E+10	1	-1E+10	1	-1E+10	1	-1E+10	1
4902551	89	C	01/29/2023	21:04	-131.310	47.864	0	141.90	0	6.5190	0	33.1270	0	26.009	0	140.663	0	218.2	4	72.5	4	-1E+10	1	-1E+10	1	-1E+10	1	-1E+10	1	-1E+10	1	-1E+10	1
4902551	89	C	01/29/2023	21:04	-131.310	47.864	0	143.00	0	6.5170	0	33.1340	0	26.015	0	141.753	0	217.1	4	72.2	4	-1E+10	1	-1E+10	1	-1E+10	1	-1E+10	1	-1E+10	1	-1E+10	1
4902551	89	C	01/29/2023	21:04	-131.310	47.864	0	144.10	0	6.5150	0	33.1380	0	26.018	0	142.843	0	215.8	4	71.7	4	-1E+10	1	-1E+10	1	-1E+10	1	-1E+10	1	-1E+10	1	-1E+10	1
4902551	89	C	01/29/2023	21:04	-131.310	47.864	0	145.10	0	6.5140	0	33.1410	0	26.021	0	143.834	0	214.4	4	71.3	4	-1E+10	1	-1E+10	1	-1E+10	1	-1E+10	1	-1E+10	1	-1E+10	1
4902551	89	C	01/29/2023	21:04	-131.310	47.864	0	145.80	0	6.5140	0	33.1410	0	26.021	0	144.527	0	213.2	4	70.9	4	-1E+10	1	-1E+10	1	-1E+10	1	-1E+10	1	-1E+10	1	-1E+10	1
4902551	89	C	01/29/2023	21:04	-131.310	47.864	0	146.90	0	6.5050	0	33.1560	0	26.034	0	145.617	0	211.5	4	70.3	4	-1E+10	1	-1E+10	1	-1E+10	1	-1E+10	1	-1E+10	1	-1E+10	1
4902551	89	C	01/29/2023	21:04	-131.310	47.864	0	148.00	0	6.4880	0	33.1870	0	26.060	0	146.707	0	209.7	4	69.7	4	-1E+10	1	-1E+10	1	-1E+10	1	-1E+10	1	-1E+10	1	-1E+10	1
4902551	89	C	01/29/2023	21:04	-131.310	47.864	0	148.70	0	6.4800	0	33.2000	0	26.072	0	147.401	0	208.5	4	69.3	4	-1E+10	1	-1E+10	1	-1E+10	1	-1E+10	1	-1E+10	1	-1E+10	1
4902551	89	C	01/29/2023	21:04	-131.310	47.864	0	149.90	0	6.4690	0	33.2160	0	26.086	0	148.590	0	206.7	4	68.7	4	-1E+10	1	-1E+10	1	-1E+10	1	-1E+10	1	-1E+10	1	-1E+10	1
4902551	89	C	01/29/2023	21:04	-131.310	47.864	0	151.10	0	6.4470	0	33.2450	0	26.111	0	149.779	0	204.6	4	67.9	4	-1E+10	1	-1E+10	1	-1E+10	1	-1E+10	1	-1E+10	1	-1E+10	1
4902551	89	C	01/29/2023	21:04	-131.310	47.864	0	152.00	0	6.4220	0	33.2710	0	26.135	0	150.671	0	203.5	4	67.6	4	-1E+10	1	-1E+10	1	-1E+10	1	-1E+10	1	-1E+10	1	-1E+10	1
4902551	89	C	01/29/2023	21:04	-131.310	47.864	0	152.80	0	6.4080	0	33.2900	0	26.152	0	151.464	0	202.4	4	67.2	4	-1E+10	1	-1E+10	1	-1E+10	1	-1E+10	1	-1E+10	1	-1E+10	1
4902551	89	C	01/29/2023	21:04	-131.310	47.864	0	153.60	0	6.4010	0	33.3010	0	26.161	0	152.256	0	201.3	4	66.8	4	-1E+10	1	-1E+10	1	-1E+10	1	-1E+10	1	-1E+10	1	-1E+10	1
4902551	89	C	01/29/2023	21:04	-131.310	47.864	0	154.90	0	6.3790	0	33.3380	0	26.193	0	153.544	0	199.7	4	66.3	4	-1E+10	1	-1E+10	1	-1E+10	1	-1E+10	1	-1E+10	1	-1E+10	1
4902551	89	C	01/29/2023	21:04	-131.310	47.864	0	156.20	0	6.3730	0	33.3430	0	26.198	0	154.833	0	197.9	4	65.7	4	-1E+10	1	-1E+10	1	-1E+10	1	-1E+10	1	-1E+10	1	-1E+10	1
4902551	89	C	01/29/2023	21:04	-131.310	47.864	0	157.00	0	6.3550	0	33.3660	0	26.219	0	155.625	0	196.7	4	65.3	4	-1E+10	1	-1E+10	1	-1E+10	1	-1E+10	1	-1E+10	1	-1E+10	1
4902551	89	C	01/29/2023	21:04	-131.310	47.864	0	157.80	0	6.3500	0	33.3720	0	26.224	0	156.418	0	195.5	4	64.8	4	-1E+10	1	-1E+10	1	-1E+10	1	-1E+10	1	-1E+10	1	-1E+10	1
4902551	89	C	01/29/2023	21:04	-131.310	47.864	0	158.60	0	6.3430	0	33.3940	0	26.242	0	157.211	0	194.2	4	64.4	4	-1E+10	1	-1E+10	1	-1E+10	1	-1E+10	1	-1E+10	1	-1E+10	1
4902551	89	C	01/29/2023	21:04	-131.310	47.864	0	159.90	0	6.3170	0	33.4310	0	26.275	0	158.499	0	192.4	4	63.8	4	-1E+10	1	-1E+10	1	-1E+10	1	-1E+10	1	-1E+10	1	-1E+10	1
4902551	89	C	01/29/2023	21:04	-131.310	47.864	0	161.20	0	6.3050	0	33.4580	0	26.298	0	159.787	0	191.1	4	63.4	4	-1E+10	1	-1E+10	1	-1E+10	1	-1E+10	1	-1E+10	1	-1E+10	1
4902551	89	C	01/29/2023	21:04	-131.310	47.864	0	162.10	0	6.3130	0	33.4660	0	26.303	0	160.679	0	190.2	4	63.1	4	-1E+10	1	-1E+10	1	-1E+10	1	-1E+10	1	-1E+10	1	-1E+10	1
4902551	89	C	01/29/2023	21:04	-131.310	47.864	0	163.00	0	6.3200	0	33.4680	0	26.304	0	161.570	0	189.3	4	62.8	4	-1E+10	1	-1E+10	1	-1E+10	1	-1E+10	1	-1E+10	1	-1E+10	1
4902551	89	C	01/29/2023	21:04	-131.310	47.864	0	163.80	0	6.3270	0	33.4720	0	26.306	0	162.363	0	188.2	4	62.5	4	-1E+10	1	-1E+10	1	-1E+10	1	-1E+10	1	-1E+10	1	-1E+10	1
4902551	89	C	01/29/2023	21:04	-131.310	47.864	0	164.70	0	6.3270	0	33.4770	0	26.310	0	163.255	0	187.1	4	62.1	4	-1E+10	1	-1E+10	1	-1E+10	1	-1E+10	1	-1E+10	1	-1E+10	1
4902551	89	C	01/29/2023	21:04	-131.310	47.864	0	165.60	0	6.3180	0	33.4880	0	26.320	0	164.147	0	186.0	4	61.7	4	-1E+10	1	-1E+10	1	-1E+10	1	-1E+10	1	-1E+10	1	-1E+10	1
4902551	89	C	01/29/2023	21:04	-131.310	47.864	0	166.90	0	6.2880	0	33.5150	0	26.345	0	165.435	0	184.7	4	61.3	4	-1E+10	1	-1E+10	1	-1E+10	1	-1E+10	1	-1E+10	1	-1E+10	1
4902551	89	C	01/29/2023	21:04	-131.310	47.864	0	168.20	0	6.2680	0	33.5340	0	26.362	0	166.723	0	183.6	4	60.9	4	-1E+10	1	-1E+10	1	-1E+10	1	-1E+10	1	-1E+10	1	-1E+10	1
4902551	89	C	01/29/2023	21:04	-131.310	47.864	0	169.10	0	6.2590	0	33.5370	0	26.366	0	167.614	0	182.9	4	60.6	4	-1E+10	1	-1E+10	1	-1E+10	1	-1E+10	1	-1E+10	1	-1E+10	1
4902551	89	C	01/29/2023	21:04	-131.310	47.864	0	170.00	0	6.2510	0	33.5410	0	26.370	0	168.506	0	182.0	4	60.3	4	-1E+10	1	-1E+10	1	-1E+10	1	-1E+10	1	-1E+10	1	-1E+10	1
4902551	89	C	01/29/2023	21:04	-131.310	47.864	0	170.90	0	6.2430	0	33.5450	0	26.374	0	169.398	0	181.0	4	60.0	4	-1E+10	1	-1E+10	1	-1E+10	1	-1E+10	1	-1E+10	1	-1E+10	1
4902551	89	C	01/29/2023	21:04	-131.310	47.864	0	171.80	0	6.2390	0	33.5560	0	26.384	0	170.290	0	180.1	4	59.7	4	-1E+10	1	-1E+10	1	-1E+10	1	-1E+10	1	-1E+10	1	-1E+10	1
4902551	89	C	01/29/2023	21:04	-131.310	47.864	0	172.70	0	6.2340	0	33.5670	0	26.393	0	171.181	0	179.2	4	59.4	4	-1E+10	1	-1E+10	1	-1E+10	1	-1E+10	1	-1E+10	1	-1E+10	1
4902551	89	C	01/29/2023	21:04	-131.310	47.864	0	173.70	0	6.2290	0	33.5690	0	26.395	0	172.172	0	178.4	4	59.1	4	-1E+10	1	-1E+10	1	-1E+10	1	-1E+10	1	-1E+10	1	-1E+10	1
4902551	89	C	01/29/2023	21:04	-131.310	47.864	0	174.60	0	6.2140	0	33.5730	0	26.400	0	173.064	0	177.5	4	58.8	4	-1E+10	1	-1E+10	1	-1E+10	1	-1E+10	1	-1E+10	1	-1E+10	1
4902551	89	C	01/29/2023	21:04	-131.310	47.864	0	175.90	0	6.2050	0	33.5810	0	26.408	0	174.352	0	176.2	4	58.3	4	-1E+10	1	-1E+10	1	-1E+10	1	-1E+10	1	-1E+10	1	-1E+10	1
4902551	89	C	01/29/2023	21:04	-131.310	47.864	0	177.30	0	6.1930	0	33.5840	0	26.412	0	175.739	0	174.7	4	57.8	4	-1E+10	1	-1E+10	1	-1E+10	1	-1E+10	1	-1E+10	1	-1E+10	1
4902551	89	C	01/29/2023	21:04	-131.310	47.864	0	178.30	0	6.1800	0	33.5850	0	26.414	0	176.730	0	173.7	4	57.5	4	-1E+10	1	-1E+10	1	-1E+10	1	-1E+10	1	-1E+10	1	-1E+10	1
4902551	89	C	01/29/2023	21:04	-131.310	47.864	0	179.20	0	6.1720	0	33.5870	0	26.417	0	177.621	0	172.5	4	57.1	4	-1E+10	1	-1E+10	1	-1E+10	1	-1E+10	1	-1E+10	1	-1E+10	1
4902551	89	C	01/29/2023	21:04	-131.310	47.864	0	180.20	0	6.1590	0	33.5910	0	26.421	0	178.612	0	171.2	4	56.6	4	-1E+10	1	-1E+10	1	-1E+10	1	-1E+10	1	-1E+10	1	-1E+10	1
4902551	89	C	01/29/2023	21:04	-131.310	47.864	0	181.10	0	6.1410	0	33.6020	0	26.432	0	179.504	0	169.8	4	56.2	4	-1E+10	1	-1E+10	1	-1E+10	1	-1E+10	1	-1E+10	1	-1E+10	1
4902551	89	C	01/29/2023	21:04	-131.310	47.864	0	182.00	0	6.1260	0	33.6100	0	26.441	0	180.395	0	168.6	4	55.7	4	-1E+10	1	-1E+10	1	-1E+10	1	-1E+10	1	-1E+10	1	-1E+10	1
4902551	89	C	01/29/2023	21:04	-131.310	47.864	0	183.00	0	6.1170	0	33.6170	0	26.447	0	181.386	0	167.3	4	55.3	4	-1E+10	1	-1E+10	1	-1E+10	1	-1E+10	1	-1E+10	1	-1E+10	1
4902551	89	C	01/29/2023	21:04	-131.310	47.864	0	183.90	0	6.0900	0	33.6340	0	26.464	0	182.278	0	166.1	4	54.9	4	-1E+10	1	-1E+10	1	-1E+10	1	-1E+10	1	-1E+10	1	-1E+10	1
4902551	89	C	01/29/2023	21:04	-131.310	47.864	0	184.90	0	6.0730	0	33.6450	0	26.475	0	183.269	0	165.1	4	54.5	4	-1E+10	1	-1E+10	1	-1E+10	1	-1E+10	1	-1E+10	1	-1E+10	1
4902551	89	C	01/29/2023	21:04	-131.310	47.864	0	185.90	0	6.0640	0	33.6540	0	26.483	0	184.259	0	164.2	4	54.2	4	-1E+10	1	-1E+10	1	-1E+10	1	-1E+10	1	-1E+10	1	-1E+10	1
4902551	89	C	01/29/2023	21:04	-131.310	47.864	0	186.80	0	6.0430	0	33.6630	0	26.493	0	185.151	0	163.4	4	53.9	4	-1E+10	1	-1E+10	1	-1E+10	1	-1E+10	1	-1E+10	1	-1E+10	1
4902551	89	C	01/29/2023	21:04	-131.310	47.864	0	187.80	0	6.0370	0	33.6640	0	26.494	0	186.142	0	162.6	4	53.7	4	-1E+10	1	-1E+10	1	-1E+10	1	-1E+10	1	-1E+10	1	-1E+10	1
4902551	89	C	01/29/2023	21:04	-131.310	47.864	0	188.80	0	6.0290	0	33.6670	0	26.498	0	187.132	0	161.7	4	53.4	4	-1E+10	1	-1E+10	1	-1E+10	1	-1E+10	1	-1E+10	1	-1E+10	1
4902551	89	C	01/29/2023	21:04	-131.310	47.864	0	189.80	0	6.0110	0	33.6750	0	26.506	0	188.123	0	160.8	4	53.1	4	-1E+10	1	-1E+10	1	-1E+10	1	-1E+10	1	-1E+10	1	-1E+10	1
4902551	89	C	01/29/2023	21:04	-131.310	47.864	0	190.80	0	5.9960	0	33.6800	0	26.512	0	189.114	0	159.9	4	52.7	4	-1E+10	1	-1E+10	1	-1E+10	1	-1E+10	1	-1E+10	1	-1E+10	1
4902551	89	C	01/29/2023	21:04	-131.310	47.864	0	191.80	0	5.9760	0	33.6840	0	26.518	0	190.105	0	159.1	4	52.4	4	-1E+10	1	-1E+10	1	-1E+10	1	-1E+10	1	-1E+10	1	-1E+10	1
4902551	89	C	01/29/2023	21:04	-131.310	47.864	0	192.70	0	5.9470	0	33.6920	0	26.528	0	190.996	0	158.3	4	52.2	4	-1E+10	1	-1E+10	1	-1E+10	1	-1E+10	1	-1E+10	1	-1E+10	1
4902551	89	C	01/29/2023	21:04	-131.310	47.864	0	193.70	0	5.9190	0	33.7000	0	26.538	0	191.987	0	157.6	4	51.9	4	-1E+10	1	-1E+10	1	-1E+10	1	-1E+10	1	-1E+10	1	-1E+10	1
4902551	89	C	01/29/2023	21:04	-131.310	47.864	0	194.70	0	5.9140	0	33.7010	0	26.539	0	192.978	0	156.8	4	51.6	4	-1E+10	1	-1E+10	1	-1E+10	1	-1E+10	1	-1E+10	1	-1E+10	1
4902551	89	C	01/29/2023	21:04	-131.310	47.864	0	195.70	0	5.8890	0	33.7050	0	26.545	0	193.968	0	156.1	4	51.4	4	-1E+10	1	-1E+10	1	-1E+10	1	-1E+10	1	-1E+10	1	-1E+10	1
4902551	89	C	01/29/2023	21:04	-131.310	47.864	0	196.70	0	5.8600	0	33.7110	0	26.554	0	194.959	0	155.4	4	51.1	4	-1E+10	1	-1E+10	1	-1E+10	1	-1E+10	1	-1E+10	1	-1E+10	1
4902551	89	C	01/29/2023	21:04	-131.310	47.864	0	197.70	0	5.8470	0	33.7130	0	26.557	0	195.950	0	154.8	4	50.9	4	-1E+10	1	-1E+10	1	-1E+10	1	-1E+10	1	-1E+10	1	-1E+10	1
4902551	89	C	01/29/2023	21:04	-131.310	47.864	0	198.70	0	5.8350	0	33.7150	0	26.560	0	196.940	0	154.2	4	50.7	4	-1E+10	1	-1E+10	1	-1E+10	1	-1E+10	1	-1E+10	1	-1E+10	1
4902551	89	C	01/29/2023	21:04	-131.310	47.864	0	199.70	0	5.8240	0	33.7150	0	26.561	0	197.931	0	153.7	4	50.5	4	-1E+10	1	-1E+10	1	-1E+10	1	-1E+10	1	-1E+10	1	-1E+10	1
4902551	89	C	01/29/2023	21:04	-131.310	47.864	0	200.60	0	5.7920	0	33.7210	0	26.570	0	198.823	0	153.4	4	50.4	4	-1E+10	1	-1E+10	1	-1E+10	1	-1E+10	1	-1E+10	1	-1E+10	1
4902551	89	C	01/29/2023	21:04	-131.310	47.864	0	201.70	0	5.7780	0	33.7240	0	26.574	0	199.912	0	153.0	4	50.2	4	-1E+10	1	-1E+10	1	-1E+10	1	-1E+10	1	-1E+10	1	-1E+10	1
4902551	89	C	01/29/2023	21:04	-131.310	47.864	0	202.70	0	5.7710	0	33.7240	0	26.575	0	200.903	0	152.6	4	50.1	4	-1E+10	1	-1E+10	1	-1E+10	1	-1E+10	1	-1E+10	1	-1E+10	1
4902551	89	C	01/29/2023	21:04	-131.310	47.864	0	203.60	0	5.7700	0	33.7240	0	26.575	0	201.795	0	152.2	4	49.9	4	-1E+10	1	-1E+10	1	-1E+10	1	-1E+10	1	-1E+10	1	-1E+10	1
4902551	89	C	01/29/2023	21:04	-131.310	47.864	0	204.60	0	5.7690	0	33.7240	0	26.575	0	202.785	0	151.8	4	49.8	4	-1E+10	1	-1E+10	1	-1E+10	1	-1E+10	1	-1E+10	1	-1E+10	1
4902551	89	C	01/29/2023	21:04	-131.310	47.864	0	205.50	0	5.7670	0	33.7240	0	26.575	0	203.677	0	151.3	4	49.7	4	-1E+10	1	-1E+10	1	-1E+10	1	-1E+10	1	-1E+10	1	-1E+10	1
4902551	89	C	01/29/2023	21:04	-131.310	47.864	0	207.00	0	5.7640	0	33.7240	0	26.576	0	205.163	0	150.4	4	49.4	4	-1E+10	1	-1E+10	1	-1E+10	1	-1E+10	1	-1E+10	1	-1E+10	1
4902551	89	C	01/29/2023	21:04	-131.310	47.864	0	208.20	0	5.7630	0	33.7250	0	26.577	0	206.351	0	149.5	4	49.0	4	-1E+10	1	-1E+10	1	-1E+10	1	-1E+10	1	-1E+10	1	-1E+10	1
4902551	89	C	01/29/2023	21:04	-131.310	47.864	0	209.00	0	5.7620	0	33.7240	0	26.576	0	207.144	0	148.8	4	48.8	4	-1E+10	1	-1E+10	1	-1E+10	1	-1E+10	1	-1E+10	1	-1E+10	1
4902551	89	C	01/29/2023	21:04	-131.310	47.864	0	209.80	0	5.7480	0	33.7270	0	26.580	0	207.936	0	148.1	4	48.6	4	-1E+10	1	-1E+10	1	-1E+10	1	-1E+10	1	-1E+10	1	-1E+10	1
4902551	89	C	01/29/2023	21:04	-131.310	47.864	0	211.00	0	5.7280	0	33.7300	0	26.585	0	209.125	0	147.3	4	48.3	4	-1E+10	1	-1E+10	1	-1E+10	1	-1E+10	1	-1E+10	1	-1E+10	1
4902551	89	C	01/29/2023	21:04	-131.310	47.864	0	212.20	0	5.7100	0	33.7320	0	26.589	0	210.314	0	146.6	4	48.1	4	-1E+10	1	-1E+10	1	-1E+10	1	-1E+10	1	-1E+10	1	-1E+10	1
4902551	89	C	01/29/2023	21:04	-131.310	47.864	0	212.90	0	5.7040	0	33.7320	0	26.589	0	211.007	0	146.1	4	47.9	4	-1E+10	1	-1E+10	1	-1E+10	1	-1E+10	1	-1E+10	1	-1E+10	1
4902551	89	C	01/29/2023	21:04	-131.310	47.864	0	213.70	0	5.6830	0	33.7340	0	26.594	0	211.800	0	145.8	4	47.8	4	-1E+10	1	-1E+10	1	-1E+10	1	-1E+10	1	-1E+10	1	-1E+10	1
4902551	89	C	01/29/2023	21:04	-131.310	47.864	0	214.90	0	5.6690	0	33.7360	0	26.597	0	212.988	0	145.2	4	47.6	4	-1E+10	1	-1E+10	1	-1E+10	1	-1E+10	1	-1E+10	1	-1E+10	1
4902551	89	C	01/29/2023	21:04	-131.310	47.864	0	216.10	0	5.6530	0	33.7370	0	26.600	0	214.177	0	144.8	4	47.4	4	-1E+10	1	-1E+10	1	-1E+10	1	-1E+10	1	-1E+10	1	-1E+10	1
4902551	89	C	01/29/2023	21:04	-131.310	47.864	0	216.90	0	5.6470	0	33.7360	0	26.600	0	214.970	0	144.3	4	47.2	4	-1E+10	1	-1E+10	1	-1E+10	1	-1E+10	1	-1E+10	1	-1E+10	1
4902551	89	C	01/29/2023	21:04	-131.310	47.864	0	217.70	0	5.6450	0	33.7370	0	26.601	0	215.762	0	143.9	4	47.1	4	-1E+10	1	-1E+10	1	-1E+10	1	-1E+10	1	-1E+10	1	-1E+10	1
4902551	89	C	01/29/2023	21:04	-131.310	47.864	0	218.90	0	5.6170	0	33.7360	0	26.603	0	216.951	0	143.1	4	46.8	4	-1E+10	1	-1E+10	1	-1E+10	1	-1E+10	1	-1E+10	1	-1E+10	1
4902551	89	C	01/29/2023	21:04	-131.310	47.864	0	220.20	0	5.5830	0	33.7380	0	26.609	0	218.239	0	142.6	4	46.6	4	-1E+10	1	-1E+10	1	-1E+10	1	-1E+10	1	-1E+10	1	-1E+10	1
4902551	89	C	01/29/2023	21:04	-131.310	47.864	0	221.00	0	5.5650	0	33.7380	0	26.611	0	219.031	0	142.2	4	46.5	4	-1E+10	1	-1E+10	1	-1E+10	1	-1E+10	1	-1E+10	1	-1E+10	1
4902551	89	C	01/29/2023	21:04	-131.310	47.864	0	221.80	0	5.5600	0	33.7380	0	26.612	0	219.823	0	141.8	4	46.3	4	-1E+10	1	-1E+10	1	-1E+10	1	-1E+10	1	-1E+10	1	-1E+10	1
4902551	89	C	01/29/2023	21:04	-131.310	47.864	0	222.70	0	5.5530	0	33.7380	0	26.613	0	220.715	0	141.4	4	46.2	4	-1E+10	1	-1E+10	1	-1E+10	1	-1E+10	1	-1E+10	1	-1E+10	1
4902551	89	C	01/29/2023	21:04	-131.310	47.864	0	223.90	0	5.5430	0	33.7370	0	26.613	0	221.904	0	140.7	4	45.9	4	-1E+10	1	-1E+10	1	-1E+10	1	-1E+10	1	-1E+10	1	-1E+10	1
4902551	89	C	01/29/2023	21:04	-131.310	47.864	0	225.20	0	5.5300	0	33.7370	0	26.614	0	223.191	0	140.0	4	45.7	4	-1E+10	1	-1E+10	1	-1E+10	1	-1E+10	1	-1E+10	1	-1E+10	1
4902551	89	C	01/29/2023	21:04	-131.310	47.864	0	226.00	0	5.5210	0	33.7370	0	26.616	0	223.984	0	139.5	4	45.5	4	-1E+10	1	-1E+10	1	-1E+10	1	-1E+10	1	-1E+10	1	-1E+10	1
4902551	89	C	01/29/2023	21:04	-131.310	47.864	0	226.80	0	5.5030	0	33.7400	0	26.620	0	224.776	0	139.0	4	45.3	4	-1E+10	1	-1E+10	1	-1E+10	1	-1E+10	1	-1E+10	1	-1E+10	1
4902551	89	C	01/29/2023	21:04	-131.310	47.864	0	227.60	0	5.4980	0	33.7390	0	26.620	0	225.569	0	138.6	4	45.2	4	-1E+10	1	-1E+10	1	-1E+10	1	-1E+10	1	-1E+10	1	-1E+10	1
4902551	89	C	01/29/2023	21:04	-131.310	47.864	0	228.90	0	5.4850	0	33.7400	0	26.622	0	226.856	0	137.8	4	44.9	4	-1E+10	1	-1E+10	1	-1E+10	1	-1E+10	1	-1E+10	1	-1E+10	1
4902551	89	C	01/29/2023	21:04	-131.310	47.864	0	230.20	0	5.4550	0	33.7410	0	26.627	0	228.144	0	137.3	4	44.7	4	-1E+10	1	-1E+10	1	-1E+10	1	-1E+10	1	-1E+10	1	-1E+10	1
4902551	89	C	01/29/2023	21:04	-131.310	47.864	0	231.00	0	5.4510	0	33.7410	0	26.627	0	228.936	0	136.7	4	44.5	4	-1E+10	1	-1E+10	1	-1E+10	1	-1E+10	1	-1E+10	1	-1E+10	1
4902551	89	C	01/29/2023	21:04	-131.310	47.864	0	231.80	0	5.4430	0	33.7410	0	26.628	0	229.729	0	136.3	4	44.4	4	-1E+10	1	-1E+10	1	-1E+10	1	-1E+10	1	-1E+10	1	-1E+10	1
4902551	89	C	01/29/2023	21:04	-131.310	47.864	0	232.70	0	5.4230	0	33.7460	0	26.634	0	230.620	0	135.7	4	44.2	4	-1E+10	1	-1E+10	1	-1E+10	1	-1E+10	1	-1E+10	1	-1E+10	1
4902551	89	C	01/29/2023	21:04	-131.310	47.864	0	233.90	0	5.4080	0	33.7420	0	26.633	0	231.809	0	135.1	4	44.0	4	-1E+10	1	-1E+10	1	-1E+10	1	-1E+10	1	-1E+10	1	-1E+10	1
4902551	89	C	01/29/2023	21:04	-131.310	47.864	0	235.20	0	5.4050	0	33.7430	0	26.634	0	233.096	0	134.3	4	43.7	4	-1E+10	1	-1E+10	1	-1E+10	1	-1E+10	1	-1E+10	1	-1E+10	1
4902551	89	C	01/29/2023	21:04	-131.310	47.864	0	236.10	0	5.4020	0	33.7430	0	26.635	0	233.988	0	133.8	4	43.5	4	-1E+10	1	-1E+10	1	-1E+10	1	-1E+10	1	-1E+10	1	-1E+10	1
4902551	89	C	01/29/2023	21:04	-131.310	47.864	0	236.90	0	5.4000	0	33.7430	0	26.635	0	234.780	0	133.1	4	43.3	4	-1E+10	1	-1E+10	1	-1E+10	1	-1E+10	1	-1E+10	1	-1E+10	1
4902551	89	C	01/29/2023	21:04	-131.310	47.864	0	237.80	0	5.3980	0	33.7430	0	26.635	0	235.672	0	132.4	4	43.1	4	-1E+10	1	-1E+10	1	-1E+10	1	-1E+10	1	-1E+10	1	-1E+10	1
4902551	89	C	01/29/2023	21:04	-131.310	47.864	0	238.60	0	5.3940	0	33.7440	0	26.636	0	236.464	0	131.5	4	42.8	4	-1E+10	1	-1E+10	1	-1E+10	1	-1E+10	1	-1E+10	1	-1E+10	1
4902551	89	C	01/29/2023	21:04	-131.310	47.864	0	239.90	0	5.3640	0	33.7440	0	26.640	0	237.752	0	130.4	4	42.4	4	-1E+10	1	-1E+10	1	-1E+10	1	-1E+10	1	-1E+10	1	-1E+10	1
4902551	89	C	01/29/2023	21:04	-131.310	47.864	0	241.30	0	5.3050	0	33.7470	0	26.649	0	239.138	0	129.6	4	42.1	4	-1E+10	1	-1E+10	1	-1E+10	1	-1E+10	1	-1E+10	1	-1E+10	1
4902551	89	C	01/29/2023	21:04	-131.310	47.864	0	242.10	0	5.3020	0	33.7480	0	26.650	0	239.931	0	129.1	4	41.9	4	-1E+10	1	-1E+10	1	-1E+10	1	-1E+10	1	-1E+10	1	-1E+10	1
4902551	89	C	01/29/2023	21:04	-131.310	47.864	0	243.00	0	5.2970	0	33.7480	0	26.651	0	240.822	0	128.6	4	41.7	4	-1E+10	1	-1E+10	1	-1E+10	1	-1E+10	1	-1E+10	1	-1E+10	1
4902551	89	C	01/29/2023	21:04	-131.310	47.864	0	243.90	0	5.2890	0	33.7480	0	26.652	0	241.714	0	128.0	4	41.5	4	-1E+10	1	-1E+10	1	-1E+10	1	-1E+10	1	-1E+10	1	-1E+10	1
4902551	89	C	01/29/2023	21:04	-131.310	47.864	0	244.80	0	5.2850	0	33.7490	0	26.653	0	242.605	0	127.4	4	41.4	4	-1E+10	1	-1E+10	1	-1E+10	1	-1E+10	1	-1E+10	1	-1E+10	1
4902551	89	C	01/29/2023	21:04	-131.310	47.864	0	245.70	0	5.2750	0	33.7500	0	26.655	0	243.496	0	126.9	4	41.2	4	-1E+10	1	-1E+10	1	-1E+10	1	-1E+10	1	-1E+10	1	-1E+10	1
4902551	89	C	01/29/2023	21:04	-131.310	47.864	0	246.60	0	5.2580	0	33.7520	0	26.659	0	244.388	0	126.4	4	41.0	4	-1E+10	1	-1E+10	1	-1E+10	1	-1E+10	1	-1E+10	1	-1E+10	1
4902551	89	C	01/29/2023	21:04	-131.310	47.864	0	247.90	0	5.2500	0	33.7520	0	26.660	0	245.675	0	125.6	4	40.7	4	-1E+10	1	-1E+10	1	-1E+10	1	-1E+10	1	-1E+10	1	-1E+10	1
4902551	89	C	01/29/2023	21:04	-131.310	47.864	0	249.30	0	5.2360	0	33.7530	0	26.662	0	247.062	0	124.8	4	40.5	4	-1E+10	1	-1E+10	1	-1E+10	1	-1E+10	1	-1E+10	1	-1E+10	1
4902551	89	C	01/29/2023	21:04	-131.310	47.864	0	250.20	0	5.2280	0	33.7540	0	26.664	0	247.953	0	124.3	4	40.3	4	-1E+10	1	-1E+10	1	-1E+10	1	-1E+10	1	-1E+10	1	-1E+10	1
4902551	89	C	01/29/2023	21:04	-131.310	47.864	0	251.20	0	5.2240	0	33.7530	0	26.663	0	248.944	0	123.8	4	40.1	4	-1E+10	1	-1E+10	1	-1E+10	1	-1E+10	1	-1E+10	1	-1E+10	1
4902551	89	C	01/29/2023	21:04	-131.310	47.864	0	252.10	0	5.2170	0	33.7540	0	26.665	0	249.835	0	123.2	4	39.9	4	-1E+10	1	-1E+10	1	-1E+10	1	-1E+10	1	-1E+10	1	-1E+10	1
4902551	89	C	01/29/2023	21:04	-131.310	47.864	0	253.00	0	5.1980	0	33.7560	0	26.669	0	250.727	0	122.8	4	39.8	4	-1E+10	1	-1E+10	1	-1E+10	1	-1E+10	1	-1E+10	1	-1E+10	1
4902551	89	C	01/29/2023	21:04	-131.310	47.864	0	253.90	0	5.1910	0	33.7560	0	26.670	0	251.618	0	122.3	4	39.6	4	-1E+10	1	-1E+10	1	-1E+10	1	-1E+10	1	-1E+10	1	-1E+10	1
4902551	89	C	01/29/2023	21:04	-131.310	47.864	0	254.80	0	5.1880	0	33.7570	0	26.671	0	252.509	0	121.8	4	39.4	4	-1E+10	1	-1E+10	1	-1E+10	1	-1E+10	1	-1E+10	1	-1E+10	1
4902551	89	C	01/29/2023	21:04	-131.310	47.864	0	255.60	0	5.1870	0	33.7560	0	26.670	0	253.302	0	121.2	4	39.2	4	-1E+10	1	-1E+10	1	-1E+10	1	-1E+10	1	-1E+10	1	-1E+10	1
4902551	89	C	01/29/2023	21:04	-131.310	47.864	0	257.00	0	5.1800	0	33.7570	0	26.672	0	254.688	0	120.2	4	38.9	4	-1E+10	1	-1E+10	1	-1E+10	1	-1E+10	1	-1E+10	1	-1E+10	1
4902551	89	C	01/29/2023	21:04	-131.310	47.864	0	258.30	0	5.1710	0	33.7580	0	26.673	0	255.976	0	119.2	4	38.6	4	-1E+10	1	-1E+10	1	-1E+10	1	-1E+10	1	-1E+10	1	-1E+10	1
4902551	89	C	01/29/2023	21:04	-131.310	47.864	0	259.20	0	5.1590	0	33.7590	0	26.676	0	256.867	0	118.4	4	38.3	4	-1E+10	1	-1E+10	1	-1E+10	1	-1E+10	1	-1E+10	1	-1E+10	1
4902551	89	C	01/29/2023	21:04	-131.310	47.864	0	260.10	0	5.1480	0	33.7590	0	26.677	0	257.758	0	117.7	4	38.1	4	-1E+10	1	-1E+10	1	-1E+10	1	-1E+10	1	-1E+10	1	-1E+10	1
4902551	89	C	01/29/2023	21:04	-131.310	47.864	0	261.00	0	5.1160	0	33.7630	0	26.684	0	258.650	0	117.2	4	37.9	4	-1E+10	1	-1E+10	1	-1E+10	1	-1E+10	1	-1E+10	1	-1E+10	1
4902551	89	C	01/29/2023	21:04	-131.310	47.864	0	261.90	0	5.1070	0	33.7640	0	26.686	0	259.541	0	116.6	4	37.7	4	-1E+10	1	-1E+10	1	-1E+10	1	-1E+10	1	-1E+10	1	-1E+10	1
4902551	89	C	01/29/2023	21:04	-131.310	47.864	0	262.80	0	5.0970	0	33.7660	0	26.688	0	260.432	0	116.0	4	37.5	4	-1E+10	1	-1E+10	1	-1E+10	1	-1E+10	1	-1E+10	1	-1E+10	1
4902551	89	C	01/29/2023	21:04	-131.310	47.864	0	263.60	0	5.0950	0	33.7650	0	26.688	0	261.225	0	115.5	4	37.3	4	-1E+10	1	-1E+10	1	-1E+10	1	-1E+10	1	-1E+10	1	-1E+10	1
4902551	89	C	01/29/2023	21:04	-131.310	47.864	0	264.90	0	5.0850	0	33.7660	0	26.690	0	262.512	0	114.5	4	37.0	4	-1E+10	1	-1E+10	1	-1E+10	1	-1E+10	1	-1E+10	1	-1E+10	1
4902551	89	C	01/29/2023	21:04	-131.310	47.864	0	266.30	0	5.0580	0	33.7710	0	26.697	0	263.898	0	113.7	4	36.7	4	-1E+10	1	-1E+10	1	-1E+10	1	-1E+10	1	-1E+10	1	-1E+10	1
4902551	89	C	01/29/2023	21:04	-131.310	47.864	0	267.30	0	5.0460	0	33.7730	0	26.700	0	264.889	0	113.4	4	36.6	4	-1E+10	1	-1E+10	1	-1E+10	1	-1E+10	1	-1E+10	1	-1E+10	1
4902551	89	C	01/29/2023	21:04	-131.310	47.864	0	268.20	0	5.0430	0	33.7730	0	26.700	0	265.780	0	113.0	4	36.5	4	-1E+10	1	-1E+10	1	-1E+10	1	-1E+10	1	-1E+10	1	-1E+10	1
4902551	89	C	01/29/2023	21:04	-131.310	47.864	0	269.10	0	5.0420	0	33.7740	0	26.701	0	266.671	0	112.6	4	36.3	4	-1E+10	1	-1E+10	1	-1E+10	1	-1E+10	1	-1E+10	1	-1E+10	1
4902551	89	C	01/29/2023	21:04	-131.310	47.864	0	270.00	0	5.0400	0	33.7740	0	26.701	0	267.563	0	112.2	4	36.2	4	-1E+10	1	-1E+10	1	-1E+10	1	-1E+10	1	-1E+10	1	-1E+10	1
4902551	89	C	01/29/2023	21:04	-131.310	47.864	0	270.90	0	5.0400	0	33.7740	0	26.701	0	268.454	0	111.7	4	36.0	4	-1E+10	1	-1E+10	1	-1E+10	1	-1E+10	1	-1E+10	1	-1E+10	1
4902551	89	C	01/29/2023	21:04	-131.310	47.864	0	271.90	0	5.0380	0	33.7740	0	26.701	0	269.444	0	111.1	4	35.9	4	-1E+10	1	-1E+10	1	-1E+10	1	-1E+10	1	-1E+10	1	-1E+10	1
4902551	89	C	01/29/2023	21:04	-131.310	47.864	0	272.70	0	5.0360	0	33.7740	0	26.702	0	270.237	0	110.5	4	35.7	4	-1E+10	1	-1E+10	1	-1E+10	1	-1E+10	1	-1E+10	1	-1E+10	1
4902551	89	C	01/29/2023	21:04	-131.310	47.864	0	273.70	0	5.0350	0	33.7740	0	26.702	0	271.227	0	109.8	4	35.4	4	-1E+10	1	-1E+10	1	-1E+10	1	-1E+10	1	-1E+10	1	-1E+10	1
4902551	89	C	01/29/2023	21:04	-131.310	47.864	0	274.60	0	5.0270	0	33.7740	0	26.703	0	272.118	0	109.1	4	35.2	4	-1E+10	1	-1E+10	1	-1E+10	1	-1E+10	1	-1E+10	1	-1E+10	1
4902551	89	C	01/29/2023	21:04	-131.310	47.864	0	275.90	0	5.0100	0	33.7760	0	26.706	0	273.406	0	108.0	4	34.8	4	-1E+10	1	-1E+10	1	-1E+10	1	-1E+10	1	-1E+10	1	-1E+10	1
4902551	89	C	01/29/2023	21:04	-131.310	47.864	0	277.40	0	4.9960	0	33.7790	0	26.710	0	274.891	0	107.0	4	34.5	4	-1E+10	1	-1E+10	1	-1E+10	1	-1E+10	1	-1E+10	1	-1E+10	1
4902551	89	C	01/29/2023	21:04	-131.310	47.864	0	278.30	0	4.9920	0	33.7790	0	26.711	0	275.782	0	106.2	4	34.2	4	-1E+10	1	-1E+10	1	-1E+10	1	-1E+10	1	-1E+10	1	-1E+10	1
4902551	89	C	01/29/2023	21:04	-131.310	47.864	0	279.20	0	4.9860	0	33.7800	0	26.712	0	276.674	0	105.4	4	34.0	4	-1E+10	1	-1E+10	1	-1E+10	1	-1E+10	1	-1E+10	1	-1E+10	1
4902551	89	C	01/29/2023	21:04	-131.310	47.864	0	280.10	0	4.9720	0	33.7840	0	26.717	0	277.565	0	104.6	4	33.7	4	-1E+10	1	-1E+10	1	-1E+10	1	-1E+10	1	-1E+10	1	-1E+10	1
4902551	89	C	01/29/2023	21:04	-131.310	47.864	0	281.00	0	4.9570	0	33.7820	0	26.717	0	278.456	0	103.8	4	33.4	4	-1E+10	1	-1E+10	1	-1E+10	1	-1E+10	1	-1E+10	1	-1E+10	1
4902551	89	C	01/29/2023	21:04	-131.310	47.864	0	281.90	0	4.9420	0	33.7850	0	26.721	0	279.347	0	103.1	4	33.2	4	-1E+10	1	-1E+10	1	-1E+10	1	-1E+10	1	-1E+10	1	-1E+10	1
4902551	89	C	01/29/2023	21:04	-131.310	47.864	0	282.90	0	4.9260	0	33.7860	0	26.724	0	280.338	0	102.6	4	33.0	4	-1E+10	1	-1E+10	1	-1E+10	1	-1E+10	1	-1E+10	1	-1E+10	1
4902551	89	C	01/29/2023	21:04	-131.310	47.864	0	283.80	0	4.9010	0	33.7930	0	26.732	0	281.229	0	102.2	4	32.9	4	-1E+10	1	-1E+10	1	-1E+10	1	-1E+10	1	-1E+10	1	-1E+10	1
4902551	89	C	01/29/2023	21:04	-131.310	47.864	0	284.70	0	4.8790	0	33.7930	0	26.735	0	282.120	0	101.9	4	32.8	4	-1E+10	1	-1E+10	1	-1E+10	1	-1E+10	1	-1E+10	1	-1E+10	1
4902551	89	C	01/29/2023	21:04	-131.310	47.864	0	285.60	0	4.8760	0	33.7930	0	26.735	0	283.011	0	101.6	4	32.7	4	-1E+10	1	-1E+10	1	-1E+10	1	-1E+10	1	-1E+10	1	-1E+10	1
4902551	89	C	01/29/2023	21:04	-131.310	47.864	0	286.50	0	4.8730	0	33.7930	0	26.735	0	283.903	0	101.3	4	32.6	4	-1E+10	1	-1E+10	1	-1E+10	1	-1E+10	1	-1E+10	1	-1E+10	1
4902551	89	C	01/29/2023	21:04	-131.310	47.864	0	287.90	0	4.8660	0	33.7940	0	26.737	0	285.289	0	100.8	4	32.4	4	-1E+10	1	-1E+10	1	-1E+10	1	-1E+10	1	-1E+10	1	-1E+10	1
4902551	89	C	01/29/2023	21:04	-131.310	47.864	0	289.30	0	4.8610	0	33.7950	0	26.738	0	286.675	0	100.3	4	32.2	4	-1E+10	1	-1E+10	1	-1E+10	1	-1E+10	1	-1E+10	1	-1E+10	1
4902551	89	C	01/29/2023	21:04	-131.310	47.864	0	290.20	0	4.8600	0	33.7940	0	26.738	0	287.566	0	99.9	4	32.1	4	-1E+10	1	-1E+10	1	-1E+10	1	-1E+10	1	-1E+10	1	-1E+10	1
4902551	89	C	01/29/2023	21:04	-131.310	47.864	0	291.20	0	4.8600	0	33.7950	0	26.738	0	288.557	0	99.5	4	32.0	4	-1E+10	1	-1E+10	1	-1E+10	1	-1E+10	1	-1E+10	1	-1E+10	1
4902551	89	C	01/29/2023	21:04	-131.310	47.864	0	292.10	0	4.8560	0	33.7940	0	26.738	0	289.448	0	99.0	4	31.8	4	-1E+10	1	-1E+10	1	-1E+10	1	-1E+10	1	-1E+10	1	-1E+10	1
4902551	89	C	01/29/2023	21:04	-131.310	47.864	0	293.00	0	4.8500	0	33.7950	0	26.739	0	290.339	0	98.5	4	31.6	4	-1E+10	1	-1E+10	1	-1E+10	1	-1E+10	1	-1E+10	1	-1E+10	1
4902551	89	C	01/29/2023	21:04	-131.310	47.864	0	294.00	0	4.8500	0	33.7950	0	26.739	0	291.329	0	98.0	4	31.5	4	-1E+10	1	-1E+10	1	-1E+10	1	-1E+10	1	-1E+10	1	-1E+10	1
4902551	89	C	01/29/2023	21:04	-131.310	47.864	0	294.90	0	4.8420	0	33.7960	0	26.741	0	292.220	0	97.6	4	31.3	4	-1E+10	1	-1E+10	1	-1E+10	1	-1E+10	1	-1E+10	1	-1E+10	1
4902551	89	C	01/29/2023	21:04	-131.310	47.864	0	295.80	0	4.8320	0	33.7970	0	26.743	0	293.112	0	97.1	4	31.2	4	-1E+10	1	-1E+10	1	-1E+10	1	-1E+10	1	-1E+10	1	-1E+10	1
4902551	89	C	01/29/2023	21:04	-131.310	47.864	0	296.70	0	4.8290	0	33.7980	0	26.744	0	294.003	0	96.6	4	31.0	4	-1E+10	1	-1E+10	1	-1E+10	1	-1E+10	1	-1E+10	1	-1E+10	1
4902551	89	C	01/29/2023	21:04	-131.310	47.864	0	297.70	0	4.8150	0	33.7990	0	26.747	0	294.993	0	96.2	4	30.9	4	-1E+10	1	-1E+10	1	-1E+10	1	-1E+10	1	-1E+10	1	-1E+10	1
4902551	89	C	01/29/2023	21:04	-131.310	47.864	0	298.60	0	4.8030	0	33.8020	0	26.750	0	295.884	0	95.9	4	30.8	4	-1E+10	1	-1E+10	1	-1E+10	1	-1E+10	1	-1E+10	1	-1E+10	1
4902551	89	C	01/29/2023	21:04	-131.310	47.864	0	299.90	0	4.7930	0	33.8030	0	26.752	0	297.171	0	95.3	4	30.6	4	-1E+10	1	-1E+10	1	-1E+10	1	-1E+10	1	-1E+10	1	-1E+10	1
4902551	89	C	01/29/2023	21:04	-131.310	47.864	0	301.30	0	4.7890	0	33.8030	0	26.753	0	298.558	0	94.8	4	30.4	4	-1E+10	1	-1E+10	1	-1E+10	1	-1E+10	1	-1E+10	1	-1E+10	1
4902551	89	C	01/29/2023	21:04	-131.310	47.864	0	302.30	0	4.7830	0	33.8050	0	26.755	0	299.548	0	94.4	4	30.3	4	-1E+10	1	-1E+10	1	-1E+10	1	-1E+10	1	-1E+10	1	-1E+10	1
4902551	89	C	01/29/2023	21:04	-131.310	47.864	0	303.20	0	4.7820	0	33.8040	0	26.754	0	300.439	0	93.9	4	30.1	4	-1E+10	1	-1E+10	1	-1E+10	1	-1E+10	1	-1E+10	1	-1E+10	1
4902551	89	C	01/29/2023	21:04	-131.310	47.864	0	304.10	0	4.7790	0	33.8050	0	26.755	0	301.330	0	93.5	4	30.0	4	-1E+10	1	-1E+10	1	-1E+10	1	-1E+10	1	-1E+10	1	-1E+10	1
4902551	89	C	01/29/2023	21:04	-131.310	47.864	0	305.00	0	4.7700	0	33.8060	0	26.757	0	302.221	0	93.0	4	29.8	4	-1E+10	1	-1E+10	1	-1E+10	1	-1E+10	1	-1E+10	1	-1E+10	1
4902551	89	C	01/29/2023	21:04	-131.310	47.864	0	305.90	0	4.7590	0	33.8070	0	26.759	0	303.112	0	92.5	4	29.7	4	-1E+10	1	-1E+10	1	-1E+10	1	-1E+10	1	-1E+10	1	-1E+10	1
4902551	89	C	01/29/2023	21:04	-131.310	47.864	0	306.90	0	4.7570	0	33.8070	0	26.759	0	304.103	0	92.1	4	29.5	4	-1E+10	1	-1E+10	1	-1E+10	1	-1E+10	1	-1E+10	1	-1E+10	1
4902551	89	C	01/29/2023	21:04	-131.310	47.864	0	307.80	0	4.7500	0	33.8080	0	26.761	0	304.994	0	91.6	4	29.4	4	-1E+10	1	-1E+10	1	-1E+10	1	-1E+10	1	-1E+10	1	-1E+10	1
4902551	89	C	01/29/2023	21:04	-131.310	47.864	0	308.70	0	4.7460	0	33.8090	0	26.762	0	305.885	0	91.0	4	29.2	4	-1E+10	1	-1E+10	1	-1E+10	1	-1E+10	1	-1E+10	1	-1E+10	1
4902551	89	C	01/29/2023	21:04	-131.310	47.864	0	309.60	0	4.7390	0	33.8100	0	26.764	0	306.776	0	90.5	4	29.0	4	-1E+10	1	-1E+10	1	-1E+10	1	-1E+10	1	-1E+10	1	-1E+10	1
4902551	89	C	01/29/2023	21:04	-131.310	47.864	0	310.60	0	4.7320	0	33.8110	0	26.765	0	307.766	0	90.0	4	28.8	4	-1E+10	1	-1E+10	1	-1E+10	1	-1E+10	1	-1E+10	1	-1E+10	1
4902551	89	C	01/29/2023	21:04	-131.310	47.864	0	311.90	0	4.7250	0	33.8110	0	26.766	0	309.053	0	89.1	4	28.6	4	-1E+10	1	-1E+10	1	-1E+10	1	-1E+10	1	-1E+10	1	-1E+10	1
4902551	89	C	01/29/2023	21:04	-131.310	47.864	0	313.30	0	4.7140	0	33.8130	0	26.769	0	310.439	0	88.3	4	28.3	4	-1E+10	1	-1E+10	1	-1E+10	1	-1E+10	1	-1E+10	1	-1E+10	1
4902551	89	C	01/29/2023	21:04	-131.310	47.864	0	314.30	0	4.7110	0	33.8130	0	26.769	0	311.430	0	87.6	4	28.1	4	-1E+10	1	-1E+10	1	-1E+10	1	-1E+10	1	-1E+10	1	-1E+10	1
4902551	89	C	01/29/2023	21:04	-131.310	47.864	0	315.20	0	4.7060	0	33.8150	0	26.771	0	312.321	0	87.0	4	27.9	4	-1E+10	1	-1E+10	1	-1E+10	1	-1E+10	1	-1E+10	1	-1E+10	1
4902551	89	C	01/29/2023	21:04	-131.310	47.864	0	316.10	0	4.6840	0	33.8180	0	26.776	0	313.212	0	86.5	4	27.7	4	-1E+10	1	-1E+10	1	-1E+10	1	-1E+10	1	-1E+10	1	-1E+10	1
4902551	89	C	01/29/2023	21:04	-131.310	47.864	0	317.10	0	4.6770	0	33.8200	0	26.779	0	314.202	0	86.1	4	27.5	4	-1E+10	1	-1E+10	1	-1E+10	1	-1E+10	1	-1E+10	1	-1E+10	1
4902551	89	C	01/29/2023	21:04	-131.310	47.864	0	318.00	0	4.6800	0	33.8220	0	26.780	0	315.093	0	85.6	4	27.4	4	-1E+10	1	-1E+10	1	-1E+10	1	-1E+10	1	-1E+10	1	-1E+10	1
4902551	89	C	01/29/2023	21:04	-131.310	47.864	0	318.90	0	4.6750	0	33.8220	0	26.780	0	315.984	0	85.1	4	27.2	4	-1E+10	1	-1E+10	1	-1E+10	1	-1E+10	1	-1E+10	1	-1E+10	1
4902551	89	C	01/29/2023	21:04	-131.310	47.864	0	319.80	0	4.6710	0	33.8230	0	26.782	0	316.875	0	84.6	4	27.1	4	-1E+10	1	-1E+10	1	-1E+10	1	-1E+10	1	-1E+10	1	-1E+10	1
4902551	89	C	01/29/2023	21:04	-131.310	47.864	0	320.80	0	4.6710	0	33.8260	0	26.784	0	317.865	0	84.1	4	26.9	4	-1E+10	1	-1E+10	1	-1E+10	1	-1E+10	1	-1E+10	1	-1E+10	1
4902551	89	C	01/29/2023	21:04	-131.310	47.864	0	321.70	0	4.6750	0	33.8280	0	26.785	0	318.756	0	83.6	4	26.8	4	-1E+10	1	-1E+10	1	-1E+10	1	-1E+10	1	-1E+10	1	-1E+10	1
4902551	89	C	01/29/2023	21:04	-131.310	47.864	0	322.60	0	4.6690	0	33.8340	0	26.791	0	319.647	0	83.1	4	26.6	4	-1E+10	1	-1E+10	1	-1E+10	1	-1E+10	1	-1E+10	1	-1E+10	1
4902551	89	C	01/29/2023	21:04	-131.310	47.864	0	323.60	0	4.6570	0	33.8300	0	26.789	0	320.637	0	82.6	4	26.4	4	-1E+10	1	-1E+10	1	-1E+10	1	-1E+10	1	-1E+10	1	-1E+10	1
4902551	89	C	01/29/2023	21:04	-131.310	47.864	0	324.90	0	4.6720	0	33.8340	0	26.790	0	321.925	0	81.8	4	26.2	4	-1E+10	1	-1E+10	1	-1E+10	1	-1E+10	1	-1E+10	1	-1E+10	1
4902551	89	C	01/29/2023	21:04	-131.310	47.864	0	326.40	0	4.6540	0	33.8370	0	26.795	0	323.410	0	81.1	4	25.9	4	-1E+10	1	-1E+10	1	-1E+10	1	-1E+10	1	-1E+10	1	-1E+10	1
4902551	89	C	01/29/2023	21:04	-131.310	47.864	0	327.30	0	4.6430	0	33.8360	0	26.795	0	324.301	0	80.6	4	25.8	4	-1E+10	1	-1E+10	1	-1E+10	1	-1E+10	1	-1E+10	1	-1E+10	1
4902551	89	C	01/29/2023	21:04	-131.310	47.864	0	328.30	0	4.6360	0	33.8360	0	26.796	0	325.291	0	80.0	4	25.6	4	-1E+10	1	-1E+10	1	-1E+10	1	-1E+10	1	-1E+10	1	-1E+10	1
4902551	89	C	01/29/2023	21:04	-131.310	47.864	0	329.20	0	4.6290	0	33.8370	0	26.797	0	326.182	0	79.4	4	25.4	4	-1E+10	1	-1E+10	1	-1E+10	1	-1E+10	1	-1E+10	1	-1E+10	1
4902551	89	C	01/29/2023	21:04	-131.310	47.864	0	330.20	0	4.6070	0	33.8380	0	26.801	0	327.172	0	78.8	4	25.2	4	-1E+10	1	-1E+10	1	-1E+10	1	-1E+10	1	-1E+10	1	-1E+10	1
4902551	89	C	01/29/2023	21:04	-131.310	47.864	0	331.10	0	4.5970	0	33.8380	0	26.802	0	328.063	0	78.2	4	25.0	4	-1E+10	1	-1E+10	1	-1E+10	1	-1E+10	1	-1E+10	1	-1E+10	1
4902551	89	C	01/29/2023	21:04	-131.310	47.864	0	332.00	0	4.5840	0	33.8400	0	26.805	0	328.954	0	77.6	4	24.8	4	-1E+10	1	-1E+10	1	-1E+10	1	-1E+10	1	-1E+10	1	-1E+10	1
4902551	89	C	01/29/2023	21:04	-131.310	47.864	0	333.00	0	4.5710	0	33.8430	0	26.808	0	329.944	0	77.2	4	24.6	4	-1E+10	1	-1E+10	1	-1E+10	1	-1E+10	1	-1E+10	1	-1E+10	1
4902551	89	C	01/29/2023	21:04	-131.310	47.864	0	333.90	0	4.5650	0	33.8440	0	26.810	0	330.835	0	76.7	4	24.5	4	-1E+10	1	-1E+10	1	-1E+10	1	-1E+10	1	-1E+10	1	-1E+10	1
4902551	89	C	01/29/2023	21:04	-131.310	47.864	0	334.90	0	4.5640	0	33.8440	0	26.810	0	331.825	0	76.1	4	24.3	4	-1E+10	1	-1E+10	1	-1E+10	1	-1E+10	1	-1E+10	1	-1E+10	1
4902551	89	C	01/29/2023	21:04	-131.310	47.864	0	335.90	0	4.5640	0	33.8440	0	26.810	0	332.815	0	75.6	4	24.1	4	-1E+10	1	-1E+10	1	-1E+10	1	-1E+10	1	-1E+10	1	-1E+10	1
4902551	89	C	01/29/2023	21:04	-131.310	47.864	0	336.80	0	4.5560	0	33.8480	0	26.814	0	333.706	0	75.0	4	23.9	4	-1E+10	1	-1E+10	1	-1E+10	1	-1E+10	1	-1E+10	1	-1E+10	1
4902551	89	C	01/29/2023	21:04	-131.310	47.864	0	337.80	0	4.5520	0	33.8500	0	26.816	0	334.696	0	74.5	4	23.8	4	-1E+10	1	-1E+10	1	-1E+10	1	-1E+10	1	-1E+10	1	-1E+10	1
4902551	89	C	01/29/2023	21:04	-131.310	47.864	0	338.80	0	4.5480	0	33.8550	0	26.821	0	335.686	0	73.9	4	23.6	4	-1E+10	1	-1E+10	1	-1E+10	1	-1E+10	1	-1E+10	1	-1E+10	1
4902551	89	C	01/29/2023	21:04	-131.310	47.864	0	339.70	0	4.5380	0	33.8570	0	26.823	0	336.577	0	73.5	4	23.4	4	-1E+10	1	-1E+10	1	-1E+10	1	-1E+10	1	-1E+10	1	-1E+10	1
4902551	89	C	01/29/2023	21:04	-131.310	47.864	0	340.70	0	4.5330	0	33.8590	0	26.825	0	337.567	0	73.1	4	23.3	4	-1E+10	1	-1E+10	1	-1E+10	1	-1E+10	1	-1E+10	1	-1E+10	1
4902551	89	C	01/29/2023	21:04	-131.310	47.864	0	341.70	0	4.5260	0	33.8620	0	26.828	0	338.557	0	72.7	4	23.2	4	-1E+10	1	-1E+10	1	-1E+10	1	-1E+10	1	-1E+10	1	-1E+10	1
4902551	89	C	01/29/2023	21:04	-131.310	47.864	0	342.60	0	4.5250	0	33.8640	0	26.830	0	339.448	0	72.3	4	23.1	4	-1E+10	1	-1E+10	1	-1E+10	1	-1E+10	1	-1E+10	1	-1E+10	1
4902551	89	C	01/29/2023	21:04	-131.310	47.864	0	343.60	0	4.5310	0	33.8660	0	26.831	0	340.438	0	71.9	4	22.9	4	-1E+10	1	-1E+10	1	-1E+10	1	-1E+10	1	-1E+10	1	-1E+10	1
4902551	89	C	01/29/2023	21:04	-131.310	47.864	0	344.60	0	4.5520	0	33.8680	0	26.830	0	341.428	0	71.4	4	22.8	4	-1E+10	1	-1E+10	1	-1E+10	1	-1E+10	1	-1E+10	1	-1E+10	1
4902551	89	C	01/29/2023	21:04	-131.310	47.864	0	345.50	0	4.5590	0	33.8720	0	26.833	0	342.319	0	70.9	4	22.6	4	-1E+10	1	-1E+10	1	-1E+10	1	-1E+10	1	-1E+10	1	-1E+10	1
4902551	89	C	01/29/2023	21:04	-131.310	47.864	0	346.50	0	4.5570	0	33.8710	0	26.832	0	343.309	0	70.5	4	22.5	4	-1E+10	1	-1E+10	1	-1E+10	1	-1E+10	1	-1E+10	1	-1E+10	1
4902551	89	C	01/29/2023	21:04	-131.310	47.864	0	347.90	0	4.5710	0	33.8770	0	26.836	0	344.695	0	69.6	4	22.2	4	-1E+10	1	-1E+10	1	-1E+10	1	-1E+10	1	-1E+10	1	-1E+10	1
4902551	89	C	01/29/2023	21:04	-131.310	47.864	0	349.40	0	4.5560	0	33.8790	0	26.839	0	346.180	0	68.9	4	22.0	4	-1E+10	1	-1E+10	1	-1E+10	1	-1E+10	1	-1E+10	1	-1E+10	1
4902551	89	C	01/29/2023	21:04	-131.310	47.864	0	350.40	0	4.5240	0	33.8820	0	26.845	0	347.170	0	68.4	4	21.8	4	-1E+10	1	-1E+10	1	-1E+10	1	-1E+10	1	-1E+10	1	-1E+10	1
4902551	89	C	01/29/2023	21:04	-131.310	47.864	0	353.30	0	4.4970	0	33.8870	0	26.852	0	350.040	0	67.5	4	21.5	4	-1E+10	1	-1E+10	1	-1E+10	1	-1E+10	1	-1E+10	1	-1E+10	1
4902551	89	C	01/29/2023	21:04	-131.310	47.864	0	358.40	0	4.4820	0	33.8950	0	26.860	0	355.089	0	65.9	4	21.0	4	-1E+10	1	-1E+10	1	-1E+10	1	-1E+10	1	-1E+10	1	-1E+10	1
4902551	89	C	01/29/2023	21:04	-131.310	47.864	0	363.00	0	4.4570	0	33.9020	0	26.868	0	359.643	0	64.6	4	20.6	4	-1E+10	1	-1E+10	1	-1E+10	1	-1E+10	1	-1E+10	1	-1E+10	1
4902551	89	C	01/29/2023	21:04	-131.310	47.864	0	368.00	0	4.4480	0	33.9050	0	26.871	0	364.592	0	63.5	4	20.2	4	-1E+10	1	-1E+10	1	-1E+10	1	-1E+10	1	-1E+10	1	-1E+10	1
4902551	89	C	01/29/2023	21:04	-131.310	47.864	0	373.20	0	4.4280	0	33.9110	0	26.878	0	369.739	0	62.0	4	19.7	4	-1E+10	1	-1E+10	1	-1E+10	1	-1E+10	1	-1E+10	1	-1E+10	1
4902551	89	C	01/29/2023	21:04	-131.310	47.864	0	378.00	0	4.4180	0	33.9160	0	26.883	0	374.490	0	60.9	4	19.4	4	-1E+10	1	-1E+10	1	-1E+10	1	-1E+10	1	-1E+10	1	-1E+10	1
4902551	89	C	01/29/2023	21:04	-131.310	47.864	0	383.00	0	4.4050	0	33.9200	0	26.888	0	379.439	0	59.6	4	19.0	4	-1E+10	1	-1E+10	1	-1E+10	1	-1E+10	1	-1E+10	1	-1E+10	1
4902551	89	C	01/29/2023	21:04	-131.310	47.864	0	387.80	0	4.3970	0	33.9270	0	26.894	0	384.190	0	58.4	4	18.6	4	-1E+10	1	-1E+10	1	-1E+10	1	-1E+10	1	-1E+10	1	-1E+10	1
4902551	89	C	01/29/2023	21:04	-131.310	47.864	0	392.70	0	4.3940	0	33.9320	0	26.899	0	389.040	0	56.9	4	18.1	4	-1E+10	1	-1E+10	1	-1E+10	1	-1E+10	1	-1E+10	1	-1E+10	1
4902551	89	C	01/29/2023	21:04	-131.310	47.864	0	397.70	0	4.3740	0	33.9390	0	26.906	0	393.989	0	55.5	4	17.7	4	-1E+10	1	-1E+10	1	-1E+10	1	-1E+10	1	-1E+10	1	-1E+10	1
4902551	89	C	01/29/2023	21:04	-131.310	47.864	0	402.70	0	4.3630	0	33.9450	0	26.912	0	398.937	0	53.9	4	17.1	4	-1E+10	1	-1E+10	1	-1E+10	1	-1E+10	1	-1E+10	1	-1E+10	1
4902551	89	C	01/29/2023	21:04	-131.310	47.864	0	407.90	0	4.3430	0	33.9530	0	26.921	0	404.084	0	52.3	4	16.6	4	-1E+10	1	-1E+10	1	-1E+10	1	-1E+10	1	-1E+10	1	-1E+10	1
4902551	89	C	01/29/2023	21:04	-131.310	47.864	0	412.70	0	4.3230	0	33.9610	0	26.929	0	408.834	0	51.3	4	16.3	4	-1E+10	1	-1E+10	1	-1E+10	1	-1E+10	1	-1E+10	1	-1E+10	1
4902551	89	C	01/29/2023	21:04	-131.310	47.864	0	418.00	0	4.3160	0	33.9650	0	26.933	0	414.079	0	50.3	4	16.0	4	-1E+10	1	-1E+10	1	-1E+10	1	-1E+10	1	-1E+10	1	-1E+10	1
4902551	89	C	01/29/2023	21:04	-131.310	47.864	0	423.40	0	4.3100	0	33.9700	0	26.938	0	419.423	0	49.0	4	15.6	4	-1E+10	1	-1E+10	1	-1E+10	1	-1E+10	1	-1E+10	1	-1E+10	1
4902551	89	C	01/29/2023	21:04	-131.310	47.864	0	428.30	0	4.3030	0	33.9760	0	26.943	0	424.272	0	47.7	4	15.1	4	-1E+10	1	-1E+10	1	-1E+10	1	-1E+10	1	-1E+10	1	-1E+10	1
4902551	89	C	01/29/2023	21:04	-131.310	47.864	0	433.30	0	4.2930	0	33.9810	0	26.949	0	429.220	0	46.2	4	14.7	4	-1E+10	1	-1E+10	1	-1E+10	1	-1E+10	1	-1E+10	1	-1E+10	1
4902551	89	C	01/29/2023	21:04	-131.310	47.864	0	437.90	0	4.2720	0	33.9900	0	26.958	0	433.772	0	45.0	4	14.3	4	-1E+10	1	-1E+10	1	-1E+10	1	-1E+10	1	-1E+10	1	-1E+10	1
4902551	89	C	01/29/2023	21:04	-131.310	47.864	0	442.50	0	4.2600	0	33.9960	0	26.964	0	438.323	0	44.3	4	14.1	4	-1E+10	1	-1E+10	1	-1E+10	1	-1E+10	1	-1E+10	1	-1E+10	1
4902551	89	C	01/29/2023	21:04	-131.310	47.864	0	447.80	0	4.2540	0	33.9980	0	26.966	0	443.568	0	43.4	4	13.8	4	-1E+10	1	-1E+10	1	-1E+10	1	-1E+10	1	-1E+10	1	-1E+10	1
4902551	89	C	01/29/2023	21:04	-131.310	47.864	0	453.10	0	4.2420	0	34.0040	0	26.972	0	448.812	0	42.5	4	13.5	4	-1E+10	1	-1E+10	1	-1E+10	1	-1E+10	1	-1E+10	1	-1E+10	1
4902551	89	C	01/29/2023	21:04	-131.310	47.864	0	457.90	0	4.2310	0	34.0110	0	26.979	0	453.561	0	41.8	4	13.3	4	-1E+10	1	-1E+10	1	-1E+10	1	-1E+10	1	-1E+10	1	-1E+10	1
4902551	89	C	01/29/2023	21:04	-131.310	47.864	0	462.80	0	4.2260	0	34.0140	0	26.982	0	458.409	0	41.2	4	13.1	4	-1E+10	1	-1E+10	1	-1E+10	1	-1E+10	1	-1E+10	1	-1E+10	1
4902551	89	C	01/29/2023	21:04	-131.310	47.864	0	468.10	0	4.2200	0	34.0170	0	26.985	0	463.653	0	40.4	4	12.8	4	-1E+10	1	-1E+10	1	-1E+10	1	-1E+10	1	-1E+10	1	-1E+10	1
4902551	89	C	01/29/2023	21:04	-131.310	47.864	0	472.90	0	4.2090	0	34.0230	0	26.991	0	468.402	0	39.6	4	12.6	4	-1E+10	1	-1E+10	1	-1E+10	1	-1E+10	1	-1E+10	1	-1E+10	1
4902551	89	C	01/29/2023	21:04	-131.310	47.864	0	477.90	0	4.2020	0	34.0280	0	26.996	0	473.349	0	38.9	4	12.3	4	-1E+10	1	-1E+10	1	-1E+10	1	-1E+10	1	-1E+10	1	-1E+10	1
4902551	89	C	01/29/2023	21:04	-131.310	47.864	0	482.80	0	4.1910	0	34.0340	0	27.002	0	478.197	0	38.4	4	12.2	4	-1E+10	1	-1E+10	1	-1E+10	1	-1E+10	1	-1E+10	1	-1E+10	1
4902551	89	C	01/29/2023	21:04	-131.310	47.864	0	487.80	0	4.1880	0	34.0350	0	27.003	0	483.143	0	37.7	4	12.0	4	-1E+10	1	-1E+10	1	-1E+10	1	-1E+10	1	-1E+10	1	-1E+10	1
4902551	89	C	01/29/2023	21:04	-131.310	47.864	0	493.20	0	4.1770	0	34.0390	0	27.007	0	488.485	0	36.8	4	11.7	4	-1E+10	1	-1E+10	1	-1E+10	1	-1E+10	1	-1E+10	1	-1E+10	1
4902551	89	C	01/29/2023	21:04	-131.310	47.864	0	498.10	0	4.1610	0	34.0460	0	27.014	0	493.332	0	36.1	4	11.4	4	-1E+10	1	-1E+10	1	-1E+10	1	-1E+10	1	-1E+10	1	-1E+10	1
4902551	89	C	01/29/2023	21:04	-131.310	47.864	0	503.00	0	4.1530	0	34.0500	0	27.019	0	498.180	0	35.6	4	11.3	4	-1E+10	1	-1E+10	1	-1E+10	1	-1E+10	1	-1E+10	1	-1E+10	1
4902551	89	C	01/29/2023	21:04	-131.310	47.864	0	508.30	0	4.1480	0	34.0520	0	27.021	0	503.422	0	34.6	4	10.9	4	-1E+10	1	-1E+10	1	-1E+10	1	-1E+10	1	-1E+10	1	-1E+10	1
4902551	89	C	01/29/2023	21:04	-131.310	47.864	0	513.20	0	4.1330	0	34.0600	0	27.029	0	508.269	0	33.5	4	10.6	4	-1E+10	1	-1E+10	1	-1E+10	1	-1E+10	1	-1E+10	1	-1E+10	1
4902551	89	C	01/29/2023	21:04	-131.310	47.864	0	518.20	0	4.1160	0	34.0680	0	27.037	0	513.215	0	32.5	4	10.3	4	-1E+10	1	-1E+10	1	-1E+10	1	-1E+10	1	-1E+10	1	-1E+10	1
4902551	89	C	01/29/2023	21:04	-131.310	47.864	0	523.10	0	4.1010	0	34.0750	0	27.044	0	518.062	0	31.6	4	10.0	4	-1E+10	1	-1E+10	1	-1E+10	1	-1E+10	1	-1E+10	1	-1E+10	1
4902551	89	C	01/29/2023	21:04	-131.310	47.864	0	528.10	0	4.0860	0	34.0800	0	27.049	0	523.008	0	30.9	4	9.8	4	-1E+10	1	-1E+10	1	-1E+10	1	-1E+10	1	-1E+10	1	-1E+10	1
4902551	89	C	01/29/2023	21:04	-131.310	47.864	0	533.20	0	4.0770	0	34.0850	0	27.054	0	528.052	0	30.4	4	9.6	4	-1E+10	1	-1E+10	1	-1E+10	1	-1E+10	1	-1E+10	1	-1E+10	1
4902551	89	C	01/29/2023	21:04	-131.310	47.864	0	538.20	0	4.0710	0	34.0870	0	27.057	0	532.997	0	29.9	4	9.4	4	-1E+10	1	-1E+10	1	-1E+10	1	-1E+10	1	-1E+10	1	-1E+10	1
4902551	89	C	01/29/2023	21:04	-131.310	47.864	0	543.20	0	4.0640	0	34.0900	0	27.060	0	537.942	0	29.2	4	9.2	4	-1E+10	1	-1E+10	1	-1E+10	1	-1E+10	1	-1E+10	1	-1E+10	1
4902551	89	C	01/29/2023	21:04	-131.310	47.864	0	548.20	0	4.0510	0	34.0960	0	27.066	0	542.888	0	28.5	4	9.0	4	-1E+10	1	-1E+10	1	-1E+10	1	-1E+10	1	-1E+10	1	-1E+10	1
4902551	89	C	01/29/2023	21:04	-131.310	47.864	0	552.90	0	4.0380	0	34.1010	0	27.071	0	547.536	0	28.0	4	8.8	4	-1E+10	1	-1E+10	1	-1E+10	1	-1E+10	1	-1E+10	1	-1E+10	1
4902551	89	C	01/29/2023	21:04	-131.310	47.864	0	557.60	0	4.0280	0	34.1060	0	27.076	0	552.184	0	27.4	4	8.7	4	-1E+10	1	-1E+10	1	-1E+10	1	-1E+10	1	-1E+10	1	-1E+10	1
4902551	89	C	01/29/2023	21:04	-131.310	47.864	0	562.70	0	4.0160	0	34.1120	0	27.082	0	557.228	0	26.9	4	8.5	4	-1E+10	1	-1E+10	1	-1E+10	1	-1E+10	1	-1E+10	1	-1E+10	1
4902551	89	C	01/29/2023	21:04	-131.310	47.864	0	567.90	0	4.0070	0	34.1150	0	27.086	0	562.370	0	26.5	4	8.4	4	-1E+10	1	-1E+10	1	-1E+10	1	-1E+10	1	-1E+10	1	-1E+10	1
4902551	89	C	01/29/2023	21:04	-131.310	47.864	0	572.90	0	4.0020	0	34.1170	0	27.088	0	567.315	0	26.1	4	8.2	4	-1E+10	1	-1E+10	1	-1E+10	1	-1E+10	1	-1E+10	1	-1E+10	1
4902551	89	C	01/29/2023	21:04	-131.310	47.864	0	578.10	0	3.9850	0	34.1240	0	27.095	0	572.457	0	25.5	4	8.1	4	-1E+10	1	-1E+10	1	-1E+10	1	-1E+10	1	-1E+10	1	-1E+10	1
4902551	89	C	01/29/2023	21:04	-131.310	47.864	0	582.90	0	3.9770	0	34.1270	0	27.098	0	577.203	0	25.3	4	8.0	4	-1E+10	1	-1E+10	1	-1E+10	1	-1E+10	1	-1E+10	1	-1E+10	1
4902551	89	C	01/29/2023	21:04	-131.310	47.864	0	587.70	0	3.9720	0	34.1290	0	27.101	0	581.950	0	25.0	4	7.9	4	-1E+10	1	-1E+10	1	-1E+10	1	-1E+10	1	-1E+10	1	-1E+10	1
4902551	89	C	01/29/2023	21:04	-131.310	47.864	0	593.00	0	3.9650	0	34.1320	0	27.104	0	587.190	0	24.6	4	7.8	4	-1E+10	1	-1E+10	1	-1E+10	1	-1E+10	1	-1E+10	1	-1E+10	1
4902551	89	C	01/29/2023	21:04	-131.310	47.864	0	598.00	0	3.9570	0	34.1350	0	27.107	0	592.134	0	24.1	4	7.6	4	-1E+10	1	-1E+10	1	-1E+10	1	-1E+10	1	-1E+10	1	-1E+10	1
4902551	89	C	01/29/2023	21:04	-131.310	47.864	0	602.60	0	3.9380	0	34.1420	0	27.114	0	596.682	0	23.6	4	7.4	4	-1E+10	1	-1E+10	1	-1E+10	1	-1E+10	1	-1E+10	1	-1E+10	1
4902551	89	C	01/29/2023	21:04	-131.310	47.864	0	607.90	0	3.9130	0	34.1500	0	27.123	0	601.923	0	23.3	4	7.3	4	-1E+10	1	-1E+10	1	-1E+10	1	-1E+10	1	-1E+10	1	-1E+10	1
4902551	89	C	01/29/2023	21:04	-131.310	47.864	0	613.20	0	3.9020	0	34.1540	0	27.128	0	607.163	0	23.1	4	7.3	4	-1E+10	1	-1E+10	1	-1E+10	1	-1E+10	1	-1E+10	1	-1E+10	1
4902551	89	C	01/29/2023	21:04	-131.310	47.864	0	618.20	0	3.8970	0	34.1550	0	27.129	0	612.106	0	22.9	4	7.2	4	-1E+10	1	-1E+10	1	-1E+10	1	-1E+10	1	-1E+10	1	-1E+10	1
4902551	89	C	01/29/2023	21:04	-131.310	47.864	0	623.10	0	3.8880	0	34.1580	0	27.132	0	616.951	0	22.7	4	7.1	4	-1E+10	1	-1E+10	1	-1E+10	1	-1E+10	1	-1E+10	1	-1E+10	1
4902551	89	C	01/29/2023	21:04	-131.310	47.864	0	628.20	0	3.8750	0	34.1620	0	27.137	0	621.993	0	22.5	4	7.1	4	-1E+10	1	-1E+10	1	-1E+10	1	-1E+10	1	-1E+10	1	-1E+10	1
4902551	89	C	01/29/2023	21:04	-131.310	47.864	0	633.30	0	3.8700	0	34.1640	0	27.139	0	627.035	0	22.3	4	7.0	4	-1E+10	1	-1E+10	1	-1E+10	1	-1E+10	1	-1E+10	1	-1E+10	1
4902551	89	C	01/29/2023	21:04	-131.310	47.864	0	637.90	0	3.8660	0	34.1650	0	27.140	0	631.582	0	22.0	4	6.9	4	-1E+10	1	-1E+10	1	-1E+10	1	-1E+10	1	-1E+10	1	-1E+10	1
4902551	89	C	01/29/2023	21:04	-131.310	47.864	0	642.60	0	3.8540	0	34.1690	0	27.145	0	636.228	0	21.8	4	6.8	4	-1E+10	1	-1E+10	1	-1E+10	1	-1E+10	1	-1E+10	1	-1E+10	1
4902551	89	C	01/29/2023	21:04	-131.310	47.864	0	647.90	0	3.8440	0	34.1720	0	27.148	0	641.468	0	21.5	4	6.8	4	-1E+10	1	-1E+10	1	-1E+10	1	-1E+10	1	-1E+10	1	-1E+10	1
4902551	89	C	01/29/2023	21:04	-131.310	47.864	0	653.20	0	3.8340	0	34.1750	0	27.152	0	646.707	0	21.3	4	6.7	4	-1E+10	1	-1E+10	1	-1E+10	1	-1E+10	1	-1E+10	1	-1E+10	1
4902551	89	C	01/29/2023	21:04	-131.310	47.864	0	658.30	0	3.8200	0	34.1790	0	27.156	0	651.748	0	21.1	4	6.6	4	-1E+10	1	-1E+10	1	-1E+10	1	-1E+10	1	-1E+10	1	-1E+10	1
4902551	89	C	01/29/2023	21:04	-131.310	47.864	0	662.90	0	3.8150	0	34.1810	0	27.158	0	656.295	0	20.9	4	6.6	4	-1E+10	1	-1E+10	1	-1E+10	1	-1E+10	1	-1E+10	1	-1E+10	1
4902551	89	C	01/29/2023	21:04	-131.310	47.864	0	667.80	0	3.8100	0	34.1820	0	27.160	0	661.139	0	20.6	4	6.5	4	-1E+10	1	-1E+10	1	-1E+10	1	-1E+10	1	-1E+10	1	-1E+10	1
4902551	89	C	01/29/2023	21:04	-131.310	47.864	0	672.80	0	3.7950	0	34.1860	0	27.164	0	666.081	0	20.3	4	6.4	4	-1E+10	1	-1E+10	1	-1E+10	1	-1E+10	1	-1E+10	1	-1E+10	1
4902551	89	C	01/29/2023	21:04	-131.310	47.864	0	677.80	0	3.7810	0	34.1900	0	27.169	0	671.023	0	20.0	4	6.3	4	-1E+10	1	-1E+10	1	-1E+10	1	-1E+10	1	-1E+10	1	-1E+10	1
4902551	89	C	01/29/2023	21:04	-131.310	47.864	0	682.90	0	3.7630	0	34.1950	0	27.175	0	676.064	0	19.8	4	6.2	4	-1E+10	1	-1E+10	1	-1E+10	1	-1E+10	1	-1E+10	1	-1E+10	1
4902551	89	C	01/29/2023	21:04	-131.310	47.864	0	688.10	0	3.7590	0	34.1970	0	27.177	0	681.203	0	19.7	4	6.2	4	-1E+10	1	-1E+10	1	-1E+10	1	-1E+10	1	-1E+10	1	-1E+10	1
4902551	89	C	01/29/2023	21:04	-131.310	47.864	0	692.80	0	3.7580	0	34.1970	0	27.177	0	685.848	0	19.5	4	6.1	4	-1E+10	1	-1E+10	1	-1E+10	1	-1E+10	1	-1E+10	1	-1E+10	1
4902551	89	C	01/29/2023	21:04	-131.310	47.864	0	697.70	0	3.7500	0	34.1990	0	27.179	0	690.691	0	19.3	4	6.0	4	-1E+10	1	-1E+10	1	-1E+10	1	-1E+10	1	-1E+10	1	-1E+10	1
4902551	89	C	01/29/2023	21:04	-131.310	47.864	0	703.10	0	3.7360	0	34.2030	0	27.184	0	696.028	0	19.0	4	6.0	4	-1E+10	1	-1E+10	1	-1E+10	1	-1E+10	1	-1E+10	1	-1E+10	1
4902551	89	C	01/29/2023	21:04	-131.310	47.864	0	708.10	0	3.7210	0	34.2070	0	27.189	0	700.969	0	18.7	4	5.9	4	-1E+10	1	-1E+10	1	-1E+10	1	-1E+10	1	-1E+10	1	-1E+10	1
4902551	89	C	01/29/2023	21:04	-131.310	47.864	0	712.70	0	3.7110	0	34.2100	0	27.192	0	705.515	0	18.6	4	5.8	4	-1E+10	1	-1E+10	1	-1E+10	1	-1E+10	1	-1E+10	1	-1E+10	1
4902551	89	C	01/29/2023	21:04	-131.310	47.864	0	717.80	0	3.7010	0	34.2120	0	27.195	0	710.555	0	18.4	4	5.8	4	-1E+10	1	-1E+10	1	-1E+10	1	-1E+10	1	-1E+10	1	-1E+10	1
4902551	89	C	01/29/2023	21:04	-131.310	47.864	0	723.00	0	3.6930	0	34.2140	0	27.197	0	715.693	0	18.1	4	5.7	4	-1E+10	1	-1E+10	1	-1E+10	1	-1E+10	1	-1E+10	1	-1E+10	1
4902551	89	C	01/29/2023	21:04	-131.310	47.864	0	727.60	0	3.6830	0	34.2170	0	27.200	0	720.239	0	17.9	4	5.6	4	-1E+10	1	-1E+10	1	-1E+10	1	-1E+10	1	-1E+10	1	-1E+10	1
4902551	89	C	01/29/2023	21:04	-131.310	47.864	0	732.70	0	3.6710	0	34.2200	0	27.204	0	725.278	0	17.7	4	5.5	4	-1E+10	1	-1E+10	1	-1E+10	1	-1E+10	1	-1E+10	1	-1E+10	1
4902551	89	C	01/29/2023	21:04	-131.310	47.864	0	737.80	0	3.6560	0	34.2240	0	27.209	0	730.318	0	17.4	4	5.5	4	-1E+10	1	-1E+10	1	-1E+10	1	-1E+10	1	-1E+10	1	-1E+10	1
4902551	89	C	01/29/2023	21:04	-131.310	47.864	0	742.90	0	3.6470	0	34.2260	0	27.211	0	735.357	0	17.2	4	5.4	4	-1E+10	1	-1E+10	1	-1E+10	1	-1E+10	1	-1E+10	1	-1E+10	1
4902551	89	C	01/29/2023	21:04	-131.310	47.864	0	747.80	0	3.6290	0	34.2300	0	27.216	0	740.199	0	17.0	4	5.3	4	-1E+10	1	-1E+10	1	-1E+10	1	-1E+10	1	-1E+10	1	-1E+10	1
4902551	89	C	01/29/2023	21:04	-131.310	47.864	0	752.80	0	3.6130	0	34.2340	0	27.221	0	745.139	0	16.8	4	5.2	4	-1E+10	1	-1E+10	1	-1E+10	1	-1E+10	1	-1E+10	1	-1E+10	1
4902551	89	C	01/29/2023	21:04	-131.310	47.864	0	758.10	0	3.6010	0	34.2370	0	27.225	0	750.376	0	16.5	4	5.2	4	-1E+10	1	-1E+10	1	-1E+10	1	-1E+10	1	-1E+10	1	-1E+10	1
4902551	89	C	01/29/2023	21:04	-131.310	47.864	0	763.00	0	3.5910	0	34.2400	0	27.228	0	755.217	0	16.3	4	5.1	4	-1E+10	1	-1E+10	1	-1E+10	1	-1E+10	1	-1E+10	1	-1E+10	1
4902551	89	C	01/29/2023	21:04	-131.310	47.864	0	767.80	0	3.5790	0	34.2430	0	27.232	0	759.959	0	16.1	4	5.0	4	-1E+10	1	-1E+10	1	-1E+10	1	-1E+10	1	-1E+10	1	-1E+10	1
4902551	89	C	01/29/2023	21:04	-131.310	47.864	0	773.10	0	3.5620	0	34.2480	0	27.237	0	765.195	0	15.8	4	4.9	4	-1E+10	1	-1E+10	1	-1E+10	1	-1E+10	1	-1E+10	1	-1E+10	1
4902551	89	C	01/29/2023	21:04	-131.310	47.864	0	777.90	0	3.5470	0	34.2520	0	27.242	0	769.937	0	15.6	4	4.9	4	-1E+10	1	-1E+10	1	-1E+10	1	-1E+10	1	-1E+10	1	-1E+10	1
4902551	89	C	01/29/2023	21:04	-131.310	47.864	0	782.70	0	3.5390	0	34.2540	0	27.244	0	774.679	0	15.4	4	4.8	4	-1E+10	1	-1E+10	1	-1E+10	1	-1E+10	1	-1E+10	1	-1E+10	1
4902551	89	C	01/29/2023	21:04	-131.310	47.864	0	787.90	0	3.5280	0	34.2570	0	27.248	0	779.816	0	15.2	4	4.8	4	-1E+10	1	-1E+10	1	-1E+10	1	-1E+10	1	-1E+10	1	-1E+10	1
4902551	89	C	01/29/2023	21:04	-131.310	47.864	0	793.20	0	3.5200	0	34.2590	0	27.250	0	785.052	0	15.1	4	4.7	4	-1E+10	1	-1E+10	1	-1E+10	1	-1E+10	1	-1E+10	1	-1E+10	1
4902551	89	C	01/29/2023	21:04	-131.310	47.864	0	798.10	0	3.5120	0	34.2620	0	27.253	0	789.892	0	14.9	4	4.7	4	-1E+10	1	-1E+10	1	-1E+10	1	-1E+10	1	-1E+10	1	-1E+10	1
4902551	89	C	01/29/2023	21:04	-131.310	47.864	0	803.00	0	3.5030	0	34.2630	0	27.255	0	794.733	0	14.7	4	4.6	4	-1E+10	1	-1E+10	1	-1E+10	1	-1E+10	1	-1E+10	1	-1E+10	1
4902551	89	C	01/29/2023	21:04	-131.310	47.864	0	808.00	0	3.4910	0	34.2670	0	27.259	0	799.672	0	14.5	4	4.5	4	-1E+10	1	-1E+10	1	-1E+10	1	-1E+10	1	-1E+10	1	-1E+10	1
4902551	89	C	01/29/2023	21:04	-131.310	47.864	0	812.90	0	3.4730	0	34.2720	0	27.265	0	804.512	0	14.2	4	4.4	4	-1E+10	1	-1E+10	1	-1E+10	1	-1E+10	1	-1E+10	1	-1E+10	1
4902551	89	C	01/29/2023	21:04	-131.310	47.864	0	817.90	0	3.4570	0	34.2760	0	27.270	0	809.450	0	14.0	4	4.4	4	-1E+10	1	-1E+10	1	-1E+10	1	-1E+10	1	-1E+10	1	-1E+10	1
4902551	89	C	01/29/2023	21:04	-131.310	47.864	0	822.90	0	3.4490	0	34.2790	0	27.273	0	814.389	0	13.8	4	4.3	4	-1E+10	1	-1E+10	1	-1E+10	1	-1E+10	1	-1E+10	1	-1E+10	1
4902551	89	C	01/29/2023	21:04	-131.310	47.864	0	827.90	0	3.4410	0	34.2820	0	27.276	0	819.327	0	13.6	4	4.2	4	-1E+10	1	-1E+10	1	-1E+10	1	-1E+10	1	-1E+10	1	-1E+10	1
4902551	89	C	01/29/2023	21:04	-131.310	47.864	0	832.60	0	3.4260	0	34.2860	0	27.281	0	823.970	0	13.5	4	4.2	4	-1E+10	1	-1E+10	1	-1E+10	1	-1E+10	1	-1E+10	1	-1E+10	1
4902551	89	C	01/29/2023	21:04	-131.310	47.864	0	837.80	0	3.4070	0	34.2890	0	27.285	0	829.105	0	13.4	4	4.2	4	-1E+10	1	-1E+10	1	-1E+10	1	-1E+10	1	-1E+10	1	-1E+10	1
4902551	89	C	01/29/2023	21:04	-131.310	47.864	0	843.00	0	3.3980	0	34.2920	0	27.288	0	834.241	0	13.2	4	4.1	4	-1E+10	1	-1E+10	1	-1E+10	1	-1E+10	1	-1E+10	1	-1E+10	1
4902551	89	C	01/29/2023	21:04	-131.310	47.864	0	847.80	0	3.3860	0	34.2960	0	27.293	0	838.981	0	13.1	4	4.1	4	-1E+10	1	-1E+10	1	-1E+10	1	-1E+10	1	-1E+10	1	-1E+10	1
4902551	89	C	01/29/2023	21:04	-131.310	47.864	0	852.70	0	3.3790	0	34.2980	0	27.295	0	843.821	0	12.9	4	4.0	4	-1E+10	1	-1E+10	1	-1E+10	1	-1E+10	1	-1E+10	1	-1E+10	1
4902551	89	C	01/29/2023	21:04	-131.310	47.864	0	857.50	0	3.3700	0	34.3000	0	27.298	0	848.561	0	12.8	4	4.0	4	-1E+10	1	-1E+10	1	-1E+10	1	-1E+10	1	-1E+10	1	-1E+10	1
4902551	89	C	01/29/2023	21:04	-131.310	47.864	0	862.50	0	3.3520	0	34.3050	0	27.303	0	853.499	0	12.6	4	3.9	4	-1E+10	1	-1E+10	1	-1E+10	1	-1E+10	1	-1E+10	1	-1E+10	1
4902551	89	C	01/29/2023	21:04	-131.310	47.864	0	867.50	0	3.3440	0	34.3080	0	27.306	0	858.436	0	12.5	4	3.9	4	-1E+10	1	-1E+10	1	-1E+10	1	-1E+10	1	-1E+10	1	-1E+10	1
4902551	89	C	01/29/2023	21:04	-131.310	47.864	0	872.60	0	3.3350	0	34.3110	0	27.310	0	863.472	0	12.4	4	3.9	4	-1E+10	1	-1E+10	1	-1E+10	1	-1E+10	1	-1E+10	1	-1E+10	1
4902551	89	C	01/29/2023	21:04	-131.310	47.864	0	877.80	0	3.3240	0	34.3140	0	27.313	0	868.607	0	12.3	4	3.8	4	-1E+10	1	-1E+10	1	-1E+10	1	-1E+10	1	-1E+10	1	-1E+10	1
4902551	89	C	01/29/2023	21:04	-131.310	47.864	0	883.10	0	3.3170	0	34.3170	0	27.316	0	873.841	0	12.2	4	3.8	4	-1E+10	1	-1E+10	1	-1E+10	1	-1E+10	1	-1E+10	1	-1E+10	1
4902551	89	C	01/29/2023	21:04	-131.310	47.864	0	888.30	0	3.3110	0	34.3190	0	27.318	0	878.975	0	12.2	4	3.8	4	-1E+10	1	-1E+10	1	-1E+10	1	-1E+10	1	-1E+10	1	-1E+10	1
4902551	89	C	01/29/2023	21:04	-131.310	47.864	0	892.90	0	3.3060	0	34.3200	0	27.320	0	883.517	0	12.1	4	3.8	4	-1E+10	1	-1E+10	1	-1E+10	1	-1E+10	1	-1E+10	1	-1E+10	1
4902551	89	C	01/29/2023	21:04	-131.310	47.864	0	897.90	0	3.2990	0	34.3220	0	27.322	0	888.454	0	12.1	4	3.8	4	-1E+10	1	-1E+10	1	-1E+10	1	-1E+10	1	-1E+10	1	-1E+10	1
4902551	89	C	01/29/2023	21:04	-131.310	47.864	0	902.90	0	3.2950	0	34.3240	0	27.324	0	893.391	0	12.0	4	3.7	4	-1E+10	1	-1E+10	1	-1E+10	1	-1E+10	1	-1E+10	1	-1E+10	1
4902551	89	C	01/29/2023	21:04	-131.310	47.864	0	908.00	0	3.2930	0	34.3250	0	27.325	0	898.426	0	12.0	4	3.7	4	-1E+10	1	-1E+10	1	-1E+10	1	-1E+10	1	-1E+10	1	-1E+10	1
4902551	89	C	01/29/2023	21:04	-131.310	47.864	0	913.10	0	3.2830	0	34.3270	0	27.328	0	903.461	0	11.9	4	3.7	4	-1E+10	1	-1E+10	1	-1E+10	1	-1E+10	1	-1E+10	1	-1E+10	1
4902551	89	C	01/29/2023	21:04	-131.310	47.864	0	917.90	0	3.2760	0	34.3290	0	27.330	0	908.200	0	11.9	4	3.7	4	-1E+10	1	-1E+10	1	-1E+10	1	-1E+10	1	-1E+10	1	-1E+10	1
4902551	89	C	01/29/2023	21:04	-131.310	47.864	0	922.70	0	3.2740	0	34.3300	0	27.331	0	912.939	0	11.8	4	3.7	4	-1E+10	1	-1E+10	1	-1E+10	1	-1E+10	1	-1E+10	1	-1E+10	1
4902551	89	C	01/29/2023	21:04	-131.310	47.864	0	927.90	0	3.2700	0	34.3320	0	27.333	0	918.073	0	11.6	4	3.6	4	-1E+10	1	-1E+10	1	-1E+10	1	-1E+10	1	-1E+10	1	-1E+10	1
4902551	89	C	01/29/2023	21:04	-131.310	47.864	0	932.80	0	3.2580	0	34.3380	0	27.339	0	922.910	0	11.6	4	3.6	4	-1E+10	1	-1E+10	1	-1E+10	1	-1E+10	1	-1E+10	1	-1E+10	1
4902551	89	C	01/29/2023	21:04	-131.310	47.864	0	937.80	0	3.2500	0	34.3390	0	27.340	0	927.846	0	11.6	4	3.6	4	-1E+10	1	-1E+10	1	-1E+10	1	-1E+10	1	-1E+10	1	-1E+10	1
4902551	89	C	01/29/2023	21:04	-131.310	47.864	0	942.80	0	3.2420	0	34.3410	0	27.343	0	932.782	0	11.6	4	3.6	4	-1E+10	1	-1E+10	1	-1E+10	1	-1E+10	1	-1E+10	1	-1E+10	1
4902551	89	C	01/29/2023	21:04	-131.310	47.864	0	947.80	0	3.2310	0	34.3430	0	27.345	0	937.717	0	11.6	4	3.6	4	-1E+10	1	-1E+10	1	-1E+10	1	-1E+10	1	-1E+10	1	-1E+10	1
4902551	89	C	01/29/2023	21:04	-131.310	47.864	0	952.90	0	3.2130	0	34.3460	0	27.350	0	942.752	0	11.6	4	3.6	4	-1E+10	1	-1E+10	1	-1E+10	1	-1E+10	1	-1E+10	1	-1E+10	1
4902551	89	C	01/29/2023	21:04	-131.310	47.864	0	958.10	0	3.2040	0	34.3490	0	27.353	0	947.884	0	11.5	4	3.6	4	-1E+10	1	-1E+10	1	-1E+10	1	-1E+10	1	-1E+10	1	-1E+10	1
4902551	89	C	01/29/2023	21:04	-131.310	47.864	0	963.20	0	3.1970	0	34.3510	0	27.355	0	952.918	0	11.5	4	3.6	4	-1E+10	1	-1E+10	1	-1E+10	1	-1E+10	1	-1E+10	1	-1E+10	1
4902551	89	C	01/29/2023	21:04	-131.310	47.864	0	967.90	0	3.1900	0	34.3530	0	27.357	0	957.558	0	11.5	4	3.6	4	-1E+10	1	-1E+10	1	-1E+10	1	-1E+10	1	-1E+10	1	-1E+10	1
4902551	89	C	01/29/2023	21:04	-131.310	47.864	0	972.60	0	3.1750	0	34.3560	0	27.361	0	962.196	0	11.5	4	3.6	4	-1E+10	1	-1E+10	1	-1E+10	1	-1E+10	1	-1E+10	1	-1E+10	1
4902551	89	C	01/29/2023	21:04	-131.310	47.864	0	977.80	0	3.1660	0	34.3580	0	27.364	0	967.329	0	11.5	4	3.6	4	-1E+10	1	-1E+10	1	-1E+10	1	-1E+10	1	-1E+10	1	-1E+10	1
4902551	89	C	01/29/2023	21:04	-131.310	47.864	0	983.00	0	3.1640	0	34.3580	0	27.364	0	972.461	0	11.5	4	3.6	4	-1E+10	1	-1E+10	1	-1E+10	1	-1E+10	1	-1E+10	1	-1E+10	1
4902551	89	C	01/29/2023	21:04	-131.310	47.864	0	987.70	0	3.1560	0	34.3600	0	27.366	0	977.100	0	11.6	4	3.6	4	-1E+10	1	-1E+10	1	-1E+10	1	-1E+10	1	-1E+10	1	-1E+10	1
4902551	89	C	01/29/2023	21:04	-131.310	47.864	0	992.90	0	3.1450	0	34.3610	0	27.368	0	982.232	0	11.6	4	3.6	4	-1E+10	1	-1E+10	1	-1E+10	1	-1E+10	1	-1E+10	1	-1E+10	1
4902551	89	C	01/29/2023	21:04	-131.310	47.864	0	998.20	0	3.1420	0	34.3620	0	27.369	0	987.462	0	11.6	4	3.6	4	-1E+10	1	-1E+10	1	-1E+10	1	-1E+10	1	-1E+10	1	-1E+10	1
4902551	89	C	01/29/2023	21:04	-131.310	47.864	0	1005.40	0	3.1300	0	34.3630	0	27.371	0	994.568	0	11.7	4	3.6	4	-1E+10	1	-1E+10	1	-1E+10	1	-1E+10	1	-1E+10	1	-1E+10	1
4902551	89	C	01/29/2023	21:04	-131.310	47.864	0	1015.30	0	3.1070	0	34.3670	0	27.376	0	1004.337	0	11.7	4	3.6	4	-1E+10	1	-1E+10	1	-1E+10	1	-1E+10	1	-1E+10	1	-1E+10	1
4902551	89	C	01/29/2023	21:04	-131.310	47.864	0	1025.30	0	3.0900	0	34.3700	0	27.380	0	1014.205	0	11.7	4	3.6	4	-1E+10	1	-1E+10	1	-1E+10	1	-1E+10	1	-1E+10	1	-1E+10	1
4902551	89	C	01/29/2023	21:04	-131.310	47.864	0	1035.60	0	3.0650	0	34.3760	0	27.388	0	1024.369	0	11.8	4	3.6	4	-1E+10	1	-1E+10	1	-1E+10	1	-1E+10	1	-1E+10	1	-1E+10	1
4902551	89	C	01/29/2023	21:04	-131.310	47.864	0	1046.00	0	3.0470	0	34.3800	0	27.392	0	1034.630	0	11.8	4	3.7	4	-1E+10	1	-1E+10	1	-1E+10	1	-1E+10	1	-1E+10	1	-1E+10	1
4902551	89	C	01/29/2023	21:04	-131.310	47.864	0	1055.30	0	3.0350	0	34.3830	0	27.396	0	1043.806	0	11.8	4	3.7	4	-1E+10	1	-1E+10	1	-1E+10	1	-1E+10	1	-1E+10	1	-1E+10	1
4902551	89	C	01/29/2023	21:04	-131.310	47.864	0	1065.20	0	3.0210	0	34.3860	0	27.400	0	1053.573	0	11.9	4	3.7	4	-1E+10	1	-1E+10	1	-1E+10	1	-1E+10	1	-1E+10	1	-1E+10	1
4902551	89	C	01/29/2023	21:04	-131.310	47.864	0	1075.50	0	3.0010	0	34.3900	0	27.405	0	1063.735	0	12.0	4	3.7	4	-1E+10	1	-1E+10	1	-1E+10	1	-1E+10	1	-1E+10	1	-1E+10	1
4902551	89	C	01/29/2023	21:04	-131.310	47.864	0	1085.20	0	2.9820	0	34.3940	0	27.410	0	1073.304	0	12.1	4	3.7	4	-1E+10	1	-1E+10	1	-1E+10	1	-1E+10	1	-1E+10	1	-1E+10	1
4902551	89	C	01/29/2023	21:04	-131.310	47.864	0	1095.30	0	2.9660	0	34.3970	0	27.414	0	1083.267	0	12.2	4	3.8	4	-1E+10	1	-1E+10	1	-1E+10	1	-1E+10	1	-1E+10	1	-1E+10	1
4902551	89	C	01/29/2023	21:04	-131.310	47.864	0	1105.60	0	2.9500	0	34.4000	0	27.417	0	1093.427	0	12.3	4	3.8	4	-1E+10	1	-1E+10	1	-1E+10	1	-1E+10	1	-1E+10	1	-1E+10	1
4902551	89	C	01/29/2023	21:04	-131.310	47.864	0	1115.50	0	2.9350	0	34.4020	0	27.420	0	1103.192	0	12.4	4	3.8	4	-1E+10	1	-1E+10	1	-1E+10	1	-1E+10	1	-1E+10	1	-1E+10	1
4902551	89	C	01/29/2023	21:04	-131.310	47.864	0	1125.30	0	2.9210	0	34.4050	0	27.424	0	1112.858	0	12.5	4	3.8	4	-1E+10	1	-1E+10	1	-1E+10	1	-1E+10	1	-1E+10	1	-1E+10	1
4902551	89	C	01/29/2023	21:04	-131.310	47.864	0	1135.20	0	2.9050	0	34.4080	0	27.428	0	1122.622	0	12.6	4	3.9	4	-1E+10	1	-1E+10	1	-1E+10	1	-1E+10	1	-1E+10	1	-1E+10	1
4902551	89	C	01/29/2023	21:04	-131.310	47.864	0	1145.60	0	2.8870	0	34.4110	0	27.432	0	1132.879	0	12.7	4	3.9	4	-1E+10	1	-1E+10	1	-1E+10	1	-1E+10	1	-1E+10	1	-1E+10	1
4902551	89	C	01/29/2023	21:04	-131.310	47.864	0	1155.70	0	2.8730	0	34.4140	0	27.436	0	1142.839	0	12.8	4	3.9	4	-1E+10	1	-1E+10	1	-1E+10	1	-1E+10	1	-1E+10	1	-1E+10	1
4902551	89	C	01/29/2023	21:04	-131.310	47.864	0	1165.50	0	2.8620	0	34.4150	0	27.438	0	1152.503	0	12.9	4	4.0	4	-1E+10	1	-1E+10	1	-1E+10	1	-1E+10	1	-1E+10	1	-1E+10	1
4902551	89	C	01/29/2023	21:04	-131.310	47.864	0	1175.30	0	2.8580	0	34.4160	0	27.439	0	1162.167	0	13.0	4	4.0	4	-1E+10	1	-1E+10	1	-1E+10	1	-1E+10	1	-1E+10	1	-1E+10	1
4902551	89	C	01/29/2023	21:04	-131.310	47.864	0	1185.10	0	2.8390	0	34.4180	0	27.442	0	1171.830	0	13.1	4	4.0	4	-1E+10	1	-1E+10	1	-1E+10	1	-1E+10	1	-1E+10	1	-1E+10	1
4902551	89	C	01/29/2023	21:04	-131.310	47.864	0	1195.40	0	2.8210	0	34.4210	0	27.446	0	1181.986	0	13.2	4	4.1	4	-1E+10	1	-1E+10	1	-1E+10	1	-1E+10	1	-1E+10	1	-1E+10	1
4902551	89	C	01/29/2023	21:04	-131.310	47.864	0	1205.90	0	2.8010	0	34.4240	0	27.450	0	1192.338	0	13.4	4	4.1	4	-1E+10	1	-1E+10	1	-1E+10	1	-1E+10	1	-1E+10	1	-1E+10	1
4902551	89	C	01/29/2023	21:04	-131.310	47.864	0	1215.50	0	2.7860	0	34.4280	0	27.455	0	1201.803	0	13.7	4	4.2	4	-1E+10	1	-1E+10	1	-1E+10	1	-1E+10	1	-1E+10	1	-1E+10	1
4902551	89	C	01/29/2023	21:04	-131.310	47.864	0	1225.30	0	2.7700	0	34.4310	0	27.459	0	1211.464	0	13.9	4	4.3	4	-1E+10	1	-1E+10	1	-1E+10	1	-1E+10	1	-1E+10	1	-1E+10	1
4902551	89	C	01/29/2023	21:04	-131.310	47.864	0	1235.20	0	2.7530	0	34.4340	0	27.463	0	1221.224	0	14.1	4	4.3	4	-1E+10	1	-1E+10	1	-1E+10	1	-1E+10	1	-1E+10	1	-1E+10	1
4902551	89	C	01/29/2023	21:04	-131.310	47.864	0	1245.60	0	2.7370	0	34.4380	0	27.467	0	1231.476	0	14.4	4	4.4	4	-1E+10	1	-1E+10	1	-1E+10	1	-1E+10	1	-1E+10	1	-1E+10	1
4902551	89	C	01/29/2023	21:04	-131.310	47.864	0	1255.60	0	2.7250	0	34.4400	0	27.470	0	1241.333	0	14.5	4	4.5	4	-1E+10	1	-1E+10	1	-1E+10	1	-1E+10	1	-1E+10	1	-1E+10	1
4902551	89	C	01/29/2023	21:04	-131.310	47.864	0	1265.60	0	2.7110	0	34.4420	0	27.473	0	1251.190	0	14.8	4	4.5	4	-1E+10	1	-1E+10	1	-1E+10	1	-1E+10	1	-1E+10	1	-1E+10	1
4902551	89	C	01/29/2023	21:04	-131.310	47.864	0	1275.30	0	2.7030	0	34.4440	0	27.475	0	1260.750	0	14.9	4	4.6	4	-1E+10	1	-1E+10	1	-1E+10	1	-1E+10	1	-1E+10	1	-1E+10	1
4902551	89	C	01/29/2023	21:04	-131.310	47.864	0	1285.10	0	2.6890	0	34.4460	0	27.478	0	1270.409	0	15.2	4	4.6	4	-1E+10	1	-1E+10	1	-1E+10	1	-1E+10	1	-1E+10	1	-1E+10	1
4902551	89	C	01/29/2023	21:04	-131.310	47.864	0	1295.50	0	2.6760	0	34.4480	0	27.481	0	1280.658	0	15.4	4	4.7	4	-1E+10	1	-1E+10	1	-1E+10	1	-1E+10	1	-1E+10	1	-1E+10	1
4902551	89	C	01/29/2023	21:04	-131.310	47.864	0	1305.50	0	2.6640	0	34.4510	0	27.484	0	1290.513	0	15.8	4	4.8	4	-1E+10	1	-1E+10	1	-1E+10	1	-1E+10	1	-1E+10	1	-1E+10	1
4902551	89	C	01/29/2023	21:04	-131.310	47.864	0	1315.50	0	2.6480	0	34.4540	0	27.488	0	1300.367	0	16.1	4	4.9	4	-1E+10	1	-1E+10	1	-1E+10	1	-1E+10	1	-1E+10	1	-1E+10	1
4902551	89	C	01/29/2023	21:04	-131.310	47.864	0	1325.50	0	2.6330	0	34.4570	0	27.492	0	1310.221	0	16.5	4	5.0	4	-1E+10	1	-1E+10	1	-1E+10	1	-1E+10	1	-1E+10	1	-1E+10	1
4902551	89	C	01/29/2023	21:04	-131.310	47.864	0	1335.40	0	2.6160	0	34.4600	0	27.496	0	1319.976	0	16.9	4	5.2	4	-1E+10	1	-1E+10	1	-1E+10	1	-1E+10	1	-1E+10	1	-1E+10	1
4902551	89	C	01/29/2023	21:04	-131.310	47.864	0	1345.50	0	2.6000	0	34.4630	0	27.500	0	1329.928	0	17.2	4	5.3	4	-1E+10	1	-1E+10	1	-1E+10	1	-1E+10	1	-1E+10	1	-1E+10	1
4902551	89	C	01/29/2023	21:04	-131.310	47.864	0	1355.50	0	2.5800	0	34.4660	0	27.504	0	1339.780	0	17.5	4	5.4	4	-1E+10	1	-1E+10	1	-1E+10	1	-1E+10	1	-1E+10	1	-1E+10	1
4902551	89	C	01/29/2023	21:04	-131.310	47.864	0	1365.60	0	2.5540	0	34.4690	0	27.509	0	1349.731	0	18.0	4	5.5	4	-1E+10	1	-1E+10	1	-1E+10	1	-1E+10	1	-1E+10	1	-1E+10	1
4902551	89	C	01/29/2023	21:04	-131.310	47.864	0	1375.60	0	2.5400	0	34.4720	0	27.512	0	1359.582	0	18.3	4	5.6	4	-1E+10	1	-1E+10	1	-1E+10	1	-1E+10	1	-1E+10	1	-1E+10	1
4902551	89	C	01/29/2023	21:04	-131.310	47.864	0	1385.20	0	2.5200	0	34.4740	0	27.516	0	1369.039	0	18.6	4	5.7	4	-1E+10	1	-1E+10	1	-1E+10	1	-1E+10	1	-1E+10	1	-1E+10	1
4902551	89	C	01/29/2023	21:04	-131.310	47.864	0	1395.50	0	2.5090	0	34.4760	0	27.518	0	1379.186	0	19.0	4	5.8	4	-1E+10	1	-1E+10	1	-1E+10	1	-1E+10	1	-1E+10	1	-1E+10	1
4902551	89	C	01/29/2023	21:04	-131.310	47.864	0	1405.70	0	2.4930	0	34.4790	0	27.522	0	1389.233	0	19.5	4	5.9	4	-1E+10	1	-1E+10	1	-1E+10	1	-1E+10	1	-1E+10	1	-1E+10	1
4902551	89	C	01/29/2023	21:04	-131.310	47.864	0	1415.70	0	2.4790	0	34.4820	0	27.526	0	1399.083	0	20.0	4	6.1	4	-1E+10	1	-1E+10	1	-1E+10	1	-1E+10	1	-1E+10	1	-1E+10	1
4902551	89	C	01/29/2023	21:04	-131.310	47.864	0	1425.40	0	2.4670	0	34.4840	0	27.528	0	1408.636	0	20.4	4	6.2	4	-1E+10	1	-1E+10	1	-1E+10	1	-1E+10	1	-1E+10	1	-1E+10	1
4902551	89	C	01/29/2023	21:04	-131.310	47.864	0	1435.20	0	2.4560	0	34.4860	0	27.531	0	1418.288	0	20.9	4	6.4	4	-1E+10	1	-1E+10	1	-1E+10	1	-1E+10	1	-1E+10	1	-1E+10	1
4902551	89	C	01/29/2023	21:04	-131.310	47.864	0	1445.30	0	2.4430	0	34.4890	0	27.534	0	1428.235	0	21.3	4	6.5	4	-1E+10	1	-1E+10	1	-1E+10	1	-1E+10	1	-1E+10	1	-1E+10	1
4902551	89	C	01/29/2023	21:04	-131.310	47.864	0	1455.30	0	2.4300	0	34.4910	0	27.537	0	1438.083	0	21.8	4	6.6	4	-1E+10	1	-1E+10	1	-1E+10	1	-1E+10	1	-1E+10	1	-1E+10	1
4902551	89	C	01/29/2023	21:04	-131.310	47.864	0	1465.60	0	2.4150	0	34.4940	0	27.541	0	1448.226	0	22.3	4	6.8	4	-1E+10	1	-1E+10	1	-1E+10	1	-1E+10	1	-1E+10	1	-1E+10	1
4902551	89	C	01/29/2023	21:04	-131.310	47.864	0	1475.30	0	2.4060	0	34.4960	0	27.543	0	1457.777	0	22.7	4	6.9	4	-1E+10	1	-1E+10	1	-1E+10	1	-1E+10	1	-1E+10	1	-1E+10	1
4902551	89	C	01/29/2023	21:04	-131.310	47.864	0	1485.50	0	2.3950	0	34.4980	0	27.546	0	1467.821	0	23.1	4	7.0	4	-1E+10	1	-1E+10	1	-1E+10	1	-1E+10	1	-1E+10	1	-1E+10	1
4902551	89	C	01/29/2023	21:04	-131.310	47.864	0	1495.50	0	2.3870	0	34.4990	0	27.547	0	1477.667	0	23.6	4	7.2	4	-1E+10	1	-1E+10	1	-1E+10	1	-1E+10	1	-1E+10	1	-1E+10	1
4902551	89	C	01/29/2023	21:04	-131.310	47.864	0	1505.50	0	2.3710	0	34.5020	0	27.551	0	1487.512	0	24.3	4	7.4	4	-1E+10	1	-1E+10	1	-1E+10	1	-1E+10	1	-1E+10	1	-1E+10	1
4902551	89	C	01/29/2023	21:04	-131.310	47.864	0	1515.60	0	2.3560	0	34.5050	0	27.555	0	1497.456	0	24.9	4	7.6	4	-1E+10	1	-1E+10	1	-1E+10	1	-1E+10	1	-1E+10	1	-1E+10	1
4902551	89	C	01/29/2023	21:04	-131.310	47.864	0	1525.30	0	2.3450	0	34.5070	0	27.557	0	1507.005	0	25.3	4	7.7	4	-1E+10	1	-1E+10	1	-1E+10	1	-1E+10	1	-1E+10	1	-1E+10	1
4902551	89	C	01/29/2023	21:04	-131.310	47.864	0	1535.30	0	2.3370	0	34.5080	0	27.559	0	1516.850	0	25.8	4	7.8	4	-1E+10	1	-1E+10	1	-1E+10	1	-1E+10	1	-1E+10	1	-1E+10	1
4902551	89	C	01/29/2023	21:04	-131.310	47.864	0	1545.30	0	2.3260	0	34.5100	0	27.561	0	1526.693	0	26.3	4	8.0	4	-1E+10	1	-1E+10	1	-1E+10	1	-1E+10	1	-1E+10	1	-1E+10	1
4902551	89	C	01/29/2023	21:04	-131.310	47.864	0	1555.20	0	2.3160	0	34.5120	0	27.564	0	1536.438	0	26.7	4	8.1	4	-1E+10	1	-1E+10	1	-1E+10	1	-1E+10	1	-1E+10	1	-1E+10	1
4902551	89	C	01/29/2023	21:04	-131.310	47.864	0	1565.10	0	2.3050	0	34.5140	0	27.566	0	1546.183	0	27.3	4	8.3	4	-1E+10	1	-1E+10	1	-1E+10	1	-1E+10	1	-1E+10	1	-1E+10	1
4902551	89	C	01/29/2023	21:04	-131.310	47.864	0	1575.30	0	2.2910	0	34.5160	0	27.569	0	1556.222	0	27.9	4	8.5	4	-1E+10	1	-1E+10	1	-1E+10	1	-1E+10	1	-1E+10	1	-1E+10	1
4902551	89	C	01/29/2023	21:04	-131.310	47.864	0	1585.50	0	2.2830	0	34.5180	0	27.571	0	1566.261	0	28.5	4	8.6	4	-1E+10	1	-1E+10	1	-1E+10	1	-1E+10	1	-1E+10	1	-1E+10	1
4902551	89	C	01/29/2023	21:04	-131.310	47.864	0	1595.40	0	2.2700	0	34.5200	0	27.574	0	1576.004	0	29.2	4	8.9	4	-1E+10	1	-1E+10	1	-1E+10	1	-1E+10	1	-1E+10	1	-1E+10	1
4902551	89	C	01/29/2023	21:04	-131.310	47.864	0	1605.50	0	2.2560	0	34.5230	0	27.578	0	1585.943	0	29.8	4	9.0	4	-1E+10	1	-1E+10	1	-1E+10	1	-1E+10	1	-1E+10	1	-1E+10	1
4902551	89	C	01/29/2023	21:04	-131.310	47.864	0	1615.20	0	2.2460	0	34.5240	0	27.579	0	1595.488	0	30.3	4	9.2	4	-1E+10	1	-1E+10	1	-1E+10	1	-1E+10	1	-1E+10	1	-1E+10	1
4902551	89	C	01/29/2023	21:04	-131.310	47.864	0	1625.20	0	2.2390	0	34.5260	0	27.582	0	1605.328	0	30.8	4	9.4	4	-1E+10	1	-1E+10	1	-1E+10	1	-1E+10	1	-1E+10	1	-1E+10	1
4902551	89	C	01/29/2023	21:04	-131.310	47.864	0	1635.20	0	2.2280	0	34.5280	0	27.584	0	1615.168	0	31.5	4	9.5	4	-1E+10	1	-1E+10	1	-1E+10	1	-1E+10	1	-1E+10	1	-1E+10	1
4902551	89	C	01/29/2023	21:04	-131.310	47.864	0	1645.40	0	2.2170	0	34.5300	0	27.587	0	1625.204	0	32.0	4	9.7	4	-1E+10	1	-1E+10	1	-1E+10	1	-1E+10	1	-1E+10	1	-1E+10	1
4902551	89	C	01/29/2023	21:04	-131.310	47.864	0	1655.70	0	2.2110	0	34.5310	0	27.588	0	1635.338	0	32.5	4	9.8	4	-1E+10	1	-1E+10	1	-1E+10	1	-1E+10	1	-1E+10	1	-1E+10	1
4902551	89	C	01/29/2023	21:04	-131.310	47.864	0	1665.50	0	2.2030	0	34.5330	0	27.590	0	1644.979	0	32.9	4	10.0	4	-1E+10	1	-1E+10	1	-1E+10	1	-1E+10	1	-1E+10	1	-1E+10	1
4902551	89	C	01/29/2023	21:04	-131.310	47.864	0	1675.40	0	2.1970	0	34.5340	0	27.592	0	1654.719	0	33.4	4	10.1	4	-1E+10	1	-1E+10	1	-1E+10	1	-1E+10	1	-1E+10	1	-1E+10	1
4902551	89	C	01/29/2023	21:04	-131.310	47.864	0	1685.10	0	2.1890	0	34.5350	0	27.593	0	1664.261	0	34.2	4	10.4	4	-1E+10	1	-1E+10	1	-1E+10	1	-1E+10	1	-1E+10	1	-1E+10	1
4902551	89	C	01/29/2023	21:04	-131.310	47.864	0	1695.20	0	2.1710	0	34.5380	0	27.597	0	1674.196	0	35.2	4	10.7	4	-1E+10	1	-1E+10	1	-1E+10	1	-1E+10	1	-1E+10	1	-1E+10	1
4902551	89	C	01/29/2023	21:04	-131.310	47.864	0	1705.30	0	2.1560	0	34.5410	0	27.601	0	1684.131	0	36.1	4	10.9	4	-1E+10	1	-1E+10	1	-1E+10	1	-1E+10	1	-1E+10	1	-1E+10	1
4902551	89	C	01/29/2023	21:04	-131.310	47.864	0	1715.10	0	2.1390	0	34.5440	0	27.604	0	1693.770	0	37.0	4	11.2	4	-1E+10	1	-1E+10	1	-1E+10	1	-1E+10	1	-1E+10	1	-1E+10	1
4902551	89	C	01/29/2023	21:04	-131.310	47.864	0	1725.30	0	2.1280	0	34.5460	0	27.607	0	1703.802	0	37.6	4	11.4	4	-1E+10	1	-1E+10	1	-1E+10	1	-1E+10	1	-1E+10	1	-1E+10	1
4902551	89	C	01/29/2023	21:04	-131.310	47.864	0	1735.40	0	2.1210	0	34.5470	0	27.608	0	1713.736	0	38.3	4	11.6	4	-1E+10	1	-1E+10	1	-1E+10	1	-1E+10	1	-1E+10	1	-1E+10	1
4902551	89	C	01/29/2023	21:04	-131.310	47.864	0	1745.70	0	2.1090	0	34.5500	0	27.612	0	1723.865	0	38.9	4	11.8	4	-1E+10	1	-1E+10	1	-1E+10	1	-1E+10	1	-1E+10	1	-1E+10	1
4902551	89	C	01/29/2023	21:04	-131.310	47.864	0	1755.70	0	2.1030	0	34.5510	0	27.613	0	1733.699	0	39.3	4	11.9	4	-1E+10	1	-1E+10	1	-1E+10	1	-1E+10	1	-1E+10	1	-1E+10	1
4902551	89	C	01/29/2023	21:04	-131.310	47.864	0	1765.30	0	2.0950	0	34.5530	0	27.615	0	1743.140	0	39.8	4	12.0	4	-1E+10	1	-1E+10	1	-1E+10	1	-1E+10	1	-1E+10	1	-1E+10	1
4902551	89	C	01/29/2023	21:04	-131.310	47.864	0	1775.50	0	2.0900	0	34.5530	0	27.616	0	1753.170	0	40.3	4	12.2	4	-1E+10	1	-1E+10	1	-1E+10	1	-1E+10	1	-1E+10	1	-1E+10	1
4902551	89	C	01/29/2023	21:04	-131.310	47.864	0	1785.20	0	2.0850	0	34.5540	0	27.617	0	1762.707	0	40.9	4	12.4	4	-1E+10	1	-1E+10	1	-1E+10	1	-1E+10	1	-1E+10	1	-1E+10	1
4902551	89	C	01/29/2023	21:04	-131.310	47.864	0	1795.10	0	2.0740	0	34.5560	0	27.620	0	1772.441	0	41.7	4	12.6	4	-1E+10	1	-1E+10	1	-1E+10	1	-1E+10	1	-1E+10	1	-1E+10	1
4902551	89	C	01/29/2023	21:04	-131.310	47.864	0	1805.10	0	2.0650	0	34.5580	0	27.622	0	1782.273	0	42.3	4	12.8	4	-1E+10	1	-1E+10	1	-1E+10	1	-1E+10	1	-1E+10	1	-1E+10	1
4902551	89	C	01/29/2023	21:04	-131.310	47.864	0	1815.50	0	2.0600	0	34.5590	0	27.623	0	1792.498	0	42.9	4	12.9	4	-1E+10	1	-1E+10	1	-1E+10	1	-1E+10	1	-1E+10	1	-1E+10	1
4902551	89	C	01/29/2023	21:04	-131.310	47.864	0	1825.70	0	2.0530	0	34.5610	0	27.625	0	1802.525	0	43.7	4	13.2	4	-1E+10	1	-1E+10	1	-1E+10	1	-1E+10	1	-1E+10	1	-1E+10	1
4902551	89	C	01/29/2023	21:04	-131.310	47.864	0	1835.60	0	2.0400	0	34.5630	0	27.628	0	1812.257	0	44.4	4	13.4	4	-1E+10	1	-1E+10	1	-1E+10	1	-1E+10	1	-1E+10	1	-1E+10	1
4902551	89	C	01/29/2023	21:04	-131.310	47.864	0	1845.70	0	2.0320	0	34.5650	0	27.630	0	1822.186	0	45.0	4	13.6	4	-1E+10	1	-1E+10	1	-1E+10	1	-1E+10	1	-1E+10	1	-1E+10	1
4902551	89	C	01/29/2023	21:04	-131.310	47.864	0	1855.40	0	2.0270	0	34.5660	0	27.632	0	1831.720	0	45.5	4	13.7	4	-1E+10	1	-1E+10	1	-1E+10	1	-1E+10	1	-1E+10	1	-1E+10	1
4902551	89	C	01/29/2023	21:04	-131.310	47.864	0	1865.60	0	2.0200	0	34.5670	0	27.633	0	1841.746	0	46.1	4	13.9	4	-1E+10	1	-1E+10	1	-1E+10	1	-1E+10	1	-1E+10	1	-1E+10	1
4902551	89	C	01/29/2023	21:04	-131.310	47.864	0	1875.40	0	2.0140	0	34.5680	0	27.634	0	1851.378	0	46.7	4	14.1	4	-1E+10	1	-1E+10	1	-1E+10	1	-1E+10	1	-1E+10	1	-1E+10	1
4902551	89	C	01/29/2023	21:04	-131.310	47.864	0	1885.20	0	2.0060	0	34.5700	0	27.637	0	1861.010	0	47.2	4	14.2	4	-1E+10	1	-1E+10	1	-1E+10	1	-1E+10	1	-1E+10	1	-1E+10	1
4902551	89	C	01/29/2023	21:04	-131.310	47.864	0	1895.40	0	2.0020	0	34.5710	0	27.638	0	1871.034	0	47.6	4	14.3	4	-1E+10	1	-1E+10	1	-1E+10	1	-1E+10	1	-1E+10	1	-1E+10	1
4902551	89	C	01/29/2023	21:04	-131.310	47.864	0	1905.40	0	1.9980	0	34.5720	0	27.639	0	1880.861	0	48.0	4	14.5	4	-1E+10	1	-1E+10	1	-1E+10	1	-1E+10	1	-1E+10	1	-1E+10	1
4902551	89	C	01/29/2023	21:04	-131.310	47.864	0	1915.20	0	1.9950	0	34.5730	0	27.640	0	1890.492	0	48.4	4	14.6	4	-1E+10	1	-1E+10	1	-1E+10	1	-1E+10	1	-1E+10	1	-1E+10	1
4902551	89	C	01/29/2023	21:04	-131.310	47.864	0	1925.50	0	1.9890	0	34.5740	0	27.641	0	1900.613	0	49.3	4	14.9	4	-1E+10	1	-1E+10	1	-1E+10	1	-1E+10	1	-1E+10	1	-1E+10	1
4902551	89	C	01/29/2023	21:04	-131.310	47.864	0	1935.80	0	1.9770	0	34.5760	0	27.644	0	1910.734	0	50.4	4	15.2	4	-1E+10	1	-1E+10	1	-1E+10	1	-1E+10	1	-1E+10	1	-1E+10	1
4902551	89	C	01/29/2023	21:04	-131.310	47.864	0	1945.60	0	1.9660	0	34.5780	0	27.646	0	1920.362	0	51.3	4	15.5	4	-1E+10	1	-1E+10	1	-1E+10	1	-1E+10	1	-1E+10	1	-1E+10	1
4902551	89	C	01/29/2023	21:04	-131.310	47.864	0	1955.20	0	1.9560	0	34.5800	0	27.649	0	1929.794	0	52.0	4	15.7	4	-1E+10	1	-1E+10	1	-1E+10	1	-1E+10	1	-1E+10	1	-1E+10	1
4902551	89	C	01/29/2023	21:04	-131.310	47.864	0	1965.10	0	1.9500	0	34.5810	0	27.650	0	1939.521	0	52.5	4	15.8	4	-1E+10	1	-1E+10	1	-1E+10	1	-1E+10	1	-1E+10	1	-1E+10	1
4902551	89	C	01/29/2023	21:04	-131.310	47.864	0	1975.10	0	1.9440	0	34.5830	0	27.652	0	1949.345	0	53.0	4	16.0	4	-1E+10	1	-1E+10	1	-1E+10	1	-1E+10	1	-1E+10	1	-1E+10	1
4902551	89	C	01/29/2023	21:04	-131.310	47.864	0	1985.10	0	1.9380	0	34.5840	0	27.654	0	1959.169	0	53.5	4	16.1	4	-1E+10	1	-1E+10	1	-1E+10	1	-1E+10	1	-1E+10	1	-1E+10	1
4902551	89	C	01/29/2023	21:04	-131.310	47.864	0	1995.20	0	1.9330	0	34.5850	0	27.655	0	1969.090	0	53.9	4	16.2	4	-1E+10	1	-1E+10	1	-1E+10	1	-1E+10	1	-1E+10	1	-1E+10	1
4902551	89	C	01/29/2023	21:04	-131.310	47.864	0	2005.70	0	1.9260	0	34.5860	0	27.656	0	1979.404	0	54.1	4	16.3	4	-1E+10	1	-1E+10	1	-1E+10	1	-1E+10	1	-1E+10	1	-1E+10	1
4902551	89	C	01/29/2023	21:04	-131.310	47.864	0	2013.50	0	1.9250	0	34.5870	0	27.657	0	1987.065	0	53.6	4	16.1	4	-1E+10	1	-1E+10	1	-1E+10	1	-1E+10	1	-1E+10	1	-1E+10	1
4902551	89	C	01/29/2023	21:04	-131.310	47.864	0																										
4902551	90	C	02/09/2023	02:02	-131.289	47.864	0	1.10	0	8.6250	0	32.2820	0	25.048	0	1.091	0	269.6	4	93.4	4	-1E+10	1	-1E+10	1	-1E+10	1	-1E+10	1	-1E+10	1	-1E+10	1
4902551	90	C	02/09/2023	02:02	-131.289	47.864	0	1.90	0	8.6250	0	32.2820	0	25.048	0	1.884	0	-1e10	1	-1e10	1	-1E+10	1	-1E+10	1	-1E+10	1	-1E+10	1	-1E+10	1	-1E+10	1
4902551	90	C	02/09/2023	02:02	-131.289	47.864	0	2.10	0	8.6250	0	32.2822	0	25.048	0	2.082	0	269.6	4	93.4	4	-1E+10	1	-1E+10	1	-1E+10	1	-1E+10	1	-1E+10	1	-1E+10	1
4902551	90	C	02/09/2023	02:02	-131.289	47.864	0	2.90	0	8.6250	0	32.2830	0	25.049	0	2.876	0	269.6	4	93.4	4	-1E+10	1	-1E+10	1	-1E+10	1	-1E+10	1	-1E+10	1	-1E+10	1
4902551	90	C	02/09/2023	02:02	-131.289	47.864	0	3.80	0	8.6250	0	32.2830	0	25.049	0	3.768	0	269.5	4	93.4	4	-1E+10	1	-1E+10	1	-1E+10	1	-1E+10	1	-1E+10	1	-1E+10	1
4902551	90	C	02/09/2023	02:02	-131.289	47.864	0	4.80	0	8.6250	0	32.2830	0	25.049	0	4.760	0	269.5	4	93.4	4	-1E+10	1	-1E+10	1	-1E+10	1	-1E+10	1	-1E+10	1	-1E+10	1
4902551	90	C	02/09/2023	02:02	-131.289	47.864	0	5.80	0	8.6250	0	32.2840	0	25.050	0	5.751	0	269.5	4	93.4	4	-1E+10	1	-1E+10	1	-1E+10	1	-1E+10	1	-1E+10	1	-1E+10	1
4902551	90	C	02/09/2023	02:02	-131.289	47.864	0	6.80	0	8.6240	0	32.2840	0	25.050	0	6.743	0	269.5	4	93.4	4	-1E+10	1	-1E+10	1	-1E+10	1	-1E+10	1	-1E+10	1	-1E+10	1
4902551	90	C	02/09/2023	02:02	-131.289	47.864	0	7.90	0	8.6220	0	32.2830	0	25.049	0	7.834	0	269.5	4	93.4	4	-1E+10	1	-1E+10	1	-1E+10	1	-1E+10	1	-1E+10	1	-1E+10	1
4902551	90	C	02/09/2023	02:02	-131.289	47.864	0	9.00	0	8.6220	0	32.2830	0	25.049	0	8.924	0	-1e10	1	-1e10	1	-1E+10	1	-1E+10	1	-1E+10	1	-1E+10	1	-1E+10	1	-1E+10	1
4902551	90	C	02/09/2023	02:02	-131.289	47.864	0	9.20	0	8.6220	0	32.2830	0	25.049	0	9.123	0	269.5	4	93.4	4	-1E+10	1	-1E+10	1	-1E+10	1	-1E+10	1	-1E+10	1	-1E+10	1
4902551	90	C	02/09/2023	02:02	-131.289	47.864	0	10.10	0	8.6220	0	32.2830	0	25.049	0	10.015	0	269.4	4	93.4	4	-1E+10	1	-1E+10	1	-1E+10	1	-1E+10	1	-1E+10	1	-1E+10	1
4902551	90	C	02/09/2023	02:02	-131.289	47.864	0	10.80	0	8.6220	0	32.2840	0	25.050	0	10.709	0	269.4	4	93.3	4	-1E+10	1	-1E+10	1	-1E+10	1	-1E+10	1	-1E+10	1	-1E+10	1
4902551	90	C	02/09/2023	02:02	-131.289	47.864	0	11.60	0	8.6250	0	32.2840	0	25.050	0	11.502	0	269.5	4	93.4	4	-1E+10	1	-1E+10	1	-1E+10	1	-1E+10	1	-1E+10	1	-1E+10	1
4902551	90	C	02/09/2023	02:02	-131.289	47.864	0	12.70	0	8.6250	0	32.2840	0	25.050	0	12.593	0	269.4	4	93.4	4	-1E+10	1	-1E+10	1	-1E+10	1	-1E+10	1	-1E+10	1	-1E+10	1
4902551	90	C	02/09/2023	02:02	-131.289	47.864	0	13.90	0	8.6220	0	32.2820	0	25.049	0	13.783	0	269.4	4	93.3	4	-1E+10	1	-1E+10	1	-1E+10	1	-1E+10	1	-1E+10	1	-1E+10	1
4902551	90	C	02/09/2023	02:02	-131.289	47.864	0	15.20	0	8.6200	0	32.2830	0	25.050	0	15.072	0	269.4	4	93.3	4	-1E+10	1	-1E+10	1	-1E+10	1	-1E+10	1	-1E+10	1	-1E+10	1
4902551	90	C	02/09/2023	02:02	-131.289	47.864	0	16.50	0	8.6220	0	32.2830	0	25.050	0	16.361	0	269.4	4	93.4	4	-1E+10	1	-1E+10	1	-1E+10	1	-1E+10	1	-1E+10	1	-1E+10	1
4902551	90	C	02/09/2023	02:02	-131.289	47.864	0	17.80	0	8.6210	0	32.2830	0	25.050	0	17.650	0	269.4	4	93.3	4	-1E+10	1	-1E+10	1	-1E+10	1	-1E+10	1	-1E+10	1	-1E+10	1
4902551	90	C	02/09/2023	02:02	-131.289	47.864	0	19.10	0	8.6200	0	32.2830	0	25.050	0	18.939	0	269.4	4	93.3	4	-1E+10	1	-1E+10	1	-1E+10	1	-1E+10	1	-1E+10	1	-1E+10	1
4902551	90	C	02/09/2023	02:02	-131.289	47.864	0	20.30	0	8.6200	0	32.2830	0	25.050	0	20.129	0	269.4	4	93.3	4	-1E+10	1	-1E+10	1	-1E+10	1	-1E+10	1	-1E+10	1	-1E+10	1
4902551	90	C	02/09/2023	02:02	-131.289	47.864	0	21.40	0	8.6220	0	32.2840	0	25.050	0	21.220	0	269.4	4	93.4	4	-1E+10	1	-1E+10	1	-1E+10	1	-1E+10	1	-1E+10	1	-1E+10	1
4902551	90	C	02/09/2023	02:02	-131.289	47.864	0	22.40	0	8.6240	0	32.2830	0	25.049	0	22.211	0	269.4	4	93.3	4	-1E+10	1	-1E+10	1	-1E+10	1	-1E+10	1	-1E+10	1	-1E+10	1
4902551	90	C	02/09/2023	02:02	-131.289	47.864	0	23.20	0	8.6230	0	32.2830	0	25.049	0	23.004	0	269.4	4	93.4	4	-1E+10	1	-1E+10	1	-1E+10	1	-1E+10	1	-1E+10	1	-1E+10	1
4902551	90	C	02/09/2023	02:02	-131.289	47.864	0	23.90	0	8.6220	0	32.2830	0	25.050	0	23.698	0	269.3	4	93.3	4	-1E+10	1	-1E+10	1	-1E+10	1	-1E+10	1	-1E+10	1	-1E+10	1
4902551	90	C	02/09/2023	02:02	-131.289	47.864	0	25.00	0	8.6220	0	32.2820	0	25.049	0	24.789	0	269.3	4	93.3	4	-1E+10	1	-1E+10	1	-1E+10	1	-1E+10	1	-1E+10	1	-1E+10	1
4902551	90	C	02/09/2023	02:02	-131.289	47.864	0	25.90	0	8.6220	0	32.2830	0	25.050	0	25.681	0	269.4	4	93.3	4	-1E+10	1	-1E+10	1	-1E+10	1	-1E+10	1	-1E+10	1	-1E+10	1
4902551	90	C	02/09/2023	02:02	-131.289	47.864	0	26.80	0	8.6220	0	32.2830	0	25.050	0	26.574	0	269.4	4	93.3	4	-1E+10	1	-1E+10	1	-1E+10	1	-1E+10	1	-1E+10	1	-1E+10	1
4902551	90	C	02/09/2023	02:02	-131.289	47.864	0	27.80	0	8.6220	0	32.2850	0	25.051	0	27.565	0	269.3	4	93.3	4	-1E+10	1	-1E+10	1	-1E+10	1	-1E+10	1	-1E+10	1	-1E+10	1
4902551	90	C	02/09/2023	02:02	-131.289	47.864	0	28.80	0	8.6240	0	32.2820	0	25.049	0	28.557	0	269.3	4	93.3	4	-1E+10	1	-1E+10	1	-1E+10	1	-1E+10	1	-1E+10	1	-1E+10	1
4902551	90	C	02/09/2023	02:02	-131.289	47.864	0	30.00	0	8.6240	0	32.2840	0	25.050	0	29.746	0	269.3	4	93.3	4	-1E+10	1	-1E+10	1	-1E+10	1	-1E+10	1	-1E+10	1	-1E+10	1
4902551	90	C	02/09/2023	02:02	-131.289	47.864	0	30.80	0	8.6230	0	32.2830	0	25.050	0	30.540	0	269.3	4	93.3	4	-1E+10	1	-1E+10	1	-1E+10	1	-1E+10	1	-1E+10	1	-1E+10	1
4902551	90	C	02/09/2023	02:02	-131.289	47.864	0	32.00	0	8.6230	0	32.2830	0	25.050	0	31.729	0	269.3	4	93.3	4	-1E+10	1	-1E+10	1	-1E+10	1	-1E+10	1	-1E+10	1	-1E+10	1
4902551	90	C	02/09/2023	02:02	-131.289	47.864	0	33.00	0	8.6220	0	32.2830	0	25.050	0	32.721	0	269.3	4	93.3	4	-1E+10	1	-1E+10	1	-1E+10	1	-1E+10	1	-1E+10	1	-1E+10	1
4902551	90	C	02/09/2023	02:02	-131.289	47.864	0	33.90	0	8.6220	0	32.2830	0	25.050	0	33.613	0	269.3	4	93.3	4	-1E+10	1	-1E+10	1	-1E+10	1	-1E+10	1	-1E+10	1	-1E+10	1
4902551	90	C	02/09/2023	02:02	-131.289	47.864	0	34.90	0	8.6230	0	32.2830	0	25.050	0	34.605	0	269.3	4	93.3	4	-1E+10	1	-1E+10	1	-1E+10	1	-1E+10	1	-1E+10	1	-1E+10	1
4902551	90	C	02/09/2023	02:02	-131.289	47.864	0	36.10	0	8.6240	0	32.2830	0	25.050	0	35.794	0	269.4	4	93.3	4	-1E+10	1	-1E+10	1	-1E+10	1	-1E+10	1	-1E+10	1	-1E+10	1
4902551	90	C	02/09/2023	02:02	-131.289	47.864	0	36.90	0	8.6250	0	32.2830	0	25.049	0	36.588	0	269.3	4	93.3	4	-1E+10	1	-1E+10	1	-1E+10	1	-1E+10	1	-1E+10	1	-1E+10	1
4902551	90	C	02/09/2023	02:02	-131.289	47.864	0	37.90	0	8.6230	0	32.2830	0	25.050	0	37.579	0	269.4	4	93.4	4	-1E+10	1	-1E+10	1	-1E+10	1	-1E+10	1	-1E+10	1	-1E+10	1
4902551	90	C	02/09/2023	02:02	-131.289	47.864	0	39.00	0	8.6240	0	32.2830	0	25.050	0	38.670	0	269.3	4	93.3	4	-1E+10	1	-1E+10	1	-1E+10	1	-1E+10	1	-1E+10	1	-1E+10	1
4902551	90	C	02/09/2023	02:02	-131.289	47.864	0	39.80	0	8.6250	0	32.2830	0	25.049	0	39.463	0	269.3	4	93.3	4	-1E+10	1	-1E+10	1	-1E+10	1	-1E+10	1	-1E+10	1	-1E+10	1
4902551	90	C	02/09/2023	02:02	-131.289	47.864	0	40.90	0	8.6250	0	32.2830	0	25.049	0	40.553	0	269.3	4	93.3	4	-1E+10	1	-1E+10	1	-1E+10	1	-1E+10	1	-1E+10	1	-1E+10	1
4902551	90	C	02/09/2023	02:02	-131.289	47.864	0	42.10	0	8.6250	0	32.2830	0	25.049	0	41.743	0	269.4	4	93.3	4	-1E+10	1	-1E+10	1	-1E+10	1	-1E+10	1	-1E+10	1	-1E+10	1
4902551	90	C	02/09/2023	02:02	-131.289	47.864	0	42.90	0	8.6250	0	32.2830	0	25.049	0	42.536	0	269.3	4	93.3	4	-1E+10	1	-1E+10	1	-1E+10	1	-1E+10	1	-1E+10	1	-1E+10	1
4902551	90	C	02/09/2023	02:02	-131.289	47.864	0	43.90	0	8.6250	0	32.2830	0	25.049	0	43.528	0	269.3	4	93.3	4	-1E+10	1	-1E+10	1	-1E+10	1	-1E+10	1	-1E+10	1	-1E+10	1
4902551	90	C	02/09/2023	02:02	-131.289	47.864	0	45.10	0	8.6260	0	32.2830	0	25.049	0	44.717	0	269.3	4	93.3	4	-1E+10	1	-1E+10	1	-1E+10	1	-1E+10	1	-1E+10	1	-1E+10	1
4902551	90	C	02/09/2023	02:02	-131.289	47.864	0	46.00	0	8.6260	0	32.2830	0	25.049	0	45.609	0	269.3	4	93.3	4	-1E+10	1	-1E+10	1	-1E+10	1	-1E+10	1	-1E+10	1	-1E+10	1
4902551	90	C	02/09/2023	02:02	-131.289	47.864	0	46.90	0	8.6260	0	32.2830	0	25.049	0	46.502	0	269.3	4	93.3	4	-1E+10	1	-1E+10	1	-1E+10	1	-1E+10	1	-1E+10	1	-1E+10	1
4902551	90	C	02/09/2023	02:02	-131.289	47.864	0	48.10	0	8.6260	0	32.2830	0	25.049	0	47.691	0	269.2	4	93.3	4	-1E+10	1	-1E+10	1	-1E+10	1	-1E+10	1	-1E+10	1	-1E+10	1
4902551	90	C	02/09/2023	02:02	-131.289	47.864	0	48.90	0	8.6260	0	32.2830	0	25.049	0	48.485	0	269.2	4	93.3	4	-1E+10	1	-1E+10	1	-1E+10	1	-1E+10	1	-1E+10	1	-1E+10	1
4902551	90	C	02/09/2023	02:02	-131.289	47.864	0	50.10	0	8.6280	0	32.2830	0	25.049	0	49.674	0	269.2	4	93.3	4	-1E+10	1	-1E+10	1	-1E+10	1	-1E+10	1	-1E+10	1	-1E+10	1
4902551	90	C	02/09/2023	02:02	-131.289	47.864	0	51.00	0	8.6280	0	32.2830	0	25.049	0	50.566	0	269.1	4	93.3	4	-1E+10	1	-1E+10	1	-1E+10	1	-1E+10	1	-1E+10	1	-1E+10	1
4902551	90	C	02/09/2023	02:02	-131.289	47.864	0	52.10	0	8.6280	0	32.2830	0	25.049	0	51.657	0	269.2	4	93.3	4	-1E+10	1	-1E+10	1	-1E+10	1	-1E+10	1	-1E+10	1	-1E+10	1
4902551	90	C	02/09/2023	02:02	-131.289	47.864	0	52.90	0	8.6280	0	32.2830	0	25.049	0	52.450	0	269.1	4	93.3	4	-1E+10	1	-1E+10	1	-1E+10	1	-1E+10	1	-1E+10	1	-1E+10	1
4902551	90	C	02/09/2023	02:02	-131.289	47.864	0	54.00	0	8.6290	0	32.2830	0	25.049	0	53.541	0	269.0	4	93.2	4	-1E+10	1	-1E+10	1	-1E+10	1	-1E+10	1	-1E+10	1	-1E+10	1
4902551	90	C	02/09/2023	02:02	-131.289	47.864	0	55.00	0	8.6280	0	32.2830	0	25.049	0	54.532	0	269.0	4	93.2	4	-1E+10	1	-1E+10	1	-1E+10	1	-1E+10	1	-1E+10	1	-1E+10	1
4902551	90	C	02/09/2023	02:02	-131.289	47.864	0	56.00	0	8.6290	0	32.2840	0	25.050	0	55.523	0	269.0	4	93.2	4	-1E+10	1	-1E+10	1	-1E+10	1	-1E+10	1	-1E+10	1	-1E+10	1
4902551	90	C	02/09/2023	02:02	-131.289	47.864	0	56.80	0	8.6290	0	32.2840	0	25.050	0	56.316	0	269.0	4	93.2	4	-1E+10	1	-1E+10	1	-1E+10	1	-1E+10	1	-1E+10	1	-1E+10	1
4902551	90	C	02/09/2023	02:02	-131.289	47.864	0	57.80	0	8.6300	0	32.2840	0	25.050	0	57.308	0	269.0	4	93.2	4	-1E+10	1	-1E+10	1	-1E+10	1	-1E+10	1	-1E+10	1	-1E+10	1
4902551	90	C	02/09/2023	02:02	-131.289	47.864	0	59.00	0	8.6300	0	32.2830	0	25.049	0	58.497	0	269.0	4	93.2	4	-1E+10	1	-1E+10	1	-1E+10	1	-1E+10	1	-1E+10	1	-1E+10	1
4902551	90	C	02/09/2023	02:02	-131.289	47.864	0	60.00	0	8.6270	0	32.2830	0	25.049	0	59.489	0	269.0	4	93.2	4	-1E+10	1	-1E+10	1	-1E+10	1	-1E+10	1	-1E+10	1	-1E+10	1
4902551	90	C	02/09/2023	02:02	-131.289	47.864	0	60.90	0	8.6290	0	32.2830	0	25.049	0	60.381	0	268.9	4	93.2	4	-1E+10	1	-1E+10	1	-1E+10	1	-1E+10	1	-1E+10	1	-1E+10	1
4902551	90	C	02/09/2023	02:02	-131.289	47.864	0	61.90	0	8.6280	0	32.2830	0	25.049	0	61.372	0	268.9	4	93.2	4	-1E+10	1	-1E+10	1	-1E+10	1	-1E+10	1	-1E+10	1	-1E+10	1
4902551	90	C	02/09/2023	02:02	-131.289	47.864	0	63.10	0	8.6290	0	32.2830	0	25.049	0	62.562	0	268.8	4	93.1	4	-1E+10	1	-1E+10	1	-1E+10	1	-1E+10	1	-1E+10	1	-1E+10	1
4902551	90	C	02/09/2023	02:02	-131.289	47.864	0	63.90	0	8.6260	0	32.2830	0	25.050	0	63.355	0	268.5	4	93.0	4	-1E+10	1	-1E+10	1	-1E+10	1	-1E+10	1	-1E+10	1	-1E+10	1
4902551	90	C	02/09/2023	02:02	-131.289	47.864	0	65.00	0	8.6270	0	32.2850	0	25.051	0	64.445	0	268.2	4	93.0	4	-1E+10	1	-1E+10	1	-1E+10	1	-1E+10	1	-1E+10	1	-1E+10	1
4902551	90	C	02/09/2023	02:02	-131.289	47.864	0	66.30	0	8.6270	0	32.2850	0	25.051	0	65.734	0	268.2	4	92.9	4	-1E+10	1	-1E+10	1	-1E+10	1	-1E+10	1	-1E+10	1	-1E+10	1
4902551	90	C	02/09/2023	02:02	-131.289	47.864	0	67.10	0	8.6310	0	32.2840	0	25.050	0	66.527	0	268.2	4	92.9	4	-1E+10	1	-1E+10	1	-1E+10	1	-1E+10	1	-1E+10	1	-1E+10	1
4902551	90	C	02/09/2023	02:02	-131.289	47.864	0	68.00	0	8.6290	0	32.2850	0	25.051	0	67.419	0	268.1	4	92.9	4	-1E+10	1	-1E+10	1	-1E+10	1	-1E+10	1	-1E+10	1	-1E+10	1
4902551	90	C	02/09/2023	02:02	-131.289	47.864	0	68.90	0	8.6300	0	32.2840	0	25.050	0	68.311	0	267.9	4	92.9	4	-1E+10	1	-1E+10	1	-1E+10	1	-1E+10	1	-1E+10	1	-1E+10	1
4902551	90	C	02/09/2023	02:02	-131.289	47.864	0	70.00	0	8.6320	0	32.2840	0	25.050	0	69.402	0	267.8	4	92.8	4	-1E+10	1	-1E+10	1	-1E+10	1	-1E+10	1	-1E+10	1	-1E+10	1
4902551	90	C	02/09/2023	02:02	-131.289	47.864	0	71.30	0	8.6320	0	32.2840	0	25.050	0	70.690	0	267.6	4	92.8	4	-1E+10	1	-1E+10	1	-1E+10	1	-1E+10	1	-1E+10	1	-1E+10	1
4902551	90	C	02/09/2023	02:02	-131.289	47.864	0	72.00	0	8.6300	0	32.2850	0	25.051	0	71.384	0	267.7	4	92.8	4	-1E+10	1	-1E+10	1	-1E+10	1	-1E+10	1	-1E+10	1	-1E+10	1
4902551	90	C	02/09/2023	02:02	-131.289	47.864	0	73.20	0	8.6300	0	32.2840	0	25.050	0	72.574	0	267.5	4	92.7	4	-1E+10	1	-1E+10	1	-1E+10	1	-1E+10	1	-1E+10	1	-1E+10	1
4902551	90	C	02/09/2023	02:02	-131.289	47.864	0	74.00	0	8.6260	0	32.2850	0	25.051	0	73.367	0	267.4	4	92.7	4	-1E+10	1	-1E+10	1	-1E+10	1	-1E+10	1	-1E+10	1	-1E+10	1
4902551	90	C	02/09/2023	02:02	-131.289	47.864	0	75.20	0	8.6190	0	32.2850	0	25.052	0	74.556	0	267.3	4	92.6	4	-1E+10	1	-1E+10	1	-1E+10	1	-1E+10	1	-1E+10	1	-1E+10	1
4902551	90	C	02/09/2023	02:02	-131.289	47.864	0	75.90	0	8.6190	0	32.2850	0	25.052	0	75.250	0	267.2	4	92.6	4	-1E+10	1	-1E+10	1	-1E+10	1	-1E+10	1	-1E+10	1	-1E+10	1
4902551	90	C	02/09/2023	02:02	-131.289	47.864	0	76.90	0	8.6180	0	32.2850	0	25.053	0	76.241	0	266.9	4	92.5	4	-1E+10	1	-1E+10	1	-1E+10	1	-1E+10	1	-1E+10	1	-1E+10	1
4902551	90	C	02/09/2023	02:02	-131.289	47.864	0	78.10	0	8.6050	0	32.2860	0	25.055	0	77.431	0	266.6	4	92.3	4	-1E+10	1	-1E+10	1	-1E+10	1	-1E+10	1	-1E+10	1	-1E+10	1
4902551	90	C	02/09/2023	02:02	-131.289	47.864	0	78.90	0	8.6010	0	32.2870	0	25.057	0	78.224	0	266.4	4	92.3	4	-1E+10	1	-1E+10	1	-1E+10	1	-1E+10	1	-1E+10	1	-1E+10	1
4902551	90	C	02/09/2023	02:02	-131.289	47.864	0	79.90	0	8.5970	0	32.2860	0	25.057	0	79.215	0	265.9	4	92.1	4	-1E+10	1	-1E+10	1	-1E+10	1	-1E+10	1	-1E+10	1	-1E+10	1
4902551	90	C	02/09/2023	02:02	-131.289	47.864	0	80.80	0	8.5910	0	32.2880	0	25.059	0	80.107	0	265.5	4	91.9	4	-1E+10	1	-1E+10	1	-1E+10	1	-1E+10	1	-1E+10	1	-1E+10	1
4902551	90	C	02/09/2023	02:02	-131.289	47.864	0	81.80	0	8.5900	0	32.2890	0	25.060	0	81.099	0	265.2	4	91.8	4	-1E+10	1	-1E+10	1	-1E+10	1	-1E+10	1	-1E+10	1	-1E+10	1
4902551	90	C	02/09/2023	02:02	-131.289	47.864	0	83.00	0	8.5970	0	32.2880	0	25.058	0	82.288	0	264.6	4	91.6	4	-1E+10	1	-1E+10	1	-1E+10	1	-1E+10	1	-1E+10	1	-1E+10	1
4902551	90	C	02/09/2023	02:02	-131.289	47.864	0	83.70	0	8.5950	0	32.2870	0	25.058	0	82.982	0	264.2	4	91.5	4	-1E+10	1	-1E+10	1	-1E+10	1	-1E+10	1	-1E+10	1	-1E+10	1
4902551	90	C	02/09/2023	02:02	-131.289	47.864	0	84.80	0	8.5930	0	32.2870	0	25.058	0	84.072	0	270.3	4	93.6	4	-1E+10	1	-1E+10	1	-1E+10	1	-1E+10	1	-1E+10	1	-1E+10	1
4902551	90	C	02/09/2023	02:02	-131.289	47.864	0	85.90	0	8.5800	0	32.2880	0	25.061	0	85.163	0	269.4	4	93.3	4	-1E+10	1	-1E+10	1	-1E+10	1	-1E+10	1	-1E+10	1	-1E+10	1
4902551	90	C	02/09/2023	02:02	-131.289	47.864	0	87.00	0	8.5540	0	32.2940	0	25.069	0	86.253	0	268.5	4	92.9	4	-1E+10	1	-1E+10	1	-1E+10	1	-1E+10	1	-1E+10	1	-1E+10	1
4902551	90	C	02/09/2023	02:02	-131.289	47.864	0	88.00	0	8.5450	0	32.2930	0	25.070	0	87.244	0	267.6	4	92.6	4	-1E+10	1	-1E+10	1	-1E+10	1	-1E+10	1	-1E+10	1	-1E+10	1
4902551	90	C	02/09/2023	02:02	-131.289	47.864	0	88.90	0	8.5220	0	32.3000	0	25.079	0	88.136	0	266.8	4	92.3	4	-1E+10	1	-1E+10	1	-1E+10	1	-1E+10	1	-1E+10	1	-1E+10	1
4902551	90	C	02/09/2023	02:02	-131.289	47.864	0	89.80	0	8.4730	0	32.3120	0	25.096	0	89.028	0	266.2	4	91.9	4	-1E+10	1	-1E+10	1	-1E+10	1	-1E+10	1	-1E+10	1	-1E+10	1
4902551	90	C	02/09/2023	02:02	-131.289	47.864	0	91.00	0	8.4390	0	32.3210	0	25.108	0	90.218	0	265.0	4	91.5	4	-1E+10	1	-1E+10	1	-1E+10	1	-1E+10	1	-1E+10	1	-1E+10	1
4902551	90	C	02/09/2023	02:02	-131.289	47.864	0	92.20	0	8.3510	0	32.3440	0	25.139	0	91.407	0	263.3	4	90.7	4	-1E+10	1	-1E+10	1	-1E+10	1	-1E+10	1	-1E+10	1	-1E+10	1
4902551	90	C	02/09/2023	02:02	-131.289	47.864	0	92.80	0	8.3370	0	32.3450	0	25.142	0	92.002	0	262.2	4	90.3	4	-1E+10	1	-1E+10	1	-1E+10	1	-1E+10	1	-1E+10	1	-1E+10	1
4902551	90	C	02/09/2023	02:02	-131.289	47.864	0	94.10	0	8.2220	0	32.3710	0	25.179	0	93.290	0	259.4	4	89.1	4	-1E+10	1	-1E+10	1	-1E+10	1	-1E+10	1	-1E+10	1	-1E+10	1
4902551	90	C	02/09/2023	02:02	-131.289	47.864	0	95.00	0	7.9270	0	32.4360	0	25.273	0	94.182	0	258.3	4	88.2	4	-1E+10	1	-1E+10	1	-1E+10	1	-1E+10	1	-1E+10	1	-1E+10	1
4902551	90	C	02/09/2023	02:02	-131.289	47.864	0	95.90	0	7.7200	0	32.4780	0	25.335	0	95.074	0	257.5	4	87.6	4	-1E+10	1	-1E+10	1	-1E+10	1	-1E+10	1	-1E+10	1	-1E+10	1
4902551	90	C	02/09/2023	02:02	-131.289	47.864	0	97.00	0	7.6480	0	32.4840	0	25.350	0	96.165	0	256.2	4	87.0	4	-1E+10	1	-1E+10	1	-1E+10	1	-1E+10	1	-1E+10	1	-1E+10	1
4902551	90	C	02/09/2023	02:02	-131.289	47.864	0	98.00	0	7.4340	0	32.5250	0	25.412	0	97.156	0	255.6	4	86.4	4	-1E+10	1	-1E+10	1	-1E+10	1	-1E+10	1	-1E+10	1	-1E+10	1
4902551	90	C	02/09/2023	02:02	-131.289	47.864	0	99.20	0	7.2370	0	32.5650	0	25.471	0	98.345	0	255.1	4	85.9	4	-1E+10	1	-1E+10	1	-1E+10	1	-1E+10	1	-1E+10	1	-1E+10	1
4902551	90	C	02/09/2023	02:02	-131.289	47.864	0	99.90	0	7.1800	0	32.5770	0	25.488	0	99.039	0	254.6	4	85.6	4	-1E+10	1	-1E+10	1	-1E+10	1	-1E+10	1	-1E+10	1	-1E+10	1
4902551	90	C	02/09/2023	02:02	-131.289	47.864	0	101.10	0	7.1260	0	32.5880	0	25.504	0	100.228	0	253.6	4	85.2	4	-1E+10	1	-1E+10	1	-1E+10	1	-1E+10	1	-1E+10	1	-1E+10	1
4902551	90	C	02/09/2023	02:02	-131.289	47.864	0	102.00	0	7.0700	0	32.5980	0	25.519	0	101.120	0	252.5	4	84.7	4	-1E+10	1	-1E+10	1	-1E+10	1	-1E+10	1	-1E+10	1	-1E+10	1
4902551	90	C	02/09/2023	02:02	-131.289	47.864	0	103.10	0	6.8900	0	32.6520	0	25.586	0	102.211	0	251.3	4	84.0	4	-1E+10	1	-1E+10	1	-1E+10	1	-1E+10	1	-1E+10	1	-1E+10	1
4902551	90	C	02/09/2023	02:02	-131.289	47.864	0	104.20	0	6.8540	0	32.6680	0	25.603	0	103.301	0	250.2	4	83.5	4	-1E+10	1	-1E+10	1	-1E+10	1	-1E+10	1	-1E+10	1	-1E+10	1
4902551	90	C	02/09/2023	02:02	-131.289	47.864	0	105.10	0	6.8260	0	32.6770	0	25.614	0	104.193	0	249.4	4	83.2	4	-1E+10	1	-1E+10	1	-1E+10	1	-1E+10	1	-1E+10	1	-1E+10	1
4902551	90	C	02/09/2023	02:02	-131.289	47.864	0	106.10	0	6.8030	0	32.6880	0	25.625	0	105.184	0	247.9	4	82.7	4	-1E+10	1	-1E+10	1	-1E+10	1	-1E+10	1	-1E+10	1	-1E+10	1
4902551	90	C	02/09/2023	02:02	-131.289	47.864	0	107.00	0	6.7560	0	32.7100	0	25.649	0	106.076	0	246.1	4	82.0	4	-1E+10	1	-1E+10	1	-1E+10	1	-1E+10	1	-1E+10	1	-1E+10	1
4902551	90	C	02/09/2023	02:02	-131.289	47.864	0	108.10	0	6.7390	0	32.7180	0	25.657	0	107.166	0	243.9	4	81.2	4	-1E+10	1	-1E+10	1	-1E+10	1	-1E+10	1	-1E+10	1	-1E+10	1
4902551	90	C	02/09/2023	02:02	-131.289	47.864	0	109.10	0	6.7110	0	32.7390	0	25.678	0	108.157	0	241.4	4	80.4	4	-1E+10	1	-1E+10	1	-1E+10	1	-1E+10	1	-1E+10	1	-1E+10	1
4902551	90	C	02/09/2023	02:02	-131.289	47.864	0	110.10	0	6.6650	0	32.8080	0	25.738	0	109.148	0	239.7	4	79.8	4	-1E+10	1	-1E+10	1	-1E+10	1	-1E+10	1	-1E+10	1	-1E+10	1
4902551	90	C	02/09/2023	02:02	-131.289	47.864	0	111.20	0	6.6630	0	32.8190	0	25.747	0	110.239	0	238.3	4	79.3	4	-1E+10	1	-1E+10	1	-1E+10	1	-1E+10	1	-1E+10	1	-1E+10	1
4902551	90	C	02/09/2023	02:02	-131.289	47.864	0	111.90	0	6.6530	0	32.8260	0	25.754	0	110.932	0	237.3	4	79.0	4	-1E+10	1	-1E+10	1	-1E+10	1	-1E+10	1	-1E+10	1	-1E+10	1
4902551	90	C	02/09/2023	02:02	-131.289	47.864	0	112.80	0	6.6460	0	32.8290	0	25.757	0	111.824	0	235.8	4	78.5	4	-1E+10	1	-1E+10	1	-1E+10	1	-1E+10	1	-1E+10	1	-1E+10	1
4902551	90	C	02/09/2023	02:02	-131.289	47.864	0	113.90	0	6.6440	0	32.8290	0	25.757	0	112.914	0	234.0	4	77.9	4	-1E+10	1	-1E+10	1	-1E+10	1	-1E+10	1	-1E+10	1	-1E+10	1
4902551	90	C	02/09/2023	02:02	-131.289	47.864	0	115.00	0	6.5730	0	32.9290	0	25.845	0	114.005	0	232.5	4	77.3	4	-1E+10	1	-1E+10	1	-1E+10	1	-1E+10	1	-1E+10	1	-1E+10	1
4902551	90	C	02/09/2023	02:02	-131.289	47.864	0	116.10	0	6.5820	0	32.9490	0	25.860	0	115.095	0	231.1	4	76.8	4	-1E+10	1	-1E+10	1	-1E+10	1	-1E+10	1	-1E+10	1	-1E+10	1
4902551	90	C	02/09/2023	02:02	-131.289	47.864	0	117.00	0	6.5880	0	32.9640	0	25.871	0	115.987	0	230.1	4	76.5	4	-1E+10	1	-1E+10	1	-1E+10	1	-1E+10	1	-1E+10	1	-1E+10	1
4902551	90	C	02/09/2023	02:02	-131.289	47.864	0	117.70	0	6.5520	0	33.0100	0	25.912	0	116.680	0	229.2	4	76.2	4	-1E+10	1	-1E+10	1	-1E+10	1	-1E+10	1	-1E+10	1	-1E+10	1
4902551	90	C	02/09/2023	02:02	-131.289	47.864	0	118.80	0	6.5150	0	33.0490	0	25.948	0	117.771	0	227.5	4	75.6	4	-1E+10	1	-1E+10	1	-1E+10	1	-1E+10	1	-1E+10	1	-1E+10	1
4902551	90	C	02/09/2023	02:02	-131.289	47.864	0	119.90	0	6.5080	0	33.0630	0	25.960	0	118.861	0	225.8	4	75.0	4	-1E+10	1	-1E+10	1	-1E+10	1	-1E+10	1	-1E+10	1	-1E+10	1
4902551	90	C	02/09/2023	02:02	-131.289	47.864	0	121.00	0	6.4930	0	33.0840	0	25.978	0	119.951	0	224.2	4	74.5	4	-1E+10	1	-1E+10	1	-1E+10	1	-1E+10	1	-1E+10	1	-1E+10	1
4902551	90	C	02/09/2023	02:02	-131.289	47.864	0	121.90	0	6.4810	0	33.0970	0	25.990	0	120.843	0	223.0	4	74.1	4	-1E+10	1	-1E+10	1	-1E+10	1	-1E+10	1	-1E+10	1	-1E+10	1
4902551	90	C	02/09/2023	02:02	-131.289	47.864	0	122.80	0	6.4560	0	33.1180	0	26.010	0	121.735	0	222.0	4	73.7	4	-1E+10	1	-1E+10	1	-1E+10	1	-1E+10	1	-1E+10	1	-1E+10	1
4902551	90	C	02/09/2023	02:02	-131.289	47.864	0	124.10	0	6.4310	0	33.1370	0	26.028	0	123.023	0	220.5	4	73.2	4	-1E+10	1	-1E+10	1	-1E+10	1	-1E+10	1	-1E+10	1	-1E+10	1
4902551	90	C	02/09/2023	02:02	-131.289	47.864	0	125.00	0	6.4260	0	33.1440	0	26.034	0	123.915	0	219.4	4	72.8	4	-1E+10	1	-1E+10	1	-1E+10	1	-1E+10	1	-1E+10	1	-1E+10	1
4902551	90	C	02/09/2023	02:02	-131.289	47.864	0	125.90	0	6.4190	0	33.1540	0	26.043	0	124.807	0	218.2	4	72.4	4	-1E+10	1	-1E+10	1	-1E+10	1	-1E+10	1	-1E+10	1	-1E+10	1
4902551	90	C	02/09/2023	02:02	-131.289	47.864	0	126.90	0	6.4130	0	33.1630	0	26.051	0	125.798	0	217.1	4	72.0	4	-1E+10	1	-1E+10	1	-1E+10	1	-1E+10	1	-1E+10	1	-1E+10	1
4902551	90	C	02/09/2023	02:02	-131.289	47.864	0	127.80	0	6.4130	0	33.1870	0	26.070	0	126.690	0	215.9	4	71.6	4	-1E+10	1	-1E+10	1	-1E+10	1	-1E+10	1	-1E+10	1	-1E+10	1
4902551	90	C	02/09/2023	02:02	-131.289	47.864	0	128.90	0	6.4050	0	33.2010	0	26.082	0	127.780	0	214.8	4	71.3	4	-1E+10	1	-1E+10	1	-1E+10	1	-1E+10	1	-1E+10	1	-1E+10	1
4902551	90	C	02/09/2023	02:02	-131.289	47.864	0	129.90	0	6.4120	0	33.2080	0	26.086	0	128.771	0	213.5	4	70.8	4	-1E+10	1	-1E+10	1	-1E+10	1	-1E+10	1	-1E+10	1	-1E+10	1
4902551	90	C	02/09/2023	02:02	-131.289	47.864	0	130.90	0	6.4250	0	33.2130	0	26.089	0	129.762	0	212.1	4	70.4	4	-1E+10	1	-1E+10	1	-1E+10	1	-1E+10	1	-1E+10	1	-1E+10	1
4902551	90	C	02/09/2023	02:02	-131.289	47.864	0	132.00	0	6.4010	0	33.2330	0	26.108	0	130.852	0	210.6	4	69.9	4	-1E+10	1	-1E+10	1	-1E+10	1	-1E+10	1	-1E+10	1	-1E+10	1
4902551	90	C	02/09/2023	02:02	-131.289	47.864	0	133.10	0	6.3860	0	33.2550	0	26.127	0	131.942	0	209.2	4	69.4	4	-1E+10	1	-1E+10	1	-1E+10	1	-1E+10	1	-1E+10	1	-1E+10	1
4902551	90	C	02/09/2023	02:02	-131.289	47.864	0	133.80	0	6.3840	0	33.2590	0	26.130	0	132.636	0	208.3	4	69.1	4	-1E+10	1	-1E+10	1	-1E+10	1	-1E+10	1	-1E+10	1	-1E+10	1
4902551	90	C	02/09/2023	02:02	-131.289	47.864	0	134.80	0	6.3880	0	33.2650	0	26.135	0	133.627	0	206.9	4	68.6	4	-1E+10	1	-1E+10	1	-1E+10	1	-1E+10	1	-1E+10	1	-1E+10	1
4902551	90	C	02/09/2023	02:02	-131.289	47.864	0	136.00	0	6.3850	0	33.2900	0	26.155	0	134.816	0	205.4	4	68.2	4	-1E+10	1	-1E+10	1	-1E+10	1	-1E+10	1	-1E+10	1	-1E+10	1
4902551	90	C	02/09/2023	02:02	-131.289	47.864	0	136.70	0	6.3740	0	33.3080	0	26.170	0	135.510	0	204.6	4	67.9	4	-1E+10	1	-1E+10	1	-1E+10	1	-1E+10	1	-1E+10	1	-1E+10	1
4902551	90	C	02/09/2023	02:02	-131.289	47.864	0	137.90	0	6.3490	0	33.3420	0	26.200	0	136.699	0	203.0	4	67.3	4	-1E+10	1	-1E+10	1	-1E+10	1	-1E+10	1	-1E+10	1	-1E+10	1
4902551	90	C	02/09/2023	02:02	-131.289	47.864	0	139.10	0	6.3400	0	33.3550	0	26.212	0	137.888	0	201.5	4	66.8	4	-1E+10	1	-1E+10	1	-1E+10	1	-1E+10	1	-1E+10	1	-1E+10	1
4902551	90	C	02/09/2023	02:02	-131.289	47.864	0	139.90	0	6.3330	0	33.3600	0	26.217	0	138.681	0	200.5	4	66.5	4	-1E+10	1	-1E+10	1	-1E+10	1	-1E+10	1	-1E+10	1	-1E+10	1
4902551	90	C	02/09/2023	02:02	-131.289	47.864	0	140.70	0	6.3200	0	33.3780	0	26.232	0	139.474	0	199.7	4	66.2	4	-1E+10	1	-1E+10	1	-1E+10	1	-1E+10	1	-1E+10	1	-1E+10	1
4902551	90	C	02/09/2023	02:02	-131.289	47.864	0	141.80	0	6.3050	0	33.3950	0	26.248	0	140.564	0	198.3	4	65.7	4	-1E+10	1	-1E+10	1	-1E+10	1	-1E+10	1	-1E+10	1	-1E+10	1
4902551	90	C	02/09/2023	02:02	-131.289	47.864	0	143.00	0	6.2840	0	33.4190	0	26.269	0	141.753	0	197.1	4	65.3	4	-1E+10	1	-1E+10	1	-1E+10	1	-1E+10	1	-1E+10	1	-1E+10	1
4902551	90	C	02/09/2023	02:02	-131.289	47.864	0	143.80	0	6.2850	0	33.4180	0	26.268	0	142.545	0	196.1	4	65.0	4	-1E+10	1	-1E+10	1	-1E+10	1	-1E+10	1	-1E+10	1	-1E+10	1
4902551	90	C	02/09/2023	02:02	-131.289	47.864	0	144.70	0	6.2790	0	33.4240	0	26.274	0	143.437	0	195.2	4	64.7	4	-1E+10	1	-1E+10	1	-1E+10	1	-1E+10	1	-1E+10	1	-1E+10	1
4902551	90	C	02/09/2023	02:02	-131.289	47.864	0	145.90	0	6.2740	0	33.4280	0	26.278	0	144.626	0	193.9	4	64.2	4	-1E+10	1	-1E+10	1	-1E+10	1	-1E+10	1	-1E+10	1	-1E+10	1
4902551	90	C	02/09/2023	02:02	-131.289	47.864	0	147.10	0	6.2630	0	33.4410	0	26.289	0	145.815	0	192.7	4	63.8	4	-1E+10	1	-1E+10	1	-1E+10	1	-1E+10	1	-1E+10	1	-1E+10	1
4902551	90	C	02/09/2023	02:02	-131.289	47.864	0	148.00	0	6.2640	0	33.4400	0	26.289	0	146.707	0	191.7	4	63.5	4	-1E+10	1	-1E+10	1	-1E+10	1	-1E+10	1	-1E+10	1	-1E+10	1
4902551	90	C	02/09/2023	02:02	-131.289	47.864	0	148.90	0	6.2410	0	33.4620	0	26.309	0	147.599	0	190.9	4	63.2	4	-1E+10	1	-1E+10	1	-1E+10	1	-1E+10	1	-1E+10	1	-1E+10	1
4902551	90	C	02/09/2023	02:02	-131.289	47.864	0	149.80	0	6.2240	0	33.4800	0	26.325	0	148.491	0	190.4	4	63.0	4	-1E+10	1	-1E+10	1	-1E+10	1	-1E+10	1	-1E+10	1	-1E+10	1
4902551	90	C	02/09/2023	02:02	-131.289	47.864	0	150.70	0	6.2190	0	33.4830	0	26.328	0	149.383	0	189.8	4	62.8	4	-1E+10	1	-1E+10	1	-1E+10	1	-1E+10	1	-1E+10	1	-1E+10	1
4902551	90	C	02/09/2023	02:02	-131.289	47.864	0	151.70	0	6.2150	0	33.4870	0	26.332	0	150.374	0	189.2	4	62.6	4	-1E+10	1	-1E+10	1	-1E+10	1	-1E+10	1	-1E+10	1	-1E+10	1
4902551	90	C	02/09/2023	02:02	-131.289	47.864	0	152.60	0	6.2080	0	33.4940	0	26.338	0	151.265	0	188.6	4	62.4	4	-1E+10	1	-1E+10	1	-1E+10	1	-1E+10	1	-1E+10	1	-1E+10	1
4902551	90	C	02/09/2023	02:02	-131.289	47.864	0	153.60	0	6.2070	0	33.4970	0	26.341	0	152.256	0	188.0	4	62.2	4	-1E+10	1	-1E+10	1	-1E+10	1	-1E+10	1	-1E+10	1	-1E+10	1
4902551	90	C	02/09/2023	02:02	-131.289	47.864	0	154.50	0	6.2010	0	33.5040	0	26.347	0	153.148	0	187.5	4	62.0	4	-1E+10	1	-1E+10	1	-1E+10	1	-1E+10	1	-1E+10	1	-1E+10	1
4902551	90	C	02/09/2023	02:02	-131.289	47.864	0	155.90	0	6.1960	0	33.5070	0	26.350	0	154.535	0	186.5	4	61.7	4	-1E+10	1	-1E+10	1	-1E+10	1	-1E+10	1	-1E+10	1	-1E+10	1
4902551	90	C	02/09/2023	02:02	-131.289	47.864	0	157.40	0	6.1870	0	33.5120	0	26.355	0	156.022	0	185.5	4	61.4	4	-1E+10	1	-1E+10	1	-1E+10	1	-1E+10	1	-1E+10	1	-1E+10	1
4902551	90	C	02/09/2023	02:02	-131.289	47.864	0	158.30	0	6.1810	0	33.5120	0	26.356	0	156.913	0	184.9	4	61.2	4	-1E+10	1	-1E+10	1	-1E+10	1	-1E+10	1	-1E+10	1	-1E+10	1
4902551	90	C	02/09/2023	02:02	-131.289	47.864	0	159.40	0	6.1650	0	33.5280	0	26.371	0	158.003	0	184.0	4	60.9	4	-1E+10	1	-1E+10	1	-1E+10	1	-1E+10	1	-1E+10	1	-1E+10	1
4902551	90	C	02/09/2023	02:02	-131.289	47.864	0	160.40	0	6.1640	0	33.5290	0	26.372	0	158.994	0	183.3	4	60.6	4	-1E+10	1	-1E+10	1	-1E+10	1	-1E+10	1	-1E+10	1	-1E+10	1
4902551	90	C	02/09/2023	02:02	-131.289	47.864	0	161.40	0	6.1610	0	33.5320	0	26.374	0	159.985	0	182.5	4	60.4	4	-1E+10	1	-1E+10	1	-1E+10	1	-1E+10	1	-1E+10	1	-1E+10	1
4902551	90	C	02/09/2023	02:02	-131.289	47.864	0	162.40	0	6.1620	0	33.5360	0	26.377	0	160.976	0	181.6	4	60.1	4	-1E+10	1	-1E+10	1	-1E+10	1	-1E+10	1	-1E+10	1	-1E+10	1
4902551	90	C	02/09/2023	02:02	-131.289	47.864	0	163.40	0	6.1590	0	33.5390	0	26.380	0	161.967	0	180.9	4	59.8	4	-1E+10	1	-1E+10	1	-1E+10	1	-1E+10	1	-1E+10	1	-1E+10	1
4902551	90	C	02/09/2023	02:02	-131.289	47.864	0	164.40	0	6.1620	0	33.5500	0	26.389	0	162.958	0	180.2	4	59.6	4	-1E+10	1	-1E+10	1	-1E+10	1	-1E+10	1	-1E+10	1	-1E+10	1
4902551	90	C	02/09/2023	02:02	-131.289	47.864	0	165.40	0	6.1620	0	33.5560	0	26.393	0	163.948	0	179.3	4	59.3	4	-1E+10	1	-1E+10	1	-1E+10	1	-1E+10	1	-1E+10	1	-1E+10	1
4902551	90	C	02/09/2023	02:02	-131.289	47.864	0	166.40	0	6.1570	0	33.5610	0	26.398	0	164.939	0	178.4	4	59.0	4	-1E+10	1	-1E+10	1	-1E+10	1	-1E+10	1	-1E+10	1	-1E+10	1
4902551	90	C	02/09/2023	02:02	-131.289	47.864	0	167.40	0	6.1530	0	33.5780	0	26.412	0	165.930	0	177.7	4	58.8	4	-1E+10	1	-1E+10	1	-1E+10	1	-1E+10	1	-1E+10	1	-1E+10	1
4902551	90	C	02/09/2023	02:02	-131.289	47.864	0	168.50	0	6.1530	0	33.5820	0	26.415	0	167.020	0	176.9	4	58.5	4	-1E+10	1	-1E+10	1	-1E+10	1	-1E+10	1	-1E+10	1	-1E+10	1
4902551	90	C	02/09/2023	02:02	-131.289	47.864	0	169.50	0	6.1530	0	33.5840	0	26.417	0	168.011	0	176.2	4	58.3	4	-1E+10	1	-1E+10	1	-1E+10	1	-1E+10	1	-1E+10	1	-1E+10	1
4902551	90	C	02/09/2023	02:02	-131.289	47.864	0	170.60	0	6.1520	0	33.5850	0	26.417	0	169.101	0	175.4	4	58.0	4	-1E+10	1	-1E+10	1	-1E+10	1	-1E+10	1	-1E+10	1	-1E+10	1
4902551	90	C	02/09/2023	02:02	-131.289	47.864	0	171.60	0	6.1510	0	33.5860	0	26.418	0	170.091	0	174.6	4	57.7	4	-1E+10	1	-1E+10	1	-1E+10	1	-1E+10	1	-1E+10	1	-1E+10	1
4902551	90	C	02/09/2023	02:02	-131.289	47.864	0	172.60	0	6.1420	0	33.5930	0	26.425	0	171.082	0	173.7	4	57.4	4	-1E+10	1	-1E+10	1	-1E+10	1	-1E+10	1	-1E+10	1	-1E+10	1
4902551	90	C	02/09/2023	02:02	-131.289	47.864	0	173.60	0	6.1310	0	33.5970	0	26.430	0	172.073	0	172.8	4	57.1	4	-1E+10	1	-1E+10	1	-1E+10	1	-1E+10	1	-1E+10	1	-1E+10	1
4902551	90	C	02/09/2023	02:02	-131.289	47.864	0	174.70	0	6.1040	0	33.6070	0	26.441	0	173.163	0	171.9	4	56.8	4	-1E+10	1	-1E+10	1	-1E+10	1	-1E+10	1	-1E+10	1	-1E+10	1
4902551	90	C	02/09/2023	02:02	-131.289	47.864	0	175.70	0	6.0870	0	33.6110	0	26.446	0	174.154	0	171.0	4	56.5	4	-1E+10	1	-1E+10	1	-1E+10	1	-1E+10	1	-1E+10	1	-1E+10	1
4902551	90	C	02/09/2023	02:02	-131.289	47.864	0	176.80	0	6.0690	0	33.6170	0	26.453	0	175.244	0	170.0	4	56.1	4	-1E+10	1	-1E+10	1	-1E+10	1	-1E+10	1	-1E+10	1	-1E+10	1
4902551	90	C	02/09/2023	02:02	-131.289	47.864	0	177.80	0	6.0390	0	33.6380	0	26.474	0	176.234	0	169.5	4	55.9	4	-1E+10	1	-1E+10	1	-1E+10	1	-1E+10	1	-1E+10	1	-1E+10	1
4902551	90	C	02/09/2023	02:02	-131.289	47.864	0	178.90	0	6.0340	0	33.6420	0	26.477	0	177.324	0	169.0	4	55.8	4	-1E+10	1	-1E+10	1	-1E+10	1	-1E+10	1	-1E+10	1	-1E+10	1
4902551	90	C	02/09/2023	02:02	-131.289	47.864	0	179.90	0	6.0280	0	33.6430	0	26.479	0	178.315	0	168.4	4	55.5	4	-1E+10	1	-1E+10	1	-1E+10	1	-1E+10	1	-1E+10	1	-1E+10	1
4902551	90	C	02/09/2023	02:02	-131.289	47.864	0	180.90	0	6.0230	0	33.6460	0	26.482	0	179.306	0	167.6	4	55.3	4	-1E+10	1	-1E+10	1	-1E+10	1	-1E+10	1	-1E+10	1	-1E+10	1
4902551	90	C	02/09/2023	02:02	-131.289	47.864	0	182.00	0	6.0230	0	33.6450	0	26.481	0	180.395	0	166.7	4	55.0	4	-1E+10	1	-1E+10	1	-1E+10	1	-1E+10	1	-1E+10	1	-1E+10	1
4902551	90	C	02/09/2023	02:02	-131.289	47.864	0	183.10	0	6.0220	0	33.6450	0	26.481	0	181.485	0	165.7	4	54.7	4	-1E+10	1	-1E+10	1	-1E+10	1	-1E+10	1	-1E+10	1	-1E+10	1
4902551	90	C	02/09/2023	02:02	-131.289	47.864	0	184.10	0	6.0220	0	33.6450	0	26.481	0	182.476	0	164.7	4	54.3	4	-1E+10	1	-1E+10	1	-1E+10	1	-1E+10	1	-1E+10	1	-1E+10	1
4902551	90	C	02/09/2023	02:02	-131.289	47.864	0	185.20	0	6.0190	0	33.6470	0	26.483	0	183.566	0	163.6	4	54.0	4	-1E+10	1	-1E+10	1	-1E+10	1	-1E+10	1	-1E+10	1	-1E+10	1
4902551	90	C	02/09/2023	02:02	-131.289	47.864	0	186.20	0	6.0180	0	33.6470	0	26.483	0	184.557	0	162.5	4	53.6	4	-1E+10	1	-1E+10	1	-1E+10	1	-1E+10	1	-1E+10	1	-1E+10	1
4902551	90	C	02/09/2023	02:02	-131.289	47.864	0	187.20	0	6.0160	0	33.6480	0	26.484	0	185.547	0	161.1	4	53.1	4	-1E+10	1	-1E+10	1	-1E+10	1	-1E+10	1	-1E+10	1	-1E+10	1
4902551	90	C	02/09/2023	02:02	-131.289	47.864	0	188.30	0	6.0100	0	33.6530	0	26.489	0	186.637	0	159.7	4	52.7	4	-1E+10	1	-1E+10	1	-1E+10	1	-1E+10	1	-1E+10	1	-1E+10	1
4902551	90	C	02/09/2023	02:02	-131.289	47.864	0	189.30	0	6.0030	0	33.6560	0	26.492	0	187.628	0	158.4	4	52.2	4	-1E+10	1	-1E+10	1	-1E+10	1	-1E+10	1	-1E+10	1	-1E+10	1
4902551	90	C	02/09/2023	02:02	-131.289	47.864	0	190.30	0	6.0020	0	33.6600	0	26.496	0	188.619	0	157.0	4	51.8	4	-1E+10	1	-1E+10	1	-1E+10	1	-1E+10	1	-1E+10	1	-1E+10	1
4902551	90	C	02/09/2023	02:02	-131.289	47.864	0	191.30	0	6.0010	0	33.6680	0	26.502	0	189.609	0	155.4	4	51.3	4	-1E+10	1	-1E+10	1	-1E+10	1	-1E+10	1	-1E+10	1	-1E+10	1
4902551	90	C	02/09/2023	02:02	-131.289	47.864	0	192.30	0	5.9710	0	33.6810	0	26.516	0	190.600	0	153.5	4	50.6	4	-1E+10	1	-1E+10	1	-1E+10	1	-1E+10	1	-1E+10	1	-1E+10	1
4902551	90	C	02/09/2023	02:02	-131.289	47.864	0	193.20	0	5.9270	0	33.6980	0	26.535	0	191.492	0	152.0	4	50.1	4	-1E+10	1	-1E+10	1	-1E+10	1	-1E+10	1	-1E+10	1	-1E+10	1
4902551	90	C	02/09/2023	02:02	-131.289	47.864	0	194.20	0	5.8920	0	33.7050	0	26.545	0	192.482	0	150.9	4	49.6	4	-1E+10	1	-1E+10	1	-1E+10	1	-1E+10	1	-1E+10	1	-1E+10	1
4902551	90	C	02/09/2023	02:02	-131.289	47.864	0	195.30	0	5.8830	0	33.7060	0	26.547	0	193.572	0	149.6	4	49.2	4	-1E+10	1	-1E+10	1	-1E+10	1	-1E+10	1	-1E+10	1	-1E+10	1
4902551	90	C	02/09/2023	02:02	-131.289	47.864	0	196.10	0	5.8650	0	33.7140	0	26.555	0	194.365	0	148.7	4	48.9	4	-1E+10	1	-1E+10	1	-1E+10	1	-1E+10	1	-1E+10	1	-1E+10	1
4902551	90	C	02/09/2023	02:02	-131.289	47.864	0	196.90	0	5.8380	0	33.7160	0	26.560	0	195.157	0	148.1	4	48.7	4	-1E+10	1	-1E+10	1	-1E+10	1	-1E+10	1	-1E+10	1	-1E+10	1
4902551	90	C	02/09/2023	02:02	-131.289	47.864	0	198.00	0	5.8230	0	33.7190	0	26.565	0	196.247	0	146.9	4	48.3	4	-1E+10	1	-1E+10	1	-1E+10	1	-1E+10	1	-1E+10	1	-1E+10	1
4902551	90	C	02/09/2023	02:02	-131.289	47.864	0	199.10	0	5.8100	0	33.7220	0	26.569	0	197.337	0	145.7	4	47.8	4	-1E+10	1	-1E+10	1	-1E+10	1	-1E+10	1	-1E+10	1	-1E+10	1
4902551	90	C	02/09/2023	02:02	-131.289	47.864	0	199.90	0	5.8100	0	33.7210	0	26.568	0	198.129	0	144.8	4	47.6	4	-1E+10	1	-1E+10	1	-1E+10	1	-1E+10	1	-1E+10	1	-1E+10	1
4902551	90	C	02/09/2023	02:02	-131.289	47.864	0	200.90	0	5.8050	0	33.7230	0	26.570	0	199.120	0	143.4	4	47.1	4	-1E+10	1	-1E+10	1	-1E+10	1	-1E+10	1	-1E+10	1	-1E+10	1
4902551	90	C	02/09/2023	02:02	-131.289	47.864	0	202.00	0	5.7930	0	33.7250	0	26.573	0	200.209	0	141.9	4	46.6	4	-1E+10	1	-1E+10	1	-1E+10	1	-1E+10	1	-1E+10	1	-1E+10	1
4902551	90	C	02/09/2023	02:02	-131.289	47.864	0	202.80	0	5.7860	0	33.7260	0	26.575	0	201.002	0	140.9	4	46.2	4	-1E+10	1	-1E+10	1	-1E+10	1	-1E+10	1	-1E+10	1	-1E+10	1
4902551	90	C	02/09/2023	02:02	-131.289	47.864	0	203.90	0	5.7400	0	33.7360	0	26.588	0	202.092	0	139.7	4	45.8	4	-1E+10	1	-1E+10	1	-1E+10	1	-1E+10	1	-1E+10	1	-1E+10	1
4902551	90	C	02/09/2023	02:02	-131.289	47.864	0	205.00	0	5.6990	0	33.7390	0	26.596	0	203.181	0	138.6	4	45.4	4	-1E+10	1	-1E+10	1	-1E+10	1	-1E+10	1	-1E+10	1	-1E+10	1
4902551	90	C	02/09/2023	02:02	-131.289	47.864	0	205.80	0	5.6410	0	33.7440	0	26.607	0	203.974	0	138.1	4	45.2	4	-1E+10	1	-1E+10	1	-1E+10	1	-1E+10	1	-1E+10	1	-1E+10	1
4902551	90	C	02/09/2023	02:02	-131.289	47.864	0	207.00	0	5.6040	0	33.7470	0	26.613	0	205.163	0	137.6	4	45.0	4	-1E+10	1	-1E+10	1	-1E+10	1	-1E+10	1	-1E+10	1	-1E+10	1
4902551	90	C	02/09/2023	02:02	-131.289	47.864	0	208.20	0	5.5720	0	33.7500	0	26.620	0	206.351	0	137.2	4	44.8	4	-1E+10	1	-1E+10	1	-1E+10	1	-1E+10	1	-1E+10	1	-1E+10	1
4902551	90	C	02/09/2023	02:02	-131.289	47.864	0	209.00	0	5.5610	0	33.7510	0	26.622	0	207.144	0	137.0	4	44.7	4	-1E+10	1	-1E+10	1	-1E+10	1	-1E+10	1	-1E+10	1	-1E+10	1
4902551	90	C	02/09/2023	02:02	-131.289	47.864	0	209.80	0	5.5570	0	33.7510	0	26.622	0	207.936	0	136.7	4	44.7	4	-1E+10	1	-1E+10	1	-1E+10	1	-1E+10	1	-1E+10	1	-1E+10	1
4902551	90	C	02/09/2023	02:02	-131.289	47.864	0	211.00	0	5.5480	0	33.7520	0	26.624	0	209.125	0	136.4	4	44.5	4	-1E+10	1	-1E+10	1	-1E+10	1	-1E+10	1	-1E+10	1	-1E+10	1
4902551	90	C	02/09/2023	02:02	-131.289	47.864	0	212.20	0	5.5430	0	33.7520	0	26.625	0	210.314	0	135.9	4	44.4	4	-1E+10	1	-1E+10	1	-1E+10	1	-1E+10	1	-1E+10	1	-1E+10	1
4902551	90	C	02/09/2023	02:02	-131.289	47.864	0	213.00	0	5.5340	0	33.7530	0	26.627	0	211.106	0	135.7	4	44.3	4	-1E+10	1	-1E+10	1	-1E+10	1	-1E+10	1	-1E+10	1	-1E+10	1
4902551	90	C	02/09/2023	02:02	-131.289	47.864	0	213.80	0	5.5320	0	33.7530	0	26.627	0	211.899	0	135.3	4	44.2	4	-1E+10	1	-1E+10	1	-1E+10	1	-1E+10	1	-1E+10	1	-1E+10	1
4902551	90	C	02/09/2023	02:02	-131.289	47.864	0	214.70	0	5.5310	0	33.7520	0	26.626	0	212.790	0	135.0	4	44.1	4	-1E+10	1	-1E+10	1	-1E+10	1	-1E+10	1	-1E+10	1	-1E+10	1
4902551	90	C	02/09/2023	02:02	-131.289	47.864	0	215.90	0	5.5250	0	33.7530	0	26.628	0	213.979	0	134.4	4	43.9	4	-1E+10	1	-1E+10	1	-1E+10	1	-1E+10	1	-1E+10	1	-1E+10	1
4902551	90	C	02/09/2023	02:02	-131.289	47.864	0	217.20	0	5.5160	0	33.7540	0	26.630	0	215.267	0	133.8	4	43.7	4	-1E+10	1	-1E+10	1	-1E+10	1	-1E+10	1	-1E+10	1	-1E+10	1
4902551	90	C	02/09/2023	02:02	-131.289	47.864	0	218.00	0	5.5130	0	33.7540	0	26.630	0	216.059	0	133.4	4	43.5	4	-1E+10	1	-1E+10	1	-1E+10	1	-1E+10	1	-1E+10	1	-1E+10	1
4902551	90	C	02/09/2023	02:02	-131.289	47.864	0	218.80	0	5.5070	0	33.7550	0	26.631	0	216.852	0	132.8	4	43.3	4	-1E+10	1	-1E+10	1	-1E+10	1	-1E+10	1	-1E+10	1	-1E+10	1
4902551	90	C	02/09/2023	02:02	-131.289	47.864	0	219.70	0	5.5040	0	33.7540	0	26.631	0	217.743	0	132.4	4	43.2	4	-1E+10	1	-1E+10	1	-1E+10	1	-1E+10	1	-1E+10	1	-1E+10	1
4902551	90	C	02/09/2023	02:02	-131.289	47.864	0	220.90	0	5.4870	0	33.7560	0	26.635	0	218.932	0	131.8	4	43.0	4	-1E+10	1	-1E+10	1	-1E+10	1	-1E+10	1	-1E+10	1	-1E+10	1
4902551	90	C	02/09/2023	02:02	-131.289	47.864	0	222.20	0	5.4640	0	33.7570	0	26.638	0	220.220	0	131.2	4	42.8	4	-1E+10	1	-1E+10	1	-1E+10	1	-1E+10	1	-1E+10	1	-1E+10	1
4902551	90	C	02/09/2023	02:02	-131.289	47.864	0	223.10	0	5.4620	0	33.7560	0	26.638	0	221.111	0	130.8	4	42.6	4	-1E+10	1	-1E+10	1	-1E+10	1	-1E+10	1	-1E+10	1	-1E+10	1
4902551	90	C	02/09/2023	02:02	-131.289	47.864	0	224.00	0	5.4550	0	33.7570	0	26.639	0	222.003	0	130.4	4	42.5	4	-1E+10	1	-1E+10	1	-1E+10	1	-1E+10	1	-1E+10	1	-1E+10	1
4902551	90	C	02/09/2023	02:02	-131.289	47.864	0	224.90	0	5.4470	0	33.7570	0	26.640	0	222.894	0	130.1	4	42.4	4	-1E+10	1	-1E+10	1	-1E+10	1	-1E+10	1	-1E+10	1	-1E+10	1
4902551	90	C	02/09/2023	02:02	-131.289	47.864	0	225.80	0	5.4390	0	33.7580	0	26.642	0	223.786	0	129.7	4	42.2	4	-1E+10	1	-1E+10	1	-1E+10	1	-1E+10	1	-1E+10	1	-1E+10	1
4902551	90	C	02/09/2023	02:02	-131.289	47.864	0	226.70	0	5.4360	0	33.7580	0	26.642	0	224.677	0	129.3	4	42.1	4	-1E+10	1	-1E+10	1	-1E+10	1	-1E+10	1	-1E+10	1	-1E+10	1
4902551	90	C	02/09/2023	02:02	-131.289	47.864	0	227.60	0	5.4300	0	33.7590	0	26.644	0	225.569	0	128.9	4	42.0	4	-1E+10	1	-1E+10	1	-1E+10	1	-1E+10	1	-1E+10	1	-1E+10	1
4902551	90	C	02/09/2023	02:02	-131.289	47.864	0	228.90	0	5.4140	0	33.7600	0	26.646	0	226.856	0	128.3	4	41.8	4	-1E+10	1	-1E+10	1	-1E+10	1	-1E+10	1	-1E+10	1	-1E+10	1
4902551	90	C	02/09/2023	02:02	-131.289	47.864	0	230.40	0	5.4020	0	33.7600	0	26.648	0	228.342	0	127.7	4	41.5	4	-1E+10	1	-1E+10	1	-1E+10	1	-1E+10	1	-1E+10	1	-1E+10	1
4902551	90	C	02/09/2023	02:02	-131.289	47.864	0	231.30	0	5.3960	0	33.7600	0	26.649	0	229.234	0	127.2	4	41.4	4	-1E+10	1	-1E+10	1	-1E+10	1	-1E+10	1	-1E+10	1	-1E+10	1
4902551	90	C	02/09/2023	02:02	-131.289	47.864	0	232.20	0	5.3750	0	33.7610	0	26.652	0	230.125	0	126.9	4	41.3	4	-1E+10	1	-1E+10	1	-1E+10	1	-1E+10	1	-1E+10	1	-1E+10	1
4902551	90	C	02/09/2023	02:02	-131.289	47.864	0	233.10	0	5.3620	0	33.7610	0	26.653	0	231.016	0	126.5	4	41.1	4	-1E+10	1	-1E+10	1	-1E+10	1	-1E+10	1	-1E+10	1	-1E+10	1
4902551	90	C	02/09/2023	02:02	-131.289	47.864	0	234.00	0	5.3550	0	33.7610	0	26.654	0	231.908	0	126.0	4	41.0	4	-1E+10	1	-1E+10	1	-1E+10	1	-1E+10	1	-1E+10	1	-1E+10	1
4902551	90	C	02/09/2023	02:02	-131.289	47.864	0	234.90	0	5.3470	0	33.7620	0	26.656	0	232.799	0	125.6	4	40.8	4	-1E+10	1	-1E+10	1	-1E+10	1	-1E+10	1	-1E+10	1	-1E+10	1
4902551	90	C	02/09/2023	02:02	-131.289	47.864	0	235.80	0	5.3360	0	33.7630	0	26.658	0	233.691	0	125.1	4	40.6	4	-1E+10	1	-1E+10	1	-1E+10	1	-1E+10	1	-1E+10	1	-1E+10	1
4902551	90	C	02/09/2023	02:02	-131.289	47.864	0	236.80	0	5.3220	0	33.7650	0	26.661	0	234.681	0	124.8	4	40.5	4	-1E+10	1	-1E+10	1	-1E+10	1	-1E+10	1	-1E+10	1	-1E+10	1
4902551	90	C	02/09/2023	02:02	-131.289	47.864	0	237.70	0	5.3250	0	33.7650	0	26.661	0	235.573	0	124.4	4	40.4	4	-1E+10	1	-1E+10	1	-1E+10	1	-1E+10	1	-1E+10	1	-1E+10	1
4902551	90	C	02/09/2023	02:02	-131.289	47.864	0	238.70	0	5.3220	0	33.7650	0	26.661	0	236.563	0	124.0	4	40.3	4	-1E+10	1	-1E+10	1	-1E+10	1	-1E+10	1	-1E+10	1	-1E+10	1
4902551	90	C	02/09/2023	02:02	-131.289	47.864	0	239.60	0	5.3210	0	33.7660	0	26.662	0	237.455	0	123.5	4	40.1	4	-1E+10	1	-1E+10	1	-1E+10	1	-1E+10	1	-1E+10	1	-1E+10	1
4902551	90	C	02/09/2023	02:02	-131.289	47.864	0	240.60	0	5.3080	0	33.7660	0	26.664	0	238.445	0	123.2	4	40.0	4	-1E+10	1	-1E+10	1	-1E+10	1	-1E+10	1	-1E+10	1	-1E+10	1
4902551	90	C	02/09/2023	02:02	-131.289	47.864	0	241.60	0	5.3060	0	33.7640	0	26.662	0	239.436	0	122.7	4	39.8	4	-1E+10	1	-1E+10	1	-1E+10	1	-1E+10	1	-1E+10	1	-1E+10	1
4902551	90	C	02/09/2023	02:02	-131.289	47.864	0	242.90	0	5.3010	0	33.7670	0	26.665	0	240.723	0	121.9	4	39.6	4	-1E+10	1	-1E+10	1	-1E+10	1	-1E+10	1	-1E+10	1	-1E+10	1
4902551	90	C	02/09/2023	02:02	-131.289	47.864	0	244.40	0	5.2850	0	33.7680	0	26.668	0	242.209	0	121.1	4	39.3	4	-1E+10	1	-1E+10	1	-1E+10	1	-1E+10	1	-1E+10	1	-1E+10	1
4902551	90	C	02/09/2023	02:02	-131.289	47.864	0	245.30	0	5.2820	0	33.7670	0	26.668	0	243.100	0	120.6	4	39.1	4	-1E+10	1	-1E+10	1	-1E+10	1	-1E+10	1	-1E+10	1	-1E+10	1
4902551	90	C	02/09/2023	02:02	-131.289	47.864	0	246.30	0	5.2780	0	33.7680	0	26.669	0	244.091	0	120.1	4	39.0	4	-1E+10	1	-1E+10	1	-1E+10	1	-1E+10	1	-1E+10	1	-1E+10	1
4902551	90	C	02/09/2023	02:02	-131.289	47.864	0	247.20	0	5.2740	0	33.7680	0	26.669	0	244.982	0	119.5	4	38.8	4	-1E+10	1	-1E+10	1	-1E+10	1	-1E+10	1	-1E+10	1	-1E+10	1
4902551	90	C	02/09/2023	02:02	-131.289	47.864	0	248.10	0	5.2720	0	33.7680	0	26.670	0	245.873	0	118.8	4	38.5	4	-1E+10	1	-1E+10	1	-1E+10	1	-1E+10	1	-1E+10	1	-1E+10	1
4902551	90	C	02/09/2023	02:02	-131.289	47.864	0	249.00	0	5.2690	0	33.7680	0	26.670	0	246.765	0	118.0	4	38.3	4	-1E+10	1	-1E+10	1	-1E+10	1	-1E+10	1	-1E+10	1	-1E+10	1
4902551	90	C	02/09/2023	02:02	-131.289	47.864	0	250.00	0	5.2610	0	33.7690	0	26.672	0	247.755	0	117.2	4	38.0	4	-1E+10	1	-1E+10	1	-1E+10	1	-1E+10	1	-1E+10	1	-1E+10	1
4902551	90	C	02/09/2023	02:02	-131.289	47.864	0	250.90	0	5.2580	0	33.7670	0	26.670	0	248.647	0	116.4	4	37.8	4	-1E+10	1	-1E+10	1	-1E+10	1	-1E+10	1	-1E+10	1	-1E+10	1
4902551	90	C	02/09/2023	02:02	-131.289	47.864	0	251.80	0	5.2220	0	33.7740	0	26.680	0	249.538	0	115.7	4	37.5	4	-1E+10	1	-1E+10	1	-1E+10	1	-1E+10	1	-1E+10	1	-1E+10	1
4902551	90	C	02/09/2023	02:02	-131.289	47.864	0	252.80	0	5.2090	0	33.7720	0	26.680	0	250.528	0	115.1	4	37.3	4	-1E+10	1	-1E+10	1	-1E+10	1	-1E+10	1	-1E+10	1	-1E+10	1
4902551	90	C	02/09/2023	02:02	-131.289	47.864	0	253.70	0	5.1960	0	33.7720	0	26.682	0	251.420	0	114.3	4	37.0	4	-1E+10	1	-1E+10	1	-1E+10	1	-1E+10	1	-1E+10	1	-1E+10	1
4902551	90	C	02/09/2023	02:02	-131.289	47.864	0	254.60	0	5.1800	0	33.7780	0	26.688	0	252.311	0	113.6	4	36.8	4	-1E+10	1	-1E+10	1	-1E+10	1	-1E+10	1	-1E+10	1	-1E+10	1
4902551	90	C	02/09/2023	02:02	-131.289	47.864	0	255.90	0	5.1480	0	33.7770	0	26.691	0	253.599	0	112.8	4	36.5	4	-1E+10	1	-1E+10	1	-1E+10	1	-1E+10	1	-1E+10	1	-1E+10	1
4902551	90	C	02/09/2023	02:02	-131.289	47.864	0	257.30	0	5.1400	0	33.7780	0	26.693	0	254.985	0	111.8	4	36.2	4	-1E+10	1	-1E+10	1	-1E+10	1	-1E+10	1	-1E+10	1	-1E+10	1
4902551	90	C	02/09/2023	02:02	-131.289	47.864	0	258.20	0	5.1370	0	33.7780	0	26.693	0	255.877	0	111.1	4	35.9	4	-1E+10	1	-1E+10	1	-1E+10	1	-1E+10	1	-1E+10	1	-1E+10	1
4902551	90	C	02/09/2023	02:02	-131.289	47.864	0	259.10	0	5.1330	0	33.7780	0	26.694	0	256.768	0	110.4	4	35.7	4	-1E+10	1	-1E+10	1	-1E+10	1	-1E+10	1	-1E+10	1	-1E+10	1
4902551	90	C	02/09/2023	02:02	-131.289	47.864	0	260.00	0	5.1220	0	33.7820	0	26.698	0	257.659	0	109.8	4	35.5	4	-1E+10	1	-1E+10	1	-1E+10	1	-1E+10	1	-1E+10	1	-1E+10	1
4902551	90	C	02/09/2023	02:02	-131.289	47.864	0	260.90	0	5.1080	0	33.7810	0	26.699	0	258.551	0	109.1	4	35.3	4	-1E+10	1	-1E+10	1	-1E+10	1	-1E+10	1	-1E+10	1	-1E+10	1
4902551	90	C	02/09/2023	02:02	-131.289	47.864	0	261.70	0	5.1020	0	33.7820	0	26.700	0	259.343	0	108.2	4	35.0	4	-1E+10	1	-1E+10	1	-1E+10	1	-1E+10	1	-1E+10	1	-1E+10	1
4902551	90	C	02/09/2023	02:02	-131.289	47.864	0	262.60	0	5.0940	0	33.7820	0	26.701	0	260.234	0	107.4	4	34.7	4	-1E+10	1	-1E+10	1	-1E+10	1	-1E+10	1	-1E+10	1	-1E+10	1
4902551	90	C	02/09/2023	02:02	-131.289	47.864	0	263.90	0	5.0690	0	33.7850	0	26.707	0	261.522	0	106.4	4	34.3	4	-1E+10	1	-1E+10	1	-1E+10	1	-1E+10	1	-1E+10	1	-1E+10	1
4902551	90	C	02/09/2023	02:02	-131.289	47.864	0	265.30	0	5.0130	0	33.7910	0	26.718	0	262.908	0	105.6	4	34.1	4	-1E+10	1	-1E+10	1	-1E+10	1	-1E+10	1	-1E+10	1	-1E+10	1
4902551	90	C	02/09/2023	02:02	-131.289	47.864	0	266.10	0	5.0020	0	33.7930	0	26.721	0	263.700	0	105.3	4	34.0	4	-1E+10	1	-1E+10	1	-1E+10	1	-1E+10	1	-1E+10	1	-1E+10	1
4902551	90	C	02/09/2023	02:02	-131.289	47.864	0	267.00	0	4.9960	0	33.7950	0	26.723	0	264.592	0	105.0	4	33.8	4	-1E+10	1	-1E+10	1	-1E+10	1	-1E+10	1	-1E+10	1	-1E+10	1
4902551	90	C	02/09/2023	02:02	-131.289	47.864	0	267.90	0	4.9910	0	33.7950	0	26.723	0	265.483	0	104.7	4	33.8	4	-1E+10	1	-1E+10	1	-1E+10	1	-1E+10	1	-1E+10	1	-1E+10	1
4902551	90	C	02/09/2023	02:02	-131.289	47.864	0	268.80	0	4.9870	0	33.7950	0	26.724	0	266.374	0	104.4	4	33.7	4	-1E+10	1	-1E+10	1	-1E+10	1	-1E+10	1	-1E+10	1	-1E+10	1
4902551	90	C	02/09/2023	02:02	-131.289	47.864	0	269.70	0	4.9850	0	33.7960	0	26.725	0	267.266	0	104.0	4	33.5	4	-1E+10	1	-1E+10	1	-1E+10	1	-1E+10	1	-1E+10	1	-1E+10	1
4902551	90	C	02/09/2023	02:02	-131.289	47.864	0	270.60	0	4.9850	0	33.7960	0	26.725	0	268.157	0	103.7	4	33.4	4	-1E+10	1	-1E+10	1	-1E+10	1	-1E+10	1	-1E+10	1	-1E+10	1
4902551	90	C	02/09/2023	02:02	-131.289	47.864	0	271.90	0	4.9840	0	33.7960	0	26.725	0	269.444	0	103.1	4	33.2	4	-1E+10	1	-1E+10	1	-1E+10	1	-1E+10	1	-1E+10	1	-1E+10	1
4902551	90	C	02/09/2023	02:02	-131.289	47.864	0	273.30	0	4.9720	0	33.7980	0	26.728	0	270.831	0	102.5	4	33.0	4	-1E+10	1	-1E+10	1	-1E+10	1	-1E+10	1	-1E+10	1	-1E+10	1
4902551	90	C	02/09/2023	02:02	-131.289	47.864	0	274.20	0	4.9680	0	33.7970	0	26.728	0	271.722	0	102.1	4	32.9	4	-1E+10	1	-1E+10	1	-1E+10	1	-1E+10	1	-1E+10	1	-1E+10	1
4902551	90	C	02/09/2023	02:02	-131.289	47.864	0	275.10	0	4.9550	0	33.7980	0	26.730	0	272.613	0	101.7	4	32.8	4	-1E+10	1	-1E+10	1	-1E+10	1	-1E+10	1	-1E+10	1	-1E+10	1
4902551	90	C	02/09/2023	02:02	-131.289	47.864	0	276.00	0	4.9500	0	33.7980	0	26.730	0	273.505	0	101.3	4	32.6	4	-1E+10	1	-1E+10	1	-1E+10	1	-1E+10	1	-1E+10	1	-1E+10	1
4902551	90	C	02/09/2023	02:02	-131.289	47.864	0	276.90	0	4.9480	0	33.7980	0	26.731	0	274.396	0	100.9	4	32.5	4	-1E+10	1	-1E+10	1	-1E+10	1	-1E+10	1	-1E+10	1	-1E+10	1
4902551	90	C	02/09/2023	02:02	-131.289	47.864	0	277.80	0	4.9450	0	33.7980	0	26.731	0	275.287	0	100.5	4	32.4	4	-1E+10	1	-1E+10	1	-1E+10	1	-1E+10	1	-1E+10	1	-1E+10	1
4902551	90	C	02/09/2023	02:02	-131.289	47.864	0	278.70	0	4.9410	0	33.7980	0	26.732	0	276.178	0	99.9	4	32.2	4	-1E+10	1	-1E+10	1	-1E+10	1	-1E+10	1	-1E+10	1	-1E+10	1
4902551	90	C	02/09/2023	02:02	-131.289	47.864	0	279.60	0	4.9380	0	33.7980	0	26.732	0	277.070	0	99.4	4	32.0	4	-1E+10	1	-1E+10	1	-1E+10	1	-1E+10	1	-1E+10	1	-1E+10	1
4902551	90	C	02/09/2023	02:02	-131.289	47.864	0	280.90	0	4.9280	0	33.7980	0	26.733	0	278.357	0	98.4	4	31.7	4	-1E+10	1	-1E+10	1	-1E+10	1	-1E+10	1	-1E+10	1	-1E+10	1
4902551	90	C	02/09/2023	02:02	-131.289	47.864	0	282.30	0	4.9120	0	33.8010	0	26.737	0	279.743	0	97.4	4	31.3	4	-1E+10	1	-1E+10	1	-1E+10	1	-1E+10	1	-1E+10	1	-1E+10	1
4902551	90	C	02/09/2023	02:02	-131.289	47.864	0	283.20	0	4.9080	0	33.7990	0	26.736	0	280.635	0	96.6	4	31.1	4	-1E+10	1	-1E+10	1	-1E+10	1	-1E+10	1	-1E+10	1	-1E+10	1
4902551	90	C	02/09/2023	02:02	-131.289	47.864	0	284.10	0	4.8990	0	33.8000	0	26.738	0	281.526	0	95.9	4	30.8	4	-1E+10	1	-1E+10	1	-1E+10	1	-1E+10	1	-1E+10	1	-1E+10	1
4902551	90	C	02/09/2023	02:02	-131.289	47.864	0	285.00	0	4.8840	0	33.8020	0	26.741	0	282.417	0	95.1	4	30.6	4	-1E+10	1	-1E+10	1	-1E+10	1	-1E+10	1	-1E+10	1	-1E+10	1
4902551	90	C	02/09/2023	02:02	-131.289	47.864	0	285.90	0	4.8730	0	33.8010	0	26.742	0	283.308	0	94.3	4	30.3	4	-1E+10	1	-1E+10	1	-1E+10	1	-1E+10	1	-1E+10	1	-1E+10	1
4902551	90	C	02/09/2023	02:02	-131.289	47.864	0	286.80	0	4.8610	0	33.8050	0	26.746	0	284.200	0	93.5	4	30.1	4	-1E+10	1	-1E+10	1	-1E+10	1	-1E+10	1	-1E+10	1	-1E+10	1
4902551	90	C	02/09/2023	02:02	-131.289	47.864	0	287.70	0	4.8510	0	33.8030	0	26.746	0	285.091	0	92.6	4	29.8	4	-1E+10	1	-1E+10	1	-1E+10	1	-1E+10	1	-1E+10	1	-1E+10	1
4902551	90	C	02/09/2023	02:02	-131.289	47.864	0	288.60	0	4.8350	0	33.8070	0	26.751	0	285.982	0	91.8	4	29.5	4	-1E+10	1	-1E+10	1	-1E+10	1	-1E+10	1	-1E+10	1	-1E+10	1
4902551	90	C	02/09/2023	02:02	-131.289	47.864	0	289.90	0	4.8060	0	33.8090	0	26.755	0	287.269	0	90.7	4	29.1	4	-1E+10	1	-1E+10	1	-1E+10	1	-1E+10	1	-1E+10	1	-1E+10	1
4902551	90	C	02/09/2023	02:02	-131.289	47.864	0	291.40	0	4.7850	0	33.8090	0	26.758	0	288.755	0	89.8	4	28.8	4	-1E+10	1	-1E+10	1	-1E+10	1	-1E+10	1	-1E+10	1	-1E+10	1
4902551	90	C	02/09/2023	02:02	-131.289	47.864	0	292.30	0	4.7720	0	33.8100	0	26.760	0	289.646	0	89.1	4	28.6	4	-1E+10	1	-1E+10	1	-1E+10	1	-1E+10	1	-1E+10	1	-1E+10	1
4902551	90	C	02/09/2023	02:02	-131.289	47.864	0	293.20	0	4.7630	0	33.8120	0	26.763	0	290.537	0	88.4	4	28.4	4	-1E+10	1	-1E+10	1	-1E+10	1	-1E+10	1	-1E+10	1	-1E+10	1
4902551	90	C	02/09/2023	02:02	-131.289	47.864	0	294.10	0	4.7490	0	33.8120	0	26.764	0	291.428	0	87.7	4	28.1	4	-1E+10	1	-1E+10	1	-1E+10	1	-1E+10	1	-1E+10	1	-1E+10	1
4902551	90	C	02/09/2023	02:02	-131.289	47.864	0	295.00	0	4.7200	0	33.8170	0	26.771	0	292.319	0	87.2	4	27.9	4	-1E+10	1	-1E+10	1	-1E+10	1	-1E+10	1	-1E+10	1	-1E+10	1
4902551	90	C	02/09/2023	02:02	-131.289	47.864	0	295.90	0	4.7070	0	33.8190	0	26.774	0	293.211	0	86.6	4	27.7	4	-1E+10	1	-1E+10	1	-1E+10	1	-1E+10	1	-1E+10	1	-1E+10	1
4902551	90	C	02/09/2023	02:02	-131.289	47.864	0	296.80	0	4.6940	0	33.8220	0	26.778	0	294.102	0	86.2	4	27.6	4	-1E+10	1	-1E+10	1	-1E+10	1	-1E+10	1	-1E+10	1	-1E+10	1
4902551	90	C	02/09/2023	02:02	-131.289	47.864	0	297.80	0	4.6820	0	33.8240	0	26.781	0	295.092	0	85.7	4	27.4	4	-1E+10	1	-1E+10	1	-1E+10	1	-1E+10	1	-1E+10	1	-1E+10	1
4902551	90	C	02/09/2023	02:02	-131.289	47.864	0	298.70	0	4.6580	0	33.8260	0	26.785	0	295.983	0	85.5	4	27.3	4	-1E+10	1	-1E+10	1	-1E+10	1	-1E+10	1	-1E+10	1	-1E+10	1
4902551	90	C	02/09/2023	02:02	-131.289	47.864	0	299.70	0	4.6490	0	33.8260	0	26.786	0	296.973	0	85.2	4	27.3	4	-1E+10	1	-1E+10	1	-1E+10	1	-1E+10	1	-1E+10	1	-1E+10	1
4902551	90	C	02/09/2023	02:02	-131.289	47.864	0	300.60	0	4.6480	0	33.8270	0	26.787	0	297.865	0	85.0	4	27.2	4	-1E+10	1	-1E+10	1	-1E+10	1	-1E+10	1	-1E+10	1	-1E+10	1
4902551	90	C	02/09/2023	02:02	-131.289	47.864	0	301.60	0	4.6410	0	33.8270	0	26.788	0	298.855	0	84.8	4	27.1	4	-1E+10	1	-1E+10	1	-1E+10	1	-1E+10	1	-1E+10	1	-1E+10	1
4902551	90	C	02/09/2023	02:02	-131.289	47.864	0	302.50	0	4.6380	0	33.8270	0	26.788	0	299.746	0	84.5	4	27.0	4	-1E+10	1	-1E+10	1	-1E+10	1	-1E+10	1	-1E+10	1	-1E+10	1
4902551	90	C	02/09/2023	02:02	-131.289	47.864	0	303.90	0	4.6300	0	33.8290	0	26.791	0	301.132	0	84.2	4	26.9	4	-1E+10	1	-1E+10	1	-1E+10	1	-1E+10	1	-1E+10	1	-1E+10	1
4902551	90	C	02/09/2023	02:02	-131.289	47.864	0	305.30	0	4.6270	0	33.8290	0	26.791	0	302.518	0	83.8	4	26.8	4	-1E+10	1	-1E+10	1	-1E+10	1	-1E+10	1	-1E+10	1	-1E+10	1
4902551	90	C	02/09/2023	02:02	-131.289	47.864	0	306.30	0	4.6250	0	33.8290	0	26.791	0	303.508	0	83.5	4	26.7	4	-1E+10	1	-1E+10	1	-1E+10	1	-1E+10	1	-1E+10	1	-1E+10	1
4902551	90	C	02/09/2023	02:02	-131.289	47.864	0	307.20	0	4.6220	0	33.8290	0	26.792	0	304.400	0	83.3	4	26.6	4	-1E+10	1	-1E+10	1	-1E+10	1	-1E+10	1	-1E+10	1	-1E+10	1
4902551	90	C	02/09/2023	02:02	-131.289	47.864	0	308.20	0	4.6190	0	33.8300	0	26.793	0	305.390	0	83.0	4	26.5	4	-1E+10	1	-1E+10	1	-1E+10	1	-1E+10	1	-1E+10	1	-1E+10	1
4902551	90	C	02/09/2023	02:02	-131.289	47.864	0	309.10	0	4.6120	0	33.8310	0	26.794	0	306.281	0	82.6	4	26.4	4	-1E+10	1	-1E+10	1	-1E+10	1	-1E+10	1	-1E+10	1	-1E+10	1
4902551	90	C	02/09/2023	02:02	-131.289	47.864	0	310.10	0	4.6100	0	33.8320	0	26.795	0	307.271	0	82.4	4	26.3	4	-1E+10	1	-1E+10	1	-1E+10	1	-1E+10	1	-1E+10	1	-1E+10	1
4902551	90	C	02/09/2023	02:02	-131.289	47.864	0	311.10	0	4.6050	0	33.8320	0	26.796	0	308.261	0	82.1	4	26.2	4	-1E+10	1	-1E+10	1	-1E+10	1	-1E+10	1	-1E+10	1	-1E+10	1
4902551	90	C	02/09/2023	02:02	-131.289	47.864	0	312.10	0	4.5980	0	33.8340	0	26.798	0	309.251	0	81.8	4	26.1	4	-1E+10	1	-1E+10	1	-1E+10	1	-1E+10	1	-1E+10	1	-1E+10	1
4902551	90	C	02/09/2023	02:02	-131.289	47.864	0	313.00	0	4.5950	0	33.8340	0	26.799	0	310.142	0	81.6	4	26.1	4	-1E+10	1	-1E+10	1	-1E+10	1	-1E+10	1	-1E+10	1	-1E+10	1
4902551	90	C	02/09/2023	02:02	-131.289	47.864	0	314.00	0	4.5920	0	33.8360	0	26.800	0	311.133	0	81.3	4	26.0	4	-1E+10	1	-1E+10	1	-1E+10	1	-1E+10	1	-1E+10	1	-1E+10	1
4902551	90	C	02/09/2023	02:02	-131.289	47.864	0	314.90	0	4.5900	0	33.8360	0	26.801	0	312.024	0	81.0	4	25.9	4	-1E+10	1	-1E+10	1	-1E+10	1	-1E+10	1	-1E+10	1	-1E+10	1
4902551	90	C	02/09/2023	02:02	-131.289	47.864	0	315.90	0	4.5910	0	33.8360	0	26.801	0	313.014	0	80.8	4	25.8	4	-1E+10	1	-1E+10	1	-1E+10	1	-1E+10	1	-1E+10	1	-1E+10	1
4902551	90	C	02/09/2023	02:02	-131.289	47.864	0	316.90	0	4.5900	0	33.8360	0	26.801	0	314.004	0	80.4	4	25.7	4	-1E+10	1	-1E+10	1	-1E+10	1	-1E+10	1	-1E+10	1	-1E+10	1
4902551	90	C	02/09/2023	02:02	-131.289	47.864	0	317.90	0	4.5890	0	33.8360	0	26.801	0	314.994	0	80.1	4	25.6	4	-1E+10	1	-1E+10	1	-1E+10	1	-1E+10	1	-1E+10	1	-1E+10	1
4902551	90	C	02/09/2023	02:02	-131.289	47.864	0	318.80	0	4.5820	0	33.8390	0	26.804	0	315.885	0	79.8	4	25.5	4	-1E+10	1	-1E+10	1	-1E+10	1	-1E+10	1	-1E+10	1	-1E+10	1
4902551	90	C	02/09/2023	02:02	-131.289	47.864	0	319.80	0	4.5810	0	33.8390	0	26.804	0	316.875	0	79.5	4	25.4	4	-1E+10	1	-1E+10	1	-1E+10	1	-1E+10	1	-1E+10	1	-1E+10	1
4902551	90	C	02/09/2023	02:02	-131.289	47.864	0	320.80	0	4.5780	0	33.8400	0	26.805	0	317.865	0	79.2	4	25.3	4	-1E+10	1	-1E+10	1	-1E+10	1	-1E+10	1	-1E+10	1	-1E+10	1
4902551	90	C	02/09/2023	02:02	-131.289	47.864	0	321.80	0	4.5750	0	33.8420	0	26.807	0	318.855	0	78.9	4	25.2	4	-1E+10	1	-1E+10	1	-1E+10	1	-1E+10	1	-1E+10	1	-1E+10	1
4902551	90	C	02/09/2023	02:02	-131.289	47.864	0	322.80	0	4.5740	0	33.8420	0	26.807	0	319.845	0	78.7	4	25.1	4	-1E+10	1	-1E+10	1	-1E+10	1	-1E+10	1	-1E+10	1	-1E+10	1
4902551	90	C	02/09/2023	02:02	-131.289	47.864	0	323.80	0	4.5690	0	33.8430	0	26.809	0	320.835	0	78.4	4	25.0	4	-1E+10	1	-1E+10	1	-1E+10	1	-1E+10	1	-1E+10	1	-1E+10	1
4902551	90	C	02/09/2023	02:02	-131.289	47.864	0	324.90	0	4.5630	0	33.8440	0	26.810	0	321.925	0	78.2	4	25.0	4	-1E+10	1	-1E+10	1	-1E+10	1	-1E+10	1	-1E+10	1	-1E+10	1
4902551	90	C	02/09/2023	02:02	-131.289	47.864	0	325.90	0	4.5600	0	33.8450	0	26.811	0	322.915	0	77.9	4	24.9	4	-1E+10	1	-1E+10	1	-1E+10	1	-1E+10	1	-1E+10	1	-1E+10	1
4902551	90	C	02/09/2023	02:02	-131.289	47.864	0	326.80	0	4.5590	0	33.8470	0	26.813	0	323.806	0	77.8	4	24.8	4	-1E+10	1	-1E+10	1	-1E+10	1	-1E+10	1	-1E+10	1	-1E+10	1
4902551	90	C	02/09/2023	02:02	-131.289	47.864	0	327.90	0	4.5570	0	33.8470	0	26.813	0	324.895	0	77.5	4	24.7	4	-1E+10	1	-1E+10	1	-1E+10	1	-1E+10	1	-1E+10	1	-1E+10	1
4902551	90	C	02/09/2023	02:02	-131.289	47.864	0	328.90	0	4.5570	0	33.8470	0	26.813	0	325.885	0	77.3	4	24.7	4	-1E+10	1	-1E+10	1	-1E+10	1	-1E+10	1	-1E+10	1	-1E+10	1
4902551	90	C	02/09/2023	02:02	-131.289	47.864	0	329.90	0	4.5570	0	33.8470	0	26.813	0	326.875	0	77.1	4	24.6	4	-1E+10	1	-1E+10	1	-1E+10	1	-1E+10	1	-1E+10	1	-1E+10	1
4902551	90	C	02/09/2023	02:02	-131.289	47.864	0	330.90	0	4.5560	0	33.8470	0	26.813	0	327.865	0	76.7	4	24.5	4	-1E+10	1	-1E+10	1	-1E+10	1	-1E+10	1	-1E+10	1	-1E+10	1
4902551	90	C	02/09/2023	02:02	-131.289	47.864	0	331.90	0	4.5540	0	33.8480	0	26.814	0	328.855	0	76.4	4	24.4	4	-1E+10	1	-1E+10	1	-1E+10	1	-1E+10	1	-1E+10	1	-1E+10	1
4902551	90	C	02/09/2023	02:02	-131.289	47.864	0	332.90	0	4.5530	0	33.8480	0	26.814	0	329.845	0	76.1	4	24.3	4	-1E+10	1	-1E+10	1	-1E+10	1	-1E+10	1	-1E+10	1	-1E+10	1
4902551	90	C	02/09/2023	02:02	-131.289	47.864	0	333.90	0	4.5520	0	33.8480	0	26.815	0	330.835	0	75.6	4	24.1	4	-1E+10	1	-1E+10	1	-1E+10	1	-1E+10	1	-1E+10	1	-1E+10	1
4902551	90	C	02/09/2023	02:02	-131.289	47.864	0	334.80	0	4.5460	0	33.8490	0	26.816	0	331.726	0	75.4	4	24.0	4	-1E+10	1	-1E+10	1	-1E+10	1	-1E+10	1	-1E+10	1	-1E+10	1
4902551	90	C	02/09/2023	02:02	-131.289	47.864	0	335.90	0	4.5340	0	33.8550	0	26.822	0	332.815	0	75.0	4	23.9	4	-1E+10	1	-1E+10	1	-1E+10	1	-1E+10	1	-1E+10	1	-1E+10	1
4902551	90	C	02/09/2023	02:02	-131.289	47.864	0	337.00	0	4.5340	0	33.8560	0	26.823	0	333.904	0	74.6	4	23.8	4	-1E+10	1	-1E+10	1	-1E+10	1	-1E+10	1	-1E+10	1	-1E+10	1
4902551	90	C	02/09/2023	02:02	-131.289	47.864	0	338.20	0	4.5340	0	33.8560	0	26.823	0	335.092	0	74.2	4	23.7	4	-1E+10	1	-1E+10	1	-1E+10	1	-1E+10	1	-1E+10	1	-1E+10	1
4902551	90	C	02/09/2023	02:02	-131.289	47.864	0	339.00	0	4.5320	0	33.8570	0	26.824	0	335.884	0	74.0	4	23.6	4	-1E+10	1	-1E+10	1	-1E+10	1	-1E+10	1	-1E+10	1	-1E+10	1
4902551	90	C	02/09/2023	02:02	-131.289	47.864	0	339.70	0	4.5290	0	33.8570	0	26.824	0	336.577	0	73.8	4	23.5	4	-1E+10	1	-1E+10	1	-1E+10	1	-1E+10	1	-1E+10	1	-1E+10	1
4902551	90	C	02/09/2023	02:02	-131.289	47.864	0	340.90	0	4.5170	0	33.8580	0	26.826	0	337.765	0	73.4	4	23.4	4	-1E+10	1	-1E+10	1	-1E+10	1	-1E+10	1	-1E+10	1	-1E+10	1
4902551	90	C	02/09/2023	02:02	-131.289	47.864	0	342.00	0	4.5100	0	33.8600	0	26.829	0	338.854	0	73.2	4	23.3	4	-1E+10	1	-1E+10	1	-1E+10	1	-1E+10	1	-1E+10	1	-1E+10	1
4902551	90	C	02/09/2023	02:02	-131.289	47.864	0	342.80	0	4.5090	0	33.8600	0	26.829	0	339.646	0	73.0	4	23.3	4	-1E+10	1	-1E+10	1	-1E+10	1	-1E+10	1	-1E+10	1	-1E+10	1
4902551	90	C	02/09/2023	02:02	-131.289	47.864	0	343.90	0	4.5050	0	33.8620	0	26.831	0	340.735	0	72.7	4	23.2	4	-1E+10	1	-1E+10	1	-1E+10	1	-1E+10	1	-1E+10	1	-1E+10	1
4902551	90	C	02/09/2023	02:02	-131.289	47.864	0	345.10	0	4.5030	0	33.8630	0	26.832	0	341.923	0	72.4	4	23.1	4	-1E+10	1	-1E+10	1	-1E+10	1	-1E+10	1	-1E+10	1	-1E+10	1
4902551	90	C	02/09/2023	02:02	-131.289	47.864	0	345.90	0	4.5020	0	33.8640	0	26.833	0	342.715	0	72.2	4	23.0	4	-1E+10	1	-1E+10	1	-1E+10	1	-1E+10	1	-1E+10	1	-1E+10	1
4902551	90	C	02/09/2023	02:02	-131.289	47.864	0	347.00	0	4.5010	0	33.8660	0	26.834	0	343.804	0	71.9	4	22.9	4	-1E+10	1	-1E+10	1	-1E+10	1	-1E+10	1	-1E+10	1	-1E+10	1
4902551	90	C	02/09/2023	02:02	-131.289	47.864	0	348.20	0	4.5020	0	33.8670	0	26.835	0	344.992	0	71.7	4	22.9	4	-1E+10	1	-1E+10	1	-1E+10	1	-1E+10	1	-1E+10	1	-1E+10	1
4902551	90	C	02/09/2023	02:02	-131.289	47.864	0	349.00	0	4.5010	0	33.8680	0	26.836	0	345.784	0	71.5	4	22.8	4	-1E+10	1	-1E+10	1	-1E+10	1	-1E+10	1	-1E+10	1	-1E+10	1
4902551	90	C	02/09/2023	02:02	-131.289	47.864	0	349.80	0	4.5000	0	33.8690	0	26.837	0	346.576	0	71.3	4	22.7	4	-1E+10	1	-1E+10	1	-1E+10	1	-1E+10	1	-1E+10	1	-1E+10	1
4902551	90	C	02/09/2023	02:02	-131.289	47.864	0	353.00	0	4.4960	0	33.8680	0	26.837	0	349.743	0	70.2	4	22.4	4	-1E+10	1	-1E+10	1	-1E+10	1	-1E+10	1	-1E+10	1	-1E+10	1
4902551	90	C	02/09/2023	02:02	-131.289	47.864	0	358.20	0	4.4610	0	33.8730	0	26.844	0	354.891	0	68.6	4	21.8	4	-1E+10	1	-1E+10	1	-1E+10	1	-1E+10	1	-1E+10	1	-1E+10	1
4902551	90	C	02/09/2023	02:02	-131.289	47.864	0	363.20	0	4.4480	0	33.8800	0	26.851	0	359.841	0	67.2	4	21.4	4	-1E+10	1	-1E+10	1	-1E+10	1	-1E+10	1	-1E+10	1	-1E+10	1
4902551	90	C	02/09/2023	02:02	-131.289	47.864	0	367.90	0	4.4300	0	33.8850	0	26.857	0	364.493	0	66.0	4	21.0	4	-1E+10	1	-1E+10	1	-1E+10	1	-1E+10	1	-1E+10	1	-1E+10	1
4902551	90	C	02/09/2023	02:02	-131.289	47.864	0	372.70	0	4.4170	0	33.8890	0	26.862	0	369.244	0	64.8	4	20.6	4	-1E+10	1	-1E+10	1	-1E+10	1	-1E+10	1	-1E+10	1	-1E+10	1
4902551	90	C	02/09/2023	02:02	-131.289	47.864	0	378.00	0	4.4150	0	33.8950	0	26.867	0	374.490	0	63.5	4	20.2	4	-1E+10	1	-1E+10	1	-1E+10	1	-1E+10	1	-1E+10	1	-1E+10	1
4902551	90	C	02/09/2023	02:02	-131.289	47.864	0	383.00	0	4.4320	0	33.9050	0	26.873	0	379.439	0	62.1	4	19.8	4	-1E+10	1	-1E+10	1	-1E+10	1	-1E+10	1	-1E+10	1	-1E+10	1
4902551	90	C	02/09/2023	02:02	-131.289	47.864	0	387.90	0	4.4200	0	33.9120	0	26.880	0	384.289	0	60.7	4	19.3	4	-1E+10	1	-1E+10	1	-1E+10	1	-1E+10	1	-1E+10	1	-1E+10	1
4902551	90	C	02/09/2023	02:02	-131.289	47.864	0	392.90	0	4.4000	0	33.9170	0	26.886	0	389.238	0	59.3	4	18.9	4	-1E+10	1	-1E+10	1	-1E+10	1	-1E+10	1	-1E+10	1	-1E+10	1
4902551	90	C	02/09/2023	02:02	-131.289	47.864	0	397.80	0	4.3690	0	33.9210	0	26.893	0	394.088	0	58.0	4	18.4	4	-1E+10	1	-1E+10	1	-1E+10	1	-1E+10	1	-1E+10	1	-1E+10	1
4902551	90	C	02/09/2023	02:02	-131.289	47.864	0	402.90	0	4.3460	0	33.9250	0	26.898	0	399.135	0	56.8	4	18.1	4	-1E+10	1	-1E+10	1	-1E+10	1	-1E+10	1	-1E+10	1	-1E+10	1
4902551	90	C	02/09/2023	02:02	-131.289	47.864	0	407.80	0	4.3320	0	33.9320	0	26.905	0	403.985	0	55.7	4	17.7	4	-1E+10	1	-1E+10	1	-1E+10	1	-1E+10	1	-1E+10	1	-1E+10	1
4902551	90	C	02/09/2023	02:02	-131.289	47.864	0	412.90	0	4.3220	0	33.9370	0	26.910	0	409.032	0	54.6	4	17.4	4	-1E+10	1	-1E+10	1	-1E+10	1	-1E+10	1	-1E+10	1	-1E+10	1
4902551	90	C	02/09/2023	02:02	-131.289	47.864	0	418.00	0	4.3170	0	33.9420	0	26.915	0	414.079	0	53.6	4	17.0	4	-1E+10	1	-1E+10	1	-1E+10	1	-1E+10	1	-1E+10	1	-1E+10	1
4902551	90	C	02/09/2023	02:02	-131.289	47.864	0	423.10	0	4.3070	0	33.9500	0	26.922	0	419.126	0	52.3	4	16.6	4	-1E+10	1	-1E+10	1	-1E+10	1	-1E+10	1	-1E+10	1	-1E+10	1
4902551	90	C	02/09/2023	02:02	-131.289	47.864	0	427.70	0	4.3040	0	33.9590	0	26.930	0	423.678	0	51.4	4	16.3	4	-1E+10	1	-1E+10	1	-1E+10	1	-1E+10	1	-1E+10	1	-1E+10	1
4902551	90	C	02/09/2023	02:02	-131.289	47.864	0	432.80	0	4.3070	0	33.9660	0	26.935	0	428.725	0	50.2	4	15.9	4	-1E+10	1	-1E+10	1	-1E+10	1	-1E+10	1	-1E+10	1	-1E+10	1
4902551	90	C	02/09/2023	02:02	-131.289	47.864	0	437.90	0	4.3060	0	33.9720	0	26.940	0	433.772	0	49.0	4	15.5	4	-1E+10	1	-1E+10	1	-1E+10	1	-1E+10	1	-1E+10	1	-1E+10	1
4902551	90	C	02/09/2023	02:02	-131.289	47.864	0	443.00	0	4.2980	0	33.9790	0	26.946	0	438.818	0	47.4	4	15.1	4	-1E+10	1	-1E+10	1	-1E+10	1	-1E+10	1	-1E+10	1	-1E+10	1
4902551	90	C	02/09/2023	02:02	-131.289	47.864	0	448.30	0	4.2870	0	33.9920	0	26.958	0	444.062	0	46.2	4	14.7	4	-1E+10	1	-1E+10	1	-1E+10	1	-1E+10	1	-1E+10	1	-1E+10	1
4902551	90	C	02/09/2023	02:02	-131.289	47.864	0	453.20	0	4.2730	0	34.0000	0	26.966	0	448.911	0	45.5	4	14.4	4	-1E+10	1	-1E+10	1	-1E+10	1	-1E+10	1	-1E+10	1	-1E+10	1
4902551	90	C	02/09/2023	02:02	-131.289	47.864	0	458.20	0	4.2640	0	34.0060	0	26.972	0	453.858	0	44.9	4	14.3	4	-1E+10	1	-1E+10	1	-1E+10	1	-1E+10	1	-1E+10	1	-1E+10	1
4902551	90	C	02/09/2023	02:02	-131.289	47.864	0	463.20	0	4.2590	0	34.0090	0	26.975	0	458.805	0	44.4	4	14.1	4	-1E+10	1	-1E+10	1	-1E+10	1	-1E+10	1	-1E+10	1	-1E+10	1
4902551	90	C	02/09/2023	02:02	-131.289	47.864	0	468.30	0	4.2520	0	34.0110	0	26.977	0	463.851	0	43.9	4	13.9	4	-1E+10	1	-1E+10	1	-1E+10	1	-1E+10	1	-1E+10	1	-1E+10	1
4902551	90	C	02/09/2023	02:02	-131.289	47.864	0	473.30	0	4.2470	0	34.0140	0	26.980	0	468.798	0	43.2	4	13.7	4	-1E+10	1	-1E+10	1	-1E+10	1	-1E+10	1	-1E+10	1	-1E+10	1
4902551	90	C	02/09/2023	02:02	-131.289	47.864	0	478.40	0	4.2420	0	34.0170	0	26.983	0	473.843	0	42.4	4	13.4	4	-1E+10	1	-1E+10	1	-1E+10	1	-1E+10	1	-1E+10	1	-1E+10	1
4902551	90	C	02/09/2023	02:02	-131.289	47.864	0	483.40	0	4.2350	0	34.0230	0	26.988	0	478.790	0	41.3	4	13.1	4	-1E+10	1	-1E+10	1	-1E+10	1	-1E+10	1	-1E+10	1	-1E+10	1
4902551	90	C	02/09/2023	02:02	-131.289	47.864	0	488.40	0	4.2250	0	34.0300	0	26.995	0	483.737	0	40.3	4	12.8	4	-1E+10	1	-1E+10	1	-1E+10	1	-1E+10	1	-1E+10	1	-1E+10	1
4902551	90	C	02/09/2023	02:02	-131.289	47.864	0	493.40	0	4.2140	0	34.0370	0	27.002	0	488.683	0	39.1	4	12.4	4	-1E+10	1	-1E+10	1	-1E+10	1	-1E+10	1	-1E+10	1	-1E+10	1
4902551	90	C	02/09/2023	02:02	-131.289	47.864	0	498.00	0	4.2000	0	34.0420	0	27.007	0	493.234	0	38.1	4	12.1	4	-1E+10	1	-1E+10	1	-1E+10	1	-1E+10	1	-1E+10	1	-1E+10	1
4902551	90	C	02/09/2023	02:02	-131.289	47.864	0	502.50	0	4.1880	0	34.0460	0	27.012	0	497.685	0	37.3	4	11.8	4	-1E+10	1	-1E+10	1	-1E+10	1	-1E+10	1	-1E+10	1	-1E+10	1
4902551	90	C	02/09/2023	02:02	-131.289	47.864	0	507.60	0	4.1710	0	34.0520	0	27.018	0	502.730	0	36.4	4	11.5	4	-1E+10	1	-1E+10	1	-1E+10	1	-1E+10	1	-1E+10	1	-1E+10	1
4902551	90	C	02/09/2023	02:02	-131.289	47.864	0	512.60	0	4.1550	0	34.0590	0	27.026	0	507.676	0	35.6	4	11.3	4	-1E+10	1	-1E+10	1	-1E+10	1	-1E+10	1	-1E+10	1	-1E+10	1
4902551	90	C	02/09/2023	02:02	-131.289	47.864	0	517.60	0	4.1390	0	34.0640	0	27.031	0	512.622	0	35.1	4	11.1	4	-1E+10	1	-1E+10	1	-1E+10	1	-1E+10	1	-1E+10	1	-1E+10	1
4902551	90	C	02/09/2023	02:02	-131.289	47.864	0	522.70	0	4.1290	0	34.0700	0	27.037	0	517.666	0	34.8	4	11.0	4	-1E+10	1	-1E+10	1	-1E+10	1	-1E+10	1	-1E+10	1	-1E+10	1
4902551	90	C	02/09/2023	02:02	-131.289	47.864	0	527.80	0	4.1280	0	34.0730	0	27.040	0	522.711	0	34.4	4	10.9	4	-1E+10	1	-1E+10	1	-1E+10	1	-1E+10	1	-1E+10	1	-1E+10	1
4902551	90	C	02/09/2023	02:02	-131.289	47.864	0	532.90	0	4.1200	0	34.0780	0	27.044	0	527.755	0	33.7	4	10.7	4	-1E+10	1	-1E+10	1	-1E+10	1	-1E+10	1	-1E+10	1	-1E+10	1
4902551	90	C	02/09/2023	02:02	-131.289	47.864	0	538.10	0	4.1050	0	34.0840	0	27.051	0	532.898	0	33.0	4	10.4	4	-1E+10	1	-1E+10	1	-1E+10	1	-1E+10	1	-1E+10	1	-1E+10	1
4902551	90	C	02/09/2023	02:02	-131.289	47.864	0	543.20	0	4.0980	0	34.0860	0	27.053	0	537.942	0	32.3	4	10.2	4	-1E+10	1	-1E+10	1	-1E+10	1	-1E+10	1	-1E+10	1	-1E+10	1
4902551	90	C	02/09/2023	02:02	-131.289	47.864	0	548.30	0	4.0850	0	34.0900	0	27.058	0	542.986	0	31.5	4	10.0	4	-1E+10	1	-1E+10	1	-1E+10	1	-1E+10	1	-1E+10	1	-1E+10	1
4902551	90	C	02/09/2023	02:02	-131.289	47.864	0	553.10	0	4.0780	0	34.0920	0	27.060	0	547.734	0	30.7	4	9.7	4	-1E+10	1	-1E+10	1	-1E+10	1	-1E+10	1	-1E+10	1	-1E+10	1
4902551	90	C	02/09/2023	02:02	-131.289	47.864	0	557.90	0	4.0590	0	34.0980	0	27.067	0	552.481	0	29.7	4	9.4	4	-1E+10	1	-1E+10	1	-1E+10	1	-1E+10	1	-1E+10	1	-1E+10	1
4902551	90	C	02/09/2023	02:02	-131.289	47.864	0	562.70	0	4.0360	0	34.1060	0	27.076	0	557.228	0	29.0	4	9.1	4	-1E+10	1	-1E+10	1	-1E+10	1	-1E+10	1	-1E+10	1	-1E+10	1
4902551	90	C	02/09/2023	02:02	-131.289	47.864	0	567.60	0	4.0240	0	34.1110	0	27.081	0	562.073	0	28.3	4	8.9	4	-1E+10	1	-1E+10	1	-1E+10	1	-1E+10	1	-1E+10	1	-1E+10	1
4902551	90	C	02/09/2023	02:02	-131.289	47.864	0	572.60	0	4.0110	0	34.1150	0	27.085	0	567.018	0	27.6	4	8.7	4	-1E+10	1	-1E+10	1	-1E+10	1	-1E+10	1	-1E+10	1	-1E+10	1
4902551	90	C	02/09/2023	02:02	-131.289	47.864	0	577.60	0	3.9980	0	34.1200	0	27.091	0	571.962	0	27.1	4	8.6	4	-1E+10	1	-1E+10	1	-1E+10	1	-1E+10	1	-1E+10	1	-1E+10	1
4902551	90	C	02/09/2023	02:02	-131.289	47.864	0	582.80	0	3.9860	0	34.1250	0	27.096	0	577.104	0	26.8	4	8.4	4	-1E+10	1	-1E+10	1	-1E+10	1	-1E+10	1	-1E+10	1	-1E+10	1
4902551	90	C	02/09/2023	02:02	-131.289	47.864	0	588.10	0	3.9730	0	34.1300	0	27.101	0	582.345	0	26.5	4	8.4	4	-1E+10	1	-1E+10	1	-1E+10	1	-1E+10	1	-1E+10	1	-1E+10	1
4902551	90	C	02/09/2023	02:02	-131.289	47.864	0	593.00	0	3.9640	0	34.1340	0	27.105	0	587.190	0	26.2	4	8.3	4	-1E+10	1	-1E+10	1	-1E+10	1	-1E+10	1	-1E+10	1	-1E+10	1
4902551	90	C	02/09/2023	02:02	-131.289	47.864	0	597.90	0	3.9480	0	34.1390	0	27.111	0	592.035	0	25.6	4	8.1	4	-1E+10	1	-1E+10	1	-1E+10	1	-1E+10	1	-1E+10	1	-1E+10	1
4902551	90	C	02/09/2023	02:02	-131.289	47.864	0	602.90	0	3.9340	0	34.1440	0	27.116	0	596.979	0	25.0	4	7.9	4	-1E+10	1	-1E+10	1	-1E+10	1	-1E+10	1	-1E+10	1	-1E+10	1
4902551	90	C	02/09/2023	02:02	-131.289	47.864	0	607.80	0	3.9280	0	34.1450	0	27.118	0	601.824	0	24.4	4	7.7	4	-1E+10	1	-1E+10	1	-1E+10	1	-1E+10	1	-1E+10	1	-1E+10	1
4902551	90	C	02/09/2023	02:02	-131.289	47.864	0	612.90	0	3.9220	0	34.1480	0	27.121	0	606.866	0	24.2	4	7.6	4	-1E+10	1	-1E+10	1	-1E+10	1	-1E+10	1	-1E+10	1	-1E+10	1
4902551	90	C	02/09/2023	02:02	-131.289	47.864	0	617.90	0	3.9060	0	34.1520	0	27.126	0	611.810	0	24.1	4	7.6	4	-1E+10	1	-1E+10	1	-1E+10	1	-1E+10	1	-1E+10	1	-1E+10	1
4902551	90	C	02/09/2023	02:02	-131.289	47.864	0	623.00	0	3.8920	0	34.1570	0	27.131	0	616.852	0	23.8	4	7.5	4	-1E+10	1	-1E+10	1	-1E+10	1	-1E+10	1	-1E+10	1	-1E+10	1
4902551	90	C	02/09/2023	02:02	-131.289	47.864	0	627.70	0	3.8830	0	34.1590	0	27.134	0	621.498	0	23.3	4	7.3	4	-1E+10	1	-1E+10	1	-1E+10	1	-1E+10	1	-1E+10	1	-1E+10	1
4902551	90	C	02/09/2023	02:02	-131.289	47.864	0	632.90	0	3.8670	0	34.1640	0	27.139	0	626.639	0	22.5	4	7.1	4	-1E+10	1	-1E+10	1	-1E+10	1	-1E+10	1	-1E+10	1	-1E+10	1
4902551	90	C	02/09/2023	02:02	-131.289	47.864	0	638.10	0	3.8570	0	34.1680	0	27.144	0	631.780	0	21.8	4	6.9	4	-1E+10	1	-1E+10	1	-1E+10	1	-1E+10	1	-1E+10	1	-1E+10	1
4902551	90	C	02/09/2023	02:02	-131.289	47.864	0	642.80	0	3.8410	0	34.1720	0	27.148	0	636.426	0	21.5	4	6.8	4	-1E+10	1	-1E+10	1	-1E+10	1	-1E+10	1	-1E+10	1	-1E+10	1
4902551	90	C	02/09/2023	02:02	-131.289	47.864	0	647.60	0	3.8220	0	34.1780	0	27.155	0	641.171	0	21.2	4	6.7	4	-1E+10	1	-1E+10	1	-1E+10	1	-1E+10	1	-1E+10	1	-1E+10	1
4902551	90	C	02/09/2023	02:02	-131.289	47.864	0	652.50	0	3.8070	0	34.1830	0	27.161	0	646.015	0	20.9	4	6.6	4	-1E+10	1	-1E+10	1	-1E+10	1	-1E+10	1	-1E+10	1	-1E+10	1
4902551	90	C	02/09/2023	02:02	-131.289	47.864	0	657.50	0	3.7980	0	34.1850	0	27.163	0	650.958	0	20.5	4	6.4	4	-1E+10	1	-1E+10	1	-1E+10	1	-1E+10	1	-1E+10	1	-1E+10	1
4902551	90	C	02/09/2023	02:02	-131.289	47.864	0	662.90	0	3.7850	0	34.1890	0	27.168	0	656.295	0	20.1	4	6.3	4	-1E+10	1	-1E+10	1	-1E+10	1	-1E+10	1	-1E+10	1	-1E+10	1
4902551	90	C	02/09/2023	02:02	-131.289	47.864	0	668.20	0	3.7640	0	34.1950	0	27.174	0	661.534	0	19.8	4	6.2	4	-1E+10	1	-1E+10	1	-1E+10	1	-1E+10	1	-1E+10	1	-1E+10	1
4902551	90	C	02/09/2023	02:02	-131.289	47.864	0	672.90	0	3.7520	0	34.1980	0	27.178	0	666.180	0	19.6	4	6.2	4	-1E+10	1	-1E+10	1	-1E+10	1	-1E+10	1	-1E+10	1	-1E+10	1
4902551	90	C	02/09/2023	02:02	-131.289	47.864	0	677.80	0	3.7420	0	34.2010	0	27.182	0	671.023	0	19.3	4	6.1	4	-1E+10	1	-1E+10	1	-1E+10	1	-1E+10	1	-1E+10	1	-1E+10	1
4902551	90	C	02/09/2023	02:02	-131.289	47.864	0	682.60	0	3.7250	0	34.2050	0	27.186	0	675.767	0	19.0	4	6.0	4	-1E+10	1	-1E+10	1	-1E+10	1	-1E+10	1	-1E+10	1	-1E+10	1
4902551	90	C	02/09/2023	02:02	-131.289	47.864	0	687.90	0	3.7090	0	34.2090	0	27.191	0	681.005	0	18.8	4	5.9	4	-1E+10	1	-1E+10	1	-1E+10	1	-1E+10	1	-1E+10	1	-1E+10	1
4902551	90	C	02/09/2023	02:02	-131.289	47.864	0	692.90	0	3.6910	0	34.2130	0	27.196	0	685.947	0	18.6	4	5.8	4	-1E+10	1	-1E+10	1	-1E+10	1	-1E+10	1	-1E+10	1	-1E+10	1
4902551	90	C	02/09/2023	02:02	-131.289	47.864	0	697.50	0	3.6800	0	34.2160	0	27.200	0	690.493	0	18.4	4	5.8	4	-1E+10	1	-1E+10	1	-1E+10	1	-1E+10	1	-1E+10	1	-1E+10	1
4902551	90	C	02/09/2023	02:02	-131.289	47.864	0	702.60	0	3.6620	0	34.2210	0	27.205	0	695.533	0	18.1	4	5.7	4	-1E+10	1	-1E+10	1	-1E+10	1	-1E+10	1	-1E+10	1	-1E+10	1
4902551	90	C	02/09/2023	02:02	-131.289	47.864	0	707.80	0	3.6540	0	34.2230	0	27.208	0	700.672	0	17.9	4	5.6	4	-1E+10	1	-1E+10	1	-1E+10	1	-1E+10	1	-1E+10	1	-1E+10	1
4902551	90	C	02/09/2023	02:02	-131.289	47.864	0	712.80	0	3.6400	0	34.2270	0	27.212	0	705.614	0	17.7	4	5.5	4	-1E+10	1	-1E+10	1	-1E+10	1	-1E+10	1	-1E+10	1	-1E+10	1
4902551	90	C	02/09/2023	02:02	-131.289	47.864	0	717.80	0	3.6310	0	34.2280	0	27.214	0	710.555	0	17.4	4	5.5	4	-1E+10	1	-1E+10	1	-1E+10	1	-1E+10	1	-1E+10	1	-1E+10	1
4902551	90	C	02/09/2023	02:02	-131.289	47.864	0	722.80	0	3.6160	0	34.2320	0	27.219	0	715.496	0	17.3	4	5.4	4	-1E+10	1	-1E+10	1	-1E+10	1	-1E+10	1	-1E+10	1	-1E+10	1
4902551	90	C	02/09/2023	02:02	-131.289	47.864	0	727.90	0	3.6070	0	34.2350	0	27.222	0	720.535	0	17.2	4	5.4	4	-1E+10	1	-1E+10	1	-1E+10	1	-1E+10	1	-1E+10	1	-1E+10	1
4902551	90	C	02/09/2023	02:02	-131.289	47.864	0	733.00	0	3.6030	0	34.2360	0	27.223	0	725.575	0	17.0	4	5.3	4	-1E+10	1	-1E+10	1	-1E+10	1	-1E+10	1	-1E+10	1	-1E+10	1
4902551	90	C	02/09/2023	02:02	-131.289	47.864	0	737.70	0	3.5980	0	34.2380	0	27.226	0	730.219	0	16.9	4	5.3	4	-1E+10	1	-1E+10	1	-1E+10	1	-1E+10	1	-1E+10	1	-1E+10	1
4902551	90	C	02/09/2023	02:02	-131.289	47.864	0	742.90	0	3.5900	0	34.2390	0	27.227	0	735.357	0	16.8	4	5.2	4	-1E+10	1	-1E+10	1	-1E+10	1	-1E+10	1	-1E+10	1	-1E+10	1
4902551	90	C	02/09/2023	02:02	-131.289	47.864	0	748.10	0	3.5860	0	34.2400	0	27.228	0	740.495	0	16.6	4	5.2	4	-1E+10	1	-1E+10	1	-1E+10	1	-1E+10	1	-1E+10	1	-1E+10	1
4902551	90	C	02/09/2023	02:02	-131.289	47.864	0	752.90	0	3.5780	0	34.2420	0	27.231	0	745.238	0	16.4	4	5.1	4	-1E+10	1	-1E+10	1	-1E+10	1	-1E+10	1	-1E+10	1	-1E+10	1
4902551	90	C	02/09/2023	02:02	-131.289	47.864	0	757.80	0	3.5680	0	34.2450	0	27.234	0	750.079	0	16.2	4	5.1	4	-1E+10	1	-1E+10	1	-1E+10	1	-1E+10	1	-1E+10	1	-1E+10	1
4902551	90	C	02/09/2023	02:02	-131.289	47.864	0	762.80	0	3.5590	0	34.2470	0	27.237	0	755.019	0	16.0	4	5.0	4	-1E+10	1	-1E+10	1	-1E+10	1	-1E+10	1	-1E+10	1	-1E+10	1
4902551	90	C	02/09/2023	02:02	-131.289	47.864	0	767.70	0	3.5490	0	34.2500	0	27.240	0	759.860	0	15.8	4	4.9	4	-1E+10	1	-1E+10	1	-1E+10	1	-1E+10	1	-1E+10	1	-1E+10	1
4902551	90	C	02/09/2023	02:02	-131.289	47.864	0	772.50	0	3.5330	0	34.2540	0	27.245	0	764.602	0	15.6	4	4.9	4	-1E+10	1	-1E+10	1	-1E+10	1	-1E+10	1	-1E+10	1	-1E+10	1
4902551	90	C	02/09/2023	02:02	-131.289	47.864	0	777.90	0	3.5120	0	34.2590	0	27.251	0	769.937	0	15.4	4	4.8	4	-1E+10	1	-1E+10	1	-1E+10	1	-1E+10	1	-1E+10	1	-1E+10	1
4902551	90	C	02/09/2023	02:02	-131.289	47.864	0	783.40	0	3.5090	0	34.2600	0	27.252	0	775.371	0	15.3	4	4.8	4	-1E+10	1	-1E+10	1	-1E+10	1	-1E+10	1	-1E+10	1	-1E+10	1
4902551	90	C	02/09/2023	02:02	-131.289	47.864	0	788.30	0	3.5010	0	34.2630	0	27.255	0	780.211	0	15.2	4	4.7	4	-1E+10	1	-1E+10	1	-1E+10	1	-1E+10	1	-1E+10	1	-1E+10	1
4902551	90	C	02/09/2023	02:02	-131.289	47.864	0	793.20	0	3.4950	0	34.2640	0	27.257	0	785.052	0	15.0	4	4.7	4	-1E+10	1	-1E+10	1	-1E+10	1	-1E+10	1	-1E+10	1	-1E+10	1
4902551	90	C	02/09/2023	02:02	-131.289	47.864	0	798.20	0	3.4900	0	34.2650	0	27.258	0	789.991	0	14.8	4	4.6	4	-1E+10	1	-1E+10	1	-1E+10	1	-1E+10	1	-1E+10	1	-1E+10	1
4902551	90	C	02/09/2023	02:02	-131.289	47.864	0	803.20	0	3.4740	0	34.2700	0	27.263	0	794.930	0	14.7	4	4.6	4	-1E+10	1	-1E+10	1	-1E+10	1	-1E+10	1	-1E+10	1	-1E+10	1
4902551	90	C	02/09/2023	02:02	-131.289	47.864	0	808.20	0	3.4680	0	34.2710	0	27.265	0	799.869	0	14.5	4	4.5	4	-1E+10	1	-1E+10	1	-1E+10	1	-1E+10	1	-1E+10	1	-1E+10	1
4902551	90	C	02/09/2023	02:02	-131.289	47.864	0	813.30	0	3.4610	0	34.2730	0	27.267	0	804.907	0	14.4	4	4.5	4	-1E+10	1	-1E+10	1	-1E+10	1	-1E+10	1	-1E+10	1	-1E+10	1
4902551	90	C	02/09/2023	02:02	-131.289	47.864	0	817.90	0	3.4530	0	34.2750	0	27.269	0	809.450	0	14.3	4	4.5	4	-1E+10	1	-1E+10	1	-1E+10	1	-1E+10	1	-1E+10	1	-1E+10	1
4902551	90	C	02/09/2023	02:02	-131.289	47.864	0	822.50	0	3.4460	0	34.2780	0	27.273	0	813.994	0	14.2	4	4.4	4	-1E+10	1	-1E+10	1	-1E+10	1	-1E+10	1	-1E+10	1	-1E+10	1
4902551	90	C	02/09/2023	02:02	-131.289	47.864	0	827.60	0	3.4420	0	34.2790	0	27.274	0	819.031	0	14.1	4	4.4	4	-1E+10	1	-1E+10	1	-1E+10	1	-1E+10	1	-1E+10	1	-1E+10	1
4902551	90	C	02/09/2023	02:02	-131.289	47.864	0	832.70	0	3.4410	0	34.2800	0	27.275	0	824.068	0	14.0	4	4.4	4	-1E+10	1	-1E+10	1	-1E+10	1	-1E+10	1	-1E+10	1	-1E+10	1
4902551	90	C	02/09/2023	02:02	-131.289	47.864	0	837.80	0	3.4350	0	34.2810	0	27.276	0	829.105	0	13.9	4	4.3	4	-1E+10	1	-1E+10	1	-1E+10	1	-1E+10	1	-1E+10	1	-1E+10	1
4902551	90	C	02/09/2023	02:02	-131.289	47.864	0	843.10	0	3.4270	0	34.2830	0	27.279	0	834.340	0	13.7	4	4.3	4	-1E+10	1	-1E+10	1	-1E+10	1	-1E+10	1	-1E+10	1	-1E+10	1
4902551	90	C	02/09/2023	02:02	-131.289	47.864	0	848.20	0	3.4120	0	34.2860	0	27.282	0	839.377	0	13.5	4	4.2	4	-1E+10	1	-1E+10	1	-1E+10	1	-1E+10	1	-1E+10	1	-1E+10	1
4902551	90	C	02/09/2023	02:02	-131.289	47.864	0	852.90	0	3.3920	0	34.2920	0	27.289	0	844.018	0	13.3	4	4.1	4	-1E+10	1	-1E+10	1	-1E+10	1	-1E+10	1	-1E+10	1	-1E+10	1
4902551	90	C	02/09/2023	02:02	-131.289	47.864	0	857.50	0	3.3800	0	34.2960	0	27.293	0	848.561	0	13.2	4	4.1	4	-1E+10	1	-1E+10	1	-1E+10	1	-1E+10	1	-1E+10	1	-1E+10	1
4902551	90	C	02/09/2023	02:02	-131.289	47.864	0	862.70	0	3.3720	0	34.2980	0	27.296	0	853.696	0	13.2	4	4.1	4	-1E+10	1	-1E+10	1	-1E+10	1	-1E+10	1	-1E+10	1	-1E+10	1
4902551	90	C	02/09/2023	02:02	-131.289	47.864	0	867.90	0	3.3660	0	34.3000	0	27.298	0	858.831	0	13.1	4	4.1	4	-1E+10	1	-1E+10	1	-1E+10	1	-1E+10	1	-1E+10	1	-1E+10	1
4902551	90	C	02/09/2023	02:02	-131.289	47.864	0	873.20	0	3.3600	0	34.3010	0	27.299	0	864.065	0	13.0	4	4.0	4	-1E+10	1	-1E+10	1	-1E+10	1	-1E+10	1	-1E+10	1	-1E+10	1
4902551	90	C	02/09/2023	02:02	-131.289	47.864	0	877.90	0	3.3500	0	34.3030	0	27.302	0	868.706	0	12.9	4	4.0	4	-1E+10	1	-1E+10	1	-1E+10	1	-1E+10	1	-1E+10	1	-1E+10	1
4902551	90	C	02/09/2023	02:02	-131.289	47.864	0	882.60	0	3.3390	0	34.3060	0	27.305	0	873.347	0	12.8	4	4.0	4	-1E+10	1	-1E+10	1	-1E+10	1	-1E+10	1	-1E+10	1	-1E+10	1
4902551	90	C	02/09/2023	02:02	-131.289	47.864	0	887.70	0	3.3290	0	34.3090	0	27.309	0	878.383	0	12.6	4	3.9	4	-1E+10	1	-1E+10	1	-1E+10	1	-1E+10	1	-1E+10	1	-1E+10	1
4902551	90	C	02/09/2023	02:02	-131.289	47.864	0	892.90	0	3.3210	0	34.3120	0	27.312	0	883.517	0	12.4	4	3.9	4	-1E+10	1	-1E+10	1	-1E+10	1	-1E+10	1	-1E+10	1	-1E+10	1
4902551	90	C	02/09/2023	02:02	-131.289	47.864	0	898.20	0	3.3160	0	34.3160	0	27.316	0	888.750	0	12.2	4	3.8	4	-1E+10	1	-1E+10	1	-1E+10	1	-1E+10	1	-1E+10	1	-1E+10	1
4902551	90	C	02/09/2023	02:02	-131.289	47.864	0	903.10	0	3.3050	0	34.3200	0	27.320	0	893.588	0	12.1	4	3.8	4	-1E+10	1	-1E+10	1	-1E+10	1	-1E+10	1	-1E+10	1	-1E+10	1
4902551	90	C	02/09/2023	02:02	-131.289	47.864	0	908.20	0	3.3030	0	34.3220	0	27.322	0	898.624	0	12.0	4	3.7	4	-1E+10	1	-1E+10	1	-1E+10	1	-1E+10	1	-1E+10	1	-1E+10	1
4902551	90	C	02/09/2023	02:02	-131.289	47.864	0	912.90	0	3.3040	0	34.3240	0	27.323	0	903.264	0	12.0	4	3.7	4	-1E+10	1	-1E+10	1	-1E+10	1	-1E+10	1	-1E+10	1	-1E+10	1
4902551	90	C	02/09/2023	02:02	-131.289	47.864	0	917.80	0	3.2910	0	34.3250	0	27.325	0	908.101	0	11.9	4	3.7	4	-1E+10	1	-1E+10	1	-1E+10	1	-1E+10	1	-1E+10	1	-1E+10	1
4902551	90	C	02/09/2023	02:02	-131.289	47.864	0	923.00	0	3.2810	0	34.3290	0	27.329	0	913.235	0	11.8	4	3.7	4	-1E+10	1	-1E+10	1	-1E+10	1	-1E+10	1	-1E+10	1	-1E+10	1
4902551	90	C	02/09/2023	02:02	-131.289	47.864	0	928.20	0	3.2790	0	34.3310	0	27.331	0	918.369	0	11.7	4	3.6	4	-1E+10	1	-1E+10	1	-1E+10	1	-1E+10	1	-1E+10	1	-1E+10	1
4902551	90	C	02/09/2023	02:02	-131.289	47.864	0	933.10	0	3.2670	0	34.3360	0	27.336	0	923.206	0	11.6	4	3.6	4	-1E+10	1	-1E+10	1	-1E+10	1	-1E+10	1	-1E+10	1	-1E+10	1
4902551	90	C	02/09/2023	02:02	-131.289	47.864	0	937.90	0	3.2570	0	34.3380	0	27.339	0	927.945	0	11.6	4	3.6	4	-1E+10	1	-1E+10	1	-1E+10	1	-1E+10	1	-1E+10	1	-1E+10	1
4902551	90	C	02/09/2023	02:02	-131.289	47.864	0	942.80	0	3.2520	0	34.3390	0	27.340	0	932.782	0	11.6	4	3.6	4	-1E+10	1	-1E+10	1	-1E+10	1	-1E+10	1	-1E+10	1	-1E+10	1
4902551	90	C	02/09/2023	02:02	-131.289	47.864	0	947.90	0	3.2450	0	34.3410	0	27.343	0	937.816	0	11.6	4	3.6	4	-1E+10	1	-1E+10	1	-1E+10	1	-1E+10	1	-1E+10	1	-1E+10	1
4902551	90	C	02/09/2023	02:02	-131.289	47.864	0	953.00	0	3.2400	0	34.3420	0	27.344	0	942.850	0	11.7	4	3.6	4	-1E+10	1	-1E+10	1	-1E+10	1	-1E+10	1	-1E+10	1	-1E+10	1
4902551	90	C	02/09/2023	02:02	-131.289	47.864	0	958.00	0	3.2310	0	34.3430	0	27.346	0	947.786	0	11.7	4	3.6	4	-1E+10	1	-1E+10	1	-1E+10	1	-1E+10	1	-1E+10	1	-1E+10	1
4902551	90	C	02/09/2023	02:02	-131.289	47.864	0	963.00	0	3.2230	0	34.3440	0	27.347	0	952.721	0	11.7	4	3.6	4	-1E+10	1	-1E+10	1	-1E+10	1	-1E+10	1	-1E+10	1	-1E+10	1
4902551	90	C	02/09/2023	02:02	-131.289	47.864	0	968.10	0	3.2090	0	34.3460	0	27.350	0	957.755	0	11.7	4	3.6	4	-1E+10	1	-1E+10	1	-1E+10	1	-1E+10	1	-1E+10	1	-1E+10	1
4902551	90	C	02/09/2023	02:02	-131.289	47.864	0	973.20	0	3.1960	0	34.3480	0	27.353	0	962.789	0	11.7	4	3.6	4	-1E+10	1	-1E+10	1	-1E+10	1	-1E+10	1	-1E+10	1	-1E+10	1
4902551	90	C	02/09/2023	02:02	-131.289	47.864	0	977.90	0	3.1870	0	34.3500	0	27.355	0	967.428	0	11.7	4	3.6	4	-1E+10	1	-1E+10	1	-1E+10	1	-1E+10	1	-1E+10	1	-1E+10	1
4902551	90	C	02/09/2023	02:02	-131.289	47.864	0	982.70	0	3.1740	0	34.3530	0	27.359	0	972.165	0	11.7	4	3.6	4	-1E+10	1	-1E+10	1	-1E+10	1	-1E+10	1	-1E+10	1	-1E+10	1
4902551	90	C	02/09/2023	02:02	-131.289	47.864	0	987.80	0	3.1690	0	34.3550	0	27.361	0	977.198	0	11.7	4	3.6	4	-1E+10	1	-1E+10	1	-1E+10	1	-1E+10	1	-1E+10	1	-1E+10	1
4902551	90	C	02/09/2023	02:02	-131.289	47.864	0	993.00	0	3.1550	0	34.3580	0	27.365	0	982.331	0	11.7	4	3.6	4	-1E+10	1	-1E+10	1	-1E+10	1	-1E+10	1	-1E+10	1	-1E+10	1
4902551	90	C	02/09/2023	02:02	-131.289	47.864	0	997.80	0	3.1400	0	34.3600	0	27.368	0	987.068	0	11.7	4	3.6	4	-1E+10	1	-1E+10	1	-1E+10	1	-1E+10	1	-1E+10	1	-1E+10	1
4902551	90	C	02/09/2023	02:02	-131.289	47.864	0	1005.50	0	3.1180	0	34.3650	0	27.374	0	994.667	0	11.7	4	3.6	4	-1E+10	1	-1E+10	1	-1E+10	1	-1E+10	1	-1E+10	1	-1E+10	1
4902551	90	C	02/09/2023	02:02	-131.289	47.864	0	1015.90	0	3.1060	0	34.3690	0	27.378	0	1004.930	0	11.7	4	3.6	4	-1E+10	1	-1E+10	1	-1E+10	1	-1E+10	1	-1E+10	1	-1E+10	1
4902551	90	C	02/09/2023	02:02	-131.289	47.864	0	1025.90	0	3.0890	0	34.3710	0	27.381	0	1014.797	0	11.8	4	3.6	4	-1E+10	1	-1E+10	1	-1E+10	1	-1E+10	1	-1E+10	1	-1E+10	1
4902551	90	C	02/09/2023	02:02	-131.289	47.864	0	1035.50	0	3.0730	0	34.3750	0	27.386	0	1024.270	0	11.8	4	3.6	4	-1E+10	1	-1E+10	1	-1E+10	1	-1E+10	1	-1E+10	1	-1E+10	1
4902551	90	C	02/09/2023	02:02	-131.289	47.864	0	1045.30	0	3.0570	0	34.3780	0	27.390	0	1033.940	0	11.8	4	3.7	4	-1E+10	1	-1E+10	1	-1E+10	1	-1E+10	1	-1E+10	1	-1E+10	1
4902551	90	C	02/09/2023	02:02	-131.289	47.864	0	1055.70	0	3.0390	0	34.3820	0	27.395	0	1044.201	0	11.9	4	3.7	4	-1E+10	1	-1E+10	1	-1E+10	1	-1E+10	1	-1E+10	1	-1E+10	1
4902551	90	C	02/09/2023	02:02	-131.289	47.864	0	1065.50	0	3.0270	0	34.3850	0	27.398	0	1053.869	0	12.0	4	3.7	4	-1E+10	1	-1E+10	1	-1E+10	1	-1E+10	1	-1E+10	1	-1E+10	1
4902551	90	C	02/09/2023	02:02	-131.289	47.864	0	1075.30	0	3.0100	0	34.3880	0	27.402	0	1063.538	0	12.0	4	3.7	4	-1E+10	1	-1E+10	1	-1E+10	1	-1E+10	1	-1E+10	1	-1E+10	1
4902551	90	C	02/09/2023	02:02	-131.289	47.864	0	1085.40	0	2.9860	0	34.3920	0	27.408	0	1073.501	0	12.1	4	3.7	4	-1E+10	1	-1E+10	1	-1E+10	1	-1E+10	1	-1E+10	1	-1E+10	1
4902551	90	C	02/09/2023	02:02	-131.289	47.864	0	1095.40	0	2.9640	0	34.3970	0	27.414	0	1083.366	0	12.3	4	3.8	4	-1E+10	1	-1E+10	1	-1E+10	1	-1E+10	1	-1E+10	1	-1E+10	1
4902551	90	C	02/09/2023	02:02	-131.289	47.864	0	1105.40	0	2.9340	0	34.4030	0	27.421	0	1093.230	0	12.4	4	3.8	4	-1E+10	1	-1E+10	1	-1E+10	1	-1E+10	1	-1E+10	1	-1E+10	1
4902551	90	C	02/09/2023	02:02	-131.289	47.864	0	1115.50	0	2.9160	0	34.4060	0	27.425	0	1103.192	0	12.5	4	3.9	4	-1E+10	1	-1E+10	1	-1E+10	1	-1E+10	1	-1E+10	1	-1E+10	1
4902551	90	C	02/09/2023	02:02	-131.289	47.864	0	1125.40	0	2.9040	0	34.4080	0	27.428	0	1112.957	0	12.6	4	3.9	4	-1E+10	1	-1E+10	1	-1E+10	1	-1E+10	1	-1E+10	1	-1E+10	1
4902551	90	C	02/09/2023	02:02	-131.289	47.864	0	1135.50	0	2.8930	0	34.4100	0	27.431	0	1122.918	0	12.7	4	3.9	4	-1E+10	1	-1E+10	1	-1E+10	1	-1E+10	1	-1E+10	1	-1E+10	1
4902551	90	C	02/09/2023	02:02	-131.289	47.864	0	1145.70	0	2.8750	0	34.4140	0	27.436	0	1132.978	0	12.9	4	4.0	4	-1E+10	1	-1E+10	1	-1E+10	1	-1E+10	1	-1E+10	1	-1E+10	1
4902551	90	C	02/09/2023	02:02	-131.289	47.864	0	1155.60	0	2.8580	0	34.4160	0	27.439	0	1142.741	0	13.0	4	4.0	4	-1E+10	1	-1E+10	1	-1E+10	1	-1E+10	1	-1E+10	1	-1E+10	1
4902551	90	C	02/09/2023	02:02	-131.289	47.864	0	1165.40	0	2.8470	0	34.4180	0	27.441	0	1152.405	0	13.2	4	4.1	4	-1E+10	1	-1E+10	1	-1E+10	1	-1E+10	1	-1E+10	1	-1E+10	1
4902551	90	C	02/09/2023	02:02	-131.289	47.864	0	1175.50	0	2.8160	0	34.4230	0	27.448	0	1162.364	0	13.5	4	4.2	4	-1E+10	1	-1E+10	1	-1E+10	1	-1E+10	1	-1E+10	1	-1E+10	1
4902551	90	C	02/09/2023	02:02	-131.289	47.864	0	1185.50	0	2.7930	0	34.4270	0	27.453	0	1172.225	0	13.8	4	4.2	4	-1E+10	1	-1E+10	1	-1E+10	1	-1E+10	1	-1E+10	1	-1E+10	1
4902551	90	C	02/09/2023	02:02	-131.289	47.864	0	1195.50	0	2.7750	0	34.4310	0	27.458	0	1182.085	0	14.0	4	4.3	4	-1E+10	1	-1E+10	1	-1E+10	1	-1E+10	1	-1E+10	1	-1E+10	1
4902551	90	C	02/09/2023	02:02	-131.289	47.864	0	1205.90	0	2.7580	0	34.4340	0	27.462	0	1192.338	0	14.2	4	4.4	4	-1E+10	1	-1E+10	1	-1E+10	1	-1E+10	1	-1E+10	1	-1E+10	1
4902551	90	C	02/09/2023	02:02	-131.289	47.864	0	1215.50	0	2.7480	0	34.4360	0	27.465	0	1201.803	0	14.4	4	4.4	4	-1E+10	1	-1E+10	1	-1E+10	1	-1E+10	1	-1E+10	1	-1E+10	1
4902551	90	C	02/09/2023	02:02	-131.289	47.864	0	1225.30	0	2.7330	0	34.4390	0	27.468	0	1211.465	0	14.6	4	4.5	4	-1E+10	1	-1E+10	1	-1E+10	1	-1E+10	1	-1E+10	1	-1E+10	1
4902551	90	C	02/09/2023	02:02	-131.289	47.864	0	1235.20	0	2.7200	0	34.4410	0	27.471	0	1221.224	0	14.8	4	4.5	4	-1E+10	1	-1E+10	1	-1E+10	1	-1E+10	1	-1E+10	1	-1E+10	1
4902551	90	C	02/09/2023	02:02	-131.289	47.864	0	1245.30	0	2.7030	0	34.4440	0	27.475	0	1231.180	0	15.0	4	4.6	4	-1E+10	1	-1E+10	1	-1E+10	1	-1E+10	1	-1E+10	1	-1E+10	1
4902551	90	C	02/09/2023	02:02	-131.289	47.864	0	1255.30	0	2.6920	0	34.4460	0	27.478	0	1241.037	0	15.2	4	4.7	4	-1E+10	1	-1E+10	1	-1E+10	1	-1E+10	1	-1E+10	1	-1E+10	1
4902551	90	C	02/09/2023	02:02	-131.289	47.864	0	1265.10	0	2.6840	0	34.4480	0	27.480	0	1250.697	0	15.4	4	4.7	4	-1E+10	1	-1E+10	1	-1E+10	1	-1E+10	1	-1E+10	1	-1E+10	1
4902551	90	C	02/09/2023	02:02	-131.289	47.864	0	1275.40	0	2.6760	0	34.4490	0	27.482	0	1260.849	0	15.6	4	4.8	4	-1E+10	1	-1E+10	1	-1E+10	1	-1E+10	1	-1E+10	1	-1E+10	1
4902551	90	C	02/09/2023	02:02	-131.289	47.864	0	1286.10	0	2.6610	0	34.4520	0	27.485	0	1271.394	0	15.9	4	4.9	4	-1E+10	1	-1E+10	1	-1E+10	1	-1E+10	1	-1E+10	1	-1E+10	1
4902551	90	C	02/09/2023	02:02	-131.289	47.864	0	1295.60	0	2.6430	0	34.4550	0	27.489	0	1280.757	0	16.1	4	4.9	4	-1E+10	1	-1E+10	1	-1E+10	1	-1E+10	1	-1E+10	1	-1E+10	1
4902551	90	C	02/09/2023	02:02	-131.289	47.864	0	1305.60	0	2.6290	0	34.4560	0	27.491	0	1290.612	0	16.5	4	5.0	4	-1E+10	1	-1E+10	1	-1E+10	1	-1E+10	1	-1E+10	1	-1E+10	1
4902551	90	C	02/09/2023	02:02	-131.289	47.864	0	1315.60	0	2.6120	0	34.4600	0	27.496	0	1300.466	0	16.8	4	5.1	4	-1E+10	1	-1E+10	1	-1E+10	1	-1E+10	1	-1E+10	1	-1E+10	1
4902551	90	C	02/09/2023	02:02	-131.289	47.864	0	1325.30	0	2.5980	0	34.4620	0	27.499	0	1310.024	0	17.0	4	5.2	4	-1E+10	1	-1E+10	1	-1E+10	1	-1E+10	1	-1E+10	1	-1E+10	1
4902551	90	C	02/09/2023	02:02	-131.289	47.864	0	1335.20	0	2.5880	0	34.4640	0	27.501	0	1319.779	0	17.3	4	5.3	4	-1E+10	1	-1E+10	1	-1E+10	1	-1E+10	1	-1E+10	1	-1E+10	1
4902551	90	C	02/09/2023	02:02	-131.289	47.864	0	1345.40	0	2.5750	0	34.4660	0	27.504	0	1329.829	0	17.7	4	5.4	4	-1E+10	1	-1E+10	1	-1E+10	1	-1E+10	1	-1E+10	1	-1E+10	1
4902551	90	C	02/09/2023	02:02	-131.289	47.864	0	1355.60	0	2.5610	0	34.4700	0	27.509	0	1339.879	0	18.2	4	5.6	4	-1E+10	1	-1E+10	1	-1E+10	1	-1E+10	1	-1E+10	1	-1E+10	1
4902551	90	C	02/09/2023	02:02	-131.289	47.864	0	1365.50	0	2.5530	0	34.4710	0	27.510	0	1349.632	0	18.4	4	5.6	4	-1E+10	1	-1E+10	1	-1E+10	1	-1E+10	1	-1E+10	1	-1E+10	1
4902551	90	C	02/09/2023	02:02	-131.289	47.864	0	1375.40	0	2.5420	0	34.4730	0	27.513	0	1359.385	0	18.8	4	5.7	4	-1E+10	1	-1E+10	1	-1E+10	1	-1E+10	1	-1E+10	1	-1E+10	1
4902551	90	C	02/09/2023	02:02	-131.289	47.864	0	1385.60	0	2.5190	0	34.4760	0	27.517	0	1369.434	0	19.2	4	5.9	4	-1E+10	1	-1E+10	1	-1E+10	1	-1E+10	1	-1E+10	1	-1E+10	1
4902551	90	C	02/09/2023	02:02	-131.289	47.864	0	1395.50	0	2.5040	0	34.4790	0	27.521	0	1379.186	0	19.6	4	6.0	4	-1E+10	1	-1E+10	1	-1E+10	1	-1E+10	1	-1E+10	1	-1E+10	1
4902551	90	C	02/09/2023	02:02	-131.289	47.864	0	1405.50	0	2.4920	0	34.4810	0	27.524	0	1389.036	0	19.9	4	6.1	4	-1E+10	1	-1E+10	1	-1E+10	1	-1E+10	1	-1E+10	1	-1E+10	1
4902551	90	C	02/09/2023	02:02	-131.289	47.864	0	1415.50	0	2.4770	0	34.4830	0	27.526	0	1398.886	0	20.2	4	6.2	4	-1E+10	1	-1E+10	1	-1E+10	1	-1E+10	1	-1E+10	1	-1E+10	1
4902551	90	C	02/09/2023	02:02	-131.289	47.864	0	1425.70	0	2.4680	0	34.4850	0	27.529	0	1408.932	0	20.7	4	6.3	4	-1E+10	1	-1E+10	1	-1E+10	1	-1E+10	1	-1E+10	1	-1E+10	1
4902551	90	C	02/09/2023	02:02	-131.289	47.864	0	1435.50	0	2.4470	0	34.4880	0	27.533	0	1418.584	0	21.1	4	6.4	4	-1E+10	1	-1E+10	1	-1E+10	1	-1E+10	1	-1E+10	1	-1E+10	1
4902551	90	C	02/09/2023	02:02	-131.289	47.864	0	1445.20	0	2.4360	0	34.4900	0	27.536	0	1428.137	0	21.4	4	6.5	4	-1E+10	1	-1E+10	1	-1E+10	1	-1E+10	1	-1E+10	1	-1E+10	1
4902551	90	C	02/09/2023	02:02	-131.289	47.864	0	1455.20	0	2.4250	0	34.4920	0	27.538	0	1437.984	0	21.9	4	6.7	4	-1E+10	1	-1E+10	1	-1E+10	1	-1E+10	1	-1E+10	1	-1E+10	1
4902551	90	C	02/09/2023	02:02	-131.289	47.864	0	1465.30	0	2.4130	0	34.4940	0	27.541	0	1447.930	0	22.4	4	6.8	4	-1E+10	1	-1E+10	1	-1E+10	1	-1E+10	1	-1E+10	1	-1E+10	1
4902551	90	C	02/09/2023	02:02	-131.289	47.864	0	1475.50	0	2.3990	0	34.4960	0	27.544	0	1457.974	0	22.9	4	7.0	4	-1E+10	1	-1E+10	1	-1E+10	1	-1E+10	1	-1E+10	1	-1E+10	1
4902551	90	C	02/09/2023	02:02	-131.289	47.864	0	1485.40	0	2.3850	0	34.4990	0	27.547	0	1467.722	0	23.6	4	7.2	4	-1E+10	1	-1E+10	1	-1E+10	1	-1E+10	1	-1E+10	1	-1E+10	1
4902551	90	C	02/09/2023	02:02	-131.289	47.864	0	1495.10	0	2.3710	0	34.5020	0	27.551	0	1477.273	0	24.2	4	7.4	4	-1E+10	1	-1E+10	1	-1E+10	1	-1E+10	1	-1E+10	1	-1E+10	1
4902551	90	C	02/09/2023	02:02	-131.289	47.864	0	1505.40	0	2.3540	0	34.5040	0	27.554	0	1487.414	0	25.1	4	7.6	4	-1E+10	1	-1E+10	1	-1E+10	1	-1E+10	1	-1E+10	1	-1E+10	1
4902551	90	C	02/09/2023	02:02	-131.289	47.864	0	1515.90	0	2.3300	0	34.5090	0	27.560	0	1497.751	0	25.9	4	7.9	4	-1E+10	1	-1E+10	1	-1E+10	1	-1E+10	1	-1E+10	1	-1E+10	1
4902551	90	C	02/09/2023	02:02	-131.289	47.864	0	1525.80	0	2.3180	0	34.5110	0	27.563	0	1507.498	0	26.4	4	8.0	4	-1E+10	1	-1E+10	1	-1E+10	1	-1E+10	1	-1E+10	1	-1E+10	1
4902551	90	C	02/09/2023	02:02	-131.289	47.864	0	1535.50	0	2.3060	0	34.5130	0	27.565	0	1517.046	0	27.0	4	8.2	4	-1E+10	1	-1E+10	1	-1E+10	1	-1E+10	1	-1E+10	1	-1E+10	1
4902551	90	C	02/09/2023	02:02	-131.289	47.864	0	1545.20	0	2.2950	0	34.5150	0	27.568	0	1526.595	0	27.5	4	8.3	4	-1E+10	1	-1E+10	1	-1E+10	1	-1E+10	1	-1E+10	1	-1E+10	1
4902551	90	C	02/09/2023	02:02	-131.289	47.864	0	1555.40	0	2.2880	0	34.5170	0	27.570	0	1536.635	0	27.9	4	8.5	4	-1E+10	1	-1E+10	1	-1E+10	1	-1E+10	1	-1E+10	1	-1E+10	1
4902551	90	C	02/09/2023	02:02	-131.289	47.864	0	1565.60	0	2.2800	0	34.5180	0	27.572	0	1546.675	0	28.5	4	8.6	4	-1E+10	1	-1E+10	1	-1E+10	1	-1E+10	1	-1E+10	1	-1E+10	1
4902551	90	C	02/09/2023	02:02	-131.289	47.864	0	1575.40	0	2.2680	0	34.5200	0	27.574	0	1556.320	0	29.0	4	8.8	4	-1E+10	1	-1E+10	1	-1E+10	1	-1E+10	1	-1E+10	1	-1E+10	1
4902551	90	C	02/09/2023	02:02	-131.289	47.864	0	1585.60	0	2.2610	0	34.5220	0	27.576	0	1566.359	0	29.4	4	8.9	4	-1E+10	1	-1E+10	1	-1E+10	1	-1E+10	1	-1E+10	1	-1E+10	1
4902551	90	C	02/09/2023	02:02	-131.289	47.864	0	1595.60	0	2.2520	0	34.5230	0	27.578	0	1576.200	0	29.8	4	9.0	4	-1E+10	1	-1E+10	1	-1E+10	1	-1E+10	1	-1E+10	1	-1E+10	1
4902551	90	C	02/09/2023	02:02	-131.289	47.864	0	1605.30	0	2.2490	0	34.5240	0	27.579	0	1585.746	0	30.1	4	9.1	4	-1E+10	1	-1E+10	1	-1E+10	1	-1E+10	1	-1E+10	1	-1E+10	1
4902551	90	C	02/09/2023	02:02	-131.289	47.864	0	1615.30	0	2.2420	0	34.5250	0	27.580	0	1595.587	0	30.8	4	9.3	4	-1E+10	1	-1E+10	1	-1E+10	1	-1E+10	1	-1E+10	1	-1E+10	1
4902551	90	C	02/09/2023	02:02	-131.289	47.864	0	1625.50	0	2.2260	0	34.5280	0	27.584	0	1605.624	0	31.5	4	9.5	4	-1E+10	1	-1E+10	1	-1E+10	1	-1E+10	1	-1E+10	1	-1E+10	1
4902551	90	C	02/09/2023	02:02	-131.289	47.864	0	1635.30	0	2.2200	0	34.5290	0	27.586	0	1615.266	0	32.0	4	9.7	4	-1E+10	1	-1E+10	1	-1E+10	1	-1E+10	1	-1E+10	1	-1E+10	1
4902551	90	C	02/09/2023	02:02	-131.289	47.864	0	1645.00	0	2.2080	0	34.5310	0	27.588	0	1624.810	0	32.5	4	9.9	4	-1E+10	1	-1E+10	1	-1E+10	1	-1E+10	1	-1E+10	1	-1E+10	1
4902551	90	C	02/09/2023	02:02	-131.289	47.864	0	1655.40	0	2.2040	0	34.5320	0	27.589	0	1635.043	0	33.0	4	10.0	4	-1E+10	1	-1E+10	1	-1E+10	1	-1E+10	1	-1E+10	1	-1E+10	1
4902551	90	C	02/09/2023	02:02	-131.289	47.864	0	1665.70	0	2.1930	0	34.5340	0	27.592	0	1645.176	0	33.4	4	10.1	4	-1E+10	1	-1E+10	1	-1E+10	1	-1E+10	1	-1E+10	1	-1E+10	1
4902551	90	C	02/09/2023	02:02	-131.289	47.864	0	1675.50	0	2.1860	0	34.5360	0	27.594	0	1654.817	0	33.8	4	10.2	4	-1E+10	1	-1E+10	1	-1E+10	1	-1E+10	1	-1E+10	1	-1E+10	1
4902551	90	C	02/09/2023	02:02	-131.289	47.864	0	1685.40	0	2.1810	0	34.5360	0	27.595	0	1664.556	0	34.3	4	10.4	4	-1E+10	1	-1E+10	1	-1E+10	1	-1E+10	1	-1E+10	1	-1E+10	1
4902551	90	C	02/09/2023	02:02	-131.289	47.864	0	1695.60	0	2.1710	0	34.5380	0	27.597	0	1674.590	0	35.2	4	10.7	4	-1E+10	1	-1E+10	1	-1E+10	1	-1E+10	1	-1E+10	1	-1E+10	1
4902551	90	C	02/09/2023	02:02	-131.289	47.864	0	1705.80	0	2.1530	0	34.5420	0	27.602	0	1684.623	0	36.4	4	11.0	4	-1E+10	1	-1E+10	1	-1E+10	1	-1E+10	1	-1E+10	1	-1E+10	1
4902551	90	C	02/09/2023	02:02	-131.289	47.864	0	1715.40	0	2.1410	0	34.5440	0	27.604	0	1694.065	0	37.4	4	11.3	4	-1E+10	1	-1E+10	1	-1E+10	1	-1E+10	1	-1E+10	1	-1E+10	1
4902551	90	C	02/09/2023	02:02	-131.289	47.864	0	1725.10	0	2.1220	0	34.5480	0	27.609	0	1703.606	0	38.4	4	11.6	4	-1E+10	1	-1E+10	1	-1E+10	1	-1E+10	1	-1E+10	1	-1E+10	1
4902551	90	C	02/09/2023	02:02	-131.289	47.864	0	1735.30	0	2.1110	0	34.5490	0	27.611	0	1713.637	0	39.1	4	11.8	4	-1E+10	1	-1E+10	1	-1E+10	1	-1E+10	1	-1E+10	1	-1E+10	1
4902551	90	C	02/09/2023	02:02	-131.289	47.864	0	1745.80	0	2.0960	0	34.5520	0	27.614	0	1723.964	0	40.2	4	12.2	4	-1E+10	1	-1E+10	1	-1E+10	1	-1E+10	1	-1E+10	1	-1E+10	1
4902551	90	C	02/09/2023	02:02	-131.289	47.864	0	1755.30	0	2.0850	0	34.5550	0	27.618	0	1733.306	0	41.0	4	12.4	4	-1E+10	1	-1E+10	1	-1E+10	1	-1E+10	1	-1E+10	1	-1E+10	1
4902551	90	C	02/09/2023	02:02	-131.289	47.864	0	1765.30	0	2.0760	0	34.5560	0	27.619	0	1743.140	0	41.6	4	12.6	4	-1E+10	1	-1E+10	1	-1E+10	1	-1E+10	1	-1E+10	1	-1E+10	1
4902551	90	C	02/09/2023	02:02	-131.289	47.864	0	1775.30	0	2.0680	0	34.5580	0	27.622	0	1752.973	0	42.3	4	12.8	4	-1E+10	1	-1E+10	1	-1E+10	1	-1E+10	1	-1E+10	1	-1E+10	1
4902551	90	C	02/09/2023	02:02	-131.289	47.864	0	1785.10	0	2.0590	0	34.5590	0	27.623	0	1762.609	0	42.7	4	12.9	4	-1E+10	1	-1E+10	1	-1E+10	1	-1E+10	1	-1E+10	1	-1E+10	1
4902551	90	C	02/09/2023	02:02	-131.289	47.864	0	1795.20	0	2.0570	0	34.5600	0	27.624	0	1772.540	0	43.0	4	13.0	4	-1E+10	1	-1E+10	1	-1E+10	1	-1E+10	1	-1E+10	1	-1E+10	1
4902551	90	C	02/09/2023	02:02	-131.289	47.864	0	1805.30	0	2.0530	0	34.5610	0	27.625	0	1782.470	0	43.4	4	13.1	4	-1E+10	1	-1E+10	1	-1E+10	1	-1E+10	1	-1E+10	1	-1E+10	1
4902551	90	C	02/09/2023	02:02	-131.289	47.864	0	1815.50	0	2.0480	0	34.5620	0	27.627	0	1792.498	0	44.0	4	13.3	4	-1E+10	1	-1E+10	1	-1E+10	1	-1E+10	1	-1E+10	1	-1E+10	1
4902551	90	C	02/09/2023	02:02	-131.289	47.864	0	1825.60	0	2.0380	0	34.5640	0	27.629	0	1802.427	0	44.8	4	13.5	4	-1E+10	1	-1E+10	1	-1E+10	1	-1E+10	1	-1E+10	1	-1E+10	1
4902551	90	C	02/09/2023	02:02	-131.289	47.864	0	1835.50	0	2.0290	0	34.5660	0	27.631	0	1812.159	0	45.2	4	13.6	4	-1E+10	1	-1E+10	1	-1E+10	1	-1E+10	1	-1E+10	1	-1E+10	1
4902551	90	C	02/09/2023	02:02	-131.289	47.864	0	1845.30	0	2.0290	0	34.5660	0	27.631	0	1821.793	0	45.7	4	13.8	4	-1E+10	1	-1E+10	1	-1E+10	1	-1E+10	1	-1E+10	1	-1E+10	1
4902551	90	C	02/09/2023	02:02	-131.289	47.864	0	1855.30	0	2.0190	0	34.5680	0	27.634	0	1831.622	0	46.5	4	14.0	4	-1E+10	1	-1E+10	1	-1E+10	1	-1E+10	1	-1E+10	1	-1E+10	1
4902551	90	C	02/09/2023	02:02	-131.289	47.864	0	1865.60	0	2.0120	0	34.5690	0	27.635	0	1841.746	0	47.0	4	14.2	4	-1E+10	1	-1E+10	1	-1E+10	1	-1E+10	1	-1E+10	1	-1E+10	1
4902551	90	C	02/09/2023	02:02	-131.289	47.864	0	1875.60	0	2.0070	0	34.5700	0	27.637	0	1851.575	0	47.6	4	14.3	4	-1E+10	1	-1E+10	1	-1E+10	1	-1E+10	1	-1E+10	1	-1E+10	1
4902551	90	C	02/09/2023	02:02	-131.289	47.864	0	1885.50	0	2.0000	0	34.5710	0	27.638	0	1861.305	0	48.3	4	14.6	4	-1E+10	1	-1E+10	1	-1E+10	1	-1E+10	1	-1E+10	1	-1E+10	1
4902551	90	C	02/09/2023	02:02	-131.289	47.864	0	1895.30	0	1.9910	0	34.5730	0	27.640	0	1870.936	0	48.9	4	14.7	4	-1E+10	1	-1E+10	1	-1E+10	1	-1E+10	1	-1E+10	1	-1E+10	1
4902551	90	C	02/09/2023	02:02	-131.289	47.864	0	1905.30	0	1.9850	0	34.5740	0	27.642	0	1880.763	0	49.6	4	14.9	4	-1E+10	1	-1E+10	1	-1E+10	1	-1E+10	1	-1E+10	1	-1E+10	1
4902551	90	C	02/09/2023	02:02	-131.289	47.864	0	1915.30	0	1.9740	0	34.5760	0	27.644	0	1890.590	0	50.3	4	15.2	4	-1E+10	1	-1E+10	1	-1E+10	1	-1E+10	1	-1E+10	1	-1E+10	1
4902551	90	C	02/09/2023	02:02	-131.289	47.864	0	1925.50	0	1.9680	0	34.5780	0	27.646	0	1900.613	0	51.0	4	15.3	4	-1E+10	1	-1E+10	1	-1E+10	1	-1E+10	1	-1E+10	1	-1E+10	1
4902551	90	C	02/09/2023	02:02	-131.289	47.864	0	1935.50	0	1.9590	0	34.5790	0	27.648	0	1910.439	0	51.6	4	15.5	4	-1E+10	1	-1E+10	1	-1E+10	1	-1E+10	1	-1E+10	1	-1E+10	1
4902551	90	C	02/09/2023	02:02	-131.289	47.864	0	1945.30	0	1.9540	0	34.5800	0	27.649	0	1920.068	0	52.0	4	15.7	4	-1E+10	1	-1E+10	1	-1E+10	1	-1E+10	1	-1E+10	1	-1E+10	1
4902551	90	C	02/09/2023	02:02	-131.289	47.864	0	1955.20	0	1.9510	0	34.5810	0	27.650	0	1929.794	0	52.6	4	15.8	4	-1E+10	1	-1E+10	1	-1E+10	1	-1E+10	1	-1E+10	1	-1E+10	1
4902551	90	C	02/09/2023	02:02	-131.289	47.864	0	1965.20	0	1.9420	0	34.5830	0	27.652	0	1939.619	0	53.3	4	16.1	4	-1E+10	1	-1E+10	1	-1E+10	1	-1E+10	1	-1E+10	1	-1E+10	1
4902551	90	C	02/09/2023	02:02	-131.289	47.864	0	1975.30	0	1.9350	0	34.5840	0	27.654	0	1949.541	0	53.8	4	16.2	4	-1E+10	1	-1E+10	1	-1E+10	1	-1E+10	1	-1E+10	1	-1E+10	1
4902551	90	C	02/09/2023	02:02	-131.289	47.864	0	1985.30	0	1.9320	0	34.5850	0	27.655	0	1959.365	0	54.2	4	16.3	4	-1E+10	1	-1E+10	1	-1E+10	1	-1E+10	1	-1E+10	1	-1E+10	1
4902551	90	C	02/09/2023	02:02	-131.289	47.864	0	1995.00	0	1.9270	0	34.5860	0	27.656	0	1968.894	0	54.6	4	16.4	4	-1E+10	1	-1E+10	1	-1E+10	1	-1E+10	1	-1E+10	1	-1E+10	1
4902551	90	C	02/09/2023	02:02	-131.289	47.864	0	2005.00	0	1.9240	0	34.5870	0	27.657	0	1978.716	0	55.0	4	16.6	4	-1E+10	1	-1E+10	1	-1E+10	1	-1E+10	1	-1E+10	1	-1E+10	1
4902551	90	C	02/09/2023	02:02	-131.289	47.864	0	2015.40	0	1.9170	0	34.5880	0	27.659	0	1988.931	0	55.3	4	16.6	4	-1E+10	1	-1E+10	1	-1E+10	1	-1E+10	1	-1E+10	1	-1E+10	1
4902551	90	C	02/09/2023	02:02	-131.289	47.864	0	2024.20	0	1.9130	0	34.5890	0	27.660	0	1997.575	0	55.2	4	16.6	4	-1E+10	1	-1E+10	1	-1E+10	1	-1E+10	1	-1E+10	1	-1E+10	1
4902551	90	C	02/09/2023	02:02	-131.289	47.864	0																										
4902551	91	C	02/19/2023	07:02	-131.304	47.837	0	0.50	0	8.4870	0	32.2900	0	25.075	0	0.496	0	279.2	4	96.5	4	-1E+10	1	-1E+10	1	-1E+10	1	-1E+10	1	-1E+10	1	-1E+10	1
4902551	91	C	02/19/2023	07:02	-131.304	47.837	0	0.60	0	8.4870	0	32.2900	0	25.075	0	0.595	0	-1e10	1	-1e10	1	-1E+10	1	-1E+10	1	-1E+10	1	-1E+10	1	-1E+10	1	-1E+10	1
4902551	91	C	02/19/2023	07:02	-131.304	47.837	0	0.90	0	8.4890	0	32.2900	0	25.075	0	0.892	0	272.2	4	94.0	4	-1E+10	1	-1E+10	1	-1E+10	1	-1E+10	1	-1E+10	1	-1E+10	1
4902551	91	C	02/19/2023	07:02	-131.304	47.837	0	1.90	0	8.4910	0	32.2890	0	25.074	0	1.884	0	272.2	4	94.0	4	-1E+10	1	-1E+10	1	-1E+10	1	-1E+10	1	-1E+10	1	-1E+10	1
4902551	91	C	02/19/2023	07:02	-131.304	47.837	0	2.90	0	8.4900	0	32.2910	0	25.075	0	2.876	0	272.1	4	94.0	4	-1E+10	1	-1E+10	1	-1E+10	1	-1E+10	1	-1E+10	1	-1E+10	1
4902551	91	C	02/19/2023	07:02	-131.304	47.837	0	4.00	0	8.4910	0	32.2910	0	25.075	0	3.966	0	272.1	4	94.0	4	-1E+10	1	-1E+10	1	-1E+10	1	-1E+10	1	-1E+10	1	-1E+10	1
4902551	91	C	02/19/2023	07:02	-131.304	47.837	0	5.10	0	8.4940	0	32.2900	0	25.074	0	5.057	0	272.0	4	94.0	4	-1E+10	1	-1E+10	1	-1E+10	1	-1E+10	1	-1E+10	1	-1E+10	1
4902551	91	C	02/19/2023	07:02	-131.304	47.837	0	5.90	0	8.4940	0	32.2900	0	25.074	0	5.850	0	272.1	4	94.0	4	-1E+10	1	-1E+10	1	-1E+10	1	-1E+10	1	-1E+10	1	-1E+10	1
4902551	91	C	02/19/2023	07:02	-131.304	47.837	0	7.20	0	8.4950	0	32.2900	0	25.074	0	7.140	0	272.0	4	94.0	4	-1E+10	1	-1E+10	1	-1E+10	1	-1E+10	1	-1E+10	1	-1E+10	1
4902551	91	C	02/19/2023	07:02	-131.304	47.837	0	7.80	0	8.4930	0	32.2900	0	25.074	0	7.735	0	272.1	4	94.0	4	-1E+10	1	-1E+10	1	-1E+10	1	-1E+10	1	-1E+10	1	-1E+10	1
4902551	91	C	02/19/2023	07:02	-131.304	47.837	0	8.80	0	8.4930	0	32.2900	0	25.074	0	8.726	0	272.0	4	94.0	4	-1E+10	1	-1E+10	1	-1E+10	1	-1E+10	1	-1E+10	1	-1E+10	1
4902551	91	C	02/19/2023	07:02	-131.304	47.837	0	9.80	0	8.4930	0	32.2900	0	25.074	0	9.718	0	272.0	4	94.0	4	-1E+10	1	-1E+10	1	-1E+10	1	-1E+10	1	-1E+10	1	-1E+10	1
4902551	91	C	02/19/2023	07:02	-131.304	47.837	0	10.90	0	8.4940	0	32.2900	0	25.074	0	10.808	0	272.0	4	94.0	4	-1E+10	1	-1E+10	1	-1E+10	1	-1E+10	1	-1E+10	1	-1E+10	1
4902551	91	C	02/19/2023	07:02	-131.304	47.837	0	12.00	0	8.4950	0	32.2900	0	25.074	0	11.899	0	271.9	4	94.0	4	-1E+10	1	-1E+10	1	-1E+10	1	-1E+10	1	-1E+10	1	-1E+10	1
4902551	91	C	02/19/2023	07:02	-131.304	47.837	0	13.00	0	8.4950	0	32.2900	0	25.074	0	12.891	0	271.9	4	94.0	4	-1E+10	1	-1E+10	1	-1E+10	1	-1E+10	1	-1E+10	1	-1E+10	1
4902551	91	C	02/19/2023	07:02	-131.304	47.837	0	14.10	0	8.4950	0	32.2900	0	25.074	0	13.981	0	271.9	4	93.9	4	-1E+10	1	-1E+10	1	-1E+10	1	-1E+10	1	-1E+10	1	-1E+10	1
4902551	91	C	02/19/2023	07:02	-131.304	47.837	0	15.10	0	8.4960	0	32.2900	0	25.074	0	14.973	0	271.9	4	94.0	4	-1E+10	1	-1E+10	1	-1E+10	1	-1E+10	1	-1E+10	1	-1E+10	1
4902551	91	C	02/19/2023	07:02	-131.304	47.837	0	16.00	0	8.4960	0	32.2900	0	25.074	0	15.865	0	271.9	4	93.9	4	-1E+10	1	-1E+10	1	-1E+10	1	-1E+10	1	-1E+10	1	-1E+10	1
4902551	91	C	02/19/2023	07:02	-131.304	47.837	0	17.00	0	8.4960	0	32.2900	0	25.074	0	16.857	0	271.9	4	94.0	4	-1E+10	1	-1E+10	1	-1E+10	1	-1E+10	1	-1E+10	1	-1E+10	1
4902551	91	C	02/19/2023	07:02	-131.304	47.837	0	18.10	0	8.4960	0	32.2900	0	25.074	0	17.948	0	271.9	4	94.0	4	-1E+10	1	-1E+10	1	-1E+10	1	-1E+10	1	-1E+10	1	-1E+10	1
4902551	91	C	02/19/2023	07:02	-131.304	47.837	0	18.80	0	8.4950	0	32.2900	0	25.074	0	18.642	0	271.9	4	93.9	4	-1E+10	1	-1E+10	1	-1E+10	1	-1E+10	1	-1E+10	1	-1E+10	1
4902551	91	C	02/19/2023	07:02	-131.304	47.837	0	20.00	0	8.4950	0	32.2900	0	25.074	0	19.832	0	271.8	4	93.9	4	-1E+10	1	-1E+10	1	-1E+10	1	-1E+10	1	-1E+10	1	-1E+10	1
4902551	91	C	02/19/2023	07:02	-131.304	47.837	0	21.10	0	8.4950	0	32.2900	0	25.074	0	20.922	0	271.8	4	93.9	4	-1E+10	1	-1E+10	1	-1E+10	1	-1E+10	1	-1E+10	1	-1E+10	1
4902551	91	C	02/19/2023	07:02	-131.304	47.837	0	21.90	0	8.4950	0	32.2900	0	25.074	0	21.715	0	271.8	4	93.9	4	-1E+10	1	-1E+10	1	-1E+10	1	-1E+10	1	-1E+10	1	-1E+10	1
4902551	91	C	02/19/2023	07:02	-131.304	47.837	0	23.10	0	8.4970	0	32.2900	0	25.074	0	22.905	0	271.8	4	93.9	4	-1E+10	1	-1E+10	1	-1E+10	1	-1E+10	1	-1E+10	1	-1E+10	1
4902551	91	C	02/19/2023	07:02	-131.304	47.837	0	23.80	0	8.4960	0	32.2900	0	25.074	0	23.599	0	271.9	4	93.9	4	-1E+10	1	-1E+10	1	-1E+10	1	-1E+10	1	-1E+10	1	-1E+10	1
4902551	91	C	02/19/2023	07:02	-131.304	47.837	0	25.00	0	8.4970	0	32.2900	0	25.074	0	24.789	0	271.8	4	93.9	4	-1E+10	1	-1E+10	1	-1E+10	1	-1E+10	1	-1E+10	1	-1E+10	1
4902551	91	C	02/19/2023	07:02	-131.304	47.837	0	26.20	0	8.4970	0	32.2900	0	25.074	0	25.979	0	271.8	4	93.9	4	-1E+10	1	-1E+10	1	-1E+10	1	-1E+10	1	-1E+10	1	-1E+10	1
4902551	91	C	02/19/2023	07:02	-131.304	47.837	0	27.00	0	8.4980	0	32.2900	0	25.074	0	26.772	0	271.8	4	93.9	4	-1E+10	1	-1E+10	1	-1E+10	1	-1E+10	1	-1E+10	1	-1E+10	1
4902551	91	C	02/19/2023	07:02	-131.304	47.837	0	27.70	0	8.4980	0	32.2900	0	25.074	0	27.466	0	271.7	4	93.9	4	-1E+10	1	-1E+10	1	-1E+10	1	-1E+10	1	-1E+10	1	-1E+10	1
4902551	91	C	02/19/2023	07:02	-131.304	47.837	0	28.80	0	8.4970	0	32.2900	0	25.074	0	28.557	0	271.8	4	93.9	4	-1E+10	1	-1E+10	1	-1E+10	1	-1E+10	1	-1E+10	1	-1E+10	1
4902551	91	C	02/19/2023	07:02	-131.304	47.837	0	29.90	0	8.4970	0	32.2900	0	25.074	0	29.647	0	271.7	4	93.9	4	-1E+10	1	-1E+10	1	-1E+10	1	-1E+10	1	-1E+10	1	-1E+10	1
4902551	91	C	02/19/2023	07:02	-131.304	47.837	0	31.00	0	8.4970	0	32.2900	0	25.074	0	30.738	0	271.7	4	93.9	4	-1E+10	1	-1E+10	1	-1E+10	1	-1E+10	1	-1E+10	1	-1E+10	1
4902551	91	C	02/19/2023	07:02	-131.304	47.837	0	32.10	0	8.4970	0	32.2900	0	25.074	0	31.829	0	271.7	4	93.9	4	-1E+10	1	-1E+10	1	-1E+10	1	-1E+10	1	-1E+10	1	-1E+10	1
4902551	91	C	02/19/2023	07:02	-131.304	47.837	0	32.90	0	8.4970	0	32.2900	0	25.074	0	32.622	0	271.7	4	93.9	4	-1E+10	1	-1E+10	1	-1E+10	1	-1E+10	1	-1E+10	1	-1E+10	1
4902551	91	C	02/19/2023	07:02	-131.304	47.837	0	33.80	0	8.4970	0	32.2900	0	25.074	0	33.514	0	271.8	4	93.9	4	-1E+10	1	-1E+10	1	-1E+10	1	-1E+10	1	-1E+10	1	-1E+10	1
4902551	91	C	02/19/2023	07:02	-131.304	47.837	0	34.90	0	8.4970	0	32.2900	0	25.074	0	34.605	0	271.7	4	93.9	4	-1E+10	1	-1E+10	1	-1E+10	1	-1E+10	1	-1E+10	1	-1E+10	1
4902551	91	C	02/19/2023	07:02	-131.304	47.837	0	36.00	0	8.4970	0	32.2900	0	25.074	0	35.695	0	271.7	4	93.9	4	-1E+10	1	-1E+10	1	-1E+10	1	-1E+10	1	-1E+10	1	-1E+10	1
4902551	91	C	02/19/2023	07:02	-131.304	47.837	0	37.20	0	8.4970	0	32.2900	0	25.074	0	36.885	0	271.7	4	93.9	4	-1E+10	1	-1E+10	1	-1E+10	1	-1E+10	1	-1E+10	1	-1E+10	1
4902551	91	C	02/19/2023	07:02	-131.304	47.837	0	37.90	0	8.4970	0	32.2900	0	25.074	0	37.579	0	271.7	4	93.9	4	-1E+10	1	-1E+10	1	-1E+10	1	-1E+10	1	-1E+10	1	-1E+10	1
4902551	91	C	02/19/2023	07:02	-131.304	47.837	0	39.10	0	8.4980	0	32.2900	0	25.074	0	38.769	0	271.7	4	93.9	4	-1E+10	1	-1E+10	1	-1E+10	1	-1E+10	1	-1E+10	1	-1E+10	1
4902551	91	C	02/19/2023	07:02	-131.304	47.837	0	40.00	0	8.4980	0	32.2900	0	25.074	0	39.661	0	271.6	4	93.8	4	-1E+10	1	-1E+10	1	-1E+10	1	-1E+10	1	-1E+10	1	-1E+10	1
4902551	91	C	02/19/2023	07:02	-131.304	47.837	0	40.90	0	8.4970	0	32.2900	0	25.074	0	40.553	0	271.6	4	93.9	4	-1E+10	1	-1E+10	1	-1E+10	1	-1E+10	1	-1E+10	1	-1E+10	1
4902551	91	C	02/19/2023	07:02	-131.304	47.837	0	42.10	0	8.4970	0	32.2900	0	25.074	0	41.743	0	271.7	4	93.9	4	-1E+10	1	-1E+10	1	-1E+10	1	-1E+10	1	-1E+10	1	-1E+10	1
4902551	91	C	02/19/2023	07:02	-131.304	47.837	0	42.90	0	8.4970	0	32.2900	0	25.074	0	42.536	0	271.6	4	93.8	4	-1E+10	1	-1E+10	1	-1E+10	1	-1E+10	1	-1E+10	1	-1E+10	1
4902551	91	C	02/19/2023	07:02	-131.304	47.837	0	43.90	0	8.4970	0	32.2900	0	25.074	0	43.528	0	271.6	4	93.8	4	-1E+10	1	-1E+10	1	-1E+10	1	-1E+10	1	-1E+10	1	-1E+10	1
4902551	91	C	02/19/2023	07:02	-131.304	47.837	0	44.80	0	8.4980	0	32.2900	0	25.074	0	44.420	0	271.5	4	93.8	4	-1E+10	1	-1E+10	1	-1E+10	1	-1E+10	1	-1E+10	1	-1E+10	1
4902551	91	C	02/19/2023	07:02	-131.304	47.837	0	45.70	0	8.4980	0	32.2900	0	25.074	0	45.312	0	271.5	4	93.8	4	-1E+10	1	-1E+10	1	-1E+10	1	-1E+10	1	-1E+10	1	-1E+10	1
4902551	91	C	02/19/2023	07:02	-131.304	47.837	0	46.90	0	8.4980	0	32.2900	0	25.074	0	46.502	0	271.5	4	93.8	4	-1E+10	1	-1E+10	1	-1E+10	1	-1E+10	1	-1E+10	1	-1E+10	1
4902551	91	C	02/19/2023	07:02	-131.304	47.837	0	48.10	0	8.4980	0	32.2900	0	25.074	0	47.692	0	271.5	4	93.8	4	-1E+10	1	-1E+10	1	-1E+10	1	-1E+10	1	-1E+10	1	-1E+10	1
4902551	91	C	02/19/2023	07:02	-131.304	47.837	0	49.20	0	8.4990	0	32.2900	0	25.074	0	48.782	0	271.4	4	93.8	4	-1E+10	1	-1E+10	1	-1E+10	1	-1E+10	1	-1E+10	1	-1E+10	1
4902551	91	C	02/19/2023	07:02	-131.304	47.837	0	50.10	0	8.4980	0	32.2900	0	25.074	0	49.674	0	271.4	4	93.8	4	-1E+10	1	-1E+10	1	-1E+10	1	-1E+10	1	-1E+10	1	-1E+10	1
4902551	91	C	02/19/2023	07:02	-131.304	47.837	0	51.00	0	8.4990	0	32.2900	0	25.074	0	50.567	0	271.3	4	93.7	4	-1E+10	1	-1E+10	1	-1E+10	1	-1E+10	1	-1E+10	1	-1E+10	1
4902551	91	C	02/19/2023	07:02	-131.304	47.837	0	52.20	0	8.4990	0	32.2900	0	25.074	0	51.756	0	271.3	4	93.8	4	-1E+10	1	-1E+10	1	-1E+10	1	-1E+10	1	-1E+10	1	-1E+10	1
4902551	91	C	02/19/2023	07:02	-131.304	47.837	0	52.80	0	8.4990	0	32.2900	0	25.074	0	52.351	0	271.3	4	93.7	4	-1E+10	1	-1E+10	1	-1E+10	1	-1E+10	1	-1E+10	1	-1E+10	1
4902551	91	C	02/19/2023	07:02	-131.304	47.837	0	53.70	0	8.4990	0	32.2900	0	25.074	0	53.243	0	271.1	4	93.7	4	-1E+10	1	-1E+10	1	-1E+10	1	-1E+10	1	-1E+10	1	-1E+10	1
4902551	91	C	02/19/2023	07:02	-131.304	47.837	0	54.70	0	8.4990	0	32.2900	0	25.074	0	54.235	0	271.0	4	93.7	4	-1E+10	1	-1E+10	1	-1E+10	1	-1E+10	1	-1E+10	1	-1E+10	1
4902551	91	C	02/19/2023	07:02	-131.304	47.837	0	55.70	0	8.4990	0	32.2910	0	25.075	0	55.226	0	270.9	4	93.6	4	-1E+10	1	-1E+10	1	-1E+10	1	-1E+10	1	-1E+10	1	-1E+10	1
4902551	91	C	02/19/2023	07:02	-131.304	47.837	0	56.80	0	8.5000	0	32.2910	0	25.075	0	56.316	0	270.8	4	93.6	4	-1E+10	1	-1E+10	1	-1E+10	1	-1E+10	1	-1E+10	1	-1E+10	1
4902551	91	C	02/19/2023	07:02	-131.304	47.837	0	57.80	0	8.5000	0	32.2900	0	25.074	0	57.308	0	270.7	4	93.5	4	-1E+10	1	-1E+10	1	-1E+10	1	-1E+10	1	-1E+10	1	-1E+10	1
4902551	91	C	02/19/2023	07:02	-131.304	47.837	0	58.90	0	8.4990	0	32.2900	0	25.074	0	58.398	0	270.6	4	93.5	4	-1E+10	1	-1E+10	1	-1E+10	1	-1E+10	1	-1E+10	1	-1E+10	1
4902551	91	C	02/19/2023	07:02	-131.304	47.837	0	60.00	0	8.4990	0	32.2900	0	25.074	0	59.489	0	270.4	4	93.5	4	-1E+10	1	-1E+10	1	-1E+10	1	-1E+10	1	-1E+10	1	-1E+10	1
4902551	91	C	02/19/2023	07:02	-131.304	47.837	0	61.10	0	8.4910	0	32.2930	0	25.078	0	60.579	0	270.4	4	93.4	4	-1E+10	1	-1E+10	1	-1E+10	1	-1E+10	1	-1E+10	1	-1E+10	1
4902551	91	C	02/19/2023	07:02	-131.304	47.837	0	62.10	0	8.4870	0	32.2940	0	25.079	0	61.571	0	270.3	4	93.4	4	-1E+10	1	-1E+10	1	-1E+10	1	-1E+10	1	-1E+10	1	-1E+10	1
4902551	91	C	02/19/2023	07:02	-131.304	47.837	0	63.00	0	8.4870	0	32.2940	0	25.079	0	62.463	0	270.3	4	93.4	4	-1E+10	1	-1E+10	1	-1E+10	1	-1E+10	1	-1E+10	1	-1E+10	1
4902551	91	C	02/19/2023	07:02	-131.304	47.837	0	63.70	0	8.4870	0	32.2940	0	25.079	0	63.157	0	270.1	4	93.3	4	-1E+10	1	-1E+10	1	-1E+10	1	-1E+10	1	-1E+10	1	-1E+10	1
4902551	91	C	02/19/2023	07:02	-131.304	47.837	0	64.70	0	8.4870	0	32.2940	0	25.079	0	64.148	0	270.1	4	93.3	4	-1E+10	1	-1E+10	1	-1E+10	1	-1E+10	1	-1E+10	1	-1E+10	1
4902551	91	C	02/19/2023	07:02	-131.304	47.837	0	65.70	0	8.4860	0	32.2940	0	25.079	0	65.139	0	269.9	4	93.3	4	-1E+10	1	-1E+10	1	-1E+10	1	-1E+10	1	-1E+10	1	-1E+10	1
4902551	91	C	02/19/2023	07:02	-131.304	47.837	0	66.80	0	8.4860	0	32.2940	0	25.079	0	66.230	0	270.0	4	93.3	4	-1E+10	1	-1E+10	1	-1E+10	1	-1E+10	1	-1E+10	1	-1E+10	1
4902551	91	C	02/19/2023	07:02	-131.304	47.837	0	67.80	0	8.4860	0	32.2940	0	25.079	0	67.221	0	269.9	4	93.2	4	-1E+10	1	-1E+10	1	-1E+10	1	-1E+10	1	-1E+10	1	-1E+10	1
4902551	91	C	02/19/2023	07:02	-131.304	47.837	0	68.80	0	8.4860	0	32.2940	0	25.079	0	68.212	0	269.9	4	93.2	4	-1E+10	1	-1E+10	1	-1E+10	1	-1E+10	1	-1E+10	1	-1E+10	1
4902551	91	C	02/19/2023	07:02	-131.304	47.837	0	69.80	0	8.4850	0	32.2940	0	25.079	0	69.204	0	269.7	4	93.2	4	-1E+10	1	-1E+10	1	-1E+10	1	-1E+10	1	-1E+10	1	-1E+10	1
4902551	91	C	02/19/2023	07:02	-131.304	47.837	0	70.80	0	8.4850	0	32.2940	0	25.079	0	70.195	0	269.6	4	93.2	4	-1E+10	1	-1E+10	1	-1E+10	1	-1E+10	1	-1E+10	1	-1E+10	1
4902551	91	C	02/19/2023	07:02	-131.304	47.837	0	71.80	0	8.4850	0	32.2940	0	25.079	0	71.186	0	269.6	4	93.1	4	-1E+10	1	-1E+10	1	-1E+10	1	-1E+10	1	-1E+10	1	-1E+10	1
4902551	91	C	02/19/2023	07:02	-131.304	47.837	0	72.80	0	8.4850	0	32.2950	0	25.080	0	72.177	0	269.5	4	93.1	4	-1E+10	1	-1E+10	1	-1E+10	1	-1E+10	1	-1E+10	1	-1E+10	1
4902551	91	C	02/19/2023	07:02	-131.304	47.837	0	74.00	0	8.4850	0	32.2950	0	25.080	0	73.367	0	269.4	4	93.1	4	-1E+10	1	-1E+10	1	-1E+10	1	-1E+10	1	-1E+10	1	-1E+10	1
4902551	91	C	02/19/2023	07:02	-131.304	47.837	0	74.80	0	8.4850	0	32.2950	0	25.080	0	74.160	0	269.3	4	93.0	4	-1E+10	1	-1E+10	1	-1E+10	1	-1E+10	1	-1E+10	1	-1E+10	1
4902551	91	C	02/19/2023	07:02	-131.304	47.837	0	75.80	0	8.4850	0	32.2950	0	25.080	0	75.151	0	269.2	4	93.0	4	-1E+10	1	-1E+10	1	-1E+10	1	-1E+10	1	-1E+10	1	-1E+10	1
4902551	91	C	02/19/2023	07:02	-131.304	47.837	0	76.80	0	8.4850	0	32.2950	0	25.080	0	76.143	0	269.2	4	93.0	4	-1E+10	1	-1E+10	1	-1E+10	1	-1E+10	1	-1E+10	1	-1E+10	1
4902551	91	C	02/19/2023	07:02	-131.304	47.837	0	77.80	0	8.4850	0	32.2950	0	25.080	0	77.134	0	269.0	4	92.9	4	-1E+10	1	-1E+10	1	-1E+10	1	-1E+10	1	-1E+10	1	-1E+10	1
4902551	91	C	02/19/2023	07:02	-131.304	47.837	0	78.80	0	8.4850	0	32.2950	0	25.080	0	78.125	0	268.9	4	92.9	4	-1E+10	1	-1E+10	1	-1E+10	1	-1E+10	1	-1E+10	1	-1E+10	1
4902551	91	C	02/19/2023	07:02	-131.304	47.837	0	79.90	0	8.4850	0	32.2950	0	25.080	0	79.215	0	268.8	4	92.9	4	-1E+10	1	-1E+10	1	-1E+10	1	-1E+10	1	-1E+10	1	-1E+10	1
4902551	91	C	02/19/2023	07:02	-131.304	47.837	0	81.00	0	8.4850	0	32.2950	0	25.080	0	80.306	0	268.5	4	92.8	4	-1E+10	1	-1E+10	1	-1E+10	1	-1E+10	1	-1E+10	1	-1E+10	1
4902551	91	C	02/19/2023	07:02	-131.304	47.837	0	82.10	0	8.4860	0	32.2950	0	25.080	0	81.396	0	268.4	4	92.7	4	-1E+10	1	-1E+10	1	-1E+10	1	-1E+10	1	-1E+10	1	-1E+10	1
4902551	91	C	02/19/2023	07:02	-131.304	47.837	0	83.10	0	8.4860	0	32.2950	0	25.080	0	82.387	0	268.2	4	92.6	4	-1E+10	1	-1E+10	1	-1E+10	1	-1E+10	1	-1E+10	1	-1E+10	1
4902551	91	C	02/19/2023	07:02	-131.304	47.837	0	84.10	0	8.4860	0	32.2950	0	25.080	0	83.379	0	274.7	4	94.9	4	-1E+10	1	-1E+10	1	-1E+10	1	-1E+10	1	-1E+10	1	-1E+10	1
4902551	91	C	02/19/2023	07:02	-131.304	47.837	0	85.00	0	8.4870	0	32.2950	0	25.080	0	84.271	0	274.4	4	94.8	4	-1E+10	1	-1E+10	1	-1E+10	1	-1E+10	1	-1E+10	1	-1E+10	1
4902551	91	C	02/19/2023	07:02	-131.304	47.837	0	85.70	0	8.4870	0	32.2960	0	25.081	0	84.964	0	274.1	4	94.7	4	-1E+10	1	-1E+10	1	-1E+10	1	-1E+10	1	-1E+10	1	-1E+10	1
4902551	91	C	02/19/2023	07:02	-131.304	47.837	0	86.80	0	8.4870	0	32.2950	0	25.080	0	86.055	0	273.7	4	94.6	4	-1E+10	1	-1E+10	1	-1E+10	1	-1E+10	1	-1E+10	1	-1E+10	1
4902551	91	C	02/19/2023	07:02	-131.304	47.837	0	87.80	0	8.4870	0	32.2960	0	25.081	0	87.046	0	273.2	4	94.4	4	-1E+10	1	-1E+10	1	-1E+10	1	-1E+10	1	-1E+10	1	-1E+10	1
4902551	91	C	02/19/2023	07:02	-131.304	47.837	0	88.90	0	8.4860	0	32.2950	0	25.080	0	88.136	0	272.5	4	94.2	4	-1E+10	1	-1E+10	1	-1E+10	1	-1E+10	1	-1E+10	1	-1E+10	1
4902551	91	C	02/19/2023	07:02	-131.304	47.837	0	89.90	0	8.4860	0	32.2950	0	25.080	0	89.128	0	271.7	4	93.9	4	-1E+10	1	-1E+10	1	-1E+10	1	-1E+10	1	-1E+10	1	-1E+10	1
4902551	91	C	02/19/2023	07:02	-131.304	47.837	0	90.90	0	8.4840	0	32.2960	0	25.081	0	90.119	0	270.9	4	93.6	4	-1E+10	1	-1E+10	1	-1E+10	1	-1E+10	1	-1E+10	1	-1E+10	1
4902551	91	C	02/19/2023	07:02	-131.304	47.837	0	92.20	0	8.4830	0	32.2970	0	25.082	0	91.407	0	269.4	4	93.1	4	-1E+10	1	-1E+10	1	-1E+10	1	-1E+10	1	-1E+10	1	-1E+10	1
4902551	91	C	02/19/2023	07:02	-131.304	47.837	0	93.10	0	8.4830	0	32.2960	0	25.082	0	92.299	0	268.1	4	92.6	4	-1E+10	1	-1E+10	1	-1E+10	1	-1E+10	1	-1E+10	1	-1E+10	1
4902551	91	C	02/19/2023	07:02	-131.304	47.837	0	94.00	0	8.4790	0	32.2960	0	25.082	0	93.191	0	266.5	4	92.1	4	-1E+10	1	-1E+10	1	-1E+10	1	-1E+10	1	-1E+10	1	-1E+10	1
4902551	91	C	02/19/2023	07:02	-131.304	47.837	0	95.20	0	8.4690	0	32.2930	0	25.081	0	94.381	0	263.8	4	91.1	4	-1E+10	1	-1E+10	1	-1E+10	1	-1E+10	1	-1E+10	1	-1E+10	1
4902551	91	C	02/19/2023	07:02	-131.304	47.837	0	96.10	0	8.4070	0	32.3120	0	25.106	0	95.273	0	261.1	4	90.1	4	-1E+10	1	-1E+10	1	-1E+10	1	-1E+10	1	-1E+10	1	-1E+10	1
4902551	91	C	02/19/2023	07:02	-131.304	47.837	0	97.00	0	8.3310	0	32.3290	0	25.130	0	96.165	0	258.4	4	89.0	4	-1E+10	1	-1E+10	1	-1E+10	1	-1E+10	1	-1E+10	1	-1E+10	1
4902551	91	C	02/19/2023	07:02	-131.304	47.837	0	97.80	0	8.1860	0	32.3550	0	25.172	0	96.958	0	257.4	4	88.4	4	-1E+10	1	-1E+10	1	-1E+10	1	-1E+10	1	-1E+10	1	-1E+10	1
4902551	91	C	02/19/2023	07:02	-131.304	47.837	0	98.80	0	8.0360	0	32.3890	0	25.220	0	97.949	0	256.2	4	87.7	4	-1E+10	1	-1E+10	1	-1E+10	1	-1E+10	1	-1E+10	1	-1E+10	1
4902551	91	C	02/19/2023	07:02	-131.304	47.837	0	99.90	0	7.8650	0	32.4220	0	25.271	0	99.039	0	254.9	4	86.9	4	-1E+10	1	-1E+10	1	-1E+10	1	-1E+10	1	-1E+10	1	-1E+10	1
4902551	91	C	02/19/2023	07:02	-131.304	47.837	0	100.90	0	7.6260	0	32.4840	0	25.353	0	100.030	0	254.1	4	86.2	4	-1E+10	1	-1E+10	1	-1E+10	1	-1E+10	1	-1E+10	1	-1E+10	1
4902551	91	C	02/19/2023	07:02	-131.304	47.837	0	101.90	0	7.5090	0	32.5150	0	25.394	0	101.021	0	253.0	4	85.6	4	-1E+10	1	-1E+10	1	-1E+10	1	-1E+10	1	-1E+10	1	-1E+10	1
4902551	91	C	02/19/2023	07:02	-131.304	47.837	0	103.00	0	7.4050	0	32.5370	0	25.426	0	102.112	0	252.0	4	85.1	4	-1E+10	1	-1E+10	1	-1E+10	1	-1E+10	1	-1E+10	1	-1E+10	1
4902551	91	C	02/19/2023	07:02	-131.304	47.837	0	104.10	0	7.2770	0	32.5690	0	25.468	0	103.202	0	251.4	4	84.7	4	-1E+10	1	-1E+10	1	-1E+10	1	-1E+10	1	-1E+10	1	-1E+10	1
4902551	91	C	02/19/2023	07:02	-131.304	47.837	0	105.00	0	7.2030	0	32.5900	0	25.495	0	104.094	0	250.9	4	84.4	4	-1E+10	1	-1E+10	1	-1E+10	1	-1E+10	1	-1E+10	1	-1E+10	1
4902551	91	C	02/19/2023	07:02	-131.304	47.837	0	105.80	0	7.1640	0	32.5950	0	25.504	0	104.887	0	250.4	4	84.1	4	-1E+10	1	-1E+10	1	-1E+10	1	-1E+10	1	-1E+10	1	-1E+10	1
4902551	91	C	02/19/2023	07:02	-131.304	47.837	0	107.00	0	7.0720	0	32.6230	0	25.539	0	106.076	0	249.7	4	83.8	4	-1E+10	1	-1E+10	1	-1E+10	1	-1E+10	1	-1E+10	1	-1E+10	1
4902551	91	C	02/19/2023	07:02	-131.304	47.837	0	108.00	0	6.9920	0	32.6460	0	25.567	0	107.067	0	249.0	4	83.4	4	-1E+10	1	-1E+10	1	-1E+10	1	-1E+10	1	-1E+10	1	-1E+10	1
4902551	91	C	02/19/2023	07:02	-131.304	47.837	0	109.20	0	6.9240	0	32.6730	0	25.598	0	108.257	0	248.1	4	83.0	4	-1E+10	1	-1E+10	1	-1E+10	1	-1E+10	1	-1E+10	1	-1E+10	1
4902551	91	C	02/19/2023	07:02	-131.304	47.837	0	110.10	0	6.9040	0	32.6800	0	25.606	0	109.149	0	246.9	4	82.5	4	-1E+10	1	-1E+10	1	-1E+10	1	-1E+10	1	-1E+10	1	-1E+10	1
4902551	91	C	02/19/2023	07:02	-131.304	47.837	0	111.10	0	6.8570	0	32.7040	0	25.631	0	110.140	0	245.4	4	81.9	4	-1E+10	1	-1E+10	1	-1E+10	1	-1E+10	1	-1E+10	1	-1E+10	1
4902551	91	C	02/19/2023	07:02	-131.304	47.837	0	112.10	0	6.8330	0	32.7140	0	25.642	0	111.131	0	243.3	4	81.2	4	-1E+10	1	-1E+10	1	-1E+10	1	-1E+10	1	-1E+10	1	-1E+10	1
4902551	91	C	02/19/2023	07:02	-131.304	47.837	0	113.00	0	6.8090	0	32.7250	0	25.654	0	112.023	0	241.5	4	80.6	4	-1E+10	1	-1E+10	1	-1E+10	1	-1E+10	1	-1E+10	1	-1E+10	1
4902551	91	C	02/19/2023	07:02	-131.304	47.837	0	114.20	0	6.7210	0	32.7920	0	25.718	0	113.212	0	239.6	4	79.8	4	-1E+10	1	-1E+10	1	-1E+10	1	-1E+10	1	-1E+10	1	-1E+10	1
4902551	91	C	02/19/2023	07:02	-131.304	47.837	0	114.80	0	6.6850	0	32.8260	0	25.750	0	113.807	0	238.5	4	79.4	4	-1E+10	1	-1E+10	1	-1E+10	1	-1E+10	1	-1E+10	1	-1E+10	1
4902551	91	C	02/19/2023	07:02	-131.304	47.837	0	115.90	0	6.6810	0	32.8310	0	25.754	0	114.897	0	236.8	4	78.8	4	-1E+10	1	-1E+10	1	-1E+10	1	-1E+10	1	-1E+10	1	-1E+10	1
4902551	91	C	02/19/2023	07:02	-131.304	47.837	0	117.10	0	6.6810	0	32.8300	0	25.753	0	116.086	0	234.3	4	78.0	4	-1E+10	1	-1E+10	1	-1E+10	1	-1E+10	1	-1E+10	1	-1E+10	1
4902551	91	C	02/19/2023	07:02	-131.304	47.837	0	118.00	0	6.6750	0	32.8460	0	25.767	0	116.978	0	232.4	4	77.4	4	-1E+10	1	-1E+10	1	-1E+10	1	-1E+10	1	-1E+10	1	-1E+10	1
4902551	91	C	02/19/2023	07:02	-131.304	47.837	0	118.70	0	6.6560	0	32.8730	0	25.791	0	117.672	0	231.0	4	76.9	4	-1E+10	1	-1E+10	1	-1E+10	1	-1E+10	1	-1E+10	1	-1E+10	1
4902551	91	C	02/19/2023	07:02	-131.304	47.837	0	119.70	0	6.6250	0	32.9090	0	25.823	0	118.663	0	229.4	4	76.3	4	-1E+10	1	-1E+10	1	-1E+10	1	-1E+10	1	-1E+10	1	-1E+10	1
4902551	91	C	02/19/2023	07:02	-131.304	47.837	0	120.80	0	6.5990	0	32.9320	0	25.845	0	119.753	0	227.6	4	75.7	4	-1E+10	1	-1E+10	1	-1E+10	1	-1E+10	1	-1E+10	1	-1E+10	1
4902551	91	C	02/19/2023	07:02	-131.304	47.837	0	121.90	0	6.5910	0	32.9870	0	25.889	0	120.843	0	225.4	4	75.0	4	-1E+10	1	-1E+10	1	-1E+10	1	-1E+10	1	-1E+10	1	-1E+10	1
4902551	91	C	02/19/2023	07:02	-131.304	47.837	0	123.10	0	6.5760	0	33.0520	0	25.942	0	122.032	0	223.4	4	74.3	4	-1E+10	1	-1E+10	1	-1E+10	1	-1E+10	1	-1E+10	1	-1E+10	1
4902551	91	C	02/19/2023	07:02	-131.304	47.837	0	124.00	0	6.5920	0	33.0690	0	25.953	0	122.924	0	222.2	4	74.0	4	-1E+10	1	-1E+10	1	-1E+10	1	-1E+10	1	-1E+10	1	-1E+10	1
4902551	91	C	02/19/2023	07:02	-131.304	47.837	0	124.90	0	6.5720	0	33.0920	0	25.974	0	123.816	0	221.2	4	73.6	4	-1E+10	1	-1E+10	1	-1E+10	1	-1E+10	1	-1E+10	1	-1E+10	1
4902551	91	C	02/19/2023	07:02	-131.304	47.837	0	126.10	0	6.5460	0	33.1150	0	25.996	0	125.006	0	219.6	4	73.0	4	-1E+10	1	-1E+10	1	-1E+10	1	-1E+10	1	-1E+10	1	-1E+10	1
4902551	91	C	02/19/2023	07:02	-131.304	47.837	0	127.00	0	6.5370	0	33.1320	0	26.010	0	125.897	0	218.4	4	72.6	4	-1E+10	1	-1E+10	1	-1E+10	1	-1E+10	1	-1E+10	1	-1E+10	1
4902551	91	C	02/19/2023	07:02	-131.304	47.837	0	127.90	0	6.5130	0	33.1520	0	26.029	0	126.789	0	217.1	4	72.2	4	-1E+10	1	-1E+10	1	-1E+10	1	-1E+10	1	-1E+10	1	-1E+10	1
4902551	91	C	02/19/2023	07:02	-131.304	47.837	0	129.10	0	6.4930	0	33.1740	0	26.049	0	127.979	0	215.3	4	71.6	4	-1E+10	1	-1E+10	1	-1E+10	1	-1E+10	1	-1E+10	1	-1E+10	1
4902551	91	C	02/19/2023	07:02	-131.304	47.837	0	130.00	0	6.4910	0	33.1850	0	26.058	0	128.870	0	214.1	4	71.2	4	-1E+10	1	-1E+10	1	-1E+10	1	-1E+10	1	-1E+10	1	-1E+10	1
4902551	91	C	02/19/2023	07:02	-131.304	47.837	0	131.10	0	6.4880	0	33.1950	0	26.066	0	129.961	0	212.4	4	70.6	4	-1E+10	1	-1E+10	1	-1E+10	1	-1E+10	1	-1E+10	1	-1E+10	1
4902551	91	C	02/19/2023	07:02	-131.304	47.837	0	131.90	0	6.4860	0	33.2050	0	26.075	0	130.753	0	210.6	4	70.0	4	-1E+10	1	-1E+10	1	-1E+10	1	-1E+10	1	-1E+10	1	-1E+10	1
4902551	91	C	02/19/2023	07:02	-131.304	47.837	0	132.80	0	6.4810	0	33.2130	0	26.082	0	131.645	0	208.4	4	69.3	4	-1E+10	1	-1E+10	1	-1E+10	1	-1E+10	1	-1E+10	1	-1E+10	1
4902551	91	C	02/19/2023	07:02	-131.304	47.837	0	133.90	0	6.4570	0	33.2490	0	26.113	0	132.735	0	206.0	4	68.4	4	-1E+10	1	-1E+10	1	-1E+10	1	-1E+10	1	-1E+10	1	-1E+10	1
4902551	91	C	02/19/2023	07:02	-131.304	47.837	0	135.00	0	6.3950	0	33.3310	0	26.186	0	133.825	0	204.7	4	68.0	4	-1E+10	1	-1E+10	1	-1E+10	1	-1E+10	1	-1E+10	1	-1E+10	1
4902551	91	C	02/19/2023	07:02	-131.304	47.837	0	136.20	0	6.3890	0	33.3430	0	26.196	0	135.015	0	203.2	4	67.5	4	-1E+10	1	-1E+10	1	-1E+10	1	-1E+10	1	-1E+10	1	-1E+10	1
4902551	91	C	02/19/2023	07:02	-131.304	47.837	0	137.00	0	6.3770	0	33.3550	0	26.207	0	135.807	0	202.2	4	67.1	4	-1E+10	1	-1E+10	1	-1E+10	1	-1E+10	1	-1E+10	1	-1E+10	1
4902551	91	C	02/19/2023	07:02	-131.304	47.837	0	137.80	0	6.3530	0	33.3860	0	26.234	0	136.600	0	201.1	4	66.7	4	-1E+10	1	-1E+10	1	-1E+10	1	-1E+10	1	-1E+10	1	-1E+10	1
4902551	91	C	02/19/2023	07:02	-131.304	47.837	0	138.60	0	6.3520	0	33.3860	0	26.235	0	137.393	0	199.9	4	66.3	4	-1E+10	1	-1E+10	1	-1E+10	1	-1E+10	1	-1E+10	1	-1E+10	1
4902551	91	C	02/19/2023	07:02	-131.304	47.837	0	139.90	0	6.3510	0	33.3860	0	26.235	0	138.681	0	198.0	4	65.7	4	-1E+10	1	-1E+10	1	-1E+10	1	-1E+10	1	-1E+10	1	-1E+10	1
4902551	91	C	02/19/2023	07:02	-131.304	47.837	0	141.10	0	6.3480	0	33.3880	0	26.237	0	139.870	0	196.0	4	65.0	4	-1E+10	1	-1E+10	1	-1E+10	1	-1E+10	1	-1E+10	1	-1E+10	1
4902551	91	C	02/19/2023	07:02	-131.304	47.837	0	141.90	0	6.3320	0	33.4060	0	26.253	0	140.663	0	194.6	4	64.6	4	-1E+10	1	-1E+10	1	-1E+10	1	-1E+10	1	-1E+10	1	-1E+10	1
4902551	91	C	02/19/2023	07:02	-131.304	47.837	0	142.70	0	6.3190	0	33.4170	0	26.263	0	141.456	0	193.2	4	64.1	4	-1E+10	1	-1E+10	1	-1E+10	1	-1E+10	1	-1E+10	1	-1E+10	1
4902551	91	C	02/19/2023	07:02	-131.304	47.837	0	143.60	0	6.3030	0	33.4400	0	26.284	0	142.348	0	191.7	4	63.6	4	-1E+10	1	-1E+10	1	-1E+10	1	-1E+10	1	-1E+10	1	-1E+10	1
4902551	91	C	02/19/2023	07:02	-131.304	47.837	0	144.50	0	6.2920	0	33.4590	0	26.300	0	143.239	0	190.3	4	63.1	4	-1E+10	1	-1E+10	1	-1E+10	1	-1E+10	1	-1E+10	1	-1E+10	1
4902551	91	C	02/19/2023	07:02	-131.304	47.837	0	145.90	0	6.2830	0	33.4660	0	26.307	0	144.627	0	188.1	4	62.3	4	-1E+10	1	-1E+10	1	-1E+10	1	-1E+10	1	-1E+10	1	-1E+10	1
4902551	91	C	02/19/2023	07:02	-131.304	47.837	0	147.30	0	6.2610	0	33.4950	0	26.332	0	146.014	0	185.8	4	61.6	4	-1E+10	1	-1E+10	1	-1E+10	1	-1E+10	1	-1E+10	1	-1E+10	1
4902551	91	C	02/19/2023	07:02	-131.304	47.837	0	148.30	0	6.2540	0	33.5060	0	26.342	0	147.005	0	184.5	4	61.1	4	-1E+10	1	-1E+10	1	-1E+10	1	-1E+10	1	-1E+10	1	-1E+10	1
4902551	91	C	02/19/2023	07:02	-131.304	47.837	0	149.20	0	6.2350	0	33.5230	0	26.358	0	147.897	0	183.1	4	60.6	4	-1E+10	1	-1E+10	1	-1E+10	1	-1E+10	1	-1E+10	1	-1E+10	1
4902551	91	C	02/19/2023	07:02	-131.304	47.837	0	150.20	0	6.2270	0	33.5310	0	26.365	0	148.888	0	181.9	4	60.2	4	-1E+10	1	-1E+10	1	-1E+10	1	-1E+10	1	-1E+10	1	-1E+10	1
4902551	91	C	02/19/2023	07:02	-131.304	47.837	0	151.10	0	6.2240	0	33.5310	0	26.366	0	149.779	0	180.4	4	59.8	4	-1E+10	1	-1E+10	1	-1E+10	1	-1E+10	1	-1E+10	1	-1E+10	1
4902551	91	C	02/19/2023	07:02	-131.304	47.837	0	152.10	0	6.2140	0	33.5370	0	26.372	0	150.770	0	179.0	4	59.3	4	-1E+10	1	-1E+10	1	-1E+10	1	-1E+10	1	-1E+10	1	-1E+10	1
4902551	91	C	02/19/2023	07:02	-131.304	47.837	0	153.00	0	6.1970	0	33.5490	0	26.383	0	151.662	0	177.5	4	58.8	4	-1E+10	1	-1E+10	1	-1E+10	1	-1E+10	1	-1E+10	1	-1E+10	1
4902551	91	C	02/19/2023	07:02	-131.304	47.837	0	154.00	0	6.1560	0	33.5790	0	26.412	0	152.653	0	176.2	4	58.3	4	-1E+10	1	-1E+10	1	-1E+10	1	-1E+10	1	-1E+10	1	-1E+10	1
4902551	91	C	02/19/2023	07:02	-131.304	47.837	0	155.00	0	6.1290	0	33.5970	0	26.430	0	153.644	0	175.6	4	58.0	4	-1E+10	1	-1E+10	1	-1E+10	1	-1E+10	1	-1E+10	1	-1E+10	1
4902551	91	C	02/19/2023	07:02	-131.304	47.837	0	156.10	0	6.1050	0	33.6110	0	26.444	0	154.734	0	174.9	4	57.8	4	-1E+10	1	-1E+10	1	-1E+10	1	-1E+10	1	-1E+10	1	-1E+10	1
4902551	91	C	02/19/2023	07:02	-131.304	47.837	0	157.20	0	6.0980	0	33.6140	0	26.447	0	155.824	0	174.5	4	57.6	4	-1E+10	1	-1E+10	1	-1E+10	1	-1E+10	1	-1E+10	1	-1E+10	1
4902551	91	C	02/19/2023	07:02	-131.304	47.837	0	158.20	0	6.0970	0	33.6150	0	26.448	0	156.815	0	173.9	4	57.4	4	-1E+10	1	-1E+10	1	-1E+10	1	-1E+10	1	-1E+10	1	-1E+10	1
4902551	91	C	02/19/2023	07:02	-131.304	47.837	0	159.30	0	6.0970	0	33.6140	0	26.447	0	157.905	0	173.2	4	57.2	4	-1E+10	1	-1E+10	1	-1E+10	1	-1E+10	1	-1E+10	1	-1E+10	1
4902551	91	C	02/19/2023	07:02	-131.304	47.837	0	160.30	0	6.0960	0	33.6140	0	26.447	0	158.896	0	172.5	4	57.0	4	-1E+10	1	-1E+10	1	-1E+10	1	-1E+10	1	-1E+10	1	-1E+10	1
4902551	91	C	02/19/2023	07:02	-131.304	47.837	0	161.30	0	6.0930	0	33.6160	0	26.449	0	159.886	0	171.8	4	56.8	4	-1E+10	1	-1E+10	1	-1E+10	1	-1E+10	1	-1E+10	1	-1E+10	1
4902551	91	C	02/19/2023	07:02	-131.304	47.837	0	162.30	0	6.0920	0	33.6150	0	26.449	0	160.877	0	171.0	4	56.5	4	-1E+10	1	-1E+10	1	-1E+10	1	-1E+10	1	-1E+10	1	-1E+10	1
4902551	91	C	02/19/2023	07:02	-131.304	47.837	0	163.30	0	6.0880	0	33.6160	0	26.450	0	161.868	0	170.1	4	56.2	4	-1E+10	1	-1E+10	1	-1E+10	1	-1E+10	1	-1E+10	1	-1E+10	1
4902551	91	C	02/19/2023	07:02	-131.304	47.837	0	164.40	0	6.0670	0	33.6270	0	26.461	0	162.958	0	169.4	4	55.9	4	-1E+10	1	-1E+10	1	-1E+10	1	-1E+10	1	-1E+10	1	-1E+10	1
4902551	91	C	02/19/2023	07:02	-131.304	47.837	0	165.40	0	6.0440	0	33.6400	0	26.474	0	163.949	0	168.7	4	55.7	4	-1E+10	1	-1E+10	1	-1E+10	1	-1E+10	1	-1E+10	1	-1E+10	1
4902551	91	C	02/19/2023	07:02	-131.304	47.837	0	166.50	0	6.0270	0	33.6500	0	26.484	0	165.039	0	168.2	4	55.5	4	-1E+10	1	-1E+10	1	-1E+10	1	-1E+10	1	-1E+10	1	-1E+10	1
4902551	91	C	02/19/2023	07:02	-131.304	47.837	0	167.60	0	6.0260	0	33.6500	0	26.485	0	166.129	0	167.6	4	55.3	4	-1E+10	1	-1E+10	1	-1E+10	1	-1E+10	1	-1E+10	1	-1E+10	1
4902551	91	C	02/19/2023	07:02	-131.304	47.837	0	168.60	0	6.0260	0	33.6500	0	26.485	0	167.119	0	167.0	4	55.1	4	-1E+10	1	-1E+10	1	-1E+10	1	-1E+10	1	-1E+10	1	-1E+10	1
4902551	91	C	02/19/2023	07:02	-131.304	47.837	0	169.60	0	6.0150	0	33.6550	0	26.490	0	168.110	0	166.3	4	54.9	4	-1E+10	1	-1E+10	1	-1E+10	1	-1E+10	1	-1E+10	1	-1E+10	1
4902551	91	C	02/19/2023	07:02	-131.304	47.837	0	170.70	0	6.0110	0	33.6570	0	26.492	0	169.200	0	165.6	4	54.6	4	-1E+10	1	-1E+10	1	-1E+10	1	-1E+10	1	-1E+10	1	-1E+10	1
4902551	91	C	02/19/2023	07:02	-131.304	47.837	0	171.70	0	6.0110	0	33.6560	0	26.491	0	170.191	0	164.9	4	54.4	4	-1E+10	1	-1E+10	1	-1E+10	1	-1E+10	1	-1E+10	1	-1E+10	1
4902551	91	C	02/19/2023	07:02	-131.304	47.837	0	172.70	0	6.0100	0	33.6550	0	26.491	0	171.182	0	164.0	4	54.1	4	-1E+10	1	-1E+10	1	-1E+10	1	-1E+10	1	-1E+10	1	-1E+10	1
4902551	91	C	02/19/2023	07:02	-131.304	47.837	0	173.70	0	6.0030	0	33.6580	0	26.494	0	172.173	0	163.0	4	53.8	4	-1E+10	1	-1E+10	1	-1E+10	1	-1E+10	1	-1E+10	1	-1E+10	1
4902551	91	C	02/19/2023	07:02	-131.304	47.837	0	174.80	0	5.9960	0	33.6590	0	26.496	0	173.262	0	162.0	4	53.4	4	-1E+10	1	-1E+10	1	-1E+10	1	-1E+10	1	-1E+10	1	-1E+10	1
4902551	91	C	02/19/2023	07:02	-131.304	47.837	0	175.80	0	5.9840	0	33.6640	0	26.501	0	174.253	0	161.0	4	53.1	4	-1E+10	1	-1E+10	1	-1E+10	1	-1E+10	1	-1E+10	1	-1E+10	1
4902551	91	C	02/19/2023	07:02	-131.304	47.837	0	176.80	0	5.9720	0	33.6670	0	26.505	0	175.244	0	159.9	4	52.7	4	-1E+10	1	-1E+10	1	-1E+10	1	-1E+10	1	-1E+10	1	-1E+10	1
4902551	91	C	02/19/2023	07:02	-131.304	47.837	0	177.80	0	5.9580	0	33.6730	0	26.511	0	176.235	0	158.9	4	52.4	4	-1E+10	1	-1E+10	1	-1E+10	1	-1E+10	1	-1E+10	1	-1E+10	1
4902551	91	C	02/19/2023	07:02	-131.304	47.837	0	178.80	0	5.9510	0	33.6740	0	26.513	0	177.225	0	157.8	4	52.0	4	-1E+10	1	-1E+10	1	-1E+10	1	-1E+10	1	-1E+10	1	-1E+10	1
4902551	91	C	02/19/2023	07:02	-131.304	47.837	0	179.80	0	5.9460	0	33.6740	0	26.514	0	178.216	0	156.6	4	51.6	4	-1E+10	1	-1E+10	1	-1E+10	1	-1E+10	1	-1E+10	1	-1E+10	1
4902551	91	C	02/19/2023	07:02	-131.304	47.837	0	180.90	0	5.9330	0	33.6770	0	26.518	0	179.306	0	155.4	4	51.2	4	-1E+10	1	-1E+10	1	-1E+10	1	-1E+10	1	-1E+10	1	-1E+10	1
4902551	91	C	02/19/2023	07:02	-131.304	47.837	0	181.90	0	5.8980	0	33.6880	0	26.531	0	180.297	0	154.2	4	50.8	4	-1E+10	1	-1E+10	1	-1E+10	1	-1E+10	1	-1E+10	1	-1E+10	1
4902551	91	C	02/19/2023	07:02	-131.304	47.837	0	182.90	0	5.8780	0	33.6940	0	26.538	0	181.288	0	153.3	4	50.4	4	-1E+10	1	-1E+10	1	-1E+10	1	-1E+10	1	-1E+10	1	-1E+10	1
4902551	91	C	02/19/2023	07:02	-131.304	47.837	0	183.90	0	5.8680	0	33.6950	0	26.540	0	182.278	0	152.2	4	50.1	4	-1E+10	1	-1E+10	1	-1E+10	1	-1E+10	1	-1E+10	1	-1E+10	1
4902551	91	C	02/19/2023	07:02	-131.304	47.837	0	184.90	0	5.8460	0	33.6990	0	26.546	0	183.269	0	151.2	4	49.7	4	-1E+10	1	-1E+10	1	-1E+10	1	-1E+10	1	-1E+10	1	-1E+10	1
4902551	91	C	02/19/2023	07:02	-131.304	47.837	0	185.90	0	5.8050	0	33.7070	0	26.557	0	184.260	0	150.4	4	49.4	4	-1E+10	1	-1E+10	1	-1E+10	1	-1E+10	1	-1E+10	1	-1E+10	1
4902551	91	C	02/19/2023	07:02	-131.304	47.837	0	186.90	0	5.7850	0	33.7110	0	26.563	0	185.251	0	149.7	4	49.1	4	-1E+10	1	-1E+10	1	-1E+10	1	-1E+10	1	-1E+10	1	-1E+10	1
4902551	91	C	02/19/2023	07:02	-131.304	47.837	0	188.00	0	5.7450	0	33.7210	0	26.576	0	186.340	0	148.9	4	48.8	4	-1E+10	1	-1E+10	1	-1E+10	1	-1E+10	1	-1E+10	1	-1E+10	1
4902551	91	C	02/19/2023	07:02	-131.304	47.837	0	188.80	0	5.7430	0	33.7200	0	26.575	0	187.133	0	148.4	4	48.7	4	-1E+10	1	-1E+10	1	-1E+10	1	-1E+10	1	-1E+10	1	-1E+10	1
4902551	91	C	02/19/2023	07:02	-131.304	47.837	0	189.90	0	5.7290	0	33.7220	0	26.578	0	188.223	0	147.4	4	48.3	4	-1E+10	1	-1E+10	1	-1E+10	1	-1E+10	1	-1E+10	1	-1E+10	1
4902551	91	C	02/19/2023	07:02	-131.304	47.837	0	191.10	0	5.7250	0	33.7220	0	26.579	0	189.412	0	146.4	4	48.0	4	-1E+10	1	-1E+10	1	-1E+10	1	-1E+10	1	-1E+10	1	-1E+10	1
4902551	91	C	02/19/2023	07:02	-131.304	47.837	0	191.90	0	5.7110	0	33.7250	0	26.583	0	190.204	0	145.6	4	47.7	4	-1E+10	1	-1E+10	1	-1E+10	1	-1E+10	1	-1E+10	1	-1E+10	1
4902551	91	C	02/19/2023	07:02	-131.304	47.837	0	193.00	0	5.7020	0	33.7250	0	26.584	0	191.294	0	144.5	4	47.3	4	-1E+10	1	-1E+10	1	-1E+10	1	-1E+10	1	-1E+10	1	-1E+10	1
4902551	91	C	02/19/2023	07:02	-131.304	47.837	0	194.20	0	5.6950	0	33.7260	0	26.586	0	192.483	0	143.2	4	46.9	4	-1E+10	1	-1E+10	1	-1E+10	1	-1E+10	1	-1E+10	1	-1E+10	1
4902551	91	C	02/19/2023	07:02	-131.304	47.837	0	195.00	0	5.6830	0	33.7290	0	26.589	0	193.275	0	142.3	4	46.6	4	-1E+10	1	-1E+10	1	-1E+10	1	-1E+10	1	-1E+10	1	-1E+10	1
4902551	91	C	02/19/2023	07:02	-131.304	47.837	0	195.80	0	5.6690	0	33.7330	0	26.594	0	194.068	0	141.3	4	46.3	4	-1E+10	1	-1E+10	1	-1E+10	1	-1E+10	1	-1E+10	1	-1E+10	1
4902551	91	C	02/19/2023	07:02	-131.304	47.837	0	197.00	0	5.6740	0	33.7340	0	26.595	0	195.257	0	140.3	4	45.9	4	-1E+10	1	-1E+10	1	-1E+10	1	-1E+10	1	-1E+10	1	-1E+10	1
4902551	91	C	02/19/2023	07:02	-131.304	47.837	0	198.20	0	5.6670	0	33.7340	0	26.595	0	196.445	0	139.2	4	45.6	4	-1E+10	1	-1E+10	1	-1E+10	1	-1E+10	1	-1E+10	1	-1E+10	1
4902551	91	C	02/19/2023	07:02	-131.304	47.837	0	199.10	0	5.6350	0	33.7380	0	26.602	0	197.337	0	138.5	4	45.3	4	-1E+10	1	-1E+10	1	-1E+10	1	-1E+10	1	-1E+10	1	-1E+10	1
4902551	91	C	02/19/2023	07:02	-131.304	47.837	0	199.90	0	5.5970	0	33.7420	0	26.610	0	198.130	0	137.9	4	45.1	4	-1E+10	1	-1E+10	1	-1E+10	1	-1E+10	1	-1E+10	1	-1E+10	1
4902551	91	C	02/19/2023	07:02	-131.304	47.837	0	200.70	0	5.6000	0	33.7430	0	26.611	0	198.922	0	137.3	4	44.9	4	-1E+10	1	-1E+10	1	-1E+10	1	-1E+10	1	-1E+10	1	-1E+10	1
4902551	91	C	02/19/2023	07:02	-131.304	47.837	0	202.00	0	5.5920	0	33.7420	0	26.611	0	200.210	0	136.3	4	44.5	4	-1E+10	1	-1E+10	1	-1E+10	1	-1E+10	1	-1E+10	1	-1E+10	1
4902551	91	C	02/19/2023	07:02	-131.304	47.837	0	203.30	0	5.5710	0	33.7420	0	26.613	0	201.498	0	135.2	4	44.2	4	-1E+10	1	-1E+10	1	-1E+10	1	-1E+10	1	-1E+10	1	-1E+10	1
4902551	91	C	02/19/2023	07:02	-131.304	47.837	0	204.20	0	5.5630	0	33.7430	0	26.615	0	202.389	0	134.5	4	43.9	4	-1E+10	1	-1E+10	1	-1E+10	1	-1E+10	1	-1E+10	1	-1E+10	1
4902551	91	C	02/19/2023	07:02	-131.304	47.837	0	205.00	0	5.5530	0	33.7430	0	26.616	0	203.182	0	133.8	4	43.7	4	-1E+10	1	-1E+10	1	-1E+10	1	-1E+10	1	-1E+10	1	-1E+10	1
4902551	91	C	02/19/2023	07:02	-131.304	47.837	0	205.90	0	5.5350	0	33.7450	0	26.620	0	204.073	0	133.1	4	43.4	4	-1E+10	1	-1E+10	1	-1E+10	1	-1E+10	1	-1E+10	1	-1E+10	1
4902551	91	C	02/19/2023	07:02	-131.304	47.837	0	206.80	0	5.5160	0	33.7460	0	26.623	0	204.965	0	132.5	4	43.2	4	-1E+10	1	-1E+10	1	-1E+10	1	-1E+10	1	-1E+10	1	-1E+10	1
4902551	91	C	02/19/2023	07:02	-131.304	47.837	0	207.70	0	5.4880	0	33.7450	0	26.626	0	205.857	0	131.9	4	43.0	4	-1E+10	1	-1E+10	1	-1E+10	1	-1E+10	1	-1E+10	1	-1E+10	1
4902551	91	C	02/19/2023	07:02	-131.304	47.837	0	208.60	0	5.4560	0	33.7460	0	26.630	0	206.748	0	131.2	4	42.8	4	-1E+10	1	-1E+10	1	-1E+10	1	-1E+10	1	-1E+10	1	-1E+10	1
4902551	91	C	02/19/2023	07:02	-131.304	47.837	0	209.90	0	5.4340	0	33.7500	0	26.636	0	208.036	0	130.2	4	42.4	4	-1E+10	1	-1E+10	1	-1E+10	1	-1E+10	1	-1E+10	1	-1E+10	1
4902551	91	C	02/19/2023	07:02	-131.304	47.837	0	211.30	0	5.4290	0	33.7510	0	26.637	0	209.423	0	129.1	4	42.1	4	-1E+10	1	-1E+10	1	-1E+10	1	-1E+10	1	-1E+10	1	-1E+10	1
4902551	91	C	02/19/2023	07:02	-131.304	47.837	0	212.20	0	5.4240	0	33.7540	0	26.640	0	210.314	0	128.5	4	41.8	4	-1E+10	1	-1E+10	1	-1E+10	1	-1E+10	1	-1E+10	1	-1E+10	1
4902551	91	C	02/19/2023	07:02	-131.304	47.837	0	213.10	0	5.4130	0	33.7560	0	26.643	0	211.206	0	127.9	4	41.6	4	-1E+10	1	-1E+10	1	-1E+10	1	-1E+10	1	-1E+10	1	-1E+10	1
4902551	91	C	02/19/2023	07:02	-131.304	47.837	0	213.90	0	5.3990	0	33.7570	0	26.646	0	211.998	0	127.5	4	41.5	4	-1E+10	1	-1E+10	1	-1E+10	1	-1E+10	1	-1E+10	1	-1E+10	1
4902551	91	C	02/19/2023	07:02	-131.304	47.837	0	214.90	0	5.3840	0	33.7590	0	26.649	0	212.989	0	127.0	4	41.3	4	-1E+10	1	-1E+10	1	-1E+10	1	-1E+10	1	-1E+10	1	-1E+10	1
4902551	91	C	02/19/2023	07:02	-131.304	47.837	0	215.80	0	5.3800	0	33.7590	0	26.650	0	213.881	0	126.5	4	41.1	4	-1E+10	1	-1E+10	1	-1E+10	1	-1E+10	1	-1E+10	1	-1E+10	1
4902551	91	C	02/19/2023	07:02	-131.304	47.837	0	216.70	0	5.3730	0	33.7610	0	26.652	0	214.772	0	126.1	4	41.0	4	-1E+10	1	-1E+10	1	-1E+10	1	-1E+10	1	-1E+10	1	-1E+10	1
4902551	91	C	02/19/2023	07:02	-131.304	47.837	0	217.60	0	5.3700	0	33.7620	0	26.653	0	215.664	0	125.6	4	40.9	4	-1E+10	1	-1E+10	1	-1E+10	1	-1E+10	1	-1E+10	1	-1E+10	1
4902551	91	C	02/19/2023	07:02	-131.304	47.837	0	218.90	0	5.3660	0	33.7610	0	26.653	0	216.951	0	124.9	4	40.6	4	-1E+10	1	-1E+10	1	-1E+10	1	-1E+10	1	-1E+10	1	-1E+10	1
4902551	91	C	02/19/2023	07:02	-131.304	47.837	0	220.20	0	5.3620	0	33.7620	0	26.654	0	218.239	0	124.1	4	40.3	4	-1E+10	1	-1E+10	1	-1E+10	1	-1E+10	1	-1E+10	1	-1E+10	1
4902551	91	C	02/19/2023	07:02	-131.304	47.837	0	221.10	0	5.3600	0	33.7610	0	26.654	0	219.131	0	123.5	4	40.1	4	-1E+10	1	-1E+10	1	-1E+10	1	-1E+10	1	-1E+10	1	-1E+10	1
4902551	91	C	02/19/2023	07:02	-131.304	47.837	0	222.00	0	5.3540	0	33.7610	0	26.654	0	220.022	0	122.8	4	39.9	4	-1E+10	1	-1E+10	1	-1E+10	1	-1E+10	1	-1E+10	1	-1E+10	1
4902551	91	C	02/19/2023	07:02	-131.304	47.837	0	222.90	0	5.3450	0	33.7590	0	26.654	0	220.914	0	122.2	4	39.7	4	-1E+10	1	-1E+10	1	-1E+10	1	-1E+10	1	-1E+10	1	-1E+10	1
4902551	91	C	02/19/2023	07:02	-131.304	47.837	0	223.70	0	5.3260	0	33.7600	0	26.657	0	221.706	0	121.6	4	39.5	4	-1E+10	1	-1E+10	1	-1E+10	1	-1E+10	1	-1E+10	1	-1E+10	1
4902551	91	C	02/19/2023	07:02	-131.304	47.837	0	224.60	0	5.3040	0	33.7620	0	26.661	0	222.598	0	121.0	4	39.3	4	-1E+10	1	-1E+10	1	-1E+10	1	-1E+10	1	-1E+10	1	-1E+10	1
4902551	91	C	02/19/2023	07:02	-131.304	47.837	0	225.90	0	5.2780	0	33.7620	0	26.664	0	223.885	0	120.1	4	39.0	4	-1E+10	1	-1E+10	1	-1E+10	1	-1E+10	1	-1E+10	1	-1E+10	1
4902551	91	C	02/19/2023	07:02	-131.304	47.837	0	227.20	0	5.2610	0	33.7620	0	26.666	0	225.173	0	119.3	4	38.7	4	-1E+10	1	-1E+10	1	-1E+10	1	-1E+10	1	-1E+10	1	-1E+10	1
4902551	91	C	02/19/2023	07:02	-131.304	47.837	0	228.10	0	5.2130	0	33.7650	0	26.674	0	226.064	0	118.8	4	38.5	4	-1E+10	1	-1E+10	1	-1E+10	1	-1E+10	1	-1E+10	1	-1E+10	1
4902551	91	C	02/19/2023	07:02	-131.304	47.837	0	229.00	0	5.2060	0	33.7650	0	26.675	0	226.956	0	118.2	4	38.3	4	-1E+10	1	-1E+10	1	-1E+10	1	-1E+10	1	-1E+10	1	-1E+10	1
4902551	91	C	02/19/2023	07:02	-131.304	47.837	0	229.90	0	5.2140	0	33.7640	0	26.673	0	227.847	0	117.6	4	38.1	4	-1E+10	1	-1E+10	1	-1E+10	1	-1E+10	1	-1E+10	1	-1E+10	1
4902551	91	C	02/19/2023	07:02	-131.304	47.837	0	230.80	0	5.2090	0	33.7640	0	26.674	0	228.739	0	116.9	4	37.9	4	-1E+10	1	-1E+10	1	-1E+10	1	-1E+10	1	-1E+10	1	-1E+10	1
4902551	91	C	02/19/2023	07:02	-131.304	47.837	0	231.70	0	5.1870	0	33.7630	0	26.675	0	229.630	0	116.2	4	37.6	4	-1E+10	1	-1E+10	1	-1E+10	1	-1E+10	1	-1E+10	1	-1E+10	1
4902551	91	C	02/19/2023	07:02	-131.304	47.837	0	232.90	0	5.1500	0	33.7640	0	26.680	0	230.819	0	115.1	4	37.2	4	-1E+10	1	-1E+10	1	-1E+10	1	-1E+10	1	-1E+10	1	-1E+10	1
4902551	91	C	02/19/2023	07:02	-131.304	47.837	0	234.30	0	5.1260	0	33.7690	0	26.687	0	232.206	0	114.0	4	36.9	4	-1E+10	1	-1E+10	1	-1E+10	1	-1E+10	1	-1E+10	1	-1E+10	1
4902551	91	C	02/19/2023	07:02	-131.304	47.837	0	235.20	0	5.1190	0	33.7690	0	26.688	0	233.097	0	113.4	4	36.7	4	-1E+10	1	-1E+10	1	-1E+10	1	-1E+10	1	-1E+10	1	-1E+10	1
4902551	91	C	02/19/2023	07:02	-131.304	47.837	0	236.00	0	5.1090	0	33.7720	0	26.691	0	233.889	0	112.8	4	36.5	4	-1E+10	1	-1E+10	1	-1E+10	1	-1E+10	1	-1E+10	1	-1E+10	1
4902551	91	C	02/19/2023	07:02	-131.304	47.837	0	237.00	0	5.1020	0	33.7740	0	26.694	0	234.880	0	112.2	4	36.3	4	-1E+10	1	-1E+10	1	-1E+10	1	-1E+10	1	-1E+10	1	-1E+10	1
4902551	91	C	02/19/2023	07:02	-131.304	47.837	0	237.80	0	5.0970	0	33.7750	0	26.695	0	235.672	0	111.6	4	36.1	4	-1E+10	1	-1E+10	1	-1E+10	1	-1E+10	1	-1E+10	1	-1E+10	1
4902551	91	C	02/19/2023	07:02	-131.304	47.837	0	238.70	0	5.0890	0	33.7760	0	26.697	0	236.564	0	111.1	4	35.9	4	-1E+10	1	-1E+10	1	-1E+10	1	-1E+10	1	-1E+10	1	-1E+10	1
4902551	91	C	02/19/2023	07:02	-131.304	47.837	0	239.70	0	5.0830	0	33.7770	0	26.698	0	237.554	0	110.5	4	35.7	4	-1E+10	1	-1E+10	1	-1E+10	1	-1E+10	1	-1E+10	1	-1E+10	1
4902551	91	C	02/19/2023	07:02	-131.304	47.837	0	240.60	0	5.0760	0	33.7780	0	26.700	0	238.446	0	109.9	4	35.5	4	-1E+10	1	-1E+10	1	-1E+10	1	-1E+10	1	-1E+10	1	-1E+10	1
4902551	91	C	02/19/2023	07:02	-131.304	47.837	0	241.90	0	5.0680	0	33.7780	0	26.701	0	239.733	0	108.9	4	35.2	4	-1E+10	1	-1E+10	1	-1E+10	1	-1E+10	1	-1E+10	1	-1E+10	1
4902551	91	C	02/19/2023	07:02	-131.304	47.837	0	243.30	0	5.0590	0	33.7770	0	26.701	0	241.120	0	107.9	4	34.8	4	-1E+10	1	-1E+10	1	-1E+10	1	-1E+10	1	-1E+10	1	-1E+10	1
4902551	91	C	02/19/2023	07:02	-131.304	47.837	0	244.20	0	5.0460	0	33.7780	0	26.703	0	242.011	0	107.3	4	34.6	4	-1E+10	1	-1E+10	1	-1E+10	1	-1E+10	1	-1E+10	1	-1E+10	1
4902551	91	C	02/19/2023	07:02	-131.304	47.837	0	245.20	0	5.0220	0	33.7800	0	26.708	0	243.002	0	106.7	4	34.4	4	-1E+10	1	-1E+10	1	-1E+10	1	-1E+10	1	-1E+10	1	-1E+10	1
4902551	91	C	02/19/2023	07:02	-131.304	47.837	0	246.10	0	5.0100	0	33.7820	0	26.711	0	243.893	0	106.1	4	34.2	4	-1E+10	1	-1E+10	1	-1E+10	1	-1E+10	1	-1E+10	1	-1E+10	1
4902551	91	C	02/19/2023	07:02	-131.304	47.837	0	247.00	0	5.0040	0	33.7810	0	26.711	0	244.785	0	105.5	4	34.0	4	-1E+10	1	-1E+10	1	-1E+10	1	-1E+10	1	-1E+10	1	-1E+10	1
4902551	91	C	02/19/2023	07:02	-131.304	47.837	0	247.90	0	4.9830	0	33.7840	0	26.715	0	245.676	0	105.0	4	33.8	4	-1E+10	1	-1E+10	1	-1E+10	1	-1E+10	1	-1E+10	1	-1E+10	1
4902551	91	C	02/19/2023	07:02	-131.304	47.837	0	248.90	0	4.9690	0	33.7850	0	26.718	0	246.666	0	104.4	4	33.6	4	-1E+10	1	-1E+10	1	-1E+10	1	-1E+10	1	-1E+10	1	-1E+10	1
4902551	91	C	02/19/2023	07:02	-131.304	47.837	0	249.80	0	4.9640	0	33.7850	0	26.718	0	247.558	0	104.0	4	33.5	4	-1E+10	1	-1E+10	1	-1E+10	1	-1E+10	1	-1E+10	1	-1E+10	1
4902551	91	C	02/19/2023	07:02	-131.304	47.837	0	250.70	0	4.9420	0	33.7880	0	26.723	0	248.449	0	103.6	4	33.3	4	-1E+10	1	-1E+10	1	-1E+10	1	-1E+10	1	-1E+10	1	-1E+10	1
4902551	91	C	02/19/2023	07:02	-131.304	47.837	0	251.70	0	4.9380	0	33.7890	0	26.724	0	249.440	0	103.2	4	33.2	4	-1E+10	1	-1E+10	1	-1E+10	1	-1E+10	1	-1E+10	1	-1E+10	1
4902551	91	C	02/19/2023	07:02	-131.304	47.837	0	252.60	0	4.9360	0	33.7880	0	26.724	0	250.331	0	102.7	4	33.1	4	-1E+10	1	-1E+10	1	-1E+10	1	-1E+10	1	-1E+10	1	-1E+10	1
4902551	91	C	02/19/2023	07:02	-131.304	47.837	0	253.60	0	4.9310	0	33.7880	0	26.724	0	251.321	0	102.1	4	32.9	4	-1E+10	1	-1E+10	1	-1E+10	1	-1E+10	1	-1E+10	1	-1E+10	1
4902551	91	C	02/19/2023	07:02	-131.304	47.837	0	254.60	0	4.9280	0	33.7870	0	26.724	0	252.312	0	101.6	4	32.7	4	-1E+10	1	-1E+10	1	-1E+10	1	-1E+10	1	-1E+10	1	-1E+10	1
4902551	91	C	02/19/2023	07:02	-131.304	47.837	0	255.50	0	4.9180	0	33.7880	0	26.726	0	253.203	0	101.0	4	32.5	4	-1E+10	1	-1E+10	1	-1E+10	1	-1E+10	1	-1E+10	1	-1E+10	1
4902551	91	C	02/19/2023	07:02	-131.304	47.837	0	256.50	0	4.9010	0	33.7890	0	26.729	0	254.194	0	100.5	4	32.3	4	-1E+10	1	-1E+10	1	-1E+10	1	-1E+10	1	-1E+10	1	-1E+10	1
4902551	91	C	02/19/2023	07:02	-131.304	47.837	0	257.50	0	4.8720	0	33.7940	0	26.736	0	255.184	0	100.1	4	32.2	4	-1E+10	1	-1E+10	1	-1E+10	1	-1E+10	1	-1E+10	1	-1E+10	1
4902551	91	C	02/19/2023	07:02	-131.304	47.837	0	258.90	0	4.8530	0	33.7960	0	26.740	0	256.570	0	99.7	4	32.0	4	-1E+10	1	-1E+10	1	-1E+10	1	-1E+10	1	-1E+10	1	-1E+10	1
4902551	91	C	02/19/2023	07:02	-131.304	47.837	0	260.40	0	4.8510	0	33.7950	0	26.739	0	258.056	0	99.3	4	31.9	4	-1E+10	1	-1E+10	1	-1E+10	1	-1E+10	1	-1E+10	1	-1E+10	1
4902551	91	C	02/19/2023	07:02	-131.304	47.837	0	261.40	0	4.8470	0	33.7940	0	26.739	0	259.046	0	98.9	4	31.8	4	-1E+10	1	-1E+10	1	-1E+10	1	-1E+10	1	-1E+10	1	-1E+10	1
4902551	91	C	02/19/2023	07:02	-131.304	47.837	0	262.40	0	4.8350	0	33.7950	0	26.741	0	260.037	0	98.6	4	31.7	4	-1E+10	1	-1E+10	1	-1E+10	1	-1E+10	1	-1E+10	1	-1E+10	1
4902551	91	C	02/19/2023	07:02	-131.304	47.837	0	263.40	0	4.8250	0	33.7950	0	26.742	0	261.027	0	98.2	4	31.5	4	-1E+10	1	-1E+10	1	-1E+10	1	-1E+10	1	-1E+10	1	-1E+10	1
4902551	91	C	02/19/2023	07:02	-131.304	47.837	0	264.40	0	4.8140	0	33.7970	0	26.745	0	262.017	0	97.9	4	31.4	4	-1E+10	1	-1E+10	1	-1E+10	1	-1E+10	1	-1E+10	1	-1E+10	1
4902551	91	C	02/19/2023	07:02	-131.304	47.837	0	265.40	0	4.8120	0	33.7970	0	26.745	0	263.008	0	97.5	4	31.3	4	-1E+10	1	-1E+10	1	-1E+10	1	-1E+10	1	-1E+10	1	-1E+10	1
4902551	91	C	02/19/2023	07:02	-131.304	47.837	0	266.30	0	4.8110	0	33.7970	0	26.745	0	263.899	0	97.0	4	31.1	4	-1E+10	1	-1E+10	1	-1E+10	1	-1E+10	1	-1E+10	1	-1E+10	1
4902551	91	C	02/19/2023	07:02	-131.304	47.837	0	267.30	0	4.8090	0	33.7970	0	26.745	0	264.889	0	96.6	4	31.0	4	-1E+10	1	-1E+10	1	-1E+10	1	-1E+10	1	-1E+10	1	-1E+10	1
4902551	91	C	02/19/2023	07:02	-131.304	47.837	0	268.40	0	4.8080	0	33.7960	0	26.745	0	265.979	0	96.0	4	30.8	4	-1E+10	1	-1E+10	1	-1E+10	1	-1E+10	1	-1E+10	1	-1E+10	1
4902551	91	C	02/19/2023	07:02	-131.304	47.837	0	269.40	0	4.8040	0	33.7950	0	26.744	0	266.969	0	95.5	4	30.6	4	-1E+10	1	-1E+10	1	-1E+10	1	-1E+10	1	-1E+10	1	-1E+10	1
4902551	91	C	02/19/2023	07:02	-131.304	47.837	0	270.40	0	4.7860	0	33.7990	0	26.750	0	267.960	0	95.0	4	30.5	4	-1E+10	1	-1E+10	1	-1E+10	1	-1E+10	1	-1E+10	1	-1E+10	1
4902551	91	C	02/19/2023	07:02	-131.304	47.837	0	271.30	0	4.7790	0	33.8010	0	26.752	0	268.851	0	94.5	4	30.3	4	-1E+10	1	-1E+10	1	-1E+10	1	-1E+10	1	-1E+10	1	-1E+10	1
4902551	91	C	02/19/2023	07:02	-131.304	47.837	0	272.30	0	4.7730	0	33.8020	0	26.753	0	269.841	0	94.0	4	30.2	4	-1E+10	1	-1E+10	1	-1E+10	1	-1E+10	1	-1E+10	1	-1E+10	1
4902551	91	C	02/19/2023	07:02	-131.304	47.837	0	273.30	0	4.7690	0	33.8010	0	26.753	0	270.831	0	93.6	4	30.0	4	-1E+10	1	-1E+10	1	-1E+10	1	-1E+10	1	-1E+10	1	-1E+10	1
4902551	91	C	02/19/2023	07:02	-131.304	47.837	0	274.30	0	4.7550	0	33.8040	0	26.757	0	271.822	0	93.1	4	29.8	4	-1E+10	1	-1E+10	1	-1E+10	1	-1E+10	1	-1E+10	1	-1E+10	1
4902551	91	C	02/19/2023	07:02	-131.304	47.837	0	275.30	0	4.7490	0	33.8050	0	26.758	0	272.812	0	92.6	4	29.7	4	-1E+10	1	-1E+10	1	-1E+10	1	-1E+10	1	-1E+10	1	-1E+10	1
4902551	91	C	02/19/2023	07:02	-131.304	47.837	0	276.30	0	4.7410	0	33.8060	0	26.760	0	273.802	0	92.2	4	29.5	4	-1E+10	1	-1E+10	1	-1E+10	1	-1E+10	1	-1E+10	1	-1E+10	1
4902551	91	C	02/19/2023	07:02	-131.304	47.837	0	277.30	0	4.7330	0	33.8080	0	26.763	0	274.793	0	91.7	4	29.4	4	-1E+10	1	-1E+10	1	-1E+10	1	-1E+10	1	-1E+10	1	-1E+10	1
4902551	91	C	02/19/2023	07:02	-131.304	47.837	0	278.30	0	4.7240	0	33.8100	0	26.765	0	275.783	0	91.4	4	29.3	4	-1E+10	1	-1E+10	1	-1E+10	1	-1E+10	1	-1E+10	1	-1E+10	1
4902551	91	C	02/19/2023	07:02	-131.304	47.837	0	279.30	0	4.7220	0	33.8100	0	26.765	0	276.773	0	91.0	4	29.1	4	-1E+10	1	-1E+10	1	-1E+10	1	-1E+10	1	-1E+10	1	-1E+10	1
4902551	91	C	02/19/2023	07:02	-131.304	47.837	0	280.30	0	4.7200	0	33.8100	0	26.766	0	277.764	0	90.6	4	29.0	4	-1E+10	1	-1E+10	1	-1E+10	1	-1E+10	1	-1E+10	1	-1E+10	1
4902551	91	C	02/19/2023	07:02	-131.304	47.837	0	281.30	0	4.7100	0	33.8130	0	26.769	0	278.754	0	90.2	4	28.9	4	-1E+10	1	-1E+10	1	-1E+10	1	-1E+10	1	-1E+10	1	-1E+10	1
4902551	91	C	02/19/2023	07:02	-131.304	47.837	0	282.30	0	4.7070	0	33.8130	0	26.769	0	279.744	0	89.8	4	28.8	4	-1E+10	1	-1E+10	1	-1E+10	1	-1E+10	1	-1E+10	1	-1E+10	1
4902551	91	C	02/19/2023	07:02	-131.304	47.837	0	283.30	0	4.7060	0	33.8130	0	26.770	0	280.734	0	89.4	4	28.6	4	-1E+10	1	-1E+10	1	-1E+10	1	-1E+10	1	-1E+10	1	-1E+10	1
4902551	91	C	02/19/2023	07:02	-131.304	47.837	0	284.30	0	4.7070	0	33.8120	0	26.769	0	281.725	0	89.0	4	28.5	4	-1E+10	1	-1E+10	1	-1E+10	1	-1E+10	1	-1E+10	1	-1E+10	1
4902551	91	C	02/19/2023	07:02	-131.304	47.837	0	285.30	0	4.7030	0	33.8130	0	26.770	0	282.715	0	88.5	4	28.3	4	-1E+10	1	-1E+10	1	-1E+10	1	-1E+10	1	-1E+10	1	-1E+10	1
4902551	91	C	02/19/2023	07:02	-131.304	47.837	0	286.30	0	4.6990	0	33.8130	0	26.770	0	283.705	0	88.0	4	28.2	4	-1E+10	1	-1E+10	1	-1E+10	1	-1E+10	1	-1E+10	1	-1E+10	1
4902551	91	C	02/19/2023	07:02	-131.304	47.837	0	287.30	0	4.6970	0	33.8130	0	26.771	0	284.695	0	87.5	4	28.0	4	-1E+10	1	-1E+10	1	-1E+10	1	-1E+10	1	-1E+10	1	-1E+10	1
4902551	91	C	02/19/2023	07:02	-131.304	47.837	0	288.30	0	4.6900	0	33.8140	0	26.772	0	285.686	0	86.9	4	27.8	4	-1E+10	1	-1E+10	1	-1E+10	1	-1E+10	1	-1E+10	1	-1E+10	1
4902551	91	C	02/19/2023	07:02	-131.304	47.837	0	289.30	0	4.6830	0	33.8140	0	26.773	0	286.676	0	86.3	4	27.6	4	-1E+10	1	-1E+10	1	-1E+10	1	-1E+10	1	-1E+10	1	-1E+10	1
4902551	91	C	02/19/2023	07:02	-131.304	47.837	0	290.30	0	4.6620	0	33.8200	0	26.780	0	287.666	0	85.8	4	27.4	4	-1E+10	1	-1E+10	1	-1E+10	1	-1E+10	1	-1E+10	1	-1E+10	1
4902551	91	C	02/19/2023	07:02	-131.304	47.837	0	291.30	0	4.6550	0	33.8220	0	26.782	0	288.656	0	85.4	4	27.3	4	-1E+10	1	-1E+10	1	-1E+10	1	-1E+10	1	-1E+10	1	-1E+10	1
4902551	91	C	02/19/2023	07:02	-131.304	47.837	0	292.30	0	4.6490	0	33.8230	0	26.784	0	289.647	0	85.0	4	27.2	4	-1E+10	1	-1E+10	1	-1E+10	1	-1E+10	1	-1E+10	1	-1E+10	1
4902551	91	C	02/19/2023	07:02	-131.304	47.837	0	293.40	0	4.6410	0	33.8250	0	26.786	0	290.736	0	84.6	4	27.1	4	-1E+10	1	-1E+10	1	-1E+10	1	-1E+10	1	-1E+10	1	-1E+10	1
4902551	91	C	02/19/2023	07:02	-131.304	47.837	0	294.40	0	4.6390	0	33.8250	0	26.786	0	291.726	0	84.3	4	26.9	4	-1E+10	1	-1E+10	1	-1E+10	1	-1E+10	1	-1E+10	1	-1E+10	1
4902551	91	C	02/19/2023	07:02	-131.304	47.837	0	295.40	0	4.6290	0	33.8280	0	26.790	0	292.716	0	84.0	4	26.8	4	-1E+10	1	-1E+10	1	-1E+10	1	-1E+10	1	-1E+10	1	-1E+10	1
4902551	91	C	02/19/2023	07:02	-131.304	47.837	0	296.40	0	4.6270	0	33.8280	0	26.790	0	293.706	0	83.7	4	26.8	4	-1E+10	1	-1E+10	1	-1E+10	1	-1E+10	1	-1E+10	1	-1E+10	1
4902551	91	C	02/19/2023	07:02	-131.304	47.837	0	297.40	0	4.6260	0	33.8280	0	26.790	0	294.697	0	83.4	4	26.7	4	-1E+10	1	-1E+10	1	-1E+10	1	-1E+10	1	-1E+10	1	-1E+10	1
4902551	91	C	02/19/2023	07:02	-131.304	47.837	0	298.90	0	4.6190	0	33.8290	0	26.792	0	296.182	0	82.8	4	26.5	4	-1E+10	1	-1E+10	1	-1E+10	1	-1E+10	1	-1E+10	1	-1E+10	1
4902551	91	C	02/19/2023	07:02	-131.304	47.837	0	300.00	0	4.6140	0	33.8300	0	26.793	0	297.271	0	82.4	4	26.3	4	-1E+10	1	-1E+10	1	-1E+10	1	-1E+10	1	-1E+10	1	-1E+10	1
4902551	91	C	02/19/2023	07:02	-131.304	47.837	0	300.80	0	4.6130	0	33.8300	0	26.793	0	298.063	0	82.1	4	26.2	4	-1E+10	1	-1E+10	1	-1E+10	1	-1E+10	1	-1E+10	1	-1E+10	1
4902551	91	C	02/19/2023	07:02	-131.304	47.837	0	302.00	0	4.6100	0	33.8300	0	26.794	0	299.252	0	81.5	4	26.0	4	-1E+10	1	-1E+10	1	-1E+10	1	-1E+10	1	-1E+10	1	-1E+10	1
4902551	91	C	02/19/2023	07:02	-131.304	47.837	0	303.20	0	4.6020	0	33.8320	0	26.796	0	300.440	0	81.0	4	25.9	4	-1E+10	1	-1E+10	1	-1E+10	1	-1E+10	1	-1E+10	1	-1E+10	1
4902551	91	C	02/19/2023	07:02	-131.304	47.837	0	304.00	0	4.5920	0	33.8340	0	26.799	0	301.232	0	80.8	4	25.8	4	-1E+10	1	-1E+10	1	-1E+10	1	-1E+10	1	-1E+10	1	-1E+10	1
4902551	91	C	02/19/2023	07:02	-131.304	47.837	0	304.80	0	4.5880	0	33.8360	0	26.801	0	302.024	0	80.5	4	25.7	4	-1E+10	1	-1E+10	1	-1E+10	1	-1E+10	1	-1E+10	1	-1E+10	1
4902551	91	C	02/19/2023	07:02	-131.304	47.837	0	306.00	0	4.5850	0	33.8360	0	26.801	0	303.212	0	80.1	4	25.6	4	-1E+10	1	-1E+10	1	-1E+10	1	-1E+10	1	-1E+10	1	-1E+10	1
4902551	91	C	02/19/2023	07:02	-131.304	47.837	0	307.20	0	4.5790	0	33.8370	0	26.803	0	304.400	0	79.7	4	25.4	4	-1E+10	1	-1E+10	1	-1E+10	1	-1E+10	1	-1E+10	1	-1E+10	1
4902551	91	C	02/19/2023	07:02	-131.304	47.837	0	308.00	0	4.5740	0	33.8380	0	26.804	0	305.192	0	79.4	4	25.4	4	-1E+10	1	-1E+10	1	-1E+10	1	-1E+10	1	-1E+10	1	-1E+10	1
4902551	91	C	02/19/2023	07:02	-131.304	47.837	0	308.80	0	4.5690	0	33.8400	0	26.806	0	305.985	0	79.2	4	25.3	4	-1E+10	1	-1E+10	1	-1E+10	1	-1E+10	1	-1E+10	1	-1E+10	1
4902551	91	C	02/19/2023	07:02	-131.304	47.837	0	309.60	0	4.5660	0	33.8400	0	26.806	0	306.777	0	78.9	4	25.2	4	-1E+10	1	-1E+10	1	-1E+10	1	-1E+10	1	-1E+10	1	-1E+10	1
4902551	91	C	02/19/2023	07:02	-131.304	47.837	0	310.90	0	4.5620	0	33.8400	0	26.807	0	308.064	0	78.5	4	25.1	4	-1E+10	1	-1E+10	1	-1E+10	1	-1E+10	1	-1E+10	1	-1E+10	1
4902551	91	C	02/19/2023	07:02	-131.304	47.837	0	312.10	0	4.5530	0	33.8440	0	26.811	0	309.252	0	78.2	4	24.9	4	-1E+10	1	-1E+10	1	-1E+10	1	-1E+10	1	-1E+10	1	-1E+10	1
4902551	91	C	02/19/2023	07:02	-131.304	47.837	0	313.00	0	4.5500	0	33.8440	0	26.811	0	310.143	0	78.0	4	24.9	4	-1E+10	1	-1E+10	1	-1E+10	1	-1E+10	1	-1E+10	1	-1E+10	1
4902551	91	C	02/19/2023	07:02	-131.304	47.837	0	313.80	0	4.5470	0	33.8450	0	26.813	0	310.935	0	77.8	4	24.8	4	-1E+10	1	-1E+10	1	-1E+10	1	-1E+10	1	-1E+10	1	-1E+10	1
4902551	91	C	02/19/2023	07:02	-131.304	47.837	0	314.60	0	4.5460	0	33.8450	0	26.813	0	311.727	0	77.7	4	24.8	4	-1E+10	1	-1E+10	1	-1E+10	1	-1E+10	1	-1E+10	1	-1E+10	1
4902551	91	C	02/19/2023	07:02	-131.304	47.837	0	315.90	0	4.5440	0	33.8460	0	26.814	0	313.015	0	77.4	4	24.7	4	-1E+10	1	-1E+10	1	-1E+10	1	-1E+10	1	-1E+10	1	-1E+10	1
4902551	91	C	02/19/2023	07:02	-131.304	47.837	0	317.20	0	4.5430	0	33.8460	0	26.814	0	314.302	0	77.1	4	24.6	4	-1E+10	1	-1E+10	1	-1E+10	1	-1E+10	1	-1E+10	1	-1E+10	1
4902551	91	C	02/19/2023	07:02	-131.304	47.837	0	318.00	0	4.5420	0	33.8460	0	26.814	0	315.094	0	76.9	4	24.5	4	-1E+10	1	-1E+10	1	-1E+10	1	-1E+10	1	-1E+10	1	-1E+10	1
4902551	91	C	02/19/2023	07:02	-131.304	47.837	0	318.90	0	4.5400	0	33.8470	0	26.815	0	315.985	0	76.6	4	24.4	4	-1E+10	1	-1E+10	1	-1E+10	1	-1E+10	1	-1E+10	1	-1E+10	1
4902551	91	C	02/19/2023	07:02	-131.304	47.837	0	319.70	0	4.5360	0	33.8470	0	26.815	0	316.777	0	76.4	4	24.4	4	-1E+10	1	-1E+10	1	-1E+10	1	-1E+10	1	-1E+10	1	-1E+10	1
4902551	91	C	02/19/2023	07:02	-131.304	47.837	0	321.00	0	4.5340	0	33.8480	0	26.816	0	318.064	0	76.1	4	24.3	4	-1E+10	1	-1E+10	1	-1E+10	1	-1E+10	1	-1E+10	1	-1E+10	1
4902551	91	C	02/19/2023	07:02	-131.304	47.837	0	322.30	0	4.5310	0	33.8490	0	26.817	0	319.351	0	75.7	4	24.1	4	-1E+10	1	-1E+10	1	-1E+10	1	-1E+10	1	-1E+10	1	-1E+10	1
4902551	91	C	02/19/2023	07:02	-131.304	47.837	0	323.20	0	4.5290	0	33.8500	0	26.818	0	320.242	0	75.4	4	24.1	4	-1E+10	1	-1E+10	1	-1E+10	1	-1E+10	1	-1E+10	1	-1E+10	1
4902551	91	C	02/19/2023	07:02	-131.304	47.837	0	324.00	0	4.5280	0	33.8510	0	26.819	0	321.034	0	75.1	4	24.0	4	-1E+10	1	-1E+10	1	-1E+10	1	-1E+10	1	-1E+10	1	-1E+10	1
4902551	91	C	02/19/2023	07:02	-131.304	47.837	0	324.90	0	4.5260	0	33.8520	0	26.820	0	321.925	0	74.9	4	23.9	4	-1E+10	1	-1E+10	1	-1E+10	1	-1E+10	1	-1E+10	1	-1E+10	1
4902551	91	C	02/19/2023	07:02	-131.304	47.837	0	325.80	0	4.5240	0	33.8530	0	26.821	0	322.816	0	74.6	4	23.8	4	-1E+10	1	-1E+10	1	-1E+10	1	-1E+10	1	-1E+10	1	-1E+10	1
4902551	91	C	02/19/2023	07:02	-131.304	47.837	0	326.70	0	4.5220	0	33.8530	0	26.822	0	323.707	0	74.3	4	23.7	4	-1E+10	1	-1E+10	1	-1E+10	1	-1E+10	1	-1E+10	1	-1E+10	1
4902551	91	C	02/19/2023	07:02	-131.304	47.837	0	327.60	0	4.5170	0	33.8550	0	26.824	0	324.598	0	74.1	4	23.6	4	-1E+10	1	-1E+10	1	-1E+10	1	-1E+10	1	-1E+10	1	-1E+10	1
4902551	91	C	02/19/2023	07:02	-131.304	47.837	0	328.90	0	4.5080	0	33.8560	0	26.826	0	325.886	0	73.8	4	23.5	4	-1E+10	1	-1E+10	1	-1E+10	1	-1E+10	1	-1E+10	1	-1E+10	1
4902551	91	C	02/19/2023	07:02	-131.304	47.837	0	330.30	0	4.5040	0	33.8580	0	26.828	0	327.272	0	73.5	4	23.4	4	-1E+10	1	-1E+10	1	-1E+10	1	-1E+10	1	-1E+10	1	-1E+10	1
4902551	91	C	02/19/2023	07:02	-131.304	47.837	0	331.30	0	4.5000	0	33.8590	0	26.829	0	328.262	0	73.2	4	23.3	4	-1E+10	1	-1E+10	1	-1E+10	1	-1E+10	1	-1E+10	1	-1E+10	1
4902551	91	C	02/19/2023	07:02	-131.304	47.837	0	332.20	0	4.4980	0	33.8600	0	26.830	0	329.153	0	73.0	4	23.3	4	-1E+10	1	-1E+10	1	-1E+10	1	-1E+10	1	-1E+10	1	-1E+10	1
4902551	91	C	02/19/2023	07:02	-131.304	47.837	0	333.10	0	4.4980	0	33.8600	0	26.830	0	330.044	0	72.9	4	23.2	4	-1E+10	1	-1E+10	1	-1E+10	1	-1E+10	1	-1E+10	1	-1E+10	1
4902551	91	C	02/19/2023	07:02	-131.304	47.837	0	334.00	0	4.4980	0	33.8600	0	26.830	0	330.935	0	72.6	4	23.2	4	-1E+10	1	-1E+10	1	-1E+10	1	-1E+10	1	-1E+10	1	-1E+10	1
4902551	91	C	02/19/2023	07:02	-131.304	47.837	0	335.00	0	4.4950	0	33.8630	0	26.833	0	331.925	0	72.5	4	23.1	4	-1E+10	1	-1E+10	1	-1E+10	1	-1E+10	1	-1E+10	1	-1E+10	1
4902551	91	C	02/19/2023	07:02	-131.304	47.837	0	335.90	0	4.4950	0	33.8630	0	26.833	0	332.816	0	72.3	4	23.1	4	-1E+10	1	-1E+10	1	-1E+10	1	-1E+10	1	-1E+10	1	-1E+10	1
4902551	91	C	02/19/2023	07:02	-131.304	47.837	0	336.80	0	4.4910	0	33.8650	0	26.835	0	333.707	0	72.2	4	23.0	4	-1E+10	1	-1E+10	1	-1E+10	1	-1E+10	1	-1E+10	1	-1E+10	1
4902551	91	C	02/19/2023	07:02	-131.304	47.837	0	337.70	0	4.4900	0	33.8660	0	26.835	0	334.598	0	72.0	4	23.0	4	-1E+10	1	-1E+10	1	-1E+10	1	-1E+10	1	-1E+10	1	-1E+10	1
4902551	91	C	02/19/2023	07:02	-131.304	47.837	0	338.70	0	4.4860	0	33.8670	0	26.837	0	335.588	0	71.9	4	22.9	4	-1E+10	1	-1E+10	1	-1E+10	1	-1E+10	1	-1E+10	1	-1E+10	1
4902551	91	C	02/19/2023	07:02	-131.304	47.837	0	339.60	0	4.4850	0	33.8670	0	26.837	0	336.479	0	71.7	4	22.9	4	-1E+10	1	-1E+10	1	-1E+10	1	-1E+10	1	-1E+10	1	-1E+10	1
4902551	91	C	02/19/2023	07:02	-131.304	47.837	0	340.50	0	4.4840	0	33.8670	0	26.837	0	337.370	0	71.6	4	22.8	4	-1E+10	1	-1E+10	1	-1E+10	1	-1E+10	1	-1E+10	1	-1E+10	1
4902551	91	C	02/19/2023	07:02	-131.304	47.837	0	341.90	0	4.4830	0	33.8670	0	26.837	0	338.756	0	71.3	4	22.7	4	-1E+10	1	-1E+10	1	-1E+10	1	-1E+10	1	-1E+10	1	-1E+10	1
4902551	91	C	02/19/2023	07:02	-131.304	47.837	0	343.40	0	4.4820	0	33.8680	0	26.838	0	340.241	0	71.0	4	22.6	4	-1E+10	1	-1E+10	1	-1E+10	1	-1E+10	1	-1E+10	1	-1E+10	1
4902551	91	C	02/19/2023	07:02	-131.304	47.837	0	344.30	0	4.4810	0	33.8690	0	26.839	0	341.132	0	70.8	4	22.6	4	-1E+10	1	-1E+10	1	-1E+10	1	-1E+10	1	-1E+10	1	-1E+10	1
4902551	91	C	02/19/2023	07:02	-131.304	47.837	0	345.30	0	4.4780	0	33.8680	0	26.838	0	342.122	0	70.7	4	22.5	4	-1E+10	1	-1E+10	1	-1E+10	1	-1E+10	1	-1E+10	1	-1E+10	1
4902551	91	C	02/19/2023	07:02	-131.304	47.837	0	346.20	0	4.4770	0	33.8690	0	26.839	0	343.013	0	70.4	4	22.4	4	-1E+10	1	-1E+10	1	-1E+10	1	-1E+10	1	-1E+10	1	-1E+10	1
4902551	91	C	02/19/2023	07:02	-131.304	47.837	0	347.20	0	4.4760	0	33.8680	0	26.839	0	344.003	0	70.2	4	22.4	4	-1E+10	1	-1E+10	1	-1E+10	1	-1E+10	1	-1E+10	1	-1E+10	1
4902551	91	C	02/19/2023	07:02	-131.304	47.837	0	348.10	0	4.4740	0	33.8690	0	26.840	0	344.894	0	69.9	4	22.3	4	-1E+10	1	-1E+10	1	-1E+10	1	-1E+10	1	-1E+10	1	-1E+10	1
4902551	91	C	02/19/2023	07:02	-131.304	47.837	0	349.10	0	4.4720	0	33.8690	0	26.840	0	345.884	0	69.6	4	22.2	4	-1E+10	1	-1E+10	1	-1E+10	1	-1E+10	1	-1E+10	1	-1E+10	1
4902551	91	C	02/19/2023	07:02	-131.304	47.837	0	350.10	0	4.4700	0	33.8690	0	26.840	0	346.874	0	69.3	4	22.1	4	-1E+10	1	-1E+10	1	-1E+10	1	-1E+10	1	-1E+10	1	-1E+10	1
4902551	91	C	02/19/2023	07:02	-131.304	47.837	0	352.90	0	4.4590	0	33.8730	0	26.844	0	349.645	0	68.3	4	21.8	4	-1E+10	1	-1E+10	1	-1E+10	1	-1E+10	1	-1E+10	1	-1E+10	1
4902551	91	C	02/19/2023	07:02	-131.304	47.837	0	357.80	0	4.4420	0	33.8800	0	26.852	0	354.496	0	67.0	4	21.3	4	-1E+10	1	-1E+10	1	-1E+10	1	-1E+10	1	-1E+10	1	-1E+10	1
4902551	91	C	02/19/2023	07:02	-131.304	47.837	0	362.70	0	4.4270	0	33.8850	0	26.858	0	359.346	0	65.7	4	20.9	4	-1E+10	1	-1E+10	1	-1E+10	1	-1E+10	1	-1E+10	1	-1E+10	1
4902551	91	C	02/19/2023	07:02	-131.304	47.837	0	367.60	0	4.4110	0	33.8910	0	26.864	0	364.197	0	64.5	4	20.5	4	-1E+10	1	-1E+10	1	-1E+10	1	-1E+10	1	-1E+10	1	-1E+10	1
4902551	91	C	02/19/2023	07:02	-131.304	47.837	0	372.50	0	4.3960	0	33.8980	0	26.871	0	369.047	0	63.6	4	20.2	4	-1E+10	1	-1E+10	1	-1E+10	1	-1E+10	1	-1E+10	1	-1E+10	1
4902551	91	C	02/19/2023	07:02	-131.304	47.837	0	377.90	0	4.3920	0	33.9000	0	26.873	0	374.392	0	62.6	4	19.9	4	-1E+10	1	-1E+10	1	-1E+10	1	-1E+10	1	-1E+10	1	-1E+10	1
4902551	91	C	02/19/2023	07:02	-131.304	47.837	0	383.30	0	4.3840	0	33.9060	0	26.879	0	379.737	0	61.5	4	19.5	4	-1E+10	1	-1E+10	1	-1E+10	1	-1E+10	1	-1E+10	1	-1E+10	1
4902551	91	C	02/19/2023	07:02	-131.304	47.837	0	388.40	0	4.3760	0	33.9110	0	26.884	0	384.785	0	60.4	4	19.2	4	-1E+10	1	-1E+10	1	-1E+10	1	-1E+10	1	-1E+10	1	-1E+10	1
4902551	91	C	02/19/2023	07:02	-131.304	47.837	0	392.90	0	4.3700	0	33.9150	0	26.888	0	389.239	0	59.4	4	18.9	4	-1E+10	1	-1E+10	1	-1E+10	1	-1E+10	1	-1E+10	1	-1E+10	1
4902551	91	C	02/19/2023	07:02	-131.304	47.837	0	397.50	0	4.3650	0	33.9220	0	26.894	0	393.792	0	58.7	4	18.7	4	-1E+10	1	-1E+10	1	-1E+10	1	-1E+10	1	-1E+10	1	-1E+10	1
4902551	91	C	02/19/2023	07:02	-131.304	47.837	0	402.60	0	4.3610	0	33.9270	0	26.898	0	398.839	0	57.9	4	18.4	4	-1E+10	1	-1E+10	1	-1E+10	1	-1E+10	1	-1E+10	1	-1E+10	1
4902551	91	C	02/19/2023	07:02	-131.304	47.837	0	407.80	0	4.3580	0	33.9300	0	26.901	0	403.986	0	57.2	4	18.2	4	-1E+10	1	-1E+10	1	-1E+10	1	-1E+10	1	-1E+10	1	-1E+10	1
4902551	91	C	02/19/2023	07:02	-131.304	47.837	0	413.00	0	4.3520	0	33.9330	0	26.904	0	409.132	0	56.3	4	17.9	4	-1E+10	1	-1E+10	1	-1E+10	1	-1E+10	1	-1E+10	1	-1E+10	1
4902551	91	C	02/19/2023	07:02	-131.304	47.837	0	418.20	0	4.3460	0	33.9400	0	26.910	0	414.278	0	55.4	4	17.6	4	-1E+10	1	-1E+10	1	-1E+10	1	-1E+10	1	-1E+10	1	-1E+10	1
4902551	91	C	02/19/2023	07:02	-131.304	47.837	0	423.00	0	4.3430	0	33.9450	0	26.915	0	419.028	0	54.7	4	17.4	4	-1E+10	1	-1E+10	1	-1E+10	1	-1E+10	1	-1E+10	1	-1E+10	1
4902551	91	C	02/19/2023	07:02	-131.304	47.837	0	427.80	0	4.3390	0	33.9490	0	26.918	0	423.778	0	54.0	4	17.2	4	-1E+10	1	-1E+10	1	-1E+10	1	-1E+10	1	-1E+10	1	-1E+10	1
4902551	91	C	02/19/2023	07:02	-131.304	47.837	0	433.00	0	4.3350	0	33.9500	0	26.919	0	428.924	0	53.0	4	16.8	4	-1E+10	1	-1E+10	1	-1E+10	1	-1E+10	1	-1E+10	1	-1E+10	1
4902551	91	C	02/19/2023	07:02	-131.304	47.837	0	437.80	0	4.3300	0	33.9540	0	26.923	0	433.674	0	51.7	4	16.4	4	-1E+10	1	-1E+10	1	-1E+10	1	-1E+10	1	-1E+10	1	-1E+10	1
4902551	91	C	02/19/2023	07:02	-131.304	47.837	0	442.50	0	4.3140	0	33.9630	0	26.932	0	438.324	0	50.5	4	16.0	4	-1E+10	1	-1E+10	1	-1E+10	1	-1E+10	1	-1E+10	1	-1E+10	1
4902551	91	C	02/19/2023	07:02	-131.304	47.837	0	447.90	0	4.2980	0	33.9700	0	26.939	0	443.668	0	49.4	4	15.7	4	-1E+10	1	-1E+10	1	-1E+10	1	-1E+10	1	-1E+10	1	-1E+10	1
4902551	91	C	02/19/2023	07:02	-131.304	47.837	0	453.20	0	4.2700	0	33.9730	0	26.945	0	448.912	0	48.5	4	15.4	4	-1E+10	1	-1E+10	1	-1E+10	1	-1E+10	1	-1E+10	1	-1E+10	1
4902551	91	C	02/19/2023	07:02	-131.304	47.837	0	457.90	0	4.2650	0	33.9760	0	26.948	0	453.562	0	47.8	4	15.2	4	-1E+10	1	-1E+10	1	-1E+10	1	-1E+10	1	-1E+10	1	-1E+10	1
4902551	91	C	02/19/2023	07:02	-131.304	47.837	0	462.70	0	4.2610	0	33.9800	0	26.951	0	458.311	0	46.9	4	14.9	4	-1E+10	1	-1E+10	1	-1E+10	1	-1E+10	1	-1E+10	1	-1E+10	1
4902551	91	C	02/19/2023	07:02	-131.304	47.837	0	468.00	0	4.2520	0	33.9870	0	26.958	0	463.555	0	45.9	4	14.5	4	-1E+10	1	-1E+10	1	-1E+10	1	-1E+10	1	-1E+10	1	-1E+10	1
4902551	91	C	02/19/2023	07:02	-131.304	47.837	0	473.10	0	4.2480	0	33.9940	0	26.964	0	468.601	0	44.9	4	14.3	4	-1E+10	1	-1E+10	1	-1E+10	1	-1E+10	1	-1E+10	1	-1E+10	1
4902551	91	C	02/19/2023	07:02	-131.304	47.837	0	477.90	0	4.2430	0	33.9990	0	26.968	0	473.350	0	44.2	4	14.0	4	-1E+10	1	-1E+10	1	-1E+10	1	-1E+10	1	-1E+10	1	-1E+10	1
4902551	91	C	02/19/2023	07:02	-131.304	47.837	0	482.70	0	4.2390	0	34.0040	0	26.973	0	478.099	0	43.1	4	13.7	4	-1E+10	1	-1E+10	1	-1E+10	1	-1E+10	1	-1E+10	1	-1E+10	1
4902551	91	C	02/19/2023	07:02	-131.304	47.837	0	487.60	0	4.2290	0	34.0130	0	26.981	0	482.946	0	42.2	4	13.4	4	-1E+10	1	-1E+10	1	-1E+10	1	-1E+10	1	-1E+10	1	-1E+10	1
4902551	91	C	02/19/2023	07:02	-131.304	47.837	0	492.60	0	4.2220	0	34.0210	0	26.988	0	487.893	0	41.3	4	13.1	4	-1E+10	1	-1E+10	1	-1E+10	1	-1E+10	1	-1E+10	1	-1E+10	1
4902551	91	C	02/19/2023	07:02	-131.304	47.837	0	497.60	0	4.2150	0	34.0280	0	26.995	0	492.839	0	40.4	4	12.8	4	-1E+10	1	-1E+10	1	-1E+10	1	-1E+10	1	-1E+10	1	-1E+10	1
4902551	91	C	02/19/2023	07:02	-131.304	47.837	0	502.80	0	4.2080	0	34.0320	0	26.999	0	497.983	0	39.7	4	12.6	4	-1E+10	1	-1E+10	1	-1E+10	1	-1E+10	1	-1E+10	1	-1E+10	1
4902551	91	C	02/19/2023	07:02	-131.304	47.837	0	508.00	0	4.2010	0	34.0380	0	27.004	0	503.127	0	38.8	4	12.3	4	-1E+10	1	-1E+10	1	-1E+10	1	-1E+10	1	-1E+10	1	-1E+10	1
4902551	91	C	02/19/2023	07:02	-131.304	47.837	0	512.90	0	4.1900	0	34.0450	0	27.011	0	507.974	0	38.1	4	12.1	4	-1E+10	1	-1E+10	1	-1E+10	1	-1E+10	1	-1E+10	1	-1E+10	1
4902551	91	C	02/19/2023	07:02	-131.304	47.837	0	517.80	0	4.1820	0	34.0500	0	27.016	0	512.821	0	37.4	4	11.8	4	-1E+10	1	-1E+10	1	-1E+10	1	-1E+10	1	-1E+10	1	-1E+10	1
4902551	91	C	02/19/2023	07:02	-131.304	47.837	0	522.90	0	4.1690	0	34.0570	0	27.023	0	517.866	0	36.6	4	11.6	4	-1E+10	1	-1E+10	1	-1E+10	1	-1E+10	1	-1E+10	1	-1E+10	1
4902551	91	C	02/19/2023	07:02	-131.304	47.837	0	528.00	0	4.1560	0	34.0620	0	27.028	0	522.910	0	35.8	4	11.3	4	-1E+10	1	-1E+10	1	-1E+10	1	-1E+10	1	-1E+10	1	-1E+10	1
4902551	91	C	02/19/2023	07:02	-131.304	47.837	0	533.00	0	4.1470	0	34.0660	0	27.032	0	527.855	0	35.0	4	11.1	4	-1E+10	1	-1E+10	1	-1E+10	1	-1E+10	1	-1E+10	1	-1E+10	1
4902551	91	C	02/19/2023	07:02	-131.304	47.837	0	538.10	0	4.1280	0	34.0730	0	27.040	0	532.900	0	34.4	4	10.9	4	-1E+10	1	-1E+10	1	-1E+10	1	-1E+10	1	-1E+10	1	-1E+10	1
4902551	91	C	02/19/2023	07:02	-131.304	47.837	0	543.10	0	4.1180	0	34.0780	0	27.045	0	537.845	0	33.9	4	10.7	4	-1E+10	1	-1E+10	1	-1E+10	1	-1E+10	1	-1E+10	1	-1E+10	1
4902551	91	C	02/19/2023	07:02	-131.304	47.837	0	547.60	0	4.1100	0	34.0810	0	27.048	0	542.295	0	33.4	4	10.6	4	-1E+10	1	-1E+10	1	-1E+10	1	-1E+10	1	-1E+10	1	-1E+10	1
4902551	91	C	02/19/2023	07:02	-131.304	47.837	0	552.80	0	4.1030	0	34.0830	0	27.050	0	547.438	0	32.9	4	10.4	4	-1E+10	1	-1E+10	1	-1E+10	1	-1E+10	1	-1E+10	1	-1E+10	1
4902551	91	C	02/19/2023	07:02	-131.304	47.837	0	557.90	0	4.0960	0	34.0870	0	27.054	0	552.482	0	32.2	4	10.2	4	-1E+10	1	-1E+10	1	-1E+10	1	-1E+10	1	-1E+10	1	-1E+10	1
4902551	91	C	02/19/2023	07:02	-131.304	47.837	0	562.60	0	4.0830	0	34.0910	0	27.059	0	557.130	0	31.5	4	10.0	4	-1E+10	1	-1E+10	1	-1E+10	1	-1E+10	1	-1E+10	1	-1E+10	1
4902551	91	C	02/19/2023	07:02	-131.304	47.837	0	567.90	0	4.0660	0	34.0980	0	27.066	0	562.371	0	30.7	4	9.7	4	-1E+10	1	-1E+10	1	-1E+10	1	-1E+10	1	-1E+10	1	-1E+10	1
4902551	91	C	02/19/2023	07:02	-131.304	47.837	0	573.20	0	4.0520	0	34.1030	0	27.072	0	567.613	0	29.9	4	9.5	4	-1E+10	1	-1E+10	1	-1E+10	1	-1E+10	1	-1E+10	1	-1E+10	1
4902551	91	C	02/19/2023	07:02	-131.304	47.837	0	578.10	0	4.0370	0	34.1090	0	27.078	0	572.458	0	29.0	4	9.2	4	-1E+10	1	-1E+10	1	-1E+10	1	-1E+10	1	-1E+10	1	-1E+10	1
4902551	91	C	02/19/2023	07:02	-131.304	47.837	0	583.00	0	4.0240	0	34.1130	0	27.082	0	577.303	0	28.2	4	8.9	4	-1E+10	1	-1E+10	1	-1E+10	1	-1E+10	1	-1E+10	1	-1E+10	1
4902551	91	C	02/19/2023	07:02	-131.304	47.837	0	587.90	0	4.0150	0	34.1150	0	27.085	0	582.149	0	27.6	4	8.7	4	-1E+10	1	-1E+10	1	-1E+10	1	-1E+10	1	-1E+10	1	-1E+10	1
4902551	91	C	02/19/2023	07:02	-131.304	47.837	0	592.90	0	4.0050	0	34.1190	0	27.089	0	587.093	0	26.8	4	8.5	4	-1E+10	1	-1E+10	1	-1E+10	1	-1E+10	1	-1E+10	1	-1E+10	1
4902551	91	C	02/19/2023	07:02	-131.304	47.837	0	598.00	0	3.9890	0	34.1240	0	27.095	0	592.136	0	26.0	4	8.2	4	-1E+10	1	-1E+10	1	-1E+10	1	-1E+10	1	-1E+10	1	-1E+10	1
4902551	91	C	02/19/2023	07:02	-131.304	47.837	0	603.10	0	3.9660	0	34.1330	0	27.104	0	597.178	0	25.3	4	8.0	4	-1E+10	1	-1E+10	1	-1E+10	1	-1E+10	1	-1E+10	1	-1E+10	1
4902551	91	C	02/19/2023	07:02	-131.304	47.837	0	608.20	0	3.9540	0	34.1370	0	27.109	0	602.221	0	24.7	4	7.8	4	-1E+10	1	-1E+10	1	-1E+10	1	-1E+10	1	-1E+10	1	-1E+10	1
4902551	91	C	02/19/2023	07:02	-131.304	47.837	0	612.90	0	3.9440	0	34.1400	0	27.112	0	606.868	0	24.4	4	7.7	4	-1E+10	1	-1E+10	1	-1E+10	1	-1E+10	1	-1E+10	1	-1E+10	1
4902551	91	C	02/19/2023	07:02	-131.304	47.837	0	617.60	0	3.9260	0	34.1460	0	27.119	0	611.515	0	24.1	4	7.6	4	-1E+10	1	-1E+10	1	-1E+10	1	-1E+10	1	-1E+10	1	-1E+10	1
4902551	91	C	02/19/2023	07:02	-131.304	47.837	0	622.90	0	3.9090	0	34.1510	0	27.125	0	616.755	0	23.8	4	7.5	4	-1E+10	1	-1E+10	1	-1E+10	1	-1E+10	1	-1E+10	1	-1E+10	1
4902551	91	C	02/19/2023	07:02	-131.304	47.837	0	628.20	0	3.8910	0	34.1570	0	27.131	0	621.994	0	23.3	4	7.3	4	-1E+10	1	-1E+10	1	-1E+10	1	-1E+10	1	-1E+10	1	-1E+10	1
4902551	91	C	02/19/2023	07:02	-131.304	47.837	0	633.00	0	3.8810	0	34.1600	0	27.135	0	626.740	0	23.1	4	7.3	4	-1E+10	1	-1E+10	1	-1E+10	1	-1E+10	1	-1E+10	1	-1E+10	1
4902551	91	C	02/19/2023	07:02	-131.304	47.837	0	637.90	0	3.8740	0	34.1620	0	27.137	0	631.584	0	22.8	4	7.2	4	-1E+10	1	-1E+10	1	-1E+10	1	-1E+10	1	-1E+10	1	-1E+10	1
4902551	91	C	02/19/2023	07:02	-131.304	47.837	0	643.20	0	3.8600	0	34.1670	0	27.142	0	636.823	0	22.4	4	7.1	4	-1E+10	1	-1E+10	1	-1E+10	1	-1E+10	1	-1E+10	1	-1E+10	1
4902551	91	C	02/19/2023	07:02	-131.304	47.837	0	648.00	0	3.8510	0	34.1690	0	27.145	0	641.568	0	22.0	4	6.9	4	-1E+10	1	-1E+10	1	-1E+10	1	-1E+10	1	-1E+10	1	-1E+10	1
4902551	91	C	02/19/2023	07:02	-131.304	47.837	0	652.80	0	3.8410	0	34.1720	0	27.148	0	646.313	0	21.7	4	6.8	4	-1E+10	1	-1E+10	1	-1E+10	1	-1E+10	1	-1E+10	1	-1E+10	1
4902551	91	C	02/19/2023	07:02	-131.304	47.837	0	658.00	0	3.8310	0	34.1760	0	27.153	0	651.453	0	21.4	4	6.7	4	-1E+10	1	-1E+10	1	-1E+10	1	-1E+10	1	-1E+10	1	-1E+10	1
4902551	91	C	02/19/2023	07:02	-131.304	47.837	0	663.20	0	3.8200	0	34.1790	0	27.156	0	656.593	0	21.1	4	6.6	4	-1E+10	1	-1E+10	1	-1E+10	1	-1E+10	1	-1E+10	1	-1E+10	1
4902551	91	C	02/19/2023	07:02	-131.304	47.837	0	668.30	0	3.8040	0	34.1830	0	27.161	0	661.635	0	20.8	4	6.5	4	-1E+10	1	-1E+10	1	-1E+10	1	-1E+10	1	-1E+10	1	-1E+10	1
4902551	91	C	02/19/2023	07:02	-131.304	47.837	0	672.90	0	3.7950	0	34.1870	0	27.165	0	666.181	0	20.6	4	6.5	4	-1E+10	1	-1E+10	1	-1E+10	1	-1E+10	1	-1E+10	1	-1E+10	1
4902551	91	C	02/19/2023	07:02	-131.304	47.837	0	677.50	0	3.7870	0	34.1890	0	27.168	0	670.728	0	20.3	4	6.4	4	-1E+10	1	-1E+10	1	-1E+10	1	-1E+10	1	-1E+10	1	-1E+10	1
4902551	91	C	02/19/2023	07:02	-131.304	47.837	0	682.60	0	3.7770	0	34.1910	0	27.170	0	675.769	0	20.0	4	6.3	4	-1E+10	1	-1E+10	1	-1E+10	1	-1E+10	1	-1E+10	1	-1E+10	1
4902551	91	C	02/19/2023	07:02	-131.304	47.837	0	687.70	0	3.7600	0	34.1960	0	27.176	0	680.809	0	19.6	4	6.1	4	-1E+10	1	-1E+10	1	-1E+10	1	-1E+10	1	-1E+10	1	-1E+10	1
4902551	91	C	02/19/2023	07:02	-131.304	47.837	0	692.80	0	3.7470	0	34.2000	0	27.180	0	685.850	0	19.2	4	6.0	4	-1E+10	1	-1E+10	1	-1E+10	1	-1E+10	1	-1E+10	1	-1E+10	1
4902551	91	C	02/19/2023	07:02	-131.304	47.837	0	697.90	0	3.7360	0	34.2030	0	27.184	0	690.890	0	18.9	4	5.9	4	-1E+10	1	-1E+10	1	-1E+10	1	-1E+10	1	-1E+10	1	-1E+10	1
4902551	91	C	02/19/2023	07:02	-131.304	47.837	0	703.10	0	3.7140	0	34.2090	0	27.191	0	696.029	0	18.6	4	5.8	4	-1E+10	1	-1E+10	1	-1E+10	1	-1E+10	1	-1E+10	1	-1E+10	1
4902551	91	C	02/19/2023	07:02	-131.304	47.837	0	707.80	0	3.6950	0	34.2140	0	27.197	0	700.674	0	18.4	4	5.8	4	-1E+10	1	-1E+10	1	-1E+10	1	-1E+10	1	-1E+10	1	-1E+10	1
4902551	91	C	02/19/2023	07:02	-131.304	47.837	0	712.60	0	3.6820	0	34.2170	0	27.200	0	705.418	0	18.2	4	5.7	4	-1E+10	1	-1E+10	1	-1E+10	1	-1E+10	1	-1E+10	1	-1E+10	1
4902551	91	C	02/19/2023	07:02	-131.304	47.837	0	717.90	0	3.6670	0	34.2200	0	27.204	0	710.655	0	18.0	4	5.6	4	-1E+10	1	-1E+10	1	-1E+10	1	-1E+10	1	-1E+10	1	-1E+10	1
4902551	91	C	02/19/2023	07:02	-131.304	47.837	0	723.20	0	3.6490	0	34.2240	0	27.209	0	715.893	0	17.8	4	5.6	4	-1E+10	1	-1E+10	1	-1E+10	1	-1E+10	1	-1E+10	1	-1E+10	1
4902551	91	C	02/19/2023	07:02	-131.304	47.837	0	728.10	0	3.6430	0	34.2260	0	27.212	0	720.735	0	17.6	4	5.5	4	-1E+10	1	-1E+10	1	-1E+10	1	-1E+10	1	-1E+10	1	-1E+10	1
4902551	91	C	02/19/2023	07:02	-131.304	47.837	0	733.20	0	3.6310	0	34.2290	0	27.215	0	725.774	0	17.4	4	5.4	4	-1E+10	1	-1E+10	1	-1E+10	1	-1E+10	1	-1E+10	1	-1E+10	1
4902551	91	C	02/19/2023	07:02	-131.304	47.837	0	738.20	0	3.6180	0	34.2320	0	27.219	0	730.715	0	17.1	4	5.4	4	-1E+10	1	-1E+10	1	-1E+10	1	-1E+10	1	-1E+10	1	-1E+10	1
4902551	91	C	02/19/2023	07:02	-131.304	47.837	0	743.30	0	3.6060	0	34.2350	0	27.222	0	735.754	0	16.8	4	5.3	4	-1E+10	1	-1E+10	1	-1E+10	1	-1E+10	1	-1E+10	1	-1E+10	1
4902551	91	C	02/19/2023	07:02	-131.304	47.837	0	748.00	0	3.5860	0	34.2400	0	27.228	0	740.398	0	16.6	4	5.2	4	-1E+10	1	-1E+10	1	-1E+10	1	-1E+10	1	-1E+10	1	-1E+10	1
4902551	91	C	02/19/2023	07:02	-131.304	47.837	0	752.70	0	3.5730	0	34.2440	0	27.233	0	745.042	0	16.3	4	5.1	4	-1E+10	1	-1E+10	1	-1E+10	1	-1E+10	1	-1E+10	1	-1E+10	1
4902551	91	C	02/19/2023	07:02	-131.304	47.837	0	757.90	0	3.5620	0	34.2460	0	27.236	0	750.180	0	16.1	4	5.0	4	-1E+10	1	-1E+10	1	-1E+10	1	-1E+10	1	-1E+10	1	-1E+10	1
4902551	91	C	02/19/2023	07:02	-131.304	47.837	0	763.10	0	3.5480	0	34.2500	0	27.240	0	755.317	0	15.8	4	4.9	4	-1E+10	1	-1E+10	1	-1E+10	1	-1E+10	1	-1E+10	1	-1E+10	1
4902551	91	C	02/19/2023	07:02	-131.304	47.837	0	768.00	0	3.5260	0	34.2560	0	27.247	0	760.159	0	15.6	4	4.9	4	-1E+10	1	-1E+10	1	-1E+10	1	-1E+10	1	-1E+10	1	-1E+10	1
4902551	91	C	02/19/2023	07:02	-131.304	47.837	0	772.90	0	3.5180	0	34.2580	0	27.249	0	765.000	0	15.5	4	4.8	4	-1E+10	1	-1E+10	1	-1E+10	1	-1E+10	1	-1E+10	1	-1E+10	1
4902551	91	C	02/19/2023	07:02	-131.304	47.837	0	777.80	0	3.5130	0	34.2590	0	27.251	0	769.840	0	15.3	4	4.8	4	-1E+10	1	-1E+10	1	-1E+10	1	-1E+10	1	-1E+10	1	-1E+10	1
4902551	91	C	02/19/2023	07:02	-131.304	47.837	0	782.70	0	3.5020	0	34.2620	0	27.254	0	774.681	0	15.1	4	4.7	4	-1E+10	1	-1E+10	1	-1E+10	1	-1E+10	1	-1E+10	1	-1E+10	1
4902551	91	C	02/19/2023	07:02	-131.304	47.837	0	787.90	0	3.4930	0	34.2640	0	27.257	0	779.818	0	15.0	4	4.7	4	-1E+10	1	-1E+10	1	-1E+10	1	-1E+10	1	-1E+10	1	-1E+10	1
4902551	91	C	02/19/2023	07:02	-131.304	47.837	0	792.60	0	3.4780	0	34.2680	0	27.261	0	784.461	0	14.8	4	4.6	4	-1E+10	1	-1E+10	1	-1E+10	1	-1E+10	1	-1E+10	1	-1E+10	1
4902551	91	C	02/19/2023	07:02	-131.304	47.837	0	797.90	0	3.4650	0	34.2710	0	27.265	0	789.697	0	14.6	4	4.6	4	-1E+10	1	-1E+10	1	-1E+10	1	-1E+10	1	-1E+10	1	-1E+10	1
4902551	91	C	02/19/2023	07:02	-131.304	47.837	0	803.20	0	3.4580	0	34.2730	0	27.267	0	794.932	0	14.5	4	4.5	4	-1E+10	1	-1E+10	1	-1E+10	1	-1E+10	1	-1E+10	1	-1E+10	1
4902551	91	C	02/19/2023	07:02	-131.304	47.837	0	808.10	0	3.4500	0	34.2750	0	27.270	0	799.772	0	14.3	4	4.5	4	-1E+10	1	-1E+10	1	-1E+10	1	-1E+10	1	-1E+10	1	-1E+10	1
4902551	91	C	02/19/2023	07:02	-131.304	47.837	0	813.10	0	3.4410	0	34.2780	0	27.273	0	804.711	0	14.2	4	4.4	4	-1E+10	1	-1E+10	1	-1E+10	1	-1E+10	1	-1E+10	1	-1E+10	1
4902551	91	C	02/19/2023	07:02	-131.304	47.837	0	818.10	0	3.4340	0	34.2790	0	27.274	0	809.650	0	14.0	4	4.3	4	-1E+10	1	-1E+10	1	-1E+10	1	-1E+10	1	-1E+10	1	-1E+10	1
4902551	91	C	02/19/2023	07:02	-131.304	47.837	0	823.20	0	3.4140	0	34.2850	0	27.281	0	814.687	0	13.7	4	4.3	4	-1E+10	1	-1E+10	1	-1E+10	1	-1E+10	1	-1E+10	1	-1E+10	1
4902551	91	C	02/19/2023	07:02	-131.304	47.837	0	828.40	0	3.4030	0	34.2880	0	27.285	0	819.823	0	13.6	4	4.2	4	-1E+10	1	-1E+10	1	-1E+10	1	-1E+10	1	-1E+10	1	-1E+10	1
4902551	91	C	02/19/2023	07:02	-131.304	47.837	0	833.00	0	3.3950	0	34.2910	0	27.288	0	824.367	0	13.6	4	4.2	4	-1E+10	1	-1E+10	1	-1E+10	1	-1E+10	1	-1E+10	1	-1E+10	1
4902551	91	C	02/19/2023	07:02	-131.304	47.837	0	837.60	0	3.3940	0	34.2920	0	27.289	0	828.910	0	13.5	4	4.2	4	-1E+10	1	-1E+10	1	-1E+10	1	-1E+10	1	-1E+10	1	-1E+10	1
4902551	91	C	02/19/2023	07:02	-131.304	47.837	0	842.80	0	3.3920	0	34.2920	0	27.289	0	834.045	0	13.4	4	4.2	4	-1E+10	1	-1E+10	1	-1E+10	1	-1E+10	1	-1E+10	1	-1E+10	1
4902551	91	C	02/19/2023	07:02	-131.304	47.837	0	848.10	0	3.3860	0	34.2940	0	27.291	0	839.280	0	13.4	4	4.2	4	-1E+10	1	-1E+10	1	-1E+10	1	-1E+10	1	-1E+10	1	-1E+10	1
4902551	91	C	02/19/2023	07:02	-131.304	47.837	0	852.90	0	3.3820	0	34.2950	0	27.292	0	844.020	0	13.3	4	4.1	4	-1E+10	1	-1E+10	1	-1E+10	1	-1E+10	1	-1E+10	1	-1E+10	1
4902551	91	C	02/19/2023	07:02	-131.304	47.837	0	857.70	0	3.3810	0	34.2960	0	27.293	0	848.761	0	13.2	4	4.1	4	-1E+10	1	-1E+10	1	-1E+10	1	-1E+10	1	-1E+10	1	-1E+10	1
4902551	91	C	02/19/2023	07:02	-131.304	47.837	0	863.10	0	3.3730	0	34.2980	0	27.296	0	854.093	0	13.0	4	4.0	4	-1E+10	1	-1E+10	1	-1E+10	1	-1E+10	1	-1E+10	1	-1E+10	1
4902551	91	C	02/19/2023	07:02	-131.304	47.837	0	868.00	0	3.3570	0	34.3020	0	27.300	0	858.932	0	12.8	4	4.0	4	-1E+10	1	-1E+10	1	-1E+10	1	-1E+10	1	-1E+10	1	-1E+10	1
4902551	91	C	02/19/2023	07:02	-131.304	47.837	0	872.90	0	3.3400	0	34.3070	0	27.306	0	863.771	0	12.7	4	4.0	4	-1E+10	1	-1E+10	1	-1E+10	1	-1E+10	1	-1E+10	1	-1E+10	1
4902551	91	C	02/19/2023	07:02	-131.304	47.837	0	877.80	0	3.3310	0	34.3100	0	27.309	0	868.609	0	12.7	4	3.9	4	-1E+10	1	-1E+10	1	-1E+10	1	-1E+10	1	-1E+10	1	-1E+10	1
4902551	91	C	02/19/2023	07:02	-131.304	47.837	0	882.80	0	3.3270	0	34.3120	0	27.311	0	873.546	0	12.6	4	3.9	4	-1E+10	1	-1E+10	1	-1E+10	1	-1E+10	1	-1E+10	1	-1E+10	1
4902551	91	C	02/19/2023	07:02	-131.304	47.837	0	887.80	0	3.3270	0	34.3130	0	27.312	0	878.484	0	12.5	4	3.9	4	-1E+10	1	-1E+10	1	-1E+10	1	-1E+10	1	-1E+10	1	-1E+10	1
4902551	91	C	02/19/2023	07:02	-131.304	47.837	0	892.80	0	3.3280	0	34.3130	0	27.312	0	883.421	0	12.5	4	3.9	4	-1E+10	1	-1E+10	1	-1E+10	1	-1E+10	1	-1E+10	1	-1E+10	1
4902551	91	C	02/19/2023	07:02	-131.304	47.837	0	897.80	0	3.3260	0	34.3140	0	27.313	0	888.357	0	12.4	4	3.9	4	-1E+10	1	-1E+10	1	-1E+10	1	-1E+10	1	-1E+10	1	-1E+10	1
4902551	91	C	02/19/2023	07:02	-131.304	47.837	0	902.80	0	3.3240	0	34.3140	0	27.313	0	893.294	0	12.3	4	3.8	4	-1E+10	1	-1E+10	1	-1E+10	1	-1E+10	1	-1E+10	1	-1E+10	1
4902551	91	C	02/19/2023	07:02	-131.304	47.837	0	907.70	0	3.3170	0	34.3160	0	27.316	0	898.132	0	12.2	4	3.8	4	-1E+10	1	-1E+10	1	-1E+10	1	-1E+10	1	-1E+10	1	-1E+10	1
4902551	91	C	02/19/2023	07:02	-131.304	47.837	0	912.70	0	3.2970	0	34.3220	0	27.322	0	903.069	0	12.1	4	3.7	4	-1E+10	1	-1E+10	1	-1E+10	1	-1E+10	1	-1E+10	1	-1E+10	1
4902551	91	C	02/19/2023	07:02	-131.304	47.837	0	918.10	0	3.2850	0	34.3260	0	27.327	0	908.400	0	12.0	4	3.7	4	-1E+10	1	-1E+10	1	-1E+10	1	-1E+10	1	-1E+10	1	-1E+10	1
4902551	91	C	02/19/2023	07:02	-131.304	47.837	0	923.10	0	3.2700	0	34.3310	0	27.332	0	913.336	0	11.9	4	3.7	4	-1E+10	1	-1E+10	1	-1E+10	1	-1E+10	1	-1E+10	1	-1E+10	1
4902551	91	C	02/19/2023	07:02	-131.304	47.837	0	927.60	0	3.2630	0	34.3320	0	27.334	0	917.779	0	11.8	4	3.7	4	-1E+10	1	-1E+10	1	-1E+10	1	-1E+10	1	-1E+10	1	-1E+10	1
4902551	91	C	02/19/2023	07:02	-131.304	47.837	0	932.60	0	3.2660	0	34.3340	0	27.335	0	922.715	0	11.7	4	3.6	4	-1E+10	1	-1E+10	1	-1E+10	1	-1E+10	1	-1E+10	1	-1E+10	1
4902551	91	C	02/19/2023	07:02	-131.304	47.837	0	937.70	0	3.2570	0	34.3360	0	27.337	0	927.749	0	11.7	4	3.6	4	-1E+10	1	-1E+10	1	-1E+10	1	-1E+10	1	-1E+10	1	-1E+10	1
4902551	91	C	02/19/2023	07:02	-131.304	47.837	0	942.90	0	3.2480	0	34.3390	0	27.341	0	932.883	0	11.7	4	3.6	4	-1E+10	1	-1E+10	1	-1E+10	1	-1E+10	1	-1E+10	1	-1E+10	1
4902551	91	C	02/19/2023	07:02	-131.304	47.837	0	947.90	0	3.2300	0	34.3410	0	27.344	0	937.818	0	11.7	4	3.6	4	-1E+10	1	-1E+10	1	-1E+10	1	-1E+10	1	-1E+10	1	-1E+10	1
4902551	91	C	02/19/2023	07:02	-131.304	47.837	0	953.10	0	3.2150	0	34.3450	0	27.349	0	942.951	0	11.7	4	3.6	4	-1E+10	1	-1E+10	1	-1E+10	1	-1E+10	1	-1E+10	1	-1E+10	1
4902551	91	C	02/19/2023	07:02	-131.304	47.837	0	958.20	0	3.1980	0	34.3480	0	27.353	0	947.985	0	11.7	4	3.6	4	-1E+10	1	-1E+10	1	-1E+10	1	-1E+10	1	-1E+10	1	-1E+10	1
4902551	91	C	02/19/2023	07:02	-131.304	47.837	0	963.00	0	3.1880	0	34.3500	0	27.355	0	952.723	0	11.7	4	3.6	4	-1E+10	1	-1E+10	1	-1E+10	1	-1E+10	1	-1E+10	1	-1E+10	1
4902551	91	C	02/19/2023	07:02	-131.304	47.837	0	967.90	0	3.1880	0	34.3500	0	27.355	0	957.560	0	11.7	4	3.6	4	-1E+10	1	-1E+10	1	-1E+10	1	-1E+10	1	-1E+10	1	-1E+10	1
4902551	91	C	02/19/2023	07:02	-131.304	47.837	0	973.10	0	3.1860	0	34.3500	0	27.355	0	962.692	0	11.7	4	3.6	4	-1E+10	1	-1E+10	1	-1E+10	1	-1E+10	1	-1E+10	1	-1E+10	1
4902551	91	C	02/19/2023	07:02	-131.304	47.837	0	978.00	0	3.1700	0	34.3540	0	27.360	0	967.529	0	11.7	4	3.6	4	-1E+10	1	-1E+10	1	-1E+10	1	-1E+10	1	-1E+10	1	-1E+10	1
4902551	91	C	02/19/2023	07:02	-131.304	47.837	0	982.90	0	3.1520	0	34.3570	0	27.364	0	972.365	0	11.7	4	3.6	4	-1E+10	1	-1E+10	1	-1E+10	1	-1E+10	1	-1E+10	1	-1E+10	1
4902551	91	C	02/19/2023	07:02	-131.304	47.837	0	987.90	0	3.1360	0	34.3610	0	27.369	0	977.300	0	11.7	4	3.6	4	-1E+10	1	-1E+10	1	-1E+10	1	-1E+10	1	-1E+10	1	-1E+10	1
4902551	91	C	02/19/2023	07:02	-131.304	47.837	0	992.80	0	3.1310	0	34.3630	0	27.371	0	982.136	0	11.7	4	3.6	4	-1E+10	1	-1E+10	1	-1E+10	1	-1E+10	1	-1E+10	1	-1E+10	1
4902551	91	C	02/19/2023	07:02	-131.304	47.837	0	997.80	0	3.1200	0	34.3650	0	27.374	0	987.070	0	11.7	4	3.6	4	-1E+10	1	-1E+10	1	-1E+10	1	-1E+10	1	-1E+10	1	-1E+10	1
4902551	91	C	02/19/2023	07:02	-131.304	47.837	0	1005.20	0	3.1040	0	34.3680	0	27.377	0	994.373	0	11.7	4	3.6	4	-1E+10	1	-1E+10	1	-1E+10	1	-1E+10	1	-1E+10	1	-1E+10	1
4902551	91	C	02/19/2023	07:02	-131.304	47.837	0	1015.50	0	3.0900	0	34.3710	0	27.381	0	1004.537	0	11.7	4	3.6	4	-1E+10	1	-1E+10	1	-1E+10	1	-1E+10	1	-1E+10	1	-1E+10	1
4902551	91	C	02/19/2023	07:02	-131.304	47.837	0	1025.70	0	3.0770	0	34.3750	0	27.386	0	1014.602	0	11.7	4	3.6	4	-1E+10	1	-1E+10	1	-1E+10	1	-1E+10	1	-1E+10	1	-1E+10	1
4902551	91	C	02/19/2023	07:02	-131.304	47.837	0	1035.70	0	3.0590	0	34.3790	0	27.390	0	1024.470	0	11.8	4	3.6	4	-1E+10	1	-1E+10	1	-1E+10	1	-1E+10	1	-1E+10	1	-1E+10	1
4902551	91	C	02/19/2023	07:02	-131.304	47.837	0	1045.30	0	3.0460	0	34.3820	0	27.394	0	1033.942	0	11.8	4	3.7	4	-1E+10	1	-1E+10	1	-1E+10	1	-1E+10	1	-1E+10	1	-1E+10	1
4902551	91	C	02/19/2023	07:02	-131.304	47.837	0	1055.20	0	3.0290	0	34.3840	0	27.397	0	1043.710	0	11.9	4	3.7	4	-1E+10	1	-1E+10	1	-1E+10	1	-1E+10	1	-1E+10	1	-1E+10	1
4902551	91	C	02/19/2023	07:02	-131.304	47.837	0	1065.20	0	3.0070	0	34.3890	0	27.403	0	1053.576	0	12.0	4	3.7	4	-1E+10	1	-1E+10	1	-1E+10	1	-1E+10	1	-1E+10	1	-1E+10	1
4902551	91	C	02/19/2023	07:02	-131.304	47.837	0	1075.50	0	2.9850	0	34.3930	0	27.409	0	1063.737	0	12.1	4	3.7	4	-1E+10	1	-1E+10	1	-1E+10	1	-1E+10	1	-1E+10	1	-1E+10	1
4902551	91	C	02/19/2023	07:02	-131.304	47.837	0	1085.20	0	2.9720	0	34.3950	0	27.411	0	1073.307	0	12.1	4	3.7	4	-1E+10	1	-1E+10	1	-1E+10	1	-1E+10	1	-1E+10	1	-1E+10	1
4902551	91	C	02/19/2023	07:02	-131.304	47.837	0	1095.60	0	2.9530	0	34.3990	0	27.416	0	1083.566	0	12.2	4	3.8	4	-1E+10	1	-1E+10	1	-1E+10	1	-1E+10	1	-1E+10	1	-1E+10	1
4902551	91	C	02/19/2023	07:02	-131.304	47.837	0	1105.50	0	2.9400	0	34.4010	0	27.419	0	1093.331	0	12.3	4	3.8	4	-1E+10	1	-1E+10	1	-1E+10	1	-1E+10	1	-1E+10	1	-1E+10	1
4902551	91	C	02/19/2023	07:02	-131.304	47.837	0	1115.50	0	2.9170	0	34.4040	0	27.424	0	1103.195	0	12.5	4	3.8	4	-1E+10	1	-1E+10	1	-1E+10	1	-1E+10	1	-1E+10	1	-1E+10	1
4902551	91	C	02/19/2023	07:02	-131.304	47.837	0	1125.30	0	2.8890	0	34.4080	0	27.429	0	1112.861	0	12.6	4	3.9	4	-1E+10	1	-1E+10	1	-1E+10	1	-1E+10	1	-1E+10	1	-1E+10	1
4902551	91	C	02/19/2023	07:02	-131.304	47.837	0	1135.00	0	2.8690	0	34.4110	0	27.434	0	1122.428	0	12.7	4	3.9	4	-1E+10	1	-1E+10	1	-1E+10	1	-1E+10	1	-1E+10	1	-1E+10	1
4902551	91	C	02/19/2023	07:02	-131.304	47.837	0	1144.90	0	2.8590	0	34.4130	0	27.436	0	1132.191	0	12.8	4	3.9	4	-1E+10	1	-1E+10	1	-1E+10	1	-1E+10	1	-1E+10	1	-1E+10	1
4902551	91	C	02/19/2023	07:02	-131.304	47.837	0	1155.00	0	2.8470	0	34.4150	0	27.439	0	1142.152	0	13.0	4	4.0	4	-1E+10	1	-1E+10	1	-1E+10	1	-1E+10	1	-1E+10	1	-1E+10	1
4902551	91	C	02/19/2023	07:02	-131.304	47.837	0	1165.30	0	2.8360	0	34.4200	0	27.444	0	1152.309	0	13.2	4	4.1	4	-1E+10	1	-1E+10	1	-1E+10	1	-1E+10	1	-1E+10	1	-1E+10	1
4902551	91	C	02/19/2023	07:02	-131.304	47.837	0	1175.50	0	2.8150	0	34.4230	0	27.448	0	1162.367	0	13.4	4	4.1	4	-1E+10	1	-1E+10	1	-1E+10	1	-1E+10	1	-1E+10	1	-1E+10	1
4902551	91	C	02/19/2023	07:02	-131.304	47.837	0	1185.30	0	2.7960	0	34.4280	0	27.454	0	1172.030	0	13.6	4	4.2	4	-1E+10	1	-1E+10	1	-1E+10	1	-1E+10	1	-1E+10	1	-1E+10	1
4902551	91	C	02/19/2023	07:02	-131.304	47.837	0	1195.40	0	2.7850	0	34.4300	0	27.457	0	1181.989	0	13.8	4	4.2	4	-1E+10	1	-1E+10	1	-1E+10	1	-1E+10	1	-1E+10	1	-1E+10	1
4902551	91	C	02/19/2023	07:02	-131.304	47.837	0	1205.50	0	2.7750	0	34.4320	0	27.459	0	1191.947	0	13.9	4	4.3	4	-1E+10	1	-1E+10	1	-1E+10	1	-1E+10	1	-1E+10	1	-1E+10	1
4902551	91	C	02/19/2023	07:02	-131.304	47.837	0	1215.10	0	2.7530	0	34.4350	0	27.463	0	1201.412	0	14.1	4	4.3	4	-1E+10	1	-1E+10	1	-1E+10	1	-1E+10	1	-1E+10	1	-1E+10	1
4902551	91	C	02/19/2023	07:02	-131.304	47.837	0	1225.30	0	2.7420	0	34.4370	0	27.466	0	1211.467	0	14.3	4	4.4	4	-1E+10	1	-1E+10	1	-1E+10	1	-1E+10	1	-1E+10	1	-1E+10	1
4902551	91	C	02/19/2023	07:02	-131.304	47.837	0	1235.60	0	2.7310	0	34.4400	0	27.469	0	1221.621	0	14.5	4	4.5	4	-1E+10	1	-1E+10	1	-1E+10	1	-1E+10	1	-1E+10	1	-1E+10	1
4902551	91	C	02/19/2023	07:02	-131.304	47.837	0	1245.20	0	2.7190	0	34.4420	0	27.472	0	1231.085	0	14.7	4	4.5	4	-1E+10	1	-1E+10	1	-1E+10	1	-1E+10	1	-1E+10	1	-1E+10	1
4902551	91	C	02/19/2023	07:02	-131.304	47.837	0	1255.30	0	2.7070	0	34.4450	0	27.476	0	1241.040	0	14.9	4	4.6	4	-1E+10	1	-1E+10	1	-1E+10	1	-1E+10	1	-1E+10	1	-1E+10	1
4902551	91	C	02/19/2023	07:02	-131.304	47.837	0	1265.10	0	2.6960	0	34.4480	0	27.479	0	1250.700	0	15.2	4	4.7	4	-1E+10	1	-1E+10	1	-1E+10	1	-1E+10	1	-1E+10	1	-1E+10	1
4902551	91	C	02/19/2023	07:02	-131.304	47.837	0	1275.10	0	2.6820	0	34.4510	0	27.483	0	1260.556	0	15.5	4	4.7	4	-1E+10	1	-1E+10	1	-1E+10	1	-1E+10	1	-1E+10	1	-1E+10	1
4902551	91	C	02/19/2023	07:02	-131.304	47.837	0	1285.40	0	2.6660	0	34.4530	0	27.486	0	1270.708	0	15.7	4	4.8	4	-1E+10	1	-1E+10	1	-1E+10	1	-1E+10	1	-1E+10	1	-1E+10	1
4902551	91	C	02/19/2023	07:02	-131.304	47.837	0	1295.60	0	2.6540	0	34.4550	0	27.488	0	1280.760	0	16.0	4	4.9	4	-1E+10	1	-1E+10	1	-1E+10	1	-1E+10	1	-1E+10	1	-1E+10	1
4902551	91	C	02/19/2023	07:02	-131.304	47.837	0	1305.80	0	2.6360	0	34.4570	0	27.492	0	1290.812	0	16.4	4	5.0	4	-1E+10	1	-1E+10	1	-1E+10	1	-1E+10	1	-1E+10	1	-1E+10	1
4902551	91	C	02/19/2023	07:02	-131.304	47.837	0	1315.50	0	2.6180	0	34.4590	0	27.495	0	1300.371	0	16.9	4	5.2	4	-1E+10	1	-1E+10	1	-1E+10	1	-1E+10	1	-1E+10	1	-1E+10	1
4902551	91	C	02/19/2023	07:02	-131.304	47.837	0	1325.20	0	2.5790	0	34.4650	0	27.503	0	1309.929	0	17.5	4	5.3	4	-1E+10	1	-1E+10	1	-1E+10	1	-1E+10	1	-1E+10	1	-1E+10	1
4902551	91	C	02/19/2023	07:02	-131.304	47.837	0	1335.50	0	2.5660	0	34.4680	0	27.507	0	1320.078	0	18.0	4	5.5	4	-1E+10	1	-1E+10	1	-1E+10	1	-1E+10	1	-1E+10	1	-1E+10	1
4902551	91	C	02/19/2023	07:02	-131.304	47.837	0	1345.50	0	2.5450	0	34.4720	0	27.512	0	1329.931	0	18.6	4	5.7	4	-1E+10	1	-1E+10	1	-1E+10	1	-1E+10	1	-1E+10	1	-1E+10	1
4902551	91	C	02/19/2023	07:02	-131.304	47.837	0	1355.20	0	2.5280	0	34.4750	0	27.515	0	1339.488	0	19.1	4	5.8	4	-1E+10	1	-1E+10	1	-1E+10	1	-1E+10	1	-1E+10	1	-1E+10	1
4902551	91	C	02/19/2023	07:02	-131.304	47.837	0	1365.40	0	2.5130	0	34.4780	0	27.519	0	1349.537	0	19.4	4	5.9	4	-1E+10	1	-1E+10	1	-1E+10	1	-1E+10	1	-1E+10	1	-1E+10	1
4902551	91	C	02/19/2023	07:02	-131.304	47.837	0	1375.60	0	2.5030	0	34.4790	0	27.521	0	1359.586	0	19.8	4	6.0	4	-1E+10	1	-1E+10	1	-1E+10	1	-1E+10	1	-1E+10	1	-1E+10	1
4902551	91	C	02/19/2023	07:02	-131.304	47.837	0	1385.40	0	2.4880	0	34.4820	0	27.525	0	1369.240	0	20.2	4	6.2	4	-1E+10	1	-1E+10	1	-1E+10	1	-1E+10	1	-1E+10	1	-1E+10	1
4902551	91	C	02/19/2023	07:02	-131.304	47.837	0	1395.40	0	2.4750	0	34.4840	0	27.527	0	1379.091	0	20.5	4	6.3	4	-1E+10	1	-1E+10	1	-1E+10	1	-1E+10	1	-1E+10	1	-1E+10	1
4902551	91	C	02/19/2023	07:02	-131.304	47.837	0	1405.30	0	2.4550	0	34.4870	0	27.531	0	1388.842	0	20.9	4	6.4	4	-1E+10	1	-1E+10	1	-1E+10	1	-1E+10	1	-1E+10	1	-1E+10	1
4902551	91	C	02/19/2023	07:02	-131.304	47.837	0	1415.10	0	2.4450	0	34.4880	0	27.533	0	1398.495	0	21.3	4	6.5	4	-1E+10	1	-1E+10	1	-1E+10	1	-1E+10	1	-1E+10	1	-1E+10	1
4902551	91	C	02/19/2023	07:02	-131.304	47.837	0	1425.20	0	2.4240	0	34.4920	0	27.538	0	1408.443	0	21.8	4	6.6	4	-1E+10	1	-1E+10	1	-1E+10	1	-1E+10	1	-1E+10	1	-1E+10	1
4902551	91	C	02/19/2023	07:02	-131.304	47.837	0	1435.60	0	2.4130	0	34.4940	0	27.541	0	1418.686	0	22.2	4	6.8	4	-1E+10	1	-1E+10	1	-1E+10	1	-1E+10	1	-1E+10	1	-1E+10	1
4902551	91	C	02/19/2023	07:02	-131.304	47.837	0	1445.50	0	2.4010	0	34.4950	0	27.543	0	1428.436	0	22.6	4	6.9	4	-1E+10	1	-1E+10	1	-1E+10	1	-1E+10	1	-1E+10	1	-1E+10	1
4902551	91	C	02/19/2023	07:02	-131.304	47.837	0	1455.30	0	2.3920	0	34.4970	0	27.545	0	1438.087	0	23.0	4	7.0	4	-1E+10	1	-1E+10	1	-1E+10	1	-1E+10	1	-1E+10	1	-1E+10	1
4902551	91	C	02/19/2023	07:02	-131.304	47.837	0	1465.30	0	2.3790	0	34.4990	0	27.548	0	1447.934	0	23.4	4	7.1	4	-1E+10	1	-1E+10	1	-1E+10	1	-1E+10	1	-1E+10	1	-1E+10	1
4902551	91	C	02/19/2023	07:02	-131.304	47.837	0	1475.30	0	2.3720	0	34.5010	0	27.550	0	1457.781	0	23.9	4	7.3	4	-1E+10	1	-1E+10	1	-1E+10	1	-1E+10	1	-1E+10	1	-1E+10	1
4902551	91	C	02/19/2023	07:02	-131.304	47.837	0	1485.60	0	2.3520	0	34.5040	0	27.554	0	1467.923	0	24.7	4	7.5	4	-1E+10	1	-1E+10	1	-1E+10	1	-1E+10	1	-1E+10	1	-1E+10	1
4902551	91	C	02/19/2023	07:02	-131.304	47.837	0	1495.70	0	2.3420	0	34.5060	0	27.556	0	1477.867	0	25.2	4	7.7	4	-1E+10	1	-1E+10	1	-1E+10	1	-1E+10	1	-1E+10	1	-1E+10	1
4902551	91	C	02/19/2023	07:02	-131.304	47.837	0	1505.60	0	2.3300	0	34.5080	0	27.559	0	1487.615	0	25.6	4	7.8	4	-1E+10	1	-1E+10	1	-1E+10	1	-1E+10	1	-1E+10	1	-1E+10	1
4902551	91	C	02/19/2023	07:02	-131.304	47.837	0	1515.70	0	2.3240	0	34.5100	0	27.561	0	1497.558	0	26.1	4	7.9	4	-1E+10	1	-1E+10	1	-1E+10	1	-1E+10	1	-1E+10	1	-1E+10	1
4902551	91	C	02/19/2023	07:02	-131.304	47.837	0	1525.40	0	2.3130	0	34.5120	0	27.564	0	1507.108	0	26.6	4	8.1	4	-1E+10	1	-1E+10	1	-1E+10	1	-1E+10	1	-1E+10	1	-1E+10	1
4902551	91	C	02/19/2023	07:02	-131.304	47.837	0	1535.20	0	2.3040	0	34.5130	0	27.565	0	1516.755	0	27.1	4	8.2	4	-1E+10	1	-1E+10	1	-1E+10	1	-1E+10	1	-1E+10	1	-1E+10	1
4902551	91	C	02/19/2023	07:02	-131.304	47.837	0	1545.20	0	2.2930	0	34.5150	0	27.568	0	1526.599	0	27.8	4	8.4	4	-1E+10	1	-1E+10	1	-1E+10	1	-1E+10	1	-1E+10	1	-1E+10	1
4902551	91	C	02/19/2023	07:02	-131.304	47.837	0	1555.20	0	2.2820	0	34.5180	0	27.571	0	1536.442	0	28.4	4	8.6	4	-1E+10	1	-1E+10	1	-1E+10	1	-1E+10	1	-1E+10	1	-1E+10	1
4902551	91	C	02/19/2023	07:02	-131.304	47.837	0	1565.40	0	2.2740	0	34.5190	0	27.573	0	1546.482	0	29.0	4	8.8	4	-1E+10	1	-1E+10	1	-1E+10	1	-1E+10	1	-1E+10	1	-1E+10	1
4902551	91	C	02/19/2023	07:02	-131.304	47.837	0	1575.70	0	2.2570	0	34.5220	0	27.577	0	1556.619	0	29.6	4	9.0	4	-1E+10	1	-1E+10	1	-1E+10	1	-1E+10	1	-1E+10	1	-1E+10	1
4902551	91	C	02/19/2023	07:02	-131.304	47.837	0	1585.60	0	2.2510	0	34.5240	0	27.579	0	1566.363	0	30.0	4	9.1	4	-1E+10	1	-1E+10	1	-1E+10	1	-1E+10	1	-1E+10	1	-1E+10	1
4902551	91	C	02/19/2023	07:02	-131.304	47.837	0	1595.60	0	2.2430	0	34.5250	0	27.580	0	1576.204	0	30.4	4	9.2	4	-1E+10	1	-1E+10	1	-1E+10	1	-1E+10	1	-1E+10	1	-1E+10	1
4902551	91	C	02/19/2023	07:02	-131.304	47.837	0	1605.60	0	2.2320	0	34.5270	0	27.583	0	1586.045	0	31.0	4	9.4	4	-1E+10	1	-1E+10	1	-1E+10	1	-1E+10	1	-1E+10	1	-1E+10	1
4902551	91	C	02/19/2023	07:02	-131.304	47.837	0	1615.40	0	2.2210	0	34.5290	0	27.585	0	1595.689	0	31.6	4	9.6	4	-1E+10	1	-1E+10	1	-1E+10	1	-1E+10	1	-1E+10	1	-1E+10	1
4902551	91	C	02/19/2023	07:02	-131.304	47.837	0	1625.40	0	2.2120	0	34.5300	0	27.587	0	1605.529	0	32.1	4	9.7	4	-1E+10	1	-1E+10	1	-1E+10	1	-1E+10	1	-1E+10	1	-1E+10	1
4902551	91	C	02/19/2023	07:02	-131.304	47.837	0	1635.30	0	2.2020	0	34.5320	0	27.589	0	1615.270	0	32.6	4	9.9	4	-1E+10	1	-1E+10	1	-1E+10	1	-1E+10	1	-1E+10	1	-1E+10	1
4902551	91	C	02/19/2023	07:02	-131.304	47.837	0	1645.40	0	2.1980	0	34.5330	0	27.591	0	1625.208	0	33.1	4	10.0	4	-1E+10	1	-1E+10	1	-1E+10	1	-1E+10	1	-1E+10	1	-1E+10	1
4902551	91	C	02/19/2023	07:02	-131.304	47.837	0	1655.40	0	2.1890	0	34.5350	0	27.593	0	1635.047	0	33.8	4	10.2	4	-1E+10	1	-1E+10	1	-1E+10	1	-1E+10	1	-1E+10	1	-1E+10	1
4902551	91	C	02/19/2023	07:02	-131.304	47.837	0	1665.10	0	2.1770	0	34.5370	0	27.596	0	1644.590	0	34.4	4	10.4	4	-1E+10	1	-1E+10	1	-1E+10	1	-1E+10	1	-1E+10	1	-1E+10	1
4902551	91	C	02/19/2023	07:02	-131.304	47.837	0	1675.10	0	2.1660	0	34.5390	0	27.598	0	1654.428	0	35.0	4	10.6	4	-1E+10	1	-1E+10	1	-1E+10	1	-1E+10	1	-1E+10	1	-1E+10	1
4902551	91	C	02/19/2023	07:02	-131.304	47.837	0	1685.40	0	2.1550	0	34.5410	0	27.601	0	1664.560	0	35.6	4	10.8	4	-1E+10	1	-1E+10	1	-1E+10	1	-1E+10	1	-1E+10	1	-1E+10	1
4902551	91	C	02/19/2023	07:02	-131.304	47.837	0	1695.60	0	2.1490	0	34.5420	0	27.602	0	1674.594	0	36.1	4	10.9	4	-1E+10	1	-1E+10	1	-1E+10	1	-1E+10	1	-1E+10	1	-1E+10	1
4902551	91	C	02/19/2023	07:02	-131.304	47.837	0	1705.50	0	2.1420	0	34.5430	0	27.603	0	1684.332	0	36.7	4	11.1	4	-1E+10	1	-1E+10	1	-1E+10	1	-1E+10	1	-1E+10	1	-1E+10	1
4902551	91	C	02/19/2023	07:02	-131.304	47.837	0	1715.20	0	2.1350	0	34.5450	0	27.606	0	1693.873	0	37.1	4	11.2	4	-1E+10	1	-1E+10	1	-1E+10	1	-1E+10	1	-1E+10	1	-1E+10	1
4902551	91	C	02/19/2023	07:02	-131.304	47.837	0	1725.30	0	2.1300	0	34.5460	0	27.607	0	1703.807	0	37.5	4	11.3	4	-1E+10	1	-1E+10	1	-1E+10	1	-1E+10	1	-1E+10	1	-1E+10	1
4902551	91	C	02/19/2023	07:02	-131.304	47.837	0	1735.70	0	2.1220	0	34.5470	0	27.608	0	1714.035	0	37.9	4	11.5	4	-1E+10	1	-1E+10	1	-1E+10	1	-1E+10	1	-1E+10	1	-1E+10	1
4902551	91	C	02/19/2023	07:02	-131.304	47.837	0	1745.60	0	2.1190	0	34.5480	0	27.609	0	1723.771	0	38.4	4	11.6	4	-1E+10	1	-1E+10	1	-1E+10	1	-1E+10	1	-1E+10	1	-1E+10	1
4902551	91	C	02/19/2023	07:02	-131.304	47.837	0	1755.70	0	2.1100	0	34.5500	0	27.612	0	1733.704	0	38.8	4	11.7	4	-1E+10	1	-1E+10	1	-1E+10	1	-1E+10	1	-1E+10	1	-1E+10	1
4902551	91	C	02/19/2023	07:02	-131.304	47.837	0	1765.70	0	2.1070	0	34.5500	0	27.612	0	1743.537	0	39.4	4	11.9	4	-1E+10	1	-1E+10	1	-1E+10	1	-1E+10	1	-1E+10	1	-1E+10	1
4902551	91	C	02/19/2023	07:02	-131.304	47.837	0	1775.40	0	2.0960	0	34.5520	0	27.615	0	1753.076	0	40.0	4	12.1	4	-1E+10	1	-1E+10	1	-1E+10	1	-1E+10	1	-1E+10	1	-1E+10	1
4902551	91	C	02/19/2023	07:02	-131.304	47.837	0	1785.30	0	2.0910	0	34.5530	0	27.616	0	1762.810	0	40.8	4	12.3	4	-1E+10	1	-1E+10	1	-1E+10	1	-1E+10	1	-1E+10	1	-1E+10	1
4902551	91	C	02/19/2023	07:02	-131.304	47.837	0	1795.40	0	2.0780	0	34.5560	0	27.619	0	1772.741	0	41.7	4	12.6	4	-1E+10	1	-1E+10	1	-1E+10	1	-1E+10	1	-1E+10	1	-1E+10	1
4902551	91	C	02/19/2023	07:02	-131.304	47.837	0	1805.60	0	2.0670	0	34.5580	0	27.622	0	1782.769	0	42.6	4	12.9	4	-1E+10	1	-1E+10	1	-1E+10	1	-1E+10	1	-1E+10	1	-1E+10	1
4902551	91	C	02/19/2023	07:02	-131.304	47.837	0	1815.60	0	2.0530	0	34.5610	0	27.625	0	1792.601	0	43.3	4	13.1	4	-1E+10	1	-1E+10	1	-1E+10	1	-1E+10	1	-1E+10	1	-1E+10	1
4902551	91	C	02/19/2023	07:02	-131.304	47.837	0	1825.20	0	2.0470	0	34.5620	0	27.627	0	1802.038	0	43.8	4	13.2	4	-1E+10	1	-1E+10	1	-1E+10	1	-1E+10	1	-1E+10	1	-1E+10	1
4902551	91	C	02/19/2023	07:02	-131.304	47.837	0	1835.40	0	2.0400	0	34.5640	0	27.629	0	1812.065	0	44.2	4	13.3	4	-1E+10	1	-1E+10	1	-1E+10	1	-1E+10	1	-1E+10	1	-1E+10	1
4902551	91	C	02/19/2023	07:02	-131.304	47.837	0	1845.40	0	2.0360	0	34.5640	0	27.629	0	1821.895	0	44.6	4	13.5	4	-1E+10	1	-1E+10	1	-1E+10	1	-1E+10	1	-1E+10	1	-1E+10	1
4902551	91	C	02/19/2023	07:02	-131.304	47.837	0	1855.40	0	2.0330	0	34.5650	0	27.630	0	1831.725	0	45.0	4	13.6	4	-1E+10	1	-1E+10	1	-1E+10	1	-1E+10	1	-1E+10	1	-1E+10	1
4902551	91	C	02/19/2023	07:02	-131.304	47.837	0	1865.50	0	2.0270	0	34.5660	0	27.632	0	1841.652	0	45.8	4	13.8	4	-1E+10	1	-1E+10	1	-1E+10	1	-1E+10	1	-1E+10	1	-1E+10	1
4902551	91	C	02/19/2023	07:02	-131.304	47.837	0	1875.40	0	2.0160	0	34.5680	0	27.634	0	1851.383	0	46.4	4	14.0	4	-1E+10	1	-1E+10	1	-1E+10	1	-1E+10	1	-1E+10	1	-1E+10	1
4902551	91	C	02/19/2023	07:02	-131.304	47.837	0	1885.30	0	2.0120	0	34.5690	0	27.635	0	1861.113	0	46.8	4	14.1	4	-1E+10	1	-1E+10	1	-1E+10	1	-1E+10	1	-1E+10	1	-1E+10	1
4902551	91	C	02/19/2023	07:02	-131.304	47.837	0	1895.40	0	2.0080	0	34.5700	0	27.637	0	1871.039	0	47.3	4	14.3	4	-1E+10	1	-1E+10	1	-1E+10	1	-1E+10	1	-1E+10	1	-1E+10	1
4902551	91	C	02/19/2023	07:02	-131.304	47.837	0	1905.50	0	2.0040	0	34.5710	0	27.638	0	1880.964	0	47.8	4	14.4	4	-1E+10	1	-1E+10	1	-1E+10	1	-1E+10	1	-1E+10	1	-1E+10	1
4902551	91	C	02/19/2023	07:02	-131.304	47.837	0	1915.50	0	1.9980	0	34.5720	0	27.639	0	1890.791	0	48.4	4	14.6	4	-1E+10	1	-1E+10	1	-1E+10	1	-1E+10	1	-1E+10	1	-1E+10	1
4902551	91	C	02/19/2023	07:02	-131.304	47.837	0	1925.40	0	1.9910	0	34.5730	0	27.640	0	1900.519	0	49.0	4	14.8	4	-1E+10	1	-1E+10	1	-1E+10	1	-1E+10	1	-1E+10	1	-1E+10	1
4902551	91	C	02/19/2023	07:02	-131.304	47.837	0	1935.50	0	1.9850	0	34.5750	0	27.643	0	1910.443	0	49.6	4	14.9	4	-1E+10	1	-1E+10	1	-1E+10	1	-1E+10	1	-1E+10	1	-1E+10	1
4902551	91	C	02/19/2023	07:02	-131.304	47.837	0	1945.60	0	1.9790	0	34.5760	0	27.644	0	1920.367	0	50.1	4	15.1	4	-1E+10	1	-1E+10	1	-1E+10	1	-1E+10	1	-1E+10	1	-1E+10	1
4902551	91	C	02/19/2023	07:02	-131.304	47.837	0	1955.80	0	1.9710	0	34.5770	0	27.645	0	1930.389	0	50.7	4	15.3	4	-1E+10	1	-1E+10	1	-1E+10	1	-1E+10	1	-1E+10	1	-1E+10	1
4902551	91	C	02/19/2023	07:02	-131.304	47.837	0	1965.80	0	1.9660	0	34.5780	0	27.647	0	1940.213	0	51.5	4	15.5	4	-1E+10	1	-1E+10	1	-1E+10	1	-1E+10	1	-1E+10	1	-1E+10	1
4902551	91	C	02/19/2023	07:02	-131.304	47.837	0	1975.60	0	1.9560	0	34.5800	0	27.649	0	1949.841	0	52.1	4	15.7	4	-1E+10	1	-1E+10	1	-1E+10	1	-1E+10	1	-1E+10	1	-1E+10	1
4902551	91	C	02/19/2023	07:02	-131.304	47.837	0	1985.40	0	1.9490	0	34.5820	0	27.651	0	1959.468	0	52.7	4	15.9	4	-1E+10	1	-1E+10	1	-1E+10	1	-1E+10	1	-1E+10	1	-1E+10	1
4902551	91	C	02/19/2023	07:02	-131.304	47.837	0	1993.50	0	1.9430	0	34.5830	0	27.653	0	1967.425	0	53.2	4	16.0	4	-1E+10	1	-1E+10	1	-1E+10	1	-1E+10	1	-1E+10	1	-1E+10	1
4902551	91	C	02/19/2023	07:02	-131.304	47.837	0																										
4902551	93	C	03/11/2023	16:56	-131.207	47.819	0	1.90	0	7.7380	0	32.3540	0	25.234	0	1.884	0	273.9	4	93.1	4	-1E+10	1	-1E+10	1	-1E+10	1	-1E+10	1	-1E+10	1	-1E+10	1
4902551	93	C	03/11/2023	16:56	-131.207	47.819	0	2.00	0	7.7390	0	32.3540	0	25.234	0	1.983	0	274.0	4	93.1	4	-1E+10	1	-1E+10	1	-1E+10	1	-1E+10	1	-1E+10	1	-1E+10	1
4902551	93	C	03/11/2023	16:56	-131.207	47.819	0	2.10	0	7.7380	0	32.3540	0	25.234	0	2.082	0	-1e10	1	-1e10	1	-1E+10	1	-1E+10	1	-1E+10	1	-1E+10	1	-1E+10	1	-1E+10	1
4902551	93	C	03/11/2023	16:56	-131.207	47.819	0	2.20	0	7.7382	0	32.3540	0	25.234	0	2.182	0	273.6	4	93.0	4	-1E+10	1	-1E+10	1	-1E+10	1	-1E+10	1	-1E+10	1	-1E+10	1
4902551	93	C	03/11/2023	16:56	-131.207	47.819	0	2.60	0	7.7392	0	32.3540	0	25.234	0	2.578	0	273.6	4	93.0	4	-1E+10	1	-1E+10	1	-1E+10	1	-1E+10	1	-1E+10	1	-1E+10	1
4902551	93	C	03/11/2023	16:56	-131.207	47.819	0	2.90	0	7.7400	0	32.3540	0	25.234	0	2.876	0	273.6	4	93.0	4	-1E+10	1	-1E+10	1	-1E+10	1	-1E+10	1	-1E+10	1	-1E+10	1
4902551	93	C	03/11/2023	16:56	-131.207	47.819	0	3.90	0	7.7380	0	32.3550	0	25.235	0	3.867	0	273.5	4	93.0	4	-1E+10	1	-1E+10	1	-1E+10	1	-1E+10	1	-1E+10	1	-1E+10	1
4902551	93	C	03/11/2023	16:56	-131.207	47.819	0	5.00	0	7.7370	0	32.3560	0	25.236	0	4.958	0	273.6	4	93.0	4	-1E+10	1	-1E+10	1	-1E+10	1	-1E+10	1	-1E+10	1	-1E+10	1
4902551	93	C	03/11/2023	16:56	-131.207	47.819	0	5.90	0	7.7390	0	32.3550	0	25.235	0	5.851	0	273.5	4	93.0	4	-1E+10	1	-1E+10	1	-1E+10	1	-1E+10	1	-1E+10	1	-1E+10	1
4902551	93	C	03/11/2023	16:56	-131.207	47.819	0	6.90	0	7.7390	0	32.3560	0	25.236	0	6.842	0	273.5	4	93.0	4	-1E+10	1	-1E+10	1	-1E+10	1	-1E+10	1	-1E+10	1	-1E+10	1
4902551	93	C	03/11/2023	16:56	-131.207	47.819	0	8.00	0	7.7390	0	32.3560	0	25.236	0	7.933	0	273.5	4	93.0	4	-1E+10	1	-1E+10	1	-1E+10	1	-1E+10	1	-1E+10	1	-1E+10	1
4902551	93	C	03/11/2023	16:56	-131.207	47.819	0	8.90	0	7.7390	0	32.3560	0	25.236	0	8.825	0	273.5	4	93.0	4	-1E+10	1	-1E+10	1	-1E+10	1	-1E+10	1	-1E+10	1	-1E+10	1
4902551	93	C	03/11/2023	16:56	-131.207	47.819	0	9.90	0	7.7380	0	32.3560	0	25.236	0	9.817	0	273.5	4	92.9	4	-1E+10	1	-1E+10	1	-1E+10	1	-1E+10	1	-1E+10	1	-1E+10	1
4902551	93	C	03/11/2023	16:56	-131.207	47.819	0	11.00	0	7.7390	0	32.3560	0	25.236	0	10.908	0	273.3	4	92.9	4	-1E+10	1	-1E+10	1	-1E+10	1	-1E+10	1	-1E+10	1	-1E+10	1
4902551	93	C	03/11/2023	16:56	-131.207	47.819	0	12.10	0	7.7410	0	32.3560	0	25.235	0	11.998	0	273.3	4	92.9	4	-1E+10	1	-1E+10	1	-1E+10	1	-1E+10	1	-1E+10	1	-1E+10	1
4902551	93	C	03/11/2023	16:56	-131.207	47.819	0	12.90	0	7.7410	0	32.3560	0	25.235	0	12.792	0	273.3	4	92.9	4	-1E+10	1	-1E+10	1	-1E+10	1	-1E+10	1	-1E+10	1	-1E+10	1
4902551	93	C	03/11/2023	16:56	-131.207	47.819	0	13.80	0	7.7420	0	32.3560	0	25.235	0	13.684	0	273.4	4	92.9	4	-1E+10	1	-1E+10	1	-1E+10	1	-1E+10	1	-1E+10	1	-1E+10	1
4902551	93	C	03/11/2023	16:56	-131.207	47.819	0	14.90	0	7.7420	0	32.3560	0	25.235	0	14.775	0	273.3	4	92.9	4	-1E+10	1	-1E+10	1	-1E+10	1	-1E+10	1	-1E+10	1	-1E+10	1
4902551	93	C	03/11/2023	16:56	-131.207	47.819	0	16.00	0	7.7420	0	32.3560	0	25.235	0	15.865	0	273.2	4	92.9	4	-1E+10	1	-1E+10	1	-1E+10	1	-1E+10	1	-1E+10	1	-1E+10	1
4902551	93	C	03/11/2023	16:56	-131.207	47.819	0	17.10	0	7.7410	0	32.3560	0	25.235	0	16.956	0	273.3	4	92.9	4	-1E+10	1	-1E+10	1	-1E+10	1	-1E+10	1	-1E+10	1	-1E+10	1
4902551	93	C	03/11/2023	16:56	-131.207	47.819	0	18.00	0	7.7420	0	32.3560	0	25.235	0	17.848	0	273.3	4	92.9	4	-1E+10	1	-1E+10	1	-1E+10	1	-1E+10	1	-1E+10	1	-1E+10	1
4902551	93	C	03/11/2023	16:56	-131.207	47.819	0	18.80	0	7.7420	0	32.3560	0	25.235	0	18.642	0	273.2	4	92.9	4	-1E+10	1	-1E+10	1	-1E+10	1	-1E+10	1	-1E+10	1	-1E+10	1
4902551	93	C	03/11/2023	16:56	-131.207	47.819	0	19.90	0	7.7420	0	32.3560	0	25.235	0	19.732	0	273.2	4	92.9	4	-1E+10	1	-1E+10	1	-1E+10	1	-1E+10	1	-1E+10	1	-1E+10	1
4902551	93	C	03/11/2023	16:56	-131.207	47.819	0	21.00	0	7.7420	0	32.3560	0	25.235	0	20.823	0	273.2	4	92.9	4	-1E+10	1	-1E+10	1	-1E+10	1	-1E+10	1	-1E+10	1	-1E+10	1
4902551	93	C	03/11/2023	16:56	-131.207	47.819	0	21.90	0	7.7420	0	32.3560	0	25.235	0	21.715	0	273.2	4	92.9	4	-1E+10	1	-1E+10	1	-1E+10	1	-1E+10	1	-1E+10	1	-1E+10	1
4902551	93	C	03/11/2023	16:56	-131.207	47.819	0	22.80	0	7.7430	0	32.3560	0	25.235	0	22.608	0	273.2	4	92.9	4	-1E+10	1	-1E+10	1	-1E+10	1	-1E+10	1	-1E+10	1	-1E+10	1
4902551	93	C	03/11/2023	16:56	-131.207	47.819	0	24.10	0	7.7440	0	32.3560	0	25.235	0	23.897	0	273.1	4	92.8	4	-1E+10	1	-1E+10	1	-1E+10	1	-1E+10	1	-1E+10	1	-1E+10	1
4902551	93	C	03/11/2023	16:56	-131.207	47.819	0	25.10	0	7.7440	0	32.3560	0	25.235	0	24.888	0	273.1	4	92.9	4	-1E+10	1	-1E+10	1	-1E+10	1	-1E+10	1	-1E+10	1	-1E+10	1
4902551	93	C	03/11/2023	16:56	-131.207	47.819	0	26.10	0	7.7440	0	32.3560	0	25.235	0	25.880	0	273.2	4	92.9	4	-1E+10	1	-1E+10	1	-1E+10	1	-1E+10	1	-1E+10	1	-1E+10	1
4902551	93	C	03/11/2023	16:56	-131.207	47.819	0	27.10	0	7.7440	0	32.3560	0	25.235	0	26.871	0	273.1	4	92.8	4	-1E+10	1	-1E+10	1	-1E+10	1	-1E+10	1	-1E+10	1	-1E+10	1
4902551	93	C	03/11/2023	16:56	-131.207	47.819	0	28.00	0	7.7430	0	32.3560	0	25.235	0	27.764	0	273.1	4	92.8	4	-1E+10	1	-1E+10	1	-1E+10	1	-1E+10	1	-1E+10	1	-1E+10	1
4902551	93	C	03/11/2023	16:56	-131.207	47.819	0	29.00	0	7.7420	0	32.3560	0	25.235	0	28.755	0	273.1	4	92.8	4	-1E+10	1	-1E+10	1	-1E+10	1	-1E+10	1	-1E+10	1	-1E+10	1
4902551	93	C	03/11/2023	16:56	-131.207	47.819	0	30.00	0	7.7420	0	32.3560	0	25.235	0	29.747	0	273.1	4	92.8	4	-1E+10	1	-1E+10	1	-1E+10	1	-1E+10	1	-1E+10	1	-1E+10	1
4902551	93	C	03/11/2023	16:56	-131.207	47.819	0	31.10	0	7.7430	0	32.3560	0	25.235	0	30.837	0	273.2	4	92.9	4	-1E+10	1	-1E+10	1	-1E+10	1	-1E+10	1	-1E+10	1	-1E+10	1
4902551	93	C	03/11/2023	16:56	-131.207	47.819	0	32.10	0	7.7430	0	32.3560	0	25.235	0	31.829	0	273.1	4	92.8	4	-1E+10	1	-1E+10	1	-1E+10	1	-1E+10	1	-1E+10	1	-1E+10	1
4902551	93	C	03/11/2023	16:56	-131.207	47.819	0	33.10	0	7.7430	0	32.3560	0	25.235	0	32.820	0	273.1	4	92.8	4	-1E+10	1	-1E+10	1	-1E+10	1	-1E+10	1	-1E+10	1	-1E+10	1
4902551	93	C	03/11/2023	16:56	-131.207	47.819	0	34.00	0	7.7430	0	32.3560	0	25.235	0	33.712	0	273.1	4	92.8	4	-1E+10	1	-1E+10	1	-1E+10	1	-1E+10	1	-1E+10	1	-1E+10	1
4902551	93	C	03/11/2023	16:56	-131.207	47.819	0	34.90	0	7.7430	0	32.3560	0	25.235	0	34.605	0	273.1	4	92.8	4	-1E+10	1	-1E+10	1	-1E+10	1	-1E+10	1	-1E+10	1	-1E+10	1
4902551	93	C	03/11/2023	16:56	-131.207	47.819	0	35.90	0	7.7430	0	32.3560	0	25.235	0	35.596	0	273.0	4	92.8	4	-1E+10	1	-1E+10	1	-1E+10	1	-1E+10	1	-1E+10	1	-1E+10	1
4902551	93	C	03/11/2023	16:56	-131.207	47.819	0	36.80	0	7.7440	0	32.3560	0	25.235	0	36.489	0	273.0	4	92.8	4	-1E+10	1	-1E+10	1	-1E+10	1	-1E+10	1	-1E+10	1	-1E+10	1
4902551	93	C	03/11/2023	16:56	-131.207	47.819	0	37.80	0	7.7430	0	32.3560	0	25.235	0	37.480	0	273.0	4	92.8	4	-1E+10	1	-1E+10	1	-1E+10	1	-1E+10	1	-1E+10	1	-1E+10	1
4902551	93	C	03/11/2023	16:56	-131.207	47.819	0	38.80	0	7.7430	0	32.3560	0	25.235	0	38.471	0	272.9	4	92.8	4	-1E+10	1	-1E+10	1	-1E+10	1	-1E+10	1	-1E+10	1	-1E+10	1
4902551	93	C	03/11/2023	16:56	-131.207	47.819	0	39.90	0	7.7430	0	32.3560	0	25.235	0	39.562	0	273.0	4	92.8	4	-1E+10	1	-1E+10	1	-1E+10	1	-1E+10	1	-1E+10	1	-1E+10	1
4902551	93	C	03/11/2023	16:56	-131.207	47.819	0	40.90	0	7.7440	0	32.3560	0	25.235	0	40.553	0	272.9	4	92.8	4	-1E+10	1	-1E+10	1	-1E+10	1	-1E+10	1	-1E+10	1	-1E+10	1
4902551	93	C	03/11/2023	16:56	-131.207	47.819	0	41.90	0	7.7450	0	32.3560	0	25.235	0	41.545	0	272.9	4	92.8	4	-1E+10	1	-1E+10	1	-1E+10	1	-1E+10	1	-1E+10	1	-1E+10	1
4902551	93	C	03/11/2023	16:56	-131.207	47.819	0	42.90	0	7.7440	0	32.3560	0	25.235	0	42.536	0	272.9	4	92.8	4	-1E+10	1	-1E+10	1	-1E+10	1	-1E+10	1	-1E+10	1	-1E+10	1
4902551	93	C	03/11/2023	16:56	-131.207	47.819	0	43.90	0	7.7440	0	32.3560	0	25.235	0	43.528	0	272.9	4	92.8	4	-1E+10	1	-1E+10	1	-1E+10	1	-1E+10	1	-1E+10	1	-1E+10	1
4902551	93	C	03/11/2023	16:56	-131.207	47.819	0	45.00	0	7.7440	0	32.3560	0	25.235	0	44.618	0	272.9	4	92.8	4	-1E+10	1	-1E+10	1	-1E+10	1	-1E+10	1	-1E+10	1	-1E+10	1
4902551	93	C	03/11/2023	16:56	-131.207	47.819	0	45.90	0	7.7440	0	32.3560	0	25.235	0	45.511	0	272.9	4	92.8	4	-1E+10	1	-1E+10	1	-1E+10	1	-1E+10	1	-1E+10	1	-1E+10	1
4902551	93	C	03/11/2023	16:56	-131.207	47.819	0	46.90	0	7.7440	0	32.3560	0	25.235	0	46.502	0	272.8	4	92.7	4	-1E+10	1	-1E+10	1	-1E+10	1	-1E+10	1	-1E+10	1	-1E+10	1
4902551	93	C	03/11/2023	16:56	-131.207	47.819	0	47.80	0	7.7430	0	32.3560	0	25.235	0	47.394	0	272.8	4	92.7	4	-1E+10	1	-1E+10	1	-1E+10	1	-1E+10	1	-1E+10	1	-1E+10	1
4902551	93	C	03/11/2023	16:56	-131.207	47.819	0	49.10	0	7.7430	0	32.3560	0	25.235	0	48.683	0	272.8	4	92.7	4	-1E+10	1	-1E+10	1	-1E+10	1	-1E+10	1	-1E+10	1	-1E+10	1
4902551	93	C	03/11/2023	16:56	-131.207	47.819	0	50.00	0	7.7440	0	32.3560	0	25.235	0	49.575	0	272.9	4	92.8	4	-1E+10	1	-1E+10	1	-1E+10	1	-1E+10	1	-1E+10	1	-1E+10	1
4902551	93	C	03/11/2023	16:56	-131.207	47.819	0	50.90	0	7.7430	0	32.3560	0	25.236	0	50.467	0	272.8	4	92.7	4	-1E+10	1	-1E+10	1	-1E+10	1	-1E+10	1	-1E+10	1	-1E+10	1
4902551	93	C	03/11/2023	16:56	-131.207	47.819	0	51.90	0	7.7440	0	32.3560	0	25.235	0	51.459	0	272.7	4	92.7	4	-1E+10	1	-1E+10	1	-1E+10	1	-1E+10	1	-1E+10	1	-1E+10	1
4902551	93	C	03/11/2023	16:56	-131.207	47.819	0	52.80	0	7.7440	0	32.3560	0	25.235	0	52.351	0	272.7	4	92.7	4	-1E+10	1	-1E+10	1	-1E+10	1	-1E+10	1	-1E+10	1	-1E+10	1
4902551	93	C	03/11/2023	16:56	-131.207	47.819	0	54.00	0	7.7440	0	32.3560	0	25.235	0	53.541	0	272.7	4	92.7	4	-1E+10	1	-1E+10	1	-1E+10	1	-1E+10	1	-1E+10	1	-1E+10	1
4902551	93	C	03/11/2023	16:56	-131.207	47.819	0	54.80	0	7.7440	0	32.3560	0	25.235	0	54.334	0	272.7	4	92.7	4	-1E+10	1	-1E+10	1	-1E+10	1	-1E+10	1	-1E+10	1	-1E+10	1
4902551	93	C	03/11/2023	16:56	-131.207	47.819	0	55.80	0	7.7440	0	32.3560	0	25.235	0	55.325	0	272.6	4	92.7	4	-1E+10	1	-1E+10	1	-1E+10	1	-1E+10	1	-1E+10	1	-1E+10	1
4902551	93	C	03/11/2023	16:56	-131.207	47.819	0	57.00	0	7.7440	0	32.3560	0	25.235	0	56.515	0	272.6	4	92.7	4	-1E+10	1	-1E+10	1	-1E+10	1	-1E+10	1	-1E+10	1	-1E+10	1
4902551	93	C	03/11/2023	16:56	-131.207	47.819	0	57.90	0	7.7450	0	32.3560	0	25.235	0	57.407	0	272.5	4	92.6	4	-1E+10	1	-1E+10	1	-1E+10	1	-1E+10	1	-1E+10	1	-1E+10	1
4902551	93	C	03/11/2023	16:56	-131.207	47.819	0	58.90	0	7.7450	0	32.3560	0	25.235	0	58.398	0	272.5	4	92.6	4	-1E+10	1	-1E+10	1	-1E+10	1	-1E+10	1	-1E+10	1	-1E+10	1
4902551	93	C	03/11/2023	16:56	-131.207	47.819	0	59.90	0	7.7450	0	32.3560	0	25.235	0	59.390	0	272.5	4	92.6	4	-1E+10	1	-1E+10	1	-1E+10	1	-1E+10	1	-1E+10	1	-1E+10	1
4902551	93	C	03/11/2023	16:56	-131.207	47.819	0	60.80	0	7.7450	0	32.3560	0	25.235	0	60.282	0	272.4	4	92.6	4	-1E+10	1	-1E+10	1	-1E+10	1	-1E+10	1	-1E+10	1	-1E+10	1
4902551	93	C	03/11/2023	16:56	-131.207	47.819	0	61.90	0	7.7450	0	32.3560	0	25.235	0	61.372	0	272.4	4	92.6	4	-1E+10	1	-1E+10	1	-1E+10	1	-1E+10	1	-1E+10	1	-1E+10	1
4902551	93	C	03/11/2023	16:56	-131.207	47.819	0	62.80	0	7.7450	0	32.3560	0	25.235	0	62.265	0	272.4	4	92.6	4	-1E+10	1	-1E+10	1	-1E+10	1	-1E+10	1	-1E+10	1	-1E+10	1
4902551	93	C	03/11/2023	16:56	-131.207	47.819	0	63.90	0	7.7460	0	32.3560	0	25.235	0	63.355	0	272.3	4	92.6	4	-1E+10	1	-1E+10	1	-1E+10	1	-1E+10	1	-1E+10	1	-1E+10	1
4902551	93	C	03/11/2023	16:56	-131.207	47.819	0	64.90	0	7.7460	0	32.3560	0	25.235	0	64.346	0	272.3	4	92.6	4	-1E+10	1	-1E+10	1	-1E+10	1	-1E+10	1	-1E+10	1	-1E+10	1
4902551	93	C	03/11/2023	16:56	-131.207	47.819	0	66.00	0	7.7460	0	32.3560	0	25.235	0	65.437	0	272.2	4	92.5	4	-1E+10	1	-1E+10	1	-1E+10	1	-1E+10	1	-1E+10	1	-1E+10	1
4902551	93	C	03/11/2023	16:56	-131.207	47.819	0	67.00	0	7.7460	0	32.3560	0	25.235	0	66.428	0	272.2	4	92.5	4	-1E+10	1	-1E+10	1	-1E+10	1	-1E+10	1	-1E+10	1	-1E+10	1
4902551	93	C	03/11/2023	16:56	-131.207	47.819	0	68.10	0	7.7460	0	32.3560	0	25.235	0	67.519	0	272.2	4	92.5	4	-1E+10	1	-1E+10	1	-1E+10	1	-1E+10	1	-1E+10	1	-1E+10	1
4902551	93	C	03/11/2023	16:56	-131.207	47.819	0	69.10	0	7.7470	0	32.3560	0	25.235	0	68.510	0	272.1	4	92.5	4	-1E+10	1	-1E+10	1	-1E+10	1	-1E+10	1	-1E+10	1	-1E+10	1
4902551	93	C	03/11/2023	16:56	-131.207	47.819	0	70.10	0	7.7470	0	32.3560	0	25.235	0	69.501	0	272.0	4	92.5	4	-1E+10	1	-1E+10	1	-1E+10	1	-1E+10	1	-1E+10	1	-1E+10	1
4902551	93	C	03/11/2023	16:56	-131.207	47.819	0	70.80	0	7.7470	0	32.3560	0	25.235	0	70.195	0	272.0	4	92.5	4	-1E+10	1	-1E+10	1	-1E+10	1	-1E+10	1	-1E+10	1	-1E+10	1
4902551	93	C	03/11/2023	16:56	-131.207	47.819	0	71.80	0	7.7470	0	32.3560	0	25.235	0	71.186	0	271.9	4	92.4	4	-1E+10	1	-1E+10	1	-1E+10	1	-1E+10	1	-1E+10	1	-1E+10	1
4902551	93	C	03/11/2023	16:56	-131.207	47.819	0	72.90	0	7.7470	0	32.3560	0	25.235	0	72.277	0	271.9	4	92.4	4	-1E+10	1	-1E+10	1	-1E+10	1	-1E+10	1	-1E+10	1	-1E+10	1
4902551	93	C	03/11/2023	16:56	-131.207	47.819	0	73.90	0	7.7470	0	32.3560	0	25.235	0	73.268	0	271.7	4	92.4	4	-1E+10	1	-1E+10	1	-1E+10	1	-1E+10	1	-1E+10	1	-1E+10	1
4902551	93	C	03/11/2023	16:56	-131.207	47.819	0	75.00	0	7.7470	0	32.3560	0	25.235	0	74.358	0	271.6	4	92.3	4	-1E+10	1	-1E+10	1	-1E+10	1	-1E+10	1	-1E+10	1	-1E+10	1
4902551	93	C	03/11/2023	16:56	-131.207	47.819	0	76.00	0	7.7470	0	32.3560	0	25.235	0	75.350	0	271.6	4	92.3	4	-1E+10	1	-1E+10	1	-1E+10	1	-1E+10	1	-1E+10	1	-1E+10	1
4902551	93	C	03/11/2023	16:56	-131.207	47.819	0	77.10	0	7.7470	0	32.3560	0	25.235	0	76.440	0	271.5	4	92.3	4	-1E+10	1	-1E+10	1	-1E+10	1	-1E+10	1	-1E+10	1	-1E+10	1
4902551	93	C	03/11/2023	16:56	-131.207	47.819	0	77.80	0	7.7470	0	32.3560	0	25.235	0	77.134	0	271.4	4	92.3	4	-1E+10	1	-1E+10	1	-1E+10	1	-1E+10	1	-1E+10	1	-1E+10	1
4902551	93	C	03/11/2023	16:56	-131.207	47.819	0	78.80	0	7.7470	0	32.3560	0	25.235	0	78.125	0	271.3	4	92.2	4	-1E+10	1	-1E+10	1	-1E+10	1	-1E+10	1	-1E+10	1	-1E+10	1
4902551	93	C	03/11/2023	16:56	-131.207	47.819	0	79.90	0	7.7480	0	32.3560	0	25.235	0	79.215	0	271.2	4	92.2	4	-1E+10	1	-1E+10	1	-1E+10	1	-1E+10	1	-1E+10	1	-1E+10	1
4902551	93	C	03/11/2023	16:56	-131.207	47.819	0	80.90	0	7.7470	0	32.3560	0	25.235	0	80.207	0	271.0	4	92.1	4	-1E+10	1	-1E+10	1	-1E+10	1	-1E+10	1	-1E+10	1	-1E+10	1
4902551	93	C	03/11/2023	16:56	-131.207	47.819	0	82.10	0	7.7470	0	32.3560	0	25.235	0	81.396	0	270.8	4	92.1	4	-1E+10	1	-1E+10	1	-1E+10	1	-1E+10	1	-1E+10	1	-1E+10	1
4902551	93	C	03/11/2023	16:56	-131.207	47.819	0	82.80	0	7.7480	0	32.3560	0	25.235	0	82.090	0	270.7	4	92.0	4	-1E+10	1	-1E+10	1	-1E+10	1	-1E+10	1	-1E+10	1	-1E+10	1
4902551	93	C	03/11/2023	16:56	-131.207	47.819	0	83.90	0	7.7480	0	32.3560	0	25.235	0	83.180	0	270.5	4	92.0	4	-1E+10	1	-1E+10	1	-1E+10	1	-1E+10	1	-1E+10	1	-1E+10	1
4902551	93	C	03/11/2023	16:56	-131.207	47.819	0	85.20	0	7.7480	0	32.3570	0	25.236	0	84.469	0	277.1	4	94.2	4	-1E+10	1	-1E+10	1	-1E+10	1	-1E+10	1	-1E+10	1	-1E+10	1
4902551	93	C	03/11/2023	16:56	-131.207	47.819	0	86.00	0	7.7480	0	32.3570	0	25.236	0	85.262	0	277.0	4	94.2	4	-1E+10	1	-1E+10	1	-1E+10	1	-1E+10	1	-1E+10	1	-1E+10	1
4902551	93	C	03/11/2023	16:56	-131.207	47.819	0	87.10	0	7.7480	0	32.3560	0	25.235	0	86.352	0	276.7	4	94.1	4	-1E+10	1	-1E+10	1	-1E+10	1	-1E+10	1	-1E+10	1	-1E+10	1
4902551	93	C	03/11/2023	16:56	-131.207	47.819	0	88.00	0	7.7480	0	32.3560	0	25.235	0	87.244	0	276.4	4	94.0	4	-1E+10	1	-1E+10	1	-1E+10	1	-1E+10	1	-1E+10	1	-1E+10	1
4902551	93	C	03/11/2023	16:56	-131.207	47.819	0	89.00	0	7.7480	0	32.3560	0	25.235	0	88.236	0	276.1	4	93.9	4	-1E+10	1	-1E+10	1	-1E+10	1	-1E+10	1	-1E+10	1	-1E+10	1
4902551	93	C	03/11/2023	16:56	-131.207	47.819	0	89.90	0	7.7480	0	32.3560	0	25.235	0	89.128	0	275.7	4	93.7	4	-1E+10	1	-1E+10	1	-1E+10	1	-1E+10	1	-1E+10	1	-1E+10	1
4902551	93	C	03/11/2023	16:56	-131.207	47.819	0	90.90	0	7.7490	0	32.3570	0	25.236	0	90.119	0	275.2	4	93.6	4	-1E+10	1	-1E+10	1	-1E+10	1	-1E+10	1	-1E+10	1	-1E+10	1
4902551	93	C	03/11/2023	16:56	-131.207	47.819	0	91.80	0	7.7480	0	32.3560	0	25.235	0	91.011	0	274.7	4	93.4	4	-1E+10	1	-1E+10	1	-1E+10	1	-1E+10	1	-1E+10	1	-1E+10	1
4902551	93	C	03/11/2023	16:56	-131.207	47.819	0	93.00	0	7.7490	0	32.3560	0	25.235	0	92.200	0	274.0	4	93.1	4	-1E+10	1	-1E+10	1	-1E+10	1	-1E+10	1	-1E+10	1	-1E+10	1
4902551	93	C	03/11/2023	16:56	-131.207	47.819	0	94.20	0	7.7490	0	32.3590	0	25.238	0	93.390	0	273.1	4	92.9	4	-1E+10	1	-1E+10	1	-1E+10	1	-1E+10	1	-1E+10	1	-1E+10	1
4902551	93	C	03/11/2023	16:56	-131.207	47.819	0	95.10	0	7.7490	0	32.3590	0	25.238	0	94.282	0	272.0	4	92.5	4	-1E+10	1	-1E+10	1	-1E+10	1	-1E+10	1	-1E+10	1	-1E+10	1
4902551	93	C	03/11/2023	16:56	-131.207	47.819	0	96.00	0	7.7490	0	32.3590	0	25.238	0	95.174	0	270.6	4	92.0	4	-1E+10	1	-1E+10	1	-1E+10	1	-1E+10	1	-1E+10	1	-1E+10	1
4902551	93	C	03/11/2023	16:56	-131.207	47.819	0	96.90	0	7.7490	0	32.3590	0	25.238	0	96.066	0	268.9	4	91.4	4	-1E+10	1	-1E+10	1	-1E+10	1	-1E+10	1	-1E+10	1	-1E+10	1
4902551	93	C	03/11/2023	16:56	-131.207	47.819	0	97.80	0	7.7490	0	32.3600	0	25.238	0	96.958	0	266.8	4	90.7	4	-1E+10	1	-1E+10	1	-1E+10	1	-1E+10	1	-1E+10	1	-1E+10	1
4902551	93	C	03/11/2023	16:56	-131.207	47.819	0	98.80	0	7.7490	0	32.3620	0	25.240	0	97.949	0	264.5	4	89.9	4	-1E+10	1	-1E+10	1	-1E+10	1	-1E+10	1	-1E+10	1	-1E+10	1
4902551	93	C	03/11/2023	16:56	-131.207	47.819	0	99.80	0	7.7450	0	32.3660	0	25.244	0	98.940	0	262.3	4	89.2	4	-1E+10	1	-1E+10	1	-1E+10	1	-1E+10	1	-1E+10	1	-1E+10	1
4902551	93	C	03/11/2023	16:56	-131.207	47.819	0	100.90	0	7.7430	0	32.3670	0	25.245	0	100.030	0	259.4	4	88.2	4	-1E+10	1	-1E+10	1	-1E+10	1	-1E+10	1	-1E+10	1	-1E+10	1
4902551	93	C	03/11/2023	16:56	-131.207	47.819	0	102.10	0	7.7380	0	32.3710	0	25.249	0	101.220	0	256.4	4	87.2	4	-1E+10	1	-1E+10	1	-1E+10	1	-1E+10	1	-1E+10	1	-1E+10	1
4902551	93	C	03/11/2023	16:56	-131.207	47.819	0	102.90	0	7.6780	0	32.4140	0	25.291	0	102.013	0	254.5	4	86.4	4	-1E+10	1	-1E+10	1	-1E+10	1	-1E+10	1	-1E+10	1	-1E+10	1
4902551	93	C	03/11/2023	16:56	-131.207	47.819	0	104.10	0	7.5820	0	32.4810	0	25.357	0	103.202	0	252.8	4	85.7	4	-1E+10	1	-1E+10	1	-1E+10	1	-1E+10	1	-1E+10	1	-1E+10	1
4902551	93	C	03/11/2023	16:56	-131.207	47.819	0	105.10	0	7.5120	0	32.5230	0	25.400	0	104.193	0	251.3	4	85.1	4	-1E+10	1	-1E+10	1	-1E+10	1	-1E+10	1	-1E+10	1	-1E+10	1
4902551	93	C	03/11/2023	16:56	-131.207	47.819	0	106.00	0	7.4860	0	32.5330	0	25.411	0	105.085	0	250.8	4	84.9	4	-1E+10	1	-1E+10	1	-1E+10	1	-1E+10	1	-1E+10	1	-1E+10	1
4902551	93	C	03/11/2023	16:56	-131.207	47.819	0	107.10	0	7.4430	0	32.5500	0	25.431	0	106.175	0	250.3	4	84.6	4	-1E+10	1	-1E+10	1	-1E+10	1	-1E+10	1	-1E+10	1	-1E+10	1
4902551	93	C	03/11/2023	16:56	-131.207	47.819	0	108.00	0	7.3780	0	32.5790	0	25.462	0	107.067	0	249.1	4	84.1	4	-1E+10	1	-1E+10	1	-1E+10	1	-1E+10	1	-1E+10	1	-1E+10	1
4902551	93	C	03/11/2023	16:56	-131.207	47.819	0	108.90	0	7.3070	0	32.6060	0	25.493	0	107.959	0	247.4	4	83.4	4	-1E+10	1	-1E+10	1	-1E+10	1	-1E+10	1	-1E+10	1	-1E+10	1
4902551	93	C	03/11/2023	16:56	-131.207	47.819	0	110.00	0	7.1990	0	32.6510	0	25.543	0	109.050	0	245.7	4	82.7	4	-1E+10	1	-1E+10	1	-1E+10	1	-1E+10	1	-1E+10	1	-1E+10	1
4902551	93	C	03/11/2023	16:56	-131.207	47.819	0	111.00	0	7.1700	0	32.6590	0	25.554	0	110.041	0	244.4	4	82.2	4	-1E+10	1	-1E+10	1	-1E+10	1	-1E+10	1	-1E+10	1	-1E+10	1
4902551	93	C	03/11/2023	16:56	-131.207	47.819	0	111.90	0	7.1060	0	32.6820	0	25.580	0	110.933	0	242.0	4	81.3	4	-1E+10	1	-1E+10	1	-1E+10	1	-1E+10	1	-1E+10	1	-1E+10	1
4902551	93	C	03/11/2023	16:56	-131.207	47.819	0	112.90	0	6.9720	0	32.7420	0	25.646	0	111.924	0	239.0	4	80.1	4	-1E+10	1	-1E+10	1	-1E+10	1	-1E+10	1	-1E+10	1	-1E+10	1
4902551	93	C	03/11/2023	16:56	-131.207	47.819	0	114.20	0	6.8670	0	32.7950	0	25.701	0	113.212	0	236.4	4	79.0	4	-1E+10	1	-1E+10	1	-1E+10	1	-1E+10	1	-1E+10	1	-1E+10	1
4902551	93	C	03/11/2023	16:56	-131.207	47.819	0	114.90	0	6.8070	0	32.8160	0	25.726	0	113.906	0	235.2	4	78.5	4	-1E+10	1	-1E+10	1	-1E+10	1	-1E+10	1	-1E+10	1	-1E+10	1
4902551	93	C	03/11/2023	16:56	-131.207	47.819	0	116.00	0	6.6800	0	32.9050	0	25.813	0	114.996	0	234.2	4	78.0	4	-1E+10	1	-1E+10	1	-1E+10	1	-1E+10	1	-1E+10	1	-1E+10	1
4902551	93	C	03/11/2023	16:56	-131.207	47.819	0	117.10	0	6.6050	0	32.9600	0	25.866	0	116.086	0	233.5	4	77.7	4	-1E+10	1	-1E+10	1	-1E+10	1	-1E+10	1	-1E+10	1	-1E+10	1
4902551	93	C	03/11/2023	16:56	-131.207	47.819	0	118.00	0	6.5930	0	32.9800	0	25.883	0	116.978	0	233.0	4	77.5	4	-1E+10	1	-1E+10	1	-1E+10	1	-1E+10	1	-1E+10	1	-1E+10	1
4902551	93	C	03/11/2023	16:56	-131.207	47.819	0	118.90	0	6.5610	0	32.9970	0	25.901	0	117.870	0	232.6	4	77.3	4	-1E+10	1	-1E+10	1	-1E+10	1	-1E+10	1	-1E+10	1	-1E+10	1
4902551	93	C	03/11/2023	16:56	-131.207	47.819	0	120.00	0	6.5370	0	33.0060	0	25.911	0	118.960	0	231.9	4	77.1	4	-1E+10	1	-1E+10	1	-1E+10	1	-1E+10	1	-1E+10	1	-1E+10	1
4902551	93	C	03/11/2023	16:56	-131.207	47.819	0	120.90	0	6.5350	0	33.0070	0	25.912	0	119.852	0	231.3	4	76.9	4	-1E+10	1	-1E+10	1	-1E+10	1	-1E+10	1	-1E+10	1	-1E+10	1
4902551	93	C	03/11/2023	16:56	-131.207	47.819	0	121.80	0	6.5310	0	33.0090	0	25.914	0	120.744	0	230.7	4	76.6	4	-1E+10	1	-1E+10	1	-1E+10	1	-1E+10	1	-1E+10	1	-1E+10	1
4902551	93	C	03/11/2023	16:56	-131.207	47.819	0	123.00	0	6.4780	0	33.0320	0	25.939	0	121.934	0	229.4	4	76.1	4	-1E+10	1	-1E+10	1	-1E+10	1	-1E+10	1	-1E+10	1	-1E+10	1
4902551	93	C	03/11/2023	16:56	-131.207	47.819	0	124.00	0	6.4240	0	33.0640	0	25.971	0	122.925	0	228.4	4	75.7	4	-1E+10	1	-1E+10	1	-1E+10	1	-1E+10	1	-1E+10	1	-1E+10	1
4902551	93	C	03/11/2023	16:56	-131.207	47.819	0	125.00	0	6.4210	0	33.0690	0	25.976	0	123.916	0	227.2	4	75.3	4	-1E+10	1	-1E+10	1	-1E+10	1	-1E+10	1	-1E+10	1	-1E+10	1
4902551	93	C	03/11/2023	16:56	-131.207	47.819	0	126.00	0	6.4210	0	33.0840	0	25.987	0	124.907	0	226.1	4	75.0	4	-1E+10	1	-1E+10	1	-1E+10	1	-1E+10	1	-1E+10	1	-1E+10	1
4902551	93	C	03/11/2023	16:56	-131.207	47.819	0	126.90	0	6.4160	0	33.0910	0	25.994	0	125.799	0	225.0	4	74.6	4	-1E+10	1	-1E+10	1	-1E+10	1	-1E+10	1	-1E+10	1	-1E+10	1
4902551	93	C	03/11/2023	16:56	-131.207	47.819	0	128.10	0	6.4180	0	33.1000	0	26.000	0	126.988	0	223.6	4	74.1	4	-1E+10	1	-1E+10	1	-1E+10	1	-1E+10	1	-1E+10	1	-1E+10	1
4902551	93	C	03/11/2023	16:56	-131.207	47.819	0	129.10	0	6.4040	0	33.1160	0	26.015	0	127.979	0	222.3	4	73.7	4	-1E+10	1	-1E+10	1	-1E+10	1	-1E+10	1	-1E+10	1	-1E+10	1
4902551	93	C	03/11/2023	16:56	-131.207	47.819	0	130.00	0	6.4010	0	33.1280	0	26.025	0	128.871	0	220.7	4	73.2	4	-1E+10	1	-1E+10	1	-1E+10	1	-1E+10	1	-1E+10	1	-1E+10	1
4902551	93	C	03/11/2023	16:56	-131.207	47.819	0	131.00	0	6.3930	0	33.1540	0	26.046	0	129.862	0	219.3	4	72.7	4	-1E+10	1	-1E+10	1	-1E+10	1	-1E+10	1	-1E+10	1	-1E+10	1
4902551	93	C	03/11/2023	16:56	-131.207	47.819	0	132.00	0	6.3630	0	33.2100	0	26.094	0	130.853	0	218.0	4	72.3	4	-1E+10	1	-1E+10	1	-1E+10	1	-1E+10	1	-1E+10	1	-1E+10	1
4902551	93	C	03/11/2023	16:56	-131.207	47.819	0	133.10	0	6.3410	0	33.2260	0	26.110	0	131.943	0	217.0	4	71.9	4	-1E+10	1	-1E+10	1	-1E+10	1	-1E+10	1	-1E+10	1	-1E+10	1
4902551	93	C	03/11/2023	16:56	-131.207	47.819	0	133.80	0	6.3400	0	33.2260	0	26.110	0	132.636	0	216.2	4	71.6	4	-1E+10	1	-1E+10	1	-1E+10	1	-1E+10	1	-1E+10	1	-1E+10	1
4902551	93	C	03/11/2023	16:56	-131.207	47.819	0	134.80	0	6.3360	0	33.2290	0	26.113	0	133.627	0	214.9	4	71.2	4	-1E+10	1	-1E+10	1	-1E+10	1	-1E+10	1	-1E+10	1	-1E+10	1
4902551	93	C	03/11/2023	16:56	-131.207	47.819	0	136.00	0	6.3070	0	33.2510	0	26.134	0	134.817	0	212.7	4	70.4	4	-1E+10	1	-1E+10	1	-1E+10	1	-1E+10	1	-1E+10	1	-1E+10	1
4902551	93	C	03/11/2023	16:56	-131.207	47.819	0	137.00	0	6.2800	0	33.2660	0	26.149	0	135.808	0	210.7	4	69.7	4	-1E+10	1	-1E+10	1	-1E+10	1	-1E+10	1	-1E+10	1	-1E+10	1
4902551	93	C	03/11/2023	16:56	-131.207	47.819	0	138.00	0	6.2480	0	33.3010	0	26.181	0	136.799	0	208.8	4	69.1	4	-1E+10	1	-1E+10	1	-1E+10	1	-1E+10	1	-1E+10	1	-1E+10	1
4902551	93	C	03/11/2023	16:56	-131.207	47.819	0	139.10	0	6.2400	0	33.3200	0	26.197	0	137.889	0	207.1	4	68.5	4	-1E+10	1	-1E+10	1	-1E+10	1	-1E+10	1	-1E+10	1	-1E+10	1
4902551	93	C	03/11/2023	16:56	-131.207	47.819	0	139.90	0	6.2370	0	33.3330	0	26.207	0	138.681	0	206.0	4	68.1	4	-1E+10	1	-1E+10	1	-1E+10	1	-1E+10	1	-1E+10	1	-1E+10	1
4902551	93	C	03/11/2023	16:56	-131.207	47.819	0	140.70	0	6.2320	0	33.3550	0	26.225	0	139.474	0	205.0	4	67.8	4	-1E+10	1	-1E+10	1	-1E+10	1	-1E+10	1	-1E+10	1	-1E+10	1
4902551	93	C	03/11/2023	16:56	-131.207	47.819	0	141.90	0	6.2220	0	33.3620	0	26.232	0	140.663	0	203.4	4	67.3	4	-1E+10	1	-1E+10	1	-1E+10	1	-1E+10	1	-1E+10	1	-1E+10	1
4902551	93	C	03/11/2023	16:56	-131.207	47.819	0	143.10	0	6.2140	0	33.3650	0	26.236	0	141.852	0	201.6	4	66.7	4	-1E+10	1	-1E+10	1	-1E+10	1	-1E+10	1	-1E+10	1	-1E+10	1
4902551	93	C	03/11/2023	16:56	-131.207	47.819	0	143.90	0	6.2130	0	33.3650	0	26.236	0	142.645	0	200.2	4	66.2	4	-1E+10	1	-1E+10	1	-1E+10	1	-1E+10	1	-1E+10	1	-1E+10	1
4902551	93	C	03/11/2023	16:56	-131.207	47.819	0	144.70	0	6.1960	0	33.3800	0	26.250	0	143.438	0	198.6	4	65.7	4	-1E+10	1	-1E+10	1	-1E+10	1	-1E+10	1	-1E+10	1	-1E+10	1
4902551	93	C	03/11/2023	16:56	-131.207	47.819	0	145.90	0	6.1630	0	33.4370	0	26.299	0	144.627	0	196.7	4	65.0	4	-1E+10	1	-1E+10	1	-1E+10	1	-1E+10	1	-1E+10	1	-1E+10	1
4902551	93	C	03/11/2023	16:56	-131.207	47.819	0	147.20	0	6.1610	0	33.4420	0	26.303	0	145.915	0	195.0	4	64.4	4	-1E+10	1	-1E+10	1	-1E+10	1	-1E+10	1	-1E+10	1	-1E+10	1
4902551	93	C	03/11/2023	16:56	-131.207	47.819	0	148.10	0	6.1530	0	33.4530	0	26.313	0	146.807	0	193.8	4	64.0	4	-1E+10	1	-1E+10	1	-1E+10	1	-1E+10	1	-1E+10	1	-1E+10	1
4902551	93	C	03/11/2023	16:56	-131.207	47.819	0	149.00	0	6.1340	0	33.4700	0	26.329	0	147.699	0	192.8	4	63.7	4	-1E+10	1	-1E+10	1	-1E+10	1	-1E+10	1	-1E+10	1	-1E+10	1
4902551	93	C	03/11/2023	16:56	-131.207	47.819	0	149.90	0	6.1240	0	33.4940	0	26.349	0	148.591	0	191.9	4	63.4	4	-1E+10	1	-1E+10	1	-1E+10	1	-1E+10	1	-1E+10	1	-1E+10	1
4902551	93	C	03/11/2023	16:56	-131.207	47.819	0	150.80	0	6.1170	0	33.5100	0	26.362	0	149.482	0	191.3	4	63.2	4	-1E+10	1	-1E+10	1	-1E+10	1	-1E+10	1	-1E+10	1	-1E+10	1
4902551	93	C	03/11/2023	16:56	-131.207	47.819	0	151.80	0	6.1150	0	33.5140	0	26.366	0	150.473	0	190.7	4	63.0	4	-1E+10	1	-1E+10	1	-1E+10	1	-1E+10	1	-1E+10	1	-1E+10	1
4902551	93	C	03/11/2023	16:56	-131.207	47.819	0	152.80	0	6.1120	0	33.5190	0	26.370	0	151.464	0	190.1	4	62.8	4	-1E+10	1	-1E+10	1	-1E+10	1	-1E+10	1	-1E+10	1	-1E+10	1
4902551	93	C	03/11/2023	16:56	-131.207	47.819	0	153.70	0	6.1120	0	33.5200	0	26.371	0	152.356	0	189.3	4	62.5	4	-1E+10	1	-1E+10	1	-1E+10	1	-1E+10	1	-1E+10	1	-1E+10	1
4902551	93	C	03/11/2023	16:56	-131.207	47.819	0	154.70	0	6.1110	0	33.5210	0	26.372	0	153.347	0	188.6	4	62.3	4	-1E+10	1	-1E+10	1	-1E+10	1	-1E+10	1	-1E+10	1	-1E+10	1
4902551	93	C	03/11/2023	16:56	-131.207	47.819	0	155.60	0	6.1110	0	33.5230	0	26.374	0	154.239	0	187.8	4	62.0	4	-1E+10	1	-1E+10	1	-1E+10	1	-1E+10	1	-1E+10	1	-1E+10	1
4902551	93	C	03/11/2023	16:56	-131.207	47.819	0	156.90	0	6.1130	0	33.5280	0	26.377	0	155.527	0	186.3	4	61.5	4	-1E+10	1	-1E+10	1	-1E+10	1	-1E+10	1	-1E+10	1	-1E+10	1
4902551	93	C	03/11/2023	16:56	-131.207	47.819	0	158.40	0	6.1100	0	33.5440	0	26.390	0	157.013	0	184.4	4	60.9	4	-1E+10	1	-1E+10	1	-1E+10	1	-1E+10	1	-1E+10	1	-1E+10	1
4902551	93	C	03/11/2023	16:56	-131.207	47.819	0	159.10	0	6.1050	0	33.5530	0	26.398	0	157.707	0	183.6	4	60.6	4	-1E+10	1	-1E+10	1	-1E+10	1	-1E+10	1	-1E+10	1	-1E+10	1
4902551	93	C	03/11/2023	16:56	-131.207	47.819	0	159.80	0	6.0980	0	33.5670	0	26.410	0	158.400	0	183.0	4	60.4	4	-1E+10	1	-1E+10	1	-1E+10	1	-1E+10	1	-1E+10	1	-1E+10	1
4902551	93	C	03/11/2023	16:56	-131.207	47.819	0	160.80	0	6.0910	0	33.5800	0	26.421	0	159.391	0	181.9	4	60.1	4	-1E+10	1	-1E+10	1	-1E+10	1	-1E+10	1	-1E+10	1	-1E+10	1
4902551	93	C	03/11/2023	16:56	-131.207	47.819	0	161.90	0	6.0860	0	33.5910	0	26.430	0	160.481	0	180.8	4	59.7	4	-1E+10	1	-1E+10	1	-1E+10	1	-1E+10	1	-1E+10	1	-1E+10	1
4902551	93	C	03/11/2023	16:56	-131.207	47.819	0	163.00	0	6.0810	0	33.5950	0	26.434	0	161.571	0	179.6	4	59.3	4	-1E+10	1	-1E+10	1	-1E+10	1	-1E+10	1	-1E+10	1	-1E+10	1
4902551	93	C	03/11/2023	16:56	-131.207	47.819	0	164.20	0	6.0690	0	33.6120	0	26.449	0	162.760	0	178.3	4	58.9	4	-1E+10	1	-1E+10	1	-1E+10	1	-1E+10	1	-1E+10	1	-1E+10	1
4902551	93	C	03/11/2023	16:56	-131.207	47.819	0	165.00	0	6.0720	0	33.6160	0	26.452	0	163.553	0	177.6	4	58.6	4	-1E+10	1	-1E+10	1	-1E+10	1	-1E+10	1	-1E+10	1	-1E+10	1
4902551	93	C	03/11/2023	16:56	-131.207	47.819	0	165.70	0	6.0750	0	33.6200	0	26.455	0	164.246	0	176.7	4	58.4	4	-1E+10	1	-1E+10	1	-1E+10	1	-1E+10	1	-1E+10	1	-1E+10	1
4902551	93	C	03/11/2023	16:56	-131.207	47.819	0	166.90	0	6.0790	0	33.6270	0	26.460	0	165.435	0	175.2	4	57.9	4	-1E+10	1	-1E+10	1	-1E+10	1	-1E+10	1	-1E+10	1	-1E+10	1
4902551	93	C	03/11/2023	16:56	-131.207	47.819	0	168.10	0	6.0860	0	33.6310	0	26.462	0	166.624	0	173.3	4	57.3	4	-1E+10	1	-1E+10	1	-1E+10	1	-1E+10	1	-1E+10	1	-1E+10	1
4902551	93	C	03/11/2023	16:56	-131.207	47.819	0	168.80	0	6.0890	0	33.6340	0	26.464	0	167.318	0	172.0	4	56.8	4	-1E+10	1	-1E+10	1	-1E+10	1	-1E+10	1	-1E+10	1	-1E+10	1
4902551	93	C	03/11/2023	16:56	-131.207	47.819	0	170.00	0	6.0680	0	33.6500	0	26.479	0	168.507	0	170.3	4	56.2	4	-1E+10	1	-1E+10	1	-1E+10	1	-1E+10	1	-1E+10	1	-1E+10	1
4902551	93	C	03/11/2023	16:56	-131.207	47.819	0	171.20	0	6.0520	0	33.6550	0	26.485	0	169.696	0	168.6	4	55.7	4	-1E+10	1	-1E+10	1	-1E+10	1	-1E+10	1	-1E+10	1	-1E+10	1
4902551	93	C	03/11/2023	16:56	-131.207	47.819	0	172.00	0	6.0190	0	33.6650	0	26.497	0	170.488	0	167.6	4	55.3	4	-1E+10	1	-1E+10	1	-1E+10	1	-1E+10	1	-1E+10	1	-1E+10	1
4902551	93	C	03/11/2023	16:56	-131.207	47.819	0	172.90	0	6.0060	0	33.6700	0	26.503	0	171.380	0	166.9	4	55.0	4	-1E+10	1	-1E+10	1	-1E+10	1	-1E+10	1	-1E+10	1	-1E+10	1
4902551	93	C	03/11/2023	16:56	-131.207	47.819	0	173.70	0	5.9790	0	33.6750	0	26.510	0	172.173	0	166.2	4	54.8	4	-1E+10	1	-1E+10	1	-1E+10	1	-1E+10	1	-1E+10	1	-1E+10	1
4902551	93	C	03/11/2023	16:56	-131.207	47.819	0	174.90	0	5.9640	0	33.6830	0	26.518	0	173.362	0	165.2	4	54.4	4	-1E+10	1	-1E+10	1	-1E+10	1	-1E+10	1	-1E+10	1	-1E+10	1
4902551	93	C	03/11/2023	16:56	-131.207	47.819	0	176.20	0	5.9290	0	33.6880	0	26.527	0	174.650	0	164.3	4	54.1	4	-1E+10	1	-1E+10	1	-1E+10	1	-1E+10	1	-1E+10	1	-1E+10	1
4902551	93	C	03/11/2023	16:56	-131.207	47.819	0	177.00	0	5.9250	0	33.6880	0	26.527	0	175.442	0	163.7	4	53.9	4	-1E+10	1	-1E+10	1	-1E+10	1	-1E+10	1	-1E+10	1	-1E+10	1
4902551	93	C	03/11/2023	16:56	-131.207	47.819	0	177.80	0	5.9160	0	33.6900	0	26.530	0	176.235	0	163.1	4	53.7	4	-1E+10	1	-1E+10	1	-1E+10	1	-1E+10	1	-1E+10	1	-1E+10	1
4902551	93	C	03/11/2023	16:56	-131.207	47.819	0	178.60	0	5.9150	0	33.6910	0	26.531	0	177.028	0	162.5	4	53.5	4	-1E+10	1	-1E+10	1	-1E+10	1	-1E+10	1	-1E+10	1	-1E+10	1
4902551	93	C	03/11/2023	16:56	-131.207	47.819	0	179.90	0	5.9050	0	33.6950	0	26.535	0	178.316	0	161.4	4	53.1	4	-1E+10	1	-1E+10	1	-1E+10	1	-1E+10	1	-1E+10	1	-1E+10	1
4902551	93	C	03/11/2023	16:56	-131.207	47.819	0	181.20	0	5.9010	0	33.6980	0	26.538	0	179.604	0	160.4	4	52.8	4	-1E+10	1	-1E+10	1	-1E+10	1	-1E+10	1	-1E+10	1	-1E+10	1
4902551	93	C	03/11/2023	16:56	-131.207	47.819	0	182.00	0	5.8950	0	33.6990	0	26.540	0	180.396	0	159.6	4	52.5	4	-1E+10	1	-1E+10	1	-1E+10	1	-1E+10	1	-1E+10	1	-1E+10	1
4902551	93	C	03/11/2023	16:56	-131.207	47.819	0	182.80	0	5.8920	0	33.6980	0	26.539	0	181.189	0	158.8	4	52.3	4	-1E+10	1	-1E+10	1	-1E+10	1	-1E+10	1	-1E+10	1	-1E+10	1
4902551	93	C	03/11/2023	16:56	-131.207	47.819	0	183.70	0	5.8800	0	33.7010	0	26.543	0	182.080	0	158.1	4	52.0	4	-1E+10	1	-1E+10	1	-1E+10	1	-1E+10	1	-1E+10	1	-1E+10	1
4902551	93	C	03/11/2023	16:56	-131.207	47.819	0	184.90	0	5.8500	0	33.7040	0	26.549	0	183.269	0	157.0	4	51.6	4	-1E+10	1	-1E+10	1	-1E+10	1	-1E+10	1	-1E+10	1	-1E+10	1
4902551	93	C	03/11/2023	16:56	-131.207	47.819	0	186.10	0	5.8320	0	33.7050	0	26.552	0	184.458	0	156.0	4	51.3	4	-1E+10	1	-1E+10	1	-1E+10	1	-1E+10	1	-1E+10	1	-1E+10	1
4902551	93	C	03/11/2023	16:56	-131.207	47.819	0	186.90	0	5.8270	0	33.7060	0	26.554	0	185.251	0	155.2	4	51.0	4	-1E+10	1	-1E+10	1	-1E+10	1	-1E+10	1	-1E+10	1	-1E+10	1
4902551	93	C	03/11/2023	16:56	-131.207	47.819	0	187.80	0	5.7970	0	33.7110	0	26.561	0	186.142	0	154.5	4	50.7	4	-1E+10	1	-1E+10	1	-1E+10	1	-1E+10	1	-1E+10	1	-1E+10	1
4902551	93	C	03/11/2023	16:56	-131.207	47.819	0	188.60	0	5.7870	0	33.7120	0	26.563	0	186.935	0	153.9	4	50.5	4	-1E+10	1	-1E+10	1	-1E+10	1	-1E+10	1	-1E+10	1	-1E+10	1
4902551	93	C	03/11/2023	16:56	-131.207	47.819	0	189.90	0	5.7680	0	33.7140	0	26.567	0	188.223	0	153.0	4	50.2	4	-1E+10	1	-1E+10	1	-1E+10	1	-1E+10	1	-1E+10	1	-1E+10	1
4902551	93	C	03/11/2023	16:56	-131.207	47.819	0	191.10	0	5.7460	0	33.7200	0	26.575	0	189.412	0	152.2	4	49.9	4	-1E+10	1	-1E+10	1	-1E+10	1	-1E+10	1	-1E+10	1	-1E+10	1
4902551	93	C	03/11/2023	16:56	-131.207	47.819	0	192.00	0	5.7360	0	33.7190	0	26.575	0	190.303	0	151.6	4	49.7	4	-1E+10	1	-1E+10	1	-1E+10	1	-1E+10	1	-1E+10	1	-1E+10	1
4902551	93	C	03/11/2023	16:56	-131.207	47.819	0	192.80	0	5.7320	0	33.7200	0	26.576	0	191.096	0	151.0	4	49.5	4	-1E+10	1	-1E+10	1	-1E+10	1	-1E+10	1	-1E+10	1	-1E+10	1
4902551	93	C	03/11/2023	16:56	-131.207	47.819	0	193.60	0	5.7280	0	33.7200	0	26.577	0	191.889	0	150.2	4	49.3	4	-1E+10	1	-1E+10	1	-1E+10	1	-1E+10	1	-1E+10	1	-1E+10	1
4902551	93	C	03/11/2023	16:56	-131.207	47.819	0	194.90	0	5.7190	0	33.7210	0	26.579	0	193.177	0	149.0	4	48.8	4	-1E+10	1	-1E+10	1	-1E+10	1	-1E+10	1	-1E+10	1	-1E+10	1
4902551	93	C	03/11/2023	16:56	-131.207	47.819	0	196.10	0	5.7170	0	33.7210	0	26.579	0	194.365	0	147.8	4	48.4	4	-1E+10	1	-1E+10	1	-1E+10	1	-1E+10	1	-1E+10	1	-1E+10	1
4902551	93	C	03/11/2023	16:56	-131.207	47.819	0	196.90	0	5.7120	0	33.7220	0	26.580	0	195.158	0	146.8	4	48.1	4	-1E+10	1	-1E+10	1	-1E+10	1	-1E+10	1	-1E+10	1	-1E+10	1
4902551	93	C	03/11/2023	16:56	-131.207	47.819	0	197.80	0	5.7040	0	33.7230	0	26.582	0	196.049	0	145.7	4	47.7	4	-1E+10	1	-1E+10	1	-1E+10	1	-1E+10	1	-1E+10	1	-1E+10	1
4902551	93	C	03/11/2023	16:56	-131.207	47.819	0	198.60	0	5.6970	0	33.7270	0	26.586	0	196.842	0	144.9	4	47.5	4	-1E+10	1	-1E+10	1	-1E+10	1	-1E+10	1	-1E+10	1	-1E+10	1
4902551	93	C	03/11/2023	16:56	-131.207	47.819	0	199.90	0	5.6890	0	33.7310	0	26.590	0	198.130	0	143.7	4	47.1	4	-1E+10	1	-1E+10	1	-1E+10	1	-1E+10	1	-1E+10	1	-1E+10	1
4902551	93	C	03/11/2023	16:56	-131.207	47.819	0	201.10	0	5.6700	0	33.7330	0	26.594	0	199.319	0	142.4	4	46.6	4	-1E+10	1	-1E+10	1	-1E+10	1	-1E+10	1	-1E+10	1	-1E+10	1
4902551	93	C	03/11/2023	16:56	-131.207	47.819	0	202.00	0	5.6630	0	33.7330	0	26.595	0	200.210	0	141.6	4	46.3	4	-1E+10	1	-1E+10	1	-1E+10	1	-1E+10	1	-1E+10	1	-1E+10	1
4902551	93	C	03/11/2023	16:56	-131.207	47.819	0	202.80	0	5.6550	0	33.7350	0	26.598	0	201.003	0	140.7	4	46.1	4	-1E+10	1	-1E+10	1	-1E+10	1	-1E+10	1	-1E+10	1	-1E+10	1
4902551	93	C	03/11/2023	16:56	-131.207	47.819	0	203.70	0	5.6440	0	33.7370	0	26.601	0	201.894	0	139.8	4	45.8	4	-1E+10	1	-1E+10	1	-1E+10	1	-1E+10	1	-1E+10	1	-1E+10	1
4902551	93	C	03/11/2023	16:56	-131.207	47.819	0	204.90	0	5.6250	0	33.7380	0	26.604	0	203.083	0	138.6	4	45.3	4	-1E+10	1	-1E+10	1	-1E+10	1	-1E+10	1	-1E+10	1	-1E+10	1
4902551	93	C	03/11/2023	16:56	-131.207	47.819	0	206.20	0	5.6100	0	33.7390	0	26.606	0	204.371	0	137.2	4	44.9	4	-1E+10	1	-1E+10	1	-1E+10	1	-1E+10	1	-1E+10	1	-1E+10	1
4902551	93	C	03/11/2023	16:56	-131.207	47.819	0	207.10	0	5.5920	0	33.7420	0	26.611	0	205.263	0	136.4	4	44.6	4	-1E+10	1	-1E+10	1	-1E+10	1	-1E+10	1	-1E+10	1	-1E+10	1
4902551	93	C	03/11/2023	16:56	-131.207	47.819	0	207.90	0	5.5800	0	33.7430	0	26.613	0	206.055	0	135.7	4	44.3	4	-1E+10	1	-1E+10	1	-1E+10	1	-1E+10	1	-1E+10	1	-1E+10	1
4902551	93	C	03/11/2023	16:56	-131.207	47.819	0	208.80	0	5.5580	0	33.7490	0	26.620	0	206.947	0	134.9	4	44.1	4	-1E+10	1	-1E+10	1	-1E+10	1	-1E+10	1	-1E+10	1	-1E+10	1
4902551	93	C	03/11/2023	16:56	-131.207	47.819	0	209.60	0	5.5440	0	33.7450	0	26.619	0	207.739	0	134.0	4	43.8	4	-1E+10	1	-1E+10	1	-1E+10	1	-1E+10	1	-1E+10	1	-1E+10	1
4902551	93	C	03/11/2023	16:56	-131.207	47.819	0	210.90	0	5.5150	0	33.7490	0	26.626	0	209.027	0	133.1	4	43.4	4	-1E+10	1	-1E+10	1	-1E+10	1	-1E+10	1	-1E+10	1	-1E+10	1
4902551	93	C	03/11/2023	16:56	-131.207	47.819	0	212.20	0	5.4940	0	33.7510	0	26.630	0	210.315	0	132.1	4	43.1	4	-1E+10	1	-1E+10	1	-1E+10	1	-1E+10	1	-1E+10	1	-1E+10	1
4902551	93	C	03/11/2023	16:56	-131.207	47.819	0	213.10	0	5.4770	0	33.7530	0	26.633	0	211.206	0	131.4	4	42.8	4	-1E+10	1	-1E+10	1	-1E+10	1	-1E+10	1	-1E+10	1	-1E+10	1
4902551	93	C	03/11/2023	16:56	-131.207	47.819	0	213.90	0	5.4670	0	33.7520	0	26.634	0	211.999	0	130.7	4	42.6	4	-1E+10	1	-1E+10	1	-1E+10	1	-1E+10	1	-1E+10	1	-1E+10	1
4902551	93	C	03/11/2023	16:56	-131.207	47.819	0	214.80	0	5.4460	0	33.7550	0	26.639	0	212.890	0	130.2	4	42.4	4	-1E+10	1	-1E+10	1	-1E+10	1	-1E+10	1	-1E+10	1	-1E+10	1
4902551	93	C	03/11/2023	16:56	-131.207	47.819	0	215.60	0	5.4300	0	33.7560	0	26.641	0	213.683	0	129.6	4	42.2	4	-1E+10	1	-1E+10	1	-1E+10	1	-1E+10	1	-1E+10	1	-1E+10	1
4902551	93	C	03/11/2023	16:56	-131.207	47.819	0	216.90	0	5.4270	0	33.7540	0	26.640	0	214.971	0	128.6	4	41.9	4	-1E+10	1	-1E+10	1	-1E+10	1	-1E+10	1	-1E+10	1	-1E+10	1
4902551	93	C	03/11/2023	16:56	-131.207	47.819	0	218.20	0	5.4250	0	33.7540	0	26.640	0	216.258	0	127.4	4	41.5	4	-1E+10	1	-1E+10	1	-1E+10	1	-1E+10	1	-1E+10	1	-1E+10	1
4902551	93	C	03/11/2023	16:56	-131.207	47.819	0	219.00	0	5.4100	0	33.7570	0	26.644	0	217.051	0	126.6	4	41.2	4	-1E+10	1	-1E+10	1	-1E+10	1	-1E+10	1	-1E+10	1	-1E+10	1
4902551	93	C	03/11/2023	16:56	-131.207	47.819	0	219.90	0	5.3830	0	33.7590	0	26.649	0	217.942	0	125.9	4	40.9	4	-1E+10	1	-1E+10	1	-1E+10	1	-1E+10	1	-1E+10	1	-1E+10	1
4902551	93	C	03/11/2023	16:56	-131.207	47.819	0	220.70	0	5.3600	0	33.7590	0	26.652	0	218.735	0	125.1	4	40.7	4	-1E+10	1	-1E+10	1	-1E+10	1	-1E+10	1	-1E+10	1	-1E+10	1
4902551	93	C	03/11/2023	16:56	-131.207	47.819	0	221.60	0	5.3540	0	33.7590	0	26.653	0	219.626	0	124.4	4	40.4	4	-1E+10	1	-1E+10	1	-1E+10	1	-1E+10	1	-1E+10	1	-1E+10	1
4902551	93	C	03/11/2023	16:56	-131.207	47.819	0	222.90	0	5.3290	0	33.7620	0	26.658	0	220.914	0	123.4	4	40.1	4	-1E+10	1	-1E+10	1	-1E+10	1	-1E+10	1	-1E+10	1	-1E+10	1
4902551	93	C	03/11/2023	16:56	-131.207	47.819	0	224.20	0	5.3150	0	33.7620	0	26.660	0	222.202	0	122.4	4	39.8	4	-1E+10	1	-1E+10	1	-1E+10	1	-1E+10	1	-1E+10	1	-1E+10	1
4902551	93	C	03/11/2023	16:56	-131.207	47.819	0	225.00	0	5.2890	0	33.7650	0	26.665	0	222.994	0	121.9	4	39.6	4	-1E+10	1	-1E+10	1	-1E+10	1	-1E+10	1	-1E+10	1	-1E+10	1
4902551	93	C	03/11/2023	16:56	-131.207	47.819	0	225.90	0	5.2840	0	33.7650	0	26.666	0	223.886	0	121.3	4	39.4	4	-1E+10	1	-1E+10	1	-1E+10	1	-1E+10	1	-1E+10	1	-1E+10	1
4902551	93	C	03/11/2023	16:56	-131.207	47.819	0	226.80	0	5.2820	0	33.7650	0	26.666	0	224.777	0	120.7	4	39.2	4	-1E+10	1	-1E+10	1	-1E+10	1	-1E+10	1	-1E+10	1	-1E+10	1
4902551	93	C	03/11/2023	16:56	-131.207	47.819	0	227.70	0	5.2710	0	33.7670	0	26.669	0	225.669	0	120.1	4	39.0	4	-1E+10	1	-1E+10	1	-1E+10	1	-1E+10	1	-1E+10	1	-1E+10	1
4902551	93	C	03/11/2023	16:56	-131.207	47.819	0	228.90	0	5.2540	0	33.7680	0	26.672	0	226.857	0	119.3	4	38.7	4	-1E+10	1	-1E+10	1	-1E+10	1	-1E+10	1	-1E+10	1	-1E+10	1
4902551	93	C	03/11/2023	16:56	-131.207	47.819	0	230.30	0	5.2480	0	33.7690	0	26.673	0	228.244	0	118.4	4	38.4	4	-1E+10	1	-1E+10	1	-1E+10	1	-1E+10	1	-1E+10	1	-1E+10	1
4902551	93	C	03/11/2023	16:56	-131.207	47.819	0	231.10	0	5.2420	0	33.7680	0	26.673	0	229.036	0	117.7	4	38.2	4	-1E+10	1	-1E+10	1	-1E+10	1	-1E+10	1	-1E+10	1	-1E+10	1
4902551	93	C	03/11/2023	16:56	-131.207	47.819	0	232.00	0	5.2310	0	33.7700	0	26.676	0	229.928	0	117.1	4	38.0	4	-1E+10	1	-1E+10	1	-1E+10	1	-1E+10	1	-1E+10	1	-1E+10	1
4902551	93	C	03/11/2023	16:56	-131.207	47.819	0	232.90	0	5.2130	0	33.7700	0	26.678	0	230.819	0	116.6	4	37.8	4	-1E+10	1	-1E+10	1	-1E+10	1	-1E+10	1	-1E+10	1	-1E+10	1
4902551	93	C	03/11/2023	16:56	-131.207	47.819	0	233.70	0	5.1970	0	33.7700	0	26.680	0	231.612	0	115.9	4	37.5	4	-1E+10	1	-1E+10	1	-1E+10	1	-1E+10	1	-1E+10	1	-1E+10	1
4902551	93	C	03/11/2023	16:56	-131.207	47.819	0	234.60	0	5.1700	0	33.7760	0	26.688	0	232.503	0	115.3	4	37.3	4	-1E+10	1	-1E+10	1	-1E+10	1	-1E+10	1	-1E+10	1	-1E+10	1
4902551	93	C	03/11/2023	16:56	-131.207	47.819	0	235.90	0	5.1440	0	33.7760	0	26.691	0	233.791	0	114.6	4	37.1	4	-1E+10	1	-1E+10	1	-1E+10	1	-1E+10	1	-1E+10	1	-1E+10	1
4902551	93	C	03/11/2023	16:56	-131.207	47.819	0	237.20	0	5.1390	0	33.7770	0	26.692	0	235.078	0	113.7	4	36.8	4	-1E+10	1	-1E+10	1	-1E+10	1	-1E+10	1	-1E+10	1	-1E+10	1
4902551	93	C	03/11/2023	16:56	-131.207	47.819	0	238.10	0	5.1320	0	33.7780	0	26.694	0	235.970	0	113.2	4	36.6	4	-1E+10	1	-1E+10	1	-1E+10	1	-1E+10	1	-1E+10	1	-1E+10	1
4902551	93	C	03/11/2023	16:56	-131.207	47.819	0	239.10	0	5.1300	0	33.7780	0	26.694	0	236.960	0	112.7	4	36.4	4	-1E+10	1	-1E+10	1	-1E+10	1	-1E+10	1	-1E+10	1	-1E+10	1
4902551	93	C	03/11/2023	16:56	-131.207	47.819	0	240.00	0	5.1280	0	33.7790	0	26.695	0	237.852	0	112.1	4	36.2	4	-1E+10	1	-1E+10	1	-1E+10	1	-1E+10	1	-1E+10	1	-1E+10	1
4902551	93	C	03/11/2023	16:56	-131.207	47.819	0	240.90	0	5.1240	0	33.7800	0	26.696	0	238.743	0	111.4	4	36.0	4	-1E+10	1	-1E+10	1	-1E+10	1	-1E+10	1	-1E+10	1	-1E+10	1
4902551	93	C	03/11/2023	16:56	-131.207	47.819	0	241.80	0	5.1200	0	33.7820	0	26.698	0	239.635	0	110.8	4	35.8	4	-1E+10	1	-1E+10	1	-1E+10	1	-1E+10	1	-1E+10	1	-1E+10	1
4902551	93	C	03/11/2023	16:56	-131.207	47.819	0	242.70	0	5.1170	0	33.7820	0	26.699	0	240.526	0	110.2	4	35.6	4	-1E+10	1	-1E+10	1	-1E+10	1	-1E+10	1	-1E+10	1	-1E+10	1
4902551	93	C	03/11/2023	16:56	-131.207	47.819	0	243.60	0	5.1110	0	33.7860	0	26.702	0	241.417	0	109.5	4	35.4	4	-1E+10	1	-1E+10	1	-1E+10	1	-1E+10	1	-1E+10	1	-1E+10	1
4902551	93	C	03/11/2023	16:56	-131.207	47.819	0	244.60	0	5.1050	0	33.7850	0	26.702	0	242.408	0	108.9	4	35.2	4	-1E+10	1	-1E+10	1	-1E+10	1	-1E+10	1	-1E+10	1	-1E+10	1
4902551	93	C	03/11/2023	16:56	-131.207	47.819	0	245.50	0	5.1010	0	33.7840	0	26.702	0	243.299	0	108.3	4	35.0	4	-1E+10	1	-1E+10	1	-1E+10	1	-1E+10	1	-1E+10	1	-1E+10	1
4902551	93	C	03/11/2023	16:56	-131.207	47.819	0	246.90	0	5.0770	0	33.7870	0	26.707	0	244.686	0	107.5	4	34.7	4	-1E+10	1	-1E+10	1	-1E+10	1	-1E+10	1	-1E+10	1	-1E+10	1
4902551	93	C	03/11/2023	16:56	-131.207	47.819	0	248.40	0	5.0660	0	33.7900	0	26.711	0	246.172	0	106.7	4	34.5	4	-1E+10	1	-1E+10	1	-1E+10	1	-1E+10	1	-1E+10	1	-1E+10	1
4902551	93	C	03/11/2023	16:56	-131.207	47.819	0	249.30	0	5.0640	0	33.7910	0	26.712	0	247.063	0	106.2	4	34.3	4	-1E+10	1	-1E+10	1	-1E+10	1	-1E+10	1	-1E+10	1	-1E+10	1
4902551	93	C	03/11/2023	16:56	-131.207	47.819	0	250.30	0	5.0550	0	33.7930	0	26.714	0	248.053	0	105.8	4	34.1	4	-1E+10	1	-1E+10	1	-1E+10	1	-1E+10	1	-1E+10	1	-1E+10	1
4902551	93	C	03/11/2023	16:56	-131.207	47.819	0	251.30	0	5.0530	0	33.7930	0	26.715	0	249.044	0	105.3	4	34.0	4	-1E+10	1	-1E+10	1	-1E+10	1	-1E+10	1	-1E+10	1	-1E+10	1
4902551	93	C	03/11/2023	16:56	-131.207	47.819	0	252.30	0	5.0480	0	33.7940	0	26.716	0	250.034	0	104.9	4	33.9	4	-1E+10	1	-1E+10	1	-1E+10	1	-1E+10	1	-1E+10	1	-1E+10	1
4902551	93	C	03/11/2023	16:56	-131.207	47.819	0	253.20	0	5.0380	0	33.7960	0	26.719	0	250.926	0	104.5	4	33.7	4	-1E+10	1	-1E+10	1	-1E+10	1	-1E+10	1	-1E+10	1	-1E+10	1
4902551	93	C	03/11/2023	16:56	-131.207	47.819	0	254.20	0	5.0310	0	33.7960	0	26.720	0	251.916	0	104.1	4	33.6	4	-1E+10	1	-1E+10	1	-1E+10	1	-1E+10	1	-1E+10	1	-1E+10	1
4902551	93	C	03/11/2023	16:56	-131.207	47.819	0	255.20	0	5.0300	0	33.7960	0	26.720	0	252.906	0	103.6	4	33.4	4	-1E+10	1	-1E+10	1	-1E+10	1	-1E+10	1	-1E+10	1	-1E+10	1
4902551	93	C	03/11/2023	16:56	-131.207	47.819	0	256.10	0	5.0250	0	33.7970	0	26.721	0	253.798	0	103.1	4	33.3	4	-1E+10	1	-1E+10	1	-1E+10	1	-1E+10	1	-1E+10	1	-1E+10	1
4902551	93	C	03/11/2023	16:56	-131.207	47.819	0	257.10	0	5.0170	0	33.7970	0	26.722	0	254.788	0	102.6	4	33.1	4	-1E+10	1	-1E+10	1	-1E+10	1	-1E+10	1	-1E+10	1	-1E+10	1
4902551	93	C	03/11/2023	16:56	-131.207	47.819	0	258.10	0	4.9930	0	33.8010	0	26.728	0	255.779	0	102.2	4	33.0	4	-1E+10	1	-1E+10	1	-1E+10	1	-1E+10	1	-1E+10	1	-1E+10	1
4902551	93	C	03/11/2023	16:56	-131.207	47.819	0	259.10	0	4.9890	0	33.8000	0	26.728	0	256.769	0	101.9	4	32.8	4	-1E+10	1	-1E+10	1	-1E+10	1	-1E+10	1	-1E+10	1	-1E+10	1
4902551	93	C	03/11/2023	16:56	-131.207	47.819	0	260.10	0	4.9850	0	33.8000	0	26.728	0	257.759	0	101.5	4	32.7	4	-1E+10	1	-1E+10	1	-1E+10	1	-1E+10	1	-1E+10	1	-1E+10	1
4902551	93	C	03/11/2023	16:56	-131.207	47.819	0	261.10	0	4.9770	0	33.8040	0	26.732	0	258.750	0	101.1	4	32.6	4	-1E+10	1	-1E+10	1	-1E+10	1	-1E+10	1	-1E+10	1	-1E+10	1
4902551	93	C	03/11/2023	16:56	-131.207	47.819	0	262.10	0	4.9690	0	33.8010	0	26.731	0	259.740	0	100.7	4	32.4	4	-1E+10	1	-1E+10	1	-1E+10	1	-1E+10	1	-1E+10	1	-1E+10	1
4902551	93	C	03/11/2023	16:56	-131.207	47.819	0	263.10	0	4.9640	0	33.8020	0	26.732	0	260.730	0	100.3	4	32.3	4	-1E+10	1	-1E+10	1	-1E+10	1	-1E+10	1	-1E+10	1	-1E+10	1
4902551	93	C	03/11/2023	16:56	-131.207	47.819	0	264.10	0	4.9600	0	33.8020	0	26.732	0	261.721	0	99.8	4	32.2	4	-1E+10	1	-1E+10	1	-1E+10	1	-1E+10	1	-1E+10	1	-1E+10	1
4902551	93	C	03/11/2023	16:56	-131.207	47.819	0	265.10	0	4.9560	0	33.8030	0	26.734	0	262.711	0	99.3	4	32.0	4	-1E+10	1	-1E+10	1	-1E+10	1	-1E+10	1	-1E+10	1	-1E+10	1
4902551	93	C	03/11/2023	16:56	-131.207	47.819	0	266.10	0	4.9480	0	33.8030	0	26.735	0	263.702	0	98.9	4	31.8	4	-1E+10	1	-1E+10	1	-1E+10	1	-1E+10	1	-1E+10	1	-1E+10	1
4902551	93	C	03/11/2023	16:56	-131.207	47.819	0	267.10	0	4.9430	0	33.8040	0	26.736	0	264.692	0	98.4	4	31.7	4	-1E+10	1	-1E+10	1	-1E+10	1	-1E+10	1	-1E+10	1	-1E+10	1
4902551	93	C	03/11/2023	16:56	-131.207	47.819	0	268.00	0	4.9430	0	33.8030	0	26.735	0	265.583	0	97.8	4	31.5	4	-1E+10	1	-1E+10	1	-1E+10	1	-1E+10	1	-1E+10	1	-1E+10	1
4902551	93	C	03/11/2023	16:56	-131.207	47.819	0	269.00	0	4.9350	0	33.8070	0	26.739	0	266.574	0	97.4	4	31.3	4	-1E+10	1	-1E+10	1	-1E+10	1	-1E+10	1	-1E+10	1	-1E+10	1
4902551	93	C	03/11/2023	16:56	-131.207	47.819	0	270.10	0	4.9240	0	33.8080	0	26.741	0	267.663	0	96.9	4	31.2	4	-1E+10	1	-1E+10	1	-1E+10	1	-1E+10	1	-1E+10	1	-1E+10	1
4902551	93	C	03/11/2023	16:56	-131.207	47.819	0	271.00	0	4.9160	0	33.8080	0	26.742	0	268.554	0	96.5	4	31.1	4	-1E+10	1	-1E+10	1	-1E+10	1	-1E+10	1	-1E+10	1	-1E+10	1
4902551	93	C	03/11/2023	16:56	-131.207	47.819	0	272.00	0	4.9050	0	33.8100	0	26.745	0	269.545	0	96.1	4	30.9	4	-1E+10	1	-1E+10	1	-1E+10	1	-1E+10	1	-1E+10	1	-1E+10	1
4902551	93	C	03/11/2023	16:56	-131.207	47.819	0	273.00	0	4.9010	0	33.8090	0	26.745	0	270.535	0	95.7	4	30.8	4	-1E+10	1	-1E+10	1	-1E+10	1	-1E+10	1	-1E+10	1	-1E+10	1
4902551	93	C	03/11/2023	16:56	-131.207	47.819	0	274.00	0	4.8930	0	33.8140	0	26.750	0	271.525	0	95.2	4	30.6	4	-1E+10	1	-1E+10	1	-1E+10	1	-1E+10	1	-1E+10	1	-1E+10	1
4902551	93	C	03/11/2023	16:56	-131.207	47.819	0	275.00	0	4.8880	0	33.8110	0	26.748	0	272.515	0	94.8	4	30.5	4	-1E+10	1	-1E+10	1	-1E+10	1	-1E+10	1	-1E+10	1	-1E+10	1
4902551	93	C	03/11/2023	16:56	-131.207	47.819	0	276.00	0	4.8760	0	33.8160	0	26.753	0	273.506	0	94.4	4	30.3	4	-1E+10	1	-1E+10	1	-1E+10	1	-1E+10	1	-1E+10	1	-1E+10	1
4902551	93	C	03/11/2023	16:56	-131.207	47.819	0	277.00	0	4.8710	0	33.8140	0	26.752	0	274.496	0	94.0	4	30.2	4	-1E+10	1	-1E+10	1	-1E+10	1	-1E+10	1	-1E+10	1	-1E+10	1
4902551	93	C	03/11/2023	16:56	-131.207	47.819	0	278.00	0	4.8680	0	33.8140	0	26.752	0	275.486	0	93.5	4	30.1	4	-1E+10	1	-1E+10	1	-1E+10	1	-1E+10	1	-1E+10	1	-1E+10	1
4902551	93	C	03/11/2023	16:56	-131.207	47.819	0	279.00	0	4.8620	0	33.8150	0	26.754	0	276.477	0	93.1	4	29.9	4	-1E+10	1	-1E+10	1	-1E+10	1	-1E+10	1	-1E+10	1	-1E+10	1
4902551	93	C	03/11/2023	16:56	-131.207	47.819	0	280.00	0	4.8520	0	33.8160	0	26.756	0	277.467	0	92.6	4	29.8	4	-1E+10	1	-1E+10	1	-1E+10	1	-1E+10	1	-1E+10	1	-1E+10	1
4902551	93	C	03/11/2023	16:56	-131.207	47.819	0	281.00	0	4.8500	0	33.8160	0	26.756	0	278.457	0	92.2	4	29.6	4	-1E+10	1	-1E+10	1	-1E+10	1	-1E+10	1	-1E+10	1	-1E+10	1
4902551	93	C	03/11/2023	16:56	-131.207	47.819	0	282.00	0	4.8490	0	33.8160	0	26.756	0	279.447	0	91.7	4	29.5	4	-1E+10	1	-1E+10	1	-1E+10	1	-1E+10	1	-1E+10	1	-1E+10	1
4902551	93	C	03/11/2023	16:56	-131.207	47.819	0	283.00	0	4.8460	0	33.8170	0	26.757	0	280.438	0	91.0	4	29.3	4	-1E+10	1	-1E+10	1	-1E+10	1	-1E+10	1	-1E+10	1	-1E+10	1
4902551	93	C	03/11/2023	16:56	-131.207	47.819	0	284.00	0	4.8410	0	33.8180	0	26.759	0	281.428	0	90.4	4	29.0	4	-1E+10	1	-1E+10	1	-1E+10	1	-1E+10	1	-1E+10	1	-1E+10	1
4902551	93	C	03/11/2023	16:56	-131.207	47.819	0	285.00	0	4.8270	0	33.8200	0	26.762	0	282.418	0	89.9	4	28.9	4	-1E+10	1	-1E+10	1	-1E+10	1	-1E+10	1	-1E+10	1	-1E+10	1
4902551	93	C	03/11/2023	16:56	-131.207	47.819	0	286.00	0	4.8110	0	33.8230	0	26.766	0	283.409	0	89.4	4	28.7	4	-1E+10	1	-1E+10	1	-1E+10	1	-1E+10	1	-1E+10	1	-1E+10	1
4902551	93	C	03/11/2023	16:56	-131.207	47.819	0	287.00	0	4.8100	0	33.8220	0	26.765	0	284.399	0	88.9	4	28.5	4	-1E+10	1	-1E+10	1	-1E+10	1	-1E+10	1	-1E+10	1	-1E+10	1
4902551	93	C	03/11/2023	16:56	-131.207	47.819	0	287.90	0	4.7970	0	33.8250	0	26.769	0	285.290	0	88.4	4	28.4	4	-1E+10	1	-1E+10	1	-1E+10	1	-1E+10	1	-1E+10	1	-1E+10	1
4902551	93	C	03/11/2023	16:56	-131.207	47.819	0	289.00	0	4.7900	0	33.8260	0	26.771	0	286.379	0	88.0	4	28.3	4	-1E+10	1	-1E+10	1	-1E+10	1	-1E+10	1	-1E+10	1	-1E+10	1
4902551	93	C	03/11/2023	16:56	-131.207	47.819	0	289.90	0	4.7830	0	33.8280	0	26.773	0	287.270	0	87.6	4	28.1	4	-1E+10	1	-1E+10	1	-1E+10	1	-1E+10	1	-1E+10	1	-1E+10	1
4902551	93	C	03/11/2023	16:56	-131.207	47.819	0	290.90	0	4.7770	0	33.8290	0	26.774	0	288.261	0	87.2	4	28.0	4	-1E+10	1	-1E+10	1	-1E+10	1	-1E+10	1	-1E+10	1	-1E+10	1
4902551	93	C	03/11/2023	16:56	-131.207	47.819	0	291.90	0	4.7740	0	33.8300	0	26.776	0	289.251	0	86.9	4	27.9	4	-1E+10	1	-1E+10	1	-1E+10	1	-1E+10	1	-1E+10	1	-1E+10	1
4902551	93	C	03/11/2023	16:56	-131.207	47.819	0	292.90	0	4.7710	0	33.8300	0	26.776	0	290.241	0	86.4	4	27.7	4	-1E+10	1	-1E+10	1	-1E+10	1	-1E+10	1	-1E+10	1	-1E+10	1
4902551	93	C	03/11/2023	16:56	-131.207	47.819	0	293.90	0	4.7640	0	33.8310	0	26.778	0	291.231	0	85.9	4	27.6	4	-1E+10	1	-1E+10	1	-1E+10	1	-1E+10	1	-1E+10	1	-1E+10	1
4902551	93	C	03/11/2023	16:56	-131.207	47.819	0	294.90	0	4.7570	0	33.8330	0	26.780	0	292.222	0	85.6	4	27.4	4	-1E+10	1	-1E+10	1	-1E+10	1	-1E+10	1	-1E+10	1	-1E+10	1
4902551	93	C	03/11/2023	16:56	-131.207	47.819	0	295.90	0	4.7550	0	33.8320	0	26.779	0	293.212	0	85.1	4	27.3	4	-1E+10	1	-1E+10	1	-1E+10	1	-1E+10	1	-1E+10	1	-1E+10	1
4902551	93	C	03/11/2023	16:56	-131.207	47.819	0	296.90	0	4.7460	0	33.8340	0	26.782	0	294.202	0	84.6	4	27.1	4	-1E+10	1	-1E+10	1	-1E+10	1	-1E+10	1	-1E+10	1	-1E+10	1
4902551	93	C	03/11/2023	16:56	-131.207	47.819	0	297.90	0	4.7420	0	33.8350	0	26.783	0	295.192	0	84.2	4	27.0	4	-1E+10	1	-1E+10	1	-1E+10	1	-1E+10	1	-1E+10	1	-1E+10	1
4902551	93	C	03/11/2023	16:56	-131.207	47.819	0	298.80	0	4.7400	0	33.8350	0	26.783	0	296.083	0	83.7	4	26.8	4	-1E+10	1	-1E+10	1	-1E+10	1	-1E+10	1	-1E+10	1	-1E+10	1
4902551	93	C	03/11/2023	16:56	-131.207	47.819	0	299.80	0	4.7280	0	33.8360	0	26.786	0	297.074	0	83.2	4	26.7	4	-1E+10	1	-1E+10	1	-1E+10	1	-1E+10	1	-1E+10	1	-1E+10	1
4902551	93	C	03/11/2023	16:56	-131.207	47.819	0	300.80	0	4.7260	0	33.8360	0	26.786	0	298.064	0	82.7	4	26.5	4	-1E+10	1	-1E+10	1	-1E+10	1	-1E+10	1	-1E+10	1	-1E+10	1
4902551	93	C	03/11/2023	16:56	-131.207	47.819	0	301.70	0	4.7130	0	33.8390	0	26.790	0	298.955	0	82.2	4	26.3	4	-1E+10	1	-1E+10	1	-1E+10	1	-1E+10	1	-1E+10	1	-1E+10	1
4902551	93	C	03/11/2023	16:56	-131.207	47.819	0	302.70	0	4.6970	0	33.8430	0	26.795	0	299.945	0	81.8	4	26.2	4	-1E+10	1	-1E+10	1	-1E+10	1	-1E+10	1	-1E+10	1	-1E+10	1
4902551	93	C	03/11/2023	16:56	-131.207	47.819	0	303.70	0	4.6900	0	33.8440	0	26.796	0	300.935	0	81.4	4	26.1	4	-1E+10	1	-1E+10	1	-1E+10	1	-1E+10	1	-1E+10	1	-1E+10	1
4902551	93	C	03/11/2023	16:56	-131.207	47.819	0	304.70	0	4.6800	0	33.8440	0	26.797	0	301.925	0	81.1	4	26.0	4	-1E+10	1	-1E+10	1	-1E+10	1	-1E+10	1	-1E+10	1	-1E+10	1
4902551	93	C	03/11/2023	16:56	-131.207	47.819	0	305.70	0	4.6780	0	33.8440	0	26.797	0	302.916	0	80.7	4	25.8	4	-1E+10	1	-1E+10	1	-1E+10	1	-1E+10	1	-1E+10	1	-1E+10	1
4902551	93	C	03/11/2023	16:56	-131.207	47.819	0	306.70	0	4.6770	0	33.8440	0	26.798	0	303.906	0	80.3	4	25.7	4	-1E+10	1	-1E+10	1	-1E+10	1	-1E+10	1	-1E+10	1	-1E+10	1
4902551	93	C	03/11/2023	16:56	-131.207	47.819	0	307.70	0	4.6710	0	33.8450	0	26.799	0	304.896	0	79.9	4	25.6	4	-1E+10	1	-1E+10	1	-1E+10	1	-1E+10	1	-1E+10	1	-1E+10	1
4902551	93	C	03/11/2023	16:56	-131.207	47.819	0	308.60	0	4.6650	0	33.8450	0	26.800	0	305.787	0	79.4	4	25.4	4	-1E+10	1	-1E+10	1	-1E+10	1	-1E+10	1	-1E+10	1	-1E+10	1
4902551	93	C	03/11/2023	16:56	-131.207	47.819	0	309.60	0	4.6480	0	33.8480	0	26.804	0	306.777	0	79.0	4	25.3	4	-1E+10	1	-1E+10	1	-1E+10	1	-1E+10	1	-1E+10	1	-1E+10	1
4902551	93	C	03/11/2023	16:56	-131.207	47.819	0	310.60	0	4.6390	0	33.8480	0	26.805	0	307.767	0	78.7	4	25.2	4	-1E+10	1	-1E+10	1	-1E+10	1	-1E+10	1	-1E+10	1	-1E+10	1
4902551	93	C	03/11/2023	16:56	-131.207	47.819	0	311.50	0	4.6340	0	33.8500	0	26.807	0	308.658	0	78.3	4	25.1	4	-1E+10	1	-1E+10	1	-1E+10	1	-1E+10	1	-1E+10	1	-1E+10	1
4902551	93	C	03/11/2023	16:56	-131.207	47.819	0	312.50	0	4.6320	0	33.8490	0	26.806	0	309.649	0	78.0	4	24.9	4	-1E+10	1	-1E+10	1	-1E+10	1	-1E+10	1	-1E+10	1	-1E+10	1
4902551	93	C	03/11/2023	16:56	-131.207	47.819	0	313.90	0	4.6210	0	33.8510	0	26.809	0	311.035	0	77.4	4	24.8	4	-1E+10	1	-1E+10	1	-1E+10	1	-1E+10	1	-1E+10	1	-1E+10	1
4902551	93	C	03/11/2023	16:56	-131.207	47.819	0	315.40	0	4.6080	0	33.8520	0	26.811	0	312.520	0	76.9	4	24.6	4	-1E+10	1	-1E+10	1	-1E+10	1	-1E+10	1	-1E+10	1	-1E+10	1
4902551	93	C	03/11/2023	16:56	-131.207	47.819	0	316.40	0	4.6050	0	33.8530	0	26.813	0	313.510	0	76.5	4	24.5	4	-1E+10	1	-1E+10	1	-1E+10	1	-1E+10	1	-1E+10	1	-1E+10	1
4902551	93	C	03/11/2023	16:56	-131.207	47.819	0	317.30	0	4.6010	0	33.8530	0	26.813	0	314.401	0	76.2	4	24.3	4	-1E+10	1	-1E+10	1	-1E+10	1	-1E+10	1	-1E+10	1	-1E+10	1
4902551	93	C	03/11/2023	16:56	-131.207	47.819	0	318.30	0	4.5930	0	33.8540	0	26.815	0	315.391	0	75.8	4	24.2	4	-1E+10	1	-1E+10	1	-1E+10	1	-1E+10	1	-1E+10	1	-1E+10	1
4902551	93	C	03/11/2023	16:56	-131.207	47.819	0	319.30	0	4.5840	0	33.8570	0	26.818	0	316.381	0	75.4	4	24.1	4	-1E+10	1	-1E+10	1	-1E+10	1	-1E+10	1	-1E+10	1	-1E+10	1
4902551	93	C	03/11/2023	16:56	-131.207	47.819	0	320.30	0	4.5810	0	33.8560	0	26.818	0	317.371	0	75.0	4	24.0	4	-1E+10	1	-1E+10	1	-1E+10	1	-1E+10	1	-1E+10	1	-1E+10	1
4902551	93	C	03/11/2023	16:56	-131.207	47.819	0	321.30	0	4.5780	0	33.8560	0	26.818	0	318.362	0	74.6	4	23.8	4	-1E+10	1	-1E+10	1	-1E+10	1	-1E+10	1	-1E+10	1	-1E+10	1
4902551	93	C	03/11/2023	16:56	-131.207	47.819	0	322.20	0	4.5700	0	33.8570	0	26.820	0	319.253	0	74.3	4	23.7	4	-1E+10	1	-1E+10	1	-1E+10	1	-1E+10	1	-1E+10	1	-1E+10	1
4902551	93	C	03/11/2023	16:56	-131.207	47.819	0	323.20	0	4.5610	0	33.8580	0	26.821	0	320.243	0	73.9	4	23.6	4	-1E+10	1	-1E+10	1	-1E+10	1	-1E+10	1	-1E+10	1	-1E+10	1
4902551	93	C	03/11/2023	16:56	-131.207	47.819	0	324.20	0	4.5570	0	33.8590	0	26.823	0	321.233	0	73.5	4	23.5	4	-1E+10	1	-1E+10	1	-1E+10	1	-1E+10	1	-1E+10	1	-1E+10	1
4902551	93	C	03/11/2023	16:56	-131.207	47.819	0	325.10	0	4.5540	0	33.8600	0	26.824	0	322.124	0	73.1	4	23.3	4	-1E+10	1	-1E+10	1	-1E+10	1	-1E+10	1	-1E+10	1	-1E+10	1
4902551	93	C	03/11/2023	16:56	-131.207	47.819	0	326.10	0	4.5460	0	33.8620	0	26.826	0	323.114	0	72.7	4	23.2	4	-1E+10	1	-1E+10	1	-1E+10	1	-1E+10	1	-1E+10	1	-1E+10	1
4902551	93	C	03/11/2023	16:56	-131.207	47.819	0	327.10	0	4.5380	0	33.8630	0	26.828	0	324.104	0	72.3	4	23.1	4	-1E+10	1	-1E+10	1	-1E+10	1	-1E+10	1	-1E+10	1	-1E+10	1
4902551	93	C	03/11/2023	16:56	-131.207	47.819	0	328.10	0	4.5340	0	33.8630	0	26.828	0	325.094	0	71.9	4	22.9	4	-1E+10	1	-1E+10	1	-1E+10	1	-1E+10	1	-1E+10	1	-1E+10	1
4902551	93	C	03/11/2023	16:56	-131.207	47.819	0	329.10	0	4.5260	0	33.8650	0	26.831	0	326.084	0	71.6	4	22.8	4	-1E+10	1	-1E+10	1	-1E+10	1	-1E+10	1	-1E+10	1	-1E+10	1
4902551	93	C	03/11/2023	16:56	-131.207	47.819	0	330.10	0	4.5200	0	33.8660	0	26.832	0	327.074	0	71.2	4	22.7	4	-1E+10	1	-1E+10	1	-1E+10	1	-1E+10	1	-1E+10	1	-1E+10	1
4902551	93	C	03/11/2023	16:56	-131.207	47.819	0	331.10	0	4.5130	0	33.8670	0	26.834	0	328.064	0	70.9	4	22.6	4	-1E+10	1	-1E+10	1	-1E+10	1	-1E+10	1	-1E+10	1	-1E+10	1
4902551	93	C	03/11/2023	16:56	-131.207	47.819	0	332.00	0	4.5100	0	33.8680	0	26.835	0	328.955	0	70.5	4	22.5	4	-1E+10	1	-1E+10	1	-1E+10	1	-1E+10	1	-1E+10	1	-1E+10	1
4902551	93	C	03/11/2023	16:56	-131.207	47.819	0	333.00	0	4.5090	0	33.8680	0	26.835	0	329.945	0	70.1	4	22.3	4	-1E+10	1	-1E+10	1	-1E+10	1	-1E+10	1	-1E+10	1	-1E+10	1
4902551	93	C	03/11/2023	16:56	-131.207	47.819	0	334.00	0	4.5080	0	33.8680	0	26.835	0	330.935	0	69.6	4	22.2	4	-1E+10	1	-1E+10	1	-1E+10	1	-1E+10	1	-1E+10	1	-1E+10	1
4902551	93	C	03/11/2023	16:56	-131.207	47.819	0	335.00	0	4.4990	0	33.8710	0	26.838	0	331.925	0	69.2	4	22.1	4	-1E+10	1	-1E+10	1	-1E+10	1	-1E+10	1	-1E+10	1	-1E+10	1
4902551	93	C	03/11/2023	16:56	-131.207	47.819	0	336.00	0	4.4830	0	33.8750	0	26.843	0	332.915	0	68.8	4	21.9	4	-1E+10	1	-1E+10	1	-1E+10	1	-1E+10	1	-1E+10	1	-1E+10	1
4902551	93	C	03/11/2023	16:56	-131.207	47.819	0	337.00	0	4.4780	0	33.8760	0	26.845	0	333.905	0	68.6	4	21.9	4	-1E+10	1	-1E+10	1	-1E+10	1	-1E+10	1	-1E+10	1	-1E+10	1
4902551	93	C	03/11/2023	16:56	-131.207	47.819	0	337.90	0	4.4800	0	33.8780	0	26.846	0	334.796	0	68.3	4	21.8	4	-1E+10	1	-1E+10	1	-1E+10	1	-1E+10	1	-1E+10	1	-1E+10	1
4902551	93	C	03/11/2023	16:56	-131.207	47.819	0	338.90	0	4.4820	0	33.8780	0	26.846	0	335.786	0	68.0	4	21.7	4	-1E+10	1	-1E+10	1	-1E+10	1	-1E+10	1	-1E+10	1	-1E+10	1
4902551	93	C	03/11/2023	16:56	-131.207	47.819	0	339.90	0	4.4810	0	33.8790	0	26.847	0	336.776	0	67.6	4	21.6	4	-1E+10	1	-1E+10	1	-1E+10	1	-1E+10	1	-1E+10	1	-1E+10	1
4902551	93	C	03/11/2023	16:56	-131.207	47.819	0	340.90	0	4.4870	0	33.8810	0	26.848	0	337.766	0	67.2	4	21.4	4	-1E+10	1	-1E+10	1	-1E+10	1	-1E+10	1	-1E+10	1	-1E+10	1
4902551	93	C	03/11/2023	16:56	-131.207	47.819	0	341.80	0	4.4850	0	33.8820	0	26.849	0	338.657	0	66.9	4	21.3	4	-1E+10	1	-1E+10	1	-1E+10	1	-1E+10	1	-1E+10	1	-1E+10	1
4902551	93	C	03/11/2023	16:56	-131.207	47.819	0	342.70	0	4.4740	0	33.8860	0	26.853	0	339.548	0	66.5	4	21.2	4	-1E+10	1	-1E+10	1	-1E+10	1	-1E+10	1	-1E+10	1	-1E+10	1
4902551	93	C	03/11/2023	16:56	-131.207	47.819	0	343.80	0	4.4690	0	33.8860	0	26.854	0	340.637	0	66.2	4	21.1	4	-1E+10	1	-1E+10	1	-1E+10	1	-1E+10	1	-1E+10	1	-1E+10	1
4902551	93	C	03/11/2023	16:56	-131.207	47.819	0	344.90	0	4.4680	0	33.8880	0	26.855	0	341.726	0	65.8	4	21.0	4	-1E+10	1	-1E+10	1	-1E+10	1	-1E+10	1	-1E+10	1	-1E+10	1
4902551	93	C	03/11/2023	16:56	-131.207	47.819	0	346.00	0	4.4500	0	33.8880	0	26.857	0	342.815	0	65.4	4	20.8	4	-1E+10	1	-1E+10	1	-1E+10	1	-1E+10	1	-1E+10	1	-1E+10	1
4902551	93	C	03/11/2023	16:56	-131.207	47.819	0	346.80	0	4.4360	0	33.8900	0	26.860	0	343.607	0	65.2	4	20.8	4	-1E+10	1	-1E+10	1	-1E+10	1	-1E+10	1	-1E+10	1	-1E+10	1
4902551	93	C	03/11/2023	16:56	-131.207	47.819	0	347.90	0	4.4340	0	33.8900	0	26.861	0	344.696	0	64.8	4	20.6	4	-1E+10	1	-1E+10	1	-1E+10	1	-1E+10	1	-1E+10	1	-1E+10	1
4902551	93	C	03/11/2023	16:56	-131.207	47.819	0	349.10	0	4.4350	0	33.8920	0	26.862	0	345.884	0	64.5	4	20.5	4	-1E+10	1	-1E+10	1	-1E+10	1	-1E+10	1	-1E+10	1	-1E+10	1
4902551	93	C	03/11/2023	16:56	-131.207	47.819	0	349.90	0	4.4310	0	33.8930	0	26.863	0	346.676	0	64.3	4	20.5	4	-1E+10	1	-1E+10	1	-1E+10	1	-1E+10	1	-1E+10	1	-1E+10	1
4902551	93	C	03/11/2023	16:56	-131.207	47.819	0	352.70	0	4.4250	0	33.8960	0	26.866	0	349.448	0	63.4	4	20.2	4	-1E+10	1	-1E+10	1	-1E+10	1	-1E+10	1	-1E+10	1	-1E+10	1
4902551	93	C	03/11/2023	16:56	-131.207	47.819	0	357.90	0	4.4100	0	33.9030	0	26.874	0	354.596	0	61.5	4	19.6	4	-1E+10	1	-1E+10	1	-1E+10	1	-1E+10	1	-1E+10	1	-1E+10	1
4902551	93	C	03/11/2023	16:56	-131.207	47.819	0	362.90	0	4.3920	0	33.9130	0	26.883	0	359.545	0	60.0	4	19.1	4	-1E+10	1	-1E+10	1	-1E+10	1	-1E+10	1	-1E+10	1	-1E+10	1
4902551	93	C	03/11/2023	16:56	-131.207	47.819	0	367.80	0	4.3890	0	33.9220	0	26.891	0	364.395	0	58.9	4	18.7	4	-1E+10	1	-1E+10	1	-1E+10	1	-1E+10	1	-1E+10	1	-1E+10	1
4902551	93	C	03/11/2023	16:56	-131.207	47.819	0	372.80	0	4.3860	0	33.9270	0	26.895	0	369.345	0	58.0	4	18.4	4	-1E+10	1	-1E+10	1	-1E+10	1	-1E+10	1	-1E+10	1	-1E+10	1
4902551	93	C	03/11/2023	16:56	-131.207	47.819	0	377.90	0	4.3730	0	33.9310	0	26.900	0	374.393	0	56.8	4	18.1	4	-1E+10	1	-1E+10	1	-1E+10	1	-1E+10	1	-1E+10	1	-1E+10	1
4902551	93	C	03/11/2023	16:56	-131.207	47.819	0	383.20	0	4.3660	0	33.9400	0	26.908	0	379.639	0	55.9	4	17.8	4	-1E+10	1	-1E+10	1	-1E+10	1	-1E+10	1	-1E+10	1	-1E+10	1
4902551	93	C	03/11/2023	16:56	-131.207	47.819	0	388.10	0	4.3640	0	33.9450	0	26.912	0	384.489	0	55.2	4	17.5	4	-1E+10	1	-1E+10	1	-1E+10	1	-1E+10	1	-1E+10	1	-1E+10	1
4902551	93	C	03/11/2023	16:56	-131.207	47.819	0	392.90	0	4.3520	0	33.9470	0	26.915	0	389.240	0	54.5	4	17.3	4	-1E+10	1	-1E+10	1	-1E+10	1	-1E+10	1	-1E+10	1	-1E+10	1
4902551	93	C	03/11/2023	16:56	-131.207	47.819	0	397.80	0	4.3520	0	33.9520	0	26.919	0	394.089	0	53.7	4	17.1	4	-1E+10	1	-1E+10	1	-1E+10	1	-1E+10	1	-1E+10	1	-1E+10	1
4902551	93	C	03/11/2023	16:56	-131.207	47.819	0	402.80	0	4.3640	0	33.9600	0	26.924	0	399.038	0	53.1	4	16.9	4	-1E+10	1	-1E+10	1	-1E+10	1	-1E+10	1	-1E+10	1	-1E+10	1
4902551	93	C	03/11/2023	16:56	-131.207	47.819	0	407.90	0	4.3600	0	33.9640	0	26.928	0	404.085	0	52.5	4	16.7	4	-1E+10	1	-1E+10	1	-1E+10	1	-1E+10	1	-1E+10	1	-1E+10	1
4902551	93	C	03/11/2023	16:56	-131.207	47.819	0	413.00	0	4.3580	0	33.9650	0	26.929	0	409.132	0	51.8	4	16.5	4	-1E+10	1	-1E+10	1	-1E+10	1	-1E+10	1	-1E+10	1	-1E+10	1
4902551	93	C	03/11/2023	16:56	-131.207	47.819	0	418.10	0	4.3560	0	33.9680	0	26.931	0	414.180	0	50.9	4	16.2	4	-1E+10	1	-1E+10	1	-1E+10	1	-1E+10	1	-1E+10	1	-1E+10	1
4902551	93	C	03/11/2023	16:56	-131.207	47.819	0	423.30	0	4.3520	0	33.9710	0	26.934	0	419.326	0	49.6	4	15.8	4	-1E+10	1	-1E+10	1	-1E+10	1	-1E+10	1	-1E+10	1	-1E+10	1
4902551	93	C	03/11/2023	16:56	-131.207	47.819	0	427.90	0	4.3400	0	33.9790	0	26.942	0	423.878	0	48.0	4	15.3	4	-1E+10	1	-1E+10	1	-1E+10	1	-1E+10	1	-1E+10	1	-1E+10	1
4902551	93	C	03/11/2023	16:56	-131.207	47.819	0	432.50	0	4.3120	0	33.9890	0	26.953	0	428.430	0	47.0	4	14.9	4	-1E+10	1	-1E+10	1	-1E+10	1	-1E+10	1	-1E+10	1	-1E+10	1
4902551	93	C	03/11/2023	16:56	-131.207	47.819	0	437.80	0	4.3120	0	33.9920	0	26.955	0	433.674	0	45.6	4	14.5	4	-1E+10	1	-1E+10	1	-1E+10	1	-1E+10	1	-1E+10	1	-1E+10	1
4902551	93	C	03/11/2023	16:56	-131.207	47.819	0	443.00	0	4.3230	0	34.0010	0	26.961	0	438.820	0	43.9	4	13.9	4	-1E+10	1	-1E+10	1	-1E+10	1	-1E+10	1	-1E+10	1	-1E+10	1
4902551	93	C	03/11/2023	16:56	-131.207	47.819	0	448.30	0	4.2970	0	34.0150	0	26.975	0	444.064	0	42.2	4	13.4	4	-1E+10	1	-1E+10	1	-1E+10	1	-1E+10	1	-1E+10	1	-1E+10	1
4902551	93	C	03/11/2023	16:56	-131.207	47.819	0	453.00	0	4.2890	0	34.0230	0	26.982	0	448.715	0	41.3	4	13.1	4	-1E+10	1	-1E+10	1	-1E+10	1	-1E+10	1	-1E+10	1	-1E+10	1
4902551	93	C	03/11/2023	16:56	-131.207	47.819	0	457.70	0	4.2710	0	34.0300	0	26.990	0	453.365	0	40.5	4	12.9	4	-1E+10	1	-1E+10	1	-1E+10	1	-1E+10	1	-1E+10	1	-1E+10	1
4902551	93	C	03/11/2023	16:56	-131.207	47.819	0	463.00	0	4.2580	0	34.0340	0	26.995	0	458.609	0	39.8	4	12.6	4	-1E+10	1	-1E+10	1	-1E+10	1	-1E+10	1	-1E+10	1	-1E+10	1
4902551	93	C	03/11/2023	16:56	-131.207	47.819	0	468.20	0	4.2450	0	34.0380	0	26.999	0	463.754	0	38.9	4	12.4	4	-1E+10	1	-1E+10	1	-1E+10	1	-1E+10	1	-1E+10	1	-1E+10	1
4902551	93	C	03/11/2023	16:56	-131.207	47.819	0	473.00	0	4.2370	0	34.0420	0	27.003	0	468.503	0	38.1	4	12.1	4	-1E+10	1	-1E+10	1	-1E+10	1	-1E+10	1	-1E+10	1	-1E+10	1
4902551	93	C	03/11/2023	16:56	-131.207	47.819	0	477.60	0	4.2280	0	34.0460	0	27.007	0	473.054	0	37.1	4	11.8	4	-1E+10	1	-1E+10	1	-1E+10	1	-1E+10	1	-1E+10	1	-1E+10	1
4902551	93	C	03/11/2023	16:56	-131.207	47.819	0	482.90	0	4.2250	0	34.0510	0	27.012	0	478.297	0	36.0	4	11.4	4	-1E+10	1	-1E+10	1	-1E+10	1	-1E+10	1	-1E+10	1	-1E+10	1
4902551	93	C	03/11/2023	16:56	-131.207	47.819	0	488.00	0	4.2230	0	34.0610	0	27.020	0	483.343	0	35.0	4	11.1	4	-1E+10	1	-1E+10	1	-1E+10	1	-1E+10	1	-1E+10	1	-1E+10	1
4902551	93	C	03/11/2023	16:56	-131.207	47.819	0	493.10	0	4.2220	0	34.0660	0	27.024	0	488.388	0	34.5	4	10.9	4	-1E+10	1	-1E+10	1	-1E+10	1	-1E+10	1	-1E+10	1	-1E+10	1
4902551	93	C	03/11/2023	16:56	-131.207	47.819	0	498.30	0	4.2200	0	34.0670	0	27.025	0	493.532	0	33.9	4	10.7	4	-1E+10	1	-1E+10	1	-1E+10	1	-1E+10	1	-1E+10	1	-1E+10	1
4902551	93	C	03/11/2023	16:56	-131.207	47.819	0	503.30	0	4.2170	0	34.0690	0	27.027	0	498.478	0	33.0	4	10.5	4	-1E+10	1	-1E+10	1	-1E+10	1	-1E+10	1	-1E+10	1	-1E+10	1
4902551	93	C	03/11/2023	16:56	-131.207	47.819	0	507.90	0	4.2070	0	34.0750	0	27.033	0	503.029	0	32.1	4	10.2	4	-1E+10	1	-1E+10	1	-1E+10	1	-1E+10	1	-1E+10	1	-1E+10	1
4902551	93	C	03/11/2023	16:56	-131.207	47.819	0	512.50	0	4.1870	0	34.0800	0	27.039	0	507.579	0	31.4	4	9.9	4	-1E+10	1	-1E+10	1	-1E+10	1	-1E+10	1	-1E+10	1	-1E+10	1
4902551	93	C	03/11/2023	16:56	-131.207	47.819	0	517.60	0	4.1810	0	34.0850	0	27.044	0	512.624	0	30.4	4	9.6	4	-1E+10	1	-1E+10	1	-1E+10	1	-1E+10	1	-1E+10	1	-1E+10	1
4902551	93	C	03/11/2023	16:56	-131.207	47.819	0	523.00	0	4.1510	0	34.0970	0	27.056	0	517.965	0	29.9	4	9.5	4	-1E+10	1	-1E+10	1	-1E+10	1	-1E+10	1	-1E+10	1	-1E+10	1
4902551	93	C	03/11/2023	16:56	-131.207	47.819	0	528.10	0	4.1090	0	34.1010	0	27.064	0	523.010	0	30.0	4	9.5	4	-1E+10	1	-1E+10	1	-1E+10	1	-1E+10	1	-1E+10	1	-1E+10	1
4902551	93	C	03/11/2023	16:56	-131.207	47.819	0	532.80	0	4.0600	0	34.1050	0	27.072	0	527.658	0	29.7	4	9.4	4	-1E+10	1	-1E+10	1	-1E+10	1	-1E+10	1	-1E+10	1	-1E+10	1
4902551	93	C	03/11/2023	16:56	-131.207	47.819	0	538.00	0	4.0420	0	34.1090	0	27.077	0	532.802	0	29.2	4	9.2	4	-1E+10	1	-1E+10	1	-1E+10	1	-1E+10	1	-1E+10	1	-1E+10	1
4902551	93	C	03/11/2023	16:56	-131.207	47.819	0	543.30	0	4.0350	0	34.1120	0	27.080	0	538.044	0	28.7	4	9.1	4	-1E+10	1	-1E+10	1	-1E+10	1	-1E+10	1	-1E+10	1	-1E+10	1
4902551	93	C	03/11/2023	16:56	-131.207	47.819	0	548.30	0	4.0180	0	34.1160	0	27.085	0	542.989	0	28.0	4	8.8	4	-1E+10	1	-1E+10	1	-1E+10	1	-1E+10	1	-1E+10	1	-1E+10	1
4902551	93	C	03/11/2023	16:56	-131.207	47.819	0	552.90	0	4.0000	0	34.1210	0	27.091	0	547.538	0	27.4	4	8.7	4	-1E+10	1	-1E+10	1	-1E+10	1	-1E+10	1	-1E+10	1	-1E+10	1
4902551	93	C	03/11/2023	16:56	-131.207	47.819	0	557.60	0	3.9840	0	34.1270	0	27.097	0	552.186	0	27.0	4	8.5	4	-1E+10	1	-1E+10	1	-1E+10	1	-1E+10	1	-1E+10	1	-1E+10	1
4902551	93	C	03/11/2023	16:56	-131.207	47.819	0	562.80	0	3.9720	0	34.1300	0	27.101	0	557.329	0	26.5	4	8.3	4	-1E+10	1	-1E+10	1	-1E+10	1	-1E+10	1	-1E+10	1	-1E+10	1
4902551	93	C	03/11/2023	16:56	-131.207	47.819	0	568.10	0	3.9590	0	34.1340	0	27.106	0	562.570	0	26.0	4	8.2	4	-1E+10	1	-1E+10	1	-1E+10	1	-1E+10	1	-1E+10	1	-1E+10	1
4902551	93	C	03/11/2023	16:56	-131.207	47.819	0	573.00	0	3.9520	0	34.1360	0	27.108	0	567.416	0	25.5	4	8.0	4	-1E+10	1	-1E+10	1	-1E+10	1	-1E+10	1	-1E+10	1	-1E+10	1
4902551	93	C	03/11/2023	16:56	-131.207	47.819	0	578.10	0	3.9410	0	34.1400	0	27.112	0	572.459	0	25.0	4	7.9	4	-1E+10	1	-1E+10	1	-1E+10	1	-1E+10	1	-1E+10	1	-1E+10	1
4902551	93	C	03/11/2023	16:56	-131.207	47.819	0	583.20	0	3.9230	0	34.1450	0	27.118	0	577.502	0	24.6	4	7.7	4	-1E+10	1	-1E+10	1	-1E+10	1	-1E+10	1	-1E+10	1	-1E+10	1
4902551	93	C	03/11/2023	16:56	-131.207	47.819	0	587.90	0	3.9120	0	34.1490	0	27.123	0	582.150	0	24.3	4	7.6	4	-1E+10	1	-1E+10	1	-1E+10	1	-1E+10	1	-1E+10	1	-1E+10	1
4902551	93	C	03/11/2023	16:56	-131.207	47.819	0	592.70	0	3.9060	0	34.1500	0	27.124	0	586.896	0	24.0	4	7.5	4	-1E+10	1	-1E+10	1	-1E+10	1	-1E+10	1	-1E+10	1	-1E+10	1
4902551	93	C	03/11/2023	16:56	-131.207	47.819	0	597.50	0	3.8950	0	34.1540	0	27.128	0	591.642	0	23.6	4	7.4	4	-1E+10	1	-1E+10	1	-1E+10	1	-1E+10	1	-1E+10	1	-1E+10	1
4902551	93	C	03/11/2023	16:56	-131.207	47.819	0	602.50	0	3.8830	0	34.1580	0	27.133	0	596.586	0	23.3	4	7.3	4	-1E+10	1	-1E+10	1	-1E+10	1	-1E+10	1	-1E+10	1	-1E+10	1
4902551	93	C	03/11/2023	16:56	-131.207	47.819	0	607.90	0	3.8760	0	34.1610	0	27.136	0	601.925	0	23.1	4	7.3	4	-1E+10	1	-1E+10	1	-1E+10	1	-1E+10	1	-1E+10	1	-1E+10	1
4902551	93	C	03/11/2023	16:56	-131.207	47.819	0	612.90	0	3.8700	0	34.1620	0	27.137	0	606.869	0	22.8	4	7.2	4	-1E+10	1	-1E+10	1	-1E+10	1	-1E+10	1	-1E+10	1	-1E+10	1
4902551	93	C	03/11/2023	16:56	-131.207	47.819	0	617.90	0	3.8630	0	34.1640	0	27.140	0	611.812	0	22.5	4	7.1	4	-1E+10	1	-1E+10	1	-1E+10	1	-1E+10	1	-1E+10	1	-1E+10	1
4902551	93	C	03/11/2023	16:56	-131.207	47.819	0	622.90	0	3.8530	0	34.1680	0	27.144	0	616.756	0	22.1	4	7.0	4	-1E+10	1	-1E+10	1	-1E+10	1	-1E+10	1	-1E+10	1	-1E+10	1
4902551	93	C	03/11/2023	16:56	-131.207	47.819	0	627.50	0	3.8450	0	34.1700	0	27.146	0	621.303	0	21.8	4	6.9	4	-1E+10	1	-1E+10	1	-1E+10	1	-1E+10	1	-1E+10	1	-1E+10	1
4902551	93	C	03/11/2023	16:56	-131.207	47.819	0	632.80	0	3.8300	0	34.1750	0	27.152	0	626.543	0	21.5	4	6.8	4	-1E+10	1	-1E+10	1	-1E+10	1	-1E+10	1	-1E+10	1	-1E+10	1
4902551	93	C	03/11/2023	16:56	-131.207	47.819	0	638.00	0	3.8210	0	34.1770	0	27.154	0	631.684	0	21.3	4	6.7	4	-1E+10	1	-1E+10	1	-1E+10	1	-1E+10	1	-1E+10	1	-1E+10	1
4902551	93	C	03/11/2023	16:56	-131.207	47.819	0	643.20	0	3.8150	0	34.1790	0	27.157	0	636.824	0	21.0	4	6.6	4	-1E+10	1	-1E+10	1	-1E+10	1	-1E+10	1	-1E+10	1	-1E+10	1
4902551	93	C	03/11/2023	16:56	-131.207	47.819	0	648.00	0	3.8020	0	34.1830	0	27.161	0	641.569	0	20.7	4	6.5	4	-1E+10	1	-1E+10	1	-1E+10	1	-1E+10	1	-1E+10	1	-1E+10	1
4902551	93	C	03/11/2023	16:56	-131.207	47.819	0	652.80	0	3.7900	0	34.1870	0	27.165	0	646.314	0	20.4	4	6.4	4	-1E+10	1	-1E+10	1	-1E+10	1	-1E+10	1	-1E+10	1	-1E+10	1
4902551	93	C	03/11/2023	16:56	-131.207	47.819	0	658.10	0	3.7810	0	34.1890	0	27.168	0	651.553	0	20.2	4	6.3	4	-1E+10	1	-1E+10	1	-1E+10	1	-1E+10	1	-1E+10	1	-1E+10	1
4902551	93	C	03/11/2023	16:56	-131.207	47.819	0	662.90	0	3.7720	0	34.1920	0	27.171	0	656.298	0	19.9	4	6.3	4	-1E+10	1	-1E+10	1	-1E+10	1	-1E+10	1	-1E+10	1	-1E+10	1
4902551	93	C	03/11/2023	16:56	-131.207	47.819	0	667.80	0	3.7610	0	34.1950	0	27.175	0	661.141	0	19.7	4	6.2	4	-1E+10	1	-1E+10	1	-1E+10	1	-1E+10	1	-1E+10	1	-1E+10	1
4902551	93	C	03/11/2023	16:56	-131.207	47.819	0	673.20	0	3.7540	0	34.1970	0	27.177	0	666.479	0	19.5	4	6.1	4	-1E+10	1	-1E+10	1	-1E+10	1	-1E+10	1	-1E+10	1	-1E+10	1
4902551	93	C	03/11/2023	16:56	-131.207	47.819	0	678.00	0	3.7420	0	34.2010	0	27.182	0	671.223	0	19.4	4	6.1	4	-1E+10	1	-1E+10	1	-1E+10	1	-1E+10	1	-1E+10	1	-1E+10	1
4902551	93	C	03/11/2023	16:56	-131.207	47.819	0	682.90	0	3.7330	0	34.2030	0	27.184	0	676.066	0	19.2	4	6.0	4	-1E+10	1	-1E+10	1	-1E+10	1	-1E+10	1	-1E+10	1	-1E+10	1
4902551	93	C	03/11/2023	16:56	-131.207	47.819	0	688.10	0	3.7260	0	34.2050	0	27.186	0	681.206	0	19.0	4	6.0	4	-1E+10	1	-1E+10	1	-1E+10	1	-1E+10	1	-1E+10	1	-1E+10	1
4902551	93	C	03/11/2023	16:56	-131.207	47.819	0	692.90	0	3.7180	0	34.2070	0	27.189	0	685.950	0	18.7	4	5.9	4	-1E+10	1	-1E+10	1	-1E+10	1	-1E+10	1	-1E+10	1	-1E+10	1
4902551	93	C	03/11/2023	16:56	-131.207	47.819	0	697.80	0	3.7030	0	34.2120	0	27.194	0	690.793	0	18.4	4	5.8	4	-1E+10	1	-1E+10	1	-1E+10	1	-1E+10	1	-1E+10	1	-1E+10	1
4902551	93	C	03/11/2023	16:56	-131.207	47.819	0	702.80	0	3.6930	0	34.2140	0	27.197	0	695.734	0	18.2	4	5.7	4	-1E+10	1	-1E+10	1	-1E+10	1	-1E+10	1	-1E+10	1	-1E+10	1
4902551	93	C	03/11/2023	16:56	-131.207	47.819	0	707.80	0	3.6780	0	34.2190	0	27.202	0	700.675	0	18.0	4	5.6	4	-1E+10	1	-1E+10	1	-1E+10	1	-1E+10	1	-1E+10	1	-1E+10	1
4902551	93	C	03/11/2023	16:56	-131.207	47.819	0	713.00	0	3.6680	0	34.2210	0	27.205	0	705.814	0	17.9	4	5.6	4	-1E+10	1	-1E+10	1	-1E+10	1	-1E+10	1	-1E+10	1	-1E+10	1
4902551	93	C	03/11/2023	16:56	-131.207	47.819	0	718.20	0	3.6640	0	34.2230	0	27.207	0	710.953	0	17.8	4	5.6	4	-1E+10	1	-1E+10	1	-1E+10	1	-1E+10	1	-1E+10	1	-1E+10	1
4902551	93	C	03/11/2023	16:56	-131.207	47.819	0	723.00	0	3.6560	0	34.2240	0	27.209	0	715.696	0	17.6	4	5.5	4	-1E+10	1	-1E+10	1	-1E+10	1	-1E+10	1	-1E+10	1	-1E+10	1
4902551	93	C	03/11/2023	16:56	-131.207	47.819	0	727.90	0	3.6430	0	34.2280	0	27.213	0	720.538	0	17.4	4	5.5	4	-1E+10	1	-1E+10	1	-1E+10	1	-1E+10	1	-1E+10	1	-1E+10	1
4902551	93	C	03/11/2023	16:56	-131.207	47.819	0	732.90	0	3.6390	0	34.2300	0	27.215	0	725.479	0	17.3	4	5.4	4	-1E+10	1	-1E+10	1	-1E+10	1	-1E+10	1	-1E+10	1	-1E+10	1
4902551	93	C	03/11/2023	16:56	-131.207	47.819	0	737.90	0	3.6370	0	34.2300	0	27.215	0	730.420	0	17.2	4	5.4	4	-1E+10	1	-1E+10	1	-1E+10	1	-1E+10	1	-1E+10	1	-1E+10	1
4902551	93	C	03/11/2023	16:56	-131.207	47.819	0	742.90	0	3.6340	0	34.2310	0	27.216	0	735.360	0	16.9	4	5.3	4	-1E+10	1	-1E+10	1	-1E+10	1	-1E+10	1	-1E+10	1	-1E+10	1
4902551	93	C	03/11/2023	16:56	-131.207	47.819	0	748.00	0	3.6180	0	34.2350	0	27.221	0	740.399	0	16.7	4	5.2	4	-1E+10	1	-1E+10	1	-1E+10	1	-1E+10	1	-1E+10	1	-1E+10	1
4902551	93	C	03/11/2023	16:56	-131.207	47.819	0	753.20	0	3.6050	0	34.2380	0	27.225	0	745.537	0	16.4	4	5.1	4	-1E+10	1	-1E+10	1	-1E+10	1	-1E+10	1	-1E+10	1	-1E+10	1
4902551	93	C	03/11/2023	16:56	-131.207	47.819	0	758.00	0	3.5910	0	34.2420	0	27.230	0	750.280	0	16.2	4	5.1	4	-1E+10	1	-1E+10	1	-1E+10	1	-1E+10	1	-1E+10	1	-1E+10	1
4902551	93	C	03/11/2023	16:56	-131.207	47.819	0	762.80	0	3.5770	0	34.2450	0	27.233	0	755.022	0	16.0	4	5.0	4	-1E+10	1	-1E+10	1	-1E+10	1	-1E+10	1	-1E+10	1	-1E+10	1
4902551	93	C	03/11/2023	16:56	-131.207	47.819	0	767.60	0	3.5680	0	34.2480	0	27.237	0	759.765	0	15.8	4	4.9	4	-1E+10	1	-1E+10	1	-1E+10	1	-1E+10	1	-1E+10	1	-1E+10	1
4902551	93	C	03/11/2023	16:56	-131.207	47.819	0	772.60	0	3.5590	0	34.2500	0	27.239	0	764.704	0	15.7	4	4.9	4	-1E+10	1	-1E+10	1	-1E+10	1	-1E+10	1	-1E+10	1	-1E+10	1
4902551	93	C	03/11/2023	16:56	-131.207	47.819	0	777.60	0	3.5470	0	34.2530	0	27.243	0	769.644	0	15.4	4	4.8	4	-1E+10	1	-1E+10	1	-1E+10	1	-1E+10	1	-1E+10	1	-1E+10	1
4902551	93	C	03/11/2023	16:56	-131.207	47.819	0	782.70	0	3.5300	0	34.2580	0	27.248	0	774.682	0	15.3	4	4.8	4	-1E+10	1	-1E+10	1	-1E+10	1	-1E+10	1	-1E+10	1	-1E+10	1
4902551	93	C	03/11/2023	16:56	-131.207	47.819	0	787.80	0	3.5240	0	34.2600	0	27.251	0	779.721	0	15.2	4	4.7	4	-1E+10	1	-1E+10	1	-1E+10	1	-1E+10	1	-1E+10	1	-1E+10	1
4902551	93	C	03/11/2023	16:56	-131.207	47.819	0	793.00	0	3.5150	0	34.2620	0	27.253	0	784.858	0	15.0	4	4.7	4	-1E+10	1	-1E+10	1	-1E+10	1	-1E+10	1	-1E+10	1	-1E+10	1
4902551	93	C	03/11/2023	16:56	-131.207	47.819	0	798.20	0	3.5060	0	34.2640	0	27.256	0	789.994	0	14.9	4	4.7	4	-1E+10	1	-1E+10	1	-1E+10	1	-1E+10	1	-1E+10	1	-1E+10	1
4902551	93	C	03/11/2023	16:56	-131.207	47.819	0	802.90	0	3.5030	0	34.2650	0	27.257	0	794.637	0	14.9	4	4.6	4	-1E+10	1	-1E+10	1	-1E+10	1	-1E+10	1	-1E+10	1	-1E+10	1
4902551	93	C	03/11/2023	16:56	-131.207	47.819	0	807.60	0	3.4980	0	34.2660	0	27.258	0	799.280	0	14.8	4	4.6	4	-1E+10	1	-1E+10	1	-1E+10	1	-1E+10	1	-1E+10	1	-1E+10	1
4902551	93	C	03/11/2023	16:56	-131.207	47.819	0	812.90	0	3.4910	0	34.2680	0	27.260	0	804.515	0	14.7	4	4.6	4	-1E+10	1	-1E+10	1	-1E+10	1	-1E+10	1	-1E+10	1	-1E+10	1
4902551	93	C	03/11/2023	16:56	-131.207	47.819	0	818.10	0	3.4850	0	34.2700	0	27.262	0	809.651	0	14.6	4	4.5	4	-1E+10	1	-1E+10	1	-1E+10	1	-1E+10	1	-1E+10	1	-1E+10	1
4902551	93	C	03/11/2023	16:56	-131.207	47.819	0	822.80	0	3.4810	0	34.2710	0	27.264	0	814.294	0	14.5	4	4.5	4	-1E+10	1	-1E+10	1	-1E+10	1	-1E+10	1	-1E+10	1	-1E+10	1
4902551	93	C	03/11/2023	16:56	-131.207	47.819	0	827.60	0	3.4790	0	34.2710	0	27.264	0	819.034	0	14.4	4	4.5	4	-1E+10	1	-1E+10	1	-1E+10	1	-1E+10	1	-1E+10	1	-1E+10	1
4902551	93	C	03/11/2023	16:56	-131.207	47.819	0	832.80	0	3.4780	0	34.2720	0	27.265	0	824.170	0	14.2	4	4.4	4	-1E+10	1	-1E+10	1	-1E+10	1	-1E+10	1	-1E+10	1	-1E+10	1
4902551	93	C	03/11/2023	16:56	-131.207	47.819	0	837.90	0	3.4680	0	34.2750	0	27.268	0	829.208	0	14.1	4	4.4	4	-1E+10	1	-1E+10	1	-1E+10	1	-1E+10	1	-1E+10	1	-1E+10	1
4902551	93	C	03/11/2023	16:56	-131.207	47.819	0	843.10	0	3.4520	0	34.2780	0	27.272	0	834.343	0	13.9	4	4.3	4	-1E+10	1	-1E+10	1	-1E+10	1	-1E+10	1	-1E+10	1	-1E+10	1
4902551	93	C	03/11/2023	16:56	-131.207	47.819	0	848.20	0	3.4430	0	34.2810	0	27.275	0	839.380	0	13.8	4	4.3	4	-1E+10	1	-1E+10	1	-1E+10	1	-1E+10	1	-1E+10	1	-1E+10	1
4902551	93	C	03/11/2023	16:56	-131.207	47.819	0	853.30	0	3.4280	0	34.2850	0	27.280	0	844.417	0	13.7	4	4.3	4	-1E+10	1	-1E+10	1	-1E+10	1	-1E+10	1	-1E+10	1	-1E+10	1
4902551	93	C	03/11/2023	16:56	-131.207	47.819	0	858.40	0	3.4200	0	34.2870	0	27.282	0	849.453	0	13.6	4	4.2	4	-1E+10	1	-1E+10	1	-1E+10	1	-1E+10	1	-1E+10	1	-1E+10	1
4902551	93	C	03/11/2023	16:56	-131.207	47.819	0	862.90	0	3.4120	0	34.2890	0	27.285	0	853.897	0	13.5	4	4.2	4	-1E+10	1	-1E+10	1	-1E+10	1	-1E+10	1	-1E+10	1	-1E+10	1
4902551	93	C	03/11/2023	16:56	-131.207	47.819	0	867.50	0	3.4080	0	34.2900	0	27.286	0	858.440	0	13.4	4	4.2	4	-1E+10	1	-1E+10	1	-1E+10	1	-1E+10	1	-1E+10	1	-1E+10	1
4902551	93	C	03/11/2023	16:56	-131.207	47.819	0	872.90	0	3.3980	0	34.2920	0	27.289	0	863.772	0	13.3	4	4.1	4	-1E+10	1	-1E+10	1	-1E+10	1	-1E+10	1	-1E+10	1	-1E+10	1
4902551	93	C	03/11/2023	16:56	-131.207	47.819	0	878.20	0	3.3900	0	34.2950	0	27.292	0	869.006	0	13.2	4	4.1	4	-1E+10	1	-1E+10	1	-1E+10	1	-1E+10	1	-1E+10	1	-1E+10	1
4902551	93	C	03/11/2023	16:56	-131.207	47.819	0	883.00	0	3.3720	0	34.2990	0	27.297	0	873.745	0	13.0	4	4.1	4	-1E+10	1	-1E+10	1	-1E+10	1	-1E+10	1	-1E+10	1	-1E+10	1
4902551	93	C	03/11/2023	16:56	-131.207	47.819	0	887.70	0	3.3530	0	34.3040	0	27.303	0	878.386	0	13.0	4	4.0	4	-1E+10	1	-1E+10	1	-1E+10	1	-1E+10	1	-1E+10	1	-1E+10	1
4902551	93	C	03/11/2023	16:56	-131.207	47.819	0	892.60	0	3.3500	0	34.3040	0	27.303	0	883.225	0	12.9	4	4.0	4	-1E+10	1	-1E+10	1	-1E+10	1	-1E+10	1	-1E+10	1	-1E+10	1
4902551	93	C	03/11/2023	16:56	-131.207	47.819	0	897.60	0	3.3420	0	34.3070	0	27.306	0	888.161	0	12.8	4	4.0	4	-1E+10	1	-1E+10	1	-1E+10	1	-1E+10	1	-1E+10	1	-1E+10	1
4902551	93	C	03/11/2023	16:56	-131.207	47.819	0	902.60	0	3.3360	0	34.3090	0	27.308	0	893.098	0	12.8	4	4.0	4	-1E+10	1	-1E+10	1	-1E+10	1	-1E+10	1	-1E+10	1	-1E+10	1
4902551	93	C	03/11/2023	16:56	-131.207	47.819	0	907.70	0	3.3290	0	34.3100	0	27.310	0	898.134	0	12.7	4	4.0	4	-1E+10	1	-1E+10	1	-1E+10	1	-1E+10	1	-1E+10	1	-1E+10	1
4902551	93	C	03/11/2023	16:56	-131.207	47.819	0	912.80	0	3.3230	0	34.3120	0	27.312	0	903.169	0	12.6	4	3.9	4	-1E+10	1	-1E+10	1	-1E+10	1	-1E+10	1	-1E+10	1	-1E+10	1
4902551	93	C	03/11/2023	16:56	-131.207	47.819	0	918.00	0	3.3140	0	34.3140	0	27.314	0	908.303	0	12.6	4	3.9	4	-1E+10	1	-1E+10	1	-1E+10	1	-1E+10	1	-1E+10	1	-1E+10	1
4902551	93	C	03/11/2023	16:56	-131.207	47.819	0	923.20	0	3.3050	0	34.3170	0	27.318	0	913.436	0	12.5	4	3.9	4	-1E+10	1	-1E+10	1	-1E+10	1	-1E+10	1	-1E+10	1	-1E+10	1
4902551	93	C	03/11/2023	16:56	-131.207	47.819	0	928.10	0	3.2970	0	34.3190	0	27.320	0	918.274	0	12.4	4	3.9	4	-1E+10	1	-1E+10	1	-1E+10	1	-1E+10	1	-1E+10	1	-1E+10	1
4902551	93	C	03/11/2023	16:56	-131.207	47.819	0	933.00	0	3.2900	0	34.3210	0	27.322	0	923.111	0	12.4	4	3.8	4	-1E+10	1	-1E+10	1	-1E+10	1	-1E+10	1	-1E+10	1	-1E+10	1
4902551	93	C	03/11/2023	16:56	-131.207	47.819	0	937.90	0	3.2790	0	34.3230	0	27.325	0	927.948	0	12.3	4	3.8	4	-1E+10	1	-1E+10	1	-1E+10	1	-1E+10	1	-1E+10	1	-1E+10	1
4902551	93	C	03/11/2023	16:56	-131.207	47.819	0	942.70	0	3.2750	0	34.3250	0	27.327	0	932.687	0	12.2	4	3.8	4	-1E+10	1	-1E+10	1	-1E+10	1	-1E+10	1	-1E+10	1	-1E+10	1
4902551	93	C	03/11/2023	16:56	-131.207	47.819	0	948.10	0	3.2650	0	34.3270	0	27.330	0	938.017	0	12.2	4	3.8	4	-1E+10	1	-1E+10	1	-1E+10	1	-1E+10	1	-1E+10	1	-1E+10	1
4902551	93	C	03/11/2023	16:56	-131.207	47.819	0	953.00	0	3.2550	0	34.3300	0	27.333	0	942.854	0	12.1	4	3.8	4	-1E+10	1	-1E+10	1	-1E+10	1	-1E+10	1	-1E+10	1	-1E+10	1
4902551	93	C	03/11/2023	16:56	-131.207	47.819	0	957.80	0	3.2450	0	34.3320	0	27.335	0	947.592	0	12.1	4	3.8	4	-1E+10	1	-1E+10	1	-1E+10	1	-1E+10	1	-1E+10	1	-1E+10	1
4902551	93	C	03/11/2023	16:56	-131.207	47.819	0	963.10	0	3.2400	0	34.3330	0	27.337	0	952.824	0	12.1	4	3.7	4	-1E+10	1	-1E+10	1	-1E+10	1	-1E+10	1	-1E+10	1	-1E+10	1
4902551	93	C	03/11/2023	16:56	-131.207	47.819	0	968.10	0	3.2380	0	34.3340	0	27.338	0	957.759	0	12.0	4	3.7	4	-1E+10	1	-1E+10	1	-1E+10	1	-1E+10	1	-1E+10	1	-1E+10	1
4902551	93	C	03/11/2023	16:56	-131.207	47.819	0	973.00	0	3.2120	0	34.3410	0	27.346	0	962.595	0	11.9	4	3.7	4	-1E+10	1	-1E+10	1	-1E+10	1	-1E+10	1	-1E+10	1	-1E+10	1
4902551	93	C	03/11/2023	16:56	-131.207	47.819	0	978.10	0	3.2020	0	34.3430	0	27.348	0	967.629	0	11.9	4	3.7	4	-1E+10	1	-1E+10	1	-1E+10	1	-1E+10	1	-1E+10	1	-1E+10	1
4902551	93	C	03/11/2023	16:56	-131.207	47.819	0	982.70	0	3.1930	0	34.3460	0	27.352	0	972.169	0	11.8	4	3.7	4	-1E+10	1	-1E+10	1	-1E+10	1	-1E+10	1	-1E+10	1	-1E+10	1
4902551	93	C	03/11/2023	16:56	-131.207	47.819	0	987.80	0	3.1810	0	34.3490	0	27.355	0	977.202	0	11.8	4	3.7	4	-1E+10	1	-1E+10	1	-1E+10	1	-1E+10	1	-1E+10	1	-1E+10	1
4902551	93	C	03/11/2023	16:56	-131.207	47.819	0	992.90	0	3.1790	0	34.3490	0	27.355	0	982.236	0	11.8	4	3.6	4	-1E+10	1	-1E+10	1	-1E+10	1	-1E+10	1	-1E+10	1	-1E+10	1
4902551	93	C	03/11/2023	16:56	-131.207	47.819	0	997.60	0	3.1770	0	34.3500	0	27.356	0	986.874	0	11.7	4	3.6	4	-1E+10	1	-1E+10	1	-1E+10	1	-1E+10	1	-1E+10	1	-1E+10	1
4902551	93	C	03/11/2023	16:56	-131.207	47.819	0	1005.20	0	3.1470	0	34.3580	0	27.366	0	994.375	0	11.7	4	3.6	4	-1E+10	1	-1E+10	1	-1E+10	1	-1E+10	1	-1E+10	1	-1E+10	1
4902551	93	C	03/11/2023	16:56	-131.207	47.819	0	1015.20	0	3.1220	0	34.3640	0	27.373	0	1004.243	0	11.6	4	3.6	4	-1E+10	1	-1E+10	1	-1E+10	1	-1E+10	1	-1E+10	1	-1E+10	1
4902551	93	C	03/11/2023	16:56	-131.207	47.819	0	1025.30	0	3.1060	0	34.3690	0	27.378	0	1014.210	0	11.6	4	3.6	4	-1E+10	1	-1E+10	1	-1E+10	1	-1E+10	1	-1E+10	1	-1E+10	1
4902551	93	C	03/11/2023	16:56	-131.207	47.819	0	1035.50	0	3.0910	0	34.3730	0	27.383	0	1024.274	0	11.6	4	3.6	4	-1E+10	1	-1E+10	1	-1E+10	1	-1E+10	1	-1E+10	1	-1E+10	1
4902551	93	C	03/11/2023	16:56	-131.207	47.819	0	1045.30	0	3.0700	0	34.3780	0	27.389	0	1033.944	0	11.7	4	3.6	4	-1E+10	1	-1E+10	1	-1E+10	1	-1E+10	1	-1E+10	1	-1E+10	1
4902551	93	C	03/11/2023	16:56	-131.207	47.819	0	1055.20	0	3.0520	0	34.3820	0	27.394	0	1043.712	0	11.7	4	3.6	4	-1E+10	1	-1E+10	1	-1E+10	1	-1E+10	1	-1E+10	1	-1E+10	1
4902551	93	C	03/11/2023	16:56	-131.207	47.819	0	1065.20	0	3.0370	0	34.3850	0	27.397	0	1053.578	0	11.7	4	3.6	4	-1E+10	1	-1E+10	1	-1E+10	1	-1E+10	1	-1E+10	1	-1E+10	1
4902551	93	C	03/11/2023	16:56	-131.207	47.819	0	1075.50	0	3.0220	0	34.3890	0	27.402	0	1063.739	0	11.8	4	3.6	4	-1E+10	1	-1E+10	1	-1E+10	1	-1E+10	1	-1E+10	1	-1E+10	1
4902551	93	C	03/11/2023	16:56	-131.207	47.819	0	1085.50	0	3.0060	0	34.3910	0	27.405	0	1073.604	0	11.9	4	3.7	4	-1E+10	1	-1E+10	1	-1E+10	1	-1E+10	1	-1E+10	1	-1E+10	1
4902551	93	C	03/11/2023	16:56	-131.207	47.819	0	1095.70	0	2.9830	0	34.3950	0	27.411	0	1083.666	0	12.0	4	3.7	4	-1E+10	1	-1E+10	1	-1E+10	1	-1E+10	1	-1E+10	1	-1E+10	1
4902551	93	C	03/11/2023	16:56	-131.207	47.819	0	1105.50	0	2.9620	0	34.3980	0	27.415	0	1093.333	0	12.1	4	3.7	4	-1E+10	1	-1E+10	1	-1E+10	1	-1E+10	1	-1E+10	1	-1E+10	1
4902551	93	C	03/11/2023	16:56	-131.207	47.819	0	1115.30	0	2.9450	0	34.4020	0	27.420	0	1103.000	0	12.3	4	3.8	4	-1E+10	1	-1E+10	1	-1E+10	1	-1E+10	1	-1E+10	1	-1E+10	1
4902551	93	C	03/11/2023	16:56	-131.207	47.819	0	1125.10	0	2.9330	0	34.4040	0	27.422	0	1112.665	0	12.4	4	3.8	4	-1E+10	1	-1E+10	1	-1E+10	1	-1E+10	1	-1E+10	1	-1E+10	1
4902551	93	C	03/11/2023	16:56	-131.207	47.819	0	1135.20	0	2.9140	0	34.4080	0	27.427	0	1122.627	0	12.5	4	3.9	4	-1E+10	1	-1E+10	1	-1E+10	1	-1E+10	1	-1E+10	1	-1E+10	1
4902551	93	C	03/11/2023	16:56	-131.207	47.819	0	1145.40	0	2.8940	0	34.4120	0	27.432	0	1132.686	0	12.7	4	3.9	4	-1E+10	1	-1E+10	1	-1E+10	1	-1E+10	1	-1E+10	1	-1E+10	1
4902551	93	C	03/11/2023	16:56	-131.207	47.819	0	1155.60	0	2.8740	0	34.4150	0	27.437	0	1142.745	0	12.9	4	4.0	4	-1E+10	1	-1E+10	1	-1E+10	1	-1E+10	1	-1E+10	1	-1E+10	1
4902551	93	C	03/11/2023	16:56	-131.207	47.819	0	1165.30	0	2.8530	0	34.4180	0	27.441	0	1152.311	0	13.0	4	4.0	4	-1E+10	1	-1E+10	1	-1E+10	1	-1E+10	1	-1E+10	1	-1E+10	1
4902551	93	C	03/11/2023	16:56	-131.207	47.819	0	1175.50	0	2.8360	0	34.4210	0	27.445	0	1162.369	0	13.2	4	4.1	4	-1E+10	1	-1E+10	1	-1E+10	1	-1E+10	1	-1E+10	1	-1E+10	1
4902551	93	C	03/11/2023	16:56	-131.207	47.819	0	1185.40	0	2.8190	0	34.4240	0	27.449	0	1172.131	0	13.4	4	4.1	4	-1E+10	1	-1E+10	1	-1E+10	1	-1E+10	1	-1E+10	1	-1E+10	1
4902551	93	C	03/11/2023	16:56	-131.207	47.819	0	1195.50	0	2.8030	0	34.4260	0	27.452	0	1182.089	0	13.5	4	4.2	4	-1E+10	1	-1E+10	1	-1E+10	1	-1E+10	1	-1E+10	1	-1E+10	1
4902551	93	C	03/11/2023	16:56	-131.207	47.819	0	1205.50	0	2.7820	0	34.4300	0	27.457	0	1191.949	0	13.8	4	4.2	4	-1E+10	1	-1E+10	1	-1E+10	1	-1E+10	1	-1E+10	1	-1E+10	1
4902551	93	C	03/11/2023	16:56	-131.207	47.819	0	1215.10	0	2.7630	0	34.4340	0	27.462	0	1201.414	0	14.0	4	4.3	4	-1E+10	1	-1E+10	1	-1E+10	1	-1E+10	1	-1E+10	1	-1E+10	1
4902551	93	C	03/11/2023	16:56	-131.207	47.819	0	1225.40	0	2.7460	0	34.4370	0	27.466	0	1211.568	0	14.2	4	4.4	4	-1E+10	1	-1E+10	1	-1E+10	1	-1E+10	1	-1E+10	1	-1E+10	1
4902551	93	C	03/11/2023	16:56	-131.207	47.819	0	1235.80	0	2.7320	0	34.4390	0	27.469	0	1221.820	0	14.4	4	4.4	4	-1E+10	1	-1E+10	1	-1E+10	1	-1E+10	1	-1E+10	1	-1E+10	1
4902551	93	C	03/11/2023	16:56	-131.207	47.819	0	1245.70	0	2.7180	0	34.4420	0	27.472	0	1231.579	0	14.7	4	4.5	4	-1E+10	1	-1E+10	1	-1E+10	1	-1E+10	1	-1E+10	1	-1E+10	1
4902551	93	C	03/11/2023	16:56	-131.207	47.819	0	1255.60	0	2.7020	0	34.4450	0	27.476	0	1241.338	0	14.8	4	4.5	4	-1E+10	1	-1E+10	1	-1E+10	1	-1E+10	1	-1E+10	1	-1E+10	1
4902551	93	C	03/11/2023	16:56	-131.207	47.819	0	1265.50	0	2.6950	0	34.4460	0	27.478	0	1251.096	0	14.9	4	4.6	4	-1E+10	1	-1E+10	1	-1E+10	1	-1E+10	1	-1E+10	1	-1E+10	1
4902551	93	C	03/11/2023	16:56	-131.207	47.819	0	1275.30	0	2.6640	0	34.4480	0	27.482	0	1260.755	0	15.2	4	4.7	4	-1E+10	1	-1E+10	1	-1E+10	1	-1E+10	1	-1E+10	1	-1E+10	1
4902551	93	C	03/11/2023	16:56	-131.207	47.819	0	1285.00	0	2.6450	0	34.4510	0	27.486	0	1270.315	0	15.5	4	4.8	4	-1E+10	1	-1E+10	1	-1E+10	1	-1E+10	1	-1E+10	1	-1E+10	1
4902551	93	C	03/11/2023	16:56	-131.207	47.819	0	1295.30	0	2.6250	0	34.4550	0	27.491	0	1280.467	0	15.9	4	4.9	4	-1E+10	1	-1E+10	1	-1E+10	1	-1E+10	1	-1E+10	1	-1E+10	1
4902551	93	C	03/11/2023	16:56	-131.207	47.819	0	1305.20	0	2.6110	0	34.4570	0	27.494	0	1290.223	0	16.2	4	5.0	4	-1E+10	1	-1E+10	1	-1E+10	1	-1E+10	1	-1E+10	1	-1E+10	1
4902551	93	C	03/11/2023	16:56	-131.207	47.819	0	1315.20	0	2.5940	0	34.4610	0	27.498	0	1300.077	0	16.6	4	5.1	4	-1E+10	1	-1E+10	1	-1E+10	1	-1E+10	1	-1E+10	1	-1E+10	1
4902551	93	C	03/11/2023	16:56	-131.207	47.819	0	1325.20	0	2.5790	0	34.4630	0	27.501	0	1309.931	0	16.9	4	5.2	4	-1E+10	1	-1E+10	1	-1E+10	1	-1E+10	1	-1E+10	1	-1E+10	1
4902551	93	C	03/11/2023	16:56	-131.207	47.819	0	1335.20	0	2.5630	0	34.4660	0	27.505	0	1319.785	0	17.3	4	5.3	4	-1E+10	1	-1E+10	1	-1E+10	1	-1E+10	1	-1E+10	1	-1E+10	1
4902551	93	C	03/11/2023	16:56	-131.207	47.819	0	1345.30	0	2.5450	0	34.4690	0	27.509	0	1329.736	0	17.8	4	5.4	4	-1E+10	1	-1E+10	1	-1E+10	1	-1E+10	1	-1E+10	1	-1E+10	1
4902551	93	C	03/11/2023	16:56	-131.207	47.819	0	1355.70	0	2.5310	0	34.4730	0	27.514	0	1339.983	0	18.4	4	5.6	4	-1E+10	1	-1E+10	1	-1E+10	1	-1E+10	1	-1E+10	1	-1E+10	1
4902551	93	C	03/11/2023	16:56	-131.207	47.819	0	1365.50	0	2.5250	0	34.4740	0	27.515	0	1349.638	0	18.7	4	5.7	4	-1E+10	1	-1E+10	1	-1E+10	1	-1E+10	1	-1E+10	1	-1E+10	1
4902551	93	C	03/11/2023	16:56	-131.207	47.819	0	1375.50	0	2.5130	0	34.4770	0	27.518	0	1359.489	0	19.2	4	5.9	4	-1E+10	1	-1E+10	1	-1E+10	1	-1E+10	1	-1E+10	1	-1E+10	1
4902551	93	C	03/11/2023	16:56	-131.207	47.819	0	1385.80	0	2.4960	0	34.4800	0	27.522	0	1369.636	0	19.5	4	6.0	4	-1E+10	1	-1E+10	1	-1E+10	1	-1E+10	1	-1E+10	1	-1E+10	1
4902551	93	C	03/11/2023	16:56	-131.207	47.819	0	1395.70	0	2.4910	0	34.4810	0	27.524	0	1379.388	0	19.8	4	6.0	4	-1E+10	1	-1E+10	1	-1E+10	1	-1E+10	1	-1E+10	1	-1E+10	1
4902551	93	C	03/11/2023	16:56	-131.207	47.819	0	1405.70	0	2.4790	0	34.4830	0	27.526	0	1389.239	0	20.1	4	6.1	4	-1E+10	1	-1E+10	1	-1E+10	1	-1E+10	1	-1E+10	1	-1E+10	1
4902551	93	C	03/11/2023	16:56	-131.207	47.819	0	1415.60	0	2.4640	0	34.4850	0	27.529	0	1398.990	0	20.3	4	6.2	4	-1E+10	1	-1E+10	1	-1E+10	1	-1E+10	1	-1E+10	1	-1E+10	1
4902551	93	C	03/11/2023	16:56	-131.207	47.819	0	1425.50	0	2.4560	0	34.4860	0	27.531	0	1408.741	0	20.4	4	6.2	4	-1E+10	1	-1E+10	1	-1E+10	1	-1E+10	1	-1E+10	1	-1E+10	1
4902551	93	C	03/11/2023	16:56	-131.207	47.819	0	1435.40	0	2.4450	0	34.4870	0	27.532	0	1418.491	0	20.9	4	6.4	4	-1E+10	1	-1E+10	1	-1E+10	1	-1E+10	1	-1E+10	1	-1E+10	1
4902551	93	C	03/11/2023	16:56	-131.207	47.819	0	1445.20	0	2.4270	0	34.4910	0	27.537	0	1428.142	0	21.6	4	6.6	4	-1E+10	1	-1E+10	1	-1E+10	1	-1E+10	1	-1E+10	1	-1E+10	1
4902551	93	C	03/11/2023	16:56	-131.207	47.819	0	1455.40	0	2.4150	0	34.4930	0	27.540	0	1438.187	0	22.0	4	6.7	4	-1E+10	1	-1E+10	1	-1E+10	1	-1E+10	1	-1E+10	1	-1E+10	1
4902551	93	C	03/11/2023	16:56	-131.207	47.819	0	1465.90	0	2.4090	0	34.4940	0	27.541	0	1448.527	0	22.4	4	6.8	4	-1E+10	1	-1E+10	1	-1E+10	1	-1E+10	1	-1E+10	1	-1E+10	1
4902551	93	C	03/11/2023	16:56	-131.207	47.819	0	1475.40	0	2.4000	0	34.4960	0	27.544	0	1457.882	0	23.0	4	7.0	4	-1E+10	1	-1E+10	1	-1E+10	1	-1E+10	1	-1E+10	1	-1E+10	1
4902551	93	C	03/11/2023	16:56	-131.207	47.819	0	1485.00	0	2.3850	0	34.4980	0	27.546	0	1467.335	0	23.7	4	7.2	4	-1E+10	1	-1E+10	1	-1E+10	1	-1E+10	1	-1E+10	1	-1E+10	1
4902551	93	C	03/11/2023	16:56	-131.207	47.819	0	1495.60	0	2.3600	0	34.5030	0	27.553	0	1477.771	0	24.5	4	7.5	4	-1E+10	1	-1E+10	1	-1E+10	1	-1E+10	1	-1E+10	1	-1E+10	1
4902551	93	C	03/11/2023	16:56	-131.207	47.819	0	1505.40	0	2.3410	0	34.5060	0	27.557	0	1487.420	0	25.3	4	7.7	4	-1E+10	1	-1E+10	1	-1E+10	1	-1E+10	1	-1E+10	1	-1E+10	1
4902551	93	C	03/11/2023	16:56	-131.207	47.819	0	1515.20	0	2.3310	0	34.5080	0	27.559	0	1497.068	0	26.1	4	7.9	4	-1E+10	1	-1E+10	1	-1E+10	1	-1E+10	1	-1E+10	1	-1E+10	1
4902551	93	C	03/11/2023	16:56	-131.207	47.819	0	1525.10	0	2.3120	0	34.5120	0	27.564	0	1506.815	0	26.9	4	8.2	4	-1E+10	1	-1E+10	1	-1E+10	1	-1E+10	1	-1E+10	1	-1E+10	1
4902551	93	C	03/11/2023	16:56	-131.207	47.819	0	1535.20	0	2.2980	0	34.5150	0	27.567	0	1516.757	0	27.4	4	8.3	4	-1E+10	1	-1E+10	1	-1E+10	1	-1E+10	1	-1E+10	1	-1E+10	1
4902551	93	C	03/11/2023	16:56	-131.207	47.819	0	1545.30	0	2.2880	0	34.5160	0	27.569	0	1526.700	0	27.9	4	8.5	4	-1E+10	1	-1E+10	1	-1E+10	1	-1E+10	1	-1E+10	1	-1E+10	1
4902551	93	C	03/11/2023	16:56	-131.207	47.819	0	1555.20	0	2.2760	0	34.5180	0	27.572	0	1536.444	0	28.6	4	8.7	4	-1E+10	1	-1E+10	1	-1E+10	1	-1E+10	1	-1E+10	1	-1E+10	1
4902551	93	C	03/11/2023	16:56	-131.207	47.819	0	1565.20	0	2.2650	0	34.5210	0	27.575	0	1546.287	0	29.2	4	8.9	4	-1E+10	1	-1E+10	1	-1E+10	1	-1E+10	1	-1E+10	1	-1E+10	1
4902551	93	C	03/11/2023	16:56	-131.207	47.819	0	1575.20	0	2.2580	0	34.5220	0	27.577	0	1556.130	0	29.7	4	9.0	4	-1E+10	1	-1E+10	1	-1E+10	1	-1E+10	1	-1E+10	1	-1E+10	1
4902551	93	C	03/11/2023	16:56	-131.207	47.819	0	1585.40	0	2.2510	0	34.5240	0	27.579	0	1566.169	0	30.4	4	9.2	4	-1E+10	1	-1E+10	1	-1E+10	1	-1E+10	1	-1E+10	1	-1E+10	1
4902551	93	C	03/11/2023	16:56	-131.207	47.819	0	1595.40	0	2.2440	0	34.5260	0	27.581	0	1576.010	0	30.9	4	9.4	4	-1E+10	1	-1E+10	1	-1E+10	1	-1E+10	1	-1E+10	1	-1E+10	1
4902551	93	C	03/11/2023	16:56	-131.207	47.819	0	1605.00	0	2.2330	0	34.5280	0	27.584	0	1585.457	0	31.5	4	9.5	4	-1E+10	1	-1E+10	1	-1E+10	1	-1E+10	1	-1E+10	1	-1E+10	1
4902551	93	C	03/11/2023	16:56	-131.207	47.819	0	1615.50	0	2.2240	0	34.5290	0	27.585	0	1595.790	0	32.0	4	9.7	4	-1E+10	1	-1E+10	1	-1E+10	1	-1E+10	1	-1E+10	1	-1E+10	1
4902551	93	C	03/11/2023	16:56	-131.207	47.819	0	1625.50	0	2.2140	0	34.5310	0	27.588	0	1605.630	0	32.5	4	9.8	4	-1E+10	1	-1E+10	1	-1E+10	1	-1E+10	1	-1E+10	1	-1E+10	1
4902551	93	C	03/11/2023	16:56	-131.207	47.819	0	1635.50	0	2.2080	0	34.5320	0	27.589	0	1615.470	0	33.2	4	10.1	4	-1E+10	1	-1E+10	1	-1E+10	1	-1E+10	1	-1E+10	1	-1E+10	1
4902551	93	C	03/11/2023	16:56	-131.207	47.819	0	1645.40	0	2.2000	0	34.5340	0	27.591	0	1625.211	0	33.7	4	10.2	4	-1E+10	1	-1E+10	1	-1E+10	1	-1E+10	1	-1E+10	1	-1E+10	1
4902551	93	C	03/11/2023	16:56	-131.207	47.819	0	1655.20	0	2.1870	0	34.5360	0	27.594	0	1634.853	0	33.9	4	10.3	4	-1E+10	1	-1E+10	1	-1E+10	1	-1E+10	1	-1E+10	1	-1E+10	1
4902551	93	C	03/11/2023	16:56	-131.207	47.819	0	1665.00	0	2.1740	0	34.5370	0	27.596	0	1644.494	0	34.3	4	10.4	4	-1E+10	1	-1E+10	1	-1E+10	1	-1E+10	1	-1E+10	1	-1E+10	1
4902551	93	C	03/11/2023	16:56	-131.207	47.819	0	1675.00	0	2.1700	0	34.5380	0	27.597	0	1654.332	0	34.6	4	10.5	4	-1E+10	1	-1E+10	1	-1E+10	1	-1E+10	1	-1E+10	1	-1E+10	1
4902551	93	C	03/11/2023	16:56	-131.207	47.819	0	1685.10	0	2.1640	0	34.5390	0	27.598	0	1664.268	0	35.0	4	10.6	4	-1E+10	1	-1E+10	1	-1E+10	1	-1E+10	1	-1E+10	1	-1E+10	1
4902551	93	C	03/11/2023	16:56	-131.207	47.819	0	1695.30	0	2.1590	0	34.5400	0	27.600	0	1674.301	0	35.4	4	10.7	4	-1E+10	1	-1E+10	1	-1E+10	1	-1E+10	1	-1E+10	1	-1E+10	1
4902551	93	C	03/11/2023	16:56	-131.207	47.819	0	1705.30	0	2.1540	0	34.5410	0	27.601	0	1684.138	0	35.8	4	10.8	4	-1E+10	1	-1E+10	1	-1E+10	1	-1E+10	1	-1E+10	1	-1E+10	1
4902551	93	C	03/11/2023	16:56	-131.207	47.819	0	1715.30	0	2.1470	0	34.5430	0	27.603	0	1693.974	0	36.3	4	11.0	4	-1E+10	1	-1E+10	1	-1E+10	1	-1E+10	1	-1E+10	1	-1E+10	1
4902551	93	C	03/11/2023	16:56	-131.207	47.819	0	1725.30	0	2.1370	0	34.5450	0	27.605	0	1703.809	0	36.8	4	11.1	4	-1E+10	1	-1E+10	1	-1E+10	1	-1E+10	1	-1E+10	1	-1E+10	1
4902551	93	C	03/11/2023	16:56	-131.207	47.819	0	1735.50	0	2.1310	0	34.5460	0	27.607	0	1713.841	0	37.5	4	11.3	4	-1E+10	1	-1E+10	1	-1E+10	1	-1E+10	1	-1E+10	1	-1E+10	1
4902551	93	C	03/11/2023	16:56	-131.207	47.819	0	1745.70	0	2.1220	0	34.5480	0	27.609	0	1723.872	0	38.2	4	11.6	4	-1E+10	1	-1E+10	1	-1E+10	1	-1E+10	1	-1E+10	1	-1E+10	1
4902551	93	C	03/11/2023	16:56	-131.207	47.819	0	1755.50	0	2.1080	0	34.5500	0	27.612	0	1733.510	0	39.1	4	11.8	4	-1E+10	1	-1E+10	1	-1E+10	1	-1E+10	1	-1E+10	1	-1E+10	1
4902551	93	C	03/11/2023	16:56	-131.207	47.819	0	1765.40	0	2.0980	0	34.5520	0	27.614	0	1743.245	0	39.7	4	12.0	4	-1E+10	1	-1E+10	1	-1E+10	1	-1E+10	1	-1E+10	1	-1E+10	1
4902551	93	C	03/11/2023	16:56	-131.207	47.819	0	1775.80	0	2.0940	0	34.5530	0	27.616	0	1753.472	0	40.3	4	12.2	4	-1E+10	1	-1E+10	1	-1E+10	1	-1E+10	1	-1E+10	1	-1E+10	1
4902551	93	C	03/11/2023	16:56	-131.207	47.819	0	1785.80	0	2.0830	0	34.5550	0	27.618	0	1763.305	0	41.2	4	12.5	4	-1E+10	1	-1E+10	1	-1E+10	1	-1E+10	1	-1E+10	1	-1E+10	1
4902551	93	C	03/11/2023	16:56	-131.207	47.819	0	1795.70	0	2.0690	0	34.5580	0	27.622	0	1773.038	0	42.1	4	12.7	4	-1E+10	1	-1E+10	1	-1E+10	1	-1E+10	1	-1E+10	1	-1E+10	1
4902551	93	C	03/11/2023	16:56	-131.207	47.819	0	1805.60	0	2.0610	0	34.5590	0	27.623	0	1782.772	0	42.9	4	13.0	4	-1E+10	1	-1E+10	1	-1E+10	1	-1E+10	1	-1E+10	1	-1E+10	1
4902551	93	C	03/11/2023	16:56	-131.207	47.819	0	1815.50	0	2.0510	0	34.5610	0	27.626	0	1792.505	0	43.9	4	13.2	4	-1E+10	1	-1E+10	1	-1E+10	1	-1E+10	1	-1E+10	1	-1E+10	1
4902551	93	C	03/11/2023	16:56	-131.207	47.819	0	1825.60	0	2.0390	0	34.5640	0	27.629	0	1802.434	0	44.9	4	13.5	4	-1E+10	1	-1E+10	1	-1E+10	1	-1E+10	1	-1E+10	1	-1E+10	1
4902551	93	C	03/11/2023	16:56	-131.207	47.819	0	1835.30	0	2.0300	0	34.5650	0	27.630	0	1811.970	0	45.5	4	13.7	4	-1E+10	1	-1E+10	1	-1E+10	1	-1E+10	1	-1E+10	1	-1E+10	1
4902551	93	C	03/11/2023	16:56	-131.207	47.819	0	1845.10	0	2.0260	0	34.5670	0	27.632	0	1821.603	0	46.0	4	13.9	4	-1E+10	1	-1E+10	1	-1E+10	1	-1E+10	1	-1E+10	1	-1E+10	1
4902551	93	C	03/11/2023	16:56	-131.207	47.819	0	1855.50	0	2.0190	0	34.5680	0	27.634	0	1831.826	0	46.6	4	14.1	4	-1E+10	1	-1E+10	1	-1E+10	1	-1E+10	1	-1E+10	1	-1E+10	1
4902551	93	C	03/11/2023	16:56	-131.207	47.819	0	1865.40	0	2.0120	0	34.5690	0	27.635	0	1841.557	0	47.3	4	14.3	4	-1E+10	1	-1E+10	1	-1E+10	1	-1E+10	1	-1E+10	1	-1E+10	1
4902551	93	C	03/11/2023	16:56	-131.207	47.819	0	1875.30	0	2.0030	0	34.5710	0	27.638	0	1851.288	0	48.2	4	14.5	4	-1E+10	1	-1E+10	1	-1E+10	1	-1E+10	1	-1E+10	1	-1E+10	1
4902551	93	C	03/11/2023	16:56	-131.207	47.819	0	1885.30	0	1.9960	0	34.5730	0	27.640	0	1861.116	0	48.9	4	14.7	4	-1E+10	1	-1E+10	1	-1E+10	1	-1E+10	1	-1E+10	1	-1E+10	1
4902551	93	C	03/11/2023	16:56	-131.207	47.819	0	1895.50	0	1.9850	0	34.5750	0	27.642	0	1871.140	0	49.6	4	14.9	4	-1E+10	1	-1E+10	1	-1E+10	1	-1E+10	1	-1E+10	1	-1E+10	1
4902551	93	C	03/11/2023	16:56	-131.207	47.819	0	1905.70	0	1.9790	0	34.5760	0	27.644	0	1881.164	0	50.4	4	15.2	4	-1E+10	1	-1E+10	1	-1E+10	1	-1E+10	1	-1E+10	1	-1E+10	1
4902551	93	C	03/11/2023	16:56	-131.207	47.819	0	1915.40	0	1.9700	0	34.5770	0	27.645	0	1890.696	0	51.3	4	15.5	4	-1E+10	1	-1E+10	1	-1E+10	1	-1E+10	1	-1E+10	1	-1E+10	1
4902551	93	C	03/11/2023	16:56	-131.207	47.819	0	1925.40	0	1.9640	0	34.5790	0	27.647	0	1900.522	0	52.4	4	15.8	4	-1E+10	1	-1E+10	1	-1E+10	1	-1E+10	1	-1E+10	1	-1E+10	1
4902551	93	C	03/11/2023	16:56	-131.207	47.819	0	1935.50	0	1.9520	0	34.5820	0	27.651	0	1910.447	0	53.2	4	16.0	4	-1E+10	1	-1E+10	1	-1E+10	1	-1E+10	1	-1E+10	1	-1E+10	1
4902551	93	C	03/11/2023	16:56	-131.207	47.819	0	1945.30	0	1.9410	0	34.5830	0	27.652	0	1920.076	0	54.0	4	16.3	4	-1E+10	1	-1E+10	1	-1E+10	1	-1E+10	1	-1E+10	1	-1E+10	1
4902551	93	C	03/11/2023	16:56	-131.207	47.819	0	1955.40	0	1.9350	0	34.5850	0	27.655	0	1929.999	0	54.4	4	16.4	4	-1E+10	1	-1E+10	1	-1E+10	1	-1E+10	1	-1E+10	1	-1E+10	1
4902551	93	C	03/11/2023	16:56	-131.207	47.819	0	1965.50	0	1.9290	0	34.5860	0	27.656	0	1939.922	0	55.0	4	16.5	4	-1E+10	1	-1E+10	1	-1E+10	1	-1E+10	1	-1E+10	1	-1E+10	1
4902551	93	C	03/11/2023	16:56	-131.207	47.819	0	1975.50	0	1.9220	0	34.5870	0	27.657	0	1949.746	0	55.7	4	16.8	4	-1E+10	1	-1E+10	1	-1E+10	1	-1E+10	1	-1E+10	1	-1E+10	1
4902551	93	C	03/11/2023	16:56	-131.207	47.819	0	1985.30	0	1.9180	0	34.5880	0	27.658	0	1959.373	0	56.1	4	16.9	4	-1E+10	1	-1E+10	1	-1E+10	1	-1E+10	1	-1E+10	1	-1E+10	1
4902551	93	C	03/11/2023	16:56	-131.207	47.819	0	1995.60	0	1.9140	0	34.5890	0	27.660	0	1969.491	0	56.3	4	16.9	4	-1E+10	1	-1E+10	1	-1E+10	1	-1E+10	1	-1E+10	1	-1E+10	1
4902551	93	C	03/11/2023	16:56	-131.207	47.819	0	2005.80	0	1.9100	0	34.5890	0	27.660	0	1979.510	0	56.4	4	17.0	4	-1E+10	1	-1E+10	1	-1E+10	1	-1E+10	1	-1E+10	1	-1E+10	1
4902551	93	C	03/11/2023	16:56	-131.207	47.819	0	2012.50	0	1.9070	0	34.5900	0	27.661	0	1986.091	0	56.1	4	16.9	4	-1E+10	1	-1E+10	1	-1E+10	1	-1E+10	1	-1E+10	1	-1E+10	1
4902551	93	C	03/11/2023	16:56	-131.207	47.819	0																										
4902551	94	C	03/21/2023	22:06	-131.201	47.846	0	1.90	0	7.7690	0	32.3540	0	25.230	0	1.884	0	276.9	4	94.2	4	-1E+10	1	-1E+10	1	-1E+10	1	-1E+10	1	-1E+10	1	-1E+10	1
4902551	94	C	03/21/2023	22:06	-131.201	47.846	0	3.00	0	7.7690	0	32.3540	0	25.230	0	2.975	0	276.9	4	94.2	4	-1E+10	1	-1E+10	1	-1E+10	1	-1E+10	1	-1E+10	1	-1E+10	1
4902551	94	C	03/21/2023	22:06	-131.201	47.846	0	4.20	0	7.7690	0	32.3540	0	25.230	0	4.165	0	276.8	4	94.1	4	-1E+10	1	-1E+10	1	-1E+10	1	-1E+10	1	-1E+10	1	-1E+10	1
4902551	94	C	03/21/2023	22:06	-131.201	47.846	0	4.90	0	7.7680	0	32.3560	0	25.231	0	4.859	0	276.8	4	94.1	4	-1E+10	1	-1E+10	1	-1E+10	1	-1E+10	1	-1E+10	1	-1E+10	1
4902551	94	C	03/21/2023	22:06	-131.201	47.846	0	5.10	0	7.7680	0	32.3558	0	25.231	0	5.057	0	-1e10	1	-1e10	1	-1E+10	1	-1E+10	1	-1E+10	1	-1E+10	1	-1E+10	1	-1E+10	1
4902551	94	C	03/21/2023	22:06	-131.201	47.846	0	5.20	0	7.7680	0	32.3557	0	25.231	0	5.156	0	-1e10	1	-1e10	1	-1E+10	1	-1E+10	1	-1E+10	1	-1E+10	1	-1E+10	1	-1E+10	1
4902551	94	C	03/21/2023	22:06	-131.201	47.846	0	5.50	0	7.7680	0	32.3554	0	25.231	0	5.454	0	-1e10	1	-1e10	1	-1E+10	1	-1E+10	1	-1E+10	1	-1E+10	1	-1E+10	1	-1E+10	1
4902551	94	C	03/21/2023	22:06	-131.201	47.846	0	5.90	0	7.7680	0	32.3550	0	25.231	0	5.850	0	-1e10	1	-1e10	1	-1E+10	1	-1E+10	1	-1E+10	1	-1E+10	1	-1E+10	1	-1E+10	1
4902551	94	C	03/21/2023	22:06	-131.201	47.846	0	6.00	0	7.7680	0	32.3551	0	25.231	0	5.950	0	276.8	4	94.1	4	-1E+10	1	-1E+10	1	-1E+10	1	-1E+10	1	-1E+10	1	-1E+10	1
4902551	94	C	03/21/2023	22:06	-131.201	47.846	0	6.80	0	7.7680	0	32.3558	0	25.231	0	6.743	0	276.8	4	94.1	4	-1E+10	1	-1E+10	1	-1E+10	1	-1E+10	1	-1E+10	1	-1E+10	1
4902551	94	C	03/21/2023	22:06	-131.201	47.846	0	7.10	0	7.7680	0	32.3560	0	25.231	0	7.040	0	-1e10	1	-1e10	1	-1E+10	1	-1E+10	1	-1E+10	1	-1E+10	1	-1E+10	1	-1E+10	1
4902551	94	C	03/21/2023	22:06	-131.201	47.846	0	7.60	0	7.7680	0	32.3560	0	25.231	0	7.536	0	276.7	4	94.1	4	-1E+10	1	-1E+10	1	-1E+10	1	-1E+10	1	-1E+10	1	-1E+10	1
4902551	94	C	03/21/2023	22:06	-131.201	47.846	0	7.80	0	7.7680	0	32.3560	0	25.231	0	7.735	0	-1e10	1	-1e10	1	-1E+10	1	-1E+10	1	-1E+10	1	-1E+10	1	-1E+10	1	-1E+10	1
4902551	94	C	03/21/2023	22:06	-131.201	47.846	0	8.20	0	7.7680	0	32.3556	0	25.231	0	8.131	0	-1e10	1	-1e10	1	-1E+10	1	-1E+10	1	-1E+10	1	-1E+10	1	-1E+10	1	-1E+10	1
4902551	94	C	03/21/2023	22:06	-131.201	47.846	0	8.90	0	7.7680	0	32.3550	0	25.231	0	8.825	0	276.7	4	94.1	4	-1E+10	1	-1E+10	1	-1E+10	1	-1E+10	1	-1E+10	1	-1E+10	1
4902551	94	C	03/21/2023	22:06	-131.201	47.846	0	9.00	0	7.7681	0	32.3551	0	25.231	0	8.924	0	-1e10	1	-1e10	1	-1E+10	1	-1E+10	1	-1E+10	1	-1E+10	1	-1E+10	1	-1E+10	1
4902551	94	C	03/21/2023	22:06	-131.201	47.846	0	9.10	0	7.7682	0	32.3552	0	25.231	0	9.024	0	-1e10	1	-1e10	1	-1E+10	1	-1E+10	1	-1E+10	1	-1E+10	1	-1E+10	1	-1E+10	1
4902551	94	C	03/21/2023	22:06	-131.201	47.846	0	10.20	0	7.7690	0	32.3560	0	25.231	0	10.114	0	276.6	4	94.1	4	-1E+10	1	-1E+10	1	-1E+10	1	-1E+10	1	-1E+10	1	-1E+10	1
4902551	94	C	03/21/2023	22:06	-131.201	47.846	0	10.80	0	7.7680	0	32.3560	0	25.231	0	10.709	0	276.6	4	94.1	4	-1E+10	1	-1E+10	1	-1E+10	1	-1E+10	1	-1E+10	1	-1E+10	1
4902551	94	C	03/21/2023	22:06	-131.201	47.846	0	11.70	0	7.7680	0	32.3550	0	25.231	0	11.602	0	276.6	4	94.1	4	-1E+10	1	-1E+10	1	-1E+10	1	-1E+10	1	-1E+10	1	-1E+10	1
4902551	94	C	03/21/2023	22:06	-131.201	47.846	0	12.70	0	7.7680	0	32.3550	0	25.231	0	12.593	0	276.6	4	94.1	4	-1E+10	1	-1E+10	1	-1E+10	1	-1E+10	1	-1E+10	1	-1E+10	1
4902551	94	C	03/21/2023	22:06	-131.201	47.846	0	13.70	0	7.7680	0	32.3560	0	25.231	0	13.585	0	276.6	4	94.1	4	-1E+10	1	-1E+10	1	-1E+10	1	-1E+10	1	-1E+10	1	-1E+10	1
4902551	94	C	03/21/2023	22:06	-131.201	47.846	0	14.90	0	7.7680	0	32.3560	0	25.232	0	14.775	0	276.6	4	94.1	4	-1E+10	1	-1E+10	1	-1E+10	1	-1E+10	1	-1E+10	1	-1E+10	1
4902551	94	C	03/21/2023	22:06	-131.201	47.846	0	16.00	0	7.7680	0	32.3560	0	25.232	0	15.865	0	276.5	4	94.1	4	-1E+10	1	-1E+10	1	-1E+10	1	-1E+10	1	-1E+10	1	-1E+10	1
4902551	94	C	03/21/2023	22:06	-131.201	47.846	0	17.10	0	7.7680	0	32.3550	0	25.231	0	16.956	0	276.5	4	94.0	4	-1E+10	1	-1E+10	1	-1E+10	1	-1E+10	1	-1E+10	1	-1E+10	1
4902551	94	C	03/21/2023	22:06	-131.201	47.846	0	17.80	0	7.7680	0	32.3550	0	25.231	0	17.650	0	276.5	4	94.0	4	-1E+10	1	-1E+10	1	-1E+10	1	-1E+10	1	-1E+10	1	-1E+10	1
4902551	94	C	03/21/2023	22:06	-131.201	47.846	0	18.80	0	7.7680	0	32.3560	0	25.232	0	18.642	0	276.5	4	94.0	4	-1E+10	1	-1E+10	1	-1E+10	1	-1E+10	1	-1E+10	1	-1E+10	1
4902551	94	C	03/21/2023	22:06	-131.201	47.846	0	19.90	0	7.7680	0	32.3560	0	25.232	0	19.732	0	276.5	4	94.0	4	-1E+10	1	-1E+10	1	-1E+10	1	-1E+10	1	-1E+10	1	-1E+10	1
4902551	94	C	03/21/2023	22:06	-131.201	47.846	0	21.10	0	7.7680	0	32.3560	0	25.232	0	20.922	0	276.4	4	94.0	4	-1E+10	1	-1E+10	1	-1E+10	1	-1E+10	1	-1E+10	1	-1E+10	1
4902551	94	C	03/21/2023	22:06	-131.201	47.846	0	21.90	0	7.7690	0	32.3560	0	25.231	0	21.715	0	276.4	4	94.0	4	-1E+10	1	-1E+10	1	-1E+10	1	-1E+10	1	-1E+10	1	-1E+10	1
4902551	94	C	03/21/2023	22:06	-131.201	47.846	0	23.20	0	7.7670	0	32.3560	0	25.232	0	23.004	0	276.4	4	94.0	4	-1E+10	1	-1E+10	1	-1E+10	1	-1E+10	1	-1E+10	1	-1E+10	1
4902551	94	C	03/21/2023	22:06	-131.201	47.846	0	24.10	0	7.7670	0	32.3560	0	25.232	0	23.897	0	276.4	4	94.0	4	-1E+10	1	-1E+10	1	-1E+10	1	-1E+10	1	-1E+10	1	-1E+10	1
4902551	94	C	03/21/2023	22:06	-131.201	47.846	0	25.00	0	7.7680	0	32.3560	0	25.232	0	24.789	0	276.4	4	94.0	4	-1E+10	1	-1E+10	1	-1E+10	1	-1E+10	1	-1E+10	1	-1E+10	1
4902551	94	C	03/21/2023	22:06	-131.201	47.846	0	26.10	0	7.7680	0	32.3560	0	25.232	0	25.880	0	276.3	4	94.0	4	-1E+10	1	-1E+10	1	-1E+10	1	-1E+10	1	-1E+10	1	-1E+10	1
4902551	94	C	03/21/2023	22:06	-131.201	47.846	0	27.20	0	7.7690	0	32.3560	0	25.232	0	26.970	0	276.3	4	94.0	4	-1E+10	1	-1E+10	1	-1E+10	1	-1E+10	1	-1E+10	1	-1E+10	1
4902551	94	C	03/21/2023	22:06	-131.201	47.846	0	28.00	0	7.7670	0	32.3550	0	25.231	0	27.764	0	276.2	4	93.9	4	-1E+10	1	-1E+10	1	-1E+10	1	-1E+10	1	-1E+10	1	-1E+10	1
4902551	94	C	03/21/2023	22:06	-131.201	47.846	0	29.30	0	7.7660	0	32.3560	0	25.232	0	29.052	0	276.1	4	93.9	4	-1E+10	1	-1E+10	1	-1E+10	1	-1E+10	1	-1E+10	1	-1E+10	1
4902551	94	C	03/21/2023	22:06	-131.201	47.846	0	30.10	0	7.7620	0	32.3580	0	25.234	0	29.846	0	276.1	4	93.9	4	-1E+10	1	-1E+10	1	-1E+10	1	-1E+10	1	-1E+10	1	-1E+10	1
4902551	94	C	03/21/2023	22:06	-131.201	47.846	0	31.00	0	7.7610	0	32.3550	0	25.232	0	30.738	0	276.0	4	93.9	4	-1E+10	1	-1E+10	1	-1E+10	1	-1E+10	1	-1E+10	1	-1E+10	1
4902551	94	C	03/21/2023	22:06	-131.201	47.846	0	31.90	0	7.7610	0	32.3550	0	25.232	0	31.630	0	276.0	4	93.8	4	-1E+10	1	-1E+10	1	-1E+10	1	-1E+10	1	-1E+10	1	-1E+10	1
4902551	94	C	03/21/2023	22:06	-131.201	47.846	0	33.30	0	7.7610	0	32.3550	0	25.232	0	33.018	0	275.9	4	93.8	4	-1E+10	1	-1E+10	1	-1E+10	1	-1E+10	1	-1E+10	1	-1E+10	1
4902551	94	C	03/21/2023	22:06	-131.201	47.846	0	34.00	0	7.7610	0	32.3560	0	25.233	0	33.712	0	275.7	4	93.8	4	-1E+10	1	-1E+10	1	-1E+10	1	-1E+10	1	-1E+10	1	-1E+10	1
4902551	94	C	03/21/2023	22:06	-131.201	47.846	0	35.00	0	7.7550	0	32.3560	0	25.234	0	34.704	0	275.7	4	93.7	4	-1E+10	1	-1E+10	1	-1E+10	1	-1E+10	1	-1E+10	1	-1E+10	1
4902551	94	C	03/21/2023	22:06	-131.201	47.846	0	35.90	0	7.7530	0	32.3550	0	25.233	0	35.596	0	275.7	4	93.7	4	-1E+10	1	-1E+10	1	-1E+10	1	-1E+10	1	-1E+10	1	-1E+10	1
4902551	94	C	03/21/2023	22:06	-131.201	47.846	0	36.90	0	7.7510	0	32.3560	0	25.234	0	36.588	0	275.6	4	93.7	4	-1E+10	1	-1E+10	1	-1E+10	1	-1E+10	1	-1E+10	1	-1E+10	1
4902551	94	C	03/21/2023	22:06	-131.201	47.846	0	37.90	0	7.7510	0	32.3550	0	25.233	0	37.579	0	275.5	4	93.7	4	-1E+10	1	-1E+10	1	-1E+10	1	-1E+10	1	-1E+10	1	-1E+10	1
4902551	94	C	03/21/2023	22:06	-131.201	47.846	0	38.90	0	7.7490	0	32.3560	0	25.235	0	38.570	0	275.3	4	93.6	4	-1E+10	1	-1E+10	1	-1E+10	1	-1E+10	1	-1E+10	1	-1E+10	1
4902551	94	C	03/21/2023	22:06	-131.201	47.846	0	39.90	0	7.7470	0	32.3560	0	25.235	0	39.562	0	275.3	4	93.6	4	-1E+10	1	-1E+10	1	-1E+10	1	-1E+10	1	-1E+10	1	-1E+10	1
4902551	94	C	03/21/2023	22:06	-131.201	47.846	0	40.90	0	7.7460	0	32.3570	0	25.236	0	40.553	0	275.3	4	93.6	4	-1E+10	1	-1E+10	1	-1E+10	1	-1E+10	1	-1E+10	1	-1E+10	1
4902551	94	C	03/21/2023	22:06	-131.201	47.846	0	41.90	0	7.7470	0	32.3570	0	25.236	0	41.545	0	275.3	4	93.6	4	-1E+10	1	-1E+10	1	-1E+10	1	-1E+10	1	-1E+10	1	-1E+10	1
4902551	94	C	03/21/2023	22:06	-131.201	47.846	0	42.90	0	7.7480	0	32.3570	0	25.235	0	42.536	0	275.2	4	93.6	4	-1E+10	1	-1E+10	1	-1E+10	1	-1E+10	1	-1E+10	1	-1E+10	1
4902551	94	C	03/21/2023	22:06	-131.201	47.846	0	43.90	0	7.7470	0	32.3570	0	25.236	0	43.528	0	275.1	4	93.5	4	-1E+10	1	-1E+10	1	-1E+10	1	-1E+10	1	-1E+10	1	-1E+10	1
4902551	94	C	03/21/2023	22:06	-131.201	47.846	0	45.00	0	7.7480	0	32.3570	0	25.236	0	44.618	0	275.0	4	93.5	4	-1E+10	1	-1E+10	1	-1E+10	1	-1E+10	1	-1E+10	1	-1E+10	1
4902551	94	C	03/21/2023	22:06	-131.201	47.846	0	45.90	0	7.7480	0	32.3570	0	25.236	0	45.510	0	274.9	4	93.5	4	-1E+10	1	-1E+10	1	-1E+10	1	-1E+10	1	-1E+10	1	-1E+10	1
4902551	94	C	03/21/2023	22:06	-131.201	47.846	0	46.80	0	7.7480	0	32.3570	0	25.236	0	46.403	0	274.9	4	93.5	4	-1E+10	1	-1E+10	1	-1E+10	1	-1E+10	1	-1E+10	1	-1E+10	1
4902551	94	C	03/21/2023	22:06	-131.201	47.846	0	48.00	0	7.7470	0	32.3560	0	25.235	0	47.592	0	274.8	4	93.4	4	-1E+10	1	-1E+10	1	-1E+10	1	-1E+10	1	-1E+10	1	-1E+10	1
4902551	94	C	03/21/2023	22:06	-131.201	47.846	0	48.90	0	7.7430	0	32.3570	0	25.236	0	48.485	0	274.8	4	93.4	4	-1E+10	1	-1E+10	1	-1E+10	1	-1E+10	1	-1E+10	1	-1E+10	1
4902551	94	C	03/21/2023	22:06	-131.201	47.846	0	49.80	0	7.7410	0	32.3580	0	25.237	0	49.377	0	274.8	4	93.4	4	-1E+10	1	-1E+10	1	-1E+10	1	-1E+10	1	-1E+10	1	-1E+10	1
4902551	94	C	03/21/2023	22:06	-131.201	47.846	0	51.10	0	7.7410	0	32.3570	0	25.237	0	50.666	0	274.7	4	93.4	4	-1E+10	1	-1E+10	1	-1E+10	1	-1E+10	1	-1E+10	1	-1E+10	1
4902551	94	C	03/21/2023	22:06	-131.201	47.846	0	52.00	0	7.7370	0	32.3570	0	25.237	0	51.558	0	274.7	4	93.4	4	-1E+10	1	-1E+10	1	-1E+10	1	-1E+10	1	-1E+10	1	-1E+10	1
4902551	94	C	03/21/2023	22:06	-131.201	47.846	0	53.00	0	7.7370	0	32.3570	0	25.237	0	52.549	0	274.6	4	93.3	4	-1E+10	1	-1E+10	1	-1E+10	1	-1E+10	1	-1E+10	1	-1E+10	1
4902551	94	C	03/21/2023	22:06	-131.201	47.846	0	53.90	0	7.7350	0	32.3570	0	25.237	0	53.441	0	274.6	4	93.3	4	-1E+10	1	-1E+10	1	-1E+10	1	-1E+10	1	-1E+10	1	-1E+10	1
4902551	94	C	03/21/2023	22:06	-131.201	47.846	0	54.80	0	7.7350	0	32.3570	0	25.237	0	54.334	0	274.4	4	93.3	4	-1E+10	1	-1E+10	1	-1E+10	1	-1E+10	1	-1E+10	1	-1E+10	1
4902551	94	C	03/21/2023	22:06	-131.201	47.846	0	55.80	0	7.7340	0	32.3570	0	25.238	0	55.325	0	274.4	4	93.3	4	-1E+10	1	-1E+10	1	-1E+10	1	-1E+10	1	-1E+10	1	-1E+10	1
4902551	94	C	03/21/2023	22:06	-131.201	47.846	0	56.80	0	7.7350	0	32.3570	0	25.238	0	56.316	0	274.4	4	93.3	4	-1E+10	1	-1E+10	1	-1E+10	1	-1E+10	1	-1E+10	1	-1E+10	1
4902551	94	C	03/21/2023	22:06	-131.201	47.846	0	58.00	0	7.7330	0	32.3570	0	25.238	0	57.506	0	274.3	4	93.2	4	-1E+10	1	-1E+10	1	-1E+10	1	-1E+10	1	-1E+10	1	-1E+10	1
4902551	94	C	03/21/2023	22:06	-131.201	47.846	0	59.00	0	7.7330	0	32.3570	0	25.238	0	58.497	0	274.2	4	93.2	4	-1E+10	1	-1E+10	1	-1E+10	1	-1E+10	1	-1E+10	1	-1E+10	1
4902551	94	C	03/21/2023	22:06	-131.201	47.846	0	59.90	0	7.7330	0	32.3570	0	25.238	0	59.390	0	274.2	4	93.2	4	-1E+10	1	-1E+10	1	-1E+10	1	-1E+10	1	-1E+10	1	-1E+10	1
4902551	94	C	03/21/2023	22:06	-131.201	47.846	0	60.90	0	7.7330	0	32.3570	0	25.238	0	60.381	0	274.1	4	93.1	4	-1E+10	1	-1E+10	1	-1E+10	1	-1E+10	1	-1E+10	1	-1E+10	1
4902551	94	C	03/21/2023	22:06	-131.201	47.846	0	61.80	0	7.7330	0	32.3570	0	25.238	0	61.273	0	274.0	4	93.1	4	-1E+10	1	-1E+10	1	-1E+10	1	-1E+10	1	-1E+10	1	-1E+10	1
4902551	94	C	03/21/2023	22:06	-131.201	47.846	0	63.00	0	7.7330	0	32.3570	0	25.238	0	62.463	0	273.9	4	93.1	4	-1E+10	1	-1E+10	1	-1E+10	1	-1E+10	1	-1E+10	1	-1E+10	1
4902551	94	C	03/21/2023	22:06	-131.201	47.846	0	63.90	0	7.7330	0	32.3570	0	25.238	0	63.355	0	273.8	4	93.0	4	-1E+10	1	-1E+10	1	-1E+10	1	-1E+10	1	-1E+10	1	-1E+10	1
4902551	94	C	03/21/2023	22:06	-131.201	47.846	0	64.80	0	7.7330	0	32.3580	0	25.239	0	64.247	0	273.8	4	93.0	4	-1E+10	1	-1E+10	1	-1E+10	1	-1E+10	1	-1E+10	1	-1E+10	1
4902551	94	C	03/21/2023	22:06	-131.201	47.846	0	66.00	0	7.7330	0	32.3570	0	25.238	0	65.437	0	273.6	4	93.0	4	-1E+10	1	-1E+10	1	-1E+10	1	-1E+10	1	-1E+10	1	-1E+10	1
4902551	94	C	03/21/2023	22:06	-131.201	47.846	0	67.10	0	7.7330	0	32.3580	0	25.239	0	66.527	0	273.5	4	93.0	4	-1E+10	1	-1E+10	1	-1E+10	1	-1E+10	1	-1E+10	1	-1E+10	1
4902551	94	C	03/21/2023	22:06	-131.201	47.846	0	68.00	0	7.7330	0	32.3580	0	25.239	0	67.419	0	273.4	4	92.9	4	-1E+10	1	-1E+10	1	-1E+10	1	-1E+10	1	-1E+10	1	-1E+10	1
4902551	94	C	03/21/2023	22:06	-131.201	47.846	0	68.80	0	7.7330	0	32.3580	0	25.239	0	68.212	0	273.3	4	92.9	4	-1E+10	1	-1E+10	1	-1E+10	1	-1E+10	1	-1E+10	1	-1E+10	1
4902551	94	C	03/21/2023	22:06	-131.201	47.846	0	69.90	0	7.7320	0	32.3580	0	25.239	0	69.303	0	273.1	4	92.8	4	-1E+10	1	-1E+10	1	-1E+10	1	-1E+10	1	-1E+10	1	-1E+10	1
4902551	94	C	03/21/2023	22:06	-131.201	47.846	0	71.00	0	7.7320	0	32.3580	0	25.239	0	70.393	0	272.9	4	92.8	4	-1E+10	1	-1E+10	1	-1E+10	1	-1E+10	1	-1E+10	1	-1E+10	1
4902551	94	C	03/21/2023	22:06	-131.201	47.846	0	71.90	0	7.7320	0	32.3580	0	25.239	0	71.285	0	272.7	4	92.7	4	-1E+10	1	-1E+10	1	-1E+10	1	-1E+10	1	-1E+10	1	-1E+10	1
4902551	94	C	03/21/2023	22:06	-131.201	47.846	0	72.70	0	7.7310	0	32.3580	0	25.239	0	72.078	0	272.5	4	92.6	4	-1E+10	1	-1E+10	1	-1E+10	1	-1E+10	1	-1E+10	1	-1E+10	1
4902551	94	C	03/21/2023	22:06	-131.201	47.846	0	73.90	0	7.7310	0	32.3580	0	25.239	0	73.268	0	272.3	4	92.5	4	-1E+10	1	-1E+10	1	-1E+10	1	-1E+10	1	-1E+10	1	-1E+10	1
4902551	94	C	03/21/2023	22:06	-131.201	47.846	0	75.00	0	7.7230	0	32.3600	0	25.242	0	74.358	0	271.9	4	92.4	4	-1E+10	1	-1E+10	1	-1E+10	1	-1E+10	1	-1E+10	1	-1E+10	1
4902551	94	C	03/21/2023	22:06	-131.201	47.846	0	76.10	0	7.7170	0	32.3620	0	25.244	0	75.449	0	271.6	4	92.3	4	-1E+10	1	-1E+10	1	-1E+10	1	-1E+10	1	-1E+10	1	-1E+10	1
4902551	94	C	03/21/2023	22:06	-131.201	47.846	0	77.00	0	7.7140	0	32.3630	0	25.245	0	76.341	0	271.4	4	92.2	4	-1E+10	1	-1E+10	1	-1E+10	1	-1E+10	1	-1E+10	1	-1E+10	1
4902551	94	C	03/21/2023	22:06	-131.201	47.846	0	77.80	0	7.7080	0	32.3640	0	25.247	0	77.134	0	271.2	4	92.1	4	-1E+10	1	-1E+10	1	-1E+10	1	-1E+10	1	-1E+10	1	-1E+10	1
4902551	94	C	03/21/2023	22:06	-131.201	47.846	0	79.00	0	7.7010	0	32.3670	0	25.250	0	78.323	0	270.9	4	92.0	4	-1E+10	1	-1E+10	1	-1E+10	1	-1E+10	1	-1E+10	1	-1E+10	1
4902551	94	C	03/21/2023	22:06	-131.201	47.846	0	79.90	0	7.6950	0	32.3690	0	25.253	0	79.215	0	270.6	4	91.9	4	-1E+10	1	-1E+10	1	-1E+10	1	-1E+10	1	-1E+10	1	-1E+10	1
4902551	94	C	03/21/2023	22:06	-131.201	47.846	0	81.10	0	7.6920	0	32.3700	0	25.254	0	80.405	0	270.4	4	91.8	4	-1E+10	1	-1E+10	1	-1E+10	1	-1E+10	1	-1E+10	1	-1E+10	1
4902551	94	C	03/21/2023	22:06	-131.201	47.846	0	82.00	0	7.6900	0	32.3700	0	25.254	0	81.297	0	270.0	4	91.7	4	-1E+10	1	-1E+10	1	-1E+10	1	-1E+10	1	-1E+10	1	-1E+10	1
4902551	94	C	03/21/2023	22:06	-131.201	47.846	0	83.00	0	7.6880	0	32.3710	0	25.255	0	82.288	0	269.6	4	91.5	4	-1E+10	1	-1E+10	1	-1E+10	1	-1E+10	1	-1E+10	1	-1E+10	1
4902551	94	C	03/21/2023	22:06	-131.201	47.846	0	83.90	0	7.6860	0	32.3710	0	25.256	0	83.180	0	269.2	4	91.4	4	-1E+10	1	-1E+10	1	-1E+10	1	-1E+10	1	-1E+10	1	-1E+10	1
4902551	94	C	03/21/2023	22:06	-131.201	47.846	0	84.90	0	7.6790	0	32.3740	0	25.259	0	84.171	0	275.6	4	93.6	4	-1E+10	1	-1E+10	1	-1E+10	1	-1E+10	1	-1E+10	1	-1E+10	1
4902551	94	C	03/21/2023	22:06	-131.201	47.846	0	86.00	0	7.6730	0	32.3750	0	25.261	0	85.262	0	275.2	4	93.4	4	-1E+10	1	-1E+10	1	-1E+10	1	-1E+10	1	-1E+10	1	-1E+10	1
4902551	94	C	03/21/2023	22:06	-131.201	47.846	0	87.00	0	7.6700	0	32.3760	0	25.262	0	86.253	0	274.9	4	93.3	4	-1E+10	1	-1E+10	1	-1E+10	1	-1E+10	1	-1E+10	1	-1E+10	1
4902551	94	C	03/21/2023	22:06	-131.201	47.846	0	87.90	0	7.6630	0	32.3800	0	25.266	0	87.145	0	274.5	4	93.2	4	-1E+10	1	-1E+10	1	-1E+10	1	-1E+10	1	-1E+10	1	-1E+10	1
4902551	94	C	03/21/2023	22:06	-131.201	47.846	0	88.90	0	7.6580	0	32.3820	0	25.268	0	88.136	0	274.0	4	93.0	4	-1E+10	1	-1E+10	1	-1E+10	1	-1E+10	1	-1E+10	1	-1E+10	1
4902551	94	C	03/21/2023	22:06	-131.201	47.846	0	90.00	0	7.6580	0	32.3820	0	25.268	0	89.227	0	273.3	4	92.7	4	-1E+10	1	-1E+10	1	-1E+10	1	-1E+10	1	-1E+10	1	-1E+10	1
4902551	94	C	03/21/2023	22:06	-131.201	47.846	0	91.00	0	7.6560	0	32.3830	0	25.270	0	90.218	0	272.7	4	92.5	4	-1E+10	1	-1E+10	1	-1E+10	1	-1E+10	1	-1E+10	1	-1E+10	1
4902551	94	C	03/21/2023	22:06	-131.201	47.846	0	92.00	0	7.6550	0	32.3830	0	25.270	0	91.209	0	272.0	4	92.3	4	-1E+10	1	-1E+10	1	-1E+10	1	-1E+10	1	-1E+10	1	-1E+10	1
4902551	94	C	03/21/2023	22:06	-131.201	47.846	0	92.90	0	7.6550	0	32.3830	0	25.270	0	92.101	0	271.2	4	92.0	4	-1E+10	1	-1E+10	1	-1E+10	1	-1E+10	1	-1E+10	1	-1E+10	1
4902551	94	C	03/21/2023	22:06	-131.201	47.846	0	94.10	0	7.6480	0	32.3850	0	25.272	0	93.290	0	269.8	4	91.5	4	-1E+10	1	-1E+10	1	-1E+10	1	-1E+10	1	-1E+10	1	-1E+10	1
4902551	94	C	03/21/2023	22:06	-131.201	47.846	0	95.00	0	7.6380	0	32.3890	0	25.277	0	94.182	0	268.5	4	91.1	4	-1E+10	1	-1E+10	1	-1E+10	1	-1E+10	1	-1E+10	1	-1E+10	1
4902551	94	C	03/21/2023	22:06	-131.201	47.846	0	95.90	0	7.6230	0	32.3920	0	25.281	0	95.075	0	266.9	4	90.5	4	-1E+10	1	-1E+10	1	-1E+10	1	-1E+10	1	-1E+10	1	-1E+10	1
4902551	94	C	03/21/2023	22:06	-131.201	47.846	0	97.00	0	7.5910	0	32.4050	0	25.296	0	96.165	0	264.5	4	89.6	4	-1E+10	1	-1E+10	1	-1E+10	1	-1E+10	1	-1E+10	1	-1E+10	1
4902551	94	C	03/21/2023	22:06	-131.201	47.846	0	97.90	0	7.5580	0	32.4240	0	25.315	0	97.057	0	262.4	4	88.9	4	-1E+10	1	-1E+10	1	-1E+10	1	-1E+10	1	-1E+10	1	-1E+10	1
4902551	94	C	03/21/2023	22:06	-131.201	47.846	0	99.10	0	7.5200	0	32.4470	0	25.339	0	98.246	0	259.3	4	87.8	4	-1E+10	1	-1E+10	1	-1E+10	1	-1E+10	1	-1E+10	1	-1E+10	1
4902551	94	C	03/21/2023	22:06	-131.201	47.846	0	100.00	0	7.5030	0	32.4670	0	25.357	0	99.138	0	255.7	4	86.5	4	-1E+10	1	-1E+10	1	-1E+10	1	-1E+10	1	-1E+10	1	-1E+10	1
4902551	94	C	03/21/2023	22:06	-131.201	47.846	0	101.00	0	7.4970	0	32.4890	0	25.375	0	100.129	0	250.9	4	84.9	4	-1E+10	1	-1E+10	1	-1E+10	1	-1E+10	1	-1E+10	1	-1E+10	1
4902551	94	C	03/21/2023	22:06	-131.201	47.846	0	102.10	0	7.4800	0	32.5220	0	25.403	0	101.220	0	244.7	4	82.8	4	-1E+10	1	-1E+10	1	-1E+10	1	-1E+10	1	-1E+10	1	-1E+10	1
4902551	94	C	03/21/2023	22:06	-131.201	47.846	0	103.10	0	7.4610	0	32.5740	0	25.447	0	102.211	0	240.6	4	81.4	4	-1E+10	1	-1E+10	1	-1E+10	1	-1E+10	1	-1E+10	1	-1E+10	1
4902551	94	C	03/21/2023	22:06	-131.201	47.846	0	104.00	0	7.4230	0	32.6450	0	25.508	0	103.103	0	237.7	4	80.4	4	-1E+10	1	-1E+10	1	-1E+10	1	-1E+10	1	-1E+10	1	-1E+10	1
4902551	94	C	03/21/2023	22:06	-131.201	47.846	0	104.90	0	7.4120	0	32.6720	0	25.531	0	103.995	0	234.5	4	79.3	4	-1E+10	1	-1E+10	1	-1E+10	1	-1E+10	1	-1E+10	1	-1E+10	1
4902551	94	C	03/21/2023	22:06	-131.201	47.846	0	106.10	0	7.3790	0	32.7390	0	25.588	0	105.184	0	230.9	4	78.1	4	-1E+10	1	-1E+10	1	-1E+10	1	-1E+10	1	-1E+10	1	-1E+10	1
4902551	94	C	03/21/2023	22:06	-131.201	47.846	0	107.00	0	7.3540	0	32.7850	0	25.628	0	106.076	0	229.7	4	77.7	4	-1E+10	1	-1E+10	1	-1E+10	1	-1E+10	1	-1E+10	1	-1E+10	1
4902551	94	C	03/21/2023	22:06	-131.201	47.846	0	107.90	0	7.3510	0	32.7980	0	25.638	0	106.968	0	228.2	4	77.1	4	-1E+10	1	-1E+10	1	-1E+10	1	-1E+10	1	-1E+10	1	-1E+10	1
4902551	94	C	03/21/2023	22:06	-131.201	47.846	0	109.00	0	7.3510	0	32.7990	0	25.639	0	108.058	0	226.2	4	76.5	4	-1E+10	1	-1E+10	1	-1E+10	1	-1E+10	1	-1E+10	1	-1E+10	1
4902551	94	C	03/21/2023	22:06	-131.201	47.846	0	109.90	0	7.3420	0	32.8150	0	25.653	0	108.950	0	225.2	4	76.1	4	-1E+10	1	-1E+10	1	-1E+10	1	-1E+10	1	-1E+10	1	-1E+10	1
4902551	94	C	03/21/2023	22:06	-131.201	47.846	0	110.90	0	7.3130	0	32.8500	0	25.684	0	109.941	0	224.1	4	75.7	4	-1E+10	1	-1E+10	1	-1E+10	1	-1E+10	1	-1E+10	1	-1E+10	1
4902551	94	C	03/21/2023	22:06	-131.201	47.846	0	111.90	0	7.2860	0	32.8590	0	25.695	0	110.932	0	223.3	4	75.4	4	-1E+10	1	-1E+10	1	-1E+10	1	-1E+10	1	-1E+10	1	-1E+10	1
4902551	94	C	03/21/2023	22:06	-131.201	47.846	0	112.90	0	7.2100	0	32.8960	0	25.735	0	111.924	0	222.8	4	75.1	4	-1E+10	1	-1E+10	1	-1E+10	1	-1E+10	1	-1E+10	1	-1E+10	1
4902551	94	C	03/21/2023	22:06	-131.201	47.846	0	114.00	0	6.9960	0	32.9860	0	25.835	0	113.014	0	222.7	4	74.8	4	-1E+10	1	-1E+10	1	-1E+10	1	-1E+10	1	-1E+10	1	-1E+10	1
4902551	94	C	03/21/2023	22:06	-131.201	47.846	0	115.00	0	6.9280	0	33.0010	0	25.856	0	114.005	0	222.4	4	74.6	4	-1E+10	1	-1E+10	1	-1E+10	1	-1E+10	1	-1E+10	1	-1E+10	1
4902551	94	C	03/21/2023	22:06	-131.201	47.846	0	116.10	0	6.8860	0	33.0020	0	25.862	0	115.095	0	221.6	4	74.2	4	-1E+10	1	-1E+10	1	-1E+10	1	-1E+10	1	-1E+10	1	-1E+10	1
4902551	94	C	03/21/2023	22:06	-131.201	47.846	0	117.00	0	6.8210	0	33.0200	0	25.885	0	115.987	0	221.0	4	73.9	4	-1E+10	1	-1E+10	1	-1E+10	1	-1E+10	1	-1E+10	1	-1E+10	1
4902551	94	C	03/21/2023	22:06	-131.201	47.846	0	117.80	0	6.8290	0	33.0240	0	25.887	0	116.780	0	220.3	4	73.7	4	-1E+10	1	-1E+10	1	-1E+10	1	-1E+10	1	-1E+10	1	-1E+10	1
4902551	94	C	03/21/2023	22:06	-131.201	47.846	0	118.90	0	6.8320	0	33.0260	0	25.888	0	117.870	0	219.3	4	73.4	4	-1E+10	1	-1E+10	1	-1E+10	1	-1E+10	1	-1E+10	1	-1E+10	1
4902551	94	C	03/21/2023	22:06	-131.201	47.846	0	119.90	0	6.7950	0	33.0460	0	25.909	0	118.861	0	218.5	4	73.0	4	-1E+10	1	-1E+10	1	-1E+10	1	-1E+10	1	-1E+10	1	-1E+10	1
4902551	94	C	03/21/2023	22:06	-131.201	47.846	0	120.80	0	6.7370	0	33.0670	0	25.933	0	119.753	0	217.5	4	72.6	4	-1E+10	1	-1E+10	1	-1E+10	1	-1E+10	1	-1E+10	1	-1E+10	1
4902551	94	C	03/21/2023	22:06	-131.201	47.846	0	122.00	0	6.7330	0	33.0990	0	25.959	0	120.942	0	216.3	4	72.2	4	-1E+10	1	-1E+10	1	-1E+10	1	-1E+10	1	-1E+10	1	-1E+10	1
4902551	94	C	03/21/2023	22:06	-131.201	47.846	0	122.90	0	6.7430	0	33.1070	0	25.964	0	121.834	0	215.3	4	71.9	4	-1E+10	1	-1E+10	1	-1E+10	1	-1E+10	1	-1E+10	1	-1E+10	1
4902551	94	C	03/21/2023	22:06	-131.201	47.846	0	123.80	0	6.7510	0	33.1160	0	25.970	0	122.726	0	214.2	4	71.6	4	-1E+10	1	-1E+10	1	-1E+10	1	-1E+10	1	-1E+10	1	-1E+10	1
4902551	94	C	03/21/2023	22:06	-131.201	47.846	0	125.00	0	6.7590	0	33.1340	0	25.983	0	123.915	0	212.7	4	71.1	4	-1E+10	1	-1E+10	1	-1E+10	1	-1E+10	1	-1E+10	1	-1E+10	1
4902551	94	C	03/21/2023	22:06	-131.201	47.846	0	125.90	0	6.7710	0	33.1580	0	26.000	0	124.807	0	211.9	4	70.9	4	-1E+10	1	-1E+10	1	-1E+10	1	-1E+10	1	-1E+10	1	-1E+10	1
4902551	94	C	03/21/2023	22:06	-131.201	47.846	0	126.80	0	6.7790	0	33.1690	0	26.008	0	125.699	0	211.4	4	70.7	4	-1E+10	1	-1E+10	1	-1E+10	1	-1E+10	1	-1E+10	1	-1E+10	1
4902551	94	C	03/21/2023	22:06	-131.201	47.846	0	128.00	0	6.7510	0	33.2090	0	26.043	0	126.888	0	210.9	4	70.5	4	-1E+10	1	-1E+10	1	-1E+10	1	-1E+10	1	-1E+10	1	-1E+10	1
4902551	94	C	03/21/2023	22:06	-131.201	47.846	0	129.00	0	6.7130	0	33.2590	0	26.088	0	127.879	0	211.1	4	70.5	4	-1E+10	1	-1E+10	1	-1E+10	1	-1E+10	1	-1E+10	1	-1E+10	1
4902551	94	C	03/21/2023	22:06	-131.201	47.846	0	129.90	0	6.7130	0	33.2670	0	26.094	0	128.771	0	211.5	4	70.7	4	-1E+10	1	-1E+10	1	-1E+10	1	-1E+10	1	-1E+10	1	-1E+10	1
4902551	94	C	03/21/2023	22:06	-131.201	47.846	0	130.90	0	6.6750	0	33.2920	0	26.119	0	129.762	0	212.2	4	70.9	4	-1E+10	1	-1E+10	1	-1E+10	1	-1E+10	1	-1E+10	1	-1E+10	1
4902551	94	C	03/21/2023	22:06	-131.201	47.846	0	131.80	0	6.6560	0	33.2930	0	26.122	0	130.654	0	213.1	4	71.1	4	-1E+10	1	-1E+10	1	-1E+10	1	-1E+10	1	-1E+10	1	-1E+10	1
4902551	94	C	03/21/2023	22:06	-131.201	47.846	0	133.00	0	6.5640	0	33.2970	0	26.137	0	131.843	0	214.3	4	71.4	4	-1E+10	1	-1E+10	1	-1E+10	1	-1E+10	1	-1E+10	1	-1E+10	1
4902551	94	C	03/21/2023	22:06	-131.201	47.846	0	134.10	0	6.3950	0	33.3030	0	26.164	0	132.933	0	214.6	4	71.2	4	-1E+10	1	-1E+10	1	-1E+10	1	-1E+10	1	-1E+10	1	-1E+10	1
4902551	94	C	03/21/2023	22:06	-131.201	47.846	0	134.80	0	6.3480	0	33.3190	0	26.182	0	133.627	0	214.0	4	71.0	4	-1E+10	1	-1E+10	1	-1E+10	1	-1E+10	1	-1E+10	1	-1E+10	1
4902551	94	C	03/21/2023	22:06	-131.201	47.846	0	135.90	0	6.3030	0	33.3380	0	26.203	0	134.717	0	213.2	4	70.6	4	-1E+10	1	-1E+10	1	-1E+10	1	-1E+10	1	-1E+10	1	-1E+10	1
4902551	94	C	03/21/2023	22:06	-131.201	47.846	0	137.00	0	6.3010	0	33.3530	0	26.215	0	135.807	0	212.4	4	70.4	4	-1E+10	1	-1E+10	1	-1E+10	1	-1E+10	1	-1E+10	1	-1E+10	1
4902551	94	C	03/21/2023	22:06	-131.201	47.846	0	137.80	0	6.3100	0	33.3550	0	26.216	0	136.600	0	211.8	4	70.2	4	-1E+10	1	-1E+10	1	-1E+10	1	-1E+10	1	-1E+10	1	-1E+10	1
4902551	94	C	03/21/2023	22:06	-131.201	47.846	0	138.90	0	6.3180	0	33.3610	0	26.219	0	137.690	0	210.8	4	69.9	4	-1E+10	1	-1E+10	1	-1E+10	1	-1E+10	1	-1E+10	1	-1E+10	1
4902551	94	C	03/21/2023	22:06	-131.201	47.846	0	140.00	0	6.3150	0	33.3840	0	26.238	0	138.780	0	209.8	4	69.6	4	-1E+10	1	-1E+10	1	-1E+10	1	-1E+10	1	-1E+10	1	-1E+10	1
4902551	94	C	03/21/2023	22:06	-131.201	47.846	0	140.90	0	6.3000	0	33.3920	0	26.246	0	139.672	0	209.3	4	69.4	4	-1E+10	1	-1E+10	1	-1E+10	1	-1E+10	1	-1E+10	1	-1E+10	1
4902551	94	C	03/21/2023	22:06	-131.201	47.846	0	142.00	0	6.2920	0	33.3970	0	26.251	0	140.762	0	208.3	4	69.0	4	-1E+10	1	-1E+10	1	-1E+10	1	-1E+10	1	-1E+10	1	-1E+10	1
4902551	94	C	03/21/2023	22:06	-131.201	47.846	0	143.20	0	6.2800	0	33.4260	0	26.275	0	141.951	0	207.1	4	68.6	4	-1E+10	1	-1E+10	1	-1E+10	1	-1E+10	1	-1E+10	1	-1E+10	1
4902551	94	C	03/21/2023	22:06	-131.201	47.846	0	144.10	0	6.2810	0	33.4290	0	26.278	0	142.843	0	206.5	4	68.4	4	-1E+10	1	-1E+10	1	-1E+10	1	-1E+10	1	-1E+10	1	-1E+10	1
4902551	94	C	03/21/2023	22:06	-131.201	47.846	0	145.00	0	6.2810	0	33.4300	0	26.278	0	143.735	0	205.8	4	68.2	4	-1E+10	1	-1E+10	1	-1E+10	1	-1E+10	1	-1E+10	1	-1E+10	1
4902551	94	C	03/21/2023	22:06	-131.201	47.846	0	145.80	0	6.2830	0	33.4320	0	26.280	0	144.528	0	205.1	4	68.0	4	-1E+10	1	-1E+10	1	-1E+10	1	-1E+10	1	-1E+10	1	-1E+10	1
4902551	94	C	03/21/2023	22:06	-131.201	47.846	0	146.70	0	6.2830	0	33.4340	0	26.281	0	145.419	0	204.3	4	67.7	4	-1E+10	1	-1E+10	1	-1E+10	1	-1E+10	1	-1E+10	1	-1E+10	1
4902551	94	C	03/21/2023	22:06	-131.201	47.846	0	147.90	0	6.2820	0	33.4340	0	26.282	0	146.608	0	202.6	4	67.1	4	-1E+10	1	-1E+10	1	-1E+10	1	-1E+10	1	-1E+10	1	-1E+10	1
4902551	94	C	03/21/2023	22:06	-131.201	47.846	0	149.20	0	6.2850	0	33.4460	0	26.291	0	147.897	0	200.8	4	66.6	4	-1E+10	1	-1E+10	1	-1E+10	1	-1E+10	1	-1E+10	1	-1E+10	1
4902551	94	C	03/21/2023	22:06	-131.201	47.846	0	150.10	0	6.2860	0	33.4550	0	26.298	0	148.788	0	199.7	4	66.2	4	-1E+10	1	-1E+10	1	-1E+10	1	-1E+10	1	-1E+10	1	-1E+10	1
4902551	94	C	03/21/2023	22:06	-131.201	47.846	0	151.00	0	6.2860	0	33.4580	0	26.300	0	149.680	0	198.2	4	65.7	4	-1E+10	1	-1E+10	1	-1E+10	1	-1E+10	1	-1E+10	1	-1E+10	1
4902551	94	C	03/21/2023	22:06	-131.201	47.846	0	151.90	0	6.2820	0	33.4620	0	26.304	0	150.572	0	196.1	4	65.0	4	-1E+10	1	-1E+10	1	-1E+10	1	-1E+10	1	-1E+10	1	-1E+10	1
4902551	94	C	03/21/2023	22:06	-131.201	47.846	0	152.80	0	6.2750	0	33.4680	0	26.309	0	151.464	0	194.4	4	64.4	4	-1E+10	1	-1E+10	1	-1E+10	1	-1E+10	1	-1E+10	1	-1E+10	1
4902551	94	C	03/21/2023	22:06	-131.201	47.846	0	153.70	0	6.2620	0	33.4870	0	26.326	0	152.356	0	192.8	4	63.9	4	-1E+10	1	-1E+10	1	-1E+10	1	-1E+10	1	-1E+10	1	-1E+10	1
4902551	94	C	03/21/2023	22:06	-131.201	47.846	0	154.60	0	6.2540	0	33.5000	0	26.337	0	153.247	0	191.2	4	63.4	4	-1E+10	1	-1E+10	1	-1E+10	1	-1E+10	1	-1E+10	1	-1E+10	1
4902551	94	C	03/21/2023	22:06	-131.201	47.846	0	155.50	0	6.1860	0	33.5310	0	26.370	0	154.139	0	190.0	4	62.9	4	-1E+10	1	-1E+10	1	-1E+10	1	-1E+10	1	-1E+10	1	-1E+10	1
4902551	94	C	03/21/2023	22:06	-131.201	47.846	0	156.90	0	6.1740	0	33.5350	0	26.375	0	155.526	0	188.1	4	62.2	4	-1E+10	1	-1E+10	1	-1E+10	1	-1E+10	1	-1E+10	1	-1E+10	1
4902551	94	C	03/21/2023	22:06	-131.201	47.846	0	158.30	0	6.1460	0	33.5520	0	26.392	0	156.914	0	186.3	4	61.6	4	-1E+10	1	-1E+10	1	-1E+10	1	-1E+10	1	-1E+10	1	-1E+10	1
4902551	94	C	03/21/2023	22:06	-131.201	47.846	0	159.20	0	6.1130	0	33.5690	0	26.410	0	157.805	0	185.3	4	61.2	4	-1E+10	1	-1E+10	1	-1E+10	1	-1E+10	1	-1E+10	1	-1E+10	1
4902551	94	C	03/21/2023	22:06	-131.201	47.846	0	160.20	0	6.1030	0	33.5860	0	26.424	0	158.796	0	184.4	4	60.9	4	-1E+10	1	-1E+10	1	-1E+10	1	-1E+10	1	-1E+10	1	-1E+10	1
4902551	94	C	03/21/2023	22:06	-131.201	47.846	0	161.20	0	6.1020	0	33.5980	0	26.434	0	159.787	0	183.5	4	60.6	4	-1E+10	1	-1E+10	1	-1E+10	1	-1E+10	1	-1E+10	1	-1E+10	1
4902551	94	C	03/21/2023	22:06	-131.201	47.846	0	162.10	0	6.0990	0	33.6040	0	26.439	0	160.679	0	182.8	4	60.4	4	-1E+10	1	-1E+10	1	-1E+10	1	-1E+10	1	-1E+10	1	-1E+10	1
4902551	94	C	03/21/2023	22:06	-131.201	47.846	0	163.10	0	6.0990	0	33.6050	0	26.440	0	161.670	0	182.0	4	60.1	4	-1E+10	1	-1E+10	1	-1E+10	1	-1E+10	1	-1E+10	1	-1E+10	1
4902551	94	C	03/21/2023	22:06	-131.201	47.846	0	164.10	0	6.0960	0	33.6120	0	26.446	0	162.661	0	181.3	4	59.9	4	-1E+10	1	-1E+10	1	-1E+10	1	-1E+10	1	-1E+10	1	-1E+10	1
4902551	94	C	03/21/2023	22:06	-131.201	47.846	0	165.00	0	6.0910	0	33.6220	0	26.454	0	163.552	0	180.5	4	59.6	4	-1E+10	1	-1E+10	1	-1E+10	1	-1E+10	1	-1E+10	1	-1E+10	1
4902551	94	C	03/21/2023	22:06	-131.201	47.846	0	166.00	0	6.0850	0	33.6280	0	26.460	0	164.543	0	179.9	4	59.4	4	-1E+10	1	-1E+10	1	-1E+10	1	-1E+10	1	-1E+10	1	-1E+10	1
4902551	94	C	03/21/2023	22:06	-131.201	47.846	0	167.00	0	6.0830	0	33.6310	0	26.462	0	165.534	0	179.2	4	59.2	4	-1E+10	1	-1E+10	1	-1E+10	1	-1E+10	1	-1E+10	1	-1E+10	1
4902551	94	C	03/21/2023	22:06	-131.201	47.846	0	168.00	0	6.0810	0	33.6330	0	26.464	0	166.525	0	178.5	4	59.0	4	-1E+10	1	-1E+10	1	-1E+10	1	-1E+10	1	-1E+10	1	-1E+10	1
4902551	94	C	03/21/2023	22:06	-131.201	47.846	0	168.90	0	6.0780	0	33.6360	0	26.467	0	167.417	0	177.7	4	58.7	4	-1E+10	1	-1E+10	1	-1E+10	1	-1E+10	1	-1E+10	1	-1E+10	1
4902551	94	C	03/21/2023	22:06	-131.201	47.846	0	169.90	0	6.0780	0	33.6350	0	26.466	0	168.407	0	176.8	4	58.4	4	-1E+10	1	-1E+10	1	-1E+10	1	-1E+10	1	-1E+10	1	-1E+10	1
4902551	94	C	03/21/2023	22:06	-131.201	47.846	0	170.90	0	6.0730	0	33.6380	0	26.469	0	169.398	0	175.9	4	58.1	4	-1E+10	1	-1E+10	1	-1E+10	1	-1E+10	1	-1E+10	1	-1E+10	1
4902551	94	C	03/21/2023	22:06	-131.201	47.846	0	171.90	0	6.0700	0	33.6400	0	26.471	0	170.389	0	174.8	4	57.7	4	-1E+10	1	-1E+10	1	-1E+10	1	-1E+10	1	-1E+10	1	-1E+10	1
4902551	94	C	03/21/2023	22:06	-131.201	47.846	0	172.90	0	6.0640	0	33.6450	0	26.476	0	171.380	0	173.7	4	57.4	4	-1E+10	1	-1E+10	1	-1E+10	1	-1E+10	1	-1E+10	1	-1E+10	1
4902551	94	C	03/21/2023	22:06	-131.201	47.846	0	173.80	0	6.0600	0	33.6480	0	26.479	0	172.271	0	172.6	4	57.0	4	-1E+10	1	-1E+10	1	-1E+10	1	-1E+10	1	-1E+10	1	-1E+10	1
4902551	94	C	03/21/2023	22:06	-131.201	47.846	0	174.90	0	6.0590	0	33.6500	0	26.481	0	173.361	0	171.4	4	56.6	4	-1E+10	1	-1E+10	1	-1E+10	1	-1E+10	1	-1E+10	1	-1E+10	1
4902551	94	C	03/21/2023	22:06	-131.201	47.846	0	175.80	0	6.0540	0	33.6560	0	26.486	0	174.253	0	170.2	4	56.2	4	-1E+10	1	-1E+10	1	-1E+10	1	-1E+10	1	-1E+10	1	-1E+10	1
4902551	94	C	03/21/2023	22:06	-131.201	47.846	0	176.80	0	6.0320	0	33.6700	0	26.500	0	175.244	0	169.2	4	55.8	4	-1E+10	1	-1E+10	1	-1E+10	1	-1E+10	1	-1E+10	1	-1E+10	1
4902551	94	C	03/21/2023	22:06	-131.201	47.846	0	177.90	0	6.0210	0	33.6750	0	26.505	0	176.334	0	168.2	4	55.5	4	-1E+10	1	-1E+10	1	-1E+10	1	-1E+10	1	-1E+10	1	-1E+10	1
4902551	94	C	03/21/2023	22:06	-131.201	47.846	0	178.80	0	6.0160	0	33.6770	0	26.507	0	177.225	0	167.0	4	55.1	4	-1E+10	1	-1E+10	1	-1E+10	1	-1E+10	1	-1E+10	1	-1E+10	1
4902551	94	C	03/21/2023	22:06	-131.201	47.846	0	179.80	0	6.0100	0	33.6790	0	26.510	0	178.216	0	165.9	4	54.7	4	-1E+10	1	-1E+10	1	-1E+10	1	-1E+10	1	-1E+10	1	-1E+10	1
4902551	94	C	03/21/2023	22:06	-131.201	47.846	0	180.80	0	6.0050	0	33.6810	0	26.512	0	179.207	0	164.7	4	54.3	4	-1E+10	1	-1E+10	1	-1E+10	1	-1E+10	1	-1E+10	1	-1E+10	1
4902551	94	C	03/21/2023	22:06	-131.201	47.846	0	181.80	0	6.0000	0	33.6830	0	26.514	0	180.198	0	163.5	4	53.9	4	-1E+10	1	-1E+10	1	-1E+10	1	-1E+10	1	-1E+10	1	-1E+10	1
4902551	94	C	03/21/2023	22:06	-131.201	47.846	0	182.80	0	5.9980	0	33.6840	0	26.515	0	181.188	0	162.1	4	53.5	4	-1E+10	1	-1E+10	1	-1E+10	1	-1E+10	1	-1E+10	1	-1E+10	1
4902551	94	C	03/21/2023	22:06	-131.201	47.846	0	183.80	0	5.9940	0	33.6850	0	26.516	0	182.179	0	160.6	4	53.0	4	-1E+10	1	-1E+10	1	-1E+10	1	-1E+10	1	-1E+10	1	-1E+10	1
4902551	94	C	03/21/2023	22:06	-131.201	47.846	0	184.80	0	5.9740	0	33.6930	0	26.525	0	183.170	0	158.7	4	52.3	4	-1E+10	1	-1E+10	1	-1E+10	1	-1E+10	1	-1E+10	1	-1E+10	1
4902551	94	C	03/21/2023	22:06	-131.201	47.846	0	185.80	0	5.9300	0	33.7050	0	26.540	0	184.161	0	157.5	4	51.9	4	-1E+10	1	-1E+10	1	-1E+10	1	-1E+10	1	-1E+10	1	-1E+10	1
4902551	94	C	03/21/2023	22:06	-131.201	47.846	0	186.80	0	5.9130	0	33.7090	0	26.545	0	185.151	0	156.5	4	51.5	4	-1E+10	1	-1E+10	1	-1E+10	1	-1E+10	1	-1E+10	1	-1E+10	1
4902551	94	C	03/21/2023	22:06	-131.201	47.846	0	187.80	0	5.9040	0	33.7110	0	26.548	0	186.142	0	155.4	4	51.1	4	-1E+10	1	-1E+10	1	-1E+10	1	-1E+10	1	-1E+10	1	-1E+10	1
4902551	94	C	03/21/2023	22:06	-131.201	47.846	0	188.80	0	5.8850	0	33.7140	0	26.553	0	187.133	0	154.2	4	50.7	4	-1E+10	1	-1E+10	1	-1E+10	1	-1E+10	1	-1E+10	1	-1E+10	1
4902551	94	C	03/21/2023	22:06	-131.201	47.846	0	189.90	0	5.8670	0	33.7170	0	26.557	0	188.223	0	153.1	4	50.3	4	-1E+10	1	-1E+10	1	-1E+10	1	-1E+10	1	-1E+10	1	-1E+10	1
4902551	94	C	03/21/2023	22:06	-131.201	47.846	0	190.90	0	5.8560	0	33.7190	0	26.560	0	189.213	0	151.8	4	49.9	4	-1E+10	1	-1E+10	1	-1E+10	1	-1E+10	1	-1E+10	1	-1E+10	1
4902551	94	C	03/21/2023	22:06	-131.201	47.846	0	191.90	0	5.8410	0	33.7210	0	26.564	0	190.204	0	150.6	4	49.5	4	-1E+10	1	-1E+10	1	-1E+10	1	-1E+10	1	-1E+10	1	-1E+10	1
4902551	94	C	03/21/2023	22:06	-131.201	47.846	0	192.90	0	5.8240	0	33.7240	0	26.568	0	191.195	0	149.5	4	49.1	4	-1E+10	1	-1E+10	1	-1E+10	1	-1E+10	1	-1E+10	1	-1E+10	1
4902551	94	C	03/21/2023	22:06	-131.201	47.846	0	194.00	0	5.7880	0	33.7300	0	26.577	0	192.284	0	148.5	4	48.8	4	-1E+10	1	-1E+10	1	-1E+10	1	-1E+10	1	-1E+10	1	-1E+10	1
4902551	94	C	03/21/2023	22:06	-131.201	47.846	0	195.00	0	5.7730	0	33.7310	0	26.580	0	193.275	0	147.4	4	48.4	4	-1E+10	1	-1E+10	1	-1E+10	1	-1E+10	1	-1E+10	1	-1E+10	1
4902551	94	C	03/21/2023	22:06	-131.201	47.846	0	196.00	0	5.7660	0	33.7310	0	26.581	0	194.266	0	146.4	4	48.0	4	-1E+10	1	-1E+10	1	-1E+10	1	-1E+10	1	-1E+10	1	-1E+10	1
4902551	94	C	03/21/2023	22:06	-131.201	47.846	0	197.10	0	5.7460	0	33.7340	0	26.586	0	195.356	0	145.4	4	47.7	4	-1E+10	1	-1E+10	1	-1E+10	1	-1E+10	1	-1E+10	1	-1E+10	1
4902551	94	C	03/21/2023	22:06	-131.201	47.846	0	198.10	0	5.7250	0	33.7360	0	26.590	0	196.346	0	144.4	4	47.3	4	-1E+10	1	-1E+10	1	-1E+10	1	-1E+10	1	-1E+10	1	-1E+10	1
4902551	94	C	03/21/2023	22:06	-131.201	47.846	0	199.10	0	5.6920	0	33.7380	0	26.596	0	197.337	0	143.5	4	47.0	4	-1E+10	1	-1E+10	1	-1E+10	1	-1E+10	1	-1E+10	1	-1E+10	1
4902551	94	C	03/21/2023	22:06	-131.201	47.846	0	200.20	0	5.6750	0	33.7390	0	26.598	0	198.427	0	142.8	4	46.8	4	-1E+10	1	-1E+10	1	-1E+10	1	-1E+10	1	-1E+10	1	-1E+10	1
4902551	94	C	03/21/2023	22:06	-131.201	47.846	0	201.20	0	5.6490	0	33.7450	0	26.606	0	199.417	0	142.0	4	46.5	4	-1E+10	1	-1E+10	1	-1E+10	1	-1E+10	1	-1E+10	1	-1E+10	1
4902551	94	C	03/21/2023	22:06	-131.201	47.846	0	202.30	0	5.6400	0	33.7440	0	26.607	0	200.507	0	141.4	4	46.3	4	-1E+10	1	-1E+10	1	-1E+10	1	-1E+10	1	-1E+10	1	-1E+10	1
4902551	94	C	03/21/2023	22:06	-131.201	47.846	0	203.30	0	5.6350	0	33.7440	0	26.607	0	201.498	0	140.6	4	46.0	4	-1E+10	1	-1E+10	1	-1E+10	1	-1E+10	1	-1E+10	1	-1E+10	1
4902551	94	C	03/21/2023	22:06	-131.201	47.846	0	204.40	0	5.6270	0	33.7460	0	26.610	0	202.587	0	139.8	4	45.7	4	-1E+10	1	-1E+10	1	-1E+10	1	-1E+10	1	-1E+10	1	-1E+10	1
4902551	94	C	03/21/2023	22:06	-131.201	47.846	0	205.40	0	5.6220	0	33.7450	0	26.610	0	203.578	0	138.8	4	45.4	4	-1E+10	1	-1E+10	1	-1E+10	1	-1E+10	1	-1E+10	1	-1E+10	1
4902551	94	C	03/21/2023	22:06	-131.201	47.846	0	206.50	0	5.6090	0	33.7460	0	26.612	0	204.668	0	138.0	4	45.1	4	-1E+10	1	-1E+10	1	-1E+10	1	-1E+10	1	-1E+10	1	-1E+10	1
4902551	94	C	03/21/2023	22:06	-131.201	47.846	0	207.50	0	5.5870	0	33.7480	0	26.616	0	205.658	0	137.2	4	44.8	4	-1E+10	1	-1E+10	1	-1E+10	1	-1E+10	1	-1E+10	1	-1E+10	1
4902551	94	C	03/21/2023	22:06	-131.201	47.846	0	208.90	0	5.5820	0	33.7470	0	26.616	0	207.045	0	136.0	4	44.4	4	-1E+10	1	-1E+10	1	-1E+10	1	-1E+10	1	-1E+10	1	-1E+10	1
4902551	94	C	03/21/2023	22:06	-131.201	47.846	0	210.90	0	5.5460	0	33.7520	0	26.624	0	209.026	0	134.2	4	43.8	4	-1E+10	1	-1E+10	1	-1E+10	1	-1E+10	1	-1E+10	1	-1E+10	1
4902551	94	C	03/21/2023	22:06	-131.201	47.846	0	212.10	0	5.5060	0	33.7550	0	26.631	0	210.215	0	133.4	4	43.5	4	-1E+10	1	-1E+10	1	-1E+10	1	-1E+10	1	-1E+10	1	-1E+10	1
4902551	94	C	03/21/2023	22:06	-131.201	47.846	0	212.90	0	5.4990	0	33.7550	0	26.632	0	211.008	0	132.8	4	43.3	4	-1E+10	1	-1E+10	1	-1E+10	1	-1E+10	1	-1E+10	1	-1E+10	1
4902551	94	C	03/21/2023	22:06	-131.201	47.846	0	213.70	0	5.4860	0	33.7570	0	26.635	0	211.800	0	132.4	4	43.2	4	-1E+10	1	-1E+10	1	-1E+10	1	-1E+10	1	-1E+10	1	-1E+10	1
4902551	94	C	03/21/2023	22:06	-131.201	47.846	0	214.90	0	5.4850	0	33.7560	0	26.635	0	212.989	0	131.6	4	42.9	4	-1E+10	1	-1E+10	1	-1E+10	1	-1E+10	1	-1E+10	1	-1E+10	1
4902551	94	C	03/21/2023	22:06	-131.201	47.846	0	216.00	0	5.4820	0	33.7550	0	26.634	0	214.078	0	130.7	4	42.6	4	-1E+10	1	-1E+10	1	-1E+10	1	-1E+10	1	-1E+10	1	-1E+10	1
4902551	94	C	03/21/2023	22:06	-131.201	47.846	0	216.80	0	5.4590	0	33.7590	0	26.640	0	214.871	0	130.2	4	42.4	4	-1E+10	1	-1E+10	1	-1E+10	1	-1E+10	1	-1E+10	1	-1E+10	1
4902551	94	C	03/21/2023	22:06	-131.201	47.846	0	218.00	0	5.4230	0	33.7590	0	26.645	0	216.060	0	129.7	4	42.2	4	-1E+10	1	-1E+10	1	-1E+10	1	-1E+10	1	-1E+10	1	-1E+10	1
4902551	94	C	03/21/2023	22:06	-131.201	47.846	0	219.20	0	5.4070	0	33.7610	0	26.648	0	217.248	0	129.2	4	42.0	4	-1E+10	1	-1E+10	1	-1E+10	1	-1E+10	1	-1E+10	1	-1E+10	1
4902551	94	C	03/21/2023	22:06	-131.201	47.846	0	220.00	0	5.4030	0	33.7600	0	26.648	0	218.041	0	128.7	4	41.9	4	-1E+10	1	-1E+10	1	-1E+10	1	-1E+10	1	-1E+10	1	-1E+10	1
4902551	94	C	03/21/2023	22:06	-131.201	47.846	0	220.90	0	5.3990	0	33.7610	0	26.649	0	218.932	0	128.2	4	41.7	4	-1E+10	1	-1E+10	1	-1E+10	1	-1E+10	1	-1E+10	1	-1E+10	1
4902551	94	C	03/21/2023	22:06	-131.201	47.846	0	221.70	0	5.3940	0	33.7620	0	26.650	0	219.725	0	127.6	4	41.5	4	-1E+10	1	-1E+10	1	-1E+10	1	-1E+10	1	-1E+10	1	-1E+10	1
4902551	94	C	03/21/2023	22:06	-131.201	47.846	0	222.90	0	5.3830	0	33.7630	0	26.652	0	220.913	0	126.8	4	41.3	4	-1E+10	1	-1E+10	1	-1E+10	1	-1E+10	1	-1E+10	1	-1E+10	1
4902551	94	C	03/21/2023	22:06	-131.201	47.846	0	224.10	0	5.3750	0	33.7630	0	26.653	0	222.102	0	126.0	4	41.0	4	-1E+10	1	-1E+10	1	-1E+10	1	-1E+10	1	-1E+10	1	-1E+10	1
4902551	94	C	03/21/2023	22:06	-131.201	47.846	0	225.00	0	5.3620	0	33.7650	0	26.657	0	222.994	0	125.5	4	40.8	4	-1E+10	1	-1E+10	1	-1E+10	1	-1E+10	1	-1E+10	1	-1E+10	1
4902551	94	C	03/21/2023	22:06	-131.201	47.846	0	225.80	0	5.3610	0	33.7660	0	26.657	0	223.786	0	124.9	4	40.6	4	-1E+10	1	-1E+10	1	-1E+10	1	-1E+10	1	-1E+10	1	-1E+10	1
4902551	94	C	03/21/2023	22:06	-131.201	47.846	0	226.70	0	5.3640	0	33.7670	0	26.658	0	224.677	0	124.3	4	40.4	4	-1E+10	1	-1E+10	1	-1E+10	1	-1E+10	1	-1E+10	1	-1E+10	1
4902551	94	C	03/21/2023	22:06	-131.201	47.846	0	227.90	0	5.3630	0	33.7670	0	26.658	0	225.866	0	123.4	4	40.1	4	-1E+10	1	-1E+10	1	-1E+10	1	-1E+10	1	-1E+10	1	-1E+10	1
4902551	94	C	03/21/2023	22:06	-131.201	47.846	0	229.20	0	5.3660	0	33.7670	0	26.658	0	227.154	0	122.4	4	39.8	4	-1E+10	1	-1E+10	1	-1E+10	1	-1E+10	1	-1E+10	1	-1E+10	1
4902551	94	C	03/21/2023	22:06	-131.201	47.846	0	230.10	0	5.3630	0	33.7680	0	26.659	0	228.045	0	121.7	4	39.6	4	-1E+10	1	-1E+10	1	-1E+10	1	-1E+10	1	-1E+10	1	-1E+10	1
4902551	94	C	03/21/2023	22:06	-131.201	47.846	0	230.90	0	5.3600	0	33.7680	0	26.659	0	228.838	0	120.9	4	39.3	4	-1E+10	1	-1E+10	1	-1E+10	1	-1E+10	1	-1E+10	1	-1E+10	1
4902551	94	C	03/21/2023	22:06	-131.201	47.846	0	231.80	0	5.3160	0	33.7710	0	26.667	0	229.729	0	120.1	4	39.0	4	-1E+10	1	-1E+10	1	-1E+10	1	-1E+10	1	-1E+10	1	-1E+10	1
4902551	94	C	03/21/2023	22:06	-131.201	47.846	0	232.60	0	5.2870	0	33.7680	0	26.668	0	230.522	0	119.5	4	38.8	4	-1E+10	1	-1E+10	1	-1E+10	1	-1E+10	1	-1E+10	1	-1E+10	1
4902551	94	C	03/21/2023	22:06	-131.201	47.846	0	233.90	0	5.2590	0	33.7700	0	26.673	0	231.809	0	118.3	4	38.4	4	-1E+10	1	-1E+10	1	-1E+10	1	-1E+10	1	-1E+10	1	-1E+10	1
4902551	94	C	03/21/2023	22:06	-131.201	47.846	0	235.20	0	5.2350	0	33.7720	0	26.677	0	233.097	0	117.2	4	38.0	4	-1E+10	1	-1E+10	1	-1E+10	1	-1E+10	1	-1E+10	1	-1E+10	1
4902551	94	C	03/21/2023	22:06	-131.201	47.846	0	236.10	0	5.2490	0	33.7770	0	26.679	0	233.988	0	116.6	4	37.8	4	-1E+10	1	-1E+10	1	-1E+10	1	-1E+10	1	-1E+10	1	-1E+10	1
4902551	94	C	03/21/2023	22:06	-131.201	47.846	0	236.90	0	5.2590	0	33.7810	0	26.681	0	234.781	0	116.0	4	37.6	4	-1E+10	1	-1E+10	1	-1E+10	1	-1E+10	1	-1E+10	1	-1E+10	1
4902551	94	C	03/21/2023	22:06	-131.201	47.846	0	237.80	0	5.2560	0	33.7770	0	26.679	0	235.672	0	115.4	4	37.4	4	-1E+10	1	-1E+10	1	-1E+10	1	-1E+10	1	-1E+10	1	-1E+10	1
4902551	94	C	03/21/2023	22:06	-131.201	47.846	0	239.00	0	5.2630	0	33.7790	0	26.679	0	236.861	0	114.4	4	37.1	4	-1E+10	1	-1E+10	1	-1E+10	1	-1E+10	1	-1E+10	1	-1E+10	1
4902551	94	C	03/21/2023	22:06	-131.201	47.846	0	240.30	0	5.2670	0	33.7780	0	26.678	0	238.148	0	113.3	4	36.8	4	-1E+10	1	-1E+10	1	-1E+10	1	-1E+10	1	-1E+10	1	-1E+10	1
4902551	94	C	03/21/2023	22:06	-131.201	47.846	0	241.10	0	5.1870	0	33.7790	0	26.688	0	238.941	0	112.8	4	36.5	4	-1E+10	1	-1E+10	1	-1E+10	1	-1E+10	1	-1E+10	1	-1E+10	1
4902551	94	C	03/21/2023	22:06	-131.201	47.846	0	242.00	0	5.1490	0	33.7780	0	26.692	0	239.832	0	112.3	4	36.3	4	-1E+10	1	-1E+10	1	-1E+10	1	-1E+10	1	-1E+10	1	-1E+10	1
4902551	94	C	03/21/2023	22:06	-131.201	47.846	0	242.80	0	5.1200	0	33.7800	0	26.697	0	240.624	0	111.7	4	36.1	4	-1E+10	1	-1E+10	1	-1E+10	1	-1E+10	1	-1E+10	1	-1E+10	1
4902551	94	C	03/21/2023	22:06	-131.201	47.846	0	243.70	0	5.1050	0	33.7800	0	26.698	0	241.516	0	111.3	4	36.0	4	-1E+10	1	-1E+10	1	-1E+10	1	-1E+10	1	-1E+10	1	-1E+10	1
4902551	94	C	03/21/2023	22:06	-131.201	47.846	0	244.90	0	5.0830	0	33.7820	0	26.702	0	242.704	0	110.5	4	35.7	4	-1E+10	1	-1E+10	1	-1E+10	1	-1E+10	1	-1E+10	1	-1E+10	1
4902551	94	C	03/21/2023	22:06	-131.201	47.846	0	246.30	0	5.0760	0	33.7840	0	26.705	0	244.091	0	109.7	4	35.4	4	-1E+10	1	-1E+10	1	-1E+10	1	-1E+10	1	-1E+10	1	-1E+10	1
4902551	94	C	03/21/2023	22:06	-131.201	47.846	0	247.10	0	5.0750	0	33.7830	0	26.704	0	244.883	0	109.3	4	35.3	4	-1E+10	1	-1E+10	1	-1E+10	1	-1E+10	1	-1E+10	1	-1E+10	1
4902551	94	C	03/21/2023	22:06	-131.201	47.846	0	248.00	0	5.0730	0	33.7840	0	26.705	0	245.775	0	108.7	4	35.1	4	-1E+10	1	-1E+10	1	-1E+10	1	-1E+10	1	-1E+10	1	-1E+10	1
4902551	94	C	03/21/2023	22:06	-131.201	47.846	0	248.80	0	5.0720	0	33.7840	0	26.705	0	246.567	0	108.1	4	34.9	4	-1E+10	1	-1E+10	1	-1E+10	1	-1E+10	1	-1E+10	1	-1E+10	1
4902551	94	C	03/21/2023	22:06	-131.201	47.846	0	249.60	0	5.0710	0	33.7840	0	26.705	0	247.359	0	107.4	4	34.7	4	-1E+10	1	-1E+10	1	-1E+10	1	-1E+10	1	-1E+10	1	-1E+10	1
4902551	94	C	03/21/2023	22:06	-131.201	47.846	0	250.90	0	5.0680	0	33.7840	0	26.706	0	248.647	0	106.3	4	34.3	4	-1E+10	1	-1E+10	1	-1E+10	1	-1E+10	1	-1E+10	1	-1E+10	1
4902551	94	C	03/21/2023	22:06	-131.201	47.846	0	252.10	0	5.0600	0	33.7850	0	26.708	0	249.836	0	105.1	4	33.9	4	-1E+10	1	-1E+10	1	-1E+10	1	-1E+10	1	-1E+10	1	-1E+10	1
4902551	94	C	03/21/2023	22:06	-131.201	47.846	0	253.00	0	5.0500	0	33.7870	0	26.710	0	250.727	0	104.3	4	33.7	4	-1E+10	1	-1E+10	1	-1E+10	1	-1E+10	1	-1E+10	1	-1E+10	1
4902551	94	C	03/21/2023	22:06	-131.201	47.846	0	253.80	0	5.0380	0	33.7890	0	26.713	0	251.519	0	103.5	4	33.4	4	-1E+10	1	-1E+10	1	-1E+10	1	-1E+10	1	-1E+10	1	-1E+10	1
4902551	94	C	03/21/2023	22:06	-131.201	47.846	0	254.70	0	5.0150	0	33.7920	0	26.718	0	252.411	0	102.9	4	33.2	4	-1E+10	1	-1E+10	1	-1E+10	1	-1E+10	1	-1E+10	1	-1E+10	1
4902551	94	C	03/21/2023	22:06	-131.201	47.846	0	255.90	0	5.0100	0	33.7910	0	26.718	0	253.599	0	101.7	4	32.8	4	-1E+10	1	-1E+10	1	-1E+10	1	-1E+10	1	-1E+10	1	-1E+10	1
4902551	94	C	03/21/2023	22:06	-131.201	47.846	0	257.20	0	4.9740	0	33.7950	0	26.725	0	254.887	0	100.7	4	32.4	4	-1E+10	1	-1E+10	1	-1E+10	1	-1E+10	1	-1E+10	1	-1E+10	1
4902551	94	C	03/21/2023	22:06	-131.201	47.846	0	258.00	0	4.9360	0	33.8010	0	26.734	0	255.679	0	100.2	4	32.3	4	-1E+10	1	-1E+10	1	-1E+10	1	-1E+10	1	-1E+10	1	-1E+10	1
4902551	94	C	03/21/2023	22:06	-131.201	47.846	0	258.90	0	4.9300	0	33.8010	0	26.735	0	256.570	0	99.8	4	32.1	4	-1E+10	1	-1E+10	1	-1E+10	1	-1E+10	1	-1E+10	1	-1E+10	1
4902551	94	C	03/21/2023	22:06	-131.201	47.846	0	259.70	0	4.9250	0	33.8010	0	26.736	0	257.363	0	99.4	4	32.0	4	-1E+10	1	-1E+10	1	-1E+10	1	-1E+10	1	-1E+10	1	-1E+10	1
4902551	94	C	03/21/2023	22:06	-131.201	47.846	0	261.00	0	4.9180	0	33.8020	0	26.737	0	258.650	0	98.7	4	31.8	4	-1E+10	1	-1E+10	1	-1E+10	1	-1E+10	1	-1E+10	1	-1E+10	1
4902551	94	C	03/21/2023	22:06	-131.201	47.846	0	262.30	0	4.9020	0	33.8050	0	26.741	0	259.938	0	98.1	4	31.6	4	-1E+10	1	-1E+10	1	-1E+10	1	-1E+10	1	-1E+10	1	-1E+10	1
4902551	94	C	03/21/2023	22:06	-131.201	47.846	0	263.10	0	4.8940	0	33.8080	0	26.745	0	260.730	0	97.8	4	31.5	4	-1E+10	1	-1E+10	1	-1E+10	1	-1E+10	1	-1E+10	1	-1E+10	1
4902551	94	C	03/21/2023	22:06	-131.201	47.846	0	264.00	0	4.8910	0	33.8100	0	26.747	0	261.621	0	97.6	4	31.4	4	-1E+10	1	-1E+10	1	-1E+10	1	-1E+10	1	-1E+10	1	-1E+10	1
4902551	94	C	03/21/2023	22:06	-131.201	47.846	0	264.80	0	4.8880	0	33.8090	0	26.746	0	262.413	0	97.4	4	31.3	4	-1E+10	1	-1E+10	1	-1E+10	1	-1E+10	1	-1E+10	1	-1E+10	1
4902551	94	C	03/21/2023	22:06	-131.201	47.846	0	265.70	0	4.8860	0	33.8090	0	26.746	0	263.305	0	97.2	4	31.3	4	-1E+10	1	-1E+10	1	-1E+10	1	-1E+10	1	-1E+10	1	-1E+10	1
4902551	94	C	03/21/2023	22:06	-131.201	47.846	0	267.00	0	4.8770	0	33.8090	0	26.747	0	264.592	0	96.7	4	31.1	4	-1E+10	1	-1E+10	1	-1E+10	1	-1E+10	1	-1E+10	1	-1E+10	1
4902551	94	C	03/21/2023	22:06	-131.201	47.846	0	268.30	0	4.8760	0	33.8090	0	26.747	0	265.880	0	96.3	4	31.0	4	-1E+10	1	-1E+10	1	-1E+10	1	-1E+10	1	-1E+10	1	-1E+10	1
4902551	94	C	03/21/2023	22:06	-131.201	47.846	0	269.20	0	4.8730	0	33.8110	0	26.749	0	266.771	0	96.0	4	30.9	4	-1E+10	1	-1E+10	1	-1E+10	1	-1E+10	1	-1E+10	1	-1E+10	1
4902551	94	C	03/21/2023	22:06	-131.201	47.846	0	270.10	0	4.8700	0	33.8100	0	26.749	0	267.662	0	95.6	4	30.7	4	-1E+10	1	-1E+10	1	-1E+10	1	-1E+10	1	-1E+10	1	-1E+10	1
4902551	94	C	03/21/2023	22:06	-131.201	47.846	0	271.00	0	4.8680	0	33.8100	0	26.749	0	268.554	0	95.2	4	30.6	4	-1E+10	1	-1E+10	1	-1E+10	1	-1E+10	1	-1E+10	1	-1E+10	1
4902551	94	C	03/21/2023	22:06	-131.201	47.846	0	271.80	0	4.8670	0	33.8110	0	26.750	0	269.346	0	94.8	4	30.5	4	-1E+10	1	-1E+10	1	-1E+10	1	-1E+10	1	-1E+10	1	-1E+10	1
4902551	94	C	03/21/2023	22:06	-131.201	47.846	0	272.70	0	4.8640	0	33.8110	0	26.750	0	270.237	0	94.3	4	30.3	4	-1E+10	1	-1E+10	1	-1E+10	1	-1E+10	1	-1E+10	1	-1E+10	1
4902551	94	C	03/21/2023	22:06	-131.201	47.846	0	274.00	0	4.8580	0	33.8120	0	26.752	0	271.524	0	93.6	4	30.1	4	-1E+10	1	-1E+10	1	-1E+10	1	-1E+10	1	-1E+10	1	-1E+10	1
4902551	94	C	03/21/2023	22:06	-131.201	47.846	0	275.30	0	4.8540	0	33.8150	0	26.755	0	272.812	0	92.9	4	29.8	4	-1E+10	1	-1E+10	1	-1E+10	1	-1E+10	1	-1E+10	1	-1E+10	1
4902551	94	C	03/21/2023	22:06	-131.201	47.846	0	276.20	0	4.8530	0	33.8160	0	26.756	0	273.703	0	92.4	4	29.7	4	-1E+10	1	-1E+10	1	-1E+10	1	-1E+10	1	-1E+10	1	-1E+10	1
4902551	94	C	03/21/2023	22:06	-131.201	47.846	0	277.10	0	4.8510	0	33.8180	0	26.757	0	274.594	0	91.9	4	29.5	4	-1E+10	1	-1E+10	1	-1E+10	1	-1E+10	1	-1E+10	1	-1E+10	1
4902551	94	C	03/21/2023	22:06	-131.201	47.846	0	277.90	0	4.8490	0	33.8180	0	26.758	0	275.387	0	91.4	4	29.4	4	-1E+10	1	-1E+10	1	-1E+10	1	-1E+10	1	-1E+10	1	-1E+10	1
4902551	94	C	03/21/2023	22:06	-131.201	47.846	0	278.80	0	4.8410	0	33.8200	0	26.760	0	276.278	0	90.9	4	29.2	4	-1E+10	1	-1E+10	1	-1E+10	1	-1E+10	1	-1E+10	1	-1E+10	1
4902551	94	C	03/21/2023	22:06	-131.201	47.846	0	279.70	0	4.8280	0	33.8210	0	26.762	0	277.169	0	90.4	4	29.0	4	-1E+10	1	-1E+10	1	-1E+10	1	-1E+10	1	-1E+10	1	-1E+10	1
4902551	94	C	03/21/2023	22:06	-131.201	47.846	0	280.90	0	4.8150	0	33.8240	0	26.766	0	278.357	0	89.8	4	28.8	4	-1E+10	1	-1E+10	1	-1E+10	1	-1E+10	1	-1E+10	1	-1E+10	1
4902551	94	C	03/21/2023	22:06	-131.201	47.846	0	282.30	0	4.8090	0	33.8250	0	26.768	0	279.744	0	89.3	4	28.7	4	-1E+10	1	-1E+10	1	-1E+10	1	-1E+10	1	-1E+10	1	-1E+10	1
4902551	94	C	03/21/2023	22:06	-131.201	47.846	0	283.20	0	4.8030	0	33.8260	0	26.769	0	280.635	0	88.9	4	28.5	4	-1E+10	1	-1E+10	1	-1E+10	1	-1E+10	1	-1E+10	1	-1E+10	1
4902551	94	C	03/21/2023	22:06	-131.201	47.846	0	284.00	0	4.7960	0	33.8280	0	26.772	0	281.427	0	88.5	4	28.4	4	-1E+10	1	-1E+10	1	-1E+10	1	-1E+10	1	-1E+10	1	-1E+10	1
4902551	94	C	03/21/2023	22:06	-131.201	47.846	0	284.90	0	4.7760	0	33.8320	0	26.777	0	282.319	0	88.4	4	28.4	4	-1E+10	1	-1E+10	1	-1E+10	1	-1E+10	1	-1E+10	1	-1E+10	1
4902551	94	C	03/21/2023	22:06	-131.201	47.846	0	285.80	0	4.7730	0	33.8310	0	26.776	0	283.210	0	88.2	4	28.3	4	-1E+10	1	-1E+10	1	-1E+10	1	-1E+10	1	-1E+10	1	-1E+10	1
4902551	94	C	03/21/2023	22:06	-131.201	47.846	0	286.70	0	4.7720	0	33.8320	0	26.777	0	284.101	0	87.9	4	28.2	4	-1E+10	1	-1E+10	1	-1E+10	1	-1E+10	1	-1E+10	1	-1E+10	1
4902551	94	C	03/21/2023	22:06	-131.201	47.846	0	287.60	0	4.7710	0	33.8310	0	26.777	0	284.992	0	87.6	4	28.1	4	-1E+10	1	-1E+10	1	-1E+10	1	-1E+10	1	-1E+10	1	-1E+10	1
4902551	94	C	03/21/2023	22:06	-131.201	47.846	0	288.60	0	4.7720	0	33.8310	0	26.777	0	285.982	0	87.4	4	28.0	4	-1E+10	1	-1E+10	1	-1E+10	1	-1E+10	1	-1E+10	1	-1E+10	1
4902551	94	C	03/21/2023	22:06	-131.201	47.846	0	289.90	0	4.7650	0	33.8310	0	26.777	0	287.270	0	86.8	4	27.8	4	-1E+10	1	-1E+10	1	-1E+10	1	-1E+10	1	-1E+10	1	-1E+10	1
4902551	94	C	03/21/2023	22:06	-131.201	47.846	0	291.30	0	4.7560	0	33.8340	0	26.781	0	288.656	0	86.3	4	27.7	4	-1E+10	1	-1E+10	1	-1E+10	1	-1E+10	1	-1E+10	1	-1E+10	1
4902551	94	C	03/21/2023	22:06	-131.201	47.846	0	292.30	0	4.7540	0	33.8360	0	26.783	0	289.646	0	86.0	4	27.6	4	-1E+10	1	-1E+10	1	-1E+10	1	-1E+10	1	-1E+10	1	-1E+10	1
4902551	94	C	03/21/2023	22:06	-131.201	47.846	0	293.20	0	4.7530	0	33.8360	0	26.783	0	290.538	0	85.7	4	27.5	4	-1E+10	1	-1E+10	1	-1E+10	1	-1E+10	1	-1E+10	1	-1E+10	1
4902551	94	C	03/21/2023	22:06	-131.201	47.846	0	294.20	0	4.7510	0	33.8370	0	26.784	0	291.528	0	85.5	4	27.4	4	-1E+10	1	-1E+10	1	-1E+10	1	-1E+10	1	-1E+10	1	-1E+10	1
4902551	94	C	03/21/2023	22:06	-131.201	47.846	0	295.10	0	4.7460	0	33.8370	0	26.784	0	292.419	0	85.2	4	27.3	4	-1E+10	1	-1E+10	1	-1E+10	1	-1E+10	1	-1E+10	1	-1E+10	1
4902551	94	C	03/21/2023	22:06	-131.201	47.846	0	296.00	0	4.7440	0	33.8380	0	26.785	0	293.310	0	84.9	4	27.2	4	-1E+10	1	-1E+10	1	-1E+10	1	-1E+10	1	-1E+10	1	-1E+10	1
4902551	94	C	03/21/2023	22:06	-131.201	47.846	0	296.90	0	4.7420	0	33.8370	0	26.785	0	294.201	0	84.6	4	27.1	4	-1E+10	1	-1E+10	1	-1E+10	1	-1E+10	1	-1E+10	1	-1E+10	1
4902551	94	C	03/21/2023	22:06	-131.201	47.846	0	297.90	0	4.7400	0	33.8380	0	26.786	0	295.191	0	84.2	4	27.0	4	-1E+10	1	-1E+10	1	-1E+10	1	-1E+10	1	-1E+10	1	-1E+10	1
4902551	94	C	03/21/2023	22:06	-131.201	47.846	0	298.80	0	4.7320	0	33.8400	0	26.788	0	296.083	0	83.9	4	26.9	4	-1E+10	1	-1E+10	1	-1E+10	1	-1E+10	1	-1E+10	1	-1E+10	1
4902551	94	C	03/21/2023	22:06	-131.201	47.846	0	299.80	0	4.7280	0	33.8400	0	26.789	0	297.073	0	83.6	4	26.8	4	-1E+10	1	-1E+10	1	-1E+10	1	-1E+10	1	-1E+10	1	-1E+10	1
4902551	94	C	03/21/2023	22:06	-131.201	47.846	0	300.70	0	4.7260	0	33.8410	0	26.790	0	297.964	0	83.3	4	26.7	4	-1E+10	1	-1E+10	1	-1E+10	1	-1E+10	1	-1E+10	1	-1E+10	1
4902551	94	C	03/21/2023	22:06	-131.201	47.846	0	301.70	0	4.7200	0	33.8420	0	26.791	0	298.954	0	82.9	4	26.6	4	-1E+10	1	-1E+10	1	-1E+10	1	-1E+10	1	-1E+10	1	-1E+10	1
4902551	94	C	03/21/2023	22:06	-131.201	47.846	0	302.70	0	4.7200	0	33.8410	0	26.790	0	299.944	0	82.6	4	26.5	4	-1E+10	1	-1E+10	1	-1E+10	1	-1E+10	1	-1E+10	1	-1E+10	1
4902551	94	C	03/21/2023	22:06	-131.201	47.846	0	303.60	0	4.7190	0	33.8420	0	26.791	0	300.836	0	82.2	4	26.3	4	-1E+10	1	-1E+10	1	-1E+10	1	-1E+10	1	-1E+10	1	-1E+10	1
4902551	94	C	03/21/2023	22:06	-131.201	47.846	0	304.60	0	4.7140	0	33.8430	0	26.793	0	301.826	0	81.7	4	26.2	4	-1E+10	1	-1E+10	1	-1E+10	1	-1E+10	1	-1E+10	1	-1E+10	1
4902551	94	C	03/21/2023	22:06	-131.201	47.846	0	305.60	0	4.6990	0	33.8470	0	26.797	0	302.816	0	81.3	4	26.0	4	-1E+10	1	-1E+10	1	-1E+10	1	-1E+10	1	-1E+10	1	-1E+10	1
4902551	94	C	03/21/2023	22:06	-131.201	47.846	0	306.60	0	4.6910	0	33.8480	0	26.799	0	303.806	0	81.0	4	25.9	4	-1E+10	1	-1E+10	1	-1E+10	1	-1E+10	1	-1E+10	1	-1E+10	1
4902551	94	C	03/21/2023	22:06	-131.201	47.846	0	307.60	0	4.6880	0	33.8480	0	26.800	0	304.796	0	80.7	4	25.8	4	-1E+10	1	-1E+10	1	-1E+10	1	-1E+10	1	-1E+10	1	-1E+10	1
4902551	94	C	03/21/2023	22:06	-131.201	47.846	0	308.60	0	4.6850	0	33.8480	0	26.800	0	305.786	0	80.4	4	25.7	4	-1E+10	1	-1E+10	1	-1E+10	1	-1E+10	1	-1E+10	1	-1E+10	1
4902551	94	C	03/21/2023	22:06	-131.201	47.846	0	309.60	0	4.6800	0	33.8490	0	26.801	0	306.776	0	80.1	4	25.6	4	-1E+10	1	-1E+10	1	-1E+10	1	-1E+10	1	-1E+10	1	-1E+10	1
4902551	94	C	03/21/2023	22:06	-131.201	47.846	0	310.60	0	4.6720	0	33.8500	0	26.803	0	307.767	0	79.8	4	25.5	4	-1E+10	1	-1E+10	1	-1E+10	1	-1E+10	1	-1E+10	1	-1E+10	1
4902551	94	C	03/21/2023	22:06	-131.201	47.846	0	311.60	0	4.6680	0	33.8510	0	26.804	0	308.757	0	79.5	4	25.5	4	-1E+10	1	-1E+10	1	-1E+10	1	-1E+10	1	-1E+10	1	-1E+10	1
4902551	94	C	03/21/2023	22:06	-131.201	47.846	0	312.60	0	4.6590	0	33.8530	0	26.807	0	309.747	0	79.3	4	25.4	4	-1E+10	1	-1E+10	1	-1E+10	1	-1E+10	1	-1E+10	1	-1E+10	1
4902551	94	C	03/21/2023	22:06	-131.201	47.846	0	313.60	0	4.6550	0	33.8540	0	26.808	0	310.737	0	79.1	4	25.3	4	-1E+10	1	-1E+10	1	-1E+10	1	-1E+10	1	-1E+10	1	-1E+10	1
4902551	94	C	03/21/2023	22:06	-131.201	47.846	0	314.60	0	4.6510	0	33.8550	0	26.809	0	311.727	0	79.0	4	25.3	4	-1E+10	1	-1E+10	1	-1E+10	1	-1E+10	1	-1E+10	1	-1E+10	1
4902551	94	C	03/21/2023	22:06	-131.201	47.846	0	315.60	0	4.6470	0	33.8560	0	26.810	0	312.717	0	78.8	4	25.2	4	-1E+10	1	-1E+10	1	-1E+10	1	-1E+10	1	-1E+10	1	-1E+10	1
4902551	94	C	03/21/2023	22:06	-131.201	47.846	0	316.60	0	4.6450	0	33.8560	0	26.811	0	313.707	0	78.6	4	25.1	4	-1E+10	1	-1E+10	1	-1E+10	1	-1E+10	1	-1E+10	1	-1E+10	1
4902551	94	C	03/21/2023	22:06	-131.201	47.846	0	317.60	0	4.6440	0	33.8560	0	26.811	0	314.697	0	78.4	4	25.1	4	-1E+10	1	-1E+10	1	-1E+10	1	-1E+10	1	-1E+10	1	-1E+10	1
4902551	94	C	03/21/2023	22:06	-131.201	47.846	0	318.60	0	4.6420	0	33.8560	0	26.811	0	315.688	0	78.2	4	25.0	4	-1E+10	1	-1E+10	1	-1E+10	1	-1E+10	1	-1E+10	1	-1E+10	1
4902551	94	C	03/21/2023	22:06	-131.201	47.846	0	319.70	0	4.6410	0	33.8570	0	26.812	0	316.777	0	78.0	4	24.9	4	-1E+10	1	-1E+10	1	-1E+10	1	-1E+10	1	-1E+10	1	-1E+10	1
4902551	94	C	03/21/2023	22:06	-131.201	47.846	0	320.70	0	4.6400	0	33.8560	0	26.811	0	317.767	0	77.7	4	24.9	4	-1E+10	1	-1E+10	1	-1E+10	1	-1E+10	1	-1E+10	1	-1E+10	1
4902551	94	C	03/21/2023	22:06	-131.201	47.846	0	321.60	0	4.6380	0	33.8570	0	26.812	0	318.658	0	77.5	4	24.8	4	-1E+10	1	-1E+10	1	-1E+10	1	-1E+10	1	-1E+10	1	-1E+10	1
4902551	94	C	03/21/2023	22:06	-131.201	47.846	0	323.00	0	4.6350	0	33.8570	0	26.813	0	320.044	0	77.0	4	24.6	4	-1E+10	1	-1E+10	1	-1E+10	1	-1E+10	1	-1E+10	1	-1E+10	1
4902551	94	C	03/21/2023	22:06	-131.201	47.846	0	324.30	0	4.6340	0	33.8570	0	26.813	0	321.331	0	76.5	4	24.5	4	-1E+10	1	-1E+10	1	-1E+10	1	-1E+10	1	-1E+10	1	-1E+10	1
4902551	94	C	03/21/2023	22:06	-131.201	47.846	0	325.20	0	4.6310	0	33.8570	0	26.813	0	322.222	0	76.2	4	24.4	4	-1E+10	1	-1E+10	1	-1E+10	1	-1E+10	1	-1E+10	1	-1E+10	1
4902551	94	C	03/21/2023	22:06	-131.201	47.846	0	326.20	0	4.6250	0	33.8600	0	26.816	0	323.212	0	75.8	4	24.2	4	-1E+10	1	-1E+10	1	-1E+10	1	-1E+10	1	-1E+10	1	-1E+10	1
4902551	94	C	03/21/2023	22:06	-131.201	47.846	0	327.10	0	4.6130	0	33.8610	0	26.818	0	324.103	0	75.6	4	24.2	4	-1E+10	1	-1E+10	1	-1E+10	1	-1E+10	1	-1E+10	1	-1E+10	1
4902551	94	C	03/21/2023	22:06	-131.201	47.846	0	327.90	0	4.6100	0	33.8620	0	26.819	0	324.895	0	75.3	4	24.1	4	-1E+10	1	-1E+10	1	-1E+10	1	-1E+10	1	-1E+10	1	-1E+10	1
4902551	94	C	03/21/2023	22:06	-131.201	47.846	0	328.60	0	4.6080	0	33.8620	0	26.820	0	325.588	0	75.0	4	24.0	4	-1E+10	1	-1E+10	1	-1E+10	1	-1E+10	1	-1E+10	1	-1E+10	1
4902551	94	C	03/21/2023	22:06	-131.201	47.846	0	329.60	0	4.6040	0	33.8620	0	26.820	0	326.578	0	74.7	4	23.9	4	-1E+10	1	-1E+10	1	-1E+10	1	-1E+10	1	-1E+10	1	-1E+10	1
4902551	94	C	03/21/2023	22:06	-131.201	47.846	0	330.60	0	4.5990	0	33.8630	0	26.821	0	327.568	0	74.4	4	23.8	4	-1E+10	1	-1E+10	1	-1E+10	1	-1E+10	1	-1E+10	1	-1E+10	1
4902551	94	C	03/21/2023	22:06	-131.201	47.846	0	331.60	0	4.5930	0	33.8640	0	26.823	0	328.558	0	74.1	4	23.7	4	-1E+10	1	-1E+10	1	-1E+10	1	-1E+10	1	-1E+10	1	-1E+10	1
4902551	94	C	03/21/2023	22:06	-131.201	47.846	0	332.70	0	4.5880	0	33.8660	0	26.825	0	329.647	0	73.8	4	23.6	4	-1E+10	1	-1E+10	1	-1E+10	1	-1E+10	1	-1E+10	1	-1E+10	1
4902551	94	C	03/21/2023	22:06	-131.201	47.846	0	333.70	0	4.5820	0	33.8670	0	26.826	0	330.637	0	73.5	4	23.5	4	-1E+10	1	-1E+10	1	-1E+10	1	-1E+10	1	-1E+10	1	-1E+10	1
4902551	94	C	03/21/2023	22:06	-131.201	47.846	0	334.70	0	4.5780	0	33.8680	0	26.828	0	331.627	0	73.3	4	23.4	4	-1E+10	1	-1E+10	1	-1E+10	1	-1E+10	1	-1E+10	1	-1E+10	1
4902551	94	C	03/21/2023	22:06	-131.201	47.846	0	335.80	0	4.5770	0	33.8680	0	26.828	0	332.716	0	73.0	4	23.3	4	-1E+10	1	-1E+10	1	-1E+10	1	-1E+10	1	-1E+10	1	-1E+10	1
4902551	94	C	03/21/2023	22:06	-131.201	47.846	0	336.80	0	4.5740	0	33.8680	0	26.828	0	333.706	0	72.6	4	23.2	4	-1E+10	1	-1E+10	1	-1E+10	1	-1E+10	1	-1E+10	1	-1E+10	1
4902551	94	C	03/21/2023	22:06	-131.201	47.846	0	337.90	0	4.5720	0	33.8680	0	26.828	0	334.796	0	72.3	4	23.1	4	-1E+10	1	-1E+10	1	-1E+10	1	-1E+10	1	-1E+10	1	-1E+10	1
4902551	94	C	03/21/2023	22:06	-131.201	47.846	0	338.90	0	4.5710	0	33.8680	0	26.828	0	335.786	0	71.9	4	23.0	4	-1E+10	1	-1E+10	1	-1E+10	1	-1E+10	1	-1E+10	1	-1E+10	1
4902551	94	C	03/21/2023	22:06	-131.201	47.846	0	340.00	0	4.5680	0	33.8690	0	26.830	0	336.875	0	71.5	4	22.8	4	-1E+10	1	-1E+10	1	-1E+10	1	-1E+10	1	-1E+10	1	-1E+10	1
4902551	94	C	03/21/2023	22:06	-131.201	47.846	0	341.00	0	4.5650	0	33.8680	0	26.829	0	337.865	0	71.1	4	22.7	4	-1E+10	1	-1E+10	1	-1E+10	1	-1E+10	1	-1E+10	1	-1E+10	1
4902551	94	C	03/21/2023	22:06	-131.201	47.846	0	342.10	0	4.5470	0	33.8740	0	26.836	0	338.954	0	70.8	4	22.6	4	-1E+10	1	-1E+10	1	-1E+10	1	-1E+10	1	-1E+10	1	-1E+10	1
4902551	94	C	03/21/2023	22:06	-131.201	47.846	0	343.10	0	4.5370	0	33.8750	0	26.838	0	339.943	0	70.6	4	22.5	4	-1E+10	1	-1E+10	1	-1E+10	1	-1E+10	1	-1E+10	1	-1E+10	1
4902551	94	C	03/21/2023	22:06	-131.201	47.846	0	344.20	0	4.5320	0	33.8770	0	26.840	0	341.032	0	70.3	4	22.4	4	-1E+10	1	-1E+10	1	-1E+10	1	-1E+10	1	-1E+10	1	-1E+10	1
4902551	94	C	03/21/2023	22:06	-131.201	47.846	0	345.30	0	4.5300	0	33.8770	0	26.840	0	342.121	0	70.1	4	22.3	4	-1E+10	1	-1E+10	1	-1E+10	1	-1E+10	1	-1E+10	1	-1E+10	1
4902551	94	C	03/21/2023	22:06	-131.201	47.846	0	346.30	0	4.5280	0	33.8780	0	26.841	0	343.111	0	69.8	4	22.3	4	-1E+10	1	-1E+10	1	-1E+10	1	-1E+10	1	-1E+10	1	-1E+10	1
4902551	94	C	03/21/2023	22:06	-131.201	47.846	0	347.40	0	4.5260	0	33.8780	0	26.841	0	344.200	0	69.5	4	22.2	4	-1E+10	1	-1E+10	1	-1E+10	1	-1E+10	1	-1E+10	1	-1E+10	1
4902551	94	C	03/21/2023	22:06	-131.201	47.846	0	348.50	0	4.5260	0	33.8770	0	26.840	0	345.289	0	69.1	4	22.0	4	-1E+10	1	-1E+10	1	-1E+10	1	-1E+10	1	-1E+10	1	-1E+10	1
4902551	94	C	03/21/2023	22:06	-131.201	47.846	0	349.90	0	4.5160	0	33.8800	0	26.844	0	346.675	0	68.7	4	21.9	4	-1E+10	1	-1E+10	1	-1E+10	1	-1E+10	1	-1E+10	1	-1E+10	1
4902551	94	C	03/21/2023	22:06	-131.201	47.846	0	353.10	0	4.5050	0	33.8820	0	26.847	0	349.843	0	67.5	4	21.5	4	-1E+10	1	-1E+10	1	-1E+10	1	-1E+10	1	-1E+10	1	-1E+10	1
4902551	94	C	03/21/2023	22:06	-131.201	47.846	0	357.70	0	4.4860	0	33.8870	0	26.853	0	354.397	0	65.8	4	21.0	4	-1E+10	1	-1E+10	1	-1E+10	1	-1E+10	1	-1E+10	1	-1E+10	1
4902551	94	C	03/21/2023	22:06	-131.201	47.846	0	362.60	0	4.4610	0	33.8950	0	26.862	0	359.247	0	63.7	4	20.3	4	-1E+10	1	-1E+10	1	-1E+10	1	-1E+10	1	-1E+10	1	-1E+10	1
4902551	94	C	03/21/2023	22:06	-131.201	47.846	0	367.70	0	4.4310	0	33.9030	0	26.871	0	364.296	0	61.9	4	19.7	4	-1E+10	1	-1E+10	1	-1E+10	1	-1E+10	1	-1E+10	1	-1E+10	1
4902551	94	C	03/21/2023	22:06	-131.201	47.846	0	372.80	0	4.4060	0	33.9120	0	26.881	0	369.344	0	60.3	4	19.2	4	-1E+10	1	-1E+10	1	-1E+10	1	-1E+10	1	-1E+10	1	-1E+10	1
4902551	94	C	03/21/2023	22:06	-131.201	47.846	0	377.90	0	4.3930	0	33.9180	0	26.887	0	374.392	0	59.1	4	18.8	4	-1E+10	1	-1E+10	1	-1E+10	1	-1E+10	1	-1E+10	1	-1E+10	1
4902551	94	C	03/21/2023	22:06	-131.201	47.846	0	383.20	0	4.3820	0	33.9210	0	26.891	0	379.638	0	57.6	4	18.3	4	-1E+10	1	-1E+10	1	-1E+10	1	-1E+10	1	-1E+10	1	-1E+10	1
4902551	94	C	03/21/2023	22:06	-131.201	47.846	0	388.00	0	4.3650	0	33.9350	0	26.904	0	384.389	0	56.2	4	17.9	4	-1E+10	1	-1E+10	1	-1E+10	1	-1E+10	1	-1E+10	1	-1E+10	1
4902551	94	C	03/21/2023	22:06	-131.201	47.846	0	392.90	0	4.3700	0	33.9410	0	26.908	0	389.239	0	55.2	4	17.6	4	-1E+10	1	-1E+10	1	-1E+10	1	-1E+10	1	-1E+10	1	-1E+10	1
4902551	94	C	03/21/2023	22:06	-131.201	47.846	0	397.90	0	4.3710	0	33.9480	0	26.914	0	394.187	0	53.8	4	17.1	4	-1E+10	1	-1E+10	1	-1E+10	1	-1E+10	1	-1E+10	1	-1E+10	1
4902551	94	C	03/21/2023	22:06	-131.201	47.846	0	402.90	0	4.3550	0	33.9560	0	26.922	0	399.136	0	52.9	4	16.8	4	-1E+10	1	-1E+10	1	-1E+10	1	-1E+10	1	-1E+10	1	-1E+10	1
4902551	94	C	03/21/2023	22:06	-131.201	47.846	0	407.90	0	4.3520	0	33.9620	0	26.927	0	404.084	0	51.8	4	16.5	4	-1E+10	1	-1E+10	1	-1E+10	1	-1E+10	1	-1E+10	1	-1E+10	1
4902551	94	C	03/21/2023	22:06	-131.201	47.846	0	413.00	0	4.3510	0	33.9680	0	26.932	0	409.131	0	50.9	4	16.2	4	-1E+10	1	-1E+10	1	-1E+10	1	-1E+10	1	-1E+10	1	-1E+10	1
4902551	94	C	03/21/2023	22:06	-131.201	47.846	0	418.00	0	4.3520	0	33.9730	0	26.936	0	414.080	0	49.9	4	15.9	4	-1E+10	1	-1E+10	1	-1E+10	1	-1E+10	1	-1E+10	1	-1E+10	1
4902551	94	C	03/21/2023	22:06	-131.201	47.846	0	422.90	0	4.3570	0	33.9810	0	26.942	0	418.929	0	48.8	4	15.5	4	-1E+10	1	-1E+10	1	-1E+10	1	-1E+10	1	-1E+10	1	-1E+10	1
4902551	94	C	03/21/2023	22:06	-131.201	47.846	0	428.00	0	4.3570	0	33.9880	0	26.947	0	423.976	0	47.9	4	15.2	4	-1E+10	1	-1E+10	1	-1E+10	1	-1E+10	1	-1E+10	1	-1E+10	1
4902551	94	C	03/21/2023	22:06	-131.201	47.846	0	433.00	0	4.3500	0	33.9910	0	26.950	0	428.923	0	46.9	4	14.9	4	-1E+10	1	-1E+10	1	-1E+10	1	-1E+10	1	-1E+10	1	-1E+10	1
4902551	94	C	03/21/2023	22:06	-131.201	47.846	0	438.10	0	4.3480	0	33.9960	0	26.955	0	433.970	0	45.8	4	14.6	4	-1E+10	1	-1E+10	1	-1E+10	1	-1E+10	1	-1E+10	1	-1E+10	1
4902551	94	C	03/21/2023	22:06	-131.201	47.846	0	442.70	0	4.3490	0	34.0020	0	26.959	0	438.522	0	44.7	4	14.2	4	-1E+10	1	-1E+10	1	-1E+10	1	-1E+10	1	-1E+10	1	-1E+10	1
4902551	94	C	03/21/2023	22:06	-131.201	47.846	0	447.80	0	4.3330	0	34.0090	0	26.967	0	443.568	0	43.5	4	13.8	4	-1E+10	1	-1E+10	1	-1E+10	1	-1E+10	1	-1E+10	1	-1E+10	1
4902551	94	C	03/21/2023	22:06	-131.201	47.846	0	453.00	0	4.3030	0	34.0160	0	26.975	0	448.714	0	42.3	4	13.4	4	-1E+10	1	-1E+10	1	-1E+10	1	-1E+10	1	-1E+10	1	-1E+10	1
4902551	94	C	03/21/2023	22:06	-131.201	47.846	0	457.90	0	4.2810	0	34.0220	0	26.983	0	453.562	0	41.2	4	13.1	4	-1E+10	1	-1E+10	1	-1E+10	1	-1E+10	1	-1E+10	1	-1E+10	1
4902551	94	C	03/21/2023	22:06	-131.201	47.846	0	462.90	0	4.2640	0	34.0290	0	26.990	0	458.509	0	40.1	4	12.7	4	-1E+10	1	-1E+10	1	-1E+10	1	-1E+10	1	-1E+10	1	-1E+10	1
4902551	94	C	03/21/2023	22:06	-131.201	47.846	0	468.00	0	4.2510	0	34.0340	0	26.995	0	463.555	0	39.1	4	12.4	4	-1E+10	1	-1E+10	1	-1E+10	1	-1E+10	1	-1E+10	1	-1E+10	1
4902551	94	C	03/21/2023	22:06	-131.201	47.846	0	473.20	0	4.2400	0	34.0400	0	27.001	0	468.700	0	37.8	4	12.0	4	-1E+10	1	-1E+10	1	-1E+10	1	-1E+10	1	-1E+10	1	-1E+10	1
4902551	94	C	03/21/2023	22:06	-131.201	47.846	0	478.00	0	4.2310	0	34.0460	0	27.007	0	473.449	0	36.7	4	11.6	4	-1E+10	1	-1E+10	1	-1E+10	1	-1E+10	1	-1E+10	1	-1E+10	1
4902551	94	C	03/21/2023	22:06	-131.201	47.846	0	483.00	0	4.2130	0	34.0560	0	27.017	0	478.395	0	35.6	4	11.3	4	-1E+10	1	-1E+10	1	-1E+10	1	-1E+10	1	-1E+10	1	-1E+10	1
4902551	94	C	03/21/2023	22:06	-131.201	47.846	0	488.00	0	4.2030	0	34.0640	0	27.024	0	483.342	0	34.9	4	11.1	4	-1E+10	1	-1E+10	1	-1E+10	1	-1E+10	1	-1E+10	1	-1E+10	1
4902551	94	C	03/21/2023	22:06	-131.201	47.846	0	492.90	0	4.1990	0	34.0670	0	27.027	0	488.189	0	34.2	4	10.8	4	-1E+10	1	-1E+10	1	-1E+10	1	-1E+10	1	-1E+10	1	-1E+10	1
4902551	94	C	03/21/2023	22:06	-131.201	47.846	0	497.70	0	4.1960	0	34.0720	0	27.032	0	492.938	0	33.7	4	10.7	4	-1E+10	1	-1E+10	1	-1E+10	1	-1E+10	1	-1E+10	1	-1E+10	1
4902551	94	C	03/21/2023	22:06	-131.201	47.846	0	502.90	0	4.1940	0	34.0740	0	27.033	0	498.082	0	33.2	4	10.5	4	-1E+10	1	-1E+10	1	-1E+10	1	-1E+10	1	-1E+10	1	-1E+10	1
4902551	94	C	03/21/2023	22:06	-131.201	47.846	0	508.20	0	4.1900	0	34.0770	0	27.036	0	503.324	0	33.0	4	10.4	4	-1E+10	1	-1E+10	1	-1E+10	1	-1E+10	1	-1E+10	1	-1E+10	1
4902551	94	C	03/21/2023	22:06	-131.201	47.846	0	513.10	0	4.1820	0	34.0790	0	27.039	0	508.171	0	32.8	4	10.4	4	-1E+10	1	-1E+10	1	-1E+10	1	-1E+10	1	-1E+10	1	-1E+10	1
4902551	94	C	03/21/2023	22:06	-131.201	47.846	0	518.00	0	4.1720	0	34.0800	0	27.041	0	513.018	0	32.5	4	10.3	4	-1E+10	1	-1E+10	1	-1E+10	1	-1E+10	1	-1E+10	1	-1E+10	1
4902551	94	C	03/21/2023	22:06	-131.201	47.846	0	522.90	0	4.1590	0	34.0820	0	27.044	0	517.865	0	32.1	4	10.2	4	-1E+10	1	-1E+10	1	-1E+10	1	-1E+10	1	-1E+10	1	-1E+10	1
4902551	94	C	03/21/2023	22:06	-131.201	47.846	0	527.90	0	4.1460	0	34.0850	0	27.047	0	522.811	0	31.4	4	9.9	4	-1E+10	1	-1E+10	1	-1E+10	1	-1E+10	1	-1E+10	1	-1E+10	1
4902551	94	C	03/21/2023	22:06	-131.201	47.846	0	532.90	0	4.1280	0	34.0910	0	27.054	0	527.756	0	30.8	4	9.8	4	-1E+10	1	-1E+10	1	-1E+10	1	-1E+10	1	-1E+10	1	-1E+10	1
4902551	94	C	03/21/2023	22:06	-131.201	47.846	0	538.00	0	4.1020	0	34.0960	0	27.061	0	532.800	0	30.4	4	9.6	4	-1E+10	1	-1E+10	1	-1E+10	1	-1E+10	1	-1E+10	1	-1E+10	1
4902551	94	C	03/21/2023	22:06	-131.201	47.846	0	543.00	0	4.0680	0	34.1020	0	27.069	0	537.746	0	30.0	4	9.5	4	-1E+10	1	-1E+10	1	-1E+10	1	-1E+10	1	-1E+10	1	-1E+10	1
4902551	94	C	03/21/2023	22:06	-131.201	47.846	0	548.20	0	4.0570	0	34.1050	0	27.072	0	542.888	0	29.5	4	9.3	4	-1E+10	1	-1E+10	1	-1E+10	1	-1E+10	1	-1E+10	1	-1E+10	1
4902551	94	C	03/21/2023	22:06	-131.201	47.846	0	553.00	0	4.0480	0	34.1080	0	27.076	0	547.636	0	29.0	4	9.2	4	-1E+10	1	-1E+10	1	-1E+10	1	-1E+10	1	-1E+10	1	-1E+10	1
4902551	94	C	03/21/2023	22:06	-131.201	47.846	0	557.80	0	4.0410	0	34.1100	0	27.078	0	552.383	0	28.3	4	8.9	4	-1E+10	1	-1E+10	1	-1E+10	1	-1E+10	1	-1E+10	1	-1E+10	1
4902551	94	C	03/21/2023	22:06	-131.201	47.846	0	562.70	0	4.0240	0	34.1160	0	27.085	0	557.229	0	27.6	4	8.7	4	-1E+10	1	-1E+10	1	-1E+10	1	-1E+10	1	-1E+10	1	-1E+10	1
4902551	94	C	03/21/2023	22:06	-131.201	47.846	0	567.70	0	4.0100	0	34.1200	0	27.089	0	562.173	0	27.0	4	8.5	4	-1E+10	1	-1E+10	1	-1E+10	1	-1E+10	1	-1E+10	1	-1E+10	1
4902551	94	C	03/21/2023	22:06	-131.201	47.846	0	572.70	0	3.9870	0	34.1260	0	27.097	0	567.118	0	26.2	4	8.3	4	-1E+10	1	-1E+10	1	-1E+10	1	-1E+10	1	-1E+10	1	-1E+10	1
4902551	94	C	03/21/2023	22:06	-131.201	47.846	0	577.80	0	3.9610	0	34.1340	0	27.106	0	572.161	0	25.6	4	8.1	4	-1E+10	1	-1E+10	1	-1E+10	1	-1E+10	1	-1E+10	1	-1E+10	1
4902551	94	C	03/21/2023	22:06	-131.201	47.846	0	583.00	0	3.9440	0	34.1400	0	27.112	0	577.303	0	25.1	4	7.9	4	-1E+10	1	-1E+10	1	-1E+10	1	-1E+10	1	-1E+10	1	-1E+10	1
4902551	94	C	03/21/2023	22:06	-131.201	47.846	0	587.80	0	3.9370	0	34.1420	0	27.114	0	582.049	0	24.7	4	7.8	4	-1E+10	1	-1E+10	1	-1E+10	1	-1E+10	1	-1E+10	1	-1E+10	1
4902551	94	C	03/21/2023	22:06	-131.201	47.846	0	592.60	0	3.9260	0	34.1460	0	27.119	0	586.796	0	24.2	4	7.6	4	-1E+10	1	-1E+10	1	-1E+10	1	-1E+10	1	-1E+10	1	-1E+10	1
4902551	94	C	03/21/2023	22:06	-131.201	47.846	0	597.50	0	3.9090	0	34.1520	0	27.125	0	591.641	0	23.7	4	7.5	4	-1E+10	1	-1E+10	1	-1E+10	1	-1E+10	1	-1E+10	1	-1E+10	1
4902551	94	C	03/21/2023	22:06	-131.201	47.846	0	602.90	0	3.8960	0	34.1560	0	27.130	0	596.980	0	23.4	4	7.4	4	-1E+10	1	-1E+10	1	-1E+10	1	-1E+10	1	-1E+10	1	-1E+10	1
4902551	94	C	03/21/2023	22:06	-131.201	47.846	0	608.00	0	3.8860	0	34.1590	0	27.133	0	602.023	0	23.0	4	7.3	4	-1E+10	1	-1E+10	1	-1E+10	1	-1E+10	1	-1E+10	1	-1E+10	1
4902551	94	C	03/21/2023	22:06	-131.201	47.846	0	612.70	0	3.8770	0	34.1620	0	27.137	0	606.670	0	22.7	4	7.2	4	-1E+10	1	-1E+10	1	-1E+10	1	-1E+10	1	-1E+10	1	-1E+10	1
4902551	94	C	03/21/2023	22:06	-131.201	47.846	0	618.00	0	3.8650	0	34.1650	0	27.140	0	611.910	0	22.4	4	7.1	4	-1E+10	1	-1E+10	1	-1E+10	1	-1E+10	1	-1E+10	1	-1E+10	1
4902551	94	C	03/21/2023	22:06	-131.201	47.846	0	622.80	0	3.8550	0	34.1680	0	27.144	0	616.655	0	22.2	4	7.0	4	-1E+10	1	-1E+10	1	-1E+10	1	-1E+10	1	-1E+10	1	-1E+10	1
4902551	94	C	03/21/2023	22:06	-131.201	47.846	0	627.70	0	3.8460	0	34.1710	0	27.147	0	621.499	0	21.9	4	6.9	4	-1E+10	1	-1E+10	1	-1E+10	1	-1E+10	1	-1E+10	1	-1E+10	1
4902551	94	C	03/21/2023	22:06	-131.201	47.846	0	633.20	0	3.8420	0	34.1720	0	27.148	0	626.937	0	21.5	4	6.8	4	-1E+10	1	-1E+10	1	-1E+10	1	-1E+10	1	-1E+10	1	-1E+10	1
4902551	94	C	03/21/2023	22:06	-131.201	47.846	0	638.20	0	3.8270	0	34.1760	0	27.153	0	631.880	0	21.2	4	6.7	4	-1E+10	1	-1E+10	1	-1E+10	1	-1E+10	1	-1E+10	1	-1E+10	1
4902551	94	C	03/21/2023	22:06	-131.201	47.846	0	643.20	0	3.8120	0	34.1810	0	27.158	0	636.823	0	21.0	4	6.6	4	-1E+10	1	-1E+10	1	-1E+10	1	-1E+10	1	-1E+10	1	-1E+10	1
4902551	94	C	03/21/2023	22:06	-131.201	47.846	0	648.30	0	3.8070	0	34.1820	0	27.160	0	641.864	0	20.9	4	6.6	4	-1E+10	1	-1E+10	1	-1E+10	1	-1E+10	1	-1E+10	1	-1E+10	1
4902551	94	C	03/21/2023	22:06	-131.201	47.846	0	652.90	0	3.8040	0	34.1840	0	27.162	0	646.411	0	20.6	4	6.5	4	-1E+10	1	-1E+10	1	-1E+10	1	-1E+10	1	-1E+10	1	-1E+10	1
4902551	94	C	03/21/2023	22:06	-131.201	47.846	0	657.80	0	3.7940	0	34.1860	0	27.164	0	651.255	0	20.4	4	6.4	4	-1E+10	1	-1E+10	1	-1E+10	1	-1E+10	1	-1E+10	1	-1E+10	1
4902551	94	C	03/21/2023	22:06	-131.201	47.846	0	662.60	0	3.7810	0	34.1900	0	27.169	0	656.000	0	20.0	4	6.3	4	-1E+10	1	-1E+10	1	-1E+10	1	-1E+10	1	-1E+10	1	-1E+10	1
4902551	94	C	03/21/2023	22:06	-131.201	47.846	0	667.90	0	3.7650	0	34.1940	0	27.174	0	661.239	0	19.8	4	6.2	4	-1E+10	1	-1E+10	1	-1E+10	1	-1E+10	1	-1E+10	1	-1E+10	1
4902551	94	C	03/21/2023	22:06	-131.201	47.846	0	673.20	0	3.7550	0	34.1970	0	27.177	0	666.477	0	19.5	4	6.1	4	-1E+10	1	-1E+10	1	-1E+10	1	-1E+10	1	-1E+10	1	-1E+10	1
4902551	94	C	03/21/2023	22:06	-131.201	47.846	0	678.20	0	3.7460	0	34.2000	0	27.180	0	671.419	0	19.3	4	6.0	4	-1E+10	1	-1E+10	1	-1E+10	1	-1E+10	1	-1E+10	1	-1E+10	1
4902551	94	C	03/21/2023	22:06	-131.201	47.846	0	683.20	0	3.7340	0	34.2030	0	27.184	0	676.361	0	19.0	4	6.0	4	-1E+10	1	-1E+10	1	-1E+10	1	-1E+10	1	-1E+10	1	-1E+10	1
4902551	94	C	03/21/2023	22:06	-131.201	47.846	0	688.20	0	3.7220	0	34.2060	0	27.188	0	681.303	0	18.7	4	5.9	4	-1E+10	1	-1E+10	1	-1E+10	1	-1E+10	1	-1E+10	1	-1E+10	1
4902551	94	C	03/21/2023	22:06	-131.201	47.846	0	693.30	0	3.7050	0	34.2110	0	27.193	0	686.343	0	18.4	4	5.8	4	-1E+10	1	-1E+10	1	-1E+10	1	-1E+10	1	-1E+10	1	-1E+10	1
4902551	94	C	03/21/2023	22:06	-131.201	47.846	0	697.90	0	3.6920	0	34.2150	0	27.198	0	690.890	0	18.2	4	5.7	4	-1E+10	1	-1E+10	1	-1E+10	1	-1E+10	1	-1E+10	1	-1E+10	1
4902551	94	C	03/21/2023	22:06	-131.201	47.846	0	702.60	0	3.6790	0	34.2180	0	27.201	0	695.535	0	18.0	4	5.6	4	-1E+10	1	-1E+10	1	-1E+10	1	-1E+10	1	-1E+10	1	-1E+10	1
4902551	94	C	03/21/2023	22:06	-131.201	47.846	0	707.70	0	3.6690	0	34.2200	0	27.204	0	700.575	0	17.8	4	5.6	4	-1E+10	1	-1E+10	1	-1E+10	1	-1E+10	1	-1E+10	1	-1E+10	1
4902551	94	C	03/21/2023	22:06	-131.201	47.846	0	712.90	0	3.6620	0	34.2230	0	27.207	0	705.714	0	17.7	4	5.5	4	-1E+10	1	-1E+10	1	-1E+10	1	-1E+10	1	-1E+10	1	-1E+10	1
4902551	94	C	03/21/2023	22:06	-131.201	47.846	0	718.00	0	3.6550	0	34.2250	0	27.209	0	710.754	0	17.4	4	5.5	4	-1E+10	1	-1E+10	1	-1E+10	1	-1E+10	1	-1E+10	1	-1E+10	1
4902551	94	C	03/21/2023	22:06	-131.201	47.846	0	722.80	0	3.6450	0	34.2270	0	27.212	0	715.497	0	17.2	4	5.4	4	-1E+10	1	-1E+10	1	-1E+10	1	-1E+10	1	-1E+10	1	-1E+10	1
4902551	94	C	03/21/2023	22:06	-131.201	47.846	0	727.70	0	3.6320	0	34.2300	0	27.216	0	720.339	0	16.9	4	5.3	4	-1E+10	1	-1E+10	1	-1E+10	1	-1E+10	1	-1E+10	1	-1E+10	1
4902551	94	C	03/21/2023	22:06	-131.201	47.846	0	733.00	0	3.6120	0	34.2360	0	27.223	0	725.576	0	16.6	4	5.2	4	-1E+10	1	-1E+10	1	-1E+10	1	-1E+10	1	-1E+10	1	-1E+10	1
4902551	94	C	03/21/2023	22:06	-131.201	47.846	0	737.90	0	3.5990	0	34.2390	0	27.226	0	730.418	0	16.5	4	5.2	4	-1E+10	1	-1E+10	1	-1E+10	1	-1E+10	1	-1E+10	1	-1E+10	1
4902551	94	C	03/21/2023	22:06	-131.201	47.846	0	742.80	0	3.5950	0	34.2400	0	27.227	0	735.260	0	16.3	4	5.1	4	-1E+10	1	-1E+10	1	-1E+10	1	-1E+10	1	-1E+10	1	-1E+10	1
4902551	94	C	03/21/2023	22:06	-131.201	47.846	0	747.80	0	3.5870	0	34.2430	0	27.231	0	740.200	0	16.2	4	5.1	4	-1E+10	1	-1E+10	1	-1E+10	1	-1E+10	1	-1E+10	1	-1E+10	1
4902551	94	C	03/21/2023	22:06	-131.201	47.846	0	752.70	0	3.5770	0	34.2450	0	27.233	0	745.041	0	16.0	4	5.0	4	-1E+10	1	-1E+10	1	-1E+10	1	-1E+10	1	-1E+10	1	-1E+10	1
4902551	94	C	03/21/2023	22:06	-131.201	47.846	0	757.70	0	3.5720	0	34.2470	0	27.235	0	749.982	0	15.7	4	4.9	4	-1E+10	1	-1E+10	1	-1E+10	1	-1E+10	1	-1E+10	1	-1E+10	1
4902551	94	C	03/21/2023	22:06	-131.201	47.846	0	762.80	0	3.5500	0	34.2520	0	27.241	0	755.020	0	15.5	4	4.8	4	-1E+10	1	-1E+10	1	-1E+10	1	-1E+10	1	-1E+10	1	-1E+10	1
4902551	94	C	03/21/2023	22:06	-131.201	47.846	0	768.00	0	3.5410	0	34.2550	0	27.245	0	760.158	0	15.4	4	4.8	4	-1E+10	1	-1E+10	1	-1E+10	1	-1E+10	1	-1E+10	1	-1E+10	1
4902551	94	C	03/21/2023	22:06	-131.201	47.846	0	772.60	0	3.5350	0	34.2570	0	27.247	0	764.702	0	15.3	4	4.8	4	-1E+10	1	-1E+10	1	-1E+10	1	-1E+10	1	-1E+10	1	-1E+10	1
4902551	94	C	03/21/2023	22:06	-131.201	47.846	0	777.80	0	3.5260	0	34.2590	0	27.249	0	769.840	0	15.1	4	4.7	4	-1E+10	1	-1E+10	1	-1E+10	1	-1E+10	1	-1E+10	1	-1E+10	1
4902551	94	C	03/21/2023	22:06	-131.201	47.846	0	783.00	0	3.5170	0	34.2610	0	27.252	0	774.977	0	14.9	4	4.7	4	-1E+10	1	-1E+10	1	-1E+10	1	-1E+10	1	-1E+10	1	-1E+10	1
4902551	94	C	03/21/2023	22:06	-131.201	47.846	0	788.00	0	3.5070	0	34.2640	0	27.255	0	779.916	0	14.8	4	4.6	4	-1E+10	1	-1E+10	1	-1E+10	1	-1E+10	1	-1E+10	1	-1E+10	1
4902551	94	C	03/21/2023	22:06	-131.201	47.846	0	792.90	0	3.5010	0	34.2650	0	27.257	0	784.757	0	14.7	4	4.6	4	-1E+10	1	-1E+10	1	-1E+10	1	-1E+10	1	-1E+10	1	-1E+10	1
4902551	94	C	03/21/2023	22:06	-131.201	47.846	0	797.80	0	3.4940	0	34.2670	0	27.259	0	789.597	0	14.7	4	4.6	4	-1E+10	1	-1E+10	1	-1E+10	1	-1E+10	1	-1E+10	1	-1E+10	1
4902551	94	C	03/21/2023	22:06	-131.201	47.846	0	802.70	0	3.4900	0	34.2680	0	27.260	0	794.438	0	14.6	4	4.5	4	-1E+10	1	-1E+10	1	-1E+10	1	-1E+10	1	-1E+10	1	-1E+10	1
4902551	94	C	03/21/2023	22:06	-131.201	47.846	0	807.60	0	3.4840	0	34.2690	0	27.262	0	799.278	0	14.4	4	4.5	4	-1E+10	1	-1E+10	1	-1E+10	1	-1E+10	1	-1E+10	1	-1E+10	1
4902551	94	C	03/21/2023	22:06	-131.201	47.846	0	812.50	0	3.4700	0	34.2730	0	27.266	0	804.118	0	14.3	4	4.5	4	-1E+10	1	-1E+10	1	-1E+10	1	-1E+10	1	-1E+10	1	-1E+10	1
4902551	94	C	03/21/2023	22:06	-131.201	47.846	0	817.40	0	3.4590	0	34.2760	0	27.270	0	808.958	0	14.2	4	4.4	4	-1E+10	1	-1E+10	1	-1E+10	1	-1E+10	1	-1E+10	1	-1E+10	1
4902551	94	C	03/21/2023	22:06	-131.201	47.846	0	822.50	0	3.4570	0	34.2770	0	27.271	0	813.995	0	14.1	4	4.4	4	-1E+10	1	-1E+10	1	-1E+10	1	-1E+10	1	-1E+10	1	-1E+10	1
4902551	94	C	03/21/2023	22:06	-131.201	47.846	0	827.60	0	3.4480	0	34.2790	0	27.273	0	819.032	0	14.0	4	4.4	4	-1E+10	1	-1E+10	1	-1E+10	1	-1E+10	1	-1E+10	1	-1E+10	1
4902551	94	C	03/21/2023	22:06	-131.201	47.846	0	832.80	0	3.4450	0	34.2800	0	27.274	0	824.168	0	13.8	4	4.3	4	-1E+10	1	-1E+10	1	-1E+10	1	-1E+10	1	-1E+10	1	-1E+10	1
4902551	94	C	03/21/2023	22:06	-131.201	47.846	0	838.00	0	3.4350	0	34.2820	0	27.277	0	829.304	0	13.7	4	4.3	4	-1E+10	1	-1E+10	1	-1E+10	1	-1E+10	1	-1E+10	1	-1E+10	1
4902551	94	C	03/21/2023	22:06	-131.201	47.846	0	843.20	0	3.4230	0	34.2860	0	27.281	0	834.440	0	13.6	4	4.2	4	-1E+10	1	-1E+10	1	-1E+10	1	-1E+10	1	-1E+10	1	-1E+10	1
4902551	94	C	03/21/2023	22:06	-131.201	47.846	0	847.90	0	3.4160	0	34.2870	0	27.283	0	839.082	0	13.5	4	4.2	4	-1E+10	1	-1E+10	1	-1E+10	1	-1E+10	1	-1E+10	1	-1E+10	1
4902551	94	C	03/21/2023	22:06	-131.201	47.846	0	852.50	0	3.4050	0	34.2900	0	27.286	0	843.624	0	13.3	4	4.1	4	-1E+10	1	-1E+10	1	-1E+10	1	-1E+10	1	-1E+10	1	-1E+10	1
4902551	94	C	03/21/2023	22:06	-131.201	47.846	0	857.70	0	3.3880	0	34.2950	0	27.292	0	848.760	0	13.2	4	4.1	4	-1E+10	1	-1E+10	1	-1E+10	1	-1E+10	1	-1E+10	1	-1E+10	1
4902551	94	C	03/21/2023	22:06	-131.201	47.846	0	863.00	0	3.3760	0	34.2980	0	27.295	0	853.994	0	13.0	4	4.1	4	-1E+10	1	-1E+10	1	-1E+10	1	-1E+10	1	-1E+10	1	-1E+10	1
4902551	94	C	03/21/2023	22:06	-131.201	47.846	0	868.30	0	3.3610	0	34.3010	0	27.299	0	859.228	0	12.9	4	4.0	4	-1E+10	1	-1E+10	1	-1E+10	1	-1E+10	1	-1E+10	1	-1E+10	1
4902551	94	C	03/21/2023	22:06	-131.201	47.846	0	873.00	0	3.3490	0	34.3050	0	27.304	0	863.869	0	12.8	4	4.0	4	-1E+10	1	-1E+10	1	-1E+10	1	-1E+10	1	-1E+10	1	-1E+10	1
4902551	94	C	03/21/2023	22:06	-131.201	47.846	0	877.70	0	3.3360	0	34.3070	0	27.306	0	868.510	0	12.7	4	3.9	4	-1E+10	1	-1E+10	1	-1E+10	1	-1E+10	1	-1E+10	1	-1E+10	1
4902551	94	C	03/21/2023	22:06	-131.201	47.846	0	883.00	0	3.3200	0	34.3120	0	27.312	0	873.743	0	12.6	4	3.9	4	-1E+10	1	-1E+10	1	-1E+10	1	-1E+10	1	-1E+10	1	-1E+10	1
4902551	94	C	03/21/2023	22:06	-131.201	47.846	0	887.80	0	3.3060	0	34.3150	0	27.316	0	878.483	0	12.5	4	3.9	4	-1E+10	1	-1E+10	1	-1E+10	1	-1E+10	1	-1E+10	1	-1E+10	1
4902551	94	C	03/21/2023	22:06	-131.201	47.846	0	893.00	0	3.2910	0	34.3190	0	27.320	0	883.617	0	12.4	4	3.9	4	-1E+10	1	-1E+10	1	-1E+10	1	-1E+10	1	-1E+10	1	-1E+10	1
4902551	94	C	03/21/2023	22:06	-131.201	47.846	0	898.30	0	3.2850	0	34.3200	0	27.322	0	888.850	0	12.3	4	3.8	4	-1E+10	1	-1E+10	1	-1E+10	1	-1E+10	1	-1E+10	1	-1E+10	1
4902551	94	C	03/21/2023	22:06	-131.201	47.846	0	903.20	0	3.2760	0	34.3230	0	27.325	0	893.688	0	12.3	4	3.8	4	-1E+10	1	-1E+10	1	-1E+10	1	-1E+10	1	-1E+10	1	-1E+10	1
4902551	94	C	03/21/2023	22:06	-131.201	47.846	0	908.30	0	3.2630	0	34.3260	0	27.329	0	898.724	0	12.2	4	3.8	4	-1E+10	1	-1E+10	1	-1E+10	1	-1E+10	1	-1E+10	1	-1E+10	1
4902551	94	C	03/21/2023	22:06	-131.201	47.846	0	913.30	0	3.2470	0	34.3300	0	27.333	0	903.660	0	12.1	4	3.8	4	-1E+10	1	-1E+10	1	-1E+10	1	-1E+10	1	-1E+10	1	-1E+10	1
4902551	94	C	03/21/2023	22:06	-131.201	47.846	0	917.90	0	3.2390	0	34.3320	0	27.336	0	908.202	0	12.0	4	3.7	4	-1E+10	1	-1E+10	1	-1E+10	1	-1E+10	1	-1E+10	1	-1E+10	1
4902551	94	C	03/21/2023	22:06	-131.201	47.846	0	922.60	0	3.2330	0	34.3340	0	27.338	0	912.842	0	12.0	4	3.7	4	-1E+10	1	-1E+10	1	-1E+10	1	-1E+10	1	-1E+10	1	-1E+10	1
4902551	94	C	03/21/2023	22:06	-131.201	47.846	0	927.80	0	3.2230	0	34.3380	0	27.342	0	917.975	0	11.9	4	3.7	4	-1E+10	1	-1E+10	1	-1E+10	1	-1E+10	1	-1E+10	1	-1E+10	1
4902551	94	C	03/21/2023	22:06	-131.201	47.846	0	933.00	0	3.2140	0	34.3410	0	27.345	0	923.109	0	11.8	4	3.7	4	-1E+10	1	-1E+10	1	-1E+10	1	-1E+10	1	-1E+10	1	-1E+10	1
4902551	94	C	03/21/2023	22:06	-131.201	47.846	0	937.90	0	3.2010	0	34.3440	0	27.349	0	927.946	0	11.7	4	3.6	4	-1E+10	1	-1E+10	1	-1E+10	1	-1E+10	1	-1E+10	1	-1E+10	1
4902551	94	C	03/21/2023	22:06	-131.201	47.846	0	942.80	0	3.1890	0	34.3480	0	27.353	0	932.783	0	11.7	4	3.6	4	-1E+10	1	-1E+10	1	-1E+10	1	-1E+10	1	-1E+10	1	-1E+10	1
4902551	94	C	03/21/2023	22:06	-131.201	47.846	0	947.80	0	3.1840	0	34.3490	0	27.355	0	937.719	0	11.7	4	3.6	4	-1E+10	1	-1E+10	1	-1E+10	1	-1E+10	1	-1E+10	1	-1E+10	1
4902551	94	C	03/21/2023	22:06	-131.201	47.846	0	952.90	0	3.1820	0	34.3500	0	27.356	0	942.753	0	11.7	4	3.6	4	-1E+10	1	-1E+10	1	-1E+10	1	-1E+10	1	-1E+10	1	-1E+10	1
4902551	94	C	03/21/2023	22:06	-131.201	47.846	0	958.00	0	3.1740	0	34.3520	0	27.358	0	947.787	0	11.7	4	3.6	4	-1E+10	1	-1E+10	1	-1E+10	1	-1E+10	1	-1E+10	1	-1E+10	1
4902551	94	C	03/21/2023	22:06	-131.201	47.846	0	962.60	0	3.1650	0	34.3530	0	27.360	0	952.328	0	11.7	4	3.6	4	-1E+10	1	-1E+10	1	-1E+10	1	-1E+10	1	-1E+10	1	-1E+10	1
4902551	94	C	03/21/2023	22:06	-131.201	47.846	0	967.80	0	3.1530	0	34.3560	0	27.363	0	957.460	0	11.7	4	3.6	4	-1E+10	1	-1E+10	1	-1E+10	1	-1E+10	1	-1E+10	1	-1E+10	1
4902551	94	C	03/21/2023	22:06	-131.201	47.846	0	973.10	0	3.1450	0	34.3580	0	27.365	0	962.692	0	11.7	4	3.6	4	-1E+10	1	-1E+10	1	-1E+10	1	-1E+10	1	-1E+10	1	-1E+10	1
4902551	94	C	03/21/2023	22:06	-131.201	47.846	0	977.90	0	3.1430	0	34.3590	0	27.367	0	967.429	0	11.6	4	3.6	4	-1E+10	1	-1E+10	1	-1E+10	1	-1E+10	1	-1E+10	1	-1E+10	1
4902551	94	C	03/21/2023	22:06	-131.201	47.846	0	982.70	0	3.1330	0	34.3610	0	27.369	0	972.167	0	11.6	4	3.6	4	-1E+10	1	-1E+10	1	-1E+10	1	-1E+10	1	-1E+10	1	-1E+10	1
4902551	94	C	03/21/2023	22:06	-131.201	47.846	0	987.60	0	3.1260	0	34.3640	0	27.372	0	977.003	0	11.6	4	3.6	4	-1E+10	1	-1E+10	1	-1E+10	1	-1E+10	1	-1E+10	1	-1E+10	1
4902551	94	C	03/21/2023	22:06	-131.201	47.846	0	992.50	0	3.1240	0	34.3640	0	27.372	0	981.839	0	11.6	4	3.6	4	-1E+10	1	-1E+10	1	-1E+10	1	-1E+10	1	-1E+10	1	-1E+10	1
4902551	94	C	03/21/2023	22:06	-131.201	47.846	0	997.90	0	3.1170	0	34.3660	0	27.375	0	987.168	0	11.6	4	3.6	4	-1E+10	1	-1E+10	1	-1E+10	1	-1E+10	1	-1E+10	1	-1E+10	1
4902551	94	C	03/21/2023	22:06	-131.201	47.846	0	1005.80	0	3.1060	0	34.3680	0	27.377	0	994.964	0	11.6	4	3.6	4	-1E+10	1	-1E+10	1	-1E+10	1	-1E+10	1	-1E+10	1	-1E+10	1
4902551	94	C	03/21/2023	22:06	-131.201	47.846	0	1015.70	0	3.0930	0	34.3720	0	27.382	0	1004.734	0	11.6	4	3.6	4	-1E+10	1	-1E+10	1	-1E+10	1	-1E+10	1	-1E+10	1	-1E+10	1
4902551	94	C	03/21/2023	22:06	-131.201	47.846	0	1025.60	0	3.0890	0	34.3730	0	27.383	0	1014.503	0	11.7	4	3.6	4	-1E+10	1	-1E+10	1	-1E+10	1	-1E+10	1	-1E+10	1	-1E+10	1
4902551	94	C	03/21/2023	22:06	-131.201	47.846	0	1035.70	0	3.0760	0	34.3750	0	27.386	0	1024.469	0	11.7	4	3.6	4	-1E+10	1	-1E+10	1	-1E+10	1	-1E+10	1	-1E+10	1	-1E+10	1
4902551	94	C	03/21/2023	22:06	-131.201	47.846	0	1045.90	0	3.0500	0	34.3810	0	27.393	0	1034.533	0	11.8	4	3.6	4	-1E+10	1	-1E+10	1	-1E+10	1	-1E+10	1	-1E+10	1	-1E+10	1
4902551	94	C	03/21/2023	22:06	-131.201	47.846	0	1055.30	0	3.0340	0	34.3840	0	27.397	0	1043.808	0	11.8	4	3.7	4	-1E+10	1	-1E+10	1	-1E+10	1	-1E+10	1	-1E+10	1	-1E+10	1
4902551	94	C	03/21/2023	22:06	-131.201	47.846	0	1065.20	0	3.0110	0	34.3880	0	27.402	0	1053.575	0	11.9	4	3.7	4	-1E+10	1	-1E+10	1	-1E+10	1	-1E+10	1	-1E+10	1	-1E+10	1
4902551	94	C	03/21/2023	22:06	-131.201	47.846	0	1075.20	0	2.9960	0	34.3910	0	27.406	0	1063.441	0	12.0	4	3.7	4	-1E+10	1	-1E+10	1	-1E+10	1	-1E+10	1	-1E+10	1	-1E+10	1
4902551	94	C	03/21/2023	22:06	-131.201	47.846	0	1085.20	0	2.9800	0	34.3930	0	27.409	0	1073.306	0	12.1	4	3.7	4	-1E+10	1	-1E+10	1	-1E+10	1	-1E+10	1	-1E+10	1	-1E+10	1
4902551	94	C	03/21/2023	22:06	-131.201	47.846	0	1095.00	0	2.9650	0	34.3970	0	27.414	0	1082.973	0	12.1	4	3.7	4	-1E+10	1	-1E+10	1	-1E+10	1	-1E+10	1	-1E+10	1	-1E+10	1
4902551	94	C	03/21/2023	22:06	-131.201	47.846	0	1105.30	0	2.9510	0	34.3990	0	27.417	0	1093.133	0	12.2	4	3.8	4	-1E+10	1	-1E+10	1	-1E+10	1	-1E+10	1	-1E+10	1	-1E+10	1
4902551	94	C	03/21/2023	22:06	-131.201	47.846	0	1115.20	0	2.9450	0	34.4000	0	27.418	0	1102.898	0	12.3	4	3.8	4	-1E+10	1	-1E+10	1	-1E+10	1	-1E+10	1	-1E+10	1	-1E+10	1
4902551	94	C	03/21/2023	22:06	-131.201	47.846	0	1125.10	0	2.9290	0	34.4030	0	27.422	0	1112.663	0	12.4	4	3.8	4	-1E+10	1	-1E+10	1	-1E+10	1	-1E+10	1	-1E+10	1	-1E+10	1
4902551	94	C	03/21/2023	22:06	-131.201	47.846	0	1135.40	0	2.9070	0	34.4070	0	27.427	0	1122.821	0	12.5	4	3.9	4	-1E+10	1	-1E+10	1	-1E+10	1	-1E+10	1	-1E+10	1	-1E+10	1
4902551	94	C	03/21/2023	22:06	-131.201	47.846	0	1145.40	0	2.8840	0	34.4090	0	27.431	0	1132.684	0	12.6	4	3.9	4	-1E+10	1	-1E+10	1	-1E+10	1	-1E+10	1	-1E+10	1	-1E+10	1
4902551	94	C	03/21/2023	22:06	-131.201	47.846	0	1155.50	0	2.8670	0	34.4120	0	27.435	0	1142.644	0	12.7	4	3.9	4	-1E+10	1	-1E+10	1	-1E+10	1	-1E+10	1	-1E+10	1	-1E+10	1
4902551	94	C	03/21/2023	22:06	-131.201	47.846	0	1165.30	0	2.8610	0	34.4130	0	27.436	0	1152.308	0	12.7	4	3.9	4	-1E+10	1	-1E+10	1	-1E+10	1	-1E+10	1	-1E+10	1	-1E+10	1
4902551	94	C	03/21/2023	22:06	-131.201	47.846	0	1175.50	0	2.8530	0	34.4140	0	27.438	0	1162.366	0	12.8	4	3.9	4	-1E+10	1	-1E+10	1	-1E+10	1	-1E+10	1	-1E+10	1	-1E+10	1
4902551	94	C	03/21/2023	22:06	-131.201	47.846	0	1185.80	0	2.8480	0	34.4150	0	27.439	0	1172.522	0	12.9	4	4.0	4	-1E+10	1	-1E+10	1	-1E+10	1	-1E+10	1	-1E+10	1	-1E+10	1
4902551	94	C	03/21/2023	22:06	-131.201	47.846	0	1195.70	0	2.8320	0	34.4180	0	27.443	0	1182.284	0	13.0	4	4.0	4	-1E+10	1	-1E+10	1	-1E+10	1	-1E+10	1	-1E+10	1	-1E+10	1
4902551	94	C	03/21/2023	22:06	-131.201	47.846	0	1205.60	0	2.8190	0	34.4200	0	27.446	0	1192.045	0	13.1	4	4.0	4	-1E+10	1	-1E+10	1	-1E+10	1	-1E+10	1	-1E+10	1	-1E+10	1
4902551	94	C	03/21/2023	22:06	-131.201	47.846	0	1215.40	0	2.8060	0	34.4220	0	27.448	0	1201.706	0	13.2	4	4.1	4	-1E+10	1	-1E+10	1	-1E+10	1	-1E+10	1	-1E+10	1	-1E+10	1
4902551	94	C	03/21/2023	22:06	-131.201	47.846	0	1225.10	0	2.7900	0	34.4250	0	27.452	0	1211.269	0	13.4	4	4.1	4	-1E+10	1	-1E+10	1	-1E+10	1	-1E+10	1	-1E+10	1	-1E+10	1
4902551	94	C	03/21/2023	22:06	-131.201	47.846	0	1235.20	0	2.7790	0	34.4270	0	27.455	0	1221.226	0	13.6	4	4.2	4	-1E+10	1	-1E+10	1	-1E+10	1	-1E+10	1	-1E+10	1	-1E+10	1
4902551	94	C	03/21/2023	22:06	-131.201	47.846	0	1245.30	0	2.7520	0	34.4320	0	27.461	0	1231.182	0	13.9	4	4.3	4	-1E+10	1	-1E+10	1	-1E+10	1	-1E+10	1	-1E+10	1	-1E+10	1
4902551	94	C	03/21/2023	22:06	-131.201	47.846	0	1255.30	0	2.7370	0	34.4350	0	27.465	0	1241.039	0	14.1	4	4.3	4	-1E+10	1	-1E+10	1	-1E+10	1	-1E+10	1	-1E+10	1	-1E+10	1
4902551	94	C	03/21/2023	22:06	-131.201	47.846	0	1265.40	0	2.7230	0	34.4380	0	27.469	0	1250.995	0	14.4	4	4.4	4	-1E+10	1	-1E+10	1	-1E+10	1	-1E+10	1	-1E+10	1	-1E+10	1
4902551	94	C	03/21/2023	22:06	-131.201	47.846	0	1275.20	0	2.7080	0	34.4410	0	27.473	0	1260.654	0	14.6	4	4.5	4	-1E+10	1	-1E+10	1	-1E+10	1	-1E+10	1	-1E+10	1	-1E+10	1
4902551	94	C	03/21/2023	22:06	-131.201	47.846	0	1285.20	0	2.7010	0	34.4440	0	27.476	0	1270.509	0	14.9	4	4.6	4	-1E+10	1	-1E+10	1	-1E+10	1	-1E+10	1	-1E+10	1	-1E+10	1
4902551	94	C	03/21/2023	22:06	-131.201	47.846	0	1295.30	0	2.6910	0	34.4460	0	27.478	0	1280.463	0	15.1	4	4.6	4	-1E+10	1	-1E+10	1	-1E+10	1	-1E+10	1	-1E+10	1	-1E+10	1
4902551	94	C	03/21/2023	22:06	-131.201	47.846	0	1305.50	0	2.6750	0	34.4480	0	27.481	0	1290.515	0	15.3	4	4.7	4	-1E+10	1	-1E+10	1	-1E+10	1	-1E+10	1	-1E+10	1	-1E+10	1
4902551	94	C	03/21/2023	22:06	-131.201	47.846	0	1315.90	0	2.6540	0	34.4510	0	27.485	0	1300.764	0	15.6	4	4.8	4	-1E+10	1	-1E+10	1	-1E+10	1	-1E+10	1	-1E+10	1	-1E+10	1
4902551	94	C	03/21/2023	22:06	-131.201	47.846	0	1325.90	0	2.6400	0	34.4530	0	27.488	0	1310.618	0	15.8	4	4.8	4	-1E+10	1	-1E+10	1	-1E+10	1	-1E+10	1	-1E+10	1	-1E+10	1
4902551	94	C	03/21/2023	22:06	-131.201	47.846	0	1335.50	0	2.6340	0	34.4550	0	27.490	0	1320.077	0	16.1	4	4.9	4	-1E+10	1	-1E+10	1	-1E+10	1	-1E+10	1	-1E+10	1	-1E+10	1
4902551	94	C	03/21/2023	22:06	-131.201	47.846	0	1345.60	0	2.6200	0	34.4580	0	27.494	0	1330.028	0	16.6	4	5.1	4	-1E+10	1	-1E+10	1	-1E+10	1	-1E+10	1	-1E+10	1	-1E+10	1
4902551	94	C	03/21/2023	22:06	-131.201	47.846	0	1355.30	0	2.6050	0	34.4630	0	27.499	0	1339.585	0	17.1	4	5.2	4	-1E+10	1	-1E+10	1	-1E+10	1	-1E+10	1	-1E+10	1	-1E+10	1
4902551	94	C	03/21/2023	22:06	-131.201	47.846	0	1365.20	0	2.5900	0	34.4660	0	27.503	0	1349.339	0	17.4	4	5.3	4	-1E+10	1	-1E+10	1	-1E+10	1	-1E+10	1	-1E+10	1	-1E+10	1
4902551	94	C	03/21/2023	22:06	-131.201	47.846	0	1375.20	0	2.5760	0	34.4680	0	27.506	0	1359.191	0	17.8	4	5.4	4	-1E+10	1	-1E+10	1	-1E+10	1	-1E+10	1	-1E+10	1	-1E+10	1
4902551	94	C	03/21/2023	22:06	-131.201	47.846	0	1385.20	0	2.5620	0	34.4700	0	27.509	0	1369.042	0	18.2	4	5.6	4	-1E+10	1	-1E+10	1	-1E+10	1	-1E+10	1	-1E+10	1	-1E+10	1
4902551	94	C	03/21/2023	22:06	-131.201	47.846	0	1395.50	0	2.5420	0	34.4730	0	27.513	0	1379.188	0	18.8	4	5.7	4	-1E+10	1	-1E+10	1	-1E+10	1	-1E+10	1	-1E+10	1	-1E+10	1
4902551	94	C	03/21/2023	22:06	-131.201	47.846	0	1405.50	0	2.5130	0	34.4780	0	27.519	0	1389.038	0	19.4	4	5.9	4	-1E+10	1	-1E+10	1	-1E+10	1	-1E+10	1	-1E+10	1	-1E+10	1
4902551	94	C	03/21/2023	22:06	-131.201	47.846	0	1415.20	0	2.4990	0	34.4800	0	27.522	0	1398.592	0	19.9	4	6.1	4	-1E+10	1	-1E+10	1	-1E+10	1	-1E+10	1	-1E+10	1	-1E+10	1
4902551	94	C	03/21/2023	22:06	-131.201	47.846	0	1425.00	0	2.4870	0	34.4840	0	27.527	0	1408.245	0	20.4	4	6.2	4	-1E+10	1	-1E+10	1	-1E+10	1	-1E+10	1	-1E+10	1	-1E+10	1
4902551	94	C	03/21/2023	22:06	-131.201	47.846	0	1435.00	0	2.4680	0	34.4860	0	27.530	0	1418.094	0	20.6	4	6.3	4	-1E+10	1	-1E+10	1	-1E+10	1	-1E+10	1	-1E+10	1	-1E+10	1
4902551	94	C	03/21/2023	22:06	-131.201	47.846	0	1445.10	0	2.4580	0	34.4860	0	27.531	0	1428.040	0	21.1	4	6.4	4	-1E+10	1	-1E+10	1	-1E+10	1	-1E+10	1	-1E+10	1	-1E+10	1
4902551	94	C	03/21/2023	22:06	-131.201	47.846	0	1455.40	0	2.4470	0	34.4900	0	27.535	0	1438.184	0	21.6	4	6.6	4	-1E+10	1	-1E+10	1	-1E+10	1	-1E+10	1	-1E+10	1	-1E+10	1
4902551	94	C	03/21/2023	22:06	-131.201	47.846	0	1465.30	0	2.4370	0	34.4910	0	27.537	0	1447.933	0	22.0	4	6.7	4	-1E+10	1	-1E+10	1	-1E+10	1	-1E+10	1	-1E+10	1	-1E+10	1
4902551	94	C	03/21/2023	22:06	-131.201	47.846	0	1475.40	0	2.4230	0	34.4930	0	27.539	0	1457.878	0	22.7	4	6.9	4	-1E+10	1	-1E+10	1	-1E+10	1	-1E+10	1	-1E+10	1	-1E+10	1
4902551	94	C	03/21/2023	22:06	-131.201	47.846	0	1485.60	0	2.4080	0	34.4960	0	27.543	0	1467.922	0	23.6	4	7.2	4	-1E+10	1	-1E+10	1	-1E+10	1	-1E+10	1	-1E+10	1	-1E+10	1
4902551	94	C	03/21/2023	22:06	-131.201	47.846	0	1495.40	0	2.3930	0	34.5010	0	27.548	0	1477.571	0	24.8	4	7.5	4	-1E+10	1	-1E+10	1	-1E+10	1	-1E+10	1	-1E+10	1	-1E+10	1
4902551	94	C	03/21/2023	22:06	-131.201	47.846	0	1505.30	0	2.3840	0	34.5040	0	27.552	0	1487.318	0	25.3	4	7.7	4	-1E+10	1	-1E+10	1	-1E+10	1	-1E+10	1	-1E+10	1	-1E+10	1
4902551	94	C	03/21/2023	22:06	-131.201	47.846	0	1515.20	0	2.3680	0	34.5070	0	27.555	0	1497.065	0	25.4	4	7.7	4	-1E+10	1	-1E+10	1	-1E+10	1	-1E+10	1	-1E+10	1	-1E+10	1
4902551	94	C	03/21/2023	22:06	-131.201	47.846	0	1525.30	0	2.3470	0	34.5070	0	27.557	0	1507.008	0	25.6	4	7.8	4	-1E+10	1	-1E+10	1	-1E+10	1	-1E+10	1	-1E+10	1	-1E+10	1
4902551	94	C	03/21/2023	22:06	-131.201	47.846	0	1535.40	0	2.3240	0	34.5100	0	27.561	0	1516.950	0	26.2	4	8.0	4	-1E+10	1	-1E+10	1	-1E+10	1	-1E+10	1	-1E+10	1	-1E+10	1
4902551	94	C	03/21/2023	22:06	-131.201	47.846	0	1545.60	0	2.3140	0	34.5120	0	27.564	0	1526.991	0	26.7	4	8.1	4	-1E+10	1	-1E+10	1	-1E+10	1	-1E+10	1	-1E+10	1	-1E+10	1
4902551	94	C	03/21/2023	22:06	-131.201	47.846	0	1555.40	0	2.3000	0	34.5140	0	27.567	0	1536.638	0	27.3	4	8.3	4	-1E+10	1	-1E+10	1	-1E+10	1	-1E+10	1	-1E+10	1	-1E+10	1
4902551	94	C	03/21/2023	22:06	-131.201	47.846	0	1565.50	0	2.2840	0	34.5170	0	27.570	0	1546.579	0	28.0	4	8.5	4	-1E+10	1	-1E+10	1	-1E+10	1	-1E+10	1	-1E+10	1	-1E+10	1
4902551	94	C	03/21/2023	22:06	-131.201	47.846	0	1575.60	0	2.2650	0	34.5200	0	27.574	0	1556.520	0	28.7	4	8.7	4	-1E+10	1	-1E+10	1	-1E+10	1	-1E+10	1	-1E+10	1	-1E+10	1
4902551	94	C	03/21/2023	22:06	-131.201	47.846	0	1585.60	0	2.2570	0	34.5220	0	27.577	0	1566.362	0	29.5	4	8.9	4	-1E+10	1	-1E+10	1	-1E+10	1	-1E+10	1	-1E+10	1	-1E+10	1
4902551	94	C	03/21/2023	22:06	-131.201	47.846	0	1595.50	0	2.2420	0	34.5250	0	27.580	0	1576.105	0	30.2	4	9.1	4	-1E+10	1	-1E+10	1	-1E+10	1	-1E+10	1	-1E+10	1	-1E+10	1
4902551	94	C	03/21/2023	22:06	-131.201	47.846	0	1605.20	0	2.2290	0	34.5270	0	27.583	0	1585.650	0	30.8	4	9.3	4	-1E+10	1	-1E+10	1	-1E+10	1	-1E+10	1	-1E+10	1	-1E+10	1
4902551	94	C	03/21/2023	22:06	-131.201	47.846	0	1615.30	0	2.2180	0	34.5290	0	27.586	0	1595.589	0	31.5	4	9.5	4	-1E+10	1	-1E+10	1	-1E+10	1	-1E+10	1	-1E+10	1	-1E+10	1
4902551	94	C	03/21/2023	22:06	-131.201	47.846	0	1625.40	0	2.2100	0	34.5310	0	27.588	0	1605.528	0	32.4	4	9.8	4	-1E+10	1	-1E+10	1	-1E+10	1	-1E+10	1	-1E+10	1	-1E+10	1
4902551	94	C	03/21/2023	22:06	-131.201	47.846	0	1635.30	0	2.2050	0	34.5320	0	27.589	0	1615.269	0	33.5	4	10.2	4	-1E+10	1	-1E+10	1	-1E+10	1	-1E+10	1	-1E+10	1	-1E+10	1
4902551	94	C	03/21/2023	22:06	-131.201	47.846	0	1645.40	0	2.2000	0	34.5360	0	27.593	0	1625.207	0	34.9	4	10.6	4	-1E+10	1	-1E+10	1	-1E+10	1	-1E+10	1	-1E+10	1	-1E+10	1
4902551	94	C	03/21/2023	22:06	-131.201	47.846	0	1655.60	0	2.1890	0	34.5380	0	27.595	0	1635.242	0	36.0	4	10.9	4	-1E+10	1	-1E+10	1	-1E+10	1	-1E+10	1	-1E+10	1	-1E+10	1
4902551	94	C	03/21/2023	22:06	-131.201	47.846	0	1665.60	0	2.1790	0	34.5400	0	27.598	0	1645.080	0	36.7	4	11.1	4	-1E+10	1	-1E+10	1	-1E+10	1	-1E+10	1	-1E+10	1	-1E+10	1
4902551	94	C	03/21/2023	22:06	-131.201	47.846	0	1675.40	0	2.1710	0	34.5420	0	27.600	0	1654.721	0	37.4	4	11.3	4	-1E+10	1	-1E+10	1	-1E+10	1	-1E+10	1	-1E+10	1	-1E+10	1
4902551	94	C	03/21/2023	22:06	-131.201	47.846	0	1685.30	0	2.1610	0	34.5440	0	27.603	0	1664.460	0	38.0	4	11.5	4	-1E+10	1	-1E+10	1	-1E+10	1	-1E+10	1	-1E+10	1	-1E+10	1
4902551	94	C	03/21/2023	22:06	-131.201	47.846	0	1695.30	0	2.1500	0	34.5460	0	27.605	0	1674.297	0	38.5	4	11.7	4	-1E+10	1	-1E+10	1	-1E+10	1	-1E+10	1	-1E+10	1	-1E+10	1
4902551	94	C	03/21/2023	22:06	-131.201	47.846	0	1705.50	0	2.1400	0	34.5470	0	27.607	0	1684.330	0	39.1	4	11.8	4	-1E+10	1	-1E+10	1	-1E+10	1	-1E+10	1	-1E+10	1	-1E+10	1
4902551	94	C	03/21/2023	22:06	-131.201	47.846	0	1715.30	0	2.1330	0	34.5490	0	27.609	0	1693.970	0	40.1	4	12.1	4	-1E+10	1	-1E+10	1	-1E+10	1	-1E+10	1	-1E+10	1	-1E+10	1
4902551	94	C	03/21/2023	22:06	-131.201	47.846	0	1725.20	0	2.1270	0	34.5500	0	27.610	0	1703.707	0	40.7	4	12.3	4	-1E+10	1	-1E+10	1	-1E+10	1	-1E+10	1	-1E+10	1	-1E+10	1
4902551	94	C	03/21/2023	22:06	-131.201	47.846	0	1735.10	0	2.1150	0	34.5530	0	27.614	0	1713.443	0	41.3	4	12.5	4	-1E+10	1	-1E+10	1	-1E+10	1	-1E+10	1	-1E+10	1	-1E+10	1
4902551	94	C	03/21/2023	22:06	-131.201	47.846	0	1745.30	0	2.1060	0	34.5540	0	27.615	0	1723.475	0	41.9	4	12.7	4	-1E+10	1	-1E+10	1	-1E+10	1	-1E+10	1	-1E+10	1	-1E+10	1
4902551	94	C	03/21/2023	22:06	-131.201	47.846	0	1755.30	0	2.0990	0	34.5560	0	27.617	0	1733.309	0	42.7	4	12.9	4	-1E+10	1	-1E+10	1	-1E+10	1	-1E+10	1	-1E+10	1	-1E+10	1
4902551	94	C	03/21/2023	22:06	-131.201	47.846	0	1765.20	0	2.0920	0	34.5570	0	27.619	0	1743.044	0	43.3	4	13.1	4	-1E+10	1	-1E+10	1	-1E+10	1	-1E+10	1	-1E+10	1	-1E+10	1
4902551	94	C	03/21/2023	22:06	-131.201	47.846	0	1775.10	0	2.0820	0	34.5590	0	27.621	0	1752.779	0	43.9	4	13.3	4	-1E+10	1	-1E+10	1	-1E+10	1	-1E+10	1	-1E+10	1	-1E+10	1
4902551	94	C	03/21/2023	22:06	-131.201	47.846	0	1785.10	0	2.0690	0	34.5610	0	27.624	0	1762.612	0	44.1	4	13.3	4	-1E+10	1	-1E+10	1	-1E+10	1	-1E+10	1	-1E+10	1	-1E+10	1
4902551	94	C	03/21/2023	22:06	-131.201	47.846	0	1795.30	0	2.0490	0	34.5620	0	27.626	0	1772.641	0	44.4	4	13.4	4	-1E+10	1	-1E+10	1	-1E+10	1	-1E+10	1	-1E+10	1	-1E+10	1
4902551	94	C	03/21/2023	22:06	-131.201	47.846	0	1805.20	0	2.0410	0	34.5640	0	27.629	0	1782.374	0	45.2	4	13.6	4	-1E+10	1	-1E+10	1	-1E+10	1	-1E+10	1	-1E+10	1	-1E+10	1
4902551	94	C	03/21/2023	22:06	-131.201	47.846	0	1815.40	0	2.0290	0	34.5650	0	27.630	0	1792.402	0	45.5	4	13.7	4	-1E+10	1	-1E+10	1	-1E+10	1	-1E+10	1	-1E+10	1	-1E+10	1
4902551	94	C	03/21/2023	22:06	-131.201	47.846	0	1825.70	0	2.0180	0	34.5670	0	27.633	0	1802.528	0	46.1	4	13.9	4	-1E+10	1	-1E+10	1	-1E+10	1	-1E+10	1	-1E+10	1	-1E+10	1
4902551	94	C	03/21/2023	22:06	-131.201	47.846	0	1835.80	0	2.0110	0	34.5680	0	27.634	0	1812.457	0	46.6	4	14.0	4	-1E+10	1	-1E+10	1	-1E+10	1	-1E+10	1	-1E+10	1	-1E+10	1
4902551	94	C	03/21/2023	22:06	-131.201	47.846	0	1845.40	0	2.0080	0	34.5690	0	27.635	0	1821.894	0	47.0	4	14.2	4	-1E+10	1	-1E+10	1	-1E+10	1	-1E+10	1	-1E+10	1	-1E+10	1
4902551	94	C	03/21/2023	22:06	-131.201	47.846	0	1855.30	0	2.0020	0	34.5700	0	27.637	0	1831.625	0	47.6	4	14.3	4	-1E+10	1	-1E+10	1	-1E+10	1	-1E+10	1	-1E+10	1	-1E+10	1
4902551	94	C	03/21/2023	22:06	-131.201	47.846	0	1865.30	0	1.9970	0	34.5720	0	27.639	0	1841.454	0	48.1	4	14.5	4	-1E+10	1	-1E+10	1	-1E+10	1	-1E+10	1	-1E+10	1	-1E+10	1
4902551	94	C	03/21/2023	22:06	-131.201	47.846	0	1875.50	0	1.9930	0	34.5730	0	27.640	0	1851.480	0	48.7	4	14.7	4	-1E+10	1	-1E+10	1	-1E+10	1	-1E+10	1	-1E+10	1	-1E+10	1
4902551	94	C	03/21/2023	22:06	-131.201	47.846	0	1885.90	0	1.9870	0	34.5740	0	27.641	0	1861.701	0	49.6	4	15.0	4	-1E+10	1	-1E+10	1	-1E+10	1	-1E+10	1	-1E+10	1	-1E+10	1
4902551	94	C	03/21/2023	22:06	-131.201	47.846	0	1895.50	0	1.9760	0	34.5760	0	27.644	0	1871.135	0	50.3	4	15.1	4	-1E+10	1	-1E+10	1	-1E+10	1	-1E+10	1	-1E+10	1	-1E+10	1
4902551	94	C	03/21/2023	22:06	-131.201	47.846	0	1905.50	0	1.9710	0	34.5770	0	27.645	0	1880.963	0	50.7	4	15.3	4	-1E+10	1	-1E+10	1	-1E+10	1	-1E+10	1	-1E+10	1	-1E+10	1
4902551	94	C	03/21/2023	22:06	-131.201	47.846	0	1915.60	0	1.9690	0	34.5780	0	27.646	0	1890.888	0	51.3	4	15.5	4	-1E+10	1	-1E+10	1	-1E+10	1	-1E+10	1	-1E+10	1	-1E+10	1
4902551	94	C	03/21/2023	22:06	-131.201	47.846	0	1925.60	0	1.9600	0	34.5790	0	27.648	0	1900.714	0	51.8	4	15.6	4	-1E+10	1	-1E+10	1	-1E+10	1	-1E+10	1	-1E+10	1	-1E+10	1
4902551	94	C	03/21/2023	22:06	-131.201	47.846	0	1935.50	0	1.9530	0	34.5800	0	27.649	0	1910.442	0	52.4	4	15.8	4	-1E+10	1	-1E+10	1	-1E+10	1	-1E+10	1	-1E+10	1	-1E+10	1
4902551	94	C	03/21/2023	22:06	-131.201	47.846	0	1945.40	0	1.9470	0	34.5820	0	27.651	0	1920.169	0	53.0	4	16.0	4	-1E+10	1	-1E+10	1	-1E+10	1	-1E+10	1	-1E+10	1	-1E+10	1
4902551	94	C	03/21/2023	22:06	-131.201	47.846	0	1955.30	0	1.9400	0	34.5830	0	27.653	0	1929.896	0	53.6	4	16.1	4	-1E+10	1	-1E+10	1	-1E+10	1	-1E+10	1	-1E+10	1	-1E+10	1
4902551	94	C	03/21/2023	22:06	-131.201	47.846	0	1965.30	0	1.9360	0	34.5840	0	27.654	0	1939.720	0	54.5	4	16.4	4	-1E+10	1	-1E+10	1	-1E+10	1	-1E+10	1	-1E+10	1	-1E+10	1
4902551	94	C	03/21/2023	22:06	-131.201	47.846	0	1975.60	0	1.9300	0	34.5860	0	27.656	0	1949.839	0	55.4	4	16.7	4	-1E+10	1	-1E+10	1	-1E+10	1	-1E+10	1	-1E+10	1	-1E+10	1
4902551	94	C	03/21/2023	22:06	-131.201	47.846	0	1985.60	0	1.9260	0	34.5870	0	27.657	0	1959.663	0	56.3	4	17.0	4	-1E+10	1	-1E+10	1	-1E+10	1	-1E+10	1	-1E+10	1	-1E+10	1
4902551	94	C	03/21/2023	22:06	-131.201	47.846	0	1995.40	0	1.9210	0	34.5890	0	27.659	0	1969.290	0	57.0	4	17.1	4	-1E+10	1	-1E+10	1	-1E+10	1	-1E+10	1	-1E+10	1	-1E+10	1
4902551	94	C	03/21/2023	22:06	-131.201	47.846	0	2005.20	0	1.9110	0	34.5900	0	27.661	0	1978.916	0	57.3	4	17.2	4	-1E+10	1	-1E+10	1	-1E+10	1	-1E+10	1	-1E+10	1	-1E+10	1
4902551	94	C	03/21/2023	22:06	-131.201	47.846	0	2015.90	0	1.9030	0	34.5910	0	27.662	0	1989.426	0	57.4	4	17.3	4	-1E+10	1	-1E+10	1	-1E+10	1	-1E+10	1	-1E+10	1	-1E+10	1
4902551	94	C	03/21/2023	22:06	-131.201	47.846	0	2021.70	0	1.8990	0	34.5930	0	27.664	0	1995.122	0	57.0	4	17.1	4	-1E+10	1	-1E+10	1	-1E+10	1	-1E+10	1	-1E+10	1	-1E+10	1
4902551	94	C	03/21/2023	22:06	-131.201	47.846	0																										
4902551	95	C	04/01/2023	03:08	-131.217	47.910	0	0.30	0	7.6350	0	32.3800	0	25.269	0	0.297	0	-1e10	1	-1e10	1	-1E+10	1	-1E+10	1	-1E+10	1	-1E+10	1	-1E+10	1	-1E+10	1
4902551	95	C	04/01/2023	03:08	-131.217	47.910	0	0.40	0	7.6354	0	32.3794	0	25.268	0	0.397	0	277.4	4	94.1	4	-1E+10	1	-1E+10	1	-1E+10	1	-1E+10	1	-1E+10	1	-1E+10	1
4902551	95	C	04/01/2023	03:08	-131.217	47.910	0	0.70	0	7.6366	0	32.3776	0	25.267	0	0.694	0	277.3	4	94.1	4	-1E+10	1	-1E+10	1	-1E+10	1	-1E+10	1	-1E+10	1	-1E+10	1
4902551	95	C	04/01/2023	03:08	-131.217	47.910	0	0.80	0	7.6370	0	32.3770	0	25.266	0	0.793	0	-1e10	1	-1e10	1	-1E+10	1	-1E+10	1	-1E+10	1	-1E+10	1	-1E+10	1	-1E+10	1
4902551	95	C	04/01/2023	03:08	-131.217	47.910	0	1.00	0	7.6372	0	32.3770	0	25.266	0	0.992	0	277.3	4	94.1	4	-1E+10	1	-1E+10	1	-1E+10	1	-1E+10	1	-1E+10	1	-1E+10	1
4902551	95	C	04/01/2023	03:08	-131.217	47.910	0	2.10	0	7.6380	0	32.3770	0	25.266	0	2.082	0	277.3	4	94.0	4	-1E+10	1	-1E+10	1	-1E+10	1	-1E+10	1	-1E+10	1	-1E+10	1
4902551	95	C	04/01/2023	03:08	-131.217	47.910	0	2.90	0	7.6380	0	32.3770	0	25.266	0	2.876	0	277.2	4	94.0	4	-1E+10	1	-1E+10	1	-1E+10	1	-1E+10	1	-1E+10	1	-1E+10	1
4902551	95	C	04/01/2023	03:08	-131.217	47.910	0	4.10	0	7.6400	0	32.3760	0	25.265	0	4.066	0	277.2	4	94.0	4	-1E+10	1	-1E+10	1	-1E+10	1	-1E+10	1	-1E+10	1	-1E+10	1
4902551	95	C	04/01/2023	03:08	-131.217	47.910	0	4.90	0	7.6380	0	32.3780	0	25.267	0	4.859	0	277.2	4	94.0	4	-1E+10	1	-1E+10	1	-1E+10	1	-1E+10	1	-1E+10	1	-1E+10	1
4902551	95	C	04/01/2023	03:08	-131.217	47.910	0	6.10	0	7.6390	0	32.3770	0	25.266	0	6.049	0	277.1	4	94.0	4	-1E+10	1	-1E+10	1	-1E+10	1	-1E+10	1	-1E+10	1	-1E+10	1
4902551	95	C	04/01/2023	03:08	-131.217	47.910	0	7.00	0	7.6390	0	32.3770	0	25.266	0	6.941	0	277.2	4	94.0	4	-1E+10	1	-1E+10	1	-1E+10	1	-1E+10	1	-1E+10	1	-1E+10	1
4902551	95	C	04/01/2023	03:08	-131.217	47.910	0	7.80	0	7.6400	0	32.3770	0	25.266	0	7.734	0	277.2	4	94.0	4	-1E+10	1	-1E+10	1	-1E+10	1	-1E+10	1	-1E+10	1	-1E+10	1
4902551	95	C	04/01/2023	03:08	-131.217	47.910	0	9.00	0	7.6430	0	32.3760	0	25.265	0	8.924	0	277.2	4	94.0	4	-1E+10	1	-1E+10	1	-1E+10	1	-1E+10	1	-1E+10	1	-1E+10	1
4902551	95	C	04/01/2023	03:08	-131.217	47.910	0	10.10	0	7.6420	0	32.3770	0	25.266	0	10.015	0	277.1	4	94.0	4	-1E+10	1	-1E+10	1	-1E+10	1	-1E+10	1	-1E+10	1	-1E+10	1
4902551	95	C	04/01/2023	03:08	-131.217	47.910	0	11.10	0	7.6430	0	32.3780	0	25.266	0	11.007	0	277.1	4	94.0	4	-1E+10	1	-1E+10	1	-1E+10	1	-1E+10	1	-1E+10	1	-1E+10	1
4902551	95	C	04/01/2023	03:08	-131.217	47.910	0	12.00	0	7.6420	0	32.3780	0	25.266	0	11.899	0	277.0	4	94.0	4	-1E+10	1	-1E+10	1	-1E+10	1	-1E+10	1	-1E+10	1	-1E+10	1
4902551	95	C	04/01/2023	03:08	-131.217	47.910	0	13.00	0	7.6430	0	32.3770	0	25.266	0	12.891	0	277.0	4	94.0	4	-1E+10	1	-1E+10	1	-1E+10	1	-1E+10	1	-1E+10	1	-1E+10	1
4902551	95	C	04/01/2023	03:08	-131.217	47.910	0	13.90	0	7.6440	0	32.3770	0	25.265	0	13.783	0	277.0	4	94.0	4	-1E+10	1	-1E+10	1	-1E+10	1	-1E+10	1	-1E+10	1	-1E+10	1
4902551	95	C	04/01/2023	03:08	-131.217	47.910	0	15.10	0	7.6420	0	32.3770	0	25.266	0	14.973	0	277.0	4	94.0	4	-1E+10	1	-1E+10	1	-1E+10	1	-1E+10	1	-1E+10	1	-1E+10	1
4902551	95	C	04/01/2023	03:08	-131.217	47.910	0	16.00	0	7.6420	0	32.3780	0	25.267	0	15.865	0	277.0	4	94.0	4	-1E+10	1	-1E+10	1	-1E+10	1	-1E+10	1	-1E+10	1	-1E+10	1
4902551	95	C	04/01/2023	03:08	-131.217	47.910	0	16.90	0	7.6390	0	32.3780	0	25.267	0	16.758	0	277.0	4	93.9	4	-1E+10	1	-1E+10	1	-1E+10	1	-1E+10	1	-1E+10	1	-1E+10	1
4902551	95	C	04/01/2023	03:08	-131.217	47.910	0	18.00	0	7.6420	0	32.3760	0	25.265	0	17.848	0	277.0	4	94.0	4	-1E+10	1	-1E+10	1	-1E+10	1	-1E+10	1	-1E+10	1	-1E+10	1
4902551	95	C	04/01/2023	03:08	-131.217	47.910	0	19.00	0	7.6410	0	32.3770	0	25.266	0	18.840	0	277.0	4	94.0	4	-1E+10	1	-1E+10	1	-1E+10	1	-1E+10	1	-1E+10	1	-1E+10	1
4902551	95	C	04/01/2023	03:08	-131.217	47.910	0	19.80	0	7.6400	0	32.3770	0	25.266	0	19.633	0	276.9	4	93.9	4	-1E+10	1	-1E+10	1	-1E+10	1	-1E+10	1	-1E+10	1	-1E+10	1
4902551	95	C	04/01/2023	03:08	-131.217	47.910	0	20.90	0	7.6400	0	32.3780	0	25.267	0	20.724	0	277.0	4	94.0	4	-1E+10	1	-1E+10	1	-1E+10	1	-1E+10	1	-1E+10	1	-1E+10	1
4902551	95	C	04/01/2023	03:08	-131.217	47.910	0	22.00	0	7.6430	0	32.3780	0	25.266	0	21.814	0	277.0	4	94.0	4	-1E+10	1	-1E+10	1	-1E+10	1	-1E+10	1	-1E+10	1	-1E+10	1
4902551	95	C	04/01/2023	03:08	-131.217	47.910	0	23.10	0	7.6430	0	32.3780	0	25.266	0	22.905	0	276.9	4	93.9	4	-1E+10	1	-1E+10	1	-1E+10	1	-1E+10	1	-1E+10	1	-1E+10	1
4902551	95	C	04/01/2023	03:08	-131.217	47.910	0	24.10	0	7.6440	0	32.3780	0	25.266	0	23.897	0	276.9	4	93.9	4	-1E+10	1	-1E+10	1	-1E+10	1	-1E+10	1	-1E+10	1	-1E+10	1
4902551	95	C	04/01/2023	03:08	-131.217	47.910	0	25.00	0	7.6440	0	32.3780	0	25.266	0	24.789	0	276.9	4	93.9	4	-1E+10	1	-1E+10	1	-1E+10	1	-1E+10	1	-1E+10	1	-1E+10	1
4902551	95	C	04/01/2023	03:08	-131.217	47.910	0	25.80	0	7.6440	0	32.3770	0	25.266	0	25.582	0	276.9	4	93.9	4	-1E+10	1	-1E+10	1	-1E+10	1	-1E+10	1	-1E+10	1	-1E+10	1
4902551	95	C	04/01/2023	03:08	-131.217	47.910	0	26.90	0	7.6450	0	32.3770	0	25.265	0	26.673	0	276.9	4	93.9	4	-1E+10	1	-1E+10	1	-1E+10	1	-1E+10	1	-1E+10	1	-1E+10	1
4902551	95	C	04/01/2023	03:08	-131.217	47.910	0	28.10	0	7.6430	0	32.3780	0	25.267	0	27.863	0	276.9	4	93.9	4	-1E+10	1	-1E+10	1	-1E+10	1	-1E+10	1	-1E+10	1	-1E+10	1
4902551	95	C	04/01/2023	03:08	-131.217	47.910	0	29.10	0	7.6390	0	32.3780	0	25.267	0	28.854	0	276.8	4	93.9	4	-1E+10	1	-1E+10	1	-1E+10	1	-1E+10	1	-1E+10	1	-1E+10	1
4902551	95	C	04/01/2023	03:08	-131.217	47.910	0	29.80	0	7.6400	0	32.3780	0	25.267	0	29.548	0	276.8	4	93.9	4	-1E+10	1	-1E+10	1	-1E+10	1	-1E+10	1	-1E+10	1	-1E+10	1
4902551	95	C	04/01/2023	03:08	-131.217	47.910	0	30.90	0	7.6400	0	32.3780	0	25.267	0	30.639	0	276.9	4	93.9	4	-1E+10	1	-1E+10	1	-1E+10	1	-1E+10	1	-1E+10	1	-1E+10	1
4902551	95	C	04/01/2023	03:08	-131.217	47.910	0	32.00	0	7.6410	0	32.3780	0	25.267	0	31.729	0	276.8	4	93.9	4	-1E+10	1	-1E+10	1	-1E+10	1	-1E+10	1	-1E+10	1	-1E+10	1
4902551	95	C	04/01/2023	03:08	-131.217	47.910	0	32.90	0	7.6400	0	32.3780	0	25.267	0	32.622	0	276.9	4	93.9	4	-1E+10	1	-1E+10	1	-1E+10	1	-1E+10	1	-1E+10	1	-1E+10	1
4902551	95	C	04/01/2023	03:08	-131.217	47.910	0	33.90	0	7.6400	0	32.3780	0	25.267	0	33.613	0	276.8	4	93.9	4	-1E+10	1	-1E+10	1	-1E+10	1	-1E+10	1	-1E+10	1	-1E+10	1
4902551	95	C	04/01/2023	03:08	-131.217	47.910	0	34.80	0	7.6400	0	32.3780	0	25.267	0	34.505	0	276.8	4	93.9	4	-1E+10	1	-1E+10	1	-1E+10	1	-1E+10	1	-1E+10	1	-1E+10	1
4902551	95	C	04/01/2023	03:08	-131.217	47.910	0	35.80	0	7.6390	0	32.3780	0	25.267	0	35.497	0	276.8	4	93.9	4	-1E+10	1	-1E+10	1	-1E+10	1	-1E+10	1	-1E+10	1	-1E+10	1
4902551	95	C	04/01/2023	03:08	-131.217	47.910	0	36.80	0	7.6390	0	32.3780	0	25.267	0	36.488	0	276.7	4	93.8	4	-1E+10	1	-1E+10	1	-1E+10	1	-1E+10	1	-1E+10	1	-1E+10	1
4902551	95	C	04/01/2023	03:08	-131.217	47.910	0	37.90	0	7.6400	0	32.3780	0	25.267	0	37.579	0	276.6	4	93.8	4	-1E+10	1	-1E+10	1	-1E+10	1	-1E+10	1	-1E+10	1	-1E+10	1
4902551	95	C	04/01/2023	03:08	-131.217	47.910	0	38.90	0	7.6400	0	32.3780	0	25.267	0	38.570	0	276.6	4	93.8	4	-1E+10	1	-1E+10	1	-1E+10	1	-1E+10	1	-1E+10	1	-1E+10	1
4902551	95	C	04/01/2023	03:08	-131.217	47.910	0	40.10	0	7.6310	0	32.3790	0	25.269	0	39.760	0	276.5	4	93.8	4	-1E+10	1	-1E+10	1	-1E+10	1	-1E+10	1	-1E+10	1	-1E+10	1
4902551	95	C	04/01/2023	03:08	-131.217	47.910	0	41.10	0	7.6270	0	32.3780	0	25.269	0	40.751	0	276.4	4	93.7	4	-1E+10	1	-1E+10	1	-1E+10	1	-1E+10	1	-1E+10	1	-1E+10	1
4902551	95	C	04/01/2023	03:08	-131.217	47.910	0	42.10	0	7.6190	0	32.3790	0	25.271	0	41.743	0	276.3	4	93.7	4	-1E+10	1	-1E+10	1	-1E+10	1	-1E+10	1	-1E+10	1	-1E+10	1
4902551	95	C	04/01/2023	03:08	-131.217	47.910	0	43.10	0	7.6130	0	32.3790	0	25.272	0	42.734	0	276.4	4	93.7	4	-1E+10	1	-1E+10	1	-1E+10	1	-1E+10	1	-1E+10	1	-1E+10	1
4902551	95	C	04/01/2023	03:08	-131.217	47.910	0	43.80	0	7.6120	0	32.3800	0	25.273	0	43.428	0	276.3	4	93.7	4	-1E+10	1	-1E+10	1	-1E+10	1	-1E+10	1	-1E+10	1	-1E+10	1
4902551	95	C	04/01/2023	03:08	-131.217	47.910	0	44.90	0	7.6050	0	32.3800	0	25.274	0	44.519	0	276.2	4	93.6	4	-1E+10	1	-1E+10	1	-1E+10	1	-1E+10	1	-1E+10	1	-1E+10	1
4902551	95	C	04/01/2023	03:08	-131.217	47.910	0	46.00	0	7.6010	0	32.3800	0	25.274	0	45.609	0	276.3	4	93.6	4	-1E+10	1	-1E+10	1	-1E+10	1	-1E+10	1	-1E+10	1	-1E+10	1
4902551	95	C	04/01/2023	03:08	-131.217	47.910	0	47.10	0	7.6020	0	32.3800	0	25.274	0	46.700	0	276.1	4	93.6	4	-1E+10	1	-1E+10	1	-1E+10	1	-1E+10	1	-1E+10	1	-1E+10	1
4902551	95	C	04/01/2023	03:08	-131.217	47.910	0	47.90	0	7.5990	0	32.3810	0	25.275	0	47.493	0	276.1	4	93.5	4	-1E+10	1	-1E+10	1	-1E+10	1	-1E+10	1	-1E+10	1	-1E+10	1
4902551	95	C	04/01/2023	03:08	-131.217	47.910	0	49.00	0	7.5940	0	32.3800	0	25.275	0	48.583	0	275.9	4	93.5	4	-1E+10	1	-1E+10	1	-1E+10	1	-1E+10	1	-1E+10	1	-1E+10	1
4902551	95	C	04/01/2023	03:08	-131.217	47.910	0	50.20	0	7.5870	0	32.3820	0	25.278	0	49.773	0	275.9	4	93.5	4	-1E+10	1	-1E+10	1	-1E+10	1	-1E+10	1	-1E+10	1	-1E+10	1
4902551	95	C	04/01/2023	03:08	-131.217	47.910	0	50.90	0	7.5870	0	32.3820	0	25.278	0	50.467	0	275.9	4	93.5	4	-1E+10	1	-1E+10	1	-1E+10	1	-1E+10	1	-1E+10	1	-1E+10	1
4902551	95	C	04/01/2023	03:08	-131.217	47.910	0	52.00	0	7.5860	0	32.3820	0	25.278	0	51.558	0	275.8	4	93.4	4	-1E+10	1	-1E+10	1	-1E+10	1	-1E+10	1	-1E+10	1	-1E+10	1
4902551	95	C	04/01/2023	03:08	-131.217	47.910	0	53.20	0	7.5870	0	32.3820	0	25.278	0	52.747	0	275.8	4	93.4	4	-1E+10	1	-1E+10	1	-1E+10	1	-1E+10	1	-1E+10	1	-1E+10	1
4902551	95	C	04/01/2023	03:08	-131.217	47.910	0	53.90	0	7.5860	0	32.3820	0	25.278	0	53.441	0	275.7	4	93.4	4	-1E+10	1	-1E+10	1	-1E+10	1	-1E+10	1	-1E+10	1	-1E+10	1
4902551	95	C	04/01/2023	03:08	-131.217	47.910	0	55.00	0	7.5860	0	32.3820	0	25.278	0	54.532	0	275.7	4	93.4	4	-1E+10	1	-1E+10	1	-1E+10	1	-1E+10	1	-1E+10	1	-1E+10	1
4902551	95	C	04/01/2023	03:08	-131.217	47.910	0	56.20	0	7.5860	0	32.3830	0	25.279	0	55.721	0	275.6	4	93.4	4	-1E+10	1	-1E+10	1	-1E+10	1	-1E+10	1	-1E+10	1	-1E+10	1
4902551	95	C	04/01/2023	03:08	-131.217	47.910	0	56.90	0	7.5850	0	32.3820	0	25.278	0	56.415	0	275.6	4	93.4	4	-1E+10	1	-1E+10	1	-1E+10	1	-1E+10	1	-1E+10	1	-1E+10	1
4902551	95	C	04/01/2023	03:08	-131.217	47.910	0	58.00	0	7.5850	0	32.3820	0	25.278	0	57.506	0	275.5	4	93.3	4	-1E+10	1	-1E+10	1	-1E+10	1	-1E+10	1	-1E+10	1	-1E+10	1
4902551	95	C	04/01/2023	03:08	-131.217	47.910	0	59.10	0	7.5850	0	32.3820	0	25.278	0	58.596	0	275.4	4	93.3	4	-1E+10	1	-1E+10	1	-1E+10	1	-1E+10	1	-1E+10	1	-1E+10	1
4902551	95	C	04/01/2023	03:08	-131.217	47.910	0	59.80	0	7.5850	0	32.3820	0	25.278	0	59.290	0	275.3	4	93.3	4	-1E+10	1	-1E+10	1	-1E+10	1	-1E+10	1	-1E+10	1	-1E+10	1
4902551	95	C	04/01/2023	03:08	-131.217	47.910	0	60.90	0	7.5860	0	32.3820	0	25.278	0	60.381	0	275.2	4	93.2	4	-1E+10	1	-1E+10	1	-1E+10	1	-1E+10	1	-1E+10	1	-1E+10	1
4902551	95	C	04/01/2023	03:08	-131.217	47.910	0	62.10	0	7.5860	0	32.3830	0	25.279	0	61.570	0	275.0	4	93.2	4	-1E+10	1	-1E+10	1	-1E+10	1	-1E+10	1	-1E+10	1	-1E+10	1
4902551	95	C	04/01/2023	03:08	-131.217	47.910	0	62.90	0	7.5840	0	32.3830	0	25.279	0	62.363	0	274.9	4	93.1	4	-1E+10	1	-1E+10	1	-1E+10	1	-1E+10	1	-1E+10	1	-1E+10	1
4902551	95	C	04/01/2023	03:08	-131.217	47.910	0	64.00	0	7.5830	0	32.3830	0	25.279	0	63.454	0	274.8	4	93.1	4	-1E+10	1	-1E+10	1	-1E+10	1	-1E+10	1	-1E+10	1	-1E+10	1
4902551	95	C	04/01/2023	03:08	-131.217	47.910	0	65.20	0	7.5810	0	32.3840	0	25.280	0	64.643	0	274.6	4	93.0	4	-1E+10	1	-1E+10	1	-1E+10	1	-1E+10	1	-1E+10	1	-1E+10	1
4902551	95	C	04/01/2023	03:08	-131.217	47.910	0	65.90	0	7.5790	0	32.3840	0	25.281	0	65.337	0	274.6	4	93.0	4	-1E+10	1	-1E+10	1	-1E+10	1	-1E+10	1	-1E+10	1	-1E+10	1
4902551	95	C	04/01/2023	03:08	-131.217	47.910	0	67.10	0	7.5800	0	32.3850	0	25.281	0	66.527	0	274.4	4	93.0	4	-1E+10	1	-1E+10	1	-1E+10	1	-1E+10	1	-1E+10	1	-1E+10	1
4902551	95	C	04/01/2023	03:08	-131.217	47.910	0	67.80	0	7.5800	0	32.3850	0	25.281	0	67.221	0	274.4	4	92.9	4	-1E+10	1	-1E+10	1	-1E+10	1	-1E+10	1	-1E+10	1	-1E+10	1
4902551	95	C	04/01/2023	03:08	-131.217	47.910	0	68.90	0	7.5800	0	32.3840	0	25.281	0	68.311	0	274.3	4	92.9	4	-1E+10	1	-1E+10	1	-1E+10	1	-1E+10	1	-1E+10	1	-1E+10	1
4902551	95	C	04/01/2023	03:08	-131.217	47.910	0	69.90	0	7.5800	0	32.3840	0	25.281	0	69.302	0	274.2	4	92.9	4	-1E+10	1	-1E+10	1	-1E+10	1	-1E+10	1	-1E+10	1	-1E+10	1
4902551	95	C	04/01/2023	03:08	-131.217	47.910	0	71.00	0	7.5790	0	32.3850	0	25.282	0	70.393	0	274.0	4	92.8	4	-1E+10	1	-1E+10	1	-1E+10	1	-1E+10	1	-1E+10	1	-1E+10	1
4902551	95	C	04/01/2023	03:08	-131.217	47.910	0	72.00	0	7.5790	0	32.3840	0	25.281	0	71.384	0	273.7	4	92.7	4	-1E+10	1	-1E+10	1	-1E+10	1	-1E+10	1	-1E+10	1	-1E+10	1
4902551	95	C	04/01/2023	03:08	-131.217	47.910	0	73.10	0	7.5770	0	32.3860	0	25.283	0	72.474	0	273.5	4	92.6	4	-1E+10	1	-1E+10	1	-1E+10	1	-1E+10	1	-1E+10	1	-1E+10	1
4902551	95	C	04/01/2023	03:08	-131.217	47.910	0	73.80	0	7.5730	0	32.3860	0	25.283	0	73.168	0	273.3	4	92.6	4	-1E+10	1	-1E+10	1	-1E+10	1	-1E+10	1	-1E+10	1	-1E+10	1
4902551	95	C	04/01/2023	03:08	-131.217	47.910	0	74.90	0	7.5690	0	32.3870	0	25.285	0	74.259	0	273.1	4	92.5	4	-1E+10	1	-1E+10	1	-1E+10	1	-1E+10	1	-1E+10	1	-1E+10	1
4902551	95	C	04/01/2023	03:08	-131.217	47.910	0	75.90	0	7.5690	0	32.3880	0	25.285	0	75.250	0	272.8	4	92.4	4	-1E+10	1	-1E+10	1	-1E+10	1	-1E+10	1	-1E+10	1	-1E+10	1
4902551	95	C	04/01/2023	03:08	-131.217	47.910	0	76.90	0	7.5690	0	32.3870	0	25.285	0	76.241	0	272.4	4	92.3	4	-1E+10	1	-1E+10	1	-1E+10	1	-1E+10	1	-1E+10	1	-1E+10	1
4902551	95	C	04/01/2023	03:08	-131.217	47.910	0	77.90	0	7.5680	0	32.3870	0	25.285	0	77.232	0	272.1	4	92.1	4	-1E+10	1	-1E+10	1	-1E+10	1	-1E+10	1	-1E+10	1	-1E+10	1
4902551	95	C	04/01/2023	03:08	-131.217	47.910	0	78.80	0	7.5630	0	32.3910	0	25.289	0	78.124	0	271.8	4	92.0	4	-1E+10	1	-1E+10	1	-1E+10	1	-1E+10	1	-1E+10	1	-1E+10	1
4902551	95	C	04/01/2023	03:08	-131.217	47.910	0	79.80	0	7.5610	0	32.3930	0	25.290	0	79.116	0	271.5	4	91.9	4	-1E+10	1	-1E+10	1	-1E+10	1	-1E+10	1	-1E+10	1	-1E+10	1
4902551	95	C	04/01/2023	03:08	-131.217	47.910	0	80.90	0	7.5610	0	32.3930	0	25.290	0	80.206	0	271.1	4	91.8	4	-1E+10	1	-1E+10	1	-1E+10	1	-1E+10	1	-1E+10	1	-1E+10	1
4902551	95	C	04/01/2023	03:08	-131.217	47.910	0	81.90	0	7.5610	0	32.3930	0	25.291	0	81.197	0	270.7	4	91.7	4	-1E+10	1	-1E+10	1	-1E+10	1	-1E+10	1	-1E+10	1	-1E+10	1
4902551	95	C	04/01/2023	03:08	-131.217	47.910	0	83.10	0	7.5610	0	32.3940	0	25.291	0	82.387	0	277.1	4	93.8	4	-1E+10	1	-1E+10	1	-1E+10	1	-1E+10	1	-1E+10	1	-1E+10	1
4902551	95	C	04/01/2023	03:08	-131.217	47.910	0	83.80	0	7.5580	0	32.3980	0	25.295	0	83.081	0	276.8	4	93.7	4	-1E+10	1	-1E+10	1	-1E+10	1	-1E+10	1	-1E+10	1	-1E+10	1
4902551	95	C	04/01/2023	03:08	-131.217	47.910	0	85.00	0	7.5570	0	32.4000	0	25.297	0	84.270	0	276.6	4	93.7	4	-1E+10	1	-1E+10	1	-1E+10	1	-1E+10	1	-1E+10	1	-1E+10	1
4902551	95	C	04/01/2023	03:08	-131.217	47.910	0	86.00	0	7.5570	0	32.4010	0	25.297	0	85.261	0	276.2	4	93.5	4	-1E+10	1	-1E+10	1	-1E+10	1	-1E+10	1	-1E+10	1	-1E+10	1
4902551	95	C	04/01/2023	03:08	-131.217	47.910	0	87.10	0	7.5580	0	32.4020	0	25.298	0	86.352	0	275.8	4	93.4	4	-1E+10	1	-1E+10	1	-1E+10	1	-1E+10	1	-1E+10	1	-1E+10	1
4902551	95	C	04/01/2023	03:08	-131.217	47.910	0	87.80	0	7.5570	0	32.4030	0	25.299	0	87.045	0	275.2	4	93.2	4	-1E+10	1	-1E+10	1	-1E+10	1	-1E+10	1	-1E+10	1	-1E+10	1
4902551	95	C	04/01/2023	03:08	-131.217	47.910	0	89.00	0	7.5500	0	32.4100	0	25.305	0	88.235	0	274.2	4	92.8	4	-1E+10	1	-1E+10	1	-1E+10	1	-1E+10	1	-1E+10	1	-1E+10	1
4902551	95	C	04/01/2023	03:08	-131.217	47.910	0	90.30	0	7.5360	0	32.4190	0	25.315	0	89.523	0	273.3	4	92.5	4	-1E+10	1	-1E+10	1	-1E+10	1	-1E+10	1	-1E+10	1	-1E+10	1
4902551	95	C	04/01/2023	03:08	-131.217	47.910	0	91.20	0	7.5340	0	32.4200	0	25.316	0	90.415	0	272.7	4	92.3	4	-1E+10	1	-1E+10	1	-1E+10	1	-1E+10	1	-1E+10	1	-1E+10	1
4902551	95	C	04/01/2023	03:08	-131.217	47.910	0	91.90	0	7.5330	0	32.4200	0	25.316	0	91.109	0	272.2	4	92.1	4	-1E+10	1	-1E+10	1	-1E+10	1	-1E+10	1	-1E+10	1	-1E+10	1
4902551	95	C	04/01/2023	03:08	-131.217	47.910	0	92.90	0	7.5290	0	32.4220	0	25.318	0	92.100	0	271.5	4	91.9	4	-1E+10	1	-1E+10	1	-1E+10	1	-1E+10	1	-1E+10	1	-1E+10	1
4902551	95	C	04/01/2023	03:08	-131.217	47.910	0	93.90	0	7.5250	0	32.4230	0	25.319	0	93.092	0	270.6	4	91.6	4	-1E+10	1	-1E+10	1	-1E+10	1	-1E+10	1	-1E+10	1	-1E+10	1
4902551	95	C	04/01/2023	03:08	-131.217	47.910	0	94.90	0	7.5220	0	32.4270	0	25.323	0	94.083	0	269.6	4	91.2	4	-1E+10	1	-1E+10	1	-1E+10	1	-1E+10	1	-1E+10	1	-1E+10	1
4902551	95	C	04/01/2023	03:08	-131.217	47.910	0	95.90	0	7.5180	0	32.4300	0	25.326	0	95.074	0	268.6	4	90.9	4	-1E+10	1	-1E+10	1	-1E+10	1	-1E+10	1	-1E+10	1	-1E+10	1
4902551	95	C	04/01/2023	03:08	-131.217	47.910	0	97.10	0	7.5130	0	32.4320	0	25.328	0	96.263	0	266.9	4	90.3	4	-1E+10	1	-1E+10	1	-1E+10	1	-1E+10	1	-1E+10	1	-1E+10	1
4902551	95	C	04/01/2023	03:08	-131.217	47.910	0	97.80	0	7.5100	0	32.4350	0	25.331	0	96.957	0	265.9	4	90.0	4	-1E+10	1	-1E+10	1	-1E+10	1	-1E+10	1	-1E+10	1	-1E+10	1
4902551	95	C	04/01/2023	03:08	-131.217	47.910	0	98.90	0	7.5060	0	32.4410	0	25.336	0	98.047	0	263.9	4	89.3	4	-1E+10	1	-1E+10	1	-1E+10	1	-1E+10	1	-1E+10	1	-1E+10	1
4902551	95	C	04/01/2023	03:08	-131.217	47.910	0	100.10	0	7.5020	0	32.4450	0	25.340	0	99.237	0	261.0	4	88.3	4	-1E+10	1	-1E+10	1	-1E+10	1	-1E+10	1	-1E+10	1	-1E+10	1
4902551	95	C	04/01/2023	03:08	-131.217	47.910	0	100.90	0	7.4950	0	32.4490	0	25.344	0	100.030	0	258.7	4	87.5	4	-1E+10	1	-1E+10	1	-1E+10	1	-1E+10	1	-1E+10	1	-1E+10	1
4902551	95	C	04/01/2023	03:08	-131.217	47.910	0	101.90	0	7.4740	0	32.4680	0	25.362	0	101.021	0	255.0	4	86.2	4	-1E+10	1	-1E+10	1	-1E+10	1	-1E+10	1	-1E+10	1	-1E+10	1
4902551	95	C	04/01/2023	03:08	-131.217	47.910	0	103.10	0	7.4260	0	32.5160	0	25.406	0	102.210	0	250.0	4	84.5	4	-1E+10	1	-1E+10	1	-1E+10	1	-1E+10	1	-1E+10	1	-1E+10	1
4902551	95	C	04/01/2023	03:08	-131.217	47.910	0	104.10	0	7.3970	0	32.5420	0	25.431	0	103.201	0	243.1	4	82.1	4	-1E+10	1	-1E+10	1	-1E+10	1	-1E+10	1	-1E+10	1	-1E+10	1
4902551	95	C	04/01/2023	03:08	-131.217	47.910	0	105.10	0	7.3420	0	32.5890	0	25.475	0	104.192	0	237.1	4	80.0	4	-1E+10	1	-1E+10	1	-1E+10	1	-1E+10	1	-1E+10	1	-1E+10	1
4902551	95	C	04/01/2023	03:08	-131.217	47.910	0	106.20	0	7.2620	0	32.6780	0	25.556	0	105.283	0	231.7	4	78.1	4	-1E+10	1	-1E+10	1	-1E+10	1	-1E+10	1	-1E+10	1	-1E+10	1
4902551	95	C	04/01/2023	03:08	-131.217	47.910	0	107.10	0	7.1730	0	32.7740	0	25.644	0	106.175	0	229.9	4	77.4	4	-1E+10	1	-1E+10	1	-1E+10	1	-1E+10	1	-1E+10	1	-1E+10	1
4902551	95	C	04/01/2023	03:08	-131.217	47.910	0	108.00	0	7.1310	0	32.8310	0	25.694	0	107.067	0	228.1	4	76.7	4	-1E+10	1	-1E+10	1	-1E+10	1	-1E+10	1	-1E+10	1	-1E+10	1
4902551	95	C	04/01/2023	03:08	-131.217	47.910	0	108.70	0	7.1200	0	32.8480	0	25.709	0	107.760	0	226.5	4	76.2	4	-1E+10	1	-1E+10	1	-1E+10	1	-1E+10	1	-1E+10	1	-1E+10	1
4902551	95	C	04/01/2023	03:08	-131.217	47.910	0	109.80	0	7.1120	0	32.8540	0	25.715	0	108.851	0	225.0	4	75.7	4	-1E+10	1	-1E+10	1	-1E+10	1	-1E+10	1	-1E+10	1	-1E+10	1
4902551	95	C	04/01/2023	03:08	-131.217	47.910	0	111.00	0	7.0520	0	32.8980	0	25.758	0	110.040	0	223.5	4	75.1	4	-1E+10	1	-1E+10	1	-1E+10	1	-1E+10	1	-1E+10	1	-1E+10	1
4902551	95	C	04/01/2023	03:08	-131.217	47.910	0	112.10	0	6.9450	0	32.9760	0	25.834	0	111.130	0	223.0	4	74.8	4	-1E+10	1	-1E+10	1	-1E+10	1	-1E+10	1	-1E+10	1	-1E+10	1
4902551	95	C	04/01/2023	03:08	-131.217	47.910	0	112.80	0	6.8740	0	32.9950	0	25.858	0	111.824	0	222.9	4	74.6	4	-1E+10	1	-1E+10	1	-1E+10	1	-1E+10	1	-1E+10	1	-1E+10	1
4902551	95	C	04/01/2023	03:08	-131.217	47.910	0	113.80	0	6.8470	0	33.0030	0	25.868	0	112.815	0	222.4	4	74.4	4	-1E+10	1	-1E+10	1	-1E+10	1	-1E+10	1	-1E+10	1	-1E+10	1
4902551	95	C	04/01/2023	03:08	-131.217	47.910	0	114.90	0	6.8360	0	33.0070	0	25.873	0	113.905	0	221.8	4	74.2	4	-1E+10	1	-1E+10	1	-1E+10	1	-1E+10	1	-1E+10	1	-1E+10	1
4902551	95	C	04/01/2023	03:08	-131.217	47.910	0	115.90	0	6.8230	0	33.0130	0	25.879	0	114.896	0	221.2	4	74.0	4	-1E+10	1	-1E+10	1	-1E+10	1	-1E+10	1	-1E+10	1	-1E+10	1
4902551	95	C	04/01/2023	03:08	-131.217	47.910	0	117.00	0	6.8170	0	33.0150	0	25.881	0	115.986	0	220.4	4	73.7	4	-1E+10	1	-1E+10	1	-1E+10	1	-1E+10	1	-1E+10	1	-1E+10	1
4902551	95	C	04/01/2023	03:08	-131.217	47.910	0	117.90	0	6.8110	0	33.0180	0	25.885	0	116.878	0	219.4	4	73.4	4	-1E+10	1	-1E+10	1	-1E+10	1	-1E+10	1	-1E+10	1	-1E+10	1
4902551	95	C	04/01/2023	03:08	-131.217	47.910	0	119.00	0	6.7910	0	33.0260	0	25.893	0	117.968	0	218.3	4	73.0	4	-1E+10	1	-1E+10	1	-1E+10	1	-1E+10	1	-1E+10	1	-1E+10	1
4902551	95	C	04/01/2023	03:08	-131.217	47.910	0	120.00	0	6.7490	0	33.0510	0	25.919	0	118.959	0	217.2	4	72.6	4	-1E+10	1	-1E+10	1	-1E+10	1	-1E+10	1	-1E+10	1	-1E+10	1
4902551	95	C	04/01/2023	03:08	-131.217	47.910	0	121.10	0	6.7240	0	33.0750	0	25.941	0	120.050	0	216.2	4	72.2	4	-1E+10	1	-1E+10	1	-1E+10	1	-1E+10	1	-1E+10	1	-1E+10	1
4902551	95	C	04/01/2023	03:08	-131.217	47.910	0	121.80	0	6.7200	0	33.0800	0	25.945	0	120.743	0	215.5	4	71.9	4	-1E+10	1	-1E+10	1	-1E+10	1	-1E+10	1	-1E+10	1	-1E+10	1
4902551	95	C	04/01/2023	03:08	-131.217	47.910	0	122.80	0	6.7080	0	33.0920	0	25.956	0	121.734	0	214.3	4	71.5	4	-1E+10	1	-1E+10	1	-1E+10	1	-1E+10	1	-1E+10	1	-1E+10	1
4902551	95	C	04/01/2023	03:08	-131.217	47.910	0	123.90	0	6.6990	0	33.1010	0	25.965	0	122.824	0	213.1	4	71.1	4	-1E+10	1	-1E+10	1	-1E+10	1	-1E+10	1	-1E+10	1	-1E+10	1
4902551	95	C	04/01/2023	03:08	-131.217	47.910	0	124.70	0	6.6780	0	33.1260	0	25.987	0	123.617	0	212.2	4	70.8	4	-1E+10	1	-1E+10	1	-1E+10	1	-1E+10	1	-1E+10	1	-1E+10	1
4902551	95	C	04/01/2023	03:08	-131.217	47.910	0	125.90	0	6.6520	0	33.1670	0	26.023	0	124.806	0	210.9	4	70.3	4	-1E+10	1	-1E+10	1	-1E+10	1	-1E+10	1	-1E+10	1	-1E+10	1
4902551	95	C	04/01/2023	03:08	-131.217	47.910	0	127.10	0	6.6130	0	33.2340	0	26.081	0	125.996	0	210.0	4	70.0	4	-1E+10	1	-1E+10	1	-1E+10	1	-1E+10	1	-1E+10	1	-1E+10	1
4902551	95	C	04/01/2023	03:08	-131.217	47.910	0	127.90	0	6.6050	0	33.2520	0	26.096	0	126.788	0	209.5	4	69.9	4	-1E+10	1	-1E+10	1	-1E+10	1	-1E+10	1	-1E+10	1	-1E+10	1
4902551	95	C	04/01/2023	03:08	-131.217	47.910	0	129.00	0	6.5970	0	33.2680	0	26.110	0	127.879	0	208.7	4	69.6	4	-1E+10	1	-1E+10	1	-1E+10	1	-1E+10	1	-1E+10	1	-1E+10	1
4902551	95	C	04/01/2023	03:08	-131.217	47.910	0	130.20	0	6.5920	0	33.2780	0	26.118	0	129.068	0	208.1	4	69.4	4	-1E+10	1	-1E+10	1	-1E+10	1	-1E+10	1	-1E+10	1	-1E+10	1
4902551	95	C	04/01/2023	03:08	-131.217	47.910	0	131.00	0	6.5900	0	33.2830	0	26.123	0	129.861	0	207.7	4	69.2	4	-1E+10	1	-1E+10	1	-1E+10	1	-1E+10	1	-1E+10	1	-1E+10	1
4902551	95	C	04/01/2023	03:08	-131.217	47.910	0	131.80	0	6.5870	0	33.2900	0	26.128	0	130.653	0	207.1	4	69.0	4	-1E+10	1	-1E+10	1	-1E+10	1	-1E+10	1	-1E+10	1	-1E+10	1
4902551	95	C	04/01/2023	03:08	-131.217	47.910	0	133.00	0	6.5710	0	33.3080	0	26.145	0	131.843	0	206.2	4	68.7	4	-1E+10	1	-1E+10	1	-1E+10	1	-1E+10	1	-1E+10	1	-1E+10	1
4902551	95	C	04/01/2023	03:08	-131.217	47.910	0	134.30	0	6.5640	0	33.3450	0	26.175	0	133.131	0	205.8	4	68.6	4	-1E+10	1	-1E+10	1	-1E+10	1	-1E+10	1	-1E+10	1	-1E+10	1
4902551	95	C	04/01/2023	03:08	-131.217	47.910	0	135.10	0	6.5550	0	33.3570	0	26.186	0	133.924	0	205.4	4	68.5	4	-1E+10	1	-1E+10	1	-1E+10	1	-1E+10	1	-1E+10	1	-1E+10	1
4902551	95	C	04/01/2023	03:08	-131.217	47.910	0	136.00	0	6.5280	0	33.3550	0	26.187	0	134.815	0	205.1	4	68.3	4	-1E+10	1	-1E+10	1	-1E+10	1	-1E+10	1	-1E+10	1	-1E+10	1
4902551	95	C	04/01/2023	03:08	-131.217	47.910	0	136.80	0	6.5160	0	33.3530	0	26.187	0	135.608	0	204.6	4	68.1	4	-1E+10	1	-1E+10	1	-1E+10	1	-1E+10	1	-1E+10	1	-1E+10	1
4902551	95	C	04/01/2023	03:08	-131.217	47.910	0	137.70	0	6.5100	0	33.3520	0	26.187	0	136.500	0	204.2	4	68.0	4	-1E+10	1	-1E+10	1	-1E+10	1	-1E+10	1	-1E+10	1	-1E+10	1
4902551	95	C	04/01/2023	03:08	-131.217	47.910	0	138.60	0	6.5320	0	33.3520	0	26.185	0	137.392	0	203.6	4	67.8	4	-1E+10	1	-1E+10	1	-1E+10	1	-1E+10	1	-1E+10	1	-1E+10	1
4902551	95	C	04/01/2023	03:08	-131.217	47.910	0	139.90	0	6.4950	0	33.3850	0	26.215	0	138.680	0	203.1	4	67.6	4	-1E+10	1	-1E+10	1	-1E+10	1	-1E+10	1	-1E+10	1	-1E+10	1
4902551	95	C	04/01/2023	03:08	-131.217	47.910	0	141.30	0	6.4350	0	33.4090	0	26.242	0	140.067	0	202.6	4	67.3	4	-1E+10	1	-1E+10	1	-1E+10	1	-1E+10	1	-1E+10	1	-1E+10	1
4902551	95	C	04/01/2023	03:08	-131.217	47.910	0	142.20	0	6.3700	0	33.4220	0	26.261	0	140.959	0	202.1	4	67.1	4	-1E+10	1	-1E+10	1	-1E+10	1	-1E+10	1	-1E+10	1	-1E+10	1
4902551	95	C	04/01/2023	03:08	-131.217	47.910	0	143.10	0	6.3460	0	33.4280	0	26.269	0	141.851	0	201.4	4	66.8	4	-1E+10	1	-1E+10	1	-1E+10	1	-1E+10	1	-1E+10	1	-1E+10	1
4902551	95	C	04/01/2023	03:08	-131.217	47.910	0	144.10	0	6.3370	0	33.4460	0	26.284	0	142.842	0	200.7	4	66.6	4	-1E+10	1	-1E+10	1	-1E+10	1	-1E+10	1	-1E+10	1	-1E+10	1
4902551	95	C	04/01/2023	03:08	-131.217	47.910	0	145.10	0	6.3320	0	33.4440	0	26.283	0	143.833	0	200.0	4	66.4	4	-1E+10	1	-1E+10	1	-1E+10	1	-1E+10	1	-1E+10	1	-1E+10	1
4902551	95	C	04/01/2023	03:08	-131.217	47.910	0	146.00	0	6.3140	0	33.4490	0	26.289	0	144.725	0	199.2	4	66.0	4	-1E+10	1	-1E+10	1	-1E+10	1	-1E+10	1	-1E+10	1	-1E+10	1
4902551	95	C	04/01/2023	03:08	-131.217	47.910	0	147.00	0	6.3070	0	33.4520	0	26.293	0	145.716	0	198.2	4	65.7	4	-1E+10	1	-1E+10	1	-1E+10	1	-1E+10	1	-1E+10	1	-1E+10	1
4902551	95	C	04/01/2023	03:08	-131.217	47.910	0	148.00	0	6.3040	0	33.4560	0	26.296	0	146.707	0	197.3	4	65.4	4	-1E+10	1	-1E+10	1	-1E+10	1	-1E+10	1	-1E+10	1	-1E+10	1
4902551	95	C	04/01/2023	03:08	-131.217	47.910	0	149.10	0	6.3020	0	33.4590	0	26.299	0	147.797	0	196.1	4	65.0	4	-1E+10	1	-1E+10	1	-1E+10	1	-1E+10	1	-1E+10	1	-1E+10	1
4902551	95	C	04/01/2023	03:08	-131.217	47.910	0	150.10	0	6.3010	0	33.4650	0	26.304	0	148.788	0	194.9	4	64.6	4	-1E+10	1	-1E+10	1	-1E+10	1	-1E+10	1	-1E+10	1	-1E+10	1
4902551	95	C	04/01/2023	03:08	-131.217	47.910	0	151.10	0	6.3090	0	33.4670	0	26.304	0	149.778	0	193.6	4	64.2	4	-1E+10	1	-1E+10	1	-1E+10	1	-1E+10	1	-1E+10	1	-1E+10	1
4902551	95	C	04/01/2023	03:08	-131.217	47.910	0	152.10	0	6.3890	0	33.5190	0	26.335	0	150.769	0	192.8	4	64.1	4	-1E+10	1	-1E+10	1	-1E+10	1	-1E+10	1	-1E+10	1	-1E+10	1
4902551	95	C	04/01/2023	03:08	-131.217	47.910	0	153.20	0	6.3910	0	33.5280	0	26.342	0	151.859	0	192.5	4	64.0	4	-1E+10	1	-1E+10	1	-1E+10	1	-1E+10	1	-1E+10	1	-1E+10	1
4902551	95	C	04/01/2023	03:08	-131.217	47.910	0	154.20	0	6.3950	0	33.5320	0	26.345	0	152.850	0	192.2	4	63.9	4	-1E+10	1	-1E+10	1	-1E+10	1	-1E+10	1	-1E+10	1	-1E+10	1
4902551	95	C	04/01/2023	03:08	-131.217	47.910	0	155.30	0	6.3760	0	33.5390	0	26.352	0	153.940	0	191.8	4	63.8	4	-1E+10	1	-1E+10	1	-1E+10	1	-1E+10	1	-1E+10	1	-1E+10	1
4902551	95	C	04/01/2023	03:08	-131.217	47.910	0	156.30	0	6.3260	0	33.5380	0	26.358	0	154.931	0	191.4	4	63.5	4	-1E+10	1	-1E+10	1	-1E+10	1	-1E+10	1	-1E+10	1	-1E+10	1
4902551	95	C	04/01/2023	03:08	-131.217	47.910	0	157.40	0	6.2450	0	33.5310	0	26.363	0	156.021	0	190.7	4	63.2	4	-1E+10	1	-1E+10	1	-1E+10	1	-1E+10	1	-1E+10	1	-1E+10	1
4902551	95	C	04/01/2023	03:08	-131.217	47.910	0	158.40	0	6.2420	0	33.5310	0	26.363	0	157.012	0	189.5	4	62.8	4	-1E+10	1	-1E+10	1	-1E+10	1	-1E+10	1	-1E+10	1	-1E+10	1
4902551	95	C	04/01/2023	03:08	-131.217	47.910	0	159.50	0	6.2540	0	33.5400	0	26.369	0	158.102	0	188.4	4	62.5	4	-1E+10	1	-1E+10	1	-1E+10	1	-1E+10	1	-1E+10	1	-1E+10	1
4902551	95	C	04/01/2023	03:08	-131.217	47.910	0	160.50	0	6.3000	0	33.5470	0	26.369	0	159.093	0	187.5	4	62.2	4	-1E+10	1	-1E+10	1	-1E+10	1	-1E+10	1	-1E+10	1	-1E+10	1
4902551	95	C	04/01/2023	03:08	-131.217	47.910	0	161.50	0	6.3070	0	33.5740	0	26.389	0	160.083	0	186.8	4	62.0	4	-1E+10	1	-1E+10	1	-1E+10	1	-1E+10	1	-1E+10	1	-1E+10	1
4902551	95	C	04/01/2023	03:08	-131.217	47.910	0	162.60	0	6.2850	0	33.5760	0	26.393	0	161.173	0	186.2	4	61.8	4	-1E+10	1	-1E+10	1	-1E+10	1	-1E+10	1	-1E+10	1	-1E+10	1
4902551	95	C	04/01/2023	03:08	-131.217	47.910	0	163.60	0	6.2760	0	33.5770	0	26.395	0	162.164	0	185.5	4	61.5	4	-1E+10	1	-1E+10	1	-1E+10	1	-1E+10	1	-1E+10	1	-1E+10	1
4902551	95	C	04/01/2023	03:08	-131.217	47.910	0	164.60	0	6.2800	0	33.5760	0	26.394	0	163.155	0	184.7	4	61.3	4	-1E+10	1	-1E+10	1	-1E+10	1	-1E+10	1	-1E+10	1	-1E+10	1
4902551	95	C	04/01/2023	03:08	-131.217	47.910	0	165.60	0	6.2640	0	33.5780	0	26.398	0	164.146	0	183.8	4	61.0	4	-1E+10	1	-1E+10	1	-1E+10	1	-1E+10	1	-1E+10	1	-1E+10	1
4902551	95	C	04/01/2023	03:08	-131.217	47.910	0	166.60	0	6.2660	0	33.5830	0	26.401	0	165.137	0	182.6	4	60.6	4	-1E+10	1	-1E+10	1	-1E+10	1	-1E+10	1	-1E+10	1	-1E+10	1
4902551	95	C	04/01/2023	03:08	-131.217	47.910	0	167.60	0	6.2570	0	33.5980	0	26.414	0	166.128	0	181.5	4	60.2	4	-1E+10	1	-1E+10	1	-1E+10	1	-1E+10	1	-1E+10	1	-1E+10	1
4902551	95	C	04/01/2023	03:08	-131.217	47.910	0	168.60	0	6.2430	0	33.5990	0	26.417	0	167.118	0	180.5	4	59.8	4	-1E+10	1	-1E+10	1	-1E+10	1	-1E+10	1	-1E+10	1	-1E+10	1
4902551	95	C	04/01/2023	03:08	-131.217	47.910	0	169.60	0	6.2420	0	33.5980	0	26.416	0	168.109	0	179.3	4	59.4	4	-1E+10	1	-1E+10	1	-1E+10	1	-1E+10	1	-1E+10	1	-1E+10	1
4902551	95	C	04/01/2023	03:08	-131.217	47.910	0	170.60	0	6.2390	0	33.6060	0	26.423	0	169.100	0	178.1	4	59.0	4	-1E+10	1	-1E+10	1	-1E+10	1	-1E+10	1	-1E+10	1	-1E+10	1
4902551	95	C	04/01/2023	03:08	-131.217	47.910	0	171.60	0	6.1890	0	33.6280	0	26.447	0	170.091	0	177.0	4	58.6	4	-1E+10	1	-1E+10	1	-1E+10	1	-1E+10	1	-1E+10	1	-1E+10	1
4902551	95	C	04/01/2023	03:08	-131.217	47.910	0	172.60	0	6.1710	0	33.6310	0	26.451	0	171.082	0	176.0	4	58.2	4	-1E+10	1	-1E+10	1	-1E+10	1	-1E+10	1	-1E+10	1	-1E+10	1
4902551	95	C	04/01/2023	03:08	-131.217	47.910	0	173.60	0	6.1490	0	33.6320	0	26.455	0	172.072	0	174.8	4	57.8	4	-1E+10	1	-1E+10	1	-1E+10	1	-1E+10	1	-1E+10	1	-1E+10	1
4902551	95	C	04/01/2023	03:08	-131.217	47.910	0	174.50	0	6.1440	0	33.6410	0	26.463	0	172.964	0	173.6	4	57.4	4	-1E+10	1	-1E+10	1	-1E+10	1	-1E+10	1	-1E+10	1	-1E+10	1
4902551	95	C	04/01/2023	03:08	-131.217	47.910	0	175.60	0	6.1310	0	33.6530	0	26.474	0	174.054	0	172.4	4	57.0	4	-1E+10	1	-1E+10	1	-1E+10	1	-1E+10	1	-1E+10	1	-1E+10	1
4902551	95	C	04/01/2023	03:08	-131.217	47.910	0	176.50	0	6.0790	0	33.6690	0	26.493	0	174.946	0	171.4	4	56.6	4	-1E+10	1	-1E+10	1	-1E+10	1	-1E+10	1	-1E+10	1	-1E+10	1
4902551	95	C	04/01/2023	03:08	-131.217	47.910	0	177.50	0	6.0610	0	33.6710	0	26.497	0	175.936	0	170.5	4	56.3	4	-1E+10	1	-1E+10	1	-1E+10	1	-1E+10	1	-1E+10	1	-1E+10	1
4902551	95	C	04/01/2023	03:08	-131.217	47.910	0	178.90	0	6.0430	0	33.6790	0	26.506	0	177.323	0	169.1	4	55.8	4	-1E+10	1	-1E+10	1	-1E+10	1	-1E+10	1	-1E+10	1	-1E+10	1
4902551	95	C	04/01/2023	03:08	-131.217	47.910	0	180.40	0	6.0360	0	33.6850	0	26.511	0	178.810	0	167.6	4	55.3	4	-1E+10	1	-1E+10	1	-1E+10	1	-1E+10	1	-1E+10	1	-1E+10	1
4902551	95	C	04/01/2023	03:08	-131.217	47.910	0	181.40	0	6.0280	0	33.6880	0	26.515	0	179.800	0	166.6	4	55.0	4	-1E+10	1	-1E+10	1	-1E+10	1	-1E+10	1	-1E+10	1	-1E+10	1
4902551	95	C	04/01/2023	03:08	-131.217	47.910	0	182.30	0	6.0250	0	33.6910	0	26.517	0	180.692	0	165.5	4	54.6	4	-1E+10	1	-1E+10	1	-1E+10	1	-1E+10	1	-1E+10	1	-1E+10	1
4902551	95	C	04/01/2023	03:08	-131.217	47.910	0	183.20	0	6.0160	0	33.6950	0	26.522	0	181.584	0	164.3	4	54.2	4	-1E+10	1	-1E+10	1	-1E+10	1	-1E+10	1	-1E+10	1	-1E+10	1
4902551	95	C	04/01/2023	03:08	-131.217	47.910	0	184.20	0	6.0120	0	33.6960	0	26.523	0	182.574	0	163.1	4	53.8	4	-1E+10	1	-1E+10	1	-1E+10	1	-1E+10	1	-1E+10	1	-1E+10	1
4902551	95	C	04/01/2023	03:08	-131.217	47.910	0	185.10	0	6.0010	0	33.6980	0	26.526	0	183.466	0	161.8	4	53.4	4	-1E+10	1	-1E+10	1	-1E+10	1	-1E+10	1	-1E+10	1	-1E+10	1
4902551	95	C	04/01/2023	03:08	-131.217	47.910	0	186.00	0	5.9860	0	33.7010	0	26.530	0	184.358	0	160.6	4	53.0	4	-1E+10	1	-1E+10	1	-1E+10	1	-1E+10	1	-1E+10	1	-1E+10	1
4902551	95	C	04/01/2023	03:08	-131.217	47.910	0	187.00	0	5.9730	0	33.7090	0	26.538	0	185.348	0	159.3	4	52.5	4	-1E+10	1	-1E+10	1	-1E+10	1	-1E+10	1	-1E+10	1	-1E+10	1
4902551	95	C	04/01/2023	03:08	-131.217	47.910	0	187.90	0	5.9550	0	33.7090	0	26.540	0	186.240	0	158.1	4	52.1	4	-1E+10	1	-1E+10	1	-1E+10	1	-1E+10	1	-1E+10	1	-1E+10	1
4902551	95	C	04/01/2023	03:08	-131.217	47.910	0	188.80	0	5.9470	0	33.7100	0	26.542	0	187.132	0	156.7	4	51.6	4	-1E+10	1	-1E+10	1	-1E+10	1	-1E+10	1	-1E+10	1	-1E+10	1
4902551	95	C	04/01/2023	03:08	-131.217	47.910	0	189.80	0	5.9320	0	33.7110	0	26.545	0	188.122	0	155.4	4	51.2	4	-1E+10	1	-1E+10	1	-1E+10	1	-1E+10	1	-1E+10	1	-1E+10	1
4902551	95	C	04/01/2023	03:08	-131.217	47.910	0	190.70	0	5.9190	0	33.7150	0	26.549	0	189.014	0	153.9	4	50.7	4	-1E+10	1	-1E+10	1	-1E+10	1	-1E+10	1	-1E+10	1	-1E+10	1
4902551	95	C	04/01/2023	03:08	-131.217	47.910	0	191.60	0	5.8830	0	33.7240	0	26.561	0	189.906	0	152.6	4	50.2	4	-1E+10	1	-1E+10	1	-1E+10	1	-1E+10	1	-1E+10	1	-1E+10	1
4902551	95	C	04/01/2023	03:08	-131.217	47.910	0	192.60	0	5.8800	0	33.7220	0	26.560	0	190.896	0	151.3	4	49.8	4	-1E+10	1	-1E+10	1	-1E+10	1	-1E+10	1	-1E+10	1	-1E+10	1
4902551	95	C	04/01/2023	03:08	-131.217	47.910	0	193.90	0	5.8700	0	33.7220	0	26.561	0	192.184	0	149.1	4	49.1	4	-1E+10	1	-1E+10	1	-1E+10	1	-1E+10	1	-1E+10	1	-1E+10	1
4902551	95	C	04/01/2023	03:08	-131.217	47.910	0	195.40	0	5.8460	0	33.7220	0	26.564	0	193.670	0	146.9	4	48.3	4	-1E+10	1	-1E+10	1	-1E+10	1	-1E+10	1	-1E+10	1	-1E+10	1
4902551	95	C	04/01/2023	03:08	-131.217	47.910	0	196.30	0	5.8290	0	33.7250	0	26.569	0	194.562	0	145.3	4	47.8	4	-1E+10	1	-1E+10	1	-1E+10	1	-1E+10	1	-1E+10	1	-1E+10	1
4902551	95	C	04/01/2023	03:08	-131.217	47.910	0	197.20	0	5.7960	0	33.7320	0	26.578	0	195.453	0	143.6	4	47.2	4	-1E+10	1	-1E+10	1	-1E+10	1	-1E+10	1	-1E+10	1	-1E+10	1
4902551	95	C	04/01/2023	03:08	-131.217	47.910	0	198.10	0	5.7650	0	33.7350	0	26.584	0	196.345	0	142.0	4	46.6	4	-1E+10	1	-1E+10	1	-1E+10	1	-1E+10	1	-1E+10	1	-1E+10	1
4902551	95	C	04/01/2023	03:08	-131.217	47.910	0	199.10	0	5.7370	0	33.7350	0	26.588	0	197.336	0	140.5	4	46.1	4	-1E+10	1	-1E+10	1	-1E+10	1	-1E+10	1	-1E+10	1	-1E+10	1
4902551	95	C	04/01/2023	03:08	-131.217	47.910	0	200.00	0	5.7130	0	33.7370	0	26.592	0	198.227	0	139.0	4	45.5	4	-1E+10	1	-1E+10	1	-1E+10	1	-1E+10	1	-1E+10	1	-1E+10	1
4902551	95	C	04/01/2023	03:08	-131.217	47.910	0	201.00	0	5.6900	0	33.7400	0	26.597	0	199.218	0	137.5	4	45.0	4	-1E+10	1	-1E+10	1	-1E+10	1	-1E+10	1	-1E+10	1	-1E+10	1
4902551	95	C	04/01/2023	03:08	-131.217	47.910	0	201.90	0	5.6240	0	33.7460	0	26.610	0	200.110	0	136.7	4	44.7	4	-1E+10	1	-1E+10	1	-1E+10	1	-1E+10	1	-1E+10	1	-1E+10	1
4902551	95	C	04/01/2023	03:08	-131.217	47.910	0	202.80	0	5.6060	0	33.7450	0	26.612	0	201.001	0	135.8	4	44.4	4	-1E+10	1	-1E+10	1	-1E+10	1	-1E+10	1	-1E+10	1	-1E+10	1
4902551	95	C	04/01/2023	03:08	-131.217	47.910	0	203.90	0	5.5870	0	33.7480	0	26.616	0	202.091	0	134.4	4	43.9	4	-1E+10	1	-1E+10	1	-1E+10	1	-1E+10	1	-1E+10	1	-1E+10	1
4902551	95	C	04/01/2023	03:08	-131.217	47.910	0	204.90	0	5.5450	0	33.7520	0	26.624	0	203.081	0	133.4	4	43.6	4	-1E+10	1	-1E+10	1	-1E+10	1	-1E+10	1	-1E+10	1	-1E+10	1
4902551	95	C	04/01/2023	03:08	-131.217	47.910	0	206.00	0	5.5240	0	33.7560	0	26.630	0	204.171	0	132.3	4	43.2	4	-1E+10	1	-1E+10	1	-1E+10	1	-1E+10	1	-1E+10	1	-1E+10	1
4902551	95	C	04/01/2023	03:08	-131.217	47.910	0	206.80	0	5.5140	0	33.7560	0	26.631	0	204.964	0	131.6	4	42.9	4	-1E+10	1	-1E+10	1	-1E+10	1	-1E+10	1	-1E+10	1	-1E+10	1
4902551	95	C	04/01/2023	03:08	-131.217	47.910	0	208.00	0	5.5040	0	33.7580	0	26.634	0	206.152	0	130.6	4	42.6	4	-1E+10	1	-1E+10	1	-1E+10	1	-1E+10	1	-1E+10	1	-1E+10	1
4902551	95	C	04/01/2023	03:08	-131.217	47.910	0	209.20	0	5.4940	0	33.7600	0	26.637	0	207.341	0	129.6	4	42.3	4	-1E+10	1	-1E+10	1	-1E+10	1	-1E+10	1	-1E+10	1	-1E+10	1
4902551	95	C	04/01/2023	03:08	-131.217	47.910	0	210.00	0	5.4880	0	33.7610	0	26.638	0	208.134	0	129.0	4	42.1	4	-1E+10	1	-1E+10	1	-1E+10	1	-1E+10	1	-1E+10	1	-1E+10	1
4902551	95	C	04/01/2023	03:08	-131.217	47.910	0	210.80	0	5.4780	0	33.7630	0	26.641	0	208.926	0	128.5	4	41.9	4	-1E+10	1	-1E+10	1	-1E+10	1	-1E+10	1	-1E+10	1	-1E+10	1
4902551	95	C	04/01/2023	03:08	-131.217	47.910	0	212.00	0	5.4670	0	33.7640	0	26.643	0	210.115	0	127.6	4	41.6	4	-1E+10	1	-1E+10	1	-1E+10	1	-1E+10	1	-1E+10	1	-1E+10	1
4902551	95	C	04/01/2023	03:08	-131.217	47.910	0	213.30	0	5.4550	0	33.7670	0	26.647	0	211.403	0	126.8	4	41.3	4	-1E+10	1	-1E+10	1	-1E+10	1	-1E+10	1	-1E+10	1	-1E+10	1
4902551	95	C	04/01/2023	03:08	-131.217	47.910	0	214.10	0	5.4500	0	33.7650	0	26.646	0	212.195	0	126.1	4	41.1	4	-1E+10	1	-1E+10	1	-1E+10	1	-1E+10	1	-1E+10	1	-1E+10	1
4902551	95	C	04/01/2023	03:08	-131.217	47.910	0	214.90	0	5.4430	0	33.7660	0	26.648	0	212.988	0	125.5	4	40.9	4	-1E+10	1	-1E+10	1	-1E+10	1	-1E+10	1	-1E+10	1	-1E+10	1
4902551	95	C	04/01/2023	03:08	-131.217	47.910	0	215.80	0	5.4390	0	33.7670	0	26.649	0	213.879	0	124.9	4	40.7	4	-1E+10	1	-1E+10	1	-1E+10	1	-1E+10	1	-1E+10	1	-1E+10	1
4902551	95	C	04/01/2023	03:08	-131.217	47.910	0	216.60	0	5.4390	0	33.7670	0	26.649	0	214.672	0	124.2	4	40.4	4	-1E+10	1	-1E+10	1	-1E+10	1	-1E+10	1	-1E+10	1	-1E+10	1
4902551	95	C	04/01/2023	03:08	-131.217	47.910	0	217.90	0	5.4370	0	33.7680	0	26.650	0	215.959	0	123.0	4	40.1	4	-1E+10	1	-1E+10	1	-1E+10	1	-1E+10	1	-1E+10	1	-1E+10	1
4902551	95	C	04/01/2023	03:08	-131.217	47.910	0	219.20	0	5.4350	0	33.7740	0	26.655	0	217.247	0	121.9	4	39.7	4	-1E+10	1	-1E+10	1	-1E+10	1	-1E+10	1	-1E+10	1	-1E+10	1
4902551	95	C	04/01/2023	03:08	-131.217	47.910	0	220.10	0	5.4130	0	33.7760	0	26.659	0	218.139	0	121.4	4	39.5	4	-1E+10	1	-1E+10	1	-1E+10	1	-1E+10	1	-1E+10	1	-1E+10	1
4902551	95	C	04/01/2023	03:08	-131.217	47.910	0	220.90	0	5.3930	0	33.7800	0	26.665	0	218.931	0	120.8	4	39.3	4	-1E+10	1	-1E+10	1	-1E+10	1	-1E+10	1	-1E+10	1	-1E+10	1
4902551	95	C	04/01/2023	03:08	-131.217	47.910	0	221.80	0	5.3700	0	33.7750	0	26.663	0	219.823	0	120.3	4	39.1	4	-1E+10	1	-1E+10	1	-1E+10	1	-1E+10	1	-1E+10	1	-1E+10	1
4902551	95	C	04/01/2023	03:08	-131.217	47.910	0	222.70	0	5.3660	0	33.7760	0	26.665	0	220.714	0	119.6	4	38.9	4	-1E+10	1	-1E+10	1	-1E+10	1	-1E+10	1	-1E+10	1	-1E+10	1
4902551	95	C	04/01/2023	03:08	-131.217	47.910	0	223.60	0	5.3610	0	33.7760	0	26.665	0	221.606	0	118.9	4	38.6	4	-1E+10	1	-1E+10	1	-1E+10	1	-1E+10	1	-1E+10	1	-1E+10	1
4902551	95	C	04/01/2023	03:08	-131.217	47.910	0	224.90	0	5.3560	0	33.7760	0	26.666	0	222.893	0	117.7	4	38.3	4	-1E+10	1	-1E+10	1	-1E+10	1	-1E+10	1	-1E+10	1	-1E+10	1
4902551	95	C	04/01/2023	03:08	-131.217	47.910	0	226.30	0	5.3540	0	33.7770	0	26.667	0	224.280	0	116.5	4	37.9	4	-1E+10	1	-1E+10	1	-1E+10	1	-1E+10	1	-1E+10	1	-1E+10	1
4902551	95	C	04/01/2023	03:08	-131.217	47.910	0	227.20	0	5.3500	0	33.7770	0	26.667	0	225.171	0	115.6	4	37.6	4	-1E+10	1	-1E+10	1	-1E+10	1	-1E+10	1	-1E+10	1	-1E+10	1
4902551	95	C	04/01/2023	03:08	-131.217	47.910	0	228.10	0	5.3450	0	33.7780	0	26.669	0	226.063	0	114.8	4	37.3	4	-1E+10	1	-1E+10	1	-1E+10	1	-1E+10	1	-1E+10	1	-1E+10	1
4902551	95	C	04/01/2023	03:08	-131.217	47.910	0	229.00	0	5.3290	0	33.7810	0	26.673	0	226.954	0	114.0	4	37.0	4	-1E+10	1	-1E+10	1	-1E+10	1	-1E+10	1	-1E+10	1	-1E+10	1
4902551	95	C	04/01/2023	03:08	-131.217	47.910	0	230.00	0	5.3180	0	33.7830	0	26.676	0	227.945	0	113.1	4	36.7	4	-1E+10	1	-1E+10	1	-1E+10	1	-1E+10	1	-1E+10	1	-1E+10	1
4902551	95	C	04/01/2023	03:08	-131.217	47.910	0	230.90	0	5.3060	0	33.7860	0	26.680	0	228.836	0	112.3	4	36.5	4	-1E+10	1	-1E+10	1	-1E+10	1	-1E+10	1	-1E+10	1	-1E+10	1
4902551	95	C	04/01/2023	03:08	-131.217	47.910	0	231.80	0	5.2940	0	33.7880	0	26.683	0	229.728	0	111.5	4	36.2	4	-1E+10	1	-1E+10	1	-1E+10	1	-1E+10	1	-1E+10	1	-1E+10	1
4902551	95	C	04/01/2023	03:08	-131.217	47.910	0	232.70	0	5.2910	0	33.7890	0	26.684	0	230.619	0	110.8	4	36.0	4	-1E+10	1	-1E+10	1	-1E+10	1	-1E+10	1	-1E+10	1	-1E+10	1
4902551	95	C	04/01/2023	03:08	-131.217	47.910	0	233.70	0	5.2790	0	33.7940	0	26.689	0	231.610	0	110.1	4	35.7	4	-1E+10	1	-1E+10	1	-1E+10	1	-1E+10	1	-1E+10	1	-1E+10	1
4902551	95	C	04/01/2023	03:08	-131.217	47.910	0	234.60	0	5.2700	0	33.7970	0	26.693	0	232.501	0	109.5	4	35.5	4	-1E+10	1	-1E+10	1	-1E+10	1	-1E+10	1	-1E+10	1	-1E+10	1
4902551	95	C	04/01/2023	03:08	-131.217	47.910	0	235.60	0	5.2650	0	33.7980	0	26.694	0	233.492	0	108.9	4	35.3	4	-1E+10	1	-1E+10	1	-1E+10	1	-1E+10	1	-1E+10	1	-1E+10	1
4902551	95	C	04/01/2023	03:08	-131.217	47.910	0	236.50	0	5.2510	0	33.7990	0	26.697	0	234.383	0	108.2	4	35.1	4	-1E+10	1	-1E+10	1	-1E+10	1	-1E+10	1	-1E+10	1	-1E+10	1
4902551	95	C	04/01/2023	03:08	-131.217	47.910	0	237.90	0	5.2430	0	33.8010	0	26.699	0	235.770	0	107.3	4	34.8	4	-1E+10	1	-1E+10	1	-1E+10	1	-1E+10	1	-1E+10	1	-1E+10	1
4902551	95	C	04/01/2023	03:08	-131.217	47.910	0	239.40	0	5.2540	0	33.8060	0	26.702	0	237.255	0	106.3	4	34.5	4	-1E+10	1	-1E+10	1	-1E+10	1	-1E+10	1	-1E+10	1	-1E+10	1
4902551	95	C	04/01/2023	03:08	-131.217	47.910	0	240.40	0	5.2550	0	33.8090	0	26.704	0	238.246	0	105.8	4	34.3	4	-1E+10	1	-1E+10	1	-1E+10	1	-1E+10	1	-1E+10	1	-1E+10	1
4902551	95	C	04/01/2023	03:08	-131.217	47.910	0	241.30	0	5.2380	0	33.8080	0	26.705	0	239.137	0	105.2	4	34.1	4	-1E+10	1	-1E+10	1	-1E+10	1	-1E+10	1	-1E+10	1	-1E+10	1
4902551	95	C	04/01/2023	03:08	-131.217	47.910	0	242.30	0	5.2210	0	33.8110	0	26.710	0	240.128	0	104.6	4	33.9	4	-1E+10	1	-1E+10	1	-1E+10	1	-1E+10	1	-1E+10	1	-1E+10	1
4902551	95	C	04/01/2023	03:08	-131.217	47.910	0	243.30	0	5.2310	0	33.8190	0	26.715	0	241.118	0	104.2	4	33.8	4	-1E+10	1	-1E+10	1	-1E+10	1	-1E+10	1	-1E+10	1	-1E+10	1
4902551	95	C	04/01/2023	03:08	-131.217	47.910	0	244.30	0	5.2350	0	33.8210	0	26.716	0	242.109	0	103.7	4	33.6	4	-1E+10	1	-1E+10	1	-1E+10	1	-1E+10	1	-1E+10	1	-1E+10	1
4902551	95	C	04/01/2023	03:08	-131.217	47.910	0	245.30	0	5.2410	0	33.8220	0	26.716	0	243.099	0	103.3	4	33.5	4	-1E+10	1	-1E+10	1	-1E+10	1	-1E+10	1	-1E+10	1	-1E+10	1
4902551	95	C	04/01/2023	03:08	-131.217	47.910	0	246.20	0	5.2450	0	33.8230	0	26.716	0	243.991	0	102.9	4	33.4	4	-1E+10	1	-1E+10	1	-1E+10	1	-1E+10	1	-1E+10	1	-1E+10	1
4902551	95	C	04/01/2023	03:08	-131.217	47.910	0	247.20	0	5.2480	0	33.8220	0	26.715	0	244.981	0	102.5	4	33.3	4	-1E+10	1	-1E+10	1	-1E+10	1	-1E+10	1	-1E+10	1	-1E+10	1
4902551	95	C	04/01/2023	03:08	-131.217	47.910	0	248.20	0	5.2300	0	33.8280	0	26.722	0	245.971	0	102.2	4	33.1	4	-1E+10	1	-1E+10	1	-1E+10	1	-1E+10	1	-1E+10	1	-1E+10	1
4902551	95	C	04/01/2023	03:08	-131.217	47.910	0	249.20	0	5.2160	0	33.8260	0	26.722	0	246.962	0	101.8	4	33.0	4	-1E+10	1	-1E+10	1	-1E+10	1	-1E+10	1	-1E+10	1	-1E+10	1
4902551	95	C	04/01/2023	03:08	-131.217	47.910	0	250.20	0	5.2130	0	33.8250	0	26.722	0	247.952	0	101.4	4	32.9	4	-1E+10	1	-1E+10	1	-1E+10	1	-1E+10	1	-1E+10	1	-1E+10	1
4902551	95	C	04/01/2023	03:08	-131.217	47.910	0	251.10	0	5.2110	0	33.8250	0	26.722	0	248.844	0	101.0	4	32.7	4	-1E+10	1	-1E+10	1	-1E+10	1	-1E+10	1	-1E+10	1	-1E+10	1
4902551	95	C	04/01/2023	03:08	-131.217	47.910	0	252.10	0	5.2100	0	33.8260	0	26.723	0	249.834	0	100.5	4	32.6	4	-1E+10	1	-1E+10	1	-1E+10	1	-1E+10	1	-1E+10	1	-1E+10	1
4902551	95	C	04/01/2023	03:08	-131.217	47.910	0	253.10	0	5.2060	0	33.8250	0	26.722	0	250.824	0	100.0	4	32.4	4	-1E+10	1	-1E+10	1	-1E+10	1	-1E+10	1	-1E+10	1	-1E+10	1
4902551	95	C	04/01/2023	03:08	-131.217	47.910	0	254.10	0	5.2040	0	33.8290	0	26.726	0	251.815	0	99.4	4	32.2	4	-1E+10	1	-1E+10	1	-1E+10	1	-1E+10	1	-1E+10	1	-1E+10	1
4902551	95	C	04/01/2023	03:08	-131.217	47.910	0	255.10	0	5.1950	0	33.8320	0	26.729	0	252.805	0	99.0	4	32.1	4	-1E+10	1	-1E+10	1	-1E+10	1	-1E+10	1	-1E+10	1	-1E+10	1
4902551	95	C	04/01/2023	03:08	-131.217	47.910	0	256.10	0	5.1940	0	33.8330	0	26.730	0	253.796	0	98.5	4	31.9	4	-1E+10	1	-1E+10	1	-1E+10	1	-1E+10	1	-1E+10	1	-1E+10	1
4902551	95	C	04/01/2023	03:08	-131.217	47.910	0	257.10	0	5.1920	0	33.8340	0	26.731	0	254.786	0	98.1	4	31.8	4	-1E+10	1	-1E+10	1	-1E+10	1	-1E+10	1	-1E+10	1	-1E+10	1
4902551	95	C	04/01/2023	03:08	-131.217	47.910	0	258.00	0	5.1910	0	33.8340	0	26.731	0	255.677	0	97.7	4	31.6	4	-1E+10	1	-1E+10	1	-1E+10	1	-1E+10	1	-1E+10	1	-1E+10	1
4902551	95	C	04/01/2023	03:08	-131.217	47.910	0	259.00	0	5.1920	0	33.8340	0	26.731	0	256.668	0	97.1	4	31.5	4	-1E+10	1	-1E+10	1	-1E+10	1	-1E+10	1	-1E+10	1	-1E+10	1
4902551	95	C	04/01/2023	03:08	-131.217	47.910	0	260.00	0	5.1860	0	33.8330	0	26.731	0	257.658	0	96.5	4	31.3	4	-1E+10	1	-1E+10	1	-1E+10	1	-1E+10	1	-1E+10	1	-1E+10	1
4902551	95	C	04/01/2023	03:08	-131.217	47.910	0	261.00	0	5.1770	0	33.8380	0	26.736	0	258.649	0	96.0	4	31.1	4	-1E+10	1	-1E+10	1	-1E+10	1	-1E+10	1	-1E+10	1	-1E+10	1
4902551	95	C	04/01/2023	03:08	-131.217	47.910	0	261.90	0	5.1600	0	33.8390	0	26.739	0	259.540	0	95.5	4	30.9	4	-1E+10	1	-1E+10	1	-1E+10	1	-1E+10	1	-1E+10	1	-1E+10	1
4902551	95	C	04/01/2023	03:08	-131.217	47.910	0	262.90	0	5.1390	0	33.8410	0	26.743	0	260.530	0	95.1	4	30.8	4	-1E+10	1	-1E+10	1	-1E+10	1	-1E+10	1	-1E+10	1	-1E+10	1
4902551	95	C	04/01/2023	03:08	-131.217	47.910	0	263.90	0	5.1220	0	33.8410	0	26.745	0	261.521	0	94.7	4	30.6	4	-1E+10	1	-1E+10	1	-1E+10	1	-1E+10	1	-1E+10	1	-1E+10	1
4902551	95	C	04/01/2023	03:08	-131.217	47.910	0	264.80	0	5.1100	0	33.8420	0	26.747	0	262.412	0	94.4	4	30.5	4	-1E+10	1	-1E+10	1	-1E+10	1	-1E+10	1	-1E+10	1	-1E+10	1
4902551	95	C	04/01/2023	03:08	-131.217	47.910	0	265.80	0	5.1100	0	33.8420	0	26.747	0	263.402	0	94.0	4	30.4	4	-1E+10	1	-1E+10	1	-1E+10	1	-1E+10	1	-1E+10	1	-1E+10	1
4902551	95	C	04/01/2023	03:08	-131.217	47.910	0	266.70	0	5.1020	0	33.8440	0	26.750	0	264.294	0	93.5	4	30.2	4	-1E+10	1	-1E+10	1	-1E+10	1	-1E+10	1	-1E+10	1	-1E+10	1
4902551	95	C	04/01/2023	03:08	-131.217	47.910	0	267.70	0	5.0990	0	33.8440	0	26.750	0	265.284	0	93.2	4	30.1	4	-1E+10	1	-1E+10	1	-1E+10	1	-1E+10	1	-1E+10	1	-1E+10	1
4902551	95	C	04/01/2023	03:08	-131.217	47.910	0	268.60	0	5.0970	0	33.8450	0	26.751	0	266.175	0	92.7	4	30.0	4	-1E+10	1	-1E+10	1	-1E+10	1	-1E+10	1	-1E+10	1	-1E+10	1
4902551	95	C	04/01/2023	03:08	-131.217	47.910	0	269.60	0	5.0850	0	33.8460	0	26.753	0	267.165	0	92.3	4	29.8	4	-1E+10	1	-1E+10	1	-1E+10	1	-1E+10	1	-1E+10	1	-1E+10	1
4902551	95	C	04/01/2023	03:08	-131.217	47.910	0	270.90	0	5.0800	0	33.8460	0	26.754	0	268.453	0	91.7	4	29.6	4	-1E+10	1	-1E+10	1	-1E+10	1	-1E+10	1	-1E+10	1	-1E+10	1
4902551	95	C	04/01/2023	03:08	-131.217	47.910	0	272.30	0	5.0740	0	33.8480	0	26.756	0	269.839	0	91.0	4	29.4	4	-1E+10	1	-1E+10	1	-1E+10	1	-1E+10	1	-1E+10	1	-1E+10	1
4902551	95	C	04/01/2023	03:08	-131.217	47.910	0	273.30	0	5.0710	0	33.8480	0	26.756	0	270.830	0	90.4	4	29.2	4	-1E+10	1	-1E+10	1	-1E+10	1	-1E+10	1	-1E+10	1	-1E+10	1
4902551	95	C	04/01/2023	03:08	-131.217	47.910	0	274.20	0	5.0680	0	33.8490	0	26.758	0	271.721	0	89.9	4	29.1	4	-1E+10	1	-1E+10	1	-1E+10	1	-1E+10	1	-1E+10	1	-1E+10	1
4902551	95	C	04/01/2023	03:08	-131.217	47.910	0	275.10	0	5.0630	0	33.8510	0	26.760	0	272.612	0	89.4	4	28.9	4	-1E+10	1	-1E+10	1	-1E+10	1	-1E+10	1	-1E+10	1	-1E+10	1
4902551	95	C	04/01/2023	03:08	-131.217	47.910	0	276.00	0	5.0530	0	33.8510	0	26.761	0	273.503	0	88.9	4	28.7	4	-1E+10	1	-1E+10	1	-1E+10	1	-1E+10	1	-1E+10	1	-1E+10	1
4902551	95	C	04/01/2023	03:08	-131.217	47.910	0	277.00	0	5.0460	0	33.8510	0	26.762	0	274.494	0	88.4	4	28.5	4	-1E+10	1	-1E+10	1	-1E+10	1	-1E+10	1	-1E+10	1	-1E+10	1
4902551	95	C	04/01/2023	03:08	-131.217	47.910	0	277.90	0	5.0380	0	33.8520	0	26.763	0	275.385	0	87.9	4	28.4	4	-1E+10	1	-1E+10	1	-1E+10	1	-1E+10	1	-1E+10	1	-1E+10	1
4902551	95	C	04/01/2023	03:08	-131.217	47.910	0	278.80	0	5.0280	0	33.8520	0	26.765	0	276.276	0	87.3	4	28.2	4	-1E+10	1	-1E+10	1	-1E+10	1	-1E+10	1	-1E+10	1	-1E+10	1
4902551	95	C	04/01/2023	03:08	-131.217	47.910	0	279.70	0	4.9910	0	33.8540	0	26.770	0	277.168	0	86.8	4	28.0	4	-1E+10	1	-1E+10	1	-1E+10	1	-1E+10	1	-1E+10	1	-1E+10	1
4902551	95	C	04/01/2023	03:08	-131.217	47.910	0	280.60	0	4.9770	0	33.8520	0	26.770	0	278.059	0	86.3	4	27.8	4	-1E+10	1	-1E+10	1	-1E+10	1	-1E+10	1	-1E+10	1	-1E+10	1
4902551	95	C	04/01/2023	03:08	-131.217	47.910	0	281.90	0	4.9570	0	33.8550	0	26.775	0	279.346	0	85.5	4	27.6	4	-1E+10	1	-1E+10	1	-1E+10	1	-1E+10	1	-1E+10	1	-1E+10	1
4902551	95	C	04/01/2023	03:08	-131.217	47.910	0	283.40	0	4.9410	0	33.8580	0	26.779	0	280.832	0	84.8	4	27.3	4	-1E+10	1	-1E+10	1	-1E+10	1	-1E+10	1	-1E+10	1	-1E+10	1
4902551	95	C	04/01/2023	03:08	-131.217	47.910	0	284.30	0	4.9340	0	33.8590	0	26.781	0	281.723	0	84.4	4	27.2	4	-1E+10	1	-1E+10	1	-1E+10	1	-1E+10	1	-1E+10	1	-1E+10	1
4902551	95	C	04/01/2023	03:08	-131.217	47.910	0	285.20	0	4.9310	0	33.8590	0	26.781	0	282.614	0	83.9	4	27.0	4	-1E+10	1	-1E+10	1	-1E+10	1	-1E+10	1	-1E+10	1	-1E+10	1
4902551	95	C	04/01/2023	03:08	-131.217	47.910	0	286.10	0	4.9310	0	33.8600	0	26.782	0	283.505	0	83.5	4	26.9	4	-1E+10	1	-1E+10	1	-1E+10	1	-1E+10	1	-1E+10	1	-1E+10	1
4902551	95	C	04/01/2023	03:08	-131.217	47.910	0	287.00	0	4.9280	0	33.8600	0	26.782	0	284.396	0	83.0	4	26.7	4	-1E+10	1	-1E+10	1	-1E+10	1	-1E+10	1	-1E+10	1	-1E+10	1
4902551	95	C	04/01/2023	03:08	-131.217	47.910	0	287.90	0	4.9240	0	33.8620	0	26.784	0	285.288	0	82.4	4	26.5	4	-1E+10	1	-1E+10	1	-1E+10	1	-1E+10	1	-1E+10	1	-1E+10	1
4902551	95	C	04/01/2023	03:08	-131.217	47.910	0	288.80	0	4.9190	0	33.8610	0	26.784	0	286.179	0	81.9	4	26.4	4	-1E+10	1	-1E+10	1	-1E+10	1	-1E+10	1	-1E+10	1	-1E+10	1
4902551	95	C	04/01/2023	03:08	-131.217	47.910	0	289.80	0	4.9150	0	33.8610	0	26.785	0	287.169	0	81.2	4	26.2	4	-1E+10	1	-1E+10	1	-1E+10	1	-1E+10	1	-1E+10	1	-1E+10	1
4902551	95	C	04/01/2023	03:08	-131.217	47.910	0	290.70	0	4.9130	0	33.8670	0	26.789	0	288.060	0	80.7	4	26.0	4	-1E+10	1	-1E+10	1	-1E+10	1	-1E+10	1	-1E+10	1	-1E+10	1
4902551	95	C	04/01/2023	03:08	-131.217	47.910	0	291.60	0	4.9090	0	33.8670	0	26.790	0	288.951	0	80.1	4	25.8	4	-1E+10	1	-1E+10	1	-1E+10	1	-1E+10	1	-1E+10	1	-1E+10	1
4902551	95	C	04/01/2023	03:08	-131.217	47.910	0	292.90	0	4.8960	0	33.8720	0	26.795	0	290.239	0	79.5	4	25.6	4	-1E+10	1	-1E+10	1	-1E+10	1	-1E+10	1	-1E+10	1	-1E+10	1
4902551	95	C	04/01/2023	03:08	-131.217	47.910	0	294.30	0	4.8940	0	33.8730	0	26.796	0	291.625	0	78.9	4	25.4	4	-1E+10	1	-1E+10	1	-1E+10	1	-1E+10	1	-1E+10	1	-1E+10	1
4902551	95	C	04/01/2023	03:08	-131.217	47.910	0	295.20	0	4.8890	0	33.8740	0	26.798	0	292.516	0	78.4	4	25.2	4	-1E+10	1	-1E+10	1	-1E+10	1	-1E+10	1	-1E+10	1	-1E+10	1
4902551	95	C	04/01/2023	03:08	-131.217	47.910	0	296.10	0	4.8830	0	33.8750	0	26.799	0	293.407	0	78.0	4	25.1	4	-1E+10	1	-1E+10	1	-1E+10	1	-1E+10	1	-1E+10	1	-1E+10	1
4902551	95	C	04/01/2023	03:08	-131.217	47.910	0	297.00	0	4.8770	0	33.8760	0	26.801	0	294.299	0	77.6	4	25.0	4	-1E+10	1	-1E+10	1	-1E+10	1	-1E+10	1	-1E+10	1	-1E+10	1
4902551	95	C	04/01/2023	03:08	-131.217	47.910	0	298.00	0	4.8690	0	33.8780	0	26.803	0	295.289	0	77.2	4	24.8	4	-1E+10	1	-1E+10	1	-1E+10	1	-1E+10	1	-1E+10	1	-1E+10	1
4902551	95	C	04/01/2023	03:08	-131.217	47.910	0	298.90	0	4.8730	0	33.8790	0	26.804	0	296.180	0	76.8	4	24.7	4	-1E+10	1	-1E+10	1	-1E+10	1	-1E+10	1	-1E+10	1	-1E+10	1
4902551	95	C	04/01/2023	03:08	-131.217	47.910	0	299.80	0	4.8690	0	33.8810	0	26.806	0	297.071	0	76.4	4	24.6	4	-1E+10	1	-1E+10	1	-1E+10	1	-1E+10	1	-1E+10	1	-1E+10	1
4902551	95	C	04/01/2023	03:08	-131.217	47.910	0	300.80	0	4.8510	0	33.8810	0	26.808	0	298.061	0	76.1	4	24.5	4	-1E+10	1	-1E+10	1	-1E+10	1	-1E+10	1	-1E+10	1	-1E+10	1
4902551	95	C	04/01/2023	03:08	-131.217	47.910	0	301.70	0	4.8530	0	33.8830	0	26.809	0	298.952	0	75.7	4	24.3	4	-1E+10	1	-1E+10	1	-1E+10	1	-1E+10	1	-1E+10	1	-1E+10	1
4902551	95	C	04/01/2023	03:08	-131.217	47.910	0	302.70	0	4.8520	0	33.8830	0	26.809	0	299.943	0	75.3	4	24.2	4	-1E+10	1	-1E+10	1	-1E+10	1	-1E+10	1	-1E+10	1	-1E+10	1
4902551	95	C	04/01/2023	03:08	-131.217	47.910	0	303.60	0	4.8460	0	33.8840	0	26.811	0	300.834	0	75.0	4	24.1	4	-1E+10	1	-1E+10	1	-1E+10	1	-1E+10	1	-1E+10	1	-1E+10	1
4902551	95	C	04/01/2023	03:08	-131.217	47.910	0	304.60	0	4.8170	0	33.8870	0	26.816	0	301.824	0	74.8	4	24.0	4	-1E+10	1	-1E+10	1	-1E+10	1	-1E+10	1	-1E+10	1	-1E+10	1
4902551	95	C	04/01/2023	03:08	-131.217	47.910	0	305.60	0	4.8000	0	33.8860	0	26.817	0	302.814	0	74.6	4	24.0	4	-1E+10	1	-1E+10	1	-1E+10	1	-1E+10	1	-1E+10	1	-1E+10	1
4902551	95	C	04/01/2023	03:08	-131.217	47.910	0	306.50	0	4.7850	0	33.8850	0	26.818	0	303.705	0	74.4	4	23.9	4	-1E+10	1	-1E+10	1	-1E+10	1	-1E+10	1	-1E+10	1	-1E+10	1
4902551	95	C	04/01/2023	03:08	-131.217	47.910	0	307.50	0	4.7660	0	33.8830	0	26.819	0	304.695	0	74.1	4	23.8	4	-1E+10	1	-1E+10	1	-1E+10	1	-1E+10	1	-1E+10	1	-1E+10	1
4902551	95	C	04/01/2023	03:08	-131.217	47.910	0	308.50	0	4.7580	0	33.8830	0	26.820	0	305.686	0	73.9	4	23.7	4	-1E+10	1	-1E+10	1	-1E+10	1	-1E+10	1	-1E+10	1	-1E+10	1
4902551	95	C	04/01/2023	03:08	-131.217	47.910	0	309.50	0	4.7550	0	33.8830	0	26.820	0	306.676	0	73.5	4	23.6	4	-1E+10	1	-1E+10	1	-1E+10	1	-1E+10	1	-1E+10	1	-1E+10	1
4902551	95	C	04/01/2023	03:08	-131.217	47.910	0	310.50	0	4.7610	0	33.8840	0	26.820	0	307.666	0	73.3	4	23.5	4	-1E+10	1	-1E+10	1	-1E+10	1	-1E+10	1	-1E+10	1	-1E+10	1
4902551	95	C	04/01/2023	03:08	-131.217	47.910	0	311.50	0	4.7610	0	33.8850	0	26.821	0	308.656	0	73.0	4	23.4	4	-1E+10	1	-1E+10	1	-1E+10	1	-1E+10	1	-1E+10	1	-1E+10	1
4902551	95	C	04/01/2023	03:08	-131.217	47.910	0	312.50	0	4.7520	0	33.8860	0	26.823	0	309.646	0	72.6	4	23.3	4	-1E+10	1	-1E+10	1	-1E+10	1	-1E+10	1	-1E+10	1	-1E+10	1
4902551	95	C	04/01/2023	03:08	-131.217	47.910	0	313.50	0	4.7520	0	33.8870	0	26.823	0	310.636	0	72.3	4	23.2	4	-1E+10	1	-1E+10	1	-1E+10	1	-1E+10	1	-1E+10	1	-1E+10	1
4902551	95	C	04/01/2023	03:08	-131.217	47.910	0	314.50	0	4.7530	0	33.8870	0	26.823	0	311.626	0	71.9	4	23.1	4	-1E+10	1	-1E+10	1	-1E+10	1	-1E+10	1	-1E+10	1	-1E+10	1
4902551	95	C	04/01/2023	03:08	-131.217	47.910	0	315.50	0	4.7590	0	33.8890	0	26.824	0	312.616	0	71.6	4	23.0	4	-1E+10	1	-1E+10	1	-1E+10	1	-1E+10	1	-1E+10	1	-1E+10	1
4902551	95	C	04/01/2023	03:08	-131.217	47.910	0	316.60	0	4.7700	0	33.8930	0	26.826	0	313.705	0	71.2	4	22.9	4	-1E+10	1	-1E+10	1	-1E+10	1	-1E+10	1	-1E+10	1	-1E+10	1
4902551	95	C	04/01/2023	03:08	-131.217	47.910	0	317.60	0	4.7700	0	33.8930	0	26.826	0	314.696	0	70.9	4	22.7	4	-1E+10	1	-1E+10	1	-1E+10	1	-1E+10	1	-1E+10	1	-1E+10	1
4902551	95	C	04/01/2023	03:08	-131.217	47.910	0	318.60	0	4.7740	0	33.8940	0	26.827	0	315.686	0	70.5	4	22.6	4	-1E+10	1	-1E+10	1	-1E+10	1	-1E+10	1	-1E+10	1	-1E+10	1
4902551	95	C	04/01/2023	03:08	-131.217	47.910	0	319.60	0	4.7760	0	33.8940	0	26.826	0	316.676	0	70.1	4	22.5	4	-1E+10	1	-1E+10	1	-1E+10	1	-1E+10	1	-1E+10	1	-1E+10	1
4902551	95	C	04/01/2023	03:08	-131.217	47.910	0	320.60	0	4.7710	0	33.8950	0	26.828	0	317.666	0	69.7	4	22.4	4	-1E+10	1	-1E+10	1	-1E+10	1	-1E+10	1	-1E+10	1	-1E+10	1
4902551	95	C	04/01/2023	03:08	-131.217	47.910	0	321.70	0	4.7360	0	33.9000	0	26.836	0	318.755	0	69.3	4	22.2	4	-1E+10	1	-1E+10	1	-1E+10	1	-1E+10	1	-1E+10	1	-1E+10	1
4902551	95	C	04/01/2023	03:08	-131.217	47.910	0	322.70	0	4.7080	0	33.8950	0	26.835	0	319.745	0	68.9	4	22.1	4	-1E+10	1	-1E+10	1	-1E+10	1	-1E+10	1	-1E+10	1	-1E+10	1
4902551	95	C	04/01/2023	03:08	-131.217	47.910	0	323.70	0	4.7210	0	33.8950	0	26.833	0	320.735	0	68.5	4	21.9	4	-1E+10	1	-1E+10	1	-1E+10	1	-1E+10	1	-1E+10	1	-1E+10	1
4902551	95	C	04/01/2023	03:08	-131.217	47.910	0	324.70	0	4.7190	0	33.9040	0	26.841	0	321.725	0	68.1	4	21.8	4	-1E+10	1	-1E+10	1	-1E+10	1	-1E+10	1	-1E+10	1	-1E+10	1
4902551	95	C	04/01/2023	03:08	-131.217	47.910	0	325.60	0	4.7200	0	33.9020	0	26.839	0	322.616	0	67.7	4	21.7	4	-1E+10	1	-1E+10	1	-1E+10	1	-1E+10	1	-1E+10	1	-1E+10	1
4902551	95	C	04/01/2023	03:08	-131.217	47.910	0	326.80	0	4.7290	0	33.9060	0	26.841	0	323.804	0	67.4	4	21.6	4	-1E+10	1	-1E+10	1	-1E+10	1	-1E+10	1	-1E+10	1	-1E+10	1
4902551	95	C	04/01/2023	03:08	-131.217	47.910	0	327.90	0	4.7240	0	33.9060	0	26.842	0	324.893	0	67.0	4	21.5	4	-1E+10	1	-1E+10	1	-1E+10	1	-1E+10	1	-1E+10	1	-1E+10	1
4902551	95	C	04/01/2023	03:08	-131.217	47.910	0	329.10	0	4.7220	0	33.9070	0	26.843	0	326.081	0	66.5	4	21.3	4	-1E+10	1	-1E+10	1	-1E+10	1	-1E+10	1	-1E+10	1	-1E+10	1
4902551	95	C	04/01/2023	03:08	-131.217	47.910	0	329.90	0	4.7220	0	33.9080	0	26.844	0	326.873	0	66.2	4	21.2	4	-1E+10	1	-1E+10	1	-1E+10	1	-1E+10	1	-1E+10	1	-1E+10	1
4902551	95	C	04/01/2023	03:08	-131.217	47.910	0	331.00	0	4.7300	0	33.9090	0	26.844	0	327.962	0	65.7	4	21.1	4	-1E+10	1	-1E+10	1	-1E+10	1	-1E+10	1	-1E+10	1	-1E+10	1
4902551	95	C	04/01/2023	03:08	-131.217	47.910	0	332.20	0	4.7500	0	33.9160	0	26.847	0	329.150	0	65.3	4	21.0	4	-1E+10	1	-1E+10	1	-1E+10	1	-1E+10	1	-1E+10	1	-1E+10	1
4902551	95	C	04/01/2023	03:08	-131.217	47.910	0	333.00	0	4.7440	0	33.9220	0	26.852	0	329.942	0	65.2	4	20.9	4	-1E+10	1	-1E+10	1	-1E+10	1	-1E+10	1	-1E+10	1	-1E+10	1
4902551	95	C	04/01/2023	03:08	-131.217	47.910	0	333.80	0	4.7300	0	33.9200	0	26.852	0	330.735	0	65.0	4	20.8	4	-1E+10	1	-1E+10	1	-1E+10	1	-1E+10	1	-1E+10	1	-1E+10	1
4902551	95	C	04/01/2023	03:08	-131.217	47.910	0	335.00	0	4.7170	0	33.9190	0	26.853	0	331.923	0	64.8	4	20.8	4	-1E+10	1	-1E+10	1	-1E+10	1	-1E+10	1	-1E+10	1	-1E+10	1
4902551	95	C	04/01/2023	03:08	-131.217	47.910	0	336.20	0	4.7050	0	33.9170	0	26.853	0	333.111	0	64.5	4	20.7	4	-1E+10	1	-1E+10	1	-1E+10	1	-1E+10	1	-1E+10	1	-1E+10	1
4902551	95	C	04/01/2023	03:08	-131.217	47.910	0	337.00	0	4.6990	0	33.9170	0	26.853	0	333.903	0	64.2	4	20.6	4	-1E+10	1	-1E+10	1	-1E+10	1	-1E+10	1	-1E+10	1	-1E+10	1
4902551	95	C	04/01/2023	03:08	-131.217	47.910	0	337.80	0	4.6900	0	33.9160	0	26.854	0	334.695	0	63.9	4	20.5	4	-1E+10	1	-1E+10	1	-1E+10	1	-1E+10	1	-1E+10	1	-1E+10	1
4902551	95	C	04/01/2023	03:08	-131.217	47.910	0	338.90	0	4.6820	0	33.9100	0	26.850	0	335.784	0	63.4	4	20.3	4	-1E+10	1	-1E+10	1	-1E+10	1	-1E+10	1	-1E+10	1	-1E+10	1
4902551	95	C	04/01/2023	03:08	-131.217	47.910	0	340.10	0	4.6670	0	33.9140	0	26.854	0	336.972	0	62.9	4	20.1	4	-1E+10	1	-1E+10	1	-1E+10	1	-1E+10	1	-1E+10	1	-1E+10	1
4902551	95	C	04/01/2023	03:08	-131.217	47.910	0	340.90	0	4.6720	0	33.9150	0	26.855	0	337.764	0	62.5	4	20.0	4	-1E+10	1	-1E+10	1	-1E+10	1	-1E+10	1	-1E+10	1	-1E+10	1
4902551	95	C	04/01/2023	03:08	-131.217	47.910	0	342.00	0	4.6610	0	33.9170	0	26.858	0	338.853	0	62.0	4	19.9	4	-1E+10	1	-1E+10	1	-1E+10	1	-1E+10	1	-1E+10	1	-1E+10	1
4902551	95	C	04/01/2023	03:08	-131.217	47.910	0	343.20	0	4.6910	0	33.9210	0	26.857	0	340.040	0	61.6	4	19.7	4	-1E+10	1	-1E+10	1	-1E+10	1	-1E+10	1	-1E+10	1	-1E+10	1
4902551	95	C	04/01/2023	03:08	-131.217	47.910	0	344.00	0	4.6960	0	33.9300	0	26.864	0	340.832	0	61.3	4	19.6	4	-1E+10	1	-1E+10	1	-1E+10	1	-1E+10	1	-1E+10	1	-1E+10	1
4902551	95	C	04/01/2023	03:08	-131.217	47.910	0	344.80	0	4.7180	0	33.9330	0	26.864	0	341.624	0	61.1	4	19.6	4	-1E+10	1	-1E+10	1	-1E+10	1	-1E+10	1	-1E+10	1	-1E+10	1
4902551	95	C	04/01/2023	03:08	-131.217	47.910	0	346.00	0	4.7080	0	33.9340	0	26.866	0	342.812	0	60.8	4	19.5	4	-1E+10	1	-1E+10	1	-1E+10	1	-1E+10	1	-1E+10	1	-1E+10	1
4902551	95	C	04/01/2023	03:08	-131.217	47.910	0	347.20	0	4.6920	0	33.9330	0	26.867	0	344.000	0	60.5	4	19.4	4	-1E+10	1	-1E+10	1	-1E+10	1	-1E+10	1	-1E+10	1	-1E+10	1
4902551	95	C	04/01/2023	03:08	-131.217	47.910	0	348.00	0	4.6880	0	33.9320	0	26.867	0	344.792	0	60.3	4	19.3	4	-1E+10	1	-1E+10	1	-1E+10	1	-1E+10	1	-1E+10	1	-1E+10	1
4902551	95	C	04/01/2023	03:08	-131.217	47.910	0	348.90	0	4.6420	0	33.9370	0	26.876	0	345.683	0	60.2	4	19.3	4	-1E+10	1	-1E+10	1	-1E+10	1	-1E+10	1	-1E+10	1	-1E+10	1
4902551	95	C	04/01/2023	03:08	-131.217	47.910	0	349.70	0	4.6210	0	33.9340	0	26.875	0	346.475	0	60.1	4	19.2	4	-1E+10	1	-1E+10	1	-1E+10	1	-1E+10	1	-1E+10	1	-1E+10	1
4902551	95	C	04/01/2023	03:08	-131.217	47.910	0	352.50	0	4.6030	0	33.9330	0	26.877	0	349.247	0	59.4	4	19.0	4	-1E+10	1	-1E+10	1	-1E+10	1	-1E+10	1	-1E+10	1	-1E+10	1
4902551	95	C	04/01/2023	03:08	-131.217	47.910	0	357.60	0	4.5080	0	33.9350	0	26.889	0	354.296	0	58.4	4	18.6	4	-1E+10	1	-1E+10	1	-1E+10	1	-1E+10	1	-1E+10	1	-1E+10	1
4902551	95	C	04/01/2023	03:08	-131.217	47.910	0	362.80	0	4.4480	0	33.9320	0	26.893	0	359.443	0	57.2	4	18.2	4	-1E+10	1	-1E+10	1	-1E+10	1	-1E+10	1	-1E+10	1	-1E+10	1
4902551	95	C	04/01/2023	03:08	-131.217	47.910	0	367.80	0	4.4330	0	33.9390	0	26.900	0	364.392	0	55.8	4	17.8	4	-1E+10	1	-1E+10	1	-1E+10	1	-1E+10	1	-1E+10	1	-1E+10	1
4902551	95	C	04/01/2023	03:08	-131.217	47.910	0	372.80	0	4.4390	0	33.9510	0	26.909	0	369.342	0	54.8	4	17.5	4	-1E+10	1	-1E+10	1	-1E+10	1	-1E+10	1	-1E+10	1	-1E+10	1
4902551	95	C	04/01/2023	03:08	-131.217	47.910	0	377.80	0	4.4390	0	33.9540	0	26.911	0	374.291	0	54.0	4	17.2	4	-1E+10	1	-1E+10	1	-1E+10	1	-1E+10	1	-1E+10	1	-1E+10	1
4902551	95	C	04/01/2023	03:08	-131.217	47.910	0	382.90	0	4.4470	0	33.9590	0	26.914	0	379.339	0	53.0	4	16.9	4	-1E+10	1	-1E+10	1	-1E+10	1	-1E+10	1	-1E+10	1	-1E+10	1
4902551	95	C	04/01/2023	03:08	-131.217	47.910	0	388.20	0	4.4650	0	33.9650	0	26.917	0	384.584	0	51.6	4	16.5	4	-1E+10	1	-1E+10	1	-1E+10	1	-1E+10	1	-1E+10	1	-1E+10	1
4902551	95	C	04/01/2023	03:08	-131.217	47.910	0	393.10	0	4.4610	0	33.9750	0	26.926	0	389.434	0	50.8	4	16.2	4	-1E+10	1	-1E+10	1	-1E+10	1	-1E+10	1	-1E+10	1	-1E+10	1
4902551	95	C	04/01/2023	03:08	-131.217	47.910	0	398.00	0	4.4310	0	33.9780	0	26.931	0	394.284	0	50.0	4	15.9	4	-1E+10	1	-1E+10	1	-1E+10	1	-1E+10	1	-1E+10	1	-1E+10	1
4902551	95	C	04/01/2023	03:08	-131.217	47.910	0	402.90	0	4.4130	0	33.9820	0	26.936	0	399.133	0	49.4	4	15.7	4	-1E+10	1	-1E+10	1	-1E+10	1	-1E+10	1	-1E+10	1	-1E+10	1
4902551	95	C	04/01/2023	03:08	-131.217	47.910	0	407.80	0	4.3890	0	33.9840	0	26.941	0	403.983	0	48.7	4	15.5	4	-1E+10	1	-1E+10	1	-1E+10	1	-1E+10	1	-1E+10	1	-1E+10	1
4902551	95	C	04/01/2023	03:08	-131.217	47.910	0	412.90	0	4.3770	0	33.9880	0	26.945	0	409.030	0	47.8	4	15.2	4	-1E+10	1	-1E+10	1	-1E+10	1	-1E+10	1	-1E+10	1	-1E+10	1
4902551	95	C	04/01/2023	03:08	-131.217	47.910	0	418.00	0	4.3790	0	33.9940	0	26.950	0	414.077	0	46.8	4	14.9	4	-1E+10	1	-1E+10	1	-1E+10	1	-1E+10	1	-1E+10	1	-1E+10	1
4902551	95	C	04/01/2023	03:08	-131.217	47.910	0	423.20	0	4.3810	0	33.9980	0	26.953	0	419.223	0	45.6	4	14.5	4	-1E+10	1	-1E+10	1	-1E+10	1	-1E+10	1	-1E+10	1	-1E+10	1
4902551	95	C	04/01/2023	03:08	-131.217	47.910	0	428.00	0	4.3810	0	34.0060	0	26.959	0	423.973	0	44.7	4	14.2	4	-1E+10	1	-1E+10	1	-1E+10	1	-1E+10	1	-1E+10	1	-1E+10	1
4902551	95	C	04/01/2023	03:08	-131.217	47.910	0	432.80	0	4.3790	0	34.0090	0	26.962	0	428.723	0	43.7	4	13.9	4	-1E+10	1	-1E+10	1	-1E+10	1	-1E+10	1	-1E+10	1	-1E+10	1
4902551	95	C	04/01/2023	03:08	-131.217	47.910	0	438.20	0	4.3720	0	34.0150	0	26.967	0	434.067	0	42.6	4	13.6	4	-1E+10	1	-1E+10	1	-1E+10	1	-1E+10	1	-1E+10	1	-1E+10	1
4902551	95	C	04/01/2023	03:08	-131.217	47.910	0	443.10	0	4.3680	0	34.0190	0	26.971	0	438.915	0	41.7	4	13.3	4	-1E+10	1	-1E+10	1	-1E+10	1	-1E+10	1	-1E+10	1	-1E+10	1
4902551	95	C	04/01/2023	03:08	-131.217	47.910	0	447.60	0	4.3630	0	34.0240	0	26.975	0	443.368	0	40.8	4	13.0	4	-1E+10	1	-1E+10	1	-1E+10	1	-1E+10	1	-1E+10	1	-1E+10	1
4902551	95	C	04/01/2023	03:08	-131.217	47.910	0	452.70	0	4.3500	0	34.0310	0	26.982	0	448.414	0	40.1	4	12.8	4	-1E+10	1	-1E+10	1	-1E+10	1	-1E+10	1	-1E+10	1	-1E+10	1
4902551	95	C	04/01/2023	03:08	-131.217	47.910	0	458.10	0	4.3290	0	34.0350	0	26.988	0	453.757	0	39.6	4	12.6	4	-1E+10	1	-1E+10	1	-1E+10	1	-1E+10	1	-1E+10	1	-1E+10	1
4902551	95	C	04/01/2023	03:08	-131.217	47.910	0	463.30	0	4.3080	0	34.0380	0	26.992	0	458.902	0	39.1	4	12.4	4	-1E+10	1	-1E+10	1	-1E+10	1	-1E+10	1	-1E+10	1	-1E+10	1
4902551	95	C	04/01/2023	03:08	-131.217	47.910	0	467.90	0	4.2840	0	34.0440	0	27.000	0	463.453	0	38.8	4	12.3	4	-1E+10	1	-1E+10	1	-1E+10	1	-1E+10	1	-1E+10	1	-1E+10	1
4902551	95	C	04/01/2023	03:08	-131.217	47.910	0	472.80	0	4.2780	0	34.0440	0	27.000	0	468.301	0	38.6	4	12.3	4	-1E+10	1	-1E+10	1	-1E+10	1	-1E+10	1	-1E+10	1	-1E+10	1
4902551	95	C	04/01/2023	03:08	-131.217	47.910	0	477.80	0	4.2710	0	34.0440	0	27.001	0	473.248	0	38.2	4	12.1	4	-1E+10	1	-1E+10	1	-1E+10	1	-1E+10	1	-1E+10	1	-1E+10	1
4902551	95	C	04/01/2023	03:08	-131.217	47.910	0	482.70	0	4.2660	0	34.0460	0	27.003	0	478.096	0	37.4	4	11.9	4	-1E+10	1	-1E+10	1	-1E+10	1	-1E+10	1	-1E+10	1	-1E+10	1
4902551	95	C	04/01/2023	03:08	-131.217	47.910	0	488.00	0	4.2500	0	34.0510	0	27.009	0	483.339	0	36.2	4	11.5	4	-1E+10	1	-1E+10	1	-1E+10	1	-1E+10	1	-1E+10	1	-1E+10	1
4902551	95	C	04/01/2023	03:08	-131.217	47.910	0	493.30	0	4.2370	0	34.0630	0	27.020	0	488.582	0	35.3	4	11.2	4	-1E+10	1	-1E+10	1	-1E+10	1	-1E+10	1	-1E+10	1	-1E+10	1
4902551	95	C	04/01/2023	03:08	-131.217	47.910	0	498.20	0	4.2310	0	34.0650	0	27.022	0	493.429	0	35.3	4	11.2	4	-1E+10	1	-1E+10	1	-1E+10	1	-1E+10	1	-1E+10	1	-1E+10	1
4902551	95	C	04/01/2023	03:08	-131.217	47.910	0	503.20	0	4.2050	0	34.0650	0	27.025	0	498.375	0	35.2	4	11.2	4	-1E+10	1	-1E+10	1	-1E+10	1	-1E+10	1	-1E+10	1	-1E+10	1
4902551	95	C	04/01/2023	03:08	-131.217	47.910	0	508.20	0	4.1840	0	34.0680	0	27.030	0	503.321	0	34.6	4	11.0	4	-1E+10	1	-1E+10	1	-1E+10	1	-1E+10	1	-1E+10	1	-1E+10	1
4902551	95	C	04/01/2023	03:08	-131.217	47.910	0	512.90	0	4.1680	0	34.0700	0	27.033	0	507.971	0	33.9	4	10.7	4	-1E+10	1	-1E+10	1	-1E+10	1	-1E+10	1	-1E+10	1	-1E+10	1
4902551	95	C	04/01/2023	03:08	-131.217	47.910	0	517.70	0	4.1440	0	34.0790	0	27.043	0	512.719	0	33.3	4	10.5	4	-1E+10	1	-1E+10	1	-1E+10	1	-1E+10	1	-1E+10	1	-1E+10	1
4902551	95	C	04/01/2023	03:08	-131.217	47.910	0	522.90	0	4.1390	0	34.0810	0	27.045	0	517.862	0	32.8	4	10.4	4	-1E+10	1	-1E+10	1	-1E+10	1	-1E+10	1	-1E+10	1	-1E+10	1
4902551	95	C	04/01/2023	03:08	-131.217	47.910	0	527.90	0	4.1290	0	34.0830	0	27.047	0	522.808	0	32.3	4	10.2	4	-1E+10	1	-1E+10	1	-1E+10	1	-1E+10	1	-1E+10	1	-1E+10	1
4902551	95	C	04/01/2023	03:08	-131.217	47.910	0	532.90	0	4.1080	0	34.0870	0	27.053	0	527.753	0	31.6	4	10.0	4	-1E+10	1	-1E+10	1	-1E+10	1	-1E+10	1	-1E+10	1	-1E+10	1
4902551	95	C	04/01/2023	03:08	-131.217	47.910	0	538.10	0	4.1080	0	34.0910	0	27.056	0	532.896	0	30.8	4	9.7	4	-1E+10	1	-1E+10	1	-1E+10	1	-1E+10	1	-1E+10	1	-1E+10	1
4902551	95	C	04/01/2023	03:08	-131.217	47.910	0	542.90	0	4.1000	0	34.0960	0	27.061	0	537.644	0	30.2	4	9.6	4	-1E+10	1	-1E+10	1	-1E+10	1	-1E+10	1	-1E+10	1	-1E+10	1
4902551	95	C	04/01/2023	03:08	-131.217	47.910	0	547.60	0	4.0940	0	34.0980	0	27.063	0	542.292	0	29.6	4	9.4	4	-1E+10	1	-1E+10	1	-1E+10	1	-1E+10	1	-1E+10	1	-1E+10	1
4902551	95	C	04/01/2023	03:08	-131.217	47.910	0	552.90	0	4.0810	0	34.1040	0	27.069	0	547.534	0	28.9	4	9.2	4	-1E+10	1	-1E+10	1	-1E+10	1	-1E+10	1	-1E+10	1	-1E+10	1
4902551	95	C	04/01/2023	03:08	-131.217	47.910	0	558.40	0	4.0680	0	34.1080	0	27.074	0	552.973	0	28.3	4	8.9	4	-1E+10	1	-1E+10	1	-1E+10	1	-1E+10	1	-1E+10	1	-1E+10	1
4902551	95	C	04/01/2023	03:08	-131.217	47.910	0	563.20	0	4.0540	0	34.1120	0	27.078	0	557.720	0	27.7	4	8.7	4	-1E+10	1	-1E+10	1	-1E+10	1	-1E+10	1	-1E+10	1	-1E+10	1
4902551	95	C	04/01/2023	03:08	-131.217	47.910	0	568.10	0	4.0340	0	34.1180	0	27.085	0	562.565	0	27.1	4	8.6	4	-1E+10	1	-1E+10	1	-1E+10	1	-1E+10	1	-1E+10	1	-1E+10	1
4902551	95	C	04/01/2023	03:08	-131.217	47.910	0	573.10	0	4.0160	0	34.1240	0	27.092	0	567.510	0	26.7	4	8.4	4	-1E+10	1	-1E+10	1	-1E+10	1	-1E+10	1	-1E+10	1	-1E+10	1
4902551	95	C	04/01/2023	03:08	-131.217	47.910	0	578.10	0	4.0100	0	34.1250	0	27.093	0	572.454	0	26.4	4	8.3	4	-1E+10	1	-1E+10	1	-1E+10	1	-1E+10	1	-1E+10	1	-1E+10	1
4902551	95	C	04/01/2023	03:08	-131.217	47.910	0	583.00	0	4.0050	0	34.1270	0	27.096	0	577.300	0	26.1	4	8.2	4	-1E+10	1	-1E+10	1	-1E+10	1	-1E+10	1	-1E+10	1	-1E+10	1
4902551	95	C	04/01/2023	03:08	-131.217	47.910	0	587.90	0	3.9990	0	34.1280	0	27.097	0	582.145	0	25.7	4	8.1	4	-1E+10	1	-1E+10	1	-1E+10	1	-1E+10	1	-1E+10	1	-1E+10	1
4902551	95	C	04/01/2023	03:08	-131.217	47.910	0	592.90	0	3.9870	0	34.1290	0	27.099	0	587.089	0	25.0	4	7.9	4	-1E+10	1	-1E+10	1	-1E+10	1	-1E+10	1	-1E+10	1	-1E+10	1
4902551	95	C	04/01/2023	03:08	-131.217	47.910	0	597.80	0	3.9900	0	34.1340	0	27.103	0	591.934	0	24.2	4	7.6	4	-1E+10	1	-1E+10	1	-1E+10	1	-1E+10	1	-1E+10	1	-1E+10	1
4902551	95	C	04/01/2023	03:08	-131.217	47.910	0	602.70	0	3.9860	0	34.1390	0	27.107	0	596.779	0	23.5	4	7.4	4	-1E+10	1	-1E+10	1	-1E+10	1	-1E+10	1	-1E+10	1	-1E+10	1
4902551	95	C	04/01/2023	03:08	-131.217	47.910	0	607.60	0	3.9620	0	34.1430	0	27.113	0	601.624	0	22.7	4	7.2	4	-1E+10	1	-1E+10	1	-1E+10	1	-1E+10	1	-1E+10	1	-1E+10	1
4902551	95	C	04/01/2023	03:08	-131.217	47.910	0	612.50	0	3.9610	0	34.1490	0	27.118	0	606.468	0	21.6	4	6.8	4	-1E+10	1	-1E+10	1	-1E+10	1	-1E+10	1	-1E+10	1	-1E+10	1
4902551	95	C	04/01/2023	03:08	-131.217	47.910	0	617.50	0	3.9870	0	34.1600	0	27.124	0	611.412	0	21.2	4	6.7	4	-1E+10	1	-1E+10	1	-1E+10	1	-1E+10	1	-1E+10	1	-1E+10	1
4902551	95	C	04/01/2023	03:08	-131.217	47.910	0	622.60	0	3.9850	0	34.1630	0	27.127	0	616.454	0	21.4	4	6.7	4	-1E+10	1	-1E+10	1	-1E+10	1	-1E+10	1	-1E+10	1	-1E+10	1
4902551	95	C	04/01/2023	03:08	-131.217	47.910	0	627.60	0	3.9550	0	34.1640	0	27.130	0	621.397	0	21.8	4	6.9	4	-1E+10	1	-1E+10	1	-1E+10	1	-1E+10	1	-1E+10	1	-1E+10	1
4902551	95	C	04/01/2023	03:08	-131.217	47.910	0	632.70	0	3.8970	0	34.1650	0	27.137	0	626.439	0	22.1	4	7.0	4	-1E+10	1	-1E+10	1	-1E+10	1	-1E+10	1	-1E+10	1	-1E+10	1
4902551	95	C	04/01/2023	03:08	-131.217	47.910	0	637.90	0	3.8900	0	34.1650	0	27.138	0	631.580	0	22.0	4	6.9	4	-1E+10	1	-1E+10	1	-1E+10	1	-1E+10	1	-1E+10	1	-1E+10	1
4902551	95	C	04/01/2023	03:08	-131.217	47.910	0	643.10	0	3.8870	0	34.1650	0	27.138	0	636.720	0	21.9	4	6.9	4	-1E+10	1	-1E+10	1	-1E+10	1	-1E+10	1	-1E+10	1	-1E+10	1
4902551	95	C	04/01/2023	03:08	-131.217	47.910	0	648.30	0	3.8790	0	34.1660	0	27.140	0	641.860	0	21.6	4	6.8	4	-1E+10	1	-1E+10	1	-1E+10	1	-1E+10	1	-1E+10	1	-1E+10	1
4902551	95	C	04/01/2023	03:08	-131.217	47.910	0	653.10	0	3.8690	0	34.1690	0	27.143	0	646.605	0	21.3	4	6.7	4	-1E+10	1	-1E+10	1	-1E+10	1	-1E+10	1	-1E+10	1	-1E+10	1
4902551	95	C	04/01/2023	03:08	-131.217	47.910	0	657.80	0	3.8570	0	34.1740	0	27.148	0	651.251	0	21.1	4	6.6	4	-1E+10	1	-1E+10	1	-1E+10	1	-1E+10	1	-1E+10	1	-1E+10	1
4902551	95	C	04/01/2023	03:08	-131.217	47.910	0	663.10	0	3.8450	0	34.1770	0	27.152	0	656.490	0	21.0	4	6.6	4	-1E+10	1	-1E+10	1	-1E+10	1	-1E+10	1	-1E+10	1	-1E+10	1
4902551	95	C	04/01/2023	03:08	-131.217	47.910	0	667.90	0	3.8350	0	34.1800	0	27.156	0	661.235	0	20.9	4	6.6	4	-1E+10	1	-1E+10	1	-1E+10	1	-1E+10	1	-1E+10	1	-1E+10	1
4902551	95	C	04/01/2023	03:08	-131.217	47.910	0	672.70	0	3.8340	0	34.1790	0	27.155	0	665.979	0	20.8	4	6.5	4	-1E+10	1	-1E+10	1	-1E+10	1	-1E+10	1	-1E+10	1	-1E+10	1
4902551	95	C	04/01/2023	03:08	-131.217	47.910	0	678.10	0	3.8190	0	34.1820	0	27.159	0	671.316	0	20.5	4	6.5	4	-1E+10	1	-1E+10	1	-1E+10	1	-1E+10	1	-1E+10	1	-1E+10	1
4902551	95	C	04/01/2023	03:08	-131.217	47.910	0	682.90	0	3.8110	0	34.1850	0	27.162	0	676.061	0	20.3	4	6.4	4	-1E+10	1	-1E+10	1	-1E+10	1	-1E+10	1	-1E+10	1	-1E+10	1
4902551	95	C	04/01/2023	03:08	-131.217	47.910	0	687.70	0	3.8020	0	34.1880	0	27.165	0	680.805	0	20.1	4	6.3	4	-1E+10	1	-1E+10	1	-1E+10	1	-1E+10	1	-1E+10	1	-1E+10	1
4902551	95	C	04/01/2023	03:08	-131.217	47.910	0	693.10	0	3.7900	0	34.1900	0	27.168	0	686.142	0	19.8	4	6.2	4	-1E+10	1	-1E+10	1	-1E+10	1	-1E+10	1	-1E+10	1	-1E+10	1
4902551	95	C	04/01/2023	03:08	-131.217	47.910	0	697.90	0	3.7760	0	34.1940	0	27.173	0	690.886	0	19.6	4	6.2	4	-1E+10	1	-1E+10	1	-1E+10	1	-1E+10	1	-1E+10	1	-1E+10	1
4902551	95	C	04/01/2023	03:08	-131.217	47.910	0	702.60	0	3.7690	0	34.1960	0	27.175	0	695.531	0	19.4	4	6.1	4	-1E+10	1	-1E+10	1	-1E+10	1	-1E+10	1	-1E+10	1	-1E+10	1
4902551	95	C	04/01/2023	03:08	-131.217	47.910	0	707.90	0	3.7570	0	34.1990	0	27.179	0	700.768	0	19.1	4	6.0	4	-1E+10	1	-1E+10	1	-1E+10	1	-1E+10	1	-1E+10	1	-1E+10	1
4902551	95	C	04/01/2023	03:08	-131.217	47.910	0	713.10	0	3.7430	0	34.2030	0	27.183	0	705.907	0	18.9	4	5.9	4	-1E+10	1	-1E+10	1	-1E+10	1	-1E+10	1	-1E+10	1	-1E+10	1
4902551	95	C	04/01/2023	03:08	-131.217	47.910	0	717.90	0	3.7300	0	34.2060	0	27.187	0	710.651	0	18.6	4	5.8	4	-1E+10	1	-1E+10	1	-1E+10	1	-1E+10	1	-1E+10	1	-1E+10	1
4902551	95	C	04/01/2023	03:08	-131.217	47.910	0	722.70	0	3.7180	0	34.2090	0	27.191	0	715.394	0	18.3	4	5.7	4	-1E+10	1	-1E+10	1	-1E+10	1	-1E+10	1	-1E+10	1	-1E+10	1
4902551	95	C	04/01/2023	03:08	-131.217	47.910	0	727.60	0	3.7020	0	34.2140	0	27.196	0	720.236	0	18.1	4	5.7	4	-1E+10	1	-1E+10	1	-1E+10	1	-1E+10	1	-1E+10	1	-1E+10	1
4902551	95	C	04/01/2023	03:08	-131.217	47.910	0	732.80	0	3.6910	0	34.2160	0	27.199	0	725.374	0	18.0	4	5.6	4	-1E+10	1	-1E+10	1	-1E+10	1	-1E+10	1	-1E+10	1	-1E+10	1
4902551	95	C	04/01/2023	03:08	-131.217	47.910	0	738.10	0	3.6840	0	34.2180	0	27.201	0	730.611	0	17.7	4	5.6	4	-1E+10	1	-1E+10	1	-1E+10	1	-1E+10	1	-1E+10	1	-1E+10	1
4902551	95	C	04/01/2023	03:08	-131.217	47.910	0	743.10	0	3.6700	0	34.2210	0	27.205	0	735.552	0	17.5	4	5.5	4	-1E+10	1	-1E+10	1	-1E+10	1	-1E+10	1	-1E+10	1	-1E+10	1
4902551	95	C	04/01/2023	03:08	-131.217	47.910	0	748.10	0	3.6560	0	34.2250	0	27.210	0	740.492	0	17.2	4	5.4	4	-1E+10	1	-1E+10	1	-1E+10	1	-1E+10	1	-1E+10	1	-1E+10	1
4902551	95	C	04/01/2023	03:08	-131.217	47.910	0	752.90	0	3.6460	0	34.2280	0	27.213	0	745.235	0	16.9	4	5.3	4	-1E+10	1	-1E+10	1	-1E+10	1	-1E+10	1	-1E+10	1	-1E+10	1
4902551	95	C	04/01/2023	03:08	-131.217	47.910	0	757.60	0	3.6370	0	34.2310	0	27.216	0	749.878	0	16.7	4	5.2	4	-1E+10	1	-1E+10	1	-1E+10	1	-1E+10	1	-1E+10	1	-1E+10	1
4902551	95	C	04/01/2023	03:08	-131.217	47.910	0	762.80	0	3.6240	0	34.2340	0	27.220	0	755.016	0	16.4	4	5.1	4	-1E+10	1	-1E+10	1	-1E+10	1	-1E+10	1	-1E+10	1	-1E+10	1
4902551	95	C	04/01/2023	03:08	-131.217	47.910	0	768.10	0	3.6110	0	34.2380	0	27.224	0	760.252	0	16.2	4	5.1	4	-1E+10	1	-1E+10	1	-1E+10	1	-1E+10	1	-1E+10	1	-1E+10	1
4902551	95	C	04/01/2023	03:08	-131.217	47.910	0	773.10	0	3.6000	0	34.2400	0	27.227	0	765.192	0	16.0	4	5.0	4	-1E+10	1	-1E+10	1	-1E+10	1	-1E+10	1	-1E+10	1	-1E+10	1
4902551	95	C	04/01/2023	03:08	-131.217	47.910	0	778.10	0	3.5840	0	34.2450	0	27.233	0	770.132	0	15.7	4	4.9	4	-1E+10	1	-1E+10	1	-1E+10	1	-1E+10	1	-1E+10	1	-1E+10	1
4902551	95	C	04/01/2023	03:08	-131.217	47.910	0	783.20	0	3.5730	0	34.2470	0	27.235	0	775.170	0	15.5	4	4.9	4	-1E+10	1	-1E+10	1	-1E+10	1	-1E+10	1	-1E+10	1	-1E+10	1
4902551	95	C	04/01/2023	03:08	-131.217	47.910	0	787.90	0	3.5610	0	34.2510	0	27.240	0	779.813	0	15.3	4	4.8	4	-1E+10	1	-1E+10	1	-1E+10	1	-1E+10	1	-1E+10	1	-1E+10	1
4902551	95	C	04/01/2023	03:08	-131.217	47.910	0	792.60	0	3.5400	0	34.2560	0	27.246	0	784.456	0	15.1	4	4.7	4	-1E+10	1	-1E+10	1	-1E+10	1	-1E+10	1	-1E+10	1	-1E+10	1
4902551	95	C	04/01/2023	03:08	-131.217	47.910	0	797.90	0	3.5230	0	34.2600	0	27.251	0	789.691	0	14.9	4	4.6	4	-1E+10	1	-1E+10	1	-1E+10	1	-1E+10	1	-1E+10	1	-1E+10	1
4902551	95	C	04/01/2023	03:08	-131.217	47.910	0	803.30	0	3.5140	0	34.2620	0	27.253	0	795.026	0	14.7	4	4.6	4	-1E+10	1	-1E+10	1	-1E+10	1	-1E+10	1	-1E+10	1	-1E+10	1
4902551	95	C	04/01/2023	03:08	-131.217	47.910	0	808.20	0	3.5020	0	34.2650	0	27.257	0	799.866	0	14.4	4	4.5	4	-1E+10	1	-1E+10	1	-1E+10	1	-1E+10	1	-1E+10	1	-1E+10	1
4902551	95	C	04/01/2023	03:08	-131.217	47.910	0	812.90	0	3.4870	0	34.2690	0	27.261	0	804.508	0	14.2	4	4.4	4	-1E+10	1	-1E+10	1	-1E+10	1	-1E+10	1	-1E+10	1	-1E+10	1
4902551	95	C	04/01/2023	03:08	-131.217	47.910	0	817.80	0	3.4700	0	34.2740	0	27.267	0	809.348	0	14.1	4	4.4	4	-1E+10	1	-1E+10	1	-1E+10	1	-1E+10	1	-1E+10	1	-1E+10	1
4902551	95	C	04/01/2023	03:08	-131.217	47.910	0	822.80	0	3.4590	0	34.2760	0	27.270	0	814.287	0	13.9	4	4.3	4	-1E+10	1	-1E+10	1	-1E+10	1	-1E+10	1	-1E+10	1	-1E+10	1
4902551	95	C	04/01/2023	03:08	-131.217	47.910	0	828.00	0	3.4490	0	34.2790	0	27.273	0	819.423	0	13.8	4	4.3	4	-1E+10	1	-1E+10	1	-1E+10	1	-1E+10	1	-1E+10	1	-1E+10	1
4902551	95	C	04/01/2023	03:08	-131.217	47.910	0	832.90	0	3.4400	0	34.2820	0	27.276	0	824.262	0	13.7	4	4.3	4	-1E+10	1	-1E+10	1	-1E+10	1	-1E+10	1	-1E+10	1	-1E+10	1
4902551	95	C	04/01/2023	03:08	-131.217	47.910	0	838.00	0	3.4260	0	34.2850	0	27.280	0	829.299	0	13.5	4	4.2	4	-1E+10	1	-1E+10	1	-1E+10	1	-1E+10	1	-1E+10	1	-1E+10	1
4902551	95	C	04/01/2023	03:08	-131.217	47.910	0	842.80	0	3.4160	0	34.2870	0	27.283	0	834.040	0	13.4	4	4.2	4	-1E+10	1	-1E+10	1	-1E+10	1	-1E+10	1	-1E+10	1	-1E+10	1
4902551	95	C	04/01/2023	03:08	-131.217	47.910	0	847.70	0	3.4020	0	34.2910	0	27.287	0	838.879	0	13.3	4	4.1	4	-1E+10	1	-1E+10	1	-1E+10	1	-1E+10	1	-1E+10	1	-1E+10	1
4902551	95	C	04/01/2023	03:08	-131.217	47.910	0	852.70	0	3.3920	0	34.2940	0	27.291	0	843.817	0	13.2	4	4.1	4	-1E+10	1	-1E+10	1	-1E+10	1	-1E+10	1	-1E+10	1	-1E+10	1
4902551	95	C	04/01/2023	03:08	-131.217	47.910	0	857.70	0	3.3830	0	34.2960	0	27.293	0	848.755	0	13.1	4	4.1	4	-1E+10	1	-1E+10	1	-1E+10	1	-1E+10	1	-1E+10	1	-1E+10	1
4902551	95	C	04/01/2023	03:08	-131.217	47.910	0	862.70	0	3.3740	0	34.2990	0	27.296	0	853.692	0	13.0	4	4.0	4	-1E+10	1	-1E+10	1	-1E+10	1	-1E+10	1	-1E+10	1	-1E+10	1
4902551	95	C	04/01/2023	03:08	-131.217	47.910	0	867.70	0	3.3710	0	34.3000	0	27.298	0	858.630	0	12.9	4	4.0	4	-1E+10	1	-1E+10	1	-1E+10	1	-1E+10	1	-1E+10	1	-1E+10	1
4902551	95	C	04/01/2023	03:08	-131.217	47.910	0	872.70	0	3.3670	0	34.3010	0	27.299	0	863.567	0	12.8	4	4.0	4	-1E+10	1	-1E+10	1	-1E+10	1	-1E+10	1	-1E+10	1	-1E+10	1
4902551	95	C	04/01/2023	03:08	-131.217	47.910	0	877.70	0	3.3540	0	34.3050	0	27.303	0	868.505	0	12.7	4	4.0	4	-1E+10	1	-1E+10	1	-1E+10	1	-1E+10	1	-1E+10	1	-1E+10	1
4902551	95	C	04/01/2023	03:08	-131.217	47.910	0	882.70	0	3.3450	0	34.3080	0	27.306	0	873.442	0	12.6	4	3.9	4	-1E+10	1	-1E+10	1	-1E+10	1	-1E+10	1	-1E+10	1	-1E+10	1
4902551	95	C	04/01/2023	03:08	-131.217	47.910	0	887.60	0	3.3400	0	34.3090	0	27.308	0	878.280	0	12.5	4	3.9	4	-1E+10	1	-1E+10	1	-1E+10	1	-1E+10	1	-1E+10	1	-1E+10	1
4902551	95	C	04/01/2023	03:08	-131.217	47.910	0	893.00	0	3.3330	0	34.3110	0	27.310	0	883.612	0	12.4	4	3.9	4	-1E+10	1	-1E+10	1	-1E+10	1	-1E+10	1	-1E+10	1	-1E+10	1
4902551	95	C	04/01/2023	03:08	-131.217	47.910	0	897.90	0	3.3230	0	34.3150	0	27.314	0	888.450	0	12.3	4	3.8	4	-1E+10	1	-1E+10	1	-1E+10	1	-1E+10	1	-1E+10	1	-1E+10	1
4902551	95	C	04/01/2023	03:08	-131.217	47.910	0	902.70	0	3.3180	0	34.3160	0	27.316	0	893.189	0	12.2	4	3.8	4	-1E+10	1	-1E+10	1	-1E+10	1	-1E+10	1	-1E+10	1	-1E+10	1
4902551	95	C	04/01/2023	03:08	-131.217	47.910	0	907.90	0	3.3070	0	34.3200	0	27.320	0	898.324	0	12.2	4	3.8	4	-1E+10	1	-1E+10	1	-1E+10	1	-1E+10	1	-1E+10	1	-1E+10	1
4902551	95	C	04/01/2023	03:08	-131.217	47.910	0	913.10	0	3.2990	0	34.3220	0	27.322	0	903.457	0	12.2	4	3.8	4	-1E+10	1	-1E+10	1	-1E+10	1	-1E+10	1	-1E+10	1	-1E+10	1
4902551	95	C	04/01/2023	03:08	-131.217	47.910	0	918.20	0	3.2860	0	34.3240	0	27.325	0	908.493	0	12.2	4	3.8	4	-1E+10	1	-1E+10	1	-1E+10	1	-1E+10	1	-1E+10	1	-1E+10	1
4902551	95	C	04/01/2023	03:08	-131.217	47.910	0	923.20	0	3.2730	0	34.3260	0	27.328	0	913.429	0	12.1	4	3.8	4	-1E+10	1	-1E+10	1	-1E+10	1	-1E+10	1	-1E+10	1	-1E+10	1
4902551	95	C	04/01/2023	03:08	-131.217	47.910	0	928.20	0	3.2600	0	34.3290	0	27.331	0	918.365	0	12.0	4	3.7	4	-1E+10	1	-1E+10	1	-1E+10	1	-1E+10	1	-1E+10	1	-1E+10	1
4902551	95	C	04/01/2023	03:08	-131.217	47.910	0	933.30	0	3.2480	0	34.3320	0	27.335	0	923.400	0	11.9	4	3.7	4	-1E+10	1	-1E+10	1	-1E+10	1	-1E+10	1	-1E+10	1	-1E+10	1
4902551	95	C	04/01/2023	03:08	-131.217	47.910	0	938.30	0	3.2330	0	34.3370	0	27.340	0	928.335	0	11.9	4	3.7	4	-1E+10	1	-1E+10	1	-1E+10	1	-1E+10	1	-1E+10	1	-1E+10	1
4902551	95	C	04/01/2023	03:08	-131.217	47.910	0	943.30	0	3.2170	0	34.3410	0	27.345	0	933.271	0	11.8	4	3.7	4	-1E+10	1	-1E+10	1	-1E+10	1	-1E+10	1	-1E+10	1	-1E+10	1
4902551	95	C	04/01/2023	03:08	-131.217	47.910	0	948.30	0	3.2120	0	34.3420	0	27.346	0	938.207	0	11.8	4	3.7	4	-1E+10	1	-1E+10	1	-1E+10	1	-1E+10	1	-1E+10	1	-1E+10	1
4902551	95	C	04/01/2023	03:08	-131.217	47.910	0	953.30	0	3.2100	0	34.3430	0	27.347	0	943.142	0	11.8	4	3.7	4	-1E+10	1	-1E+10	1	-1E+10	1	-1E+10	1	-1E+10	1	-1E+10	1
4902551	95	C	04/01/2023	03:08	-131.217	47.910	0	958.30	0	3.2030	0	34.3450	0	27.350	0	948.078	0	11.8	4	3.6	4	-1E+10	1	-1E+10	1	-1E+10	1	-1E+10	1	-1E+10	1	-1E+10	1
4902551	95	C	04/01/2023	03:08	-131.217	47.910	0	963.20	0	3.1910	0	34.3470	0	27.352	0	952.914	0	11.7	4	3.6	4	-1E+10	1	-1E+10	1	-1E+10	1	-1E+10	1	-1E+10	1	-1E+10	1
4902551	95	C	04/01/2023	03:08	-131.217	47.910	0	968.20	0	3.1800	0	34.3500	0	27.356	0	957.850	0	11.7	4	3.6	4	-1E+10	1	-1E+10	1	-1E+10	1	-1E+10	1	-1E+10	1	-1E+10	1
4902551	95	C	04/01/2023	03:08	-131.217	47.910	0	973.30	0	3.1600	0	34.3540	0	27.361	0	962.883	0	11.7	4	3.6	4	-1E+10	1	-1E+10	1	-1E+10	1	-1E+10	1	-1E+10	1	-1E+10	1
4902551	95	C	04/01/2023	03:08	-131.217	47.910	0	978.00	0	3.1490	0	34.3570	0	27.364	0	967.522	0	11.7	4	3.6	4	-1E+10	1	-1E+10	1	-1E+10	1	-1E+10	1	-1E+10	1	-1E+10	1
4902551	95	C	04/01/2023	03:08	-131.217	47.910	0	982.70	0	3.1370	0	34.3600	0	27.368	0	972.161	0	11.7	4	3.6	4	-1E+10	1	-1E+10	1	-1E+10	1	-1E+10	1	-1E+10	1	-1E+10	1
4902551	95	C	04/01/2023	03:08	-131.217	47.910	0	987.90	0	3.1230	0	34.3630	0	27.372	0	977.293	0	11.7	4	3.6	4	-1E+10	1	-1E+10	1	-1E+10	1	-1E+10	1	-1E+10	1	-1E+10	1
4902551	95	C	04/01/2023	03:08	-131.217	47.910	0	993.20	0	3.1110	0	34.3650	0	27.374	0	982.524	0	11.7	4	3.6	4	-1E+10	1	-1E+10	1	-1E+10	1	-1E+10	1	-1E+10	1	-1E+10	1
4902551	95	C	04/01/2023	03:08	-131.217	47.910	0	998.00	0	3.1040	0	34.3670	0	27.377	0	987.261	0	11.7	4	3.6	4	-1E+10	1	-1E+10	1	-1E+10	1	-1E+10	1	-1E+10	1	-1E+10	1
4902551	95	C	04/01/2023	03:08	-131.217	47.910	0	1005.20	0	3.0880	0	34.3700	0	27.380	0	994.366	0	11.7	4	3.6	4	-1E+10	1	-1E+10	1	-1E+10	1	-1E+10	1	-1E+10	1	-1E+10	1
4902551	95	C	04/01/2023	03:08	-131.217	47.910	0	1015.10	0	3.0630	0	34.3750	0	27.387	0	1004.136	0	11.8	4	3.6	4	-1E+10	1	-1E+10	1	-1E+10	1	-1E+10	1	-1E+10	1	-1E+10	1
4902551	95	C	04/01/2023	03:08	-131.217	47.910	0	1025.50	0	3.0390	0	34.3800	0	27.393	0	1014.398	0	11.9	4	3.7	4	-1E+10	1	-1E+10	1	-1E+10	1	-1E+10	1	-1E+10	1	-1E+10	1
4902551	95	C	04/01/2023	03:08	-131.217	47.910	0	1035.60	0	3.0130	0	34.3840	0	27.399	0	1024.364	0	11.9	4	3.7	4	-1E+10	1	-1E+10	1	-1E+10	1	-1E+10	1	-1E+10	1	-1E+10	1
4902551	95	C	04/01/2023	03:08	-131.217	47.910	0	1045.00	0	2.9960	0	34.3870	0	27.403	0	1033.639	0	12.0	4	3.7	4	-1E+10	1	-1E+10	1	-1E+10	1	-1E+10	1	-1E+10	1	-1E+10	1
4902551	95	C	04/01/2023	03:08	-131.217	47.910	0	1055.30	0	2.9810	0	34.3900	0	27.406	0	1043.802	0	12.0	4	3.7	4	-1E+10	1	-1E+10	1	-1E+10	1	-1E+10	1	-1E+10	1	-1E+10	1
4902551	95	C	04/01/2023	03:08	-131.217	47.910	0	1065.40	0	2.9680	0	34.3920	0	27.409	0	1053.766	0	12.1	4	3.7	4	-1E+10	1	-1E+10	1	-1E+10	1	-1E+10	1	-1E+10	1	-1E+10	1
4902551	95	C	04/01/2023	03:08	-131.217	47.910	0	1075.10	0	2.9470	0	34.3970	0	27.415	0	1063.336	0	12.2	4	3.8	4	-1E+10	1	-1E+10	1	-1E+10	1	-1E+10	1	-1E+10	1	-1E+10	1
4902551	95	C	04/01/2023	03:08	-131.217	47.910	0	1085.10	0	2.9340	0	34.3990	0	27.418	0	1073.201	0	12.3	4	3.8	4	-1E+10	1	-1E+10	1	-1E+10	1	-1E+10	1	-1E+10	1	-1E+10	1
4902551	95	C	04/01/2023	03:08	-131.217	47.910	0	1095.30	0	2.9240	0	34.4020	0	27.421	0	1083.263	0	12.4	4	3.8	4	-1E+10	1	-1E+10	1	-1E+10	1	-1E+10	1	-1E+10	1	-1E+10	1
4902551	95	C	04/01/2023	03:08	-131.217	47.910	0	1105.30	0	2.9100	0	34.4050	0	27.425	0	1093.127	0	12.4	4	3.8	4	-1E+10	1	-1E+10	1	-1E+10	1	-1E+10	1	-1E+10	1	-1E+10	1
4902551	95	C	04/01/2023	03:08	-131.217	47.910	0	1115.40	0	2.8990	0	34.4070	0	27.428	0	1103.089	0	12.5	4	3.9	4	-1E+10	1	-1E+10	1	-1E+10	1	-1E+10	1	-1E+10	1	-1E+10	1
4902551	95	C	04/01/2023	03:08	-131.217	47.910	0	1125.60	0	2.8860	0	34.4100	0	27.431	0	1113.149	0	12.7	4	3.9	4	-1E+10	1	-1E+10	1	-1E+10	1	-1E+10	1	-1E+10	1	-1E+10	1
4902551	95	C	04/01/2023	03:08	-131.217	47.910	0	1135.40	0	2.8740	0	34.4130	0	27.435	0	1122.815	0	12.8	4	3.9	4	-1E+10	1	-1E+10	1	-1E+10	1	-1E+10	1	-1E+10	1	-1E+10	1
4902551	95	C	04/01/2023	03:08	-131.217	47.910	0	1145.50	0	2.8570	0	34.4160	0	27.439	0	1132.776	0	12.9	4	4.0	4	-1E+10	1	-1E+10	1	-1E+10	1	-1E+10	1	-1E+10	1	-1E+10	1
4902551	95	C	04/01/2023	03:08	-131.217	47.910	0	1155.60	0	2.8450	0	34.4180	0	27.441	0	1142.736	0	13.1	4	4.0	4	-1E+10	1	-1E+10	1	-1E+10	1	-1E+10	1	-1E+10	1	-1E+10	1
4902551	95	C	04/01/2023	03:08	-131.217	47.910	0	1165.30	0	2.8270	0	34.4220	0	27.446	0	1152.301	0	13.3	4	4.1	4	-1E+10	1	-1E+10	1	-1E+10	1	-1E+10	1	-1E+10	1	-1E+10	1
4902551	95	C	04/01/2023	03:08	-131.217	47.910	0	1175.10	0	2.8080	0	34.4250	0	27.450	0	1161.965	0	13.5	4	4.1	4	-1E+10	1	-1E+10	1	-1E+10	1	-1E+10	1	-1E+10	1	-1E+10	1
4902551	95	C	04/01/2023	03:08	-131.217	47.910	0	1185.50	0	2.7930	0	34.4280	0	27.454	0	1172.220	0	13.6	4	4.2	4	-1E+10	1	-1E+10	1	-1E+10	1	-1E+10	1	-1E+10	1	-1E+10	1
4902551	95	C	04/01/2023	03:08	-131.217	47.910	0	1195.60	0	2.7770	0	34.4300	0	27.457	0	1182.178	0	13.8	4	4.2	4	-1E+10	1	-1E+10	1	-1E+10	1	-1E+10	1	-1E+10	1	-1E+10	1
4902551	95	C	04/01/2023	03:08	-131.217	47.910	0	1205.50	0	2.7660	0	34.4330	0	27.461	0	1191.939	0	14.0	4	4.3	4	-1E+10	1	-1E+10	1	-1E+10	1	-1E+10	1	-1E+10	1	-1E+10	1
4902551	95	C	04/01/2023	03:08	-131.217	47.910	0	1215.40	0	2.7470	0	34.4370	0	27.466	0	1201.699	0	14.3	4	4.4	4	-1E+10	1	-1E+10	1	-1E+10	1	-1E+10	1	-1E+10	1	-1E+10	1
4902551	95	C	04/01/2023	03:08	-131.217	47.910	0	1225.10	0	2.7320	0	34.4400	0	27.469	0	1211.262	0	14.5	4	4.4	4	-1E+10	1	-1E+10	1	-1E+10	1	-1E+10	1	-1E+10	1	-1E+10	1
4902551	95	C	04/01/2023	03:08	-131.217	47.910	0	1235.20	0	2.7160	0	34.4420	0	27.472	0	1221.219	0	14.7	4	4.5	4	-1E+10	1	-1E+10	1	-1E+10	1	-1E+10	1	-1E+10	1	-1E+10	1
4902551	95	C	04/01/2023	03:08	-131.217	47.910	0	1245.20	0	2.6990	0	34.4450	0	27.476	0	1231.076	0	15.0	4	4.6	4	-1E+10	1	-1E+10	1	-1E+10	1	-1E+10	1	-1E+10	1	-1E+10	1
4902551	95	C	04/01/2023	03:08	-131.217	47.910	0	1255.20	0	2.6880	0	34.4470	0	27.479	0	1240.933	0	15.2	4	4.7	4	-1E+10	1	-1E+10	1	-1E+10	1	-1E+10	1	-1E+10	1	-1E+10	1
4902551	95	C	04/01/2023	03:08	-131.217	47.910	0	1265.40	0	2.6770	0	34.4500	0	27.482	0	1250.987	0	15.5	4	4.7	4	-1E+10	1	-1E+10	1	-1E+10	1	-1E+10	1	-1E+10	1	-1E+10	1
4902551	95	C	04/01/2023	03:08	-131.217	47.910	0	1275.20	0	2.6630	0	34.4520	0	27.485	0	1260.646	0	15.8	4	4.8	4	-1E+10	1	-1E+10	1	-1E+10	1	-1E+10	1	-1E+10	1	-1E+10	1
4902551	95	C	04/01/2023	03:08	-131.217	47.910	0	1285.10	0	2.6490	0	34.4550	0	27.489	0	1270.403	0	16.1	4	4.9	4	-1E+10	1	-1E+10	1	-1E+10	1	-1E+10	1	-1E+10	1	-1E+10	1
4902551	95	C	04/01/2023	03:08	-131.217	47.910	0	1295.70	0	2.6340	0	34.4570	0	27.492	0	1280.850	0	16.5	4	5.0	4	-1E+10	1	-1E+10	1	-1E+10	1	-1E+10	1	-1E+10	1	-1E+10	1
4902551	95	C	04/01/2023	03:08	-131.217	47.910	0	1305.50	0	2.6150	0	34.4610	0	27.497	0	1290.508	0	17.0	4	5.2	4	-1E+10	1	-1E+10	1	-1E+10	1	-1E+10	1	-1E+10	1	-1E+10	1
4902551	95	C	04/01/2023	03:08	-131.217	47.910	0	1315.30	0	2.5970	0	34.4650	0	27.501	0	1300.165	0	17.4	4	5.3	4	-1E+10	1	-1E+10	1	-1E+10	1	-1E+10	1	-1E+10	1	-1E+10	1
4902551	95	C	04/01/2023	03:08	-131.217	47.910	0	1325.20	0	2.5830	0	34.4670	0	27.504	0	1309.920	0	17.8	4	5.4	4	-1E+10	1	-1E+10	1	-1E+10	1	-1E+10	1	-1E+10	1	-1E+10	1
4902551	95	C	04/01/2023	03:08	-131.217	47.910	0	1335.40	0	2.5610	0	34.4700	0	27.509	0	1319.971	0	18.4	4	5.6	4	-1E+10	1	-1E+10	1	-1E+10	1	-1E+10	1	-1E+10	1	-1E+10	1
4902551	95	C	04/01/2023	03:08	-131.217	47.910	0	1345.70	0	2.5430	0	34.4750	0	27.514	0	1330.119	0	19.1	4	5.8	4	-1E+10	1	-1E+10	1	-1E+10	1	-1E+10	1	-1E+10	1	-1E+10	1
4902551	95	C	04/01/2023	03:08	-131.217	47.910	0	1355.60	0	2.5280	0	34.4790	0	27.519	0	1339.873	0	19.8	4	6.0	4	-1E+10	1	-1E+10	1	-1E+10	1	-1E+10	1	-1E+10	1	-1E+10	1
4902551	95	C	04/01/2023	03:08	-131.217	47.910	0	1365.30	0	2.5150	0	34.4820	0	27.522	0	1349.430	0	20.2	4	6.2	4	-1E+10	1	-1E+10	1	-1E+10	1	-1E+10	1	-1E+10	1	-1E+10	1
4902551	95	C	04/01/2023	03:08	-131.217	47.910	0	1375.20	0	2.5030	0	34.4840	0	27.525	0	1359.183	0	20.7	4	6.3	4	-1E+10	1	-1E+10	1	-1E+10	1	-1E+10	1	-1E+10	1	-1E+10	1
4902551	95	C	04/01/2023	03:08	-131.217	47.910	0	1385.40	0	2.4870	0	34.4870	0	27.529	0	1369.231	0	21.3	4	6.5	4	-1E+10	1	-1E+10	1	-1E+10	1	-1E+10	1	-1E+10	1	-1E+10	1
4902551	95	C	04/01/2023	03:08	-131.217	47.910	0	1395.40	0	2.4730	0	34.4900	0	27.532	0	1379.081	0	21.7	4	6.6	4	-1E+10	1	-1E+10	1	-1E+10	1	-1E+10	1	-1E+10	1	-1E+10	1
4902551	95	C	04/01/2023	03:08	-131.217	47.910	0	1405.70	0	2.4630	0	34.4920	0	27.535	0	1389.227	0	22.1	4	6.7	4	-1E+10	1	-1E+10	1	-1E+10	1	-1E+10	1	-1E+10	1	-1E+10	1
4902551	95	C	04/01/2023	03:08	-131.217	47.910	0	1415.80	0	2.4580	0	34.4930	0	27.536	0	1399.175	0	22.4	4	6.8	4	-1E+10	1	-1E+10	1	-1E+10	1	-1E+10	1	-1E+10	1	-1E+10	1
4902551	95	C	04/01/2023	03:08	-131.217	47.910	0	1425.30	0	2.4460	0	34.4950	0	27.539	0	1408.532	0	22.7	4	6.9	4	-1E+10	1	-1E+10	1	-1E+10	1	-1E+10	1	-1E+10	1	-1E+10	1
4902551	95	C	04/01/2023	03:08	-131.217	47.910	0	1435.60	0	2.4370	0	34.4960	0	27.540	0	1418.676	0	23.2	4	7.1	4	-1E+10	1	-1E+10	1	-1E+10	1	-1E+10	1	-1E+10	1	-1E+10	1
4902551	95	C	04/01/2023	03:08	-131.217	47.910	0	1445.60	0	2.4270	0	34.4980	0	27.543	0	1428.524	0	23.8	4	7.2	4	-1E+10	1	-1E+10	1	-1E+10	1	-1E+10	1	-1E+10	1	-1E+10	1
4902551	95	C	04/01/2023	03:08	-131.217	47.910	0	1455.60	0	2.4150	0	34.5000	0	27.545	0	1438.372	0	24.3	4	7.4	4	-1E+10	1	-1E+10	1	-1E+10	1	-1E+10	1	-1E+10	1	-1E+10	1
4902551	95	C	04/01/2023	03:08	-131.217	47.910	0	1465.30	0	2.4060	0	34.5020	0	27.548	0	1447.924	0	24.8	4	7.6	4	-1E+10	1	-1E+10	1	-1E+10	1	-1E+10	1	-1E+10	1	-1E+10	1
4902551	95	C	04/01/2023	03:08	-131.217	47.910	0	1475.20	0	2.3930	0	34.5050	0	27.551	0	1457.673	0	25.3	4	7.7	4	-1E+10	1	-1E+10	1	-1E+10	1	-1E+10	1	-1E+10	1	-1E+10	1
4902551	95	C	04/01/2023	03:08	-131.217	47.910	0	1485.30	0	2.3820	0	34.5070	0	27.554	0	1467.618	0	25.7	4	7.8	4	-1E+10	1	-1E+10	1	-1E+10	1	-1E+10	1	-1E+10	1	-1E+10	1
4902551	95	C	04/01/2023	03:08	-131.217	47.910	0	1495.60	0	2.3730	0	34.5080	0	27.556	0	1477.759	0	26.3	4	8.0	4	-1E+10	1	-1E+10	1	-1E+10	1	-1E+10	1	-1E+10	1	-1E+10	1
4902551	95	C	04/01/2023	03:08	-131.217	47.910	0	1505.70	0	2.3600	0	34.5100	0	27.558	0	1487.703	0	27.0	4	8.2	4	-1E+10	1	-1E+10	1	-1E+10	1	-1E+10	1	-1E+10	1	-1E+10	1
4902551	95	C	04/01/2023	03:08	-131.217	47.910	0	1515.60	0	2.3480	0	34.5120	0	27.561	0	1497.450	0	27.7	4	8.4	4	-1E+10	1	-1E+10	1	-1E+10	1	-1E+10	1	-1E+10	1	-1E+10	1
4902551	95	C	04/01/2023	03:08	-131.217	47.910	0	1525.30	0	2.3360	0	34.5140	0	27.564	0	1506.999	0	28.2	4	8.6	4	-1E+10	1	-1E+10	1	-1E+10	1	-1E+10	1	-1E+10	1	-1E+10	1
4902551	95	C	04/01/2023	03:08	-131.217	47.910	0	1535.10	0	2.3250	0	34.5160	0	27.566	0	1516.646	0	28.8	4	8.7	4	-1E+10	1	-1E+10	1	-1E+10	1	-1E+10	1	-1E+10	1	-1E+10	1
4902551	95	C	04/01/2023	03:08	-131.217	47.910	0	1545.50	0	2.3140	0	34.5180	0	27.569	0	1526.884	0	29.3	4	8.9	4	-1E+10	1	-1E+10	1	-1E+10	1	-1E+10	1	-1E+10	1	-1E+10	1
4902551	95	C	04/01/2023	03:08	-131.217	47.910	0	1555.40	0	2.3080	0	34.5190	0	27.570	0	1536.629	0	29.7	4	9.0	4	-1E+10	1	-1E+10	1	-1E+10	1	-1E+10	1	-1E+10	1	-1E+10	1
4902551	95	C	04/01/2023	03:08	-131.217	47.910	0	1565.40	0	2.3000	0	34.5210	0	27.572	0	1546.471	0	30.3	4	9.2	4	-1E+10	1	-1E+10	1	-1E+10	1	-1E+10	1	-1E+10	1	-1E+10	1
4902551	95	C	04/01/2023	03:08	-131.217	47.910	0	1575.40	0	2.2870	0	34.5230	0	27.575	0	1556.314	0	30.9	4	9.4	4	-1E+10	1	-1E+10	1	-1E+10	1	-1E+10	1	-1E+10	1	-1E+10	1
4902551	95	C	04/01/2023	03:08	-131.217	47.910	0	1585.60	0	2.2770	0	34.5250	0	27.577	0	1566.352	0	31.5	4	9.5	4	-1E+10	1	-1E+10	1	-1E+10	1	-1E+10	1	-1E+10	1	-1E+10	1
4902551	95	C	04/01/2023	03:08	-131.217	47.910	0	1595.50	0	2.2660	0	34.5270	0	27.580	0	1576.095	0	31.9	4	9.7	4	-1E+10	1	-1E+10	1	-1E+10	1	-1E+10	1	-1E+10	1	-1E+10	1
4902551	95	C	04/01/2023	03:08	-131.217	47.910	0	1605.50	0	2.2520	0	34.5280	0	27.582	0	1585.936	0	32.1	4	9.7	4	-1E+10	1	-1E+10	1	-1E+10	1	-1E+10	1	-1E+10	1	-1E+10	1
4902551	95	C	04/01/2023	03:08	-131.217	47.910	0	1615.30	0	2.2390	0	34.5290	0	27.584	0	1595.580	0	32.3	4	9.8	4	-1E+10	1	-1E+10	1	-1E+10	1	-1E+10	1	-1E+10	1	-1E+10	1
4902551	95	C	04/01/2023	03:08	-131.217	47.910	0	1625.20	0	2.2250	0	34.5310	0	27.587	0	1605.322	0	32.7	4	9.9	4	-1E+10	1	-1E+10	1	-1E+10	1	-1E+10	1	-1E+10	1	-1E+10	1
4902551	95	C	04/01/2023	03:08	-131.217	47.910	0	1635.20	0	2.2080	0	34.5330	0	27.590	0	1615.161	0	33.1	4	10.0	4	-1E+10	1	-1E+10	1	-1E+10	1	-1E+10	1	-1E+10	1	-1E+10	1
4902551	95	C	04/01/2023	03:08	-131.217	47.910	0	1645.40	0	2.1980	0	34.5340	0	27.591	0	1625.197	0	33.8	4	10.3	4	-1E+10	1	-1E+10	1	-1E+10	1	-1E+10	1	-1E+10	1	-1E+10	1
4902551	95	C	04/01/2023	03:08	-131.217	47.910	0	1655.60	0	2.1940	0	34.5360	0	27.593	0	1635.232	0	35.0	4	10.6	4	-1E+10	1	-1E+10	1	-1E+10	1	-1E+10	1	-1E+10	1	-1E+10	1
4902551	95	C	04/01/2023	03:08	-131.217	47.910	0	1665.50	0	2.1900	0	34.5390	0	27.596	0	1644.972	0	35.8	4	10.8	4	-1E+10	1	-1E+10	1	-1E+10	1	-1E+10	1	-1E+10	1	-1E+10	1
4902551	95	C	04/01/2023	03:08	-131.217	47.910	0	1675.50	0	2.1870	0	34.5400	0	27.597	0	1654.810	0	36.1	4	10.9	4	-1E+10	1	-1E+10	1	-1E+10	1	-1E+10	1	-1E+10	1	-1E+10	1
4902551	95	C	04/01/2023	03:08	-131.217	47.910	0	1685.70	0	2.1820	0	34.5410	0	27.598	0	1664.844	0	36.4	4	11.0	4	-1E+10	1	-1E+10	1	-1E+10	1	-1E+10	1	-1E+10	1	-1E+10	1
4902551	95	C	04/01/2023	03:08	-131.217	47.910	0	1695.50	0	2.1700	0	34.5420	0	27.600	0	1674.484	0	36.5	4	11.0	4	-1E+10	1	-1E+10	1	-1E+10	1	-1E+10	1	-1E+10	1	-1E+10	1
4902551	95	C	04/01/2023	03:08	-131.217	47.910	0	1705.50	0	2.1570	0	34.5430	0	27.602	0	1684.320	0	36.3	4	11.0	4	-1E+10	1	-1E+10	1	-1E+10	1	-1E+10	1	-1E+10	1	-1E+10	1
4902551	95	C	04/01/2023	03:08	-131.217	47.910	0	1715.40	0	2.1430	0	34.5440	0	27.604	0	1694.058	0	36.7	4	11.1	4	-1E+10	1	-1E+10	1	-1E+10	1	-1E+10	1	-1E+10	1	-1E+10	1
4902551	95	C	04/01/2023	03:08	-131.217	47.910	0	1725.40	0	2.1340	0	34.5450	0	27.606	0	1703.893	0	37.2	4	11.2	4	-1E+10	1	-1E+10	1	-1E+10	1	-1E+10	1	-1E+10	1	-1E+10	1
4902551	95	C	04/01/2023	03:08	-131.217	47.910	0	1735.70	0	2.1270	0	34.5470	0	27.608	0	1714.023	0	37.6	4	11.4	4	-1E+10	1	-1E+10	1	-1E+10	1	-1E+10	1	-1E+10	1	-1E+10	1
4902551	95	C	04/01/2023	03:08	-131.217	47.910	0	1745.60	0	2.1220	0	34.5480	0	27.609	0	1723.760	0	38.1	4	11.5	4	-1E+10	1	-1E+10	1	-1E+10	1	-1E+10	1	-1E+10	1	-1E+10	1
4902551	95	C	04/01/2023	03:08	-131.217	47.910	0	1755.10	0	2.1170	0	34.5490	0	27.610	0	1733.102	0	38.5	4	11.6	4	-1E+10	1	-1E+10	1	-1E+10	1	-1E+10	1	-1E+10	1	-1E+10	1
4902551	95	C	04/01/2023	03:08	-131.217	47.910	0	1765.20	0	2.1110	0	34.5500	0	27.612	0	1743.034	0	39.0	4	11.8	4	-1E+10	1	-1E+10	1	-1E+10	1	-1E+10	1	-1E+10	1	-1E+10	1
4902551	95	C	04/01/2023	03:08	-131.217	47.910	0	1775.50	0	2.1040	0	34.5510	0	27.613	0	1753.162	0	39.7	4	12.0	4	-1E+10	1	-1E+10	1	-1E+10	1	-1E+10	1	-1E+10	1	-1E+10	1
4902551	95	C	04/01/2023	03:08	-131.217	47.910	0	1785.30	0	2.0950	0	34.5530	0	27.616	0	1762.798	0	40.5	4	12.2	4	-1E+10	1	-1E+10	1	-1E+10	1	-1E+10	1	-1E+10	1	-1E+10	1
4902551	95	C	04/01/2023	03:08	-131.217	47.910	0	1795.30	0	2.0850	0	34.5550	0	27.618	0	1772.631	0	41.4	4	12.5	4	-1E+10	1	-1E+10	1	-1E+10	1	-1E+10	1	-1E+10	1	-1E+10	1
4902551	95	C	04/01/2023	03:08	-131.217	47.910	0	1805.20	0	2.0720	0	34.5570	0	27.621	0	1782.364	0	42.0	4	12.7	4	-1E+10	1	-1E+10	1	-1E+10	1	-1E+10	1	-1E+10	1	-1E+10	1
4902551	95	C	04/01/2023	03:08	-131.217	47.910	0	1815.30	0	2.0660	0	34.5580	0	27.622	0	1792.294	0	42.6	4	12.9	4	-1E+10	1	-1E+10	1	-1E+10	1	-1E+10	1	-1E+10	1	-1E+10	1
4902551	95	C	04/01/2023	03:08	-131.217	47.910	0	1825.30	0	2.0580	0	34.5600	0	27.624	0	1802.125	0	43.2	4	13.1	4	-1E+10	1	-1E+10	1	-1E+10	1	-1E+10	1	-1E+10	1	-1E+10	1
4902551	95	C	04/01/2023	03:08	-131.217	47.910	0	1835.50	0	2.0510	0	34.5610	0	27.626	0	1812.152	0	43.8	4	13.2	4	-1E+10	1	-1E+10	1	-1E+10	1	-1E+10	1	-1E+10	1	-1E+10	1
4902551	95	C	04/01/2023	03:08	-131.217	47.910	0	1845.70	0	2.0470	0	34.5630	0	27.628	0	1822.178	0	44.4	4	13.4	4	-1E+10	1	-1E+10	1	-1E+10	1	-1E+10	1	-1E+10	1	-1E+10	1
4902551	95	C	04/01/2023	03:08	-131.217	47.910	0	1855.30	0	2.0380	0	34.5640	0	27.629	0	1831.614	0	45.1	4	13.6	4	-1E+10	1	-1E+10	1	-1E+10	1	-1E+10	1	-1E+10	1	-1E+10	1
4902551	95	C	04/01/2023	03:08	-131.217	47.910	0	1865.10	0	2.0300	0	34.5660	0	27.631	0	1841.247	0	45.5	4	13.7	4	-1E+10	1	-1E+10	1	-1E+10	1	-1E+10	1	-1E+10	1	-1E+10	1
4902551	95	C	04/01/2023	03:08	-131.217	47.910	0	1875.50	0	2.0260	0	34.5670	0	27.633	0	1851.469	0	46.0	4	13.9	4	-1E+10	1	-1E+10	1	-1E+10	1	-1E+10	1	-1E+10	1	-1E+10	1
4902551	95	C	04/01/2023	03:08	-131.217	47.910	0	1885.20	0	2.0220	0	34.5680	0	27.634	0	1861.002	0	46.6	4	14.1	4	-1E+10	1	-1E+10	1	-1E+10	1	-1E+10	1	-1E+10	1	-1E+10	1
4902551	95	C	04/01/2023	03:08	-131.217	47.910	0	1895.30	0	2.0140	0	34.5690	0	27.635	0	1870.928	0	47.5	4	14.3	4	-1E+10	1	-1E+10	1	-1E+10	1	-1E+10	1	-1E+10	1	-1E+10	1
4902551	95	C	04/01/2023	03:08	-131.217	47.910	0	1905.30	0	2.0070	0	34.5710	0	27.638	0	1880.755	0	48.2	4	14.5	4	-1E+10	1	-1E+10	1	-1E+10	1	-1E+10	1	-1E+10	1	-1E+10	1
4902551	95	C	04/01/2023	03:08	-131.217	47.910	0	1915.00	0	2.0010	0	34.5720	0	27.639	0	1890.287	0	48.8	4	14.7	4	-1E+10	1	-1E+10	1	-1E+10	1	-1E+10	1	-1E+10	1	-1E+10	1
4902551	95	C	04/01/2023	03:08	-131.217	47.910	0	1925.00	0	1.9930	0	34.5740	0	27.641	0	1900.113	0	49.5	4	14.9	4	-1E+10	1	-1E+10	1	-1E+10	1	-1E+10	1	-1E+10	1	-1E+10	1
4902551	95	C	04/01/2023	03:08	-131.217	47.910	0	1935.30	0	1.9830	0	34.5760	0	27.644	0	1910.234	0	50.2	4	15.1	4	-1E+10	1	-1E+10	1	-1E+10	1	-1E+10	1	-1E+10	1	-1E+10	1
4902551	95	C	04/01/2023	03:08	-131.217	47.910	0	1945.70	0	1.9780	0	34.5770	0	27.645	0	1920.453	0	50.8	4	15.3	4	-1E+10	1	-1E+10	1	-1E+10	1	-1E+10	1	-1E+10	1	-1E+10	1
4902551	95	C	04/01/2023	03:08	-131.217	47.910	0	1955.70	0	1.9690	0	34.5780	0	27.646	0	1930.277	0	51.4	4	15.5	4	-1E+10	1	-1E+10	1	-1E+10	1	-1E+10	1	-1E+10	1	-1E+10	1
4902551	95	C	04/01/2023	03:08	-131.217	47.910	0	1965.40	0	1.9630	0	34.5790	0	27.648	0	1939.807	0	52.0	4	15.7	4	-1E+10	1	-1E+10	1	-1E+10	1	-1E+10	1	-1E+10	1	-1E+10	1
4902551	95	C	04/01/2023	03:08	-131.217	47.910	0	1975.30	0	1.9530	0	34.5810	0	27.650	0	1949.533	0	52.6	4	15.8	4	-1E+10	1	-1E+10	1	-1E+10	1	-1E+10	1	-1E+10	1	-1E+10	1
4902551	95	C	04/01/2023	03:08	-131.217	47.910	0	1985.60	0	1.9460	0	34.5830	0	27.652	0	1959.651	0	53.1	4	16.0	4	-1E+10	1	-1E+10	1	-1E+10	1	-1E+10	1	-1E+10	1	-1E+10	1
4902551	95	C	04/01/2023	03:08	-131.217	47.910	0	1992.60	0	1.9430	0	34.5830	0	27.653	0	1966.528	0	53.2	4	16.0	4	-1E+10	1	-1E+10	1	-1E+10	1	-1E+10	1	-1E+10	1	-1E+10	1
4902551	95	C	04/01/2023	03:08	-131.217	47.910	0																										
4902551	96	C	04/11/2023	08:00	-131.203	47.952	0	0.50	0	7.7210	0	32.3480	0	25.232	0	0.496	0	284.9	4	96.8	4	-1E+10	1	-1E+10	1	-1E+10	1	-1E+10	1	-1E+10	1	-1E+10	1
4902551	96	C	04/11/2023	08:00	-131.203	47.952	0	0.70	0	7.7240	0	32.3480	0	25.231	0	0.694	0	284.9	4	96.8	4	-1E+10	1	-1E+10	1	-1E+10	1	-1E+10	1	-1E+10	1	-1E+10	1
4902551	96	C	04/11/2023	08:00	-131.203	47.952	0	1.10	0	7.7260	0	32.3460	0	25.229	0	1.091	0	285.0	4	96.8	4	-1E+10	1	-1E+10	1	-1E+10	1	-1E+10	1	-1E+10	1	-1E+10	1
4902551	96	C	04/11/2023	08:00	-131.203	47.952	0	1.50	0	7.7250	0	32.3480	0	25.231	0	1.487	0	284.9	4	96.8	4	-1E+10	1	-1E+10	1	-1E+10	1	-1E+10	1	-1E+10	1	-1E+10	1
4902551	96	C	04/11/2023	08:00	-131.203	47.952	0	2.00	0	7.7290	0	32.3440	0	25.227	0	1.983	0	284.9	4	96.8	4	-1E+10	1	-1E+10	1	-1E+10	1	-1E+10	1	-1E+10	1	-1E+10	1
4902551	96	C	04/11/2023	08:00	-131.203	47.952	0	2.70	0	7.7300	0	32.3440	0	25.227	0	2.677	0	284.9	4	96.8	4	-1E+10	1	-1E+10	1	-1E+10	1	-1E+10	1	-1E+10	1	-1E+10	1
4902551	96	C	04/11/2023	08:00	-131.203	47.952	0	3.30	0	7.7290	0	32.3440	0	25.227	0	3.272	0	-1e10	1	-1e10	1	-1E+10	1	-1E+10	1	-1E+10	1	-1E+10	1	-1E+10	1	-1E+10	1
4902551	96	C	04/11/2023	08:00	-131.203	47.952	0	3.40	0	7.7300	0	32.3450	0	25.228	0	3.371	0	277.8	4	94.4	4	-1E+10	1	-1E+10	1	-1E+10	1	-1E+10	1	-1E+10	1	-1E+10	1
4902551	96	C	04/11/2023	08:00	-131.203	47.952	0	4.10	0	7.7310	0	32.3450	0	25.228	0	4.066	0	277.7	4	94.4	4	-1E+10	1	-1E+10	1	-1E+10	1	-1E+10	1	-1E+10	1	-1E+10	1
4902551	96	C	04/11/2023	08:00	-131.203	47.952	0	5.00	0	7.7320	0	32.3450	0	25.228	0	4.958	0	277.7	4	94.4	4	-1E+10	1	-1E+10	1	-1E+10	1	-1E+10	1	-1E+10	1	-1E+10	1
4902551	96	C	04/11/2023	08:00	-131.203	47.952	0	6.00	0	7.7340	0	32.3450	0	25.228	0	5.950	0	277.7	4	94.4	4	-1E+10	1	-1E+10	1	-1E+10	1	-1E+10	1	-1E+10	1	-1E+10	1
4902551	96	C	04/11/2023	08:00	-131.203	47.952	0	6.80	0	7.7370	0	32.3450	0	25.227	0	6.743	0	277.6	4	94.4	4	-1E+10	1	-1E+10	1	-1E+10	1	-1E+10	1	-1E+10	1	-1E+10	1
4902551	96	C	04/11/2023	08:00	-131.203	47.952	0	8.10	0	7.7380	0	32.3450	0	25.227	0	8.032	0	277.6	4	94.3	4	-1E+10	1	-1E+10	1	-1E+10	1	-1E+10	1	-1E+10	1	-1E+10	1
4902551	96	C	04/11/2023	08:00	-131.203	47.952	0	8.90	0	7.7370	0	32.3450	0	25.227	0	8.825	0	277.6	4	94.3	4	-1E+10	1	-1E+10	1	-1E+10	1	-1E+10	1	-1E+10	1	-1E+10	1
4902551	96	C	04/11/2023	08:00	-131.203	47.952	0	10.00	0	7.7400	0	32.3450	0	25.227	0	9.916	0	277.6	4	94.3	4	-1E+10	1	-1E+10	1	-1E+10	1	-1E+10	1	-1E+10	1	-1E+10	1
4902551	96	C	04/11/2023	08:00	-131.203	47.952	0	10.90	0	7.7390	0	32.3450	0	25.227	0	10.808	0	277.6	4	94.3	4	-1E+10	1	-1E+10	1	-1E+10	1	-1E+10	1	-1E+10	1	-1E+10	1
4902551	96	C	04/11/2023	08:00	-131.203	47.952	0	12.10	0	7.7370	0	32.3450	0	25.227	0	11.998	0	277.5	4	94.3	4	-1E+10	1	-1E+10	1	-1E+10	1	-1E+10	1	-1E+10	1	-1E+10	1
4902551	96	C	04/11/2023	08:00	-131.203	47.952	0	12.90	0	7.7380	0	32.3450	0	25.227	0	12.791	0	277.5	4	94.3	4	-1E+10	1	-1E+10	1	-1E+10	1	-1E+10	1	-1E+10	1	-1E+10	1
4902551	96	C	04/11/2023	08:00	-131.203	47.952	0	14.30	0	7.7390	0	32.3450	0	25.227	0	14.180	0	277.5	4	94.3	4	-1E+10	1	-1E+10	1	-1E+10	1	-1E+10	1	-1E+10	1	-1E+10	1
4902551	96	C	04/11/2023	08:00	-131.203	47.952	0	15.10	0	7.7390	0	32.3450	0	25.227	0	14.973	0	277.4	4	94.3	4	-1E+10	1	-1E+10	1	-1E+10	1	-1E+10	1	-1E+10	1	-1E+10	1
4902551	96	C	04/11/2023	08:00	-131.203	47.952	0	15.90	0	7.7380	0	32.3450	0	25.227	0	15.766	0	277.5	4	94.3	4	-1E+10	1	-1E+10	1	-1E+10	1	-1E+10	1	-1E+10	1	-1E+10	1
4902551	96	C	04/11/2023	08:00	-131.203	47.952	0	17.10	0	7.7380	0	32.3450	0	25.227	0	16.956	0	277.5	4	94.3	4	-1E+10	1	-1E+10	1	-1E+10	1	-1E+10	1	-1E+10	1	-1E+10	1
4902551	96	C	04/11/2023	08:00	-131.203	47.952	0	17.80	0	7.7380	0	32.3450	0	25.227	0	17.650	0	277.4	4	94.3	4	-1E+10	1	-1E+10	1	-1E+10	1	-1E+10	1	-1E+10	1	-1E+10	1
4902551	96	C	04/11/2023	08:00	-131.203	47.952	0	18.90	0	7.7380	0	32.3450	0	25.227	0	18.741	0	277.5	4	94.3	4	-1E+10	1	-1E+10	1	-1E+10	1	-1E+10	1	-1E+10	1	-1E+10	1
4902551	96	C	04/11/2023	08:00	-131.203	47.952	0	19.90	0	7.7380	0	32.3450	0	25.227	0	19.732	0	277.4	4	94.3	4	-1E+10	1	-1E+10	1	-1E+10	1	-1E+10	1	-1E+10	1	-1E+10	1
4902551	96	C	04/11/2023	08:00	-131.203	47.952	0	21.00	0	7.7380	0	32.3450	0	25.227	0	20.823	0	277.4	4	94.3	4	-1E+10	1	-1E+10	1	-1E+10	1	-1E+10	1	-1E+10	1	-1E+10	1
4902551	96	C	04/11/2023	08:00	-131.203	47.952	0	22.10	0	7.7380	0	32.3450	0	25.227	0	21.913	0	277.3	4	94.2	4	-1E+10	1	-1E+10	1	-1E+10	1	-1E+10	1	-1E+10	1	-1E+10	1
4902551	96	C	04/11/2023	08:00	-131.203	47.952	0	23.00	0	7.7390	0	32.3450	0	25.227	0	22.806	0	277.3	4	94.2	4	-1E+10	1	-1E+10	1	-1E+10	1	-1E+10	1	-1E+10	1	-1E+10	1
4902551	96	C	04/11/2023	08:00	-131.203	47.952	0	23.90	0	7.7400	0	32.3450	0	25.227	0	23.698	0	277.3	4	94.2	4	-1E+10	1	-1E+10	1	-1E+10	1	-1E+10	1	-1E+10	1	-1E+10	1
4902551	96	C	04/11/2023	08:00	-131.203	47.952	0	24.90	0	7.7400	0	32.3450	0	25.227	0	24.690	0	277.2	4	94.2	4	-1E+10	1	-1E+10	1	-1E+10	1	-1E+10	1	-1E+10	1	-1E+10	1
4902551	96	C	04/11/2023	08:00	-131.203	47.952	0	25.90	0	7.7400	0	32.3450	0	25.227	0	25.681	0	277.3	4	94.2	4	-1E+10	1	-1E+10	1	-1E+10	1	-1E+10	1	-1E+10	1	-1E+10	1
4902551	96	C	04/11/2023	08:00	-131.203	47.952	0	26.80	0	7.7400	0	32.3450	0	25.227	0	26.573	0	277.4	4	94.3	4	-1E+10	1	-1E+10	1	-1E+10	1	-1E+10	1	-1E+10	1	-1E+10	1
4902551	96	C	04/11/2023	08:00	-131.203	47.952	0	27.90	0	7.7400	0	32.3450	0	25.227	0	27.664	0	277.3	4	94.3	4	-1E+10	1	-1E+10	1	-1E+10	1	-1E+10	1	-1E+10	1	-1E+10	1
4902551	96	C	04/11/2023	08:00	-131.203	47.952	0	29.00	0	7.7400	0	32.3450	0	25.227	0	28.755	0	277.3	4	94.2	4	-1E+10	1	-1E+10	1	-1E+10	1	-1E+10	1	-1E+10	1	-1E+10	1
4902551	96	C	04/11/2023	08:00	-131.203	47.952	0	30.00	0	7.7400	0	32.3450	0	25.227	0	29.746	0	277.2	4	94.2	4	-1E+10	1	-1E+10	1	-1E+10	1	-1E+10	1	-1E+10	1	-1E+10	1
4902551	96	C	04/11/2023	08:00	-131.203	47.952	0	31.10	0	7.7400	0	32.3450	0	25.227	0	30.837	0	277.2	4	94.2	4	-1E+10	1	-1E+10	1	-1E+10	1	-1E+10	1	-1E+10	1	-1E+10	1
4902551	96	C	04/11/2023	08:00	-131.203	47.952	0	32.00	0	7.7400	0	32.3450	0	25.227	0	31.729	0	277.2	4	94.2	4	-1E+10	1	-1E+10	1	-1E+10	1	-1E+10	1	-1E+10	1	-1E+10	1
4902551	96	C	04/11/2023	08:00	-131.203	47.952	0	33.00	0	7.7400	0	32.3450	0	25.227	0	32.721	0	277.2	4	94.2	4	-1E+10	1	-1E+10	1	-1E+10	1	-1E+10	1	-1E+10	1	-1E+10	1
4902551	96	C	04/11/2023	08:00	-131.203	47.952	0	33.90	0	7.7410	0	32.3450	0	25.227	0	33.613	0	277.1	4	94.2	4	-1E+10	1	-1E+10	1	-1E+10	1	-1E+10	1	-1E+10	1	-1E+10	1
4902551	96	C	04/11/2023	08:00	-131.203	47.952	0	34.90	0	7.7410	0	32.3450	0	25.227	0	34.604	0	277.0	4	94.2	4	-1E+10	1	-1E+10	1	-1E+10	1	-1E+10	1	-1E+10	1	-1E+10	1
4902551	96	C	04/11/2023	08:00	-131.203	47.952	0	35.90	0	7.7410	0	32.3450	0	25.227	0	35.596	0	277.0	4	94.1	4	-1E+10	1	-1E+10	1	-1E+10	1	-1E+10	1	-1E+10	1	-1E+10	1
4902551	96	C	04/11/2023	08:00	-131.203	47.952	0	36.90	0	7.7410	0	32.3450	0	25.227	0	36.587	0	277.0	4	94.1	4	-1E+10	1	-1E+10	1	-1E+10	1	-1E+10	1	-1E+10	1	-1E+10	1
4902551	96	C	04/11/2023	08:00	-131.203	47.952	0	37.90	0	7.7420	0	32.3450	0	25.227	0	37.579	0	276.9	4	94.1	4	-1E+10	1	-1E+10	1	-1E+10	1	-1E+10	1	-1E+10	1	-1E+10	1
4902551	96	C	04/11/2023	08:00	-131.203	47.952	0	38.90	0	7.7420	0	32.3450	0	25.227	0	38.570	0	276.9	4	94.1	4	-1E+10	1	-1E+10	1	-1E+10	1	-1E+10	1	-1E+10	1	-1E+10	1
4902551	96	C	04/11/2023	08:00	-131.203	47.952	0	39.90	0	7.7410	0	32.3450	0	25.227	0	39.562	0	276.9	4	94.1	4	-1E+10	1	-1E+10	1	-1E+10	1	-1E+10	1	-1E+10	1	-1E+10	1
4902551	96	C	04/11/2023	08:00	-131.203	47.952	0	41.00	0	7.7400	0	32.3450	0	25.227	0	40.652	0	276.8	4	94.1	4	-1E+10	1	-1E+10	1	-1E+10	1	-1E+10	1	-1E+10	1	-1E+10	1
4902551	96	C	04/11/2023	08:00	-131.203	47.952	0	42.10	0	7.7410	0	32.3450	0	25.227	0	41.743	0	276.7	4	94.1	4	-1E+10	1	-1E+10	1	-1E+10	1	-1E+10	1	-1E+10	1	-1E+10	1
4902551	96	C	04/11/2023	08:00	-131.203	47.952	0	43.00	0	7.7410	0	32.3450	0	25.227	0	42.635	0	276.6	4	94.0	4	-1E+10	1	-1E+10	1	-1E+10	1	-1E+10	1	-1E+10	1	-1E+10	1
4902551	96	C	04/11/2023	08:00	-131.203	47.952	0	43.80	0	7.7420	0	32.3450	0	25.227	0	43.428	0	276.6	4	94.0	4	-1E+10	1	-1E+10	1	-1E+10	1	-1E+10	1	-1E+10	1	-1E+10	1
4902551	96	C	04/11/2023	08:00	-131.203	47.952	0	44.80	0	7.7420	0	32.3450	0	25.227	0	44.419	0	276.7	4	94.0	4	-1E+10	1	-1E+10	1	-1E+10	1	-1E+10	1	-1E+10	1	-1E+10	1
4902551	96	C	04/11/2023	08:00	-131.203	47.952	0	46.00	0	7.7440	0	32.3450	0	25.227	0	45.609	0	276.5	4	94.0	4	-1E+10	1	-1E+10	1	-1E+10	1	-1E+10	1	-1E+10	1	-1E+10	1
4902551	96	C	04/11/2023	08:00	-131.203	47.952	0	47.10	0	7.7440	0	32.3460	0	25.227	0	46.700	0	276.6	4	94.0	4	-1E+10	1	-1E+10	1	-1E+10	1	-1E+10	1	-1E+10	1	-1E+10	1
4902551	96	C	04/11/2023	08:00	-131.203	47.952	0	48.00	0	7.7430	0	32.3450	0	25.227	0	47.592	0	276.4	4	94.0	4	-1E+10	1	-1E+10	1	-1E+10	1	-1E+10	1	-1E+10	1	-1E+10	1
4902551	96	C	04/11/2023	08:00	-131.203	47.952	0	48.90	0	7.7430	0	32.3450	0	25.227	0	48.484	0	276.4	4	93.9	4	-1E+10	1	-1E+10	1	-1E+10	1	-1E+10	1	-1E+10	1	-1E+10	1
4902551	96	C	04/11/2023	08:00	-131.203	47.952	0	50.00	0	7.7440	0	32.3450	0	25.227	0	49.575	0	276.3	4	93.9	4	-1E+10	1	-1E+10	1	-1E+10	1	-1E+10	1	-1E+10	1	-1E+10	1
4902551	96	C	04/11/2023	08:00	-131.203	47.952	0	50.90	0	7.7440	0	32.3440	0	25.226	0	50.467	0	276.3	4	93.9	4	-1E+10	1	-1E+10	1	-1E+10	1	-1E+10	1	-1E+10	1	-1E+10	1
4902551	96	C	04/11/2023	08:00	-131.203	47.952	0	51.80	0	7.7430	0	32.3450	0	25.227	0	51.359	0	276.2	4	93.9	4	-1E+10	1	-1E+10	1	-1E+10	1	-1E+10	1	-1E+10	1	-1E+10	1
4902551	96	C	04/11/2023	08:00	-131.203	47.952	0	52.80	0	7.7440	0	32.3450	0	25.227	0	52.350	0	276.1	4	93.9	4	-1E+10	1	-1E+10	1	-1E+10	1	-1E+10	1	-1E+10	1	-1E+10	1
4902551	96	C	04/11/2023	08:00	-131.203	47.952	0	53.90	0	7.7430	0	32.3450	0	25.227	0	53.441	0	276.1	4	93.8	4	-1E+10	1	-1E+10	1	-1E+10	1	-1E+10	1	-1E+10	1	-1E+10	1
4902551	96	C	04/11/2023	08:00	-131.203	47.952	0	55.00	0	7.7440	0	32.3450	0	25.227	0	54.531	0	276.0	4	93.8	4	-1E+10	1	-1E+10	1	-1E+10	1	-1E+10	1	-1E+10	1	-1E+10	1
4902551	96	C	04/11/2023	08:00	-131.203	47.952	0	55.80	0	7.7440	0	32.3450	0	25.227	0	55.325	0	275.9	4	93.8	4	-1E+10	1	-1E+10	1	-1E+10	1	-1E+10	1	-1E+10	1	-1E+10	1
4902551	96	C	04/11/2023	08:00	-131.203	47.952	0	56.80	0	7.7430	0	32.3450	0	25.227	0	56.316	0	275.7	4	93.7	4	-1E+10	1	-1E+10	1	-1E+10	1	-1E+10	1	-1E+10	1	-1E+10	1
4902551	96	C	04/11/2023	08:00	-131.203	47.952	0	58.00	0	7.7430	0	32.3460	0	25.228	0	57.505	0	275.7	4	93.7	4	-1E+10	1	-1E+10	1	-1E+10	1	-1E+10	1	-1E+10	1	-1E+10	1
4902551	96	C	04/11/2023	08:00	-131.203	47.952	0	59.00	0	7.7410	0	32.3460	0	25.228	0	58.497	0	275.5	4	93.6	4	-1E+10	1	-1E+10	1	-1E+10	1	-1E+10	1	-1E+10	1	-1E+10	1
4902551	96	C	04/11/2023	08:00	-131.203	47.952	0	60.10	0	7.7430	0	32.3450	0	25.227	0	59.587	0	275.4	4	93.6	4	-1E+10	1	-1E+10	1	-1E+10	1	-1E+10	1	-1E+10	1	-1E+10	1
4902551	96	C	04/11/2023	08:00	-131.203	47.952	0	60.80	0	7.7430	0	32.3450	0	25.227	0	60.281	0	275.3	4	93.6	4	-1E+10	1	-1E+10	1	-1E+10	1	-1E+10	1	-1E+10	1	-1E+10	1
4902551	96	C	04/11/2023	08:00	-131.203	47.952	0	61.80	0	7.7360	0	32.3480	0	25.230	0	61.272	0	275.2	4	93.5	4	-1E+10	1	-1E+10	1	-1E+10	1	-1E+10	1	-1E+10	1	-1E+10	1
4902551	96	C	04/11/2023	08:00	-131.203	47.952	0	62.90	0	7.7320	0	32.3510	0	25.233	0	62.363	0	275.2	4	93.5	4	-1E+10	1	-1E+10	1	-1E+10	1	-1E+10	1	-1E+10	1	-1E+10	1
4902551	96	C	04/11/2023	08:00	-131.203	47.952	0	64.00	0	7.7250	0	32.3530	0	25.236	0	63.453	0	275.0	4	93.5	4	-1E+10	1	-1E+10	1	-1E+10	1	-1E+10	1	-1E+10	1	-1E+10	1
4902551	96	C	04/11/2023	08:00	-131.203	47.952	0	65.10	0	7.7220	0	32.3540	0	25.237	0	64.544	0	275.0	4	93.4	4	-1E+10	1	-1E+10	1	-1E+10	1	-1E+10	1	-1E+10	1	-1E+10	1
4902551	96	C	04/11/2023	08:00	-131.203	47.952	0	65.80	0	7.7220	0	32.3540	0	25.237	0	65.238	0	275.0	4	93.4	4	-1E+10	1	-1E+10	1	-1E+10	1	-1E+10	1	-1E+10	1	-1E+10	1
4902551	96	C	04/11/2023	08:00	-131.203	47.952	0	66.90	0	7.7220	0	32.3540	0	25.237	0	66.328	0	275.0	4	93.4	4	-1E+10	1	-1E+10	1	-1E+10	1	-1E+10	1	-1E+10	1	-1E+10	1
4902551	96	C	04/11/2023	08:00	-131.203	47.952	0	68.00	0	7.7240	0	32.3530	0	25.236	0	67.419	0	274.9	4	93.4	4	-1E+10	1	-1E+10	1	-1E+10	1	-1E+10	1	-1E+10	1	-1E+10	1
4902551	96	C	04/11/2023	08:00	-131.203	47.952	0	69.00	0	7.7180	0	32.3570	0	25.240	0	68.410	0	274.8	4	93.4	4	-1E+10	1	-1E+10	1	-1E+10	1	-1E+10	1	-1E+10	1	-1E+10	1
4902551	96	C	04/11/2023	08:00	-131.203	47.952	0	70.10	0	7.7160	0	32.3560	0	25.240	0	69.500	0	274.7	4	93.3	4	-1E+10	1	-1E+10	1	-1E+10	1	-1E+10	1	-1E+10	1	-1E+10	1
4902551	96	C	04/11/2023	08:00	-131.203	47.952	0	70.80	0	7.7140	0	32.3570	0	25.241	0	70.194	0	274.6	4	93.3	4	-1E+10	1	-1E+10	1	-1E+10	1	-1E+10	1	-1E+10	1	-1E+10	1
4902551	96	C	04/11/2023	08:00	-131.203	47.952	0	71.80	0	7.7130	0	32.3570	0	25.241	0	71.185	0	274.5	4	93.3	4	-1E+10	1	-1E+10	1	-1E+10	1	-1E+10	1	-1E+10	1	-1E+10	1
4902551	96	C	04/11/2023	08:00	-131.203	47.952	0	73.10	0	7.7100	0	32.3580	0	25.242	0	72.474	0	274.4	4	93.2	4	-1E+10	1	-1E+10	1	-1E+10	1	-1E+10	1	-1E+10	1	-1E+10	1
4902551	96	C	04/11/2023	08:00	-131.203	47.952	0	74.10	0	7.7100	0	32.3580	0	25.242	0	73.465	0	274.2	4	93.2	4	-1E+10	1	-1E+10	1	-1E+10	1	-1E+10	1	-1E+10	1	-1E+10	1
4902551	96	C	04/11/2023	08:00	-131.203	47.952	0	75.00	0	7.7090	0	32.3580	0	25.242	0	74.357	0	274.0	4	93.1	4	-1E+10	1	-1E+10	1	-1E+10	1	-1E+10	1	-1E+10	1	-1E+10	1
4902551	96	C	04/11/2023	08:00	-131.203	47.952	0	76.00	0	7.7050	0	32.3600	0	25.244	0	75.349	0	273.7	4	93.0	4	-1E+10	1	-1E+10	1	-1E+10	1	-1E+10	1	-1E+10	1	-1E+10	1
4902551	96	C	04/11/2023	08:00	-131.203	47.952	0	77.00	0	7.6960	0	32.3620	0	25.247	0	76.340	0	273.6	4	92.9	4	-1E+10	1	-1E+10	1	-1E+10	1	-1E+10	1	-1E+10	1	-1E+10	1
4902551	96	C	04/11/2023	08:00	-131.203	47.952	0	78.00	0	7.6920	0	32.3630	0	25.249	0	77.331	0	273.3	4	92.8	4	-1E+10	1	-1E+10	1	-1E+10	1	-1E+10	1	-1E+10	1	-1E+10	1
4902551	96	C	04/11/2023	08:00	-131.203	47.952	0	78.90	0	7.6890	0	32.3630	0	25.249	0	78.223	0	273.1	4	92.7	4	-1E+10	1	-1E+10	1	-1E+10	1	-1E+10	1	-1E+10	1	-1E+10	1
4902551	96	C	04/11/2023	08:00	-131.203	47.952	0	80.10	0	7.6840	0	32.3640	0	25.251	0	79.413	0	272.8	4	92.6	4	-1E+10	1	-1E+10	1	-1E+10	1	-1E+10	1	-1E+10	1	-1E+10	1
4902551	96	C	04/11/2023	08:00	-131.203	47.952	0	81.00	0	7.6800	0	32.3660	0	25.253	0	80.305	0	272.5	4	92.5	4	-1E+10	1	-1E+10	1	-1E+10	1	-1E+10	1	-1E+10	1	-1E+10	1
4902551	96	C	04/11/2023	08:00	-131.203	47.952	0	81.90	0	7.6760	0	32.3670	0	25.254	0	81.197	0	272.3	4	92.4	4	-1E+10	1	-1E+10	1	-1E+10	1	-1E+10	1	-1E+10	1	-1E+10	1
4902551	96	C	04/11/2023	08:00	-131.203	47.952	0	83.10	0	7.6730	0	32.3680	0	25.255	0	82.386	0	271.8	4	92.2	4	-1E+10	1	-1E+10	1	-1E+10	1	-1E+10	1	-1E+10	1	-1E+10	1
4902551	96	C	04/11/2023	08:00	-131.203	47.952	0	83.90	0	7.6690	0	32.3690	0	25.257	0	83.179	0	271.3	4	92.1	4	-1E+10	1	-1E+10	1	-1E+10	1	-1E+10	1	-1E+10	1	-1E+10	1
4902551	96	C	04/11/2023	08:00	-131.203	47.952	0	84.80	0	7.6640	0	32.3700	0	25.258	0	84.071	0	277.5	4	94.2	4	-1E+10	1	-1E+10	1	-1E+10	1	-1E+10	1	-1E+10	1	-1E+10	1
4902551	96	C	04/11/2023	08:00	-131.203	47.952	0	85.90	0	7.6580	0	32.3710	0	25.260	0	85.162	0	276.5	4	93.8	4	-1E+10	1	-1E+10	1	-1E+10	1	-1E+10	1	-1E+10	1	-1E+10	1
4902551	96	C	04/11/2023	08:00	-131.203	47.952	0	86.90	0	7.6550	0	32.3730	0	25.262	0	86.153	0	275.3	4	93.4	4	-1E+10	1	-1E+10	1	-1E+10	1	-1E+10	1	-1E+10	1	-1E+10	1
4902551	96	C	04/11/2023	08:00	-131.203	47.952	0	88.10	0	7.6390	0	32.3780	0	25.268	0	87.342	0	272.9	4	92.6	4	-1E+10	1	-1E+10	1	-1E+10	1	-1E+10	1	-1E+10	1	-1E+10	1
4902551	96	C	04/11/2023	08:00	-131.203	47.952	0	89.10	0	7.6110	0	32.3890	0	25.280	0	88.334	0	269.1	4	91.2	4	-1E+10	1	-1E+10	1	-1E+10	1	-1E+10	1	-1E+10	1	-1E+10	1
4902551	96	C	04/11/2023	08:00	-131.203	47.952	0	90.00	0	7.5660	0	32.4110	0	25.304	0	89.226	0	265.9	4	90.0	4	-1E+10	1	-1E+10	1	-1E+10	1	-1E+10	1	-1E+10	1	-1E+10	1
4902551	96	C	04/11/2023	08:00	-131.203	47.952	0	90.80	0	7.5210	0	32.4390	0	25.332	0	90.019	0	263.5	4	89.2	4	-1E+10	1	-1E+10	1	-1E+10	1	-1E+10	1	-1E+10	1	-1E+10	1
4902551	96	C	04/11/2023	08:00	-131.203	47.952	0	91.80	0	7.5040	0	32.4500	0	25.343	0	91.010	0	260.7	4	88.2	4	-1E+10	1	-1E+10	1	-1E+10	1	-1E+10	1	-1E+10	1	-1E+10	1
4902551	96	C	04/11/2023	08:00	-131.203	47.952	0	92.80	0	7.4850	0	32.4610	0	25.355	0	92.001	0	257.5	4	87.1	4	-1E+10	1	-1E+10	1	-1E+10	1	-1E+10	1	-1E+10	1	-1E+10	1
4902551	96	C	04/11/2023	08:00	-131.203	47.952	0	94.00	0	7.4190	0	32.5020	0	25.396	0	93.190	0	254.5	4	86.0	4	-1E+10	1	-1E+10	1	-1E+10	1	-1E+10	1	-1E+10	1	-1E+10	1
4902551	96	C	04/11/2023	08:00	-131.203	47.952	0	95.10	0	7.3850	0	32.5230	0	25.417	0	94.281	0	251.9	4	85.0	4	-1E+10	1	-1E+10	1	-1E+10	1	-1E+10	1	-1E+10	1	-1E+10	1
4902551	96	C	04/11/2023	08:00	-131.203	47.952	0	96.00	0	7.3640	0	32.5350	0	25.430	0	95.173	0	249.0	4	84.0	4	-1E+10	1	-1E+10	1	-1E+10	1	-1E+10	1	-1E+10	1	-1E+10	1
4902551	96	C	04/11/2023	08:00	-131.203	47.952	0	96.90	0	7.3260	0	32.5580	0	25.453	0	96.065	0	246.4	4	83.1	4	-1E+10	1	-1E+10	1	-1E+10	1	-1E+10	1	-1E+10	1	-1E+10	1
4902551	96	C	04/11/2023	08:00	-131.203	47.952	0	98.10	0	7.2880	0	32.5790	0	25.475	0	97.254	0	242.8	4	81.8	4	-1E+10	1	-1E+10	1	-1E+10	1	-1E+10	1	-1E+10	1	-1E+10	1
4902551	96	C	04/11/2023	08:00	-131.203	47.952	0	99.00	0	7.2270	0	32.6120	0	25.509	0	98.146	0	240.3	4	80.9	4	-1E+10	1	-1E+10	1	-1E+10	1	-1E+10	1	-1E+10	1	-1E+10	1
4902551	96	C	04/11/2023	08:00	-131.203	47.952	0	100.20	0	7.1040	0	32.6710	0	25.572	0	99.335	0	238.0	4	79.9	4	-1E+10	1	-1E+10	1	-1E+10	1	-1E+10	1	-1E+10	1	-1E+10	1
4902551	96	C	04/11/2023	08:00	-131.203	47.952	0	100.80	0	7.0420	0	32.6980	0	25.602	0	99.930	0	236.5	4	79.3	4	-1E+10	1	-1E+10	1	-1E+10	1	-1E+10	1	-1E+10	1	-1E+10	1
4902551	96	C	04/11/2023	08:00	-131.203	47.952	0	101.80	0	6.8160	0	32.8150	0	25.724	0	100.921	0	235.3	4	78.6	4	-1E+10	1	-1E+10	1	-1E+10	1	-1E+10	1	-1E+10	1	-1E+10	1
4902551	96	C	04/11/2023	08:00	-131.203	47.952	0	102.80	0	6.7920	0	32.8270	0	25.736	0	101.912	0	233.5	4	77.9	4	-1E+10	1	-1E+10	1	-1E+10	1	-1E+10	1	-1E+10	1	-1E+10	1
4902551	96	C	04/11/2023	08:00	-131.203	47.952	0	103.80	0	6.7210	0	32.8700	0	25.780	0	102.904	0	231.4	4	77.1	4	-1E+10	1	-1E+10	1	-1E+10	1	-1E+10	1	-1E+10	1	-1E+10	1
4902551	96	C	04/11/2023	08:00	-131.203	47.952	0	104.80	0	6.6500	0	32.9170	0	25.826	0	103.895	0	230.2	4	76.6	4	-1E+10	1	-1E+10	1	-1E+10	1	-1E+10	1	-1E+10	1	-1E+10	1
4902551	96	C	04/11/2023	08:00	-131.203	47.952	0	106.00	0	6.5830	0	32.9620	0	25.870	0	105.084	0	228.8	4	76.1	4	-1E+10	1	-1E+10	1	-1E+10	1	-1E+10	1	-1E+10	1	-1E+10	1
4902551	96	C	04/11/2023	08:00	-131.203	47.952	0	106.80	0	6.5470	0	32.9870	0	25.894	0	105.877	0	228.0	4	75.8	4	-1E+10	1	-1E+10	1	-1E+10	1	-1E+10	1	-1E+10	1	-1E+10	1
4902551	96	C	04/11/2023	08:00	-131.203	47.952	0	107.80	0	6.5210	0	33.0060	0	25.913	0	106.868	0	227.1	4	75.4	4	-1E+10	1	-1E+10	1	-1E+10	1	-1E+10	1	-1E+10	1	-1E+10	1
4902551	96	C	04/11/2023	08:00	-131.203	47.952	0	108.80	0	6.5060	0	33.0170	0	25.923	0	107.859	0	225.8	4	75.0	4	-1E+10	1	-1E+10	1	-1E+10	1	-1E+10	1	-1E+10	1	-1E+10	1
4902551	96	C	04/11/2023	08:00	-131.203	47.952	0	109.80	0	6.4700	0	33.0430	0	25.949	0	108.850	0	224.1	4	74.4	4	-1E+10	1	-1E+10	1	-1E+10	1	-1E+10	1	-1E+10	1	-1E+10	1
4902551	96	C	04/11/2023	08:00	-131.203	47.952	0	111.00	0	6.4470	0	33.0640	0	25.968	0	110.039	0	222.4	4	73.8	4	-1E+10	1	-1E+10	1	-1E+10	1	-1E+10	1	-1E+10	1	-1E+10	1
4902551	96	C	04/11/2023	08:00	-131.203	47.952	0	112.10	0	6.4230	0	33.0910	0	25.992	0	111.130	0	220.9	4	73.2	4	-1E+10	1	-1E+10	1	-1E+10	1	-1E+10	1	-1E+10	1	-1E+10	1
4902551	96	C	04/11/2023	08:00	-131.203	47.952	0	113.10	0	6.4030	0	33.1150	0	26.014	0	112.121	0	219.8	4	72.9	4	-1E+10	1	-1E+10	1	-1E+10	1	-1E+10	1	-1E+10	1	-1E+10	1
4902551	96	C	04/11/2023	08:00	-131.203	47.952	0	114.00	0	6.3860	0	33.1440	0	26.039	0	113.013	0	218.8	4	72.5	4	-1E+10	1	-1E+10	1	-1E+10	1	-1E+10	1	-1E+10	1	-1E+10	1
4902551	96	C	04/11/2023	08:00	-131.203	47.952	0	115.00	0	6.3790	0	33.1610	0	26.053	0	114.004	0	218.0	4	72.2	4	-1E+10	1	-1E+10	1	-1E+10	1	-1E+10	1	-1E+10	1	-1E+10	1
4902551	96	C	04/11/2023	08:00	-131.203	47.952	0	116.00	0	6.3600	0	33.1900	0	26.079	0	114.995	0	217.2	4	72.0	4	-1E+10	1	-1E+10	1	-1E+10	1	-1E+10	1	-1E+10	1	-1E+10	1
4902551	96	C	04/11/2023	08:00	-131.203	47.952	0	117.20	0	6.3350	0	33.2240	0	26.109	0	116.184	0	216.7	4	71.8	4	-1E+10	1	-1E+10	1	-1E+10	1	-1E+10	1	-1E+10	1	-1E+10	1
4902551	96	C	04/11/2023	08:00	-131.203	47.952	0	117.90	0	6.3270	0	33.2320	0	26.116	0	116.878	0	216.3	4	71.6	4	-1E+10	1	-1E+10	1	-1E+10	1	-1E+10	1	-1E+10	1	-1E+10	1
4902551	96	C	04/11/2023	08:00	-131.203	47.952	0	118.70	0	6.3210	0	33.2410	0	26.124	0	117.671	0	215.8	4	71.5	4	-1E+10	1	-1E+10	1	-1E+10	1	-1E+10	1	-1E+10	1	-1E+10	1
4902551	96	C	04/11/2023	08:00	-131.203	47.952	0	119.90	0	6.3140	0	33.2510	0	26.133	0	118.860	0	215.0	4	71.2	4	-1E+10	1	-1E+10	1	-1E+10	1	-1E+10	1	-1E+10	1	-1E+10	1
4902551	96	C	04/11/2023	08:00	-131.203	47.952	0	121.10	0	6.3010	0	33.2750	0	26.153	0	120.049	0	214.4	4	71.0	4	-1E+10	1	-1E+10	1	-1E+10	1	-1E+10	1	-1E+10	1	-1E+10	1
4902551	96	C	04/11/2023	08:00	-131.203	47.952	0	121.90	0	6.2990	0	33.2790	0	26.157	0	120.842	0	214.0	4	70.9	4	-1E+10	1	-1E+10	1	-1E+10	1	-1E+10	1	-1E+10	1	-1E+10	1
4902551	96	C	04/11/2023	08:00	-131.203	47.952	0	122.70	0	6.2970	0	33.2810	0	26.159	0	121.635	0	213.5	4	70.7	4	-1E+10	1	-1E+10	1	-1E+10	1	-1E+10	1	-1E+10	1	-1E+10	1
4902551	96	C	04/11/2023	08:00	-131.203	47.952	0	123.90	0	6.2940	0	33.2860	0	26.163	0	122.824	0	212.8	4	70.5	4	-1E+10	1	-1E+10	1	-1E+10	1	-1E+10	1	-1E+10	1	-1E+10	1
4902551	96	C	04/11/2023	08:00	-131.203	47.952	0	125.20	0	6.2920	0	33.2900	0	26.166	0	124.112	0	211.8	4	70.1	4	-1E+10	1	-1E+10	1	-1E+10	1	-1E+10	1	-1E+10	1	-1E+10	1
4902551	96	C	04/11/2023	08:00	-131.203	47.952	0	126.10	0	6.2890	0	33.2920	0	26.168	0	125.004	0	211.0	4	69.9	4	-1E+10	1	-1E+10	1	-1E+10	1	-1E+10	1	-1E+10	1	-1E+10	1
4902551	96	C	04/11/2023	08:00	-131.203	47.952	0	127.00	0	6.2660	0	33.3250	0	26.197	0	125.896	0	210.5	4	69.7	4	-1E+10	1	-1E+10	1	-1E+10	1	-1E+10	1	-1E+10	1	-1E+10	1
4902551	96	C	04/11/2023	08:00	-131.203	47.952	0	128.00	0	6.2640	0	33.3280	0	26.200	0	126.887	0	210.0	4	69.5	4	-1E+10	1	-1E+10	1	-1E+10	1	-1E+10	1	-1E+10	1	-1E+10	1
4902551	96	C	04/11/2023	08:00	-131.203	47.952	0	128.90	0	6.2620	0	33.3310	0	26.203	0	127.779	0	209.4	4	69.3	4	-1E+10	1	-1E+10	1	-1E+10	1	-1E+10	1	-1E+10	1	-1E+10	1
4902551	96	C	04/11/2023	08:00	-131.203	47.952	0	129.80	0	6.2610	0	33.3320	0	26.204	0	128.671	0	208.9	4	69.1	4	-1E+10	1	-1E+10	1	-1E+10	1	-1E+10	1	-1E+10	1	-1E+10	1
4902551	96	C	04/11/2023	08:00	-131.203	47.952	0	130.70	0	6.2600	0	33.3330	0	26.204	0	129.563	0	208.2	4	68.9	4	-1E+10	1	-1E+10	1	-1E+10	1	-1E+10	1	-1E+10	1	-1E+10	1
4902551	96	C	04/11/2023	08:00	-131.203	47.952	0	131.60	0	6.2570	0	33.3390	0	26.210	0	130.455	0	207.5	4	68.7	4	-1E+10	1	-1E+10	1	-1E+10	1	-1E+10	1	-1E+10	1	-1E+10	1
4902551	96	C	04/11/2023	08:00	-131.203	47.952	0	132.60	0	6.2550	0	33.3420	0	26.212	0	131.446	0	206.8	4	68.4	4	-1E+10	1	-1E+10	1	-1E+10	1	-1E+10	1	-1E+10	1	-1E+10	1
4902551	96	C	04/11/2023	08:00	-131.203	47.952	0	133.50	0	6.2540	0	33.3440	0	26.214	0	132.338	0	206.0	4	68.2	4	-1E+10	1	-1E+10	1	-1E+10	1	-1E+10	1	-1E+10	1	-1E+10	1
4902551	96	C	04/11/2023	08:00	-131.203	47.952	0	134.90	0	6.2470	0	33.3570	0	26.225	0	133.725	0	204.6	4	67.7	4	-1E+10	1	-1E+10	1	-1E+10	1	-1E+10	1	-1E+10	1	-1E+10	1
4902551	96	C	04/11/2023	08:00	-131.203	47.952	0	136.40	0	6.2360	0	33.3700	0	26.237	0	135.211	0	202.9	4	67.1	4	-1E+10	1	-1E+10	1	-1E+10	1	-1E+10	1	-1E+10	1	-1E+10	1
4902551	96	C	04/11/2023	08:00	-131.203	47.952	0	137.40	0	6.2140	0	33.3940	0	26.258	0	136.202	0	201.8	4	66.7	4	-1E+10	1	-1E+10	1	-1E+10	1	-1E+10	1	-1E+10	1	-1E+10	1
4902551	96	C	04/11/2023	08:00	-131.203	47.952	0	138.40	0	6.2060	0	33.4010	0	26.265	0	137.193	0	200.9	4	66.4	4	-1E+10	1	-1E+10	1	-1E+10	1	-1E+10	1	-1E+10	1	-1E+10	1
4902551	96	C	04/11/2023	08:00	-131.203	47.952	0	139.40	0	6.2030	0	33.4030	0	26.267	0	138.184	0	199.8	4	66.1	4	-1E+10	1	-1E+10	1	-1E+10	1	-1E+10	1	-1E+10	1	-1E+10	1
4902551	96	C	04/11/2023	08:00	-131.203	47.952	0	140.40	0	6.2010	0	33.4040	0	26.268	0	139.175	0	198.7	4	65.7	4	-1E+10	1	-1E+10	1	-1E+10	1	-1E+10	1	-1E+10	1	-1E+10	1
4902551	96	C	04/11/2023	08:00	-131.203	47.952	0	141.40	0	6.1930	0	33.4120	0	26.275	0	140.166	0	197.5	4	65.3	4	-1E+10	1	-1E+10	1	-1E+10	1	-1E+10	1	-1E+10	1	-1E+10	1
4902551	96	C	04/11/2023	08:00	-131.203	47.952	0	142.50	0	6.1840	0	33.4170	0	26.280	0	141.256	0	196.2	4	64.8	4	-1E+10	1	-1E+10	1	-1E+10	1	-1E+10	1	-1E+10	1	-1E+10	1
4902551	96	C	04/11/2023	08:00	-131.203	47.952	0	143.50	0	6.1610	0	33.4310	0	26.294	0	142.247	0	194.7	4	64.3	4	-1E+10	1	-1E+10	1	-1E+10	1	-1E+10	1	-1E+10	1	-1E+10	1
4902551	96	C	04/11/2023	08:00	-131.203	47.952	0	144.60	0	6.1490	0	33.4490	0	26.310	0	143.337	0	192.9	4	63.7	4	-1E+10	1	-1E+10	1	-1E+10	1	-1E+10	1	-1E+10	1	-1E+10	1
4902551	96	C	04/11/2023	08:00	-131.203	47.952	0	145.70	0	6.1380	0	33.4560	0	26.317	0	144.427	0	191.5	4	63.3	4	-1E+10	1	-1E+10	1	-1E+10	1	-1E+10	1	-1E+10	1	-1E+10	1
4902551	96	C	04/11/2023	08:00	-131.203	47.952	0	146.80	0	6.1280	0	33.4670	0	26.327	0	145.517	0	190.0	4	62.8	4	-1E+10	1	-1E+10	1	-1E+10	1	-1E+10	1	-1E+10	1	-1E+10	1
4902551	96	C	04/11/2023	08:00	-131.203	47.952	0	147.90	0	6.1110	0	33.4770	0	26.337	0	146.607	0	188.6	4	62.3	4	-1E+10	1	-1E+10	1	-1E+10	1	-1E+10	1	-1E+10	1	-1E+10	1
4902551	96	C	04/11/2023	08:00	-131.203	47.952	0	149.00	0	6.0800	0	33.4930	0	26.354	0	147.697	0	187.4	4	61.8	4	-1E+10	1	-1E+10	1	-1E+10	1	-1E+10	1	-1E+10	1	-1E+10	1
4902551	96	C	04/11/2023	08:00	-131.203	47.952	0	150.20	0	6.0610	0	33.5070	0	26.367	0	148.886	0	186.1	4	61.4	4	-1E+10	1	-1E+10	1	-1E+10	1	-1E+10	1	-1E+10	1	-1E+10	1
4902551	96	C	04/11/2023	08:00	-131.203	47.952	0	151.30	0	6.0410	0	33.5210	0	26.381	0	149.976	0	185.1	4	61.0	4	-1E+10	1	-1E+10	1	-1E+10	1	-1E+10	1	-1E+10	1	-1E+10	1
4902551	96	C	04/11/2023	08:00	-131.203	47.952	0	152.40	0	6.0270	0	33.5280	0	26.388	0	151.066	0	184.1	4	60.7	4	-1E+10	1	-1E+10	1	-1E+10	1	-1E+10	1	-1E+10	1	-1E+10	1
4902551	96	C	04/11/2023	08:00	-131.203	47.952	0	153.60	0	6.0180	0	33.5330	0	26.393	0	152.255	0	183.0	4	60.3	4	-1E+10	1	-1E+10	1	-1E+10	1	-1E+10	1	-1E+10	1	-1E+10	1
4902551	96	C	04/11/2023	08:00	-131.203	47.952	0	154.70	0	6.0070	0	33.5410	0	26.401	0	153.345	0	181.8	4	59.9	4	-1E+10	1	-1E+10	1	-1E+10	1	-1E+10	1	-1E+10	1	-1E+10	1
4902551	96	C	04/11/2023	08:00	-131.203	47.952	0	155.80	0	5.9970	0	33.5480	0	26.407	0	154.435	0	180.7	4	59.5	4	-1E+10	1	-1E+10	1	-1E+10	1	-1E+10	1	-1E+10	1	-1E+10	1
4902551	96	C	04/11/2023	08:00	-131.203	47.952	0	156.90	0	5.9900	0	33.5530	0	26.412	0	155.525	0	179.5	4	59.1	4	-1E+10	1	-1E+10	1	-1E+10	1	-1E+10	1	-1E+10	1	-1E+10	1
4902551	96	C	04/11/2023	08:00	-131.203	47.952	0	158.00	0	5.9770	0	33.5670	0	26.425	0	156.615	0	178.3	4	58.7	4	-1E+10	1	-1E+10	1	-1E+10	1	-1E+10	1	-1E+10	1	-1E+10	1
4902551	96	C	04/11/2023	08:00	-131.203	47.952	0	159.10	0	5.9690	0	33.5790	0	26.435	0	157.705	0	177.2	4	58.4	4	-1E+10	1	-1E+10	1	-1E+10	1	-1E+10	1	-1E+10	1	-1E+10	1
4902551	96	C	04/11/2023	08:00	-131.203	47.952	0	160.20	0	5.9660	0	33.5830	0	26.439	0	158.795	0	176.2	4	58.0	4	-1E+10	1	-1E+10	1	-1E+10	1	-1E+10	1	-1E+10	1	-1E+10	1
4902551	96	C	04/11/2023	08:00	-131.203	47.952	0	161.30	0	5.9620	0	33.5970	0	26.451	0	159.885	0	175.2	4	57.7	4	-1E+10	1	-1E+10	1	-1E+10	1	-1E+10	1	-1E+10	1	-1E+10	1
4902551	96	C	04/11/2023	08:00	-131.203	47.952	0	162.40	0	5.9600	0	33.6070	0	26.459	0	160.975	0	174.1	4	57.3	4	-1E+10	1	-1E+10	1	-1E+10	1	-1E+10	1	-1E+10	1	-1E+10	1
4902551	96	C	04/11/2023	08:00	-131.203	47.952	0	163.50	0	5.9520	0	33.6150	0	26.466	0	162.065	0	173.1	4	57.0	4	-1E+10	1	-1E+10	1	-1E+10	1	-1E+10	1	-1E+10	1	-1E+10	1
4902551	96	C	04/11/2023	08:00	-131.203	47.952	0	164.60	0	5.9420	0	33.6180	0	26.470	0	163.154	0	172.0	4	56.6	4	-1E+10	1	-1E+10	1	-1E+10	1	-1E+10	1	-1E+10	1	-1E+10	1
4902551	96	C	04/11/2023	08:00	-131.203	47.952	0	165.70	0	5.9270	0	33.6340	0	26.484	0	164.244	0	171.1	4	56.3	4	-1E+10	1	-1E+10	1	-1E+10	1	-1E+10	1	-1E+10	1	-1E+10	1
4902551	96	C	04/11/2023	08:00	-131.203	47.952	0	166.80	0	5.9210	0	33.6490	0	26.497	0	165.334	0	170.3	4	56.1	4	-1E+10	1	-1E+10	1	-1E+10	1	-1E+10	1	-1E+10	1	-1E+10	1
4902551	96	C	04/11/2023	08:00	-131.203	47.952	0	167.90	0	5.9210	0	33.6480	0	26.496	0	166.424	0	169.5	4	55.8	4	-1E+10	1	-1E+10	1	-1E+10	1	-1E+10	1	-1E+10	1	-1E+10	1
4902551	96	C	04/11/2023	08:00	-131.203	47.952	0	169.00	0	5.9380	0	33.6550	0	26.499	0	167.514	0	168.6	4	55.5	4	-1E+10	1	-1E+10	1	-1E+10	1	-1E+10	1	-1E+10	1	-1E+10	1
4902551	96	C	04/11/2023	08:00	-131.203	47.952	0	170.10	0	5.9520	0	33.6590	0	26.501	0	168.604	0	167.6	4	55.2	4	-1E+10	1	-1E+10	1	-1E+10	1	-1E+10	1	-1E+10	1	-1E+10	1
4902551	96	C	04/11/2023	08:00	-131.203	47.952	0	171.20	0	5.9340	0	33.6650	0	26.508	0	169.694	0	166.8	4	54.9	4	-1E+10	1	-1E+10	1	-1E+10	1	-1E+10	1	-1E+10	1	-1E+10	1
4902551	96	C	04/11/2023	08:00	-131.203	47.952	0	172.30	0	5.9230	0	33.6750	0	26.517	0	170.784	0	166.0	4	54.7	4	-1E+10	1	-1E+10	1	-1E+10	1	-1E+10	1	-1E+10	1	-1E+10	1
4902551	96	C	04/11/2023	08:00	-131.203	47.952	0	173.30	0	5.9190	0	33.6730	0	26.516	0	171.774	0	165.2	4	54.4	4	-1E+10	1	-1E+10	1	-1E+10	1	-1E+10	1	-1E+10	1	-1E+10	1
4902551	96	C	04/11/2023	08:00	-131.203	47.952	0	174.30	0	5.9210	0	33.6760	0	26.518	0	172.765	0	164.4	4	54.1	4	-1E+10	1	-1E+10	1	-1E+10	1	-1E+10	1	-1E+10	1	-1E+10	1
4902551	96	C	04/11/2023	08:00	-131.203	47.952	0	175.40	0	5.9250	0	33.6770	0	26.519	0	173.855	0	163.3	4	53.8	4	-1E+10	1	-1E+10	1	-1E+10	1	-1E+10	1	-1E+10	1	-1E+10	1
4902551	96	C	04/11/2023	08:00	-131.203	47.952	0	176.40	0	5.9300	0	33.6790	0	26.520	0	174.846	0	162.1	4	53.4	4	-1E+10	1	-1E+10	1	-1E+10	1	-1E+10	1	-1E+10	1	-1E+10	1
4902551	96	C	04/11/2023	08:00	-131.203	47.952	0	177.50	0	5.9290	0	33.6800	0	26.520	0	175.936	0	160.8	4	52.9	4	-1E+10	1	-1E+10	1	-1E+10	1	-1E+10	1	-1E+10	1	-1E+10	1
4902551	96	C	04/11/2023	08:00	-131.203	47.952	0	178.50	0	5.9290	0	33.6870	0	26.526	0	176.926	0	159.5	4	52.5	4	-1E+10	1	-1E+10	1	-1E+10	1	-1E+10	1	-1E+10	1	-1E+10	1
4902551	96	C	04/11/2023	08:00	-131.203	47.952	0	179.50	0	5.9100	0	33.6880	0	26.529	0	177.917	0	158.1	4	52.0	4	-1E+10	1	-1E+10	1	-1E+10	1	-1E+10	1	-1E+10	1	-1E+10	1
4902551	96	C	04/11/2023	08:00	-131.203	47.952	0	180.50	0	5.9260	0	33.7070	0	26.542	0	178.908	0	156.7	4	51.6	4	-1E+10	1	-1E+10	1	-1E+10	1	-1E+10	1	-1E+10	1	-1E+10	1
4902551	96	C	04/11/2023	08:00	-131.203	47.952	0	181.50	0	5.8940	0	33.7120	0	26.550	0	179.899	0	155.5	4	51.2	4	-1E+10	1	-1E+10	1	-1E+10	1	-1E+10	1	-1E+10	1	-1E+10	1
4902551	96	C	04/11/2023	08:00	-131.203	47.952	0	182.50	0	5.8820	0	33.7160	0	26.555	0	180.889	0	154.4	4	50.8	4	-1E+10	1	-1E+10	1	-1E+10	1	-1E+10	1	-1E+10	1	-1E+10	1
4902551	96	C	04/11/2023	08:00	-131.203	47.952	0	183.50	0	5.8670	0	33.7240	0	26.563	0	181.880	0	153.5	4	50.5	4	-1E+10	1	-1E+10	1	-1E+10	1	-1E+10	1	-1E+10	1	-1E+10	1
4902551	96	C	04/11/2023	08:00	-131.203	47.952	0	184.50	0	5.8630	0	33.7270	0	26.566	0	182.871	0	152.5	4	50.2	4	-1E+10	1	-1E+10	1	-1E+10	1	-1E+10	1	-1E+10	1	-1E+10	1
4902551	96	C	04/11/2023	08:00	-131.203	47.952	0	185.50	0	5.8470	0	33.7300	0	26.570	0	183.862	0	151.7	4	49.9	4	-1E+10	1	-1E+10	1	-1E+10	1	-1E+10	1	-1E+10	1	-1E+10	1
4902551	96	C	04/11/2023	08:00	-131.203	47.952	0	187.00	0	5.8400	0	33.7320	0	26.573	0	185.348	0	150.3	4	49.4	4	-1E+10	1	-1E+10	1	-1E+10	1	-1E+10	1	-1E+10	1	-1E+10	1
4902551	96	C	04/11/2023	08:00	-131.203	47.952	0	188.20	0	5.8310	0	33.7320	0	26.574	0	186.537	0	149.1	4	49.0	4	-1E+10	1	-1E+10	1	-1E+10	1	-1E+10	1	-1E+10	1	-1E+10	1
4902551	96	C	04/11/2023	08:00	-131.203	47.952	0	189.00	0	5.8260	0	33.7320	0	26.574	0	187.329	0	148.2	4	48.7	4	-1E+10	1	-1E+10	1	-1E+10	1	-1E+10	1	-1E+10	1	-1E+10	1
4902551	96	C	04/11/2023	08:00	-131.203	47.952	0	189.80	0	5.8200	0	33.7350	0	26.577	0	188.122	0	147.2	4	48.4	4	-1E+10	1	-1E+10	1	-1E+10	1	-1E+10	1	-1E+10	1	-1E+10	1
4902551	96	C	04/11/2023	08:00	-131.203	47.952	0	191.00	0	5.8090	0	33.7360	0	26.580	0	189.310	0	145.8	4	47.9	4	-1E+10	1	-1E+10	1	-1E+10	1	-1E+10	1	-1E+10	1	-1E+10	1
4902551	96	C	04/11/2023	08:00	-131.203	47.952	0	192.10	0	5.7970	0	33.7390	0	26.583	0	190.400	0	144.2	4	47.4	4	-1E+10	1	-1E+10	1	-1E+10	1	-1E+10	1	-1E+10	1	-1E+10	1
4902551	96	C	04/11/2023	08:00	-131.203	47.952	0	193.00	0	5.7590	0	33.7380	0	26.587	0	191.292	0	143.3	4	47.0	4	-1E+10	1	-1E+10	1	-1E+10	1	-1E+10	1	-1E+10	1	-1E+10	1
4902551	96	C	04/11/2023	08:00	-131.203	47.952	0	193.80	0	5.7670	0	33.7420	0	26.590	0	192.084	0	142.4	4	46.7	4	-1E+10	1	-1E+10	1	-1E+10	1	-1E+10	1	-1E+10	1	-1E+10	1
4902551	96	C	04/11/2023	08:00	-131.203	47.952	0	195.00	0	5.7460	0	33.7460	0	26.595	0	193.273	0	141.0	4	46.2	4	-1E+10	1	-1E+10	1	-1E+10	1	-1E+10	1	-1E+10	1	-1E+10	1
4902551	96	C	04/11/2023	08:00	-131.203	47.952	0	196.20	0	5.7190	0	33.7480	0	26.600	0	194.462	0	139.7	4	45.8	4	-1E+10	1	-1E+10	1	-1E+10	1	-1E+10	1	-1E+10	1	-1E+10	1
4902551	96	C	04/11/2023	08:00	-131.203	47.952	0	196.90	0	5.7080	0	33.7490	0	26.602	0	195.155	0	138.8	4	45.5	4	-1E+10	1	-1E+10	1	-1E+10	1	-1E+10	1	-1E+10	1	-1E+10	1
4902551	96	C	04/11/2023	08:00	-131.203	47.952	0	197.70	0	5.6850	0	33.7540	0	26.609	0	195.948	0	137.7	4	45.1	4	-1E+10	1	-1E+10	1	-1E+10	1	-1E+10	1	-1E+10	1	-1E+10	1
4902551	96	C	04/11/2023	08:00	-131.203	47.952	0	198.90	0	5.6150	0	33.7550	0	26.618	0	197.137	0	136.3	4	44.6	4	-1E+10	1	-1E+10	1	-1E+10	1	-1E+10	1	-1E+10	1	-1E+10	1
4902551	96	C	04/11/2023	08:00	-131.203	47.952	0	200.20	0	5.5900	0	33.7560	0	26.622	0	198.425	0	135.3	4	44.2	4	-1E+10	1	-1E+10	1	-1E+10	1	-1E+10	1	-1E+10	1	-1E+10	1
4902551	96	C	04/11/2023	08:00	-131.203	47.952	0	201.00	0	5.5820	0	33.7550	0	26.622	0	199.217	0	134.6	4	44.0	4	-1E+10	1	-1E+10	1	-1E+10	1	-1E+10	1	-1E+10	1	-1E+10	1
4902551	96	C	04/11/2023	08:00	-131.203	47.952	0	201.80	0	5.5670	0	33.7570	0	26.626	0	200.010	0	133.9	4	43.7	4	-1E+10	1	-1E+10	1	-1E+10	1	-1E+10	1	-1E+10	1	-1E+10	1
4902551	96	C	04/11/2023	08:00	-131.203	47.952	0	202.70	0	5.5670	0	33.7580	0	26.626	0	200.901	0	133.2	4	43.5	4	-1E+10	1	-1E+10	1	-1E+10	1	-1E+10	1	-1E+10	1	-1E+10	1
4902551	96	C	04/11/2023	08:00	-131.203	47.952	0	203.90	0	5.5720	0	33.7610	0	26.628	0	202.090	0	132.1	4	43.2	4	-1E+10	1	-1E+10	1	-1E+10	1	-1E+10	1	-1E+10	1	-1E+10	1
4902551	96	C	04/11/2023	08:00	-131.203	47.952	0	205.20	0	5.5600	0	33.7650	0	26.633	0	203.378	0	131.1	4	42.8	4	-1E+10	1	-1E+10	1	-1E+10	1	-1E+10	1	-1E+10	1	-1E+10	1
4902551	96	C	04/11/2023	08:00	-131.203	47.952	0	206.10	0	5.5310	0	33.7750	0	26.644	0	204.269	0	130.5	4	42.6	4	-1E+10	1	-1E+10	1	-1E+10	1	-1E+10	1	-1E+10	1	-1E+10	1
4902551	96	C	04/11/2023	08:00	-131.203	47.952	0	206.90	0	5.4950	0	33.7640	0	26.640	0	205.062	0	130.1	4	42.4	4	-1E+10	1	-1E+10	1	-1E+10	1	-1E+10	1	-1E+10	1	-1E+10	1
4902551	96	C	04/11/2023	08:00	-131.203	47.952	0	207.80	0	5.4920	0	33.7640	0	26.640	0	205.954	0	129.6	4	42.3	4	-1E+10	1	-1E+10	1	-1E+10	1	-1E+10	1	-1E+10	1	-1E+10	1
4902551	96	C	04/11/2023	08:00	-131.203	47.952	0	208.70	0	5.4900	0	33.7670	0	26.643	0	206.845	0	129.0	4	42.1	4	-1E+10	1	-1E+10	1	-1E+10	1	-1E+10	1	-1E+10	1	-1E+10	1
4902551	96	C	04/11/2023	08:00	-131.203	47.952	0	209.90	0	5.4760	0	33.7680	0	26.645	0	208.034	0	128.3	4	41.8	4	-1E+10	1	-1E+10	1	-1E+10	1	-1E+10	1	-1E+10	1	-1E+10	1
4902551	96	C	04/11/2023	08:00	-131.203	47.952	0	211.30	0	5.4690	0	33.7700	0	26.648	0	209.421	0	127.6	4	41.6	4	-1E+10	1	-1E+10	1	-1E+10	1	-1E+10	1	-1E+10	1	-1E+10	1
4902551	96	C	04/11/2023	08:00	-131.203	47.952	0	212.20	0	5.4640	0	33.7690	0	26.648	0	210.312	0	127.1	4	41.4	4	-1E+10	1	-1E+10	1	-1E+10	1	-1E+10	1	-1E+10	1	-1E+10	1
4902551	96	C	04/11/2023	08:00	-131.203	47.952	0	213.00	0	5.4590	0	33.7700	0	26.649	0	211.105	0	126.6	4	41.2	4	-1E+10	1	-1E+10	1	-1E+10	1	-1E+10	1	-1E+10	1	-1E+10	1
4902551	96	C	04/11/2023	08:00	-131.203	47.952	0	213.90	0	5.4370	0	33.7740	0	26.655	0	211.996	0	126.1	4	41.1	4	-1E+10	1	-1E+10	1	-1E+10	1	-1E+10	1	-1E+10	1	-1E+10	1
4902551	96	C	04/11/2023	08:00	-131.203	47.952	0	214.80	0	5.4260	0	33.7700	0	26.653	0	212.888	0	125.7	4	40.9	4	-1E+10	1	-1E+10	1	-1E+10	1	-1E+10	1	-1E+10	1	-1E+10	1
4902551	96	C	04/11/2023	08:00	-131.203	47.952	0	215.70	0	5.4250	0	33.7710	0	26.654	0	213.779	0	125.2	4	40.8	4	-1E+10	1	-1E+10	1	-1E+10	1	-1E+10	1	-1E+10	1	-1E+10	1
4902551	96	C	04/11/2023	08:00	-131.203	47.952	0	216.60	0	5.4090	0	33.7720	0	26.656	0	214.671	0	124.7	4	40.6	4	-1E+10	1	-1E+10	1	-1E+10	1	-1E+10	1	-1E+10	1	-1E+10	1
4902551	96	C	04/11/2023	08:00	-131.203	47.952	0	217.90	0	5.3890	0	33.7700	0	26.657	0	215.958	0	124.0	4	40.3	4	-1E+10	1	-1E+10	1	-1E+10	1	-1E+10	1	-1E+10	1	-1E+10	1
4902551	96	C	04/11/2023	08:00	-131.203	47.952	0	219.30	0	5.3720	0	33.7700	0	26.659	0	217.345	0	123.1	4	40.0	4	-1E+10	1	-1E+10	1	-1E+10	1	-1E+10	1	-1E+10	1	-1E+10	1
4902551	96	C	04/11/2023	08:00	-131.203	47.952	0	220.20	0	5.3690	0	33.7690	0	26.659	0	218.237	0	122.6	4	39.9	4	-1E+10	1	-1E+10	1	-1E+10	1	-1E+10	1	-1E+10	1	-1E+10	1
4902551	96	C	04/11/2023	08:00	-131.203	47.952	0	221.10	0	5.3570	0	33.7720	0	26.663	0	219.128	0	122.0	4	39.7	4	-1E+10	1	-1E+10	1	-1E+10	1	-1E+10	1	-1E+10	1	-1E+10	1
4902551	96	C	04/11/2023	08:00	-131.203	47.952	0	222.00	0	5.3310	0	33.7710	0	26.665	0	220.020	0	121.4	4	39.4	4	-1E+10	1	-1E+10	1	-1E+10	1	-1E+10	1	-1E+10	1	-1E+10	1
4902551	96	C	04/11/2023	08:00	-131.203	47.952	0	223.00	0	5.3240	0	33.7700	0	26.665	0	221.010	0	120.8	4	39.2	4	-1E+10	1	-1E+10	1	-1E+10	1	-1E+10	1	-1E+10	1	-1E+10	1
4902551	96	C	04/11/2023	08:00	-131.203	47.952	0	223.90	0	5.3170	0	33.7710	0	26.667	0	221.902	0	120.1	4	39.0	4	-1E+10	1	-1E+10	1	-1E+10	1	-1E+10	1	-1E+10	1	-1E+10	1
4902551	96	C	04/11/2023	08:00	-131.203	47.952	0	224.80	0	5.3110	0	33.7710	0	26.667	0	222.793	0	119.4	4	38.8	4	-1E+10	1	-1E+10	1	-1E+10	1	-1E+10	1	-1E+10	1	-1E+10	1
4902551	96	C	04/11/2023	08:00	-131.203	47.952	0	225.70	0	5.3030	0	33.7720	0	26.669	0	223.685	0	118.6	4	38.5	4	-1E+10	1	-1E+10	1	-1E+10	1	-1E+10	1	-1E+10	1	-1E+10	1
4902551	96	C	04/11/2023	08:00	-131.203	47.952	0	226.60	0	5.3000	0	33.7700	0	26.668	0	224.576	0	117.7	4	38.2	4	-1E+10	1	-1E+10	1	-1E+10	1	-1E+10	1	-1E+10	1	-1E+10	1
4902551	96	C	04/11/2023	08:00	-131.203	47.952	0	227.50	0	5.2910	0	33.7710	0	26.670	0	225.468	0	116.8	4	37.9	4	-1E+10	1	-1E+10	1	-1E+10	1	-1E+10	1	-1E+10	1	-1E+10	1
4902551	96	C	04/11/2023	08:00	-131.203	47.952	0	228.90	0	5.2570	0	33.7730	0	26.675	0	226.854	0	115.5	4	37.5	4	-1E+10	1	-1E+10	1	-1E+10	1	-1E+10	1	-1E+10	1	-1E+10	1
4902551	96	C	04/11/2023	08:00	-131.203	47.952	0	230.30	0	5.2150	0	33.7750	0	26.682	0	228.241	0	114.4	4	37.1	4	-1E+10	1	-1E+10	1	-1E+10	1	-1E+10	1	-1E+10	1	-1E+10	1
4902551	96	C	04/11/2023	08:00	-131.203	47.952	0	231.20	0	5.1920	0	33.7760	0	26.685	0	229.133	0	113.7	4	36.8	4	-1E+10	1	-1E+10	1	-1E+10	1	-1E+10	1	-1E+10	1	-1E+10	1
4902551	96	C	04/11/2023	08:00	-131.203	47.952	0	232.20	0	5.1810	0	33.7760	0	26.686	0	230.123	0	113.0	4	36.6	4	-1E+10	1	-1E+10	1	-1E+10	1	-1E+10	1	-1E+10	1	-1E+10	1
4902551	96	C	04/11/2023	08:00	-131.203	47.952	0	233.10	0	5.1730	0	33.7760	0	26.687	0	231.015	0	112.4	4	36.4	4	-1E+10	1	-1E+10	1	-1E+10	1	-1E+10	1	-1E+10	1	-1E+10	1
4902551	96	C	04/11/2023	08:00	-131.203	47.952	0	234.00	0	5.1640	0	33.7760	0	26.688	0	231.906	0	111.7	4	36.2	4	-1E+10	1	-1E+10	1	-1E+10	1	-1E+10	1	-1E+10	1	-1E+10	1
4902551	96	C	04/11/2023	08:00	-131.203	47.952	0	234.90	0	5.1550	0	33.7770	0	26.690	0	232.797	0	111.0	4	35.9	4	-1E+10	1	-1E+10	1	-1E+10	1	-1E+10	1	-1E+10	1	-1E+10	1
4902551	96	C	04/11/2023	08:00	-131.203	47.952	0	235.90	0	5.1360	0	33.7790	0	26.694	0	233.788	0	110.1	4	35.6	4	-1E+10	1	-1E+10	1	-1E+10	1	-1E+10	1	-1E+10	1	-1E+10	1
4902551	96	C	04/11/2023	08:00	-131.203	47.952	0	236.90	0	5.1270	0	33.7800	0	26.696	0	234.778	0	109.3	4	35.3	4	-1E+10	1	-1E+10	1	-1E+10	1	-1E+10	1	-1E+10	1	-1E+10	1
4902551	96	C	04/11/2023	08:00	-131.203	47.952	0	237.80	0	5.1220	0	33.7800	0	26.696	0	235.670	0	108.5	4	35.1	4	-1E+10	1	-1E+10	1	-1E+10	1	-1E+10	1	-1E+10	1	-1E+10	1
4902551	96	C	04/11/2023	08:00	-131.203	47.952	0	238.80	0	5.1070	0	33.7870	0	26.704	0	236.660	0	107.6	4	34.8	4	-1E+10	1	-1E+10	1	-1E+10	1	-1E+10	1	-1E+10	1	-1E+10	1
4902551	96	C	04/11/2023	08:00	-131.203	47.952	0	239.70	0	5.0990	0	33.7870	0	26.705	0	237.552	0	106.8	4	34.5	4	-1E+10	1	-1E+10	1	-1E+10	1	-1E+10	1	-1E+10	1	-1E+10	1
4902551	96	C	04/11/2023	08:00	-131.203	47.952	0	240.70	0	5.0940	0	33.7880	0	26.706	0	238.542	0	105.9	4	34.2	4	-1E+10	1	-1E+10	1	-1E+10	1	-1E+10	1	-1E+10	1	-1E+10	1
4902551	96	C	04/11/2023	08:00	-131.203	47.952	0	241.70	0	5.0860	0	33.7890	0	26.708	0	239.533	0	105.0	4	33.9	4	-1E+10	1	-1E+10	1	-1E+10	1	-1E+10	1	-1E+10	1	-1E+10	1
4902551	96	C	04/11/2023	08:00	-131.203	47.952	0	242.60	0	5.0830	0	33.7910	0	26.710	0	240.424	0	104.1	4	33.6	4	-1E+10	1	-1E+10	1	-1E+10	1	-1E+10	1	-1E+10	1	-1E+10	1
4902551	96	C	04/11/2023	08:00	-131.203	47.952	0	243.60	0	5.0830	0	33.7970	0	26.714	0	241.415	0	103.4	4	33.4	4	-1E+10	1	-1E+10	1	-1E+10	1	-1E+10	1	-1E+10	1	-1E+10	1
4902551	96	C	04/11/2023	08:00	-131.203	47.952	0	244.60	0	5.0800	0	33.8020	0	26.719	0	242.405	0	102.7	4	33.2	4	-1E+10	1	-1E+10	1	-1E+10	1	-1E+10	1	-1E+10	1	-1E+10	1
4902551	96	C	04/11/2023	08:00	-131.203	47.952	0	245.60	0	5.0630	0	33.7990	0	26.718	0	243.395	0	102.1	4	33.0	4	-1E+10	1	-1E+10	1	-1E+10	1	-1E+10	1	-1E+10	1	-1E+10	1
4902551	96	C	04/11/2023	08:00	-131.203	47.952	0	246.60	0	5.0630	0	33.8010	0	26.720	0	244.386	0	101.4	4	32.7	4	-1E+10	1	-1E+10	1	-1E+10	1	-1E+10	1	-1E+10	1	-1E+10	1
4902551	96	C	04/11/2023	08:00	-131.203	47.952	0	247.50	0	5.0750	0	33.8080	0	26.724	0	245.277	0	100.7	4	32.5	4	-1E+10	1	-1E+10	1	-1E+10	1	-1E+10	1	-1E+10	1	-1E+10	1
4902551	96	C	04/11/2023	08:00	-131.203	47.952	0	248.50	0	5.0760	0	33.8090	0	26.725	0	246.268	0	100.0	4	32.3	4	-1E+10	1	-1E+10	1	-1E+10	1	-1E+10	1	-1E+10	1	-1E+10	1
4902551	96	C	04/11/2023	08:00	-131.203	47.952	0	249.50	0	5.0510	0	33.8060	0	26.725	0	247.258	0	99.3	4	32.0	4	-1E+10	1	-1E+10	1	-1E+10	1	-1E+10	1	-1E+10	1	-1E+10	1
4902551	96	C	04/11/2023	08:00	-131.203	47.952	0	250.50	0	5.0580	0	33.8070	0	26.725	0	248.248	0	98.4	4	31.8	4	-1E+10	1	-1E+10	1	-1E+10	1	-1E+10	1	-1E+10	1	-1E+10	1
4902551	96	C	04/11/2023	08:00	-131.203	47.952	0	251.90	0	5.0600	0	33.8150	0	26.731	0	249.635	0	97.2	4	31.4	4	-1E+10	1	-1E+10	1	-1E+10	1	-1E+10	1	-1E+10	1	-1E+10	1
4902551	96	C	04/11/2023	08:00	-131.203	47.952	0	253.40	0	5.0790	0	33.8100	0	26.725	0	251.121	0	96.1	4	31.0	4	-1E+10	1	-1E+10	1	-1E+10	1	-1E+10	1	-1E+10	1	-1E+10	1
4902551	96	C	04/11/2023	08:00	-131.203	47.952	0	254.90	0	5.0700	0	33.8310	0	26.743	0	252.606	0	95.4	4	30.8	4	-1E+10	1	-1E+10	1	-1E+10	1	-1E+10	1	-1E+10	1	-1E+10	1
4902551	96	C	04/11/2023	08:00	-131.203	47.952	0	256.90	0	5.0680	0	33.8320	0	26.744	0	254.587	0	94.6	4	30.5	4	-1E+10	1	-1E+10	1	-1E+10	1	-1E+10	1	-1E+10	1	-1E+10	1
4902551	96	C	04/11/2023	08:00	-131.203	47.952	0	258.40	0	5.0660	0	33.8320	0	26.744	0	256.073	0	93.8	4	30.3	4	-1E+10	1	-1E+10	1	-1E+10	1	-1E+10	1	-1E+10	1	-1E+10	1
4902551	96	C	04/11/2023	08:00	-131.203	47.952	0	259.40	0	5.0660	0	33.8320	0	26.744	0	257.063	0	93.2	4	30.1	4	-1E+10	1	-1E+10	1	-1E+10	1	-1E+10	1	-1E+10	1	-1E+10	1
4902551	96	C	04/11/2023	08:00	-131.203	47.952	0	260.40	0	5.0610	0	33.8350	0	26.747	0	258.053	0	92.6	4	29.9	4	-1E+10	1	-1E+10	1	-1E+10	1	-1E+10	1	-1E+10	1	-1E+10	1
4902551	96	C	04/11/2023	08:00	-131.203	47.952	0	261.40	0	5.0500	0	33.8370	0	26.750	0	259.044	0	92.0	4	29.7	4	-1E+10	1	-1E+10	1	-1E+10	1	-1E+10	1	-1E+10	1	-1E+10	1
4902551	96	C	04/11/2023	08:00	-131.203	47.952	0	262.40	0	5.0420	0	33.8410	0	26.754	0	260.034	0	91.6	4	29.6	4	-1E+10	1	-1E+10	1	-1E+10	1	-1E+10	1	-1E+10	1	-1E+10	1
4902551	96	C	04/11/2023	08:00	-131.203	47.952	0	263.30	0	5.0350	0	33.8430	0	26.756	0	260.925	0	91.1	4	29.4	4	-1E+10	1	-1E+10	1	-1E+10	1	-1E+10	1	-1E+10	1	-1E+10	1
4902551	96	C	04/11/2023	08:00	-131.203	47.952	0	264.30	0	5.0300	0	33.8450	0	26.759	0	261.916	0	90.7	4	29.3	4	-1E+10	1	-1E+10	1	-1E+10	1	-1E+10	1	-1E+10	1	-1E+10	1
4902551	96	C	04/11/2023	08:00	-131.203	47.952	0	265.30	0	5.0280	0	33.8460	0	26.760	0	262.906	0	90.3	4	29.1	4	-1E+10	1	-1E+10	1	-1E+10	1	-1E+10	1	-1E+10	1	-1E+10	1
4902551	96	C	04/11/2023	08:00	-131.203	47.952	0	266.30	0	5.0270	0	33.8470	0	26.761	0	263.896	0	89.9	4	29.0	4	-1E+10	1	-1E+10	1	-1E+10	1	-1E+10	1	-1E+10	1	-1E+10	1
4902551	96	C	04/11/2023	08:00	-131.203	47.952	0	267.30	0	5.0260	0	33.8480	0	26.761	0	264.887	0	89.5	4	28.9	4	-1E+10	1	-1E+10	1	-1E+10	1	-1E+10	1	-1E+10	1	-1E+10	1
4902551	96	C	04/11/2023	08:00	-131.203	47.952	0	268.30	0	5.0250	0	33.8490	0	26.762	0	265.877	0	89.0	4	28.7	4	-1E+10	1	-1E+10	1	-1E+10	1	-1E+10	1	-1E+10	1	-1E+10	1
4902551	96	C	04/11/2023	08:00	-131.203	47.952	0	269.30	0	5.0170	0	33.8510	0	26.765	0	266.867	0	88.6	4	28.6	4	-1E+10	1	-1E+10	1	-1E+10	1	-1E+10	1	-1E+10	1	-1E+10	1
4902551	96	C	04/11/2023	08:00	-131.203	47.952	0	270.30	0	5.0120	0	33.8530	0	26.767	0	267.858	0	88.2	4	28.5	4	-1E+10	1	-1E+10	1	-1E+10	1	-1E+10	1	-1E+10	1	-1E+10	1
4902551	96	C	04/11/2023	08:00	-131.203	47.952	0	271.30	0	5.0090	0	33.8540	0	26.768	0	268.848	0	87.8	4	28.3	4	-1E+10	1	-1E+10	1	-1E+10	1	-1E+10	1	-1E+10	1	-1E+10	1
4902551	96	C	04/11/2023	08:00	-131.203	47.952	0	272.30	0	5.0050	0	33.8540	0	26.769	0	269.838	0	87.5	4	28.2	4	-1E+10	1	-1E+10	1	-1E+10	1	-1E+10	1	-1E+10	1	-1E+10	1
4902551	96	C	04/11/2023	08:00	-131.203	47.952	0	273.40	0	5.0030	0	33.8540	0	26.769	0	270.928	0	87.0	4	28.1	4	-1E+10	1	-1E+10	1	-1E+10	1	-1E+10	1	-1E+10	1	-1E+10	1
4902551	96	C	04/11/2023	08:00	-131.203	47.952	0	274.40	0	5.0020	0	33.8540	0	26.769	0	271.918	0	86.5	4	27.9	4	-1E+10	1	-1E+10	1	-1E+10	1	-1E+10	1	-1E+10	1	-1E+10	1
4902551	96	C	04/11/2023	08:00	-131.203	47.952	0	275.40	0	5.0000	0	33.8550	0	26.770	0	272.908	0	86.0	4	27.8	4	-1E+10	1	-1E+10	1	-1E+10	1	-1E+10	1	-1E+10	1	-1E+10	1
4902551	96	C	04/11/2023	08:00	-131.203	47.952	0	276.40	0	4.9980	0	33.8550	0	26.770	0	273.899	0	85.5	4	27.6	4	-1E+10	1	-1E+10	1	-1E+10	1	-1E+10	1	-1E+10	1	-1E+10	1
4902551	96	C	04/11/2023	08:00	-131.203	47.952	0	277.50	0	4.9910	0	33.8580	0	26.773	0	274.988	0	84.9	4	27.4	4	-1E+10	1	-1E+10	1	-1E+10	1	-1E+10	1	-1E+10	1	-1E+10	1
4902551	96	C	04/11/2023	08:00	-131.203	47.952	0	278.50	0	4.9780	0	33.8610	0	26.777	0	275.978	0	84.5	4	27.2	4	-1E+10	1	-1E+10	1	-1E+10	1	-1E+10	1	-1E+10	1	-1E+10	1
4902551	96	C	04/11/2023	08:00	-131.203	47.952	0	279.60	0	4.9740	0	33.8600	0	26.777	0	277.067	0	84.1	4	27.1	4	-1E+10	1	-1E+10	1	-1E+10	1	-1E+10	1	-1E+10	1	-1E+10	1
4902551	96	C	04/11/2023	08:00	-131.203	47.952	0	280.60	0	4.9610	0	33.8620	0	26.780	0	278.058	0	83.6	4	27.0	4	-1E+10	1	-1E+10	1	-1E+10	1	-1E+10	1	-1E+10	1	-1E+10	1
4902551	96	C	04/11/2023	08:00	-131.203	47.952	0	281.70	0	4.9420	0	33.8640	0	26.784	0	279.147	0	83.2	4	26.8	4	-1E+10	1	-1E+10	1	-1E+10	1	-1E+10	1	-1E+10	1	-1E+10	1
4902551	96	C	04/11/2023	08:00	-131.203	47.952	0	282.70	0	4.9330	0	33.8650	0	26.786	0	280.137	0	82.9	4	26.7	4	-1E+10	1	-1E+10	1	-1E+10	1	-1E+10	1	-1E+10	1	-1E+10	1
4902551	96	C	04/11/2023	08:00	-131.203	47.952	0	283.70	0	4.9200	0	33.8660	0	26.788	0	281.128	0	82.6	4	26.6	4	-1E+10	1	-1E+10	1	-1E+10	1	-1E+10	1	-1E+10	1	-1E+10	1
4902551	96	C	04/11/2023	08:00	-131.203	47.952	0	284.70	0	4.9180	0	33.8660	0	26.788	0	282.118	0	82.3	4	26.5	4	-1E+10	1	-1E+10	1	-1E+10	1	-1E+10	1	-1E+10	1	-1E+10	1
4902551	96	C	04/11/2023	08:00	-131.203	47.952	0	285.70	0	4.9150	0	33.8670	0	26.789	0	283.108	0	82.0	4	26.4	4	-1E+10	1	-1E+10	1	-1E+10	1	-1E+10	1	-1E+10	1	-1E+10	1
4902551	96	C	04/11/2023	08:00	-131.203	47.952	0	286.90	0	4.9080	0	33.8670	0	26.790	0	284.296	0	81.5	4	26.2	4	-1E+10	1	-1E+10	1	-1E+10	1	-1E+10	1	-1E+10	1	-1E+10	1
4902551	96	C	04/11/2023	08:00	-131.203	47.952	0	288.00	0	4.8920	0	33.8680	0	26.793	0	285.386	0	81.0	4	26.1	4	-1E+10	1	-1E+10	1	-1E+10	1	-1E+10	1	-1E+10	1	-1E+10	1
4902551	96	C	04/11/2023	08:00	-131.203	47.952	0	289.20	0	4.8740	0	33.8710	0	26.797	0	286.574	0	80.7	4	26.0	4	-1E+10	1	-1E+10	1	-1E+10	1	-1E+10	1	-1E+10	1	-1E+10	1
4902551	96	C	04/11/2023	08:00	-131.203	47.952	0	290.00	0	4.8650	0	33.8710	0	26.798	0	287.366	0	80.5	4	25.9	4	-1E+10	1	-1E+10	1	-1E+10	1	-1E+10	1	-1E+10	1	-1E+10	1
4902551	96	C	04/11/2023	08:00	-131.203	47.952	0	290.80	0	4.8590	0	33.8720	0	26.800	0	288.158	0	80.3	4	25.8	4	-1E+10	1	-1E+10	1	-1E+10	1	-1E+10	1	-1E+10	1	-1E+10	1
4902551	96	C	04/11/2023	08:00	-131.203	47.952	0	292.00	0	4.8540	0	33.8710	0	26.799	0	289.346	0	80.0	4	25.7	4	-1E+10	1	-1E+10	1	-1E+10	1	-1E+10	1	-1E+10	1	-1E+10	1
4902551	96	C	04/11/2023	08:00	-131.203	47.952	0	293.20	0	4.8520	0	33.8720	0	26.800	0	290.535	0	79.6	4	25.6	4	-1E+10	1	-1E+10	1	-1E+10	1	-1E+10	1	-1E+10	1	-1E+10	1
4902551	96	C	04/11/2023	08:00	-131.203	47.952	0	294.00	0	4.8480	0	33.8730	0	26.802	0	291.327	0	79.3	4	25.5	4	-1E+10	1	-1E+10	1	-1E+10	1	-1E+10	1	-1E+10	1	-1E+10	1
4902551	96	C	04/11/2023	08:00	-131.203	47.952	0	294.80	0	4.8450	0	33.8710	0	26.800	0	292.119	0	79.1	4	25.4	4	-1E+10	1	-1E+10	1	-1E+10	1	-1E+10	1	-1E+10	1	-1E+10	1
4902551	96	C	04/11/2023	08:00	-131.203	47.952	0	296.00	0	4.8370	0	33.8710	0	26.801	0	293.307	0	78.7	4	25.3	4	-1E+10	1	-1E+10	1	-1E+10	1	-1E+10	1	-1E+10	1	-1E+10	1
4902551	96	C	04/11/2023	08:00	-131.203	47.952	0	297.20	0	4.8290	0	33.8730	0	26.804	0	294.496	0	78.3	4	25.2	4	-1E+10	1	-1E+10	1	-1E+10	1	-1E+10	1	-1E+10	1	-1E+10	1
4902551	96	C	04/11/2023	08:00	-131.203	47.952	0	298.00	0	4.8260	0	33.8730	0	26.804	0	295.288	0	77.9	4	25.0	4	-1E+10	1	-1E+10	1	-1E+10	1	-1E+10	1	-1E+10	1	-1E+10	1
4902551	96	C	04/11/2023	08:00	-131.203	47.952	0	298.80	0	4.8220	0	33.8730	0	26.804	0	296.080	0	77.6	4	24.9	4	-1E+10	1	-1E+10	1	-1E+10	1	-1E+10	1	-1E+10	1	-1E+10	1
4902551	96	C	04/11/2023	08:00	-131.203	47.952	0	300.00	0	4.8080	0	33.8740	0	26.807	0	297.268	0	77.2	4	24.8	4	-1E+10	1	-1E+10	1	-1E+10	1	-1E+10	1	-1E+10	1	-1E+10	1
4902551	96	C	04/11/2023	08:00	-131.203	47.952	0	301.20	0	4.7920	0	33.8750	0	26.809	0	298.456	0	76.7	4	24.6	4	-1E+10	1	-1E+10	1	-1E+10	1	-1E+10	1	-1E+10	1	-1E+10	1
4902551	96	C	04/11/2023	08:00	-131.203	47.952	0	302.00	0	4.7860	0	33.8750	0	26.810	0	299.248	0	76.4	4	24.5	4	-1E+10	1	-1E+10	1	-1E+10	1	-1E+10	1	-1E+10	1	-1E+10	1
4902551	96	C	04/11/2023	08:00	-131.203	47.952	0	302.80	0	4.7780	0	33.8750	0	26.811	0	300.040	0	76.2	4	24.4	4	-1E+10	1	-1E+10	1	-1E+10	1	-1E+10	1	-1E+10	1	-1E+10	1
4902551	96	C	04/11/2023	08:00	-131.203	47.952	0	304.00	0	4.7670	0	33.8760	0	26.813	0	301.229	0	75.7	4	24.3	4	-1E+10	1	-1E+10	1	-1E+10	1	-1E+10	1	-1E+10	1	-1E+10	1
4902551	96	C	04/11/2023	08:00	-131.203	47.952	0	305.20	0	4.7490	0	33.8760	0	26.815	0	302.417	0	75.3	4	24.1	4	-1E+10	1	-1E+10	1	-1E+10	1	-1E+10	1	-1E+10	1	-1E+10	1
4902551	96	C	04/11/2023	08:00	-131.203	47.952	0	306.00	0	4.7300	0	33.8770	0	26.818	0	303.209	0	75.0	4	24.1	4	-1E+10	1	-1E+10	1	-1E+10	1	-1E+10	1	-1E+10	1	-1E+10	1
4902551	96	C	04/11/2023	08:00	-131.203	47.952	0	306.80	0	4.7180	0	33.8780	0	26.820	0	304.001	0	74.9	4	24.0	4	-1E+10	1	-1E+10	1	-1E+10	1	-1E+10	1	-1E+10	1	-1E+10	1
4902551	96	C	04/11/2023	08:00	-131.203	47.952	0	307.70	0	4.7080	0	33.8770	0	26.820	0	304.892	0	74.6	4	23.9	4	-1E+10	1	-1E+10	1	-1E+10	1	-1E+10	1	-1E+10	1	-1E+10	1
4902551	96	C	04/11/2023	08:00	-131.203	47.952	0	308.90	0	4.6960	0	33.8780	0	26.822	0	306.080	0	74.3	4	23.8	4	-1E+10	1	-1E+10	1	-1E+10	1	-1E+10	1	-1E+10	1	-1E+10	1
4902551	96	C	04/11/2023	08:00	-131.203	47.952	0	310.20	0	4.6840	0	33.8770	0	26.823	0	307.368	0	74.0	4	23.7	4	-1E+10	1	-1E+10	1	-1E+10	1	-1E+10	1	-1E+10	1	-1E+10	1
4902551	96	C	04/11/2023	08:00	-131.203	47.952	0	311.00	0	4.6820	0	33.8770	0	26.823	0	308.160	0	73.8	4	23.6	4	-1E+10	1	-1E+10	1	-1E+10	1	-1E+10	1	-1E+10	1	-1E+10	1
4902551	96	C	04/11/2023	08:00	-131.203	47.952	0	311.80	0	4.6810	0	33.8770	0	26.823	0	308.952	0	73.5	4	23.5	4	-1E+10	1	-1E+10	1	-1E+10	1	-1E+10	1	-1E+10	1	-1E+10	1
4902551	96	C	04/11/2023	08:00	-131.203	47.952	0	312.70	0	4.6750	0	33.8780	0	26.825	0	309.843	0	73.3	4	23.5	4	-1E+10	1	-1E+10	1	-1E+10	1	-1E+10	1	-1E+10	1	-1E+10	1
4902551	96	C	04/11/2023	08:00	-131.203	47.952	0	313.90	0	4.6640	0	33.8780	0	26.826	0	311.031	0	72.9	4	23.3	4	-1E+10	1	-1E+10	1	-1E+10	1	-1E+10	1	-1E+10	1	-1E+10	1
4902551	96	C	04/11/2023	08:00	-131.203	47.952	0	315.20	0	4.6610	0	33.8790	0	26.827	0	312.318	0	72.4	4	23.2	4	-1E+10	1	-1E+10	1	-1E+10	1	-1E+10	1	-1E+10	1	-1E+10	1
4902551	96	C	04/11/2023	08:00	-131.203	47.952	0	316.00	0	4.6600	0	33.8790	0	26.827	0	313.110	0	72.2	4	23.1	4	-1E+10	1	-1E+10	1	-1E+10	1	-1E+10	1	-1E+10	1	-1E+10	1
4902551	96	C	04/11/2023	08:00	-131.203	47.952	0	316.80	0	4.6580	0	33.8790	0	26.827	0	313.902	0	71.9	4	23.0	4	-1E+10	1	-1E+10	1	-1E+10	1	-1E+10	1	-1E+10	1	-1E+10	1
4902551	96	C	04/11/2023	08:00	-131.203	47.952	0	317.70	0	4.6570	0	33.8790	0	26.828	0	314.793	0	71.5	4	22.9	4	-1E+10	1	-1E+10	1	-1E+10	1	-1E+10	1	-1E+10	1	-1E+10	1
4902551	96	C	04/11/2023	08:00	-131.203	47.952	0	318.90	0	4.6510	0	33.8810	0	26.830	0	315.981	0	71.0	4	22.7	4	-1E+10	1	-1E+10	1	-1E+10	1	-1E+10	1	-1E+10	1	-1E+10	1
4902551	96	C	04/11/2023	08:00	-131.203	47.952	0	320.20	0	4.6440	0	33.8830	0	26.832	0	317.269	0	70.5	4	22.6	4	-1E+10	1	-1E+10	1	-1E+10	1	-1E+10	1	-1E+10	1	-1E+10	1
4902551	96	C	04/11/2023	08:00	-131.203	47.952	0	321.00	0	4.6420	0	33.8850	0	26.834	0	318.061	0	70.2	4	22.5	4	-1E+10	1	-1E+10	1	-1E+10	1	-1E+10	1	-1E+10	1	-1E+10	1
4902551	96	C	04/11/2023	08:00	-131.203	47.952	0	321.90	0	4.6430	0	33.8860	0	26.835	0	318.952	0	69.9	4	22.4	4	-1E+10	1	-1E+10	1	-1E+10	1	-1E+10	1	-1E+10	1	-1E+10	1
4902551	96	C	04/11/2023	08:00	-131.203	47.952	0	322.70	0	4.6370	0	33.8870	0	26.836	0	319.744	0	69.5	4	22.2	4	-1E+10	1	-1E+10	1	-1E+10	1	-1E+10	1	-1E+10	1	-1E+10	1
4902551	96	C	04/11/2023	08:00	-131.203	47.952	0	323.90	0	4.6300	0	33.8860	0	26.836	0	320.932	0	68.9	4	22.0	4	-1E+10	1	-1E+10	1	-1E+10	1	-1E+10	1	-1E+10	1	-1E+10	1
4902551	96	C	04/11/2023	08:00	-131.203	47.952	0	325.20	0	4.6280	0	33.8870	0	26.837	0	322.219	0	68.3	4	21.8	4	-1E+10	1	-1E+10	1	-1E+10	1	-1E+10	1	-1E+10	1	-1E+10	1
4902551	96	C	04/11/2023	08:00	-131.203	47.952	0	326.00	0	4.6210	0	33.8890	0	26.840	0	323.011	0	67.8	4	21.7	4	-1E+10	1	-1E+10	1	-1E+10	1	-1E+10	1	-1E+10	1	-1E+10	1
4902551	96	C	04/11/2023	08:00	-131.203	47.952	0	326.90	0	4.6360	0	33.8910	0	26.839	0	323.902	0	67.4	4	21.5	4	-1E+10	1	-1E+10	1	-1E+10	1	-1E+10	1	-1E+10	1	-1E+10	1
4902551	96	C	04/11/2023	08:00	-131.203	47.952	0	327.70	0	4.6370	0	33.8990	0	26.846	0	324.694	0	67.0	4	21.4	4	-1E+10	1	-1E+10	1	-1E+10	1	-1E+10	1	-1E+10	1	-1E+10	1
4902551	96	C	04/11/2023	08:00	-131.203	47.952	0	329.00	0	4.6480	0	33.8980	0	26.844	0	325.981	0	66.3	4	21.2	4	-1E+10	1	-1E+10	1	-1E+10	1	-1E+10	1	-1E+10	1	-1E+10	1
4902551	96	C	04/11/2023	08:00	-131.203	47.952	0	330.30	0	4.6930	0	33.9120	0	26.850	0	327.268	0	65.7	4	21.1	4	-1E+10	1	-1E+10	1	-1E+10	1	-1E+10	1	-1E+10	1	-1E+10	1
4902551	96	C	04/11/2023	08:00	-131.203	47.952	0	331.20	0	4.7170	0	33.9160	0	26.850	0	328.159	0	65.4	4	21.0	4	-1E+10	1	-1E+10	1	-1E+10	1	-1E+10	1	-1E+10	1	-1E+10	1
4902551	96	C	04/11/2023	08:00	-131.203	47.952	0	332.00	0	4.7180	0	33.9150	0	26.850	0	328.951	0	65.1	4	20.9	4	-1E+10	1	-1E+10	1	-1E+10	1	-1E+10	1	-1E+10	1	-1E+10	1
4902551	96	C	04/11/2023	08:00	-131.203	47.952	0	332.80	0	4.7340	0	33.9190	0	26.851	0	329.743	0	64.8	4	20.8	4	-1E+10	1	-1E+10	1	-1E+10	1	-1E+10	1	-1E+10	1	-1E+10	1
4902551	96	C	04/11/2023	08:00	-131.203	47.952	0	333.70	0	4.7480	0	33.9200	0	26.850	0	330.634	0	64.5	4	20.7	4	-1E+10	1	-1E+10	1	-1E+10	1	-1E+10	1	-1E+10	1	-1E+10	1
4902551	96	C	04/11/2023	08:00	-131.203	47.952	0	334.60	0	4.7560	0	33.9230	0	26.852	0	331.525	0	64.2	4	20.6	4	-1E+10	1	-1E+10	1	-1E+10	1	-1E+10	1	-1E+10	1	-1E+10	1
4902551	96	C	04/11/2023	08:00	-131.203	47.952	0	335.90	0	4.7600	0	33.9270	0	26.855	0	332.812	0	63.8	4	20.5	4	-1E+10	1	-1E+10	1	-1E+10	1	-1E+10	1	-1E+10	1	-1E+10	1
4902551	96	C	04/11/2023	08:00	-131.203	47.952	0	337.20	0	4.7700	0	33.9300	0	26.856	0	334.099	0	63.6	4	20.4	4	-1E+10	1	-1E+10	1	-1E+10	1	-1E+10	1	-1E+10	1	-1E+10	1
4902551	96	C	04/11/2023	08:00	-131.203	47.952	0	338.00	0	4.7670	0	33.9300	0	26.856	0	334.891	0	63.4	4	20.3	4	-1E+10	1	-1E+10	1	-1E+10	1	-1E+10	1	-1E+10	1	-1E+10	1
4902551	96	C	04/11/2023	08:00	-131.203	47.952	0	338.90	0	4.7580	0	33.9300	0	26.857	0	335.782	0	63.2	4	20.3	4	-1E+10	1	-1E+10	1	-1E+10	1	-1E+10	1	-1E+10	1	-1E+10	1
4902551	96	C	04/11/2023	08:00	-131.203	47.952	0	339.80	0	4.7450	0	33.9300	0	26.859	0	336.673	0	63.0	4	20.2	4	-1E+10	1	-1E+10	1	-1E+10	1	-1E+10	1	-1E+10	1	-1E+10	1
4902551	96	C	04/11/2023	08:00	-131.203	47.952	0	340.70	0	4.7430	0	33.9290	0	26.858	0	337.564	0	62.7	4	20.1	4	-1E+10	1	-1E+10	1	-1E+10	1	-1E+10	1	-1E+10	1	-1E+10	1
4902551	96	C	04/11/2023	08:00	-131.203	47.952	0	341.90	0	4.7410	0	33.9290	0	26.858	0	338.752	0	62.3	4	20.0	4	-1E+10	1	-1E+10	1	-1E+10	1	-1E+10	1	-1E+10	1	-1E+10	1
4902551	96	C	04/11/2023	08:00	-131.203	47.952	0	343.30	0	4.7380	0	33.9310	0	26.860	0	340.138	0	61.8	4	19.8	4	-1E+10	1	-1E+10	1	-1E+10	1	-1E+10	1	-1E+10	1	-1E+10	1
4902551	96	C	04/11/2023	08:00	-131.203	47.952	0	344.20	0	4.7370	0	33.9300	0	26.860	0	341.029	0	61.5	4	19.7	4	-1E+10	1	-1E+10	1	-1E+10	1	-1E+10	1	-1E+10	1	-1E+10	1
4902551	96	C	04/11/2023	08:00	-131.203	47.952	0	345.10	0	4.7370	0	33.9360	0	26.864	0	341.920	0	61.3	4	19.7	4	-1E+10	1	-1E+10	1	-1E+10	1	-1E+10	1	-1E+10	1	-1E+10	1
4902551	96	C	04/11/2023	08:00	-131.203	47.952	0	346.00	0	4.7220	0	33.9310	0	26.862	0	342.811	0	61.1	4	19.6	4	-1E+10	1	-1E+10	1	-1E+10	1	-1E+10	1	-1E+10	1	-1E+10	1
4902551	96	C	04/11/2023	08:00	-131.203	47.952	0	346.90	0	4.7030	0	33.9380	0	26.870	0	343.702	0	61.1	4	19.6	4	-1E+10	1	-1E+10	1	-1E+10	1	-1E+10	1	-1E+10	1	-1E+10	1
4902551	96	C	04/11/2023	08:00	-131.203	47.952	0	347.90	0	4.6900	0	33.9380	0	26.871	0	344.692	0	61.0	4	19.5	4	-1E+10	1	-1E+10	1	-1E+10	1	-1E+10	1	-1E+10	1	-1E+10	1
4902551	96	C	04/11/2023	08:00	-131.203	47.952	0	348.80	0	4.6700	0	33.9340	0	26.870	0	345.583	0	60.9	4	19.5	4	-1E+10	1	-1E+10	1	-1E+10	1	-1E+10	1	-1E+10	1	-1E+10	1
4902551	96	C	04/11/2023	08:00	-131.203	47.952	0	349.70	0	4.6560	0	33.9330	0	26.871	0	346.474	0	60.8	4	19.5	4	-1E+10	1	-1E+10	1	-1E+10	1	-1E+10	1	-1E+10	1	-1E+10	1
4902551	96	C	04/11/2023	08:00	-131.203	47.952	0	352.90	0	4.6330	0	33.9320	0	26.873	0	349.642	0	60.0	4	19.2	4	-1E+10	1	-1E+10	1	-1E+10	1	-1E+10	1	-1E+10	1	-1E+10	1
4902551	96	C	04/11/2023	08:00	-131.203	47.952	0	358.00	0	4.6410	0	33.9320	0	26.872	0	354.690	0	58.3	4	18.7	4	-1E+10	1	-1E+10	1	-1E+10	1	-1E+10	1	-1E+10	1	-1E+10	1
4902551	96	C	04/11/2023	08:00	-131.203	47.952	0	362.60	0	4.6870	0	33.9500	0	26.881	0	359.244	0	56.6	4	18.1	4	-1E+10	1	-1E+10	1	-1E+10	1	-1E+10	1	-1E+10	1	-1E+10	1
4902551	96	C	04/11/2023	08:00	-131.203	47.952	0	367.80	0	4.6220	0	33.9520	0	26.890	0	364.391	0	55.2	4	17.7	4	-1E+10	1	-1E+10	1	-1E+10	1	-1E+10	1	-1E+10	1	-1E+10	1
4902551	96	C	04/11/2023	08:00	-131.203	47.952	0	373.00	0	4.5620	0	33.9540	0	26.898	0	369.538	0	53.5	4	17.1	4	-1E+10	1	-1E+10	1	-1E+10	1	-1E+10	1	-1E+10	1	-1E+10	1
4902551	96	C	04/11/2023	08:00	-131.203	47.952	0	377.80	0	4.5620	0	33.9620	0	26.904	0	374.289	0	51.6	4	16.5	4	-1E+10	1	-1E+10	1	-1E+10	1	-1E+10	1	-1E+10	1	-1E+10	1
4902551	96	C	04/11/2023	08:00	-131.203	47.952	0	382.50	0	4.5700	0	33.9780	0	26.916	0	378.941	0	50.7	4	16.2	4	-1E+10	1	-1E+10	1	-1E+10	1	-1E+10	1	-1E+10	1	-1E+10	1
4902551	96	C	04/11/2023	08:00	-131.203	47.952	0	387.90	0	4.5440	0	33.9800	0	26.921	0	384.286	0	49.8	4	15.9	4	-1E+10	1	-1E+10	1	-1E+10	1	-1E+10	1	-1E+10	1	-1E+10	1
4902551	96	C	04/11/2023	08:00	-131.203	47.952	0	393.20	0	4.5410	0	33.9830	0	26.923	0	389.532	0	48.6	4	15.5	4	-1E+10	1	-1E+10	1	-1E+10	1	-1E+10	1	-1E+10	1	-1E+10	1
4902551	96	C	04/11/2023	08:00	-131.203	47.952	0	398.00	0	4.5090	0	33.9900	0	26.932	0	394.282	0	47.4	4	15.1	4	-1E+10	1	-1E+10	1	-1E+10	1	-1E+10	1	-1E+10	1	-1E+10	1
4902551	96	C	04/11/2023	08:00	-131.203	47.952	0	402.90	0	4.4860	0	33.9970	0	26.941	0	399.132	0	46.5	4	14.8	4	-1E+10	1	-1E+10	1	-1E+10	1	-1E+10	1	-1E+10	1	-1E+10	1
4902551	96	C	04/11/2023	08:00	-131.203	47.952	0	407.80	0	4.4620	0	34.0020	0	26.947	0	403.981	0	45.7	4	14.6	4	-1E+10	1	-1E+10	1	-1E+10	1	-1E+10	1	-1E+10	1	-1E+10	1
4902551	96	C	04/11/2023	08:00	-131.203	47.952	0	412.80	0	4.4160	0	34.0030	0	26.953	0	408.930	0	44.8	4	14.3	4	-1E+10	1	-1E+10	1	-1E+10	1	-1E+10	1	-1E+10	1	-1E+10	1
4902551	96	C	04/11/2023	08:00	-131.203	47.952	0	418.00	0	4.4130	0	34.0100	0	26.959	0	414.076	0	43.7	4	13.9	4	-1E+10	1	-1E+10	1	-1E+10	1	-1E+10	1	-1E+10	1	-1E+10	1
4902551	96	C	04/11/2023	08:00	-131.203	47.952	0	423.00	0	4.4160	0	34.0150	0	26.962	0	419.024	0	42.7	4	13.6	4	-1E+10	1	-1E+10	1	-1E+10	1	-1E+10	1	-1E+10	1	-1E+10	1
4902551	96	C	04/11/2023	08:00	-131.203	47.952	0	427.80	0	4.3940	0	34.0200	0	26.969	0	423.774	0	42.0	4	13.4	4	-1E+10	1	-1E+10	1	-1E+10	1	-1E+10	1	-1E+10	1	-1E+10	1
4902551	96	C	04/11/2023	08:00	-131.203	47.952	0	432.70	0	4.3860	0	34.0220	0	26.971	0	428.622	0	41.0	4	13.0	4	-1E+10	1	-1E+10	1	-1E+10	1	-1E+10	1	-1E+10	1	-1E+10	1
4902551	96	C	04/11/2023	08:00	-131.203	47.952	0	437.70	0	4.3940	0	34.0280	0	26.975	0	433.570	0	40.0	4	12.7	4	-1E+10	1	-1E+10	1	-1E+10	1	-1E+10	1	-1E+10	1	-1E+10	1
4902551	96	C	04/11/2023	08:00	-131.203	47.952	0	442.80	0	4.3860	0	34.0340	0	26.981	0	438.617	0	39.4	4	12.5	4	-1E+10	1	-1E+10	1	-1E+10	1	-1E+10	1	-1E+10	1	-1E+10	1
4902551	96	C	04/11/2023	08:00	-131.203	47.952	0	448.00	0	4.3730	0	34.0370	0	26.985	0	443.762	0	39.0	4	12.4	4	-1E+10	1	-1E+10	1	-1E+10	1	-1E+10	1	-1E+10	1	-1E+10	1
4902551	96	C	04/11/2023	08:00	-131.203	47.952	0	452.80	0	4.3350	0	34.0370	0	26.989	0	448.511	0	38.5	4	12.2	4	-1E+10	1	-1E+10	1	-1E+10	1	-1E+10	1	-1E+10	1	-1E+10	1
4902551	96	C	04/11/2023	08:00	-131.203	47.952	0	457.70	0	4.3250	0	34.0420	0	26.994	0	453.360	0	37.5	4	11.9	4	-1E+10	1	-1E+10	1	-1E+10	1	-1E+10	1	-1E+10	1	-1E+10	1
4902551	96	C	04/11/2023	08:00	-131.203	47.952	0	463.10	0	4.3300	0	34.0470	0	26.997	0	458.702	0	36.9	4	11.7	4	-1E+10	1	-1E+10	1	-1E+10	1	-1E+10	1	-1E+10	1	-1E+10	1
4902551	96	C	04/11/2023	08:00	-131.203	47.952	0	468.10	0	4.3240	0	34.0500	0	27.000	0	463.649	0	36.5	4	11.6	4	-1E+10	1	-1E+10	1	-1E+10	1	-1E+10	1	-1E+10	1	-1E+10	1
4902551	96	C	04/11/2023	08:00	-131.203	47.952	0	472.80	0	4.3090	0	34.0540	0	27.005	0	468.299	0	36.2	4	11.5	4	-1E+10	1	-1E+10	1	-1E+10	1	-1E+10	1	-1E+10	1	-1E+10	1
4902551	96	C	04/11/2023	08:00	-131.203	47.952	0	477.60	0	4.2850	0	34.0550	0	27.009	0	473.048	0	36.3	4	11.5	4	-1E+10	1	-1E+10	1	-1E+10	1	-1E+10	1	-1E+10	1	-1E+10	1
4902551	96	C	04/11/2023	08:00	-131.203	47.952	0	482.90	0	4.2350	0	34.0560	0	27.015	0	478.292	0	35.6	4	11.3	4	-1E+10	1	-1E+10	1	-1E+10	1	-1E+10	1	-1E+10	1	-1E+10	1
4902551	96	C	04/11/2023	08:00	-131.203	47.952	0	488.20	0	4.2260	0	34.0610	0	27.020	0	483.535	0	34.6	4	11.0	4	-1E+10	1	-1E+10	1	-1E+10	1	-1E+10	1	-1E+10	1	-1E+10	1
4902551	96	C	04/11/2023	08:00	-131.203	47.952	0	493.20	0	4.2110	0	34.0670	0	27.026	0	488.481	0	33.9	4	10.7	4	-1E+10	1	-1E+10	1	-1E+10	1	-1E+10	1	-1E+10	1	-1E+10	1
4902551	96	C	04/11/2023	08:00	-131.203	47.952	0	498.10	0	4.1930	0	34.0720	0	27.032	0	493.328	0	33.2	4	10.5	4	-1E+10	1	-1E+10	1	-1E+10	1	-1E+10	1	-1E+10	1	-1E+10	1
4902551	96	C	04/11/2023	08:00	-131.203	47.952	0	503.20	0	4.1770	0	34.0760	0	27.037	0	498.374	0	32.6	4	10.3	4	-1E+10	1	-1E+10	1	-1E+10	1	-1E+10	1	-1E+10	1	-1E+10	1
4902551	96	C	04/11/2023	08:00	-131.203	47.952	0	508.20	0	4.1620	0	34.0810	0	27.042	0	503.320	0	32.1	4	10.2	4	-1E+10	1	-1E+10	1	-1E+10	1	-1E+10	1	-1E+10	1	-1E+10	1
4902551	96	C	04/11/2023	08:00	-131.203	47.952	0	513.20	0	4.1480	0	34.0840	0	27.046	0	508.265	0	31.7	4	10.0	4	-1E+10	1	-1E+10	1	-1E+10	1	-1E+10	1	-1E+10	1	-1E+10	1
4902551	96	C	04/11/2023	08:00	-131.203	47.952	0	518.30	0	4.1410	0	34.0870	0	27.049	0	513.310	0	31.2	4	9.9	4	-1E+10	1	-1E+10	1	-1E+10	1	-1E+10	1	-1E+10	1	-1E+10	1
4902551	96	C	04/11/2023	08:00	-131.203	47.952	0	523.30	0	4.1380	0	34.0890	0	27.051	0	518.256	0	30.6	4	9.7	4	-1E+10	1	-1E+10	1	-1E+10	1	-1E+10	1	-1E+10	1	-1E+10	1
4902551	96	C	04/11/2023	08:00	-131.203	47.952	0	528.30	0	4.1340	0	34.0930	0	27.055	0	523.201	0	30.1	4	9.5	4	-1E+10	1	-1E+10	1	-1E+10	1	-1E+10	1	-1E+10	1	-1E+10	1
4902551	96	C	04/11/2023	08:00	-131.203	47.952	0	533.00	0	4.1310	0	34.0960	0	27.058	0	527.850	0	29.7	4	9.4	4	-1E+10	1	-1E+10	1	-1E+10	1	-1E+10	1	-1E+10	1	-1E+10	1
4902551	96	C	04/11/2023	08:00	-131.203	47.952	0	537.60	0	4.1260	0	34.0980	0	27.060	0	532.399	0	29.2	4	9.3	4	-1E+10	1	-1E+10	1	-1E+10	1	-1E+10	1	-1E+10	1	-1E+10	1
4902551	96	C	04/11/2023	08:00	-131.203	47.952	0	542.70	0	4.1250	0	34.1000	0	27.061	0	537.444	0	28.8	4	9.1	4	-1E+10	1	-1E+10	1	-1E+10	1	-1E+10	1	-1E+10	1	-1E+10	1
4902551	96	C	04/11/2023	08:00	-131.203	47.952	0	547.70	0	4.1220	0	34.1010	0	27.063	0	542.389	0	28.2	4	8.9	4	-1E+10	1	-1E+10	1	-1E+10	1	-1E+10	1	-1E+10	1	-1E+10	1
4902551	96	C	04/11/2023	08:00	-131.203	47.952	0	552.80	0	4.1150	0	34.1050	0	27.067	0	547.432	0	27.2	4	8.6	4	-1E+10	1	-1E+10	1	-1E+10	1	-1E+10	1	-1E+10	1	-1E+10	1
4902551	96	C	04/11/2023	08:00	-131.203	47.952	0	557.90	0	4.0990	0	34.1100	0	27.072	0	552.476	0	25.9	4	8.2	4	-1E+10	1	-1E+10	1	-1E+10	1	-1E+10	1	-1E+10	1	-1E+10	1
4902551	96	C	04/11/2023	08:00	-131.203	47.952	0	563.00	0	4.0900	0	34.1160	0	27.078	0	557.520	0	24.0	4	7.6	4	-1E+10	1	-1E+10	1	-1E+10	1	-1E+10	1	-1E+10	1	-1E+10	1
4902551	96	C	04/11/2023	08:00	-131.203	47.952	0	568.20	0	4.1170	0	34.1250	0	27.082	0	562.662	0	21.9	4	6.9	4	-1E+10	1	-1E+10	1	-1E+10	1	-1E+10	1	-1E+10	1	-1E+10	1
4902551	96	C	04/11/2023	08:00	-131.203	47.952	0	573.00	0	4.1680	0	34.1410	0	27.090	0	567.409	0	20.7	4	6.6	4	-1E+10	1	-1E+10	1	-1E+10	1	-1E+10	1	-1E+10	1	-1E+10	1
4902551	96	C	04/11/2023	08:00	-131.203	47.952	0	577.70	0	4.1540	0	34.1470	0	27.096	0	572.057	0	20.4	4	6.5	4	-1E+10	1	-1E+10	1	-1E+10	1	-1E+10	1	-1E+10	1	-1E+10	1
4902551	96	C	04/11/2023	08:00	-131.203	47.952	0	583.00	0	4.1480	0	34.1510	0	27.100	0	577.297	0	20.3	4	6.4	4	-1E+10	1	-1E+10	1	-1E+10	1	-1E+10	1	-1E+10	1	-1E+10	1
4902551	96	C	04/11/2023	08:00	-131.203	47.952	0	587.80	0	4.1330	0	34.1550	0	27.105	0	582.044	0	20.3	4	6.4	4	-1E+10	1	-1E+10	1	-1E+10	1	-1E+10	1	-1E+10	1	-1E+10	1
4902551	96	C	04/11/2023	08:00	-131.203	47.952	0	592.60	0	4.1050	0	34.1570	0	27.109	0	586.790	0	20.4	4	6.5	4	-1E+10	1	-1E+10	1	-1E+10	1	-1E+10	1	-1E+10	1	-1E+10	1
4902551	96	C	04/11/2023	08:00	-131.203	47.952	0	597.90	0	4.0830	0	34.1570	0	27.112	0	592.030	0	20.5	4	6.5	4	-1E+10	1	-1E+10	1	-1E+10	1	-1E+10	1	-1E+10	1	-1E+10	1
4902551	96	C	04/11/2023	08:00	-131.203	47.952	0	602.70	0	4.0860	0	34.1580	0	27.112	0	596.776	0	20.6	4	6.5	4	-1E+10	1	-1E+10	1	-1E+10	1	-1E+10	1	-1E+10	1	-1E+10	1
4902551	96	C	04/11/2023	08:00	-131.203	47.952	0	607.80	0	4.0590	0	34.1580	0	27.115	0	601.819	0	21.1	4	6.7	4	-1E+10	1	-1E+10	1	-1E+10	1	-1E+10	1	-1E+10	1	-1E+10	1
4902551	96	C	04/11/2023	08:00	-131.203	47.952	0	612.90	0	4.0020	0	34.1560	0	27.119	0	606.861	0	20.8	4	6.6	4	-1E+10	1	-1E+10	1	-1E+10	1	-1E+10	1	-1E+10	1	-1E+10	1
4902551	96	C	04/11/2023	08:00	-131.203	47.952	0	617.80	0	4.0090	0	34.1600	0	27.122	0	611.706	0	20.5	4	6.5	4	-1E+10	1	-1E+10	1	-1E+10	1	-1E+10	1	-1E+10	1	-1E+10	1
4902551	96	C	04/11/2023	08:00	-131.203	47.952	0	622.60	0	4.0080	0	34.1620	0	27.123	0	616.451	0	20.1	4	6.4	4	-1E+10	1	-1E+10	1	-1E+10	1	-1E+10	1	-1E+10	1	-1E+10	1
4902551	96	C	04/11/2023	08:00	-131.203	47.952	0	627.60	0	4.0020	0	34.1650	0	27.126	0	621.395	0	19.7	4	6.2	4	-1E+10	1	-1E+10	1	-1E+10	1	-1E+10	1	-1E+10	1	-1E+10	1
4902551	96	C	04/11/2023	08:00	-131.203	47.952	0	632.80	0	3.9880	0	34.1680	0	27.130	0	626.535	0	19.2	4	6.1	4	-1E+10	1	-1E+10	1	-1E+10	1	-1E+10	1	-1E+10	1	-1E+10	1
4902551	96	C	04/11/2023	08:00	-131.203	47.952	0	637.80	0	3.9800	0	34.1750	0	27.137	0	631.478	0	18.8	4	5.9	4	-1E+10	1	-1E+10	1	-1E+10	1	-1E+10	1	-1E+10	1	-1E+10	1
4902551	96	C	04/11/2023	08:00	-131.203	47.952	0	643.00	0	3.9700	0	34.1770	0	27.139	0	636.619	0	18.7	4	5.9	4	-1E+10	1	-1E+10	1	-1E+10	1	-1E+10	1	-1E+10	1	-1E+10	1
4902551	96	C	04/11/2023	08:00	-131.203	47.952	0	648.20	0	3.9440	0	34.1820	0	27.146	0	641.759	0	18.4	4	5.8	4	-1E+10	1	-1E+10	1	-1E+10	1	-1E+10	1	-1E+10	1	-1E+10	1
4902551	96	C	04/11/2023	08:00	-131.203	47.952	0	652.90	0	3.9210	0	34.1840	0	27.150	0	646.405	0	18.2	4	5.7	4	-1E+10	1	-1E+10	1	-1E+10	1	-1E+10	1	-1E+10	1	-1E+10	1
4902551	96	C	04/11/2023	08:00	-131.203	47.952	0	657.70	0	3.9080	0	34.1890	0	27.155	0	651.150	0	18.0	4	5.7	4	-1E+10	1	-1E+10	1	-1E+10	1	-1E+10	1	-1E+10	1	-1E+10	1
4902551	96	C	04/11/2023	08:00	-131.203	47.952	0	662.80	0	3.8940	0	34.1910	0	27.158	0	656.191	0	17.8	4	5.6	4	-1E+10	1	-1E+10	1	-1E+10	1	-1E+10	1	-1E+10	1	-1E+10	1
4902551	96	C	04/11/2023	08:00	-131.203	47.952	0	667.90	0	3.8740	0	34.1950	0	27.164	0	661.232	0	17.6	4	5.5	4	-1E+10	1	-1E+10	1	-1E+10	1	-1E+10	1	-1E+10	1	-1E+10	1
4902551	96	C	04/11/2023	08:00	-131.203	47.952	0	673.10	0	3.8630	0	34.1970	0	27.166	0	666.372	0	17.3	4	5.5	4	-1E+10	1	-1E+10	1	-1E+10	1	-1E+10	1	-1E+10	1	-1E+10	1
4902551	96	C	04/11/2023	08:00	-131.203	47.952	0	677.90	0	3.8500	0	34.2000	0	27.170	0	671.116	0	17.1	4	5.4	4	-1E+10	1	-1E+10	1	-1E+10	1	-1E+10	1	-1E+10	1	-1E+10	1
4902551	96	C	04/11/2023	08:00	-131.203	47.952	0	682.80	0	3.8490	0	34.2010	0	27.171	0	675.959	0	16.7	4	5.3	4	-1E+10	1	-1E+10	1	-1E+10	1	-1E+10	1	-1E+10	1	-1E+10	1
4902551	96	C	04/11/2023	08:00	-131.203	47.952	0	688.00	0	3.8490	0	34.2050	0	27.174	0	681.099	0	16.2	4	5.1	4	-1E+10	1	-1E+10	1	-1E+10	1	-1E+10	1	-1E+10	1	-1E+10	1
4902551	96	C	04/11/2023	08:00	-131.203	47.952	0	693.00	0	3.8530	0	34.2090	0	27.177	0	686.040	0	15.7	4	4.9	4	-1E+10	1	-1E+10	1	-1E+10	1	-1E+10	1	-1E+10	1	-1E+10	1
4902551	96	C	04/11/2023	08:00	-131.203	47.952	0	698.00	0	3.8480	0	34.2160	0	27.183	0	690.982	0	15.7	4	4.9	4	-1E+10	1	-1E+10	1	-1E+10	1	-1E+10	1	-1E+10	1	-1E+10	1
4902551	96	C	04/11/2023	08:00	-131.203	47.952	0	703.20	0	3.8290	0	34.2170	0	27.186	0	696.121	0	15.7	4	4.9	4	-1E+10	1	-1E+10	1	-1E+10	1	-1E+10	1	-1E+10	1	-1E+10	1
4902551	96	C	04/11/2023	08:00	-131.203	47.952	0	707.90	0	3.8130	0	34.2190	0	27.189	0	700.766	0	15.6	4	4.9	4	-1E+10	1	-1E+10	1	-1E+10	1	-1E+10	1	-1E+10	1	-1E+10	1
4902551	96	C	04/11/2023	08:00	-131.203	47.952	0	712.60	0	3.8070	0	34.2210	0	27.191	0	705.410	0	15.4	4	4.8	4	-1E+10	1	-1E+10	1	-1E+10	1	-1E+10	1	-1E+10	1	-1E+10	1
4902551	96	C	04/11/2023	08:00	-131.203	47.952	0	717.90	0	3.7920	0	34.2250	0	27.196	0	710.648	0	15.3	4	4.8	4	-1E+10	1	-1E+10	1	-1E+10	1	-1E+10	1	-1E+10	1	-1E+10	1
4902551	96	C	04/11/2023	08:00	-131.203	47.952	0	723.30	0	3.7720	0	34.2310	0	27.203	0	715.984	0	15.4	4	4.8	4	-1E+10	1	-1E+10	1	-1E+10	1	-1E+10	1	-1E+10	1	-1E+10	1
4902551	96	C	04/11/2023	08:00	-131.203	47.952	0	728.30	0	3.7440	0	34.2320	0	27.206	0	720.925	0	15.7	4	4.9	4	-1E+10	1	-1E+10	1	-1E+10	1	-1E+10	1	-1E+10	1	-1E+10	1
4902551	96	C	04/11/2023	08:00	-131.203	47.952	0	733.20	0	3.7140	0	34.2330	0	27.210	0	725.767	0	15.8	4	5.0	4	-1E+10	1	-1E+10	1	-1E+10	1	-1E+10	1	-1E+10	1	-1E+10	1
4902551	96	C	04/11/2023	08:00	-131.203	47.952	0	738.20	0	3.6890	0	34.2320	0	27.212	0	730.707	0	15.7	4	4.9	4	-1E+10	1	-1E+10	1	-1E+10	1	-1E+10	1	-1E+10	1	-1E+10	1
4902551	96	C	04/11/2023	08:00	-131.203	47.952	0	743.30	0	3.6770	0	34.2360	0	27.216	0	735.746	0	15.3	4	4.8	4	-1E+10	1	-1E+10	1	-1E+10	1	-1E+10	1	-1E+10	1	-1E+10	1
4902551	96	C	04/11/2023	08:00	-131.203	47.952	0	747.90	0	3.6910	0	34.2400	0	27.218	0	740.292	0	15.1	4	4.7	4	-1E+10	1	-1E+10	1	-1E+10	1	-1E+10	1	-1E+10	1	-1E+10	1
4902551	96	C	04/11/2023	08:00	-131.203	47.952	0	752.50	0	3.6800	0	34.2430	0	27.222	0	744.837	0	15.2	4	4.8	4	-1E+10	1	-1E+10	1	-1E+10	1	-1E+10	1	-1E+10	1	-1E+10	1
4902551	96	C	04/11/2023	08:00	-131.203	47.952	0	757.70	0	3.6530	0	34.2480	0	27.228	0	749.974	0	15.3	4	4.8	4	-1E+10	1	-1E+10	1	-1E+10	1	-1E+10	1	-1E+10	1	-1E+10	1
4902551	96	C	04/11/2023	08:00	-131.203	47.952	0	763.00	0	3.6390	0	34.2480	0	27.230	0	755.211	0	15.6	4	4.9	4	-1E+10	1	-1E+10	1	-1E+10	1	-1E+10	1	-1E+10	1	-1E+10	1
4902551	96	C	04/11/2023	08:00	-131.203	47.952	0	767.80	0	3.6090	0	34.2450	0	27.230	0	759.953	0	15.8	4	4.9	4	-1E+10	1	-1E+10	1	-1E+10	1	-1E+10	1	-1E+10	1	-1E+10	1
4902551	96	C	04/11/2023	08:00	-131.203	47.952	0	772.70	0	3.5970	0	34.2450	0	27.231	0	764.794	0	15.8	4	4.9	4	-1E+10	1	-1E+10	1	-1E+10	1	-1E+10	1	-1E+10	1	-1E+10	1
4902551	96	C	04/11/2023	08:00	-131.203	47.952	0	778.10	0	3.5850	0	34.2470	0	27.234	0	770.129	0	15.6	4	4.9	4	-1E+10	1	-1E+10	1	-1E+10	1	-1E+10	1	-1E+10	1	-1E+10	1
4902551	96	C	04/11/2023	08:00	-131.203	47.952	0	782.90	0	3.5760	0	34.2510	0	27.238	0	774.871	0	15.6	4	4.9	4	-1E+10	1	-1E+10	1	-1E+10	1	-1E+10	1	-1E+10	1	-1E+10	1
4902551	96	C	04/11/2023	08:00	-131.203	47.952	0	787.90	0	3.5590	0	34.2500	0	27.239	0	779.810	0	15.4	4	4.8	4	-1E+10	1	-1E+10	1	-1E+10	1	-1E+10	1	-1E+10	1	-1E+10	1
4902551	96	C	04/11/2023	08:00	-131.203	47.952	0	792.80	0	3.5490	0	34.2530	0	27.243	0	784.650	0	15.2	4	4.8	4	-1E+10	1	-1E+10	1	-1E+10	1	-1E+10	1	-1E+10	1	-1E+10	1
4902551	96	C	04/11/2023	08:00	-131.203	47.952	0	797.60	0	3.5440	0	34.2550	0	27.245	0	789.392	0	15.0	4	4.7	4	-1E+10	1	-1E+10	1	-1E+10	1	-1E+10	1	-1E+10	1	-1E+10	1
4902551	96	C	04/11/2023	08:00	-131.203	47.952	0	803.00	0	3.5360	0	34.2580	0	27.248	0	794.726	0	14.8	4	4.6	4	-1E+10	1	-1E+10	1	-1E+10	1	-1E+10	1	-1E+10	1	-1E+10	1
4902551	96	C	04/11/2023	08:00	-131.203	47.952	0	807.90	0	3.5230	0	34.2620	0	27.252	0	799.566	0	14.6	4	4.5	4	-1E+10	1	-1E+10	1	-1E+10	1	-1E+10	1	-1E+10	1	-1E+10	1
4902551	96	C	04/11/2023	08:00	-131.203	47.952	0	812.60	0	3.5150	0	34.2650	0	27.256	0	804.209	0	14.4	4	4.5	4	-1E+10	1	-1E+10	1	-1E+10	1	-1E+10	1	-1E+10	1	-1E+10	1
4902551	96	C	04/11/2023	08:00	-131.203	47.952	0	818.00	0	3.5020	0	34.2690	0	27.260	0	809.543	0	14.3	4	4.5	4	-1E+10	1	-1E+10	1	-1E+10	1	-1E+10	1	-1E+10	1	-1E+10	1
4902551	96	C	04/11/2023	08:00	-131.203	47.952	0	822.80	0	3.4900	0	34.2700	0	27.262	0	814.284	0	14.1	4	4.4	4	-1E+10	1	-1E+10	1	-1E+10	1	-1E+10	1	-1E+10	1	-1E+10	1
4902551	96	C	04/11/2023	08:00	-131.203	47.952	0	827.70	0	3.4690	0	34.2750	0	27.268	0	819.123	0	14.0	4	4.4	4	-1E+10	1	-1E+10	1	-1E+10	1	-1E+10	1	-1E+10	1	-1E+10	1
4902551	96	C	04/11/2023	08:00	-131.203	47.952	0	833.20	0	3.4600	0	34.2770	0	27.271	0	824.555	0	13.9	4	4.3	4	-1E+10	1	-1E+10	1	-1E+10	1	-1E+10	1	-1E+10	1	-1E+10	1
4902551	96	C	04/11/2023	08:00	-131.203	47.952	0	838.00	0	3.4540	0	34.2790	0	27.273	0	829.296	0	13.8	4	4.3	4	-1E+10	1	-1E+10	1	-1E+10	1	-1E+10	1	-1E+10	1	-1E+10	1
4902551	96	C	04/11/2023	08:00	-131.203	47.952	0	842.90	0	3.4480	0	34.2810	0	27.275	0	834.135	0	13.7	4	4.3	4	-1E+10	1	-1E+10	1	-1E+10	1	-1E+10	1	-1E+10	1	-1E+10	1
4902551	96	C	04/11/2023	08:00	-131.203	47.952	0	848.20	0	3.4340	0	34.2840	0	27.279	0	839.370	0	13.6	4	4.2	4	-1E+10	1	-1E+10	1	-1E+10	1	-1E+10	1	-1E+10	1	-1E+10	1
4902551	96	C	04/11/2023	08:00	-131.203	47.952	0	853.00	0	3.4220	0	34.2860	0	27.281	0	844.110	0	13.5	4	4.2	4	-1E+10	1	-1E+10	1	-1E+10	1	-1E+10	1	-1E+10	1	-1E+10	1
4902551	96	C	04/11/2023	08:00	-131.203	47.952	0	857.90	0	3.4160	0	34.2880	0	27.284	0	848.949	0	13.4	4	4.2	4	-1E+10	1	-1E+10	1	-1E+10	1	-1E+10	1	-1E+10	1	-1E+10	1
4902551	96	C	04/11/2023	08:00	-131.203	47.952	0	862.80	0	3.4020	0	34.2910	0	27.287	0	853.788	0	13.2	4	4.1	4	-1E+10	1	-1E+10	1	-1E+10	1	-1E+10	1	-1E+10	1	-1E+10	1
4902551	96	C	04/11/2023	08:00	-131.203	47.952	0	867.70	0	3.3900	0	34.2940	0	27.291	0	858.627	0	13.1	4	4.1	4	-1E+10	1	-1E+10	1	-1E+10	1	-1E+10	1	-1E+10	1	-1E+10	1
4902551	96	C	04/11/2023	08:00	-131.203	47.952	0	872.60	0	3.3730	0	34.2990	0	27.297	0	863.465	0	13.0	4	4.0	4	-1E+10	1	-1E+10	1	-1E+10	1	-1E+10	1	-1E+10	1	-1E+10	1
4902551	96	C	04/11/2023	08:00	-131.203	47.952	0	877.50	0	3.3600	0	34.3020	0	27.300	0	868.304	0	12.8	4	4.0	4	-1E+10	1	-1E+10	1	-1E+10	1	-1E+10	1	-1E+10	1	-1E+10	1
4902551	96	C	04/11/2023	08:00	-131.203	47.952	0	882.50	0	3.3440	0	34.3060	0	27.305	0	873.241	0	12.7	4	4.0	4	-1E+10	1	-1E+10	1	-1E+10	1	-1E+10	1	-1E+10	1	-1E+10	1
4902551	96	C	04/11/2023	08:00	-131.203	47.952	0	887.60	0	3.3330	0	34.3100	0	27.309	0	878.277	0	12.6	4	3.9	4	-1E+10	1	-1E+10	1	-1E+10	1	-1E+10	1	-1E+10	1	-1E+10	1
4902551	96	C	04/11/2023	08:00	-131.203	47.952	0	892.60	0	3.3280	0	34.3110	0	27.311	0	883.214	0	12.5	4	3.9	4	-1E+10	1	-1E+10	1	-1E+10	1	-1E+10	1	-1E+10	1	-1E+10	1
4902551	96	C	04/11/2023	08:00	-131.203	47.952	0	897.70	0	3.3180	0	34.3140	0	27.314	0	888.249	0	12.5	4	3.9	4	-1E+10	1	-1E+10	1	-1E+10	1	-1E+10	1	-1E+10	1	-1E+10	1
4902551	96	C	04/11/2023	08:00	-131.203	47.952	0	902.80	0	3.3110	0	34.3150	0	27.315	0	893.285	0	12.4	4	3.8	4	-1E+10	1	-1E+10	1	-1E+10	1	-1E+10	1	-1E+10	1	-1E+10	1
4902551	96	C	04/11/2023	08:00	-131.203	47.952	0	907.90	0	3.2930	0	34.3200	0	27.321	0	898.320	0	12.2	4	3.8	4	-1E+10	1	-1E+10	1	-1E+10	1	-1E+10	1	-1E+10	1	-1E+10	1
4902551	96	C	04/11/2023	08:00	-131.203	47.952	0	913.10	0	3.2750	0	34.3250	0	27.327	0	903.454	0	12.2	4	3.8	4	-1E+10	1	-1E+10	1	-1E+10	1	-1E+10	1	-1E+10	1	-1E+10	1
4902551	96	C	04/11/2023	08:00	-131.203	47.952	0	917.80	0	3.2720	0	34.3250	0	27.327	0	908.094	0	12.2	4	3.8	4	-1E+10	1	-1E+10	1	-1E+10	1	-1E+10	1	-1E+10	1	-1E+10	1
4902551	96	C	04/11/2023	08:00	-131.203	47.952	0	922.60	0	3.2660	0	34.3270	0	27.329	0	912.833	0	12.1	4	3.8	4	-1E+10	1	-1E+10	1	-1E+10	1	-1E+10	1	-1E+10	1	-1E+10	1
4902551	96	C	04/11/2023	08:00	-131.203	47.952	0	928.00	0	3.2480	0	34.3310	0	27.334	0	918.164	0	12.0	4	3.7	4	-1E+10	1	-1E+10	1	-1E+10	1	-1E+10	1	-1E+10	1	-1E+10	1
4902551	96	C	04/11/2023	08:00	-131.203	47.952	0	933.10	0	3.2380	0	34.3340	0	27.338	0	923.199	0	11.9	4	3.7	4	-1E+10	1	-1E+10	1	-1E+10	1	-1E+10	1	-1E+10	1	-1E+10	1
4902551	96	C	04/11/2023	08:00	-131.203	47.952	0	937.70	0	3.2340	0	34.3360	0	27.340	0	927.740	0	11.9	4	3.7	4	-1E+10	1	-1E+10	1	-1E+10	1	-1E+10	1	-1E+10	1	-1E+10	1
4902551	96	C	04/11/2023	08:00	-131.203	47.952	0	942.90	0	3.2200	0	34.3390	0	27.343	0	932.873	0	11.8	4	3.7	4	-1E+10	1	-1E+10	1	-1E+10	1	-1E+10	1	-1E+10	1	-1E+10	1
4902551	96	C	04/11/2023	08:00	-131.203	47.952	0	948.10	0	3.2080	0	34.3430	0	27.348	0	938.006	0	11.8	4	3.6	4	-1E+10	1	-1E+10	1	-1E+10	1	-1E+10	1	-1E+10	1	-1E+10	1
4902551	96	C	04/11/2023	08:00	-131.203	47.952	0	952.90	0	3.1960	0	34.3460	0	27.351	0	942.744	0	11.7	4	3.6	4	-1E+10	1	-1E+10	1	-1E+10	1	-1E+10	1	-1E+10	1	-1E+10	1
4902551	96	C	04/11/2023	08:00	-131.203	47.952	0	957.70	0	3.1950	0	34.3470	0	27.352	0	947.482	0	11.7	4	3.6	4	-1E+10	1	-1E+10	1	-1E+10	1	-1E+10	1	-1E+10	1	-1E+10	1
4902551	96	C	04/11/2023	08:00	-131.203	47.952	0	962.60	0	3.1840	0	34.3490	0	27.355	0	952.318	0	11.7	4	3.6	4	-1E+10	1	-1E+10	1	-1E+10	1	-1E+10	1	-1E+10	1	-1E+10	1
4902551	96	C	04/11/2023	08:00	-131.203	47.952	0	967.50	0	3.1710	0	34.3520	0	27.358	0	957.155	0	11.7	4	3.6	4	-1E+10	1	-1E+10	1	-1E+10	1	-1E+10	1	-1E+10	1	-1E+10	1
4902551	96	C	04/11/2023	08:00	-131.203	47.952	0	972.50	0	3.1650	0	34.3540	0	27.360	0	962.090	0	11.7	4	3.6	4	-1E+10	1	-1E+10	1	-1E+10	1	-1E+10	1	-1E+10	1	-1E+10	1
4902551	96	C	04/11/2023	08:00	-131.203	47.952	0	977.60	0	3.1560	0	34.3550	0	27.362	0	967.124	0	11.6	4	3.6	4	-1E+10	1	-1E+10	1	-1E+10	1	-1E+10	1	-1E+10	1	-1E+10	1
4902551	96	C	04/11/2023	08:00	-131.203	47.952	0	982.80	0	3.1380	0	34.3600	0	27.368	0	972.256	0	11.6	4	3.6	4	-1E+10	1	-1E+10	1	-1E+10	1	-1E+10	1	-1E+10	1	-1E+10	1
4902551	96	C	04/11/2023	08:00	-131.203	47.952	0	987.80	0	3.1220	0	34.3630	0	27.372	0	977.191	0	11.6	4	3.6	4	-1E+10	1	-1E+10	1	-1E+10	1	-1E+10	1	-1E+10	1	-1E+10	1
4902551	96	C	04/11/2023	08:00	-131.203	47.952	0	992.80	0	3.1150	0	34.3640	0	27.373	0	982.125	0	11.6	4	3.6	4	-1E+10	1	-1E+10	1	-1E+10	1	-1E+10	1	-1E+10	1	-1E+10	1
4902551	96	C	04/11/2023	08:00	-131.203	47.952	0	997.90	0	3.1120	0	34.3660	0	27.375	0	987.158	0	11.6	4	3.6	4	-1E+10	1	-1E+10	1	-1E+10	1	-1E+10	1	-1E+10	1	-1E+10	1
4902551	96	C	04/11/2023	08:00	-131.203	47.952	0	1005.50	0	3.1070	0	34.3670	0	27.376	0	994.658	0	11.6	4	3.6	4	-1E+10	1	-1E+10	1	-1E+10	1	-1E+10	1	-1E+10	1	-1E+10	1
4902551	96	C	04/11/2023	08:00	-131.203	47.952	0	1015.70	0	3.0960	0	34.3700	0	27.380	0	1004.724	0	11.7	4	3.6	4	-1E+10	1	-1E+10	1	-1E+10	1	-1E+10	1	-1E+10	1	-1E+10	1
4902551	96	C	04/11/2023	08:00	-131.203	47.952	0	1025.60	0	3.0750	0	34.3730	0	27.384	0	1014.493	0	11.7	4	3.6	4	-1E+10	1	-1E+10	1	-1E+10	1	-1E+10	1	-1E+10	1	-1E+10	1
4902551	96	C	04/11/2023	08:00	-131.203	47.952	0	1035.40	0	3.0470	0	34.3780	0	27.391	0	1024.163	0	11.8	4	3.6	4	-1E+10	1	-1E+10	1	-1E+10	1	-1E+10	1	-1E+10	1	-1E+10	1
4902551	96	C	04/11/2023	08:00	-131.203	47.952	0	1045.30	0	3.0340	0	34.3810	0	27.394	0	1033.931	0	11.8	4	3.7	4	-1E+10	1	-1E+10	1	-1E+10	1	-1E+10	1	-1E+10	1	-1E+10	1
4902551	96	C	04/11/2023	08:00	-131.203	47.952	0	1055.20	0	3.0130	0	34.3850	0	27.400	0	1043.699	0	11.9	4	3.7	4	-1E+10	1	-1E+10	1	-1E+10	1	-1E+10	1	-1E+10	1	-1E+10	1
4902551	96	C	04/11/2023	08:00	-131.203	47.952	0	1065.20	0	2.9940	0	34.3900	0	27.405	0	1053.565	0	12.0	4	3.7	4	-1E+10	1	-1E+10	1	-1E+10	1	-1E+10	1	-1E+10	1	-1E+10	1
4902551	96	C	04/11/2023	08:00	-131.203	47.952	0	1075.20	0	2.9780	0	34.3920	0	27.408	0	1063.430	0	12.1	4	3.7	4	-1E+10	1	-1E+10	1	-1E+10	1	-1E+10	1	-1E+10	1	-1E+10	1
4902551	96	C	04/11/2023	08:00	-131.203	47.952	0	1085.30	0	2.9610	0	34.3950	0	27.412	0	1073.394	0	12.1	4	3.7	4	-1E+10	1	-1E+10	1	-1E+10	1	-1E+10	1	-1E+10	1	-1E+10	1
4902551	96	C	04/11/2023	08:00	-131.203	47.952	0	1095.60	0	2.9510	0	34.3970	0	27.415	0	1083.554	0	12.2	4	3.8	4	-1E+10	1	-1E+10	1	-1E+10	1	-1E+10	1	-1E+10	1	-1E+10	1
4902551	96	C	04/11/2023	08:00	-131.203	47.952	0	1105.50	0	2.9380	0	34.4010	0	27.419	0	1093.320	0	12.3	4	3.8	4	-1E+10	1	-1E+10	1	-1E+10	1	-1E+10	1	-1E+10	1	-1E+10	1
4902551	96	C	04/11/2023	08:00	-131.203	47.952	0	1115.20	0	2.9220	0	34.4040	0	27.423	0	1102.887	0	12.4	4	3.8	4	-1E+10	1	-1E+10	1	-1E+10	1	-1E+10	1	-1E+10	1	-1E+10	1
4902551	96	C	04/11/2023	08:00	-131.203	47.952	0	1125.40	0	2.9080	0	34.4060	0	27.426	0	1112.948	0	12.5	4	3.8	4	-1E+10	1	-1E+10	1	-1E+10	1	-1E+10	1	-1E+10	1	-1E+10	1
4902551	96	C	04/11/2023	08:00	-131.203	47.952	0	1135.40	0	2.8940	0	34.4090	0	27.430	0	1122.810	0	12.6	4	3.9	4	-1E+10	1	-1E+10	1	-1E+10	1	-1E+10	1	-1E+10	1	-1E+10	1
4902551	96	C	04/11/2023	08:00	-131.203	47.952	0	1145.20	0	2.8790	0	34.4110	0	27.433	0	1132.475	0	12.8	4	3.9	4	-1E+10	1	-1E+10	1	-1E+10	1	-1E+10	1	-1E+10	1	-1E+10	1
4902551	96	C	04/11/2023	08:00	-131.203	47.952	0	1155.20	0	2.8590	0	34.4170	0	27.439	0	1142.337	0	12.9	4	4.0	4	-1E+10	1	-1E+10	1	-1E+10	1	-1E+10	1	-1E+10	1	-1E+10	1
4902551	96	C	04/11/2023	08:00	-131.203	47.952	0	1165.10	0	2.8480	0	34.4200	0	27.443	0	1152.100	0	13.1	4	4.0	4	-1E+10	1	-1E+10	1	-1E+10	1	-1E+10	1	-1E+10	1	-1E+10	1
4902551	96	C	04/11/2023	08:00	-131.203	47.952	0	1175.50	0	2.8360	0	34.4230	0	27.446	0	1162.355	0	13.3	4	4.1	4	-1E+10	1	-1E+10	1	-1E+10	1	-1E+10	1	-1E+10	1	-1E+10	1
4902551	96	C	04/11/2023	08:00	-131.203	47.952	0	1185.40	0	2.8190	0	34.4260	0	27.450	0	1172.117	0	13.5	4	4.1	4	-1E+10	1	-1E+10	1	-1E+10	1	-1E+10	1	-1E+10	1	-1E+10	1
4902551	96	C	04/11/2023	08:00	-131.203	47.952	0	1195.50	0	2.8010	0	34.4300	0	27.455	0	1182.075	0	13.7	4	4.2	4	-1E+10	1	-1E+10	1	-1E+10	1	-1E+10	1	-1E+10	1	-1E+10	1
4902551	96	C	04/11/2023	08:00	-131.203	47.952	0	1205.20	0	2.7870	0	34.4330	0	27.459	0	1191.639	0	13.8	4	4.2	4	-1E+10	1	-1E+10	1	-1E+10	1	-1E+10	1	-1E+10	1	-1E+10	1
4902551	96	C	04/11/2023	08:00	-131.203	47.952	0	1215.40	0	2.7770	0	34.4350	0	27.461	0	1201.695	0	14.0	4	4.3	4	-1E+10	1	-1E+10	1	-1E+10	1	-1E+10	1	-1E+10	1	-1E+10	1
4902551	96	C	04/11/2023	08:00	-131.203	47.952	0	1225.50	0	2.7640	0	34.4370	0	27.464	0	1211.652	0	14.2	4	4.4	4	-1E+10	1	-1E+10	1	-1E+10	1	-1E+10	1	-1E+10	1	-1E+10	1
4902551	96	C	04/11/2023	08:00	-131.203	47.952	0	1235.00	0	2.7500	0	34.4390	0	27.467	0	1221.017	0	14.3	4	4.4	4	-1E+10	1	-1E+10	1	-1E+10	1	-1E+10	1	-1E+10	1	-1E+10	1
4902551	96	C	04/11/2023	08:00	-131.203	47.952	0	1245.10	0	2.7410	0	34.4400	0	27.469	0	1230.973	0	14.4	4	4.4	4	-1E+10	1	-1E+10	1	-1E+10	1	-1E+10	1	-1E+10	1	-1E+10	1
4902551	96	C	04/11/2023	08:00	-131.203	47.952	0	1255.10	0	2.7350	0	34.4410	0	27.470	0	1240.830	0	14.6	4	4.5	4	-1E+10	1	-1E+10	1	-1E+10	1	-1E+10	1	-1E+10	1	-1E+10	1
4902551	96	C	04/11/2023	08:00	-131.203	47.952	0	1265.20	0	2.7220	0	34.4440	0	27.474	0	1250.785	0	14.9	4	4.6	4	-1E+10	1	-1E+10	1	-1E+10	1	-1E+10	1	-1E+10	1	-1E+10	1
4902551	96	C	04/11/2023	08:00	-131.203	47.952	0	1275.30	0	2.7070	0	34.4470	0	27.477	0	1260.740	0	15.2	4	4.6	4	-1E+10	1	-1E+10	1	-1E+10	1	-1E+10	1	-1E+10	1	-1E+10	1
4902551	96	C	04/11/2023	08:00	-131.203	47.952	0	1285.30	0	2.6850	0	34.4510	0	27.483	0	1270.596	0	15.5	4	4.7	4	-1E+10	1	-1E+10	1	-1E+10	1	-1E+10	1	-1E+10	1	-1E+10	1
4902551	96	C	04/11/2023	08:00	-131.203	47.952	0	1295.60	0	2.6670	0	34.4540	0	27.487	0	1280.746	0	15.9	4	4.9	4	-1E+10	1	-1E+10	1	-1E+10	1	-1E+10	1	-1E+10	1	-1E+10	1
4902551	96	C	04/11/2023	08:00	-131.203	47.952	0	1305.40	0	2.6460	0	34.4580	0	27.492	0	1290.404	0	16.3	4	5.0	4	-1E+10	1	-1E+10	1	-1E+10	1	-1E+10	1	-1E+10	1	-1E+10	1
4902551	96	C	04/11/2023	08:00	-131.203	47.952	0	1315.20	0	2.6360	0	34.4600	0	27.494	0	1300.061	0	16.6	4	5.1	4	-1E+10	1	-1E+10	1	-1E+10	1	-1E+10	1	-1E+10	1	-1E+10	1
4902551	96	C	04/11/2023	08:00	-131.203	47.952	0	1325.20	0	2.6220	0	34.4630	0	27.498	0	1309.915	0	17.0	4	5.2	4	-1E+10	1	-1E+10	1	-1E+10	1	-1E+10	1	-1E+10	1	-1E+10	1
4902551	96	C	04/11/2023	08:00	-131.203	47.952	0	1335.20	0	2.6020	0	34.4660	0	27.502	0	1319.768	0	17.4	4	5.3	4	-1E+10	1	-1E+10	1	-1E+10	1	-1E+10	1	-1E+10	1	-1E+10	1
4902551	96	C	04/11/2023	08:00	-131.203	47.952	0	1345.30	0	2.5900	0	34.4690	0	27.505	0	1329.720	0	17.9	4	5.5	4	-1E+10	1	-1E+10	1	-1E+10	1	-1E+10	1	-1E+10	1	-1E+10	1
4902551	96	C	04/11/2023	08:00	-131.203	47.952	0	1355.50	0	2.5780	0	34.4720	0	27.509	0	1339.769	0	18.4	4	5.6	4	-1E+10	1	-1E+10	1	-1E+10	1	-1E+10	1	-1E+10	1	-1E+10	1
4902551	96	C	04/11/2023	08:00	-131.203	47.952	0	1365.50	0	2.5620	0	34.4740	0	27.512	0	1349.621	0	18.9	4	5.8	4	-1E+10	1	-1E+10	1	-1E+10	1	-1E+10	1	-1E+10	1	-1E+10	1
4902551	96	C	04/11/2023	08:00	-131.203	47.952	0	1375.60	0	2.5440	0	34.4780	0	27.517	0	1359.571	0	19.6	4	6.0	4	-1E+10	1	-1E+10	1	-1E+10	1	-1E+10	1	-1E+10	1	-1E+10	1
4902551	96	C	04/11/2023	08:00	-131.203	47.952	0	1385.70	0	2.5250	0	34.4810	0	27.521	0	1369.521	0	20.0	4	6.1	4	-1E+10	1	-1E+10	1	-1E+10	1	-1E+10	1	-1E+10	1	-1E+10	1
4902551	96	C	04/11/2023	08:00	-131.203	47.952	0	1395.50	0	2.5090	0	34.4830	0	27.524	0	1379.175	0	20.6	4	6.3	4	-1E+10	1	-1E+10	1	-1E+10	1	-1E+10	1	-1E+10	1	-1E+10	1
4902551	96	C	04/11/2023	08:00	-131.203	47.952	0	1405.40	0	2.4890	0	34.4870	0	27.529	0	1388.926	0	21.2	4	6.5	4	-1E+10	1	-1E+10	1	-1E+10	1	-1E+10	1	-1E+10	1	-1E+10	1
4902551	96	C	04/11/2023	08:00	-131.203	47.952	0	1415.50	0	2.4740	0	34.4900	0	27.532	0	1398.874	0	22.0	4	6.7	4	-1E+10	1	-1E+10	1	-1E+10	1	-1E+10	1	-1E+10	1	-1E+10	1
4902551	96	C	04/11/2023	08:00	-131.203	47.952	0	1425.40	0	2.4560	0	34.4930	0	27.536	0	1408.625	0	22.6	4	6.9	4	-1E+10	1	-1E+10	1	-1E+10	1	-1E+10	1	-1E+10	1	-1E+10	1
4902551	96	C	04/11/2023	08:00	-131.203	47.952	0	1435.10	0	2.4380	0	34.4960	0	27.540	0	1418.178	0	23.1	4	7.0	4	-1E+10	1	-1E+10	1	-1E+10	1	-1E+10	1	-1E+10	1	-1E+10	1
4902551	96	C	04/11/2023	08:00	-131.203	47.952	0	1445.40	0	2.4300	0	34.4970	0	27.542	0	1428.322	0	23.4	4	7.1	4	-1E+10	1	-1E+10	1	-1E+10	1	-1E+10	1	-1E+10	1	-1E+10	1
4902551	96	C	04/11/2023	08:00	-131.203	47.952	0	1455.40	0	2.4260	0	34.4980	0	27.543	0	1438.170	0	23.8	4	7.2	4	-1E+10	1	-1E+10	1	-1E+10	1	-1E+10	1	-1E+10	1	-1E+10	1
4902551	96	C	04/11/2023	08:00	-131.203	47.952	0	1465.60	0	2.4130	0	34.5000	0	27.546	0	1448.214	0	24.4	4	7.4	4	-1E+10	1	-1E+10	1	-1E+10	1	-1E+10	1	-1E+10	1	-1E+10	1
4902551	96	C	04/11/2023	08:00	-131.203	47.952	0	1475.50	0	2.4000	0	34.5030	0	27.549	0	1457.963	0	25.2	4	7.7	4	-1E+10	1	-1E+10	1	-1E+10	1	-1E+10	1	-1E+10	1	-1E+10	1
4902551	96	C	04/11/2023	08:00	-131.203	47.952	0	1485.50	0	2.3830	0	34.5060	0	27.553	0	1467.809	0	25.8	4	7.9	4	-1E+10	1	-1E+10	1	-1E+10	1	-1E+10	1	-1E+10	1	-1E+10	1
4902551	96	C	04/11/2023	08:00	-131.203	47.952	0	1495.70	0	2.3710	0	34.5080	0	27.556	0	1477.852	0	26.4	4	8.0	4	-1E+10	1	-1E+10	1	-1E+10	1	-1E+10	1	-1E+10	1	-1E+10	1
4902551	96	C	04/11/2023	08:00	-131.203	47.952	0	1505.60	0	2.3570	0	34.5100	0	27.559	0	1487.599	0	27.0	4	8.2	4	-1E+10	1	-1E+10	1	-1E+10	1	-1E+10	1	-1E+10	1	-1E+10	1
4902551	96	C	04/11/2023	08:00	-131.203	47.952	0	1515.60	0	2.3470	0	34.5120	0	27.561	0	1497.444	0	27.5	4	8.4	4	-1E+10	1	-1E+10	1	-1E+10	1	-1E+10	1	-1E+10	1	-1E+10	1
4902551	96	C	04/11/2023	08:00	-131.203	47.952	0	1525.70	0	2.3340	0	34.5140	0	27.564	0	1507.387	0	28.1	4	8.5	4	-1E+10	1	-1E+10	1	-1E+10	1	-1E+10	1	-1E+10	1	-1E+10	1
4902551	96	C	04/11/2023	08:00	-131.203	47.952	0	1535.30	0	2.3240	0	34.5160	0	27.566	0	1516.837	0	28.6	4	8.7	4	-1E+10	1	-1E+10	1	-1E+10	1	-1E+10	1	-1E+10	1	-1E+10	1
4902551	96	C	04/11/2023	08:00	-131.203	47.952	0	1545.20	0	2.3080	0	34.5180	0	27.569	0	1526.582	0	29.3	4	8.9	4	-1E+10	1	-1E+10	1	-1E+10	1	-1E+10	1	-1E+10	1	-1E+10	1
4902551	96	C	04/11/2023	08:00	-131.203	47.952	0	1555.40	0	2.2870	0	34.5210	0	27.573	0	1536.623	0	30.3	4	9.2	4	-1E+10	1	-1E+10	1	-1E+10	1	-1E+10	1	-1E+10	1	-1E+10	1
4902551	96	C	04/11/2023	08:00	-131.203	47.952	0	1565.30	0	2.2770	0	34.5230	0	27.576	0	1546.367	0	31.0	4	9.4	4	-1E+10	1	-1E+10	1	-1E+10	1	-1E+10	1	-1E+10	1	-1E+10	1
4902551	96	C	04/11/2023	08:00	-131.203	47.952	0	1575.30	0	2.2640	0	34.5260	0	27.579	0	1556.209	0	31.8	4	9.6	4	-1E+10	1	-1E+10	1	-1E+10	1	-1E+10	1	-1E+10	1	-1E+10	1
4902551	96	C	04/11/2023	08:00	-131.203	47.952	0	1585.60	0	2.2490	0	34.5280	0	27.582	0	1566.346	0	32.5	4	9.9	4	-1E+10	1	-1E+10	1	-1E+10	1	-1E+10	1	-1E+10	1	-1E+10	1
4902551	96	C	04/11/2023	08:00	-131.203	47.952	0	1595.70	0	2.2360	0	34.5300	0	27.585	0	1576.286	0	33.0	4	10.0	4	-1E+10	1	-1E+10	1	-1E+10	1	-1E+10	1	-1E+10	1	-1E+10	1
4902551	96	C	04/11/2023	08:00	-131.203	47.952	0	1605.20	0	2.2260	0	34.5320	0	27.587	0	1585.635	0	33.6	4	10.2	4	-1E+10	1	-1E+10	1	-1E+10	1	-1E+10	1	-1E+10	1	-1E+10	1
4902551	96	C	04/11/2023	08:00	-131.203	47.952	0	1615.30	0	2.2130	0	34.5340	0	27.590	0	1595.574	0	34.3	4	10.4	4	-1E+10	1	-1E+10	1	-1E+10	1	-1E+10	1	-1E+10	1	-1E+10	1
4902551	96	C	04/11/2023	08:00	-131.203	47.952	0	1625.50	0	2.2040	0	34.5360	0	27.592	0	1605.611	0	34.7	4	10.5	4	-1E+10	1	-1E+10	1	-1E+10	1	-1E+10	1	-1E+10	1	-1E+10	1
4902551	96	C	04/11/2023	08:00	-131.203	47.952	0	1635.40	0	2.1970	0	34.5370	0	27.594	0	1615.352	0	35.3	4	10.7	4	-1E+10	1	-1E+10	1	-1E+10	1	-1E+10	1	-1E+10	1	-1E+10	1
4902551	96	C	04/11/2023	08:00	-131.203	47.952	0	1645.20	0	2.1900	0	34.5380	0	27.595	0	1624.994	0	36.1	4	10.9	4	-1E+10	1	-1E+10	1	-1E+10	1	-1E+10	1	-1E+10	1	-1E+10	1
4902551	96	C	04/11/2023	08:00	-131.203	47.952	0	1655.00	0	2.1790	0	34.5410	0	27.599	0	1634.636	0	36.6	4	11.1	4	-1E+10	1	-1E+10	1	-1E+10	1	-1E+10	1	-1E+10	1	-1E+10	1
4902551	96	C	04/11/2023	08:00	-131.203	47.952	0	1665.00	0	2.1770	0	34.5420	0	27.600	0	1644.474	0	37.0	4	11.2	4	-1E+10	1	-1E+10	1	-1E+10	1	-1E+10	1	-1E+10	1	-1E+10	1
4902551	96	C	04/11/2023	08:00	-131.203	47.952	0	1675.10	0	2.1680	0	34.5430	0	27.601	0	1654.410	0	37.4	4	11.3	4	-1E+10	1	-1E+10	1	-1E+10	1	-1E+10	1	-1E+10	1	-1E+10	1
4902551	96	C	04/11/2023	08:00	-131.203	47.952	0	1685.10	0	2.1610	0	34.5440	0	27.603	0	1664.247	0	37.9	4	11.5	4	-1E+10	1	-1E+10	1	-1E+10	1	-1E+10	1	-1E+10	1	-1E+10	1
4902551	96	C	04/11/2023	08:00	-131.203	47.952	0	1695.00	0	2.1500	0	34.5460	0	27.605	0	1673.986	0	38.3	4	11.6	4	-1E+10	1	-1E+10	1	-1E+10	1	-1E+10	1	-1E+10	1	-1E+10	1
4902551	96	C	04/11/2023	08:00	-131.203	47.952	0	1705.00	0	2.1410	0	34.5460	0	27.606	0	1683.822	0	38.3	4	11.6	4	-1E+10	1	-1E+10	1	-1E+10	1	-1E+10	1	-1E+10	1	-1E+10	1
4902551	96	C	04/11/2023	08:00	-131.203	47.952	0	1715.20	0	2.1300	0	34.5480	0	27.608	0	1693.855	0	38.7	4	11.7	4	-1E+10	1	-1E+10	1	-1E+10	1	-1E+10	1	-1E+10	1	-1E+10	1
4902551	96	C	04/11/2023	08:00	-131.203	47.952	0	1725.60	0	2.1180	0	34.5500	0	27.611	0	1704.084	0	39.5	4	11.9	4	-1E+10	1	-1E+10	1	-1E+10	1	-1E+10	1	-1E+10	1	-1E+10	1
4902551	96	C	04/11/2023	08:00	-131.203	47.952	0	1735.70	0	2.1090	0	34.5510	0	27.613	0	1714.017	0	40.3	4	12.2	4	-1E+10	1	-1E+10	1	-1E+10	1	-1E+10	1	-1E+10	1	-1E+10	1
4902551	96	C	04/11/2023	08:00	-131.203	47.952	0	1745.70	0	2.1010	0	34.5530	0	27.615	0	1723.851	0	41.1	4	12.4	4	-1E+10	1	-1E+10	1	-1E+10	1	-1E+10	1	-1E+10	1	-1E+10	1
4902551	96	C	04/11/2023	08:00	-131.203	47.952	0	1755.80	0	2.0950	0	34.5540	0	27.616	0	1733.784	0	41.7	4	12.6	4	-1E+10	1	-1E+10	1	-1E+10	1	-1E+10	1	-1E+10	1	-1E+10	1
4902551	96	C	04/11/2023	08:00	-131.203	47.952	0	1765.40	0	2.0850	0	34.5560	0	27.619	0	1743.224	0	42.3	4	12.8	4	-1E+10	1	-1E+10	1	-1E+10	1	-1E+10	1	-1E+10	1	-1E+10	1
4902551	96	C	04/11/2023	08:00	-131.203	47.952	0	1775.10	0	2.0770	0	34.5580	0	27.621	0	1752.762	0	42.9	4	12.9	4	-1E+10	1	-1E+10	1	-1E+10	1	-1E+10	1	-1E+10	1	-1E+10	1
4902551	96	C	04/11/2023	08:00	-131.203	47.952	0	1785.30	0	2.0670	0	34.5590	0	27.623	0	1762.791	0	43.2	4	13.0	4	-1E+10	1	-1E+10	1	-1E+10	1	-1E+10	1	-1E+10	1	-1E+10	1
4902551	96	C	04/11/2023	08:00	-131.203	47.952	0	1795.40	0	2.0560	0	34.5610	0	27.625	0	1772.722	0	43.5	4	13.1	4	-1E+10	1	-1E+10	1	-1E+10	1	-1E+10	1	-1E+10	1	-1E+10	1
4902551	96	C	04/11/2023	08:00	-131.203	47.952	0	1805.50	0	2.0460	0	34.5620	0	27.627	0	1782.652	0	43.9	4	13.2	4	-1E+10	1	-1E+10	1	-1E+10	1	-1E+10	1	-1E+10	1	-1E+10	1
4902551	96	C	04/11/2023	08:00	-131.203	47.952	0	1815.70	0	2.0410	0	34.5630	0	27.628	0	1792.680	0	44.4	4	13.4	4	-1E+10	1	-1E+10	1	-1E+10	1	-1E+10	1	-1E+10	1	-1E+10	1
4902551	96	C	04/11/2023	08:00	-131.203	47.952	0	1825.50	0	2.0350	0	34.5640	0	27.629	0	1802.314	0	45.0	4	13.6	4	-1E+10	1	-1E+10	1	-1E+10	1	-1E+10	1	-1E+10	1	-1E+10	1
4902551	96	C	04/11/2023	08:00	-131.203	47.952	0	1835.50	0	2.0280	0	34.5660	0	27.631	0	1812.145	0	45.7	4	13.8	4	-1E+10	1	-1E+10	1	-1E+10	1	-1E+10	1	-1E+10	1	-1E+10	1
4902551	96	C	04/11/2023	08:00	-131.203	47.952	0	1845.40	0	2.0200	0	34.5670	0	27.633	0	1821.876	0	46.4	4	14.0	4	-1E+10	1	-1E+10	1	-1E+10	1	-1E+10	1	-1E+10	1	-1E+10	1
4902551	96	C	04/11/2023	08:00	-131.203	47.952	0	1855.50	0	2.0130	0	34.5690	0	27.635	0	1831.804	0	47.0	4	14.2	4	-1E+10	1	-1E+10	1	-1E+10	1	-1E+10	1	-1E+10	1	-1E+10	1
4902551	96	C	04/11/2023	08:00	-131.203	47.952	0	1865.50	0	2.0060	0	34.5700	0	27.637	0	1841.633	0	47.6	4	14.4	4	-1E+10	1	-1E+10	1	-1E+10	1	-1E+10	1	-1E+10	1	-1E+10	1
4902551	96	C	04/11/2023	08:00	-131.203	47.952	0	1875.60	0	1.9990	0	34.5720	0	27.639	0	1851.560	0	48.2	4	14.5	4	-1E+10	1	-1E+10	1	-1E+10	1	-1E+10	1	-1E+10	1	-1E+10	1
4902551	96	C	04/11/2023	08:00	-131.203	47.952	0	1885.90	0	1.9950	0	34.5730	0	27.640	0	1861.683	0	48.5	4	14.6	4	-1E+10	1	-1E+10	1	-1E+10	1	-1E+10	1	-1E+10	1	-1E+10	1
4902551	96	C	04/11/2023	08:00	-131.203	47.952	0	1895.40	0	1.9900	0	34.5730	0	27.640	0	1871.019	0	49.1	4	14.8	4	-1E+10	1	-1E+10	1	-1E+10	1	-1E+10	1	-1E+10	1	-1E+10	1
4902551	96	C	04/11/2023	08:00	-131.203	47.952	0	1905.30	0	1.9830	0	34.5750	0	27.643	0	1880.748	0	49.7	4	15.0	4	-1E+10	1	-1E+10	1	-1E+10	1	-1E+10	1	-1E+10	1	-1E+10	1
4902551	96	C	04/11/2023	08:00	-131.203	47.952	0	1915.20	0	1.9740	0	34.5760	0	27.644	0	1890.476	0	50.4	4	15.2	4	-1E+10	1	-1E+10	1	-1E+10	1	-1E+10	1	-1E+10	1	-1E+10	1
4902551	96	C	04/11/2023	08:00	-131.203	47.952	0	1925.40	0	1.9690	0	34.5780	0	27.646	0	1900.499	0	50.8	4	15.3	4	-1E+10	1	-1E+10	1	-1E+10	1	-1E+10	1	-1E+10	1	-1E+10	1
4902551	96	C	04/11/2023	08:00	-131.203	47.952	0	1935.30	0	1.9640	0	34.5790	0	27.647	0	1910.227	0	51.4	4	15.5	4	-1E+10	1	-1E+10	1	-1E+10	1	-1E+10	1	-1E+10	1	-1E+10	1
4902551	96	C	04/11/2023	08:00	-131.203	47.952	0	1945.10	0	1.9570	0	34.5800	0	27.649	0	1919.856	0	52.0	4	15.7	4	-1E+10	1	-1E+10	1	-1E+10	1	-1E+10	1	-1E+10	1	-1E+10	1
4902551	96	C	04/11/2023	08:00	-131.203	47.952	0	1955.30	0	1.9480	0	34.5820	0	27.651	0	1929.877	0	52.6	4	15.8	4	-1E+10	1	-1E+10	1	-1E+10	1	-1E+10	1	-1E+10	1	-1E+10	1
4902551	96	C	04/11/2023	08:00	-131.203	47.952	0	1965.90	0	1.9390	0	34.5840	0	27.653	0	1940.291	0	52.8	4	15.9	4	-1E+10	1	-1E+10	1	-1E+10	1	-1E+10	1	-1E+10	1	-1E+10	1
4902551	96	C	04/11/2023	08:00	-131.203	47.952	0	1971.10	0	1.9360	0	34.5840	0	27.654	0	1945.400	0	52.2	4	15.7	4	-1E+10	1	-1E+10	1	-1E+10	1	-1E+10	1	-1E+10	1	-1E+10	1
4902551	96	C	04/11/2023	08:00	-131.203	47.952	0																										
4902551	97	C	04/21/2023	12:57	-131.265	47.983	0	0.40	0	7.7320	0	32.3500	0	25.232	0	0.397	0	277.8	4	94.4	4	-1E+10	1	-1E+10	1	-1E+10	1	-1E+10	1	-1E+10	1	-1E+10	1
4902551	97	C	04/21/2023	12:57	-131.265	47.983	0	1.10	0	7.7310	0	32.3500	0	25.232	0	1.091	0	277.7	4	94.4	4	-1E+10	1	-1E+10	1	-1E+10	1	-1E+10	1	-1E+10	1	-1E+10	1
4902551	97	C	04/21/2023	12:57	-131.265	47.983	0	2.10	0	7.7310	0	32.3510	0	25.233	0	2.082	0	277.7	4	94.4	4	-1E+10	1	-1E+10	1	-1E+10	1	-1E+10	1	-1E+10	1	-1E+10	1
4902551	97	C	04/21/2023	12:57	-131.265	47.983	0	3.00	0	7.7310	0	32.3510	0	25.233	0	2.975	0	277.7	4	94.4	4	-1E+10	1	-1E+10	1	-1E+10	1	-1E+10	1	-1E+10	1	-1E+10	1
4902551	97	C	04/21/2023	12:57	-131.265	47.983	0	4.10	0	7.7320	0	32.3500	0	25.232	0	4.066	0	277.6	4	94.3	4	-1E+10	1	-1E+10	1	-1E+10	1	-1E+10	1	-1E+10	1	-1E+10	1
4902551	97	C	04/21/2023	12:57	-131.265	47.983	0	4.80	0	7.7320	0	32.3510	0	25.233	0	4.760	0	277.6	4	94.3	4	-1E+10	1	-1E+10	1	-1E+10	1	-1E+10	1	-1E+10	1	-1E+10	1
4902551	97	C	04/21/2023	12:57	-131.265	47.983	0	6.00	0	7.7320	0	32.3510	0	25.233	0	5.950	0	277.6	4	94.3	4	-1E+10	1	-1E+10	1	-1E+10	1	-1E+10	1	-1E+10	1	-1E+10	1
4902551	97	C	04/21/2023	12:57	-131.265	47.983	0	7.30	0	7.7330	0	32.3510	0	25.232	0	7.239	0	277.6	4	94.3	4	-1E+10	1	-1E+10	1	-1E+10	1	-1E+10	1	-1E+10	1	-1E+10	1
4902551	97	C	04/21/2023	12:57	-131.265	47.983	0	8.00	0	7.7330	0	32.3510	0	25.232	0	7.933	0	277.6	4	94.3	4	-1E+10	1	-1E+10	1	-1E+10	1	-1E+10	1	-1E+10	1	-1E+10	1
4902551	97	C	04/21/2023	12:57	-131.265	47.983	0	9.20	0	7.7330	0	32.3510	0	25.232	0	9.123	0	277.6	4	94.3	4	-1E+10	1	-1E+10	1	-1E+10	1	-1E+10	1	-1E+10	1	-1E+10	1
4902551	97	C	04/21/2023	12:57	-131.265	47.983	0	9.90	0	7.7330	0	32.3510	0	25.232	0	9.817	0	277.6	4	94.3	4	-1E+10	1	-1E+10	1	-1E+10	1	-1E+10	1	-1E+10	1	-1E+10	1
4902551	97	C	04/21/2023	12:57	-131.265	47.983	0	11.00	0	7.7330	0	32.3510	0	25.232	0	10.907	0	277.6	4	94.3	4	-1E+10	1	-1E+10	1	-1E+10	1	-1E+10	1	-1E+10	1	-1E+10	1
4902551	97	C	04/21/2023	12:57	-131.265	47.983	0	12.30	0	7.7330	0	32.3510	0	25.232	0	12.196	0	277.5	4	94.3	4	-1E+10	1	-1E+10	1	-1E+10	1	-1E+10	1	-1E+10	1	-1E+10	1
4902551	97	C	04/21/2023	12:57	-131.265	47.983	0	13.10	0	7.7330	0	32.3510	0	25.233	0	12.990	0	277.4	4	94.3	4	-1E+10	1	-1E+10	1	-1E+10	1	-1E+10	1	-1E+10	1	-1E+10	1
4902551	97	C	04/21/2023	12:57	-131.265	47.983	0	14.00	0	7.7330	0	32.3510	0	25.233	0	13.882	0	277.5	4	94.3	4	-1E+10	1	-1E+10	1	-1E+10	1	-1E+10	1	-1E+10	1	-1E+10	1
4902551	97	C	04/21/2023	12:57	-131.265	47.983	0	15.20	0	7.7330	0	32.3510	0	25.233	0	15.072	0	277.5	4	94.3	4	-1E+10	1	-1E+10	1	-1E+10	1	-1E+10	1	-1E+10	1	-1E+10	1
4902551	97	C	04/21/2023	12:57	-131.265	47.983	0	16.00	0	7.7340	0	32.3500	0	25.232	0	15.865	0	277.5	4	94.3	4	-1E+10	1	-1E+10	1	-1E+10	1	-1E+10	1	-1E+10	1	-1E+10	1
4902551	97	C	04/21/2023	12:57	-131.265	47.983	0	17.10	0	7.7340	0	32.3510	0	25.232	0	16.956	0	277.4	4	94.3	4	-1E+10	1	-1E+10	1	-1E+10	1	-1E+10	1	-1E+10	1	-1E+10	1
4902551	97	C	04/21/2023	12:57	-131.265	47.983	0	18.20	0	7.7340	0	32.3510	0	25.232	0	18.047	0	277.4	4	94.3	4	-1E+10	1	-1E+10	1	-1E+10	1	-1E+10	1	-1E+10	1	-1E+10	1
4902551	97	C	04/21/2023	12:57	-131.265	47.983	0	18.90	0	7.7340	0	32.3510	0	25.232	0	18.741	0	277.4	4	94.3	4	-1E+10	1	-1E+10	1	-1E+10	1	-1E+10	1	-1E+10	1	-1E+10	1
4902551	97	C	04/21/2023	12:57	-131.265	47.983	0	20.10	0	7.7340	0	32.3510	0	25.232	0	19.930	0	277.4	4	94.3	4	-1E+10	1	-1E+10	1	-1E+10	1	-1E+10	1	-1E+10	1	-1E+10	1
4902551	97	C	04/21/2023	12:57	-131.265	47.983	0	20.90	0	7.7340	0	32.3510	0	25.232	0	20.724	0	277.5	4	94.3	4	-1E+10	1	-1E+10	1	-1E+10	1	-1E+10	1	-1E+10	1	-1E+10	1
4902551	97	C	04/21/2023	12:57	-131.265	47.983	0	22.10	0	7.7340	0	32.3510	0	25.232	0	21.913	0	277.4	4	94.3	4	-1E+10	1	-1E+10	1	-1E+10	1	-1E+10	1	-1E+10	1	-1E+10	1
4902551	97	C	04/21/2023	12:57	-131.265	47.983	0	23.00	0	7.7340	0	32.3510	0	25.232	0	22.806	0	277.4	4	94.3	4	-1E+10	1	-1E+10	1	-1E+10	1	-1E+10	1	-1E+10	1	-1E+10	1
4902551	97	C	04/21/2023	12:57	-131.265	47.983	0	24.30	0	7.7340	0	32.3510	0	25.233	0	24.095	0	277.4	4	94.3	4	-1E+10	1	-1E+10	1	-1E+10	1	-1E+10	1	-1E+10	1	-1E+10	1
4902551	97	C	04/21/2023	12:57	-131.265	47.983	0	25.00	0	7.7350	0	32.3510	0	25.232	0	24.789	0	277.4	4	94.3	4	-1E+10	1	-1E+10	1	-1E+10	1	-1E+10	1	-1E+10	1	-1E+10	1
4902551	97	C	04/21/2023	12:57	-131.265	47.983	0	25.90	0	7.7360	0	32.3510	0	25.232	0	25.681	0	277.3	4	94.2	4	-1E+10	1	-1E+10	1	-1E+10	1	-1E+10	1	-1E+10	1	-1E+10	1
4902551	97	C	04/21/2023	12:57	-131.265	47.983	0	26.80	0	7.7360	0	32.3510	0	25.232	0	26.573	0	277.3	4	94.3	4	-1E+10	1	-1E+10	1	-1E+10	1	-1E+10	1	-1E+10	1	-1E+10	1
4902551	97	C	04/21/2023	12:57	-131.265	47.983	0	28.00	0	7.7370	0	32.3510	0	25.232	0	27.763	0	277.3	4	94.2	4	-1E+10	1	-1E+10	1	-1E+10	1	-1E+10	1	-1E+10	1	-1E+10	1
4902551	97	C	04/21/2023	12:57	-131.265	47.983	0	28.90	0	7.7370	0	32.3510	0	25.232	0	28.656	0	277.3	4	94.2	4	-1E+10	1	-1E+10	1	-1E+10	1	-1E+10	1	-1E+10	1	-1E+10	1
4902551	97	C	04/21/2023	12:57	-131.265	47.983	0	29.80	0	7.7370	0	32.3510	0	25.232	0	29.548	0	277.3	4	94.2	4	-1E+10	1	-1E+10	1	-1E+10	1	-1E+10	1	-1E+10	1	-1E+10	1
4902551	97	C	04/21/2023	12:57	-131.265	47.983	0	30.80	0	7.7370	0	32.3510	0	25.232	0	30.539	0	277.2	4	94.2	4	-1E+10	1	-1E+10	1	-1E+10	1	-1E+10	1	-1E+10	1	-1E+10	1
4902551	97	C	04/21/2023	12:57	-131.265	47.983	0	31.80	0	7.7370	0	32.3510	0	25.232	0	31.531	0	277.3	4	94.2	4	-1E+10	1	-1E+10	1	-1E+10	1	-1E+10	1	-1E+10	1	-1E+10	1
4902551	97	C	04/21/2023	12:57	-131.265	47.983	0	33.00	0	7.7370	0	32.3510	0	25.232	0	32.721	0	277.2	4	94.2	4	-1E+10	1	-1E+10	1	-1E+10	1	-1E+10	1	-1E+10	1	-1E+10	1
4902551	97	C	04/21/2023	12:57	-131.265	47.983	0	34.00	0	7.7370	0	32.3510	0	25.232	0	33.712	0	277.3	4	94.2	4	-1E+10	1	-1E+10	1	-1E+10	1	-1E+10	1	-1E+10	1	-1E+10	1
4902551	97	C	04/21/2023	12:57	-131.265	47.983	0	34.90	0	7.7370	0	32.3510	0	25.232	0	34.604	0	277.2	4	94.2	4	-1E+10	1	-1E+10	1	-1E+10	1	-1E+10	1	-1E+10	1	-1E+10	1
4902551	97	C	04/21/2023	12:57	-131.265	47.983	0	36.00	0	7.7370	0	32.3510	0	25.232	0	35.695	0	277.2	4	94.2	4	-1E+10	1	-1E+10	1	-1E+10	1	-1E+10	1	-1E+10	1	-1E+10	1
4902551	97	C	04/21/2023	12:57	-131.265	47.983	0	36.90	0	7.7370	0	32.3510	0	25.232	0	36.587	0	277.2	4	94.2	4	-1E+10	1	-1E+10	1	-1E+10	1	-1E+10	1	-1E+10	1	-1E+10	1
4902551	97	C	04/21/2023	12:57	-131.265	47.983	0	37.90	0	7.7370	0	32.3510	0	25.232	0	37.579	0	277.1	4	94.2	4	-1E+10	1	-1E+10	1	-1E+10	1	-1E+10	1	-1E+10	1	-1E+10	1
4902551	97	C	04/21/2023	12:57	-131.265	47.983	0	38.80	0	7.7370	0	32.3510	0	25.232	0	38.471	0	277.1	4	94.2	4	-1E+10	1	-1E+10	1	-1E+10	1	-1E+10	1	-1E+10	1	-1E+10	1
4902551	97	C	04/21/2023	12:57	-131.265	47.983	0	39.80	0	7.7370	0	32.3510	0	25.232	0	39.462	0	277.1	4	94.2	4	-1E+10	1	-1E+10	1	-1E+10	1	-1E+10	1	-1E+10	1	-1E+10	1
4902551	97	C	04/21/2023	12:57	-131.265	47.983	0	41.00	0	7.7370	0	32.3500	0	25.232	0	40.652	0	277.1	4	94.2	4	-1E+10	1	-1E+10	1	-1E+10	1	-1E+10	1	-1E+10	1	-1E+10	1
4902551	97	C	04/21/2023	12:57	-131.265	47.983	0	42.10	0	7.7370	0	32.3510	0	25.232	0	41.743	0	277.1	4	94.2	4	-1E+10	1	-1E+10	1	-1E+10	1	-1E+10	1	-1E+10	1	-1E+10	1
4902551	97	C	04/21/2023	12:57	-131.265	47.983	0	42.80	0	7.7370	0	32.3510	0	25.232	0	42.437	0	277.1	4	94.2	4	-1E+10	1	-1E+10	1	-1E+10	1	-1E+10	1	-1E+10	1	-1E+10	1
4902551	97	C	04/21/2023	12:57	-131.265	47.983	0	43.90	0	7.7360	0	32.3500	0	25.232	0	43.527	0	277.1	4	94.2	4	-1E+10	1	-1E+10	1	-1E+10	1	-1E+10	1	-1E+10	1	-1E+10	1
4902551	97	C	04/21/2023	12:57	-131.265	47.983	0	45.00	0	7.7360	0	32.3510	0	25.233	0	44.618	0	277.0	4	94.2	4	-1E+10	1	-1E+10	1	-1E+10	1	-1E+10	1	-1E+10	1	-1E+10	1
4902551	97	C	04/21/2023	12:57	-131.265	47.983	0	45.80	0	7.7360	0	32.3510	0	25.233	0	45.411	0	277.0	4	94.2	4	-1E+10	1	-1E+10	1	-1E+10	1	-1E+10	1	-1E+10	1	-1E+10	1
4902551	97	C	04/21/2023	12:57	-131.265	47.983	0	46.90	0	7.7370	0	32.3500	0	25.232	0	46.501	0	277.0	4	94.1	4	-1E+10	1	-1E+10	1	-1E+10	1	-1E+10	1	-1E+10	1	-1E+10	1
4902551	97	C	04/21/2023	12:57	-131.265	47.983	0	48.10	0	7.7370	0	32.3510	0	25.232	0	47.691	0	277.0	4	94.1	4	-1E+10	1	-1E+10	1	-1E+10	1	-1E+10	1	-1E+10	1	-1E+10	1
4902551	97	C	04/21/2023	12:57	-131.265	47.983	0	48.80	0	7.7370	0	32.3510	0	25.232	0	48.385	0	277.0	4	94.1	4	-1E+10	1	-1E+10	1	-1E+10	1	-1E+10	1	-1E+10	1	-1E+10	1
4902551	97	C	04/21/2023	12:57	-131.265	47.983	0	50.00	0	7.7370	0	32.3510	0	25.232	0	49.574	0	276.9	4	94.1	4	-1E+10	1	-1E+10	1	-1E+10	1	-1E+10	1	-1E+10	1	-1E+10	1
4902551	97	C	04/21/2023	12:57	-131.265	47.983	0	51.10	0	7.7370	0	32.3500	0	25.232	0	50.665	0	276.9	4	94.1	4	-1E+10	1	-1E+10	1	-1E+10	1	-1E+10	1	-1E+10	1	-1E+10	1
4902551	97	C	04/21/2023	12:57	-131.265	47.983	0	51.90	0	7.7370	0	32.3500	0	25.232	0	51.458	0	276.9	4	94.1	4	-1E+10	1	-1E+10	1	-1E+10	1	-1E+10	1	-1E+10	1	-1E+10	1
4902551	97	C	04/21/2023	12:57	-131.265	47.983	0	53.00	0	7.7370	0	32.3500	0	25.232	0	52.549	0	276.8	4	94.1	4	-1E+10	1	-1E+10	1	-1E+10	1	-1E+10	1	-1E+10	1	-1E+10	1
4902551	97	C	04/21/2023	12:57	-131.265	47.983	0	54.20	0	7.7370	0	32.3500	0	25.232	0	53.738	0	276.9	4	94.1	4	-1E+10	1	-1E+10	1	-1E+10	1	-1E+10	1	-1E+10	1	-1E+10	1
4902551	97	C	04/21/2023	12:57	-131.265	47.983	0	54.90	0	7.7370	0	32.3510	0	25.232	0	54.432	0	276.9	4	94.1	4	-1E+10	1	-1E+10	1	-1E+10	1	-1E+10	1	-1E+10	1	-1E+10	1
4902551	97	C	04/21/2023	12:57	-131.265	47.983	0	56.00	0	7.7380	0	32.3500	0	25.232	0	55.523	0	276.9	4	94.1	4	-1E+10	1	-1E+10	1	-1E+10	1	-1E+10	1	-1E+10	1	-1E+10	1
4902551	97	C	04/21/2023	12:57	-131.265	47.983	0	57.10	0	7.7380	0	32.3500	0	25.232	0	56.613	0	276.7	4	94.0	4	-1E+10	1	-1E+10	1	-1E+10	1	-1E+10	1	-1E+10	1	-1E+10	1
4902551	97	C	04/21/2023	12:57	-131.265	47.983	0	57.90	0	7.7380	0	32.3500	0	25.232	0	57.406	0	276.8	4	94.1	4	-1E+10	1	-1E+10	1	-1E+10	1	-1E+10	1	-1E+10	1	-1E+10	1
4902551	97	C	04/21/2023	12:57	-131.265	47.983	0	59.00	0	7.7380	0	32.3500	0	25.232	0	58.497	0	276.7	4	94.0	4	-1E+10	1	-1E+10	1	-1E+10	1	-1E+10	1	-1E+10	1	-1E+10	1
4902551	97	C	04/21/2023	12:57	-131.265	47.983	0	60.20	0	7.7380	0	32.3500	0	25.232	0	59.686	0	276.7	4	94.1	4	-1E+10	1	-1E+10	1	-1E+10	1	-1E+10	1	-1E+10	1	-1E+10	1
4902551	97	C	04/21/2023	12:57	-131.265	47.983	0	61.00	0	7.7380	0	32.3510	0	25.232	0	60.479	0	276.6	4	94.0	4	-1E+10	1	-1E+10	1	-1E+10	1	-1E+10	1	-1E+10	1	-1E+10	1
4902551	97	C	04/21/2023	12:57	-131.265	47.983	0	61.80	0	7.7380	0	32.3500	0	25.232	0	61.272	0	276.7	4	94.0	4	-1E+10	1	-1E+10	1	-1E+10	1	-1E+10	1	-1E+10	1	-1E+10	1
4902551	97	C	04/21/2023	12:57	-131.265	47.983	0	63.00	0	7.7380	0	32.3510	0	25.232	0	62.462	0	276.6	4	94.0	4	-1E+10	1	-1E+10	1	-1E+10	1	-1E+10	1	-1E+10	1	-1E+10	1
4902551	97	C	04/21/2023	12:57	-131.265	47.983	0	64.20	0	7.7380	0	32.3500	0	25.232	0	63.651	0	276.6	4	94.0	4	-1E+10	1	-1E+10	1	-1E+10	1	-1E+10	1	-1E+10	1	-1E+10	1
4902551	97	C	04/21/2023	12:57	-131.265	47.983	0	65.10	0	7.7390	0	32.3500	0	25.232	0	64.544	0	276.5	4	94.0	4	-1E+10	1	-1E+10	1	-1E+10	1	-1E+10	1	-1E+10	1	-1E+10	1
4902551	97	C	04/21/2023	12:57	-131.265	47.983	0	65.90	0	7.7390	0	32.3510	0	25.232	0	65.337	0	276.5	4	94.0	4	-1E+10	1	-1E+10	1	-1E+10	1	-1E+10	1	-1E+10	1	-1E+10	1
4902551	97	C	04/21/2023	12:57	-131.265	47.983	0	66.70	0	7.7390	0	32.3510	0	25.232	0	66.130	0	276.5	4	94.0	4	-1E+10	1	-1E+10	1	-1E+10	1	-1E+10	1	-1E+10	1	-1E+10	1
4902551	97	C	04/21/2023	12:57	-131.265	47.983	0	67.90	0	7.7380	0	32.3500	0	25.232	0	67.319	0	276.5	4	94.0	4	-1E+10	1	-1E+10	1	-1E+10	1	-1E+10	1	-1E+10	1	-1E+10	1
4902551	97	C	04/21/2023	12:57	-131.265	47.983	0	69.10	0	7.7390	0	32.3510	0	25.232	0	68.509	0	276.5	4	94.0	4	-1E+10	1	-1E+10	1	-1E+10	1	-1E+10	1	-1E+10	1	-1E+10	1
4902551	97	C	04/21/2023	12:57	-131.265	47.983	0	69.80	0	7.7390	0	32.3510	0	25.232	0	69.203	0	276.4	4	93.9	4	-1E+10	1	-1E+10	1	-1E+10	1	-1E+10	1	-1E+10	1	-1E+10	1
4902551	97	C	04/21/2023	12:57	-131.265	47.983	0	70.90	0	7.7380	0	32.3510	0	25.233	0	70.293	0	276.3	4	93.9	4	-1E+10	1	-1E+10	1	-1E+10	1	-1E+10	1	-1E+10	1	-1E+10	1
4902551	97	C	04/21/2023	12:57	-131.265	47.983	0	72.00	0	7.7390	0	32.3510	0	25.232	0	71.383	0	276.3	4	93.9	4	-1E+10	1	-1E+10	1	-1E+10	1	-1E+10	1	-1E+10	1	-1E+10	1
4902551	97	C	04/21/2023	12:57	-131.265	47.983	0	72.80	0	7.7390	0	32.3510	0	25.232	0	72.176	0	276.3	4	93.9	4	-1E+10	1	-1E+10	1	-1E+10	1	-1E+10	1	-1E+10	1	-1E+10	1
4902551	97	C	04/21/2023	12:57	-131.265	47.983	0	73.80	0	7.7390	0	32.3500	0	25.232	0	73.168	0	276.2	4	93.9	4	-1E+10	1	-1E+10	1	-1E+10	1	-1E+10	1	-1E+10	1	-1E+10	1
4902551	97	C	04/21/2023	12:57	-131.265	47.983	0	74.80	0	7.7390	0	32.3510	0	25.232	0	74.159	0	276.2	4	93.9	4	-1E+10	1	-1E+10	1	-1E+10	1	-1E+10	1	-1E+10	1	-1E+10	1
4902551	97	C	04/21/2023	12:57	-131.265	47.983	0	75.80	0	7.7390	0	32.3510	0	25.232	0	75.150	0	276.0	4	93.8	4	-1E+10	1	-1E+10	1	-1E+10	1	-1E+10	1	-1E+10	1	-1E+10	1
4902551	97	C	04/21/2023	12:57	-131.265	47.983	0	77.10	0	7.7400	0	32.3500	0	25.232	0	76.439	0	276.1	4	93.8	4	-1E+10	1	-1E+10	1	-1E+10	1	-1E+10	1	-1E+10	1	-1E+10	1
4902551	97	C	04/21/2023	12:57	-131.265	47.983	0	78.10	0	7.7390	0	32.3510	0	25.233	0	77.430	0	275.9	4	93.8	4	-1E+10	1	-1E+10	1	-1E+10	1	-1E+10	1	-1E+10	1	-1E+10	1
4902551	97	C	04/21/2023	12:57	-131.265	47.983	0	78.80	0	7.7390	0	32.3510	0	25.233	0	78.124	0	275.9	4	93.8	4	-1E+10	1	-1E+10	1	-1E+10	1	-1E+10	1	-1E+10	1	-1E+10	1
4902551	97	C	04/21/2023	12:57	-131.265	47.983	0	79.80	0	7.7390	0	32.3500	0	25.232	0	79.115	0	275.9	4	93.8	4	-1E+10	1	-1E+10	1	-1E+10	1	-1E+10	1	-1E+10	1	-1E+10	1
4902551	97	C	04/21/2023	12:57	-131.265	47.983	0	81.00	0	7.7390	0	32.3510	0	25.233	0	80.305	0	275.8	4	93.7	4	-1E+10	1	-1E+10	1	-1E+10	1	-1E+10	1	-1E+10	1	-1E+10	1
4902551	97	C	04/21/2023	12:57	-131.265	47.983	0	82.10	0	7.7390	0	32.3510	0	25.233	0	81.395	0	282.6	4	96.1	4	-1E+10	1	-1E+10	1	-1E+10	1	-1E+10	1	-1E+10	1	-1E+10	1
4902551	97	C	04/21/2023	12:57	-131.265	47.983	0	83.30	0	7.7400	0	32.3510	0	25.232	0	82.584	0	282.5	4	96.0	4	-1E+10	1	-1E+10	1	-1E+10	1	-1E+10	1	-1E+10	1	-1E+10	1
4902551	97	C	04/21/2023	12:57	-131.265	47.983	0	84.10	0	7.7380	0	32.3510	0	25.233	0	83.377	0	282.3	4	95.9	4	-1E+10	1	-1E+10	1	-1E+10	1	-1E+10	1	-1E+10	1	-1E+10	1
4902551	97	C	04/21/2023	12:57	-131.265	47.983	0	84.90	0	7.7390	0	32.3510	0	25.233	0	84.170	0	282.1	4	95.9	4	-1E+10	1	-1E+10	1	-1E+10	1	-1E+10	1	-1E+10	1	-1E+10	1
4902551	97	C	04/21/2023	12:57	-131.265	47.983	0	86.10	0	7.7400	0	32.3510	0	25.232	0	85.360	0	281.7	4	95.7	4	-1E+10	1	-1E+10	1	-1E+10	1	-1E+10	1	-1E+10	1	-1E+10	1
4902551	97	C	04/21/2023	12:57	-131.265	47.983	0	87.00	0	7.7400	0	32.3510	0	25.233	0	86.252	0	281.3	4	95.6	4	-1E+10	1	-1E+10	1	-1E+10	1	-1E+10	1	-1E+10	1	-1E+10	1
4902551	97	C	04/21/2023	12:57	-131.265	47.983	0	87.90	0	7.7410	0	32.3510	0	25.232	0	87.144	0	280.9	4	95.5	4	-1E+10	1	-1E+10	1	-1E+10	1	-1E+10	1	-1E+10	1	-1E+10	1
4902551	97	C	04/21/2023	12:57	-131.265	47.983	0	89.10	0	7.7410	0	32.3500	0	25.232	0	88.333	0	280.3	4	95.3	4	-1E+10	1	-1E+10	1	-1E+10	1	-1E+10	1	-1E+10	1	-1E+10	1
4902551	97	C	04/21/2023	12:57	-131.265	47.983	0	90.00	0	7.7400	0	32.3500	0	25.232	0	89.225	0	279.6	4	95.0	4	-1E+10	1	-1E+10	1	-1E+10	1	-1E+10	1	-1E+10	1	-1E+10	1
4902551	97	C	04/21/2023	12:57	-131.265	47.983	0	91.00	0	7.7330	0	32.3530	0	25.235	0	90.217	0	279.1	4	94.8	4	-1E+10	1	-1E+10	1	-1E+10	1	-1E+10	1	-1E+10	1	-1E+10	1
4902551	97	C	04/21/2023	12:57	-131.265	47.983	0	92.20	0	7.7330	0	32.3520	0	25.234	0	91.406	0	278.2	4	94.5	4	-1E+10	1	-1E+10	1	-1E+10	1	-1E+10	1	-1E+10	1	-1E+10	1
4902551	97	C	04/21/2023	12:57	-131.265	47.983	0	92.90	0	7.7310	0	32.3520	0	25.235	0	92.100	0	277.4	4	94.3	4	-1E+10	1	-1E+10	1	-1E+10	1	-1E+10	1	-1E+10	1	-1E+10	1
4902551	97	C	04/21/2023	12:57	-131.265	47.983	0	94.10	0	7.7310	0	32.3530	0	25.235	0	93.289	0	275.8	4	93.7	4	-1E+10	1	-1E+10	1	-1E+10	1	-1E+10	1	-1E+10	1	-1E+10	1
4902551	97	C	04/21/2023	12:57	-131.265	47.983	0	94.90	0	7.7280	0	32.3540	0	25.237	0	94.082	0	274.8	4	93.4	4	-1E+10	1	-1E+10	1	-1E+10	1	-1E+10	1	-1E+10	1	-1E+10	1
4902551	97	C	04/21/2023	12:57	-131.265	47.983	0	95.90	0	7.7120	0	32.3570	0	25.241	0	95.073	0	273.7	4	93.0	4	-1E+10	1	-1E+10	1	-1E+10	1	-1E+10	1	-1E+10	1	-1E+10	1
4902551	97	C	04/21/2023	12:57	-131.265	47.983	0	97.00	0	7.6910	0	32.3630	0	25.249	0	96.164	0	272.3	4	92.4	4	-1E+10	1	-1E+10	1	-1E+10	1	-1E+10	1	-1E+10	1	-1E+10	1
4902551	97	C	04/21/2023	12:57	-131.265	47.983	0	98.30	0	7.6760	0	32.3670	0	25.254	0	97.452	0	270.2	4	91.7	4	-1E+10	1	-1E+10	1	-1E+10	1	-1E+10	1	-1E+10	1	-1E+10	1
4902551	97	C	04/21/2023	12:57	-131.265	47.983	0	99.20	0	7.6610	0	32.3740	0	25.262	0	98.344	0	268.8	4	91.2	4	-1E+10	1	-1E+10	1	-1E+10	1	-1E+10	1	-1E+10	1	-1E+10	1
4902551	97	C	04/21/2023	12:57	-131.265	47.983	0	99.80	0	7.6520	0	32.3750	0	25.264	0	98.939	0	267.5	4	90.7	4	-1E+10	1	-1E+10	1	-1E+10	1	-1E+10	1	-1E+10	1	-1E+10	1
4902551	97	C	04/21/2023	12:57	-131.265	47.983	0	100.90	0	7.6410	0	32.3780	0	25.268	0	100.029	0	265.0	4	89.9	4	-1E+10	1	-1E+10	1	-1E+10	1	-1E+10	1	-1E+10	1	-1E+10	1
4902551	97	C	04/21/2023	12:57	-131.265	47.983	0	102.10	0	7.5830	0	32.4040	0	25.296	0	101.218	0	261.7	4	88.7	4	-1E+10	1	-1E+10	1	-1E+10	1	-1E+10	1	-1E+10	1	-1E+10	1
4902551	97	C	04/21/2023	12:57	-131.265	47.983	0	102.90	0	7.5380	0	32.4220	0	25.317	0	102.011	0	259.7	4	87.9	4	-1E+10	1	-1E+10	1	-1E+10	1	-1E+10	1	-1E+10	1	-1E+10	1
4902551	97	C	04/21/2023	12:57	-131.265	47.983	0	104.20	0	7.4240	0	32.4880	0	25.384	0	103.300	0	256.3	4	86.6	4	-1E+10	1	-1E+10	1	-1E+10	1	-1E+10	1	-1E+10	1	-1E+10	1
4902551	97	C	04/21/2023	12:57	-131.265	47.983	0	104.90	0	7.3420	0	32.5480	0	25.443	0	103.993	0	254.0	4	85.7	4	-1E+10	1	-1E+10	1	-1E+10	1	-1E+10	1	-1E+10	1	-1E+10	1
4902551	97	C	04/21/2023	12:57	-131.265	47.983	0	106.10	0	7.2340	0	32.6280	0	25.521	0	105.183	0	250.1	4	84.2	4	-1E+10	1	-1E+10	1	-1E+10	1	-1E+10	1	-1E+10	1	-1E+10	1
4902551	97	C	04/21/2023	12:57	-131.265	47.983	0	107.10	0	7.1580	0	32.6860	0	25.577	0	106.174	0	246.9	4	83.0	4	-1E+10	1	-1E+10	1	-1E+10	1	-1E+10	1	-1E+10	1	-1E+10	1
4902551	97	C	04/21/2023	12:57	-131.265	47.983	0	108.00	0	7.1070	0	32.7220	0	25.612	0	107.066	0	244.2	4	82.0	4	-1E+10	1	-1E+10	1	-1E+10	1	-1E+10	1	-1E+10	1	-1E+10	1
4902551	97	C	04/21/2023	12:57	-131.265	47.983	0	108.90	0	7.0380	0	32.7690	0	25.658	0	107.958	0	241.9	4	81.2	4	-1E+10	1	-1E+10	1	-1E+10	1	-1E+10	1	-1E+10	1	-1E+10	1
4902551	97	C	04/21/2023	12:57	-131.265	47.983	0	109.90	0	7.0170	0	32.7840	0	25.673	0	108.949	0	239.4	4	80.3	4	-1E+10	1	-1E+10	1	-1E+10	1	-1E+10	1	-1E+10	1	-1E+10	1
4902551	97	C	04/21/2023	12:57	-131.265	47.983	0	110.80	0	6.9780	0	32.8110	0	25.699	0	109.841	0	235.9	4	79.1	4	-1E+10	1	-1E+10	1	-1E+10	1	-1E+10	1	-1E+10	1	-1E+10	1
4902551	97	C	04/21/2023	12:57	-131.265	47.983	0	112.00	0	6.9190	0	32.8600	0	25.746	0	111.030	0	232.4	4	77.8	4	-1E+10	1	-1E+10	1	-1E+10	1	-1E+10	1	-1E+10	1	-1E+10	1
4902551	97	C	04/21/2023	12:57	-131.265	47.983	0	113.10	0	6.8860	0	32.8880	0	25.772	0	112.120	0	229.6	4	76.9	4	-1E+10	1	-1E+10	1	-1E+10	1	-1E+10	1	-1E+10	1	-1E+10	1
4902551	97	C	04/21/2023	12:57	-131.265	47.983	0	114.10	0	6.8440	0	32.9300	0	25.811	0	113.111	0	227.3	4	76.0	4	-1E+10	1	-1E+10	1	-1E+10	1	-1E+10	1	-1E+10	1	-1E+10	1
4902551	97	C	04/21/2023	12:57	-131.265	47.983	0	115.00	0	6.7980	0	32.9730	0	25.851	0	114.003	0	226.1	4	75.6	4	-1E+10	1	-1E+10	1	-1E+10	1	-1E+10	1	-1E+10	1	-1E+10	1
4902551	97	C	04/21/2023	12:57	-131.265	47.983	0	115.80	0	6.7230	0	33.0170	0	25.895	0	114.796	0	225.1	4	75.1	4	-1E+10	1	-1E+10	1	-1E+10	1	-1E+10	1	-1E+10	1	-1E+10	1
4902551	97	C	04/21/2023	12:57	-131.265	47.983	0	117.00	0	6.6960	0	33.0410	0	25.918	0	115.985	0	223.1	4	74.4	4	-1E+10	1	-1E+10	1	-1E+10	1	-1E+10	1	-1E+10	1	-1E+10	1
4902551	97	C	04/21/2023	12:57	-131.265	47.983	0	118.00	0	6.6810	0	33.0580	0	25.933	0	116.977	0	221.8	4	74.0	4	-1E+10	1	-1E+10	1	-1E+10	1	-1E+10	1	-1E+10	1	-1E+10	1
4902551	97	C	04/21/2023	12:57	-131.265	47.983	0	118.90	0	6.6360	0	33.1180	0	25.986	0	117.868	0	220.9	4	73.6	4	-1E+10	1	-1E+10	1	-1E+10	1	-1E+10	1	-1E+10	1	-1E+10	1
4902551	97	C	04/21/2023	12:57	-131.265	47.983	0	120.10	0	6.6180	0	33.1360	0	26.003	0	119.058	0	219.6	4	73.2	4	-1E+10	1	-1E+10	1	-1E+10	1	-1E+10	1	-1E+10	1	-1E+10	1
4902551	97	C	04/21/2023	12:57	-131.265	47.983	0	121.00	0	6.5980	0	33.1530	0	26.019	0	119.950	0	218.5	4	72.8	4	-1E+10	1	-1E+10	1	-1E+10	1	-1E+10	1	-1E+10	1	-1E+10	1
4902551	97	C	04/21/2023	12:57	-131.265	47.983	0	121.90	0	6.5670	0	33.1690	0	26.036	0	120.842	0	217.5	4	72.4	4	-1E+10	1	-1E+10	1	-1E+10	1	-1E+10	1	-1E+10	1	-1E+10	1
4902551	97	C	04/21/2023	12:57	-131.265	47.983	0	122.90	0	6.5230	0	33.2020	0	26.067	0	121.833	0	216.4	4	72.0	4	-1E+10	1	-1E+10	1	-1E+10	1	-1E+10	1	-1E+10	1	-1E+10	1
4902551	97	C	04/21/2023	12:57	-131.265	47.983	0	123.80	0	6.4910	0	33.2190	0	26.085	0	122.725	0	215.5	4	71.6	4	-1E+10	1	-1E+10	1	-1E+10	1	-1E+10	1	-1E+10	1	-1E+10	1
4902551	97	C	04/21/2023	12:57	-131.265	47.983	0	125.10	0	6.4670	0	33.2240	0	26.092	0	124.013	0	214.0	4	71.1	4	-1E+10	1	-1E+10	1	-1E+10	1	-1E+10	1	-1E+10	1	-1E+10	1
4902551	97	C	04/21/2023	12:57	-131.265	47.983	0	126.10	0	6.4460	0	33.2280	0	26.098	0	125.004	0	212.8	4	70.7	4	-1E+10	1	-1E+10	1	-1E+10	1	-1E+10	1	-1E+10	1	-1E+10	1
4902551	97	C	04/21/2023	12:57	-131.265	47.983	0	127.00	0	6.4250	0	33.2320	0	26.104	0	125.896	0	211.4	4	70.2	4	-1E+10	1	-1E+10	1	-1E+10	1	-1E+10	1	-1E+10	1	-1E+10	1
4902551	97	C	04/21/2023	12:57	-131.265	47.983	0	128.00	0	6.4130	0	33.2390	0	26.111	0	126.887	0	209.9	4	69.7	4	-1E+10	1	-1E+10	1	-1E+10	1	-1E+10	1	-1E+10	1	-1E+10	1
4902551	97	C	04/21/2023	12:57	-131.265	47.983	0	129.00	0	6.3650	0	33.2620	0	26.135	0	127.878	0	208.3	4	69.1	4	-1E+10	1	-1E+10	1	-1E+10	1	-1E+10	1	-1E+10	1	-1E+10	1
4902551	97	C	04/21/2023	12:57	-131.265	47.983	0	130.10	0	6.3010	0	33.2800	0	26.157	0	128.968	0	206.8	4	68.5	4	-1E+10	1	-1E+10	1	-1E+10	1	-1E+10	1	-1E+10	1	-1E+10	1
4902551	97	C	04/21/2023	12:57	-131.265	47.983	0	130.90	0	6.2830	0	33.3030	0	26.178	0	129.761	0	205.5	4	68.0	4	-1E+10	1	-1E+10	1	-1E+10	1	-1E+10	1	-1E+10	1	-1E+10	1
4902551	97	C	04/21/2023	12:57	-131.265	47.983	0	131.70	0	6.2580	0	33.3490	0	26.217	0	130.553	0	204.5	4	67.7	4	-1E+10	1	-1E+10	1	-1E+10	1	-1E+10	1	-1E+10	1	-1E+10	1
4902551	97	C	04/21/2023	12:57	-131.265	47.983	0	132.90	0	6.2460	0	33.3560	0	26.224	0	131.743	0	203.2	4	67.3	4	-1E+10	1	-1E+10	1	-1E+10	1	-1E+10	1	-1E+10	1	-1E+10	1
4902551	97	C	04/21/2023	12:57	-131.265	47.983	0	134.00	0	6.2340	0	33.3640	0	26.232	0	132.833	0	202.0	4	66.8	4	-1E+10	1	-1E+10	1	-1E+10	1	-1E+10	1	-1E+10	1	-1E+10	1
4902551	97	C	04/21/2023	12:57	-131.265	47.983	0	134.80	0	6.2280	0	33.3680	0	26.236	0	133.625	0	201.2	4	66.5	4	-1E+10	1	-1E+10	1	-1E+10	1	-1E+10	1	-1E+10	1	-1E+10	1
4902551	97	C	04/21/2023	12:57	-131.265	47.983	0	135.90	0	6.2210	0	33.3800	0	26.247	0	134.715	0	199.8	4	66.1	4	-1E+10	1	-1E+10	1	-1E+10	1	-1E+10	1	-1E+10	1	-1E+10	1
4902551	97	C	04/21/2023	12:57	-131.265	47.983	0	137.10	0	6.1960	0	33.4010	0	26.266	0	135.905	0	198.3	4	65.6	4	-1E+10	1	-1E+10	1	-1E+10	1	-1E+10	1	-1E+10	1	-1E+10	1
4902551	97	C	04/21/2023	12:57	-131.265	47.983	0	137.90	0	6.1560	0	33.4560	0	26.315	0	136.697	0	197.5	4	65.3	4	-1E+10	1	-1E+10	1	-1E+10	1	-1E+10	1	-1E+10	1	-1E+10	1
4902551	97	C	04/21/2023	12:57	-131.265	47.983	0	138.70	0	6.1450	0	33.4690	0	26.326	0	137.490	0	196.7	4	65.0	4	-1E+10	1	-1E+10	1	-1E+10	1	-1E+10	1	-1E+10	1	-1E+10	1
4902551	97	C	04/21/2023	12:57	-131.265	47.983	0	139.60	0	6.1450	0	33.4690	0	26.326	0	138.382	0	196.0	4	64.8	4	-1E+10	1	-1E+10	1	-1E+10	1	-1E+10	1	-1E+10	1	-1E+10	1
4902551	97	C	04/21/2023	12:57	-131.265	47.983	0	140.90	0	6.1440	0	33.4690	0	26.327	0	139.670	0	195.1	4	64.4	4	-1E+10	1	-1E+10	1	-1E+10	1	-1E+10	1	-1E+10	1	-1E+10	1
4902551	97	C	04/21/2023	12:57	-131.265	47.983	0	142.20	0	6.1450	0	33.4690	0	26.326	0	140.958	0	193.9	4	64.1	4	-1E+10	1	-1E+10	1	-1E+10	1	-1E+10	1	-1E+10	1	-1E+10	1
4902551	97	C	04/21/2023	12:57	-131.265	47.983	0	143.00	0	6.1440	0	33.4690	0	26.327	0	141.751	0	193.0	4	63.8	4	-1E+10	1	-1E+10	1	-1E+10	1	-1E+10	1	-1E+10	1	-1E+10	1
4902551	97	C	04/21/2023	12:57	-131.265	47.983	0	143.80	0	6.1430	0	33.4700	0	26.328	0	142.544	0	191.9	4	63.4	4	-1E+10	1	-1E+10	1	-1E+10	1	-1E+10	1	-1E+10	1	-1E+10	1
4902551	97	C	04/21/2023	12:57	-131.265	47.983	0	145.00	0	6.1330	0	33.4780	0	26.335	0	143.733	0	189.9	4	62.7	4	-1E+10	1	-1E+10	1	-1E+10	1	-1E+10	1	-1E+10	1	-1E+10	1
4902551	97	C	04/21/2023	12:57	-131.265	47.983	0	146.30	0	6.1010	0	33.5080	0	26.363	0	145.021	0	188.2	4	62.1	4	-1E+10	1	-1E+10	1	-1E+10	1	-1E+10	1	-1E+10	1	-1E+10	1
4902551	97	C	04/21/2023	12:57	-131.265	47.983	0	147.30	0	6.0790	0	33.5330	0	26.385	0	146.012	0	187.4	4	61.8	4	-1E+10	1	-1E+10	1	-1E+10	1	-1E+10	1	-1E+10	1	-1E+10	1
4902551	97	C	04/21/2023	12:57	-131.265	47.983	0	148.30	0	6.0670	0	33.5510	0	26.401	0	147.003	0	186.7	4	61.6	4	-1E+10	1	-1E+10	1	-1E+10	1	-1E+10	1	-1E+10	1	-1E+10	1
4902551	97	C	04/21/2023	12:57	-131.265	47.983	0	149.30	0	6.0640	0	33.5530	0	26.403	0	147.994	0	186.0	4	61.4	4	-1E+10	1	-1E+10	1	-1E+10	1	-1E+10	1	-1E+10	1	-1E+10	1
4902551	97	C	04/21/2023	12:57	-131.265	47.983	0	150.30	0	6.0630	0	33.5540	0	26.404	0	148.985	0	185.3	4	61.1	4	-1E+10	1	-1E+10	1	-1E+10	1	-1E+10	1	-1E+10	1	-1E+10	1
4902551	97	C	04/21/2023	12:57	-131.265	47.983	0	151.30	0	6.0620	0	33.5550	0	26.405	0	149.976	0	184.4	4	60.9	4	-1E+10	1	-1E+10	1	-1E+10	1	-1E+10	1	-1E+10	1	-1E+10	1
4902551	97	C	04/21/2023	12:57	-131.265	47.983	0	152.30	0	6.0610	0	33.5560	0	26.406	0	150.967	0	183.5	4	60.6	4	-1E+10	1	-1E+10	1	-1E+10	1	-1E+10	1	-1E+10	1	-1E+10	1
4902551	97	C	04/21/2023	12:57	-131.265	47.983	0	153.30	0	6.0630	0	33.5760	0	26.421	0	151.957	0	182.5	4	60.2	4	-1E+10	1	-1E+10	1	-1E+10	1	-1E+10	1	-1E+10	1	-1E+10	1
4902551	97	C	04/21/2023	12:57	-131.265	47.983	0	154.30	0	6.0410	0	33.5720	0	26.421	0	152.948	0	181.7	4	59.9	4	-1E+10	1	-1E+10	1	-1E+10	1	-1E+10	1	-1E+10	1	-1E+10	1
4902551	97	C	04/21/2023	12:57	-131.265	47.983	0	155.40	0	6.0240	0	33.5780	0	26.428	0	154.038	0	180.9	4	59.7	4	-1E+10	1	-1E+10	1	-1E+10	1	-1E+10	1	-1E+10	1	-1E+10	1
4902551	97	C	04/21/2023	12:57	-131.265	47.983	0	156.30	0	6.0180	0	33.5790	0	26.429	0	154.930	0	180.1	4	59.4	4	-1E+10	1	-1E+10	1	-1E+10	1	-1E+10	1	-1E+10	1	-1E+10	1
4902551	97	C	04/21/2023	12:57	-131.265	47.983	0	157.90	0	5.9920	0	33.5910	0	26.442	0	156.515	0	178.7	4	58.9	4	-1E+10	1	-1E+10	1	-1E+10	1	-1E+10	1	-1E+10	1	-1E+10	1
4902551	97	C	04/21/2023	12:57	-131.265	47.983	0	159.10	0	5.9910	0	33.5940	0	26.445	0	157.704	0	177.7	4	58.5	4	-1E+10	1	-1E+10	1	-1E+10	1	-1E+10	1	-1E+10	1	-1E+10	1
4902551	97	C	04/21/2023	12:57	-131.265	47.983	0	159.90	0	5.9900	0	33.5950	0	26.446	0	158.497	0	176.8	4	58.3	4	-1E+10	1	-1E+10	1	-1E+10	1	-1E+10	1	-1E+10	1	-1E+10	1
4902551	97	C	04/21/2023	12:57	-131.265	47.983	0	160.80	0	5.9960	0	33.5960	0	26.446	0	159.389	0	175.9	4	58.0	4	-1E+10	1	-1E+10	1	-1E+10	1	-1E+10	1	-1E+10	1	-1E+10	1
4902551	97	C	04/21/2023	12:57	-131.265	47.983	0	162.00	0	5.9970	0	33.5960	0	26.445	0	160.578	0	174.3	4	57.4	4	-1E+10	1	-1E+10	1	-1E+10	1	-1E+10	1	-1E+10	1	-1E+10	1
4902551	97	C	04/21/2023	12:57	-131.265	47.983	0	163.20	0	5.9950	0	33.5990	0	26.448	0	161.767	0	172.5	4	56.9	4	-1E+10	1	-1E+10	1	-1E+10	1	-1E+10	1	-1E+10	1	-1E+10	1
4902551	97	C	04/21/2023	12:57	-131.265	47.983	0	164.10	0	5.9810	0	33.6120	0	26.460	0	162.659	0	171.3	4	56.4	4	-1E+10	1	-1E+10	1	-1E+10	1	-1E+10	1	-1E+10	1	-1E+10	1
4902551	97	C	04/21/2023	12:57	-131.265	47.983	0	164.90	0	5.9610	0	33.6270	0	26.474	0	163.451	0	170.2	4	56.1	4	-1E+10	1	-1E+10	1	-1E+10	1	-1E+10	1	-1E+10	1	-1E+10	1
4902551	97	C	04/21/2023	12:57	-131.265	47.983	0	165.70	0	5.9460	0	33.6350	0	26.483	0	164.244	0	169.1	4	55.7	4	-1E+10	1	-1E+10	1	-1E+10	1	-1E+10	1	-1E+10	1	-1E+10	1
4902551	97	C	04/21/2023	12:57	-131.265	47.983	0	166.90	0	5.9110	0	33.6480	0	26.497	0	165.433	0	167.6	4	55.1	4	-1E+10	1	-1E+10	1	-1E+10	1	-1E+10	1	-1E+10	1	-1E+10	1
4902551	97	C	04/21/2023	12:57	-131.265	47.983	0	168.20	0	5.8790	0	33.6550	0	26.507	0	166.721	0	166.3	4	54.7	4	-1E+10	1	-1E+10	1	-1E+10	1	-1E+10	1	-1E+10	1	-1E+10	1
4902551	97	C	04/21/2023	12:57	-131.265	47.983	0	169.10	0	5.8720	0	33.6570	0	26.509	0	167.613	0	165.4	4	54.4	4	-1E+10	1	-1E+10	1	-1E+10	1	-1E+10	1	-1E+10	1	-1E+10	1
4902551	97	C	04/21/2023	12:57	-131.265	47.983	0	170.00	0	5.8610	0	33.6620	0	26.515	0	168.504	0	164.5	4	54.1	4	-1E+10	1	-1E+10	1	-1E+10	1	-1E+10	1	-1E+10	1	-1E+10	1
4902551	97	C	04/21/2023	12:57	-131.265	47.983	0	170.80	0	5.8470	0	33.6630	0	26.517	0	169.297	0	163.6	4	53.7	4	-1E+10	1	-1E+10	1	-1E+10	1	-1E+10	1	-1E+10	1	-1E+10	1
4902551	97	C	04/21/2023	12:57	-131.265	47.983	0	171.70	0	5.8270	0	33.6690	0	26.524	0	170.189	0	162.8	4	53.5	4	-1E+10	1	-1E+10	1	-1E+10	1	-1E+10	1	-1E+10	1	-1E+10	1
4902551	97	C	04/21/2023	12:57	-131.265	47.983	0	172.60	0	5.8170	0	33.6720	0	26.528	0	171.080	0	162.0	4	53.2	4	-1E+10	1	-1E+10	1	-1E+10	1	-1E+10	1	-1E+10	1	-1E+10	1
4902551	97	C	04/21/2023	12:57	-131.265	47.983	0	173.90	0	5.8070	0	33.6710	0	26.528	0	172.368	0	160.7	4	52.8	4	-1E+10	1	-1E+10	1	-1E+10	1	-1E+10	1	-1E+10	1	-1E+10	1
4902551	97	C	04/21/2023	12:57	-131.265	47.983	0	175.20	0	5.7760	0	33.6750	0	26.535	0	173.656	0	159.5	4	52.3	4	-1E+10	1	-1E+10	1	-1E+10	1	-1E+10	1	-1E+10	1	-1E+10	1
4902551	97	C	04/21/2023	12:57	-131.265	47.983	0	176.10	0	5.7710	0	33.6750	0	26.536	0	174.548	0	158.8	4	52.1	4	-1E+10	1	-1E+10	1	-1E+10	1	-1E+10	1	-1E+10	1	-1E+10	1
4902551	97	C	04/21/2023	12:57	-131.265	47.983	0	177.00	0	5.7650	0	33.6760	0	26.537	0	175.440	0	157.9	4	51.8	4	-1E+10	1	-1E+10	1	-1E+10	1	-1E+10	1	-1E+10	1	-1E+10	1
4902551	97	C	04/21/2023	12:57	-131.265	47.983	0	177.80	0	5.7510	0	33.6780	0	26.541	0	176.232	0	157.0	4	51.5	4	-1E+10	1	-1E+10	1	-1E+10	1	-1E+10	1	-1E+10	1	-1E+10	1
4902551	97	C	04/21/2023	12:57	-131.265	47.983	0	178.70	0	5.7430	0	33.6800	0	26.543	0	177.124	0	156.0	4	51.2	4	-1E+10	1	-1E+10	1	-1E+10	1	-1E+10	1	-1E+10	1	-1E+10	1
4902551	97	C	04/21/2023	12:57	-131.265	47.983	0	179.90	0	5.7190	0	33.6850	0	26.550	0	178.313	0	154.6	4	50.7	4	-1E+10	1	-1E+10	1	-1E+10	1	-1E+10	1	-1E+10	1	-1E+10	1
4902551	97	C	04/21/2023	12:57	-131.265	47.983	0	181.30	0	5.6960	0	33.6940	0	26.560	0	179.700	0	153.1	4	50.2	4	-1E+10	1	-1E+10	1	-1E+10	1	-1E+10	1	-1E+10	1	-1E+10	1
4902551	97	C	04/21/2023	12:57	-131.265	47.983	0	182.20	0	5.6810	0	33.6960	0	26.563	0	180.592	0	152.3	4	49.9	4	-1E+10	1	-1E+10	1	-1E+10	1	-1E+10	1	-1E+10	1	-1E+10	1
4902551	97	C	04/21/2023	12:57	-131.265	47.983	0	183.00	0	5.6750	0	33.6970	0	26.565	0	181.384	0	151.4	4	49.6	4	-1E+10	1	-1E+10	1	-1E+10	1	-1E+10	1	-1E+10	1	-1E+10	1
4902551	97	C	04/21/2023	12:57	-131.265	47.983	0	183.80	0	5.6540	0	33.7050	0	26.574	0	182.177	0	150.6	4	49.3	4	-1E+10	1	-1E+10	1	-1E+10	1	-1E+10	1	-1E+10	1	-1E+10	1
4902551	97	C	04/21/2023	12:57	-131.265	47.983	0	184.70	0	5.6450	0	33.7050	0	26.575	0	183.068	0	149.9	4	49.0	4	-1E+10	1	-1E+10	1	-1E+10	1	-1E+10	1	-1E+10	1	-1E+10	1
4902551	97	C	04/21/2023	12:57	-131.265	47.983	0	185.90	0	5.6410	0	33.7040	0	26.575	0	184.257	0	148.5	4	48.6	4	-1E+10	1	-1E+10	1	-1E+10	1	-1E+10	1	-1E+10	1	-1E+10	1
4902551	97	C	04/21/2023	12:57	-131.265	47.983	0	187.20	0	5.6370	0	33.7060	0	26.577	0	185.545	0	147.0	4	48.1	4	-1E+10	1	-1E+10	1	-1E+10	1	-1E+10	1	-1E+10	1	-1E+10	1
4902551	97	C	04/21/2023	12:57	-131.265	47.983	0	188.00	0	5.6230	0	33.7090	0	26.581	0	186.338	0	146.0	4	47.7	4	-1E+10	1	-1E+10	1	-1E+10	1	-1E+10	1	-1E+10	1	-1E+10	1
4902551	97	C	04/21/2023	12:57	-131.265	47.983	0	188.90	0	5.6110	0	33.7120	0	26.585	0	187.229	0	145.2	4	47.5	4	-1E+10	1	-1E+10	1	-1E+10	1	-1E+10	1	-1E+10	1	-1E+10	1
4902551	97	C	04/21/2023	12:57	-131.265	47.983	0	189.70	0	5.6000	0	33.7140	0	26.588	0	188.022	0	144.1	4	47.1	4	-1E+10	1	-1E+10	1	-1E+10	1	-1E+10	1	-1E+10	1	-1E+10	1
4902551	97	C	04/21/2023	12:57	-131.265	47.983	0	190.60	0	5.5940	0	33.7150	0	26.589	0	188.914	0	143.1	4	46.8	4	-1E+10	1	-1E+10	1	-1E+10	1	-1E+10	1	-1E+10	1	-1E+10	1
4902551	97	C	04/21/2023	12:57	-131.265	47.983	0	191.90	0	5.5630	0	33.7210	0	26.598	0	190.202	0	141.6	4	46.3	4	-1E+10	1	-1E+10	1	-1E+10	1	-1E+10	1	-1E+10	1	-1E+10	1
4902551	97	C	04/21/2023	12:57	-131.265	47.983	0	193.20	0	5.5410	0	33.7230	0	26.602	0	191.489	0	140.3	4	45.8	4	-1E+10	1	-1E+10	1	-1E+10	1	-1E+10	1	-1E+10	1	-1E+10	1
4902551	97	C	04/21/2023	12:57	-131.265	47.983	0	194.10	0	5.5290	0	33.7270	0	26.606	0	192.381	0	139.3	4	45.4	4	-1E+10	1	-1E+10	1	-1E+10	1	-1E+10	1	-1E+10	1	-1E+10	1
4902551	97	C	04/21/2023	12:57	-131.265	47.983	0	195.00	0	5.4910	0	33.7360	0	26.618	0	193.273	0	138.5	4	45.2	4	-1E+10	1	-1E+10	1	-1E+10	1	-1E+10	1	-1E+10	1	-1E+10	1
4902551	97	C	04/21/2023	12:57	-131.265	47.983	0	195.90	0	5.4810	0	33.7340	0	26.618	0	194.164	0	137.9	4	44.9	4	-1E+10	1	-1E+10	1	-1E+10	1	-1E+10	1	-1E+10	1	-1E+10	1
4902551	97	C	04/21/2023	12:57	-131.265	47.983	0	196.70	0	5.4530	0	33.7390	0	26.625	0	194.957	0	137.4	4	44.8	4	-1E+10	1	-1E+10	1	-1E+10	1	-1E+10	1	-1E+10	1	-1E+10	1
4902551	97	C	04/21/2023	12:57	-131.265	47.983	0	197.70	0	5.4360	0	33.7400	0	26.628	0	195.947	0	136.9	4	44.6	4	-1E+10	1	-1E+10	1	-1E+10	1	-1E+10	1	-1E+10	1	-1E+10	1
4902551	97	C	04/21/2023	12:57	-131.265	47.983	0	198.60	0	5.4320	0	33.7410	0	26.629	0	196.839	0	136.5	4	44.4	4	-1E+10	1	-1E+10	1	-1E+10	1	-1E+10	1	-1E+10	1	-1E+10	1
4902551	97	C	04/21/2023	12:57	-131.265	47.983	0	199.90	0	5.4280	0	33.7410	0	26.630	0	198.127	0	135.7	4	44.2	4	-1E+10	1	-1E+10	1	-1E+10	1	-1E+10	1	-1E+10	1	-1E+10	1
4902551	97	C	04/21/2023	12:57	-131.265	47.983	0	201.30	0	5.4210	0	33.7430	0	26.632	0	199.514	0	134.8	4	43.9	4	-1E+10	1	-1E+10	1	-1E+10	1	-1E+10	1	-1E+10	1	-1E+10	1
4902551	97	C	04/21/2023	12:57	-131.265	47.983	0	202.20	0	5.4060	0	33.7450	0	26.635	0	200.405	0	134.3	4	43.7	4	-1E+10	1	-1E+10	1	-1E+10	1	-1E+10	1	-1E+10	1	-1E+10	1
4902551	97	C	04/21/2023	12:57	-131.265	47.983	0	203.10	0	5.4020	0	33.7440	0	26.635	0	201.297	0	133.8	4	43.5	4	-1E+10	1	-1E+10	1	-1E+10	1	-1E+10	1	-1E+10	1	-1E+10	1
4902551	97	C	04/21/2023	12:57	-131.265	47.983	0	204.00	0	5.4000	0	33.7440	0	26.635	0	202.189	0	133.1	4	43.3	4	-1E+10	1	-1E+10	1	-1E+10	1	-1E+10	1	-1E+10	1	-1E+10	1
4902551	97	C	04/21/2023	12:57	-131.265	47.983	0	204.90	0	5.3930	0	33.7460	0	26.638	0	203.080	0	132.5	4	43.1	4	-1E+10	1	-1E+10	1	-1E+10	1	-1E+10	1	-1E+10	1	-1E+10	1
4902551	97	C	04/21/2023	12:57	-131.265	47.983	0	205.80	0	5.3960	0	33.7490	0	26.640	0	203.972	0	131.9	4	42.9	4	-1E+10	1	-1E+10	1	-1E+10	1	-1E+10	1	-1E+10	1	-1E+10	1
4902551	97	C	04/21/2023	12:57	-131.265	47.983	0	206.80	0	5.3950	0	33.7490	0	26.640	0	204.962	0	131.3	4	42.7	4	-1E+10	1	-1E+10	1	-1E+10	1	-1E+10	1	-1E+10	1	-1E+10	1
4902551	97	C	04/21/2023	12:57	-131.265	47.983	0	207.70	0	5.3940	0	33.7500	0	26.641	0	205.854	0	130.6	4	42.5	4	-1E+10	1	-1E+10	1	-1E+10	1	-1E+10	1	-1E+10	1	-1E+10	1
4902551	97	C	04/21/2023	12:57	-131.265	47.983	0	208.60	0	5.4180	0	33.7510	0	26.639	0	206.745	0	130.0	4	42.3	4	-1E+10	1	-1E+10	1	-1E+10	1	-1E+10	1	-1E+10	1	-1E+10	1
4902551	97	C	04/21/2023	12:57	-131.265	47.983	0	209.50	0	5.4180	0	33.7590	0	26.645	0	207.637	0	129.6	4	42.2	4	-1E+10	1	-1E+10	1	-1E+10	1	-1E+10	1	-1E+10	1	-1E+10	1
4902551	97	C	04/21/2023	12:57	-131.265	47.983	0	210.90	0	5.4190	0	33.7620	0	26.647	0	209.024	0	128.9	4	42.0	4	-1E+10	1	-1E+10	1	-1E+10	1	-1E+10	1	-1E+10	1	-1E+10	1
4902551	97	C	04/21/2023	12:57	-131.265	47.983	0	212.40	0	5.4070	0	33.7630	0	26.650	0	210.510	0	128.4	4	41.8	4	-1E+10	1	-1E+10	1	-1E+10	1	-1E+10	1	-1E+10	1	-1E+10	1
4902551	97	C	04/21/2023	12:57	-131.265	47.983	0	213.30	0	5.4010	0	33.7640	0	26.651	0	211.401	0	128.1	4	41.7	4	-1E+10	1	-1E+10	1	-1E+10	1	-1E+10	1	-1E+10	1	-1E+10	1
4902551	97	C	04/21/2023	12:57	-131.265	47.983	0	214.30	0	5.3970	0	33.7640	0	26.652	0	212.392	0	127.8	4	41.6	4	-1E+10	1	-1E+10	1	-1E+10	1	-1E+10	1	-1E+10	1	-1E+10	1
4902551	97	C	04/21/2023	12:57	-131.265	47.983	0	215.20	0	5.3800	0	33.7710	0	26.659	0	213.283	0	127.3	4	41.4	4	-1E+10	1	-1E+10	1	-1E+10	1	-1E+10	1	-1E+10	1	-1E+10	1
4902551	97	C	04/21/2023	12:57	-131.265	47.983	0	216.20	0	5.3750	0	33.7640	0	26.654	0	214.274	0	126.9	4	41.3	4	-1E+10	1	-1E+10	1	-1E+10	1	-1E+10	1	-1E+10	1	-1E+10	1
4902551	97	C	04/21/2023	12:57	-131.265	47.983	0	217.10	0	5.3730	0	33.7640	0	26.654	0	215.165	0	126.5	4	41.1	4	-1E+10	1	-1E+10	1	-1E+10	1	-1E+10	1	-1E+10	1	-1E+10	1
4902551	97	C	04/21/2023	12:57	-131.265	47.983	0	218.10	0	5.3580	0	33.7670	0	26.659	0	216.156	0	126.1	4	41.0	4	-1E+10	1	-1E+10	1	-1E+10	1	-1E+10	1	-1E+10	1	-1E+10	1
4902551	97	C	04/21/2023	12:57	-131.265	47.983	0	219.00	0	5.3570	0	33.7640	0	26.656	0	217.047	0	125.7	4	40.9	4	-1E+10	1	-1E+10	1	-1E+10	1	-1E+10	1	-1E+10	1	-1E+10	1
4902551	97	C	04/21/2023	12:57	-131.265	47.983	0	220.00	0	5.3570	0	33.7630	0	26.655	0	218.038	0	125.3	4	40.7	4	-1E+10	1	-1E+10	1	-1E+10	1	-1E+10	1	-1E+10	1	-1E+10	1
4902551	97	C	04/21/2023	12:57	-131.265	47.983	0	221.00	0	5.3540	0	33.7640	0	26.657	0	219.029	0	124.7	4	40.6	4	-1E+10	1	-1E+10	1	-1E+10	1	-1E+10	1	-1E+10	1	-1E+10	1
4902551	97	C	04/21/2023	12:57	-131.265	47.983	0	221.90	0	5.3540	0	33.7640	0	26.657	0	219.920	0	124.1	4	40.3	4	-1E+10	1	-1E+10	1	-1E+10	1	-1E+10	1	-1E+10	1	-1E+10	1
4902551	97	C	04/21/2023	12:57	-131.265	47.983	0	222.90	0	5.3370	0	33.7640	0	26.659	0	220.911	0	123.4	4	40.1	4	-1E+10	1	-1E+10	1	-1E+10	1	-1E+10	1	-1E+10	1	-1E+10	1
4902551	97	C	04/21/2023	12:57	-131.265	47.983	0	223.80	0	5.3300	0	33.7640	0	26.659	0	221.802	0	122.9	4	39.9	4	-1E+10	1	-1E+10	1	-1E+10	1	-1E+10	1	-1E+10	1	-1E+10	1
4902551	97	C	04/21/2023	12:57	-131.265	47.983	0	224.80	0	5.3120	0	33.7650	0	26.662	0	222.793	0	122.2	4	39.7	4	-1E+10	1	-1E+10	1	-1E+10	1	-1E+10	1	-1E+10	1	-1E+10	1
4902551	97	C	04/21/2023	12:57	-131.265	47.983	0	225.80	0	5.2920	0	33.7670	0	26.666	0	223.783	0	121.6	4	39.5	4	-1E+10	1	-1E+10	1	-1E+10	1	-1E+10	1	-1E+10	1	-1E+10	1
4902551	97	C	04/21/2023	12:57	-131.265	47.983	0	226.70	0	5.2830	0	33.7660	0	26.667	0	224.675	0	121.0	4	39.3	4	-1E+10	1	-1E+10	1	-1E+10	1	-1E+10	1	-1E+10	1	-1E+10	1
4902551	97	C	04/21/2023	12:57	-131.265	47.983	0	227.70	0	5.2730	0	33.7660	0	26.668	0	225.665	0	120.4	4	39.1	4	-1E+10	1	-1E+10	1	-1E+10	1	-1E+10	1	-1E+10	1	-1E+10	1
4902551	97	C	04/21/2023	12:57	-131.265	47.983	0	228.60	0	5.2650	0	33.7690	0	26.671	0	226.557	0	119.8	4	38.8	4	-1E+10	1	-1E+10	1	-1E+10	1	-1E+10	1	-1E+10	1	-1E+10	1
4902551	97	C	04/21/2023	12:57	-131.265	47.983	0	229.60	0	5.2520	0	33.7660	0	26.670	0	227.547	0	119.2	4	38.6	4	-1E+10	1	-1E+10	1	-1E+10	1	-1E+10	1	-1E+10	1	-1E+10	1
4902551	97	C	04/21/2023	12:57	-131.265	47.983	0	230.60	0	5.2200	0	33.7710	0	26.678	0	228.538	0	118.7	4	38.5	4	-1E+10	1	-1E+10	1	-1E+10	1	-1E+10	1	-1E+10	1	-1E+10	1
4902551	97	C	04/21/2023	12:57	-131.265	47.983	0	231.60	0	5.2070	0	33.7700	0	26.679	0	229.528	0	118.3	4	38.3	4	-1E+10	1	-1E+10	1	-1E+10	1	-1E+10	1	-1E+10	1	-1E+10	1
4902551	97	C	04/21/2023	12:57	-131.265	47.983	0	232.60	0	5.1990	0	33.7690	0	26.679	0	230.519	0	117.8	4	38.2	4	-1E+10	1	-1E+10	1	-1E+10	1	-1E+10	1	-1E+10	1	-1E+10	1
4902551	97	C	04/21/2023	12:57	-131.265	47.983	0	233.60	0	5.1900	0	33.7700	0	26.681	0	231.509	0	117.3	4	38.0	4	-1E+10	1	-1E+10	1	-1E+10	1	-1E+10	1	-1E+10	1	-1E+10	1
4902551	97	C	04/21/2023	12:57	-131.265	47.983	0	234.60	0	5.1850	0	33.7710	0	26.682	0	232.500	0	116.8	4	37.8	4	-1E+10	1	-1E+10	1	-1E+10	1	-1E+10	1	-1E+10	1	-1E+10	1
4902551	97	C	04/21/2023	12:57	-131.265	47.983	0	235.60	0	5.1800	0	33.7710	0	26.683	0	233.490	0	116.2	4	37.6	4	-1E+10	1	-1E+10	1	-1E+10	1	-1E+10	1	-1E+10	1	-1E+10	1
4902551	97	C	04/21/2023	12:57	-131.265	47.983	0	236.60	0	5.1750	0	33.7710	0	26.683	0	234.481	0	115.6	4	37.4	4	-1E+10	1	-1E+10	1	-1E+10	1	-1E+10	1	-1E+10	1	-1E+10	1
4902551	97	C	04/21/2023	12:57	-131.265	47.983	0	237.60	0	5.1720	0	33.7740	0	26.686	0	235.471	0	115.1	4	37.2	4	-1E+10	1	-1E+10	1	-1E+10	1	-1E+10	1	-1E+10	1	-1E+10	1
4902551	97	C	04/21/2023	12:57	-131.265	47.983	0	238.60	0	5.1710	0	33.7720	0	26.684	0	236.462	0	114.5	4	37.1	4	-1E+10	1	-1E+10	1	-1E+10	1	-1E+10	1	-1E+10	1	-1E+10	1
4902551	97	C	04/21/2023	12:57	-131.265	47.983	0	239.60	0	5.1780	0	33.7790	0	26.689	0	237.452	0	114.0	4	36.9	4	-1E+10	1	-1E+10	1	-1E+10	1	-1E+10	1	-1E+10	1	-1E+10	1
4902551	97	C	04/21/2023	12:57	-131.265	47.983	0	240.50	0	5.1630	0	33.7770	0	26.689	0	238.343	0	113.5	4	36.7	4	-1E+10	1	-1E+10	1	-1E+10	1	-1E+10	1	-1E+10	1	-1E+10	1
4902551	97	C	04/21/2023	12:57	-131.265	47.983	0	241.50	0	5.1460	0	33.7830	0	26.696	0	239.334	0	113.0	4	36.6	4	-1E+10	1	-1E+10	1	-1E+10	1	-1E+10	1	-1E+10	1	-1E+10	1
4902551	97	C	04/21/2023	12:57	-131.265	47.983	0	242.50	0	5.1190	0	33.7760	0	26.694	0	240.324	0	112.6	4	36.4	4	-1E+10	1	-1E+10	1	-1E+10	1	-1E+10	1	-1E+10	1	-1E+10	1
4902551	97	C	04/21/2023	12:57	-131.265	47.983	0	243.50	0	5.1140	0	33.7760	0	26.694	0	241.315	0	112.0	4	36.2	4	-1E+10	1	-1E+10	1	-1E+10	1	-1E+10	1	-1E+10	1	-1E+10	1
4902551	97	C	04/21/2023	12:57	-131.265	47.983	0	244.50	0	5.1070	0	33.7760	0	26.695	0	242.305	0	111.4	4	36.0	4	-1E+10	1	-1E+10	1	-1E+10	1	-1E+10	1	-1E+10	1	-1E+10	1
4902551	97	C	04/21/2023	12:57	-131.265	47.983	0	245.50	0	5.1020	0	33.7760	0	26.696	0	243.296	0	110.8	4	35.8	4	-1E+10	1	-1E+10	1	-1E+10	1	-1E+10	1	-1E+10	1	-1E+10	1
4902551	97	C	04/21/2023	12:57	-131.265	47.983	0	246.60	0	5.0860	0	33.7820	0	26.702	0	244.385	0	110.3	4	35.6	4	-1E+10	1	-1E+10	1	-1E+10	1	-1E+10	1	-1E+10	1	-1E+10	1
4902551	97	C	04/21/2023	12:57	-131.265	47.983	0	247.60	0	5.0730	0	33.7800	0	26.702	0	245.376	0	109.8	4	35.5	4	-1E+10	1	-1E+10	1	-1E+10	1	-1E+10	1	-1E+10	1	-1E+10	1
4902551	97	C	04/21/2023	12:57	-131.265	47.983	0	248.60	0	5.0650	0	33.7810	0	26.704	0	246.366	0	109.3	4	35.3	4	-1E+10	1	-1E+10	1	-1E+10	1	-1E+10	1	-1E+10	1	-1E+10	1
4902551	97	C	04/21/2023	12:57	-131.265	47.983	0	249.60	0	5.0610	0	33.7820	0	26.705	0	247.356	0	108.8	4	35.1	4	-1E+10	1	-1E+10	1	-1E+10	1	-1E+10	1	-1E+10	1	-1E+10	1
4902551	97	C	04/21/2023	12:57	-131.265	47.983	0	250.70	0	5.0590	0	33.7830	0	26.706	0	248.446	0	108.4	4	35.0	4	-1E+10	1	-1E+10	1	-1E+10	1	-1E+10	1	-1E+10	1	-1E+10	1
4902551	97	C	04/21/2023	12:57	-131.265	47.983	0	251.70	0	5.0550	0	33.7840	0	26.707	0	249.436	0	107.9	4	34.8	4	-1E+10	1	-1E+10	1	-1E+10	1	-1E+10	1	-1E+10	1	-1E+10	1
4902551	97	C	04/21/2023	12:57	-131.265	47.983	0	252.70	0	5.0470	0	33.7850	0	26.709	0	250.427	0	107.4	4	34.7	4	-1E+10	1	-1E+10	1	-1E+10	1	-1E+10	1	-1E+10	1	-1E+10	1
4902551	97	C	04/21/2023	12:57	-131.265	47.983	0	253.80	0	5.0290	0	33.7870	0	26.713	0	251.516	0	107.1	4	34.6	4	-1E+10	1	-1E+10	1	-1E+10	1	-1E+10	1	-1E+10	1	-1E+10	1
4902551	97	C	04/21/2023	12:57	-131.265	47.983	0	254.80	0	5.0260	0	33.7880	0	26.714	0	252.506	0	106.8	4	34.4	4	-1E+10	1	-1E+10	1	-1E+10	1	-1E+10	1	-1E+10	1	-1E+10	1
4902551	97	C	04/21/2023	12:57	-131.265	47.983	0	255.90	0	5.0240	0	33.7880	0	26.714	0	253.596	0	106.4	4	34.3	4	-1E+10	1	-1E+10	1	-1E+10	1	-1E+10	1	-1E+10	1	-1E+10	1
4902551	97	C	04/21/2023	12:57	-131.265	47.983	0	256.90	0	5.0230	0	33.7880	0	26.714	0	254.586	0	105.9	4	34.2	4	-1E+10	1	-1E+10	1	-1E+10	1	-1E+10	1	-1E+10	1	-1E+10	1
4902551	97	C	04/21/2023	12:57	-131.265	47.983	0	257.90	0	5.0200	0	33.7880	0	26.714	0	255.577	0	105.5	4	34.0	4	-1E+10	1	-1E+10	1	-1E+10	1	-1E+10	1	-1E+10	1	-1E+10	1
4902551	97	C	04/21/2023	12:57	-131.265	47.983	0	259.00	0	5.0190	0	33.7890	0	26.715	0	256.666	0	105.0	4	33.9	4	-1E+10	1	-1E+10	1	-1E+10	1	-1E+10	1	-1E+10	1	-1E+10	1
4902551	97	C	04/21/2023	12:57	-131.265	47.983	0	260.00	0	5.0170	0	33.7890	0	26.716	0	257.656	0	104.4	4	33.7	4	-1E+10	1	-1E+10	1	-1E+10	1	-1E+10	1	-1E+10	1	-1E+10	1
4902551	97	C	04/21/2023	12:57	-131.265	47.983	0	261.10	0	5.0120	0	33.7900	0	26.717	0	258.746	0	103.9	4	33.5	4	-1E+10	1	-1E+10	1	-1E+10	1	-1E+10	1	-1E+10	1	-1E+10	1
4902551	97	C	04/21/2023	12:57	-131.265	47.983	0	262.10	0	5.0100	0	33.7900	0	26.717	0	259.736	0	103.3	4	33.3	4	-1E+10	1	-1E+10	1	-1E+10	1	-1E+10	1	-1E+10	1	-1E+10	1
4902551	97	C	04/21/2023	12:57	-131.265	47.983	0	263.20	0	4.9990	0	33.7910	0	26.719	0	260.826	0	102.6	4	33.1	4	-1E+10	1	-1E+10	1	-1E+10	1	-1E+10	1	-1E+10	1	-1E+10	1
4902551	97	C	04/21/2023	12:57	-131.265	47.983	0	264.20	0	4.9980	0	33.7910	0	26.719	0	261.816	0	101.9	4	32.9	4	-1E+10	1	-1E+10	1	-1E+10	1	-1E+10	1	-1E+10	1	-1E+10	1
4902551	97	C	04/21/2023	12:57	-131.265	47.983	0	265.30	0	4.9810	0	33.7960	0	26.725	0	262.905	0	101.3	4	32.6	4	-1E+10	1	-1E+10	1	-1E+10	1	-1E+10	1	-1E+10	1	-1E+10	1
4902551	97	C	04/21/2023	12:57	-131.265	47.983	0	266.30	0	4.9660	0	33.7960	0	26.727	0	263.896	0	100.7	4	32.5	4	-1E+10	1	-1E+10	1	-1E+10	1	-1E+10	1	-1E+10	1	-1E+10	1
4902551	97	C	04/21/2023	12:57	-131.265	47.983	0	267.40	0	4.9580	0	33.7970	0	26.729	0	264.985	0	100.3	4	32.3	4	-1E+10	1	-1E+10	1	-1E+10	1	-1E+10	1	-1E+10	1	-1E+10	1
4902551	97	C	04/21/2023	12:57	-131.265	47.983	0	268.40	0	4.9440	0	33.8000	0	26.733	0	265.975	0	99.8	4	32.1	4	-1E+10	1	-1E+10	1	-1E+10	1	-1E+10	1	-1E+10	1	-1E+10	1
4902551	97	C	04/21/2023	12:57	-131.265	47.983	0	269.50	0	4.9420	0	33.7990	0	26.732	0	267.065	0	99.3	4	32.0	4	-1E+10	1	-1E+10	1	-1E+10	1	-1E+10	1	-1E+10	1	-1E+10	1
4902551	97	C	04/21/2023	12:57	-131.265	47.983	0	270.50	0	4.9350	0	33.8020	0	26.735	0	268.055	0	98.8	4	31.8	4	-1E+10	1	-1E+10	1	-1E+10	1	-1E+10	1	-1E+10	1	-1E+10	1
4902551	97	C	04/21/2023	12:57	-131.265	47.983	0	271.60	0	4.9300	0	33.8030	0	26.737	0	269.144	0	98.4	4	31.7	4	-1E+10	1	-1E+10	1	-1E+10	1	-1E+10	1	-1E+10	1	-1E+10	1
4902551	97	C	04/21/2023	12:57	-131.265	47.983	0	272.70	0	4.9270	0	33.8030	0	26.737	0	270.234	0	98.0	4	31.5	4	-1E+10	1	-1E+10	1	-1E+10	1	-1E+10	1	-1E+10	1	-1E+10	1
4902551	97	C	04/21/2023	12:57	-131.265	47.983	0	273.80	0	4.9260	0	33.8040	0	26.738	0	271.323	0	97.4	4	31.4	4	-1E+10	1	-1E+10	1	-1E+10	1	-1E+10	1	-1E+10	1	-1E+10	1
4902551	97	C	04/21/2023	12:57	-131.265	47.983	0	274.80	0	4.9160	0	33.8060	0	26.741	0	272.313	0	97.0	4	31.2	4	-1E+10	1	-1E+10	1	-1E+10	1	-1E+10	1	-1E+10	1	-1E+10	1
4902551	97	C	04/21/2023	12:57	-131.265	47.983	0	275.90	0	4.9150	0	33.8070	0	26.742	0	273.403	0	96.5	4	31.1	4	-1E+10	1	-1E+10	1	-1E+10	1	-1E+10	1	-1E+10	1	-1E+10	1
4902551	97	C	04/21/2023	12:57	-131.265	47.983	0	277.00	0	4.9150	0	33.8070	0	26.742	0	274.492	0	96.0	4	30.9	4	-1E+10	1	-1E+10	1	-1E+10	1	-1E+10	1	-1E+10	1	-1E+10	1
4902551	97	C	04/21/2023	12:57	-131.265	47.983	0	278.00	0	4.9140	0	33.8080	0	26.742	0	275.482	0	95.5	4	30.7	4	-1E+10	1	-1E+10	1	-1E+10	1	-1E+10	1	-1E+10	1	-1E+10	1
4902551	97	C	04/21/2023	12:57	-131.265	47.983	0	279.10	0	4.9130	0	33.8080	0	26.743	0	276.572	0	94.9	4	30.6	4	-1E+10	1	-1E+10	1	-1E+10	1	-1E+10	1	-1E+10	1	-1E+10	1
4902551	97	C	04/21/2023	12:57	-131.265	47.983	0	280.20	0	4.9050	0	33.8100	0	26.745	0	277.661	0	94.4	4	30.4	4	-1E+10	1	-1E+10	1	-1E+10	1	-1E+10	1	-1E+10	1	-1E+10	1
4902551	97	C	04/21/2023	12:57	-131.265	47.983	0	281.30	0	4.9000	0	33.8120	0	26.747	0	278.750	0	93.8	4	30.2	4	-1E+10	1	-1E+10	1	-1E+10	1	-1E+10	1	-1E+10	1	-1E+10	1
4902551	97	C	04/21/2023	12:57	-131.265	47.983	0	282.30	0	4.8970	0	33.8120	0	26.748	0	279.740	0	93.2	4	30.0	4	-1E+10	1	-1E+10	1	-1E+10	1	-1E+10	1	-1E+10	1	-1E+10	1
4902551	97	C	04/21/2023	12:57	-131.265	47.983	0	283.40	0	4.8940	0	33.8130	0	26.749	0	280.830	0	92.6	4	29.8	4	-1E+10	1	-1E+10	1	-1E+10	1	-1E+10	1	-1E+10	1	-1E+10	1
4902551	97	C	04/21/2023	12:57	-131.265	47.983	0	284.50	0	4.8870	0	33.8180	0	26.753	0	281.919	0	91.9	4	29.6	4	-1E+10	1	-1E+10	1	-1E+10	1	-1E+10	1	-1E+10	1	-1E+10	1
4902551	97	C	04/21/2023	12:57	-131.265	47.983	0	285.60	0	4.8820	0	33.8170	0	26.753	0	283.008	0	91.3	4	29.4	4	-1E+10	1	-1E+10	1	-1E+10	1	-1E+10	1	-1E+10	1	-1E+10	1
4902551	97	C	04/21/2023	12:57	-131.265	47.983	0	286.70	0	4.8680	0	33.8240	0	26.760	0	284.097	0	90.8	4	29.2	4	-1E+10	1	-1E+10	1	-1E+10	1	-1E+10	1	-1E+10	1	-1E+10	1
4902551	97	C	04/21/2023	12:57	-131.265	47.983	0	287.80	0	4.8600	0	33.8240	0	26.761	0	285.187	0	90.3	4	29.0	4	-1E+10	1	-1E+10	1	-1E+10	1	-1E+10	1	-1E+10	1	-1E+10	1
4902551	97	C	04/21/2023	12:57	-131.265	47.983	0	288.80	0	4.8590	0	33.8240	0	26.761	0	286.177	0	89.8	4	28.9	4	-1E+10	1	-1E+10	1	-1E+10	1	-1E+10	1	-1E+10	1	-1E+10	1
4902551	97	C	04/21/2023	12:57	-131.265	47.983	0	289.90	0	4.8580	0	33.8250	0	26.762	0	287.266	0	89.3	4	28.7	4	-1E+10	1	-1E+10	1	-1E+10	1	-1E+10	1	-1E+10	1	-1E+10	1
4902551	97	C	04/21/2023	12:57	-131.265	47.983	0	291.00	0	4.8580	0	33.8260	0	26.763	0	288.355	0	88.7	4	28.5	4	-1E+10	1	-1E+10	1	-1E+10	1	-1E+10	1	-1E+10	1	-1E+10	1
4902551	97	C	04/21/2023	12:57	-131.265	47.983	0	292.10	0	4.8570	0	33.8260	0	26.763	0	289.445	0	88.1	4	28.3	4	-1E+10	1	-1E+10	1	-1E+10	1	-1E+10	1	-1E+10	1	-1E+10	1
4902551	97	C	04/21/2023	12:57	-131.265	47.983	0	293.10	0	4.8510	0	33.8290	0	26.766	0	290.435	0	87.5	4	28.1	4	-1E+10	1	-1E+10	1	-1E+10	1	-1E+10	1	-1E+10	1	-1E+10	1
4902551	97	C	04/21/2023	12:57	-131.265	47.983	0	294.20	0	4.8330	0	33.8360	0	26.774	0	291.524	0	87.1	4	28.0	4	-1E+10	1	-1E+10	1	-1E+10	1	-1E+10	1	-1E+10	1	-1E+10	1
4902551	97	C	04/21/2023	12:57	-131.265	47.983	0	295.30	0	4.8320	0	33.8360	0	26.774	0	292.613	0	86.7	4	27.9	4	-1E+10	1	-1E+10	1	-1E+10	1	-1E+10	1	-1E+10	1	-1E+10	1
4902551	97	C	04/21/2023	12:57	-131.265	47.983	0	296.40	0	4.8310	0	33.8360	0	26.774	0	293.703	0	86.3	4	27.7	4	-1E+10	1	-1E+10	1	-1E+10	1	-1E+10	1	-1E+10	1	-1E+10	1
4902551	97	C	04/21/2023	12:57	-131.265	47.983	0	297.50	0	4.8300	0	33.8360	0	26.774	0	294.792	0	85.8	4	27.6	4	-1E+10	1	-1E+10	1	-1E+10	1	-1E+10	1	-1E+10	1	-1E+10	1
4902551	97	C	04/21/2023	12:57	-131.265	47.983	0	298.50	0	4.8290	0	33.8360	0	26.774	0	295.782	0	85.3	4	27.4	4	-1E+10	1	-1E+10	1	-1E+10	1	-1E+10	1	-1E+10	1	-1E+10	1
4902551	97	C	04/21/2023	12:57	-131.265	47.983	0	299.60	0	4.8270	0	33.8370	0	26.775	0	296.871	0	84.6	4	27.2	4	-1E+10	1	-1E+10	1	-1E+10	1	-1E+10	1	-1E+10	1	-1E+10	1
4902551	97	C	04/21/2023	12:57	-131.265	47.983	0	300.70	0	4.8250	0	33.8370	0	26.776	0	297.960	0	84.0	4	27.0	4	-1E+10	1	-1E+10	1	-1E+10	1	-1E+10	1	-1E+10	1	-1E+10	1
4902551	97	C	04/21/2023	12:57	-131.265	47.983	0	301.80	0	4.8230	0	33.8380	0	26.777	0	299.049	0	83.4	4	26.8	4	-1E+10	1	-1E+10	1	-1E+10	1	-1E+10	1	-1E+10	1	-1E+10	1
4902551	97	C	04/21/2023	12:57	-131.265	47.983	0	302.80	0	4.8150	0	33.8450	0	26.783	0	300.040	0	82.6	4	26.5	4	-1E+10	1	-1E+10	1	-1E+10	1	-1E+10	1	-1E+10	1	-1E+10	1
4902551	97	C	04/21/2023	12:57	-131.265	47.983	0	303.90	0	4.8110	0	33.8450	0	26.784	0	301.129	0	81.9	4	26.3	4	-1E+10	1	-1E+10	1	-1E+10	1	-1E+10	1	-1E+10	1	-1E+10	1
4902551	97	C	04/21/2023	12:57	-131.265	47.983	0	305.00	0	4.8130	0	33.8450	0	26.783	0	302.218	0	81.3	4	26.1	4	-1E+10	1	-1E+10	1	-1E+10	1	-1E+10	1	-1E+10	1	-1E+10	1
4902551	97	C	04/21/2023	12:57	-131.265	47.983	0	306.10	0	4.8020	0	33.8610	0	26.797	0	303.307	0	80.6	4	25.9	4	-1E+10	1	-1E+10	1	-1E+10	1	-1E+10	1	-1E+10	1	-1E+10	1
4902551	97	C	04/21/2023	12:57	-131.265	47.983	0	307.20	0	4.7830	0	33.8520	0	26.792	0	304.396	0	80.0	4	25.7	4	-1E+10	1	-1E+10	1	-1E+10	1	-1E+10	1	-1E+10	1	-1E+10	1
4902551	97	C	04/21/2023	12:57	-131.265	47.983	0	308.30	0	4.7730	0	33.8510	0	26.793	0	305.485	0	79.5	4	25.5	4	-1E+10	1	-1E+10	1	-1E+10	1	-1E+10	1	-1E+10	1	-1E+10	1
4902551	97	C	04/21/2023	12:57	-131.265	47.983	0	309.30	0	4.7860	0	33.8550	0	26.794	0	306.476	0	78.8	4	25.3	4	-1E+10	1	-1E+10	1	-1E+10	1	-1E+10	1	-1E+10	1	-1E+10	1
4902551	97	C	04/21/2023	12:57	-131.265	47.983	0	310.40	0	4.8080	0	33.8480	0	26.786	0	307.565	0	78.2	4	25.1	4	-1E+10	1	-1E+10	1	-1E+10	1	-1E+10	1	-1E+10	1	-1E+10	1
4902551	97	C	04/21/2023	12:57	-131.265	47.983	0	311.50	0	4.8190	0	33.8690	0	26.802	0	308.654	0	77.6	4	24.9	4	-1E+10	1	-1E+10	1	-1E+10	1	-1E+10	1	-1E+10	1	-1E+10	1
4902551	97	C	04/21/2023	12:57	-131.265	47.983	0	312.60	0	4.8130	0	33.8680	0	26.802	0	309.743	0	77.1	4	24.8	4	-1E+10	1	-1E+10	1	-1E+10	1	-1E+10	1	-1E+10	1	-1E+10	1
4902551	97	C	04/21/2023	12:57	-131.265	47.983	0	313.70	0	4.8150	0	33.8690	0	26.802	0	310.832	0	76.5	4	24.6	4	-1E+10	1	-1E+10	1	-1E+10	1	-1E+10	1	-1E+10	1	-1E+10	1
4902551	97	C	04/21/2023	12:57	-131.265	47.983	0	314.70	0	4.8280	0	33.8710	0	26.802	0	311.822	0	76.0	4	24.4	4	-1E+10	1	-1E+10	1	-1E+10	1	-1E+10	1	-1E+10	1	-1E+10	1
4902551	97	C	04/21/2023	12:57	-131.265	47.983	0	315.80	0	4.8650	0	33.8840	0	26.809	0	312.911	0	75.5	4	24.3	4	-1E+10	1	-1E+10	1	-1E+10	1	-1E+10	1	-1E+10	1	-1E+10	1
4902551	97	C	04/21/2023	12:57	-131.265	47.983	0	316.80	0	4.8600	0	33.8860	0	26.811	0	313.901	0	75.2	4	24.2	4	-1E+10	1	-1E+10	1	-1E+10	1	-1E+10	1	-1E+10	1	-1E+10	1
4902551	97	C	04/21/2023	12:57	-131.265	47.983	0	317.90	0	4.8550	0	33.8870	0	26.812	0	314.990	0	74.9	4	24.1	4	-1E+10	1	-1E+10	1	-1E+10	1	-1E+10	1	-1E+10	1	-1E+10	1
4902551	97	C	04/21/2023	12:57	-131.265	47.983	0	318.90	0	4.8510	0	33.8860	0	26.812	0	315.981	0	74.5	4	24.0	4	-1E+10	1	-1E+10	1	-1E+10	1	-1E+10	1	-1E+10	1	-1E+10	1
4902551	97	C	04/21/2023	12:57	-131.265	47.983	0	320.00	0	4.8390	0	33.8870	0	26.814	0	317.070	0	74.3	4	23.9	4	-1E+10	1	-1E+10	1	-1E+10	1	-1E+10	1	-1E+10	1	-1E+10	1
4902551	97	C	04/21/2023	12:57	-131.265	47.983	0	321.00	0	4.8270	0	33.8900	0	26.818	0	318.060	0	74.0	4	23.8	4	-1E+10	1	-1E+10	1	-1E+10	1	-1E+10	1	-1E+10	1	-1E+10	1
4902551	97	C	04/21/2023	12:57	-131.265	47.983	0	322.10	0	4.8220	0	33.8910	0	26.819	0	319.149	0	73.8	4	23.7	4	-1E+10	1	-1E+10	1	-1E+10	1	-1E+10	1	-1E+10	1	-1E+10	1
4902551	97	C	04/21/2023	12:57	-131.265	47.983	0	323.10	0	4.8140	0	33.8940	0	26.822	0	320.139	0	73.6	4	23.6	4	-1E+10	1	-1E+10	1	-1E+10	1	-1E+10	1	-1E+10	1	-1E+10	1
4902551	97	C	04/21/2023	12:57	-131.265	47.983	0	324.20	0	4.8120	0	33.8940	0	26.822	0	321.228	0	73.4	4	23.6	4	-1E+10	1	-1E+10	1	-1E+10	1	-1E+10	1	-1E+10	1	-1E+10	1
4902551	97	C	04/21/2023	12:57	-131.265	47.983	0	325.30	0	4.8120	0	33.8950	0	26.823	0	322.317	0	73.2	4	23.5	4	-1E+10	1	-1E+10	1	-1E+10	1	-1E+10	1	-1E+10	1	-1E+10	1
4902551	97	C	04/21/2023	12:57	-131.265	47.983	0	326.30	0	4.8120	0	33.8950	0	26.823	0	323.307	0	72.9	4	23.4	4	-1E+10	1	-1E+10	1	-1E+10	1	-1E+10	1	-1E+10	1	-1E+10	1
4902551	97	C	04/21/2023	12:57	-131.265	47.983	0	327.30	0	4.8130	0	33.8950	0	26.823	0	324.297	0	72.7	4	23.4	4	-1E+10	1	-1E+10	1	-1E+10	1	-1E+10	1	-1E+10	1	-1E+10	1
4902551	97	C	04/21/2023	12:57	-131.265	47.983	0	328.40	0	4.8140	0	33.8960	0	26.824	0	325.386	0	72.4	4	23.3	4	-1E+10	1	-1E+10	1	-1E+10	1	-1E+10	1	-1E+10	1	-1E+10	1
4902551	97	C	04/21/2023	12:57	-131.265	47.983	0	329.40	0	4.8120	0	33.8970	0	26.825	0	326.376	0	72.1	4	23.2	4	-1E+10	1	-1E+10	1	-1E+10	1	-1E+10	1	-1E+10	1	-1E+10	1
4902551	97	C	04/21/2023	12:57	-131.265	47.983	0	330.50	0	4.8110	0	33.8980	0	26.826	0	327.465	0	71.8	4	23.1	4	-1E+10	1	-1E+10	1	-1E+10	1	-1E+10	1	-1E+10	1	-1E+10	1
4902551	97	C	04/21/2023	12:57	-131.265	47.983	0	331.50	0	4.8110	0	33.8980	0	26.826	0	328.455	0	71.6	4	23.0	4	-1E+10	1	-1E+10	1	-1E+10	1	-1E+10	1	-1E+10	1	-1E+10	1
4902551	97	C	04/21/2023	12:57	-131.265	47.983	0	332.50	0	4.8100	0	33.8980	0	26.826	0	329.445	0	71.3	4	22.9	4	-1E+10	1	-1E+10	1	-1E+10	1	-1E+10	1	-1E+10	1	-1E+10	1
4902551	97	C	04/21/2023	12:57	-131.265	47.983	0	333.50	0	4.8120	0	33.9000	0	26.827	0	330.435	0	70.9	4	22.8	4	-1E+10	1	-1E+10	1	-1E+10	1	-1E+10	1	-1E+10	1	-1E+10	1
4902551	97	C	04/21/2023	12:57	-131.265	47.983	0	334.60	0	4.8160	0	33.9000	0	26.827	0	331.524	0	70.6	4	22.7	4	-1E+10	1	-1E+10	1	-1E+10	1	-1E+10	1	-1E+10	1	-1E+10	1
4902551	97	C	04/21/2023	12:57	-131.265	47.983	0	335.60	0	4.8180	0	33.9030	0	26.829	0	332.514	0	70.3	4	22.6	4	-1E+10	1	-1E+10	1	-1E+10	1	-1E+10	1	-1E+10	1	-1E+10	1
4902551	97	C	04/21/2023	12:57	-131.265	47.983	0	336.60	0	4.8220	0	33.9050	0	26.830	0	333.504	0	69.9	4	22.5	4	-1E+10	1	-1E+10	1	-1E+10	1	-1E+10	1	-1E+10	1	-1E+10	1
4902551	97	C	04/21/2023	12:57	-131.265	47.983	0	337.60	0	4.8230	0	33.9070	0	26.832	0	334.494	0	69.6	4	22.4	4	-1E+10	1	-1E+10	1	-1E+10	1	-1E+10	1	-1E+10	1	-1E+10	1
4902551	97	C	04/21/2023	12:57	-131.265	47.983	0	338.60	0	4.7940	0	33.9250	0	26.849	0	335.484	0	69.4	4	22.3	4	-1E+10	1	-1E+10	1	-1E+10	1	-1E+10	1	-1E+10	1	-1E+10	1
4902551	97	C	04/21/2023	12:57	-131.265	47.983	0	339.60	0	4.7420	0	33.9100	0	26.843	0	336.474	0	69.3	4	22.2	4	-1E+10	1	-1E+10	1	-1E+10	1	-1E+10	1	-1E+10	1	-1E+10	1
4902551	97	C	04/21/2023	12:57	-131.265	47.983	0	340.60	0	4.7250	0	33.9050	0	26.841	0	337.464	0	69.1	4	22.1	4	-1E+10	1	-1E+10	1	-1E+10	1	-1E+10	1	-1E+10	1	-1E+10	1
4902551	97	C	04/21/2023	12:57	-131.265	47.983	0	341.70	0	4.7200	0	33.9050	0	26.842	0	338.553	0	68.9	4	22.1	4	-1E+10	1	-1E+10	1	-1E+10	1	-1E+10	1	-1E+10	1	-1E+10	1
4902551	97	C	04/21/2023	12:57	-131.265	47.983	0	342.70	0	4.7140	0	33.9070	0	26.844	0	339.543	0	68.7	4	22.0	4	-1E+10	1	-1E+10	1	-1E+10	1	-1E+10	1	-1E+10	1	-1E+10	1
4902551	97	C	04/21/2023	12:57	-131.265	47.983	0	343.70	0	4.7040	0	33.9070	0	26.845	0	340.533	0	68.4	4	21.9	4	-1E+10	1	-1E+10	1	-1E+10	1	-1E+10	1	-1E+10	1	-1E+10	1
4902551	97	C	04/21/2023	12:57	-131.265	47.983	0	344.60	0	4.7010	0	33.9080	0	26.846	0	341.424	0	68.2	4	21.9	4	-1E+10	1	-1E+10	1	-1E+10	1	-1E+10	1	-1E+10	1	-1E+10	1
4902551	97	C	04/21/2023	12:57	-131.265	47.983	0	345.80	0	4.7000	0	33.9080	0	26.846	0	342.612	0	68.0	4	21.8	4	-1E+10	1	-1E+10	1	-1E+10	1	-1E+10	1	-1E+10	1	-1E+10	1
4902551	97	C	04/21/2023	12:57	-131.265	47.983	0	346.90	0	4.6960	0	33.9080	0	26.847	0	343.701	0	67.7	4	21.7	4	-1E+10	1	-1E+10	1	-1E+10	1	-1E+10	1	-1E+10	1	-1E+10	1
4902551	97	C	04/21/2023	12:57	-131.265	47.983	0	348.10	0	4.6930	0	33.9090	0	26.848	0	344.889	0	67.4	4	21.6	4	-1E+10	1	-1E+10	1	-1E+10	1	-1E+10	1	-1E+10	1	-1E+10	1
4902551	97	C	04/21/2023	12:57	-131.265	47.983	0	348.90	0	4.6920	0	33.9090	0	26.848	0	345.681	0	67.1	4	21.5	4	-1E+10	1	-1E+10	1	-1E+10	1	-1E+10	1	-1E+10	1	-1E+10	1
4902551	97	C	04/21/2023	12:57	-131.265	47.983	0	350.00	0	4.6900	0	33.9090	0	26.848	0	346.770	0	66.8	4	21.4	4	-1E+10	1	-1E+10	1	-1E+10	1	-1E+10	1	-1E+10	1	-1E+10	1
4902551	97	C	04/21/2023	12:57	-131.265	47.983	0	353.20	0	4.6630	0	33.9120	0	26.853	0	349.938	0	65.7	4	21.0	4	-1E+10	1	-1E+10	1	-1E+10	1	-1E+10	1	-1E+10	1	-1E+10	1
4902551	97	C	04/21/2023	12:57	-131.265	47.983	0	358.00	0	4.6240	0	33.9160	0	26.861	0	354.689	0	64.3	4	20.6	4	-1E+10	1	-1E+10	1	-1E+10	1	-1E+10	1	-1E+10	1	-1E+10	1
4902551	97	C	04/21/2023	12:57	-131.265	47.983	0	363.10	0	4.5780	0	33.9170	0	26.867	0	359.738	0	63.0	4	20.1	4	-1E+10	1	-1E+10	1	-1E+10	1	-1E+10	1	-1E+10	1	-1E+10	1
4902551	97	C	04/21/2023	12:57	-131.265	47.983	0	367.90	0	4.5470	0	33.9190	0	26.872	0	364.489	0	61.4	4	19.6	4	-1E+10	1	-1E+10	1	-1E+10	1	-1E+10	1	-1E+10	1	-1E+10	1
4902551	97	C	04/21/2023	12:57	-131.265	47.983	0	372.90	0	4.5600	0	33.9320	0	26.881	0	369.438	0	60.2	4	19.2	4	-1E+10	1	-1E+10	1	-1E+10	1	-1E+10	1	-1E+10	1	-1E+10	1
4902551	97	C	04/21/2023	12:57	-131.265	47.983	0	378.10	0	4.5290	0	33.9330	0	26.885	0	374.585	0	59.1	4	18.9	4	-1E+10	1	-1E+10	1	-1E+10	1	-1E+10	1	-1E+10	1	-1E+10	1
4902551	97	C	04/21/2023	12:57	-131.265	47.983	0	382.90	0	4.4660	0	33.9310	0	26.890	0	379.336	0	57.8	4	18.4	4	-1E+10	1	-1E+10	1	-1E+10	1	-1E+10	1	-1E+10	1	-1E+10	1
4902551	97	C	04/21/2023	12:57	-131.265	47.983	0	388.00	0	4.4430	0	33.9360	0	26.897	0	384.384	0	56.3	4	17.9	4	-1E+10	1	-1E+10	1	-1E+10	1	-1E+10	1	-1E+10	1	-1E+10	1
4902551	97	C	04/21/2023	12:57	-131.265	47.983	0	393.10	0	4.4270	0	33.9410	0	26.902	0	389.432	0	54.9	4	17.5	4	-1E+10	1	-1E+10	1	-1E+10	1	-1E+10	1	-1E+10	1	-1E+10	1
4902551	97	C	04/21/2023	12:57	-131.265	47.983	0	397.80	0	4.4270	0	33.9480	0	26.908	0	394.083	0	53.5	4	17.0	4	-1E+10	1	-1E+10	1	-1E+10	1	-1E+10	1	-1E+10	1	-1E+10	1
4902551	97	C	04/21/2023	12:57	-131.265	47.983	0	402.70	0	4.3690	0	33.9530	0	26.918	0	398.933	0	52.4	4	16.7	4	-1E+10	1	-1E+10	1	-1E+10	1	-1E+10	1	-1E+10	1	-1E+10	1
4902551	97	C	04/21/2023	12:57	-131.265	47.983	0	408.20	0	4.3590	0	33.9580	0	26.923	0	404.376	0	51.1	4	16.3	4	-1E+10	1	-1E+10	1	-1E+10	1	-1E+10	1	-1E+10	1	-1E+10	1
4902551	97	C	04/21/2023	12:57	-131.265	47.983	0	413.10	0	4.3480	0	33.9630	0	26.928	0	409.225	0	49.7	4	15.8	4	-1E+10	1	-1E+10	1	-1E+10	1	-1E+10	1	-1E+10	1	-1E+10	1
4902551	97	C	04/21/2023	12:57	-131.265	47.983	0	418.00	0	4.3460	0	33.9720	0	26.936	0	414.074	0	48.2	4	15.3	4	-1E+10	1	-1E+10	1	-1E+10	1	-1E+10	1	-1E+10	1	-1E+10	1
4902551	97	C	04/21/2023	12:57	-131.265	47.983	0	422.90	0	4.3600	0	33.9820	0	26.942	0	418.923	0	46.9	4	14.9	4	-1E+10	1	-1E+10	1	-1E+10	1	-1E+10	1	-1E+10	1	-1E+10	1
4902551	97	C	04/21/2023	12:57	-131.265	47.983	0	427.90	0	4.3750	0	33.9900	0	26.947	0	423.871	0	45.5	4	14.5	4	-1E+10	1	-1E+10	1	-1E+10	1	-1E+10	1	-1E+10	1	-1E+10	1
4902551	97	C	04/21/2023	12:57	-131.265	47.983	0	432.80	0	4.3850	0	34.0000	0	26.954	0	428.720	0	43.8	4	13.9	4	-1E+10	1	-1E+10	1	-1E+10	1	-1E+10	1	-1E+10	1	-1E+10	1
4902551	97	C	04/21/2023	12:57	-131.265	47.983	0	438.00	0	4.3990	0	34.0100	0	26.960	0	433.866	0	42.1	4	13.4	4	-1E+10	1	-1E+10	1	-1E+10	1	-1E+10	1	-1E+10	1	-1E+10	1
4902551	97	C	04/21/2023	12:57	-131.265	47.983	0	443.20	0	4.3990	0	34.0200	0	26.968	0	439.011	0	40.6	4	12.9	4	-1E+10	1	-1E+10	1	-1E+10	1	-1E+10	1	-1E+10	1	-1E+10	1
4902551	97	C	04/21/2023	12:57	-131.265	47.983	0	448.10	0	4.3860	0	34.0260	0	26.975	0	443.860	0	39.3	4	12.5	4	-1E+10	1	-1E+10	1	-1E+10	1	-1E+10	1	-1E+10	1	-1E+10	1
4902551	97	C	04/21/2023	12:57	-131.265	47.983	0	453.00	0	4.3890	0	34.0330	0	26.980	0	448.708	0	38.0	4	12.1	4	-1E+10	1	-1E+10	1	-1E+10	1	-1E+10	1	-1E+10	1	-1E+10	1
4902551	97	C	04/21/2023	12:57	-131.265	47.983	0	457.80	0	4.3790	0	34.0400	0	26.987	0	453.457	0	37.0	4	11.8	4	-1E+10	1	-1E+10	1	-1E+10	1	-1E+10	1	-1E+10	1	-1E+10	1
4902551	97	C	04/21/2023	12:57	-131.265	47.983	0	462.80	0	4.3880	0	34.0440	0	26.989	0	458.404	0	35.9	4	11.4	4	-1E+10	1	-1E+10	1	-1E+10	1	-1E+10	1	-1E+10	1	-1E+10	1
4902551	97	C	04/21/2023	12:57	-131.265	47.983	0	467.90	0	4.3860	0	34.0500	0	26.994	0	463.450	0	34.8	4	11.1	4	-1E+10	1	-1E+10	1	-1E+10	1	-1E+10	1	-1E+10	1	-1E+10	1
4902551	97	C	04/21/2023	12:57	-131.265	47.983	0	472.90	0	4.3700	0	34.0580	0	27.002	0	468.397	0	34.1	4	10.9	4	-1E+10	1	-1E+10	1	-1E+10	1	-1E+10	1	-1E+10	1	-1E+10	1
4902551	97	C	04/21/2023	12:57	-131.265	47.983	0	478.00	0	4.3680	0	34.0590	0	27.003	0	473.443	0	33.5	4	10.7	4	-1E+10	1	-1E+10	1	-1E+10	1	-1E+10	1	-1E+10	1	-1E+10	1
4902551	97	C	04/21/2023	12:57	-131.265	47.983	0	483.10	0	4.3710	0	34.0620	0	27.005	0	478.488	0	32.6	4	10.4	4	-1E+10	1	-1E+10	1	-1E+10	1	-1E+10	1	-1E+10	1	-1E+10	1
4902551	97	C	04/21/2023	12:57	-131.265	47.983	0	487.80	0	4.3490	0	34.0720	0	27.015	0	483.138	0	32.3	4	10.3	4	-1E+10	1	-1E+10	1	-1E+10	1	-1E+10	1	-1E+10	1	-1E+10	1
4902551	97	C	04/21/2023	12:57	-131.265	47.983	0	492.60	0	4.2970	0	34.0750	0	27.023	0	487.886	0	32.3	4	10.3	4	-1E+10	1	-1E+10	1	-1E+10	1	-1E+10	1	-1E+10	1	-1E+10	1
4902551	97	C	04/21/2023	12:57	-131.265	47.983	0	497.90	0	4.2630	0	34.0760	0	27.028	0	493.129	0	32.2	4	10.2	4	-1E+10	1	-1E+10	1	-1E+10	1	-1E+10	1	-1E+10	1	-1E+10	1
4902551	97	C	04/21/2023	12:57	-131.265	47.983	0	502.90	0	4.2340	0	34.0780	0	27.032	0	498.075	0	31.9	4	10.1	4	-1E+10	1	-1E+10	1	-1E+10	1	-1E+10	1	-1E+10	1	-1E+10	1
4902551	97	C	04/21/2023	12:57	-131.265	47.983	0	507.80	0	4.2200	0	34.0790	0	27.035	0	502.922	0	31.4	4	10.0	4	-1E+10	1	-1E+10	1	-1E+10	1	-1E+10	1	-1E+10	1	-1E+10	1
4902551	97	C	04/21/2023	12:57	-131.265	47.983	0	512.80	0	4.2110	0	34.0810	0	27.037	0	507.868	0	30.6	4	9.7	4	-1E+10	1	-1E+10	1	-1E+10	1	-1E+10	1	-1E+10	1	-1E+10	1
4902551	97	C	04/21/2023	12:57	-131.265	47.983	0	517.70	0	4.2220	0	34.0860	0	27.040	0	512.715	0	29.5	4	9.4	4	-1E+10	1	-1E+10	1	-1E+10	1	-1E+10	1	-1E+10	1	-1E+10	1
4902551	97	C	04/21/2023	12:57	-131.265	47.983	0	523.00	0	4.2410	0	34.0940	0	27.045	0	517.957	0	28.9	4	9.2	4	-1E+10	1	-1E+10	1	-1E+10	1	-1E+10	1	-1E+10	1	-1E+10	1
4902551	97	C	04/21/2023	12:57	-131.265	47.983	0	528.10	0	4.2090	0	34.0990	0	27.052	0	523.002	0	29.0	4	9.2	4	-1E+10	1	-1E+10	1	-1E+10	1	-1E+10	1	-1E+10	1	-1E+10	1
4902551	97	C	04/21/2023	12:57	-131.265	47.983	0	533.20	0	4.1550	0	34.0990	0	27.058	0	528.046	0	29.0	4	9.2	4	-1E+10	1	-1E+10	1	-1E+10	1	-1E+10	1	-1E+10	1	-1E+10	1
4902551	97	C	04/21/2023	12:57	-131.265	47.983	0	538.00	0	4.1390	0	34.1010	0	27.061	0	532.794	0	28.5	4	9.0	4	-1E+10	1	-1E+10	1	-1E+10	1	-1E+10	1	-1E+10	1	-1E+10	1
4902551	97	C	04/21/2023	12:57	-131.265	47.983	0	542.70	0	4.1400	0	34.1040	0	27.063	0	537.442	0	28.0	4	8.9	4	-1E+10	1	-1E+10	1	-1E+10	1	-1E+10	1	-1E+10	1	-1E+10	1
4902551	97	C	04/21/2023	12:57	-131.265	47.983	0	547.90	0	4.1370	0	34.1070	0	27.066	0	542.585	0	27.6	4	8.7	4	-1E+10	1	-1E+10	1	-1E+10	1	-1E+10	1	-1E+10	1	-1E+10	1
4902551	97	C	04/21/2023	12:57	-131.265	47.983	0	553.00	0	4.1140	0	34.1140	0	27.074	0	547.629	0	27.6	4	8.7	4	-1E+10	1	-1E+10	1	-1E+10	1	-1E+10	1	-1E+10	1	-1E+10	1
4902551	97	C	04/21/2023	12:57	-131.265	47.983	0	558.20	0	4.0450	0	34.1160	0	27.083	0	552.771	0	27.3	4	8.6	4	-1E+10	1	-1E+10	1	-1E+10	1	-1E+10	1	-1E+10	1	-1E+10	1
4902551	97	C	04/21/2023	12:57	-131.265	47.983	0	563.10	0	4.0410	0	34.1170	0	27.084	0	557.617	0	26.6	4	8.4	4	-1E+10	1	-1E+10	1	-1E+10	1	-1E+10	1	-1E+10	1	-1E+10	1
4902551	97	C	04/21/2023	12:57	-131.265	47.983	0	567.90	0	4.0470	0	34.1240	0	27.089	0	562.364	0	26.0	4	8.2	4	-1E+10	1	-1E+10	1	-1E+10	1	-1E+10	1	-1E+10	1	-1E+10	1
4902551	97	C	04/21/2023	12:57	-131.265	47.983	0	572.90	0	4.0440	0	34.1260	0	27.091	0	567.308	0	25.8	4	8.1	4	-1E+10	1	-1E+10	1	-1E+10	1	-1E+10	1	-1E+10	1	-1E+10	1
4902551	97	C	04/21/2023	12:57	-131.265	47.983	0	577.90	0	4.0320	0	34.1280	0	27.094	0	572.253	0	25.6	4	8.1	4	-1E+10	1	-1E+10	1	-1E+10	1	-1E+10	1	-1E+10	1	-1E+10	1
4902551	97	C	04/21/2023	12:57	-131.265	47.983	0	583.00	0	4.0070	0	34.1290	0	27.097	0	577.296	0	25.2	4	7.9	4	-1E+10	1	-1E+10	1	-1E+10	1	-1E+10	1	-1E+10	1	-1E+10	1
4902551	97	C	04/21/2023	12:57	-131.265	47.983	0	587.70	0	3.9860	0	34.1320	0	27.102	0	581.943	0	24.2	4	7.6	4	-1E+10	1	-1E+10	1	-1E+10	1	-1E+10	1	-1E+10	1	-1E+10	1
4902551	97	C	04/21/2023	12:57	-131.265	47.983	0	592.90	0	3.9820	0	34.1390	0	27.108	0	587.085	0	22.7	4	7.1	4	-1E+10	1	-1E+10	1	-1E+10	1	-1E+10	1	-1E+10	1	-1E+10	1
4902551	97	C	04/21/2023	12:57	-131.265	47.983	0	598.20	0	3.9910	0	34.1440	0	27.111	0	592.325	0	20.9	4	6.6	4	-1E+10	1	-1E+10	1	-1E+10	1	-1E+10	1	-1E+10	1	-1E+10	1
4902551	97	C	04/21/2023	12:57	-131.265	47.983	0	603.00	0	4.0440	0	34.1540	0	27.113	0	597.071	0	19.5	4	6.2	4	-1E+10	1	-1E+10	1	-1E+10	1	-1E+10	1	-1E+10	1	-1E+10	1
4902551	97	C	04/21/2023	12:57	-131.265	47.983	0	607.90	0	4.0510	0	34.1630	0	27.120	0	601.916	0	18.8	4	5.9	4	-1E+10	1	-1E+10	1	-1E+10	1	-1E+10	1	-1E+10	1	-1E+10	1
4902551	97	C	04/21/2023	12:57	-131.265	47.983	0	612.90	0	4.0440	0	34.1690	0	27.125	0	606.860	0	18.3	4	5.8	4	-1E+10	1	-1E+10	1	-1E+10	1	-1E+10	1	-1E+10	1	-1E+10	1
4902551	97	C	04/21/2023	12:57	-131.265	47.983	0	617.90	0	4.0240	0	34.1750	0	27.132	0	611.803	0	18.0	4	5.7	4	-1E+10	1	-1E+10	1	-1E+10	1	-1E+10	1	-1E+10	1	-1E+10	1
4902551	97	C	04/21/2023	12:57	-131.265	47.983	0	622.90	0	4.0040	0	34.1780	0	27.137	0	616.746	0	17.5	4	5.5	4	-1E+10	1	-1E+10	1	-1E+10	1	-1E+10	1	-1E+10	1	-1E+10	1
4902551	97	C	04/21/2023	12:57	-131.265	47.983	0	628.10	0	3.9940	0	34.1840	0	27.142	0	621.887	0	17.1	4	5.4	4	-1E+10	1	-1E+10	1	-1E+10	1	-1E+10	1	-1E+10	1	-1E+10	1
4902551	97	C	04/21/2023	12:57	-131.265	47.983	0	633.20	0	3.9860	0	34.1870	0	27.146	0	626.929	0	16.7	4	5.3	4	-1E+10	1	-1E+10	1	-1E+10	1	-1E+10	1	-1E+10	1	-1E+10	1
4902551	97	C	04/21/2023	12:57	-131.265	47.983	0	638.30	0	3.9840	0	34.1920	0	27.150	0	631.971	0	16.2	4	5.1	4	-1E+10	1	-1E+10	1	-1E+10	1	-1E+10	1	-1E+10	1	-1E+10	1
4902551	97	C	04/21/2023	12:57	-131.265	47.983	0	642.90	0	3.9810	0	34.1940	0	27.152	0	636.518	0	15.9	4	5.0	4	-1E+10	1	-1E+10	1	-1E+10	1	-1E+10	1	-1E+10	1	-1E+10	1
4902551	97	C	04/21/2023	12:57	-131.265	47.983	0	647.60	0	3.9660	0	34.2020	0	27.160	0	641.164	0	15.8	4	5.0	4	-1E+10	1	-1E+10	1	-1E+10	1	-1E+10	1	-1E+10	1	-1E+10	1
4902551	97	C	04/21/2023	12:57	-131.265	47.983	0	653.00	0	3.9560	0	34.2040	0	27.162	0	646.502	0	15.7	4	5.0	4	-1E+10	1	-1E+10	1	-1E+10	1	-1E+10	1	-1E+10	1	-1E+10	1
4902551	97	C	04/21/2023	12:57	-131.265	47.983	0	657.90	0	3.9340	0	34.2080	0	27.168	0	651.346	0	15.9	4	5.0	4	-1E+10	1	-1E+10	1	-1E+10	1	-1E+10	1	-1E+10	1	-1E+10	1
4902551	97	C	04/21/2023	12:57	-131.265	47.983	0	662.70	0	3.9040	0	34.2090	0	27.172	0	656.090	0	16.2	4	5.1	4	-1E+10	1	-1E+10	1	-1E+10	1	-1E+10	1	-1E+10	1	-1E+10	1
4902551	97	C	04/21/2023	12:57	-131.265	47.983	0	667.50	0	3.8530	0	34.2070	0	27.175	0	660.835	0	16.1	4	5.1	4	-1E+10	1	-1E+10	1	-1E+10	1	-1E+10	1	-1E+10	1	-1E+10	1
4902551	97	C	04/21/2023	12:57	-131.265	47.983	0	672.60	0	3.8410	0	34.2090	0	27.178	0	665.876	0	15.5	4	4.9	4	-1E+10	1	-1E+10	1	-1E+10	1	-1E+10	1	-1E+10	1	-1E+10	1
4902551	97	C	04/21/2023	12:57	-131.265	47.983	0	677.60	0	3.8510	0	34.2160	0	27.183	0	670.818	0	15.0	4	4.7	4	-1E+10	1	-1E+10	1	-1E+10	1	-1E+10	1	-1E+10	1	-1E+10	1
4902551	97	C	04/21/2023	12:57	-131.265	47.983	0	682.80	0	3.8430	0	34.2220	0	27.188	0	675.957	0	14.8	4	4.7	4	-1E+10	1	-1E+10	1	-1E+10	1	-1E+10	1	-1E+10	1	-1E+10	1
4902551	97	C	04/21/2023	12:57	-131.265	47.983	0	688.00	0	3.8250	0	34.2250	0	27.192	0	681.097	0	14.7	4	4.6	4	-1E+10	1	-1E+10	1	-1E+10	1	-1E+10	1	-1E+10	1	-1E+10	1
4902551	97	C	04/21/2023	12:57	-131.265	47.983	0	693.00	0	3.8160	0	34.2270	0	27.195	0	686.038	0	14.4	4	4.5	4	-1E+10	1	-1E+10	1	-1E+10	1	-1E+10	1	-1E+10	1	-1E+10	1
4902551	97	C	04/21/2023	12:57	-131.265	47.983	0	697.90	0	3.7900	0	34.2310	0	27.201	0	690.881	0	14.3	4	4.5	4	-1E+10	1	-1E+10	1	-1E+10	1	-1E+10	1	-1E+10	1	-1E+10	1
4902551	97	C	04/21/2023	12:57	-131.265	47.983	0	703.00	0	3.7800	0	34.2350	0	27.205	0	695.921	0	14.1	4	4.4	4	-1E+10	1	-1E+10	1	-1E+10	1	-1E+10	1	-1E+10	1	-1E+10	1
4902551	97	C	04/21/2023	12:57	-131.265	47.983	0	707.80	0	3.7540	0	34.2390	0	27.211	0	700.665	0	14.0	4	4.4	4	-1E+10	1	-1E+10	1	-1E+10	1	-1E+10	1	-1E+10	1	-1E+10	1
4902551	97	C	04/21/2023	12:57	-131.265	47.983	0	712.60	0	3.7330	0	34.2420	0	27.215	0	705.408	0	13.9	4	4.4	4	-1E+10	1	-1E+10	1	-1E+10	1	-1E+10	1	-1E+10	1	-1E+10	1
4902551	97	C	04/21/2023	12:57	-131.265	47.983	0	717.90	0	3.7150	0	34.2460	0	27.220	0	710.646	0	13.8	4	4.3	4	-1E+10	1	-1E+10	1	-1E+10	1	-1E+10	1	-1E+10	1	-1E+10	1
4902551	97	C	04/21/2023	12:57	-131.265	47.983	0	723.20	0	3.6960	0	34.2470	0	27.223	0	715.883	0	13.8	4	4.3	4	-1E+10	1	-1E+10	1	-1E+10	1	-1E+10	1	-1E+10	1	-1E+10	1
4902551	97	C	04/21/2023	12:57	-131.265	47.983	0	728.20	0	3.6850	0	34.2510	0	27.227	0	720.824	0	13.7	4	4.3	4	-1E+10	1	-1E+10	1	-1E+10	1	-1E+10	1	-1E+10	1	-1E+10	1
4902551	97	C	04/21/2023	12:57	-131.265	47.983	0	733.10	0	3.6830	0	34.2510	0	27.228	0	725.666	0	13.7	4	4.3	4	-1E+10	1	-1E+10	1	-1E+10	1	-1E+10	1	-1E+10	1	-1E+10	1
4902551	97	C	04/21/2023	12:57	-131.265	47.983	0	738.00	0	3.6730	0	34.2530	0	27.230	0	730.507	0	13.6	4	4.3	4	-1E+10	1	-1E+10	1	-1E+10	1	-1E+10	1	-1E+10	1	-1E+10	1
4902551	97	C	04/21/2023	12:57	-131.265	47.983	0	743.10	0	3.6530	0	34.2570	0	27.235	0	735.547	0	13.6	4	4.2	4	-1E+10	1	-1E+10	1	-1E+10	1	-1E+10	1	-1E+10	1	-1E+10	1
4902551	97	C	04/21/2023	12:57	-131.265	47.983	0	748.20	0	3.6400	0	34.2600	0	27.239	0	740.586	0	13.6	4	4.3	4	-1E+10	1	-1E+10	1	-1E+10	1	-1E+10	1	-1E+10	1	-1E+10	1
4902551	97	C	04/21/2023	12:57	-131.265	47.983	0	753.00	0	3.6320	0	34.2620	0	27.241	0	745.328	0	13.7	4	4.3	4	-1E+10	1	-1E+10	1	-1E+10	1	-1E+10	1	-1E+10	1	-1E+10	1
4902551	97	C	04/21/2023	12:57	-131.265	47.983	0	757.80	0	3.6190	0	34.2620	0	27.243	0	750.071	0	13.9	4	4.3	4	-1E+10	1	-1E+10	1	-1E+10	1	-1E+10	1	-1E+10	1	-1E+10	1
4902551	97	C	04/21/2023	12:57	-131.265	47.983	0	762.70	0	3.6090	0	34.2610	0	27.243	0	754.912	0	13.9	4	4.4	4	-1E+10	1	-1E+10	1	-1E+10	1	-1E+10	1	-1E+10	1	-1E+10	1
4902551	97	C	04/21/2023	12:57	-131.265	47.983	0	767.70	0	3.6070	0	34.2620	0	27.244	0	759.852	0	14.0	4	4.4	4	-1E+10	1	-1E+10	1	-1E+10	1	-1E+10	1	-1E+10	1	-1E+10	1
4902551	97	C	04/21/2023	12:57	-131.265	47.983	0	772.60	0	3.5750	0	34.2650	0	27.250	0	764.693	0	14.3	4	4.5	4	-1E+10	1	-1E+10	1	-1E+10	1	-1E+10	1	-1E+10	1	-1E+10	1
4902551	97	C	04/21/2023	12:57	-131.265	47.983	0	777.70	0	3.5440	0	34.2660	0	27.253	0	769.731	0	14.4	4	4.5	4	-1E+10	1	-1E+10	1	-1E+10	1	-1E+10	1	-1E+10	1	-1E+10	1
4902551	97	C	04/21/2023	12:57	-131.265	47.983	0	782.80	0	3.5260	0	34.2660	0	27.255	0	774.770	0	14.3	4	4.5	4	-1E+10	1	-1E+10	1	-1E+10	1	-1E+10	1	-1E+10	1	-1E+10	1
4902551	97	C	04/21/2023	12:57	-131.265	47.983	0	787.90	0	3.5210	0	34.2670	0	27.256	0	779.808	0	14.2	4	4.4	4	-1E+10	1	-1E+10	1	-1E+10	1	-1E+10	1	-1E+10	1	-1E+10	1
4902551	97	C	04/21/2023	12:57	-131.265	47.983	0	793.10	0	3.5110	0	34.2700	0	27.260	0	784.945	0	14.1	4	4.4	4	-1E+10	1	-1E+10	1	-1E+10	1	-1E+10	1	-1E+10	1	-1E+10	1
4902551	97	C	04/21/2023	12:57	-131.265	47.983	0	797.60	0	3.5060	0	34.2710	0	27.261	0	789.390	0	14.0	4	4.4	4	-1E+10	1	-1E+10	1	-1E+10	1	-1E+10	1	-1E+10	1	-1E+10	1
4902551	97	C	04/21/2023	12:57	-131.265	47.983	0	802.80	0	3.4990	0	34.2730	0	27.263	0	794.526	0	13.9	4	4.3	4	-1E+10	1	-1E+10	1	-1E+10	1	-1E+10	1	-1E+10	1	-1E+10	1
4902551	97	C	04/21/2023	12:57	-131.265	47.983	0	808.00	0	3.4890	0	34.2740	0	27.265	0	799.663	0	13.7	4	4.3	4	-1E+10	1	-1E+10	1	-1E+10	1	-1E+10	1	-1E+10	1	-1E+10	1
4902551	97	C	04/21/2023	12:57	-131.265	47.983	0	812.60	0	3.4810	0	34.2770	0	27.268	0	804.206	0	13.6	4	4.2	4	-1E+10	1	-1E+10	1	-1E+10	1	-1E+10	1	-1E+10	1	-1E+10	1
4902551	97	C	04/21/2023	12:57	-131.265	47.983	0	817.70	0	3.4690	0	34.2800	0	27.272	0	809.244	0	13.4	4	4.2	4	-1E+10	1	-1E+10	1	-1E+10	1	-1E+10	1	-1E+10	1	-1E+10	1
4902551	97	C	04/21/2023	12:57	-131.265	47.983	0	822.70	0	3.4540	0	34.2840	0	27.277	0	814.183	0	13.3	4	4.1	4	-1E+10	1	-1E+10	1	-1E+10	1	-1E+10	1	-1E+10	1	-1E+10	1
4902551	97	C	04/21/2023	12:57	-131.265	47.983	0	827.70	0	3.4380	0	34.2870	0	27.281	0	819.121	0	13.2	4	4.1	4	-1E+10	1	-1E+10	1	-1E+10	1	-1E+10	1	-1E+10	1	-1E+10	1
4902551	97	C	04/21/2023	12:57	-131.265	47.983	0	832.80	0	3.4260	0	34.2890	0	27.283	0	824.158	0	13.1	4	4.1	4	-1E+10	1	-1E+10	1	-1E+10	1	-1E+10	1	-1E+10	1	-1E+10	1
4902551	97	C	04/21/2023	12:57	-131.265	47.983	0	837.80	0	3.4120	0	34.2910	0	27.286	0	829.096	0	13.0	4	4.1	4	-1E+10	1	-1E+10	1	-1E+10	1	-1E+10	1	-1E+10	1	-1E+10	1
4902551	97	C	04/21/2023	12:57	-131.265	47.983	0	842.80	0	3.4030	0	34.2940	0	27.290	0	834.034	0	12.9	4	4.0	4	-1E+10	1	-1E+10	1	-1E+10	1	-1E+10	1	-1E+10	1	-1E+10	1
4902551	97	C	04/21/2023	12:57	-131.265	47.983	0	847.70	0	3.3940	0	34.2980	0	27.294	0	838.874	0	12.8	4	4.0	4	-1E+10	1	-1E+10	1	-1E+10	1	-1E+10	1	-1E+10	1	-1E+10	1
4902551	97	C	04/21/2023	12:57	-131.265	47.983	0	853.20	0	3.3840	0	34.2990	0	27.295	0	844.305	0	12.8	4	4.0	4	-1E+10	1	-1E+10	1	-1E+10	1	-1E+10	1	-1E+10	1	-1E+10	1
4902551	97	C	04/21/2023	12:57	-131.265	47.983	0	858.40	0	3.3740	0	34.3010	0	27.298	0	849.440	0	12.7	4	3.9	4	-1E+10	1	-1E+10	1	-1E+10	1	-1E+10	1	-1E+10	1	-1E+10	1
4902551	97	C	04/21/2023	12:57	-131.265	47.983	0	863.10	0	3.3680	0	34.3030	0	27.300	0	854.082	0	12.6	4	3.9	4	-1E+10	1	-1E+10	1	-1E+10	1	-1E+10	1	-1E+10	1	-1E+10	1
4902551	97	C	04/21/2023	12:57	-131.265	47.983	0	867.90	0	3.3590	0	34.3070	0	27.304	0	858.822	0	12.5	4	3.9	4	-1E+10	1	-1E+10	1	-1E+10	1	-1E+10	1	-1E+10	1	-1E+10	1
4902551	97	C	04/21/2023	12:57	-131.265	47.983	0	872.70	0	3.3520	0	34.3090	0	27.307	0	863.562	0	12.4	4	3.9	4	-1E+10	1	-1E+10	1	-1E+10	1	-1E+10	1	-1E+10	1	-1E+10	1
4902551	97	C	04/21/2023	12:57	-131.265	47.983	0	877.90	0	3.3400	0	34.3110	0	27.309	0	868.696	0	12.4	4	3.9	4	-1E+10	1	-1E+10	1	-1E+10	1	-1E+10	1	-1E+10	1	-1E+10	1
4902551	97	C	04/21/2023	12:57	-131.265	47.983	0	883.30	0	3.3370	0	34.3120	0	27.310	0	874.028	0	12.4	4	3.8	4	-1E+10	1	-1E+10	1	-1E+10	1	-1E+10	1	-1E+10	1	-1E+10	1
4902551	97	C	04/21/2023	12:57	-131.265	47.983	0	888.20	0	3.3330	0	34.3130	0	27.312	0	878.867	0	12.3	4	3.8	4	-1E+10	1	-1E+10	1	-1E+10	1	-1E+10	1	-1E+10	1	-1E+10	1
4902551	97	C	04/21/2023	12:57	-131.265	47.983	0	893.10	0	3.3210	0	34.3150	0	27.314	0	883.705	0	12.3	4	3.8	4	-1E+10	1	-1E+10	1	-1E+10	1	-1E+10	1	-1E+10	1	-1E+10	1
4902551	97	C	04/21/2023	12:57	-131.265	47.983	0	898.00	0	3.3020	0	34.3190	0	27.319	0	888.543	0	12.2	4	3.8	4	-1E+10	1	-1E+10	1	-1E+10	1	-1E+10	1	-1E+10	1	-1E+10	1
4902551	97	C	04/21/2023	12:57	-131.265	47.983	0	902.90	0	3.2800	0	34.3230	0	27.325	0	893.381	0	12.2	4	3.8	4	-1E+10	1	-1E+10	1	-1E+10	1	-1E+10	1	-1E+10	1	-1E+10	1
4902551	97	C	04/21/2023	12:57	-131.265	47.983	0	907.80	0	3.2730	0	34.3250	0	27.327	0	898.219	0	12.1	4	3.8	4	-1E+10	1	-1E+10	1	-1E+10	1	-1E+10	1	-1E+10	1	-1E+10	1
4902551	97	C	04/21/2023	12:57	-131.265	47.983	0	912.80	0	3.2600	0	34.3290	0	27.331	0	903.155	0	12.0	4	3.7	4	-1E+10	1	-1E+10	1	-1E+10	1	-1E+10	1	-1E+10	1	-1E+10	1
4902551	97	C	04/21/2023	12:57	-131.265	47.983	0	917.90	0	3.2480	0	34.3320	0	27.335	0	908.190	0	11.9	4	3.7	4	-1E+10	1	-1E+10	1	-1E+10	1	-1E+10	1	-1E+10	1	-1E+10	1
4902551	97	C	04/21/2023	12:57	-131.265	47.983	0	923.00	0	3.2430	0	34.3340	0	27.337	0	913.225	0	11.9	4	3.7	4	-1E+10	1	-1E+10	1	-1E+10	1	-1E+10	1	-1E+10	1	-1E+10	1
4902551	97	C	04/21/2023	12:57	-131.265	47.983	0	928.20	0	3.2340	0	34.3360	0	27.339	0	918.359	0	11.8	4	3.7	4	-1E+10	1	-1E+10	1	-1E+10	1	-1E+10	1	-1E+10	1	-1E+10	1
4902551	97	C	04/21/2023	12:57	-131.265	47.983	0	933.10	0	3.2210	0	34.3400	0	27.344	0	923.196	0	11.8	4	3.7	4	-1E+10	1	-1E+10	1	-1E+10	1	-1E+10	1	-1E+10	1	-1E+10	1
4902551	97	C	04/21/2023	12:57	-131.265	47.983	0	938.10	0	3.2090	0	34.3430	0	27.347	0	928.132	0	11.7	4	3.6	4	-1E+10	1	-1E+10	1	-1E+10	1	-1E+10	1	-1E+10	1	-1E+10	1
4902551	97	C	04/21/2023	12:57	-131.265	47.983	0	943.20	0	3.2030	0	34.3450	0	27.350	0	933.166	0	11.7	4	3.6	4	-1E+10	1	-1E+10	1	-1E+10	1	-1E+10	1	-1E+10	1	-1E+10	1
4902551	97	C	04/21/2023	12:57	-131.265	47.983	0	948.10	0	3.1960	0	34.3460	0	27.351	0	938.003	0	11.7	4	3.6	4	-1E+10	1	-1E+10	1	-1E+10	1	-1E+10	1	-1E+10	1	-1E+10	1
4902551	97	C	04/21/2023	12:57	-131.265	47.983	0	953.00	0	3.1850	0	34.3490	0	27.355	0	942.840	0	11.7	4	3.6	4	-1E+10	1	-1E+10	1	-1E+10	1	-1E+10	1	-1E+10	1	-1E+10	1
4902551	97	C	04/21/2023	12:57	-131.265	47.983	0	958.00	0	3.1740	0	34.3520	0	27.358	0	947.775	0	11.6	4	3.6	4	-1E+10	1	-1E+10	1	-1E+10	1	-1E+10	1	-1E+10	1	-1E+10	1
4902551	97	C	04/21/2023	12:57	-131.265	47.983	0	963.00	0	3.1650	0	34.3540	0	27.360	0	952.711	0	11.6	4	3.6	4	-1E+10	1	-1E+10	1	-1E+10	1	-1E+10	1	-1E+10	1	-1E+10	1
4902551	97	C	04/21/2023	12:57	-131.265	47.983	0	968.00	0	3.1500	0	34.3570	0	27.364	0	957.646	0	11.6	4	3.6	4	-1E+10	1	-1E+10	1	-1E+10	1	-1E+10	1	-1E+10	1	-1E+10	1
4902551	97	C	04/21/2023	12:57	-131.265	47.983	0	973.20	0	3.1400	0	34.3600	0	27.368	0	962.778	0	11.6	4	3.6	4	-1E+10	1	-1E+10	1	-1E+10	1	-1E+10	1	-1E+10	1	-1E+10	1
4902551	97	C	04/21/2023	12:57	-131.265	47.983	0	977.80	0	3.1360	0	34.3600	0	27.368	0	967.318	0	11.6	4	3.6	4	-1E+10	1	-1E+10	1	-1E+10	1	-1E+10	1	-1E+10	1	-1E+10	1
4902551	97	C	04/21/2023	12:57	-131.265	47.983	0	982.50	0	3.1300	0	34.3620	0	27.370	0	971.957	0	11.6	4	3.6	4	-1E+10	1	-1E+10	1	-1E+10	1	-1E+10	1	-1E+10	1	-1E+10	1
4902551	97	C	04/21/2023	12:57	-131.265	47.983	0	987.80	0	3.1220	0	34.3640	0	27.372	0	977.188	0	11.6	4	3.6	4	-1E+10	1	-1E+10	1	-1E+10	1	-1E+10	1	-1E+10	1	-1E+10	1
4902551	97	C	04/21/2023	12:57	-131.265	47.983	0	993.00	0	3.1100	0	34.3650	0	27.374	0	982.320	0	11.7	4	3.6	4	-1E+10	1	-1E+10	1	-1E+10	1	-1E+10	1	-1E+10	1	-1E+10	1
4902551	97	C	04/21/2023	12:57	-131.265	47.983	0	998.20	0	3.1000	0	34.3680	0	27.378	0	987.452	0	11.7	4	3.6	4	-1E+10	1	-1E+10	1	-1E+10	1	-1E+10	1	-1E+10	1	-1E+10	1
4902551	97	C	04/21/2023	12:57	-131.265	47.983	0	1005.50	0	3.0890	0	34.3700	0	27.380	0	994.656	0	11.7	4	3.6	4	-1E+10	1	-1E+10	1	-1E+10	1	-1E+10	1	-1E+10	1	-1E+10	1
4902551	97	C	04/21/2023	12:57	-131.265	47.983	0	1015.60	0	3.0730	0	34.3730	0	27.384	0	1004.622	0	11.7	4	3.6	4	-1E+10	1	-1E+10	1	-1E+10	1	-1E+10	1	-1E+10	1	-1E+10	1
4902551	97	C	04/21/2023	12:57	-131.265	47.983	0	1025.40	0	3.0600	0	34.3760	0	27.388	0	1014.293	0	11.8	4	3.6	4	-1E+10	1	-1E+10	1	-1E+10	1	-1E+10	1	-1E+10	1	-1E+10	1
4902551	97	C	04/21/2023	12:57	-131.265	47.983	0	1035.20	0	3.0390	0	34.3800	0	27.393	0	1023.963	0	11.8	4	3.7	4	-1E+10	1	-1E+10	1	-1E+10	1	-1E+10	1	-1E+10	1	-1E+10	1
4902551	97	C	04/21/2023	12:57	-131.265	47.983	0	1045.20	0	3.0130	0	34.3840	0	27.399	0	1033.830	0	11.9	4	3.7	4	-1E+10	1	-1E+10	1	-1E+10	1	-1E+10	1	-1E+10	1	-1E+10	1
4902551	97	C	04/21/2023	12:57	-131.265	47.983	0	1055.40	0	3.0000	0	34.3870	0	27.402	0	1043.893	0	11.9	4	3.7	4	-1E+10	1	-1E+10	1	-1E+10	1	-1E+10	1	-1E+10	1	-1E+10	1
4902551	97	C	04/21/2023	12:57	-131.265	47.983	0	1065.40	0	2.9850	0	34.3900	0	27.406	0	1053.759	0	12.0	4	3.7	4	-1E+10	1	-1E+10	1	-1E+10	1	-1E+10	1	-1E+10	1	-1E+10	1
4902551	97	C	04/21/2023	12:57	-131.265	47.983	0	1075.40	0	2.9750	0	34.3930	0	27.409	0	1063.625	0	12.1	4	3.7	4	-1E+10	1	-1E+10	1	-1E+10	1	-1E+10	1	-1E+10	1	-1E+10	1
4902551	97	C	04/21/2023	12:57	-131.265	47.983	0	1085.30	0	2.9650	0	34.3960	0	27.413	0	1073.391	0	12.1	4	3.7	4	-1E+10	1	-1E+10	1	-1E+10	1	-1E+10	1	-1E+10	1	-1E+10	1
4902551	97	C	04/21/2023	12:57	-131.265	47.983	0	1095.20	0	2.9460	0	34.3990	0	27.417	0	1083.157	0	12.2	4	3.8	4	-1E+10	1	-1E+10	1	-1E+10	1	-1E+10	1	-1E+10	1	-1E+10	1
4902551	97	C	04/21/2023	12:57	-131.265	47.983	0	1105.50	0	2.9240	0	34.4030	0	27.422	0	1093.317	0	12.4	4	3.8	4	-1E+10	1	-1E+10	1	-1E+10	1	-1E+10	1	-1E+10	1	-1E+10	1
4902551	97	C	04/21/2023	12:57	-131.265	47.983	0	1115.60	0	2.9080	0	34.4070	0	27.427	0	1103.279	0	12.5	4	3.9	4	-1E+10	1	-1E+10	1	-1E+10	1	-1E+10	1	-1E+10	1	-1E+10	1
4902551	97	C	04/21/2023	12:57	-131.265	47.983	0	1125.50	0	2.8940	0	34.4110	0	27.431	0	1113.043	0	12.7	4	3.9	4	-1E+10	1	-1E+10	1	-1E+10	1	-1E+10	1	-1E+10	1	-1E+10	1
4902551	97	C	04/21/2023	12:57	-131.265	47.983	0	1135.50	0	2.8750	0	34.4160	0	27.437	0	1122.906	0	12.9	4	4.0	4	-1E+10	1	-1E+10	1	-1E+10	1	-1E+10	1	-1E+10	1	-1E+10	1
4902551	97	C	04/21/2023	12:57	-131.265	47.983	0	1145.50	0	2.8580	0	34.4190	0	27.441	0	1132.768	0	13.0	4	4.0	4	-1E+10	1	-1E+10	1	-1E+10	1	-1E+10	1	-1E+10	1	-1E+10	1
4902551	97	C	04/21/2023	12:57	-131.265	47.983	0	1155.40	0	2.8540	0	34.4200	0	27.442	0	1142.531	0	13.1	4	4.0	4	-1E+10	1	-1E+10	1	-1E+10	1	-1E+10	1	-1E+10	1	-1E+10	1
4902551	97	C	04/21/2023	12:57	-131.265	47.983	0	1165.40	0	2.8410	0	34.4230	0	27.446	0	1152.392	0	13.3	4	4.1	4	-1E+10	1	-1E+10	1	-1E+10	1	-1E+10	1	-1E+10	1	-1E+10	1
4902551	97	C	04/21/2023	12:57	-131.265	47.983	0	1175.70	0	2.8210	0	34.4270	0	27.451	0	1162.549	0	13.5	4	4.1	4	-1E+10	1	-1E+10	1	-1E+10	1	-1E+10	1	-1E+10	1	-1E+10	1
4902551	97	C	04/21/2023	12:57	-131.265	47.983	0	1185.70	0	2.8030	0	34.4300	0	27.455	0	1172.409	0	13.7	4	4.2	4	-1E+10	1	-1E+10	1	-1E+10	1	-1E+10	1	-1E+10	1	-1E+10	1
4902551	97	C	04/21/2023	12:57	-131.265	47.983	0	1195.80	0	2.7810	0	34.4340	0	27.460	0	1182.368	0	13.9	4	4.3	4	-1E+10	1	-1E+10	1	-1E+10	1	-1E+10	1	-1E+10	1	-1E+10	1
4902551	97	C	04/21/2023	12:57	-131.265	47.983	0	1205.10	0	2.7700	0	34.4360	0	27.463	0	1191.537	0	14.0	4	4.3	4	-1E+10	1	-1E+10	1	-1E+10	1	-1E+10	1	-1E+10	1	-1E+10	1
4902551	97	C	04/21/2023	12:57	-131.265	47.983	0	1215.40	0	2.7590	0	34.4380	0	27.465	0	1201.691	0	14.2	4	4.4	4	-1E+10	1	-1E+10	1	-1E+10	1	-1E+10	1	-1E+10	1	-1E+10	1
4902551	97	C	04/21/2023	12:57	-131.265	47.983	0	1225.50	0	2.7440	0	34.4400	0	27.468	0	1211.648	0	14.5	4	4.4	4	-1E+10	1	-1E+10	1	-1E+10	1	-1E+10	1	-1E+10	1	-1E+10	1
4902551	97	C	04/21/2023	12:57	-131.265	47.983	0	1235.50	0	2.7250	0	34.4430	0	27.472	0	1221.506	0	14.7	4	4.5	4	-1E+10	1	-1E+10	1	-1E+10	1	-1E+10	1	-1E+10	1	-1E+10	1
4902551	97	C	04/21/2023	12:57	-131.265	47.983	0	1245.50	0	2.7100	0	34.4450	0	27.475	0	1231.364	0	15.0	4	4.6	4	-1E+10	1	-1E+10	1	-1E+10	1	-1E+10	1	-1E+10	1	-1E+10	1
4902551	97	C	04/21/2023	12:57	-131.265	47.983	0	1255.30	0	2.6970	0	34.4480	0	27.479	0	1241.024	0	15.2	4	4.7	4	-1E+10	1	-1E+10	1	-1E+10	1	-1E+10	1	-1E+10	1	-1E+10	1
4902551	97	C	04/21/2023	12:57	-131.265	47.983	0	1265.40	0	2.6840	0	34.4510	0	27.483	0	1250.979	0	15.6	4	4.8	4	-1E+10	1	-1E+10	1	-1E+10	1	-1E+10	1	-1E+10	1	-1E+10	1
4902551	97	C	04/21/2023	12:57	-131.265	47.983	0	1275.30	0	2.6670	0	34.4540	0	27.486	0	1260.736	0	15.8	4	4.9	4	-1E+10	1	-1E+10	1	-1E+10	1	-1E+10	1	-1E+10	1	-1E+10	1
4902551	97	C	04/21/2023	12:57	-131.265	47.983	0	1285.20	0	2.6480	0	34.4570	0	27.490	0	1270.493	0	16.1	4	4.9	4	-1E+10	1	-1E+10	1	-1E+10	1	-1E+10	1	-1E+10	1	-1E+10	1
4902551	97	C	04/21/2023	12:57	-131.265	47.983	0	1295.40	0	2.6300	0	34.4590	0	27.494	0	1280.546	0	16.5	4	5.0	4	-1E+10	1	-1E+10	1	-1E+10	1	-1E+10	1	-1E+10	1	-1E+10	1
4902551	97	C	04/21/2023	12:57	-131.265	47.983	0	1305.20	0	2.6240	0	34.4620	0	27.497	0	1290.203	0	16.8	4	5.2	4	-1E+10	1	-1E+10	1	-1E+10	1	-1E+10	1	-1E+10	1	-1E+10	1
4902551	97	C	04/21/2023	12:57	-131.265	47.983	0	1315.10	0	2.6170	0	34.4640	0	27.499	0	1299.959	0	17.2	4	5.3	4	-1E+10	1	-1E+10	1	-1E+10	1	-1E+10	1	-1E+10	1	-1E+10	1
4902551	97	C	04/21/2023	12:57	-131.265	47.983	0	1325.10	0	2.6070	0	34.4660	0	27.501	0	1309.813	0	17.5	4	5.3	4	-1E+10	1	-1E+10	1	-1E+10	1	-1E+10	1	-1E+10	1	-1E+10	1
4902551	97	C	04/21/2023	12:57	-131.265	47.983	0	1335.40	0	2.6000	0	34.4680	0	27.504	0	1319.962	0	17.9	4	5.5	4	-1E+10	1	-1E+10	1	-1E+10	1	-1E+10	1	-1E+10	1	-1E+10	1
4902551	97	C	04/21/2023	12:57	-131.265	47.983	0	1345.30	0	2.5870	0	34.4710	0	27.507	0	1329.716	0	18.2	4	5.6	4	-1E+10	1	-1E+10	1	-1E+10	1	-1E+10	1	-1E+10	1	-1E+10	1
4902551	97	C	04/21/2023	12:57	-131.265	47.983	0	1355.30	0	2.5770	0	34.4720	0	27.509	0	1339.569	0	18.5	4	5.6	4	-1E+10	1	-1E+10	1	-1E+10	1	-1E+10	1	-1E+10	1	-1E+10	1
4902551	97	C	04/21/2023	12:57	-131.265	47.983	0	1365.30	0	2.5690	0	34.4740	0	27.511	0	1349.421	0	18.8	4	5.8	4	-1E+10	1	-1E+10	1	-1E+10	1	-1E+10	1	-1E+10	1	-1E+10	1
4902551	97	C	04/21/2023	12:57	-131.265	47.983	0	1375.00	0	2.5570	0	34.4760	0	27.514	0	1358.976	0	19.3	4	5.9	4	-1E+10	1	-1E+10	1	-1E+10	1	-1E+10	1	-1E+10	1	-1E+10	1
4902551	97	C	04/21/2023	12:57	-131.265	47.983	0	1385.50	0	2.5430	0	34.4790	0	27.518	0	1369.320	0	19.7	4	6.0	4	-1E+10	1	-1E+10	1	-1E+10	1	-1E+10	1	-1E+10	1	-1E+10	1
4902551	97	C	04/21/2023	12:57	-131.265	47.983	0	1395.60	0	2.5320	0	34.4810	0	27.520	0	1379.269	0	20.2	4	6.2	4	-1E+10	1	-1E+10	1	-1E+10	1	-1E+10	1	-1E+10	1	-1E+10	1
4902551	97	C	04/21/2023	12:57	-131.265	47.983	0	1405.60	0	2.5130	0	34.4840	0	27.524	0	1389.119	0	20.7	4	6.3	4	-1E+10	1	-1E+10	1	-1E+10	1	-1E+10	1	-1E+10	1	-1E+10	1
4902551	97	C	04/21/2023	12:57	-131.265	47.983	0	1415.30	0	2.5020	0	34.4860	0	27.527	0	1398.673	0	21.1	4	6.4	4	-1E+10	1	-1E+10	1	-1E+10	1	-1E+10	1	-1E+10	1	-1E+10	1
4902551	97	C	04/21/2023	12:57	-131.265	47.983	0	1425.00	0	2.4910	0	34.4880	0	27.529	0	1408.227	0	21.5	4	6.6	4	-1E+10	1	-1E+10	1	-1E+10	1	-1E+10	1	-1E+10	1	-1E+10	1
4902551	97	C	04/21/2023	12:57	-131.265	47.983	0	1435.00	0	2.4780	0	34.4890	0	27.531	0	1418.076	0	22.1	4	6.7	4	-1E+10	1	-1E+10	1	-1E+10	1	-1E+10	1	-1E+10	1	-1E+10	1
4902551	97	C	04/21/2023	12:57	-131.265	47.983	0	1445.10	0	2.4670	0	34.4920	0	27.535	0	1428.022	0	22.6	4	6.9	4	-1E+10	1	-1E+10	1	-1E+10	1	-1E+10	1	-1E+10	1	-1E+10	1
4902551	97	C	04/21/2023	12:57	-131.265	47.983	0	1455.50	0	2.4520	0	34.4940	0	27.538	0	1438.264	0	23.0	4	7.0	4	-1E+10	1	-1E+10	1	-1E+10	1	-1E+10	1	-1E+10	1	-1E+10	1
4902551	97	C	04/21/2023	12:57	-131.265	47.983	0	1465.50	0	2.4360	0	34.4960	0	27.541	0	1448.111	0	23.4	4	7.1	4	-1E+10	1	-1E+10	1	-1E+10	1	-1E+10	1	-1E+10	1	-1E+10	1
4902551	97	C	04/21/2023	12:57	-131.265	47.983	0	1475.20	0	2.4260	0	34.4980	0	27.543	0	1457.663	0	23.7	4	7.2	4	-1E+10	1	-1E+10	1	-1E+10	1	-1E+10	1	-1E+10	1	-1E+10	1
4902551	97	C	04/21/2023	12:57	-131.265	47.983	0	1485.10	0	2.4100	0	34.4990	0	27.545	0	1467.411	0	23.9	4	7.3	4	-1E+10	1	-1E+10	1	-1E+10	1	-1E+10	1	-1E+10	1	-1E+10	1
4902551	97	C	04/21/2023	12:57	-131.265	47.983	0	1495.10	0	2.3910	0	34.5010	0	27.548	0	1477.257	0	24.5	4	7.5	4	-1E+10	1	-1E+10	1	-1E+10	1	-1E+10	1	-1E+10	1	-1E+10	1
4902551	97	C	04/21/2023	12:57	-131.265	47.983	0	1505.30	0	2.3850	0	34.5040	0	27.551	0	1487.299	0	25.5	4	7.7	4	-1E+10	1	-1E+10	1	-1E+10	1	-1E+10	1	-1E+10	1	-1E+10	1
4902551	97	C	04/21/2023	12:57	-131.265	47.983	0	1515.30	0	2.3720	0	34.5070	0	27.555	0	1497.144	0	26.0	4	7.9	4	-1E+10	1	-1E+10	1	-1E+10	1	-1E+10	1	-1E+10	1	-1E+10	1
4902551	97	C	04/21/2023	12:57	-131.265	47.983	0	1525.50	0	2.3650	0	34.5080	0	27.556	0	1507.186	0	26.4	4	8.0	4	-1E+10	1	-1E+10	1	-1E+10	1	-1E+10	1	-1E+10	1	-1E+10	1
4902551	97	C	04/21/2023	12:57	-131.265	47.983	0	1535.80	0	2.3520	0	34.5100	0	27.559	0	1517.325	0	26.9	4	8.2	4	-1E+10	1	-1E+10	1	-1E+10	1	-1E+10	1	-1E+10	1	-1E+10	1
4902551	97	C	04/21/2023	12:57	-131.265	47.983	0	1545.70	0	2.3370	0	34.5130	0	27.563	0	1527.070	0	27.4	4	8.3	4	-1E+10	1	-1E+10	1	-1E+10	1	-1E+10	1	-1E+10	1	-1E+10	1
4902551	97	C	04/21/2023	12:57	-131.265	47.983	0	1555.70	0	2.3300	0	34.5140	0	27.564	0	1536.913	0	27.7	4	8.4	4	-1E+10	1	-1E+10	1	-1E+10	1	-1E+10	1	-1E+10	1	-1E+10	1
4902551	97	C	04/21/2023	12:57	-131.265	47.983	0	1565.30	0	2.3210	0	34.5150	0	27.566	0	1546.363	0	27.8	4	8.4	4	-1E+10	1	-1E+10	1	-1E+10	1	-1E+10	1	-1E+10	1	-1E+10	1
4902551	97	C	04/21/2023	12:57	-131.265	47.983	0	1575.10	0	2.3080	0	34.5160	0	27.568	0	1556.008	0	28.2	4	8.6	4	-1E+10	1	-1E+10	1	-1E+10	1	-1E+10	1	-1E+10	1	-1E+10	1
4902551	97	C	04/21/2023	12:57	-131.265	47.983	0	1585.40	0	2.2920	0	34.5180	0	27.571	0	1566.145	0	28.7	4	8.7	4	-1E+10	1	-1E+10	1	-1E+10	1	-1E+10	1	-1E+10	1	-1E+10	1
4902551	97	C	04/21/2023	12:57	-131.265	47.983	0	1595.30	0	2.2840	0	34.5200	0	27.573	0	1575.888	0	29.5	4	8.9	4	-1E+10	1	-1E+10	1	-1E+10	1	-1E+10	1	-1E+10	1	-1E+10	1
4902551	97	C	04/21/2023	12:57	-131.265	47.983	0	1605.10	0	2.2740	0	34.5220	0	27.575	0	1585.532	0	30.1	4	9.1	4	-1E+10	1	-1E+10	1	-1E+10	1	-1E+10	1	-1E+10	1	-1E+10	1
4902551	97	C	04/21/2023	12:57	-131.265	47.983	0	1615.50	0	2.2590	0	34.5250	0	27.579	0	1595.766	0	30.8	4	9.3	4	-1E+10	1	-1E+10	1	-1E+10	1	-1E+10	1	-1E+10	1	-1E+10	1
4902551	97	C	04/21/2023	12:57	-131.265	47.983	0	1625.50	0	2.2520	0	34.5260	0	27.581	0	1605.606	0	31.4	4	9.5	4	-1E+10	1	-1E+10	1	-1E+10	1	-1E+10	1	-1E+10	1	-1E+10	1
4902551	97	C	04/21/2023	12:57	-131.265	47.983	0	1635.40	0	2.2420	0	34.5280	0	27.583	0	1615.347	0	31.8	4	9.7	4	-1E+10	1	-1E+10	1	-1E+10	1	-1E+10	1	-1E+10	1	-1E+10	1
4902551	97	C	04/21/2023	12:57	-131.265	47.983	0	1645.30	0	2.2290	0	34.5300	0	27.586	0	1625.088	0	32.0	4	9.7	4	-1E+10	1	-1E+10	1	-1E+10	1	-1E+10	1	-1E+10	1	-1E+10	1
4902551	97	C	04/21/2023	12:57	-131.265	47.983	0	1655.20	0	2.2210	0	34.5300	0	27.586	0	1634.828	0	32.5	4	9.8	4	-1E+10	1	-1E+10	1	-1E+10	1	-1E+10	1	-1E+10	1	-1E+10	1
4902551	97	C	04/21/2023	12:57	-131.265	47.983	0	1665.70	0	2.2120	0	34.5330	0	27.590	0	1645.158	0	33.1	4	10.0	4	-1E+10	1	-1E+10	1	-1E+10	1	-1E+10	1	-1E+10	1	-1E+10	1
4902551	97	C	04/21/2023	12:57	-131.265	47.983	0	1675.70	0	2.2010	0	34.5350	0	27.592	0	1654.996	0	33.6	4	10.2	4	-1E+10	1	-1E+10	1	-1E+10	1	-1E+10	1	-1E+10	1	-1E+10	1
4902551	97	C	04/21/2023	12:57	-131.265	47.983	0	1685.60	0	2.1850	0	34.5360	0	27.594	0	1664.734	0	33.9	4	10.3	4	-1E+10	1	-1E+10	1	-1E+10	1	-1E+10	1	-1E+10	1	-1E+10	1
4902551	97	C	04/21/2023	12:57	-131.265	47.983	0	1696.00	0	2.1760	0	34.5380	0	27.597	0	1674.965	0	34.3	4	10.4	4	-1E+10	1	-1E+10	1	-1E+10	1	-1E+10	1	-1E+10	1	-1E+10	1
4902551	97	C	04/21/2023	12:57	-131.265	47.983	0	1705.50	0	2.1680	0	34.5390	0	27.598	0	1684.309	0	34.9	4	10.6	4	-1E+10	1	-1E+10	1	-1E+10	1	-1E+10	1	-1E+10	1	-1E+10	1
4902551	97	C	04/21/2023	12:57	-131.265	47.983	0	1715.30	0	2.1570	0	34.5410	0	27.601	0	1693.948	0	35.5	4	10.8	4	-1E+10	1	-1E+10	1	-1E+10	1	-1E+10	1	-1E+10	1	-1E+10	1
4902551	97	C	04/21/2023	12:57	-131.265	47.983	0	1725.10	0	2.1490	0	34.5430	0	27.603	0	1703.587	0	36.1	4	10.9	4	-1E+10	1	-1E+10	1	-1E+10	1	-1E+10	1	-1E+10	1	-1E+10	1
4902551	97	C	04/21/2023	12:57	-131.265	47.983	0	1735.20	0	2.1390	0	34.5440	0	27.605	0	1713.520	0	36.8	4	11.1	4	-1E+10	1	-1E+10	1	-1E+10	1	-1E+10	1	-1E+10	1	-1E+10	1
4902551	97	C	04/21/2023	12:57	-131.265	47.983	0	1745.30	0	2.1320	0	34.5460	0	27.607	0	1723.453	0	37.4	4	11.3	4	-1E+10	1	-1E+10	1	-1E+10	1	-1E+10	1	-1E+10	1	-1E+10	1
4902551	97	C	04/21/2023	12:57	-131.265	47.983	0	1755.40	0	2.1240	0	34.5470	0	27.608	0	1733.385	0	38.2	4	11.5	4	-1E+10	1	-1E+10	1	-1E+10	1	-1E+10	1	-1E+10	1	-1E+10	1
4902551	97	C	04/21/2023	12:57	-131.265	47.983	0	1765.50	0	2.1110	0	34.5500	0	27.612	0	1743.317	0	39.1	4	11.8	4	-1E+10	1	-1E+10	1	-1E+10	1	-1E+10	1	-1E+10	1	-1E+10	1
4902551	97	C	04/21/2023	12:57	-131.265	47.983	0	1775.40	0	2.1000	0	34.5520	0	27.614	0	1753.052	0	39.9	4	12.1	4	-1E+10	1	-1E+10	1	-1E+10	1	-1E+10	1	-1E+10	1	-1E+10	1
4902551	97	C	04/21/2023	12:57	-131.265	47.983	0	1785.10	0	2.0910	0	34.5540	0	27.617	0	1762.590	0	40.5	4	12.2	4	-1E+10	1	-1E+10	1	-1E+10	1	-1E+10	1	-1E+10	1	-1E+10	1
4902551	97	C	04/21/2023	12:57	-131.265	47.983	0	1795.30	0	2.0830	0	34.5550	0	27.618	0	1772.619	0	41.2	4	12.5	4	-1E+10	1	-1E+10	1	-1E+10	1	-1E+10	1	-1E+10	1	-1E+10	1
4902551	97	C	04/21/2023	12:57	-131.265	47.983	0	1805.50	0	2.0770	0	34.5570	0	27.620	0	1782.647	0	42.0	4	12.7	4	-1E+10	1	-1E+10	1	-1E+10	1	-1E+10	1	-1E+10	1	-1E+10	1
4902551	97	C	04/21/2023	12:57	-131.265	47.983	0	1815.40	0	2.0670	0	34.5590	0	27.623	0	1792.380	0	43.0	4	13.0	4	-1E+10	1	-1E+10	1	-1E+10	1	-1E+10	1	-1E+10	1	-1E+10	1
4902551	97	C	04/21/2023	12:57	-131.265	47.983	0	1825.50	0	2.0550	0	34.5610	0	27.625	0	1802.309	0	43.9	4	13.3	4	-1E+10	1	-1E+10	1	-1E+10	1	-1E+10	1	-1E+10	1	-1E+10	1
4902551	97	C	04/21/2023	12:57	-131.265	47.983	0	1835.60	0	2.0450	0	34.5630	0	27.628	0	1812.238	0	44.7	4	13.5	4	-1E+10	1	-1E+10	1	-1E+10	1	-1E+10	1	-1E+10	1	-1E+10	1
4902551	97	C	04/21/2023	12:57	-131.265	47.983	0	1845.50	0	2.0340	0	34.5650	0	27.630	0	1821.969	0	45.2	4	13.6	4	-1E+10	1	-1E+10	1	-1E+10	1	-1E+10	1	-1E+10	1	-1E+10	1
4902551	97	C	04/21/2023	12:57	-131.265	47.983	0	1855.10	0	2.0290	0	34.5660	0	27.631	0	1831.405	0	45.7	4	13.8	4	-1E+10	1	-1E+10	1	-1E+10	1	-1E+10	1	-1E+10	1	-1E+10	1
4902551	97	C	04/21/2023	12:57	-131.265	47.983	0	1865.40	0	2.0210	0	34.5670	0	27.633	0	1841.529	0	46.5	4	14.0	4	-1E+10	1	-1E+10	1	-1E+10	1	-1E+10	1	-1E+10	1	-1E+10	1
4902551	97	C	04/21/2023	12:57	-131.265	47.983	0	1875.90	0	2.0100	0	34.5690	0	27.635	0	1851.849	0	47.4	4	14.3	4	-1E+10	1	-1E+10	1	-1E+10	1	-1E+10	1	-1E+10	1	-1E+10	1
4902551	97	C	04/21/2023	12:57	-131.265	47.983	0	1885.70	0	1.9990	0	34.5720	0	27.639	0	1861.481	0	47.9	4	14.5	4	-1E+10	1	-1E+10	1	-1E+10	1	-1E+10	1	-1E+10	1	-1E+10	1
4902551	97	C	04/21/2023	12:57	-131.265	47.983	0	1895.30	0	1.9960	0	34.5720	0	27.639	0	1870.915	0	48.3	4	14.6	4	-1E+10	1	-1E+10	1	-1E+10	1	-1E+10	1	-1E+10	1	-1E+10	1
4902551	97	C	04/21/2023	12:57	-131.265	47.983	0	1905.80	0	1.9890	0	34.5730	0	27.640	0	1881.234	0	48.8	4	14.7	4	-1E+10	1	-1E+10	1	-1E+10	1	-1E+10	1	-1E+10	1	-1E+10	1
4902551	97	C	04/21/2023	12:57	-131.265	47.983	0	1915.50	0	1.9870	0	34.5740	0	27.642	0	1890.766	0	49.1	4	14.8	4	-1E+10	1	-1E+10	1	-1E+10	1	-1E+10	1	-1E+10	1	-1E+10	1
4902551	97	C	04/21/2023	12:57	-131.265	47.983	0	1925.20	0	1.9830	0	34.5750	0	27.643	0	1900.297	0	49.6	4	14.9	4	-1E+10	1	-1E+10	1	-1E+10	1	-1E+10	1	-1E+10	1	-1E+10	1
4902551	97	C	04/21/2023	12:57	-131.265	47.983	0	1935.30	0	1.9770	0	34.5760	0	27.644	0	1910.221	0	50.0	4	15.1	4	-1E+10	1	-1E+10	1	-1E+10	1	-1E+10	1	-1E+10	1	-1E+10	1
4902551	97	C	04/21/2023	12:57	-131.265	47.983	0	1945.50	0	1.9720	0	34.5770	0	27.645	0	1920.243	0	50.5	4	15.2	4	-1E+10	1	-1E+10	1	-1E+10	1	-1E+10	1	-1E+10	1	-1E+10	1
4902551	97	C	04/21/2023	12:57	-131.265	47.983	0	1955.40	0	1.9660	0	34.5790	0	27.647	0	1929.970	0	51.1	4	15.4	4	-1E+10	1	-1E+10	1	-1E+10	1	-1E+10	1	-1E+10	1	-1E+10	1
4902551	97	C	04/21/2023	12:57	-131.265	47.983	0	1965.40	0	1.9600	0	34.5800	0	27.649	0	1939.794	0	51.6	4	15.5	4	-1E+10	1	-1E+10	1	-1E+10	1	-1E+10	1	-1E+10	1	-1E+10	1
4902551	97	C	04/21/2023	12:57	-131.265	47.983	0	1973.20	0	1.9520	0	34.5810	0	27.650	0	1947.457	0	51.7	4	15.6	4	-1E+10	1	-1E+10	1	-1E+10	1	-1E+10	1	-1E+10	1	-1E+10	1
4902551	97	C	04/21/2023	12:57	-131.265	47.983	0																										
4902551	98	C	05/01/2023	18:08	-131.290	47.998	0	0.40	0	8.5070	0	32.3100	0	25.088	0	0.397	0	277.4	4	95.9	4	-1E+10	1	-1E+10	1	-1E+10	1	-1E+10	1	-1E+10	1	-1E+10	1
4902551	98	C	05/01/2023	18:08	-131.290	47.998	0	0.80	0	8.5030	0	32.3120	0	25.090	0	0.793	0	-1e10	1	-1e10	1	-1E+10	1	-1E+10	1	-1E+10	1	-1E+10	1	-1E+10	1	-1E+10	1
4902551	98	C	05/01/2023	18:08	-131.290	47.998	0	1.00	0	8.5023	0	32.3128	0	25.091	0	0.992	0	277.6	4	95.9	4	-1E+10	1	-1E+10	1	-1E+10	1	-1E+10	1	-1E+10	1	-1E+10	1
4902551	98	C	05/01/2023	18:08	-131.290	47.998	0	1.30	0	8.5013	0	32.3141	0	25.092	0	1.289	0	277.5	4	95.9	4	-1E+10	1	-1E+10	1	-1E+10	1	-1E+10	1	-1E+10	1	-1E+10	1
4902551	98	C	05/01/2023	18:08	-131.290	47.998	0	2.00	0	8.4990	0	32.3170	0	25.094	0	1.983	0	277.3	4	95.9	4	-1E+10	1	-1E+10	1	-1E+10	1	-1E+10	1	-1E+10	1	-1E+10	1
4902551	98	C	05/01/2023	18:08	-131.290	47.998	0	3.00	0	8.4980	0	32.3150	0	25.093	0	2.975	0	277.4	4	95.9	4	-1E+10	1	-1E+10	1	-1E+10	1	-1E+10	1	-1E+10	1	-1E+10	1
4902551	98	C	05/01/2023	18:08	-131.290	47.998	0	3.90	0	8.4960	0	32.3180	0	25.096	0	3.867	0	277.2	4	95.8	4	-1E+10	1	-1E+10	1	-1E+10	1	-1E+10	1	-1E+10	1	-1E+10	1
4902551	98	C	05/01/2023	18:08	-131.290	47.998	0	5.00	0	8.4890	0	32.3250	0	25.102	0	4.958	0	277.1	4	95.8	4	-1E+10	1	-1E+10	1	-1E+10	1	-1E+10	1	-1E+10	1	-1E+10	1
4902551	98	C	05/01/2023	18:08	-131.290	47.998	0	6.10	0	8.4880	0	32.3260	0	25.103	0	6.049	0	277.0	4	95.7	4	-1E+10	1	-1E+10	1	-1E+10	1	-1E+10	1	-1E+10	1	-1E+10	1
4902551	98	C	05/01/2023	18:08	-131.290	47.998	0	7.00	0	8.4870	0	32.3260	0	25.103	0	6.941	0	277.0	4	95.7	4	-1E+10	1	-1E+10	1	-1E+10	1	-1E+10	1	-1E+10	1	-1E+10	1
4902551	98	C	05/01/2023	18:08	-131.290	47.998	0	7.90	0	8.4880	0	32.3260	0	25.103	0	7.834	0	277.0	4	95.7	4	-1E+10	1	-1E+10	1	-1E+10	1	-1E+10	1	-1E+10	1	-1E+10	1
4902551	98	C	05/01/2023	18:08	-131.290	47.998	0	8.80	0	8.4700	0	32.3250	0	25.105	0	8.726	0	277.0	4	95.7	4	-1E+10	1	-1E+10	1	-1E+10	1	-1E+10	1	-1E+10	1	-1E+10	1
4902551	98	C	05/01/2023	18:08	-131.290	47.998	0	10.00	0	8.4610	0	32.3250	0	25.106	0	9.916	0	277.0	4	95.7	4	-1E+10	1	-1E+10	1	-1E+10	1	-1E+10	1	-1E+10	1	-1E+10	1
4902551	98	C	05/01/2023	18:08	-131.290	47.998	0	11.20	0	8.4630	0	32.3240	0	25.105	0	11.106	0	277.1	4	95.7	4	-1E+10	1	-1E+10	1	-1E+10	1	-1E+10	1	-1E+10	1	-1E+10	1
4902551	98	C	05/01/2023	18:08	-131.290	47.998	0	12.00	0	8.4570	0	32.3310	0	25.112	0	11.899	0	277.1	4	95.7	4	-1E+10	1	-1E+10	1	-1E+10	1	-1E+10	1	-1E+10	1	-1E+10	1
4902551	98	C	05/01/2023	18:08	-131.290	47.998	0	13.10	0	8.3980	0	32.3320	0	25.121	0	12.990	0	277.4	4	95.7	4	-1E+10	1	-1E+10	1	-1E+10	1	-1E+10	1	-1E+10	1	-1E+10	1
4902551	98	C	05/01/2023	18:08	-131.290	47.998	0	14.10	0	8.3890	0	32.3260	0	25.118	0	13.981	0	277.3	4	95.6	4	-1E+10	1	-1E+10	1	-1E+10	1	-1E+10	1	-1E+10	1	-1E+10	1
4902551	98	C	05/01/2023	18:08	-131.290	47.998	0	14.80	0	8.3950	0	32.3260	0	25.117	0	14.675	0	277.4	4	95.7	4	-1E+10	1	-1E+10	1	-1E+10	1	-1E+10	1	-1E+10	1	-1E+10	1
4902551	98	C	05/01/2023	18:08	-131.290	47.998	0	15.80	0	8.3720	0	32.3290	0	25.123	0	15.667	0	277.6	4	95.7	4	-1E+10	1	-1E+10	1	-1E+10	1	-1E+10	1	-1E+10	1	-1E+10	1
4902551	98	C	05/01/2023	18:08	-131.290	47.998	0	17.10	0	8.3230	0	32.3250	0	25.127	0	16.956	0	277.9	4	95.7	4	-1E+10	1	-1E+10	1	-1E+10	1	-1E+10	1	-1E+10	1	-1E+10	1
4902551	98	C	05/01/2023	18:08	-131.290	47.998	0	18.00	0	8.2450	0	32.3240	0	25.138	0	17.848	0	278.3	4	95.7	4	-1E+10	1	-1E+10	1	-1E+10	1	-1E+10	1	-1E+10	1	-1E+10	1
4902551	98	C	05/01/2023	18:08	-131.290	47.998	0	19.00	0	8.1220	0	32.3290	0	25.160	0	18.840	0	278.8	4	95.6	4	-1E+10	1	-1E+10	1	-1E+10	1	-1E+10	1	-1E+10	1	-1E+10	1
4902551	98	C	05/01/2023	18:08	-131.290	47.998	0	20.20	0	8.0100	0	32.3360	0	25.181	0	20.030	0	279.3	4	95.5	4	-1E+10	1	-1E+10	1	-1E+10	1	-1E+10	1	-1E+10	1	-1E+10	1
4902551	98	C	05/01/2023	18:08	-131.290	47.998	0	20.80	0	7.9810	0	32.3270	0	25.178	0	20.624	0	279.4	4	95.5	4	-1E+10	1	-1E+10	1	-1E+10	1	-1E+10	1	-1E+10	1	-1E+10	1
4902551	98	C	05/01/2023	18:08	-131.290	47.998	0	21.90	0	7.9410	0	32.3290	0	25.186	0	21.715	0	279.5	4	95.4	4	-1E+10	1	-1E+10	1	-1E+10	1	-1E+10	1	-1E+10	1	-1E+10	1
4902551	98	C	05/01/2023	18:08	-131.290	47.998	0	22.90	0	7.9200	0	32.3290	0	25.189	0	22.707	0	279.5	4	95.4	4	-1E+10	1	-1E+10	1	-1E+10	1	-1E+10	1	-1E+10	1	-1E+10	1
4902551	98	C	05/01/2023	18:08	-131.290	47.998	0	24.10	0	7.9160	0	32.3290	0	25.189	0	23.896	0	279.5	4	95.4	4	-1E+10	1	-1E+10	1	-1E+10	1	-1E+10	1	-1E+10	1	-1E+10	1
4902551	98	C	05/01/2023	18:08	-131.290	47.998	0	24.80	0	7.9140	0	32.3290	0	25.190	0	24.590	0	279.5	4	95.4	4	-1E+10	1	-1E+10	1	-1E+10	1	-1E+10	1	-1E+10	1	-1E+10	1
4902551	98	C	05/01/2023	18:08	-131.290	47.998	0	25.70	0	7.9100	0	32.3300	0	25.191	0	25.483	0	279.5	4	95.4	4	-1E+10	1	-1E+10	1	-1E+10	1	-1E+10	1	-1E+10	1	-1E+10	1
4902551	98	C	05/01/2023	18:08	-131.290	47.998	0	27.10	0	7.9050	0	32.3300	0	25.192	0	26.871	0	279.5	4	95.3	4	-1E+10	1	-1E+10	1	-1E+10	1	-1E+10	1	-1E+10	1	-1E+10	1
4902551	98	C	05/01/2023	18:08	-131.290	47.998	0	28.00	0	7.9020	0	32.3290	0	25.191	0	27.763	0	279.5	4	95.3	4	-1E+10	1	-1E+10	1	-1E+10	1	-1E+10	1	-1E+10	1	-1E+10	1
4902551	98	C	05/01/2023	18:08	-131.290	47.998	0	28.70	0	7.9010	0	32.3290	0	25.192	0	28.457	0	279.5	4	95.3	4	-1E+10	1	-1E+10	1	-1E+10	1	-1E+10	1	-1E+10	1	-1E+10	1
4902551	98	C	05/01/2023	18:08	-131.290	47.998	0	29.70	0	7.9000	0	32.3290	0	25.192	0	29.449	0	279.5	4	95.3	4	-1E+10	1	-1E+10	1	-1E+10	1	-1E+10	1	-1E+10	1	-1E+10	1
4902551	98	C	05/01/2023	18:08	-131.290	47.998	0	30.70	0	7.8910	0	32.3290	0	25.193	0	30.440	0	279.4	4	95.3	4	-1E+10	1	-1E+10	1	-1E+10	1	-1E+10	1	-1E+10	1	-1E+10	1
4902551	98	C	05/01/2023	18:08	-131.290	47.998	0	31.80	0	7.8830	0	32.3300	0	25.195	0	31.531	0	279.3	4	95.2	4	-1E+10	1	-1E+10	1	-1E+10	1	-1E+10	1	-1E+10	1	-1E+10	1
4902551	98	C	05/01/2023	18:08	-131.290	47.998	0	32.80	0	7.8700	0	32.3290	0	25.196	0	32.522	0	279.3	4	95.2	4	-1E+10	1	-1E+10	1	-1E+10	1	-1E+10	1	-1E+10	1	-1E+10	1
4902551	98	C	05/01/2023	18:08	-131.290	47.998	0	33.90	0	7.8570	0	32.3300	0	25.199	0	33.613	0	279.2	4	95.1	4	-1E+10	1	-1E+10	1	-1E+10	1	-1E+10	1	-1E+10	1	-1E+10	1
4902551	98	C	05/01/2023	18:08	-131.290	47.998	0	35.00	0	7.8410	0	32.3310	0	25.202	0	34.703	0	279.2	4	95.1	4	-1E+10	1	-1E+10	1	-1E+10	1	-1E+10	1	-1E+10	1	-1E+10	1
4902551	98	C	05/01/2023	18:08	-131.290	47.998	0	36.00	0	7.8320	0	32.3310	0	25.203	0	35.695	0	279.1	4	95.0	4	-1E+10	1	-1E+10	1	-1E+10	1	-1E+10	1	-1E+10	1	-1E+10	1
4902551	98	C	05/01/2023	18:08	-131.290	47.998	0	37.10	0	7.8250	0	32.3310	0	25.204	0	36.785	0	278.9	4	95.0	4	-1E+10	1	-1E+10	1	-1E+10	1	-1E+10	1	-1E+10	1	-1E+10	1
4902551	98	C	05/01/2023	18:08	-131.290	47.998	0	37.90	0	7.8190	0	32.3310	0	25.205	0	37.579	0	278.9	4	94.9	4	-1E+10	1	-1E+10	1	-1E+10	1	-1E+10	1	-1E+10	1	-1E+10	1
4902551	98	C	05/01/2023	18:08	-131.290	47.998	0	38.70	0	7.8150	0	32.3310	0	25.206	0	38.372	0	278.7	4	94.9	4	-1E+10	1	-1E+10	1	-1E+10	1	-1E+10	1	-1E+10	1	-1E+10	1
4902551	98	C	05/01/2023	18:08	-131.290	47.998	0	39.80	0	7.8060	0	32.3320	0	25.208	0	39.462	0	278.6	4	94.8	4	-1E+10	1	-1E+10	1	-1E+10	1	-1E+10	1	-1E+10	1	-1E+10	1
4902551	98	C	05/01/2023	18:08	-131.290	47.998	0	40.80	0	7.7940	0	32.3320	0	25.209	0	40.454	0	278.5	4	94.8	4	-1E+10	1	-1E+10	1	-1E+10	1	-1E+10	1	-1E+10	1	-1E+10	1
4902551	98	C	05/01/2023	18:08	-131.290	47.998	0	41.90	0	7.7710	0	32.3340	0	25.214	0	41.544	0	278.4	4	94.7	4	-1E+10	1	-1E+10	1	-1E+10	1	-1E+10	1	-1E+10	1	-1E+10	1
4902551	98	C	05/01/2023	18:08	-131.290	47.998	0	43.00	0	7.7570	0	32.3330	0	25.215	0	42.635	0	278.2	4	94.6	4	-1E+10	1	-1E+10	1	-1E+10	1	-1E+10	1	-1E+10	1	-1E+10	1
4902551	98	C	05/01/2023	18:08	-131.290	47.998	0	44.10	0	7.7410	0	32.3340	0	25.218	0	43.725	0	278.1	4	94.5	4	-1E+10	1	-1E+10	1	-1E+10	1	-1E+10	1	-1E+10	1	-1E+10	1
4902551	98	C	05/01/2023	18:08	-131.290	47.998	0	44.90	0	7.7310	0	32.3340	0	25.220	0	44.518	0	278.1	4	94.5	4	-1E+10	1	-1E+10	1	-1E+10	1	-1E+10	1	-1E+10	1	-1E+10	1
4902551	98	C	05/01/2023	18:08	-131.290	47.998	0	45.80	0	7.7280	0	32.3340	0	25.220	0	45.411	0	278.0	4	94.4	4	-1E+10	1	-1E+10	1	-1E+10	1	-1E+10	1	-1E+10	1	-1E+10	1
4902551	98	C	05/01/2023	18:08	-131.290	47.998	0	46.80	0	7.7200	0	32.3350	0	25.222	0	46.402	0	277.9	4	94.4	4	-1E+10	1	-1E+10	1	-1E+10	1	-1E+10	1	-1E+10	1	-1E+10	1
4902551	98	C	05/01/2023	18:08	-131.290	47.998	0	47.90	0	7.7110	0	32.3350	0	25.223	0	47.493	0	277.8	4	94.3	4	-1E+10	1	-1E+10	1	-1E+10	1	-1E+10	1	-1E+10	1	-1E+10	1
4902551	98	C	05/01/2023	18:08	-131.290	47.998	0	49.00	0	7.7090	0	32.3340	0	25.223	0	48.583	0	277.6	4	94.3	4	-1E+10	1	-1E+10	1	-1E+10	1	-1E+10	1	-1E+10	1	-1E+10	1
4902551	98	C	05/01/2023	18:08	-131.290	47.998	0	50.10	0	7.7080	0	32.3350	0	25.224	0	49.674	0	277.5	4	94.2	4	-1E+10	1	-1E+10	1	-1E+10	1	-1E+10	1	-1E+10	1	-1E+10	1
4902551	98	C	05/01/2023	18:08	-131.290	47.998	0	51.00	0	7.7070	0	32.3350	0	25.224	0	50.566	0	277.3	4	94.2	4	-1E+10	1	-1E+10	1	-1E+10	1	-1E+10	1	-1E+10	1	-1E+10	1
4902551	98	C	05/01/2023	18:08	-131.290	47.998	0	51.80	0	7.7040	0	32.3360	0	25.225	0	51.359	0	277.2	4	94.1	4	-1E+10	1	-1E+10	1	-1E+10	1	-1E+10	1	-1E+10	1	-1E+10	1
4902551	98	C	05/01/2023	18:08	-131.290	47.998	0	52.90	0	7.6960	0	32.3360	0	25.226	0	52.449	0	277.1	4	94.1	4	-1E+10	1	-1E+10	1	-1E+10	1	-1E+10	1	-1E+10	1	-1E+10	1
4902551	98	C	05/01/2023	18:08	-131.290	47.998	0	54.00	0	7.6920	0	32.3380	0	25.229	0	53.540	0	276.9	4	94.0	4	-1E+10	1	-1E+10	1	-1E+10	1	-1E+10	1	-1E+10	1	-1E+10	1
4902551	98	C	05/01/2023	18:08	-131.290	47.998	0	54.90	0	7.6900	0	32.3370	0	25.228	0	54.432	0	276.8	4	94.0	4	-1E+10	1	-1E+10	1	-1E+10	1	-1E+10	1	-1E+10	1	-1E+10	1
4902551	98	C	05/01/2023	18:08	-131.290	47.998	0	55.70	0	7.6860	0	32.3370	0	25.229	0	55.225	0	276.8	4	94.0	4	-1E+10	1	-1E+10	1	-1E+10	1	-1E+10	1	-1E+10	1	-1E+10	1
4902551	98	C	05/01/2023	18:08	-131.290	47.998	0	56.90	0	7.6830	0	32.3370	0	25.229	0	56.415	0	276.7	4	93.9	4	-1E+10	1	-1E+10	1	-1E+10	1	-1E+10	1	-1E+10	1	-1E+10	1
4902551	98	C	05/01/2023	18:08	-131.290	47.998	0	58.00	0	7.6790	0	32.3370	0	25.230	0	57.505	0	276.6	4	93.9	4	-1E+10	1	-1E+10	1	-1E+10	1	-1E+10	1	-1E+10	1	-1E+10	1
4902551	98	C	05/01/2023	18:08	-131.290	47.998	0	58.90	0	7.6780	0	32.3370	0	25.230	0	58.397	0	276.5	4	93.8	4	-1E+10	1	-1E+10	1	-1E+10	1	-1E+10	1	-1E+10	1	-1E+10	1
4902551	98	C	05/01/2023	18:08	-131.290	47.998	0	59.80	0	7.6760	0	32.3370	0	25.230	0	59.290	0	276.4	4	93.8	4	-1E+10	1	-1E+10	1	-1E+10	1	-1E+10	1	-1E+10	1	-1E+10	1
4902551	98	C	05/01/2023	18:08	-131.290	47.998	0	60.90	0	7.6750	0	32.3370	0	25.230	0	60.380	0	276.3	4	93.7	4	-1E+10	1	-1E+10	1	-1E+10	1	-1E+10	1	-1E+10	1	-1E+10	1
4902551	98	C	05/01/2023	18:08	-131.290	47.998	0	62.10	0	7.6740	0	32.3370	0	25.230	0	61.570	0	276.2	4	93.7	4	-1E+10	1	-1E+10	1	-1E+10	1	-1E+10	1	-1E+10	1	-1E+10	1
4902551	98	C	05/01/2023	18:08	-131.290	47.998	0	63.00	0	7.6730	0	32.3370	0	25.231	0	62.462	0	276.1	4	93.7	4	-1E+10	1	-1E+10	1	-1E+10	1	-1E+10	1	-1E+10	1	-1E+10	1
4902551	98	C	05/01/2023	18:08	-131.290	47.998	0	63.90	0	7.6720	0	32.3370	0	25.231	0	63.354	0	276.0	4	93.7	4	-1E+10	1	-1E+10	1	-1E+10	1	-1E+10	1	-1E+10	1	-1E+10	1
4902551	98	C	05/01/2023	18:08	-131.290	47.998	0	65.10	0	7.6720	0	32.3370	0	25.231	0	64.544	0	275.9	4	93.6	4	-1E+10	1	-1E+10	1	-1E+10	1	-1E+10	1	-1E+10	1	-1E+10	1
4902551	98	C	05/01/2023	18:08	-131.290	47.998	0	66.00	0	7.6720	0	32.3370	0	25.231	0	65.436	0	275.8	4	93.6	4	-1E+10	1	-1E+10	1	-1E+10	1	-1E+10	1	-1E+10	1	-1E+10	1
4902551	98	C	05/01/2023	18:08	-131.290	47.998	0	66.90	0	7.6720	0	32.3370	0	25.231	0	66.328	0	275.8	4	93.6	4	-1E+10	1	-1E+10	1	-1E+10	1	-1E+10	1	-1E+10	1	-1E+10	1
4902551	98	C	05/01/2023	18:08	-131.290	47.998	0	68.10	0	7.6720	0	32.3370	0	25.231	0	67.517	0	275.6	4	93.5	4	-1E+10	1	-1E+10	1	-1E+10	1	-1E+10	1	-1E+10	1	-1E+10	1
4902551	98	C	05/01/2023	18:08	-131.290	47.998	0	69.00	0	7.6730	0	32.3370	0	25.231	0	68.410	0	275.7	4	93.5	4	-1E+10	1	-1E+10	1	-1E+10	1	-1E+10	1	-1E+10	1	-1E+10	1
4902551	98	C	05/01/2023	18:08	-131.290	47.998	0	70.00	0	7.6720	0	32.3370	0	25.231	0	69.401	0	275.5	4	93.5	4	-1E+10	1	-1E+10	1	-1E+10	1	-1E+10	1	-1E+10	1	-1E+10	1
4902551	98	C	05/01/2023	18:08	-131.290	47.998	0	70.90	0	7.6720	0	32.3370	0	25.231	0	70.293	0	275.5	4	93.5	4	-1E+10	1	-1E+10	1	-1E+10	1	-1E+10	1	-1E+10	1	-1E+10	1
4902551	98	C	05/01/2023	18:08	-131.290	47.998	0	71.80	0	7.6720	0	32.3370	0	25.231	0	71.185	0	275.4	4	93.4	4	-1E+10	1	-1E+10	1	-1E+10	1	-1E+10	1	-1E+10	1	-1E+10	1
4902551	98	C	05/01/2023	18:08	-131.290	47.998	0	73.10	0	7.6710	0	32.3370	0	25.231	0	72.474	0	275.3	4	93.4	4	-1E+10	1	-1E+10	1	-1E+10	1	-1E+10	1	-1E+10	1	-1E+10	1
4902551	98	C	05/01/2023	18:08	-131.290	47.998	0	74.00	0	7.6710	0	32.3380	0	25.232	0	73.366	0	275.3	4	93.4	4	-1E+10	1	-1E+10	1	-1E+10	1	-1E+10	1	-1E+10	1	-1E+10	1
4902551	98	C	05/01/2023	18:08	-131.290	47.998	0	75.00	0	7.6690	0	32.3370	0	25.231	0	74.357	0	275.2	4	93.4	4	-1E+10	1	-1E+10	1	-1E+10	1	-1E+10	1	-1E+10	1	-1E+10	1
4902551	98	C	05/01/2023	18:08	-131.290	47.998	0	75.90	0	7.6690	0	32.3370	0	25.231	0	75.249	0	275.1	4	93.4	4	-1E+10	1	-1E+10	1	-1E+10	1	-1E+10	1	-1E+10	1	-1E+10	1
4902551	98	C	05/01/2023	18:08	-131.290	47.998	0	76.90	0	7.6670	0	32.3370	0	25.232	0	76.240	0	275.1	4	93.3	4	-1E+10	1	-1E+10	1	-1E+10	1	-1E+10	1	-1E+10	1	-1E+10	1
4902551	98	C	05/01/2023	18:08	-131.290	47.998	0	77.80	0	7.6660	0	32.3370	0	25.232	0	77.133	0	275.0	4	93.3	4	-1E+10	1	-1E+10	1	-1E+10	1	-1E+10	1	-1E+10	1	-1E+10	1
4902551	98	C	05/01/2023	18:08	-131.290	47.998	0	78.80	0	7.6640	0	32.3370	0	25.232	0	78.124	0	275.0	4	93.3	4	-1E+10	1	-1E+10	1	-1E+10	1	-1E+10	1	-1E+10	1	-1E+10	1
4902551	98	C	05/01/2023	18:08	-131.290	47.998	0	80.00	0	7.6620	0	32.3370	0	25.232	0	79.313	0	274.8	4	93.2	4	-1E+10	1	-1E+10	1	-1E+10	1	-1E+10	1	-1E+10	1	-1E+10	1
4902551	98	C	05/01/2023	18:08	-131.290	47.998	0	81.00	0	7.6600	0	32.3370	0	25.233	0	80.305	0	274.7	4	93.2	4	-1E+10	1	-1E+10	1	-1E+10	1	-1E+10	1	-1E+10	1	-1E+10	1
4902551	98	C	05/01/2023	18:08	-131.290	47.998	0	82.00	0	7.6560	0	32.3360	0	25.232	0	81.296	0	274.6	4	93.2	4	-1E+10	1	-1E+10	1	-1E+10	1	-1E+10	1	-1E+10	1	-1E+10	1
4902551	98	C	05/01/2023	18:08	-131.290	47.998	0	82.90	0	7.6550	0	32.3360	0	25.233	0	82.188	0	281.3	4	95.4	4	-1E+10	1	-1E+10	1	-1E+10	1	-1E+10	1	-1E+10	1	-1E+10	1
4902551	98	C	05/01/2023	18:08	-131.290	47.998	0	83.90	0	7.6550	0	32.3360	0	25.233	0	83.179	0	281.2	4	95.4	4	-1E+10	1	-1E+10	1	-1E+10	1	-1E+10	1	-1E+10	1	-1E+10	1
4902551	98	C	05/01/2023	18:08	-131.290	47.998	0	85.10	0	7.6540	0	32.3360	0	25.233	0	84.368	0	281.0	4	95.3	4	-1E+10	1	-1E+10	1	-1E+10	1	-1E+10	1	-1E+10	1	-1E+10	1
4902551	98	C	05/01/2023	18:08	-131.290	47.998	0	86.00	0	7.6540	0	32.3360	0	25.233	0	85.261	0	280.8	4	95.3	4	-1E+10	1	-1E+10	1	-1E+10	1	-1E+10	1	-1E+10	1	-1E+10	1
4902551	98	C	05/01/2023	18:08	-131.290	47.998	0	86.90	0	7.6530	0	32.3360	0	25.233	0	86.153	0	280.7	4	95.2	4	-1E+10	1	-1E+10	1	-1E+10	1	-1E+10	1	-1E+10	1	-1E+10	1
4902551	98	C	05/01/2023	18:08	-131.290	47.998	0	88.10	0	7.6560	0	32.3370	0	25.233	0	87.342	0	280.2	4	95.1	4	-1E+10	1	-1E+10	1	-1E+10	1	-1E+10	1	-1E+10	1	-1E+10	1
4902551	98	C	05/01/2023	18:08	-131.290	47.998	0	89.00	0	7.6560	0	32.3370	0	25.233	0	88.234	0	280.0	4	95.0	4	-1E+10	1	-1E+10	1	-1E+10	1	-1E+10	1	-1E+10	1	-1E+10	1
4902551	98	C	05/01/2023	18:08	-131.290	47.998	0	89.80	0	7.6560	0	32.3370	0	25.233	0	89.027	0	279.7	4	94.9	4	-1E+10	1	-1E+10	1	-1E+10	1	-1E+10	1	-1E+10	1	-1E+10	1
4902551	98	C	05/01/2023	18:08	-131.290	47.998	0	90.90	0	7.6550	0	32.3370	0	25.234	0	90.117	0	279.2	4	94.7	4	-1E+10	1	-1E+10	1	-1E+10	1	-1E+10	1	-1E+10	1	-1E+10	1
4902551	98	C	05/01/2023	18:08	-131.290	47.998	0	92.10	0	7.6540	0	32.3370	0	25.234	0	91.307	0	278.7	4	94.5	4	-1E+10	1	-1E+10	1	-1E+10	1	-1E+10	1	-1E+10	1	-1E+10	1
4902551	98	C	05/01/2023	18:08	-131.290	47.998	0	93.10	0	7.6540	0	32.3370	0	25.234	0	92.298	0	278.1	4	94.3	4	-1E+10	1	-1E+10	1	-1E+10	1	-1E+10	1	-1E+10	1	-1E+10	1
4902551	98	C	05/01/2023	18:08	-131.290	47.998	0	94.00	0	7.6540	0	32.3370	0	25.234	0	93.190	0	277.5	4	94.1	4	-1E+10	1	-1E+10	1	-1E+10	1	-1E+10	1	-1E+10	1	-1E+10	1
4902551	98	C	05/01/2023	18:08	-131.290	47.998	0	94.70	0	7.6520	0	32.3380	0	25.235	0	93.884	0	277.0	4	94.0	4	-1E+10	1	-1E+10	1	-1E+10	1	-1E+10	1	-1E+10	1	-1E+10	1
4902551	98	C	05/01/2023	18:08	-131.290	47.998	0	95.70	0	7.6510	0	32.3380	0	25.235	0	94.875	0	276.2	4	93.7	4	-1E+10	1	-1E+10	1	-1E+10	1	-1E+10	1	-1E+10	1	-1E+10	1
4902551	98	C	05/01/2023	18:08	-131.290	47.998	0	97.10	0	7.6480	0	32.3380	0	25.235	0	96.263	0	274.7	4	93.2	4	-1E+10	1	-1E+10	1	-1E+10	1	-1E+10	1	-1E+10	1	-1E+10	1
4902551	98	C	05/01/2023	18:08	-131.290	47.998	0	98.30	0	7.6460	0	32.3390	0	25.236	0	97.452	0	273.2	4	92.6	4	-1E+10	1	-1E+10	1	-1E+10	1	-1E+10	1	-1E+10	1	-1E+10	1
4902551	98	C	05/01/2023	18:08	-131.290	47.998	0	98.90	0	7.6430	0	32.3400	0	25.238	0	98.047	0	272.1	4	92.3	4	-1E+10	1	-1E+10	1	-1E+10	1	-1E+10	1	-1E+10	1	-1E+10	1
4902551	98	C	05/01/2023	18:08	-131.290	47.998	0	99.90	0	7.6330	0	32.3430	0	25.241	0	99.038	0	270.1	4	91.6	4	-1E+10	1	-1E+10	1	-1E+10	1	-1E+10	1	-1E+10	1	-1E+10	1
4902551	98	C	05/01/2023	18:08	-131.290	47.998	0	101.00	0	7.5970	0	32.3560	0	25.257	0	100.128	0	264.9	4	89.7	4	-1E+10	1	-1E+10	1	-1E+10	1	-1E+10	1	-1E+10	1	-1E+10	1
4902551	98	C	05/01/2023	18:08	-131.290	47.998	0	102.10	0	7.4860	0	32.4210	0	25.323	0	101.218	0	260.4	4	88.1	4	-1E+10	1	-1E+10	1	-1E+10	1	-1E+10	1	-1E+10	1	-1E+10	1
4902551	98	C	05/01/2023	18:08	-131.290	47.998	0	103.10	0	7.4140	0	32.4680	0	25.370	0	102.209	0	257.3	4	86.9	4	-1E+10	1	-1E+10	1	-1E+10	1	-1E+10	1	-1E+10	1	-1E+10	1
4902551	98	C	05/01/2023	18:08	-131.290	47.998	0	103.90	0	7.3720	0	32.4970	0	25.399	0	103.002	0	256.0	4	86.4	4	-1E+10	1	-1E+10	1	-1E+10	1	-1E+10	1	-1E+10	1	-1E+10	1
4902551	98	C	05/01/2023	18:08	-131.290	47.998	0	105.10	0	7.3360	0	32.5330	0	25.432	0	104.192	0	254.2	4	85.7	4	-1E+10	1	-1E+10	1	-1E+10	1	-1E+10	1	-1E+10	1	-1E+10	1
4902551	98	C	05/01/2023	18:08	-131.290	47.998	0	105.90	0	7.3390	0	32.5400	0	25.437	0	104.984	0	252.3	4	85.1	4	-1E+10	1	-1E+10	1	-1E+10	1	-1E+10	1	-1E+10	1	-1E+10	1
4902551	98	C	05/01/2023	18:08	-131.290	47.998	0	107.00	0	7.2850	0	32.5790	0	25.475	0	106.075	0	249.2	4	84.0	4	-1E+10	1	-1E+10	1	-1E+10	1	-1E+10	1	-1E+10	1	-1E+10	1
4902551	98	C	05/01/2023	18:08	-131.290	47.998	0	108.10	0	7.1950	0	32.6250	0	25.524	0	107.165	0	240.9	4	81.0	4	-1E+10	1	-1E+10	1	-1E+10	1	-1E+10	1	-1E+10	1	-1E+10	1
4902551	98	C	05/01/2023	18:08	-131.290	47.998	0	109.10	0	7.0460	0	32.6650	0	25.575	0	108.156	0	235.8	4	79.1	4	-1E+10	1	-1E+10	1	-1E+10	1	-1E+10	1	-1E+10	1	-1E+10	1
4902551	98	C	05/01/2023	18:08	-131.290	47.998	0	110.10	0	6.9640	0	32.7340	0	25.640	0	109.147	0	233.7	4	78.2	4	-1E+10	1	-1E+10	1	-1E+10	1	-1E+10	1	-1E+10	1	-1E+10	1
4902551	98	C	05/01/2023	18:08	-131.290	47.998	0	110.90	0	6.8780	0	32.7850	0	25.692	0	109.940	0	232.5	4	77.7	4	-1E+10	1	-1E+10	1	-1E+10	1	-1E+10	1	-1E+10	1	-1E+10	1
4902551	98	C	05/01/2023	18:08	-131.290	47.998	0	112.00	0	6.8260	0	32.8380	0	25.741	0	111.030	0	231.0	4	77.2	4	-1E+10	1	-1E+10	1	-1E+10	1	-1E+10	1	-1E+10	1	-1E+10	1
4902551	98	C	05/01/2023	18:08	-131.290	47.998	0	112.90	0	6.7650	0	32.8830	0	25.784	0	111.922	0	229.2	4	76.5	4	-1E+10	1	-1E+10	1	-1E+10	1	-1E+10	1	-1E+10	1	-1E+10	1
4902551	98	C	05/01/2023	18:08	-131.290	47.998	0	114.00	0	6.6630	0	32.9360	0	25.839	0	113.012	0	227.7	4	75.8	4	-1E+10	1	-1E+10	1	-1E+10	1	-1E+10	1	-1E+10	1	-1E+10	1
4902551	98	C	05/01/2023	18:08	-131.290	47.998	0	115.10	0	6.6270	0	32.9540	0	25.858	0	114.102	0	226.8	4	75.5	4	-1E+10	1	-1E+10	1	-1E+10	1	-1E+10	1	-1E+10	1	-1E+10	1
4902551	98	C	05/01/2023	18:08	-131.290	47.998	0	116.00	0	6.6080	0	32.9660	0	25.870	0	114.994	0	225.9	4	75.1	4	-1E+10	1	-1E+10	1	-1E+10	1	-1E+10	1	-1E+10	1	-1E+10	1
4902551	98	C	05/01/2023	18:08	-131.290	47.998	0	116.80	0	6.5790	0	32.9850	0	25.889	0	115.787	0	225.0	4	74.8	4	-1E+10	1	-1E+10	1	-1E+10	1	-1E+10	1	-1E+10	1	-1E+10	1
4902551	98	C	05/01/2023	18:08	-131.290	47.998	0	118.00	0	6.5390	0	33.0200	0	25.922	0	116.976	0	224.1	4	74.5	4	-1E+10	1	-1E+10	1	-1E+10	1	-1E+10	1	-1E+10	1	-1E+10	1
4902551	98	C	05/01/2023	18:08	-131.290	47.998	0	119.00	0	6.5240	0	33.0480	0	25.946	0	117.967	0	223.4	4	74.2	4	-1E+10	1	-1E+10	1	-1E+10	1	-1E+10	1	-1E+10	1	-1E+10	1
4902551	98	C	05/01/2023	18:08	-131.290	47.998	0	119.80	0	6.6040	0	33.0620	0	25.946	0	118.760	0	222.4	4	74.1	4	-1E+10	1	-1E+10	1	-1E+10	1	-1E+10	1	-1E+10	1	-1E+10	1
4902551	98	C	05/01/2023	18:08	-131.290	47.998	0	121.00	0	6.6320	0	33.1220	0	25.990	0	119.949	0	221.5	4	73.8	4	-1E+10	1	-1E+10	1	-1E+10	1	-1E+10	1	-1E+10	1	-1E+10	1
4902551	98	C	05/01/2023	18:08	-131.290	47.998	0	122.10	0	6.6260	0	33.1300	0	25.997	0	121.040	0	220.6	4	73.5	4	-1E+10	1	-1E+10	1	-1E+10	1	-1E+10	1	-1E+10	1	-1E+10	1
4902551	98	C	05/01/2023	18:08	-131.290	47.998	0	122.90	0	6.6150	0	33.1410	0	26.007	0	121.832	0	219.7	4	73.2	4	-1E+10	1	-1E+10	1	-1E+10	1	-1E+10	1	-1E+10	1	-1E+10	1
4902551	98	C	05/01/2023	18:08	-131.290	47.998	0	123.70	0	6.6030	0	33.1580	0	26.022	0	122.625	0	219.0	4	72.9	4	-1E+10	1	-1E+10	1	-1E+10	1	-1E+10	1	-1E+10	1	-1E+10	1
4902551	98	C	05/01/2023	18:08	-131.290	47.998	0	124.80	0	6.5730	0	33.1670	0	26.033	0	123.715	0	217.9	4	72.5	4	-1E+10	1	-1E+10	1	-1E+10	1	-1E+10	1	-1E+10	1	-1E+10	1
4902551	98	C	05/01/2023	18:08	-131.290	47.998	0	125.90	0	6.5550	0	33.1870	0	26.051	0	124.805	0	216.8	4	72.2	4	-1E+10	1	-1E+10	1	-1E+10	1	-1E+10	1	-1E+10	1	-1E+10	1
4902551	98	C	05/01/2023	18:08	-131.290	47.998	0	126.90	0	6.5370	0	33.2120	0	26.073	0	125.796	0	216.0	4	71.9	4	-1E+10	1	-1E+10	1	-1E+10	1	-1E+10	1	-1E+10	1	-1E+10	1
4902551	98	C	05/01/2023	18:08	-131.290	47.998	0	127.90	0	6.5240	0	33.2210	0	26.082	0	126.787	0	215.0	4	71.5	4	-1E+10	1	-1E+10	1	-1E+10	1	-1E+10	1	-1E+10	1	-1E+10	1
4902551	98	C	05/01/2023	18:08	-131.290	47.998	0	128.90	0	6.5180	0	33.2260	0	26.087	0	127.778	0	213.9	4	71.1	4	-1E+10	1	-1E+10	1	-1E+10	1	-1E+10	1	-1E+10	1	-1E+10	1
4902551	98	C	05/01/2023	18:08	-131.290	47.998	0	130.00	0	6.5020	0	33.2480	0	26.106	0	128.869	0	212.3	4	70.6	4	-1E+10	1	-1E+10	1	-1E+10	1	-1E+10	1	-1E+10	1	-1E+10	1
4902551	98	C	05/01/2023	18:08	-131.290	47.998	0	130.90	0	6.4730	0	33.2770	0	26.133	0	129.760	0	211.5	4	70.3	4	-1E+10	1	-1E+10	1	-1E+10	1	-1E+10	1	-1E+10	1	-1E+10	1
4902551	98	C	05/01/2023	18:08	-131.290	47.998	0	131.80	0	6.4670	0	33.2820	0	26.138	0	130.652	0	210.2	4	69.9	4	-1E+10	1	-1E+10	1	-1E+10	1	-1E+10	1	-1E+10	1	-1E+10	1
4902551	98	C	05/01/2023	18:08	-131.290	47.998	0	133.00	0	6.4320	0	33.3180	0	26.171	0	131.841	0	208.4	4	69.2	4	-1E+10	1	-1E+10	1	-1E+10	1	-1E+10	1	-1E+10	1	-1E+10	1
4902551	98	C	05/01/2023	18:08	-131.290	47.998	0	133.90	0	6.4120	0	33.3410	0	26.191	0	132.733	0	207.3	4	68.8	4	-1E+10	1	-1E+10	1	-1E+10	1	-1E+10	1	-1E+10	1	-1E+10	1
4902551	98	C	05/01/2023	18:08	-131.290	47.998	0	134.80	0	6.4050	0	33.3430	0	26.194	0	133.625	0	205.9	4	68.4	4	-1E+10	1	-1E+10	1	-1E+10	1	-1E+10	1	-1E+10	1	-1E+10	1
4902551	98	C	05/01/2023	18:08	-131.290	47.998	0	135.80	0	6.3940	0	33.3460	0	26.198	0	134.616	0	204.5	4	67.9	4	-1E+10	1	-1E+10	1	-1E+10	1	-1E+10	1	-1E+10	1	-1E+10	1
4902551	98	C	05/01/2023	18:08	-131.290	47.998	0	136.80	0	6.3320	0	33.3580	0	26.215	0	135.607	0	203.2	4	67.4	4	-1E+10	1	-1E+10	1	-1E+10	1	-1E+10	1	-1E+10	1	-1E+10	1
4902551	98	C	05/01/2023	18:08	-131.290	47.998	0	137.80	0	6.2980	0	33.3620	0	26.223	0	136.598	0	202.0	4	66.9	4	-1E+10	1	-1E+10	1	-1E+10	1	-1E+10	1	-1E+10	1	-1E+10	1
4902551	98	C	05/01/2023	18:08	-131.290	47.998	0	138.80	0	6.2850	0	33.3640	0	26.226	0	137.589	0	200.6	4	66.4	4	-1E+10	1	-1E+10	1	-1E+10	1	-1E+10	1	-1E+10	1	-1E+10	1
4902551	98	C	05/01/2023	18:08	-131.290	47.998	0	139.90	0	6.2600	0	33.3710	0	26.235	0	138.679	0	199.1	4	65.9	4	-1E+10	1	-1E+10	1	-1E+10	1	-1E+10	1	-1E+10	1	-1E+10	1
4902551	98	C	05/01/2023	18:08	-131.290	47.998	0	141.00	0	6.2280	0	33.3850	0	26.250	0	139.769	0	197.4	4	65.3	4	-1E+10	1	-1E+10	1	-1E+10	1	-1E+10	1	-1E+10	1	-1E+10	1
4902551	98	C	05/01/2023	18:08	-131.290	47.998	0	142.20	0	6.2050	0	33.4170	0	26.278	0	140.958	0	195.8	4	64.8	4	-1E+10	1	-1E+10	1	-1E+10	1	-1E+10	1	-1E+10	1	-1E+10	1
4902551	98	C	05/01/2023	18:08	-131.290	47.998	0	143.10	0	6.1810	0	33.4550	0	26.311	0	141.850	0	194.9	4	64.5	4	-1E+10	1	-1E+10	1	-1E+10	1	-1E+10	1	-1E+10	1	-1E+10	1
4902551	98	C	05/01/2023	18:08	-131.290	47.998	0	143.90	0	6.1790	0	33.4590	0	26.314	0	142.643	0	194.1	4	64.2	4	-1E+10	1	-1E+10	1	-1E+10	1	-1E+10	1	-1E+10	1	-1E+10	1
4902551	98	C	05/01/2023	18:08	-131.290	47.998	0	144.70	0	6.1800	0	33.4610	0	26.316	0	143.435	0	193.2	4	63.9	4	-1E+10	1	-1E+10	1	-1E+10	1	-1E+10	1	-1E+10	1	-1E+10	1
4902551	98	C	05/01/2023	18:08	-131.290	47.998	0	145.60	0	6.1730	0	33.4670	0	26.321	0	144.327	0	192.4	4	63.6	4	-1E+10	1	-1E+10	1	-1E+10	1	-1E+10	1	-1E+10	1	-1E+10	1
4902551	98	C	05/01/2023	18:08	-131.290	47.998	0	146.90	0	6.1540	0	33.4710	0	26.327	0	145.615	0	191.0	4	63.1	4	-1E+10	1	-1E+10	1	-1E+10	1	-1E+10	1	-1E+10	1	-1E+10	1
4902551	98	C	05/01/2023	18:08	-131.290	47.998	0	148.30	0	6.1410	0	33.4750	0	26.332	0	147.003	0	189.5	4	62.6	4	-1E+10	1	-1E+10	1	-1E+10	1	-1E+10	1	-1E+10	1	-1E+10	1
4902551	98	C	05/01/2023	18:08	-131.290	47.998	0	149.20	0	6.1290	0	33.4740	0	26.332	0	147.895	0	188.5	4	62.3	4	-1E+10	1	-1E+10	1	-1E+10	1	-1E+10	1	-1E+10	1	-1E+10	1
4902551	98	C	05/01/2023	18:08	-131.290	47.998	0	150.20	0	6.1030	0	33.4900	0	26.348	0	148.885	0	187.5	4	61.9	4	-1E+10	1	-1E+10	1	-1E+10	1	-1E+10	1	-1E+10	1	-1E+10	1
4902551	98	C	05/01/2023	18:08	-131.290	47.998	0	151.10	0	6.1020	0	33.4950	0	26.352	0	149.777	0	186.3	4	61.5	4	-1E+10	1	-1E+10	1	-1E+10	1	-1E+10	1	-1E+10	1	-1E+10	1
4902551	98	C	05/01/2023	18:08	-131.290	47.998	0	152.10	0	6.1080	0	33.5030	0	26.358	0	150.768	0	185.2	4	61.1	4	-1E+10	1	-1E+10	1	-1E+10	1	-1E+10	1	-1E+10	1	-1E+10	1
4902551	98	C	05/01/2023	18:08	-131.290	47.998	0	153.00	0	6.1300	0	33.5160	0	26.366	0	151.660	0	183.6	4	60.7	4	-1E+10	1	-1E+10	1	-1E+10	1	-1E+10	1	-1E+10	1	-1E+10	1
4902551	98	C	05/01/2023	18:08	-131.290	47.998	0	154.00	0	6.1360	0	33.5220	0	26.370	0	152.651	0	182.1	4	60.2	4	-1E+10	1	-1E+10	1	-1E+10	1	-1E+10	1	-1E+10	1	-1E+10	1
4902551	98	C	05/01/2023	18:08	-131.290	47.998	0	154.90	0	6.1330	0	33.5390	0	26.383	0	153.543	0	180.8	4	59.7	4	-1E+10	1	-1E+10	1	-1E+10	1	-1E+10	1	-1E+10	1	-1E+10	1
4902551	98	C	05/01/2023	18:08	-131.290	47.998	0	155.90	0	6.0850	0	33.5380	0	26.389	0	154.533	0	179.5	4	59.3	4	-1E+10	1	-1E+10	1	-1E+10	1	-1E+10	1	-1E+10	1	-1E+10	1
4902551	98	C	05/01/2023	18:08	-131.290	47.998	0	156.90	0	6.0590	0	33.5420	0	26.395	0	155.524	0	178.3	4	58.8	4	-1E+10	1	-1E+10	1	-1E+10	1	-1E+10	1	-1E+10	1	-1E+10	1
4902551	98	C	05/01/2023	18:08	-131.290	47.998	0	157.90	0	5.9990	0	33.5580	0	26.415	0	156.515	0	177.3	4	58.4	4	-1E+10	1	-1E+10	1	-1E+10	1	-1E+10	1	-1E+10	1	-1E+10	1
4902551	98	C	05/01/2023	18:08	-131.290	47.998	0	159.00	0	5.9870	0	33.5640	0	26.421	0	157.605	0	176.2	4	58.0	4	-1E+10	1	-1E+10	1	-1E+10	1	-1E+10	1	-1E+10	1	-1E+10	1
4902551	98	C	05/01/2023	18:08	-131.290	47.998	0	160.00	0	5.9690	0	33.5770	0	26.434	0	158.596	0	175.0	4	57.6	4	-1E+10	1	-1E+10	1	-1E+10	1	-1E+10	1	-1E+10	1	-1E+10	1
4902551	98	C	05/01/2023	18:08	-131.290	47.998	0	161.00	0	5.9560	0	33.5870	0	26.443	0	159.587	0	173.9	4	57.3	4	-1E+10	1	-1E+10	1	-1E+10	1	-1E+10	1	-1E+10	1	-1E+10	1
4902551	98	C	05/01/2023	18:08	-131.290	47.998	0	162.10	0	5.9550	0	33.5930	0	26.448	0	160.677	0	172.9	4	56.9	4	-1E+10	1	-1E+10	1	-1E+10	1	-1E+10	1	-1E+10	1	-1E+10	1
4902551	98	C	05/01/2023	18:08	-131.290	47.998	0	163.20	0	5.9380	0	33.6020	0	26.458	0	161.767	0	171.7	4	56.5	4	-1E+10	1	-1E+10	1	-1E+10	1	-1E+10	1	-1E+10	1	-1E+10	1
4902551	98	C	05/01/2023	18:08	-131.290	47.998	0	164.30	0	5.9320	0	33.6110	0	26.465	0	162.856	0	170.5	4	56.1	4	-1E+10	1	-1E+10	1	-1E+10	1	-1E+10	1	-1E+10	1	-1E+10	1
4902551	98	C	05/01/2023	18:08	-131.290	47.998	0	165.40	0	5.9580	0	33.6160	0	26.466	0	163.946	0	169.2	4	55.7	4	-1E+10	1	-1E+10	1	-1E+10	1	-1E+10	1	-1E+10	1	-1E+10	1
4902551	98	C	05/01/2023	18:08	-131.290	47.998	0	166.50	0	5.9620	0	33.6330	0	26.479	0	165.036	0	167.7	4	55.3	4	-1E+10	1	-1E+10	1	-1E+10	1	-1E+10	1	-1E+10	1	-1E+10	1
4902551	98	C	05/01/2023	18:08	-131.290	47.998	0	167.60	0	5.9650	0	33.6430	0	26.487	0	166.126	0	166.5	4	54.8	4	-1E+10	1	-1E+10	1	-1E+10	1	-1E+10	1	-1E+10	1	-1E+10	1
4902551	98	C	05/01/2023	18:08	-131.290	47.998	0	168.70	0	5.9530	0	33.6510	0	26.494	0	167.216	0	165.3	4	54.4	4	-1E+10	1	-1E+10	1	-1E+10	1	-1E+10	1	-1E+10	1	-1E+10	1
4902551	98	C	05/01/2023	18:08	-131.290	47.998	0	169.70	0	5.9270	0	33.6670	0	26.510	0	168.207	0	164.1	4	54.0	4	-1E+10	1	-1E+10	1	-1E+10	1	-1E+10	1	-1E+10	1	-1E+10	1
4902551	98	C	05/01/2023	18:08	-131.290	47.998	0	170.80	0	5.9020	0	33.6750	0	26.520	0	169.297	0	163.2	4	53.7	4	-1E+10	1	-1E+10	1	-1E+10	1	-1E+10	1	-1E+10	1	-1E+10	1
4902551	98	C	05/01/2023	18:08	-131.290	47.998	0	171.90	0	5.8460	0	33.6930	0	26.541	0	170.387	0	162.6	4	53.4	4	-1E+10	1	-1E+10	1	-1E+10	1	-1E+10	1	-1E+10	1	-1E+10	1
4902551	98	C	05/01/2023	18:08	-131.290	47.998	0	173.00	0	5.8440	0	33.6940	0	26.542	0	171.476	0	161.9	4	53.2	4	-1E+10	1	-1E+10	1	-1E+10	1	-1E+10	1	-1E+10	1	-1E+10	1
4902551	98	C	05/01/2023	18:08	-131.290	47.998	0	174.10	0	5.8430	0	33.6940	0	26.542	0	172.566	0	161.3	4	53.0	4	-1E+10	1	-1E+10	1	-1E+10	1	-1E+10	1	-1E+10	1	-1E+10	1
4902551	98	C	05/01/2023	18:08	-131.290	47.998	0	175.20	0	5.8430	0	33.6930	0	26.541	0	173.656	0	160.7	4	52.8	4	-1E+10	1	-1E+10	1	-1E+10	1	-1E+10	1	-1E+10	1	-1E+10	1
4902551	98	C	05/01/2023	18:08	-131.290	47.998	0	176.30	0	5.8420	0	33.6930	0	26.541	0	174.746	0	159.8	4	52.5	4	-1E+10	1	-1E+10	1	-1E+10	1	-1E+10	1	-1E+10	1	-1E+10	1
4902551	98	C	05/01/2023	18:08	-131.290	47.998	0	177.30	0	5.8360	0	33.6960	0	26.545	0	175.737	0	158.9	4	52.2	4	-1E+10	1	-1E+10	1	-1E+10	1	-1E+10	1	-1E+10	1	-1E+10	1
4902551	98	C	05/01/2023	18:08	-131.290	47.998	0	178.40	0	5.8280	0	33.6960	0	26.546	0	176.827	0	158.0	4	51.9	4	-1E+10	1	-1E+10	1	-1E+10	1	-1E+10	1	-1E+10	1	-1E+10	1
4902551	98	C	05/01/2023	18:08	-131.290	47.998	0	179.40	0	5.8260	0	33.6970	0	26.547	0	177.817	0	156.9	4	51.6	4	-1E+10	1	-1E+10	1	-1E+10	1	-1E+10	1	-1E+10	1	-1E+10	1
4902551	98	C	05/01/2023	18:08	-131.290	47.998	0	180.40	0	5.8070	0	33.7030	0	26.554	0	178.808	0	156.1	4	51.3	4	-1E+10	1	-1E+10	1	-1E+10	1	-1E+10	1	-1E+10	1	-1E+10	1
4902551	98	C	05/01/2023	18:08	-131.290	47.998	0	181.50	0	5.7940	0	33.7050	0	26.557	0	179.898	0	155.2	4	50.9	4	-1E+10	1	-1E+10	1	-1E+10	1	-1E+10	1	-1E+10	1	-1E+10	1
4902551	98	C	05/01/2023	18:08	-131.290	47.998	0	182.50	0	5.7860	0	33.7070	0	26.559	0	180.889	0	154.3	4	50.7	4	-1E+10	1	-1E+10	1	-1E+10	1	-1E+10	1	-1E+10	1	-1E+10	1
4902551	98	C	05/01/2023	18:08	-131.290	47.998	0	183.50	0	5.7840	0	33.7070	0	26.560	0	181.879	0	153.3	4	50.3	4	-1E+10	1	-1E+10	1	-1E+10	1	-1E+10	1	-1E+10	1	-1E+10	1
4902551	98	C	05/01/2023	18:08	-131.290	47.998	0	184.60	0	5.7810	0	33.7070	0	26.560	0	182.969	0	152.2	4	50.0	4	-1E+10	1	-1E+10	1	-1E+10	1	-1E+10	1	-1E+10	1	-1E+10	1
4902551	98	C	05/01/2023	18:08	-131.290	47.998	0	185.60	0	5.7600	0	33.7140	0	26.568	0	183.960	0	151.1	4	49.6	4	-1E+10	1	-1E+10	1	-1E+10	1	-1E+10	1	-1E+10	1	-1E+10	1
4902551	98	C	05/01/2023	18:08	-131.290	47.998	0	186.60	0	5.7460	0	33.7150	0	26.571	0	184.951	0	150.1	4	49.2	4	-1E+10	1	-1E+10	1	-1E+10	1	-1E+10	1	-1E+10	1	-1E+10	1
4902551	98	C	05/01/2023	18:08	-131.290	47.998	0	187.60	0	5.7390	0	33.7150	0	26.572	0	185.941	0	148.9	4	48.8	4	-1E+10	1	-1E+10	1	-1E+10	1	-1E+10	1	-1E+10	1	-1E+10	1
4902551	98	C	05/01/2023	18:08	-131.290	47.998	0	188.60	0	5.7170	0	33.7170	0	26.576	0	186.932	0	147.9	4	48.5	4	-1E+10	1	-1E+10	1	-1E+10	1	-1E+10	1	-1E+10	1	-1E+10	1
4902551	98	C	05/01/2023	18:08	-131.290	47.998	0	189.60	0	5.7110	0	33.7170	0	26.577	0	187.923	0	146.8	4	48.1	4	-1E+10	1	-1E+10	1	-1E+10	1	-1E+10	1	-1E+10	1	-1E+10	1
4902551	98	C	05/01/2023	18:08	-131.290	47.998	0	190.60	0	5.6610	0	33.7240	0	26.588	0	188.913	0	145.8	4	47.7	4	-1E+10	1	-1E+10	1	-1E+10	1	-1E+10	1	-1E+10	1	-1E+10	1
4902551	98	C	05/01/2023	18:08	-131.290	47.998	0	191.50	0	5.6440	0	33.7240	0	26.590	0	189.805	0	145.1	4	47.5	4	-1E+10	1	-1E+10	1	-1E+10	1	-1E+10	1	-1E+10	1	-1E+10	1
4902551	98	C	05/01/2023	18:08	-131.290	47.998	0	192.50	0	5.6330	0	33.7260	0	26.593	0	190.796	0	144.3	4	47.2	4	-1E+10	1	-1E+10	1	-1E+10	1	-1E+10	1	-1E+10	1	-1E+10	1
4902551	98	C	05/01/2023	18:08	-131.290	47.998	0	193.50	0	5.6070	0	33.7310	0	26.600	0	191.786	0	143.6	4	47.0	4	-1E+10	1	-1E+10	1	-1E+10	1	-1E+10	1	-1E+10	1	-1E+10	1
4902551	98	C	05/01/2023	18:08	-131.290	47.998	0	194.50	0	5.5760	0	33.7360	0	26.608	0	192.777	0	142.9	4	46.7	4	-1E+10	1	-1E+10	1	-1E+10	1	-1E+10	1	-1E+10	1	-1E+10	1
4902551	98	C	05/01/2023	18:08	-131.290	47.998	0	195.50	0	5.5550	0	33.7370	0	26.611	0	193.768	0	142.5	4	46.5	4	-1E+10	1	-1E+10	1	-1E+10	1	-1E+10	1	-1E+10	1	-1E+10	1
4902551	98	C	05/01/2023	18:08	-131.290	47.998	0	196.50	0	5.5500	0	33.7380	0	26.613	0	194.758	0	142.1	4	46.4	4	-1E+10	1	-1E+10	1	-1E+10	1	-1E+10	1	-1E+10	1	-1E+10	1
4902551	98	C	05/01/2023	18:08	-131.290	47.998	0	197.50	0	5.5460	0	33.7380	0	26.613	0	195.749	0	141.6	4	46.2	4	-1E+10	1	-1E+10	1	-1E+10	1	-1E+10	1	-1E+10	1	-1E+10	1
4902551	98	C	05/01/2023	18:08	-131.290	47.998	0	198.50	0	5.5440	0	33.7370	0	26.613	0	196.740	0	141.1	4	46.0	4	-1E+10	1	-1E+10	1	-1E+10	1	-1E+10	1	-1E+10	1	-1E+10	1
4902551	98	C	05/01/2023	18:08	-131.290	47.998	0	199.90	0	5.5340	0	33.7380	0	26.615	0	198.127	0	140.3	4	45.8	4	-1E+10	1	-1E+10	1	-1E+10	1	-1E+10	1	-1E+10	1	-1E+10	1
4902551	98	C	05/01/2023	18:08	-131.290	47.998	0	201.40	0	5.5290	0	33.7380	0	26.615	0	199.613	0	139.4	4	45.5	4	-1E+10	1	-1E+10	1	-1E+10	1	-1E+10	1	-1E+10	1	-1E+10	1
4902551	98	C	05/01/2023	18:08	-131.290	47.998	0	202.50	0	5.5080	0	33.7420	0	26.621	0	200.702	0	139.0	4	45.3	4	-1E+10	1	-1E+10	1	-1E+10	1	-1E+10	1	-1E+10	1	-1E+10	1
4902551	98	C	05/01/2023	18:08	-131.290	47.998	0	203.50	0	5.5060	0	33.7420	0	26.621	0	201.693	0	138.4	4	45.1	4	-1E+10	1	-1E+10	1	-1E+10	1	-1E+10	1	-1E+10	1	-1E+10	1
4902551	98	C	05/01/2023	18:08	-131.290	47.998	0	204.50	0	5.5030	0	33.7420	0	26.621	0	202.684	0	137.8	4	44.9	4	-1E+10	1	-1E+10	1	-1E+10	1	-1E+10	1	-1E+10	1	-1E+10	1
4902551	98	C	05/01/2023	18:08	-131.290	47.998	0	205.50	0	5.4900	0	33.7430	0	26.624	0	203.674	0	137.2	4	44.7	4	-1E+10	1	-1E+10	1	-1E+10	1	-1E+10	1	-1E+10	1	-1E+10	1
4902551	98	C	05/01/2023	18:08	-131.290	47.998	0	206.50	0	5.4840	0	33.7430	0	26.625	0	204.665	0	136.6	4	44.5	4	-1E+10	1	-1E+10	1	-1E+10	1	-1E+10	1	-1E+10	1	-1E+10	1
4902551	98	C	05/01/2023	18:08	-131.290	47.998	0	207.50	0	5.4810	0	33.7430	0	26.625	0	205.655	0	136.0	4	44.3	4	-1E+10	1	-1E+10	1	-1E+10	1	-1E+10	1	-1E+10	1	-1E+10	1
4902551	98	C	05/01/2023	18:08	-131.290	47.998	0	208.50	0	5.4800	0	33.7420	0	26.624	0	206.646	0	135.3	4	44.1	4	-1E+10	1	-1E+10	1	-1E+10	1	-1E+10	1	-1E+10	1	-1E+10	1
4902551	98	C	05/01/2023	18:08	-131.290	47.998	0	209.50	0	5.4730	0	33.7440	0	26.627	0	207.637	0	134.5	4	43.8	4	-1E+10	1	-1E+10	1	-1E+10	1	-1E+10	1	-1E+10	1	-1E+10	1
4902551	98	C	05/01/2023	18:08	-131.290	47.998	0	210.60	0	5.4470	0	33.7450	0	26.631	0	208.726	0	133.9	4	43.6	4	-1E+10	1	-1E+10	1	-1E+10	1	-1E+10	1	-1E+10	1	-1E+10	1
4902551	98	C	05/01/2023	18:08	-131.290	47.998	0	211.60	0	5.4380	0	33.7450	0	26.632	0	209.717	0	133.2	4	43.4	4	-1E+10	1	-1E+10	1	-1E+10	1	-1E+10	1	-1E+10	1	-1E+10	1
4902551	98	C	05/01/2023	18:08	-131.290	47.998	0	212.60	0	5.4030	0	33.7460	0	26.637	0	210.708	0	132.6	4	43.2	4	-1E+10	1	-1E+10	1	-1E+10	1	-1E+10	1	-1E+10	1	-1E+10	1
4902551	98	C	05/01/2023	18:08	-131.290	47.998	0	213.60	0	5.3980	0	33.7460	0	26.637	0	211.698	0	132.0	4	43.0	4	-1E+10	1	-1E+10	1	-1E+10	1	-1E+10	1	-1E+10	1	-1E+10	1
4902551	98	C	05/01/2023	18:08	-131.290	47.998	0	214.60	0	5.3940	0	33.7460	0	26.638	0	212.689	0	131.3	4	42.7	4	-1E+10	1	-1E+10	1	-1E+10	1	-1E+10	1	-1E+10	1	-1E+10	1
4902551	98	C	05/01/2023	18:08	-131.290	47.998	0	215.60	0	5.3720	0	33.7480	0	26.642	0	213.679	0	130.7	4	42.5	4	-1E+10	1	-1E+10	1	-1E+10	1	-1E+10	1	-1E+10	1	-1E+10	1
4902551	98	C	05/01/2023	18:08	-131.290	47.998	0	216.70	0	5.3600	0	33.7470	0	26.642	0	214.769	0	129.9	4	42.2	4	-1E+10	1	-1E+10	1	-1E+10	1	-1E+10	1	-1E+10	1	-1E+10	1
4902551	98	C	05/01/2023	18:08	-131.290	47.998	0	217.90	0	5.3430	0	33.7480	0	26.645	0	215.958	0	129.0	4	41.9	4	-1E+10	1	-1E+10	1	-1E+10	1	-1E+10	1	-1E+10	1	-1E+10	1
4902551	98	C	05/01/2023	18:08	-131.290	47.998	0	219.10	0	5.3360	0	33.7480	0	26.646	0	217.146	0	128.0	4	41.6	4	-1E+10	1	-1E+10	1	-1E+10	1	-1E+10	1	-1E+10	1	-1E+10	1
4902551	98	C	05/01/2023	18:08	-131.290	47.998	0	219.90	0	5.3240	0	33.7490	0	26.648	0	217.939	0	127.3	4	41.3	4	-1E+10	1	-1E+10	1	-1E+10	1	-1E+10	1	-1E+10	1	-1E+10	1
4902551	98	C	05/01/2023	18:08	-131.290	47.998	0	220.70	0	5.3090	0	33.7500	0	26.651	0	218.731	0	126.7	4	41.1	4	-1E+10	1	-1E+10	1	-1E+10	1	-1E+10	1	-1E+10	1	-1E+10	1
4902551	98	C	05/01/2023	18:08	-131.290	47.998	0	221.90	0	5.2850	0	33.7520	0	26.655	0	219.920	0	125.7	4	40.8	4	-1E+10	1	-1E+10	1	-1E+10	1	-1E+10	1	-1E+10	1	-1E+10	1
4902551	98	C	05/01/2023	18:08	-131.290	47.998	0	223.10	0	5.2690	0	33.7520	0	26.657	0	221.108	0	124.8	4	40.5	4	-1E+10	1	-1E+10	1	-1E+10	1	-1E+10	1	-1E+10	1	-1E+10	1
4902551	98	C	05/01/2023	18:08	-131.290	47.998	0	223.90	0	5.2590	0	33.7530	0	26.659	0	221.901	0	124.2	4	40.3	4	-1E+10	1	-1E+10	1	-1E+10	1	-1E+10	1	-1E+10	1	-1E+10	1
4902551	98	C	05/01/2023	18:08	-131.290	47.998	0	224.80	0	5.2470	0	33.7540	0	26.661	0	222.792	0	123.7	4	40.1	4	-1E+10	1	-1E+10	1	-1E+10	1	-1E+10	1	-1E+10	1	-1E+10	1
4902551	98	C	05/01/2023	18:08	-131.290	47.998	0	226.00	0	5.2300	0	33.7550	0	26.664	0	223.981	0	122.8	4	39.8	4	-1E+10	1	-1E+10	1	-1E+10	1	-1E+10	1	-1E+10	1	-1E+10	1
4902551	98	C	05/01/2023	18:08	-131.290	47.998	0	227.30	0	5.2200	0	33.7550	0	26.665	0	225.269	0	121.9	4	39.5	4	-1E+10	1	-1E+10	1	-1E+10	1	-1E+10	1	-1E+10	1	-1E+10	1
4902551	98	C	05/01/2023	18:08	-131.290	47.998	0	228.10	0	5.2120	0	33.7560	0	26.667	0	226.061	0	121.2	4	39.3	4	-1E+10	1	-1E+10	1	-1E+10	1	-1E+10	1	-1E+10	1	-1E+10	1
4902551	98	C	05/01/2023	18:08	-131.290	47.998	0	228.90	0	5.2030	0	33.7560	0	26.668	0	226.853	0	120.5	4	39.0	4	-1E+10	1	-1E+10	1	-1E+10	1	-1E+10	1	-1E+10	1	-1E+10	1
4902551	98	C	05/01/2023	18:08	-131.290	47.998	0	229.70	0	5.1990	0	33.7560	0	26.668	0	227.646	0	119.8	4	38.8	4	-1E+10	1	-1E+10	1	-1E+10	1	-1E+10	1	-1E+10	1	-1E+10	1
4902551	98	C	05/01/2023	18:08	-131.290	47.998	0	231.00	0	5.1740	0	33.7580	0	26.673	0	228.934	0	118.8	4	38.4	4	-1E+10	1	-1E+10	1	-1E+10	1	-1E+10	1	-1E+10	1	-1E+10	1
4902551	98	C	05/01/2023	18:08	-131.290	47.998	0	232.20	0	5.1490	0	33.7640	0	26.681	0	230.122	0	117.8	4	38.1	4	-1E+10	1	-1E+10	1	-1E+10	1	-1E+10	1	-1E+10	1	-1E+10	1
4902551	98	C	05/01/2023	18:08	-131.290	47.998	0	233.10	0	5.1270	0	33.7630	0	26.682	0	231.014	0	117.2	4	37.9	4	-1E+10	1	-1E+10	1	-1E+10	1	-1E+10	1	-1E+10	1	-1E+10	1
4902551	98	C	05/01/2023	18:08	-131.290	47.998	0	233.90	0	5.1150	0	33.7660	0	26.686	0	231.806	0	116.7	4	37.7	4	-1E+10	1	-1E+10	1	-1E+10	1	-1E+10	1	-1E+10	1	-1E+10	1
4902551	98	C	05/01/2023	18:08	-131.290	47.998	0	234.70	0	5.1070	0	33.7650	0	26.686	0	232.598	0	116.3	4	37.6	4	-1E+10	1	-1E+10	1	-1E+10	1	-1E+10	1	-1E+10	1	-1E+10	1
4902551	98	C	05/01/2023	18:08	-131.290	47.998	0	235.60	0	5.1050	0	33.7650	0	26.686	0	233.490	0	115.7	4	37.4	4	-1E+10	1	-1E+10	1	-1E+10	1	-1E+10	1	-1E+10	1	-1E+10	1
4902551	98	C	05/01/2023	18:08	-131.290	47.998	0	236.90	0	5.0830	0	33.7670	0	26.690	0	234.777	0	115.0	4	37.1	4	-1E+10	1	-1E+10	1	-1E+10	1	-1E+10	1	-1E+10	1	-1E+10	1
4902551	98	C	05/01/2023	18:08	-131.290	47.998	0	238.10	0	5.0810	0	33.7660	0	26.690	0	235.966	0	114.2	4	36.9	4	-1E+10	1	-1E+10	1	-1E+10	1	-1E+10	1	-1E+10	1	-1E+10	1
4902551	98	C	05/01/2023	18:08	-131.290	47.998	0	239.00	0	5.0820	0	33.7660	0	26.690	0	236.857	0	113.6	4	36.7	4	-1E+10	1	-1E+10	1	-1E+10	1	-1E+10	1	-1E+10	1	-1E+10	1
4902551	98	C	05/01/2023	18:08	-131.290	47.998	0	239.80	0	5.0760	0	33.7670	0	26.691	0	237.650	0	113.0	4	36.5	4	-1E+10	1	-1E+10	1	-1E+10	1	-1E+10	1	-1E+10	1	-1E+10	1
4902551	98	C	05/01/2023	18:08	-131.290	47.998	0	240.70	0	5.0670	0	33.7700	0	26.695	0	238.541	0	112.5	4	36.3	4	-1E+10	1	-1E+10	1	-1E+10	1	-1E+10	1	-1E+10	1	-1E+10	1
4902551	98	C	05/01/2023	18:08	-131.290	47.998	0	242.00	0	5.0490	0	33.7710	0	26.698	0	239.829	0	111.8	4	36.1	4	-1E+10	1	-1E+10	1	-1E+10	1	-1E+10	1	-1E+10	1	-1E+10	1
4902551	98	C	05/01/2023	18:08	-131.290	47.998	0	243.30	0	5.0370	0	33.7730	0	26.701	0	241.116	0	111.0	4	35.8	4	-1E+10	1	-1E+10	1	-1E+10	1	-1E+10	1	-1E+10	1	-1E+10	1
4902551	98	C	05/01/2023	18:08	-131.290	47.998	0	244.20	0	5.0240	0	33.7740	0	26.703	0	242.008	0	110.5	4	35.7	4	-1E+10	1	-1E+10	1	-1E+10	1	-1E+10	1	-1E+10	1	-1E+10	1
4902551	98	C	05/01/2023	18:08	-131.290	47.998	0	245.10	0	5.0100	0	33.7730	0	26.704	0	242.899	0	110.1	4	35.5	4	-1E+10	1	-1E+10	1	-1E+10	1	-1E+10	1	-1E+10	1	-1E+10	1
4902551	98	C	05/01/2023	18:08	-131.290	47.998	0	245.90	0	4.9970	0	33.7740	0	26.706	0	243.691	0	109.6	4	35.3	4	-1E+10	1	-1E+10	1	-1E+10	1	-1E+10	1	-1E+10	1	-1E+10	1
4902551	98	C	05/01/2023	18:08	-131.290	47.998	0	246.80	0	4.9850	0	33.7740	0	26.707	0	244.583	0	109.1	4	35.2	4	-1E+10	1	-1E+10	1	-1E+10	1	-1E+10	1	-1E+10	1	-1E+10	1
4902551	98	C	05/01/2023	18:08	-131.290	47.998	0	247.70	0	4.9820	0	33.7740	0	26.708	0	245.474	0	108.6	4	35.0	4	-1E+10	1	-1E+10	1	-1E+10	1	-1E+10	1	-1E+10	1	-1E+10	1
4902551	98	C	05/01/2023	18:08	-131.290	47.998	0	248.60	0	4.9790	0	33.7740	0	26.708	0	246.366	0	108.1	4	34.8	4	-1E+10	1	-1E+10	1	-1E+10	1	-1E+10	1	-1E+10	1	-1E+10	1
4902551	98	C	05/01/2023	18:08	-131.290	47.998	0	249.90	0	4.9590	0	33.7770	0	26.713	0	247.653	0	107.5	4	34.6	4	-1E+10	1	-1E+10	1	-1E+10	1	-1E+10	1	-1E+10	1	-1E+10	1
4902551	98	C	05/01/2023	18:08	-131.290	47.998	0	251.20	0	4.9350	0	33.7790	0	26.717	0	248.941	0	107.0	4	34.4	4	-1E+10	1	-1E+10	1	-1E+10	1	-1E+10	1	-1E+10	1	-1E+10	1
4902551	98	C	05/01/2023	18:08	-131.290	47.998	0	252.10	0	4.9310	0	33.7800	0	26.718	0	249.832	0	106.5	4	34.3	4	-1E+10	1	-1E+10	1	-1E+10	1	-1E+10	1	-1E+10	1	-1E+10	1
4902551	98	C	05/01/2023	18:08	-131.290	47.998	0	253.00	0	4.9240	0	33.7820	0	26.721	0	250.723	0	106.1	4	34.2	4	-1E+10	1	-1E+10	1	-1E+10	1	-1E+10	1	-1E+10	1	-1E+10	1
4902551	98	C	05/01/2023	18:08	-131.290	47.998	0	253.90	0	4.9210	0	33.7820	0	26.721	0	251.615	0	105.9	4	34.1	4	-1E+10	1	-1E+10	1	-1E+10	1	-1E+10	1	-1E+10	1	-1E+10	1
4902551	98	C	05/01/2023	18:08	-131.290	47.998	0	254.80	0	4.9180	0	33.7820	0	26.721	0	252.506	0	105.5	4	34.0	4	-1E+10	1	-1E+10	1	-1E+10	1	-1E+10	1	-1E+10	1	-1E+10	1
4902551	98	C	05/01/2023	18:08	-131.290	47.998	0	255.60	0	4.9170	0	33.7820	0	26.721	0	253.298	0	105.2	4	33.8	4	-1E+10	1	-1E+10	1	-1E+10	1	-1E+10	1	-1E+10	1	-1E+10	1
4902551	98	C	05/01/2023	18:08	-131.290	47.998	0	256.90	0	4.9130	0	33.7840	0	26.723	0	254.586	0	104.7	4	33.7	4	-1E+10	1	-1E+10	1	-1E+10	1	-1E+10	1	-1E+10	1	-1E+10	1
4902551	98	C	05/01/2023	18:08	-131.290	47.998	0	258.20	0	4.9130	0	33.7840	0	26.723	0	255.873	0	104.1	4	33.5	4	-1E+10	1	-1E+10	1	-1E+10	1	-1E+10	1	-1E+10	1	-1E+10	1
4902551	98	C	05/01/2023	18:08	-131.290	47.998	0	259.10	0	4.9100	0	33.7840	0	26.724	0	256.765	0	103.8	4	33.4	4	-1E+10	1	-1E+10	1	-1E+10	1	-1E+10	1	-1E+10	1	-1E+10	1
4902551	98	C	05/01/2023	18:08	-131.290	47.998	0	260.00	0	4.9010	0	33.7860	0	26.726	0	257.656	0	103.3	4	33.2	4	-1E+10	1	-1E+10	1	-1E+10	1	-1E+10	1	-1E+10	1	-1E+10	1
4902551	98	C	05/01/2023	18:08	-131.290	47.998	0	260.80	0	4.8980	0	33.7860	0	26.727	0	258.448	0	102.9	4	33.1	4	-1E+10	1	-1E+10	1	-1E+10	1	-1E+10	1	-1E+10	1	-1E+10	1
4902551	98	C	05/01/2023	18:08	-131.290	47.998	0	261.70	0	4.8970	0	33.7860	0	26.727	0	259.340	0	102.4	4	32.9	4	-1E+10	1	-1E+10	1	-1E+10	1	-1E+10	1	-1E+10	1	-1E+10	1
4902551	98	C	05/01/2023	18:08	-131.290	47.998	0	263.00	0	4.8890	0	33.7870	0	26.728	0	260.627	0	101.7	4	32.7	4	-1E+10	1	-1E+10	1	-1E+10	1	-1E+10	1	-1E+10	1	-1E+10	1
4902551	98	C	05/01/2023	18:08	-131.290	47.998	0	264.30	0	4.8800	0	33.7870	0	26.730	0	261.915	0	100.9	4	32.5	4	-1E+10	1	-1E+10	1	-1E+10	1	-1E+10	1	-1E+10	1	-1E+10	1
4902551	98	C	05/01/2023	18:08	-131.290	47.998	0	265.20	0	4.8800	0	33.7890	0	26.731	0	262.806	0	100.5	4	32.3	4	-1E+10	1	-1E+10	1	-1E+10	1	-1E+10	1	-1E+10	1	-1E+10	1
4902551	98	C	05/01/2023	18:08	-131.290	47.998	0	266.00	0	4.8760	0	33.7900	0	26.732	0	263.598	0	100.0	4	32.1	4	-1E+10	1	-1E+10	1	-1E+10	1	-1E+10	1	-1E+10	1	-1E+10	1
4902551	98	C	05/01/2023	18:08	-131.290	47.998	0	266.90	0	4.8700	0	33.7910	0	26.734	0	264.489	0	99.5	4	32.0	4	-1E+10	1	-1E+10	1	-1E+10	1	-1E+10	1	-1E+10	1	-1E+10	1
4902551	98	C	05/01/2023	18:08	-131.290	47.998	0	267.70	0	4.8650	0	33.7920	0	26.735	0	265.282	0	99.0	4	31.8	4	-1E+10	1	-1E+10	1	-1E+10	1	-1E+10	1	-1E+10	1	-1E+10	1
4902551	98	C	05/01/2023	18:08	-131.290	47.998	0	268.60	0	4.8640	0	33.7920	0	26.735	0	266.173	0	98.4	4	31.6	4	-1E+10	1	-1E+10	1	-1E+10	1	-1E+10	1	-1E+10	1	-1E+10	1
4902551	98	C	05/01/2023	18:08	-131.290	47.998	0	269.90	0	4.8510	0	33.7930	0	26.738	0	267.460	0	97.6	4	31.4	4	-1E+10	1	-1E+10	1	-1E+10	1	-1E+10	1	-1E+10	1	-1E+10	1
4902551	98	C	05/01/2023	18:08	-131.290	47.998	0	271.20	0	4.8400	0	33.7950	0	26.740	0	268.748	0	96.9	4	31.1	4	-1E+10	1	-1E+10	1	-1E+10	1	-1E+10	1	-1E+10	1	-1E+10	1
4902551	98	C	05/01/2023	18:08	-131.290	47.998	0	272.10	0	4.8360	0	33.7950	0	26.741	0	269.639	0	96.4	4	30.9	4	-1E+10	1	-1E+10	1	-1E+10	1	-1E+10	1	-1E+10	1	-1E+10	1
4902551	98	C	05/01/2023	18:08	-131.290	47.998	0	273.00	0	4.8270	0	33.7970	0	26.743	0	270.530	0	95.8	4	30.8	4	-1E+10	1	-1E+10	1	-1E+10	1	-1E+10	1	-1E+10	1	-1E+10	1
4902551	98	C	05/01/2023	18:08	-131.290	47.998	0	273.80	0	4.8140	0	33.7980	0	26.746	0	271.323	0	95.3	4	30.6	4	-1E+10	1	-1E+10	1	-1E+10	1	-1E+10	1	-1E+10	1	-1E+10	1
4902551	98	C	05/01/2023	18:08	-131.290	47.998	0	274.70	0	4.8100	0	33.7980	0	26.746	0	272.214	0	94.8	4	30.4	4	-1E+10	1	-1E+10	1	-1E+10	1	-1E+10	1	-1E+10	1	-1E+10	1
4902551	98	C	05/01/2023	18:08	-131.290	47.998	0	275.60	0	4.8000	0	33.7990	0	26.748	0	273.105	0	94.3	4	30.3	4	-1E+10	1	-1E+10	1	-1E+10	1	-1E+10	1	-1E+10	1	-1E+10	1
4902551	98	C	05/01/2023	18:08	-131.290	47.998	0	276.90	0	4.7840	0	33.8000	0	26.751	0	274.393	0	93.5	4	30.0	4	-1E+10	1	-1E+10	1	-1E+10	1	-1E+10	1	-1E+10	1	-1E+10	1
4902551	98	C	05/01/2023	18:08	-131.290	47.998	0	278.30	0	4.7650	0	33.8050	0	26.757	0	275.779	0	92.9	4	29.8	4	-1E+10	1	-1E+10	1	-1E+10	1	-1E+10	1	-1E+10	1	-1E+10	1
4902551	98	C	05/01/2023	18:08	-131.290	47.998	0	279.20	0	4.7640	0	33.8050	0	26.757	0	276.670	0	92.5	4	29.7	4	-1E+10	1	-1E+10	1	-1E+10	1	-1E+10	1	-1E+10	1	-1E+10	1
4902551	98	C	05/01/2023	18:08	-131.290	47.998	0	280.10	0	4.7640	0	33.8050	0	26.757	0	277.561	0	92.0	4	29.5	4	-1E+10	1	-1E+10	1	-1E+10	1	-1E+10	1	-1E+10	1	-1E+10	1
4902551	98	C	05/01/2023	18:08	-131.290	47.998	0	281.00	0	4.7660	0	33.8060	0	26.757	0	278.453	0	91.5	4	29.3	4	-1E+10	1	-1E+10	1	-1E+10	1	-1E+10	1	-1E+10	1	-1E+10	1
4902551	98	C	05/01/2023	18:08	-131.290	47.998	0	281.90	0	4.7620	0	33.8060	0	26.758	0	279.344	0	90.9	4	29.2	4	-1E+10	1	-1E+10	1	-1E+10	1	-1E+10	1	-1E+10	1	-1E+10	1
4902551	98	C	05/01/2023	18:08	-131.290	47.998	0	282.80	0	4.7610	0	33.8050	0	26.757	0	280.235	0	90.3	4	29.0	4	-1E+10	1	-1E+10	1	-1E+10	1	-1E+10	1	-1E+10	1	-1E+10	1
4902551	98	C	05/01/2023	18:08	-131.290	47.998	0	283.60	0	4.7610	0	33.8060	0	26.758	0	281.027	0	89.7	4	28.8	4	-1E+10	1	-1E+10	1	-1E+10	1	-1E+10	1	-1E+10	1	-1E+10	1
4902551	98	C	05/01/2023	18:08	-131.290	47.998	0	284.60	0	4.7480	0	33.8080	0	26.761	0	282.018	0	89.1	4	28.6	4	-1E+10	1	-1E+10	1	-1E+10	1	-1E+10	1	-1E+10	1	-1E+10	1
4902551	98	C	05/01/2023	18:08	-131.290	47.998	0	285.90	0	4.7350	0	33.8090	0	26.763	0	283.305	0	88.2	4	28.3	4	-1E+10	1	-1E+10	1	-1E+10	1	-1E+10	1	-1E+10	1	-1E+10	1
4902551	98	C	05/01/2023	18:08	-131.290	47.998	0	287.30	0	4.7290	0	33.8120	0	26.766	0	284.691	0	87.2	4	27.9	4	-1E+10	1	-1E+10	1	-1E+10	1	-1E+10	1	-1E+10	1	-1E+10	1
4902551	98	C	05/01/2023	18:08	-131.290	47.998	0	288.20	0	4.7160	0	33.8150	0	26.770	0	285.582	0	86.7	4	27.8	4	-1E+10	1	-1E+10	1	-1E+10	1	-1E+10	1	-1E+10	1	-1E+10	1
4902551	98	C	05/01/2023	18:08	-131.290	47.998	0	289.10	0	4.6900	0	33.8210	0	26.778	0	286.474	0	86.4	4	27.6	4	-1E+10	1	-1E+10	1	-1E+10	1	-1E+10	1	-1E+10	1	-1E+10	1
4902551	98	C	05/01/2023	18:08	-131.290	47.998	0	290.10	0	4.6880	0	33.8210	0	26.778	0	287.464	0	86.0	4	27.5	4	-1E+10	1	-1E+10	1	-1E+10	1	-1E+10	1	-1E+10	1	-1E+10	1
4902551	98	C	05/01/2023	18:08	-131.290	47.998	0	291.00	0	4.6820	0	33.8230	0	26.780	0	288.355	0	85.6	4	27.4	4	-1E+10	1	-1E+10	1	-1E+10	1	-1E+10	1	-1E+10	1	-1E+10	1
4902551	98	C	05/01/2023	18:08	-131.290	47.998	0	291.90	0	4.6750	0	33.8220	0	26.780	0	289.246	0	85.3	4	27.3	4	-1E+10	1	-1E+10	1	-1E+10	1	-1E+10	1	-1E+10	1	-1E+10	1
4902551	98	C	05/01/2023	18:08	-131.290	47.998	0	292.80	0	4.6700	0	33.8240	0	26.782	0	290.137	0	84.9	4	27.2	4	-1E+10	1	-1E+10	1	-1E+10	1	-1E+10	1	-1E+10	1	-1E+10	1
4902551	98	C	05/01/2023	18:08	-131.290	47.998	0	293.80	0	4.6670	0	33.8240	0	26.783	0	291.128	0	84.5	4	27.0	4	-1E+10	1	-1E+10	1	-1E+10	1	-1E+10	1	-1E+10	1	-1E+10	1
4902551	98	C	05/01/2023	18:08	-131.290	47.998	0	294.70	0	4.6670	0	33.8250	0	26.783	0	292.019	0	84.1	4	26.9	4	-1E+10	1	-1E+10	1	-1E+10	1	-1E+10	1	-1E+10	1	-1E+10	1
4902551	98	C	05/01/2023	18:08	-131.290	47.998	0	295.60	0	4.6660	0	33.8260	0	26.784	0	292.910	0	83.8	4	26.8	4	-1E+10	1	-1E+10	1	-1E+10	1	-1E+10	1	-1E+10	1	-1E+10	1
4902551	98	C	05/01/2023	18:08	-131.290	47.998	0	296.60	0	4.6640	0	33.8260	0	26.785	0	293.900	0	83.3	4	26.7	4	-1E+10	1	-1E+10	1	-1E+10	1	-1E+10	1	-1E+10	1	-1E+10	1
4902551	98	C	05/01/2023	18:08	-131.290	47.998	0	297.90	0	4.6590	0	33.8280	0	26.787	0	295.187	0	82.6	4	26.4	4	-1E+10	1	-1E+10	1	-1E+10	1	-1E+10	1	-1E+10	1	-1E+10	1
4902551	98	C	05/01/2023	18:08	-131.290	47.998	0	299.40	0	4.6560	0	33.8290	0	26.788	0	296.673	0	82.0	4	26.2	4	-1E+10	1	-1E+10	1	-1E+10	1	-1E+10	1	-1E+10	1	-1E+10	1
4902551	98	C	05/01/2023	18:08	-131.290	47.998	0	300.40	0	4.6540	0	33.8280	0	26.787	0	297.663	0	81.4	4	26.0	4	-1E+10	1	-1E+10	1	-1E+10	1	-1E+10	1	-1E+10	1	-1E+10	1
4902551	98	C	05/01/2023	18:08	-131.290	47.998	0	301.30	0	4.6390	0	33.8320	0	26.792	0	298.554	0	81.0	4	25.9	4	-1E+10	1	-1E+10	1	-1E+10	1	-1E+10	1	-1E+10	1	-1E+10	1
4902551	98	C	05/01/2023	18:08	-131.290	47.998	0	302.30	0	4.6350	0	33.8320	0	26.793	0	299.544	0	80.5	4	25.7	4	-1E+10	1	-1E+10	1	-1E+10	1	-1E+10	1	-1E+10	1	-1E+10	1
4902551	98	C	05/01/2023	18:08	-131.290	47.998	0	303.30	0	4.6340	0	33.8310	0	26.792	0	300.534	0	80.0	4	25.6	4	-1E+10	1	-1E+10	1	-1E+10	1	-1E+10	1	-1E+10	1	-1E+10	1
4902551	98	C	05/01/2023	18:08	-131.290	47.998	0	304.20	0	4.6270	0	33.8330	0	26.794	0	301.425	0	79.4	4	25.4	4	-1E+10	1	-1E+10	1	-1E+10	1	-1E+10	1	-1E+10	1	-1E+10	1
4902551	98	C	05/01/2023	18:08	-131.290	47.998	0	305.20	0	4.6170	0	33.8340	0	26.796	0	302.416	0	78.9	4	25.2	4	-1E+10	1	-1E+10	1	-1E+10	1	-1E+10	1	-1E+10	1	-1E+10	1
4902551	98	C	05/01/2023	18:08	-131.290	47.998	0	306.10	0	4.5980	0	33.8390	0	26.802	0	303.307	0	78.3	4	25.0	4	-1E+10	1	-1E+10	1	-1E+10	1	-1E+10	1	-1E+10	1	-1E+10	1
4902551	98	C	05/01/2023	18:08	-131.290	47.998	0	307.10	0	4.5830	0	33.8400	0	26.805	0	304.297	0	77.9	4	24.9	4	-1E+10	1	-1E+10	1	-1E+10	1	-1E+10	1	-1E+10	1	-1E+10	1
4902551	98	C	05/01/2023	18:08	-131.290	47.998	0	308.10	0	4.5830	0	33.8410	0	26.805	0	305.287	0	77.5	4	24.7	4	-1E+10	1	-1E+10	1	-1E+10	1	-1E+10	1	-1E+10	1	-1E+10	1
4902551	98	C	05/01/2023	18:08	-131.290	47.998	0	309.00	0	4.5780	0	33.8410	0	26.806	0	306.178	0	77.0	4	24.6	4	-1E+10	1	-1E+10	1	-1E+10	1	-1E+10	1	-1E+10	1	-1E+10	1
4902551	98	C	05/01/2023	18:08	-131.290	47.998	0	310.00	0	4.5730	0	33.8420	0	26.807	0	307.168	0	76.6	4	24.5	4	-1E+10	1	-1E+10	1	-1E+10	1	-1E+10	1	-1E+10	1	-1E+10	1
4902551	98	C	05/01/2023	18:08	-131.290	47.998	0	311.00	0	4.5680	0	33.8430	0	26.809	0	308.158	0	76.2	4	24.3	4	-1E+10	1	-1E+10	1	-1E+10	1	-1E+10	1	-1E+10	1	-1E+10	1
4902551	98	C	05/01/2023	18:08	-131.290	47.998	0	312.00	0	4.5640	0	33.8440	0	26.810	0	309.148	0	75.7	4	24.2	4	-1E+10	1	-1E+10	1	-1E+10	1	-1E+10	1	-1E+10	1	-1E+10	1
4902551	98	C	05/01/2023	18:08	-131.290	47.998	0	312.90	0	4.5550	0	33.8460	0	26.812	0	310.040	0	75.3	4	24.0	4	-1E+10	1	-1E+10	1	-1E+10	1	-1E+10	1	-1E+10	1	-1E+10	1
4902551	98	C	05/01/2023	18:08	-131.290	47.998	0	313.90	0	4.5480	0	33.8460	0	26.813	0	311.030	0	74.8	4	23.9	4	-1E+10	1	-1E+10	1	-1E+10	1	-1E+10	1	-1E+10	1	-1E+10	1
4902551	98	C	05/01/2023	18:08	-131.290	47.998	0	314.90	0	4.5440	0	33.8470	0	26.814	0	312.020	0	74.3	4	23.7	4	-1E+10	1	-1E+10	1	-1E+10	1	-1E+10	1	-1E+10	1	-1E+10	1
4902551	98	C	05/01/2023	18:08	-131.290	47.998	0	315.90	0	4.5300	0	33.8500	0	26.818	0	313.010	0	73.9	4	23.6	4	-1E+10	1	-1E+10	1	-1E+10	1	-1E+10	1	-1E+10	1	-1E+10	1
4902551	98	C	05/01/2023	18:08	-131.290	47.998	0	316.90	0	4.5280	0	33.8500	0	26.819	0	314.000	0	73.4	4	23.4	4	-1E+10	1	-1E+10	1	-1E+10	1	-1E+10	1	-1E+10	1	-1E+10	1
4902551	98	C	05/01/2023	18:08	-131.290	47.998	0	318.00	0	4.5230	0	33.8520	0	26.821	0	315.089	0	73.0	4	23.3	4	-1E+10	1	-1E+10	1	-1E+10	1	-1E+10	1	-1E+10	1	-1E+10	1
4902551	98	C	05/01/2023	18:08	-131.290	47.998	0	319.00	0	4.5140	0	33.8530	0	26.822	0	316.079	0	72.5	4	23.1	4	-1E+10	1	-1E+10	1	-1E+10	1	-1E+10	1	-1E+10	1	-1E+10	1
4902551	98	C	05/01/2023	18:08	-131.290	47.998	0	319.90	0	4.5050	0	33.8540	0	26.824	0	316.970	0	72.1	4	23.0	4	-1E+10	1	-1E+10	1	-1E+10	1	-1E+10	1	-1E+10	1	-1E+10	1
4902551	98	C	05/01/2023	18:08	-131.290	47.998	0	320.90	0	4.4980	0	33.8560	0	26.827	0	317.960	0	71.7	4	22.8	4	-1E+10	1	-1E+10	1	-1E+10	1	-1E+10	1	-1E+10	1	-1E+10	1
4902551	98	C	05/01/2023	18:08	-131.290	47.998	0	321.90	0	4.4850	0	33.8580	0	26.830	0	318.950	0	71.4	4	22.7	4	-1E+10	1	-1E+10	1	-1E+10	1	-1E+10	1	-1E+10	1	-1E+10	1
4902551	98	C	05/01/2023	18:08	-131.290	47.998	0	323.00	0	4.4820	0	33.8590	0	26.831	0	320.039	0	71.0	4	22.6	4	-1E+10	1	-1E+10	1	-1E+10	1	-1E+10	1	-1E+10	1	-1E+10	1
4902551	98	C	05/01/2023	18:08	-131.290	47.998	0	323.90	0	4.4680	0	33.8600	0	26.833	0	320.930	0	70.7	4	22.5	4	-1E+10	1	-1E+10	1	-1E+10	1	-1E+10	1	-1E+10	1	-1E+10	1
4902551	98	C	05/01/2023	18:08	-131.290	47.998	0	325.00	0	4.4670	0	33.8610	0	26.834	0	322.020	0	70.4	4	22.4	4	-1E+10	1	-1E+10	1	-1E+10	1	-1E+10	1	-1E+10	1	-1E+10	1
4902551	98	C	05/01/2023	18:08	-131.290	47.998	0	326.00	0	4.4610	0	33.8640	0	26.837	0	323.010	0	70.1	4	22.3	4	-1E+10	1	-1E+10	1	-1E+10	1	-1E+10	1	-1E+10	1	-1E+10	1
4902551	98	C	05/01/2023	18:08	-131.290	47.998	0	327.00	0	4.4570	0	33.8660	0	26.839	0	324.000	0	69.8	4	22.2	4	-1E+10	1	-1E+10	1	-1E+10	1	-1E+10	1	-1E+10	1	-1E+10	1
4902551	98	C	05/01/2023	18:08	-131.290	47.998	0	328.00	0	4.4530	0	33.8660	0	26.839	0	324.990	0	69.6	4	22.2	4	-1E+10	1	-1E+10	1	-1E+10	1	-1E+10	1	-1E+10	1	-1E+10	1
4902551	98	C	05/01/2023	18:08	-131.290	47.998	0	329.00	0	4.4490	0	33.8670	0	26.841	0	325.980	0	69.3	4	22.1	4	-1E+10	1	-1E+10	1	-1E+10	1	-1E+10	1	-1E+10	1	-1E+10	1
4902551	98	C	05/01/2023	18:08	-131.290	47.998	0	330.00	0	4.4490	0	33.8670	0	26.841	0	326.970	0	69.1	4	22.0	4	-1E+10	1	-1E+10	1	-1E+10	1	-1E+10	1	-1E+10	1	-1E+10	1
4902551	98	C	05/01/2023	18:08	-131.290	47.998	0	331.10	0	4.4460	0	33.8680	0	26.842	0	328.059	0	68.8	4	21.9	4	-1E+10	1	-1E+10	1	-1E+10	1	-1E+10	1	-1E+10	1	-1E+10	1
4902551	98	C	05/01/2023	18:08	-131.290	47.998	0	332.10	0	4.4450	0	33.8690	0	26.843	0	329.049	0	68.6	4	21.8	4	-1E+10	1	-1E+10	1	-1E+10	1	-1E+10	1	-1E+10	1	-1E+10	1
4902551	98	C	05/01/2023	18:08	-131.290	47.998	0	333.10	0	4.4430	0	33.8680	0	26.842	0	330.039	0	68.2	4	21.7	4	-1E+10	1	-1E+10	1	-1E+10	1	-1E+10	1	-1E+10	1	-1E+10	1
4902551	98	C	05/01/2023	18:08	-131.290	47.998	0	334.10	0	4.4410	0	33.8690	0	26.843	0	331.029	0	67.9	4	21.6	4	-1E+10	1	-1E+10	1	-1E+10	1	-1E+10	1	-1E+10	1	-1E+10	1
4902551	98	C	05/01/2023	18:08	-131.290	47.998	0	335.10	0	4.4380	0	33.8690	0	26.843	0	332.019	0	67.5	4	21.5	4	-1E+10	1	-1E+10	1	-1E+10	1	-1E+10	1	-1E+10	1	-1E+10	1
4902551	98	C	05/01/2023	18:08	-131.290	47.998	0	336.10	0	4.4340	0	33.8700	0	26.845	0	333.009	0	67.2	4	21.4	4	-1E+10	1	-1E+10	1	-1E+10	1	-1E+10	1	-1E+10	1	-1E+10	1
4902551	98	C	05/01/2023	18:08	-131.290	47.998	0	337.10	0	4.4310	0	33.8730	0	26.847	0	333.999	0	66.8	4	21.3	4	-1E+10	1	-1E+10	1	-1E+10	1	-1E+10	1	-1E+10	1	-1E+10	1
4902551	98	C	05/01/2023	18:08	-131.290	47.998	0	338.20	0	4.4290	0	33.8760	0	26.850	0	335.088	0	66.5	4	21.2	4	-1E+10	1	-1E+10	1	-1E+10	1	-1E+10	1	-1E+10	1	-1E+10	1
4902551	98	C	05/01/2023	18:08	-131.290	47.998	0	339.20	0	4.4280	0	33.8770	0	26.851	0	336.078	0	66.2	4	21.1	4	-1E+10	1	-1E+10	1	-1E+10	1	-1E+10	1	-1E+10	1	-1E+10	1
4902551	98	C	05/01/2023	18:08	-131.290	47.998	0	340.20	0	4.4260	0	33.8790	0	26.853	0	337.068	0	65.8	4	21.0	4	-1E+10	1	-1E+10	1	-1E+10	1	-1E+10	1	-1E+10	1	-1E+10	1
4902551	98	C	05/01/2023	18:08	-131.290	47.998	0	341.20	0	4.4250	0	33.8790	0	26.853	0	338.058	0	65.5	4	20.9	4	-1E+10	1	-1E+10	1	-1E+10	1	-1E+10	1	-1E+10	1	-1E+10	1
4902551	98	C	05/01/2023	18:08	-131.290	47.998	0	342.30	0	4.4170	0	33.8820	0	26.856	0	339.147	0	65.2	4	20.8	4	-1E+10	1	-1E+10	1	-1E+10	1	-1E+10	1	-1E+10	1	-1E+10	1
4902551	98	C	05/01/2023	18:08	-131.290	47.998	0	343.30	0	4.4090	0	33.8820	0	26.857	0	340.137	0	64.9	4	20.7	4	-1E+10	1	-1E+10	1	-1E+10	1	-1E+10	1	-1E+10	1	-1E+10	1
4902551	98	C	05/01/2023	18:08	-131.290	47.998	0	344.40	0	4.4100	0	33.8840	0	26.858	0	341.226	0	64.6	4	20.6	4	-1E+10	1	-1E+10	1	-1E+10	1	-1E+10	1	-1E+10	1	-1E+10	1
4902551	98	C	05/01/2023	18:08	-131.290	47.998	0	345.40	0	4.4120	0	33.8890	0	26.862	0	342.216	0	64.4	4	20.5	4	-1E+10	1	-1E+10	1	-1E+10	1	-1E+10	1	-1E+10	1	-1E+10	1
4902551	98	C	05/01/2023	18:08	-131.290	47.998	0	346.90	0	4.4100	0	33.8900	0	26.863	0	343.701	0	64.0	4	20.4	4	-1E+10	1	-1E+10	1	-1E+10	1	-1E+10	1	-1E+10	1	-1E+10	1
4902551	98	C	05/01/2023	18:08	-131.290	47.998	0	349.00	0	4.4010	0	33.8920	0	26.866	0	345.779	0	63.6	4	20.2	4	-1E+10	1	-1E+10	1	-1E+10	1	-1E+10	1	-1E+10	1	-1E+10	1
4902551	98	C	05/01/2023	18:08	-131.290	47.998	0	350.20	0	4.3980	0	33.8930	0	26.867	0	346.967	0	63.3	4	20.1	4	-1E+10	1	-1E+10	1	-1E+10	1	-1E+10	1	-1E+10	1	-1E+10	1
4902551	98	C	05/01/2023	18:08	-131.290	47.998	0	353.00	0	4.3980	0	33.8980	0	26.871	0	349.739	0	62.8	4	20.0	4	-1E+10	1	-1E+10	1	-1E+10	1	-1E+10	1	-1E+10	1	-1E+10	1
4902551	98	C	05/01/2023	18:08	-131.290	47.998	0	357.80	0	4.3970	0	33.9010	0	26.873	0	354.491	0	61.7	4	19.6	4	-1E+10	1	-1E+10	1	-1E+10	1	-1E+10	1	-1E+10	1	-1E+10	1
4902551	98	C	05/01/2023	18:08	-131.290	47.998	0	362.70	0	4.4040	0	33.9100	0	26.880	0	359.341	0	60.4	4	19.2	4	-1E+10	1	-1E+10	1	-1E+10	1	-1E+10	1	-1E+10	1	-1E+10	1
4902551	98	C	05/01/2023	18:08	-131.290	47.998	0	367.90	0	4.4090	0	33.9190	0	26.886	0	364.488	0	59.0	4	18.8	4	-1E+10	1	-1E+10	1	-1E+10	1	-1E+10	1	-1E+10	1	-1E+10	1
4902551	98	C	05/01/2023	18:08	-131.290	47.998	0	373.20	0	4.4090	0	33.9290	0	26.894	0	369.735	0	57.6	4	18.3	4	-1E+10	1	-1E+10	1	-1E+10	1	-1E+10	1	-1E+10	1	-1E+10	1
4902551	98	C	05/01/2023	18:08	-131.290	47.998	0	378.20	0	4.4250	0	33.9360	0	26.898	0	374.684	0	56.5	4	18.0	4	-1E+10	1	-1E+10	1	-1E+10	1	-1E+10	1	-1E+10	1	-1E+10	1
4902551	98	C	05/01/2023	18:08	-131.290	47.998	0	383.10	0	4.4230	0	33.9430	0	26.904	0	379.534	0	55.1	4	17.5	4	-1E+10	1	-1E+10	1	-1E+10	1	-1E+10	1	-1E+10	1	-1E+10	1
4902551	98	C	05/01/2023	18:08	-131.290	47.998	0	388.10	0	4.4600	0	33.9550	0	26.910	0	384.482	0	53.5	4	17.0	4	-1E+10	1	-1E+10	1	-1E+10	1	-1E+10	1	-1E+10	1	-1E+10	1
4902551	98	C	05/01/2023	18:08	-131.290	47.998	0	393.20	0	4.5150	0	33.9690	0	26.915	0	389.530	0	52.0	4	16.6	4	-1E+10	1	-1E+10	1	-1E+10	1	-1E+10	1	-1E+10	1	-1E+10	1
4902551	98	C	05/01/2023	18:08	-131.290	47.998	0	397.80	0	4.5300	0	33.9760	0	26.919	0	394.083	0	50.8	4	16.2	4	-1E+10	1	-1E+10	1	-1E+10	1	-1E+10	1	-1E+10	1	-1E+10	1
4902551	98	C	05/01/2023	18:08	-131.290	47.998	0	402.60	0	4.5130	0	33.9830	0	26.926	0	398.833	0	49.5	4	15.8	4	-1E+10	1	-1E+10	1	-1E+10	1	-1E+10	1	-1E+10	1	-1E+10	1
4902551	98	C	05/01/2023	18:08	-131.290	47.998	0	407.80	0	4.5010	0	33.9900	0	26.933	0	403.980	0	48.5	4	15.5	4	-1E+10	1	-1E+10	1	-1E+10	1	-1E+10	1	-1E+10	1	-1E+10	1
4902551	98	C	05/01/2023	18:08	-131.290	47.998	0	413.00	0	4.5050	0	33.9970	0	26.939	0	409.126	0	47.7	4	15.2	4	-1E+10	1	-1E+10	1	-1E+10	1	-1E+10	1	-1E+10	1	-1E+10	1
4902551	98	C	05/01/2023	18:08	-131.290	47.998	0	417.90	0	4.5030	0	34.0000	0	26.941	0	413.975	0	47.1	4	15.0	4	-1E+10	1	-1E+10	1	-1E+10	1	-1E+10	1	-1E+10	1	-1E+10	1
4902551	98	C	05/01/2023	18:08	-131.290	47.998	0	422.80	0	4.4710	0	33.9990	0	26.944	0	418.824	0	46.4	4	14.8	4	-1E+10	1	-1E+10	1	-1E+10	1	-1E+10	1	-1E+10	1	-1E+10	1
4902551	98	C	05/01/2023	18:08	-131.290	47.998	0	427.80	0	4.3930	0	34.0000	0	26.953	0	423.772	0	45.4	4	14.5	4	-1E+10	1	-1E+10	1	-1E+10	1	-1E+10	1	-1E+10	1	-1E+10	1
4902551	98	C	05/01/2023	18:08	-131.290	47.998	0	432.70	0	4.3520	0	34.0010	0	26.958	0	428.621	0	44.0	4	14.0	4	-1E+10	1	-1E+10	1	-1E+10	1	-1E+10	1	-1E+10	1	-1E+10	1
4902551	98	C	05/01/2023	18:08	-131.290	47.998	0	438.10	0	4.3840	0	34.0170	0	26.968	0	433.964	0	42.6	4	13.5	4	-1E+10	1	-1E+10	1	-1E+10	1	-1E+10	1	-1E+10	1	-1E+10	1
4902551	98	C	05/01/2023	18:08	-131.290	47.998	0	443.10	0	4.3400	0	34.0190	0	26.974	0	438.912	0	41.5	4	13.2	4	-1E+10	1	-1E+10	1	-1E+10	1	-1E+10	1	-1E+10	1	-1E+10	1
4902551	98	C	05/01/2023	18:08	-131.290	47.998	0	448.10	0	4.3440	0	34.0250	0	26.978	0	443.859	0	39.8	4	12.7	4	-1E+10	1	-1E+10	1	-1E+10	1	-1E+10	1	-1E+10	1	-1E+10	1
4902551	98	C	05/01/2023	18:08	-131.290	47.998	0	453.10	0	4.3650	0	34.0360	0	26.985	0	448.806	0	38.8	4	12.4	4	-1E+10	1	-1E+10	1	-1E+10	1	-1E+10	1	-1E+10	1	-1E+10	1
4902551	98	C	05/01/2023	18:08	-131.290	47.998	0	458.10	0	4.3140	0	34.0380	0	26.992	0	453.753	0	38.1	4	12.1	4	-1E+10	1	-1E+10	1	-1E+10	1	-1E+10	1	-1E+10	1	-1E+10	1
4902551	98	C	05/01/2023	18:08	-131.290	47.998	0	463.20	0	4.2860	0	34.0410	0	26.997	0	458.799	0	36.9	4	11.7	4	-1E+10	1	-1E+10	1	-1E+10	1	-1E+10	1	-1E+10	1	-1E+10	1
4902551	98	C	05/01/2023	18:08	-131.290	47.998	0	467.80	0	4.2910	0	34.0470	0	27.001	0	463.351	0	35.6	4	11.3	4	-1E+10	1	-1E+10	1	-1E+10	1	-1E+10	1	-1E+10	1	-1E+10	1
4902551	98	C	05/01/2023	18:08	-131.290	47.998	0	472.90	0	4.2870	0	34.0570	0	27.010	0	468.396	0	34.8	4	11.0	4	-1E+10	1	-1E+10	1	-1E+10	1	-1E+10	1	-1E+10	1	-1E+10	1
4902551	98	C	05/01/2023	18:08	-131.290	47.998	0	478.20	0	4.2650	0	34.0610	0	27.015	0	473.640	0	34.3	4	10.9	4	-1E+10	1	-1E+10	1	-1E+10	1	-1E+10	1	-1E+10	1	-1E+10	1
4902551	98	C	05/01/2023	18:08	-131.290	47.998	0	483.20	0	4.2090	0	34.0640	0	27.024	0	478.586	0	33.8	4	10.7	4	-1E+10	1	-1E+10	1	-1E+10	1	-1E+10	1	-1E+10	1	-1E+10	1
4902551	98	C	05/01/2023	18:08	-131.290	47.998	0	488.20	0	4.1780	0	34.0670	0	27.029	0	483.533	0	33.1	4	10.5	4	-1E+10	1	-1E+10	1	-1E+10	1	-1E+10	1	-1E+10	1	-1E+10	1
4902551	98	C	05/01/2023	18:08	-131.290	47.998	0	493.30	0	4.1600	0	34.0720	0	27.035	0	488.578	0	32.0	4	10.1	4	-1E+10	1	-1E+10	1	-1E+10	1	-1E+10	1	-1E+10	1	-1E+10	1
4902551	98	C	05/01/2023	18:08	-131.290	47.998	0	498.20	0	4.1690	0	34.0820	0	27.042	0	493.425	0	31.2	4	9.9	4	-1E+10	1	-1E+10	1	-1E+10	1	-1E+10	1	-1E+10	1	-1E+10	1
4902551	98	C	05/01/2023	18:08	-131.290	47.998	0	502.90	0	4.1660	0	34.0860	0	27.046	0	498.075	0	30.9	4	9.8	4	-1E+10	1	-1E+10	1	-1E+10	1	-1E+10	1	-1E+10	1	-1E+10	1
4902551	98	C	05/01/2023	18:08	-131.290	47.998	0	508.10	0	4.1520	0	34.0870	0	27.048	0	503.218	0	30.6	4	9.7	4	-1E+10	1	-1E+10	1	-1E+10	1	-1E+10	1	-1E+10	1	-1E+10	1
4902551	98	C	05/01/2023	18:08	-131.290	47.998	0	513.00	0	4.1480	0	34.0890	0	27.050	0	508.065	0	30.1	4	9.5	4	-1E+10	1	-1E+10	1	-1E+10	1	-1E+10	1	-1E+10	1	-1E+10	1
4902551	98	C	05/01/2023	18:08	-131.290	47.998	0	518.00	0	4.1320	0	34.0930	0	27.055	0	513.011	0	29.7	4	9.4	4	-1E+10	1	-1E+10	1	-1E+10	1	-1E+10	1	-1E+10	1	-1E+10	1
4902551	98	C	05/01/2023	18:08	-131.290	47.998	0	523.10	0	4.1110	0	34.0990	0	27.062	0	518.056	0	29.3	4	9.3	4	-1E+10	1	-1E+10	1	-1E+10	1	-1E+10	1	-1E+10	1	-1E+10	1
4902551	98	C	05/01/2023	18:08	-131.290	47.998	0	527.80	0	4.0960	0	34.1000	0	27.064	0	522.704	0	28.7	4	9.1	4	-1E+10	1	-1E+10	1	-1E+10	1	-1E+10	1	-1E+10	1	-1E+10	1
4902551	98	C	05/01/2023	18:08	-131.290	47.998	0	532.70	0	4.0980	0	34.1050	0	27.068	0	527.551	0	28.0	4	8.9	4	-1E+10	1	-1E+10	1	-1E+10	1	-1E+10	1	-1E+10	1	-1E+10	1
4902551	98	C	05/01/2023	18:08	-131.290	47.998	0	538.10	0	4.0870	0	34.1090	0	27.073	0	532.892	0	27.5	4	8.7	4	-1E+10	1	-1E+10	1	-1E+10	1	-1E+10	1	-1E+10	1	-1E+10	1
4902551	98	C	05/01/2023	18:08	-131.290	47.998	0	543.00	0	4.0770	0	34.1130	0	27.077	0	537.738	0	27.2	4	8.6	4	-1E+10	1	-1E+10	1	-1E+10	1	-1E+10	1	-1E+10	1	-1E+10	1
4902551	98	C	05/01/2023	18:08	-131.290	47.998	0	548.00	0	4.0700	0	34.1160	0	27.080	0	542.683	0	26.8	4	8.5	4	-1E+10	1	-1E+10	1	-1E+10	1	-1E+10	1	-1E+10	1	-1E+10	1
4902551	98	C	05/01/2023	18:08	-131.290	47.998	0	553.10	0	4.0600	0	34.1200	0	27.084	0	547.727	0	26.4	4	8.4	4	-1E+10	1	-1E+10	1	-1E+10	1	-1E+10	1	-1E+10	1	-1E+10	1
4902551	98	C	05/01/2023	18:08	-131.290	47.998	0	557.80	0	4.0410	0	34.1230	0	27.089	0	552.375	0	26.2	4	8.3	4	-1E+10	1	-1E+10	1	-1E+10	1	-1E+10	1	-1E+10	1	-1E+10	1
4902551	98	C	05/01/2023	18:08	-131.290	47.998	0	562.90	0	4.0220	0	34.1260	0	27.093	0	557.419	0	26.0	4	8.2	4	-1E+10	1	-1E+10	1	-1E+10	1	-1E+10	1	-1E+10	1	-1E+10	1
4902551	98	C	05/01/2023	18:08	-131.290	47.998	0	568.10	0	4.0060	0	34.1270	0	27.095	0	562.561	0	25.6	4	8.1	4	-1E+10	1	-1E+10	1	-1E+10	1	-1E+10	1	-1E+10	1	-1E+10	1
4902551	98	C	05/01/2023	18:08	-131.290	47.998	0	572.80	0	3.9930	0	34.1300	0	27.099	0	567.209	0	24.9	4	7.8	4	-1E+10	1	-1E+10	1	-1E+10	1	-1E+10	1	-1E+10	1	-1E+10	1
4902551	98	C	05/01/2023	18:08	-131.290	47.998	0	577.60	0	3.9790	0	34.1390	0	27.108	0	571.955	0	24.2	4	7.6	4	-1E+10	1	-1E+10	1	-1E+10	1	-1E+10	1	-1E+10	1	-1E+10	1
4902551	98	C	05/01/2023	18:08	-131.290	47.998	0	582.80	0	3.9800	0	34.1410	0	27.109	0	577.097	0	23.8	4	7.5	4	-1E+10	1	-1E+10	1	-1E+10	1	-1E+10	1	-1E+10	1	-1E+10	1
4902551	98	C	05/01/2023	18:08	-131.290	47.998	0	588.00	0	3.9820	0	34.1430	0	27.111	0	582.239	0	23.2	4	7.3	4	-1E+10	1	-1E+10	1	-1E+10	1	-1E+10	1	-1E+10	1	-1E+10	1
4902551	98	C	05/01/2023	18:08	-131.290	47.998	0	592.70	0	3.9710	0	34.1460	0	27.114	0	586.886	0	22.5	4	7.1	4	-1E+10	1	-1E+10	1	-1E+10	1	-1E+10	1	-1E+10	1	-1E+10	1
4902551	98	C	05/01/2023	18:08	-131.290	47.998	0	598.00	0	3.9580	0	34.1520	0	27.120	0	592.127	0	21.7	4	6.8	4	-1E+10	1	-1E+10	1	-1E+10	1	-1E+10	1	-1E+10	1	-1E+10	1
4902551	98	C	05/01/2023	18:08	-131.290	47.998	0	603.20	0	3.9530	0	34.1580	0	27.126	0	597.268	0	20.9	4	6.6	4	-1E+10	1	-1E+10	1	-1E+10	1	-1E+10	1	-1E+10	1	-1E+10	1
4902551	98	C	05/01/2023	18:08	-131.290	47.998	0	608.10	0	3.9530	0	34.1650	0	27.131	0	602.113	0	20.2	4	6.4	4	-1E+10	1	-1E+10	1	-1E+10	1	-1E+10	1	-1E+10	1	-1E+10	1
4902551	98	C	05/01/2023	18:08	-131.290	47.998	0	612.90	0	3.9580	0	34.1690	0	27.134	0	606.859	0	20.0	4	6.3	4	-1E+10	1	-1E+10	1	-1E+10	1	-1E+10	1	-1E+10	1	-1E+10	1
4902551	98	C	05/01/2023	18:08	-131.290	47.998	0	617.70	0	3.9540	0	34.1690	0	27.134	0	611.604	0	19.7	4	6.2	4	-1E+10	1	-1E+10	1	-1E+10	1	-1E+10	1	-1E+10	1	-1E+10	1
4902551	98	C	05/01/2023	18:08	-131.290	47.998	0	623.00	0	3.9360	0	34.1720	0	27.139	0	616.844	0	19.1	4	6.0	4	-1E+10	1	-1E+10	1	-1E+10	1	-1E+10	1	-1E+10	1	-1E+10	1
4902551	98	C	05/01/2023	18:08	-131.290	47.998	0	628.30	0	3.9360	0	34.1790	0	27.144	0	622.084	0	18.5	4	5.8	4	-1E+10	1	-1E+10	1	-1E+10	1	-1E+10	1	-1E+10	1	-1E+10	1
4902551	98	C	05/01/2023	18:08	-131.290	47.998	0	633.20	0	3.9200	0	34.1830	0	27.149	0	626.928	0	18.2	4	5.7	4	-1E+10	1	-1E+10	1	-1E+10	1	-1E+10	1	-1E+10	1	-1E+10	1
4902551	98	C	05/01/2023	18:08	-131.290	47.998	0	638.10	0	3.9110	0	34.1870	0	27.153	0	631.772	0	17.7	4	5.6	4	-1E+10	1	-1E+10	1	-1E+10	1	-1E+10	1	-1E+10	1	-1E+10	1
4902551	98	C	05/01/2023	18:08	-131.290	47.998	0	643.10	0	3.8900	0	34.1910	0	27.159	0	636.715	0	17.2	4	5.4	4	-1E+10	1	-1E+10	1	-1E+10	1	-1E+10	1	-1E+10	1	-1E+10	1
4902551	98	C	05/01/2023	18:08	-131.290	47.998	0	648.10	0	3.8820	0	34.2000	0	27.167	0	641.658	0	16.7	4	5.3	4	-1E+10	1	-1E+10	1	-1E+10	1	-1E+10	1	-1E+10	1	-1E+10	1
4902551	98	C	05/01/2023	18:08	-131.290	47.998	0	653.00	0	3.8850	0	34.2030	0	27.169	0	646.501	0	16.5	4	5.2	4	-1E+10	1	-1E+10	1	-1E+10	1	-1E+10	1	-1E+10	1	-1E+10	1
4902551	98	C	05/01/2023	18:08	-131.290	47.998	0	657.90	0	3.8820	0	34.2060	0	27.171	0	651.345	0	16.5	4	5.2	4	-1E+10	1	-1E+10	1	-1E+10	1	-1E+10	1	-1E+10	1	-1E+10	1
4902551	98	C	05/01/2023	18:08	-131.290	47.998	0	662.90	0	3.8750	0	34.2080	0	27.174	0	656.287	0	16.7	4	5.2	4	-1E+10	1	-1E+10	1	-1E+10	1	-1E+10	1	-1E+10	1	-1E+10	1
4902551	98	C	05/01/2023	18:08	-131.290	47.998	0	667.80	0	3.8520	0	34.2070	0	27.175	0	661.131	0	17.0	4	5.3	4	-1E+10	1	-1E+10	1	-1E+10	1	-1E+10	1	-1E+10	1	-1E+10	1
4902551	98	C	05/01/2023	18:08	-131.290	47.998	0	672.80	0	3.7920	0	34.2040	0	27.179	0	666.073	0	16.6	4	5.2	4	-1E+10	1	-1E+10	1	-1E+10	1	-1E+10	1	-1E+10	1	-1E+10	1
4902551	98	C	05/01/2023	18:08	-131.290	47.998	0	677.80	0	3.8010	0	34.2110	0	27.184	0	671.015	0	15.6	4	4.9	4	-1E+10	1	-1E+10	1	-1E+10	1	-1E+10	1	-1E+10	1	-1E+10	1
4902551	98	C	05/01/2023	18:08	-131.290	47.998	0	682.90	0	3.8290	0	34.2200	0	27.188	0	676.055	0	15.0	4	4.7	4	-1E+10	1	-1E+10	1	-1E+10	1	-1E+10	1	-1E+10	1	-1E+10	1
4902551	98	C	05/01/2023	18:08	-131.290	47.998	0	688.20	0	3.8280	0	34.2240	0	27.191	0	681.293	0	14.9	4	4.7	4	-1E+10	1	-1E+10	1	-1E+10	1	-1E+10	1	-1E+10	1	-1E+10	1
4902551	98	C	05/01/2023	18:08	-131.290	47.998	0	692.90	0	3.8170	0	34.2240	0	27.193	0	685.939	0	14.7	4	4.6	4	-1E+10	1	-1E+10	1	-1E+10	1	-1E+10	1	-1E+10	1	-1E+10	1
4902551	98	C	05/01/2023	18:08	-131.290	47.998	0	697.70	0	3.8170	0	34.2280	0	27.196	0	690.682	0	14.6	4	4.6	4	-1E+10	1	-1E+10	1	-1E+10	1	-1E+10	1	-1E+10	1	-1E+10	1
4902551	98	C	05/01/2023	18:08	-131.290	47.998	0	702.90	0	3.8000	0	34.2290	0	27.198	0	695.821	0	14.6	4	4.6	4	-1E+10	1	-1E+10	1	-1E+10	1	-1E+10	1	-1E+10	1	-1E+10	1
4902551	98	C	05/01/2023	18:08	-131.290	47.998	0	708.10	0	3.7840	0	34.2310	0	27.201	0	700.960	0	14.5	4	4.6	4	-1E+10	1	-1E+10	1	-1E+10	1	-1E+10	1	-1E+10	1	-1E+10	1
4902551	98	C	05/01/2023	18:08	-131.290	47.998	0	713.10	0	3.7620	0	34.2350	0	27.207	0	705.901	0	14.5	4	4.6	4	-1E+10	1	-1E+10	1	-1E+10	1	-1E+10	1	-1E+10	1	-1E+10	1
4902551	98	C	05/01/2023	18:08	-131.290	47.998	0	718.00	0	3.7540	0	34.2390	0	27.211	0	710.744	0	14.7	4	4.6	4	-1E+10	1	-1E+10	1	-1E+10	1	-1E+10	1	-1E+10	1	-1E+10	1
4902551	98	C	05/01/2023	18:08	-131.290	47.998	0	723.00	0	3.7110	0	34.2370	0	27.214	0	715.685	0	14.7	4	4.6	4	-1E+10	1	-1E+10	1	-1E+10	1	-1E+10	1	-1E+10	1	-1E+10	1
4902551	98	C	05/01/2023	18:08	-131.290	47.998	0	728.00	0	3.6960	0	34.2400	0	27.217	0	720.625	0	14.4	4	4.5	4	-1E+10	1	-1E+10	1	-1E+10	1	-1E+10	1	-1E+10	1	-1E+10	1
4902551	98	C	05/01/2023	18:08	-131.290	47.998	0	733.10	0	3.6950	0	34.2450	0	27.222	0	725.665	0	14.1	4	4.4	4	-1E+10	1	-1E+10	1	-1E+10	1	-1E+10	1	-1E+10	1	-1E+10	1
4902551	98	C	05/01/2023	18:08	-131.290	47.998	0	738.10	0	3.6920	0	34.2480	0	27.224	0	730.605	0	14.1	4	4.4	4	-1E+10	1	-1E+10	1	-1E+10	1	-1E+10	1	-1E+10	1	-1E+10	1
4902551	98	C	05/01/2023	18:08	-131.290	47.998	0	743.20	0	3.6820	0	34.2500	0	27.227	0	735.645	0	14.0	4	4.4	4	-1E+10	1	-1E+10	1	-1E+10	1	-1E+10	1	-1E+10	1	-1E+10	1
4902551	98	C	05/01/2023	18:08	-131.290	47.998	0	747.90	0	3.6710	0	34.2480	0	27.226	0	740.288	0	13.9	4	4.3	4	-1E+10	1	-1E+10	1	-1E+10	1	-1E+10	1	-1E+10	1	-1E+10	1
4902551	98	C	05/01/2023	18:08	-131.290	47.998	0	752.60	0	3.6480	0	34.2530	0	27.233	0	744.932	0	13.6	4	4.3	4	-1E+10	1	-1E+10	1	-1E+10	1	-1E+10	1	-1E+10	1	-1E+10	1
4902551	98	C	05/01/2023	18:08	-131.290	47.998	0	757.80	0	3.6440	0	34.2590	0	27.238	0	750.070	0	13.4	4	4.2	4	-1E+10	1	-1E+10	1	-1E+10	1	-1E+10	1	-1E+10	1	-1E+10	1
4902551	98	C	05/01/2023	18:08	-131.290	47.998	0	763.00	0	3.6380	0	34.2610	0	27.240	0	755.207	0	13.3	4	4.2	4	-1E+10	1	-1E+10	1	-1E+10	1	-1E+10	1	-1E+10	1	-1E+10	1
4902551	98	C	05/01/2023	18:08	-131.290	47.998	0	768.20	0	3.6330	0	34.2640	0	27.243	0	760.345	0	13.2	4	4.1	4	-1E+10	1	-1E+10	1	-1E+10	1	-1E+10	1	-1E+10	1	-1E+10	1
4902551	98	C	05/01/2023	18:08	-131.290	47.998	0	773.00	0	3.6250	0	34.2660	0	27.245	0	765.087	0	13.2	4	4.1	4	-1E+10	1	-1E+10	1	-1E+10	1	-1E+10	1	-1E+10	1	-1E+10	1
4902551	98	C	05/01/2023	18:08	-131.290	47.998	0	777.80	0	3.6090	0	34.2700	0	27.250	0	769.829	0	13.2	4	4.1	4	-1E+10	1	-1E+10	1	-1E+10	1	-1E+10	1	-1E+10	1	-1E+10	1
4902551	98	C	05/01/2023	18:08	-131.290	47.998	0	782.80	0	3.5910	0	34.2720	0	27.254	0	774.768	0	13.3	4	4.2	4	-1E+10	1	-1E+10	1	-1E+10	1	-1E+10	1	-1E+10	1	-1E+10	1
4902551	98	C	05/01/2023	18:08	-131.290	47.998	0	787.70	0	3.5650	0	34.2740	0	27.258	0	779.609	0	13.5	4	4.2	4	-1E+10	1	-1E+10	1	-1E+10	1	-1E+10	1	-1E+10	1	-1E+10	1
4902551	98	C	05/01/2023	18:08	-131.290	47.998	0	793.10	0	3.5440	0	34.2750	0	27.261	0	784.943	0	13.6	4	4.3	4	-1E+10	1	-1E+10	1	-1E+10	1	-1E+10	1	-1E+10	1	-1E+10	1
4902551	98	C	05/01/2023	18:08	-131.290	47.998	0	798.10	0	3.5140	0	34.2750	0	27.264	0	789.883	0	13.7	4	4.3	4	-1E+10	1	-1E+10	1	-1E+10	1	-1E+10	1	-1E+10	1	-1E+10	1
4902551	98	C	05/01/2023	18:08	-131.290	47.998	0	802.80	0	3.4900	0	34.2770	0	27.267	0	794.525	0	13.7	4	4.3	4	-1E+10	1	-1E+10	1	-1E+10	1	-1E+10	1	-1E+10	1	-1E+10	1
4902551	98	C	05/01/2023	18:08	-131.290	47.998	0	808.00	0	3.4770	0	34.2790	0	27.270	0	799.662	0	13.7	4	4.3	4	-1E+10	1	-1E+10	1	-1E+10	1	-1E+10	1	-1E+10	1	-1E+10	1
4902551	98	C	05/01/2023	18:08	-131.290	47.998	0	813.20	0	3.4640	0	34.2800	0	27.272	0	804.798	0	13.6	4	4.2	4	-1E+10	1	-1E+10	1	-1E+10	1	-1E+10	1	-1E+10	1	-1E+10	1
4902551	98	C	05/01/2023	18:08	-131.290	47.998	0	818.00	0	3.4520	0	34.2820	0	27.275	0	809.539	0	13.5	4	4.2	4	-1E+10	1	-1E+10	1	-1E+10	1	-1E+10	1	-1E+10	1	-1E+10	1
4902551	98	C	05/01/2023	18:08	-131.290	47.998	0	822.70	0	3.4380	0	34.2840	0	27.278	0	814.181	0	13.4	4	4.2	4	-1E+10	1	-1E+10	1	-1E+10	1	-1E+10	1	-1E+10	1	-1E+10	1
4902551	98	C	05/01/2023	18:08	-131.290	47.998	0	827.70	0	3.4300	0	34.2860	0	27.281	0	819.120	0	13.3	4	4.2	4	-1E+10	1	-1E+10	1	-1E+10	1	-1E+10	1	-1E+10	1	-1E+10	1
4902551	98	C	05/01/2023	18:08	-131.290	47.998	0	832.60	0	3.4190	0	34.2890	0	27.284	0	823.959	0	13.2	4	4.1	4	-1E+10	1	-1E+10	1	-1E+10	1	-1E+10	1	-1E+10	1	-1E+10	1
4902551	98	C	05/01/2023	18:08	-131.290	47.998	0	837.50	0	3.4090	0	34.2910	0	27.287	0	828.799	0	13.2	4	4.1	4	-1E+10	1	-1E+10	1	-1E+10	1	-1E+10	1	-1E+10	1	-1E+10	1
4902551	98	C	05/01/2023	18:08	-131.290	47.998	0	842.90	0	3.4010	0	34.2930	0	27.289	0	834.132	0	13.1	4	4.1	4	-1E+10	1	-1E+10	1	-1E+10	1	-1E+10	1	-1E+10	1	-1E+10	1
4902551	98	C	05/01/2023	18:08	-131.290	47.998	0	848.00	0	3.3950	0	34.2950	0	27.291	0	839.169	0	13.0	4	4.0	4	-1E+10	1	-1E+10	1	-1E+10	1	-1E+10	1	-1E+10	1	-1E+10	1
4902551	98	C	05/01/2023	18:08	-131.290	47.998	0	852.50	0	3.3900	0	34.2970	0	27.293	0	843.613	0	12.9	4	4.0	4	-1E+10	1	-1E+10	1	-1E+10	1	-1E+10	1	-1E+10	1	-1E+10	1
4902551	98	C	05/01/2023	18:08	-131.290	47.998	0	857.60	0	3.3830	0	34.2990	0	27.296	0	848.649	0	12.8	4	4.0	4	-1E+10	1	-1E+10	1	-1E+10	1	-1E+10	1	-1E+10	1	-1E+10	1
4902551	98	C	05/01/2023	18:08	-131.290	47.998	0	862.70	0	3.3750	0	34.3010	0	27.298	0	853.686	0	12.8	4	4.0	4	-1E+10	1	-1E+10	1	-1E+10	1	-1E+10	1	-1E+10	1	-1E+10	1
4902551	98	C	05/01/2023	18:08	-131.290	47.998	0	867.90	0	3.3680	0	34.3030	0	27.300	0	858.821	0	12.8	4	4.0	4	-1E+10	1	-1E+10	1	-1E+10	1	-1E+10	1	-1E+10	1	-1E+10	1
4902551	98	C	05/01/2023	18:08	-131.290	47.998	0	872.90	0	3.3620	0	34.3040	0	27.302	0	863.758	0	12.8	4	4.0	4	-1E+10	1	-1E+10	1	-1E+10	1	-1E+10	1	-1E+10	1	-1E+10	1
4902551	98	C	05/01/2023	18:08	-131.290	47.998	0	878.00	0	3.3540	0	34.3050	0	27.303	0	868.794	0	12.7	4	4.0	4	-1E+10	1	-1E+10	1	-1E+10	1	-1E+10	1	-1E+10	1	-1E+10	1
4902551	98	C	05/01/2023	18:08	-131.290	47.998	0	883.10	0	3.3500	0	34.3060	0	27.304	0	873.830	0	12.7	4	3.9	4	-1E+10	1	-1E+10	1	-1E+10	1	-1E+10	1	-1E+10	1	-1E+10	1
4902551	98	C	05/01/2023	18:08	-131.290	47.998	0	887.90	0	3.3460	0	34.3070	0	27.306	0	878.569	0	12.6	4	3.9	4	-1E+10	1	-1E+10	1	-1E+10	1	-1E+10	1	-1E+10	1	-1E+10	1
4902551	98	C	05/01/2023	18:08	-131.290	47.998	0	892.70	0	3.3350	0	34.3100	0	27.309	0	883.309	0	12.5	4	3.9	4	-1E+10	1	-1E+10	1	-1E+10	1	-1E+10	1	-1E+10	1	-1E+10	1
4902551	98	C	05/01/2023	18:08	-131.290	47.998	0	897.70	0	3.3250	0	34.3130	0	27.312	0	888.246	0	12.5	4	3.9	4	-1E+10	1	-1E+10	1	-1E+10	1	-1E+10	1	-1E+10	1	-1E+10	1
4902551	98	C	05/01/2023	18:08	-131.290	47.998	0	902.60	0	3.3180	0	34.3150	0	27.315	0	893.083	0	12.4	4	3.9	4	-1E+10	1	-1E+10	1	-1E+10	1	-1E+10	1	-1E+10	1	-1E+10	1
4902551	98	C	05/01/2023	18:08	-131.290	47.998	0	907.70	0	3.3120	0	34.3170	0	27.317	0	898.119	0	12.4	4	3.8	4	-1E+10	1	-1E+10	1	-1E+10	1	-1E+10	1	-1E+10	1	-1E+10	1
4902551	98	C	05/01/2023	18:08	-131.290	47.998	0	912.70	0	3.3100	0	34.3170	0	27.317	0	903.055	0	12.3	4	3.8	4	-1E+10	1	-1E+10	1	-1E+10	1	-1E+10	1	-1E+10	1	-1E+10	1
4902551	98	C	05/01/2023	18:08	-131.290	47.998	0	917.70	0	3.3030	0	34.3190	0	27.319	0	907.992	0	12.3	4	3.8	4	-1E+10	1	-1E+10	1	-1E+10	1	-1E+10	1	-1E+10	1	-1E+10	1
4902551	98	C	05/01/2023	18:08	-131.290	47.998	0	922.80	0	3.2960	0	34.3210	0	27.322	0	913.026	0	12.2	4	3.8	4	-1E+10	1	-1E+10	1	-1E+10	1	-1E+10	1	-1E+10	1	-1E+10	1
4902551	98	C	05/01/2023	18:08	-131.290	47.998	0	927.80	0	3.2880	0	34.3220	0	27.323	0	917.963	0	12.2	4	3.8	4	-1E+10	1	-1E+10	1	-1E+10	1	-1E+10	1	-1E+10	1	-1E+10	1
4902551	98	C	05/01/2023	18:08	-131.290	47.998	0	932.90	0	3.2780	0	34.3250	0	27.327	0	922.997	0	12.1	4	3.8	4	-1E+10	1	-1E+10	1	-1E+10	1	-1E+10	1	-1E+10	1	-1E+10	1
4902551	98	C	05/01/2023	18:08	-131.290	47.998	0	937.90	0	3.2640	0	34.3280	0	27.330	0	927.933	0	12.0	4	3.7	4	-1E+10	1	-1E+10	1	-1E+10	1	-1E+10	1	-1E+10	1	-1E+10	1
4902551	98	C	05/01/2023	18:08	-131.290	47.998	0	943.00	0	3.2580	0	34.3300	0	27.333	0	932.968	0	12.0	4	3.7	4	-1E+10	1	-1E+10	1	-1E+10	1	-1E+10	1	-1E+10	1	-1E+10	1
4902551	98	C	05/01/2023	18:08	-131.290	47.998	0	948.10	0	3.2490	0	34.3320	0	27.335	0	938.002	0	11.9	4	3.7	4	-1E+10	1	-1E+10	1	-1E+10	1	-1E+10	1	-1E+10	1	-1E+10	1
4902551	98	C	05/01/2023	18:08	-131.290	47.998	0	953.10	0	3.2400	0	34.3350	0	27.338	0	942.937	0	11.9	4	3.7	4	-1E+10	1	-1E+10	1	-1E+10	1	-1E+10	1	-1E+10	1	-1E+10	1
4902551	98	C	05/01/2023	18:08	-131.290	47.998	0	958.10	0	3.2340	0	34.3370	0	27.340	0	947.873	0	11.9	4	3.7	4	-1E+10	1	-1E+10	1	-1E+10	1	-1E+10	1	-1E+10	1	-1E+10	1
4902551	98	C	05/01/2023	18:08	-131.290	47.998	0	963.30	0	3.2240	0	34.3390	0	27.343	0	953.005	0	11.8	4	3.7	4	-1E+10	1	-1E+10	1	-1E+10	1	-1E+10	1	-1E+10	1	-1E+10	1
4902551	98	C	05/01/2023	18:08	-131.290	47.998	0	968.00	0	3.2120	0	34.3420	0	27.347	0	957.644	0	11.8	4	3.7	4	-1E+10	1	-1E+10	1	-1E+10	1	-1E+10	1	-1E+10	1	-1E+10	1
4902551	98	C	05/01/2023	18:08	-131.290	47.998	0	972.80	0	3.2050	0	34.3440	0	27.349	0	962.382	0	11.8	4	3.6	4	-1E+10	1	-1E+10	1	-1E+10	1	-1E+10	1	-1E+10	1	-1E+10	1
4902551	98	C	05/01/2023	18:08	-131.290	47.998	0	978.10	0	3.1930	0	34.3470	0	27.352	0	967.613	0	11.7	4	3.6	4	-1E+10	1	-1E+10	1	-1E+10	1	-1E+10	1	-1E+10	1	-1E+10	1
4902551	98	C	05/01/2023	18:08	-131.290	47.998	0	983.10	0	3.1870	0	34.3480	0	27.354	0	972.548	0	11.7	4	3.6	4	-1E+10	1	-1E+10	1	-1E+10	1	-1E+10	1	-1E+10	1	-1E+10	1
4902551	98	C	05/01/2023	18:08	-131.290	47.998	0	988.00	0	3.1760	0	34.3510	0	27.357	0	977.384	0	11.7	4	3.6	4	-1E+10	1	-1E+10	1	-1E+10	1	-1E+10	1	-1E+10	1	-1E+10	1
4902551	98	C	05/01/2023	18:08	-131.290	47.998	0	992.90	0	3.1680	0	34.3520	0	27.359	0	982.220	0	11.7	4	3.6	4	-1E+10	1	-1E+10	1	-1E+10	1	-1E+10	1	-1E+10	1	-1E+10	1
4902551	98	C	05/01/2023	18:08	-131.290	47.998	0	997.80	0	3.1570	0	34.3550	0	27.362	0	987.055	0	11.7	4	3.6	4	-1E+10	1	-1E+10	1	-1E+10	1	-1E+10	1	-1E+10	1	-1E+10	1
4902551	98	C	05/01/2023	18:08	-131.290	47.998	0	1005.60	0	3.1410	0	34.3590	0	27.367	0	994.753	0	11.6	4	3.6	4	-1E+10	1	-1E+10	1	-1E+10	1	-1E+10	1	-1E+10	1	-1E+10	1
4902551	98	C	05/01/2023	18:08	-131.290	47.998	0	1015.40	0	3.1240	0	34.3630	0	27.372	0	1004.424	0	11.6	4	3.6	4	-1E+10	1	-1E+10	1	-1E+10	1	-1E+10	1	-1E+10	1	-1E+10	1
4902551	98	C	05/01/2023	18:08	-131.290	47.998	0	1025.30	0	3.1070	0	34.3670	0	27.376	0	1014.193	0	11.6	4	3.6	4	-1E+10	1	-1E+10	1	-1E+10	1	-1E+10	1	-1E+10	1	-1E+10	1
4902551	98	C	05/01/2023	18:08	-131.290	47.998	0	1035.30	0	3.0970	0	34.3700	0	27.380	0	1024.060	0	11.6	4	3.6	4	-1E+10	1	-1E+10	1	-1E+10	1	-1E+10	1	-1E+10	1	-1E+10	1
4902551	98	C	05/01/2023	18:08	-131.290	47.998	0	1045.30	0	3.0750	0	34.3740	0	27.385	0	1033.927	0	11.7	4	3.6	4	-1E+10	1	-1E+10	1	-1E+10	1	-1E+10	1	-1E+10	1	-1E+10	1
4902551	98	C	05/01/2023	18:08	-131.290	47.998	0	1055.30	0	3.0620	0	34.3770	0	27.389	0	1043.793	0	11.7	4	3.6	4	-1E+10	1	-1E+10	1	-1E+10	1	-1E+10	1	-1E+10	1	-1E+10	1
4902551	98	C	05/01/2023	18:08	-131.290	47.998	0	1065.30	0	3.0380	0	34.3810	0	27.394	0	1053.659	0	11.8	4	3.6	4	-1E+10	1	-1E+10	1	-1E+10	1	-1E+10	1	-1E+10	1	-1E+10	1
4902551	98	C	05/01/2023	18:08	-131.290	47.998	0	1075.60	0	3.0130	0	34.3860	0	27.400	0	1063.820	0	11.9	4	3.7	4	-1E+10	1	-1E+10	1	-1E+10	1	-1E+10	1	-1E+10	1	-1E+10	1
4902551	98	C	05/01/2023	18:08	-131.290	47.998	0	1085.70	0	2.9930	0	34.3900	0	27.406	0	1073.784	0	12.0	4	3.7	4	-1E+10	1	-1E+10	1	-1E+10	1	-1E+10	1	-1E+10	1	-1E+10	1
4902551	98	C	05/01/2023	18:08	-131.290	47.998	0	1095.70	0	2.9740	0	34.3940	0	27.411	0	1083.648	0	12.1	4	3.7	4	-1E+10	1	-1E+10	1	-1E+10	1	-1E+10	1	-1E+10	1	-1E+10	1
4902551	98	C	05/01/2023	18:08	-131.290	47.998	0	1105.60	0	2.9600	0	34.3980	0	27.415	0	1093.414	0	12.1	4	3.7	4	-1E+10	1	-1E+10	1	-1E+10	1	-1E+10	1	-1E+10	1	-1E+10	1
4902551	98	C	05/01/2023	18:08	-131.290	47.998	0	1115.60	0	2.9480	0	34.4000	0	27.418	0	1103.277	0	12.3	4	3.8	4	-1E+10	1	-1E+10	1	-1E+10	1	-1E+10	1	-1E+10	1	-1E+10	1
4902551	98	C	05/01/2023	18:08	-131.290	47.998	0	1125.80	0	2.9200	0	34.4050	0	27.424	0	1113.338	0	12.5	4	3.8	4	-1E+10	1	-1E+10	1	-1E+10	1	-1E+10	1	-1E+10	1	-1E+10	1
4902551	98	C	05/01/2023	18:08	-131.290	47.998	0	1135.40	0	2.8990	0	34.4100	0	27.430	0	1122.806	0	12.6	4	3.9	4	-1E+10	1	-1E+10	1	-1E+10	1	-1E+10	1	-1E+10	1	-1E+10	1
4902551	98	C	05/01/2023	18:08	-131.290	47.998	0	1145.10	0	2.8780	0	34.4150	0	27.436	0	1132.372	0	12.8	4	3.9	4	-1E+10	1	-1E+10	1	-1E+10	1	-1E+10	1	-1E+10	1	-1E+10	1
4902551	98	C	05/01/2023	18:08	-131.290	47.998	0	1155.40	0	2.8580	0	34.4170	0	27.440	0	1142.529	0	13.0	4	4.0	4	-1E+10	1	-1E+10	1	-1E+10	1	-1E+10	1	-1E+10	1	-1E+10	1
4902551	98	C	05/01/2023	18:08	-131.290	47.998	0	1165.50	0	2.8420	0	34.4220	0	27.445	0	1152.489	0	13.2	4	4.0	4	-1E+10	1	-1E+10	1	-1E+10	1	-1E+10	1	-1E+10	1	-1E+10	1
4902551	98	C	05/01/2023	18:08	-131.290	47.998	0	1175.30	0	2.8210	0	34.4250	0	27.449	0	1162.153	0	13.3	4	4.1	4	-1E+10	1	-1E+10	1	-1E+10	1	-1E+10	1	-1E+10	1	-1E+10	1
4902551	98	C	05/01/2023	18:08	-131.290	47.998	0	1185.40	0	2.8050	0	34.4270	0	27.452	0	1172.112	0	13.4	4	4.1	4	-1E+10	1	-1E+10	1	-1E+10	1	-1E+10	1	-1E+10	1	-1E+10	1
4902551	98	C	05/01/2023	18:08	-131.290	47.998	0	1195.30	0	2.7940	0	34.4280	0	27.454	0	1181.873	0	13.6	4	4.2	4	-1E+10	1	-1E+10	1	-1E+10	1	-1E+10	1	-1E+10	1	-1E+10	1
4902551	98	C	05/01/2023	18:08	-131.290	47.998	0	1205.30	0	2.7780	0	34.4330	0	27.460	0	1191.732	0	13.9	4	4.3	4	-1E+10	1	-1E+10	1	-1E+10	1	-1E+10	1	-1E+10	1	-1E+10	1
4902551	98	C	05/01/2023	18:08	-131.290	47.998	0	1215.50	0	2.7650	0	34.4360	0	27.463	0	1201.788	0	14.1	4	4.3	4	-1E+10	1	-1E+10	1	-1E+10	1	-1E+10	1	-1E+10	1	-1E+10	1
4902551	98	C	05/01/2023	18:08	-131.290	47.998	0	1225.50	0	2.7520	0	34.4390	0	27.467	0	1211.647	0	14.3	4	4.4	4	-1E+10	1	-1E+10	1	-1E+10	1	-1E+10	1	-1E+10	1	-1E+10	1
4902551	98	C	05/01/2023	18:08	-131.290	47.998	0	1235.10	0	2.7340	0	34.4410	0	27.470	0	1221.110	0	14.5	4	4.4	4	-1E+10	1	-1E+10	1	-1E+10	1	-1E+10	1	-1E+10	1	-1E+10	1
4902551	98	C	05/01/2023	18:08	-131.290	47.998	0	1245.70	0	2.7210	0	34.4440	0	27.474	0	1231.559	0	14.7	4	4.5	4	-1E+10	1	-1E+10	1	-1E+10	1	-1E+10	1	-1E+10	1	-1E+10	1
4902551	98	C	05/01/2023	18:08	-131.290	47.998	0	1255.40	0	2.7100	0	34.4460	0	27.476	0	1241.121	0	15.0	4	4.6	4	-1E+10	1	-1E+10	1	-1E+10	1	-1E+10	1	-1E+10	1	-1E+10	1
4902551	98	C	05/01/2023	18:08	-131.290	47.998	0	1265.40	0	2.7000	0	34.4480	0	27.479	0	1250.977	0	15.1	4	4.6	4	-1E+10	1	-1E+10	1	-1E+10	1	-1E+10	1	-1E+10	1	-1E+10	1
4902551	98	C	05/01/2023	18:08	-131.290	47.998	0	1275.80	0	2.6890	0	34.4500	0	27.481	0	1261.227	0	15.3	4	4.7	4	-1E+10	1	-1E+10	1	-1E+10	1	-1E+10	1	-1E+10	1	-1E+10	1
4902551	98	C	05/01/2023	18:08	-131.290	47.998	0	1285.40	0	2.6790	0	34.4510	0	27.483	0	1270.689	0	15.6	4	4.8	4	-1E+10	1	-1E+10	1	-1E+10	1	-1E+10	1	-1E+10	1	-1E+10	1
4902551	98	C	05/01/2023	18:08	-131.290	47.998	0	1295.40	0	2.6670	0	34.4540	0	27.487	0	1280.544	0	15.9	4	4.9	4	-1E+10	1	-1E+10	1	-1E+10	1	-1E+10	1	-1E+10	1	-1E+10	1
4902551	98	C	05/01/2023	18:08	-131.290	47.998	0	1305.50	0	2.6570	0	34.4560	0	27.489	0	1290.497	0	16.2	4	4.9	4	-1E+10	1	-1E+10	1	-1E+10	1	-1E+10	1	-1E+10	1	-1E+10	1
4902551	98	C	05/01/2023	18:08	-131.290	47.998	0	1315.30	0	2.6440	0	34.4580	0	27.492	0	1300.154	0	16.5	4	5.0	4	-1E+10	1	-1E+10	1	-1E+10	1	-1E+10	1	-1E+10	1	-1E+10	1
4902551	98	C	05/01/2023	18:08	-131.290	47.998	0	1325.30	0	2.6230	0	34.4620	0	27.497	0	1310.008	0	16.8	4	5.1	4	-1E+10	1	-1E+10	1	-1E+10	1	-1E+10	1	-1E+10	1	-1E+10	1
4902551	98	C	05/01/2023	18:08	-131.290	47.998	0	1335.30	0	2.6040	0	34.4640	0	27.500	0	1319.862	0	17.1	4	5.2	4	-1E+10	1	-1E+10	1	-1E+10	1	-1E+10	1	-1E+10	1	-1E+10	1
4902551	98	C	05/01/2023	18:08	-131.290	47.998	0	1345.20	0	2.5800	0	34.4660	0	27.504	0	1329.616	0	17.2	4	5.3	4	-1E+10	1	-1E+10	1	-1E+10	1	-1E+10	1	-1E+10	1	-1E+10	1
4902551	98	C	05/01/2023	18:08	-131.290	47.998	0	1355.40	0	2.5660	0	34.4680	0	27.507	0	1339.665	0	17.7	4	5.4	4	-1E+10	1	-1E+10	1	-1E+10	1	-1E+10	1	-1E+10	1	-1E+10	1
4902551	98	C	05/01/2023	18:08	-131.290	47.998	0	1365.60	0	2.5550	0	34.4710	0	27.510	0	1349.714	0	18.1	4	5.5	4	-1E+10	1	-1E+10	1	-1E+10	1	-1E+10	1	-1E+10	1	-1E+10	1
4902551	98	C	05/01/2023	18:08	-131.290	47.998	0	1375.20	0	2.5380	0	34.4740	0	27.514	0	1359.172	0	18.5	4	5.7	4	-1E+10	1	-1E+10	1	-1E+10	1	-1E+10	1	-1E+10	1	-1E+10	1
4902551	98	C	05/01/2023	18:08	-131.290	47.998	0	1385.20	0	2.5180	0	34.4760	0	27.517	0	1369.023	0	19.2	4	5.9	4	-1E+10	1	-1E+10	1	-1E+10	1	-1E+10	1	-1E+10	1	-1E+10	1
4902551	98	C	05/01/2023	18:08	-131.290	47.998	0	1395.30	0	2.5170	0	34.4800	0	27.521	0	1378.972	0	20.0	4	6.1	4	-1E+10	1	-1E+10	1	-1E+10	1	-1E+10	1	-1E+10	1	-1E+10	1
4902551	98	C	05/01/2023	18:08	-131.290	47.998	0	1405.40	0	2.5010	0	34.4830	0	27.524	0	1388.920	0	20.6	4	6.3	4	-1E+10	1	-1E+10	1	-1E+10	1	-1E+10	1	-1E+10	1	-1E+10	1
4902551	98	C	05/01/2023	18:08	-131.290	47.998	0	1415.60	0	2.4920	0	34.4860	0	27.528	0	1398.967	0	21.2	4	6.5	4	-1E+10	1	-1E+10	1	-1E+10	1	-1E+10	1	-1E+10	1	-1E+10	1
4902551	98	C	05/01/2023	18:08	-131.290	47.998	0	1425.40	0	2.4820	0	34.4880	0	27.530	0	1408.619	0	21.7	4	6.6	4	-1E+10	1	-1E+10	1	-1E+10	1	-1E+10	1	-1E+10	1	-1E+10	1
4902551	98	C	05/01/2023	18:08	-131.290	47.998	0	1435.50	0	2.4650	0	34.4910	0	27.534	0	1418.566	0	22.0	4	6.7	4	-1E+10	1	-1E+10	1	-1E+10	1	-1E+10	1	-1E+10	1	-1E+10	1
4902551	98	C	05/01/2023	18:08	-131.290	47.998	0	1445.70	0	2.4440	0	34.4920	0	27.537	0	1428.611	0	22.1	4	6.7	4	-1E+10	1	-1E+10	1	-1E+10	1	-1E+10	1	-1E+10	1	-1E+10	1
4902551	98	C	05/01/2023	18:08	-131.290	47.998	0	1455.60	0	2.4270	0	34.4940	0	27.540	0	1438.361	0	22.4	4	6.8	4	-1E+10	1	-1E+10	1	-1E+10	1	-1E+10	1	-1E+10	1	-1E+10	1
4902551	98	C	05/01/2023	18:08	-131.290	47.998	0	1465.30	0	2.4150	0	34.4960	0	27.542	0	1447.913	0	22.9	4	7.0	4	-1E+10	1	-1E+10	1	-1E+10	1	-1E+10	1	-1E+10	1	-1E+10	1
4902551	98	C	05/01/2023	18:08	-131.290	47.998	0	1475.30	0	2.3960	0	34.4980	0	27.546	0	1457.759	0	23.5	4	7.2	4	-1E+10	1	-1E+10	1	-1E+10	1	-1E+10	1	-1E+10	1	-1E+10	1
4902551	98	C	05/01/2023	18:08	-131.290	47.998	0	1485.40	0	2.3830	0	34.5010	0	27.549	0	1467.704	0	24.0	4	7.3	4	-1E+10	1	-1E+10	1	-1E+10	1	-1E+10	1	-1E+10	1	-1E+10	1
4902551	98	C	05/01/2023	18:08	-131.290	47.998	0	1495.20	0	2.3720	0	34.5030	0	27.552	0	1477.353	0	24.3	4	7.4	4	-1E+10	1	-1E+10	1	-1E+10	1	-1E+10	1	-1E+10	1	-1E+10	1
4902551	98	C	05/01/2023	18:08	-131.290	47.998	0	1505.30	0	2.3640	0	34.5040	0	27.553	0	1487.297	0	24.8	4	7.5	4	-1E+10	1	-1E+10	1	-1E+10	1	-1E+10	1	-1E+10	1	-1E+10	1
4902551	98	C	05/01/2023	18:08	-131.290	47.998	0	1515.60	0	2.3530	0	34.5060	0	27.556	0	1497.438	0	25.3	4	7.7	4	-1E+10	1	-1E+10	1	-1E+10	1	-1E+10	1	-1E+10	1	-1E+10	1
4902551	98	C	05/01/2023	18:08	-131.290	47.998	0	1525.90	0	2.3400	0	34.5080	0	27.558	0	1507.577	0	25.9	4	7.9	4	-1E+10	1	-1E+10	1	-1E+10	1	-1E+10	1	-1E+10	1	-1E+10	1
4902551	98	C	05/01/2023	18:08	-131.290	47.998	0	1535.90	0	2.3270	0	34.5110	0	27.562	0	1517.421	0	26.5	4	8.0	4	-1E+10	1	-1E+10	1	-1E+10	1	-1E+10	1	-1E+10	1	-1E+10	1
4902551	98	C	05/01/2023	18:08	-131.290	47.998	0	1545.50	0	2.3170	0	34.5130	0	27.564	0	1526.871	0	27.0	4	8.2	4	-1E+10	1	-1E+10	1	-1E+10	1	-1E+10	1	-1E+10	1	-1E+10	1
4902551	98	C	05/01/2023	18:08	-131.290	47.998	0	1555.60	0	2.3030	0	34.5150	0	27.567	0	1536.813	0	27.5	4	8.4	4	-1E+10	1	-1E+10	1	-1E+10	1	-1E+10	1	-1E+10	1	-1E+10	1
4902551	98	C	05/01/2023	18:08	-131.290	47.998	0	1565.50	0	2.2950	0	34.5170	0	27.570	0	1546.557	0	28.0	4	8.5	4	-1E+10	1	-1E+10	1	-1E+10	1	-1E+10	1	-1E+10	1	-1E+10	1
4902551	98	C	05/01/2023	18:08	-131.290	47.998	0	1575.20	0	2.2810	0	34.5180	0	27.571	0	1556.104	0	28.4	4	8.6	4	-1E+10	1	-1E+10	1	-1E+10	1	-1E+10	1	-1E+10	1	-1E+10	1
4902551	98	C	05/01/2023	18:08	-131.290	47.998	0	1585.40	0	2.2740	0	34.5200	0	27.574	0	1566.143	0	28.9	4	8.8	4	-1E+10	1	-1E+10	1	-1E+10	1	-1E+10	1	-1E+10	1	-1E+10	1
4902551	98	C	05/01/2023	18:08	-131.290	47.998	0	1595.40	0	2.2650	0	34.5210	0	27.575	0	1575.984	0	29.6	4	9.0	4	-1E+10	1	-1E+10	1	-1E+10	1	-1E+10	1	-1E+10	1	-1E+10	1
4902551	98	C	05/01/2023	18:08	-131.290	47.998	0	1605.40	0	2.2520	0	34.5240	0	27.579	0	1585.825	0	30.3	4	9.2	4	-1E+10	1	-1E+10	1	-1E+10	1	-1E+10	1	-1E+10	1	-1E+10	1
4902551	98	C	05/01/2023	18:08	-131.290	47.998	0	1615.60	0	2.2400	0	34.5260	0	27.581	0	1595.862	0	30.9	4	9.4	4	-1E+10	1	-1E+10	1	-1E+10	1	-1E+10	1	-1E+10	1	-1E+10	1
4902551	98	C	05/01/2023	18:08	-131.290	47.998	0	1625.60	0	2.2320	0	34.5270	0	27.583	0	1605.702	0	31.4	4	9.5	4	-1E+10	1	-1E+10	1	-1E+10	1	-1E+10	1	-1E+10	1	-1E+10	1
4902551	98	C	05/01/2023	18:08	-131.290	47.998	0	1635.60	0	2.2220	0	34.5290	0	27.585	0	1615.542	0	32.1	4	9.7	4	-1E+10	1	-1E+10	1	-1E+10	1	-1E+10	1	-1E+10	1	-1E+10	1
4902551	98	C	05/01/2023	18:08	-131.290	47.998	0	1645.40	0	2.2090	0	34.5320	0	27.589	0	1625.184	0	32.7	4	9.9	4	-1E+10	1	-1E+10	1	-1E+10	1	-1E+10	1	-1E+10	1	-1E+10	1
4902551	98	C	05/01/2023	18:08	-131.290	47.998	0	1655.30	0	2.2000	0	34.5330	0	27.590	0	1634.924	0	33.4	4	10.1	4	-1E+10	1	-1E+10	1	-1E+10	1	-1E+10	1	-1E+10	1	-1E+10	1
4902551	98	C	05/01/2023	18:08	-131.290	47.998	0	1665.30	0	2.1910	0	34.5350	0	27.593	0	1644.762	0	34.2	4	10.4	4	-1E+10	1	-1E+10	1	-1E+10	1	-1E+10	1	-1E+10	1	-1E+10	1
4902551	98	C	05/01/2023	18:08	-131.290	47.998	0	1675.40	0	2.1840	0	34.5370	0	27.595	0	1654.698	0	35.0	4	10.6	4	-1E+10	1	-1E+10	1	-1E+10	1	-1E+10	1	-1E+10	1	-1E+10	1
4902551	98	C	05/01/2023	18:08	-131.290	47.998	0	1685.60	0	2.1720	0	34.5390	0	27.598	0	1664.732	0	35.5	4	10.8	4	-1E+10	1	-1E+10	1	-1E+10	1	-1E+10	1	-1E+10	1	-1E+10	1
4902551	98	C	05/01/2023	18:08	-131.290	47.998	0	1695.10	0	2.1640	0	34.5400	0	27.599	0	1674.077	0	36.0	4	10.9	4	-1E+10	1	-1E+10	1	-1E+10	1	-1E+10	1	-1E+10	1	-1E+10	1
4902551	98	C	05/01/2023	18:08	-131.290	47.998	0	1705.60	0	2.1520	0	34.5430	0	27.603	0	1684.405	0	36.5	4	11.1	4	-1E+10	1	-1E+10	1	-1E+10	1	-1E+10	1	-1E+10	1	-1E+10	1
4902551	98	C	05/01/2023	18:08	-131.290	47.998	0	1715.60	0	2.1440	0	34.5440	0	27.604	0	1694.241	0	37.0	4	11.2	4	-1E+10	1	-1E+10	1	-1E+10	1	-1E+10	1	-1E+10	1	-1E+10	1
4902551	98	C	05/01/2023	18:08	-131.290	47.998	0	1725.30	0	2.1360	0	34.5450	0	27.606	0	1703.781	0	37.5	4	11.3	4	-1E+10	1	-1E+10	1	-1E+10	1	-1E+10	1	-1E+10	1	-1E+10	1
4902551	98	C	05/01/2023	18:08	-131.290	47.998	0	1735.20	0	2.1290	0	34.5470	0	27.608	0	1713.518	0	38.0	4	11.5	4	-1E+10	1	-1E+10	1	-1E+10	1	-1E+10	1	-1E+10	1	-1E+10	1
4902551	98	C	05/01/2023	18:08	-131.290	47.998	0	1745.10	0	2.1180	0	34.5490	0	27.610	0	1723.254	0	38.8	4	11.7	4	-1E+10	1	-1E+10	1	-1E+10	1	-1E+10	1	-1E+10	1	-1E+10	1
4902551	98	C	05/01/2023	18:08	-131.290	47.998	0	1755.10	0	2.1070	0	34.5510	0	27.613	0	1733.088	0	39.4	4	11.9	4	-1E+10	1	-1E+10	1	-1E+10	1	-1E+10	1	-1E+10	1	-1E+10	1
4902551	98	C	05/01/2023	18:08	-131.290	47.998	0	1765.00	0	2.0990	0	34.5520	0	27.614	0	1742.823	0	40.0	4	12.1	4	-1E+10	1	-1E+10	1	-1E+10	1	-1E+10	1	-1E+10	1	-1E+10	1
4902551	98	C	05/01/2023	18:08	-131.290	47.998	0	1775.00	0	2.0890	0	34.5540	0	27.617	0	1752.656	0	40.7	4	12.3	4	-1E+10	1	-1E+10	1	-1E+10	1	-1E+10	1	-1E+10	1	-1E+10	1
4902551	98	C	05/01/2023	18:08	-131.290	47.998	0	1785.20	0	2.0790	0	34.5560	0	27.619	0	1762.686	0	41.6	4	12.6	4	-1E+10	1	-1E+10	1	-1E+10	1	-1E+10	1	-1E+10	1	-1E+10	1
4902551	98	C	05/01/2023	18:08	-131.290	47.998	0	1795.20	0	2.0700	0	34.5580	0	27.622	0	1772.518	0	42.2	4	12.7	4	-1E+10	1	-1E+10	1	-1E+10	1	-1E+10	1	-1E+10	1	-1E+10	1
4902551	98	C	05/01/2023	18:08	-131.290	47.998	0	1805.20	0	2.0640	0	34.5590	0	27.623	0	1782.349	0	42.8	4	12.9	4	-1E+10	1	-1E+10	1	-1E+10	1	-1E+10	1	-1E+10	1	-1E+10	1
4902551	98	C	05/01/2023	18:08	-131.290	47.998	0	1815.30	0	2.0560	0	34.5600	0	27.624	0	1792.279	0	43.5	4	13.1	4	-1E+10	1	-1E+10	1	-1E+10	1	-1E+10	1	-1E+10	1	-1E+10	1
4902551	98	C	05/01/2023	18:08	-131.290	47.998	0	1825.20	0	2.0490	0	34.5620	0	27.627	0	1802.012	0	44.2	4	13.3	4	-1E+10	1	-1E+10	1	-1E+10	1	-1E+10	1	-1E+10	1	-1E+10	1
4902551	98	C	05/01/2023	18:08	-131.290	47.998	0	1835.20	0	2.0390	0	34.5630	0	27.628	0	1811.842	0	45.1	4	13.6	4	-1E+10	1	-1E+10	1	-1E+10	1	-1E+10	1	-1E+10	1	-1E+10	1
4902551	98	C	05/01/2023	18:08	-131.290	47.998	0	1845.10	0	2.0270	0	34.5660	0	27.632	0	1821.574	0	46.1	4	13.9	4	-1E+10	1	-1E+10	1	-1E+10	1	-1E+10	1	-1E+10	1	-1E+10	1
4902551	98	C	05/01/2023	18:08	-131.290	47.998	0	1855.30	0	2.0140	0	34.5680	0	27.634	0	1831.600	0	47.0	4	14.2	4	-1E+10	1	-1E+10	1	-1E+10	1	-1E+10	1	-1E+10	1	-1E+10	1
4902551	98	C	05/01/2023	18:08	-131.290	47.998	0	1865.70	0	2.0040	0	34.5700	0	27.637	0	1841.822	0	47.8	4	14.4	4	-1E+10	1	-1E+10	1	-1E+10	1	-1E+10	1	-1E+10	1	-1E+10	1
4902551	98	C	05/01/2023	18:08	-131.290	47.998	0	1875.70	0	1.9970	0	34.5720	0	27.639	0	1851.650	0	48.4	4	14.6	4	-1E+10	1	-1E+10	1	-1E+10	1	-1E+10	1	-1E+10	1	-1E+10	1
4902551	98	C	05/01/2023	18:08	-131.290	47.998	0	1885.90	0	1.9900	0	34.5730	0	27.640	0	1861.675	0	49.0	4	14.8	4	-1E+10	1	-1E+10	1	-1E+10	1	-1E+10	1	-1E+10	1	-1E+10	1
4902551	98	C	05/01/2023	18:08	-131.290	47.998	0	1895.40	0	1.9820	0	34.5750	0	27.643	0	1871.011	0	49.7	4	15.0	4	-1E+10	1	-1E+10	1	-1E+10	1	-1E+10	1	-1E+10	1	-1E+10	1
4902551	98	C	05/01/2023	18:08	-131.290	47.998	0	1905.40	0	1.9750	0	34.5760	0	27.644	0	1880.838	0	50.2	4	15.1	4	-1E+10	1	-1E+10	1	-1E+10	1	-1E+10	1	-1E+10	1	-1E+10	1
4902551	98	C	05/01/2023	18:08	-131.290	47.998	0	1915.60	0	1.9700	0	34.5770	0	27.645	0	1890.861	0	50.7	4	15.3	4	-1E+10	1	-1E+10	1	-1E+10	1	-1E+10	1	-1E+10	1	-1E+10	1
4902551	98	C	05/01/2023	18:08	-131.290	47.998	0	1925.70	0	1.9640	0	34.5780	0	27.647	0	1900.786	0	51.3	4	15.4	4	-1E+10	1	-1E+10	1	-1E+10	1	-1E+10	1	-1E+10	1	-1E+10	1
4902551	98	C	05/01/2023	18:08	-131.290	47.998	0	1935.60	0	1.9580	0	34.5800	0	27.649	0	1910.513	0	51.8	4	15.6	4	-1E+10	1	-1E+10	1	-1E+10	1	-1E+10	1	-1E+10	1	-1E+10	1
4902551	98	C	05/01/2023	18:08	-131.290	47.998	0	1945.30	0	1.9540	0	34.5810	0	27.650	0	1920.044	0	52.3	4	15.7	4	-1E+10	1	-1E+10	1	-1E+10	1	-1E+10	1	-1E+10	1	-1E+10	1
4902551	98	C	05/01/2023	18:08	-131.290	47.998	0	1955.10	0	1.9480	0	34.5810	0	27.650	0	1929.672	0	52.8	4	15.9	4	-1E+10	1	-1E+10	1	-1E+10	1	-1E+10	1	-1E+10	1	-1E+10	1
4902551	98	C	05/01/2023	18:08	-131.290	47.998	0	1965.50	0	1.9420	0	34.5830	0	27.652	0	1939.890	0	53.4	4	16.1	4	-1E+10	1	-1E+10	1	-1E+10	1	-1E+10	1	-1E+10	1	-1E+10	1
4902551	98	C	05/01/2023	18:08	-131.290	47.998	0	1975.80	0	1.9370	0	34.5840	0	27.654	0	1950.009	0	54.0	4	16.2	4	-1E+10	1	-1E+10	1	-1E+10	1	-1E+10	1	-1E+10	1	-1E+10	1
4902551	98	C	05/01/2023	18:08	-131.290	47.998	0	1985.80	0	1.9300	0	34.5850	0	27.655	0	1959.832	0	54.5	4	16.4	4	-1E+10	1	-1E+10	1	-1E+10	1	-1E+10	1	-1E+10	1	-1E+10	1
4902551	98	C	05/01/2023	18:08	-131.290	47.998	0	1995.40	0	1.9250	0	34.5860	0	27.656	0	1969.262	0	55.0	4	16.5	4	-1E+10	1	-1E+10	1	-1E+10	1	-1E+10	1	-1E+10	1	-1E+10	1
4902551	98	C	05/01/2023	18:08	-131.290	47.998	0	2005.10	0	1.9200	0	34.5870	0	27.658	0	1978.790	0	55.5	4	16.7	4	-1E+10	1	-1E+10	1	-1E+10	1	-1E+10	1	-1E+10	1	-1E+10	1
4902551	98	C	05/01/2023	18:08	-131.290	47.998	0	2015.40	0	1.9150	0	34.5880	0	27.659	0	1988.907	0	55.9	4	16.8	4	-1E+10	1	-1E+10	1	-1E+10	1	-1E+10	1	-1E+10	1	-1E+10	1
4902551	98	C	05/01/2023	18:08	-131.290	47.998	0	2026.00	0	1.9080	0	34.5900	0	27.661	0	1999.318	0	56.2	4	16.9	4	-1E+10	1	-1E+10	1	-1E+10	1	-1E+10	1	-1E+10	1	-1E+10	1
4902551	98	C	05/01/2023	18:08	-131.290	47.998	0	2031.90	0	1.9060	0	34.5900	0	27.661	0	2005.112	0	56.1	4	16.9	4	-1E+10	1	-1E+10	1	-1E+10	1	-1E+10	1	-1E+10	1	-1E+10	1
4902551	98	C	05/01/2023	18:08	-131.290	47.998	0																										
4902551	99	C	05/11/2023	22:53	-131.273	48.009	0	0.30	0	9.2790	0	32.3380	0	24.991	0	0.297	0	275.1	4	96.8	4	-1E+10	1	-1E+10	1	-1E+10	1	-1E+10	1	-1E+10	1	-1E+10	1
4902551	99	C	05/11/2023	22:53	-131.273	48.009	0	1.00	0	9.2850	0	32.3380	0	24.990	0	0.992	0	274.9	4	96.7	4	-1E+10	1	-1E+10	1	-1E+10	1	-1E+10	1	-1E+10	1	-1E+10	1
4902551	99	C	05/11/2023	22:53	-131.273	48.009	0	1.30	0	9.2842	0	32.3391	0	24.991	0	1.289	0	-1e10	1	-1e10	1	-1E+10	1	-1E+10	1	-1E+10	1	-1E+10	1	-1E+10	1	-1E+10	1
4902551	99	C	05/11/2023	22:53	-131.273	48.009	0	1.40	0	9.2839	0	32.3395	0	24.991	0	1.388	0	-1e10	1	-1e10	1	-1E+10	1	-1E+10	1	-1E+10	1	-1E+10	1	-1E+10	1	-1E+10	1
4902551	99	C	05/11/2023	22:53	-131.273	48.009	0	2.10	0	9.2820	0	32.3420	0	24.994	0	2.082	0	274.8	4	96.6	4	-1E+10	1	-1E+10	1	-1E+10	1	-1E+10	1	-1E+10	1	-1E+10	1
4902551	99	C	05/11/2023	22:53	-131.273	48.009	0	3.00	0	9.2810	0	32.3430	0	24.995	0	2.975	0	274.8	4	96.6	4	-1E+10	1	-1E+10	1	-1E+10	1	-1E+10	1	-1E+10	1	-1E+10	1
4902551	99	C	05/11/2023	22:53	-131.273	48.009	0	4.20	0	9.2830	0	32.3440	0	24.995	0	4.165	0	274.8	4	96.7	4	-1E+10	1	-1E+10	1	-1E+10	1	-1E+10	1	-1E+10	1	-1E+10	1
4902551	99	C	05/11/2023	22:53	-131.273	48.009	0	5.00	0	9.2810	0	32.3450	0	24.996	0	4.958	0	274.7	4	96.6	4	-1E+10	1	-1E+10	1	-1E+10	1	-1E+10	1	-1E+10	1	-1E+10	1
4902551	99	C	05/11/2023	22:53	-131.273	48.009	0	6.10	0	9.2820	0	32.3450	0	24.996	0	6.049	0	274.6	4	96.6	4	-1E+10	1	-1E+10	1	-1E+10	1	-1E+10	1	-1E+10	1	-1E+10	1
4902551	99	C	05/11/2023	22:53	-131.273	48.009	0	6.90	0	9.2830	0	32.3450	0	24.996	0	6.842	0	274.6	4	96.6	4	-1E+10	1	-1E+10	1	-1E+10	1	-1E+10	1	-1E+10	1	-1E+10	1
4902551	99	C	05/11/2023	22:53	-131.273	48.009	0	7.70	0	9.2830	0	32.3450	0	24.996	0	7.635	0	274.6	4	96.6	4	-1E+10	1	-1E+10	1	-1E+10	1	-1E+10	1	-1E+10	1	-1E+10	1
4902551	99	C	05/11/2023	22:53	-131.273	48.009	0	8.80	0	9.2830	0	32.3450	0	24.996	0	8.726	0	274.6	4	96.6	4	-1E+10	1	-1E+10	1	-1E+10	1	-1E+10	1	-1E+10	1	-1E+10	1
4902551	99	C	05/11/2023	22:53	-131.273	48.009	0	9.80	0	9.2830	0	32.3450	0	24.996	0	9.718	0	274.7	4	96.6	4	-1E+10	1	-1E+10	1	-1E+10	1	-1E+10	1	-1E+10	1	-1E+10	1
4902551	99	C	05/11/2023	22:53	-131.273	48.009	0	10.90	0	9.2850	0	32.3450	0	24.996	0	10.808	0	274.7	4	96.6	4	-1E+10	1	-1E+10	1	-1E+10	1	-1E+10	1	-1E+10	1	-1E+10	1
4902551	99	C	05/11/2023	22:53	-131.273	48.009	0	11.70	0	9.2840	0	32.3450	0	24.996	0	11.601	0	274.7	4	96.6	4	-1E+10	1	-1E+10	1	-1E+10	1	-1E+10	1	-1E+10	1	-1E+10	1
4902551	99	C	05/11/2023	22:53	-131.273	48.009	0	12.70	0	9.2760	0	32.3450	0	24.997	0	12.593	0	274.7	4	96.6	4	-1E+10	1	-1E+10	1	-1E+10	1	-1E+10	1	-1E+10	1	-1E+10	1
4902551	99	C	05/11/2023	22:53	-131.273	48.009	0	13.80	0	9.2720	0	32.3450	0	24.998	0	13.684	0	274.8	4	96.6	4	-1E+10	1	-1E+10	1	-1E+10	1	-1E+10	1	-1E+10	1	-1E+10	1
4902551	99	C	05/11/2023	22:53	-131.273	48.009	0	14.90	0	9.2550	0	32.3450	0	25.000	0	14.774	0	274.9	4	96.6	4	-1E+10	1	-1E+10	1	-1E+10	1	-1E+10	1	-1E+10	1	-1E+10	1
4902551	99	C	05/11/2023	22:53	-131.273	48.009	0	16.10	0	9.2530	0	32.3460	0	25.002	0	15.964	0	275.0	4	96.7	4	-1E+10	1	-1E+10	1	-1E+10	1	-1E+10	1	-1E+10	1	-1E+10	1
4902551	99	C	05/11/2023	22:53	-131.273	48.009	0	17.00	0	9.2540	0	32.3500	0	25.005	0	16.857	0	275.1	4	96.7	4	-1E+10	1	-1E+10	1	-1E+10	1	-1E+10	1	-1E+10	1	-1E+10	1
4902551	99	C	05/11/2023	22:53	-131.273	48.009	0	18.30	0	9.2520	0	32.3420	0	24.999	0	18.146	0	275.4	4	96.8	4	-1E+10	1	-1E+10	1	-1E+10	1	-1E+10	1	-1E+10	1	-1E+10	1
4902551	99	C	05/11/2023	22:53	-131.273	48.009	0	19.00	0	9.2330	0	32.3500	0	25.008	0	18.840	0	275.6	4	96.8	4	-1E+10	1	-1E+10	1	-1E+10	1	-1E+10	1	-1E+10	1	-1E+10	1
4902551	99	C	05/11/2023	22:53	-131.273	48.009	0	20.00	0	9.2220	0	32.3340	0	24.997	0	19.831	0	276.1	4	97.0	4	-1E+10	1	-1E+10	1	-1E+10	1	-1E+10	1	-1E+10	1	-1E+10	1
4902551	99	C	05/11/2023	22:53	-131.273	48.009	0	21.00	0	9.1950	0	32.3390	0	25.005	0	20.823	0	276.9	4	97.2	4	-1E+10	1	-1E+10	1	-1E+10	1	-1E+10	1	-1E+10	1	-1E+10	1
4902551	99	C	05/11/2023	22:53	-131.273	48.009	0	22.00	0	9.0430	0	32.3400	0	25.030	0	21.814	0	278.4	4	97.4	4	-1E+10	1	-1E+10	1	-1E+10	1	-1E+10	1	-1E+10	1	-1E+10	1
4902551	99	C	05/11/2023	22:53	-131.273	48.009	0	23.10	0	8.6390	0	32.3410	0	25.092	0	22.905	0	280.0	4	97.1	4	-1E+10	1	-1E+10	1	-1E+10	1	-1E+10	1	-1E+10	1	-1E+10	1
4902551	99	C	05/11/2023	22:53	-131.273	48.009	0	24.10	0	8.4160	0	32.3470	0	25.131	0	23.896	0	280.8	4	96.9	4	-1E+10	1	-1E+10	1	-1E+10	1	-1E+10	1	-1E+10	1	-1E+10	1
4902551	99	C	05/11/2023	22:53	-131.273	48.009	0	25.00	0	8.3470	0	32.3390	0	25.135	0	24.789	0	281.1	4	96.8	4	-1E+10	1	-1E+10	1	-1E+10	1	-1E+10	1	-1E+10	1	-1E+10	1
4902551	99	C	05/11/2023	22:53	-131.273	48.009	0	25.90	0	8.0790	0	32.3600	0	25.190	0	25.681	0	281.6	4	96.5	4	-1E+10	1	-1E+10	1	-1E+10	1	-1E+10	1	-1E+10	1	-1E+10	1
4902551	99	C	05/11/2023	22:53	-131.273	48.009	0	27.10	0	8.0190	0	32.3390	0	25.182	0	26.871	0	281.4	4	96.2	4	-1E+10	1	-1E+10	1	-1E+10	1	-1E+10	1	-1E+10	1	-1E+10	1
4902551	99	C	05/11/2023	22:53	-131.273	48.009	0	28.00	0	8.0290	0	32.3410	0	25.183	0	27.763	0	281.1	4	96.1	4	-1E+10	1	-1E+10	1	-1E+10	1	-1E+10	1	-1E+10	1	-1E+10	1
4902551	99	C	05/11/2023	22:53	-131.273	48.009	0	29.00	0	8.0440	0	32.3570	0	25.193	0	28.755	0	280.6	4	96.0	4	-1E+10	1	-1E+10	1	-1E+10	1	-1E+10	1	-1E+10	1	-1E+10	1
4902551	99	C	05/11/2023	22:53	-131.273	48.009	0	29.90	0	8.0200	0	32.3620	0	25.200	0	29.647	0	280.3	4	95.9	4	-1E+10	1	-1E+10	1	-1E+10	1	-1E+10	1	-1E+10	1	-1E+10	1
4902551	99	C	05/11/2023	22:53	-131.273	48.009	0	30.90	0	7.9890	0	32.3630	0	25.206	0	30.638	0	280.0	4	95.7	4	-1E+10	1	-1E+10	1	-1E+10	1	-1E+10	1	-1E+10	1	-1E+10	1
4902551	99	C	05/11/2023	22:53	-131.273	48.009	0	31.90	0	7.9810	0	32.3630	0	25.207	0	31.630	0	279.5	4	95.5	4	-1E+10	1	-1E+10	1	-1E+10	1	-1E+10	1	-1E+10	1	-1E+10	1
4902551	99	C	05/11/2023	22:53	-131.273	48.009	0	32.80	0	7.9600	0	32.3640	0	25.211	0	32.522	0	279.2	4	95.4	4	-1E+10	1	-1E+10	1	-1E+10	1	-1E+10	1	-1E+10	1	-1E+10	1
4902551	99	C	05/11/2023	22:53	-131.273	48.009	0	33.90	0	7.9460	0	32.3660	0	25.214	0	33.613	0	278.8	4	95.2	4	-1E+10	1	-1E+10	1	-1E+10	1	-1E+10	1	-1E+10	1	-1E+10	1
4902551	99	C	05/11/2023	22:53	-131.273	48.009	0	34.90	0	7.9140	0	32.3660	0	25.219	0	34.604	0	278.6	4	95.1	4	-1E+10	1	-1E+10	1	-1E+10	1	-1E+10	1	-1E+10	1	-1E+10	1
4902551	99	C	05/11/2023	22:53	-131.273	48.009	0	35.80	0	7.8830	0	32.3640	0	25.222	0	35.496	0	278.4	4	94.9	4	-1E+10	1	-1E+10	1	-1E+10	1	-1E+10	1	-1E+10	1	-1E+10	1
4902551	99	C	05/11/2023	22:53	-131.273	48.009	0	36.80	0	7.8570	0	32.3630	0	25.225	0	36.488	0	278.1	4	94.8	4	-1E+10	1	-1E+10	1	-1E+10	1	-1E+10	1	-1E+10	1	-1E+10	1
4902551	99	C	05/11/2023	22:53	-131.273	48.009	0	37.80	0	7.8550	0	32.3630	0	25.225	0	37.479	0	277.9	4	94.7	4	-1E+10	1	-1E+10	1	-1E+10	1	-1E+10	1	-1E+10	1	-1E+10	1
4902551	99	C	05/11/2023	22:53	-131.273	48.009	0	38.80	0	7.8330	0	32.3630	0	25.228	0	38.471	0	277.8	4	94.6	4	-1E+10	1	-1E+10	1	-1E+10	1	-1E+10	1	-1E+10	1	-1E+10	1
4902551	99	C	05/11/2023	22:53	-131.273	48.009	0	40.10	0	7.8190	0	32.3630	0	25.230	0	39.760	0	277.6	4	94.5	4	-1E+10	1	-1E+10	1	-1E+10	1	-1E+10	1	-1E+10	1	-1E+10	1
4902551	99	C	05/11/2023	22:53	-131.273	48.009	0	41.00	0	7.8250	0	32.3650	0	25.231	0	40.652	0	277.4	4	94.5	4	-1E+10	1	-1E+10	1	-1E+10	1	-1E+10	1	-1E+10	1	-1E+10	1
4902551	99	C	05/11/2023	22:53	-131.273	48.009	0	42.00	0	7.8240	0	32.3670	0	25.233	0	41.643	0	277.4	4	94.5	4	-1E+10	1	-1E+10	1	-1E+10	1	-1E+10	1	-1E+10	1	-1E+10	1
4902551	99	C	05/11/2023	22:53	-131.273	48.009	0	42.90	0	7.8170	0	32.3610	0	25.229	0	42.536	0	277.5	4	94.5	4	-1E+10	1	-1E+10	1	-1E+10	1	-1E+10	1	-1E+10	1	-1E+10	1
4902551	99	C	05/11/2023	22:53	-131.273	48.009	0	43.80	0	7.7900	0	32.3630	0	25.234	0	43.428	0	277.5	4	94.4	4	-1E+10	1	-1E+10	1	-1E+10	1	-1E+10	1	-1E+10	1	-1E+10	1
4902551	99	C	05/11/2023	22:53	-131.273	48.009	0	45.00	0	7.7860	0	32.3600	0	25.233	0	44.617	0	277.3	4	94.4	4	-1E+10	1	-1E+10	1	-1E+10	1	-1E+10	1	-1E+10	1	-1E+10	1
4902551	99	C	05/11/2023	22:53	-131.273	48.009	0	46.00	0	7.8090	0	32.3680	0	25.236	0	45.609	0	277.3	4	94.4	4	-1E+10	1	-1E+10	1	-1E+10	1	-1E+10	1	-1E+10	1	-1E+10	1
4902551	99	C	05/11/2023	22:53	-131.273	48.009	0	46.90	0	7.7960	0	32.3680	0	25.237	0	46.501	0	277.4	4	94.4	4	-1E+10	1	-1E+10	1	-1E+10	1	-1E+10	1	-1E+10	1	-1E+10	1
4902551	99	C	05/11/2023	22:53	-131.273	48.009	0	48.10	0	7.7590	0	32.3650	0	25.240	0	47.691	0	277.7	4	94.4	4	-1E+10	1	-1E+10	1	-1E+10	1	-1E+10	1	-1E+10	1	-1E+10	1
4902551	99	C	05/11/2023	22:53	-131.273	48.009	0	49.00	0	7.7120	0	32.3650	0	25.247	0	48.583	0	277.8	4	94.4	4	-1E+10	1	-1E+10	1	-1E+10	1	-1E+10	1	-1E+10	1	-1E+10	1
4902551	99	C	05/11/2023	22:53	-131.273	48.009	0	49.90	0	7.6430	0	32.3470	0	25.242	0	49.475	0	277.9	4	94.3	4	-1E+10	1	-1E+10	1	-1E+10	1	-1E+10	1	-1E+10	1	-1E+10	1
4902551	99	C	05/11/2023	22:53	-131.273	48.009	0	50.90	0	7.6110	0	32.3450	0	25.245	0	50.467	0	277.9	4	94.2	4	-1E+10	1	-1E+10	1	-1E+10	1	-1E+10	1	-1E+10	1	-1E+10	1
4902551	99	C	05/11/2023	22:53	-131.273	48.009	0	51.80	0	7.5880	0	32.3410	0	25.245	0	51.359	0	277.8	4	94.1	4	-1E+10	1	-1E+10	1	-1E+10	1	-1E+10	1	-1E+10	1	-1E+10	1
4902551	99	C	05/11/2023	22:53	-131.273	48.009	0	52.80	0	7.5870	0	32.3410	0	25.246	0	52.350	0	277.6	4	94.0	4	-1E+10	1	-1E+10	1	-1E+10	1	-1E+10	1	-1E+10	1	-1E+10	1
4902551	99	C	05/11/2023	22:53	-131.273	48.009	0	53.80	0	7.5830	0	32.3400	0	25.245	0	53.342	0	277.3	4	93.9	4	-1E+10	1	-1E+10	1	-1E+10	1	-1E+10	1	-1E+10	1	-1E+10	1
4902551	99	C	05/11/2023	22:53	-131.273	48.009	0	55.10	0	7.5720	0	32.3390	0	25.246	0	54.630	0	277.1	4	93.8	4	-1E+10	1	-1E+10	1	-1E+10	1	-1E+10	1	-1E+10	1	-1E+10	1
4902551	99	C	05/11/2023	22:53	-131.273	48.009	0	56.10	0	7.5660	0	32.3390	0	25.247	0	55.622	0	276.9	4	93.8	4	-1E+10	1	-1E+10	1	-1E+10	1	-1E+10	1	-1E+10	1	-1E+10	1
4902551	99	C	05/11/2023	22:53	-131.273	48.009	0	56.80	0	7.5910	0	32.3370	0	25.242	0	56.316	0	276.8	4	93.7	4	-1E+10	1	-1E+10	1	-1E+10	1	-1E+10	1	-1E+10	1	-1E+10	1
4902551	99	C	05/11/2023	22:53	-131.273	48.009	0	57.80	0	7.5910	0	32.3450	0	25.248	0	57.307	0	276.5	4	93.6	4	-1E+10	1	-1E+10	1	-1E+10	1	-1E+10	1	-1E+10	1	-1E+10	1
4902551	99	C	05/11/2023	22:53	-131.273	48.009	0	58.80	0	7.5830	0	32.3430	0	25.248	0	58.298	0	276.3	4	93.6	4	-1E+10	1	-1E+10	1	-1E+10	1	-1E+10	1	-1E+10	1	-1E+10	1
4902551	99	C	05/11/2023	22:53	-131.273	48.009	0	59.80	0	7.5690	0	32.3400	0	25.247	0	59.290	0	276.0	4	93.5	4	-1E+10	1	-1E+10	1	-1E+10	1	-1E+10	1	-1E+10	1	-1E+10	1
4902551	99	C	05/11/2023	22:53	-131.273	48.009	0	60.90	0	7.5720	0	32.3400	0	25.247	0	60.380	0	275.9	4	93.4	4	-1E+10	1	-1E+10	1	-1E+10	1	-1E+10	1	-1E+10	1	-1E+10	1
4902551	99	C	05/11/2023	22:53	-131.273	48.009	0	61.80	0	7.5970	0	32.3470	0	25.249	0	61.272	0	275.5	4	93.3	4	-1E+10	1	-1E+10	1	-1E+10	1	-1E+10	1	-1E+10	1	-1E+10	1
4902551	99	C	05/11/2023	22:53	-131.273	48.009	0	62.90	0	7.5890	0	32.3460	0	25.249	0	62.363	0	275.2	4	93.2	4	-1E+10	1	-1E+10	1	-1E+10	1	-1E+10	1	-1E+10	1	-1E+10	1
4902551	99	C	05/11/2023	22:53	-131.273	48.009	0	64.00	0	7.5860	0	32.3460	0	25.250	0	63.453	0	275.1	4	93.2	4	-1E+10	1	-1E+10	1	-1E+10	1	-1E+10	1	-1E+10	1	-1E+10	1
4902551	99	C	05/11/2023	22:53	-131.273	48.009	0	65.10	0	7.5870	0	32.3460	0	25.250	0	64.543	0	274.9	4	93.1	4	-1E+10	1	-1E+10	1	-1E+10	1	-1E+10	1	-1E+10	1	-1E+10	1
4902551	99	C	05/11/2023	22:53	-131.273	48.009	0	65.80	0	7.5930	0	32.3470	0	25.250	0	65.237	0	274.7	4	93.1	4	-1E+10	1	-1E+10	1	-1E+10	1	-1E+10	1	-1E+10	1	-1E+10	1
4902551	99	C	05/11/2023	22:53	-131.273	48.009	0	66.80	0	7.5920	0	32.3480	0	25.251	0	66.229	0	274.5	4	93.0	4	-1E+10	1	-1E+10	1	-1E+10	1	-1E+10	1	-1E+10	1	-1E+10	1
4902551	99	C	05/11/2023	22:53	-131.273	48.009	0	68.00	0	7.5890	0	32.3480	0	25.251	0	67.418	0	274.3	4	92.9	4	-1E+10	1	-1E+10	1	-1E+10	1	-1E+10	1	-1E+10	1	-1E+10	1
4902551	99	C	05/11/2023	22:53	-131.273	48.009	0	69.00	0	7.5830	0	32.3460	0	25.250	0	68.409	0	274.2	4	92.9	4	-1E+10	1	-1E+10	1	-1E+10	1	-1E+10	1	-1E+10	1	-1E+10	1
4902551	99	C	05/11/2023	22:53	-131.273	48.009	0	70.10	0	7.5810	0	32.3460	0	25.251	0	69.500	0	273.9	4	92.8	4	-1E+10	1	-1E+10	1	-1E+10	1	-1E+10	1	-1E+10	1	-1E+10	1
4902551	99	C	05/11/2023	22:53	-131.273	48.009	0	70.80	0	7.5800	0	32.3460	0	25.251	0	70.194	0	273.8	4	92.7	4	-1E+10	1	-1E+10	1	-1E+10	1	-1E+10	1	-1E+10	1	-1E+10	1
4902551	99	C	05/11/2023	22:53	-131.273	48.009	0	71.80	0	7.5730	0	32.3450	0	25.251	0	71.185	0	273.6	4	92.6	4	-1E+10	1	-1E+10	1	-1E+10	1	-1E+10	1	-1E+10	1	-1E+10	1
4902551	99	C	05/11/2023	22:53	-131.273	48.009	0	72.90	0	7.5740	0	32.3450	0	25.251	0	72.275	0	273.3	4	92.5	4	-1E+10	1	-1E+10	1	-1E+10	1	-1E+10	1	-1E+10	1	-1E+10	1
4902551	99	C	05/11/2023	22:53	-131.273	48.009	0	73.80	0	7.5710	0	32.3440	0	25.251	0	73.168	0	273.1	4	92.5	4	-1E+10	1	-1E+10	1	-1E+10	1	-1E+10	1	-1E+10	1	-1E+10	1
4902551	99	C	05/11/2023	22:53	-131.273	48.009	0	74.90	0	7.5700	0	32.3440	0	25.251	0	74.258	0	272.8	4	92.4	4	-1E+10	1	-1E+10	1	-1E+10	1	-1E+10	1	-1E+10	1	-1E+10	1
4902551	99	C	05/11/2023	22:53	-131.273	48.009	0	75.90	0	7.5710	0	32.3440	0	25.251	0	75.249	0	272.4	4	92.2	4	-1E+10	1	-1E+10	1	-1E+10	1	-1E+10	1	-1E+10	1	-1E+10	1
4902551	99	C	05/11/2023	22:53	-131.273	48.009	0	76.90	0	7.5730	0	32.3450	0	25.251	0	76.240	0	272.1	4	92.1	4	-1E+10	1	-1E+10	1	-1E+10	1	-1E+10	1	-1E+10	1	-1E+10	1
4902551	99	C	05/11/2023	22:53	-131.273	48.009	0	77.80	0	7.5730	0	32.3450	0	25.251	0	77.133	0	271.7	4	92.0	4	-1E+10	1	-1E+10	1	-1E+10	1	-1E+10	1	-1E+10	1	-1E+10	1
4902551	99	C	05/11/2023	22:53	-131.273	48.009	0	79.10	0	7.5640	0	32.3440	0	25.252	0	78.421	0	271.2	4	91.8	4	-1E+10	1	-1E+10	1	-1E+10	1	-1E+10	1	-1E+10	1	-1E+10	1
4902551	99	C	05/11/2023	22:53	-131.273	48.009	0	80.00	0	7.5540	0	32.3420	0	25.251	0	79.313	0	270.7	4	91.6	4	-1E+10	1	-1E+10	1	-1E+10	1	-1E+10	1	-1E+10	1	-1E+10	1
4902551	99	C	05/11/2023	22:53	-131.273	48.009	0	80.90	0	7.5440	0	32.3430	0	25.254	0	80.205	0	270.2	4	91.4	4	-1E+10	1	-1E+10	1	-1E+10	1	-1E+10	1	-1E+10	1	-1E+10	1
4902551	99	C	05/11/2023	22:53	-131.273	48.009	0	81.90	0	7.5450	0	32.3420	0	25.253	0	81.197	0	269.4	4	91.2	4	-1E+10	1	-1E+10	1	-1E+10	1	-1E+10	1	-1E+10	1	-1E+10	1
4902551	99	C	05/11/2023	22:53	-131.273	48.009	0	83.10	0	7.5250	0	32.3400	0	25.254	0	82.386	0	275.2	4	93.1	4	-1E+10	1	-1E+10	1	-1E+10	1	-1E+10	1	-1E+10	1	-1E+10	1
4902551	99	C	05/11/2023	22:53	-131.273	48.009	0	84.10	0	7.5360	0	32.3420	0	25.254	0	83.377	0	273.9	4	92.6	4	-1E+10	1	-1E+10	1	-1E+10	1	-1E+10	1	-1E+10	1	-1E+10	1
4902551	99	C	05/11/2023	22:53	-131.273	48.009	0	85.10	0	7.5520	0	32.3480	0	25.256	0	84.368	0	272.4	4	92.2	4	-1E+10	1	-1E+10	1	-1E+10	1	-1E+10	1	-1E+10	1	-1E+10	1
4902551	99	C	05/11/2023	22:53	-131.273	48.009	0	86.10	0	7.5580	0	32.3540	0	25.260	0	85.360	0	270.4	4	91.5	4	-1E+10	1	-1E+10	1	-1E+10	1	-1E+10	1	-1E+10	1	-1E+10	1
4902551	99	C	05/11/2023	22:53	-131.273	48.009	0	86.90	0	7.4800	0	32.3700	0	25.284	0	86.153	0	268.6	4	90.8	4	-1E+10	1	-1E+10	1	-1E+10	1	-1E+10	1	-1E+10	1	-1E+10	1
4902551	99	C	05/11/2023	22:53	-131.273	48.009	0	87.90	0	7.4670	0	32.3690	0	25.285	0	87.144	0	266.6	4	90.1	4	-1E+10	1	-1E+10	1	-1E+10	1	-1E+10	1	-1E+10	1	-1E+10	1
4902551	99	C	05/11/2023	22:53	-131.273	48.009	0	89.30	0	7.4220	0	32.3890	0	25.307	0	88.531	0	263.7	4	89.0	4	-1E+10	1	-1E+10	1	-1E+10	1	-1E+10	1	-1E+10	1	-1E+10	1
4902551	99	C	05/11/2023	22:53	-131.273	48.009	0	89.90	0	7.3570	0	32.4140	0	25.335	0	89.126	0	261.9	4	88.3	4	-1E+10	1	-1E+10	1	-1E+10	1	-1E+10	1	-1E+10	1	-1E+10	1
4902551	99	C	05/11/2023	22:53	-131.273	48.009	0	91.00	0	7.3070	0	32.4360	0	25.359	0	90.216	0	259.1	4	87.3	4	-1E+10	1	-1E+10	1	-1E+10	1	-1E+10	1	-1E+10	1	-1E+10	1
4902551	99	C	05/11/2023	22:53	-131.273	48.009	0	92.20	0	7.2230	0	32.4940	0	25.416	0	91.406	0	256.9	4	86.4	4	-1E+10	1	-1E+10	1	-1E+10	1	-1E+10	1	-1E+10	1	-1E+10	1
4902551	99	C	05/11/2023	22:53	-131.273	48.009	0	93.10	0	7.2100	0	32.5030	0	25.425	0	92.298	0	254.3	4	85.5	4	-1E+10	1	-1E+10	1	-1E+10	1	-1E+10	1	-1E+10	1	-1E+10	1
4902551	99	C	05/11/2023	22:53	-131.273	48.009	0	94.10	0	7.1970	0	32.5120	0	25.434	0	93.289	0	249.7	4	83.9	4	-1E+10	1	-1E+10	1	-1E+10	1	-1E+10	1	-1E+10	1	-1E+10	1
4902551	99	C	05/11/2023	22:53	-131.273	48.009	0	94.90	0	7.1730	0	32.5280	0	25.450	0	94.082	0	247.0	4	83.0	4	-1E+10	1	-1E+10	1	-1E+10	1	-1E+10	1	-1E+10	1	-1E+10	1
4902551	99	C	05/11/2023	22:53	-131.273	48.009	0	95.90	0	7.1110	0	32.5820	0	25.501	0	95.073	0	244.8	4	82.2	4	-1E+10	1	-1E+10	1	-1E+10	1	-1E+10	1	-1E+10	1	-1E+10	1
4902551	99	C	05/11/2023	22:53	-131.273	48.009	0	97.20	0	6.9650	0	32.7010	0	25.614	0	96.362	0	243.2	4	81.4	4	-1E+10	1	-1E+10	1	-1E+10	1	-1E+10	1	-1E+10	1	-1E+10	1
4902551	99	C	05/11/2023	22:53	-131.273	48.009	0	97.90	0	6.9230	0	32.7480	0	25.657	0	97.055	0	242.5	4	81.1	4	-1E+10	1	-1E+10	1	-1E+10	1	-1E+10	1	-1E+10	1	-1E+10	1
4902551	99	C	05/11/2023	22:53	-131.273	48.009	0	98.90	0	6.9160	0	32.7560	0	25.664	0	98.047	0	241.2	4	80.7	4	-1E+10	1	-1E+10	1	-1E+10	1	-1E+10	1	-1E+10	1	-1E+10	1
4902551	99	C	05/11/2023	22:53	-131.273	48.009	0	99.80	0	6.9160	0	32.7570	0	25.665	0	98.939	0	239.8	4	80.2	4	-1E+10	1	-1E+10	1	-1E+10	1	-1E+10	1	-1E+10	1	-1E+10	1
4902551	99	C	05/11/2023	22:53	-131.273	48.009	0	100.80	0	6.9160	0	32.7590	0	25.666	0	99.930	0	237.7	4	79.5	4	-1E+10	1	-1E+10	1	-1E+10	1	-1E+10	1	-1E+10	1	-1E+10	1
4902551	99	C	05/11/2023	22:53	-131.273	48.009	0	102.00	0	6.9110	0	32.7910	0	25.692	0	101.119	0	234.3	4	78.4	4	-1E+10	1	-1E+10	1	-1E+10	1	-1E+10	1	-1E+10	1	-1E+10	1
4902551	99	C	05/11/2023	22:53	-131.273	48.009	0	103.00	0	6.8810	0	32.8220	0	25.721	0	102.110	0	232.5	4	77.7	4	-1E+10	1	-1E+10	1	-1E+10	1	-1E+10	1	-1E+10	1	-1E+10	1
4902551	99	C	05/11/2023	22:53	-131.273	48.009	0	103.90	0	6.7750	0	32.9120	0	25.806	0	103.002	0	231.6	4	77.3	4	-1E+10	1	-1E+10	1	-1E+10	1	-1E+10	1	-1E+10	1	-1E+10	1
4902551	99	C	05/11/2023	22:53	-131.273	48.009	0	105.00	0	6.7290	0	32.9470	0	25.839	0	104.092	0	230.6	4	76.9	4	-1E+10	1	-1E+10	1	-1E+10	1	-1E+10	1	-1E+10	1	-1E+10	1
4902551	99	C	05/11/2023	22:53	-131.273	48.009	0	105.80	0	6.6770	0	33.0120	0	25.897	0	104.885	0	230.1	4	76.7	4	-1E+10	1	-1E+10	1	-1E+10	1	-1E+10	1	-1E+10	1	-1E+10	1
4902551	99	C	05/11/2023	22:53	-131.273	48.009	0	106.80	0	6.6650	0	33.0190	0	25.904	0	105.876	0	229.5	4	76.5	4	-1E+10	1	-1E+10	1	-1E+10	1	-1E+10	1	-1E+10	1	-1E+10	1
4902551	99	C	05/11/2023	22:53	-131.273	48.009	0	107.90	0	6.6650	0	33.0200	0	25.905	0	106.967	0	228.7	4	76.2	4	-1E+10	1	-1E+10	1	-1E+10	1	-1E+10	1	-1E+10	1	-1E+10	1
4902551	99	C	05/11/2023	22:53	-131.273	48.009	0	109.00	0	6.6650	0	33.0220	0	25.907	0	108.057	0	228.0	4	76.0	4	-1E+10	1	-1E+10	1	-1E+10	1	-1E+10	1	-1E+10	1	-1E+10	1
4902551	99	C	05/11/2023	22:53	-131.273	48.009	0	110.00	0	6.6630	0	33.0250	0	25.909	0	109.048	0	227.2	4	75.7	4	-1E+10	1	-1E+10	1	-1E+10	1	-1E+10	1	-1E+10	1	-1E+10	1
4902551	99	C	05/11/2023	22:53	-131.273	48.009	0	111.00	0	6.6610	0	33.0290	0	25.913	0	110.039	0	226.0	4	75.3	4	-1E+10	1	-1E+10	1	-1E+10	1	-1E+10	1	-1E+10	1	-1E+10	1
4902551	99	C	05/11/2023	22:53	-131.273	48.009	0	112.10	0	6.6630	0	33.0330	0	25.916	0	111.129	0	224.8	4	74.9	4	-1E+10	1	-1E+10	1	-1E+10	1	-1E+10	1	-1E+10	1	-1E+10	1
4902551	99	C	05/11/2023	22:53	-131.273	48.009	0	112.80	0	6.6560	0	33.0440	0	25.925	0	111.823	0	223.9	4	74.6	4	-1E+10	1	-1E+10	1	-1E+10	1	-1E+10	1	-1E+10	1	-1E+10	1
4902551	99	C	05/11/2023	22:53	-131.273	48.009	0	113.80	0	6.6030	0	33.0780	0	25.959	0	112.814	0	223.0	4	74.2	4	-1E+10	1	-1E+10	1	-1E+10	1	-1E+10	1	-1E+10	1	-1E+10	1
4902551	99	C	05/11/2023	22:53	-131.273	48.009	0	115.00	0	6.5470	0	33.1230	0	26.002	0	114.003	0	222.3	4	73.9	4	-1E+10	1	-1E+10	1	-1E+10	1	-1E+10	1	-1E+10	1	-1E+10	1
4902551	99	C	05/11/2023	22:53	-131.273	48.009	0	115.70	0	6.5400	0	33.1340	0	26.011	0	114.697	0	221.7	4	73.8	4	-1E+10	1	-1E+10	1	-1E+10	1	-1E+10	1	-1E+10	1	-1E+10	1
4902551	99	C	05/11/2023	22:53	-131.273	48.009	0	116.90	0	6.5240	0	33.1550	0	26.030	0	115.886	0	220.8	4	73.4	4	-1E+10	1	-1E+10	1	-1E+10	1	-1E+10	1	-1E+10	1	-1E+10	1
4902551	99	C	05/11/2023	22:53	-131.273	48.009	0	118.10	0	6.5050	0	33.1800	0	26.052	0	117.075	0	219.9	4	73.1	4	-1E+10	1	-1E+10	1	-1E+10	1	-1E+10	1	-1E+10	1	-1E+10	1
4902551	99	C	05/11/2023	22:53	-131.273	48.009	0	118.90	0	6.4980	0	33.1880	0	26.059	0	117.868	0	219.1	4	72.8	4	-1E+10	1	-1E+10	1	-1E+10	1	-1E+10	1	-1E+10	1	-1E+10	1
4902551	99	C	05/11/2023	22:53	-131.273	48.009	0	119.70	0	6.4850	0	33.1990	0	26.070	0	118.661	0	218.4	4	72.6	4	-1E+10	1	-1E+10	1	-1E+10	1	-1E+10	1	-1E+10	1	-1E+10	1
4902551	99	C	05/11/2023	22:53	-131.273	48.009	0	121.00	0	6.4720	0	33.2110	0	26.081	0	119.949	0	217.2	4	72.2	4	-1E+10	1	-1E+10	1	-1E+10	1	-1E+10	1	-1E+10	1	-1E+10	1
4902551	99	C	05/11/2023	22:53	-131.273	48.009	0	122.20	0	6.4650	0	33.2170	0	26.087	0	121.139	0	216.0	4	71.8	4	-1E+10	1	-1E+10	1	-1E+10	1	-1E+10	1	-1E+10	1	-1E+10	1
4902551	99	C	05/11/2023	22:53	-131.273	48.009	0	123.00	0	6.4630	0	33.2180	0	26.088	0	121.931	0	215.0	4	71.4	4	-1E+10	1	-1E+10	1	-1E+10	1	-1E+10	1	-1E+10	1	-1E+10	1
4902551	99	C	05/11/2023	22:53	-131.273	48.009	0	123.80	0	6.4590	0	33.2210	0	26.091	0	122.724	0	214.0	4	71.1	4	-1E+10	1	-1E+10	1	-1E+10	1	-1E+10	1	-1E+10	1	-1E+10	1
4902551	99	C	05/11/2023	22:53	-131.273	48.009	0	124.60	0	6.4470	0	33.2330	0	26.102	0	123.517	0	213.0	4	70.7	4	-1E+10	1	-1E+10	1	-1E+10	1	-1E+10	1	-1E+10	1	-1E+10	1
4902551	99	C	05/11/2023	22:53	-131.273	48.009	0	125.90	0	6.4280	0	33.2550	0	26.121	0	124.805	0	211.5	4	70.2	4	-1E+10	1	-1E+10	1	-1E+10	1	-1E+10	1	-1E+10	1	-1E+10	1
4902551	99	C	05/11/2023	22:53	-131.273	48.009	0	127.10	0	6.4150	0	33.2720	0	26.136	0	125.995	0	210.1	4	69.8	4	-1E+10	1	-1E+10	1	-1E+10	1	-1E+10	1	-1E+10	1	-1E+10	1
4902551	99	C	05/11/2023	22:53	-131.273	48.009	0	128.00	0	6.4100	0	33.2780	0	26.142	0	126.886	0	209.0	4	69.4	4	-1E+10	1	-1E+10	1	-1E+10	1	-1E+10	1	-1E+10	1	-1E+10	1
4902551	99	C	05/11/2023	22:53	-131.273	48.009	0	128.80	0	6.3970	0	33.2910	0	26.154	0	127.679	0	208.0	4	69.0	4	-1E+10	1	-1E+10	1	-1E+10	1	-1E+10	1	-1E+10	1	-1E+10	1
4902551	99	C	05/11/2023	22:53	-131.273	48.009	0	129.70	0	6.3570	0	33.3400	0	26.198	0	128.571	0	207.3	4	68.8	4	-1E+10	1	-1E+10	1	-1E+10	1	-1E+10	1	-1E+10	1	-1E+10	1
4902551	99	C	05/11/2023	22:53	-131.273	48.009	0	131.00	0	6.3490	0	33.3530	0	26.209	0	129.859	0	206.0	4	68.3	4	-1E+10	1	-1E+10	1	-1E+10	1	-1E+10	1	-1E+10	1	-1E+10	1
4902551	99	C	05/11/2023	22:53	-131.273	48.009	0	132.20	0	6.3420	0	33.3660	0	26.220	0	131.049	0	204.8	4	67.9	4	-1E+10	1	-1E+10	1	-1E+10	1	-1E+10	1	-1E+10	1	-1E+10	1
4902551	99	C	05/11/2023	22:53	-131.273	48.009	0	133.10	0	6.3380	0	33.3740	0	26.227	0	131.940	0	204.0	4	67.6	4	-1E+10	1	-1E+10	1	-1E+10	1	-1E+10	1	-1E+10	1	-1E+10	1
4902551	99	C	05/11/2023	22:53	-131.273	48.009	0	133.90	0	6.3300	0	33.3830	0	26.235	0	132.733	0	203.1	4	67.3	4	-1E+10	1	-1E+10	1	-1E+10	1	-1E+10	1	-1E+10	1	-1E+10	1
4902551	99	C	05/11/2023	22:53	-131.273	48.009	0	134.70	0	6.3200	0	33.3930	0	26.244	0	133.526	0	202.3	4	67.1	4	-1E+10	1	-1E+10	1	-1E+10	1	-1E+10	1	-1E+10	1	-1E+10	1
4902551	99	C	05/11/2023	22:53	-131.273	48.009	0	136.00	0	6.3080	0	33.4040	0	26.254	0	134.814	0	201.1	4	66.7	4	-1E+10	1	-1E+10	1	-1E+10	1	-1E+10	1	-1E+10	1	-1E+10	1
4902551	99	C	05/11/2023	22:53	-131.273	48.009	0	137.20	0	6.3020	0	33.4090	0	26.259	0	136.003	0	199.8	4	66.2	4	-1E+10	1	-1E+10	1	-1E+10	1	-1E+10	1	-1E+10	1	-1E+10	1
4902551	99	C	05/11/2023	22:53	-131.273	48.009	0	138.00	0	6.2930	0	33.4200	0	26.269	0	136.796	0	198.9	4	65.9	4	-1E+10	1	-1E+10	1	-1E+10	1	-1E+10	1	-1E+10	1	-1E+10	1
4902551	99	C	05/11/2023	22:53	-131.273	48.009	0	138.90	0	6.2860	0	33.4260	0	26.275	0	137.688	0	198.0	4	65.6	4	-1E+10	1	-1E+10	1	-1E+10	1	-1E+10	1	-1E+10	1	-1E+10	1
4902551	99	C	05/11/2023	22:53	-131.273	48.009	0	139.70	0	6.2730	0	33.4420	0	26.289	0	138.481	0	197.1	4	65.3	4	-1E+10	1	-1E+10	1	-1E+10	1	-1E+10	1	-1E+10	1	-1E+10	1
4902551	99	C	05/11/2023	22:53	-131.273	48.009	0	140.60	0	6.2620	0	33.4630	0	26.307	0	139.373	0	196.2	4	65.0	4	-1E+10	1	-1E+10	1	-1E+10	1	-1E+10	1	-1E+10	1	-1E+10	1
4902551	99	C	05/11/2023	22:53	-131.273	48.009	0	141.90	0	6.2570	0	33.4700	0	26.313	0	140.661	0	195.0	4	64.6	4	-1E+10	1	-1E+10	1	-1E+10	1	-1E+10	1	-1E+10	1	-1E+10	1
4902551	99	C	05/11/2023	22:53	-131.273	48.009	0	143.40	0	6.2490	0	33.4800	0	26.322	0	142.147	0	193.7	4	64.1	4	-1E+10	1	-1E+10	1	-1E+10	1	-1E+10	1	-1E+10	1	-1E+10	1
4902551	99	C	05/11/2023	22:53	-131.273	48.009	0	144.30	0	6.2240	0	33.5090	0	26.348	0	143.039	0	192.8	4	63.9	4	-1E+10	1	-1E+10	1	-1E+10	1	-1E+10	1	-1E+10	1	-1E+10	1
4902551	99	C	05/11/2023	22:53	-131.273	48.009	0	145.20	0	6.2120	0	33.5170	0	26.356	0	143.931	0	192.1	4	63.6	4	-1E+10	1	-1E+10	1	-1E+10	1	-1E+10	1	-1E+10	1	-1E+10	1
4902551	99	C	05/11/2023	22:53	-131.273	48.009	0	146.00	0	6.2080	0	33.5210	0	26.360	0	144.724	0	191.5	4	63.4	4	-1E+10	1	-1E+10	1	-1E+10	1	-1E+10	1	-1E+10	1	-1E+10	1
4902551	99	C	05/11/2023	22:53	-131.273	48.009	0	146.90	0	6.2030	0	33.5280	0	26.366	0	145.615	0	190.7	4	63.1	4	-1E+10	1	-1E+10	1	-1E+10	1	-1E+10	1	-1E+10	1	-1E+10	1
4902551	99	C	05/11/2023	22:53	-131.273	48.009	0	147.80	0	6.2010	0	33.5320	0	26.369	0	146.507	0	190.0	4	62.9	4	-1E+10	1	-1E+10	1	-1E+10	1	-1E+10	1	-1E+10	1	-1E+10	1
4902551	99	C	05/11/2023	22:53	-131.273	48.009	0	148.70	0	6.1990	0	33.5370	0	26.373	0	147.399	0	189.2	4	62.6	4	-1E+10	1	-1E+10	1	-1E+10	1	-1E+10	1	-1E+10	1	-1E+10	1
4902551	99	C	05/11/2023	22:53	-131.273	48.009	0	149.60	0	6.1960	0	33.5410	0	26.377	0	148.291	0	188.3	4	62.3	4	-1E+10	1	-1E+10	1	-1E+10	1	-1E+10	1	-1E+10	1	-1E+10	1
4902551	99	C	05/11/2023	22:53	-131.273	48.009	0	150.90	0	6.1920	0	33.5500	0	26.385	0	149.579	0	186.8	4	61.8	4	-1E+10	1	-1E+10	1	-1E+10	1	-1E+10	1	-1E+10	1	-1E+10	1
4902551	99	C	05/11/2023	22:53	-131.273	48.009	0	152.30	0	6.1870	0	33.5630	0	26.395	0	150.966	0	185.2	4	61.3	4	-1E+10	1	-1E+10	1	-1E+10	1	-1E+10	1	-1E+10	1	-1E+10	1
4902551	99	C	05/11/2023	22:53	-131.273	48.009	0	153.20	0	6.1830	0	33.5750	0	26.405	0	151.858	0	184.1	4	60.9	4	-1E+10	1	-1E+10	1	-1E+10	1	-1E+10	1	-1E+10	1	-1E+10	1
4902551	99	C	05/11/2023	22:53	-131.273	48.009	0	154.20	0	6.1780	0	33.5800	0	26.410	0	152.849	0	183.0	4	60.6	4	-1E+10	1	-1E+10	1	-1E+10	1	-1E+10	1	-1E+10	1	-1E+10	1
4902551	99	C	05/11/2023	22:53	-131.273	48.009	0	155.20	0	6.1660	0	33.5980	0	26.426	0	153.840	0	181.9	4	60.2	4	-1E+10	1	-1E+10	1	-1E+10	1	-1E+10	1	-1E+10	1	-1E+10	1
4902551	99	C	05/11/2023	22:53	-131.273	48.009	0	156.10	0	6.1620	0	33.6050	0	26.432	0	154.731	0	180.8	4	59.8	4	-1E+10	1	-1E+10	1	-1E+10	1	-1E+10	1	-1E+10	1	-1E+10	1
4902551	99	C	05/11/2023	22:53	-131.273	48.009	0	157.00	0	6.1630	0	33.6110	0	26.436	0	155.623	0	179.7	4	59.5	4	-1E+10	1	-1E+10	1	-1E+10	1	-1E+10	1	-1E+10	1	-1E+10	1
4902551	99	C	05/11/2023	22:53	-131.273	48.009	0	157.90	0	6.1440	0	33.6190	0	26.445	0	156.515	0	178.7	4	59.1	4	-1E+10	1	-1E+10	1	-1E+10	1	-1E+10	1	-1E+10	1	-1E+10	1
4902551	99	C	05/11/2023	22:53	-131.273	48.009	0	158.90	0	6.1360	0	33.6220	0	26.449	0	157.506	0	177.2	4	58.6	4	-1E+10	1	-1E+10	1	-1E+10	1	-1E+10	1	-1E+10	1	-1E+10	1
4902551	99	C	05/11/2023	22:53	-131.273	48.009	0	160.00	0	6.1180	0	33.6330	0	26.460	0	158.596	0	175.7	4	58.1	4	-1E+10	1	-1E+10	1	-1E+10	1	-1E+10	1	-1E+10	1	-1E+10	1
4902551	99	C	05/11/2023	22:53	-131.273	48.009	0	161.20	0	6.1000	0	33.6410	0	26.468	0	159.785	0	174.3	4	57.6	4	-1E+10	1	-1E+10	1	-1E+10	1	-1E+10	1	-1E+10	1	-1E+10	1
4902551	99	C	05/11/2023	22:53	-131.273	48.009	0	162.00	0	6.0850	0	33.6460	0	26.474	0	160.577	0	173.5	4	57.3	4	-1E+10	1	-1E+10	1	-1E+10	1	-1E+10	1	-1E+10	1	-1E+10	1
4902551	99	C	05/11/2023	22:53	-131.273	48.009	0	162.70	0	6.0770	0	33.6510	0	26.479	0	161.271	0	172.6	4	57.0	4	-1E+10	1	-1E+10	1	-1E+10	1	-1E+10	1	-1E+10	1	-1E+10	1
4902551	99	C	05/11/2023	22:53	-131.273	48.009	0	163.90	0	6.0660	0	33.6550	0	26.484	0	162.460	0	171.4	4	56.6	4	-1E+10	1	-1E+10	1	-1E+10	1	-1E+10	1	-1E+10	1	-1E+10	1
4902551	99	C	05/11/2023	22:53	-131.273	48.009	0	165.10	0	6.0640	0	33.6610	0	26.489	0	163.649	0	170.1	4	56.2	4	-1E+10	1	-1E+10	1	-1E+10	1	-1E+10	1	-1E+10	1	-1E+10	1
4902551	99	C	05/11/2023	22:53	-131.273	48.009	0	165.90	0	6.0510	0	33.6630	0	26.492	0	164.442	0	169.2	4	55.9	4	-1E+10	1	-1E+10	1	-1E+10	1	-1E+10	1	-1E+10	1	-1E+10	1
4902551	99	C	05/11/2023	22:53	-131.273	48.009	0	166.70	0	6.0460	0	33.6660	0	26.495	0	165.234	0	168.3	4	55.6	4	-1E+10	1	-1E+10	1	-1E+10	1	-1E+10	1	-1E+10	1	-1E+10	1
4902551	99	C	05/11/2023	22:53	-131.273	48.009	0	167.90	0	6.0400	0	33.6670	0	26.496	0	166.423	0	166.8	4	55.1	4	-1E+10	1	-1E+10	1	-1E+10	1	-1E+10	1	-1E+10	1	-1E+10	1
4902551	99	C	05/11/2023	22:53	-131.273	48.009	0	169.10	0	6.0310	0	33.6710	0	26.501	0	167.612	0	165.3	4	54.6	4	-1E+10	1	-1E+10	1	-1E+10	1	-1E+10	1	-1E+10	1	-1E+10	1
4902551	99	C	05/11/2023	22:53	-131.273	48.009	0	169.90	0	6.0120	0	33.6800	0	26.510	0	168.405	0	164.4	4	54.2	4	-1E+10	1	-1E+10	1	-1E+10	1	-1E+10	1	-1E+10	1	-1E+10	1
4902551	99	C	05/11/2023	22:53	-131.273	48.009	0	171.00	0	5.9890	0	33.6830	0	26.515	0	169.495	0	163.2	4	53.8	4	-1E+10	1	-1E+10	1	-1E+10	1	-1E+10	1	-1E+10	1	-1E+10	1
4902551	99	C	05/11/2023	22:53	-131.273	48.009	0	172.30	0	5.9670	0	33.6880	0	26.522	0	170.783	0	161.9	4	53.4	4	-1E+10	1	-1E+10	1	-1E+10	1	-1E+10	1	-1E+10	1	-1E+10	1
4902551	99	C	05/11/2023	22:53	-131.273	48.009	0	173.10	0	5.9520	0	33.6950	0	26.529	0	171.575	0	161.0	4	53.0	4	-1E+10	1	-1E+10	1	-1E+10	1	-1E+10	1	-1E+10	1	-1E+10	1
4902551	99	C	05/11/2023	22:53	-131.273	48.009	0	173.90	0	5.9320	0	33.6980	0	26.534	0	172.368	0	160.2	4	52.8	4	-1E+10	1	-1E+10	1	-1E+10	1	-1E+10	1	-1E+10	1	-1E+10	1
4902551	99	C	05/11/2023	22:53	-131.273	48.009	0	174.80	0	5.9170	0	33.6980	0	26.536	0	173.260	0	159.5	4	52.5	4	-1E+10	1	-1E+10	1	-1E+10	1	-1E+10	1	-1E+10	1	-1E+10	1
4902551	99	C	05/11/2023	22:53	-131.273	48.009	0	175.60	0	5.9130	0	33.6980	0	26.537	0	174.052	0	158.8	4	52.3	4	-1E+10	1	-1E+10	1	-1E+10	1	-1E+10	1	-1E+10	1	-1E+10	1
4902551	99	C	05/11/2023	22:53	-131.273	48.009	0	176.90	0	5.9000	0	33.7000	0	26.540	0	175.340	0	157.6	4	51.9	4	-1E+10	1	-1E+10	1	-1E+10	1	-1E+10	1	-1E+10	1	-1E+10	1
4902551	99	C	05/11/2023	22:53	-131.273	48.009	0	178.20	0	5.8860	0	33.7030	0	26.544	0	176.628	0	156.5	4	51.5	4	-1E+10	1	-1E+10	1	-1E+10	1	-1E+10	1	-1E+10	1	-1E+10	1
4902551	99	C	05/11/2023	22:53	-131.273	48.009	0	179.10	0	5.8710	0	33.7090	0	26.551	0	177.520	0	155.6	4	51.2	4	-1E+10	1	-1E+10	1	-1E+10	1	-1E+10	1	-1E+10	1	-1E+10	1
4902551	99	C	05/11/2023	22:53	-131.273	48.009	0	180.00	0	5.8550	0	33.7100	0	26.553	0	178.412	0	154.9	4	50.9	4	-1E+10	1	-1E+10	1	-1E+10	1	-1E+10	1	-1E+10	1	-1E+10	1
4902551	99	C	05/11/2023	22:53	-131.273	48.009	0	180.90	0	5.8480	0	33.7120	0	26.556	0	179.303	0	154.1	4	50.7	4	-1E+10	1	-1E+10	1	-1E+10	1	-1E+10	1	-1E+10	1	-1E+10	1
4902551	99	C	05/11/2023	22:53	-131.273	48.009	0	181.80	0	5.8330	0	33.7160	0	26.561	0	180.195	0	153.6	4	50.5	4	-1E+10	1	-1E+10	1	-1E+10	1	-1E+10	1	-1E+10	1	-1E+10	1
4902551	99	C	05/11/2023	22:53	-131.273	48.009	0	182.70	0	5.8190	0	33.7190	0	26.565	0	181.087	0	153.0	4	50.3	4	-1E+10	1	-1E+10	1	-1E+10	1	-1E+10	1	-1E+10	1	-1E+10	1
4902551	99	C	05/11/2023	22:53	-131.273	48.009	0	183.60	0	5.8090	0	33.7180	0	26.565	0	181.978	0	152.5	4	50.1	4	-1E+10	1	-1E+10	1	-1E+10	1	-1E+10	1	-1E+10	1	-1E+10	1
4902551	99	C	05/11/2023	22:53	-131.273	48.009	0	184.50	0	5.8030	0	33.7190	0	26.567	0	182.870	0	151.9	4	49.9	4	-1E+10	1	-1E+10	1	-1E+10	1	-1E+10	1	-1E+10	1	-1E+10	1
4902551	99	C	05/11/2023	22:53	-131.273	48.009	0	185.90	0	5.7880	0	33.7200	0	26.570	0	184.257	0	151.0	4	49.6	4	-1E+10	1	-1E+10	1	-1E+10	1	-1E+10	1	-1E+10	1	-1E+10	1
4902551	99	C	05/11/2023	22:53	-131.273	48.009	0	187.30	0	5.7780	0	33.7210	0	26.572	0	185.644	0	150.1	4	49.3	4	-1E+10	1	-1E+10	1	-1E+10	1	-1E+10	1	-1E+10	1	-1E+10	1
4902551	99	C	05/11/2023	22:53	-131.273	48.009	0	188.20	0	5.7740	0	33.7210	0	26.572	0	186.536	0	149.4	4	49.0	4	-1E+10	1	-1E+10	1	-1E+10	1	-1E+10	1	-1E+10	1	-1E+10	1
4902551	99	C	05/11/2023	22:53	-131.273	48.009	0	189.20	0	5.7630	0	33.7220	0	26.574	0	187.526	0	148.6	4	48.8	4	-1E+10	1	-1E+10	1	-1E+10	1	-1E+10	1	-1E+10	1	-1E+10	1
4902551	99	C	05/11/2023	22:53	-131.273	48.009	0	190.10	0	5.7580	0	33.7220	0	26.575	0	188.418	0	147.9	4	48.5	4	-1E+10	1	-1E+10	1	-1E+10	1	-1E+10	1	-1E+10	1	-1E+10	1
4902551	99	C	05/11/2023	22:53	-131.273	48.009	0	191.00	0	5.7520	0	33.7240	0	26.577	0	189.309	0	147.1	4	48.3	4	-1E+10	1	-1E+10	1	-1E+10	1	-1E+10	1	-1E+10	1	-1E+10	1
4902551	99	C	05/11/2023	22:53	-131.273	48.009	0	191.90	0	5.7240	0	33.7230	0	26.580	0	190.201	0	146.4	4	48.0	4	-1E+10	1	-1E+10	1	-1E+10	1	-1E+10	1	-1E+10	1	-1E+10	1
4902551	99	C	05/11/2023	22:53	-131.273	48.009	0	192.80	0	5.7200	0	33.7240	0	26.581	0	191.093	0	145.6	4	47.7	4	-1E+10	1	-1E+10	1	-1E+10	1	-1E+10	1	-1E+10	1	-1E+10	1
4902551	99	C	05/11/2023	22:53	-131.273	48.009	0	193.80	0	5.7100	0	33.7240	0	26.582	0	192.083	0	144.8	4	47.4	4	-1E+10	1	-1E+10	1	-1E+10	1	-1E+10	1	-1E+10	1	-1E+10	1
4902551	99	C	05/11/2023	22:53	-131.273	48.009	0	194.70	0	5.6940	0	33.7250	0	26.585	0	192.975	0	143.8	4	47.1	4	-1E+10	1	-1E+10	1	-1E+10	1	-1E+10	1	-1E+10	1	-1E+10	1
4902551	99	C	05/11/2023	22:53	-131.273	48.009	0	195.60	0	5.6990	0	33.7200	0	26.580	0	193.867	0	143.1	4	46.9	4	-1E+10	1	-1E+10	1	-1E+10	1	-1E+10	1	-1E+10	1	-1E+10	1
4902551	99	C	05/11/2023	22:53	-131.273	48.009	0	196.90	0	5.6960	0	33.7300	0	26.589	0	195.154	0	141.6	4	46.4	4	-1E+10	1	-1E+10	1	-1E+10	1	-1E+10	1	-1E+10	1	-1E+10	1
4902551	99	C	05/11/2023	22:53	-131.273	48.009	0	198.30	0	5.6640	0	33.7390	0	26.600	0	196.541	0	140.4	4	46.0	4	-1E+10	1	-1E+10	1	-1E+10	1	-1E+10	1	-1E+10	1	-1E+10	1
4902551	99	C	05/11/2023	22:53	-131.273	48.009	0	199.20	0	5.6450	0	33.7350	0	26.599	0	197.433	0	139.6	4	45.7	4	-1E+10	1	-1E+10	1	-1E+10	1	-1E+10	1	-1E+10	1	-1E+10	1
4902551	99	C	05/11/2023	22:53	-131.273	48.009	0	200.10	0	5.6350	0	33.7360	0	26.601	0	198.325	0	138.8	4	45.4	4	-1E+10	1	-1E+10	1	-1E+10	1	-1E+10	1	-1E+10	1	-1E+10	1
4902551	99	C	05/11/2023	22:53	-131.273	48.009	0	201.00	0	5.6200	0	33.7370	0	26.603	0	199.216	0	138.0	4	45.1	4	-1E+10	1	-1E+10	1	-1E+10	1	-1E+10	1	-1E+10	1	-1E+10	1
4902551	99	C	05/11/2023	22:53	-131.273	48.009	0	201.90	0	5.5920	0	33.7410	0	26.610	0	200.108	0	137.3	4	44.9	4	-1E+10	1	-1E+10	1	-1E+10	1	-1E+10	1	-1E+10	1	-1E+10	1
4902551	99	C	05/11/2023	22:53	-131.273	48.009	0	202.80	0	5.5520	0	33.7400	0	26.614	0	200.999	0	136.7	4	44.6	4	-1E+10	1	-1E+10	1	-1E+10	1	-1E+10	1	-1E+10	1	-1E+10	1
4902551	99	C	05/11/2023	22:53	-131.273	48.009	0	203.80	0	5.5420	0	33.7390	0	26.614	0	201.990	0	136.0	4	44.4	4	-1E+10	1	-1E+10	1	-1E+10	1	-1E+10	1	-1E+10	1	-1E+10	1
4902551	99	C	05/11/2023	22:53	-131.273	48.009	0	204.70	0	5.5370	0	33.7390	0	26.615	0	202.882	0	135.4	4	44.2	4	-1E+10	1	-1E+10	1	-1E+10	1	-1E+10	1	-1E+10	1	-1E+10	1
4902551	99	C	05/11/2023	22:53	-131.273	48.009	0	205.60	0	5.5210	0	33.7400	0	26.618	0	203.773	0	134.7	4	43.9	4	-1E+10	1	-1E+10	1	-1E+10	1	-1E+10	1	-1E+10	1	-1E+10	1
4902551	99	C	05/11/2023	22:53	-131.273	48.009	0	206.90	0	5.5080	0	33.7410	0	26.620	0	205.061	0	133.6	4	43.6	4	-1E+10	1	-1E+10	1	-1E+10	1	-1E+10	1	-1E+10	1	-1E+10	1
4902551	99	C	05/11/2023	22:53	-131.273	48.009	0	208.20	0	5.4970	0	33.7410	0	26.621	0	206.349	0	132.4	4	43.2	4	-1E+10	1	-1E+10	1	-1E+10	1	-1E+10	1	-1E+10	1	-1E+10	1
4902551	99	C	05/11/2023	22:53	-131.273	48.009	0	209.10	0	5.4750	0	33.7430	0	26.626	0	207.240	0	131.6	4	42.9	4	-1E+10	1	-1E+10	1	-1E+10	1	-1E+10	1	-1E+10	1	-1E+10	1
4902551	99	C	05/11/2023	22:53	-131.273	48.009	0	210.00	0	5.4700	0	33.7440	0	26.627	0	208.132	0	130.8	4	42.6	4	-1E+10	1	-1E+10	1	-1E+10	1	-1E+10	1	-1E+10	1	-1E+10	1
4902551	99	C	05/11/2023	22:53	-131.273	48.009	0	210.90	0	5.4700	0	33.7430	0	26.626	0	209.023	0	129.9	4	42.3	4	-1E+10	1	-1E+10	1	-1E+10	1	-1E+10	1	-1E+10	1	-1E+10	1
4902551	99	C	05/11/2023	22:53	-131.273	48.009	0	211.80	0	5.4700	0	33.7430	0	26.626	0	209.915	0	128.9	4	42.0	4	-1E+10	1	-1E+10	1	-1E+10	1	-1E+10	1	-1E+10	1	-1E+10	1
4902551	99	C	05/11/2023	22:53	-131.273	48.009	0	212.70	0	5.4620	0	33.7470	0	26.630	0	210.806	0	127.7	4	41.6	4	-1E+10	1	-1E+10	1	-1E+10	1	-1E+10	1	-1E+10	1	-1E+10	1
4902551	99	C	05/11/2023	22:53	-131.273	48.009	0	213.90	0	5.4320	0	33.7470	0	26.634	0	211.995	0	126.2	4	41.1	4	-1E+10	1	-1E+10	1	-1E+10	1	-1E+10	1	-1E+10	1	-1E+10	1
4902551	99	C	05/11/2023	22:53	-131.273	48.009	0	215.30	0	5.3900	0	33.7500	0	26.641	0	213.382	0	124.8	4	40.6	4	-1E+10	1	-1E+10	1	-1E+10	1	-1E+10	1	-1E+10	1	-1E+10	1
4902551	99	C	05/11/2023	22:53	-131.273	48.009	0	216.10	0	5.3760	0	33.7490	0	26.642	0	214.174	0	123.8	4	40.3	4	-1E+10	1	-1E+10	1	-1E+10	1	-1E+10	1	-1E+10	1	-1E+10	1
4902551	99	C	05/11/2023	22:53	-131.273	48.009	0	217.00	0	5.3540	0	33.7520	0	26.647	0	215.066	0	123.0	4	40.0	4	-1E+10	1	-1E+10	1	-1E+10	1	-1E+10	1	-1E+10	1	-1E+10	1
4902551	99	C	05/11/2023	22:53	-131.273	48.009	0	217.90	0	5.3450	0	33.7530	0	26.649	0	215.957	0	122.3	4	39.7	4	-1E+10	1	-1E+10	1	-1E+10	1	-1E+10	1	-1E+10	1	-1E+10	1
4902551	99	C	05/11/2023	22:53	-131.273	48.009	0	218.80	0	5.3240	0	33.7550	0	26.653	0	216.849	0	121.7	4	39.5	4	-1E+10	1	-1E+10	1	-1E+10	1	-1E+10	1	-1E+10	1	-1E+10	1
4902551	99	C	05/11/2023	22:53	-131.273	48.009	0	219.70	0	5.3140	0	33.7550	0	26.654	0	217.740	0	121.0	4	39.3	4	-1E+10	1	-1E+10	1	-1E+10	1	-1E+10	1	-1E+10	1	-1E+10	1
4902551	99	C	05/11/2023	22:53	-131.273	48.009	0	221.00	0	5.3070	0	33.7550	0	26.655	0	219.028	0	120.1	4	39.0	4	-1E+10	1	-1E+10	1	-1E+10	1	-1E+10	1	-1E+10	1	-1E+10	1
4902551	99	C	05/11/2023	22:53	-131.273	48.009	0	222.30	0	5.3040	0	33.7550	0	26.655	0	220.316	0	119.0	4	38.6	4	-1E+10	1	-1E+10	1	-1E+10	1	-1E+10	1	-1E+10	1	-1E+10	1
4902551	99	C	05/11/2023	22:53	-131.273	48.009	0	223.20	0	5.2990	0	33.7550	0	26.656	0	221.207	0	118.3	4	38.4	4	-1E+10	1	-1E+10	1	-1E+10	1	-1E+10	1	-1E+10	1	-1E+10	1
4902551	99	C	05/11/2023	22:53	-131.273	48.009	0	224.00	0	5.2980	0	33.7550	0	26.656	0	222.000	0	117.5	4	38.1	4	-1E+10	1	-1E+10	1	-1E+10	1	-1E+10	1	-1E+10	1	-1E+10	1
4902551	99	C	05/11/2023	22:53	-131.273	48.009	0	224.90	0	5.2960	0	33.7560	0	26.657	0	222.891	0	116.5	4	37.8	4	-1E+10	1	-1E+10	1	-1E+10	1	-1E+10	1	-1E+10	1	-1E+10	1
4902551	99	C	05/11/2023	22:53	-131.273	48.009	0	225.80	0	5.2780	0	33.7580	0	26.661	0	223.783	0	115.6	4	37.5	4	-1E+10	1	-1E+10	1	-1E+10	1	-1E+10	1	-1E+10	1	-1E+10	1
4902551	99	C	05/11/2023	22:53	-131.273	48.009	0	226.70	0	5.2700	0	33.7590	0	26.663	0	224.674	0	114.6	4	37.2	4	-1E+10	1	-1E+10	1	-1E+10	1	-1E+10	1	-1E+10	1	-1E+10	1
4902551	99	C	05/11/2023	22:53	-131.273	48.009	0	228.00	0	5.2420	0	33.7630	0	26.669	0	225.962	0	113.3	4	36.7	4	-1E+10	1	-1E+10	1	-1E+10	1	-1E+10	1	-1E+10	1	-1E+10	1
4902551	99	C	05/11/2023	22:53	-131.273	48.009	0	229.30	0	5.2350	0	33.7640	0	26.671	0	227.249	0	112.1	4	36.3	4	-1E+10	1	-1E+10	1	-1E+10	1	-1E+10	1	-1E+10	1	-1E+10	1
4902551	99	C	05/11/2023	22:53	-131.273	48.009	0	230.20	0	5.2270	0	33.7650	0	26.672	0	228.141	0	111.3	4	36.1	4	-1E+10	1	-1E+10	1	-1E+10	1	-1E+10	1	-1E+10	1	-1E+10	1
4902551	99	C	05/11/2023	22:53	-131.273	48.009	0	231.10	0	5.2160	0	33.7680	0	26.676	0	229.032	0	110.5	4	35.8	4	-1E+10	1	-1E+10	1	-1E+10	1	-1E+10	1	-1E+10	1	-1E+10	1
4902551	99	C	05/11/2023	22:53	-131.273	48.009	0	232.00	0	5.2060	0	33.7680	0	26.677	0	229.924	0	109.7	4	35.5	4	-1E+10	1	-1E+10	1	-1E+10	1	-1E+10	1	-1E+10	1	-1E+10	1
4902551	99	C	05/11/2023	22:53	-131.273	48.009	0	232.80	0	5.1910	0	33.7700	0	26.680	0	230.716	0	109.0	4	35.3	4	-1E+10	1	-1E+10	1	-1E+10	1	-1E+10	1	-1E+10	1	-1E+10	1
4902551	99	C	05/11/2023	22:53	-131.273	48.009	0	233.70	0	5.1880	0	33.7710	0	26.682	0	231.608	0	108.3	4	35.1	4	-1E+10	1	-1E+10	1	-1E+10	1	-1E+10	1	-1E+10	1	-1E+10	1
4902551	99	C	05/11/2023	22:53	-131.273	48.009	0	235.00	0	5.1790	0	33.7720	0	26.683	0	232.895	0	107.2	4	34.7	4	-1E+10	1	-1E+10	1	-1E+10	1	-1E+10	1	-1E+10	1	-1E+10	1
4902551	99	C	05/11/2023	22:53	-131.273	48.009	0	236.30	0	5.1540	0	33.7760	0	26.689	0	234.183	0	106.1	4	34.3	4	-1E+10	1	-1E+10	1	-1E+10	1	-1E+10	1	-1E+10	1	-1E+10	1
4902551	99	C	05/11/2023	22:53	-131.273	48.009	0	237.20	0	5.1370	0	33.7760	0	26.691	0	235.074	0	105.4	4	34.1	4	-1E+10	1	-1E+10	1	-1E+10	1	-1E+10	1	-1E+10	1	-1E+10	1
4902551	99	C	05/11/2023	22:53	-131.273	48.009	0	238.10	0	5.1320	0	33.7750	0	26.691	0	235.966	0	104.6	4	33.8	4	-1E+10	1	-1E+10	1	-1E+10	1	-1E+10	1	-1E+10	1	-1E+10	1
4902551	99	C	05/11/2023	22:53	-131.273	48.009	0	238.90	0	5.1290	0	33.7750	0	26.692	0	236.758	0	103.8	4	33.6	4	-1E+10	1	-1E+10	1	-1E+10	1	-1E+10	1	-1E+10	1	-1E+10	1
4902551	99	C	05/11/2023	22:53	-131.273	48.009	0	239.80	0	5.1120	0	33.7840	0	26.701	0	237.650	0	103.0	4	33.3	4	-1E+10	1	-1E+10	1	-1E+10	1	-1E+10	1	-1E+10	1	-1E+10	1
4902551	99	C	05/11/2023	22:53	-131.273	48.009	0	240.60	0	5.1060	0	33.7810	0	26.699	0	238.442	0	102.4	4	33.1	4	-1E+10	1	-1E+10	1	-1E+10	1	-1E+10	1	-1E+10	1	-1E+10	1
4902551	99	C	05/11/2023	22:53	-131.273	48.009	0	241.90	0	5.0940	0	33.7840	0	26.703	0	239.729	0	101.4	4	32.8	4	-1E+10	1	-1E+10	1	-1E+10	1	-1E+10	1	-1E+10	1	-1E+10	1
4902551	99	C	05/11/2023	22:53	-131.273	48.009	0	243.20	0	5.0800	0	33.7860	0	26.706	0	241.017	0	100.6	4	32.5	4	-1E+10	1	-1E+10	1	-1E+10	1	-1E+10	1	-1E+10	1	-1E+10	1
4902551	99	C	05/11/2023	22:53	-131.273	48.009	0	244.00	0	5.0740	0	33.7870	0	26.707	0	241.809	0	100.1	4	32.3	4	-1E+10	1	-1E+10	1	-1E+10	1	-1E+10	1	-1E+10	1	-1E+10	1
4902551	99	C	05/11/2023	22:53	-131.273	48.009	0	244.90	0	5.0680	0	33.7890	0	26.710	0	242.701	0	99.5	4	32.1	4	-1E+10	1	-1E+10	1	-1E+10	1	-1E+10	1	-1E+10	1	-1E+10	1
4902551	99	C	05/11/2023	22:53	-131.273	48.009	0	245.70	0	5.0540	0	33.7870	0	26.710	0	243.493	0	99.0	4	32.0	4	-1E+10	1	-1E+10	1	-1E+10	1	-1E+10	1	-1E+10	1	-1E+10	1
4902551	99	C	05/11/2023	22:53	-131.273	48.009	0	246.90	0	5.0510	0	33.7890	0	26.712	0	244.682	0	98.1	4	31.7	4	-1E+10	1	-1E+10	1	-1E+10	1	-1E+10	1	-1E+10	1	-1E+10	1
4902551	99	C	05/11/2023	22:53	-131.273	48.009	0	248.20	0	5.0480	0	33.7910	0	26.714	0	245.969	0	97.1	4	31.3	4	-1E+10	1	-1E+10	1	-1E+10	1	-1E+10	1	-1E+10	1	-1E+10	1
4902551	99	C	05/11/2023	22:53	-131.273	48.009	0	249.10	0	5.0460	0	33.7910	0	26.714	0	246.861	0	96.5	4	31.1	4	-1E+10	1	-1E+10	1	-1E+10	1	-1E+10	1	-1E+10	1	-1E+10	1
4902551	99	C	05/11/2023	22:53	-131.273	48.009	0	249.90	0	5.0420	0	33.7920	0	26.715	0	247.653	0	95.8	4	30.9	4	-1E+10	1	-1E+10	1	-1E+10	1	-1E+10	1	-1E+10	1	-1E+10	1
4902551	99	C	05/11/2023	22:53	-131.273	48.009	0	250.80	0	5.0410	0	33.7910	0	26.714	0	248.544	0	95.0	4	30.7	4	-1E+10	1	-1E+10	1	-1E+10	1	-1E+10	1	-1E+10	1	-1E+10	1
4902551	99	C	05/11/2023	22:53	-131.273	48.009	0	252.00	0	5.0240	0	33.7950	0	26.720	0	249.733	0	94.0	4	30.3	4	-1E+10	1	-1E+10	1	-1E+10	1	-1E+10	1	-1E+10	1	-1E+10	1
4902551	99	C	05/11/2023	22:53	-131.273	48.009	0	253.20	0	5.0090	0	33.7980	0	26.724	0	250.921	0	93.0	4	30.0	4	-1E+10	1	-1E+10	1	-1E+10	1	-1E+10	1	-1E+10	1	-1E+10	1
4902551	99	C	05/11/2023	22:53	-131.273	48.009	0	254.10	0	5.0070	0	33.7980	0	26.724	0	251.813	0	92.4	4	29.8	4	-1E+10	1	-1E+10	1	-1E+10	1	-1E+10	1	-1E+10	1	-1E+10	1
4902551	99	C	05/11/2023	22:53	-131.273	48.009	0	254.90	0	4.9970	0	33.8010	0	26.727	0	252.605	0	91.8	4	29.6	4	-1E+10	1	-1E+10	1	-1E+10	1	-1E+10	1	-1E+10	1	-1E+10	1
4902551	99	C	05/11/2023	22:53	-131.273	48.009	0	255.70	0	4.9910	0	33.8010	0	26.728	0	253.397	0	91.2	4	29.4	4	-1E+10	1	-1E+10	1	-1E+10	1	-1E+10	1	-1E+10	1	-1E+10	1
4902551	99	C	05/11/2023	22:53	-131.273	48.009	0	257.00	0	4.9720	0	33.8060	0	26.734	0	254.685	0	90.5	4	29.2	4	-1E+10	1	-1E+10	1	-1E+10	1	-1E+10	1	-1E+10	1	-1E+10	1
4902551	99	C	05/11/2023	22:53	-131.273	48.009	0	258.20	0	4.9650	0	33.8080	0	26.737	0	255.873	0	89.8	4	28.9	4	-1E+10	1	-1E+10	1	-1E+10	1	-1E+10	1	-1E+10	1	-1E+10	1
4902551	99	C	05/11/2023	22:53	-131.273	48.009	0	259.00	0	4.9590	0	33.8100	0	26.739	0	256.665	0	89.5	4	28.8	4	-1E+10	1	-1E+10	1	-1E+10	1	-1E+10	1	-1E+10	1	-1E+10	1
4902551	99	C	05/11/2023	22:53	-131.273	48.009	0	259.80	0	4.9520	0	33.8110	0	26.740	0	257.458	0	89.1	4	28.7	4	-1E+10	1	-1E+10	1	-1E+10	1	-1E+10	1	-1E+10	1	-1E+10	1
4902551	99	C	05/11/2023	22:53	-131.273	48.009	0	261.00	0	4.9290	0	33.8140	0	26.745	0	258.646	0	88.6	4	28.5	4	-1E+10	1	-1E+10	1	-1E+10	1	-1E+10	1	-1E+10	1	-1E+10	1
4902551	99	C	05/11/2023	22:53	-131.273	48.009	0	262.30	0	4.9210	0	33.8140	0	26.746	0	259.934	0	88.0	4	28.3	4	-1E+10	1	-1E+10	1	-1E+10	1	-1E+10	1	-1E+10	1	-1E+10	1
4902551	99	C	05/11/2023	22:53	-131.273	48.009	0	263.10	0	4.9180	0	33.8130	0	26.746	0	260.726	0	87.6	4	28.2	4	-1E+10	1	-1E+10	1	-1E+10	1	-1E+10	1	-1E+10	1	-1E+10	1
4902551	99	C	05/11/2023	22:53	-131.273	48.009	0	263.90	0	4.9170	0	33.8140	0	26.747	0	261.518	0	87.2	4	28.1	4	-1E+10	1	-1E+10	1	-1E+10	1	-1E+10	1	-1E+10	1	-1E+10	1
4902551	99	C	05/11/2023	22:53	-131.273	48.009	0	264.80	0	4.9150	0	33.8140	0	26.747	0	262.409	0	86.8	4	27.9	4	-1E+10	1	-1E+10	1	-1E+10	1	-1E+10	1	-1E+10	1	-1E+10	1
4902551	99	C	05/11/2023	22:53	-131.273	48.009	0	266.00	0	4.9120	0	33.8140	0	26.747	0	263.598	0	86.0	4	27.7	4	-1E+10	1	-1E+10	1	-1E+10	1	-1E+10	1	-1E+10	1	-1E+10	1
4902551	99	C	05/11/2023	22:53	-131.273	48.009	0	267.30	0	4.9090	0	33.8150	0	26.748	0	264.885	0	85.3	4	27.4	4	-1E+10	1	-1E+10	1	-1E+10	1	-1E+10	1	-1E+10	1	-1E+10	1
4902551	99	C	05/11/2023	22:53	-131.273	48.009	0	268.10	0	4.8950	0	33.8190	0	26.753	0	265.678	0	84.8	4	27.3	4	-1E+10	1	-1E+10	1	-1E+10	1	-1E+10	1	-1E+10	1	-1E+10	1
4902551	99	C	05/11/2023	22:53	-131.273	48.009	0	268.90	0	4.8910	0	33.8200	0	26.754	0	266.470	0	84.5	4	27.2	4	-1E+10	1	-1E+10	1	-1E+10	1	-1E+10	1	-1E+10	1	-1E+10	1
4902551	99	C	05/11/2023	22:53	-131.273	48.009	0	269.70	0	4.8880	0	33.8230	0	26.757	0	267.262	0	84.2	4	27.1	4	-1E+10	1	-1E+10	1	-1E+10	1	-1E+10	1	-1E+10	1	-1E+10	1
4902551	99	C	05/11/2023	22:53	-131.273	48.009	0	271.00	0	4.8760	0	33.8250	0	26.760	0	268.550	0	83.9	4	27.0	4	-1E+10	1	-1E+10	1	-1E+10	1	-1E+10	1	-1E+10	1	-1E+10	1
4902551	99	C	05/11/2023	22:53	-131.273	48.009	0	272.20	0	4.8660	0	33.8270	0	26.763	0	269.738	0	83.7	4	26.9	4	-1E+10	1	-1E+10	1	-1E+10	1	-1E+10	1	-1E+10	1	-1E+10	1
4902551	99	C	05/11/2023	22:53	-131.273	48.009	0	273.10	0	4.8520	0	33.8250	0	26.763	0	270.629	0	83.5	4	26.8	4	-1E+10	1	-1E+10	1	-1E+10	1	-1E+10	1	-1E+10	1	-1E+10	1
4902551	99	C	05/11/2023	22:53	-131.273	48.009	0	273.90	0	4.8250	0	33.8230	0	26.764	0	271.421	0	83.2	4	26.7	4	-1E+10	1	-1E+10	1	-1E+10	1	-1E+10	1	-1E+10	1	-1E+10	1
4902551	99	C	05/11/2023	22:53	-131.273	48.009	0	274.80	0	4.8230	0	33.8220	0	26.764	0	272.313	0	82.8	4	26.6	4	-1E+10	1	-1E+10	1	-1E+10	1	-1E+10	1	-1E+10	1	-1E+10	1
4902551	99	C	05/11/2023	22:53	-131.273	48.009	0	275.60	0	4.8350	0	33.8250	0	26.765	0	273.105	0	82.6	4	26.5	4	-1E+10	1	-1E+10	1	-1E+10	1	-1E+10	1	-1E+10	1	-1E+10	1
4902551	99	C	05/11/2023	22:53	-131.273	48.009	0	276.90	0	4.8230	0	33.8280	0	26.768	0	274.392	0	82.3	4	26.4	4	-1E+10	1	-1E+10	1	-1E+10	1	-1E+10	1	-1E+10	1	-1E+10	1
4902551	99	C	05/11/2023	22:53	-131.273	48.009	0	278.20	0	4.8080	0	33.8280	0	26.770	0	275.680	0	81.9	4	26.3	4	-1E+10	1	-1E+10	1	-1E+10	1	-1E+10	1	-1E+10	1	-1E+10	1
4902551	99	C	05/11/2023	22:53	-131.273	48.009	0	279.10	0	4.7960	0	33.8280	0	26.772	0	276.571	0	81.7	4	26.2	4	-1E+10	1	-1E+10	1	-1E+10	1	-1E+10	1	-1E+10	1	-1E+10	1
4902551	99	C	05/11/2023	22:53	-131.273	48.009	0	280.00	0	4.7620	0	33.8280	0	26.775	0	277.462	0	81.3	4	26.1	4	-1E+10	1	-1E+10	1	-1E+10	1	-1E+10	1	-1E+10	1	-1E+10	1
4902551	99	C	05/11/2023	22:53	-131.273	48.009	0	280.80	0	4.7400	0	33.8260	0	26.776	0	278.254	0	80.8	4	25.9	4	-1E+10	1	-1E+10	1	-1E+10	1	-1E+10	1	-1E+10	1	-1E+10	1
4902551	99	C	05/11/2023	22:53	-131.273	48.009	0	281.70	0	4.7360	0	33.8250	0	26.776	0	279.146	0	80.4	4	25.8	4	-1E+10	1	-1E+10	1	-1E+10	1	-1E+10	1	-1E+10	1	-1E+10	1
4902551	99	C	05/11/2023	22:53	-131.273	48.009	0	282.60	0	4.7270	0	33.8270	0	26.778	0	280.037	0	80.0	4	25.6	4	-1E+10	1	-1E+10	1	-1E+10	1	-1E+10	1	-1E+10	1	-1E+10	1
4902551	99	C	05/11/2023	22:53	-131.273	48.009	0	283.90	0	4.7110	0	33.8300	0	26.783	0	281.324	0	79.5	4	25.5	4	-1E+10	1	-1E+10	1	-1E+10	1	-1E+10	1	-1E+10	1	-1E+10	1
4902551	99	C	05/11/2023	22:53	-131.273	48.009	0	285.30	0	4.6890	0	33.8320	0	26.787	0	282.710	0	79.1	4	25.3	4	-1E+10	1	-1E+10	1	-1E+10	1	-1E+10	1	-1E+10	1	-1E+10	1
4902551	99	C	05/11/2023	22:53	-131.273	48.009	0	286.20	0	4.6740	0	33.8310	0	26.787	0	283.602	0	78.6	4	25.2	4	-1E+10	1	-1E+10	1	-1E+10	1	-1E+10	1	-1E+10	1	-1E+10	1
4902551	99	C	05/11/2023	22:53	-131.273	48.009	0	287.10	0	4.6760	0	33.8320	0	26.788	0	284.493	0	78.3	4	25.0	4	-1E+10	1	-1E+10	1	-1E+10	1	-1E+10	1	-1E+10	1	-1E+10	1
4902551	99	C	05/11/2023	22:53	-131.273	48.009	0	288.00	0	4.6700	0	33.8330	0	26.789	0	285.384	0	77.9	4	24.9	4	-1E+10	1	-1E+10	1	-1E+10	1	-1E+10	1	-1E+10	1	-1E+10	1
4902551	99	C	05/11/2023	22:53	-131.273	48.009	0	288.90	0	4.6640	0	33.8330	0	26.790	0	286.275	0	77.5	4	24.8	4	-1E+10	1	-1E+10	1	-1E+10	1	-1E+10	1	-1E+10	1	-1E+10	1
4902551	99	C	05/11/2023	22:53	-131.273	48.009	0	289.80	0	4.6580	0	33.8330	0	26.791	0	287.166	0	77.1	4	24.7	4	-1E+10	1	-1E+10	1	-1E+10	1	-1E+10	1	-1E+10	1	-1E+10	1
4902551	99	C	05/11/2023	22:53	-131.273	48.009	0	290.70	0	4.6500	0	33.8330	0	26.792	0	288.058	0	76.7	4	24.5	4	-1E+10	1	-1E+10	1	-1E+10	1	-1E+10	1	-1E+10	1	-1E+10	1
4902551	99	C	05/11/2023	22:53	-131.273	48.009	0	291.60	0	4.6390	0	33.8320	0	26.792	0	288.949	0	76.3	4	24.4	4	-1E+10	1	-1E+10	1	-1E+10	1	-1E+10	1	-1E+10	1	-1E+10	1
4902551	99	C	05/11/2023	22:53	-131.273	48.009	0	292.60	0	4.6210	0	33.8350	0	26.796	0	289.939	0	75.8	4	24.2	4	-1E+10	1	-1E+10	1	-1E+10	1	-1E+10	1	-1E+10	1	-1E+10	1
4902551	99	C	05/11/2023	22:53	-131.273	48.009	0	293.90	0	4.6120	0	33.8350	0	26.797	0	291.226	0	75.1	4	24.0	4	-1E+10	1	-1E+10	1	-1E+10	1	-1E+10	1	-1E+10	1	-1E+10	1
4902551	99	C	05/11/2023	22:53	-131.273	48.009	0	295.30	0	4.6110	0	33.8350	0	26.797	0	292.613	0	74.3	4	23.7	4	-1E+10	1	-1E+10	1	-1E+10	1	-1E+10	1	-1E+10	1	-1E+10	1
4902551	99	C	05/11/2023	22:53	-131.273	48.009	0	296.30	0	4.6090	0	33.8400	0	26.802	0	293.603	0	73.8	4	23.6	4	-1E+10	1	-1E+10	1	-1E+10	1	-1E+10	1	-1E+10	1	-1E+10	1
4902551	99	C	05/11/2023	22:53	-131.273	48.009	0	297.20	0	4.6010	0	33.8430	0	26.805	0	294.494	0	73.4	4	23.4	4	-1E+10	1	-1E+10	1	-1E+10	1	-1E+10	1	-1E+10	1	-1E+10	1
4902551	99	C	05/11/2023	22:53	-131.273	48.009	0	298.20	0	4.5860	0	33.8430	0	26.807	0	295.484	0	73.0	4	23.3	4	-1E+10	1	-1E+10	1	-1E+10	1	-1E+10	1	-1E+10	1	-1E+10	1
4902551	99	C	05/11/2023	22:53	-131.273	48.009	0	299.10	0	4.5510	0	33.8450	0	26.812	0	296.375	0	72.5	4	23.2	4	-1E+10	1	-1E+10	1	-1E+10	1	-1E+10	1	-1E+10	1	-1E+10	1
4902551	99	C	05/11/2023	22:53	-131.273	48.009	0	300.10	0	4.5430	0	33.8450	0	26.813	0	297.365	0	72.1	4	23.0	4	-1E+10	1	-1E+10	1	-1E+10	1	-1E+10	1	-1E+10	1	-1E+10	1
4902551	99	C	05/11/2023	22:53	-131.273	48.009	0	301.00	0	4.5460	0	33.8500	0	26.816	0	298.257	0	71.8	4	22.9	4	-1E+10	1	-1E+10	1	-1E+10	1	-1E+10	1	-1E+10	1	-1E+10	1
4902551	99	C	05/11/2023	22:53	-131.273	48.009	0	302.00	0	4.5330	0	33.8480	0	26.816	0	299.247	0	71.4	4	22.8	4	-1E+10	1	-1E+10	1	-1E+10	1	-1E+10	1	-1E+10	1	-1E+10	1
4902551	99	C	05/11/2023	22:53	-131.273	48.009	0	303.00	0	4.5400	0	33.8500	0	26.817	0	300.237	0	71.1	4	22.7	4	-1E+10	1	-1E+10	1	-1E+10	1	-1E+10	1	-1E+10	1	-1E+10	1
4902551	99	C	05/11/2023	22:53	-131.273	48.009	0	303.90	0	4.5430	0	33.8510	0	26.818	0	301.128	0	70.9	4	22.6	4	-1E+10	1	-1E+10	1	-1E+10	1	-1E+10	1	-1E+10	1	-1E+10	1
4902551	99	C	05/11/2023	22:53	-131.273	48.009	0	304.90	0	4.5430	0	33.8530	0	26.819	0	302.118	0	70.6	4	22.5	4	-1E+10	1	-1E+10	1	-1E+10	1	-1E+10	1	-1E+10	1	-1E+10	1
4902551	99	C	05/11/2023	22:53	-131.273	48.009	0	305.90	0	4.5410	0	33.8540	0	26.820	0	303.108	0	70.4	4	22.5	4	-1E+10	1	-1E+10	1	-1E+10	1	-1E+10	1	-1E+10	1	-1E+10	1
4902551	99	C	05/11/2023	22:53	-131.273	48.009	0	306.90	0	4.5400	0	33.8540	0	26.820	0	304.099	0	70.1	4	22.4	4	-1E+10	1	-1E+10	1	-1E+10	1	-1E+10	1	-1E+10	1	-1E+10	1
4902551	99	C	05/11/2023	22:53	-131.273	48.009	0	307.80	0	4.5380	0	33.8550	0	26.821	0	304.990	0	69.9	4	22.3	4	-1E+10	1	-1E+10	1	-1E+10	1	-1E+10	1	-1E+10	1	-1E+10	1
4902551	99	C	05/11/2023	22:53	-131.273	48.009	0	308.80	0	4.5310	0	33.8550	0	26.822	0	305.980	0	69.6	4	22.2	4	-1E+10	1	-1E+10	1	-1E+10	1	-1E+10	1	-1E+10	1	-1E+10	1
4902551	99	C	05/11/2023	22:53	-131.273	48.009	0	309.80	0	4.5290	0	33.8560	0	26.823	0	306.970	0	69.3	4	22.1	4	-1E+10	1	-1E+10	1	-1E+10	1	-1E+10	1	-1E+10	1	-1E+10	1
4902551	99	C	05/11/2023	22:53	-131.273	48.009	0	310.80	0	4.5280	0	33.8550	0	26.822	0	307.960	0	69.0	4	22.0	4	-1E+10	1	-1E+10	1	-1E+10	1	-1E+10	1	-1E+10	1	-1E+10	1
4902551	99	C	05/11/2023	22:53	-131.273	48.009	0	311.80	0	4.5220	0	33.8600	0	26.827	0	308.950	0	68.7	4	21.9	4	-1E+10	1	-1E+10	1	-1E+10	1	-1E+10	1	-1E+10	1	-1E+10	1
4902551	99	C	05/11/2023	22:53	-131.273	48.009	0	312.80	0	4.5070	0	33.8590	0	26.828	0	309.940	0	68.5	4	21.8	4	-1E+10	1	-1E+10	1	-1E+10	1	-1E+10	1	-1E+10	1	-1E+10	1
4902551	99	C	05/11/2023	22:53	-131.273	48.009	0	313.80	0	4.4990	0	33.8600	0	26.830	0	310.930	0	68.2	4	21.8	4	-1E+10	1	-1E+10	1	-1E+10	1	-1E+10	1	-1E+10	1	-1E+10	1
4902551	99	C	05/11/2023	22:53	-131.273	48.009	0	314.80	0	4.4970	0	33.8610	0	26.831	0	311.920	0	68.0	4	21.7	4	-1E+10	1	-1E+10	1	-1E+10	1	-1E+10	1	-1E+10	1	-1E+10	1
4902551	99	C	05/11/2023	22:53	-131.273	48.009	0	315.70	0	4.4950	0	33.8620	0	26.832	0	312.812	0	67.7	4	21.6	4	-1E+10	1	-1E+10	1	-1E+10	1	-1E+10	1	-1E+10	1	-1E+10	1
4902551	99	C	05/11/2023	22:53	-131.273	48.009	0	316.80	0	4.4930	0	33.8640	0	26.833	0	313.901	0	67.4	4	21.5	4	-1E+10	1	-1E+10	1	-1E+10	1	-1E+10	1	-1E+10	1	-1E+10	1
4902551	99	C	05/11/2023	22:53	-131.273	48.009	0	318.00	0	4.4830	0	33.8650	0	26.835	0	315.089	0	67.0	4	21.4	4	-1E+10	1	-1E+10	1	-1E+10	1	-1E+10	1	-1E+10	1	-1E+10	1
4902551	99	C	05/11/2023	22:53	-131.273	48.009	0	319.20	0	4.4790	0	33.8650	0	26.836	0	316.277	0	66.7	4	21.3	4	-1E+10	1	-1E+10	1	-1E+10	1	-1E+10	1	-1E+10	1	-1E+10	1
4902551	99	C	05/11/2023	22:53	-131.273	48.009	0	320.00	0	4.4810	0	33.8660	0	26.836	0	317.069	0	66.4	4	21.2	4	-1E+10	1	-1E+10	1	-1E+10	1	-1E+10	1	-1E+10	1	-1E+10	1
4902551	99	C	05/11/2023	22:53	-131.273	48.009	0	320.70	0	4.4800	0	33.8660	0	26.836	0	317.762	0	66.1	4	21.1	4	-1E+10	1	-1E+10	1	-1E+10	1	-1E+10	1	-1E+10	1	-1E+10	1
4902551	99	C	05/11/2023	22:53	-131.273	48.009	0	321.90	0	4.4730	0	33.8680	0	26.839	0	318.950	0	65.8	4	21.0	4	-1E+10	1	-1E+10	1	-1E+10	1	-1E+10	1	-1E+10	1	-1E+10	1
4902551	99	C	05/11/2023	22:53	-131.273	48.009	0	323.10	0	4.4640	0	33.8680	0	26.840	0	320.138	0	65.4	4	20.8	4	-1E+10	1	-1E+10	1	-1E+10	1	-1E+10	1	-1E+10	1	-1E+10	1
4902551	99	C	05/11/2023	22:53	-131.273	48.009	0	323.90	0	4.4650	0	33.8690	0	26.840	0	320.930	0	65.0	4	20.7	4	-1E+10	1	-1E+10	1	-1E+10	1	-1E+10	1	-1E+10	1	-1E+10	1
4902551	99	C	05/11/2023	22:53	-131.273	48.009	0	324.70	0	4.4620	0	33.8700	0	26.842	0	321.722	0	64.7	4	20.6	4	-1E+10	1	-1E+10	1	-1E+10	1	-1E+10	1	-1E+10	1	-1E+10	1
4902551	99	C	05/11/2023	22:53	-131.273	48.009	0	326.00	0	4.4570	0	33.8710	0	26.843	0	323.009	0	64.2	4	20.4	4	-1E+10	1	-1E+10	1	-1E+10	1	-1E+10	1	-1E+10	1	-1E+10	1
4902551	99	C	05/11/2023	22:53	-131.273	48.009	0	327.20	0	4.4530	0	33.8720	0	26.844	0	324.197	0	63.7	4	20.3	4	-1E+10	1	-1E+10	1	-1E+10	1	-1E+10	1	-1E+10	1	-1E+10	1
4902551	99	C	05/11/2023	22:53	-131.273	48.009	0	328.00	0	4.4480	0	33.8750	0	26.847	0	324.989	0	63.3	4	20.2	4	-1E+10	1	-1E+10	1	-1E+10	1	-1E+10	1	-1E+10	1	-1E+10	1
4902551	99	C	05/11/2023	22:53	-131.273	48.009	0	328.90	0	4.4390	0	33.8750	0	26.848	0	325.880	0	63.0	4	20.1	4	-1E+10	1	-1E+10	1	-1E+10	1	-1E+10	1	-1E+10	1	-1E+10	1
4902551	99	C	05/11/2023	22:53	-131.273	48.009	0	329.70	0	4.4300	0	33.8740	0	26.848	0	326.672	0	62.7	4	19.9	4	-1E+10	1	-1E+10	1	-1E+10	1	-1E+10	1	-1E+10	1	-1E+10	1
4902551	99	C	05/11/2023	22:53	-131.273	48.009	0	330.90	0	4.4020	0	33.8800	0	26.856	0	327.860	0	62.3	4	19.8	4	-1E+10	1	-1E+10	1	-1E+10	1	-1E+10	1	-1E+10	1	-1E+10	1
4902551	99	C	05/11/2023	22:53	-131.273	48.009	0	332.20	0	4.3990	0	33.8810	0	26.857	0	329.148	0	61.9	4	19.7	4	-1E+10	1	-1E+10	1	-1E+10	1	-1E+10	1	-1E+10	1	-1E+10	1
4902551	99	C	05/11/2023	22:53	-131.273	48.009	0	333.00	0	4.3980	0	33.8820	0	26.858	0	329.940	0	61.6	4	19.6	4	-1E+10	1	-1E+10	1	-1E+10	1	-1E+10	1	-1E+10	1	-1E+10	1
4902551	99	C	05/11/2023	22:53	-131.273	48.009	0	333.90	0	4.3950	0	33.8840	0	26.860	0	330.831	0	61.3	4	19.5	4	-1E+10	1	-1E+10	1	-1E+10	1	-1E+10	1	-1E+10	1	-1E+10	1
4902551	99	C	05/11/2023	22:53	-131.273	48.009	0	334.70	0	4.3860	0	33.8870	0	26.863	0	331.623	0	61.0	4	19.4	4	-1E+10	1	-1E+10	1	-1E+10	1	-1E+10	1	-1E+10	1	-1E+10	1
4902551	99	C	05/11/2023	22:53	-131.273	48.009	0	336.00	0	4.3840	0	33.8900	0	26.866	0	332.910	0	60.8	4	19.3	4	-1E+10	1	-1E+10	1	-1E+10	1	-1E+10	1	-1E+10	1	-1E+10	1
4902551	99	C	05/11/2023	22:53	-131.273	48.009	0	337.30	0	4.3800	0	33.8940	0	26.869	0	334.197	0	60.5	4	19.2	4	-1E+10	1	-1E+10	1	-1E+10	1	-1E+10	1	-1E+10	1	-1E+10	1
4902551	99	C	05/11/2023	22:53	-131.273	48.009	0	338.20	0	4.3780	0	33.8930	0	26.869	0	335.088	0	60.4	4	19.2	4	-1E+10	1	-1E+10	1	-1E+10	1	-1E+10	1	-1E+10	1	-1E+10	1
4902551	99	C	05/11/2023	22:53	-131.273	48.009	0	339.00	0	4.3780	0	33.8940	0	26.870	0	335.880	0	60.2	4	19.1	4	-1E+10	1	-1E+10	1	-1E+10	1	-1E+10	1	-1E+10	1	-1E+10	1
4902551	99	C	05/11/2023	22:53	-131.273	48.009	0	339.90	0	4.3770	0	33.8930	0	26.869	0	336.770	0	60.0	4	19.1	4	-1E+10	1	-1E+10	1	-1E+10	1	-1E+10	1	-1E+10	1	-1E+10	1
4902551	99	C	05/11/2023	22:53	-131.273	48.009	0	340.80	0	4.3730	0	33.8940	0	26.870	0	337.661	0	59.7	4	19.0	4	-1E+10	1	-1E+10	1	-1E+10	1	-1E+10	1	-1E+10	1	-1E+10	1
4902551	99	C	05/11/2023	22:53	-131.273	48.009	0	341.70	0	4.3670	0	33.8970	0	26.873	0	338.552	0	59.5	4	18.9	4	-1E+10	1	-1E+10	1	-1E+10	1	-1E+10	1	-1E+10	1	-1E+10	1
4902551	99	C	05/11/2023	22:53	-131.273	48.009	0	343.00	0	4.3600	0	33.9000	0	26.876	0	339.839	0	59.3	4	18.8	4	-1E+10	1	-1E+10	1	-1E+10	1	-1E+10	1	-1E+10	1	-1E+10	1
4902551	99	C	05/11/2023	22:53	-131.273	48.009	0	344.30	0	4.3550	0	33.9010	0	26.878	0	341.126	0	59.1	4	18.8	4	-1E+10	1	-1E+10	1	-1E+10	1	-1E+10	1	-1E+10	1	-1E+10	1
4902551	99	C	05/11/2023	22:53	-131.273	48.009	0	345.20	0	4.3530	0	33.9030	0	26.880	0	342.017	0	58.9	4	18.7	4	-1E+10	1	-1E+10	1	-1E+10	1	-1E+10	1	-1E+10	1	-1E+10	1
4902551	99	C	05/11/2023	22:53	-131.273	48.009	0	346.10	0	4.3530	0	33.9030	0	26.880	0	342.908	0	58.8	4	18.7	4	-1E+10	1	-1E+10	1	-1E+10	1	-1E+10	1	-1E+10	1	-1E+10	1
4902551	99	C	05/11/2023	22:53	-131.273	48.009	0	347.00	0	4.3510	0	33.9040	0	26.881	0	343.799	0	58.7	4	18.6	4	-1E+10	1	-1E+10	1	-1E+10	1	-1E+10	1	-1E+10	1	-1E+10	1
4902551	99	C	05/11/2023	22:53	-131.273	48.009	0	347.80	0	4.3510	0	33.9040	0	26.881	0	344.591	0	58.5	4	18.6	4	-1E+10	1	-1E+10	1	-1E+10	1	-1E+10	1	-1E+10	1	-1E+10	1
4902551	99	C	05/11/2023	22:53	-131.273	48.009	0	348.70	0	4.3500	0	33.9050	0	26.881	0	345.482	0	58.4	4	18.5	4	-1E+10	1	-1E+10	1	-1E+10	1	-1E+10	1	-1E+10	1	-1E+10	1
4902551	99	C	05/11/2023	22:53	-131.273	48.009	0	349.70	0	4.3470	0	33.9070	0	26.883	0	346.472	0	58.2	4	18.5	4	-1E+10	1	-1E+10	1	-1E+10	1	-1E+10	1	-1E+10	1	-1E+10	1
4902551	99	C	05/11/2023	22:53	-131.273	48.009	0	352.70	0	4.3420	0	33.9090	0	26.886	0	349.442	0	57.7	4	18.3	4	-1E+10	1	-1E+10	1	-1E+10	1	-1E+10	1	-1E+10	1	-1E+10	1
4902551	99	C	05/11/2023	22:53	-131.273	48.009	0	358.00	0	4.3330	0	33.9130	0	26.890	0	354.688	0	56.6	4	18.0	4	-1E+10	1	-1E+10	1	-1E+10	1	-1E+10	1	-1E+10	1	-1E+10	1
4902551	99	C	05/11/2023	22:53	-131.273	48.009	0	362.90	0	4.3170	0	33.9180	0	26.895	0	359.539	0	55.2	4	17.5	4	-1E+10	1	-1E+10	1	-1E+10	1	-1E+10	1	-1E+10	1	-1E+10	1
4902551	99	C	05/11/2023	22:53	-131.273	48.009	0	367.80	0	4.2990	0	33.9270	0	26.904	0	364.389	0	54.0	4	17.1	4	-1E+10	1	-1E+10	1	-1E+10	1	-1E+10	1	-1E+10	1	-1E+10	1
4902551	99	C	05/11/2023	22:53	-131.273	48.009	0	372.90	0	4.2850	0	33.9360	0	26.913	0	369.437	0	53.2	4	16.9	4	-1E+10	1	-1E+10	1	-1E+10	1	-1E+10	1	-1E+10	1	-1E+10	1
4902551	99	C	05/11/2023	22:53	-131.273	48.009	0	378.00	0	4.2800	0	33.9400	0	26.917	0	374.485	0	52.6	4	16.7	4	-1E+10	1	-1E+10	1	-1E+10	1	-1E+10	1	-1E+10	1	-1E+10	1
4902551	99	C	05/11/2023	22:53	-131.273	48.009	0	383.30	0	4.2770	0	33.9420	0	26.919	0	379.731	0	51.7	4	16.4	4	-1E+10	1	-1E+10	1	-1E+10	1	-1E+10	1	-1E+10	1	-1E+10	1
4902551	99	C	05/11/2023	22:53	-131.273	48.009	0	388.10	0	4.2720	0	33.9460	0	26.923	0	384.482	0	50.6	4	16.0	4	-1E+10	1	-1E+10	1	-1E+10	1	-1E+10	1	-1E+10	1	-1E+10	1
4902551	99	C	05/11/2023	22:53	-131.273	48.009	0	393.10	0	4.2630	0	33.9540	0	26.930	0	389.431	0	49.5	4	15.7	4	-1E+10	1	-1E+10	1	-1E+10	1	-1E+10	1	-1E+10	1	-1E+10	1
4902551	99	C	05/11/2023	22:53	-131.273	48.009	0	398.10	0	4.2570	0	33.9600	0	26.935	0	394.379	0	48.6	4	15.4	4	-1E+10	1	-1E+10	1	-1E+10	1	-1E+10	1	-1E+10	1	-1E+10	1
4902551	99	C	05/11/2023	22:53	-131.273	48.009	0	403.10	0	4.2510	0	33.9650	0	26.940	0	399.328	0	47.7	4	15.1	4	-1E+10	1	-1E+10	1	-1E+10	1	-1E+10	1	-1E+10	1	-1E+10	1
4902551	99	C	05/11/2023	22:53	-131.273	48.009	0	408.10	0	4.2400	0	33.9710	0	26.946	0	404.276	0	46.6	4	14.8	4	-1E+10	1	-1E+10	1	-1E+10	1	-1E+10	1	-1E+10	1	-1E+10	1
4902551	99	C	05/11/2023	22:53	-131.273	48.009	0	413.10	0	4.2230	0	33.9780	0	26.953	0	409.224	0	45.5	4	14.4	4	-1E+10	1	-1E+10	1	-1E+10	1	-1E+10	1	-1E+10	1	-1E+10	1
4902551	99	C	05/11/2023	22:53	-131.273	48.009	0	418.10	0	4.2110	0	33.9870	0	26.962	0	414.172	0	44.6	4	14.1	4	-1E+10	1	-1E+10	1	-1E+10	1	-1E+10	1	-1E+10	1	-1E+10	1
4902551	99	C	05/11/2023	22:53	-131.273	48.009	0	423.20	0	4.2050	0	33.9910	0	26.966	0	419.219	0	43.7	4	13.8	4	-1E+10	1	-1E+10	1	-1E+10	1	-1E+10	1	-1E+10	1	-1E+10	1
4902551	99	C	05/11/2023	22:53	-131.273	48.009	0	427.90	0	4.1980	0	33.9970	0	26.971	0	423.870	0	42.8	4	13.6	4	-1E+10	1	-1E+10	1	-1E+10	1	-1E+10	1	-1E+10	1	-1E+10	1
4902551	99	C	05/11/2023	22:53	-131.273	48.009	0	432.60	0	4.1880	0	34.0030	0	26.977	0	428.521	0	42.0	4	13.3	4	-1E+10	1	-1E+10	1	-1E+10	1	-1E+10	1	-1E+10	1	-1E+10	1
4902551	99	C	05/11/2023	22:53	-131.273	48.009	0	437.80	0	4.1800	0	34.0080	0	26.982	0	433.667	0	41.2	4	13.1	4	-1E+10	1	-1E+10	1	-1E+10	1	-1E+10	1	-1E+10	1	-1E+10	1
4902551	99	C	05/11/2023	22:53	-131.273	48.009	0	443.00	0	4.1720	0	34.0130	0	26.987	0	438.812	0	40.3	4	12.7	4	-1E+10	1	-1E+10	1	-1E+10	1	-1E+10	1	-1E+10	1	-1E+10	1
4902551	99	C	05/11/2023	22:53	-131.273	48.009	0	448.20	0	4.1620	0	34.0230	0	26.996	0	443.958	0	39.5	4	12.5	4	-1E+10	1	-1E+10	1	-1E+10	1	-1E+10	1	-1E+10	1	-1E+10	1
4902551	99	C	05/11/2023	22:53	-131.273	48.009	0	453.00	0	4.1640	0	34.0270	0	26.999	0	448.707	0	38.9	4	12.3	4	-1E+10	1	-1E+10	1	-1E+10	1	-1E+10	1	-1E+10	1	-1E+10	1
4902551	99	C	05/11/2023	22:53	-131.273	48.009	0	457.90	0	4.1750	0	34.0320	0	27.002	0	453.555	0	38.2	4	12.1	4	-1E+10	1	-1E+10	1	-1E+10	1	-1E+10	1	-1E+10	1	-1E+10	1
4902551	99	C	05/11/2023	22:53	-131.273	48.009	0	463.00	0	4.1890	0	34.0370	0	27.004	0	458.601	0	37.3	4	11.8	4	-1E+10	1	-1E+10	1	-1E+10	1	-1E+10	1	-1E+10	1	-1E+10	1
4902551	99	C	05/11/2023	22:53	-131.273	48.009	0	468.10	0	4.2120	0	34.0470	0	27.010	0	463.647	0	36.3	4	11.5	4	-1E+10	1	-1E+10	1	-1E+10	1	-1E+10	1	-1E+10	1	-1E+10	1
4902551	99	C	05/11/2023	22:53	-131.273	48.009	0	473.30	0	4.2230	0	34.0520	0	27.013	0	468.792	0	35.6	4	11.3	4	-1E+10	1	-1E+10	1	-1E+10	1	-1E+10	1	-1E+10	1	-1E+10	1
4902551	99	C	05/11/2023	22:53	-131.273	48.009	0	478.00	0	4.2330	0	34.0590	0	27.017	0	473.441	0	35.1	4	11.1	4	-1E+10	1	-1E+10	1	-1E+10	1	-1E+10	1	-1E+10	1	-1E+10	1
4902551	99	C	05/11/2023	22:53	-131.273	48.009	0	482.70	0	4.2050	0	34.0620	0	27.023	0	478.091	0	34.9	4	11.1	4	-1E+10	1	-1E+10	1	-1E+10	1	-1E+10	1	-1E+10	1	-1E+10	1
4902551	99	C	05/11/2023	22:53	-131.273	48.009	0	488.00	0	4.1690	0	34.0630	0	27.027	0	483.334	0	34.5	4	10.9	4	-1E+10	1	-1E+10	1	-1E+10	1	-1E+10	1	-1E+10	1	-1E+10	1
4902551	99	C	05/11/2023	22:53	-131.273	48.009	0	493.00	0	4.1500	0	34.0660	0	27.031	0	488.281	0	34.0	4	10.7	4	-1E+10	1	-1E+10	1	-1E+10	1	-1E+10	1	-1E+10	1	-1E+10	1
4902551	99	C	05/11/2023	22:53	-131.273	48.009	0	498.00	0	4.1390	0	34.0700	0	27.036	0	493.227	0	33.5	4	10.6	4	-1E+10	1	-1E+10	1	-1E+10	1	-1E+10	1	-1E+10	1	-1E+10	1
4902551	99	C	05/11/2023	22:53	-131.273	48.009	0	503.00	0	4.1350	0	34.0730	0	27.039	0	498.173	0	32.9	4	10.4	4	-1E+10	1	-1E+10	1	-1E+10	1	-1E+10	1	-1E+10	1	-1E+10	1
4902551	99	C	05/11/2023	22:53	-131.273	48.009	0	508.10	0	4.1360	0	34.0770	0	27.042	0	503.218	0	32.3	4	10.2	4	-1E+10	1	-1E+10	1	-1E+10	1	-1E+10	1	-1E+10	1	-1E+10	1
4902551	99	C	05/11/2023	22:53	-131.273	48.009	0	513.10	0	4.1360	0	34.0800	0	27.044	0	508.164	0	31.9	4	10.1	4	-1E+10	1	-1E+10	1	-1E+10	1	-1E+10	1	-1E+10	1	-1E+10	1
4902551	99	C	05/11/2023	22:53	-131.273	48.009	0	517.70	0	4.1250	0	34.0830	0	27.048	0	512.714	0	31.6	4	10.0	4	-1E+10	1	-1E+10	1	-1E+10	1	-1E+10	1	-1E+10	1	-1E+10	1
4902551	99	C	05/11/2023	22:53	-131.273	48.009	0	522.70	0	4.1120	0	34.0870	0	27.052	0	517.660	0	31.3	4	9.9	4	-1E+10	1	-1E+10	1	-1E+10	1	-1E+10	1	-1E+10	1	-1E+10	1
4902551	99	C	05/11/2023	22:53	-131.273	48.009	0	527.80	0	4.1030	0	34.0890	0	27.055	0	522.704	0	31.1	4	9.8	4	-1E+10	1	-1E+10	1	-1E+10	1	-1E+10	1	-1E+10	1	-1E+10	1
4902551	99	C	05/11/2023	22:53	-131.273	48.009	0	532.70	0	4.0880	0	34.0910	0	27.058	0	527.550	0	30.8	4	9.7	4	-1E+10	1	-1E+10	1	-1E+10	1	-1E+10	1	-1E+10	1	-1E+10	1
4902551	99	C	05/11/2023	22:53	-131.273	48.009	0	538.10	0	4.0810	0	34.0930	0	27.060	0	532.891	0	30.4	4	9.6	4	-1E+10	1	-1E+10	1	-1E+10	1	-1E+10	1	-1E+10	1	-1E+10	1
4902551	99	C	05/11/2023	22:53	-131.273	48.009	0	543.00	0	4.0790	0	34.0940	0	27.061	0	537.738	0	29.7	4	9.4	4	-1E+10	1	-1E+10	1	-1E+10	1	-1E+10	1	-1E+10	1	-1E+10	1
4902551	99	C	05/11/2023	22:53	-131.273	48.009	0	547.90	0	4.0670	0	34.1000	0	27.067	0	542.584	0	29.1	4	9.2	4	-1E+10	1	-1E+10	1	-1E+10	1	-1E+10	1	-1E+10	1	-1E+10	1
4902551	99	C	05/11/2023	22:53	-131.273	48.009	0	553.10	0	4.0590	0	34.1040	0	27.072	0	547.726	0	28.3	4	9.0	4	-1E+10	1	-1E+10	1	-1E+10	1	-1E+10	1	-1E+10	1	-1E+10	1
4902551	99	C	05/11/2023	22:53	-131.273	48.009	0	558.00	0	4.0470	0	34.1100	0	27.078	0	552.572	0	27.5	4	8.7	4	-1E+10	1	-1E+10	1	-1E+10	1	-1E+10	1	-1E+10	1	-1E+10	1
4902551	99	C	05/11/2023	22:53	-131.273	48.009	0	562.80	0	4.0270	0	34.1180	0	27.086	0	557.319	0	26.8	4	8.5	4	-1E+10	1	-1E+10	1	-1E+10	1	-1E+10	1	-1E+10	1	-1E+10	1
4902551	99	C	05/11/2023	22:53	-131.273	48.009	0	568.00	0	4.0100	0	34.1240	0	27.093	0	562.461	0	26.3	4	8.3	4	-1E+10	1	-1E+10	1	-1E+10	1	-1E+10	1	-1E+10	1	-1E+10	1
4902551	99	C	05/11/2023	22:53	-131.273	48.009	0	572.90	0	3.9910	0	34.1290	0	27.099	0	567.307	0	25.9	4	8.2	4	-1E+10	1	-1E+10	1	-1E+10	1	-1E+10	1	-1E+10	1	-1E+10	1
4902551	99	C	05/11/2023	22:53	-131.273	48.009	0	577.80	0	3.9810	0	34.1320	0	27.102	0	572.152	0	25.4	4	8.0	4	-1E+10	1	-1E+10	1	-1E+10	1	-1E+10	1	-1E+10	1	-1E+10	1
4902551	99	C	05/11/2023	22:53	-131.273	48.009	0	582.90	0	3.9670	0	34.1370	0	27.107	0	577.196	0	24.9	4	7.9	4	-1E+10	1	-1E+10	1	-1E+10	1	-1E+10	1	-1E+10	1	-1E+10	1
4902551	99	C	05/11/2023	22:53	-131.273	48.009	0	587.90	0	3.9610	0	34.1380	0	27.109	0	582.140	0	24.4	4	7.7	4	-1E+10	1	-1E+10	1	-1E+10	1	-1E+10	1	-1E+10	1	-1E+10	1
4902551	99	C	05/11/2023	22:53	-131.273	48.009	0	593.00	0	3.9450	0	34.1430	0	27.114	0	587.182	0	23.8	4	7.5	4	-1E+10	1	-1E+10	1	-1E+10	1	-1E+10	1	-1E+10	1	-1E+10	1
4902551	99	C	05/11/2023	22:53	-131.273	48.009	0	597.70	0	3.9330	0	34.1480	0	27.120	0	591.830	0	23.3	4	7.3	4	-1E+10	1	-1E+10	1	-1E+10	1	-1E+10	1	-1E+10	1	-1E+10	1
4902551	99	C	05/11/2023	22:53	-131.273	48.009	0	602.90	0	3.9170	0	34.1530	0	27.125	0	596.971	0	22.7	4	7.1	4	-1E+10	1	-1E+10	1	-1E+10	1	-1E+10	1	-1E+10	1	-1E+10	1
4902551	99	C	05/11/2023	22:53	-131.273	48.009	0	608.20	0	3.9010	0	34.1580	0	27.131	0	602.211	0	22.1	4	7.0	4	-1E+10	1	-1E+10	1	-1E+10	1	-1E+10	1	-1E+10	1	-1E+10	1
4902551	99	C	05/11/2023	22:53	-131.273	48.009	0	613.20	0	3.8850	0	34.1640	0	27.137	0	607.155	0	21.6	4	6.8	4	-1E+10	1	-1E+10	1	-1E+10	1	-1E+10	1	-1E+10	1	-1E+10	1
4902551	99	C	05/11/2023	22:53	-131.273	48.009	0	618.10	0	3.8810	0	34.1660	0	27.139	0	611.999	0	21.3	4	6.7	4	-1E+10	1	-1E+10	1	-1E+10	1	-1E+10	1	-1E+10	1	-1E+10	1
4902551	99	C	05/11/2023	22:53	-131.273	48.009	0	623.10	0	3.8790	0	34.1680	0	27.141	0	616.943	0	20.8	4	6.5	4	-1E+10	1	-1E+10	1	-1E+10	1	-1E+10	1	-1E+10	1	-1E+10	1
4902551	99	C	05/11/2023	22:53	-131.273	48.009	0	627.80	0	3.8680	0	34.1710	0	27.145	0	621.589	0	20.1	4	6.3	4	-1E+10	1	-1E+10	1	-1E+10	1	-1E+10	1	-1E+10	1	-1E+10	1
4902551	99	C	05/11/2023	22:53	-131.273	48.009	0	632.90	0	3.8540	0	34.1800	0	27.153	0	626.631	0	19.5	4	6.1	4	-1E+10	1	-1E+10	1	-1E+10	1	-1E+10	1	-1E+10	1	-1E+10	1
4902551	99	C	05/11/2023	22:53	-131.273	48.009	0	638.20	0	3.8390	0	34.1830	0	27.157	0	631.870	0	19.0	4	6.0	4	-1E+10	1	-1E+10	1	-1E+10	1	-1E+10	1	-1E+10	1	-1E+10	1
4902551	99	C	05/11/2023	22:53	-131.273	48.009	0	642.80	0	3.8210	0	34.1880	0	27.163	0	636.418	0	18.3	4	5.8	4	-1E+10	1	-1E+10	1	-1E+10	1	-1E+10	1	-1E+10	1	-1E+10	1
4902551	99	C	05/11/2023	22:53	-131.273	48.009	0	647.60	0	3.8180	0	34.1950	0	27.169	0	641.163	0	17.8	4	5.6	4	-1E+10	1	-1E+10	1	-1E+10	1	-1E+10	1	-1E+10	1	-1E+10	1
4902551	99	C	05/11/2023	22:53	-131.273	48.009	0	652.90	0	3.8260	0	34.1990	0	27.171	0	646.402	0	17.3	4	5.5	4	-1E+10	1	-1E+10	1	-1E+10	1	-1E+10	1	-1E+10	1	-1E+10	1
4902551	99	C	05/11/2023	22:53	-131.273	48.009	0	657.90	0	3.8310	0	34.2010	0	27.173	0	651.344	0	17.0	4	5.3	4	-1E+10	1	-1E+10	1	-1E+10	1	-1E+10	1	-1E+10	1	-1E+10	1
4902551	99	C	05/11/2023	22:53	-131.273	48.009	0	663.00	0	3.8360	0	34.2030	0	27.174	0	656.385	0	16.6	4	5.2	4	-1E+10	1	-1E+10	1	-1E+10	1	-1E+10	1	-1E+10	1	-1E+10	1
4902551	99	C	05/11/2023	22:53	-131.273	48.009	0	668.00	0	3.8400	0	34.2070	0	27.177	0	661.328	0	16.4	4	5.1	4	-1E+10	1	-1E+10	1	-1E+10	1	-1E+10	1	-1E+10	1	-1E+10	1
4902551	99	C	05/11/2023	22:53	-131.273	48.009	0	673.00	0	3.8340	0	34.2120	0	27.181	0	666.270	0	16.4	4	5.1	4	-1E+10	1	-1E+10	1	-1E+10	1	-1E+10	1	-1E+10	1	-1E+10	1
4902551	99	C	05/11/2023	22:53	-131.273	48.009	0	678.00	0	3.8040	0	34.2130	0	27.185	0	671.212	0	16.5	4	5.2	4	-1E+10	1	-1E+10	1	-1E+10	1	-1E+10	1	-1E+10	1	-1E+10	1
4902551	99	C	05/11/2023	22:53	-131.273	48.009	0	683.00	0	3.7850	0	34.2130	0	27.187	0	676.153	0	16.3	4	5.1	4	-1E+10	1	-1E+10	1	-1E+10	1	-1E+10	1	-1E+10	1	-1E+10	1
4902551	99	C	05/11/2023	22:53	-131.273	48.009	0	687.90	0	3.7670	0	34.2170	0	27.192	0	680.996	0	16.1	4	5.0	4	-1E+10	1	-1E+10	1	-1E+10	1	-1E+10	1	-1E+10	1	-1E+10	1
4902551	99	C	05/11/2023	22:53	-131.273	48.009	0	692.90	0	3.7570	0	34.2200	0	27.195	0	685.938	0	15.8	4	5.0	4	-1E+10	1	-1E+10	1	-1E+10	1	-1E+10	1	-1E+10	1	-1E+10	1
4902551	99	C	05/11/2023	22:53	-131.273	48.009	0	697.90	0	3.7460	0	34.2230	0	27.199	0	690.879	0	15.5	4	4.9	4	-1E+10	1	-1E+10	1	-1E+10	1	-1E+10	1	-1E+10	1	-1E+10	1
4902551	99	C	05/11/2023	22:53	-131.273	48.009	0	703.00	0	3.7330	0	34.2270	0	27.203	0	695.920	0	15.1	4	4.7	4	-1E+10	1	-1E+10	1	-1E+10	1	-1E+10	1	-1E+10	1	-1E+10	1
4902551	99	C	05/11/2023	22:53	-131.273	48.009	0	708.00	0	3.7280	0	34.2290	0	27.205	0	700.861	0	14.7	4	4.6	4	-1E+10	1	-1E+10	1	-1E+10	1	-1E+10	1	-1E+10	1	-1E+10	1
4902551	99	C	05/11/2023	22:53	-131.273	48.009	0	712.70	0	3.7220	0	34.2370	0	27.212	0	705.505	0	14.2	4	4.5	4	-1E+10	1	-1E+10	1	-1E+10	1	-1E+10	1	-1E+10	1	-1E+10	1
4902551	99	C	05/11/2023	22:53	-131.273	48.009	0	717.50	0	3.7170	0	34.2420	0	27.217	0	710.249	0	14.1	4	4.4	4	-1E+10	1	-1E+10	1	-1E+10	1	-1E+10	1	-1E+10	1	-1E+10	1
4902551	99	C	05/11/2023	22:53	-131.273	48.009	0	722.80	0	3.7140	0	34.2430	0	27.218	0	715.486	0	13.9	4	4.3	4	-1E+10	1	-1E+10	1	-1E+10	1	-1E+10	1	-1E+10	1	-1E+10	1
4902551	99	C	05/11/2023	22:53	-131.273	48.009	0	728.10	0	3.7090	0	34.2460	0	27.221	0	720.723	0	13.6	4	4.3	4	-1E+10	1	-1E+10	1	-1E+10	1	-1E+10	1	-1E+10	1	-1E+10	1
4902551	99	C	05/11/2023	22:53	-131.273	48.009	0	733.00	0	3.7080	0	34.2510	0	27.225	0	725.565	0	13.4	4	4.2	4	-1E+10	1	-1E+10	1	-1E+10	1	-1E+10	1	-1E+10	1	-1E+10	1
4902551	99	C	05/11/2023	22:53	-131.273	48.009	0	737.90	0	3.7010	0	34.2530	0	27.227	0	730.407	0	13.4	4	4.2	4	-1E+10	1	-1E+10	1	-1E+10	1	-1E+10	1	-1E+10	1	-1E+10	1
4902551	99	C	05/11/2023	22:53	-131.273	48.009	0	742.80	0	3.6990	0	34.2530	0	27.228	0	735.249	0	13.3	4	4.2	4	-1E+10	1	-1E+10	1	-1E+10	1	-1E+10	1	-1E+10	1	-1E+10	1
4902551	99	C	05/11/2023	22:53	-131.273	48.009	0	747.70	0	3.6880	0	34.2550	0	27.230	0	740.090	0	13.3	4	4.2	4	-1E+10	1	-1E+10	1	-1E+10	1	-1E+10	1	-1E+10	1	-1E+10	1
4902551	99	C	05/11/2023	22:53	-131.273	48.009	0	752.70	0	3.6780	0	34.2570	0	27.233	0	745.030	0	13.3	4	4.2	4	-1E+10	1	-1E+10	1	-1E+10	1	-1E+10	1	-1E+10	1	-1E+10	1
4902551	99	C	05/11/2023	22:53	-131.273	48.009	0	757.80	0	3.6540	0	34.2600	0	27.238	0	750.069	0	13.2	4	4.1	4	-1E+10	1	-1E+10	1	-1E+10	1	-1E+10	1	-1E+10	1	-1E+10	1
4902551	99	C	05/11/2023	22:53	-131.273	48.009	0	762.70	0	3.6430	0	34.2620	0	27.240	0	754.910	0	13.1	4	4.1	4	-1E+10	1	-1E+10	1	-1E+10	1	-1E+10	1	-1E+10	1	-1E+10	1
4902551	99	C	05/11/2023	22:53	-131.273	48.009	0	767.60	0	3.6280	0	34.2650	0	27.244	0	759.751	0	13.0	4	4.1	4	-1E+10	1	-1E+10	1	-1E+10	1	-1E+10	1	-1E+10	1	-1E+10	1
4902551	99	C	05/11/2023	22:53	-131.273	48.009	0	772.60	0	3.6120	0	34.2670	0	27.248	0	764.691	0	12.9	4	4.0	4	-1E+10	1	-1E+10	1	-1E+10	1	-1E+10	1	-1E+10	1	-1E+10	1
4902551	99	C	05/11/2023	22:53	-131.273	48.009	0	777.50	0	3.5970	0	34.2730	0	27.254	0	769.532	0	12.7	4	4.0	4	-1E+10	1	-1E+10	1	-1E+10	1	-1E+10	1	-1E+10	1	-1E+10	1
4902551	99	C	05/11/2023	22:53	-131.273	48.009	0	782.50	0	3.5940	0	34.2740	0	27.255	0	774.471	0	12.6	4	3.9	4	-1E+10	1	-1E+10	1	-1E+10	1	-1E+10	1	-1E+10	1	-1E+10	1
4902551	99	C	05/11/2023	22:53	-131.273	48.009	0	787.60	0	3.5830	0	34.2780	0	27.259	0	779.510	0	12.5	4	3.9	4	-1E+10	1	-1E+10	1	-1E+10	1	-1E+10	1	-1E+10	1	-1E+10	1
4902551	99	C	05/11/2023	22:53	-131.273	48.009	0	792.60	0	3.5760	0	34.2810	0	27.262	0	784.449	0	12.4	4	3.9	4	-1E+10	1	-1E+10	1	-1E+10	1	-1E+10	1	-1E+10	1	-1E+10	1
4902551	99	C	05/11/2023	22:53	-131.273	48.009	0	797.70	0	3.5680	0	34.2830	0	27.265	0	789.487	0	12.4	4	3.9	4	-1E+10	1	-1E+10	1	-1E+10	1	-1E+10	1	-1E+10	1	-1E+10	1
4902551	99	C	05/11/2023	22:53	-131.273	48.009	0	802.90	0	3.5580	0	34.2850	0	27.267	0	794.623	0	12.4	4	3.9	4	-1E+10	1	-1E+10	1	-1E+10	1	-1E+10	1	-1E+10	1	-1E+10	1
4902551	99	C	05/11/2023	22:53	-131.273	48.009	0	808.10	0	3.5500	0	34.2870	0	27.270	0	799.760	0	12.6	4	3.9	4	-1E+10	1	-1E+10	1	-1E+10	1	-1E+10	1	-1E+10	1	-1E+10	1
4902551	99	C	05/11/2023	22:53	-131.273	48.009	0	812.90	0	3.5380	0	34.2900	0	27.273	0	804.501	0	12.9	4	4.0	4	-1E+10	1	-1E+10	1	-1E+10	1	-1E+10	1	-1E+10	1	-1E+10	1
4902551	99	C	05/11/2023	22:53	-131.273	48.009	0	817.70	0	3.4970	0	34.2880	0	27.276	0	809.242	0	13.2	4	4.1	4	-1E+10	1	-1E+10	1	-1E+10	1	-1E+10	1	-1E+10	1	-1E+10	1
4902551	99	C	05/11/2023	22:53	-131.273	48.009	0	822.90	0	3.4720	0	34.2860	0	27.276	0	814.378	0	13.3	4	4.1	4	-1E+10	1	-1E+10	1	-1E+10	1	-1E+10	1	-1E+10	1	-1E+10	1
4902551	99	C	05/11/2023	22:53	-131.273	48.009	0	828.10	0	3.4590	0	34.2850	0	27.277	0	819.514	0	13.3	4	4.1	4	-1E+10	1	-1E+10	1	-1E+10	1	-1E+10	1	-1E+10	1	-1E+10	1
4902551	99	C	05/11/2023	22:53	-131.273	48.009	0	833.10	0	3.4490	0	34.2860	0	27.279	0	824.452	0	13.3	4	4.1	4	-1E+10	1	-1E+10	1	-1E+10	1	-1E+10	1	-1E+10	1	-1E+10	1
4902551	99	C	05/11/2023	22:53	-131.273	48.009	0	838.20	0	3.4310	0	34.2880	0	27.282	0	829.489	0	13.2	4	4.1	4	-1E+10	1	-1E+10	1	-1E+10	1	-1E+10	1	-1E+10	1	-1E+10	1
4902551	99	C	05/11/2023	22:53	-131.273	48.009	0	842.90	0	3.4260	0	34.2910	0	27.285	0	834.131	0	13.1	4	4.1	4	-1E+10	1	-1E+10	1	-1E+10	1	-1E+10	1	-1E+10	1	-1E+10	1
4902551	99	C	05/11/2023	22:53	-131.273	48.009	0	847.50	0	3.4230	0	34.2910	0	27.285	0	838.674	0	13.0	4	4.1	4	-1E+10	1	-1E+10	1	-1E+10	1	-1E+10	1	-1E+10	1	-1E+10	1
4902551	99	C	05/11/2023	22:53	-131.273	48.009	0	852.80	0	3.4140	0	34.2940	0	27.289	0	843.908	0	12.9	4	4.0	4	-1E+10	1	-1E+10	1	-1E+10	1	-1E+10	1	-1E+10	1	-1E+10	1
4902551	99	C	05/11/2023	22:53	-131.273	48.009	0	858.00	0	3.4000	0	34.2970	0	27.292	0	849.043	0	12.8	4	4.0	4	-1E+10	1	-1E+10	1	-1E+10	1	-1E+10	1	-1E+10	1	-1E+10	1
4902551	99	C	05/11/2023	22:53	-131.273	48.009	0	862.80	0	3.3880	0	34.3000	0	27.296	0	853.783	0	12.7	4	4.0	4	-1E+10	1	-1E+10	1	-1E+10	1	-1E+10	1	-1E+10	1	-1E+10	1
4902551	99	C	05/11/2023	22:53	-131.273	48.009	0	867.70	0	3.3790	0	34.3030	0	27.299	0	858.622	0	12.7	4	3.9	4	-1E+10	1	-1E+10	1	-1E+10	1	-1E+10	1	-1E+10	1	-1E+10	1
4902551	99	C	05/11/2023	22:53	-131.273	48.009	0	872.70	0	3.3720	0	34.3040	0	27.301	0	863.560	0	12.7	4	3.9	4	-1E+10	1	-1E+10	1	-1E+10	1	-1E+10	1	-1E+10	1	-1E+10	1
4902551	99	C	05/11/2023	22:53	-131.273	48.009	0	877.80	0	3.3670	0	34.3050	0	27.302	0	868.596	0	12.6	4	3.9	4	-1E+10	1	-1E+10	1	-1E+10	1	-1E+10	1	-1E+10	1	-1E+10	1
4902551	99	C	05/11/2023	22:53	-131.273	48.009	0	883.00	0	3.3610	0	34.3060	0	27.303	0	873.730	0	12.6	4	3.9	4	-1E+10	1	-1E+10	1	-1E+10	1	-1E+10	1	-1E+10	1	-1E+10	1
4902551	99	C	05/11/2023	22:53	-131.273	48.009	0	887.80	0	3.3540	0	34.3080	0	27.306	0	878.470	0	12.5	4	3.9	4	-1E+10	1	-1E+10	1	-1E+10	1	-1E+10	1	-1E+10	1	-1E+10	1
4902551	99	C	05/11/2023	22:53	-131.273	48.009	0	892.70	0	3.3470	0	34.3090	0	27.307	0	883.308	0	12.5	4	3.9	4	-1E+10	1	-1E+10	1	-1E+10	1	-1E+10	1	-1E+10	1	-1E+10	1
4902551	99	C	05/11/2023	22:53	-131.273	48.009	0	898.10	0	3.3380	0	34.3110	0	27.310	0	888.640	0	12.4	4	3.8	4	-1E+10	1	-1E+10	1	-1E+10	1	-1E+10	1	-1E+10	1	-1E+10	1
4902551	99	C	05/11/2023	22:53	-131.273	48.009	0	903.00	0	3.3250	0	34.3140	0	27.313	0	893.478	0	12.3	4	3.8	4	-1E+10	1	-1E+10	1	-1E+10	1	-1E+10	1	-1E+10	1	-1E+10	1
4902551	99	C	05/11/2023	22:53	-131.273	48.009	0	908.00	0	3.3180	0	34.3160	0	27.316	0	898.414	0	12.2	4	3.8	4	-1E+10	1	-1E+10	1	-1E+10	1	-1E+10	1	-1E+10	1	-1E+10	1
4902551	99	C	05/11/2023	22:53	-131.273	48.009	0	913.10	0	3.3130	0	34.3180	0	27.318	0	903.449	0	12.1	4	3.8	4	-1E+10	1	-1E+10	1	-1E+10	1	-1E+10	1	-1E+10	1	-1E+10	1
4902551	99	C	05/11/2023	22:53	-131.273	48.009	0	917.80	0	3.3090	0	34.3200	0	27.320	0	908.089	0	12.1	4	3.8	4	-1E+10	1	-1E+10	1	-1E+10	1	-1E+10	1	-1E+10	1	-1E+10	1
4902551	99	C	05/11/2023	22:53	-131.273	48.009	0	922.50	0	3.2960	0	34.3230	0	27.323	0	912.729	0	12.0	4	3.7	4	-1E+10	1	-1E+10	1	-1E+10	1	-1E+10	1	-1E+10	1	-1E+10	1
4902551	99	C	05/11/2023	22:53	-131.273	48.009	0	927.90	0	3.2780	0	34.3260	0	27.327	0	918.060	0	12.0	4	3.7	4	-1E+10	1	-1E+10	1	-1E+10	1	-1E+10	1	-1E+10	1	-1E+10	1
4902551	99	C	05/11/2023	22:53	-131.273	48.009	0	933.20	0	3.2670	0	34.3290	0	27.331	0	923.293	0	11.9	4	3.7	4	-1E+10	1	-1E+10	1	-1E+10	1	-1E+10	1	-1E+10	1	-1E+10	1
4902551	99	C	05/11/2023	22:53	-131.273	48.009	0	938.10	0	3.2540	0	34.3320	0	27.334	0	928.130	0	11.9	4	3.7	4	-1E+10	1	-1E+10	1	-1E+10	1	-1E+10	1	-1E+10	1	-1E+10	1
4902551	99	C	05/11/2023	22:53	-131.273	48.009	0	943.10	0	3.2470	0	34.3350	0	27.338	0	933.065	0	11.8	4	3.7	4	-1E+10	1	-1E+10	1	-1E+10	1	-1E+10	1	-1E+10	1	-1E+10	1
4902551	99	C	05/11/2023	22:53	-131.273	48.009	0	948.10	0	3.2310	0	34.3380	0	27.341	0	938.001	0	11.8	4	3.7	4	-1E+10	1	-1E+10	1	-1E+10	1	-1E+10	1	-1E+10	1	-1E+10	1
4902551	99	C	05/11/2023	22:53	-131.273	48.009	0	953.10	0	3.2170	0	34.3410	0	27.345	0	942.936	0	11.8	4	3.7	4	-1E+10	1	-1E+10	1	-1E+10	1	-1E+10	1	-1E+10	1	-1E+10	1
4902551	99	C	05/11/2023	22:53	-131.273	48.009	0	958.30	0	3.2080	0	34.3430	0	27.348	0	948.069	0	11.8	4	3.6	4	-1E+10	1	-1E+10	1	-1E+10	1	-1E+10	1	-1E+10	1	-1E+10	1
4902551	99	C	05/11/2023	22:53	-131.273	48.009	0	963.00	0	3.2010	0	34.3450	0	27.350	0	952.708	0	11.7	4	3.6	4	-1E+10	1	-1E+10	1	-1E+10	1	-1E+10	1	-1E+10	1	-1E+10	1
4902551	99	C	05/11/2023	22:53	-131.273	48.009	0	967.70	0	3.1930	0	34.3470	0	27.352	0	957.347	0	11.7	4	3.6	4	-1E+10	1	-1E+10	1	-1E+10	1	-1E+10	1	-1E+10	1	-1E+10	1
4902551	99	C	05/11/2023	22:53	-131.273	48.009	0	973.00	0	3.1820	0	34.3490	0	27.355	0	962.579	0	11.7	4	3.6	4	-1E+10	1	-1E+10	1	-1E+10	1	-1E+10	1	-1E+10	1	-1E+10	1
4902551	99	C	05/11/2023	22:53	-131.273	48.009	0	977.80	0	3.1750	0	34.3510	0	27.357	0	967.316	0	11.7	4	3.6	4	-1E+10	1	-1E+10	1	-1E+10	1	-1E+10	1	-1E+10	1	-1E+10	1
4902551	99	C	05/11/2023	22:53	-131.273	48.009	0	982.70	0	3.1680	0	34.3530	0	27.359	0	972.152	0	11.7	4	3.6	4	-1E+10	1	-1E+10	1	-1E+10	1	-1E+10	1	-1E+10	1	-1E+10	1
4902551	99	C	05/11/2023	22:53	-131.273	48.009	0	988.10	0	3.1610	0	34.3550	0	27.362	0	977.482	0	11.6	4	3.6	4	-1E+10	1	-1E+10	1	-1E+10	1	-1E+10	1	-1E+10	1	-1E+10	1
4902551	99	C	05/11/2023	22:53	-131.273	48.009	0	993.00	0	3.1560	0	34.3560	0	27.363	0	982.317	0	11.6	4	3.6	4	-1E+10	1	-1E+10	1	-1E+10	1	-1E+10	1	-1E+10	1	-1E+10	1
4902551	99	C	05/11/2023	22:53	-131.273	48.009	0	998.10	0	3.1480	0	34.3580	0	27.365	0	987.351	0	11.6	4	3.6	4	-1E+10	1	-1E+10	1	-1E+10	1	-1E+10	1	-1E+10	1	-1E+10	1
4902551	99	C	05/11/2023	22:53	-131.273	48.009	0	1005.90	0	3.1380	0	34.3600	0	27.368	0	995.048	0	11.6	4	3.6	4	-1E+10	1	-1E+10	1	-1E+10	1	-1E+10	1	-1E+10	1	-1E+10	1
4902551	99	C	05/11/2023	22:53	-131.273	48.009	0	1015.90	0	3.1190	0	34.3650	0	27.374	0	1004.916	0	11.6	4	3.6	4	-1E+10	1	-1E+10	1	-1E+10	1	-1E+10	1	-1E+10	1	-1E+10	1
4902551	99	C	05/11/2023	22:53	-131.273	48.009	0	1025.70	0	3.1010	0	34.3690	0	27.379	0	1014.587	0	11.7	4	3.6	4	-1E+10	1	-1E+10	1	-1E+10	1	-1E+10	1	-1E+10	1	-1E+10	1
4902551	99	C	05/11/2023	22:53	-131.273	48.009	0	1035.50	0	3.0800	0	34.3730	0	27.384	0	1024.256	0	11.7	4	3.6	4	-1E+10	1	-1E+10	1	-1E+10	1	-1E+10	1	-1E+10	1	-1E+10	1
4902551	99	C	05/11/2023	22:53	-131.273	48.009	0	1045.30	0	3.0680	0	34.3750	0	27.387	0	1033.926	0	11.7	4	3.6	4	-1E+10	1	-1E+10	1	-1E+10	1	-1E+10	1	-1E+10	1	-1E+10	1
4902551	99	C	05/11/2023	22:53	-131.273	48.009	0	1055.10	0	3.0530	0	34.3780	0	27.390	0	1043.595	0	11.8	4	3.6	4	-1E+10	1	-1E+10	1	-1E+10	1	-1E+10	1	-1E+10	1	-1E+10	1
4902551	99	C	05/11/2023	22:53	-131.273	48.009	0	1064.90	0	3.0450	0	34.3790	0	27.392	0	1053.263	0	11.8	4	3.6	4	-1E+10	1	-1E+10	1	-1E+10	1	-1E+10	1	-1E+10	1	-1E+10	1
4902551	99	C	05/11/2023	22:53	-131.273	48.009	0	1075.40	0	3.0270	0	34.3840	0	27.398	0	1063.622	0	11.9	4	3.7	4	-1E+10	1	-1E+10	1	-1E+10	1	-1E+10	1	-1E+10	1	-1E+10	1
4902551	99	C	05/11/2023	22:53	-131.273	48.009	0	1085.70	0	3.0080	0	34.3880	0	27.403	0	1073.783	0	11.9	4	3.7	4	-1E+10	1	-1E+10	1	-1E+10	1	-1E+10	1	-1E+10	1	-1E+10	1
4902551	99	C	05/11/2023	22:53	-131.273	48.009	0	1095.50	0	2.9890	0	34.3910	0	27.407	0	1083.450	0	12.0	4	3.7	4	-1E+10	1	-1E+10	1	-1E+10	1	-1E+10	1	-1E+10	1	-1E+10	1
4902551	99	C	05/11/2023	22:53	-131.273	48.009	0	1105.20	0	2.9630	0	34.3960	0	27.413	0	1093.018	0	12.1	4	3.7	4	-1E+10	1	-1E+10	1	-1E+10	1	-1E+10	1	-1E+10	1	-1E+10	1
4902551	99	C	05/11/2023	22:53	-131.273	48.009	0	1115.20	0	2.9410	0	34.4000	0	27.418	0	1102.882	0	12.3	4	3.8	4	-1E+10	1	-1E+10	1	-1E+10	1	-1E+10	1	-1E+10	1	-1E+10	1
4902551	99	C	05/11/2023	22:53	-131.273	48.009	0	1125.70	0	2.9240	0	34.4030	0	27.422	0	1113.238	0	12.4	4	3.8	4	-1E+10	1	-1E+10	1	-1E+10	1	-1E+10	1	-1E+10	1	-1E+10	1
4902551	99	C	05/11/2023	22:53	-131.273	48.009	0	1135.60	0	2.9100	0	34.4060	0	27.426	0	1123.002	0	12.5	4	3.8	4	-1E+10	1	-1E+10	1	-1E+10	1	-1E+10	1	-1E+10	1	-1E+10	1
4902551	99	C	05/11/2023	22:53	-131.273	48.009	0	1145.40	0	2.8940	0	34.4090	0	27.430	0	1132.667	0	12.6	4	3.9	4	-1E+10	1	-1E+10	1	-1E+10	1	-1E+10	1	-1E+10	1	-1E+10	1
4902551	99	C	05/11/2023	22:53	-131.273	48.009	0	1155.60	0	2.8730	0	34.4130	0	27.435	0	1142.726	0	12.8	4	3.9	4	-1E+10	1	-1E+10	1	-1E+10	1	-1E+10	1	-1E+10	1	-1E+10	1
4902551	99	C	05/11/2023	22:53	-131.273	48.009	0	1165.30	0	2.8450	0	34.4170	0	27.441	0	1152.291	0	13.0	4	4.0	4	-1E+10	1	-1E+10	1	-1E+10	1	-1E+10	1	-1E+10	1	-1E+10	1
4902551	99	C	05/11/2023	22:53	-131.273	48.009	0	1175.20	0	2.8310	0	34.4200	0	27.444	0	1162.053	0	13.2	4	4.0	4	-1E+10	1	-1E+10	1	-1E+10	1	-1E+10	1	-1E+10	1	-1E+10	1
4902551	99	C	05/11/2023	22:53	-131.273	48.009	0	1185.30	0	2.8130	0	34.4240	0	27.449	0	1172.012	0	13.3	4	4.1	4	-1E+10	1	-1E+10	1	-1E+10	1	-1E+10	1	-1E+10	1	-1E+10	1
4902551	99	C	05/11/2023	22:53	-131.273	48.009	0	1195.40	0	2.7990	0	34.4280	0	27.454	0	1181.970	0	13.6	4	4.2	4	-1E+10	1	-1E+10	1	-1E+10	1	-1E+10	1	-1E+10	1	-1E+10	1
4902551	99	C	05/11/2023	22:53	-131.273	48.009	0	1205.30	0	2.7760	0	34.4310	0	27.458	0	1191.731	0	13.8	4	4.2	4	-1E+10	1	-1E+10	1	-1E+10	1	-1E+10	1	-1E+10	1	-1E+10	1
4902551	99	C	05/11/2023	22:53	-131.273	48.009	0	1215.20	0	2.7590	0	34.4340	0	27.462	0	1201.491	0	13.9	4	4.3	4	-1E+10	1	-1E+10	1	-1E+10	1	-1E+10	1	-1E+10	1	-1E+10	1
4902551	99	C	05/11/2023	22:53	-131.273	48.009	0	1225.40	0	2.7420	0	34.4360	0	27.465	0	1211.547	0	14.2	4	4.3	4	-1E+10	1	-1E+10	1	-1E+10	1	-1E+10	1	-1E+10	1	-1E+10	1
4902551	99	C	05/11/2023	22:53	-131.273	48.009	0	1235.40	0	2.7270	0	34.4400	0	27.470	0	1221.405	0	14.4	4	4.4	4	-1E+10	1	-1E+10	1	-1E+10	1	-1E+10	1	-1E+10	1	-1E+10	1
4902551	99	C	05/11/2023	22:53	-131.273	48.009	0	1245.30	0	2.7110	0	34.4430	0	27.474	0	1231.164	0	14.7	4	4.5	4	-1E+10	1	-1E+10	1	-1E+10	1	-1E+10	1	-1E+10	1	-1E+10	1
4902551	99	C	05/11/2023	22:53	-131.273	48.009	0	1255.40	0	2.6910	0	34.4460	0	27.478	0	1241.119	0	15.0	4	4.6	4	-1E+10	1	-1E+10	1	-1E+10	1	-1E+10	1	-1E+10	1	-1E+10	1
4902551	99	C	05/11/2023	22:53	-131.273	48.009	0	1265.80	0	2.6800	0	34.4490	0	27.481	0	1251.370	0	15.3	4	4.7	4	-1E+10	1	-1E+10	1	-1E+10	1	-1E+10	1	-1E+10	1	-1E+10	1
4902551	99	C	05/11/2023	22:53	-131.273	48.009	0	1275.30	0	2.6700	0	34.4520	0	27.485	0	1260.733	0	15.5	4	4.8	4	-1E+10	1	-1E+10	1	-1E+10	1	-1E+10	1	-1E+10	1	-1E+10	1
4902551	99	C	05/11/2023	22:53	-131.273	48.009	0	1285.30	0	2.6490	0	34.4540	0	27.488	0	1270.589	0	15.8	4	4.8	4	-1E+10	1	-1E+10	1	-1E+10	1	-1E+10	1	-1E+10	1	-1E+10	1
4902551	99	C	05/11/2023	22:53	-131.273	48.009	0	1295.10	0	2.6290	0	34.4580	0	27.493	0	1280.247	0	16.1	4	4.9	4	-1E+10	1	-1E+10	1	-1E+10	1	-1E+10	1	-1E+10	1	-1E+10	1
4902551	99	C	05/11/2023	22:53	-131.273	48.009	0	1305.40	0	2.6090	0	34.4590	0	27.496	0	1290.397	0	16.3	4	5.0	4	-1E+10	1	-1E+10	1	-1E+10	1	-1E+10	1	-1E+10	1	-1E+10	1
4902551	99	C	05/11/2023	22:53	-131.273	48.009	0	1315.50	0	2.5920	0	34.4620	0	27.499	0	1300.350	0	16.7	4	5.1	4	-1E+10	1	-1E+10	1	-1E+10	1	-1E+10	1	-1E+10	1	-1E+10	1
4902551	99	C	05/11/2023	22:53	-131.273	48.009	0	1325.20	0	2.5790	0	34.4640	0	27.502	0	1309.908	0	17.1	4	5.2	4	-1E+10	1	-1E+10	1	-1E+10	1	-1E+10	1	-1E+10	1	-1E+10	1
4902551	99	C	05/11/2023	22:53	-131.273	48.009	0	1335.40	0	2.5600	0	34.4680	0	27.507	0	1319.959	0	17.6	4	5.4	4	-1E+10	1	-1E+10	1	-1E+10	1	-1E+10	1	-1E+10	1	-1E+10	1
4902551	99	C	05/11/2023	22:53	-131.273	48.009	0	1345.80	0	2.5460	0	34.4710	0	27.511	0	1330.206	0	17.9	4	5.5	4	-1E+10	1	-1E+10	1	-1E+10	1	-1E+10	1	-1E+10	1	-1E+10	1
4902551	99	C	05/11/2023	22:53	-131.273	48.009	0	1355.40	0	2.5360	0	34.4730	0	27.513	0	1339.664	0	18.1	4	5.5	4	-1E+10	1	-1E+10	1	-1E+10	1	-1E+10	1	-1E+10	1	-1E+10	1
4902551	99	C	05/11/2023	22:53	-131.273	48.009	0	1365.00	0	2.5200	0	34.4740	0	27.515	0	1349.122	0	18.3	4	5.6	4	-1E+10	1	-1E+10	1	-1E+10	1	-1E+10	1	-1E+10	1	-1E+10	1
4902551	99	C	05/11/2023	22:53	-131.273	48.009	0	1375.20	0	2.5100	0	34.4760	0	27.518	0	1359.170	0	18.6	4	5.7	4	-1E+10	1	-1E+10	1	-1E+10	1	-1E+10	1	-1E+10	1	-1E+10	1
4902551	99	C	05/11/2023	22:53	-131.273	48.009	0	1385.60	0	2.4940	0	34.4780	0	27.521	0	1369.415	0	19.2	4	5.9	4	-1E+10	1	-1E+10	1	-1E+10	1	-1E+10	1	-1E+10	1	-1E+10	1
4902551	99	C	05/11/2023	22:53	-131.273	48.009	0	1395.40	0	2.4680	0	34.4830	0	27.527	0	1379.069	0	19.9	4	6.1	4	-1E+10	1	-1E+10	1	-1E+10	1	-1E+10	1	-1E+10	1	-1E+10	1
4902551	99	C	05/11/2023	22:53	-131.273	48.009	0	1405.20	0	2.4580	0	34.4850	0	27.530	0	1388.722	0	20.4	4	6.2	4	-1E+10	1	-1E+10	1	-1E+10	1	-1E+10	1	-1E+10	1	-1E+10	1
4902551	99	C	05/11/2023	22:53	-131.273	48.009	0	1415.50	0	2.4440	0	34.4880	0	27.533	0	1398.867	0	21.0	4	6.4	4	-1E+10	1	-1E+10	1	-1E+10	1	-1E+10	1	-1E+10	1	-1E+10	1
4902551	99	C	05/11/2023	22:53	-131.273	48.009	0	1425.40	0	2.4290	0	34.4900	0	27.536	0	1408.618	0	21.4	4	6.5	4	-1E+10	1	-1E+10	1	-1E+10	1	-1E+10	1	-1E+10	1	-1E+10	1
4902551	99	C	05/11/2023	22:53	-131.273	48.009	0	1435.40	0	2.4190	0	34.4920	0	27.539	0	1418.466	0	21.9	4	6.7	4	-1E+10	1	-1E+10	1	-1E+10	1	-1E+10	1	-1E+10	1	-1E+10	1
4902551	99	C	05/11/2023	22:53	-131.273	48.009	0	1445.50	0	2.4090	0	34.4950	0	27.542	0	1428.413	0	22.3	4	6.8	4	-1E+10	1	-1E+10	1	-1E+10	1	-1E+10	1	-1E+10	1	-1E+10	1
4902551	99	C	05/11/2023	22:53	-131.273	48.009	0	1455.20	0	2.4010	0	34.4960	0	27.543	0	1437.965	0	22.8	4	6.9	4	-1E+10	1	-1E+10	1	-1E+10	1	-1E+10	1	-1E+10	1	-1E+10	1
4902551	99	C	05/11/2023	22:53	-131.273	48.009	0	1465.30	0	2.3900	0	34.4980	0	27.546	0	1447.911	0	23.3	4	7.1	4	-1E+10	1	-1E+10	1	-1E+10	1	-1E+10	1	-1E+10	1	-1E+10	1
4902551	99	C	05/11/2023	22:53	-131.273	48.009	0	1475.40	0	2.3790	0	34.5000	0	27.549	0	1457.857	0	23.9	4	7.3	4	-1E+10	1	-1E+10	1	-1E+10	1	-1E+10	1	-1E+10	1	-1E+10	1
4902551	99	C	05/11/2023	22:53	-131.273	48.009	0	1485.70	0	2.3620	0	34.5040	0	27.553	0	1467.998	0	24.5	4	7.4	4	-1E+10	1	-1E+10	1	-1E+10	1	-1E+10	1	-1E+10	1	-1E+10	1
4902551	99	C	05/11/2023	22:53	-131.273	48.009	0	1495.30	0	2.3460	0	34.5060	0	27.556	0	1477.450	0	25.0	4	7.6	4	-1E+10	1	-1E+10	1	-1E+10	1	-1E+10	1	-1E+10	1	-1E+10	1
4902551	99	C	05/11/2023	22:53	-131.273	48.009	0	1505.30	0	2.3370	0	34.5080	0	27.559	0	1487.296	0	25.5	4	7.8	4	-1E+10	1	-1E+10	1	-1E+10	1	-1E+10	1	-1E+10	1	-1E+10	1
4902551	99	C	05/11/2023	22:53	-131.273	48.009	0	1515.70	0	2.3250	0	34.5100	0	27.561	0	1497.535	0	26.1	4	7.9	4	-1E+10	1	-1E+10	1	-1E+10	1	-1E+10	1	-1E+10	1	-1E+10	1
4902551	99	C	05/11/2023	22:53	-131.273	48.009	0	1525.60	0	2.3150	0	34.5120	0	27.564	0	1507.281	0	26.9	4	8.2	4	-1E+10	1	-1E+10	1	-1E+10	1	-1E+10	1	-1E+10	1	-1E+10	1
4902551	99	C	05/11/2023	22:53	-131.273	48.009	0	1535.40	0	2.3000	0	34.5150	0	27.567	0	1516.928	0	27.6	4	8.4	4	-1E+10	1	-1E+10	1	-1E+10	1	-1E+10	1	-1E+10	1	-1E+10	1
4902551	99	C	05/11/2023	22:53	-131.273	48.009	0	1545.50	0	2.2910	0	34.5170	0	27.570	0	1526.870	0	28.1	4	8.5	4	-1E+10	1	-1E+10	1	-1E+10	1	-1E+10	1	-1E+10	1	-1E+10	1
4902551	99	C	05/11/2023	22:53	-131.273	48.009	0	1555.60	0	2.2810	0	34.5180	0	27.571	0	1536.811	0	28.7	4	8.7	4	-1E+10	1	-1E+10	1	-1E+10	1	-1E+10	1	-1E+10	1	-1E+10	1
4902551	99	C	05/11/2023	22:53	-131.273	48.009	0	1565.30	0	2.2730	0	34.5200	0	27.574	0	1546.359	0	29.3	4	8.9	4	-1E+10	1	-1E+10	1	-1E+10	1	-1E+10	1	-1E+10	1	-1E+10	1
4902551	99	C	05/11/2023	22:53	-131.273	48.009	0	1575.30	0	2.2610	0	34.5220	0	27.576	0	1556.201	0	30.1	4	9.1	4	-1E+10	1	-1E+10	1	-1E+10	1	-1E+10	1	-1E+10	1	-1E+10	1
4902551	99	C	05/11/2023	22:53	-131.273	48.009	0	1585.20	0	2.2480	0	34.5250	0	27.580	0	1565.944	0	30.7	4	9.3	4	-1E+10	1	-1E+10	1	-1E+10	1	-1E+10	1	-1E+10	1	-1E+10	1
4902551	99	C	05/11/2023	22:53	-131.273	48.009	0	1595.40	0	2.2410	0	34.5260	0	27.581	0	1575.983	0	31.2	4	9.5	4	-1E+10	1	-1E+10	1	-1E+10	1	-1E+10	1	-1E+10	1	-1E+10	1
4902551	99	C	05/11/2023	22:53	-131.273	48.009	0	1605.30	0	2.2340	0	34.5280	0	27.583	0	1585.725	0	31.6	4	9.6	4	-1E+10	1	-1E+10	1	-1E+10	1	-1E+10	1	-1E+10	1	-1E+10	1
4902551	99	C	05/11/2023	22:53	-131.273	48.009	0	1615.30	0	2.2300	0	34.5290	0	27.585	0	1595.566	0	32.0	4	9.7	4	-1E+10	1	-1E+10	1	-1E+10	1	-1E+10	1	-1E+10	1	-1E+10	1
4902551	99	C	05/11/2023	22:53	-131.273	48.009	0	1625.10	0	2.2250	0	34.5300	0	27.586	0	1605.209	0	32.4	4	9.8	4	-1E+10	1	-1E+10	1	-1E+10	1	-1E+10	1	-1E+10	1	-1E+10	1
4902551	99	C	05/11/2023	22:53	-131.273	48.009	0	1635.40	0	2.2170	0	34.5310	0	27.587	0	1615.343	0	32.8	4	9.9	4	-1E+10	1	-1E+10	1	-1E+10	1	-1E+10	1	-1E+10	1	-1E+10	1
4902551	99	C	05/11/2023	22:53	-131.273	48.009	0	1645.80	0	2.2110	0	34.5320	0	27.589	0	1625.576	0	33.3	4	10.1	4	-1E+10	1	-1E+10	1	-1E+10	1	-1E+10	1	-1E+10	1	-1E+10	1
4902551	99	C	05/11/2023	22:53	-131.273	48.009	0	1655.40	0	2.2030	0	34.5340	0	27.591	0	1635.021	0	33.8	4	10.2	4	-1E+10	1	-1E+10	1	-1E+10	1	-1E+10	1	-1E+10	1	-1E+10	1
4902551	99	C	05/11/2023	22:53	-131.273	48.009	0	1665.00	0	2.1960	0	34.5350	0	27.592	0	1644.466	0	34.4	4	10.4	4	-1E+10	1	-1E+10	1	-1E+10	1	-1E+10	1	-1E+10	1	-1E+10	1
4902551	99	C	05/11/2023	22:53	-131.273	48.009	0	1675.20	0	2.1880	0	34.5370	0	27.595	0	1654.500	0	35.0	4	10.6	4	-1E+10	1	-1E+10	1	-1E+10	1	-1E+10	1	-1E+10	1	-1E+10	1
4902551	99	C	05/11/2023	22:53	-131.273	48.009	0	1685.50	0	2.1770	0	34.5390	0	27.597	0	1664.632	0	35.7	4	10.8	4	-1E+10	1	-1E+10	1	-1E+10	1	-1E+10	1	-1E+10	1	-1E+10	1
4902551	99	C	05/11/2023	22:53	-131.273	48.009	0	1695.60	0	2.1640	0	34.5410	0	27.600	0	1674.567	0	36.6	4	11.1	4	-1E+10	1	-1E+10	1	-1E+10	1	-1E+10	1	-1E+10	1	-1E+10	1
4902551	99	C	05/11/2023	22:53	-131.273	48.009	0	1705.20	0	2.1490	0	34.5440	0	27.604	0	1684.010	0	37.2	4	11.3	4	-1E+10	1	-1E+10	1	-1E+10	1	-1E+10	1	-1E+10	1	-1E+10	1
4902551	99	C	05/11/2023	22:53	-131.273	48.009	0	1715.20	0	2.1410	0	34.5450	0	27.605	0	1693.846	0	37.8	4	11.4	4	-1E+10	1	-1E+10	1	-1E+10	1	-1E+10	1	-1E+10	1	-1E+10	1
4902551	99	C	05/11/2023	22:53	-131.273	48.009	0	1725.70	0	2.1290	0	34.5470	0	27.608	0	1704.173	0	38.5	4	11.6	4	-1E+10	1	-1E+10	1	-1E+10	1	-1E+10	1	-1E+10	1	-1E+10	1
4902551	99	C	05/11/2023	22:53	-131.273	48.009	0	1735.60	0	2.1180	0	34.5490	0	27.610	0	1713.910	0	39.0	4	11.8	4	-1E+10	1	-1E+10	1	-1E+10	1	-1E+10	1	-1E+10	1	-1E+10	1
4902551	99	C	05/11/2023	22:53	-131.273	48.009	0	1745.60	0	2.1120	0	34.5500	0	27.612	0	1723.744	0	39.5	4	11.9	4	-1E+10	1	-1E+10	1	-1E+10	1	-1E+10	1	-1E+10	1	-1E+10	1
4902551	99	C	05/11/2023	22:53	-131.273	48.009	0	1755.80	0	2.1080	0	34.5510	0	27.613	0	1733.775	0	40.0	4	12.1	4	-1E+10	1	-1E+10	1	-1E+10	1	-1E+10	1	-1E+10	1	-1E+10	1
4902551	99	C	05/11/2023	22:53	-131.273	48.009	0	1765.50	0	2.0990	0	34.5530	0	27.615	0	1743.313	0	40.9	4	12.4	4	-1E+10	1	-1E+10	1	-1E+10	1	-1E+10	1	-1E+10	1	-1E+10	1
4902551	99	C	05/11/2023	22:53	-131.273	48.009	0	1775.10	0	2.0830	0	34.5560	0	27.619	0	1752.753	0	41.9	4	12.7	4	-1E+10	1	-1E+10	1	-1E+10	1	-1E+10	1	-1E+10	1	-1E+10	1
4902551	99	C	05/11/2023	22:53	-131.273	48.009	0	1785.20	0	2.0720	0	34.5580	0	27.621	0	1762.684	0	42.7	4	12.9	4	-1E+10	1	-1E+10	1	-1E+10	1	-1E+10	1	-1E+10	1	-1E+10	1
4902551	99	C	05/11/2023	22:53	-131.273	48.009	0	1795.30	0	2.0600	0	34.5600	0	27.624	0	1772.614	0	43.6	4	13.2	4	-1E+10	1	-1E+10	1	-1E+10	1	-1E+10	1	-1E+10	1	-1E+10	1
4902551	99	C	05/11/2023	22:53	-131.273	48.009	0	1805.50	0	2.0460	0	34.5620	0	27.627	0	1782.643	0	44.3	4	13.4	4	-1E+10	1	-1E+10	1	-1E+10	1	-1E+10	1	-1E+10	1	-1E+10	1
4902551	99	C	05/11/2023	22:53	-131.273	48.009	0	1815.50	0	2.0390	0	34.5640	0	27.629	0	1792.474	0	44.8	4	13.5	4	-1E+10	1	-1E+10	1	-1E+10	1	-1E+10	1	-1E+10	1	-1E+10	1
4902551	99	C	05/11/2023	22:53	-131.273	48.009	0	1825.20	0	2.0340	0	34.5650	0	27.630	0	1802.010	0	45.4	4	13.7	4	-1E+10	1	-1E+10	1	-1E+10	1	-1E+10	1	-1E+10	1	-1E+10	1
4902551	99	C	05/11/2023	22:53	-131.273	48.009	0	1835.10	0	2.0260	0	34.5660	0	27.632	0	1811.742	0	46.0	4	13.9	4	-1E+10	1	-1E+10	1	-1E+10	1	-1E+10	1	-1E+10	1	-1E+10	1
4902551	99	C	05/11/2023	22:53	-131.273	48.009	0	1845.30	0	2.0170	0	34.5680	0	27.634	0	1821.768	0	46.4	4	14.0	4	-1E+10	1	-1E+10	1	-1E+10	1	-1E+10	1	-1E+10	1	-1E+10	1
4902551	99	C	05/11/2023	22:53	-131.273	48.009	0	1855.30	0	2.0150	0	34.5690	0	27.635	0	1831.598	0	46.6	4	14.1	4	-1E+10	1	-1E+10	1	-1E+10	1	-1E+10	1	-1E+10	1	-1E+10	1
4902551	99	C	05/11/2023	22:53	-131.273	48.009	0	1865.30	0	2.0120	0	34.5690	0	27.635	0	1841.427	0	47.0	4	14.2	4	-1E+10	1	-1E+10	1	-1E+10	1	-1E+10	1	-1E+10	1	-1E+10	1
4902551	99	C	05/11/2023	22:53	-131.273	48.009	0	1875.10	0	2.0060	0	34.5700	0	27.637	0	1851.059	0	47.6	4	14.4	4	-1E+10	1	-1E+10	1	-1E+10	1	-1E+10	1	-1E+10	1	-1E+10	1
4902551	99	C	05/11/2023	22:53	-131.273	48.009	0	1885.40	0	1.9990	0	34.5720	0	27.639	0	1861.182	0	48.0	4	14.5	4	-1E+10	1	-1E+10	1	-1E+10	1	-1E+10	1	-1E+10	1	-1E+10	1
4902551	99	C	05/11/2023	22:53	-131.273	48.009	0	1895.40	0	1.9970	0	34.5720	0	27.639	0	1871.009	0	48.5	4	14.6	4	-1E+10	1	-1E+10	1	-1E+10	1	-1E+10	1	-1E+10	1	-1E+10	1
4902551	99	C	05/11/2023	22:53	-131.273	48.009	0	1905.30	0	1.9890	0	34.5740	0	27.641	0	1880.738	0	49.3	4	14.8	4	-1E+10	1	-1E+10	1	-1E+10	1	-1E+10	1	-1E+10	1	-1E+10	1
4902551	99	C	05/11/2023	22:53	-131.273	48.009	0	1915.40	0	1.9790	0	34.5760	0	27.644	0	1890.663	0	50.0	4	15.1	4	-1E+10	1	-1E+10	1	-1E+10	1	-1E+10	1	-1E+10	1	-1E+10	1
4902551	99	C	05/11/2023	22:53	-131.273	48.009	0	1925.70	0	1.9720	0	34.5770	0	27.645	0	1900.784	0	50.5	4	15.2	4	-1E+10	1	-1E+10	1	-1E+10	1	-1E+10	1	-1E+10	1	-1E+10	1
4902551	99	C	05/11/2023	22:53	-131.273	48.009	0	1935.60	0	1.9660	0	34.5780	0	27.646	0	1910.512	0	51.0	4	15.4	4	-1E+10	1	-1E+10	1	-1E+10	1	-1E+10	1	-1E+10	1	-1E+10	1
4902551	99	C	05/11/2023	22:53	-131.273	48.009	0	1945.20	0	1.9620	0	34.5790	0	27.648	0	1919.944	0	51.3	4	15.5	4	-1E+10	1	-1E+10	1	-1E+10	1	-1E+10	1	-1E+10	1	-1E+10	1
4902551	99	C	05/11/2023	22:53	-131.273	48.009	0	1955.30	0	1.9570	0	34.5800	0	27.649	0	1929.867	0	51.8	4	15.6	4	-1E+10	1	-1E+10	1	-1E+10	1	-1E+10	1	-1E+10	1	-1E+10	1
4902551	99	C	05/11/2023	22:53	-131.273	48.009	0	1965.60	0	1.9520	0	34.5810	0	27.650	0	1939.986	0	52.1	4	15.7	4	-1E+10	1	-1E+10	1	-1E+10	1	-1E+10	1	-1E+10	1	-1E+10	1
4902551	99	C	05/11/2023	22:53	-131.273	48.009	0	1975.70	0	1.9490	0	34.5820	0	27.651	0	1949.908	0	52.2	4	15.7	4	-1E+10	1	-1E+10	1	-1E+10	1	-1E+10	1	-1E+10	1	-1E+10	1
4902551	99	C	05/11/2023	22:53	-131.273	48.009	0	1983.50	0	1.9450	0	34.5830	0	27.652	0	1957.571	0	51.8	4	15.6	4	-1E+10	1	-1E+10	1	-1E+10	1	-1E+10	1	-1E+10	1	-1E+10	1
4902551	99	C	05/11/2023	22:53	-131.273	48.009	0																										
4902551	100	C	05/22/2023	03:59	-131.255	48.049	0	0.40	0	11.1960	0	32.3270	0	24.660	0	0.397	0	271.3	4	99.4	4	-1E+10	1	-1E+10	1	-1E+10	1	-1E+10	1	-1E+10	1	-1E+10	1
4902551	100	C	05/22/2023	03:59	-131.255	48.049	0	1.10	0	11.1990	0	32.3210	0	24.655	0	1.091	0	271.3	4	99.4	4	-1E+10	1	-1E+10	1	-1E+10	1	-1E+10	1	-1E+10	1	-1E+10	1
4902551	100	C	05/22/2023	03:59	-131.255	48.049	0	1.80	0	11.1990	0	32.3200	0	24.655	0	1.785	0	271.2	4	99.4	4	-1E+10	1	-1E+10	1	-1E+10	1	-1E+10	1	-1E+10	1	-1E+10	1
4902551	100	C	05/22/2023	03:59	-131.255	48.049	0	3.00	0	11.2000	0	32.3200	0	24.654	0	2.975	0	271.3	4	99.4	4	-1E+10	1	-1E+10	1	-1E+10	1	-1E+10	1	-1E+10	1	-1E+10	1
4902551	100	C	05/22/2023	03:59	-131.255	48.049	0	4.20	0	11.1940	0	32.3250	0	24.659	0	4.165	0	271.3	4	99.4	4	-1E+10	1	-1E+10	1	-1E+10	1	-1E+10	1	-1E+10	1	-1E+10	1
4902551	100	C	05/22/2023	03:59	-131.255	48.049	0	5.00	0	11.1920	0	32.3290	0	24.663	0	4.958	0	271.4	4	99.5	4	-1E+10	1	-1E+10	1	-1E+10	1	-1E+10	1	-1E+10	1	-1E+10	1
4902551	100	C	05/22/2023	03:59	-131.255	48.049	0	6.20	0	11.1890	0	32.3300	0	24.664	0	6.148	0	271.6	4	99.5	4	-1E+10	1	-1E+10	1	-1E+10	1	-1E+10	1	-1E+10	1	-1E+10	1
4902551	100	C	05/22/2023	03:59	-131.255	48.049	0	6.90	0	11.1920	0	32.3290	0	24.663	0	6.842	0	271.9	4	99.6	4	-1E+10	1	-1E+10	1	-1E+10	1	-1E+10	1	-1E+10	1	-1E+10	1
4902551	100	C	05/22/2023	03:59	-131.255	48.049	0	7.90	0	11.1760	0	32.3280	0	24.665	0	7.834	0	272.5	4	99.8	4	-1E+10	1	-1E+10	1	-1E+10	1	-1E+10	1	-1E+10	1	-1E+10	1
4902551	100	C	05/22/2023	03:59	-131.255	48.049	0	9.00	0	10.9660	0	32.3220	0	24.697	0	8.924	0	274.5	4	100.1	4	-1E+10	1	-1E+10	1	-1E+10	1	-1E+10	1	-1E+10	1	-1E+10	1
4902551	100	C	05/22/2023	03:59	-131.255	48.049	0	10.10	0	10.5590	0	32.3380	0	24.780	0	10.015	0	277.0	4	100.1	4	-1E+10	1	-1E+10	1	-1E+10	1	-1E+10	1	-1E+10	1	-1E+10	1
4902551	100	C	05/22/2023	03:59	-131.255	48.049	0	11.10	0	10.3270	0	32.3400	0	24.821	0	11.007	0	278.3	4	100.1	4	-1E+10	1	-1E+10	1	-1E+10	1	-1E+10	1	-1E+10	1	-1E+10	1
4902551	100	C	05/22/2023	03:59	-131.255	48.049	0	12.00	0	10.2780	0	32.3520	0	24.839	0	11.899	0	278.6	4	100.2	4	-1E+10	1	-1E+10	1	-1E+10	1	-1E+10	1	-1E+10	1	-1E+10	1
4902551	100	C	05/22/2023	03:59	-131.255	48.049	0	13.00	0	10.1400	0	32.3380	0	24.851	0	12.890	0	279.3	4	100.1	4	-1E+10	1	-1E+10	1	-1E+10	1	-1E+10	1	-1E+10	1	-1E+10	1
4902551	100	C	05/22/2023	03:59	-131.255	48.049	0	14.00	0	9.9940	0	32.3530	0	24.887	0	13.882	0	279.9	4	100.0	4	-1E+10	1	-1E+10	1	-1E+10	1	-1E+10	1	-1E+10	1	-1E+10	1
4902551	100	C	05/22/2023	03:59	-131.255	48.049	0	15.00	0	9.9370	0	32.3430	0	24.889	0	14.874	0	280.1	4	99.9	4	-1E+10	1	-1E+10	1	-1E+10	1	-1E+10	1	-1E+10	1	-1E+10	1
4902551	100	C	05/22/2023	03:59	-131.255	48.049	0	16.10	0	9.8880	0	32.3400	0	24.895	0	15.964	0	280.5	4	100.0	4	-1E+10	1	-1E+10	1	-1E+10	1	-1E+10	1	-1E+10	1	-1E+10	1
4902551	100	C	05/22/2023	03:59	-131.255	48.049	0	16.90	0	9.8310	0	32.3440	0	24.907	0	16.757	0	280.7	4	99.9	4	-1E+10	1	-1E+10	1	-1E+10	1	-1E+10	1	-1E+10	1	-1E+10	1
4902551	100	C	05/22/2023	03:59	-131.255	48.049	0	17.80	0	9.7650	0	32.3490	0	24.922	0	17.650	0	281.0	4	99.9	4	-1E+10	1	-1E+10	1	-1E+10	1	-1E+10	1	-1E+10	1	-1E+10	1
4902551	100	C	05/22/2023	03:59	-131.255	48.049	0	18.90	0	9.6700	0	32.3440	0	24.933	0	18.740	0	281.5	4	99.9	4	-1E+10	1	-1E+10	1	-1E+10	1	-1E+10	1	-1E+10	1	-1E+10	1
4902551	100	C	05/22/2023	03:59	-131.255	48.049	0	20.10	0	9.5770	0	32.3460	0	24.950	0	19.930	0	281.9	4	99.8	4	-1E+10	1	-1E+10	1	-1E+10	1	-1E+10	1	-1E+10	1	-1E+10	1
4902551	100	C	05/22/2023	03:59	-131.255	48.049	0	20.90	0	9.5060	0	32.3450	0	24.961	0	20.723	0	282.2	4	99.8	4	-1E+10	1	-1E+10	1	-1E+10	1	-1E+10	1	-1E+10	1	-1E+10	1
4902551	100	C	05/22/2023	03:59	-131.255	48.049	0	21.90	0	9.4600	0	32.3430	0	24.966	0	21.715	0	282.5	4	99.7	4	-1E+10	1	-1E+10	1	-1E+10	1	-1E+10	1	-1E+10	1	-1E+10	1
4902551	100	C	05/22/2023	03:59	-131.255	48.049	0	23.10	0	9.4100	0	32.3450	0	24.976	0	22.905	0	282.7	4	99.7	4	-1E+10	1	-1E+10	1	-1E+10	1	-1E+10	1	-1E+10	1	-1E+10	1
4902551	100	C	05/22/2023	03:59	-131.255	48.049	0	24.00	0	9.3560	0	32.3440	0	24.984	0	23.797	0	283.0	4	99.7	4	-1E+10	1	-1E+10	1	-1E+10	1	-1E+10	1	-1E+10	1	-1E+10	1
4902551	100	C	05/22/2023	03:59	-131.255	48.049	0	24.90	0	9.3080	0	32.3460	0	24.993	0	24.689	0	283.1	4	99.6	4	-1E+10	1	-1E+10	1	-1E+10	1	-1E+10	1	-1E+10	1	-1E+10	1
4902551	100	C	05/22/2023	03:59	-131.255	48.049	0	25.90	0	9.2820	0	32.3430	0	24.995	0	25.681	0	283.1	4	99.6	4	-1E+10	1	-1E+10	1	-1E+10	1	-1E+10	1	-1E+10	1	-1E+10	1
4902551	100	C	05/22/2023	03:59	-131.255	48.049	0	26.90	0	9.2590	0	32.3420	0	24.998	0	26.672	0	283.0	4	99.5	4	-1E+10	1	-1E+10	1	-1E+10	1	-1E+10	1	-1E+10	1	-1E+10	1
4902551	100	C	05/22/2023	03:59	-131.255	48.049	0	27.90	0	9.2070	0	32.3400	0	25.004	0	27.664	0	283.0	4	99.4	4	-1E+10	1	-1E+10	1	-1E+10	1	-1E+10	1	-1E+10	1	-1E+10	1
4902551	100	C	05/22/2023	03:59	-131.255	48.049	0	28.90	0	9.1560	0	32.3350	0	25.008	0	28.655	0	282.9	4	99.2	4	-1E+10	1	-1E+10	1	-1E+10	1	-1E+10	1	-1E+10	1	-1E+10	1
4902551	100	C	05/22/2023	03:59	-131.255	48.049	0	29.90	0	9.1350	0	32.3340	0	25.011	0	29.647	0	282.7	4	99.1	4	-1E+10	1	-1E+10	1	-1E+10	1	-1E+10	1	-1E+10	1	-1E+10	1
4902551	100	C	05/22/2023	03:59	-131.255	48.049	0	30.90	0	9.1170	0	32.3320	0	25.012	0	30.638	0	282.4	4	99.0	4	-1E+10	1	-1E+10	1	-1E+10	1	-1E+10	1	-1E+10	1	-1E+10	1
4902551	100	C	05/22/2023	03:59	-131.255	48.049	0	31.90	0	9.1080	0	32.3340	0	25.015	0	31.630	0	282.1	4	98.9	4	-1E+10	1	-1E+10	1	-1E+10	1	-1E+10	1	-1E+10	1	-1E+10	1
4902551	100	C	05/22/2023	03:59	-131.255	48.049	0	32.80	0	9.1080	0	32.3370	0	25.018	0	32.522	0	281.9	4	98.8	4	-1E+10	1	-1E+10	1	-1E+10	1	-1E+10	1	-1E+10	1	-1E+10	1
4902551	100	C	05/22/2023	03:59	-131.255	48.049	0	34.00	0	9.1070	0	32.3400	0	25.020	0	33.712	0	281.6	4	98.7	4	-1E+10	1	-1E+10	1	-1E+10	1	-1E+10	1	-1E+10	1	-1E+10	1
4902551	100	C	05/22/2023	03:59	-131.255	48.049	0	35.10	0	9.0960	0	32.3400	0	25.022	0	34.802	0	281.2	4	98.5	4	-1E+10	1	-1E+10	1	-1E+10	1	-1E+10	1	-1E+10	1	-1E+10	1
4902551	100	C	05/22/2023	03:59	-131.255	48.049	0	36.10	0	9.0410	0	32.3420	0	25.032	0	35.794	0	281.1	4	98.4	4	-1E+10	1	-1E+10	1	-1E+10	1	-1E+10	1	-1E+10	1	-1E+10	1
4902551	100	C	05/22/2023	03:59	-131.255	48.049	0	37.00	0	8.9710	0	32.3470	0	25.047	0	36.686	0	281.1	4	98.2	4	-1E+10	1	-1E+10	1	-1E+10	1	-1E+10	1	-1E+10	1	-1E+10	1
4902551	100	C	05/22/2023	03:59	-131.255	48.049	0	38.00	0	8.9240	0	32.3480	0	25.055	0	37.677	0	280.9	4	98.0	4	-1E+10	1	-1E+10	1	-1E+10	1	-1E+10	1	-1E+10	1	-1E+10	1
4902551	100	C	05/22/2023	03:59	-131.255	48.049	0	38.90	0	8.9000	0	32.3480	0	25.058	0	38.570	0	280.6	4	97.9	4	-1E+10	1	-1E+10	1	-1E+10	1	-1E+10	1	-1E+10	1	-1E+10	1
4902551	100	C	05/22/2023	03:59	-131.255	48.049	0	39.80	0	8.7810	0	32.3490	0	25.077	0	39.462	0	280.6	4	97.6	4	-1E+10	1	-1E+10	1	-1E+10	1	-1E+10	1	-1E+10	1	-1E+10	1
4902551	100	C	05/22/2023	03:59	-131.255	48.049	0	40.80	0	8.6270	0	32.3510	0	25.102	0	40.453	0	280.8	4	97.3	4	-1E+10	1	-1E+10	1	-1E+10	1	-1E+10	1	-1E+10	1	-1E+10	1
4902551	100	C	05/22/2023	03:59	-131.255	48.049	0	41.90	0	8.5000	0	32.3450	0	25.117	0	41.544	0	280.8	4	97.1	4	-1E+10	1	-1E+10	1	-1E+10	1	-1E+10	1	-1E+10	1	-1E+10	1
4902551	100	C	05/22/2023	03:59	-131.255	48.049	0	43.10	0	8.1960	0	32.3520	0	25.167	0	42.734	0	281.2	4	96.6	4	-1E+10	1	-1E+10	1	-1E+10	1	-1E+10	1	-1E+10	1	-1E+10	1
4902551	100	C	05/22/2023	03:59	-131.255	48.049	0	43.90	0	8.1730	0	32.3500	0	25.169	0	43.527	0	280.9	4	96.4	4	-1E+10	1	-1E+10	1	-1E+10	1	-1E+10	1	-1E+10	1	-1E+10	1
4902551	100	C	05/22/2023	03:59	-131.255	48.049	0	45.20	0	8.1040	0	32.3510	0	25.180	0	44.816	0	280.5	4	96.1	4	-1E+10	1	-1E+10	1	-1E+10	1	-1E+10	1	-1E+10	1	-1E+10	1
4902551	100	C	05/22/2023	03:59	-131.255	48.049	0	45.80	0	8.0720	0	32.3540	0	25.187	0	45.410	0	280.2	4	96.0	4	-1E+10	1	-1E+10	1	-1E+10	1	-1E+10	1	-1E+10	1	-1E+10	1
4902551	100	C	05/22/2023	03:59	-131.255	48.049	0	46.80	0	8.0410	0	32.3530	0	25.191	0	46.402	0	279.8	4	95.7	4	-1E+10	1	-1E+10	1	-1E+10	1	-1E+10	1	-1E+10	1	-1E+10	1
4902551	100	C	05/22/2023	03:59	-131.255	48.049	0	47.80	0	8.0090	0	32.3550	0	25.197	0	47.393	0	279.2	4	95.5	4	-1E+10	1	-1E+10	1	-1E+10	1	-1E+10	1	-1E+10	1	-1E+10	1
4902551	100	C	05/22/2023	03:59	-131.255	48.049	0	48.80	0	7.9620	0	32.3580	0	25.206	0	48.385	0	278.7	4	95.2	4	-1E+10	1	-1E+10	1	-1E+10	1	-1E+10	1	-1E+10	1	-1E+10	1
4902551	100	C	05/22/2023	03:59	-131.255	48.049	0	49.90	0	7.8970	0	32.3620	0	25.218	0	49.475	0	278.5	4	95.0	4	-1E+10	1	-1E+10	1	-1E+10	1	-1E+10	1	-1E+10	1	-1E+10	1
4902551	100	C	05/22/2023	03:59	-131.255	48.049	0	51.00	0	7.8810	0	32.3580	0	25.218	0	50.566	0	278.2	4	94.9	4	-1E+10	1	-1E+10	1	-1E+10	1	-1E+10	1	-1E+10	1	-1E+10	1
4902551	100	C	05/22/2023	03:59	-131.255	48.049	0	52.10	0	7.8650	0	32.3570	0	25.219	0	51.656	0	277.9	4	94.7	4	-1E+10	1	-1E+10	1	-1E+10	1	-1E+10	1	-1E+10	1	-1E+10	1
4902551	100	C	05/22/2023	03:59	-131.255	48.049	0	53.00	0	7.8510	0	32.3570	0	25.221	0	52.548	0	277.7	4	94.6	4	-1E+10	1	-1E+10	1	-1E+10	1	-1E+10	1	-1E+10	1	-1E+10	1
4902551	100	C	05/22/2023	03:59	-131.255	48.049	0	53.80	0	7.8470	0	32.3570	0	25.222	0	53.341	0	277.5	4	94.6	4	-1E+10	1	-1E+10	1	-1E+10	1	-1E+10	1	-1E+10	1	-1E+10	1
4902551	100	C	05/22/2023	03:59	-131.255	48.049	0	55.00	0	7.8370	0	32.3570	0	25.223	0	54.531	0	277.2	4	94.4	4	-1E+10	1	-1E+10	1	-1E+10	1	-1E+10	1	-1E+10	1	-1E+10	1
4902551	100	C	05/22/2023	03:59	-131.255	48.049	0	56.10	0	7.8220	0	32.3580	0	25.226	0	55.621	0	276.9	4	94.3	4	-1E+10	1	-1E+10	1	-1E+10	1	-1E+10	1	-1E+10	1	-1E+10	1
4902551	100	C	05/22/2023	03:59	-131.255	48.049	0	57.00	0	7.8150	0	32.3580	0	25.227	0	56.514	0	276.7	4	94.2	4	-1E+10	1	-1E+10	1	-1E+10	1	-1E+10	1	-1E+10	1	-1E+10	1
4902551	100	C	05/22/2023	03:59	-131.255	48.049	0	57.80	0	7.8190	0	32.3610	0	25.229	0	57.307	0	276.4	4	94.1	4	-1E+10	1	-1E+10	1	-1E+10	1	-1E+10	1	-1E+10	1	-1E+10	1
4902551	100	C	05/22/2023	03:59	-131.255	48.049	0	59.00	0	7.8110	0	32.3610	0	25.230	0	58.496	0	276.2	4	94.0	4	-1E+10	1	-1E+10	1	-1E+10	1	-1E+10	1	-1E+10	1	-1E+10	1
4902551	100	C	05/22/2023	03:59	-131.255	48.049	0	59.90	0	7.8040	0	32.3610	0	25.231	0	59.388	0	275.8	4	93.9	4	-1E+10	1	-1E+10	1	-1E+10	1	-1E+10	1	-1E+10	1	-1E+10	1
4902551	100	C	05/22/2023	03:59	-131.255	48.049	0	60.70	0	7.7820	0	32.3610	0	25.234	0	60.182	0	275.7	4	93.8	4	-1E+10	1	-1E+10	1	-1E+10	1	-1E+10	1	-1E+10	1	-1E+10	1
4902551	100	C	05/22/2023	03:59	-131.255	48.049	0	61.90	0	7.7790	0	32.3630	0	25.236	0	61.371	0	275.4	4	93.7	4	-1E+10	1	-1E+10	1	-1E+10	1	-1E+10	1	-1E+10	1	-1E+10	1
4902551	100	C	05/22/2023	03:59	-131.255	48.049	0	63.10	0	7.7680	0	32.3640	0	25.238	0	62.561	0	275.2	4	93.6	4	-1E+10	1	-1E+10	1	-1E+10	1	-1E+10	1	-1E+10	1	-1E+10	1
4902551	100	C	05/22/2023	03:59	-131.255	48.049	0	63.90	0	7.7670	0	32.3650	0	25.239	0	63.354	0	274.9	4	93.5	4	-1E+10	1	-1E+10	1	-1E+10	1	-1E+10	1	-1E+10	1	-1E+10	1
4902551	100	C	05/22/2023	03:59	-131.255	48.049	0	64.80	0	7.7650	0	32.3640	0	25.239	0	64.246	0	274.6	4	93.4	4	-1E+10	1	-1E+10	1	-1E+10	1	-1E+10	1	-1E+10	1	-1E+10	1
4902551	100	C	05/22/2023	03:59	-131.255	48.049	0	65.90	0	7.7600	0	32.3650	0	25.240	0	65.336	0	274.2	4	93.3	4	-1E+10	1	-1E+10	1	-1E+10	1	-1E+10	1	-1E+10	1	-1E+10	1
4902551	100	C	05/22/2023	03:59	-131.255	48.049	0	67.10	0	7.7560	0	32.3640	0	25.240	0	66.526	0	274.0	4	93.2	4	-1E+10	1	-1E+10	1	-1E+10	1	-1E+10	1	-1E+10	1	-1E+10	1
4902551	100	C	05/22/2023	03:59	-131.255	48.049	0	68.00	0	7.7530	0	32.3690	0	25.245	0	67.418	0	273.9	4	93.1	4	-1E+10	1	-1E+10	1	-1E+10	1	-1E+10	1	-1E+10	1	-1E+10	1
4902551	100	C	05/22/2023	03:59	-131.255	48.049	0	68.80	0	7.7440	0	32.3700	0	25.247	0	68.211	0	273.8	4	93.1	4	-1E+10	1	-1E+10	1	-1E+10	1	-1E+10	1	-1E+10	1	-1E+10	1
4902551	100	C	05/22/2023	03:59	-131.255	48.049	0	69.90	0	7.7250	0	32.3680	0	25.248	0	69.301	0	273.8	4	93.0	4	-1E+10	1	-1E+10	1	-1E+10	1	-1E+10	1	-1E+10	1	-1E+10	1
4902551	100	C	05/22/2023	03:59	-131.255	48.049	0	71.10	0	7.7100	0	32.3680	0	25.250	0	70.491	0	273.6	4	92.9	4	-1E+10	1	-1E+10	1	-1E+10	1	-1E+10	1	-1E+10	1	-1E+10	1
4902551	100	C	05/22/2023	03:59	-131.255	48.049	0	71.90	0	7.7020	0	32.3670	0	25.250	0	71.284	0	273.4	4	92.9	4	-1E+10	1	-1E+10	1	-1E+10	1	-1E+10	1	-1E+10	1	-1E+10	1
4902551	100	C	05/22/2023	03:59	-131.255	48.049	0	72.70	0	7.7030	0	32.3670	0	25.250	0	72.077	0	273.3	4	92.8	4	-1E+10	1	-1E+10	1	-1E+10	1	-1E+10	1	-1E+10	1	-1E+10	1
4902551	100	C	05/22/2023	03:59	-131.255	48.049	0	73.90	0	7.6990	0	32.3690	0	25.252	0	73.266	0	273.0	4	92.7	4	-1E+10	1	-1E+10	1	-1E+10	1	-1E+10	1	-1E+10	1	-1E+10	1
4902551	100	C	05/22/2023	03:59	-131.255	48.049	0	75.00	0	7.7070	0	32.3690	0	25.251	0	74.357	0	272.7	4	92.6	4	-1E+10	1	-1E+10	1	-1E+10	1	-1E+10	1	-1E+10	1	-1E+10	1
4902551	100	C	05/22/2023	03:59	-131.255	48.049	0	76.10	0	7.7180	0	32.3720	0	25.252	0	75.447	0	272.3	4	92.5	4	-1E+10	1	-1E+10	1	-1E+10	1	-1E+10	1	-1E+10	1	-1E+10	1
4902551	100	C	05/22/2023	03:59	-131.255	48.049	0	76.90	0	7.7200	0	32.3730	0	25.252	0	76.240	0	272.0	4	92.4	4	-1E+10	1	-1E+10	1	-1E+10	1	-1E+10	1	-1E+10	1	-1E+10	1
4902551	100	C	05/22/2023	03:59	-131.255	48.049	0	77.70	0	7.7240	0	32.3740	0	25.253	0	77.033	0	271.6	4	92.3	4	-1E+10	1	-1E+10	1	-1E+10	1	-1E+10	1	-1E+10	1	-1E+10	1
4902551	100	C	05/22/2023	03:59	-131.255	48.049	0	78.80	0	7.7280	0	32.3740	0	25.252	0	78.123	0	271.0	4	92.1	4	-1E+10	1	-1E+10	1	-1E+10	1	-1E+10	1	-1E+10	1	-1E+10	1
4902551	100	C	05/22/2023	03:59	-131.255	48.049	0	79.80	0	7.7310	0	32.3750	0	25.253	0	79.115	0	270.4	4	91.9	4	-1E+10	1	-1E+10	1	-1E+10	1	-1E+10	1	-1E+10	1	-1E+10	1
4902551	100	C	05/22/2023	03:59	-131.255	48.049	0	80.90	0	7.7190	0	32.3780	0	25.257	0	80.205	0	269.6	4	91.6	4	-1E+10	1	-1E+10	1	-1E+10	1	-1E+10	1	-1E+10	1	-1E+10	1
4902551	100	C	05/22/2023	03:59	-131.255	48.049	0	82.00	0	7.7020	0	32.3750	0	25.257	0	81.295	0	269.0	4	91.4	4	-1E+10	1	-1E+10	1	-1E+10	1	-1E+10	1	-1E+10	1	-1E+10	1
4902551	100	C	05/22/2023	03:59	-131.255	48.049	0	83.10	0	7.6890	0	32.3760	0	25.259	0	82.386	0	275.0	4	93.4	4	-1E+10	1	-1E+10	1	-1E+10	1	-1E+10	1	-1E+10	1	-1E+10	1
4902551	100	C	05/22/2023	03:59	-131.255	48.049	0	83.90	0	7.6930	0	32.3780	0	25.260	0	83.179	0	274.2	4	93.1	4	-1E+10	1	-1E+10	1	-1E+10	1	-1E+10	1	-1E+10	1	-1E+10	1
4902551	100	C	05/22/2023	03:59	-131.255	48.049	0	84.70	0	7.6960	0	32.3820	0	25.263	0	83.972	0	273.5	4	92.9	4	-1E+10	1	-1E+10	1	-1E+10	1	-1E+10	1	-1E+10	1	-1E+10	1
4902551	100	C	05/22/2023	03:59	-131.255	48.049	0	85.80	0	7.6920	0	32.3920	0	25.271	0	85.062	0	272.6	4	92.6	4	-1E+10	1	-1E+10	1	-1E+10	1	-1E+10	1	-1E+10	1	-1E+10	1
4902551	100	C	05/22/2023	03:59	-131.255	48.049	0	86.80	0	7.6700	0	32.3980	0	25.279	0	86.053	0	271.8	4	92.3	4	-1E+10	1	-1E+10	1	-1E+10	1	-1E+10	1	-1E+10	1	-1E+10	1
4902551	100	C	05/22/2023	03:59	-131.255	48.049	0	88.00	0	7.6460	0	32.4120	0	25.294	0	87.243	0	270.6	4	91.8	4	-1E+10	1	-1E+10	1	-1E+10	1	-1E+10	1	-1E+10	1	-1E+10	1
4902551	100	C	05/22/2023	03:59	-131.255	48.049	0	89.10	0	7.6420	0	32.4220	0	25.302	0	88.333	0	268.5	4	91.1	4	-1E+10	1	-1E+10	1	-1E+10	1	-1E+10	1	-1E+10	1	-1E+10	1
4902551	100	C	05/22/2023	03:59	-131.255	48.049	0	90.10	0	7.6290	0	32.4330	0	25.313	0	89.324	0	266.9	4	90.6	4	-1E+10	1	-1E+10	1	-1E+10	1	-1E+10	1	-1E+10	1	-1E+10	1
4902551	100	C	05/22/2023	03:59	-131.255	48.049	0	91.00	0	7.5920	0	32.4550	0	25.335	0	90.216	0	266.4	4	90.3	4	-1E+10	1	-1E+10	1	-1E+10	1	-1E+10	1	-1E+10	1	-1E+10	1
4902551	100	C	05/22/2023	03:59	-131.255	48.049	0	91.80	0	7.5650	0	32.4630	0	25.345	0	91.009	0	265.8	4	90.1	4	-1E+10	1	-1E+10	1	-1E+10	1	-1E+10	1	-1E+10	1	-1E+10	1
4902551	100	C	05/22/2023	03:59	-131.255	48.049	0	92.80	0	7.5250	0	32.4730	0	25.359	0	92.000	0	264.8	4	89.6	4	-1E+10	1	-1E+10	1	-1E+10	1	-1E+10	1	-1E+10	1	-1E+10	1
4902551	100	C	05/22/2023	03:59	-131.255	48.049	0	94.10	0	7.4850	0	32.4740	0	25.365	0	93.289	0	262.8	4	88.9	4	-1E+10	1	-1E+10	1	-1E+10	1	-1E+10	1	-1E+10	1	-1E+10	1
4902551	100	C	05/22/2023	03:59	-131.255	48.049	0	95.00	0	7.4660	0	32.4770	0	25.370	0	94.181	0	260.6	4	88.1	4	-1E+10	1	-1E+10	1	-1E+10	1	-1E+10	1	-1E+10	1	-1E+10	1
4902551	100	C	05/22/2023	03:59	-131.255	48.049	0	96.00	0	7.4580	0	32.4790	0	25.373	0	95.172	0	257.9	4	87.2	4	-1E+10	1	-1E+10	1	-1E+10	1	-1E+10	1	-1E+10	1	-1E+10	1
4902551	100	C	05/22/2023	03:59	-131.255	48.049	0	97.00	0	7.4520	0	32.4810	0	25.375	0	96.163	0	253.9	4	85.8	4	-1E+10	1	-1E+10	1	-1E+10	1	-1E+10	1	-1E+10	1	-1E+10	1
4902551	100	C	05/22/2023	03:59	-131.255	48.049	0	98.30	0	7.4150	0	32.5340	0	25.422	0	97.451	0	248.3	4	83.9	4	-1E+10	1	-1E+10	1	-1E+10	1	-1E+10	1	-1E+10	1	-1E+10	1
4902551	100	C	05/22/2023	03:59	-131.255	48.049	0	99.00	0	7.3910	0	32.6050	0	25.481	0	98.145	0	246.8	4	83.4	4	-1E+10	1	-1E+10	1	-1E+10	1	-1E+10	1	-1E+10	1	-1E+10	1
4902551	100	C	05/22/2023	03:59	-131.255	48.049	0	100.10	0	7.3140	0	32.6770	0	25.548	0	99.235	0	245.7	4	82.9	4	-1E+10	1	-1E+10	1	-1E+10	1	-1E+10	1	-1E+10	1	-1E+10	1
4902551	100	C	05/22/2023	03:59	-131.255	48.049	0	101.10	0	7.2840	0	32.6900	0	25.562	0	100.227	0	244.9	4	82.6	4	-1E+10	1	-1E+10	1	-1E+10	1	-1E+10	1	-1E+10	1	-1E+10	1
4902551	100	C	05/22/2023	03:59	-131.255	48.049	0	101.90	0	7.2480	0	32.7060	0	25.580	0	101.020	0	244.3	4	82.3	4	-1E+10	1	-1E+10	1	-1E+10	1	-1E+10	1	-1E+10	1	-1E+10	1
4902551	100	C	05/22/2023	03:59	-131.255	48.049	0	102.70	0	7.2300	0	32.7180	0	25.592	0	101.812	0	243.6	4	82.1	4	-1E+10	1	-1E+10	1	-1E+10	1	-1E+10	1	-1E+10	1	-1E+10	1
4902551	100	C	05/22/2023	03:59	-131.255	48.049	0	103.90	0	7.1830	0	32.7480	0	25.622	0	103.002	0	243.0	4	81.8	4	-1E+10	1	-1E+10	1	-1E+10	1	-1E+10	1	-1E+10	1	-1E+10	1
4902551	100	C	05/22/2023	03:59	-131.255	48.049	0	105.10	0	7.1670	0	32.7560	0	25.630	0	104.191	0	242.4	4	81.6	4	-1E+10	1	-1E+10	1	-1E+10	1	-1E+10	1	-1E+10	1	-1E+10	1
4902551	100	C	05/22/2023	03:59	-131.255	48.049	0	106.10	0	7.1590	0	32.7610	0	25.635	0	105.182	0	241.7	4	81.3	4	-1E+10	1	-1E+10	1	-1E+10	1	-1E+10	1	-1E+10	1	-1E+10	1
4902551	100	C	05/22/2023	03:59	-131.255	48.049	0	107.00	0	7.1530	0	32.7660	0	25.640	0	106.074	0	241.0	4	81.1	4	-1E+10	1	-1E+10	1	-1E+10	1	-1E+10	1	-1E+10	1	-1E+10	1
4902551	100	C	05/22/2023	03:59	-131.255	48.049	0	108.00	0	7.1510	0	32.7690	0	25.643	0	107.065	0	240.2	4	80.8	4	-1E+10	1	-1E+10	1	-1E+10	1	-1E+10	1	-1E+10	1	-1E+10	1
4902551	100	C	05/22/2023	03:59	-131.255	48.049	0	109.00	0	7.1490	0	32.7710	0	25.645	0	108.056	0	238.9	4	80.4	4	-1E+10	1	-1E+10	1	-1E+10	1	-1E+10	1	-1E+10	1	-1E+10	1
4902551	100	C	05/22/2023	03:59	-131.255	48.049	0	110.00	0	7.1470	0	32.7730	0	25.647	0	109.047	0	237.3	4	79.8	4	-1E+10	1	-1E+10	1	-1E+10	1	-1E+10	1	-1E+10	1	-1E+10	1
4902551	100	C	05/22/2023	03:59	-131.255	48.049	0	110.90	0	7.1380	0	32.7780	0	25.652	0	109.939	0	235.8	4	79.3	4	-1E+10	1	-1E+10	1	-1E+10	1	-1E+10	1	-1E+10	1	-1E+10	1
4902551	100	C	05/22/2023	03:59	-131.255	48.049	0	112.10	0	7.0670	0	32.8470	0	25.716	0	111.129	0	233.3	4	78.4	4	-1E+10	1	-1E+10	1	-1E+10	1	-1E+10	1	-1E+10	1	-1E+10	1
4902551	100	C	05/22/2023	03:59	-131.255	48.049	0	113.10	0	7.0310	0	32.8780	0	25.745	0	112.120	0	231.6	4	77.8	4	-1E+10	1	-1E+10	1	-1E+10	1	-1E+10	1	-1E+10	1	-1E+10	1
4902551	100	C	05/22/2023	03:59	-131.255	48.049	0	113.80	0	6.9760	0	32.9010	0	25.770	0	112.813	0	230.2	4	77.2	4	-1E+10	1	-1E+10	1	-1E+10	1	-1E+10	1	-1E+10	1	-1E+10	1
4902551	100	C	05/22/2023	03:59	-131.255	48.049	0	114.80	0	6.8850	0	32.9490	0	25.820	0	113.804	0	228.1	4	76.4	4	-1E+10	1	-1E+10	1	-1E+10	1	-1E+10	1	-1E+10	1	-1E+10	1
4902551	100	C	05/22/2023	03:59	-131.255	48.049	0	115.80	0	6.8330	0	32.9800	0	25.852	0	114.796	0	226.6	4	75.8	4	-1E+10	1	-1E+10	1	-1E+10	1	-1E+10	1	-1E+10	1	-1E+10	1
4902551	100	C	05/22/2023	03:59	-131.255	48.049	0	116.80	0	6.8050	0	33.0020	0	25.873	0	115.787	0	225.0	4	75.2	4	-1E+10	1	-1E+10	1	-1E+10	1	-1E+10	1	-1E+10	1	-1E+10	1
4902551	100	C	05/22/2023	03:59	-131.255	48.049	0	117.90	0	6.7900	0	33.0240	0	25.892	0	116.877	0	223.6	4	74.7	4	-1E+10	1	-1E+10	1	-1E+10	1	-1E+10	1	-1E+10	1	-1E+10	1
4902551	100	C	05/22/2023	03:59	-131.255	48.049	0	119.00	0	6.7220	0	33.0970	0	25.959	0	117.967	0	222.5	4	74.3	4	-1E+10	1	-1E+10	1	-1E+10	1	-1E+10	1	-1E+10	1	-1E+10	1
4902551	100	C	05/22/2023	03:59	-131.255	48.049	0	119.90	0	6.6750	0	33.1160	0	25.980	0	118.859	0	221.8	4	74.0	4	-1E+10	1	-1E+10	1	-1E+10	1	-1E+10	1	-1E+10	1	-1E+10	1
4902551	100	C	05/22/2023	03:59	-131.255	48.049	0	120.90	0	6.6270	0	33.1400	0	26.005	0	119.850	0	220.8	4	73.6	4	-1E+10	1	-1E+10	1	-1E+10	1	-1E+10	1	-1E+10	1	-1E+10	1
4902551	100	C	05/22/2023	03:59	-131.255	48.049	0	121.90	0	6.5720	0	33.1770	0	26.041	0	120.841	0	219.7	4	73.2	4	-1E+10	1	-1E+10	1	-1E+10	1	-1E+10	1	-1E+10	1	-1E+10	1
4902551	100	C	05/22/2023	03:59	-131.255	48.049	0	122.90	0	6.5570	0	33.1990	0	26.061	0	121.832	0	218.9	4	72.9	4	-1E+10	1	-1E+10	1	-1E+10	1	-1E+10	1	-1E+10	1	-1E+10	1
4902551	100	C	05/22/2023	03:59	-131.255	48.049	0	124.10	0	6.5330	0	33.2170	0	26.078	0	123.021	0	218.1	4	72.6	4	-1E+10	1	-1E+10	1	-1E+10	1	-1E+10	1	-1E+10	1	-1E+10	1
4902551	100	C	05/22/2023	03:59	-131.255	48.049	0	124.80	0	6.5210	0	33.2220	0	26.083	0	123.715	0	217.7	4	72.4	4	-1E+10	1	-1E+10	1	-1E+10	1	-1E+10	1	-1E+10	1	-1E+10	1
4902551	100	C	05/22/2023	03:59	-131.255	48.049	0	125.90	0	6.5090	0	33.2290	0	26.090	0	124.805	0	216.8	4	72.1	4	-1E+10	1	-1E+10	1	-1E+10	1	-1E+10	1	-1E+10	1	-1E+10	1
4902551	100	C	05/22/2023	03:59	-131.255	48.049	0	127.10	0	6.4780	0	33.2550	0	26.115	0	125.994	0	215.8	4	71.8	4	-1E+10	1	-1E+10	1	-1E+10	1	-1E+10	1	-1E+10	1	-1E+10	1
4902551	100	C	05/22/2023	03:59	-131.255	48.049	0	127.80	0	6.4600	0	33.2680	0	26.128	0	126.688	0	215.2	4	71.5	4	-1E+10	1	-1E+10	1	-1E+10	1	-1E+10	1	-1E+10	1	-1E+10	1
4902551	100	C	05/22/2023	03:59	-131.255	48.049	0	129.00	0	6.4460	0	33.2810	0	26.140	0	127.877	0	214.1	4	71.1	4	-1E+10	1	-1E+10	1	-1E+10	1	-1E+10	1	-1E+10	1	-1E+10	1
4902551	100	C	05/22/2023	03:59	-131.255	48.049	0	130.20	0	6.4420	0	33.2860	0	26.144	0	129.066	0	212.9	4	70.7	4	-1E+10	1	-1E+10	1	-1E+10	1	-1E+10	1	-1E+10	1	-1E+10	1
4902551	100	C	05/22/2023	03:59	-131.255	48.049	0	131.00	0	6.4400	0	33.2980	0	26.154	0	129.859	0	212.0	4	70.4	4	-1E+10	1	-1E+10	1	-1E+10	1	-1E+10	1	-1E+10	1	-1E+10	1
4902551	100	C	05/22/2023	03:59	-131.255	48.049	0	131.80	0	6.4330	0	33.3120	0	26.166	0	130.652	0	211.2	4	70.2	4	-1E+10	1	-1E+10	1	-1E+10	1	-1E+10	1	-1E+10	1	-1E+10	1
4902551	100	C	05/22/2023	03:59	-131.255	48.049	0	133.00	0	6.4260	0	33.3240	0	26.176	0	131.841	0	209.9	4	69.7	4	-1E+10	1	-1E+10	1	-1E+10	1	-1E+10	1	-1E+10	1	-1E+10	1
4902551	100	C	05/22/2023	03:59	-131.255	48.049	0	134.20	0	6.4090	0	33.3570	0	26.204	0	133.030	0	208.6	4	69.3	4	-1E+10	1	-1E+10	1	-1E+10	1	-1E+10	1	-1E+10	1	-1E+10	1
4902551	100	C	05/22/2023	03:59	-131.255	48.049	0	135.00	0	6.4040	0	33.3630	0	26.210	0	133.823	0	207.8	4	69.0	4	-1E+10	1	-1E+10	1	-1E+10	1	-1E+10	1	-1E+10	1	-1E+10	1
4902551	100	C	05/22/2023	03:59	-131.255	48.049	0	135.80	0	6.3920	0	33.3760	0	26.222	0	134.616	0	206.8	4	68.7	4	-1E+10	1	-1E+10	1	-1E+10	1	-1E+10	1	-1E+10	1	-1E+10	1
4902551	100	C	05/22/2023	03:59	-131.255	48.049	0	136.60	0	6.3680	0	33.3920	0	26.237	0	135.408	0	206.1	4	68.4	4	-1E+10	1	-1E+10	1	-1E+10	1	-1E+10	1	-1E+10	1	-1E+10	1
4902551	100	C	05/22/2023	03:59	-131.255	48.049	0	137.90	0	6.3640	0	33.4020	0	26.246	0	136.697	0	204.9	4	68.0	4	-1E+10	1	-1E+10	1	-1E+10	1	-1E+10	1	-1E+10	1	-1E+10	1
4902551	100	C	05/22/2023	03:59	-131.255	48.049	0	139.00	0	6.3510	0	33.4220	0	26.263	0	137.787	0	203.6	4	67.6	4	-1E+10	1	-1E+10	1	-1E+10	1	-1E+10	1	-1E+10	1	-1E+10	1
4902551	100	C	05/22/2023	03:59	-131.255	48.049	0	139.90	0	6.3400	0	33.4360	0	26.276	0	138.678	0	202.7	4	67.3	4	-1E+10	1	-1E+10	1	-1E+10	1	-1E+10	1	-1E+10	1	-1E+10	1
4902551	100	C	05/22/2023	03:59	-131.255	48.049	0	140.70	0	6.3330	0	33.4440	0	26.283	0	139.471	0	202.0	4	67.0	4	-1E+10	1	-1E+10	1	-1E+10	1	-1E+10	1	-1E+10	1	-1E+10	1
4902551	100	C	05/22/2023	03:59	-131.255	48.049	0	142.00	0	6.3270	0	33.4660	0	26.301	0	140.759	0	200.6	4	66.6	4	-1E+10	1	-1E+10	1	-1E+10	1	-1E+10	1	-1E+10	1	-1E+10	1
4902551	100	C	05/22/2023	03:59	-131.255	48.049	0	143.20	0	6.3250	0	33.4720	0	26.306	0	141.948	0	199.2	4	66.1	4	-1E+10	1	-1E+10	1	-1E+10	1	-1E+10	1	-1E+10	1	-1E+10	1
4902551	100	C	05/22/2023	03:59	-131.255	48.049	0	144.00	0	6.3220	0	33.4750	0	26.309	0	142.741	0	198.2	4	65.8	4	-1E+10	1	-1E+10	1	-1E+10	1	-1E+10	1	-1E+10	1	-1E+10	1
4902551	100	C	05/22/2023	03:59	-131.255	48.049	0	144.80	0	6.3150	0	33.4810	0	26.314	0	143.534	0	197.2	4	65.4	4	-1E+10	1	-1E+10	1	-1E+10	1	-1E+10	1	-1E+10	1	-1E+10	1
4902551	100	C	05/22/2023	03:59	-131.255	48.049	0	146.00	0	6.3000	0	33.4920	0	26.325	0	144.723	0	195.5	4	64.8	4	-1E+10	1	-1E+10	1	-1E+10	1	-1E+10	1	-1E+10	1	-1E+10	1
4902551	100	C	05/22/2023	03:59	-131.255	48.049	0	147.20	0	6.2690	0	33.5090	0	26.342	0	145.912	0	194.0	4	64.3	4	-1E+10	1	-1E+10	1	-1E+10	1	-1E+10	1	-1E+10	1	-1E+10	1
4902551	100	C	05/22/2023	03:59	-131.255	48.049	0	148.00	0	6.2630	0	33.5120	0	26.346	0	146.705	0	193.0	4	64.0	4	-1E+10	1	-1E+10	1	-1E+10	1	-1E+10	1	-1E+10	1	-1E+10	1
4902551	100	C	05/22/2023	03:59	-131.255	48.049	0	148.90	0	6.2550	0	33.5140	0	26.348	0	147.597	0	191.8	4	63.5	4	-1E+10	1	-1E+10	1	-1E+10	1	-1E+10	1	-1E+10	1	-1E+10	1
4902551	100	C	05/22/2023	03:59	-131.255	48.049	0	150.00	0	6.2450	0	33.5200	0	26.354	0	148.687	0	190.0	4	63.0	4	-1E+10	1	-1E+10	1	-1E+10	1	-1E+10	1	-1E+10	1	-1E+10	1
4902551	100	C	05/22/2023	03:59	-131.255	48.049	0	151.20	0	6.2160	0	33.5350	0	26.370	0	149.876	0	188.3	4	62.3	4	-1E+10	1	-1E+10	1	-1E+10	1	-1E+10	1	-1E+10	1	-1E+10	1
4902551	100	C	05/22/2023	03:59	-131.255	48.049	0	152.00	0	6.1950	0	33.5490	0	26.383	0	150.668	0	187.2	4	62.0	4	-1E+10	1	-1E+10	1	-1E+10	1	-1E+10	1	-1E+10	1	-1E+10	1
4902551	100	C	05/22/2023	03:59	-131.255	48.049	0	152.80	0	6.1890	0	33.5540	0	26.388	0	151.461	0	186.1	4	61.6	4	-1E+10	1	-1E+10	1	-1E+10	1	-1E+10	1	-1E+10	1	-1E+10	1
4902551	100	C	05/22/2023	03:59	-131.255	48.049	0	153.70	0	6.1890	0	33.5550	0	26.389	0	152.353	0	184.8	4	61.2	4	-1E+10	1	-1E+10	1	-1E+10	1	-1E+10	1	-1E+10	1	-1E+10	1
4902551	100	C	05/22/2023	03:59	-131.255	48.049	0	154.90	0	6.1740	0	33.5680	0	26.401	0	153.542	0	182.9	4	60.5	4	-1E+10	1	-1E+10	1	-1E+10	1	-1E+10	1	-1E+10	1	-1E+10	1
4902551	100	C	05/22/2023	03:59	-131.255	48.049	0	156.20	0	6.1520	0	33.5880	0	26.420	0	154.830	0	181.2	4	59.9	4	-1E+10	1	-1E+10	1	-1E+10	1	-1E+10	1	-1E+10	1	-1E+10	1
4902551	100	C	05/22/2023	03:59	-131.255	48.049	0	157.10	0	6.1480	0	33.5880	0	26.420	0	155.722	0	180.2	4	59.6	4	-1E+10	1	-1E+10	1	-1E+10	1	-1E+10	1	-1E+10	1	-1E+10	1
4902551	100	C	05/22/2023	03:59	-131.255	48.049	0	157.90	0	6.1340	0	33.5890	0	26.423	0	156.514	0	179.0	4	59.2	4	-1E+10	1	-1E+10	1	-1E+10	1	-1E+10	1	-1E+10	1	-1E+10	1
4902551	100	C	05/22/2023	03:59	-131.255	48.049	0	158.80	0	6.1120	0	33.6060	0	26.439	0	157.406	0	178.0	4	58.8	4	-1E+10	1	-1E+10	1	-1E+10	1	-1E+10	1	-1E+10	1	-1E+10	1
4902551	100	C	05/22/2023	03:59	-131.255	48.049	0	159.70	0	6.1030	0	33.6160	0	26.448	0	158.298	0	176.8	4	58.4	4	-1E+10	1	-1E+10	1	-1E+10	1	-1E+10	1	-1E+10	1	-1E+10	1
4902551	100	C	05/22/2023	03:59	-131.255	48.049	0	160.60	0	6.0900	0	33.6290	0	26.460	0	159.190	0	175.8	4	58.1	4	-1E+10	1	-1E+10	1	-1E+10	1	-1E+10	1	-1E+10	1	-1E+10	1
4902551	100	C	05/22/2023	03:59	-131.255	48.049	0	161.50	0	6.0800	0	33.6350	0	26.466	0	160.081	0	174.9	4	57.8	4	-1E+10	1	-1E+10	1	-1E+10	1	-1E+10	1	-1E+10	1	-1E+10	1
4902551	100	C	05/22/2023	03:59	-131.255	48.049	0	162.90	0	6.1050	0	33.6470	0	26.472	0	161.469	0	173.2	4	57.3	4	-1E+10	1	-1E+10	1	-1E+10	1	-1E+10	1	-1E+10	1	-1E+10	1
4902551	100	C	05/22/2023	03:59	-131.255	48.049	0	164.40	0	6.1100	0	33.6540	0	26.477	0	162.955	0	171.2	4	56.6	4	-1E+10	1	-1E+10	1	-1E+10	1	-1E+10	1	-1E+10	1	-1E+10	1
4902551	100	C	05/22/2023	03:59	-131.255	48.049	0	165.40	0	6.0870	0	33.6620	0	26.486	0	163.946	0	169.9	4	56.1	4	-1E+10	1	-1E+10	1	-1E+10	1	-1E+10	1	-1E+10	1	-1E+10	1
4902551	100	C	05/22/2023	03:59	-131.255	48.049	0	166.40	0	6.0800	0	33.6730	0	26.496	0	164.936	0	168.5	4	55.7	4	-1E+10	1	-1E+10	1	-1E+10	1	-1E+10	1	-1E+10	1	-1E+10	1
4902551	100	C	05/22/2023	03:59	-131.255	48.049	0	167.40	0	6.0640	0	33.6710	0	26.496	0	165.927	0	167.2	4	55.2	4	-1E+10	1	-1E+10	1	-1E+10	1	-1E+10	1	-1E+10	1	-1E+10	1
4902551	100	C	05/22/2023	03:59	-131.255	48.049	0	168.40	0	6.0600	0	33.6780	0	26.502	0	166.918	0	166.1	4	54.9	4	-1E+10	1	-1E+10	1	-1E+10	1	-1E+10	1	-1E+10	1	-1E+10	1
4902551	100	C	05/22/2023	03:59	-131.255	48.049	0	169.40	0	5.9830	0	33.6810	0	26.514	0	167.909	0	165.4	4	54.5	4	-1E+10	1	-1E+10	1	-1E+10	1	-1E+10	1	-1E+10	1	-1E+10	1
4902551	100	C	05/22/2023	03:59	-131.255	48.049	0	170.50	0	5.9750	0	33.6790	0	26.514	0	168.999	0	164.6	4	54.3	4	-1E+10	1	-1E+10	1	-1E+10	1	-1E+10	1	-1E+10	1	-1E+10	1
4902551	100	C	05/22/2023	03:59	-131.255	48.049	0	171.60	0	5.9620	0	33.6830	0	26.519	0	170.089	0	163.8	4	54.0	4	-1E+10	1	-1E+10	1	-1E+10	1	-1E+10	1	-1E+10	1	-1E+10	1
4902551	100	C	05/22/2023	03:59	-131.255	48.049	0	172.60	0	5.9590	0	33.6840	0	26.520	0	171.079	0	163.0	4	53.7	4	-1E+10	1	-1E+10	1	-1E+10	1	-1E+10	1	-1E+10	1	-1E+10	1
4902551	100	C	05/22/2023	03:59	-131.255	48.049	0	173.70	0	5.9400	0	33.6900	0	26.527	0	172.169	0	162.2	4	53.4	4	-1E+10	1	-1E+10	1	-1E+10	1	-1E+10	1	-1E+10	1	-1E+10	1
4902551	100	C	05/22/2023	03:59	-131.255	48.049	0	174.80	0	5.9280	0	33.6940	0	26.532	0	173.259	0	161.4	4	53.1	4	-1E+10	1	-1E+10	1	-1E+10	1	-1E+10	1	-1E+10	1	-1E+10	1
4902551	100	C	05/22/2023	03:59	-131.255	48.049	0	175.90	0	5.9210	0	33.6960	0	26.534	0	174.349	0	160.6	4	52.9	4	-1E+10	1	-1E+10	1	-1E+10	1	-1E+10	1	-1E+10	1	-1E+10	1
4902551	100	C	05/22/2023	03:59	-131.255	48.049	0	177.00	0	5.9040	0	33.7020	0	26.541	0	175.439	0	159.9	4	52.6	4	-1E+10	1	-1E+10	1	-1E+10	1	-1E+10	1	-1E+10	1	-1E+10	1
4902551	100	C	05/22/2023	03:59	-131.255	48.049	0	178.10	0	5.8930	0	33.7010	0	26.542	0	176.529	0	159.3	4	52.4	4	-1E+10	1	-1E+10	1	-1E+10	1	-1E+10	1	-1E+10	1	-1E+10	1
4902551	100	C	05/22/2023	03:59	-131.255	48.049	0	179.20	0	5.8820	0	33.7050	0	26.546	0	177.618	0	158.7	4	52.2	4	-1E+10	1	-1E+10	1	-1E+10	1	-1E+10	1	-1E+10	1	-1E+10	1
4902551	100	C	05/22/2023	03:59	-131.255	48.049	0	180.30	0	5.8620	0	33.7090	0	26.552	0	178.708	0	158.1	4	52.0	4	-1E+10	1	-1E+10	1	-1E+10	1	-1E+10	1	-1E+10	1	-1E+10	1
4902551	100	C	05/22/2023	03:59	-131.255	48.049	0	181.40	0	5.8610	0	33.7090	0	26.552	0	179.798	0	157.7	4	51.8	4	-1E+10	1	-1E+10	1	-1E+10	1	-1E+10	1	-1E+10	1	-1E+10	1
4902551	100	C	05/22/2023	03:59	-131.255	48.049	0	182.50	0	5.8580	0	33.7100	0	26.553	0	180.888	0	157.0	4	51.6	4	-1E+10	1	-1E+10	1	-1E+10	1	-1E+10	1	-1E+10	1	-1E+10	1
4902551	100	C	05/22/2023	03:59	-131.255	48.049	0	183.70	0	5.8560	0	33.7100	0	26.553	0	182.077	0	156.3	4	51.4	4	-1E+10	1	-1E+10	1	-1E+10	1	-1E+10	1	-1E+10	1	-1E+10	1
4902551	100	C	05/22/2023	03:59	-131.255	48.049	0	184.80	0	5.8540	0	33.7100	0	26.553	0	183.166	0	155.7	4	51.2	4	-1E+10	1	-1E+10	1	-1E+10	1	-1E+10	1	-1E+10	1	-1E+10	1
4902551	100	C	05/22/2023	03:59	-131.255	48.049	0	186.00	0	5.8480	0	33.7110	0	26.555	0	184.355	0	154.9	4	50.9	4	-1E+10	1	-1E+10	1	-1E+10	1	-1E+10	1	-1E+10	1	-1E+10	1
4902551	100	C	05/22/2023	03:59	-131.255	48.049	0	187.10	0	5.8050	0	33.7230	0	26.570	0	185.445	0	154.4	4	50.7	4	-1E+10	1	-1E+10	1	-1E+10	1	-1E+10	1	-1E+10	1	-1E+10	1
4902551	100	C	05/22/2023	03:59	-131.255	48.049	0	188.30	0	5.8040	0	33.7230	0	26.570	0	186.634	0	153.8	4	50.5	4	-1E+10	1	-1E+10	1	-1E+10	1	-1E+10	1	-1E+10	1	-1E+10	1
4902551	100	C	05/22/2023	03:59	-131.255	48.049	0	189.50	0	5.7950	0	33.7250	0	26.573	0	187.823	0	153.4	4	50.4	4	-1E+10	1	-1E+10	1	-1E+10	1	-1E+10	1	-1E+10	1	-1E+10	1
4902551	100	C	05/22/2023	03:59	-131.255	48.049	0	190.60	0	5.7880	0	33.7260	0	26.574	0	188.913	0	152.8	4	50.2	4	-1E+10	1	-1E+10	1	-1E+10	1	-1E+10	1	-1E+10	1	-1E+10	1
4902551	100	C	05/22/2023	03:59	-131.255	48.049	0	191.80	0	5.7850	0	33.7260	0	26.575	0	190.101	0	152.2	4	50.0	4	-1E+10	1	-1E+10	1	-1E+10	1	-1E+10	1	-1E+10	1	-1E+10	1
4902551	100	C	05/22/2023	03:59	-131.255	48.049	0	193.00	0	5.7830	0	33.7270	0	26.576	0	191.290	0	151.5	4	49.7	4	-1E+10	1	-1E+10	1	-1E+10	1	-1E+10	1	-1E+10	1	-1E+10	1
4902551	100	C	05/22/2023	03:59	-131.255	48.049	0	194.10	0	5.7780	0	33.7270	0	26.576	0	192.380	0	150.8	4	49.5	4	-1E+10	1	-1E+10	1	-1E+10	1	-1E+10	1	-1E+10	1	-1E+10	1
4902551	100	C	05/22/2023	03:59	-131.255	48.049	0	195.30	0	5.7750	0	33.7270	0	26.577	0	193.569	0	150.1	4	49.3	4	-1E+10	1	-1E+10	1	-1E+10	1	-1E+10	1	-1E+10	1	-1E+10	1
4902551	100	C	05/22/2023	03:59	-131.255	48.049	0	196.50	0	5.7750	0	33.7280	0	26.578	0	194.757	0	149.2	4	49.0	4	-1E+10	1	-1E+10	1	-1E+10	1	-1E+10	1	-1E+10	1	-1E+10	1
4902551	100	C	05/22/2023	03:59	-131.255	48.049	0	197.70	0	5.7750	0	33.7270	0	26.577	0	195.946	0	148.1	4	48.6	4	-1E+10	1	-1E+10	1	-1E+10	1	-1E+10	1	-1E+10	1	-1E+10	1
4902551	100	C	05/22/2023	03:59	-131.255	48.049	0	198.80	0	5.7730	0	33.7270	0	26.577	0	197.036	0	147.1	4	48.3	4	-1E+10	1	-1E+10	1	-1E+10	1	-1E+10	1	-1E+10	1	-1E+10	1
4902551	100	C	05/22/2023	03:59	-131.255	48.049	0	200.00	0	5.7660	0	33.7280	0	26.579	0	198.225	0	145.7	4	47.8	4	-1E+10	1	-1E+10	1	-1E+10	1	-1E+10	1	-1E+10	1	-1E+10	1
4902551	100	C	05/22/2023	03:59	-131.255	48.049	0	201.20	0	5.7400	0	33.7340	0	26.587	0	199.414	0	144.3	4	47.3	4	-1E+10	1	-1E+10	1	-1E+10	1	-1E+10	1	-1E+10	1	-1E+10	1
4902551	100	C	05/22/2023	03:59	-131.255	48.049	0	202.30	0	5.7280	0	33.7380	0	26.591	0	200.503	0	143.2	4	47.0	4	-1E+10	1	-1E+10	1	-1E+10	1	-1E+10	1	-1E+10	1	-1E+10	1
4902551	100	C	05/22/2023	03:59	-131.255	48.049	0	203.50	0	5.7040	0	33.7380	0	26.594	0	201.692	0	142.0	4	46.5	4	-1E+10	1	-1E+10	1	-1E+10	1	-1E+10	1	-1E+10	1	-1E+10	1
4902551	100	C	05/22/2023	03:59	-131.255	48.049	0	204.70	0	5.6540	0	33.7420	0	26.603	0	202.881	0	141.1	4	46.2	4	-1E+10	1	-1E+10	1	-1E+10	1	-1E+10	1	-1E+10	1	-1E+10	1
4902551	100	C	05/22/2023	03:59	-131.255	48.049	0	205.80	0	5.6330	0	33.7440	0	26.607	0	203.970	0	140.3	4	45.9	4	-1E+10	1	-1E+10	1	-1E+10	1	-1E+10	1	-1E+10	1	-1E+10	1
4902551	100	C	05/22/2023	03:59	-131.255	48.049	0	207.00	0	5.6160	0	33.7440	0	26.610	0	205.159	0	139.4	4	45.6	4	-1E+10	1	-1E+10	1	-1E+10	1	-1E+10	1	-1E+10	1	-1E+10	1
4902551	100	C	05/22/2023	03:59	-131.255	48.049	0	208.20	0	5.5860	0	33.7460	0	26.615	0	206.348	0	138.7	4	45.3	4	-1E+10	1	-1E+10	1	-1E+10	1	-1E+10	1	-1E+10	1	-1E+10	1
4902551	100	C	05/22/2023	03:59	-131.255	48.049	0	209.30	0	5.5740	0	33.7470	0	26.617	0	207.438	0	137.9	4	45.1	4	-1E+10	1	-1E+10	1	-1E+10	1	-1E+10	1	-1E+10	1	-1E+10	1
4902551	100	C	05/22/2023	03:59	-131.255	48.049	0	210.50	0	5.5690	0	33.7470	0	26.618	0	208.626	0	137.2	4	44.8	4	-1E+10	1	-1E+10	1	-1E+10	1	-1E+10	1	-1E+10	1	-1E+10	1
4902551	100	C	05/22/2023	03:59	-131.255	48.049	0	211.60	0	5.5540	0	33.7480	0	26.620	0	209.716	0	136.4	4	44.5	4	-1E+10	1	-1E+10	1	-1E+10	1	-1E+10	1	-1E+10	1	-1E+10	1
4902551	100	C	05/22/2023	03:59	-131.255	48.049	0	212.70	0	5.5540	0	33.7480	0	26.620	0	210.806	0	135.5	4	44.2	4	-1E+10	1	-1E+10	1	-1E+10	1	-1E+10	1	-1E+10	1	-1E+10	1
4902551	100	C	05/22/2023	03:59	-131.255	48.049	0	213.80	0	5.5490	0	33.7490	0	26.622	0	211.895	0	134.5	4	43.9	4	-1E+10	1	-1E+10	1	-1E+10	1	-1E+10	1	-1E+10	1	-1E+10	1
4902551	100	C	05/22/2023	03:59	-131.255	48.049	0	214.90	0	5.5450	0	33.7480	0	26.621	0	212.985	0	133.4	4	43.6	4	-1E+10	1	-1E+10	1	-1E+10	1	-1E+10	1	-1E+10	1	-1E+10	1
4902551	100	C	05/22/2023	03:59	-131.255	48.049	0	216.00	0	5.5070	0	33.7540	0	26.631	0	214.074	0	132.5	4	43.2	4	-1E+10	1	-1E+10	1	-1E+10	1	-1E+10	1	-1E+10	1	-1E+10	1
4902551	100	C	05/22/2023	03:59	-131.255	48.049	0	217.10	0	5.4890	0	33.7520	0	26.631	0	215.164	0	131.8	4	43.0	4	-1E+10	1	-1E+10	1	-1E+10	1	-1E+10	1	-1E+10	1	-1E+10	1
4902551	100	C	05/22/2023	03:59	-131.255	48.049	0	218.20	0	5.4740	0	33.7520	0	26.633	0	216.254	0	131.0	4	42.7	4	-1E+10	1	-1E+10	1	-1E+10	1	-1E+10	1	-1E+10	1	-1E+10	1
4902551	100	C	05/22/2023	03:59	-131.255	48.049	0	219.30	0	5.4610	0	33.7540	0	26.636	0	217.343	0	130.2	4	42.4	4	-1E+10	1	-1E+10	1	-1E+10	1	-1E+10	1	-1E+10	1	-1E+10	1
4902551	100	C	05/22/2023	03:59	-131.255	48.049	0	220.40	0	5.4550	0	33.7530	0	26.636	0	218.433	0	129.3	4	42.1	4	-1E+10	1	-1E+10	1	-1E+10	1	-1E+10	1	-1E+10	1	-1E+10	1
4902551	100	C	05/22/2023	03:59	-131.255	48.049	0	221.40	0	5.4520	0	33.7520	0	26.636	0	219.423	0	128.2	4	41.8	4	-1E+10	1	-1E+10	1	-1E+10	1	-1E+10	1	-1E+10	1	-1E+10	1
4902551	100	C	05/22/2023	03:59	-131.255	48.049	0	222.50	0	5.4300	0	33.7530	0	26.639	0	220.513	0	127.3	4	41.4	4	-1E+10	1	-1E+10	1	-1E+10	1	-1E+10	1	-1E+10	1	-1E+10	1
4902551	100	C	05/22/2023	03:59	-131.255	48.049	0	223.60	0	5.4050	0	33.7550	0	26.644	0	221.603	0	126.3	4	41.1	4	-1E+10	1	-1E+10	1	-1E+10	1	-1E+10	1	-1E+10	1	-1E+10	1
4902551	100	C	05/22/2023	03:59	-131.255	48.049	0	224.60	0	5.3850	0	33.7570	0	26.647	0	222.593	0	125.4	4	40.8	4	-1E+10	1	-1E+10	1	-1E+10	1	-1E+10	1	-1E+10	1	-1E+10	1
4902551	100	C	05/22/2023	03:59	-131.255	48.049	0	225.70	0	5.3580	0	33.7570	0	26.651	0	223.683	0	124.5	4	40.5	4	-1E+10	1	-1E+10	1	-1E+10	1	-1E+10	1	-1E+10	1	-1E+10	1
4902551	100	C	05/22/2023	03:59	-131.255	48.049	0	226.70	0	5.3370	0	33.7580	0	26.654	0	224.673	0	123.7	4	40.2	4	-1E+10	1	-1E+10	1	-1E+10	1	-1E+10	1	-1E+10	1	-1E+10	1
4902551	100	C	05/22/2023	03:59	-131.255	48.049	0	227.70	0	5.3140	0	33.7600	0	26.658	0	225.664	0	122.9	4	39.9	4	-1E+10	1	-1E+10	1	-1E+10	1	-1E+10	1	-1E+10	1	-1E+10	1
4902551	100	C	05/22/2023	03:59	-131.255	48.049	0	228.70	0	5.3080	0	33.7580	0	26.657	0	226.654	0	122.1	4	39.7	4	-1E+10	1	-1E+10	1	-1E+10	1	-1E+10	1	-1E+10	1	-1E+10	1
4902551	100	C	05/22/2023	03:59	-131.255	48.049	0	229.80	0	5.2950	0	33.7610	0	26.661	0	227.744	0	121.3	4	39.4	4	-1E+10	1	-1E+10	1	-1E+10	1	-1E+10	1	-1E+10	1	-1E+10	1
4902551	100	C	05/22/2023	03:59	-131.255	48.049	0	230.80	0	5.2900	0	33.7580	0	26.659	0	228.734	0	120.3	4	39.0	4	-1E+10	1	-1E+10	1	-1E+10	1	-1E+10	1	-1E+10	1	-1E+10	1
4902551	100	C	05/22/2023	03:59	-131.255	48.049	0	231.80	0	5.2620	0	33.7620	0	26.666	0	229.725	0	119.3	4	38.7	4	-1E+10	1	-1E+10	1	-1E+10	1	-1E+10	1	-1E+10	1	-1E+10	1
4902551	100	C	05/22/2023	03:59	-131.255	48.049	0	232.80	0	5.2490	0	33.7700	0	26.674	0	230.715	0	118.4	4	38.4	4	-1E+10	1	-1E+10	1	-1E+10	1	-1E+10	1	-1E+10	1	-1E+10	1
4902551	100	C	05/22/2023	03:59	-131.255	48.049	0	233.90	0	5.2260	0	33.7660	0	26.673	0	231.805	0	117.6	4	38.1	4	-1E+10	1	-1E+10	1	-1E+10	1	-1E+10	1	-1E+10	1	-1E+10	1
4902551	100	C	05/22/2023	03:59	-131.255	48.049	0	234.90	0	5.1980	0	33.7670	0	26.677	0	232.795	0	117.0	4	37.9	4	-1E+10	1	-1E+10	1	-1E+10	1	-1E+10	1	-1E+10	1	-1E+10	1
4902551	100	C	05/22/2023	03:59	-131.255	48.049	0	235.90	0	5.1790	0	33.7690	0	26.681	0	233.786	0	116.4	4	37.7	4	-1E+10	1	-1E+10	1	-1E+10	1	-1E+10	1	-1E+10	1	-1E+10	1
4902551	100	C	05/22/2023	03:59	-131.255	48.049	0	236.90	0	5.1670	0	33.7710	0	26.684	0	234.776	0	115.8	4	37.5	4	-1E+10	1	-1E+10	1	-1E+10	1	-1E+10	1	-1E+10	1	-1E+10	1
4902551	100	C	05/22/2023	03:59	-131.255	48.049	0	237.80	0	5.1560	0	33.7700	0	26.685	0	235.668	0	115.2	4	37.3	4	-1E+10	1	-1E+10	1	-1E+10	1	-1E+10	1	-1E+10	1	-1E+10	1
4902551	100	C	05/22/2023	03:59	-131.255	48.049	0	238.80	0	5.1470	0	33.7710	0	26.686	0	236.658	0	114.6	4	37.1	4	-1E+10	1	-1E+10	1	-1E+10	1	-1E+10	1	-1E+10	1	-1E+10	1
4902551	100	C	05/22/2023	03:59	-131.255	48.049	0	239.80	0	5.1410	0	33.7720	0	26.688	0	237.649	0	114.0	4	36.9	4	-1E+10	1	-1E+10	1	-1E+10	1	-1E+10	1	-1E+10	1	-1E+10	1
4902551	100	C	05/22/2023	03:59	-131.255	48.049	0	240.80	0	5.1330	0	33.7720	0	26.689	0	238.639	0	113.4	4	36.7	4	-1E+10	1	-1E+10	1	-1E+10	1	-1E+10	1	-1E+10	1	-1E+10	1
4902551	100	C	05/22/2023	03:59	-131.255	48.049	0	241.80	0	5.1200	0	33.7740	0	26.692	0	239.630	0	112.8	4	36.5	4	-1E+10	1	-1E+10	1	-1E+10	1	-1E+10	1	-1E+10	1	-1E+10	1
4902551	100	C	05/22/2023	03:59	-131.255	48.049	0	242.80	0	5.1170	0	33.7740	0	26.692	0	240.620	0	112.2	4	36.3	4	-1E+10	1	-1E+10	1	-1E+10	1	-1E+10	1	-1E+10	1	-1E+10	1
4902551	100	C	05/22/2023	03:59	-131.255	48.049	0	243.80	0	5.1030	0	33.7750	0	26.695	0	241.610	0	111.7	4	36.1	4	-1E+10	1	-1E+10	1	-1E+10	1	-1E+10	1	-1E+10	1	-1E+10	1
4902551	100	C	05/22/2023	03:59	-131.255	48.049	0	244.80	0	5.1010	0	33.7740	0	26.694	0	242.601	0	111.0	4	35.9	4	-1E+10	1	-1E+10	1	-1E+10	1	-1E+10	1	-1E+10	1	-1E+10	1
4902551	100	C	05/22/2023	03:59	-131.255	48.049	0	245.70	0	5.0910	0	33.7760	0	26.697	0	243.492	0	110.4	4	35.7	4	-1E+10	1	-1E+10	1	-1E+10	1	-1E+10	1	-1E+10	1	-1E+10	1
4902551	100	C	05/22/2023	03:59	-131.255	48.049	0	247.00	0	5.0820	0	33.7770	0	26.699	0	244.780	0	109.5	4	35.4	4	-1E+10	1	-1E+10	1	-1E+10	1	-1E+10	1	-1E+10	1	-1E+10	1
4902551	100	C	05/22/2023	03:59	-131.255	48.049	0	248.90	0	5.0550	0	33.7790	0	26.703	0	246.662	0	108.1	4	34.9	4	-1E+10	1	-1E+10	1	-1E+10	1	-1E+10	1	-1E+10	1	-1E+10	1
4902551	100	C	05/22/2023	03:59	-131.255	48.049	0	250.00	0	5.0470	0	33.7800	0	26.705	0	247.751	0	107.1	4	34.6	4	-1E+10	1	-1E+10	1	-1E+10	1	-1E+10	1	-1E+10	1	-1E+10	1
4902551	100	C	05/22/2023	03:59	-131.255	48.049	0	250.80	0	5.0420	0	33.7800	0	26.706	0	248.543	0	106.4	4	34.3	4	-1E+10	1	-1E+10	1	-1E+10	1	-1E+10	1	-1E+10	1	-1E+10	1
4902551	100	C	05/22/2023	03:59	-131.255	48.049	0	251.80	0	5.0310	0	33.7820	0	26.708	0	249.534	0	105.4	4	34.0	4	-1E+10	1	-1E+10	1	-1E+10	1	-1E+10	1	-1E+10	1	-1E+10	1
4902551	100	C	05/22/2023	03:59	-131.255	48.049	0	253.00	0	5.0220	0	33.7830	0	26.710	0	250.722	0	104.2	4	33.6	4	-1E+10	1	-1E+10	1	-1E+10	1	-1E+10	1	-1E+10	1	-1E+10	1
4902551	100	C	05/22/2023	03:59	-131.255	48.049	0	254.00	0	5.0110	0	33.7840	0	26.712	0	251.713	0	103.1	4	33.2	4	-1E+10	1	-1E+10	1	-1E+10	1	-1E+10	1	-1E+10	1	-1E+10	1
4902551	100	C	05/22/2023	03:59	-131.255	48.049	0	255.10	0	4.9990	0	33.7850	0	26.714	0	252.802	0	101.9	4	32.9	4	-1E+10	1	-1E+10	1	-1E+10	1	-1E+10	1	-1E+10	1	-1E+10	1
4902551	100	C	05/22/2023	03:59	-131.255	48.049	0	255.80	0	4.9770	0	33.7900	0	26.721	0	253.495	0	101.1	4	32.6	4	-1E+10	1	-1E+10	1	-1E+10	1	-1E+10	1	-1E+10	1	-1E+10	1
4902551	100	C	05/22/2023	03:59	-131.255	48.049	0	257.00	0	4.9500	0	33.7930	0	26.726	0	254.684	0	100.2	4	32.3	4	-1E+10	1	-1E+10	1	-1E+10	1	-1E+10	1	-1E+10	1	-1E+10	1
4902551	100	C	05/22/2023	03:59	-131.255	48.049	0	258.10	0	4.9430	0	33.7940	0	26.728	0	255.773	0	99.6	4	32.1	4	-1E+10	1	-1E+10	1	-1E+10	1	-1E+10	1	-1E+10	1	-1E+10	1
4902551	100	C	05/22/2023	03:59	-131.255	48.049	0	258.90	0	4.9320	0	33.7960	0	26.731	0	256.565	0	99.3	4	32.0	4	-1E+10	1	-1E+10	1	-1E+10	1	-1E+10	1	-1E+10	1	-1E+10	1
4902551	100	C	05/22/2023	03:59	-131.255	48.049	0	260.00	0	4.9180	0	33.7960	0	26.732	0	257.655	0	98.7	4	31.8	4	-1E+10	1	-1E+10	1	-1E+10	1	-1E+10	1	-1E+10	1	-1E+10	1
4902551	100	C	05/22/2023	03:59	-131.255	48.049	0	261.20	0	4.9080	0	33.7980	0	26.735	0	258.843	0	98.1	4	31.6	4	-1E+10	1	-1E+10	1	-1E+10	1	-1E+10	1	-1E+10	1	-1E+10	1
4902551	100	C	05/22/2023	03:59	-131.255	48.049	0	261.90	0	4.8980	0	33.8020	0	26.739	0	259.537	0	97.7	4	31.4	4	-1E+10	1	-1E+10	1	-1E+10	1	-1E+10	1	-1E+10	1	-1E+10	1
4902551	100	C	05/22/2023	03:59	-131.255	48.049	0	262.70	0	4.8930	0	33.8000	0	26.738	0	260.329	0	97.4	4	31.3	4	-1E+10	1	-1E+10	1	-1E+10	1	-1E+10	1	-1E+10	1	-1E+10	1
4902551	100	C	05/22/2023	03:59	-131.255	48.049	0	263.90	0	4.8870	0	33.8010	0	26.740	0	261.517	0	96.9	4	31.2	4	-1E+10	1	-1E+10	1	-1E+10	1	-1E+10	1	-1E+10	1	-1E+10	1
4902551	100	C	05/22/2023	03:59	-131.255	48.049	0	265.10	0	4.8770	0	33.8010	0	26.741	0	262.706	0	96.3	4	31.0	4	-1E+10	1	-1E+10	1	-1E+10	1	-1E+10	1	-1E+10	1	-1E+10	1
4902551	100	C	05/22/2023	03:59	-131.255	48.049	0	265.90	0	4.8710	0	33.8020	0	26.742	0	263.498	0	95.9	4	30.8	4	-1E+10	1	-1E+10	1	-1E+10	1	-1E+10	1	-1E+10	1	-1E+10	1
4902551	100	C	05/22/2023	03:59	-131.255	48.049	0	266.70	0	4.8680	0	33.8010	0	26.742	0	264.290	0	95.5	4	30.7	4	-1E+10	1	-1E+10	1	-1E+10	1	-1E+10	1	-1E+10	1	-1E+10	1
4902551	100	C	05/22/2023	03:59	-131.255	48.049	0	267.90	0	4.8350	0	33.8080	0	26.751	0	265.479	0	95.0	4	30.5	4	-1E+10	1	-1E+10	1	-1E+10	1	-1E+10	1	-1E+10	1	-1E+10	1
4902551	100	C	05/22/2023	03:59	-131.255	48.049	0	269.20	0	4.8320	0	33.8060	0	26.750	0	266.766	0	94.5	4	30.4	4	-1E+10	1	-1E+10	1	-1E+10	1	-1E+10	1	-1E+10	1	-1E+10	1
4902551	100	C	05/22/2023	03:59	-131.255	48.049	0	270.00	0	4.8290	0	33.8060	0	26.750	0	267.558	0	94.1	4	30.2	4	-1E+10	1	-1E+10	1	-1E+10	1	-1E+10	1	-1E+10	1	-1E+10	1
4902551	100	C	05/22/2023	03:59	-131.255	48.049	0	270.90	0	4.8250	0	33.8080	0	26.752	0	268.449	0	93.7	4	30.1	4	-1E+10	1	-1E+10	1	-1E+10	1	-1E+10	1	-1E+10	1	-1E+10	1
4902551	100	C	05/22/2023	03:59	-131.255	48.049	0	271.70	0	4.8230	0	33.8070	0	26.752	0	269.242	0	93.3	4	29.9	4	-1E+10	1	-1E+10	1	-1E+10	1	-1E+10	1	-1E+10	1	-1E+10	1
4902551	100	C	05/22/2023	03:59	-131.255	48.049	0	272.60	0	4.8150	0	33.8080	0	26.753	0	270.133	0	92.9	4	29.8	4	-1E+10	1	-1E+10	1	-1E+10	1	-1E+10	1	-1E+10	1	-1E+10	1
4902551	100	C	05/22/2023	03:59	-131.255	48.049	0	273.90	0	4.8060	0	33.8110	0	26.757	0	271.420	0	92.2	4	29.6	4	-1E+10	1	-1E+10	1	-1E+10	1	-1E+10	1	-1E+10	1	-1E+10	1
4902551	100	C	05/22/2023	03:59	-131.255	48.049	0	275.30	0	4.7980	0	33.8120	0	26.759	0	272.807	0	91.6	4	29.4	4	-1E+10	1	-1E+10	1	-1E+10	1	-1E+10	1	-1E+10	1	-1E+10	1
4902551	100	C	05/22/2023	03:59	-131.255	48.049	0	276.20	0	4.7940	0	33.8130	0	26.760	0	273.698	0	91.2	4	29.3	4	-1E+10	1	-1E+10	1	-1E+10	1	-1E+10	1	-1E+10	1	-1E+10	1
4902551	100	C	05/22/2023	03:59	-131.255	48.049	0	277.10	0	4.7920	0	33.8130	0	26.760	0	274.589	0	90.7	4	29.1	4	-1E+10	1	-1E+10	1	-1E+10	1	-1E+10	1	-1E+10	1	-1E+10	1
4902551	100	C	05/22/2023	03:59	-131.255	48.049	0	278.00	0	4.7880	0	33.8140	0	26.761	0	275.481	0	90.3	4	29.0	4	-1E+10	1	-1E+10	1	-1E+10	1	-1E+10	1	-1E+10	1	-1E+10	1
4902551	100	C	05/22/2023	03:59	-131.255	48.049	0	278.90	0	4.7820	0	33.8170	0	26.764	0	276.372	0	89.8	4	28.8	4	-1E+10	1	-1E+10	1	-1E+10	1	-1E+10	1	-1E+10	1	-1E+10	1
4902551	100	C	05/22/2023	03:59	-131.255	48.049	0	279.90	0	4.7700	0	33.8180	0	26.766	0	277.362	0	89.4	4	28.7	4	-1E+10	1	-1E+10	1	-1E+10	1	-1E+10	1	-1E+10	1	-1E+10	1
4902551	100	C	05/22/2023	03:59	-131.255	48.049	0	280.80	0	4.7590	0	33.8210	0	26.770	0	278.253	0	89.1	4	28.6	4	-1E+10	1	-1E+10	1	-1E+10	1	-1E+10	1	-1E+10	1	-1E+10	1
4902551	100	C	05/22/2023	03:59	-131.255	48.049	0	281.80	0	4.7560	0	33.8210	0	26.770	0	279.244	0	88.7	4	28.4	4	-1E+10	1	-1E+10	1	-1E+10	1	-1E+10	1	-1E+10	1	-1E+10	1
4902551	100	C	05/22/2023	03:59	-131.255	48.049	0	282.70	0	4.7540	0	33.8210	0	26.771	0	280.135	0	88.3	4	28.3	4	-1E+10	1	-1E+10	1	-1E+10	1	-1E+10	1	-1E+10	1	-1E+10	1
4902551	100	C	05/22/2023	03:59	-131.255	48.049	0	283.70	0	4.7510	0	33.8220	0	26.772	0	281.125	0	87.9	4	28.2	4	-1E+10	1	-1E+10	1	-1E+10	1	-1E+10	1	-1E+10	1	-1E+10	1
4902551	100	C	05/22/2023	03:59	-131.255	48.049	0	284.60	0	4.7500	0	33.8210	0	26.771	0	282.016	0	87.4	4	28.0	4	-1E+10	1	-1E+10	1	-1E+10	1	-1E+10	1	-1E+10	1	-1E+10	1
4902551	100	C	05/22/2023	03:59	-131.255	48.049	0	285.60	0	4.7480	0	33.8220	0	26.772	0	283.006	0	86.9	4	27.9	4	-1E+10	1	-1E+10	1	-1E+10	1	-1E+10	1	-1E+10	1	-1E+10	1
4902551	100	C	05/22/2023	03:59	-131.255	48.049	0	286.80	0	4.7420	0	33.8240	0	26.774	0	284.195	0	86.3	4	27.7	4	-1E+10	1	-1E+10	1	-1E+10	1	-1E+10	1	-1E+10	1	-1E+10	1
4902551	100	C	05/22/2023	03:59	-131.255	48.049	0	288.20	0	4.7310	0	33.8270	0	26.778	0	285.581	0	85.5	4	27.4	4	-1E+10	1	-1E+10	1	-1E+10	1	-1E+10	1	-1E+10	1	-1E+10	1
4902551	100	C	05/22/2023	03:59	-131.255	48.049	0	289.00	0	4.7250	0	33.8270	0	26.779	0	286.373	0	85.2	4	27.3	4	-1E+10	1	-1E+10	1	-1E+10	1	-1E+10	1	-1E+10	1	-1E+10	1
4902551	100	C	05/22/2023	03:59	-131.255	48.049	0	290.00	0	4.7190	0	33.8280	0	26.780	0	287.363	0	84.7	4	27.1	4	-1E+10	1	-1E+10	1	-1E+10	1	-1E+10	1	-1E+10	1	-1E+10	1
4902551	100	C	05/22/2023	03:59	-131.255	48.049	0	291.10	0	4.7160	0	33.8280	0	26.780	0	288.453	0	84.1	4	26.9	4	-1E+10	1	-1E+10	1	-1E+10	1	-1E+10	1	-1E+10	1	-1E+10	1
4902551	100	C	05/22/2023	03:59	-131.255	48.049	0	291.80	0	4.7150	0	33.8290	0	26.781	0	289.146	0	83.7	4	26.8	4	-1E+10	1	-1E+10	1	-1E+10	1	-1E+10	1	-1E+10	1	-1E+10	1
4902551	100	C	05/22/2023	03:59	-131.255	48.049	0	292.90	0	4.7130	0	33.8290	0	26.782	0	290.235	0	83.0	4	26.6	4	-1E+10	1	-1E+10	1	-1E+10	1	-1E+10	1	-1E+10	1	-1E+10	1
4902551	100	C	05/22/2023	03:59	-131.255	48.049	0	294.10	0	4.7020	0	33.8310	0	26.784	0	291.423	0	82.3	4	26.3	4	-1E+10	1	-1E+10	1	-1E+10	1	-1E+10	1	-1E+10	1	-1E+10	1
4902551	100	C	05/22/2023	03:59	-131.255	48.049	0	294.80	0	4.6950	0	33.8310	0	26.785	0	292.116	0	81.8	4	26.2	4	-1E+10	1	-1E+10	1	-1E+10	1	-1E+10	1	-1E+10	1	-1E+10	1
4902551	100	C	05/22/2023	03:59	-131.255	48.049	0	295.90	0	4.6890	0	33.8320	0	26.787	0	293.206	0	81.0	4	25.9	4	-1E+10	1	-1E+10	1	-1E+10	1	-1E+10	1	-1E+10	1	-1E+10	1
4902551	100	C	05/22/2023	03:59	-131.255	48.049	0	297.10	0	4.6810	0	33.8340	0	26.789	0	294.394	0	80.4	4	25.7	4	-1E+10	1	-1E+10	1	-1E+10	1	-1E+10	1	-1E+10	1	-1E+10	1
4902551	100	C	05/22/2023	03:59	-131.255	48.049	0	297.90	0	4.6770	0	33.8350	0	26.790	0	295.186	0	79.9	4	25.6	4	-1E+10	1	-1E+10	1	-1E+10	1	-1E+10	1	-1E+10	1	-1E+10	1
4902551	100	C	05/22/2023	03:59	-131.255	48.049	0	299.00	0	4.6730	0	33.8350	0	26.791	0	296.275	0	79.2	4	25.4	4	-1E+10	1	-1E+10	1	-1E+10	1	-1E+10	1	-1E+10	1	-1E+10	1
4902551	100	C	05/22/2023	03:59	-131.255	48.049	0	300.20	0	4.6660	0	33.8370	0	26.793	0	297.463	0	78.6	4	25.2	4	-1E+10	1	-1E+10	1	-1E+10	1	-1E+10	1	-1E+10	1	-1E+10	1
4902551	100	C	05/22/2023	03:59	-131.255	48.049	0	301.00	0	4.6590	0	33.8390	0	26.795	0	298.256	0	78.3	4	25.0	4	-1E+10	1	-1E+10	1	-1E+10	1	-1E+10	1	-1E+10	1	-1E+10	1
4902551	100	C	05/22/2023	03:59	-131.255	48.049	0	301.80	0	4.6530	0	33.8400	0	26.797	0	299.048	0	77.9	4	24.9	4	-1E+10	1	-1E+10	1	-1E+10	1	-1E+10	1	-1E+10	1	-1E+10	1
4902551	100	C	05/22/2023	03:59	-131.255	48.049	0	303.00	0	4.6460	0	33.8410	0	26.799	0	300.236	0	77.2	4	24.7	4	-1E+10	1	-1E+10	1	-1E+10	1	-1E+10	1	-1E+10	1	-1E+10	1
4902551	100	C	05/22/2023	03:59	-131.255	48.049	0	304.20	0	4.6390	0	33.8430	0	26.801	0	301.424	0	76.5	4	24.5	4	-1E+10	1	-1E+10	1	-1E+10	1	-1E+10	1	-1E+10	1	-1E+10	1
4902551	100	C	05/22/2023	03:59	-131.255	48.049	0	305.00	0	4.6350	0	33.8440	0	26.802	0	302.216	0	76.2	4	24.4	4	-1E+10	1	-1E+10	1	-1E+10	1	-1E+10	1	-1E+10	1	-1E+10	1
4902551	100	C	05/22/2023	03:59	-131.255	48.049	0	305.80	0	4.6310	0	33.8450	0	26.803	0	303.008	0	75.7	4	24.2	4	-1E+10	1	-1E+10	1	-1E+10	1	-1E+10	1	-1E+10	1	-1E+10	1
4902551	100	C	05/22/2023	03:59	-131.255	48.049	0	306.70	0	4.6290	0	33.8450	0	26.804	0	303.899	0	75.2	4	24.1	4	-1E+10	1	-1E+10	1	-1E+10	1	-1E+10	1	-1E+10	1	-1E+10	1
4902551	100	C	05/22/2023	03:59	-131.255	48.049	0	307.90	0	4.6190	0	33.8470	0	26.806	0	305.088	0	74.5	4	23.8	4	-1E+10	1	-1E+10	1	-1E+10	1	-1E+10	1	-1E+10	1	-1E+10	1
4902551	100	C	05/22/2023	03:59	-131.255	48.049	0	309.20	0	4.6100	0	33.8510	0	26.810	0	306.375	0	73.8	4	23.6	4	-1E+10	1	-1E+10	1	-1E+10	1	-1E+10	1	-1E+10	1	-1E+10	1
4902551	100	C	05/22/2023	03:59	-131.255	48.049	0	310.00	0	4.6050	0	33.8520	0	26.812	0	307.167	0	73.5	4	23.5	4	-1E+10	1	-1E+10	1	-1E+10	1	-1E+10	1	-1E+10	1	-1E+10	1
4902551	100	C	05/22/2023	03:59	-131.255	48.049	0	310.90	0	4.6030	0	33.8530	0	26.813	0	308.058	0	73.2	4	23.4	4	-1E+10	1	-1E+10	1	-1E+10	1	-1E+10	1	-1E+10	1	-1E+10	1
4902551	100	C	05/22/2023	03:59	-131.255	48.049	0	311.70	0	4.6010	0	33.8540	0	26.814	0	308.850	0	72.8	4	23.3	4	-1E+10	1	-1E+10	1	-1E+10	1	-1E+10	1	-1E+10	1	-1E+10	1
4902551	100	C	05/22/2023	03:59	-131.255	48.049	0	313.00	0	4.5990	0	33.8530	0	26.813	0	310.137	0	72.2	4	23.1	4	-1E+10	1	-1E+10	1	-1E+10	1	-1E+10	1	-1E+10	1	-1E+10	1
4902551	100	C	05/22/2023	03:59	-131.255	48.049	0	314.30	0	4.5960	0	33.8540	0	26.814	0	311.424	0	71.7	4	22.9	4	-1E+10	1	-1E+10	1	-1E+10	1	-1E+10	1	-1E+10	1	-1E+10	1
4902551	100	C	05/22/2023	03:59	-131.255	48.049	0	315.20	0	4.5980	0	33.8540	0	26.814	0	312.315	0	71.3	4	22.8	4	-1E+10	1	-1E+10	1	-1E+10	1	-1E+10	1	-1E+10	1	-1E+10	1
4902551	100	C	05/22/2023	03:59	-131.255	48.049	0	316.00	0	4.6060	0	33.8590	0	26.817	0	313.107	0	71.1	4	22.7	4	-1E+10	1	-1E+10	1	-1E+10	1	-1E+10	1	-1E+10	1	-1E+10	1
4902551	100	C	05/22/2023	03:59	-131.255	48.049	0	316.90	0	4.6020	0	33.8580	0	26.817	0	313.998	0	71.0	4	22.7	4	-1E+10	1	-1E+10	1	-1E+10	1	-1E+10	1	-1E+10	1	-1E+10	1
4902551	100	C	05/22/2023	03:59	-131.255	48.049	0	317.80	0	4.6030	0	33.8600	0	26.818	0	314.890	0	70.8	4	22.6	4	-1E+10	1	-1E+10	1	-1E+10	1	-1E+10	1	-1E+10	1	-1E+10	1
4902551	100	C	05/22/2023	03:59	-131.255	48.049	0	318.60	0	4.5950	0	33.8620	0	26.821	0	315.682	0	70.6	4	22.6	4	-1E+10	1	-1E+10	1	-1E+10	1	-1E+10	1	-1E+10	1	-1E+10	1
4902551	100	C	05/22/2023	03:59	-131.255	48.049	0	319.90	0	4.5880	0	33.8600	0	26.820	0	316.969	0	70.2	4	22.4	4	-1E+10	1	-1E+10	1	-1E+10	1	-1E+10	1	-1E+10	1	-1E+10	1
4902551	100	C	05/22/2023	03:59	-131.255	48.049	0	321.30	0	4.5870	0	33.8620	0	26.822	0	318.355	0	69.8	4	22.3	4	-1E+10	1	-1E+10	1	-1E+10	1	-1E+10	1	-1E+10	1	-1E+10	1
4902551	100	C	05/22/2023	03:59	-131.255	48.049	0	322.10	0	4.5860	0	33.8620	0	26.822	0	319.147	0	69.7	4	22.3	4	-1E+10	1	-1E+10	1	-1E+10	1	-1E+10	1	-1E+10	1	-1E+10	1
4902551	100	C	05/22/2023	03:59	-131.255	48.049	0	323.00	0	4.5810	0	33.8630	0	26.823	0	320.038	0	69.5	4	22.2	4	-1E+10	1	-1E+10	1	-1E+10	1	-1E+10	1	-1E+10	1	-1E+10	1
4902551	100	C	05/22/2023	03:59	-131.255	48.049	0	323.90	0	4.5820	0	33.8640	0	26.824	0	320.929	0	69.3	4	22.2	4	-1E+10	1	-1E+10	1	-1E+10	1	-1E+10	1	-1E+10	1	-1E+10	1
4902551	100	C	05/22/2023	03:59	-131.255	48.049	0	324.80	0	4.5790	0	33.8660	0	26.826	0	321.820	0	69.3	4	22.1	4	-1E+10	1	-1E+10	1	-1E+10	1	-1E+10	1	-1E+10	1	-1E+10	1
4902551	100	C	05/22/2023	03:59	-131.255	48.049	0	325.60	0	4.5740	0	33.8660	0	26.826	0	322.612	0	69.2	4	22.1	4	-1E+10	1	-1E+10	1	-1E+10	1	-1E+10	1	-1E+10	1	-1E+10	1
4902551	100	C	05/22/2023	03:59	-131.255	48.049	0	326.90	0	4.5700	0	33.8660	0	26.827	0	323.899	0	69.0	4	22.0	4	-1E+10	1	-1E+10	1	-1E+10	1	-1E+10	1	-1E+10	1	-1E+10	1
4902551	100	C	05/22/2023	03:59	-131.255	48.049	0	328.20	0	4.5700	0	33.8670	0	26.828	0	325.186	0	68.8	4	22.0	4	-1E+10	1	-1E+10	1	-1E+10	1	-1E+10	1	-1E+10	1	-1E+10	1
4902551	100	C	05/22/2023	03:59	-131.255	48.049	0	329.10	0	4.5690	0	33.8670	0	26.828	0	326.077	0	68.7	4	21.9	4	-1E+10	1	-1E+10	1	-1E+10	1	-1E+10	1	-1E+10	1	-1E+10	1
4902551	100	C	05/22/2023	03:59	-131.255	48.049	0	330.00	0	4.5690	0	33.8670	0	26.828	0	326.968	0	68.6	4	21.9	4	-1E+10	1	-1E+10	1	-1E+10	1	-1E+10	1	-1E+10	1	-1E+10	1
4902551	100	C	05/22/2023	03:59	-131.255	48.049	0	330.80	0	4.5690	0	33.8670	0	26.828	0	327.760	0	68.4	4	21.9	4	-1E+10	1	-1E+10	1	-1E+10	1	-1E+10	1	-1E+10	1	-1E+10	1
4902551	100	C	05/22/2023	03:59	-131.255	48.049	0	331.70	0	4.5690	0	33.8670	0	26.828	0	328.651	0	68.3	4	21.8	4	-1E+10	1	-1E+10	1	-1E+10	1	-1E+10	1	-1E+10	1	-1E+10	1
4902551	100	C	05/22/2023	03:59	-131.255	48.049	0	333.00	0	4.5680	0	33.8680	0	26.829	0	329.938	0	68.1	4	21.7	4	-1E+10	1	-1E+10	1	-1E+10	1	-1E+10	1	-1E+10	1	-1E+10	1
4902551	100	C	05/22/2023	03:59	-131.255	48.049	0	334.30	0	4.5670	0	33.8690	0	26.830	0	331.225	0	67.9	4	21.7	4	-1E+10	1	-1E+10	1	-1E+10	1	-1E+10	1	-1E+10	1	-1E+10	1
4902551	100	C	05/22/2023	03:59	-131.255	48.049	0	335.10	0	4.5660	0	33.8690	0	26.830	0	332.017	0	67.8	4	21.6	4	-1E+10	1	-1E+10	1	-1E+10	1	-1E+10	1	-1E+10	1	-1E+10	1
4902551	100	C	05/22/2023	03:59	-131.255	48.049	0	335.90	0	4.5660	0	33.8680	0	26.829	0	332.809	0	67.6	4	21.6	4	-1E+10	1	-1E+10	1	-1E+10	1	-1E+10	1	-1E+10	1	-1E+10	1
4902551	100	C	05/22/2023	03:59	-131.255	48.049	0	336.80	0	4.5650	0	33.8690	0	26.830	0	333.700	0	67.5	4	21.5	4	-1E+10	1	-1E+10	1	-1E+10	1	-1E+10	1	-1E+10	1	-1E+10	1
4902551	100	C	05/22/2023	03:59	-131.255	48.049	0	337.70	0	4.5650	0	33.8690	0	26.830	0	334.591	0	67.4	4	21.5	4	-1E+10	1	-1E+10	1	-1E+10	1	-1E+10	1	-1E+10	1	-1E+10	1
4902551	100	C	05/22/2023	03:59	-131.255	48.049	0	338.90	0	4.5580	0	33.8690	0	26.831	0	335.779	0	67.1	4	21.4	4	-1E+10	1	-1E+10	1	-1E+10	1	-1E+10	1	-1E+10	1	-1E+10	1
4902551	100	C	05/22/2023	03:59	-131.255	48.049	0	340.20	0	4.5420	0	33.8720	0	26.835	0	337.066	0	66.8	4	21.3	4	-1E+10	1	-1E+10	1	-1E+10	1	-1E+10	1	-1E+10	1	-1E+10	1
4902551	100	C	05/22/2023	03:59	-131.255	48.049	0	341.10	0	4.5380	0	33.8720	0	26.835	0	337.957	0	66.7	4	21.3	4	-1E+10	1	-1E+10	1	-1E+10	1	-1E+10	1	-1E+10	1	-1E+10	1
4902551	100	C	05/22/2023	03:59	-131.255	48.049	0	341.90	0	4.5360	0	33.8730	0	26.836	0	338.749	0	66.5	4	21.2	4	-1E+10	1	-1E+10	1	-1E+10	1	-1E+10	1	-1E+10	1	-1E+10	1
4902551	100	C	05/22/2023	03:59	-131.255	48.049	0	342.80	0	4.5360	0	33.8730	0	26.836	0	339.640	0	66.3	4	21.2	4	-1E+10	1	-1E+10	1	-1E+10	1	-1E+10	1	-1E+10	1	-1E+10	1
4902551	100	C	05/22/2023	03:59	-131.255	48.049	0	343.70	0	4.5360	0	33.8730	0	26.836	0	340.531	0	66.2	4	21.1	4	-1E+10	1	-1E+10	1	-1E+10	1	-1E+10	1	-1E+10	1	-1E+10	1
4902551	100	C	05/22/2023	03:59	-131.255	48.049	0	344.90	0	4.5310	0	33.8740	0	26.838	0	341.719	0	65.9	4	21.0	4	-1E+10	1	-1E+10	1	-1E+10	1	-1E+10	1	-1E+10	1	-1E+10	1
4902551	100	C	05/22/2023	03:59	-131.255	48.049	0	346.30	0	4.5200	0	33.8730	0	26.838	0	343.105	0	65.6	4	20.9	4	-1E+10	1	-1E+10	1	-1E+10	1	-1E+10	1	-1E+10	1	-1E+10	1
4902551	100	C	05/22/2023	03:59	-131.255	48.049	0	347.10	0	4.5180	0	33.8740	0	26.839	0	343.897	0	65.3	4	20.8	4	-1E+10	1	-1E+10	1	-1E+10	1	-1E+10	1	-1E+10	1	-1E+10	1
4902551	100	C	05/22/2023	03:59	-131.255	48.049	0	348.00	0	4.5170	0	33.8740	0	26.839	0	344.788	0	65.0	4	20.7	4	-1E+10	1	-1E+10	1	-1E+10	1	-1E+10	1	-1E+10	1	-1E+10	1
4902551	100	C	05/22/2023	03:59	-131.255	48.049	0	348.90	0	4.5070	0	33.8760	0	26.842	0	345.679	0	64.7	4	20.6	4	-1E+10	1	-1E+10	1	-1E+10	1	-1E+10	1	-1E+10	1	-1E+10	1
4902551	100	C	05/22/2023	03:59	-131.255	48.049	0	349.70	0	4.5030	0	33.8790	0	26.845	0	346.471	0	64.5	4	20.6	4	-1E+10	1	-1E+10	1	-1E+10	1	-1E+10	1	-1E+10	1	-1E+10	1
4902551	100	C	05/22/2023	03:59	-131.255	48.049	0	352.70	0	4.4940	0	33.8800	0	26.846	0	349.441	0	63.9	4	20.4	4	-1E+10	1	-1E+10	1	-1E+10	1	-1E+10	1	-1E+10	1	-1E+10	1
4902551	100	C	05/22/2023	03:59	-131.255	48.049	0	357.90	0	4.4850	0	33.8830	0	26.850	0	354.588	0	63.1	4	20.1	4	-1E+10	1	-1E+10	1	-1E+10	1	-1E+10	1	-1E+10	1	-1E+10	1
4902551	100	C	05/22/2023	03:59	-131.255	48.049	0	362.80	0	4.4720	0	33.8860	0	26.854	0	359.438	0	62.0	4	19.8	4	-1E+10	1	-1E+10	1	-1E+10	1	-1E+10	1	-1E+10	1	-1E+10	1
4902551	100	C	05/22/2023	03:59	-131.255	48.049	0	367.80	0	4.4540	0	33.8900	0	26.859	0	364.388	0	60.9	4	19.4	4	-1E+10	1	-1E+10	1	-1E+10	1	-1E+10	1	-1E+10	1	-1E+10	1
4902551	100	C	05/22/2023	03:59	-131.255	48.049	0	372.80	0	4.4290	0	33.8960	0	26.866	0	369.337	0	59.8	4	19.0	4	-1E+10	1	-1E+10	1	-1E+10	1	-1E+10	1	-1E+10	1	-1E+10	1
4902551	100	C	05/22/2023	03:59	-131.255	48.049	0	377.90	0	4.4040	0	33.9010	0	26.873	0	374.385	0	58.9	4	18.7	4	-1E+10	1	-1E+10	1	-1E+10	1	-1E+10	1	-1E+10	1	-1E+10	1
4902551	100	C	05/22/2023	03:59	-131.255	48.049	0	383.10	0	4.3950	0	33.9060	0	26.878	0	379.532	0	58.1	4	18.5	4	-1E+10	1	-1E+10	1	-1E+10	1	-1E+10	1	-1E+10	1	-1E+10	1
4902551	100	C	05/22/2023	03:59	-131.255	48.049	0	387.90	0	4.3930	0	33.9090	0	26.880	0	384.283	0	57.4	4	18.3	4	-1E+10	1	-1E+10	1	-1E+10	1	-1E+10	1	-1E+10	1	-1E+10	1
4902551	100	C	05/22/2023	03:59	-131.255	48.049	0	392.70	0	4.3780	0	33.9130	0	26.885	0	389.033	0	56.9	4	18.1	4	-1E+10	1	-1E+10	1	-1E+10	1	-1E+10	1	-1E+10	1	-1E+10	1
4902551	100	C	05/22/2023	03:59	-131.255	48.049	0	398.00	0	4.3500	0	33.9170	0	26.891	0	394.279	0	56.1	4	17.8	4	-1E+10	1	-1E+10	1	-1E+10	1	-1E+10	1	-1E+10	1	-1E+10	1
4902551	100	C	05/22/2023	03:59	-131.255	48.049	0	403.00	0	4.3380	0	33.9270	0	26.901	0	399.227	0	55.0	4	17.5	4	-1E+10	1	-1E+10	1	-1E+10	1	-1E+10	1	-1E+10	1	-1E+10	1
4902551	100	C	05/22/2023	03:59	-131.255	48.049	0	407.90	0	4.3430	0	33.9380	0	26.909	0	404.077	0	54.1	4	17.2	4	-1E+10	1	-1E+10	1	-1E+10	1	-1E+10	1	-1E+10	1	-1E+10	1
4902551	100	C	05/22/2023	03:59	-131.255	48.049	0	412.80	0	4.3890	0	33.9490	0	26.913	0	408.926	0	53.2	4	16.9	4	-1E+10	1	-1E+10	1	-1E+10	1	-1E+10	1	-1E+10	1	-1E+10	1
4902551	100	C	05/22/2023	03:59	-131.255	48.049	0	417.90	0	4.3960	0	33.9530	0	26.915	0	413.973	0	52.3	4	16.7	4	-1E+10	1	-1E+10	1	-1E+10	1	-1E+10	1	-1E+10	1	-1E+10	1
4902551	100	C	05/22/2023	03:59	-131.255	48.049	0	423.10	0	4.3610	0	33.9530	0	26.919	0	419.119	0	51.1	4	16.2	4	-1E+10	1	-1E+10	1	-1E+10	1	-1E+10	1	-1E+10	1	-1E+10	1
4902551	100	C	05/22/2023	03:59	-131.255	48.049	0	427.90	0	4.3000	0	33.9550	0	26.927	0	423.869	0	50.0	4	15.9	4	-1E+10	1	-1E+10	1	-1E+10	1	-1E+10	1	-1E+10	1	-1E+10	1
4902551	100	C	05/22/2023	03:59	-131.255	48.049	0	432.70	0	4.3090	0	33.9630	0	26.933	0	428.619	0	48.8	4	15.5	4	-1E+10	1	-1E+10	1	-1E+10	1	-1E+10	1	-1E+10	1	-1E+10	1
4902551	100	C	05/22/2023	03:59	-131.255	48.049	0	437.60	0	4.3080	0	33.9720	0	26.940	0	433.467	0	47.6	4	15.1	4	-1E+10	1	-1E+10	1	-1E+10	1	-1E+10	1	-1E+10	1	-1E+10	1
4902551	100	C	05/22/2023	03:59	-131.255	48.049	0	442.60	0	4.3230	0	33.9820	0	26.946	0	438.415	0	46.3	4	14.7	4	-1E+10	1	-1E+10	1	-1E+10	1	-1E+10	1	-1E+10	1	-1E+10	1
4902551	100	C	05/22/2023	03:59	-131.255	48.049	0	447.60	0	4.3590	0	33.9950	0	26.953	0	443.362	0	45.3	4	14.4	4	-1E+10	1	-1E+10	1	-1E+10	1	-1E+10	1	-1E+10	1	-1E+10	1
4902551	100	C	05/22/2023	03:59	-131.255	48.049	0	452.60	0	4.3620	0	34.0020	0	26.958	0	448.309	0	44.4	4	14.1	4	-1E+10	1	-1E+10	1	-1E+10	1	-1E+10	1	-1E+10	1	-1E+10	1
4902551	100	C	05/22/2023	03:59	-131.255	48.049	0	457.70	0	4.3560	0	34.0060	0	26.962	0	453.356	0	43.7	4	13.9	4	-1E+10	1	-1E+10	1	-1E+10	1	-1E+10	1	-1E+10	1	-1E+10	1
4902551	100	C	05/22/2023	03:59	-131.255	48.049	0	462.80	0	4.3450	0	34.0130	0	26.969	0	458.401	0	43.0	4	13.7	4	-1E+10	1	-1E+10	1	-1E+10	1	-1E+10	1	-1E+10	1	-1E+10	1
4902551	100	C	05/22/2023	03:59	-131.255	48.049	0	468.00	0	4.3440	0	34.0150	0	26.970	0	463.546	0	42.5	4	13.5	4	-1E+10	1	-1E+10	1	-1E+10	1	-1E+10	1	-1E+10	1	-1E+10	1
4902551	100	C	05/22/2023	03:59	-131.255	48.049	0	473.20	0	4.3280	0	34.0170	0	26.974	0	468.691	0	41.9	4	13.3	4	-1E+10	1	-1E+10	1	-1E+10	1	-1E+10	1	-1E+10	1	-1E+10	1
4902551	100	C	05/22/2023	03:59	-131.255	48.049	0	478.30	0	4.3000	0	34.0180	0	26.978	0	473.736	0	41.1	4	13.1	4	-1E+10	1	-1E+10	1	-1E+10	1	-1E+10	1	-1E+10	1	-1E+10	1
4902551	100	C	05/22/2023	03:59	-131.255	48.049	0	482.90	0	4.2520	0	34.0220	0	26.986	0	478.287	0	40.4	4	12.8	4	-1E+10	1	-1E+10	1	-1E+10	1	-1E+10	1	-1E+10	1	-1E+10	1
4902551	100	C	05/22/2023	03:59	-131.255	48.049	0	487.60	0	4.2360	0	34.0220	0	26.988	0	482.937	0	39.5	4	12.5	4	-1E+10	1	-1E+10	1	-1E+10	1	-1E+10	1	-1E+10	1	-1E+10	1
4902551	100	C	05/22/2023	03:59	-131.255	48.049	0	492.80	0	4.2370	0	34.0310	0	26.995	0	488.081	0	38.4	4	12.2	4	-1E+10	1	-1E+10	1	-1E+10	1	-1E+10	1	-1E+10	1	-1E+10	1
4902551	100	C	05/22/2023	03:59	-131.255	48.049	0	498.00	0	4.2260	0	34.0370	0	27.001	0	493.225	0	37.7	4	11.9	4	-1E+10	1	-1E+10	1	-1E+10	1	-1E+10	1	-1E+10	1	-1E+10	1
4902551	100	C	05/22/2023	03:59	-131.255	48.049	0	503.10	0	4.2250	0	34.0440	0	27.006	0	498.270	0	36.9	4	11.7	4	-1E+10	1	-1E+10	1	-1E+10	1	-1E+10	1	-1E+10	1	-1E+10	1
4902551	100	C	05/22/2023	03:59	-131.255	48.049	0	507.80	0	4.2340	0	34.0500	0	27.010	0	502.919	0	36.4	4	11.5	4	-1E+10	1	-1E+10	1	-1E+10	1	-1E+10	1	-1E+10	1	-1E+10	1
4902551	100	C	05/22/2023	03:59	-131.255	48.049	0	512.60	0	4.2300	0	34.0530	0	27.013	0	507.667	0	35.9	4	11.4	4	-1E+10	1	-1E+10	1	-1E+10	1	-1E+10	1	-1E+10	1	-1E+10	1
4902551	100	C	05/22/2023	03:59	-131.255	48.049	0	518.00	0	4.2110	0	34.0560	0	27.017	0	513.009	0	35.4	4	11.2	4	-1E+10	1	-1E+10	1	-1E+10	1	-1E+10	1	-1E+10	1	-1E+10	1
4902551	100	C	05/22/2023	03:59	-131.255	48.049	0	523.00	0	4.1980	0	34.0590	0	27.021	0	517.954	0	34.9	4	11.1	4	-1E+10	1	-1E+10	1	-1E+10	1	-1E+10	1	-1E+10	1	-1E+10	1
4902551	100	C	05/22/2023	03:59	-131.255	48.049	0	527.70	0	4.1830	0	34.0630	0	27.026	0	522.603	0	34.3	4	10.9	4	-1E+10	1	-1E+10	1	-1E+10	1	-1E+10	1	-1E+10	1	-1E+10	1
4902551	100	C	05/22/2023	03:59	-131.255	48.049	0	532.60	0	4.1620	0	34.0670	0	27.031	0	527.449	0	33.7	4	10.7	4	-1E+10	1	-1E+10	1	-1E+10	1	-1E+10	1	-1E+10	1	-1E+10	1
4902551	100	C	05/22/2023	03:59	-131.255	48.049	0	537.90	0	4.1480	0	34.0710	0	27.036	0	532.692	0	33.1	4	10.5	4	-1E+10	1	-1E+10	1	-1E+10	1	-1E+10	1	-1E+10	1	-1E+10	1
4902551	100	C	05/22/2023	03:59	-131.255	48.049	0	543.30	0	4.1330	0	34.0750	0	27.041	0	538.032	0	32.4	4	10.3	4	-1E+10	1	-1E+10	1	-1E+10	1	-1E+10	1	-1E+10	1	-1E+10	1
4902551	100	C	05/22/2023	03:59	-131.255	48.049	0	548.30	0	4.1110	0	34.0810	0	27.048	0	542.977	0	31.6	4	10.0	4	-1E+10	1	-1E+10	1	-1E+10	1	-1E+10	1	-1E+10	1	-1E+10	1
4902551	100	C	05/22/2023	03:59	-131.255	48.049	0	553.30	0	4.0890	0	34.0880	0	27.056	0	547.922	0	31.0	4	9.8	4	-1E+10	1	-1E+10	1	-1E+10	1	-1E+10	1	-1E+10	1	-1E+10	1
4902551	100	C	05/22/2023	03:59	-131.255	48.049	0	558.30	0	4.0820	0	34.0910	0	27.059	0	552.867	0	30.4	4	9.6	4	-1E+10	1	-1E+10	1	-1E+10	1	-1E+10	1	-1E+10	1	-1E+10	1
4902551	100	C	05/22/2023	03:59	-131.255	48.049	0	563.20	0	4.0750	0	34.0970	0	27.064	0	557.713	0	29.9	4	9.4	4	-1E+10	1	-1E+10	1	-1E+10	1	-1E+10	1	-1E+10	1	-1E+10	1
4902551	100	C	05/22/2023	03:59	-131.255	48.049	0	568.20	0	4.0660	0	34.1000	0	27.068	0	562.657	0	29.5	4	9.3	4	-1E+10	1	-1E+10	1	-1E+10	1	-1E+10	1	-1E+10	1	-1E+10	1
4902551	100	C	05/22/2023	03:59	-131.255	48.049	0	573.10	0	4.0490	0	34.1030	0	27.072	0	567.503	0	28.9	4	9.1	4	-1E+10	1	-1E+10	1	-1E+10	1	-1E+10	1	-1E+10	1	-1E+10	1
4902551	100	C	05/22/2023	03:59	-131.255	48.049	0	578.00	0	4.0380	0	34.1070	0	27.076	0	572.348	0	28.2	4	8.9	4	-1E+10	1	-1E+10	1	-1E+10	1	-1E+10	1	-1E+10	1	-1E+10	1
4902551	100	C	05/22/2023	03:59	-131.255	48.049	0	582.90	0	4.0280	0	34.1120	0	27.081	0	577.193	0	27.1	4	8.5	4	-1E+10	1	-1E+10	1	-1E+10	1	-1E+10	1	-1E+10	1	-1E+10	1
4902551	100	C	05/22/2023	03:59	-131.255	48.049	0	587.90	0	4.0100	0	34.1210	0	27.090	0	582.137	0	26.1	4	8.2	4	-1E+10	1	-1E+10	1	-1E+10	1	-1E+10	1	-1E+10	1	-1E+10	1
4902551	100	C	05/22/2023	03:59	-131.255	48.049	0	593.00	0	4.0000	0	34.1290	0	27.098	0	587.180	0	25.2	4	8.0	4	-1E+10	1	-1E+10	1	-1E+10	1	-1E+10	1	-1E+10	1	-1E+10	1
4902551	100	C	05/22/2023	03:59	-131.255	48.049	0	598.20	0	3.9950	0	34.1340	0	27.102	0	592.322	0	24.5	4	7.7	4	-1E+10	1	-1E+10	1	-1E+10	1	-1E+10	1	-1E+10	1	-1E+10	1
4902551	100	C	05/22/2023	03:59	-131.255	48.049	0	603.10	0	3.9790	0	34.1400	0	27.109	0	597.167	0	23.9	4	7.5	4	-1E+10	1	-1E+10	1	-1E+10	1	-1E+10	1	-1E+10	1	-1E+10	1
4902551	100	C	05/22/2023	03:59	-131.255	48.049	0	607.70	0	3.9580	0	34.1460	0	27.116	0	601.715	0	23.5	4	7.4	4	-1E+10	1	-1E+10	1	-1E+10	1	-1E+10	1	-1E+10	1	-1E+10	1
4902551	100	C	05/22/2023	03:59	-131.255	48.049	0	612.70	0	3.9400	0	34.1500	0	27.121	0	606.658	0	23.0	4	7.2	4	-1E+10	1	-1E+10	1	-1E+10	1	-1E+10	1	-1E+10	1	-1E+10	1
4902551	100	C	05/22/2023	03:59	-131.255	48.049	0	617.80	0	3.9390	0	34.1550	0	27.125	0	611.700	0	22.6	4	7.1	4	-1E+10	1	-1E+10	1	-1E+10	1	-1E+10	1	-1E+10	1	-1E+10	1
4902551	100	C	05/22/2023	03:59	-131.255	48.049	0	622.90	0	3.9230	0	34.1580	0	27.129	0	616.743	0	22.6	4	7.1	4	-1E+10	1	-1E+10	1	-1E+10	1	-1E+10	1	-1E+10	1	-1E+10	1
4902551	100	C	05/22/2023	03:59	-131.255	48.049	0	628.20	0	3.9010	0	34.1600	0	27.133	0	621.982	0	22.4	4	7.1	4	-1E+10	1	-1E+10	1	-1E+10	1	-1E+10	1	-1E+10	1	-1E+10	1
4902551	100	C	05/22/2023	03:59	-131.255	48.049	0	633.00	0	3.8970	0	34.1620	0	27.135	0	626.727	0	22.2	4	7.0	4	-1E+10	1	-1E+10	1	-1E+10	1	-1E+10	1	-1E+10	1	-1E+10	1
4902551	100	C	05/22/2023	03:59	-131.255	48.049	0	637.90	0	3.8920	0	34.1630	0	27.136	0	631.572	0	21.9	4	6.9	4	-1E+10	1	-1E+10	1	-1E+10	1	-1E+10	1	-1E+10	1	-1E+10	1
4902551	100	C	05/22/2023	03:59	-131.255	48.049	0	642.80	0	3.8910	0	34.1640	0	27.137	0	636.415	0	21.6	4	6.8	4	-1E+10	1	-1E+10	1	-1E+10	1	-1E+10	1	-1E+10	1	-1E+10	1
4902551	100	C	05/22/2023	03:59	-131.255	48.049	0	647.80	0	3.8790	0	34.1670	0	27.141	0	641.358	0	21.1	4	6.7	4	-1E+10	1	-1E+10	1	-1E+10	1	-1E+10	1	-1E+10	1	-1E+10	1
4902551	100	C	05/22/2023	03:59	-131.255	48.049	0	652.80	0	3.8700	0	34.1710	0	27.145	0	646.301	0	20.6	4	6.5	4	-1E+10	1	-1E+10	1	-1E+10	1	-1E+10	1	-1E+10	1	-1E+10	1
4902551	100	C	05/22/2023	03:59	-131.255	48.049	0	657.80	0	3.8670	0	34.1760	0	27.149	0	651.243	0	20.3	4	6.4	4	-1E+10	1	-1E+10	1	-1E+10	1	-1E+10	1	-1E+10	1	-1E+10	1
4902551	100	C	05/22/2023	03:59	-131.255	48.049	0	662.80	0	3.8590	0	34.1760	0	27.150	0	656.185	0	19.9	4	6.2	4	-1E+10	1	-1E+10	1	-1E+10	1	-1E+10	1	-1E+10	1	-1E+10	1
4902551	100	C	05/22/2023	03:59	-131.255	48.049	0	667.90	0	3.8530	0	34.1800	0	27.154	0	661.226	0	19.1	4	6.0	4	-1E+10	1	-1E+10	1	-1E+10	1	-1E+10	1	-1E+10	1	-1E+10	1
4902551	100	C	05/22/2023	03:59	-131.255	48.049	0	673.00	0	3.8500	0	34.1870	0	27.160	0	666.267	0	18.3	4	5.8	4	-1E+10	1	-1E+10	1	-1E+10	1	-1E+10	1	-1E+10	1	-1E+10	1
4902551	100	C	05/22/2023	03:59	-131.255	48.049	0	677.90	0	3.8370	0	34.1930	0	27.166	0	671.110	0	17.8	4	5.6	4	-1E+10	1	-1E+10	1	-1E+10	1	-1E+10	1	-1E+10	1	-1E+10	1
4902551	100	C	05/22/2023	03:59	-131.255	48.049	0	682.80	0	3.8290	0	34.1990	0	27.171	0	675.953	0	17.4	4	5.5	4	-1E+10	1	-1E+10	1	-1E+10	1	-1E+10	1	-1E+10	1	-1E+10	1
4902551	100	C	05/22/2023	03:59	-131.255	48.049	0	688.00	0	3.8180	0	34.2030	0	27.176	0	681.093	0	17.1	4	5.4	4	-1E+10	1	-1E+10	1	-1E+10	1	-1E+10	1	-1E+10	1	-1E+10	1
4902551	100	C	05/22/2023	03:59	-131.255	48.049	0	692.80	0	3.8080	0	34.2060	0	27.179	0	685.837	0	16.9	4	5.3	4	-1E+10	1	-1E+10	1	-1E+10	1	-1E+10	1	-1E+10	1	-1E+10	1
4902551	100	C	05/22/2023	03:59	-131.255	48.049	0	697.60	0	3.7960	0	34.2100	0	27.183	0	690.580	0	16.8	4	5.3	4	-1E+10	1	-1E+10	1	-1E+10	1	-1E+10	1	-1E+10	1	-1E+10	1
4902551	100	C	05/22/2023	03:59	-131.255	48.049	0	702.70	0	3.7750	0	34.2130	0	27.188	0	695.621	0	16.7	4	5.2	4	-1E+10	1	-1E+10	1	-1E+10	1	-1E+10	1	-1E+10	1	-1E+10	1
4902551	100	C	05/22/2023	03:59	-131.255	48.049	0	707.80	0	3.7630	0	34.2150	0	27.191	0	700.661	0	16.4	4	5.2	4	-1E+10	1	-1E+10	1	-1E+10	1	-1E+10	1	-1E+10	1	-1E+10	1
4902551	100	C	05/22/2023	03:59	-131.255	48.049	0	713.00	0	3.7600	0	34.2180	0	27.194	0	705.799	0	16.2	4	5.1	4	-1E+10	1	-1E+10	1	-1E+10	1	-1E+10	1	-1E+10	1	-1E+10	1
4902551	100	C	05/22/2023	03:59	-131.255	48.049	0	717.80	0	3.7650	0	34.2200	0	27.195	0	710.543	0	16.0	4	5.0	4	-1E+10	1	-1E+10	1	-1E+10	1	-1E+10	1	-1E+10	1	-1E+10	1
4902551	100	C	05/22/2023	03:59	-131.255	48.049	0	722.60	0	3.7550	0	34.2230	0	27.198	0	715.286	0	16.1	4	5.0	4	-1E+10	1	-1E+10	1	-1E+10	1	-1E+10	1	-1E+10	1	-1E+10	1
4902551	100	C	05/22/2023	03:59	-131.255	48.049	0	727.70	0	3.7200	0	34.2250	0	27.203	0	720.325	0	15.9	4	5.0	4	-1E+10	1	-1E+10	1	-1E+10	1	-1E+10	1	-1E+10	1	-1E+10	1
4902551	100	C	05/22/2023	03:59	-131.255	48.049	0	732.80	0	3.7150	0	34.2280	0	27.206	0	725.365	0	15.8	4	5.0	4	-1E+10	1	-1E+10	1	-1E+10	1	-1E+10	1	-1E+10	1	-1E+10	1
4902551	100	C	05/22/2023	03:59	-131.255	48.049	0	737.90	0	3.7130	0	34.2290	0	27.207	0	730.404	0	15.7	4	4.9	4	-1E+10	1	-1E+10	1	-1E+10	1	-1E+10	1	-1E+10	1	-1E+10	1
4902551	100	C	05/22/2023	03:59	-131.255	48.049	0	743.10	0	3.7110	0	34.2300	0	27.208	0	735.542	0	15.5	4	4.9	4	-1E+10	1	-1E+10	1	-1E+10	1	-1E+10	1	-1E+10	1	-1E+10	1
4902551	100	C	05/22/2023	03:59	-131.255	48.049	0	748.20	0	3.7000	0	34.2330	0	27.212	0	740.581	0	15.3	4	4.8	4	-1E+10	1	-1E+10	1	-1E+10	1	-1E+10	1	-1E+10	1	-1E+10	1
4902551	100	C	05/22/2023	03:59	-131.255	48.049	0	752.90	0	3.6880	0	34.2350	0	27.214	0	745.225	0	15.1	4	4.7	4	-1E+10	1	-1E+10	1	-1E+10	1	-1E+10	1	-1E+10	1	-1E+10	1
4902551	100	C	05/22/2023	03:59	-131.255	48.049	0	757.80	0	3.6770	0	34.2380	0	27.218	0	750.066	0	14.9	4	4.7	4	-1E+10	1	-1E+10	1	-1E+10	1	-1E+10	1	-1E+10	1	-1E+10	1
4902551	100	C	05/22/2023	03:59	-131.255	48.049	0	763.00	0	3.6640	0	34.2420	0	27.222	0	755.204	0	14.5	4	4.5	4	-1E+10	1	-1E+10	1	-1E+10	1	-1E+10	1	-1E+10	1	-1E+10	1
4902551	100	C	05/22/2023	03:59	-131.255	48.049	0	767.90	0	3.6560	0	34.2470	0	27.227	0	760.045	0	14.2	4	4.4	4	-1E+10	1	-1E+10	1	-1E+10	1	-1E+10	1	-1E+10	1	-1E+10	1
4902551	100	C	05/22/2023	03:59	-131.255	48.049	0	772.80	0	3.6440	0	34.2500	0	27.231	0	764.886	0	13.8	4	4.3	4	-1E+10	1	-1E+10	1	-1E+10	1	-1E+10	1	-1E+10	1	-1E+10	1
4902551	100	C	05/22/2023	03:59	-131.255	48.049	0	777.80	0	3.6430	0	34.2550	0	27.235	0	769.825	0	13.5	4	4.2	4	-1E+10	1	-1E+10	1	-1E+10	1	-1E+10	1	-1E+10	1	-1E+10	1
4902551	100	C	05/22/2023	03:59	-131.255	48.049	0	782.90	0	3.6370	0	34.2600	0	27.240	0	774.864	0	13.3	4	4.2	4	-1E+10	1	-1E+10	1	-1E+10	1	-1E+10	1	-1E+10	1	-1E+10	1
4902551	100	C	05/22/2023	03:59	-131.255	48.049	0	788.00	0	3.6280	0	34.2630	0	27.243	0	779.902	0	13.2	4	4.1	4	-1E+10	1	-1E+10	1	-1E+10	1	-1E+10	1	-1E+10	1	-1E+10	1
4902551	100	C	05/22/2023	03:59	-131.255	48.049	0	792.70	0	3.6190	0	34.2650	0	27.245	0	784.545	0	13.1	4	4.1	4	-1E+10	1	-1E+10	1	-1E+10	1	-1E+10	1	-1E+10	1	-1E+10	1
4902551	100	C	05/22/2023	03:59	-131.255	48.049	0	797.90	0	3.6060	0	34.2690	0	27.250	0	789.681	0	12.9	4	4.1	4	-1E+10	1	-1E+10	1	-1E+10	1	-1E+10	1	-1E+10	1	-1E+10	1
4902551	100	C	05/22/2023	03:59	-131.255	48.049	0	803.10	0	3.5950	0	34.2710	0	27.253	0	794.818	0	12.8	4	4.0	4	-1E+10	1	-1E+10	1	-1E+10	1	-1E+10	1	-1E+10	1	-1E+10	1
4902551	100	C	05/22/2023	03:59	-131.255	48.049	0	807.90	0	3.5830	0	34.2750	0	27.257	0	799.559	0	12.8	4	4.0	4	-1E+10	1	-1E+10	1	-1E+10	1	-1E+10	1	-1E+10	1	-1E+10	1
4902551	100	C	05/22/2023	03:59	-131.255	48.049	0	813.10	0	3.5770	0	34.2770	0	27.259	0	804.695	0	12.7	4	4.0	4	-1E+10	1	-1E+10	1	-1E+10	1	-1E+10	1	-1E+10	1	-1E+10	1
4902551	100	C	05/22/2023	03:59	-131.255	48.049	0	818.20	0	3.5620	0	34.2800	0	27.263	0	809.733	0	12.8	4	4.0	4	-1E+10	1	-1E+10	1	-1E+10	1	-1E+10	1	-1E+10	1	-1E+10	1
4902551	100	C	05/22/2023	03:59	-131.255	48.049	0	823.00	0	3.5470	0	34.2810	0	27.265	0	814.474	0	12.9	4	4.0	4	-1E+10	1	-1E+10	1	-1E+10	1	-1E+10	1	-1E+10	1	-1E+10	1
4902551	100	C	05/22/2023	03:59	-131.255	48.049	0	827.80	0	3.5360	0	34.2820	0	27.267	0	819.215	0	13.0	4	4.1	4	-1E+10	1	-1E+10	1	-1E+10	1	-1E+10	1	-1E+10	1	-1E+10	1
4902551	100	C	05/22/2023	03:59	-131.255	48.049	0	832.60	0	3.5030	0	34.2850	0	27.273	0	823.955	0	13.1	4	4.1	4	-1E+10	1	-1E+10	1	-1E+10	1	-1E+10	1	-1E+10	1	-1E+10	1
4902551	100	C	05/22/2023	03:59	-131.255	48.049	0	837.90	0	3.4730	0	34.2850	0	27.276	0	829.190	0	13.1	4	4.1	4	-1E+10	1	-1E+10	1	-1E+10	1	-1E+10	1	-1E+10	1	-1E+10	1
4902551	100	C	05/22/2023	03:59	-131.255	48.049	0	843.20	0	3.4520	0	34.2880	0	27.280	0	834.424	0	13.0	4	4.1	4	-1E+10	1	-1E+10	1	-1E+10	1	-1E+10	1	-1E+10	1	-1E+10	1
4902551	100	C	05/22/2023	03:59	-131.255	48.049	0	848.10	0	3.4400	0	34.2920	0	27.284	0	839.263	0	13.0	4	4.0	4	-1E+10	1	-1E+10	1	-1E+10	1	-1E+10	1	-1E+10	1	-1E+10	1
4902551	100	C	05/22/2023	03:59	-131.255	48.049	0	852.90	0	3.4230	0	34.2930	0	27.287	0	844.004	0	13.0	4	4.0	4	-1E+10	1	-1E+10	1	-1E+10	1	-1E+10	1	-1E+10	1	-1E+10	1
4902551	100	C	05/22/2023	03:59	-131.255	48.049	0	857.90	0	3.4060	0	34.2960	0	27.291	0	848.941	0	12.9	4	4.0	4	-1E+10	1	-1E+10	1	-1E+10	1	-1E+10	1	-1E+10	1	-1E+10	1
4902551	100	C	05/22/2023	03:59	-131.255	48.049	0	862.80	0	3.4010	0	34.2960	0	27.291	0	853.780	0	12.9	4	4.0	4	-1E+10	1	-1E+10	1	-1E+10	1	-1E+10	1	-1E+10	1	-1E+10	1
4902551	100	C	05/22/2023	03:59	-131.255	48.049	0	867.60	0	3.3950	0	34.2980	0	27.294	0	858.520	0	12.8	4	4.0	4	-1E+10	1	-1E+10	1	-1E+10	1	-1E+10	1	-1E+10	1	-1E+10	1
4902551	100	C	05/22/2023	03:59	-131.255	48.049	0	872.60	0	3.3840	0	34.3000	0	27.296	0	863.458	0	12.7	4	3.9	4	-1E+10	1	-1E+10	1	-1E+10	1	-1E+10	1	-1E+10	1	-1E+10	1
4902551	100	C	05/22/2023	03:59	-131.255	48.049	0	877.50	0	3.3710	0	34.3040	0	27.301	0	868.296	0	12.6	4	3.9	4	-1E+10	1	-1E+10	1	-1E+10	1	-1E+10	1	-1E+10	1	-1E+10	1
4902551	100	C	05/22/2023	03:59	-131.255	48.049	0	882.50	0	3.3570	0	34.3070	0	27.305	0	873.233	0	12.5	4	3.9	4	-1E+10	1	-1E+10	1	-1E+10	1	-1E+10	1	-1E+10	1	-1E+10	1
4902551	100	C	05/22/2023	03:59	-131.255	48.049	0	887.50	0	3.3500	0	34.3080	0	27.306	0	878.170	0	12.5	4	3.9	4	-1E+10	1	-1E+10	1	-1E+10	1	-1E+10	1	-1E+10	1	-1E+10	1
4902551	100	C	05/22/2023	03:59	-131.255	48.049	0	892.60	0	3.3410	0	34.3100	0	27.309	0	883.206	0	12.4	4	3.8	4	-1E+10	1	-1E+10	1	-1E+10	1	-1E+10	1	-1E+10	1	-1E+10	1
4902551	100	C	05/22/2023	03:59	-131.255	48.049	0	897.60	0	3.3290	0	34.3140	0	27.313	0	888.143	0	12.3	4	3.8	4	-1E+10	1	-1E+10	1	-1E+10	1	-1E+10	1	-1E+10	1	-1E+10	1
4902551	100	C	05/22/2023	03:59	-131.255	48.049	0	902.70	0	3.3220	0	34.3160	0	27.315	0	893.178	0	12.3	4	3.8	4	-1E+10	1	-1E+10	1	-1E+10	1	-1E+10	1	-1E+10	1	-1E+10	1
4902551	100	C	05/22/2023	03:59	-131.255	48.049	0	907.80	0	3.3040	0	34.3190	0	27.319	0	898.213	0	12.2	4	3.8	4	-1E+10	1	-1E+10	1	-1E+10	1	-1E+10	1	-1E+10	1	-1E+10	1
4902551	100	C	05/22/2023	03:59	-131.255	48.049	0	913.00	0	3.2910	0	34.3220	0	27.323	0	903.347	0	12.2	4	3.8	4	-1E+10	1	-1E+10	1	-1E+10	1	-1E+10	1	-1E+10	1	-1E+10	1
4902551	100	C	05/22/2023	03:59	-131.255	48.049	0	918.20	0	3.2850	0	34.3230	0	27.324	0	908.481	0	12.1	4	3.8	4	-1E+10	1	-1E+10	1	-1E+10	1	-1E+10	1	-1E+10	1	-1E+10	1
4902551	100	C	05/22/2023	03:59	-131.255	48.049	0	923.00	0	3.2780	0	34.3250	0	27.327	0	913.220	0	12.1	4	3.7	4	-1E+10	1	-1E+10	1	-1E+10	1	-1E+10	1	-1E+10	1	-1E+10	1
4902551	100	C	05/22/2023	03:59	-131.255	48.049	0	927.80	0	3.2650	0	34.3280	0	27.330	0	917.958	0	12.0	4	3.7	4	-1E+10	1	-1E+10	1	-1E+10	1	-1E+10	1	-1E+10	1	-1E+10	1
4902551	100	C	05/22/2023	03:59	-131.255	48.049	0	932.70	0	3.2560	0	34.3310	0	27.333	0	922.795	0	12.0	4	3.7	4	-1E+10	1	-1E+10	1	-1E+10	1	-1E+10	1	-1E+10	1	-1E+10	1
4902551	100	C	05/22/2023	03:59	-131.255	48.049	0	937.60	0	3.2520	0	34.3320	0	27.335	0	927.633	0	11.9	4	3.7	4	-1E+10	1	-1E+10	1	-1E+10	1	-1E+10	1	-1E+10	1	-1E+10	1
4902551	100	C	05/22/2023	03:59	-131.255	48.049	0	942.60	0	3.2470	0	34.3330	0	27.336	0	932.568	0	11.9	4	3.7	4	-1E+10	1	-1E+10	1	-1E+10	1	-1E+10	1	-1E+10	1	-1E+10	1
4902551	100	C	05/22/2023	03:59	-131.255	48.049	0	947.70	0	3.2370	0	34.3350	0	27.339	0	937.603	0	11.8	4	3.7	4	-1E+10	1	-1E+10	1	-1E+10	1	-1E+10	1	-1E+10	1	-1E+10	1
4902551	100	C	05/22/2023	03:59	-131.255	48.049	0	952.80	0	3.2240	0	34.3390	0	27.343	0	942.637	0	11.8	4	3.7	4	-1E+10	1	-1E+10	1	-1E+10	1	-1E+10	1	-1E+10	1	-1E+10	1
4902551	100	C	05/22/2023	03:59	-131.255	48.049	0	958.00	0	3.2130	0	34.3420	0	27.346	0	947.770	0	11.7	4	3.6	4	-1E+10	1	-1E+10	1	-1E+10	1	-1E+10	1	-1E+10	1	-1E+10	1
4902551	100	C	05/22/2023	03:59	-131.255	48.049	0	963.00	0	3.2040	0	34.3440	0	27.349	0	952.705	0	11.7	4	3.6	4	-1E+10	1	-1E+10	1	-1E+10	1	-1E+10	1	-1E+10	1	-1E+10	1
4902551	100	C	05/22/2023	03:59	-131.255	48.049	0	967.90	0	3.1970	0	34.3460	0	27.351	0	957.541	0	11.7	4	3.6	4	-1E+10	1	-1E+10	1	-1E+10	1	-1E+10	1	-1E+10	1	-1E+10	1
4902551	100	C	05/22/2023	03:59	-131.255	48.049	0	973.00	0	3.1900	0	34.3480	0	27.353	0	962.575	0	11.7	4	3.6	4	-1E+10	1	-1E+10	1	-1E+10	1	-1E+10	1	-1E+10	1	-1E+10	1
4902551	100	C	05/22/2023	03:59	-131.255	48.049	0	978.10	0	3.1800	0	34.3500	0	27.356	0	967.608	0	11.6	4	3.6	4	-1E+10	1	-1E+10	1	-1E+10	1	-1E+10	1	-1E+10	1	-1E+10	1
4902551	100	C	05/22/2023	03:59	-131.255	48.049	0	983.20	0	3.1700	0	34.3530	0	27.359	0	972.642	0	11.6	4	3.6	4	-1E+10	1	-1E+10	1	-1E+10	1	-1E+10	1	-1E+10	1	-1E+10	1
4902551	100	C	05/22/2023	03:59	-131.255	48.049	0	988.00	0	3.1590	0	34.3550	0	27.362	0	977.379	0	11.6	4	3.6	4	-1E+10	1	-1E+10	1	-1E+10	1	-1E+10	1	-1E+10	1	-1E+10	1
4902551	100	C	05/22/2023	03:59	-131.255	48.049	0	992.90	0	3.1420	0	34.3590	0	27.367	0	982.215	0	11.6	4	3.6	4	-1E+10	1	-1E+10	1	-1E+10	1	-1E+10	1	-1E+10	1	-1E+10	1
4902551	100	C	05/22/2023	03:59	-131.255	48.049	0	997.90	0	3.1290	0	34.3620	0	27.370	0	987.150	0	11.6	4	3.6	4	-1E+10	1	-1E+10	1	-1E+10	1	-1E+10	1	-1E+10	1	-1E+10	1
4902551	100	C	05/22/2023	03:59	-131.255	48.049	0	1005.30	0	3.1200	0	34.3640	0	27.373	0	994.452	0	11.6	4	3.6	4	-1E+10	1	-1E+10	1	-1E+10	1	-1E+10	1	-1E+10	1	-1E+10	1
4902551	100	C	05/22/2023	03:59	-131.255	48.049	0	1015.30	0	3.1080	0	34.3670	0	27.376	0	1004.320	0	11.6	4	3.6	4	-1E+10	1	-1E+10	1	-1E+10	1	-1E+10	1	-1E+10	1	-1E+10	1
4902551	100	C	05/22/2023	03:59	-131.255	48.049	0	1025.50	0	3.0950	0	34.3690	0	27.379	0	1014.385	0	11.6	4	3.6	4	-1E+10	1	-1E+10	1	-1E+10	1	-1E+10	1	-1E+10	1	-1E+10	1
4902551	100	C	05/22/2023	03:59	-131.255	48.049	0	1035.40	0	3.0820	0	34.3720	0	27.383	0	1024.154	0	11.7	4	3.6	4	-1E+10	1	-1E+10	1	-1E+10	1	-1E+10	1	-1E+10	1	-1E+10	1
4902551	100	C	05/22/2023	03:59	-131.255	48.049	0	1045.50	0	3.0470	0	34.3790	0	27.392	0	1034.119	0	11.8	4	3.6	4	-1E+10	1	-1E+10	1	-1E+10	1	-1E+10	1	-1E+10	1	-1E+10	1
4902551	100	C	05/22/2023	03:59	-131.255	48.049	0	1055.70	0	3.0190	0	34.3850	0	27.399	0	1044.183	0	11.9	4	3.7	4	-1E+10	1	-1E+10	1	-1E+10	1	-1E+10	1	-1E+10	1	-1E+10	1
4902551	100	C	05/22/2023	03:59	-131.255	48.049	0	1065.50	0	2.9990	0	34.3890	0	27.404	0	1053.851	0	11.9	4	3.7	4	-1E+10	1	-1E+10	1	-1E+10	1	-1E+10	1	-1E+10	1	-1E+10	1
4902551	100	C	05/22/2023	03:59	-131.255	48.049	0	1075.40	0	2.9820	0	34.3920	0	27.408	0	1063.618	0	12.0	4	3.7	4	-1E+10	1	-1E+10	1	-1E+10	1	-1E+10	1	-1E+10	1	-1E+10	1
4902551	100	C	05/22/2023	03:59	-131.255	48.049	0	1085.20	0	2.9660	0	34.3960	0	27.413	0	1073.286	0	12.1	4	3.7	4	-1E+10	1	-1E+10	1	-1E+10	1	-1E+10	1	-1E+10	1	-1E+10	1
4902551	100	C	05/22/2023	03:59	-131.255	48.049	0	1095.00	0	2.9510	0	34.4000	0	27.417	0	1082.953	0	12.2	4	3.8	4	-1E+10	1	-1E+10	1	-1E+10	1	-1E+10	1	-1E+10	1	-1E+10	1
4902551	100	C	05/22/2023	03:59	-131.255	48.049	0	1105.30	0	2.9350	0	34.4040	0	27.422	0	1093.113	0	12.4	4	3.8	4	-1E+10	1	-1E+10	1	-1E+10	1	-1E+10	1	-1E+10	1	-1E+10	1
4902551	100	C	05/22/2023	03:59	-131.255	48.049	0	1115.60	0	2.9200	0	34.4070	0	27.426	0	1103.272	0	12.5	4	3.8	4	-1E+10	1	-1E+10	1	-1E+10	1	-1E+10	1	-1E+10	1	-1E+10	1
4902551	100	C	05/22/2023	03:59	-131.255	48.049	0	1125.40	0	2.9020	0	34.4100	0	27.430	0	1112.938	0	12.6	4	3.9	4	-1E+10	1	-1E+10	1	-1E+10	1	-1E+10	1	-1E+10	1	-1E+10	1
4902551	100	C	05/22/2023	03:59	-131.255	48.049	0	1135.60	0	2.8880	0	34.4120	0	27.433	0	1122.998	0	12.7	4	3.9	4	-1E+10	1	-1E+10	1	-1E+10	1	-1E+10	1	-1E+10	1	-1E+10	1
4902551	100	C	05/22/2023	03:59	-131.255	48.049	0	1145.70	0	2.8750	0	34.4150	0	27.436	0	1132.958	0	12.8	4	4.0	4	-1E+10	1	-1E+10	1	-1E+10	1	-1E+10	1	-1E+10	1	-1E+10	1
4902551	100	C	05/22/2023	03:59	-131.255	48.049	0	1155.40	0	2.8520	0	34.4190	0	27.442	0	1142.524	0	13.0	4	4.0	4	-1E+10	1	-1E+10	1	-1E+10	1	-1E+10	1	-1E+10	1	-1E+10	1
4902551	100	C	05/22/2023	03:59	-131.255	48.049	0	1165.80	0	2.8360	0	34.4230	0	27.446	0	1152.780	0	13.2	4	4.1	4	-1E+10	1	-1E+10	1	-1E+10	1	-1E+10	1	-1E+10	1	-1E+10	1
4902551	100	C	05/22/2023	03:59	-131.255	48.049	0	1175.30	0	2.8160	0	34.4260	0	27.451	0	1162.147	0	13.5	4	4.1	4	-1E+10	1	-1E+10	1	-1E+10	1	-1E+10	1	-1E+10	1	-1E+10	1
4902551	100	C	05/22/2023	03:59	-131.255	48.049	0	1185.20	0	2.7960	0	34.4300	0	27.456	0	1171.909	0	13.7	4	4.2	4	-1E+10	1	-1E+10	1	-1E+10	1	-1E+10	1	-1E+10	1	-1E+10	1
4902551	100	C	05/22/2023	03:59	-131.255	48.049	0	1195.60	0	2.7700	0	34.4330	0	27.460	0	1182.163	0	13.9	4	4.3	4	-1E+10	1	-1E+10	1	-1E+10	1	-1E+10	1	-1E+10	1	-1E+10	1
4902551	100	C	05/22/2023	03:59	-131.255	48.049	0	1205.70	0	2.7520	0	34.4370	0	27.465	0	1192.121	0	14.2	4	4.3	4	-1E+10	1	-1E+10	1	-1E+10	1	-1E+10	1	-1E+10	1	-1E+10	1
4902551	100	C	05/22/2023	03:59	-131.255	48.049	0	1215.50	0	2.7390	0	34.4400	0	27.469	0	1201.783	0	14.3	4	4.4	4	-1E+10	1	-1E+10	1	-1E+10	1	-1E+10	1	-1E+10	1	-1E+10	1
4902551	100	C	05/22/2023	03:59	-131.255	48.049	0	1225.50	0	2.7270	0	34.4420	0	27.471	0	1211.641	0	14.5	4	4.5	4	-1E+10	1	-1E+10	1	-1E+10	1	-1E+10	1	-1E+10	1	-1E+10	1
4902551	100	C	05/22/2023	03:59	-131.255	48.049	0	1235.60	0	2.7150	0	34.4440	0	27.474	0	1221.597	0	14.7	4	4.5	4	-1E+10	1	-1E+10	1	-1E+10	1	-1E+10	1	-1E+10	1	-1E+10	1
4902551	100	C	05/22/2023	03:59	-131.255	48.049	0	1245.50	0	2.7020	0	34.4460	0	27.477	0	1231.356	0	15.0	4	4.6	4	-1E+10	1	-1E+10	1	-1E+10	1	-1E+10	1	-1E+10	1	-1E+10	1
4902551	100	C	05/22/2023	03:59	-131.255	48.049	0	1255.70	0	2.6870	0	34.4490	0	27.481	0	1241.410	0	15.3	4	4.7	4	-1E+10	1	-1E+10	1	-1E+10	1	-1E+10	1	-1E+10	1	-1E+10	1
4902551	100	C	05/22/2023	03:59	-131.255	48.049	0	1266.00	0	2.6700	0	34.4520	0	27.484	0	1251.563	0	15.6	4	4.8	4	-1E+10	1	-1E+10	1	-1E+10	1	-1E+10	1	-1E+10	1	-1E+10	1
4902551	100	C	05/22/2023	03:59	-131.255	48.049	0	1275.60	0	2.6510	0	34.4550	0	27.489	0	1261.024	0	16.0	4	4.9	4	-1E+10	1	-1E+10	1	-1E+10	1	-1E+10	1	-1E+10	1	-1E+10	1
4902551	100	C	05/22/2023	03:59	-131.255	48.049	0	1285.50	0	2.6420	0	34.4580	0	27.492	0	1270.781	0	16.3	4	5.0	4	-1E+10	1	-1E+10	1	-1E+10	1	-1E+10	1	-1E+10	1	-1E+10	1
4902551	100	C	05/22/2023	03:59	-131.255	48.049	0	1295.40	0	2.6280	0	34.4600	0	27.495	0	1280.538	0	16.6	4	5.1	4	-1E+10	1	-1E+10	1	-1E+10	1	-1E+10	1	-1E+10	1	-1E+10	1
4902551	100	C	05/22/2023	03:59	-131.255	48.049	0	1305.20	0	2.6140	0	34.4630	0	27.498	0	1290.195	0	16.7	4	5.1	4	-1E+10	1	-1E+10	1	-1E+10	1	-1E+10	1	-1E+10	1	-1E+10	1
4902551	100	C	05/22/2023	03:59	-131.255	48.049	0	1315.30	0	2.5900	0	34.4640	0	27.501	0	1300.148	0	16.7	4	5.1	4	-1E+10	1	-1E+10	1	-1E+10	1	-1E+10	1	-1E+10	1	-1E+10	1
4902551	100	C	05/22/2023	03:59	-131.255	48.049	0	1325.70	0	2.5770	0	34.4640	0	27.502	0	1310.396	0	17.0	4	5.2	4	-1E+10	1	-1E+10	1	-1E+10	1	-1E+10	1	-1E+10	1	-1E+10	1
4902551	100	C	05/22/2023	03:59	-131.255	48.049	0	1335.30	0	2.5740	0	34.4660	0	27.504	0	1319.855	0	17.2	4	5.3	4	-1E+10	1	-1E+10	1	-1E+10	1	-1E+10	1	-1E+10	1	-1E+10	1
4902551	100	C	05/22/2023	03:59	-131.255	48.049	0	1345.30	0	2.5650	0	34.4670	0	27.506	0	1329.708	0	17.4	4	5.3	4	-1E+10	1	-1E+10	1	-1E+10	1	-1E+10	1	-1E+10	1	-1E+10	1
4902551	100	C	05/22/2023	03:59	-131.255	48.049	0	1355.20	0	2.5460	0	34.4690	0	27.509	0	1339.462	0	17.9	4	5.5	4	-1E+10	1	-1E+10	1	-1E+10	1	-1E+10	1	-1E+10	1	-1E+10	1
4902551	100	C	05/22/2023	03:59	-131.255	48.049	0	1365.20	0	2.5440	0	34.4720	0	27.512	0	1349.314	0	18.3	4	5.6	4	-1E+10	1	-1E+10	1	-1E+10	1	-1E+10	1	-1E+10	1	-1E+10	1
4902551	100	C	05/22/2023	03:59	-131.255	48.049	0	1375.20	0	2.5330	0	34.4740	0	27.514	0	1359.165	0	18.7	4	5.7	4	-1E+10	1	-1E+10	1	-1E+10	1	-1E+10	1	-1E+10	1	-1E+10	1
4902551	100	C	05/22/2023	03:59	-131.255	48.049	0	1385.20	0	2.5200	0	34.4770	0	27.518	0	1369.016	0	19.3	4	5.9	4	-1E+10	1	-1E+10	1	-1E+10	1	-1E+10	1	-1E+10	1	-1E+10	1
4902551	100	C	05/22/2023	03:59	-131.255	48.049	0	1395.20	0	2.5130	0	34.4800	0	27.521	0	1378.867	0	19.8	4	6.1	4	-1E+10	1	-1E+10	1	-1E+10	1	-1E+10	1	-1E+10	1	-1E+10	1
4902551	100	C	05/22/2023	03:59	-131.255	48.049	0	1405.30	0	2.5000	0	34.4820	0	27.524	0	1388.815	0	20.4	4	6.2	4	-1E+10	1	-1E+10	1	-1E+10	1	-1E+10	1	-1E+10	1	-1E+10	1
4902551	100	C	05/22/2023	03:59	-131.255	48.049	0	1415.50	0	2.4780	0	34.4860	0	27.529	0	1398.862	0	21.0	4	6.4	4	-1E+10	1	-1E+10	1	-1E+10	1	-1E+10	1	-1E+10	1	-1E+10	1
4902551	100	C	05/22/2023	03:59	-131.255	48.049	0	1425.10	0	2.4640	0	34.4890	0	27.532	0	1408.317	0	21.5	4	6.5	4	-1E+10	1	-1E+10	1	-1E+10	1	-1E+10	1	-1E+10	1	-1E+10	1
4902551	100	C	05/22/2023	03:59	-131.255	48.049	0	1435.30	0	2.4540	0	34.4900	0	27.534	0	1418.363	0	21.9	4	6.7	4	-1E+10	1	-1E+10	1	-1E+10	1	-1E+10	1	-1E+10	1	-1E+10	1
4902551	100	C	05/22/2023	03:59	-131.255	48.049	0	1445.40	0	2.4430	0	34.4920	0	27.537	0	1428.309	0	22.3	4	6.8	4	-1E+10	1	-1E+10	1	-1E+10	1	-1E+10	1	-1E+10	1	-1E+10	1
4902551	100	C	05/22/2023	03:59	-131.255	48.049	0	1455.40	0	2.4270	0	34.4950	0	27.540	0	1438.157	0	22.7	4	6.9	4	-1E+10	1	-1E+10	1	-1E+10	1	-1E+10	1	-1E+10	1	-1E+10	1
4902551	100	C	05/22/2023	03:59	-131.255	48.049	0	1465.80	0	2.4130	0	34.4970	0	27.543	0	1448.398	0	23.1	4	7.0	4	-1E+10	1	-1E+10	1	-1E+10	1	-1E+10	1	-1E+10	1	-1E+10	1
4902551	100	C	05/22/2023	03:59	-131.255	48.049	0	1475.60	0	2.4000	0	34.4990	0	27.546	0	1458.048	0	23.4	4	7.1	4	-1E+10	1	-1E+10	1	-1E+10	1	-1E+10	1	-1E+10	1	-1E+10	1
4902551	100	C	05/22/2023	03:59	-131.255	48.049	0	1485.30	0	2.3930	0	34.5000	0	27.547	0	1467.599	0	23.9	4	7.3	4	-1E+10	1	-1E+10	1	-1E+10	1	-1E+10	1	-1E+10	1	-1E+10	1
4902551	100	C	05/22/2023	03:59	-131.255	48.049	0	1495.20	0	2.3830	0	34.5020	0	27.550	0	1477.346	0	24.3	4	7.4	4	-1E+10	1	-1E+10	1	-1E+10	1	-1E+10	1	-1E+10	1	-1E+10	1
4902551	100	C	05/22/2023	03:59	-131.255	48.049	0	1505.20	0	2.3700	0	34.5040	0	27.553	0	1487.192	0	24.7	4	7.5	4	-1E+10	1	-1E+10	1	-1E+10	1	-1E+10	1	-1E+10	1	-1E+10	1
4902551	100	C	05/22/2023	03:59	-131.255	48.049	0	1515.50	0	2.3600	0	34.5060	0	27.555	0	1497.332	0	25.3	4	7.7	4	-1E+10	1	-1E+10	1	-1E+10	1	-1E+10	1	-1E+10	1	-1E+10	1
4902551	100	C	05/22/2023	03:59	-131.255	48.049	0	1525.40	0	2.3470	0	34.5080	0	27.558	0	1507.078	0	25.8	4	7.8	4	-1E+10	1	-1E+10	1	-1E+10	1	-1E+10	1	-1E+10	1	-1E+10	1
4902551	100	C	05/22/2023	03:59	-131.255	48.049	0	1535.30	0	2.3300	0	34.5100	0	27.561	0	1516.824	0	26.4	4	8.0	4	-1E+10	1	-1E+10	1	-1E+10	1	-1E+10	1	-1E+10	1	-1E+10	1
4902551	100	C	05/22/2023	03:59	-131.255	48.049	0	1545.40	0	2.3160	0	34.5130	0	27.564	0	1526.766	0	27.1	4	8.2	4	-1E+10	1	-1E+10	1	-1E+10	1	-1E+10	1	-1E+10	1	-1E+10	1
4902551	100	C	05/22/2023	03:59	-131.255	48.049	0	1555.10	0	2.3020	0	34.5150	0	27.567	0	1536.314	0	27.5	4	8.4	4	-1E+10	1	-1E+10	1	-1E+10	1	-1E+10	1	-1E+10	1	-1E+10	1
4902551	100	C	05/22/2023	03:59	-131.255	48.049	0	1565.40	0	2.2940	0	34.5160	0	27.569	0	1546.452	0	28.0	4	8.5	4	-1E+10	1	-1E+10	1	-1E+10	1	-1E+10	1	-1E+10	1	-1E+10	1
4902551	100	C	05/22/2023	03:59	-131.255	48.049	0	1575.80	0	2.2890	0	34.5180	0	27.571	0	1556.687	0	28.5	4	8.6	4	-1E+10	1	-1E+10	1	-1E+10	1	-1E+10	1	-1E+10	1	-1E+10	1
4902551	100	C	05/22/2023	03:59	-131.255	48.049	0	1585.40	0	2.2750	0	34.5200	0	27.574	0	1566.135	0	29.1	4	8.8	4	-1E+10	1	-1E+10	1	-1E+10	1	-1E+10	1	-1E+10	1	-1E+10	1
4902551	100	C	05/22/2023	03:59	-131.255	48.049	0	1595.10	0	2.2640	0	34.5220	0	27.576	0	1575.681	0	29.5	4	8.9	4	-1E+10	1	-1E+10	1	-1E+10	1	-1E+10	1	-1E+10	1	-1E+10	1
4902551	100	C	05/22/2023	03:59	-131.255	48.049	0	1605.40	0	2.2590	0	34.5230	0	27.577	0	1585.818	0	29.9	4	9.1	4	-1E+10	1	-1E+10	1	-1E+10	1	-1E+10	1	-1E+10	1	-1E+10	1
4902551	100	C	05/22/2023	03:59	-131.255	48.049	0	1615.60	0	2.2470	0	34.5250	0	27.580	0	1595.855	0	30.6	4	9.3	4	-1E+10	1	-1E+10	1	-1E+10	1	-1E+10	1	-1E+10	1	-1E+10	1
4902551	100	C	05/22/2023	03:59	-131.255	48.049	0	1625.40	0	2.2380	0	34.5270	0	27.582	0	1605.498	0	31.0	4	9.4	4	-1E+10	1	-1E+10	1	-1E+10	1	-1E+10	1	-1E+10	1	-1E+10	1
4902551	100	C	05/22/2023	03:59	-131.255	48.049	0	1635.20	0	2.2300	0	34.5280	0	27.584	0	1615.140	0	31.4	4	9.5	4	-1E+10	1	-1E+10	1	-1E+10	1	-1E+10	1	-1E+10	1	-1E+10	1
4902551	100	C	05/22/2023	03:59	-131.255	48.049	0	1645.40	0	2.2240	0	34.5290	0	27.585	0	1625.176	0	31.9	4	9.7	4	-1E+10	1	-1E+10	1	-1E+10	1	-1E+10	1	-1E+10	1	-1E+10	1
4902551	100	C	05/22/2023	03:59	-131.255	48.049	0	1655.50	0	2.2160	0	34.5310	0	27.588	0	1635.113	0	32.7	4	9.9	4	-1E+10	1	-1E+10	1	-1E+10	1	-1E+10	1	-1E+10	1	-1E+10	1
4902551	100	C	05/22/2023	03:59	-131.255	48.049	0	1665.20	0	2.2050	0	34.5330	0	27.590	0	1644.656	0	33.4	4	10.1	4	-1E+10	1	-1E+10	1	-1E+10	1	-1E+10	1	-1E+10	1	-1E+10	1
4902551	100	C	05/22/2023	03:59	-131.255	48.049	0	1675.40	0	2.1920	0	34.5350	0	27.593	0	1654.691	0	34.1	4	10.3	4	-1E+10	1	-1E+10	1	-1E+10	1	-1E+10	1	-1E+10	1	-1E+10	1
4902551	100	C	05/22/2023	03:59	-131.255	48.049	0	1685.70	0	2.1830	0	34.5370	0	27.595	0	1664.823	0	34.9	4	10.6	4	-1E+10	1	-1E+10	1	-1E+10	1	-1E+10	1	-1E+10	1	-1E+10	1
4902551	100	C	05/22/2023	03:59	-131.255	48.049	0	1695.60	0	2.1690	0	34.5390	0	27.598	0	1674.561	0	35.6	4	10.8	4	-1E+10	1	-1E+10	1	-1E+10	1	-1E+10	1	-1E+10	1	-1E+10	1
4902551	100	C	05/22/2023	03:59	-131.255	48.049	0	1705.30	0	2.1570	0	34.5420	0	27.601	0	1684.102	0	36.3	4	11.0	4	-1E+10	1	-1E+10	1	-1E+10	1	-1E+10	1	-1E+10	1	-1E+10	1
4902551	100	C	05/22/2023	03:59	-131.255	48.049	0	1715.50	0	2.1490	0	34.5430	0	27.603	0	1694.135	0	37.1	4	11.2	4	-1E+10	1	-1E+10	1	-1E+10	1	-1E+10	1	-1E+10	1	-1E+10	1
4902551	100	C	05/22/2023	03:59	-131.255	48.049	0	1725.60	0	2.1340	0	34.5460	0	27.607	0	1704.068	0	37.8	4	11.4	4	-1E+10	1	-1E+10	1	-1E+10	1	-1E+10	1	-1E+10	1	-1E+10	1
4902551	100	C	05/22/2023	03:59	-131.255	48.049	0	1735.50	0	2.1240	0	34.5480	0	27.609	0	1713.805	0	38.4	4	11.6	4	-1E+10	1	-1E+10	1	-1E+10	1	-1E+10	1	-1E+10	1	-1E+10	1
4902551	100	C	05/22/2023	03:59	-131.255	48.049	0	1745.10	0	2.1190	0	34.5490	0	27.610	0	1723.246	0	39.0	4	11.8	4	-1E+10	1	-1E+10	1	-1E+10	1	-1E+10	1	-1E+10	1	-1E+10	1
4902551	100	C	05/22/2023	03:59	-131.255	48.049	0	1755.00	0	2.1090	0	34.5510	0	27.613	0	1732.982	0	39.6	4	12.0	4	-1E+10	1	-1E+10	1	-1E+10	1	-1E+10	1	-1E+10	1	-1E+10	1
4902551	100	C	05/22/2023	03:59	-131.255	48.049	0	1765.20	0	2.1020	0	34.5520	0	27.614	0	1743.012	0	40.0	4	12.1	4	-1E+10	1	-1E+10	1	-1E+10	1	-1E+10	1	-1E+10	1	-1E+10	1
4902551	100	C	05/22/2023	03:59	-131.255	48.049	0	1775.40	0	2.0970	0	34.5530	0	27.615	0	1753.041	0	40.5	4	12.2	4	-1E+10	1	-1E+10	1	-1E+10	1	-1E+10	1	-1E+10	1	-1E+10	1
4902551	100	C	05/22/2023	03:59	-131.255	48.049	0	1785.60	0	2.0900	0	34.5540	0	27.617	0	1763.071	0	41.1	4	12.4	4	-1E+10	1	-1E+10	1	-1E+10	1	-1E+10	1	-1E+10	1	-1E+10	1
4902551	100	C	05/22/2023	03:59	-131.255	48.049	0	1795.50	0	2.0810	0	34.5560	0	27.619	0	1772.804	0	41.8	4	12.6	4	-1E+10	1	-1E+10	1	-1E+10	1	-1E+10	1	-1E+10	1	-1E+10	1
4902551	100	C	05/22/2023	03:59	-131.255	48.049	0	1805.40	0	2.0740	0	34.5570	0	27.621	0	1782.538	0	42.6	4	12.9	4	-1E+10	1	-1E+10	1	-1E+10	1	-1E+10	1	-1E+10	1	-1E+10	1
4902551	100	C	05/22/2023	03:59	-131.255	48.049	0	1815.40	0	2.0600	0	34.5600	0	27.624	0	1792.369	0	43.4	4	13.1	4	-1E+10	1	-1E+10	1	-1E+10	1	-1E+10	1	-1E+10	1	-1E+10	1
4902551	100	C	05/22/2023	03:59	-131.255	48.049	0	1825.30	0	2.0540	0	34.5610	0	27.625	0	1802.102	0	44.1	4	13.3	4	-1E+10	1	-1E+10	1	-1E+10	1	-1E+10	1	-1E+10	1	-1E+10	1
4902551	100	C	05/22/2023	03:59	-131.255	48.049	0	1835.40	0	2.0420	0	34.5630	0	27.628	0	1812.030	0	44.9	4	13.6	4	-1E+10	1	-1E+10	1	-1E+10	1	-1E+10	1	-1E+10	1	-1E+10	1
4902551	100	C	05/22/2023	03:59	-131.255	48.049	0	1845.20	0	2.0310	0	34.5650	0	27.630	0	1821.663	0	45.5	4	13.7	4	-1E+10	1	-1E+10	1	-1E+10	1	-1E+10	1	-1E+10	1	-1E+10	1
4902551	100	C	05/22/2023	03:59	-131.255	48.049	0	1855.20	0	2.0260	0	34.5660	0	27.632	0	1831.493	0	46.0	4	13.9	4	-1E+10	1	-1E+10	1	-1E+10	1	-1E+10	1	-1E+10	1	-1E+10	1
4902551	100	C	05/22/2023	03:59	-131.255	48.049	0	1865.30	0	2.0190	0	34.5680	0	27.634	0	1841.420	0	46.5	4	14.0	4	-1E+10	1	-1E+10	1	-1E+10	1	-1E+10	1	-1E+10	1	-1E+10	1
4902551	100	C	05/22/2023	03:59	-131.255	48.049	0	1875.40	0	2.0140	0	34.5690	0	27.635	0	1851.347	0	46.9	4	14.1	4	-1E+10	1	-1E+10	1	-1E+10	1	-1E+10	1	-1E+10	1	-1E+10	1
4902551	100	C	05/22/2023	03:59	-131.255	48.049	0	1885.50	0	2.0120	0	34.5700	0	27.636	0	1861.273	0	47.3	4	14.3	4	-1E+10	1	-1E+10	1	-1E+10	1	-1E+10	1	-1E+10	1	-1E+10	1
4902551	100	C	05/22/2023	03:59	-131.255	48.049	0	1895.60	0	2.0050	0	34.5710	0	27.638	0	1871.199	0	48.0	4	14.5	4	-1E+10	1	-1E+10	1	-1E+10	1	-1E+10	1	-1E+10	1	-1E+10	1
4902551	100	C	05/22/2023	03:59	-131.255	48.049	0	1905.70	0	1.9980	0	34.5720	0	27.639	0	1881.124	0	48.7	4	14.7	4	-1E+10	1	-1E+10	1	-1E+10	1	-1E+10	1	-1E+10	1	-1E+10	1
4902551	100	C	05/22/2023	03:59	-131.255	48.049	0	1915.40	0	1.9890	0	34.5740	0	27.641	0	1890.656	0	49.5	4	14.9	4	-1E+10	1	-1E+10	1	-1E+10	1	-1E+10	1	-1E+10	1	-1E+10	1
4902551	100	C	05/22/2023	03:59	-131.255	48.049	0	1925.30	0	1.9810	0	34.5750	0	27.643	0	1900.384	0	50.0	4	15.1	4	-1E+10	1	-1E+10	1	-1E+10	1	-1E+10	1	-1E+10	1	-1E+10	1
4902551	100	C	05/22/2023	03:59	-131.255	48.049	0	1935.40	0	1.9750	0	34.5770	0	27.645	0	1910.308	0	50.7	4	15.3	4	-1E+10	1	-1E+10	1	-1E+10	1	-1E+10	1	-1E+10	1	-1E+10	1
4902551	100	C	05/22/2023	03:59	-131.255	48.049	0	1945.40	0	1.9660	0	34.5780	0	27.646	0	1920.133	0	51.4	4	15.5	4	-1E+10	1	-1E+10	1	-1E+10	1	-1E+10	1	-1E+10	1	-1E+10	1
4902551	100	C	05/22/2023	03:59	-131.255	48.049	0	1955.40	0	1.9600	0	34.5790	0	27.648	0	1929.958	0	51.9	4	15.6	4	-1E+10	1	-1E+10	1	-1E+10	1	-1E+10	1	-1E+10	1	-1E+10	1
4902551	100	C	05/22/2023	03:59	-131.255	48.049	0	1965.30	0	1.9550	0	34.5800	0	27.649	0	1939.684	0	52.5	4	15.8	4	-1E+10	1	-1E+10	1	-1E+10	1	-1E+10	1	-1E+10	1	-1E+10	1
4902551	100	C	05/22/2023	03:59	-131.255	48.049	0	1975.40	0	1.9480	0	34.5820	0	27.651	0	1949.606	0	53.1	4	16.0	4	-1E+10	1	-1E+10	1	-1E+10	1	-1E+10	1	-1E+10	1	-1E+10	1
4902551	100	C	05/22/2023	03:59	-131.255	48.049	0	1985.70	0	1.9400	0	34.5830	0	27.653	0	1959.725	0	53.7	4	16.2	4	-1E+10	1	-1E+10	1	-1E+10	1	-1E+10	1	-1E+10	1	-1E+10	1
4902551	100	C	05/22/2023	03:59	-131.255	48.049	0	1995.60	0	1.9360	0	34.5840	0	27.654	0	1969.449	0	54.1	4	16.3	4	-1E+10	1	-1E+10	1	-1E+10	1	-1E+10	1	-1E+10	1	-1E+10	1
4902551	100	C	05/22/2023	03:59	-131.255	48.049	0	2005.70	0	1.9320	0	34.5850	0	27.655	0	1979.370	0	54.6	4	16.4	4	-1E+10	1	-1E+10	1	-1E+10	1	-1E+10	1	-1E+10	1	-1E+10	1
4902551	100	C	05/22/2023	03:59	-131.255	48.049	0	2015.50	0	1.9260	0	34.5860	0	27.656	0	1988.996	0	55.1	4	16.6	4	-1E+10	1	-1E+10	1	-1E+10	1	-1E+10	1	-1E+10	1	-1E+10	1
4902551	100	C	05/22/2023	03:59	-131.255	48.049	0	2025.70	0	1.9170	0	34.5880	0	27.659	0	1999.014	0	55.4	4	16.7	4	-1E+10	1	-1E+10	1	-1E+10	1	-1E+10	1	-1E+10	1	-1E+10	1
4902551	100	C	05/22/2023	03:59	-131.255	48.049	0	2032.00	0	1.9130	0	34.5890	0	27.660	0	2005.201	0	55.0	4	16.5	4	-1E+10	1	-1E+10	1	-1E+10	1	-1E+10	1	-1E+10	1	-1E+10	1
4902551	100	C	05/22/2023	03:59	-131.255	48.049	0																										
4902551	101	C	06/01/2023	09:05	-131.185	48.056	0	0.10	0	11.9190	0	32.3740	0	24.566	0	0.099	0	262.4	4	97.7	4	-1E+10	1	-1E+10	1	-1E+10	1	-1E+10	1	-1E+10	1	-1E+10	1
4902551	101	C	06/01/2023	09:05	-131.185	48.056	0	0.90	0	11.9200	0	32.3720	0	24.564	0	0.892	0	262.5	4	97.7	4	-1E+10	1	-1E+10	1	-1E+10	1	-1E+10	1	-1E+10	1	-1E+10	1
4902551	101	C	06/01/2023	09:05	-131.185	48.056	0	2.00	0	11.9230	0	32.3710	0	24.563	0	1.983	0	262.5	4	97.7	4	-1E+10	1	-1E+10	1	-1E+10	1	-1E+10	1	-1E+10	1	-1E+10	1
4902551	101	C	06/01/2023	09:05	-131.185	48.056	0	3.00	0	11.9240	0	32.3700	0	24.562	0	2.975	0	262.6	4	97.8	4	-1E+10	1	-1E+10	1	-1E+10	1	-1E+10	1	-1E+10	1	-1E+10	1
4902551	101	C	06/01/2023	09:05	-131.185	48.056	0	4.10	0	11.9230	0	32.3730	0	24.564	0	4.066	0	262.7	4	97.8	4	-1E+10	1	-1E+10	1	-1E+10	1	-1E+10	1	-1E+10	1	-1E+10	1
4902551	101	C	06/01/2023	09:05	-131.185	48.056	0	4.90	0	11.9220	0	32.3760	0	24.567	0	4.859	0	262.8	4	97.8	4	-1E+10	1	-1E+10	1	-1E+10	1	-1E+10	1	-1E+10	1	-1E+10	1
4902551	101	C	06/01/2023	09:05	-131.185	48.056	0	5.90	0	11.9220	0	32.3740	0	24.565	0	5.850	0	262.8	4	97.8	4	-1E+10	1	-1E+10	1	-1E+10	1	-1E+10	1	-1E+10	1	-1E+10	1
4902551	101	C	06/01/2023	09:05	-131.185	48.056	0	6.90	0	11.9220	0	32.3740	0	24.565	0	6.842	0	262.9	4	97.9	4	-1E+10	1	-1E+10	1	-1E+10	1	-1E+10	1	-1E+10	1	-1E+10	1
4902551	101	C	06/01/2023	09:05	-131.185	48.056	0	7.90	0	11.9210	0	32.3740	0	24.566	0	7.834	0	263.1	4	97.9	4	-1E+10	1	-1E+10	1	-1E+10	1	-1E+10	1	-1E+10	1	-1E+10	1
4902551	101	C	06/01/2023	09:05	-131.185	48.056	0	8.90	0	11.9130	0	32.3720	0	24.566	0	8.825	0	263.2	4	98.0	4	-1E+10	1	-1E+10	1	-1E+10	1	-1E+10	1	-1E+10	1	-1E+10	1
4902551	101	C	06/01/2023	09:05	-131.185	48.056	0	9.90	0	11.9080	0	32.3720	0	24.567	0	9.817	0	263.4	4	98.0	4	-1E+10	1	-1E+10	1	-1E+10	1	-1E+10	1	-1E+10	1	-1E+10	1
4902551	101	C	06/01/2023	09:05	-131.185	48.056	0	10.90	0	11.9090	0	32.3730	0	24.567	0	10.808	0	263.7	4	98.1	4	-1E+10	1	-1E+10	1	-1E+10	1	-1E+10	1	-1E+10	1	-1E+10	1
4902551	101	C	06/01/2023	09:05	-131.185	48.056	0	11.90	0	11.8660	0	32.3740	0	24.576	0	11.800	0	264.0	4	98.2	4	-1E+10	1	-1E+10	1	-1E+10	1	-1E+10	1	-1E+10	1	-1E+10	1
4902551	101	C	06/01/2023	09:05	-131.185	48.056	0	13.00	0	11.8300	0	32.3720	0	24.581	0	12.890	0	264.3	4	98.2	4	-1E+10	1	-1E+10	1	-1E+10	1	-1E+10	1	-1E+10	1	-1E+10	1
4902551	101	C	06/01/2023	09:05	-131.185	48.056	0	13.90	0	11.7820	0	32.3790	0	24.595	0	13.783	0	264.6	4	98.2	4	-1E+10	1	-1E+10	1	-1E+10	1	-1E+10	1	-1E+10	1	-1E+10	1
4902551	101	C	06/01/2023	09:05	-131.185	48.056	0	15.00	0	11.7590	0	32.3720	0	24.594	0	14.874	0	264.9	4	98.3	4	-1E+10	1	-1E+10	1	-1E+10	1	-1E+10	1	-1E+10	1	-1E+10	1
4902551	101	C	06/01/2023	09:05	-131.185	48.056	0	16.00	0	11.7510	0	32.3710	0	24.595	0	15.865	0	265.3	4	98.4	4	-1E+10	1	-1E+10	1	-1E+10	1	-1E+10	1	-1E+10	1	-1E+10	1
4902551	101	C	06/01/2023	09:05	-131.185	48.056	0	17.00	0	11.7440	0	32.3710	0	24.596	0	16.857	0	265.6	4	98.5	4	-1E+10	1	-1E+10	1	-1E+10	1	-1E+10	1	-1E+10	1	-1E+10	1
4902551	101	C	06/01/2023	09:05	-131.185	48.056	0	18.00	0	11.7360	0	32.3710	0	24.598	0	17.848	0	266.1	4	98.7	4	-1E+10	1	-1E+10	1	-1E+10	1	-1E+10	1	-1E+10	1	-1E+10	1
4902551	101	C	06/01/2023	09:05	-131.185	48.056	0	19.00	0	11.7290	0	32.3710	0	24.599	0	18.840	0	266.6	4	98.9	4	-1E+10	1	-1E+10	1	-1E+10	1	-1E+10	1	-1E+10	1	-1E+10	1
4902551	101	C	06/01/2023	09:05	-131.185	48.056	0	20.00	0	11.7200	0	32.3690	0	24.599	0	19.831	0	267.3	4	99.1	4	-1E+10	1	-1E+10	1	-1E+10	1	-1E+10	1	-1E+10	1	-1E+10	1
4902551	101	C	06/01/2023	09:05	-131.185	48.056	0	20.90	0	11.7130	0	32.3690	0	24.600	0	20.723	0	268.1	4	99.4	4	-1E+10	1	-1E+10	1	-1E+10	1	-1E+10	1	-1E+10	1	-1E+10	1
4902551	101	C	06/01/2023	09:05	-131.185	48.056	0	21.80	0	11.7040	0	32.3690	0	24.602	0	21.616	0	268.9	4	99.6	4	-1E+10	1	-1E+10	1	-1E+10	1	-1E+10	1	-1E+10	1	-1E+10	1
4902551	101	C	06/01/2023	09:05	-131.185	48.056	0	22.90	0	11.6900	0	32.3670	0	24.603	0	22.706	0	270.4	4	100.2	4	-1E+10	1	-1E+10	1	-1E+10	1	-1E+10	1	-1E+10	1	-1E+10	1
4902551	101	C	06/01/2023	09:05	-131.185	48.056	0	24.10	0	11.6170	0	32.3630	0	24.613	0	23.896	0	273.4	4	101.1	4	-1E+10	1	-1E+10	1	-1E+10	1	-1E+10	1	-1E+10	1	-1E+10	1
4902551	101	C	06/01/2023	09:05	-131.185	48.056	0	25.00	0	11.4090	0	32.3590	0	24.648	0	24.789	0	278.1	4	102.4	4	-1E+10	1	-1E+10	1	-1E+10	1	-1E+10	1	-1E+10	1	-1E+10	1
4902551	101	C	06/01/2023	09:05	-131.185	48.056	0	26.00	0	10.8080	0	32.3530	0	24.749	0	25.780	0	282.1	4	102.6	4	-1E+10	1	-1E+10	1	-1E+10	1	-1E+10	1	-1E+10	1	-1E+10	1
4902551	101	C	06/01/2023	09:05	-131.185	48.056	0	26.90	0	10.2530	0	32.3510	0	24.843	0	26.672	0	285.0	4	102.4	4	-1E+10	1	-1E+10	1	-1E+10	1	-1E+10	1	-1E+10	1	-1E+10	1
4902551	101	C	06/01/2023	09:05	-131.185	48.056	0	28.00	0	10.0170	0	32.3590	0	24.888	0	27.763	0	285.8	4	102.2	4	-1E+10	1	-1E+10	1	-1E+10	1	-1E+10	1	-1E+10	1	-1E+10	1
4902551	101	C	06/01/2023	09:05	-131.185	48.056	0	29.20	0	9.6750	0	32.3640	0	24.948	0	28.953	0	286.6	4	101.7	4	-1E+10	1	-1E+10	1	-1E+10	1	-1E+10	1	-1E+10	1	-1E+10	1
4902551	101	C	06/01/2023	09:05	-131.185	48.056	0	30.00	0	9.4880	0	32.3510	0	24.968	0	29.746	0	286.9	4	101.4	4	-1E+10	1	-1E+10	1	-1E+10	1	-1E+10	1	-1E+10	1	-1E+10	1
4902551	101	C	06/01/2023	09:05	-131.185	48.056	0	30.90	0	9.4480	0	32.3350	0	24.962	0	30.638	0	286.6	4	101.2	4	-1E+10	1	-1E+10	1	-1E+10	1	-1E+10	1	-1E+10	1	-1E+10	1
4902551	101	C	06/01/2023	09:05	-131.185	48.056	0	32.20	0	9.4230	0	32.3460	0	24.975	0	31.927	0	285.9	4	100.9	4	-1E+10	1	-1E+10	1	-1E+10	1	-1E+10	1	-1E+10	1	-1E+10	1
4902551	101	C	06/01/2023	09:05	-131.185	48.056	0	32.80	0	9.3690	0	32.3420	0	24.980	0	32.522	0	285.6	4	100.7	4	-1E+10	1	-1E+10	1	-1E+10	1	-1E+10	1	-1E+10	1	-1E+10	1
4902551	101	C	06/01/2023	09:05	-131.185	48.056	0	34.00	0	9.2300	0	32.3400	0	25.001	0	33.712	0	285.4	4	100.3	4	-1E+10	1	-1E+10	1	-1E+10	1	-1E+10	1	-1E+10	1	-1E+10	1
4902551	101	C	06/01/2023	09:05	-131.185	48.056	0	34.70	0	9.1900	0	32.3380	0	25.006	0	34.406	0	285.2	4	100.1	4	-1E+10	1	-1E+10	1	-1E+10	1	-1E+10	1	-1E+10	1	-1E+10	1
4902551	101	C	06/01/2023	09:05	-131.185	48.056	0	35.70	0	9.0800	0	32.3410	0	25.025	0	35.397	0	285.0	4	99.8	4	-1E+10	1	-1E+10	1	-1E+10	1	-1E+10	1	-1E+10	1	-1E+10	1
4902551	101	C	06/01/2023	09:05	-131.185	48.056	0	36.70	0	8.9820	0	32.3370	0	25.037	0	36.389	0	284.8	4	99.5	4	-1E+10	1	-1E+10	1	-1E+10	1	-1E+10	1	-1E+10	1	-1E+10	1
4902551	101	C	06/01/2023	09:05	-131.185	48.056	0	37.80	0	8.9000	0	32.3520	0	25.062	0	37.479	0	284.4	4	99.2	4	-1E+10	1	-1E+10	1	-1E+10	1	-1E+10	1	-1E+10	1	-1E+10	1
4902551	101	C	06/01/2023	09:05	-131.185	48.056	0	39.00	0	8.7940	0	32.3400	0	25.068	0	38.669	0	284.2	4	98.9	4	-1E+10	1	-1E+10	1	-1E+10	1	-1E+10	1	-1E+10	1	-1E+10	1
4902551	101	C	06/01/2023	09:05	-131.185	48.056	0	39.90	0	8.7750	0	32.3530	0	25.082	0	39.561	0	283.7	4	98.7	4	-1E+10	1	-1E+10	1	-1E+10	1	-1E+10	1	-1E+10	1	-1E+10	1
4902551	101	C	06/01/2023	09:05	-131.185	48.056	0	40.80	0	8.7480	0	32.3490	0	25.082	0	40.453	0	283.0	4	98.4	4	-1E+10	1	-1E+10	1	-1E+10	1	-1E+10	1	-1E+10	1	-1E+10	1
4902551	101	C	06/01/2023	09:05	-131.185	48.056	0	42.00	0	8.7080	0	32.3490	0	25.089	0	41.643	0	282.1	4	98.0	4	-1E+10	1	-1E+10	1	-1E+10	1	-1E+10	1	-1E+10	1	-1E+10	1
4902551	101	C	06/01/2023	09:05	-131.185	48.056	0	43.00	0	8.6050	0	32.3510	0	25.106	0	42.635	0	281.6	4	97.6	4	-1E+10	1	-1E+10	1	-1E+10	1	-1E+10	1	-1E+10	1	-1E+10	1
4902551	101	C	06/01/2023	09:05	-131.185	48.056	0	43.90	0	8.4920	0	32.3560	0	25.127	0	43.527	0	281.3	4	97.2	4	-1E+10	1	-1E+10	1	-1E+10	1	-1E+10	1	-1E+10	1	-1E+10	1
4902551	101	C	06/01/2023	09:05	-131.185	48.056	0	44.80	0	8.4200	0	32.3550	0	25.137	0	44.419	0	280.9	4	97.0	4	-1E+10	1	-1E+10	1	-1E+10	1	-1E+10	1	-1E+10	1	-1E+10	1
4902551	101	C	06/01/2023	09:05	-131.185	48.056	0	45.70	0	8.3870	0	32.3530	0	25.140	0	45.311	0	280.3	4	96.7	4	-1E+10	1	-1E+10	1	-1E+10	1	-1E+10	1	-1E+10	1	-1E+10	1
4902551	101	C	06/01/2023	09:05	-131.185	48.056	0	47.00	0	8.2380	0	32.3620	0	25.169	0	46.600	0	279.6	4	96.1	4	-1E+10	1	-1E+10	1	-1E+10	1	-1E+10	1	-1E+10	1	-1E+10	1
4902551	101	C	06/01/2023	09:05	-131.185	48.056	0	48.00	0	8.1140	0	32.3590	0	25.185	0	47.591	0	279.4	4	95.8	4	-1E+10	1	-1E+10	1	-1E+10	1	-1E+10	1	-1E+10	1	-1E+10	1
4902551	101	C	06/01/2023	09:05	-131.185	48.056	0	48.90	0	8.0450	0	32.3560	0	25.192	0	48.484	0	279.3	4	95.6	4	-1E+10	1	-1E+10	1	-1E+10	1	-1E+10	1	-1E+10	1	-1E+10	1
4902551	101	C	06/01/2023	09:05	-131.185	48.056	0	49.80	0	8.0330	0	32.3570	0	25.195	0	49.376	0	278.8	4	95.4	4	-1E+10	1	-1E+10	1	-1E+10	1	-1E+10	1	-1E+10	1	-1E+10	1
4902551	101	C	06/01/2023	09:05	-131.185	48.056	0	50.80	0	8.0070	0	32.3600	0	25.201	0	50.367	0	278.5	4	95.2	4	-1E+10	1	-1E+10	1	-1E+10	1	-1E+10	1	-1E+10	1	-1E+10	1
4902551	101	C	06/01/2023	09:05	-131.185	48.056	0	51.90	0	7.9840	0	32.3590	0	25.204	0	51.458	0	277.9	4	95.0	4	-1E+10	1	-1E+10	1	-1E+10	1	-1E+10	1	-1E+10	1	-1E+10	1
4902551	101	C	06/01/2023	09:05	-131.185	48.056	0	53.10	0	7.9610	0	32.3620	0	25.209	0	52.647	0	277.4	4	94.8	4	-1E+10	1	-1E+10	1	-1E+10	1	-1E+10	1	-1E+10	1	-1E+10	1
4902551	101	C	06/01/2023	09:05	-131.185	48.056	0	54.00	0	7.9450	0	32.3640	0	25.213	0	53.540	0	277.0	4	94.6	4	-1E+10	1	-1E+10	1	-1E+10	1	-1E+10	1	-1E+10	1	-1E+10	1
4902551	101	C	06/01/2023	09:05	-131.185	48.056	0	54.80	0	7.9210	0	32.3630	0	25.216	0	54.333	0	276.7	4	94.4	4	-1E+10	1	-1E+10	1	-1E+10	1	-1E+10	1	-1E+10	1	-1E+10	1
4902551	101	C	06/01/2023	09:05	-131.185	48.056	0	55.80	0	7.9030	0	32.3630	0	25.218	0	55.324	0	276.4	4	94.3	4	-1E+10	1	-1E+10	1	-1E+10	1	-1E+10	1	-1E+10	1	-1E+10	1
4902551	101	C	06/01/2023	09:05	-131.185	48.056	0	57.00	0	7.8870	0	32.3630	0	25.221	0	56.514	0	275.9	4	94.1	4	-1E+10	1	-1E+10	1	-1E+10	1	-1E+10	1	-1E+10	1	-1E+10	1
4902551	101	C	06/01/2023	09:05	-131.185	48.056	0	57.90	0	7.8790	0	32.3630	0	25.222	0	57.406	0	275.5	4	93.9	4	-1E+10	1	-1E+10	1	-1E+10	1	-1E+10	1	-1E+10	1	-1E+10	1
4902551	101	C	06/01/2023	09:05	-131.185	48.056	0	59.10	0	7.8580	0	32.3660	0	25.227	0	58.595	0	274.8	4	93.7	4	-1E+10	1	-1E+10	1	-1E+10	1	-1E+10	1	-1E+10	1	-1E+10	1
4902551	101	C	06/01/2023	09:05	-131.185	48.056	0	59.90	0	7.8380	0	32.3670	0	25.231	0	59.388	0	274.6	4	93.6	4	-1E+10	1	-1E+10	1	-1E+10	1	-1E+10	1	-1E+10	1	-1E+10	1
4902551	101	C	06/01/2023	09:05	-131.185	48.056	0	61.00	0	7.8250	0	32.3690	0	25.234	0	60.479	0	274.4	4	93.5	4	-1E+10	1	-1E+10	1	-1E+10	1	-1E+10	1	-1E+10	1	-1E+10	1
4902551	101	C	06/01/2023	09:05	-131.185	48.056	0	61.90	0	7.8170	0	32.3690	0	25.235	0	61.371	0	274.3	4	93.4	4	-1E+10	1	-1E+10	1	-1E+10	1	-1E+10	1	-1E+10	1	-1E+10	1
4902551	101	C	06/01/2023	09:05	-131.185	48.056	0	62.90	0	7.7950	0	32.3690	0	25.239	0	62.362	0	274.1	4	93.3	4	-1E+10	1	-1E+10	1	-1E+10	1	-1E+10	1	-1E+10	1	-1E+10	1
4902551	101	C	06/01/2023	09:05	-131.185	48.056	0	64.10	0	7.7780	0	32.3660	0	25.239	0	63.552	0	273.8	4	93.1	4	-1E+10	1	-1E+10	1	-1E+10	1	-1E+10	1	-1E+10	1	-1E+10	1
4902551	101	C	06/01/2023	09:05	-131.185	48.056	0	65.10	0	7.7720	0	32.3660	0	25.239	0	64.543	0	273.5	4	93.0	4	-1E+10	1	-1E+10	1	-1E+10	1	-1E+10	1	-1E+10	1	-1E+10	1
4902551	101	C	06/01/2023	09:05	-131.185	48.056	0	66.00	0	7.7380	0	32.3640	0	25.243	0	65.435	0	273.3	4	92.9	4	-1E+10	1	-1E+10	1	-1E+10	1	-1E+10	1	-1E+10	1	-1E+10	1
4902551	101	C	06/01/2023	09:05	-131.185	48.056	0	66.90	0	7.7100	0	32.3620	0	25.245	0	66.328	0	273.1	4	92.8	4	-1E+10	1	-1E+10	1	-1E+10	1	-1E+10	1	-1E+10	1	-1E+10	1
4902551	101	C	06/01/2023	09:05	-131.185	48.056	0	67.90	0	7.6810	0	32.3590	0	25.247	0	67.319	0	272.8	4	92.6	4	-1E+10	1	-1E+10	1	-1E+10	1	-1E+10	1	-1E+10	1	-1E+10	1
4902551	101	C	06/01/2023	09:05	-131.185	48.056	0	68.90	0	7.6710	0	32.3580	0	25.247	0	68.310	0	272.5	4	92.5	4	-1E+10	1	-1E+10	1	-1E+10	1	-1E+10	1	-1E+10	1	-1E+10	1
4902551	101	C	06/01/2023	09:05	-131.185	48.056	0	70.00	0	7.6660	0	32.3580	0	25.248	0	69.400	0	272.1	4	92.3	4	-1E+10	1	-1E+10	1	-1E+10	1	-1E+10	1	-1E+10	1	-1E+10	1
4902551	101	C	06/01/2023	09:05	-131.185	48.056	0	71.00	0	7.6510	0	32.3580	0	25.250	0	70.392	0	271.7	4	92.2	4	-1E+10	1	-1E+10	1	-1E+10	1	-1E+10	1	-1E+10	1	-1E+10	1
4902551	101	C	06/01/2023	09:05	-131.185	48.056	0	72.00	0	7.6400	0	32.3570	0	25.251	0	71.383	0	271.2	4	92.0	4	-1E+10	1	-1E+10	1	-1E+10	1	-1E+10	1	-1E+10	1	-1E+10	1
4902551	101	C	06/01/2023	09:05	-131.185	48.056	0	73.10	0	7.6390	0	32.3570	0	25.251	0	72.473	0	270.6	4	91.8	4	-1E+10	1	-1E+10	1	-1E+10	1	-1E+10	1	-1E+10	1	-1E+10	1
4902551	101	C	06/01/2023	09:05	-131.185	48.056	0	74.10	0	7.6570	0	32.3640	0	25.254	0	73.465	0	270.0	4	91.6	4	-1E+10	1	-1E+10	1	-1E+10	1	-1E+10	1	-1E+10	1	-1E+10	1
4902551	101	C	06/01/2023	09:05	-131.185	48.056	0	75.10	0	7.6860	0	32.3640	0	25.250	0	74.456	0	269.4	4	91.5	4	-1E+10	1	-1E+10	1	-1E+10	1	-1E+10	1	-1E+10	1	-1E+10	1
4902551	101	C	06/01/2023	09:05	-131.185	48.056	0	76.10	0	7.7150	0	32.3740	0	25.254	0	75.447	0	268.7	4	91.3	4	-1E+10	1	-1E+10	1	-1E+10	1	-1E+10	1	-1E+10	1	-1E+10	1
4902551	101	C	06/01/2023	09:05	-131.185	48.056	0	77.00	0	7.7140	0	32.3790	0	25.258	0	76.339	0	268.3	4	91.2	4	-1E+10	1	-1E+10	1	-1E+10	1	-1E+10	1	-1E+10	1	-1E+10	1
4902551	101	C	06/01/2023	09:05	-131.185	48.056	0	78.00	0	7.6980	0	32.3810	0	25.262	0	77.330	0	267.8	4	91.0	4	-1E+10	1	-1E+10	1	-1E+10	1	-1E+10	1	-1E+10	1	-1E+10	1
4902551	101	C	06/01/2023	09:05	-131.185	48.056	0	78.90	0	7.6830	0	32.3790	0	25.262	0	78.223	0	267.2	4	90.7	4	-1E+10	1	-1E+10	1	-1E+10	1	-1E+10	1	-1E+10	1	-1E+10	1
4902551	101	C	06/01/2023	09:05	-131.185	48.056	0	79.80	0	7.6900	0	32.3810	0	25.263	0	79.115	0	266.7	4	90.6	4	-1E+10	1	-1E+10	1	-1E+10	1	-1E+10	1	-1E+10	1	-1E+10	1
4902551	101	C	06/01/2023	09:05	-131.185	48.056	0	80.90	0	7.6930	0	32.3890	0	25.269	0	80.205	0	265.8	4	90.3	4	-1E+10	1	-1E+10	1	-1E+10	1	-1E+10	1	-1E+10	1	-1E+10	1
4902551	101	C	06/01/2023	09:05	-131.185	48.056	0	82.20	0	7.6940	0	32.3970	0	25.275	0	81.494	0	264.9	4	90.0	4	-1E+10	1	-1E+10	1	-1E+10	1	-1E+10	1	-1E+10	1	-1E+10	1
4902551	101	C	06/01/2023	09:05	-131.185	48.056	0	82.90	0	7.6920	0	32.4010	0	25.278	0	82.187	0	271.1	4	92.1	4	-1E+10	1	-1E+10	1	-1E+10	1	-1E+10	1	-1E+10	1	-1E+10	1
4902551	101	C	06/01/2023	09:05	-131.185	48.056	0	84.00	0	7.6810	0	32.4100	0	25.287	0	83.278	0	269.8	4	91.6	4	-1E+10	1	-1E+10	1	-1E+10	1	-1E+10	1	-1E+10	1	-1E+10	1
4902551	101	C	06/01/2023	09:05	-131.185	48.056	0	85.00	0	7.6690	0	32.4140	0	25.292	0	84.269	0	268.3	4	91.1	4	-1E+10	1	-1E+10	1	-1E+10	1	-1E+10	1	-1E+10	1	-1E+10	1
4902551	101	C	06/01/2023	09:05	-131.185	48.056	0	86.00	0	7.6540	0	32.4160	0	25.296	0	85.260	0	266.2	4	90.3	4	-1E+10	1	-1E+10	1	-1E+10	1	-1E+10	1	-1E+10	1	-1E+10	1
4902551	101	C	06/01/2023	09:05	-131.185	48.056	0	86.90	0	7.6400	0	32.4170	0	25.298	0	86.152	0	263.7	4	89.5	4	-1E+10	1	-1E+10	1	-1E+10	1	-1E+10	1	-1E+10	1	-1E+10	1
4902551	101	C	06/01/2023	09:05	-131.185	48.056	0	87.80	0	7.6110	0	32.4350	0	25.317	0	87.044	0	260.7	4	88.4	4	-1E+10	1	-1E+10	1	-1E+10	1	-1E+10	1	-1E+10	1	-1E+10	1
4902551	101	C	06/01/2023	09:05	-131.185	48.056	0	88.90	0	7.5940	0	32.4680	0	25.345	0	88.135	0	257.8	4	87.4	4	-1E+10	1	-1E+10	1	-1E+10	1	-1E+10	1	-1E+10	1	-1E+10	1
4902551	101	C	06/01/2023	09:05	-131.185	48.056	0	90.10	0	7.5780	0	32.4990	0	25.372	0	89.324	0	254.6	4	86.3	4	-1E+10	1	-1E+10	1	-1E+10	1	-1E+10	1	-1E+10	1	-1E+10	1
4902551	101	C	06/01/2023	09:05	-131.185	48.056	0	91.10	0	7.5260	0	32.5500	0	25.419	0	90.315	0	252.1	4	85.4	4	-1E+10	1	-1E+10	1	-1E+10	1	-1E+10	1	-1E+10	1	-1E+10	1
4902551	101	C	06/01/2023	09:05	-131.185	48.056	0	92.00	0	7.5180	0	32.5640	0	25.431	0	91.207	0	250.8	4	85.0	4	-1E+10	1	-1E+10	1	-1E+10	1	-1E+10	1	-1E+10	1	-1E+10	1
4902551	101	C	06/01/2023	09:05	-131.185	48.056	0	93.10	0	7.4910	0	32.5870	0	25.453	0	92.297	0	248.3	4	84.1	4	-1E+10	1	-1E+10	1	-1E+10	1	-1E+10	1	-1E+10	1	-1E+10	1
4902551	101	C	06/01/2023	09:05	-131.185	48.056	0	94.10	0	7.4740	0	32.6000	0	25.465	0	93.289	0	245.5	4	83.1	4	-1E+10	1	-1E+10	1	-1E+10	1	-1E+10	1	-1E+10	1	-1E+10	1
4902551	101	C	06/01/2023	09:05	-131.185	48.056	0	95.00	0	7.4670	0	32.6090	0	25.474	0	94.181	0	241.0	4	81.6	4	-1E+10	1	-1E+10	1	-1E+10	1	-1E+10	1	-1E+10	1	-1E+10	1
4902551	101	C	06/01/2023	09:05	-131.185	48.056	0	95.90	0	7.4230	0	32.6550	0	25.516	0	95.073	0	237.7	4	80.4	4	-1E+10	1	-1E+10	1	-1E+10	1	-1E+10	1	-1E+10	1	-1E+10	1
4902551	101	C	06/01/2023	09:05	-131.185	48.056	0	96.80	0	7.3710	0	32.7110	0	25.567	0	95.965	0	235.5	4	79.6	4	-1E+10	1	-1E+10	1	-1E+10	1	-1E+10	1	-1E+10	1	-1E+10	1
4902551	101	C	06/01/2023	09:05	-131.185	48.056	0	98.10	0	7.3500	0	32.7320	0	25.586	0	97.253	0	232.5	4	78.6	4	-1E+10	1	-1E+10	1	-1E+10	1	-1E+10	1	-1E+10	1	-1E+10	1
4902551	101	C	06/01/2023	09:05	-131.185	48.056	0	99.00	0	7.3280	0	32.7560	0	25.608	0	98.145	0	229.6	4	77.5	4	-1E+10	1	-1E+10	1	-1E+10	1	-1E+10	1	-1E+10	1	-1E+10	1
4902551	101	C	06/01/2023	09:05	-131.185	48.056	0	100.10	0	7.3130	0	32.7740	0	25.625	0	99.235	0	226.5	4	76.5	4	-1E+10	1	-1E+10	1	-1E+10	1	-1E+10	1	-1E+10	1	-1E+10	1
4902551	101	C	06/01/2023	09:05	-131.185	48.056	0	100.90	0	7.2690	0	32.8200	0	25.667	0	100.028	0	224.5	4	75.7	4	-1E+10	1	-1E+10	1	-1E+10	1	-1E+10	1	-1E+10	1	-1E+10	1
4902551	101	C	06/01/2023	09:05	-131.185	48.056	0	102.00	0	7.1910	0	32.8890	0	25.732	0	101.119	0	222.3	4	74.9	4	-1E+10	1	-1E+10	1	-1E+10	1	-1E+10	1	-1E+10	1	-1E+10	1
4902551	101	C	06/01/2023	09:05	-131.185	48.056	0	103.00	0	7.1210	0	32.9530	0	25.792	0	102.110	0	220.6	4	74.3	4	-1E+10	1	-1E+10	1	-1E+10	1	-1E+10	1	-1E+10	1	-1E+10	1
4902551	101	C	06/01/2023	09:05	-131.185	48.056	0	104.10	0	7.1050	0	32.9740	0	25.810	0	103.200	0	218.7	4	73.6	4	-1E+10	1	-1E+10	1	-1E+10	1	-1E+10	1	-1E+10	1	-1E+10	1
4902551	101	C	06/01/2023	09:05	-131.185	48.056	0	105.00	0	7.1040	0	32.9820	0	25.817	0	104.092	0	217.3	4	73.1	4	-1E+10	1	-1E+10	1	-1E+10	1	-1E+10	1	-1E+10	1	-1E+10	1
4902551	101	C	06/01/2023	09:05	-131.185	48.056	0	105.80	0	7.1070	0	32.9920	0	25.824	0	104.885	0	216.0	4	72.7	4	-1E+10	1	-1E+10	1	-1E+10	1	-1E+10	1	-1E+10	1	-1E+10	1
4902551	101	C	06/01/2023	09:05	-131.185	48.056	0	107.00	0	7.0910	0	33.0220	0	25.850	0	106.074	0	214.8	4	72.3	4	-1E+10	1	-1E+10	1	-1E+10	1	-1E+10	1	-1E+10	1	-1E+10	1
4902551	101	C	06/01/2023	09:05	-131.185	48.056	0	108.00	0	7.0650	0	33.0450	0	25.872	0	107.065	0	213.8	4	71.9	4	-1E+10	1	-1E+10	1	-1E+10	1	-1E+10	1	-1E+10	1	-1E+10	1
4902551	101	C	06/01/2023	09:05	-131.185	48.056	0	108.90	0	7.0140	0	33.0900	0	25.914	0	107.957	0	213.0	4	71.6	4	-1E+10	1	-1E+10	1	-1E+10	1	-1E+10	1	-1E+10	1	-1E+10	1
4902551	101	C	06/01/2023	09:05	-131.185	48.056	0	110.00	0	6.9560	0	33.1380	0	25.960	0	109.047	0	212.4	4	71.3	4	-1E+10	1	-1E+10	1	-1E+10	1	-1E+10	1	-1E+10	1	-1E+10	1
4902551	101	C	06/01/2023	09:05	-131.185	48.056	0	110.70	0	6.9180	0	33.1540	0	25.977	0	109.741	0	212.1	4	71.2	4	-1E+10	1	-1E+10	1	-1E+10	1	-1E+10	1	-1E+10	1	-1E+10	1
4902551	101	C	06/01/2023	09:05	-131.185	48.056	0	111.80	0	6.8940	0	33.1890	0	26.008	0	110.831	0	211.2	4	70.9	4	-1E+10	1	-1E+10	1	-1E+10	1	-1E+10	1	-1E+10	1	-1E+10	1
4902551	101	C	06/01/2023	09:05	-131.185	48.056	0	113.10	0	6.8760	0	33.2290	0	26.042	0	112.120	0	210.9	4	70.7	4	-1E+10	1	-1E+10	1	-1E+10	1	-1E+10	1	-1E+10	1	-1E+10	1
4902551	101	C	06/01/2023	09:05	-131.185	48.056	0	113.90	0	6.8450	0	33.2550	0	26.067	0	112.912	0	210.9	4	70.7	4	-1E+10	1	-1E+10	1	-1E+10	1	-1E+10	1	-1E+10	1	-1E+10	1
4902551	101	C	06/01/2023	09:05	-131.185	48.056	0	114.70	0	6.8320	0	33.2570	0	26.070	0	113.705	0	211.0	4	70.7	4	-1E+10	1	-1E+10	1	-1E+10	1	-1E+10	1	-1E+10	1	-1E+10	1
4902551	101	C	06/01/2023	09:05	-131.185	48.056	0	116.00	0	6.8180	0	33.2610	0	26.075	0	114.994	0	211.0	4	70.7	4	-1E+10	1	-1E+10	1	-1E+10	1	-1E+10	1	-1E+10	1	-1E+10	1
4902551	101	C	06/01/2023	09:05	-131.185	48.056	0	117.30	0	6.8020	0	33.2680	0	26.083	0	116.282	0	211.0	4	70.7	4	-1E+10	1	-1E+10	1	-1E+10	1	-1E+10	1	-1E+10	1	-1E+10	1
4902551	101	C	06/01/2023	09:05	-131.185	48.056	0	118.20	0	6.7920	0	33.2680	0	26.084	0	117.174	0	210.9	4	70.6	4	-1E+10	1	-1E+10	1	-1E+10	1	-1E+10	1	-1E+10	1	-1E+10	1
4902551	101	C	06/01/2023	09:05	-131.185	48.056	0	119.00	0	6.7890	0	33.2700	0	26.086	0	117.967	0	210.8	4	70.6	4	-1E+10	1	-1E+10	1	-1E+10	1	-1E+10	1	-1E+10	1	-1E+10	1
4902551	101	C	06/01/2023	09:05	-131.185	48.056	0	119.90	0	6.7770	0	33.2730	0	26.090	0	118.859	0	210.7	4	70.5	4	-1E+10	1	-1E+10	1	-1E+10	1	-1E+10	1	-1E+10	1	-1E+10	1
4902551	101	C	06/01/2023	09:05	-131.185	48.056	0	120.80	0	6.7700	0	33.2760	0	26.093	0	119.751	0	210.6	4	70.5	4	-1E+10	1	-1E+10	1	-1E+10	1	-1E+10	1	-1E+10	1	-1E+10	1
4902551	101	C	06/01/2023	09:05	-131.185	48.056	0	121.60	0	6.7450	0	33.2880	0	26.106	0	120.543	0	210.5	4	70.4	4	-1E+10	1	-1E+10	1	-1E+10	1	-1E+10	1	-1E+10	1	-1E+10	1
4902551	101	C	06/01/2023	09:05	-131.185	48.056	0	122.90	0	6.7420	0	33.2890	0	26.107	0	121.832	0	210.2	4	70.3	4	-1E+10	1	-1E+10	1	-1E+10	1	-1E+10	1	-1E+10	1	-1E+10	1
4902551	101	C	06/01/2023	09:05	-131.185	48.056	0	124.30	0	6.7390	0	33.2950	0	26.112	0	123.219	0	209.9	4	70.2	4	-1E+10	1	-1E+10	1	-1E+10	1	-1E+10	1	-1E+10	1	-1E+10	1
4902551	101	C	06/01/2023	09:05	-131.185	48.056	0	125.20	0	6.7290	0	33.3050	0	26.122	0	124.111	0	209.8	4	70.2	4	-1E+10	1	-1E+10	1	-1E+10	1	-1E+10	1	-1E+10	1	-1E+10	1
4902551	101	C	06/01/2023	09:05	-131.185	48.056	0	126.10	0	6.7190	0	33.3070	0	26.125	0	125.003	0	209.7	4	70.1	4	-1E+10	1	-1E+10	1	-1E+10	1	-1E+10	1	-1E+10	1	-1E+10	1
4902551	101	C	06/01/2023	09:05	-131.185	48.056	0	127.00	0	6.7120	0	33.3110	0	26.129	0	125.895	0	209.5	4	70.0	4	-1E+10	1	-1E+10	1	-1E+10	1	-1E+10	1	-1E+10	1	-1E+10	1
4902551	101	C	06/01/2023	09:05	-131.185	48.056	0	127.90	0	6.6960	0	33.3180	0	26.136	0	126.787	0	209.2	4	69.9	4	-1E+10	1	-1E+10	1	-1E+10	1	-1E+10	1	-1E+10	1	-1E+10	1
4902551	101	C	06/01/2023	09:05	-131.185	48.056	0	128.80	0	6.6680	0	33.3240	0	26.145	0	127.679	0	209.1	4	69.8	4	-1E+10	1	-1E+10	1	-1E+10	1	-1E+10	1	-1E+10	1	-1E+10	1
4902551	101	C	06/01/2023	09:05	-131.185	48.056	0	129.70	0	6.6430	0	33.3340	0	26.156	0	128.571	0	208.7	4	69.7	4	-1E+10	1	-1E+10	1	-1E+10	1	-1E+10	1	-1E+10	1	-1E+10	1
4902551	101	C	06/01/2023	09:05	-131.185	48.056	0	130.60	0	6.6150	0	33.3480	0	26.171	0	129.462	0	208.3	4	69.5	4	-1E+10	1	-1E+10	1	-1E+10	1	-1E+10	1	-1E+10	1	-1E+10	1
4902551	101	C	06/01/2023	09:05	-131.185	48.056	0	131.90	0	6.6140	0	33.3520	0	26.174	0	130.751	0	207.7	4	69.3	4	-1E+10	1	-1E+10	1	-1E+10	1	-1E+10	1	-1E+10	1	-1E+10	1
4902551	101	C	06/01/2023	09:05	-131.185	48.056	0	133.30	0	6.6160	0	33.3560	0	26.177	0	132.138	0	207.0	4	69.1	4	-1E+10	1	-1E+10	1	-1E+10	1	-1E+10	1	-1E+10	1	-1E+10	1
4902551	101	C	06/01/2023	09:05	-131.185	48.056	0	134.20	0	6.6060	0	33.3690	0	26.188	0	133.030	0	206.6	4	68.9	4	-1E+10	1	-1E+10	1	-1E+10	1	-1E+10	1	-1E+10	1	-1E+10	1
4902551	101	C	06/01/2023	09:05	-131.185	48.056	0	135.10	0	6.5960	0	33.3920	0	26.208	0	133.922	0	206.0	4	68.7	4	-1E+10	1	-1E+10	1	-1E+10	1	-1E+10	1	-1E+10	1	-1E+10	1
4902551	101	C	06/01/2023	09:05	-131.185	48.056	0	136.00	0	6.5940	0	33.3950	0	26.210	0	134.814	0	205.4	4	68.5	4	-1E+10	1	-1E+10	1	-1E+10	1	-1E+10	1	-1E+10	1	-1E+10	1
4902551	101	C	06/01/2023	09:05	-131.185	48.056	0	136.90	0	6.5820	0	33.4030	0	26.218	0	135.705	0	204.9	4	68.4	4	-1E+10	1	-1E+10	1	-1E+10	1	-1E+10	1	-1E+10	1	-1E+10	1
4902551	101	C	06/01/2023	09:05	-131.185	48.056	0	137.80	0	6.5400	0	33.4280	0	26.244	0	136.597	0	204.5	4	68.2	4	-1E+10	1	-1E+10	1	-1E+10	1	-1E+10	1	-1E+10	1	-1E+10	1
4902551	101	C	06/01/2023	09:05	-131.185	48.056	0	138.80	0	6.5100	0	33.4390	0	26.256	0	137.588	0	203.9	4	67.9	4	-1E+10	1	-1E+10	1	-1E+10	1	-1E+10	1	-1E+10	1	-1E+10	1
4902551	101	C	06/01/2023	09:05	-131.185	48.056	0	139.70	0	6.4970	0	33.4440	0	26.262	0	138.480	0	203.3	4	67.7	4	-1E+10	1	-1E+10	1	-1E+10	1	-1E+10	1	-1E+10	1	-1E+10	1
4902551	101	C	06/01/2023	09:05	-131.185	48.056	0	140.60	0	6.4880	0	33.4460	0	26.264	0	139.372	0	202.6	4	67.5	4	-1E+10	1	-1E+10	1	-1E+10	1	-1E+10	1	-1E+10	1	-1E+10	1
4902551	101	C	06/01/2023	09:05	-131.185	48.056	0	141.90	0	6.4810	0	33.4540	0	26.272	0	140.660	0	201.2	4	67.0	4	-1E+10	1	-1E+10	1	-1E+10	1	-1E+10	1	-1E+10	1	-1E+10	1
4902551	101	C	06/01/2023	09:05	-131.185	48.056	0	143.40	0	6.4670	0	33.4930	0	26.304	0	142.147	0	199.8	4	66.5	4	-1E+10	1	-1E+10	1	-1E+10	1	-1E+10	1	-1E+10	1	-1E+10	1
4902551	101	C	06/01/2023	09:05	-131.185	48.056	0	144.40	0	6.4460	0	33.5030	0	26.315	0	143.137	0	199.3	4	66.3	4	-1E+10	1	-1E+10	1	-1E+10	1	-1E+10	1	-1E+10	1	-1E+10	1
4902551	101	C	06/01/2023	09:05	-131.185	48.056	0	145.40	0	6.4360	0	33.5190	0	26.329	0	144.128	0	198.9	4	66.2	4	-1E+10	1	-1E+10	1	-1E+10	1	-1E+10	1	-1E+10	1	-1E+10	1
4902551	101	C	06/01/2023	09:05	-131.185	48.056	0	146.30	0	6.4010	0	33.5300	0	26.342	0	145.020	0	198.5	4	66.0	4	-1E+10	1	-1E+10	1	-1E+10	1	-1E+10	1	-1E+10	1	-1E+10	1
4902551	101	C	06/01/2023	09:05	-131.185	48.056	0	147.30	0	6.3620	0	33.5260	0	26.344	0	146.011	0	197.9	4	65.7	4	-1E+10	1	-1E+10	1	-1E+10	1	-1E+10	1	-1E+10	1	-1E+10	1
4902551	101	C	06/01/2023	09:05	-131.185	48.056	0	148.30	0	6.3660	0	33.5320	0	26.348	0	147.002	0	197.2	4	65.5	4	-1E+10	1	-1E+10	1	-1E+10	1	-1E+10	1	-1E+10	1	-1E+10	1
4902551	101	C	06/01/2023	09:05	-131.185	48.056	0	149.20	0	6.3510	0	33.5450	0	26.360	0	147.894	0	196.7	4	65.3	4	-1E+10	1	-1E+10	1	-1E+10	1	-1E+10	1	-1E+10	1	-1E+10	1
4902551	101	C	06/01/2023	09:05	-131.185	48.056	0	150.20	0	6.3390	0	33.5540	0	26.369	0	148.885	0	196.1	4	65.1	4	-1E+10	1	-1E+10	1	-1E+10	1	-1E+10	1	-1E+10	1	-1E+10	1
4902551	101	C	06/01/2023	09:05	-131.185	48.056	0	151.20	0	6.3370	0	33.5560	0	26.371	0	149.876	0	195.5	4	64.9	4	-1E+10	1	-1E+10	1	-1E+10	1	-1E+10	1	-1E+10	1	-1E+10	1
4902551	101	C	06/01/2023	09:05	-131.185	48.056	0	152.20	0	6.3320	0	33.5580	0	26.373	0	150.866	0	194.9	4	64.7	4	-1E+10	1	-1E+10	1	-1E+10	1	-1E+10	1	-1E+10	1	-1E+10	1
4902551	101	C	06/01/2023	09:05	-131.185	48.056	0	153.20	0	6.3290	0	33.5610	0	26.376	0	151.857	0	194.2	4	64.5	4	-1E+10	1	-1E+10	1	-1E+10	1	-1E+10	1	-1E+10	1	-1E+10	1
4902551	101	C	06/01/2023	09:05	-131.185	48.056	0	154.10	0	6.3250	0	33.5640	0	26.379	0	152.749	0	193.4	4	64.2	4	-1E+10	1	-1E+10	1	-1E+10	1	-1E+10	1	-1E+10	1	-1E+10	1
4902551	101	C	06/01/2023	09:05	-131.185	48.056	0	155.10	0	6.3150	0	33.5700	0	26.385	0	153.740	0	192.7	4	64.0	4	-1E+10	1	-1E+10	1	-1E+10	1	-1E+10	1	-1E+10	1	-1E+10	1
4902551	101	C	06/01/2023	09:05	-131.185	48.056	0	156.10	0	6.3100	0	33.5740	0	26.389	0	154.731	0	191.9	4	63.7	4	-1E+10	1	-1E+10	1	-1E+10	1	-1E+10	1	-1E+10	1	-1E+10	1
4902551	101	C	06/01/2023	09:05	-131.185	48.056	0	157.10	0	6.3060	0	33.5770	0	26.391	0	155.722	0	191.1	4	63.4	4	-1E+10	1	-1E+10	1	-1E+10	1	-1E+10	1	-1E+10	1	-1E+10	1
4902551	101	C	06/01/2023	09:05	-131.185	48.056	0	158.00	0	6.3020	0	33.5800	0	26.394	0	156.613	0	190.2	4	63.1	4	-1E+10	1	-1E+10	1	-1E+10	1	-1E+10	1	-1E+10	1	-1E+10	1
4902551	101	C	06/01/2023	09:05	-131.185	48.056	0	158.90	0	6.2870	0	33.5890	0	26.403	0	157.505	0	189.2	4	62.8	4	-1E+10	1	-1E+10	1	-1E+10	1	-1E+10	1	-1E+10	1	-1E+10	1
4902551	101	C	06/01/2023	09:05	-131.185	48.056	0	159.90	0	6.2790	0	33.5940	0	26.408	0	158.496	0	188.3	4	62.5	4	-1E+10	1	-1E+10	1	-1E+10	1	-1E+10	1	-1E+10	1	-1E+10	1
4902551	101	C	06/01/2023	09:05	-131.185	48.056	0	160.80	0	6.2680	0	33.5980	0	26.413	0	159.388	0	187.2	4	62.1	4	-1E+10	1	-1E+10	1	-1E+10	1	-1E+10	1	-1E+10	1	-1E+10	1
4902551	101	C	06/01/2023	09:05	-131.185	48.056	0	161.70	0	6.2650	0	33.6010	0	26.416	0	160.279	0	186.2	4	61.7	4	-1E+10	1	-1E+10	1	-1E+10	1	-1E+10	1	-1E+10	1	-1E+10	1
4902551	101	C	06/01/2023	09:05	-131.185	48.056	0	162.70	0	6.2620	0	33.6070	0	26.421	0	161.270	0	185.1	4	61.4	4	-1E+10	1	-1E+10	1	-1E+10	1	-1E+10	1	-1E+10	1	-1E+10	1
4902551	101	C	06/01/2023	09:05	-131.185	48.056	0	163.70	0	6.2540	0	33.6140	0	26.427	0	162.261	0	184.0	4	61.0	4	-1E+10	1	-1E+10	1	-1E+10	1	-1E+10	1	-1E+10	1	-1E+10	1
4902551	101	C	06/01/2023	09:05	-131.185	48.056	0	164.60	0	6.2260	0	33.6360	0	26.448	0	163.153	0	183.0	4	60.6	4	-1E+10	1	-1E+10	1	-1E+10	1	-1E+10	1	-1E+10	1	-1E+10	1
4902551	101	C	06/01/2023	09:05	-131.185	48.056	0	165.60	0	6.2040	0	33.6440	0	26.457	0	164.144	0	182.0	4	60.3	4	-1E+10	1	-1E+10	1	-1E+10	1	-1E+10	1	-1E+10	1	-1E+10	1
4902551	101	C	06/01/2023	09:05	-131.185	48.056	0	166.60	0	6.1920	0	33.6480	0	26.462	0	165.134	0	181.2	4	60.0	4	-1E+10	1	-1E+10	1	-1E+10	1	-1E+10	1	-1E+10	1	-1E+10	1
4902551	101	C	06/01/2023	09:05	-131.185	48.056	0	167.60	0	6.1850	0	33.6510	0	26.465	0	166.125	0	180.2	4	59.7	4	-1E+10	1	-1E+10	1	-1E+10	1	-1E+10	1	-1E+10	1	-1E+10	1
4902551	101	C	06/01/2023	09:05	-131.185	48.056	0	168.60	0	6.1740	0	33.6540	0	26.469	0	167.116	0	179.3	4	59.4	4	-1E+10	1	-1E+10	1	-1E+10	1	-1E+10	1	-1E+10	1	-1E+10	1
4902551	101	C	06/01/2023	09:05	-131.185	48.056	0	169.50	0	6.1670	0	33.6570	0	26.472	0	168.008	0	178.2	4	59.0	4	-1E+10	1	-1E+10	1	-1E+10	1	-1E+10	1	-1E+10	1	-1E+10	1
4902551	101	C	06/01/2023	09:05	-131.185	48.056	0	170.90	0	6.1400	0	33.6680	0	26.485	0	169.395	0	176.9	4	58.5	4	-1E+10	1	-1E+10	1	-1E+10	1	-1E+10	1	-1E+10	1	-1E+10	1
4902551	101	C	06/01/2023	09:05	-131.185	48.056	0	172.20	0	6.1190	0	33.6750	0	26.493	0	170.683	0	175.8	4	58.1	4	-1E+10	1	-1E+10	1	-1E+10	1	-1E+10	1	-1E+10	1	-1E+10	1
4902551	101	C	06/01/2023	09:05	-131.185	48.056	0	173.20	0	6.1150	0	33.6750	0	26.493	0	171.674	0	174.6	4	57.7	4	-1E+10	1	-1E+10	1	-1E+10	1	-1E+10	1	-1E+10	1	-1E+10	1
4902551	101	C	06/01/2023	09:05	-131.185	48.056	0	173.90	0	6.0960	0	33.6830	0	26.502	0	172.367	0	173.6	4	57.4	4	-1E+10	1	-1E+10	1	-1E+10	1	-1E+10	1	-1E+10	1	-1E+10	1
4902551	101	C	06/01/2023	09:05	-131.185	48.056	0	174.90	0	6.0790	0	33.6890	0	26.509	0	173.358	0	172.4	4	57.0	4	-1E+10	1	-1E+10	1	-1E+10	1	-1E+10	1	-1E+10	1	-1E+10	1
4902551	101	C	06/01/2023	09:05	-131.185	48.056	0	176.10	0	6.0760	0	33.6930	0	26.512	0	174.547	0	171.4	4	56.6	4	-1E+10	1	-1E+10	1	-1E+10	1	-1E+10	1	-1E+10	1	-1E+10	1
4902551	101	C	06/01/2023	09:05	-131.185	48.056	0	176.80	0	6.0700	0	33.6950	0	26.515	0	175.240	0	170.6	4	56.3	4	-1E+10	1	-1E+10	1	-1E+10	1	-1E+10	1	-1E+10	1	-1E+10	1
4902551	101	C	06/01/2023	09:05	-131.185	48.056	0	178.00	0	6.0620	0	33.7000	0	26.520	0	176.429	0	169.5	4	56.0	4	-1E+10	1	-1E+10	1	-1E+10	1	-1E+10	1	-1E+10	1	-1E+10	1
4902551	101	C	06/01/2023	09:05	-131.185	48.056	0	179.10	0	6.0600	0	33.7000	0	26.520	0	177.519	0	168.6	4	55.7	4	-1E+10	1	-1E+10	1	-1E+10	1	-1E+10	1	-1E+10	1	-1E+10	1
4902551	101	C	06/01/2023	09:05	-131.185	48.056	0	179.90	0	6.0530	0	33.7050	0	26.525	0	178.312	0	167.9	4	55.4	4	-1E+10	1	-1E+10	1	-1E+10	1	-1E+10	1	-1E+10	1	-1E+10	1
4902551	101	C	06/01/2023	09:05	-131.185	48.056	0	180.70	0	6.0310	0	33.7120	0	26.533	0	179.104	0	167.3	4	55.2	4	-1E+10	1	-1E+10	1	-1E+10	1	-1E+10	1	-1E+10	1	-1E+10	1
4902551	101	C	06/01/2023	09:05	-131.185	48.056	0	181.90	0	6.0260	0	33.7110	0	26.533	0	180.293	0	166.6	4	55.0	4	-1E+10	1	-1E+10	1	-1E+10	1	-1E+10	1	-1E+10	1	-1E+10	1
4902551	101	C	06/01/2023	09:05	-131.185	48.056	0	183.10	0	6.0230	0	33.7120	0	26.534	0	181.482	0	165.6	4	54.7	4	-1E+10	1	-1E+10	1	-1E+10	1	-1E+10	1	-1E+10	1	-1E+10	1
4902551	101	C	06/01/2023	09:05	-131.185	48.056	0	183.90	0	6.0220	0	33.7120	0	26.534	0	182.275	0	165.0	4	54.5	4	-1E+10	1	-1E+10	1	-1E+10	1	-1E+10	1	-1E+10	1	-1E+10	1
4902551	101	C	06/01/2023	09:05	-131.185	48.056	0	185.00	0	6.0180	0	33.7120	0	26.535	0	183.364	0	163.9	4	54.1	4	-1E+10	1	-1E+10	1	-1E+10	1	-1E+10	1	-1E+10	1	-1E+10	1
4902551	101	C	06/01/2023	09:05	-131.185	48.056	0	186.20	0	6.0100	0	33.7120	0	26.536	0	184.553	0	162.7	4	53.7	4	-1E+10	1	-1E+10	1	-1E+10	1	-1E+10	1	-1E+10	1	-1E+10	1
4902551	101	C	06/01/2023	09:05	-131.185	48.056	0	187.00	0	6.0100	0	33.7120	0	26.536	0	185.346	0	161.8	4	53.4	4	-1E+10	1	-1E+10	1	-1E+10	1	-1E+10	1	-1E+10	1	-1E+10	1
4902551	101	C	06/01/2023	09:05	-131.185	48.056	0	187.80	0	5.9620	0	33.7280	0	26.554	0	186.138	0	160.8	4	53.0	4	-1E+10	1	-1E+10	1	-1E+10	1	-1E+10	1	-1E+10	1	-1E+10	1
4902551	101	C	06/01/2023	09:05	-131.185	48.056	0	188.60	0	5.9550	0	33.7190	0	26.548	0	186.931	0	160.2	4	52.8	4	-1E+10	1	-1E+10	1	-1E+10	1	-1E+10	1	-1E+10	1	-1E+10	1
4902551	101	C	06/01/2023	09:05	-131.185	48.056	0	189.90	0	5.9460	0	33.7210	0	26.551	0	188.219	0	159.0	4	52.4	4	-1E+10	1	-1E+10	1	-1E+10	1	-1E+10	1	-1E+10	1	-1E+10	1
4902551	101	C	06/01/2023	09:05	-131.185	48.056	0	191.10	0	5.9420	0	33.7210	0	26.551	0	189.408	0	157.7	4	52.0	4	-1E+10	1	-1E+10	1	-1E+10	1	-1E+10	1	-1E+10	1	-1E+10	1
4902551	101	C	06/01/2023	09:05	-131.185	48.056	0	191.90	0	5.9390	0	33.7210	0	26.552	0	190.200	0	156.9	4	51.7	4	-1E+10	1	-1E+10	1	-1E+10	1	-1E+10	1	-1E+10	1	-1E+10	1
4902551	101	C	06/01/2023	09:05	-131.185	48.056	0	192.70	0	5.9320	0	33.7230	0	26.554	0	190.993	0	156.0	4	51.4	4	-1E+10	1	-1E+10	1	-1E+10	1	-1E+10	1	-1E+10	1	-1E+10	1
4902551	101	C	06/01/2023	09:05	-131.185	48.056	0	193.90	0	5.8990	0	33.7310	0	26.565	0	192.182	0	154.9	4	51.0	4	-1E+10	1	-1E+10	1	-1E+10	1	-1E+10	1	-1E+10	1	-1E+10	1
4902551	101	C	06/01/2023	09:05	-131.185	48.056	0	195.20	0	5.8800	0	33.7350	0	26.570	0	193.470	0	153.9	4	50.6	4	-1E+10	1	-1E+10	1	-1E+10	1	-1E+10	1	-1E+10	1	-1E+10	1
4902551	101	C	06/01/2023	09:05	-131.185	48.056	0	196.10	0	5.8580	0	33.7380	0	26.575	0	194.361	0	153.3	4	50.4	4	-1E+10	1	-1E+10	1	-1E+10	1	-1E+10	1	-1E+10	1	-1E+10	1
4902551	101	C	06/01/2023	09:05	-131.185	48.056	0	196.90	0	5.8330	0	33.7400	0	26.580	0	195.154	0	152.7	4	50.2	4	-1E+10	1	-1E+10	1	-1E+10	1	-1E+10	1	-1E+10	1	-1E+10	1
4902551	101	C	06/01/2023	09:05	-131.185	48.056	0	197.80	0	5.8190	0	33.7390	0	26.581	0	196.045	0	152.3	4	50.0	4	-1E+10	1	-1E+10	1	-1E+10	1	-1E+10	1	-1E+10	1	-1E+10	1
4902551	101	C	06/01/2023	09:05	-131.185	48.056	0	198.60	0	5.8150	0	33.7390	0	26.581	0	196.838	0	151.7	4	49.8	4	-1E+10	1	-1E+10	1	-1E+10	1	-1E+10	1	-1E+10	1	-1E+10	1
4902551	101	C	06/01/2023	09:05	-131.185	48.056	0	199.90	0	5.7970	0	33.7410	0	26.585	0	198.126	0	150.8	4	49.5	4	-1E+10	1	-1E+10	1	-1E+10	1	-1E+10	1	-1E+10	1	-1E+10	1
4902551	101	C	06/01/2023	09:05	-131.185	48.056	0	201.20	0	5.7650	0	33.7420	0	26.590	0	199.413	0	149.8	4	49.2	4	-1E+10	1	-1E+10	1	-1E+10	1	-1E+10	1	-1E+10	1	-1E+10	1
4902551	101	C	06/01/2023	09:05	-131.185	48.056	0	202.10	0	5.7570	0	33.7410	0	26.590	0	200.305	0	149.3	4	49.0	4	-1E+10	1	-1E+10	1	-1E+10	1	-1E+10	1	-1E+10	1	-1E+10	1
4902551	101	C	06/01/2023	09:05	-131.185	48.056	0	203.00	0	5.7420	0	33.7410	0	26.592	0	201.197	0	148.7	4	48.8	4	-1E+10	1	-1E+10	1	-1E+10	1	-1E+10	1	-1E+10	1	-1E+10	1
4902551	101	C	06/01/2023	09:05	-131.185	48.056	0	203.80	0	5.7390	0	33.7410	0	26.592	0	201.989	0	148.1	4	48.6	4	-1E+10	1	-1E+10	1	-1E+10	1	-1E+10	1	-1E+10	1	-1E+10	1
4902551	101	C	06/01/2023	09:05	-131.185	48.056	0	204.70	0	5.7340	0	33.7420	0	26.594	0	202.881	0	147.4	4	48.3	4	-1E+10	1	-1E+10	1	-1E+10	1	-1E+10	1	-1E+10	1	-1E+10	1
4902551	101	C	06/01/2023	09:05	-131.185	48.056	0	206.00	0	5.7230	0	33.7420	0	26.595	0	204.168	0	146.3	4	48.0	4	-1E+10	1	-1E+10	1	-1E+10	1	-1E+10	1	-1E+10	1	-1E+10	1
4902551	101	C	06/01/2023	09:05	-131.185	48.056	0	207.30	0	5.7180	0	33.7410	0	26.595	0	205.456	0	145.1	4	47.6	4	-1E+10	1	-1E+10	1	-1E+10	1	-1E+10	1	-1E+10	1	-1E+10	1
4902551	101	C	06/01/2023	09:05	-131.185	48.056	0	208.20	0	5.7080	0	33.7430	0	26.598	0	206.348	0	144.2	4	47.3	4	-1E+10	1	-1E+10	1	-1E+10	1	-1E+10	1	-1E+10	1	-1E+10	1
4902551	101	C	06/01/2023	09:05	-131.185	48.056	0	209.00	0	5.6940	0	33.7420	0	26.599	0	207.140	0	143.4	4	47.0	4	-1E+10	1	-1E+10	1	-1E+10	1	-1E+10	1	-1E+10	1	-1E+10	1
4902551	101	C	06/01/2023	09:05	-131.185	48.056	0	209.90	0	5.6780	0	33.7430	0	26.601	0	208.032	0	142.5	4	46.7	4	-1E+10	1	-1E+10	1	-1E+10	1	-1E+10	1	-1E+10	1	-1E+10	1
4902551	101	C	06/01/2023	09:05	-131.185	48.056	0	210.70	0	5.6420	0	33.7530	0	26.614	0	208.824	0	141.8	4	46.4	4	-1E+10	1	-1E+10	1	-1E+10	1	-1E+10	1	-1E+10	1	-1E+10	1
4902551	101	C	06/01/2023	09:05	-131.185	48.056	0	212.00	0	5.6100	0	33.7480	0	26.613	0	210.112	0	140.8	4	46.0	4	-1E+10	1	-1E+10	1	-1E+10	1	-1E+10	1	-1E+10	1	-1E+10	1
4902551	101	C	06/01/2023	09:05	-131.185	48.056	0	213.30	0	5.6000	0	33.7500	0	26.616	0	211.400	0	139.7	4	45.7	4	-1E+10	1	-1E+10	1	-1E+10	1	-1E+10	1	-1E+10	1	-1E+10	1
4902551	101	C	06/01/2023	09:05	-131.185	48.056	0	214.20	0	5.5920	0	33.7510	0	26.618	0	212.291	0	138.9	4	45.4	4	-1E+10	1	-1E+10	1	-1E+10	1	-1E+10	1	-1E+10	1	-1E+10	1
4902551	101	C	06/01/2023	09:05	-131.185	48.056	0	215.10	0	5.5840	0	33.7510	0	26.619	0	213.183	0	138.2	4	45.2	4	-1E+10	1	-1E+10	1	-1E+10	1	-1E+10	1	-1E+10	1	-1E+10	1
4902551	101	C	06/01/2023	09:05	-131.185	48.056	0	215.90	0	5.5630	0	33.7530	0	26.623	0	213.975	0	137.5	4	44.9	4	-1E+10	1	-1E+10	1	-1E+10	1	-1E+10	1	-1E+10	1	-1E+10	1
4902551	101	C	06/01/2023	09:05	-131.185	48.056	0	216.90	0	5.5380	0	33.7530	0	26.626	0	214.966	0	136.9	4	44.7	4	-1E+10	1	-1E+10	1	-1E+10	1	-1E+10	1	-1E+10	1	-1E+10	1
4902551	101	C	06/01/2023	09:05	-131.185	48.056	0	217.70	0	5.5250	0	33.7540	0	26.628	0	215.758	0	136.4	4	44.5	4	-1E+10	1	-1E+10	1	-1E+10	1	-1E+10	1	-1E+10	1	-1E+10	1
4902551	101	C	06/01/2023	09:05	-131.185	48.056	0	218.60	0	5.5180	0	33.7550	0	26.630	0	216.650	0	135.7	4	44.3	4	-1E+10	1	-1E+10	1	-1E+10	1	-1E+10	1	-1E+10	1	-1E+10	1
4902551	101	C	06/01/2023	09:05	-131.185	48.056	0	219.90	0	5.5150	0	33.7540	0	26.630	0	217.938	0	134.8	4	44.0	4	-1E+10	1	-1E+10	1	-1E+10	1	-1E+10	1	-1E+10	1	-1E+10	1
4902551	101	C	06/01/2023	09:05	-131.185	48.056	0	221.30	0	5.5130	0	33.7540	0	26.630	0	219.324	0	133.6	4	43.6	4	-1E+10	1	-1E+10	1	-1E+10	1	-1E+10	1	-1E+10	1	-1E+10	1
4902551	101	C	06/01/2023	09:05	-131.185	48.056	0	222.10	0	5.5120	0	33.7540	0	26.630	0	220.117	0	132.6	4	43.3	4	-1E+10	1	-1E+10	1	-1E+10	1	-1E+10	1	-1E+10	1	-1E+10	1
4902551	101	C	06/01/2023	09:05	-131.185	48.056	0	223.00	0	5.5100	0	33.7530	0	26.630	0	221.008	0	131.6	4	42.9	4	-1E+10	1	-1E+10	1	-1E+10	1	-1E+10	1	-1E+10	1	-1E+10	1
4902551	101	C	06/01/2023	09:05	-131.185	48.056	0	223.80	0	5.5070	0	33.7530	0	26.630	0	221.801	0	130.5	4	42.6	4	-1E+10	1	-1E+10	1	-1E+10	1	-1E+10	1	-1E+10	1	-1E+10	1
4902551	101	C	06/01/2023	09:05	-131.185	48.056	0	224.70	0	5.5000	0	33.7530	0	26.631	0	222.692	0	129.3	4	42.2	4	-1E+10	1	-1E+10	1	-1E+10	1	-1E+10	1	-1E+10	1	-1E+10	1
4902551	101	C	06/01/2023	09:05	-131.185	48.056	0	225.60	0	5.4760	0	33.7600	0	26.639	0	223.584	0	128.2	4	41.8	4	-1E+10	1	-1E+10	1	-1E+10	1	-1E+10	1	-1E+10	1	-1E+10	1
4902551	101	C	06/01/2023	09:05	-131.185	48.056	0	226.90	0	5.4080	0	33.7590	0	26.646	0	224.871	0	127.0	4	41.3	4	-1E+10	1	-1E+10	1	-1E+10	1	-1E+10	1	-1E+10	1	-1E+10	1
4902551	101	C	06/01/2023	09:05	-131.185	48.056	0	228.20	0	5.3450	0	33.7630	0	26.657	0	226.159	0	126.0	4	41.0	4	-1E+10	1	-1E+10	1	-1E+10	1	-1E+10	1	-1E+10	1	-1E+10	1
4902551	101	C	06/01/2023	09:05	-131.185	48.056	0	229.10	0	5.3310	0	33.7650	0	26.660	0	227.050	0	125.5	4	40.8	4	-1E+10	1	-1E+10	1	-1E+10	1	-1E+10	1	-1E+10	1	-1E+10	1
4902551	101	C	06/01/2023	09:05	-131.185	48.056	0	230.00	0	5.3260	0	33.7650	0	26.661	0	227.942	0	125.0	4	40.6	4	-1E+10	1	-1E+10	1	-1E+10	1	-1E+10	1	-1E+10	1	-1E+10	1
4902551	101	C	06/01/2023	09:05	-131.185	48.056	0	230.90	0	5.3190	0	33.7670	0	26.663	0	228.833	0	124.5	4	40.4	4	-1E+10	1	-1E+10	1	-1E+10	1	-1E+10	1	-1E+10	1	-1E+10	1
4902551	101	C	06/01/2023	09:05	-131.185	48.056	0	231.70	0	5.3040	0	33.7670	0	26.665	0	229.626	0	123.9	4	40.2	4	-1E+10	1	-1E+10	1	-1E+10	1	-1E+10	1	-1E+10	1	-1E+10	1
4902551	101	C	06/01/2023	09:05	-131.185	48.056	0	232.60	0	5.2920	0	33.7650	0	26.665	0	230.517	0	123.2	4	40.0	4	-1E+10	1	-1E+10	1	-1E+10	1	-1E+10	1	-1E+10	1	-1E+10	1
4902551	101	C	06/01/2023	09:05	-131.185	48.056	0	233.90	0	5.2790	0	33.7660	0	26.667	0	231.805	0	122.1	4	39.6	4	-1E+10	1	-1E+10	1	-1E+10	1	-1E+10	1	-1E+10	1	-1E+10	1
4902551	101	C	06/01/2023	09:05	-131.185	48.056	0	235.20	0	5.2640	0	33.7660	0	26.669	0	233.092	0	121.1	4	39.3	4	-1E+10	1	-1E+10	1	-1E+10	1	-1E+10	1	-1E+10	1	-1E+10	1
4902551	101	C	06/01/2023	09:05	-131.185	48.056	0	236.10	0	5.2550	0	33.7680	0	26.671	0	233.984	0	120.5	4	39.1	4	-1E+10	1	-1E+10	1	-1E+10	1	-1E+10	1	-1E+10	1	-1E+10	1
4902551	101	C	06/01/2023	09:05	-131.185	48.056	0	236.90	0	5.2420	0	33.7680	0	26.673	0	234.776	0	119.8	4	38.9	4	-1E+10	1	-1E+10	1	-1E+10	1	-1E+10	1	-1E+10	1	-1E+10	1
4902551	101	C	06/01/2023	09:05	-131.185	48.056	0	237.80	0	5.2420	0	33.7690	0	26.674	0	235.668	0	119.2	4	38.6	4	-1E+10	1	-1E+10	1	-1E+10	1	-1E+10	1	-1E+10	1	-1E+10	1
4902551	101	C	06/01/2023	09:05	-131.185	48.056	0	238.70	0	5.2410	0	33.7690	0	26.674	0	236.559	0	118.5	4	38.4	4	-1E+10	1	-1E+10	1	-1E+10	1	-1E+10	1	-1E+10	1	-1E+10	1
4902551	101	C	06/01/2023	09:05	-131.185	48.056	0	239.60	0	5.2370	0	33.7740	0	26.678	0	237.450	0	117.7	4	38.2	4	-1E+10	1	-1E+10	1	-1E+10	1	-1E+10	1	-1E+10	1	-1E+10	1
4902551	101	C	06/01/2023	09:05	-131.185	48.056	0	240.90	0	5.2090	0	33.7750	0	26.682	0	238.738	0	116.6	4	37.8	4	-1E+10	1	-1E+10	1	-1E+10	1	-1E+10	1	-1E+10	1	-1E+10	1
4902551	101	C	06/01/2023	09:05	-131.185	48.056	0	242.30	0	5.1830	0	33.7740	0	26.685	0	240.125	0	115.7	4	37.5	4	-1E+10	1	-1E+10	1	-1E+10	1	-1E+10	1	-1E+10	1	-1E+10	1
4902551	101	C	06/01/2023	09:05	-131.185	48.056	0	243.20	0	5.1850	0	33.7760	0	26.686	0	241.016	0	115.0	4	37.2	4	-1E+10	1	-1E+10	1	-1E+10	1	-1E+10	1	-1E+10	1	-1E+10	1
4902551	101	C	06/01/2023	09:05	-131.185	48.056	0	244.10	0	5.1810	0	33.7770	0	26.687	0	241.907	0	114.3	4	37.0	4	-1E+10	1	-1E+10	1	-1E+10	1	-1E+10	1	-1E+10	1	-1E+10	1
4902551	101	C	06/01/2023	09:05	-131.185	48.056	0	245.00	0	5.1740	0	33.7770	0	26.688	0	242.799	0	113.6	4	36.8	4	-1E+10	1	-1E+10	1	-1E+10	1	-1E+10	1	-1E+10	1	-1E+10	1
4902551	101	C	06/01/2023	09:05	-131.185	48.056	0	245.90	0	5.1630	0	33.7790	0	26.691	0	243.690	0	112.9	4	36.5	4	-1E+10	1	-1E+10	1	-1E+10	1	-1E+10	1	-1E+10	1	-1E+10	1
4902551	101	C	06/01/2023	09:05	-131.185	48.056	0	246.80	0	5.1420	0	33.7780	0	26.693	0	244.582	0	112.2	4	36.3	4	-1E+10	1	-1E+10	1	-1E+10	1	-1E+10	1	-1E+10	1	-1E+10	1
4902551	101	C	06/01/2023	09:05	-131.185	48.056	0	247.80	0	5.1330	0	33.7780	0	26.694	0	245.572	0	111.5	4	36.1	4	-1E+10	1	-1E+10	1	-1E+10	1	-1E+10	1	-1E+10	1	-1E+10	1
4902551	101	C	06/01/2023	09:05	-131.185	48.056	0	248.70	0	5.1120	0	33.7840	0	26.701	0	246.463	0	110.8	4	35.8	4	-1E+10	1	-1E+10	1	-1E+10	1	-1E+10	1	-1E+10	1	-1E+10	1
4902551	101	C	06/01/2023	09:05	-131.185	48.056	0	249.60	0	5.0660	0	33.7820	0	26.704	0	247.355	0	110.2	4	35.6	4	-1E+10	1	-1E+10	1	-1E+10	1	-1E+10	1	-1E+10	1	-1E+10	1
4902551	101	C	06/01/2023	09:05	-131.185	48.056	0	250.50	0	5.0600	0	33.7830	0	26.706	0	248.246	0	109.6	4	35.4	4	-1E+10	1	-1E+10	1	-1E+10	1	-1E+10	1	-1E+10	1	-1E+10	1
4902551	101	C	06/01/2023	09:05	-131.185	48.056	0	251.90	0	5.0480	0	33.7830	0	26.707	0	249.633	0	108.8	4	35.1	4	-1E+10	1	-1E+10	1	-1E+10	1	-1E+10	1	-1E+10	1	-1E+10	1
4902551	101	C	06/01/2023	09:05	-131.185	48.056	0	253.40	0	5.0320	0	33.7850	0	26.711	0	251.118	0	108.0	4	34.8	4	-1E+10	1	-1E+10	1	-1E+10	1	-1E+10	1	-1E+10	1	-1E+10	1
4902551	101	C	06/01/2023	09:05	-131.185	48.056	0	254.30	0	5.0190	0	33.7860	0	26.713	0	252.010	0	107.6	4	34.7	4	-1E+10	1	-1E+10	1	-1E+10	1	-1E+10	1	-1E+10	1	-1E+10	1
4902551	101	C	06/01/2023	09:05	-131.185	48.056	0	255.30	0	5.0060	0	33.7870	0	26.715	0	253.000	0	107.1	4	34.5	4	-1E+10	1	-1E+10	1	-1E+10	1	-1E+10	1	-1E+10	1	-1E+10	1
4902551	101	C	06/01/2023	09:05	-131.185	48.056	0	256.30	0	4.9960	0	33.7870	0	26.716	0	253.990	0	106.6	4	34.4	4	-1E+10	1	-1E+10	1	-1E+10	1	-1E+10	1	-1E+10	1	-1E+10	1
4902551	101	C	06/01/2023	09:05	-131.185	48.056	0	257.30	0	4.9920	0	33.7860	0	26.716	0	254.981	0	106.1	4	34.2	4	-1E+10	1	-1E+10	1	-1E+10	1	-1E+10	1	-1E+10	1	-1E+10	1
4902551	101	C	06/01/2023	09:05	-131.185	48.056	0	258.20	0	4.9840	0	33.7890	0	26.719	0	255.872	0	105.7	4	34.1	4	-1E+10	1	-1E+10	1	-1E+10	1	-1E+10	1	-1E+10	1	-1E+10	1
4902551	101	C	06/01/2023	09:05	-131.185	48.056	0	259.20	0	4.9810	0	33.7880	0	26.719	0	256.862	0	105.2	4	33.9	4	-1E+10	1	-1E+10	1	-1E+10	1	-1E+10	1	-1E+10	1	-1E+10	1
4902551	101	C	06/01/2023	09:05	-131.185	48.056	0	260.20	0	4.9730	0	33.7900	0	26.721	0	257.853	0	104.7	4	33.7	4	-1E+10	1	-1E+10	1	-1E+10	1	-1E+10	1	-1E+10	1	-1E+10	1
4902551	101	C	06/01/2023	09:05	-131.185	48.056	0	261.20	0	4.9680	0	33.7900	0	26.722	0	258.843	0	104.2	4	33.6	4	-1E+10	1	-1E+10	1	-1E+10	1	-1E+10	1	-1E+10	1	-1E+10	1
4902551	101	C	06/01/2023	09:05	-131.185	48.056	0	262.20	0	4.9620	0	33.7920	0	26.724	0	259.833	0	103.8	4	33.4	4	-1E+10	1	-1E+10	1	-1E+10	1	-1E+10	1	-1E+10	1	-1E+10	1
4902551	101	C	06/01/2023	09:05	-131.185	48.056	0	263.10	0	4.9570	0	33.7910	0	26.724	0	260.725	0	103.3	4	33.3	4	-1E+10	1	-1E+10	1	-1E+10	1	-1E+10	1	-1E+10	1	-1E+10	1
4902551	101	C	06/01/2023	09:05	-131.185	48.056	0	264.10	0	4.9500	0	33.7930	0	26.726	0	261.715	0	102.8	4	33.1	4	-1E+10	1	-1E+10	1	-1E+10	1	-1E+10	1	-1E+10	1	-1E+10	1
4902551	101	C	06/01/2023	09:05	-131.185	48.056	0	265.20	0	4.9480	0	33.7920	0	26.726	0	262.805	0	102.3	4	32.9	4	-1E+10	1	-1E+10	1	-1E+10	1	-1E+10	1	-1E+10	1	-1E+10	1
4902551	101	C	06/01/2023	09:05	-131.185	48.056	0	266.20	0	4.9290	0	33.7990	0	26.734	0	263.795	0	101.8	4	32.8	4	-1E+10	1	-1E+10	1	-1E+10	1	-1E+10	1	-1E+10	1	-1E+10	1
4902551	101	C	06/01/2023	09:05	-131.185	48.056	0	267.20	0	4.9190	0	33.7950	0	26.732	0	264.785	0	101.4	4	32.6	4	-1E+10	1	-1E+10	1	-1E+10	1	-1E+10	1	-1E+10	1	-1E+10	1
4902551	101	C	06/01/2023	09:05	-131.185	48.056	0	268.20	0	4.9110	0	33.7970	0	26.734	0	265.775	0	101.1	4	32.5	4	-1E+10	1	-1E+10	1	-1E+10	1	-1E+10	1	-1E+10	1	-1E+10	1
4902551	101	C	06/01/2023	09:05	-131.185	48.056	0	269.20	0	4.9020	0	33.7980	0	26.736	0	266.766	0	100.8	4	32.4	4	-1E+10	1	-1E+10	1	-1E+10	1	-1E+10	1	-1E+10	1	-1E+10	1
4902551	101	C	06/01/2023	09:05	-131.185	48.056	0	270.30	0	4.8970	0	33.7980	0	26.736	0	267.855	0	100.5	4	32.3	4	-1E+10	1	-1E+10	1	-1E+10	1	-1E+10	1	-1E+10	1	-1E+10	1
4902551	101	C	06/01/2023	09:05	-131.185	48.056	0	271.30	0	4.8910	0	33.7980	0	26.737	0	268.845	0	100.2	4	32.2	4	-1E+10	1	-1E+10	1	-1E+10	1	-1E+10	1	-1E+10	1	-1E+10	1
4902551	101	C	06/01/2023	09:05	-131.185	48.056	0	272.30	0	4.8850	0	33.8000	0	26.739	0	269.836	0	99.9	4	32.1	4	-1E+10	1	-1E+10	1	-1E+10	1	-1E+10	1	-1E+10	1	-1E+10	1
4902551	101	C	06/01/2023	09:05	-131.185	48.056	0	273.40	0	4.8830	0	33.8000	0	26.740	0	270.925	0	99.6	4	32.0	4	-1E+10	1	-1E+10	1	-1E+10	1	-1E+10	1	-1E+10	1	-1E+10	1
4902551	101	C	06/01/2023	09:05	-131.185	48.056	0	274.40	0	4.8820	0	33.7990	0	26.739	0	271.915	0	99.2	4	31.9	4	-1E+10	1	-1E+10	1	-1E+10	1	-1E+10	1	-1E+10	1	-1E+10	1
4902551	101	C	06/01/2023	09:05	-131.185	48.056	0	275.40	0	4.8780	0	33.8000	0	26.740	0	272.906	0	98.9	4	31.8	4	-1E+10	1	-1E+10	1	-1E+10	1	-1E+10	1	-1E+10	1	-1E+10	1
4902551	101	C	06/01/2023	09:05	-131.185	48.056	0	276.40	0	4.8760	0	33.7990	0	26.740	0	273.896	0	98.5	4	31.7	4	-1E+10	1	-1E+10	1	-1E+10	1	-1E+10	1	-1E+10	1	-1E+10	1
4902551	101	C	06/01/2023	09:05	-131.185	48.056	0	277.40	0	4.8730	0	33.8020	0	26.742	0	274.886	0	98.1	4	31.5	4	-1E+10	1	-1E+10	1	-1E+10	1	-1E+10	1	-1E+10	1	-1E+10	1
4902551	101	C	06/01/2023	09:05	-131.185	48.056	0	278.40	0	4.8710	0	33.8010	0	26.742	0	275.876	0	97.8	4	31.4	4	-1E+10	1	-1E+10	1	-1E+10	1	-1E+10	1	-1E+10	1	-1E+10	1
4902551	101	C	06/01/2023	09:05	-131.185	48.056	0	279.80	0	4.8660	0	33.8000	0	26.742	0	277.263	0	97.0	4	31.2	4	-1E+10	1	-1E+10	1	-1E+10	1	-1E+10	1	-1E+10	1	-1E+10	1
4902551	101	C	06/01/2023	09:05	-131.185	48.056	0	281.00	0	4.8570	0	33.8040	0	26.746	0	278.451	0	96.5	4	31.0	4	-1E+10	1	-1E+10	1	-1E+10	1	-1E+10	1	-1E+10	1	-1E+10	1
4902551	101	C	06/01/2023	09:05	-131.185	48.056	0	281.80	0	4.8490	0	33.8040	0	26.747	0	279.243	0	96.2	4	30.9	4	-1E+10	1	-1E+10	1	-1E+10	1	-1E+10	1	-1E+10	1	-1E+10	1
4902551	101	C	06/01/2023	09:05	-131.185	48.056	0	282.90	0	4.8390	0	33.8040	0	26.748	0	280.333	0	95.8	4	30.8	4	-1E+10	1	-1E+10	1	-1E+10	1	-1E+10	1	-1E+10	1	-1E+10	1
4902551	101	C	06/01/2023	09:05	-131.185	48.056	0	284.10	0	4.8350	0	33.8050	0	26.749	0	281.521	0	95.4	4	30.6	4	-1E+10	1	-1E+10	1	-1E+10	1	-1E+10	1	-1E+10	1	-1E+10	1
4902551	101	C	06/01/2023	09:05	-131.185	48.056	0	284.90	0	4.8290	0	33.8060	0	26.750	0	282.313	0	95.1	4	30.5	4	-1E+10	1	-1E+10	1	-1E+10	1	-1E+10	1	-1E+10	1	-1E+10	1
4902551	101	C	06/01/2023	09:05	-131.185	48.056	0	285.70	0	4.8250	0	33.8070	0	26.752	0	283.105	0	94.8	4	30.4	4	-1E+10	1	-1E+10	1	-1E+10	1	-1E+10	1	-1E+10	1	-1E+10	1
4902551	101	C	06/01/2023	09:05	-131.185	48.056	0	286.90	0	4.8210	0	33.8070	0	26.752	0	284.294	0	94.3	4	30.3	4	-1E+10	1	-1E+10	1	-1E+10	1	-1E+10	1	-1E+10	1	-1E+10	1
4902551	101	C	06/01/2023	09:05	-131.185	48.056	0	288.10	0	4.8150	0	33.8080	0	26.754	0	285.482	0	93.9	4	30.1	4	-1E+10	1	-1E+10	1	-1E+10	1	-1E+10	1	-1E+10	1	-1E+10	1
4902551	101	C	06/01/2023	09:05	-131.185	48.056	0	288.90	0	4.8120	0	33.8090	0	26.755	0	286.274	0	93.6	4	30.0	4	-1E+10	1	-1E+10	1	-1E+10	1	-1E+10	1	-1E+10	1	-1E+10	1
4902551	101	C	06/01/2023	09:05	-131.185	48.056	0	289.70	0	4.8110	0	33.8090	0	26.755	0	287.066	0	93.2	4	29.9	4	-1E+10	1	-1E+10	1	-1E+10	1	-1E+10	1	-1E+10	1	-1E+10	1
4902551	101	C	06/01/2023	09:05	-131.185	48.056	0	290.90	0	4.8030	0	33.8100	0	26.757	0	288.254	0	92.7	4	29.7	4	-1E+10	1	-1E+10	1	-1E+10	1	-1E+10	1	-1E+10	1	-1E+10	1
4902551	101	C	06/01/2023	09:05	-131.185	48.056	0	292.10	0	4.7880	0	33.8120	0	26.760	0	289.443	0	92.2	4	29.6	4	-1E+10	1	-1E+10	1	-1E+10	1	-1E+10	1	-1E+10	1	-1E+10	1
4902551	101	C	06/01/2023	09:05	-131.185	48.056	0	292.90	0	4.7860	0	33.8120	0	26.760	0	290.235	0	91.9	4	29.5	4	-1E+10	1	-1E+10	1	-1E+10	1	-1E+10	1	-1E+10	1	-1E+10	1
4902551	101	C	06/01/2023	09:05	-131.185	48.056	0	293.70	0	4.7860	0	33.8120	0	26.760	0	291.027	0	91.5	4	29.4	4	-1E+10	1	-1E+10	1	-1E+10	1	-1E+10	1	-1E+10	1	-1E+10	1
4902551	101	C	06/01/2023	09:05	-131.185	48.056	0	295.00	0	4.7830	0	33.8120	0	26.760	0	292.314	0	90.9	4	29.2	4	-1E+10	1	-1E+10	1	-1E+10	1	-1E+10	1	-1E+10	1	-1E+10	1
4902551	101	C	06/01/2023	09:05	-131.185	48.056	0	296.20	0	4.7800	0	33.8130	0	26.762	0	293.503	0	90.3	4	29.0	4	-1E+10	1	-1E+10	1	-1E+10	1	-1E+10	1	-1E+10	1	-1E+10	1
4902551	101	C	06/01/2023	09:05	-131.185	48.056	0	297.00	0	4.7760	0	33.8130	0	26.762	0	294.295	0	89.8	4	28.8	4	-1E+10	1	-1E+10	1	-1E+10	1	-1E+10	1	-1E+10	1	-1E+10	1
4902551	101	C	06/01/2023	09:05	-131.185	48.056	0	297.90	0	4.7720	0	33.8140	0	26.763	0	295.186	0	89.3	4	28.6	4	-1E+10	1	-1E+10	1	-1E+10	1	-1E+10	1	-1E+10	1	-1E+10	1
4902551	101	C	06/01/2023	09:05	-131.185	48.056	0	298.70	0	4.7680	0	33.8140	0	26.764	0	295.978	0	88.8	4	28.5	4	-1E+10	1	-1E+10	1	-1E+10	1	-1E+10	1	-1E+10	1	-1E+10	1
4902551	101	C	06/01/2023	09:05	-131.185	48.056	0	299.90	0	4.7580	0	33.8170	0	26.767	0	297.166	0	88.0	4	28.2	4	-1E+10	1	-1E+10	1	-1E+10	1	-1E+10	1	-1E+10	1	-1E+10	1
4902551	101	C	06/01/2023	09:05	-131.185	48.056	0	301.20	0	4.7250	0	33.8190	0	26.772	0	298.453	0	87.4	4	28.0	4	-1E+10	1	-1E+10	1	-1E+10	1	-1E+10	1	-1E+10	1	-1E+10	1
4902551	101	C	06/01/2023	09:05	-131.185	48.056	0	302.00	0	4.7250	0	33.8190	0	26.772	0	299.246	0	87.1	4	27.9	4	-1E+10	1	-1E+10	1	-1E+10	1	-1E+10	1	-1E+10	1	-1E+10	1
4902551	101	C	06/01/2023	09:05	-131.185	48.056	0	302.90	0	4.7230	0	33.8190	0	26.773	0	300.137	0	86.7	4	27.8	4	-1E+10	1	-1E+10	1	-1E+10	1	-1E+10	1	-1E+10	1	-1E+10	1
4902551	101	C	06/01/2023	09:05	-131.185	48.056	0	303.70	0	4.7160	0	33.8200	0	26.774	0	300.929	0	86.3	4	27.7	4	-1E+10	1	-1E+10	1	-1E+10	1	-1E+10	1	-1E+10	1	-1E+10	1
4902551	101	C	06/01/2023	09:05	-131.185	48.056	0	304.90	0	4.7090	0	33.8210	0	26.776	0	302.117	0	85.8	4	27.5	4	-1E+10	1	-1E+10	1	-1E+10	1	-1E+10	1	-1E+10	1	-1E+10	1
4902551	101	C	06/01/2023	09:05	-131.185	48.056	0	306.20	0	4.7070	0	33.8210	0	26.776	0	303.404	0	85.2	4	27.3	4	-1E+10	1	-1E+10	1	-1E+10	1	-1E+10	1	-1E+10	1	-1E+10	1
4902551	101	C	06/01/2023	09:05	-131.185	48.056	0	307.00	0	4.6960	0	33.8260	0	26.781	0	304.196	0	84.8	4	27.2	4	-1E+10	1	-1E+10	1	-1E+10	1	-1E+10	1	-1E+10	1	-1E+10	1
4902551	101	C	06/01/2023	09:05	-131.185	48.056	0	307.90	0	4.6870	0	33.8250	0	26.781	0	305.087	0	84.5	4	27.0	4	-1E+10	1	-1E+10	1	-1E+10	1	-1E+10	1	-1E+10	1	-1E+10	1
4902551	101	C	06/01/2023	09:05	-131.185	48.056	0	308.70	0	4.6810	0	33.8270	0	26.784	0	305.879	0	84.1	4	26.9	4	-1E+10	1	-1E+10	1	-1E+10	1	-1E+10	1	-1E+10	1	-1E+10	1
4902551	101	C	06/01/2023	09:05	-131.185	48.056	0	310.00	0	4.6690	0	33.8280	0	26.786	0	307.167	0	83.8	4	26.8	4	-1E+10	1	-1E+10	1	-1E+10	1	-1E+10	1	-1E+10	1	-1E+10	1
4902551	101	C	06/01/2023	09:05	-131.185	48.056	0	311.30	0	4.6670	0	33.8280	0	26.786	0	308.454	0	83.4	4	26.7	4	-1E+10	1	-1E+10	1	-1E+10	1	-1E+10	1	-1E+10	1	-1E+10	1
4902551	101	C	06/01/2023	09:05	-131.185	48.056	0	312.20	0	4.6630	0	33.8300	0	26.788	0	309.345	0	83.1	4	26.6	4	-1E+10	1	-1E+10	1	-1E+10	1	-1E+10	1	-1E+10	1	-1E+10	1
4902551	101	C	06/01/2023	09:05	-131.185	48.056	0	313.00	0	4.6590	0	33.8300	0	26.788	0	310.137	0	82.8	4	26.5	4	-1E+10	1	-1E+10	1	-1E+10	1	-1E+10	1	-1E+10	1	-1E+10	1
4902551	101	C	06/01/2023	09:05	-131.185	48.056	0	313.90	0	4.6500	0	33.8320	0	26.791	0	311.028	0	82.6	4	26.4	4	-1E+10	1	-1E+10	1	-1E+10	1	-1E+10	1	-1E+10	1	-1E+10	1
4902551	101	C	06/01/2023	09:05	-131.185	48.056	0	314.70	0	4.6460	0	33.8320	0	26.791	0	311.820	0	82.4	4	26.4	4	-1E+10	1	-1E+10	1	-1E+10	1	-1E+10	1	-1E+10	1	-1E+10	1
4902551	101	C	06/01/2023	09:05	-131.185	48.056	0	316.00	0	4.6430	0	33.8320	0	26.792	0	313.107	0	82.1	4	26.3	4	-1E+10	1	-1E+10	1	-1E+10	1	-1E+10	1	-1E+10	1	-1E+10	1
4902551	101	C	06/01/2023	09:05	-131.185	48.056	0	317.30	0	4.6420	0	33.8320	0	26.792	0	314.394	0	81.7	4	26.1	4	-1E+10	1	-1E+10	1	-1E+10	1	-1E+10	1	-1E+10	1	-1E+10	1
4902551	101	C	06/01/2023	09:05	-131.185	48.056	0	318.10	0	4.6400	0	33.8320	0	26.792	0	315.186	0	81.5	4	26.0	4	-1E+10	1	-1E+10	1	-1E+10	1	-1E+10	1	-1E+10	1	-1E+10	1
4902551	101	C	06/01/2023	09:05	-131.185	48.056	0	319.00	0	4.6360	0	33.8320	0	26.793	0	316.077	0	81.2	4	25.9	4	-1E+10	1	-1E+10	1	-1E+10	1	-1E+10	1	-1E+10	1	-1E+10	1
4902551	101	C	06/01/2023	09:05	-131.185	48.056	0	319.80	0	4.6300	0	33.8330	0	26.794	0	316.870	0	80.9	4	25.8	4	-1E+10	1	-1E+10	1	-1E+10	1	-1E+10	1	-1E+10	1	-1E+10	1
4902551	101	C	06/01/2023	09:05	-131.185	48.056	0	320.70	0	4.6210	0	33.8340	0	26.796	0	317.761	0	80.6	4	25.8	4	-1E+10	1	-1E+10	1	-1E+10	1	-1E+10	1	-1E+10	1	-1E+10	1
4902551	101	C	06/01/2023	09:05	-131.185	48.056	0	321.60	0	4.6170	0	33.8350	0	26.797	0	318.652	0	80.4	4	25.7	4	-1E+10	1	-1E+10	1	-1E+10	1	-1E+10	1	-1E+10	1	-1E+10	1
4902551	101	C	06/01/2023	09:05	-131.185	48.056	0	322.90	0	4.6120	0	33.8360	0	26.798	0	319.939	0	80.0	4	25.6	4	-1E+10	1	-1E+10	1	-1E+10	1	-1E+10	1	-1E+10	1	-1E+10	1
4902551	101	C	06/01/2023	09:05	-131.185	48.056	0	324.20	0	4.6090	0	33.8370	0	26.800	0	321.226	0	79.5	4	25.4	4	-1E+10	1	-1E+10	1	-1E+10	1	-1E+10	1	-1E+10	1	-1E+10	1
4902551	101	C	06/01/2023	09:05	-131.185	48.056	0	325.10	0	4.6080	0	33.8360	0	26.799	0	322.117	0	79.2	4	25.3	4	-1E+10	1	-1E+10	1	-1E+10	1	-1E+10	1	-1E+10	1	-1E+10	1
4902551	101	C	06/01/2023	09:05	-131.185	48.056	0	325.90	0	4.6060	0	33.8360	0	26.799	0	322.909	0	78.9	4	25.2	4	-1E+10	1	-1E+10	1	-1E+10	1	-1E+10	1	-1E+10	1	-1E+10	1
4902551	101	C	06/01/2023	09:05	-131.185	48.056	0	326.80	0	4.6030	0	33.8360	0	26.799	0	323.800	0	78.5	4	25.1	4	-1E+10	1	-1E+10	1	-1E+10	1	-1E+10	1	-1E+10	1	-1E+10	1
4902551	101	C	06/01/2023	09:05	-131.185	48.056	0	327.70	0	4.6020	0	33.8360	0	26.800	0	324.691	0	78.2	4	25.0	4	-1E+10	1	-1E+10	1	-1E+10	1	-1E+10	1	-1E+10	1	-1E+10	1
4902551	101	C	06/01/2023	09:05	-131.185	48.056	0	329.00	0	4.5990	0	33.8370	0	26.801	0	325.978	0	77.5	4	24.8	4	-1E+10	1	-1E+10	1	-1E+10	1	-1E+10	1	-1E+10	1	-1E+10	1
4902551	101	C	06/01/2023	09:05	-131.185	48.056	0	330.30	0	4.5860	0	33.8370	0	26.802	0	327.265	0	76.9	4	24.6	4	-1E+10	1	-1E+10	1	-1E+10	1	-1E+10	1	-1E+10	1	-1E+10	1
4902551	101	C	06/01/2023	09:05	-131.185	48.056	0	331.20	0	4.5720	0	33.8410	0	26.807	0	328.156	0	76.5	4	24.4	4	-1E+10	1	-1E+10	1	-1E+10	1	-1E+10	1	-1E+10	1	-1E+10	1
4902551	101	C	06/01/2023	09:05	-131.185	48.056	0	332.10	0	4.5690	0	33.8420	0	26.808	0	329.047	0	76.1	4	24.3	4	-1E+10	1	-1E+10	1	-1E+10	1	-1E+10	1	-1E+10	1	-1E+10	1
4902551	101	C	06/01/2023	09:05	-131.185	48.056	0	332.90	0	4.5660	0	33.8410	0	26.807	0	329.839	0	75.7	4	24.2	4	-1E+10	1	-1E+10	1	-1E+10	1	-1E+10	1	-1E+10	1	-1E+10	1
4902551	101	C	06/01/2023	09:05	-131.185	48.056	0	333.80	0	4.5660	0	33.8450	0	26.811	0	330.730	0	75.3	4	24.0	4	-1E+10	1	-1E+10	1	-1E+10	1	-1E+10	1	-1E+10	1	-1E+10	1
4902551	101	C	06/01/2023	09:05	-131.185	48.056	0	334.70	0	4.5660	0	33.8450	0	26.811	0	331.621	0	74.9	4	23.9	4	-1E+10	1	-1E+10	1	-1E+10	1	-1E+10	1	-1E+10	1	-1E+10	1
4902551	101	C	06/01/2023	09:05	-131.185	48.056	0	335.60	0	4.5630	0	33.8450	0	26.811	0	332.512	0	74.6	4	23.8	4	-1E+10	1	-1E+10	1	-1E+10	1	-1E+10	1	-1E+10	1	-1E+10	1
4902551	101	C	06/01/2023	09:05	-131.185	48.056	0	336.90	0	4.5450	0	33.8500	0	26.817	0	333.799	0	74.1	4	23.6	4	-1E+10	1	-1E+10	1	-1E+10	1	-1E+10	1	-1E+10	1	-1E+10	1
4902551	101	C	06/01/2023	09:05	-131.185	48.056	0	338.20	0	4.5430	0	33.8540	0	26.820	0	335.086	0	73.6	4	23.5	4	-1E+10	1	-1E+10	1	-1E+10	1	-1E+10	1	-1E+10	1	-1E+10	1
4902551	101	C	06/01/2023	09:05	-131.185	48.056	0	339.10	0	4.5450	0	33.8530	0	26.819	0	335.977	0	73.3	4	23.4	4	-1E+10	1	-1E+10	1	-1E+10	1	-1E+10	1	-1E+10	1	-1E+10	1
4902551	101	C	06/01/2023	09:05	-131.185	48.056	0	340.00	0	4.5470	0	33.8540	0	26.820	0	336.868	0	73.0	4	23.3	4	-1E+10	1	-1E+10	1	-1E+10	1	-1E+10	1	-1E+10	1	-1E+10	1
4902551	101	C	06/01/2023	09:05	-131.185	48.056	0	340.90	0	4.5460	0	33.8550	0	26.821	0	337.759	0	72.6	4	23.2	4	-1E+10	1	-1E+10	1	-1E+10	1	-1E+10	1	-1E+10	1	-1E+10	1
4902551	101	C	06/01/2023	09:05	-131.185	48.056	0	341.80	0	4.5440	0	33.8550	0	26.821	0	338.650	0	72.2	4	23.0	4	-1E+10	1	-1E+10	1	-1E+10	1	-1E+10	1	-1E+10	1	-1E+10	1
4902551	101	C	06/01/2023	09:05	-131.185	48.056	0	342.60	0	4.5350	0	33.8550	0	26.822	0	339.442	0	71.7	4	22.9	4	-1E+10	1	-1E+10	1	-1E+10	1	-1E+10	1	-1E+10	1	-1E+10	1
4902551	101	C	06/01/2023	09:05	-131.185	48.056	0	343.90	0	4.5270	0	33.8560	0	26.824	0	340.729	0	71.1	4	22.7	4	-1E+10	1	-1E+10	1	-1E+10	1	-1E+10	1	-1E+10	1	-1E+10	1
4902551	101	C	06/01/2023	09:05	-131.185	48.056	0	345.20	0	4.5260	0	33.8570	0	26.825	0	342.016	0	70.4	4	22.5	4	-1E+10	1	-1E+10	1	-1E+10	1	-1E+10	1	-1E+10	1	-1E+10	1
4902551	101	C	06/01/2023	09:05	-131.185	48.056	0	346.10	0	4.5140	0	33.8620	0	26.830	0	342.907	0	70.0	4	22.3	4	-1E+10	1	-1E+10	1	-1E+10	1	-1E+10	1	-1E+10	1	-1E+10	1
4902551	101	C	06/01/2023	09:05	-131.185	48.056	0	347.00	0	4.5010	0	33.8670	0	26.835	0	343.798	0	69.7	4	22.2	4	-1E+10	1	-1E+10	1	-1E+10	1	-1E+10	1	-1E+10	1	-1E+10	1
4902551	101	C	06/01/2023	09:05	-131.185	48.056	0	347.80	0	4.5000	0	33.8670	0	26.835	0	344.590	0	69.4	4	22.1	4	-1E+10	1	-1E+10	1	-1E+10	1	-1E+10	1	-1E+10	1	-1E+10	1
4902551	101	C	06/01/2023	09:05	-131.185	48.056	0	348.70	0	4.4970	0	33.8680	0	26.836	0	345.481	0	69.0	4	22.0	4	-1E+10	1	-1E+10	1	-1E+10	1	-1E+10	1	-1E+10	1	-1E+10	1
4902551	101	C	06/01/2023	09:05	-131.185	48.056	0	350.00	0	4.4920	0	33.8690	0	26.838	0	346.768	0	68.5	4	21.8	4	-1E+10	1	-1E+10	1	-1E+10	1	-1E+10	1	-1E+10	1	-1E+10	1
4902551	101	C	06/01/2023	09:05	-131.185	48.056	0	353.00	0	4.4630	0	33.8720	0	26.843	0	349.737	0	67.4	4	21.5	4	-1E+10	1	-1E+10	1	-1E+10	1	-1E+10	1	-1E+10	1	-1E+10	1
4902551	101	C	06/01/2023	09:05	-131.185	48.056	0	357.70	0	4.4430	0	33.8770	0	26.849	0	354.390	0	65.9	4	21.0	4	-1E+10	1	-1E+10	1	-1E+10	1	-1E+10	1	-1E+10	1	-1E+10	1
4902551	101	C	06/01/2023	09:05	-131.185	48.056	0	362.90	0	4.4340	0	33.8840	0	26.856	0	359.537	0	64.3	4	20.5	4	-1E+10	1	-1E+10	1	-1E+10	1	-1E+10	1	-1E+10	1	-1E+10	1
4902551	101	C	06/01/2023	09:05	-131.185	48.056	0	368.00	0	4.4140	0	33.8910	0	26.864	0	364.585	0	62.4	4	19.8	4	-1E+10	1	-1E+10	1	-1E+10	1	-1E+10	1	-1E+10	1	-1E+10	1
4902551	101	C	06/01/2023	09:05	-131.185	48.056	0	373.20	0	4.3840	0	33.8990	0	26.873	0	369.733	0	60.9	4	19.4	4	-1E+10	1	-1E+10	1	-1E+10	1	-1E+10	1	-1E+10	1	-1E+10	1
4902551	101	C	06/01/2023	09:05	-131.185	48.056	0	378.00	0	4.3690	0	33.9030	0	26.878	0	374.484	0	60.1	4	19.1	4	-1E+10	1	-1E+10	1	-1E+10	1	-1E+10	1	-1E+10	1	-1E+10	1
4902551	101	C	06/01/2023	09:05	-131.185	48.056	0	382.80	0	4.3660	0	33.9060	0	26.881	0	379.235	0	59.1	4	18.8	4	-1E+10	1	-1E+10	1	-1E+10	1	-1E+10	1	-1E+10	1	-1E+10	1
4902551	101	C	06/01/2023	09:05	-131.185	48.056	0	388.00	0	4.3550	0	33.9120	0	26.887	0	384.381	0	57.8	4	18.4	4	-1E+10	1	-1E+10	1	-1E+10	1	-1E+10	1	-1E+10	1	-1E+10	1
4902551	101	C	06/01/2023	09:05	-131.185	48.056	0	393.00	0	4.3440	0	33.9170	0	26.892	0	389.330	0	56.6	4	18.0	4	-1E+10	1	-1E+10	1	-1E+10	1	-1E+10	1	-1E+10	1	-1E+10	1
4902551	101	C	06/01/2023	09:05	-131.185	48.056	0	397.90	0	4.3320	0	33.9230	0	26.898	0	394.180	0	55.3	4	17.6	4	-1E+10	1	-1E+10	1	-1E+10	1	-1E+10	1	-1E+10	1	-1E+10	1
4902551	101	C	06/01/2023	09:05	-131.185	48.056	0	403.00	0	4.3190	0	33.9290	0	26.904	0	399.227	0	54.1	4	17.2	4	-1E+10	1	-1E+10	1	-1E+10	1	-1E+10	1	-1E+10	1	-1E+10	1
4902551	101	C	06/01/2023	09:05	-131.185	48.056	0	407.60	0	4.3120	0	33.9330	0	26.908	0	403.780	0	52.9	4	16.8	4	-1E+10	1	-1E+10	1	-1E+10	1	-1E+10	1	-1E+10	1	-1E+10	1
4902551	101	C	06/01/2023	09:05	-131.185	48.056	0	412.80	0	4.3010	0	33.9390	0	26.914	0	408.926	0	52.0	4	16.5	4	-1E+10	1	-1E+10	1	-1E+10	1	-1E+10	1	-1E+10	1	-1E+10	1
4902551	101	C	06/01/2023	09:05	-131.185	48.056	0	418.20	0	4.2910	0	33.9440	0	26.919	0	414.270	0	51.5	4	16.3	4	-1E+10	1	-1E+10	1	-1E+10	1	-1E+10	1	-1E+10	1	-1E+10	1
4902551	101	C	06/01/2023	09:05	-131.185	48.056	0	423.20	0	4.2840	0	33.9470	0	26.922	0	419.218	0	50.9	4	16.2	4	-1E+10	1	-1E+10	1	-1E+10	1	-1E+10	1	-1E+10	1	-1E+10	1
4902551	101	C	06/01/2023	09:05	-131.185	48.056	0	428.20	0	4.2780	0	33.9490	0	26.925	0	424.165	0	50.3	4	16.0	4	-1E+10	1	-1E+10	1	-1E+10	1	-1E+10	1	-1E+10	1	-1E+10	1
4902551	101	C	06/01/2023	09:05	-131.185	48.056	0	433.30	0	4.2670	0	33.9550	0	26.931	0	429.212	0	49.5	4	15.7	4	-1E+10	1	-1E+10	1	-1E+10	1	-1E+10	1	-1E+10	1	-1E+10	1
4902551	101	C	06/01/2023	09:05	-131.185	48.056	0	438.30	0	4.2580	0	33.9600	0	26.936	0	434.160	0	48.6	4	15.4	4	-1E+10	1	-1E+10	1	-1E+10	1	-1E+10	1	-1E+10	1	-1E+10	1
4902551	101	C	06/01/2023	09:05	-131.185	48.056	0	442.90	0	4.2470	0	33.9660	0	26.941	0	438.711	0	48.0	4	15.2	4	-1E+10	1	-1E+10	1	-1E+10	1	-1E+10	1	-1E+10	1	-1E+10	1
4902551	101	C	06/01/2023	09:05	-131.185	48.056	0	447.40	0	4.2420	0	33.9690	0	26.944	0	443.164	0	47.3	4	15.0	4	-1E+10	1	-1E+10	1	-1E+10	1	-1E+10	1	-1E+10	1	-1E+10	1
4902551	101	C	06/01/2023	09:05	-131.185	48.056	0	452.80	0	4.2290	0	33.9770	0	26.952	0	448.507	0	46.4	4	14.7	4	-1E+10	1	-1E+10	1	-1E+10	1	-1E+10	1	-1E+10	1	-1E+10	1
4902551	101	C	06/01/2023	09:05	-131.185	48.056	0	457.90	0	4.2210	0	33.9830	0	26.958	0	453.553	0	45.7	4	14.5	4	-1E+10	1	-1E+10	1	-1E+10	1	-1E+10	1	-1E+10	1	-1E+10	1
4902551	101	C	06/01/2023	09:05	-131.185	48.056	0	462.60	0	4.2150	0	33.9880	0	26.962	0	458.203	0	44.9	4	14.2	4	-1E+10	1	-1E+10	1	-1E+10	1	-1E+10	1	-1E+10	1	-1E+10	1
4902551	101	C	06/01/2023	09:05	-131.185	48.056	0	467.90	0	4.2070	0	33.9940	0	26.968	0	463.447	0	44.3	4	14.0	4	-1E+10	1	-1E+10	1	-1E+10	1	-1E+10	1	-1E+10	1	-1E+10	1
4902551	101	C	06/01/2023	09:05	-131.185	48.056	0	473.20	0	4.2040	0	33.9960	0	26.970	0	468.691	0	43.4	4	13.7	4	-1E+10	1	-1E+10	1	-1E+10	1	-1E+10	1	-1E+10	1	-1E+10	1
4902551	101	C	06/01/2023	09:05	-131.185	48.056	0	478.20	0	4.1920	0	34.0030	0	26.977	0	473.637	0	42.3	4	13.4	4	-1E+10	1	-1E+10	1	-1E+10	1	-1E+10	1	-1E+10	1	-1E+10	1
4902551	101	C	06/01/2023	09:05	-131.185	48.056	0	483.30	0	4.1830	0	34.0080	0	26.982	0	478.683	0	41.1	4	13.0	4	-1E+10	1	-1E+10	1	-1E+10	1	-1E+10	1	-1E+10	1	-1E+10	1
4902551	101	C	06/01/2023	09:05	-131.185	48.056	0	487.90	0	4.1700	0	34.0160	0	26.990	0	483.233	0	40.2	4	12.7	4	-1E+10	1	-1E+10	1	-1E+10	1	-1E+10	1	-1E+10	1	-1E+10	1
4902551	101	C	06/01/2023	09:05	-131.185	48.056	0	492.70	0	4.1610	0	34.0200	0	26.994	0	487.982	0	39.4	4	12.5	4	-1E+10	1	-1E+10	1	-1E+10	1	-1E+10	1	-1E+10	1	-1E+10	1
4902551	101	C	06/01/2023	09:05	-131.185	48.056	0	497.90	0	4.1500	0	34.0270	0	27.000	0	493.126	0	38.3	4	12.1	4	-1E+10	1	-1E+10	1	-1E+10	1	-1E+10	1	-1E+10	1	-1E+10	1
4902551	101	C	06/01/2023	09:05	-131.185	48.056	0	503.20	0	4.1390	0	34.0340	0	27.007	0	498.369	0	37.2	4	11.8	4	-1E+10	1	-1E+10	1	-1E+10	1	-1E+10	1	-1E+10	1	-1E+10	1
4902551	101	C	06/01/2023	09:05	-131.185	48.056	0	508.00	0	4.1250	0	34.0420	0	27.015	0	503.117	0	36.3	4	11.5	4	-1E+10	1	-1E+10	1	-1E+10	1	-1E+10	1	-1E+10	1	-1E+10	1
4902551	101	C	06/01/2023	09:05	-131.185	48.056	0	512.80	0	4.1180	0	34.0480	0	27.021	0	507.865	0	35.6	4	11.3	4	-1E+10	1	-1E+10	1	-1E+10	1	-1E+10	1	-1E+10	1	-1E+10	1
4902551	101	C	06/01/2023	09:05	-131.185	48.056	0	517.80	0	4.1150	0	34.0510	0	27.023	0	512.811	0	34.8	4	11.0	4	-1E+10	1	-1E+10	1	-1E+10	1	-1E+10	1	-1E+10	1	-1E+10	1
4902551	101	C	06/01/2023	09:05	-131.185	48.056	0	522.70	0	4.1000	0	34.0590	0	27.031	0	517.657	0	34.0	4	10.7	4	-1E+10	1	-1E+10	1	-1E+10	1	-1E+10	1	-1E+10	1	-1E+10	1
4902551	101	C	06/01/2023	09:05	-131.185	48.056	0	527.70	0	4.0900	0	34.0650	0	27.037	0	522.603	0	33.3	4	10.5	4	-1E+10	1	-1E+10	1	-1E+10	1	-1E+10	1	-1E+10	1	-1E+10	1
4902551	101	C	06/01/2023	09:05	-131.185	48.056	0	532.70	0	4.0790	0	34.0700	0	27.042	0	527.548	0	32.8	4	10.4	4	-1E+10	1	-1E+10	1	-1E+10	1	-1E+10	1	-1E+10	1	-1E+10	1
4902551	101	C	06/01/2023	09:05	-131.185	48.056	0	537.80	0	4.0720	0	34.0730	0	27.045	0	532.592	0	32.3	4	10.2	4	-1E+10	1	-1E+10	1	-1E+10	1	-1E+10	1	-1E+10	1	-1E+10	1
4902551	101	C	06/01/2023	09:05	-131.185	48.056	0	542.80	0	4.0620	0	34.0780	0	27.050	0	537.537	0	31.9	4	10.1	4	-1E+10	1	-1E+10	1	-1E+10	1	-1E+10	1	-1E+10	1	-1E+10	1
4902551	101	C	06/01/2023	09:05	-131.185	48.056	0	548.00	0	4.0560	0	34.0810	0	27.053	0	542.680	0	31.5	4	9.9	4	-1E+10	1	-1E+10	1	-1E+10	1	-1E+10	1	-1E+10	1	-1E+10	1
4902551	101	C	06/01/2023	09:05	-131.185	48.056	0	552.70	0	4.0540	0	34.0840	0	27.056	0	547.328	0	31.1	4	9.8	4	-1E+10	1	-1E+10	1	-1E+10	1	-1E+10	1	-1E+10	1	-1E+10	1
4902551	101	C	06/01/2023	09:05	-131.185	48.056	0	558.00	0	4.0470	0	34.0870	0	27.059	0	552.570	0	30.7	4	9.7	4	-1E+10	1	-1E+10	1	-1E+10	1	-1E+10	1	-1E+10	1	-1E+10	1
4902551	101	C	06/01/2023	09:05	-131.185	48.056	0	563.20	0	4.0420	0	34.0900	0	27.062	0	557.712	0	30.2	4	9.5	4	-1E+10	1	-1E+10	1	-1E+10	1	-1E+10	1	-1E+10	1	-1E+10	1
4902551	101	C	06/01/2023	09:05	-131.185	48.056	0	567.90	0	4.0370	0	34.0940	0	27.066	0	562.360	0	29.7	4	9.4	4	-1E+10	1	-1E+10	1	-1E+10	1	-1E+10	1	-1E+10	1	-1E+10	1
4902551	101	C	06/01/2023	09:05	-131.185	48.056	0	572.70	0	4.0350	0	34.0970	0	27.069	0	567.107	0	29.2	4	9.2	4	-1E+10	1	-1E+10	1	-1E+10	1	-1E+10	1	-1E+10	1	-1E+10	1
4902551	101	C	06/01/2023	09:05	-131.185	48.056	0	578.00	0	4.0280	0	34.1010	0	27.073	0	572.348	0	28.4	4	9.0	4	-1E+10	1	-1E+10	1	-1E+10	1	-1E+10	1	-1E+10	1	-1E+10	1
4902551	101	C	06/01/2023	09:05	-131.185	48.056	0	583.20	0	4.0250	0	34.1070	0	27.078	0	577.490	0	27.5	4	8.7	4	-1E+10	1	-1E+10	1	-1E+10	1	-1E+10	1	-1E+10	1	-1E+10	1
4902551	101	C	06/01/2023	09:05	-131.185	48.056	0	587.90	0	4.0220	0	34.1130	0	27.083	0	582.137	0	26.6	4	8.4	4	-1E+10	1	-1E+10	1	-1E+10	1	-1E+10	1	-1E+10	1	-1E+10	1
4902551	101	C	06/01/2023	09:05	-131.185	48.056	0	593.00	0	4.0220	0	34.1170	0	27.086	0	587.180	0	25.4	4	8.0	4	-1E+10	1	-1E+10	1	-1E+10	1	-1E+10	1	-1E+10	1	-1E+10	1
4902551	101	C	06/01/2023	09:05	-131.185	48.056	0	598.10	0	4.0260	0	34.1250	0	27.092	0	592.223	0	24.0	4	7.6	4	-1E+10	1	-1E+10	1	-1E+10	1	-1E+10	1	-1E+10	1	-1E+10	1
4902551	101	C	06/01/2023	09:05	-131.185	48.056	0	602.80	0	4.0400	0	34.1350	0	27.099	0	596.870	0	22.8	4	7.2	4	-1E+10	1	-1E+10	1	-1E+10	1	-1E+10	1	-1E+10	1	-1E+10	1
4902551	101	C	06/01/2023	09:05	-131.185	48.056	0	608.00	0	4.0520	0	34.1450	0	27.105	0	602.011	0	22.5	4	7.1	4	-1E+10	1	-1E+10	1	-1E+10	1	-1E+10	1	-1E+10	1	-1E+10	1
4902551	101	C	06/01/2023	09:05	-131.185	48.056	0	613.10	0	4.0440	0	34.1490	0	27.109	0	607.053	0	22.9	4	7.2	4	-1E+10	1	-1E+10	1	-1E+10	1	-1E+10	1	-1E+10	1	-1E+10	1
4902551	101	C	06/01/2023	09:05	-131.185	48.056	0	618.10	0	4.0030	0	34.1490	0	27.114	0	611.997	0	23.3	4	7.4	4	-1E+10	1	-1E+10	1	-1E+10	1	-1E+10	1	-1E+10	1	-1E+10	1
4902551	101	C	06/01/2023	09:05	-131.185	48.056	0	623.20	0	3.9650	0	34.1480	0	27.117	0	617.039	0	23.3	4	7.3	4	-1E+10	1	-1E+10	1	-1E+10	1	-1E+10	1	-1E+10	1	-1E+10	1
4902551	101	C	06/01/2023	09:05	-131.185	48.056	0	627.70	0	3.9410	0	34.1520	0	27.122	0	621.488	0	22.9	4	7.2	4	-1E+10	1	-1E+10	1	-1E+10	1	-1E+10	1	-1E+10	1	-1E+10	1
4902551	101	C	06/01/2023	09:05	-131.185	48.056	0	632.70	0	3.9210	0	34.1560	0	27.128	0	626.431	0	22.5	4	7.1	4	-1E+10	1	-1E+10	1	-1E+10	1	-1E+10	1	-1E+10	1	-1E+10	1
4902551	101	C	06/01/2023	09:05	-131.185	48.056	0	637.80	0	3.9060	0	34.1590	0	27.131	0	631.472	0	22.1	4	6.9	4	-1E+10	1	-1E+10	1	-1E+10	1	-1E+10	1	-1E+10	1	-1E+10	1
4902551	101	C	06/01/2023	09:05	-131.185	48.056	0	642.90	0	3.8960	0	34.1630	0	27.136	0	636.514	0	21.6	4	6.8	4	-1E+10	1	-1E+10	1	-1E+10	1	-1E+10	1	-1E+10	1	-1E+10	1
4902551	101	C	06/01/2023	09:05	-131.185	48.056	0	648.10	0	3.8820	0	34.1690	0	27.142	0	641.654	0	21.2	4	6.7	4	-1E+10	1	-1E+10	1	-1E+10	1	-1E+10	1	-1E+10	1	-1E+10	1
4902551	101	C	06/01/2023	09:05	-131.185	48.056	0	652.80	0	3.8770	0	34.1700	0	27.143	0	646.300	0	20.9	4	6.6	4	-1E+10	1	-1E+10	1	-1E+10	1	-1E+10	1	-1E+10	1	-1E+10	1
4902551	101	C	06/01/2023	09:05	-131.185	48.056	0	657.70	0	3.8670	0	34.1740	0	27.147	0	651.144	0	20.5	4	6.5	4	-1E+10	1	-1E+10	1	-1E+10	1	-1E+10	1	-1E+10	1	-1E+10	1
4902551	101	C	06/01/2023	09:05	-131.185	48.056	0	662.60	0	3.8560	0	34.1770	0	27.151	0	655.987	0	20.2	4	6.4	4	-1E+10	1	-1E+10	1	-1E+10	1	-1E+10	1	-1E+10	1	-1E+10	1
4902551	101	C	06/01/2023	09:05	-131.185	48.056	0	667.50	0	3.8550	0	34.1790	0	27.153	0	660.831	0	19.8	4	6.2	4	-1E+10	1	-1E+10	1	-1E+10	1	-1E+10	1	-1E+10	1	-1E+10	1
4902551	101	C	06/01/2023	09:05	-131.185	48.056	0	672.50	0	3.8430	0	34.1830	0	27.157	0	665.773	0	19.4	4	6.1	4	-1E+10	1	-1E+10	1	-1E+10	1	-1E+10	1	-1E+10	1	-1E+10	1
4902551	101	C	06/01/2023	09:05	-131.185	48.056	0	677.90	0	3.8280	0	34.1880	0	27.163	0	671.110	0	18.9	4	6.0	4	-1E+10	1	-1E+10	1	-1E+10	1	-1E+10	1	-1E+10	1	-1E+10	1
4902551	101	C	06/01/2023	09:05	-131.185	48.056	0	683.00	0	3.8180	0	34.1920	0	27.167	0	676.151	0	18.5	4	5.8	4	-1E+10	1	-1E+10	1	-1E+10	1	-1E+10	1	-1E+10	1	-1E+10	1
4902551	101	C	06/01/2023	09:05	-131.185	48.056	0	687.70	0	3.8050	0	34.1970	0	27.172	0	680.796	0	18.2	4	5.7	4	-1E+10	1	-1E+10	1	-1E+10	1	-1E+10	1	-1E+10	1	-1E+10	1
4902551	101	C	06/01/2023	09:05	-131.185	48.056	0	692.90	0	3.7890	0	34.2010	0	27.177	0	685.935	0	17.8	4	5.6	4	-1E+10	1	-1E+10	1	-1E+10	1	-1E+10	1	-1E+10	1	-1E+10	1
4902551	101	C	06/01/2023	09:05	-131.185	48.056	0	698.20	0	3.7740	0	34.2060	0	27.182	0	691.173	0	17.4	4	5.5	4	-1E+10	1	-1E+10	1	-1E+10	1	-1E+10	1	-1E+10	1	-1E+10	1
4902551	101	C	06/01/2023	09:05	-131.185	48.056	0	703.20	0	3.7600	0	34.2080	0	27.186	0	696.114	0	16.9	4	5.3	4	-1E+10	1	-1E+10	1	-1E+10	1	-1E+10	1	-1E+10	1	-1E+10	1
4902551	101	C	06/01/2023	09:05	-131.185	48.056	0	708.20	0	3.7570	0	34.2160	0	27.192	0	701.055	0	16.6	4	5.2	4	-1E+10	1	-1E+10	1	-1E+10	1	-1E+10	1	-1E+10	1	-1E+10	1
4902551	101	C	06/01/2023	09:05	-131.185	48.056	0	713.00	0	3.7340	0	34.2210	0	27.199	0	705.799	0	16.6	4	5.2	4	-1E+10	1	-1E+10	1	-1E+10	1	-1E+10	1	-1E+10	1	-1E+10	1
4902551	101	C	06/01/2023	09:05	-131.185	48.056	0	717.80	0	3.7250	0	34.2210	0	27.199	0	710.542	0	16.7	4	5.2	4	-1E+10	1	-1E+10	1	-1E+10	1	-1E+10	1	-1E+10	1	-1E+10	1
4902551	101	C	06/01/2023	09:05	-131.185	48.056	0	723.10	0	3.7000	0	34.2230	0	27.204	0	715.780	0	16.7	4	5.2	4	-1E+10	1	-1E+10	1	-1E+10	1	-1E+10	1	-1E+10	1	-1E+10	1
4902551	101	C	06/01/2023	09:05	-131.185	48.056	0	728.10	0	3.6920	0	34.2240	0	27.205	0	720.720	0	16.6	4	5.2	4	-1E+10	1	-1E+10	1	-1E+10	1	-1E+10	1	-1E+10	1	-1E+10	1
4902551	101	C	06/01/2023	09:05	-131.185	48.056	0	733.10	0	3.6850	0	34.2250	0	27.207	0	725.661	0	16.4	4	5.1	4	-1E+10	1	-1E+10	1	-1E+10	1	-1E+10	1	-1E+10	1	-1E+10	1
4902551	101	C	06/01/2023	09:05	-131.185	48.056	0	738.10	0	3.6760	0	34.2280	0	27.210	0	730.601	0	16.1	4	5.0	4	-1E+10	1	-1E+10	1	-1E+10	1	-1E+10	1	-1E+10	1	-1E+10	1
4902551	101	C	06/01/2023	09:05	-131.185	48.056	0	742.70	0	3.6660	0	34.2310	0	27.213	0	735.147	0	15.9	4	5.0	4	-1E+10	1	-1E+10	1	-1E+10	1	-1E+10	1	-1E+10	1	-1E+10	1
4902551	101	C	06/01/2023	09:05	-131.185	48.056	0	747.80	0	3.6480	0	34.2350	0	27.218	0	740.186	0	15.6	4	4.9	4	-1E+10	1	-1E+10	1	-1E+10	1	-1E+10	1	-1E+10	1	-1E+10	1
4902551	101	C	06/01/2023	09:05	-131.185	48.056	0	752.90	0	3.6350	0	34.2380	0	27.222	0	745.225	0	15.3	4	4.8	4	-1E+10	1	-1E+10	1	-1E+10	1	-1E+10	1	-1E+10	1	-1E+10	1
4902551	101	C	06/01/2023	09:05	-131.185	48.056	0	758.00	0	3.6180	0	34.2420	0	27.227	0	750.264	0	14.9	4	4.7	4	-1E+10	1	-1E+10	1	-1E+10	1	-1E+10	1	-1E+10	1	-1E+10	1
4902551	101	C	06/01/2023	09:05	-131.185	48.056	0	763.20	0	3.6100	0	34.2480	0	27.233	0	755.401	0	14.3	4	4.5	4	-1E+10	1	-1E+10	1	-1E+10	1	-1E+10	1	-1E+10	1	-1E+10	1
4902551	101	C	06/01/2023	09:05	-131.185	48.056	0	767.90	0	3.6110	0	34.2510	0	27.235	0	760.044	0	13.9	4	4.3	4	-1E+10	1	-1E+10	1	-1E+10	1	-1E+10	1	-1E+10	1	-1E+10	1
4902551	101	C	06/01/2023	09:05	-131.185	48.056	0	772.60	0	3.6130	0	34.2580	0	27.240	0	764.688	0	13.5	4	4.2	4	-1E+10	1	-1E+10	1	-1E+10	1	-1E+10	1	-1E+10	1	-1E+10	1
4902551	101	C	06/01/2023	09:05	-131.185	48.056	0	777.90	0	3.6070	0	34.2640	0	27.246	0	769.924	0	13.2	4	4.1	4	-1E+10	1	-1E+10	1	-1E+10	1	-1E+10	1	-1E+10	1	-1E+10	1
4902551	101	C	06/01/2023	09:05	-131.185	48.056	0	783.20	0	3.6010	0	34.2690	0	27.250	0	775.160	0	13.0	4	4.1	4	-1E+10	1	-1E+10	1	-1E+10	1	-1E+10	1	-1E+10	1	-1E+10	1
4902551	101	C	06/01/2023	09:05	-131.185	48.056	0	788.00	0	3.5990	0	34.2700	0	27.251	0	779.901	0	12.9	4	4.0	4	-1E+10	1	-1E+10	1	-1E+10	1	-1E+10	1	-1E+10	1	-1E+10	1
4902551	101	C	06/01/2023	09:05	-131.185	48.056	0	792.90	0	3.5910	0	34.2710	0	27.253	0	784.742	0	12.8	4	4.0	4	-1E+10	1	-1E+10	1	-1E+10	1	-1E+10	1	-1E+10	1	-1E+10	1
4902551	101	C	06/01/2023	09:05	-131.185	48.056	0	797.80	0	3.5790	0	34.2750	0	27.257	0	789.582	0	12.7	4	4.0	4	-1E+10	1	-1E+10	1	-1E+10	1	-1E+10	1	-1E+10	1	-1E+10	1
4902551	101	C	06/01/2023	09:05	-131.185	48.056	0	802.70	0	3.5690	0	34.2770	0	27.260	0	794.422	0	12.7	4	4.0	4	-1E+10	1	-1E+10	1	-1E+10	1	-1E+10	1	-1E+10	1	-1E+10	1
4902551	101	C	06/01/2023	09:05	-131.185	48.056	0	807.70	0	3.5520	0	34.2810	0	27.265	0	799.361	0	12.6	4	3.9	4	-1E+10	1	-1E+10	1	-1E+10	1	-1E+10	1	-1E+10	1	-1E+10	1
4902551	101	C	06/01/2023	09:05	-131.185	48.056	0	812.70	0	3.5370	0	34.2830	0	27.268	0	804.300	0	12.5	4	3.9	4	-1E+10	1	-1E+10	1	-1E+10	1	-1E+10	1	-1E+10	1	-1E+10	1
4902551	101	C	06/01/2023	09:05	-131.185	48.056	0	817.80	0	3.5310	0	34.2860	0	27.271	0	809.337	0	12.5	4	3.9	4	-1E+10	1	-1E+10	1	-1E+10	1	-1E+10	1	-1E+10	1	-1E+10	1
4902551	101	C	06/01/2023	09:05	-131.185	48.056	0	822.80	0	3.5200	0	34.2870	0	27.273	0	814.276	0	12.4	4	3.9	4	-1E+10	1	-1E+10	1	-1E+10	1	-1E+10	1	-1E+10	1	-1E+10	1
4902551	101	C	06/01/2023	09:05	-131.185	48.056	0	827.90	0	3.5050	0	34.2900	0	27.277	0	819.313	0	12.4	4	3.9	4	-1E+10	1	-1E+10	1	-1E+10	1	-1E+10	1	-1E+10	1	-1E+10	1
4902551	101	C	06/01/2023	09:05	-131.185	48.056	0	832.90	0	3.4980	0	34.2910	0	27.278	0	824.251	0	12.3	4	3.8	4	-1E+10	1	-1E+10	1	-1E+10	1	-1E+10	1	-1E+10	1	-1E+10	1
4902551	101	C	06/01/2023	09:05	-131.185	48.056	0	838.10	0	3.4760	0	34.2960	0	27.284	0	829.387	0	12.2	4	3.8	4	-1E+10	1	-1E+10	1	-1E+10	1	-1E+10	1	-1E+10	1	-1E+10	1
4902551	101	C	06/01/2023	09:05	-131.185	48.056	0	843.30	0	3.4670	0	34.2980	0	27.287	0	834.523	0	12.1	4	3.8	4	-1E+10	1	-1E+10	1	-1E+10	1	-1E+10	1	-1E+10	1	-1E+10	1
4902551	101	C	06/01/2023	09:05	-131.185	48.056	0	848.40	0	3.4470	0	34.3020	0	27.292	0	839.559	0	12.1	4	3.8	4	-1E+10	1	-1E+10	1	-1E+10	1	-1E+10	1	-1E+10	1	-1E+10	1
4902551	101	C	06/01/2023	09:05	-131.185	48.056	0	853.20	0	3.4310	0	34.3050	0	27.296	0	844.300	0	12.1	4	3.8	4	-1E+10	1	-1E+10	1	-1E+10	1	-1E+10	1	-1E+10	1	-1E+10	1
4902551	101	C	06/01/2023	09:05	-131.185	48.056	0	858.10	0	3.4210	0	34.3050	0	27.297	0	849.138	0	12.1	4	3.8	4	-1E+10	1	-1E+10	1	-1E+10	1	-1E+10	1	-1E+10	1	-1E+10	1
4902551	101	C	06/01/2023	09:05	-131.185	48.056	0	863.00	0	3.4130	0	34.3070	0	27.299	0	853.977	0	12.0	4	3.7	4	-1E+10	1	-1E+10	1	-1E+10	1	-1E+10	1	-1E+10	1	-1E+10	1
4902551	101	C	06/01/2023	09:05	-131.185	48.056	0	868.00	0	3.4120	0	34.3100	0	27.302	0	858.915	0	11.9	4	3.7	4	-1E+10	1	-1E+10	1	-1E+10	1	-1E+10	1	-1E+10	1	-1E+10	1
4902551	101	C	06/01/2023	09:05	-131.185	48.056	0	873.00	0	3.3950	0	34.3130	0	27.306	0	863.852	0	12.0	4	3.8	4	-1E+10	1	-1E+10	1	-1E+10	1	-1E+10	1	-1E+10	1	-1E+10	1
4902551	101	C	06/01/2023	09:05	-131.185	48.056	0	878.20	0	3.3640	0	34.3150	0	27.310	0	868.987	0	12.1	4	3.8	4	-1E+10	1	-1E+10	1	-1E+10	1	-1E+10	1	-1E+10	1	-1E+10	1
4902551	101	C	06/01/2023	09:05	-131.185	48.056	0	882.90	0	3.3490	0	34.3150	0	27.312	0	873.628	0	12.1	4	3.8	4	-1E+10	1	-1E+10	1	-1E+10	1	-1E+10	1	-1E+10	1	-1E+10	1
4902551	101	C	06/01/2023	09:05	-131.185	48.056	0	887.80	0	3.3300	0	34.3170	0	27.315	0	878.466	0	12.1	4	3.8	4	-1E+10	1	-1E+10	1	-1E+10	1	-1E+10	1	-1E+10	1	-1E+10	1
4902551	101	C	06/01/2023	09:05	-131.185	48.056	0	892.80	0	3.3210	0	34.3190	0	27.318	0	883.403	0	12.1	4	3.8	4	-1E+10	1	-1E+10	1	-1E+10	1	-1E+10	1	-1E+10	1	-1E+10	1
4902551	101	C	06/01/2023	09:05	-131.185	48.056	0	897.80	0	3.3080	0	34.3200	0	27.320	0	888.340	0	12.1	4	3.8	4	-1E+10	1	-1E+10	1	-1E+10	1	-1E+10	1	-1E+10	1	-1E+10	1
4902551	101	C	06/01/2023	09:05	-131.185	48.056	0	902.80	0	3.2920	0	34.3230	0	27.324	0	893.276	0	12.1	4	3.8	4	-1E+10	1	-1E+10	1	-1E+10	1	-1E+10	1	-1E+10	1	-1E+10	1
4902551	101	C	06/01/2023	09:05	-131.185	48.056	0	907.90	0	3.2890	0	34.3240	0	27.325	0	898.312	0	12.1	4	3.7	4	-1E+10	1	-1E+10	1	-1E+10	1	-1E+10	1	-1E+10	1	-1E+10	1
4902551	101	C	06/01/2023	09:05	-131.185	48.056	0	913.10	0	3.2810	0	34.3250	0	27.326	0	903.445	0	12.0	4	3.7	4	-1E+10	1	-1E+10	1	-1E+10	1	-1E+10	1	-1E+10	1	-1E+10	1
4902551	101	C	06/01/2023	09:05	-131.185	48.056	0	917.80	0	3.2730	0	34.3270	0	27.329	0	908.085	0	12.0	4	3.7	4	-1E+10	1	-1E+10	1	-1E+10	1	-1E+10	1	-1E+10	1	-1E+10	1
4902551	101	C	06/01/2023	09:05	-131.185	48.056	0	922.60	0	3.2650	0	34.3290	0	27.331	0	912.824	0	11.9	4	3.7	4	-1E+10	1	-1E+10	1	-1E+10	1	-1E+10	1	-1E+10	1	-1E+10	1
4902551	101	C	06/01/2023	09:05	-131.185	48.056	0	927.80	0	3.2560	0	34.3310	0	27.333	0	917.958	0	11.9	4	3.7	4	-1E+10	1	-1E+10	1	-1E+10	1	-1E+10	1	-1E+10	1	-1E+10	1
4902551	101	C	06/01/2023	09:05	-131.185	48.056	0	933.00	0	3.2400	0	34.3350	0	27.338	0	923.091	0	11.8	4	3.7	4	-1E+10	1	-1E+10	1	-1E+10	1	-1E+10	1	-1E+10	1	-1E+10	1
4902551	101	C	06/01/2023	09:05	-131.185	48.056	0	937.80	0	3.2280	0	34.3380	0	27.342	0	927.829	0	11.8	4	3.7	4	-1E+10	1	-1E+10	1	-1E+10	1	-1E+10	1	-1E+10	1	-1E+10	1
4902551	101	C	06/01/2023	09:05	-131.185	48.056	0	942.60	0	3.2210	0	34.3400	0	27.344	0	932.568	0	11.7	4	3.6	4	-1E+10	1	-1E+10	1	-1E+10	1	-1E+10	1	-1E+10	1	-1E+10	1
4902551	101	C	06/01/2023	09:05	-131.185	48.056	0	947.90	0	3.2060	0	34.3440	0	27.349	0	937.799	0	11.7	4	3.6	4	-1E+10	1	-1E+10	1	-1E+10	1	-1E+10	1	-1E+10	1	-1E+10	1
4902551	101	C	06/01/2023	09:05	-131.185	48.056	0	953.30	0	3.1950	0	34.3470	0	27.352	0	943.130	0	11.7	4	3.6	4	-1E+10	1	-1E+10	1	-1E+10	1	-1E+10	1	-1E+10	1	-1E+10	1
4902551	101	C	06/01/2023	09:05	-131.185	48.056	0	958.30	0	3.1920	0	34.3470	0	27.352	0	948.065	0	11.6	4	3.6	4	-1E+10	1	-1E+10	1	-1E+10	1	-1E+10	1	-1E+10	1	-1E+10	1
4902551	101	C	06/01/2023	09:05	-131.185	48.056	0	963.30	0	3.1830	0	34.3500	0	27.356	0	953.000	0	11.6	4	3.6	4	-1E+10	1	-1E+10	1	-1E+10	1	-1E+10	1	-1E+10	1	-1E+10	1
4902551	101	C	06/01/2023	09:05	-131.185	48.056	0	968.30	0	3.1690	0	34.3530	0	27.359	0	957.935	0	11.6	4	3.6	4	-1E+10	1	-1E+10	1	-1E+10	1	-1E+10	1	-1E+10	1	-1E+10	1
4902551	101	C	06/01/2023	09:05	-131.185	48.056	0	973.30	0	3.1630	0	34.3540	0	27.361	0	962.870	0	11.6	4	3.6	4	-1E+10	1	-1E+10	1	-1E+10	1	-1E+10	1	-1E+10	1	-1E+10	1
4902551	101	C	06/01/2023	09:05	-131.185	48.056	0	978.30	0	3.1560	0	34.3560	0	27.363	0	967.805	0	11.6	4	3.6	4	-1E+10	1	-1E+10	1	-1E+10	1	-1E+10	1	-1E+10	1	-1E+10	1
4902551	101	C	06/01/2023	09:05	-131.185	48.056	0	983.30	0	3.1510	0	34.3570	0	27.364	0	972.740	0	11.6	4	3.6	4	-1E+10	1	-1E+10	1	-1E+10	1	-1E+10	1	-1E+10	1	-1E+10	1
4902551	101	C	06/01/2023	09:05	-131.185	48.056	0	988.30	0	3.1430	0	34.3590	0	27.367	0	977.675	0	11.6	4	3.6	4	-1E+10	1	-1E+10	1	-1E+10	1	-1E+10	1	-1E+10	1	-1E+10	1
4902551	101	C	06/01/2023	09:05	-131.185	48.056	0	992.90	0	3.1360	0	34.3610	0	27.369	0	982.215	0	11.6	4	3.6	4	-1E+10	1	-1E+10	1	-1E+10	1	-1E+10	1	-1E+10	1	-1E+10	1
4902551	101	C	06/01/2023	09:05	-131.185	48.056	0	997.50	0	3.1270	0	34.3630	0	27.371	0	986.754	0	11.5	4	3.6	4	-1E+10	1	-1E+10	1	-1E+10	1	-1E+10	1	-1E+10	1	-1E+10	1
4902551	101	C	06/01/2023	09:05	-131.185	48.056	0	1005.30	0	3.1220	0	34.3660	0	27.374	0	994.452	0	11.5	4	3.6	4	-1E+10	1	-1E+10	1	-1E+10	1	-1E+10	1	-1E+10	1	-1E+10	1
4902551	101	C	06/01/2023	09:05	-131.185	48.056	0	1015.70	0	3.1100	0	34.3710	0	27.379	0	1004.715	0	11.6	4	3.6	4	-1E+10	1	-1E+10	1	-1E+10	1	-1E+10	1	-1E+10	1	-1E+10	1
4902551	101	C	06/01/2023	09:05	-131.185	48.056	0	1025.60	0	3.0890	0	34.3730	0	27.383	0	1014.483	0	11.6	4	3.6	4	-1E+10	1	-1E+10	1	-1E+10	1	-1E+10	1	-1E+10	1	-1E+10	1
4902551	101	C	06/01/2023	09:05	-131.185	48.056	0	1035.50	0	3.0690	0	34.3770	0	27.388	0	1024.252	0	11.7	4	3.6	4	-1E+10	1	-1E+10	1	-1E+10	1	-1E+10	1	-1E+10	1	-1E+10	1
4902551	101	C	06/01/2023	09:05	-131.185	48.056	0	1045.30	0	3.0460	0	34.3810	0	27.393	0	1033.921	0	11.7	4	3.6	4	-1E+10	1	-1E+10	1	-1E+10	1	-1E+10	1	-1E+10	1	-1E+10	1
4902551	101	C	06/01/2023	09:05	-131.185	48.056	0	1055.60	0	3.0360	0	34.3850	0	27.397	0	1044.084	0	11.8	4	3.6	4	-1E+10	1	-1E+10	1	-1E+10	1	-1E+10	1	-1E+10	1	-1E+10	1
4902551	101	C	06/01/2023	09:05	-131.185	48.056	0	1065.60	0	3.0070	0	34.3900	0	27.404	0	1053.949	0	11.9	4	3.7	4	-1E+10	1	-1E+10	1	-1E+10	1	-1E+10	1	-1E+10	1	-1E+10	1
4902551	101	C	06/01/2023	09:05	-131.185	48.056	0	1075.50	0	2.9840	0	34.3920	0	27.408	0	1063.716	0	12.0	4	3.7	4	-1E+10	1	-1E+10	1	-1E+10	1	-1E+10	1	-1E+10	1	-1E+10	1
4902551	101	C	06/01/2023	09:05	-131.185	48.056	0	1085.50	0	2.9690	0	34.3960	0	27.412	0	1073.581	0	12.1	4	3.7	4	-1E+10	1	-1E+10	1	-1E+10	1	-1E+10	1	-1E+10	1	-1E+10	1
4902551	101	C	06/01/2023	09:05	-131.185	48.056	0	1095.30	0	2.9550	0	34.3980	0	27.415	0	1083.248	0	12.1	4	3.7	4	-1E+10	1	-1E+10	1	-1E+10	1	-1E+10	1	-1E+10	1	-1E+10	1
4902551	101	C	06/01/2023	09:05	-131.185	48.056	0	1105.30	0	2.9460	0	34.4010	0	27.419	0	1093.112	0	12.3	4	3.8	4	-1E+10	1	-1E+10	1	-1E+10	1	-1E+10	1	-1E+10	1	-1E+10	1
4902551	101	C	06/01/2023	09:05	-131.185	48.056	0	1115.70	0	2.9280	0	34.4050	0	27.424	0	1103.370	0	12.4	4	3.8	4	-1E+10	1	-1E+10	1	-1E+10	1	-1E+10	1	-1E+10	1	-1E+10	1
4902551	101	C	06/01/2023	09:05	-131.185	48.056	0	1125.30	0	2.9100	0	34.4070	0	27.427	0	1112.839	0	12.5	4	3.8	4	-1E+10	1	-1E+10	1	-1E+10	1	-1E+10	1	-1E+10	1	-1E+10	1
4902551	101	C	06/01/2023	09:05	-131.185	48.056	0	1135.20	0	2.8930	0	34.4100	0	27.431	0	1122.602	0	12.6	4	3.9	4	-1E+10	1	-1E+10	1	-1E+10	1	-1E+10	1	-1E+10	1	-1E+10	1
4902551	101	C	06/01/2023	09:05	-131.185	48.056	0	1145.20	0	2.8760	0	34.4130	0	27.435	0	1132.465	0	12.7	4	3.9	4	-1E+10	1	-1E+10	1	-1E+10	1	-1E+10	1	-1E+10	1	-1E+10	1
4902551	101	C	06/01/2023	09:05	-131.185	48.056	0	1155.30	0	2.8530	0	34.4170	0	27.440	0	1142.425	0	12.9	4	4.0	4	-1E+10	1	-1E+10	1	-1E+10	1	-1E+10	1	-1E+10	1	-1E+10	1
4902551	101	C	06/01/2023	09:05	-131.185	48.056	0	1165.70	0	2.8340	0	34.4200	0	27.444	0	1152.680	0	13.1	4	4.0	4	-1E+10	1	-1E+10	1	-1E+10	1	-1E+10	1	-1E+10	1	-1E+10	1
4902551	101	C	06/01/2023	09:05	-131.185	48.056	0	1175.60	0	2.8260	0	34.4230	0	27.447	0	1162.442	0	13.2	4	4.1	4	-1E+10	1	-1E+10	1	-1E+10	1	-1E+10	1	-1E+10	1	-1E+10	1
4902551	101	C	06/01/2023	09:05	-131.185	48.056	0	1185.60	0	2.8040	0	34.4260	0	27.452	0	1172.303	0	13.4	4	4.1	4	-1E+10	1	-1E+10	1	-1E+10	1	-1E+10	1	-1E+10	1	-1E+10	1
4902551	101	C	06/01/2023	09:05	-131.185	48.056	0	1195.70	0	2.7930	0	34.4290	0	27.455	0	1182.261	0	13.5	4	4.2	4	-1E+10	1	-1E+10	1	-1E+10	1	-1E+10	1	-1E+10	1	-1E+10	1
4902551	101	C	06/01/2023	09:05	-131.185	48.056	0	1205.40	0	2.7780	0	34.4290	0	27.456	0	1191.825	0	13.7	4	4.2	4	-1E+10	1	-1E+10	1	-1E+10	1	-1E+10	1	-1E+10	1	-1E+10	1
4902551	101	C	06/01/2023	09:05	-131.185	48.056	0	1215.30	0	2.7650	0	34.4340	0	27.462	0	1201.585	0	13.9	4	4.3	4	-1E+10	1	-1E+10	1	-1E+10	1	-1E+10	1	-1E+10	1	-1E+10	1
4902551	101	C	06/01/2023	09:05	-131.185	48.056	0	1225.40	0	2.7570	0	34.4370	0	27.465	0	1211.542	0	14.1	4	4.3	4	-1E+10	1	-1E+10	1	-1E+10	1	-1E+10	1	-1E+10	1	-1E+10	1
4902551	101	C	06/01/2023	09:05	-131.185	48.056	0	1235.40	0	2.7450	0	34.4390	0	27.467	0	1221.400	0	14.2	4	4.4	4	-1E+10	1	-1E+10	1	-1E+10	1	-1E+10	1	-1E+10	1	-1E+10	1
4902551	101	C	06/01/2023	09:05	-131.185	48.056	0	1245.90	0	2.7290	0	34.4410	0	27.471	0	1231.750	0	14.4	4	4.4	4	-1E+10	1	-1E+10	1	-1E+10	1	-1E+10	1	-1E+10	1	-1E+10	1
4902551	101	C	06/01/2023	09:05	-131.185	48.056	0	1255.60	0	2.7130	0	34.4430	0	27.474	0	1241.311	0	14.6	4	4.5	4	-1E+10	1	-1E+10	1	-1E+10	1	-1E+10	1	-1E+10	1	-1E+10	1
4902551	101	C	06/01/2023	09:05	-131.185	48.056	0	1265.50	0	2.6980	0	34.4450	0	27.477	0	1251.069	0	14.8	4	4.5	4	-1E+10	1	-1E+10	1	-1E+10	1	-1E+10	1	-1E+10	1	-1E+10	1
4902551	101	C	06/01/2023	09:05	-131.185	48.056	0	1275.50	0	2.6750	0	34.4480	0	27.481	0	1260.925	0	15.0	4	4.6	4	-1E+10	1	-1E+10	1	-1E+10	1	-1E+10	1	-1E+10	1	-1E+10	1
4902551	101	C	06/01/2023	09:05	-131.185	48.056	0	1285.30	0	2.6630	0	34.4490	0	27.483	0	1270.584	0	15.2	4	4.6	4	-1E+10	1	-1E+10	1	-1E+10	1	-1E+10	1	-1E+10	1	-1E+10	1
4902551	101	C	06/01/2023	09:05	-131.185	48.056	0	1295.40	0	2.6450	0	34.4520	0	27.487	0	1280.537	0	15.4	4	4.7	4	-1E+10	1	-1E+10	1	-1E+10	1	-1E+10	1	-1E+10	1	-1E+10	1
4902551	101	C	06/01/2023	09:05	-131.185	48.056	0	1305.70	0	2.6290	0	34.4530	0	27.489	0	1290.687	0	15.6	4	4.8	4	-1E+10	1	-1E+10	1	-1E+10	1	-1E+10	1	-1E+10	1	-1E+10	1
4902551	101	C	06/01/2023	09:05	-131.185	48.056	0	1315.40	0	2.6200	0	34.4550	0	27.491	0	1300.246	0	15.8	4	4.8	4	-1E+10	1	-1E+10	1	-1E+10	1	-1E+10	1	-1E+10	1	-1E+10	1
4902551	101	C	06/01/2023	09:05	-131.185	48.056	0	1325.30	0	2.6100	0	34.4570	0	27.494	0	1310.001	0	16.0	4	4.9	4	-1E+10	1	-1E+10	1	-1E+10	1	-1E+10	1	-1E+10	1	-1E+10	1
4902551	101	C	06/01/2023	09:05	-131.185	48.056	0	1335.20	0	2.5990	0	34.4590	0	27.497	0	1319.756	0	16.2	4	5.0	4	-1E+10	1	-1E+10	1	-1E+10	1	-1E+10	1	-1E+10	1	-1E+10	1
4902551	101	C	06/01/2023	09:05	-131.185	48.056	0	1345.30	0	2.5870	0	34.4610	0	27.499	0	1329.707	0	16.5	4	5.0	4	-1E+10	1	-1E+10	1	-1E+10	1	-1E+10	1	-1E+10	1	-1E+10	1
4902551	101	C	06/01/2023	09:05	-131.185	48.056	0	1355.50	0	2.5740	0	34.4640	0	27.503	0	1339.757	0	16.8	4	5.1	4	-1E+10	1	-1E+10	1	-1E+10	1	-1E+10	1	-1E+10	1	-1E+10	1
4902551	101	C	06/01/2023	09:05	-131.185	48.056	0	1365.30	0	2.5580	0	34.4660	0	27.506	0	1349.412	0	17.1	4	5.2	4	-1E+10	1	-1E+10	1	-1E+10	1	-1E+10	1	-1E+10	1	-1E+10	1
4902551	101	C	06/01/2023	09:05	-131.185	48.056	0	1375.20	0	2.5490	0	34.4680	0	27.508	0	1359.164	0	17.4	4	5.3	4	-1E+10	1	-1E+10	1	-1E+10	1	-1E+10	1	-1E+10	1	-1E+10	1
4902551	101	C	06/01/2023	09:05	-131.185	48.056	0	1385.30	0	2.5280	0	34.4710	0	27.512	0	1369.114	0	17.9	4	5.5	4	-1E+10	1	-1E+10	1	-1E+10	1	-1E+10	1	-1E+10	1	-1E+10	1
4902551	101	C	06/01/2023	09:05	-131.185	48.056	0	1395.10	0	2.5110	0	34.4750	0	27.517	0	1378.767	0	18.4	4	5.6	4	-1E+10	1	-1E+10	1	-1E+10	1	-1E+10	1	-1E+10	1	-1E+10	1
4902551	101	C	06/01/2023	09:05	-131.185	48.056	0	1405.30	0	2.4930	0	34.4780	0	27.521	0	1388.814	0	18.9	4	5.8	4	-1E+10	1	-1E+10	1	-1E+10	1	-1E+10	1	-1E+10	1	-1E+10	1
4902551	101	C	06/01/2023	09:05	-131.185	48.056	0	1415.60	0	2.4810	0	34.4810	0	27.525	0	1398.959	0	19.4	4	5.9	4	-1E+10	1	-1E+10	1	-1E+10	1	-1E+10	1	-1E+10	1	-1E+10	1
4902551	101	C	06/01/2023	09:05	-131.185	48.056	0	1425.20	0	2.4640	0	34.4840	0	27.528	0	1408.415	0	19.8	4	6.0	4	-1E+10	1	-1E+10	1	-1E+10	1	-1E+10	1	-1E+10	1	-1E+10	1
4902551	101	C	06/01/2023	09:05	-131.185	48.056	0	1435.40	0	2.4480	0	34.4860	0	27.531	0	1418.460	0	20.4	4	6.2	4	-1E+10	1	-1E+10	1	-1E+10	1	-1E+10	1	-1E+10	1	-1E+10	1
4902551	101	C	06/01/2023	09:05	-131.185	48.056	0	1445.70	0	2.4410	0	34.4880	0	27.534	0	1428.604	0	20.8	4	6.3	4	-1E+10	1	-1E+10	1	-1E+10	1	-1E+10	1	-1E+10	1	-1E+10	1
4902551	101	C	06/01/2023	09:05	-131.185	48.056	0	1455.70	0	2.4260	0	34.4910	0	27.537	0	1438.451	0	21.3	4	6.5	4	-1E+10	1	-1E+10	1	-1E+10	1	-1E+10	1	-1E+10	1	-1E+10	1
4902551	101	C	06/01/2023	09:05	-131.185	48.056	0	1465.70	0	2.4160	0	34.4930	0	27.540	0	1448.299	0	21.9	4	6.7	4	-1E+10	1	-1E+10	1	-1E+10	1	-1E+10	1	-1E+10	1	-1E+10	1
4902551	101	C	06/01/2023	09:05	-131.185	48.056	0	1475.80	0	2.4100	0	34.4950	0	27.542	0	1458.244	0	22.5	4	6.9	4	-1E+10	1	-1E+10	1	-1E+10	1	-1E+10	1	-1E+10	1	-1E+10	1
4902551	101	C	06/01/2023	09:05	-131.185	48.056	0	1485.90	0	2.3970	0	34.4970	0	27.545	0	1468.189	0	22.8	4	6.9	4	-1E+10	1	-1E+10	1	-1E+10	1	-1E+10	1	-1E+10	1	-1E+10	1
4902551	101	C	06/01/2023	09:05	-131.185	48.056	0	1495.30	0	2.3870	0	34.4990	0	27.547	0	1477.444	0	23.1	4	7.0	4	-1E+10	1	-1E+10	1	-1E+10	1	-1E+10	1	-1E+10	1	-1E+10	1
4902551	101	C	06/01/2023	09:05	-131.185	48.056	0	1505.30	0	2.3780	0	34.5000	0	27.549	0	1487.289	0	23.4	4	7.1	4	-1E+10	1	-1E+10	1	-1E+10	1	-1E+10	1	-1E+10	1	-1E+10	1
4902551	101	C	06/01/2023	09:05	-131.185	48.056	0	1515.60	0	2.3700	0	34.5020	0	27.551	0	1497.430	0	23.8	4	7.2	4	-1E+10	1	-1E+10	1	-1E+10	1	-1E+10	1	-1E+10	1	-1E+10	1
4902551	101	C	06/01/2023	09:05	-131.185	48.056	0	1525.60	0	2.3590	0	34.5040	0	27.554	0	1507.274	0	24.3	4	7.4	4	-1E+10	1	-1E+10	1	-1E+10	1	-1E+10	1	-1E+10	1	-1E+10	1
4902551	101	C	06/01/2023	09:05	-131.185	48.056	0	1535.70	0	2.3450	0	34.5060	0	27.556	0	1517.217	0	24.9	4	7.6	4	-1E+10	1	-1E+10	1	-1E+10	1	-1E+10	1	-1E+10	1	-1E+10	1
4902551	101	C	06/01/2023	09:05	-131.185	48.056	0	1545.80	0	2.3340	0	34.5080	0	27.559	0	1527.159	0	25.6	4	7.8	4	-1E+10	1	-1E+10	1	-1E+10	1	-1E+10	1	-1E+10	1	-1E+10	1
4902551	101	C	06/01/2023	09:05	-131.185	48.056	0	1555.50	0	2.3190	0	34.5110	0	27.563	0	1536.706	0	26.6	4	8.1	4	-1E+10	1	-1E+10	1	-1E+10	1	-1E+10	1	-1E+10	1	-1E+10	1
4902551	101	C	06/01/2023	09:05	-131.185	48.056	0	1565.30	0	2.3040	0	34.5150	0	27.567	0	1546.352	0	27.5	4	8.3	4	-1E+10	1	-1E+10	1	-1E+10	1	-1E+10	1	-1E+10	1	-1E+10	1
4902551	101	C	06/01/2023	09:05	-131.185	48.056	0	1575.30	0	2.2900	0	34.5170	0	27.570	0	1556.194	0	28.0	4	8.5	4	-1E+10	1	-1E+10	1	-1E+10	1	-1E+10	1	-1E+10	1	-1E+10	1
4902551	101	C	06/01/2023	09:05	-131.185	48.056	0	1585.00	0	2.2790	0	34.5190	0	27.573	0	1565.741	0	28.6	4	8.7	4	-1E+10	1	-1E+10	1	-1E+10	1	-1E+10	1	-1E+10	1	-1E+10	1
4902551	101	C	06/01/2023	09:05	-131.185	48.056	0	1595.00	0	2.2660	0	34.5210	0	27.575	0	1575.582	0	29.3	4	8.9	4	-1E+10	1	-1E+10	1	-1E+10	1	-1E+10	1	-1E+10	1	-1E+10	1
4902551	101	C	06/01/2023	09:05	-131.185	48.056	0	1605.20	0	2.2510	0	34.5240	0	27.579	0	1585.620	0	30.0	4	9.1	4	-1E+10	1	-1E+10	1	-1E+10	1	-1E+10	1	-1E+10	1	-1E+10	1
4902551	101	C	06/01/2023	09:05	-131.185	48.056	0	1615.10	0	2.2410	0	34.5260	0	27.581	0	1595.362	0	30.8	4	9.3	4	-1E+10	1	-1E+10	1	-1E+10	1	-1E+10	1	-1E+10	1	-1E+10	1
4902551	101	C	06/01/2023	09:05	-131.185	48.056	0	1625.40	0	2.2270	0	34.5280	0	27.584	0	1605.497	0	31.5	4	9.6	4	-1E+10	1	-1E+10	1	-1E+10	1	-1E+10	1	-1E+10	1	-1E+10	1
4902551	101	C	06/01/2023	09:05	-131.185	48.056	0	1635.40	0	2.2140	0	34.5300	0	27.587	0	1615.336	0	32.2	4	9.7	4	-1E+10	1	-1E+10	1	-1E+10	1	-1E+10	1	-1E+10	1	-1E+10	1
4902551	101	C	06/01/2023	09:05	-131.185	48.056	0	1645.60	0	2.2050	0	34.5320	0	27.589	0	1625.372	0	32.7	4	9.9	4	-1E+10	1	-1E+10	1	-1E+10	1	-1E+10	1	-1E+10	1	-1E+10	1
4902551	101	C	06/01/2023	09:05	-131.185	48.056	0	1655.50	0	2.1970	0	34.5340	0	27.592	0	1635.112	0	33.1	4	10.0	4	-1E+10	1	-1E+10	1	-1E+10	1	-1E+10	1	-1E+10	1	-1E+10	1
4902551	101	C	06/01/2023	09:05	-131.185	48.056	0	1665.50	0	2.1900	0	34.5350	0	27.593	0	1644.950	0	33.7	4	10.2	4	-1E+10	1	-1E+10	1	-1E+10	1	-1E+10	1	-1E+10	1	-1E+10	1
4902551	101	C	06/01/2023	09:05	-131.185	48.056	0	1675.50	0	2.1820	0	34.5370	0	27.595	0	1654.788	0	34.5	4	10.4	4	-1E+10	1	-1E+10	1	-1E+10	1	-1E+10	1	-1E+10	1	-1E+10	1
4902551	101	C	06/01/2023	09:05	-131.185	48.056	0	1685.50	0	2.1710	0	34.5390	0	27.598	0	1664.625	0	35.2	4	10.7	4	-1E+10	1	-1E+10	1	-1E+10	1	-1E+10	1	-1E+10	1	-1E+10	1
4902551	101	C	06/01/2023	09:05	-131.185	48.056	0	1695.40	0	2.1630	0	34.5410	0	27.600	0	1674.363	0	35.9	4	10.9	4	-1E+10	1	-1E+10	1	-1E+10	1	-1E+10	1	-1E+10	1	-1E+10	1
4902551	101	C	06/01/2023	09:05	-131.185	48.056	0	1705.60	0	2.1540	0	34.5420	0	27.602	0	1684.396	0	36.8	4	11.1	4	-1E+10	1	-1E+10	1	-1E+10	1	-1E+10	1	-1E+10	1	-1E+10	1
4902551	101	C	06/01/2023	09:05	-131.185	48.056	0	1715.40	0	2.1400	0	34.5450	0	27.605	0	1694.035	0	37.6	4	11.4	4	-1E+10	1	-1E+10	1	-1E+10	1	-1E+10	1	-1E+10	1	-1E+10	1
4902551	101	C	06/01/2023	09:05	-131.185	48.056	0	1725.50	0	2.1290	0	34.5470	0	27.608	0	1703.969	0	38.3	4	11.6	4	-1E+10	1	-1E+10	1	-1E+10	1	-1E+10	1	-1E+10	1	-1E+10	1
4902551	101	C	06/01/2023	09:05	-131.185	48.056	0	1735.80	0	2.1200	0	34.5490	0	27.610	0	1714.099	0	38.9	4	11.8	4	-1E+10	1	-1E+10	1	-1E+10	1	-1E+10	1	-1E+10	1	-1E+10	1
4902551	101	C	06/01/2023	09:05	-131.185	48.056	0	1745.70	0	2.1130	0	34.5500	0	27.611	0	1723.835	0	39.4	4	11.9	4	-1E+10	1	-1E+10	1	-1E+10	1	-1E+10	1	-1E+10	1	-1E+10	1
4902551	101	C	06/01/2023	09:05	-131.185	48.056	0	1755.40	0	2.1070	0	34.5510	0	27.613	0	1733.374	0	40.0	4	12.1	4	-1E+10	1	-1E+10	1	-1E+10	1	-1E+10	1	-1E+10	1	-1E+10	1
4902551	101	C	06/01/2023	09:05	-131.185	48.056	0	1765.40	0	2.0990	0	34.5530	0	27.615	0	1743.207	0	40.6	4	12.3	4	-1E+10	1	-1E+10	1	-1E+10	1	-1E+10	1	-1E+10	1	-1E+10	1
4902551	101	C	06/01/2023	09:05	-131.185	48.056	0	1775.60	0	2.0890	0	34.5540	0	27.617	0	1753.237	0	41.3	4	12.5	4	-1E+10	1	-1E+10	1	-1E+10	1	-1E+10	1	-1E+10	1	-1E+10	1
4902551	101	C	06/01/2023	09:05	-131.185	48.056	0	1785.30	0	2.0800	0	34.5560	0	27.619	0	1762.775	0	41.9	4	12.6	4	-1E+10	1	-1E+10	1	-1E+10	1	-1E+10	1	-1E+10	1	-1E+10	1
4902551	101	C	06/01/2023	09:05	-131.185	48.056	0	1795.20	0	2.0750	0	34.5580	0	27.621	0	1772.508	0	42.3	4	12.8	4	-1E+10	1	-1E+10	1	-1E+10	1	-1E+10	1	-1E+10	1	-1E+10	1
4902551	101	C	06/01/2023	09:05	-131.185	48.056	0	1805.00	0	2.0690	0	34.5580	0	27.622	0	1782.143	0	42.8	4	12.9	4	-1E+10	1	-1E+10	1	-1E+10	1	-1E+10	1	-1E+10	1	-1E+10	1
4902551	101	C	06/01/2023	09:05	-131.185	48.056	0	1815.00	0	2.0630	0	34.5600	0	27.624	0	1791.975	0	43.2	4	13.1	4	-1E+10	1	-1E+10	1	-1E+10	1	-1E+10	1	-1E+10	1	-1E+10	1
4902551	101	C	06/01/2023	09:05	-131.185	48.056	0	1825.10	0	2.0560	0	34.5610	0	27.625	0	1801.904	0	43.9	4	13.2	4	-1E+10	1	-1E+10	1	-1E+10	1	-1E+10	1	-1E+10	1	-1E+10	1
4902551	101	C	06/01/2023	09:05	-131.185	48.056	0	1835.40	0	2.0500	0	34.5630	0	27.627	0	1812.029	0	44.4	4	13.4	4	-1E+10	1	-1E+10	1	-1E+10	1	-1E+10	1	-1E+10	1	-1E+10	1
4902551	101	C	06/01/2023	09:05	-131.185	48.056	0	1845.30	0	2.0440	0	34.5640	0	27.629	0	1821.761	0	45.1	4	13.6	4	-1E+10	1	-1E+10	1	-1E+10	1	-1E+10	1	-1E+10	1	-1E+10	1
4902551	101	C	06/01/2023	09:05	-131.185	48.056	0	1855.60	0	2.0340	0	34.5650	0	27.630	0	1831.885	0	45.8	4	13.8	4	-1E+10	1	-1E+10	1	-1E+10	1	-1E+10	1	-1E+10	1	-1E+10	1
4902551	101	C	06/01/2023	09:05	-131.185	48.056	0	1865.40	0	2.0220	0	34.5670	0	27.633	0	1841.517	0	46.5	4	14.0	4	-1E+10	1	-1E+10	1	-1E+10	1	-1E+10	1	-1E+10	1	-1E+10	1
4902551	101	C	06/01/2023	09:05	-131.185	48.056	0	1875.50	0	2.0150	0	34.5690	0	27.635	0	1851.444	0	46.9	4	14.1	4	-1E+10	1	-1E+10	1	-1E+10	1	-1E+10	1	-1E+10	1	-1E+10	1
4902551	101	C	06/01/2023	09:05	-131.185	48.056	0	1885.70	0	2.0120	0	34.5700	0	27.636	0	1861.468	0	47.3	4	14.3	4	-1E+10	1	-1E+10	1	-1E+10	1	-1E+10	1	-1E+10	1	-1E+10	1
4902551	101	C	06/01/2023	09:05	-131.185	48.056	0	1895.60	0	2.0040	0	34.5710	0	27.638	0	1871.198	0	47.9	4	14.4	4	-1E+10	1	-1E+10	1	-1E+10	1	-1E+10	1	-1E+10	1	-1E+10	1
4902551	101	C	06/01/2023	09:05	-131.185	48.056	0	1905.30	0	1.9980	0	34.5720	0	27.639	0	1880.730	0	48.4	4	14.6	4	-1E+10	1	-1E+10	1	-1E+10	1	-1E+10	1	-1E+10	1	-1E+10	1
4902551	101	C	06/01/2023	09:05	-131.185	48.056	0	1915.20	0	1.9910	0	34.5730	0	27.640	0	1890.458	0	49.0	4	14.8	4	-1E+10	1	-1E+10	1	-1E+10	1	-1E+10	1	-1E+10	1	-1E+10	1
4902551	101	C	06/01/2023	09:05	-131.185	48.056	0	1925.30	0	1.9850	0	34.5750	0	27.643	0	1900.383	0	49.5	4	14.9	4	-1E+10	1	-1E+10	1	-1E+10	1	-1E+10	1	-1E+10	1	-1E+10	1
4902551	101	C	06/01/2023	09:05	-131.185	48.056	0	1935.10	0	1.9800	0	34.5760	0	27.644	0	1910.012	0	49.9	4	15.0	4	-1E+10	1	-1E+10	1	-1E+10	1	-1E+10	1	-1E+10	1	-1E+10	1
4902551	101	C	06/01/2023	09:05	-131.185	48.056	0	1945.40	0	1.9750	0	34.5770	0	27.645	0	1920.132	0	50.4	4	15.2	4	-1E+10	1	-1E+10	1	-1E+10	1	-1E+10	1	-1E+10	1	-1E+10	1
4902551	101	C	06/01/2023	09:05	-131.185	48.056	0	1955.80	0	1.9690	0	34.5780	0	27.646	0	1930.350	0	50.8	4	15.3	4	-1E+10	1	-1E+10	1	-1E+10	1	-1E+10	1	-1E+10	1	-1E+10	1
4902551	101	C	06/01/2023	09:05	-131.185	48.056	0	1965.80	0	1.9650	0	34.5790	0	27.648	0	1940.174	0	50.9	4	15.3	4	-1E+10	1	-1E+10	1	-1E+10	1	-1E+10	1	-1E+10	1	-1E+10	1
4902551	101	C	06/01/2023	09:05	-131.185	48.056	0	1974.10	0	1.9630	0	34.5790	0	27.648	0	1948.328	0	50.8	4	15.3	4	-1E+10	1	-1E+10	1	-1E+10	1	-1E+10	1	-1E+10	1	-1E+10	1
4902551	101	C	06/01/2023	09:05	-131.185	48.056	0																										
4902551	104	C	07/02/2023	00:16	-131.046	47.848	0	0.30	0	14.9210	0	32.3800	0	23.971	0	0.297	0	-1e10	1	-1e10	1	-1E+10	1	-1E+10	1	-1E+10	1	-1E+10	1	-1E+10	1	-1E+10	1
4902551	104	C	07/02/2023	00:16	-131.046	47.848	0	0.40	0	14.9110	0	32.3570	0	23.955	0	0.397	0	246.4	4	97.5	4	-1E+10	1	-1E+10	1	-1E+10	1	-1E+10	1	-1E+10	1	-1E+10	1
4902551	104	C	07/02/2023	00:16	-131.046	47.848	0	1.00	0	14.9110	0	32.3260	0	23.931	0	0.992	0	246.6	4	97.5	4	-1E+10	1	-1E+10	1	-1E+10	1	-1E+10	1	-1E+10	1	-1E+10	1
4902551	104	C	07/02/2023	00:16	-131.046	47.848	0	2.10	0	14.8700	0	32.2920	0	23.914	0	2.082	0	246.6	4	97.4	4	-1E+10	1	-1E+10	1	-1E+10	1	-1E+10	1	-1E+10	1	-1E+10	1
4902551	104	C	07/02/2023	00:16	-131.046	47.848	0	3.00	0	14.8550	0	32.3340	0	23.949	0	2.975	0	247.0	4	97.6	4	-1E+10	1	-1E+10	1	-1E+10	1	-1E+10	1	-1E+10	1	-1E+10	1
4902551	104	C	07/02/2023	00:16	-131.046	47.848	0	4.00	0	14.8310	0	32.3640	0	23.978	0	3.966	0	247.0	4	97.6	4	-1E+10	1	-1E+10	1	-1E+10	1	-1E+10	1	-1E+10	1	-1E+10	1
4902551	104	C	07/02/2023	00:16	-131.046	47.848	0	5.00	0	14.8190	0	32.3810	0	23.993	0	4.958	0	247.0	4	97.5	4	-1E+10	1	-1E+10	1	-1E+10	1	-1E+10	1	-1E+10	1	-1E+10	1
4902551	104	C	07/02/2023	00:16	-131.046	47.848	0	6.00	0	14.8030	0	32.3820	0	23.998	0	5.950	0	247.2	4	97.6	4	-1E+10	1	-1E+10	1	-1E+10	1	-1E+10	1	-1E+10	1	-1E+10	1
4902551	104	C	07/02/2023	00:16	-131.046	47.848	0	7.10	0	14.7370	0	32.3820	0	24.012	0	7.040	0	247.8	4	97.7	4	-1E+10	1	-1E+10	1	-1E+10	1	-1E+10	1	-1E+10	1	-1E+10	1
4902551	104	C	07/02/2023	00:16	-131.046	47.848	0	7.90	0	14.6820	0	32.3790	0	24.021	0	7.834	0	248.2	4	97.8	4	-1E+10	1	-1E+10	1	-1E+10	1	-1E+10	1	-1E+10	1	-1E+10	1
4902551	104	C	07/02/2023	00:16	-131.046	47.848	0	9.00	0	14.5970	0	32.3780	0	24.038	0	8.924	0	249.3	4	98.0	4	-1E+10	1	-1E+10	1	-1E+10	1	-1E+10	1	-1E+10	1	-1E+10	1
4902551	104	C	07/02/2023	00:16	-131.046	47.848	0	10.00	0	14.5270	0	32.3770	0	24.052	0	9.916	0	250.1	4	98.2	4	-1E+10	1	-1E+10	1	-1E+10	1	-1E+10	1	-1E+10	1	-1E+10	1
4902551	104	C	07/02/2023	00:16	-131.046	47.848	0	10.90	0	14.4660	0	32.3740	0	24.063	0	10.808	0	251.3	4	98.6	4	-1E+10	1	-1E+10	1	-1E+10	1	-1E+10	1	-1E+10	1	-1E+10	1
4902551	104	C	07/02/2023	00:16	-131.046	47.848	0	12.00	0	14.2860	0	32.3830	0	24.107	0	11.899	0	254.3	4	99.4	4	-1E+10	1	-1E+10	1	-1E+10	1	-1E+10	1	-1E+10	1	-1E+10	1
4902551	104	C	07/02/2023	00:16	-131.046	47.848	0	13.00	0	13.6610	0	32.3700	0	24.226	0	12.891	0	257.4	4	99.3	4	-1E+10	1	-1E+10	1	-1E+10	1	-1E+10	1	-1E+10	1	-1E+10	1
4902551	104	C	07/02/2023	00:16	-131.046	47.848	0	14.00	0	13.3510	0	32.3730	0	24.290	0	13.882	0	258.1	4	99.0	4	-1E+10	1	-1E+10	1	-1E+10	1	-1E+10	1	-1E+10	1	-1E+10	1
4902551	104	C	07/02/2023	00:16	-131.046	47.848	0	15.10	0	13.2400	0	32.3640	0	24.305	0	14.973	0	258.0	4	98.7	4	-1E+10	1	-1E+10	1	-1E+10	1	-1E+10	1	-1E+10	1	-1E+10	1
4902551	104	C	07/02/2023	00:16	-131.046	47.848	0	16.00	0	13.2160	0	32.3620	0	24.308	0	15.865	0	258.0	4	98.6	4	-1E+10	1	-1E+10	1	-1E+10	1	-1E+10	1	-1E+10	1	-1E+10	1
4902551	104	C	07/02/2023	00:16	-131.046	47.848	0	17.20	0	13.1910	0	32.3620	0	24.313	0	17.055	0	258.1	4	98.6	4	-1E+10	1	-1E+10	1	-1E+10	1	-1E+10	1	-1E+10	1	-1E+10	1
4902551	104	C	07/02/2023	00:16	-131.046	47.848	0	18.00	0	13.1740	0	32.3640	0	24.318	0	17.848	0	258.2	4	98.6	4	-1E+10	1	-1E+10	1	-1E+10	1	-1E+10	1	-1E+10	1	-1E+10	1
4902551	104	C	07/02/2023	00:16	-131.046	47.848	0	19.10	0	13.1390	0	32.3610	0	24.323	0	18.939	0	258.2	4	98.6	4	-1E+10	1	-1E+10	1	-1E+10	1	-1E+10	1	-1E+10	1	-1E+10	1
4902551	104	C	07/02/2023	00:16	-131.046	47.848	0	20.30	0	13.1200	0	32.3600	0	24.326	0	20.129	0	258.0	4	98.5	4	-1E+10	1	-1E+10	1	-1E+10	1	-1E+10	1	-1E+10	1	-1E+10	1
4902551	104	C	07/02/2023	00:16	-131.046	47.848	0	21.00	0	13.0980	0	32.3610	0	24.331	0	20.823	0	257.9	4	98.4	4	-1E+10	1	-1E+10	1	-1E+10	1	-1E+10	1	-1E+10	1	-1E+10	1
4902551	104	C	07/02/2023	00:16	-131.046	47.848	0	22.00	0	13.0660	0	32.3580	0	24.335	0	21.815	0	257.9	4	98.3	4	-1E+10	1	-1E+10	1	-1E+10	1	-1E+10	1	-1E+10	1	-1E+10	1
4902551	104	C	07/02/2023	00:16	-131.046	47.848	0	23.00	0	13.0500	0	32.3580	0	24.338	0	22.806	0	258.0	4	98.3	4	-1E+10	1	-1E+10	1	-1E+10	1	-1E+10	1	-1E+10	1	-1E+10	1
4902551	104	C	07/02/2023	00:16	-131.046	47.848	0	24.10	0	13.0180	0	32.3600	0	24.346	0	23.897	0	258.1	4	98.3	4	-1E+10	1	-1E+10	1	-1E+10	1	-1E+10	1	-1E+10	1	-1E+10	1
4902551	104	C	07/02/2023	00:16	-131.046	47.848	0	25.10	0	12.9970	0	32.3600	0	24.350	0	24.888	0	258.3	4	98.3	4	-1E+10	1	-1E+10	1	-1E+10	1	-1E+10	1	-1E+10	1	-1E+10	1
4902551	104	C	07/02/2023	00:16	-131.046	47.848	0	26.00	0	12.9950	0	32.3590	0	24.350	0	25.781	0	258.5	4	98.4	4	-1E+10	1	-1E+10	1	-1E+10	1	-1E+10	1	-1E+10	1	-1E+10	1
4902551	104	C	07/02/2023	00:16	-131.046	47.848	0	26.70	0	12.9920	0	32.3590	0	24.351	0	26.475	0	258.8	4	98.5	4	-1E+10	1	-1E+10	1	-1E+10	1	-1E+10	1	-1E+10	1	-1E+10	1
4902551	104	C	07/02/2023	00:16	-131.046	47.848	0	27.80	0	12.9870	0	32.3590	0	24.352	0	27.565	0	259.2	4	98.6	4	-1E+10	1	-1E+10	1	-1E+10	1	-1E+10	1	-1E+10	1	-1E+10	1
4902551	104	C	07/02/2023	00:16	-131.046	47.848	0	28.80	0	12.9700	0	32.3590	0	24.355	0	28.557	0	259.8	4	98.8	4	-1E+10	1	-1E+10	1	-1E+10	1	-1E+10	1	-1E+10	1	-1E+10	1
4902551	104	C	07/02/2023	00:16	-131.046	47.848	0	29.80	0	12.9530	0	32.3580	0	24.357	0	29.548	0	260.6	4	99.1	4	-1E+10	1	-1E+10	1	-1E+10	1	-1E+10	1	-1E+10	1	-1E+10	1
4902551	104	C	07/02/2023	00:16	-131.046	47.848	0	30.80	0	12.9340	0	32.3590	0	24.362	0	30.540	0	261.7	4	99.5	4	-1E+10	1	-1E+10	1	-1E+10	1	-1E+10	1	-1E+10	1	-1E+10	1
4902551	104	C	07/02/2023	00:16	-131.046	47.848	0	31.70	0	12.9180	0	32.3570	0	24.364	0	31.432	0	262.9	4	99.9	4	-1E+10	1	-1E+10	1	-1E+10	1	-1E+10	1	-1E+10	1	-1E+10	1
4902551	104	C	07/02/2023	00:16	-131.046	47.848	0	32.70	0	12.7850	0	32.3630	0	24.394	0	32.423	0	264.4	4	100.2	4	-1E+10	1	-1E+10	1	-1E+10	1	-1E+10	1	-1E+10	1	-1E+10	1
4902551	104	C	07/02/2023	00:16	-131.046	47.848	0	33.70	0	12.4900	0	32.3610	0	24.449	0	33.415	0	266.8	4	100.5	4	-1E+10	1	-1E+10	1	-1E+10	1	-1E+10	1	-1E+10	1	-1E+10	1
4902551	104	C	07/02/2023	00:16	-131.046	47.848	0	34.70	0	12.2630	0	32.3580	0	24.490	0	34.406	0	269.0	4	100.9	4	-1E+10	1	-1E+10	1	-1E+10	1	-1E+10	1	-1E+10	1	-1E+10	1
4902551	104	C	07/02/2023	00:16	-131.046	47.848	0	35.90	0	11.7640	0	32.3750	0	24.596	0	35.596	0	271.5	4	100.7	4	-1E+10	1	-1E+10	1	-1E+10	1	-1E+10	1	-1E+10	1	-1E+10	1
4902551	104	C	07/02/2023	00:16	-131.046	47.848	0	37.10	0	11.6430	0	32.3610	0	24.607	0	36.786	0	274.1	4	101.4	4	-1E+10	1	-1E+10	1	-1E+10	1	-1E+10	1	-1E+10	1	-1E+10	1
4902551	104	C	07/02/2023	00:16	-131.046	47.848	0	38.00	0	11.1330	0	32.3490	0	24.690	0	37.678	0	279.3	4	102.2	4	-1E+10	1	-1E+10	1	-1E+10	1	-1E+10	1	-1E+10	1	-1E+10	1
4902551	104	C	07/02/2023	00:16	-131.046	47.848	0	38.80	0	10.6150	0	32.3360	0	24.770	0	38.471	0	282.4	4	102.2	4	-1E+10	1	-1E+10	1	-1E+10	1	-1E+10	1	-1E+10	1	-1E+10	1
4902551	104	C	07/02/2023	00:16	-131.046	47.848	0	40.00	0	10.2670	0	32.3630	0	24.850	0	39.661	0	283.7	4	102.0	4	-1E+10	1	-1E+10	1	-1E+10	1	-1E+10	1	-1E+10	1	-1E+10	1
4902551	104	C	07/02/2023	00:16	-131.046	47.848	0	41.00	0	10.0970	0	32.3740	0	24.887	0	40.652	0	284.5	4	101.9	4	-1E+10	1	-1E+10	1	-1E+10	1	-1E+10	1	-1E+10	1	-1E+10	1
4902551	104	C	07/02/2023	00:16	-131.046	47.848	0	42.20	0	9.8980	0	32.3680	0	24.915	0	41.842	0	285.3	4	101.7	4	-1E+10	1	-1E+10	1	-1E+10	1	-1E+10	1	-1E+10	1	-1E+10	1
4902551	104	C	07/02/2023	00:16	-131.046	47.848	0	43.00	0	9.8040	0	32.3730	0	24.935	0	42.635	0	285.5	4	101.6	4	-1E+10	1	-1E+10	1	-1E+10	1	-1E+10	1	-1E+10	1	-1E+10	1
4902551	104	C	07/02/2023	00:16	-131.046	47.848	0	43.90	0	9.8010	0	32.3760	0	24.938	0	43.528	0	285.5	4	101.6	4	-1E+10	1	-1E+10	1	-1E+10	1	-1E+10	1	-1E+10	1	-1E+10	1
4902551	104	C	07/02/2023	00:16	-131.046	47.848	0	45.00	0	9.7210	0	32.3810	0	24.954	0	44.618	0	285.4	4	101.4	4	-1E+10	1	-1E+10	1	-1E+10	1	-1E+10	1	-1E+10	1	-1E+10	1
4902551	104	C	07/02/2023	00:16	-131.046	47.848	0	46.00	0	9.6330	0	32.3770	0	24.966	0	45.610	0	285.4	4	101.2	4	-1E+10	1	-1E+10	1	-1E+10	1	-1E+10	1	-1E+10	1	-1E+10	1
4902551	104	C	07/02/2023	00:16	-131.046	47.848	0	46.90	0	9.5160	0	32.3690	0	24.978	0	46.502	0	285.2	4	100.9	4	-1E+10	1	-1E+10	1	-1E+10	1	-1E+10	1	-1E+10	1	-1E+10	1
4902551	104	C	07/02/2023	00:16	-131.046	47.848	0	48.00	0	9.2810	0	32.3820	0	25.026	0	47.592	0	285.1	4	100.3	4	-1E+10	1	-1E+10	1	-1E+10	1	-1E+10	1	-1E+10	1	-1E+10	1
4902551	104	C	07/02/2023	00:16	-131.046	47.848	0	49.00	0	9.0320	0	32.3730	0	25.058	0	48.584	0	285.0	4	99.7	4	-1E+10	1	-1E+10	1	-1E+10	1	-1E+10	1	-1E+10	1	-1E+10	1
4902551	104	C	07/02/2023	00:16	-131.046	47.848	0	50.00	0	8.8720	0	32.3670	0	25.078	0	49.575	0	284.6	4	99.2	4	-1E+10	1	-1E+10	1	-1E+10	1	-1E+10	1	-1E+10	1	-1E+10	1
4902551	104	C	07/02/2023	00:16	-131.046	47.848	0	51.00	0	8.8030	0	32.3620	0	25.084	0	50.566	0	283.9	4	98.8	4	-1E+10	1	-1E+10	1	-1E+10	1	-1E+10	1	-1E+10	1	-1E+10	1
4902551	104	C	07/02/2023	00:16	-131.046	47.848	0	52.00	0	8.7010	0	32.3620	0	25.100	0	51.558	0	283.1	4	98.3	4	-1E+10	1	-1E+10	1	-1E+10	1	-1E+10	1	-1E+10	1	-1E+10	1
4902551	104	C	07/02/2023	00:16	-131.046	47.848	0	53.10	0	8.5530	0	32.3590	0	25.120	0	52.648	0	282.7	4	97.8	4	-1E+10	1	-1E+10	1	-1E+10	1	-1E+10	1	-1E+10	1	-1E+10	1
4902551	104	C	07/02/2023	00:16	-131.046	47.848	0	54.10	0	8.4950	0	32.3610	0	25.130	0	53.640	0	282.1	4	97.5	4	-1E+10	1	-1E+10	1	-1E+10	1	-1E+10	1	-1E+10	1	-1E+10	1
4902551	104	C	07/02/2023	00:16	-131.046	47.848	0	55.00	0	8.4020	0	32.3780	0	25.157	0	54.532	0	281.7	4	97.2	4	-1E+10	1	-1E+10	1	-1E+10	1	-1E+10	1	-1E+10	1	-1E+10	1
4902551	104	C	07/02/2023	00:16	-131.046	47.848	0	55.70	0	8.3600	0	32.3670	0	25.155	0	55.226	0	281.4	4	97.0	4	-1E+10	1	-1E+10	1	-1E+10	1	-1E+10	1	-1E+10	1	-1E+10	1
4902551	104	C	07/02/2023	00:16	-131.046	47.848	0	56.80	0	8.3210	0	32.3650	0	25.159	0	56.316	0	280.9	4	96.7	4	-1E+10	1	-1E+10	1	-1E+10	1	-1E+10	1	-1E+10	1	-1E+10	1
4902551	104	C	07/02/2023	00:16	-131.046	47.848	0	57.80	0	8.2390	0	32.3600	0	25.167	0	57.308	0	280.5	4	96.4	4	-1E+10	1	-1E+10	1	-1E+10	1	-1E+10	1	-1E+10	1	-1E+10	1
4902551	104	C	07/02/2023	00:16	-131.046	47.848	0	59.10	0	8.1730	0	32.3650	0	25.181	0	58.596	0	279.7	4	96.0	4	-1E+10	1	-1E+10	1	-1E+10	1	-1E+10	1	-1E+10	1	-1E+10	1
4902551	104	C	07/02/2023	00:16	-131.046	47.848	0	60.00	0	8.1570	0	32.3660	0	25.184	0	59.489	0	278.8	4	95.7	4	-1E+10	1	-1E+10	1	-1E+10	1	-1E+10	1	-1E+10	1	-1E+10	1
4902551	104	C	07/02/2023	00:16	-131.046	47.848	0	61.00	0	8.1400	0	32.3650	0	25.186	0	60.480	0	278.0	4	95.4	4	-1E+10	1	-1E+10	1	-1E+10	1	-1E+10	1	-1E+10	1	-1E+10	1
4902551	104	C	07/02/2023	00:16	-131.046	47.848	0	61.90	0	8.1130	0	32.3670	0	25.191	0	61.372	0	277.6	4	95.2	4	-1E+10	1	-1E+10	1	-1E+10	1	-1E+10	1	-1E+10	1	-1E+10	1
4902551	104	C	07/02/2023	00:16	-131.046	47.848	0	63.10	0	8.0610	0	32.3740	0	25.204	0	62.562	0	276.8	4	94.8	4	-1E+10	1	-1E+10	1	-1E+10	1	-1E+10	1	-1E+10	1	-1E+10	1
4902551	104	C	07/02/2023	00:16	-131.046	47.848	0	64.00	0	8.0350	0	32.3740	0	25.208	0	63.454	0	276.3	4	94.6	4	-1E+10	1	-1E+10	1	-1E+10	1	-1E+10	1	-1E+10	1	-1E+10	1
4902551	104	C	07/02/2023	00:16	-131.046	47.848	0	64.90	0	8.0350	0	32.3820	0	25.214	0	64.346	0	275.8	4	94.4	4	-1E+10	1	-1E+10	1	-1E+10	1	-1E+10	1	-1E+10	1	-1E+10	1
4902551	104	C	07/02/2023	00:16	-131.046	47.848	0	65.90	0	8.0150	0	32.3800	0	25.216	0	65.337	0	275.5	4	94.2	4	-1E+10	1	-1E+10	1	-1E+10	1	-1E+10	1	-1E+10	1	-1E+10	1
4902551	104	C	07/02/2023	00:16	-131.046	47.848	0	66.90	0	7.9940	0	32.3800	0	25.219	0	66.329	0	275.1	4	94.1	4	-1E+10	1	-1E+10	1	-1E+10	1	-1E+10	1	-1E+10	1	-1E+10	1
4902551	104	C	07/02/2023	00:16	-131.046	47.848	0	67.90	0	7.9890	0	32.3800	0	25.220	0	67.320	0	274.6	4	93.9	4	-1E+10	1	-1E+10	1	-1E+10	1	-1E+10	1	-1E+10	1	-1E+10	1
4902551	104	C	07/02/2023	00:16	-131.046	47.848	0	69.00	0	7.9890	0	32.3800	0	25.220	0	68.411	0	274.0	4	93.7	4	-1E+10	1	-1E+10	1	-1E+10	1	-1E+10	1	-1E+10	1	-1E+10	1
4902551	104	C	07/02/2023	00:16	-131.046	47.848	0	70.00	0	7.9980	0	32.3820	0	25.220	0	69.402	0	273.1	4	93.4	4	-1E+10	1	-1E+10	1	-1E+10	1	-1E+10	1	-1E+10	1	-1E+10	1
4902551	104	C	07/02/2023	00:16	-131.046	47.848	0	71.20	0	8.0030	0	32.3900	0	25.225	0	70.591	0	272.1	4	93.0	4	-1E+10	1	-1E+10	1	-1E+10	1	-1E+10	1	-1E+10	1	-1E+10	1
4902551	104	C	07/02/2023	00:16	-131.046	47.848	0	71.90	0	8.0030	0	32.3950	0	25.229	0	71.285	0	271.3	4	92.8	4	-1E+10	1	-1E+10	1	-1E+10	1	-1E+10	1	-1E+10	1	-1E+10	1
4902551	104	C	07/02/2023	00:16	-131.046	47.848	0	73.10	0	8.0030	0	32.3960	0	25.230	0	72.475	0	270.0	4	92.3	4	-1E+10	1	-1E+10	1	-1E+10	1	-1E+10	1	-1E+10	1	-1E+10	1
4902551	104	C	07/02/2023	00:16	-131.046	47.848	0	73.90	0	8.0020	0	32.4000	0	25.233	0	73.268	0	269.2	4	92.1	4	-1E+10	1	-1E+10	1	-1E+10	1	-1E+10	1	-1E+10	1	-1E+10	1
4902551	104	C	07/02/2023	00:16	-131.046	47.848	0	75.10	0	7.9860	0	32.4050	0	25.240	0	74.457	0	268.4	4	91.8	4	-1E+10	1	-1E+10	1	-1E+10	1	-1E+10	1	-1E+10	1	-1E+10	1
4902551	104	C	07/02/2023	00:16	-131.046	47.848	0	75.90	0	7.9780	0	32.4060	0	25.242	0	75.250	0	267.6	4	91.5	4	-1E+10	1	-1E+10	1	-1E+10	1	-1E+10	1	-1E+10	1	-1E+10	1
4902551	104	C	07/02/2023	00:16	-131.046	47.848	0	77.00	0	7.9700	0	32.4100	0	25.246	0	76.341	0	266.2	4	91.0	4	-1E+10	1	-1E+10	1	-1E+10	1	-1E+10	1	-1E+10	1	-1E+10	1
4902551	104	C	07/02/2023	00:16	-131.046	47.848	0	78.10	0	7.9480	0	32.4090	0	25.248	0	77.431	0	264.8	4	90.5	4	-1E+10	1	-1E+10	1	-1E+10	1	-1E+10	1	-1E+10	1	-1E+10	1
4902551	104	C	07/02/2023	00:16	-131.046	47.848	0	78.80	0	7.9180	0	32.4080	0	25.252	0	78.125	0	263.8	4	90.0	4	-1E+10	1	-1E+10	1	-1E+10	1	-1E+10	1	-1E+10	1	-1E+10	1
4902551	104	C	07/02/2023	00:16	-131.046	47.848	0	80.10	0	7.8730	0	32.4180	0	25.266	0	79.414	0	261.5	4	89.2	4	-1E+10	1	-1E+10	1	-1E+10	1	-1E+10	1	-1E+10	1	-1E+10	1
4902551	104	C	07/02/2023	00:16	-131.046	47.848	0	81.00	0	7.8680	0	32.4260	0	25.273	0	80.306	0	260.0	4	88.7	4	-1E+10	1	-1E+10	1	-1E+10	1	-1E+10	1	-1E+10	1	-1E+10	1
4902551	104	C	07/02/2023	00:16	-131.046	47.848	0	82.10	0	7.8520	0	32.4280	0	25.277	0	81.396	0	258.1	4	88.0	4	-1E+10	1	-1E+10	1	-1E+10	1	-1E+10	1	-1E+10	1	-1E+10	1
4902551	104	C	07/02/2023	00:16	-131.046	47.848	0	82.90	0	7.8130	0	32.4280	0	25.283	0	82.189	0	262.9	4	89.6	4	-1E+10	1	-1E+10	1	-1E+10	1	-1E+10	1	-1E+10	1	-1E+10	1
4902551	104	C	07/02/2023	00:16	-131.046	47.848	0	84.10	0	7.7770	0	32.4480	0	25.303	0	83.378	0	259.3	4	88.3	4	-1E+10	1	-1E+10	1	-1E+10	1	-1E+10	1	-1E+10	1	-1E+10	1
4902551	104	C	07/02/2023	00:16	-131.046	47.848	0	85.10	0	7.7690	0	32.4650	0	25.318	0	84.370	0	254.9	4	86.8	4	-1E+10	1	-1E+10	1	-1E+10	1	-1E+10	1	-1E+10	1	-1E+10	1
4902551	104	C	07/02/2023	00:16	-131.046	47.848	0	85.80	0	7.7610	0	32.4820	0	25.332	0	85.064	0	252.4	4	85.9	4	-1E+10	1	-1E+10	1	-1E+10	1	-1E+10	1	-1E+10	1	-1E+10	1
4902551	104	C	07/02/2023	00:16	-131.046	47.848	0	87.00	0	7.7460	0	32.5060	0	25.353	0	86.253	0	249.9	4	85.0	4	-1E+10	1	-1E+10	1	-1E+10	1	-1E+10	1	-1E+10	1	-1E+10	1
4902551	104	C	07/02/2023	00:16	-131.046	47.848	0	88.00	0	7.7390	0	32.5130	0	25.360	0	87.244	0	247.6	4	84.3	4	-1E+10	1	-1E+10	1	-1E+10	1	-1E+10	1	-1E+10	1	-1E+10	1
4902551	104	C	07/02/2023	00:16	-131.046	47.848	0	89.00	0	7.7140	0	32.5380	0	25.383	0	88.235	0	245.8	4	83.6	4	-1E+10	1	-1E+10	1	-1E+10	1	-1E+10	1	-1E+10	1	-1E+10	1
4902551	104	C	07/02/2023	00:16	-131.046	47.848	0	90.00	0	7.6760	0	32.5700	0	25.414	0	89.227	0	243.8	4	82.9	4	-1E+10	1	-1E+10	1	-1E+10	1	-1E+10	1	-1E+10	1	-1E+10	1
4902551	104	C	07/02/2023	00:16	-131.046	47.848	0	90.90	0	7.6600	0	32.5930	0	25.434	0	90.119	0	242.2	4	82.3	4	-1E+10	1	-1E+10	1	-1E+10	1	-1E+10	1	-1E+10	1	-1E+10	1
4902551	104	C	07/02/2023	00:16	-131.046	47.848	0	92.10	0	7.6400	0	32.6200	0	25.458	0	91.308	0	239.4	4	81.3	4	-1E+10	1	-1E+10	1	-1E+10	1	-1E+10	1	-1E+10	1	-1E+10	1
4902551	104	C	07/02/2023	00:16	-131.046	47.848	0	93.10	0	7.5780	0	32.6470	0	25.488	0	92.299	0	237.6	4	80.6	4	-1E+10	1	-1E+10	1	-1E+10	1	-1E+10	1	-1E+10	1	-1E+10	1
4902551	104	C	07/02/2023	00:16	-131.046	47.848	0	94.10	0	7.4440	0	32.6830	0	25.535	0	93.290	0	236.7	4	80.1	4	-1E+10	1	-1E+10	1	-1E+10	1	-1E+10	1	-1E+10	1	-1E+10	1
4902551	104	C	07/02/2023	00:16	-131.046	47.848	0	95.00	0	7.3570	0	32.7000	0	25.560	0	94.182	0	235.2	4	79.4	4	-1E+10	1	-1E+10	1	-1E+10	1	-1E+10	1	-1E+10	1	-1E+10	1
4902551	104	C	07/02/2023	00:16	-131.046	47.848	0	96.10	0	7.2770	0	32.7190	0	25.586	0	95.273	0	233.2	4	78.7	4	-1E+10	1	-1E+10	1	-1E+10	1	-1E+10	1	-1E+10	1	-1E+10	1
4902551	104	C	07/02/2023	00:16	-131.046	47.848	0	96.90	0	7.2370	0	32.7320	0	25.602	0	96.066	0	231.5	4	78.0	4	-1E+10	1	-1E+10	1	-1E+10	1	-1E+10	1	-1E+10	1	-1E+10	1
4902551	104	C	07/02/2023	00:16	-131.046	47.848	0	98.10	0	7.1610	0	32.7700	0	25.642	0	97.255	0	227.8	4	76.7	4	-1E+10	1	-1E+10	1	-1E+10	1	-1E+10	1	-1E+10	1	-1E+10	1
4902551	104	C	07/02/2023	00:16	-131.046	47.848	0	99.00	0	7.1340	0	32.8160	0	25.682	0	98.147	0	226.4	4	76.1	4	-1E+10	1	-1E+10	1	-1E+10	1	-1E+10	1	-1E+10	1	-1E+10	1
4902551	104	C	07/02/2023	00:16	-131.046	47.848	0	99.90	0	7.1070	0	32.8420	0	25.706	0	99.039	0	225.2	4	75.7	4	-1E+10	1	-1E+10	1	-1E+10	1	-1E+10	1	-1E+10	1	-1E+10	1
4902551	104	C	07/02/2023	00:16	-131.046	47.848	0	101.10	0	7.0710	0	32.8740	0	25.736	0	100.228	0	223.2	4	75.0	4	-1E+10	1	-1E+10	1	-1E+10	1	-1E+10	1	-1E+10	1	-1E+10	1
4902551	104	C	07/02/2023	00:16	-131.046	47.848	0	101.90	0	7.0610	0	32.8830	0	25.745	0	101.021	0	221.7	4	74.5	4	-1E+10	1	-1E+10	1	-1E+10	1	-1E+10	1	-1E+10	1	-1E+10	1
4902551	104	C	07/02/2023	00:16	-131.046	47.848	0	103.00	0	6.9830	0	32.9050	0	25.772	0	102.112	0	219.5	4	73.6	4	-1E+10	1	-1E+10	1	-1E+10	1	-1E+10	1	-1E+10	1	-1E+10	1
4902551	104	C	07/02/2023	00:16	-131.046	47.848	0	104.00	0	6.8920	0	32.9560	0	25.825	0	103.103	0	216.5	4	72.5	4	-1E+10	1	-1E+10	1	-1E+10	1	-1E+10	1	-1E+10	1	-1E+10	1
4902551	104	C	07/02/2023	00:16	-131.046	47.848	0	105.00	0	6.8580	0	33.0090	0	25.871	0	104.094	0	210.7	4	70.5	4	-1E+10	1	-1E+10	1	-1E+10	1	-1E+10	1	-1E+10	1	-1E+10	1
4902551	104	C	07/02/2023	00:16	-131.046	47.848	0	105.90	0	6.8560	0	33.0540	0	25.907	0	104.986	0	207.9	4	69.6	4	-1E+10	1	-1E+10	1	-1E+10	1	-1E+10	1	-1E+10	1	-1E+10	1
4902551	104	C	07/02/2023	00:16	-131.046	47.848	0	106.80	0	6.8450	0	33.1040	0	25.948	0	105.878	0	206.1	4	69.0	4	-1E+10	1	-1E+10	1	-1E+10	1	-1E+10	1	-1E+10	1	-1E+10	1
4902551	104	C	07/02/2023	00:16	-131.046	47.848	0	107.70	0	6.7480	0	33.1510	0	25.998	0	106.770	0	204.2	4	68.2	4	-1E+10	1	-1E+10	1	-1E+10	1	-1E+10	1	-1E+10	1	-1E+10	1
4902551	104	C	07/02/2023	00:16	-131.046	47.848	0	108.70	0	6.7300	0	33.1620	0	26.009	0	107.761	0	201.9	4	67.5	4	-1E+10	1	-1E+10	1	-1E+10	1	-1E+10	1	-1E+10	1	-1E+10	1
4902551	104	C	07/02/2023	00:16	-131.046	47.848	0	109.90	0	6.7240	0	33.1830	0	26.026	0	108.950	0	199.1	4	66.5	4	-1E+10	1	-1E+10	1	-1E+10	1	-1E+10	1	-1E+10	1	-1E+10	1
4902551	104	C	07/02/2023	00:16	-131.046	47.848	0	111.10	0	6.7730	0	33.2410	0	26.065	0	110.140	0	195.4	4	65.4	4	-1E+10	1	-1E+10	1	-1E+10	1	-1E+10	1	-1E+10	1	-1E+10	1
4902551	104	C	07/02/2023	00:16	-131.046	47.848	0	112.00	0	6.8520	0	33.3040	0	26.104	0	111.032	0	193.8	4	65.0	4	-1E+10	1	-1E+10	1	-1E+10	1	-1E+10	1	-1E+10	1	-1E+10	1
4902551	104	C	07/02/2023	00:16	-131.046	47.848	0	113.00	0	6.8390	0	33.3130	0	26.113	0	112.023	0	192.1	4	64.4	4	-1E+10	1	-1E+10	1	-1E+10	1	-1E+10	1	-1E+10	1	-1E+10	1
4902551	104	C	07/02/2023	00:16	-131.046	47.848	0	114.00	0	6.8290	0	33.3170	0	26.118	0	113.014	0	190.2	4	63.8	4	-1E+10	1	-1E+10	1	-1E+10	1	-1E+10	1	-1E+10	1	-1E+10	1
4902551	104	C	07/02/2023	00:16	-131.046	47.848	0	115.00	0	6.8440	0	33.3350	0	26.130	0	114.005	0	188.6	4	63.3	4	-1E+10	1	-1E+10	1	-1E+10	1	-1E+10	1	-1E+10	1	-1E+10	1
4902551	104	C	07/02/2023	00:16	-131.046	47.848	0	116.00	0	6.8540	0	33.3470	0	26.138	0	114.996	0	186.9	4	62.7	4	-1E+10	1	-1E+10	1	-1E+10	1	-1E+10	1	-1E+10	1	-1E+10	1
4902551	104	C	07/02/2023	00:16	-131.046	47.848	0	117.00	0	6.8420	0	33.3630	0	26.152	0	115.987	0	184.8	4	62.0	4	-1E+10	1	-1E+10	1	-1E+10	1	-1E+10	1	-1E+10	1	-1E+10	1
4902551	104	C	07/02/2023	00:16	-131.046	47.848	0	118.10	0	6.8340	0	33.3680	0	26.157	0	117.077	0	182.6	4	61.3	4	-1E+10	1	-1E+10	1	-1E+10	1	-1E+10	1	-1E+10	1	-1E+10	1
4902551	104	C	07/02/2023	00:16	-131.046	47.848	0	118.80	0	6.8390	0	33.3790	0	26.165	0	117.771	0	181.0	4	60.7	4	-1E+10	1	-1E+10	1	-1E+10	1	-1E+10	1	-1E+10	1	-1E+10	1
4902551	104	C	07/02/2023	00:16	-131.046	47.848	0	119.80	0	6.8420	0	33.3870	0	26.171	0	118.762	0	178.6	4	59.9	4	-1E+10	1	-1E+10	1	-1E+10	1	-1E+10	1	-1E+10	1	-1E+10	1
4902551	104	C	07/02/2023	00:16	-131.046	47.848	0	120.90	0	6.8960	0	33.4200	0	26.190	0	119.852	0	176.2	4	59.2	4	-1E+10	1	-1E+10	1	-1E+10	1	-1E+10	1	-1E+10	1	-1E+10	1
4902551	104	C	07/02/2023	00:16	-131.046	47.848	0	122.00	0	6.9300	0	33.4330	0	26.196	0	120.942	0	173.9	4	58.5	4	-1E+10	1	-1E+10	1	-1E+10	1	-1E+10	1	-1E+10	1	-1E+10	1
4902551	104	C	07/02/2023	00:16	-131.046	47.848	0	123.00	0	6.9400	0	33.4370	0	26.197	0	121.933	0	171.3	4	57.6	4	-1E+10	1	-1E+10	1	-1E+10	1	-1E+10	1	-1E+10	1	-1E+10	1
4902551	104	C	07/02/2023	00:16	-131.046	47.848	0	124.00	0	6.9640	0	33.4700	0	26.220	0	122.924	0	168.5	4	56.7	4	-1E+10	1	-1E+10	1	-1E+10	1	-1E+10	1	-1E+10	1	-1E+10	1
4902551	104	C	07/02/2023	00:16	-131.046	47.848	0	125.00	0	6.9680	0	33.4740	0	26.223	0	123.915	0	165.5	4	55.7	4	-1E+10	1	-1E+10	1	-1E+10	1	-1E+10	1	-1E+10	1	-1E+10	1
4902551	104	C	07/02/2023	00:16	-131.046	47.848	0	126.00	0	6.9920	0	33.4810	0	26.225	0	124.906	0	161.4	4	54.4	4	-1E+10	1	-1E+10	1	-1E+10	1	-1E+10	1	-1E+10	1	-1E+10	1
4902551	104	C	07/02/2023	00:16	-131.046	47.848	0	127.00	0	7.0930	0	33.4900	0	26.218	0	125.897	0	157.6	4	53.2	4	-1E+10	1	-1E+10	1	-1E+10	1	-1E+10	1	-1E+10	1	-1E+10	1
4902551	104	C	07/02/2023	00:16	-131.046	47.848	0	127.90	0	7.1210	0	33.5140	0	26.234	0	126.789	0	154.1	4	52.1	4	-1E+10	1	-1E+10	1	-1E+10	1	-1E+10	1	-1E+10	1	-1E+10	1
4902551	104	C	07/02/2023	00:16	-131.046	47.848	0	128.90	0	7.1450	0	33.5380	0	26.249	0	127.780	0	150.5	4	50.9	4	-1E+10	1	-1E+10	1	-1E+10	1	-1E+10	1	-1E+10	1	-1E+10	1
4902551	104	C	07/02/2023	00:16	-131.046	47.848	0	129.90	0	7.2820	0	33.5720	0	26.257	0	128.771	0	148.7	4	50.5	4	-1E+10	1	-1E+10	1	-1E+10	1	-1E+10	1	-1E+10	1	-1E+10	1
4902551	104	C	07/02/2023	00:16	-131.046	47.848	0	131.00	0	7.2790	0	33.6020	0	26.281	0	129.861	0	148.2	4	50.3	4	-1E+10	1	-1E+10	1	-1E+10	1	-1E+10	1	-1E+10	1	-1E+10	1
4902551	104	C	07/02/2023	00:16	-131.046	47.848	0	131.90	0	7.2550	0	33.6050	0	26.287	0	130.753	0	147.4	4	50.0	4	-1E+10	1	-1E+10	1	-1E+10	1	-1E+10	1	-1E+10	1	-1E+10	1
4902551	104	C	07/02/2023	00:16	-131.046	47.848	0	133.00	0	7.2380	0	33.6040	0	26.288	0	131.843	0	146.5	4	49.7	4	-1E+10	1	-1E+10	1	-1E+10	1	-1E+10	1	-1E+10	1	-1E+10	1
4902551	104	C	07/02/2023	00:16	-131.046	47.848	0	133.90	0	7.2410	0	33.6060	0	26.290	0	132.735	0	145.4	4	49.3	4	-1E+10	1	-1E+10	1	-1E+10	1	-1E+10	1	-1E+10	1	-1E+10	1
4902551	104	C	07/02/2023	00:16	-131.046	47.848	0	134.90	0	7.2390	0	33.6090	0	26.292	0	133.726	0	144.3	4	48.9	4	-1E+10	1	-1E+10	1	-1E+10	1	-1E+10	1	-1E+10	1	-1E+10	1
4902551	104	C	07/02/2023	00:16	-131.046	47.848	0	135.90	0	7.2330	0	33.6180	0	26.300	0	134.717	0	142.8	4	48.4	4	-1E+10	1	-1E+10	1	-1E+10	1	-1E+10	1	-1E+10	1	-1E+10	1
4902551	104	C	07/02/2023	00:16	-131.046	47.848	0	137.00	0	7.1900	0	33.6210	0	26.308	0	135.807	0	141.2	4	47.9	4	-1E+10	1	-1E+10	1	-1E+10	1	-1E+10	1	-1E+10	1	-1E+10	1
4902551	104	C	07/02/2023	00:16	-131.046	47.848	0	138.00	0	7.2600	0	33.6450	0	26.318	0	136.798	0	139.8	4	47.5	4	-1E+10	1	-1E+10	1	-1E+10	1	-1E+10	1	-1E+10	1	-1E+10	1
4902551	104	C	07/02/2023	00:16	-131.046	47.848	0	139.10	0	7.2810	0	33.6510	0	26.319	0	137.888	0	138.8	4	47.1	4	-1E+10	1	-1E+10	1	-1E+10	1	-1E+10	1	-1E+10	1	-1E+10	1
4902551	104	C	07/02/2023	00:16	-131.046	47.848	0	139.80	0	7.2870	0	33.6710	0	26.334	0	138.582	0	138.3	4	47.0	4	-1E+10	1	-1E+10	1	-1E+10	1	-1E+10	1	-1E+10	1	-1E+10	1
4902551	104	C	07/02/2023	00:16	-131.046	47.848	0	140.80	0	7.2570	0	33.6700	0	26.338	0	139.573	0	137.4	4	46.6	4	-1E+10	1	-1E+10	1	-1E+10	1	-1E+10	1	-1E+10	1	-1E+10	1
4902551	104	C	07/02/2023	00:16	-131.046	47.848	0	141.90	0	7.2770	0	33.6870	0	26.348	0	140.663	0	136.8	4	46.4	4	-1E+10	1	-1E+10	1	-1E+10	1	-1E+10	1	-1E+10	1	-1E+10	1
4902551	104	C	07/02/2023	00:16	-131.046	47.848	0	142.90	0	7.2730	0	33.6930	0	26.354	0	141.654	0	136.1	4	46.2	4	-1E+10	1	-1E+10	1	-1E+10	1	-1E+10	1	-1E+10	1	-1E+10	1
4902551	104	C	07/02/2023	00:16	-131.046	47.848	0	144.00	0	7.2500	0	33.7040	0	26.366	0	142.744	0	135.4	4	46.0	4	-1E+10	1	-1E+10	1	-1E+10	1	-1E+10	1	-1E+10	1	-1E+10	1
4902551	104	C	07/02/2023	00:16	-131.046	47.848	0	144.80	0	7.2510	0	33.7170	0	26.376	0	143.537	0	135.0	4	45.8	4	-1E+10	1	-1E+10	1	-1E+10	1	-1E+10	1	-1E+10	1	-1E+10	1
4902551	104	C	07/02/2023	00:16	-131.046	47.848	0	145.90	0	7.1980	0	33.7550	0	26.413	0	144.627	0	134.9	4	45.8	4	-1E+10	1	-1E+10	1	-1E+10	1	-1E+10	1	-1E+10	1	-1E+10	1
4902551	104	C	07/02/2023	00:16	-131.046	47.848	0	147.10	0	7.1650	0	33.7510	0	26.414	0	145.816	0	134.8	4	45.7	4	-1E+10	1	-1E+10	1	-1E+10	1	-1E+10	1	-1E+10	1	-1E+10	1
4902551	104	C	07/02/2023	00:16	-131.046	47.848	0	147.90	0	7.1610	0	33.7500	0	26.414	0	146.608	0	134.5	4	45.6	4	-1E+10	1	-1E+10	1	-1E+10	1	-1E+10	1	-1E+10	1	-1E+10	1
4902551	104	C	07/02/2023	00:16	-131.046	47.848	0	148.70	0	7.1480	0	33.7500	0	26.416	0	147.401	0	134.2	4	45.5	4	-1E+10	1	-1E+10	1	-1E+10	1	-1E+10	1	-1E+10	1	-1E+10	1
4902551	104	C	07/02/2023	00:16	-131.046	47.848	0	149.90	0	7.1340	0	33.7590	0	26.425	0	148.590	0	133.7	4	45.3	4	-1E+10	1	-1E+10	1	-1E+10	1	-1E+10	1	-1E+10	1	-1E+10	1
4902551	104	C	07/02/2023	00:16	-131.046	47.848	0	151.10	0	7.1350	0	33.7640	0	26.429	0	149.779	0	133.3	4	45.1	4	-1E+10	1	-1E+10	1	-1E+10	1	-1E+10	1	-1E+10	1	-1E+10	1
4902551	104	C	07/02/2023	00:16	-131.046	47.848	0	151.90	0	7.1360	0	33.7660	0	26.430	0	150.572	0	133.0	4	45.1	4	-1E+10	1	-1E+10	1	-1E+10	1	-1E+10	1	-1E+10	1	-1E+10	1
4902551	104	C	07/02/2023	00:16	-131.046	47.848	0	152.70	0	7.1380	0	33.7670	0	26.431	0	151.365	0	132.8	4	45.0	4	-1E+10	1	-1E+10	1	-1E+10	1	-1E+10	1	-1E+10	1	-1E+10	1
4902551	104	C	07/02/2023	00:16	-131.046	47.848	0	153.90	0	7.1370	0	33.7680	0	26.432	0	152.554	0	132.4	4	44.9	4	-1E+10	1	-1E+10	1	-1E+10	1	-1E+10	1	-1E+10	1	-1E+10	1
4902551	104	C	07/02/2023	00:16	-131.046	47.848	0	155.20	0	7.1310	0	33.7730	0	26.436	0	153.842	0	132.1	4	44.8	4	-1E+10	1	-1E+10	1	-1E+10	1	-1E+10	1	-1E+10	1	-1E+10	1
4902551	104	C	07/02/2023	00:16	-131.046	47.848	0	156.00	0	7.1070	0	33.7800	0	26.445	0	154.635	0	132.0	4	44.7	4	-1E+10	1	-1E+10	1	-1E+10	1	-1E+10	1	-1E+10	1	-1E+10	1
4902551	104	C	07/02/2023	00:16	-131.046	47.848	0	156.80	0	7.0980	0	33.7810	0	26.447	0	155.427	0	131.8	4	44.6	4	-1E+10	1	-1E+10	1	-1E+10	1	-1E+10	1	-1E+10	1	-1E+10	1
4902551	104	C	07/02/2023	00:16	-131.046	47.848	0	157.70	0	7.0990	0	33.7820	0	26.448	0	156.319	0	131.6	4	44.6	4	-1E+10	1	-1E+10	1	-1E+10	1	-1E+10	1	-1E+10	1	-1E+10	1
4902551	104	C	07/02/2023	00:16	-131.046	47.848	0	158.90	0	7.0910	0	33.7850	0	26.451	0	157.508	0	131.4	4	44.5	4	-1E+10	1	-1E+10	1	-1E+10	1	-1E+10	1	-1E+10	1	-1E+10	1
4902551	104	C	07/02/2023	00:16	-131.046	47.848	0	160.20	0	7.0790	0	33.7900	0	26.457	0	158.796	0	131.2	4	44.4	4	-1E+10	1	-1E+10	1	-1E+10	1	-1E+10	1	-1E+10	1	-1E+10	1
4902551	104	C	07/02/2023	00:16	-131.046	47.848	0	161.00	0	7.0750	0	33.7910	0	26.458	0	159.589	0	131.1	4	44.3	4	-1E+10	1	-1E+10	1	-1E+10	1	-1E+10	1	-1E+10	1	-1E+10	1
4902551	104	C	07/02/2023	00:16	-131.046	47.848	0	161.90	0	7.0670	0	33.7910	0	26.460	0	160.481	0	131.0	4	44.3	4	-1E+10	1	-1E+10	1	-1E+10	1	-1E+10	1	-1E+10	1	-1E+10	1
4902551	104	C	07/02/2023	00:16	-131.046	47.848	0	162.70	0	7.0430	0	33.7940	0	26.465	0	161.273	0	130.9	4	44.3	4	-1E+10	1	-1E+10	1	-1E+10	1	-1E+10	1	-1E+10	1	-1E+10	1
4902551	104	C	07/02/2023	00:16	-131.046	47.848	0	164.00	0	7.0010	0	33.7980	0	26.474	0	162.561	0	130.6	4	44.1	4	-1E+10	1	-1E+10	1	-1E+10	1	-1E+10	1	-1E+10	1	-1E+10	1
4902551	104	C	07/02/2023	00:16	-131.046	47.848	0	165.30	0	6.9920	0	33.7980	0	26.475	0	163.850	0	130.4	4	44.0	4	-1E+10	1	-1E+10	1	-1E+10	1	-1E+10	1	-1E+10	1	-1E+10	1
4902551	104	C	07/02/2023	00:16	-131.046	47.848	0	166.10	0	6.9870	0	33.8010	0	26.478	0	164.642	0	130.2	4	44.0	4	-1E+10	1	-1E+10	1	-1E+10	1	-1E+10	1	-1E+10	1	-1E+10	1
4902551	104	C	07/02/2023	00:16	-131.046	47.848	0	167.00	0	6.9830	0	33.8040	0	26.481	0	165.534	0	130.0	4	43.9	4	-1E+10	1	-1E+10	1	-1E+10	1	-1E+10	1	-1E+10	1	-1E+10	1
4902551	104	C	07/02/2023	00:16	-131.046	47.848	0	167.90	0	6.9730	0	33.8080	0	26.486	0	166.426	0	130.0	4	43.9	4	-1E+10	1	-1E+10	1	-1E+10	1	-1E+10	1	-1E+10	1	-1E+10	1
4902551	104	C	07/02/2023	00:16	-131.046	47.848	0	168.70	0	6.9670	0	33.8060	0	26.485	0	167.218	0	129.9	4	43.9	4	-1E+10	1	-1E+10	1	-1E+10	1	-1E+10	1	-1E+10	1	-1E+10	1
4902551	104	C	07/02/2023	00:16	-131.046	47.848	0	170.00	0	6.9360	0	33.8070	0	26.490	0	168.506	0	129.7	4	43.7	4	-1E+10	1	-1E+10	1	-1E+10	1	-1E+10	1	-1E+10	1	-1E+10	1
4902551	104	C	07/02/2023	00:16	-131.046	47.848	0	171.30	0	6.9040	0	33.8080	0	26.495	0	169.794	0	129.4	4	43.6	4	-1E+10	1	-1E+10	1	-1E+10	1	-1E+10	1	-1E+10	1	-1E+10	1
4902551	104	C	07/02/2023	00:16	-131.046	47.848	0	172.20	0	6.8820	0	33.8120	0	26.501	0	170.686	0	129.1	4	43.5	4	-1E+10	1	-1E+10	1	-1E+10	1	-1E+10	1	-1E+10	1	-1E+10	1
4902551	104	C	07/02/2023	00:16	-131.046	47.848	0	173.10	0	6.8650	0	33.8140	0	26.505	0	171.578	0	128.9	4	43.4	4	-1E+10	1	-1E+10	1	-1E+10	1	-1E+10	1	-1E+10	1	-1E+10	1
4902551	104	C	07/02/2023	00:16	-131.046	47.848	0	174.00	0	6.8480	0	33.8150	0	26.508	0	172.470	0	128.5	4	43.3	4	-1E+10	1	-1E+10	1	-1E+10	1	-1E+10	1	-1E+10	1	-1E+10	1
4902551	104	C	07/02/2023	00:16	-131.046	47.848	0	174.90	0	6.8440	0	33.8120	0	26.506	0	173.361	0	128.2	4	43.1	4	-1E+10	1	-1E+10	1	-1E+10	1	-1E+10	1	-1E+10	1	-1E+10	1
4902551	104	C	07/02/2023	00:16	-131.046	47.848	0	175.80	0	6.8470	0	33.8150	0	26.508	0	174.253	0	127.8	4	43.0	4	-1E+10	1	-1E+10	1	-1E+10	1	-1E+10	1	-1E+10	1	-1E+10	1
4902551	104	C	07/02/2023	00:16	-131.046	47.848	0	176.70	0	6.8540	0	33.8150	0	26.508	0	175.145	0	127.5	4	42.9	4	-1E+10	1	-1E+10	1	-1E+10	1	-1E+10	1	-1E+10	1	-1E+10	1
4902551	104	C	07/02/2023	00:16	-131.046	47.848	0	177.60	0	6.8530	0	33.8180	0	26.510	0	176.036	0	127.4	4	42.9	4	-1E+10	1	-1E+10	1	-1E+10	1	-1E+10	1	-1E+10	1	-1E+10	1
4902551	104	C	07/02/2023	00:16	-131.046	47.848	0	178.90	0	6.8330	0	33.8220	0	26.516	0	177.324	0	127.1	4	42.8	4	-1E+10	1	-1E+10	1	-1E+10	1	-1E+10	1	-1E+10	1	-1E+10	1
4902551	104	C	07/02/2023	00:16	-131.046	47.848	0	180.30	0	6.8040	0	33.8200	0	26.518	0	178.711	0	126.8	4	42.6	4	-1E+10	1	-1E+10	1	-1E+10	1	-1E+10	1	-1E+10	1	-1E+10	1
4902551	104	C	07/02/2023	00:16	-131.046	47.848	0	181.20	0	6.7830	0	33.8200	0	26.521	0	179.603	0	126.4	4	42.5	4	-1E+10	1	-1E+10	1	-1E+10	1	-1E+10	1	-1E+10	1	-1E+10	1
4902551	104	C	07/02/2023	00:16	-131.046	47.848	0	182.10	0	6.7470	0	33.8210	0	26.527	0	180.495	0	126.0	4	42.3	4	-1E+10	1	-1E+10	1	-1E+10	1	-1E+10	1	-1E+10	1	-1E+10	1
4902551	104	C	07/02/2023	00:16	-131.046	47.848	0	183.00	0	6.7290	0	33.8170	0	26.526	0	181.386	0	125.6	4	42.2	4	-1E+10	1	-1E+10	1	-1E+10	1	-1E+10	1	-1E+10	1	-1E+10	1
4902551	104	C	07/02/2023	00:16	-131.046	47.848	0	183.80	0	6.7280	0	33.8160	0	26.525	0	182.179	0	125.1	4	42.0	4	-1E+10	1	-1E+10	1	-1E+10	1	-1E+10	1	-1E+10	1	-1E+10	1
4902551	104	C	07/02/2023	00:16	-131.046	47.848	0	184.70	0	6.7270	0	33.8200	0	26.529	0	183.071	0	124.7	4	41.9	4	-1E+10	1	-1E+10	1	-1E+10	1	-1E+10	1	-1E+10	1	-1E+10	1
4902551	104	C	07/02/2023	00:16	-131.046	47.848	0	185.60	0	6.7400	0	33.8260	0	26.532	0	183.962	0	124.4	4	41.8	4	-1E+10	1	-1E+10	1	-1E+10	1	-1E+10	1	-1E+10	1	-1E+10	1
4902551	104	C	07/02/2023	00:16	-131.046	47.848	0	186.90	0	6.7370	0	33.8340	0	26.538	0	185.250	0	124.2	4	41.7	4	-1E+10	1	-1E+10	1	-1E+10	1	-1E+10	1	-1E+10	1	-1E+10	1
4902551	104	C	07/02/2023	00:16	-131.046	47.848	0	188.40	0	6.6910	0	33.8300	0	26.541	0	186.736	0	124.0	4	41.6	4	-1E+10	1	-1E+10	1	-1E+10	1	-1E+10	1	-1E+10	1	-1E+10	1
4902551	104	C	07/02/2023	00:16	-131.046	47.848	0	189.30	0	6.6660	0	33.8270	0	26.542	0	187.628	0	123.8	4	41.5	4	-1E+10	1	-1E+10	1	-1E+10	1	-1E+10	1	-1E+10	1	-1E+10	1
4902551	104	C	07/02/2023	00:16	-131.046	47.848	0	190.20	0	6.6310	0	33.8240	0	26.544	0	188.520	0	123.5	4	41.4	4	-1E+10	1	-1E+10	1	-1E+10	1	-1E+10	1	-1E+10	1	-1E+10	1
4902551	104	C	07/02/2023	00:16	-131.046	47.848	0	191.10	0	6.5950	0	33.8270	0	26.552	0	189.411	0	122.9	4	41.2	4	-1E+10	1	-1E+10	1	-1E+10	1	-1E+10	1	-1E+10	1	-1E+10	1
4902551	104	C	07/02/2023	00:16	-131.046	47.848	0	192.00	0	6.5440	0	33.8220	0	26.554	0	190.303	0	122.4	4	40.9	4	-1E+10	1	-1E+10	1	-1E+10	1	-1E+10	1	-1E+10	1	-1E+10	1
4902551	104	C	07/02/2023	00:16	-131.046	47.848	0	193.00	0	6.5260	0	33.8180	0	26.554	0	191.294	0	121.7	4	40.7	4	-1E+10	1	-1E+10	1	-1E+10	1	-1E+10	1	-1E+10	1	-1E+10	1
4902551	104	C	07/02/2023	00:16	-131.046	47.848	0	193.90	0	6.5250	0	33.8190	0	26.555	0	192.185	0	121.0	4	40.4	4	-1E+10	1	-1E+10	1	-1E+10	1	-1E+10	1	-1E+10	1	-1E+10	1
4902551	104	C	07/02/2023	00:16	-131.046	47.848	0	194.80	0	6.5220	0	33.8220	0	26.557	0	193.077	0	120.1	4	40.1	4	-1E+10	1	-1E+10	1	-1E+10	1	-1E+10	1	-1E+10	1	-1E+10	1
4902551	104	C	07/02/2023	00:16	-131.046	47.848	0	195.70	0	6.5170	0	33.8210	0	26.557	0	193.969	0	119.3	4	39.9	4	-1E+10	1	-1E+10	1	-1E+10	1	-1E+10	1	-1E+10	1	-1E+10	1
4902551	104	C	07/02/2023	00:16	-131.046	47.848	0	196.60	0	6.5130	0	33.8230	0	26.559	0	194.860	0	118.5	4	39.6	4	-1E+10	1	-1E+10	1	-1E+10	1	-1E+10	1	-1E+10	1	-1E+10	1
4902551	104	C	07/02/2023	00:16	-131.046	47.848	0	197.90	0	6.5260	0	33.8310	0	26.564	0	196.148	0	117.3	4	39.2	4	-1E+10	1	-1E+10	1	-1E+10	1	-1E+10	1	-1E+10	1	-1E+10	1
4902551	104	C	07/02/2023	00:16	-131.046	47.848	0	199.40	0	6.5430	0	33.8360	0	26.566	0	197.634	0	116.1	4	38.8	4	-1E+10	1	-1E+10	1	-1E+10	1	-1E+10	1	-1E+10	1	-1E+10	1
4902551	104	C	07/02/2023	00:16	-131.046	47.848	0	200.30	0	6.5340	0	33.8480	0	26.576	0	198.526	0	115.3	4	38.6	4	-1E+10	1	-1E+10	1	-1E+10	1	-1E+10	1	-1E+10	1	-1E+10	1
4902551	104	C	07/02/2023	00:16	-131.046	47.848	0	201.20	0	6.5200	0	33.8510	0	26.581	0	199.417	0	114.7	4	38.3	4	-1E+10	1	-1E+10	1	-1E+10	1	-1E+10	1	-1E+10	1	-1E+10	1
4902551	104	C	07/02/2023	00:16	-131.046	47.848	0	202.10	0	6.4940	0	33.8500	0	26.583	0	200.309	0	114.1	4	38.1	4	-1E+10	1	-1E+10	1	-1E+10	1	-1E+10	1	-1E+10	1	-1E+10	1
4902551	104	C	07/02/2023	00:16	-131.046	47.848	0	203.10	0	6.4970	0	33.8540	0	26.586	0	201.299	0	113.5	4	37.9	4	-1E+10	1	-1E+10	1	-1E+10	1	-1E+10	1	-1E+10	1	-1E+10	1
4902551	104	C	07/02/2023	00:16	-131.046	47.848	0	204.00	0	6.4820	0	33.8540	0	26.588	0	202.191	0	112.9	4	37.7	4	-1E+10	1	-1E+10	1	-1E+10	1	-1E+10	1	-1E+10	1	-1E+10	1
4902551	104	C	07/02/2023	00:16	-131.046	47.848	0	205.00	0	6.4720	0	33.8580	0	26.592	0	203.182	0	112.4	4	37.5	4	-1E+10	1	-1E+10	1	-1E+10	1	-1E+10	1	-1E+10	1	-1E+10	1
4902551	104	C	07/02/2023	00:16	-131.046	47.848	0	205.90	0	6.4580	0	33.8600	0	26.596	0	204.073	0	111.9	4	37.4	4	-1E+10	1	-1E+10	1	-1E+10	1	-1E+10	1	-1E+10	1	-1E+10	1
4902551	104	C	07/02/2023	00:16	-131.046	47.848	0	206.90	0	6.4510	0	33.8590	0	26.596	0	205.064	0	111.4	4	37.2	4	-1E+10	1	-1E+10	1	-1E+10	1	-1E+10	1	-1E+10	1	-1E+10	1
4902551	104	C	07/02/2023	00:16	-131.046	47.848	0	207.80	0	6.4430	0	33.8620	0	26.599	0	205.955	0	111.0	4	37.0	4	-1E+10	1	-1E+10	1	-1E+10	1	-1E+10	1	-1E+10	1	-1E+10	1
4902551	104	C	07/02/2023	00:16	-131.046	47.848	0	208.70	0	6.4190	0	33.8620	0	26.602	0	206.847	0	110.6	4	36.9	4	-1E+10	1	-1E+10	1	-1E+10	1	-1E+10	1	-1E+10	1	-1E+10	1
4902551	104	C	07/02/2023	00:16	-131.046	47.848	0	209.70	0	6.4120	0	33.8630	0	26.604	0	207.838	0	110.2	4	36.7	4	-1E+10	1	-1E+10	1	-1E+10	1	-1E+10	1	-1E+10	1	-1E+10	1
4902551	104	C	07/02/2023	00:16	-131.046	47.848	0	210.60	0	6.4030	0	33.8650	0	26.607	0	208.729	0	109.8	4	36.6	4	-1E+10	1	-1E+10	1	-1E+10	1	-1E+10	1	-1E+10	1	-1E+10	1
4902551	104	C	07/02/2023	00:16	-131.046	47.848	0	211.60	0	6.4030	0	33.8660	0	26.608	0	209.720	0	109.4	4	36.5	4	-1E+10	1	-1E+10	1	-1E+10	1	-1E+10	1	-1E+10	1	-1E+10	1
4902551	104	C	07/02/2023	00:16	-131.046	47.848	0	212.50	0	6.4000	0	33.8660	0	26.608	0	210.611	0	109.1	4	36.4	4	-1E+10	1	-1E+10	1	-1E+10	1	-1E+10	1	-1E+10	1	-1E+10	1
4902551	104	C	07/02/2023	00:16	-131.046	47.848	0	213.90	0	6.3880	0	33.8670	0	26.610	0	211.998	0	108.6	4	36.2	4	-1E+10	1	-1E+10	1	-1E+10	1	-1E+10	1	-1E+10	1	-1E+10	1
4902551	104	C	07/02/2023	00:16	-131.046	47.848	0	215.40	0	6.3660	0	33.8700	0	26.616	0	213.484	0	108.1	4	36.0	4	-1E+10	1	-1E+10	1	-1E+10	1	-1E+10	1	-1E+10	1	-1E+10	1
4902551	104	C	07/02/2023	00:16	-131.046	47.848	0	216.40	0	6.3360	0	33.8720	0	26.621	0	214.475	0	107.8	4	35.9	4	-1E+10	1	-1E+10	1	-1E+10	1	-1E+10	1	-1E+10	1	-1E+10	1
4902551	104	C	07/02/2023	00:16	-131.046	47.848	0	217.30	0	6.3230	0	33.8700	0	26.621	0	215.366	0	107.5	4	35.8	4	-1E+10	1	-1E+10	1	-1E+10	1	-1E+10	1	-1E+10	1	-1E+10	1
4902551	104	C	07/02/2023	00:16	-131.046	47.848	0	218.30	0	6.2920	0	33.8730	0	26.628	0	216.357	0	107.3	4	35.7	4	-1E+10	1	-1E+10	1	-1E+10	1	-1E+10	1	-1E+10	1	-1E+10	1
4902551	104	C	07/02/2023	00:16	-131.046	47.848	0	219.30	0	6.2790	0	33.8730	0	26.629	0	217.347	0	107.0	4	35.6	4	-1E+10	1	-1E+10	1	-1E+10	1	-1E+10	1	-1E+10	1	-1E+10	1
4902551	104	C	07/02/2023	00:16	-131.046	47.848	0	220.20	0	6.2670	0	33.8730	0	26.631	0	218.239	0	106.7	4	35.5	4	-1E+10	1	-1E+10	1	-1E+10	1	-1E+10	1	-1E+10	1	-1E+10	1
4902551	104	C	07/02/2023	00:16	-131.046	47.848	0	221.20	0	6.2510	0	33.8750	0	26.634	0	219.229	0	106.6	4	35.4	4	-1E+10	1	-1E+10	1	-1E+10	1	-1E+10	1	-1E+10	1	-1E+10	1
4902551	104	C	07/02/2023	00:16	-131.046	47.848	0	222.10	0	6.2360	0	33.8740	0	26.636	0	220.121	0	106.4	4	35.3	4	-1E+10	1	-1E+10	1	-1E+10	1	-1E+10	1	-1E+10	1	-1E+10	1
4902551	104	C	07/02/2023	00:16	-131.046	47.848	0	223.10	0	6.2350	0	33.8740	0	26.636	0	221.111	0	106.2	4	35.3	4	-1E+10	1	-1E+10	1	-1E+10	1	-1E+10	1	-1E+10	1	-1E+10	1
4902551	104	C	07/02/2023	00:16	-131.046	47.848	0	224.20	0	6.2160	0	33.8770	0	26.641	0	222.201	0	106.0	4	35.2	4	-1E+10	1	-1E+10	1	-1E+10	1	-1E+10	1	-1E+10	1	-1E+10	1
4902551	104	C	07/02/2023	00:16	-131.046	47.848	0	225.10	0	6.2100	0	33.8750	0	26.640	0	223.093	0	105.8	4	35.1	4	-1E+10	1	-1E+10	1	-1E+10	1	-1E+10	1	-1E+10	1	-1E+10	1
4902551	104	C	07/02/2023	00:16	-131.046	47.848	0	226.10	0	6.2090	0	33.8750	0	26.640	0	224.083	0	105.6	4	35.0	4	-1E+10	1	-1E+10	1	-1E+10	1	-1E+10	1	-1E+10	1	-1E+10	1
4902551	104	C	07/02/2023	00:16	-131.046	47.848	0	227.10	0	6.2070	0	33.8750	0	26.640	0	225.074	0	105.3	4	35.0	4	-1E+10	1	-1E+10	1	-1E+10	1	-1E+10	1	-1E+10	1	-1E+10	1
4902551	104	C	07/02/2023	00:16	-131.046	47.848	0	228.20	0	6.2050	0	33.8740	0	26.640	0	226.163	0	105.0	4	34.9	4	-1E+10	1	-1E+10	1	-1E+10	1	-1E+10	1	-1E+10	1	-1E+10	1
4902551	104	C	07/02/2023	00:16	-131.046	47.848	0	229.20	0	6.2010	0	33.8760	0	26.642	0	227.154	0	104.8	4	34.8	4	-1E+10	1	-1E+10	1	-1E+10	1	-1E+10	1	-1E+10	1	-1E+10	1
4902551	104	C	07/02/2023	00:16	-131.046	47.848	0	230.20	0	6.1940	0	33.8760	0	26.643	0	228.144	0	104.5	4	34.7	4	-1E+10	1	-1E+10	1	-1E+10	1	-1E+10	1	-1E+10	1	-1E+10	1
4902551	104	C	07/02/2023	00:16	-131.046	47.848	0	231.20	0	6.1890	0	33.8750	0	26.642	0	229.135	0	104.2	4	34.6	4	-1E+10	1	-1E+10	1	-1E+10	1	-1E+10	1	-1E+10	1	-1E+10	1
4902551	104	C	07/02/2023	00:16	-131.046	47.848	0	232.20	0	6.1550	0	33.8740	0	26.646	0	230.125	0	103.9	4	34.4	4	-1E+10	1	-1E+10	1	-1E+10	1	-1E+10	1	-1E+10	1	-1E+10	1
4902551	104	C	07/02/2023	00:16	-131.046	47.848	0	233.20	0	6.1540	0	33.8730	0	26.645	0	231.116	0	103.5	4	34.3	4	-1E+10	1	-1E+10	1	-1E+10	1	-1E+10	1	-1E+10	1	-1E+10	1
4902551	104	C	07/02/2023	00:16	-131.046	47.848	0	234.20	0	6.1530	0	33.8750	0	26.647	0	232.106	0	103.2	4	34.2	4	-1E+10	1	-1E+10	1	-1E+10	1	-1E+10	1	-1E+10	1	-1E+10	1
4902551	104	C	07/02/2023	00:16	-131.046	47.848	0	235.20	0	6.1480	0	33.8760	0	26.649	0	233.097	0	102.8	4	34.1	4	-1E+10	1	-1E+10	1	-1E+10	1	-1E+10	1	-1E+10	1	-1E+10	1
4902551	104	C	07/02/2023	00:16	-131.046	47.848	0	236.20	0	6.1220	0	33.8770	0	26.653	0	234.087	0	102.4	4	33.9	4	-1E+10	1	-1E+10	1	-1E+10	1	-1E+10	1	-1E+10	1	-1E+10	1
4902551	104	C	07/02/2023	00:16	-131.046	47.848	0	237.20	0	6.1120	0	33.8770	0	26.654	0	235.078	0	102.1	4	33.8	4	-1E+10	1	-1E+10	1	-1E+10	1	-1E+10	1	-1E+10	1	-1E+10	1
4902551	104	C	07/02/2023	00:16	-131.046	47.848	0	238.30	0	6.1050	0	33.8760	0	26.654	0	236.167	0	101.7	4	33.7	4	-1E+10	1	-1E+10	1	-1E+10	1	-1E+10	1	-1E+10	1	-1E+10	1
4902551	104	C	07/02/2023	00:16	-131.046	47.848	0	239.30	0	6.0980	0	33.8780	0	26.656	0	237.158	0	101.2	4	33.5	4	-1E+10	1	-1E+10	1	-1E+10	1	-1E+10	1	-1E+10	1	-1E+10	1
4902551	104	C	07/02/2023	00:16	-131.046	47.848	0	240.40	0	6.0770	0	33.8820	0	26.662	0	238.247	0	100.9	4	33.4	4	-1E+10	1	-1E+10	1	-1E+10	1	-1E+10	1	-1E+10	1	-1E+10	1
4902551	104	C	07/02/2023	00:16	-131.046	47.848	0	241.40	0	6.0710	0	33.8820	0	26.663	0	239.238	0	100.6	4	33.3	4	-1E+10	1	-1E+10	1	-1E+10	1	-1E+10	1	-1E+10	1	-1E+10	1
4902551	104	C	07/02/2023	00:16	-131.046	47.848	0	242.50	0	6.0700	0	33.8810	0	26.662	0	240.327	0	100.3	4	33.2	4	-1E+10	1	-1E+10	1	-1E+10	1	-1E+10	1	-1E+10	1	-1E+10	1
4902551	104	C	07/02/2023	00:16	-131.046	47.848	0	243.50	0	6.0690	0	33.8820	0	26.663	0	241.318	0	100.0	4	33.1	4	-1E+10	1	-1E+10	1	-1E+10	1	-1E+10	1	-1E+10	1	-1E+10	1
4902551	104	C	07/02/2023	00:16	-131.046	47.848	0	244.60	0	6.0680	0	33.8820	0	26.663	0	242.407	0	99.7	4	33.0	4	-1E+10	1	-1E+10	1	-1E+10	1	-1E+10	1	-1E+10	1	-1E+10	1
4902551	104	C	07/02/2023	00:16	-131.046	47.848	0	245.60	0	6.0670	0	33.8820	0	26.664	0	243.398	0	99.3	4	32.9	4	-1E+10	1	-1E+10	1	-1E+10	1	-1E+10	1	-1E+10	1	-1E+10	1
4902551	104	C	07/02/2023	00:16	-131.046	47.848	0	246.70	0	6.0640	0	33.8830	0	26.665	0	244.487	0	98.9	4	32.7	4	-1E+10	1	-1E+10	1	-1E+10	1	-1E+10	1	-1E+10	1	-1E+10	1
4902551	104	C	07/02/2023	00:16	-131.046	47.848	0	247.70	0	6.0620	0	33.8830	0	26.665	0	245.478	0	98.6	4	32.6	4	-1E+10	1	-1E+10	1	-1E+10	1	-1E+10	1	-1E+10	1	-1E+10	1
4902551	104	C	07/02/2023	00:16	-131.046	47.848	0	248.80	0	6.0590	0	33.8830	0	26.665	0	246.567	0	98.1	4	32.5	4	-1E+10	1	-1E+10	1	-1E+10	1	-1E+10	1	-1E+10	1	-1E+10	1
4902551	104	C	07/02/2023	00:16	-131.046	47.848	0	249.80	0	6.0460	0	33.8820	0	26.666	0	247.558	0	97.6	4	32.3	4	-1E+10	1	-1E+10	1	-1E+10	1	-1E+10	1	-1E+10	1	-1E+10	1
4902551	104	C	07/02/2023	00:16	-131.046	47.848	0	250.90	0	6.0380	0	33.8820	0	26.667	0	248.647	0	97.1	4	32.1	4	-1E+10	1	-1E+10	1	-1E+10	1	-1E+10	1	-1E+10	1	-1E+10	1
4902551	104	C	07/02/2023	00:16	-131.046	47.848	0	251.90	0	6.0260	0	33.8820	0	26.669	0	249.637	0	96.6	4	31.9	4	-1E+10	1	-1E+10	1	-1E+10	1	-1E+10	1	-1E+10	1	-1E+10	1
4902551	104	C	07/02/2023	00:16	-131.046	47.848	0	252.90	0	6.0210	0	33.8830	0	26.670	0	250.628	0	96.1	4	31.8	4	-1E+10	1	-1E+10	1	-1E+10	1	-1E+10	1	-1E+10	1	-1E+10	1
4902551	104	C	07/02/2023	00:16	-131.046	47.848	0	253.90	0	6.0150	0	33.8860	0	26.673	0	251.618	0	95.6	4	31.6	4	-1E+10	1	-1E+10	1	-1E+10	1	-1E+10	1	-1E+10	1	-1E+10	1
4902551	104	C	07/02/2023	00:16	-131.046	47.848	0	254.80	0	6.0130	0	33.8840	0	26.672	0	252.510	0	95.2	4	31.5	4	-1E+10	1	-1E+10	1	-1E+10	1	-1E+10	1	-1E+10	1	-1E+10	1
4902551	104	C	07/02/2023	00:16	-131.046	47.848	0	255.90	0	5.9990	0	33.8870	0	26.676	0	253.599	0	94.7	4	31.3	4	-1E+10	1	-1E+10	1	-1E+10	1	-1E+10	1	-1E+10	1	-1E+10	1
4902551	104	C	07/02/2023	00:16	-131.046	47.848	0	256.70	0	5.9960	0	33.8880	0	26.677	0	254.391	0	94.3	4	31.2	4	-1E+10	1	-1E+10	1	-1E+10	1	-1E+10	1	-1E+10	1	-1E+10	1
4902551	104	C	07/02/2023	00:16	-131.046	47.848	0	257.90	0	5.9840	0	33.8900	0	26.680	0	255.580	0	93.8	4	31.0	4	-1E+10	1	-1E+10	1	-1E+10	1	-1E+10	1	-1E+10	1	-1E+10	1
4902551	104	C	07/02/2023	00:16	-131.046	47.848	0	259.00	0	5.9710	0	33.8880	0	26.680	0	256.669	0	93.3	4	30.8	4	-1E+10	1	-1E+10	1	-1E+10	1	-1E+10	1	-1E+10	1	-1E+10	1
4902551	104	C	07/02/2023	00:16	-131.046	47.848	0	259.80	0	5.9510	0	33.8910	0	26.685	0	257.462	0	93.0	4	30.7	4	-1E+10	1	-1E+10	1	-1E+10	1	-1E+10	1	-1E+10	1	-1E+10	1
4902551	104	C	07/02/2023	00:16	-131.046	47.848	0	261.00	0	5.9470	0	33.8900	0	26.685	0	258.650	0	92.4	4	30.5	4	-1E+10	1	-1E+10	1	-1E+10	1	-1E+10	1	-1E+10	1	-1E+10	1
4902551	104	C	07/02/2023	00:16	-131.046	47.848	0	262.20	0	5.9360	0	33.8910	0	26.687	0	259.838	0	91.8	4	30.3	4	-1E+10	1	-1E+10	1	-1E+10	1	-1E+10	1	-1E+10	1	-1E+10	1
4902551	104	C	07/02/2023	00:16	-131.046	47.848	0	263.00	0	5.9230	0	33.8950	0	26.692	0	260.631	0	91.4	4	30.1	4	-1E+10	1	-1E+10	1	-1E+10	1	-1E+10	1	-1E+10	1	-1E+10	1
4902551	104	C	07/02/2023	00:16	-131.046	47.848	0	263.80	0	5.9190	0	33.8920	0	26.690	0	261.423	0	91.0	4	30.0	4	-1E+10	1	-1E+10	1	-1E+10	1	-1E+10	1	-1E+10	1	-1E+10	1
4902551	104	C	07/02/2023	00:16	-131.046	47.848	0	265.00	0	5.9170	0	33.8940	0	26.692	0	262.611	0	90.5	4	29.8	4	-1E+10	1	-1E+10	1	-1E+10	1	-1E+10	1	-1E+10	1	-1E+10	1
4902551	104	C	07/02/2023	00:16	-131.046	47.848	0	266.20	0	5.8930	0	33.8980	0	26.698	0	263.800	0	90.1	4	29.7	4	-1E+10	1	-1E+10	1	-1E+10	1	-1E+10	1	-1E+10	1	-1E+10	1
4902551	104	C	07/02/2023	00:16	-131.046	47.848	0	267.00	0	5.8930	0	33.8980	0	26.698	0	264.592	0	89.9	4	29.6	4	-1E+10	1	-1E+10	1	-1E+10	1	-1E+10	1	-1E+10	1	-1E+10	1
4902551	104	C	07/02/2023	00:16	-131.046	47.848	0	267.90	0	5.8920	0	33.8970	0	26.698	0	265.483	0	89.6	4	29.5	4	-1E+10	1	-1E+10	1	-1E+10	1	-1E+10	1	-1E+10	1	-1E+10	1
4902551	104	C	07/02/2023	00:16	-131.046	47.848	0	268.70	0	5.8930	0	33.8990	0	26.699	0	266.276	0	89.4	4	29.5	4	-1E+10	1	-1E+10	1	-1E+10	1	-1E+10	1	-1E+10	1	-1E+10	1
4902551	104	C	07/02/2023	00:16	-131.046	47.848	0	269.90	0	5.8900	0	33.8990	0	26.699	0	267.464	0	88.9	4	29.3	4	-1E+10	1	-1E+10	1	-1E+10	1	-1E+10	1	-1E+10	1	-1E+10	1
4902551	104	C	07/02/2023	00:16	-131.046	47.848	0	271.10	0	5.8890	0	33.8980	0	26.699	0	268.653	0	88.5	4	29.1	4	-1E+10	1	-1E+10	1	-1E+10	1	-1E+10	1	-1E+10	1	-1E+10	1
4902551	104	C	07/02/2023	00:16	-131.046	47.848	0	272.00	0	5.8850	0	33.9000	0	26.701	0	269.544	0	88.1	4	29.0	4	-1E+10	1	-1E+10	1	-1E+10	1	-1E+10	1	-1E+10	1	-1E+10	1
4902551	104	C	07/02/2023	00:16	-131.046	47.848	0	272.70	0	5.8850	0	33.8980	0	26.699	0	270.237	0	87.8	4	28.9	4	-1E+10	1	-1E+10	1	-1E+10	1	-1E+10	1	-1E+10	1	-1E+10	1
4902551	104	C	07/02/2023	00:16	-131.046	47.848	0	274.00	0	5.8830	0	33.9010	0	26.702	0	271.524	0	87.5	4	28.8	4	-1E+10	1	-1E+10	1	-1E+10	1	-1E+10	1	-1E+10	1	-1E+10	1
4902551	104	C	07/02/2023	00:16	-131.046	47.848	0	275.20	0	5.8700	0	33.9060	0	26.707	0	272.713	0	87.2	4	28.7	4	-1E+10	1	-1E+10	1	-1E+10	1	-1E+10	1	-1E+10	1	-1E+10	1
4902551	104	C	07/02/2023	00:16	-131.046	47.848	0	276.00	0	5.8520	0	33.9050	0	26.709	0	273.505	0	87.1	4	28.7	4	-1E+10	1	-1E+10	1	-1E+10	1	-1E+10	1	-1E+10	1	-1E+10	1
4902551	104	C	07/02/2023	00:16	-131.046	47.848	0	276.80	0	5.8460	0	33.9050	0	26.710	0	274.297	0	87.0	4	28.6	4	-1E+10	1	-1E+10	1	-1E+10	1	-1E+10	1	-1E+10	1	-1E+10	1
4902551	104	C	07/02/2023	00:16	-131.046	47.848	0	277.60	0	5.8150	0	33.9040	0	26.713	0	275.090	0	86.9	4	28.6	4	-1E+10	1	-1E+10	1	-1E+10	1	-1E+10	1	-1E+10	1	-1E+10	1
4902551	104	C	07/02/2023	00:16	-131.046	47.848	0	278.90	0	5.8180	0	33.9060	0	26.714	0	276.377	0	86.7	4	28.5	4	-1E+10	1	-1E+10	1	-1E+10	1	-1E+10	1	-1E+10	1	-1E+10	1
4902551	104	C	07/02/2023	00:16	-131.046	47.848	0	280.10	0	5.8030	0	33.9040	0	26.714	0	277.565	0	86.4	4	28.4	4	-1E+10	1	-1E+10	1	-1E+10	1	-1E+10	1	-1E+10	1	-1E+10	1
4902551	104	C	07/02/2023	00:16	-131.046	47.848	0	281.00	0	5.8000	0	33.9020	0	26.713	0	278.456	0	86.2	4	28.4	4	-1E+10	1	-1E+10	1	-1E+10	1	-1E+10	1	-1E+10	1	-1E+10	1
4902551	104	C	07/02/2023	00:16	-131.046	47.848	0	281.80	0	5.7930	0	33.9030	0	26.715	0	279.249	0	86.0	4	28.3	4	-1E+10	1	-1E+10	1	-1E+10	1	-1E+10	1	-1E+10	1	-1E+10	1
4902551	104	C	07/02/2023	00:16	-131.046	47.848	0	282.70	0	5.7730	0	33.9050	0	26.719	0	280.140	0	85.7	4	28.2	4	-1E+10	1	-1E+10	1	-1E+10	1	-1E+10	1	-1E+10	1	-1E+10	1
4902551	104	C	07/02/2023	00:16	-131.046	47.848	0	283.90	0	5.7670	0	33.9020	0	26.717	0	281.328	0	85.3	4	28.0	4	-1E+10	1	-1E+10	1	-1E+10	1	-1E+10	1	-1E+10	1	-1E+10	1
4902551	104	C	07/02/2023	00:16	-131.046	47.848	0	285.10	0	5.7530	0	33.9040	0	26.720	0	282.517	0	84.7	4	27.8	4	-1E+10	1	-1E+10	1	-1E+10	1	-1E+10	1	-1E+10	1	-1E+10	1
4902551	104	C	07/02/2023	00:16	-131.046	47.848	0	286.00	0	5.7490	0	33.9030	0	26.720	0	283.408	0	84.3	4	27.7	4	-1E+10	1	-1E+10	1	-1E+10	1	-1E+10	1	-1E+10	1	-1E+10	1
4902551	104	C	07/02/2023	00:16	-131.046	47.848	0	286.80	0	5.7460	0	33.9040	0	26.721	0	284.200	0	83.9	4	27.5	4	-1E+10	1	-1E+10	1	-1E+10	1	-1E+10	1	-1E+10	1	-1E+10	1
4902551	104	C	07/02/2023	00:16	-131.046	47.848	0	288.00	0	5.7450	0	33.9040	0	26.721	0	285.388	0	83.1	4	27.3	4	-1E+10	1	-1E+10	1	-1E+10	1	-1E+10	1	-1E+10	1	-1E+10	1
4902551	104	C	07/02/2023	00:16	-131.046	47.848	0	289.20	0	5.7410	0	33.9090	0	26.726	0	286.577	0	82.5	4	27.1	4	-1E+10	1	-1E+10	1	-1E+10	1	-1E+10	1	-1E+10	1	-1E+10	1
4902551	104	C	07/02/2023	00:16	-131.046	47.848	0	290.00	0	5.7310	0	33.9060	0	26.725	0	287.369	0	82.0	4	26.9	4	-1E+10	1	-1E+10	1	-1E+10	1	-1E+10	1	-1E+10	1	-1E+10	1
4902551	104	C	07/02/2023	00:16	-131.046	47.848	0	290.90	0	5.7040	0	33.9120	0	26.733	0	288.260	0	81.5	4	26.7	4	-1E+10	1	-1E+10	1	-1E+10	1	-1E+10	1	-1E+10	1	-1E+10	1
4902551	104	C	07/02/2023	00:16	-131.046	47.848	0	291.70	0	5.6900	0	33.9080	0	26.731	0	289.052	0	81.0	4	26.6	4	-1E+10	1	-1E+10	1	-1E+10	1	-1E+10	1	-1E+10	1	-1E+10	1
4902551	104	C	07/02/2023	00:16	-131.046	47.848	0	292.90	0	5.6780	0	33.9080	0	26.733	0	290.240	0	80.2	4	26.3	4	-1E+10	1	-1E+10	1	-1E+10	1	-1E+10	1	-1E+10	1	-1E+10	1
4902551	104	C	07/02/2023	00:16	-131.046	47.848	0	294.10	0	5.6700	0	33.9110	0	26.736	0	291.429	0	79.4	4	26.0	4	-1E+10	1	-1E+10	1	-1E+10	1	-1E+10	1	-1E+10	1	-1E+10	1
4902551	104	C	07/02/2023	00:16	-131.046	47.848	0	294.90	0	5.6620	0	33.9120	0	26.738	0	292.221	0	78.8	4	25.8	4	-1E+10	1	-1E+10	1	-1E+10	1	-1E+10	1	-1E+10	1	-1E+10	1
4902551	104	C	07/02/2023	00:16	-131.046	47.848	0	295.70	0	5.6530	0	33.9120	0	26.739	0	293.013	0	78.3	4	25.7	4	-1E+10	1	-1E+10	1	-1E+10	1	-1E+10	1	-1E+10	1	-1E+10	1
4902551	104	C	07/02/2023	00:16	-131.046	47.848	0	297.00	0	5.6420	0	33.9130	0	26.741	0	294.300	0	77.2	4	25.3	4	-1E+10	1	-1E+10	1	-1E+10	1	-1E+10	1	-1E+10	1	-1E+10	1
4902551	104	C	07/02/2023	00:16	-131.046	47.848	0	298.20	0	5.6320	0	33.9160	0	26.745	0	295.489	0	76.2	4	25.0	4	-1E+10	1	-1E+10	1	-1E+10	1	-1E+10	1	-1E+10	1	-1E+10	1
4902551	104	C	07/02/2023	00:16	-131.046	47.848	0	299.10	0	5.6320	0	33.9170	0	26.745	0	296.380	0	75.5	4	24.7	4	-1E+10	1	-1E+10	1	-1E+10	1	-1E+10	1	-1E+10	1	-1E+10	1
4902551	104	C	07/02/2023	00:16	-131.046	47.848	0	299.90	0	5.6320	0	33.9170	0	26.745	0	297.172	0	74.8	4	24.5	4	-1E+10	1	-1E+10	1	-1E+10	1	-1E+10	1	-1E+10	1	-1E+10	1
4902551	104	C	07/02/2023	00:16	-131.046	47.848	0	300.70	0	5.6320	0	33.9180	0	26.746	0	297.964	0	74.0	4	24.2	4	-1E+10	1	-1E+10	1	-1E+10	1	-1E+10	1	-1E+10	1	-1E+10	1
4902551	104	C	07/02/2023	00:16	-131.046	47.848	0	302.00	0	5.6250	0	33.9200	0	26.749	0	299.251	0	72.6	4	23.8	4	-1E+10	1	-1E+10	1	-1E+10	1	-1E+10	1	-1E+10	1	-1E+10	1
4902551	104	C	07/02/2023	00:16	-131.046	47.848	0	303.20	0	5.6230	0	33.9220	0	26.751	0	300.439	0	71.3	4	23.3	4	-1E+10	1	-1E+10	1	-1E+10	1	-1E+10	1	-1E+10	1	-1E+10	1
4902551	104	C	07/02/2023	00:16	-131.046	47.848	0	304.10	0	5.6260	0	33.9220	0	26.750	0	301.331	0	70.4	4	23.1	4	-1E+10	1	-1E+10	1	-1E+10	1	-1E+10	1	-1E+10	1	-1E+10	1
4902551	104	C	07/02/2023	00:16	-131.046	47.848	0	304.90	0	5.6750	0	33.9150	0	26.739	0	302.123	0	70.1	4	23.0	4	-1E+10	1	-1E+10	1	-1E+10	1	-1E+10	1	-1E+10	1	-1E+10	1
4902551	104	C	07/02/2023	00:16	-131.046	47.848	0	305.70	0	5.7070	0	33.9440	0	26.758	0	302.915	0	69.8	4	22.9	4	-1E+10	1	-1E+10	1	-1E+10	1	-1E+10	1	-1E+10	1	-1E+10	1
4902551	104	C	07/02/2023	00:16	-131.046	47.848	0	306.90	0	5.7020	0	33.9490	0	26.762	0	304.103	0	69.6	4	22.8	4	-1E+10	1	-1E+10	1	-1E+10	1	-1E+10	1	-1E+10	1	-1E+10	1
4902551	104	C	07/02/2023	00:16	-131.046	47.848	0	308.20	0	5.6600	0	33.9440	0	26.763	0	305.390	0	69.2	4	22.7	4	-1E+10	1	-1E+10	1	-1E+10	1	-1E+10	1	-1E+10	1	-1E+10	1
4902551	104	C	07/02/2023	00:16	-131.046	47.848	0	309.00	0	5.6570	0	33.9420	0	26.762	0	306.182	0	68.9	4	22.6	4	-1E+10	1	-1E+10	1	-1E+10	1	-1E+10	1	-1E+10	1	-1E+10	1
4902551	104	C	07/02/2023	00:16	-131.046	47.848	0	309.90	0	5.6560	0	33.9430	0	26.763	0	307.073	0	68.5	4	22.5	4	-1E+10	1	-1E+10	1	-1E+10	1	-1E+10	1	-1E+10	1	-1E+10	1
4902551	104	C	07/02/2023	00:16	-131.046	47.848	0	310.70	0	5.6290	0	33.9420	0	26.766	0	307.866	0	68.2	4	22.4	4	-1E+10	1	-1E+10	1	-1E+10	1	-1E+10	1	-1E+10	1	-1E+10	1
4902551	104	C	07/02/2023	00:16	-131.046	47.848	0	312.00	0	5.6160	0	33.9470	0	26.771	0	309.153	0	67.7	4	22.2	4	-1E+10	1	-1E+10	1	-1E+10	1	-1E+10	1	-1E+10	1	-1E+10	1
4902551	104	C	07/02/2023	00:16	-131.046	47.848	0	313.30	0	5.6040	0	33.9470	0	26.773	0	310.440	0	67.3	4	22.0	4	-1E+10	1	-1E+10	1	-1E+10	1	-1E+10	1	-1E+10	1	-1E+10	1
4902551	104	C	07/02/2023	00:16	-131.046	47.848	0	314.10	0	5.6060	0	33.9500	0	26.775	0	311.232	0	67.0	4	22.0	4	-1E+10	1	-1E+10	1	-1E+10	1	-1E+10	1	-1E+10	1	-1E+10	1
4902551	104	C	07/02/2023	00:16	-131.046	47.848	0	314.90	0	5.5950	0	33.9530	0	26.779	0	312.024	0	66.9	4	21.9	4	-1E+10	1	-1E+10	1	-1E+10	1	-1E+10	1	-1E+10	1	-1E+10	1
4902551	104	C	07/02/2023	00:16	-131.046	47.848	0	315.80	0	5.5920	0	33.9510	0	26.777	0	312.915	0	66.6	4	21.8	4	-1E+10	1	-1E+10	1	-1E+10	1	-1E+10	1	-1E+10	1	-1E+10	1
4902551	104	C	07/02/2023	00:16	-131.046	47.848	0	316.60	0	5.5910	0	33.9510	0	26.777	0	313.707	0	66.3	4	21.7	4	-1E+10	1	-1E+10	1	-1E+10	1	-1E+10	1	-1E+10	1	-1E+10	1
4902551	104	C	07/02/2023	00:16	-131.046	47.848	0	317.90	0	5.5920	0	33.9510	0	26.777	0	314.994	0	66.0	4	21.6	4	-1E+10	1	-1E+10	1	-1E+10	1	-1E+10	1	-1E+10	1	-1E+10	1
4902551	104	C	07/02/2023	00:16	-131.046	47.848	0	319.20	0	5.6070	0	33.9570	0	26.780	0	316.282	0	65.8	4	21.6	4	-1E+10	1	-1E+10	1	-1E+10	1	-1E+10	1	-1E+10	1	-1E+10	1
4902551	104	C	07/02/2023	00:16	-131.046	47.848	0	320.10	0	5.5950	0	33.9590	0	26.783	0	317.173	0	65.8	4	21.6	4	-1E+10	1	-1E+10	1	-1E+10	1	-1E+10	1	-1E+10	1	-1E+10	1
4902551	104	C	07/02/2023	00:16	-131.046	47.848	0	320.90	0	5.5820	0	33.9590	0	26.785	0	317.965	0	65.8	4	21.5	4	-1E+10	1	-1E+10	1	-1E+10	1	-1E+10	1	-1E+10	1	-1E+10	1
4902551	104	C	07/02/2023	00:16	-131.046	47.848	0	321.80	0	5.5720	0	33.9580	0	26.785	0	318.856	0	65.9	4	21.6	4	-1E+10	1	-1E+10	1	-1E+10	1	-1E+10	1	-1E+10	1	-1E+10	1
4902551	104	C	07/02/2023	00:16	-131.046	47.848	0	322.70	0	5.5660	0	33.9570	0	26.785	0	319.747	0	65.9	4	21.6	4	-1E+10	1	-1E+10	1	-1E+10	1	-1E+10	1	-1E+10	1	-1E+10	1
4902551	104	C	07/02/2023	00:16	-131.046	47.848	0	323.90	0	5.5460	0	33.9570	0	26.788	0	320.935	0	65.9	4	21.6	4	-1E+10	1	-1E+10	1	-1E+10	1	-1E+10	1	-1E+10	1	-1E+10	1
4902551	104	C	07/02/2023	00:16	-131.046	47.848	0	325.30	0	5.5140	0	33.9590	0	26.793	0	322.321	0	65.9	4	21.5	4	-1E+10	1	-1E+10	1	-1E+10	1	-1E+10	1	-1E+10	1	-1E+10	1
4902551	104	C	07/02/2023	00:16	-131.046	47.848	0	326.20	0	5.4970	0	33.9550	0	26.792	0	323.212	0	65.9	4	21.5	4	-1E+10	1	-1E+10	1	-1E+10	1	-1E+10	1	-1E+10	1	-1E+10	1
4902551	104	C	07/02/2023	00:16	-131.046	47.848	0	327.10	0	5.4900	0	33.9530	0	26.791	0	324.103	0	65.9	4	21.5	4	-1E+10	1	-1E+10	1	-1E+10	1	-1E+10	1	-1E+10	1	-1E+10	1
4902551	104	C	07/02/2023	00:16	-131.046	47.848	0	328.00	0	5.4800	0	33.9570	0	26.796	0	324.994	0	65.8	4	21.5	4	-1E+10	1	-1E+10	1	-1E+10	1	-1E+10	1	-1E+10	1	-1E+10	1
4902551	104	C	07/02/2023	00:16	-131.046	47.848	0	328.90	0	5.4650	0	33.9520	0	26.793	0	325.885	0	65.7	4	21.4	4	-1E+10	1	-1E+10	1	-1E+10	1	-1E+10	1	-1E+10	1	-1E+10	1
4902551	104	C	07/02/2023	00:16	-131.046	47.848	0	329.70	0	5.4540	0	33.9540	0	26.796	0	326.677	0	65.6	4	21.4	4	-1E+10	1	-1E+10	1	-1E+10	1	-1E+10	1	-1E+10	1	-1E+10	1
4902551	104	C	07/02/2023	00:16	-131.046	47.848	0	330.60	0	5.4150	0	33.9580	0	26.804	0	327.568	0	65.6	4	21.4	4	-1E+10	1	-1E+10	1	-1E+10	1	-1E+10	1	-1E+10	1	-1E+10	1
4902551	104	C	07/02/2023	00:16	-131.046	47.848	0	331.90	0	5.3910	0	33.9530	0	26.803	0	328.855	0	65.5	4	21.4	4	-1E+10	1	-1E+10	1	-1E+10	1	-1E+10	1	-1E+10	1	-1E+10	1
4902551	104	C	07/02/2023	00:16	-131.046	47.848	0	333.30	0	5.3750	0	33.9510	0	26.803	0	330.241	0	65.4	4	21.3	4	-1E+10	1	-1E+10	1	-1E+10	1	-1E+10	1	-1E+10	1	-1E+10	1
4902551	104	C	07/02/2023	00:16	-131.046	47.848	0	334.20	0	5.3700	0	33.9510	0	26.804	0	331.132	0	65.3	4	21.3	4	-1E+10	1	-1E+10	1	-1E+10	1	-1E+10	1	-1E+10	1	-1E+10	1
4902551	104	C	07/02/2023	00:16	-131.046	47.848	0	335.10	0	5.3670	0	33.9520	0	26.805	0	332.023	0	65.1	4	21.2	4	-1E+10	1	-1E+10	1	-1E+10	1	-1E+10	1	-1E+10	1	-1E+10	1
4902551	104	C	07/02/2023	00:16	-131.046	47.848	0	336.00	0	5.3660	0	33.9500	0	26.804	0	332.914	0	65.0	4	21.2	4	-1E+10	1	-1E+10	1	-1E+10	1	-1E+10	1	-1E+10	1	-1E+10	1
4902551	104	C	07/02/2023	00:16	-131.046	47.848	0	337.00	0	5.3630	0	33.9510	0	26.805	0	333.904	0	64.8	4	21.1	4	-1E+10	1	-1E+10	1	-1E+10	1	-1E+10	1	-1E+10	1	-1E+10	1
4902551	104	C	07/02/2023	00:16	-131.046	47.848	0	337.90	0	5.3550	0	33.9510	0	26.806	0	334.795	0	64.6	4	21.0	4	-1E+10	1	-1E+10	1	-1E+10	1	-1E+10	1	-1E+10	1	-1E+10	1
4902551	104	C	07/02/2023	00:16	-131.046	47.848	0	338.80	0	5.3490	0	33.9500	0	26.806	0	335.686	0	64.3	4	20.9	4	-1E+10	1	-1E+10	1	-1E+10	1	-1E+10	1	-1E+10	1	-1E+10	1
4902551	104	C	07/02/2023	00:16	-131.046	47.848	0	339.70	0	5.3490	0	33.9500	0	26.806	0	336.577	0	64.0	4	20.8	4	-1E+10	1	-1E+10	1	-1E+10	1	-1E+10	1	-1E+10	1	-1E+10	1
4902551	104	C	07/02/2023	00:16	-131.046	47.848	0	340.70	0	5.3450	0	33.9500	0	26.806	0	337.567	0	63.8	4	20.8	4	-1E+10	1	-1E+10	1	-1E+10	1	-1E+10	1	-1E+10	1	-1E+10	1
4902551	104	C	07/02/2023	00:16	-131.046	47.848	0	341.60	0	5.3270	0	33.9510	0	26.809	0	338.458	0	63.4	4	20.6	4	-1E+10	1	-1E+10	1	-1E+10	1	-1E+10	1	-1E+10	1	-1E+10	1
4902551	104	C	07/02/2023	00:16	-131.046	47.848	0	342.50	0	5.3210	0	33.9500	0	26.809	0	339.349	0	63.1	4	20.5	4	-1E+10	1	-1E+10	1	-1E+10	1	-1E+10	1	-1E+10	1	-1E+10	1
4902551	104	C	07/02/2023	00:16	-131.046	47.848	0	343.90	0	5.3100	0	33.9510	0	26.811	0	340.735	0	62.6	4	20.4	4	-1E+10	1	-1E+10	1	-1E+10	1	-1E+10	1	-1E+10	1	-1E+10	1
4902551	104	C	07/02/2023	00:16	-131.046	47.848	0	345.40	0	5.2910	0	33.9580	0	26.819	0	342.220	0	62.1	4	20.2	4	-1E+10	1	-1E+10	1	-1E+10	1	-1E+10	1	-1E+10	1	-1E+10	1
4902551	104	C	07/02/2023	00:16	-131.046	47.848	0	346.30	0	5.2670	0	33.9530	0	26.818	0	343.111	0	61.8	4	20.1	4	-1E+10	1	-1E+10	1	-1E+10	1	-1E+10	1	-1E+10	1	-1E+10	1
4902551	104	C	07/02/2023	00:16	-131.046	47.848	0	347.30	0	5.2640	0	33.9520	0	26.817	0	344.101	0	61.6	4	20.0	4	-1E+10	1	-1E+10	1	-1E+10	1	-1E+10	1	-1E+10	1	-1E+10	1
4902551	104	C	07/02/2023	00:16	-131.046	47.848	0	348.30	0	5.2720	0	33.9540	0	26.818	0	345.091	0	61.3	4	19.9	4	-1E+10	1	-1E+10	1	-1E+10	1	-1E+10	1	-1E+10	1	-1E+10	1
4902551	104	C	07/02/2023	00:16	-131.046	47.848	0	349.20	0	5.2720	0	33.9570	0	26.820	0	345.982	0	61.0	4	19.8	4	-1E+10	1	-1E+10	1	-1E+10	1	-1E+10	1	-1E+10	1	-1E+10	1
4902551	104	C	07/02/2023	00:16	-131.046	47.848	0	350.20	0	5.2710	0	33.9600	0	26.823	0	346.972	0	60.8	4	19.8	4	-1E+10	1	-1E+10	1	-1E+10	1	-1E+10	1	-1E+10	1	-1E+10	1
4902551	104	C	07/02/2023	00:16	-131.046	47.848	0	353.10	0	5.2290	0	33.9590	0	26.827	0	349.843	0	60.2	4	19.5	4	-1E+10	1	-1E+10	1	-1E+10	1	-1E+10	1	-1E+10	1	-1E+10	1
4902551	104	C	07/02/2023	00:16	-131.046	47.848	0	358.10	0	5.1990	0	33.9610	0	26.832	0	354.793	0	59.0	4	19.1	4	-1E+10	1	-1E+10	1	-1E+10	1	-1E+10	1	-1E+10	1	-1E+10	1
4902551	104	C	07/02/2023	00:16	-131.046	47.848	0	363.20	0	5.1620	0	33.9650	0	26.840	0	359.841	0	58.0	4	18.8	4	-1E+10	1	-1E+10	1	-1E+10	1	-1E+10	1	-1E+10	1	-1E+10	1
4902551	104	C	07/02/2023	00:16	-131.046	47.848	0	367.90	0	5.1200	0	33.9650	0	26.844	0	364.493	0	57.1	4	18.5	4	-1E+10	1	-1E+10	1	-1E+10	1	-1E+10	1	-1E+10	1	-1E+10	1
4902551	104	C	07/02/2023	00:16	-131.046	47.848	0	372.60	0	5.1140	0	33.9690	0	26.848	0	369.146	0	56.2	4	18.2	4	-1E+10	1	-1E+10	1	-1E+10	1	-1E+10	1	-1E+10	1	-1E+10	1
4902551	104	C	07/02/2023	00:16	-131.046	47.848	0	378.00	0	5.0920	0	33.9720	0	26.853	0	374.491	0	55.3	4	17.9	4	-1E+10	1	-1E+10	1	-1E+10	1	-1E+10	1	-1E+10	1	-1E+10	1
4902551	104	C	07/02/2023	00:16	-131.046	47.848	0	382.90	0	5.0770	0	33.9720	0	26.855	0	379.341	0	54.3	4	17.6	4	-1E+10	1	-1E+10	1	-1E+10	1	-1E+10	1	-1E+10	1	-1E+10	1
4902551	104	C	07/02/2023	00:16	-131.046	47.848	0	387.70	0	5.0380	0	33.9770	0	26.863	0	384.092	0	52.9	4	17.1	4	-1E+10	1	-1E+10	1	-1E+10	1	-1E+10	1	-1E+10	1	-1E+10	1
4902551	104	C	07/02/2023	00:16	-131.046	47.848	0	393.10	0	4.9970	0	33.9790	0	26.870	0	389.436	0	51.0	4	16.5	4	-1E+10	1	-1E+10	1	-1E+10	1	-1E+10	1	-1E+10	1	-1E+10	1
4902551	104	C	07/02/2023	00:16	-131.046	47.848	0	398.00	0	5.0200	0	33.9870	0	26.874	0	394.286	0	48.7	4	15.7	4	-1E+10	1	-1E+10	1	-1E+10	1	-1E+10	1	-1E+10	1	-1E+10	1
4902551	104	C	07/02/2023	00:16	-131.046	47.848	0	402.80	0	5.0700	0	33.9990	0	26.877	0	399.037	0	47.2	4	15.3	4	-1E+10	1	-1E+10	1	-1E+10	1	-1E+10	1	-1E+10	1	-1E+10	1
4902551	104	C	07/02/2023	00:16	-131.046	47.848	0	408.20	0	5.0510	0	34.0070	0	26.886	0	404.381	0	46.5	4	15.0	4	-1E+10	1	-1E+10	1	-1E+10	1	-1E+10	1	-1E+10	1	-1E+10	1
4902551	104	C	07/02/2023	00:16	-131.046	47.848	0	413.10	0	5.0250	0	34.0110	0	26.892	0	409.230	0	45.9	4	14.8	4	-1E+10	1	-1E+10	1	-1E+10	1	-1E+10	1	-1E+10	1	-1E+10	1
4902551	104	C	07/02/2023	00:16	-131.046	47.848	0	417.90	0	4.9090	0	34.0080	0	26.903	0	413.981	0	45.7	4	14.7	4	-1E+10	1	-1E+10	1	-1E+10	1	-1E+10	1	-1E+10	1	-1E+10	1
4902551	104	C	07/02/2023	00:16	-131.046	47.848	0	423.30	0	4.8660	0	34.0090	0	26.909	0	419.325	0	44.4	4	14.3	4	-1E+10	1	-1E+10	1	-1E+10	1	-1E+10	1	-1E+10	1	-1E+10	1
4902551	104	C	07/02/2023	00:16	-131.046	47.848	0	428.00	0	4.8650	0	34.0140	0	26.913	0	423.976	0	43.4	4	14.0	4	-1E+10	1	-1E+10	1	-1E+10	1	-1E+10	1	-1E+10	1	-1E+10	1
4902551	104	C	07/02/2023	00:16	-131.046	47.848	0	432.80	0	4.8640	0	34.0200	0	26.918	0	428.725	0	42.8	4	13.8	4	-1E+10	1	-1E+10	1	-1E+10	1	-1E+10	1	-1E+10	1	-1E+10	1
4902551	104	C	07/02/2023	00:16	-131.046	47.848	0	438.10	0	4.8250	0	34.0210	0	26.923	0	433.970	0	42.2	4	13.6	4	-1E+10	1	-1E+10	1	-1E+10	1	-1E+10	1	-1E+10	1	-1E+10	1
4902551	104	C	07/02/2023	00:16	-131.046	47.848	0	442.80	0	4.7680	0	34.0240	0	26.932	0	438.621	0	41.6	4	13.4	4	-1E+10	1	-1E+10	1	-1E+10	1	-1E+10	1	-1E+10	1	-1E+10	1
4902551	104	C	07/02/2023	00:16	-131.046	47.848	0	447.50	0	4.7570	0	34.0250	0	26.934	0	443.271	0	41.2	4	13.2	4	-1E+10	1	-1E+10	1	-1E+10	1	-1E+10	1	-1E+10	1	-1E+10	1
4902551	104	C	07/02/2023	00:16	-131.046	47.848	0	452.70	0	4.7470	0	34.0260	0	26.936	0	448.417	0	40.7	4	13.1	4	-1E+10	1	-1E+10	1	-1E+10	1	-1E+10	1	-1E+10	1	-1E+10	1
4902551	104	C	07/02/2023	00:16	-131.046	47.848	0	457.80	0	4.7380	0	34.0280	0	26.938	0	453.463	0	40.0	4	12.9	4	-1E+10	1	-1E+10	1	-1E+10	1	-1E+10	1	-1E+10	1	-1E+10	1
4902551	104	C	07/02/2023	00:16	-131.046	47.848	0	462.90	0	4.7340	0	34.0300	0	26.940	0	458.509	0	39.2	4	12.6	4	-1E+10	1	-1E+10	1	-1E+10	1	-1E+10	1	-1E+10	1	-1E+10	1
4902551	104	C	07/02/2023	00:16	-131.046	47.848	0	467.70	0	4.7270	0	34.0330	0	26.943	0	463.258	0	38.1	4	12.2	4	-1E+10	1	-1E+10	1	-1E+10	1	-1E+10	1	-1E+10	1	-1E+10	1
4902551	104	C	07/02/2023	00:16	-131.046	47.848	0	472.60	0	4.7050	0	34.0400	0	26.951	0	468.106	0	37.0	4	11.9	4	-1E+10	1	-1E+10	1	-1E+10	1	-1E+10	1	-1E+10	1	-1E+10	1
4902551	104	C	07/02/2023	00:16	-131.046	47.848	0	477.90	0	4.6960	0	34.0450	0	26.956	0	473.350	0	36.0	4	11.5	4	-1E+10	1	-1E+10	1	-1E+10	1	-1E+10	1	-1E+10	1	-1E+10	1
4902551	104	C	07/02/2023	00:16	-131.046	47.848	0	483.20	0	4.6880	0	34.0500	0	26.961	0	478.593	0	34.8	4	11.2	4	-1E+10	1	-1E+10	1	-1E+10	1	-1E+10	1	-1E+10	1	-1E+10	1
4902551	104	C	07/02/2023	00:16	-131.046	47.848	0	488.10	0	4.6640	0	34.0560	0	26.969	0	483.441	0	33.7	4	10.8	4	-1E+10	1	-1E+10	1	-1E+10	1	-1E+10	1	-1E+10	1	-1E+10	1
4902551	104	C	07/02/2023	00:16	-131.046	47.848	0	492.90	0	4.6430	0	34.0610	0	26.975	0	488.189	0	32.7	4	10.5	4	-1E+10	1	-1E+10	1	-1E+10	1	-1E+10	1	-1E+10	1	-1E+10	1
4902551	104	C	07/02/2023	00:16	-131.046	47.848	0	497.70	0	4.6140	0	34.0660	0	26.982	0	492.938	0	31.9	4	10.2	4	-1E+10	1	-1E+10	1	-1E+10	1	-1E+10	1	-1E+10	1	-1E+10	1
4902551	104	C	07/02/2023	00:16	-131.046	47.848	0	502.90	0	4.5910	0	34.0710	0	26.989	0	498.082	0	31.0	4	9.9	4	-1E+10	1	-1E+10	1	-1E+10	1	-1E+10	1	-1E+10	1	-1E+10	1
4902551	104	C	07/02/2023	00:16	-131.046	47.848	0	508.10	0	4.5770	0	34.0740	0	26.993	0	503.225	0	30.3	4	9.7	4	-1E+10	1	-1E+10	1	-1E+10	1	-1E+10	1	-1E+10	1	-1E+10	1
4902551	104	C	07/02/2023	00:16	-131.046	47.848	0	512.80	0	4.5640	0	34.0770	0	26.997	0	507.875	0	29.4	4	9.4	4	-1E+10	1	-1E+10	1	-1E+10	1	-1E+10	1	-1E+10	1	-1E+10	1
4902551	104	C	07/02/2023	00:16	-131.046	47.848	0	517.80	0	4.5350	0	34.0820	0	27.004	0	512.820	0	28.4	4	9.1	4	-1E+10	1	-1E+10	1	-1E+10	1	-1E+10	1	-1E+10	1	-1E+10	1
4902551	104	C	07/02/2023	00:16	-131.046	47.848	0	522.80	0	4.5080	0	34.0900	0	27.013	0	517.766	0	27.5	4	8.8	4	-1E+10	1	-1E+10	1	-1E+10	1	-1E+10	1	-1E+10	1	-1E+10	1
4902551	104	C	07/02/2023	00:16	-131.046	47.848	0	527.70	0	4.4930	0	34.0940	0	27.018	0	522.613	0	26.7	4	8.5	4	-1E+10	1	-1E+10	1	-1E+10	1	-1E+10	1	-1E+10	1	-1E+10	1
4902551	104	C	07/02/2023	00:16	-131.046	47.848	0	532.80	0	4.4740	0	34.1000	0	27.025	0	527.657	0	25.9	4	8.3	4	-1E+10	1	-1E+10	1	-1E+10	1	-1E+10	1	-1E+10	1	-1E+10	1
4902551	104	C	07/02/2023	00:16	-131.046	47.848	0	538.00	0	4.4570	0	34.1050	0	27.031	0	532.800	0	25.3	4	8.1	4	-1E+10	1	-1E+10	1	-1E+10	1	-1E+10	1	-1E+10	1	-1E+10	1
4902551	104	C	07/02/2023	00:16	-131.046	47.848	0	543.00	0	4.4250	0	34.1100	0	27.038	0	537.745	0	24.9	4	7.9	4	-1E+10	1	-1E+10	1	-1E+10	1	-1E+10	1	-1E+10	1	-1E+10	1
4902551	104	C	07/02/2023	00:16	-131.046	47.848	0	548.00	0	4.3750	0	34.1100	0	27.043	0	542.691	0	24.2	4	7.7	4	-1E+10	1	-1E+10	1	-1E+10	1	-1E+10	1	-1E+10	1	-1E+10	1
4902551	104	C	07/02/2023	00:16	-131.046	47.848	0	553.10	0	4.3760	0	34.1160	0	27.048	0	547.734	0	22.9	4	7.3	4	-1E+10	1	-1E+10	1	-1E+10	1	-1E+10	1	-1E+10	1	-1E+10	1
4902551	104	C	07/02/2023	00:16	-131.046	47.848	0	557.90	0	4.4000	0	34.1230	0	27.051	0	552.482	0	22.0	4	7.0	4	-1E+10	1	-1E+10	1	-1E+10	1	-1E+10	1	-1E+10	1	-1E+10	1
4902551	104	C	07/02/2023	00:16	-131.046	47.848	0	562.80	0	4.3900	0	34.1330	0	27.060	0	557.327	0	21.6	4	6.9	4	-1E+10	1	-1E+10	1	-1E+10	1	-1E+10	1	-1E+10	1	-1E+10	1
4902551	104	C	07/02/2023	00:16	-131.046	47.848	0	567.80	0	4.3540	0	34.1330	0	27.064	0	562.272	0	21.3	4	6.8	4	-1E+10	1	-1E+10	1	-1E+10	1	-1E+10	1	-1E+10	1	-1E+10	1
4902551	104	C	07/02/2023	00:16	-131.046	47.848	0	572.80	0	4.3380	0	34.1350	0	27.067	0	567.216	0	20.5	4	6.5	4	-1E+10	1	-1E+10	1	-1E+10	1	-1E+10	1	-1E+10	1	-1E+10	1
4902551	104	C	07/02/2023	00:16	-131.046	47.848	0	577.90	0	4.3460	0	34.1430	0	27.073	0	572.260	0	19.9	4	6.3	4	-1E+10	1	-1E+10	1	-1E+10	1	-1E+10	1	-1E+10	1	-1E+10	1
4902551	104	C	07/02/2023	00:16	-131.046	47.848	0	582.70	0	4.3430	0	34.1460	0	27.076	0	577.006	0	19.3	4	6.2	4	-1E+10	1	-1E+10	1	-1E+10	1	-1E+10	1	-1E+10	1	-1E+10	1
4902551	104	C	07/02/2023	00:16	-131.046	47.848	0	587.90	0	4.3410	0	34.1530	0	27.081	0	582.148	0	18.9	4	6.0	4	-1E+10	1	-1E+10	1	-1E+10	1	-1E+10	1	-1E+10	1	-1E+10	1
4902551	104	C	07/02/2023	00:16	-131.046	47.848	0	593.20	0	4.3290	0	34.1550	0	27.084	0	587.389	0	18.6	4	5.9	4	-1E+10	1	-1E+10	1	-1E+10	1	-1E+10	1	-1E+10	1	-1E+10	1
4902551	104	C	07/02/2023	00:16	-131.046	47.848	0	598.00	0	4.3100	0	34.1560	0	27.087	0	592.135	0	18.2	4	5.8	4	-1E+10	1	-1E+10	1	-1E+10	1	-1E+10	1	-1E+10	1	-1E+10	1
4902551	104	C	07/02/2023	00:16	-131.046	47.848	0	602.90	0	4.3250	0	34.1610	0	27.090	0	596.980	0	17.7	4	5.6	4	-1E+10	1	-1E+10	1	-1E+10	1	-1E+10	1	-1E+10	1	-1E+10	1
4902551	104	C	07/02/2023	00:16	-131.046	47.848	0	607.80	0	4.3170	0	34.1660	0	27.094	0	601.825	0	17.6	4	5.6	4	-1E+10	1	-1E+10	1	-1E+10	1	-1E+10	1	-1E+10	1	-1E+10	1
4902551	104	C	07/02/2023	00:16	-131.046	47.848	0	612.70	0	4.2780	0	34.1670	0	27.099	0	606.669	0	17.5	4	5.6	4	-1E+10	1	-1E+10	1	-1E+10	1	-1E+10	1	-1E+10	1	-1E+10	1
4902551	104	C	07/02/2023	00:16	-131.046	47.848	0	617.60	0	4.2620	0	34.1690	0	27.103	0	611.514	0	17.2	4	5.5	4	-1E+10	1	-1E+10	1	-1E+10	1	-1E+10	1	-1E+10	1	-1E+10	1
4902551	104	C	07/02/2023	00:16	-131.046	47.848	0	622.50	0	4.2460	0	34.1730	0	27.108	0	616.358	0	17.2	4	5.5	4	-1E+10	1	-1E+10	1	-1E+10	1	-1E+10	1	-1E+10	1	-1E+10	1
4902551	104	C	07/02/2023	00:16	-131.046	47.848	0	627.90	0	4.2350	0	34.1760	0	27.111	0	621.697	0	17.4	4	5.5	4	-1E+10	1	-1E+10	1	-1E+10	1	-1E+10	1	-1E+10	1	-1E+10	1
4902551	104	C	07/02/2023	00:16	-131.046	47.848	0	633.40	0	4.1790	0	34.1770	0	27.118	0	627.135	0	17.9	4	5.7	4	-1E+10	1	-1E+10	1	-1E+10	1	-1E+10	1	-1E+10	1	-1E+10	1
4902551	104	C	07/02/2023	00:16	-131.046	47.848	0	638.40	0	4.1000	0	34.1690	0	27.120	0	632.077	0	17.6	4	5.6	4	-1E+10	1	-1E+10	1	-1E+10	1	-1E+10	1	-1E+10	1	-1E+10	1
4902551	104	C	07/02/2023	00:16	-131.046	47.848	0	642.90	0	4.0840	0	34.1720	0	27.124	0	636.526	0	16.5	4	5.2	4	-1E+10	1	-1E+10	1	-1E+10	1	-1E+10	1	-1E+10	1	-1E+10	1
4902551	104	C	07/02/2023	00:16	-131.046	47.848	0	647.50	0	4.1190	0	34.1830	0	27.129	0	641.073	0	15.8	4	5.0	4	-1E+10	1	-1E+10	1	-1E+10	1	-1E+10	1	-1E+10	1	-1E+10	1
4902551	104	C	07/02/2023	00:16	-131.046	47.848	0	652.70	0	4.1270	0	34.1910	0	27.135	0	646.214	0	15.4	4	4.9	4	-1E+10	1	-1E+10	1	-1E+10	1	-1E+10	1	-1E+10	1	-1E+10	1
4902551	104	C	07/02/2023	00:16	-131.046	47.848	0	657.80	0	4.1200	0	34.1950	0	27.138	0	651.255	0	15.2	4	4.8	4	-1E+10	1	-1E+10	1	-1E+10	1	-1E+10	1	-1E+10	1	-1E+10	1
4902551	104	C	07/02/2023	00:16	-131.046	47.848	0	663.10	0	4.1160	0	34.1980	0	27.141	0	656.494	0	15.1	4	4.8	4	-1E+10	1	-1E+10	1	-1E+10	1	-1E+10	1	-1E+10	1	-1E+10	1
4902551	104	C	07/02/2023	00:16	-131.046	47.848	0	667.80	0	4.0920	0	34.2010	0	27.146	0	661.140	0	15.0	4	4.8	4	-1E+10	1	-1E+10	1	-1E+10	1	-1E+10	1	-1E+10	1	-1E+10	1
4902551	104	C	07/02/2023	00:16	-131.046	47.848	0	672.90	0	4.0660	0	34.2020	0	27.150	0	666.181	0	15.0	4	4.7	4	-1E+10	1	-1E+10	1	-1E+10	1	-1E+10	1	-1E+10	1	-1E+10	1
4902551	104	C	07/02/2023	00:16	-131.046	47.848	0	678.10	0	4.0440	0	34.2060	0	27.155	0	671.320	0	15.0	4	4.7	4	-1E+10	1	-1E+10	1	-1E+10	1	-1E+10	1	-1E+10	1	-1E+10	1
4902551	104	C	07/02/2023	00:16	-131.046	47.848	0	683.00	0	4.0170	0	34.2090	0	27.160	0	676.163	0	15.1	4	4.8	4	-1E+10	1	-1E+10	1	-1E+10	1	-1E+10	1	-1E+10	1	-1E+10	1
4902551	104	C	07/02/2023	00:16	-131.046	47.848	0	687.80	0	3.9830	0	34.2080	0	27.163	0	680.908	0	15.3	4	4.8	4	-1E+10	1	-1E+10	1	-1E+10	1	-1E+10	1	-1E+10	1	-1E+10	1
4902551	104	C	07/02/2023	00:16	-131.046	47.848	0	692.80	0	3.9460	0	34.2110	0	27.169	0	685.849	0	15.5	4	4.9	4	-1E+10	1	-1E+10	1	-1E+10	1	-1E+10	1	-1E+10	1	-1E+10	1
4902551	104	C	07/02/2023	00:16	-131.046	47.848	0	697.70	0	3.9040	0	34.2110	0	27.174	0	690.692	0	15.8	4	5.0	4	-1E+10	1	-1E+10	1	-1E+10	1	-1E+10	1	-1E+10	1	-1E+10	1
4902551	104	C	07/02/2023	00:16	-131.046	47.848	0	702.70	0	3.8680	0	34.2090	0	27.176	0	695.633	0	15.8	4	5.0	4	-1E+10	1	-1E+10	1	-1E+10	1	-1E+10	1	-1E+10	1	-1E+10	1
4902551	104	C	07/02/2023	00:16	-131.046	47.848	0	707.80	0	3.8540	0	34.2110	0	27.179	0	700.674	0	15.8	4	5.0	4	-1E+10	1	-1E+10	1	-1E+10	1	-1E+10	1	-1E+10	1	-1E+10	1
4902551	104	C	07/02/2023	00:16	-131.046	47.848	0	712.90	0	3.8290	0	34.2120	0	27.182	0	705.714	0	15.7	4	4.9	4	-1E+10	1	-1E+10	1	-1E+10	1	-1E+10	1	-1E+10	1	-1E+10	1
4902551	104	C	07/02/2023	00:16	-131.046	47.848	0	718.10	0	3.8190	0	34.2150	0	27.185	0	710.852	0	15.5	4	4.9	4	-1E+10	1	-1E+10	1	-1E+10	1	-1E+10	1	-1E+10	1	-1E+10	1
4902551	104	C	07/02/2023	00:16	-131.046	47.848	0	722.90	0	3.8160	0	34.2170	0	27.187	0	715.596	0	15.3	4	4.8	4	-1E+10	1	-1E+10	1	-1E+10	1	-1E+10	1	-1E+10	1	-1E+10	1
4902551	104	C	07/02/2023	00:16	-131.046	47.848	0	727.70	0	3.8050	0	34.2200	0	27.191	0	720.339	0	15.1	4	4.8	4	-1E+10	1	-1E+10	1	-1E+10	1	-1E+10	1	-1E+10	1	-1E+10	1
4902551	104	C	07/02/2023	00:16	-131.046	47.848	0	733.10	0	3.7850	0	34.2250	0	27.197	0	725.675	0	15.1	4	4.8	4	-1E+10	1	-1E+10	1	-1E+10	1	-1E+10	1	-1E+10	1	-1E+10	1
4902551	104	C	07/02/2023	00:16	-131.046	47.848	0	738.10	0	3.7740	0	34.2270	0	27.200	0	730.615	0	15.2	4	4.8	4	-1E+10	1	-1E+10	1	-1E+10	1	-1E+10	1	-1E+10	1	-1E+10	1
4902551	104	C	07/02/2023	00:16	-131.046	47.848	0	743.00	0	3.7580	0	34.2290	0	27.203	0	735.457	0	15.3	4	4.8	4	-1E+10	1	-1E+10	1	-1E+10	1	-1E+10	1	-1E+10	1	-1E+10	1
4902551	104	C	07/02/2023	00:16	-131.046	47.848	0	748.10	0	3.7420	0	34.2300	0	27.205	0	740.496	0	15.6	4	4.9	4	-1E+10	1	-1E+10	1	-1E+10	1	-1E+10	1	-1E+10	1	-1E+10	1
4902551	104	C	07/02/2023	00:16	-131.046	47.848	0	752.80	0	3.7010	0	34.2140	0	27.196	0	745.140	0	15.6	4	4.9	4	-1E+10	1	-1E+10	1	-1E+10	1	-1E+10	1	-1E+10	1	-1E+10	1
4902551	104	C	07/02/2023	00:16	-131.046	47.848	0	758.00	0	3.6970	0	34.2310	0	27.210	0	750.278	0	15.3	4	4.8	4	-1E+10	1	-1E+10	1	-1E+10	1	-1E+10	1	-1E+10	1	-1E+10	1
4902551	104	C	07/02/2023	00:16	-131.046	47.848	0	763.30	0	3.6810	0	34.2350	0	27.215	0	755.514	0	15.1	4	4.7	4	-1E+10	1	-1E+10	1	-1E+10	1	-1E+10	1	-1E+10	1	-1E+10	1
4902551	104	C	07/02/2023	00:16	-131.046	47.848	0	768.10	0	3.6640	0	34.2380	0	27.219	0	760.257	0	14.9	4	4.7	4	-1E+10	1	-1E+10	1	-1E+10	1	-1E+10	1	-1E+10	1	-1E+10	1
4902551	104	C	07/02/2023	00:16	-131.046	47.848	0	772.90	0	3.6480	0	34.2420	0	27.224	0	764.999	0	14.7	4	4.6	4	-1E+10	1	-1E+10	1	-1E+10	1	-1E+10	1	-1E+10	1	-1E+10	1
4902551	104	C	07/02/2023	00:16	-131.046	47.848	0	777.90	0	3.6260	0	34.2470	0	27.230	0	769.938	0	14.4	4	4.5	4	-1E+10	1	-1E+10	1	-1E+10	1	-1E+10	1	-1E+10	1	-1E+10	1
4902551	104	C	07/02/2023	00:16	-131.046	47.848	0	782.90	0	3.6110	0	34.2520	0	27.236	0	774.878	0	14.2	4	4.4	4	-1E+10	1	-1E+10	1	-1E+10	1	-1E+10	1	-1E+10	1	-1E+10	1
4902551	104	C	07/02/2023	00:16	-131.046	47.848	0	788.10	0	3.6000	0	34.2560	0	27.240	0	780.015	0	14.1	4	4.4	4	-1E+10	1	-1E+10	1	-1E+10	1	-1E+10	1	-1E+10	1	-1E+10	1
4902551	104	C	07/02/2023	00:16	-131.046	47.848	0	792.80	0	3.5960	0	34.2570	0	27.241	0	784.658	0	13.9	4	4.4	4	-1E+10	1	-1E+10	1	-1E+10	1	-1E+10	1	-1E+10	1	-1E+10	1
4902551	104	C	07/02/2023	00:16	-131.046	47.848	0	797.60	0	3.5920	0	34.2580	0	27.242	0	789.400	0	13.8	4	4.3	4	-1E+10	1	-1E+10	1	-1E+10	1	-1E+10	1	-1E+10	1	-1E+10	1
4902551	104	C	07/02/2023	00:16	-131.046	47.848	0	802.90	0	3.5830	0	34.2630	0	27.247	0	794.635	0	13.6	4	4.2	4	-1E+10	1	-1E+10	1	-1E+10	1	-1E+10	1	-1E+10	1	-1E+10	1
4902551	104	C	07/02/2023	00:16	-131.046	47.848	0	807.70	0	3.5720	0	34.2650	0	27.250	0	799.376	0	13.4	4	4.2	4	-1E+10	1	-1E+10	1	-1E+10	1	-1E+10	1	-1E+10	1	-1E+10	1
4902551	104	C	07/02/2023	00:16	-131.046	47.848	0	812.90	0	3.5550	0	34.2700	0	27.256	0	804.513	0	13.2	4	4.1	4	-1E+10	1	-1E+10	1	-1E+10	1	-1E+10	1	-1E+10	1	-1E+10	1
4902551	104	C	07/02/2023	00:16	-131.046	47.848	0	818.30	0	3.5450	0	34.2730	0	27.259	0	809.847	0	13.0	4	4.1	4	-1E+10	1	-1E+10	1	-1E+10	1	-1E+10	1	-1E+10	1	-1E+10	1
4902551	104	C	07/02/2023	00:16	-131.046	47.848	0	823.30	0	3.5380	0	34.2760	0	27.262	0	814.785	0	12.8	4	4.0	4	-1E+10	1	-1E+10	1	-1E+10	1	-1E+10	1	-1E+10	1	-1E+10	1
4902551	104	C	07/02/2023	00:16	-131.046	47.848	0	827.90	0	3.5290	0	34.2810	0	27.267	0	819.329	0	12.7	4	4.0	4	-1E+10	1	-1E+10	1	-1E+10	1	-1E+10	1	-1E+10	1	-1E+10	1
4902551	104	C	07/02/2023	00:16	-131.046	47.848	0	832.60	0	3.5240	0	34.2820	0	27.268	0	823.971	0	12.6	4	3.9	4	-1E+10	1	-1E+10	1	-1E+10	1	-1E+10	1	-1E+10	1	-1E+10	1
4902551	104	C	07/02/2023	00:16	-131.046	47.848	0	837.80	0	3.5170	0	34.2840	0	27.271	0	829.107	0	12.5	4	3.9	4	-1E+10	1	-1E+10	1	-1E+10	1	-1E+10	1	-1E+10	1	-1E+10	1
4902551	104	C	07/02/2023	00:16	-131.046	47.848	0	843.10	0	3.5080	0	34.2860	0	27.273	0	834.341	0	12.4	4	3.9	4	-1E+10	1	-1E+10	1	-1E+10	1	-1E+10	1	-1E+10	1	-1E+10	1
4902551	104	C	07/02/2023	00:16	-131.046	47.848	0	848.00	0	3.5000	0	34.2880	0	27.276	0	839.180	0	12.1	4	3.8	4	-1E+10	1	-1E+10	1	-1E+10	1	-1E+10	1	-1E+10	1	-1E+10	1
4902551	104	C	07/02/2023	00:16	-131.046	47.848	0	852.90	0	3.4980	0	34.2940	0	27.281	0	844.019	0	11.9	4	3.7	4	-1E+10	1	-1E+10	1	-1E+10	1	-1E+10	1	-1E+10	1	-1E+10	1
4902551	104	C	07/02/2023	00:16	-131.046	47.848	0	858.10	0	3.4890	0	34.2980	0	27.285	0	849.155	0	11.8	4	3.7	4	-1E+10	1	-1E+10	1	-1E+10	1	-1E+10	1	-1E+10	1	-1E+10	1
4902551	104	C	07/02/2023	00:16	-131.046	47.848	0	862.90	0	3.4850	0	34.3000	0	27.287	0	853.895	0	11.7	4	3.7	4	-1E+10	1	-1E+10	1	-1E+10	1	-1E+10	1	-1E+10	1	-1E+10	1
4902551	104	C	07/02/2023	00:16	-131.046	47.848	0	867.70	0	3.4830	0	34.3030	0	27.289	0	858.635	0	11.6	4	3.6	4	-1E+10	1	-1E+10	1	-1E+10	1	-1E+10	1	-1E+10	1	-1E+10	1
4902551	104	C	07/02/2023	00:16	-131.046	47.848	0	872.90	0	3.4750	0	34.3070	0	27.293	0	863.770	0	11.5	4	3.6	4	-1E+10	1	-1E+10	1	-1E+10	1	-1E+10	1	-1E+10	1	-1E+10	1
4902551	104	C	07/02/2023	00:16	-131.046	47.848	0	878.20	0	3.4630	0	34.3090	0	27.296	0	869.003	0	11.5	4	3.6	4	-1E+10	1	-1E+10	1	-1E+10	1	-1E+10	1	-1E+10	1	-1E+10	1
4902551	104	C	07/02/2023	00:16	-131.046	47.848	0	883.10	0	3.4470	0	34.3110	0	27.299	0	873.842	0	11.6	4	3.6	4	-1E+10	1	-1E+10	1	-1E+10	1	-1E+10	1	-1E+10	1	-1E+10	1
4902551	104	C	07/02/2023	00:16	-131.046	47.848	0	888.00	0	3.4310	0	34.3120	0	27.302	0	878.680	0	11.5	4	3.6	4	-1E+10	1	-1E+10	1	-1E+10	1	-1E+10	1	-1E+10	1	-1E+10	1
4902551	104	C	07/02/2023	00:16	-131.046	47.848	0	892.80	0	3.4260	0	34.3130	0	27.303	0	883.420	0	11.4	4	3.6	4	-1E+10	1	-1E+10	1	-1E+10	1	-1E+10	1	-1E+10	1	-1E+10	1
4902551	104	C	07/02/2023	00:16	-131.046	47.848	0	897.70	0	3.4190	0	34.3160	0	27.306	0	888.258	0	11.3	4	3.5	4	-1E+10	1	-1E+10	1	-1E+10	1	-1E+10	1	-1E+10	1	-1E+10	1
4902551	104	C	07/02/2023	00:16	-131.046	47.848	0	903.00	0	3.4180	0	34.3190	0	27.309	0	893.491	0	11.3	4	3.5	4	-1E+10	1	-1E+10	1	-1E+10	1	-1E+10	1	-1E+10	1	-1E+10	1
4902551	104	C	07/02/2023	00:16	-131.046	47.848	0	908.20	0	3.4160	0	34.3200	0	27.310	0	898.625	0	11.2	4	3.5	4	-1E+10	1	-1E+10	1	-1E+10	1	-1E+10	1	-1E+10	1	-1E+10	1
4902551	104	C	07/02/2023	00:16	-131.046	47.848	0	913.00	0	3.4110	0	34.3220	0	27.312	0	903.364	0	11.2	4	3.5	4	-1E+10	1	-1E+10	1	-1E+10	1	-1E+10	1	-1E+10	1	-1E+10	1
4902551	104	C	07/02/2023	00:16	-131.046	47.848	0	917.90	0	3.4020	0	34.3250	0	27.315	0	908.202	0	11.1	4	3.5	4	-1E+10	1	-1E+10	1	-1E+10	1	-1E+10	1	-1E+10	1	-1E+10	1
4902551	104	C	07/02/2023	00:16	-131.046	47.848	0	923.20	0	3.3970	0	34.3270	0	27.317	0	913.434	0	11.1	4	3.4	4	-1E+10	1	-1E+10	1	-1E+10	1	-1E+10	1	-1E+10	1	-1E+10	1
4902551	104	C	07/02/2023	00:16	-131.046	47.848	0	928.00	0	3.3890	0	34.3290	0	27.319	0	918.173	0	11.1	4	3.4	4	-1E+10	1	-1E+10	1	-1E+10	1	-1E+10	1	-1E+10	1	-1E+10	1
4902551	104	C	07/02/2023	00:16	-131.046	47.848	0	932.80	0	3.3820	0	34.3300	0	27.321	0	922.911	0	11.0	4	3.4	4	-1E+10	1	-1E+10	1	-1E+10	1	-1E+10	1	-1E+10	1	-1E+10	1
4902551	104	C	07/02/2023	00:16	-131.046	47.848	0	938.10	0	3.3750	0	34.3320	0	27.323	0	928.143	0	11.0	4	3.4	4	-1E+10	1	-1E+10	1	-1E+10	1	-1E+10	1	-1E+10	1	-1E+10	1
4902551	104	C	07/02/2023	00:16	-131.046	47.848	0	943.00	0	3.3690	0	34.3330	0	27.325	0	932.980	0	11.0	4	3.4	4	-1E+10	1	-1E+10	1	-1E+10	1	-1E+10	1	-1E+10	1	-1E+10	1
4902551	104	C	07/02/2023	00:16	-131.046	47.848	0	947.90	0	3.3640	0	34.3350	0	27.327	0	937.817	0	11.0	4	3.4	4	-1E+10	1	-1E+10	1	-1E+10	1	-1E+10	1	-1E+10	1	-1E+10	1
4902551	104	C	07/02/2023	00:16	-131.046	47.848	0	952.90	0	3.3490	0	34.3390	0	27.331	0	942.753	0	11.0	4	3.4	4	-1E+10	1	-1E+10	1	-1E+10	1	-1E+10	1	-1E+10	1	-1E+10	1
4902551	104	C	07/02/2023	00:16	-131.046	47.848	0	957.80	0	3.3330	0	34.3420	0	27.335	0	947.590	0	11.0	4	3.4	4	-1E+10	1	-1E+10	1	-1E+10	1	-1E+10	1	-1E+10	1	-1E+10	1
4902551	104	C	07/02/2023	00:16	-131.046	47.848	0	962.80	0	3.3150	0	34.3440	0	27.339	0	952.525	0	11.1	4	3.4	4	-1E+10	1	-1E+10	1	-1E+10	1	-1E+10	1	-1E+10	1	-1E+10	1
4902551	104	C	07/02/2023	00:16	-131.046	47.848	0	967.80	0	3.2870	0	34.3470	0	27.344	0	957.460	0	11.1	4	3.5	4	-1E+10	1	-1E+10	1	-1E+10	1	-1E+10	1	-1E+10	1	-1E+10	1
4902551	104	C	07/02/2023	00:16	-131.046	47.848	0	972.80	0	3.2690	0	34.3470	0	27.345	0	962.395	0	11.2	4	3.5	4	-1E+10	1	-1E+10	1	-1E+10	1	-1E+10	1	-1E+10	1	-1E+10	1
4902551	104	C	07/02/2023	00:16	-131.046	47.848	0	977.90	0	3.2600	0	34.3520	0	27.350	0	967.429	0	11.1	4	3.5	4	-1E+10	1	-1E+10	1	-1E+10	1	-1E+10	1	-1E+10	1	-1E+10	1
4902551	104	C	07/02/2023	00:16	-131.046	47.848	0	983.00	0	3.2500	0	34.3540	0	27.353	0	972.463	0	11.2	4	3.5	4	-1E+10	1	-1E+10	1	-1E+10	1	-1E+10	1	-1E+10	1	-1E+10	1
4902551	104	C	07/02/2023	00:16	-131.046	47.848	0	987.90	0	3.2380	0	34.3560	0	27.355	0	977.299	0	11.2	4	3.5	4	-1E+10	1	-1E+10	1	-1E+10	1	-1E+10	1	-1E+10	1	-1E+10	1
4902551	104	C	07/02/2023	00:16	-131.046	47.848	0	992.70	0	3.2260	0	34.3580	0	27.358	0	982.036	0	11.2	4	3.5	4	-1E+10	1	-1E+10	1	-1E+10	1	-1E+10	1	-1E+10	1	-1E+10	1
4902551	104	C	07/02/2023	00:16	-131.046	47.848	0	997.60	0	3.2180	0	34.3580	0	27.359	0	986.872	0	11.3	4	3.5	4	-1E+10	1	-1E+10	1	-1E+10	1	-1E+10	1	-1E+10	1	-1E+10	1
4902551	104	C	07/02/2023	00:16	-131.046	47.848	0	1005.10	0	3.2030	0	34.3600	0	27.362	0	994.273	0	11.3	4	3.5	4	-1E+10	1	-1E+10	1	-1E+10	1	-1E+10	1	-1E+10	1	-1E+10	1
4902551	104	C	07/02/2023	00:16	-131.046	47.848	0	1015.10	0	3.1630	0	34.3620	0	27.367	0	1004.142	0	11.5	4	3.5	4	-1E+10	1	-1E+10	1	-1E+10	1	-1E+10	1	-1E+10	1	-1E+10	1
4902551	104	C	07/02/2023	00:16	-131.046	47.848	0	1025.70	0	3.1370	0	34.3630	0	27.371	0	1014.601	0	11.5	4	3.6	4	-1E+10	1	-1E+10	1	-1E+10	1	-1E+10	1	-1E+10	1	-1E+10	1
4902551	104	C	07/02/2023	00:16	-131.046	47.848	0	1035.60	0	3.1220	0	34.3660	0	27.374	0	1024.370	0	11.5	4	3.6	4	-1E+10	1	-1E+10	1	-1E+10	1	-1E+10	1	-1E+10	1	-1E+10	1
4902551	104	C	07/02/2023	00:16	-131.046	47.848	0	1045.60	0	3.1030	0	34.3710	0	27.380	0	1034.237	0	11.5	4	3.6	4	-1E+10	1	-1E+10	1	-1E+10	1	-1E+10	1	-1E+10	1	-1E+10	1
4902551	104	C	07/02/2023	00:16	-131.046	47.848	0	1055.40	0	3.0850	0	34.3750	0	27.385	0	1043.906	0	11.6	4	3.6	4	-1E+10	1	-1E+10	1	-1E+10	1	-1E+10	1	-1E+10	1	-1E+10	1
4902551	104	C	07/02/2023	00:16	-131.046	47.848	0	1065.40	0	3.0650	0	34.3790	0	27.390	0	1053.772	0	11.6	4	3.6	4	-1E+10	1	-1E+10	1	-1E+10	1	-1E+10	1	-1E+10	1	-1E+10	1
4902551	104	C	07/02/2023	00:16	-131.046	47.848	0	1075.40	0	3.0460	0	34.3830	0	27.395	0	1063.638	0	11.7	4	3.6	4	-1E+10	1	-1E+10	1	-1E+10	1	-1E+10	1	-1E+10	1	-1E+10	1
4902551	104	C	07/02/2023	00:16	-131.046	47.848	0	1085.50	0	3.0360	0	34.3850	0	27.398	0	1073.602	0	11.8	4	3.6	4	-1E+10	1	-1E+10	1	-1E+10	1	-1E+10	1	-1E+10	1	-1E+10	1
4902551	104	C	07/02/2023	00:16	-131.046	47.848	0	1095.70	0	3.0220	0	34.3880	0	27.401	0	1083.663	0	11.8	4	3.7	4	-1E+10	1	-1E+10	1	-1E+10	1	-1E+10	1	-1E+10	1	-1E+10	1
4902551	104	C	07/02/2023	00:16	-131.046	47.848	0	1105.50	0	2.9970	0	34.3920	0	27.407	0	1093.330	0	12.0	4	3.7	4	-1E+10	1	-1E+10	1	-1E+10	1	-1E+10	1	-1E+10	1	-1E+10	1
4902551	104	C	07/02/2023	00:16	-131.046	47.848	0	1115.30	0	2.9730	0	34.3960	0	27.412	0	1102.997	0	12.1	4	3.7	4	-1E+10	1	-1E+10	1	-1E+10	1	-1E+10	1	-1E+10	1	-1E+10	1
4902551	104	C	07/02/2023	00:16	-131.046	47.848	0	1125.20	0	2.9530	0	34.4000	0	27.417	0	1112.761	0	12.2	4	3.8	4	-1E+10	1	-1E+10	1	-1E+10	1	-1E+10	1	-1E+10	1	-1E+10	1
4902551	104	C	07/02/2023	00:16	-131.046	47.848	0	1135.30	0	2.9340	0	34.4040	0	27.422	0	1122.723	0	12.3	4	3.8	4	-1E+10	1	-1E+10	1	-1E+10	1	-1E+10	1	-1E+10	1	-1E+10	1
4902551	104	C	07/02/2023	00:16	-131.046	47.848	0	1145.40	0	2.9190	0	34.4060	0	27.425	0	1132.683	0	12.4	4	3.8	4	-1E+10	1	-1E+10	1	-1E+10	1	-1E+10	1	-1E+10	1	-1E+10	1
4902551	104	C	07/02/2023	00:16	-131.046	47.848	0	1155.50	0	2.8980	0	34.4100	0	27.430	0	1142.644	0	12.6	4	3.9	4	-1E+10	1	-1E+10	1	-1E+10	1	-1E+10	1	-1E+10	1	-1E+10	1
4902551	104	C	07/02/2023	00:16	-131.046	47.848	0	1165.30	0	2.8860	0	34.4120	0	27.433	0	1152.308	0	12.7	4	3.9	4	-1E+10	1	-1E+10	1	-1E+10	1	-1E+10	1	-1E+10	1	-1E+10	1
4902551	104	C	07/02/2023	00:16	-131.046	47.848	0	1175.40	0	2.8670	0	34.4160	0	27.438	0	1162.267	0	12.9	4	4.0	4	-1E+10	1	-1E+10	1	-1E+10	1	-1E+10	1	-1E+10	1	-1E+10	1
4902551	104	C	07/02/2023	00:16	-131.046	47.848	0	1185.40	0	2.8460	0	34.4200	0	27.443	0	1172.128	0	13.0	4	4.0	4	-1E+10	1	-1E+10	1	-1E+10	1	-1E+10	1	-1E+10	1	-1E+10	1
4902551	104	C	07/02/2023	00:16	-131.046	47.848	0	1195.00	0	2.8350	0	34.4220	0	27.446	0	1181.593	0	13.2	4	4.0	4	-1E+10	1	-1E+10	1	-1E+10	1	-1E+10	1	-1E+10	1	-1E+10	1
4902551	104	C	07/02/2023	00:16	-131.046	47.848	0	1205.10	0	2.8210	0	34.4250	0	27.449	0	1191.551	0	13.4	4	4.1	4	-1E+10	1	-1E+10	1	-1E+10	1	-1E+10	1	-1E+10	1	-1E+10	1
4902551	104	C	07/02/2023	00:16	-131.046	47.848	0	1215.20	0	2.8030	0	34.4290	0	27.454	0	1201.509	0	13.5	4	4.2	4	-1E+10	1	-1E+10	1	-1E+10	1	-1E+10	1	-1E+10	1	-1E+10	1
4902551	104	C	07/02/2023	00:16	-131.046	47.848	0	1225.50	0	2.7870	0	34.4320	0	27.458	0	1211.663	0	13.7	4	4.2	4	-1E+10	1	-1E+10	1	-1E+10	1	-1E+10	1	-1E+10	1	-1E+10	1
4902551	104	C	07/02/2023	00:16	-131.046	47.848	0	1235.80	0	2.7720	0	34.4340	0	27.461	0	1221.817	0	13.9	4	4.3	4	-1E+10	1	-1E+10	1	-1E+10	1	-1E+10	1	-1E+10	1	-1E+10	1
4902551	104	C	07/02/2023	00:16	-131.046	47.848	0	1245.40	0	2.7540	0	34.4370	0	27.465	0	1231.281	0	14.2	4	4.3	4	-1E+10	1	-1E+10	1	-1E+10	1	-1E+10	1	-1E+10	1	-1E+10	1
4902551	104	C	07/02/2023	00:16	-131.046	47.848	0	1255.30	0	2.7390	0	34.4400	0	27.469	0	1241.039	0	14.4	4	4.4	4	-1E+10	1	-1E+10	1	-1E+10	1	-1E+10	1	-1E+10	1	-1E+10	1
4902551	104	C	07/02/2023	00:16	-131.046	47.848	0	1265.50	0	2.7260	0	34.4430	0	27.473	0	1251.093	0	14.7	4	4.5	4	-1E+10	1	-1E+10	1	-1E+10	1	-1E+10	1	-1E+10	1	-1E+10	1
4902551	104	C	07/02/2023	00:16	-131.046	47.848	0	1275.50	0	2.7170	0	34.4470	0	27.477	0	1260.949	0	15.0	4	4.6	4	-1E+10	1	-1E+10	1	-1E+10	1	-1E+10	1	-1E+10	1	-1E+10	1
4902551	104	C	07/02/2023	00:16	-131.046	47.848	0	1285.10	0	2.7170	0	34.4500	0	27.479	0	1270.411	0	15.2	4	4.7	4	-1E+10	1	-1E+10	1	-1E+10	1	-1E+10	1	-1E+10	1	-1E+10	1
4902551	104	C	07/02/2023	00:16	-131.046	47.848	0	1295.30	0	2.7050	0	34.4510	0	27.481	0	1280.463	0	15.4	4	4.7	4	-1E+10	1	-1E+10	1	-1E+10	1	-1E+10	1	-1E+10	1	-1E+10	1
4902551	104	C	07/02/2023	00:16	-131.046	47.848	0	1305.40	0	2.6950	0	34.4530	0	27.483	0	1290.417	0	15.6	4	4.8	4	-1E+10	1	-1E+10	1	-1E+10	1	-1E+10	1	-1E+10	1	-1E+10	1
4902551	104	C	07/02/2023	00:16	-131.046	47.848	0	1315.30	0	2.6770	0	34.4550	0	27.487	0	1300.172	0	15.7	4	4.8	4	-1E+10	1	-1E+10	1	-1E+10	1	-1E+10	1	-1E+10	1	-1E+10	1
4902551	104	C	07/02/2023	00:16	-131.046	47.848	0	1325.30	0	2.6640	0	34.4550	0	27.488	0	1310.026	0	15.8	4	4.9	4	-1E+10	1	-1E+10	1	-1E+10	1	-1E+10	1	-1E+10	1	-1E+10	1
4902551	104	C	07/02/2023	00:16	-131.046	47.848	0	1335.10	0	2.6510	0	34.4570	0	27.491	0	1319.683	0	16.1	4	4.9	4	-1E+10	1	-1E+10	1	-1E+10	1	-1E+10	1	-1E+10	1	-1E+10	1
4902551	104	C	07/02/2023	00:16	-131.046	47.848	0	1345.30	0	2.6410	0	34.4590	0	27.493	0	1329.733	0	16.4	4	5.0	4	-1E+10	1	-1E+10	1	-1E+10	1	-1E+10	1	-1E+10	1	-1E+10	1
4902551	104	C	07/02/2023	00:16	-131.046	47.848	0	1355.60	0	2.6270	0	34.4620	0	27.497	0	1339.881	0	16.7	4	5.1	4	-1E+10	1	-1E+10	1	-1E+10	1	-1E+10	1	-1E+10	1	-1E+10	1
4902551	104	C	07/02/2023	00:16	-131.046	47.848	0	1365.30	0	2.6160	0	34.4640	0	27.499	0	1349.437	0	17.0	4	5.2	4	-1E+10	1	-1E+10	1	-1E+10	1	-1E+10	1	-1E+10	1	-1E+10	1
4902551	104	C	07/02/2023	00:16	-131.046	47.848	0	1375.50	0	2.5910	0	34.4670	0	27.504	0	1359.486	0	17.3	4	5.3	4	-1E+10	1	-1E+10	1	-1E+10	1	-1E+10	1	-1E+10	1	-1E+10	1
4902551	104	C	07/02/2023	00:16	-131.046	47.848	0	1385.70	0	2.5740	0	34.4690	0	27.507	0	1369.534	0	17.7	4	5.4	4	-1E+10	1	-1E+10	1	-1E+10	1	-1E+10	1	-1E+10	1	-1E+10	1
4902551	104	C	07/02/2023	00:16	-131.046	47.848	0	1395.40	0	2.5650	0	34.4710	0	27.509	0	1379.089	0	17.9	4	5.5	4	-1E+10	1	-1E+10	1	-1E+10	1	-1E+10	1	-1E+10	1	-1E+10	1
4902551	104	C	07/02/2023	00:16	-131.046	47.848	0	1405.30	0	2.5510	0	34.4730	0	27.512	0	1388.841	0	18.4	4	5.6	4	-1E+10	1	-1E+10	1	-1E+10	1	-1E+10	1	-1E+10	1	-1E+10	1
4902551	104	C	07/02/2023	00:16	-131.046	47.848	0	1415.20	0	2.5310	0	34.4770	0	27.517	0	1398.592	0	18.9	4	5.8	4	-1E+10	1	-1E+10	1	-1E+10	1	-1E+10	1	-1E+10	1	-1E+10	1
4902551	104	C	07/02/2023	00:16	-131.046	47.848	0	1425.20	0	2.5160	0	34.4790	0	27.520	0	1408.441	0	19.2	4	5.9	4	-1E+10	1	-1E+10	1	-1E+10	1	-1E+10	1	-1E+10	1	-1E+10	1
4902551	104	C	07/02/2023	00:16	-131.046	47.848	0	1435.30	0	2.5050	0	34.4810	0	27.523	0	1418.389	0	19.7	4	6.0	4	-1E+10	1	-1E+10	1	-1E+10	1	-1E+10	1	-1E+10	1	-1E+10	1
4902551	104	C	07/02/2023	00:16	-131.046	47.848	0	1445.60	0	2.4890	0	34.4830	0	27.526	0	1428.533	0	19.9	4	6.1	4	-1E+10	1	-1E+10	1	-1E+10	1	-1E+10	1	-1E+10	1	-1E+10	1
4902551	104	C	07/02/2023	00:16	-131.046	47.848	0	1455.40	0	2.4770	0	34.4850	0	27.528	0	1438.184	0	20.2	4	6.1	4	-1E+10	1	-1E+10	1	-1E+10	1	-1E+10	1	-1E+10	1	-1E+10	1
4902551	104	C	07/02/2023	00:16	-131.046	47.848	0	1465.50	0	2.4590	0	34.4860	0	27.531	0	1448.129	0	20.7	4	6.3	4	-1E+10	1	-1E+10	1	-1E+10	1	-1E+10	1	-1E+10	1	-1E+10	1
4902551	104	C	07/02/2023	00:16	-131.046	47.848	0	1475.30	0	2.4410	0	34.4900	0	27.535	0	1457.780	0	21.4	4	6.5	4	-1E+10	1	-1E+10	1	-1E+10	1	-1E+10	1	-1E+10	1	-1E+10	1
4902551	104	C	07/02/2023	00:16	-131.046	47.848	0	1485.30	0	2.4290	0	34.4930	0	27.539	0	1467.626	0	22.5	4	6.8	4	-1E+10	1	-1E+10	1	-1E+10	1	-1E+10	1	-1E+10	1	-1E+10	1
4902551	104	C	07/02/2023	00:16	-131.046	47.848	0	1495.30	0	2.4320	0	34.4980	0	27.543	0	1477.472	0	23.7	4	7.2	4	-1E+10	1	-1E+10	1	-1E+10	1	-1E+10	1	-1E+10	1	-1E+10	1
4902551	104	C	07/02/2023	00:16	-131.046	47.848	0	1505.60	0	2.4270	0	34.5000	0	27.545	0	1487.613	0	23.9	4	7.3	4	-1E+10	1	-1E+10	1	-1E+10	1	-1E+10	1	-1E+10	1	-1E+10	1
4902551	104	C	07/02/2023	00:16	-131.046	47.848	0	1515.50	0	2.4070	0	34.5010	0	27.547	0	1497.360	0	24.3	4	7.4	4	-1E+10	1	-1E+10	1	-1E+10	1	-1E+10	1	-1E+10	1	-1E+10	1
4902551	104	C	07/02/2023	00:16	-131.046	47.848	0	1525.50	0	2.3900	0	34.5050	0	27.552	0	1507.204	0	25.2	4	7.7	4	-1E+10	1	-1E+10	1	-1E+10	1	-1E+10	1	-1E+10	1	-1E+10	1
4902551	104	C	07/02/2023	00:16	-131.046	47.848	0	1535.50	0	2.3730	0	34.5070	0	27.555	0	1517.049	0	25.6	4	7.8	4	-1E+10	1	-1E+10	1	-1E+10	1	-1E+10	1	-1E+10	1	-1E+10	1
4902551	104	C	07/02/2023	00:16	-131.046	47.848	0	1545.20	0	2.3600	0	34.5090	0	27.558	0	1526.597	0	26.4	4	8.0	4	-1E+10	1	-1E+10	1	-1E+10	1	-1E+10	1	-1E+10	1	-1E+10	1
4902551	104	C	07/02/2023	00:16	-131.046	47.848	0	1555.10	0	2.3510	0	34.5120	0	27.561	0	1536.342	0	27.4	4	8.3	4	-1E+10	1	-1E+10	1	-1E+10	1	-1E+10	1	-1E+10	1	-1E+10	1
4902551	104	C	07/02/2023	00:16	-131.046	47.848	0	1565.20	0	2.3400	0	34.5150	0	27.564	0	1546.283	0	28.4	4	8.6	4	-1E+10	1	-1E+10	1	-1E+10	1	-1E+10	1	-1E+10	1	-1E+10	1
4902551	104	C	07/02/2023	00:16	-131.046	47.848	0	1575.20	0	2.3310	0	34.5180	0	27.567	0	1556.126	0	29.6	4	9.0	4	-1E+10	1	-1E+10	1	-1E+10	1	-1E+10	1	-1E+10	1	-1E+10	1
4902551	104	C	07/02/2023	00:16	-131.046	47.848	0	1585.30	0	2.3190	0	34.5220	0	27.572	0	1566.066	0	30.7	4	9.3	4	-1E+10	1	-1E+10	1	-1E+10	1	-1E+10	1	-1E+10	1	-1E+10	1
4902551	104	C	07/02/2023	00:16	-131.046	47.848	0	1595.60	0	2.3030	0	34.5250	0	27.575	0	1576.203	0	31.2	4	9.5	4	-1E+10	1	-1E+10	1	-1E+10	1	-1E+10	1	-1E+10	1	-1E+10	1
4902551	104	C	07/02/2023	00:16	-131.046	47.848	0	1605.60	0	2.2940	0	34.5260	0	27.577	0	1586.044	0	31.6	4	9.6	4	-1E+10	1	-1E+10	1	-1E+10	1	-1E+10	1	-1E+10	1	-1E+10	1
4902551	104	C	07/02/2023	00:16	-131.046	47.848	0	1615.30	0	2.2840	0	34.5270	0	27.579	0	1595.589	0	32.1	4	9.7	4	-1E+10	1	-1E+10	1	-1E+10	1	-1E+10	1	-1E+10	1	-1E+10	1
4902551	104	C	07/02/2023	00:16	-131.046	47.848	0	1625.20	0	2.2680	0	34.5290	0	27.582	0	1605.331	0	32.7	4	9.9	4	-1E+10	1	-1E+10	1	-1E+10	1	-1E+10	1	-1E+10	1	-1E+10	1
4902551	104	C	07/02/2023	00:16	-131.046	47.848	0	1635.10	0	2.2540	0	34.5310	0	27.584	0	1615.072	0	33.3	4	10.1	4	-1E+10	1	-1E+10	1	-1E+10	1	-1E+10	1	-1E+10	1	-1E+10	1
4902551	104	C	07/02/2023	00:16	-131.046	47.848	0	1645.60	0	2.2430	0	34.5330	0	27.587	0	1625.403	0	34.0	4	10.3	4	-1E+10	1	-1E+10	1	-1E+10	1	-1E+10	1	-1E+10	1	-1E+10	1
4902551	104	C	07/02/2023	00:16	-131.046	47.848	0	1655.40	0	2.2270	0	34.5350	0	27.590	0	1635.045	0	34.9	4	10.6	4	-1E+10	1	-1E+10	1	-1E+10	1	-1E+10	1	-1E+10	1	-1E+10	1
4902551	104	C	07/02/2023	00:16	-131.046	47.848	0	1665.20	0	2.2080	0	34.5380	0	27.594	0	1644.686	0	35.7	4	10.8	4	-1E+10	1	-1E+10	1	-1E+10	1	-1E+10	1	-1E+10	1	-1E+10	1
4902551	104	C	07/02/2023	00:16	-131.046	47.848	0	1675.10	0	2.2000	0	34.5390	0	27.595	0	1654.426	0	36.2	4	11.0	4	-1E+10	1	-1E+10	1	-1E+10	1	-1E+10	1	-1E+10	1	-1E+10	1
4902551	104	C	07/02/2023	00:16	-131.046	47.848	0	1685.40	0	2.1930	0	34.5410	0	27.598	0	1664.558	0	36.8	4	11.2	4	-1E+10	1	-1E+10	1	-1E+10	1	-1E+10	1	-1E+10	1	-1E+10	1
4902551	104	C	07/02/2023	00:16	-131.046	47.848	0	1695.50	0	2.1850	0	34.5420	0	27.599	0	1674.494	0	37.3	4	11.3	4	-1E+10	1	-1E+10	1	-1E+10	1	-1E+10	1	-1E+10	1	-1E+10	1
4902551	104	C	07/02/2023	00:16	-131.046	47.848	0	1705.50	0	2.1760	0	34.5430	0	27.601	0	1684.330	0	37.8	4	11.4	4	-1E+10	1	-1E+10	1	-1E+10	1	-1E+10	1	-1E+10	1	-1E+10	1
4902551	104	C	07/02/2023	00:16	-131.046	47.848	0	1715.60	0	2.1630	0	34.5450	0	27.603	0	1694.264	0	38.6	4	11.7	4	-1E+10	1	-1E+10	1	-1E+10	1	-1E+10	1	-1E+10	1	-1E+10	1
4902551	104	C	07/02/2023	00:16	-131.046	47.848	0	1725.30	0	2.1490	0	34.5470	0	27.606	0	1703.805	0	39.5	4	11.9	4	-1E+10	1	-1E+10	1	-1E+10	1	-1E+10	1	-1E+10	1	-1E+10	1
4902551	104	C	07/02/2023	00:16	-131.046	47.848	0	1735.10	0	2.1360	0	34.5500	0	27.610	0	1713.443	0	40.1	4	12.1	4	-1E+10	1	-1E+10	1	-1E+10	1	-1E+10	1	-1E+10	1	-1E+10	1
4902551	104	C	07/02/2023	00:16	-131.046	47.848	0	1745.00	0	2.1250	0	34.5510	0	27.611	0	1723.179	0	40.7	4	12.3	4	-1E+10	1	-1E+10	1	-1E+10	1	-1E+10	1	-1E+10	1	-1E+10	1
4902551	104	C	07/02/2023	00:16	-131.046	47.848	0	1755.10	0	2.1160	0	34.5530	0	27.614	0	1733.112	0	41.4	4	12.5	4	-1E+10	1	-1E+10	1	-1E+10	1	-1E+10	1	-1E+10	1	-1E+10	1
4902551	104	C	07/02/2023	00:16	-131.046	47.848	0	1765.30	0	2.1070	0	34.5550	0	27.616	0	1743.142	0	42.1	4	12.7	4	-1E+10	1	-1E+10	1	-1E+10	1	-1E+10	1	-1E+10	1	-1E+10	1
4902551	104	C	07/02/2023	00:16	-131.046	47.848	0	1775.50	0	2.0970	0	34.5560	0	27.618	0	1753.172	0	42.7	4	12.9	4	-1E+10	1	-1E+10	1	-1E+10	1	-1E+10	1	-1E+10	1	-1E+10	1
4902551	104	C	07/02/2023	00:16	-131.046	47.848	0	1785.60	0	2.0880	0	34.5580	0	27.620	0	1763.103	0	43.5	4	13.2	4	-1E+10	1	-1E+10	1	-1E+10	1	-1E+10	1	-1E+10	1	-1E+10	1
4902551	104	C	07/02/2023	00:16	-131.046	47.848	0	1795.70	0	2.0830	0	34.5590	0	27.621	0	1773.034	0	44.2	4	13.4	4	-1E+10	1	-1E+10	1	-1E+10	1	-1E+10	1	-1E+10	1	-1E+10	1
4902551	104	C	07/02/2023	00:16	-131.046	47.848	0	1805.40	0	2.0720	0	34.5610	0	27.624	0	1782.571	0	45.0	4	13.6	4	-1E+10	1	-1E+10	1	-1E+10	1	-1E+10	1	-1E+10	1	-1E+10	1
4902551	104	C	07/02/2023	00:16	-131.046	47.848	0	1815.10	0	2.0620	0	34.5630	0	27.626	0	1792.107	0	45.7	4	13.8	4	-1E+10	1	-1E+10	1	-1E+10	1	-1E+10	1	-1E+10	1	-1E+10	1
4902551	104	C	07/02/2023	00:16	-131.046	47.848	0	1825.30	0	2.0530	0	34.5640	0	27.628	0	1802.135	0	46.4	4	14.0	4	-1E+10	1	-1E+10	1	-1E+10	1	-1E+10	1	-1E+10	1	-1E+10	1
4902551	104	C	07/02/2023	00:16	-131.046	47.848	0	1835.40	0	2.0410	0	34.5670	0	27.631	0	1812.064	0	47.3	4	14.3	4	-1E+10	1	-1E+10	1	-1E+10	1	-1E+10	1	-1E+10	1	-1E+10	1
4902551	104	C	07/02/2023	00:16	-131.046	47.848	0	1845.70	0	2.0320	0	34.5680	0	27.633	0	1822.188	0	48.0	4	14.5	4	-1E+10	1	-1E+10	1	-1E+10	1	-1E+10	1	-1E+10	1	-1E+10	1
4902551	104	C	07/02/2023	00:16	-131.046	47.848	0	1855.50	0	2.0250	0	34.5700	0	27.635	0	1831.821	0	48.7	4	14.7	4	-1E+10	1	-1E+10	1	-1E+10	1	-1E+10	1	-1E+10	1	-1E+10	1
4902551	104	C	07/02/2023	00:16	-131.046	47.848	0	1865.30	0	2.0160	0	34.5720	0	27.637	0	1841.454	0	49.5	4	14.9	4	-1E+10	1	-1E+10	1	-1E+10	1	-1E+10	1	-1E+10	1	-1E+10	1
4902551	104	C	07/02/2023	00:16	-131.046	47.848	0	1875.20	0	2.0090	0	34.5730	0	27.639	0	1851.184	0	50.0	4	15.1	4	-1E+10	1	-1E+10	1	-1E+10	1	-1E+10	1	-1E+10	1	-1E+10	1
4902551	104	C	07/02/2023	00:16	-131.046	47.848	0	1885.30	0	2.0030	0	34.5740	0	27.640	0	1861.111	0	50.7	4	15.3	4	-1E+10	1	-1E+10	1	-1E+10	1	-1E+10	1	-1E+10	1	-1E+10	1
4902551	104	C	07/02/2023	00:16	-131.046	47.848	0	1896.00	0	1.9900	0	34.5760	0	27.643	0	1871.627	0	51.5	4	15.5	4	-1E+10	1	-1E+10	1	-1E+10	1	-1E+10	1	-1E+10	1	-1E+10	1
4902551	104	C	07/02/2023	00:16	-131.046	47.848	0	1905.50	0	1.9800	0	34.5780	0	27.645	0	1880.962	0	52.1	4	15.7	4	-1E+10	1	-1E+10	1	-1E+10	1	-1E+10	1	-1E+10	1	-1E+10	1
4902551	104	C	07/02/2023	00:16	-131.046	47.848	0	1915.30	0	1.9710	0	34.5800	0	27.648	0	1890.593	0	52.5	4	15.8	4	-1E+10	1	-1E+10	1	-1E+10	1	-1E+10	1	-1E+10	1	-1E+10	1
4902551	104	C	07/02/2023	00:16	-131.046	47.848	0	1925.30	0	1.9640	0	34.5810	0	27.649	0	1900.419	0	52.8	4	15.9	4	-1E+10	1	-1E+10	1	-1E+10	1	-1E+10	1	-1E+10	1	-1E+10	1
4902551	104	C	07/02/2023	00:16	-131.046	47.848	0	1935.30	0	1.9550	0	34.5820	0	27.650	0	1910.245	0	53.2	4	16.0	4	-1E+10	1	-1E+10	1	-1E+10	1	-1E+10	1	-1E+10	1	-1E+10	1
4902551	104	C	07/02/2023	00:16	-131.046	47.848	0	1945.20	0	1.9470	0	34.5830	0	27.652	0	1919.972	0	53.5	4	16.1	4	-1E+10	1	-1E+10	1	-1E+10	1	-1E+10	1	-1E+10	1	-1E+10	1
4902551	104	C	07/02/2023	00:16	-131.046	47.848	0	1955.70	0	1.9390	0	34.5840	0	27.653	0	1930.289	0	53.7	4	16.2	4	-1E+10	1	-1E+10	1	-1E+10	1	-1E+10	1	-1E+10	1	-1E+10	1
4902551	104	C	07/02/2023	00:16	-131.046	47.848	0	1961.20	0	1.9360	0	34.5850	0	27.654	0	1935.692	0	53.3	4	16.1	4	-1E+10	1	-1E+10	1	-1E+10	1	-1E+10	1	-1E+10	1	-1E+10	1
4902551	104	C	07/02/2023	00:16	-131.046	47.848	0																										
4902551	105	C	07/12/2023	05:02	-131.093	47.790	0	0.10	0	15.4710	8	32.3230	8	23.808	0	0.099	0	250.1	4	100.0	4	-1E+10	1	-1E+10	1	-1E+10	1	-1E+10	1	-1E+10	1	-1E+10	1
4902551	105	C	07/12/2023	05:02	-131.093	47.790	0	0.20	0	15.4730	0	32.3300	0	23.812	0	0.198	0	-1e10	1	-1e10	1	-1E+10	1	-1E+10	1	-1E+10	1	-1E+10	1	-1E+10	1	-1E+10	1
4902551	105	C	07/12/2023	05:02	-131.093	47.790	0	0.30	0	15.4040	0	32.1550	0	23.693	0	0.297	0	244.3	4	97.4	4	-1E+10	1	-1E+10	1	-1E+10	1	-1E+10	1	-1E+10	1	-1E+10	1
4902551	105	C	07/12/2023	05:02	-131.093	47.790	0	1.00	0	15.2910	0	32.2240	0	23.771	0	0.992	0	244.2	4	97.2	4	-1E+10	1	-1E+10	1	-1E+10	1	-1E+10	1	-1E+10	1	-1E+10	1
4902551	105	C	07/12/2023	05:02	-131.093	47.790	0	2.00	0	15.1510	0	32.3330	0	23.885	0	1.983	0	244.7	4	97.2	4	-1E+10	1	-1E+10	1	-1E+10	1	-1E+10	1	-1E+10	1	-1E+10	1
4902551	105	C	07/12/2023	05:02	-131.093	47.790	0	3.10	0	15.1370	0	32.3400	0	23.893	0	3.074	0	244.9	4	97.3	4	-1E+10	1	-1E+10	1	-1E+10	1	-1E+10	1	-1E+10	1	-1E+10	1
4902551	105	C	07/12/2023	05:02	-131.093	47.790	0	3.90	0	15.1300	0	32.3470	0	23.900	0	3.867	0	245.2	4	97.4	4	-1E+10	1	-1E+10	1	-1E+10	1	-1E+10	1	-1E+10	1	-1E+10	1
4902551	105	C	07/12/2023	05:02	-131.093	47.790	0	4.90	0	15.1200	0	32.3610	0	23.913	0	4.859	0	245.5	4	97.5	4	-1E+10	1	-1E+10	1	-1E+10	1	-1E+10	1	-1E+10	1	-1E+10	1
4902551	105	C	07/12/2023	05:02	-131.093	47.790	0	6.00	0	15.1000	0	32.3640	0	23.920	0	5.950	0	246.0	4	97.7	4	-1E+10	1	-1E+10	1	-1E+10	1	-1E+10	1	-1E+10	1	-1E+10	1
4902551	105	C	07/12/2023	05:02	-131.093	47.790	0	6.90	0	14.9950	0	32.3770	0	23.953	0	6.842	0	246.5	4	97.7	4	-1E+10	1	-1E+10	1	-1E+10	1	-1E+10	1	-1E+10	1	-1E+10	1
4902551	105	C	07/12/2023	05:02	-131.093	47.790	0	8.10	0	14.9540	0	32.3780	0	23.962	0	8.032	0	246.8	4	97.7	4	-1E+10	1	-1E+10	1	-1E+10	1	-1E+10	1	-1E+10	1	-1E+10	1
4902551	105	C	07/12/2023	05:02	-131.093	47.790	0	9.10	0	14.9240	0	32.3790	0	23.969	0	9.024	0	247.0	4	97.7	4	-1E+10	1	-1E+10	1	-1E+10	1	-1E+10	1	-1E+10	1	-1E+10	1
4902551	105	C	07/12/2023	05:02	-131.093	47.790	0	10.00	0	14.8980	0	32.3780	0	23.974	0	9.916	0	247.3	4	97.8	4	-1E+10	1	-1E+10	1	-1E+10	1	-1E+10	1	-1E+10	1	-1E+10	1
4902551	105	C	07/12/2023	05:02	-131.093	47.790	0	10.90	0	14.8860	0	32.3790	0	23.978	0	10.808	0	247.5	4	97.9	4	-1E+10	1	-1E+10	1	-1E+10	1	-1E+10	1	-1E+10	1	-1E+10	1
4902551	105	C	07/12/2023	05:02	-131.093	47.790	0	11.80	0	14.8640	0	32.3770	0	23.981	0	11.701	0	247.9	4	98.0	4	-1E+10	1	-1E+10	1	-1E+10	1	-1E+10	1	-1E+10	1	-1E+10	1
4902551	105	C	07/12/2023	05:02	-131.093	47.790	0	13.10	0	14.8350	0	32.3790	0	23.989	0	12.990	0	248.5	4	98.2	4	-1E+10	1	-1E+10	1	-1E+10	1	-1E+10	1	-1E+10	1	-1E+10	1
4902551	105	C	07/12/2023	05:02	-131.093	47.790	0	14.10	0	14.8020	0	32.3770	0	23.994	0	13.981	0	249.0	4	98.3	4	-1E+10	1	-1E+10	1	-1E+10	1	-1E+10	1	-1E+10	1	-1E+10	1
4902551	105	C	07/12/2023	05:02	-131.093	47.790	0	14.80	0	14.7570	0	32.3760	0	24.003	0	14.676	0	249.3	4	98.3	4	-1E+10	1	-1E+10	1	-1E+10	1	-1E+10	1	-1E+10	1	-1E+10	1
4902551	105	C	07/12/2023	05:02	-131.093	47.790	0	15.90	0	14.7070	0	32.3710	0	24.010	0	15.766	0	249.8	4	98.4	4	-1E+10	1	-1E+10	1	-1E+10	1	-1E+10	1	-1E+10	1	-1E+10	1
4902551	105	C	07/12/2023	05:02	-131.093	47.790	0	17.10	0	14.6550	0	32.3710	0	24.021	0	16.956	0	250.1	4	98.5	4	-1E+10	1	-1E+10	1	-1E+10	1	-1E+10	1	-1E+10	1	-1E+10	1
4902551	105	C	07/12/2023	05:02	-131.093	47.790	0	18.10	0	14.5650	0	32.3710	0	24.040	0	17.948	0	250.4	4	98.4	4	-1E+10	1	-1E+10	1	-1E+10	1	-1E+10	1	-1E+10	1	-1E+10	1
4902551	105	C	07/12/2023	05:02	-131.093	47.790	0	19.00	0	14.5330	0	32.3710	0	24.047	0	18.840	0	250.5	4	98.4	4	-1E+10	1	-1E+10	1	-1E+10	1	-1E+10	1	-1E+10	1	-1E+10	1
4902551	105	C	07/12/2023	05:02	-131.093	47.790	0	19.90	0	14.5200	0	32.3710	0	24.049	0	19.732	0	250.7	4	98.4	4	-1E+10	1	-1E+10	1	-1E+10	1	-1E+10	1	-1E+10	1	-1E+10	1
4902551	105	C	07/12/2023	05:02	-131.093	47.790	0	20.80	0	14.5050	0	32.3710	0	24.053	0	20.625	0	250.9	4	98.5	4	-1E+10	1	-1E+10	1	-1E+10	1	-1E+10	1	-1E+10	1	-1E+10	1
4902551	105	C	07/12/2023	05:02	-131.093	47.790	0	21.90	0	14.4970	0	32.3700	0	24.053	0	21.715	0	251.1	4	98.5	4	-1E+10	1	-1E+10	1	-1E+10	1	-1E+10	1	-1E+10	1	-1E+10	1
4902551	105	C	07/12/2023	05:02	-131.093	47.790	0	23.10	0	14.4890	0	32.3710	0	24.056	0	22.905	0	251.4	4	98.6	4	-1E+10	1	-1E+10	1	-1E+10	1	-1E+10	1	-1E+10	1	-1E+10	1
4902551	105	C	07/12/2023	05:02	-131.093	47.790	0	24.00	0	14.4710	0	32.3700	0	24.059	0	23.798	0	251.8	4	98.7	4	-1E+10	1	-1E+10	1	-1E+10	1	-1E+10	1	-1E+10	1	-1E+10	1
4902551	105	C	07/12/2023	05:02	-131.093	47.790	0	24.90	0	14.4510	0	32.3710	0	24.064	0	24.690	0	252.2	4	98.9	4	-1E+10	1	-1E+10	1	-1E+10	1	-1E+10	1	-1E+10	1	-1E+10	1
4902551	105	C	07/12/2023	05:02	-131.093	47.790	0	25.80	0	14.4080	0	32.3720	0	24.074	0	25.582	0	252.7	4	99.0	4	-1E+10	1	-1E+10	1	-1E+10	1	-1E+10	1	-1E+10	1	-1E+10	1
4902551	105	C	07/12/2023	05:02	-131.093	47.790	0	26.70	0	14.3600	0	32.3680	0	24.081	0	26.475	0	253.3	4	99.1	4	-1E+10	1	-1E+10	1	-1E+10	1	-1E+10	1	-1E+10	1	-1E+10	1
4902551	105	C	07/12/2023	05:02	-131.093	47.790	0	28.10	0	14.2810	0	32.3670	0	24.097	0	27.863	0	254.2	4	99.3	4	-1E+10	1	-1E+10	1	-1E+10	1	-1E+10	1	-1E+10	1	-1E+10	1
4902551	105	C	07/12/2023	05:02	-131.093	47.790	0	29.00	0	14.2080	0	32.3670	0	24.112	0	28.755	0	254.9	4	99.4	4	-1E+10	1	-1E+10	1	-1E+10	1	-1E+10	1	-1E+10	1	-1E+10	1
4902551	105	C	07/12/2023	05:02	-131.093	47.790	0	29.90	0	14.1260	0	32.3650	0	24.127	0	29.648	0	255.7	4	99.6	4	-1E+10	1	-1E+10	1	-1E+10	1	-1E+10	1	-1E+10	1	-1E+10	1
4902551	105	C	07/12/2023	05:02	-131.093	47.790	0	30.80	0	14.0440	0	32.3680	0	24.146	0	30.540	0	256.7	4	99.8	4	-1E+10	1	-1E+10	1	-1E+10	1	-1E+10	1	-1E+10	1	-1E+10	1
4902551	105	C	07/12/2023	05:02	-131.093	47.790	0	31.90	0	13.9650	0	32.3650	0	24.160	0	31.630	0	258.0	4	100.1	4	-1E+10	1	-1E+10	1	-1E+10	1	-1E+10	1	-1E+10	1	-1E+10	1
4902551	105	C	07/12/2023	05:02	-131.093	47.790	0	33.00	0	13.9210	0	32.3620	0	24.167	0	32.721	0	259.4	4	100.6	4	-1E+10	1	-1E+10	1	-1E+10	1	-1E+10	1	-1E+10	1	-1E+10	1
4902551	105	C	07/12/2023	05:02	-131.093	47.790	0	34.00	0	13.8920	0	32.3560	0	24.168	0	33.713	0	261.2	4	101.2	4	-1E+10	1	-1E+10	1	-1E+10	1	-1E+10	1	-1E+10	1	-1E+10	1
4902551	105	C	07/12/2023	05:02	-131.093	47.790	0	35.10	0	13.7330	0	32.3530	0	24.198	0	34.803	0	263.2	4	101.7	4	-1E+10	1	-1E+10	1	-1E+10	1	-1E+10	1	-1E+10	1	-1E+10	1
4902551	105	C	07/12/2023	05:02	-131.093	47.790	0	35.90	0	13.3880	0	32.3570	0	24.271	0	35.596	0	265.3	4	101.8	4	-1E+10	1	-1E+10	1	-1E+10	1	-1E+10	1	-1E+10	1	-1E+10	1
4902551	105	C	07/12/2023	05:02	-131.093	47.790	0	36.90	0	13.1130	0	32.3600	0	24.328	0	36.588	0	267.3	4	102.0	4	-1E+10	1	-1E+10	1	-1E+10	1	-1E+10	1	-1E+10	1	-1E+10	1
4902551	105	C	07/12/2023	05:02	-131.093	47.790	0	37.90	0	12.8630	0	32.3770	0	24.390	0	37.579	0	269.1	4	102.2	4	-1E+10	1	-1E+10	1	-1E+10	1	-1E+10	1	-1E+10	1	-1E+10	1
4902551	105	C	07/12/2023	05:02	-131.093	47.790	0	38.90	0	12.6050	0	32.3550	0	24.423	0	38.571	0	271.6	4	102.5	4	-1E+10	1	-1E+10	1	-1E+10	1	-1E+10	1	-1E+10	1	-1E+10	1
4902551	105	C	07/12/2023	05:02	-131.093	47.790	0	39.90	0	12.4130	0	32.3550	0	24.459	0	39.562	0	274.4	4	103.2	4	-1E+10	1	-1E+10	1	-1E+10	1	-1E+10	1	-1E+10	1	-1E+10	1
4902551	105	C	07/12/2023	05:02	-131.093	47.790	0	40.90	0	12.1560	0	32.3530	0	24.506	0	40.554	0	277.5	4	103.8	4	-1E+10	1	-1E+10	1	-1E+10	1	-1E+10	1	-1E+10	1	-1E+10	1
4902551	105	C	07/12/2023	05:02	-131.093	47.790	0	42.00	0	11.6390	0	32.3520	0	24.601	0	41.644	0	281.7	4	104.2	4	-1E+10	1	-1E+10	1	-1E+10	1	-1E+10	1	-1E+10	1	-1E+10	1
4902551	105	C	07/12/2023	05:02	-131.093	47.790	0	42.90	0	11.2250	0	32.3470	0	24.672	0	42.536	0	284.1	4	104.2	4	-1E+10	1	-1E+10	1	-1E+10	1	-1E+10	1	-1E+10	1	-1E+10	1
4902551	105	C	07/12/2023	05:02	-131.093	47.790	0	44.00	0	10.9830	0	32.3450	0	24.713	0	43.627	0	286.2	4	104.4	4	-1E+10	1	-1E+10	1	-1E+10	1	-1E+10	1	-1E+10	1	-1E+10	1
4902551	105	C	07/12/2023	05:02	-131.093	47.790	0	44.90	0	10.6820	0	32.3390	0	24.761	0	44.519	0	288.1	4	104.4	4	-1E+10	1	-1E+10	1	-1E+10	1	-1E+10	1	-1E+10	1	-1E+10	1
4902551	105	C	07/12/2023	05:02	-131.093	47.790	0	46.10	0	9.9420	0	32.3380	0	24.885	0	45.709	0	289.4	4	103.3	4	-1E+10	1	-1E+10	1	-1E+10	1	-1E+10	1	-1E+10	1	-1E+10	1
4902551	105	C	07/12/2023	05:02	-131.093	47.790	0	47.10	0	9.5580	0	32.3410	0	24.950	0	46.700	0	289.2	4	102.3	4	-1E+10	1	-1E+10	1	-1E+10	1	-1E+10	1	-1E+10	1	-1E+10	1
4902551	105	C	07/12/2023	05:02	-131.093	47.790	0	47.90	0	9.3600	0	32.3340	0	24.976	0	47.493	0	288.8	4	101.8	4	-1E+10	1	-1E+10	1	-1E+10	1	-1E+10	1	-1E+10	1	-1E+10	1
4902551	105	C	07/12/2023	05:02	-131.093	47.790	0	49.10	0	9.1440	0	32.3370	0	25.012	0	48.683	0	288.5	4	101.2	4	-1E+10	1	-1E+10	1	-1E+10	1	-1E+10	1	-1E+10	1	-1E+10	1
4902551	105	C	07/12/2023	05:02	-131.093	47.790	0	50.10	0	9.0030	0	32.3530	0	25.047	0	49.675	0	288.1	4	100.7	4	-1E+10	1	-1E+10	1	-1E+10	1	-1E+10	1	-1E+10	1	-1E+10	1
4902551	105	C	07/12/2023	05:02	-131.093	47.790	0	51.30	0	8.8580	0	32.3490	0	25.066	0	50.864	0	287.8	4	100.3	4	-1E+10	1	-1E+10	1	-1E+10	1	-1E+10	1	-1E+10	1	-1E+10	1
4902551	105	C	07/12/2023	05:02	-131.093	47.790	0	52.20	0	8.8420	0	32.3440	0	25.064	0	51.756	0	287.2	4	100.0	4	-1E+10	1	-1E+10	1	-1E+10	1	-1E+10	1	-1E+10	1	-1E+10	1
4902551	105	C	07/12/2023	05:02	-131.093	47.790	0	53.00	0	8.8250	0	32.3420	0	25.065	0	52.550	0	286.0	4	99.6	4	-1E+10	1	-1E+10	1	-1E+10	1	-1E+10	1	-1E+10	1	-1E+10	1
4902551	105	C	07/12/2023	05:02	-131.093	47.790	0	54.10	0	8.6700	0	32.3640	0	25.106	0	53.640	0	285.0	4	98.9	4	-1E+10	1	-1E+10	1	-1E+10	1	-1E+10	1	-1E+10	1	-1E+10	1
4902551	105	C	07/12/2023	05:02	-131.093	47.790	0	55.00	0	8.5110	0	32.3430	0	25.114	0	54.532	0	284.2	4	98.3	4	-1E+10	1	-1E+10	1	-1E+10	1	-1E+10	1	-1E+10	1	-1E+10	1
4902551	105	C	07/12/2023	05:02	-131.093	47.790	0	55.90	0	8.4560	0	32.3470	0	25.125	0	55.424	0	283.3	4	97.8	4	-1E+10	1	-1E+10	1	-1E+10	1	-1E+10	1	-1E+10	1	-1E+10	1
4902551	105	C	07/12/2023	05:02	-131.093	47.790	0	56.80	0	8.4170	0	32.3440	0	25.129	0	56.317	0	282.5	4	97.5	4	-1E+10	1	-1E+10	1	-1E+10	1	-1E+10	1	-1E+10	1	-1E+10	1
4902551	105	C	07/12/2023	05:02	-131.093	47.790	0	57.80	0	8.3090	0	32.3440	0	25.145	0	57.308	0	282.1	4	97.1	4	-1E+10	1	-1E+10	1	-1E+10	1	-1E+10	1	-1E+10	1	-1E+10	1
4902551	105	C	07/12/2023	05:02	-131.093	47.790	0	59.00	0	8.2490	0	32.3470	0	25.156	0	58.498	0	281.6	4	96.8	4	-1E+10	1	-1E+10	1	-1E+10	1	-1E+10	1	-1E+10	1	-1E+10	1
4902551	105	C	07/12/2023	05:02	-131.093	47.790	0	60.00	0	8.2050	0	32.3490	0	25.164	0	59.489	0	280.7	4	96.4	4	-1E+10	1	-1E+10	1	-1E+10	1	-1E+10	1	-1E+10	1	-1E+10	1
4902551	105	C	07/12/2023	05:02	-131.093	47.790	0	60.90	0	8.1860	0	32.3490	0	25.167	0	60.381	0	280.0	4	96.1	4	-1E+10	1	-1E+10	1	-1E+10	1	-1E+10	1	-1E+10	1	-1E+10	1
4902551	105	C	07/12/2023	05:02	-131.093	47.790	0	61.80	0	8.1530	0	32.3530	0	25.175	0	61.273	0	279.3	4	95.8	4	-1E+10	1	-1E+10	1	-1E+10	1	-1E+10	1	-1E+10	1	-1E+10	1
4902551	105	C	07/12/2023	05:02	-131.093	47.790	0	63.00	0	8.1090	0	32.3550	0	25.183	0	62.463	0	278.7	4	95.5	4	-1E+10	1	-1E+10	1	-1E+10	1	-1E+10	1	-1E+10	1	-1E+10	1
4902551	105	C	07/12/2023	05:02	-131.093	47.790	0	63.90	0	8.0670	0	32.3570	0	25.190	0	63.355	0	278.0	4	95.2	4	-1E+10	1	-1E+10	1	-1E+10	1	-1E+10	1	-1E+10	1	-1E+10	1
4902551	105	C	07/12/2023	05:02	-131.093	47.790	0	65.20	0	8.0200	0	32.3570	0	25.197	0	64.644	0	277.0	4	94.8	4	-1E+10	1	-1E+10	1	-1E+10	1	-1E+10	1	-1E+10	1	-1E+10	1
4902551	105	C	07/12/2023	05:02	-131.093	47.790	0	65.90	0	7.9990	0	32.3590	0	25.202	0	65.338	0	276.4	4	94.5	4	-1E+10	1	-1E+10	1	-1E+10	1	-1E+10	1	-1E+10	1	-1E+10	1
4902551	105	C	07/12/2023	05:02	-131.093	47.790	0	67.00	0	7.9580	0	32.3620	0	25.210	0	66.428	0	275.4	4	94.1	4	-1E+10	1	-1E+10	1	-1E+10	1	-1E+10	1	-1E+10	1	-1E+10	1
4902551	105	C	07/12/2023	05:02	-131.093	47.790	0	68.00	0	7.9370	0	32.3630	0	25.214	0	67.420	0	274.4	4	93.7	4	-1E+10	1	-1E+10	1	-1E+10	1	-1E+10	1	-1E+10	1	-1E+10	1
4902551	105	C	07/12/2023	05:02	-131.093	47.790	0	68.90	0	7.9100	0	32.3640	0	25.218	0	68.312	0	273.4	4	93.3	4	-1E+10	1	-1E+10	1	-1E+10	1	-1E+10	1	-1E+10	1	-1E+10	1
4902551	105	C	07/12/2023	05:02	-131.093	47.790	0	69.80	0	7.8700	0	32.3660	0	25.226	0	69.204	0	272.9	4	93.0	4	-1E+10	1	-1E+10	1	-1E+10	1	-1E+10	1	-1E+10	1	-1E+10	1
4902551	105	C	07/12/2023	05:02	-131.093	47.790	0	70.80	0	7.8450	0	32.3680	0	25.231	0	70.195	0	272.5	4	92.8	4	-1E+10	1	-1E+10	1	-1E+10	1	-1E+10	1	-1E+10	1	-1E+10	1
4902551	105	C	07/12/2023	05:02	-131.093	47.790	0	71.90	0	7.8190	0	32.3680	0	25.234	0	71.286	0	272.2	4	92.7	4	-1E+10	1	-1E+10	1	-1E+10	1	-1E+10	1	-1E+10	1	-1E+10	1
4902551	105	C	07/12/2023	05:02	-131.093	47.790	0	73.10	0	7.7930	0	32.3660	0	25.237	0	72.475	0	272.0	4	92.6	4	-1E+10	1	-1E+10	1	-1E+10	1	-1E+10	1	-1E+10	1	-1E+10	1
4902551	105	C	07/12/2023	05:02	-131.093	47.790	0	73.90	0	7.7750	0	32.3650	0	25.238	0	73.268	0	271.9	4	92.5	4	-1E+10	1	-1E+10	1	-1E+10	1	-1E+10	1	-1E+10	1	-1E+10	1
4902551	105	C	07/12/2023	05:02	-131.093	47.790	0	75.00	0	7.7350	0	32.3630	0	25.242	0	74.359	0	271.8	4	92.4	4	-1E+10	1	-1E+10	1	-1E+10	1	-1E+10	1	-1E+10	1	-1E+10	1
4902551	105	C	07/12/2023	05:02	-131.093	47.790	0	76.20	0	7.7070	0	32.3630	0	25.246	0	75.548	0	271.6	4	92.3	4	-1E+10	1	-1E+10	1	-1E+10	1	-1E+10	1	-1E+10	1	-1E+10	1
4902551	105	C	07/12/2023	05:02	-131.093	47.790	0	76.90	0	7.6840	0	32.3600	0	25.247	0	76.242	0	271.4	4	92.1	4	-1E+10	1	-1E+10	1	-1E+10	1	-1E+10	1	-1E+10	1	-1E+10	1
4902551	105	C	07/12/2023	05:02	-131.093	47.790	0	77.80	0	7.6480	0	32.3590	0	25.252	0	77.134	0	271.3	4	92.0	4	-1E+10	1	-1E+10	1	-1E+10	1	-1E+10	1	-1E+10	1	-1E+10	1
4902551	105	C	07/12/2023	05:02	-131.093	47.790	0	79.00	0	7.6360	0	32.3570	0	25.252	0	78.324	0	271.0	4	91.9	4	-1E+10	1	-1E+10	1	-1E+10	1	-1E+10	1	-1E+10	1	-1E+10	1
4902551	105	C	07/12/2023	05:02	-131.093	47.790	0	80.10	0	7.6180	0	32.3560	0	25.253	0	79.414	0	270.7	4	91.7	4	-1E+10	1	-1E+10	1	-1E+10	1	-1E+10	1	-1E+10	1	-1E+10	1
4902551	105	C	07/12/2023	05:02	-131.093	47.790	0	81.00	0	7.6030	0	32.3560	0	25.256	0	80.306	0	270.4	4	91.6	4	-1E+10	1	-1E+10	1	-1E+10	1	-1E+10	1	-1E+10	1	-1E+10	1
4902551	105	C	07/12/2023	05:02	-131.093	47.790	0	81.90	0	7.5860	0	32.3550	0	25.257	0	81.198	0	277.0	4	93.8	4	-1E+10	1	-1E+10	1	-1E+10	1	-1E+10	1	-1E+10	1	-1E+10	1
4902551	105	C	07/12/2023	05:02	-131.093	47.790	0	83.00	0	7.5630	0	32.3550	0	25.260	0	82.289	0	276.5	4	93.6	4	-1E+10	1	-1E+10	1	-1E+10	1	-1E+10	1	-1E+10	1	-1E+10	1
4902551	105	C	07/12/2023	05:02	-131.093	47.790	0	83.90	0	7.5510	0	32.3530	0	25.260	0	83.181	0	276.2	4	93.5	4	-1E+10	1	-1E+10	1	-1E+10	1	-1E+10	1	-1E+10	1	-1E+10	1
4902551	105	C	07/12/2023	05:02	-131.093	47.790	0	85.10	0	7.5390	0	32.3530	0	25.262	0	84.370	0	275.5	4	93.2	4	-1E+10	1	-1E+10	1	-1E+10	1	-1E+10	1	-1E+10	1	-1E+10	1
4902551	105	C	07/12/2023	05:02	-131.093	47.790	0	86.10	0	7.5270	0	32.3530	0	25.264	0	85.361	0	275.1	4	93.1	4	-1E+10	1	-1E+10	1	-1E+10	1	-1E+10	1	-1E+10	1	-1E+10	1
4902551	105	C	07/12/2023	05:02	-131.093	47.790	0	87.10	0	7.5170	0	32.3540	0	25.266	0	86.353	0	274.6	4	92.9	4	-1E+10	1	-1E+10	1	-1E+10	1	-1E+10	1	-1E+10	1	-1E+10	1
4902551	105	C	07/12/2023	05:02	-131.093	47.790	0	87.90	0	7.5090	0	32.3540	0	25.267	0	87.146	0	274.3	4	92.8	4	-1E+10	1	-1E+10	1	-1E+10	1	-1E+10	1	-1E+10	1	-1E+10	1
4902551	105	C	07/12/2023	05:02	-131.093	47.790	0	88.70	0	7.5090	0	32.3550	0	25.268	0	87.938	0	273.9	4	92.6	4	-1E+10	1	-1E+10	1	-1E+10	1	-1E+10	1	-1E+10	1	-1E+10	1
4902551	105	C	07/12/2023	05:02	-131.093	47.790	0	89.90	0	7.4940	0	32.3560	0	25.271	0	89.128	0	273.2	4	92.3	4	-1E+10	1	-1E+10	1	-1E+10	1	-1E+10	1	-1E+10	1	-1E+10	1
4902551	105	C	07/12/2023	05:02	-131.093	47.790	0	91.00	0	7.4860	0	32.3560	0	25.272	0	90.218	0	272.3	4	92.0	4	-1E+10	1	-1E+10	1	-1E+10	1	-1E+10	1	-1E+10	1	-1E+10	1
4902551	105	C	07/12/2023	05:02	-131.093	47.790	0	91.90	0	7.4790	0	32.3580	0	25.274	0	91.110	0	271.5	4	91.7	4	-1E+10	1	-1E+10	1	-1E+10	1	-1E+10	1	-1E+10	1	-1E+10	1
4902551	105	C	07/12/2023	05:02	-131.093	47.790	0	92.80	0	7.4750	0	32.3580	0	25.275	0	92.002	0	270.6	4	91.4	4	-1E+10	1	-1E+10	1	-1E+10	1	-1E+10	1	-1E+10	1	-1E+10	1
4902551	105	C	07/12/2023	05:02	-131.093	47.790	0	93.90	0	7.4780	0	32.3600	0	25.276	0	93.093	0	268.8	4	90.8	4	-1E+10	1	-1E+10	1	-1E+10	1	-1E+10	1	-1E+10	1	-1E+10	1
4902551	105	C	07/12/2023	05:02	-131.093	47.790	0	95.00	0	7.4710	0	32.3700	0	25.285	0	94.183	0	267.0	4	90.2	4	-1E+10	1	-1E+10	1	-1E+10	1	-1E+10	1	-1E+10	1	-1E+10	1
4902551	105	C	07/12/2023	05:02	-131.093	47.790	0	96.10	0	7.4690	0	32.3720	0	25.287	0	95.273	0	265.6	4	89.7	4	-1E+10	1	-1E+10	1	-1E+10	1	-1E+10	1	-1E+10	1	-1E+10	1
4902551	105	C	07/12/2023	05:02	-131.093	47.790	0	97.10	0	7.4710	0	32.3860	0	25.298	0	96.264	0	264.2	4	89.3	4	-1E+10	1	-1E+10	1	-1E+10	1	-1E+10	1	-1E+10	1	-1E+10	1
4902551	105	C	07/12/2023	05:02	-131.093	47.790	0	98.30	0	7.4820	0	32.3990	0	25.306	0	97.454	0	262.5	4	88.7	4	-1E+10	1	-1E+10	1	-1E+10	1	-1E+10	1	-1E+10	1	-1E+10	1
4902551	105	C	07/12/2023	05:02	-131.093	47.790	0	98.90	0	7.5010	0	32.4120	0	25.314	0	98.048	0	261.5	4	88.5	4	-1E+10	1	-1E+10	1	-1E+10	1	-1E+10	1	-1E+10	1	-1E+10	1
4902551	105	C	07/12/2023	05:02	-131.093	47.790	0	100.00	0	7.5130	0	32.4230	0	25.321	0	99.139	0	259.9	4	87.9	4	-1E+10	1	-1E+10	1	-1E+10	1	-1E+10	1	-1E+10	1	-1E+10	1
4902551	105	C	07/12/2023	05:02	-131.093	47.790	0	101.10	0	7.4900	0	32.4450	0	25.341	0	100.229	0	256.9	4	86.9	4	-1E+10	1	-1E+10	1	-1E+10	1	-1E+10	1	-1E+10	1	-1E+10	1
4902551	105	C	07/12/2023	05:02	-131.093	47.790	0	102.20	0	7.4700	0	32.4690	0	25.363	0	101.319	0	253.8	4	85.8	4	-1E+10	1	-1E+10	1	-1E+10	1	-1E+10	1	-1E+10	1	-1E+10	1
4902551	105	C	07/12/2023	05:02	-131.093	47.790	0	103.10	0	7.4710	0	32.5030	0	25.390	0	102.211	0	251.0	4	84.9	4	-1E+10	1	-1E+10	1	-1E+10	1	-1E+10	1	-1E+10	1	-1E+10	1
4902551	105	C	07/12/2023	05:02	-131.093	47.790	0	104.00	0	7.4680	0	32.5110	0	25.396	0	103.103	0	247.2	4	83.6	4	-1E+10	1	-1E+10	1	-1E+10	1	-1E+10	1	-1E+10	1	-1E+10	1
4902551	105	C	07/12/2023	05:02	-131.093	47.790	0	105.10	0	7.4690	0	32.5240	0	25.407	0	104.194	0	240.7	4	81.4	4	-1E+10	1	-1E+10	1	-1E+10	1	-1E+10	1	-1E+10	1	-1E+10	1
4902551	105	C	07/12/2023	05:02	-131.093	47.790	0	106.00	0	7.4680	0	32.5340	0	25.415	0	105.086	0	236.6	4	80.0	4	-1E+10	1	-1E+10	1	-1E+10	1	-1E+10	1	-1E+10	1	-1E+10	1
4902551	105	C	07/12/2023	05:02	-131.093	47.790	0	107.00	0	7.4590	0	32.5640	0	25.439	0	106.077	0	232.0	4	78.5	4	-1E+10	1	-1E+10	1	-1E+10	1	-1E+10	1	-1E+10	1	-1E+10	1
4902551	105	C	07/12/2023	05:02	-131.093	47.790	0	108.00	0	7.4280	0	32.6140	0	25.483	0	107.068	0	228.7	4	77.3	4	-1E+10	1	-1E+10	1	-1E+10	1	-1E+10	1	-1E+10	1	-1E+10	1
4902551	105	C	07/12/2023	05:02	-131.093	47.790	0	108.90	0	7.4020	0	32.6770	0	25.536	0	107.960	0	226.1	4	76.5	4	-1E+10	1	-1E+10	1	-1E+10	1	-1E+10	1	-1E+10	1	-1E+10	1
4902551	105	C	07/12/2023	05:02	-131.093	47.790	0	109.90	0	7.4000	0	32.7010	0	25.555	0	108.951	0	223.5	4	75.6	4	-1E+10	1	-1E+10	1	-1E+10	1	-1E+10	1	-1E+10	1	-1E+10	1
4902551	105	C	07/12/2023	05:02	-131.093	47.790	0	110.90	0	7.3840	0	32.7200	0	25.572	0	109.942	0	220.7	4	74.6	4	-1E+10	1	-1E+10	1	-1E+10	1	-1E+10	1	-1E+10	1	-1E+10	1
4902551	105	C	07/12/2023	05:02	-131.093	47.790	0	112.00	0	7.3210	0	32.7560	0	25.609	0	111.032	0	218.0	4	73.6	4	-1E+10	1	-1E+10	1	-1E+10	1	-1E+10	1	-1E+10	1	-1E+10	1
4902551	105	C	07/12/2023	05:02	-131.093	47.790	0	112.90	0	7.2700	0	32.7750	0	25.631	0	111.924	0	215.7	4	72.8	4	-1E+10	1	-1E+10	1	-1E+10	1	-1E+10	1	-1E+10	1	-1E+10	1
4902551	105	C	07/12/2023	05:02	-131.093	47.790	0	113.80	0	7.2340	0	32.7860	0	25.645	0	112.816	0	212.9	4	71.8	4	-1E+10	1	-1E+10	1	-1E+10	1	-1E+10	1	-1E+10	1	-1E+10	1
4902551	105	C	07/12/2023	05:02	-131.093	47.790	0	115.00	0	7.2540	0	32.8330	0	25.679	0	114.005	0	208.0	4	70.2	4	-1E+10	1	-1E+10	1	-1E+10	1	-1E+10	1	-1E+10	1	-1E+10	1
4902551	105	C	07/12/2023	05:02	-131.093	47.790	0	115.90	0	7.2370	0	32.8850	0	25.723	0	114.897	0	204.4	4	68.9	4	-1E+10	1	-1E+10	1	-1E+10	1	-1E+10	1	-1E+10	1	-1E+10	1
4902551	105	C	07/12/2023	05:02	-131.093	47.790	0	116.90	0	7.2080	0	32.9340	0	25.765	0	115.888	0	201.5	4	68.0	4	-1E+10	1	-1E+10	1	-1E+10	1	-1E+10	1	-1E+10	1	-1E+10	1
4902551	105	C	07/12/2023	05:02	-131.093	47.790	0	118.10	0	7.2310	0	32.9770	0	25.796	0	117.078	0	198.2	4	66.9	4	-1E+10	1	-1E+10	1	-1E+10	1	-1E+10	1	-1E+10	1	-1E+10	1
4902551	105	C	07/12/2023	05:02	-131.093	47.790	0	119.00	0	7.2570	0	33.0010	0	25.811	0	117.970	0	195.8	4	66.1	4	-1E+10	1	-1E+10	1	-1E+10	1	-1E+10	1	-1E+10	1	-1E+10	1
4902551	105	C	07/12/2023	05:02	-131.093	47.790	0	120.00	0	7.2280	0	33.0500	0	25.854	0	118.961	0	192.8	4	65.1	4	-1E+10	1	-1E+10	1	-1E+10	1	-1E+10	1	-1E+10	1	-1E+10	1
4902551	105	C	07/12/2023	05:02	-131.093	47.790	0	121.00	0	7.2240	0	33.0630	0	25.864	0	119.952	0	189.8	4	64.1	4	-1E+10	1	-1E+10	1	-1E+10	1	-1E+10	1	-1E+10	1	-1E+10	1
4902551	105	C	07/12/2023	05:02	-131.093	47.790	0	122.00	0	7.1980	0	33.0630	0	25.868	0	120.943	0	185.8	4	62.7	4	-1E+10	1	-1E+10	1	-1E+10	1	-1E+10	1	-1E+10	1	-1E+10	1
4902551	105	C	07/12/2023	05:02	-131.093	47.790	0	123.00	0	7.1920	0	33.0650	0	25.870	0	121.934	0	180.7	4	61.0	4	-1E+10	1	-1E+10	1	-1E+10	1	-1E+10	1	-1E+10	1	-1E+10	1
4902551	105	C	07/12/2023	05:02	-131.093	47.790	0	124.00	0	7.2010	0	33.1180	0	25.911	0	122.925	0	176.3	4	59.5	4	-1E+10	1	-1E+10	1	-1E+10	1	-1E+10	1	-1E+10	1	-1E+10	1
4902551	105	C	07/12/2023	05:02	-131.093	47.790	0	125.10	0	7.2550	0	33.1780	0	25.951	0	124.015	0	172.2	4	58.2	4	-1E+10	1	-1E+10	1	-1E+10	1	-1E+10	1	-1E+10	1	-1E+10	1
4902551	105	C	07/12/2023	05:02	-131.093	47.790	0	125.90	0	7.2180	0	33.2580	0	26.019	0	124.808	0	170.0	4	57.5	4	-1E+10	1	-1E+10	1	-1E+10	1	-1E+10	1	-1E+10	1	-1E+10	1
4902551	105	C	07/12/2023	05:02	-131.093	47.790	0	127.00	0	7.2050	0	33.2840	0	26.041	0	125.898	0	166.8	4	56.4	4	-1E+10	1	-1E+10	1	-1E+10	1	-1E+10	1	-1E+10	1	-1E+10	1
4902551	105	C	07/12/2023	05:02	-131.093	47.790	0	128.30	0	7.1270	0	33.3230	0	26.082	0	127.186	0	163.0	4	55.0	4	-1E+10	1	-1E+10	1	-1E+10	1	-1E+10	1	-1E+10	1	-1E+10	1
4902551	105	C	07/12/2023	05:02	-131.093	47.790	0	129.10	0	7.1750	0	33.2990	0	26.057	0	127.979	0	160.1	4	54.1	4	-1E+10	1	-1E+10	1	-1E+10	1	-1E+10	1	-1E+10	1	-1E+10	1
4902551	105	C	07/12/2023	05:02	-131.093	47.790	0	129.90	0	7.2560	0	33.3790	0	26.109	0	128.772	0	157.7	4	53.4	4	-1E+10	1	-1E+10	1	-1E+10	1	-1E+10	1	-1E+10	1	-1E+10	1
4902551	105	C	07/12/2023	05:02	-131.093	47.790	0	130.80	0	7.2560	0	33.3910	0	26.118	0	129.664	0	155.7	4	52.8	4	-1E+10	1	-1E+10	1	-1E+10	1	-1E+10	1	-1E+10	1	-1E+10	1
4902551	105	C	07/12/2023	05:02	-131.093	47.790	0	131.60	0	7.2600	0	33.4220	0	26.142	0	130.457	0	154.0	4	52.2	4	-1E+10	1	-1E+10	1	-1E+10	1	-1E+10	1	-1E+10	1	-1E+10	1
4902551	105	C	07/12/2023	05:02	-131.093	47.790	0	132.90	0	7.3020	0	33.4770	0	26.180	0	131.745	0	152.1	4	51.6	4	-1E+10	1	-1E+10	1	-1E+10	1	-1E+10	1	-1E+10	1	-1E+10	1
4902551	105	C	07/12/2023	05:02	-131.093	47.790	0	134.30	0	7.3150	0	33.4860	0	26.185	0	133.132	0	150.5	4	51.1	4	-1E+10	1	-1E+10	1	-1E+10	1	-1E+10	1	-1E+10	1	-1E+10	1
4902551	105	C	07/12/2023	05:02	-131.093	47.790	0	135.30	0	7.3060	0	33.5000	0	26.197	0	134.123	0	149.5	4	50.7	4	-1E+10	1	-1E+10	1	-1E+10	1	-1E+10	1	-1E+10	1	-1E+10	1
4902551	105	C	07/12/2023	05:02	-131.093	47.790	0	136.20	0	7.3140	0	33.5070	0	26.202	0	135.015	0	148.1	4	50.3	4	-1E+10	1	-1E+10	1	-1E+10	1	-1E+10	1	-1E+10	1	-1E+10	1
4902551	105	C	07/12/2023	05:02	-131.093	47.790	0	137.10	0	7.3130	0	33.5220	0	26.214	0	135.907	0	147.0	4	49.9	4	-1E+10	1	-1E+10	1	-1E+10	1	-1E+10	1	-1E+10	1	-1E+10	1
4902551	105	C	07/12/2023	05:02	-131.093	47.790	0	138.10	0	7.3010	0	33.5520	0	26.239	0	136.898	0	146.0	4	49.6	4	-1E+10	1	-1E+10	1	-1E+10	1	-1E+10	1	-1E+10	1	-1E+10	1
4902551	105	C	07/12/2023	05:02	-131.093	47.790	0	139.00	0	7.3000	0	33.5570	0	26.243	0	137.790	0	145.0	4	49.2	4	-1E+10	1	-1E+10	1	-1E+10	1	-1E+10	1	-1E+10	1	-1E+10	1
4902551	105	C	07/12/2023	05:02	-131.093	47.790	0	140.00	0	7.3030	0	33.5580	0	26.243	0	138.781	0	143.8	4	48.8	4	-1E+10	1	-1E+10	1	-1E+10	1	-1E+10	1	-1E+10	1	-1E+10	1
4902551	105	C	07/12/2023	05:02	-131.093	47.790	0	141.00	0	7.3150	0	33.5660	0	26.248	0	139.772	0	142.6	4	48.4	4	-1E+10	1	-1E+10	1	-1E+10	1	-1E+10	1	-1E+10	1	-1E+10	1
4902551	105	C	07/12/2023	05:02	-131.093	47.790	0	141.90	0	7.3360	0	33.5740	0	26.251	0	140.664	0	141.8	4	48.2	4	-1E+10	1	-1E+10	1	-1E+10	1	-1E+10	1	-1E+10	1	-1E+10	1
4902551	105	C	07/12/2023	05:02	-131.093	47.790	0	142.90	0	7.3410	0	33.5840	0	26.258	0	141.655	0	140.8	4	47.9	4	-1E+10	1	-1E+10	1	-1E+10	1	-1E+10	1	-1E+10	1	-1E+10	1
4902551	105	C	07/12/2023	05:02	-131.093	47.790	0	143.90	0	7.3640	0	33.6040	0	26.271	0	142.645	0	140.2	4	47.7	4	-1E+10	1	-1E+10	1	-1E+10	1	-1E+10	1	-1E+10	1	-1E+10	1
4902551	105	C	07/12/2023	05:02	-131.093	47.790	0	145.00	0	7.3660	0	33.6100	0	26.275	0	143.736	0	139.9	4	47.6	4	-1E+10	1	-1E+10	1	-1E+10	1	-1E+10	1	-1E+10	1	-1E+10	1
4902551	105	C	07/12/2023	05:02	-131.093	47.790	0	146.00	0	7.3080	0	33.6120	0	26.285	0	144.726	0	139.3	4	47.3	4	-1E+10	1	-1E+10	1	-1E+10	1	-1E+10	1	-1E+10	1	-1E+10	1
4902551	105	C	07/12/2023	05:02	-131.093	47.790	0	147.00	0	7.2910	0	33.6110	0	26.287	0	145.717	0	138.3	4	47.0	4	-1E+10	1	-1E+10	1	-1E+10	1	-1E+10	1	-1E+10	1	-1E+10	1
4902551	105	C	07/12/2023	05:02	-131.093	47.790	0	148.00	0	7.3050	0	33.6250	0	26.296	0	146.708	0	137.4	4	46.7	4	-1E+10	1	-1E+10	1	-1E+10	1	-1E+10	1	-1E+10	1	-1E+10	1
4902551	105	C	07/12/2023	05:02	-131.093	47.790	0	149.10	0	7.3030	0	33.6430	0	26.310	0	147.798	0	136.7	4	46.4	4	-1E+10	1	-1E+10	1	-1E+10	1	-1E+10	1	-1E+10	1	-1E+10	1
4902551	105	C	07/12/2023	05:02	-131.093	47.790	0	150.10	0	7.2750	0	33.6650	0	26.331	0	148.789	0	136.2	4	46.2	4	-1E+10	1	-1E+10	1	-1E+10	1	-1E+10	1	-1E+10	1	-1E+10	1
4902551	105	C	07/12/2023	05:02	-131.093	47.790	0	151.10	0	7.2730	0	33.6650	0	26.332	0	149.780	0	135.7	4	46.1	4	-1E+10	1	-1E+10	1	-1E+10	1	-1E+10	1	-1E+10	1	-1E+10	1
4902551	105	C	07/12/2023	05:02	-131.093	47.790	0	152.20	0	7.2570	0	33.6710	0	26.339	0	150.870	0	135.2	4	45.9	4	-1E+10	1	-1E+10	1	-1E+10	1	-1E+10	1	-1E+10	1	-1E+10	1
4902551	105	C	07/12/2023	05:02	-131.093	47.790	0	153.20	0	7.2570	0	33.6750	0	26.342	0	151.861	0	134.7	4	45.7	4	-1E+10	1	-1E+10	1	-1E+10	1	-1E+10	1	-1E+10	1	-1E+10	1
4902551	105	C	07/12/2023	05:02	-131.093	47.790	0	154.30	0	7.2050	0	33.6990	0	26.368	0	152.951	0	134.3	4	45.5	4	-1E+10	1	-1E+10	1	-1E+10	1	-1E+10	1	-1E+10	1	-1E+10	1
4902551	105	C	07/12/2023	05:02	-131.093	47.790	0	155.40	0	7.1700	0	33.6990	0	26.373	0	154.041	0	133.7	4	45.3	4	-1E+10	1	-1E+10	1	-1E+10	1	-1E+10	1	-1E+10	1	-1E+10	1
4902551	105	C	07/12/2023	05:02	-131.093	47.790	0	156.50	0	7.1800	0	33.6970	0	26.370	0	155.131	0	133.1	4	45.1	4	-1E+10	1	-1E+10	1	-1E+10	1	-1E+10	1	-1E+10	1	-1E+10	1
4902551	105	C	07/12/2023	05:02	-131.093	47.790	0	157.60	0	7.1840	0	33.7120	0	26.381	0	156.221	0	132.6	4	44.9	4	-1E+10	1	-1E+10	1	-1E+10	1	-1E+10	1	-1E+10	1	-1E+10	1
4902551	105	C	07/12/2023	05:02	-131.093	47.790	0	158.60	0	7.1800	0	33.7160	0	26.385	0	157.212	0	132.2	4	44.8	4	-1E+10	1	-1E+10	1	-1E+10	1	-1E+10	1	-1E+10	1	-1E+10	1
4902551	105	C	07/12/2023	05:02	-131.093	47.790	0	159.70	0	7.1750	0	33.7340	0	26.400	0	158.302	0	132.0	4	44.7	4	-1E+10	1	-1E+10	1	-1E+10	1	-1E+10	1	-1E+10	1	-1E+10	1
4902551	105	C	07/12/2023	05:02	-131.093	47.790	0	160.80	0	7.1670	0	33.7380	0	26.404	0	159.392	0	131.9	4	44.7	4	-1E+10	1	-1E+10	1	-1E+10	1	-1E+10	1	-1E+10	1	-1E+10	1
4902551	105	C	07/12/2023	05:02	-131.093	47.790	0	161.90	0	7.1590	0	33.7470	0	26.412	0	160.482	0	131.9	4	44.7	4	-1E+10	1	-1E+10	1	-1E+10	1	-1E+10	1	-1E+10	1	-1E+10	1
4902551	105	C	07/12/2023	05:02	-131.093	47.790	0	163.00	0	7.1070	0	33.7610	0	26.430	0	161.571	0	132.1	4	44.7	4	-1E+10	1	-1E+10	1	-1E+10	1	-1E+10	1	-1E+10	1	-1E+10	1
4902551	105	C	07/12/2023	05:02	-131.093	47.790	0	164.10	0	7.0640	0	33.7530	0	26.430	0	162.661	0	132.3	4	44.7	4	-1E+10	1	-1E+10	1	-1E+10	1	-1E+10	1	-1E+10	1	-1E+10	1
4902551	105	C	07/12/2023	05:02	-131.093	47.790	0	165.30	0	7.0540	0	33.7540	0	26.432	0	163.850	0	132.3	4	44.7	4	-1E+10	1	-1E+10	1	-1E+10	1	-1E+10	1	-1E+10	1	-1E+10	1
4902551	105	C	07/12/2023	05:02	-131.093	47.790	0	166.30	0	7.0350	0	33.7590	0	26.439	0	164.841	0	132.3	4	44.7	4	-1E+10	1	-1E+10	1	-1E+10	1	-1E+10	1	-1E+10	1	-1E+10	1
4902551	105	C	07/12/2023	05:02	-131.093	47.790	0	167.40	0	6.9790	0	33.7600	0	26.447	0	165.931	0	132.3	4	44.6	4	-1E+10	1	-1E+10	1	-1E+10	1	-1E+10	1	-1E+10	1	-1E+10	1
4902551	105	C	07/12/2023	05:02	-131.093	47.790	0	168.50	0	6.9690	0	33.7590	0	26.448	0	167.021	0	132.1	4	44.6	4	-1E+10	1	-1E+10	1	-1E+10	1	-1E+10	1	-1E+10	1	-1E+10	1
4902551	105	C	07/12/2023	05:02	-131.093	47.790	0	169.60	0	6.9600	0	33.7590	0	26.449	0	168.111	0	131.8	4	44.5	4	-1E+10	1	-1E+10	1	-1E+10	1	-1E+10	1	-1E+10	1	-1E+10	1
4902551	105	C	07/12/2023	05:02	-131.093	47.790	0	170.60	0	6.9400	0	33.7640	0	26.456	0	169.102	0	131.4	4	44.3	4	-1E+10	1	-1E+10	1	-1E+10	1	-1E+10	1	-1E+10	1	-1E+10	1
4902551	105	C	07/12/2023	05:02	-131.093	47.790	0	171.60	0	6.8920	0	33.7690	0	26.466	0	170.093	0	130.9	4	44.1	4	-1E+10	1	-1E+10	1	-1E+10	1	-1E+10	1	-1E+10	1	-1E+10	1
4902551	105	C	07/12/2023	05:02	-131.093	47.790	0	172.80	0	6.8780	0	33.7720	0	26.470	0	171.282	0	130.1	4	43.8	4	-1E+10	1	-1E+10	1	-1E+10	1	-1E+10	1	-1E+10	1	-1E+10	1
4902551	105	C	07/12/2023	05:02	-131.093	47.790	0	174.00	0	6.8790	0	33.7780	0	26.475	0	172.471	0	129.4	4	43.6	4	-1E+10	1	-1E+10	1	-1E+10	1	-1E+10	1	-1E+10	1	-1E+10	1
4902551	105	C	07/12/2023	05:02	-131.093	47.790	0	175.20	0	6.8700	0	33.7820	0	26.479	0	173.659	0	128.7	4	43.3	4	-1E+10	1	-1E+10	1	-1E+10	1	-1E+10	1	-1E+10	1	-1E+10	1
4902551	105	C	07/12/2023	05:02	-131.093	47.790	0	176.00	0	6.8600	0	33.7850	0	26.483	0	174.452	0	128.3	4	43.2	4	-1E+10	1	-1E+10	1	-1E+10	1	-1E+10	1	-1E+10	1	-1E+10	1
4902551	105	C	07/12/2023	05:02	-131.093	47.790	0	176.80	0	6.8470	0	33.7890	0	26.488	0	175.245	0	128.0	4	43.1	4	-1E+10	1	-1E+10	1	-1E+10	1	-1E+10	1	-1E+10	1	-1E+10	1
4902551	105	C	07/12/2023	05:02	-131.093	47.790	0	178.00	0	6.8380	0	33.7890	0	26.489	0	176.434	0	127.5	4	42.9	4	-1E+10	1	-1E+10	1	-1E+10	1	-1E+10	1	-1E+10	1	-1E+10	1
4902551	105	C	07/12/2023	05:02	-131.093	47.790	0	179.20	0	6.8290	0	33.7900	0	26.491	0	177.623	0	126.9	4	42.7	4	-1E+10	1	-1E+10	1	-1E+10	1	-1E+10	1	-1E+10	1	-1E+10	1
4902551	105	C	07/12/2023	05:02	-131.093	47.790	0	179.90	0	6.8100	0	33.7970	0	26.499	0	178.316	0	126.5	4	42.5	4	-1E+10	1	-1E+10	1	-1E+10	1	-1E+10	1	-1E+10	1	-1E+10	1
4902551	105	C	07/12/2023	05:02	-131.093	47.790	0	180.70	0	6.7650	0	33.7920	0	26.501	0	179.109	0	126.2	4	42.4	4	-1E+10	1	-1E+10	1	-1E+10	1	-1E+10	1	-1E+10	1	-1E+10	1
4902551	105	C	07/12/2023	05:02	-131.093	47.790	0	181.90	0	6.7400	0	33.7940	0	26.506	0	180.298	0	125.7	4	42.2	4	-1E+10	1	-1E+10	1	-1E+10	1	-1E+10	1	-1E+10	1	-1E+10	1
4902551	105	C	07/12/2023	05:02	-131.093	47.790	0	183.10	0	6.7030	0	33.7970	0	26.514	0	181.487	0	125.1	4	42.0	4	-1E+10	1	-1E+10	1	-1E+10	1	-1E+10	1	-1E+10	1	-1E+10	1
4902551	105	C	07/12/2023	05:02	-131.093	47.790	0	183.90	0	6.6850	0	33.7950	0	26.514	0	182.279	0	124.7	4	41.8	4	-1E+10	1	-1E+10	1	-1E+10	1	-1E+10	1	-1E+10	1	-1E+10	1
4902551	105	C	07/12/2023	05:02	-131.093	47.790	0	185.00	0	6.6700	0	33.7940	0	26.516	0	183.369	0	124.0	4	41.6	4	-1E+10	1	-1E+10	1	-1E+10	1	-1E+10	1	-1E+10	1	-1E+10	1
4902551	105	C	07/12/2023	05:02	-131.093	47.790	0	186.20	0	6.6730	0	33.7960	0	26.517	0	184.558	0	123.1	4	41.3	4	-1E+10	1	-1E+10	1	-1E+10	1	-1E+10	1	-1E+10	1	-1E+10	1
4902551	105	C	07/12/2023	05:02	-131.093	47.790	0	187.00	0	6.6670	0	33.8000	0	26.521	0	185.350	0	122.6	4	41.1	4	-1E+10	1	-1E+10	1	-1E+10	1	-1E+10	1	-1E+10	1	-1E+10	1
4902551	105	C	07/12/2023	05:02	-131.093	47.790	0	187.80	0	6.6650	0	33.8000	0	26.521	0	186.143	0	122.0	4	40.9	4	-1E+10	1	-1E+10	1	-1E+10	1	-1E+10	1	-1E+10	1	-1E+10	1
4902551	105	C	07/12/2023	05:02	-131.093	47.790	0	188.60	0	6.6560	0	33.8040	0	26.525	0	186.936	0	121.3	4	40.6	4	-1E+10	1	-1E+10	1	-1E+10	1	-1E+10	1	-1E+10	1	-1E+10	1
4902551	105	C	07/12/2023	05:02	-131.093	47.790	0	189.80	0	6.6610	0	33.8050	0	26.526	0	188.124	0	120.2	4	40.3	4	-1E+10	1	-1E+10	1	-1E+10	1	-1E+10	1	-1E+10	1	-1E+10	1
4902551	105	C	07/12/2023	05:02	-131.093	47.790	0	191.10	0	6.6650	0	33.8150	0	26.533	0	189.412	0	119.3	4	40.0	4	-1E+10	1	-1E+10	1	-1E+10	1	-1E+10	1	-1E+10	1	-1E+10	1
4902551	105	C	07/12/2023	05:02	-131.093	47.790	0	191.90	0	6.6630	0	33.8150	0	26.533	0	190.205	0	118.8	4	39.8	4	-1E+10	1	-1E+10	1	-1E+10	1	-1E+10	1	-1E+10	1	-1E+10	1
4902551	105	C	07/12/2023	05:02	-131.093	47.790	0	192.70	0	6.6620	0	33.8150	0	26.533	0	190.997	0	118.3	4	39.7	4	-1E+10	1	-1E+10	1	-1E+10	1	-1E+10	1	-1E+10	1	-1E+10	1
4902551	105	C	07/12/2023	05:02	-131.093	47.790	0	193.90	0	6.6270	0	33.8210	0	26.543	0	192.186	0	117.5	4	39.3	4	-1E+10	1	-1E+10	1	-1E+10	1	-1E+10	1	-1E+10	1	-1E+10	1
4902551	105	C	07/12/2023	05:02	-131.093	47.790	0	195.20	0	6.6340	0	33.8210	0	26.542	0	193.474	0	116.7	4	39.1	4	-1E+10	1	-1E+10	1	-1E+10	1	-1E+10	1	-1E+10	1	-1E+10	1
4902551	105	C	07/12/2023	05:02	-131.093	47.790	0	196.00	0	6.6500	0	33.8290	0	26.546	0	194.267	0	116.3	4	39.0	4	-1E+10	1	-1E+10	1	-1E+10	1	-1E+10	1	-1E+10	1	-1E+10	1
4902551	105	C	07/12/2023	05:02	-131.093	47.790	0	196.90	0	6.6240	0	33.8370	0	26.556	0	195.158	0	115.8	4	38.8	4	-1E+10	1	-1E+10	1	-1E+10	1	-1E+10	1	-1E+10	1	-1E+10	1
4902551	105	C	07/12/2023	05:02	-131.093	47.790	0	197.70	0	6.6040	0	33.8240	0	26.548	0	195.951	0	115.4	4	38.6	4	-1E+10	1	-1E+10	1	-1E+10	1	-1E+10	1	-1E+10	1	-1E+10	1
4902551	105	C	07/12/2023	05:02	-131.093	47.790	0	198.60	0	6.6060	0	33.8270	0	26.550	0	196.843	0	114.8	4	38.5	4	-1E+10	1	-1E+10	1	-1E+10	1	-1E+10	1	-1E+10	1	-1E+10	1
4902551	105	C	07/12/2023	05:02	-131.093	47.790	0	199.90	0	6.6040	0	33.8320	0	26.554	0	198.130	0	114.2	4	38.2	4	-1E+10	1	-1E+10	1	-1E+10	1	-1E+10	1	-1E+10	1	-1E+10	1
4902551	105	C	07/12/2023	05:02	-131.093	47.790	0	201.30	0	6.6020	0	33.8350	0	26.557	0	199.517	0	113.5	4	38.0	4	-1E+10	1	-1E+10	1	-1E+10	1	-1E+10	1	-1E+10	1	-1E+10	1
4902551	105	C	07/12/2023	05:02	-131.093	47.790	0	202.10	0	6.5980	0	33.8360	0	26.558	0	200.310	0	113.0	4	37.8	4	-1E+10	1	-1E+10	1	-1E+10	1	-1E+10	1	-1E+10	1	-1E+10	1
4902551	105	C	07/12/2023	05:02	-131.093	47.790	0	203.10	0	6.5960	0	33.8360	0	26.559	0	201.301	0	112.5	4	37.6	4	-1E+10	1	-1E+10	1	-1E+10	1	-1E+10	1	-1E+10	1	-1E+10	1
4902551	105	C	07/12/2023	05:02	-131.093	47.790	0	204.00	0	6.5920	0	33.8360	0	26.559	0	202.192	0	112.0	4	37.5	4	-1E+10	1	-1E+10	1	-1E+10	1	-1E+10	1	-1E+10	1	-1E+10	1
4902551	105	C	07/12/2023	05:02	-131.093	47.790	0	204.90	0	6.5680	0	33.8420	0	26.567	0	203.084	0	111.5	4	37.3	4	-1E+10	1	-1E+10	1	-1E+10	1	-1E+10	1	-1E+10	1	-1E+10	1
4902551	105	C	07/12/2023	05:02	-131.093	47.790	0	205.80	0	6.5480	0	33.8480	0	26.575	0	203.975	0	111.1	4	37.2	4	-1E+10	1	-1E+10	1	-1E+10	1	-1E+10	1	-1E+10	1	-1E+10	1
4902551	105	C	07/12/2023	05:02	-131.093	47.790	0	206.70	0	6.5460	0	33.8480	0	26.575	0	204.867	0	110.7	4	37.0	4	-1E+10	1	-1E+10	1	-1E+10	1	-1E+10	1	-1E+10	1	-1E+10	1
4902551	105	C	07/12/2023	05:02	-131.093	47.790	0	207.60	0	6.5420	0	33.8490	0	26.576	0	205.758	0	110.4	4	36.9	4	-1E+10	1	-1E+10	1	-1E+10	1	-1E+10	1	-1E+10	1	-1E+10	1
4902551	105	C	07/12/2023	05:02	-131.093	47.790	0	208.60	0	6.5380	0	33.8500	0	26.577	0	206.749	0	110.0	4	36.8	4	-1E+10	1	-1E+10	1	-1E+10	1	-1E+10	1	-1E+10	1	-1E+10	1
4902551	105	C	07/12/2023	05:02	-131.093	47.790	0	209.50	0	6.5340	0	33.8490	0	26.577	0	207.641	0	109.5	4	36.6	4	-1E+10	1	-1E+10	1	-1E+10	1	-1E+10	1	-1E+10	1	-1E+10	1
4902551	105	C	07/12/2023	05:02	-131.093	47.790	0	210.50	0	6.5290	0	33.8530	0	26.581	0	208.631	0	109.1	4	36.5	4	-1E+10	1	-1E+10	1	-1E+10	1	-1E+10	1	-1E+10	1	-1E+10	1
4902551	105	C	07/12/2023	05:02	-131.093	47.790	0	211.90	0	6.5080	0	33.8540	0	26.585	0	210.018	0	108.6	4	36.3	4	-1E+10	1	-1E+10	1	-1E+10	1	-1E+10	1	-1E+10	1	-1E+10	1
4902551	105	C	07/12/2023	05:02	-131.093	47.790	0	213.40	0	6.4930	0	33.8550	0	26.587	0	211.504	0	108.0	4	36.1	4	-1E+10	1	-1E+10	1	-1E+10	1	-1E+10	1	-1E+10	1	-1E+10	1
4902551	105	C	07/12/2023	05:02	-131.093	47.790	0	214.40	0	6.4910	0	33.8570	0	26.589	0	212.495	0	107.6	4	36.0	4	-1E+10	1	-1E+10	1	-1E+10	1	-1E+10	1	-1E+10	1	-1E+10	1
4902551	105	C	07/12/2023	05:02	-131.093	47.790	0	215.40	0	6.4930	0	33.8570	0	26.589	0	213.485	0	107.3	4	35.8	4	-1E+10	1	-1E+10	1	-1E+10	1	-1E+10	1	-1E+10	1	-1E+10	1
4902551	105	C	07/12/2023	05:02	-131.093	47.790	0	216.30	0	6.4930	0	33.8610	0	26.592	0	214.377	0	106.8	4	35.7	4	-1E+10	1	-1E+10	1	-1E+10	1	-1E+10	1	-1E+10	1	-1E+10	1
4902551	105	C	07/12/2023	05:02	-131.093	47.790	0	217.40	0	6.4870	0	33.8620	0	26.594	0	215.466	0	106.6	4	35.6	4	-1E+10	1	-1E+10	1	-1E+10	1	-1E+10	1	-1E+10	1	-1E+10	1
4902551	105	C	07/12/2023	05:02	-131.093	47.790	0	218.30	0	6.4850	0	33.8630	0	26.595	0	216.358	0	106.3	4	35.5	4	-1E+10	1	-1E+10	1	-1E+10	1	-1E+10	1	-1E+10	1	-1E+10	1
4902551	105	C	07/12/2023	05:02	-131.093	47.790	0	219.30	0	6.4500	0	33.8700	0	26.605	0	217.349	0	106.1	4	35.4	4	-1E+10	1	-1E+10	1	-1E+10	1	-1E+10	1	-1E+10	1	-1E+10	1
4902551	105	C	07/12/2023	05:02	-131.093	47.790	0	220.30	0	6.4340	0	33.8640	0	26.602	0	218.339	0	105.8	4	35.3	4	-1E+10	1	-1E+10	1	-1E+10	1	-1E+10	1	-1E+10	1	-1E+10	1
4902551	105	C	07/12/2023	05:02	-131.093	47.790	0	221.30	0	6.4070	0	33.8700	0	26.610	0	219.330	0	105.5	4	35.2	4	-1E+10	1	-1E+10	1	-1E+10	1	-1E+10	1	-1E+10	1	-1E+10	1
4902551	105	C	07/12/2023	05:02	-131.093	47.790	0	222.30	0	6.3800	0	33.8660	0	26.611	0	220.320	0	105.4	4	35.1	4	-1E+10	1	-1E+10	1	-1E+10	1	-1E+10	1	-1E+10	1	-1E+10	1
4902551	105	C	07/12/2023	05:02	-131.093	47.790	0	223.30	0	6.3780	0	33.8660	0	26.611	0	221.311	0	105.1	4	35.0	4	-1E+10	1	-1E+10	1	-1E+10	1	-1E+10	1	-1E+10	1	-1E+10	1
4902551	105	C	07/12/2023	05:02	-131.093	47.790	0	224.30	0	6.3750	0	33.8660	0	26.611	0	222.301	0	104.9	4	34.9	4	-1E+10	1	-1E+10	1	-1E+10	1	-1E+10	1	-1E+10	1	-1E+10	1
4902551	105	C	07/12/2023	05:02	-131.093	47.790	0	225.30	0	6.3710	0	33.8660	0	26.612	0	223.292	0	104.5	4	34.8	4	-1E+10	1	-1E+10	1	-1E+10	1	-1E+10	1	-1E+10	1	-1E+10	1
4902551	105	C	07/12/2023	05:02	-131.093	47.790	0	226.40	0	6.3590	0	33.8680	0	26.615	0	224.381	0	104.3	4	34.7	4	-1E+10	1	-1E+10	1	-1E+10	1	-1E+10	1	-1E+10	1	-1E+10	1
4902551	105	C	07/12/2023	05:02	-131.093	47.790	0	227.40	0	6.3480	0	33.8690	0	26.617	0	225.372	0	104.1	4	34.6	4	-1E+10	1	-1E+10	1	-1E+10	1	-1E+10	1	-1E+10	1	-1E+10	1
4902551	105	C	07/12/2023	05:02	-131.093	47.790	0	228.40	0	6.3460	0	33.8690	0	26.618	0	226.363	0	103.8	4	34.5	4	-1E+10	1	-1E+10	1	-1E+10	1	-1E+10	1	-1E+10	1	-1E+10	1
4902551	105	C	07/12/2023	05:02	-131.093	47.790	0	229.40	0	6.3420	0	33.8700	0	26.619	0	227.353	0	103.5	4	34.5	4	-1E+10	1	-1E+10	1	-1E+10	1	-1E+10	1	-1E+10	1	-1E+10	1
4902551	105	C	07/12/2023	05:02	-131.093	47.790	0	230.40	0	6.3400	0	33.8690	0	26.618	0	228.344	0	103.2	4	34.3	4	-1E+10	1	-1E+10	1	-1E+10	1	-1E+10	1	-1E+10	1	-1E+10	1
4902551	105	C	07/12/2023	05:02	-131.093	47.790	0	231.50	0	6.3360	0	33.8700	0	26.620	0	229.433	0	102.9	4	34.2	4	-1E+10	1	-1E+10	1	-1E+10	1	-1E+10	1	-1E+10	1	-1E+10	1
4902551	105	C	07/12/2023	05:02	-131.093	47.790	0	232.50	0	6.3350	0	33.8700	0	26.620	0	230.424	0	102.6	4	34.1	4	-1E+10	1	-1E+10	1	-1E+10	1	-1E+10	1	-1E+10	1	-1E+10	1
4902551	105	C	07/12/2023	05:02	-131.093	47.790	0	233.50	0	6.3350	0	33.8700	0	26.620	0	231.414	0	102.2	4	34.0	4	-1E+10	1	-1E+10	1	-1E+10	1	-1E+10	1	-1E+10	1	-1E+10	1
4902551	105	C	07/12/2023	05:02	-131.093	47.790	0	234.50	0	6.3300	0	33.8720	0	26.622	0	232.405	0	101.8	4	33.9	4	-1E+10	1	-1E+10	1	-1E+10	1	-1E+10	1	-1E+10	1	-1E+10	1
4902551	105	C	07/12/2023	05:02	-131.093	47.790	0	235.60	0	6.3280	0	33.8720	0	26.622	0	233.494	0	101.4	4	33.8	4	-1E+10	1	-1E+10	1	-1E+10	1	-1E+10	1	-1E+10	1	-1E+10	1
4902551	105	C	07/12/2023	05:02	-131.093	47.790	0	236.60	0	6.3100	0	33.8750	0	26.627	0	234.485	0	101.0	4	33.6	4	-1E+10	1	-1E+10	1	-1E+10	1	-1E+10	1	-1E+10	1	-1E+10	1
4902551	105	C	07/12/2023	05:02	-131.093	47.790	0	237.70	0	6.3000	0	33.8760	0	26.629	0	235.574	0	100.8	4	33.5	4	-1E+10	1	-1E+10	1	-1E+10	1	-1E+10	1	-1E+10	1	-1E+10	1
4902551	105	C	07/12/2023	05:02	-131.093	47.790	0	238.70	0	6.2990	0	33.8800	0	26.632	0	236.565	0	100.5	4	33.4	4	-1E+10	1	-1E+10	1	-1E+10	1	-1E+10	1	-1E+10	1	-1E+10	1
4902551	105	C	07/12/2023	05:02	-131.093	47.790	0	239.80	0	6.2830	0	33.8790	0	26.634	0	237.654	0	100.2	4	33.3	4	-1E+10	1	-1E+10	1	-1E+10	1	-1E+10	1	-1E+10	1	-1E+10	1
4902551	105	C	07/12/2023	05:02	-131.093	47.790	0	240.80	0	6.2750	0	33.8830	0	26.638	0	238.645	0	100.0	4	33.2	4	-1E+10	1	-1E+10	1	-1E+10	1	-1E+10	1	-1E+10	1	-1E+10	1
4902551	105	C	07/12/2023	05:02	-131.093	47.790	0	241.90	0	6.2380	0	33.8800	0	26.640	0	239.734	0	99.7	4	33.1	4	-1E+10	1	-1E+10	1	-1E+10	1	-1E+10	1	-1E+10	1	-1E+10	1
4902551	105	C	07/12/2023	05:02	-131.093	47.790	0	242.90	0	6.2250	0	33.8800	0	26.642	0	240.725	0	99.3	4	33.0	4	-1E+10	1	-1E+10	1	-1E+10	1	-1E+10	1	-1E+10	1	-1E+10	1
4902551	105	C	07/12/2023	05:02	-131.093	47.790	0	244.00	0	6.2080	0	33.8830	0	26.647	0	241.814	0	98.9	4	32.8	4	-1E+10	1	-1E+10	1	-1E+10	1	-1E+10	1	-1E+10	1	-1E+10	1
4902551	105	C	07/12/2023	05:02	-131.093	47.790	0	245.10	0	6.2010	0	33.8810	0	26.646	0	242.904	0	98.6	4	32.7	4	-1E+10	1	-1E+10	1	-1E+10	1	-1E+10	1	-1E+10	1	-1E+10	1
4902551	105	C	07/12/2023	05:02	-131.093	47.790	0	246.10	0	6.1960	0	33.8810	0	26.647	0	243.894	0	98.3	4	32.6	4	-1E+10	1	-1E+10	1	-1E+10	1	-1E+10	1	-1E+10	1	-1E+10	1
4902551	105	C	07/12/2023	05:02	-131.093	47.790	0	247.20	0	6.1900	0	33.8830	0	26.649	0	244.984	0	98.0	4	32.5	4	-1E+10	1	-1E+10	1	-1E+10	1	-1E+10	1	-1E+10	1	-1E+10	1
4902551	105	C	07/12/2023	05:02	-131.093	47.790	0	248.30	0	6.1510	0	33.8850	0	26.655	0	246.073	0	97.7	4	32.4	4	-1E+10	1	-1E+10	1	-1E+10	1	-1E+10	1	-1E+10	1	-1E+10	1
4902551	105	C	07/12/2023	05:02	-131.093	47.790	0	249.30	0	6.1170	0	33.8800	0	26.656	0	247.064	0	97.2	4	32.2	4	-1E+10	1	-1E+10	1	-1E+10	1	-1E+10	1	-1E+10	1	-1E+10	1
4902551	105	C	07/12/2023	05:02	-131.093	47.790	0	250.40	0	6.1140	0	33.8820	0	26.658	0	248.153	0	96.6	4	32.0	4	-1E+10	1	-1E+10	1	-1E+10	1	-1E+10	1	-1E+10	1	-1E+10	1
4902551	105	C	07/12/2023	05:02	-131.093	47.790	0	251.50	0	6.0960	0	33.8900	0	26.666	0	249.243	0	96.2	4	31.8	4	-1E+10	1	-1E+10	1	-1E+10	1	-1E+10	1	-1E+10	1	-1E+10	1
4902551	105	C	07/12/2023	05:02	-131.093	47.790	0	252.60	0	6.0880	0	33.8850	0	26.663	0	250.332	0	95.8	4	31.7	4	-1E+10	1	-1E+10	1	-1E+10	1	-1E+10	1	-1E+10	1	-1E+10	1
4902551	105	C	07/12/2023	05:02	-131.093	47.790	0	253.70	0	6.0780	0	33.8840	0	26.664	0	251.421	0	95.3	4	31.5	4	-1E+10	1	-1E+10	1	-1E+10	1	-1E+10	1	-1E+10	1	-1E+10	1
4902551	105	C	07/12/2023	05:02	-131.093	47.790	0	254.80	0	6.0660	0	33.8850	0	26.666	0	252.511	0	94.8	4	31.4	4	-1E+10	1	-1E+10	1	-1E+10	1	-1E+10	1	-1E+10	1	-1E+10	1
4902551	105	C	07/12/2023	05:02	-131.093	47.790	0	255.90	0	6.0580	0	33.8840	0	26.666	0	253.600	0	94.3	4	31.2	4	-1E+10	1	-1E+10	1	-1E+10	1	-1E+10	1	-1E+10	1	-1E+10	1
4902551	105	C	07/12/2023	05:02	-131.093	47.790	0	256.90	0	6.0590	0	33.8870	0	26.669	0	254.591	0	93.7	4	31.0	4	-1E+10	1	-1E+10	1	-1E+10	1	-1E+10	1	-1E+10	1	-1E+10	1
4902551	105	C	07/12/2023	05:02	-131.093	47.790	0	258.00	0	6.0390	0	33.8880	0	26.672	0	255.680	0	93.3	4	30.8	4	-1E+10	1	-1E+10	1	-1E+10	1	-1E+10	1	-1E+10	1	-1E+10	1
4902551	105	C	07/12/2023	05:02	-131.093	47.790	0	259.10	0	6.0390	0	33.8860	0	26.670	0	256.770	0	92.8	4	30.7	4	-1E+10	1	-1E+10	1	-1E+10	1	-1E+10	1	-1E+10	1	-1E+10	1
4902551	105	C	07/12/2023	05:02	-131.093	47.790	0	260.20	0	6.0390	0	33.8910	0	26.674	0	257.859	0	92.4	4	30.5	4	-1E+10	1	-1E+10	1	-1E+10	1	-1E+10	1	-1E+10	1	-1E+10	1
4902551	105	C	07/12/2023	05:02	-131.093	47.790	0	261.30	0	6.0260	0	33.8890	0	26.674	0	258.948	0	91.9	4	30.4	4	-1E+10	1	-1E+10	1	-1E+10	1	-1E+10	1	-1E+10	1	-1E+10	1
4902551	105	C	07/12/2023	05:02	-131.093	47.790	0	262.40	0	6.0050	0	33.8920	0	26.679	0	260.038	0	91.5	4	30.2	4	-1E+10	1	-1E+10	1	-1E+10	1	-1E+10	1	-1E+10	1	-1E+10	1
4902551	105	C	07/12/2023	05:02	-131.093	47.790	0	263.40	0	6.0020	0	33.8890	0	26.677	0	261.028	0	90.8	4	30.0	4	-1E+10	1	-1E+10	1	-1E+10	1	-1E+10	1	-1E+10	1	-1E+10	1
4902551	105	C	07/12/2023	05:02	-131.093	47.790	0	264.50	0	5.9950	0	33.8910	0	26.680	0	262.118	0	90.1	4	29.8	4	-1E+10	1	-1E+10	1	-1E+10	1	-1E+10	1	-1E+10	1	-1E+10	1
4902551	105	C	07/12/2023	05:02	-131.093	47.790	0	265.60	0	5.9760	0	33.8910	0	26.682	0	263.207	0	89.4	4	29.5	4	-1E+10	1	-1E+10	1	-1E+10	1	-1E+10	1	-1E+10	1	-1E+10	1
4902551	105	C	07/12/2023	05:02	-131.093	47.790	0	266.70	0	5.9530	0	33.8940	0	26.688	0	264.296	0	88.8	4	29.3	4	-1E+10	1	-1E+10	1	-1E+10	1	-1E+10	1	-1E+10	1	-1E+10	1
4902551	105	C	07/12/2023	05:02	-131.093	47.790	0	267.70	0	5.9330	0	33.8920	0	26.688	0	265.287	0	88.1	4	29.1	4	-1E+10	1	-1E+10	1	-1E+10	1	-1E+10	1	-1E+10	1	-1E+10	1
4902551	105	C	07/12/2023	05:02	-131.093	47.790	0	268.80	0	5.9120	0	33.8960	0	26.694	0	266.376	0	87.4	4	28.8	4	-1E+10	1	-1E+10	1	-1E+10	1	-1E+10	1	-1E+10	1	-1E+10	1
4902551	105	C	07/12/2023	05:02	-131.093	47.790	0	269.90	0	5.8900	0	33.8940	0	26.695	0	267.466	0	86.7	4	28.6	4	-1E+10	1	-1E+10	1	-1E+10	1	-1E+10	1	-1E+10	1	-1E+10	1
4902551	105	C	07/12/2023	05:02	-131.093	47.790	0	270.90	0	5.8870	0	33.8990	0	26.700	0	268.456	0	86.0	4	28.3	4	-1E+10	1	-1E+10	1	-1E+10	1	-1E+10	1	-1E+10	1	-1E+10	1
4902551	105	C	07/12/2023	05:02	-131.093	47.790	0	272.00	0	5.8700	0	33.9020	0	26.704	0	269.545	0	85.5	4	28.2	4	-1E+10	1	-1E+10	1	-1E+10	1	-1E+10	1	-1E+10	1	-1E+10	1
4902551	105	C	07/12/2023	05:02	-131.093	47.790	0	273.10	0	5.8790	0	33.9040	0	26.705	0	270.635	0	85.1	4	28.0	4	-1E+10	1	-1E+10	1	-1E+10	1	-1E+10	1	-1E+10	1	-1E+10	1
4902551	105	C	07/12/2023	05:02	-131.093	47.790	0	274.20	0	5.8730	0	33.9050	0	26.706	0	271.724	0	84.7	4	27.9	4	-1E+10	1	-1E+10	1	-1E+10	1	-1E+10	1	-1E+10	1	-1E+10	1
4902551	105	C	07/12/2023	05:02	-131.093	47.790	0	275.20	0	5.8630	0	33.9060	0	26.708	0	272.714	0	84.3	4	27.8	4	-1E+10	1	-1E+10	1	-1E+10	1	-1E+10	1	-1E+10	1	-1E+10	1
4902551	105	C	07/12/2023	05:02	-131.093	47.790	0	276.30	0	5.8560	0	33.9080	0	26.711	0	273.804	0	83.9	4	27.6	4	-1E+10	1	-1E+10	1	-1E+10	1	-1E+10	1	-1E+10	1	-1E+10	1
4902551	105	C	07/12/2023	05:02	-131.093	47.790	0	277.40	0	5.8510	0	33.9060	0	26.710	0	274.893	0	83.3	4	27.4	4	-1E+10	1	-1E+10	1	-1E+10	1	-1E+10	1	-1E+10	1	-1E+10	1
4902551	105	C	07/12/2023	05:02	-131.093	47.790	0	278.50	0	5.8430	0	33.9070	0	26.712	0	275.982	0	82.8	4	27.3	4	-1E+10	1	-1E+10	1	-1E+10	1	-1E+10	1	-1E+10	1	-1E+10	1
4902551	105	C	07/12/2023	05:02	-131.093	47.790	0	279.50	0	5.8350	0	33.9070	0	26.713	0	276.973	0	82.3	4	27.1	4	-1E+10	1	-1E+10	1	-1E+10	1	-1E+10	1	-1E+10	1	-1E+10	1
4902551	105	C	07/12/2023	05:02	-131.093	47.790	0	280.60	0	5.8240	0	33.9130	0	26.719	0	278.062	0	81.8	4	26.9	4	-1E+10	1	-1E+10	1	-1E+10	1	-1E+10	1	-1E+10	1	-1E+10	1
4902551	105	C	07/12/2023	05:02	-131.093	47.790	0	281.70	0	5.8070	0	33.9120	0	26.720	0	279.151	0	81.4	4	26.8	4	-1E+10	1	-1E+10	1	-1E+10	1	-1E+10	1	-1E+10	1	-1E+10	1
4902551	105	C	07/12/2023	05:02	-131.093	47.790	0	282.80	0	5.8030	0	33.9110	0	26.720	0	280.240	0	81.0	4	26.6	4	-1E+10	1	-1E+10	1	-1E+10	1	-1E+10	1	-1E+10	1	-1E+10	1
4902551	105	C	07/12/2023	05:02	-131.093	47.790	0	283.90	0	5.7950	0	33.9150	0	26.724	0	281.330	0	80.6	4	26.5	4	-1E+10	1	-1E+10	1	-1E+10	1	-1E+10	1	-1E+10	1	-1E+10	1
4902551	105	C	07/12/2023	05:02	-131.093	47.790	0	285.00	0	5.7900	0	33.9150	0	26.724	0	282.419	0	80.3	4	26.4	4	-1E+10	1	-1E+10	1	-1E+10	1	-1E+10	1	-1E+10	1	-1E+10	1
4902551	105	C	07/12/2023	05:02	-131.093	47.790	0	286.00	0	5.7900	0	33.9150	0	26.724	0	283.409	0	79.9	4	26.3	4	-1E+10	1	-1E+10	1	-1E+10	1	-1E+10	1	-1E+10	1	-1E+10	1
4902551	105	C	07/12/2023	05:02	-131.093	47.790	0	287.10	0	5.7900	0	33.9150	0	26.725	0	284.499	0	79.5	4	26.1	4	-1E+10	1	-1E+10	1	-1E+10	1	-1E+10	1	-1E+10	1	-1E+10	1
4902551	105	C	07/12/2023	05:02	-131.093	47.790	0	288.10	0	5.7740	0	33.9210	0	26.731	0	285.489	0	79.1	4	26.0	4	-1E+10	1	-1E+10	1	-1E+10	1	-1E+10	1	-1E+10	1	-1E+10	1
4902551	105	C	07/12/2023	05:02	-131.093	47.790	0	289.20	0	5.7660	0	33.9180	0	26.730	0	286.578	0	78.8	4	25.9	4	-1E+10	1	-1E+10	1	-1E+10	1	-1E+10	1	-1E+10	1	-1E+10	1
4902551	105	C	07/12/2023	05:02	-131.093	47.790	0	290.30	0	5.7610	0	33.9190	0	26.731	0	287.667	0	78.5	4	25.8	4	-1E+10	1	-1E+10	1	-1E+10	1	-1E+10	1	-1E+10	1	-1E+10	1
4902551	105	C	07/12/2023	05:02	-131.093	47.790	0	291.30	0	5.7600	0	33.9190	0	26.731	0	288.658	0	78.2	4	25.7	4	-1E+10	1	-1E+10	1	-1E+10	1	-1E+10	1	-1E+10	1	-1E+10	1
4902551	105	C	07/12/2023	05:02	-131.093	47.790	0	292.40	0	5.7570	0	33.9200	0	26.733	0	289.747	0	77.8	4	25.5	4	-1E+10	1	-1E+10	1	-1E+10	1	-1E+10	1	-1E+10	1	-1E+10	1
4902551	105	C	07/12/2023	05:02	-131.093	47.790	0	293.50	0	5.7490	0	33.9210	0	26.734	0	290.836	0	77.3	4	25.4	4	-1E+10	1	-1E+10	1	-1E+10	1	-1E+10	1	-1E+10	1	-1E+10	1
4902551	105	C	07/12/2023	05:02	-131.093	47.790	0	294.50	0	5.7370	0	33.9230	0	26.737	0	291.826	0	76.9	4	25.3	4	-1E+10	1	-1E+10	1	-1E+10	1	-1E+10	1	-1E+10	1	-1E+10	1
4902551	105	C	07/12/2023	05:02	-131.093	47.790	0	295.60	0	5.7210	0	33.9230	0	26.739	0	292.916	0	76.6	4	25.1	4	-1E+10	1	-1E+10	1	-1E+10	1	-1E+10	1	-1E+10	1	-1E+10	1
4902551	105	C	07/12/2023	05:02	-131.093	47.790	0	296.70	0	5.7070	0	33.9220	0	26.740	0	294.005	0	76.2	4	25.0	4	-1E+10	1	-1E+10	1	-1E+10	1	-1E+10	1	-1E+10	1	-1E+10	1
4902551	105	C	07/12/2023	05:02	-131.093	47.790	0	297.80	0	5.6890	0	33.9240	0	26.744	0	295.094	0	75.9	4	24.9	4	-1E+10	1	-1E+10	1	-1E+10	1	-1E+10	1	-1E+10	1	-1E+10	1
4902551	105	C	07/12/2023	05:02	-131.093	47.790	0	298.80	0	5.6840	0	33.9230	0	26.744	0	296.084	0	75.5	4	24.8	4	-1E+10	1	-1E+10	1	-1E+10	1	-1E+10	1	-1E+10	1	-1E+10	1
4902551	105	C	07/12/2023	05:02	-131.093	47.790	0	299.90	0	5.6820	0	33.9230	0	26.744	0	297.173	0	75.1	4	24.6	4	-1E+10	1	-1E+10	1	-1E+10	1	-1E+10	1	-1E+10	1	-1E+10	1
4902551	105	C	07/12/2023	05:02	-131.093	47.790	0	300.90	0	5.6630	0	33.9260	0	26.749	0	298.164	0	74.7	4	24.5	4	-1E+10	1	-1E+10	1	-1E+10	1	-1E+10	1	-1E+10	1	-1E+10	1
4902551	105	C	07/12/2023	05:02	-131.093	47.790	0	302.00	0	5.6530	0	33.9280	0	26.752	0	299.253	0	74.3	4	24.3	4	-1E+10	1	-1E+10	1	-1E+10	1	-1E+10	1	-1E+10	1	-1E+10	1
4902551	105	C	07/12/2023	05:02	-131.093	47.790	0	303.10	0	5.6440	0	33.9290	0	26.754	0	300.342	0	74.0	4	24.2	4	-1E+10	1	-1E+10	1	-1E+10	1	-1E+10	1	-1E+10	1	-1E+10	1
4902551	105	C	07/12/2023	05:02	-131.093	47.790	0	304.10	0	5.6390	0	33.9280	0	26.753	0	301.332	0	73.7	4	24.1	4	-1E+10	1	-1E+10	1	-1E+10	1	-1E+10	1	-1E+10	1	-1E+10	1
4902551	105	C	07/12/2023	05:02	-131.093	47.790	0	305.20	0	5.6310	0	33.9310	0	26.757	0	302.421	0	73.4	4	24.0	4	-1E+10	1	-1E+10	1	-1E+10	1	-1E+10	1	-1E+10	1	-1E+10	1
4902551	105	C	07/12/2023	05:02	-131.093	47.790	0	306.30	0	5.6280	0	33.9330	0	26.759	0	303.511	0	73.2	4	24.0	4	-1E+10	1	-1E+10	1	-1E+10	1	-1E+10	1	-1E+10	1	-1E+10	1
4902551	105	C	07/12/2023	05:02	-131.093	47.790	0	307.40	0	5.6250	0	33.9330	0	26.759	0	304.600	0	72.9	4	23.9	4	-1E+10	1	-1E+10	1	-1E+10	1	-1E+10	1	-1E+10	1	-1E+10	1
4902551	105	C	07/12/2023	05:02	-131.093	47.790	0	308.40	0	5.6220	0	33.9320	0	26.759	0	305.590	0	72.6	4	23.8	4	-1E+10	1	-1E+10	1	-1E+10	1	-1E+10	1	-1E+10	1	-1E+10	1
4902551	105	C	07/12/2023	05:02	-131.093	47.790	0	309.50	0	5.6060	0	33.9330	0	26.761	0	306.679	0	72.4	4	23.7	4	-1E+10	1	-1E+10	1	-1E+10	1	-1E+10	1	-1E+10	1	-1E+10	1
4902551	105	C	07/12/2023	05:02	-131.093	47.790	0	310.50	0	5.6030	0	33.9330	0	26.762	0	307.669	0	72.2	4	23.6	4	-1E+10	1	-1E+10	1	-1E+10	1	-1E+10	1	-1E+10	1	-1E+10	1
4902551	105	C	07/12/2023	05:02	-131.093	47.790	0	311.60	0	5.6030	0	33.9330	0	26.762	0	308.758	0	71.9	4	23.5	4	-1E+10	1	-1E+10	1	-1E+10	1	-1E+10	1	-1E+10	1	-1E+10	1
4902551	105	C	07/12/2023	05:02	-131.093	47.790	0	312.70	0	5.5850	0	33.9350	0	26.765	0	309.847	0	71.6	4	23.4	4	-1E+10	1	-1E+10	1	-1E+10	1	-1E+10	1	-1E+10	1	-1E+10	1
4902551	105	C	07/12/2023	05:02	-131.093	47.790	0	313.70	0	5.5660	0	33.9340	0	26.767	0	310.838	0	71.3	4	23.3	4	-1E+10	1	-1E+10	1	-1E+10	1	-1E+10	1	-1E+10	1	-1E+10	1
4902551	105	C	07/12/2023	05:02	-131.093	47.790	0	314.70	0	5.5590	0	33.9340	0	26.768	0	311.828	0	71.1	4	23.2	4	-1E+10	1	-1E+10	1	-1E+10	1	-1E+10	1	-1E+10	1	-1E+10	1
4902551	105	C	07/12/2023	05:02	-131.093	47.790	0	315.80	0	5.5510	0	33.9380	0	26.772	0	312.917	0	70.7	4	23.1	4	-1E+10	1	-1E+10	1	-1E+10	1	-1E+10	1	-1E+10	1	-1E+10	1
4902551	105	C	07/12/2023	05:02	-131.093	47.790	0	316.80	0	5.5460	0	33.9350	0	26.770	0	313.907	0	70.4	4	23.0	4	-1E+10	1	-1E+10	1	-1E+10	1	-1E+10	1	-1E+10	1	-1E+10	1
4902551	105	C	07/12/2023	05:02	-131.093	47.790	0	317.80	0	5.5280	0	33.9350	0	26.772	0	314.897	0	70.1	4	22.9	4	-1E+10	1	-1E+10	1	-1E+10	1	-1E+10	1	-1E+10	1	-1E+10	1
4902551	105	C	07/12/2023	05:02	-131.093	47.790	0	318.80	0	5.5140	0	33.9350	0	26.774	0	315.887	0	69.7	4	22.8	4	-1E+10	1	-1E+10	1	-1E+10	1	-1E+10	1	-1E+10	1	-1E+10	1
4902551	105	C	07/12/2023	05:02	-131.093	47.790	0	319.90	0	5.5160	0	33.9350	0	26.774	0	316.976	0	69.3	4	22.6	4	-1E+10	1	-1E+10	1	-1E+10	1	-1E+10	1	-1E+10	1	-1E+10	1
4902551	105	C	07/12/2023	05:02	-131.093	47.790	0	320.90	0	5.5140	0	33.9380	0	26.776	0	317.966	0	68.9	4	22.5	4	-1E+10	1	-1E+10	1	-1E+10	1	-1E+10	1	-1E+10	1	-1E+10	1
4902551	105	C	07/12/2023	05:02	-131.093	47.790	0	321.90	0	5.4850	0	33.9390	0	26.781	0	318.956	0	68.6	4	22.4	4	-1E+10	1	-1E+10	1	-1E+10	1	-1E+10	1	-1E+10	1	-1E+10	1
4902551	105	C	07/12/2023	05:02	-131.093	47.790	0	322.90	0	5.4820	0	33.9380	0	26.780	0	319.947	0	68.3	4	22.3	4	-1E+10	1	-1E+10	1	-1E+10	1	-1E+10	1	-1E+10	1	-1E+10	1
4902551	105	C	07/12/2023	05:02	-131.093	47.790	0	323.90	0	5.4770	0	33.9400	0	26.782	0	320.937	0	67.9	4	22.2	4	-1E+10	1	-1E+10	1	-1E+10	1	-1E+10	1	-1E+10	1	-1E+10	1
4902551	105	C	07/12/2023	05:02	-131.093	47.790	0	324.90	0	5.4710	0	33.9380	0	26.782	0	321.927	0	67.6	4	22.1	4	-1E+10	1	-1E+10	1	-1E+10	1	-1E+10	1	-1E+10	1	-1E+10	1
4902551	105	C	07/12/2023	05:02	-131.093	47.790	0	325.90	0	5.4670	0	33.9400	0	26.784	0	322.917	0	67.3	4	22.0	4	-1E+10	1	-1E+10	1	-1E+10	1	-1E+10	1	-1E+10	1	-1E+10	1
4902551	105	C	07/12/2023	05:02	-131.093	47.790	0	326.90	0	5.4610	0	33.9410	0	26.785	0	323.907	0	66.8	4	21.8	4	-1E+10	1	-1E+10	1	-1E+10	1	-1E+10	1	-1E+10	1	-1E+10	1
4902551	105	C	07/12/2023	05:02	-131.093	47.790	0	327.90	0	5.4450	0	33.9420	0	26.788	0	324.897	0	66.4	4	21.7	4	-1E+10	1	-1E+10	1	-1E+10	1	-1E+10	1	-1E+10	1	-1E+10	1
4902551	105	C	07/12/2023	05:02	-131.093	47.790	0	328.90	0	5.4390	0	33.9410	0	26.788	0	325.887	0	66.0	4	21.5	4	-1E+10	1	-1E+10	1	-1E+10	1	-1E+10	1	-1E+10	1	-1E+10	1
4902551	105	C	07/12/2023	05:02	-131.093	47.790	0	329.80	0	5.4270	0	33.9440	0	26.792	0	326.778	0	65.5	4	21.4	4	-1E+10	1	-1E+10	1	-1E+10	1	-1E+10	1	-1E+10	1	-1E+10	1
4902551	105	C	07/12/2023	05:02	-131.093	47.790	0	330.80	0	5.4130	0	33.9440	0	26.793	0	327.768	0	65.1	4	21.2	4	-1E+10	1	-1E+10	1	-1E+10	1	-1E+10	1	-1E+10	1	-1E+10	1
4902551	105	C	07/12/2023	05:02	-131.093	47.790	0	331.80	0	5.4030	0	33.9450	0	26.795	0	328.758	0	64.6	4	21.1	4	-1E+10	1	-1E+10	1	-1E+10	1	-1E+10	1	-1E+10	1	-1E+10	1
4902551	105	C	07/12/2023	05:02	-131.093	47.790	0	332.80	0	5.3920	0	33.9480	0	26.799	0	329.748	0	64.3	4	20.9	4	-1E+10	1	-1E+10	1	-1E+10	1	-1E+10	1	-1E+10	1	-1E+10	1
4902551	105	C	07/12/2023	05:02	-131.093	47.790	0	333.80	0	5.3810	0	33.9500	0	26.802	0	330.738	0	64.0	4	20.8	4	-1E+10	1	-1E+10	1	-1E+10	1	-1E+10	1	-1E+10	1	-1E+10	1
4902551	105	C	07/12/2023	05:02	-131.093	47.790	0	334.70	0	5.3730	0	33.9490	0	26.802	0	331.629	0	63.6	4	20.7	4	-1E+10	1	-1E+10	1	-1E+10	1	-1E+10	1	-1E+10	1	-1E+10	1
4902551	105	C	07/12/2023	05:02	-131.093	47.790	0	335.70	0	5.3660	0	33.9460	0	26.800	0	332.619	0	63.2	4	20.6	4	-1E+10	1	-1E+10	1	-1E+10	1	-1E+10	1	-1E+10	1	-1E+10	1
4902551	105	C	07/12/2023	05:02	-131.093	47.790	0	336.70	0	5.3430	0	33.9500	0	26.806	0	333.609	0	62.7	4	20.4	4	-1E+10	1	-1E+10	1	-1E+10	1	-1E+10	1	-1E+10	1	-1E+10	1
4902551	105	C	07/12/2023	05:02	-131.093	47.790	0	337.50	0	5.3220	0	33.9490	0	26.808	0	334.401	0	62.3	4	20.3	4	-1E+10	1	-1E+10	1	-1E+10	1	-1E+10	1	-1E+10	1	-1E+10	1
4902551	105	C	07/12/2023	05:02	-131.093	47.790	0	339.00	0	5.3120	0	33.9490	0	26.809	0	335.886	0	61.4	4	20.0	4	-1E+10	1	-1E+10	1	-1E+10	1	-1E+10	1	-1E+10	1	-1E+10	1
4902551	105	C	07/12/2023	05:02	-131.093	47.790	0	340.10	0	5.3080	0	33.9520	0	26.812	0	336.975	0	60.7	4	19.7	4	-1E+10	1	-1E+10	1	-1E+10	1	-1E+10	1	-1E+10	1	-1E+10	1
4902551	105	C	07/12/2023	05:02	-131.093	47.790	0	340.90	0	5.3080	0	33.9540	0	26.814	0	337.767	0	60.3	4	19.6	4	-1E+10	1	-1E+10	1	-1E+10	1	-1E+10	1	-1E+10	1	-1E+10	1
4902551	105	C	07/12/2023	05:02	-131.093	47.790	0	342.00	0	5.2970	0	33.9560	0	26.817	0	338.856	0	59.7	4	19.4	4	-1E+10	1	-1E+10	1	-1E+10	1	-1E+10	1	-1E+10	1	-1E+10	1
4902551	105	C	07/12/2023	05:02	-131.093	47.790	0	343.10	0	5.2890	0	33.9570	0	26.818	0	339.945	0	58.9	4	19.2	4	-1E+10	1	-1E+10	1	-1E+10	1	-1E+10	1	-1E+10	1	-1E+10	1
4902551	105	C	07/12/2023	05:02	-131.093	47.790	0	343.90	0	5.2860	0	33.9570	0	26.819	0	340.737	0	58.4	4	19.0	4	-1E+10	1	-1E+10	1	-1E+10	1	-1E+10	1	-1E+10	1	-1E+10	1
4902551	105	C	07/12/2023	05:02	-131.093	47.790	0	345.00	0	5.3070	0	33.9590	0	26.818	0	341.826	0	57.7	4	18.8	4	-1E+10	1	-1E+10	1	-1E+10	1	-1E+10	1	-1E+10	1	-1E+10	1
4902551	105	C	07/12/2023	05:02	-131.093	47.790	0	346.10	0	5.3200	0	33.9670	0	26.823	0	342.915	0	57.1	4	18.6	4	-1E+10	1	-1E+10	1	-1E+10	1	-1E+10	1	-1E+10	1	-1E+10	1
4902551	105	C	07/12/2023	05:02	-131.093	47.790	0	346.90	0	5.3250	0	33.9680	0	26.823	0	343.707	0	56.8	4	18.5	4	-1E+10	1	-1E+10	1	-1E+10	1	-1E+10	1	-1E+10	1	-1E+10	1
4902551	105	C	07/12/2023	05:02	-131.093	47.790	0	347.70	0	5.3400	0	33.9630	0	26.817	0	344.499	0	56.5	4	18.4	4	-1E+10	1	-1E+10	1	-1E+10	1	-1E+10	1	-1E+10	1	-1E+10	1
4902551	105	C	07/12/2023	05:02	-131.093	47.790	0	348.90	0	5.3230	0	33.9730	0	26.827	0	345.687	0	56.0	4	18.2	4	-1E+10	1	-1E+10	1	-1E+10	1	-1E+10	1	-1E+10	1	-1E+10	1
4902551	105	C	07/12/2023	05:02	-131.093	47.790	0	350.10	0	5.2940	0	33.9710	0	26.829	0	346.875	0	55.5	4	18.0	4	-1E+10	1	-1E+10	1	-1E+10	1	-1E+10	1	-1E+10	1	-1E+10	1
4902551	105	C	07/12/2023	05:02	-131.093	47.790	0	352.90	0	5.2950	0	33.9750	0	26.832	0	349.647	0	53.5	4	17.4	4	-1E+10	1	-1E+10	1	-1E+10	1	-1E+10	1	-1E+10	1	-1E+10	1
4902551	105	C	07/12/2023	05:02	-131.093	47.790	0	357.90	0	5.3530	0	33.9930	0	26.839	0	354.596	0	51.4	4	16.7	4	-1E+10	1	-1E+10	1	-1E+10	1	-1E+10	1	-1E+10	1	-1E+10	1
4902551	105	C	07/12/2023	05:02	-131.093	47.790	0	363.10	0	5.3510	0	34.0000	0	26.845	0	359.744	0	50.6	4	16.5	4	-1E+10	1	-1E+10	1	-1E+10	1	-1E+10	1	-1E+10	1	-1E+10	1
4902551	105	C	07/12/2023	05:02	-131.093	47.790	0	368.10	0	5.2860	0	33.9970	0	26.851	0	364.693	0	50.0	4	16.3	4	-1E+10	1	-1E+10	1	-1E+10	1	-1E+10	1	-1E+10	1	-1E+10	1
4902551	105	C	07/12/2023	05:02	-131.093	47.790	0	373.10	0	5.2270	0	33.9930	0	26.854	0	369.643	0	48.1	4	15.6	4	-1E+10	1	-1E+10	1	-1E+10	1	-1E+10	1	-1E+10	1	-1E+10	1
4902551	105	C	07/12/2023	05:02	-131.093	47.790	0	378.20	0	5.2600	0	34.0090	0	26.863	0	374.691	0	46.6	4	15.1	4	-1E+10	1	-1E+10	1	-1E+10	1	-1E+10	1	-1E+10	1	-1E+10	1
4902551	105	C	07/12/2023	05:02	-131.093	47.790	0	382.90	0	5.2290	0	34.0140	0	26.871	0	379.343	0	45.7	4	14.9	4	-1E+10	1	-1E+10	1	-1E+10	1	-1E+10	1	-1E+10	1	-1E+10	1
4902551	105	C	07/12/2023	05:02	-131.093	47.790	0	387.70	0	5.1710	0	34.0160	0	26.879	0	384.094	0	45.1	4	14.6	4	-1E+10	1	-1E+10	1	-1E+10	1	-1E+10	1	-1E+10	1	-1E+10	1
4902551	105	C	07/12/2023	05:02	-131.093	47.790	0	392.50	0	5.1080	0	34.0140	0	26.885	0	388.845	0	44.3	4	14.3	4	-1E+10	1	-1E+10	1	-1E+10	1	-1E+10	1	-1E+10	1	-1E+10	1
4902551	105	C	07/12/2023	05:02	-131.093	47.790	0	397.90	0	5.0840	0	34.0200	0	26.892	0	394.189	0	42.7	4	13.8	4	-1E+10	1	-1E+10	1	-1E+10	1	-1E+10	1	-1E+10	1	-1E+10	1
4902551	105	C	07/12/2023	05:02	-131.093	47.790	0	403.20	0	5.0790	0	34.0280	0	26.899	0	399.435	0	41.7	4	13.5	4	-1E+10	1	-1E+10	1	-1E+10	1	-1E+10	1	-1E+10	1	-1E+10	1
4902551	105	C	07/12/2023	05:02	-131.093	47.790	0	408.10	0	5.0740	0	34.0310	0	26.902	0	404.284	0	41.1	4	13.3	4	-1E+10	1	-1E+10	1	-1E+10	1	-1E+10	1	-1E+10	1	-1E+10	1
4902551	105	C	07/12/2023	05:02	-131.093	47.790	0	412.90	0	5.0550	0	34.0340	0	26.907	0	409.035	0	40.6	4	13.1	4	-1E+10	1	-1E+10	1	-1E+10	1	-1E+10	1	-1E+10	1	-1E+10	1
4902551	105	C	07/12/2023	05:02	-131.093	47.790	0	417.80	0	5.0440	0	34.0360	0	26.910	0	413.884	0	40.3	4	13.0	4	-1E+10	1	-1E+10	1	-1E+10	1	-1E+10	1	-1E+10	1	-1E+10	1
4902551	105	C	07/12/2023	05:02	-131.093	47.790	0	422.70	0	5.0010	0	34.0390	0	26.917	0	418.733	0	40.4	4	13.0	4	-1E+10	1	-1E+10	1	-1E+10	1	-1E+10	1	-1E+10	1	-1E+10	1
4902551	105	C	07/12/2023	05:02	-131.093	47.790	0	427.60	0	4.9480	0	34.0330	0	26.918	0	423.582	0	40.2	4	13.0	4	-1E+10	1	-1E+10	1	-1E+10	1	-1E+10	1	-1E+10	1	-1E+10	1
4902551	105	C	07/12/2023	05:02	-131.093	47.790	0	432.50	0	4.9290	0	34.0340	0	26.921	0	428.431	0	39.3	4	12.7	4	-1E+10	1	-1E+10	1	-1E+10	1	-1E+10	1	-1E+10	1	-1E+10	1
4902551	105	C	07/12/2023	05:02	-131.093	47.790	0	437.50	0	4.9120	0	34.0390	0	26.927	0	433.379	0	38.6	4	12.4	4	-1E+10	1	-1E+10	1	-1E+10	1	-1E+10	1	-1E+10	1	-1E+10	1
4902551	105	C	07/12/2023	05:02	-131.093	47.790	0	442.50	0	4.8930	0	34.0430	0	26.933	0	438.326	0	38.3	4	12.4	4	-1E+10	1	-1E+10	1	-1E+10	1	-1E+10	1	-1E+10	1	-1E+10	1
4902551	105	C	07/12/2023	05:02	-131.093	47.790	0	447.50	0	4.8090	0	34.0390	0	26.939	0	443.274	0	37.8	4	12.2	4	-1E+10	1	-1E+10	1	-1E+10	1	-1E+10	1	-1E+10	1	-1E+10	1
4902551	105	C	07/12/2023	05:02	-131.093	47.790	0	452.60	0	4.7990	0	34.0450	0	26.945	0	448.320	0	37.0	4	11.9	4	-1E+10	1	-1E+10	1	-1E+10	1	-1E+10	1	-1E+10	1	-1E+10	1
4902551	105	C	07/12/2023	05:02	-131.093	47.790	0	457.60	0	4.7540	0	34.0460	0	26.951	0	453.267	0	36.5	4	11.7	4	-1E+10	1	-1E+10	1	-1E+10	1	-1E+10	1	-1E+10	1	-1E+10	1
4902551	105	C	07/12/2023	05:02	-131.093	47.790	0	463.00	0	4.7440	0	34.0480	0	26.953	0	458.610	0	35.5	4	11.4	4	-1E+10	1	-1E+10	1	-1E+10	1	-1E+10	1	-1E+10	1	-1E+10	1
4902551	105	C	07/12/2023	05:02	-131.093	47.790	0	468.10	0	4.7480	0	34.0530	0	26.957	0	463.656	0	34.5	4	11.1	4	-1E+10	1	-1E+10	1	-1E+10	1	-1E+10	1	-1E+10	1	-1E+10	1
4902551	105	C	07/12/2023	05:02	-131.093	47.790	0	472.80	0	4.7040	0	34.0590	0	26.967	0	468.306	0	34.0	4	10.9	4	-1E+10	1	-1E+10	1	-1E+10	1	-1E+10	1	-1E+10	1	-1E+10	1
4902551	105	C	07/12/2023	05:02	-131.093	47.790	0	477.60	0	4.6560	0	34.0580	0	26.971	0	473.055	0	33.4	4	10.7	4	-1E+10	1	-1E+10	1	-1E+10	1	-1E+10	1	-1E+10	1	-1E+10	1
4902551	105	C	07/12/2023	05:02	-131.093	47.790	0	482.70	0	4.6220	0	34.0630	0	26.979	0	478.101	0	32.4	4	10.4	4	-1E+10	1	-1E+10	1	-1E+10	1	-1E+10	1	-1E+10	1	-1E+10	1
4902551	105	C	07/12/2023	05:02	-131.093	47.790	0	487.80	0	4.6080	0	34.0650	0	26.982	0	483.146	0	31.5	4	10.1	4	-1E+10	1	-1E+10	1	-1E+10	1	-1E+10	1	-1E+10	1	-1E+10	1
4902551	105	C	07/12/2023	05:02	-131.093	47.790	0	492.70	0	4.5850	0	34.0710	0	26.989	0	487.994	0	30.5	4	9.7	4	-1E+10	1	-1E+10	1	-1E+10	1	-1E+10	1	-1E+10	1	-1E+10	1
4902551	105	C	07/12/2023	05:02	-131.093	47.790	0	497.70	0	4.5690	0	34.0760	0	26.995	0	492.940	0	29.7	4	9.5	4	-1E+10	1	-1E+10	1	-1E+10	1	-1E+10	1	-1E+10	1	-1E+10	1
4902551	105	C	07/12/2023	05:02	-131.093	47.790	0	503.00	0	4.5520	0	34.0810	0	27.001	0	498.183	0	28.8	4	9.2	4	-1E+10	1	-1E+10	1	-1E+10	1	-1E+10	1	-1E+10	1	-1E+10	1
4902551	105	C	07/12/2023	05:02	-131.093	47.790	0	507.80	0	4.5360	0	34.0850	0	27.006	0	502.931	0	28.2	4	9.0	4	-1E+10	1	-1E+10	1	-1E+10	1	-1E+10	1	-1E+10	1	-1E+10	1
4902551	105	C	07/12/2023	05:02	-131.093	47.790	0	512.60	0	4.5270	0	34.0880	0	27.009	0	507.679	0	27.4	4	8.8	4	-1E+10	1	-1E+10	1	-1E+10	1	-1E+10	1	-1E+10	1	-1E+10	1
4902551	105	C	07/12/2023	05:02	-131.093	47.790	0	517.90	0	4.5080	0	34.0940	0	27.016	0	512.922	0	26.8	4	8.6	4	-1E+10	1	-1E+10	1	-1E+10	1	-1E+10	1	-1E+10	1	-1E+10	1
4902551	105	C	07/12/2023	05:02	-131.093	47.790	0	523.30	0	4.4800	0	34.0980	0	27.022	0	518.263	0	26.3	4	8.4	4	-1E+10	1	-1E+10	1	-1E+10	1	-1E+10	1	-1E+10	1	-1E+10	1
4902551	105	C	07/12/2023	05:02	-131.093	47.790	0	528.30	0	4.4680	0	34.1000	0	27.025	0	523.209	0	25.8	4	8.2	4	-1E+10	1	-1E+10	1	-1E+10	1	-1E+10	1	-1E+10	1	-1E+10	1
4902551	105	C	07/12/2023	05:02	-131.093	47.790	0	533.30	0	4.4660	0	34.1030	0	27.028	0	528.154	0	25.3	4	8.1	4	-1E+10	1	-1E+10	1	-1E+10	1	-1E+10	1	-1E+10	1	-1E+10	1
4902551	105	C	07/12/2023	05:02	-131.093	47.790	0	537.90	0	4.4600	0	34.1060	0	27.031	0	532.704	0	24.9	4	7.9	4	-1E+10	1	-1E+10	1	-1E+10	1	-1E+10	1	-1E+10	1	-1E+10	1
4902551	105	C	07/12/2023	05:02	-131.093	47.790	0	542.50	0	4.4500	0	34.1100	0	27.035	0	537.254	0	24.6	4	7.8	4	-1E+10	1	-1E+10	1	-1E+10	1	-1E+10	1	-1E+10	1	-1E+10	1
4902551	105	C	07/12/2023	05:02	-131.093	47.790	0	547.50	0	4.4390	0	34.1110	0	27.037	0	542.199	0	24.2	4	7.7	4	-1E+10	1	-1E+10	1	-1E+10	1	-1E+10	1	-1E+10	1	-1E+10	1
4902551	105	C	07/12/2023	05:02	-131.093	47.790	0	552.60	0	4.4120	0	34.1140	0	27.043	0	547.243	0	23.7	4	7.5	4	-1E+10	1	-1E+10	1	-1E+10	1	-1E+10	1	-1E+10	1	-1E+10	1
4902551	105	C	07/12/2023	05:02	-131.093	47.790	0	557.60	0	4.4120	0	34.1180	0	27.046	0	552.188	0	23.2	4	7.4	4	-1E+10	1	-1E+10	1	-1E+10	1	-1E+10	1	-1E+10	1	-1E+10	1
4902551	105	C	07/12/2023	05:02	-131.093	47.790	0	562.70	0	4.3880	0	34.1200	0	27.050	0	557.231	0	22.8	4	7.3	4	-1E+10	1	-1E+10	1	-1E+10	1	-1E+10	1	-1E+10	1	-1E+10	1
4902551	105	C	07/12/2023	05:02	-131.093	47.790	0	567.70	0	4.3740	0	34.1230	0	27.054	0	562.176	0	22.2	4	7.1	4	-1E+10	1	-1E+10	1	-1E+10	1	-1E+10	1	-1E+10	1	-1E+10	1
4902551	105	C	07/12/2023	05:02	-131.093	47.790	0	572.70	0	4.3520	0	34.1270	0	27.059	0	567.121	0	21.5	4	6.9	4	-1E+10	1	-1E+10	1	-1E+10	1	-1E+10	1	-1E+10	1	-1E+10	1
4902551	105	C	07/12/2023	05:02	-131.093	47.790	0	577.80	0	4.3420	0	34.1310	0	27.064	0	572.164	0	20.7	4	6.6	4	-1E+10	1	-1E+10	1	-1E+10	1	-1E+10	1	-1E+10	1	-1E+10	1
4902551	105	C	07/12/2023	05:02	-131.093	47.790	0	582.80	0	4.3440	0	34.1410	0	27.072	0	577.108	0	19.9	4	6.3	4	-1E+10	1	-1E+10	1	-1E+10	1	-1E+10	1	-1E+10	1	-1E+10	1
4902551	105	C	07/12/2023	05:02	-131.093	47.790	0	587.80	0	4.3430	0	34.1480	0	27.077	0	582.052	0	19.6	4	6.2	4	-1E+10	1	-1E+10	1	-1E+10	1	-1E+10	1	-1E+10	1	-1E+10	1
4902551	105	C	07/12/2023	05:02	-131.093	47.790	0	592.80	0	4.3290	0	34.1510	0	27.081	0	586.996	0	19.4	4	6.2	4	-1E+10	1	-1E+10	1	-1E+10	1	-1E+10	1	-1E+10	1	-1E+10	1
4902551	105	C	07/12/2023	05:02	-131.093	47.790	0	597.90	0	4.3100	0	34.1510	0	27.083	0	592.039	0	19.2	4	6.1	4	-1E+10	1	-1E+10	1	-1E+10	1	-1E+10	1	-1E+10	1	-1E+10	1
4902551	105	C	07/12/2023	05:02	-131.093	47.790	0	602.90	0	4.2310	0	34.1510	0	27.092	0	596.983	0	18.5	4	5.9	4	-1E+10	1	-1E+10	1	-1E+10	1	-1E+10	1	-1E+10	1	-1E+10	1
4902551	105	C	07/12/2023	05:02	-131.093	47.790	0	607.90	0	4.2410	0	34.1580	0	27.096	0	601.927	0	17.3	4	5.5	4	-1E+10	1	-1E+10	1	-1E+10	1	-1E+10	1	-1E+10	1	-1E+10	1
4902551	105	C	07/12/2023	05:02	-131.093	47.790	0	613.00	0	4.2660	0	34.1700	0	27.103	0	606.969	0	16.5	4	5.3	4	-1E+10	1	-1E+10	1	-1E+10	1	-1E+10	1	-1E+10	1	-1E+10	1
4902551	105	C	07/12/2023	05:02	-131.093	47.790	0	618.10	0	4.2760	0	34.1760	0	27.107	0	612.012	0	16.1	4	5.1	4	-1E+10	1	-1E+10	1	-1E+10	1	-1E+10	1	-1E+10	1	-1E+10	1
4902551	105	C	07/12/2023	05:02	-131.093	47.790	0	623.10	0	4.2620	0	34.1810	0	27.112	0	616.955	0	15.9	4	5.1	4	-1E+10	1	-1E+10	1	-1E+10	1	-1E+10	1	-1E+10	1	-1E+10	1
4902551	105	C	07/12/2023	05:02	-131.093	47.790	0	628.10	0	4.2420	0	34.1860	0	27.118	0	621.898	0	15.9	4	5.0	4	-1E+10	1	-1E+10	1	-1E+10	1	-1E+10	1	-1E+10	1	-1E+10	1
4902551	105	C	07/12/2023	05:02	-131.093	47.790	0	633.00	0	4.2030	0	34.1860	0	27.123	0	626.742	0	15.8	4	5.0	4	-1E+10	1	-1E+10	1	-1E+10	1	-1E+10	1	-1E+10	1	-1E+10	1
4902551	105	C	07/12/2023	05:02	-131.093	47.790	0	638.00	0	4.1840	0	34.1850	0	27.124	0	631.685	0	15.6	4	4.9	4	-1E+10	1	-1E+10	1	-1E+10	1	-1E+10	1	-1E+10	1	-1E+10	1
4902551	105	C	07/12/2023	05:02	-131.093	47.790	0	643.00	0	4.1850	0	34.1910	0	27.128	0	636.628	0	15.3	4	4.9	4	-1E+10	1	-1E+10	1	-1E+10	1	-1E+10	1	-1E+10	1	-1E+10	1
4902551	105	C	07/12/2023	05:02	-131.093	47.790	0	648.00	0	4.1690	0	34.1940	0	27.133	0	641.571	0	15.2	4	4.8	4	-1E+10	1	-1E+10	1	-1E+10	1	-1E+10	1	-1E+10	1	-1E+10	1
4902551	105	C	07/12/2023	05:02	-131.093	47.790	0	652.80	0	4.1520	0	34.1950	0	27.135	0	646.316	0	15.1	4	4.8	4	-1E+10	1	-1E+10	1	-1E+10	1	-1E+10	1	-1E+10	1	-1E+10	1
4902551	105	C	07/12/2023	05:02	-131.093	47.790	0	657.80	0	4.1320	0	34.1970	0	27.139	0	651.258	0	15.1	4	4.8	4	-1E+10	1	-1E+10	1	-1E+10	1	-1E+10	1	-1E+10	1	-1E+10	1
4902551	105	C	07/12/2023	05:02	-131.093	47.790	0	662.90	0	4.1240	0	34.1980	0	27.141	0	656.300	0	15.0	4	4.8	4	-1E+10	1	-1E+10	1	-1E+10	1	-1E+10	1	-1E+10	1	-1E+10	1
4902551	105	C	07/12/2023	05:02	-131.093	47.790	0	667.80	0	4.1070	0	34.2000	0	27.144	0	661.143	0	15.0	4	4.7	4	-1E+10	1	-1E+10	1	-1E+10	1	-1E+10	1	-1E+10	1	-1E+10	1
4902551	105	C	07/12/2023	05:02	-131.093	47.790	0	672.80	0	4.0930	0	34.2030	0	27.148	0	666.085	0	15.1	4	4.8	4	-1E+10	1	-1E+10	1	-1E+10	1	-1E+10	1	-1E+10	1	-1E+10	1
4902551	105	C	07/12/2023	05:02	-131.093	47.790	0	677.90	0	4.0420	0	34.2060	0	27.155	0	671.126	0	15.6	4	4.9	4	-1E+10	1	-1E+10	1	-1E+10	1	-1E+10	1	-1E+10	1	-1E+10	1
4902551	105	C	07/12/2023	05:02	-131.093	47.790	0	682.70	0	3.9770	0	34.2000	0	27.157	0	675.870	0	15.6	4	4.9	4	-1E+10	1	-1E+10	1	-1E+10	1	-1E+10	1	-1E+10	1	-1E+10	1
4902551	105	C	07/12/2023	05:02	-131.093	47.790	0	687.90	0	3.9900	0	34.2060	0	27.161	0	681.010	0	15.4	4	4.9	4	-1E+10	1	-1E+10	1	-1E+10	1	-1E+10	1	-1E+10	1	-1E+10	1
4902551	105	C	07/12/2023	05:02	-131.093	47.790	0	693.30	0	3.9480	0	34.2080	0	27.167	0	686.347	0	15.5	4	4.9	4	-1E+10	1	-1E+10	1	-1E+10	1	-1E+10	1	-1E+10	1	-1E+10	1
4902551	105	C	07/12/2023	05:02	-131.093	47.790	0	697.90	0	3.9230	0	34.2090	0	27.170	0	690.893	0	15.7	4	4.9	4	-1E+10	1	-1E+10	1	-1E+10	1	-1E+10	1	-1E+10	1	-1E+10	1
4902551	105	C	07/12/2023	05:02	-131.093	47.790	0	702.70	0	3.8920	0	34.2100	0	27.174	0	695.637	0	15.7	4	4.9	4	-1E+10	1	-1E+10	1	-1E+10	1	-1E+10	1	-1E+10	1	-1E+10	1
4902551	105	C	07/12/2023	05:02	-131.093	47.790	0	707.90	0	3.8770	0	34.2120	0	27.177	0	700.776	0	15.8	4	5.0	4	-1E+10	1	-1E+10	1	-1E+10	1	-1E+10	1	-1E+10	1	-1E+10	1
4902551	105	C	07/12/2023	05:02	-131.093	47.790	0	712.90	0	3.8540	0	34.2130	0	27.180	0	705.717	0	15.9	4	5.0	4	-1E+10	1	-1E+10	1	-1E+10	1	-1E+10	1	-1E+10	1	-1E+10	1
4902551	105	C	07/12/2023	05:02	-131.093	47.790	0	717.80	0	3.8190	0	34.2130	0	27.184	0	710.560	0	15.9	4	5.0	4	-1E+10	1	-1E+10	1	-1E+10	1	-1E+10	1	-1E+10	1	-1E+10	1
4902551	105	C	07/12/2023	05:02	-131.093	47.790	0	722.80	0	3.8000	0	34.2160	0	27.188	0	715.501	0	15.8	4	5.0	4	-1E+10	1	-1E+10	1	-1E+10	1	-1E+10	1	-1E+10	1	-1E+10	1
4902551	105	C	07/12/2023	05:02	-131.093	47.790	0	727.90	0	3.7800	0	34.2190	0	27.192	0	720.540	0	15.7	4	4.9	4	-1E+10	1	-1E+10	1	-1E+10	1	-1E+10	1	-1E+10	1	-1E+10	1
4902551	105	C	07/12/2023	05:02	-131.093	47.790	0	733.10	0	3.7710	0	34.2220	0	27.196	0	725.679	0	15.5	4	4.9	4	-1E+10	1	-1E+10	1	-1E+10	1	-1E+10	1	-1E+10	1	-1E+10	1
4902551	105	C	07/12/2023	05:02	-131.093	47.790	0	737.80	0	3.7670	0	34.2220	0	27.196	0	730.323	0	15.5	4	4.9	4	-1E+10	1	-1E+10	1	-1E+10	1	-1E+10	1	-1E+10	1	-1E+10	1
4902551	105	C	07/12/2023	05:02	-131.093	47.790	0	742.60	0	3.7590	0	34.2240	0	27.199	0	735.066	0	15.3	4	4.8	4	-1E+10	1	-1E+10	1	-1E+10	1	-1E+10	1	-1E+10	1	-1E+10	1
4902551	105	C	07/12/2023	05:02	-131.093	47.790	0	748.00	0	3.7500	0	34.2280	0	27.203	0	740.401	0	15.3	4	4.8	4	-1E+10	1	-1E+10	1	-1E+10	1	-1E+10	1	-1E+10	1	-1E+10	1
4902551	105	C	07/12/2023	05:02	-131.093	47.790	0	753.30	0	3.7210	0	34.2300	0	27.207	0	745.638	0	15.4	4	4.8	4	-1E+10	1	-1E+10	1	-1E+10	1	-1E+10	1	-1E+10	1	-1E+10	1
4902551	105	C	07/12/2023	05:02	-131.093	47.790	0	758.20	0	3.7060	0	34.2310	0	27.210	0	750.479	0	15.3	4	4.8	4	-1E+10	1	-1E+10	1	-1E+10	1	-1E+10	1	-1E+10	1	-1E+10	1
4902551	105	C	07/12/2023	05:02	-131.093	47.790	0	763.10	0	3.7000	0	34.2320	0	27.211	0	755.321	0	15.1	4	4.7	4	-1E+10	1	-1E+10	1	-1E+10	1	-1E+10	1	-1E+10	1	-1E+10	1
4902551	105	C	07/12/2023	05:02	-131.093	47.790	0	768.00	0	3.6910	0	34.2350	0	27.214	0	760.162	0	15.0	4	4.7	4	-1E+10	1	-1E+10	1	-1E+10	1	-1E+10	1	-1E+10	1	-1E+10	1
4902551	105	C	07/12/2023	05:02	-131.093	47.790	0	773.00	0	3.6710	0	34.2400	0	27.220	0	765.102	0	14.9	4	4.7	4	-1E+10	1	-1E+10	1	-1E+10	1	-1E+10	1	-1E+10	1	-1E+10	1
4902551	105	C	07/12/2023	05:02	-131.093	47.790	0	778.10	0	3.6560	0	34.2420	0	27.223	0	770.140	0	14.8	4	4.6	4	-1E+10	1	-1E+10	1	-1E+10	1	-1E+10	1	-1E+10	1	-1E+10	1
4902551	105	C	07/12/2023	05:02	-131.093	47.790	0	783.10	0	3.6430	0	34.2440	0	27.226	0	775.080	0	14.6	4	4.6	4	-1E+10	1	-1E+10	1	-1E+10	1	-1E+10	1	-1E+10	1	-1E+10	1
4902551	105	C	07/12/2023	05:02	-131.093	47.790	0	788.20	0	3.6230	0	34.2480	0	27.231	0	780.118	0	14.5	4	4.5	4	-1E+10	1	-1E+10	1	-1E+10	1	-1E+10	1	-1E+10	1	-1E+10	1
4902551	105	C	07/12/2023	05:02	-131.093	47.790	0	793.30	0	3.6150	0	34.2500	0	27.234	0	785.156	0	14.4	4	4.5	4	-1E+10	1	-1E+10	1	-1E+10	1	-1E+10	1	-1E+10	1	-1E+10	1
4902551	105	C	07/12/2023	05:02	-131.093	47.790	0	798.30	0	3.6100	0	34.2510	0	27.235	0	790.095	0	14.2	4	4.4	4	-1E+10	1	-1E+10	1	-1E+10	1	-1E+10	1	-1E+10	1	-1E+10	1
4902551	105	C	07/12/2023	05:02	-131.093	47.790	0	803.30	0	3.5970	0	34.2550	0	27.240	0	795.034	0	14.0	4	4.4	4	-1E+10	1	-1E+10	1	-1E+10	1	-1E+10	1	-1E+10	1	-1E+10	1
4902551	105	C	07/12/2023	05:02	-131.093	47.790	0	808.20	0	3.5880	0	34.2580	0	27.243	0	799.875	0	13.8	4	4.3	4	-1E+10	1	-1E+10	1	-1E+10	1	-1E+10	1	-1E+10	1	-1E+10	1
4902551	105	C	07/12/2023	05:02	-131.093	47.790	0	813.00	0	3.5810	0	34.2610	0	27.246	0	804.616	0	13.6	4	4.3	4	-1E+10	1	-1E+10	1	-1E+10	1	-1E+10	1	-1E+10	1	-1E+10	1
4902551	105	C	07/12/2023	05:02	-131.093	47.790	0	817.90	0	3.5680	0	34.2640	0	27.250	0	809.456	0	13.4	4	4.2	4	-1E+10	1	-1E+10	1	-1E+10	1	-1E+10	1	-1E+10	1	-1E+10	1
4902551	105	C	07/12/2023	05:02	-131.093	47.790	0	822.80	0	3.5560	0	34.2690	0	27.255	0	814.296	0	13.1	4	4.1	4	-1E+10	1	-1E+10	1	-1E+10	1	-1E+10	1	-1E+10	1	-1E+10	1
4902551	105	C	07/12/2023	05:02	-131.093	47.790	0	827.60	0	3.5480	0	34.2730	0	27.259	0	819.037	0	12.9	4	4.0	4	-1E+10	1	-1E+10	1	-1E+10	1	-1E+10	1	-1E+10	1	-1E+10	1
4902551	105	C	07/12/2023	05:02	-131.093	47.790	0	832.50	0	3.5330	0	34.2790	0	27.265	0	823.876	0	12.7	4	4.0	4	-1E+10	1	-1E+10	1	-1E+10	1	-1E+10	1	-1E+10	1	-1E+10	1
4902551	105	C	07/12/2023	05:02	-131.093	47.790	0	837.50	0	3.5260	0	34.2820	0	27.268	0	828.815	0	12.5	4	3.9	4	-1E+10	1	-1E+10	1	-1E+10	1	-1E+10	1	-1E+10	1	-1E+10	1
4902551	105	C	07/12/2023	05:02	-131.093	47.790	0	842.90	0	3.5180	0	34.2850	0	27.271	0	834.148	0	12.4	4	3.9	4	-1E+10	1	-1E+10	1	-1E+10	1	-1E+10	1	-1E+10	1	-1E+10	1
4902551	105	C	07/12/2023	05:02	-131.093	47.790	0	848.30	0	3.5120	0	34.2880	0	27.274	0	839.481	0	12.2	4	3.8	4	-1E+10	1	-1E+10	1	-1E+10	1	-1E+10	1	-1E+10	1	-1E+10	1
4902551	105	C	07/12/2023	05:02	-131.093	47.790	0	853.30	0	3.5040	0	34.2920	0	27.278	0	844.419	0	12.0	4	3.7	4	-1E+10	1	-1E+10	1	-1E+10	1	-1E+10	1	-1E+10	1	-1E+10	1
4902551	105	C	07/12/2023	05:02	-131.093	47.790	0	858.20	0	3.4960	0	34.2960	0	27.282	0	849.258	0	11.8	4	3.7	4	-1E+10	1	-1E+10	1	-1E+10	1	-1E+10	1	-1E+10	1	-1E+10	1
4902551	105	C	07/12/2023	05:02	-131.093	47.790	0	863.20	0	3.4810	0	34.3010	0	27.288	0	854.196	0	11.7	4	3.7	4	-1E+10	1	-1E+10	1	-1E+10	1	-1E+10	1	-1E+10	1	-1E+10	1
4902551	105	C	07/12/2023	05:02	-131.093	47.790	0	868.10	0	3.4740	0	34.3030	0	27.290	0	859.034	0	11.7	4	3.6	4	-1E+10	1	-1E+10	1	-1E+10	1	-1E+10	1	-1E+10	1	-1E+10	1
4902551	105	C	07/12/2023	05:02	-131.093	47.790	0	873.00	0	3.4670	0	34.3040	0	27.292	0	863.873	0	11.6	4	3.6	4	-1E+10	1	-1E+10	1	-1E+10	1	-1E+10	1	-1E+10	1	-1E+10	1
4902551	105	C	07/12/2023	05:02	-131.093	47.790	0	877.80	0	3.4540	0	34.3080	0	27.296	0	868.613	0	11.6	4	3.6	4	-1E+10	1	-1E+10	1	-1E+10	1	-1E+10	1	-1E+10	1	-1E+10	1
4902551	105	C	07/12/2023	05:02	-131.093	47.790	0	882.70	0	3.4460	0	34.3100	0	27.299	0	873.452	0	11.5	4	3.6	4	-1E+10	1	-1E+10	1	-1E+10	1	-1E+10	1	-1E+10	1	-1E+10	1
4902551	105	C	07/12/2023	05:02	-131.093	47.790	0	888.00	0	3.4410	0	34.3110	0	27.300	0	878.685	0	11.4	4	3.6	4	-1E+10	1	-1E+10	1	-1E+10	1	-1E+10	1	-1E+10	1	-1E+10	1
4902551	105	C	07/12/2023	05:02	-131.093	47.790	0	893.30	0	3.4390	0	34.3120	0	27.301	0	883.918	0	11.3	4	3.5	4	-1E+10	1	-1E+10	1	-1E+10	1	-1E+10	1	-1E+10	1	-1E+10	1
4902551	105	C	07/12/2023	05:02	-131.093	47.790	0	897.90	0	3.4410	0	34.3140	0	27.302	0	888.460	0	11.2	4	3.5	4	-1E+10	1	-1E+10	1	-1E+10	1	-1E+10	1	-1E+10	1	-1E+10	1
4902551	105	C	07/12/2023	05:02	-131.093	47.790	0	902.60	0	3.4230	0	34.3200	0	27.309	0	893.101	0	11.2	4	3.5	4	-1E+10	1	-1E+10	1	-1E+10	1	-1E+10	1	-1E+10	1	-1E+10	1
4902551	105	C	07/12/2023	05:02	-131.093	47.790	0	907.90	0	3.3990	0	34.3220	0	27.313	0	898.333	0	11.2	4	3.5	4	-1E+10	1	-1E+10	1	-1E+10	1	-1E+10	1	-1E+10	1	-1E+10	1
4902551	105	C	07/12/2023	05:02	-131.093	47.790	0	913.00	0	3.3910	0	34.3250	0	27.316	0	903.369	0	11.1	4	3.5	4	-1E+10	1	-1E+10	1	-1E+10	1	-1E+10	1	-1E+10	1	-1E+10	1
4902551	105	C	07/12/2023	05:02	-131.093	47.790	0	917.60	0	3.3850	0	34.3280	0	27.319	0	907.910	0	11.1	4	3.4	4	-1E+10	1	-1E+10	1	-1E+10	1	-1E+10	1	-1E+10	1	-1E+10	1
4902551	105	C	07/12/2023	05:02	-131.093	47.790	0	922.80	0	3.3790	0	34.3310	0	27.322	0	913.044	0	11.0	4	3.4	4	-1E+10	1	-1E+10	1	-1E+10	1	-1E+10	1	-1E+10	1	-1E+10	1
4902551	105	C	07/12/2023	05:02	-131.093	47.790	0	928.20	0	3.3670	0	34.3330	0	27.325	0	918.375	0	11.1	4	3.4	4	-1E+10	1	-1E+10	1	-1E+10	1	-1E+10	1	-1E+10	1	-1E+10	1
4902551	105	C	07/12/2023	05:02	-131.093	47.790	0	933.10	0	3.3490	0	34.3350	0	27.328	0	923.212	0	11.1	4	3.4	4	-1E+10	1	-1E+10	1	-1E+10	1	-1E+10	1	-1E+10	1	-1E+10	1
4902551	105	C	07/12/2023	05:02	-131.093	47.790	0	938.10	0	3.3360	0	34.3380	0	27.332	0	928.148	0	11.1	4	3.4	4	-1E+10	1	-1E+10	1	-1E+10	1	-1E+10	1	-1E+10	1	-1E+10	1
4902551	105	C	07/12/2023	05:02	-131.093	47.790	0	943.00	0	3.3260	0	34.3410	0	27.335	0	932.985	0	11.1	4	3.4	4	-1E+10	1	-1E+10	1	-1E+10	1	-1E+10	1	-1E+10	1	-1E+10	1
4902551	105	C	07/12/2023	05:02	-131.093	47.790	0	948.10	0	3.3130	0	34.3420	0	27.337	0	938.020	0	11.1	4	3.5	4	-1E+10	1	-1E+10	1	-1E+10	1	-1E+10	1	-1E+10	1	-1E+10	1
4902551	105	C	07/12/2023	05:02	-131.093	47.790	0	953.10	0	3.3030	0	34.3430	0	27.339	0	942.955	0	11.2	4	3.5	4	-1E+10	1	-1E+10	1	-1E+10	1	-1E+10	1	-1E+10	1	-1E+10	1
4902551	105	C	07/12/2023	05:02	-131.093	47.790	0	958.10	0	3.3020	0	34.3440	0	27.340	0	947.891	0	11.2	4	3.5	4	-1E+10	1	-1E+10	1	-1E+10	1	-1E+10	1	-1E+10	1	-1E+10	1
4902551	105	C	07/12/2023	05:02	-131.093	47.790	0	963.30	0	3.2680	0	34.3450	0	27.344	0	953.024	0	11.4	4	3.5	4	-1E+10	1	-1E+10	1	-1E+10	1	-1E+10	1	-1E+10	1	-1E+10	1
4902551	105	C	07/12/2023	05:02	-131.093	47.790	0	967.90	0	3.2540	0	34.3460	0	27.346	0	957.564	0	11.4	4	3.5	4	-1E+10	1	-1E+10	1	-1E+10	1	-1E+10	1	-1E+10	1	-1E+10	1
4902551	105	C	07/12/2023	05:02	-131.093	47.790	0	972.60	0	3.2450	0	34.3480	0	27.348	0	962.203	0	11.4	4	3.5	4	-1E+10	1	-1E+10	1	-1E+10	1	-1E+10	1	-1E+10	1	-1E+10	1
4902551	105	C	07/12/2023	05:02	-131.093	47.790	0	977.70	0	3.2300	0	34.3480	0	27.350	0	967.237	0	11.4	4	3.5	4	-1E+10	1	-1E+10	1	-1E+10	1	-1E+10	1	-1E+10	1	-1E+10	1
4902551	105	C	07/12/2023	05:02	-131.093	47.790	0	982.90	0	3.2150	0	34.3500	0	27.353	0	972.369	0	11.5	4	3.6	4	-1E+10	1	-1E+10	1	-1E+10	1	-1E+10	1	-1E+10	1	-1E+10	1
4902551	105	C	07/12/2023	05:02	-131.093	47.790	0	988.00	0	3.1930	0	34.3500	0	27.355	0	977.402	0	11.5	4	3.6	4	-1E+10	1	-1E+10	1	-1E+10	1	-1E+10	1	-1E+10	1	-1E+10	1
4902551	105	C	07/12/2023	05:02	-131.093	47.790	0	993.10	0	3.1820	0	34.3520	0	27.357	0	982.436	0	11.5	4	3.6	4	-1E+10	1	-1E+10	1	-1E+10	1	-1E+10	1	-1E+10	1	-1E+10	1
4902551	105	C	07/12/2023	05:02	-131.093	47.790	0	998.20	0	3.1720	0	34.3550	0	27.361	0	987.469	0	11.5	4	3.6	4	-1E+10	1	-1E+10	1	-1E+10	1	-1E+10	1	-1E+10	1	-1E+10	1
4902551	105	C	07/12/2023	05:02	-131.093	47.790	0	1005.30	0	3.1580	0	34.3580	0	27.365	0	994.476	0	11.5	4	3.6	4	-1E+10	1	-1E+10	1	-1E+10	1	-1E+10	1	-1E+10	1	-1E+10	1
4902551	105	C	07/12/2023	05:02	-131.093	47.790	0	1015.10	0	3.1490	0	34.3600	0	27.367	0	1004.147	0	11.5	4	3.6	4	-1E+10	1	-1E+10	1	-1E+10	1	-1E+10	1	-1E+10	1	-1E+10	1
4902551	105	C	07/12/2023	05:02	-131.093	47.790	0	1025.40	0	3.1330	0	34.3640	0	27.372	0	1014.311	0	11.5	4	3.6	4	-1E+10	1	-1E+10	1	-1E+10	1	-1E+10	1	-1E+10	1	-1E+10	1
4902551	105	C	07/12/2023	05:02	-131.093	47.790	0	1035.70	0	3.1190	0	34.3670	0	27.375	0	1024.474	0	11.5	4	3.6	4	-1E+10	1	-1E+10	1	-1E+10	1	-1E+10	1	-1E+10	1	-1E+10	1
4902551	105	C	07/12/2023	05:02	-131.093	47.790	0	1045.60	0	3.1070	0	34.3710	0	27.380	0	1034.243	0	11.5	4	3.6	4	-1E+10	1	-1E+10	1	-1E+10	1	-1E+10	1	-1E+10	1	-1E+10	1
4902551	105	C	07/12/2023	05:02	-131.093	47.790	0	1055.40	0	3.0960	0	34.3760	0	27.385	0	1043.912	0	11.6	4	3.6	4	-1E+10	1	-1E+10	1	-1E+10	1	-1E+10	1	-1E+10	1	-1E+10	1
4902551	105	C	07/12/2023	05:02	-131.093	47.790	0	1065.70	0	3.0800	0	34.3800	0	27.390	0	1054.074	0	11.7	4	3.6	4	-1E+10	1	-1E+10	1	-1E+10	1	-1E+10	1	-1E+10	1	-1E+10	1
4902551	105	C	07/12/2023	05:02	-131.093	47.790	0	1075.60	0	3.0610	0	34.3840	0	27.395	0	1063.841	0	11.7	4	3.6	4	-1E+10	1	-1E+10	1	-1E+10	1	-1E+10	1	-1E+10	1	-1E+10	1
4902551	105	C	07/12/2023	05:02	-131.093	47.790	0	1085.60	0	3.0480	0	34.3920	0	27.402	0	1073.706	0	11.8	4	3.7	4	-1E+10	1	-1E+10	1	-1E+10	1	-1E+10	1	-1E+10	1	-1E+10	1
4902551	105	C	07/12/2023	05:02	-131.093	47.790	0	1095.60	0	3.0260	0	34.3950	0	27.407	0	1083.570	0	11.9	4	3.7	4	-1E+10	1	-1E+10	1	-1E+10	1	-1E+10	1	-1E+10	1	-1E+10	1
4902551	105	C	07/12/2023	05:02	-131.093	47.790	0	1105.40	0	3.0180	0	34.3970	0	27.409	0	1093.237	0	12.0	4	3.7	4	-1E+10	1	-1E+10	1	-1E+10	1	-1E+10	1	-1E+10	1	-1E+10	1
4902551	105	C	07/12/2023	05:02	-131.093	47.790	0	1115.40	0	3.0060	0	34.4000	0	27.413	0	1103.101	0	12.1	4	3.7	4	-1E+10	1	-1E+10	1	-1E+10	1	-1E+10	1	-1E+10	1	-1E+10	1
4902551	105	C	07/12/2023	05:02	-131.093	47.790	0	1125.60	0	2.9970	0	34.4020	0	27.415	0	1113.162	0	12.2	4	3.8	4	-1E+10	1	-1E+10	1	-1E+10	1	-1E+10	1	-1E+10	1	-1E+10	1
4902551	105	C	07/12/2023	05:02	-131.093	47.790	0	1135.60	0	2.9950	0	34.4070	0	27.419	0	1123.024	0	12.4	4	3.8	4	-1E+10	1	-1E+10	1	-1E+10	1	-1E+10	1	-1E+10	1	-1E+10	1
4902551	105	C	07/12/2023	05:02	-131.093	47.790	0	1145.20	0	2.9780	0	34.4100	0	27.423	0	1132.492	0	12.4	4	3.8	4	-1E+10	1	-1E+10	1	-1E+10	1	-1E+10	1	-1E+10	1	-1E+10	1
4902551	105	C	07/12/2023	05:02	-131.093	47.790	0	1155.40	0	2.9470	0	34.4100	0	27.426	0	1142.551	0	12.6	4	3.9	4	-1E+10	1	-1E+10	1	-1E+10	1	-1E+10	1	-1E+10	1	-1E+10	1
4902551	105	C	07/12/2023	05:02	-131.093	47.790	0	1165.20	0	2.9190	0	34.4140	0	27.432	0	1152.215	0	12.8	4	4.0	4	-1E+10	1	-1E+10	1	-1E+10	1	-1E+10	1	-1E+10	1	-1E+10	1
4902551	105	C	07/12/2023	05:02	-131.093	47.790	0	1174.90	0	2.9040	0	34.4210	0	27.439	0	1161.781	0	13.0	4	4.0	4	-1E+10	1	-1E+10	1	-1E+10	1	-1E+10	1	-1E+10	1	-1E+10	1
4902551	105	C	07/12/2023	05:02	-131.093	47.790	0	1185.00	0	2.8880	0	34.4210	0	27.440	0	1171.740	0	13.2	4	4.1	4	-1E+10	1	-1E+10	1	-1E+10	1	-1E+10	1	-1E+10	1	-1E+10	1
4902551	105	C	07/12/2023	05:02	-131.093	47.790	0	1195.00	0	2.8940	0	34.4250	0	27.443	0	1181.600	0	13.5	4	4.2	4	-1E+10	1	-1E+10	1	-1E+10	1	-1E+10	1	-1E+10	1	-1E+10	1
4902551	105	C	07/12/2023	05:02	-131.093	47.790	0	1205.30	0	2.9150	0	34.4330	0	27.448	0	1191.755	0	13.9	4	4.3	4	-1E+10	1	-1E+10	1	-1E+10	1	-1E+10	1	-1E+10	1	-1E+10	1
4902551	105	C	07/12/2023	05:02	-131.093	47.790	0	1215.20	0	2.9060	0	34.4360	0	27.451	0	1201.515	0	14.0	4	4.3	4	-1E+10	1	-1E+10	1	-1E+10	1	-1E+10	1	-1E+10	1	-1E+10	1
4902551	105	C	07/12/2023	05:02	-131.093	47.790	0	1225.30	0	2.8900	0	34.4380	0	27.454	0	1211.473	0	14.0	4	4.3	4	-1E+10	1	-1E+10	1	-1E+10	1	-1E+10	1	-1E+10	1	-1E+10	1
4902551	105	C	07/12/2023	05:02	-131.093	47.790	0	1235.30	0	2.8390	0	34.4350	0	27.456	0	1221.331	0	14.0	4	4.3	4	-1E+10	1	-1E+10	1	-1E+10	1	-1E+10	1	-1E+10	1	-1E+10	1
4902551	105	C	07/12/2023	05:02	-131.093	47.790	0	1245.50	0	2.8050	0	34.4360	0	27.460	0	1231.386	0	14.2	4	4.4	4	-1E+10	1	-1E+10	1	-1E+10	1	-1E+10	1	-1E+10	1	-1E+10	1
4902551	105	C	07/12/2023	05:02	-131.093	47.790	0	1255.60	0	2.7860	0	34.4400	0	27.465	0	1241.341	0	14.5	4	4.5	4	-1E+10	1	-1E+10	1	-1E+10	1	-1E+10	1	-1E+10	1	-1E+10	1
4902551	105	C	07/12/2023	05:02	-131.093	47.790	0	1265.20	0	2.7830	0	34.4430	0	27.468	0	1250.804	0	14.9	4	4.6	4	-1E+10	1	-1E+10	1	-1E+10	1	-1E+10	1	-1E+10	1	-1E+10	1
4902551	105	C	07/12/2023	05:02	-131.093	47.790	0	1275.70	0	2.7780	0	34.4480	0	27.472	0	1261.153	0	15.2	4	4.7	4	-1E+10	1	-1E+10	1	-1E+10	1	-1E+10	1	-1E+10	1	-1E+10	1
4902551	105	C	07/12/2023	05:02	-131.093	47.790	0	1285.60	0	2.7610	0	34.4500	0	27.475	0	1270.910	0	15.5	4	4.8	4	-1E+10	1	-1E+10	1	-1E+10	1	-1E+10	1	-1E+10	1	-1E+10	1
4902551	105	C	07/12/2023	05:02	-131.093	47.790	0	1295.30	0	2.7520	0	34.4540	0	27.479	0	1280.470	0	15.7	4	4.8	4	-1E+10	1	-1E+10	1	-1E+10	1	-1E+10	1	-1E+10	1	-1E+10	1
4902551	105	C	07/12/2023	05:02	-131.093	47.790	0	1305.30	0	2.7230	0	34.4540	0	27.482	0	1290.325	0	15.9	4	4.9	4	-1E+10	1	-1E+10	1	-1E+10	1	-1E+10	1	-1E+10	1	-1E+10	1
4902551	105	C	07/12/2023	05:02	-131.093	47.790	0	1315.30	0	2.7130	0	34.4560	0	27.484	0	1300.179	0	16.4	4	5.0	4	-1E+10	1	-1E+10	1	-1E+10	1	-1E+10	1	-1E+10	1	-1E+10	1
4902551	105	C	07/12/2023	05:02	-131.093	47.790	0	1325.40	0	2.6920	0	34.4620	0	27.491	0	1310.132	0	17.1	4	5.2	4	-1E+10	1	-1E+10	1	-1E+10	1	-1E+10	1	-1E+10	1	-1E+10	1
4902551	105	C	07/12/2023	05:02	-131.093	47.790	0	1335.40	0	2.6800	0	34.4670	0	27.496	0	1319.985	0	17.8	4	5.5	4	-1E+10	1	-1E+10	1	-1E+10	1	-1E+10	1	-1E+10	1	-1E+10	1
4902551	105	C	07/12/2023	05:02	-131.093	47.790	0	1345.30	0	2.6630	0	34.4710	0	27.501	0	1329.740	0	18.3	4	5.6	4	-1E+10	1	-1E+10	1	-1E+10	1	-1E+10	1	-1E+10	1	-1E+10	1
4902551	105	C	07/12/2023	05:02	-131.093	47.790	0	1355.30	0	2.6450	0	34.4750	0	27.506	0	1339.592	0	18.7	4	5.7	4	-1E+10	1	-1E+10	1	-1E+10	1	-1E+10	1	-1E+10	1	-1E+10	1
4902551	105	C	07/12/2023	05:02	-131.093	47.790	0	1365.50	0	2.6210	0	34.4760	0	27.509	0	1349.641	0	18.6	4	5.7	4	-1E+10	1	-1E+10	1	-1E+10	1	-1E+10	1	-1E+10	1	-1E+10	1
4902551	105	C	07/12/2023	05:02	-131.093	47.790	0	1375.70	0	2.5870	0	34.4750	0	27.511	0	1359.690	0	18.8	4	5.7	4	-1E+10	1	-1E+10	1	-1E+10	1	-1E+10	1	-1E+10	1	-1E+10	1
4902551	105	C	07/12/2023	05:02	-131.093	47.790	0	1385.70	0	2.5630	0	34.4770	0	27.514	0	1369.541	0	19.1	4	5.8	4	-1E+10	1	-1E+10	1	-1E+10	1	-1E+10	1	-1E+10	1	-1E+10	1
4902551	105	C	07/12/2023	05:02	-131.093	47.790	0	1395.50	0	2.5480	0	34.4790	0	27.517	0	1379.195	0	19.7	4	6.0	4	-1E+10	1	-1E+10	1	-1E+10	1	-1E+10	1	-1E+10	1	-1E+10	1
4902551	105	C	07/12/2023	05:02	-131.093	47.790	0	1405.50	0	2.5390	0	34.4830	0	27.521	0	1389.045	0	20.1	4	6.1	4	-1E+10	1	-1E+10	1	-1E+10	1	-1E+10	1	-1E+10	1	-1E+10	1
4902551	105	C	07/12/2023	05:02	-131.093	47.790	0	1415.70	0	2.5220	0	34.4840	0	27.524	0	1399.092	0	20.5	4	6.3	4	-1E+10	1	-1E+10	1	-1E+10	1	-1E+10	1	-1E+10	1	-1E+10	1
4902551	105	C	07/12/2023	05:02	-131.093	47.790	0	1425.40	0	2.5030	0	34.4870	0	27.528	0	1408.646	0	21.0	4	6.4	4	-1E+10	1	-1E+10	1	-1E+10	1	-1E+10	1	-1E+10	1	-1E+10	1
4902551	105	C	07/12/2023	05:02	-131.093	47.790	0	1435.40	0	2.4850	0	34.4890	0	27.531	0	1418.495	0	21.7	4	6.6	4	-1E+10	1	-1E+10	1	-1E+10	1	-1E+10	1	-1E+10	1	-1E+10	1
4902551	105	C	07/12/2023	05:02	-131.093	47.790	0	1445.40	0	2.4880	0	34.4930	0	27.534	0	1428.343	0	22.7	4	6.9	4	-1E+10	1	-1E+10	1	-1E+10	1	-1E+10	1	-1E+10	1	-1E+10	1
4902551	105	C	07/12/2023	05:02	-131.093	47.790	0	1455.80	0	2.4850	0	34.4960	0	27.536	0	1438.585	0	22.9	4	7.0	4	-1E+10	1	-1E+10	1	-1E+10	1	-1E+10	1	-1E+10	1	-1E+10	1
4902551	105	C	07/12/2023	05:02	-131.093	47.790	0	1465.70	0	2.4790	0	34.4960	0	27.537	0	1448.334	0	23.4	4	7.1	4	-1E+10	1	-1E+10	1	-1E+10	1	-1E+10	1	-1E+10	1	-1E+10	1
4902551	105	C	07/12/2023	05:02	-131.093	47.790	0	1475.60	0	2.4820	0	34.4990	0	27.539	0	1458.083	0	24.1	4	7.3	4	-1E+10	1	-1E+10	1	-1E+10	1	-1E+10	1	-1E+10	1	-1E+10	1
4902551	105	C	07/12/2023	05:02	-131.093	47.790	0	1485.50	0	2.4790	0	34.5010	0	27.541	0	1467.831	0	24.4	4	7.4	4	-1E+10	1	-1E+10	1	-1E+10	1	-1E+10	1	-1E+10	1	-1E+10	1
4902551	105	C	07/12/2023	05:02	-131.093	47.790	0	1495.20	0	2.4630	0	34.5020	0	27.543	0	1477.381	0	25.0	4	7.6	4	-1E+10	1	-1E+10	1	-1E+10	1	-1E+10	1	-1E+10	1	-1E+10	1
4902551	105	C	07/12/2023	05:02	-131.093	47.790	0	1505.10	0	2.4460	0	34.5060	0	27.548	0	1487.129	0	25.8	4	7.9	4	-1E+10	1	-1E+10	1	-1E+10	1	-1E+10	1	-1E+10	1	-1E+10	1
4902551	105	C	07/12/2023	05:02	-131.093	47.790	0	1515.10	0	2.4330	0	34.5080	0	27.551	0	1496.974	0	26.3	4	8.0	4	-1E+10	1	-1E+10	1	-1E+10	1	-1E+10	1	-1E+10	1	-1E+10	1
4902551	105	C	07/12/2023	05:02	-131.093	47.790	0	1525.40	0	2.4170	0	34.5100	0	27.554	0	1507.114	0	26.8	4	8.2	4	-1E+10	1	-1E+10	1	-1E+10	1	-1E+10	1	-1E+10	1	-1E+10	1
4902551	105	C	07/12/2023	05:02	-131.093	47.790	0	1535.70	0	2.4010	0	34.5120	0	27.557	0	1517.254	0	27.5	4	8.4	4	-1E+10	1	-1E+10	1	-1E+10	1	-1E+10	1	-1E+10	1	-1E+10	1
4902551	105	C	07/12/2023	05:02	-131.093	47.790	0	1545.50	0	2.3800	0	34.5140	0	27.560	0	1526.900	0	28.1	4	8.5	4	-1E+10	1	-1E+10	1	-1E+10	1	-1E+10	1	-1E+10	1	-1E+10	1
4902551	105	C	07/12/2023	05:02	-131.093	47.790	0	1555.30	0	2.3530	0	34.5170	0	27.565	0	1536.547	0	28.2	4	8.6	4	-1E+10	1	-1E+10	1	-1E+10	1	-1E+10	1	-1E+10	1	-1E+10	1
4902551	105	C	07/12/2023	05:02	-131.093	47.790	0	1565.60	0	2.3270	0	34.5170	0	27.567	0	1546.685	0	28.2	4	8.6	4	-1E+10	1	-1E+10	1	-1E+10	1	-1E+10	1	-1E+10	1	-1E+10	1
4902551	105	C	07/12/2023	05:02	-131.093	47.790	0	1575.70	0	2.3150	0	34.5180	0	27.569	0	1556.626	0	28.6	4	8.7	4	-1E+10	1	-1E+10	1	-1E+10	1	-1E+10	1	-1E+10	1	-1E+10	1
4902551	105	C	07/12/2023	05:02	-131.093	47.790	0	1585.50	0	2.3030	0	34.5190	0	27.571	0	1566.271	0	29.2	4	8.9	4	-1E+10	1	-1E+10	1	-1E+10	1	-1E+10	1	-1E+10	1	-1E+10	1
4902551	105	C	07/12/2023	05:02	-131.093	47.790	0	1595.40	0	2.2900	0	34.5210	0	27.573	0	1576.014	0	29.9	4	9.1	4	-1E+10	1	-1E+10	1	-1E+10	1	-1E+10	1	-1E+10	1	-1E+10	1
4902551	105	C	07/12/2023	05:02	-131.093	47.790	0	1605.40	0	2.2780	0	34.5240	0	27.577	0	1585.855	0	30.7	4	9.3	4	-1E+10	1	-1E+10	1	-1E+10	1	-1E+10	1	-1E+10	1	-1E+10	1
4902551	105	C	07/12/2023	05:02	-131.093	47.790	0	1615.60	0	2.2680	0	34.5260	0	27.579	0	1595.893	0	31.7	4	9.6	4	-1E+10	1	-1E+10	1	-1E+10	1	-1E+10	1	-1E+10	1	-1E+10	1
4902551	105	C	07/12/2023	05:02	-131.093	47.790	0	1625.50	0	2.2580	0	34.5290	0	27.582	0	1605.634	0	32.3	4	9.8	4	-1E+10	1	-1E+10	1	-1E+10	1	-1E+10	1	-1E+10	1	-1E+10	1
4902551	105	C	07/12/2023	05:02	-131.093	47.790	0	1635.20	0	2.2500	0	34.5310	0	27.585	0	1615.179	0	33.0	4	10.0	4	-1E+10	1	-1E+10	1	-1E+10	1	-1E+10	1	-1E+10	1	-1E+10	1
4902551	105	C	07/12/2023	05:02	-131.093	47.790	0	1645.00	0	2.2320	0	34.5320	0	27.587	0	1624.821	0	33.4	4	10.1	4	-1E+10	1	-1E+10	1	-1E+10	1	-1E+10	1	-1E+10	1	-1E+10	1
4902551	105	C	07/12/2023	05:02	-131.093	47.790	0	1655.00	0	2.2170	0	34.5340	0	27.590	0	1634.660	0	34.4	4	10.4	4	-1E+10	1	-1E+10	1	-1E+10	1	-1E+10	1	-1E+10	1	-1E+10	1
4902551	105	C	07/12/2023	05:02	-131.093	47.790	0	1665.40	0	2.2120	0	34.5370	0	27.593	0	1644.892	0	35.7	4	10.8	4	-1E+10	1	-1E+10	1	-1E+10	1	-1E+10	1	-1E+10	1	-1E+10	1
4902551	105	C	07/12/2023	05:02	-131.093	47.790	0	1675.30	0	2.1940	0	34.5400	0	27.597	0	1654.632	0	36.7	4	11.1	4	-1E+10	1	-1E+10	1	-1E+10	1	-1E+10	1	-1E+10	1	-1E+10	1
4902551	105	C	07/12/2023	05:02	-131.093	47.790	0	1685.50	0	2.1800	0	34.5420	0	27.599	0	1664.666	0	37.5	4	11.4	4	-1E+10	1	-1E+10	1	-1E+10	1	-1E+10	1	-1E+10	1	-1E+10	1
4902551	105	C	07/12/2023	05:02	-131.093	47.790	0	1695.30	0	2.1660	0	34.5450	0	27.603	0	1674.306	0	38.4	4	11.6	4	-1E+10	1	-1E+10	1	-1E+10	1	-1E+10	1	-1E+10	1	-1E+10	1
4902551	105	C	07/12/2023	05:02	-131.093	47.790	0	1705.40	0	2.1540	0	34.5460	0	27.605	0	1684.241	0	39.1	4	11.8	4	-1E+10	1	-1E+10	1	-1E+10	1	-1E+10	1	-1E+10	1	-1E+10	1
4902551	105	C	07/12/2023	05:02	-131.093	47.790	0	1715.80	0	2.1440	0	34.5490	0	27.608	0	1694.470	0	39.7	4	12.0	4	-1E+10	1	-1E+10	1	-1E+10	1	-1E+10	1	-1E+10	1	-1E+10	1
4902551	105	C	07/12/2023	05:02	-131.093	47.790	0	1725.50	0	2.1360	0	34.5500	0	27.610	0	1704.011	0	40.3	4	12.2	4	-1E+10	1	-1E+10	1	-1E+10	1	-1E+10	1	-1E+10	1	-1E+10	1
4902551	105	C	07/12/2023	05:02	-131.093	47.790	0	1735.50	0	2.1260	0	34.5520	0	27.612	0	1713.846	0	40.9	4	12.4	4	-1E+10	1	-1E+10	1	-1E+10	1	-1E+10	1	-1E+10	1	-1E+10	1
4902551	105	C	07/12/2023	05:02	-131.093	47.790	0	1745.60	0	2.1210	0	34.5530	0	27.613	0	1723.779	0	41.5	4	12.5	4	-1E+10	1	-1E+10	1	-1E+10	1	-1E+10	1	-1E+10	1	-1E+10	1
4902551	105	C	07/12/2023	05:02	-131.093	47.790	0	1755.40	0	2.1130	0	34.5550	0	27.616	0	1733.416	0	42.3	4	12.8	4	-1E+10	1	-1E+10	1	-1E+10	1	-1E+10	1	-1E+10	1	-1E+10	1
4902551	105	C	07/12/2023	05:02	-131.093	47.790	0	1765.40	0	2.1050	0	34.5560	0	27.617	0	1743.250	0	42.9	4	13.0	4	-1E+10	1	-1E+10	1	-1E+10	1	-1E+10	1	-1E+10	1	-1E+10	1
4902551	105	C	07/12/2023	05:02	-131.093	47.790	0	1775.30	0	2.0950	0	34.5570	0	27.619	0	1752.985	0	43.5	4	13.2	4	-1E+10	1	-1E+10	1	-1E+10	1	-1E+10	1	-1E+10	1	-1E+10	1
4902551	105	C	07/12/2023	05:02	-131.093	47.790	0	1785.30	0	2.0840	0	34.5590	0	27.621	0	1762.818	0	44.0	4	13.3	4	-1E+10	1	-1E+10	1	-1E+10	1	-1E+10	1	-1E+10	1	-1E+10	1
4902551	105	C	07/12/2023	05:02	-131.093	47.790	0	1795.40	0	2.0800	0	34.5600	0	27.622	0	1772.748	0	44.5	4	13.4	4	-1E+10	1	-1E+10	1	-1E+10	1	-1E+10	1	-1E+10	1	-1E+10	1
4902551	105	C	07/12/2023	05:02	-131.093	47.790	0	1805.10	0	2.0730	0	34.5610	0	27.624	0	1782.285	0	45.2	4	13.7	4	-1E+10	1	-1E+10	1	-1E+10	1	-1E+10	1	-1E+10	1	-1E+10	1
4902551	105	C	07/12/2023	05:02	-131.093	47.790	0	1815.60	0	2.0610	0	34.5640	0	27.627	0	1792.608	0	45.9	4	13.9	4	-1E+10	1	-1E+10	1	-1E+10	1	-1E+10	1	-1E+10	1	-1E+10	1
4902551	105	C	07/12/2023	05:02	-131.093	47.790	0	1825.60	0	2.0530	0	34.5650	0	27.629	0	1802.439	0	46.5	4	14.0	4	-1E+10	1	-1E+10	1	-1E+10	1	-1E+10	1	-1E+10	1	-1E+10	1
4902551	105	C	07/12/2023	05:02	-131.093	47.790	0	1835.60	0	2.0450	0	34.5670	0	27.631	0	1812.270	0	47.1	4	14.2	4	-1E+10	1	-1E+10	1	-1E+10	1	-1E+10	1	-1E+10	1	-1E+10	1
4902551	105	C	07/12/2023	05:02	-131.093	47.790	0	1845.30	0	2.0390	0	34.5680	0	27.632	0	1821.805	0	47.7	4	14.4	4	-1E+10	1	-1E+10	1	-1E+10	1	-1E+10	1	-1E+10	1	-1E+10	1
4902551	105	C	07/12/2023	05:02	-131.093	47.790	0	1855.10	0	2.0300	0	34.5700	0	27.635	0	1831.438	0	48.4	4	14.6	4	-1E+10	1	-1E+10	1	-1E+10	1	-1E+10	1	-1E+10	1	-1E+10	1
4902551	105	C	07/12/2023	05:02	-131.093	47.790	0	1865.40	0	2.0210	0	34.5710	0	27.636	0	1841.562	0	49.0	4	14.8	4	-1E+10	1	-1E+10	1	-1E+10	1	-1E+10	1	-1E+10	1	-1E+10	1
4902551	105	C	07/12/2023	05:02	-131.093	47.790	0	1875.40	0	2.0130	0	34.5730	0	27.638	0	1851.391	0	49.6	4	15.0	4	-1E+10	1	-1E+10	1	-1E+10	1	-1E+10	1	-1E+10	1	-1E+10	1
4902551	105	C	07/12/2023	05:02	-131.093	47.790	0	1885.50	0	2.0060	0	34.5740	0	27.640	0	1861.317	0	50.0	4	15.1	4	-1E+10	1	-1E+10	1	-1E+10	1	-1E+10	1	-1E+10	1	-1E+10	1
4902551	105	C	07/12/2023	05:02	-131.093	47.790	0	1895.80	0	2.0000	0	34.5750	0	27.641	0	1871.440	0	50.4	4	15.2	4	-1E+10	1	-1E+10	1	-1E+10	1	-1E+10	1	-1E+10	1	-1E+10	1
4902551	105	C	07/12/2023	05:02	-131.093	47.790	0	1905.70	0	1.9910	0	34.5760	0	27.643	0	1881.169	0	50.8	4	15.3	4	-1E+10	1	-1E+10	1	-1E+10	1	-1E+10	1	-1E+10	1	-1E+10	1
4902551	105	C	07/12/2023	05:02	-131.093	47.790	0	1915.70	0	1.9840	0	34.5770	0	27.644	0	1890.996	0	51.1	4	15.4	4	-1E+10	1	-1E+10	1	-1E+10	1	-1E+10	1	-1E+10	1	-1E+10	1
4902551	105	C	07/12/2023	05:02	-131.093	47.790	0	1925.50	0	1.9780	0	34.5780	0	27.645	0	1900.626	0	51.6	4	15.5	4	-1E+10	1	-1E+10	1	-1E+10	1	-1E+10	1	-1E+10	1	-1E+10	1
4902551	105	C	07/12/2023	05:02	-131.093	47.790	0	1935.20	0	1.9700	0	34.5790	0	27.647	0	1910.157	0	52.0	4	15.7	4	-1E+10	1	-1E+10	1	-1E+10	1	-1E+10	1	-1E+10	1	-1E+10	1
4902551	105	C	07/12/2023	05:02	-131.093	47.790	0	1945.50	0	1.9610	0	34.5800	0	27.648	0	1920.277	0	52.2	4	15.7	4	-1E+10	1	-1E+10	1	-1E+10	1	-1E+10	1	-1E+10	1	-1E+10	1
4902551	105	C	07/12/2023	05:02	-131.093	47.790	0	1955.70	0	1.9550	0	34.5810	0	27.650	0	1930.299	0	52.8	4	15.9	4	-1E+10	1	-1E+10	1	-1E+10	1	-1E+10	1	-1E+10	1	-1E+10	1
4902551	105	C	07/12/2023	05:02	-131.093	47.790	0	1965.50	0	1.9450	0	34.5830	0	27.652	0	1939.927	0	53.4	4	16.1	4	-1E+10	1	-1E+10	1	-1E+10	1	-1E+10	1	-1E+10	1	-1E+10	1
4902551	105	C	07/12/2023	05:02	-131.093	47.790	0	1975.80	0	1.9380	0	34.5840	0	27.654	0	1950.046	0	53.9	4	16.2	4	-1E+10	1	-1E+10	1	-1E+10	1	-1E+10	1	-1E+10	1	-1E+10	1
4902551	105	C	07/12/2023	05:02	-131.093	47.790	0	1980.70	0	1.9340	0	34.5860	0	27.656	0	1954.859	0	53.9	4	16.2	4	-1E+10	1	-1E+10	1	-1E+10	1	-1E+10	1	-1E+10	1	-1E+10	1
4902551	105	C	07/12/2023	05:02	-131.093	47.790	0																										
4902551	106	C	07/22/2023	10:05	-131.123	47.691	0	0.20	0	16.8790	0	32.3840	0	23.537	0	0.198	0	237.2	4	97.5	4	-1E+10	1	-1E+10	1	-1E+10	1	-1E+10	1	-1E+10	1	-1E+10	1
4902551	106	C	07/22/2023	10:05	-131.123	47.691	0	0.30	0	16.8786	0	32.3840	0	23.537	0	0.297	0	237.2	4	97.5	4	-1E+10	1	-1E+10	1	-1E+10	1	-1E+10	1	-1E+10	1	-1E+10	1
4902551	106	C	07/22/2023	10:05	-131.123	47.691	0	1.10	0	16.8750	0	32.3840	0	23.538	0	1.091	0	237.4	4	97.6	4	-1E+10	1	-1E+10	1	-1E+10	1	-1E+10	1	-1E+10	1	-1E+10	1
4902551	106	C	07/22/2023	10:05	-131.123	47.691	0	1.90	0	16.8750	0	32.3830	0	23.537	0	1.884	0	237.5	4	97.6	4	-1E+10	1	-1E+10	1	-1E+10	1	-1E+10	1	-1E+10	1	-1E+10	1
4902551	106	C	07/22/2023	10:05	-131.123	47.691	0	2.90	0	16.8720	0	32.3870	0	23.541	0	2.876	0	237.6	4	97.7	4	-1E+10	1	-1E+10	1	-1E+10	1	-1E+10	1	-1E+10	1	-1E+10	1
4902551	106	C	07/22/2023	10:05	-131.123	47.691	0	4.10	0	16.8700	0	32.3900	0	23.543	0	4.066	0	237.8	4	97.8	4	-1E+10	1	-1E+10	1	-1E+10	1	-1E+10	1	-1E+10	1	-1E+10	1
4902551	106	C	07/22/2023	10:05	-131.123	47.691	0	5.00	0	16.8670	0	32.3960	0	23.549	0	4.958	0	238.2	4	97.9	4	-1E+10	1	-1E+10	1	-1E+10	1	-1E+10	1	-1E+10	1	-1E+10	1
4902551	106	C	07/22/2023	10:05	-131.123	47.691	0	6.00	0	16.8550	0	32.4000	0	23.555	0	5.950	0	238.9	4	98.2	4	-1E+10	1	-1E+10	1	-1E+10	1	-1E+10	1	-1E+10	1	-1E+10	1
4902551	106	C	07/22/2023	10:05	-131.123	47.691	0	7.10	0	16.8470	0	32.3980	0	23.555	0	7.040	0	239.7	4	98.5	4	-1E+10	1	-1E+10	1	-1E+10	1	-1E+10	1	-1E+10	1	-1E+10	1
4902551	106	C	07/22/2023	10:05	-131.123	47.691	0	8.10	0	16.8390	0	32.3960	0	23.555	0	8.032	0	241.7	4	99.3	4	-1E+10	1	-1E+10	1	-1E+10	1	-1E+10	1	-1E+10	1	-1E+10	1
4902551	106	C	07/22/2023	10:05	-131.123	47.691	0	9.10	0	16.6840	0	32.3940	0	23.590	0	9.024	0	245.0	4	100.4	4	-1E+10	1	-1E+10	1	-1E+10	1	-1E+10	1	-1E+10	1	-1E+10	1
4902551	106	C	07/22/2023	10:05	-131.123	47.691	0	10.00	0	15.9240	0	32.4200	0	23.782	0	9.916	0	249.4	4	100.7	4	-1E+10	1	-1E+10	1	-1E+10	1	-1E+10	1	-1E+10	1	-1E+10	1
4902551	106	C	07/22/2023	10:05	-131.123	47.691	0	10.90	0	15.7150	0	32.3850	0	23.802	0	10.809	0	250.8	4	100.8	4	-1E+10	1	-1E+10	1	-1E+10	1	-1E+10	1	-1E+10	1	-1E+10	1
4902551	106	C	07/22/2023	10:05	-131.123	47.691	0	12.00	0	15.3140	0	32.4100	0	23.909	0	11.899	0	252.3	4	100.6	4	-1E+10	1	-1E+10	1	-1E+10	1	-1E+10	1	-1E+10	1	-1E+10	1
4902551	106	C	07/22/2023	10:05	-131.123	47.691	0	12.90	0	15.1100	0	32.3810	0	23.931	0	12.792	0	253.4	4	100.7	4	-1E+10	1	-1E+10	1	-1E+10	1	-1E+10	1	-1E+10	1	-1E+10	1
4902551	106	C	07/22/2023	10:05	-131.123	47.691	0	13.80	0	14.9650	0	32.3840	0	23.965	0	13.684	0	254.4	4	100.7	4	-1E+10	1	-1E+10	1	-1E+10	1	-1E+10	1	-1E+10	1	-1E+10	1
4902551	106	C	07/22/2023	10:05	-131.123	47.691	0	15.00	0	14.7920	0	32.3810	0	23.999	0	14.874	0	255.6	4	100.9	4	-1E+10	1	-1E+10	1	-1E+10	1	-1E+10	1	-1E+10	1	-1E+10	1
4902551	106	C	07/22/2023	10:05	-131.123	47.691	0	15.90	0	14.7770	0	32.3780	0	24.000	0	15.766	0	256.3	4	101.1	4	-1E+10	1	-1E+10	1	-1E+10	1	-1E+10	1	-1E+10	1	-1E+10	1
4902551	106	C	07/22/2023	10:05	-131.123	47.691	0	16.70	0	14.7570	0	32.3720	0	24.000	0	16.560	0	257.1	4	101.4	4	-1E+10	1	-1E+10	1	-1E+10	1	-1E+10	1	-1E+10	1	-1E+10	1
4902551	106	C	07/22/2023	10:05	-131.123	47.691	0	17.80	0	14.5370	0	32.3790	0	24.052	0	17.650	0	258.4	4	101.5	4	-1E+10	1	-1E+10	1	-1E+10	1	-1E+10	1	-1E+10	1	-1E+10	1
4902551	106	C	07/22/2023	10:05	-131.123	47.691	0	19.10	0	14.5060	0	32.3770	0	24.057	0	18.939	0	259.5	4	101.8	4	-1E+10	1	-1E+10	1	-1E+10	1	-1E+10	1	-1E+10	1	-1E+10	1
4902551	106	C	07/22/2023	10:05	-131.123	47.691	0	20.10	0	14.4520	0	32.3810	0	24.071	0	19.931	0	260.5	4	102.1	4	-1E+10	1	-1E+10	1	-1E+10	1	-1E+10	1	-1E+10	1	-1E+10	1
4902551	106	C	07/22/2023	10:05	-131.123	47.691	0	20.80	0	14.3940	0	32.3780	0	24.081	0	20.625	0	261.5	4	102.4	4	-1E+10	1	-1E+10	1	-1E+10	1	-1E+10	1	-1E+10	1	-1E+10	1
4902551	106	C	07/22/2023	10:05	-131.123	47.691	0	22.10	0	14.3400	0	32.3750	0	24.090	0	21.914	0	263.3	4	103.0	4	-1E+10	1	-1E+10	1	-1E+10	1	-1E+10	1	-1E+10	1	-1E+10	1
4902551	106	C	07/22/2023	10:05	-131.123	47.691	0	22.90	0	14.2460	0	32.3750	0	24.110	0	22.707	0	265.4	4	103.6	4	-1E+10	1	-1E+10	1	-1E+10	1	-1E+10	1	-1E+10	1	-1E+10	1
4902551	106	C	07/22/2023	10:05	-131.123	47.691	0	24.00	0	13.9050	0	32.3710	0	24.177	0	23.798	0	268.5	4	104.1	4	-1E+10	1	-1E+10	1	-1E+10	1	-1E+10	1	-1E+10	1	-1E+10	1
4902551	106	C	07/22/2023	10:05	-131.123	47.691	0	25.10	0	13.4730	0	32.3630	0	24.258	0	24.889	0	272.3	4	104.6	4	-1E+10	1	-1E+10	1	-1E+10	1	-1E+10	1	-1E+10	1	-1E+10	1
4902551	106	C	07/22/2023	10:05	-131.123	47.691	0	26.10	0	12.9540	0	32.3970	0	24.387	0	25.880	0	274.4	4	104.4	4	-1E+10	1	-1E+10	1	-1E+10	1	-1E+10	1	-1E+10	1	-1E+10	1
4902551	106	C	07/22/2023	10:05	-131.123	47.691	0	26.90	0	12.6810	0	32.3780	0	24.426	0	26.673	0	276.1	4	104.4	4	-1E+10	1	-1E+10	1	-1E+10	1	-1E+10	1	-1E+10	1	-1E+10	1
4902551	106	C	07/22/2023	10:05	-131.123	47.691	0	27.90	0	12.5110	0	32.3570	0	24.442	0	27.665	0	277.7	4	104.6	4	-1E+10	1	-1E+10	1	-1E+10	1	-1E+10	1	-1E+10	1	-1E+10	1
4902551	106	C	07/22/2023	10:05	-131.123	47.691	0	28.80	0	12.3080	0	32.3590	0	24.482	0	28.557	0	278.8	4	104.6	4	-1E+10	1	-1E+10	1	-1E+10	1	-1E+10	1	-1E+10	1	-1E+10	1
4902551	106	C	07/22/2023	10:05	-131.123	47.691	0	30.10	0	11.9810	0	32.3560	0	24.541	0	29.846	0	280.2	4	104.4	4	-1E+10	1	-1E+10	1	-1E+10	1	-1E+10	1	-1E+10	1	-1E+10	1
4902551	106	C	07/22/2023	10:05	-131.123	47.691	0	31.10	0	11.8260	0	32.3520	0	24.567	0	30.838	0	283.1	4	105.2	4	-1E+10	1	-1E+10	1	-1E+10	1	-1E+10	1	-1E+10	1	-1E+10	1
4902551	106	C	07/22/2023	10:05	-131.123	47.691	0	32.00	0	11.5910	0	32.3470	0	24.606	0	31.730	0	284.9	4	105.3	4	-1E+10	1	-1E+10	1	-1E+10	1	-1E+10	1	-1E+10	1	-1E+10	1
4902551	106	C	07/22/2023	10:05	-131.123	47.691	0	32.90	0	11.2600	0	32.3490	0	24.667	0	32.622	0	286.6	4	105.2	4	-1E+10	1	-1E+10	1	-1E+10	1	-1E+10	1	-1E+10	1	-1E+10	1
4902551	106	C	07/22/2023	10:05	-131.123	47.691	0	34.00	0	11.0230	0	32.3500	0	24.710	0	33.713	0	287.6	4	105.0	4	-1E+10	1	-1E+10	1	-1E+10	1	-1E+10	1	-1E+10	1	-1E+10	1
4902551	106	C	07/22/2023	10:05	-131.123	47.691	0	35.10	0	10.8360	0	32.3450	0	24.739	0	34.803	0	288.4	4	104.9	4	-1E+10	1	-1E+10	1	-1E+10	1	-1E+10	1	-1E+10	1	-1E+10	1
4902551	106	C	07/22/2023	10:05	-131.123	47.691	0	36.10	0	10.7810	0	32.3380	0	24.743	0	35.795	0	288.9	4	105.0	4	-1E+10	1	-1E+10	1	-1E+10	1	-1E+10	1	-1E+10	1	-1E+10	1
4902551	106	C	07/22/2023	10:05	-131.123	47.691	0	37.20	0	10.4660	0	32.3640	0	24.817	0	36.886	0	290.8	4	104.9	4	-1E+10	1	-1E+10	1	-1E+10	1	-1E+10	1	-1E+10	1	-1E+10	1
4902551	106	C	07/22/2023	10:05	-131.123	47.691	0	37.90	0	10.1580	0	32.3480	0	24.857	0	37.580	0	290.8	4	104.2	4	-1E+10	1	-1E+10	1	-1E+10	1	-1E+10	1	-1E+10	1	-1E+10	1
4902551	106	C	07/22/2023	10:05	-131.123	47.691	0	38.90	0	9.9840	0	32.3440	0	24.882	0	38.571	0	291.4	4	104.1	4	-1E+10	1	-1E+10	1	-1E+10	1	-1E+10	1	-1E+10	1	-1E+10	1
4902551	106	C	07/22/2023	10:05	-131.123	47.691	0	39.80	0	9.6960	0	32.3420	0	24.928	0	39.463	0	291.6	4	103.5	4	-1E+10	1	-1E+10	1	-1E+10	1	-1E+10	1	-1E+10	1	-1E+10	1
4902551	106	C	07/22/2023	10:05	-131.123	47.691	0	40.70	0	9.6370	0	32.3340	0	24.931	0	40.356	0	291.1	4	103.2	4	-1E+10	1	-1E+10	1	-1E+10	1	-1E+10	1	-1E+10	1	-1E+10	1
4902551	106	C	07/22/2023	10:05	-131.123	47.691	0	41.70	0	9.4920	0	32.3430	0	24.962	0	41.347	0	290.8	4	102.8	4	-1E+10	1	-1E+10	1	-1E+10	1	-1E+10	1	-1E+10	1	-1E+10	1
4902551	106	C	07/22/2023	10:05	-131.123	47.691	0	42.70	0	9.3440	0	32.3380	0	24.981	0	42.339	0	290.5	4	102.3	4	-1E+10	1	-1E+10	1	-1E+10	1	-1E+10	1	-1E+10	1	-1E+10	1
4902551	106	C	07/22/2023	10:05	-131.123	47.691	0	43.70	0	9.2730	0	32.3390	0	24.993	0	43.330	0	289.7	4	101.9	4	-1E+10	1	-1E+10	1	-1E+10	1	-1E+10	1	-1E+10	1	-1E+10	1
4902551	106	C	07/22/2023	10:05	-131.123	47.691	0	44.70	0	9.2490	0	32.3360	0	24.995	0	44.321	0	288.7	4	101.5	4	-1E+10	1	-1E+10	1	-1E+10	1	-1E+10	1	-1E+10	1	-1E+10	1
4902551	106	C	07/22/2023	10:05	-131.123	47.691	0	45.70	0	9.1620	0	32.3360	0	25.009	0	45.313	0	287.7	4	100.9	4	-1E+10	1	-1E+10	1	-1E+10	1	-1E+10	1	-1E+10	1	-1E+10	1
4902551	106	C	07/22/2023	10:05	-131.123	47.691	0	46.80	0	9.0050	0	32.3420	0	25.038	0	46.403	0	286.4	4	100.1	4	-1E+10	1	-1E+10	1	-1E+10	1	-1E+10	1	-1E+10	1	-1E+10	1
4902551	106	C	07/22/2023	10:05	-131.123	47.691	0	47.90	0	8.7690	0	32.3540	0	25.083	0	47.494	0	285.1	4	99.2	4	-1E+10	1	-1E+10	1	-1E+10	1	-1E+10	1	-1E+10	1	-1E+10	1
4902551	106	C	07/22/2023	10:05	-131.123	47.691	0	49.10	0	8.5580	0	32.3550	0	25.116	0	48.684	0	284.2	4	98.4	4	-1E+10	1	-1E+10	1	-1E+10	1	-1E+10	1	-1E+10	1	-1E+10	1
4902551	106	C	07/22/2023	10:05	-131.123	47.691	0	50.00	0	8.4720	0	32.3490	0	25.124	0	49.576	0	283.8	4	98.1	4	-1E+10	1	-1E+10	1	-1E+10	1	-1E+10	1	-1E+10	1	-1E+10	1
4902551	106	C	07/22/2023	10:05	-131.123	47.691	0	50.90	0	8.4260	0	32.3520	0	25.133	0	50.468	0	283.0	4	97.7	4	-1E+10	1	-1E+10	1	-1E+10	1	-1E+10	1	-1E+10	1	-1E+10	1
4902551	106	C	07/22/2023	10:05	-131.123	47.691	0	52.10	0	8.3760	0	32.3530	0	25.142	0	51.658	0	282.2	4	97.3	4	-1E+10	1	-1E+10	1	-1E+10	1	-1E+10	1	-1E+10	1	-1E+10	1
4902551	106	C	07/22/2023	10:05	-131.123	47.691	0	53.10	0	8.3200	0	32.3520	0	25.149	0	52.649	0	281.8	4	97.0	4	-1E+10	1	-1E+10	1	-1E+10	1	-1E+10	1	-1E+10	1	-1E+10	1
4902551	106	C	07/22/2023	10:05	-131.123	47.691	0	53.90	0	8.2890	0	32.3540	0	25.155	0	53.442	0	281.2	4	96.8	4	-1E+10	1	-1E+10	1	-1E+10	1	-1E+10	1	-1E+10	1	-1E+10	1
4902551	106	C	07/22/2023	10:05	-131.123	47.691	0	54.90	0	8.2580	0	32.3480	0	25.155	0	54.434	0	280.7	4	96.5	4	-1E+10	1	-1E+10	1	-1E+10	1	-1E+10	1	-1E+10	1	-1E+10	1
4902551	106	C	07/22/2023	10:05	-131.123	47.691	0	55.80	0	8.2280	0	32.3490	0	25.160	0	55.326	0	279.9	4	96.2	4	-1E+10	1	-1E+10	1	-1E+10	1	-1E+10	1	-1E+10	1	-1E+10	1
4902551	106	C	07/22/2023	10:05	-131.123	47.691	0	57.00	0	8.1920	0	32.3510	0	25.167	0	56.515	0	279.0	4	95.8	4	-1E+10	1	-1E+10	1	-1E+10	1	-1E+10	1	-1E+10	1	-1E+10	1
4902551	106	C	07/22/2023	10:05	-131.123	47.691	0	58.10	0	8.0700	0	32.3580	0	25.190	0	57.606	0	278.5	4	95.4	4	-1E+10	1	-1E+10	1	-1E+10	1	-1E+10	1	-1E+10	1	-1E+10	1
4902551	106	C	07/22/2023	10:05	-131.123	47.691	0	58.90	0	8.0210	0	32.3560	0	25.196	0	58.399	0	277.9	4	95.0	4	-1E+10	1	-1E+10	1	-1E+10	1	-1E+10	1	-1E+10	1	-1E+10	1
4902551	106	C	07/22/2023	10:05	-131.123	47.691	0	59.90	0	7.9660	0	32.3560	0	25.204	0	59.390	0	277.2	4	94.7	4	-1E+10	1	-1E+10	1	-1E+10	1	-1E+10	1	-1E+10	1	-1E+10	1
4902551	106	C	07/22/2023	10:05	-131.123	47.691	0	61.10	0	7.8260	0	32.3560	0	25.224	0	60.580	0	276.2	4	94.1	4	-1E+10	1	-1E+10	1	-1E+10	1	-1E+10	1	-1E+10	1	-1E+10	1
4902551	106	C	07/22/2023	10:05	-131.123	47.691	0	62.10	0	7.7600	0	32.3550	0	25.232	0	61.571	0	275.2	4	93.6	4	-1E+10	1	-1E+10	1	-1E+10	1	-1E+10	1	-1E+10	1	-1E+10	1
4902551	106	C	07/22/2023	10:05	-131.123	47.691	0	62.90	0	7.7420	0	32.3530	0	25.233	0	62.364	0	274.4	4	93.3	4	-1E+10	1	-1E+10	1	-1E+10	1	-1E+10	1	-1E+10	1	-1E+10	1
4902551	106	C	07/22/2023	10:05	-131.123	47.691	0	64.10	0	7.6320	0	32.3510	0	25.247	0	63.554	0	274.1	4	92.9	4	-1E+10	1	-1E+10	1	-1E+10	1	-1E+10	1	-1E+10	1	-1E+10	1
4902551	106	C	07/22/2023	10:05	-131.123	47.691	0	65.00	0	7.5540	0	32.3500	0	25.257	0	64.446	0	274.0	4	92.7	4	-1E+10	1	-1E+10	1	-1E+10	1	-1E+10	1	-1E+10	1	-1E+10	1
4902551	106	C	07/22/2023	10:05	-131.123	47.691	0	65.90	0	7.5320	0	32.3500	0	25.261	0	65.338	0	273.9	4	92.7	4	-1E+10	1	-1E+10	1	-1E+10	1	-1E+10	1	-1E+10	1	-1E+10	1
4902551	106	C	07/22/2023	10:05	-131.123	47.691	0	66.90	0	7.5240	0	32.3500	0	25.262	0	66.330	0	273.6	4	92.5	4	-1E+10	1	-1E+10	1	-1E+10	1	-1E+10	1	-1E+10	1	-1E+10	1
4902551	106	C	07/22/2023	10:05	-131.123	47.691	0	67.90	0	7.5180	0	32.3500	0	25.263	0	67.321	0	273.3	4	92.4	4	-1E+10	1	-1E+10	1	-1E+10	1	-1E+10	1	-1E+10	1	-1E+10	1
4902551	106	C	07/22/2023	10:05	-131.123	47.691	0	69.00	0	7.5030	0	32.3510	0	25.265	0	68.411	0	272.9	4	92.2	4	-1E+10	1	-1E+10	1	-1E+10	1	-1E+10	1	-1E+10	1	-1E+10	1
4902551	106	C	07/22/2023	10:05	-131.123	47.691	0	70.10	0	7.4580	0	32.3500	0	25.271	0	69.502	0	272.7	4	92.1	4	-1E+10	1	-1E+10	1	-1E+10	1	-1E+10	1	-1E+10	1	-1E+10	1
4902551	106	C	07/22/2023	10:05	-131.123	47.691	0	70.90	0	7.4490	0	32.3500	0	25.272	0	70.295	0	272.5	4	92.0	4	-1E+10	1	-1E+10	1	-1E+10	1	-1E+10	1	-1E+10	1	-1E+10	1
4902551	106	C	07/22/2023	10:05	-131.123	47.691	0	71.90	0	7.4360	0	32.3510	0	25.275	0	71.286	0	272.3	4	91.9	4	-1E+10	1	-1E+10	1	-1E+10	1	-1E+10	1	-1E+10	1	-1E+10	1
4902551	106	C	07/22/2023	10:05	-131.123	47.691	0	73.00	0	7.4150	0	32.3530	0	25.279	0	72.377	0	272.2	4	91.8	4	-1E+10	1	-1E+10	1	-1E+10	1	-1E+10	1	-1E+10	1	-1E+10	1
4902551	106	C	07/22/2023	10:05	-131.123	47.691	0	74.10	0	7.3960	0	32.3530	0	25.282	0	73.467	0	272.3	4	91.8	4	-1E+10	1	-1E+10	1	-1E+10	1	-1E+10	1	-1E+10	1	-1E+10	1
4902551	106	C	07/22/2023	10:05	-131.123	47.691	0	75.30	0	7.3880	0	32.3530	0	25.283	0	74.657	0	271.9	4	91.7	4	-1E+10	1	-1E+10	1	-1E+10	1	-1E+10	1	-1E+10	1	-1E+10	1
4902551	106	C	07/22/2023	10:05	-131.123	47.691	0	76.00	0	7.3850	0	32.3530	0	25.283	0	75.351	0	271.7	4	91.6	4	-1E+10	1	-1E+10	1	-1E+10	1	-1E+10	1	-1E+10	1	-1E+10	1
4902551	106	C	07/22/2023	10:05	-131.123	47.691	0	77.20	0	7.3810	0	32.3530	0	25.284	0	76.540	0	271.4	4	91.5	4	-1E+10	1	-1E+10	1	-1E+10	1	-1E+10	1	-1E+10	1	-1E+10	1
4902551	106	C	07/22/2023	10:05	-131.123	47.691	0	77.90	0	7.3780	0	32.3540	0	25.285	0	77.234	0	271.1	4	91.4	4	-1E+10	1	-1E+10	1	-1E+10	1	-1E+10	1	-1E+10	1	-1E+10	1
4902551	106	C	07/22/2023	10:05	-131.123	47.691	0	78.90	0	7.3730	0	32.3550	0	25.287	0	78.225	0	270.9	4	91.3	4	-1E+10	1	-1E+10	1	-1E+10	1	-1E+10	1	-1E+10	1	-1E+10	1
4902551	106	C	07/22/2023	10:05	-131.123	47.691	0	80.20	0	7.3710	0	32.3550	0	25.287	0	79.514	0	270.6	4	91.2	4	-1E+10	1	-1E+10	1	-1E+10	1	-1E+10	1	-1E+10	1	-1E+10	1
4902551	106	C	07/22/2023	10:05	-131.123	47.691	0	81.00	0	7.3700	0	32.3560	0	25.288	0	80.307	0	270.5	4	91.2	4	-1E+10	1	-1E+10	1	-1E+10	1	-1E+10	1	-1E+10	1	-1E+10	1
4902551	106	C	07/22/2023	10:05	-131.123	47.691	0	82.00	0	7.3670	0	32.3560	0	25.288	0	81.298	0	270.3	4	91.1	4	-1E+10	1	-1E+10	1	-1E+10	1	-1E+10	1	-1E+10	1	-1E+10	1
4902551	106	C	07/22/2023	10:05	-131.123	47.691	0	83.00	0	7.3670	0	32.3560	0	25.288	0	82.289	0	277.0	4	93.3	4	-1E+10	1	-1E+10	1	-1E+10	1	-1E+10	1	-1E+10	1	-1E+10	1
4902551	106	C	07/22/2023	10:05	-131.123	47.691	0	84.00	0	7.3650	0	32.3580	0	25.290	0	83.281	0	276.6	4	93.2	4	-1E+10	1	-1E+10	1	-1E+10	1	-1E+10	1	-1E+10	1	-1E+10	1
4902551	106	C	07/22/2023	10:05	-131.123	47.691	0	85.10	0	7.3620	0	32.3580	0	25.290	0	84.371	0	276.3	4	93.1	4	-1E+10	1	-1E+10	1	-1E+10	1	-1E+10	1	-1E+10	1	-1E+10	1
4902551	106	C	07/22/2023	10:05	-131.123	47.691	0	86.10	0	7.3610	0	32.3580	0	25.291	0	85.362	0	276.0	4	93.0	4	-1E+10	1	-1E+10	1	-1E+10	1	-1E+10	1	-1E+10	1	-1E+10	1
4902551	106	C	07/22/2023	10:05	-131.123	47.691	0	87.10	0	7.3610	0	32.3590	0	25.291	0	86.353	0	275.6	4	92.9	4	-1E+10	1	-1E+10	1	-1E+10	1	-1E+10	1	-1E+10	1	-1E+10	1
4902551	106	C	07/22/2023	10:05	-131.123	47.691	0	88.10	0	7.3600	0	32.3600	0	25.292	0	87.345	0	275.1	4	92.7	4	-1E+10	1	-1E+10	1	-1E+10	1	-1E+10	1	-1E+10	1	-1E+10	1
4902551	106	C	07/22/2023	10:05	-131.123	47.691	0	89.00	0	7.3600	0	32.3610	0	25.293	0	88.237	0	274.8	4	92.6	4	-1E+10	1	-1E+10	1	-1E+10	1	-1E+10	1	-1E+10	1	-1E+10	1
4902551	106	C	07/22/2023	10:05	-131.123	47.691	0	89.70	0	7.3590	0	32.3610	0	25.293	0	88.930	0	274.4	4	92.5	4	-1E+10	1	-1E+10	1	-1E+10	1	-1E+10	1	-1E+10	1	-1E+10	1
4902551	106	C	07/22/2023	10:05	-131.123	47.691	0	90.70	0	7.3590	0	32.3620	0	25.294	0	89.922	0	273.8	4	92.3	4	-1E+10	1	-1E+10	1	-1E+10	1	-1E+10	1	-1E+10	1	-1E+10	1
4902551	106	C	07/22/2023	10:05	-131.123	47.691	0	91.70	0	7.3580	0	32.3620	0	25.294	0	90.913	0	273.1	4	92.0	4	-1E+10	1	-1E+10	1	-1E+10	1	-1E+10	1	-1E+10	1	-1E+10	1
4902551	106	C	07/22/2023	10:05	-131.123	47.691	0	93.10	0	7.3560	0	32.3640	0	25.296	0	92.301	0	271.6	4	91.5	4	-1E+10	1	-1E+10	1	-1E+10	1	-1E+10	1	-1E+10	1	-1E+10	1
4902551	106	C	07/22/2023	10:05	-131.123	47.691	0	94.10	0	7.3490	0	32.3660	0	25.299	0	93.292	0	270.5	4	91.1	4	-1E+10	1	-1E+10	1	-1E+10	1	-1E+10	1	-1E+10	1	-1E+10	1
4902551	106	C	07/22/2023	10:05	-131.123	47.691	0	95.00	0	7.3480	0	32.3690	0	25.301	0	94.184	0	269.7	4	90.9	4	-1E+10	1	-1E+10	1	-1E+10	1	-1E+10	1	-1E+10	1	-1E+10	1
4902551	106	C	07/22/2023	10:05	-131.123	47.691	0	95.90	0	7.3480	0	32.3710	0	25.303	0	95.076	0	268.7	4	90.5	4	-1E+10	1	-1E+10	1	-1E+10	1	-1E+10	1	-1E+10	1	-1E+10	1
4902551	106	C	07/22/2023	10:05	-131.123	47.691	0	97.00	0	7.3480	0	32.3740	0	25.305	0	96.166	0	267.2	4	90.0	4	-1E+10	1	-1E+10	1	-1E+10	1	-1E+10	1	-1E+10	1	-1E+10	1
4902551	106	C	07/22/2023	10:05	-131.123	47.691	0	97.80	0	7.3490	0	32.3770	0	25.307	0	96.959	0	265.6	4	89.5	4	-1E+10	1	-1E+10	1	-1E+10	1	-1E+10	1	-1E+10	1	-1E+10	1
4902551	106	C	07/22/2023	10:05	-131.123	47.691	0	99.10	0	7.3440	0	32.3880	0	25.317	0	98.248	0	263.2	4	88.7	4	-1E+10	1	-1E+10	1	-1E+10	1	-1E+10	1	-1E+10	1	-1E+10	1
4902551	106	C	07/22/2023	10:05	-131.123	47.691	0	99.90	0	7.3420	0	32.3920	0	25.320	0	99.041	0	261.4	4	88.1	4	-1E+10	1	-1E+10	1	-1E+10	1	-1E+10	1	-1E+10	1	-1E+10	1
4902551	106	C	07/22/2023	10:05	-131.123	47.691	0	101.00	0	7.3350	0	32.4080	0	25.334	0	100.131	0	258.9	4	87.2	4	-1E+10	1	-1E+10	1	-1E+10	1	-1E+10	1	-1E+10	1	-1E+10	1
4902551	106	C	07/22/2023	10:05	-131.123	47.691	0	101.90	0	7.3310	0	32.4300	0	25.352	0	101.023	0	256.8	4	86.5	4	-1E+10	1	-1E+10	1	-1E+10	1	-1E+10	1	-1E+10	1	-1E+10	1
4902551	106	C	07/22/2023	10:05	-131.123	47.691	0	103.00	0	7.3430	0	32.4450	0	25.362	0	102.113	0	253.6	4	85.5	4	-1E+10	1	-1E+10	1	-1E+10	1	-1E+10	1	-1E+10	1	-1E+10	1
4902551	106	C	07/22/2023	10:05	-131.123	47.691	0	103.90	0	7.3470	0	32.4500	0	25.365	0	103.005	0	250.9	4	84.6	4	-1E+10	1	-1E+10	1	-1E+10	1	-1E+10	1	-1E+10	1	-1E+10	1
4902551	106	C	07/22/2023	10:05	-131.123	47.691	0	105.10	0	7.3390	0	32.4790	0	25.389	0	104.194	0	244.7	4	82.5	4	-1E+10	1	-1E+10	1	-1E+10	1	-1E+10	1	-1E+10	1	-1E+10	1
4902551	106	C	07/22/2023	10:05	-131.123	47.691	0	106.10	0	7.3060	0	32.5370	0	25.439	0	105.186	0	235.3	4	79.3	4	-1E+10	1	-1E+10	1	-1E+10	1	-1E+10	1	-1E+10	1	-1E+10	1
4902551	106	C	07/22/2023	10:05	-131.123	47.691	0	106.90	0	7.2840	0	32.5910	0	25.485	0	105.979	0	228.5	4	77.0	4	-1E+10	1	-1E+10	1	-1E+10	1	-1E+10	1	-1E+10	1	-1E+10	1
4902551	106	C	07/22/2023	10:05	-131.123	47.691	0	107.90	0	7.2770	0	32.6260	0	25.513	0	106.970	0	221.0	4	74.5	4	-1E+10	1	-1E+10	1	-1E+10	1	-1E+10	1	-1E+10	1	-1E+10	1
4902551	106	C	07/22/2023	10:05	-131.123	47.691	0	108.90	0	7.2900	0	32.6610	0	25.539	0	107.961	0	214.7	4	72.4	4	-1E+10	1	-1E+10	1	-1E+10	1	-1E+10	1	-1E+10	1	-1E+10	1
4902551	106	C	07/22/2023	10:05	-131.123	47.691	0	109.90	0	7.2950	0	32.7050	0	25.573	0	108.952	0	209.3	4	70.6	4	-1E+10	1	-1E+10	1	-1E+10	1	-1E+10	1	-1E+10	1	-1E+10	1
4902551	106	C	07/22/2023	10:05	-131.123	47.691	0	110.90	0	7.2980	0	32.7830	0	25.634	0	109.943	0	204.4	4	69.0	4	-1E+10	1	-1E+10	1	-1E+10	1	-1E+10	1	-1E+10	1	-1E+10	1
4902551	106	C	07/22/2023	10:05	-131.123	47.691	0	111.90	0	7.2960	0	32.8180	0	25.662	0	110.934	0	198.8	4	67.1	4	-1E+10	1	-1E+10	1	-1E+10	1	-1E+10	1	-1E+10	1	-1E+10	1
4902551	106	C	07/22/2023	10:05	-131.123	47.691	0	112.80	0	7.2980	0	32.8260	0	25.668	0	111.826	0	193.2	4	65.2	4	-1E+10	1	-1E+10	1	-1E+10	1	-1E+10	1	-1E+10	1	-1E+10	1
4902551	106	C	07/22/2023	10:05	-131.123	47.691	0	113.80	0	7.3070	0	32.9050	0	25.729	0	112.817	0	188.9	4	63.8	4	-1E+10	1	-1E+10	1	-1E+10	1	-1E+10	1	-1E+10	1	-1E+10	1
4902551	106	C	07/22/2023	10:05	-131.123	47.691	0	114.90	0	7.3080	0	33.0700	0	25.858	0	113.907	0	185.5	4	62.8	4	-1E+10	1	-1E+10	1	-1E+10	1	-1E+10	1	-1E+10	1	-1E+10	1
4902551	106	C	07/22/2023	10:05	-131.123	47.691	0	116.00	0	7.3040	0	33.0830	0	25.869	0	114.998	0	182.9	4	61.9	4	-1E+10	1	-1E+10	1	-1E+10	1	-1E+10	1	-1E+10	1	-1E+10	1
4902551	106	C	07/22/2023	10:05	-131.123	47.691	0	117.20	0	7.2990	0	33.1140	0	25.894	0	116.187	0	180.2	4	61.0	4	-1E+10	1	-1E+10	1	-1E+10	1	-1E+10	1	-1E+10	1	-1E+10	1
4902551	106	C	07/22/2023	10:05	-131.123	47.691	0	118.10	0	7.2990	0	33.1320	0	25.908	0	117.079	0	178.0	4	60.2	4	-1E+10	1	-1E+10	1	-1E+10	1	-1E+10	1	-1E+10	1	-1E+10	1
4902551	106	C	07/22/2023	10:05	-131.123	47.691	0	118.90	0	7.3030	0	33.1550	0	25.926	0	117.872	0	176.3	4	59.7	4	-1E+10	1	-1E+10	1	-1E+10	1	-1E+10	1	-1E+10	1	-1E+10	1
4902551	106	C	07/22/2023	10:05	-131.123	47.691	0	119.80	0	7.3040	0	33.2230	0	25.979	0	118.764	0	174.8	4	59.2	4	-1E+10	1	-1E+10	1	-1E+10	1	-1E+10	1	-1E+10	1	-1E+10	1
4902551	106	C	07/22/2023	10:05	-131.123	47.691	0	120.70	0	7.3030	0	33.2290	0	25.984	0	119.656	0	173.2	4	58.7	4	-1E+10	1	-1E+10	1	-1E+10	1	-1E+10	1	-1E+10	1	-1E+10	1
4902551	106	C	07/22/2023	10:05	-131.123	47.691	0	121.60	0	7.3020	0	33.2330	0	25.987	0	120.547	0	171.7	4	58.2	4	-1E+10	1	-1E+10	1	-1E+10	1	-1E+10	1	-1E+10	1	-1E+10	1
4902551	106	C	07/22/2023	10:05	-131.123	47.691	0	122.90	0	7.3010	0	33.2500	0	26.001	0	121.836	0	169.4	4	57.4	4	-1E+10	1	-1E+10	1	-1E+10	1	-1E+10	1	-1E+10	1	-1E+10	1
4902551	106	C	07/22/2023	10:05	-131.123	47.691	0	124.40	0	7.2990	0	33.2890	0	26.032	0	123.322	0	167.4	4	56.7	4	-1E+10	1	-1E+10	1	-1E+10	1	-1E+10	1	-1E+10	1	-1E+10	1
4902551	106	C	07/22/2023	10:05	-131.123	47.691	0	125.30	0	7.2790	0	33.3330	0	26.069	0	124.214	0	166.2	4	56.3	4	-1E+10	1	-1E+10	1	-1E+10	1	-1E+10	1	-1E+10	1	-1E+10	1
4902551	106	C	07/22/2023	10:05	-131.123	47.691	0	126.30	0	7.2700	0	33.3520	0	26.086	0	125.205	0	165.2	4	56.0	4	-1E+10	1	-1E+10	1	-1E+10	1	-1E+10	1	-1E+10	1	-1E+10	1
4902551	106	C	07/22/2023	10:05	-131.123	47.691	0	127.20	0	7.2670	0	33.3600	0	26.092	0	126.097	0	164.2	4	55.6	4	-1E+10	1	-1E+10	1	-1E+10	1	-1E+10	1	-1E+10	1	-1E+10	1
4902551	106	C	07/22/2023	10:05	-131.123	47.691	0	128.10	0	7.2640	0	33.3690	0	26.100	0	126.989	0	163.1	4	55.3	4	-1E+10	1	-1E+10	1	-1E+10	1	-1E+10	1	-1E+10	1	-1E+10	1
4902551	106	C	07/22/2023	10:05	-131.123	47.691	0	129.00	0	7.2700	0	33.3830	0	26.110	0	127.881	0	162.2	4	54.9	4	-1E+10	1	-1E+10	1	-1E+10	1	-1E+10	1	-1E+10	1	-1E+10	1
4902551	106	C	07/22/2023	10:05	-131.123	47.691	0	130.00	0	7.2670	0	33.4020	0	26.125	0	128.872	0	161.2	4	54.6	4	-1E+10	1	-1E+10	1	-1E+10	1	-1E+10	1	-1E+10	1	-1E+10	1
4902551	106	C	07/22/2023	10:05	-131.123	47.691	0	130.90	0	7.2590	0	33.4330	0	26.151	0	129.764	0	160.4	4	54.3	4	-1E+10	1	-1E+10	1	-1E+10	1	-1E+10	1	-1E+10	1	-1E+10	1
4902551	106	C	07/22/2023	10:05	-131.123	47.691	0	131.90	0	7.2500	0	33.4410	0	26.158	0	130.755	0	159.6	4	54.1	4	-1E+10	1	-1E+10	1	-1E+10	1	-1E+10	1	-1E+10	1	-1E+10	1
4902551	106	C	07/22/2023	10:05	-131.123	47.691	0	132.80	0	7.2510	0	33.4430	0	26.160	0	131.647	0	158.8	4	53.8	4	-1E+10	1	-1E+10	1	-1E+10	1	-1E+10	1	-1E+10	1	-1E+10	1
4902551	106	C	07/22/2023	10:05	-131.123	47.691	0	133.70	0	7.2470	0	33.4430	0	26.160	0	132.539	0	157.8	4	53.5	4	-1E+10	1	-1E+10	1	-1E+10	1	-1E+10	1	-1E+10	1	-1E+10	1
4902551	106	C	07/22/2023	10:05	-131.123	47.691	0	134.60	0	7.2450	0	33.4480	0	26.165	0	133.431	0	156.6	4	53.0	4	-1E+10	1	-1E+10	1	-1E+10	1	-1E+10	1	-1E+10	1	-1E+10	1
4902551	106	C	07/22/2023	10:05	-131.123	47.691	0	135.90	0	7.2380	0	33.4790	0	26.190	0	134.719	0	154.8	4	52.5	4	-1E+10	1	-1E+10	1	-1E+10	1	-1E+10	1	-1E+10	1	-1E+10	1
4902551	106	C	07/22/2023	10:05	-131.123	47.691	0	137.30	0	7.2390	0	33.4860	0	26.195	0	136.106	0	153.0	4	51.9	4	-1E+10	1	-1E+10	1	-1E+10	1	-1E+10	1	-1E+10	1	-1E+10	1
4902551	106	C	07/22/2023	10:05	-131.123	47.691	0	138.20	0	7.2410	0	33.4890	0	26.198	0	136.998	0	151.8	4	51.4	4	-1E+10	1	-1E+10	1	-1E+10	1	-1E+10	1	-1E+10	1	-1E+10	1
4902551	106	C	07/22/2023	10:05	-131.123	47.691	0	139.10	0	7.2290	0	33.4990	0	26.207	0	137.890	0	150.3	4	50.9	4	-1E+10	1	-1E+10	1	-1E+10	1	-1E+10	1	-1E+10	1	-1E+10	1
4902551	106	C	07/22/2023	10:05	-131.123	47.691	0	140.00	0	7.2260	0	33.5040	0	26.211	0	138.782	0	148.7	4	50.4	4	-1E+10	1	-1E+10	1	-1E+10	1	-1E+10	1	-1E+10	1	-1E+10	1
4902551	106	C	07/22/2023	10:05	-131.123	47.691	0	140.80	0	7.2220	0	33.5090	0	26.216	0	139.575	0	146.9	4	49.8	4	-1E+10	1	-1E+10	1	-1E+10	1	-1E+10	1	-1E+10	1	-1E+10	1
4902551	106	C	07/22/2023	10:05	-131.123	47.691	0	141.70	0	7.2210	0	33.5110	0	26.218	0	140.467	0	144.9	4	49.1	4	-1E+10	1	-1E+10	1	-1E+10	1	-1E+10	1	-1E+10	1	-1E+10	1
4902551	106	C	07/22/2023	10:05	-131.123	47.691	0	142.90	0	7.2290	0	33.5130	0	26.218	0	141.656	0	141.5	4	47.9	4	-1E+10	1	-1E+10	1	-1E+10	1	-1E+10	1	-1E+10	1	-1E+10	1
4902551	106	C	07/22/2023	10:05	-131.123	47.691	0	144.10	0	7.2440	0	33.5910	0	26.277	0	142.845	0	138.6	4	47.0	4	-1E+10	1	-1E+10	1	-1E+10	1	-1E+10	1	-1E+10	1	-1E+10	1
4902551	106	C	07/22/2023	10:05	-131.123	47.691	0	145.00	0	7.2340	0	33.6100	0	26.294	0	143.737	0	137.1	4	46.5	4	-1E+10	1	-1E+10	1	-1E+10	1	-1E+10	1	-1E+10	1	-1E+10	1
4902551	106	C	07/22/2023	10:05	-131.123	47.691	0	145.80	0	7.2330	0	33.6670	0	26.339	0	144.530	0	136.2	4	46.2	4	-1E+10	1	-1E+10	1	-1E+10	1	-1E+10	1	-1E+10	1	-1E+10	1
4902551	106	C	07/22/2023	10:05	-131.123	47.691	0	146.70	0	7.2160	0	33.6830	0	26.354	0	145.421	0	135.4	4	45.9	4	-1E+10	1	-1E+10	1	-1E+10	1	-1E+10	1	-1E+10	1	-1E+10	1
4902551	106	C	07/22/2023	10:05	-131.123	47.691	0	147.70	0	7.2050	0	33.7030	0	26.371	0	146.412	0	134.7	4	45.7	4	-1E+10	1	-1E+10	1	-1E+10	1	-1E+10	1	-1E+10	1	-1E+10	1
4902551	106	C	07/22/2023	10:05	-131.123	47.691	0	148.60	0	7.2040	0	33.7080	0	26.375	0	147.304	0	134.3	4	45.6	4	-1E+10	1	-1E+10	1	-1E+10	1	-1E+10	1	-1E+10	1	-1E+10	1
4902551	106	C	07/22/2023	10:05	-131.123	47.691	0	149.90	0	7.2050	0	33.7100	0	26.377	0	148.592	0	133.6	4	45.3	4	-1E+10	1	-1E+10	1	-1E+10	1	-1E+10	1	-1E+10	1	-1E+10	1
4902551	106	C	07/22/2023	10:05	-131.123	47.691	0	151.20	0	7.2050	0	33.7110	0	26.377	0	149.881	0	132.9	4	45.1	4	-1E+10	1	-1E+10	1	-1E+10	1	-1E+10	1	-1E+10	1	-1E+10	1
4902551	106	C	07/22/2023	10:05	-131.123	47.691	0	152.20	0	7.2030	0	33.7130	0	26.379	0	150.871	0	132.3	4	44.9	4	-1E+10	1	-1E+10	1	-1E+10	1	-1E+10	1	-1E+10	1	-1E+10	1
4902551	106	C	07/22/2023	10:05	-131.123	47.691	0	152.90	0	7.2040	0	33.7210	0	26.385	0	151.565	0	131.8	4	44.7	4	-1E+10	1	-1E+10	1	-1E+10	1	-1E+10	1	-1E+10	1	-1E+10	1
4902551	106	C	07/22/2023	10:05	-131.123	47.691	0	153.90	0	7.1980	0	33.7260	0	26.390	0	152.556	0	131.4	4	44.5	4	-1E+10	1	-1E+10	1	-1E+10	1	-1E+10	1	-1E+10	1	-1E+10	1
4902551	106	C	07/22/2023	10:05	-131.123	47.691	0	155.10	0	7.1880	0	33.7300	0	26.395	0	153.745	0	130.7	4	44.3	4	-1E+10	1	-1E+10	1	-1E+10	1	-1E+10	1	-1E+10	1	-1E+10	1
4902551	106	C	07/22/2023	10:05	-131.123	47.691	0	155.80	0	7.1780	0	33.7360	0	26.401	0	154.439	0	130.4	4	44.2	4	-1E+10	1	-1E+10	1	-1E+10	1	-1E+10	1	-1E+10	1	-1E+10	1
4902551	106	C	07/22/2023	10:05	-131.123	47.691	0	157.00	0	7.1530	0	33.7450	0	26.411	0	155.628	0	129.9	4	44.0	4	-1E+10	1	-1E+10	1	-1E+10	1	-1E+10	1	-1E+10	1	-1E+10	1
4902551	106	C	07/22/2023	10:05	-131.123	47.691	0	158.20	0	7.1390	0	33.7470	0	26.415	0	156.817	0	129.5	4	43.9	4	-1E+10	1	-1E+10	1	-1E+10	1	-1E+10	1	-1E+10	1	-1E+10	1
4902551	106	C	07/22/2023	10:05	-131.123	47.691	0	159.00	0	7.1260	0	33.7520	0	26.421	0	157.610	0	129.0	4	43.7	4	-1E+10	1	-1E+10	1	-1E+10	1	-1E+10	1	-1E+10	1	-1E+10	1
4902551	106	C	07/22/2023	10:05	-131.123	47.691	0	159.70	0	7.1010	0	33.7570	0	26.428	0	158.303	0	128.7	4	43.6	4	-1E+10	1	-1E+10	1	-1E+10	1	-1E+10	1	-1E+10	1	-1E+10	1
4902551	106	C	07/22/2023	10:05	-131.123	47.691	0	161.00	0	7.0890	0	33.7610	0	26.433	0	159.591	0	128.0	4	43.3	4	-1E+10	1	-1E+10	1	-1E+10	1	-1E+10	1	-1E+10	1	-1E+10	1
4902551	106	C	07/22/2023	10:05	-131.123	47.691	0	162.30	0	7.0820	0	33.7670	0	26.439	0	160.879	0	127.3	4	43.1	4	-1E+10	1	-1E+10	1	-1E+10	1	-1E+10	1	-1E+10	1	-1E+10	1
4902551	106	C	07/22/2023	10:05	-131.123	47.691	0	163.10	0	7.0810	0	33.7690	0	26.440	0	161.672	0	126.9	4	42.9	4	-1E+10	1	-1E+10	1	-1E+10	1	-1E+10	1	-1E+10	1	-1E+10	1
4902551	106	C	07/22/2023	10:05	-131.123	47.691	0	164.00	0	7.0840	0	33.7900	0	26.456	0	162.564	0	126.4	4	42.8	4	-1E+10	1	-1E+10	1	-1E+10	1	-1E+10	1	-1E+10	1	-1E+10	1
4902551	106	C	07/22/2023	10:05	-131.123	47.691	0	164.90	0	7.0470	0	33.8000	0	26.469	0	163.456	0	126.2	4	42.7	4	-1E+10	1	-1E+10	1	-1E+10	1	-1E+10	1	-1E+10	1	-1E+10	1
4902551	106	C	07/22/2023	10:05	-131.123	47.691	0	165.80	0	7.0330	0	33.7940	0	26.467	0	164.347	0	126.0	4	42.6	4	-1E+10	1	-1E+10	1	-1E+10	1	-1E+10	1	-1E+10	1	-1E+10	1
4902551	106	C	07/22/2023	10:05	-131.123	47.691	0	166.70	0	7.0240	0	33.7960	0	26.469	0	165.239	0	125.7	4	42.5	4	-1E+10	1	-1E+10	1	-1E+10	1	-1E+10	1	-1E+10	1	-1E+10	1
4902551	106	C	07/22/2023	10:05	-131.123	47.691	0	167.70	0	7.0250	0	33.7940	0	26.468	0	166.230	0	125.4	4	42.4	4	-1E+10	1	-1E+10	1	-1E+10	1	-1E+10	1	-1E+10	1	-1E+10	1
4902551	106	C	07/22/2023	10:05	-131.123	47.691	0	168.60	0	7.0170	0	33.7950	0	26.470	0	167.122	0	124.9	4	42.2	4	-1E+10	1	-1E+10	1	-1E+10	1	-1E+10	1	-1E+10	1	-1E+10	1
4902551	106	C	07/22/2023	10:05	-131.123	47.691	0	169.60	0	7.0040	0	33.8010	0	26.476	0	168.113	0	124.5	4	42.1	4	-1E+10	1	-1E+10	1	-1E+10	1	-1E+10	1	-1E+10	1	-1E+10	1
4902551	106	C	07/22/2023	10:05	-131.123	47.691	0	170.50	0	6.9850	0	33.8010	0	26.479	0	169.004	0	124.2	4	41.9	4	-1E+10	1	-1E+10	1	-1E+10	1	-1E+10	1	-1E+10	1	-1E+10	1
4902551	106	C	07/22/2023	10:05	-131.123	47.691	0	171.90	0	6.9680	0	33.8030	0	26.483	0	170.391	0	123.6	4	41.7	4	-1E+10	1	-1E+10	1	-1E+10	1	-1E+10	1	-1E+10	1	-1E+10	1
4902551	106	C	07/22/2023	10:05	-131.123	47.691	0	173.40	0	6.9610	0	33.8080	0	26.487	0	171.878	0	123.0	4	41.5	4	-1E+10	1	-1E+10	1	-1E+10	1	-1E+10	1	-1E+10	1	-1E+10	1
4902551	106	C	07/22/2023	10:05	-131.123	47.691	0	174.40	0	6.9540	0	33.8100	0	26.490	0	172.868	0	122.6	4	41.4	4	-1E+10	1	-1E+10	1	-1E+10	1	-1E+10	1	-1E+10	1	-1E+10	1
4902551	106	C	07/22/2023	10:05	-131.123	47.691	0	175.30	0	6.9490	0	33.8120	0	26.492	0	173.760	0	122.3	4	41.3	4	-1E+10	1	-1E+10	1	-1E+10	1	-1E+10	1	-1E+10	1	-1E+10	1
4902551	106	C	07/22/2023	10:05	-131.123	47.691	0	176.30	0	6.9470	0	33.8130	0	26.493	0	174.751	0	122.0	4	41.2	4	-1E+10	1	-1E+10	1	-1E+10	1	-1E+10	1	-1E+10	1	-1E+10	1
4902551	106	C	07/22/2023	10:05	-131.123	47.691	0	177.30	0	6.9430	0	33.8130	0	26.494	0	175.742	0	121.6	4	41.0	4	-1E+10	1	-1E+10	1	-1E+10	1	-1E+10	1	-1E+10	1	-1E+10	1
4902551	106	C	07/22/2023	10:05	-131.123	47.691	0	178.20	0	6.9360	0	33.8170	0	26.498	0	176.633	0	121.4	4	40.9	4	-1E+10	1	-1E+10	1	-1E+10	1	-1E+10	1	-1E+10	1	-1E+10	1
4902551	106	C	07/22/2023	10:05	-131.123	47.691	0	179.20	0	6.9150	0	33.8210	0	26.504	0	177.624	0	121.1	4	40.9	4	-1E+10	1	-1E+10	1	-1E+10	1	-1E+10	1	-1E+10	1	-1E+10	1
4902551	106	C	07/22/2023	10:05	-131.123	47.691	0	180.10	0	6.8880	0	33.8260	0	26.512	0	178.516	0	121.0	4	40.8	4	-1E+10	1	-1E+10	1	-1E+10	1	-1E+10	1	-1E+10	1	-1E+10	1
4902551	106	C	07/22/2023	10:05	-131.123	47.691	0	181.10	0	6.8730	0	33.8290	0	26.516	0	179.507	0	120.8	4	40.7	4	-1E+10	1	-1E+10	1	-1E+10	1	-1E+10	1	-1E+10	1	-1E+10	1
4902551	106	C	07/22/2023	10:05	-131.123	47.691	0	182.00	0	6.8630	0	33.8280	0	26.517	0	180.398	0	120.5	4	40.6	4	-1E+10	1	-1E+10	1	-1E+10	1	-1E+10	1	-1E+10	1	-1E+10	1
4902551	106	C	07/22/2023	10:05	-131.123	47.691	0	183.00	0	6.8480	0	33.8270	0	26.518	0	181.389	0	120.3	4	40.5	4	-1E+10	1	-1E+10	1	-1E+10	1	-1E+10	1	-1E+10	1	-1E+10	1
4902551	106	C	07/22/2023	10:05	-131.123	47.691	0	183.90	0	6.8480	0	33.8270	0	26.518	0	182.281	0	120.1	4	40.4	4	-1E+10	1	-1E+10	1	-1E+10	1	-1E+10	1	-1E+10	1	-1E+10	1
4902551	106	C	07/22/2023	10:05	-131.123	47.691	0	184.80	0	6.8430	0	33.8260	0	26.518	0	183.172	0	119.8	4	40.3	4	-1E+10	1	-1E+10	1	-1E+10	1	-1E+10	1	-1E+10	1	-1E+10	1
4902551	106	C	07/22/2023	10:05	-131.123	47.691	0	185.80	0	6.8300	0	33.8330	0	26.525	0	184.163	0	119.5	4	40.2	4	-1E+10	1	-1E+10	1	-1E+10	1	-1E+10	1	-1E+10	1	-1E+10	1
4902551	106	C	07/22/2023	10:05	-131.123	47.691	0	186.70	0	6.8200	0	33.8300	0	26.524	0	185.055	0	119.4	4	40.2	4	-1E+10	1	-1E+10	1	-1E+10	1	-1E+10	1	-1E+10	1	-1E+10	1
4902551	106	C	07/22/2023	10:05	-131.123	47.691	0	187.90	0	6.8110	0	33.8300	0	26.525	0	186.244	0	119.0	4	40.0	4	-1E+10	1	-1E+10	1	-1E+10	1	-1E+10	1	-1E+10	1	-1E+10	1
4902551	106	C	07/22/2023	10:05	-131.123	47.691	0	189.30	0	6.8090	0	33.8310	0	26.526	0	187.631	0	118.6	4	39.9	4	-1E+10	1	-1E+10	1	-1E+10	1	-1E+10	1	-1E+10	1	-1E+10	1
4902551	106	C	07/22/2023	10:05	-131.123	47.691	0	190.20	0	6.8080	0	33.8310	0	26.526	0	188.522	0	118.2	4	39.8	4	-1E+10	1	-1E+10	1	-1E+10	1	-1E+10	1	-1E+10	1	-1E+10	1
4902551	106	C	07/22/2023	10:05	-131.123	47.691	0	191.00	0	6.8080	0	33.8310	0	26.526	0	189.315	0	117.8	4	39.6	4	-1E+10	1	-1E+10	1	-1E+10	1	-1E+10	1	-1E+10	1	-1E+10	1
4902551	106	C	07/22/2023	10:05	-131.123	47.691	0	191.80	0	6.8070	0	33.8310	0	26.527	0	190.108	0	117.4	4	39.5	4	-1E+10	1	-1E+10	1	-1E+10	1	-1E+10	1	-1E+10	1	-1E+10	1
4902551	106	C	07/22/2023	10:05	-131.123	47.691	0	192.70	0	6.8030	0	33.8340	0	26.530	0	190.999	0	117.0	4	39.4	4	-1E+10	1	-1E+10	1	-1E+10	1	-1E+10	1	-1E+10	1	-1E+10	1
4902551	106	C	07/22/2023	10:05	-131.123	47.691	0	193.90	0	6.8000	0	33.8360	0	26.532	0	192.188	0	116.4	4	39.2	4	-1E+10	1	-1E+10	1	-1E+10	1	-1E+10	1	-1E+10	1	-1E+10	1
4902551	106	C	07/22/2023	10:05	-131.123	47.691	0	195.10	0	6.7980	0	33.8390	0	26.534	0	193.377	0	115.9	4	39.0	4	-1E+10	1	-1E+10	1	-1E+10	1	-1E+10	1	-1E+10	1	-1E+10	1
4902551	106	C	07/22/2023	10:05	-131.123	47.691	0	196.00	0	6.7830	0	33.8400	0	26.537	0	194.269	0	115.5	4	38.8	4	-1E+10	1	-1E+10	1	-1E+10	1	-1E+10	1	-1E+10	1	-1E+10	1
4902551	106	C	07/22/2023	10:05	-131.123	47.691	0	196.80	0	6.7790	0	33.8420	0	26.539	0	195.061	0	115.1	4	38.7	4	-1E+10	1	-1E+10	1	-1E+10	1	-1E+10	1	-1E+10	1	-1E+10	1
4902551	106	C	07/22/2023	10:05	-131.123	47.691	0	198.00	0	6.7750	0	33.8420	0	26.540	0	196.250	0	114.5	4	38.5	4	-1E+10	1	-1E+10	1	-1E+10	1	-1E+10	1	-1E+10	1	-1E+10	1
4902551	106	C	07/22/2023	10:05	-131.123	47.691	0	199.30	0	6.7670	0	33.8450	0	26.543	0	197.538	0	113.8	4	38.3	4	-1E+10	1	-1E+10	1	-1E+10	1	-1E+10	1	-1E+10	1	-1E+10	1
4902551	106	C	07/22/2023	10:05	-131.123	47.691	0	200.10	0	6.7640	0	33.8460	0	26.544	0	198.330	0	113.4	4	38.1	4	-1E+10	1	-1E+10	1	-1E+10	1	-1E+10	1	-1E+10	1	-1E+10	1
4902551	106	C	07/22/2023	10:05	-131.123	47.691	0	200.90	0	6.7640	0	33.8470	0	26.545	0	199.123	0	112.9	4	37.9	4	-1E+10	1	-1E+10	1	-1E+10	1	-1E+10	1	-1E+10	1	-1E+10	1
4902551	106	C	07/22/2023	10:05	-131.123	47.691	0	201.70	0	6.7630	0	33.8480	0	26.546	0	199.915	0	112.4	4	37.8	4	-1E+10	1	-1E+10	1	-1E+10	1	-1E+10	1	-1E+10	1	-1E+10	1
4902551	106	C	07/22/2023	10:05	-131.123	47.691	0	203.00	0	6.7600	0	33.8510	0	26.549	0	201.203	0	111.8	4	37.6	4	-1E+10	1	-1E+10	1	-1E+10	1	-1E+10	1	-1E+10	1	-1E+10	1
4902551	106	C	07/22/2023	10:05	-131.123	47.691	0	204.30	0	6.7540	0	33.8550	0	26.553	0	202.491	0	111.4	4	37.4	4	-1E+10	1	-1E+10	1	-1E+10	1	-1E+10	1	-1E+10	1	-1E+10	1
4902551	106	C	07/22/2023	10:05	-131.123	47.691	0	205.10	0	6.7510	0	33.8550	0	26.553	0	203.284	0	111.1	4	37.3	4	-1E+10	1	-1E+10	1	-1E+10	1	-1E+10	1	-1E+10	1	-1E+10	1
4902551	106	C	07/22/2023	10:05	-131.123	47.691	0	205.90	0	6.7470	0	33.8560	0	26.555	0	204.076	0	110.8	4	37.2	4	-1E+10	1	-1E+10	1	-1E+10	1	-1E+10	1	-1E+10	1	-1E+10	1
4902551	106	C	07/22/2023	10:05	-131.123	47.691	0	206.80	0	6.7340	0	33.8590	0	26.559	0	204.968	0	110.6	4	37.1	4	-1E+10	1	-1E+10	1	-1E+10	1	-1E+10	1	-1E+10	1	-1E+10	1
4902551	106	C	07/22/2023	10:05	-131.123	47.691	0	207.60	0	6.7290	0	33.8590	0	26.559	0	205.760	0	110.3	4	37.0	4	-1E+10	1	-1E+10	1	-1E+10	1	-1E+10	1	-1E+10	1	-1E+10	1
4902551	106	C	07/22/2023	10:05	-131.123	47.691	0	208.90	0	6.7230	0	33.8580	0	26.559	0	207.048	0	109.8	4	36.9	4	-1E+10	1	-1E+10	1	-1E+10	1	-1E+10	1	-1E+10	1	-1E+10	1
4902551	106	C	07/22/2023	10:05	-131.123	47.691	0	210.20	0	6.7140	0	33.8580	0	26.561	0	208.336	0	109.3	4	36.7	4	-1E+10	1	-1E+10	1	-1E+10	1	-1E+10	1	-1E+10	1	-1E+10	1
4902551	106	C	07/22/2023	10:05	-131.123	47.691	0	211.00	0	6.7050	0	33.8590	0	26.563	0	209.128	0	108.9	4	36.5	4	-1E+10	1	-1E+10	1	-1E+10	1	-1E+10	1	-1E+10	1	-1E+10	1
4902551	106	C	07/22/2023	10:05	-131.123	47.691	0	211.90	0	6.7000	0	33.8590	0	26.563	0	210.020	0	108.4	4	36.4	4	-1E+10	1	-1E+10	1	-1E+10	1	-1E+10	1	-1E+10	1	-1E+10	1
4902551	106	C	07/22/2023	10:05	-131.123	47.691	0	212.70	0	6.6830	0	33.8610	0	26.567	0	210.813	0	108.0	4	36.2	4	-1E+10	1	-1E+10	1	-1E+10	1	-1E+10	1	-1E+10	1	-1E+10	1
4902551	106	C	07/22/2023	10:05	-131.123	47.691	0	214.00	0	6.6660	0	33.8620	0	26.570	0	212.100	0	107.3	4	36.0	4	-1E+10	1	-1E+10	1	-1E+10	1	-1E+10	1	-1E+10	1	-1E+10	1
4902551	106	C	07/22/2023	10:05	-131.123	47.691	0	215.20	0	6.6500	0	33.8640	0	26.574	0	213.289	0	106.6	4	35.7	4	-1E+10	1	-1E+10	1	-1E+10	1	-1E+10	1	-1E+10	1	-1E+10	1
4902551	106	C	07/22/2023	10:05	-131.123	47.691	0	216.10	0	6.6410	0	33.8650	0	26.576	0	214.181	0	106.1	4	35.6	4	-1E+10	1	-1E+10	1	-1E+10	1	-1E+10	1	-1E+10	1	-1E+10	1
4902551	106	C	07/22/2023	10:05	-131.123	47.691	0	216.90	0	6.6340	0	33.8650	0	26.577	0	214.973	0	105.7	4	35.4	4	-1E+10	1	-1E+10	1	-1E+10	1	-1E+10	1	-1E+10	1	-1E+10	1
4902551	106	C	07/22/2023	10:05	-131.123	47.691	0	217.80	0	6.6320	0	33.8660	0	26.578	0	215.865	0	105.1	4	35.2	4	-1E+10	1	-1E+10	1	-1E+10	1	-1E+10	1	-1E+10	1	-1E+10	1
4902551	106	C	07/22/2023	10:05	-131.123	47.691	0	218.70	0	6.6100	0	33.8710	0	26.585	0	216.756	0	104.6	4	35.0	4	-1E+10	1	-1E+10	1	-1E+10	1	-1E+10	1	-1E+10	1	-1E+10	1
4902551	106	C	07/22/2023	10:05	-131.123	47.691	0	219.90	0	6.5890	0	33.8710	0	26.587	0	217.945	0	103.8	4	34.8	4	-1E+10	1	-1E+10	1	-1E+10	1	-1E+10	1	-1E+10	1	-1E+10	1
4902551	106	C	07/22/2023	10:05	-131.123	47.691	0	221.30	0	6.5640	0	33.8740	0	26.593	0	219.332	0	103.3	4	34.6	4	-1E+10	1	-1E+10	1	-1E+10	1	-1E+10	1	-1E+10	1	-1E+10	1
4902551	106	C	07/22/2023	10:05	-131.123	47.691	0	222.20	0	6.5540	0	33.8760	0	26.596	0	220.223	0	102.9	4	34.4	4	-1E+10	1	-1E+10	1	-1E+10	1	-1E+10	1	-1E+10	1	-1E+10	1
4902551	106	C	07/22/2023	10:05	-131.123	47.691	0	223.00	0	6.5420	0	33.8770	0	26.598	0	221.016	0	102.6	4	34.3	4	-1E+10	1	-1E+10	1	-1E+10	1	-1E+10	1	-1E+10	1	-1E+10	1
4902551	106	C	07/22/2023	10:05	-131.123	47.691	0	223.90	0	6.5380	0	33.8790	0	26.601	0	221.907	0	102.4	4	34.3	4	-1E+10	1	-1E+10	1	-1E+10	1	-1E+10	1	-1E+10	1	-1E+10	1
4902551	106	C	07/22/2023	10:05	-131.123	47.691	0	224.80	0	6.5180	0	33.8800	0	26.604	0	222.799	0	102.3	4	34.2	4	-1E+10	1	-1E+10	1	-1E+10	1	-1E+10	1	-1E+10	1	-1E+10	1
4902551	106	C	07/22/2023	10:05	-131.123	47.691	0	225.60	0	6.5070	0	33.8820	0	26.607	0	223.591	0	102.1	4	34.1	4	-1E+10	1	-1E+10	1	-1E+10	1	-1E+10	1	-1E+10	1	-1E+10	1
4902551	106	C	07/22/2023	10:05	-131.123	47.691	0	226.90	0	6.4750	0	33.8780	0	26.608	0	224.879	0	101.7	4	34.0	4	-1E+10	1	-1E+10	1	-1E+10	1	-1E+10	1	-1E+10	1	-1E+10	1
4902551	106	C	07/22/2023	10:05	-131.123	47.691	0	228.30	0	6.4580	0	33.8800	0	26.612	0	226.266	0	101.1	4	33.8	4	-1E+10	1	-1E+10	1	-1E+10	1	-1E+10	1	-1E+10	1	-1E+10	1
4902551	106	C	07/22/2023	10:05	-131.123	47.691	0	229.20	0	6.4380	0	33.8800	0	26.614	0	227.157	0	100.7	4	33.6	4	-1E+10	1	-1E+10	1	-1E+10	1	-1E+10	1	-1E+10	1	-1E+10	1
4902551	106	C	07/22/2023	10:05	-131.123	47.691	0	230.10	0	6.4010	0	33.8800	0	26.619	0	228.049	0	100.1	4	33.4	4	-1E+10	1	-1E+10	1	-1E+10	1	-1E+10	1	-1E+10	1	-1E+10	1
4902551	106	C	07/22/2023	10:05	-131.123	47.691	0	231.00	0	6.3880	0	33.8790	0	26.620	0	228.940	0	99.5	4	33.2	4	-1E+10	1	-1E+10	1	-1E+10	1	-1E+10	1	-1E+10	1	-1E+10	1
4902551	106	C	07/22/2023	10:05	-131.123	47.691	0	231.90	0	6.3440	0	33.8810	0	26.627	0	229.831	0	99.0	4	33.0	4	-1E+10	1	-1E+10	1	-1E+10	1	-1E+10	1	-1E+10	1	-1E+10	1
4902551	106	C	07/22/2023	10:05	-131.123	47.691	0	232.80	0	6.3320	0	33.8790	0	26.627	0	230.723	0	98.4	4	32.7	4	-1E+10	1	-1E+10	1	-1E+10	1	-1E+10	1	-1E+10	1	-1E+10	1
4902551	106	C	07/22/2023	10:05	-131.123	47.691	0	233.70	0	6.3430	0	33.8810	0	26.628	0	231.614	0	97.8	4	32.6	4	-1E+10	1	-1E+10	1	-1E+10	1	-1E+10	1	-1E+10	1	-1E+10	1
4902551	106	C	07/22/2023	10:05	-131.123	47.691	0	234.60	0	6.3420	0	33.8900	0	26.635	0	232.506	0	97.4	4	32.4	4	-1E+10	1	-1E+10	1	-1E+10	1	-1E+10	1	-1E+10	1	-1E+10	1
4902551	106	C	07/22/2023	10:05	-131.123	47.691	0	235.90	0	6.3090	0	33.8870	0	26.637	0	233.794	0	96.9	4	32.2	4	-1E+10	1	-1E+10	1	-1E+10	1	-1E+10	1	-1E+10	1	-1E+10	1
4902551	106	C	07/22/2023	10:05	-131.123	47.691	0	237.30	0	6.2970	0	33.8890	0	26.640	0	235.180	0	96.4	4	32.1	4	-1E+10	1	-1E+10	1	-1E+10	1	-1E+10	1	-1E+10	1	-1E+10	1
4902551	106	C	07/22/2023	10:05	-131.123	47.691	0	238.20	0	6.2960	0	33.8890	0	26.640	0	236.072	0	95.9	4	31.9	4	-1E+10	1	-1E+10	1	-1E+10	1	-1E+10	1	-1E+10	1	-1E+10	1
4902551	106	C	07/22/2023	10:05	-131.123	47.691	0	239.10	0	6.2950	0	33.8900	0	26.641	0	236.963	0	95.4	4	31.7	4	-1E+10	1	-1E+10	1	-1E+10	1	-1E+10	1	-1E+10	1	-1E+10	1
4902551	106	C	07/22/2023	10:05	-131.123	47.691	0	240.00	0	6.2930	0	33.8910	0	26.642	0	237.855	0	94.9	4	31.6	4	-1E+10	1	-1E+10	1	-1E+10	1	-1E+10	1	-1E+10	1	-1E+10	1
4902551	106	C	07/22/2023	10:05	-131.123	47.691	0	240.90	0	6.2910	0	33.8920	0	26.643	0	238.746	0	94.4	4	31.4	4	-1E+10	1	-1E+10	1	-1E+10	1	-1E+10	1	-1E+10	1	-1E+10	1
4902551	106	C	07/22/2023	10:05	-131.123	47.691	0	241.80	0	6.2900	0	33.8920	0	26.643	0	239.637	0	93.9	4	31.2	4	-1E+10	1	-1E+10	1	-1E+10	1	-1E+10	1	-1E+10	1	-1E+10	1
4902551	106	C	07/22/2023	10:05	-131.123	47.691	0	242.70	0	6.2840	0	33.8940	0	26.645	0	240.529	0	93.4	4	31.0	4	-1E+10	1	-1E+10	1	-1E+10	1	-1E+10	1	-1E+10	1	-1E+10	1
4902551	106	C	07/22/2023	10:05	-131.123	47.691	0	244.00	0	6.2760	0	33.8940	0	26.647	0	241.816	0	92.4	4	30.7	4	-1E+10	1	-1E+10	1	-1E+10	1	-1E+10	1	-1E+10	1	-1E+10	1
4902551	106	C	07/22/2023	10:05	-131.123	47.691	0	245.30	0	6.2720	0	33.8960	0	26.649	0	243.104	0	91.4	4	30.4	4	-1E+10	1	-1E+10	1	-1E+10	1	-1E+10	1	-1E+10	1	-1E+10	1
4902551	106	C	07/22/2023	10:05	-131.123	47.691	0	246.20	0	6.2720	0	33.8960	0	26.649	0	243.995	0	90.7	4	30.2	4	-1E+10	1	-1E+10	1	-1E+10	1	-1E+10	1	-1E+10	1	-1E+10	1
4902551	106	C	07/22/2023	10:05	-131.123	47.691	0	247.10	0	6.2700	0	33.8970	0	26.650	0	244.887	0	90.1	4	29.9	4	-1E+10	1	-1E+10	1	-1E+10	1	-1E+10	1	-1E+10	1	-1E+10	1
4902551	106	C	07/22/2023	10:05	-131.123	47.691	0	248.00	0	6.2660	0	33.9020	0	26.654	0	245.778	0	89.5	4	29.7	4	-1E+10	1	-1E+10	1	-1E+10	1	-1E+10	1	-1E+10	1	-1E+10	1
4902551	106	C	07/22/2023	10:05	-131.123	47.691	0	248.90	0	6.2550	0	33.9010	0	26.655	0	246.670	0	88.9	4	29.5	4	-1E+10	1	-1E+10	1	-1E+10	1	-1E+10	1	-1E+10	1	-1E+10	1
4902551	106	C	07/22/2023	10:05	-131.123	47.691	0	249.80	0	6.2510	0	33.9010	0	26.655	0	247.561	0	88.2	4	29.3	4	-1E+10	1	-1E+10	1	-1E+10	1	-1E+10	1	-1E+10	1	-1E+10	1
4902551	106	C	07/22/2023	10:05	-131.123	47.691	0	250.70	0	6.2260	0	33.9080	0	26.664	0	248.453	0	87.5	4	29.1	4	-1E+10	1	-1E+10	1	-1E+10	1	-1E+10	1	-1E+10	1	-1E+10	1
4902551	106	C	07/22/2023	10:05	-131.123	47.691	0	251.60	0	6.1930	0	33.9080	0	26.668	0	249.344	0	86.9	4	28.8	4	-1E+10	1	-1E+10	1	-1E+10	1	-1E+10	1	-1E+10	1	-1E+10	1
4902551	106	C	07/22/2023	10:05	-131.123	47.691	0	252.90	0	6.1670	0	33.9100	0	26.673	0	250.631	0	86.1	4	28.6	4	-1E+10	1	-1E+10	1	-1E+10	1	-1E+10	1	-1E+10	1	-1E+10	1
4902551	106	C	07/22/2023	10:05	-131.123	47.691	0	254.40	0	6.1560	0	33.9130	0	26.677	0	252.117	0	85.4	4	28.3	4	-1E+10	1	-1E+10	1	-1E+10	1	-1E+10	1	-1E+10	1	-1E+10	1
4902551	106	C	07/22/2023	10:05	-131.123	47.691	0	255.30	0	6.1560	0	33.9150	0	26.679	0	253.008	0	85.0	4	28.2	4	-1E+10	1	-1E+10	1	-1E+10	1	-1E+10	1	-1E+10	1	-1E+10	1
4902551	106	C	07/22/2023	10:05	-131.123	47.691	0	256.20	0	6.1510	0	33.9170	0	26.681	0	253.900	0	84.8	4	28.1	4	-1E+10	1	-1E+10	1	-1E+10	1	-1E+10	1	-1E+10	1	-1E+10	1
4902551	106	C	07/22/2023	10:05	-131.123	47.691	0	257.10	0	6.1390	0	33.9180	0	26.683	0	254.791	0	84.6	4	28.0	4	-1E+10	1	-1E+10	1	-1E+10	1	-1E+10	1	-1E+10	1	-1E+10	1
4902551	106	C	07/22/2023	10:05	-131.123	47.691	0	258.10	0	6.1280	0	33.9170	0	26.684	0	255.782	0	84.3	4	27.9	4	-1E+10	1	-1E+10	1	-1E+10	1	-1E+10	1	-1E+10	1	-1E+10	1
4902551	106	C	07/22/2023	10:05	-131.123	47.691	0	259.00	0	6.1150	0	33.9180	0	26.686	0	256.673	0	84.0	4	27.8	4	-1E+10	1	-1E+10	1	-1E+10	1	-1E+10	1	-1E+10	1	-1E+10	1
4902551	106	C	07/22/2023	10:05	-131.123	47.691	0	259.90	0	6.1170	0	33.9200	0	26.687	0	257.564	0	83.9	4	27.8	4	-1E+10	1	-1E+10	1	-1E+10	1	-1E+10	1	-1E+10	1	-1E+10	1
4902551	106	C	07/22/2023	10:05	-131.123	47.691	0	260.90	0	6.0990	0	33.9230	0	26.692	0	258.555	0	84.1	4	27.8	4	-1E+10	1	-1E+10	1	-1E+10	1	-1E+10	1	-1E+10	1	-1E+10	1
4902551	106	C	07/22/2023	10:05	-131.123	47.691	0	261.90	0	6.0860	0	33.9240	0	26.695	0	259.545	0	84.3	4	27.9	4	-1E+10	1	-1E+10	1	-1E+10	1	-1E+10	1	-1E+10	1	-1E+10	1
4902551	106	C	07/22/2023	10:05	-131.123	47.691	0	262.80	0	6.0580	0	33.9300	0	26.703	0	260.436	0	84.7	4	28.0	4	-1E+10	1	-1E+10	1	-1E+10	1	-1E+10	1	-1E+10	1	-1E+10	1
4902551	106	C	07/22/2023	10:05	-131.123	47.691	0	263.80	0	6.0320	0	33.9290	0	26.705	0	261.427	0	85.1	4	28.1	4	-1E+10	1	-1E+10	1	-1E+10	1	-1E+10	1	-1E+10	1	-1E+10	1
4902551	106	C	07/22/2023	10:05	-131.123	47.691	0	264.70	0	5.9770	0	33.9210	0	26.706	0	262.318	0	85.4	4	28.2	4	-1E+10	1	-1E+10	1	-1E+10	1	-1E+10	1	-1E+10	1	-1E+10	1
4902551	106	C	07/22/2023	10:05	-131.123	47.691	0	265.70	0	5.9480	0	33.9160	0	26.706	0	263.309	0	85.6	4	28.2	4	-1E+10	1	-1E+10	1	-1E+10	1	-1E+10	1	-1E+10	1	-1E+10	1
4902551	106	C	07/22/2023	10:05	-131.123	47.691	0	266.60	0	5.9440	0	33.9160	0	26.706	0	264.200	0	85.7	4	28.3	4	-1E+10	1	-1E+10	1	-1E+10	1	-1E+10	1	-1E+10	1	-1E+10	1
4902551	106	C	07/22/2023	10:05	-131.123	47.691	0	267.50	0	5.9500	0	33.9160	0	26.705	0	265.091	0	85.9	4	28.4	4	-1E+10	1	-1E+10	1	-1E+10	1	-1E+10	1	-1E+10	1	-1E+10	1
4902551	106	C	07/22/2023	10:05	-131.123	47.691	0	268.80	0	5.9190	0	33.9170	0	26.710	0	266.379	0	86.5	4	28.5	4	-1E+10	1	-1E+10	1	-1E+10	1	-1E+10	1	-1E+10	1	-1E+10	1
4902551	106	C	07/22/2023	10:05	-131.123	47.691	0	269.90	0	5.8560	0	33.9170	0	26.718	0	267.468	0	86.7	4	28.5	4	-1E+10	1	-1E+10	1	-1E+10	1	-1E+10	1	-1E+10	1	-1E+10	1
4902551	106	C	07/22/2023	10:05	-131.123	47.691	0	270.90	0	5.7790	0	33.9040	0	26.717	0	268.458	0	86.5	4	28.4	4	-1E+10	1	-1E+10	1	-1E+10	1	-1E+10	1	-1E+10	1	-1E+10	1
4902551	106	C	07/22/2023	10:05	-131.123	47.691	0	272.00	0	5.7650	0	33.9070	0	26.721	0	269.548	0	86.0	4	28.3	4	-1E+10	1	-1E+10	1	-1E+10	1	-1E+10	1	-1E+10	1	-1E+10	1
4902551	106	C	07/22/2023	10:05	-131.123	47.691	0	272.80	0	5.7540	0	33.9010	0	26.718	0	270.340	0	85.8	4	28.2	4	-1E+10	1	-1E+10	1	-1E+10	1	-1E+10	1	-1E+10	1	-1E+10	1
4902551	106	C	07/22/2023	10:05	-131.123	47.691	0	273.80	0	5.7370	0	33.9020	0	26.721	0	271.330	0	85.2	4	28.0	4	-1E+10	1	-1E+10	1	-1E+10	1	-1E+10	1	-1E+10	1	-1E+10	1
4902551	106	C	07/22/2023	10:05	-131.123	47.691	0	274.90	0	5.7270	0	33.9020	0	26.722	0	272.420	0	84.6	4	27.8	4	-1E+10	1	-1E+10	1	-1E+10	1	-1E+10	1	-1E+10	1	-1E+10	1
4902551	106	C	07/22/2023	10:05	-131.123	47.691	0	276.00	0	5.7220	0	33.9020	0	26.722	0	273.509	0	84.0	4	27.6	4	-1E+10	1	-1E+10	1	-1E+10	1	-1E+10	1	-1E+10	1	-1E+10	1
4902551	106	C	07/22/2023	10:05	-131.123	47.691	0	277.10	0	5.7160	0	33.9030	0	26.724	0	274.598	0	83.3	4	27.3	4	-1E+10	1	-1E+10	1	-1E+10	1	-1E+10	1	-1E+10	1	-1E+10	1
4902551	106	C	07/22/2023	10:05	-131.123	47.691	0	277.90	0	5.7080	0	33.9040	0	26.726	0	275.391	0	83.0	4	27.2	4	-1E+10	1	-1E+10	1	-1E+10	1	-1E+10	1	-1E+10	1	-1E+10	1
4902551	106	C	07/22/2023	10:05	-131.123	47.691	0	279.00	0	5.7070	0	33.9070	0	26.728	0	276.480	0	82.6	4	27.1	4	-1E+10	1	-1E+10	1	-1E+10	1	-1E+10	1	-1E+10	1	-1E+10	1
4902551	106	C	07/22/2023	10:05	-131.123	47.691	0	280.20	0	5.7180	0	33.9140	0	26.732	0	277.668	0	82.3	4	27.0	4	-1E+10	1	-1E+10	1	-1E+10	1	-1E+10	1	-1E+10	1	-1E+10	1
4902551	106	C	07/22/2023	10:05	-131.123	47.691	0	281.00	0	5.7090	0	33.9130	0	26.733	0	278.460	0	82.2	4	27.0	4	-1E+10	1	-1E+10	1	-1E+10	1	-1E+10	1	-1E+10	1	-1E+10	1
4902551	106	C	07/22/2023	10:05	-131.123	47.691	0	281.80	0	5.6930	0	33.9120	0	26.734	0	279.253	0	82.0	4	26.9	4	-1E+10	1	-1E+10	1	-1E+10	1	-1E+10	1	-1E+10	1	-1E+10	1
4902551	106	C	07/22/2023	10:05	-131.123	47.691	0	282.90	0	5.6870	0	33.9100	0	26.733	0	280.342	0	81.7	4	26.8	4	-1E+10	1	-1E+10	1	-1E+10	1	-1E+10	1	-1E+10	1	-1E+10	1
4902551	106	C	07/22/2023	10:05	-131.123	47.691	0	284.10	0	5.6880	0	33.9100	0	26.733	0	281.530	0	81.4	4	26.7	4	-1E+10	1	-1E+10	1	-1E+10	1	-1E+10	1	-1E+10	1	-1E+10	1
4902551	106	C	07/22/2023	10:05	-131.123	47.691	0	284.90	0	5.6660	0	33.9110	0	26.736	0	282.323	0	81.2	4	26.6	4	-1E+10	1	-1E+10	1	-1E+10	1	-1E+10	1	-1E+10	1	-1E+10	1
4902551	106	C	07/22/2023	10:05	-131.123	47.691	0	285.70	0	5.6380	0	33.9150	0	26.743	0	283.115	0	81.0	4	26.5	4	-1E+10	1	-1E+10	1	-1E+10	1	-1E+10	1	-1E+10	1	-1E+10	1
4902551	106	C	07/22/2023	10:05	-131.123	47.691	0	287.00	0	5.6020	0	33.9090	0	26.743	0	284.402	0	80.7	4	26.4	4	-1E+10	1	-1E+10	1	-1E+10	1	-1E+10	1	-1E+10	1	-1E+10	1
4902551	106	C	07/22/2023	10:05	-131.123	47.691	0	288.20	0	5.5910	0	33.9090	0	26.744	0	285.590	0	80.4	4	26.3	4	-1E+10	1	-1E+10	1	-1E+10	1	-1E+10	1	-1E+10	1	-1E+10	1
4902551	106	C	07/22/2023	10:05	-131.123	47.691	0	289.10	0	5.5840	0	33.9090	0	26.745	0	286.482	0	80.1	4	26.2	4	-1E+10	1	-1E+10	1	-1E+10	1	-1E+10	1	-1E+10	1	-1E+10	1
4902551	106	C	07/22/2023	10:05	-131.123	47.691	0	289.90	0	5.5630	0	33.9150	0	26.752	0	287.274	0	79.9	4	26.1	4	-1E+10	1	-1E+10	1	-1E+10	1	-1E+10	1	-1E+10	1	-1E+10	1
4902551	106	C	07/22/2023	10:05	-131.123	47.691	0	290.80	0	5.5490	0	33.9080	0	26.748	0	288.165	0	79.6	4	26.0	4	-1E+10	1	-1E+10	1	-1E+10	1	-1E+10	1	-1E+10	1	-1E+10	1
4902551	106	C	07/22/2023	10:05	-131.123	47.691	0	292.00	0	5.5340	0	33.9080	0	26.750	0	289.353	0	79.1	4	25.8	4	-1E+10	1	-1E+10	1	-1E+10	1	-1E+10	1	-1E+10	1	-1E+10	1
4902551	106	C	07/22/2023	10:05	-131.123	47.691	0	293.30	0	5.5240	0	33.9090	0	26.752	0	290.641	0	78.7	4	25.7	4	-1E+10	1	-1E+10	1	-1E+10	1	-1E+10	1	-1E+10	1	-1E+10	1
4902551	106	C	07/22/2023	10:05	-131.123	47.691	0	294.20	0	5.5260	0	33.9100	0	26.753	0	291.532	0	78.4	4	25.6	4	-1E+10	1	-1E+10	1	-1E+10	1	-1E+10	1	-1E+10	1	-1E+10	1
4902551	106	C	07/22/2023	10:05	-131.123	47.691	0	295.00	0	5.5140	0	33.9110	0	26.755	0	292.324	0	78.1	4	25.5	4	-1E+10	1	-1E+10	1	-1E+10	1	-1E+10	1	-1E+10	1	-1E+10	1
4902551	106	C	07/22/2023	10:05	-131.123	47.691	0	295.90	0	5.4780	0	33.9070	0	26.756	0	293.215	0	77.8	4	25.4	4	-1E+10	1	-1E+10	1	-1E+10	1	-1E+10	1	-1E+10	1	-1E+10	1
4902551	106	C	07/22/2023	10:05	-131.123	47.691	0	296.80	0	5.4630	0	33.9130	0	26.762	0	294.106	0	77.5	4	25.3	4	-1E+10	1	-1E+10	1	-1E+10	1	-1E+10	1	-1E+10	1	-1E+10	1
4902551	106	C	07/22/2023	10:05	-131.123	47.691	0	297.70	0	5.4500	0	33.9080	0	26.760	0	294.998	0	77.1	4	25.2	4	-1E+10	1	-1E+10	1	-1E+10	1	-1E+10	1	-1E+10	1	-1E+10	1
4902551	106	C	07/22/2023	10:05	-131.123	47.691	0	298.60	0	5.4730	0	33.9090	0	26.758	0	295.889	0	76.9	4	25.1	4	-1E+10	1	-1E+10	1	-1E+10	1	-1E+10	1	-1E+10	1	-1E+10	1
4902551	106	C	07/22/2023	10:05	-131.123	47.691	0	299.90	0	5.4800	0	33.9160	0	26.763	0	297.176	0	76.6	4	25.0	4	-1E+10	1	-1E+10	1	-1E+10	1	-1E+10	1	-1E+10	1	-1E+10	1
4902551	106	C	07/22/2023	10:05	-131.123	47.691	0	301.30	0	5.4820	0	33.9180	0	26.764	0	298.562	0	76.4	4	24.9	4	-1E+10	1	-1E+10	1	-1E+10	1	-1E+10	1	-1E+10	1	-1E+10	1
4902551	106	C	07/22/2023	10:05	-131.123	47.691	0	302.20	0	5.4650	0	33.9220	0	26.769	0	299.454	0	76.3	4	24.9	4	-1E+10	1	-1E+10	1	-1E+10	1	-1E+10	1	-1E+10	1	-1E+10	1
4902551	106	C	07/22/2023	10:05	-131.123	47.691	0	303.10	0	5.4540	0	33.9180	0	26.768	0	300.345	0	76.2	4	24.9	4	-1E+10	1	-1E+10	1	-1E+10	1	-1E+10	1	-1E+10	1	-1E+10	1
4902551	106	C	07/22/2023	10:05	-131.123	47.691	0	304.10	0	5.4500	0	33.9190	0	26.769	0	301.335	0	76.1	4	24.8	4	-1E+10	1	-1E+10	1	-1E+10	1	-1E+10	1	-1E+10	1	-1E+10	1
4902551	106	C	07/22/2023	10:05	-131.123	47.691	0	305.00	0	5.4500	0	33.9180	0	26.768	0	302.226	0	76.0	4	24.8	4	-1E+10	1	-1E+10	1	-1E+10	1	-1E+10	1	-1E+10	1	-1E+10	1
4902551	106	C	07/22/2023	10:05	-131.123	47.691	0	305.90	0	5.4490	0	33.9180	0	26.768	0	303.117	0	75.9	4	24.8	4	-1E+10	1	-1E+10	1	-1E+10	1	-1E+10	1	-1E+10	1	-1E+10	1
4902551	106	C	07/22/2023	10:05	-131.123	47.691	0	306.90	0	5.4490	0	33.9180	0	26.768	0	304.107	0	75.8	4	24.7	4	-1E+10	1	-1E+10	1	-1E+10	1	-1E+10	1	-1E+10	1	-1E+10	1
4902551	106	C	07/22/2023	10:05	-131.123	47.691	0	307.80	0	5.4340	0	33.9240	0	26.775	0	304.999	0	75.7	4	24.7	4	-1E+10	1	-1E+10	1	-1E+10	1	-1E+10	1	-1E+10	1	-1E+10	1
4902551	106	C	07/22/2023	10:05	-131.123	47.691	0	308.70	0	5.4070	0	33.9170	0	26.772	0	305.890	0	75.6	4	24.6	4	-1E+10	1	-1E+10	1	-1E+10	1	-1E+10	1	-1E+10	1	-1E+10	1
4902551	106	C	07/22/2023	10:05	-131.123	47.691	0	309.60	0	5.3950	0	33.9160	0	26.773	0	306.781	0	75.5	4	24.6	4	-1E+10	1	-1E+10	1	-1E+10	1	-1E+10	1	-1E+10	1	-1E+10	1
4902551	106	C	07/22/2023	10:05	-131.123	47.691	0	310.60	0	5.3940	0	33.9150	0	26.772	0	307.771	0	75.3	4	24.5	4	-1E+10	1	-1E+10	1	-1E+10	1	-1E+10	1	-1E+10	1	-1E+10	1
4902551	106	C	07/22/2023	10:05	-131.123	47.691	0	311.50	0	5.3890	0	33.9150	0	26.773	0	308.662	0	75.0	4	24.4	4	-1E+10	1	-1E+10	1	-1E+10	1	-1E+10	1	-1E+10	1	-1E+10	1
4902551	106	C	07/22/2023	10:05	-131.123	47.691	0	312.90	0	5.3820	0	33.9160	0	26.775	0	310.048	0	74.7	4	24.3	4	-1E+10	1	-1E+10	1	-1E+10	1	-1E+10	1	-1E+10	1	-1E+10	1
4902551	106	C	07/22/2023	10:05	-131.123	47.691	0	314.40	0	5.3690	0	33.9170	0	26.777	0	311.534	0	74.5	4	24.2	4	-1E+10	1	-1E+10	1	-1E+10	1	-1E+10	1	-1E+10	1	-1E+10	1
4902551	106	C	07/22/2023	10:05	-131.123	47.691	0	315.40	0	5.3540	0	33.9170	0	26.779	0	312.524	0	74.3	4	24.2	4	-1E+10	1	-1E+10	1	-1E+10	1	-1E+10	1	-1E+10	1	-1E+10	1
4902551	106	C	07/22/2023	10:05	-131.123	47.691	0	316.30	0	5.3380	0	33.9170	0	26.781	0	313.415	0	74.1	4	24.1	4	-1E+10	1	-1E+10	1	-1E+10	1	-1E+10	1	-1E+10	1	-1E+10	1
4902551	106	C	07/22/2023	10:05	-131.123	47.691	0	317.30	0	5.3200	0	33.9190	0	26.784	0	314.405	0	73.9	4	24.0	4	-1E+10	1	-1E+10	1	-1E+10	1	-1E+10	1	-1E+10	1	-1E+10	1
4902551	106	C	07/22/2023	10:05	-131.123	47.691	0	318.30	0	5.3180	0	33.9160	0	26.782	0	315.395	0	73.7	4	24.0	4	-1E+10	1	-1E+10	1	-1E+10	1	-1E+10	1	-1E+10	1	-1E+10	1
4902551	106	C	07/22/2023	10:05	-131.123	47.691	0	319.20	0	5.3200	0	33.9170	0	26.783	0	316.286	0	73.5	4	23.9	4	-1E+10	1	-1E+10	1	-1E+10	1	-1E+10	1	-1E+10	1	-1E+10	1
4902551	106	C	07/22/2023	10:05	-131.123	47.691	0	320.20	0	5.3200	0	33.9180	0	26.784	0	317.276	0	73.2	4	23.8	4	-1E+10	1	-1E+10	1	-1E+10	1	-1E+10	1	-1E+10	1	-1E+10	1
4902551	106	C	07/22/2023	10:05	-131.123	47.691	0	321.10	0	5.3240	0	33.9200	0	26.785	0	318.167	0	72.9	4	23.7	4	-1E+10	1	-1E+10	1	-1E+10	1	-1E+10	1	-1E+10	1	-1E+10	1
4902551	106	C	07/22/2023	10:05	-131.123	47.691	0	322.10	0	5.3310	0	33.9180	0	26.782	0	319.157	0	72.6	4	23.6	4	-1E+10	1	-1E+10	1	-1E+10	1	-1E+10	1	-1E+10	1	-1E+10	1
4902551	106	C	07/22/2023	10:05	-131.123	47.691	0	323.00	0	5.3350	0	33.9200	0	26.783	0	320.048	0	72.3	4	23.5	4	-1E+10	1	-1E+10	1	-1E+10	1	-1E+10	1	-1E+10	1	-1E+10	1
4902551	106	C	07/22/2023	10:05	-131.123	47.691	0	324.00	0	5.3320	0	33.9210	0	26.785	0	321.039	0	72.0	4	23.4	4	-1E+10	1	-1E+10	1	-1E+10	1	-1E+10	1	-1E+10	1	-1E+10	1
4902551	106	C	07/22/2023	10:05	-131.123	47.691	0	324.90	0	5.3250	0	33.9240	0	26.788	0	321.930	0	71.8	4	23.3	4	-1E+10	1	-1E+10	1	-1E+10	1	-1E+10	1	-1E+10	1	-1E+10	1
4902551	106	C	07/22/2023	10:05	-131.123	47.691	0	325.80	0	5.3250	0	33.9220	0	26.786	0	322.821	0	71.5	4	23.3	4	-1E+10	1	-1E+10	1	-1E+10	1	-1E+10	1	-1E+10	1	-1E+10	1
4902551	106	C	07/22/2023	10:05	-131.123	47.691	0	326.80	0	5.3230	0	33.9220	0	26.786	0	323.811	0	71.1	4	23.1	4	-1E+10	1	-1E+10	1	-1E+10	1	-1E+10	1	-1E+10	1	-1E+10	1
4902551	106	C	07/22/2023	10:05	-131.123	47.691	0	327.70	0	5.3330	0	33.9210	0	26.784	0	324.702	0	70.8	4	23.0	4	-1E+10	1	-1E+10	1	-1E+10	1	-1E+10	1	-1E+10	1	-1E+10	1
4902551	106	C	07/22/2023	10:05	-131.123	47.691	0	328.70	0	5.3420	0	33.9260	0	26.787	0	325.692	0	70.5	4	22.9	4	-1E+10	1	-1E+10	1	-1E+10	1	-1E+10	1	-1E+10	1	-1E+10	1
4902551	106	C	07/22/2023	10:05	-131.123	47.691	0	329.60	0	5.3550	0	33.9300	0	26.789	0	326.583	0	70.2	4	22.9	4	-1E+10	1	-1E+10	1	-1E+10	1	-1E+10	1	-1E+10	1	-1E+10	1
4902551	106	C	07/22/2023	10:05	-131.123	47.691	0	330.50	0	5.3570	0	33.9320	0	26.790	0	327.474	0	70.0	4	22.8	4	-1E+10	1	-1E+10	1	-1E+10	1	-1E+10	1	-1E+10	1	-1E+10	1
4902551	106	C	07/22/2023	10:05	-131.123	47.691	0	331.90	0	5.3480	0	33.9330	0	26.792	0	328.860	0	69.9	4	22.7	4	-1E+10	1	-1E+10	1	-1E+10	1	-1E+10	1	-1E+10	1	-1E+10	1
4902551	106	C	07/22/2023	10:05	-131.123	47.691	0	333.30	0	5.3470	0	33.9330	0	26.792	0	330.246	0	69.6	4	22.7	4	-1E+10	1	-1E+10	1	-1E+10	1	-1E+10	1	-1E+10	1	-1E+10	1
4902551	106	C	07/22/2023	10:05	-131.123	47.691	0	334.30	0	5.3470	0	33.9330	0	26.792	0	331.236	0	69.5	4	22.6	4	-1E+10	1	-1E+10	1	-1E+10	1	-1E+10	1	-1E+10	1	-1E+10	1
4902551	106	C	07/22/2023	10:05	-131.123	47.691	0	335.20	0	5.3450	0	33.9340	0	26.793	0	332.127	0	69.3	4	22.6	4	-1E+10	1	-1E+10	1	-1E+10	1	-1E+10	1	-1E+10	1	-1E+10	1
4902551	106	C	07/22/2023	10:05	-131.123	47.691	0	336.20	0	5.3360	0	33.9330	0	26.794	0	333.117	0	69.2	4	22.5	4	-1E+10	1	-1E+10	1	-1E+10	1	-1E+10	1	-1E+10	1	-1E+10	1
4902551	106	C	07/22/2023	10:05	-131.123	47.691	0	337.10	0	5.3300	0	33.9340	0	26.795	0	334.008	0	68.9	4	22.4	4	-1E+10	1	-1E+10	1	-1E+10	1	-1E+10	1	-1E+10	1	-1E+10	1
4902551	106	C	07/22/2023	10:05	-131.123	47.691	0	338.10	0	5.3280	0	33.9330	0	26.795	0	334.998	0	68.7	4	22.4	4	-1E+10	1	-1E+10	1	-1E+10	1	-1E+10	1	-1E+10	1	-1E+10	1
4902551	106	C	07/22/2023	10:05	-131.123	47.691	0	339.00	0	5.3340	0	33.9340	0	26.795	0	335.889	0	68.6	4	22.3	4	-1E+10	1	-1E+10	1	-1E+10	1	-1E+10	1	-1E+10	1	-1E+10	1
4902551	106	C	07/22/2023	10:05	-131.123	47.691	0	339.90	0	5.3290	0	33.9350	0	26.796	0	336.780	0	68.4	4	22.2	4	-1E+10	1	-1E+10	1	-1E+10	1	-1E+10	1	-1E+10	1	-1E+10	1
4902551	106	C	07/22/2023	10:05	-131.123	47.691	0	340.90	0	5.3150	0	33.9350	0	26.798	0	337.770	0	68.2	4	22.2	4	-1E+10	1	-1E+10	1	-1E+10	1	-1E+10	1	-1E+10	1	-1E+10	1
4902551	106	C	07/22/2023	10:05	-131.123	47.691	0	341.80	0	5.3180	0	33.9370	0	26.799	0	338.661	0	68.2	4	22.2	4	-1E+10	1	-1E+10	1	-1E+10	1	-1E+10	1	-1E+10	1	-1E+10	1
4902551	106	C	07/22/2023	10:05	-131.123	47.691	0	342.80	0	5.3230	0	33.9390	0	26.800	0	339.651	0	68.2	4	22.2	4	-1E+10	1	-1E+10	1	-1E+10	1	-1E+10	1	-1E+10	1	-1E+10	1
4902551	106	C	07/22/2023	10:05	-131.123	47.691	0	343.70	0	5.2830	0	33.9370	0	26.803	0	340.542	0	68.3	4	22.2	4	-1E+10	1	-1E+10	1	-1E+10	1	-1E+10	1	-1E+10	1	-1E+10	1
4902551	106	C	07/22/2023	10:05	-131.123	47.691	0	344.70	0	5.2680	0	33.9370	0	26.805	0	341.532	0	68.2	4	22.2	4	-1E+10	1	-1E+10	1	-1E+10	1	-1E+10	1	-1E+10	1	-1E+10	1
4902551	106	C	07/22/2023	10:05	-131.123	47.691	0	345.70	0	5.2650	0	33.9370	0	26.805	0	342.522	0	68.2	4	22.2	4	-1E+10	1	-1E+10	1	-1E+10	1	-1E+10	1	-1E+10	1	-1E+10	1
4902551	106	C	07/22/2023	10:05	-131.123	47.691	0	346.60	0	5.2620	0	33.9370	0	26.806	0	343.413	0	68.2	4	22.2	4	-1E+10	1	-1E+10	1	-1E+10	1	-1E+10	1	-1E+10	1	-1E+10	1
4902551	106	C	07/22/2023	10:05	-131.123	47.691	0	347.80	0	5.2590	0	33.9360	0	26.805	0	344.601	0	68.1	4	22.1	4	-1E+10	1	-1E+10	1	-1E+10	1	-1E+10	1	-1E+10	1	-1E+10	1
4902551	106	C	07/22/2023	10:05	-131.123	47.691	0	348.70	0	5.2570	0	33.9360	0	26.805	0	345.492	0	68.1	4	22.1	4	-1E+10	1	-1E+10	1	-1E+10	1	-1E+10	1	-1E+10	1	-1E+10	1
4902551	106	C	07/22/2023	10:05	-131.123	47.691	0	349.50	0	5.2560	0	33.9360	0	26.806	0	346.284	0	68.1	4	22.1	4	-1E+10	1	-1E+10	1	-1E+10	1	-1E+10	1	-1E+10	1	-1E+10	1
4902551	106	C	07/22/2023	10:05	-131.123	47.691	0	352.90	0	5.2460	0	33.9350	0	26.806	0	349.650	0	67.7	4	22.0	4	-1E+10	1	-1E+10	1	-1E+10	1	-1E+10	1	-1E+10	1	-1E+10	1
4902551	106	C	07/22/2023	10:05	-131.123	47.691	0	358.20	0	5.2190	0	33.9340	0	26.808	0	354.897	0	67.0	4	21.7	4	-1E+10	1	-1E+10	1	-1E+10	1	-1E+10	1	-1E+10	1	-1E+10	1
4902551	106	C	07/22/2023	10:05	-131.123	47.691	0	363.10	0	5.1600	0	33.9330	0	26.814	0	359.747	0	65.7	4	21.3	4	-1E+10	1	-1E+10	1	-1E+10	1	-1E+10	1	-1E+10	1	-1E+10	1
4902551	106	C	07/22/2023	10:05	-131.123	47.691	0	367.80	0	5.1240	0	33.9350	0	26.820	0	364.400	0	64.1	4	20.8	4	-1E+10	1	-1E+10	1	-1E+10	1	-1E+10	1	-1E+10	1	-1E+10	1
4902551	106	C	07/22/2023	10:05	-131.123	47.691	0	372.60	0	5.0860	0	33.9400	0	26.829	0	369.151	0	62.2	4	20.1	4	-1E+10	1	-1E+10	1	-1E+10	1	-1E+10	1	-1E+10	1	-1E+10	1
4902551	106	C	07/22/2023	10:05	-131.123	47.691	0	378.00	0	5.0900	0	33.9470	0	26.834	0	374.496	0	60.1	4	19.4	4	-1E+10	1	-1E+10	1	-1E+10	1	-1E+10	1	-1E+10	1	-1E+10	1
4902551	106	C	07/22/2023	10:05	-131.123	47.691	0	383.30	0	5.0830	0	33.9540	0	26.840	0	379.742	0	57.7	4	18.7	4	-1E+10	1	-1E+10	1	-1E+10	1	-1E+10	1	-1E+10	1	-1E+10	1
4902551	106	C	07/22/2023	10:05	-131.123	47.691	0	388.20	0	5.0580	0	33.9630	0	26.850	0	384.592	0	55.8	4	18.0	4	-1E+10	1	-1E+10	1	-1E+10	1	-1E+10	1	-1E+10	1	-1E+10	1
4902551	106	C	07/22/2023	10:05	-131.123	47.691	0	393.10	0	5.0440	0	33.9720	0	26.859	0	389.442	0	54.3	4	17.6	4	-1E+10	1	-1E+10	1	-1E+10	1	-1E+10	1	-1E+10	1	-1E+10	1
4902551	106	C	07/22/2023	10:05	-131.123	47.691	0	398.00	0	5.0230	0	33.9740	0	26.863	0	394.292	0	52.6	4	17.0	4	-1E+10	1	-1E+10	1	-1E+10	1	-1E+10	1	-1E+10	1	-1E+10	1
4902551	106	C	07/22/2023	10:05	-131.123	47.691	0	402.60	0	5.0040	0	33.9770	0	26.867	0	398.845	0	50.2	4	16.2	4	-1E+10	1	-1E+10	1	-1E+10	1	-1E+10	1	-1E+10	1	-1E+10	1
4902551	106	C	07/22/2023	10:05	-131.123	47.691	0	407.90	0	5.0450	0	33.9930	0	26.876	0	404.090	0	47.1	4	15.2	4	-1E+10	1	-1E+10	1	-1E+10	1	-1E+10	1	-1E+10	1	-1E+10	1
4902551	106	C	07/22/2023	10:05	-131.123	47.691	0	413.00	0	5.0590	0	34.0050	0	26.884	0	409.137	0	45.5	4	14.7	4	-1E+10	1	-1E+10	1	-1E+10	1	-1E+10	1	-1E+10	1	-1E+10	1
4902551	106	C	07/22/2023	10:05	-131.123	47.691	0	417.60	0	5.0330	0	34.0100	0	26.890	0	413.690	0	44.2	4	14.3	4	-1E+10	1	-1E+10	1	-1E+10	1	-1E+10	1	-1E+10	1	-1E+10	1
4902551	106	C	07/22/2023	10:05	-131.123	47.691	0	422.80	0	5.0190	0	34.0180	0	26.898	0	418.836	0	43.3	4	14.0	4	-1E+10	1	-1E+10	1	-1E+10	1	-1E+10	1	-1E+10	1	-1E+10	1
4902551	106	C	07/22/2023	10:05	-131.123	47.691	0	427.80	0	4.9950	0	34.0190	0	26.902	0	423.784	0	42.6	4	13.8	4	-1E+10	1	-1E+10	1	-1E+10	1	-1E+10	1	-1E+10	1	-1E+10	1
4902551	106	C	07/22/2023	10:05	-131.123	47.691	0	432.80	0	4.9520	0	34.0210	0	26.909	0	428.732	0	41.6	4	13.4	4	-1E+10	1	-1E+10	1	-1E+10	1	-1E+10	1	-1E+10	1	-1E+10	1
4902551	106	C	07/22/2023	10:05	-131.123	47.691	0	437.80	0	4.9500	0	34.0290	0	26.915	0	433.679	0	40.8	4	13.2	4	-1E+10	1	-1E+10	1	-1E+10	1	-1E+10	1	-1E+10	1	-1E+10	1
4902551	106	C	07/22/2023	10:05	-131.123	47.691	0	442.70	0	4.9130	0	34.0290	0	26.919	0	438.528	0	40.4	4	13.0	4	-1E+10	1	-1E+10	1	-1E+10	1	-1E+10	1	-1E+10	1	-1E+10	1
4902551	106	C	07/22/2023	10:05	-131.123	47.691	0	448.10	0	4.8830	0	34.0310	0	26.924	0	443.872	0	39.1	4	12.6	4	-1E+10	1	-1E+10	1	-1E+10	1	-1E+10	1	-1E+10	1	-1E+10	1
4902551	106	C	07/22/2023	10:05	-131.123	47.691	0	453.20	0	4.8880	0	34.0380	0	26.929	0	448.918	0	38.3	4	12.3	4	-1E+10	1	-1E+10	1	-1E+10	1	-1E+10	1	-1E+10	1	-1E+10	1
4902551	106	C	07/22/2023	10:05	-131.123	47.691	0	457.70	0	4.8490	0	34.0380	0	26.934	0	453.370	0	37.5	4	12.1	4	-1E+10	1	-1E+10	1	-1E+10	1	-1E+10	1	-1E+10	1	-1E+10	1
4902551	106	C	07/22/2023	10:05	-131.123	47.691	0	462.80	0	4.7970	0	34.0450	0	26.945	0	458.417	0	36.1	4	11.6	4	-1E+10	1	-1E+10	1	-1E+10	1	-1E+10	1	-1E+10	1	-1E+10	1
4902551	106	C	07/22/2023	10:05	-131.123	47.691	0	467.80	0	4.7670	0	34.0520	0	26.954	0	463.364	0	35.4	4	11.4	4	-1E+10	1	-1E+10	1	-1E+10	1	-1E+10	1	-1E+10	1	-1E+10	1
4902551	106	C	07/22/2023	10:05	-131.123	47.691	0	473.00	0	4.6920	0	34.0510	0	26.962	0	468.508	0	35.1	4	11.2	4	-1E+10	1	-1E+10	1	-1E+10	1	-1E+10	1	-1E+10	1	-1E+10	1
4902551	106	C	07/22/2023	10:05	-131.123	47.691	0	478.10	0	4.6530	0	34.0520	0	26.967	0	473.554	0	33.8	4	10.8	4	-1E+10	1	-1E+10	1	-1E+10	1	-1E+10	1	-1E+10	1	-1E+10	1
4902551	106	C	07/22/2023	10:05	-131.123	47.691	0	482.80	0	4.6810	0	34.0620	0	26.972	0	478.204	0	32.7	4	10.5	4	-1E+10	1	-1E+10	1	-1E+10	1	-1E+10	1	-1E+10	1	-1E+10	1
4902551	106	C	07/22/2023	10:05	-131.123	47.691	0	487.70	0	4.6570	0	34.0670	0	26.978	0	483.052	0	32.0	4	10.3	4	-1E+10	1	-1E+10	1	-1E+10	1	-1E+10	1	-1E+10	1	-1E+10	1
4902551	106	C	07/22/2023	10:05	-131.123	47.691	0	492.50	0	4.6110	0	34.0690	0	26.985	0	487.800	0	31.2	4	10.0	4	-1E+10	1	-1E+10	1	-1E+10	1	-1E+10	1	-1E+10	1	-1E+10	1
4902551	106	C	07/22/2023	10:05	-131.123	47.691	0	497.80	0	4.5900	0	34.0720	0	26.990	0	493.044	0	30.4	4	9.7	4	-1E+10	1	-1E+10	1	-1E+10	1	-1E+10	1	-1E+10	1	-1E+10	1
4902551	106	C	07/22/2023	10:05	-131.123	47.691	0	503.20	0	4.5750	0	34.0770	0	26.995	0	498.385	0	29.4	4	9.4	4	-1E+10	1	-1E+10	1	-1E+10	1	-1E+10	1	-1E+10	1	-1E+10	1
4902551	106	C	07/22/2023	10:05	-131.123	47.691	0	508.10	0	4.5600	0	34.0820	0	27.001	0	503.233	0	28.4	4	9.1	4	-1E+10	1	-1E+10	1	-1E+10	1	-1E+10	1	-1E+10	1	-1E+10	1
4902551	106	C	07/22/2023	10:05	-131.123	47.691	0	513.00	0	4.5320	0	34.0890	0	27.010	0	508.080	0	27.7	4	8.8	4	-1E+10	1	-1E+10	1	-1E+10	1	-1E+10	1	-1E+10	1	-1E+10	1
4902551	106	C	07/22/2023	10:05	-131.123	47.691	0	518.00	0	4.5070	0	34.0940	0	27.016	0	513.026	0	27.1	4	8.6	4	-1E+10	1	-1E+10	1	-1E+10	1	-1E+10	1	-1E+10	1	-1E+10	1
4902551	106	C	07/22/2023	10:05	-131.123	47.691	0	523.20	0	4.4920	0	34.0970	0	27.020	0	518.169	0	26.5	4	8.5	4	-1E+10	1	-1E+10	1	-1E+10	1	-1E+10	1	-1E+10	1	-1E+10	1
4902551	106	C	07/22/2023	10:05	-131.123	47.691	0	527.90	0	4.4720	0	34.1010	0	27.026	0	522.818	0	26.1	4	8.3	4	-1E+10	1	-1E+10	1	-1E+10	1	-1E+10	1	-1E+10	1	-1E+10	1
4902551	106	C	07/22/2023	10:05	-131.123	47.691	0	532.70	0	4.4430	0	34.1030	0	27.030	0	527.566	0	25.7	4	8.2	4	-1E+10	1	-1E+10	1	-1E+10	1	-1E+10	1	-1E+10	1	-1E+10	1
4902551	106	C	07/22/2023	10:05	-131.123	47.691	0	537.90	0	4.4400	0	34.1070	0	27.034	0	532.709	0	25.4	4	8.1	4	-1E+10	1	-1E+10	1	-1E+10	1	-1E+10	1	-1E+10	1	-1E+10	1
4902551	106	C	07/22/2023	10:05	-131.123	47.691	0	543.20	0	4.3990	0	34.1080	0	27.039	0	537.951	0	25.1	4	8.0	4	-1E+10	1	-1E+10	1	-1E+10	1	-1E+10	1	-1E+10	1	-1E+10	1
4902551	106	C	07/22/2023	10:05	-131.123	47.691	0	547.90	0	4.3670	0	34.1100	0	27.044	0	542.600	0	24.5	4	7.8	4	-1E+10	1	-1E+10	1	-1E+10	1	-1E+10	1	-1E+10	1	-1E+10	1
4902551	106	C	07/22/2023	10:05	-131.123	47.691	0	552.70	0	4.3300	0	34.1140	0	27.051	0	547.347	0	24.1	4	7.7	4	-1E+10	1	-1E+10	1	-1E+10	1	-1E+10	1	-1E+10	1	-1E+10	1
4902551	106	C	07/22/2023	10:05	-131.123	47.691	0	557.70	0	4.3250	0	34.1180	0	27.055	0	552.292	0	23.7	4	7.5	4	-1E+10	1	-1E+10	1	-1E+10	1	-1E+10	1	-1E+10	1	-1E+10	1
4902551	106	C	07/22/2023	10:05	-131.123	47.691	0	562.90	0	4.3080	0	34.1190	0	27.058	0	557.434	0	23.2	4	7.4	4	-1E+10	1	-1E+10	1	-1E+10	1	-1E+10	1	-1E+10	1	-1E+10	1
4902551	106	C	07/22/2023	10:05	-131.123	47.691	0	568.10	0	4.2940	0	34.1220	0	27.062	0	562.577	0	22.5	4	7.1	4	-1E+10	1	-1E+10	1	-1E+10	1	-1E+10	1	-1E+10	1	-1E+10	1
4902551	106	C	07/22/2023	10:05	-131.123	47.691	0	573.10	0	4.2740	0	34.1280	0	27.069	0	567.521	0	21.8	4	6.9	4	-1E+10	1	-1E+10	1	-1E+10	1	-1E+10	1	-1E+10	1	-1E+10	1
4902551	106	C	07/22/2023	10:05	-131.123	47.691	0	578.20	0	4.2640	0	34.1340	0	27.074	0	572.565	0	21.2	4	6.7	4	-1E+10	1	-1E+10	1	-1E+10	1	-1E+10	1	-1E+10	1	-1E+10	1
4902551	106	C	07/22/2023	10:05	-131.123	47.691	0	582.80	0	4.2660	0	34.1390	0	27.078	0	577.113	0	20.9	4	6.6	4	-1E+10	1	-1E+10	1	-1E+10	1	-1E+10	1	-1E+10	1	-1E+10	1
4902551	106	C	07/22/2023	10:05	-131.123	47.691	0	587.60	0	4.2650	0	34.1390	0	27.078	0	581.860	0	20.5	4	6.5	4	-1E+10	1	-1E+10	1	-1E+10	1	-1E+10	1	-1E+10	1	-1E+10	1
4902551	106	C	07/22/2023	10:05	-131.123	47.691	0	593.00	0	4.2470	0	34.1420	0	27.083	0	587.200	0	20.0	4	6.3	4	-1E+10	1	-1E+10	1	-1E+10	1	-1E+10	1	-1E+10	1	-1E+10	1
4902551	106	C	07/22/2023	10:05	-131.123	47.691	0	597.80	0	4.2330	0	34.1440	0	27.086	0	591.946	0	19.2	4	6.1	4	-1E+10	1	-1E+10	1	-1E+10	1	-1E+10	1	-1E+10	1	-1E+10	1
4902551	106	C	07/22/2023	10:05	-131.123	47.691	0	602.80	0	4.2440	0	34.1530	0	27.092	0	596.890	0	18.3	4	5.8	4	-1E+10	1	-1E+10	1	-1E+10	1	-1E+10	1	-1E+10	1	-1E+10	1
4902551	106	C	07/22/2023	10:05	-131.123	47.691	0	607.90	0	4.2600	0	34.1610	0	27.096	0	601.932	0	17.8	4	5.6	4	-1E+10	1	-1E+10	1	-1E+10	1	-1E+10	1	-1E+10	1	-1E+10	1
4902551	106	C	07/22/2023	10:05	-131.123	47.691	0	613.10	0	4.2740	0	34.1680	0	27.101	0	607.074	0	17.6	4	5.6	4	-1E+10	1	-1E+10	1	-1E+10	1	-1E+10	1	-1E+10	1	-1E+10	1
4902551	106	C	07/22/2023	10:05	-131.123	47.691	0	618.30	0	4.2420	0	34.1700	0	27.106	0	612.215	0	17.7	4	5.6	4	-1E+10	1	-1E+10	1	-1E+10	1	-1E+10	1	-1E+10	1	-1E+10	1
4902551	106	C	07/22/2023	10:05	-131.123	47.691	0	623.00	0	4.2240	0	34.1690	0	27.107	0	616.862	0	17.7	4	5.6	4	-1E+10	1	-1E+10	1	-1E+10	1	-1E+10	1	-1E+10	1	-1E+10	1
4902551	106	C	07/22/2023	10:05	-131.123	47.691	0	627.80	0	4.2050	0	34.1690	0	27.109	0	621.607	0	17.7	4	5.6	4	-1E+10	1	-1E+10	1	-1E+10	1	-1E+10	1	-1E+10	1	-1E+10	1
4902551	106	C	07/22/2023	10:05	-131.123	47.691	0	632.50	0	4.1750	0	34.1690	0	27.112	0	626.254	0	17.6	4	5.6	4	-1E+10	1	-1E+10	1	-1E+10	1	-1E+10	1	-1E+10	1	-1E+10	1
4902551	106	C	07/22/2023	10:05	-131.123	47.691	0	637.90	0	4.1600	0	34.1720	0	27.116	0	631.592	0	17.2	4	5.5	4	-1E+10	1	-1E+10	1	-1E+10	1	-1E+10	1	-1E+10	1	-1E+10	1
4902551	106	C	07/22/2023	10:05	-131.123	47.691	0	643.20	0	4.1560	0	34.1760	0	27.120	0	636.832	0	17.0	4	5.4	4	-1E+10	1	-1E+10	1	-1E+10	1	-1E+10	1	-1E+10	1	-1E+10	1
4902551	106	C	07/22/2023	10:05	-131.123	47.691	0	648.10	0	4.1320	0	34.1800	0	27.125	0	641.676	0	16.9	4	5.4	4	-1E+10	1	-1E+10	1	-1E+10	1	-1E+10	1	-1E+10	1	-1E+10	1
4902551	106	C	07/22/2023	10:05	-131.123	47.691	0	653.00	0	4.1340	0	34.1820	0	27.127	0	646.520	0	16.9	4	5.3	4	-1E+10	1	-1E+10	1	-1E+10	1	-1E+10	1	-1E+10	1	-1E+10	1
4902551	106	C	07/22/2023	10:05	-131.123	47.691	0	657.80	0	4.1240	0	34.1840	0	27.129	0	651.264	0	17.1	4	5.4	4	-1E+10	1	-1E+10	1	-1E+10	1	-1E+10	1	-1E+10	1	-1E+10	1
4902551	106	C	07/22/2023	10:05	-131.123	47.691	0	662.50	0	4.0840	0	34.1840	0	27.133	0	655.910	0	17.4	4	5.5	4	-1E+10	1	-1E+10	1	-1E+10	1	-1E+10	1	-1E+10	1	-1E+10	1
4902551	106	C	07/22/2023	10:05	-131.123	47.691	0	667.80	0	4.0480	0	34.1830	0	27.136	0	661.149	0	17.7	4	5.6	4	-1E+10	1	-1E+10	1	-1E+10	1	-1E+10	1	-1E+10	1	-1E+10	1
4902551	106	C	07/22/2023	10:05	-131.123	47.691	0	673.00	0	4.0070	0	34.1810	0	27.139	0	666.289	0	17.8	4	5.6	4	-1E+10	1	-1E+10	1	-1E+10	1	-1E+10	1	-1E+10	1	-1E+10	1
4902551	106	C	07/22/2023	10:05	-131.123	47.691	0	677.70	0	4.0110	0	34.1840	0	27.141	0	670.935	0	17.9	4	5.7	4	-1E+10	1	-1E+10	1	-1E+10	1	-1E+10	1	-1E+10	1	-1E+10	1
4902551	106	C	07/22/2023	10:05	-131.123	47.691	0	682.90	0	3.9950	0	34.1860	0	27.144	0	676.074	0	18.3	4	5.8	4	-1E+10	1	-1E+10	1	-1E+10	1	-1E+10	1	-1E+10	1	-1E+10	1
4902551	106	C	07/22/2023	10:05	-131.123	47.691	0	688.10	0	3.9690	0	34.1860	0	27.147	0	681.214	0	18.8	4	5.9	4	-1E+10	1	-1E+10	1	-1E+10	1	-1E+10	1	-1E+10	1	-1E+10	1
4902551	106	C	07/22/2023	10:05	-131.123	47.691	0	692.70	0	3.9210	0	34.1840	0	27.150	0	685.760	0	19.2	4	6.1	4	-1E+10	1	-1E+10	1	-1E+10	1	-1E+10	1	-1E+10	1	-1E+10	1
4902551	106	C	07/22/2023	10:05	-131.123	47.691	0	697.80	0	3.8940	0	34.1850	0	27.154	0	690.801	0	19.5	4	6.1	4	-1E+10	1	-1E+10	1	-1E+10	1	-1E+10	1	-1E+10	1	-1E+10	1
4902551	106	C	07/22/2023	10:05	-131.123	47.691	0	702.80	0	3.8580	0	34.1860	0	27.158	0	695.742	0	19.7	4	6.2	4	-1E+10	1	-1E+10	1	-1E+10	1	-1E+10	1	-1E+10	1	-1E+10	1
4902551	106	C	07/22/2023	10:05	-131.123	47.691	0	707.80	0	3.8380	0	34.1870	0	27.161	0	700.684	0	19.6	4	6.2	4	-1E+10	1	-1E+10	1	-1E+10	1	-1E+10	1	-1E+10	1	-1E+10	1
4902551	106	C	07/22/2023	10:05	-131.123	47.691	0	713.20	0	3.8210	0	34.1890	0	27.164	0	706.020	0	19.4	4	6.1	4	-1E+10	1	-1E+10	1	-1E+10	1	-1E+10	1	-1E+10	1	-1E+10	1
4902551	106	C	07/22/2023	10:05	-131.123	47.691	0	718.10	0	3.8030	0	34.1920	0	27.169	0	710.862	0	19.0	4	6.0	4	-1E+10	1	-1E+10	1	-1E+10	1	-1E+10	1	-1E+10	1	-1E+10	1
4902551	106	C	07/22/2023	10:05	-131.123	47.691	0	722.70	0	3.7780	0	34.1980	0	27.176	0	715.408	0	18.5	4	5.8	4	-1E+10	1	-1E+10	1	-1E+10	1	-1E+10	1	-1E+10	1	-1E+10	1
4902551	106	C	07/22/2023	10:05	-131.123	47.691	0	727.80	0	3.7600	0	34.2040	0	27.183	0	720.448	0	18.0	4	5.7	4	-1E+10	1	-1E+10	1	-1E+10	1	-1E+10	1	-1E+10	1	-1E+10	1
4902551	106	C	07/22/2023	10:05	-131.123	47.691	0	732.90	0	3.7480	0	34.2080	0	27.187	0	725.488	0	17.6	4	5.5	4	-1E+10	1	-1E+10	1	-1E+10	1	-1E+10	1	-1E+10	1	-1E+10	1
4902551	106	C	07/22/2023	10:05	-131.123	47.691	0	738.10	0	3.7460	0	34.2100	0	27.189	0	730.626	0	17.1	4	5.4	4	-1E+10	1	-1E+10	1	-1E+10	1	-1E+10	1	-1E+10	1	-1E+10	1
4902551	106	C	07/22/2023	10:05	-131.123	47.691	0	743.10	0	3.7390	0	34.2150	0	27.193	0	735.566	0	16.7	4	5.2	4	-1E+10	1	-1E+10	1	-1E+10	1	-1E+10	1	-1E+10	1	-1E+10	1
4902551	106	C	07/22/2023	10:05	-131.123	47.691	0	748.10	0	3.7190	0	34.2190	0	27.199	0	740.507	0	16.4	4	5.1	4	-1E+10	1	-1E+10	1	-1E+10	1	-1E+10	1	-1E+10	1	-1E+10	1
4902551	106	C	07/22/2023	10:05	-131.123	47.691	0	752.80	0	3.7110	0	34.2230	0	27.203	0	745.151	0	16.0	4	5.0	4	-1E+10	1	-1E+10	1	-1E+10	1	-1E+10	1	-1E+10	1	-1E+10	1
4902551	106	C	07/22/2023	10:05	-131.123	47.691	0	757.80	0	3.7010	0	34.2270	0	27.207	0	750.091	0	15.6	4	4.9	4	-1E+10	1	-1E+10	1	-1E+10	1	-1E+10	1	-1E+10	1	-1E+10	1
4902551	106	C	07/22/2023	10:05	-131.123	47.691	0	762.90	0	3.6760	0	34.2340	0	27.215	0	755.130	0	15.3	4	4.8	4	-1E+10	1	-1E+10	1	-1E+10	1	-1E+10	1	-1E+10	1	-1E+10	1
4902551	106	C	07/22/2023	10:05	-131.123	47.691	0	767.70	0	3.6700	0	34.2360	0	27.217	0	759.872	0	15.0	4	4.7	4	-1E+10	1	-1E+10	1	-1E+10	1	-1E+10	1	-1E+10	1	-1E+10	1
4902551	106	C	07/22/2023	10:05	-131.123	47.691	0	772.90	0	3.6630	0	34.2400	0	27.221	0	765.010	0	14.7	4	4.6	4	-1E+10	1	-1E+10	1	-1E+10	1	-1E+10	1	-1E+10	1	-1E+10	1
4902551	106	C	07/22/2023	10:05	-131.123	47.691	0	778.10	0	3.6600	0	34.2420	0	27.223	0	770.147	0	14.4	4	4.5	4	-1E+10	1	-1E+10	1	-1E+10	1	-1E+10	1	-1E+10	1	-1E+10	1
4902551	106	C	07/22/2023	10:05	-131.123	47.691	0	783.00	0	3.6460	0	34.2490	0	27.230	0	774.988	0	14.1	4	4.4	4	-1E+10	1	-1E+10	1	-1E+10	1	-1E+10	1	-1E+10	1	-1E+10	1
4902551	106	C	07/22/2023	10:05	-131.123	47.691	0	788.10	0	3.6360	0	34.2520	0	27.233	0	780.026	0	14.0	4	4.4	4	-1E+10	1	-1E+10	1	-1E+10	1	-1E+10	1	-1E+10	1	-1E+10	1
4902551	106	C	07/22/2023	10:05	-131.123	47.691	0	792.80	0	3.6230	0	34.2550	0	27.237	0	784.669	0	13.8	4	4.3	4	-1E+10	1	-1E+10	1	-1E+10	1	-1E+10	1	-1E+10	1	-1E+10	1
4902551	106	C	07/22/2023	10:05	-131.123	47.691	0	797.70	0	3.6120	0	34.2590	0	27.241	0	789.510	0	13.6	4	4.3	4	-1E+10	1	-1E+10	1	-1E+10	1	-1E+10	1	-1E+10	1	-1E+10	1
4902551	106	C	07/22/2023	10:05	-131.123	47.691	0	802.70	0	3.6000	0	34.2610	0	27.244	0	794.449	0	13.5	4	4.2	4	-1E+10	1	-1E+10	1	-1E+10	1	-1E+10	1	-1E+10	1	-1E+10	1
4902551	106	C	07/22/2023	10:05	-131.123	47.691	0	807.90	0	3.5870	0	34.2640	0	27.248	0	799.586	0	13.3	4	4.2	4	-1E+10	1	-1E+10	1	-1E+10	1	-1E+10	1	-1E+10	1	-1E+10	1
4902551	106	C	07/22/2023	10:05	-131.123	47.691	0	813.20	0	3.5800	0	34.2660	0	27.250	0	804.821	0	13.1	4	4.1	4	-1E+10	1	-1E+10	1	-1E+10	1	-1E+10	1	-1E+10	1	-1E+10	1
4902551	106	C	07/22/2023	10:05	-131.123	47.691	0	818.10	0	3.5670	0	34.2710	0	27.255	0	809.661	0	12.9	4	4.0	4	-1E+10	1	-1E+10	1	-1E+10	1	-1E+10	1	-1E+10	1	-1E+10	1
4902551	106	C	07/22/2023	10:05	-131.123	47.691	0	823.00	0	3.5570	0	34.2750	0	27.260	0	814.501	0	12.8	4	4.0	4	-1E+10	1	-1E+10	1	-1E+10	1	-1E+10	1	-1E+10	1	-1E+10	1
4902551	106	C	07/22/2023	10:05	-131.123	47.691	0	828.00	0	3.5460	0	34.2780	0	27.263	0	819.439	0	12.6	4	3.9	4	-1E+10	1	-1E+10	1	-1E+10	1	-1E+10	1	-1E+10	1	-1E+10	1
4902551	106	C	07/22/2023	10:05	-131.123	47.691	0	833.20	0	3.5330	0	34.2820	0	27.268	0	824.575	0	12.5	4	3.9	4	-1E+10	1	-1E+10	1	-1E+10	1	-1E+10	1	-1E+10	1	-1E+10	1
4902551	106	C	07/22/2023	10:05	-131.123	47.691	0	838.00	0	3.5230	0	34.2850	0	27.271	0	829.316	0	12.3	4	3.9	4	-1E+10	1	-1E+10	1	-1E+10	1	-1E+10	1	-1E+10	1	-1E+10	1
4902551	106	C	07/22/2023	10:05	-131.123	47.691	0	843.10	0	3.5180	0	34.2870	0	27.273	0	834.353	0	12.2	4	3.8	4	-1E+10	1	-1E+10	1	-1E+10	1	-1E+10	1	-1E+10	1	-1E+10	1
4902551	106	C	07/22/2023	10:05	-131.123	47.691	0	847.80	0	3.5090	0	34.2910	0	27.277	0	838.995	0	12.1	4	3.8	4	-1E+10	1	-1E+10	1	-1E+10	1	-1E+10	1	-1E+10	1	-1E+10	1
4902551	106	C	07/22/2023	10:05	-131.123	47.691	0	852.70	0	3.5070	0	34.2920	0	27.278	0	843.834	0	12.0	4	3.8	4	-1E+10	1	-1E+10	1	-1E+10	1	-1E+10	1	-1E+10	1	-1E+10	1
4902551	106	C	07/22/2023	10:05	-131.123	47.691	0	857.80	0	3.5030	0	34.2930	0	27.279	0	848.871	0	11.9	4	3.7	4	-1E+10	1	-1E+10	1	-1E+10	1	-1E+10	1	-1E+10	1	-1E+10	1
4902551	106	C	07/22/2023	10:05	-131.123	47.691	0	862.90	0	3.4930	0	34.2970	0	27.284	0	853.907	0	11.9	4	3.7	4	-1E+10	1	-1E+10	1	-1E+10	1	-1E+10	1	-1E+10	1	-1E+10	1
4902551	106	C	07/22/2023	10:05	-131.123	47.691	0	868.10	0	3.4880	0	34.2980	0	27.285	0	859.042	0	11.8	4	3.7	4	-1E+10	1	-1E+10	1	-1E+10	1	-1E+10	1	-1E+10	1	-1E+10	1
4902551	106	C	07/22/2023	10:05	-131.123	47.691	0	872.90	0	3.4850	0	34.2990	0	27.286	0	863.782	0	11.7	4	3.7	4	-1E+10	1	-1E+10	1	-1E+10	1	-1E+10	1	-1E+10	1	-1E+10	1
4902551	106	C	07/22/2023	10:05	-131.123	47.691	0	877.70	0	3.4800	0	34.3010	0	27.288	0	868.522	0	11.6	4	3.6	4	-1E+10	1	-1E+10	1	-1E+10	1	-1E+10	1	-1E+10	1	-1E+10	1
4902551	106	C	07/22/2023	10:05	-131.123	47.691	0	883.00	0	3.4740	0	34.3040	0	27.291	0	873.756	0	11.5	4	3.6	4	-1E+10	1	-1E+10	1	-1E+10	1	-1E+10	1	-1E+10	1	-1E+10	1
4902551	106	C	07/22/2023	10:05	-131.123	47.691	0	888.20	0	3.4720	0	34.3060	0	27.293	0	878.890	0	11.4	4	3.6	4	-1E+10	1	-1E+10	1	-1E+10	1	-1E+10	1	-1E+10	1	-1E+10	1
4902551	106	C	07/22/2023	10:05	-131.123	47.691	0	893.10	0	3.4690	0	34.3080	0	27.295	0	883.729	0	11.3	4	3.5	4	-1E+10	1	-1E+10	1	-1E+10	1	-1E+10	1	-1E+10	1	-1E+10	1
4902551	106	C	07/22/2023	10:05	-131.123	47.691	0	898.00	0	3.4650	0	34.3100	0	27.297	0	888.567	0	11.2	4	3.5	4	-1E+10	1	-1E+10	1	-1E+10	1	-1E+10	1	-1E+10	1	-1E+10	1
4902551	106	C	07/22/2023	10:05	-131.123	47.691	0	902.80	0	3.4540	0	34.3140	0	27.301	0	893.306	0	11.2	4	3.5	4	-1E+10	1	-1E+10	1	-1E+10	1	-1E+10	1	-1E+10	1	-1E+10	1
4902551	106	C	07/22/2023	10:05	-131.123	47.691	0	907.60	0	3.4440	0	34.3170	0	27.304	0	898.045	0	11.1	4	3.5	4	-1E+10	1	-1E+10	1	-1E+10	1	-1E+10	1	-1E+10	1	-1E+10	1
4902551	106	C	07/22/2023	10:05	-131.123	47.691	0	912.80	0	3.4350	0	34.3190	0	27.307	0	903.179	0	11.1	4	3.5	4	-1E+10	1	-1E+10	1	-1E+10	1	-1E+10	1	-1E+10	1	-1E+10	1
4902551	106	C	07/22/2023	10:05	-131.123	47.691	0	918.10	0	3.4210	0	34.3210	0	27.310	0	908.412	0	11.1	4	3.5	4	-1E+10	1	-1E+10	1	-1E+10	1	-1E+10	1	-1E+10	1	-1E+10	1
4902551	106	C	07/22/2023	10:05	-131.123	47.691	0	922.80	0	3.4110	0	34.3220	0	27.312	0	913.052	0	11.1	4	3.5	4	-1E+10	1	-1E+10	1	-1E+10	1	-1E+10	1	-1E+10	1	-1E+10	1
4902551	106	C	07/22/2023	10:05	-131.123	47.691	0	928.00	0	3.4030	0	34.3230	0	27.313	0	918.186	0	11.1	4	3.4	4	-1E+10	1	-1E+10	1	-1E+10	1	-1E+10	1	-1E+10	1	-1E+10	1
4902551	106	C	07/22/2023	10:05	-131.123	47.691	0	933.10	0	3.3920	0	34.3270	0	27.318	0	923.221	0	11.0	4	3.4	4	-1E+10	1	-1E+10	1	-1E+10	1	-1E+10	1	-1E+10	1	-1E+10	1
4902551	106	C	07/22/2023	10:05	-131.123	47.691	0	937.70	0	3.3820	0	34.3310	0	27.322	0	927.762	0	10.9	4	3.4	4	-1E+10	1	-1E+10	1	-1E+10	1	-1E+10	1	-1E+10	1	-1E+10	1
4902551	106	C	07/22/2023	10:05	-131.123	47.691	0	942.70	0	3.3710	0	34.3340	0	27.325	0	932.698	0	10.9	4	3.4	4	-1E+10	1	-1E+10	1	-1E+10	1	-1E+10	1	-1E+10	1	-1E+10	1
4902551	106	C	07/22/2023	10:05	-131.123	47.691	0	947.90	0	3.3540	0	34.3400	0	27.332	0	937.831	0	10.9	4	3.4	4	-1E+10	1	-1E+10	1	-1E+10	1	-1E+10	1	-1E+10	1	-1E+10	1
4902551	106	C	07/22/2023	10:05	-131.123	47.691	0	953.10	0	3.3360	0	34.3430	0	27.336	0	942.964	0	10.9	4	3.4	4	-1E+10	1	-1E+10	1	-1E+10	1	-1E+10	1	-1E+10	1	-1E+10	1
4902551	106	C	07/22/2023	10:05	-131.123	47.691	0	958.20	0	3.3240	0	34.3450	0	27.338	0	947.998	0	10.9	4	3.4	4	-1E+10	1	-1E+10	1	-1E+10	1	-1E+10	1	-1E+10	1	-1E+10	1
4902551	106	C	07/22/2023	10:05	-131.123	47.691	0	962.90	0	3.3110	0	34.3450	0	27.340	0	952.637	0	11.0	4	3.4	4	-1E+10	1	-1E+10	1	-1E+10	1	-1E+10	1	-1E+10	1	-1E+10	1
4902551	106	C	07/22/2023	10:05	-131.123	47.691	0	967.60	0	3.2990	0	34.3460	0	27.342	0	957.277	0	11.0	4	3.4	4	-1E+10	1	-1E+10	1	-1E+10	1	-1E+10	1	-1E+10	1	-1E+10	1
4902551	106	C	07/22/2023	10:05	-131.123	47.691	0	972.70	0	3.2900	0	34.3490	0	27.345	0	962.311	0	11.0	4	3.4	4	-1E+10	1	-1E+10	1	-1E+10	1	-1E+10	1	-1E+10	1	-1E+10	1
4902551	106	C	07/22/2023	10:05	-131.123	47.691	0	977.70	0	3.2750	0	34.3510	0	27.348	0	967.246	0	11.1	4	3.4	4	-1E+10	1	-1E+10	1	-1E+10	1	-1E+10	1	-1E+10	1	-1E+10	1
4902551	106	C	07/22/2023	10:05	-131.123	47.691	0	982.70	0	3.2600	0	34.3520	0	27.350	0	972.181	0	11.1	4	3.5	4	-1E+10	1	-1E+10	1	-1E+10	1	-1E+10	1	-1E+10	1	-1E+10	1
4902551	106	C	07/22/2023	10:05	-131.123	47.691	0	987.80	0	3.2480	0	34.3540	0	27.353	0	977.214	0	11.2	4	3.5	4	-1E+10	1	-1E+10	1	-1E+10	1	-1E+10	1	-1E+10	1	-1E+10	1
4902551	106	C	07/22/2023	10:05	-131.123	47.691	0	992.80	0	3.2370	0	34.3550	0	27.355	0	982.149	0	11.2	4	3.5	4	-1E+10	1	-1E+10	1	-1E+10	1	-1E+10	1	-1E+10	1	-1E+10	1
4902551	106	C	07/22/2023	10:05	-131.123	47.691	0	997.90	0	3.2180	0	34.3580	0	27.359	0	987.182	0	11.3	4	3.5	4	-1E+10	1	-1E+10	1	-1E+10	1	-1E+10	1	-1E+10	1	-1E+10	1
4902551	106	C	07/22/2023	10:05	-131.123	47.691	0	1005.20	0	3.1730	0	34.3580	0	27.363	0	994.386	0	11.4	4	3.5	4	-1E+10	1	-1E+10	1	-1E+10	1	-1E+10	1	-1E+10	1	-1E+10	1
4902551	106	C	07/22/2023	10:05	-131.123	47.691	0	1015.00	0	3.1570	0	34.3620	0	27.368	0	1004.057	0	11.4	4	3.5	4	-1E+10	1	-1E+10	1	-1E+10	1	-1E+10	1	-1E+10	1	-1E+10	1
4902551	106	C	07/22/2023	10:05	-131.123	47.691	0	1025.10	0	3.1320	0	34.3670	0	27.374	0	1014.024	0	11.4	4	3.5	4	-1E+10	1	-1E+10	1	-1E+10	1	-1E+10	1	-1E+10	1	-1E+10	1
4902551	106	C	07/22/2023	10:05	-131.123	47.691	0	1035.60	0	3.1200	0	34.3720	0	27.379	0	1024.385	0	11.5	4	3.5	4	-1E+10	1	-1E+10	1	-1E+10	1	-1E+10	1	-1E+10	1	-1E+10	1
4902551	106	C	07/22/2023	10:05	-131.123	47.691	0	1045.30	0	3.1220	0	34.3760	0	27.382	0	1033.956	0	11.5	4	3.6	4	-1E+10	1	-1E+10	1	-1E+10	1	-1E+10	1	-1E+10	1	-1E+10	1
4902551	106	C	07/22/2023	10:05	-131.123	47.691	0	1055.50	0	3.1220	0	34.3830	0	27.388	0	1044.020	0	11.5	4	3.6	4	-1E+10	1	-1E+10	1	-1E+10	1	-1E+10	1	-1E+10	1	-1E+10	1
4902551	106	C	07/22/2023	10:05	-131.123	47.691	0	1065.70	0	3.1050	0	34.3880	0	27.394	0	1054.083	0	11.7	4	3.6	4	-1E+10	1	-1E+10	1	-1E+10	1	-1E+10	1	-1E+10	1	-1E+10	1
4902551	106	C	07/22/2023	10:05	-131.123	47.691	0	1075.60	0	3.0960	0	34.3930	0	27.399	0	1063.850	0	11.8	4	3.6	4	-1E+10	1	-1E+10	1	-1E+10	1	-1E+10	1	-1E+10	1	-1E+10	1
4902551	106	C	07/22/2023	10:05	-131.123	47.691	0	1085.40	0	3.0580	0	34.3920	0	27.401	0	1073.518	0	11.8	4	3.7	4	-1E+10	1	-1E+10	1	-1E+10	1	-1E+10	1	-1E+10	1	-1E+10	1
4902551	106	C	07/22/2023	10:05	-131.123	47.691	0	1095.50	0	3.0560	0	34.3960	0	27.405	0	1083.482	0	11.9	4	3.7	4	-1E+10	1	-1E+10	1	-1E+10	1	-1E+10	1	-1E+10	1	-1E+10	1
4902551	106	C	07/22/2023	10:05	-131.123	47.691	0	1105.30	0	3.0350	0	34.3980	0	27.408	0	1093.149	0	12.0	4	3.7	4	-1E+10	1	-1E+10	1	-1E+10	1	-1E+10	1	-1E+10	1	-1E+10	1
4902551	106	C	07/22/2023	10:05	-131.123	47.691	0	1115.30	0	3.0100	0	34.4000	0	27.412	0	1103.013	0	12.1	4	3.7	4	-1E+10	1	-1E+10	1	-1E+10	1	-1E+10	1	-1E+10	1	-1E+10	1
4902551	106	C	07/22/2023	10:05	-131.123	47.691	0	1125.30	0	2.9850	0	34.4020	0	27.416	0	1112.876	0	12.2	4	3.8	4	-1E+10	1	-1E+10	1	-1E+10	1	-1E+10	1	-1E+10	1	-1E+10	1
4902551	106	C	07/22/2023	10:05	-131.123	47.691	0	1135.40	0	2.9760	0	34.4060	0	27.420	0	1122.837	0	12.3	4	3.8	4	-1E+10	1	-1E+10	1	-1E+10	1	-1E+10	1	-1E+10	1	-1E+10	1
4902551	106	C	07/22/2023	10:05	-131.123	47.691	0	1145.50	0	2.9570	0	34.4070	0	27.423	0	1132.798	0	12.4	4	3.8	4	-1E+10	1	-1E+10	1	-1E+10	1	-1E+10	1	-1E+10	1	-1E+10	1
4902551	106	C	07/22/2023	10:05	-131.123	47.691	0	1155.30	0	2.9300	0	34.4080	0	27.426	0	1142.463	0	12.5	4	3.8	4	-1E+10	1	-1E+10	1	-1E+10	1	-1E+10	1	-1E+10	1	-1E+10	1
4902551	106	C	07/22/2023	10:05	-131.123	47.691	0	1165.40	0	2.9350	0	34.4120	0	27.429	0	1152.423	0	12.7	4	3.9	4	-1E+10	1	-1E+10	1	-1E+10	1	-1E+10	1	-1E+10	1	-1E+10	1
4902551	106	C	07/22/2023	10:05	-131.123	47.691	0	1175.50	0	2.9430	0	34.4170	0	27.432	0	1162.383	0	12.8	4	3.9	4	-1E+10	1	-1E+10	1	-1E+10	1	-1E+10	1	-1E+10	1	-1E+10	1
4902551	106	C	07/22/2023	10:05	-131.123	47.691	0	1185.10	0	2.9110	0	34.4180	0	27.436	0	1171.849	0	12.9	4	4.0	4	-1E+10	1	-1E+10	1	-1E+10	1	-1E+10	1	-1E+10	1	-1E+10	1
4902551	106	C	07/22/2023	10:05	-131.123	47.691	0	1195.20	0	2.8810	0	34.4200	0	27.440	0	1181.808	0	13.0	4	4.0	4	-1E+10	1	-1E+10	1	-1E+10	1	-1E+10	1	-1E+10	1	-1E+10	1
4902551	106	C	07/22/2023	10:05	-131.123	47.691	0	1205.20	0	2.8670	0	34.4240	0	27.445	0	1191.667	0	13.2	4	4.1	4	-1E+10	1	-1E+10	1	-1E+10	1	-1E+10	1	-1E+10	1	-1E+10	1
4902551	106	C	07/22/2023	10:05	-131.123	47.691	0	1215.20	0	2.8520	0	34.4260	0	27.448	0	1201.526	0	13.4	4	4.1	4	-1E+10	1	-1E+10	1	-1E+10	1	-1E+10	1	-1E+10	1	-1E+10	1
4902551	106	C	07/22/2023	10:05	-131.123	47.691	0	1225.20	0	2.8340	0	34.4280	0	27.451	0	1211.385	0	13.5	4	4.2	4	-1E+10	1	-1E+10	1	-1E+10	1	-1E+10	1	-1E+10	1	-1E+10	1
4902551	106	C	07/22/2023	10:05	-131.123	47.691	0	1235.30	0	2.8060	0	34.4310	0	27.456	0	1221.342	0	13.7	4	4.2	4	-1E+10	1	-1E+10	1	-1E+10	1	-1E+10	1	-1E+10	1	-1E+10	1
4902551	106	C	07/22/2023	10:05	-131.123	47.691	0	1245.60	0	2.7950	0	34.4340	0	27.459	0	1231.495	0	13.9	4	4.3	4	-1E+10	1	-1E+10	1	-1E+10	1	-1E+10	1	-1E+10	1	-1E+10	1
4902551	106	C	07/22/2023	10:05	-131.123	47.691	0	1255.50	0	2.7830	0	34.4370	0	27.463	0	1241.254	0	14.1	4	4.3	4	-1E+10	1	-1E+10	1	-1E+10	1	-1E+10	1	-1E+10	1	-1E+10	1
4902551	106	C	07/22/2023	10:05	-131.123	47.691	0	1265.60	0	2.7610	0	34.4390	0	27.466	0	1251.210	0	14.4	4	4.4	4	-1E+10	1	-1E+10	1	-1E+10	1	-1E+10	1	-1E+10	1	-1E+10	1
4902551	106	C	07/22/2023	10:05	-131.123	47.691	0	1275.30	0	2.7480	0	34.4430	0	27.471	0	1260.770	0	14.8	4	4.5	4	-1E+10	1	-1E+10	1	-1E+10	1	-1E+10	1	-1E+10	1	-1E+10	1
4902551	106	C	07/22/2023	10:05	-131.123	47.691	0	1285.20	0	2.7400	0	34.4460	0	27.474	0	1270.528	0	15.2	4	4.7	4	-1E+10	1	-1E+10	1	-1E+10	1	-1E+10	1	-1E+10	1	-1E+10	1
4902551	106	C	07/22/2023	10:05	-131.123	47.691	0	1295.20	0	2.7430	0	34.4520	0	27.478	0	1280.383	0	15.9	4	4.9	4	-1E+10	1	-1E+10	1	-1E+10	1	-1E+10	1	-1E+10	1	-1E+10	1
4902551	106	C	07/22/2023	10:05	-131.123	47.691	0	1305.40	0	2.7450	0	34.4570	0	27.482	0	1290.435	0	16.2	4	5.0	4	-1E+10	1	-1E+10	1	-1E+10	1	-1E+10	1	-1E+10	1	-1E+10	1
4902551	106	C	07/22/2023	10:05	-131.123	47.691	0	1315.30	0	2.7180	0	34.4580	0	27.486	0	1300.191	0	16.4	4	5.0	4	-1E+10	1	-1E+10	1	-1E+10	1	-1E+10	1	-1E+10	1	-1E+10	1
4902551	106	C	07/22/2023	10:05	-131.123	47.691	0	1325.10	0	2.7020	0	34.4600	0	27.489	0	1309.848	0	16.7	4	5.1	4	-1E+10	1	-1E+10	1	-1E+10	1	-1E+10	1	-1E+10	1	-1E+10	1
4902551	106	C	07/22/2023	10:05	-131.123	47.691	0	1335.10	0	2.6900	0	34.4630	0	27.492	0	1319.702	0	17.1	4	5.2	4	-1E+10	1	-1E+10	1	-1E+10	1	-1E+10	1	-1E+10	1	-1E+10	1
4902551	106	C	07/22/2023	10:05	-131.123	47.691	0	1345.10	0	2.6780	0	34.4660	0	27.496	0	1329.555	0	17.6	4	5.4	4	-1E+10	1	-1E+10	1	-1E+10	1	-1E+10	1	-1E+10	1	-1E+10	1
4902551	106	C	07/22/2023	10:05	-131.123	47.691	0	1355.30	0	2.6650	0	34.4700	0	27.500	0	1339.605	0	18.2	4	5.6	4	-1E+10	1	-1E+10	1	-1E+10	1	-1E+10	1	-1E+10	1	-1E+10	1
4902551	106	C	07/22/2023	10:05	-131.123	47.691	0	1365.50	0	2.6560	0	34.4730	0	27.503	0	1349.654	0	18.7	4	5.7	4	-1E+10	1	-1E+10	1	-1E+10	1	-1E+10	1	-1E+10	1	-1E+10	1
4902551	106	C	07/22/2023	10:05	-131.123	47.691	0	1375.40	0	2.6460	0	34.4760	0	27.506	0	1359.407	0	19.1	4	5.9	4	-1E+10	1	-1E+10	1	-1E+10	1	-1E+10	1	-1E+10	1	-1E+10	1
4902551	106	C	07/22/2023	10:05	-131.123	47.691	0	1385.30	0	2.6280	0	34.4780	0	27.510	0	1369.160	0	19.5	4	6.0	4	-1E+10	1	-1E+10	1	-1E+10	1	-1E+10	1	-1E+10	1	-1E+10	1
4902551	106	C	07/22/2023	10:05	-131.123	47.691	0	1395.30	0	2.6120	0	34.4800	0	27.513	0	1379.011	0	19.8	4	6.1	4	-1E+10	1	-1E+10	1	-1E+10	1	-1E+10	1	-1E+10	1	-1E+10	1
4902551	106	C	07/22/2023	10:05	-131.123	47.691	0	1405.00	0	2.5910	0	34.4820	0	27.516	0	1388.565	0	20.2	4	6.2	4	-1E+10	1	-1E+10	1	-1E+10	1	-1E+10	1	-1E+10	1	-1E+10	1
4902551	106	C	07/22/2023	10:05	-131.123	47.691	0	1415.40	0	2.5740	0	34.4850	0	27.520	0	1398.809	0	20.8	4	6.4	4	-1E+10	1	-1E+10	1	-1E+10	1	-1E+10	1	-1E+10	1	-1E+10	1
4902551	106	C	07/22/2023	10:05	-131.123	47.691	0	1425.50	0	2.5610	0	34.4870	0	27.523	0	1408.757	0	21.1	4	6.4	4	-1E+10	1	-1E+10	1	-1E+10	1	-1E+10	1	-1E+10	1	-1E+10	1
4902551	106	C	07/22/2023	10:05	-131.123	47.691	0	1435.20	0	2.5430	0	34.4880	0	27.525	0	1418.311	0	21.4	4	6.5	4	-1E+10	1	-1E+10	1	-1E+10	1	-1E+10	1	-1E+10	1	-1E+10	1
4902551	106	C	07/22/2023	10:05	-131.123	47.691	0	1445.50	0	2.5220	0	34.4900	0	27.529	0	1428.455	0	22.0	4	6.7	4	-1E+10	1	-1E+10	1	-1E+10	1	-1E+10	1	-1E+10	1	-1E+10	1
4902551	106	C	07/22/2023	10:05	-131.123	47.691	0	1455.50	0	2.5100	0	34.4930	0	27.532	0	1438.303	0	22.3	4	6.8	4	-1E+10	1	-1E+10	1	-1E+10	1	-1E+10	1	-1E+10	1	-1E+10	1
4902551	106	C	07/22/2023	10:05	-131.123	47.691	0	1465.40	0	2.4890	0	34.4940	0	27.535	0	1448.052	0	22.8	4	6.9	4	-1E+10	1	-1E+10	1	-1E+10	1	-1E+10	1	-1E+10	1	-1E+10	1
4902551	106	C	07/22/2023	10:05	-131.123	47.691	0	1475.30	0	2.4800	0	34.4960	0	27.537	0	1457.801	0	23.4	4	7.1	4	-1E+10	1	-1E+10	1	-1E+10	1	-1E+10	1	-1E+10	1	-1E+10	1
4902551	106	C	07/22/2023	10:05	-131.123	47.691	0	1485.30	0	2.4690	0	34.4990	0	27.540	0	1467.647	0	24.2	4	7.4	4	-1E+10	1	-1E+10	1	-1E+10	1	-1E+10	1	-1E+10	1	-1E+10	1
4902551	106	C	07/22/2023	10:05	-131.123	47.691	0	1495.40	0	2.4600	0	34.5020	0	27.544	0	1477.592	0	24.8	4	7.6	4	-1E+10	1	-1E+10	1	-1E+10	1	-1E+10	1	-1E+10	1	-1E+10	1
4902551	106	C	07/22/2023	10:05	-131.123	47.691	0	1505.50	0	2.4460	0	34.5050	0	27.547	0	1487.536	0	25.4	4	7.7	4	-1E+10	1	-1E+10	1	-1E+10	1	-1E+10	1	-1E+10	1	-1E+10	1
4902551	106	C	07/22/2023	10:05	-131.123	47.691	0	1515.70	0	2.4330	0	34.5060	0	27.549	0	1497.578	0	26.0	4	7.9	4	-1E+10	1	-1E+10	1	-1E+10	1	-1E+10	1	-1E+10	1	-1E+10	1
4902551	106	C	07/22/2023	10:05	-131.123	47.691	0	1525.70	0	2.4220	0	34.5090	0	27.553	0	1507.423	0	26.6	4	8.1	4	-1E+10	1	-1E+10	1	-1E+10	1	-1E+10	1	-1E+10	1	-1E+10	1
4902551	106	C	07/22/2023	10:05	-131.123	47.691	0	1535.30	0	2.4120	0	34.5100	0	27.554	0	1516.874	0	27.1	4	8.3	4	-1E+10	1	-1E+10	1	-1E+10	1	-1E+10	1	-1E+10	1	-1E+10	1
4902551	106	C	07/22/2023	10:05	-131.123	47.691	0	1545.20	0	2.3970	0	34.5130	0	27.558	0	1526.619	0	27.7	4	8.4	4	-1E+10	1	-1E+10	1	-1E+10	1	-1E+10	1	-1E+10	1	-1E+10	1
4902551	106	C	07/22/2023	10:05	-131.123	47.691	0	1555.30	0	2.3850	0	34.5140	0	27.560	0	1536.561	0	28.2	4	8.6	4	-1E+10	1	-1E+10	1	-1E+10	1	-1E+10	1	-1E+10	1	-1E+10	1
4902551	106	C	07/22/2023	10:05	-131.123	47.691	0	1565.20	0	2.3730	0	34.5160	0	27.562	0	1546.306	0	28.9	4	8.8	4	-1E+10	1	-1E+10	1	-1E+10	1	-1E+10	1	-1E+10	1	-1E+10	1
4902551	106	C	07/22/2023	10:05	-131.123	47.691	0	1575.20	0	2.3570	0	34.5180	0	27.565	0	1556.148	0	29.4	4	9.0	4	-1E+10	1	-1E+10	1	-1E+10	1	-1E+10	1	-1E+10	1	-1E+10	1
4902551	106	C	07/22/2023	10:05	-131.123	47.691	0	1585.40	0	2.3410	0	34.5200	0	27.568	0	1566.187	0	30.0	4	9.1	4	-1E+10	1	-1E+10	1	-1E+10	1	-1E+10	1	-1E+10	1	-1E+10	1
4902551	106	C	07/22/2023	10:05	-131.123	47.691	0	1595.20	0	2.3270	0	34.5220	0	27.571	0	1575.832	0	30.7	4	9.3	4	-1E+10	1	-1E+10	1	-1E+10	1	-1E+10	1	-1E+10	1	-1E+10	1
4902551	106	C	07/22/2023	10:05	-131.123	47.691	0	1605.40	0	2.3090	0	34.5250	0	27.575	0	1585.870	0	31.3	4	9.5	4	-1E+10	1	-1E+10	1	-1E+10	1	-1E+10	1	-1E+10	1	-1E+10	1
4902551	106	C	07/22/2023	10:05	-131.123	47.691	0	1615.80	0	2.2980	0	34.5260	0	27.577	0	1596.104	0	31.9	4	9.7	4	-1E+10	1	-1E+10	1	-1E+10	1	-1E+10	1	-1E+10	1	-1E+10	1
4902551	106	C	07/22/2023	10:05	-131.123	47.691	0	1625.80	0	2.2830	0	34.5280	0	27.580	0	1605.944	0	32.7	4	9.9	4	-1E+10	1	-1E+10	1	-1E+10	1	-1E+10	1	-1E+10	1	-1E+10	1
4902551	106	C	07/22/2023	10:05	-131.123	47.691	0	1635.40	0	2.2680	0	34.5310	0	27.583	0	1615.390	0	33.2	4	10.1	4	-1E+10	1	-1E+10	1	-1E+10	1	-1E+10	1	-1E+10	1	-1E+10	1
4902551	106	C	07/22/2023	10:05	-131.123	47.691	0	1645.00	0	2.2560	0	34.5320	0	27.585	0	1624.836	0	33.6	4	10.2	4	-1E+10	1	-1E+10	1	-1E+10	1	-1E+10	1	-1E+10	1	-1E+10	1
4902551	106	C	07/22/2023	10:05	-131.123	47.691	0	1655.50	0	2.2410	0	34.5340	0	27.588	0	1635.167	0	34.1	4	10.3	4	-1E+10	1	-1E+10	1	-1E+10	1	-1E+10	1	-1E+10	1	-1E+10	1
4902551	106	C	07/22/2023	10:05	-131.123	47.691	0	1665.20	0	2.2280	0	34.5350	0	27.590	0	1644.710	0	34.6	4	10.5	4	-1E+10	1	-1E+10	1	-1E+10	1	-1E+10	1	-1E+10	1	-1E+10	1
4902551	106	C	07/22/2023	10:05	-131.123	47.691	0	1675.00	0	2.2170	0	34.5370	0	27.592	0	1654.351	0	35.3	4	10.7	4	-1E+10	1	-1E+10	1	-1E+10	1	-1E+10	1	-1E+10	1	-1E+10	1
4902551	106	C	07/22/2023	10:05	-131.123	47.691	0	1685.00	0	2.2070	0	34.5390	0	27.595	0	1664.189	0	36.0	4	10.9	4	-1E+10	1	-1E+10	1	-1E+10	1	-1E+10	1	-1E+10	1	-1E+10	1
4902551	106	C	07/22/2023	10:05	-131.123	47.691	0	1695.20	0	2.1930	0	34.5410	0	27.598	0	1674.223	0	36.6	4	11.1	4	-1E+10	1	-1E+10	1	-1E+10	1	-1E+10	1	-1E+10	1	-1E+10	1
4902551	106	C	07/22/2023	10:05	-131.123	47.691	0	1705.20	0	2.1790	0	34.5420	0	27.600	0	1684.059	0	37.3	4	11.3	4	-1E+10	1	-1E+10	1	-1E+10	1	-1E+10	1	-1E+10	1	-1E+10	1
4902551	106	C	07/22/2023	10:05	-131.123	47.691	0	1715.40	0	2.1700	0	34.5440	0	27.602	0	1694.092	0	38.1	4	11.5	4	-1E+10	1	-1E+10	1	-1E+10	1	-1E+10	1	-1E+10	1	-1E+10	1
4902551	106	C	07/22/2023	10:05	-131.123	47.691	0	1725.80	0	2.1590	0	34.5460	0	27.605	0	1704.321	0	38.9	4	11.8	4	-1E+10	1	-1E+10	1	-1E+10	1	-1E+10	1	-1E+10	1	-1E+10	1
4902551	106	C	07/22/2023	10:05	-131.123	47.691	0	1735.70	0	2.1480	0	34.5480	0	27.607	0	1714.058	0	39.6	4	12.0	4	-1E+10	1	-1E+10	1	-1E+10	1	-1E+10	1	-1E+10	1	-1E+10	1
4902551	106	C	07/22/2023	10:05	-131.123	47.691	0	1745.80	0	2.1390	0	34.5500	0	27.609	0	1723.991	0	40.2	4	12.1	4	-1E+10	1	-1E+10	1	-1E+10	1	-1E+10	1	-1E+10	1	-1E+10	1
4902551	106	C	07/22/2023	10:05	-131.123	47.691	0	1755.70	0	2.1310	0	34.5510	0	27.611	0	1733.727	0	41.0	4	12.4	4	-1E+10	1	-1E+10	1	-1E+10	1	-1E+10	1	-1E+10	1	-1E+10	1
4902551	106	C	07/22/2023	10:05	-131.123	47.691	0	1765.60	0	2.1190	0	34.5540	0	27.614	0	1743.462	0	41.7	4	12.6	4	-1E+10	1	-1E+10	1	-1E+10	1	-1E+10	1	-1E+10	1	-1E+10	1
4902551	106	C	07/22/2023	10:05	-131.123	47.691	0	1775.70	0	2.1110	0	34.5550	0	27.616	0	1753.394	0	42.2	4	12.8	4	-1E+10	1	-1E+10	1	-1E+10	1	-1E+10	1	-1E+10	1	-1E+10	1
4902551	106	C	07/22/2023	10:05	-131.123	47.691	0	1785.70	0	2.1010	0	34.5560	0	27.617	0	1763.227	0	42.8	4	12.9	4	-1E+10	1	-1E+10	1	-1E+10	1	-1E+10	1	-1E+10	1	-1E+10	1
4902551	106	C	07/22/2023	10:05	-131.123	47.691	0	1795.70	0	2.0930	0	34.5570	0	27.619	0	1773.059	0	43.5	4	13.2	4	-1E+10	1	-1E+10	1	-1E+10	1	-1E+10	1	-1E+10	1	-1E+10	1
4902551	106	C	07/22/2023	10:05	-131.123	47.691	0	1805.70	0	2.0830	0	34.5600	0	27.622	0	1782.891	0	44.4	4	13.4	4	-1E+10	1	-1E+10	1	-1E+10	1	-1E+10	1	-1E+10	1	-1E+10	1
4902551	106	C	07/22/2023	10:05	-131.123	47.691	0	1815.50	0	2.0710	0	34.5620	0	27.625	0	1792.526	0	45.5	4	13.7	4	-1E+10	1	-1E+10	1	-1E+10	1	-1E+10	1	-1E+10	1	-1E+10	1
4902551	106	C	07/22/2023	10:05	-131.123	47.691	0	1825.30	0	2.0580	0	34.5640	0	27.627	0	1802.161	0	46.5	4	14.0	4	-1E+10	1	-1E+10	1	-1E+10	1	-1E+10	1	-1E+10	1	-1E+10	1
4902551	106	C	07/22/2023	10:05	-131.123	47.691	0	1835.10	0	2.0450	0	34.5670	0	27.631	0	1811.795	0	47.3	4	14.3	4	-1E+10	1	-1E+10	1	-1E+10	1	-1E+10	1	-1E+10	1	-1E+10	1
4902551	106	C	07/22/2023	10:05	-131.123	47.691	0	1845.00	0	2.0330	0	34.5680	0	27.633	0	1821.527	0	48.1	4	14.5	4	-1E+10	1	-1E+10	1	-1E+10	1	-1E+10	1	-1E+10	1	-1E+10	1
4902551	106	C	07/22/2023	10:05	-131.123	47.691	0	1855.10	0	2.0230	0	34.5700	0	27.635	0	1831.455	0	48.8	4	14.7	4	-1E+10	1	-1E+10	1	-1E+10	1	-1E+10	1	-1E+10	1	-1E+10	1
4902551	106	C	07/22/2023	10:05	-131.123	47.691	0	1865.20	0	2.0140	0	34.5720	0	27.638	0	1841.382	0	49.5	4	14.9	4	-1E+10	1	-1E+10	1	-1E+10	1	-1E+10	1	-1E+10	1	-1E+10	1
4902551	106	C	07/22/2023	10:05	-131.123	47.691	0	1875.50	0	2.0060	0	34.5730	0	27.639	0	1851.506	0	50.2	4	15.1	4	-1E+10	1	-1E+10	1	-1E+10	1	-1E+10	1	-1E+10	1	-1E+10	1
4902551	106	C	07/22/2023	10:05	-131.123	47.691	0	1885.60	0	1.9960	0	34.5750	0	27.641	0	1861.433	0	50.9	4	15.3	4	-1E+10	1	-1E+10	1	-1E+10	1	-1E+10	1	-1E+10	1	-1E+10	1
4902551	106	C	07/22/2023	10:05	-131.123	47.691	0	1895.40	0	1.9880	0	34.5760	0	27.643	0	1871.064	0	51.5	4	15.5	4	-1E+10	1	-1E+10	1	-1E+10	1	-1E+10	1	-1E+10	1	-1E+10	1
4902551	106	C	07/22/2023	10:05	-131.123	47.691	0	1905.30	0	1.9800	0	34.5780	0	27.645	0	1880.793	0	52.2	4	15.7	4	-1E+10	1	-1E+10	1	-1E+10	1	-1E+10	1	-1E+10	1	-1E+10	1
4902551	106	C	07/22/2023	10:05	-131.123	47.691	0	1915.50	0	1.9680	0	34.5800	0	27.648	0	1890.817	0	53.0	4	16.0	4	-1E+10	1	-1E+10	1	-1E+10	1	-1E+10	1	-1E+10	1	-1E+10	1
4902551	106	C	07/22/2023	10:05	-131.123	47.691	0	1925.30	0	1.9610	0	34.5810	0	27.649	0	1900.447	0	53.5	4	16.1	4	-1E+10	1	-1E+10	1	-1E+10	1	-1E+10	1	-1E+10	1	-1E+10	1
4902551	106	C	07/22/2023	10:05	-131.123	47.691	0	1935.30	0	1.9540	0	34.5820	0	27.651	0	1910.273	0	54.2	4	16.3	4	-1E+10	1	-1E+10	1	-1E+10	1	-1E+10	1	-1E+10	1	-1E+10	1
4902551	106	C	07/22/2023	10:05	-131.123	47.691	0	1945.20	0	1.9460	0	34.5840	0	27.653	0	1920.000	0	54.7	4	16.5	4	-1E+10	1	-1E+10	1	-1E+10	1	-1E+10	1	-1E+10	1	-1E+10	1
4902551	106	C	07/22/2023	10:05	-131.123	47.691	0	1955.10	0	1.9390	0	34.5850	0	27.654	0	1929.727	0	55.2	4	16.6	4	-1E+10	1	-1E+10	1	-1E+10	1	-1E+10	1	-1E+10	1	-1E+10	1
4902551	106	C	07/22/2023	10:05	-131.123	47.691	0	1965.40	0	1.9340	0	34.5860	0	27.655	0	1939.846	0	55.5	4	16.7	4	-1E+10	1	-1E+10	1	-1E+10	1	-1E+10	1	-1E+10	1	-1E+10	1
4902551	106	C	07/22/2023	10:05	-131.123	47.691	0	1975.70	0	1.9310	0	34.5870	0	27.657	0	1949.965	0	55.5	4	16.7	4	-1E+10	1	-1E+10	1	-1E+10	1	-1E+10	1	-1E+10	1	-1E+10	1
4902551	106	C	07/22/2023	10:05	-131.123	47.691	0	1985.60	0	1.9280	0	34.5870	0	27.657	0	1959.691	0	55.6	4	16.7	4	-1E+10	1	-1E+10	1	-1E+10	1	-1E+10	1	-1E+10	1	-1E+10	1
4902551	106	C	07/22/2023	10:05	-131.123	47.691	0	1993.80	0	1.9240	0	34.5880	0	27.658	0	1967.746	0	55.3	4	16.7	4	-1E+10	1	-1E+10	1	-1E+10	1	-1E+10	1	-1E+10	1	-1E+10	1
4902551	106	C	07/22/2023	10:05	-131.123	47.691	0																										
4902551	107	C	08/01/2023	15:18	-131.145	47.607	0	0.10	0	16.8920	0	32.3630	0	23.517	0	0.099	0	239.1	4	98.3	4	-1E+10	1	-1E+10	1	-1E+10	1	-1E+10	1	-1E+10	1	-1E+10	1
4902551	107	C	08/01/2023	15:18	-131.145	47.607	0	0.20	0	16.8930	0	32.3620	0	23.516	0	0.198	0	-1e10	1	-1e10	1	-1E+10	1	-1E+10	1	-1E+10	1	-1E+10	1	-1E+10	1	-1E+10	1
4902551	107	C	08/01/2023	15:18	-131.145	47.607	0	0.30	0	16.8900	0	32.3620	0	23.517	0	0.297	0	234.0	4	96.2	4	-1E+10	1	-1E+10	1	-1E+10	1	-1E+10	1	-1E+10	1	-1E+10	1
4902551	107	C	08/01/2023	15:18	-131.145	47.607	0	0.90	0	16.8900	0	32.3620	0	23.517	0	0.892	0	234.0	4	96.2	4	-1E+10	1	-1E+10	1	-1E+10	1	-1E+10	1	-1E+10	1	-1E+10	1
4902551	107	C	08/01/2023	15:18	-131.145	47.607	0	1.80	0	16.8900	0	32.3610	0	23.516	0	1.785	0	234.2	4	96.3	4	-1E+10	1	-1E+10	1	-1E+10	1	-1E+10	1	-1E+10	1	-1E+10	1
4902551	107	C	08/01/2023	15:18	-131.145	47.607	0	3.00	0	16.8910	0	32.3620	0	23.517	0	2.975	0	234.4	4	96.4	4	-1E+10	1	-1E+10	1	-1E+10	1	-1E+10	1	-1E+10	1	-1E+10	1
4902551	107	C	08/01/2023	15:18	-131.145	47.607	0	4.10	0	16.8880	0	32.3650	0	23.520	0	4.066	0	234.4	4	96.4	4	-1E+10	1	-1E+10	1	-1E+10	1	-1E+10	1	-1E+10	1	-1E+10	1
4902551	107	C	08/01/2023	15:18	-131.145	47.607	0	4.80	0	16.8870	0	32.3680	0	23.523	0	4.760	0	234.5	4	96.4	4	-1E+10	1	-1E+10	1	-1E+10	1	-1E+10	1	-1E+10	1	-1E+10	1
4902551	107	C	08/01/2023	15:18	-131.145	47.607	0	5.90	0	16.8870	0	32.3670	0	23.522	0	5.851	0	234.7	4	96.5	4	-1E+10	1	-1E+10	1	-1E+10	1	-1E+10	1	-1E+10	1	-1E+10	1
4902551	107	C	08/01/2023	15:18	-131.145	47.607	0	7.00	0	16.8870	0	32.3670	0	23.522	0	6.941	0	235.1	4	96.6	4	-1E+10	1	-1E+10	1	-1E+10	1	-1E+10	1	-1E+10	1	-1E+10	1
4902551	107	C	08/01/2023	15:18	-131.145	47.607	0	7.80	0	16.8860	0	32.3670	0	23.522	0	7.735	0	235.1	4	96.6	4	-1E+10	1	-1E+10	1	-1E+10	1	-1E+10	1	-1E+10	1	-1E+10	1
4902551	107	C	08/01/2023	15:18	-131.145	47.607	0	8.90	0	16.8800	0	32.3680	0	23.524	0	8.825	0	235.4	4	96.8	4	-1E+10	1	-1E+10	1	-1E+10	1	-1E+10	1	-1E+10	1	-1E+10	1
4902551	107	C	08/01/2023	15:18	-131.145	47.607	0	10.10	0	16.8780	0	32.3690	0	23.526	0	10.015	0	235.8	4	96.9	4	-1E+10	1	-1E+10	1	-1E+10	1	-1E+10	1	-1E+10	1	-1E+10	1
4902551	107	C	08/01/2023	15:18	-131.145	47.607	0	10.90	0	16.8710	0	32.3720	0	23.530	0	10.809	0	236.0	4	97.0	4	-1E+10	1	-1E+10	1	-1E+10	1	-1E+10	1	-1E+10	1	-1E+10	1
4902551	107	C	08/01/2023	15:18	-131.145	47.607	0	11.70	0	16.8560	0	32.3760	0	23.536	0	11.602	0	236.4	4	97.1	4	-1E+10	1	-1E+10	1	-1E+10	1	-1E+10	1	-1E+10	1	-1E+10	1
4902551	107	C	08/01/2023	15:18	-131.145	47.607	0	12.90	0	16.8490	0	32.3760	0	23.538	0	12.792	0	236.9	4	97.3	4	-1E+10	1	-1E+10	1	-1E+10	1	-1E+10	1	-1E+10	1	-1E+10	1
4902551	107	C	08/01/2023	15:18	-131.145	47.607	0	14.10	0	16.8320	0	32.3780	0	23.543	0	13.982	0	237.5	4	97.5	4	-1E+10	1	-1E+10	1	-1E+10	1	-1E+10	1	-1E+10	1	-1E+10	1
4902551	107	C	08/01/2023	15:18	-131.145	47.607	0	14.90	0	16.8330	0	32.3790	0	23.544	0	14.775	0	237.9	4	97.7	4	-1E+10	1	-1E+10	1	-1E+10	1	-1E+10	1	-1E+10	1	-1E+10	1
4902551	107	C	08/01/2023	15:18	-131.145	47.607	0	16.00	0	16.8310	0	32.3800	0	23.545	0	15.866	0	238.7	4	98.0	4	-1E+10	1	-1E+10	1	-1E+10	1	-1E+10	1	-1E+10	1	-1E+10	1
4902551	107	C	08/01/2023	15:18	-131.145	47.607	0	17.10	0	16.8270	0	32.3800	0	23.546	0	16.956	0	239.5	4	98.4	4	-1E+10	1	-1E+10	1	-1E+10	1	-1E+10	1	-1E+10	1	-1E+10	1
4902551	107	C	08/01/2023	15:18	-131.145	47.607	0	17.80	0	16.8260	0	32.3810	0	23.547	0	17.651	0	240.4	4	98.7	4	-1E+10	1	-1E+10	1	-1E+10	1	-1E+10	1	-1E+10	1	-1E+10	1
4902551	107	C	08/01/2023	15:18	-131.145	47.607	0	18.80	0	16.8190	0	32.3810	0	23.549	0	18.642	0	241.5	4	99.2	4	-1E+10	1	-1E+10	1	-1E+10	1	-1E+10	1	-1E+10	1	-1E+10	1
4902551	107	C	08/01/2023	15:18	-131.145	47.607	0	19.90	0	16.8140	0	32.3790	0	23.549	0	19.733	0	243.7	4	100.1	4	-1E+10	1	-1E+10	1	-1E+10	1	-1E+10	1	-1E+10	1	-1E+10	1
4902551	107	C	08/01/2023	15:18	-131.145	47.607	0	21.20	0	16.7240	0	32.3740	0	23.566	0	21.022	0	247.6	4	101.5	4	-1E+10	1	-1E+10	1	-1E+10	1	-1E+10	1	-1E+10	1	-1E+10	1
4902551	107	C	08/01/2023	15:18	-131.145	47.607	0	22.10	0	16.1930	0	32.3820	0	23.693	0	21.914	0	252.7	4	102.5	4	-1E+10	1	-1E+10	1	-1E+10	1	-1E+10	1	-1E+10	1	-1E+10	1
4902551	107	C	08/01/2023	15:18	-131.145	47.607	0	23.10	0	15.8660	0	32.3820	0	23.766	0	22.906	0	258.4	4	104.2	4	-1E+10	1	-1E+10	1	-1E+10	1	-1E+10	1	-1E+10	1	-1E+10	1
4902551	107	C	08/01/2023	15:18	-131.145	47.607	0	24.00	0	15.6500	0	32.3870	0	23.818	0	23.798	0	264.3	4	106.1	4	-1E+10	1	-1E+10	1	-1E+10	1	-1E+10	1	-1E+10	1	-1E+10	1
4902551	107	C	08/01/2023	15:18	-131.145	47.607	0	25.10	0	15.2210	0	32.4040	0	23.925	0	24.889	0	271.8	4	108.2	4	-1E+10	1	-1E+10	1	-1E+10	1	-1E+10	1	-1E+10	1	-1E+10	1
4902551	107	C	08/01/2023	15:18	-131.145	47.607	0	26.00	0	14.3060	0	32.3950	0	24.113	0	25.781	0	277.6	4	108.5	4	-1E+10	1	-1E+10	1	-1E+10	1	-1E+10	1	-1E+10	1	-1E+10	1
4902551	107	C	08/01/2023	15:18	-131.145	47.607	0	27.00	0	13.8600	0	32.3940	0	24.204	0	26.773	0	279.5	4	108.3	4	-1E+10	1	-1E+10	1	-1E+10	1	-1E+10	1	-1E+10	1	-1E+10	1
4902551	107	C	08/01/2023	15:18	-131.145	47.607	0	28.10	0	13.2960	0	32.3900	0	24.315	0	27.863	0	283.5	4	108.6	4	-1E+10	1	-1E+10	1	-1E+10	1	-1E+10	1	-1E+10	1	-1E+10	1
4902551	107	C	08/01/2023	15:18	-131.145	47.607	0	29.10	0	12.8790	0	32.3980	0	24.403	0	28.855	0	285.9	4	108.6	4	-1E+10	1	-1E+10	1	-1E+10	1	-1E+10	1	-1E+10	1	-1E+10	1
4902551	107	C	08/01/2023	15:18	-131.145	47.607	0	30.20	0	12.7290	0	32.3800	0	24.418	0	29.945	0	287.2	4	108.7	4	-1E+10	1	-1E+10	1	-1E+10	1	-1E+10	1	-1E+10	1	-1E+10	1
4902551	107	C	08/01/2023	15:18	-131.145	47.607	0	31.00	0	12.5900	0	32.3850	0	24.449	0	30.739	0	288.0	4	108.7	4	-1E+10	1	-1E+10	1	-1E+10	1	-1E+10	1	-1E+10	1	-1E+10	1
4902551	107	C	08/01/2023	15:18	-131.145	47.607	0	31.90	0	12.4490	0	32.3820	0	24.473	0	31.631	0	289.2	4	108.9	4	-1E+10	1	-1E+10	1	-1E+10	1	-1E+10	1	-1E+10	1	-1E+10	1
4902551	107	C	08/01/2023	15:18	-131.145	47.607	0	33.20	0	12.2240	0	32.3830	0	24.517	0	32.920	0	290.3	4	108.7	4	-1E+10	1	-1E+10	1	-1E+10	1	-1E+10	1	-1E+10	1	-1E+10	1
4902551	107	C	08/01/2023	15:18	-131.145	47.607	0	34.10	0	12.1840	0	32.3820	0	24.523	0	33.812	0	290.7	4	108.8	4	-1E+10	1	-1E+10	1	-1E+10	1	-1E+10	1	-1E+10	1	-1E+10	1
4902551	107	C	08/01/2023	15:18	-131.145	47.607	0	35.10	0	12.1390	0	32.3820	0	24.532	0	34.804	0	291.5	4	109.0	4	-1E+10	1	-1E+10	1	-1E+10	1	-1E+10	1	-1E+10	1	-1E+10	1
4902551	107	C	08/01/2023	15:18	-131.145	47.607	0	36.00	0	11.9310	0	32.3710	0	24.562	0	35.696	0	292.8	4	109.0	4	-1E+10	1	-1E+10	1	-1E+10	1	-1E+10	1	-1E+10	1	-1E+10	1
4902551	107	C	08/01/2023	15:18	-131.145	47.607	0	37.20	0	11.5160	0	32.3880	0	24.651	0	36.886	0	294.1	4	108.6	4	-1E+10	1	-1E+10	1	-1E+10	1	-1E+10	1	-1E+10	1	-1E+10	1
4902551	107	C	08/01/2023	15:18	-131.145	47.607	0	38.10	0	11.1190	0	32.3880	0	24.722	0	37.778	0	294.5	4	107.8	4	-1E+10	1	-1E+10	1	-1E+10	1	-1E+10	1	-1E+10	1	-1E+10	1
4902551	107	C	08/01/2023	15:18	-131.145	47.607	0	38.90	0	10.9020	0	32.3820	0	24.756	0	38.571	0	295.1	4	107.5	4	-1E+10	1	-1E+10	1	-1E+10	1	-1E+10	1	-1E+10	1	-1E+10	1
4902551	107	C	08/01/2023	15:18	-131.145	47.607	0	39.90	0	10.7220	0	32.3920	0	24.795	0	39.563	0	295.0	4	107.1	4	-1E+10	1	-1E+10	1	-1E+10	1	-1E+10	1	-1E+10	1	-1E+10	1
4902551	107	C	08/01/2023	15:18	-131.145	47.607	0	40.80	0	10.5280	0	32.3850	0	24.823	0	40.455	0	295.0	4	106.6	4	-1E+10	1	-1E+10	1	-1E+10	1	-1E+10	1	-1E+10	1	-1E+10	1
4902551	107	C	08/01/2023	15:18	-131.145	47.607	0	41.90	0	10.2580	0	32.3800	0	24.865	0	41.546	0	294.4	4	105.8	4	-1E+10	1	-1E+10	1	-1E+10	1	-1E+10	1	-1E+10	1	-1E+10	1
4902551	107	C	08/01/2023	15:18	-131.145	47.607	0	42.80	0	9.9690	0	32.3830	0	24.915	0	42.438	0	294.4	4	105.2	4	-1E+10	1	-1E+10	1	-1E+10	1	-1E+10	1	-1E+10	1	-1E+10	1
4902551	107	C	08/01/2023	15:18	-131.145	47.607	0	43.90	0	9.7620	0	32.3820	0	24.949	0	43.529	0	293.8	4	104.5	4	-1E+10	1	-1E+10	1	-1E+10	1	-1E+10	1	-1E+10	1	-1E+10	1
4902551	107	C	08/01/2023	15:18	-131.145	47.607	0	45.20	0	9.5980	0	32.3780	0	24.972	0	44.817	0	292.5	4	103.6	4	-1E+10	1	-1E+10	1	-1E+10	1	-1E+10	1	-1E+10	1	-1E+10	1
4902551	107	C	08/01/2023	15:18	-131.145	47.607	0	45.80	0	9.4950	0	32.3810	0	24.991	0	45.412	0	291.6	4	103.1	4	-1E+10	1	-1E+10	1	-1E+10	1	-1E+10	1	-1E+10	1	-1E+10	1
4902551	107	C	08/01/2023	15:18	-131.145	47.607	0	46.90	0	9.3390	0	32.3850	0	25.019	0	46.503	0	290.5	4	102.3	4	-1E+10	1	-1E+10	1	-1E+10	1	-1E+10	1	-1E+10	1	-1E+10	1
4902551	107	C	08/01/2023	15:18	-131.145	47.607	0	48.30	0	9.2240	0	32.3900	0	25.041	0	47.891	0	288.9	4	101.5	4	-1E+10	1	-1E+10	1	-1E+10	1	-1E+10	1	-1E+10	1	-1E+10	1
4902551	107	C	08/01/2023	15:18	-131.145	47.607	0	48.90	0	9.1560	0	32.3910	0	25.053	0	48.486	0	288.5	4	101.2	4	-1E+10	1	-1E+10	1	-1E+10	1	-1E+10	1	-1E+10	1	-1E+10	1
4902551	107	C	08/01/2023	15:18	-131.145	47.607	0	49.80	0	9.1120	0	32.3900	0	25.059	0	49.378	0	287.4	4	100.7	4	-1E+10	1	-1E+10	1	-1E+10	1	-1E+10	1	-1E+10	1	-1E+10	1
4902551	107	C	08/01/2023	15:18	-131.145	47.607	0	51.10	0	8.9700	0	32.3940	0	25.084	0	50.667	0	286.4	4	100.1	4	-1E+10	1	-1E+10	1	-1E+10	1	-1E+10	1	-1E+10	1	-1E+10	1
4902551	107	C	08/01/2023	15:18	-131.145	47.607	0	52.10	0	8.9100	0	32.3930	0	25.092	0	51.658	0	285.6	4	99.7	4	-1E+10	1	-1E+10	1	-1E+10	1	-1E+10	1	-1E+10	1	-1E+10	1
4902551	107	C	08/01/2023	15:18	-131.145	47.607	0	53.10	0	8.8860	0	32.3920	0	25.095	0	52.650	0	284.5	4	99.2	4	-1E+10	1	-1E+10	1	-1E+10	1	-1E+10	1	-1E+10	1	-1E+10	1
4902551	107	C	08/01/2023	15:18	-131.145	47.607	0	53.90	0	8.8740	0	32.3920	0	25.097	0	53.443	0	283.6	4	98.9	4	-1E+10	1	-1E+10	1	-1E+10	1	-1E+10	1	-1E+10	1	-1E+10	1
4902551	107	C	08/01/2023	15:18	-131.145	47.607	0	54.70	0	8.8200	0	32.3960	0	25.109	0	54.236	0	282.9	4	98.5	4	-1E+10	1	-1E+10	1	-1E+10	1	-1E+10	1	-1E+10	1	-1E+10	1
4902551	107	C	08/01/2023	15:18	-131.145	47.607	0	55.80	0	8.7710	0	32.3970	0	25.117	0	55.326	0	281.7	4	98.0	4	-1E+10	1	-1E+10	1	-1E+10	1	-1E+10	1	-1E+10	1	-1E+10	1
4902551	107	C	08/01/2023	15:18	-131.145	47.607	0	56.90	0	8.7210	0	32.3970	0	25.124	0	56.417	0	280.6	4	97.5	4	-1E+10	1	-1E+10	1	-1E+10	1	-1E+10	1	-1E+10	1	-1E+10	1
4902551	107	C	08/01/2023	15:18	-131.145	47.607	0	58.10	0	8.6760	0	32.3960	0	25.130	0	57.606	0	279.4	4	97.0	4	-1E+10	1	-1E+10	1	-1E+10	1	-1E+10	1	-1E+10	1	-1E+10	1
4902551	107	C	08/01/2023	15:18	-131.145	47.607	0	59.00	0	8.5600	0	32.4130	0	25.161	0	58.499	0	278.9	4	96.6	4	-1E+10	1	-1E+10	1	-1E+10	1	-1E+10	1	-1E+10	1	-1E+10	1
4902551	107	C	08/01/2023	15:18	-131.145	47.607	0	59.80	0	8.5170	0	32.3970	0	25.155	0	59.292	0	278.5	4	96.3	4	-1E+10	1	-1E+10	1	-1E+10	1	-1E+10	1	-1E+10	1	-1E+10	1
4902551	107	C	08/01/2023	15:18	-131.145	47.607	0	61.00	0	8.4910	0	32.3990	0	25.161	0	60.481	0	277.7	4	96.0	4	-1E+10	1	-1E+10	1	-1E+10	1	-1E+10	1	-1E+10	1	-1E+10	1
4902551	107	C	08/01/2023	15:18	-131.145	47.607	0	61.90	0	8.4630	0	32.3990	0	25.165	0	61.374	0	277.1	4	95.7	4	-1E+10	1	-1E+10	1	-1E+10	1	-1E+10	1	-1E+10	1	-1E+10	1
4902551	107	C	08/01/2023	15:18	-131.145	47.607	0	62.80	0	8.4530	0	32.3970	0	25.165	0	62.266	0	276.4	4	95.5	4	-1E+10	1	-1E+10	1	-1E+10	1	-1E+10	1	-1E+10	1	-1E+10	1
4902551	107	C	08/01/2023	15:18	-131.145	47.607	0	64.00	0	8.4000	0	32.4020	0	25.177	0	63.455	0	275.4	4	95.0	4	-1E+10	1	-1E+10	1	-1E+10	1	-1E+10	1	-1E+10	1	-1E+10	1
4902551	107	C	08/01/2023	15:18	-131.145	47.607	0	64.90	0	8.3540	0	32.4010	0	25.183	0	64.348	0	274.8	4	94.7	4	-1E+10	1	-1E+10	1	-1E+10	1	-1E+10	1	-1E+10	1	-1E+10	1
4902551	107	C	08/01/2023	15:18	-131.145	47.607	0	65.80	0	8.3130	0	32.4010	0	25.189	0	65.240	0	274.2	4	94.5	4	-1E+10	1	-1E+10	1	-1E+10	1	-1E+10	1	-1E+10	1	-1E+10	1
4902551	107	C	08/01/2023	15:18	-131.145	47.607	0	67.00	0	8.2390	0	32.4020	0	25.200	0	66.429	0	273.5	4	94.0	4	-1E+10	1	-1E+10	1	-1E+10	1	-1E+10	1	-1E+10	1	-1E+10	1
4902551	107	C	08/01/2023	15:18	-131.145	47.607	0	67.90	0	8.1850	0	32.4010	0	25.208	0	67.322	0	273.1	4	93.8	4	-1E+10	1	-1E+10	1	-1E+10	1	-1E+10	1	-1E+10	1	-1E+10	1
4902551	107	C	08/01/2023	15:18	-131.145	47.607	0	68.80	0	8.1650	0	32.3990	0	25.209	0	68.214	0	272.6	4	93.6	4	-1E+10	1	-1E+10	1	-1E+10	1	-1E+10	1	-1E+10	1	-1E+10	1
4902551	107	C	08/01/2023	15:18	-131.145	47.607	0	70.00	0	8.1090	0	32.4000	0	25.218	0	69.403	0	272.1	4	93.3	4	-1E+10	1	-1E+10	1	-1E+10	1	-1E+10	1	-1E+10	1	-1E+10	1
4902551	107	C	08/01/2023	15:18	-131.145	47.607	0	71.10	0	8.0430	0	32.3940	0	25.223	0	70.494	0	271.7	4	93.0	4	-1E+10	1	-1E+10	1	-1E+10	1	-1E+10	1	-1E+10	1	-1E+10	1
4902551	107	C	08/01/2023	15:18	-131.145	47.607	0	72.00	0	8.0220	0	32.3970	0	25.228	0	71.386	0	271.2	4	92.8	4	-1E+10	1	-1E+10	1	-1E+10	1	-1E+10	1	-1E+10	1	-1E+10	1
4902551	107	C	08/01/2023	15:18	-131.145	47.607	0	72.90	0	7.9920	0	32.3970	0	25.233	0	72.278	0	270.7	4	92.6	4	-1E+10	1	-1E+10	1	-1E+10	1	-1E+10	1	-1E+10	1	-1E+10	1
4902551	107	C	08/01/2023	15:18	-131.145	47.607	0	74.00	0	7.9340	0	32.3940	0	25.239	0	73.369	0	270.5	4	92.4	4	-1E+10	1	-1E+10	1	-1E+10	1	-1E+10	1	-1E+10	1	-1E+10	1
4902551	107	C	08/01/2023	15:18	-131.145	47.607	0	74.90	0	7.9240	0	32.3960	0	25.242	0	74.261	0	270.3	4	92.3	4	-1E+10	1	-1E+10	1	-1E+10	1	-1E+10	1	-1E+10	1	-1E+10	1
4902551	107	C	08/01/2023	15:18	-131.145	47.607	0	75.70	0	7.8960	0	32.3960	0	25.246	0	75.054	0	270.1	4	92.2	4	-1E+10	1	-1E+10	1	-1E+10	1	-1E+10	1	-1E+10	1	-1E+10	1
4902551	107	C	08/01/2023	15:18	-131.145	47.607	0	76.70	0	7.8500	0	32.3920	0	25.249	0	76.045	0	270.1	4	92.1	4	-1E+10	1	-1E+10	1	-1E+10	1	-1E+10	1	-1E+10	1	-1E+10	1
4902551	107	C	08/01/2023	15:18	-131.145	47.607	0	78.00	0	7.8370	0	32.3950	0	25.253	0	77.334	0	269.7	4	91.9	4	-1E+10	1	-1E+10	1	-1E+10	1	-1E+10	1	-1E+10	1	-1E+10	1
4902551	107	C	08/01/2023	15:18	-131.145	47.607	0	79.00	0	7.8220	0	32.3970	0	25.257	0	78.325	0	269.3	4	91.7	4	-1E+10	1	-1E+10	1	-1E+10	1	-1E+10	1	-1E+10	1	-1E+10	1
4902551	107	C	08/01/2023	15:18	-131.145	47.607	0	80.10	0	7.7930	0	32.3980	0	25.262	0	79.415	0	268.9	4	91.5	4	-1E+10	1	-1E+10	1	-1E+10	1	-1E+10	1	-1E+10	1	-1E+10	1
4902551	107	C	08/01/2023	15:18	-131.145	47.607	0	80.90	0	7.7730	0	32.3970	0	25.264	0	80.208	0	268.7	4	91.4	4	-1E+10	1	-1E+10	1	-1E+10	1	-1E+10	1	-1E+10	1	-1E+10	1
4902551	107	C	08/01/2023	15:18	-131.145	47.607	0	82.10	0	7.7590	0	32.3980	0	25.267	0	81.398	0	268.2	4	91.2	4	-1E+10	1	-1E+10	1	-1E+10	1	-1E+10	1	-1E+10	1	-1E+10	1
4902551	107	C	08/01/2023	15:18	-131.145	47.607	0	83.00	0	7.7310	0	32.3960	0	25.269	0	82.290	0	274.9	4	93.4	4	-1E+10	1	-1E+10	1	-1E+10	1	-1E+10	1	-1E+10	1	-1E+10	1
4902551	107	C	08/01/2023	15:18	-131.145	47.607	0	84.00	0	7.7210	0	32.3960	0	25.270	0	83.281	0	274.6	4	93.3	4	-1E+10	1	-1E+10	1	-1E+10	1	-1E+10	1	-1E+10	1	-1E+10	1
4902551	107	C	08/01/2023	15:18	-131.145	47.607	0	85.00	0	7.7060	0	32.4000	0	25.276	0	84.272	0	274.5	4	93.3	4	-1E+10	1	-1E+10	1	-1E+10	1	-1E+10	1	-1E+10	1	-1E+10	1
4902551	107	C	08/01/2023	15:18	-131.145	47.607	0	86.00	0	7.6800	0	32.3970	0	25.277	0	85.264	0	274.3	4	93.1	4	-1E+10	1	-1E+10	1	-1E+10	1	-1E+10	1	-1E+10	1	-1E+10	1
4902551	107	C	08/01/2023	15:18	-131.145	47.607	0	87.10	0	7.6770	0	32.3990	0	25.279	0	86.354	0	273.9	4	93.0	4	-1E+10	1	-1E+10	1	-1E+10	1	-1E+10	1	-1E+10	1	-1E+10	1
4902551	107	C	08/01/2023	15:18	-131.145	47.607	0	87.80	0	7.6770	0	32.4000	0	25.280	0	87.048	0	273.7	4	92.9	4	-1E+10	1	-1E+10	1	-1E+10	1	-1E+10	1	-1E+10	1	-1E+10	1
4902551	107	C	08/01/2023	15:18	-131.145	47.607	0	88.80	0	7.6540	0	32.4030	0	25.285	0	88.039	0	273.4	4	92.8	4	-1E+10	1	-1E+10	1	-1E+10	1	-1E+10	1	-1E+10	1	-1E+10	1
4902551	107	C	08/01/2023	15:18	-131.145	47.607	0	89.90	0	7.6460	0	32.4030	0	25.287	0	89.129	0	273.0	4	92.6	4	-1E+10	1	-1E+10	1	-1E+10	1	-1E+10	1	-1E+10	1	-1E+10	1
4902551	107	C	08/01/2023	15:18	-131.145	47.607	0	90.90	0	7.6490	0	32.4060	0	25.289	0	90.121	0	272.6	4	92.5	4	-1E+10	1	-1E+10	1	-1E+10	1	-1E+10	1	-1E+10	1	-1E+10	1
4902551	107	C	08/01/2023	15:18	-131.145	47.607	0	91.90	0	7.6540	0	32.4060	0	25.288	0	91.112	0	272.0	4	92.3	4	-1E+10	1	-1E+10	1	-1E+10	1	-1E+10	1	-1E+10	1	-1E+10	1
4902551	107	C	08/01/2023	15:18	-131.145	47.607	0	93.00	0	7.6570	0	32.4070	0	25.288	0	92.202	0	271.4	4	92.1	4	-1E+10	1	-1E+10	1	-1E+10	1	-1E+10	1	-1E+10	1	-1E+10	1
4902551	107	C	08/01/2023	15:18	-131.145	47.607	0	94.00	0	7.6580	0	32.4090	0	25.290	0	93.193	0	270.9	4	91.9	4	-1E+10	1	-1E+10	1	-1E+10	1	-1E+10	1	-1E+10	1	-1E+10	1
4902551	107	C	08/01/2023	15:18	-131.145	47.607	0	95.10	0	7.6370	0	32.4080	0	25.292	0	94.284	0	270.2	4	91.7	4	-1E+10	1	-1E+10	1	-1E+10	1	-1E+10	1	-1E+10	1	-1E+10	1
4902551	107	C	08/01/2023	15:18	-131.145	47.607	0	95.80	0	7.6170	0	32.4090	0	25.295	0	94.977	0	269.8	4	91.5	4	-1E+10	1	-1E+10	1	-1E+10	1	-1E+10	1	-1E+10	1	-1E+10	1
4902551	107	C	08/01/2023	15:18	-131.145	47.607	0	97.00	0	7.5940	0	32.4090	0	25.299	0	96.167	0	269.2	4	91.2	4	-1E+10	1	-1E+10	1	-1E+10	1	-1E+10	1	-1E+10	1	-1E+10	1
4902551	107	C	08/01/2023	15:18	-131.145	47.607	0	98.10	0	7.5830	0	32.4100	0	25.301	0	97.257	0	268.5	4	91.0	4	-1E+10	1	-1E+10	1	-1E+10	1	-1E+10	1	-1E+10	1	-1E+10	1
4902551	107	C	08/01/2023	15:18	-131.145	47.607	0	98.90	0	7.5770	0	32.4110	0	25.303	0	98.050	0	267.8	4	90.7	4	-1E+10	1	-1E+10	1	-1E+10	1	-1E+10	1	-1E+10	1	-1E+10	1
4902551	107	C	08/01/2023	15:18	-131.145	47.607	0	100.10	0	7.5670	0	32.4140	0	25.306	0	99.240	0	266.6	4	90.3	4	-1E+10	1	-1E+10	1	-1E+10	1	-1E+10	1	-1E+10	1	-1E+10	1
4902551	107	C	08/01/2023	15:18	-131.145	47.607	0	100.90	0	7.5590	0	32.4150	0	25.308	0	100.032	0	265.5	4	89.9	4	-1E+10	1	-1E+10	1	-1E+10	1	-1E+10	1	-1E+10	1	-1E+10	1
4902551	107	C	08/01/2023	15:18	-131.145	47.607	0	102.20	0	7.5180	0	32.4160	0	25.315	0	101.321	0	263.8	4	89.3	4	-1E+10	1	-1E+10	1	-1E+10	1	-1E+10	1	-1E+10	1	-1E+10	1
4902551	107	C	08/01/2023	15:18	-131.145	47.607	0	102.80	0	7.5070	0	32.4160	0	25.316	0	101.916	0	263.0	4	88.9	4	-1E+10	1	-1E+10	1	-1E+10	1	-1E+10	1	-1E+10	1	-1E+10	1
4902551	107	C	08/01/2023	15:18	-131.145	47.607	0	103.90	0	7.4800	0	32.4210	0	25.324	0	103.006	0	261.3	4	88.3	4	-1E+10	1	-1E+10	1	-1E+10	1	-1E+10	1	-1E+10	1	-1E+10	1
4902551	107	C	08/01/2023	15:18	-131.145	47.607	0	104.90	0	7.4620	0	32.4280	0	25.332	0	103.997	0	259.8	4	87.8	4	-1E+10	1	-1E+10	1	-1E+10	1	-1E+10	1	-1E+10	1	-1E+10	1
4902551	107	C	08/01/2023	15:18	-131.145	47.607	0	106.00	0	7.4430	0	32.4360	0	25.341	0	105.087	0	258.1	4	87.2	4	-1E+10	1	-1E+10	1	-1E+10	1	-1E+10	1	-1E+10	1	-1E+10	1
4902551	107	C	08/01/2023	15:18	-131.145	47.607	0	107.10	0	7.4570	0	32.4490	0	25.349	0	106.178	0	254.6	4	86.0	4	-1E+10	1	-1E+10	1	-1E+10	1	-1E+10	1	-1E+10	1	-1E+10	1
4902551	107	C	08/01/2023	15:18	-131.145	47.607	0	107.90	0	7.4720	0	32.4570	0	25.353	0	106.970	0	252.4	4	85.3	4	-1E+10	1	-1E+10	1	-1E+10	1	-1E+10	1	-1E+10	1	-1E+10	1
4902551	107	C	08/01/2023	15:18	-131.145	47.607	0	109.10	0	7.4570	0	32.4720	0	25.367	0	108.160	0	249.0	4	84.2	4	-1E+10	1	-1E+10	1	-1E+10	1	-1E+10	1	-1E+10	1	-1E+10	1
4902551	107	C	08/01/2023	15:18	-131.145	47.607	0	109.90	0	7.4260	0	32.5090	0	25.401	0	108.953	0	246.5	4	83.3	4	-1E+10	1	-1E+10	1	-1E+10	1	-1E+10	1	-1E+10	1	-1E+10	1
4902551	107	C	08/01/2023	15:18	-131.145	47.607	0	111.00	0	7.3930	0	32.5510	0	25.438	0	110.043	0	242.6	4	81.9	4	-1E+10	1	-1E+10	1	-1E+10	1	-1E+10	1	-1E+10	1	-1E+10	1
4902551	107	C	08/01/2023	15:18	-131.145	47.607	0	112.00	0	7.3620	0	32.5830	0	25.468	0	111.034	0	236.4	4	79.8	4	-1E+10	1	-1E+10	1	-1E+10	1	-1E+10	1	-1E+10	1	-1E+10	1
4902551	107	C	08/01/2023	15:18	-131.145	47.607	0	113.00	0	7.3360	0	32.6240	0	25.504	0	112.025	0	231.7	4	78.2	4	-1E+10	1	-1E+10	1	-1E+10	1	-1E+10	1	-1E+10	1	-1E+10	1
4902551	107	C	08/01/2023	15:18	-131.145	47.607	0	113.90	0	7.3220	0	32.6430	0	25.520	0	112.917	0	228.1	4	77.0	4	-1E+10	1	-1E+10	1	-1E+10	1	-1E+10	1	-1E+10	1	-1E+10	1
4902551	107	C	08/01/2023	15:18	-131.145	47.607	0	115.00	0	7.3170	0	32.6600	0	25.535	0	114.007	0	223.5	4	75.4	4	-1E+10	1	-1E+10	1	-1E+10	1	-1E+10	1	-1E+10	1	-1E+10	1
4902551	107	C	08/01/2023	15:18	-131.145	47.607	0	115.90	0	7.3060	0	32.6870	0	25.557	0	114.899	0	219.8	4	74.2	4	-1E+10	1	-1E+10	1	-1E+10	1	-1E+10	1	-1E+10	1	-1E+10	1
4902551	107	C	08/01/2023	15:18	-131.145	47.607	0	116.80	0	7.2450	0	32.7840	0	25.642	0	115.791	0	216.5	4	73.0	4	-1E+10	1	-1E+10	1	-1E+10	1	-1E+10	1	-1E+10	1	-1E+10	1
4902551	107	C	08/01/2023	15:18	-131.145	47.607	0	117.90	0	7.2210	0	32.8270	0	25.679	0	116.881	0	213.1	4	71.8	4	-1E+10	1	-1E+10	1	-1E+10	1	-1E+10	1	-1E+10	1	-1E+10	1
4902551	107	C	08/01/2023	15:18	-131.145	47.607	0	119.00	0	7.2140	0	32.8350	0	25.686	0	117.972	0	208.5	4	70.3	4	-1E+10	1	-1E+10	1	-1E+10	1	-1E+10	1	-1E+10	1	-1E+10	1
4902551	107	C	08/01/2023	15:18	-131.145	47.607	0	120.20	0	7.2090	0	32.8710	0	25.715	0	119.161	0	205.2	4	69.2	4	-1E+10	1	-1E+10	1	-1E+10	1	-1E+10	1	-1E+10	1	-1E+10	1
4902551	107	C	08/01/2023	15:18	-131.145	47.607	0	121.10	0	7.1960	0	32.9530	0	25.782	0	120.053	0	198.7	4	67.0	4	-1E+10	1	-1E+10	1	-1E+10	1	-1E+10	1	-1E+10	1	-1E+10	1
4902551	107	C	08/01/2023	15:18	-131.145	47.607	0	122.10	0	7.1950	0	33.0040	0	25.822	0	121.044	0	194.6	4	65.6	4	-1E+10	1	-1E+10	1	-1E+10	1	-1E+10	1	-1E+10	1	-1E+10	1
4902551	107	C	08/01/2023	15:18	-131.145	47.607	0	122.90	0	7.2080	0	33.0380	0	25.847	0	121.837	0	192.4	4	64.9	4	-1E+10	1	-1E+10	1	-1E+10	1	-1E+10	1	-1E+10	1	-1E+10	1
4902551	107	C	08/01/2023	15:18	-131.145	47.607	0	123.80	0	7.2180	0	33.0670	0	25.868	0	122.729	0	188.8	4	63.8	4	-1E+10	1	-1E+10	1	-1E+10	1	-1E+10	1	-1E+10	1	-1E+10	1
4902551	107	C	08/01/2023	15:18	-131.145	47.607	0	125.00	0	7.2180	0	33.1180	0	25.909	0	123.918	0	184.0	4	62.2	4	-1E+10	1	-1E+10	1	-1E+10	1	-1E+10	1	-1E+10	1	-1E+10	1
4902551	107	C	08/01/2023	15:18	-131.145	47.607	0	126.20	0	7.2050	0	33.1720	0	25.953	0	125.107	0	179.4	4	60.6	4	-1E+10	1	-1E+10	1	-1E+10	1	-1E+10	1	-1E+10	1	-1E+10	1
4902551	107	C	08/01/2023	15:18	-131.145	47.607	0	126.80	0	7.2190	0	33.1950	0	25.969	0	125.702	0	176.6	4	59.7	4	-1E+10	1	-1E+10	1	-1E+10	1	-1E+10	1	-1E+10	1	-1E+10	1
4902551	107	C	08/01/2023	15:18	-131.145	47.607	0	127.70	0	7.2480	0	33.2170	0	25.982	0	126.594	0	173.5	4	58.7	4	-1E+10	1	-1E+10	1	-1E+10	1	-1E+10	1	-1E+10	1	-1E+10	1
4902551	107	C	08/01/2023	15:18	-131.145	47.607	0	129.10	0	7.2550	0	33.2700	0	26.023	0	127.981	0	168.6	4	57.1	4	-1E+10	1	-1E+10	1	-1E+10	1	-1E+10	1	-1E+10	1	-1E+10	1
4902551	107	C	08/01/2023	15:18	-131.145	47.607	0	130.00	0	7.2550	0	33.2910	0	26.040	0	128.873	0	166.4	4	56.3	4	-1E+10	1	-1E+10	1	-1E+10	1	-1E+10	1	-1E+10	1	-1E+10	1
4902551	107	C	08/01/2023	15:18	-131.145	47.607	0	130.80	0	7.2410	0	33.3330	0	26.075	0	129.666	0	164.4	4	55.7	4	-1E+10	1	-1E+10	1	-1E+10	1	-1E+10	1	-1E+10	1	-1E+10	1
4902551	107	C	08/01/2023	15:18	-131.145	47.607	0	131.90	0	7.2550	0	33.3930	0	26.120	0	130.756	0	162.7	4	55.1	4	-1E+10	1	-1E+10	1	-1E+10	1	-1E+10	1	-1E+10	1	-1E+10	1
4902551	107	C	08/01/2023	15:18	-131.145	47.607	0	133.00	0	7.2540	0	33.4210	0	26.142	0	131.846	0	161.5	4	54.7	4	-1E+10	1	-1E+10	1	-1E+10	1	-1E+10	1	-1E+10	1	-1E+10	1
4902551	107	C	08/01/2023	15:18	-131.145	47.607	0	134.00	0	7.2520	0	33.4320	0	26.151	0	132.837	0	160.4	4	54.3	4	-1E+10	1	-1E+10	1	-1E+10	1	-1E+10	1	-1E+10	1	-1E+10	1
4902551	107	C	08/01/2023	15:18	-131.145	47.607	0	135.10	0	7.2400	0	33.4410	0	26.160	0	133.927	0	159.2	4	53.9	4	-1E+10	1	-1E+10	1	-1E+10	1	-1E+10	1	-1E+10	1	-1E+10	1
4902551	107	C	08/01/2023	15:18	-131.145	47.607	0	136.10	0	7.2390	0	33.4550	0	26.171	0	134.918	0	158.0	4	53.5	4	-1E+10	1	-1E+10	1	-1E+10	1	-1E+10	1	-1E+10	1	-1E+10	1
4902551	107	C	08/01/2023	15:18	-131.145	47.607	0	136.90	0	7.2380	0	33.4600	0	26.175	0	135.711	0	157.0	4	53.2	4	-1E+10	1	-1E+10	1	-1E+10	1	-1E+10	1	-1E+10	1	-1E+10	1
4902551	107	C	08/01/2023	15:18	-131.145	47.607	0	137.80	0	7.2440	0	33.4800	0	26.190	0	136.603	0	156.2	4	52.9	4	-1E+10	1	-1E+10	1	-1E+10	1	-1E+10	1	-1E+10	1	-1E+10	1
4902551	107	C	08/01/2023	15:18	-131.145	47.607	0	139.00	0	7.2360	0	33.5340	0	26.234	0	137.792	0	155.6	4	52.7	4	-1E+10	1	-1E+10	1	-1E+10	1	-1E+10	1	-1E+10	1	-1E+10	1
4902551	107	C	08/01/2023	15:18	-131.145	47.607	0	140.10	0	7.1310	0	33.5560	0	26.265	0	138.882	0	154.8	4	52.3	4	-1E+10	1	-1E+10	1	-1E+10	1	-1E+10	1	-1E+10	1	-1E+10	1
4902551	107	C	08/01/2023	15:18	-131.145	47.607	0	140.80	0	7.1310	0	33.5570	0	26.266	0	139.576	0	154.0	4	52.1	4	-1E+10	1	-1E+10	1	-1E+10	1	-1E+10	1	-1E+10	1	-1E+10	1
4902551	107	C	08/01/2023	15:18	-131.145	47.607	0	141.80	0	7.1310	0	33.5630	0	26.271	0	140.567	0	152.7	4	51.6	4	-1E+10	1	-1E+10	1	-1E+10	1	-1E+10	1	-1E+10	1	-1E+10	1
4902551	107	C	08/01/2023	15:18	-131.145	47.607	0	142.90	0	7.1380	0	33.5740	0	26.279	0	141.657	0	151.5	4	51.2	4	-1E+10	1	-1E+10	1	-1E+10	1	-1E+10	1	-1E+10	1	-1E+10	1
4902551	107	C	08/01/2023	15:18	-131.145	47.607	0	144.00	0	7.1430	0	33.5820	0	26.284	0	142.747	0	150.3	4	50.8	4	-1E+10	1	-1E+10	1	-1E+10	1	-1E+10	1	-1E+10	1	-1E+10	1
4902551	107	C	08/01/2023	15:18	-131.145	47.607	0	145.20	0	7.1450	0	33.5890	0	26.290	0	143.936	0	149.0	4	50.4	4	-1E+10	1	-1E+10	1	-1E+10	1	-1E+10	1	-1E+10	1	-1E+10	1
4902551	107	C	08/01/2023	15:18	-131.145	47.607	0	145.90	0	7.1450	0	33.5910	0	26.291	0	144.630	0	148.1	4	50.1	4	-1E+10	1	-1E+10	1	-1E+10	1	-1E+10	1	-1E+10	1	-1E+10	1
4902551	107	C	08/01/2023	15:18	-131.145	47.607	0	146.70	0	7.1550	0	33.6040	0	26.300	0	145.423	0	147.5	4	49.9	4	-1E+10	1	-1E+10	1	-1E+10	1	-1E+10	1	-1E+10	1	-1E+10	1
4902551	107	C	08/01/2023	15:18	-131.145	47.607	0	147.80	0	7.1720	0	33.6220	0	26.312	0	146.513	0	146.4	4	49.6	4	-1E+10	1	-1E+10	1	-1E+10	1	-1E+10	1	-1E+10	1	-1E+10	1
4902551	107	C	08/01/2023	15:18	-131.145	47.607	0	149.10	0	7.1720	0	33.6370	0	26.324	0	147.801	0	145.4	4	49.2	4	-1E+10	1	-1E+10	1	-1E+10	1	-1E+10	1	-1E+10	1	-1E+10	1
4902551	107	C	08/01/2023	15:18	-131.145	47.607	0	149.90	0	7.1670	0	33.6350	0	26.323	0	148.594	0	144.9	4	49.1	4	-1E+10	1	-1E+10	1	-1E+10	1	-1E+10	1	-1E+10	1	-1E+10	1
4902551	107	C	08/01/2023	15:18	-131.145	47.607	0	150.70	0	7.1610	0	33.6370	0	26.325	0	149.386	0	144.3	4	48.9	4	-1E+10	1	-1E+10	1	-1E+10	1	-1E+10	1	-1E+10	1	-1E+10	1
4902551	107	C	08/01/2023	15:18	-131.145	47.607	0	151.90	0	7.1580	0	33.6370	0	26.326	0	150.575	0	143.2	4	48.5	4	-1E+10	1	-1E+10	1	-1E+10	1	-1E+10	1	-1E+10	1	-1E+10	1
4902551	107	C	08/01/2023	15:18	-131.145	47.607	0	153.10	0	7.1560	0	33.6440	0	26.331	0	151.764	0	142.0	4	48.1	4	-1E+10	1	-1E+10	1	-1E+10	1	-1E+10	1	-1E+10	1	-1E+10	1
4902551	107	C	08/01/2023	15:18	-131.145	47.607	0	153.90	0	7.1660	0	33.6550	0	26.339	0	152.557	0	141.1	4	47.8	4	-1E+10	1	-1E+10	1	-1E+10	1	-1E+10	1	-1E+10	1	-1E+10	1
4902551	107	C	08/01/2023	15:18	-131.145	47.607	0	154.70	0	7.1630	0	33.6590	0	26.342	0	153.350	0	140.3	4	47.5	4	-1E+10	1	-1E+10	1	-1E+10	1	-1E+10	1	-1E+10	1	-1E+10	1
4902551	107	C	08/01/2023	15:18	-131.145	47.607	0	156.00	0	7.1610	0	33.6770	0	26.357	0	154.638	0	139.4	4	47.2	4	-1E+10	1	-1E+10	1	-1E+10	1	-1E+10	1	-1E+10	1	-1E+10	1
4902551	107	C	08/01/2023	15:18	-131.145	47.607	0	157.20	0	7.1760	0	33.6850	0	26.361	0	155.827	0	138.7	4	47.0	4	-1E+10	1	-1E+10	1	-1E+10	1	-1E+10	1	-1E+10	1	-1E+10	1
4902551	107	C	08/01/2023	15:18	-131.145	47.607	0	158.00	0	7.1830	0	33.6880	0	26.362	0	156.620	0	138.2	4	46.9	4	-1E+10	1	-1E+10	1	-1E+10	1	-1E+10	1	-1E+10	1	-1E+10	1
4902551	107	C	08/01/2023	15:18	-131.145	47.607	0	158.80	0	7.1990	0	33.6960	0	26.367	0	157.413	0	138.0	4	46.8	4	-1E+10	1	-1E+10	1	-1E+10	1	-1E+10	1	-1E+10	1	-1E+10	1
4902551	107	C	08/01/2023	15:18	-131.145	47.607	0	159.60	0	7.1900	0	33.7130	0	26.381	0	158.205	0	137.8	4	46.7	4	-1E+10	1	-1E+10	1	-1E+10	1	-1E+10	1	-1E+10	1	-1E+10	1
4902551	107	C	08/01/2023	15:18	-131.145	47.607	0	160.90	0	7.1200	0	33.7230	0	26.399	0	159.493	0	137.4	4	46.5	4	-1E+10	1	-1E+10	1	-1E+10	1	-1E+10	1	-1E+10	1	-1E+10	1
4902551	107	C	08/01/2023	15:18	-131.145	47.607	0	162.20	0	7.0770	0	33.7370	0	26.416	0	160.782	0	136.6	4	46.2	4	-1E+10	1	-1E+10	1	-1E+10	1	-1E+10	1	-1E+10	1	-1E+10	1
4902551	107	C	08/01/2023	15:18	-131.145	47.607	0	163.00	0	7.0700	0	33.7520	0	26.428	0	161.574	0	136.3	4	46.1	4	-1E+10	1	-1E+10	1	-1E+10	1	-1E+10	1	-1E+10	1	-1E+10	1
4902551	107	C	08/01/2023	15:18	-131.145	47.607	0	163.90	0	6.9990	0	33.7540	0	26.440	0	162.466	0	136.0	4	45.9	4	-1E+10	1	-1E+10	1	-1E+10	1	-1E+10	1	-1E+10	1	-1E+10	1
4902551	107	C	08/01/2023	15:18	-131.145	47.607	0	164.80	0	6.9930	0	33.7530	0	26.440	0	163.358	0	135.4	4	45.7	4	-1E+10	1	-1E+10	1	-1E+10	1	-1E+10	1	-1E+10	1	-1E+10	1
4902551	107	C	08/01/2023	15:18	-131.145	47.607	0	165.70	0	6.9900	0	33.7540	0	26.441	0	164.250	0	134.8	4	45.5	4	-1E+10	1	-1E+10	1	-1E+10	1	-1E+10	1	-1E+10	1	-1E+10	1
4902551	107	C	08/01/2023	15:18	-131.145	47.607	0	166.90	0	6.9920	0	33.7600	0	26.445	0	165.439	0	133.9	4	45.2	4	-1E+10	1	-1E+10	1	-1E+10	1	-1E+10	1	-1E+10	1	-1E+10	1
4902551	107	C	08/01/2023	15:18	-131.145	47.607	0	168.30	0	6.9970	0	33.7650	0	26.449	0	166.826	0	133.3	4	45.0	4	-1E+10	1	-1E+10	1	-1E+10	1	-1E+10	1	-1E+10	1	-1E+10	1
4902551	107	C	08/01/2023	15:18	-131.145	47.607	0	169.10	0	6.9970	0	33.7700	0	26.453	0	167.618	0	133.0	4	44.9	4	-1E+10	1	-1E+10	1	-1E+10	1	-1E+10	1	-1E+10	1	-1E+10	1
4902551	107	C	08/01/2023	15:18	-131.145	47.607	0	169.90	0	6.9880	0	33.7700	0	26.454	0	168.411	0	132.7	4	44.8	4	-1E+10	1	-1E+10	1	-1E+10	1	-1E+10	1	-1E+10	1	-1E+10	1
4902551	107	C	08/01/2023	15:18	-131.145	47.607	0	170.70	0	6.9770	0	33.7730	0	26.458	0	169.204	0	132.2	4	44.6	4	-1E+10	1	-1E+10	1	-1E+10	1	-1E+10	1	-1E+10	1	-1E+10	1
4902551	107	C	08/01/2023	15:18	-131.145	47.607	0	172.00	0	6.9690	0	33.7740	0	26.460	0	170.492	0	131.4	4	44.3	4	-1E+10	1	-1E+10	1	-1E+10	1	-1E+10	1	-1E+10	1	-1E+10	1
4902551	107	C	08/01/2023	15:18	-131.145	47.607	0	173.20	0	6.9510	0	33.7690	0	26.458	0	171.681	0	130.7	4	44.1	4	-1E+10	1	-1E+10	1	-1E+10	1	-1E+10	1	-1E+10	1	-1E+10	1
4902551	107	C	08/01/2023	15:18	-131.145	47.607	0	174.10	0	6.9800	0	33.7840	0	26.466	0	172.572	0	130.5	4	44.1	4	-1E+10	1	-1E+10	1	-1E+10	1	-1E+10	1	-1E+10	1	-1E+10	1
4902551	107	C	08/01/2023	15:18	-131.145	47.607	0	174.90	0	6.9720	0	33.7880	0	26.470	0	173.365	0	130.5	4	44.1	4	-1E+10	1	-1E+10	1	-1E+10	1	-1E+10	1	-1E+10	1	-1E+10	1
4902551	107	C	08/01/2023	15:18	-131.145	47.607	0	175.70	0	6.9630	0	33.7930	0	26.475	0	174.158	0	130.6	4	44.1	4	-1E+10	1	-1E+10	1	-1E+10	1	-1E+10	1	-1E+10	1	-1E+10	1
4902551	107	C	08/01/2023	15:18	-131.145	47.607	0	176.90	0	6.9050	0	33.7960	0	26.486	0	175.347	0	130.5	4	44.0	4	-1E+10	1	-1E+10	1	-1E+10	1	-1E+10	1	-1E+10	1	-1E+10	1
4902551	107	C	08/01/2023	15:18	-131.145	47.607	0	178.20	0	6.8650	0	33.8010	0	26.495	0	176.635	0	130.5	4	43.9	4	-1E+10	1	-1E+10	1	-1E+10	1	-1E+10	1	-1E+10	1	-1E+10	1
4902551	107	C	08/01/2023	15:18	-131.145	47.607	0	179.00	0	6.8610	0	33.7990	0	26.494	0	177.427	0	130.4	4	43.9	4	-1E+10	1	-1E+10	1	-1E+10	1	-1E+10	1	-1E+10	1	-1E+10	1
4902551	107	C	08/01/2023	15:18	-131.145	47.607	0	179.80	0	6.8550	0	33.8030	0	26.498	0	178.220	0	130.3	4	43.9	4	-1E+10	1	-1E+10	1	-1E+10	1	-1E+10	1	-1E+10	1	-1E+10	1
4902551	107	C	08/01/2023	15:18	-131.145	47.607	0	180.70	0	6.8510	0	33.8000	0	26.496	0	179.112	0	130.2	4	43.8	4	-1E+10	1	-1E+10	1	-1E+10	1	-1E+10	1	-1E+10	1	-1E+10	1
4902551	107	C	08/01/2023	15:18	-131.145	47.607	0	181.90	0	6.8420	0	33.8070	0	26.503	0	180.301	0	130.2	4	43.8	4	-1E+10	1	-1E+10	1	-1E+10	1	-1E+10	1	-1E+10	1	-1E+10	1
4902551	107	C	08/01/2023	15:18	-131.145	47.607	0	183.20	0	6.8010	0	33.8060	0	26.508	0	181.589	0	130.2	4	43.8	4	-1E+10	1	-1E+10	1	-1E+10	1	-1E+10	1	-1E+10	1	-1E+10	1
4902551	107	C	08/01/2023	15:18	-131.145	47.607	0	184.00	0	6.7840	0	33.8020	0	26.507	0	182.381	0	129.8	4	43.6	4	-1E+10	1	-1E+10	1	-1E+10	1	-1E+10	1	-1E+10	1	-1E+10	1
4902551	107	C	08/01/2023	15:18	-131.145	47.607	0	184.80	0	6.7680	0	33.8020	0	26.509	0	183.174	0	129.2	4	43.4	4	-1E+10	1	-1E+10	1	-1E+10	1	-1E+10	1	-1E+10	1	-1E+10	1
4902551	107	C	08/01/2023	15:18	-131.145	47.607	0	185.70	0	6.7570	0	33.8010	0	26.510	0	184.066	0	128.5	4	43.2	4	-1E+10	1	-1E+10	1	-1E+10	1	-1E+10	1	-1E+10	1	-1E+10	1
4902551	107	C	08/01/2023	15:18	-131.145	47.607	0	186.90	0	6.7440	0	33.8050	0	26.514	0	185.254	0	127.5	4	42.8	4	-1E+10	1	-1E+10	1	-1E+10	1	-1E+10	1	-1E+10	1	-1E+10	1
4902551	107	C	08/01/2023	15:18	-131.145	47.607	0	188.20	0	6.7080	0	33.8080	0	26.522	0	186.542	0	126.5	4	42.5	4	-1E+10	1	-1E+10	1	-1E+10	1	-1E+10	1	-1E+10	1	-1E+10	1
4902551	107	C	08/01/2023	15:18	-131.145	47.607	0	189.10	0	6.7030	0	33.8090	0	26.523	0	187.434	0	125.7	4	42.2	4	-1E+10	1	-1E+10	1	-1E+10	1	-1E+10	1	-1E+10	1	-1E+10	1
4902551	107	C	08/01/2023	15:18	-131.145	47.607	0	189.90	0	6.6760	0	33.8090	0	26.527	0	188.227	0	124.7	4	41.8	4	-1E+10	1	-1E+10	1	-1E+10	1	-1E+10	1	-1E+10	1	-1E+10	1
4902551	107	C	08/01/2023	15:18	-131.145	47.607	0	190.80	0	6.6690	0	33.8110	0	26.529	0	189.118	0	123.6	4	41.4	4	-1E+10	1	-1E+10	1	-1E+10	1	-1E+10	1	-1E+10	1	-1E+10	1
4902551	107	C	08/01/2023	15:18	-131.145	47.607	0	191.70	0	6.6630	0	33.8130	0	26.532	0	190.010	0	122.4	4	41.0	4	-1E+10	1	-1E+10	1	-1E+10	1	-1E+10	1	-1E+10	1	-1E+10	1
4902551	107	C	08/01/2023	15:18	-131.145	47.607	0	193.00	0	6.6650	0	33.8160	0	26.534	0	191.298	0	120.7	4	40.5	4	-1E+10	1	-1E+10	1	-1E+10	1	-1E+10	1	-1E+10	1	-1E+10	1
4902551	107	C	08/01/2023	15:18	-131.145	47.607	0	194.30	0	6.6580	0	33.8240	0	26.541	0	192.586	0	118.9	4	39.9	4	-1E+10	1	-1E+10	1	-1E+10	1	-1E+10	1	-1E+10	1	-1E+10	1
4902551	107	C	08/01/2023	15:18	-131.145	47.607	0	195.20	0	6.6490	0	33.8220	0	26.541	0	193.477	0	117.6	4	39.4	4	-1E+10	1	-1E+10	1	-1E+10	1	-1E+10	1	-1E+10	1	-1E+10	1
4902551	107	C	08/01/2023	15:18	-131.145	47.607	0	196.10	0	6.6480	0	33.8160	0	26.536	0	194.369	0	116.4	4	39.0	4	-1E+10	1	-1E+10	1	-1E+10	1	-1E+10	1	-1E+10	1	-1E+10	1
4902551	107	C	08/01/2023	15:18	-131.145	47.607	0	196.90	0	6.6790	0	33.8340	0	26.546	0	195.162	0	115.5	4	38.8	4	-1E+10	1	-1E+10	1	-1E+10	1	-1E+10	1	-1E+10	1	-1E+10	1
4902551	107	C	08/01/2023	15:18	-131.145	47.607	0	197.70	0	6.6820	0	33.8380	0	26.549	0	195.954	0	114.9	4	38.5	4	-1E+10	1	-1E+10	1	-1E+10	1	-1E+10	1	-1E+10	1	-1E+10	1
4902551	107	C	08/01/2023	15:18	-131.145	47.607	0	199.00	0	6.6800	0	33.8390	0	26.550	0	197.242	0	113.6	4	38.1	4	-1E+10	1	-1E+10	1	-1E+10	1	-1E+10	1	-1E+10	1	-1E+10	1
4902551	107	C	08/01/2023	15:18	-131.145	47.607	0	200.30	0	6.6890	0	33.8410	0	26.550	0	198.530	0	112.1	4	37.6	4	-1E+10	1	-1E+10	1	-1E+10	1	-1E+10	1	-1E+10	1	-1E+10	1
4902551	107	C	08/01/2023	15:18	-131.145	47.607	0	201.20	0	6.6710	0	33.8480	0	26.558	0	199.422	0	111.5	4	37.4	4	-1E+10	1	-1E+10	1	-1E+10	1	-1E+10	1	-1E+10	1	-1E+10	1
4902551	107	C	08/01/2023	15:18	-131.145	47.607	0	202.10	0	6.6460	0	33.8500	0	26.563	0	200.313	0	110.8	4	37.1	4	-1E+10	1	-1E+10	1	-1E+10	1	-1E+10	1	-1E+10	1	-1E+10	1
4902551	107	C	08/01/2023	15:18	-131.145	47.607	0	202.90	0	6.6470	0	33.8560	0	26.568	0	201.106	0	110.2	4	36.9	4	-1E+10	1	-1E+10	1	-1E+10	1	-1E+10	1	-1E+10	1	-1E+10	1
4902551	107	C	08/01/2023	15:18	-131.145	47.607	0	203.80	0	6.6400	0	33.8570	0	26.569	0	201.997	0	109.7	4	36.8	4	-1E+10	1	-1E+10	1	-1E+10	1	-1E+10	1	-1E+10	1	-1E+10	1
4902551	107	C	08/01/2023	15:18	-131.145	47.607	0	204.70	0	6.6380	0	33.8530	0	26.567	0	202.889	0	109.3	4	36.6	4	-1E+10	1	-1E+10	1	-1E+10	1	-1E+10	1	-1E+10	1	-1E+10	1
4902551	107	C	08/01/2023	15:18	-131.145	47.607	0	205.90	0	6.6270	0	33.8580	0	26.572	0	204.078	0	108.7	4	36.4	4	-1E+10	1	-1E+10	1	-1E+10	1	-1E+10	1	-1E+10	1	-1E+10	1
4902551	107	C	08/01/2023	15:18	-131.145	47.607	0	207.30	0	6.6140	0	33.8650	0	26.579	0	205.465	0	108.3	4	36.3	4	-1E+10	1	-1E+10	1	-1E+10	1	-1E+10	1	-1E+10	1	-1E+10	1
4902551	107	C	08/01/2023	15:18	-131.145	47.607	0	208.10	0	6.6100	0	33.8660	0	26.581	0	206.257	0	108.0	4	36.2	4	-1E+10	1	-1E+10	1	-1E+10	1	-1E+10	1	-1E+10	1	-1E+10	1
4902551	107	C	08/01/2023	15:18	-131.145	47.607	0	209.00	0	6.6010	0	33.8680	0	26.583	0	207.149	0	107.9	4	36.1	4	-1E+10	1	-1E+10	1	-1E+10	1	-1E+10	1	-1E+10	1	-1E+10	1
4902551	107	C	08/01/2023	15:18	-131.145	47.607	0	209.90	0	6.5850	0	33.8660	0	26.584	0	208.040	0	107.7	4	36.1	4	-1E+10	1	-1E+10	1	-1E+10	1	-1E+10	1	-1E+10	1	-1E+10	1
4902551	107	C	08/01/2023	15:18	-131.145	47.607	0	210.80	0	6.5850	0	33.8660	0	26.584	0	208.932	0	107.5	4	36.0	4	-1E+10	1	-1E+10	1	-1E+10	1	-1E+10	1	-1E+10	1	-1E+10	1
4902551	107	C	08/01/2023	15:18	-131.145	47.607	0	211.70	0	6.5570	0	33.8690	0	26.590	0	209.824	0	107.3	4	35.9	4	-1E+10	1	-1E+10	1	-1E+10	1	-1E+10	1	-1E+10	1	-1E+10	1
4902551	107	C	08/01/2023	15:18	-131.145	47.607	0	212.60	0	6.5430	0	33.8660	0	26.589	0	210.715	0	106.9	4	35.8	4	-1E+10	1	-1E+10	1	-1E+10	1	-1E+10	1	-1E+10	1	-1E+10	1
4902551	107	C	08/01/2023	15:18	-131.145	47.607	0	213.90	0	6.5370	0	33.8680	0	26.592	0	212.003	0	106.5	4	35.6	4	-1E+10	1	-1E+10	1	-1E+10	1	-1E+10	1	-1E+10	1	-1E+10	1
4902551	107	C	08/01/2023	15:18	-131.145	47.607	0	215.20	0	6.5200	0	33.8710	0	26.596	0	213.291	0	106.2	4	35.5	4	-1E+10	1	-1E+10	1	-1E+10	1	-1E+10	1	-1E+10	1	-1E+10	1
4902551	107	C	08/01/2023	15:18	-131.145	47.607	0	216.10	0	6.5140	0	33.8710	0	26.597	0	214.182	0	105.9	4	35.4	4	-1E+10	1	-1E+10	1	-1E+10	1	-1E+10	1	-1E+10	1	-1E+10	1
4902551	107	C	08/01/2023	15:18	-131.145	47.607	0	217.00	0	6.5010	0	33.8710	0	26.599	0	215.074	0	105.6	4	35.3	4	-1E+10	1	-1E+10	1	-1E+10	1	-1E+10	1	-1E+10	1	-1E+10	1
4902551	107	C	08/01/2023	15:18	-131.145	47.607	0	217.90	0	6.4980	0	33.8720	0	26.600	0	215.965	0	105.4	4	35.2	4	-1E+10	1	-1E+10	1	-1E+10	1	-1E+10	1	-1E+10	1	-1E+10	1
4902551	107	C	08/01/2023	15:18	-131.145	47.607	0	218.80	0	6.5000	0	33.8720	0	26.600	0	216.857	0	105.1	4	35.1	4	-1E+10	1	-1E+10	1	-1E+10	1	-1E+10	1	-1E+10	1	-1E+10	1
4902551	107	C	08/01/2023	15:18	-131.145	47.607	0	219.70	0	6.4980	0	33.8720	0	26.600	0	217.748	0	104.8	4	35.0	4	-1E+10	1	-1E+10	1	-1E+10	1	-1E+10	1	-1E+10	1	-1E+10	1
4902551	107	C	08/01/2023	15:18	-131.145	47.607	0	220.90	0	6.4840	0	33.8760	0	26.605	0	218.937	0	104.4	4	34.9	4	-1E+10	1	-1E+10	1	-1E+10	1	-1E+10	1	-1E+10	1	-1E+10	1
4902551	107	C	08/01/2023	15:18	-131.145	47.607	0	222.30	0	6.4570	0	33.8740	0	26.607	0	220.324	0	104.0	4	34.7	4	-1E+10	1	-1E+10	1	-1E+10	1	-1E+10	1	-1E+10	1	-1E+10	1
4902551	107	C	08/01/2023	15:18	-131.145	47.607	0	223.20	0	6.4280	0	33.8750	0	26.612	0	221.215	0	103.8	4	34.6	4	-1E+10	1	-1E+10	1	-1E+10	1	-1E+10	1	-1E+10	1	-1E+10	1
4902551	107	C	08/01/2023	15:18	-131.145	47.607	0	224.10	0	6.4190	0	33.8760	0	26.614	0	222.107	0	103.6	4	34.5	4	-1E+10	1	-1E+10	1	-1E+10	1	-1E+10	1	-1E+10	1	-1E+10	1
4902551	107	C	08/01/2023	15:18	-131.145	47.607	0	225.00	0	6.4090	0	33.8810	0	26.619	0	222.998	0	103.4	4	34.5	4	-1E+10	1	-1E+10	1	-1E+10	1	-1E+10	1	-1E+10	1	-1E+10	1
4902551	107	C	08/01/2023	15:18	-131.145	47.607	0	225.90	0	6.3970	0	33.8790	0	26.619	0	223.890	0	103.4	4	34.5	4	-1E+10	1	-1E+10	1	-1E+10	1	-1E+10	1	-1E+10	1	-1E+10	1
4902551	107	C	08/01/2023	15:18	-131.145	47.607	0	226.90	0	6.3840	0	33.8830	0	26.624	0	224.881	0	103.4	4	34.4	4	-1E+10	1	-1E+10	1	-1E+10	1	-1E+10	1	-1E+10	1	-1E+10	1
4902551	107	C	08/01/2023	15:18	-131.145	47.607	0	227.80	0	6.3230	0	33.8790	0	26.628	0	225.772	0	103.1	4	34.3	4	-1E+10	1	-1E+10	1	-1E+10	1	-1E+10	1	-1E+10	1	-1E+10	1
4902551	107	C	08/01/2023	15:18	-131.145	47.607	0	228.70	0	6.3070	0	33.8760	0	26.628	0	226.664	0	102.8	4	34.2	4	-1E+10	1	-1E+10	1	-1E+10	1	-1E+10	1	-1E+10	1	-1E+10	1
4902551	107	C	08/01/2023	15:18	-131.145	47.607	0	229.60	0	6.2910	0	33.8720	0	26.627	0	227.555	0	102.4	4	34.0	4	-1E+10	1	-1E+10	1	-1E+10	1	-1E+10	1	-1E+10	1	-1E+10	1
4902551	107	C	08/01/2023	15:18	-131.145	47.607	0	230.50	0	6.2760	0	33.8740	0	26.631	0	228.446	0	101.8	4	33.8	4	-1E+10	1	-1E+10	1	-1E+10	1	-1E+10	1	-1E+10	1	-1E+10	1
4902551	107	C	08/01/2023	15:18	-131.145	47.607	0	231.90	0	6.2730	0	33.8760	0	26.633	0	229.833	0	100.9	4	33.5	4	-1E+10	1	-1E+10	1	-1E+10	1	-1E+10	1	-1E+10	1	-1E+10	1
4902551	107	C	08/01/2023	15:18	-131.145	47.607	0	233.30	0	6.2630	0	33.8750	0	26.633	0	231.220	0	99.9	4	33.2	4	-1E+10	1	-1E+10	1	-1E+10	1	-1E+10	1	-1E+10	1	-1E+10	1
4902551	107	C	08/01/2023	15:18	-131.145	47.607	0	234.30	0	6.2780	0	33.8840	0	26.638	0	232.211	0	99.4	4	33.0	4	-1E+10	1	-1E+10	1	-1E+10	1	-1E+10	1	-1E+10	1	-1E+10	1
4902551	107	C	08/01/2023	15:18	-131.145	47.607	0	235.20	0	6.2760	0	33.8850	0	26.639	0	233.102	0	99.2	4	33.0	4	-1E+10	1	-1E+10	1	-1E+10	1	-1E+10	1	-1E+10	1	-1E+10	1
4902551	107	C	08/01/2023	15:18	-131.145	47.607	0	236.10	0	6.2590	0	33.8870	0	26.643	0	233.993	0	98.9	4	32.9	4	-1E+10	1	-1E+10	1	-1E+10	1	-1E+10	1	-1E+10	1	-1E+10	1
4902551	107	C	08/01/2023	15:18	-131.145	47.607	0	237.10	0	6.2540	0	33.8880	0	26.645	0	234.984	0	98.8	4	32.8	4	-1E+10	1	-1E+10	1	-1E+10	1	-1E+10	1	-1E+10	1	-1E+10	1
4902551	107	C	08/01/2023	15:18	-131.145	47.607	0	238.10	0	6.2360	0	33.8880	0	26.647	0	235.974	0	98.5	4	32.7	4	-1E+10	1	-1E+10	1	-1E+10	1	-1E+10	1	-1E+10	1	-1E+10	1
4902551	107	C	08/01/2023	15:18	-131.145	47.607	0	239.00	0	6.1980	0	33.8840	0	26.649	0	236.866	0	98.2	4	32.6	4	-1E+10	1	-1E+10	1	-1E+10	1	-1E+10	1	-1E+10	1	-1E+10	1
4902551	107	C	08/01/2023	15:18	-131.145	47.607	0	240.00	0	6.1980	0	33.8820	0	26.647	0	237.856	0	97.9	4	32.5	4	-1E+10	1	-1E+10	1	-1E+10	1	-1E+10	1	-1E+10	1	-1E+10	1
4902551	107	C	08/01/2023	15:18	-131.145	47.607	0	240.90	0	6.1760	0	33.8890	0	26.655	0	238.748	0	97.5	4	32.3	4	-1E+10	1	-1E+10	1	-1E+10	1	-1E+10	1	-1E+10	1	-1E+10	1
4902551	107	C	08/01/2023	15:18	-131.145	47.607	0	241.90	0	6.1830	0	33.8860	0	26.652	0	239.738	0	97.1	4	32.2	4	-1E+10	1	-1E+10	1	-1E+10	1	-1E+10	1	-1E+10	1	-1E+10	1
4902551	107	C	08/01/2023	15:18	-131.145	47.607	0	242.80	0	6.1960	0	33.8900	0	26.654	0	240.630	0	96.9	4	32.2	4	-1E+10	1	-1E+10	1	-1E+10	1	-1E+10	1	-1E+10	1	-1E+10	1
4902551	107	C	08/01/2023	15:18	-131.145	47.607	0	243.80	0	6.2010	0	33.8920	0	26.655	0	241.620	0	96.9	4	32.1	4	-1E+10	1	-1E+10	1	-1E+10	1	-1E+10	1	-1E+10	1	-1E+10	1
4902551	107	C	08/01/2023	15:18	-131.145	47.607	0	244.80	0	6.2010	0	33.8920	0	26.655	0	242.611	0	96.8	4	32.1	4	-1E+10	1	-1E+10	1	-1E+10	1	-1E+10	1	-1E+10	1	-1E+10	1
4902551	107	C	08/01/2023	15:18	-131.145	47.607	0	245.70	0	6.1990	0	33.8940	0	26.656	0	243.502	0	97.0	4	32.2	4	-1E+10	1	-1E+10	1	-1E+10	1	-1E+10	1	-1E+10	1	-1E+10	1
4902551	107	C	08/01/2023	15:18	-131.145	47.607	0	246.70	0	6.1680	0	33.9000	0	26.665	0	244.493	0	97.1	4	32.2	4	-1E+10	1	-1E+10	1	-1E+10	1	-1E+10	1	-1E+10	1	-1E+10	1
4902551	107	C	08/01/2023	15:18	-131.145	47.607	0	247.70	0	6.1280	0	33.8910	0	26.663	0	245.483	0	97.0	4	32.1	4	-1E+10	1	-1E+10	1	-1E+10	1	-1E+10	1	-1E+10	1	-1E+10	1
4902551	107	C	08/01/2023	15:18	-131.145	47.607	0	248.70	0	6.0950	0	33.8840	0	26.662	0	246.474	0	96.7	4	32.0	4	-1E+10	1	-1E+10	1	-1E+10	1	-1E+10	1	-1E+10	1	-1E+10	1
4902551	107	C	08/01/2023	15:18	-131.145	47.607	0	249.70	0	6.0940	0	33.8840	0	26.662	0	247.464	0	96.3	4	31.9	4	-1E+10	1	-1E+10	1	-1E+10	1	-1E+10	1	-1E+10	1	-1E+10	1
4902551	107	C	08/01/2023	15:18	-131.145	47.607	0	250.70	0	6.0940	0	33.8830	0	26.661	0	248.454	0	95.9	4	31.8	4	-1E+10	1	-1E+10	1	-1E+10	1	-1E+10	1	-1E+10	1	-1E+10	1
4902551	107	C	08/01/2023	15:18	-131.145	47.607	0	251.60	0	6.0880	0	33.8860	0	26.664	0	249.346	0	95.6	4	31.6	4	-1E+10	1	-1E+10	1	-1E+10	1	-1E+10	1	-1E+10	1	-1E+10	1
4902551	107	C	08/01/2023	15:18	-131.145	47.607	0	252.60	0	6.0880	0	33.8880	0	26.666	0	250.336	0	95.3	4	31.5	4	-1E+10	1	-1E+10	1	-1E+10	1	-1E+10	1	-1E+10	1	-1E+10	1
4902551	107	C	08/01/2023	15:18	-131.145	47.607	0	253.60	0	6.0870	0	33.8880	0	26.666	0	251.327	0	95.0	4	31.4	4	-1E+10	1	-1E+10	1	-1E+10	1	-1E+10	1	-1E+10	1	-1E+10	1
4902551	107	C	08/01/2023	15:18	-131.145	47.607	0	254.60	0	6.0500	0	33.8910	0	26.673	0	252.317	0	94.5	4	31.3	4	-1E+10	1	-1E+10	1	-1E+10	1	-1E+10	1	-1E+10	1	-1E+10	1
4902551	107	C	08/01/2023	15:18	-131.145	47.607	0	255.60	0	5.9920	0	33.8820	0	26.673	0	253.308	0	93.8	4	31.0	4	-1E+10	1	-1E+10	1	-1E+10	1	-1E+10	1	-1E+10	1	-1E+10	1
4902551	107	C	08/01/2023	15:18	-131.145	47.607	0	256.60	0	5.9890	0	33.8810	0	26.673	0	254.298	0	92.9	4	30.7	4	-1E+10	1	-1E+10	1	-1E+10	1	-1E+10	1	-1E+10	1	-1E+10	1
4902551	107	C	08/01/2023	15:18	-131.145	47.607	0	257.50	0	6.0220	0	33.8840	0	26.671	0	255.189	0	92.2	4	30.5	4	-1E+10	1	-1E+10	1	-1E+10	1	-1E+10	1	-1E+10	1	-1E+10	1
4902551	107	C	08/01/2023	15:18	-131.145	47.607	0	258.50	0	6.0330	0	33.8900	0	26.674	0	256.180	0	91.6	4	30.3	4	-1E+10	1	-1E+10	1	-1E+10	1	-1E+10	1	-1E+10	1	-1E+10	1
4902551	107	C	08/01/2023	15:18	-131.145	47.607	0	259.50	0	6.0220	0	33.8900	0	26.676	0	257.170	0	91.0	4	30.1	4	-1E+10	1	-1E+10	1	-1E+10	1	-1E+10	1	-1E+10	1	-1E+10	1
4902551	107	C	08/01/2023	15:18	-131.145	47.607	0	260.60	0	6.0000	0	33.8930	0	26.681	0	258.260	0	90.2	4	29.8	4	-1E+10	1	-1E+10	1	-1E+10	1	-1E+10	1	-1E+10	1	-1E+10	1
4902551	107	C	08/01/2023	15:18	-131.145	47.607	0	261.60	0	5.9650	0	33.8930	0	26.685	0	259.250	0	89.1	4	29.4	4	-1E+10	1	-1E+10	1	-1E+10	1	-1E+10	1	-1E+10	1	-1E+10	1
4902551	107	C	08/01/2023	15:18	-131.145	47.607	0	262.60	0	5.9810	0	33.8940	0	26.684	0	260.240	0	88.1	4	29.1	4	-1E+10	1	-1E+10	1	-1E+10	1	-1E+10	1	-1E+10	1	-1E+10	1
4902551	107	C	08/01/2023	15:18	-131.145	47.607	0	263.60	0	6.0390	0	33.9040	0	26.685	0	261.231	0	87.4	4	28.9	4	-1E+10	1	-1E+10	1	-1E+10	1	-1E+10	1	-1E+10	1	-1E+10	1
4902551	107	C	08/01/2023	15:18	-131.145	47.607	0	264.60	0	6.0790	0	33.9090	0	26.684	0	262.221	0	87.4	4	28.9	4	-1E+10	1	-1E+10	1	-1E+10	1	-1E+10	1	-1E+10	1	-1E+10	1
4902551	107	C	08/01/2023	15:18	-131.145	47.607	0	265.60	0	6.0640	0	33.9160	0	26.691	0	263.211	0	87.6	4	29.0	4	-1E+10	1	-1E+10	1	-1E+10	1	-1E+10	1	-1E+10	1	-1E+10	1
4902551	107	C	08/01/2023	15:18	-131.145	47.607	0	266.60	0	6.0410	0	33.9100	0	26.689	0	264.202	0	87.9	4	29.1	4	-1E+10	1	-1E+10	1	-1E+10	1	-1E+10	1	-1E+10	1	-1E+10	1
4902551	107	C	08/01/2023	15:18	-131.145	47.607	0	267.60	0	6.0090	0	33.9210	0	26.702	0	265.192	0	88.2	4	29.2	4	-1E+10	1	-1E+10	1	-1E+10	1	-1E+10	1	-1E+10	1	-1E+10	1
4902551	107	C	08/01/2023	15:18	-131.145	47.607	0	268.60	0	5.9300	0	33.9120	0	26.705	0	266.183	0	88.4	4	29.2	4	-1E+10	1	-1E+10	1	-1E+10	1	-1E+10	1	-1E+10	1	-1E+10	1
4902551	107	C	08/01/2023	15:18	-131.145	47.607	0	269.60	0	5.8940	0	33.9050	0	26.704	0	267.173	0	88.4	4	29.1	4	-1E+10	1	-1E+10	1	-1E+10	1	-1E+10	1	-1E+10	1	-1E+10	1
4902551	107	C	08/01/2023	15:18	-131.145	47.607	0	270.60	0	5.8500	0	33.9030	0	26.707	0	268.163	0	88.1	4	29.0	4	-1E+10	1	-1E+10	1	-1E+10	1	-1E+10	1	-1E+10	1	-1E+10	1
4902551	107	C	08/01/2023	15:18	-131.145	47.607	0	271.60	0	5.8360	0	33.8960	0	26.704	0	269.154	0	87.8	4	28.9	4	-1E+10	1	-1E+10	1	-1E+10	1	-1E+10	1	-1E+10	1	-1E+10	1
4902551	107	C	08/01/2023	15:18	-131.145	47.607	0	272.60	0	5.8430	0	33.8980	0	26.704	0	270.144	0	87.4	4	28.8	4	-1E+10	1	-1E+10	1	-1E+10	1	-1E+10	1	-1E+10	1	-1E+10	1
4902551	107	C	08/01/2023	15:18	-131.145	47.607	0	273.60	0	5.8440	0	33.9000	0	26.706	0	271.134	0	87.0	4	28.6	4	-1E+10	1	-1E+10	1	-1E+10	1	-1E+10	1	-1E+10	1	-1E+10	1
4902551	107	C	08/01/2023	15:18	-131.145	47.607	0	274.70	0	5.8360	0	33.8990	0	26.706	0	272.224	0	86.5	4	28.5	4	-1E+10	1	-1E+10	1	-1E+10	1	-1E+10	1	-1E+10	1	-1E+10	1
4902551	107	C	08/01/2023	15:18	-131.145	47.607	0	275.60	0	5.8030	0	33.9000	0	26.711	0	273.115	0	86.1	4	28.3	4	-1E+10	1	-1E+10	1	-1E+10	1	-1E+10	1	-1E+10	1	-1E+10	1
4902551	107	C	08/01/2023	15:18	-131.145	47.607	0	276.60	0	5.8080	0	33.8990	0	26.710	0	274.105	0	85.5	4	28.1	4	-1E+10	1	-1E+10	1	-1E+10	1	-1E+10	1	-1E+10	1	-1E+10	1
4902551	107	C	08/01/2023	15:18	-131.145	47.607	0	277.60	0	5.7890	0	33.9030	0	26.715	0	275.096	0	85.0	4	28.0	4	-1E+10	1	-1E+10	1	-1E+10	1	-1E+10	1	-1E+10	1	-1E+10	1
4902551	107	C	08/01/2023	15:18	-131.145	47.607	0	278.60	0	5.7510	0	33.8980	0	26.716	0	276.086	0	84.5	4	27.7	4	-1E+10	1	-1E+10	1	-1E+10	1	-1E+10	1	-1E+10	1	-1E+10	1
4902551	107	C	08/01/2023	15:18	-131.145	47.607	0	279.60	0	5.7690	0	33.9030	0	26.718	0	277.076	0	84.1	4	27.6	4	-1E+10	1	-1E+10	1	-1E+10	1	-1E+10	1	-1E+10	1	-1E+10	1
4902551	107	C	08/01/2023	15:18	-131.145	47.607	0	280.60	0	5.7730	0	33.9070	0	26.720	0	278.067	0	83.8	4	27.5	4	-1E+10	1	-1E+10	1	-1E+10	1	-1E+10	1	-1E+10	1	-1E+10	1
4902551	107	C	08/01/2023	15:18	-131.145	47.607	0	281.60	0	5.7740	0	33.9070	0	26.720	0	279.057	0	83.6	4	27.5	4	-1E+10	1	-1E+10	1	-1E+10	1	-1E+10	1	-1E+10	1	-1E+10	1
4902551	107	C	08/01/2023	15:18	-131.145	47.607	0	282.60	0	5.7670	0	33.9110	0	26.724	0	280.047	0	83.3	4	27.4	4	-1E+10	1	-1E+10	1	-1E+10	1	-1E+10	1	-1E+10	1	-1E+10	1
4902551	107	C	08/01/2023	15:18	-131.145	47.607	0	283.60	0	5.7090	0	33.9070	0	26.728	0	281.037	0	83.0	4	27.2	4	-1E+10	1	-1E+10	1	-1E+10	1	-1E+10	1	-1E+10	1	-1E+10	1
4902551	107	C	08/01/2023	15:18	-131.145	47.607	0	284.60	0	5.7110	0	33.9110	0	26.731	0	282.028	0	82.6	4	27.1	4	-1E+10	1	-1E+10	1	-1E+10	1	-1E+10	1	-1E+10	1	-1E+10	1
4902551	107	C	08/01/2023	15:18	-131.145	47.607	0	285.60	0	5.6860	0	33.9080	0	26.732	0	283.018	0	82.2	4	27.0	4	-1E+10	1	-1E+10	1	-1E+10	1	-1E+10	1	-1E+10	1	-1E+10	1
4902551	107	C	08/01/2023	15:18	-131.145	47.607	0	286.60	0	5.6810	0	33.9040	0	26.729	0	284.008	0	81.7	4	26.8	4	-1E+10	1	-1E+10	1	-1E+10	1	-1E+10	1	-1E+10	1	-1E+10	1
4902551	107	C	08/01/2023	15:18	-131.145	47.607	0	287.60	0	5.6550	0	33.9120	0	26.739	0	284.998	0	81.2	4	26.6	4	-1E+10	1	-1E+10	1	-1E+10	1	-1E+10	1	-1E+10	1	-1E+10	1
4902551	107	C	08/01/2023	15:18	-131.145	47.607	0	288.60	0	5.6380	0	33.9020	0	26.733	0	285.989	0	80.6	4	26.4	4	-1E+10	1	-1E+10	1	-1E+10	1	-1E+10	1	-1E+10	1	-1E+10	1
4902551	107	C	08/01/2023	15:18	-131.145	47.607	0	289.60	0	5.6390	0	33.9050	0	26.735	0	286.979	0	80.0	4	26.2	4	-1E+10	1	-1E+10	1	-1E+10	1	-1E+10	1	-1E+10	1	-1E+10	1
4902551	107	C	08/01/2023	15:18	-131.145	47.607	0	290.60	0	5.6290	0	33.9070	0	26.738	0	287.969	0	79.3	4	26.0	4	-1E+10	1	-1E+10	1	-1E+10	1	-1E+10	1	-1E+10	1	-1E+10	1
4902551	107	C	08/01/2023	15:18	-131.145	47.607	0	291.60	0	5.6270	0	33.9060	0	26.737	0	288.960	0	78.6	4	25.8	4	-1E+10	1	-1E+10	1	-1E+10	1	-1E+10	1	-1E+10	1	-1E+10	1
4902551	107	C	08/01/2023	15:18	-131.145	47.607	0	292.60	0	5.6450	0	33.9100	0	26.738	0	289.950	0	78.0	4	25.6	4	-1E+10	1	-1E+10	1	-1E+10	1	-1E+10	1	-1E+10	1	-1E+10	1
4902551	107	C	08/01/2023	15:18	-131.145	47.607	0	293.60	0	5.6230	0	33.9170	0	26.746	0	290.940	0	77.7	4	25.4	4	-1E+10	1	-1E+10	1	-1E+10	1	-1E+10	1	-1E+10	1	-1E+10	1
4902551	107	C	08/01/2023	15:18	-131.145	47.607	0	294.90	0	5.5820	0	33.9140	0	26.749	0	292.227	0	77.0	4	25.2	4	-1E+10	1	-1E+10	1	-1E+10	1	-1E+10	1	-1E+10	1	-1E+10	1
4902551	107	C	08/01/2023	15:18	-131.145	47.607	0	296.30	0	5.5740	0	33.9150	0	26.751	0	293.614	0	76.2	4	24.9	4	-1E+10	1	-1E+10	1	-1E+10	1	-1E+10	1	-1E+10	1	-1E+10	1
4902551	107	C	08/01/2023	15:18	-131.145	47.607	0	297.10	0	5.5600	0	33.9160	0	26.753	0	294.406	0	75.9	4	24.8	4	-1E+10	1	-1E+10	1	-1E+10	1	-1E+10	1	-1E+10	1	-1E+10	1
4902551	107	C	08/01/2023	15:18	-131.145	47.607	0	297.80	0	5.5550	0	33.9200	0	26.757	0	295.099	0	75.6	4	24.7	4	-1E+10	1	-1E+10	1	-1E+10	1	-1E+10	1	-1E+10	1	-1E+10	1
4902551	107	C	08/01/2023	15:18	-131.145	47.607	0	298.90	0	5.5370	0	33.9210	0	26.760	0	296.188	0	75.2	4	24.6	4	-1E+10	1	-1E+10	1	-1E+10	1	-1E+10	1	-1E+10	1	-1E+10	1
4902551	107	C	08/01/2023	15:18	-131.145	47.607	0	300.10	0	5.5180	0	33.9220	0	26.763	0	297.376	0	74.7	4	24.4	4	-1E+10	1	-1E+10	1	-1E+10	1	-1E+10	1	-1E+10	1	-1E+10	1
4902551	107	C	08/01/2023	15:18	-131.145	47.607	0	300.80	0	5.5120	0	33.9190	0	26.761	0	298.070	0	74.3	4	24.3	4	-1E+10	1	-1E+10	1	-1E+10	1	-1E+10	1	-1E+10	1	-1E+10	1
4902551	107	C	08/01/2023	15:18	-131.145	47.607	0	301.90	0	5.4890	0	33.9200	0	26.765	0	299.159	0	73.6	4	24.0	4	-1E+10	1	-1E+10	1	-1E+10	1	-1E+10	1	-1E+10	1	-1E+10	1
4902551	107	C	08/01/2023	15:18	-131.145	47.607	0	303.10	0	5.4780	0	33.9200	0	26.766	0	300.347	0	72.8	4	23.8	4	-1E+10	1	-1E+10	1	-1E+10	1	-1E+10	1	-1E+10	1	-1E+10	1
4902551	107	C	08/01/2023	15:18	-131.145	47.607	0	303.90	0	5.4750	0	33.9200	0	26.767	0	301.139	0	72.3	4	23.6	4	-1E+10	1	-1E+10	1	-1E+10	1	-1E+10	1	-1E+10	1	-1E+10	1
4902551	107	C	08/01/2023	15:18	-131.145	47.607	0	305.00	0	5.4660	0	33.9230	0	26.770	0	302.228	0	71.3	4	23.3	4	-1E+10	1	-1E+10	1	-1E+10	1	-1E+10	1	-1E+10	1	-1E+10	1
4902551	107	C	08/01/2023	15:18	-131.145	47.607	0	306.20	0	5.4980	0	33.9270	0	26.769	0	303.417	0	70.6	4	23.1	4	-1E+10	1	-1E+10	1	-1E+10	1	-1E+10	1	-1E+10	1	-1E+10	1
4902551	107	C	08/01/2023	15:18	-131.145	47.607	0	307.00	0	5.5080	0	33.9340	0	26.774	0	304.209	0	70.2	4	22.9	4	-1E+10	1	-1E+10	1	-1E+10	1	-1E+10	1	-1E+10	1	-1E+10	1
4902551	107	C	08/01/2023	15:18	-131.145	47.607	0	307.70	0	5.4980	0	33.9350	0	26.776	0	304.902	0	69.9	4	22.8	4	-1E+10	1	-1E+10	1	-1E+10	1	-1E+10	1	-1E+10	1	-1E+10	1
4902551	107	C	08/01/2023	15:18	-131.145	47.607	0	308.90	0	5.4940	0	33.9350	0	26.776	0	306.090	0	69.5	4	22.7	4	-1E+10	1	-1E+10	1	-1E+10	1	-1E+10	1	-1E+10	1	-1E+10	1
4902551	107	C	08/01/2023	15:18	-131.145	47.607	0	310.20	0	5.4970	0	33.9390	0	26.779	0	307.377	0	69.1	4	22.6	4	-1E+10	1	-1E+10	1	-1E+10	1	-1E+10	1	-1E+10	1	-1E+10	1
4902551	107	C	08/01/2023	15:18	-131.145	47.607	0	311.00	0	5.5000	0	33.9400	0	26.780	0	308.169	0	68.9	4	22.5	4	-1E+10	1	-1E+10	1	-1E+10	1	-1E+10	1	-1E+10	1	-1E+10	1
4902551	107	C	08/01/2023	15:18	-131.145	47.607	0	311.80	0	5.4930	0	33.9400	0	26.780	0	308.962	0	68.7	4	22.4	4	-1E+10	1	-1E+10	1	-1E+10	1	-1E+10	1	-1E+10	1	-1E+10	1
4902551	107	C	08/01/2023	15:18	-131.145	47.607	0	313.00	0	5.4770	0	33.9400	0	26.782	0	310.150	0	68.4	4	22.3	4	-1E+10	1	-1E+10	1	-1E+10	1	-1E+10	1	-1E+10	1	-1E+10	1
4902551	107	C	08/01/2023	15:18	-131.145	47.607	0	314.20	0	5.4650	0	33.9390	0	26.783	0	311.338	0	67.9	4	22.2	4	-1E+10	1	-1E+10	1	-1E+10	1	-1E+10	1	-1E+10	1	-1E+10	1
4902551	107	C	08/01/2023	15:18	-131.145	47.607	0	315.00	0	5.4620	0	33.9400	0	26.784	0	312.130	0	67.6	4	22.1	4	-1E+10	1	-1E+10	1	-1E+10	1	-1E+10	1	-1E+10	1	-1E+10	1
4902551	107	C	08/01/2023	15:18	-131.145	47.607	0	315.80	0	5.4630	0	33.9390	0	26.783	0	312.922	0	67.3	4	22.0	4	-1E+10	1	-1E+10	1	-1E+10	1	-1E+10	1	-1E+10	1	-1E+10	1
4902551	107	C	08/01/2023	15:18	-131.145	47.607	0	316.60	0	5.4620	0	33.9410	0	26.785	0	313.714	0	66.9	4	21.8	4	-1E+10	1	-1E+10	1	-1E+10	1	-1E+10	1	-1E+10	1	-1E+10	1
4902551	107	C	08/01/2023	15:18	-131.145	47.607	0	317.90	0	5.4670	0	33.9430	0	26.786	0	315.001	0	66.5	4	21.7	4	-1E+10	1	-1E+10	1	-1E+10	1	-1E+10	1	-1E+10	1	-1E+10	1
4902551	107	C	08/01/2023	15:18	-131.145	47.607	0	319.20	0	5.4730	0	33.9480	0	26.789	0	316.289	0	66.3	4	21.6	4	-1E+10	1	-1E+10	1	-1E+10	1	-1E+10	1	-1E+10	1	-1E+10	1
4902551	107	C	08/01/2023	15:18	-131.145	47.607	0	320.00	0	5.4720	0	33.9480	0	26.789	0	317.081	0	66.1	4	21.6	4	-1E+10	1	-1E+10	1	-1E+10	1	-1E+10	1	-1E+10	1	-1E+10	1
4902551	107	C	08/01/2023	15:18	-131.145	47.607	0	320.90	0	5.4580	0	33.9470	0	26.790	0	317.972	0	66.0	4	21.5	4	-1E+10	1	-1E+10	1	-1E+10	1	-1E+10	1	-1E+10	1	-1E+10	1
4902551	107	C	08/01/2023	15:18	-131.145	47.607	0	321.70	0	5.4560	0	33.9480	0	26.791	0	318.764	0	65.8	4	21.5	4	-1E+10	1	-1E+10	1	-1E+10	1	-1E+10	1	-1E+10	1	-1E+10	1
4902551	107	C	08/01/2023	15:18	-131.145	47.607	0	323.00	0	5.4270	0	33.9490	0	26.796	0	320.051	0	65.5	4	21.4	4	-1E+10	1	-1E+10	1	-1E+10	1	-1E+10	1	-1E+10	1	-1E+10	1
4902551	107	C	08/01/2023	15:18	-131.145	47.607	0	324.30	0	5.4160	0	33.9490	0	26.797	0	321.338	0	65.2	4	21.3	4	-1E+10	1	-1E+10	1	-1E+10	1	-1E+10	1	-1E+10	1	-1E+10	1
4902551	107	C	08/01/2023	15:18	-131.145	47.607	0	325.10	0	5.4170	0	33.9490	0	26.797	0	322.130	0	65.1	4	21.2	4	-1E+10	1	-1E+10	1	-1E+10	1	-1E+10	1	-1E+10	1	-1E+10	1
4902551	107	C	08/01/2023	15:18	-131.145	47.607	0	326.00	0	5.4160	0	33.9500	0	26.798	0	323.021	0	64.9	4	21.2	4	-1E+10	1	-1E+10	1	-1E+10	1	-1E+10	1	-1E+10	1	-1E+10	1
4902551	107	C	08/01/2023	15:18	-131.145	47.607	0	326.90	0	5.4090	0	33.9490	0	26.798	0	323.912	0	64.8	4	21.1	4	-1E+10	1	-1E+10	1	-1E+10	1	-1E+10	1	-1E+10	1	-1E+10	1
4902551	107	C	08/01/2023	15:18	-131.145	47.607	0	327.80	0	5.3900	0	33.9530	0	26.803	0	324.803	0	64.6	4	21.0	4	-1E+10	1	-1E+10	1	-1E+10	1	-1E+10	1	-1E+10	1	-1E+10	1
4902551	107	C	08/01/2023	15:18	-131.145	47.607	0	328.70	0	5.3660	0	33.9480	0	26.802	0	325.694	0	64.3	4	20.9	4	-1E+10	1	-1E+10	1	-1E+10	1	-1E+10	1	-1E+10	1	-1E+10	1
4902551	107	C	08/01/2023	15:18	-131.145	47.607	0	330.00	0	5.3570	0	33.9500	0	26.805	0	326.982	0	64.0	4	20.8	4	-1E+10	1	-1E+10	1	-1E+10	1	-1E+10	1	-1E+10	1	-1E+10	1
4902551	107	C	08/01/2023	15:18	-131.145	47.607	0	331.30	0	5.3360	0	33.9520	0	26.809	0	328.269	0	63.7	4	20.7	4	-1E+10	1	-1E+10	1	-1E+10	1	-1E+10	1	-1E+10	1	-1E+10	1
4902551	107	C	08/01/2023	15:18	-131.145	47.607	0	332.20	0	5.3360	0	33.9510	0	26.808	0	329.160	0	63.5	4	20.7	4	-1E+10	1	-1E+10	1	-1E+10	1	-1E+10	1	-1E+10	1	-1E+10	1
4902551	107	C	08/01/2023	15:18	-131.145	47.607	0	333.10	0	5.3300	0	33.9510	0	26.809	0	330.051	0	63.3	4	20.6	4	-1E+10	1	-1E+10	1	-1E+10	1	-1E+10	1	-1E+10	1	-1E+10	1
4902551	107	C	08/01/2023	15:18	-131.145	47.607	0	334.00	0	5.3250	0	33.9520	0	26.810	0	330.942	0	63.1	4	20.5	4	-1E+10	1	-1E+10	1	-1E+10	1	-1E+10	1	-1E+10	1	-1E+10	1
4902551	107	C	08/01/2023	15:18	-131.145	47.607	0	334.90	0	5.3230	0	33.9510	0	26.809	0	331.833	0	62.8	4	20.4	4	-1E+10	1	-1E+10	1	-1E+10	1	-1E+10	1	-1E+10	1	-1E+10	1
4902551	107	C	08/01/2023	15:18	-131.145	47.607	0	335.80	0	5.3250	0	33.9520	0	26.810	0	332.724	0	62.5	4	20.3	4	-1E+10	1	-1E+10	1	-1E+10	1	-1E+10	1	-1E+10	1	-1E+10	1
4902551	107	C	08/01/2023	15:18	-131.145	47.607	0	336.70	0	5.3260	0	33.9530	0	26.811	0	333.615	0	62.2	4	20.2	4	-1E+10	1	-1E+10	1	-1E+10	1	-1E+10	1	-1E+10	1	-1E+10	1
4902551	107	C	08/01/2023	15:18	-131.145	47.607	0	337.60	0	5.3250	0	33.9540	0	26.812	0	334.506	0	61.9	4	20.1	4	-1E+10	1	-1E+10	1	-1E+10	1	-1E+10	1	-1E+10	1	-1E+10	1
4902551	107	C	08/01/2023	15:18	-131.145	47.607	0	338.90	0	5.3250	0	33.9550	0	26.812	0	335.793	0	61.4	4	20.0	4	-1E+10	1	-1E+10	1	-1E+10	1	-1E+10	1	-1E+10	1	-1E+10	1
4902551	107	C	08/01/2023	15:18	-131.145	47.607	0	340.30	0	5.3280	0	33.9590	0	26.815	0	337.179	0	61.2	4	19.9	4	-1E+10	1	-1E+10	1	-1E+10	1	-1E+10	1	-1E+10	1	-1E+10	1
4902551	107	C	08/01/2023	15:18	-131.145	47.607	0	341.10	0	5.3250	0	33.9600	0	26.816	0	337.971	0	61.0	4	19.8	4	-1E+10	1	-1E+10	1	-1E+10	1	-1E+10	1	-1E+10	1	-1E+10	1
4902551	107	C	08/01/2023	15:18	-131.145	47.607	0	342.00	0	5.3160	0	33.9600	0	26.817	0	338.862	0	60.8	4	19.8	4	-1E+10	1	-1E+10	1	-1E+10	1	-1E+10	1	-1E+10	1	-1E+10	1
4902551	107	C	08/01/2023	15:18	-131.145	47.607	0	342.90	0	5.2920	0	33.9590	0	26.819	0	339.753	0	60.6	4	19.7	4	-1E+10	1	-1E+10	1	-1E+10	1	-1E+10	1	-1E+10	1	-1E+10	1
4902551	107	C	08/01/2023	15:18	-131.145	47.607	0	343.80	0	5.2910	0	33.9600	0	26.820	0	340.644	0	60.4	4	19.6	4	-1E+10	1	-1E+10	1	-1E+10	1	-1E+10	1	-1E+10	1	-1E+10	1
4902551	107	C	08/01/2023	15:18	-131.145	47.607	0	344.70	0	5.2860	0	33.9580	0	26.819	0	341.535	0	60.2	4	19.6	4	-1E+10	1	-1E+10	1	-1E+10	1	-1E+10	1	-1E+10	1	-1E+10	1
4902551	107	C	08/01/2023	15:18	-131.145	47.607	0	345.60	0	5.2890	0	33.9660	0	26.825	0	342.426	0	60.0	4	19.5	4	-1E+10	1	-1E+10	1	-1E+10	1	-1E+10	1	-1E+10	1	-1E+10	1
4902551	107	C	08/01/2023	15:18	-131.145	47.607	0	346.90	0	5.2640	0	33.9630	0	26.826	0	343.713	0	59.7	4	19.4	4	-1E+10	1	-1E+10	1	-1E+10	1	-1E+10	1	-1E+10	1	-1E+10	1
4902551	107	C	08/01/2023	15:18	-131.145	47.607	0	348.30	0	5.2560	0	33.9620	0	26.826	0	345.099	0	59.5	4	19.3	4	-1E+10	1	-1E+10	1	-1E+10	1	-1E+10	1	-1E+10	1	-1E+10	1
4902551	107	C	08/01/2023	15:18	-131.145	47.607	0	349.20	0	5.2530	0	33.9620	0	26.826	0	345.990	0	59.2	4	19.2	4	-1E+10	1	-1E+10	1	-1E+10	1	-1E+10	1	-1E+10	1	-1E+10	1
4902551	107	C	08/01/2023	15:18	-131.145	47.607	0	350.10	0	5.2520	0	33.9630	0	26.827	0	346.881	0	59.0	4	19.2	4	-1E+10	1	-1E+10	1	-1E+10	1	-1E+10	1	-1E+10	1	-1E+10	1
4902551	107	C	08/01/2023	15:18	-131.145	47.607	0	353.10	0	5.2460	0	33.9650	0	26.830	0	349.851	0	58.2	4	18.9	4	-1E+10	1	-1E+10	1	-1E+10	1	-1E+10	1	-1E+10	1	-1E+10	1
4902551	107	C	08/01/2023	15:18	-131.145	47.607	0	358.10	0	5.2330	0	33.9690	0	26.834	0	354.800	0	57.0	4	18.5	4	-1E+10	1	-1E+10	1	-1E+10	1	-1E+10	1	-1E+10	1	-1E+10	1
4902551	107	C	08/01/2023	15:18	-131.145	47.607	0	363.00	0	5.2130	0	33.9710	0	26.838	0	359.651	0	55.5	4	18.0	4	-1E+10	1	-1E+10	1	-1E+10	1	-1E+10	1	-1E+10	1	-1E+10	1
4902551	107	C	08/01/2023	15:18	-131.145	47.607	0	368.00	0	5.1540	0	33.9780	0	26.851	0	364.601	0	54.1	4	17.5	4	-1E+10	1	-1E+10	1	-1E+10	1	-1E+10	1	-1E+10	1	-1E+10	1
4902551	107	C	08/01/2023	15:18	-131.145	47.607	0	372.60	0	5.1130	0	33.9820	0	26.859	0	369.154	0	53.5	4	17.3	4	-1E+10	1	-1E+10	1	-1E+10	1	-1E+10	1	-1E+10	1	-1E+10	1
4902551	107	C	08/01/2023	15:18	-131.145	47.607	0	377.80	0	5.0830	0	33.9850	0	26.865	0	374.301	0	53.5	4	17.3	4	-1E+10	1	-1E+10	1	-1E+10	1	-1E+10	1	-1E+10	1	-1E+10	1
4902551	107	C	08/01/2023	15:18	-131.145	47.607	0	383.10	0	5.0480	0	33.9860	0	26.869	0	379.547	0	54.1	4	17.5	4	-1E+10	1	-1E+10	1	-1E+10	1	-1E+10	1	-1E+10	1	-1E+10	1
4902551	107	C	08/01/2023	15:18	-131.145	47.607	0	388.10	0	4.9780	0	33.9790	0	26.872	0	384.496	0	55.1	4	17.8	4	-1E+10	1	-1E+10	1	-1E+10	1	-1E+10	1	-1E+10	1	-1E+10	1
4902551	107	C	08/01/2023	15:18	-131.145	47.607	0	393.10	0	4.8500	0	33.9690	0	26.878	0	389.445	0	55.4	4	17.8	4	-1E+10	1	-1E+10	1	-1E+10	1	-1E+10	1	-1E+10	1	-1E+10	1
4902551	107	C	08/01/2023	15:18	-131.145	47.607	0	398.10	0	4.7850	0	33.9640	0	26.882	0	394.394	0	54.7	4	17.6	4	-1E+10	1	-1E+10	1	-1E+10	1	-1E+10	1	-1E+10	1	-1E+10	1
4902551	107	C	08/01/2023	15:18	-131.145	47.607	0	403.20	0	4.7670	0	33.9650	0	26.884	0	399.441	0	53.1	4	17.0	4	-1E+10	1	-1E+10	1	-1E+10	1	-1E+10	1	-1E+10	1	-1E+10	1
4902551	107	C	08/01/2023	15:18	-131.145	47.607	0	407.90	0	4.7640	0	33.9700	0	26.889	0	404.093	0	51.0	4	16.4	4	-1E+10	1	-1E+10	1	-1E+10	1	-1E+10	1	-1E+10	1	-1E+10	1
4902551	107	C	08/01/2023	15:18	-131.145	47.607	0	412.60	0	4.7780	0	33.9820	0	26.897	0	408.745	0	49.4	4	15.9	4	-1E+10	1	-1E+10	1	-1E+10	1	-1E+10	1	-1E+10	1	-1E+10	1
4902551	107	C	08/01/2023	15:18	-131.145	47.607	0	417.90	0	4.7970	0	33.9920	0	26.903	0	413.990	0	48.2	4	15.5	4	-1E+10	1	-1E+10	1	-1E+10	1	-1E+10	1	-1E+10	1	-1E+10	1
4902551	107	C	08/01/2023	15:18	-131.145	47.607	0	423.10	0	4.7880	0	33.9940	0	26.905	0	419.136	0	47.3	4	15.2	4	-1E+10	1	-1E+10	1	-1E+10	1	-1E+10	1	-1E+10	1	-1E+10	1
4902551	107	C	08/01/2023	15:18	-131.145	47.607	0	427.90	0	4.7820	0	34.0000	0	26.911	0	423.886	0	46.4	4	14.9	4	-1E+10	1	-1E+10	1	-1E+10	1	-1E+10	1	-1E+10	1	-1E+10	1
4902551	107	C	08/01/2023	15:18	-131.145	47.607	0	432.70	0	4.7310	0	34.0010	0	26.917	0	428.636	0	46.0	4	14.8	4	-1E+10	1	-1E+10	1	-1E+10	1	-1E+10	1	-1E+10	1	-1E+10	1
4902551	107	C	08/01/2023	15:18	-131.145	47.607	0	438.00	0	4.6550	0	33.9970	0	26.923	0	433.881	0	44.8	4	14.4	4	-1E+10	1	-1E+10	1	-1E+10	1	-1E+10	1	-1E+10	1	-1E+10	1
4902551	107	C	08/01/2023	15:18	-131.145	47.607	0	442.80	0	4.6490	0	34.0070	0	26.931	0	438.630	0	43.6	4	14.0	4	-1E+10	1	-1E+10	1	-1E+10	1	-1E+10	1	-1E+10	1	-1E+10	1
4902551	107	C	08/01/2023	15:18	-131.145	47.607	0	447.60	0	4.6410	0	34.0120	0	26.936	0	443.380	0	43.0	4	13.8	4	-1E+10	1	-1E+10	1	-1E+10	1	-1E+10	1	-1E+10	1	-1E+10	1
4902551	107	C	08/01/2023	15:18	-131.145	47.607	0	453.10	0	4.6260	0	34.0160	0	26.941	0	448.822	0	42.6	4	13.6	4	-1E+10	1	-1E+10	1	-1E+10	1	-1E+10	1	-1E+10	1	-1E+10	1
4902551	107	C	08/01/2023	15:18	-131.145	47.607	0	458.00	0	4.5520	0	34.0160	0	26.949	0	453.671	0	42.1	4	13.5	4	-1E+10	1	-1E+10	1	-1E+10	1	-1E+10	1	-1E+10	1	-1E+10	1
4902551	107	C	08/01/2023	15:18	-131.145	47.607	0	462.70	0	4.5350	0	34.0160	0	26.951	0	458.321	0	41.6	4	13.3	4	-1E+10	1	-1E+10	1	-1E+10	1	-1E+10	1	-1E+10	1	-1E+10	1
4902551	107	C	08/01/2023	15:18	-131.145	47.607	0	467.80	0	4.5330	0	34.0190	0	26.953	0	463.367	0	40.8	4	13.0	4	-1E+10	1	-1E+10	1	-1E+10	1	-1E+10	1	-1E+10	1	-1E+10	1
4902551	107	C	08/01/2023	15:18	-131.145	47.607	0	473.10	0	4.5200	0	34.0230	0	26.958	0	468.611	0	39.8	4	12.7	4	-1E+10	1	-1E+10	1	-1E+10	1	-1E+10	1	-1E+10	1	-1E+10	1
4902551	107	C	08/01/2023	15:18	-131.145	47.607	0	478.00	0	4.5010	0	34.0270	0	26.963	0	473.459	0	38.8	4	12.4	4	-1E+10	1	-1E+10	1	-1E+10	1	-1E+10	1	-1E+10	1	-1E+10	1
4902551	107	C	08/01/2023	15:18	-131.145	47.607	0	483.00	0	4.4800	0	34.0320	0	26.970	0	478.406	0	37.5	4	12.0	4	-1E+10	1	-1E+10	1	-1E+10	1	-1E+10	1	-1E+10	1	-1E+10	1
4902551	107	C	08/01/2023	15:18	-131.145	47.607	0	488.20	0	4.4770	0	34.0350	0	26.972	0	483.550	0	35.9	4	11.5	4	-1E+10	1	-1E+10	1	-1E+10	1	-1E+10	1	-1E+10	1	-1E+10	1
4902551	107	C	08/01/2023	15:18	-131.145	47.607	0	492.90	0	4.5040	0	34.0440	0	26.977	0	488.200	0	34.0	4	10.9	4	-1E+10	1	-1E+10	1	-1E+10	1	-1E+10	1	-1E+10	1	-1E+10	1
4902551	107	C	08/01/2023	15:18	-131.145	47.607	0	497.60	0	4.5200	0	34.0550	0	26.984	0	492.849	0	32.5	4	10.4	4	-1E+10	1	-1E+10	1	-1E+10	1	-1E+10	1	-1E+10	1	-1E+10	1
4902551	107	C	08/01/2023	15:18	-131.145	47.607	0	502.80	0	4.5660	0	34.0670	0	26.988	0	497.994	0	31.3	4	10.0	4	-1E+10	1	-1E+10	1	-1E+10	1	-1E+10	1	-1E+10	1	-1E+10	1
4902551	107	C	08/01/2023	15:18	-131.145	47.607	0	508.00	0	4.5440	0	34.0690	0	26.992	0	503.138	0	30.0	4	9.6	4	-1E+10	1	-1E+10	1	-1E+10	1	-1E+10	1	-1E+10	1	-1E+10	1
4902551	107	C	08/01/2023	15:18	-131.145	47.607	0	513.20	0	4.5570	0	34.0790	0	26.999	0	508.281	0	28.8	4	9.2	4	-1E+10	1	-1E+10	1	-1E+10	1	-1E+10	1	-1E+10	1	-1E+10	1
4902551	107	C	08/01/2023	15:18	-131.145	47.607	0	518.10	0	4.5350	0	34.0850	0	27.006	0	513.128	0	28.0	4	8.9	4	-1E+10	1	-1E+10	1	-1E+10	1	-1E+10	1	-1E+10	1	-1E+10	1
4902551	107	C	08/01/2023	15:18	-131.145	47.607	0	523.00	0	4.5230	0	34.0890	0	27.011	0	517.975	0	27.4	4	8.8	4	-1E+10	1	-1E+10	1	-1E+10	1	-1E+10	1	-1E+10	1	-1E+10	1
4902551	107	C	08/01/2023	15:18	-131.145	47.607	0	528.10	0	4.5160	0	34.0910	0	27.013	0	523.020	0	26.7	4	8.5	4	-1E+10	1	-1E+10	1	-1E+10	1	-1E+10	1	-1E+10	1	-1E+10	1
4902551	107	C	08/01/2023	15:18	-131.145	47.607	0	533.10	0	4.5030	0	34.0970	0	27.019	0	527.965	0	25.8	4	8.3	4	-1E+10	1	-1E+10	1	-1E+10	1	-1E+10	1	-1E+10	1	-1E+10	1
4902551	107	C	08/01/2023	15:18	-131.145	47.607	0	538.10	0	4.4900	0	34.1010	0	27.024	0	532.911	0	25.1	4	8.0	4	-1E+10	1	-1E+10	1	-1E+10	1	-1E+10	1	-1E+10	1	-1E+10	1
4902551	107	C	08/01/2023	15:18	-131.145	47.607	0	542.70	0	4.4710	0	34.1050	0	27.029	0	537.461	0	24.5	4	7.8	4	-1E+10	1	-1E+10	1	-1E+10	1	-1E+10	1	-1E+10	1	-1E+10	1
4902551	107	C	08/01/2023	15:18	-131.145	47.607	0	547.80	0	4.4590	0	34.1100	0	27.034	0	542.505	0	24.0	4	7.7	4	-1E+10	1	-1E+10	1	-1E+10	1	-1E+10	1	-1E+10	1	-1E+10	1
4902551	107	C	08/01/2023	15:18	-131.145	47.607	0	552.90	0	4.4390	0	34.1150	0	27.041	0	547.549	0	23.7	4	7.6	4	-1E+10	1	-1E+10	1	-1E+10	1	-1E+10	1	-1E+10	1	-1E+10	1
4902551	107	C	08/01/2023	15:18	-131.145	47.607	0	558.00	0	4.4140	0	34.1160	0	27.044	0	552.593	0	23.3	4	7.4	4	-1E+10	1	-1E+10	1	-1E+10	1	-1E+10	1	-1E+10	1	-1E+10	1
4902551	107	C	08/01/2023	15:18	-131.145	47.607	0	563.20	0	4.3810	0	34.1190	0	27.050	0	557.735	0	22.8	4	7.3	4	-1E+10	1	-1E+10	1	-1E+10	1	-1E+10	1	-1E+10	1	-1E+10	1
4902551	107	C	08/01/2023	15:18	-131.145	47.607	0	568.00	0	4.3410	0	34.1210	0	27.056	0	562.482	0	22.0	4	7.0	4	-1E+10	1	-1E+10	1	-1E+10	1	-1E+10	1	-1E+10	1	-1E+10	1
4902551	107	C	08/01/2023	15:18	-131.145	47.607	0	572.80	0	4.3260	0	34.1280	0	27.063	0	567.229	0	21.3	4	6.8	4	-1E+10	1	-1E+10	1	-1E+10	1	-1E+10	1	-1E+10	1	-1E+10	1
4902551	107	C	08/01/2023	15:18	-131.145	47.607	0	577.60	0	4.3150	0	34.1360	0	27.071	0	571.976	0	20.5	4	6.5	4	-1E+10	1	-1E+10	1	-1E+10	1	-1E+10	1	-1E+10	1	-1E+10	1
4902551	107	C	08/01/2023	15:18	-131.145	47.607	0	583.00	0	4.3100	0	34.1440	0	27.078	0	577.316	0	20.4	4	6.5	4	-1E+10	1	-1E+10	1	-1E+10	1	-1E+10	1	-1E+10	1	-1E+10	1
4902551	107	C	08/01/2023	15:18	-131.145	47.607	0	588.30	0	4.2570	0	34.1430	0	27.082	0	582.557	0	20.3	4	6.5	4	-1E+10	1	-1E+10	1	-1E+10	1	-1E+10	1	-1E+10	1	-1E+10	1
4902551	107	C	08/01/2023	15:18	-131.145	47.607	0	593.20	0	4.2320	0	34.1460	0	27.087	0	587.402	0	19.9	4	6.3	4	-1E+10	1	-1E+10	1	-1E+10	1	-1E+10	1	-1E+10	1	-1E+10	1
4902551	107	C	08/01/2023	15:18	-131.145	47.607	0	598.10	0	4.1900	0	34.1470	0	27.093	0	592.247	0	19.2	4	6.1	4	-1E+10	1	-1E+10	1	-1E+10	1	-1E+10	1	-1E+10	1	-1E+10	1
4902551	107	C	08/01/2023	15:18	-131.145	47.607	0	603.10	0	4.2120	0	34.1540	0	27.096	0	597.191	0	18.1	4	5.7	4	-1E+10	1	-1E+10	1	-1E+10	1	-1E+10	1	-1E+10	1	-1E+10	1
4902551	107	C	08/01/2023	15:18	-131.145	47.607	0	608.00	0	4.2190	0	34.1620	0	27.102	0	602.036	0	17.4	4	5.5	4	-1E+10	1	-1E+10	1	-1E+10	1	-1E+10	1	-1E+10	1	-1E+10	1
4902551	107	C	08/01/2023	15:18	-131.145	47.607	0	613.00	0	4.2180	0	34.1680	0	27.106	0	606.979	0	17.0	4	5.4	4	-1E+10	1	-1E+10	1	-1E+10	1	-1E+10	1	-1E+10	1	-1E+10	1
4902551	107	C	08/01/2023	15:18	-131.145	47.607	0	617.90	0	4.2080	0	34.1700	0	27.109	0	611.824	0	16.3	4	5.2	4	-1E+10	1	-1E+10	1	-1E+10	1	-1E+10	1	-1E+10	1	-1E+10	1
4902551	107	C	08/01/2023	15:18	-131.145	47.607	0	622.80	0	4.2250	0	34.1800	0	27.115	0	616.669	0	15.7	4	5.0	4	-1E+10	1	-1E+10	1	-1E+10	1	-1E+10	1	-1E+10	1	-1E+10	1
4902551	107	C	08/01/2023	15:18	-131.145	47.607	0	627.70	0	4.2240	0	34.1850	0	27.120	0	621.513	0	15.4	4	4.9	4	-1E+10	1	-1E+10	1	-1E+10	1	-1E+10	1	-1E+10	1	-1E+10	1
4902551	107	C	08/01/2023	15:18	-131.145	47.607	0	632.50	0	4.2190	0	34.1880	0	27.122	0	626.259	0	15.2	4	4.8	4	-1E+10	1	-1E+10	1	-1E+10	1	-1E+10	1	-1E+10	1	-1E+10	1
4902551	107	C	08/01/2023	15:18	-131.145	47.607	0	637.90	0	4.2140	0	34.1940	0	27.128	0	631.597	0	15.2	4	4.8	4	-1E+10	1	-1E+10	1	-1E+10	1	-1E+10	1	-1E+10	1	-1E+10	1
4902551	107	C	08/01/2023	15:18	-131.145	47.607	0	643.20	0	4.2050	0	34.1960	0	27.130	0	636.837	0	15.5	4	4.9	4	-1E+10	1	-1E+10	1	-1E+10	1	-1E+10	1	-1E+10	1	-1E+10	1
4902551	107	C	08/01/2023	15:18	-131.145	47.607	0	648.10	0	4.1220	0	34.1910	0	27.135	0	641.681	0	15.7	4	5.0	4	-1E+10	1	-1E+10	1	-1E+10	1	-1E+10	1	-1E+10	1	-1E+10	1
4902551	107	C	08/01/2023	15:18	-131.145	47.607	0	652.90	0	4.0820	0	34.1890	0	27.138	0	646.426	0	15.4	4	4.9	4	-1E+10	1	-1E+10	1	-1E+10	1	-1E+10	1	-1E+10	1	-1E+10	1
4902551	107	C	08/01/2023	15:18	-131.145	47.607	0	657.80	0	4.1130	0	34.2020	0	27.145	0	651.269	0	15.3	4	4.9	4	-1E+10	1	-1E+10	1	-1E+10	1	-1E+10	1	-1E+10	1	-1E+10	1
4902551	107	C	08/01/2023	15:18	-131.145	47.607	0	662.60	0	4.0760	0	34.2020	0	27.149	0	656.014	0	15.8	4	5.0	4	-1E+10	1	-1E+10	1	-1E+10	1	-1E+10	1	-1E+10	1	-1E+10	1
4902551	107	C	08/01/2023	15:18	-131.145	47.607	0	667.50	0	4.0390	0	34.2010	0	27.152	0	660.858	0	16.0	4	5.1	4	-1E+10	1	-1E+10	1	-1E+10	1	-1E+10	1	-1E+10	1	-1E+10	1
4902551	107	C	08/01/2023	15:18	-131.145	47.607	0	672.90	0	4.0010	0	34.2050	0	27.159	0	666.195	0	17.1	4	5.4	4	-1E+10	1	-1E+10	1	-1E+10	1	-1E+10	1	-1E+10	1	-1E+10	1
4902551	107	C	08/01/2023	15:18	-131.145	47.607	0	678.40	0	3.8960	0	34.1950	0	27.161	0	671.632	0	17.7	4	5.6	4	-1E+10	1	-1E+10	1	-1E+10	1	-1E+10	1	-1E+10	1	-1E+10	1
4902551	107	C	08/01/2023	15:18	-131.145	47.607	0	683.20	0	3.8640	0	34.1950	0	27.165	0	676.376	0	17.4	4	5.5	4	-1E+10	1	-1E+10	1	-1E+10	1	-1E+10	1	-1E+10	1	-1E+10	1
4902551	107	C	08/01/2023	15:18	-131.145	47.607	0	687.90	0	3.8520	0	34.1990	0	27.169	0	681.021	0	16.9	4	5.3	4	-1E+10	1	-1E+10	1	-1E+10	1	-1E+10	1	-1E+10	1	-1E+10	1
4902551	107	C	08/01/2023	15:18	-131.145	47.607	0	692.80	0	3.8540	0	34.2050	0	27.174	0	685.864	0	16.5	4	5.2	4	-1E+10	1	-1E+10	1	-1E+10	1	-1E+10	1	-1E+10	1	-1E+10	1
4902551	107	C	08/01/2023	15:18	-131.145	47.607	0	697.90	0	3.8450	0	34.2080	0	27.177	0	690.905	0	16.5	4	5.2	4	-1E+10	1	-1E+10	1	-1E+10	1	-1E+10	1	-1E+10	1	-1E+10	1
4902551	107	C	08/01/2023	15:18	-131.145	47.607	0	702.70	0	3.8210	0	34.2090	0	27.180	0	695.649	0	16.4	4	5.2	4	-1E+10	1	-1E+10	1	-1E+10	1	-1E+10	1	-1E+10	1	-1E+10	1
4902551	107	C	08/01/2023	15:18	-131.145	47.607	0	707.60	0	3.8110	0	34.2100	0	27.182	0	700.491	0	16.1	4	5.1	4	-1E+10	1	-1E+10	1	-1E+10	1	-1E+10	1	-1E+10	1	-1E+10	1
4902551	107	C	08/01/2023	15:18	-131.145	47.607	0	712.70	0	3.8100	0	34.2140	0	27.185	0	705.532	0	15.9	4	5.0	4	-1E+10	1	-1E+10	1	-1E+10	1	-1E+10	1	-1E+10	1	-1E+10	1
4902551	107	C	08/01/2023	15:18	-131.145	47.607	0	717.90	0	3.7940	0	34.2180	0	27.190	0	710.670	0	16.0	4	5.0	4	-1E+10	1	-1E+10	1	-1E+10	1	-1E+10	1	-1E+10	1	-1E+10	1
4902551	107	C	08/01/2023	15:18	-131.145	47.607	0	722.90	0	3.7640	0	34.2200	0	27.195	0	715.611	0	16.2	4	5.1	4	-1E+10	1	-1E+10	1	-1E+10	1	-1E+10	1	-1E+10	1	-1E+10	1
4902551	107	C	08/01/2023	15:18	-131.145	47.607	0	728.00	0	3.7380	0	34.2190	0	27.197	0	720.651	0	16.1	4	5.1	4	-1E+10	1	-1E+10	1	-1E+10	1	-1E+10	1	-1E+10	1	-1E+10	1
4902551	107	C	08/01/2023	15:18	-131.145	47.607	0	733.20	0	3.7210	0	34.2220	0	27.201	0	725.790	0	15.8	4	5.0	4	-1E+10	1	-1E+10	1	-1E+10	1	-1E+10	1	-1E+10	1	-1E+10	1
4902551	107	C	08/01/2023	15:18	-131.145	47.607	0	738.00	0	3.7050	0	34.2260	0	27.206	0	730.533	0	15.6	4	4.9	4	-1E+10	1	-1E+10	1	-1E+10	1	-1E+10	1	-1E+10	1	-1E+10	1
4902551	107	C	08/01/2023	15:18	-131.145	47.607	0	742.80	0	3.6890	0	34.2310	0	27.211	0	735.276	0	15.3	4	4.8	4	-1E+10	1	-1E+10	1	-1E+10	1	-1E+10	1	-1E+10	1	-1E+10	1
4902551	107	C	08/01/2023	15:18	-131.145	47.607	0	747.80	0	3.6800	0	34.2330	0	27.214	0	740.216	0	15.1	4	4.7	4	-1E+10	1	-1E+10	1	-1E+10	1	-1E+10	1	-1E+10	1	-1E+10	1
4902551	107	C	08/01/2023	15:18	-131.145	47.607	0	752.80	0	3.6690	0	34.2370	0	27.218	0	745.157	0	14.8	4	4.6	4	-1E+10	1	-1E+10	1	-1E+10	1	-1E+10	1	-1E+10	1	-1E+10	1
4902551	107	C	08/01/2023	15:18	-131.145	47.607	0	757.90	0	3.6560	0	34.2420	0	27.223	0	750.196	0	14.5	4	4.6	4	-1E+10	1	-1E+10	1	-1E+10	1	-1E+10	1	-1E+10	1	-1E+10	1
4902551	107	C	08/01/2023	15:18	-131.145	47.607	0	763.10	0	3.6450	0	34.2450	0	27.227	0	755.333	0	14.3	4	4.5	4	-1E+10	1	-1E+10	1	-1E+10	1	-1E+10	1	-1E+10	1	-1E+10	1
4902551	107	C	08/01/2023	15:18	-131.145	47.607	0	767.90	0	3.6440	0	34.2490	0	27.230	0	760.076	0	14.2	4	4.4	4	-1E+10	1	-1E+10	1	-1E+10	1	-1E+10	1	-1E+10	1	-1E+10	1
4902551	107	C	08/01/2023	15:18	-131.145	47.607	0	772.70	0	3.6330	0	34.2520	0	27.234	0	764.818	0	14.1	4	4.4	4	-1E+10	1	-1E+10	1	-1E+10	1	-1E+10	1	-1E+10	1	-1E+10	1
4902551	107	C	08/01/2023	15:18	-131.145	47.607	0	777.90	0	3.6240	0	34.2530	0	27.235	0	769.955	0	14.0	4	4.4	4	-1E+10	1	-1E+10	1	-1E+10	1	-1E+10	1	-1E+10	1	-1E+10	1
4902551	107	C	08/01/2023	15:18	-131.145	47.607	0	783.30	0	3.6170	0	34.2540	0	27.237	0	775.290	0	13.9	4	4.4	4	-1E+10	1	-1E+10	1	-1E+10	1	-1E+10	1	-1E+10	1	-1E+10	1
4902551	107	C	08/01/2023	15:18	-131.145	47.607	0	788.10	0	3.6050	0	34.2560	0	27.240	0	780.032	0	13.8	4	4.3	4	-1E+10	1	-1E+10	1	-1E+10	1	-1E+10	1	-1E+10	1	-1E+10	1
4902551	107	C	08/01/2023	15:18	-131.145	47.607	0	792.80	0	3.5970	0	34.2590	0	27.243	0	784.675	0	13.6	4	4.3	4	-1E+10	1	-1E+10	1	-1E+10	1	-1E+10	1	-1E+10	1	-1E+10	1
4902551	107	C	08/01/2023	15:18	-131.145	47.607	0	798.10	0	3.5890	0	34.2610	0	27.245	0	789.911	0	13.4	4	4.2	4	-1E+10	1	-1E+10	1	-1E+10	1	-1E+10	1	-1E+10	1	-1E+10	1
4902551	107	C	08/01/2023	15:18	-131.145	47.607	0	802.90	0	3.5790	0	34.2640	0	27.249	0	794.653	0	13.2	4	4.1	4	-1E+10	1	-1E+10	1	-1E+10	1	-1E+10	1	-1E+10	1	-1E+10	1
4902551	107	C	08/01/2023	15:18	-131.145	47.607	0	807.70	0	3.5640	0	34.2690	0	27.254	0	799.394	0	13.0	4	4.1	4	-1E+10	1	-1E+10	1	-1E+10	1	-1E+10	1	-1E+10	1	-1E+10	1
4902551	107	C	08/01/2023	15:18	-131.145	47.607	0	813.00	0	3.5500	0	34.2740	0	27.259	0	804.629	0	12.7	4	4.0	4	-1E+10	1	-1E+10	1	-1E+10	1	-1E+10	1	-1E+10	1	-1E+10	1
4902551	107	C	08/01/2023	15:18	-131.145	47.607	0	817.90	0	3.5390	0	34.2790	0	27.264	0	809.469	0	12.6	4	3.9	4	-1E+10	1	-1E+10	1	-1E+10	1	-1E+10	1	-1E+10	1	-1E+10	1
4902551	107	C	08/01/2023	15:18	-131.145	47.607	0	823.00	0	3.5330	0	34.2810	0	27.267	0	814.507	0	12.4	4	3.9	4	-1E+10	1	-1E+10	1	-1E+10	1	-1E+10	1	-1E+10	1	-1E+10	1
4902551	107	C	08/01/2023	15:18	-131.145	47.607	0	828.20	0	3.5260	0	34.2840	0	27.270	0	819.643	0	12.3	4	3.8	4	-1E+10	1	-1E+10	1	-1E+10	1	-1E+10	1	-1E+10	1	-1E+10	1
4902551	107	C	08/01/2023	15:18	-131.145	47.607	0	833.00	0	3.5160	0	34.2880	0	27.274	0	824.384	0	12.1	4	3.8	4	-1E+10	1	-1E+10	1	-1E+10	1	-1E+10	1	-1E+10	1	-1E+10	1
4902551	107	C	08/01/2023	15:18	-131.145	47.607	0	837.80	0	3.5070	0	34.2910	0	27.277	0	829.125	0	12.0	4	3.8	4	-1E+10	1	-1E+10	1	-1E+10	1	-1E+10	1	-1E+10	1	-1E+10	1
4902551	107	C	08/01/2023	15:18	-131.145	47.607	0	842.70	0	3.4990	0	34.2940	0	27.280	0	833.964	0	11.9	4	3.7	4	-1E+10	1	-1E+10	1	-1E+10	1	-1E+10	1	-1E+10	1	-1E+10	1
4902551	107	C	08/01/2023	15:18	-131.145	47.607	0	847.60	0	3.4930	0	34.2970	0	27.283	0	838.804	0	11.8	4	3.7	4	-1E+10	1	-1E+10	1	-1E+10	1	-1E+10	1	-1E+10	1	-1E+10	1
4902551	107	C	08/01/2023	15:18	-131.145	47.607	0	852.50	0	3.4860	0	34.2990	0	27.286	0	843.643	0	11.7	4	3.7	4	-1E+10	1	-1E+10	1	-1E+10	1	-1E+10	1	-1E+10	1	-1E+10	1
4902551	107	C	08/01/2023	15:18	-131.145	47.607	0	857.50	0	3.4800	0	34.3010	0	27.288	0	848.581	0	11.6	4	3.6	4	-1E+10	1	-1E+10	1	-1E+10	1	-1E+10	1	-1E+10	1	-1E+10	1
4902551	107	C	08/01/2023	15:18	-131.145	47.607	0	862.50	0	3.4640	0	34.3060	0	27.293	0	853.519	0	11.5	4	3.6	4	-1E+10	1	-1E+10	1	-1E+10	1	-1E+10	1	-1E+10	1	-1E+10	1
4902551	107	C	08/01/2023	15:18	-131.145	47.607	0	867.50	0	3.4570	0	34.3080	0	27.296	0	858.456	0	11.4	4	3.6	4	-1E+10	1	-1E+10	1	-1E+10	1	-1E+10	1	-1E+10	1	-1E+10	1
4902551	107	C	08/01/2023	15:18	-131.145	47.607	0	872.50	0	3.4500	0	34.3100	0	27.298	0	863.394	0	11.4	4	3.5	4	-1E+10	1	-1E+10	1	-1E+10	1	-1E+10	1	-1E+10	1	-1E+10	1
4902551	107	C	08/01/2023	15:18	-131.145	47.607	0	877.60	0	3.4390	0	34.3130	0	27.302	0	868.430	0	11.3	4	3.5	4	-1E+10	1	-1E+10	1	-1E+10	1	-1E+10	1	-1E+10	1	-1E+10	1
4902551	107	C	08/01/2023	15:18	-131.145	47.607	0	882.70	0	3.4340	0	34.3150	0	27.304	0	873.466	0	11.3	4	3.5	4	-1E+10	1	-1E+10	1	-1E+10	1	-1E+10	1	-1E+10	1	-1E+10	1
4902551	107	C	08/01/2023	15:18	-131.145	47.607	0	887.90	0	3.4240	0	34.3170	0	27.306	0	878.601	0	11.3	4	3.5	4	-1E+10	1	-1E+10	1	-1E+10	1	-1E+10	1	-1E+10	1	-1E+10	1
4902551	107	C	08/01/2023	15:18	-131.145	47.607	0	893.10	0	3.4170	0	34.3180	0	27.308	0	883.735	0	11.3	4	3.5	4	-1E+10	1	-1E+10	1	-1E+10	1	-1E+10	1	-1E+10	1	-1E+10	1
4902551	107	C	08/01/2023	15:18	-131.145	47.607	0	898.00	0	3.4170	0	34.3190	0	27.309	0	888.574	0	11.2	4	3.5	4	-1E+10	1	-1E+10	1	-1E+10	1	-1E+10	1	-1E+10	1	-1E+10	1
4902551	107	C	08/01/2023	15:18	-131.145	47.607	0	902.80	0	3.4120	0	34.3200	0	27.310	0	893.313	0	11.2	4	3.5	4	-1E+10	1	-1E+10	1	-1E+10	1	-1E+10	1	-1E+10	1	-1E+10	1
4902551	107	C	08/01/2023	15:18	-131.145	47.607	0	907.80	0	3.4020	0	34.3220	0	27.312	0	898.250	0	11.2	4	3.5	4	-1E+10	1	-1E+10	1	-1E+10	1	-1E+10	1	-1E+10	1	-1E+10	1
4902551	107	C	08/01/2023	15:18	-131.145	47.607	0	912.70	0	3.3950	0	34.3240	0	27.315	0	903.088	0	11.2	4	3.5	4	-1E+10	1	-1E+10	1	-1E+10	1	-1E+10	1	-1E+10	1	-1E+10	1
4902551	107	C	08/01/2023	15:18	-131.145	47.607	0	917.80	0	3.3880	0	34.3260	0	27.317	0	908.123	0	11.3	4	3.5	4	-1E+10	1	-1E+10	1	-1E+10	1	-1E+10	1	-1E+10	1	-1E+10	1
4902551	107	C	08/01/2023	15:18	-131.145	47.607	0	922.80	0	3.3580	0	34.3250	0	27.319	0	913.059	0	11.3	4	3.5	4	-1E+10	1	-1E+10	1	-1E+10	1	-1E+10	1	-1E+10	1	-1E+10	1
4902551	107	C	08/01/2023	15:18	-131.145	47.607	0	928.00	0	3.3500	0	34.3270	0	27.321	0	918.193	0	11.2	4	3.5	4	-1E+10	1	-1E+10	1	-1E+10	1	-1E+10	1	-1E+10	1	-1E+10	1
4902551	107	C	08/01/2023	15:18	-131.145	47.607	0	932.80	0	3.3460	0	34.3290	0	27.323	0	922.932	0	11.1	4	3.5	4	-1E+10	1	-1E+10	1	-1E+10	1	-1E+10	1	-1E+10	1	-1E+10	1
4902551	107	C	08/01/2023	15:18	-131.145	47.607	0	937.70	0	3.3560	0	34.3330	0	27.326	0	927.769	0	11.0	4	3.4	4	-1E+10	1	-1E+10	1	-1E+10	1	-1E+10	1	-1E+10	1	-1E+10	1
4902551	107	C	08/01/2023	15:18	-131.145	47.607	0	942.60	0	3.3490	0	34.3370	0	27.330	0	932.606	0	11.0	4	3.4	4	-1E+10	1	-1E+10	1	-1E+10	1	-1E+10	1	-1E+10	1	-1E+10	1
4902551	107	C	08/01/2023	15:18	-131.145	47.607	0	947.60	0	3.3430	0	34.3380	0	27.331	0	937.542	0	11.0	4	3.4	4	-1E+10	1	-1E+10	1	-1E+10	1	-1E+10	1	-1E+10	1	-1E+10	1
4902551	107	C	08/01/2023	15:18	-131.145	47.607	0	952.70	0	3.3330	0	34.3400	0	27.334	0	942.576	0	11.0	4	3.4	4	-1E+10	1	-1E+10	1	-1E+10	1	-1E+10	1	-1E+10	1	-1E+10	1
4902551	107	C	08/01/2023	15:18	-131.145	47.607	0	957.80	0	3.3220	0	34.3410	0	27.335	0	947.611	0	11.0	4	3.4	4	-1E+10	1	-1E+10	1	-1E+10	1	-1E+10	1	-1E+10	1	-1E+10	1
4902551	107	C	08/01/2023	15:18	-131.145	47.607	0	962.90	0	3.3180	0	34.3430	0	27.337	0	952.645	0	11.0	4	3.4	4	-1E+10	1	-1E+10	1	-1E+10	1	-1E+10	1	-1E+10	1	-1E+10	1
4902551	107	C	08/01/2023	15:18	-131.145	47.607	0	968.00	0	3.3080	0	34.3440	0	27.339	0	957.679	0	11.0	4	3.4	4	-1E+10	1	-1E+10	1	-1E+10	1	-1E+10	1	-1E+10	1	-1E+10	1
4902551	107	C	08/01/2023	15:18	-131.145	47.607	0	973.10	0	3.2940	0	34.3460	0	27.342	0	962.713	0	11.1	4	3.5	4	-1E+10	1	-1E+10	1	-1E+10	1	-1E+10	1	-1E+10	1	-1E+10	1
4902551	107	C	08/01/2023	15:18	-131.145	47.607	0	978.20	0	3.2780	0	34.3470	0	27.345	0	967.747	0	11.1	4	3.5	4	-1E+10	1	-1E+10	1	-1E+10	1	-1E+10	1	-1E+10	1	-1E+10	1
4902551	107	C	08/01/2023	15:18	-131.145	47.607	0	983.30	0	3.2610	0	34.3500	0	27.349	0	972.780	0	11.2	4	3.5	4	-1E+10	1	-1E+10	1	-1E+10	1	-1E+10	1	-1E+10	1	-1E+10	1
4902551	107	C	08/01/2023	15:18	-131.145	47.607	0	988.00	0	3.2530	0	34.3510	0	27.350	0	977.419	0	11.2	4	3.5	4	-1E+10	1	-1E+10	1	-1E+10	1	-1E+10	1	-1E+10	1	-1E+10	1
4902551	107	C	08/01/2023	15:18	-131.145	47.607	0	992.50	0	3.2490	0	34.3530	0	27.352	0	981.860	0	11.3	4	3.5	4	-1E+10	1	-1E+10	1	-1E+10	1	-1E+10	1	-1E+10	1	-1E+10	1
4902551	107	C	08/01/2023	15:18	-131.145	47.607	0	997.70	0	3.2140	0	34.3520	0	27.355	0	986.992	0	11.4	4	3.5	4	-1E+10	1	-1E+10	1	-1E+10	1	-1E+10	1	-1E+10	1	-1E+10	1
4902551	107	C	08/01/2023	15:18	-131.145	47.607	0	1005.40	0	3.2020	0	34.3540	0	27.357	0	994.591	0	11.3	4	3.5	4	-1E+10	1	-1E+10	1	-1E+10	1	-1E+10	1	-1E+10	1	-1E+10	1
4902551	107	C	08/01/2023	15:18	-131.145	47.607	0	1015.30	0	3.2050	0	34.3590	0	27.361	0	1004.361	0	11.3	4	3.5	4	-1E+10	1	-1E+10	1	-1E+10	1	-1E+10	1	-1E+10	1	-1E+10	1
4902551	107	C	08/01/2023	15:18	-131.145	47.607	0	1025.30	0	3.1780	0	34.3610	0	27.365	0	1014.229	0	11.3	4	3.5	4	-1E+10	1	-1E+10	1	-1E+10	1	-1E+10	1	-1E+10	1	-1E+10	1
4902551	107	C	08/01/2023	15:18	-131.145	47.607	0	1035.40	0	3.1650	0	34.3640	0	27.369	0	1024.196	0	11.3	4	3.5	4	-1E+10	1	-1E+10	1	-1E+10	1	-1E+10	1	-1E+10	1	-1E+10	1
4902551	107	C	08/01/2023	15:18	-131.145	47.607	0	1045.40	0	3.1770	0	34.3730	0	27.375	0	1034.063	0	11.3	4	3.5	4	-1E+10	1	-1E+10	1	-1E+10	1	-1E+10	1	-1E+10	1	-1E+10	1
4902551	107	C	08/01/2023	15:18	-131.145	47.607	0	1055.70	0	3.1770	0	34.3800	0	27.381	0	1044.225	0	11.3	4	3.5	4	-1E+10	1	-1E+10	1	-1E+10	1	-1E+10	1	-1E+10	1	-1E+10	1
4902551	107	C	08/01/2023	15:18	-131.145	47.607	0	1065.60	0	3.1920	0	34.3880	0	27.386	0	1053.993	0	11.3	4	3.5	4	-1E+10	1	-1E+10	1	-1E+10	1	-1E+10	1	-1E+10	1	-1E+10	1
4902551	107	C	08/01/2023	15:18	-131.145	47.607	0	1075.80	0	3.1750	0	34.3910	0	27.390	0	1064.056	0	11.5	4	3.6	4	-1E+10	1	-1E+10	1	-1E+10	1	-1E+10	1	-1E+10	1	-1E+10	1
4902551	107	C	08/01/2023	15:18	-131.145	47.607	0	1085.60	0	3.1170	0	34.3880	0	27.393	0	1073.724	0	11.6	4	3.6	4	-1E+10	1	-1E+10	1	-1E+10	1	-1E+10	1	-1E+10	1	-1E+10	1
4902551	107	C	08/01/2023	15:18	-131.145	47.607	0	1095.40	0	3.1220	0	34.3940	0	27.397	0	1083.391	0	11.7	4	3.6	4	-1E+10	1	-1E+10	1	-1E+10	1	-1E+10	1	-1E+10	1	-1E+10	1
4902551	107	C	08/01/2023	15:18	-131.145	47.607	0	1105.40	0	3.1570	0	34.4030	0	27.401	0	1093.256	0	11.8	4	3.7	4	-1E+10	1	-1E+10	1	-1E+10	1	-1E+10	1	-1E+10	1	-1E+10	1
4902551	107	C	08/01/2023	15:18	-131.145	47.607	0	1115.30	0	3.1440	0	34.4050	0	27.404	0	1103.021	0	11.9	4	3.7	4	-1E+10	1	-1E+10	1	-1E+10	1	-1E+10	1	-1E+10	1	-1E+10	1
4902551	107	C	08/01/2023	15:18	-131.145	47.607	0	1125.30	0	3.1140	0	34.4070	0	27.409	0	1112.884	0	12.0	4	3.7	4	-1E+10	1	-1E+10	1	-1E+10	1	-1E+10	1	-1E+10	1	-1E+10	1
4902551	107	C	08/01/2023	15:18	-131.145	47.607	0	1135.50	0	3.0810	0	34.4070	0	27.412	0	1122.945	0	12.2	4	3.8	4	-1E+10	1	-1E+10	1	-1E+10	1	-1E+10	1	-1E+10	1	-1E+10	1
4902551	107	C	08/01/2023	15:18	-131.145	47.607	0	1145.50	0	3.0650	0	34.4120	0	27.417	0	1132.807	0	12.4	4	3.8	4	-1E+10	1	-1E+10	1	-1E+10	1	-1E+10	1	-1E+10	1	-1E+10	1
4902551	107	C	08/01/2023	15:18	-131.145	47.607	0	1155.30	0	3.0510	0	34.4170	0	27.422	0	1142.472	0	12.6	4	3.9	4	-1E+10	1	-1E+10	1	-1E+10	1	-1E+10	1	-1E+10	1	-1E+10	1
4902551	107	C	08/01/2023	15:18	-131.145	47.607	0	1165.30	0	3.0240	0	34.4180	0	27.426	0	1152.333	0	12.8	4	3.9	4	-1E+10	1	-1E+10	1	-1E+10	1	-1E+10	1	-1E+10	1	-1E+10	1
4902551	107	C	08/01/2023	15:18	-131.145	47.607	0	1175.50	0	3.0140	0	34.4210	0	27.429	0	1162.392	0	12.9	4	4.0	4	-1E+10	1	-1E+10	1	-1E+10	1	-1E+10	1	-1E+10	1	-1E+10	1
4902551	107	C	08/01/2023	15:18	-131.145	47.607	0	1185.20	0	2.9880	0	34.4220	0	27.432	0	1171.956	0	13.0	4	4.0	4	-1E+10	1	-1E+10	1	-1E+10	1	-1E+10	1	-1E+10	1	-1E+10	1
4902551	107	C	08/01/2023	15:18	-131.145	47.607	0	1195.00	0	2.9440	0	34.4230	0	27.437	0	1181.620	0	13.2	4	4.1	4	-1E+10	1	-1E+10	1	-1E+10	1	-1E+10	1	-1E+10	1	-1E+10	1
4902551	107	C	08/01/2023	15:18	-131.145	47.607	0	1205.00	0	2.9330	0	34.4270	0	27.441	0	1191.479	0	13.4	4	4.1	4	-1E+10	1	-1E+10	1	-1E+10	1	-1E+10	1	-1E+10	1	-1E+10	1
4902551	107	C	08/01/2023	15:18	-131.145	47.607	0	1215.00	0	2.9080	0	34.4280	0	27.444	0	1201.338	0	13.5	4	4.2	4	-1E+10	1	-1E+10	1	-1E+10	1	-1E+10	1	-1E+10	1	-1E+10	1
4902551	107	C	08/01/2023	15:18	-131.145	47.607	0	1225.00	0	2.8840	0	34.4320	0	27.450	0	1211.197	0	13.7	4	4.2	4	-1E+10	1	-1E+10	1	-1E+10	1	-1E+10	1	-1E+10	1	-1E+10	1
4902551	107	C	08/01/2023	15:18	-131.145	47.607	0	1235.10	0	2.8480	0	34.4320	0	27.453	0	1221.154	0	13.9	4	4.3	4	-1E+10	1	-1E+10	1	-1E+10	1	-1E+10	1	-1E+10	1	-1E+10	1
4902551	107	C	08/01/2023	15:18	-131.145	47.607	0	1245.20	0	2.8470	0	34.4370	0	27.457	0	1231.111	0	14.2	4	4.4	4	-1E+10	1	-1E+10	1	-1E+10	1	-1E+10	1	-1E+10	1	-1E+10	1
4902551	107	C	08/01/2023	15:18	-131.145	47.607	0	1255.30	0	2.8270	0	34.4400	0	27.461	0	1241.067	0	14.4	4	4.4	4	-1E+10	1	-1E+10	1	-1E+10	1	-1E+10	1	-1E+10	1	-1E+10	1
4902551	107	C	08/01/2023	15:18	-131.145	47.607	0	1265.20	0	2.7990	0	34.4420	0	27.465	0	1250.825	0	14.6	4	4.5	4	-1E+10	1	-1E+10	1	-1E+10	1	-1E+10	1	-1E+10	1	-1E+10	1
4902551	107	C	08/01/2023	15:18	-131.145	47.607	0	1275.30	0	2.7570	0	34.4450	0	27.472	0	1260.780	0	14.8	4	4.6	4	-1E+10	1	-1E+10	1	-1E+10	1	-1E+10	1	-1E+10	1	-1E+10	1
4902551	107	C	08/01/2023	15:18	-131.145	47.607	0	1285.20	0	2.7390	0	34.4470	0	27.475	0	1270.537	0	15.1	4	4.6	4	-1E+10	1	-1E+10	1	-1E+10	1	-1E+10	1	-1E+10	1	-1E+10	1
4902551	107	C	08/01/2023	15:18	-131.145	47.607	0	1295.30	0	2.7250	0	34.4490	0	27.478	0	1280.491	0	15.4	4	4.7	4	-1E+10	1	-1E+10	1	-1E+10	1	-1E+10	1	-1E+10	1	-1E+10	1
4902551	107	C	08/01/2023	15:18	-131.145	47.607	0	1305.50	0	2.7230	0	34.4520	0	27.480	0	1290.544	0	15.6	4	4.8	4	-1E+10	1	-1E+10	1	-1E+10	1	-1E+10	1	-1E+10	1	-1E+10	1
4902551	107	C	08/01/2023	15:18	-131.145	47.607	0	1315.60	0	2.7020	0	34.4540	0	27.484	0	1300.497	0	16.0	4	4.9	4	-1E+10	1	-1E+10	1	-1E+10	1	-1E+10	1	-1E+10	1	-1E+10	1
4902551	107	C	08/01/2023	15:18	-131.145	47.607	0	1325.40	0	2.6980	0	34.4570	0	27.487	0	1310.154	0	16.3	4	5.0	4	-1E+10	1	-1E+10	1	-1E+10	1	-1E+10	1	-1E+10	1	-1E+10	1
4902551	107	C	08/01/2023	15:18	-131.145	47.607	0	1335.20	0	2.6800	0	34.4590	0	27.490	0	1319.810	0	16.6	4	5.1	4	-1E+10	1	-1E+10	1	-1E+10	1	-1E+10	1	-1E+10	1	-1E+10	1
4902551	107	C	08/01/2023	15:18	-131.145	47.607	0	1345.10	0	2.6720	0	34.4630	0	27.494	0	1329.565	0	17.1	4	5.2	4	-1E+10	1	-1E+10	1	-1E+10	1	-1E+10	1	-1E+10	1	-1E+10	1
4902551	107	C	08/01/2023	15:18	-131.145	47.607	0	1355.20	0	2.6750	0	34.4660	0	27.496	0	1339.516	0	17.5	4	5.3	4	-1E+10	1	-1E+10	1	-1E+10	1	-1E+10	1	-1E+10	1	-1E+10	1
4902551	107	C	08/01/2023	15:18	-131.145	47.607	0	1365.50	0	2.6620	0	34.4680	0	27.499	0	1349.664	0	17.7	4	5.4	4	-1E+10	1	-1E+10	1	-1E+10	1	-1E+10	1	-1E+10	1	-1E+10	1
4902551	107	C	08/01/2023	15:18	-131.145	47.607	0	1375.50	0	2.6330	0	34.4690	0	27.502	0	1359.516	0	18.0	4	5.5	4	-1E+10	1	-1E+10	1	-1E+10	1	-1E+10	1	-1E+10	1	-1E+10	1
4902551	107	C	08/01/2023	15:18	-131.145	47.607	0	1385.20	0	2.6060	0	34.4720	0	27.507	0	1369.072	0	18.5	4	5.7	4	-1E+10	1	-1E+10	1	-1E+10	1	-1E+10	1	-1E+10	1	-1E+10	1
4902551	107	C	08/01/2023	15:18	-131.145	47.607	0	1395.50	0	2.5910	0	34.4760	0	27.511	0	1379.218	0	19.3	4	5.9	4	-1E+10	1	-1E+10	1	-1E+10	1	-1E+10	1	-1E+10	1	-1E+10	1
4902551	107	C	08/01/2023	15:18	-131.145	47.607	0	1405.80	0	2.5750	0	34.4800	0	27.516	0	1389.364	0	20.1	4	6.2	4	-1E+10	1	-1E+10	1	-1E+10	1	-1E+10	1	-1E+10	1	-1E+10	1
4902551	107	C	08/01/2023	15:18	-131.145	47.607	0	1415.80	0	2.5580	0	34.4840	0	27.521	0	1399.214	0	20.9	4	6.4	4	-1E+10	1	-1E+10	1	-1E+10	1	-1E+10	1	-1E+10	1	-1E+10	1
4902551	107	C	08/01/2023	15:18	-131.145	47.607	0	1425.70	0	2.5460	0	34.4880	0	27.525	0	1408.965	0	21.5	4	6.6	4	-1E+10	1	-1E+10	1	-1E+10	1	-1E+10	1	-1E+10	1	-1E+10	1
4902551	107	C	08/01/2023	15:18	-131.145	47.607	0	1435.10	0	2.5310	0	34.4900	0	27.528	0	1418.223	0	22.1	4	6.7	4	-1E+10	1	-1E+10	1	-1E+10	1	-1E+10	1	-1E+10	1	-1E+10	1
4902551	107	C	08/01/2023	15:18	-131.145	47.607	0	1445.50	0	2.5130	0	34.4940	0	27.533	0	1428.466	0	22.7	4	6.9	4	-1E+10	1	-1E+10	1	-1E+10	1	-1E+10	1	-1E+10	1	-1E+10	1
4902551	107	C	08/01/2023	15:18	-131.145	47.607	0	1455.70	0	2.5020	0	34.4960	0	27.535	0	1438.511	0	23.2	4	7.1	4	-1E+10	1	-1E+10	1	-1E+10	1	-1E+10	1	-1E+10	1	-1E+10	1
4902551	107	C	08/01/2023	15:18	-131.145	47.607	0	1465.70	0	2.4960	0	34.4970	0	27.536	0	1448.358	0	23.6	4	7.2	4	-1E+10	1	-1E+10	1	-1E+10	1	-1E+10	1	-1E+10	1	-1E+10	1
4902551	107	C	08/01/2023	15:18	-131.145	47.607	0	1475.30	0	2.4900	0	34.4980	0	27.538	0	1457.812	0	24.1	4	7.3	4	-1E+10	1	-1E+10	1	-1E+10	1	-1E+10	1	-1E+10	1	-1E+10	1
4902551	107	C	08/01/2023	15:18	-131.145	47.607	0	1485.10	0	2.4770	0	34.5010	0	27.541	0	1467.462	0	24.7	4	7.5	4	-1E+10	1	-1E+10	1	-1E+10	1	-1E+10	1	-1E+10	1	-1E+10	1
4902551	107	C	08/01/2023	15:18	-131.145	47.607	0	1495.40	0	2.4630	0	34.5030	0	27.544	0	1477.603	0	25.3	4	7.7	4	-1E+10	1	-1E+10	1	-1E+10	1	-1E+10	1	-1E+10	1	-1E+10	1
4902551	107	C	08/01/2023	15:18	-131.145	47.607	0	1505.50	0	2.4530	0	34.5050	0	27.547	0	1487.548	0	25.9	4	7.9	4	-1E+10	1	-1E+10	1	-1E+10	1	-1E+10	1	-1E+10	1	-1E+10	1
4902551	107	C	08/01/2023	15:18	-131.145	47.607	0	1515.50	0	2.4380	0	34.5080	0	27.550	0	1497.393	0	26.6	4	8.1	4	-1E+10	1	-1E+10	1	-1E+10	1	-1E+10	1	-1E+10	1	-1E+10	1
4902551	107	C	08/01/2023	15:18	-131.145	47.607	0	1525.40	0	2.4130	0	34.5100	0	27.554	0	1507.139	0	27.2	4	8.3	4	-1E+10	1	-1E+10	1	-1E+10	1	-1E+10	1	-1E+10	1	-1E+10	1
4902551	107	C	08/01/2023	15:18	-131.145	47.607	0	1535.50	0	2.3930	0	34.5120	0	27.557	0	1517.082	0	28.0	4	8.5	4	-1E+10	1	-1E+10	1	-1E+10	1	-1E+10	1	-1E+10	1	-1E+10	1
4902551	107	C	08/01/2023	15:18	-131.145	47.607	0	1545.70	0	2.3810	0	34.5160	0	27.562	0	1527.123	0	28.8	4	8.8	4	-1E+10	1	-1E+10	1	-1E+10	1	-1E+10	1	-1E+10	1	-1E+10	1
4902551	107	C	08/01/2023	15:18	-131.145	47.607	0	1555.60	0	2.3650	0	34.5180	0	27.565	0	1536.868	0	29.4	4	9.0	4	-1E+10	1	-1E+10	1	-1E+10	1	-1E+10	1	-1E+10	1	-1E+10	1
4902551	107	C	08/01/2023	15:18	-131.145	47.607	0	1565.50	0	2.3500	0	34.5200	0	27.567	0	1546.613	0	30.1	4	9.2	4	-1E+10	1	-1E+10	1	-1E+10	1	-1E+10	1	-1E+10	1	-1E+10	1
4902551	107	C	08/01/2023	15:18	-131.145	47.607	0	1575.70	0	2.3340	0	34.5220	0	27.570	0	1556.652	0	30.8	4	9.4	4	-1E+10	1	-1E+10	1	-1E+10	1	-1E+10	1	-1E+10	1	-1E+10	1
4902551	107	C	08/01/2023	15:18	-131.145	47.607	0	1585.60	0	2.3160	0	34.5250	0	27.574	0	1566.396	0	31.3	4	9.5	4	-1E+10	1	-1E+10	1	-1E+10	1	-1E+10	1	-1E+10	1	-1E+10	1
4902551	107	C	08/01/2023	15:18	-131.145	47.607	0	1595.30	0	2.3070	0	34.5260	0	27.576	0	1575.942	0	31.8	4	9.7	4	-1E+10	1	-1E+10	1	-1E+10	1	-1E+10	1	-1E+10	1	-1E+10	1
4902551	107	C	08/01/2023	15:18	-131.145	47.607	0	1605.20	0	2.2920	0	34.5280	0	27.579	0	1585.685	0	32.3	4	9.8	4	-1E+10	1	-1E+10	1	-1E+10	1	-1E+10	1	-1E+10	1	-1E+10	1
4902551	107	C	08/01/2023	15:18	-131.145	47.607	0	1615.20	0	2.2790	0	34.5290	0	27.581	0	1595.526	0	32.9	4	10.0	4	-1E+10	1	-1E+10	1	-1E+10	1	-1E+10	1	-1E+10	1	-1E+10	1
4902551	107	C	08/01/2023	15:18	-131.145	47.607	0	1625.70	0	2.2640	0	34.5310	0	27.584	0	1605.858	0	33.5	4	10.2	4	-1E+10	1	-1E+10	1	-1E+10	1	-1E+10	1	-1E+10	1	-1E+10	1
4902551	107	C	08/01/2023	15:18	-131.145	47.607	0	1635.50	0	2.2460	0	34.5330	0	27.587	0	1615.501	0	34.0	4	10.3	4	-1E+10	1	-1E+10	1	-1E+10	1	-1E+10	1	-1E+10	1	-1E+10	1
4902551	107	C	08/01/2023	15:18	-131.145	47.607	0	1645.40	0	2.2370	0	34.5340	0	27.588	0	1625.242	0	34.5	4	10.4	4	-1E+10	1	-1E+10	1	-1E+10	1	-1E+10	1	-1E+10	1	-1E+10	1
4902551	107	C	08/01/2023	15:18	-131.145	47.607	0	1655.10	0	2.2270	0	34.5360	0	27.591	0	1634.786	0	35.0	4	10.6	4	-1E+10	1	-1E+10	1	-1E+10	1	-1E+10	1	-1E+10	1	-1E+10	1
4902551	107	C	08/01/2023	15:18	-131.145	47.607	0	1665.20	0	2.2160	0	34.5370	0	27.592	0	1644.723	0	35.4	4	10.7	4	-1E+10	1	-1E+10	1	-1E+10	1	-1E+10	1	-1E+10	1	-1E+10	1
4902551	107	C	08/01/2023	15:18	-131.145	47.607	0	1675.50	0	2.2050	0	34.5390	0	27.595	0	1654.856	0	35.9	4	10.9	4	-1E+10	1	-1E+10	1	-1E+10	1	-1E+10	1	-1E+10	1	-1E+10	1
4902551	107	C	08/01/2023	15:18	-131.145	47.607	0	1685.50	0	2.1930	0	34.5400	0	27.597	0	1664.694	0	36.6	4	11.1	4	-1E+10	1	-1E+10	1	-1E+10	1	-1E+10	1	-1E+10	1	-1E+10	1
4902551	107	C	08/01/2023	15:18	-131.145	47.607	0	1695.50	0	2.1800	0	34.5420	0	27.600	0	1674.531	0	37.5	4	11.4	4	-1E+10	1	-1E+10	1	-1E+10	1	-1E+10	1	-1E+10	1	-1E+10	1
4902551	107	C	08/01/2023	15:18	-131.145	47.607	0	1705.70	0	2.1700	0	34.5450	0	27.603	0	1684.564	0	37.9	4	11.5	4	-1E+10	1	-1E+10	1	-1E+10	1	-1E+10	1	-1E+10	1	-1E+10	1
4902551	107	C	08/01/2023	15:18	-131.145	47.607	0	1715.50	0	2.1600	0	34.5450	0	27.604	0	1694.203	0	38.2	4	11.6	4	-1E+10	1	-1E+10	1	-1E+10	1	-1E+10	1	-1E+10	1	-1E+10	1
4902551	107	C	08/01/2023	15:18	-131.145	47.607	0	1725.20	0	2.1490	0	34.5470	0	27.606	0	1703.744	0	38.7	4	11.7	4	-1E+10	1	-1E+10	1	-1E+10	1	-1E+10	1	-1E+10	1	-1E+10	1
4902551	107	C	08/01/2023	15:18	-131.145	47.607	0	1735.30	0	2.1340	0	34.5490	0	27.609	0	1713.678	0	39.1	4	11.8	4	-1E+10	1	-1E+10	1	-1E+10	1	-1E+10	1	-1E+10	1	-1E+10	1
4902551	107	C	08/01/2023	15:18	-131.145	47.607	0	1745.30	0	2.1220	0	34.5500	0	27.611	0	1723.513	0	40.0	4	12.1	4	-1E+10	1	-1E+10	1	-1E+10	1	-1E+10	1	-1E+10	1	-1E+10	1
4902551	107	C	08/01/2023	15:18	-131.145	47.607	0	1755.50	0	2.1180	0	34.5530	0	27.614	0	1733.544	0	41.1	4	12.4	4	-1E+10	1	-1E+10	1	-1E+10	1	-1E+10	1	-1E+10	1	-1E+10	1
4902551	107	C	08/01/2023	15:18	-131.145	47.607	0	1765.70	0	2.1030	0	34.5550	0	27.616	0	1743.574	0	42.1	4	12.7	4	-1E+10	1	-1E+10	1	-1E+10	1	-1E+10	1	-1E+10	1	-1E+10	1
4902551	107	C	08/01/2023	15:18	-131.145	47.607	0	1775.70	0	2.0950	0	34.5570	0	27.619	0	1753.408	0	42.8	4	12.9	4	-1E+10	1	-1E+10	1	-1E+10	1	-1E+10	1	-1E+10	1	-1E+10	1
4902551	107	C	08/01/2023	15:18	-131.145	47.607	0	1785.60	0	2.0800	0	34.5580	0	27.621	0	1763.142	0	42.9	4	13.0	4	-1E+10	1	-1E+10	1	-1E+10	1	-1E+10	1	-1E+10	1	-1E+10	1
4902551	107	C	08/01/2023	15:18	-131.145	47.607	0	1795.70	0	2.0670	0	34.5590	0	27.623	0	1773.073	0	43.5	4	13.1	4	-1E+10	1	-1E+10	1	-1E+10	1	-1E+10	1	-1E+10	1	-1E+10	1
4902551	107	C	08/01/2023	15:18	-131.145	47.607	0	1805.50	0	2.0600	0	34.5610	0	27.625	0	1782.708	0	44.2	4	13.3	4	-1E+10	1	-1E+10	1	-1E+10	1	-1E+10	1	-1E+10	1	-1E+10	1
4902551	107	C	08/01/2023	15:18	-131.145	47.607	0	1815.40	0	2.0510	0	34.5630	0	27.627	0	1792.442	0	44.8	4	13.5	4	-1E+10	1	-1E+10	1	-1E+10	1	-1E+10	1	-1E+10	1	-1E+10	1
4902551	107	C	08/01/2023	15:18	-131.145	47.607	0	1825.50	0	2.0410	0	34.5650	0	27.630	0	1802.371	0	45.4	4	13.7	4	-1E+10	1	-1E+10	1	-1E+10	1	-1E+10	1	-1E+10	1	-1E+10	1
4902551	107	C	08/01/2023	15:18	-131.145	47.607	0	1835.20	0	2.0330	0	34.5660	0	27.631	0	1811.907	0	45.9	4	13.8	4	-1E+10	1	-1E+10	1	-1E+10	1	-1E+10	1	-1E+10	1	-1E+10	1
4902551	107	C	08/01/2023	15:18	-131.145	47.607	0	1845.10	0	2.0270	0	34.5670	0	27.632	0	1821.639	0	46.4	4	14.0	4	-1E+10	1	-1E+10	1	-1E+10	1	-1E+10	1	-1E+10	1	-1E+10	1
4902551	107	C	08/01/2023	15:18	-131.145	47.607	0	1855.40	0	2.0230	0	34.5680	0	27.634	0	1831.764	0	47.1	4	14.2	4	-1E+10	1	-1E+10	1	-1E+10	1	-1E+10	1	-1E+10	1	-1E+10	1
4902551	107	C	08/01/2023	15:18	-131.145	47.607	0	1865.70	0	2.0200	0	34.5690	0	27.635	0	1841.888	0	47.5	4	14.3	4	-1E+10	1	-1E+10	1	-1E+10	1	-1E+10	1	-1E+10	1	-1E+10	1
4902551	107	C	08/01/2023	15:18	-131.145	47.607	0	1875.80	0	2.0120	0	34.5700	0	27.636	0	1851.815	0	47.7	4	14.4	4	-1E+10	1	-1E+10	1	-1E+10	1	-1E+10	1	-1E+10	1	-1E+10	1
4902551	107	C	08/01/2023	15:18	-131.145	47.607	0	1885.30	0	2.0060	0	34.5710	0	27.637	0	1861.152	0	48.2	4	14.5	4	-1E+10	1	-1E+10	1	-1E+10	1	-1E+10	1	-1E+10	1	-1E+10	1
4902551	107	C	08/01/2023	15:18	-131.145	47.607	0	1895.50	0	2.0000	0	34.5730	0	27.640	0	1871.177	0	48.8	4	14.7	4	-1E+10	1	-1E+10	1	-1E+10	1	-1E+10	1	-1E+10	1	-1E+10	1
4902551	107	C	08/01/2023	15:18	-131.145	47.607	0	1905.30	0	1.9970	0	34.5730	0	27.640	0	1880.808	0	49.4	4	14.9	4	-1E+10	1	-1E+10	1	-1E+10	1	-1E+10	1	-1E+10	1	-1E+10	1
4902551	107	C	08/01/2023	15:18	-131.145	47.607	0	1915.00	0	1.9900	0	34.5740	0	27.641	0	1890.340	0	50.1	4	15.1	4	-1E+10	1	-1E+10	1	-1E+10	1	-1E+10	1	-1E+10	1	-1E+10	1
4902551	107	C	08/01/2023	15:18	-131.145	47.607	0	1925.10	0	1.9850	0	34.5770	0	27.644	0	1900.265	0	51.1	4	15.4	4	-1E+10	1	-1E+10	1	-1E+10	1	-1E+10	1	-1E+10	1	-1E+10	1
4902551	107	C	08/01/2023	15:18	-131.145	47.607	0	1935.30	0	1.9760	0	34.5780	0	27.646	0	1910.287	0	51.8	4	15.6	4	-1E+10	1	-1E+10	1	-1E+10	1	-1E+10	1	-1E+10	1	-1E+10	1
4902551	107	C	08/01/2023	15:18	-131.145	47.607	0	1945.20	0	1.9640	0	34.5800	0	27.648	0	1920.015	0	52.3	4	15.7	4	-1E+10	1	-1E+10	1	-1E+10	1	-1E+10	1	-1E+10	1	-1E+10	1
4902551	107	C	08/01/2023	15:18	-131.145	47.607	0	1955.30	0	1.9560	0	34.5810	0	27.650	0	1929.938	0	52.8	4	15.9	4	-1E+10	1	-1E+10	1	-1E+10	1	-1E+10	1	-1E+10	1	-1E+10	1
4902551	107	C	08/01/2023	15:18	-131.145	47.607	0	1965.60	0	1.9480	0	34.5830	0	27.652	0	1940.058	0	53.4	4	16.1	4	-1E+10	1	-1E+10	1	-1E+10	1	-1E+10	1	-1E+10	1	-1E+10	1
4902551	107	C	08/01/2023	15:18	-131.145	47.607	0	1976.00	0	1.9400	0	34.5840	0	27.653	0	1950.275	0	53.4	4	16.1	4	-1E+10	1	-1E+10	1	-1E+10	1	-1E+10	1	-1E+10	1	-1E+10	1
4902551	107	C	08/01/2023	15:18	-131.145	47.607	0	1982.30	0	1.9390	0	34.5850	0	27.654	0	1956.464	0	52.7	4	15.9	4	-1E+10	1	-1E+10	1	-1E+10	1	-1E+10	1	-1E+10	1	-1E+10	1
4902551	107	C	08/01/2023	15:18	-131.145	47.607	0																										
4902551	108	C	08/11/2023	20:17	-131.171	47.530	0	0.00	0	18.0440	0	32.3520	0	23.236	0	0.000	0	228.6	4	96.1	4	-1E+10	1	-1E+10	1	-1E+10	1	-1E+10	1	-1E+10	1	-1E+10	1
4902551	108	C	08/11/2023	20:17	-131.171	47.530	0	0.10	0	18.0600	0	32.3480	0	23.229	0	0.099	0	233.8	4	98.3	4	-1E+10	1	-1E+10	1	-1E+10	1	-1E+10	1	-1E+10	1	-1E+10	1
4902551	108	C	08/11/2023	20:17	-131.171	47.530	0	0.20	0	18.0560	0	32.3530	0	23.233	0	0.198	0	-1e10	1	-1e10	1	-1E+10	1	-1E+10	1	-1E+10	1	-1E+10	1	-1E+10	1	-1E+10	1
4902551	108	C	08/11/2023	20:17	-131.171	47.530	0	0.30	0	18.0340	0	32.3460	0	23.233	0	0.297	0	228.9	4	96.1	4	-1E+10	1	-1E+10	1	-1E+10	1	-1E+10	1	-1E+10	1	-1E+10	1
4902551	108	C	08/11/2023	20:17	-131.171	47.530	0	1.00	0	18.0350	0	32.3410	0	23.229	0	0.992	0	228.8	4	96.1	4	-1E+10	1	-1E+10	1	-1E+10	1	-1E+10	1	-1E+10	1	-1E+10	1
4902551	108	C	08/11/2023	20:17	-131.171	47.530	0	2.20	0	18.0290	0	32.3410	0	23.231	0	2.182	0	229.0	4	96.2	4	-1E+10	1	-1E+10	1	-1E+10	1	-1E+10	1	-1E+10	1	-1E+10	1
4902551	108	C	08/11/2023	20:17	-131.171	47.530	0	2.80	0	18.0300	0	32.3370	0	23.228	0	2.777	0	229.1	4	96.2	4	-1E+10	1	-1E+10	1	-1E+10	1	-1E+10	1	-1E+10	1	-1E+10	1
4902551	108	C	08/11/2023	20:17	-131.171	47.530	0	3.70	0	18.0250	0	32.3410	0	23.232	0	3.669	0	229.1	4	96.2	4	-1E+10	1	-1E+10	1	-1E+10	1	-1E+10	1	-1E+10	1	-1E+10	1
4902551	108	C	08/11/2023	20:17	-131.171	47.530	0	4.70	0	18.0080	0	32.3530	0	23.245	0	4.661	0	229.3	4	96.3	4	-1E+10	1	-1E+10	1	-1E+10	1	-1E+10	1	-1E+10	1	-1E+10	1
4902551	108	C	08/11/2023	20:17	-131.171	47.530	0	5.80	0	17.9970	0	32.3550	0	23.249	0	5.751	0	229.5	4	96.3	4	-1E+10	1	-1E+10	1	-1E+10	1	-1E+10	1	-1E+10	1	-1E+10	1
4902551	108	C	08/11/2023	20:17	-131.171	47.530	0	7.00	0	17.9850	0	32.3540	0	23.252	0	6.941	0	229.6	4	96.4	4	-1E+10	1	-1E+10	1	-1E+10	1	-1E+10	1	-1E+10	1	-1E+10	1
4902551	108	C	08/11/2023	20:17	-131.171	47.530	0	8.00	0	17.9760	0	32.3560	0	23.255	0	7.933	0	229.9	4	96.5	4	-1E+10	1	-1E+10	1	-1E+10	1	-1E+10	1	-1E+10	1	-1E+10	1
4902551	108	C	08/11/2023	20:17	-131.171	47.530	0	8.90	0	17.9770	0	32.3550	0	23.254	0	8.826	0	230.0	4	96.5	4	-1E+10	1	-1E+10	1	-1E+10	1	-1E+10	1	-1E+10	1	-1E+10	1
4902551	108	C	08/11/2023	20:17	-131.171	47.530	0	9.90	0	17.9560	0	32.3590	0	23.263	0	9.817	0	230.2	4	96.6	4	-1E+10	1	-1E+10	1	-1E+10	1	-1E+10	1	-1E+10	1	-1E+10	1
4902551	108	C	08/11/2023	20:17	-131.171	47.530	0	10.80	0	17.9530	0	32.3550	0	23.260	0	10.710	0	230.5	4	96.7	4	-1E+10	1	-1E+10	1	-1E+10	1	-1E+10	1	-1E+10	1	-1E+10	1
4902551	108	C	08/11/2023	20:17	-131.171	47.530	0	12.10	0	17.9530	0	32.3550	0	23.260	0	11.999	0	231.1	4	97.0	4	-1E+10	1	-1E+10	1	-1E+10	1	-1E+10	1	-1E+10	1	-1E+10	1
4902551	108	C	08/11/2023	20:17	-131.171	47.530	0	13.00	0	17.9490	0	32.3540	0	23.261	0	12.891	0	231.7	4	97.2	4	-1E+10	1	-1E+10	1	-1E+10	1	-1E+10	1	-1E+10	1	-1E+10	1
4902551	108	C	08/11/2023	20:17	-131.171	47.530	0	13.90	0	17.9330	0	32.3550	0	23.265	0	13.783	0	232.2	4	97.4	4	-1E+10	1	-1E+10	1	-1E+10	1	-1E+10	1	-1E+10	1	-1E+10	1
4902551	108	C	08/11/2023	20:17	-131.171	47.530	0	15.00	0	17.9300	0	32.3550	0	23.266	0	14.874	0	233.1	4	97.7	4	-1E+10	1	-1E+10	1	-1E+10	1	-1E+10	1	-1E+10	1	-1E+10	1
4902551	108	C	08/11/2023	20:17	-131.171	47.530	0	16.00	0	17.9170	0	32.3540	0	23.268	0	15.866	0	234.4	4	98.3	4	-1E+10	1	-1E+10	1	-1E+10	1	-1E+10	1	-1E+10	1	-1E+10	1
4902551	108	C	08/11/2023	20:17	-131.171	47.530	0	17.20	0	17.9040	0	32.3500	0	23.269	0	17.056	0	236.4	4	99.1	4	-1E+10	1	-1E+10	1	-1E+10	1	-1E+10	1	-1E+10	1	-1E+10	1
4902551	108	C	08/11/2023	20:17	-131.171	47.530	0	18.10	0	17.7770	0	32.3510	0	23.300	0	17.948	0	238.8	4	99.8	4	-1E+10	1	-1E+10	1	-1E+10	1	-1E+10	1	-1E+10	1	-1E+10	1
4902551	108	C	08/11/2023	20:17	-131.171	47.530	0	18.80	0	17.5200	0	32.3640	0	23.371	0	18.642	0	241.7	4	100.6	4	-1E+10	1	-1E+10	1	-1E+10	1	-1E+10	1	-1E+10	1	-1E+10	1
4902551	108	C	08/11/2023	20:17	-131.171	47.530	0	19.90	0	17.2240	0	32.3610	0	23.439	0	19.733	0	245.6	4	101.6	4	-1E+10	1	-1E+10	1	-1E+10	1	-1E+10	1	-1E+10	1	-1E+10	1
4902551	108	C	08/11/2023	20:17	-131.171	47.530	0	21.00	0	16.7920	0	32.3680	0	23.545	0	20.824	0	250.9	4	103.0	4	-1E+10	1	-1E+10	1	-1E+10	1	-1E+10	1	-1E+10	1	-1E+10	1
4902551	108	C	08/11/2023	20:17	-131.171	47.530	0	22.00	0	16.3600	0	32.3700	0	23.646	0	21.815	0	255.9	4	104.2	4	-1E+10	1	-1E+10	1	-1E+10	1	-1E+10	1	-1E+10	1	-1E+10	1
4902551	108	C	08/11/2023	20:17	-131.171	47.530	0	22.90	0	16.2220	0	32.3640	0	23.673	0	22.708	0	260.0	4	105.5	4	-1E+10	1	-1E+10	1	-1E+10	1	-1E+10	1	-1E+10	1	-1E+10	1
4902551	108	C	08/11/2023	20:17	-131.171	47.530	0	24.10	0	15.8350	0	32.3700	0	23.764	0	23.897	0	266.2	4	107.3	4	-1E+10	1	-1E+10	1	-1E+10	1	-1E+10	1	-1E+10	1	-1E+10	1
4902551	108	C	08/11/2023	20:17	-131.171	47.530	0	25.20	0	15.5730	0	32.3780	0	23.828	0	24.988	0	270.4	4	108.4	4	-1E+10	1	-1E+10	1	-1E+10	1	-1E+10	1	-1E+10	1	-1E+10	1
4902551	108	C	08/11/2023	20:17	-131.171	47.530	0	25.80	0	15.3890	0	32.3980	0	23.884	0	25.583	0	272.1	4	108.7	4	-1E+10	1	-1E+10	1	-1E+10	1	-1E+10	1	-1E+10	1	-1E+10	1
4902551	108	C	08/11/2023	20:17	-131.171	47.530	0	26.90	0	14.9280	0	32.3870	0	23.975	0	26.674	0	274.8	4	108.7	4	-1E+10	1	-1E+10	1	-1E+10	1	-1E+10	1	-1E+10	1	-1E+10	1
4902551	108	C	08/11/2023	20:17	-131.171	47.530	0	28.00	0	14.6870	0	32.3750	0	24.017	0	27.764	0	278.4	4	109.7	4	-1E+10	1	-1E+10	1	-1E+10	1	-1E+10	1	-1E+10	1	-1E+10	1
4902551	108	C	08/11/2023	20:17	-131.171	47.530	0	28.80	0	14.3770	0	32.3750	0	24.083	0	28.558	0	283.6	4	111.0	4	-1E+10	1	-1E+10	1	-1E+10	1	-1E+10	1	-1E+10	1	-1E+10	1
4902551	108	C	08/11/2023	20:17	-131.171	47.530	0	29.80	0	13.6690	0	32.3850	0	24.236	0	29.549	0	286.6	4	110.6	4	-1E+10	1	-1E+10	1	-1E+10	1	-1E+10	1	-1E+10	1	-1E+10	1
4902551	108	C	08/11/2023	20:17	-131.171	47.530	0	30.80	0	13.3470	0	32.3860	0	24.301	0	30.541	0	288.7	4	110.7	4	-1E+10	1	-1E+10	1	-1E+10	1	-1E+10	1	-1E+10	1	-1E+10	1
4902551	108	C	08/11/2023	20:17	-131.171	47.530	0	31.80	0	13.0470	0	32.3840	0	24.359	0	31.532	0	290.5	4	110.7	4	-1E+10	1	-1E+10	1	-1E+10	1	-1E+10	1	-1E+10	1	-1E+10	1
4902551	108	C	08/11/2023	20:17	-131.171	47.530	0	33.10	0	12.9410	0	32.3820	0	24.378	0	32.821	0	292.2	4	111.1	4	-1E+10	1	-1E+10	1	-1E+10	1	-1E+10	1	-1E+10	1	-1E+10	1
4902551	108	C	08/11/2023	20:17	-131.171	47.530	0	34.00	0	12.7940	0	32.3890	0	24.412	0	33.713	0	294.3	4	111.6	4	-1E+10	1	-1E+10	1	-1E+10	1	-1E+10	1	-1E+10	1	-1E+10	1
4902551	108	C	08/11/2023	20:17	-131.171	47.530	0	35.10	0	12.5160	0	32.3770	0	24.457	0	34.804	0	296.4	4	111.7	4	-1E+10	1	-1E+10	1	-1E+10	1	-1E+10	1	-1E+10	1	-1E+10	1
4902551	108	C	08/11/2023	20:17	-131.171	47.530	0	35.80	0	12.3990	0	32.3740	0	24.477	0	35.498	0	297.4	4	111.8	4	-1E+10	1	-1E+10	1	-1E+10	1	-1E+10	1	-1E+10	1	-1E+10	1
4902551	108	C	08/11/2023	20:17	-131.171	47.530	0	37.10	0	12.0470	0	32.3740	0	24.543	0	36.787	0	299.9	4	111.9	4	-1E+10	1	-1E+10	1	-1E+10	1	-1E+10	1	-1E+10	1	-1E+10	1
4902551	108	C	08/11/2023	20:17	-131.171	47.530	0	37.90	0	11.6770	0	32.3800	0	24.616	0	37.580	0	301.4	4	111.6	4	-1E+10	1	-1E+10	1	-1E+10	1	-1E+10	1	-1E+10	1	-1E+10	1
4902551	108	C	08/11/2023	20:17	-131.171	47.530	0	39.10	0	11.3620	0	32.3750	0	24.669	0	38.770	0	302.0	4	111.1	4	-1E+10	1	-1E+10	1	-1E+10	1	-1E+10	1	-1E+10	1	-1E+10	1
4902551	108	C	08/11/2023	20:17	-131.171	47.530	0	40.00	0	11.2430	0	32.3680	0	24.685	0	39.662	0	301.5	4	110.7	4	-1E+10	1	-1E+10	1	-1E+10	1	-1E+10	1	-1E+10	1	-1E+10	1
4902551	108	C	08/11/2023	20:17	-131.171	47.530	0	41.10	0	10.9290	0	32.3720	0	24.743	0	40.753	0	300.8	4	109.6	4	-1E+10	1	-1E+10	1	-1E+10	1	-1E+10	1	-1E+10	1	-1E+10	1
4902551	108	C	08/11/2023	20:17	-131.171	47.530	0	42.00	0	10.5900	0	32.3710	0	24.801	0	41.645	0	300.5	4	108.8	4	-1E+10	1	-1E+10	1	-1E+10	1	-1E+10	1	-1E+10	1	-1E+10	1
4902551	108	C	08/11/2023	20:17	-131.171	47.530	0	43.00	0	10.2840	0	32.3710	0	24.853	0	42.637	0	299.9	4	107.8	4	-1E+10	1	-1E+10	1	-1E+10	1	-1E+10	1	-1E+10	1	-1E+10	1
4902551	108	C	08/11/2023	20:17	-131.171	47.530	0	44.10	0	9.9760	0	32.3690	0	24.903	0	43.727	0	299.2	4	106.9	4	-1E+10	1	-1E+10	1	-1E+10	1	-1E+10	1	-1E+10	1	-1E+10	1
4902551	108	C	08/11/2023	20:17	-131.171	47.530	0	44.80	0	9.8430	0	32.3740	0	24.929	0	44.421	0	298.3	4	106.2	4	-1E+10	1	-1E+10	1	-1E+10	1	-1E+10	1	-1E+10	1	-1E+10	1
4902551	108	C	08/11/2023	20:17	-131.171	47.530	0	46.10	0	9.6080	0	32.3750	0	24.968	0	45.710	0	296.3	4	105.0	4	-1E+10	1	-1E+10	1	-1E+10	1	-1E+10	1	-1E+10	1	-1E+10	1
4902551	108	C	08/11/2023	20:17	-131.171	47.530	0	47.00	0	9.5290	0	32.3740	0	24.980	0	46.602	0	294.4	4	104.1	4	-1E+10	1	-1E+10	1	-1E+10	1	-1E+10	1	-1E+10	1	-1E+10	1
4902551	108	C	08/11/2023	20:17	-131.171	47.530	0	48.10	0	9.3520	0	32.3770	0	25.011	0	47.693	0	291.4	4	102.7	4	-1E+10	1	-1E+10	1	-1E+10	1	-1E+10	1	-1E+10	1	-1E+10	1
4902551	108	C	08/11/2023	20:17	-131.171	47.530	0	48.90	0	9.2290	0	32.3730	0	25.027	0	48.486	0	289.0	4	101.6	4	-1E+10	1	-1E+10	1	-1E+10	1	-1E+10	1	-1E+10	1	-1E+10	1
4902551	108	C	08/11/2023	20:17	-131.171	47.530	0	49.80	0	9.1200	0	32.3750	0	25.046	0	49.378	0	286.2	4	100.3	4	-1E+10	1	-1E+10	1	-1E+10	1	-1E+10	1	-1E+10	1	-1E+10	1
4902551	108	C	08/11/2023	20:17	-131.171	47.530	0	50.80	0	8.9640	0	32.3890	0	25.081	0	50.370	0	282.0	4	98.5	4	-1E+10	1	-1E+10	1	-1E+10	1	-1E+10	1	-1E+10	1	-1E+10	1
4902551	108	C	08/11/2023	20:17	-131.171	47.530	0	52.00	0	8.7420	0	32.3880	0	25.114	0	51.559	0	279.3	4	97.1	4	-1E+10	1	-1E+10	1	-1E+10	1	-1E+10	1	-1E+10	1	-1E+10	1
4902551	108	C	08/11/2023	20:17	-131.171	47.530	0	52.90	0	8.6870	0	32.3860	0	25.121	0	52.452	0	278.0	4	96.5	4	-1E+10	1	-1E+10	1	-1E+10	1	-1E+10	1	-1E+10	1	-1E+10	1
4902551	108	C	08/11/2023	20:17	-131.171	47.530	0	54.20	0	8.5680	0	32.3870	0	25.140	0	53.740	0	276.3	4	95.7	4	-1E+10	1	-1E+10	1	-1E+10	1	-1E+10	1	-1E+10	1	-1E+10	1
4902551	108	C	08/11/2023	20:17	-131.171	47.530	0	54.90	0	8.4930	0	32.3850	0	25.149	0	54.434	0	275.3	4	95.2	4	-1E+10	1	-1E+10	1	-1E+10	1	-1E+10	1	-1E+10	1	-1E+10	1
4902551	108	C	08/11/2023	20:17	-131.171	47.530	0	56.00	0	8.4030	0	32.3850	0	25.163	0	55.525	0	274.5	4	94.7	4	-1E+10	1	-1E+10	1	-1E+10	1	-1E+10	1	-1E+10	1	-1E+10	1
4902551	108	C	08/11/2023	20:17	-131.171	47.530	0	57.10	0	8.3600	0	32.3850	0	25.169	0	56.615	0	273.6	4	94.3	4	-1E+10	1	-1E+10	1	-1E+10	1	-1E+10	1	-1E+10	1	-1E+10	1
4902551	108	C	08/11/2023	20:17	-131.171	47.530	0	58.00	0	8.3400	0	32.3880	0	25.174	0	57.508	0	272.8	4	94.0	4	-1E+10	1	-1E+10	1	-1E+10	1	-1E+10	1	-1E+10	1	-1E+10	1
4902551	108	C	08/11/2023	20:17	-131.171	47.530	0	58.80	0	8.2850	0	32.3920	0	25.186	0	58.301	0	272.2	4	93.7	4	-1E+10	1	-1E+10	1	-1E+10	1	-1E+10	1	-1E+10	1	-1E+10	1
4902551	108	C	08/11/2023	20:17	-131.171	47.530	0	60.00	0	8.1990	0	32.3960	0	25.202	0	59.490	0	271.9	4	93.4	4	-1E+10	1	-1E+10	1	-1E+10	1	-1E+10	1	-1E+10	1	-1E+10	1
4902551	108	C	08/11/2023	20:17	-131.171	47.530	0	60.90	0	8.1580	0	32.3980	0	25.209	0	60.383	0	271.5	4	93.2	4	-1E+10	1	-1E+10	1	-1E+10	1	-1E+10	1	-1E+10	1	-1E+10	1
4902551	108	C	08/11/2023	20:17	-131.171	47.530	0	61.80	0	8.1150	0	32.3990	0	25.216	0	61.275	0	271.4	4	93.1	4	-1E+10	1	-1E+10	1	-1E+10	1	-1E+10	1	-1E+10	1	-1E+10	1
4902551	108	C	08/11/2023	20:17	-131.171	47.530	0	63.00	0	8.0810	0	32.4020	0	25.223	0	62.464	0	271.2	4	92.9	4	-1E+10	1	-1E+10	1	-1E+10	1	-1E+10	1	-1E+10	1	-1E+10	1
4902551	108	C	08/11/2023	20:17	-131.171	47.530	0	63.90	0	8.0710	0	32.4030	0	25.226	0	63.357	0	271.0	4	92.8	4	-1E+10	1	-1E+10	1	-1E+10	1	-1E+10	1	-1E+10	1	-1E+10	1
4902551	108	C	08/11/2023	20:17	-131.171	47.530	0	64.80	0	8.0630	0	32.4060	0	25.229	0	64.249	0	270.7	4	92.7	4	-1E+10	1	-1E+10	1	-1E+10	1	-1E+10	1	-1E+10	1	-1E+10	1
4902551	108	C	08/11/2023	20:17	-131.171	47.530	0	66.00	0	8.0240	0	32.4100	0	25.238	0	65.439	0	270.2	4	92.5	4	-1E+10	1	-1E+10	1	-1E+10	1	-1E+10	1	-1E+10	1	-1E+10	1
4902551	108	C	08/11/2023	20:17	-131.171	47.530	0	67.10	0	7.9720	0	32.4110	0	25.246	0	66.529	0	270.1	4	92.3	4	-1E+10	1	-1E+10	1	-1E+10	1	-1E+10	1	-1E+10	1	-1E+10	1
4902551	108	C	08/11/2023	20:17	-131.171	47.530	0	68.00	0	7.9440	0	32.4130	0	25.252	0	67.421	0	269.8	4	92.2	4	-1E+10	1	-1E+10	1	-1E+10	1	-1E+10	1	-1E+10	1	-1E+10	1
4902551	108	C	08/11/2023	20:17	-131.171	47.530	0	68.90	0	7.9240	0	32.4110	0	25.253	0	68.313	0	269.6	4	92.1	4	-1E+10	1	-1E+10	1	-1E+10	1	-1E+10	1	-1E+10	1	-1E+10	1
4902551	108	C	08/11/2023	20:17	-131.171	47.530	0	70.00	0	7.8900	0	32.4080	0	25.256	0	69.404	0	269.4	4	91.9	4	-1E+10	1	-1E+10	1	-1E+10	1	-1E+10	1	-1E+10	1	-1E+10	1
4902551	108	C	08/11/2023	20:17	-131.171	47.530	0	70.90	0	7.8690	0	32.4080	0	25.259	0	70.296	0	269.2	4	91.8	4	-1E+10	1	-1E+10	1	-1E+10	1	-1E+10	1	-1E+10	1	-1E+10	1
4902551	108	C	08/11/2023	20:17	-131.171	47.530	0	71.80	0	7.8360	0	32.4040	0	25.260	0	71.188	0	269.2	4	91.7	4	-1E+10	1	-1E+10	1	-1E+10	1	-1E+10	1	-1E+10	1	-1E+10	1
4902551	108	C	08/11/2023	20:17	-131.171	47.530	0	73.00	0	7.8110	0	32.4040	0	25.264	0	72.378	0	268.9	4	91.6	4	-1E+10	1	-1E+10	1	-1E+10	1	-1E+10	1	-1E+10	1	-1E+10	1
4902551	108	C	08/11/2023	20:17	-131.171	47.530	0	74.10	0	7.7780	0	32.4050	0	25.269	0	73.468	0	268.8	4	91.5	4	-1E+10	1	-1E+10	1	-1E+10	1	-1E+10	1	-1E+10	1	-1E+10	1
4902551	108	C	08/11/2023	20:17	-131.171	47.530	0	75.00	0	7.7720	0	32.4030	0	25.269	0	74.360	0	268.6	4	91.4	4	-1E+10	1	-1E+10	1	-1E+10	1	-1E+10	1	-1E+10	1	-1E+10	1
4902551	108	C	08/11/2023	20:17	-131.171	47.530	0	75.90	0	7.7650	0	32.4040	0	25.270	0	75.252	0	268.4	4	91.3	4	-1E+10	1	-1E+10	1	-1E+10	1	-1E+10	1	-1E+10	1	-1E+10	1
4902551	108	C	08/11/2023	20:17	-131.171	47.530	0	77.10	0	7.7450	0	32.4060	0	25.275	0	76.442	0	268.1	4	91.2	4	-1E+10	1	-1E+10	1	-1E+10	1	-1E+10	1	-1E+10	1	-1E+10	1
4902551	108	C	08/11/2023	20:17	-131.171	47.530	0	78.10	0	7.7310	0	32.4070	0	25.278	0	77.433	0	268.0	4	91.1	4	-1E+10	1	-1E+10	1	-1E+10	1	-1E+10	1	-1E+10	1	-1E+10	1
4902551	108	C	08/11/2023	20:17	-131.171	47.530	0	79.00	0	7.7130	0	32.4070	0	25.280	0	78.325	0	267.8	4	91.0	4	-1E+10	1	-1E+10	1	-1E+10	1	-1E+10	1	-1E+10	1	-1E+10	1
4902551	108	C	08/11/2023	20:17	-131.171	47.530	0	80.00	0	7.7000	0	32.4060	0	25.281	0	79.317	0	267.6	4	90.9	4	-1E+10	1	-1E+10	1	-1E+10	1	-1E+10	1	-1E+10	1	-1E+10	1
4902551	108	C	08/11/2023	20:17	-131.171	47.530	0	81.00	0	7.6770	0	32.4090	0	25.287	0	80.308	0	267.5	4	90.8	4	-1E+10	1	-1E+10	1	-1E+10	1	-1E+10	1	-1E+10	1	-1E+10	1
4902551	108	C	08/11/2023	20:17	-131.171	47.530	0	82.10	0	7.6670	0	32.4090	0	25.288	0	81.398	0	267.4	4	90.8	4	-1E+10	1	-1E+10	1	-1E+10	1	-1E+10	1	-1E+10	1	-1E+10	1
4902551	108	C	08/11/2023	20:17	-131.171	47.530	0	82.80	0	7.6630	0	32.4090	0	25.289	0	82.092	0	274.1	4	93.0	4	-1E+10	1	-1E+10	1	-1E+10	1	-1E+10	1	-1E+10	1	-1E+10	1
4902551	108	C	08/11/2023	20:17	-131.171	47.530	0	83.80	0	7.6540	0	32.4100	0	25.291	0	83.084	0	273.9	4	93.0	4	-1E+10	1	-1E+10	1	-1E+10	1	-1E+10	1	-1E+10	1	-1E+10	1
4902551	108	C	08/11/2023	20:17	-131.171	47.530	0	85.00	0	7.6500	0	32.4100	0	25.291	0	84.273	0	273.8	4	92.9	4	-1E+10	1	-1E+10	1	-1E+10	1	-1E+10	1	-1E+10	1	-1E+10	1
4902551	108	C	08/11/2023	20:17	-131.171	47.530	0	85.80	0	7.6470	0	32.4100	0	25.292	0	85.066	0	273.7	4	92.9	4	-1E+10	1	-1E+10	1	-1E+10	1	-1E+10	1	-1E+10	1	-1E+10	1
4902551	108	C	08/11/2023	20:17	-131.171	47.530	0	86.90	0	7.6430	0	32.4090	0	25.292	0	86.156	0	273.4	4	92.8	4	-1E+10	1	-1E+10	1	-1E+10	1	-1E+10	1	-1E+10	1	-1E+10	1
4902551	108	C	08/11/2023	20:17	-131.171	47.530	0	88.20	0	7.6340	0	32.4100	0	25.294	0	87.445	0	273.0	4	92.6	4	-1E+10	1	-1E+10	1	-1E+10	1	-1E+10	1	-1E+10	1	-1E+10	1
4902551	108	C	08/11/2023	20:17	-131.171	47.530	0	89.00	0	7.6190	0	32.4110	0	25.297	0	88.238	0	272.8	4	92.5	4	-1E+10	1	-1E+10	1	-1E+10	1	-1E+10	1	-1E+10	1	-1E+10	1
4902551	108	C	08/11/2023	20:17	-131.171	47.530	0	89.80	0	7.6040	0	32.4110	0	25.299	0	89.031	0	272.7	4	92.4	4	-1E+10	1	-1E+10	1	-1E+10	1	-1E+10	1	-1E+10	1	-1E+10	1
4902551	108	C	08/11/2023	20:17	-131.171	47.530	0	90.70	0	7.5830	0	32.4110	0	25.302	0	89.923	0	272.5	4	92.3	4	-1E+10	1	-1E+10	1	-1E+10	1	-1E+10	1	-1E+10	1	-1E+10	1
4902551	108	C	08/11/2023	20:17	-131.171	47.530	0	91.90	0	7.5770	0	32.4100	0	25.302	0	91.112	0	272.2	4	92.2	4	-1E+10	1	-1E+10	1	-1E+10	1	-1E+10	1	-1E+10	1	-1E+10	1
4902551	108	C	08/11/2023	20:17	-131.171	47.530	0	93.20	0	7.5600	0	32.4120	0	25.306	0	92.401	0	271.8	4	92.0	4	-1E+10	1	-1E+10	1	-1E+10	1	-1E+10	1	-1E+10	1	-1E+10	1
4902551	108	C	08/11/2023	20:17	-131.171	47.530	0	94.10	0	7.5550	0	32.4110	0	25.306	0	93.293	0	271.6	4	92.0	4	-1E+10	1	-1E+10	1	-1E+10	1	-1E+10	1	-1E+10	1	-1E+10	1
4902551	108	C	08/11/2023	20:17	-131.171	47.530	0	94.90	0	7.5500	0	32.4120	0	25.307	0	94.086	0	271.3	4	91.9	4	-1E+10	1	-1E+10	1	-1E+10	1	-1E+10	1	-1E+10	1	-1E+10	1
4902551	108	C	08/11/2023	20:17	-131.171	47.530	0	95.80	0	7.5460	0	32.4120	0	25.308	0	94.978	0	270.9	4	91.7	4	-1E+10	1	-1E+10	1	-1E+10	1	-1E+10	1	-1E+10	1	-1E+10	1
4902551	108	C	08/11/2023	20:17	-131.171	47.530	0	96.60	0	7.5430	0	32.4110	0	25.307	0	95.771	0	270.6	4	91.6	4	-1E+10	1	-1E+10	1	-1E+10	1	-1E+10	1	-1E+10	1	-1E+10	1
4902551	108	C	08/11/2023	20:17	-131.171	47.530	0	97.90	0	7.5360	0	32.4120	0	25.309	0	97.060	0	270.0	4	91.4	4	-1E+10	1	-1E+10	1	-1E+10	1	-1E+10	1	-1E+10	1	-1E+10	1
4902551	108	C	08/11/2023	20:17	-131.171	47.530	0	99.10	0	7.5290	0	32.4120	0	25.310	0	98.249	0	269.4	4	91.2	4	-1E+10	1	-1E+10	1	-1E+10	1	-1E+10	1	-1E+10	1	-1E+10	1
4902551	108	C	08/11/2023	20:17	-131.171	47.530	0	100.00	0	7.5260	0	32.4120	0	25.311	0	99.141	0	268.9	4	91.0	4	-1E+10	1	-1E+10	1	-1E+10	1	-1E+10	1	-1E+10	1	-1E+10	1
4902551	108	C	08/11/2023	20:17	-131.171	47.530	0	100.80	0	7.5210	0	32.4120	0	25.311	0	99.934	0	268.4	4	90.8	4	-1E+10	1	-1E+10	1	-1E+10	1	-1E+10	1	-1E+10	1	-1E+10	1
4902551	108	C	08/11/2023	20:17	-131.171	47.530	0	102.00	0	7.5080	0	32.4120	0	25.313	0	101.123	0	267.7	4	90.6	4	-1E+10	1	-1E+10	1	-1E+10	1	-1E+10	1	-1E+10	1	-1E+10	1
4902551	108	C	08/11/2023	20:17	-131.171	47.530	0	103.10	0	7.4960	0	32.4160	0	25.318	0	102.214	0	266.9	4	90.2	4	-1E+10	1	-1E+10	1	-1E+10	1	-1E+10	1	-1E+10	1	-1E+10	1
4902551	108	C	08/11/2023	20:17	-131.171	47.530	0	103.90	0	7.4870	0	32.4170	0	25.320	0	103.007	0	266.3	4	90.0	4	-1E+10	1	-1E+10	1	-1E+10	1	-1E+10	1	-1E+10	1	-1E+10	1
4902551	108	C	08/11/2023	20:17	-131.171	47.530	0	105.00	0	7.4720	0	32.4210	0	25.325	0	104.097	0	265.3	4	89.7	4	-1E+10	1	-1E+10	1	-1E+10	1	-1E+10	1	-1E+10	1	-1E+10	1
4902551	108	C	08/11/2023	20:17	-131.171	47.530	0	106.10	0	7.4660	0	32.4270	0	25.331	0	105.187	0	264.2	4	89.3	4	-1E+10	1	-1E+10	1	-1E+10	1	-1E+10	1	-1E+10	1	-1E+10	1
4902551	108	C	08/11/2023	20:17	-131.171	47.530	0	107.10	0	7.4660	0	32.4270	0	25.331	0	106.178	0	263.0	4	88.9	4	-1E+10	1	-1E+10	1	-1E+10	1	-1E+10	1	-1E+10	1	-1E+10	1
4902551	108	C	08/11/2023	20:17	-131.171	47.530	0	108.10	0	7.4650	0	32.4310	0	25.334	0	107.169	0	261.7	4	88.4	4	-1E+10	1	-1E+10	1	-1E+10	1	-1E+10	1	-1E+10	1	-1E+10	1
4902551	108	C	08/11/2023	20:17	-131.171	47.530	0	108.80	0	7.4600	0	32.4360	0	25.339	0	107.863	0	260.3	4	88.0	4	-1E+10	1	-1E+10	1	-1E+10	1	-1E+10	1	-1E+10	1	-1E+10	1
4902551	108	C	08/11/2023	20:17	-131.171	47.530	0	109.80	0	7.4520	0	32.4430	0	25.345	0	108.854	0	257.7	4	87.1	4	-1E+10	1	-1E+10	1	-1E+10	1	-1E+10	1	-1E+10	1	-1E+10	1
4902551	108	C	08/11/2023	20:17	-131.171	47.530	0	110.90	0	7.4350	0	32.4610	0	25.362	0	109.945	0	253.6	4	85.7	4	-1E+10	1	-1E+10	1	-1E+10	1	-1E+10	1	-1E+10	1	-1E+10	1
4902551	108	C	08/11/2023	20:17	-131.171	47.530	0	112.00	0	7.3900	0	32.5490	0	25.437	0	111.035	0	245.9	4	83.0	4	-1E+10	1	-1E+10	1	-1E+10	1	-1E+10	1	-1E+10	1	-1E+10	1
4902551	108	C	08/11/2023	20:17	-131.171	47.530	0	113.10	0	7.3030	0	32.6500	0	25.529	0	112.125	0	237.6	4	80.1	4	-1E+10	1	-1E+10	1	-1E+10	1	-1E+10	1	-1E+10	1	-1E+10	1
4902551	108	C	08/11/2023	20:17	-131.171	47.530	0	114.10	0	7.2700	0	32.6840	0	25.560	0	113.116	0	234.2	4	78.9	4	-1E+10	1	-1E+10	1	-1E+10	1	-1E+10	1	-1E+10	1	-1E+10	1
4902551	108	C	08/11/2023	20:17	-131.171	47.530	0	115.10	0	7.2340	0	32.7200	0	25.593	0	114.107	0	231.5	4	78.0	4	-1E+10	1	-1E+10	1	-1E+10	1	-1E+10	1	-1E+10	1	-1E+10	1
4902551	108	C	08/11/2023	20:17	-131.171	47.530	0	116.20	0	7.2220	0	32.7330	0	25.605	0	115.197	0	228.5	4	77.0	4	-1E+10	1	-1E+10	1	-1E+10	1	-1E+10	1	-1E+10	1	-1E+10	1
4902551	108	C	08/11/2023	20:17	-131.171	47.530	0	117.00	0	7.2120	0	32.7390	0	25.611	0	115.990	0	226.9	4	76.4	4	-1E+10	1	-1E+10	1	-1E+10	1	-1E+10	1	-1E+10	1	-1E+10	1
4902551	108	C	08/11/2023	20:17	-131.171	47.530	0	118.20	0	7.1940	0	32.7700	0	25.638	0	117.180	0	224.4	4	75.6	4	-1E+10	1	-1E+10	1	-1E+10	1	-1E+10	1	-1E+10	1	-1E+10	1
4902551	108	C	08/11/2023	20:17	-131.171	47.530	0	119.00	0	7.1750	0	32.8030	0	25.666	0	117.972	0	222.9	4	75.1	4	-1E+10	1	-1E+10	1	-1E+10	1	-1E+10	1	-1E+10	1	-1E+10	1
4902551	108	C	08/11/2023	20:17	-131.171	47.530	0	119.90	0	7.1480	0	32.8280	0	25.690	0	118.864	0	221.2	4	74.5	4	-1E+10	1	-1E+10	1	-1E+10	1	-1E+10	1	-1E+10	1	-1E+10	1
4902551	108	C	08/11/2023	20:17	-131.171	47.530	0	121.00	0	7.1180	0	32.8590	0	25.718	0	119.955	0	218.5	4	73.5	4	-1E+10	1	-1E+10	1	-1E+10	1	-1E+10	1	-1E+10	1	-1E+10	1
4902551	108	C	08/11/2023	20:17	-131.171	47.530	0	122.00	0	7.1050	0	32.8800	0	25.737	0	120.946	0	213.6	4	71.8	4	-1E+10	1	-1E+10	1	-1E+10	1	-1E+10	1	-1E+10	1	-1E+10	1
4902551	108	C	08/11/2023	20:17	-131.171	47.530	0	123.10	0	7.0540	0	32.9560	0	25.803	0	122.036	0	207.0	4	69.6	4	-1E+10	1	-1E+10	1	-1E+10	1	-1E+10	1	-1E+10	1	-1E+10	1
4902551	108	C	08/11/2023	20:17	-131.171	47.530	0	123.90	0	7.0400	0	33.0070	0	25.845	0	122.829	0	202.8	4	68.2	4	-1E+10	1	-1E+10	1	-1E+10	1	-1E+10	1	-1E+10	1	-1E+10	1
4902551	108	C	08/11/2023	20:17	-131.171	47.530	0	124.90	0	7.0670	0	33.0590	0	25.883	0	123.820	0	197.1	4	66.3	4	-1E+10	1	-1E+10	1	-1E+10	1	-1E+10	1	-1E+10	1	-1E+10	1
4902551	108	C	08/11/2023	20:17	-131.171	47.530	0	125.80	0	7.0850	0	33.1040	0	25.916	0	124.712	0	194.3	4	65.4	4	-1E+10	1	-1E+10	1	-1E+10	1	-1E+10	1	-1E+10	1	-1E+10	1
4902551	108	C	08/11/2023	20:17	-131.171	47.530	0	126.90	0	7.1030	0	33.1750	0	25.969	0	125.802	0	192.7	4	64.9	4	-1E+10	1	-1E+10	1	-1E+10	1	-1E+10	1	-1E+10	1	-1E+10	1
4902551	108	C	08/11/2023	20:17	-131.171	47.530	0	127.90	0	7.0970	0	33.2450	0	26.025	0	126.793	0	192.7	4	65.0	4	-1E+10	1	-1E+10	1	-1E+10	1	-1E+10	1	-1E+10	1	-1E+10	1
4902551	108	C	08/11/2023	20:17	-131.171	47.530	0	128.80	0	7.1110	0	33.2450	0	26.023	0	127.685	0	193.1	4	65.1	4	-1E+10	1	-1E+10	1	-1E+10	1	-1E+10	1	-1E+10	1	-1E+10	1
4902551	108	C	08/11/2023	20:17	-131.171	47.530	0	129.70	0	6.9640	0	33.2680	0	26.061	0	128.577	0	193.1	4	64.9	4	-1E+10	1	-1E+10	1	-1E+10	1	-1E+10	1	-1E+10	1	-1E+10	1
4902551	108	C	08/11/2023	20:17	-131.171	47.530	0	131.10	0	6.7860	0	33.2880	0	26.101	0	129.964	0	189.3	4	63.4	4	-1E+10	1	-1E+10	1	-1E+10	1	-1E+10	1	-1E+10	1	-1E+10	1
4902551	108	C	08/11/2023	20:17	-131.171	47.530	0	132.10	0	6.7740	0	33.3000	0	26.112	0	130.955	0	186.0	4	62.3	4	-1E+10	1	-1E+10	1	-1E+10	1	-1E+10	1	-1E+10	1	-1E+10	1
4902551	108	C	08/11/2023	20:17	-131.171	47.530	0	133.00	0	6.7440	0	33.3090	0	26.123	0	131.847	0	181.5	4	60.7	4	-1E+10	1	-1E+10	1	-1E+10	1	-1E+10	1	-1E+10	1	-1E+10	1
4902551	108	C	08/11/2023	20:17	-131.171	47.530	0	134.10	0	6.6820	0	33.3470	0	26.161	0	132.937	0	175.1	4	58.5	4	-1E+10	1	-1E+10	1	-1E+10	1	-1E+10	1	-1E+10	1	-1E+10	1
4902551	108	C	08/11/2023	20:17	-131.171	47.530	0	134.90	0	6.7530	0	33.3990	0	26.193	0	133.730	0	168.0	4	56.3	4	-1E+10	1	-1E+10	1	-1E+10	1	-1E+10	1	-1E+10	1	-1E+10	1
4902551	108	C	08/11/2023	20:17	-131.171	47.530	0	135.70	0	6.9100	0	33.4660	0	26.224	0	134.523	0	163.3	4	54.9	4	-1E+10	1	-1E+10	1	-1E+10	1	-1E+10	1	-1E+10	1	-1E+10	1
4902551	108	C	08/11/2023	20:17	-131.171	47.530	0	136.90	0	6.9910	0	33.4960	0	26.237	0	135.712	0	160.0	4	53.9	4	-1E+10	1	-1E+10	1	-1E+10	1	-1E+10	1	-1E+10	1	-1E+10	1
4902551	108	C	08/11/2023	20:17	-131.171	47.530	0	138.00	0	7.0250	0	33.5080	0	26.242	0	136.802	0	156.7	4	52.8	4	-1E+10	1	-1E+10	1	-1E+10	1	-1E+10	1	-1E+10	1	-1E+10	1
4902551	108	C	08/11/2023	20:17	-131.171	47.530	0	139.10	0	7.0730	0	33.5260	0	26.250	0	137.892	0	154.1	4	52.0	4	-1E+10	1	-1E+10	1	-1E+10	1	-1E+10	1	-1E+10	1	-1E+10	1
4902551	108	C	08/11/2023	20:17	-131.171	47.530	0	140.00	0	7.1690	0	33.5640	0	26.267	0	138.784	0	152.9	4	51.8	4	-1E+10	1	-1E+10	1	-1E+10	1	-1E+10	1	-1E+10	1	-1E+10	1
4902551	108	C	08/11/2023	20:17	-131.171	47.530	0	140.90	0	7.1510	0	33.5760	0	26.278	0	139.676	0	152.1	4	51.5	4	-1E+10	1	-1E+10	1	-1E+10	1	-1E+10	1	-1E+10	1	-1E+10	1
4902551	108	C	08/11/2023	20:17	-131.171	47.530	0	142.10	0	7.1570	0	33.5820	0	26.282	0	140.865	0	151.2	4	51.2	4	-1E+10	1	-1E+10	1	-1E+10	1	-1E+10	1	-1E+10	1	-1E+10	1
4902551	108	C	08/11/2023	20:17	-131.171	47.530	0	143.00	0	7.1120	0	33.5920	0	26.296	0	141.757	0	150.2	4	50.8	4	-1E+10	1	-1E+10	1	-1E+10	1	-1E+10	1	-1E+10	1	-1E+10	1
4902551	108	C	08/11/2023	20:17	-131.171	47.530	0	143.90	0	7.1100	0	33.5950	0	26.299	0	142.649	0	148.8	4	50.3	4	-1E+10	1	-1E+10	1	-1E+10	1	-1E+10	1	-1E+10	1	-1E+10	1
4902551	108	C	08/11/2023	20:17	-131.171	47.530	0	144.80	0	7.1230	0	33.5990	0	26.300	0	143.541	0	147.6	4	49.9	4	-1E+10	1	-1E+10	1	-1E+10	1	-1E+10	1	-1E+10	1	-1E+10	1
4902551	108	C	08/11/2023	20:17	-131.171	47.530	0	145.80	0	7.1270	0	33.6120	0	26.310	0	144.532	0	146.2	4	49.5	4	-1E+10	1	-1E+10	1	-1E+10	1	-1E+10	1	-1E+10	1	-1E+10	1
4902551	108	C	08/11/2023	20:17	-131.171	47.530	0	147.00	0	7.1250	0	33.6240	0	26.320	0	145.721	0	144.4	4	48.8	4	-1E+10	1	-1E+10	1	-1E+10	1	-1E+10	1	-1E+10	1	-1E+10	1
4902551	108	C	08/11/2023	20:17	-131.171	47.530	0	148.00	0	7.1220	0	33.6320	0	26.327	0	146.712	0	142.8	4	48.3	4	-1E+10	1	-1E+10	1	-1E+10	1	-1E+10	1	-1E+10	1	-1E+10	1
4902551	108	C	08/11/2023	20:17	-131.171	47.530	0	149.00	0	7.1250	0	33.6470	0	26.338	0	147.703	0	141.1	4	47.7	4	-1E+10	1	-1E+10	1	-1E+10	1	-1E+10	1	-1E+10	1	-1E+10	1
4902551	108	C	08/11/2023	20:17	-131.171	47.530	0	150.10	0	7.1310	0	33.6540	0	26.343	0	148.793	0	139.4	4	47.2	4	-1E+10	1	-1E+10	1	-1E+10	1	-1E+10	1	-1E+10	1	-1E+10	1
4902551	108	C	08/11/2023	20:17	-131.171	47.530	0	150.80	0	7.1390	0	33.6830	0	26.364	0	149.486	0	138.7	4	47.0	4	-1E+10	1	-1E+10	1	-1E+10	1	-1E+10	1	-1E+10	1	-1E+10	1
4902551	108	C	08/11/2023	20:17	-131.171	47.530	0	151.90	0	7.1370	0	33.6980	0	26.377	0	150.576	0	138.1	4	46.8	4	-1E+10	1	-1E+10	1	-1E+10	1	-1E+10	1	-1E+10	1	-1E+10	1
4902551	108	C	08/11/2023	20:17	-131.171	47.530	0	153.10	0	7.1310	0	33.7030	0	26.381	0	151.766	0	137.4	4	46.5	4	-1E+10	1	-1E+10	1	-1E+10	1	-1E+10	1	-1E+10	1	-1E+10	1
4902551	108	C	08/11/2023	20:17	-131.171	47.530	0	153.80	0	7.1260	0	33.7060	0	26.384	0	152.459	0	137.0	4	46.4	4	-1E+10	1	-1E+10	1	-1E+10	1	-1E+10	1	-1E+10	1	-1E+10	1
4902551	108	C	08/11/2023	20:17	-131.171	47.530	0	155.00	0	7.1250	0	33.7120	0	26.389	0	153.648	0	136.3	4	46.1	4	-1E+10	1	-1E+10	1	-1E+10	1	-1E+10	1	-1E+10	1	-1E+10	1
4902551	108	C	08/11/2023	20:17	-131.171	47.530	0	156.20	0	7.1280	0	33.7170	0	26.393	0	154.837	0	135.6	4	45.9	4	-1E+10	1	-1E+10	1	-1E+10	1	-1E+10	1	-1E+10	1	-1E+10	1
4902551	108	C	08/11/2023	20:17	-131.171	47.530	0	157.00	0	7.1280	0	33.7260	0	26.400	0	155.630	0	135.3	4	45.8	4	-1E+10	1	-1E+10	1	-1E+10	1	-1E+10	1	-1E+10	1	-1E+10	1
4902551	108	C	08/11/2023	20:17	-131.171	47.530	0	157.80	0	7.1220	0	33.7340	0	26.407	0	156.423	0	135.1	4	45.7	4	-1E+10	1	-1E+10	1	-1E+10	1	-1E+10	1	-1E+10	1	-1E+10	1
4902551	108	C	08/11/2023	20:17	-131.171	47.530	0	159.00	0	7.1070	0	33.7380	0	26.412	0	157.612	0	134.8	4	45.6	4	-1E+10	1	-1E+10	1	-1E+10	1	-1E+10	1	-1E+10	1	-1E+10	1
4902551	108	C	08/11/2023	20:17	-131.171	47.530	0	160.30	0	7.1030	0	33.7400	0	26.414	0	158.900	0	134.5	4	45.5	4	-1E+10	1	-1E+10	1	-1E+10	1	-1E+10	1	-1E+10	1	-1E+10	1
4902551	108	C	08/11/2023	20:17	-131.171	47.530	0	161.10	0	7.1010	0	33.7410	0	26.415	0	159.693	0	134.3	4	45.4	4	-1E+10	1	-1E+10	1	-1E+10	1	-1E+10	1	-1E+10	1	-1E+10	1
4902551	108	C	08/11/2023	20:17	-131.171	47.530	0	162.00	0	7.1000	0	33.7420	0	26.416	0	160.584	0	134.1	4	45.4	4	-1E+10	1	-1E+10	1	-1E+10	1	-1E+10	1	-1E+10	1	-1E+10	1
4902551	108	C	08/11/2023	20:17	-131.171	47.530	0	162.80	0	7.0690	0	33.7490	0	26.426	0	161.377	0	133.8	4	45.3	4	-1E+10	1	-1E+10	1	-1E+10	1	-1E+10	1	-1E+10	1	-1E+10	1
4902551	108	C	08/11/2023	20:17	-131.171	47.530	0	163.70	0	7.0480	0	33.7540	0	26.433	0	162.269	0	133.5	4	45.1	4	-1E+10	1	-1E+10	1	-1E+10	1	-1E+10	1	-1E+10	1	-1E+10	1
4902551	108	C	08/11/2023	20:17	-131.171	47.530	0	164.60	0	7.0470	0	33.7540	0	26.433	0	163.161	0	133.0	4	45.0	4	-1E+10	1	-1E+10	1	-1E+10	1	-1E+10	1	-1E+10	1	-1E+10	1
4902551	108	C	08/11/2023	20:17	-131.171	47.530	0	165.90	0	7.0370	0	33.7570	0	26.437	0	164.449	0	132.2	4	44.7	4	-1E+10	1	-1E+10	1	-1E+10	1	-1E+10	1	-1E+10	1	-1E+10	1
4902551	108	C	08/11/2023	20:17	-131.171	47.530	0	167.30	0	7.0170	0	33.7580	0	26.440	0	165.836	0	131.2	4	44.3	4	-1E+10	1	-1E+10	1	-1E+10	1	-1E+10	1	-1E+10	1	-1E+10	1
4902551	108	C	08/11/2023	20:17	-131.171	47.530	0	168.20	0	7.0040	0	33.7600	0	26.444	0	166.728	0	130.3	4	44.0	4	-1E+10	1	-1E+10	1	-1E+10	1	-1E+10	1	-1E+10	1	-1E+10	1
4902551	108	C	08/11/2023	20:17	-131.171	47.530	0	169.10	0	7.0060	0	33.7670	0	26.449	0	167.620	0	129.8	4	43.8	4	-1E+10	1	-1E+10	1	-1E+10	1	-1E+10	1	-1E+10	1	-1E+10	1
4902551	108	C	08/11/2023	20:17	-131.171	47.530	0	170.00	0	7.0070	0	33.7760	0	26.456	0	168.511	0	129.5	4	43.7	4	-1E+10	1	-1E+10	1	-1E+10	1	-1E+10	1	-1E+10	1	-1E+10	1
4902551	108	C	08/11/2023	20:17	-131.171	47.530	0	170.90	0	6.9770	0	33.7830	0	26.466	0	169.403	0	129.3	4	43.7	4	-1E+10	1	-1E+10	1	-1E+10	1	-1E+10	1	-1E+10	1	-1E+10	1
4902551	108	C	08/11/2023	20:17	-131.171	47.530	0	171.90	0	6.9630	0	33.7840	0	26.468	0	170.394	0	129.2	4	43.6	4	-1E+10	1	-1E+10	1	-1E+10	1	-1E+10	1	-1E+10	1	-1E+10	1
4902551	108	C	08/11/2023	20:17	-131.171	47.530	0	172.80	0	6.9300	0	33.7880	0	26.476	0	171.286	0	129.0	4	43.5	4	-1E+10	1	-1E+10	1	-1E+10	1	-1E+10	1	-1E+10	1	-1E+10	1
4902551	108	C	08/11/2023	20:17	-131.171	47.530	0	173.80	0	6.9210	0	33.7870	0	26.476	0	172.276	0	128.8	4	43.4	4	-1E+10	1	-1E+10	1	-1E+10	1	-1E+10	1	-1E+10	1	-1E+10	1
4902551	108	C	08/11/2023	20:17	-131.171	47.530	0	174.70	0	6.9130	0	33.7890	0	26.479	0	173.168	0	128.6	4	43.4	4	-1E+10	1	-1E+10	1	-1E+10	1	-1E+10	1	-1E+10	1	-1E+10	1
4902551	108	C	08/11/2023	20:17	-131.171	47.530	0	175.70	0	6.8970	0	33.7920	0	26.484	0	174.159	0	128.4	4	43.3	4	-1E+10	1	-1E+10	1	-1E+10	1	-1E+10	1	-1E+10	1	-1E+10	1
4902551	108	C	08/11/2023	20:17	-131.171	47.530	0	176.70	0	6.8710	0	33.7970	0	26.491	0	175.150	0	128.0	4	43.1	4	-1E+10	1	-1E+10	1	-1E+10	1	-1E+10	1	-1E+10	1	-1E+10	1
4902551	108	C	08/11/2023	20:17	-131.171	47.530	0	177.60	0	6.8290	0	33.7970	0	26.497	0	176.042	0	127.6	4	42.9	4	-1E+10	1	-1E+10	1	-1E+10	1	-1E+10	1	-1E+10	1	-1E+10	1
4902551	108	C	08/11/2023	20:17	-131.171	47.530	0	178.60	0	6.8260	0	33.7970	0	26.497	0	177.032	0	126.8	4	42.7	4	-1E+10	1	-1E+10	1	-1E+10	1	-1E+10	1	-1E+10	1	-1E+10	1
4902551	108	C	08/11/2023	20:17	-131.171	47.530	0	179.50	0	6.8270	0	33.7980	0	26.498	0	177.924	0	126.1	4	42.4	4	-1E+10	1	-1E+10	1	-1E+10	1	-1E+10	1	-1E+10	1	-1E+10	1
4902551	108	C	08/11/2023	20:17	-131.171	47.530	0	180.50	0	6.8140	0	33.8010	0	26.502	0	178.915	0	125.5	4	42.2	4	-1E+10	1	-1E+10	1	-1E+10	1	-1E+10	1	-1E+10	1	-1E+10	1
4902551	108	C	08/11/2023	20:17	-131.171	47.530	0	181.90	0	6.7810	0	33.8070	0	26.511	0	180.302	0	124.5	4	41.8	4	-1E+10	1	-1E+10	1	-1E+10	1	-1E+10	1	-1E+10	1	-1E+10	1
4902551	108	C	08/11/2023	20:17	-131.171	47.530	0	183.40	0	6.7980	0	33.8120	0	26.513	0	181.788	0	123.1	4	41.4	4	-1E+10	1	-1E+10	1	-1E+10	1	-1E+10	1	-1E+10	1	-1E+10	1
4902551	108	C	08/11/2023	20:17	-131.171	47.530	0	184.40	0	6.7570	0	33.8140	0	26.520	0	182.779	0	122.5	4	41.2	4	-1E+10	1	-1E+10	1	-1E+10	1	-1E+10	1	-1E+10	1	-1E+10	1
4902551	108	C	08/11/2023	20:17	-131.171	47.530	0	185.40	0	6.7490	0	33.8150	0	26.522	0	183.770	0	121.7	4	40.9	4	-1E+10	1	-1E+10	1	-1E+10	1	-1E+10	1	-1E+10	1	-1E+10	1
4902551	108	C	08/11/2023	20:17	-131.171	47.530	0	186.40	0	6.7520	0	33.8150	0	26.521	0	184.760	0	121.0	4	40.6	4	-1E+10	1	-1E+10	1	-1E+10	1	-1E+10	1	-1E+10	1	-1E+10	1
4902551	108	C	08/11/2023	20:17	-131.171	47.530	0	187.40	0	6.7400	0	33.8240	0	26.530	0	185.751	0	120.6	4	40.5	4	-1E+10	1	-1E+10	1	-1E+10	1	-1E+10	1	-1E+10	1	-1E+10	1
4902551	108	C	08/11/2023	20:17	-131.171	47.530	0	188.40	0	6.7300	0	33.8240	0	26.531	0	186.742	0	120.2	4	40.4	4	-1E+10	1	-1E+10	1	-1E+10	1	-1E+10	1	-1E+10	1	-1E+10	1
4902551	108	C	08/11/2023	20:17	-131.171	47.530	0	189.40	0	6.7250	0	33.8280	0	26.535	0	187.733	0	119.9	4	40.2	4	-1E+10	1	-1E+10	1	-1E+10	1	-1E+10	1	-1E+10	1	-1E+10	1
4902551	108	C	08/11/2023	20:17	-131.171	47.530	0	190.40	0	6.7190	0	33.8280	0	26.536	0	188.723	0	119.6	4	40.1	4	-1E+10	1	-1E+10	1	-1E+10	1	-1E+10	1	-1E+10	1	-1E+10	1
4902551	108	C	08/11/2023	20:17	-131.171	47.530	0	191.30	0	6.7090	0	33.8290	0	26.538	0	189.615	0	119.3	4	40.0	4	-1E+10	1	-1E+10	1	-1E+10	1	-1E+10	1	-1E+10	1	-1E+10	1
4902551	108	C	08/11/2023	20:17	-131.171	47.530	0	192.40	0	6.6960	0	33.8290	0	26.540	0	190.705	0	119.0	4	39.9	4	-1E+10	1	-1E+10	1	-1E+10	1	-1E+10	1	-1E+10	1	-1E+10	1
4902551	108	C	08/11/2023	20:17	-131.171	47.530	0	193.40	0	6.6880	0	33.8330	0	26.544	0	191.696	0	118.6	4	39.8	4	-1E+10	1	-1E+10	1	-1E+10	1	-1E+10	1	-1E+10	1	-1E+10	1
4902551	108	C	08/11/2023	20:17	-131.171	47.530	0	194.40	0	6.6830	0	33.8350	0	26.546	0	192.686	0	118.4	4	39.7	4	-1E+10	1	-1E+10	1	-1E+10	1	-1E+10	1	-1E+10	1	-1E+10	1
4902551	108	C	08/11/2023	20:17	-131.171	47.530	0	195.40	0	6.6830	0	33.8370	0	26.548	0	193.677	0	118.3	4	39.7	4	-1E+10	1	-1E+10	1	-1E+10	1	-1E+10	1	-1E+10	1	-1E+10	1
4902551	108	C	08/11/2023	20:17	-131.171	47.530	0	196.40	0	6.6830	0	33.8360	0	26.547	0	194.668	0	118.1	4	39.6	4	-1E+10	1	-1E+10	1	-1E+10	1	-1E+10	1	-1E+10	1	-1E+10	1
4902551	108	C	08/11/2023	20:17	-131.171	47.530	0	197.40	0	6.6870	0	33.8370	0	26.547	0	195.658	0	118.0	4	39.6	4	-1E+10	1	-1E+10	1	-1E+10	1	-1E+10	1	-1E+10	1	-1E+10	1
4902551	108	C	08/11/2023	20:17	-131.171	47.530	0	198.40	0	6.6850	0	33.8360	0	26.547	0	196.649	0	117.8	4	39.5	4	-1E+10	1	-1E+10	1	-1E+10	1	-1E+10	1	-1E+10	1	-1E+10	1
4902551	108	C	08/11/2023	20:17	-131.171	47.530	0	199.40	0	6.6830	0	33.8370	0	26.548	0	197.640	0	117.7	4	39.5	4	-1E+10	1	-1E+10	1	-1E+10	1	-1E+10	1	-1E+10	1	-1E+10	1
4902551	108	C	08/11/2023	20:17	-131.171	47.530	0	200.40	0	6.6760	0	33.8380	0	26.550	0	198.631	0	117.6	4	39.4	4	-1E+10	1	-1E+10	1	-1E+10	1	-1E+10	1	-1E+10	1	-1E+10	1
4902551	108	C	08/11/2023	20:17	-131.171	47.530	0	201.40	0	6.6680	0	33.8390	0	26.552	0	199.621	0	117.5	4	39.4	4	-1E+10	1	-1E+10	1	-1E+10	1	-1E+10	1	-1E+10	1	-1E+10	1
4902551	108	C	08/11/2023	20:17	-131.171	47.530	0	202.40	0	6.6720	0	33.8420	0	26.553	0	200.612	0	117.4	4	39.4	4	-1E+10	1	-1E+10	1	-1E+10	1	-1E+10	1	-1E+10	1	-1E+10	1
4902551	108	C	08/11/2023	20:17	-131.171	47.530	0	203.40	0	6.6520	0	33.8430	0	26.557	0	201.603	0	117.4	4	39.4	4	-1E+10	1	-1E+10	1	-1E+10	1	-1E+10	1	-1E+10	1	-1E+10	1
4902551	108	C	08/11/2023	20:17	-131.171	47.530	0	204.40	0	6.6430	0	33.8440	0	26.559	0	202.593	0	117.4	4	39.3	4	-1E+10	1	-1E+10	1	-1E+10	1	-1E+10	1	-1E+10	1	-1E+10	1
4902551	108	C	08/11/2023	20:17	-131.171	47.530	0	205.30	0	6.6340	0	33.8430	0	26.559	0	203.485	0	117.4	4	39.3	4	-1E+10	1	-1E+10	1	-1E+10	1	-1E+10	1	-1E+10	1	-1E+10	1
4902551	108	C	08/11/2023	20:17	-131.171	47.530	0	206.30	0	6.6130	0	33.8530	0	26.570	0	204.476	0	117.3	4	39.3	4	-1E+10	1	-1E+10	1	-1E+10	1	-1E+10	1	-1E+10	1	-1E+10	1
4902551	108	C	08/11/2023	20:17	-131.171	47.530	0	207.30	0	6.5770	0	33.8490	0	26.572	0	205.466	0	117.0	4	39.2	4	-1E+10	1	-1E+10	1	-1E+10	1	-1E+10	1	-1E+10	1	-1E+10	1
4902551	108	C	08/11/2023	20:17	-131.171	47.530	0	208.30	0	6.5750	0	33.8450	0	26.569	0	206.457	0	116.9	4	39.1	4	-1E+10	1	-1E+10	1	-1E+10	1	-1E+10	1	-1E+10	1	-1E+10	1
4902551	108	C	08/11/2023	20:17	-131.171	47.530	0	209.30	0	6.5680	0	33.8440	0	26.569	0	207.447	0	116.7	4	39.0	4	-1E+10	1	-1E+10	1	-1E+10	1	-1E+10	1	-1E+10	1	-1E+10	1
4902551	108	C	08/11/2023	20:17	-131.171	47.530	0	210.30	0	6.5610	0	33.8440	0	26.570	0	208.438	0	116.5	4	39.0	4	-1E+10	1	-1E+10	1	-1E+10	1	-1E+10	1	-1E+10	1	-1E+10	1
4902551	108	C	08/11/2023	20:17	-131.171	47.530	0	211.30	0	6.5280	0	33.8420	0	26.572	0	209.429	0	116.1	4	38.8	4	-1E+10	1	-1E+10	1	-1E+10	1	-1E+10	1	-1E+10	1	-1E+10	1
4902551	108	C	08/11/2023	20:17	-131.171	47.530	0	212.30	0	6.5220	0	33.8410	0	26.572	0	210.419	0	115.8	4	38.7	4	-1E+10	1	-1E+10	1	-1E+10	1	-1E+10	1	-1E+10	1	-1E+10	1
4902551	108	C	08/11/2023	20:17	-131.171	47.530	0	213.30	0	6.5250	0	33.8450	0	26.575	0	211.410	0	115.5	4	38.6	4	-1E+10	1	-1E+10	1	-1E+10	1	-1E+10	1	-1E+10	1	-1E+10	1
4902551	108	C	08/11/2023	20:17	-131.171	47.530	0	214.30	0	6.5240	0	33.8460	0	26.576	0	212.401	0	115.4	4	38.6	4	-1E+10	1	-1E+10	1	-1E+10	1	-1E+10	1	-1E+10	1	-1E+10	1
4902551	108	C	08/11/2023	20:17	-131.171	47.530	0	215.40	0	6.5070	0	33.8500	0	26.582	0	213.490	0	115.2	4	38.5	4	-1E+10	1	-1E+10	1	-1E+10	1	-1E+10	1	-1E+10	1	-1E+10	1
4902551	108	C	08/11/2023	20:17	-131.171	47.530	0	216.40	0	6.4230	0	33.8490	0	26.592	0	214.481	0	114.7	4	38.3	4	-1E+10	1	-1E+10	1	-1E+10	1	-1E+10	1	-1E+10	1	-1E+10	1
4902551	108	C	08/11/2023	20:17	-131.171	47.530	0	217.40	0	6.4050	0	33.8410	0	26.588	0	215.472	0	113.9	4	38.0	4	-1E+10	1	-1E+10	1	-1E+10	1	-1E+10	1	-1E+10	1	-1E+10	1
4902551	108	C	08/11/2023	20:17	-131.171	47.530	0	218.40	0	6.4060	0	33.8410	0	26.588	0	216.462	0	113.0	4	37.7	4	-1E+10	1	-1E+10	1	-1E+10	1	-1E+10	1	-1E+10	1	-1E+10	1
4902551	108	C	08/11/2023	20:17	-131.171	47.530	0	219.40	0	6.3880	0	33.8470	0	26.595	0	217.453	0	112.0	4	37.3	4	-1E+10	1	-1E+10	1	-1E+10	1	-1E+10	1	-1E+10	1	-1E+10	1
4902551	108	C	08/11/2023	20:17	-131.171	47.530	0	220.50	0	6.3790	0	33.8430	0	26.593	0	218.542	0	110.9	4	36.9	4	-1E+10	1	-1E+10	1	-1E+10	1	-1E+10	1	-1E+10	1	-1E+10	1
4902551	108	C	08/11/2023	20:17	-131.171	47.530	0	221.50	0	6.3790	0	33.8490	0	26.597	0	219.533	0	109.9	4	36.6	4	-1E+10	1	-1E+10	1	-1E+10	1	-1E+10	1	-1E+10	1	-1E+10	1
4902551	108	C	08/11/2023	20:17	-131.171	47.530	0	222.50	0	6.4130	0	33.8580	0	26.600	0	220.524	0	109.2	4	36.4	4	-1E+10	1	-1E+10	1	-1E+10	1	-1E+10	1	-1E+10	1	-1E+10	1
4902551	108	C	08/11/2023	20:17	-131.171	47.530	0	223.60	0	6.4220	0	33.8640	0	26.604	0	221.613	0	109.0	4	36.3	4	-1E+10	1	-1E+10	1	-1E+10	1	-1E+10	1	-1E+10	1	-1E+10	1
4902551	108	C	08/11/2023	20:17	-131.171	47.530	0	224.60	0	6.4180	0	33.8620	0	26.603	0	222.604	0	108.8	4	36.3	4	-1E+10	1	-1E+10	1	-1E+10	1	-1E+10	1	-1E+10	1	-1E+10	1
4902551	108	C	08/11/2023	20:17	-131.171	47.530	0	225.60	0	6.4160	0	33.8630	0	26.604	0	223.594	0	108.5	4	36.2	4	-1E+10	1	-1E+10	1	-1E+10	1	-1E+10	1	-1E+10	1	-1E+10	1
4902551	108	C	08/11/2023	20:17	-131.171	47.530	0	226.70	0	6.4160	0	33.8630	0	26.604	0	224.684	0	108.2	4	36.1	4	-1E+10	1	-1E+10	1	-1E+10	1	-1E+10	1	-1E+10	1	-1E+10	1
4902551	108	C	08/11/2023	20:17	-131.171	47.530	0	227.70	0	6.4160	0	33.8630	0	26.604	0	225.675	0	107.9	4	36.0	4	-1E+10	1	-1E+10	1	-1E+10	1	-1E+10	1	-1E+10	1	-1E+10	1
4902551	108	C	08/11/2023	20:17	-131.171	47.530	0	228.70	0	6.4020	0	33.8600	0	26.603	0	226.665	0	107.5	4	35.8	4	-1E+10	1	-1E+10	1	-1E+10	1	-1E+10	1	-1E+10	1	-1E+10	1
4902551	108	C	08/11/2023	20:17	-131.171	47.530	0	229.80	0	6.3860	0	33.8590	0	26.605	0	227.755	0	107.0	4	35.7	4	-1E+10	1	-1E+10	1	-1E+10	1	-1E+10	1	-1E+10	1	-1E+10	1
4902551	108	C	08/11/2023	20:17	-131.171	47.530	0	230.80	0	6.3830	0	33.8620	0	26.607	0	228.745	0	106.4	4	35.5	4	-1E+10	1	-1E+10	1	-1E+10	1	-1E+10	1	-1E+10	1	-1E+10	1
4902551	108	C	08/11/2023	20:17	-131.171	47.530	0	231.90	0	6.4120	0	33.8480	0	26.593	0	229.835	0	106.0	4	35.3	4	-1E+10	1	-1E+10	1	-1E+10	1	-1E+10	1	-1E+10	1	-1E+10	1
4902551	108	C	08/11/2023	20:17	-131.171	47.530	0	232.90	0	6.4030	0	33.8750	0	26.615	0	230.825	0	105.9	4	35.3	4	-1E+10	1	-1E+10	1	-1E+10	1	-1E+10	1	-1E+10	1	-1E+10	1
4902551	108	C	08/11/2023	20:17	-131.171	47.530	0	233.90	0	6.3910	0	33.8720	0	26.614	0	231.816	0	105.9	4	35.3	4	-1E+10	1	-1E+10	1	-1E+10	1	-1E+10	1	-1E+10	1	-1E+10	1
4902551	108	C	08/11/2023	20:17	-131.171	47.530	0	235.00	0	6.3700	0	33.8710	0	26.616	0	232.906	0	105.9	4	35.3	4	-1E+10	1	-1E+10	1	-1E+10	1	-1E+10	1	-1E+10	1	-1E+10	1
4902551	108	C	08/11/2023	20:17	-131.171	47.530	0	236.00	0	6.3330	0	33.8690	0	26.619	0	233.896	0	105.7	4	35.2	4	-1E+10	1	-1E+10	1	-1E+10	1	-1E+10	1	-1E+10	1	-1E+10	1
4902551	108	C	08/11/2023	20:17	-131.171	47.530	0	237.10	0	6.3400	0	33.8690	0	26.618	0	234.986	0	105.6	4	35.2	4	-1E+10	1	-1E+10	1	-1E+10	1	-1E+10	1	-1E+10	1	-1E+10	1
4902551	108	C	08/11/2023	20:17	-131.171	47.530	0	238.10	0	6.3160	0	33.8720	0	26.624	0	235.976	0	105.4	4	35.1	4	-1E+10	1	-1E+10	1	-1E+10	1	-1E+10	1	-1E+10	1	-1E+10	1
4902551	108	C	08/11/2023	20:17	-131.171	47.530	0	239.10	0	6.2880	0	33.8670	0	26.624	0	236.967	0	105.1	4	34.9	4	-1E+10	1	-1E+10	1	-1E+10	1	-1E+10	1	-1E+10	1	-1E+10	1
4902551	108	C	08/11/2023	20:17	-131.171	47.530	0	240.20	0	6.2840	0	33.8640	0	26.622	0	238.056	0	104.7	4	34.8	4	-1E+10	1	-1E+10	1	-1E+10	1	-1E+10	1	-1E+10	1	-1E+10	1
4902551	108	C	08/11/2023	20:17	-131.171	47.530	0	241.20	0	6.2660	0	33.8700	0	26.629	0	239.047	0	104.2	4	34.6	4	-1E+10	1	-1E+10	1	-1E+10	1	-1E+10	1	-1E+10	1	-1E+10	1
4902551	108	C	08/11/2023	20:17	-131.171	47.530	0	242.30	0	6.2570	0	33.8660	0	26.627	0	240.136	0	103.6	4	34.4	4	-1E+10	1	-1E+10	1	-1E+10	1	-1E+10	1	-1E+10	1	-1E+10	1
4902551	108	C	08/11/2023	20:17	-131.171	47.530	0	243.30	0	6.2930	0	33.8680	0	26.624	0	241.127	0	103.3	4	34.4	4	-1E+10	1	-1E+10	1	-1E+10	1	-1E+10	1	-1E+10	1	-1E+10	1
4902551	108	C	08/11/2023	20:17	-131.171	47.530	0	244.40	0	6.2790	0	33.8770	0	26.633	0	242.216	0	103.2	4	34.3	4	-1E+10	1	-1E+10	1	-1E+10	1	-1E+10	1	-1E+10	1	-1E+10	1
4902551	108	C	08/11/2023	20:17	-131.171	47.530	0	245.40	0	6.2770	0	33.8750	0	26.631	0	243.207	0	103.2	4	34.3	4	-1E+10	1	-1E+10	1	-1E+10	1	-1E+10	1	-1E+10	1	-1E+10	1
4902551	108	C	08/11/2023	20:17	-131.171	47.530	0	246.10	0	6.2790	0	33.8760	0	26.632	0	243.900	0	103.1	4	34.3	4	-1E+10	1	-1E+10	1	-1E+10	1	-1E+10	1	-1E+10	1	-1E+10	1
4902551	108	C	08/11/2023	20:17	-131.171	47.530	0	247.20	0	6.2690	0	33.8740	0	26.632	0	244.990	0	103.0	4	34.2	4	-1E+10	1	-1E+10	1	-1E+10	1	-1E+10	1	-1E+10	1	-1E+10	1
4902551	108	C	08/11/2023	20:17	-131.171	47.530	0	248.00	0	6.2480	0	33.8730	0	26.634	0	245.782	0	102.8	4	34.1	4	-1E+10	1	-1E+10	1	-1E+10	1	-1E+10	1	-1E+10	1	-1E+10	1
4902551	108	C	08/11/2023	20:17	-131.171	47.530	0	248.70	0	6.2380	0	33.8720	0	26.634	0	246.475	0	102.5	4	34.0	4	-1E+10	1	-1E+10	1	-1E+10	1	-1E+10	1	-1E+10	1	-1E+10	1
4902551	108	C	08/11/2023	20:17	-131.171	47.530	0	249.90	0	6.2270	0	33.8720	0	26.635	0	247.664	0	101.9	4	33.8	4	-1E+10	1	-1E+10	1	-1E+10	1	-1E+10	1	-1E+10	1	-1E+10	1
4902551	108	C	08/11/2023	20:17	-131.171	47.530	0	251.00	0	6.2220	0	33.8690	0	26.634	0	248.753	0	101.1	4	33.6	4	-1E+10	1	-1E+10	1	-1E+10	1	-1E+10	1	-1E+10	1	-1E+10	1
4902551	108	C	08/11/2023	20:17	-131.171	47.530	0	251.80	0	6.2050	0	33.8680	0	26.635	0	249.546	0	100.5	4	33.3	4	-1E+10	1	-1E+10	1	-1E+10	1	-1E+10	1	-1E+10	1	-1E+10	1
4902551	108	C	08/11/2023	20:17	-131.171	47.530	0	252.90	0	6.1750	0	33.8700	0	26.641	0	250.635	0	99.3	4	32.9	4	-1E+10	1	-1E+10	1	-1E+10	1	-1E+10	1	-1E+10	1	-1E+10	1
4902551	108	C	08/11/2023	20:17	-131.171	47.530	0	254.00	0	6.1990	0	33.8730	0	26.640	0	251.725	0	98.1	4	32.5	4	-1E+10	1	-1E+10	1	-1E+10	1	-1E+10	1	-1E+10	1	-1E+10	1
4902551	108	C	08/11/2023	20:17	-131.171	47.530	0	254.80	0	6.1860	0	33.8760	0	26.644	0	252.517	0	97.4	4	32.3	4	-1E+10	1	-1E+10	1	-1E+10	1	-1E+10	1	-1E+10	1	-1E+10	1
4902551	108	C	08/11/2023	20:17	-131.171	47.530	0	255.90	0	6.2050	0	33.8800	0	26.645	0	253.606	0	96.5	4	32.0	4	-1E+10	1	-1E+10	1	-1E+10	1	-1E+10	1	-1E+10	1	-1E+10	1
4902551	108	C	08/11/2023	20:17	-131.171	47.530	0	257.00	0	6.2180	0	33.8820	0	26.645	0	254.696	0	95.7	4	31.8	4	-1E+10	1	-1E+10	1	-1E+10	1	-1E+10	1	-1E+10	1	-1E+10	1
4902551	108	C	08/11/2023	20:17	-131.171	47.530	0	257.80	0	6.2020	0	33.8880	0	26.651	0	255.488	0	95.2	4	31.6	4	-1E+10	1	-1E+10	1	-1E+10	1	-1E+10	1	-1E+10	1	-1E+10	1
4902551	108	C	08/11/2023	20:17	-131.171	47.530	0	258.90	0	6.1460	0	33.8810	0	26.653	0	256.578	0	94.3	4	31.3	4	-1E+10	1	-1E+10	1	-1E+10	1	-1E+10	1	-1E+10	1	-1E+10	1
4902551	108	C	08/11/2023	20:17	-131.171	47.530	0	260.10	0	6.1240	0	33.8830	0	26.657	0	257.766	0	93.3	4	30.9	4	-1E+10	1	-1E+10	1	-1E+10	1	-1E+10	1	-1E+10	1	-1E+10	1
4902551	108	C	08/11/2023	20:17	-131.171	47.530	0	260.90	0	6.1450	0	33.8870	0	26.658	0	258.559	0	92.8	4	30.8	4	-1E+10	1	-1E+10	1	-1E+10	1	-1E+10	1	-1E+10	1	-1E+10	1
4902551	108	C	08/11/2023	20:17	-131.171	47.530	0	261.70	0	6.1650	0	33.8890	0	26.657	0	259.351	0	92.5	4	30.7	4	-1E+10	1	-1E+10	1	-1E+10	1	-1E+10	1	-1E+10	1	-1E+10	1
4902551	108	C	08/11/2023	20:17	-131.171	47.530	0	262.80	0	6.1200	0	33.8980	0	26.670	0	260.440	0	92.1	4	30.5	4	-1E+10	1	-1E+10	1	-1E+10	1	-1E+10	1	-1E+10	1	-1E+10	1
4902551	108	C	08/11/2023	20:17	-131.171	47.530	0	264.00	0	6.0940	0	33.8940	0	26.670	0	261.629	0	91.7	4	30.4	4	-1E+10	1	-1E+10	1	-1E+10	1	-1E+10	1	-1E+10	1	-1E+10	1
4902551	108	C	08/11/2023	20:17	-131.171	47.530	0	264.80	0	6.0530	0	33.8910	0	26.673	0	262.421	0	91.2	4	30.2	4	-1E+10	1	-1E+10	1	-1E+10	1	-1E+10	1	-1E+10	1	-1E+10	1
4902551	108	C	08/11/2023	20:17	-131.171	47.530	0	266.00	0	6.0330	0	33.8910	0	26.675	0	263.610	0	90.6	4	29.9	4	-1E+10	1	-1E+10	1	-1E+10	1	-1E+10	1	-1E+10	1	-1E+10	1
4902551	108	C	08/11/2023	20:17	-131.171	47.530	0	267.20	0	6.0350	0	33.8950	0	26.678	0	264.798	0	89.9	4	29.7	4	-1E+10	1	-1E+10	1	-1E+10	1	-1E+10	1	-1E+10	1	-1E+10	1
4902551	108	C	08/11/2023	20:17	-131.171	47.530	0	268.00	0	6.0320	0	33.8980	0	26.681	0	265.590	0	89.6	4	29.6	4	-1E+10	1	-1E+10	1	-1E+10	1	-1E+10	1	-1E+10	1	-1E+10	1
4902551	108	C	08/11/2023	20:17	-131.171	47.530	0	268.90	0	6.0290	0	33.9000	0	26.683	0	266.482	0	89.4	4	29.5	4	-1E+10	1	-1E+10	1	-1E+10	1	-1E+10	1	-1E+10	1	-1E+10	1
4902551	108	C	08/11/2023	20:17	-131.171	47.530	0	269.70	0	6.0230	0	33.8990	0	26.683	0	267.274	0	89.0	4	29.4	4	-1E+10	1	-1E+10	1	-1E+10	1	-1E+10	1	-1E+10	1	-1E+10	1
4902551	108	C	08/11/2023	20:17	-131.171	47.530	0	270.90	0	6.0180	0	33.8990	0	26.683	0	268.462	0	88.4	4	29.2	4	-1E+10	1	-1E+10	1	-1E+10	1	-1E+10	1	-1E+10	1	-1E+10	1
4902551	108	C	08/11/2023	20:17	-131.171	47.530	0	272.20	0	6.0210	0	33.8980	0	26.682	0	269.750	0	87.9	4	29.0	4	-1E+10	1	-1E+10	1	-1E+10	1	-1E+10	1	-1E+10	1	-1E+10	1
4902551	108	C	08/11/2023	20:17	-131.171	47.530	0	273.00	0	6.0210	0	33.9030	0	26.686	0	270.542	0	87.4	4	28.9	4	-1E+10	1	-1E+10	1	-1E+10	1	-1E+10	1	-1E+10	1	-1E+10	1
4902551	108	C	08/11/2023	20:17	-131.171	47.530	0	273.80	0	5.9920	0	33.9040	0	26.691	0	271.334	0	87.1	4	28.8	4	-1E+10	1	-1E+10	1	-1E+10	1	-1E+10	1	-1E+10	1	-1E+10	1
4902551	108	C	08/11/2023	20:17	-131.171	47.530	0	274.60	0	5.9730	0	33.9030	0	26.692	0	272.127	0	86.6	4	28.6	4	-1E+10	1	-1E+10	1	-1E+10	1	-1E+10	1	-1E+10	1	-1E+10	1
4902551	108	C	08/11/2023	20:17	-131.171	47.530	0	275.90	0	5.9520	0	33.9010	0	26.693	0	273.414	0	85.7	4	28.3	4	-1E+10	1	-1E+10	1	-1E+10	1	-1E+10	1	-1E+10	1	-1E+10	1
4902551	108	C	08/11/2023	20:17	-131.171	47.530	0	277.10	0	5.9520	0	33.9030	0	26.695	0	274.602	0	84.7	4	27.9	4	-1E+10	1	-1E+10	1	-1E+10	1	-1E+10	1	-1E+10	1	-1E+10	1
4902551	108	C	08/11/2023	20:17	-131.171	47.530	0	278.00	0	5.9620	0	33.9080	0	26.698	0	275.494	0	84.3	4	27.8	4	-1E+10	1	-1E+10	1	-1E+10	1	-1E+10	1	-1E+10	1	-1E+10	1
4902551	108	C	08/11/2023	20:17	-131.171	47.530	0	278.80	0	5.9660	0	33.9120	0	26.700	0	276.286	0	84.0	4	27.7	4	-1E+10	1	-1E+10	1	-1E+10	1	-1E+10	1	-1E+10	1	-1E+10	1
4902551	108	C	08/11/2023	20:17	-131.171	47.530	0	279.70	0	5.9660	0	33.9130	0	26.701	0	277.177	0	83.7	4	27.6	4	-1E+10	1	-1E+10	1	-1E+10	1	-1E+10	1	-1E+10	1	-1E+10	1
4902551	108	C	08/11/2023	20:17	-131.171	47.530	0	281.00	0	5.9650	0	33.9130	0	26.701	0	278.465	0	83.4	4	27.5	4	-1E+10	1	-1E+10	1	-1E+10	1	-1E+10	1	-1E+10	1	-1E+10	1
4902551	108	C	08/11/2023	20:17	-131.171	47.530	0	282.30	0	5.9590	0	33.9150	0	26.704	0	279.752	0	83.1	4	27.4	4	-1E+10	1	-1E+10	1	-1E+10	1	-1E+10	1	-1E+10	1	-1E+10	1
4902551	108	C	08/11/2023	20:17	-131.171	47.530	0	283.10	0	5.9580	0	33.9150	0	26.704	0	280.544	0	82.8	4	27.3	4	-1E+10	1	-1E+10	1	-1E+10	1	-1E+10	1	-1E+10	1	-1E+10	1
4902551	108	C	08/11/2023	20:17	-131.171	47.530	0	284.00	0	5.9470	0	33.9220	0	26.711	0	281.436	0	82.7	4	27.3	4	-1E+10	1	-1E+10	1	-1E+10	1	-1E+10	1	-1E+10	1	-1E+10	1
4902551	108	C	08/11/2023	20:17	-131.171	47.530	0	284.80	0	5.9260	0	33.9160	0	26.708	0	282.228	0	82.4	4	27.2	4	-1E+10	1	-1E+10	1	-1E+10	1	-1E+10	1	-1E+10	1	-1E+10	1
4902551	108	C	08/11/2023	20:17	-131.171	47.530	0	285.60	0	5.9220	0	33.9150	0	26.708	0	283.020	0	82.3	4	27.1	4	-1E+10	1	-1E+10	1	-1E+10	1	-1E+10	1	-1E+10	1	-1E+10	1
4902551	108	C	08/11/2023	20:17	-131.171	47.530	0	286.90	0	5.9260	0	33.9160	0	26.709	0	284.307	0	82.0	4	27.0	4	-1E+10	1	-1E+10	1	-1E+10	1	-1E+10	1	-1E+10	1	-1E+10	1
4902551	108	C	08/11/2023	20:17	-131.171	47.530	0	288.10	0	5.9100	0	33.9160	0	26.711	0	285.496	0	81.8	4	27.0	4	-1E+10	1	-1E+10	1	-1E+10	1	-1E+10	1	-1E+10	1	-1E+10	1
4902551	108	C	08/11/2023	20:17	-131.171	47.530	0	289.00	0	5.9000	0	33.9180	0	26.713	0	286.387	0	81.7	4	26.9	4	-1E+10	1	-1E+10	1	-1E+10	1	-1E+10	1	-1E+10	1	-1E+10	1
4902551	108	C	08/11/2023	20:17	-131.171	47.530	0	289.90	0	5.8770	0	33.9190	0	26.717	0	287.278	0	81.6	4	26.9	4	-1E+10	1	-1E+10	1	-1E+10	1	-1E+10	1	-1E+10	1	-1E+10	1
4902551	108	C	08/11/2023	20:17	-131.171	47.530	0	290.70	0	5.8570	0	33.9190	0	26.719	0	288.070	0	81.6	4	26.9	4	-1E+10	1	-1E+10	1	-1E+10	1	-1E+10	1	-1E+10	1	-1E+10	1
4902551	108	C	08/11/2023	20:17	-131.171	47.530	0	292.00	0	5.8360	0	33.9180	0	26.721	0	289.358	0	81.5	4	26.8	4	-1E+10	1	-1E+10	1	-1E+10	1	-1E+10	1	-1E+10	1	-1E+10	1
4902551	108	C	08/11/2023	20:17	-131.171	47.530	0	293.30	0	5.8120	0	33.9140	0	26.721	0	290.645	0	81.2	4	26.7	4	-1E+10	1	-1E+10	1	-1E+10	1	-1E+10	1	-1E+10	1	-1E+10	1
4902551	108	C	08/11/2023	20:17	-131.171	47.530	0	294.10	0	5.8080	0	33.9140	0	26.722	0	291.437	0	81.0	4	26.7	4	-1E+10	1	-1E+10	1	-1E+10	1	-1E+10	1	-1E+10	1	-1E+10	1
4902551	108	C	08/11/2023	20:17	-131.171	47.530	0	295.00	0	5.8010	0	33.9160	0	26.724	0	292.328	0	80.8	4	26.6	4	-1E+10	1	-1E+10	1	-1E+10	1	-1E+10	1	-1E+10	1	-1E+10	1
4902551	108	C	08/11/2023	20:17	-131.171	47.530	0	295.80	0	5.7660	0	33.9170	0	26.729	0	293.121	0	80.6	4	26.5	4	-1E+10	1	-1E+10	1	-1E+10	1	-1E+10	1	-1E+10	1	-1E+10	1
4902551	108	C	08/11/2023	20:17	-131.171	47.530	0	296.60	0	5.7520	0	33.9160	0	26.730	0	293.913	0	80.4	4	26.4	4	-1E+10	1	-1E+10	1	-1E+10	1	-1E+10	1	-1E+10	1	-1E+10	1
4902551	108	C	08/11/2023	20:17	-131.171	47.530	0	297.90	0	5.7440	0	33.9180	0	26.733	0	295.200	0	80.1	4	26.3	4	-1E+10	1	-1E+10	1	-1E+10	1	-1E+10	1	-1E+10	1	-1E+10	1
4902551	108	C	08/11/2023	20:17	-131.171	47.530	0	299.20	0	5.7170	0	33.9170	0	26.735	0	296.487	0	80.0	4	26.3	4	-1E+10	1	-1E+10	1	-1E+10	1	-1E+10	1	-1E+10	1	-1E+10	1
4902551	108	C	08/11/2023	20:17	-131.171	47.530	0	300.00	0	5.7070	0	33.9170	0	26.736	0	297.280	0	79.9	4	26.2	4	-1E+10	1	-1E+10	1	-1E+10	1	-1E+10	1	-1E+10	1	-1E+10	1
4902551	108	C	08/11/2023	20:17	-131.171	47.530	0	300.90	0	5.7030	0	33.9200	0	26.739	0	298.171	0	80.0	4	26.2	4	-1E+10	1	-1E+10	1	-1E+10	1	-1E+10	1	-1E+10	1	-1E+10	1
4902551	108	C	08/11/2023	20:17	-131.171	47.530	0	301.70	0	5.7160	0	33.9140	0	26.733	0	298.963	0	80.0	4	26.3	4	-1E+10	1	-1E+10	1	-1E+10	1	-1E+10	1	-1E+10	1	-1E+10	1
4902551	108	C	08/11/2023	20:17	-131.171	47.530	0	303.00	0	5.7170	0	33.9230	0	26.740	0	300.250	0	80.2	4	26.3	4	-1E+10	1	-1E+10	1	-1E+10	1	-1E+10	1	-1E+10	1	-1E+10	1
4902551	108	C	08/11/2023	20:17	-131.171	47.530	0	304.30	0	5.6830	0	33.9230	0	26.744	0	301.537	0	80.4	4	26.4	4	-1E+10	1	-1E+10	1	-1E+10	1	-1E+10	1	-1E+10	1	-1E+10	1
4902551	108	C	08/11/2023	20:17	-131.171	47.530	0	305.10	0	5.6670	0	33.9170	0	26.741	0	302.330	0	80.5	4	26.4	4	-1E+10	1	-1E+10	1	-1E+10	1	-1E+10	1	-1E+10	1	-1E+10	1
4902551	108	C	08/11/2023	20:17	-131.171	47.530	0	306.00	0	5.6440	0	33.9160	0	26.743	0	303.221	0	80.5	4	26.4	4	-1E+10	1	-1E+10	1	-1E+10	1	-1E+10	1	-1E+10	1	-1E+10	1
4902551	108	C	08/11/2023	20:17	-131.171	47.530	0	306.90	0	5.6190	0	33.9150	0	26.745	0	304.112	0	80.5	4	26.4	4	-1E+10	1	-1E+10	1	-1E+10	1	-1E+10	1	-1E+10	1	-1E+10	1
4902551	108	C	08/11/2023	20:17	-131.171	47.530	0	307.70	0	5.6020	0	33.9140	0	26.747	0	304.904	0	80.4	4	26.3	4	-1E+10	1	-1E+10	1	-1E+10	1	-1E+10	1	-1E+10	1	-1E+10	1
4902551	108	C	08/11/2023	20:17	-131.171	47.530	0	308.60	0	5.5870	0	33.9120	0	26.747	0	305.795	0	80.3	4	26.3	4	-1E+10	1	-1E+10	1	-1E+10	1	-1E+10	1	-1E+10	1	-1E+10	1
4902551	108	C	08/11/2023	20:17	-131.171	47.530	0	309.90	0	5.5840	0	33.9120	0	26.747	0	307.082	0	80.1	4	26.2	4	-1E+10	1	-1E+10	1	-1E+10	1	-1E+10	1	-1E+10	1	-1E+10	1
4902551	108	C	08/11/2023	20:17	-131.171	47.530	0	311.30	0	5.5820	0	33.9120	0	26.748	0	308.469	0	79.9	4	26.1	4	-1E+10	1	-1E+10	1	-1E+10	1	-1E+10	1	-1E+10	1	-1E+10	1
4902551	108	C	08/11/2023	20:17	-131.171	47.530	0	312.20	0	5.5830	0	33.9110	0	26.747	0	309.360	0	79.7	4	26.1	4	-1E+10	1	-1E+10	1	-1E+10	1	-1E+10	1	-1E+10	1	-1E+10	1
4902551	108	C	08/11/2023	20:17	-131.171	47.530	0	313.10	0	5.5780	0	33.9120	0	26.748	0	310.251	0	79.6	4	26.0	4	-1E+10	1	-1E+10	1	-1E+10	1	-1E+10	1	-1E+10	1	-1E+10	1
4902551	108	C	08/11/2023	20:17	-131.171	47.530	0	314.00	0	5.5700	0	33.9120	0	26.749	0	311.142	0	79.3	4	26.0	4	-1E+10	1	-1E+10	1	-1E+10	1	-1E+10	1	-1E+10	1	-1E+10	1
4902551	108	C	08/11/2023	20:17	-131.171	47.530	0	314.90	0	5.5530	0	33.9140	0	26.753	0	312.033	0	79.1	4	25.9	4	-1E+10	1	-1E+10	1	-1E+10	1	-1E+10	1	-1E+10	1	-1E+10	1
4902551	108	C	08/11/2023	20:17	-131.171	47.530	0	315.80	0	5.5380	0	33.9130	0	26.754	0	312.924	0	79.0	4	25.8	4	-1E+10	1	-1E+10	1	-1E+10	1	-1E+10	1	-1E+10	1	-1E+10	1
4902551	108	C	08/11/2023	20:17	-131.171	47.530	0	316.70	0	5.5320	0	33.9120	0	26.754	0	313.815	0	78.8	4	25.7	4	-1E+10	1	-1E+10	1	-1E+10	1	-1E+10	1	-1E+10	1	-1E+10	1
4902551	108	C	08/11/2023	20:17	-131.171	47.530	0	317.60	0	5.5290	0	33.9120	0	26.754	0	314.707	0	78.6	4	25.7	4	-1E+10	1	-1E+10	1	-1E+10	1	-1E+10	1	-1E+10	1	-1E+10	1
4902551	108	C	08/11/2023	20:17	-131.171	47.530	0	318.50	0	5.5290	0	33.9130	0	26.755	0	315.598	0	78.4	4	25.6	4	-1E+10	1	-1E+10	1	-1E+10	1	-1E+10	1	-1E+10	1	-1E+10	1
4902551	108	C	08/11/2023	20:17	-131.171	47.530	0	319.90	0	5.5190	0	33.9130	0	26.756	0	316.984	0	78.1	4	25.5	4	-1E+10	1	-1E+10	1	-1E+10	1	-1E+10	1	-1E+10	1	-1E+10	1
4902551	108	C	08/11/2023	20:17	-131.171	47.530	0	321.30	0	5.5080	0	33.9140	0	26.758	0	318.370	0	77.7	4	25.4	4	-1E+10	1	-1E+10	1	-1E+10	1	-1E+10	1	-1E+10	1	-1E+10	1
4902551	108	C	08/11/2023	20:17	-131.171	47.530	0	322.30	0	5.5030	0	33.9130	0	26.758	0	319.360	0	77.4	4	25.3	4	-1E+10	1	-1E+10	1	-1E+10	1	-1E+10	1	-1E+10	1	-1E+10	1
4902551	108	C	08/11/2023	20:17	-131.171	47.530	0	323.20	0	5.4940	0	33.9150	0	26.761	0	320.251	0	77.2	4	25.2	4	-1E+10	1	-1E+10	1	-1E+10	1	-1E+10	1	-1E+10	1	-1E+10	1
4902551	108	C	08/11/2023	20:17	-131.171	47.530	0	324.10	0	5.4890	0	33.9150	0	26.761	0	321.142	0	77.0	4	25.1	4	-1E+10	1	-1E+10	1	-1E+10	1	-1E+10	1	-1E+10	1	-1E+10	1
4902551	108	C	08/11/2023	20:17	-131.171	47.530	0	325.10	0	5.5010	0	33.9170	0	26.761	0	322.132	0	76.7	4	25.1	4	-1E+10	1	-1E+10	1	-1E+10	1	-1E+10	1	-1E+10	1	-1E+10	1
4902551	108	C	08/11/2023	20:17	-131.171	47.530	0	326.00	0	5.4880	0	33.9180	0	26.764	0	323.024	0	76.5	4	25.0	4	-1E+10	1	-1E+10	1	-1E+10	1	-1E+10	1	-1E+10	1	-1E+10	1
4902551	108	C	08/11/2023	20:17	-131.171	47.530	0	327.00	0	5.4840	0	33.9190	0	26.765	0	324.014	0	76.3	4	24.9	4	-1E+10	1	-1E+10	1	-1E+10	1	-1E+10	1	-1E+10	1	-1E+10	1
4902551	108	C	08/11/2023	20:17	-131.171	47.530	0	327.90	0	5.4820	0	33.9170	0	26.764	0	324.905	0	76.1	4	24.9	4	-1E+10	1	-1E+10	1	-1E+10	1	-1E+10	1	-1E+10	1	-1E+10	1
4902551	108	C	08/11/2023	20:17	-131.171	47.530	0	328.90	0	5.4810	0	33.9170	0	26.764	0	325.895	0	75.9	4	24.8	4	-1E+10	1	-1E+10	1	-1E+10	1	-1E+10	1	-1E+10	1	-1E+10	1
4902551	108	C	08/11/2023	20:17	-131.171	47.530	0	329.80	0	5.4800	0	33.9170	0	26.764	0	326.786	0	75.6	4	24.7	4	-1E+10	1	-1E+10	1	-1E+10	1	-1E+10	1	-1E+10	1	-1E+10	1
4902551	108	C	08/11/2023	20:17	-131.171	47.530	0	330.80	0	5.4790	0	33.9170	0	26.764	0	327.776	0	75.3	4	24.6	4	-1E+10	1	-1E+10	1	-1E+10	1	-1E+10	1	-1E+10	1	-1E+10	1
4902551	108	C	08/11/2023	20:17	-131.171	47.530	0	331.70	0	5.4770	0	33.9190	0	26.766	0	328.667	0	75.1	4	24.5	4	-1E+10	1	-1E+10	1	-1E+10	1	-1E+10	1	-1E+10	1	-1E+10	1
4902551	108	C	08/11/2023	20:17	-131.171	47.530	0	332.70	0	5.4690	0	33.9190	0	26.767	0	329.657	0	74.9	4	24.4	4	-1E+10	1	-1E+10	1	-1E+10	1	-1E+10	1	-1E+10	1	-1E+10	1
4902551	108	C	08/11/2023	20:17	-131.171	47.530	0	333.70	0	5.4620	0	33.9190	0	26.768	0	330.647	0	74.6	4	24.3	4	-1E+10	1	-1E+10	1	-1E+10	1	-1E+10	1	-1E+10	1	-1E+10	1
4902551	108	C	08/11/2023	20:17	-131.171	47.530	0	334.60	0	5.4490	0	33.9190	0	26.769	0	331.538	0	74.4	4	24.3	4	-1E+10	1	-1E+10	1	-1E+10	1	-1E+10	1	-1E+10	1	-1E+10	1
4902551	108	C	08/11/2023	20:17	-131.171	47.530	0	335.60	0	5.4350	0	33.9180	0	26.770	0	332.528	0	74.1	4	24.1	4	-1E+10	1	-1E+10	1	-1E+10	1	-1E+10	1	-1E+10	1	-1E+10	1
4902551	108	C	08/11/2023	20:17	-131.171	47.530	0	336.60	0	5.4100	0	33.9180	0	26.773	0	333.518	0	73.7	4	24.0	4	-1E+10	1	-1E+10	1	-1E+10	1	-1E+10	1	-1E+10	1	-1E+10	1
4902551	108	C	08/11/2023	20:17	-131.171	47.530	0	337.60	0	5.4000	0	33.9160	0	26.773	0	334.508	0	73.2	4	23.8	4	-1E+10	1	-1E+10	1	-1E+10	1	-1E+10	1	-1E+10	1	-1E+10	1
4902551	108	C	08/11/2023	20:17	-131.171	47.530	0	338.50	0	5.4000	0	33.9160	0	26.773	0	335.399	0	72.7	4	23.7	4	-1E+10	1	-1E+10	1	-1E+10	1	-1E+10	1	-1E+10	1	-1E+10	1
4902551	108	C	08/11/2023	20:17	-131.171	47.530	0	339.50	0	5.4080	0	33.9220	0	26.777	0	336.389	0	72.2	4	23.5	4	-1E+10	1	-1E+10	1	-1E+10	1	-1E+10	1	-1E+10	1	-1E+10	1
4902551	108	C	08/11/2023	20:17	-131.171	47.530	0	340.50	0	5.3930	0	33.9210	0	26.778	0	337.379	0	71.7	4	23.4	4	-1E+10	1	-1E+10	1	-1E+10	1	-1E+10	1	-1E+10	1	-1E+10	1
4902551	108	C	08/11/2023	20:17	-131.171	47.530	0	341.50	0	5.3810	0	33.9220	0	26.780	0	338.369	0	71.3	4	23.2	4	-1E+10	1	-1E+10	1	-1E+10	1	-1E+10	1	-1E+10	1	-1E+10	1
4902551	108	C	08/11/2023	20:17	-131.171	47.530	0	342.90	0	5.3750	0	33.9210	0	26.780	0	339.755	0	70.6	4	23.0	4	-1E+10	1	-1E+10	1	-1E+10	1	-1E+10	1	-1E+10	1	-1E+10	1
4902551	108	C	08/11/2023	20:17	-131.171	47.530	0	344.40	0	5.3740	0	33.9240	0	26.782	0	341.240	0	69.8	4	22.7	4	-1E+10	1	-1E+10	1	-1E+10	1	-1E+10	1	-1E+10	1	-1E+10	1
4902551	108	C	08/11/2023	20:17	-131.171	47.530	0	345.40	0	5.3640	0	33.9260	0	26.785	0	342.230	0	69.4	4	22.6	4	-1E+10	1	-1E+10	1	-1E+10	1	-1E+10	1	-1E+10	1	-1E+10	1
4902551	108	C	08/11/2023	20:17	-131.171	47.530	0	346.40	0	5.3600	0	33.9280	0	26.787	0	343.220	0	68.9	4	22.4	4	-1E+10	1	-1E+10	1	-1E+10	1	-1E+10	1	-1E+10	1	-1E+10	1
4902551	108	C	08/11/2023	20:17	-131.171	47.530	0	347.30	0	5.3570	0	33.9300	0	26.789	0	344.111	0	68.5	4	22.3	4	-1E+10	1	-1E+10	1	-1E+10	1	-1E+10	1	-1E+10	1	-1E+10	1
4902551	108	C	08/11/2023	20:17	-131.171	47.530	0	348.30	0	5.3550	0	33.9310	0	26.790	0	345.101	0	68.1	4	22.2	4	-1E+10	1	-1E+10	1	-1E+10	1	-1E+10	1	-1E+10	1	-1E+10	1
4902551	108	C	08/11/2023	20:17	-131.171	47.530	0	349.30	0	5.3470	0	33.9320	0	26.792	0	346.091	0	67.7	4	22.0	4	-1E+10	1	-1E+10	1	-1E+10	1	-1E+10	1	-1E+10	1	-1E+10	1
4902551	108	C	08/11/2023	20:17	-131.171	47.530	0	350.30	0	5.3470	0	33.9320	0	26.792	0	347.081	0	67.2	4	21.9	4	-1E+10	1	-1E+10	1	-1E+10	1	-1E+10	1	-1E+10	1	-1E+10	1
4902551	108	C	08/11/2023	20:17	-131.171	47.530	0	353.20	0	5.3450	0	33.9360	0	26.795	0	349.952	0	65.9	4	21.4	4	-1E+10	1	-1E+10	1	-1E+10	1	-1E+10	1	-1E+10	1	-1E+10	1
4902551	108	C	08/11/2023	20:17	-131.171	47.530	0	357.90	0	5.3530	0	33.9430	0	26.800	0	354.605	0	63.5	4	20.7	4	-1E+10	1	-1E+10	1	-1E+10	1	-1E+10	1	-1E+10	1	-1E+10	1
4902551	108	C	08/11/2023	20:17	-131.171	47.530	0	362.70	0	5.3330	0	33.9510	0	26.809	0	359.357	0	61.2	4	19.9	4	-1E+10	1	-1E+10	1	-1E+10	1	-1E+10	1	-1E+10	1	-1E+10	1
4902551	108	C	08/11/2023	20:17	-131.171	47.530	0	367.80	0	5.3150	0	33.9590	0	26.817	0	364.405	0	58.9	4	19.2	4	-1E+10	1	-1E+10	1	-1E+10	1	-1E+10	1	-1E+10	1	-1E+10	1
4902551	108	C	08/11/2023	20:17	-131.171	47.530	0	372.90	0	5.3030	0	33.9670	0	26.825	0	369.454	0	57.2	4	18.6	4	-1E+10	1	-1E+10	1	-1E+10	1	-1E+10	1	-1E+10	1	-1E+10	1
4902551	108	C	08/11/2023	20:17	-131.171	47.530	0	378.00	0	5.2580	0	33.9720	0	26.834	0	374.502	0	55.8	4	18.1	4	-1E+10	1	-1E+10	1	-1E+10	1	-1E+10	1	-1E+10	1	-1E+10	1
4902551	108	C	08/11/2023	20:17	-131.171	47.530	0	383.10	0	5.2100	0	33.9770	0	26.844	0	379.550	0	54.7	4	17.8	4	-1E+10	1	-1E+10	1	-1E+10	1	-1E+10	1	-1E+10	1	-1E+10	1
4902551	108	C	08/11/2023	20:17	-131.171	47.530	0	388.10	0	5.1600	0	33.9780	0	26.850	0	384.499	0	53.8	4	17.4	4	-1E+10	1	-1E+10	1	-1E+10	1	-1E+10	1	-1E+10	1	-1E+10	1
4902551	108	C	08/11/2023	20:17	-131.171	47.530	0	393.00	0	5.1220	0	33.9810	0	26.857	0	389.349	0	52.8	4	17.1	4	-1E+10	1	-1E+10	1	-1E+10	1	-1E+10	1	-1E+10	1	-1E+10	1
4902551	108	C	08/11/2023	20:17	-131.171	47.530	0	397.90	0	5.0970	0	33.9820	0	26.861	0	394.199	0	51.3	4	16.6	4	-1E+10	1	-1E+10	1	-1E+10	1	-1E+10	1	-1E+10	1	-1E+10	1
4902551	108	C	08/11/2023	20:17	-131.171	47.530	0	402.80	0	5.0910	0	33.9900	0	26.868	0	399.048	0	49.6	4	16.1	4	-1E+10	1	-1E+10	1	-1E+10	1	-1E+10	1	-1E+10	1	-1E+10	1
4902551	108	C	08/11/2023	20:17	-131.171	47.530	0	407.70	0	5.0470	0	33.9980	0	26.879	0	403.898	0	49.0	4	15.8	4	-1E+10	1	-1E+10	1	-1E+10	1	-1E+10	1	-1E+10	1	-1E+10	1
4902551	108	C	08/11/2023	20:17	-131.171	47.530	0	413.10	0	4.9550	0	33.9950	0	26.887	0	409.242	0	49.0	4	15.8	4	-1E+10	1	-1E+10	1	-1E+10	1	-1E+10	1	-1E+10	1	-1E+10	1
4902551	108	C	08/11/2023	20:17	-131.171	47.530	0	418.20	0	4.8660	0	33.9920	0	26.895	0	414.290	0	48.2	4	15.5	4	-1E+10	1	-1E+10	1	-1E+10	1	-1E+10	1	-1E+10	1	-1E+10	1
4902551	108	C	08/11/2023	20:17	-131.171	47.530	0	422.80	0	4.8100	0	33.9920	0	26.901	0	418.842	0	46.6	4	15.0	4	-1E+10	1	-1E+10	1	-1E+10	1	-1E+10	1	-1E+10	1	-1E+10	1
4902551	108	C	08/11/2023	20:17	-131.171	47.530	0	427.60	0	4.8560	0	34.0030	0	26.905	0	423.592	0	45.1	4	14.5	4	-1E+10	1	-1E+10	1	-1E+10	1	-1E+10	1	-1E+10	1	-1E+10	1
4902551	108	C	08/11/2023	20:17	-131.171	47.530	0	432.90	0	4.8180	0	34.0120	0	26.916	0	428.837	0	44.5	4	14.3	4	-1E+10	1	-1E+10	1	-1E+10	1	-1E+10	1	-1E+10	1	-1E+10	1
4902551	108	C	08/11/2023	20:17	-131.171	47.530	0	438.30	0	4.7800	0	34.0120	0	26.921	0	434.181	0	43.8	4	14.1	4	-1E+10	1	-1E+10	1	-1E+10	1	-1E+10	1	-1E+10	1	-1E+10	1
4902551	108	C	08/11/2023	20:17	-131.171	47.530	0	443.30	0	4.7350	0	34.0150	0	26.928	0	439.128	0	43.4	4	13.9	4	-1E+10	1	-1E+10	1	-1E+10	1	-1E+10	1	-1E+10	1	-1E+10	1
4902551	108	C	08/11/2023	20:17	-131.171	47.530	0	448.40	0	4.7060	0	34.0160	0	26.932	0	444.175	0	43.1	4	13.8	4	-1E+10	1	-1E+10	1	-1E+10	1	-1E+10	1	-1E+10	1	-1E+10	1
4902551	108	C	08/11/2023	20:17	-131.171	47.530	0	452.90	0	4.6660	0	34.0150	0	26.936	0	448.628	0	42.9	4	13.8	4	-1E+10	1	-1E+10	1	-1E+10	1	-1E+10	1	-1E+10	1	-1E+10	1
4902551	108	C	08/11/2023	20:17	-131.171	47.530	0	457.60	0	4.6270	0	34.0150	0	26.940	0	453.278	0	42.5	4	13.6	4	-1E+10	1	-1E+10	1	-1E+10	1	-1E+10	1	-1E+10	1	-1E+10	1
4902551	108	C	08/11/2023	20:17	-131.171	47.530	0	462.80	0	4.5770	0	34.0150	0	26.945	0	458.423	0	42.1	4	13.4	4	-1E+10	1	-1E+10	1	-1E+10	1	-1E+10	1	-1E+10	1	-1E+10	1
4902551	108	C	08/11/2023	20:17	-131.171	47.530	0	467.90	0	4.5350	0	34.0160	0	26.951	0	463.469	0	41.2	4	13.1	4	-1E+10	1	-1E+10	1	-1E+10	1	-1E+10	1	-1E+10	1	-1E+10	1
4902551	108	C	08/11/2023	20:17	-131.171	47.530	0	473.20	0	4.5070	0	34.0200	0	26.957	0	468.713	0	39.9	4	12.7	4	-1E+10	1	-1E+10	1	-1E+10	1	-1E+10	1	-1E+10	1	-1E+10	1
4902551	108	C	08/11/2023	20:17	-131.171	47.530	0	478.10	0	4.4980	0	34.0260	0	26.963	0	473.561	0	38.5	4	12.3	4	-1E+10	1	-1E+10	1	-1E+10	1	-1E+10	1	-1E+10	1	-1E+10	1
4902551	108	C	08/11/2023	20:17	-131.171	47.530	0	482.80	0	4.5050	0	34.0330	0	26.968	0	478.211	0	37.2	4	11.9	4	-1E+10	1	-1E+10	1	-1E+10	1	-1E+10	1	-1E+10	1	-1E+10	1
4902551	108	C	08/11/2023	20:17	-131.171	47.530	0	487.60	0	4.4970	0	34.0360	0	26.971	0	482.960	0	35.8	4	11.4	4	-1E+10	1	-1E+10	1	-1E+10	1	-1E+10	1	-1E+10	1	-1E+10	1
4902551	108	C	08/11/2023	20:17	-131.171	47.530	0	492.80	0	4.5160	0	34.0480	0	26.979	0	488.104	0	33.8	4	10.8	4	-1E+10	1	-1E+10	1	-1E+10	1	-1E+10	1	-1E+10	1	-1E+10	1
4902551	108	C	08/11/2023	20:17	-131.171	47.530	0	498.10	0	4.5460	0	34.0600	0	26.985	0	493.348	0	32.4	4	10.3	4	-1E+10	1	-1E+10	1	-1E+10	1	-1E+10	1	-1E+10	1	-1E+10	1
4902551	108	C	08/11/2023	20:17	-131.171	47.530	0	503.00	0	4.5470	0	34.0660	0	26.990	0	498.195	0	31.5	4	10.1	4	-1E+10	1	-1E+10	1	-1E+10	1	-1E+10	1	-1E+10	1	-1E+10	1
4902551	108	C	08/11/2023	20:17	-131.171	47.530	0	507.90	0	4.5440	0	34.0700	0	26.993	0	503.042	0	30.7	4	9.8	4	-1E+10	1	-1E+10	1	-1E+10	1	-1E+10	1	-1E+10	1	-1E+10	1
4902551	108	C	08/11/2023	20:17	-131.171	47.530	0	512.90	0	4.5450	0	34.0740	0	26.996	0	507.988	0	29.8	4	9.5	4	-1E+10	1	-1E+10	1	-1E+10	1	-1E+10	1	-1E+10	1	-1E+10	1
4902551	108	C	08/11/2023	20:17	-131.171	47.530	0	517.90	0	4.5390	0	34.0780	0	27.000	0	512.934	0	28.9	4	9.3	4	-1E+10	1	-1E+10	1	-1E+10	1	-1E+10	1	-1E+10	1	-1E+10	1
4902551	108	C	08/11/2023	20:17	-131.171	47.530	0	522.90	0	4.5260	0	34.0850	0	27.007	0	517.880	0	28.2	4	9.0	4	-1E+10	1	-1E+10	1	-1E+10	1	-1E+10	1	-1E+10	1	-1E+10	1
4902551	108	C	08/11/2023	20:17	-131.171	47.530	0	527.80	0	4.5180	0	34.0880	0	27.010	0	522.727	0	27.8	4	8.9	4	-1E+10	1	-1E+10	1	-1E+10	1	-1E+10	1	-1E+10	1	-1E+10	1
4902551	108	C	08/11/2023	20:17	-131.171	47.530	0	532.80	0	4.5160	0	34.0910	0	27.013	0	527.673	0	27.3	4	8.7	4	-1E+10	1	-1E+10	1	-1E+10	1	-1E+10	1	-1E+10	1	-1E+10	1
4902551	108	C	08/11/2023	20:17	-131.171	47.530	0	537.60	0	4.5110	0	34.0930	0	27.015	0	532.420	0	26.8	4	8.6	4	-1E+10	1	-1E+10	1	-1E+10	1	-1E+10	1	-1E+10	1	-1E+10	1
4902551	108	C	08/11/2023	20:17	-131.171	47.530	0	542.90	0	4.5010	0	34.0970	0	27.020	0	537.662	0	26.3	4	8.4	4	-1E+10	1	-1E+10	1	-1E+10	1	-1E+10	1	-1E+10	1	-1E+10	1
4902551	108	C	08/11/2023	20:17	-131.171	47.530	0	548.10	0	4.4870	0	34.1000	0	27.023	0	542.805	0	26.1	4	8.3	4	-1E+10	1	-1E+10	1	-1E+10	1	-1E+10	1	-1E+10	1	-1E+10	1
4902551	108	C	08/11/2023	20:17	-131.171	47.530	0	552.80	0	4.4730	0	34.1020	0	27.027	0	547.454	0	25.9	4	8.3	4	-1E+10	1	-1E+10	1	-1E+10	1	-1E+10	1	-1E+10	1	-1E+10	1
4902551	108	C	08/11/2023	20:17	-131.171	47.530	0	557.60	0	4.4460	0	34.1020	0	27.030	0	552.201	0	25.6	4	8.2	4	-1E+10	1	-1E+10	1	-1E+10	1	-1E+10	1	-1E+10	1	-1E+10	1
4902551	108	C	08/11/2023	20:17	-131.171	47.530	0	562.80	0	4.4340	0	34.1040	0	27.032	0	557.344	0	24.9	4	7.9	4	-1E+10	1	-1E+10	1	-1E+10	1	-1E+10	1	-1E+10	1	-1E+10	1
4902551	108	C	08/11/2023	20:17	-131.171	47.530	0	568.00	0	4.4290	0	34.1090	0	27.037	0	562.486	0	24.4	4	7.8	4	-1E+10	1	-1E+10	1	-1E+10	1	-1E+10	1	-1E+10	1	-1E+10	1
4902551	108	C	08/11/2023	20:17	-131.171	47.530	0	573.10	0	4.4090	0	34.1120	0	27.042	0	567.530	0	23.9	4	7.6	4	-1E+10	1	-1E+10	1	-1E+10	1	-1E+10	1	-1E+10	1	-1E+10	1
4902551	108	C	08/11/2023	20:17	-131.171	47.530	0	577.90	0	4.3720	0	34.1160	0	27.049	0	572.277	0	23.6	4	7.5	4	-1E+10	1	-1E+10	1	-1E+10	1	-1E+10	1	-1E+10	1	-1E+10	1
4902551	108	C	08/11/2023	20:17	-131.171	47.530	0	582.70	0	4.3330	0	34.1180	0	27.054	0	577.023	0	22.9	4	7.3	4	-1E+10	1	-1E+10	1	-1E+10	1	-1E+10	1	-1E+10	1	-1E+10	1
4902551	108	C	08/11/2023	20:17	-131.171	47.530	0	588.10	0	4.3180	0	34.1230	0	27.060	0	582.363	0	22.0	4	7.0	4	-1E+10	1	-1E+10	1	-1E+10	1	-1E+10	1	-1E+10	1	-1E+10	1
4902551	108	C	08/11/2023	20:17	-131.171	47.530	0	593.10	0	4.2950	0	34.1290	0	27.067	0	587.307	0	20.8	4	6.6	4	-1E+10	1	-1E+10	1	-1E+10	1	-1E+10	1	-1E+10	1	-1E+10	1
4902551	108	C	08/11/2023	20:17	-131.171	47.530	0	597.70	0	4.2800	0	34.1400	0	27.078	0	591.856	0	20.0	4	6.3	4	-1E+10	1	-1E+10	1	-1E+10	1	-1E+10	1	-1E+10	1	-1E+10	1
4902551	108	C	08/11/2023	20:17	-131.171	47.530	0	602.80	0	4.2800	0	34.1450	0	27.082	0	596.898	0	19.2	4	6.1	4	-1E+10	1	-1E+10	1	-1E+10	1	-1E+10	1	-1E+10	1	-1E+10	1
4902551	108	C	08/11/2023	20:17	-131.171	47.530	0	607.90	0	4.2680	0	34.1500	0	27.087	0	601.941	0	18.5	4	5.9	4	-1E+10	1	-1E+10	1	-1E+10	1	-1E+10	1	-1E+10	1	-1E+10	1
4902551	108	C	08/11/2023	20:17	-131.171	47.530	0	612.50	0	4.2610	0	34.1580	0	27.094	0	606.489	0	17.8	4	5.7	4	-1E+10	1	-1E+10	1	-1E+10	1	-1E+10	1	-1E+10	1	-1E+10	1
4902551	108	C	08/11/2023	20:17	-131.171	47.530	0	617.80	0	4.2500	0	34.1650	0	27.101	0	611.730	0	17.4	4	5.5	4	-1E+10	1	-1E+10	1	-1E+10	1	-1E+10	1	-1E+10	1	-1E+10	1
4902551	108	C	08/11/2023	20:17	-131.171	47.530	0	623.20	0	4.2510	0	34.1690	0	27.104	0	617.069	0	17.0	4	5.4	4	-1E+10	1	-1E+10	1	-1E+10	1	-1E+10	1	-1E+10	1	-1E+10	1
4902551	108	C	08/11/2023	20:17	-131.171	47.530	0	628.20	0	4.2310	0	34.1730	0	27.109	0	622.012	0	16.8	4	5.3	4	-1E+10	1	-1E+10	1	-1E+10	1	-1E+10	1	-1E+10	1	-1E+10	1
4902551	108	C	08/11/2023	20:17	-131.171	47.530	0	633.10	0	4.2180	0	34.1760	0	27.113	0	626.856	0	16.7	4	5.3	4	-1E+10	1	-1E+10	1	-1E+10	1	-1E+10	1	-1E+10	1	-1E+10	1
4902551	108	C	08/11/2023	20:17	-131.171	47.530	0	638.10	0	4.2010	0	34.1780	0	27.116	0	631.799	0	16.7	4	5.3	4	-1E+10	1	-1E+10	1	-1E+10	1	-1E+10	1	-1E+10	1	-1E+10	1
4902551	108	C	08/11/2023	20:17	-131.171	47.530	0	643.10	0	4.1690	0	34.1820	0	27.123	0	636.742	0	16.8	4	5.3	4	-1E+10	1	-1E+10	1	-1E+10	1	-1E+10	1	-1E+10	1	-1E+10	1
4902551	108	C	08/11/2023	20:17	-131.171	47.530	0	647.80	0	4.1240	0	34.1810	0	27.127	0	641.389	0	16.9	4	5.3	4	-1E+10	1	-1E+10	1	-1E+10	1	-1E+10	1	-1E+10	1	-1E+10	1
4902551	108	C	08/11/2023	20:17	-131.171	47.530	0	652.60	0	4.0960	0	34.1830	0	27.131	0	646.134	0	16.9	4	5.3	4	-1E+10	1	-1E+10	1	-1E+10	1	-1E+10	1	-1E+10	1	-1E+10	1
4902551	108	C	08/11/2023	20:17	-131.171	47.530	0	657.50	0	4.0760	0	34.1840	0	27.134	0	650.978	0	16.8	4	5.3	4	-1E+10	1	-1E+10	1	-1E+10	1	-1E+10	1	-1E+10	1	-1E+10	1
4902551	108	C	08/11/2023	20:17	-131.171	47.530	0	662.60	0	4.0570	0	34.1870	0	27.139	0	656.019	0	16.9	4	5.3	4	-1E+10	1	-1E+10	1	-1E+10	1	-1E+10	1	-1E+10	1	-1E+10	1
4902551	108	C	08/11/2023	20:17	-131.171	47.530	0	667.70	0	4.0340	0	34.1880	0	27.142	0	661.060	0	16.9	4	5.3	4	-1E+10	1	-1E+10	1	-1E+10	1	-1E+10	1	-1E+10	1	-1E+10	1
4902551	108	C	08/11/2023	20:17	-131.171	47.530	0	672.80	0	4.0120	0	34.1890	0	27.145	0	666.101	0	16.8	4	5.3	4	-1E+10	1	-1E+10	1	-1E+10	1	-1E+10	1	-1E+10	1	-1E+10	1
4902551	108	C	08/11/2023	20:17	-131.171	47.530	0	677.90	0	3.9890	0	34.1910	0	27.149	0	671.142	0	16.7	4	5.3	4	-1E+10	1	-1E+10	1	-1E+10	1	-1E+10	1	-1E+10	1	-1E+10	1
4902551	108	C	08/11/2023	20:17	-131.171	47.530	0	683.10	0	3.9760	0	34.1970	0	27.155	0	676.282	0	16.7	4	5.3	4	-1E+10	1	-1E+10	1	-1E+10	1	-1E+10	1	-1E+10	1	-1E+10	1
4902551	108	C	08/11/2023	20:17	-131.171	47.530	0	688.20	0	3.9510	0	34.1990	0	27.159	0	681.323	0	17.2	4	5.4	4	-1E+10	1	-1E+10	1	-1E+10	1	-1E+10	1	-1E+10	1	-1E+10	1
4902551	108	C	08/11/2023	20:17	-131.171	47.530	0	693.00	0	3.9090	0	34.1980	0	27.163	0	686.067	0	17.5	4	5.5	4	-1E+10	1	-1E+10	1	-1E+10	1	-1E+10	1	-1E+10	1	-1E+10	1
4902551	108	C	08/11/2023	20:17	-131.171	47.530	0	697.80	0	3.8840	0	34.1970	0	27.164	0	690.811	0	17.8	4	5.6	4	-1E+10	1	-1E+10	1	-1E+10	1	-1E+10	1	-1E+10	1	-1E+10	1
4902551	108	C	08/11/2023	20:17	-131.171	47.530	0	703.10	0	3.8520	0	34.1980	0	27.168	0	696.049	0	17.7	4	5.6	4	-1E+10	1	-1E+10	1	-1E+10	1	-1E+10	1	-1E+10	1	-1E+10	1
4902551	108	C	08/11/2023	20:17	-131.171	47.530	0	707.80	0	3.8480	0	34.2010	0	27.171	0	700.694	0	17.6	4	5.5	4	-1E+10	1	-1E+10	1	-1E+10	1	-1E+10	1	-1E+10	1	-1E+10	1
4902551	108	C	08/11/2023	20:17	-131.171	47.530	0	712.60	0	3.8080	0	34.2030	0	27.177	0	705.438	0	17.4	4	5.5	4	-1E+10	1	-1E+10	1	-1E+10	1	-1E+10	1	-1E+10	1	-1E+10	1
4902551	108	C	08/11/2023	20:17	-131.171	47.530	0	717.70	0	3.7820	0	34.2060	0	27.182	0	710.478	0	17.0	4	5.3	4	-1E+10	1	-1E+10	1	-1E+10	1	-1E+10	1	-1E+10	1	-1E+10	1
4902551	108	C	08/11/2023	20:17	-131.171	47.530	0	723.00	0	3.7700	0	34.2120	0	27.188	0	715.715	0	16.6	4	5.2	4	-1E+10	1	-1E+10	1	-1E+10	1	-1E+10	1	-1E+10	1	-1E+10	1
4902551	108	C	08/11/2023	20:17	-131.171	47.530	0	728.20	0	3.7680	0	34.2150	0	27.190	0	720.854	0	16.3	4	5.1	4	-1E+10	1	-1E+10	1	-1E+10	1	-1E+10	1	-1E+10	1	-1E+10	1
4902551	108	C	08/11/2023	20:17	-131.171	47.530	0	733.10	0	3.7500	0	34.2190	0	27.195	0	725.696	0	16.2	4	5.1	4	-1E+10	1	-1E+10	1	-1E+10	1	-1E+10	1	-1E+10	1	-1E+10	1
4902551	108	C	08/11/2023	20:17	-131.171	47.530	0	737.90	0	3.7420	0	34.2210	0	27.198	0	730.439	0	16.1	4	5.1	4	-1E+10	1	-1E+10	1	-1E+10	1	-1E+10	1	-1E+10	1	-1E+10	1
4902551	108	C	08/11/2023	20:17	-131.171	47.530	0	743.20	0	3.7280	0	34.2220	0	27.200	0	735.676	0	15.9	4	5.0	4	-1E+10	1	-1E+10	1	-1E+10	1	-1E+10	1	-1E+10	1	-1E+10	1
4902551	108	C	08/11/2023	20:17	-131.171	47.530	0	748.10	0	3.7160	0	34.2250	0	27.204	0	740.518	0	15.7	4	4.9	4	-1E+10	1	-1E+10	1	-1E+10	1	-1E+10	1	-1E+10	1	-1E+10	1
4902551	108	C	08/11/2023	20:17	-131.171	47.530	0	753.00	0	3.7000	0	34.2290	0	27.209	0	745.360	0	15.6	4	4.9	4	-1E+10	1	-1E+10	1	-1E+10	1	-1E+10	1	-1E+10	1	-1E+10	1
4902551	108	C	08/11/2023	20:17	-131.171	47.530	0	758.00	0	3.6940	0	34.2300	0	27.210	0	750.300	0	15.4	4	4.8	4	-1E+10	1	-1E+10	1	-1E+10	1	-1E+10	1	-1E+10	1	-1E+10	1
4902551	108	C	08/11/2023	20:17	-131.171	47.530	0	762.90	0	3.6850	0	34.2330	0	27.213	0	755.141	0	15.2	4	4.8	4	-1E+10	1	-1E+10	1	-1E+10	1	-1E+10	1	-1E+10	1	-1E+10	1
4902551	108	C	08/11/2023	20:17	-131.171	47.530	0	768.00	0	3.6810	0	34.2340	0	27.214	0	760.180	0	15.0	4	4.7	4	-1E+10	1	-1E+10	1	-1E+10	1	-1E+10	1	-1E+10	1	-1E+10	1
4902551	108	C	08/11/2023	20:17	-131.171	47.530	0	773.10	0	3.6730	0	34.2370	0	27.218	0	765.219	0	14.8	4	4.6	4	-1E+10	1	-1E+10	1	-1E+10	1	-1E+10	1	-1E+10	1	-1E+10	1
4902551	108	C	08/11/2023	20:17	-131.171	47.530	0	778.20	0	3.6680	0	34.2410	0	27.221	0	770.257	0	14.5	4	4.6	4	-1E+10	1	-1E+10	1	-1E+10	1	-1E+10	1	-1E+10	1	-1E+10	1
4902551	108	C	08/11/2023	20:17	-131.171	47.530	0	783.00	0	3.6600	0	34.2440	0	27.225	0	774.999	0	14.4	4	4.5	4	-1E+10	1	-1E+10	1	-1E+10	1	-1E+10	1	-1E+10	1	-1E+10	1
4902551	108	C	08/11/2023	20:17	-131.171	47.530	0	787.80	0	3.6550	0	34.2460	0	27.227	0	779.741	0	14.2	4	4.5	4	-1E+10	1	-1E+10	1	-1E+10	1	-1E+10	1	-1E+10	1	-1E+10	1
4902551	108	C	08/11/2023	20:17	-131.171	47.530	0	792.70	0	3.6440	0	34.2490	0	27.230	0	784.582	0	14.1	4	4.4	4	-1E+10	1	-1E+10	1	-1E+10	1	-1E+10	1	-1E+10	1	-1E+10	1
4902551	108	C	08/11/2023	20:17	-131.171	47.530	0	797.70	0	3.6290	0	34.2530	0	27.235	0	789.521	0	13.9	4	4.4	4	-1E+10	1	-1E+10	1	-1E+10	1	-1E+10	1	-1E+10	1	-1E+10	1
4902551	108	C	08/11/2023	20:17	-131.171	47.530	0	802.70	0	3.6150	0	34.2560	0	27.239	0	794.461	0	13.8	4	4.3	4	-1E+10	1	-1E+10	1	-1E+10	1	-1E+10	1	-1E+10	1	-1E+10	1
4902551	108	C	08/11/2023	20:17	-131.171	47.530	0	807.80	0	3.6050	0	34.2580	0	27.241	0	799.499	0	13.7	4	4.3	4	-1E+10	1	-1E+10	1	-1E+10	1	-1E+10	1	-1E+10	1	-1E+10	1
4902551	108	C	08/11/2023	20:17	-131.171	47.530	0	813.00	0	3.6000	0	34.2600	0	27.243	0	804.635	0	13.6	4	4.3	4	-1E+10	1	-1E+10	1	-1E+10	1	-1E+10	1	-1E+10	1	-1E+10	1
4902551	108	C	08/11/2023	20:17	-131.171	47.530	0	817.90	0	3.5920	0	34.2620	0	27.246	0	809.475	0	13.5	4	4.2	4	-1E+10	1	-1E+10	1	-1E+10	1	-1E+10	1	-1E+10	1	-1E+10	1
4902551	108	C	08/11/2023	20:17	-131.171	47.530	0	822.70	0	3.5800	0	34.2640	0	27.249	0	814.216	0	13.4	4	4.2	4	-1E+10	1	-1E+10	1	-1E+10	1	-1E+10	1	-1E+10	1	-1E+10	1
4902551	108	C	08/11/2023	20:17	-131.171	47.530	0	827.50	0	3.5710	0	34.2670	0	27.252	0	818.958	0	13.3	4	4.2	4	-1E+10	1	-1E+10	1	-1E+10	1	-1E+10	1	-1E+10	1	-1E+10	1
4902551	108	C	08/11/2023	20:17	-131.171	47.530	0	832.50	0	3.5690	0	34.2680	0	27.253	0	823.896	0	13.2	4	4.1	4	-1E+10	1	-1E+10	1	-1E+10	1	-1E+10	1	-1E+10	1	-1E+10	1
4902551	108	C	08/11/2023	20:17	-131.171	47.530	0	837.90	0	3.5630	0	34.2700	0	27.255	0	829.230	0	13.0	4	4.1	4	-1E+10	1	-1E+10	1	-1E+10	1	-1E+10	1	-1E+10	1	-1E+10	1
4902551	108	C	08/11/2023	20:17	-131.171	47.530	0	842.90	0	3.5570	0	34.2730	0	27.258	0	834.168	0	12.8	4	4.0	4	-1E+10	1	-1E+10	1	-1E+10	1	-1E+10	1	-1E+10	1	-1E+10	1
4902551	108	C	08/11/2023	20:17	-131.171	47.530	0	847.50	0	3.5460	0	34.2770	0	27.262	0	838.711	0	12.6	4	3.9	4	-1E+10	1	-1E+10	1	-1E+10	1	-1E+10	1	-1E+10	1	-1E+10	1
4902551	108	C	08/11/2023	20:17	-131.171	47.530	0	852.60	0	3.5360	0	34.2810	0	27.267	0	843.748	0	12.4	4	3.9	4	-1E+10	1	-1E+10	1	-1E+10	1	-1E+10	1	-1E+10	1	-1E+10	1
4902551	108	C	08/11/2023	20:17	-131.171	47.530	0	857.80	0	3.5270	0	34.2840	0	27.270	0	848.883	0	12.3	4	3.8	4	-1E+10	1	-1E+10	1	-1E+10	1	-1E+10	1	-1E+10	1	-1E+10	1
4902551	108	C	08/11/2023	20:17	-131.171	47.530	0	862.90	0	3.5150	0	34.2880	0	27.274	0	853.920	0	12.1	4	3.8	4	-1E+10	1	-1E+10	1	-1E+10	1	-1E+10	1	-1E+10	1	-1E+10	1
4902551	108	C	08/11/2023	20:17	-131.171	47.530	0	868.10	0	3.5090	0	34.2900	0	27.276	0	859.055	0	12.0	4	3.7	4	-1E+10	1	-1E+10	1	-1E+10	1	-1E+10	1	-1E+10	1	-1E+10	1
4902551	108	C	08/11/2023	20:17	-131.171	47.530	0	872.80	0	3.4990	0	34.2940	0	27.281	0	863.696	0	11.9	4	3.7	4	-1E+10	1	-1E+10	1	-1E+10	1	-1E+10	1	-1E+10	1	-1E+10	1
4902551	108	C	08/11/2023	20:17	-131.171	47.530	0	877.60	0	3.4890	0	34.2970	0	27.284	0	868.436	0	11.8	4	3.7	4	-1E+10	1	-1E+10	1	-1E+10	1	-1E+10	1	-1E+10	1	-1E+10	1
4902551	108	C	08/11/2023	20:17	-131.171	47.530	0	882.80	0	3.4830	0	34.2990	0	27.286	0	873.571	0	11.7	4	3.7	4	-1E+10	1	-1E+10	1	-1E+10	1	-1E+10	1	-1E+10	1	-1E+10	1
4902551	108	C	08/11/2023	20:17	-131.171	47.530	0	888.00	0	3.4770	0	34.3020	0	27.289	0	878.706	0	11.6	4	3.6	4	-1E+10	1	-1E+10	1	-1E+10	1	-1E+10	1	-1E+10	1	-1E+10	1
4902551	108	C	08/11/2023	20:17	-131.171	47.530	0	892.80	0	3.4710	0	34.3040	0	27.291	0	883.446	0	11.5	4	3.6	4	-1E+10	1	-1E+10	1	-1E+10	1	-1E+10	1	-1E+10	1	-1E+10	1
4902551	108	C	08/11/2023	20:17	-131.171	47.530	0	897.70	0	3.4690	0	34.3050	0	27.292	0	888.284	0	11.4	4	3.6	4	-1E+10	1	-1E+10	1	-1E+10	1	-1E+10	1	-1E+10	1	-1E+10	1
4902551	108	C	08/11/2023	20:17	-131.171	47.530	0	903.00	0	3.4600	0	34.3080	0	27.296	0	893.517	0	11.3	4	3.5	4	-1E+10	1	-1E+10	1	-1E+10	1	-1E+10	1	-1E+10	1	-1E+10	1
4902551	108	C	08/11/2023	20:17	-131.171	47.530	0	907.80	0	3.4460	0	34.3120	0	27.300	0	898.256	0	11.2	4	3.5	4	-1E+10	1	-1E+10	1	-1E+10	1	-1E+10	1	-1E+10	1	-1E+10	1
4902551	108	C	08/11/2023	20:17	-131.171	47.530	0	912.60	0	3.4360	0	34.3150	0	27.304	0	902.995	0	11.2	4	3.5	4	-1E+10	1	-1E+10	1	-1E+10	1	-1E+10	1	-1E+10	1	-1E+10	1
4902551	108	C	08/11/2023	20:17	-131.171	47.530	0	917.80	0	3.4260	0	34.3190	0	27.308	0	908.129	0	11.1	4	3.5	4	-1E+10	1	-1E+10	1	-1E+10	1	-1E+10	1	-1E+10	1	-1E+10	1
4902551	108	C	08/11/2023	20:17	-131.171	47.530	0	923.10	0	3.4180	0	34.3220	0	27.311	0	913.362	0	11.1	4	3.5	4	-1E+10	1	-1E+10	1	-1E+10	1	-1E+10	1	-1E+10	1	-1E+10	1
4902551	108	C	08/11/2023	20:17	-131.171	47.530	0	927.90	0	3.4020	0	34.3240	0	27.314	0	918.101	0	11.1	4	3.5	4	-1E+10	1	-1E+10	1	-1E+10	1	-1E+10	1	-1E+10	1	-1E+10	1
4902551	108	C	08/11/2023	20:17	-131.171	47.530	0	932.80	0	3.3950	0	34.3250	0	27.316	0	922.938	0	11.1	4	3.5	4	-1E+10	1	-1E+10	1	-1E+10	1	-1E+10	1	-1E+10	1	-1E+10	1
4902551	108	C	08/11/2023	20:17	-131.171	47.530	0	938.00	0	3.3800	0	34.3280	0	27.320	0	928.072	0	11.1	4	3.5	4	-1E+10	1	-1E+10	1	-1E+10	1	-1E+10	1	-1E+10	1	-1E+10	1
4902551	108	C	08/11/2023	20:17	-131.171	47.530	0	942.90	0	3.3730	0	34.3300	0	27.322	0	932.909	0	11.1	4	3.5	4	-1E+10	1	-1E+10	1	-1E+10	1	-1E+10	1	-1E+10	1	-1E+10	1
4902551	108	C	08/11/2023	20:17	-131.171	47.530	0	947.70	0	3.3620	0	34.3310	0	27.324	0	937.647	0	11.2	4	3.5	4	-1E+10	1	-1E+10	1	-1E+10	1	-1E+10	1	-1E+10	1	-1E+10	1
4902551	108	C	08/11/2023	20:17	-131.171	47.530	0	953.10	0	3.3370	0	34.3320	0	27.327	0	942.978	0	11.2	4	3.5	4	-1E+10	1	-1E+10	1	-1E+10	1	-1E+10	1	-1E+10	1	-1E+10	1
4902551	108	C	08/11/2023	20:17	-131.171	47.530	0	958.10	0	3.3280	0	34.3330	0	27.329	0	947.914	0	11.2	4	3.5	4	-1E+10	1	-1E+10	1	-1E+10	1	-1E+10	1	-1E+10	1	-1E+10	1
4902551	108	C	08/11/2023	20:17	-131.171	47.530	0	963.10	0	3.3240	0	34.3380	0	27.333	0	952.849	0	11.1	4	3.5	4	-1E+10	1	-1E+10	1	-1E+10	1	-1E+10	1	-1E+10	1	-1E+10	1
4902551	108	C	08/11/2023	20:17	-131.171	47.530	0	968.10	0	3.3110	0	34.3390	0	27.335	0	957.784	0	11.2	4	3.5	4	-1E+10	1	-1E+10	1	-1E+10	1	-1E+10	1	-1E+10	1	-1E+10	1
4902551	108	C	08/11/2023	20:17	-131.171	47.530	0	973.10	0	3.3010	0	34.3410	0	27.338	0	962.720	0	11.2	4	3.5	4	-1E+10	1	-1E+10	1	-1E+10	1	-1E+10	1	-1E+10	1	-1E+10	1
4902551	108	C	08/11/2023	20:17	-131.171	47.530	0	978.20	0	3.2820	0	34.3420	0	27.340	0	967.753	0	11.3	4	3.5	4	-1E+10	1	-1E+10	1	-1E+10	1	-1E+10	1	-1E+10	1	-1E+10	1
4902551	108	C	08/11/2023	20:17	-131.171	47.530	0	982.80	0	3.2670	0	34.3430	0	27.342	0	972.294	0	11.3	4	3.5	4	-1E+10	1	-1E+10	1	-1E+10	1	-1E+10	1	-1E+10	1	-1E+10	1
4902551	108	C	08/11/2023	20:17	-131.171	47.530	0	988.00	0	3.2590	0	34.3460	0	27.346	0	977.426	0	11.3	4	3.5	4	-1E+10	1	-1E+10	1	-1E+10	1	-1E+10	1	-1E+10	1	-1E+10	1
4902551	108	C	08/11/2023	20:17	-131.171	47.530	0	993.10	0	3.2370	0	34.3480	0	27.349	0	982.459	0	11.2	4	3.5	4	-1E+10	1	-1E+10	1	-1E+10	1	-1E+10	1	-1E+10	1	-1E+10	1
4902551	108	C	08/11/2023	20:17	-131.171	47.530	0	997.80	0	3.2280	0	34.3490	0	27.351	0	987.098	0	11.2	4	3.5	4	-1E+10	1	-1E+10	1	-1E+10	1	-1E+10	1	-1E+10	1	-1E+10	1
4902551	108	C	08/11/2023	20:17	-131.171	47.530	0	1005.40	0	3.2410	0	34.3580	0	27.357	0	994.598	0	11.1	4	3.4	4	-1E+10	1	-1E+10	1	-1E+10	1	-1E+10	1	-1E+10	1	-1E+10	1
4902551	108	C	08/11/2023	20:17	-131.171	47.530	0	1015.50	0	3.2370	0	34.3660	0	27.364	0	1004.566	0	11.0	4	3.4	4	-1E+10	1	-1E+10	1	-1E+10	1	-1E+10	1	-1E+10	1	-1E+10	1
4902551	108	C	08/11/2023	20:17	-131.171	47.530	0	1025.40	0	3.2340	0	34.3710	0	27.368	0	1014.335	0	11.0	4	3.4	4	-1E+10	1	-1E+10	1	-1E+10	1	-1E+10	1	-1E+10	1	-1E+10	1
4902551	108	C	08/11/2023	20:17	-131.171	47.530	0	1035.30	0	3.2250	0	34.3760	0	27.373	0	1024.104	0	11.1	4	3.4	4	-1E+10	1	-1E+10	1	-1E+10	1	-1E+10	1	-1E+10	1	-1E+10	1
4902551	108	C	08/11/2023	20:17	-131.171	47.530	0	1045.40	0	3.2130	0	34.3810	0	27.378	0	1034.070	0	11.1	4	3.5	4	-1E+10	1	-1E+10	1	-1E+10	1	-1E+10	1	-1E+10	1	-1E+10	1
4902551	108	C	08/11/2023	20:17	-131.171	47.530	0	1055.20	0	3.2060	0	34.3860	0	27.383	0	1043.739	0	11.3	4	3.5	4	-1E+10	1	-1E+10	1	-1E+10	1	-1E+10	1	-1E+10	1	-1E+10	1
4902551	108	C	08/11/2023	20:17	-131.171	47.530	0	1065.30	0	3.1770	0	34.3890	0	27.388	0	1053.704	0	11.4	4	3.5	4	-1E+10	1	-1E+10	1	-1E+10	1	-1E+10	1	-1E+10	1	-1E+10	1
4902551	108	C	08/11/2023	20:17	-131.171	47.530	0	1075.20	0	3.1140	0	34.3860	0	27.391	0	1063.472	0	11.6	4	3.6	4	-1E+10	1	-1E+10	1	-1E+10	1	-1E+10	1	-1E+10	1	-1E+10	1
4902551	108	C	08/11/2023	20:17	-131.171	47.530	0	1085.10	0	3.0770	0	34.3860	0	27.395	0	1073.238	0	11.7	4	3.6	4	-1E+10	1	-1E+10	1	-1E+10	1	-1E+10	1	-1E+10	1	-1E+10	1
4902551	108	C	08/11/2023	20:17	-131.171	47.530	0	1095.40	0	3.0940	0	34.3940	0	27.400	0	1083.399	0	11.8	4	3.6	4	-1E+10	1	-1E+10	1	-1E+10	1	-1E+10	1	-1E+10	1	-1E+10	1
4902551	108	C	08/11/2023	20:17	-131.171	47.530	0	1105.50	0	3.0850	0	34.3980	0	27.404	0	1093.362	0	11.9	4	3.7	4	-1E+10	1	-1E+10	1	-1E+10	1	-1E+10	1	-1E+10	1	-1E+10	1
4902551	108	C	08/11/2023	20:17	-131.171	47.530	0	1115.30	0	3.0890	0	34.4050	0	27.409	0	1103.029	0	12.1	4	3.7	4	-1E+10	1	-1E+10	1	-1E+10	1	-1E+10	1	-1E+10	1	-1E+10	1
4902551	108	C	08/11/2023	20:17	-131.171	47.530	0	1125.30	0	3.0660	0	34.4070	0	27.413	0	1112.892	0	12.2	4	3.8	4	-1E+10	1	-1E+10	1	-1E+10	1	-1E+10	1	-1E+10	1	-1E+10	1
4902551	108	C	08/11/2023	20:17	-131.171	47.530	0	1135.30	0	3.0370	0	34.4110	0	27.419	0	1122.755	0	12.4	4	3.8	4	-1E+10	1	-1E+10	1	-1E+10	1	-1E+10	1	-1E+10	1	-1E+10	1
4902551	108	C	08/11/2023	20:17	-131.171	47.530	0	1145.50	0	3.0290	0	34.4140	0	27.422	0	1132.815	0	12.6	4	3.9	4	-1E+10	1	-1E+10	1	-1E+10	1	-1E+10	1	-1E+10	1	-1E+10	1
4902551	108	C	08/11/2023	20:17	-131.171	47.530	0	1155.30	0	3.0040	0	34.4170	0	27.427	0	1142.480	0	12.7	4	3.9	4	-1E+10	1	-1E+10	1	-1E+10	1	-1E+10	1	-1E+10	1	-1E+10	1
4902551	108	C	08/11/2023	20:17	-131.171	47.530	0	1165.10	0	2.9770	0	34.4180	0	27.430	0	1152.144	0	12.8	4	3.9	4	-1E+10	1	-1E+10	1	-1E+10	1	-1E+10	1	-1E+10	1	-1E+10	1
4902551	108	C	08/11/2023	20:17	-131.171	47.530	0	1175.30	0	2.9570	0	34.4200	0	27.433	0	1162.203	0	12.9	4	4.0	4	-1E+10	1	-1E+10	1	-1E+10	1	-1E+10	1	-1E+10	1	-1E+10	1
4902551	108	C	08/11/2023	20:17	-131.171	47.530	0	1185.60	0	2.9200	0	34.4200	0	27.437	0	1172.359	0	13.0	4	4.0	4	-1E+10	1	-1E+10	1	-1E+10	1	-1E+10	1	-1E+10	1	-1E+10	1
4902551	108	C	08/11/2023	20:17	-131.171	47.530	0	1195.80	0	2.8930	0	34.4230	0	27.442	0	1182.417	0	13.2	4	4.1	4	-1E+10	1	-1E+10	1	-1E+10	1	-1E+10	1	-1E+10	1	-1E+10	1
4902551	108	C	08/11/2023	20:17	-131.171	47.530	0	1205.80	0	2.8640	0	34.4260	0	27.447	0	1192.277	0	13.4	4	4.1	4	-1E+10	1	-1E+10	1	-1E+10	1	-1E+10	1	-1E+10	1	-1E+10	1
4902551	108	C	08/11/2023	20:17	-131.171	47.530	0	1215.70	0	2.8440	0	34.4300	0	27.452	0	1202.037	0	13.6	4	4.2	4	-1E+10	1	-1E+10	1	-1E+10	1	-1E+10	1	-1E+10	1	-1E+10	1
4902551	108	C	08/11/2023	20:17	-131.171	47.530	0	1225.50	0	2.8240	0	34.4320	0	27.455	0	1211.699	0	13.9	4	4.3	4	-1E+10	1	-1E+10	1	-1E+10	1	-1E+10	1	-1E+10	1	-1E+10	1
4902551	108	C	08/11/2023	20:17	-131.171	47.530	0	1235.20	0	2.8070	0	34.4360	0	27.460	0	1221.261	0	14.2	4	4.4	4	-1E+10	1	-1E+10	1	-1E+10	1	-1E+10	1	-1E+10	1	-1E+10	1
4902551	108	C	08/11/2023	20:17	-131.171	47.530	0	1245.10	0	2.7920	0	34.4400	0	27.464	0	1231.021	0	14.4	4	4.4	4	-1E+10	1	-1E+10	1	-1E+10	1	-1E+10	1	-1E+10	1	-1E+10	1
4902551	108	C	08/11/2023	20:17	-131.171	47.530	0	1255.00	0	2.7780	0	34.4430	0	27.468	0	1240.780	0	14.7	4	4.5	4	-1E+10	1	-1E+10	1	-1E+10	1	-1E+10	1	-1E+10	1	-1E+10	1
4902551	108	C	08/11/2023	20:17	-131.171	47.530	0	1265.40	0	2.7600	0	34.4460	0	27.472	0	1251.031	0	15.0	4	4.6	4	-1E+10	1	-1E+10	1	-1E+10	1	-1E+10	1	-1E+10	1	-1E+10	1
4902551	108	C	08/11/2023	20:17	-131.171	47.530	0	1275.90	0	2.7460	0	34.4490	0	27.476	0	1261.380	0	15.5	4	4.8	4	-1E+10	1	-1E+10	1	-1E+10	1	-1E+10	1	-1E+10	1	-1E+10	1
4902551	108	C	08/11/2023	20:17	-131.171	47.530	0	1285.40	0	2.7380	0	34.4550	0	27.481	0	1270.744	0	15.8	4	4.8	4	-1E+10	1	-1E+10	1	-1E+10	1	-1E+10	1	-1E+10	1	-1E+10	1
4902551	108	C	08/11/2023	20:17	-131.171	47.530	0	1295.70	0	2.7110	0	34.4550	0	27.484	0	1280.895	0	16.0	4	4.9	4	-1E+10	1	-1E+10	1	-1E+10	1	-1E+10	1	-1E+10	1	-1E+10	1
4902551	108	C	08/11/2023	20:17	-131.171	47.530	0	1305.50	0	2.6910	0	34.4580	0	27.488	0	1290.553	0	16.5	4	5.0	4	-1E+10	1	-1E+10	1	-1E+10	1	-1E+10	1	-1E+10	1	-1E+10	1
4902551	108	C	08/11/2023	20:17	-131.171	47.530	0	1315.20	0	2.6850	0	34.4630	0	27.492	0	1300.112	0	17.1	4	5.2	4	-1E+10	1	-1E+10	1	-1E+10	1	-1E+10	1	-1E+10	1	-1E+10	1
4902551	108	C	08/11/2023	20:17	-131.171	47.530	0	1325.20	0	2.6700	0	34.4660	0	27.496	0	1309.966	0	17.3	4	5.3	4	-1E+10	1	-1E+10	1	-1E+10	1	-1E+10	1	-1E+10	1	-1E+10	1
4902551	108	C	08/11/2023	20:17	-131.171	47.530	0	1335.20	0	2.6490	0	34.4670	0	27.499	0	1319.820	0	17.6	4	5.4	4	-1E+10	1	-1E+10	1	-1E+10	1	-1E+10	1	-1E+10	1	-1E+10	1
4902551	108	C	08/11/2023	20:17	-131.171	47.530	0	1345.20	0	2.6320	0	34.4690	0	27.502	0	1329.673	0	17.9	4	5.5	4	-1E+10	1	-1E+10	1	-1E+10	1	-1E+10	1	-1E+10	1	-1E+10	1
4902551	108	C	08/11/2023	20:17	-131.171	47.530	0	1355.50	0	2.6180	0	34.4720	0	27.506	0	1339.821	0	18.3	4	5.6	4	-1E+10	1	-1E+10	1	-1E+10	1	-1E+10	1	-1E+10	1	-1E+10	1
4902551	108	C	08/11/2023	20:17	-131.171	47.530	0	1365.60	0	2.5980	0	34.4740	0	27.509	0	1349.772	0	18.7	4	5.7	4	-1E+10	1	-1E+10	1	-1E+10	1	-1E+10	1	-1E+10	1	-1E+10	1
4902551	108	C	08/11/2023	20:17	-131.171	47.530	0	1375.50	0	2.5880	0	34.4770	0	27.512	0	1359.526	0	19.2	4	5.9	4	-1E+10	1	-1E+10	1	-1E+10	1	-1E+10	1	-1E+10	1	-1E+10	1
4902551	108	C	08/11/2023	20:17	-131.171	47.530	0	1385.60	0	2.5750	0	34.4790	0	27.515	0	1369.476	0	19.6	4	6.0	4	-1E+10	1	-1E+10	1	-1E+10	1	-1E+10	1	-1E+10	1	-1E+10	1
4902551	108	C	08/11/2023	20:17	-131.171	47.530	0	1395.30	0	2.5660	0	34.4810	0	27.517	0	1379.031	0	20.1	4	6.1	4	-1E+10	1	-1E+10	1	-1E+10	1	-1E+10	1	-1E+10	1	-1E+10	1
4902551	108	C	08/11/2023	20:17	-131.171	47.530	0	1405.40	0	2.5580	0	34.4840	0	27.520	0	1388.980	0	20.6	4	6.3	4	-1E+10	1	-1E+10	1	-1E+10	1	-1E+10	1	-1E+10	1	-1E+10	1
4902551	108	C	08/11/2023	20:17	-131.171	47.530	0	1415.30	0	2.5520	0	34.4870	0	27.523	0	1398.732	0	21.1	4	6.5	4	-1E+10	1	-1E+10	1	-1E+10	1	-1E+10	1	-1E+10	1	-1E+10	1
4902551	108	C	08/11/2023	20:17	-131.171	47.530	0	1425.40	0	2.5350	0	34.4890	0	27.527	0	1408.680	0	21.5	4	6.6	4	-1E+10	1	-1E+10	1	-1E+10	1	-1E+10	1	-1E+10	1	-1E+10	1
4902551	108	C	08/11/2023	20:17	-131.171	47.530	0	1435.30	0	2.5180	0	34.4910	0	27.530	0	1418.430	0	22.0	4	6.7	4	-1E+10	1	-1E+10	1	-1E+10	1	-1E+10	1	-1E+10	1	-1E+10	1
4902551	108	C	08/11/2023	20:17	-131.171	47.530	0	1445.40	0	2.5090	0	34.4930	0	27.532	0	1428.377	0	22.5	4	6.9	4	-1E+10	1	-1E+10	1	-1E+10	1	-1E+10	1	-1E+10	1	-1E+10	1
4902551	108	C	08/11/2023	20:17	-131.171	47.530	0	1455.50	0	2.5050	0	34.4950	0	27.534	0	1438.324	0	23.1	4	7.0	4	-1E+10	1	-1E+10	1	-1E+10	1	-1E+10	1	-1E+10	1	-1E+10	1
4902551	108	C	08/11/2023	20:17	-131.171	47.530	0	1465.50	0	2.4930	0	34.4970	0	27.537	0	1448.172	0	23.7	4	7.2	4	-1E+10	1	-1E+10	1	-1E+10	1	-1E+10	1	-1E+10	1	-1E+10	1
4902551	108	C	08/11/2023	20:17	-131.171	47.530	0	1475.70	0	2.4790	0	34.5000	0	27.540	0	1458.216	0	24.3	4	7.4	4	-1E+10	1	-1E+10	1	-1E+10	1	-1E+10	1	-1E+10	1	-1E+10	1
4902551	108	C	08/11/2023	20:17	-131.171	47.530	0	1485.50	0	2.4690	0	34.5020	0	27.543	0	1467.866	0	24.8	4	7.6	4	-1E+10	1	-1E+10	1	-1E+10	1	-1E+10	1	-1E+10	1	-1E+10	1
4902551	108	C	08/11/2023	20:17	-131.171	47.530	0	1495.20	0	2.4570	0	34.5040	0	27.545	0	1477.417	0	25.2	4	7.7	4	-1E+10	1	-1E+10	1	-1E+10	1	-1E+10	1	-1E+10	1	-1E+10	1
4902551	108	C	08/11/2023	20:17	-131.171	47.530	0	1505.40	0	2.4450	0	34.5050	0	27.547	0	1487.460	0	25.5	4	7.8	4	-1E+10	1	-1E+10	1	-1E+10	1	-1E+10	1	-1E+10	1	-1E+10	1
4902551	108	C	08/11/2023	20:17	-131.171	47.530	0	1515.60	0	2.4330	0	34.5070	0	27.550	0	1497.502	0	26.1	4	7.9	4	-1E+10	1	-1E+10	1	-1E+10	1	-1E+10	1	-1E+10	1	-1E+10	1
4902551	108	C	08/11/2023	20:17	-131.171	47.530	0	1525.40	0	2.4220	0	34.5090	0	27.553	0	1507.150	0	26.6	4	8.1	4	-1E+10	1	-1E+10	1	-1E+10	1	-1E+10	1	-1E+10	1	-1E+10	1
4902551	108	C	08/11/2023	20:17	-131.171	47.530	0	1535.30	0	2.4080	0	34.5100	0	27.555	0	1516.896	0	26.7	4	8.1	4	-1E+10	1	-1E+10	1	-1E+10	1	-1E+10	1	-1E+10	1	-1E+10	1
4902551	108	C	08/11/2023	20:17	-131.171	47.530	0	1545.40	0	2.3860	0	34.5110	0	27.557	0	1526.839	0	26.6	4	8.1	4	-1E+10	1	-1E+10	1	-1E+10	1	-1E+10	1	-1E+10	1	-1E+10	1
4902551	108	C	08/11/2023	20:17	-131.171	47.530	0	1555.50	0	2.3580	0	34.5110	0	27.560	0	1536.781	0	27.0	4	8.2	4	-1E+10	1	-1E+10	1	-1E+10	1	-1E+10	1	-1E+10	1	-1E+10	1
4902551	108	C	08/11/2023	20:17	-131.171	47.530	0	1565.30	0	2.3480	0	34.5130	0	27.562	0	1546.427	0	27.6	4	8.4	4	-1E+10	1	-1E+10	1	-1E+10	1	-1E+10	1	-1E+10	1	-1E+10	1
4902551	108	C	08/11/2023	20:17	-131.171	47.530	0	1575.30	0	2.3310	0	34.5160	0	27.566	0	1556.270	0	28.1	4	8.5	4	-1E+10	1	-1E+10	1	-1E+10	1	-1E+10	1	-1E+10	1	-1E+10	1
4902551	108	C	08/11/2023	20:17	-131.171	47.530	0	1585.40	0	2.3110	0	34.5170	0	27.568	0	1566.210	0	28.9	4	8.8	4	-1E+10	1	-1E+10	1	-1E+10	1	-1E+10	1	-1E+10	1	-1E+10	1
4902551	108	C	08/11/2023	20:17	-131.171	47.530	0	1595.30	0	2.3080	0	34.5210	0	27.572	0	1575.954	0	30.2	4	9.2	4	-1E+10	1	-1E+10	1	-1E+10	1	-1E+10	1	-1E+10	1	-1E+10	1
4902551	108	C	08/11/2023	20:17	-131.171	47.530	0	1605.30	0	2.3060	0	34.5240	0	27.574	0	1585.795	0	30.6	4	9.3	4	-1E+10	1	-1E+10	1	-1E+10	1	-1E+10	1	-1E+10	1	-1E+10	1
4902551	108	C	08/11/2023	20:17	-131.171	47.530	0	1615.40	0	2.2880	0	34.5250	0	27.577	0	1595.734	0	30.5	4	9.3	4	-1E+10	1	-1E+10	1	-1E+10	1	-1E+10	1	-1E+10	1	-1E+10	1
4902551	108	C	08/11/2023	20:17	-131.171	47.530	0	1625.70	0	2.2640	0	34.5250	0	27.579	0	1605.870	0	31.2	4	9.5	4	-1E+10	1	-1E+10	1	-1E+10	1	-1E+10	1	-1E+10	1	-1E+10	1
4902551	108	C	08/11/2023	20:17	-131.171	47.530	0	1635.50	0	2.2620	0	34.5280	0	27.581	0	1615.513	0	32.3	4	9.8	4	-1E+10	1	-1E+10	1	-1E+10	1	-1E+10	1	-1E+10	1	-1E+10	1
4902551	108	C	08/11/2023	20:17	-131.171	47.530	0	1645.60	0	2.2550	0	34.5310	0	27.584	0	1625.451	0	33.0	4	10.0	4	-1E+10	1	-1E+10	1	-1E+10	1	-1E+10	1	-1E+10	1	-1E+10	1
4902551	108	C	08/11/2023	20:17	-131.171	47.530	0	1655.60	0	2.2490	0	34.5320	0	27.586	0	1635.290	0	33.3	4	10.1	4	-1E+10	1	-1E+10	1	-1E+10	1	-1E+10	1	-1E+10	1	-1E+10	1
4902551	108	C	08/11/2023	20:17	-131.171	47.530	0	1665.70	0	2.2370	0	34.5330	0	27.588	0	1645.227	0	33.3	4	10.1	4	-1E+10	1	-1E+10	1	-1E+10	1	-1E+10	1	-1E+10	1	-1E+10	1
4902551	108	C	08/11/2023	20:17	-131.171	47.530	0	1675.70	0	2.2280	0	34.5330	0	27.588	0	1655.065	0	33.7	4	10.2	4	-1E+10	1	-1E+10	1	-1E+10	1	-1E+10	1	-1E+10	1	-1E+10	1
4902551	108	C	08/11/2023	20:17	-131.171	47.530	0	1685.50	0	2.2170	0	34.5350	0	27.591	0	1664.705	0	34.6	4	10.5	4	-1E+10	1	-1E+10	1	-1E+10	1	-1E+10	1	-1E+10	1	-1E+10	1
4902551	108	C	08/11/2023	20:17	-131.171	47.530	0	1695.40	0	2.2050	0	34.5380	0	27.594	0	1674.444	0	35.5	4	10.8	4	-1E+10	1	-1E+10	1	-1E+10	1	-1E+10	1	-1E+10	1	-1E+10	1
4902551	108	C	08/11/2023	20:17	-131.171	47.530	0	1705.60	0	2.1930	0	34.5400	0	27.597	0	1684.478	0	36.1	4	10.9	4	-1E+10	1	-1E+10	1	-1E+10	1	-1E+10	1	-1E+10	1	-1E+10	1
4902551	108	C	08/11/2023	20:17	-131.171	47.530	0	1715.50	0	2.1800	0	34.5420	0	27.600	0	1694.216	0	36.6	4	11.1	4	-1E+10	1	-1E+10	1	-1E+10	1	-1E+10	1	-1E+10	1	-1E+10	1
4902551	108	C	08/11/2023	20:17	-131.171	47.530	0	1725.60	0	2.1690	0	34.5430	0	27.601	0	1704.150	0	36.9	4	11.2	4	-1E+10	1	-1E+10	1	-1E+10	1	-1E+10	1	-1E+10	1	-1E+10	1
4902551	108	C	08/11/2023	20:17	-131.171	47.530	0	1735.70	0	2.1620	0	34.5440	0	27.603	0	1714.083	0	37.1	4	11.2	4	-1E+10	1	-1E+10	1	-1E+10	1	-1E+10	1	-1E+10	1	-1E+10	1
4902551	108	C	08/11/2023	20:17	-131.171	47.530	0	1745.70	0	2.1550	0	34.5450	0	27.604	0	1723.918	0	37.7	4	11.4	4	-1E+10	1	-1E+10	1	-1E+10	1	-1E+10	1	-1E+10	1	-1E+10	1
4902551	108	C	08/11/2023	20:17	-131.171	47.530	0	1755.70	0	2.1460	0	34.5470	0	27.607	0	1733.753	0	38.6	4	11.7	4	-1E+10	1	-1E+10	1	-1E+10	1	-1E+10	1	-1E+10	1	-1E+10	1
4902551	108	C	08/11/2023	20:17	-131.171	47.530	0	1765.40	0	2.1340	0	34.5490	0	27.609	0	1743.292	0	39.4	4	11.9	4	-1E+10	1	-1E+10	1	-1E+10	1	-1E+10	1	-1E+10	1	-1E+10	1
4902551	108	C	08/11/2023	20:17	-131.171	47.530	0	1775.20	0	2.1220	0	34.5510	0	27.612	0	1752.928	0	39.9	4	12.1	4	-1E+10	1	-1E+10	1	-1E+10	1	-1E+10	1	-1E+10	1	-1E+10	1
4902551	108	C	08/11/2023	20:17	-131.171	47.530	0	1785.40	0	2.1140	0	34.5520	0	27.613	0	1762.958	0	40.5	4	12.3	4	-1E+10	1	-1E+10	1	-1E+10	1	-1E+10	1	-1E+10	1	-1E+10	1
4902551	108	C	08/11/2023	20:17	-131.171	47.530	0	1795.10	0	2.1080	0	34.5540	0	27.615	0	1772.496	0	41.2	4	12.4	4	-1E+10	1	-1E+10	1	-1E+10	1	-1E+10	1	-1E+10	1	-1E+10	1
4902551	108	C	08/11/2023	20:17	-131.171	47.530	0	1805.40	0	2.1010	0	34.5550	0	27.617	0	1782.623	0	41.6	4	12.6	4	-1E+10	1	-1E+10	1	-1E+10	1	-1E+10	1	-1E+10	1	-1E+10	1
4902551	108	C	08/11/2023	20:17	-131.171	47.530	0	1815.70	0	2.0910	0	34.5560	0	27.618	0	1792.749	0	42.3	4	12.8	4	-1E+10	1	-1E+10	1	-1E+10	1	-1E+10	1	-1E+10	1	-1E+10	1
4902551	108	C	08/11/2023	20:17	-131.171	47.530	0	1825.70	0	2.0800	0	34.5580	0	27.621	0	1802.581	0	43.0	4	13.0	4	-1E+10	1	-1E+10	1	-1E+10	1	-1E+10	1	-1E+10	1	-1E+10	1
4902551	108	C	08/11/2023	20:17	-131.171	47.530	0	1835.80	0	2.0700	0	34.5600	0	27.623	0	1812.510	0	43.8	4	13.2	4	-1E+10	1	-1E+10	1	-1E+10	1	-1E+10	1	-1E+10	1	-1E+10	1
4902551	108	C	08/11/2023	20:17	-131.171	47.530	0	1845.50	0	2.0620	0	34.5610	0	27.625	0	1822.045	0	44.2	4	13.3	4	-1E+10	1	-1E+10	1	-1E+10	1	-1E+10	1	-1E+10	1	-1E+10	1
4902551	108	C	08/11/2023	20:17	-131.171	47.530	0	1855.30	0	2.0550	0	34.5630	0	27.627	0	1831.678	0	45.1	4	13.6	4	-1E+10	1	-1E+10	1	-1E+10	1	-1E+10	1	-1E+10	1	-1E+10	1
4902551	108	C	08/11/2023	20:17	-131.171	47.530	0	1865.30	0	2.0470	0	34.5650	0	27.629	0	1841.508	0	45.7	4	13.8	4	-1E+10	1	-1E+10	1	-1E+10	1	-1E+10	1	-1E+10	1	-1E+10	1
4902551	108	C	08/11/2023	20:17	-131.171	47.530	0	1875.60	0	2.0370	0	34.5660	0	27.631	0	1851.632	0	46.4	4	14.0	4	-1E+10	1	-1E+10	1	-1E+10	1	-1E+10	1	-1E+10	1	-1E+10	1
4902551	108	C	08/11/2023	20:17	-131.171	47.530	0	1885.70	0	2.0310	0	34.5680	0	27.633	0	1861.558	0	47.6	4	14.4	4	-1E+10	1	-1E+10	1	-1E+10	1	-1E+10	1	-1E+10	1	-1E+10	1
4902551	108	C	08/11/2023	20:17	-131.171	47.530	0	1895.40	0	2.0240	0	34.5710	0	27.636	0	1871.092	0	49.0	4	14.8	4	-1E+10	1	-1E+10	1	-1E+10	1	-1E+10	1	-1E+10	1	-1E+10	1
4902551	108	C	08/11/2023	20:17	-131.171	47.530	0	1905.20	0	2.0140	0	34.5720	0	27.638	0	1880.723	0	49.9	4	15.0	4	-1E+10	1	-1E+10	1	-1E+10	1	-1E+10	1	-1E+10	1	-1E+10	1
4902551	108	C	08/11/2023	20:17	-131.171	47.530	0	1915.30	0	2.0040	0	34.5740	0	27.640	0	1890.648	0	50.5	4	15.2	4	-1E+10	1	-1E+10	1	-1E+10	1	-1E+10	1	-1E+10	1	-1E+10	1
4902551	108	C	08/11/2023	20:17	-131.171	47.530	0	1925.20	0	1.9960	0	34.5760	0	27.642	0	1900.376	0	51.1	4	15.4	4	-1E+10	1	-1E+10	1	-1E+10	1	-1E+10	1	-1E+10	1	-1E+10	1
4902551	108	C	08/11/2023	20:17	-131.171	47.530	0	1935.40	0	1.9870	0	34.5770	0	27.644	0	1910.399	0	52.1	4	15.7	4	-1E+10	1	-1E+10	1	-1E+10	1	-1E+10	1	-1E+10	1	-1E+10	1
4902551	108	C	08/11/2023	20:17	-131.171	47.530	0	1945.60	0	1.9820	0	34.5790	0	27.646	0	1920.421	0	52.7	4	15.9	4	-1E+10	1	-1E+10	1	-1E+10	1	-1E+10	1	-1E+10	1	-1E+10	1
4902551	108	C	08/11/2023	20:17	-131.171	47.530	0	1955.60	0	1.9730	0	34.5810	0	27.648	0	1930.247	0	53.4	4	16.1	4	-1E+10	1	-1E+10	1	-1E+10	1	-1E+10	1	-1E+10	1	-1E+10	1
4902551	108	C	08/11/2023	20:17	-131.171	47.530	0	1965.70	0	1.9640	0	34.5820	0	27.650	0	1940.170	0	53.8	4	16.2	4	-1E+10	1	-1E+10	1	-1E+10	1	-1E+10	1	-1E+10	1	-1E+10	1
4902551	108	C	08/11/2023	20:17	-131.171	47.530	0	1974.20	0	1.9600	0	34.5830	0	27.651	0	1948.521	0	53.7	4	16.2	4	-1E+10	1	-1E+10	1	-1E+10	1	-1E+10	1	-1E+10	1	-1E+10	1
4902551	108	C	08/11/2023	20:17	-131.171	47.530	0																										
4902551	109	C	08/22/2023	01:08	-131.221	47.473	0	0.00	0	17.7360	0	32.3010	0	23.271	0	0.000	0	231.8	4	96.8	4	-1E+10	1	-1E+10	1	-1E+10	1	-1E+10	1	-1E+10	1	-1E+10	1
4902551	109	C	08/22/2023	01:08	-131.221	47.473	0	0.80	0	17.7360	0	32.2970	0	23.268	0	0.793	0	231.8	4	96.8	4	-1E+10	1	-1E+10	1	-1E+10	1	-1E+10	1	-1E+10	1	-1E+10	1
4902551	109	C	08/22/2023	01:08	-131.221	47.473	0	1.80	0	17.7370	0	32.2960	0	23.267	0	1.785	0	231.8	4	96.8	4	-1E+10	1	-1E+10	1	-1E+10	1	-1E+10	1	-1E+10	1	-1E+10	1
4902551	109	C	08/22/2023	01:08	-131.221	47.473	0	2.80	0	17.7360	0	32.2980	0	23.269	0	2.777	0	231.8	4	96.8	4	-1E+10	1	-1E+10	1	-1E+10	1	-1E+10	1	-1E+10	1	-1E+10	1
4902551	109	C	08/22/2023	01:08	-131.221	47.473	0	4.00	0	17.7340	0	32.3000	0	23.271	0	3.967	0	232.0	4	96.9	4	-1E+10	1	-1E+10	1	-1E+10	1	-1E+10	1	-1E+10	1	-1E+10	1
4902551	109	C	08/22/2023	01:08	-131.221	47.473	0	4.90	0	17.7310	0	32.3040	0	23.274	0	4.859	0	232.0	4	96.9	4	-1E+10	1	-1E+10	1	-1E+10	1	-1E+10	1	-1E+10	1	-1E+10	1
4902551	109	C	08/22/2023	01:08	-131.221	47.473	0	5.90	0	17.7310	0	32.3040	0	23.274	0	5.851	0	232.1	4	96.9	4	-1E+10	1	-1E+10	1	-1E+10	1	-1E+10	1	-1E+10	1	-1E+10	1
4902551	109	C	08/22/2023	01:08	-131.221	47.473	0	7.10	0	17.7320	0	32.3030	0	23.274	0	7.041	0	232.3	4	97.0	4	-1E+10	1	-1E+10	1	-1E+10	1	-1E+10	1	-1E+10	1	-1E+10	1
4902551	109	C	08/22/2023	01:08	-131.221	47.473	0	8.00	0	17.7320	0	32.3040	0	23.274	0	7.933	0	232.5	4	97.1	4	-1E+10	1	-1E+10	1	-1E+10	1	-1E+10	1	-1E+10	1	-1E+10	1
4902551	109	C	08/22/2023	01:08	-131.221	47.473	0	8.80	0	17.7340	0	32.3030	0	23.273	0	8.726	0	232.5	4	97.1	4	-1E+10	1	-1E+10	1	-1E+10	1	-1E+10	1	-1E+10	1	-1E+10	1
4902551	109	C	08/22/2023	01:08	-131.221	47.473	0	9.90	0	17.7240	0	32.3070	0	23.279	0	9.817	0	232.8	4	97.2	4	-1E+10	1	-1E+10	1	-1E+10	1	-1E+10	1	-1E+10	1	-1E+10	1
4902551	109	C	08/22/2023	01:08	-131.221	47.473	0	11.10	0	17.7120	0	32.3040	0	23.279	0	11.007	0	233.0	4	97.3	4	-1E+10	1	-1E+10	1	-1E+10	1	-1E+10	1	-1E+10	1	-1E+10	1
4902551	109	C	08/22/2023	01:08	-131.221	47.473	0	12.00	0	17.7070	0	32.3040	0	23.280	0	11.900	0	233.2	4	97.3	4	-1E+10	1	-1E+10	1	-1E+10	1	-1E+10	1	-1E+10	1	-1E+10	1
4902551	109	C	08/22/2023	01:08	-131.221	47.473	0	12.80	0	17.7120	0	32.3030	0	23.279	0	12.693	0	233.2	4	97.4	4	-1E+10	1	-1E+10	1	-1E+10	1	-1E+10	1	-1E+10	1	-1E+10	1
4902551	109	C	08/22/2023	01:08	-131.221	47.473	0	13.90	0	17.7110	0	32.3040	0	23.280	0	13.784	0	233.5	4	97.5	4	-1E+10	1	-1E+10	1	-1E+10	1	-1E+10	1	-1E+10	1	-1E+10	1
4902551	109	C	08/22/2023	01:08	-131.221	47.473	0	15.10	0	17.7070	0	32.3040	0	23.281	0	14.973	0	233.8	4	97.6	4	-1E+10	1	-1E+10	1	-1E+10	1	-1E+10	1	-1E+10	1	-1E+10	1
4902551	109	C	08/22/2023	01:08	-131.221	47.473	0	15.90	0	17.6970	0	32.3020	0	23.281	0	15.767	0	234.0	4	97.7	4	-1E+10	1	-1E+10	1	-1E+10	1	-1E+10	1	-1E+10	1	-1E+10	1
4902551	109	C	08/22/2023	01:08	-131.221	47.473	0	16.70	0	17.6920	0	32.3040	0	23.284	0	16.560	0	234.4	4	97.8	4	-1E+10	1	-1E+10	1	-1E+10	1	-1E+10	1	-1E+10	1	-1E+10	1
4902551	109	C	08/22/2023	01:08	-131.221	47.473	0	18.00	0	17.6910	0	32.3080	0	23.288	0	17.849	0	234.9	4	98.0	4	-1E+10	1	-1E+10	1	-1E+10	1	-1E+10	1	-1E+10	1	-1E+10	1
4902551	109	C	08/22/2023	01:08	-131.221	47.473	0	19.20	0	17.6780	0	32.3030	0	23.287	0	19.039	0	235.6	4	98.3	4	-1E+10	1	-1E+10	1	-1E+10	1	-1E+10	1	-1E+10	1	-1E+10	1
4902551	109	C	08/22/2023	01:08	-131.221	47.473	0	20.00	0	17.6760	0	32.3030	0	23.287	0	19.832	0	236.0	4	98.4	4	-1E+10	1	-1E+10	1	-1E+10	1	-1E+10	1	-1E+10	1	-1E+10	1
4902551	109	C	08/22/2023	01:08	-131.221	47.473	0	20.90	0	17.6680	0	32.3020	0	23.289	0	20.725	0	236.5	4	98.6	4	-1E+10	1	-1E+10	1	-1E+10	1	-1E+10	1	-1E+10	1	-1E+10	1
4902551	109	C	08/22/2023	01:08	-131.221	47.473	0	22.00	0	17.6580	0	32.3020	0	23.291	0	21.815	0	237.5	4	99.1	4	-1E+10	1	-1E+10	1	-1E+10	1	-1E+10	1	-1E+10	1	-1E+10	1
4902551	109	C	08/22/2023	01:08	-131.221	47.473	0	23.10	0	17.6590	0	32.3020	0	23.291	0	22.906	0	238.6	4	99.5	4	-1E+10	1	-1E+10	1	-1E+10	1	-1E+10	1	-1E+10	1	-1E+10	1
4902551	109	C	08/22/2023	01:08	-131.221	47.473	0	24.00	0	17.6580	0	32.3030	0	23.292	0	23.798	0	239.9	4	100.1	4	-1E+10	1	-1E+10	1	-1E+10	1	-1E+10	1	-1E+10	1	-1E+10	1
4902551	109	C	08/22/2023	01:08	-131.221	47.473	0	25.00	0	17.6470	0	32.3020	0	23.294	0	24.790	0	242.6	4	101.1	4	-1E+10	1	-1E+10	1	-1E+10	1	-1E+10	1	-1E+10	1	-1E+10	1
4902551	109	C	08/22/2023	01:08	-131.221	47.473	0	25.90	0	16.6440	0	32.3310	0	23.551	0	25.682	0	269.9	4	110.4	4	-1E+10	1	-1E+10	1	-1E+10	1	-1E+10	1	-1E+10	1	-1E+10	1
4902551	109	C	08/22/2023	01:08	-131.221	47.473	0	27.00	0	14.8430	0	32.3900	0	23.996	0	26.773	0	282.1	4	111.5	4	-1E+10	1	-1E+10	1	-1E+10	1	-1E+10	1	-1E+10	1	-1E+10	1
4902551	109	C	08/22/2023	01:08	-131.221	47.473	0	27.70	0	14.5700	0	32.3720	0	24.040	0	27.467	0	283.8	4	111.5	4	-1E+10	1	-1E+10	1	-1E+10	1	-1E+10	1	-1E+10	1	-1E+10	1
4902551	109	C	08/22/2023	01:08	-131.221	47.473	0	28.70	0	13.8090	0	32.4040	0	24.222	0	28.459	0	287.1	4	111.1	4	-1E+10	1	-1E+10	1	-1E+10	1	-1E+10	1	-1E+10	1	-1E+10	1
4902551	109	C	08/22/2023	01:08	-131.221	47.473	0	29.90	0	13.5060	0	32.3930	0	24.275	0	29.648	0	289.2	4	111.2	4	-1E+10	1	-1E+10	1	-1E+10	1	-1E+10	1	-1E+10	1	-1E+10	1
4902551	109	C	08/22/2023	01:08	-131.221	47.473	0	31.10	0	13.1920	0	32.4250	0	24.362	0	30.838	0	291.3	4	111.4	4	-1E+10	1	-1E+10	1	-1E+10	1	-1E+10	1	-1E+10	1	-1E+10	1
4902551	109	C	08/22/2023	01:08	-131.221	47.473	0	32.10	0	13.0070	0	32.3810	0	24.365	0	31.830	0	293.2	4	111.6	4	-1E+10	1	-1E+10	1	-1E+10	1	-1E+10	1	-1E+10	1	-1E+10	1
4902551	109	C	08/22/2023	01:08	-131.221	47.473	0	32.90	0	12.6900	0	32.3760	0	24.422	0	32.623	0	295.8	4	111.9	4	-1E+10	1	-1E+10	1	-1E+10	1	-1E+10	1	-1E+10	1	-1E+10	1
4902551	109	C	08/22/2023	01:08	-131.221	47.473	0	34.00	0	12.0230	0	32.3770	0	24.550	0	33.714	0	298.6	4	111.4	4	-1E+10	1	-1E+10	1	-1E+10	1	-1E+10	1	-1E+10	1	-1E+10	1
4902551	109	C	08/22/2023	01:08	-131.221	47.473	0	35.00	0	11.8600	0	32.3720	0	24.576	0	34.705	0	299.3	4	111.3	4	-1E+10	1	-1E+10	1	-1E+10	1	-1E+10	1	-1E+10	1	-1E+10	1
4902551	109	C	08/22/2023	01:08	-131.221	47.473	0	36.20	0	11.4730	0	32.3760	0	24.650	0	35.895	0	300.3	4	110.8	4	-1E+10	1	-1E+10	1	-1E+10	1	-1E+10	1	-1E+10	1	-1E+10	1
4902551	109	C	08/22/2023	01:08	-131.221	47.473	0	36.80	0	11.2540	0	32.4010	0	24.708	0	36.490	0	300.5	4	110.3	4	-1E+10	1	-1E+10	1	-1E+10	1	-1E+10	1	-1E+10	1	-1E+10	1
4902551	109	C	08/22/2023	01:08	-131.221	47.473	0	37.90	0	11.0710	0	32.3790	0	24.724	0	37.580	0	300.4	4	109.9	4	-1E+10	1	-1E+10	1	-1E+10	1	-1E+10	1	-1E+10	1	-1E+10	1
4902551	109	C	08/22/2023	01:08	-131.221	47.473	0	39.10	0	10.8350	0	32.3830	0	24.768	0	38.770	0	299.7	4	109.0	4	-1E+10	1	-1E+10	1	-1E+10	1	-1E+10	1	-1E+10	1	-1E+10	1
4902551	109	C	08/22/2023	01:08	-131.221	47.473	0	40.00	0	10.6540	0	32.3710	0	24.790	0	39.662	0	299.6	4	108.6	4	-1E+10	1	-1E+10	1	-1E+10	1	-1E+10	1	-1E+10	1	-1E+10	1
4902551	109	C	08/22/2023	01:08	-131.221	47.473	0	40.80	0	10.4740	0	32.3830	0	24.831	0	40.456	0	299.3	4	108.1	4	-1E+10	1	-1E+10	1	-1E+10	1	-1E+10	1	-1E+10	1	-1E+10	1
4902551	109	C	08/22/2023	01:08	-131.221	47.473	0	41.90	0	10.0780	0	32.3840	0	24.898	0	41.546	0	299.1	4	107.1	4	-1E+10	1	-1E+10	1	-1E+10	1	-1E+10	1	-1E+10	1	-1E+10	1
4902551	109	C	08/22/2023	01:08	-131.221	47.473	0	43.10	0	10.0070	0	32.3760	0	24.904	0	42.736	0	298.1	4	106.5	4	-1E+10	1	-1E+10	1	-1E+10	1	-1E+10	1	-1E+10	1	-1E+10	1
4902551	109	C	08/22/2023	01:08	-131.221	47.473	0	43.90	0	9.9850	0	32.3690	0	24.902	0	43.529	0	297.4	4	106.2	4	-1E+10	1	-1E+10	1	-1E+10	1	-1E+10	1	-1E+10	1	-1E+10	1
4902551	109	C	08/22/2023	01:08	-131.221	47.473	0	44.90	0	9.8480	0	32.3840	0	24.936	0	44.521	0	296.7	4	105.7	4	-1E+10	1	-1E+10	1	-1E+10	1	-1E+10	1	-1E+10	1	-1E+10	1
4902551	109	C	08/22/2023	01:08	-131.221	47.473	0	46.00	0	9.7190	0	32.3810	0	24.955	0	45.611	0	295.6	4	105.0	4	-1E+10	1	-1E+10	1	-1E+10	1	-1E+10	1	-1E+10	1	-1E+10	1
4902551	109	C	08/22/2023	01:08	-131.221	47.473	0	47.20	0	9.6340	0	32.3790	0	24.967	0	46.801	0	294.0	4	104.2	4	-1E+10	1	-1E+10	1	-1E+10	1	-1E+10	1	-1E+10	1	-1E+10	1
4902551	109	C	08/22/2023	01:08	-131.221	47.473	0	48.10	0	9.5270	0	32.3790	0	24.984	0	47.693	0	291.9	4	103.3	4	-1E+10	1	-1E+10	1	-1E+10	1	-1E+10	1	-1E+10	1	-1E+10	1
4902551	109	C	08/22/2023	01:08	-131.221	47.473	0	49.00	0	9.3560	0	32.3830	0	25.015	0	48.585	0	289.8	4	102.1	4	-1E+10	1	-1E+10	1	-1E+10	1	-1E+10	1	-1E+10	1	-1E+10	1
4902551	109	C	08/22/2023	01:08	-131.221	47.473	0	50.10	0	9.2460	0	32.3840	0	25.033	0	49.676	0	286.9	4	100.9	4	-1E+10	1	-1E+10	1	-1E+10	1	-1E+10	1	-1E+10	1	-1E+10	1
4902551	109	C	08/22/2023	01:08	-131.221	47.473	0	51.00	0	9.1390	0	32.3820	0	25.048	0	50.568	0	285.2	4	100.0	4	-1E+10	1	-1E+10	1	-1E+10	1	-1E+10	1	-1E+10	1	-1E+10	1
4902551	109	C	08/22/2023	01:08	-131.221	47.473	0	52.20	0	8.9640	0	32.3870	0	25.079	0	51.758	0	284.2	4	99.3	4	-1E+10	1	-1E+10	1	-1E+10	1	-1E+10	1	-1E+10	1	-1E+10	1
4902551	109	C	08/22/2023	01:08	-131.221	47.473	0	53.10	0	8.9080	0	32.3880	0	25.089	0	52.650	0	283.4	4	98.9	4	-1E+10	1	-1E+10	1	-1E+10	1	-1E+10	1	-1E+10	1	-1E+10	1
4902551	109	C	08/22/2023	01:08	-131.221	47.473	0	53.90	0	8.8810	0	32.3890	0	25.094	0	53.443	0	282.2	4	98.4	4	-1E+10	1	-1E+10	1	-1E+10	1	-1E+10	1	-1E+10	1	-1E+10	1
4902551	109	C	08/22/2023	01:08	-131.221	47.473	0	55.10	0	8.8490	0	32.3870	0	25.097	0	54.633	0	280.6	4	97.8	4	-1E+10	1	-1E+10	1	-1E+10	1	-1E+10	1	-1E+10	1	-1E+10	1
4902551	109	C	08/22/2023	01:08	-131.221	47.473	0	56.10	0	8.7990	0	32.3900	0	25.107	0	55.624	0	279.4	4	97.3	4	-1E+10	1	-1E+10	1	-1E+10	1	-1E+10	1	-1E+10	1	-1E+10	1
4902551	109	C	08/22/2023	01:08	-131.221	47.473	0	57.10	0	8.7240	0	32.3910	0	25.119	0	56.616	0	278.4	4	96.8	4	-1E+10	1	-1E+10	1	-1E+10	1	-1E+10	1	-1E+10	1	-1E+10	1
4902551	109	C	08/22/2023	01:08	-131.221	47.473	0	58.10	0	8.6650	0	32.3970	0	25.133	0	57.607	0	277.5	4	96.3	4	-1E+10	1	-1E+10	1	-1E+10	1	-1E+10	1	-1E+10	1	-1E+10	1
4902551	109	C	08/22/2023	01:08	-131.221	47.473	0	59.10	0	8.6190	0	32.3950	0	25.138	0	58.599	0	276.7	4	95.9	4	-1E+10	1	-1E+10	1	-1E+10	1	-1E+10	1	-1E+10	1	-1E+10	1
4902551	109	C	08/22/2023	01:08	-131.221	47.473	0	60.40	0	8.5600	0	32.3980	0	25.150	0	59.887	0	275.4	4	95.4	4	-1E+10	1	-1E+10	1	-1E+10	1	-1E+10	1	-1E+10	1	-1E+10	1
4902551	109	C	08/22/2023	01:08	-131.221	47.473	0	61.10	0	8.5560	0	32.3960	0	25.149	0	60.581	0	274.5	4	95.0	4	-1E+10	1	-1E+10	1	-1E+10	1	-1E+10	1	-1E+10	1	-1E+10	1
4902551	109	C	08/22/2023	01:08	-131.221	47.473	0	62.30	0	8.5310	0	32.4040	0	25.159	0	61.771	0	272.8	4	94.4	4	-1E+10	1	-1E+10	1	-1E+10	1	-1E+10	1	-1E+10	1	-1E+10	1
4902551	109	C	08/22/2023	01:08	-131.221	47.473	0	63.20	0	8.4880	0	32.4060	0	25.167	0	62.663	0	271.7	4	93.9	4	-1E+10	1	-1E+10	1	-1E+10	1	-1E+10	1	-1E+10	1	-1E+10	1
4902551	109	C	08/22/2023	01:08	-131.221	47.473	0	64.10	0	8.4160	0	32.4100	0	25.181	0	63.555	0	271.1	4	93.6	4	-1E+10	1	-1E+10	1	-1E+10	1	-1E+10	1	-1E+10	1	-1E+10	1
4902551	109	C	08/22/2023	01:08	-131.221	47.473	0	64.90	0	8.3450	0	32.4060	0	25.188	0	64.348	0	270.6	4	93.3	4	-1E+10	1	-1E+10	1	-1E+10	1	-1E+10	1	-1E+10	1	-1E+10	1
4902551	109	C	08/22/2023	01:08	-131.221	47.473	0	66.20	0	8.2760	0	32.4070	0	25.199	0	65.637	0	270.0	4	92.9	4	-1E+10	1	-1E+10	1	-1E+10	1	-1E+10	1	-1E+10	1	-1E+10	1
4902551	109	C	08/22/2023	01:08	-131.221	47.473	0	67.00	0	8.2660	0	32.4060	0	25.200	0	66.430	0	269.3	4	92.7	4	-1E+10	1	-1E+10	1	-1E+10	1	-1E+10	1	-1E+10	1	-1E+10	1
4902551	109	C	08/22/2023	01:08	-131.221	47.473	0	68.00	0	8.2000	0	32.4060	0	25.209	0	67.422	0	268.7	4	92.3	4	-1E+10	1	-1E+10	1	-1E+10	1	-1E+10	1	-1E+10	1	-1E+10	1
4902551	109	C	08/22/2023	01:08	-131.221	47.473	0	68.90	0	8.1210	0	32.4020	0	25.218	0	68.314	0	268.5	4	92.1	4	-1E+10	1	-1E+10	1	-1E+10	1	-1E+10	1	-1E+10	1	-1E+10	1
4902551	109	C	08/22/2023	01:08	-131.221	47.473	0	69.80	0	8.0630	0	32.4010	0	25.225	0	69.206	0	268.3	4	91.9	4	-1E+10	1	-1E+10	1	-1E+10	1	-1E+10	1	-1E+10	1	-1E+10	1
4902551	109	C	08/22/2023	01:08	-131.221	47.473	0	70.70	0	8.0180	0	32.3970	0	25.229	0	70.098	0	268.1	4	91.7	4	-1E+10	1	-1E+10	1	-1E+10	1	-1E+10	1	-1E+10	1	-1E+10	1
4902551	109	C	08/22/2023	01:08	-131.221	47.473	0	71.70	0	8.0110	0	32.3950	0	25.228	0	71.089	0	267.7	4	91.6	4	-1E+10	1	-1E+10	1	-1E+10	1	-1E+10	1	-1E+10	1	-1E+10	1
4902551	109	C	08/22/2023	01:08	-131.221	47.473	0	72.70	0	8.0100	0	32.3990	0	25.231	0	72.081	0	267.5	4	91.5	4	-1E+10	1	-1E+10	1	-1E+10	1	-1E+10	1	-1E+10	1	-1E+10	1
4902551	109	C	08/22/2023	01:08	-131.221	47.473	0	73.70	0	7.9670	0	32.4010	0	25.239	0	73.072	0	267.4	4	91.4	4	-1E+10	1	-1E+10	1	-1E+10	1	-1E+10	1	-1E+10	1	-1E+10	1
4902551	109	C	08/22/2023	01:08	-131.221	47.473	0	74.70	0	7.9390	0	32.3980	0	25.241	0	74.063	0	267.3	4	91.3	4	-1E+10	1	-1E+10	1	-1E+10	1	-1E+10	1	-1E+10	1	-1E+10	1
4902551	109	C	08/22/2023	01:08	-131.221	47.473	0	75.80	0	7.9180	0	32.3970	0	25.243	0	75.154	0	267.2	4	91.2	4	-1E+10	1	-1E+10	1	-1E+10	1	-1E+10	1	-1E+10	1	-1E+10	1
4902551	109	C	08/22/2023	01:08	-131.221	47.473	0	76.90	0	7.8930	0	32.3940	0	25.244	0	76.244	0	267.0	4	91.1	4	-1E+10	1	-1E+10	1	-1E+10	1	-1E+10	1	-1E+10	1	-1E+10	1
4902551	109	C	08/22/2023	01:08	-131.221	47.473	0	77.90	0	7.8850	0	32.3960	0	25.247	0	77.235	0	267.0	4	91.1	4	-1E+10	1	-1E+10	1	-1E+10	1	-1E+10	1	-1E+10	1	-1E+10	1
4902551	109	C	08/22/2023	01:08	-131.221	47.473	0	79.00	0	7.8730	0	32.3970	0	25.250	0	78.326	0	266.8	4	91.0	4	-1E+10	1	-1E+10	1	-1E+10	1	-1E+10	1	-1E+10	1	-1E+10	1
4902551	109	C	08/22/2023	01:08	-131.221	47.473	0	80.00	0	7.8380	0	32.3980	0	25.255	0	79.317	0	266.8	4	90.9	4	-1E+10	1	-1E+10	1	-1E+10	1	-1E+10	1	-1E+10	1	-1E+10	1
4902551	109	C	08/22/2023	01:08	-131.221	47.473	0	81.10	0	7.8190	0	32.3960	0	25.257	0	80.408	0	266.7	4	90.8	4	-1E+10	1	-1E+10	1	-1E+10	1	-1E+10	1	-1E+10	1	-1E+10	1
4902551	109	C	08/22/2023	01:08	-131.221	47.473	0	82.10	0	7.8220	0	32.3990	0	25.259	0	81.399	0	266.5	4	90.8	4	-1E+10	1	-1E+10	1	-1E+10	1	-1E+10	1	-1E+10	1	-1E+10	1
4902551	109	C	08/22/2023	01:08	-131.221	47.473	0	83.10	0	7.8260	0	32.4060	0	25.263	0	82.390	0	273.2	4	93.1	4	-1E+10	1	-1E+10	1	-1E+10	1	-1E+10	1	-1E+10	1	-1E+10	1
4902551	109	C	08/22/2023	01:08	-131.221	47.473	0	84.10	0	7.8070	0	32.4080	0	25.268	0	83.381	0	273.0	4	93.0	4	-1E+10	1	-1E+10	1	-1E+10	1	-1E+10	1	-1E+10	1	-1E+10	1
4902551	109	C	08/22/2023	01:08	-131.221	47.473	0	85.10	0	7.7980	0	32.4090	0	25.270	0	84.373	0	272.8	4	92.9	4	-1E+10	1	-1E+10	1	-1E+10	1	-1E+10	1	-1E+10	1	-1E+10	1
4902551	109	C	08/22/2023	01:08	-131.221	47.473	0	86.10	0	7.7810	0	32.4100	0	25.273	0	85.364	0	272.5	4	92.8	4	-1E+10	1	-1E+10	1	-1E+10	1	-1E+10	1	-1E+10	1	-1E+10	1
4902551	109	C	08/22/2023	01:08	-131.221	47.473	0	87.10	0	7.7720	0	32.4090	0	25.274	0	86.355	0	272.2	4	92.6	4	-1E+10	1	-1E+10	1	-1E+10	1	-1E+10	1	-1E+10	1	-1E+10	1
4902551	109	C	08/22/2023	01:08	-131.221	47.473	0	88.00	0	7.7510	0	32.4090	0	25.277	0	87.247	0	271.7	4	92.4	4	-1E+10	1	-1E+10	1	-1E+10	1	-1E+10	1	-1E+10	1	-1E+10	1
4902551	109	C	08/22/2023	01:08	-131.221	47.473	0	89.00	0	7.7260	0	32.4120	0	25.282	0	88.238	0	271.2	4	92.2	4	-1E+10	1	-1E+10	1	-1E+10	1	-1E+10	1	-1E+10	1	-1E+10	1
4902551	109	C	08/22/2023	01:08	-131.221	47.473	0	90.00	0	7.7100	0	32.4120	0	25.285	0	89.230	0	270.8	4	92.0	4	-1E+10	1	-1E+10	1	-1E+10	1	-1E+10	1	-1E+10	1	-1E+10	1
4902551	109	C	08/22/2023	01:08	-131.221	47.473	0	91.00	0	7.7020	0	32.4140	0	25.287	0	90.221	0	270.5	4	91.9	4	-1E+10	1	-1E+10	1	-1E+10	1	-1E+10	1	-1E+10	1	-1E+10	1
4902551	109	C	08/22/2023	01:08	-131.221	47.473	0	92.10	0	7.6880	0	32.4140	0	25.289	0	91.311	0	270.0	4	91.7	4	-1E+10	1	-1E+10	1	-1E+10	1	-1E+10	1	-1E+10	1	-1E+10	1
4902551	109	C	08/22/2023	01:08	-131.221	47.473	0	93.10	0	7.6730	0	32.4150	0	25.292	0	92.302	0	269.5	4	91.5	4	-1E+10	1	-1E+10	1	-1E+10	1	-1E+10	1	-1E+10	1	-1E+10	1
4902551	109	C	08/22/2023	01:08	-131.221	47.473	0	94.00	0	7.6630	0	32.4160	0	25.294	0	93.194	0	269.1	4	91.4	4	-1E+10	1	-1E+10	1	-1E+10	1	-1E+10	1	-1E+10	1	-1E+10	1
4902551	109	C	08/22/2023	01:08	-131.221	47.473	0	94.80	0	7.6500	0	32.4130	0	25.294	0	93.987	0	268.8	4	91.2	4	-1E+10	1	-1E+10	1	-1E+10	1	-1E+10	1	-1E+10	1	-1E+10	1
4902551	109	C	08/22/2023	01:08	-131.221	47.473	0	96.00	0	7.6180	0	32.4140	0	25.299	0	95.177	0	268.1	4	90.9	4	-1E+10	1	-1E+10	1	-1E+10	1	-1E+10	1	-1E+10	1	-1E+10	1
4902551	109	C	08/22/2023	01:08	-131.221	47.473	0	97.10	0	7.5870	0	32.4120	0	25.302	0	96.267	0	267.5	4	90.7	4	-1E+10	1	-1E+10	1	-1E+10	1	-1E+10	1	-1E+10	1	-1E+10	1
4902551	109	C	08/22/2023	01:08	-131.221	47.473	0	98.00	0	7.5710	0	32.4110	0	25.303	0	97.159	0	266.9	4	90.4	4	-1E+10	1	-1E+10	1	-1E+10	1	-1E+10	1	-1E+10	1	-1E+10	1
4902551	109	C	08/22/2023	01:08	-131.221	47.473	0	98.90	0	7.5410	0	32.4140	0	25.310	0	98.051	0	266.2	4	90.1	4	-1E+10	1	-1E+10	1	-1E+10	1	-1E+10	1	-1E+10	1	-1E+10	1
4902551	109	C	08/22/2023	01:08	-131.221	47.473	0	100.10	0	7.5340	0	32.4160	0	25.313	0	99.241	0	265.2	4	89.7	4	-1E+10	1	-1E+10	1	-1E+10	1	-1E+10	1	-1E+10	1	-1E+10	1
4902551	109	C	08/22/2023	01:08	-131.221	47.473	0	101.10	0	7.5250	0	32.4180	0	25.315	0	100.232	0	264.3	4	89.4	4	-1E+10	1	-1E+10	1	-1E+10	1	-1E+10	1	-1E+10	1	-1E+10	1
4902551	109	C	08/22/2023	01:08	-131.221	47.473	0	102.00	0	7.5130	0	32.4180	0	25.317	0	101.124	0	263.3	4	89.1	4	-1E+10	1	-1E+10	1	-1E+10	1	-1E+10	1	-1E+10	1	-1E+10	1
4902551	109	C	08/22/2023	01:08	-131.221	47.473	0	102.90	0	7.5120	0	32.4210	0	25.320	0	102.016	0	262.3	4	88.8	4	-1E+10	1	-1E+10	1	-1E+10	1	-1E+10	1	-1E+10	1	-1E+10	1
4902551	109	C	08/22/2023	01:08	-131.221	47.473	0	103.80	0	7.4970	0	32.4230	0	25.323	0	102.908	0	261.2	4	88.3	4	-1E+10	1	-1E+10	1	-1E+10	1	-1E+10	1	-1E+10	1	-1E+10	1
4902551	109	C	08/22/2023	01:08	-131.221	47.473	0	105.00	0	7.4810	0	32.4330	0	25.333	0	104.097	0	259.5	4	87.7	4	-1E+10	1	-1E+10	1	-1E+10	1	-1E+10	1	-1E+10	1	-1E+10	1
4902551	109	C	08/22/2023	01:08	-131.221	47.473	0	106.10	0	7.4630	0	32.4390	0	25.341	0	105.188	0	257.7	4	87.1	4	-1E+10	1	-1E+10	1	-1E+10	1	-1E+10	1	-1E+10	1	-1E+10	1
4902551	109	C	08/22/2023	01:08	-131.221	47.473	0	107.10	0	7.4740	0	32.4620	0	25.357	0	106.179	0	255.8	4	86.5	4	-1E+10	1	-1E+10	1	-1E+10	1	-1E+10	1	-1E+10	1	-1E+10	1
4902551	109	C	08/22/2023	01:08	-131.221	47.473	0	108.10	0	7.4710	0	32.4850	0	25.376	0	107.170	0	254.2	4	86.0	4	-1E+10	1	-1E+10	1	-1E+10	1	-1E+10	1	-1E+10	1	-1E+10	1
4902551	109	C	08/22/2023	01:08	-131.221	47.473	0	109.00	0	7.4630	0	32.4960	0	25.385	0	108.062	0	252.8	4	85.5	4	-1E+10	1	-1E+10	1	-1E+10	1	-1E+10	1	-1E+10	1	-1E+10	1
4902551	109	C	08/22/2023	01:08	-131.221	47.473	0	110.00	0	7.4230	0	32.5510	0	25.434	0	109.053	0	250.7	4	84.7	4	-1E+10	1	-1E+10	1	-1E+10	1	-1E+10	1	-1E+10	1	-1E+10	1
4902551	109	C	08/22/2023	01:08	-131.221	47.473	0	110.80	0	7.4180	0	32.5570	0	25.440	0	109.846	0	248.9	4	84.1	4	-1E+10	1	-1E+10	1	-1E+10	1	-1E+10	1	-1E+10	1	-1E+10	1
4902551	109	C	08/22/2023	01:08	-131.221	47.473	0	112.00	0	7.4110	0	32.5700	0	25.451	0	111.035	0	245.9	4	83.1	4	-1E+10	1	-1E+10	1	-1E+10	1	-1E+10	1	-1E+10	1	-1E+10	1
4902551	109	C	08/22/2023	01:08	-131.221	47.473	0	112.90	0	7.3990	0	32.5930	0	25.471	0	111.927	0	243.8	4	82.4	4	-1E+10	1	-1E+10	1	-1E+10	1	-1E+10	1	-1E+10	1	-1E+10	1
4902551	109	C	08/22/2023	01:08	-131.221	47.473	0	113.90	0	7.3780	0	32.6200	0	25.495	0	112.919	0	241.4	4	81.5	4	-1E+10	1	-1E+10	1	-1E+10	1	-1E+10	1	-1E+10	1	-1E+10	1
4902551	109	C	08/22/2023	01:08	-131.221	47.473	0	115.10	0	7.3480	0	32.6490	0	25.522	0	114.108	0	239.3	4	80.8	4	-1E+10	1	-1E+10	1	-1E+10	1	-1E+10	1	-1E+10	1	-1E+10	1
4902551	109	C	08/22/2023	01:08	-131.221	47.473	0	116.10	0	7.3310	0	32.6700	0	25.541	0	115.099	0	237.2	4	80.1	4	-1E+10	1	-1E+10	1	-1E+10	1	-1E+10	1	-1E+10	1	-1E+10	1
4902551	109	C	08/22/2023	01:08	-131.221	47.473	0	117.00	0	7.3110	0	32.6940	0	25.562	0	115.991	0	234.8	4	79.2	4	-1E+10	1	-1E+10	1	-1E+10	1	-1E+10	1	-1E+10	1	-1E+10	1
4902551	109	C	08/22/2023	01:08	-131.221	47.473	0	118.10	0	7.2820	0	32.7330	0	25.597	0	117.081	0	231.7	4	78.2	4	-1E+10	1	-1E+10	1	-1E+10	1	-1E+10	1	-1E+10	1	-1E+10	1
4902551	109	C	08/22/2023	01:08	-131.221	47.473	0	118.90	0	7.2500	0	32.7660	0	25.627	0	117.874	0	230.0	4	77.6	4	-1E+10	1	-1E+10	1	-1E+10	1	-1E+10	1	-1E+10	1	-1E+10	1
4902551	109	C	08/22/2023	01:08	-131.221	47.473	0	119.80	0	7.2320	0	32.7820	0	25.642	0	118.766	0	227.6	4	76.7	4	-1E+10	1	-1E+10	1	-1E+10	1	-1E+10	1	-1E+10	1	-1E+10	1
4902551	109	C	08/22/2023	01:08	-131.221	47.473	0	121.00	0	7.2080	0	32.8090	0	25.667	0	119.955	0	224.0	4	75.5	4	-1E+10	1	-1E+10	1	-1E+10	1	-1E+10	1	-1E+10	1	-1E+10	1
4902551	109	C	08/22/2023	01:08	-131.221	47.473	0	122.00	0	7.1820	0	32.8420	0	25.696	0	120.946	0	221.6	4	74.6	4	-1E+10	1	-1E+10	1	-1E+10	1	-1E+10	1	-1E+10	1	-1E+10	1
4902551	109	C	08/22/2023	01:08	-131.221	47.473	0	122.90	0	7.1540	0	32.9010	0	25.746	0	121.838	0	219.6	4	73.9	4	-1E+10	1	-1E+10	1	-1E+10	1	-1E+10	1	-1E+10	1	-1E+10	1
4902551	109	C	08/22/2023	01:08	-131.221	47.473	0	124.00	0	7.0900	0	32.9440	0	25.789	0	122.928	0	217.7	4	73.2	4	-1E+10	1	-1E+10	1	-1E+10	1	-1E+10	1	-1E+10	1	-1E+10	1
4902551	109	C	08/22/2023	01:08	-131.221	47.473	0	124.80	0	7.0670	0	32.9510	0	25.798	0	123.721	0	216.4	4	72.7	4	-1E+10	1	-1E+10	1	-1E+10	1	-1E+10	1	-1E+10	1	-1E+10	1
4902551	109	C	08/22/2023	01:08	-131.221	47.473	0	125.80	0	7.0490	0	32.9600	0	25.807	0	124.712	0	214.0	4	71.9	4	-1E+10	1	-1E+10	1	-1E+10	1	-1E+10	1	-1E+10	1	-1E+10	1
4902551	109	C	08/22/2023	01:08	-131.221	47.473	0	126.90	0	7.0060	0	32.9960	0	25.841	0	125.803	0	211.1	4	70.9	4	-1E+10	1	-1E+10	1	-1E+10	1	-1E+10	1	-1E+10	1	-1E+10	1
4902551	109	C	08/22/2023	01:08	-131.221	47.473	0	127.90	0	6.9900	0	33.0090	0	25.854	0	126.794	0	207.8	4	69.8	4	-1E+10	1	-1E+10	1	-1E+10	1	-1E+10	1	-1E+10	1	-1E+10	1
4902551	109	C	08/22/2023	01:08	-131.221	47.473	0	129.00	0	6.9370	0	33.0510	0	25.894	0	127.884	0	203.9	4	68.4	4	-1E+10	1	-1E+10	1	-1E+10	1	-1E+10	1	-1E+10	1	-1E+10	1
4902551	109	C	08/22/2023	01:08	-131.221	47.473	0	130.00	0	6.8970	0	33.0850	0	25.926	0	128.875	0	200.3	4	67.1	4	-1E+10	1	-1E+10	1	-1E+10	1	-1E+10	1	-1E+10	1	-1E+10	1
4902551	109	C	08/22/2023	01:08	-131.221	47.473	0	131.10	0	6.8430	0	33.1360	0	25.973	0	129.965	0	196.1	4	65.7	4	-1E+10	1	-1E+10	1	-1E+10	1	-1E+10	1	-1E+10	1	-1E+10	1
4902551	109	C	08/22/2023	01:08	-131.221	47.473	0	131.80	0	6.8810	0	33.1640	0	25.990	0	130.659	0	192.9	4	64.7	4	-1E+10	1	-1E+10	1	-1E+10	1	-1E+10	1	-1E+10	1	-1E+10	1
4902551	109	C	08/22/2023	01:08	-131.221	47.473	0	132.80	0	6.9100	0	33.1880	0	26.005	0	131.650	0	188.0	4	63.1	4	-1E+10	1	-1E+10	1	-1E+10	1	-1E+10	1	-1E+10	1	-1E+10	1
4902551	109	C	08/22/2023	01:08	-131.221	47.473	0	133.90	0	6.9310	0	33.2010	0	26.013	0	132.740	0	182.6	4	61.3	4	-1E+10	1	-1E+10	1	-1E+10	1	-1E+10	1	-1E+10	1	-1E+10	1
4902551	109	C	08/22/2023	01:08	-131.221	47.473	0	134.90	0	6.9760	0	33.2550	0	26.049	0	133.731	0	177.5	4	59.7	4	-1E+10	1	-1E+10	1	-1E+10	1	-1E+10	1	-1E+10	1	-1E+10	1
4902551	109	C	08/22/2023	01:08	-131.221	47.473	0	136.00	0	7.0100	0	33.3000	0	26.080	0	134.821	0	173.6	4	58.4	4	-1E+10	1	-1E+10	1	-1E+10	1	-1E+10	1	-1E+10	1	-1E+10	1
4902551	109	C	08/22/2023	01:08	-131.221	47.473	0	136.70	0	7.0110	0	33.3100	0	26.088	0	135.515	0	171.0	4	57.6	4	-1E+10	1	-1E+10	1	-1E+10	1	-1E+10	1	-1E+10	1	-1E+10	1
4902551	109	C	08/22/2023	01:08	-131.221	47.473	0	137.80	0	7.0010	0	33.3740	0	26.140	0	136.605	0	167.6	4	56.4	4	-1E+10	1	-1E+10	1	-1E+10	1	-1E+10	1	-1E+10	1	-1E+10	1
4902551	109	C	08/22/2023	01:08	-131.221	47.473	0	139.00	0	6.9710	0	33.3880	0	26.155	0	137.794	0	163.7	4	55.1	4	-1E+10	1	-1E+10	1	-1E+10	1	-1E+10	1	-1E+10	1	-1E+10	1
4902551	109	C	08/22/2023	01:08	-131.221	47.473	0	139.80	0	6.9840	0	33.4270	0	26.184	0	138.587	0	160.7	4	54.1	4	-1E+10	1	-1E+10	1	-1E+10	1	-1E+10	1	-1E+10	1	-1E+10	1
4902551	109	C	08/22/2023	01:08	-131.221	47.473	0	140.90	0	7.0530	0	33.4580	0	26.199	0	139.677	0	157.2	4	53.0	4	-1E+10	1	-1E+10	1	-1E+10	1	-1E+10	1	-1E+10	1	-1E+10	1
4902551	109	C	08/22/2023	01:08	-131.221	47.473	0	142.10	0	7.1170	0	33.5030	0	26.226	0	140.866	0	154.3	4	52.2	4	-1E+10	1	-1E+10	1	-1E+10	1	-1E+10	1	-1E+10	1	-1E+10	1
4902551	109	C	08/22/2023	01:08	-131.221	47.473	0	142.90	0	7.1120	0	33.5390	0	26.255	0	141.659	0	153.0	4	51.7	4	-1E+10	1	-1E+10	1	-1E+10	1	-1E+10	1	-1E+10	1	-1E+10	1
4902551	109	C	08/22/2023	01:08	-131.221	47.473	0	143.70	0	7.1100	0	33.5470	0	26.261	0	142.451	0	151.6	4	51.3	4	-1E+10	1	-1E+10	1	-1E+10	1	-1E+10	1	-1E+10	1	-1E+10	1
4902551	109	C	08/22/2023	01:08	-131.221	47.473	0	144.60	0	7.1050	0	33.5720	0	26.282	0	143.343	0	150.3	4	50.8	4	-1E+10	1	-1E+10	1	-1E+10	1	-1E+10	1	-1E+10	1	-1E+10	1
4902551	109	C	08/22/2023	01:08	-131.221	47.473	0	145.90	0	7.1240	0	33.6000	0	26.301	0	144.632	0	148.9	4	50.4	4	-1E+10	1	-1E+10	1	-1E+10	1	-1E+10	1	-1E+10	1	-1E+10	1
4902551	109	C	08/22/2023	01:08	-131.221	47.473	0	147.20	0	7.1210	0	33.6120	0	26.311	0	145.920	0	147.6	4	49.9	4	-1E+10	1	-1E+10	1	-1E+10	1	-1E+10	1	-1E+10	1	-1E+10	1
4902551	109	C	08/22/2023	01:08	-131.221	47.473	0	148.00	0	7.1190	0	33.6170	0	26.315	0	146.713	0	146.7	4	49.6	4	-1E+10	1	-1E+10	1	-1E+10	1	-1E+10	1	-1E+10	1	-1E+10	1
4902551	109	C	08/22/2023	01:08	-131.221	47.473	0	148.90	0	7.1170	0	33.6210	0	26.319	0	147.604	0	145.9	4	49.3	4	-1E+10	1	-1E+10	1	-1E+10	1	-1E+10	1	-1E+10	1	-1E+10	1
4902551	109	C	08/22/2023	01:08	-131.221	47.473	0	149.70	0	7.1130	0	33.6390	0	26.333	0	148.397	0	145.0	4	49.1	4	-1E+10	1	-1E+10	1	-1E+10	1	-1E+10	1	-1E+10	1	-1E+10	1
4902551	109	C	08/22/2023	01:08	-131.221	47.473	0	150.80	0	7.1270	0	33.6590	0	26.347	0	149.487	0	144.3	4	48.8	4	-1E+10	1	-1E+10	1	-1E+10	1	-1E+10	1	-1E+10	1	-1E+10	1
4902551	109	C	08/22/2023	01:08	-131.221	47.473	0	151.80	0	7.1130	0	33.6640	0	26.353	0	150.478	0	143.7	4	48.6	4	-1E+10	1	-1E+10	1	-1E+10	1	-1E+10	1	-1E+10	1	-1E+10	1
4902551	109	C	08/22/2023	01:08	-131.221	47.473	0	153.00	0	7.1030	0	33.6720	0	26.361	0	151.667	0	143.0	4	48.4	4	-1E+10	1	-1E+10	1	-1E+10	1	-1E+10	1	-1E+10	1	-1E+10	1
4902551	109	C	08/22/2023	01:08	-131.221	47.473	0	153.80	0	7.0970	0	33.6760	0	26.365	0	152.460	0	142.5	4	48.2	4	-1E+10	1	-1E+10	1	-1E+10	1	-1E+10	1	-1E+10	1	-1E+10	1
4902551	109	C	08/22/2023	01:08	-131.221	47.473	0	154.90	0	7.0750	0	33.6850	0	26.375	0	153.550	0	141.5	4	47.9	4	-1E+10	1	-1E+10	1	-1E+10	1	-1E+10	1	-1E+10	1	-1E+10	1
4902551	109	C	08/22/2023	01:08	-131.221	47.473	0	156.10	0	7.0680	0	33.6910	0	26.381	0	154.739	0	140.5	4	47.5	4	-1E+10	1	-1E+10	1	-1E+10	1	-1E+10	1	-1E+10	1	-1E+10	1
4902551	109	C	08/22/2023	01:08	-131.221	47.473	0	157.00	0	7.0700	0	33.6940	0	26.383	0	155.631	0	139.5	4	47.2	4	-1E+10	1	-1E+10	1	-1E+10	1	-1E+10	1	-1E+10	1	-1E+10	1
4902551	109	C	08/22/2023	01:08	-131.221	47.473	0	157.80	0	7.0720	0	33.6940	0	26.382	0	156.424	0	138.6	4	46.9	4	-1E+10	1	-1E+10	1	-1E+10	1	-1E+10	1	-1E+10	1	-1E+10	1
4902551	109	C	08/22/2023	01:08	-131.221	47.473	0	158.60	0	7.0920	0	33.7030	0	26.387	0	157.216	0	137.9	4	46.6	4	-1E+10	1	-1E+10	1	-1E+10	1	-1E+10	1	-1E+10	1	-1E+10	1
4902551	109	C	08/22/2023	01:08	-131.221	47.473	0	159.90	0	7.1010	0	33.7100	0	26.391	0	158.504	0	137.1	4	46.4	4	-1E+10	1	-1E+10	1	-1E+10	1	-1E+10	1	-1E+10	1	-1E+10	1
4902551	109	C	08/22/2023	01:08	-131.221	47.473	0	161.20	0	7.1140	0	33.7170	0	26.395	0	159.793	0	136.5	4	46.2	4	-1E+10	1	-1E+10	1	-1E+10	1	-1E+10	1	-1E+10	1	-1E+10	1
4902551	109	C	08/22/2023	01:08	-131.221	47.473	0	162.10	0	7.1220	0	33.7210	0	26.397	0	160.684	0	136.1	4	46.1	4	-1E+10	1	-1E+10	1	-1E+10	1	-1E+10	1	-1E+10	1	-1E+10	1
4902551	109	C	08/22/2023	01:08	-131.221	47.473	0	163.00	0	7.1110	0	33.7300	0	26.405	0	161.576	0	136.0	4	46.0	4	-1E+10	1	-1E+10	1	-1E+10	1	-1E+10	1	-1E+10	1	-1E+10	1
4902551	109	C	08/22/2023	01:08	-131.221	47.473	0	163.90	0	7.0970	0	33.7320	0	26.409	0	162.468	0	135.7	4	45.9	4	-1E+10	1	-1E+10	1	-1E+10	1	-1E+10	1	-1E+10	1	-1E+10	1
4902551	109	C	08/22/2023	01:08	-131.221	47.473	0	164.90	0	7.0920	0	33.7310	0	26.409	0	163.459	0	135.4	4	45.8	4	-1E+10	1	-1E+10	1	-1E+10	1	-1E+10	1	-1E+10	1	-1E+10	1
4902551	109	C	08/22/2023	01:08	-131.221	47.473	0	165.80	0	7.0870	0	33.7320	0	26.410	0	164.351	0	135.1	4	45.7	4	-1E+10	1	-1E+10	1	-1E+10	1	-1E+10	1	-1E+10	1	-1E+10	1
4902551	109	C	08/22/2023	01:08	-131.221	47.473	0	166.80	0	7.0860	0	33.7330	0	26.411	0	165.341	0	134.7	4	45.6	4	-1E+10	1	-1E+10	1	-1E+10	1	-1E+10	1	-1E+10	1	-1E+10	1
4902551	109	C	08/22/2023	01:08	-131.221	47.473	0	167.70	0	7.0850	0	33.7360	0	26.414	0	166.233	0	134.4	4	45.5	4	-1E+10	1	-1E+10	1	-1E+10	1	-1E+10	1	-1E+10	1	-1E+10	1
4902551	109	C	08/22/2023	01:08	-131.221	47.473	0	168.70	0	7.0700	0	33.7420	0	26.421	0	167.224	0	134.1	4	45.4	4	-1E+10	1	-1E+10	1	-1E+10	1	-1E+10	1	-1E+10	1	-1E+10	1
4902551	109	C	08/22/2023	01:08	-131.221	47.473	0	169.70	0	7.0470	0	33.7440	0	26.425	0	168.215	0	133.8	4	45.2	4	-1E+10	1	-1E+10	1	-1E+10	1	-1E+10	1	-1E+10	1	-1E+10	1
4902551	109	C	08/22/2023	01:08	-131.221	47.473	0	170.70	0	7.0430	0	33.7450	0	26.427	0	169.206	0	133.3	4	45.1	4	-1E+10	1	-1E+10	1	-1E+10	1	-1E+10	1	-1E+10	1	-1E+10	1
4902551	109	C	08/22/2023	01:08	-131.221	47.473	0	171.70	0	7.0400	0	33.7460	0	26.428	0	170.197	0	133.0	4	44.9	4	-1E+10	1	-1E+10	1	-1E+10	1	-1E+10	1	-1E+10	1	-1E+10	1
4902551	109	C	08/22/2023	01:08	-131.221	47.473	0	172.70	0	7.0370	0	33.7490	0	26.431	0	171.187	0	132.6	4	44.8	4	-1E+10	1	-1E+10	1	-1E+10	1	-1E+10	1	-1E+10	1	-1E+10	1
4902551	109	C	08/22/2023	01:08	-131.221	47.473	0	173.70	0	7.0350	0	33.7540	0	26.435	0	172.178	0	132.3	4	44.7	4	-1E+10	1	-1E+10	1	-1E+10	1	-1E+10	1	-1E+10	1	-1E+10	1
4902551	109	C	08/22/2023	01:08	-131.221	47.473	0	174.80	0	7.0240	0	33.7600	0	26.441	0	173.268	0	131.9	4	44.6	4	-1E+10	1	-1E+10	1	-1E+10	1	-1E+10	1	-1E+10	1	-1E+10	1
4902551	109	C	08/22/2023	01:08	-131.221	47.473	0	175.80	0	7.0190	0	33.7600	0	26.442	0	174.259	0	131.6	4	44.5	4	-1E+10	1	-1E+10	1	-1E+10	1	-1E+10	1	-1E+10	1	-1E+10	1
4902551	109	C	08/22/2023	01:08	-131.221	47.473	0	176.80	0	7.0120	0	33.7650	0	26.447	0	175.250	0	131.3	4	44.3	4	-1E+10	1	-1E+10	1	-1E+10	1	-1E+10	1	-1E+10	1	-1E+10	1
4902551	109	C	08/22/2023	01:08	-131.221	47.473	0	177.80	0	6.9910	0	33.7670	0	26.451	0	176.241	0	131.0	4	44.2	4	-1E+10	1	-1E+10	1	-1E+10	1	-1E+10	1	-1E+10	1	-1E+10	1
4902551	109	C	08/22/2023	01:08	-131.221	47.473	0	178.90	0	6.9780	0	33.7710	0	26.456	0	177.330	0	130.7	4	44.1	4	-1E+10	1	-1E+10	1	-1E+10	1	-1E+10	1	-1E+10	1	-1E+10	1
4902551	109	C	08/22/2023	01:08	-131.221	47.473	0	179.90	0	6.9570	0	33.7770	0	26.464	0	178.321	0	130.6	4	44.1	4	-1E+10	1	-1E+10	1	-1E+10	1	-1E+10	1	-1E+10	1	-1E+10	1
4902551	109	C	08/22/2023	01:08	-131.221	47.473	0	181.00	0	6.9380	0	33.7820	0	26.470	0	179.411	0	130.4	4	44.0	4	-1E+10	1	-1E+10	1	-1E+10	1	-1E+10	1	-1E+10	1	-1E+10	1
4902551	109	C	08/22/2023	01:08	-131.221	47.473	0	182.10	0	6.9100	0	33.7850	0	26.476	0	180.501	0	130.2	4	43.9	4	-1E+10	1	-1E+10	1	-1E+10	1	-1E+10	1	-1E+10	1	-1E+10	1
4902551	109	C	08/22/2023	01:08	-131.221	47.473	0	183.10	0	6.9000	0	33.7870	0	26.479	0	181.492	0	130.0	4	43.8	4	-1E+10	1	-1E+10	1	-1E+10	1	-1E+10	1	-1E+10	1	-1E+10	1
4902551	109	C	08/22/2023	01:08	-131.221	47.473	0	184.10	0	6.9020	0	33.7890	0	26.481	0	182.483	0	129.9	4	43.8	4	-1E+10	1	-1E+10	1	-1E+10	1	-1E+10	1	-1E+10	1	-1E+10	1
4902551	109	C	08/22/2023	01:08	-131.221	47.473	0	185.20	0	6.8970	0	33.7920	0	26.484	0	183.572	0	129.8	4	43.7	4	-1E+10	1	-1E+10	1	-1E+10	1	-1E+10	1	-1E+10	1	-1E+10	1
4902551	109	C	08/22/2023	01:08	-131.221	47.473	0	186.30	0	6.8960	0	33.7910	0	26.483	0	184.662	0	129.6	4	43.7	4	-1E+10	1	-1E+10	1	-1E+10	1	-1E+10	1	-1E+10	1	-1E+10	1
4902551	109	C	08/22/2023	01:08	-131.221	47.473	0	187.30	0	6.8800	0	33.7950	0	26.488	0	185.653	0	129.5	4	43.6	4	-1E+10	1	-1E+10	1	-1E+10	1	-1E+10	1	-1E+10	1	-1E+10	1
4902551	109	C	08/22/2023	01:08	-131.221	47.473	0	188.30	0	6.8540	0	33.7910	0	26.489	0	186.644	0	129.1	4	43.5	4	-1E+10	1	-1E+10	1	-1E+10	1	-1E+10	1	-1E+10	1	-1E+10	1
4902551	109	C	08/22/2023	01:08	-131.221	47.473	0	189.40	0	6.8080	0	33.7970	0	26.500	0	187.734	0	128.7	4	43.3	4	-1E+10	1	-1E+10	1	-1E+10	1	-1E+10	1	-1E+10	1	-1E+10	1
4902551	109	C	08/22/2023	01:08	-131.221	47.473	0	190.40	0	6.8110	0	33.8020	0	26.503	0	188.724	0	128.3	4	43.2	4	-1E+10	1	-1E+10	1	-1E+10	1	-1E+10	1	-1E+10	1	-1E+10	1
4902551	109	C	08/22/2023	01:08	-131.221	47.473	0	191.50	0	6.8110	0	33.8030	0	26.504	0	189.814	0	128.1	4	43.1	4	-1E+10	1	-1E+10	1	-1E+10	1	-1E+10	1	-1E+10	1	-1E+10	1
4902551	109	C	08/22/2023	01:08	-131.221	47.473	0	192.50	0	6.7900	0	33.8080	0	26.511	0	190.805	0	128.0	4	43.0	4	-1E+10	1	-1E+10	1	-1E+10	1	-1E+10	1	-1E+10	1	-1E+10	1
4902551	109	C	08/22/2023	01:08	-131.221	47.473	0	193.60	0	6.7840	0	33.8070	0	26.511	0	191.895	0	127.9	4	43.0	4	-1E+10	1	-1E+10	1	-1E+10	1	-1E+10	1	-1E+10	1	-1E+10	1
4902551	109	C	08/22/2023	01:08	-131.221	47.473	0	194.60	0	6.7770	0	33.8070	0	26.512	0	192.885	0	127.7	4	42.9	4	-1E+10	1	-1E+10	1	-1E+10	1	-1E+10	1	-1E+10	1	-1E+10	1
4902551	109	C	08/22/2023	01:08	-131.221	47.473	0	195.70	0	6.7680	0	33.8100	0	26.515	0	193.975	0	127.5	4	42.9	4	-1E+10	1	-1E+10	1	-1E+10	1	-1E+10	1	-1E+10	1	-1E+10	1
4902551	109	C	08/22/2023	01:08	-131.221	47.473	0	196.70	0	6.7230	0	33.8130	0	26.524	0	194.966	0	127.2	4	42.7	4	-1E+10	1	-1E+10	1	-1E+10	1	-1E+10	1	-1E+10	1	-1E+10	1
4902551	109	C	08/22/2023	01:08	-131.221	47.473	0	197.70	0	6.7080	0	33.8100	0	26.523	0	195.957	0	126.7	4	42.5	4	-1E+10	1	-1E+10	1	-1E+10	1	-1E+10	1	-1E+10	1	-1E+10	1
4902551	109	C	08/22/2023	01:08	-131.221	47.473	0	198.80	0	6.7030	0	33.8120	0	26.526	0	197.046	0	126.2	4	42.3	4	-1E+10	1	-1E+10	1	-1E+10	1	-1E+10	1	-1E+10	1	-1E+10	1
4902551	109	C	08/22/2023	01:08	-131.221	47.473	0	199.80	0	6.7020	0	33.8120	0	26.526	0	198.037	0	125.7	4	42.2	4	-1E+10	1	-1E+10	1	-1E+10	1	-1E+10	1	-1E+10	1	-1E+10	1
4902551	109	C	08/22/2023	01:08	-131.221	47.473	0	200.80	0	6.6990	0	33.8140	0	26.528	0	199.028	0	125.3	4	42.0	4	-1E+10	1	-1E+10	1	-1E+10	1	-1E+10	1	-1E+10	1	-1E+10	1
4902551	109	C	08/22/2023	01:08	-131.221	47.473	0	201.80	0	6.6990	0	33.8170	0	26.530	0	200.019	0	124.9	4	41.9	4	-1E+10	1	-1E+10	1	-1E+10	1	-1E+10	1	-1E+10	1	-1E+10	1
4902551	109	C	08/22/2023	01:08	-131.221	47.473	0	202.80	0	6.6600	0	33.8180	0	26.536	0	201.009	0	124.4	4	41.7	4	-1E+10	1	-1E+10	1	-1E+10	1	-1E+10	1	-1E+10	1	-1E+10	1
4902551	109	C	08/22/2023	01:08	-131.221	47.473	0	203.90	0	6.6420	0	33.8160	0	26.537	0	202.099	0	123.8	4	41.5	4	-1E+10	1	-1E+10	1	-1E+10	1	-1E+10	1	-1E+10	1	-1E+10	1
4902551	109	C	08/22/2023	01:08	-131.221	47.473	0	204.90	0	6.6540	0	33.8190	0	26.538	0	203.090	0	123.2	4	41.3	4	-1E+10	1	-1E+10	1	-1E+10	1	-1E+10	1	-1E+10	1	-1E+10	1
4902551	109	C	08/22/2023	01:08	-131.221	47.473	0	206.00	0	6.6330	0	33.8210	0	26.542	0	204.179	0	122.6	4	41.1	4	-1E+10	1	-1E+10	1	-1E+10	1	-1E+10	1	-1E+10	1	-1E+10	1
4902551	109	C	08/22/2023	01:08	-131.221	47.473	0	207.00	0	6.6320	0	33.8210	0	26.542	0	205.170	0	121.9	4	40.8	4	-1E+10	1	-1E+10	1	-1E+10	1	-1E+10	1	-1E+10	1	-1E+10	1
4902551	109	C	08/22/2023	01:08	-131.221	47.473	0	208.00	0	6.6310	0	33.8220	0	26.543	0	206.161	0	121.1	4	40.6	4	-1E+10	1	-1E+10	1	-1E+10	1	-1E+10	1	-1E+10	1	-1E+10	1
4902551	109	C	08/22/2023	01:08	-131.221	47.473	0	209.00	0	6.6250	0	33.8230	0	26.545	0	207.151	0	120.4	4	40.3	4	-1E+10	1	-1E+10	1	-1E+10	1	-1E+10	1	-1E+10	1	-1E+10	1
4902551	109	C	08/22/2023	01:08	-131.221	47.473	0	209.90	0	6.6370	0	33.8230	0	26.543	0	208.043	0	119.6	4	40.1	4	-1E+10	1	-1E+10	1	-1E+10	1	-1E+10	1	-1E+10	1	-1E+10	1
4902551	109	C	08/22/2023	01:08	-131.221	47.473	0	210.90	0	6.6360	0	33.8270	0	26.546	0	209.034	0	119.0	4	39.9	4	-1E+10	1	-1E+10	1	-1E+10	1	-1E+10	1	-1E+10	1	-1E+10	1
4902551	109	C	08/22/2023	01:08	-131.221	47.473	0	211.90	0	6.6380	0	33.8350	0	26.553	0	210.024	0	118.5	4	39.7	4	-1E+10	1	-1E+10	1	-1E+10	1	-1E+10	1	-1E+10	1	-1E+10	1
4902551	109	C	08/22/2023	01:08	-131.221	47.473	0	213.00	0	6.6280	0	33.8370	0	26.555	0	211.114	0	118.3	4	39.6	4	-1E+10	1	-1E+10	1	-1E+10	1	-1E+10	1	-1E+10	1	-1E+10	1
4902551	109	C	08/22/2023	01:08	-131.221	47.473	0	214.00	0	6.6270	0	33.8350	0	26.554	0	212.105	0	118.0	4	39.5	4	-1E+10	1	-1E+10	1	-1E+10	1	-1E+10	1	-1E+10	1	-1E+10	1
4902551	109	C	08/22/2023	01:08	-131.221	47.473	0	215.00	0	6.6190	0	33.8380	0	26.557	0	213.095	0	117.8	4	39.4	4	-1E+10	1	-1E+10	1	-1E+10	1	-1E+10	1	-1E+10	1	-1E+10	1
4902551	109	C	08/22/2023	01:08	-131.221	47.473	0	216.00	0	6.6070	0	33.8380	0	26.559	0	214.086	0	117.5	4	39.4	4	-1E+10	1	-1E+10	1	-1E+10	1	-1E+10	1	-1E+10	1	-1E+10	1
4902551	109	C	08/22/2023	01:08	-131.221	47.473	0	217.00	0	6.5850	0	33.8410	0	26.564	0	215.076	0	117.3	4	39.3	4	-1E+10	1	-1E+10	1	-1E+10	1	-1E+10	1	-1E+10	1	-1E+10	1
4902551	109	C	08/22/2023	01:08	-131.221	47.473	0	218.10	0	6.5780	0	33.8420	0	26.566	0	216.166	0	117.2	4	39.2	4	-1E+10	1	-1E+10	1	-1E+10	1	-1E+10	1	-1E+10	1	-1E+10	1
4902551	109	C	08/22/2023	01:08	-131.221	47.473	0	219.10	0	6.5670	0	33.8450	0	26.570	0	217.157	0	117.2	4	39.2	4	-1E+10	1	-1E+10	1	-1E+10	1	-1E+10	1	-1E+10	1	-1E+10	1
4902551	109	C	08/22/2023	01:08	-131.221	47.473	0	220.10	0	6.5560	0	33.8480	0	26.574	0	218.147	0	117.4	4	39.3	4	-1E+10	1	-1E+10	1	-1E+10	1	-1E+10	1	-1E+10	1	-1E+10	1
4902551	109	C	08/22/2023	01:08	-131.221	47.473	0	221.10	0	6.5500	0	33.8480	0	26.574	0	219.138	0	117.7	4	39.4	4	-1E+10	1	-1E+10	1	-1E+10	1	-1E+10	1	-1E+10	1	-1E+10	1
4902551	109	C	08/22/2023	01:08	-131.221	47.473	0	222.20	0	6.5400	0	33.8490	0	26.577	0	220.228	0	118.0	4	39.5	4	-1E+10	1	-1E+10	1	-1E+10	1	-1E+10	1	-1E+10	1	-1E+10	1
4902551	109	C	08/22/2023	01:08	-131.221	47.473	0	223.20	0	6.4700	0	33.8590	0	26.594	0	221.218	0	118.2	4	39.5	4	-1E+10	1	-1E+10	1	-1E+10	1	-1E+10	1	-1E+10	1	-1E+10	1
4902551	109	C	08/22/2023	01:08	-131.221	47.473	0	224.20	0	6.4600	0	33.8420	0	26.582	0	222.209	0	118.1	4	39.4	4	-1E+10	1	-1E+10	1	-1E+10	1	-1E+10	1	-1E+10	1	-1E+10	1
4902551	109	C	08/22/2023	01:08	-131.221	47.473	0	225.30	0	6.4590	0	33.8410	0	26.581	0	223.298	0	118.0	4	39.4	4	-1E+10	1	-1E+10	1	-1E+10	1	-1E+10	1	-1E+10	1	-1E+10	1
4902551	109	C	08/22/2023	01:08	-131.221	47.473	0	226.30	0	6.4580	0	33.8440	0	26.583	0	224.289	0	117.9	4	39.3	4	-1E+10	1	-1E+10	1	-1E+10	1	-1E+10	1	-1E+10	1	-1E+10	1
4902551	109	C	08/22/2023	01:08	-131.221	47.473	0	227.40	0	6.4170	0	33.8440	0	26.589	0	225.379	0	117.6	4	39.2	4	-1E+10	1	-1E+10	1	-1E+10	1	-1E+10	1	-1E+10	1	-1E+10	1
4902551	109	C	08/22/2023	01:08	-131.221	47.473	0	228.40	0	6.3830	0	33.8390	0	26.589	0	226.369	0	117.0	4	39.0	4	-1E+10	1	-1E+10	1	-1E+10	1	-1E+10	1	-1E+10	1	-1E+10	1
4902551	109	C	08/22/2023	01:08	-131.221	47.473	0	229.50	0	6.3830	0	33.8390	0	26.589	0	227.459	0	116.5	4	38.8	4	-1E+10	1	-1E+10	1	-1E+10	1	-1E+10	1	-1E+10	1	-1E+10	1
4902551	109	C	08/22/2023	01:08	-131.221	47.473	0	230.50	0	6.3870	0	33.8420	0	26.591	0	228.449	0	116.1	4	38.7	4	-1E+10	1	-1E+10	1	-1E+10	1	-1E+10	1	-1E+10	1	-1E+10	1
4902551	109	C	08/22/2023	01:08	-131.221	47.473	0	231.60	0	6.3820	0	33.8450	0	26.594	0	229.539	0	115.6	4	38.5	4	-1E+10	1	-1E+10	1	-1E+10	1	-1E+10	1	-1E+10	1	-1E+10	1
4902551	109	C	08/22/2023	01:08	-131.221	47.473	0	232.70	0	6.3520	0	33.8420	0	26.596	0	230.629	0	115.2	4	38.4	4	-1E+10	1	-1E+10	1	-1E+10	1	-1E+10	1	-1E+10	1	-1E+10	1
4902551	109	C	08/22/2023	01:08	-131.221	47.473	0	233.80	0	6.3390	0	33.8440	0	26.599	0	231.718	0	114.6	4	38.1	4	-1E+10	1	-1E+10	1	-1E+10	1	-1E+10	1	-1E+10	1	-1E+10	1
4902551	109	C	08/22/2023	01:08	-131.221	47.473	0	234.80	0	6.3330	0	33.8440	0	26.600	0	232.709	0	114.0	4	37.9	4	-1E+10	1	-1E+10	1	-1E+10	1	-1E+10	1	-1E+10	1	-1E+10	1
4902551	109	C	08/22/2023	01:08	-131.221	47.473	0	235.90	0	6.3290	0	33.8460	0	26.602	0	233.798	0	113.4	4	37.7	4	-1E+10	1	-1E+10	1	-1E+10	1	-1E+10	1	-1E+10	1	-1E+10	1
4902551	109	C	08/22/2023	01:08	-131.221	47.473	0	237.00	0	6.3250	0	33.8480	0	26.604	0	234.888	0	112.8	4	37.5	4	-1E+10	1	-1E+10	1	-1E+10	1	-1E+10	1	-1E+10	1	-1E+10	1
4902551	109	C	08/22/2023	01:08	-131.221	47.473	0	238.00	0	6.3190	0	33.8480	0	26.605	0	235.878	0	112.3	4	37.4	4	-1E+10	1	-1E+10	1	-1E+10	1	-1E+10	1	-1E+10	1	-1E+10	1
4902551	109	C	08/22/2023	01:08	-131.221	47.473	0	239.10	0	6.3100	0	33.8530	0	26.610	0	236.968	0	111.9	4	37.2	4	-1E+10	1	-1E+10	1	-1E+10	1	-1E+10	1	-1E+10	1	-1E+10	1
4902551	109	C	08/22/2023	01:08	-131.221	47.473	0	240.20	0	6.3100	0	33.8530	0	26.610	0	238.057	0	111.5	4	37.1	4	-1E+10	1	-1E+10	1	-1E+10	1	-1E+10	1	-1E+10	1	-1E+10	1
4902551	109	C	08/22/2023	01:08	-131.221	47.473	0	241.30	0	6.3090	0	33.8540	0	26.611	0	239.147	0	111.0	4	36.9	4	-1E+10	1	-1E+10	1	-1E+10	1	-1E+10	1	-1E+10	1	-1E+10	1
4902551	109	C	08/22/2023	01:08	-131.221	47.473	0	242.30	0	6.3030	0	33.8530	0	26.611	0	240.137	0	110.5	4	36.8	4	-1E+10	1	-1E+10	1	-1E+10	1	-1E+10	1	-1E+10	1	-1E+10	1
4902551	109	C	08/22/2023	01:08	-131.221	47.473	0	243.40	0	6.3010	0	33.8540	0	26.612	0	241.227	0	109.9	4	36.6	4	-1E+10	1	-1E+10	1	-1E+10	1	-1E+10	1	-1E+10	1	-1E+10	1
4902551	109	C	08/22/2023	01:08	-131.221	47.473	0	244.50	0	6.2820	0	33.8560	0	26.616	0	242.317	0	109.4	4	36.4	4	-1E+10	1	-1E+10	1	-1E+10	1	-1E+10	1	-1E+10	1	-1E+10	1
4902551	109	C	08/22/2023	01:08	-131.221	47.473	0	245.50	0	6.2650	0	33.8580	0	26.620	0	243.307	0	109.0	4	36.2	4	-1E+10	1	-1E+10	1	-1E+10	1	-1E+10	1	-1E+10	1	-1E+10	1
4902551	109	C	08/22/2023	01:08	-131.221	47.473	0	246.70	0	6.2610	0	33.8580	0	26.620	0	244.496	0	108.4	4	36.0	4	-1E+10	1	-1E+10	1	-1E+10	1	-1E+10	1	-1E+10	1	-1E+10	1
4902551	109	C	08/22/2023	01:08	-131.221	47.473	0	247.90	0	6.2580	0	33.8580	0	26.620	0	245.684	0	107.8	4	35.8	4	-1E+10	1	-1E+10	1	-1E+10	1	-1E+10	1	-1E+10	1	-1E+10	1
4902551	109	C	08/22/2023	01:08	-131.221	47.473	0	249.10	0	6.2580	0	33.8580	0	26.620	0	246.873	0	107.0	4	35.5	4	-1E+10	1	-1E+10	1	-1E+10	1	-1E+10	1	-1E+10	1	-1E+10	1
4902551	109	C	08/22/2023	01:08	-131.221	47.473	0	249.90	0	6.2580	0	33.8590	0	26.621	0	247.665	0	106.4	4	35.4	4	-1E+10	1	-1E+10	1	-1E+10	1	-1E+10	1	-1E+10	1	-1E+10	1
4902551	109	C	08/22/2023	01:08	-131.221	47.473	0	250.70	0	6.2560	0	33.8600	0	26.622	0	248.457	0	105.8	4	35.1	4	-1E+10	1	-1E+10	1	-1E+10	1	-1E+10	1	-1E+10	1	-1E+10	1
4902551	109	C	08/22/2023	01:08	-131.221	47.473	0	251.90	0	6.2480	0	33.8620	0	26.625	0	249.646	0	104.9	4	34.8	4	-1E+10	1	-1E+10	1	-1E+10	1	-1E+10	1	-1E+10	1	-1E+10	1
4902551	109	C	08/22/2023	01:08	-131.221	47.473	0	253.10	0	6.2390	0	33.8640	0	26.628	0	250.835	0	103.9	4	34.5	4	-1E+10	1	-1E+10	1	-1E+10	1	-1E+10	1	-1E+10	1	-1E+10	1
4902551	109	C	08/22/2023	01:08	-131.221	47.473	0	253.90	0	6.2300	0	33.8640	0	26.629	0	251.627	0	103.2	4	34.3	4	-1E+10	1	-1E+10	1	-1E+10	1	-1E+10	1	-1E+10	1	-1E+10	1
4902551	109	C	08/22/2023	01:08	-131.221	47.473	0	254.80	0	6.2390	0	33.8680	0	26.631	0	252.518	0	102.6	4	34.1	4	-1E+10	1	-1E+10	1	-1E+10	1	-1E+10	1	-1E+10	1	-1E+10	1
4902551	109	C	08/22/2023	01:08	-131.221	47.473	0	256.00	0	6.2400	0	33.8730	0	26.635	0	253.707	0	102.1	4	33.9	4	-1E+10	1	-1E+10	1	-1E+10	1	-1E+10	1	-1E+10	1	-1E+10	1
4902551	109	C	08/22/2023	01:08	-131.221	47.473	0	257.30	0	6.2310	0	33.8720	0	26.635	0	254.994	0	101.6	4	33.7	4	-1E+10	1	-1E+10	1	-1E+10	1	-1E+10	1	-1E+10	1	-1E+10	1
4902551	109	C	08/22/2023	01:08	-131.221	47.473	0	258.10	0	6.2240	0	33.8740	0	26.638	0	255.787	0	101.1	4	33.6	4	-1E+10	1	-1E+10	1	-1E+10	1	-1E+10	1	-1E+10	1	-1E+10	1
4902551	109	C	08/22/2023	01:08	-131.221	47.473	0	258.90	0	6.1990	0	33.8740	0	26.641	0	256.579	0	100.5	4	33.3	4	-1E+10	1	-1E+10	1	-1E+10	1	-1E+10	1	-1E+10	1	-1E+10	1
4902551	109	C	08/22/2023	01:08	-131.221	47.473	0	259.80	0	6.1980	0	33.8730	0	26.640	0	257.470	0	99.9	4	33.2	4	-1E+10	1	-1E+10	1	-1E+10	1	-1E+10	1	-1E+10	1	-1E+10	1
4902551	109	C	08/22/2023	01:08	-131.221	47.473	0	261.00	0	6.1930	0	33.8770	0	26.644	0	258.659	0	99.5	4	33.0	4	-1E+10	1	-1E+10	1	-1E+10	1	-1E+10	1	-1E+10	1	-1E+10	1
4902551	109	C	08/22/2023	01:08	-131.221	47.473	0	262.20	0	6.1880	0	33.8810	0	26.648	0	259.847	0	99.1	4	32.9	4	-1E+10	1	-1E+10	1	-1E+10	1	-1E+10	1	-1E+10	1	-1E+10	1
4902551	109	C	08/22/2023	01:08	-131.221	47.473	0	263.10	0	6.1760	0	33.8820	0	26.650	0	260.739	0	99.0	4	32.8	4	-1E+10	1	-1E+10	1	-1E+10	1	-1E+10	1	-1E+10	1	-1E+10	1
4902551	109	C	08/22/2023	01:08	-131.221	47.473	0	263.90	0	6.1650	0	33.8810	0	26.651	0	261.531	0	98.8	4	32.8	4	-1E+10	1	-1E+10	1	-1E+10	1	-1E+10	1	-1E+10	1	-1E+10	1
4902551	109	C	08/22/2023	01:08	-131.221	47.473	0	264.70	0	6.1560	0	33.8810	0	26.652	0	262.323	0	98.5	4	32.7	4	-1E+10	1	-1E+10	1	-1E+10	1	-1E+10	1	-1E+10	1	-1E+10	1
4902551	109	C	08/22/2023	01:08	-131.221	47.473	0	266.00	0	6.1360	0	33.8800	0	26.654	0	263.611	0	98.2	4	32.5	4	-1E+10	1	-1E+10	1	-1E+10	1	-1E+10	1	-1E+10	1	-1E+10	1
4902551	109	C	08/22/2023	01:08	-131.221	47.473	0	267.20	0	6.1040	0	33.8810	0	26.658	0	264.799	0	97.8	4	32.4	4	-1E+10	1	-1E+10	1	-1E+10	1	-1E+10	1	-1E+10	1	-1E+10	1
4902551	109	C	08/22/2023	01:08	-131.221	47.473	0	268.00	0	6.0850	0	33.8820	0	26.662	0	265.592	0	97.6	4	32.3	4	-1E+10	1	-1E+10	1	-1E+10	1	-1E+10	1	-1E+10	1	-1E+10	1
4902551	109	C	08/22/2023	01:08	-131.221	47.473	0	268.90	0	6.0710	0	33.8830	0	26.664	0	266.483	0	97.4	4	32.2	4	-1E+10	1	-1E+10	1	-1E+10	1	-1E+10	1	-1E+10	1	-1E+10	1
4902551	109	C	08/22/2023	01:08	-131.221	47.473	0	269.70	0	6.0650	0	33.8820	0	26.664	0	267.275	0	97.2	4	32.2	4	-1E+10	1	-1E+10	1	-1E+10	1	-1E+10	1	-1E+10	1	-1E+10	1
4902551	109	C	08/22/2023	01:08	-131.221	47.473	0	270.90	0	6.0450	0	33.8820	0	26.667	0	268.464	0	96.9	4	32.1	4	-1E+10	1	-1E+10	1	-1E+10	1	-1E+10	1	-1E+10	1	-1E+10	1
4902551	109	C	08/22/2023	01:08	-131.221	47.473	0	272.10	0	6.0240	0	33.8830	0	26.670	0	269.652	0	96.7	4	32.0	4	-1E+10	1	-1E+10	1	-1E+10	1	-1E+10	1	-1E+10	1	-1E+10	1
4902551	109	C	08/22/2023	01:08	-131.221	47.473	0	273.00	0	6.0020	0	33.8840	0	26.674	0	270.543	0	96.5	4	31.9	4	-1E+10	1	-1E+10	1	-1E+10	1	-1E+10	1	-1E+10	1	-1E+10	1
4902551	109	C	08/22/2023	01:08	-131.221	47.473	0	273.80	0	5.9880	0	33.8820	0	26.674	0	271.336	0	96.3	4	31.8	4	-1E+10	1	-1E+10	1	-1E+10	1	-1E+10	1	-1E+10	1	-1E+10	1
4902551	109	C	08/22/2023	01:08	-131.221	47.473	0	274.60	0	5.9790	0	33.8840	0	26.677	0	272.128	0	96.0	4	31.7	4	-1E+10	1	-1E+10	1	-1E+10	1	-1E+10	1	-1E+10	1	-1E+10	1
4902551	109	C	08/22/2023	01:08	-131.221	47.473	0	275.90	0	5.9560	0	33.8820	0	26.678	0	273.415	0	95.6	4	31.6	4	-1E+10	1	-1E+10	1	-1E+10	1	-1E+10	1	-1E+10	1	-1E+10	1
4902551	109	C	08/22/2023	01:08	-131.221	47.473	0	277.10	0	5.9220	0	33.8820	0	26.682	0	274.604	0	95.1	4	31.4	4	-1E+10	1	-1E+10	1	-1E+10	1	-1E+10	1	-1E+10	1	-1E+10	1
4902551	109	C	08/22/2023	01:08	-131.221	47.473	0	278.00	0	5.9080	0	33.8840	0	26.685	0	275.495	0	94.8	4	31.2	4	-1E+10	1	-1E+10	1	-1E+10	1	-1E+10	1	-1E+10	1	-1E+10	1
4902551	109	C	08/22/2023	01:08	-131.221	47.473	0	278.80	0	5.9000	0	33.8820	0	26.685	0	276.287	0	94.4	4	31.1	4	-1E+10	1	-1E+10	1	-1E+10	1	-1E+10	1	-1E+10	1	-1E+10	1
4902551	109	C	08/22/2023	01:08	-131.221	47.473	0	279.70	0	5.8970	0	33.8830	0	26.686	0	277.179	0	94.1	4	31.0	4	-1E+10	1	-1E+10	1	-1E+10	1	-1E+10	1	-1E+10	1	-1E+10	1
4902551	109	C	08/22/2023	01:08	-131.221	47.473	0	280.90	0	5.8870	0	33.8840	0	26.688	0	278.367	0	93.6	4	30.8	4	-1E+10	1	-1E+10	1	-1E+10	1	-1E+10	1	-1E+10	1	-1E+10	1
4902551	109	C	08/22/2023	01:08	-131.221	47.473	0	282.20	0	5.8810	0	33.8850	0	26.690	0	279.654	0	93.2	4	30.7	4	-1E+10	1	-1E+10	1	-1E+10	1	-1E+10	1	-1E+10	1	-1E+10	1
4902551	109	C	08/22/2023	01:08	-131.221	47.473	0	283.00	0	5.8760	0	33.8840	0	26.689	0	280.447	0	92.9	4	30.6	4	-1E+10	1	-1E+10	1	-1E+10	1	-1E+10	1	-1E+10	1	-1E+10	1
4902551	109	C	08/22/2023	01:08	-131.221	47.473	0	283.90	0	5.8780	0	33.8860	0	26.691	0	281.338	0	92.6	4	30.5	4	-1E+10	1	-1E+10	1	-1E+10	1	-1E+10	1	-1E+10	1	-1E+10	1
4902551	109	C	08/22/2023	01:08	-131.221	47.473	0	284.70	0	5.8630	0	33.8880	0	26.694	0	282.130	0	92.4	4	30.4	4	-1E+10	1	-1E+10	1	-1E+10	1	-1E+10	1	-1E+10	1	-1E+10	1
4902551	109	C	08/22/2023	01:08	-131.221	47.473	0	286.00	0	5.8480	0	33.8880	0	26.696	0	283.418	0	92.0	4	30.3	4	-1E+10	1	-1E+10	1	-1E+10	1	-1E+10	1	-1E+10	1	-1E+10	1
4902551	109	C	08/22/2023	01:08	-131.221	47.473	0	287.20	0	5.8280	0	33.8870	0	26.698	0	284.606	0	91.5	4	30.1	4	-1E+10	1	-1E+10	1	-1E+10	1	-1E+10	1	-1E+10	1	-1E+10	1
4902551	109	C	08/22/2023	01:08	-131.221	47.473	0	288.00	0	5.8070	0	33.8840	0	26.698	0	285.398	0	91.0	4	29.9	4	-1E+10	1	-1E+10	1	-1E+10	1	-1E+10	1	-1E+10	1	-1E+10	1
4902551	109	C	08/22/2023	01:08	-131.221	47.473	0	288.90	0	5.8070	0	33.8870	0	26.700	0	286.289	0	90.6	4	29.8	4	-1E+10	1	-1E+10	1	-1E+10	1	-1E+10	1	-1E+10	1	-1E+10	1
4902551	109	C	08/22/2023	01:08	-131.221	47.473	0	289.70	0	5.7920	0	33.8880	0	26.703	0	287.082	0	90.2	4	29.7	4	-1E+10	1	-1E+10	1	-1E+10	1	-1E+10	1	-1E+10	1	-1E+10	1
4902551	109	C	08/22/2023	01:08	-131.221	47.473	0	290.90	0	5.7790	0	33.8880	0	26.705	0	288.270	0	89.6	4	29.4	4	-1E+10	1	-1E+10	1	-1E+10	1	-1E+10	1	-1E+10	1	-1E+10	1
4902551	109	C	08/22/2023	01:08	-131.221	47.473	0	292.10	0	5.7690	0	33.8920	0	26.709	0	289.458	0	89.1	4	29.3	4	-1E+10	1	-1E+10	1	-1E+10	1	-1E+10	1	-1E+10	1	-1E+10	1
4902551	109	C	08/22/2023	01:08	-131.221	47.473	0	293.00	0	5.7660	0	33.8920	0	26.709	0	290.349	0	88.8	4	29.2	4	-1E+10	1	-1E+10	1	-1E+10	1	-1E+10	1	-1E+10	1	-1E+10	1
4902551	109	C	08/22/2023	01:08	-131.221	47.473	0	293.80	0	5.7610	0	33.8930	0	26.711	0	291.142	0	88.6	4	29.1	4	-1E+10	1	-1E+10	1	-1E+10	1	-1E+10	1	-1E+10	1	-1E+10	1
4902551	109	C	08/22/2023	01:08	-131.221	47.473	0	294.60	0	5.7600	0	33.8930	0	26.711	0	291.934	0	88.3	4	29.0	4	-1E+10	1	-1E+10	1	-1E+10	1	-1E+10	1	-1E+10	1	-1E+10	1
4902551	109	C	08/22/2023	01:08	-131.221	47.473	0	295.90	0	5.7590	0	33.8930	0	26.711	0	293.221	0	87.8	4	28.9	4	-1E+10	1	-1E+10	1	-1E+10	1	-1E+10	1	-1E+10	1	-1E+10	1
4902551	109	C	08/22/2023	01:08	-131.221	47.473	0	297.10	0	5.7550	0	33.8950	0	26.713	0	294.409	0	87.4	4	28.7	4	-1E+10	1	-1E+10	1	-1E+10	1	-1E+10	1	-1E+10	1	-1E+10	1
4902551	109	C	08/22/2023	01:08	-131.221	47.473	0	297.90	0	5.7480	0	33.8970	0	26.716	0	295.202	0	87.2	4	28.6	4	-1E+10	1	-1E+10	1	-1E+10	1	-1E+10	1	-1E+10	1	-1E+10	1
4902551	109	C	08/22/2023	01:08	-131.221	47.473	0	298.80	0	5.7480	0	33.8970	0	26.716	0	296.093	0	87.0	4	28.6	4	-1E+10	1	-1E+10	1	-1E+10	1	-1E+10	1	-1E+10	1	-1E+10	1
4902551	109	C	08/22/2023	01:08	-131.221	47.473	0	300.00	0	5.7460	0	33.8970	0	26.716	0	297.281	0	86.6	4	28.4	4	-1E+10	1	-1E+10	1	-1E+10	1	-1E+10	1	-1E+10	1	-1E+10	1
4902551	109	C	08/22/2023	01:08	-131.221	47.473	0	301.30	0	5.7420	0	33.8970	0	26.716	0	298.568	0	86.2	4	28.3	4	-1E+10	1	-1E+10	1	-1E+10	1	-1E+10	1	-1E+10	1	-1E+10	1
4902551	109	C	08/22/2023	01:08	-131.221	47.473	0	302.10	0	5.7400	0	33.8970	0	26.717	0	299.361	0	85.8	4	28.2	4	-1E+10	1	-1E+10	1	-1E+10	1	-1E+10	1	-1E+10	1	-1E+10	1
4902551	109	C	08/22/2023	01:08	-131.221	47.473	0	302.90	0	5.7360	0	33.8980	0	26.718	0	300.153	0	85.6	4	28.1	4	-1E+10	1	-1E+10	1	-1E+10	1	-1E+10	1	-1E+10	1	-1E+10	1
4902551	109	C	08/22/2023	01:08	-131.221	47.473	0	303.80	0	5.7200	0	33.9030	0	26.724	0	301.044	0	85.4	4	28.0	4	-1E+10	1	-1E+10	1	-1E+10	1	-1E+10	1	-1E+10	1	-1E+10	1
4902551	109	C	08/22/2023	01:08	-131.221	47.473	0	305.00	0	5.7120	0	33.9020	0	26.724	0	302.232	0	85.2	4	28.0	4	-1E+10	1	-1E+10	1	-1E+10	1	-1E+10	1	-1E+10	1	-1E+10	1
4902551	109	C	08/22/2023	01:08	-131.221	47.473	0	306.20	0	5.7020	0	33.9010	0	26.724	0	303.420	0	85.0	4	27.9	4	-1E+10	1	-1E+10	1	-1E+10	1	-1E+10	1	-1E+10	1	-1E+10	1
4902551	109	C	08/22/2023	01:08	-131.221	47.473	0	307.10	0	5.7000	0	33.9010	0	26.725	0	304.312	0	84.8	4	27.8	4	-1E+10	1	-1E+10	1	-1E+10	1	-1E+10	1	-1E+10	1	-1E+10	1
4902551	109	C	08/22/2023	01:08	-131.221	47.473	0	307.90	0	5.6980	0	33.9010	0	26.725	0	305.104	0	84.6	4	27.8	4	-1E+10	1	-1E+10	1	-1E+10	1	-1E+10	1	-1E+10	1	-1E+10	1
4902551	109	C	08/22/2023	01:08	-131.221	47.473	0	308.70	0	5.6920	0	33.9010	0	26.726	0	305.896	0	84.4	4	27.7	4	-1E+10	1	-1E+10	1	-1E+10	1	-1E+10	1	-1E+10	1	-1E+10	1
4902551	109	C	08/22/2023	01:08	-131.221	47.473	0	309.90	0	5.6870	0	33.8980	0	26.724	0	307.084	0	84.0	4	27.5	4	-1E+10	1	-1E+10	1	-1E+10	1	-1E+10	1	-1E+10	1	-1E+10	1
4902551	109	C	08/22/2023	01:08	-131.221	47.473	0	311.10	0	5.6820	0	33.9010	0	26.727	0	308.272	0	83.5	4	27.4	4	-1E+10	1	-1E+10	1	-1E+10	1	-1E+10	1	-1E+10	1	-1E+10	1
4902551	109	C	08/22/2023	01:08	-131.221	47.473	0	311.90	0	5.6840	0	33.9000	0	26.726	0	309.064	0	83.1	4	27.3	4	-1E+10	1	-1E+10	1	-1E+10	1	-1E+10	1	-1E+10	1	-1E+10	1
4902551	109	C	08/22/2023	01:08	-131.221	47.473	0	312.70	0	5.6480	0	33.9050	0	26.734	0	309.857	0	82.7	4	27.1	4	-1E+10	1	-1E+10	1	-1E+10	1	-1E+10	1	-1E+10	1	-1E+10	1
4902551	109	C	08/22/2023	01:08	-131.221	47.473	0	314.00	0	5.6450	0	33.9020	0	26.732	0	311.144	0	82.1	4	26.9	4	-1E+10	1	-1E+10	1	-1E+10	1	-1E+10	1	-1E+10	1	-1E+10	1
4902551	109	C	08/22/2023	01:08	-131.221	47.473	0	315.20	0	5.6430	0	33.9030	0	26.733	0	312.332	0	81.4	4	26.7	4	-1E+10	1	-1E+10	1	-1E+10	1	-1E+10	1	-1E+10	1	-1E+10	1
4902551	109	C	08/22/2023	01:08	-131.221	47.473	0	316.10	0	5.6450	0	33.9050	0	26.735	0	313.223	0	81.0	4	26.5	4	-1E+10	1	-1E+10	1	-1E+10	1	-1E+10	1	-1E+10	1	-1E+10	1
4902551	109	C	08/22/2023	01:08	-131.221	47.473	0	316.90	0	5.6390	0	33.9060	0	26.736	0	314.015	0	80.6	4	26.4	4	-1E+10	1	-1E+10	1	-1E+10	1	-1E+10	1	-1E+10	1	-1E+10	1
4902551	109	C	08/22/2023	01:08	-131.221	47.473	0	317.70	0	5.6390	0	33.9050	0	26.735	0	314.807	0	80.3	4	26.3	4	-1E+10	1	-1E+10	1	-1E+10	1	-1E+10	1	-1E+10	1	-1E+10	1
4902551	109	C	08/22/2023	01:08	-131.221	47.473	0	319.00	0	5.6210	0	33.9080	0	26.740	0	316.094	0	79.8	4	26.1	4	-1E+10	1	-1E+10	1	-1E+10	1	-1E+10	1	-1E+10	1	-1E+10	1
4902551	109	C	08/22/2023	01:08	-131.221	47.473	0	320.20	0	5.6030	0	33.9080	0	26.742	0	317.283	0	79.1	4	25.9	4	-1E+10	1	-1E+10	1	-1E+10	1	-1E+10	1	-1E+10	1	-1E+10	1
4902551	109	C	08/22/2023	01:08	-131.221	47.473	0	321.10	0	5.5950	0	33.9110	0	26.745	0	318.174	0	78.8	4	25.8	4	-1E+10	1	-1E+10	1	-1E+10	1	-1E+10	1	-1E+10	1	-1E+10	1
4902551	109	C	08/22/2023	01:08	-131.221	47.473	0	321.90	0	5.5930	0	33.9110	0	26.746	0	318.966	0	78.4	4	25.7	4	-1E+10	1	-1E+10	1	-1E+10	1	-1E+10	1	-1E+10	1	-1E+10	1
4902551	109	C	08/22/2023	01:08	-131.221	47.473	0	322.80	0	5.5860	0	33.9130	0	26.748	0	319.857	0	78.2	4	25.6	4	-1E+10	1	-1E+10	1	-1E+10	1	-1E+10	1	-1E+10	1	-1E+10	1
4902551	109	C	08/22/2023	01:08	-131.221	47.473	0	323.70	0	5.5600	0	33.9210	0	26.758	0	320.748	0	77.9	4	25.5	4	-1E+10	1	-1E+10	1	-1E+10	1	-1E+10	1	-1E+10	1	-1E+10	1
4902551	109	C	08/22/2023	01:08	-131.221	47.473	0	324.90	0	5.5490	0	33.9130	0	26.752	0	321.936	0	77.4	4	25.3	4	-1E+10	1	-1E+10	1	-1E+10	1	-1E+10	1	-1E+10	1	-1E+10	1
4902551	109	C	08/22/2023	01:08	-131.221	47.473	0	326.30	0	5.5280	0	33.9140	0	26.756	0	323.322	0	77.0	4	25.1	4	-1E+10	1	-1E+10	1	-1E+10	1	-1E+10	1	-1E+10	1	-1E+10	1
4902551	109	C	08/22/2023	01:08	-131.221	47.473	0	327.10	0	5.5180	0	33.9140	0	26.757	0	324.114	0	76.6	4	25.0	4	-1E+10	1	-1E+10	1	-1E+10	1	-1E+10	1	-1E+10	1	-1E+10	1
4902551	109	C	08/22/2023	01:08	-131.221	47.473	0	328.00	0	5.5200	0	33.9140	0	26.757	0	325.005	0	76.2	4	24.9	4	-1E+10	1	-1E+10	1	-1E+10	1	-1E+10	1	-1E+10	1	-1E+10	1
4902551	109	C	08/22/2023	01:08	-131.221	47.473	0	328.90	0	5.5140	0	33.9150	0	26.758	0	325.896	0	75.8	4	24.7	4	-1E+10	1	-1E+10	1	-1E+10	1	-1E+10	1	-1E+10	1	-1E+10	1
4902551	109	C	08/22/2023	01:08	-131.221	47.473	0	329.80	0	5.5100	0	33.9160	0	26.760	0	326.788	0	75.4	4	24.6	4	-1E+10	1	-1E+10	1	-1E+10	1	-1E+10	1	-1E+10	1	-1E+10	1
4902551	109	C	08/22/2023	01:08	-131.221	47.473	0	330.70	0	5.5050	0	33.9180	0	26.762	0	327.679	0	75.0	4	24.5	4	-1E+10	1	-1E+10	1	-1E+10	1	-1E+10	1	-1E+10	1	-1E+10	1
4902551	109	C	08/22/2023	01:08	-131.221	47.473	0	331.60	0	5.4850	0	33.9160	0	26.763	0	328.570	0	74.6	4	24.4	4	-1E+10	1	-1E+10	1	-1E+10	1	-1E+10	1	-1E+10	1	-1E+10	1
4902551	109	C	08/22/2023	01:08	-131.221	47.473	0	332.90	0	5.4820	0	33.9180	0	26.765	0	329.857	0	74.1	4	24.2	4	-1E+10	1	-1E+10	1	-1E+10	1	-1E+10	1	-1E+10	1	-1E+10	1
4902551	109	C	08/22/2023	01:08	-131.221	47.473	0	334.30	0	5.4780	0	33.9200	0	26.767	0	331.243	0	73.5	4	24.0	4	-1E+10	1	-1E+10	1	-1E+10	1	-1E+10	1	-1E+10	1	-1E+10	1
4902551	109	C	08/22/2023	01:08	-131.221	47.473	0	335.20	0	5.4750	0	33.9220	0	26.769	0	332.134	0	73.2	4	23.9	4	-1E+10	1	-1E+10	1	-1E+10	1	-1E+10	1	-1E+10	1	-1E+10	1
4902551	109	C	08/22/2023	01:08	-131.221	47.473	0	336.10	0	5.4620	0	33.9230	0	26.771	0	333.025	0	72.9	4	23.8	4	-1E+10	1	-1E+10	1	-1E+10	1	-1E+10	1	-1E+10	1	-1E+10	1
4902551	109	C	08/22/2023	01:08	-131.221	47.473	0	337.00	0	5.4480	0	33.9220	0	26.772	0	333.916	0	72.5	4	23.6	4	-1E+10	1	-1E+10	1	-1E+10	1	-1E+10	1	-1E+10	1	-1E+10	1
4902551	109	C	08/22/2023	01:08	-131.221	47.473	0	337.90	0	5.4350	0	33.9230	0	26.774	0	334.807	0	72.2	4	23.5	4	-1E+10	1	-1E+10	1	-1E+10	1	-1E+10	1	-1E+10	1	-1E+10	1
4902551	109	C	08/22/2023	01:08	-131.221	47.473	0	338.90	0	5.4160	0	33.9240	0	26.777	0	335.797	0	71.8	4	23.4	4	-1E+10	1	-1E+10	1	-1E+10	1	-1E+10	1	-1E+10	1	-1E+10	1
4902551	109	C	08/22/2023	01:08	-131.221	47.473	0	339.80	0	5.4030	0	33.9230	0	26.778	0	336.688	0	71.4	4	23.3	4	-1E+10	1	-1E+10	1	-1E+10	1	-1E+10	1	-1E+10	1	-1E+10	1
4902551	109	C	08/22/2023	01:08	-131.221	47.473	0	340.70	0	5.3960	0	33.9230	0	26.779	0	337.579	0	71.0	4	23.1	4	-1E+10	1	-1E+10	1	-1E+10	1	-1E+10	1	-1E+10	1	-1E+10	1
4902551	109	C	08/22/2023	01:08	-131.221	47.473	0	341.60	0	5.3860	0	33.9220	0	26.779	0	338.470	0	70.6	4	23.0	4	-1E+10	1	-1E+10	1	-1E+10	1	-1E+10	1	-1E+10	1	-1E+10	1
4902551	109	C	08/22/2023	01:08	-131.221	47.473	0	342.50	0	5.3710	0	33.9250	0	26.783	0	339.361	0	70.2	4	22.8	4	-1E+10	1	-1E+10	1	-1E+10	1	-1E+10	1	-1E+10	1	-1E+10	1
4902551	109	C	08/22/2023	01:08	-131.221	47.473	0	343.90	0	5.3700	0	33.9290	0	26.787	0	340.747	0	69.7	4	22.7	4	-1E+10	1	-1E+10	1	-1E+10	1	-1E+10	1	-1E+10	1	-1E+10	1
4902551	109	C	08/22/2023	01:08	-131.221	47.473	0	345.30	0	5.3640	0	33.9300	0	26.788	0	342.133	0	69.4	4	22.6	4	-1E+10	1	-1E+10	1	-1E+10	1	-1E+10	1	-1E+10	1	-1E+10	1
4902551	109	C	08/22/2023	01:08	-131.221	47.473	0	346.20	0	5.3690	0	33.9330	0	26.790	0	343.024	0	69.1	4	22.5	4	-1E+10	1	-1E+10	1	-1E+10	1	-1E+10	1	-1E+10	1	-1E+10	1
4902551	109	C	08/22/2023	01:08	-131.221	47.473	0	347.20	0	5.3620	0	33.9340	0	26.792	0	344.014	0	69.0	4	22.5	4	-1E+10	1	-1E+10	1	-1E+10	1	-1E+10	1	-1E+10	1	-1E+10	1
4902551	109	C	08/22/2023	01:08	-131.221	47.473	0	348.10	0	5.3440	0	33.9380	0	26.797	0	344.905	0	68.8	4	22.4	4	-1E+10	1	-1E+10	1	-1E+10	1	-1E+10	1	-1E+10	1	-1E+10	1
4902551	109	C	08/22/2023	01:08	-131.221	47.473	0	349.10	0	5.3270	0	33.9310	0	26.793	0	345.895	0	68.6	4	22.3	4	-1E+10	1	-1E+10	1	-1E+10	1	-1E+10	1	-1E+10	1	-1E+10	1
4902551	109	C	08/22/2023	01:08	-131.221	47.473	0	350.00	0	5.3320	0	33.9330	0	26.794	0	346.786	0	68.4	4	22.3	4	-1E+10	1	-1E+10	1	-1E+10	1	-1E+10	1	-1E+10	1	-1E+10	1
4902551	109	C	08/22/2023	01:08	-131.221	47.473	0	352.80	0	5.2940	0	33.9320	0	26.798	0	349.558	0	67.9	4	22.1	4	-1E+10	1	-1E+10	1	-1E+10	1	-1E+10	1	-1E+10	1	-1E+10	1
4902551	109	C	08/22/2023	01:08	-131.221	47.473	0	358.00	0	5.2270	0	33.9310	0	26.805	0	354.706	0	66.3	4	21.5	4	-1E+10	1	-1E+10	1	-1E+10	1	-1E+10	1	-1E+10	1	-1E+10	1
4902551	109	C	08/22/2023	01:08	-131.221	47.473	0	363.20	0	5.2140	0	33.9390	0	26.813	0	359.853	0	64.2	4	20.8	4	-1E+10	1	-1E+10	1	-1E+10	1	-1E+10	1	-1E+10	1	-1E+10	1
4902551	109	C	08/22/2023	01:08	-131.221	47.473	0	368.00	0	5.1990	0	33.9420	0	26.817	0	364.605	0	62.5	4	20.3	4	-1E+10	1	-1E+10	1	-1E+10	1	-1E+10	1	-1E+10	1	-1E+10	1
4902551	109	C	08/22/2023	01:08	-131.221	47.473	0	372.70	0	5.2020	0	33.9530	0	26.825	0	369.257	0	61.4	4	19.9	4	-1E+10	1	-1E+10	1	-1E+10	1	-1E+10	1	-1E+10	1	-1E+10	1
4902551	109	C	08/22/2023	01:08	-131.221	47.473	0	377.90	0	5.1260	0	33.9530	0	26.834	0	374.405	0	60.6	4	19.6	4	-1E+10	1	-1E+10	1	-1E+10	1	-1E+10	1	-1E+10	1	-1E+10	1
4902551	109	C	08/22/2023	01:08	-131.221	47.473	0	383.00	0	5.0870	0	33.9560	0	26.841	0	379.453	0	59.8	4	19.4	4	-1E+10	1	-1E+10	1	-1E+10	1	-1E+10	1	-1E+10	1	-1E+10	1
4902551	109	C	08/22/2023	01:08	-131.221	47.473	0	387.70	0	5.0170	0	33.9550	0	26.848	0	384.105	0	59.4	4	19.2	4	-1E+10	1	-1E+10	1	-1E+10	1	-1E+10	1	-1E+10	1	-1E+10	1
4902551	109	C	08/22/2023	01:08	-131.221	47.473	0	392.70	0	4.9700	0	33.9510	0	26.851	0	389.054	0	58.4	4	18.8	4	-1E+10	1	-1E+10	1	-1E+10	1	-1E+10	1	-1E+10	1	-1E+10	1
4902551	109	C	08/22/2023	01:08	-131.221	47.473	0	397.80	0	4.9470	0	33.9560	0	26.857	0	394.102	0	56.6	4	18.3	4	-1E+10	1	-1E+10	1	-1E+10	1	-1E+10	1	-1E+10	1	-1E+10	1
4902551	109	C	08/22/2023	01:08	-131.221	47.473	0	402.80	0	4.9470	0	33.9620	0	26.862	0	399.050	0	54.8	4	17.7	4	-1E+10	1	-1E+10	1	-1E+10	1	-1E+10	1	-1E+10	1	-1E+10	1
4902551	109	C	08/22/2023	01:08	-131.221	47.473	0	407.80	0	4.9350	0	33.9720	0	26.871	0	403.999	0	53.1	4	17.1	4	-1E+10	1	-1E+10	1	-1E+10	1	-1E+10	1	-1E+10	1	-1E+10	1
4902551	109	C	08/22/2023	01:08	-131.221	47.473	0	412.50	0	4.9010	0	33.9760	0	26.878	0	408.651	0	52.1	4	16.8	4	-1E+10	1	-1E+10	1	-1E+10	1	-1E+10	1	-1E+10	1	-1E+10	1
4902551	109	C	08/22/2023	01:08	-131.221	47.473	0	417.90	0	4.8790	0	33.9810	0	26.885	0	413.995	0	51.1	4	16.4	4	-1E+10	1	-1E+10	1	-1E+10	1	-1E+10	1	-1E+10	1	-1E+10	1
4902551	109	C	08/22/2023	01:08	-131.221	47.473	0	423.20	0	4.8700	0	33.9850	0	26.889	0	419.240	0	50.1	4	16.1	4	-1E+10	1	-1E+10	1	-1E+10	1	-1E+10	1	-1E+10	1	-1E+10	1
4902551	109	C	08/22/2023	01:08	-131.221	47.473	0	428.20	0	4.8390	0	33.9880	0	26.895	0	424.188	0	49.1	4	15.8	4	-1E+10	1	-1E+10	1	-1E+10	1	-1E+10	1	-1E+10	1	-1E+10	1
4902551	109	C	08/22/2023	01:08	-131.221	47.473	0	433.10	0	4.8220	0	33.9920	0	26.900	0	429.037	0	47.9	4	15.4	4	-1E+10	1	-1E+10	1	-1E+10	1	-1E+10	1	-1E+10	1	-1E+10	1
4902551	109	C	08/22/2023	01:08	-131.221	47.473	0	438.20	0	4.8670	0	34.0020	0	26.903	0	434.084	0	47.1	4	15.2	4	-1E+10	1	-1E+10	1	-1E+10	1	-1E+10	1	-1E+10	1	-1E+10	1
4902551	109	C	08/22/2023	01:08	-131.221	47.473	0	443.00	0	4.8400	0	34.0020	0	26.906	0	438.834	0	47.0	4	15.1	4	-1E+10	1	-1E+10	1	-1E+10	1	-1E+10	1	-1E+10	1	-1E+10	1
4902551	109	C	08/22/2023	01:08	-131.221	47.473	0	447.90	0	4.8050	0	33.9990	0	26.908	0	443.682	0	46.4	4	14.9	4	-1E+10	1	-1E+10	1	-1E+10	1	-1E+10	1	-1E+10	1	-1E+10	1
4902551	109	C	08/22/2023	01:08	-131.221	47.473	0	452.90	0	4.7950	0	34.0030	0	26.912	0	448.630	0	45.7	4	14.7	4	-1E+10	1	-1E+10	1	-1E+10	1	-1E+10	1	-1E+10	1	-1E+10	1
4902551	109	C	08/22/2023	01:08	-131.221	47.473	0	458.00	0	4.7530	0	34.0030	0	26.917	0	453.676	0	44.8	4	14.4	4	-1E+10	1	-1E+10	1	-1E+10	1	-1E+10	1	-1E+10	1	-1E+10	1
4902551	109	C	08/22/2023	01:08	-131.221	47.473	0	463.10	0	4.7300	0	34.0050	0	26.921	0	458.723	0	43.5	4	13.9	4	-1E+10	1	-1E+10	1	-1E+10	1	-1E+10	1	-1E+10	1	-1E+10	1
4902551	109	C	08/22/2023	01:08	-131.221	47.473	0	467.90	0	4.7140	0	34.0070	0	26.924	0	463.472	0	41.5	4	13.3	4	-1E+10	1	-1E+10	1	-1E+10	1	-1E+10	1	-1E+10	1	-1E+10	1
4902551	109	C	08/22/2023	01:08	-131.221	47.473	0	472.70	0	4.7360	0	34.0210	0	26.933	0	468.221	0	39.5	4	12.7	4	-1E+10	1	-1E+10	1	-1E+10	1	-1E+10	1	-1E+10	1	-1E+10	1
4902551	109	C	08/22/2023	01:08	-131.221	47.473	0	477.90	0	4.7470	0	34.0320	0	26.941	0	473.366	0	37.9	4	12.2	4	-1E+10	1	-1E+10	1	-1E+10	1	-1E+10	1	-1E+10	1	-1E+10	1
4902551	109	C	08/22/2023	01:08	-131.221	47.473	0	483.10	0	4.7460	0	34.0390	0	26.946	0	478.510	0	36.8	4	11.8	4	-1E+10	1	-1E+10	1	-1E+10	1	-1E+10	1	-1E+10	1	-1E+10	1
4902551	109	C	08/22/2023	01:08	-131.221	47.473	0	487.90	0	4.7340	0	34.0460	0	26.953	0	483.259	0	35.9	4	11.5	4	-1E+10	1	-1E+10	1	-1E+10	1	-1E+10	1	-1E+10	1	-1E+10	1
4902551	109	C	08/22/2023	01:08	-131.221	47.473	0	492.70	0	4.6920	0	34.0490	0	26.960	0	488.008	0	35.5	4	11.4	4	-1E+10	1	-1E+10	1	-1E+10	1	-1E+10	1	-1E+10	1	-1E+10	1
4902551	109	C	08/22/2023	01:08	-131.221	47.473	0	497.90	0	4.6420	0	34.0480	0	26.965	0	493.152	0	34.5	4	11.1	4	-1E+10	1	-1E+10	1	-1E+10	1	-1E+10	1	-1E+10	1	-1E+10	1
4902551	109	C	08/22/2023	01:08	-131.221	47.473	0	502.80	0	4.6210	0	34.0540	0	26.972	0	498.000	0	33.6	4	10.7	4	-1E+10	1	-1E+10	1	-1E+10	1	-1E+10	1	-1E+10	1	-1E+10	1
4902551	109	C	08/22/2023	01:08	-131.221	47.473	0	507.60	0	4.6010	0	34.0590	0	26.978	0	502.748	0	32.7	4	10.5	4	-1E+10	1	-1E+10	1	-1E+10	1	-1E+10	1	-1E+10	1	-1E+10	1
4902551	109	C	08/22/2023	01:08	-131.221	47.473	0	512.90	0	4.5630	0	34.0630	0	26.986	0	507.991	0	31.9	4	10.2	4	-1E+10	1	-1E+10	1	-1E+10	1	-1E+10	1	-1E+10	1	-1E+10	1
4902551	109	C	08/22/2023	01:08	-131.221	47.473	0	518.10	0	4.5430	0	34.0670	0	26.991	0	513.135	0	30.8	4	9.8	4	-1E+10	1	-1E+10	1	-1E+10	1	-1E+10	1	-1E+10	1	-1E+10	1
4902551	109	C	08/22/2023	01:08	-131.221	47.473	0	522.90	0	4.5450	0	34.0730	0	26.996	0	517.883	0	29.7	4	9.5	4	-1E+10	1	-1E+10	1	-1E+10	1	-1E+10	1	-1E+10	1	-1E+10	1
4902551	109	C	08/22/2023	01:08	-131.221	47.473	0	527.70	0	4.5640	0	34.0810	0	27.000	0	522.631	0	28.6	4	9.2	4	-1E+10	1	-1E+10	1	-1E+10	1	-1E+10	1	-1E+10	1	-1E+10	1
4902551	109	C	08/22/2023	01:08	-131.221	47.473	0	533.00	0	4.5530	0	34.0850	0	27.004	0	527.873	0	28.0	4	9.0	4	-1E+10	1	-1E+10	1	-1E+10	1	-1E+10	1	-1E+10	1	-1E+10	1
4902551	109	C	08/22/2023	01:08	-131.221	47.473	0	537.80	0	4.5440	0	34.0890	0	27.008	0	532.621	0	27.2	4	8.7	4	-1E+10	1	-1E+10	1	-1E+10	1	-1E+10	1	-1E+10	1	-1E+10	1
4902551	109	C	08/22/2023	01:08	-131.221	47.473	0	542.70	0	4.5250	0	34.0930	0	27.014	0	537.467	0	26.6	4	8.5	4	-1E+10	1	-1E+10	1	-1E+10	1	-1E+10	1	-1E+10	1	-1E+10	1
4902551	109	C	08/22/2023	01:08	-131.221	47.473	0	548.00	0	4.4920	0	34.0970	0	27.021	0	542.709	0	25.7	4	8.2	4	-1E+10	1	-1E+10	1	-1E+10	1	-1E+10	1	-1E+10	1	-1E+10	1
4902551	109	C	08/22/2023	01:08	-131.221	47.473	0	553.00	0	4.4780	0	34.1030	0	27.027	0	547.654	0	24.9	4	7.9	4	-1E+10	1	-1E+10	1	-1E+10	1	-1E+10	1	-1E+10	1	-1E+10	1
4902551	109	C	08/22/2023	01:08	-131.221	47.473	0	557.80	0	4.4570	0	34.1070	0	27.032	0	552.402	0	24.0	4	7.6	4	-1E+10	1	-1E+10	1	-1E+10	1	-1E+10	1	-1E+10	1	-1E+10	1
4902551	109	C	08/22/2023	01:08	-131.221	47.473	0	562.80	0	4.4600	0	34.1160	0	27.039	0	557.347	0	23.2	4	7.4	4	-1E+10	1	-1E+10	1	-1E+10	1	-1E+10	1	-1E+10	1	-1E+10	1
4902551	109	C	08/22/2023	01:08	-131.221	47.473	0	567.70	0	4.4450	0	34.1180	0	27.042	0	562.192	0	22.6	4	7.2	4	-1E+10	1	-1E+10	1	-1E+10	1	-1E+10	1	-1E+10	1	-1E+10	1
4902551	109	C	08/22/2023	01:08	-131.221	47.473	0	573.00	0	4.4440	0	34.1260	0	27.049	0	567.434	0	22.1	4	7.0	4	-1E+10	1	-1E+10	1	-1E+10	1	-1E+10	1	-1E+10	1	-1E+10	1
4902551	109	C	08/22/2023	01:08	-131.221	47.473	0	578.00	0	4.4210	0	34.1270	0	27.052	0	572.378	0	21.8	4	7.0	4	-1E+10	1	-1E+10	1	-1E+10	1	-1E+10	1	-1E+10	1	-1E+10	1
4902551	109	C	08/22/2023	01:08	-131.221	47.473	0	582.80	0	4.3750	0	34.1280	0	27.058	0	577.125	0	21.4	4	6.8	4	-1E+10	1	-1E+10	1	-1E+10	1	-1E+10	1	-1E+10	1	-1E+10	1
4902551	109	C	08/22/2023	01:08	-131.221	47.473	0	587.90	0	4.3420	0	34.1350	0	27.067	0	582.168	0	20.9	4	6.6	4	-1E+10	1	-1E+10	1	-1E+10	1	-1E+10	1	-1E+10	1	-1E+10	1
4902551	109	C	08/22/2023	01:08	-131.221	47.473	0	593.00	0	4.3180	0	34.1380	0	27.072	0	587.211	0	20.6	4	6.5	4	-1E+10	1	-1E+10	1	-1E+10	1	-1E+10	1	-1E+10	1	-1E+10	1
4902551	109	C	08/22/2023	01:08	-131.221	47.473	0	598.20	0	4.3080	0	34.1400	0	27.075	0	592.353	0	20.2	4	6.4	4	-1E+10	1	-1E+10	1	-1E+10	1	-1E+10	1	-1E+10	1	-1E+10	1
4902551	109	C	08/22/2023	01:08	-131.221	47.473	0	602.90	0	4.2920	0	34.1420	0	27.078	0	597.000	0	19.8	4	6.3	4	-1E+10	1	-1E+10	1	-1E+10	1	-1E+10	1	-1E+10	1	-1E+10	1
4902551	109	C	08/22/2023	01:08	-131.221	47.473	0	607.60	0	4.2660	0	34.1480	0	27.086	0	601.648	0	19.3	4	6.1	4	-1E+10	1	-1E+10	1	-1E+10	1	-1E+10	1	-1E+10	1	-1E+10	1
4902551	109	C	08/22/2023	01:08	-131.221	47.473	0	612.90	0	4.2450	0	34.1510	0	27.090	0	606.888	0	18.8	4	6.0	4	-1E+10	1	-1E+10	1	-1E+10	1	-1E+10	1	-1E+10	1	-1E+10	1
4902551	109	C	08/22/2023	01:08	-131.221	47.473	0	618.20	0	4.2410	0	34.1570	0	27.095	0	612.128	0	18.5	4	5.9	4	-1E+10	1	-1E+10	1	-1E+10	1	-1E+10	1	-1E+10	1	-1E+10	1
4902551	109	C	08/22/2023	01:08	-131.221	47.473	0	623.10	0	4.2150	0	34.1600	0	27.101	0	616.973	0	18.1	4	5.7	4	-1E+10	1	-1E+10	1	-1E+10	1	-1E+10	1	-1E+10	1	-1E+10	1
4902551	109	C	08/22/2023	01:08	-131.221	47.473	0	628.10	0	4.2030	0	34.1640	0	27.105	0	621.916	0	17.8	4	5.6	4	-1E+10	1	-1E+10	1	-1E+10	1	-1E+10	1	-1E+10	1	-1E+10	1
4902551	109	C	08/22/2023	01:08	-131.221	47.473	0	633.10	0	4.1850	0	34.1670	0	27.109	0	626.859	0	17.4	4	5.5	4	-1E+10	1	-1E+10	1	-1E+10	1	-1E+10	1	-1E+10	1	-1E+10	1
4902551	109	C	08/22/2023	01:08	-131.221	47.473	0	638.20	0	4.1710	0	34.1720	0	27.115	0	631.902	0	17.1	4	5.4	4	-1E+10	1	-1E+10	1	-1E+10	1	-1E+10	1	-1E+10	1	-1E+10	1
4902551	109	C	08/22/2023	01:08	-131.221	47.473	0	643.30	0	4.1660	0	34.1760	0	27.119	0	636.943	0	16.8	4	5.3	4	-1E+10	1	-1E+10	1	-1E+10	1	-1E+10	1	-1E+10	1	-1E+10	1
4902551	109	C	08/22/2023	01:08	-131.221	47.473	0	648.40	0	4.1300	0	34.1800	0	27.125	0	641.985	0	16.6	4	5.2	4	-1E+10	1	-1E+10	1	-1E+10	1	-1E+10	1	-1E+10	1	-1E+10	1
4902551	109	C	08/22/2023	01:08	-131.221	47.473	0	653.10	0	4.1100	0	34.1850	0	27.132	0	646.631	0	16.5	4	5.2	4	-1E+10	1	-1E+10	1	-1E+10	1	-1E+10	1	-1E+10	1	-1E+10	1
4902551	109	C	08/22/2023	01:08	-131.221	47.473	0	657.90	0	4.0980	0	34.1860	0	27.134	0	651.376	0	16.4	4	5.2	4	-1E+10	1	-1E+10	1	-1E+10	1	-1E+10	1	-1E+10	1	-1E+10	1
4902551	109	C	08/22/2023	01:08	-131.221	47.473	0	663.10	0	4.0850	0	34.1870	0	27.136	0	656.517	0	16.4	4	5.2	4	-1E+10	1	-1E+10	1	-1E+10	1	-1E+10	1	-1E+10	1	-1E+10	1
4902551	109	C	08/22/2023	01:08	-131.221	47.473	0	667.90	0	4.0630	0	34.1880	0	27.139	0	661.261	0	16.4	4	5.2	4	-1E+10	1	-1E+10	1	-1E+10	1	-1E+10	1	-1E+10	1	-1E+10	1
4902551	109	C	08/22/2023	01:08	-131.221	47.473	0	672.80	0	4.0370	0	34.1900	0	27.143	0	666.105	0	16.4	4	5.2	4	-1E+10	1	-1E+10	1	-1E+10	1	-1E+10	1	-1E+10	1	-1E+10	1
4902551	109	C	08/22/2023	01:08	-131.221	47.473	0	677.80	0	4.0190	0	34.1930	0	27.147	0	671.047	0	16.2	4	5.1	4	-1E+10	1	-1E+10	1	-1E+10	1	-1E+10	1	-1E+10	1	-1E+10	1
4902551	109	C	08/22/2023	01:08	-131.221	47.473	0	682.90	0	4.0030	0	34.1940	0	27.150	0	676.088	0	16.1	4	5.1	4	-1E+10	1	-1E+10	1	-1E+10	1	-1E+10	1	-1E+10	1	-1E+10	1
4902551	109	C	08/22/2023	01:08	-131.221	47.473	0	688.10	0	4.0030	0	34.1980	0	27.153	0	681.227	0	15.9	4	5.0	4	-1E+10	1	-1E+10	1	-1E+10	1	-1E+10	1	-1E+10	1	-1E+10	1
4902551	109	C	08/22/2023	01:08	-131.221	47.473	0	692.90	0	3.9890	0	34.2000	0	27.156	0	685.972	0	16.0	4	5.1	4	-1E+10	1	-1E+10	1	-1E+10	1	-1E+10	1	-1E+10	1	-1E+10	1
4902551	109	C	08/22/2023	01:08	-131.221	47.473	0	697.70	0	3.9570	0	34.2000	0	27.159	0	690.716	0	16.2	4	5.1	4	-1E+10	1	-1E+10	1	-1E+10	1	-1E+10	1	-1E+10	1	-1E+10	1
4902551	109	C	08/22/2023	01:08	-131.221	47.473	0	703.10	0	3.9230	0	34.2010	0	27.164	0	696.053	0	16.0	4	5.0	4	-1E+10	1	-1E+10	1	-1E+10	1	-1E+10	1	-1E+10	1	-1E+10	1
4902551	109	C	08/22/2023	01:08	-131.221	47.473	0	708.00	0	3.9250	0	34.2050	0	27.167	0	700.895	0	16.0	4	5.0	4	-1E+10	1	-1E+10	1	-1E+10	1	-1E+10	1	-1E+10	1	-1E+10	1
4902551	109	C	08/22/2023	01:08	-131.221	47.473	0	712.90	0	3.8910	0	34.2070	0	27.172	0	705.738	0	16.1	4	5.1	4	-1E+10	1	-1E+10	1	-1E+10	1	-1E+10	1	-1E+10	1	-1E+10	1
4902551	109	C	08/22/2023	01:08	-131.221	47.473	0	717.90	0	3.8690	0	34.2060	0	27.173	0	710.679	0	16.1	4	5.1	4	-1E+10	1	-1E+10	1	-1E+10	1	-1E+10	1	-1E+10	1	-1E+10	1
4902551	109	C	08/22/2023	01:08	-131.221	47.473	0	722.90	0	3.8360	0	34.2110	0	27.181	0	715.620	0	15.8	4	5.0	4	-1E+10	1	-1E+10	1	-1E+10	1	-1E+10	1	-1E+10	1	-1E+10	1
4902551	109	C	08/22/2023	01:08	-131.221	47.473	0	727.90	0	3.8260	0	34.2110	0	27.182	0	720.561	0	15.5	4	4.9	4	-1E+10	1	-1E+10	1	-1E+10	1	-1E+10	1	-1E+10	1	-1E+10	1
4902551	109	C	08/22/2023	01:08	-131.221	47.473	0	732.90	0	3.8320	0	34.2160	0	27.185	0	725.502	0	15.3	4	4.8	4	-1E+10	1	-1E+10	1	-1E+10	1	-1E+10	1	-1E+10	1	-1E+10	1
4902551	109	C	08/22/2023	01:08	-131.221	47.473	0	737.90	0	3.8180	0	34.2190	0	27.189	0	730.443	0	15.4	4	4.8	4	-1E+10	1	-1E+10	1	-1E+10	1	-1E+10	1	-1E+10	1	-1E+10	1
4902551	109	C	08/22/2023	01:08	-131.221	47.473	0	742.90	0	3.7970	0	34.2210	0	27.193	0	735.384	0	15.6	4	4.9	4	-1E+10	1	-1E+10	1	-1E+10	1	-1E+10	1	-1E+10	1	-1E+10	1
4902551	109	C	08/22/2023	01:08	-131.221	47.473	0	748.00	0	3.7760	0	34.2230	0	27.196	0	740.423	0	15.9	4	5.0	4	-1E+10	1	-1E+10	1	-1E+10	1	-1E+10	1	-1E+10	1	-1E+10	1
4902551	109	C	08/22/2023	01:08	-131.221	47.473	0	752.60	0	3.7390	0	34.2220	0	27.199	0	744.968	0	15.9	4	5.0	4	-1E+10	1	-1E+10	1	-1E+10	1	-1E+10	1	-1E+10	1	-1E+10	1
4902551	109	C	08/22/2023	01:08	-131.221	47.473	0	757.80	0	3.7220	0	34.2240	0	27.202	0	750.106	0	15.8	4	5.0	4	-1E+10	1	-1E+10	1	-1E+10	1	-1E+10	1	-1E+10	1	-1E+10	1
4902551	109	C	08/22/2023	01:08	-131.221	47.473	0	763.20	0	3.7070	0	34.2270	0	27.206	0	755.441	0	15.6	4	4.9	4	-1E+10	1	-1E+10	1	-1E+10	1	-1E+10	1	-1E+10	1	-1E+10	1
4902551	109	C	08/22/2023	01:08	-131.221	47.473	0	768.10	0	3.7040	0	34.2280	0	27.207	0	760.283	0	15.4	4	4.8	4	-1E+10	1	-1E+10	1	-1E+10	1	-1E+10	1	-1E+10	1	-1E+10	1
4902551	109	C	08/22/2023	01:08	-131.221	47.473	0	773.00	0	3.6970	0	34.2300	0	27.210	0	765.124	0	15.2	4	4.8	4	-1E+10	1	-1E+10	1	-1E+10	1	-1E+10	1	-1E+10	1	-1E+10	1
4902551	109	C	08/22/2023	01:08	-131.221	47.473	0	777.90	0	3.6840	0	34.2350	0	27.215	0	769.965	0	14.9	4	4.7	4	-1E+10	1	-1E+10	1	-1E+10	1	-1E+10	1	-1E+10	1	-1E+10	1
4902551	109	C	08/22/2023	01:08	-131.221	47.473	0	782.80	0	3.6780	0	34.2390	0	27.219	0	774.806	0	14.7	4	4.6	4	-1E+10	1	-1E+10	1	-1E+10	1	-1E+10	1	-1E+10	1	-1E+10	1
4902551	109	C	08/22/2023	01:08	-131.221	47.473	0	787.80	0	3.6720	0	34.2410	0	27.221	0	779.745	0	14.4	4	4.5	4	-1E+10	1	-1E+10	1	-1E+10	1	-1E+10	1	-1E+10	1	-1E+10	1
4902551	109	C	08/22/2023	01:08	-131.221	47.473	0	792.90	0	3.6520	0	34.2470	0	27.228	0	784.784	0	14.2	4	4.4	4	-1E+10	1	-1E+10	1	-1E+10	1	-1E+10	1	-1E+10	1	-1E+10	1
4902551	109	C	08/22/2023	01:08	-131.221	47.473	0	797.90	0	3.6320	0	34.2520	0	27.234	0	789.723	0	14.0	4	4.4	4	-1E+10	1	-1E+10	1	-1E+10	1	-1E+10	1	-1E+10	1	-1E+10	1
4902551	109	C	08/22/2023	01:08	-131.221	47.473	0	802.90	0	3.6210	0	34.2540	0	27.237	0	794.662	0	13.9	4	4.4	4	-1E+10	1	-1E+10	1	-1E+10	1	-1E+10	1	-1E+10	1	-1E+10	1
4902551	109	C	08/22/2023	01:08	-131.221	47.473	0	808.00	0	3.6090	0	34.2560	0	27.239	0	799.700	0	13.8	4	4.3	4	-1E+10	1	-1E+10	1	-1E+10	1	-1E+10	1	-1E+10	1	-1E+10	1
4902551	109	C	08/22/2023	01:08	-131.221	47.473	0	813.10	0	3.6030	0	34.2580	0	27.242	0	804.738	0	13.6	4	4.3	4	-1E+10	1	-1E+10	1	-1E+10	1	-1E+10	1	-1E+10	1	-1E+10	1
4902551	109	C	08/22/2023	01:08	-131.221	47.473	0	818.20	0	3.5960	0	34.2610	0	27.245	0	809.776	0	13.5	4	4.2	4	-1E+10	1	-1E+10	1	-1E+10	1	-1E+10	1	-1E+10	1	-1E+10	1
4902551	109	C	08/22/2023	01:08	-131.221	47.473	0	822.90	0	3.5910	0	34.2630	0	27.247	0	814.418	0	13.4	4	4.2	4	-1E+10	1	-1E+10	1	-1E+10	1	-1E+10	1	-1E+10	1	-1E+10	1
4902551	109	C	08/22/2023	01:08	-131.221	47.473	0	827.50	0	3.5880	0	34.2640	0	27.248	0	818.962	0	13.3	4	4.1	4	-1E+10	1	-1E+10	1	-1E+10	1	-1E+10	1	-1E+10	1	-1E+10	1
4902551	109	C	08/22/2023	01:08	-131.221	47.473	0	832.50	0	3.5740	0	34.2680	0	27.252	0	823.900	0	13.1	4	4.1	4	-1E+10	1	-1E+10	1	-1E+10	1	-1E+10	1	-1E+10	1	-1E+10	1
4902551	109	C	08/22/2023	01:08	-131.221	47.473	0	837.50	0	3.5660	0	34.2700	0	27.255	0	828.839	0	12.9	4	4.0	4	-1E+10	1	-1E+10	1	-1E+10	1	-1E+10	1	-1E+10	1	-1E+10	1
4902551	109	C	08/22/2023	01:08	-131.221	47.473	0	842.70	0	3.5560	0	34.2740	0	27.259	0	833.975	0	12.8	4	4.0	4	-1E+10	1	-1E+10	1	-1E+10	1	-1E+10	1	-1E+10	1	-1E+10	1
4902551	109	C	08/22/2023	01:08	-131.221	47.473	0	847.80	0	3.5520	0	34.2760	0	27.261	0	839.012	0	12.6	4	4.0	4	-1E+10	1	-1E+10	1	-1E+10	1	-1E+10	1	-1E+10	1	-1E+10	1
4902551	109	C	08/22/2023	01:08	-131.221	47.473	0	852.90	0	3.5440	0	34.2790	0	27.264	0	844.048	0	12.5	4	3.9	4	-1E+10	1	-1E+10	1	-1E+10	1	-1E+10	1	-1E+10	1	-1E+10	1
4902551	109	C	08/22/2023	01:08	-131.221	47.473	0	858.10	0	3.5360	0	34.2820	0	27.267	0	849.184	0	12.4	4	3.9	4	-1E+10	1	-1E+10	1	-1E+10	1	-1E+10	1	-1E+10	1	-1E+10	1
4902551	109	C	08/22/2023	01:08	-131.221	47.473	0	863.20	0	3.5290	0	34.2850	0	27.271	0	854.221	0	12.2	4	3.8	4	-1E+10	1	-1E+10	1	-1E+10	1	-1E+10	1	-1E+10	1	-1E+10	1
4902551	109	C	08/22/2023	01:08	-131.221	47.473	0	867.90	0	3.5230	0	34.2870	0	27.273	0	858.862	0	12.1	4	3.8	4	-1E+10	1	-1E+10	1	-1E+10	1	-1E+10	1	-1E+10	1	-1E+10	1
4902551	109	C	08/22/2023	01:08	-131.221	47.473	0	872.60	0	3.5150	0	34.2900	0	27.276	0	863.503	0	11.9	4	3.7	4	-1E+10	1	-1E+10	1	-1E+10	1	-1E+10	1	-1E+10	1	-1E+10	1
4902551	109	C	08/22/2023	01:08	-131.221	47.473	0	877.90	0	3.4990	0	34.2940	0	27.281	0	868.737	0	11.8	4	3.7	4	-1E+10	1	-1E+10	1	-1E+10	1	-1E+10	1	-1E+10	1	-1E+10	1
4902551	109	C	08/22/2023	01:08	-131.221	47.473	0	883.20	0	3.4870	0	34.2990	0	27.286	0	873.971	0	11.7	4	3.6	4	-1E+10	1	-1E+10	1	-1E+10	1	-1E+10	1	-1E+10	1	-1E+10	1
4902551	109	C	08/22/2023	01:08	-131.221	47.473	0	888.30	0	3.4790	0	34.3010	0	27.288	0	879.007	0	11.6	4	3.6	4	-1E+10	1	-1E+10	1	-1E+10	1	-1E+10	1	-1E+10	1	-1E+10	1
4902551	109	C	08/22/2023	01:08	-131.221	47.473	0	893.10	0	3.4690	0	34.3030	0	27.291	0	883.746	0	11.5	4	3.6	4	-1E+10	1	-1E+10	1	-1E+10	1	-1E+10	1	-1E+10	1	-1E+10	1
4902551	109	C	08/22/2023	01:08	-131.221	47.473	0	897.90	0	3.4670	0	34.3070	0	27.294	0	888.486	0	11.4	4	3.5	4	-1E+10	1	-1E+10	1	-1E+10	1	-1E+10	1	-1E+10	1	-1E+10	1
4902551	109	C	08/22/2023	01:08	-131.221	47.473	0	903.10	0	3.4540	0	34.3100	0	27.298	0	893.620	0	11.2	4	3.5	4	-1E+10	1	-1E+10	1	-1E+10	1	-1E+10	1	-1E+10	1	-1E+10	1
4902551	109	C	08/22/2023	01:08	-131.221	47.473	0	907.90	0	3.4430	0	34.3150	0	27.303	0	898.360	0	11.1	4	3.5	4	-1E+10	1	-1E+10	1	-1E+10	1	-1E+10	1	-1E+10	1	-1E+10	1
4902551	109	C	08/22/2023	01:08	-131.221	47.473	0	912.70	0	3.4250	0	34.3200	0	27.309	0	903.099	0	11.1	4	3.5	4	-1E+10	1	-1E+10	1	-1E+10	1	-1E+10	1	-1E+10	1	-1E+10	1
4902551	109	C	08/22/2023	01:08	-131.221	47.473	0	917.70	0	3.4010	0	34.3230	0	27.313	0	908.035	0	11.1	4	3.5	4	-1E+10	1	-1E+10	1	-1E+10	1	-1E+10	1	-1E+10	1	-1E+10	1
4902551	109	C	08/22/2023	01:08	-131.221	47.473	0	922.70	0	3.3820	0	34.3270	0	27.318	0	912.972	0	11.1	4	3.5	4	-1E+10	1	-1E+10	1	-1E+10	1	-1E+10	1	-1E+10	1	-1E+10	1
4902551	109	C	08/22/2023	01:08	-131.221	47.473	0	927.80	0	3.3620	0	34.3300	0	27.323	0	918.007	0	11.1	4	3.5	4	-1E+10	1	-1E+10	1	-1E+10	1	-1E+10	1	-1E+10	1	-1E+10	1
4902551	109	C	08/22/2023	01:08	-131.221	47.473	0	932.70	0	3.3490	0	34.3330	0	27.326	0	922.844	0	11.1	4	3.5	4	-1E+10	1	-1E+10	1	-1E+10	1	-1E+10	1	-1E+10	1	-1E+10	1
4902551	109	C	08/22/2023	01:08	-131.221	47.473	0	937.90	0	3.3340	0	34.3350	0	27.329	0	927.978	0	11.1	4	3.5	4	-1E+10	1	-1E+10	1	-1E+10	1	-1E+10	1	-1E+10	1	-1E+10	1
4902551	109	C	08/22/2023	01:08	-131.221	47.473	0	943.10	0	3.3210	0	34.3360	0	27.331	0	933.111	0	11.2	4	3.5	4	-1E+10	1	-1E+10	1	-1E+10	1	-1E+10	1	-1E+10	1	-1E+10	1
4902551	109	C	08/22/2023	01:08	-131.221	47.473	0	947.90	0	3.3140	0	34.3370	0	27.333	0	937.850	0	11.1	4	3.5	4	-1E+10	1	-1E+10	1	-1E+10	1	-1E+10	1	-1E+10	1	-1E+10	1
4902551	109	C	08/22/2023	01:08	-131.221	47.473	0	952.90	0	3.3090	0	34.3380	0	27.334	0	942.785	0	11.1	4	3.5	4	-1E+10	1	-1E+10	1	-1E+10	1	-1E+10	1	-1E+10	1	-1E+10	1
4902551	109	C	08/22/2023	01:08	-131.221	47.473	0	957.90	0	3.2980	0	34.3400	0	27.337	0	947.721	0	11.1	4	3.5	4	-1E+10	1	-1E+10	1	-1E+10	1	-1E+10	1	-1E+10	1	-1E+10	1
4902551	109	C	08/22/2023	01:08	-131.221	47.473	0	963.00	0	3.2850	0	34.3420	0	27.340	0	952.755	0	11.2	4	3.5	4	-1E+10	1	-1E+10	1	-1E+10	1	-1E+10	1	-1E+10	1	-1E+10	1
4902551	109	C	08/22/2023	01:08	-131.221	47.473	0	968.00	0	3.2700	0	34.3450	0	27.344	0	957.691	0	11.2	4	3.5	4	-1E+10	1	-1E+10	1	-1E+10	1	-1E+10	1	-1E+10	1	-1E+10	1
4902551	109	C	08/22/2023	01:08	-131.221	47.473	0	973.20	0	3.2600	0	34.3470	0	27.346	0	962.823	0	11.2	4	3.5	4	-1E+10	1	-1E+10	1	-1E+10	1	-1E+10	1	-1E+10	1	-1E+10	1
4902551	109	C	08/22/2023	01:08	-131.221	47.473	0	978.30	0	3.2500	0	34.3490	0	27.349	0	967.857	0	11.2	4	3.5	4	-1E+10	1	-1E+10	1	-1E+10	1	-1E+10	1	-1E+10	1	-1E+10	1
4902551	109	C	08/22/2023	01:08	-131.221	47.473	0	983.00	0	3.2300	0	34.3520	0	27.353	0	972.496	0	11.2	4	3.5	4	-1E+10	1	-1E+10	1	-1E+10	1	-1E+10	1	-1E+10	1	-1E+10	1
4902551	109	C	08/22/2023	01:08	-131.221	47.473	0	987.60	0	3.2220	0	34.3550	0	27.356	0	977.036	0	11.2	4	3.5	4	-1E+10	1	-1E+10	1	-1E+10	1	-1E+10	1	-1E+10	1	-1E+10	1
4902551	109	C	08/22/2023	01:08	-131.221	47.473	0	992.70	0	3.2110	0	34.3570	0	27.359	0	982.070	0	11.2	4	3.5	4	-1E+10	1	-1E+10	1	-1E+10	1	-1E+10	1	-1E+10	1	-1E+10	1
4902551	109	C	08/22/2023	01:08	-131.221	47.473	0	997.80	0	3.2010	0	34.3600	0	27.362	0	987.103	0	11.2	4	3.5	4	-1E+10	1	-1E+10	1	-1E+10	1	-1E+10	1	-1E+10	1	-1E+10	1
4902551	109	C	08/22/2023	01:08	-131.221	47.473	0	1005.50	0	3.1830	0	34.3620	0	27.365	0	994.702	0	11.3	4	3.5	4	-1E+10	1	-1E+10	1	-1E+10	1	-1E+10	1	-1E+10	1	-1E+10	1
4902551	109	C	08/22/2023	01:08	-131.221	47.473	0	1015.10	0	3.1510	0	34.3640	0	27.370	0	1004.176	0	11.3	4	3.5	4	-1E+10	1	-1E+10	1	-1E+10	1	-1E+10	1	-1E+10	1	-1E+10	1
4902551	109	C	08/22/2023	01:08	-131.221	47.473	0	1025.10	0	3.1330	0	34.3670	0	27.374	0	1014.044	0	11.4	4	3.5	4	-1E+10	1	-1E+10	1	-1E+10	1	-1E+10	1	-1E+10	1	-1E+10	1
4902551	109	C	08/22/2023	01:08	-131.221	47.473	0	1035.10	0	3.1220	0	34.3730	0	27.380	0	1023.912	0	11.4	4	3.5	4	-1E+10	1	-1E+10	1	-1E+10	1	-1E+10	1	-1E+10	1	-1E+10	1
4902551	109	C	08/22/2023	01:08	-131.221	47.473	0	1045.40	0	3.1010	0	34.3750	0	27.384	0	1034.075	0	11.4	4	3.5	4	-1E+10	1	-1E+10	1	-1E+10	1	-1E+10	1	-1E+10	1	-1E+10	1
4902551	109	C	08/22/2023	01:08	-131.221	47.473	0	1055.60	0	3.0900	0	34.3770	0	27.386	0	1044.140	0	11.5	4	3.6	4	-1E+10	1	-1E+10	1	-1E+10	1	-1E+10	1	-1E+10	1	-1E+10	1
4902551	109	C	08/22/2023	01:08	-131.221	47.473	0	1065.70	0	3.0750	0	34.3800	0	27.390	0	1054.104	0	11.6	4	3.6	4	-1E+10	1	-1E+10	1	-1E+10	1	-1E+10	1	-1E+10	1	-1E+10	1
4902551	109	C	08/22/2023	01:08	-131.221	47.473	0	1075.50	0	3.0550	0	34.3830	0	27.394	0	1063.773	0	11.6	4	3.6	4	-1E+10	1	-1E+10	1	-1E+10	1	-1E+10	1	-1E+10	1	-1E+10	1
4902551	109	C	08/22/2023	01:08	-131.221	47.473	0	1085.30	0	3.0310	0	34.3880	0	27.401	0	1073.441	0	11.7	4	3.6	4	-1E+10	1	-1E+10	1	-1E+10	1	-1E+10	1	-1E+10	1	-1E+10	1
4902551	109	C	08/22/2023	01:08	-131.221	47.473	0	1095.20	0	3.0140	0	34.3900	0	27.404	0	1083.207	0	11.8	4	3.7	4	-1E+10	1	-1E+10	1	-1E+10	1	-1E+10	1	-1E+10	1	-1E+10	1
4902551	109	C	08/22/2023	01:08	-131.221	47.473	0	1105.30	0	2.9920	0	34.3960	0	27.411	0	1093.171	0	12.0	4	3.7	4	-1E+10	1	-1E+10	1	-1E+10	1	-1E+10	1	-1E+10	1	-1E+10	1
4902551	109	C	08/22/2023	01:08	-131.221	47.473	0	1115.40	0	2.9740	0	34.4000	0	27.415	0	1103.133	0	12.1	4	3.7	4	-1E+10	1	-1E+10	1	-1E+10	1	-1E+10	1	-1E+10	1	-1E+10	1
4902551	109	C	08/22/2023	01:08	-131.221	47.473	0	1125.20	0	2.9530	0	34.4050	0	27.421	0	1112.799	0	12.3	4	3.8	4	-1E+10	1	-1E+10	1	-1E+10	1	-1E+10	1	-1E+10	1	-1E+10	1
4902551	109	C	08/22/2023	01:08	-131.221	47.473	0	1135.30	0	2.9420	0	34.4090	0	27.426	0	1122.761	0	12.4	4	3.8	4	-1E+10	1	-1E+10	1	-1E+10	1	-1E+10	1	-1E+10	1	-1E+10	1
4902551	109	C	08/22/2023	01:08	-131.221	47.473	0	1145.50	0	2.9340	0	34.4120	0	27.429	0	1132.821	0	12.6	4	3.9	4	-1E+10	1	-1E+10	1	-1E+10	1	-1E+10	1	-1E+10	1	-1E+10	1
4902551	109	C	08/22/2023	01:08	-131.221	47.473	0	1155.30	0	2.9250	0	34.4170	0	27.434	0	1142.486	0	12.8	4	3.9	4	-1E+10	1	-1E+10	1	-1E+10	1	-1E+10	1	-1E+10	1	-1E+10	1
4902551	109	C	08/22/2023	01:08	-131.221	47.473	0	1165.20	0	2.8840	0	34.4190	0	27.439	0	1152.249	0	12.9	4	4.0	4	-1E+10	1	-1E+10	1	-1E+10	1	-1E+10	1	-1E+10	1	-1E+10	1
4902551	109	C	08/22/2023	01:08	-131.221	47.473	0	1175.60	0	2.8550	0	34.4210	0	27.443	0	1162.505	0	13.0	4	4.0	4	-1E+10	1	-1E+10	1	-1E+10	1	-1E+10	1	-1E+10	1	-1E+10	1
4902551	109	C	08/22/2023	01:08	-131.221	47.473	0	1185.70	0	2.8450	0	34.4230	0	27.446	0	1172.464	0	13.2	4	4.0	4	-1E+10	1	-1E+10	1	-1E+10	1	-1E+10	1	-1E+10	1	-1E+10	1
4902551	109	C	08/22/2023	01:08	-131.221	47.473	0	1195.50	0	2.8440	0	34.4260	0	27.448	0	1182.127	0	13.4	4	4.1	4	-1E+10	1	-1E+10	1	-1E+10	1	-1E+10	1	-1E+10	1	-1E+10	1
4902551	109	C	08/22/2023	01:08	-131.221	47.473	0	1205.60	0	2.8290	0	34.4290	0	27.452	0	1192.085	0	13.5	4	4.1	4	-1E+10	1	-1E+10	1	-1E+10	1	-1E+10	1	-1E+10	1	-1E+10	1
4902551	109	C	08/22/2023	01:08	-131.221	47.473	0	1215.40	0	2.8130	0	34.4300	0	27.454	0	1201.748	0	13.6	4	4.2	4	-1E+10	1	-1E+10	1	-1E+10	1	-1E+10	1	-1E+10	1	-1E+10	1
4902551	109	C	08/22/2023	01:08	-131.221	47.473	0	1225.30	0	2.7970	0	34.4320	0	27.457	0	1211.508	0	13.9	4	4.3	4	-1E+10	1	-1E+10	1	-1E+10	1	-1E+10	1	-1E+10	1	-1E+10	1
4902551	109	C	08/22/2023	01:08	-131.221	47.473	0	1235.30	0	2.7990	0	34.4380	0	27.462	0	1221.366	0	14.4	4	4.4	4	-1E+10	1	-1E+10	1	-1E+10	1	-1E+10	1	-1E+10	1	-1E+10	1
4902551	109	C	08/22/2023	01:08	-131.221	47.473	0	1245.40	0	2.8020	0	34.4450	0	27.467	0	1231.323	0	15.0	4	4.6	4	-1E+10	1	-1E+10	1	-1E+10	1	-1E+10	1	-1E+10	1	-1E+10	1
4902551	109	C	08/22/2023	01:08	-131.221	47.473	0	1255.50	0	2.8010	0	34.4500	0	27.472	0	1241.279	0	15.3	4	4.7	4	-1E+10	1	-1E+10	1	-1E+10	1	-1E+10	1	-1E+10	1	-1E+10	1
4902551	109	C	08/22/2023	01:08	-131.221	47.473	0	1265.60	0	2.7900	0	34.4530	0	27.475	0	1251.235	0	15.9	4	4.9	4	-1E+10	1	-1E+10	1	-1E+10	1	-1E+10	1	-1E+10	1	-1E+10	1
4902551	109	C	08/22/2023	01:08	-131.221	47.473	0	1275.40	0	2.7910	0	34.4580	0	27.479	0	1260.894	0	16.2	4	5.0	4	-1E+10	1	-1E+10	1	-1E+10	1	-1E+10	1	-1E+10	1	-1E+10	1
4902551	109	C	08/22/2023	01:08	-131.221	47.473	0	1285.30	0	2.7820	0	34.4610	0	27.482	0	1270.652	0	16.6	4	5.1	4	-1E+10	1	-1E+10	1	-1E+10	1	-1E+10	1	-1E+10	1	-1E+10	1
4902551	109	C	08/22/2023	01:08	-131.221	47.473	0	1295.30	0	2.7700	0	34.4640	0	27.486	0	1280.507	0	17.0	4	5.2	4	-1E+10	1	-1E+10	1	-1E+10	1	-1E+10	1	-1E+10	1	-1E+10	1
4902551	109	C	08/22/2023	01:08	-131.221	47.473	0	1305.40	0	2.7500	0	34.4660	0	27.489	0	1290.461	0	17.4	4	5.3	4	-1E+10	1	-1E+10	1	-1E+10	1	-1E+10	1	-1E+10	1	-1E+10	1
4902551	109	C	08/22/2023	01:08	-131.221	47.473	0	1315.60	0	2.7330	0	34.4680	0	27.492	0	1300.513	0	17.7	4	5.4	4	-1E+10	1	-1E+10	1	-1E+10	1	-1E+10	1	-1E+10	1	-1E+10	1
4902551	109	C	08/22/2023	01:08	-131.221	47.473	0	1325.50	0	2.7150	0	34.4710	0	27.496	0	1310.268	0	18.0	4	5.5	4	-1E+10	1	-1E+10	1	-1E+10	1	-1E+10	1	-1E+10	1	-1E+10	1
4902551	109	C	08/22/2023	01:08	-131.221	47.473	0	1335.30	0	2.7040	0	34.4730	0	27.499	0	1319.925	0	18.3	4	5.6	4	-1E+10	1	-1E+10	1	-1E+10	1	-1E+10	1	-1E+10	1	-1E+10	1
4902551	109	C	08/22/2023	01:08	-131.221	47.473	0	1345.10	0	2.6850	0	34.4740	0	27.501	0	1329.581	0	18.4	4	5.6	4	-1E+10	1	-1E+10	1	-1E+10	1	-1E+10	1	-1E+10	1	-1E+10	1
4902551	109	C	08/22/2023	01:08	-131.221	47.473	0	1355.10	0	2.6660	0	34.4750	0	27.504	0	1339.434	0	18.8	4	5.8	4	-1E+10	1	-1E+10	1	-1E+10	1	-1E+10	1	-1E+10	1	-1E+10	1
4902551	109	C	08/22/2023	01:08	-131.221	47.473	0	1365.10	0	2.6580	0	34.4780	0	27.507	0	1349.287	0	19.1	4	5.9	4	-1E+10	1	-1E+10	1	-1E+10	1	-1E+10	1	-1E+10	1	-1E+10	1
4902551	109	C	08/22/2023	01:08	-131.221	47.473	0	1375.30	0	2.6390	0	34.4780	0	27.509	0	1359.336	0	19.5	4	6.0	4	-1E+10	1	-1E+10	1	-1E+10	1	-1E+10	1	-1E+10	1	-1E+10	1
4902551	109	C	08/22/2023	01:08	-131.221	47.473	0	1385.30	0	2.6320	0	34.4820	0	27.513	0	1369.187	0	20.2	4	6.2	4	-1E+10	1	-1E+10	1	-1E+10	1	-1E+10	1	-1E+10	1	-1E+10	1
4902551	109	C	08/22/2023	01:08	-131.221	47.473	0	1395.50	0	2.6080	0	34.4860	0	27.518	0	1379.235	0	20.8	4	6.4	4	-1E+10	1	-1E+10	1	-1E+10	1	-1E+10	1	-1E+10	1	-1E+10	1
4902551	109	C	08/22/2023	01:08	-131.221	47.473	0	1405.50	0	2.5830	0	34.4880	0	27.522	0	1389.086	0	21.2	4	6.5	4	-1E+10	1	-1E+10	1	-1E+10	1	-1E+10	1	-1E+10	1	-1E+10	1
4902551	109	C	08/22/2023	01:08	-131.221	47.473	0	1415.20	0	2.5710	0	34.4890	0	27.523	0	1398.640	0	21.4	4	6.5	4	-1E+10	1	-1E+10	1	-1E+10	1	-1E+10	1	-1E+10	1	-1E+10	1
4902551	109	C	08/22/2023	01:08	-131.221	47.473	0	1425.40	0	2.5580	0	34.4900	0	27.525	0	1408.687	0	21.7	4	6.6	4	-1E+10	1	-1E+10	1	-1E+10	1	-1E+10	1	-1E+10	1	-1E+10	1
4902551	109	C	08/22/2023	01:08	-131.221	47.473	0	1435.70	0	2.5390	0	34.4920	0	27.529	0	1418.832	0	22.0	4	6.7	4	-1E+10	1	-1E+10	1	-1E+10	1	-1E+10	1	-1E+10	1	-1E+10	1
4902551	109	C	08/22/2023	01:08	-131.221	47.473	0	1445.80	0	2.5260	0	34.4930	0	27.531	0	1428.779	0	22.6	4	6.9	4	-1E+10	1	-1E+10	1	-1E+10	1	-1E+10	1	-1E+10	1	-1E+10	1
4902551	109	C	08/22/2023	01:08	-131.221	47.473	0	1455.60	0	2.5130	0	34.4960	0	27.534	0	1438.430	0	23.4	4	7.1	4	-1E+10	1	-1E+10	1	-1E+10	1	-1E+10	1	-1E+10	1	-1E+10	1
4902551	109	C	08/22/2023	01:08	-131.221	47.473	0	1465.60	0	2.4940	0	34.4980	0	27.537	0	1448.278	0	23.8	4	7.3	4	-1E+10	1	-1E+10	1	-1E+10	1	-1E+10	1	-1E+10	1	-1E+10	1
4902551	109	C	08/22/2023	01:08	-131.221	47.473	0	1475.70	0	2.4840	0	34.5000	0	27.540	0	1458.224	0	24.2	4	7.4	4	-1E+10	1	-1E+10	1	-1E+10	1	-1E+10	1	-1E+10	1	-1E+10	1
4902551	109	C	08/22/2023	01:08	-131.221	47.473	0	1485.20	0	2.4720	0	34.5020	0	27.543	0	1467.578	0	24.6	4	7.5	4	-1E+10	1	-1E+10	1	-1E+10	1	-1E+10	1	-1E+10	1	-1E+10	1
4902551	109	C	08/22/2023	01:08	-131.221	47.473	0	1495.20	0	2.4590	0	34.5030	0	27.544	0	1477.424	0	25.0	4	7.6	4	-1E+10	1	-1E+10	1	-1E+10	1	-1E+10	1	-1E+10	1	-1E+10	1
4902551	109	C	08/22/2023	01:08	-131.221	47.473	0	1505.60	0	2.4390	0	34.5050	0	27.548	0	1487.664	0	25.5	4	7.8	4	-1E+10	1	-1E+10	1	-1E+10	1	-1E+10	1	-1E+10	1	-1E+10	1
4902551	109	C	08/22/2023	01:08	-131.221	47.473	0	1515.80	0	2.4170	0	34.5070	0	27.551	0	1497.707	0	26.0	4	7.9	4	-1E+10	1	-1E+10	1	-1E+10	1	-1E+10	1	-1E+10	1	-1E+10	1
4902551	109	C	08/22/2023	01:08	-131.221	47.473	0	1525.40	0	2.4010	0	34.5080	0	27.553	0	1507.158	0	26.7	4	8.1	4	-1E+10	1	-1E+10	1	-1E+10	1	-1E+10	1	-1E+10	1	-1E+10	1
4902551	109	C	08/22/2023	01:08	-131.221	47.473	0	1535.50	0	2.3790	0	34.5120	0	27.559	0	1517.101	0	27.4	4	8.3	4	-1E+10	1	-1E+10	1	-1E+10	1	-1E+10	1	-1E+10	1	-1E+10	1
4902551	109	C	08/22/2023	01:08	-131.221	47.473	0	1545.30	0	2.3620	0	34.5150	0	27.562	0	1526.748	0	28.1	4	8.5	4	-1E+10	1	-1E+10	1	-1E+10	1	-1E+10	1	-1E+10	1	-1E+10	1
4902551	109	C	08/22/2023	01:08	-131.221	47.473	0	1555.10	0	2.3510	0	34.5160	0	27.564	0	1536.395	0	28.6	4	8.7	4	-1E+10	1	-1E+10	1	-1E+10	1	-1E+10	1	-1E+10	1	-1E+10	1
4902551	109	C	08/22/2023	01:08	-131.221	47.473	0	1565.10	0	2.3350	0	34.5190	0	27.568	0	1546.238	0	29.4	4	8.9	4	-1E+10	1	-1E+10	1	-1E+10	1	-1E+10	1	-1E+10	1	-1E+10	1
4902551	109	C	08/22/2023	01:08	-131.221	47.473	0	1575.40	0	2.3220	0	34.5210	0	27.571	0	1556.376	0	30.0	4	9.1	4	-1E+10	1	-1E+10	1	-1E+10	1	-1E+10	1	-1E+10	1	-1E+10	1
4902551	109	C	08/22/2023	01:08	-131.221	47.473	0	1585.50	0	2.3070	0	34.5230	0	27.573	0	1566.317	0	30.7	4	9.3	4	-1E+10	1	-1E+10	1	-1E+10	1	-1E+10	1	-1E+10	1	-1E+10	1
4902551	109	C	08/22/2023	01:08	-131.221	47.473	0	1595.40	0	2.3010	0	34.5240	0	27.575	0	1576.060	0	31.3	4	9.5	4	-1E+10	1	-1E+10	1	-1E+10	1	-1E+10	1	-1E+10	1	-1E+10	1
4902551	109	C	08/22/2023	01:08	-131.221	47.473	0	1605.20	0	2.2930	0	34.5260	0	27.577	0	1585.705	0	31.9	4	9.7	4	-1E+10	1	-1E+10	1	-1E+10	1	-1E+10	1	-1E+10	1	-1E+10	1
4902551	109	C	08/22/2023	01:08	-131.221	47.473	0	1615.20	0	2.2850	0	34.5280	0	27.579	0	1595.546	0	32.4	4	9.8	4	-1E+10	1	-1E+10	1	-1E+10	1	-1E+10	1	-1E+10	1	-1E+10	1
4902551	109	C	08/22/2023	01:08	-131.221	47.473	0	1625.30	0	2.2790	0	34.5290	0	27.581	0	1605.484	0	33.0	4	10.0	4	-1E+10	1	-1E+10	1	-1E+10	1	-1E+10	1	-1E+10	1	-1E+10	1
4902551	109	C	08/22/2023	01:08	-131.221	47.473	0	1635.50	0	2.2700	0	34.5310	0	27.583	0	1615.521	0	33.5	4	10.2	4	-1E+10	1	-1E+10	1	-1E+10	1	-1E+10	1	-1E+10	1	-1E+10	1
4902551	109	C	08/22/2023	01:08	-131.221	47.473	0	1645.80	0	2.2630	0	34.5320	0	27.585	0	1625.656	0	34.2	4	10.4	4	-1E+10	1	-1E+10	1	-1E+10	1	-1E+10	1	-1E+10	1	-1E+10	1
4902551	109	C	08/22/2023	01:08	-131.221	47.473	0	1655.70	0	2.2450	0	34.5350	0	27.589	0	1635.396	0	35.0	4	10.6	4	-1E+10	1	-1E+10	1	-1E+10	1	-1E+10	1	-1E+10	1	-1E+10	1
4902551	109	C	08/22/2023	01:08	-131.221	47.473	0	1665.80	0	2.2290	0	34.5380	0	27.592	0	1645.334	0	35.7	4	10.8	4	-1E+10	1	-1E+10	1	-1E+10	1	-1E+10	1	-1E+10	1	-1E+10	1
4902551	109	C	08/22/2023	01:08	-131.221	47.473	0	1675.40	0	2.2230	0	34.5390	0	27.594	0	1654.778	0	36.1	4	10.9	4	-1E+10	1	-1E+10	1	-1E+10	1	-1E+10	1	-1E+10	1	-1E+10	1
4902551	109	C	08/22/2023	01:08	-131.221	47.473	0	1685.30	0	2.2160	0	34.5400	0	27.595	0	1664.517	0	36.8	4	11.1	4	-1E+10	1	-1E+10	1	-1E+10	1	-1E+10	1	-1E+10	1	-1E+10	1
4902551	109	C	08/22/2023	01:08	-131.221	47.473	0	1695.30	0	2.2050	0	34.5420	0	27.598	0	1674.355	0	37.4	4	11.3	4	-1E+10	1	-1E+10	1	-1E+10	1	-1E+10	1	-1E+10	1	-1E+10	1
4902551	109	C	08/22/2023	01:08	-131.221	47.473	0	1705.50	0	2.1960	0	34.5440	0	27.600	0	1684.388	0	37.9	4	11.5	4	-1E+10	1	-1E+10	1	-1E+10	1	-1E+10	1	-1E+10	1	-1E+10	1
4902551	109	C	08/22/2023	01:08	-131.221	47.473	0	1715.40	0	2.1860	0	34.5450	0	27.602	0	1694.126	0	38.5	4	11.6	4	-1E+10	1	-1E+10	1	-1E+10	1	-1E+10	1	-1E+10	1	-1E+10	1
4902551	109	C	08/22/2023	01:08	-131.221	47.473	0	1725.40	0	2.1760	0	34.5460	0	27.603	0	1703.962	0	39.0	4	11.8	4	-1E+10	1	-1E+10	1	-1E+10	1	-1E+10	1	-1E+10	1	-1E+10	1
4902551	109	C	08/22/2023	01:08	-131.221	47.473	0	1735.70	0	2.1620	0	34.5480	0	27.606	0	1714.092	0	39.8	4	12.1	4	-1E+10	1	-1E+10	1	-1E+10	1	-1E+10	1	-1E+10	1	-1E+10	1
4902551	109	C	08/22/2023	01:08	-131.221	47.473	0	1745.40	0	2.1470	0	34.5510	0	27.610	0	1723.632	0	40.8	4	12.3	4	-1E+10	1	-1E+10	1	-1E+10	1	-1E+10	1	-1E+10	1	-1E+10	1
4902551	109	C	08/22/2023	01:08	-131.221	47.473	0	1755.10	0	2.1310	0	34.5530	0	27.613	0	1733.172	0	41.4	4	12.5	4	-1E+10	1	-1E+10	1	-1E+10	1	-1E+10	1	-1E+10	1	-1E+10	1
4902551	109	C	08/22/2023	01:08	-131.221	47.473	0	1765.60	0	2.1260	0	34.5540	0	27.614	0	1743.497	0	41.9	4	12.7	4	-1E+10	1	-1E+10	1	-1E+10	1	-1E+10	1	-1E+10	1	-1E+10	1
4902551	109	C	08/22/2023	01:08	-131.221	47.473	0	1775.80	0	2.1170	0	34.5560	0	27.616	0	1753.528	0	42.5	4	12.8	4	-1E+10	1	-1E+10	1	-1E+10	1	-1E+10	1	-1E+10	1	-1E+10	1
4902551	109	C	08/22/2023	01:08	-131.221	47.473	0	1785.60	0	2.1090	0	34.5570	0	27.618	0	1763.164	0	42.8	4	12.9	4	-1E+10	1	-1E+10	1	-1E+10	1	-1E+10	1	-1E+10	1	-1E+10	1
4902551	109	C	08/22/2023	01:08	-131.221	47.473	0	1795.50	0	2.1030	0	34.5580	0	27.619	0	1772.898	0	43.2	4	13.0	4	-1E+10	1	-1E+10	1	-1E+10	1	-1E+10	1	-1E+10	1	-1E+10	1
4902551	109	C	08/22/2023	01:08	-131.221	47.473	0	1805.50	0	2.0930	0	34.5590	0	27.621	0	1782.730	0	43.8	4	13.2	4	-1E+10	1	-1E+10	1	-1E+10	1	-1E+10	1	-1E+10	1	-1E+10	1
4902551	109	C	08/22/2023	01:08	-131.221	47.473	0	1815.50	0	2.0820	0	34.5610	0	27.623	0	1792.562	0	44.4	4	13.4	4	-1E+10	1	-1E+10	1	-1E+10	1	-1E+10	1	-1E+10	1	-1E+10	1
4902551	109	C	08/22/2023	01:08	-131.221	47.473	0	1825.70	0	2.0730	0	34.5620	0	27.625	0	1802.590	0	45.0	4	13.6	4	-1E+10	1	-1E+10	1	-1E+10	1	-1E+10	1	-1E+10	1	-1E+10	1
4902551	109	C	08/22/2023	01:08	-131.221	47.473	0	1835.60	0	2.0690	0	34.5630	0	27.626	0	1812.323	0	45.4	4	13.7	4	-1E+10	1	-1E+10	1	-1E+10	1	-1E+10	1	-1E+10	1	-1E+10	1
4902551	109	C	08/22/2023	01:08	-131.221	47.473	0	1845.50	0	2.0660	0	34.5640	0	27.627	0	1822.055	0	45.8	4	13.8	4	-1E+10	1	-1E+10	1	-1E+10	1	-1E+10	1	-1E+10	1	-1E+10	1
4902551	109	C	08/22/2023	01:08	-131.221	47.473	0	1855.40	0	2.0580	0	34.5650	0	27.628	0	1831.786	0	46.5	4	14.0	4	-1E+10	1	-1E+10	1	-1E+10	1	-1E+10	1	-1E+10	1	-1E+10	1
4902551	109	C	08/22/2023	01:08	-131.221	47.473	0	1865.30	0	2.0490	0	34.5670	0	27.631	0	1841.517	0	47.1	4	14.2	4	-1E+10	1	-1E+10	1	-1E+10	1	-1E+10	1	-1E+10	1	-1E+10	1
4902551	109	C	08/22/2023	01:08	-131.221	47.473	0	1875.60	0	2.0380	0	34.5690	0	27.633	0	1851.641	0	47.8	4	14.4	4	-1E+10	1	-1E+10	1	-1E+10	1	-1E+10	1	-1E+10	1	-1E+10	1
4902551	109	C	08/22/2023	01:08	-131.221	47.473	0	1885.40	0	2.0280	0	34.5700	0	27.635	0	1861.273	0	48.3	4	14.6	4	-1E+10	1	-1E+10	1	-1E+10	1	-1E+10	1	-1E+10	1	-1E+10	1
4902551	109	C	08/22/2023	01:08	-131.221	47.473	0	1895.40	0	2.0230	0	34.5710	0	27.636	0	1871.101	0	48.6	4	14.7	4	-1E+10	1	-1E+10	1	-1E+10	1	-1E+10	1	-1E+10	1	-1E+10	1
4902551	109	C	08/22/2023	01:08	-131.221	47.473	0	1905.30	0	2.0210	0	34.5720	0	27.637	0	1880.831	0	49.0	4	14.8	4	-1E+10	1	-1E+10	1	-1E+10	1	-1E+10	1	-1E+10	1	-1E+10	1
4902551	109	C	08/22/2023	01:08	-131.221	47.473	0	1915.10	0	2.0140	0	34.5730	0	27.639	0	1890.461	0	49.5	4	14.9	4	-1E+10	1	-1E+10	1	-1E+10	1	-1E+10	1	-1E+10	1	-1E+10	1
4902551	109	C	08/22/2023	01:08	-131.221	47.473	0	1925.40	0	2.0000	0	34.5750	0	27.641	0	1900.583	0	50.3	4	15.2	4	-1E+10	1	-1E+10	1	-1E+10	1	-1E+10	1	-1E+10	1	-1E+10	1
4902551	109	C	08/22/2023	01:08	-131.221	47.473	0	1935.70	0	1.9900	0	34.5760	0	27.643	0	1910.704	0	51.0	4	15.4	4	-1E+10	1	-1E+10	1	-1E+10	1	-1E+10	1	-1E+10	1	-1E+10	1
4902551	109	C	08/22/2023	01:08	-131.221	47.473	0	1945.50	0	1.9840	0	34.5780	0	27.645	0	1920.333	0	51.6	4	15.6	4	-1E+10	1	-1E+10	1	-1E+10	1	-1E+10	1	-1E+10	1	-1E+10	1
4902551	109	C	08/22/2023	01:08	-131.221	47.473	0	1955.30	0	1.9780	0	34.5790	0	27.646	0	1929.962	0	52.0	4	15.7	4	-1E+10	1	-1E+10	1	-1E+10	1	-1E+10	1	-1E+10	1	-1E+10	1
4902551	109	C	08/22/2023	01:08	-131.221	47.473	0	1965.70	0	1.9720	0	34.5800	0	27.648	0	1940.180	0	52.2	4	15.7	4	-1E+10	1	-1E+10	1	-1E+10	1	-1E+10	1	-1E+10	1	-1E+10	1
4902551	109	C	08/22/2023	01:08	-131.221	47.473	0	1971.70	0	1.9700	0	34.5810	0	27.649	0	1946.075	0	52.2	4	15.7	4	-1E+10	1	-1E+10	1	-1E+10	1	-1E+10	1	-1E+10	1	-1E+10	1
4902551	109	C	08/22/2023	01:08	-131.221	47.473	0																										
4902551	110	C	09/01/2023	06:03	-131.199	47.422	0	0.00	0	17.8400	0	32.3220	0	23.262	0	0.000	0	230.9	4	96.6	4	-1E+10	1	-1E+10	1	-1E+10	1	-1E+10	1	-1E+10	1	-1E+10	1
4902551	110	C	09/01/2023	06:03	-131.199	47.422	0	0.30	0	17.8404	0	32.3197	0	23.260	0	0.297	0	-1e10	1	-1e10	1	-1E+10	1	-1E+10	1	-1E+10	1	-1E+10	1	-1E+10	1	-1E+10	1
4902551	110	C	09/01/2023	06:03	-131.199	47.422	0	0.40	0	17.8405	0	32.3190	0	23.259	0	0.397	0	-1e10	1	-1e10	1	-1E+10	1	-1E+10	1	-1E+10	1	-1E+10	1	-1E+10	1	-1E+10	1
4902551	110	C	09/01/2023	06:03	-131.199	47.422	0	0.80	0	17.8410	0	32.3160	0	23.257	0	0.793	0	231.0	4	96.7	4	-1E+10	1	-1E+10	1	-1E+10	1	-1E+10	1	-1E+10	1	-1E+10	1
4902551	110	C	09/01/2023	06:03	-131.199	47.422	0	1.50	0	17.8398	0	32.3207	0	23.261	0	1.487	0	-1e10	1	-1e10	1	-1E+10	1	-1E+10	1	-1E+10	1	-1E+10	1	-1E+10	1	-1E+10	1
4902551	110	C	09/01/2023	06:03	-131.199	47.422	0	2.00	0	17.8390	0	32.3240	0	23.264	0	1.983	0	231.1	4	96.7	4	-1E+10	1	-1E+10	1	-1E+10	1	-1E+10	1	-1E+10	1	-1E+10	1
4902551	110	C	09/01/2023	06:03	-131.199	47.422	0	2.90	0	17.8390	0	32.3240	0	23.264	0	2.876	0	231.2	4	96.8	4	-1E+10	1	-1E+10	1	-1E+10	1	-1E+10	1	-1E+10	1	-1E+10	1
4902551	110	C	09/01/2023	06:03	-131.199	47.422	0	3.70	0	17.8400	0	32.3250	0	23.264	0	3.669	0	231.2	4	96.8	4	-1E+10	1	-1E+10	1	-1E+10	1	-1E+10	1	-1E+10	1	-1E+10	1
4902551	110	C	09/01/2023	06:03	-131.199	47.422	0	4.80	0	17.8350	0	32.3290	0	23.269	0	4.760	0	231.4	4	96.8	4	-1E+10	1	-1E+10	1	-1E+10	1	-1E+10	1	-1E+10	1	-1E+10	1
4902551	110	C	09/01/2023	06:03	-131.199	47.422	0	6.00	0	17.8330	0	32.3290	0	23.269	0	5.950	0	231.5	4	96.9	4	-1E+10	1	-1E+10	1	-1E+10	1	-1E+10	1	-1E+10	1	-1E+10	1
4902551	110	C	09/01/2023	06:03	-131.199	47.422	0	7.00	0	17.8370	0	32.3270	0	23.267	0	6.942	0	231.5	4	96.9	4	-1E+10	1	-1E+10	1	-1E+10	1	-1E+10	1	-1E+10	1	-1E+10	1
4902551	110	C	09/01/2023	06:03	-131.199	47.422	0	7.70	0	17.8380	0	32.3260	0	23.266	0	7.636	0	231.7	4	96.9	4	-1E+10	1	-1E+10	1	-1E+10	1	-1E+10	1	-1E+10	1	-1E+10	1
4902551	110	C	09/01/2023	06:03	-131.199	47.422	0	8.60	0	17.8430	0	32.3290	0	23.267	0	8.528	0	231.8	4	97.0	4	-1E+10	1	-1E+10	1	-1E+10	1	-1E+10	1	-1E+10	1	-1E+10	1
4902551	110	C	09/01/2023	06:03	-131.199	47.422	0	9.90	0	17.8420	0	32.3290	0	23.267	0	9.817	0	231.9	4	97.1	4	-1E+10	1	-1E+10	1	-1E+10	1	-1E+10	1	-1E+10	1	-1E+10	1
4902551	110	C	09/01/2023	06:03	-131.199	47.422	0	11.20	0	17.8390	0	32.3290	0	23.268	0	11.106	0	232.1	4	97.1	4	-1E+10	1	-1E+10	1	-1E+10	1	-1E+10	1	-1E+10	1	-1E+10	1
4902551	110	C	09/01/2023	06:03	-131.199	47.422	0	12.10	0	17.8440	0	32.3290	0	23.267	0	11.999	0	232.2	4	97.2	4	-1E+10	1	-1E+10	1	-1E+10	1	-1E+10	1	-1E+10	1	-1E+10	1
4902551	110	C	09/01/2023	06:03	-131.199	47.422	0	13.00	0	17.8450	0	32.3290	0	23.267	0	12.891	0	232.4	4	97.3	4	-1E+10	1	-1E+10	1	-1E+10	1	-1E+10	1	-1E+10	1	-1E+10	1
4902551	110	C	09/01/2023	06:03	-131.199	47.422	0	13.80	0	17.8440	0	32.3280	0	23.266	0	13.684	0	232.6	4	97.3	4	-1E+10	1	-1E+10	1	-1E+10	1	-1E+10	1	-1E+10	1	-1E+10	1
4902551	110	C	09/01/2023	06:03	-131.199	47.422	0	14.70	0	17.8450	0	32.3290	0	23.267	0	14.577	0	232.9	4	97.5	4	-1E+10	1	-1E+10	1	-1E+10	1	-1E+10	1	-1E+10	1	-1E+10	1
4902551	110	C	09/01/2023	06:03	-131.199	47.422	0	15.90	0	17.8390	0	32.3280	0	23.267	0	15.767	0	233.3	4	97.6	4	-1E+10	1	-1E+10	1	-1E+10	1	-1E+10	1	-1E+10	1	-1E+10	1
4902551	110	C	09/01/2023	06:03	-131.199	47.422	0	17.00	0	17.8390	0	32.3290	0	23.268	0	16.858	0	233.6	4	97.8	4	-1E+10	1	-1E+10	1	-1E+10	1	-1E+10	1	-1E+10	1	-1E+10	1
4902551	110	C	09/01/2023	06:03	-131.199	47.422	0	17.80	0	17.8400	0	32.3290	0	23.268	0	17.651	0	234.1	4	98.0	4	-1E+10	1	-1E+10	1	-1E+10	1	-1E+10	1	-1E+10	1	-1E+10	1
4902551	110	C	09/01/2023	06:03	-131.199	47.422	0	18.80	0	17.8370	0	32.3280	0	23.268	0	18.642	0	234.8	4	98.3	4	-1E+10	1	-1E+10	1	-1E+10	1	-1E+10	1	-1E+10	1	-1E+10	1
4902551	110	C	09/01/2023	06:03	-131.199	47.422	0	19.90	0	17.8420	0	32.3270	0	23.266	0	19.733	0	235.7	4	98.6	4	-1E+10	1	-1E+10	1	-1E+10	1	-1E+10	1	-1E+10	1	-1E+10	1
4902551	110	C	09/01/2023	06:03	-131.199	47.422	0	20.90	0	17.8350	0	32.3290	0	23.269	0	20.725	0	236.8	4	99.1	4	-1E+10	1	-1E+10	1	-1E+10	1	-1E+10	1	-1E+10	1	-1E+10	1
4902551	110	C	09/01/2023	06:03	-131.199	47.422	0	22.00	0	17.8350	0	32.3290	0	23.269	0	21.815	0	237.9	4	99.6	4	-1E+10	1	-1E+10	1	-1E+10	1	-1E+10	1	-1E+10	1	-1E+10	1
4902551	110	C	09/01/2023	06:03	-131.199	47.422	0	23.00	0	17.8320	0	32.3260	0	23.268	0	22.807	0	239.1	4	100.0	4	-1E+10	1	-1E+10	1	-1E+10	1	-1E+10	1	-1E+10	1	-1E+10	1
4902551	110	C	09/01/2023	06:03	-131.199	47.422	0	24.10	0	17.7670	0	32.3410	0	23.295	0	23.898	0	240.4	4	100.5	4	-1E+10	1	-1E+10	1	-1E+10	1	-1E+10	1	-1E+10	1	-1E+10	1
4902551	110	C	09/01/2023	06:03	-131.199	47.422	0	24.80	0	17.7600	0	32.3370	0	23.294	0	24.592	0	241.6	4	100.9	4	-1E+10	1	-1E+10	1	-1E+10	1	-1E+10	1	-1E+10	1	-1E+10	1
4902551	110	C	09/01/2023	06:03	-131.199	47.422	0	25.80	0	17.7370	0	32.3280	0	23.292	0	25.583	0	243.6	4	101.7	4	-1E+10	1	-1E+10	1	-1E+10	1	-1E+10	1	-1E+10	1	-1E+10	1
4902551	110	C	09/01/2023	06:03	-131.199	47.422	0	27.10	0	17.6620	0	32.3330	0	23.314	0	26.872	0	246.5	4	102.8	4	-1E+10	1	-1E+10	1	-1E+10	1	-1E+10	1	-1E+10	1	-1E+10	1
4902551	110	C	09/01/2023	06:03	-131.199	47.422	0	28.20	0	17.6800	0	32.3240	0	23.303	0	27.963	0	250.5	4	104.5	4	-1E+10	1	-1E+10	1	-1E+10	1	-1E+10	1	-1E+10	1	-1E+10	1
4902551	110	C	09/01/2023	06:03	-131.199	47.422	0	29.10	0	17.7150	0	32.3310	0	23.300	0	28.855	0	255.5	4	106.7	4	-1E+10	1	-1E+10	1	-1E+10	1	-1E+10	1	-1E+10	1	-1E+10	1
4902551	110	C	09/01/2023	06:03	-131.199	47.422	0	30.00	0	17.7290	0	32.3180	0	23.287	0	29.748	0	262.2	4	109.5	4	-1E+10	1	-1E+10	1	-1E+10	1	-1E+10	1	-1E+10	1	-1E+10	1
4902551	110	C	09/01/2023	06:03	-131.199	47.422	0	31.10	0	14.7700	0	32.3670	0	23.994	0	30.838	0	280.9	4	110.8	4	-1E+10	1	-1E+10	1	-1E+10	1	-1E+10	1	-1E+10	1	-1E+10	1
4902551	110	C	09/01/2023	06:03	-131.199	47.422	0	32.00	0	14.4680	0	32.3760	0	24.065	0	31.731	0	282.8	4	110.9	4	-1E+10	1	-1E+10	1	-1E+10	1	-1E+10	1	-1E+10	1	-1E+10	1
4902551	110	C	09/01/2023	06:03	-131.199	47.422	0	33.00	0	14.3710	0	32.3760	0	24.085	0	32.722	0	283.9	4	111.1	4	-1E+10	1	-1E+10	1	-1E+10	1	-1E+10	1	-1E+10	1	-1E+10	1
4902551	110	C	09/01/2023	06:03	-131.199	47.422	0	34.20	0	14.2350	0	32.3770	0	24.114	0	33.912	0	284.8	4	111.2	4	-1E+10	1	-1E+10	1	-1E+10	1	-1E+10	1	-1E+10	1	-1E+10	1
4902551	110	C	09/01/2023	06:03	-131.199	47.422	0	35.10	0	14.1400	0	32.3770	0	24.134	0	34.804	0	285.7	4	111.3	4	-1E+10	1	-1E+10	1	-1E+10	1	-1E+10	1	-1E+10	1	-1E+10	1
4902551	110	C	09/01/2023	06:03	-131.199	47.422	0	35.90	0	14.0530	0	32.3800	0	24.154	0	35.598	0	286.9	4	111.6	4	-1E+10	1	-1E+10	1	-1E+10	1	-1E+10	1	-1E+10	1	-1E+10	1
4902551	110	C	09/01/2023	06:03	-131.199	47.422	0	36.90	0	13.9100	0	32.3770	0	24.181	0	36.589	0	288.8	4	112.0	4	-1E+10	1	-1E+10	1	-1E+10	1	-1E+10	1	-1E+10	1	-1E+10	1
4902551	110	C	09/01/2023	06:03	-131.199	47.422	0	38.00	0	13.8300	0	32.3770	0	24.197	0	37.680	0	289.7	4	112.2	4	-1E+10	1	-1E+10	1	-1E+10	1	-1E+10	1	-1E+10	1	-1E+10	1
4902551	110	C	09/01/2023	06:03	-131.199	47.422	0	39.30	0	13.6670	0	32.3870	0	24.238	0	38.969	0	290.5	4	112.1	4	-1E+10	1	-1E+10	1	-1E+10	1	-1E+10	1	-1E+10	1	-1E+10	1
4902551	110	C	09/01/2023	06:03	-131.199	47.422	0	40.10	0	13.3910	0	32.3810	0	24.289	0	39.762	0	292.8	4	112.4	4	-1E+10	1	-1E+10	1	-1E+10	1	-1E+10	1	-1E+10	1	-1E+10	1
4902551	110	C	09/01/2023	06:03	-131.199	47.422	0	40.90	0	13.2120	0	32.3790	0	24.323	0	40.555	0	294.4	4	112.6	4	-1E+10	1	-1E+10	1	-1E+10	1	-1E+10	1	-1E+10	1	-1E+10	1
4902551	110	C	09/01/2023	06:03	-131.199	47.422	0	42.10	0	12.6200	0	32.3990	0	24.454	0	41.745	0	296.7	4	112.1	4	-1E+10	1	-1E+10	1	-1E+10	1	-1E+10	1	-1E+10	1	-1E+10	1
4902551	110	C	09/01/2023	06:03	-131.199	47.422	0	42.90	0	12.1260	0	32.3780	0	24.531	0	42.538	0	298.7	4	111.7	4	-1E+10	1	-1E+10	1	-1E+10	1	-1E+10	1	-1E+10	1	-1E+10	1
4902551	110	C	09/01/2023	06:03	-131.199	47.422	0	44.00	0	11.4240	0	32.3830	0	24.664	0	43.628	0	301.3	4	111.0	4	-1E+10	1	-1E+10	1	-1E+10	1	-1E+10	1	-1E+10	1	-1E+10	1
4902551	110	C	09/01/2023	06:03	-131.199	47.422	0	44.90	0	10.8260	0	32.3770	0	24.765	0	44.521	0	301.6	4	109.7	4	-1E+10	1	-1E+10	1	-1E+10	1	-1E+10	1	-1E+10	1	-1E+10	1
4902551	110	C	09/01/2023	06:03	-131.199	47.422	0	46.00	0	10.5160	0	32.3730	0	24.816	0	45.611	0	300.1	4	108.5	4	-1E+10	1	-1E+10	1	-1E+10	1	-1E+10	1	-1E+10	1	-1E+10	1
4902551	110	C	09/01/2023	06:03	-131.199	47.422	0	46.80	0	10.4330	0	32.3740	0	24.831	0	46.404	0	299.0	4	107.9	4	-1E+10	1	-1E+10	1	-1E+10	1	-1E+10	1	-1E+10	1	-1E+10	1
4902551	110	C	09/01/2023	06:03	-131.199	47.422	0	48.10	0	10.3380	0	32.3730	0	24.846	0	47.693	0	295.7	4	106.4	4	-1E+10	1	-1E+10	1	-1E+10	1	-1E+10	1	-1E+10	1	-1E+10	1
4902551	110	C	09/01/2023	06:03	-131.199	47.422	0	49.00	0	10.1910	0	32.3740	0	24.872	0	48.586	0	293.8	4	105.4	4	-1E+10	1	-1E+10	1	-1E+10	1	-1E+10	1	-1E+10	1	-1E+10	1
4902551	110	C	09/01/2023	06:03	-131.199	47.422	0	50.20	0	9.8410	0	32.3760	0	24.931	0	49.775	0	291.7	4	103.9	4	-1E+10	1	-1E+10	1	-1E+10	1	-1E+10	1	-1E+10	1	-1E+10	1
4902551	110	C	09/01/2023	06:03	-131.199	47.422	0	50.90	0	9.7570	0	32.3780	0	24.946	0	50.469	0	289.7	4	103.0	4	-1E+10	1	-1E+10	1	-1E+10	1	-1E+10	1	-1E+10	1	-1E+10	1
4902551	110	C	09/01/2023	06:03	-131.199	47.422	0	52.20	0	9.5800	0	32.3820	0	24.978	0	51.758	0	286.7	4	101.5	4	-1E+10	1	-1E+10	1	-1E+10	1	-1E+10	1	-1E+10	1	-1E+10	1
4902551	110	C	09/01/2023	06:03	-131.199	47.422	0	53.00	0	9.4120	0	32.3840	0	25.007	0	52.551	0	285.1	4	100.6	4	-1E+10	1	-1E+10	1	-1E+10	1	-1E+10	1	-1E+10	1	-1E+10	1
4902551	110	C	09/01/2023	06:03	-131.199	47.422	0	54.10	0	9.3070	0	32.3820	0	25.022	0	53.642	0	282.9	4	99.6	4	-1E+10	1	-1E+10	1	-1E+10	1	-1E+10	1	-1E+10	1	-1E+10	1
4902551	110	C	09/01/2023	06:03	-131.199	47.422	0	55.10	0	9.1910	0	32.3860	0	25.043	0	54.633	0	281.2	4	98.7	4	-1E+10	1	-1E+10	1	-1E+10	1	-1E+10	1	-1E+10	1	-1E+10	1
4902551	110	C	09/01/2023	06:03	-131.199	47.422	0	56.10	0	9.0940	0	32.3850	0	25.058	0	55.625	0	279.7	4	98.0	4	-1E+10	1	-1E+10	1	-1E+10	1	-1E+10	1	-1E+10	1	-1E+10	1
4902551	110	C	09/01/2023	06:03	-131.199	47.422	0	57.10	0	9.0060	0	32.3870	0	25.073	0	56.616	0	277.9	4	97.2	4	-1E+10	1	-1E+10	1	-1E+10	1	-1E+10	1	-1E+10	1	-1E+10	1
4902551	110	C	09/01/2023	06:03	-131.199	47.422	0	58.10	0	8.8680	0	32.3920	0	25.098	0	57.607	0	276.2	4	96.3	4	-1E+10	1	-1E+10	1	-1E+10	1	-1E+10	1	-1E+10	1	-1E+10	1
4902551	110	C	09/01/2023	06:03	-131.199	47.422	0	59.00	0	8.7880	0	32.3920	0	25.110	0	58.500	0	274.9	4	95.7	4	-1E+10	1	-1E+10	1	-1E+10	1	-1E+10	1	-1E+10	1	-1E+10	1
4902551	110	C	09/01/2023	06:03	-131.199	47.422	0	59.80	0	8.6900	0	32.3930	0	25.126	0	59.293	0	274.0	4	95.2	4	-1E+10	1	-1E+10	1	-1E+10	1	-1E+10	1	-1E+10	1	-1E+10	1
4902551	110	C	09/01/2023	06:03	-131.199	47.422	0	61.00	0	8.5690	0	32.3920	0	25.144	0	60.482	0	272.9	4	94.5	4	-1E+10	1	-1E+10	1	-1E+10	1	-1E+10	1	-1E+10	1	-1E+10	1
4902551	110	C	09/01/2023	06:03	-131.199	47.422	0	61.90	0	8.4970	0	32.3950	0	25.157	0	61.375	0	272.0	4	94.1	4	-1E+10	1	-1E+10	1	-1E+10	1	-1E+10	1	-1E+10	1	-1E+10	1
4902551	110	C	09/01/2023	06:03	-131.199	47.422	0	62.80	0	8.4270	0	32.3900	0	25.163	0	62.267	0	271.4	4	93.7	4	-1E+10	1	-1E+10	1	-1E+10	1	-1E+10	1	-1E+10	1	-1E+10	1
4902551	110	C	09/01/2023	06:03	-131.199	47.422	0	64.10	0	8.3600	0	32.3970	0	25.179	0	63.556	0	269.9	4	93.1	4	-1E+10	1	-1E+10	1	-1E+10	1	-1E+10	1	-1E+10	1	-1E+10	1
4902551	110	C	09/01/2023	06:03	-131.199	47.422	0	65.00	0	8.2640	0	32.3950	0	25.191	0	64.448	0	269.5	4	92.7	4	-1E+10	1	-1E+10	1	-1E+10	1	-1E+10	1	-1E+10	1	-1E+10	1
4902551	110	C	09/01/2023	06:03	-131.199	47.422	0	65.90	0	8.2380	0	32.3940	0	25.194	0	65.340	0	268.8	4	92.4	4	-1E+10	1	-1E+10	1	-1E+10	1	-1E+10	1	-1E+10	1	-1E+10	1
4902551	110	C	09/01/2023	06:03	-131.199	47.422	0	66.90	0	8.2120	0	32.3940	0	25.198	0	66.331	0	268.0	4	92.1	4	-1E+10	1	-1E+10	1	-1E+10	1	-1E+10	1	-1E+10	1	-1E+10	1
4902551	110	C	09/01/2023	06:03	-131.199	47.422	0	67.80	0	8.1490	0	32.3980	0	25.210	0	67.224	0	267.4	4	91.8	4	-1E+10	1	-1E+10	1	-1E+10	1	-1E+10	1	-1E+10	1	-1E+10	1
4902551	110	C	09/01/2023	06:03	-131.199	47.422	0	69.10	0	8.0600	0	32.3990	0	25.224	0	68.512	0	267.2	4	91.5	4	-1E+10	1	-1E+10	1	-1E+10	1	-1E+10	1	-1E+10	1	-1E+10	1
4902551	110	C	09/01/2023	06:03	-131.199	47.422	0	70.10	0	7.9840	0	32.3960	0	25.233	0	69.504	0	267.3	4	91.4	4	-1E+10	1	-1E+10	1	-1E+10	1	-1E+10	1	-1E+10	1	-1E+10	1
4902551	110	C	09/01/2023	06:03	-131.199	47.422	0	71.00	0	7.9440	0	32.3990	0	25.241	0	70.396	0	267.3	4	91.3	4	-1E+10	1	-1E+10	1	-1E+10	1	-1E+10	1	-1E+10	1	-1E+10	1
4902551	110	C	09/01/2023	06:03	-131.199	47.422	0	72.00	0	7.9140	0	32.3970	0	25.244	0	71.387	0	267.3	4	91.2	4	-1E+10	1	-1E+10	1	-1E+10	1	-1E+10	1	-1E+10	1	-1E+10	1
4902551	110	C	09/01/2023	06:03	-131.199	47.422	0	72.90	0	7.9020	0	32.3980	0	25.246	0	72.279	0	267.2	4	91.2	4	-1E+10	1	-1E+10	1	-1E+10	1	-1E+10	1	-1E+10	1	-1E+10	1
4902551	110	C	09/01/2023	06:03	-131.199	47.422	0	73.90	0	7.8920	0	32.3980	0	25.248	0	73.271	0	267.2	4	91.2	4	-1E+10	1	-1E+10	1	-1E+10	1	-1E+10	1	-1E+10	1	-1E+10	1
4902551	110	C	09/01/2023	06:03	-131.199	47.422	0	74.70	0	7.8840	0	32.3970	0	25.248	0	74.064	0	267.2	4	91.1	4	-1E+10	1	-1E+10	1	-1E+10	1	-1E+10	1	-1E+10	1	-1E+10	1
4902551	110	C	09/01/2023	06:03	-131.199	47.422	0	75.80	0	7.8780	0	32.3970	0	25.249	0	75.154	0	267.0	4	91.1	4	-1E+10	1	-1E+10	1	-1E+10	1	-1E+10	1	-1E+10	1	-1E+10	1
4902551	110	C	09/01/2023	06:03	-131.199	47.422	0	77.10	0	7.8580	0	32.3980	0	25.253	0	76.443	0	266.8	4	91.0	4	-1E+10	1	-1E+10	1	-1E+10	1	-1E+10	1	-1E+10	1	-1E+10	1
4902551	110	C	09/01/2023	06:03	-131.199	47.422	0	78.10	0	7.8490	0	32.4000	0	25.255	0	77.434	0	266.6	4	90.9	4	-1E+10	1	-1E+10	1	-1E+10	1	-1E+10	1	-1E+10	1	-1E+10	1
4902551	110	C	09/01/2023	06:03	-131.199	47.422	0	78.90	0	7.8390	0	32.4000	0	25.257	0	78.227	0	266.4	4	90.8	4	-1E+10	1	-1E+10	1	-1E+10	1	-1E+10	1	-1E+10	1	-1E+10	1
4902551	110	C	09/01/2023	06:03	-131.199	47.422	0	80.00	0	7.8150	0	32.3990	0	25.259	0	79.318	0	266.2	4	90.7	4	-1E+10	1	-1E+10	1	-1E+10	1	-1E+10	1	-1E+10	1	-1E+10	1
4902551	110	C	09/01/2023	06:03	-131.199	47.422	0	81.10	0	7.7970	0	32.4000	0	25.263	0	80.408	0	265.9	4	90.5	4	-1E+10	1	-1E+10	1	-1E+10	1	-1E+10	1	-1E+10	1	-1E+10	1
4902551	110	C	09/01/2023	06:03	-131.199	47.422	0	82.00	0	7.7770	0	32.4000	0	25.266	0	81.300	0	265.8	4	90.4	4	-1E+10	1	-1E+10	1	-1E+10	1	-1E+10	1	-1E+10	1	-1E+10	1
4902551	110	C	09/01/2023	06:03	-131.199	47.422	0	83.10	0	7.7560	0	32.4000	0	25.269	0	82.390	0	272.3	4	92.6	4	-1E+10	1	-1E+10	1	-1E+10	1	-1E+10	1	-1E+10	1	-1E+10	1
4902551	110	C	09/01/2023	06:03	-131.199	47.422	0	83.90	0	7.7560	0	32.4000	0	25.269	0	83.183	0	272.1	4	92.6	4	-1E+10	1	-1E+10	1	-1E+10	1	-1E+10	1	-1E+10	1	-1E+10	1
4902551	110	C	09/01/2023	06:03	-131.199	47.422	0	84.90	0	7.7560	0	32.4010	0	25.269	0	84.175	0	272.0	4	92.5	4	-1E+10	1	-1E+10	1	-1E+10	1	-1E+10	1	-1E+10	1	-1E+10	1
4902551	110	C	09/01/2023	06:03	-131.199	47.422	0	86.00	0	7.7560	0	32.4000	0	25.269	0	85.265	0	271.7	4	92.4	4	-1E+10	1	-1E+10	1	-1E+10	1	-1E+10	1	-1E+10	1	-1E+10	1
4902551	110	C	09/01/2023	06:03	-131.199	47.422	0	87.30	0	7.7560	0	32.4000	0	25.269	0	86.554	0	271.4	4	92.3	4	-1E+10	1	-1E+10	1	-1E+10	1	-1E+10	1	-1E+10	1	-1E+10	1
4902551	110	C	09/01/2023	06:03	-131.199	47.422	0	88.00	0	7.7430	0	32.4030	0	25.273	0	87.248	0	271.3	4	92.3	4	-1E+10	1	-1E+10	1	-1E+10	1	-1E+10	1	-1E+10	1	-1E+10	1
4902551	110	C	09/01/2023	06:03	-131.199	47.422	0	88.90	0	7.7360	0	32.4010	0	25.272	0	88.140	0	271.2	4	92.2	4	-1E+10	1	-1E+10	1	-1E+10	1	-1E+10	1	-1E+10	1	-1E+10	1
4902551	110	C	09/01/2023	06:03	-131.199	47.422	0	89.80	0	7.7320	0	32.4000	0	25.272	0	89.032	0	270.9	4	92.1	4	-1E+10	1	-1E+10	1	-1E+10	1	-1E+10	1	-1E+10	1	-1E+10	1
4902551	110	C	09/01/2023	06:03	-131.199	47.422	0	90.90	0	7.7170	0	32.4010	0	25.275	0	90.122	0	270.6	4	92.0	4	-1E+10	1	-1E+10	1	-1E+10	1	-1E+10	1	-1E+10	1	-1E+10	1
4902551	110	C	09/01/2023	06:03	-131.199	47.422	0	92.10	0	7.6970	0	32.4020	0	25.279	0	91.312	0	270.2	4	91.8	4	-1E+10	1	-1E+10	1	-1E+10	1	-1E+10	1	-1E+10	1	-1E+10	1
4902551	110	C	09/01/2023	06:03	-131.199	47.422	0	92.80	0	7.6820	0	32.4010	0	25.280	0	92.005	0	269.8	4	91.6	4	-1E+10	1	-1E+10	1	-1E+10	1	-1E+10	1	-1E+10	1	-1E+10	1
4902551	110	C	09/01/2023	06:03	-131.199	47.422	0	93.90	0	7.6600	0	32.4040	0	25.285	0	93.096	0	269.2	4	91.4	4	-1E+10	1	-1E+10	1	-1E+10	1	-1E+10	1	-1E+10	1	-1E+10	1
4902551	110	C	09/01/2023	06:03	-131.199	47.422	0	94.90	0	7.6330	0	32.4050	0	25.290	0	94.087	0	268.5	4	91.1	4	-1E+10	1	-1E+10	1	-1E+10	1	-1E+10	1	-1E+10	1	-1E+10	1
4902551	110	C	09/01/2023	06:03	-131.199	47.422	0	95.90	0	7.6190	0	32.4050	0	25.292	0	95.078	0	267.6	4	90.7	4	-1E+10	1	-1E+10	1	-1E+10	1	-1E+10	1	-1E+10	1	-1E+10	1
4902551	110	C	09/01/2023	06:03	-131.199	47.422	0	96.90	0	7.5920	0	32.4060	0	25.297	0	96.069	0	266.4	4	90.3	4	-1E+10	1	-1E+10	1	-1E+10	1	-1E+10	1	-1E+10	1	-1E+10	1
4902551	110	C	09/01/2023	06:03	-131.199	47.422	0	98.00	0	7.5530	0	32.4120	0	25.307	0	97.160	0	265.2	4	89.8	4	-1E+10	1	-1E+10	1	-1E+10	1	-1E+10	1	-1E+10	1	-1E+10	1
4902551	110	C	09/01/2023	06:03	-131.199	47.422	0	99.10	0	7.5240	0	32.4210	0	25.318	0	98.250	0	263.9	4	89.3	4	-1E+10	1	-1E+10	1	-1E+10	1	-1E+10	1	-1E+10	1	-1E+10	1
4902551	110	C	09/01/2023	06:03	-131.199	47.422	0	99.90	0	7.5170	0	32.4230	0	25.320	0	99.043	0	262.8	4	88.9	4	-1E+10	1	-1E+10	1	-1E+10	1	-1E+10	1	-1E+10	1	-1E+10	1
4902551	110	C	09/01/2023	06:03	-131.199	47.422	0	101.10	0	7.5010	0	32.4370	0	25.334	0	100.232	0	260.3	4	88.1	4	-1E+10	1	-1E+10	1	-1E+10	1	-1E+10	1	-1E+10	1	-1E+10	1
4902551	110	C	09/01/2023	06:03	-131.199	47.422	0	102.00	0	7.4960	0	32.4470	0	25.342	0	101.124	0	258.9	4	87.6	4	-1E+10	1	-1E+10	1	-1E+10	1	-1E+10	1	-1E+10	1	-1E+10	1
4902551	110	C	09/01/2023	06:03	-131.199	47.422	0	103.10	0	7.4930	0	32.4580	0	25.351	0	102.215	0	257.0	4	86.9	4	-1E+10	1	-1E+10	1	-1E+10	1	-1E+10	1	-1E+10	1	-1E+10	1
4902551	110	C	09/01/2023	06:03	-131.199	47.422	0	104.00	0	7.4890	0	32.4690	0	25.361	0	103.107	0	255.5	4	86.4	4	-1E+10	1	-1E+10	1	-1E+10	1	-1E+10	1	-1E+10	1	-1E+10	1
4902551	110	C	09/01/2023	06:03	-131.199	47.422	0	105.00	0	7.4820	0	32.4850	0	25.374	0	104.098	0	254.2	4	86.0	4	-1E+10	1	-1E+10	1	-1E+10	1	-1E+10	1	-1E+10	1	-1E+10	1
4902551	110	C	09/01/2023	06:03	-131.199	47.422	0	106.00	0	7.4780	0	32.5090	0	25.394	0	105.089	0	252.8	4	85.5	4	-1E+10	1	-1E+10	1	-1E+10	1	-1E+10	1	-1E+10	1	-1E+10	1
4902551	110	C	09/01/2023	06:03	-131.199	47.422	0	107.00	0	7.4690	0	32.5320	0	25.413	0	106.080	0	251.6	4	85.1	4	-1E+10	1	-1E+10	1	-1E+10	1	-1E+10	1	-1E+10	1	-1E+10	1
4902551	110	C	09/01/2023	06:03	-131.199	47.422	0	108.00	0	7.4610	0	32.5470	0	25.426	0	107.071	0	250.4	4	84.7	4	-1E+10	1	-1E+10	1	-1E+10	1	-1E+10	1	-1E+10	1	-1E+10	1
4902551	110	C	09/01/2023	06:03	-131.199	47.422	0	109.20	0	7.4590	0	32.5510	0	25.429	0	108.261	0	248.9	4	84.2	4	-1E+10	1	-1E+10	1	-1E+10	1	-1E+10	1	-1E+10	1	-1E+10	1
4902551	110	C	09/01/2023	06:03	-131.199	47.422	0	110.10	0	7.4530	0	32.5600	0	25.437	0	109.153	0	247.3	4	83.6	4	-1E+10	1	-1E+10	1	-1E+10	1	-1E+10	1	-1E+10	1	-1E+10	1
4902551	110	C	09/01/2023	06:03	-131.199	47.422	0	111.10	0	7.4210	0	32.6140	0	25.484	0	110.144	0	244.7	4	82.7	4	-1E+10	1	-1E+10	1	-1E+10	1	-1E+10	1	-1E+10	1	-1E+10	1
4902551	110	C	09/01/2023	06:03	-131.199	47.422	0	112.10	0	7.3820	0	32.6530	0	25.520	0	111.135	0	242.5	4	81.9	4	-1E+10	1	-1E+10	1	-1E+10	1	-1E+10	1	-1E+10	1	-1E+10	1
4902551	110	C	09/01/2023	06:03	-131.199	47.422	0	113.00	0	7.3550	0	32.6810	0	25.546	0	112.027	0	241.5	4	81.6	4	-1E+10	1	-1E+10	1	-1E+10	1	-1E+10	1	-1E+10	1	-1E+10	1
4902551	110	C	09/01/2023	06:03	-131.199	47.422	0	114.00	0	7.3590	0	32.7030	0	25.563	0	113.018	0	240.7	4	81.3	4	-1E+10	1	-1E+10	1	-1E+10	1	-1E+10	1	-1E+10	1	-1E+10	1
4902551	110	C	09/01/2023	06:03	-131.199	47.422	0	115.10	0	7.3600	0	32.7060	0	25.565	0	114.108	0	239.7	4	81.0	4	-1E+10	1	-1E+10	1	-1E+10	1	-1E+10	1	-1E+10	1	-1E+10	1
4902551	110	C	09/01/2023	06:03	-131.199	47.422	0	115.80	0	7.3600	0	32.7070	0	25.566	0	114.802	0	238.9	4	80.7	4	-1E+10	1	-1E+10	1	-1E+10	1	-1E+10	1	-1E+10	1	-1E+10	1
4902551	110	C	09/01/2023	06:03	-131.199	47.422	0	117.00	0	7.3590	0	32.7080	0	25.567	0	115.991	0	237.7	4	80.3	4	-1E+10	1	-1E+10	1	-1E+10	1	-1E+10	1	-1E+10	1	-1E+10	1
4902551	110	C	09/01/2023	06:03	-131.199	47.422	0	118.00	0	7.3580	0	32.7100	0	25.568	0	116.983	0	236.1	4	79.8	4	-1E+10	1	-1E+10	1	-1E+10	1	-1E+10	1	-1E+10	1	-1E+10	1
4902551	110	C	09/01/2023	06:03	-131.199	47.422	0	119.20	0	7.3580	0	32.7100	0	25.568	0	118.172	0	233.7	4	78.9	4	-1E+10	1	-1E+10	1	-1E+10	1	-1E+10	1	-1E+10	1	-1E+10	1
4902551	110	C	09/01/2023	06:03	-131.199	47.422	0	120.00	0	7.3470	0	32.7280	0	25.584	0	118.965	0	232.0	4	78.4	4	-1E+10	1	-1E+10	1	-1E+10	1	-1E+10	1	-1E+10	1	-1E+10	1
4902551	110	C	09/01/2023	06:03	-131.199	47.422	0	121.30	0	7.3130	0	32.7870	0	25.635	0	120.253	0	230.2	4	77.7	4	-1E+10	1	-1E+10	1	-1E+10	1	-1E+10	1	-1E+10	1	-1E+10	1
4902551	110	C	09/01/2023	06:03	-131.199	47.422	0	121.90	0	7.3020	0	32.8010	0	25.648	0	120.848	0	229.3	4	77.4	4	-1E+10	1	-1E+10	1	-1E+10	1	-1E+10	1	-1E+10	1	-1E+10	1
4902551	110	C	09/01/2023	06:03	-131.199	47.422	0	123.00	0	7.2830	0	32.8290	0	25.672	0	121.938	0	228.0	4	77.0	4	-1E+10	1	-1E+10	1	-1E+10	1	-1E+10	1	-1E+10	1	-1E+10	1
4902551	110	C	09/01/2023	06:03	-131.199	47.422	0	124.10	0	7.2660	0	32.8560	0	25.696	0	123.028	0	226.8	4	76.5	4	-1E+10	1	-1E+10	1	-1E+10	1	-1E+10	1	-1E+10	1	-1E+10	1
4902551	110	C	09/01/2023	06:03	-131.199	47.422	0	125.00	0	7.2480	0	32.8780	0	25.716	0	123.920	0	225.9	4	76.2	4	-1E+10	1	-1E+10	1	-1E+10	1	-1E+10	1	-1E+10	1	-1E+10	1
4902551	110	C	09/01/2023	06:03	-131.199	47.422	0	126.20	0	7.2110	0	32.9230	0	25.756	0	125.109	0	224.3	4	75.6	4	-1E+10	1	-1E+10	1	-1E+10	1	-1E+10	1	-1E+10	1	-1E+10	1
4902551	110	C	09/01/2023	06:03	-131.199	47.422	0	126.90	0	7.2060	0	32.9300	0	25.762	0	125.803	0	223.6	4	75.4	4	-1E+10	1	-1E+10	1	-1E+10	1	-1E+10	1	-1E+10	1	-1E+10	1
4902551	110	C	09/01/2023	06:03	-131.199	47.422	0	128.00	0	7.2040	0	32.9310	0	25.763	0	126.893	0	222.3	4	74.9	4	-1E+10	1	-1E+10	1	-1E+10	1	-1E+10	1	-1E+10	1	-1E+10	1
4902551	110	C	09/01/2023	06:03	-131.199	47.422	0	129.20	0	7.1760	0	32.9510	0	25.783	0	128.083	0	219.6	4	74.0	4	-1E+10	1	-1E+10	1	-1E+10	1	-1E+10	1	-1E+10	1	-1E+10	1
4902551	110	C	09/01/2023	06:03	-131.199	47.422	0	130.10	0	7.1730	0	32.9680	0	25.797	0	128.974	0	217.9	4	73.4	4	-1E+10	1	-1E+10	1	-1E+10	1	-1E+10	1	-1E+10	1	-1E+10	1
4902551	110	C	09/01/2023	06:03	-131.199	47.422	0	131.10	0	7.1040	0	33.0170	0	25.845	0	129.965	0	216.5	4	72.9	4	-1E+10	1	-1E+10	1	-1E+10	1	-1E+10	1	-1E+10	1	-1E+10	1
4902551	110	C	09/01/2023	06:03	-131.199	47.422	0	132.00	0	7.0860	0	33.0260	0	25.854	0	130.857	0	215.1	4	72.4	4	-1E+10	1	-1E+10	1	-1E+10	1	-1E+10	1	-1E+10	1	-1E+10	1
4902551	110	C	09/01/2023	06:03	-131.199	47.422	0	132.90	0	7.0790	0	33.0310	0	25.859	0	131.749	0	213.4	4	71.8	4	-1E+10	1	-1E+10	1	-1E+10	1	-1E+10	1	-1E+10	1	-1E+10	1
4902551	110	C	09/01/2023	06:03	-131.199	47.422	0	134.10	0	7.0430	0	33.0640	0	25.890	0	132.939	0	211.1	4	71.0	4	-1E+10	1	-1E+10	1	-1E+10	1	-1E+10	1	-1E+10	1	-1E+10	1
4902551	110	C	09/01/2023	06:03	-131.199	47.422	0	134.90	0	6.9720	0	33.0960	0	25.925	0	133.731	0	209.7	4	70.4	4	-1E+10	1	-1E+10	1	-1E+10	1	-1E+10	1	-1E+10	1	-1E+10	1
4902551	110	C	09/01/2023	06:03	-131.199	47.422	0	136.10	0	6.8890	0	33.1350	0	25.967	0	134.921	0	207.2	4	69.5	4	-1E+10	1	-1E+10	1	-1E+10	1	-1E+10	1	-1E+10	1	-1E+10	1
4902551	110	C	09/01/2023	06:03	-131.199	47.422	0	137.00	0	6.8610	0	33.1520	0	25.984	0	135.812	0	205.1	4	68.7	4	-1E+10	1	-1E+10	1	-1E+10	1	-1E+10	1	-1E+10	1	-1E+10	1
4902551	110	C	09/01/2023	06:03	-131.199	47.422	0	137.90	0	6.8380	0	33.1690	0	26.000	0	136.704	0	202.8	4	67.9	4	-1E+10	1	-1E+10	1	-1E+10	1	-1E+10	1	-1E+10	1	-1E+10	1
4902551	110	C	09/01/2023	06:03	-131.199	47.422	0	139.10	0	6.8060	0	33.1950	0	26.025	0	137.894	0	199.7	4	66.9	4	-1E+10	1	-1E+10	1	-1E+10	1	-1E+10	1	-1E+10	1	-1E+10	1
4902551	110	C	09/01/2023	06:03	-131.199	47.422	0	140.10	0	6.7670	0	33.2270	0	26.055	0	138.885	0	196.8	4	65.8	4	-1E+10	1	-1E+10	1	-1E+10	1	-1E+10	1	-1E+10	1	-1E+10	1
4902551	110	C	09/01/2023	06:03	-131.199	47.422	0	140.90	0	6.7390	0	33.2530	0	26.079	0	139.677	0	194.4	4	65.0	4	-1E+10	1	-1E+10	1	-1E+10	1	-1E+10	1	-1E+10	1	-1E+10	1
4902551	110	C	09/01/2023	06:03	-131.199	47.422	0	141.70	0	6.6970	0	33.3020	0	26.124	0	140.470	0	192.0	4	64.2	4	-1E+10	1	-1E+10	1	-1E+10	1	-1E+10	1	-1E+10	1	-1E+10	1
4902551	110	C	09/01/2023	06:03	-131.199	47.422	0	143.00	0	6.6850	0	33.3210	0	26.140	0	141.758	0	188.7	4	63.1	4	-1E+10	1	-1E+10	1	-1E+10	1	-1E+10	1	-1E+10	1	-1E+10	1
4902551	110	C	09/01/2023	06:03	-131.199	47.422	0	144.20	0	6.6910	0	33.3320	0	26.148	0	142.948	0	185.8	4	62.1	4	-1E+10	1	-1E+10	1	-1E+10	1	-1E+10	1	-1E+10	1	-1E+10	1
4902551	110	C	09/01/2023	06:03	-131.199	47.422	0	145.10	0	6.7460	0	33.3420	0	26.149	0	143.839	0	183.8	4	61.5	4	-1E+10	1	-1E+10	1	-1E+10	1	-1E+10	1	-1E+10	1	-1E+10	1
4902551	110	C	09/01/2023	06:03	-131.199	47.422	0	146.00	0	6.7070	0	33.4150	0	26.211	0	144.731	0	181.7	4	60.8	4	-1E+10	1	-1E+10	1	-1E+10	1	-1E+10	1	-1E+10	1	-1E+10	1
4902551	110	C	09/01/2023	06:03	-131.199	47.422	0	146.90	0	6.6800	0	33.4210	0	26.220	0	145.623	0	179.3	4	60.0	4	-1E+10	1	-1E+10	1	-1E+10	1	-1E+10	1	-1E+10	1	-1E+10	1
4902551	110	C	09/01/2023	06:03	-131.199	47.422	0	147.80	0	6.6770	0	33.4250	0	26.223	0	146.515	0	176.4	4	59.0	4	-1E+10	1	-1E+10	1	-1E+10	1	-1E+10	1	-1E+10	1	-1E+10	1
4902551	110	C	09/01/2023	06:03	-131.199	47.422	0	148.70	0	6.6920	0	33.4350	0	26.229	0	147.407	0	172.9	4	57.8	4	-1E+10	1	-1E+10	1	-1E+10	1	-1E+10	1	-1E+10	1	-1E+10	1
4902551	110	C	09/01/2023	06:03	-131.199	47.422	0	149.70	0	6.7140	0	33.4520	0	26.240	0	148.398	0	169.2	4	56.6	4	-1E+10	1	-1E+10	1	-1E+10	1	-1E+10	1	-1E+10	1	-1E+10	1
4902551	110	C	09/01/2023	06:03	-131.199	47.422	0	150.60	0	6.7620	0	33.4600	0	26.240	0	149.290	0	165.5	4	55.5	4	-1E+10	1	-1E+10	1	-1E+10	1	-1E+10	1	-1E+10	1	-1E+10	1
4902551	110	C	09/01/2023	06:03	-131.199	47.422	0	151.50	0	6.8180	0	33.5000	0	26.264	0	150.182	0	161.6	4	54.2	4	-1E+10	1	-1E+10	1	-1E+10	1	-1E+10	1	-1E+10	1	-1E+10	1
4902551	110	C	09/01/2023	06:03	-131.199	47.422	0	152.50	0	6.8290	0	33.5070	0	26.268	0	151.172	0	158.2	4	53.1	4	-1E+10	1	-1E+10	1	-1E+10	1	-1E+10	1	-1E+10	1	-1E+10	1
4902551	110	C	09/01/2023	06:03	-131.199	47.422	0	153.90	0	6.8670	0	33.5250	0	26.277	0	152.560	0	153.2	4	51.5	4	-1E+10	1	-1E+10	1	-1E+10	1	-1E+10	1	-1E+10	1	-1E+10	1
4902551	110	C	09/01/2023	06:03	-131.199	47.422	0	155.40	0	6.9710	0	33.5600	0	26.291	0	154.046	0	149.6	4	50.4	4	-1E+10	1	-1E+10	1	-1E+10	1	-1E+10	1	-1E+10	1	-1E+10	1
4902551	110	C	09/01/2023	06:03	-131.199	47.422	0	156.40	0	7.0660	0	33.6030	0	26.312	0	155.037	0	148.2	4	50.1	4	-1E+10	1	-1E+10	1	-1E+10	1	-1E+10	1	-1E+10	1	-1E+10	1
4902551	110	C	09/01/2023	06:03	-131.199	47.422	0	157.40	0	7.0680	0	33.6250	0	26.329	0	156.028	0	147.4	4	49.8	4	-1E+10	1	-1E+10	1	-1E+10	1	-1E+10	1	-1E+10	1	-1E+10	1
4902551	110	C	09/01/2023	06:03	-131.199	47.422	0	158.40	0	7.0760	0	33.6320	0	26.333	0	157.019	0	146.4	4	49.5	4	-1E+10	1	-1E+10	1	-1E+10	1	-1E+10	1	-1E+10	1	-1E+10	1
4902551	110	C	09/01/2023	06:03	-131.199	47.422	0	159.40	0	7.0750	0	33.6360	0	26.336	0	158.010	0	145.6	4	49.2	4	-1E+10	1	-1E+10	1	-1E+10	1	-1E+10	1	-1E+10	1	-1E+10	1
4902551	110	C	09/01/2023	06:03	-131.199	47.422	0	160.40	0	7.0800	0	33.6390	0	26.338	0	159.001	0	144.6	4	48.9	4	-1E+10	1	-1E+10	1	-1E+10	1	-1E+10	1	-1E+10	1	-1E+10	1
4902551	110	C	09/01/2023	06:03	-131.199	47.422	0	161.40	0	7.0840	0	33.6440	0	26.341	0	159.992	0	143.7	4	48.6	4	-1E+10	1	-1E+10	1	-1E+10	1	-1E+10	1	-1E+10	1	-1E+10	1
4902551	110	C	09/01/2023	06:03	-131.199	47.422	0	162.40	0	7.0890	0	33.6500	0	26.345	0	160.982	0	142.6	4	48.2	4	-1E+10	1	-1E+10	1	-1E+10	1	-1E+10	1	-1E+10	1	-1E+10	1
4902551	110	C	09/01/2023	06:03	-131.199	47.422	0	163.50	0	7.1040	0	33.6740	0	26.362	0	162.072	0	141.8	4	48.0	4	-1E+10	1	-1E+10	1	-1E+10	1	-1E+10	1	-1E+10	1	-1E+10	1
4902551	110	C	09/01/2023	06:03	-131.199	47.422	0	164.50	0	7.1080	0	33.6780	0	26.365	0	163.063	0	141.4	4	47.8	4	-1E+10	1	-1E+10	1	-1E+10	1	-1E+10	1	-1E+10	1	-1E+10	1
4902551	110	C	09/01/2023	06:03	-131.199	47.422	0	165.50	0	7.1130	0	33.6810	0	26.367	0	164.054	0	141.1	4	47.7	4	-1E+10	1	-1E+10	1	-1E+10	1	-1E+10	1	-1E+10	1	-1E+10	1
4902551	110	C	09/01/2023	06:03	-131.199	47.422	0	166.50	0	7.1120	0	33.6930	0	26.376	0	165.045	0	140.8	4	47.6	4	-1E+10	1	-1E+10	1	-1E+10	1	-1E+10	1	-1E+10	1	-1E+10	1
4902551	110	C	09/01/2023	06:03	-131.199	47.422	0	167.60	0	7.1090	0	33.6950	0	26.378	0	166.135	0	140.5	4	47.5	4	-1E+10	1	-1E+10	1	-1E+10	1	-1E+10	1	-1E+10	1	-1E+10	1
4902551	110	C	09/01/2023	06:03	-131.199	47.422	0	168.60	0	7.1010	0	33.6990	0	26.382	0	167.126	0	140.1	4	47.4	4	-1E+10	1	-1E+10	1	-1E+10	1	-1E+10	1	-1E+10	1	-1E+10	1
4902551	110	C	09/01/2023	06:03	-131.199	47.422	0	169.60	0	7.1000	0	33.7020	0	26.385	0	168.117	0	139.8	4	47.3	4	-1E+10	1	-1E+10	1	-1E+10	1	-1E+10	1	-1E+10	1	-1E+10	1
4902551	110	C	09/01/2023	06:03	-131.199	47.422	0	170.70	0	7.1040	0	33.7060	0	26.388	0	169.207	0	139.4	4	47.2	4	-1E+10	1	-1E+10	1	-1E+10	1	-1E+10	1	-1E+10	1	-1E+10	1
4902551	110	C	09/01/2023	06:03	-131.199	47.422	0	171.70	0	7.1000	0	33.7070	0	26.389	0	170.197	0	139.1	4	47.1	4	-1E+10	1	-1E+10	1	-1E+10	1	-1E+10	1	-1E+10	1	-1E+10	1
4902551	110	C	09/01/2023	06:03	-131.199	47.422	0	172.70	0	7.0990	0	33.7060	0	26.388	0	171.188	0	138.7	4	46.9	4	-1E+10	1	-1E+10	1	-1E+10	1	-1E+10	1	-1E+10	1	-1E+10	1
4902551	110	C	09/01/2023	06:03	-131.199	47.422	0	173.80	0	7.0850	0	33.7130	0	26.396	0	172.278	0	138.4	4	46.8	4	-1E+10	1	-1E+10	1	-1E+10	1	-1E+10	1	-1E+10	1	-1E+10	1
4902551	110	C	09/01/2023	06:03	-131.199	47.422	0	174.80	0	7.0760	0	33.7210	0	26.403	0	173.269	0	138.0	4	46.7	4	-1E+10	1	-1E+10	1	-1E+10	1	-1E+10	1	-1E+10	1	-1E+10	1
4902551	110	C	09/01/2023	06:03	-131.199	47.422	0	175.90	0	7.0760	0	33.7210	0	26.403	0	174.359	0	137.6	4	46.5	4	-1E+10	1	-1E+10	1	-1E+10	1	-1E+10	1	-1E+10	1	-1E+10	1
4902551	110	C	09/01/2023	06:03	-131.199	47.422	0	176.90	0	7.0770	0	33.7220	0	26.404	0	175.350	0	137.1	4	46.4	4	-1E+10	1	-1E+10	1	-1E+10	1	-1E+10	1	-1E+10	1	-1E+10	1
4902551	110	C	09/01/2023	06:03	-131.199	47.422	0	178.00	0	7.0750	0	33.7270	0	26.408	0	176.440	0	136.7	4	46.2	4	-1E+10	1	-1E+10	1	-1E+10	1	-1E+10	1	-1E+10	1	-1E+10	1
4902551	110	C	09/01/2023	06:03	-131.199	47.422	0	179.10	0	7.0620	0	33.7320	0	26.414	0	177.530	0	136.3	4	46.1	4	-1E+10	1	-1E+10	1	-1E+10	1	-1E+10	1	-1E+10	1	-1E+10	1
4902551	110	C	09/01/2023	06:03	-131.199	47.422	0	180.10	0	7.0250	0	33.7500	0	26.433	0	178.520	0	135.9	4	45.9	4	-1E+10	1	-1E+10	1	-1E+10	1	-1E+10	1	-1E+10	1	-1E+10	1
4902551	110	C	09/01/2023	06:03	-131.199	47.422	0	181.20	0	7.0210	0	33.7490	0	26.433	0	179.610	0	135.7	4	45.8	4	-1E+10	1	-1E+10	1	-1E+10	1	-1E+10	1	-1E+10	1	-1E+10	1
4902551	110	C	09/01/2023	06:03	-131.199	47.422	0	182.20	0	7.0140	0	33.7530	0	26.437	0	180.601	0	135.4	4	45.7	4	-1E+10	1	-1E+10	1	-1E+10	1	-1E+10	1	-1E+10	1	-1E+10	1
4902551	110	C	09/01/2023	06:03	-131.199	47.422	0	183.30	0	7.0030	0	33.7580	0	26.443	0	181.691	0	135.2	4	45.7	4	-1E+10	1	-1E+10	1	-1E+10	1	-1E+10	1	-1E+10	1	-1E+10	1
4902551	110	C	09/01/2023	06:03	-131.199	47.422	0	184.40	0	7.0010	0	33.7620	0	26.446	0	182.781	0	135.0	4	45.6	4	-1E+10	1	-1E+10	1	-1E+10	1	-1E+10	1	-1E+10	1	-1E+10	1
4902551	110	C	09/01/2023	06:03	-131.199	47.422	0	185.50	0	6.9970	0	33.7640	0	26.448	0	183.871	0	135.1	4	45.6	4	-1E+10	1	-1E+10	1	-1E+10	1	-1E+10	1	-1E+10	1	-1E+10	1
4902551	110	C	09/01/2023	06:03	-131.199	47.422	0	186.60	0	6.9910	0	33.7660	0	26.450	0	184.960	0	135.0	4	45.6	4	-1E+10	1	-1E+10	1	-1E+10	1	-1E+10	1	-1E+10	1	-1E+10	1
4902551	110	C	09/01/2023	06:03	-131.199	47.422	0	187.70	0	6.9810	0	33.7730	0	26.457	0	186.050	0	135.0	4	45.6	4	-1E+10	1	-1E+10	1	-1E+10	1	-1E+10	1	-1E+10	1	-1E+10	1
4902551	110	C	09/01/2023	06:03	-131.199	47.422	0	188.80	0	6.9580	0	33.7710	0	26.459	0	187.140	0	134.9	4	45.5	4	-1E+10	1	-1E+10	1	-1E+10	1	-1E+10	1	-1E+10	1	-1E+10	1
4902551	110	C	09/01/2023	06:03	-131.199	47.422	0	189.80	0	6.9610	0	33.7700	0	26.458	0	188.131	0	134.8	4	45.5	4	-1E+10	1	-1E+10	1	-1E+10	1	-1E+10	1	-1E+10	1	-1E+10	1
4902551	110	C	09/01/2023	06:03	-131.199	47.422	0	190.90	0	6.9650	0	33.7700	0	26.457	0	189.221	0	134.9	4	45.5	4	-1E+10	1	-1E+10	1	-1E+10	1	-1E+10	1	-1E+10	1	-1E+10	1
4902551	110	C	09/01/2023	06:03	-131.199	47.422	0	191.90	0	6.9700	0	33.7720	0	26.458	0	190.211	0	135.0	4	45.6	4	-1E+10	1	-1E+10	1	-1E+10	1	-1E+10	1	-1E+10	1	-1E+10	1
4902551	110	C	09/01/2023	06:03	-131.199	47.422	0	193.00	0	6.9700	0	33.7750	0	26.461	0	191.301	0	135.3	4	45.7	4	-1E+10	1	-1E+10	1	-1E+10	1	-1E+10	1	-1E+10	1	-1E+10	1
4902551	110	C	09/01/2023	06:03	-131.199	47.422	0	194.10	0	6.9660	0	33.7750	0	26.461	0	192.391	0	135.7	4	45.8	4	-1E+10	1	-1E+10	1	-1E+10	1	-1E+10	1	-1E+10	1	-1E+10	1
4902551	110	C	09/01/2023	06:03	-131.199	47.422	0	195.20	0	6.9580	0	33.7760	0	26.463	0	193.481	0	136.3	4	46.0	4	-1E+10	1	-1E+10	1	-1E+10	1	-1E+10	1	-1E+10	1	-1E+10	1
4902551	110	C	09/01/2023	06:03	-131.199	47.422	0	196.20	0	6.9450	0	33.7790	0	26.467	0	194.472	0	136.9	4	46.2	4	-1E+10	1	-1E+10	1	-1E+10	1	-1E+10	1	-1E+10	1	-1E+10	1
4902551	110	C	09/01/2023	06:03	-131.199	47.422	0	197.30	0	6.9170	0	33.7840	0	26.475	0	195.561	0	137.7	4	46.4	4	-1E+10	1	-1E+10	1	-1E+10	1	-1E+10	1	-1E+10	1	-1E+10	1
4902551	110	C	09/01/2023	06:03	-131.199	47.422	0	198.30	0	6.9090	0	33.7830	0	26.475	0	196.552	0	138.4	4	46.6	4	-1E+10	1	-1E+10	1	-1E+10	1	-1E+10	1	-1E+10	1	-1E+10	1
4902551	110	C	09/01/2023	06:03	-131.199	47.422	0	199.40	0	6.8980	0	33.7820	0	26.476	0	197.642	0	139.1	4	46.9	4	-1E+10	1	-1E+10	1	-1E+10	1	-1E+10	1	-1E+10	1	-1E+10	1
4902551	110	C	09/01/2023	06:03	-131.199	47.422	0	200.50	0	6.8660	0	33.7880	0	26.485	0	198.732	0	139.8	4	47.1	4	-1E+10	1	-1E+10	1	-1E+10	1	-1E+10	1	-1E+10	1	-1E+10	1
4902551	110	C	09/01/2023	06:03	-131.199	47.422	0	201.60	0	6.8640	0	33.7920	0	26.488	0	199.821	0	140.8	4	47.4	4	-1E+10	1	-1E+10	1	-1E+10	1	-1E+10	1	-1E+10	1	-1E+10	1
4902551	110	C	09/01/2023	06:03	-131.199	47.422	0	202.70	0	6.8300	0	33.7940	0	26.495	0	200.911	0	142.0	4	47.8	4	-1E+10	1	-1E+10	1	-1E+10	1	-1E+10	1	-1E+10	1	-1E+10	1
4902551	110	C	09/01/2023	06:03	-131.199	47.422	0	203.80	0	6.7910	0	33.7920	0	26.498	0	202.001	0	143.1	4	48.1	4	-1E+10	1	-1E+10	1	-1E+10	1	-1E+10	1	-1E+10	1	-1E+10	1
4902551	110	C	09/01/2023	06:03	-131.199	47.422	0	204.90	0	6.7640	0	33.7870	0	26.498	0	203.091	0	143.9	4	48.3	4	-1E+10	1	-1E+10	1	-1E+10	1	-1E+10	1	-1E+10	1	-1E+10	1
4902551	110	C	09/01/2023	06:03	-131.199	47.422	0	206.00	0	6.7310	0	33.7910	0	26.505	0	204.180	0	144.5	4	48.5	4	-1E+10	1	-1E+10	1	-1E+10	1	-1E+10	1	-1E+10	1	-1E+10	1
4902551	110	C	09/01/2023	06:03	-131.199	47.422	0	207.10	0	6.7080	0	33.7830	0	26.502	0	205.270	0	145.0	4	48.6	4	-1E+10	1	-1E+10	1	-1E+10	1	-1E+10	1	-1E+10	1	-1E+10	1
4902551	110	C	09/01/2023	06:03	-131.199	47.422	0	208.20	0	6.7050	0	33.7830	0	26.503	0	206.360	0	145.3	4	48.8	4	-1E+10	1	-1E+10	1	-1E+10	1	-1E+10	1	-1E+10	1	-1E+10	1
4902551	110	C	09/01/2023	06:03	-131.199	47.422	0	209.20	0	6.6950	0	33.7790	0	26.501	0	207.350	0	145.7	4	48.9	4	-1E+10	1	-1E+10	1	-1E+10	1	-1E+10	1	-1E+10	1	-1E+10	1
4902551	110	C	09/01/2023	06:03	-131.199	47.422	0	210.20	0	6.6730	0	33.7770	0	26.502	0	208.341	0	145.9	4	48.9	4	-1E+10	1	-1E+10	1	-1E+10	1	-1E+10	1	-1E+10	1	-1E+10	1
4902551	110	C	09/01/2023	06:03	-131.199	47.422	0	211.90	0	6.6480	0	33.7750	0	26.504	0	210.025	0	145.7	4	48.8	4	-1E+10	1	-1E+10	1	-1E+10	1	-1E+10	1	-1E+10	1	-1E+10	1
4902551	110	C	09/01/2023	06:03	-131.199	47.422	0	213.10	0	6.6090	0	33.7840	0	26.516	0	211.214	0	145.3	4	48.6	4	-1E+10	1	-1E+10	1	-1E+10	1	-1E+10	1	-1E+10	1	-1E+10	1
4902551	110	C	09/01/2023	06:03	-131.199	47.422	0	214.00	0	6.5300	0	33.7730	0	26.518	0	212.106	0	144.4	4	48.3	4	-1E+10	1	-1E+10	1	-1E+10	1	-1E+10	1	-1E+10	1	-1E+10	1
4902551	110	C	09/01/2023	06:03	-131.199	47.422	0	214.80	0	6.5170	0	33.7620	0	26.511	0	212.898	0	143.2	4	47.8	4	-1E+10	1	-1E+10	1	-1E+10	1	-1E+10	1	-1E+10	1	-1E+10	1
4902551	110	C	09/01/2023	06:03	-131.199	47.422	0	216.00	0	6.4930	0	33.7710	0	26.521	0	214.087	0	141.1	4	47.1	4	-1E+10	1	-1E+10	1	-1E+10	1	-1E+10	1	-1E+10	1	-1E+10	1
4902551	110	C	09/01/2023	06:03	-131.199	47.422	0	217.30	0	6.4780	0	33.7680	0	26.521	0	215.375	0	138.7	4	46.3	4	-1E+10	1	-1E+10	1	-1E+10	1	-1E+10	1	-1E+10	1	-1E+10	1
4902551	110	C	09/01/2023	06:03	-131.199	47.422	0	218.10	0	6.4950	0	33.7790	0	26.527	0	216.167	0	137.6	4	46.0	4	-1E+10	1	-1E+10	1	-1E+10	1	-1E+10	1	-1E+10	1	-1E+10	1
4902551	110	C	09/01/2023	06:03	-131.199	47.422	0	218.90	0	6.5150	0	33.7900	0	26.533	0	216.960	0	137.1	4	45.8	4	-1E+10	1	-1E+10	1	-1E+10	1	-1E+10	1	-1E+10	1	-1E+10	1
4902551	110	C	09/01/2023	06:03	-131.199	47.422	0	219.80	0	6.5140	0	33.7950	0	26.537	0	217.851	0	136.6	4	45.6	4	-1E+10	1	-1E+10	1	-1E+10	1	-1E+10	1	-1E+10	1	-1E+10	1
4902551	110	C	09/01/2023	06:03	-131.199	47.422	0	221.00	0	6.5020	0	33.7950	0	26.539	0	219.040	0	135.7	4	45.3	4	-1E+10	1	-1E+10	1	-1E+10	1	-1E+10	1	-1E+10	1	-1E+10	1
4902551	110	C	09/01/2023	06:03	-131.199	47.422	0	222.30	0	6.4630	0	33.7970	0	26.546	0	220.328	0	135.0	4	45.0	4	-1E+10	1	-1E+10	1	-1E+10	1	-1E+10	1	-1E+10	1	-1E+10	1
4902551	110	C	09/01/2023	06:03	-131.199	47.422	0	223.10	0	6.4690	0	33.8000	0	26.547	0	221.120	0	134.7	4	45.0	4	-1E+10	1	-1E+10	1	-1E+10	1	-1E+10	1	-1E+10	1	-1E+10	1
4902551	110	C	09/01/2023	06:03	-131.199	47.422	0	223.90	0	6.4590	0	33.8000	0	26.548	0	221.913	0	134.4	4	44.8	4	-1E+10	1	-1E+10	1	-1E+10	1	-1E+10	1	-1E+10	1	-1E+10	1
4902551	110	C	09/01/2023	06:03	-131.199	47.422	0	224.70	0	6.4360	0	33.8060	0	26.556	0	222.705	0	133.9	4	44.7	4	-1E+10	1	-1E+10	1	-1E+10	1	-1E+10	1	-1E+10	1	-1E+10	1
4902551	110	C	09/01/2023	06:03	-131.199	47.422	0	226.00	0	6.3630	0	33.8100	0	26.569	0	223.993	0	133.5	4	44.4	4	-1E+10	1	-1E+10	1	-1E+10	1	-1E+10	1	-1E+10	1	-1E+10	1
4902551	110	C	09/01/2023	06:03	-131.199	47.422	0	227.20	0	6.3470	0	33.8060	0	26.568	0	225.182	0	132.9	4	44.2	4	-1E+10	1	-1E+10	1	-1E+10	1	-1E+10	1	-1E+10	1	-1E+10	1
4902551	110	C	09/01/2023	06:03	-131.199	47.422	0	228.10	0	6.3470	0	33.8080	0	26.569	0	226.073	0	132.4	4	44.1	4	-1E+10	1	-1E+10	1	-1E+10	1	-1E+10	1	-1E+10	1	-1E+10	1
4902551	110	C	09/01/2023	06:03	-131.199	47.422	0	228.90	0	6.3410	0	33.8090	0	26.571	0	226.865	0	132.1	4	43.9	4	-1E+10	1	-1E+10	1	-1E+10	1	-1E+10	1	-1E+10	1	-1E+10	1
4902551	110	C	09/01/2023	06:03	-131.199	47.422	0	229.70	0	6.3390	0	33.8100	0	26.572	0	227.658	0	131.7	4	43.8	4	-1E+10	1	-1E+10	1	-1E+10	1	-1E+10	1	-1E+10	1	-1E+10	1
4902551	110	C	09/01/2023	06:03	-131.199	47.422	0	230.90	0	6.3020	0	33.8100	0	26.577	0	228.847	0	131.2	4	43.6	4	-1E+10	1	-1E+10	1	-1E+10	1	-1E+10	1	-1E+10	1	-1E+10	1
4902551	110	C	09/01/2023	06:03	-131.199	47.422	0	232.20	0	6.2770	0	33.8070	0	26.578	0	230.134	0	130.5	4	43.3	4	-1E+10	1	-1E+10	1	-1E+10	1	-1E+10	1	-1E+10	1	-1E+10	1
4902551	110	C	09/01/2023	06:03	-131.199	47.422	0	233.00	0	6.2690	0	33.8080	0	26.579	0	230.927	0	129.8	4	43.1	4	-1E+10	1	-1E+10	1	-1E+10	1	-1E+10	1	-1E+10	1	-1E+10	1
4902551	110	C	09/01/2023	06:03	-131.199	47.422	0	233.80	0	6.2450	0	33.8110	0	26.585	0	231.719	0	129.1	4	42.8	4	-1E+10	1	-1E+10	1	-1E+10	1	-1E+10	1	-1E+10	1	-1E+10	1
4902551	110	C	09/01/2023	06:03	-131.199	47.422	0	235.00	0	6.2230	0	33.8180	0	26.593	0	232.908	0	128.7	4	42.7	4	-1E+10	1	-1E+10	1	-1E+10	1	-1E+10	1	-1E+10	1	-1E+10	1
4902551	110	C	09/01/2023	06:03	-131.199	47.422	0	236.30	0	6.2100	0	33.8170	0	26.594	0	234.196	0	128.5	4	42.6	4	-1E+10	1	-1E+10	1	-1E+10	1	-1E+10	1	-1E+10	1	-1E+10	1
4902551	110	C	09/01/2023	06:03	-131.199	47.422	0	237.10	0	6.2030	0	33.8180	0	26.596	0	234.988	0	128.4	4	42.6	4	-1E+10	1	-1E+10	1	-1E+10	1	-1E+10	1	-1E+10	1	-1E+10	1
4902551	110	C	09/01/2023	06:03	-131.199	47.422	0	237.90	0	6.1540	0	33.8160	0	26.600	0	235.780	0	128.3	4	42.5	4	-1E+10	1	-1E+10	1	-1E+10	1	-1E+10	1	-1E+10	1	-1E+10	1
4902551	110	C	09/01/2023	06:03	-131.199	47.422	0	238.80	0	6.1500	0	33.8140	0	26.599	0	236.672	0	128.0	4	42.4	4	-1E+10	1	-1E+10	1	-1E+10	1	-1E+10	1	-1E+10	1	-1E+10	1
4902551	110	C	09/01/2023	06:03	-131.199	47.422	0	240.00	0	6.1240	0	33.8130	0	26.602	0	237.860	0	127.7	4	42.3	4	-1E+10	1	-1E+10	1	-1E+10	1	-1E+10	1	-1E+10	1	-1E+10	1
4902551	110	C	09/01/2023	06:03	-131.199	47.422	0	241.20	0	6.0970	0	33.8120	0	26.604	0	239.049	0	127.3	4	42.1	4	-1E+10	1	-1E+10	1	-1E+10	1	-1E+10	1	-1E+10	1	-1E+10	1
4902551	110	C	09/01/2023	06:03	-131.199	47.422	0	242.10	0	6.0960	0	33.8130	0	26.605	0	239.941	0	127.0	4	42.0	4	-1E+10	1	-1E+10	1	-1E+10	1	-1E+10	1	-1E+10	1	-1E+10	1
4902551	110	C	09/01/2023	06:03	-131.199	47.422	0	242.90	0	6.0950	0	33.8110	0	26.604	0	240.733	0	126.7	4	41.9	4	-1E+10	1	-1E+10	1	-1E+10	1	-1E+10	1	-1E+10	1	-1E+10	1
4902551	110	C	09/01/2023	06:03	-131.199	47.422	0	243.70	0	6.0960	0	33.8100	0	26.603	0	241.525	0	126.3	4	41.8	4	-1E+10	1	-1E+10	1	-1E+10	1	-1E+10	1	-1E+10	1	-1E+10	1
4902551	110	C	09/01/2023	06:03	-131.199	47.422	0	244.90	0	6.0570	0	33.8180	0	26.614	0	242.714	0	125.7	4	41.6	4	-1E+10	1	-1E+10	1	-1E+10	1	-1E+10	1	-1E+10	1	-1E+10	1
4902551	110	C	09/01/2023	06:03	-131.199	47.422	0	246.20	0	6.0250	0	33.8130	0	26.614	0	244.002	0	125.2	4	41.4	4	-1E+10	1	-1E+10	1	-1E+10	1	-1E+10	1	-1E+10	1	-1E+10	1
4902551	110	C	09/01/2023	06:03	-131.199	47.422	0	247.00	0	6.0090	0	33.8110	0	26.615	0	244.794	0	124.8	4	41.2	4	-1E+10	1	-1E+10	1	-1E+10	1	-1E+10	1	-1E+10	1	-1E+10	1
4902551	110	C	09/01/2023	06:03	-131.199	47.422	0	247.90	0	5.9970	0	33.8100	0	26.615	0	245.685	0	124.3	4	41.0	4	-1E+10	1	-1E+10	1	-1E+10	1	-1E+10	1	-1E+10	1	-1E+10	1
4902551	110	C	09/01/2023	06:03	-131.199	47.422	0	248.70	0	5.9430	0	33.8060	0	26.619	0	246.478	0	123.8	4	40.8	4	-1E+10	1	-1E+10	1	-1E+10	1	-1E+10	1	-1E+10	1	-1E+10	1
4902551	110	C	09/01/2023	06:03	-131.199	47.422	0	250.00	0	5.9410	0	33.8060	0	26.619	0	247.765	0	122.6	4	40.4	4	-1E+10	1	-1E+10	1	-1E+10	1	-1E+10	1	-1E+10	1	-1E+10	1
4902551	110	C	09/01/2023	06:03	-131.199	47.422	0	251.30	0	5.9250	0	33.8050	0	26.621	0	249.053	0	121.2	4	40.0	4	-1E+10	1	-1E+10	1	-1E+10	1	-1E+10	1	-1E+10	1	-1E+10	1
4902551	110	C	09/01/2023	06:03	-131.199	47.422	0	252.10	0	5.9120	0	33.8040	0	26.621	0	249.845	0	120.1	4	39.6	4	-1E+10	1	-1E+10	1	-1E+10	1	-1E+10	1	-1E+10	1	-1E+10	1
4902551	110	C	09/01/2023	06:03	-131.199	47.422	0	253.00	0	5.9060	0	33.8050	0	26.623	0	250.737	0	119.0	4	39.2	4	-1E+10	1	-1E+10	1	-1E+10	1	-1E+10	1	-1E+10	1	-1E+10	1
4902551	110	C	09/01/2023	06:03	-131.199	47.422	0	253.80	0	5.8930	0	33.8050	0	26.625	0	251.529	0	117.6	4	38.7	4	-1E+10	1	-1E+10	1	-1E+10	1	-1E+10	1	-1E+10	1	-1E+10	1
4902551	110	C	09/01/2023	06:03	-131.199	47.422	0	254.70	0	5.8940	0	33.8110	0	26.629	0	252.420	0	116.5	4	38.4	4	-1E+10	1	-1E+10	1	-1E+10	1	-1E+10	1	-1E+10	1	-1E+10	1
4902551	110	C	09/01/2023	06:03	-131.199	47.422	0	255.90	0	5.9020	0	33.8150	0	26.631	0	253.609	0	114.8	4	37.8	4	-1E+10	1	-1E+10	1	-1E+10	1	-1E+10	1	-1E+10	1	-1E+10	1
4902551	110	C	09/01/2023	06:03	-131.199	47.422	0	257.20	0	5.8950	0	33.8190	0	26.635	0	254.897	0	113.2	4	37.3	4	-1E+10	1	-1E+10	1	-1E+10	1	-1E+10	1	-1E+10	1	-1E+10	1
4902551	110	C	09/01/2023	06:03	-131.199	47.422	0	258.10	0	5.8940	0	33.8210	0	26.637	0	255.788	0	112.0	4	36.9	4	-1E+10	1	-1E+10	1	-1E+10	1	-1E+10	1	-1E+10	1	-1E+10	1
4902551	110	C	09/01/2023	06:03	-131.199	47.422	0	259.00	0	5.8870	0	33.8240	0	26.640	0	256.679	0	110.8	4	36.5	4	-1E+10	1	-1E+10	1	-1E+10	1	-1E+10	1	-1E+10	1	-1E+10	1
4902551	110	C	09/01/2023	06:03	-131.199	47.422	0	259.80	0	5.8780	0	33.8240	0	26.641	0	257.472	0	109.6	4	36.1	4	-1E+10	1	-1E+10	1	-1E+10	1	-1E+10	1	-1E+10	1	-1E+10	1
4902551	110	C	09/01/2023	06:03	-131.199	47.422	0	260.70	0	5.8820	0	33.8320	0	26.647	0	258.363	0	108.6	4	35.8	4	-1E+10	1	-1E+10	1	-1E+10	1	-1E+10	1	-1E+10	1	-1E+10	1
4902551	110	C	09/01/2023	06:03	-131.199	47.422	0	262.00	0	5.8410	0	33.8350	0	26.655	0	259.651	0	107.1	4	35.2	4	-1E+10	1	-1E+10	1	-1E+10	1	-1E+10	1	-1E+10	1	-1E+10	1
4902551	110	C	09/01/2023	06:03	-131.199	47.422	0	263.30	0	5.8250	0	33.8360	0	26.657	0	260.938	0	105.6	4	34.7	4	-1E+10	1	-1E+10	1	-1E+10	1	-1E+10	1	-1E+10	1	-1E+10	1
4902551	110	C	09/01/2023	06:03	-131.199	47.422	0	264.20	0	5.8460	0	33.8460	0	26.663	0	261.829	0	104.9	4	34.5	4	-1E+10	1	-1E+10	1	-1E+10	1	-1E+10	1	-1E+10	1	-1E+10	1
4902551	110	C	09/01/2023	06:03	-131.199	47.422	0	265.10	0	5.8470	0	33.8490	0	26.665	0	262.721	0	104.3	4	34.3	4	-1E+10	1	-1E+10	1	-1E+10	1	-1E+10	1	-1E+10	1	-1E+10	1
4902551	110	C	09/01/2023	06:03	-131.199	47.422	0	266.00	0	5.8590	0	33.8530	0	26.667	0	263.612	0	103.8	4	34.2	4	-1E+10	1	-1E+10	1	-1E+10	1	-1E+10	1	-1E+10	1	-1E+10	1
4902551	110	C	09/01/2023	06:03	-131.199	47.422	0	266.90	0	5.8560	0	33.8540	0	26.668	0	264.503	0	103.2	4	34.0	4	-1E+10	1	-1E+10	1	-1E+10	1	-1E+10	1	-1E+10	1	-1E+10	1
4902551	110	C	09/01/2023	06:03	-131.199	47.422	0	267.80	0	5.8530	0	33.8530	0	26.668	0	265.395	0	102.5	4	33.7	4	-1E+10	1	-1E+10	1	-1E+10	1	-1E+10	1	-1E+10	1	-1E+10	1
4902551	110	C	09/01/2023	06:03	-131.199	47.422	0	268.70	0	5.8520	0	33.8540	0	26.668	0	266.286	0	101.8	4	33.5	4	-1E+10	1	-1E+10	1	-1E+10	1	-1E+10	1	-1E+10	1	-1E+10	1
4902551	110	C	09/01/2023	06:03	-131.199	47.422	0	269.60	0	5.8500	0	33.8540	0	26.669	0	267.177	0	101.0	4	33.2	4	-1E+10	1	-1E+10	1	-1E+10	1	-1E+10	1	-1E+10	1	-1E+10	1
4902551	110	C	09/01/2023	06:03	-131.199	47.422	0	270.90	0	5.8610	0	33.8550	0	26.668	0	268.465	0	99.8	4	32.9	4	-1E+10	1	-1E+10	1	-1E+10	1	-1E+10	1	-1E+10	1	-1E+10	1
4902551	110	C	09/01/2023	06:03	-131.199	47.422	0	272.40	0	5.8570	0	33.8620	0	26.674	0	269.950	0	98.7	4	32.5	4	-1E+10	1	-1E+10	1	-1E+10	1	-1E+10	1	-1E+10	1	-1E+10	1
4902551	110	C	09/01/2023	06:03	-131.199	47.422	0	273.30	0	5.8640	0	33.8650	0	26.676	0	270.842	0	98.0	4	32.3	4	-1E+10	1	-1E+10	1	-1E+10	1	-1E+10	1	-1E+10	1	-1E+10	1
4902551	110	C	09/01/2023	06:03	-131.199	47.422	0	274.30	0	5.9100	0	33.8750	0	26.678	0	271.832	0	97.6	4	32.2	4	-1E+10	1	-1E+10	1	-1E+10	1	-1E+10	1	-1E+10	1	-1E+10	1
4902551	110	C	09/01/2023	06:03	-131.199	47.422	0	275.20	0	5.8950	0	33.8760	0	26.681	0	272.723	0	97.4	4	32.1	4	-1E+10	1	-1E+10	1	-1E+10	1	-1E+10	1	-1E+10	1	-1E+10	1
4902551	110	C	09/01/2023	06:03	-131.199	47.422	0	276.10	0	5.8890	0	33.8740	0	26.680	0	273.615	0	97.1	4	32.0	4	-1E+10	1	-1E+10	1	-1E+10	1	-1E+10	1	-1E+10	1	-1E+10	1
4902551	110	C	09/01/2023	06:03	-131.199	47.422	0	277.10	0	5.8480	0	33.8720	0	26.683	0	274.605	0	96.6	4	31.8	4	-1E+10	1	-1E+10	1	-1E+10	1	-1E+10	1	-1E+10	1	-1E+10	1
4902551	110	C	09/01/2023	06:03	-131.199	47.422	0	278.00	0	5.8420	0	33.8710	0	26.683	0	275.496	0	96.1	4	31.6	4	-1E+10	1	-1E+10	1	-1E+10	1	-1E+10	1	-1E+10	1	-1E+10	1
4902551	110	C	09/01/2023	06:03	-131.199	47.422	0	279.00	0	5.8500	0	33.8700	0	26.681	0	276.487	0	95.6	4	31.5	4	-1E+10	1	-1E+10	1	-1E+10	1	-1E+10	1	-1E+10	1	-1E+10	1
4902551	110	C	09/01/2023	06:03	-131.199	47.422	0	279.90	0	5.8570	0	33.8760	0	26.685	0	277.378	0	95.1	4	31.3	4	-1E+10	1	-1E+10	1	-1E+10	1	-1E+10	1	-1E+10	1	-1E+10	1
4902551	110	C	09/01/2023	06:03	-131.199	47.422	0	280.90	0	5.8500	0	33.8770	0	26.687	0	278.368	0	94.7	4	31.2	4	-1E+10	1	-1E+10	1	-1E+10	1	-1E+10	1	-1E+10	1	-1E+10	1
4902551	110	C	09/01/2023	06:03	-131.199	47.422	0	281.90	0	5.8500	0	33.8790	0	26.689	0	279.359	0	94.3	4	31.0	4	-1E+10	1	-1E+10	1	-1E+10	1	-1E+10	1	-1E+10	1	-1E+10	1
4902551	110	C	09/01/2023	06:03	-131.199	47.422	0	282.80	0	5.8570	0	33.8840	0	26.692	0	280.250	0	94.1	4	31.0	4	-1E+10	1	-1E+10	1	-1E+10	1	-1E+10	1	-1E+10	1	-1E+10	1
4902551	110	C	09/01/2023	06:03	-131.199	47.422	0	283.80	0	5.8520	0	33.8890	0	26.696	0	281.240	0	94.0	4	30.9	4	-1E+10	1	-1E+10	1	-1E+10	1	-1E+10	1	-1E+10	1	-1E+10	1
4902551	110	C	09/01/2023	06:03	-131.199	47.422	0	284.80	0	5.8330	0	33.8850	0	26.695	0	282.231	0	94.0	4	30.9	4	-1E+10	1	-1E+10	1	-1E+10	1	-1E+10	1	-1E+10	1	-1E+10	1
4902551	110	C	09/01/2023	06:03	-131.199	47.422	0	285.80	0	5.8300	0	33.8840	0	26.695	0	283.221	0	93.8	4	30.9	4	-1E+10	1	-1E+10	1	-1E+10	1	-1E+10	1	-1E+10	1	-1E+10	1
4902551	110	C	09/01/2023	06:03	-131.199	47.422	0	286.80	0	5.8240	0	33.8830	0	26.695	0	284.211	0	93.7	4	30.8	4	-1E+10	1	-1E+10	1	-1E+10	1	-1E+10	1	-1E+10	1	-1E+10	1
4902551	110	C	09/01/2023	06:03	-131.199	47.422	0	287.70	0	5.7990	0	33.8920	0	26.705	0	285.102	0	93.6	4	30.8	4	-1E+10	1	-1E+10	1	-1E+10	1	-1E+10	1	-1E+10	1	-1E+10	1
4902551	110	C	09/01/2023	06:03	-131.199	47.422	0	288.70	0	5.7830	0	33.8810	0	26.698	0	286.093	0	93.3	4	30.7	4	-1E+10	1	-1E+10	1	-1E+10	1	-1E+10	1	-1E+10	1	-1E+10	1
4902551	110	C	09/01/2023	06:03	-131.199	47.422	0	289.70	0	5.7630	0	33.8810	0	26.701	0	287.083	0	93.0	4	30.5	4	-1E+10	1	-1E+10	1	-1E+10	1	-1E+10	1	-1E+10	1	-1E+10	1
4902551	110	C	09/01/2023	06:03	-131.199	47.422	0	290.70	0	5.7380	0	33.8740	0	26.698	0	288.073	0	92.6	4	30.4	4	-1E+10	1	-1E+10	1	-1E+10	1	-1E+10	1	-1E+10	1	-1E+10	1
4902551	110	C	09/01/2023	06:03	-131.199	47.422	0	291.70	0	5.7140	0	33.8780	0	26.705	0	289.063	0	92.1	4	30.2	4	-1E+10	1	-1E+10	1	-1E+10	1	-1E+10	1	-1E+10	1	-1E+10	1
4902551	110	C	09/01/2023	06:03	-131.199	47.422	0	292.70	0	5.6840	0	33.8780	0	26.708	0	290.054	0	91.5	4	30.0	4	-1E+10	1	-1E+10	1	-1E+10	1	-1E+10	1	-1E+10	1	-1E+10	1
4902551	110	C	09/01/2023	06:03	-131.199	47.422	0	293.70	0	5.6890	0	33.8770	0	26.707	0	291.044	0	90.8	4	29.8	4	-1E+10	1	-1E+10	1	-1E+10	1	-1E+10	1	-1E+10	1	-1E+10	1
4902551	110	C	09/01/2023	06:03	-131.199	47.422	0	294.70	0	5.7480	0	33.8550	0	26.682	0	292.034	0	90.4	4	29.7	4	-1E+10	1	-1E+10	1	-1E+10	1	-1E+10	1	-1E+10	1	-1E+10	1
4902551	110	C	09/01/2023	06:03	-131.199	47.422	0	295.70	0	5.7490	0	33.8880	0	26.708	0	293.024	0	90.0	4	29.6	4	-1E+10	1	-1E+10	1	-1E+10	1	-1E+10	1	-1E+10	1	-1E+10	1
4902551	110	C	09/01/2023	06:03	-131.199	47.422	0	296.80	0	5.7410	0	33.8910	0	26.712	0	294.114	0	89.8	4	29.5	4	-1E+10	1	-1E+10	1	-1E+10	1	-1E+10	1	-1E+10	1	-1E+10	1
4902551	110	C	09/01/2023	06:03	-131.199	47.422	0	297.80	0	5.7180	0	33.8880	0	26.712	0	295.104	0	89.4	4	29.3	4	-1E+10	1	-1E+10	1	-1E+10	1	-1E+10	1	-1E+10	1	-1E+10	1
4902551	110	C	09/01/2023	06:03	-131.199	47.422	0	298.80	0	5.6970	0	33.8820	0	26.710	0	296.094	0	88.9	4	29.2	4	-1E+10	1	-1E+10	1	-1E+10	1	-1E+10	1	-1E+10	1	-1E+10	1
4902551	110	C	09/01/2023	06:03	-131.199	47.422	0	299.80	0	5.6690	0	33.8850	0	26.716	0	297.084	0	88.2	4	28.9	4	-1E+10	1	-1E+10	1	-1E+10	1	-1E+10	1	-1E+10	1	-1E+10	1
4902551	110	C	09/01/2023	06:03	-131.199	47.422	0	300.90	0	5.6000	0	33.8790	0	26.719	0	298.174	0	87.5	4	28.6	4	-1E+10	1	-1E+10	1	-1E+10	1	-1E+10	1	-1E+10	1	-1E+10	1
4902551	110	C	09/01/2023	06:03	-131.199	47.422	0	301.90	0	5.5860	8	33.8800	8	26.722	0	299.164	0	86.6	4	28.3	4	-1E+10	1	-1E+10	1	-1E+10	1	-1E+10	1	-1E+10	1	-1E+10	1
4902551	110	C	09/01/2023	06:03	-131.199	47.422	0	302.90	0	5.6320	8	33.8410	8	26.685	0	300.154	0	85.8	4	28.1	4	-1E+10	1	-1E+10	1	-1E+10	1	-1E+10	1	-1E+10	1	-1E+10	1
4902551	110	C	09/01/2023	06:03	-131.199	47.422	0	303.90	0	5.6820	0	33.8950	0	26.722	0	301.144	0	85.2	4	27.9	4	-1E+10	1	-1E+10	1	-1E+10	1	-1E+10	1	-1E+10	1	-1E+10	1
4902551	110	C	09/01/2023	06:03	-131.199	47.422	0	305.00	0	5.7040	0	33.9010	0	26.724	0	302.234	0	85.0	4	27.9	4	-1E+10	1	-1E+10	1	-1E+10	1	-1E+10	1	-1E+10	1	-1E+10	1
4902551	110	C	09/01/2023	06:03	-131.199	47.422	0	306.00	0	5.6660	0	33.9010	0	26.729	0	303.224	0	84.9	4	27.8	4	-1E+10	1	-1E+10	1	-1E+10	1	-1E+10	1	-1E+10	1	-1E+10	1
4902551	110	C	09/01/2023	06:03	-131.199	47.422	0	307.10	0	5.6360	0	33.8970	0	26.729	0	304.313	0	84.8	4	27.8	4	-1E+10	1	-1E+10	1	-1E+10	1	-1E+10	1	-1E+10	1	-1E+10	1
4902551	110	C	09/01/2023	06:03	-131.199	47.422	0	308.10	0	5.6630	0	33.9020	0	26.730	0	305.303	0	84.8	4	27.8	4	-1E+10	1	-1E+10	1	-1E+10	1	-1E+10	1	-1E+10	1	-1E+10	1
4902551	110	C	09/01/2023	06:03	-131.199	47.422	0	309.10	0	5.6780	0	33.9020	0	26.728	0	306.293	0	85.0	4	27.9	4	-1E+10	1	-1E+10	1	-1E+10	1	-1E+10	1	-1E+10	1	-1E+10	1
4902551	110	C	09/01/2023	06:03	-131.199	47.422	0	310.20	0	5.6730	0	33.9060	0	26.732	0	307.383	0	85.2	4	27.9	4	-1E+10	1	-1E+10	1	-1E+10	1	-1E+10	1	-1E+10	1	-1E+10	1
4902551	110	C	09/01/2023	06:03	-131.199	47.422	0	311.20	0	5.6780	0	33.9050	0	26.730	0	308.373	0	85.6	4	28.1	4	-1E+10	1	-1E+10	1	-1E+10	1	-1E+10	1	-1E+10	1	-1E+10	1
4902551	110	C	09/01/2023	06:03	-131.199	47.422	0	312.30	0	5.6700	0	33.9060	0	26.732	0	309.462	0	86.1	4	28.2	4	-1E+10	1	-1E+10	1	-1E+10	1	-1E+10	1	-1E+10	1	-1E+10	1
4902551	110	C	09/01/2023	06:03	-131.199	47.422	0	313.30	0	5.6230	0	33.9100	0	26.741	0	310.452	0	86.7	4	28.4	4	-1E+10	1	-1E+10	1	-1E+10	1	-1E+10	1	-1E+10	1	-1E+10	1
4902551	110	C	09/01/2023	06:03	-131.199	47.422	0	314.40	0	5.5460	0	33.9000	0	26.742	0	311.541	0	87.2	4	28.5	4	-1E+10	1	-1E+10	1	-1E+10	1	-1E+10	1	-1E+10	1	-1E+10	1
4902551	110	C	09/01/2023	06:03	-131.199	47.422	0	315.40	0	5.4160	0	33.9070	0	26.763	0	312.531	0	87.3	4	28.5	4	-1E+10	1	-1E+10	1	-1E+10	1	-1E+10	1	-1E+10	1	-1E+10	1
4902551	110	C	09/01/2023	06:03	-131.199	47.422	0	316.50	0	5.3470	0	33.8700	0	26.742	0	313.621	0	87.2	4	28.4	4	-1E+10	1	-1E+10	1	-1E+10	1	-1E+10	1	-1E+10	1	-1E+10	1
4902551	110	C	09/01/2023	06:03	-131.199	47.422	0	317.50	0	5.3090	0	33.8670	0	26.744	0	314.611	0	86.8	4	28.2	4	-1E+10	1	-1E+10	1	-1E+10	1	-1E+10	1	-1E+10	1	-1E+10	1
4902551	110	C	09/01/2023	06:03	-131.199	47.422	0	318.60	0	5.3470	0	33.8720	0	26.744	0	315.700	0	86.5	4	28.1	4	-1E+10	1	-1E+10	1	-1E+10	1	-1E+10	1	-1E+10	1	-1E+10	1
4902551	110	C	09/01/2023	06:03	-131.199	47.422	0	319.60	0	5.3510	0	33.8750	0	26.746	0	316.690	0	86.2	4	28.0	4	-1E+10	1	-1E+10	1	-1E+10	1	-1E+10	1	-1E+10	1	-1E+10	1
4902551	110	C	09/01/2023	06:03	-131.199	47.422	0	320.60	0	5.3510	0	33.8740	0	26.745	0	317.680	0	86.0	4	28.0	4	-1E+10	1	-1E+10	1	-1E+10	1	-1E+10	1	-1E+10	1	-1E+10	1
4902551	110	C	09/01/2023	06:03	-131.199	47.422	0	321.70	0	5.2820	0	33.8720	0	26.752	0	318.769	0	85.7	4	27.8	4	-1E+10	1	-1E+10	1	-1E+10	1	-1E+10	1	-1E+10	1	-1E+10	1
4902551	110	C	09/01/2023	06:03	-131.199	47.422	0	322.70	0	5.2580	0	33.8670	0	26.750	0	319.759	0	85.2	4	27.7	4	-1E+10	1	-1E+10	1	-1E+10	1	-1E+10	1	-1E+10	1	-1E+10	1
4902551	110	C	09/01/2023	06:03	-131.199	47.422	0	323.80	0	5.1950	0	33.8630	0	26.755	0	320.848	0	84.5	4	27.4	4	-1E+10	1	-1E+10	1	-1E+10	1	-1E+10	1	-1E+10	1	-1E+10	1
4902551	110	C	09/01/2023	06:03	-131.199	47.422	0	324.80	0	5.2150	0	33.8540	0	26.745	0	321.839	0	83.7	4	27.1	4	-1E+10	1	-1E+10	1	-1E+10	1	-1E+10	1	-1E+10	1	-1E+10	1
4902551	110	C	09/01/2023	06:03	-131.199	47.422	0	325.80	0	5.2450	0	33.8550	0	26.742	0	322.829	0	82.9	4	26.9	4	-1E+10	1	-1E+10	1	-1E+10	1	-1E+10	1	-1E+10	1	-1E+10	1
4902551	110	C	09/01/2023	06:03	-131.199	47.422	0	326.90	0	5.3310	0	33.8850	0	26.756	0	323.918	0	82.4	4	26.8	4	-1E+10	1	-1E+10	1	-1E+10	1	-1E+10	1	-1E+10	1	-1E+10	1
4902551	110	C	09/01/2023	06:03	-131.199	47.422	0	327.90	0	5.3260	0	33.8840	0	26.756	0	324.908	0	82.1	4	26.7	4	-1E+10	1	-1E+10	1	-1E+10	1	-1E+10	1	-1E+10	1	-1E+10	1
4902551	110	C	09/01/2023	06:03	-131.199	47.422	0	329.00	0	5.3220	0	33.8880	0	26.760	0	325.997	0	81.9	4	26.6	4	-1E+10	1	-1E+10	1	-1E+10	1	-1E+10	1	-1E+10	1	-1E+10	1
4902551	110	C	09/01/2023	06:03	-131.199	47.422	0	330.00	0	5.3220	0	33.8880	0	26.760	0	326.987	0	81.7	4	26.6	4	-1E+10	1	-1E+10	1	-1E+10	1	-1E+10	1	-1E+10	1	-1E+10	1
4902551	110	C	09/01/2023	06:03	-131.199	47.422	0	331.00	0	5.3140	0	33.8870	0	26.760	0	327.977	0	81.4	4	26.5	4	-1E+10	1	-1E+10	1	-1E+10	1	-1E+10	1	-1E+10	1	-1E+10	1
4902551	110	C	09/01/2023	06:03	-131.199	47.422	0	331.90	0	5.2700	0	33.8900	0	26.767	0	328.868	0	81.1	4	26.3	4	-1E+10	1	-1E+10	1	-1E+10	1	-1E+10	1	-1E+10	1	-1E+10	1
4902551	110	C	09/01/2023	06:03	-131.199	47.422	0	333.10	0	5.2050	0	33.8730	0	26.761	0	330.056	0	80.5	4	26.1	4	-1E+10	1	-1E+10	1	-1E+10	1	-1E+10	1	-1E+10	1	-1E+10	1
4902551	110	C	09/01/2023	06:03	-131.199	47.422	0	333.80	0	5.1820	0	33.8690	0	26.761	0	330.749	0	80.1	4	25.9	4	-1E+10	1	-1E+10	1	-1E+10	1	-1E+10	1	-1E+10	1	-1E+10	1
4902551	110	C	09/01/2023	06:03	-131.199	47.422	0	335.00	0	5.2790	0	33.8880	0	26.765	0	331.937	0	79.6	4	25.8	4	-1E+10	1	-1E+10	1	-1E+10	1	-1E+10	1	-1E+10	1	-1E+10	1
4902551	110	C	09/01/2023	06:03	-131.199	47.422	0	336.10	0	5.2130	0	33.9060	0	26.787	0	333.026	0	78.9	4	25.6	4	-1E+10	1	-1E+10	1	-1E+10	1	-1E+10	1	-1E+10	1	-1E+10	1
4902551	110	C	09/01/2023	06:03	-131.199	47.422	0	336.90	0	5.1920	0	33.8800	0	26.768	0	333.819	0	78.5	4	25.4	4	-1E+10	1	-1E+10	1	-1E+10	1	-1E+10	1	-1E+10	1	-1E+10	1
4902551	110	C	09/01/2023	06:03	-131.199	47.422	0	338.00	0	5.1490	0	33.8760	0	26.770	0	334.908	0	77.4	4	25.0	4	-1E+10	1	-1E+10	1	-1E+10	1	-1E+10	1	-1E+10	1	-1E+10	1
4902551	110	C	09/01/2023	06:03	-131.199	47.422	0	339.20	0	5.1270	0	33.8760	0	26.773	0	336.096	0	76.1	4	24.6	4	-1E+10	1	-1E+10	1	-1E+10	1	-1E+10	1	-1E+10	1	-1E+10	1
4902551	110	C	09/01/2023	06:03	-131.199	47.422	0	340.00	0	5.1180	0	33.8780	0	26.775	0	336.888	0	75.4	4	24.4	4	-1E+10	1	-1E+10	1	-1E+10	1	-1E+10	1	-1E+10	1	-1E+10	1
4902551	110	C	09/01/2023	06:03	-131.199	47.422	0	340.70	0	5.2530	0	33.8910	0	26.770	0	337.581	0	74.7	4	24.2	4	-1E+10	1	-1E+10	1	-1E+10	1	-1E+10	1	-1E+10	1	-1E+10	1
4902551	110	C	09/01/2023	06:03	-131.199	47.422	0	341.90	0	5.2330	0	33.8970	0	26.777	0	338.769	0	73.6	4	23.9	4	-1E+10	1	-1E+10	1	-1E+10	1	-1E+10	1	-1E+10	1	-1E+10	1
4902551	110	C	09/01/2023	06:03	-131.199	47.422	0	343.10	0	5.2160	0	33.8980	0	26.780	0	339.957	0	72.2	4	23.4	4	-1E+10	1	-1E+10	1	-1E+10	1	-1E+10	1	-1E+10	1	-1E+10	1
4902551	110	C	09/01/2023	06:03	-131.199	47.422	0	343.90	0	5.2200	0	33.8950	0	26.777	0	340.749	0	71.2	4	23.1	4	-1E+10	1	-1E+10	1	-1E+10	1	-1E+10	1	-1E+10	1	-1E+10	1
4902551	110	C	09/01/2023	06:03	-131.199	47.422	0	344.70	0	5.2170	0	33.8970	0	26.779	0	341.541	0	70.3	4	22.8	4	-1E+10	1	-1E+10	1	-1E+10	1	-1E+10	1	-1E+10	1	-1E+10	1
4902551	110	C	09/01/2023	06:03	-131.199	47.422	0	345.90	0	5.3480	0	33.9210	0	26.783	0	342.729	0	69.2	4	22.5	4	-1E+10	1	-1E+10	1	-1E+10	1	-1E+10	1	-1E+10	1	-1E+10	1
4902551	110	C	09/01/2023	06:03	-131.199	47.422	0	347.00	0	5.3570	0	33.9280	0	26.787	0	343.818	0	68.4	4	22.2	4	-1E+10	1	-1E+10	1	-1E+10	1	-1E+10	1	-1E+10	1	-1E+10	1
4902551	110	C	09/01/2023	06:03	-131.199	47.422	0	347.80	0	5.3330	0	33.9290	0	26.791	0	344.610	0	67.8	4	22.1	4	-1E+10	1	-1E+10	1	-1E+10	1	-1E+10	1	-1E+10	1	-1E+10	1
4902551	110	C	09/01/2023	06:03	-131.199	47.422	0	348.70	0	5.3660	0	33.9200	0	26.780	0	345.501	0	67.2	4	21.9	4	-1E+10	1	-1E+10	1	-1E+10	1	-1E+10	1	-1E+10	1	-1E+10	1
4902551	110	C	09/01/2023	06:03	-131.199	47.422	0	349.90	0	5.3910	0	33.9370	0	26.791	0	346.689	0	66.7	4	21.7	4	-1E+10	1	-1E+10	1	-1E+10	1	-1E+10	1	-1E+10	1	-1E+10	1
4902551	110	C	09/01/2023	06:03	-131.199	47.422	0	353.10	0	5.3840	0	33.9420	0	26.795	0	349.857	0	65.5	4	21.3	4	-1E+10	1	-1E+10	1	-1E+10	1	-1E+10	1	-1E+10	1	-1E+10	1
4902551	110	C	09/01/2023	06:03	-131.199	47.422	0	357.90	0	5.3460	0	33.9470	0	26.804	0	354.608	0	64.2	4	20.9	4	-1E+10	1	-1E+10	1	-1E+10	1	-1E+10	1	-1E+10	1	-1E+10	1
4902551	110	C	09/01/2023	06:03	-131.199	47.422	0	362.80	0	5.2610	0	33.9480	0	26.815	0	359.459	0	63.0	4	20.5	4	-1E+10	1	-1E+10	1	-1E+10	1	-1E+10	1	-1E+10	1	-1E+10	1
4902551	110	C	09/01/2023	06:03	-131.199	47.422	0	367.80	0	5.1920	0	33.9500	0	26.824	0	364.409	0	61.7	4	20.0	4	-1E+10	1	-1E+10	1	-1E+10	1	-1E+10	1	-1E+10	1	-1E+10	1
4902551	110	C	09/01/2023	06:03	-131.199	47.422	0	372.90	0	5.1310	0	33.9470	0	26.829	0	369.457	0	60.9	4	19.7	4	-1E+10	1	-1E+10	1	-1E+10	1	-1E+10	1	-1E+10	1	-1E+10	1
4902551	110	C	09/01/2023	06:03	-131.199	47.422	0	378.00	0	5.1300	0	33.9580	0	26.838	0	374.505	0	59.5	4	19.3	4	-1E+10	1	-1E+10	1	-1E+10	1	-1E+10	1	-1E+10	1	-1E+10	1
4902551	110	C	09/01/2023	06:03	-131.199	47.422	0	383.20	0	5.1230	0	33.9630	0	26.843	0	379.653	0	59.7	4	19.3	4	-1E+10	1	-1E+10	1	-1E+10	1	-1E+10	1	-1E+10	1	-1E+10	1
4902551	110	C	09/01/2023	06:03	-131.199	47.422	0	387.90	0	5.0710	0	33.9590	0	26.845	0	384.305	0	60.9	4	19.7	4	-1E+10	1	-1E+10	1	-1E+10	1	-1E+10	1	-1E+10	1	-1E+10	1
4902551	110	C	09/01/2023	06:03	-131.199	47.422	0	392.60	0	4.8940	0	33.9410	0	26.851	0	388.957	0	61.0	4	19.7	4	-1E+10	1	-1E+10	1	-1E+10	1	-1E+10	1	-1E+10	1	-1E+10	1
4902551	110	C	09/01/2023	06:03	-131.199	47.422	0	397.70	0	4.8570	0	33.9420	0	26.856	0	394.005	0	59.6	4	19.2	4	-1E+10	1	-1E+10	1	-1E+10	1	-1E+10	1	-1E+10	1	-1E+10	1
4902551	110	C	09/01/2023	06:03	-131.199	47.422	0	402.80	0	4.8330	0	33.9470	0	26.863	0	399.052	0	57.5	4	18.5	4	-1E+10	1	-1E+10	1	-1E+10	1	-1E+10	1	-1E+10	1	-1E+10	1
4902551	110	C	09/01/2023	06:03	-131.199	47.422	0	407.90	0	4.8070	0	33.9540	0	26.871	0	404.100	0	54.5	4	17.5	4	-1E+10	1	-1E+10	1	-1E+10	1	-1E+10	1	-1E+10	1	-1E+10	1
4902551	110	C	09/01/2023	06:03	-131.199	47.422	0	413.00	0	4.8730	0	33.9710	0	26.878	0	409.147	0	51.5	4	16.6	4	-1E+10	1	-1E+10	1	-1E+10	1	-1E+10	1	-1E+10	1	-1E+10	1
4902551	110	C	09/01/2023	06:03	-131.199	47.422	0	418.10	0	4.9110	0	33.9850	0	26.884	0	414.195	0	49.8	4	16.0	4	-1E+10	1	-1E+10	1	-1E+10	1	-1E+10	1	-1E+10	1	-1E+10	1
4902551	110	C	09/01/2023	06:03	-131.199	47.422	0	423.20	0	4.8860	0	33.9910	0	26.892	0	419.242	0	48.9	4	15.7	4	-1E+10	1	-1E+10	1	-1E+10	1	-1E+10	1	-1E+10	1	-1E+10	1
4902551	110	C	09/01/2023	06:03	-131.199	47.422	0	428.20	0	4.8450	0	33.9940	0	26.899	0	424.190	0	47.6	4	15.3	4	-1E+10	1	-1E+10	1	-1E+10	1	-1E+10	1	-1E+10	1	-1E+10	1
4902551	110	C	09/01/2023	06:03	-131.199	47.422	0	433.10	0	4.8370	0	34.0010	0	26.906	0	429.039	0	47.0	4	15.1	4	-1E+10	1	-1E+10	1	-1E+10	1	-1E+10	1	-1E+10	1	-1E+10	1
4902551	110	C	09/01/2023	06:03	-131.199	47.422	0	438.10	0	4.7740	0	33.9990	0	26.911	0	433.987	0	45.8	4	14.7	4	-1E+10	1	-1E+10	1	-1E+10	1	-1E+10	1	-1E+10	1	-1E+10	1
4902551	110	C	09/01/2023	06:03	-131.199	47.422	0	443.10	0	4.7850	0	34.0080	0	26.917	0	438.935	0	44.1	4	14.2	4	-1E+10	1	-1E+10	1	-1E+10	1	-1E+10	1	-1E+10	1	-1E+10	1
4902551	110	C	09/01/2023	06:03	-131.199	47.422	0	448.10	0	4.7550	0	34.0160	0	26.927	0	443.882	0	44.5	4	14.3	4	-1E+10	1	-1E+10	1	-1E+10	1	-1E+10	1	-1E+10	1	-1E+10	1
4902551	110	C	09/01/2023	06:03	-131.199	47.422	0	453.00	0	4.6430	0	34.0080	0	26.933	0	448.731	0	44.1	4	14.1	4	-1E+10	1	-1E+10	1	-1E+10	1	-1E+10	1	-1E+10	1	-1E+10	1
4902551	110	C	09/01/2023	06:03	-131.199	47.422	0	458.00	0	4.6160	0	34.0130	0	26.940	0	453.678	0	42.8	4	13.7	4	-1E+10	1	-1E+10	1	-1E+10	1	-1E+10	1	-1E+10	1	-1E+10	1
4902551	110	C	09/01/2023	06:03	-131.199	47.422	0	462.80	0	4.6000	0	34.0180	0	26.945	0	458.428	0	41.5	4	13.3	4	-1E+10	1	-1E+10	1	-1E+10	1	-1E+10	1	-1E+10	1	-1E+10	1
4902551	110	C	09/01/2023	06:03	-131.199	47.422	0	467.70	0	4.5700	0	34.0240	0	26.953	0	463.276	0	40.5	4	12.9	4	-1E+10	1	-1E+10	1	-1E+10	1	-1E+10	1	-1E+10	1	-1E+10	1
4902551	110	C	09/01/2023	06:03	-131.199	47.422	0	472.70	0	4.5510	0	34.0270	0	26.958	0	468.223	0	39.5	4	12.6	4	-1E+10	1	-1E+10	1	-1E+10	1	-1E+10	1	-1E+10	1	-1E+10	1
4902551	110	C	09/01/2023	06:03	-131.199	47.422	0	477.80	0	4.5460	0	34.0290	0	26.960	0	473.269	0	38.1	4	12.2	4	-1E+10	1	-1E+10	1	-1E+10	1	-1E+10	1	-1E+10	1	-1E+10	1
4902551	110	C	09/01/2023	06:03	-131.199	47.422	0	483.00	0	4.5180	0	34.0370	0	26.970	0	478.414	0	36.4	4	11.6	4	-1E+10	1	-1E+10	1	-1E+10	1	-1E+10	1	-1E+10	1	-1E+10	1
4902551	110	C	09/01/2023	06:03	-131.199	47.422	0	487.90	0	4.5110	0	34.0490	0	26.980	0	483.262	0	35.5	4	11.3	4	-1E+10	1	-1E+10	1	-1E+10	1	-1E+10	1	-1E+10	1	-1E+10	1
4902551	110	C	09/01/2023	06:03	-131.199	47.422	0	492.90	0	4.4790	0	34.0490	0	26.983	0	488.208	0	34.6	4	11.0	4	-1E+10	1	-1E+10	1	-1E+10	1	-1E+10	1	-1E+10	1	-1E+10	1
4902551	110	C	09/01/2023	06:03	-131.199	47.422	0	497.80	0	4.4790	0	34.0540	0	26.987	0	493.056	0	33.8	4	10.8	4	-1E+10	1	-1E+10	1	-1E+10	1	-1E+10	1	-1E+10	1	-1E+10	1
4902551	110	C	09/01/2023	06:03	-131.199	47.422	0	502.80	0	4.4560	0	34.0570	0	26.992	0	498.002	0	32.9	4	10.5	4	-1E+10	1	-1E+10	1	-1E+10	1	-1E+10	1	-1E+10	1	-1E+10	1
4902551	110	C	09/01/2023	06:03	-131.199	47.422	0	507.90	0	4.4410	0	34.0630	0	26.999	0	503.047	0	32.2	4	10.3	4	-1E+10	1	-1E+10	1	-1E+10	1	-1E+10	1	-1E+10	1	-1E+10	1
4902551	110	C	09/01/2023	06:03	-131.199	47.422	0	512.70	0	4.4310	0	34.0650	0	27.001	0	507.796	0	31.5	4	10.0	4	-1E+10	1	-1E+10	1	-1E+10	1	-1E+10	1	-1E+10	1	-1E+10	1
4902551	110	C	09/01/2023	06:03	-131.199	47.422	0	517.50	0	4.4240	0	34.0680	0	27.004	0	512.544	0	30.6	4	9.8	4	-1E+10	1	-1E+10	1	-1E+10	1	-1E+10	1	-1E+10	1	-1E+10	1
4902551	110	C	09/01/2023	06:03	-131.199	47.422	0	522.50	0	4.4080	0	34.0720	0	27.009	0	517.490	0	29.7	4	9.4	4	-1E+10	1	-1E+10	1	-1E+10	1	-1E+10	1	-1E+10	1	-1E+10	1
4902551	110	C	09/01/2023	06:03	-131.199	47.422	0	527.60	0	4.3980	0	34.0770	0	27.015	0	522.534	0	28.6	4	9.1	4	-1E+10	1	-1E+10	1	-1E+10	1	-1E+10	1	-1E+10	1	-1E+10	1
4902551	110	C	09/01/2023	06:03	-131.199	47.422	0	532.70	0	4.3800	0	34.0820	0	27.020	0	527.579	0	27.5	4	8.7	4	-1E+10	1	-1E+10	1	-1E+10	1	-1E+10	1	-1E+10	1	-1E+10	1
4902551	110	C	09/01/2023	06:03	-131.199	47.422	0	537.80	0	4.3730	0	34.0900	0	27.028	0	532.623	0	26.4	4	8.4	4	-1E+10	1	-1E+10	1	-1E+10	1	-1E+10	1	-1E+10	1	-1E+10	1
4902551	110	C	09/01/2023	06:03	-131.199	47.422	0	542.90	0	4.3600	0	34.0970	0	27.035	0	537.668	0	25.5	4	8.1	4	-1E+10	1	-1E+10	1	-1E+10	1	-1E+10	1	-1E+10	1	-1E+10	1
4902551	110	C	09/01/2023	06:03	-131.199	47.422	0	548.10	0	4.3350	0	34.1010	0	27.040	0	542.811	0	24.7	4	7.9	4	-1E+10	1	-1E+10	1	-1E+10	1	-1E+10	1	-1E+10	1	-1E+10	1
4902551	110	C	09/01/2023	06:03	-131.199	47.422	0	553.30	0	4.3350	0	34.1080	0	27.046	0	547.954	0	24.0	4	7.6	4	-1E+10	1	-1E+10	1	-1E+10	1	-1E+10	1	-1E+10	1	-1E+10	1
4902551	110	C	09/01/2023	06:03	-131.199	47.422	0	558.00	0	4.3270	0	34.1120	0	27.050	0	552.602	0	23.7	4	7.5	4	-1E+10	1	-1E+10	1	-1E+10	1	-1E+10	1	-1E+10	1	-1E+10	1
4902551	110	C	09/01/2023	06:03	-131.199	47.422	0	562.80	0	4.3060	0	34.1140	0	27.054	0	557.349	0	23.3	4	7.4	4	-1E+10	1	-1E+10	1	-1E+10	1	-1E+10	1	-1E+10	1	-1E+10	1
4902551	110	C	09/01/2023	06:03	-131.199	47.422	0	568.10	0	4.2870	0	34.1170	0	27.058	0	562.591	0	22.9	4	7.3	4	-1E+10	1	-1E+10	1	-1E+10	1	-1E+10	1	-1E+10	1	-1E+10	1
4902551	110	C	09/01/2023	06:03	-131.199	47.422	0	572.90	0	4.2800	0	34.1200	0	27.062	0	567.338	0	22.5	4	7.2	4	-1E+10	1	-1E+10	1	-1E+10	1	-1E+10	1	-1E+10	1	-1E+10	1
4902551	110	C	09/01/2023	06:03	-131.199	47.422	0	577.80	0	4.2440	0	34.1220	0	27.067	0	572.183	0	21.9	4	7.0	4	-1E+10	1	-1E+10	1	-1E+10	1	-1E+10	1	-1E+10	1	-1E+10	1
4902551	110	C	09/01/2023	06:03	-131.199	47.422	0	582.80	0	4.2260	0	34.1280	0	27.074	0	577.128	0	21.1	4	6.7	4	-1E+10	1	-1E+10	1	-1E+10	1	-1E+10	1	-1E+10	1	-1E+10	1
4902551	110	C	09/01/2023	06:03	-131.199	47.422	0	587.70	0	4.2060	0	34.1350	0	27.081	0	581.973	0	20.4	4	6.5	4	-1E+10	1	-1E+10	1	-1E+10	1	-1E+10	1	-1E+10	1	-1E+10	1
4902551	110	C	09/01/2023	06:03	-131.199	47.422	0	592.70	0	4.1900	0	34.1400	0	27.087	0	586.917	0	19.8	4	6.3	4	-1E+10	1	-1E+10	1	-1E+10	1	-1E+10	1	-1E+10	1	-1E+10	1
4902551	110	C	09/01/2023	06:03	-131.199	47.422	0	597.70	0	4.1730	0	34.1450	0	27.093	0	591.862	0	19.2	4	6.1	4	-1E+10	1	-1E+10	1	-1E+10	1	-1E+10	1	-1E+10	1	-1E+10	1
4902551	110	C	09/01/2023	06:03	-131.199	47.422	0	602.80	0	4.1720	0	34.1500	0	27.097	0	596.904	0	18.4	4	5.8	4	-1E+10	1	-1E+10	1	-1E+10	1	-1E+10	1	-1E+10	1	-1E+10	1
4902551	110	C	09/01/2023	06:03	-131.199	47.422	0	607.90	0	4.1800	0	34.1600	0	27.104	0	601.947	0	17.8	4	5.6	4	-1E+10	1	-1E+10	1	-1E+10	1	-1E+10	1	-1E+10	1	-1E+10	1
4902551	110	C	09/01/2023	06:03	-131.199	47.422	0	613.00	0	4.1650	0	34.1640	0	27.109	0	606.990	0	17.5	4	5.5	4	-1E+10	1	-1E+10	1	-1E+10	1	-1E+10	1	-1E+10	1	-1E+10	1
4902551	110	C	09/01/2023	06:03	-131.199	47.422	0	617.80	0	4.1490	0	34.1690	0	27.114	0	611.736	0	17.1	4	5.4	4	-1E+10	1	-1E+10	1	-1E+10	1	-1E+10	1	-1E+10	1	-1E+10	1
4902551	110	C	09/01/2023	06:03	-131.199	47.422	0	622.70	0	4.1400	0	34.1740	0	27.119	0	616.580	0	16.8	4	5.3	4	-1E+10	1	-1E+10	1	-1E+10	1	-1E+10	1	-1E+10	1	-1E+10	1
4902551	110	C	09/01/2023	06:03	-131.199	47.422	0	627.60	0	4.1440	0	34.1780	0	27.122	0	621.425	0	16.6	4	5.3	4	-1E+10	1	-1E+10	1	-1E+10	1	-1E+10	1	-1E+10	1	-1E+10	1
4902551	110	C	09/01/2023	06:03	-131.199	47.422	0	632.60	0	4.1360	0	34.1800	0	27.125	0	626.368	0	16.3	4	5.2	4	-1E+10	1	-1E+10	1	-1E+10	1	-1E+10	1	-1E+10	1	-1E+10	1
4902551	110	C	09/01/2023	06:03	-131.199	47.422	0	637.60	0	4.1150	0	34.1860	0	27.132	0	631.311	0	16.0	4	5.1	4	-1E+10	1	-1E+10	1	-1E+10	1	-1E+10	1	-1E+10	1	-1E+10	1
4902551	110	C	09/01/2023	06:03	-131.199	47.422	0	642.70	0	4.1030	0	34.1880	0	27.135	0	636.353	0	15.8	4	5.0	4	-1E+10	1	-1E+10	1	-1E+10	1	-1E+10	1	-1E+10	1	-1E+10	1
4902551	110	C	09/01/2023	06:03	-131.199	47.422	0	647.80	0	4.0950	0	34.1900	0	27.137	0	641.395	0	15.5	4	4.9	4	-1E+10	1	-1E+10	1	-1E+10	1	-1E+10	1	-1E+10	1	-1E+10	1
4902551	110	C	09/01/2023	06:03	-131.199	47.422	0	653.00	0	4.0710	0	34.1920	0	27.141	0	646.536	0	15.2	4	4.8	4	-1E+10	1	-1E+10	1	-1E+10	1	-1E+10	1	-1E+10	1	-1E+10	1
4902551	110	C	09/01/2023	06:03	-131.199	47.422	0	658.10	0	4.0590	0	34.1960	0	27.146	0	651.577	0	14.8	4	4.7	4	-1E+10	1	-1E+10	1	-1E+10	1	-1E+10	1	-1E+10	1	-1E+10	1
4902551	110	C	09/01/2023	06:03	-131.199	47.422	0	663.30	0	4.0340	0	34.1990	0	27.151	0	656.717	0	14.5	4	4.6	4	-1E+10	1	-1E+10	1	-1E+10	1	-1E+10	1	-1E+10	1	-1E+10	1
4902551	110	C	09/01/2023	06:03	-131.199	47.422	0	667.90	0	4.0250	0	34.2040	0	27.155	0	661.264	0	14.3	4	4.5	4	-1E+10	1	-1E+10	1	-1E+10	1	-1E+10	1	-1E+10	1	-1E+10	1
4902551	110	C	09/01/2023	06:03	-131.199	47.422	0	672.60	0	4.0180	0	34.2070	0	27.159	0	665.910	0	14.3	4	4.5	4	-1E+10	1	-1E+10	1	-1E+10	1	-1E+10	1	-1E+10	1	-1E+10	1
4902551	110	C	09/01/2023	06:03	-131.199	47.422	0	677.70	0	4.0040	0	34.2080	0	27.161	0	670.951	0	14.5	4	4.6	4	-1E+10	1	-1E+10	1	-1E+10	1	-1E+10	1	-1E+10	1	-1E+10	1
4902551	110	C	09/01/2023	06:03	-131.199	47.422	0	682.80	0	3.9790	0	34.2090	0	27.164	0	675.992	0	14.8	4	4.7	4	-1E+10	1	-1E+10	1	-1E+10	1	-1E+10	1	-1E+10	1	-1E+10	1
4902551	110	C	09/01/2023	06:03	-131.199	47.422	0	687.80	0	3.9600	0	34.2120	0	27.169	0	680.934	0	15.4	4	4.9	4	-1E+10	1	-1E+10	1	-1E+10	1	-1E+10	1	-1E+10	1	-1E+10	1
4902551	110	C	09/01/2023	06:03	-131.199	47.422	0	692.70	0	3.9200	0	34.2080	0	27.169	0	685.777	0	16.3	4	5.1	4	-1E+10	1	-1E+10	1	-1E+10	1	-1E+10	1	-1E+10	1	-1E+10	1
4902551	110	C	09/01/2023	06:03	-131.199	47.422	0	697.60	0	3.8510	0	34.2060	0	27.175	0	690.620	0	16.6	4	5.2	4	-1E+10	1	-1E+10	1	-1E+10	1	-1E+10	1	-1E+10	1	-1E+10	1
4902551	110	C	09/01/2023	06:03	-131.199	47.422	0	702.60	0	3.8340	0	34.2070	0	27.177	0	695.562	0	16.4	4	5.2	4	-1E+10	1	-1E+10	1	-1E+10	1	-1E+10	1	-1E+10	1	-1E+10	1
4902551	110	C	09/01/2023	06:03	-131.199	47.422	0	707.60	0	3.8220	0	34.2080	0	27.179	0	700.503	0	16.1	4	5.1	4	-1E+10	1	-1E+10	1	-1E+10	1	-1E+10	1	-1E+10	1	-1E+10	1
4902551	110	C	09/01/2023	06:03	-131.199	47.422	0	712.60	0	3.8110	0	34.2120	0	27.184	0	705.445	0	15.7	4	4.9	4	-1E+10	1	-1E+10	1	-1E+10	1	-1E+10	1	-1E+10	1	-1E+10	1
4902551	110	C	09/01/2023	06:03	-131.199	47.422	0	717.70	0	3.8000	0	34.2150	0	27.187	0	710.485	0	15.2	4	4.8	4	-1E+10	1	-1E+10	1	-1E+10	1	-1E+10	1	-1E+10	1	-1E+10	1
4902551	110	C	09/01/2023	06:03	-131.199	47.422	0	722.70	0	3.8130	0	34.2200	0	27.190	0	715.426	0	14.3	4	4.5	4	-1E+10	1	-1E+10	1	-1E+10	1	-1E+10	1	-1E+10	1	-1E+10	1
4902551	110	C	09/01/2023	06:03	-131.199	47.422	0	727.70	0	3.8510	0	34.2290	0	27.193	0	720.367	0	13.8	4	4.3	4	-1E+10	1	-1E+10	1	-1E+10	1	-1E+10	1	-1E+10	1	-1E+10	1
4902551	110	C	09/01/2023	06:03	-131.199	47.422	0	732.80	0	3.8470	0	34.2320	0	27.196	0	725.407	0	13.6	4	4.3	4	-1E+10	1	-1E+10	1	-1E+10	1	-1E+10	1	-1E+10	1	-1E+10	1
4902551	110	C	09/01/2023	06:03	-131.199	47.422	0	737.90	0	3.8280	0	34.2350	0	27.201	0	730.446	0	13.6	4	4.3	4	-1E+10	1	-1E+10	1	-1E+10	1	-1E+10	1	-1E+10	1	-1E+10	1
4902551	110	C	09/01/2023	06:03	-131.199	47.422	0	743.20	0	3.8020	0	34.2370	0	27.205	0	735.684	0	13.5	4	4.2	4	-1E+10	1	-1E+10	1	-1E+10	1	-1E+10	1	-1E+10	1	-1E+10	1
4902551	110	C	09/01/2023	06:03	-131.199	47.422	0	748.00	0	3.7920	0	34.2420	0	27.210	0	740.426	0	13.6	4	4.3	4	-1E+10	1	-1E+10	1	-1E+10	1	-1E+10	1	-1E+10	1	-1E+10	1
4902551	110	C	09/01/2023	06:03	-131.199	47.422	0	752.80	0	3.7710	0	34.2420	0	27.212	0	745.169	0	13.6	4	4.3	4	-1E+10	1	-1E+10	1	-1E+10	1	-1E+10	1	-1E+10	1	-1E+10	1
4902551	110	C	09/01/2023	06:03	-131.199	47.422	0	757.70	0	3.7600	0	34.2430	0	27.214	0	750.011	0	13.5	4	4.2	4	-1E+10	1	-1E+10	1	-1E+10	1	-1E+10	1	-1E+10	1	-1E+10	1
4902551	110	C	09/01/2023	06:03	-131.199	47.422	0	762.70	0	3.7440	0	34.2460	0	27.218	0	754.951	0	13.2	4	4.1	4	-1E+10	1	-1E+10	1	-1E+10	1	-1E+10	1	-1E+10	1	-1E+10	1
4902551	110	C	09/01/2023	06:03	-131.199	47.422	0	767.80	0	3.7520	0	34.2540	0	27.223	0	759.990	0	13.4	4	4.2	4	-1E+10	1	-1E+10	1	-1E+10	1	-1E+10	1	-1E+10	1	-1E+10	1
4902551	110	C	09/01/2023	06:03	-131.199	47.422	0	773.10	0	3.6930	0	34.2520	0	27.228	0	765.226	0	13.8	4	4.3	4	-1E+10	1	-1E+10	1	-1E+10	1	-1E+10	1	-1E+10	1	-1E+10	1
4902551	110	C	09/01/2023	06:03	-131.199	47.422	0	778.10	0	3.6500	0	34.2520	0	27.232	0	770.166	0	13.9	4	4.4	4	-1E+10	1	-1E+10	1	-1E+10	1	-1E+10	1	-1E+10	1	-1E+10	1
4902551	110	C	09/01/2023	06:03	-131.199	47.422	0	782.70	0	3.6290	0	34.2540	0	27.236	0	774.711	0	13.8	4	4.3	4	-1E+10	1	-1E+10	1	-1E+10	1	-1E+10	1	-1E+10	1	-1E+10	1
4902551	110	C	09/01/2023	06:03	-131.199	47.422	0	788.00	0	3.6100	0	34.2570	0	27.240	0	779.947	0	13.6	4	4.3	4	-1E+10	1	-1E+10	1	-1E+10	1	-1E+10	1	-1E+10	1	-1E+10	1
4902551	110	C	09/01/2023	06:03	-131.199	47.422	0	793.40	0	3.5990	0	34.2600	0	27.243	0	785.281	0	13.4	4	4.2	4	-1E+10	1	-1E+10	1	-1E+10	1	-1E+10	1	-1E+10	1	-1E+10	1
4902551	110	C	09/01/2023	06:03	-131.199	47.422	0	798.40	0	3.5910	0	34.2630	0	27.247	0	790.221	0	13.2	4	4.1	4	-1E+10	1	-1E+10	1	-1E+10	1	-1E+10	1	-1E+10	1	-1E+10	1
4902551	110	C	09/01/2023	06:03	-131.199	47.422	0	802.90	0	3.5820	0	34.2660	0	27.250	0	794.666	0	13.1	4	4.1	4	-1E+10	1	-1E+10	1	-1E+10	1	-1E+10	1	-1E+10	1	-1E+10	1
4902551	110	C	09/01/2023	06:03	-131.199	47.422	0	807.50	0	3.5760	0	34.2690	0	27.253	0	799.210	0	13.0	4	4.0	4	-1E+10	1	-1E+10	1	-1E+10	1	-1E+10	1	-1E+10	1	-1E+10	1
4902551	110	C	09/01/2023	06:03	-131.199	47.422	0	812.70	0	3.5630	0	34.2720	0	27.257	0	804.347	0	12.8	4	4.0	4	-1E+10	1	-1E+10	1	-1E+10	1	-1E+10	1	-1E+10	1	-1E+10	1
4902551	110	C	09/01/2023	06:03	-131.199	47.422	0	818.00	0	3.5550	0	34.2750	0	27.260	0	809.582	0	12.7	4	4.0	4	-1E+10	1	-1E+10	1	-1E+10	1	-1E+10	1	-1E+10	1	-1E+10	1
4902551	110	C	09/01/2023	06:03	-131.199	47.422	0	823.30	0	3.5470	0	34.2780	0	27.263	0	814.817	0	12.5	4	3.9	4	-1E+10	1	-1E+10	1	-1E+10	1	-1E+10	1	-1E+10	1	-1E+10	1
4902551	110	C	09/01/2023	06:03	-131.199	47.422	0	828.10	0	3.5390	0	34.2800	0	27.265	0	819.558	0	12.4	4	3.9	4	-1E+10	1	-1E+10	1	-1E+10	1	-1E+10	1	-1E+10	1	-1E+10	1
4902551	110	C	09/01/2023	06:03	-131.199	47.422	0	832.90	0	3.5280	0	34.2830	0	27.269	0	824.299	0	12.2	4	3.8	4	-1E+10	1	-1E+10	1	-1E+10	1	-1E+10	1	-1E+10	1	-1E+10	1
4902551	110	C	09/01/2023	06:03	-131.199	47.422	0	837.80	0	3.5190	0	34.2860	0	27.272	0	829.139	0	12.0	4	3.8	4	-1E+10	1	-1E+10	1	-1E+10	1	-1E+10	1	-1E+10	1	-1E+10	1
4902551	110	C	09/01/2023	06:03	-131.199	47.422	0	842.80	0	3.5140	0	34.2910	0	27.277	0	834.077	0	11.8	4	3.7	4	-1E+10	1	-1E+10	1	-1E+10	1	-1E+10	1	-1E+10	1	-1E+10	1
4902551	110	C	09/01/2023	06:03	-131.199	47.422	0	847.80	0	3.5040	0	34.2950	0	27.281	0	839.016	0	11.7	4	3.7	4	-1E+10	1	-1E+10	1	-1E+10	1	-1E+10	1	-1E+10	1	-1E+10	1
4902551	110	C	09/01/2023	06:03	-131.199	47.422	0	852.90	0	3.4930	0	34.2980	0	27.284	0	844.052	0	11.6	4	3.6	4	-1E+10	1	-1E+10	1	-1E+10	1	-1E+10	1	-1E+10	1	-1E+10	1
4902551	110	C	09/01/2023	06:03	-131.199	47.422	0	858.00	0	3.4880	0	34.3000	0	27.286	0	849.089	0	11.5	4	3.6	4	-1E+10	1	-1E+10	1	-1E+10	1	-1E+10	1	-1E+10	1	-1E+10	1
4902551	110	C	09/01/2023	06:03	-131.199	47.422	0	862.60	0	3.4790	0	34.3040	0	27.290	0	853.632	0	11.5	4	3.6	4	-1E+10	1	-1E+10	1	-1E+10	1	-1E+10	1	-1E+10	1	-1E+10	1
4902551	110	C	09/01/2023	06:03	-131.199	47.422	0	867.90	0	3.4590	0	34.3090	0	27.296	0	858.866	0	11.4	4	3.6	4	-1E+10	1	-1E+10	1	-1E+10	1	-1E+10	1	-1E+10	1	-1E+10	1
4902551	110	C	09/01/2023	06:03	-131.199	47.422	0	873.10	0	3.4560	0	34.3090	0	27.297	0	864.001	0	11.4	4	3.6	4	-1E+10	1	-1E+10	1	-1E+10	1	-1E+10	1	-1E+10	1	-1E+10	1
4902551	110	C	09/01/2023	06:03	-131.199	47.422	0	877.70	0	3.4570	0	34.3080	0	27.296	0	868.544	0	11.4	4	3.5	4	-1E+10	1	-1E+10	1	-1E+10	1	-1E+10	1	-1E+10	1	-1E+10	1
4902551	110	C	09/01/2023	06:03	-131.199	47.422	0	882.90	0	3.4530	0	34.3090	0	27.297	0	873.679	0	11.3	4	3.5	4	-1E+10	1	-1E+10	1	-1E+10	1	-1E+10	1	-1E+10	1	-1E+10	1
4902551	110	C	09/01/2023	06:03	-131.199	47.422	0	888.10	0	3.4460	0	34.3110	0	27.299	0	878.813	0	11.2	4	3.5	4	-1E+10	1	-1E+10	1	-1E+10	1	-1E+10	1	-1E+10	1	-1E+10	1
4902551	110	C	09/01/2023	06:03	-131.199	47.422	0	892.70	0	3.4340	0	34.3160	0	27.305	0	883.356	0	11.1	4	3.5	4	-1E+10	1	-1E+10	1	-1E+10	1	-1E+10	1	-1E+10	1	-1E+10	1
4902551	110	C	09/01/2023	06:03	-131.199	47.422	0	897.90	0	3.4240	0	34.3190	0	27.308	0	888.490	0	11.1	4	3.5	4	-1E+10	1	-1E+10	1	-1E+10	1	-1E+10	1	-1E+10	1	-1E+10	1
4902551	110	C	09/01/2023	06:03	-131.199	47.422	0	903.10	0	3.4160	0	34.3210	0	27.310	0	893.624	0	11.1	4	3.5	4	-1E+10	1	-1E+10	1	-1E+10	1	-1E+10	1	-1E+10	1	-1E+10	1
4902551	110	C	09/01/2023	06:03	-131.199	47.422	0	907.70	0	3.4020	0	34.3230	0	27.313	0	898.166	0	11.1	4	3.4	4	-1E+10	1	-1E+10	1	-1E+10	1	-1E+10	1	-1E+10	1	-1E+10	1
4902551	110	C	09/01/2023	06:03	-131.199	47.422	0	912.90	0	3.3920	0	34.3250	0	27.316	0	903.301	0	11.0	4	3.4	4	-1E+10	1	-1E+10	1	-1E+10	1	-1E+10	1	-1E+10	1	-1E+10	1
4902551	110	C	09/01/2023	06:03	-131.199	47.422	0	918.10	0	3.3740	0	34.3280	0	27.320	0	908.435	0	11.0	4	3.4	4	-1E+10	1	-1E+10	1	-1E+10	1	-1E+10	1	-1E+10	1	-1E+10	1
4902551	110	C	09/01/2023	06:03	-131.199	47.422	0	922.80	0	3.3660	0	34.3300	0	27.322	0	913.075	0	11.0	4	3.4	4	-1E+10	1	-1E+10	1	-1E+10	1	-1E+10	1	-1E+10	1	-1E+10	1
4902551	110	C	09/01/2023	06:03	-131.199	47.422	0	927.50	0	3.3640	0	34.3310	0	27.323	0	917.715	0	11.0	4	3.4	4	-1E+10	1	-1E+10	1	-1E+10	1	-1E+10	1	-1E+10	1	-1E+10	1
4902551	110	C	09/01/2023	06:03	-131.199	47.422	0	932.80	0	3.3600	0	34.3320	0	27.325	0	922.947	0	11.0	4	3.4	4	-1E+10	1	-1E+10	1	-1E+10	1	-1E+10	1	-1E+10	1	-1E+10	1
4902551	110	C	09/01/2023	06:03	-131.199	47.422	0	938.00	0	3.3500	0	34.3330	0	27.326	0	928.081	0	11.0	4	3.4	4	-1E+10	1	-1E+10	1	-1E+10	1	-1E+10	1	-1E+10	1	-1E+10	1
4902551	110	C	09/01/2023	06:03	-131.199	47.422	0	942.60	0	3.3430	0	34.3340	0	27.328	0	932.622	0	11.0	4	3.4	4	-1E+10	1	-1E+10	1	-1E+10	1	-1E+10	1	-1E+10	1	-1E+10	1
4902551	110	C	09/01/2023	06:03	-131.199	47.422	0	947.90	0	3.3340	0	34.3350	0	27.330	0	937.854	0	11.1	4	3.4	4	-1E+10	1	-1E+10	1	-1E+10	1	-1E+10	1	-1E+10	1	-1E+10	1
4902551	110	C	09/01/2023	06:03	-131.199	47.422	0	953.20	0	3.3230	0	34.3370	0	27.332	0	943.086	0	11.1	4	3.4	4	-1E+10	1	-1E+10	1	-1E+10	1	-1E+10	1	-1E+10	1	-1E+10	1
4902551	110	C	09/01/2023	06:03	-131.199	47.422	0	957.90	0	3.3220	0	34.3370	0	27.332	0	947.726	0	11.1	4	3.4	4	-1E+10	1	-1E+10	1	-1E+10	1	-1E+10	1	-1E+10	1	-1E+10	1
4902551	110	C	09/01/2023	06:03	-131.199	47.422	0	962.50	0	3.3190	0	34.3380	0	27.333	0	952.266	0	11.1	4	3.4	4	-1E+10	1	-1E+10	1	-1E+10	1	-1E+10	1	-1E+10	1	-1E+10	1
4902551	110	C	09/01/2023	06:03	-131.199	47.422	0	967.70	0	3.3150	0	34.3390	0	27.335	0	957.399	0	11.0	4	3.4	4	-1E+10	1	-1E+10	1	-1E+10	1	-1E+10	1	-1E+10	1	-1E+10	1
4902551	110	C	09/01/2023	06:03	-131.199	47.422	0	972.80	0	3.3080	0	34.3400	0	27.336	0	962.433	0	11.0	4	3.4	4	-1E+10	1	-1E+10	1	-1E+10	1	-1E+10	1	-1E+10	1	-1E+10	1
4902551	110	C	09/01/2023	06:03	-131.199	47.422	0	977.90	0	3.2910	0	34.3440	0	27.341	0	967.467	0	11.0	4	3.4	4	-1E+10	1	-1E+10	1	-1E+10	1	-1E+10	1	-1E+10	1	-1E+10	1
4902551	110	C	09/01/2023	06:03	-131.199	47.422	0	983.30	0	3.2810	0	34.3480	0	27.345	0	972.797	0	10.9	4	3.4	4	-1E+10	1	-1E+10	1	-1E+10	1	-1E+10	1	-1E+10	1	-1E+10	1
4902551	110	C	09/01/2023	06:03	-131.199	47.422	0	988.20	0	3.2870	0	34.3530	0	27.349	0	977.633	0	10.9	4	3.4	4	-1E+10	1	-1E+10	1	-1E+10	1	-1E+10	1	-1E+10	1	-1E+10	1
4902551	110	C	09/01/2023	06:03	-131.199	47.422	0	993.10	0	3.2730	0	34.3530	0	27.350	0	982.469	0	11.0	4	3.4	4	-1E+10	1	-1E+10	1	-1E+10	1	-1E+10	1	-1E+10	1	-1E+10	1
4902551	110	C	09/01/2023	06:03	-131.199	47.422	0	998.00	0	3.2570	0	34.3540	0	27.352	0	987.305	0	11.0	4	3.4	4	-1E+10	1	-1E+10	1	-1E+10	1	-1E+10	1	-1E+10	1	-1E+10	1
4902551	110	C	09/01/2023	06:03	-131.199	47.422	0	1005.40	0	3.2420	0	34.3580	0	27.357	0	994.608	0	11.0	4	3.4	4	-1E+10	1	-1E+10	1	-1E+10	1	-1E+10	1	-1E+10	1	-1E+10	1
4902551	110	C	09/01/2023	06:03	-131.199	47.422	0	1015.40	0	3.2190	0	34.3610	0	27.361	0	1004.477	0	11.1	4	3.5	4	-1E+10	1	-1E+10	1	-1E+10	1	-1E+10	1	-1E+10	1	-1E+10	1
4902551	110	C	09/01/2023	06:03	-131.199	47.422	0	1025.50	0	3.1650	0	34.3660	0	27.370	0	1014.444	0	11.3	4	3.5	4	-1E+10	1	-1E+10	1	-1E+10	1	-1E+10	1	-1E+10	1	-1E+10	1
4902551	110	C	09/01/2023	06:03	-131.199	47.422	0	1035.70	0	3.1320	0	34.3720	0	27.378	0	1024.509	0	11.3	4	3.5	4	-1E+10	1	-1E+10	1	-1E+10	1	-1E+10	1	-1E+10	1	-1E+10	1
4902551	110	C	09/01/2023	06:03	-131.199	47.422	0	1045.60	0	3.1240	0	34.3780	0	27.384	0	1034.278	0	11.3	4	3.5	4	-1E+10	1	-1E+10	1	-1E+10	1	-1E+10	1	-1E+10	1	-1E+10	1
4902551	110	C	09/01/2023	06:03	-131.199	47.422	0	1055.40	0	3.1180	0	34.3860	0	27.391	0	1043.947	0	11.4	4	3.5	4	-1E+10	1	-1E+10	1	-1E+10	1	-1E+10	1	-1E+10	1	-1E+10	1
4902551	110	C	09/01/2023	06:03	-131.199	47.422	0	1065.20	0	3.0810	0	34.3860	0	27.394	0	1053.616	0	11.5	4	3.6	4	-1E+10	1	-1E+10	1	-1E+10	1	-1E+10	1	-1E+10	1	-1E+10	1
4902551	110	C	09/01/2023	06:03	-131.199	47.422	0	1075.00	0	3.0770	0	34.3900	0	27.398	0	1063.285	0	11.6	4	3.6	4	-1E+10	1	-1E+10	1	-1E+10	1	-1E+10	1	-1E+10	1	-1E+10	1
4902551	110	C	09/01/2023	06:03	-131.199	47.422	0	1085.10	0	3.0770	0	34.3960	0	27.403	0	1073.249	0	11.7	4	3.6	4	-1E+10	1	-1E+10	1	-1E+10	1	-1E+10	1	-1E+10	1	-1E+10	1
4902551	110	C	09/01/2023	06:03	-131.199	47.422	0	1095.30	0	3.0550	0	34.3980	0	27.406	0	1083.311	0	11.8	4	3.7	4	-1E+10	1	-1E+10	1	-1E+10	1	-1E+10	1	-1E+10	1	-1E+10	1
4902551	110	C	09/01/2023	06:03	-131.199	47.422	0	1105.20	0	3.0400	0	34.4010	0	27.410	0	1093.077	0	12.0	4	3.7	4	-1E+10	1	-1E+10	1	-1E+10	1	-1E+10	1	-1E+10	1	-1E+10	1
4902551	110	C	09/01/2023	06:03	-131.199	47.422	0	1115.20	0	3.0340	0	34.4060	0	27.415	0	1102.941	0	12.1	4	3.8	4	-1E+10	1	-1E+10	1	-1E+10	1	-1E+10	1	-1E+10	1	-1E+10	1
4902551	110	C	09/01/2023	06:03	-131.199	47.422	0	1125.30	0	3.0160	0	34.4090	0	27.419	0	1112.903	0	12.3	4	3.8	4	-1E+10	1	-1E+10	1	-1E+10	1	-1E+10	1	-1E+10	1	-1E+10	1
4902551	110	C	09/01/2023	06:03	-131.199	47.422	0	1135.50	0	3.0020	0	34.4120	0	27.423	0	1122.964	0	12.4	4	3.8	4	-1E+10	1	-1E+10	1	-1E+10	1	-1E+10	1	-1E+10	1	-1E+10	1
4902551	110	C	09/01/2023	06:03	-131.199	47.422	0	1145.50	0	2.9840	0	34.4140	0	27.426	0	1132.826	0	12.5	4	3.9	4	-1E+10	1	-1E+10	1	-1E+10	1	-1E+10	1	-1E+10	1	-1E+10	1
4902551	110	C	09/01/2023	06:03	-131.199	47.422	0	1155.50	0	2.9710	0	34.4160	0	27.429	0	1142.689	0	12.6	4	3.9	4	-1E+10	1	-1E+10	1	-1E+10	1	-1E+10	1	-1E+10	1	-1E+10	1
4902551	110	C	09/01/2023	06:03	-131.199	47.422	0	1165.60	0	2.9500	0	34.4170	0	27.431	0	1152.649	0	12.9	4	4.0	4	-1E+10	1	-1E+10	1	-1E+10	1	-1E+10	1	-1E+10	1	-1E+10	1
4902551	110	C	09/01/2023	06:03	-131.199	47.422	0	1175.70	0	2.9290	0	34.4230	0	27.438	0	1162.609	0	13.1	4	4.0	4	-1E+10	1	-1E+10	1	-1E+10	1	-1E+10	1	-1E+10	1	-1E+10	1
4902551	110	C	09/01/2023	06:03	-131.199	47.422	0	1185.40	0	2.9460	0	34.4290	0	27.442	0	1172.174	0	13.3	4	4.1	4	-1E+10	1	-1E+10	1	-1E+10	1	-1E+10	1	-1E+10	1	-1E+10	1
4902551	110	C	09/01/2023	06:03	-131.199	47.422	0	1195.10	0	2.9460	0	34.4320	0	27.444	0	1181.738	0	13.4	4	4.1	4	-1E+10	1	-1E+10	1	-1E+10	1	-1E+10	1	-1E+10	1	-1E+10	1
4902551	110	C	09/01/2023	06:03	-131.199	47.422	0	1205.10	0	2.9340	0	34.4330	0	27.446	0	1191.598	0	13.7	4	4.2	4	-1E+10	1	-1E+10	1	-1E+10	1	-1E+10	1	-1E+10	1	-1E+10	1
4902551	110	C	09/01/2023	06:03	-131.199	47.422	0	1215.20	0	2.9140	0	34.4360	0	27.450	0	1201.556	0	13.9	4	4.3	4	-1E+10	1	-1E+10	1	-1E+10	1	-1E+10	1	-1E+10	1	-1E+10	1
4902551	110	C	09/01/2023	06:03	-131.199	47.422	0	1225.40	0	2.9010	0	34.4400	0	27.455	0	1211.612	0	14.2	4	4.4	4	-1E+10	1	-1E+10	1	-1E+10	1	-1E+10	1	-1E+10	1	-1E+10	1
4902551	110	C	09/01/2023	06:03	-131.199	47.422	0	1235.60	0	2.8850	0	34.4430	0	27.458	0	1221.668	0	14.5	4	4.5	4	-1E+10	1	-1E+10	1	-1E+10	1	-1E+10	1	-1E+10	1	-1E+10	1
4902551	110	C	09/01/2023	06:03	-131.199	47.422	0	1245.30	0	2.8620	0	34.4460	0	27.463	0	1231.230	0	14.7	4	4.5	4	-1E+10	1	-1E+10	1	-1E+10	1	-1E+10	1	-1E+10	1	-1E+10	1
4902551	110	C	09/01/2023	06:03	-131.199	47.422	0	1255.00	0	2.8360	0	34.4470	0	27.466	0	1240.792	0	14.9	4	4.6	4	-1E+10	1	-1E+10	1	-1E+10	1	-1E+10	1	-1E+10	1	-1E+10	1
4902551	110	C	09/01/2023	06:03	-131.199	47.422	0	1265.10	0	2.8210	0	34.4480	0	27.468	0	1250.748	0	15.3	4	4.7	4	-1E+10	1	-1E+10	1	-1E+10	1	-1E+10	1	-1E+10	1	-1E+10	1
4902551	110	C	09/01/2023	06:03	-131.199	47.422	0	1275.50	0	2.8140	0	34.4530	0	27.473	0	1260.999	0	15.8	4	4.9	4	-1E+10	1	-1E+10	1	-1E+10	1	-1E+10	1	-1E+10	1	-1E+10	1
4902551	110	C	09/01/2023	06:03	-131.199	47.422	0	1285.50	0	2.7840	0	34.4580	0	27.480	0	1270.855	0	16.2	4	5.0	4	-1E+10	1	-1E+10	1	-1E+10	1	-1E+10	1	-1E+10	1	-1E+10	1
4902551	110	C	09/01/2023	06:03	-131.199	47.422	0	1295.50	0	2.7630	0	34.4600	0	27.483	0	1280.710	0	16.5	4	5.1	4	-1E+10	1	-1E+10	1	-1E+10	1	-1E+10	1	-1E+10	1	-1E+10	1
4902551	110	C	09/01/2023	06:03	-131.199	47.422	0	1305.40	0	2.7480	0	34.4630	0	27.487	0	1290.467	0	16.9	4	5.2	4	-1E+10	1	-1E+10	1	-1E+10	1	-1E+10	1	-1E+10	1	-1E+10	1
4902551	110	C	09/01/2023	06:03	-131.199	47.422	0	1315.40	0	2.7320	0	34.4650	0	27.490	0	1300.322	0	17.2	4	5.3	4	-1E+10	1	-1E+10	1	-1E+10	1	-1E+10	1	-1E+10	1	-1E+10	1
4902551	110	C	09/01/2023	06:03	-131.199	47.422	0	1325.70	0	2.7190	0	34.4680	0	27.494	0	1310.472	0	17.7	4	5.4	4	-1E+10	1	-1E+10	1	-1E+10	1	-1E+10	1	-1E+10	1	-1E+10	1
4902551	110	C	09/01/2023	06:03	-131.199	47.422	0	1335.40	0	2.7060	0	34.4710	0	27.497	0	1320.030	0	18.1	4	5.5	4	-1E+10	1	-1E+10	1	-1E+10	1	-1E+10	1	-1E+10	1	-1E+10	1
4902551	110	C	09/01/2023	06:03	-131.199	47.422	0	1345.70	0	2.6870	0	34.4730	0	27.500	0	1330.179	0	18.4	4	5.6	4	-1E+10	1	-1E+10	1	-1E+10	1	-1E+10	1	-1E+10	1	-1E+10	1
4902551	110	C	09/01/2023	06:03	-131.199	47.422	0	1355.70	0	2.6740	0	34.4750	0	27.503	0	1340.032	0	18.8	4	5.8	4	-1E+10	1	-1E+10	1	-1E+10	1	-1E+10	1	-1E+10	1	-1E+10	1
4902551	110	C	09/01/2023	06:03	-131.199	47.422	0	1365.40	0	2.6640	0	34.4780	0	27.506	0	1349.589	0	19.2	4	5.9	4	-1E+10	1	-1E+10	1	-1E+10	1	-1E+10	1	-1E+10	1	-1E+10	1
4902551	110	C	09/01/2023	06:03	-131.199	47.422	0	1375.10	0	2.6560	0	34.4790	0	27.508	0	1359.145	0	19.4	4	5.9	4	-1E+10	1	-1E+10	1	-1E+10	1	-1E+10	1	-1E+10	1	-1E+10	1
4902551	110	C	09/01/2023	06:03	-131.199	47.422	0	1385.50	0	2.6470	0	34.4800	0	27.510	0	1369.391	0	19.7	4	6.0	4	-1E+10	1	-1E+10	1	-1E+10	1	-1E+10	1	-1E+10	1	-1E+10	1
4902551	110	C	09/01/2023	06:03	-131.199	47.422	0	1395.70	0	2.6350	0	34.4820	0	27.512	0	1379.439	0	20.0	4	6.1	4	-1E+10	1	-1E+10	1	-1E+10	1	-1E+10	1	-1E+10	1	-1E+10	1
4902551	110	C	09/01/2023	06:03	-131.199	47.422	0	1405.60	0	2.6250	0	34.4840	0	27.515	0	1389.191	0	20.3	4	6.2	4	-1E+10	1	-1E+10	1	-1E+10	1	-1E+10	1	-1E+10	1	-1E+10	1
4902551	110	C	09/01/2023	06:03	-131.199	47.422	0	1415.30	0	2.6130	0	34.4840	0	27.516	0	1398.745	0	20.6	4	6.3	4	-1E+10	1	-1E+10	1	-1E+10	1	-1E+10	1	-1E+10	1	-1E+10	1
4902551	110	C	09/01/2023	06:03	-131.199	47.422	0	1425.30	0	2.5930	0	34.4860	0	27.519	0	1408.595	0	21.1	4	6.4	4	-1E+10	1	-1E+10	1	-1E+10	1	-1E+10	1	-1E+10	1	-1E+10	1
4902551	110	C	09/01/2023	06:03	-131.199	47.422	0	1435.50	0	2.5720	0	34.4880	0	27.523	0	1418.641	0	21.6	4	6.6	4	-1E+10	1	-1E+10	1	-1E+10	1	-1E+10	1	-1E+10	1	-1E+10	1
4902551	110	C	09/01/2023	06:03	-131.199	47.422	0	1445.50	0	2.5500	0	34.4920	0	27.528	0	1428.490	0	22.3	4	6.8	4	-1E+10	1	-1E+10	1	-1E+10	1	-1E+10	1	-1E+10	1	-1E+10	1
4902551	110	C	09/01/2023	06:03	-131.199	47.422	0	1455.50	0	2.5330	0	34.4940	0	27.531	0	1438.338	0	22.7	4	6.9	4	-1E+10	1	-1E+10	1	-1E+10	1	-1E+10	1	-1E+10	1	-1E+10	1
4902551	110	C	09/01/2023	06:03	-131.199	47.422	0	1465.20	0	2.5150	0	34.4970	0	27.535	0	1447.891	0	23.1	4	7.0	4	-1E+10	1	-1E+10	1	-1E+10	1	-1E+10	1	-1E+10	1	-1E+10	1
4902551	110	C	09/01/2023	06:03	-131.199	47.422	0	1475.20	0	2.5100	0	34.4980	0	27.536	0	1457.738	0	23.3	4	7.1	4	-1E+10	1	-1E+10	1	-1E+10	1	-1E+10	1	-1E+10	1	-1E+10	1
4902551	110	C	09/01/2023	06:03	-131.199	47.422	0	1485.40	0	2.5010	0	34.4990	0	27.538	0	1467.782	0	23.8	4	7.3	4	-1E+10	1	-1E+10	1	-1E+10	1	-1E+10	1	-1E+10	1	-1E+10	1
4902551	110	C	09/01/2023	06:03	-131.199	47.422	0	1495.40	0	2.4850	0	34.5010	0	27.541	0	1477.628	0	24.2	4	7.4	4	-1E+10	1	-1E+10	1	-1E+10	1	-1E+10	1	-1E+10	1	-1E+10	1
4902551	110	C	09/01/2023	06:03	-131.199	47.422	0	1505.30	0	2.4640	0	34.5030	0	27.544	0	1487.376	0	24.9	4	7.6	4	-1E+10	1	-1E+10	1	-1E+10	1	-1E+10	1	-1E+10	1	-1E+10	1
4902551	110	C	09/01/2023	06:03	-131.199	47.422	0	1515.20	0	2.4440	0	34.5050	0	27.547	0	1497.123	0	25.6	4	7.8	4	-1E+10	1	-1E+10	1	-1E+10	1	-1E+10	1	-1E+10	1	-1E+10	1
4902551	110	C	09/01/2023	06:03	-131.199	47.422	0	1525.40	0	2.4170	0	34.5090	0	27.553	0	1507.165	0	26.3	4	8.0	4	-1E+10	1	-1E+10	1	-1E+10	1	-1E+10	1	-1E+10	1	-1E+10	1
4902551	110	C	09/01/2023	06:03	-131.199	47.422	0	1535.20	0	2.3820	0	34.5110	0	27.557	0	1516.813	0	26.8	4	8.2	4	-1E+10	1	-1E+10	1	-1E+10	1	-1E+10	1	-1E+10	1	-1E+10	1
4902551	110	C	09/01/2023	06:03	-131.199	47.422	0	1545.60	0	2.3530	0	34.5140	0	27.562	0	1527.051	0	27.3	4	8.3	4	-1E+10	1	-1E+10	1	-1E+10	1	-1E+10	1	-1E+10	1	-1E+10	1
4902551	110	C	09/01/2023	06:03	-131.199	47.422	0	1555.40	0	2.3520	0	34.5150	0	27.563	0	1536.697	0	27.6	4	8.4	4	-1E+10	1	-1E+10	1	-1E+10	1	-1E+10	1	-1E+10	1	-1E+10	1
4902551	110	C	09/01/2023	06:03	-131.199	47.422	0	1565.30	0	2.3490	0	34.5150	0	27.564	0	1546.442	0	27.8	4	8.4	4	-1E+10	1	-1E+10	1	-1E+10	1	-1E+10	1	-1E+10	1	-1E+10	1
4902551	110	C	09/01/2023	06:03	-131.199	47.422	0	1575.60	0	2.3420	0	34.5160	0	27.565	0	1556.580	0	28.1	4	8.6	4	-1E+10	1	-1E+10	1	-1E+10	1	-1E+10	1	-1E+10	1	-1E+10	1
4902551	110	C	09/01/2023	06:03	-131.199	47.422	0	1585.30	0	2.3350	0	34.5170	0	27.566	0	1566.127	0	28.6	4	8.7	4	-1E+10	1	-1E+10	1	-1E+10	1	-1E+10	1	-1E+10	1	-1E+10	1
4902551	110	C	09/01/2023	06:03	-131.199	47.422	0	1595.10	0	2.3290	0	34.5190	0	27.569	0	1575.772	0	28.9	4	8.8	4	-1E+10	1	-1E+10	1	-1E+10	1	-1E+10	1	-1E+10	1	-1E+10	1
4902551	110	C	09/01/2023	06:03	-131.199	47.422	0	1605.30	0	2.3190	0	34.5200	0	27.570	0	1585.811	0	29.4	4	8.9	4	-1E+10	1	-1E+10	1	-1E+10	1	-1E+10	1	-1E+10	1	-1E+10	1
4902551	110	C	09/01/2023	06:03	-131.199	47.422	0	1615.60	0	2.3140	0	34.5210	0	27.572	0	1595.947	0	29.9	4	9.1	4	-1E+10	1	-1E+10	1	-1E+10	1	-1E+10	1	-1E+10	1	-1E+10	1
4902551	110	C	09/01/2023	06:03	-131.199	47.422	0	1625.50	0	2.3050	0	34.5230	0	27.574	0	1605.689	0	30.6	4	9.3	4	-1E+10	1	-1E+10	1	-1E+10	1	-1E+10	1	-1E+10	1	-1E+10	1
4902551	110	C	09/01/2023	06:03	-131.199	47.422	0	1635.40	0	2.2890	0	34.5250	0	27.577	0	1615.430	0	31.4	4	9.5	4	-1E+10	1	-1E+10	1	-1E+10	1	-1E+10	1	-1E+10	1	-1E+10	1
4902551	110	C	09/01/2023	06:03	-131.199	47.422	0	1645.30	0	2.2670	0	34.5290	0	27.582	0	1625.172	0	32.2	4	9.8	4	-1E+10	1	-1E+10	1	-1E+10	1	-1E+10	1	-1E+10	1	-1E+10	1
4902551	110	C	09/01/2023	06:03	-131.199	47.422	0	1655.30	0	2.2580	0	34.5300	0	27.583	0	1635.011	0	32.9	4	10.0	4	-1E+10	1	-1E+10	1	-1E+10	1	-1E+10	1	-1E+10	1	-1E+10	1
4902551	110	C	09/01/2023	06:03	-131.199	47.422	0	1665.70	0	2.2450	0	34.5330	0	27.587	0	1645.243	0	33.9	4	10.3	4	-1E+10	1	-1E+10	1	-1E+10	1	-1E+10	1	-1E+10	1	-1E+10	1
4902551	110	C	09/01/2023	06:03	-131.199	47.422	0	1675.50	0	2.2360	0	34.5360	0	27.590	0	1654.884	0	35.4	4	10.7	4	-1E+10	1	-1E+10	1	-1E+10	1	-1E+10	1	-1E+10	1	-1E+10	1
4902551	110	C	09/01/2023	06:03	-131.199	47.422	0	1685.30	0	2.2280	0	34.5400	0	27.594	0	1664.525	0	36.5	4	11.1	4	-1E+10	1	-1E+10	1	-1E+10	1	-1E+10	1	-1E+10	1	-1E+10	1
4902551	110	C	09/01/2023	06:03	-131.199	47.422	0	1695.40	0	2.2080	0	34.5440	0	27.599	0	1674.461	0	37.9	4	11.5	4	-1E+10	1	-1E+10	1	-1E+10	1	-1E+10	1	-1E+10	1	-1E+10	1
4902551	110	C	09/01/2023	06:03	-131.199	47.422	0	1705.40	0	2.1890	0	34.5460	0	27.602	0	1684.298	0	38.7	4	11.7	4	-1E+10	1	-1E+10	1	-1E+10	1	-1E+10	1	-1E+10	1	-1E+10	1
4902551	110	C	09/01/2023	06:03	-131.199	47.422	0	1715.30	0	2.1780	0	34.5480	0	27.605	0	1694.036	0	39.7	4	12.0	4	-1E+10	1	-1E+10	1	-1E+10	1	-1E+10	1	-1E+10	1	-1E+10	1
4902551	110	C	09/01/2023	06:03	-131.199	47.422	0	1725.40	0	2.1570	0	34.5510	0	27.609	0	1703.970	0	40.5	4	12.3	4	-1E+10	1	-1E+10	1	-1E+10	1	-1E+10	1	-1E+10	1	-1E+10	1
4902551	110	C	09/01/2023	06:03	-131.199	47.422	0	1735.80	0	2.1500	0	34.5520	0	27.610	0	1714.199	0	41.1	4	12.4	4	-1E+10	1	-1E+10	1	-1E+10	1	-1E+10	1	-1E+10	1	-1E+10	1
4902551	110	C	09/01/2023	06:03	-131.199	47.422	0	1745.50	0	2.1330	0	34.5540	0	27.613	0	1723.739	0	42.5	4	12.8	4	-1E+10	1	-1E+10	1	-1E+10	1	-1E+10	1	-1E+10	1	-1E+10	1
4902551	110	C	09/01/2023	06:03	-131.199	47.422	0	1755.60	0	2.1010	0	34.5580	0	27.619	0	1733.671	0	43.5	4	13.1	4	-1E+10	1	-1E+10	1	-1E+10	1	-1E+10	1	-1E+10	1	-1E+10	1
4902551	110	C	09/01/2023	06:03	-131.199	47.422	0	1765.30	0	2.0950	0	34.5590	0	27.620	0	1743.211	0	44.2	4	13.3	4	-1E+10	1	-1E+10	1	-1E+10	1	-1E+10	1	-1E+10	1	-1E+10	1
4902551	110	C	09/01/2023	06:03	-131.199	47.422	0	1774.90	0	2.0800	0	34.5610	0	27.623	0	1752.651	0	45.2	4	13.7	4	-1E+10	1	-1E+10	1	-1E+10	1	-1E+10	1	-1E+10	1	-1E+10	1
4902551	110	C	09/01/2023	06:03	-131.199	47.422	0	1785.40	0	2.0650	0	34.5630	0	27.626	0	1762.976	0	46.3	4	14.0	4	-1E+10	1	-1E+10	1	-1E+10	1	-1E+10	1	-1E+10	1	-1E+10	1
4902551	110	C	09/01/2023	06:03	-131.199	47.422	0	1795.50	0	2.0490	0	34.5660	0	27.630	0	1772.907	0	47.6	4	14.4	4	-1E+10	1	-1E+10	1	-1E+10	1	-1E+10	1	-1E+10	1	-1E+10	1
4902551	110	C	09/01/2023	06:03	-131.199	47.422	0	1805.50	0	2.0250	0	34.5700	0	27.635	0	1782.739	0	49.1	4	14.8	4	-1E+10	1	-1E+10	1	-1E+10	1	-1E+10	1	-1E+10	1	-1E+10	1
4902551	110	C	09/01/2023	06:03	-131.199	47.422	0	1815.30	0	2.0100	0	34.5730	0	27.638	0	1792.374	0	49.8	4	15.0	4	-1E+10	1	-1E+10	1	-1E+10	1	-1E+10	1	-1E+10	1	-1E+10	1
4902551	110	C	09/01/2023	06:03	-131.199	47.422	0	1825.40	0	2.0040	0	34.5740	0	27.640	0	1802.304	0	50.5	4	15.2	4	-1E+10	1	-1E+10	1	-1E+10	1	-1E+10	1	-1E+10	1	-1E+10	1
4902551	110	C	09/01/2023	06:03	-131.199	47.422	0	1835.70	0	1.9940	0	34.5750	0	27.641	0	1812.429	0	51.6	4	15.5	4	-1E+10	1	-1E+10	1	-1E+10	1	-1E+10	1	-1E+10	1	-1E+10	1
4902551	110	C	09/01/2023	06:03	-131.199	47.422	0	1845.30	0	1.9800	0	34.5780	0	27.645	0	1821.867	0	52.8	4	15.9	4	-1E+10	1	-1E+10	1	-1E+10	1	-1E+10	1	-1E+10	1	-1E+10	1
4902551	110	C	09/01/2023	06:03	-131.199	47.422	0	1855.50	0	1.9590	0	34.5810	0	27.649	0	1831.893	0	53.7	4	16.2	4	-1E+10	1	-1E+10	1	-1E+10	1	-1E+10	1	-1E+10	1	-1E+10	1
4902551	110	C	09/01/2023	06:03	-131.199	47.422	0	1865.40	0	1.9540	0	34.5820	0	27.650	0	1841.624	0	54.2	4	16.3	4	-1E+10	1	-1E+10	1	-1E+10	1	-1E+10	1	-1E+10	1	-1E+10	1
4902551	110	C	09/01/2023	06:03	-131.199	47.422	0	1875.40	0	1.9470	0	34.5830	0	27.652	0	1851.453	0	54.5	4	16.4	4	-1E+10	1	-1E+10	1	-1E+10	1	-1E+10	1	-1E+10	1	-1E+10	1
4902551	110	C	09/01/2023	06:03	-131.199	47.422	0	1885.50	0	1.9430	0	34.5840	0	27.653	0	1861.380	0	54.9	4	16.5	4	-1E+10	1	-1E+10	1	-1E+10	1	-1E+10	1	-1E+10	1	-1E+10	1
4902551	110	C	09/01/2023	06:03	-131.199	47.422	0	1895.70	0	1.9390	0	34.5850	0	27.654	0	1871.405	0	55.0	4	16.6	4	-1E+10	1	-1E+10	1	-1E+10	1	-1E+10	1	-1E+10	1	-1E+10	1
4902551	110	C	09/01/2023	06:03	-131.199	47.422	0	1905.40	0	1.9390	0	34.5850	0	27.654	0	1880.938	0	55.0	4	16.6	4	-1E+10	1	-1E+10	1	-1E+10	1	-1E+10	1	-1E+10	1	-1E+10	1
4902551	110	C	09/01/2023	06:03	-131.199	47.422	0	1915.70	0	1.9420	0	34.5850	0	27.654	0	1891.060	0	54.9	4	16.5	4	-1E+10	1	-1E+10	1	-1E+10	1	-1E+10	1	-1E+10	1	-1E+10	1
4902551	110	C	09/01/2023	06:03	-131.199	47.422	0	1925.80	0	1.9430	0	34.5850	0	27.654	0	1900.985	0	54.9	4	16.5	4	-1E+10	1	-1E+10	1	-1E+10	1	-1E+10	1	-1E+10	1	-1E+10	1
4902551	110	C	09/01/2023	06:03	-131.199	47.422	0	1935.20	0	1.9440	0	34.5850	0	27.654	0	1910.222	0	54.9	4	16.5	4	-1E+10	1	-1E+10	1	-1E+10	1	-1E+10	1	-1E+10	1	-1E+10	1
4902551	110	C	09/01/2023	06:03	-131.199	47.422	0	1945.20	0	1.9440	0	34.5850	0	27.654	0	1920.047	0	54.9	4	16.5	4	-1E+10	1	-1E+10	1	-1E+10	1	-1E+10	1	-1E+10	1	-1E+10	1
4902551	110	C	09/01/2023	06:03	-131.199	47.422	0	1955.50	0	1.9420	0	34.5850	0	27.654	0	1930.168	0	55.2	4	16.6	4	-1E+10	1	-1E+10	1	-1E+10	1	-1E+10	1	-1E+10	1	-1E+10	1
4902551	110	C	09/01/2023	06:03	-131.199	47.422	0	1965.60	0	1.9340	0	34.5860	0	27.655	0	1940.091	0	55.8	4	16.8	4	-1E+10	1	-1E+10	1	-1E+10	1	-1E+10	1	-1E+10	1	-1E+10	1
4902551	110	C	09/01/2023	06:03	-131.199	47.422	0	1975.50	0	1.9270	0	34.5880	0	27.658	0	1949.817	0	56.3	4	17.0	4	-1E+10	1	-1E+10	1	-1E+10	1	-1E+10	1	-1E+10	1	-1E+10	1
4902551	110	C	09/01/2023	06:03	-131.199	47.422	0	1985.40	0	1.9240	0	34.5880	0	27.658	0	1959.543	0	56.6	4	17.0	4	-1E+10	1	-1E+10	1	-1E+10	1	-1E+10	1	-1E+10	1	-1E+10	1
4902551	110	C	09/01/2023	06:03	-131.199	47.422	0	1995.60	0	1.9230	0	34.5880	0	27.658	0	1969.563	0	57.2	4	17.2	4	-1E+10	1	-1E+10	1	-1E+10	1	-1E+10	1	-1E+10	1	-1E+10	1
4902551	110	C	09/01/2023	06:03	-131.199	47.422	0	2005.80	0	1.9180	0	34.5900	0	27.660	0	1979.583	0	57.9	4	17.4	4	-1E+10	1	-1E+10	1	-1E+10	1	-1E+10	1	-1E+10	1	-1E+10	1
4902551	110	C	09/01/2023	06:03	-131.199	47.422	0	2015.60	0	1.9090	0	34.5910	0	27.662	0	1989.209	0	58.0	4	17.5	4	-1E+10	1	-1E+10	1	-1E+10	1	-1E+10	1	-1E+10	1	-1E+10	1
4902551	110	C	09/01/2023	06:03	-131.199	47.422	0																										
4902551	111	C	09/11/2023	11:11	-131.190	47.338	0	0.00	0	17.6690	0	32.2260	0	23.229	0	0.000	0	234.1	4	97.6	4	-1E+10	1	-1E+10	1	-1E+10	1	-1E+10	1	-1E+10	1	-1E+10	1
4902551	111	C	09/11/2023	11:11	-131.190	47.338	0	0.10	0	17.6670	0	32.2270	0	23.231	0	0.099	0	-1e10	1	-1e10	1	-1E+10	1	-1E+10	1	-1E+10	1	-1E+10	1	-1E+10	1	-1E+10	1
4902551	111	C	09/11/2023	11:11	-131.190	47.338	0	0.30	0	17.6700	0	32.2120	0	23.218	0	0.298	0	229.1	4	95.5	4	-1E+10	1	-1E+10	1	-1E+10	1	-1E+10	1	-1E+10	1	-1E+10	1
4902551	111	C	09/11/2023	11:11	-131.190	47.338	0	0.90	0	17.6690	0	32.2190	0	23.224	0	0.893	0	229.1	4	95.5	4	-1E+10	1	-1E+10	1	-1E+10	1	-1E+10	1	-1E+10	1	-1E+10	1
4902551	111	C	09/11/2023	11:11	-131.190	47.338	0	1.80	0	17.6690	0	32.2280	0	23.231	0	1.785	0	229.2	4	95.5	4	-1E+10	1	-1E+10	1	-1E+10	1	-1E+10	1	-1E+10	1	-1E+10	1
4902551	111	C	09/11/2023	11:11	-131.190	47.338	0	2.70	0	17.6690	0	32.2290	0	23.232	0	2.677	0	229.2	4	95.5	4	-1E+10	1	-1E+10	1	-1E+10	1	-1E+10	1	-1E+10	1	-1E+10	1
4902551	111	C	09/11/2023	11:11	-131.190	47.338	0	3.70	0	17.6710	0	32.2300	0	23.232	0	3.669	0	229.3	4	95.6	4	-1E+10	1	-1E+10	1	-1E+10	1	-1E+10	1	-1E+10	1	-1E+10	1
4902551	111	C	09/11/2023	11:11	-131.190	47.338	0	4.80	0	17.6730	0	32.2300	0	23.232	0	4.760	0	229.4	4	95.6	4	-1E+10	1	-1E+10	1	-1E+10	1	-1E+10	1	-1E+10	1	-1E+10	1
4902551	111	C	09/11/2023	11:11	-131.190	47.338	0	5.90	0	17.6710	0	32.2310	0	23.233	0	5.851	0	229.4	4	95.6	4	-1E+10	1	-1E+10	1	-1E+10	1	-1E+10	1	-1E+10	1	-1E+10	1
4902551	111	C	09/11/2023	11:11	-131.190	47.338	0	7.00	0	17.6730	0	32.2300	0	23.232	0	6.942	0	229.4	4	95.7	4	-1E+10	1	-1E+10	1	-1E+10	1	-1E+10	1	-1E+10	1	-1E+10	1
4902551	111	C	09/11/2023	11:11	-131.190	47.338	0	8.10	0	17.6730	0	32.2310	0	23.233	0	8.032	0	229.6	4	95.7	4	-1E+10	1	-1E+10	1	-1E+10	1	-1E+10	1	-1E+10	1	-1E+10	1
4902551	111	C	09/11/2023	11:11	-131.190	47.338	0	9.00	0	17.6730	0	32.2310	0	23.233	0	8.925	0	229.6	4	95.7	4	-1E+10	1	-1E+10	1	-1E+10	1	-1E+10	1	-1E+10	1	-1E+10	1
4902551	111	C	09/11/2023	11:11	-131.190	47.338	0	10.00	0	17.6730	0	32.2310	0	23.233	0	9.916	0	229.8	4	95.8	4	-1E+10	1	-1E+10	1	-1E+10	1	-1E+10	1	-1E+10	1	-1E+10	1
4902551	111	C	09/11/2023	11:11	-131.190	47.338	0	11.00	0	17.6730	0	32.2310	0	23.233	0	10.908	0	230.0	4	95.9	4	-1E+10	1	-1E+10	1	-1E+10	1	-1E+10	1	-1E+10	1	-1E+10	1
4902551	111	C	09/11/2023	11:11	-131.190	47.338	0	11.80	0	17.6730	0	32.2310	0	23.233	0	11.701	0	230.0	4	95.9	4	-1E+10	1	-1E+10	1	-1E+10	1	-1E+10	1	-1E+10	1	-1E+10	1
4902551	111	C	09/11/2023	11:11	-131.190	47.338	0	12.90	0	17.6730	0	32.2310	0	23.233	0	12.792	0	230.3	4	96.0	4	-1E+10	1	-1E+10	1	-1E+10	1	-1E+10	1	-1E+10	1	-1E+10	1
4902551	111	C	09/11/2023	11:11	-131.190	47.338	0	14.10	0	17.6720	0	32.2310	0	23.233	0	13.982	0	230.5	4	96.1	4	-1E+10	1	-1E+10	1	-1E+10	1	-1E+10	1	-1E+10	1	-1E+10	1
4902551	111	C	09/11/2023	11:11	-131.190	47.338	0	14.80	0	17.6720	0	32.2310	0	23.233	0	14.676	0	230.6	4	96.1	4	-1E+10	1	-1E+10	1	-1E+10	1	-1E+10	1	-1E+10	1	-1E+10	1
4902551	111	C	09/11/2023	11:11	-131.190	47.338	0	15.90	0	17.6730	0	32.2310	0	23.233	0	15.767	0	230.9	4	96.2	4	-1E+10	1	-1E+10	1	-1E+10	1	-1E+10	1	-1E+10	1	-1E+10	1
4902551	111	C	09/11/2023	11:11	-131.190	47.338	0	16.90	0	17.6710	0	32.2320	0	23.234	0	16.759	0	231.0	4	96.3	4	-1E+10	1	-1E+10	1	-1E+10	1	-1E+10	1	-1E+10	1	-1E+10	1
4902551	111	C	09/11/2023	11:11	-131.190	47.338	0	17.90	0	17.6710	0	32.2310	0	23.233	0	17.750	0	231.4	4	96.5	4	-1E+10	1	-1E+10	1	-1E+10	1	-1E+10	1	-1E+10	1	-1E+10	1
4902551	111	C	09/11/2023	11:11	-131.190	47.338	0	19.10	0	17.6710	0	32.2310	0	23.233	0	18.940	0	231.7	4	96.6	4	-1E+10	1	-1E+10	1	-1E+10	1	-1E+10	1	-1E+10	1	-1E+10	1
4902551	111	C	09/11/2023	11:11	-131.190	47.338	0	20.00	0	17.6730	0	32.2310	0	23.233	0	19.832	0	232.2	4	96.8	4	-1E+10	1	-1E+10	1	-1E+10	1	-1E+10	1	-1E+10	1	-1E+10	1
4902551	111	C	09/11/2023	11:11	-131.190	47.338	0	20.70	0	17.6720	0	32.2310	0	23.233	0	20.527	0	232.6	4	97.0	4	-1E+10	1	-1E+10	1	-1E+10	1	-1E+10	1	-1E+10	1	-1E+10	1
4902551	111	C	09/11/2023	11:11	-131.190	47.338	0	21.90	0	17.6730	0	32.2310	0	23.233	0	21.716	0	233.9	4	97.5	4	-1E+10	1	-1E+10	1	-1E+10	1	-1E+10	1	-1E+10	1	-1E+10	1
4902551	111	C	09/11/2023	11:11	-131.190	47.338	0	23.30	0	17.6750	0	32.2310	0	23.233	0	23.105	0	235.7	4	98.3	4	-1E+10	1	-1E+10	1	-1E+10	1	-1E+10	1	-1E+10	1	-1E+10	1
4902551	111	C	09/11/2023	11:11	-131.190	47.338	0	24.10	0	17.6750	0	32.2310	0	23.233	0	23.898	0	237.5	4	99.0	4	-1E+10	1	-1E+10	1	-1E+10	1	-1E+10	1	-1E+10	1	-1E+10	1
4902551	111	C	09/11/2023	11:11	-131.190	47.338	0	24.90	0	17.6740	0	32.2310	0	23.233	0	24.691	0	239.7	4	100.0	4	-1E+10	1	-1E+10	1	-1E+10	1	-1E+10	1	-1E+10	1	-1E+10	1
4902551	111	C	09/11/2023	11:11	-131.190	47.338	0	26.20	0	17.6730	0	32.2290	0	23.232	0	25.980	0	244.1	4	101.8	4	-1E+10	1	-1E+10	1	-1E+10	1	-1E+10	1	-1E+10	1	-1E+10	1
4902551	111	C	09/11/2023	11:11	-131.190	47.338	0	26.90	0	17.6660	0	32.2290	0	23.233	0	26.674	0	247.6	4	103.2	4	-1E+10	1	-1E+10	1	-1E+10	1	-1E+10	1	-1E+10	1	-1E+10	1
4902551	111	C	09/11/2023	11:11	-131.190	47.338	0	28.10	0	17.6500	0	32.2240	0	23.233	0	27.864	0	254.6	4	106.1	4	-1E+10	1	-1E+10	1	-1E+10	1	-1E+10	1	-1E+10	1	-1E+10	1
4902551	111	C	09/11/2023	11:11	-131.190	47.338	0	28.90	0	17.4650	0	32.2340	0	23.285	0	28.657	0	263.7	4	109.5	4	-1E+10	1	-1E+10	1	-1E+10	1	-1E+10	1	-1E+10	1	-1E+10	1
4902551	111	C	09/11/2023	11:11	-131.190	47.338	0	30.00	0	16.5100	0	32.3180	0	23.572	0	29.748	0	279.9	4	114.2	4	-1E+10	1	-1E+10	1	-1E+10	1	-1E+10	1	-1E+10	1	-1E+10	1
4902551	111	C	09/11/2023	11:11	-131.190	47.338	0	31.00	0	14.5670	0	32.3320	0	24.010	0	30.739	0	291.0	4	114.3	4	-1E+10	1	-1E+10	1	-1E+10	1	-1E+10	1	-1E+10	1	-1E+10	1
4902551	111	C	09/11/2023	11:11	-131.190	47.338	0	32.10	0	12.9920	0	32.4020	0	24.384	0	31.830	0	295.5	4	112.5	4	-1E+10	1	-1E+10	1	-1E+10	1	-1E+10	1	-1E+10	1	-1E+10	1
4902551	111	C	09/11/2023	11:11	-131.190	47.338	0	32.90	0	12.6810	0	32.3680	0	24.418	0	32.623	0	295.0	4	111.6	4	-1E+10	1	-1E+10	1	-1E+10	1	-1E+10	1	-1E+10	1	-1E+10	1
4902551	111	C	09/11/2023	11:11	-131.190	47.338	0	34.20	0	12.5070	0	32.3600	0	24.445	0	33.912	0	294.0	4	110.8	4	-1E+10	1	-1E+10	1	-1E+10	1	-1E+10	1	-1E+10	1	-1E+10	1
4902551	111	C	09/11/2023	11:11	-131.190	47.338	0	34.90	0	12.4030	0	32.3690	0	24.472	0	34.606	0	293.4	4	110.3	4	-1E+10	1	-1E+10	1	-1E+10	1	-1E+10	1	-1E+10	1	-1E+10	1
4902551	111	C	09/11/2023	11:11	-131.190	47.338	0	36.10	0	12.0250	0	32.3700	0	24.544	0	35.796	0	293.3	4	109.4	4	-1E+10	1	-1E+10	1	-1E+10	1	-1E+10	1	-1E+10	1	-1E+10	1
4902551	111	C	09/11/2023	11:11	-131.190	47.338	0	37.00	0	11.8740	0	32.3430	0	24.551	0	36.688	0	293.0	4	109.0	4	-1E+10	1	-1E+10	1	-1E+10	1	-1E+10	1	-1E+10	1	-1E+10	1
4902551	111	C	09/11/2023	11:11	-131.190	47.338	0	37.80	0	11.7990	0	32.3450	0	24.566	0	37.482	0	292.7	4	108.7	4	-1E+10	1	-1E+10	1	-1E+10	1	-1E+10	1	-1E+10	1	-1E+10	1
4902551	111	C	09/11/2023	11:11	-131.190	47.338	0	38.90	0	11.6980	0	32.3420	0	24.583	0	38.572	0	292.1	4	108.2	4	-1E+10	1	-1E+10	1	-1E+10	1	-1E+10	1	-1E+10	1	-1E+10	1
4902551	111	C	09/11/2023	11:11	-131.190	47.338	0	40.10	0	11.4670	0	32.3550	0	24.635	0	39.762	0	291.7	4	107.5	4	-1E+10	1	-1E+10	1	-1E+10	1	-1E+10	1	-1E+10	1	-1E+10	1
4902551	111	C	09/11/2023	11:11	-131.190	47.338	0	40.90	0	11.3330	0	32.3460	0	24.652	0	40.555	0	291.7	4	107.2	4	-1E+10	1	-1E+10	1	-1E+10	1	-1E+10	1	-1E+10	1	-1E+10	1
4902551	111	C	09/11/2023	11:11	-131.190	47.338	0	41.70	0	11.0810	0	32.3670	0	24.713	0	41.348	0	291.4	4	106.6	4	-1E+10	1	-1E+10	1	-1E+10	1	-1E+10	1	-1E+10	1	-1E+10	1
4902551	111	C	09/11/2023	11:11	-131.190	47.338	0	42.70	0	10.9510	0	32.3590	0	24.730	0	42.340	0	290.2	4	105.8	4	-1E+10	1	-1E+10	1	-1E+10	1	-1E+10	1	-1E+10	1	-1E+10	1
4902551	111	C	09/11/2023	11:11	-131.190	47.338	0	44.10	0	10.6810	0	32.3530	0	24.772	0	43.728	0	289.1	4	104.8	4	-1E+10	1	-1E+10	1	-1E+10	1	-1E+10	1	-1E+10	1	-1E+10	1
4902551	111	C	09/11/2023	11:11	-131.190	47.338	0	45.20	0	10.4470	0	32.3550	0	24.813	0	44.819	0	288.6	4	104.1	4	-1E+10	1	-1E+10	1	-1E+10	1	-1E+10	1	-1E+10	1	-1E+10	1
4902551	111	C	09/11/2023	11:11	-131.190	47.338	0	46.10	0	10.3500	0	32.3450	0	24.822	0	45.711	0	288.3	4	103.8	4	-1E+10	1	-1E+10	1	-1E+10	1	-1E+10	1	-1E+10	1	-1E+10	1
4902551	111	C	09/11/2023	11:11	-131.190	47.338	0	47.00	0	10.2410	0	32.3410	0	24.837	0	46.603	0	287.2	4	103.1	4	-1E+10	1	-1E+10	1	-1E+10	1	-1E+10	1	-1E+10	1	-1E+10	1
4902551	111	C	09/11/2023	11:11	-131.190	47.338	0	48.10	0	9.9760	0	32.3400	0	24.881	0	47.694	0	286.6	4	102.3	4	-1E+10	1	-1E+10	1	-1E+10	1	-1E+10	1	-1E+10	1	-1E+10	1
4902551	111	C	09/11/2023	11:11	-131.190	47.338	0	49.10	0	9.6990	0	32.3520	0	24.935	0	48.685	0	286.3	4	101.6	4	-1E+10	1	-1E+10	1	-1E+10	1	-1E+10	1	-1E+10	1	-1E+10	1
4902551	111	C	09/11/2023	11:11	-131.190	47.338	0	50.10	0	9.5490	0	32.3460	0	24.955	0	49.677	0	286.1	4	101.2	4	-1E+10	1	-1E+10	1	-1E+10	1	-1E+10	1	-1E+10	1	-1E+10	1
4902551	111	C	09/11/2023	11:11	-131.190	47.338	0	51.20	0	9.4960	0	32.3430	0	24.961	0	50.767	0	285.3	4	100.8	4	-1E+10	1	-1E+10	1	-1E+10	1	-1E+10	1	-1E+10	1	-1E+10	1
4902551	111	C	09/11/2023	11:11	-131.190	47.338	0	51.90	0	9.4410	0	32.3470	0	24.973	0	51.461	0	284.8	4	100.5	4	-1E+10	1	-1E+10	1	-1E+10	1	-1E+10	1	-1E+10	1	-1E+10	1
4902551	111	C	09/11/2023	11:11	-131.190	47.338	0	52.90	0	9.3500	0	32.3410	0	24.983	0	52.453	0	284.1	4	100.1	4	-1E+10	1	-1E+10	1	-1E+10	1	-1E+10	1	-1E+10	1	-1E+10	1
4902551	111	C	09/11/2023	11:11	-131.190	47.338	0	53.90	0	9.1740	0	32.3470	0	25.015	0	53.444	0	283.7	4	99.5	4	-1E+10	1	-1E+10	1	-1E+10	1	-1E+10	1	-1E+10	1	-1E+10	1
4902551	111	C	09/11/2023	11:11	-131.190	47.338	0	54.90	0	9.0950	0	32.3490	0	25.029	0	54.435	0	283.0	4	99.1	4	-1E+10	1	-1E+10	1	-1E+10	1	-1E+10	1	-1E+10	1	-1E+10	1
4902551	111	C	09/11/2023	11:11	-131.190	47.338	0	56.00	0	8.9690	0	32.3500	0	25.050	0	55.526	0	282.4	4	98.6	4	-1E+10	1	-1E+10	1	-1E+10	1	-1E+10	1	-1E+10	1	-1E+10	1
4902551	111	C	09/11/2023	11:11	-131.190	47.338	0	57.00	0	8.7990	0	32.3710	0	25.092	0	56.517	0	281.7	4	98.0	4	-1E+10	1	-1E+10	1	-1E+10	1	-1E+10	1	-1E+10	1	-1E+10	1
4902551	111	C	09/11/2023	11:11	-131.190	47.338	0	57.90	0	8.7390	0	32.3710	0	25.101	0	57.410	0	281.1	4	97.7	4	-1E+10	1	-1E+10	1	-1E+10	1	-1E+10	1	-1E+10	1	-1E+10	1
4902551	111	C	09/11/2023	11:11	-131.190	47.338	0	58.70	0	8.7320	0	32.3700	0	25.102	0	58.203	0	280.3	4	97.4	4	-1E+10	1	-1E+10	1	-1E+10	1	-1E+10	1	-1E+10	1	-1E+10	1
4902551	111	C	09/11/2023	11:11	-131.190	47.338	0	59.90	0	8.7100	0	32.3700	0	25.105	0	59.392	0	279.2	4	97.0	4	-1E+10	1	-1E+10	1	-1E+10	1	-1E+10	1	-1E+10	1	-1E+10	1
4902551	111	C	09/11/2023	11:11	-131.190	47.338	0	61.10	0	8.6460	0	32.3780	0	25.121	0	60.582	0	278.5	4	96.6	4	-1E+10	1	-1E+10	1	-1E+10	1	-1E+10	1	-1E+10	1	-1E+10	1
4902551	111	C	09/11/2023	11:11	-131.190	47.338	0	62.00	0	8.6160	0	32.3730	0	25.122	0	61.474	0	277.8	4	96.3	4	-1E+10	1	-1E+10	1	-1E+10	1	-1E+10	1	-1E+10	1	-1E+10	1
4902551	111	C	09/11/2023	11:11	-131.190	47.338	0	62.90	0	8.5990	0	32.3750	0	25.126	0	62.366	0	276.7	4	95.9	4	-1E+10	1	-1E+10	1	-1E+10	1	-1E+10	1	-1E+10	1	-1E+10	1
4902551	111	C	09/11/2023	11:11	-131.190	47.338	0	63.90	0	8.5750	0	32.3720	0	25.127	0	63.358	0	275.8	4	95.5	4	-1E+10	1	-1E+10	1	-1E+10	1	-1E+10	1	-1E+10	1	-1E+10	1
4902551	111	C	09/11/2023	11:11	-131.190	47.338	0	64.80	0	8.5020	0	32.3740	0	25.140	0	64.250	0	274.9	4	95.0	4	-1E+10	1	-1E+10	1	-1E+10	1	-1E+10	1	-1E+10	1	-1E+10	1
4902551	111	C	09/11/2023	11:11	-131.190	47.338	0	65.90	0	8.4900	0	32.3770	0	25.144	0	65.341	0	273.7	4	94.6	4	-1E+10	1	-1E+10	1	-1E+10	1	-1E+10	1	-1E+10	1	-1E+10	1
4902551	111	C	09/11/2023	11:11	-131.190	47.338	0	66.80	0	8.4690	0	32.3890	0	25.156	0	66.233	0	272.9	4	94.3	4	-1E+10	1	-1E+10	1	-1E+10	1	-1E+10	1	-1E+10	1	-1E+10	1
4902551	111	C	09/11/2023	11:11	-131.190	47.338	0	67.90	0	8.4550	0	32.3940	0	25.162	0	67.323	0	272.1	4	94.0	4	-1E+10	1	-1E+10	1	-1E+10	1	-1E+10	1	-1E+10	1	-1E+10	1
4902551	111	C	09/11/2023	11:11	-131.190	47.338	0	68.90	0	8.4190	0	32.3970	0	25.170	0	68.315	0	271.5	4	93.7	4	-1E+10	1	-1E+10	1	-1E+10	1	-1E+10	1	-1E+10	1	-1E+10	1
4902551	111	C	09/11/2023	11:11	-131.190	47.338	0	70.00	0	8.3940	0	32.3960	0	25.173	0	69.405	0	271.1	4	93.5	4	-1E+10	1	-1E+10	1	-1E+10	1	-1E+10	1	-1E+10	1	-1E+10	1
4902551	111	C	09/11/2023	11:11	-131.190	47.338	0	70.90	0	8.3410	0	32.3970	0	25.182	0	70.297	0	271.0	4	93.4	4	-1E+10	1	-1E+10	1	-1E+10	1	-1E+10	1	-1E+10	1	-1E+10	1
4902551	111	C	09/11/2023	11:11	-131.190	47.338	0	72.00	0	8.2980	0	32.3960	0	25.187	0	71.388	0	270.9	4	93.3	4	-1E+10	1	-1E+10	1	-1E+10	1	-1E+10	1	-1E+10	1	-1E+10	1
4902551	111	C	09/11/2023	11:11	-131.190	47.338	0	72.90	0	8.2330	0	32.3990	0	25.199	0	72.280	0	270.6	4	93.0	4	-1E+10	1	-1E+10	1	-1E+10	1	-1E+10	1	-1E+10	1	-1E+10	1
4902551	111	C	09/11/2023	11:11	-131.190	47.338	0	74.00	0	8.1750	0	32.3880	0	25.199	0	73.370	0	270.4	4	92.9	4	-1E+10	1	-1E+10	1	-1E+10	1	-1E+10	1	-1E+10	1	-1E+10	1
4902551	111	C	09/11/2023	11:11	-131.190	47.338	0	75.00	0	8.1000	0	32.3880	0	25.210	0	74.362	0	270.2	4	92.6	4	-1E+10	1	-1E+10	1	-1E+10	1	-1E+10	1	-1E+10	1	-1E+10	1
4902551	111	C	09/11/2023	11:11	-131.190	47.338	0	75.90	0	7.9550	0	32.3680	0	25.215	0	75.254	0	270.2	4	92.3	4	-1E+10	1	-1E+10	1	-1E+10	1	-1E+10	1	-1E+10	1	-1E+10	1
4902551	111	C	09/11/2023	11:11	-131.190	47.338	0	76.90	0	7.9130	0	32.3700	0	25.223	0	76.245	0	270.1	4	92.2	4	-1E+10	1	-1E+10	1	-1E+10	1	-1E+10	1	-1E+10	1	-1E+10	1
4902551	111	C	09/11/2023	11:11	-131.190	47.338	0	78.10	0	7.8890	0	32.3660	0	25.223	0	77.435	0	269.6	4	92.0	4	-1E+10	1	-1E+10	1	-1E+10	1	-1E+10	1	-1E+10	1	-1E+10	1
4902551	111	C	09/11/2023	11:11	-131.190	47.338	0	79.00	0	7.8730	0	32.3670	0	25.226	0	78.327	0	269.2	4	91.8	4	-1E+10	1	-1E+10	1	-1E+10	1	-1E+10	1	-1E+10	1	-1E+10	1
4902551	111	C	09/11/2023	11:11	-131.190	47.338	0	79.80	0	7.8650	0	32.3670	0	25.227	0	79.120	0	268.8	4	91.6	4	-1E+10	1	-1E+10	1	-1E+10	1	-1E+10	1	-1E+10	1	-1E+10	1
4902551	111	C	09/11/2023	11:11	-131.190	47.338	0	80.80	0	7.8380	0	32.3690	0	25.233	0	80.111	0	268.3	4	91.4	4	-1E+10	1	-1E+10	1	-1E+10	1	-1E+10	1	-1E+10	1	-1E+10	1
4902551	111	C	09/11/2023	11:11	-131.190	47.338	0	81.90	0	7.8450	0	32.3750	0	25.236	0	81.202	0	267.6	4	91.2	4	-1E+10	1	-1E+10	1	-1E+10	1	-1E+10	1	-1E+10	1	-1E+10	1
4902551	111	C	09/11/2023	11:11	-131.190	47.338	0	82.90	0	7.8650	0	32.3850	0	25.241	0	82.193	0	267.1	4	91.1	4	-1E+10	1	-1E+10	1	-1E+10	1	-1E+10	1	-1E+10	1	-1E+10	1
4902551	111	C	09/11/2023	11:11	-131.190	47.338	0	84.20	0	7.8820	0	32.3910	0	25.244	0	83.481	0	273.1	4	93.2	4	-1E+10	1	-1E+10	1	-1E+10	1	-1E+10	1	-1E+10	1	-1E+10	1
4902551	111	C	09/11/2023	11:11	-131.190	47.338	0	84.90	0	7.8990	0	32.3950	0	25.244	0	84.175	0	272.8	4	93.1	4	-1E+10	1	-1E+10	1	-1E+10	1	-1E+10	1	-1E+10	1	-1E+10	1
4902551	111	C	09/11/2023	11:11	-131.190	47.338	0	85.80	0	7.8940	0	32.4010	0	25.250	0	85.068	0	272.2	4	92.9	4	-1E+10	1	-1E+10	1	-1E+10	1	-1E+10	1	-1E+10	1	-1E+10	1
4902551	111	C	09/11/2023	11:11	-131.190	47.338	0	87.00	0	7.8780	0	32.3980	0	25.250	0	86.257	0	271.6	4	92.6	4	-1E+10	1	-1E+10	1	-1E+10	1	-1E+10	1	-1E+10	1	-1E+10	1
4902551	111	C	09/11/2023	11:11	-131.190	47.338	0	88.10	0	7.7850	0	32.4000	0	25.265	0	87.347	0	271.0	4	92.3	4	-1E+10	1	-1E+10	1	-1E+10	1	-1E+10	1	-1E+10	1	-1E+10	1
4902551	111	C	09/11/2023	11:11	-131.190	47.338	0	89.00	0	7.6520	0	32.3820	0	25.269	0	88.239	0	271.0	4	91.9	4	-1E+10	1	-1E+10	1	-1E+10	1	-1E+10	1	-1E+10	1	-1E+10	1
4902551	111	C	09/11/2023	11:11	-131.190	47.338	0	89.90	0	7.6370	0	32.3860	0	25.275	0	89.132	0	270.7	4	91.8	4	-1E+10	1	-1E+10	1	-1E+10	1	-1E+10	1	-1E+10	1	-1E+10	1
4902551	111	C	09/11/2023	11:11	-131.190	47.338	0	90.90	0	7.6300	0	32.3910	0	25.279	0	90.123	0	270.6	4	91.8	4	-1E+10	1	-1E+10	1	-1E+10	1	-1E+10	1	-1E+10	1	-1E+10	1
4902551	111	C	09/11/2023	11:11	-131.190	47.338	0	91.90	0	7.6370	0	32.3950	0	25.282	0	91.114	0	270.5	4	91.8	4	-1E+10	1	-1E+10	1	-1E+10	1	-1E+10	1	-1E+10	1	-1E+10	1
4902551	111	C	09/11/2023	11:11	-131.190	47.338	0	93.10	0	7.6250	0	32.4030	0	25.290	0	92.304	0	270.2	4	91.6	4	-1E+10	1	-1E+10	1	-1E+10	1	-1E+10	1	-1E+10	1	-1E+10	1
4902551	111	C	09/11/2023	11:11	-131.190	47.338	0	94.00	0	7.6270	0	32.4060	0	25.292	0	93.196	0	269.9	4	91.6	4	-1E+10	1	-1E+10	1	-1E+10	1	-1E+10	1	-1E+10	1	-1E+10	1
4902551	111	C	09/11/2023	11:11	-131.190	47.338	0	95.00	0	7.5900	0	32.4110	0	25.301	0	94.187	0	269.5	4	91.3	4	-1E+10	1	-1E+10	1	-1E+10	1	-1E+10	1	-1E+10	1	-1E+10	1
4902551	111	C	09/11/2023	11:11	-131.190	47.338	0	96.10	0	7.5750	0	32.4100	0	25.302	0	95.277	0	268.9	4	91.1	4	-1E+10	1	-1E+10	1	-1E+10	1	-1E+10	1	-1E+10	1	-1E+10	1
4902551	111	C	09/11/2023	11:11	-131.190	47.338	0	97.00	0	7.5680	0	32.4100	0	25.303	0	96.169	0	268.3	4	90.9	4	-1E+10	1	-1E+10	1	-1E+10	1	-1E+10	1	-1E+10	1	-1E+10	1
4902551	111	C	09/11/2023	11:11	-131.190	47.338	0	98.00	0	7.5450	0	32.4110	0	25.307	0	97.160	0	267.7	4	90.6	4	-1E+10	1	-1E+10	1	-1E+10	1	-1E+10	1	-1E+10	1	-1E+10	1
4902551	111	C	09/11/2023	11:11	-131.190	47.338	0	99.00	0	7.5190	0	32.4090	0	25.309	0	98.152	0	266.9	4	90.3	4	-1E+10	1	-1E+10	1	-1E+10	1	-1E+10	1	-1E+10	1	-1E+10	1
4902551	111	C	09/11/2023	11:11	-131.190	47.338	0	100.10	0	7.5050	0	32.4090	0	25.311	0	99.242	0	265.8	4	89.9	4	-1E+10	1	-1E+10	1	-1E+10	1	-1E+10	1	-1E+10	1	-1E+10	1
4902551	111	C	09/11/2023	11:11	-131.190	47.338	0	100.90	0	7.4700	0	32.4110	0	25.318	0	100.035	0	264.9	4	89.5	4	-1E+10	1	-1E+10	1	-1E+10	1	-1E+10	1	-1E+10	1	-1E+10	1
4902551	111	C	09/11/2023	11:11	-131.190	47.338	0	102.10	0	7.4360	0	32.4140	0	25.325	0	101.224	0	262.9	4	88.8	4	-1E+10	1	-1E+10	1	-1E+10	1	-1E+10	1	-1E+10	1	-1E+10	1
4902551	111	C	09/11/2023	11:11	-131.190	47.338	0	103.00	0	7.4360	0	32.4220	0	25.331	0	102.116	0	261.7	4	88.4	4	-1E+10	1	-1E+10	1	-1E+10	1	-1E+10	1	-1E+10	1	-1E+10	1
4902551	111	C	09/11/2023	11:11	-131.190	47.338	0	104.00	0	7.4340	0	32.4280	0	25.336	0	103.108	0	260.1	4	87.8	4	-1E+10	1	-1E+10	1	-1E+10	1	-1E+10	1	-1E+10	1	-1E+10	1
4902551	111	C	09/11/2023	11:11	-131.190	47.338	0	105.10	0	7.4360	0	32.4330	0	25.340	0	104.198	0	257.9	4	87.1	4	-1E+10	1	-1E+10	1	-1E+10	1	-1E+10	1	-1E+10	1	-1E+10	1
4902551	111	C	09/11/2023	11:11	-131.190	47.338	0	105.80	0	7.4650	0	32.4560	0	25.354	0	104.892	0	256.9	4	86.8	4	-1E+10	1	-1E+10	1	-1E+10	1	-1E+10	1	-1E+10	1	-1E+10	1
4902551	111	C	09/11/2023	11:11	-131.190	47.338	0	106.90	0	7.4840	0	32.4870	0	25.375	0	105.982	0	256.2	4	86.7	4	-1E+10	1	-1E+10	1	-1E+10	1	-1E+10	1	-1E+10	1	-1E+10	1
4902551	111	C	09/11/2023	11:11	-131.190	47.338	0	108.30	0	7.4670	0	32.4990	0	25.387	0	107.370	0	255.4	4	86.4	4	-1E+10	1	-1E+10	1	-1E+10	1	-1E+10	1	-1E+10	1	-1E+10	1
4902551	111	C	09/11/2023	11:11	-131.190	47.338	0	108.90	0	7.4630	0	32.5050	0	25.392	0	107.964	0	254.7	4	86.1	4	-1E+10	1	-1E+10	1	-1E+10	1	-1E+10	1	-1E+10	1	-1E+10	1
4902551	111	C	09/11/2023	11:11	-131.190	47.338	0	109.80	0	7.4500	0	32.5220	0	25.408	0	108.856	0	253.6	4	85.7	4	-1E+10	1	-1E+10	1	-1E+10	1	-1E+10	1	-1E+10	1	-1E+10	1
4902551	111	C	09/11/2023	11:11	-131.190	47.338	0	110.70	0	7.4400	0	32.5330	0	25.418	0	109.748	0	252.0	4	85.2	4	-1E+10	1	-1E+10	1	-1E+10	1	-1E+10	1	-1E+10	1	-1E+10	1
4902551	111	C	09/11/2023	11:11	-131.190	47.338	0	111.90	0	7.4230	0	32.5560	0	25.438	0	110.938	0	250.2	4	84.6	4	-1E+10	1	-1E+10	1	-1E+10	1	-1E+10	1	-1E+10	1	-1E+10	1
4902551	111	C	09/11/2023	11:11	-131.190	47.338	0	113.10	0	7.4160	0	32.5650	0	25.446	0	112.127	0	248.5	4	84.0	4	-1E+10	1	-1E+10	1	-1E+10	1	-1E+10	1	-1E+10	1	-1E+10	1
4902551	111	C	09/11/2023	11:11	-131.190	47.338	0	114.10	0	7.4000	0	32.5930	0	25.470	0	113.118	0	247.1	4	83.5	4	-1E+10	1	-1E+10	1	-1E+10	1	-1E+10	1	-1E+10	1	-1E+10	1
4902551	111	C	09/11/2023	11:11	-131.190	47.338	0	115.10	0	7.3840	0	32.6180	0	25.492	0	114.109	0	245.8	4	83.1	4	-1E+10	1	-1E+10	1	-1E+10	1	-1E+10	1	-1E+10	1	-1E+10	1
4902551	111	C	09/11/2023	11:11	-131.190	47.338	0	116.10	0	7.3690	0	32.6390	0	25.511	0	115.100	0	244.6	4	82.6	4	-1E+10	1	-1E+10	1	-1E+10	1	-1E+10	1	-1E+10	1	-1E+10	1
4902551	111	C	09/11/2023	11:11	-131.190	47.338	0	117.30	0	7.3530	0	32.6630	0	25.532	0	116.290	0	243.5	4	82.2	4	-1E+10	1	-1E+10	1	-1E+10	1	-1E+10	1	-1E+10	1	-1E+10	1
4902551	111	C	09/11/2023	11:11	-131.190	47.338	0	117.90	0	7.3490	0	32.6680	0	25.536	0	116.884	0	242.9	4	82.0	4	-1E+10	1	-1E+10	1	-1E+10	1	-1E+10	1	-1E+10	1	-1E+10	1
4902551	111	C	09/11/2023	11:11	-131.190	47.338	0	119.10	0	7.3440	0	32.6750	0	25.543	0	118.074	0	240.9	4	81.3	4	-1E+10	1	-1E+10	1	-1E+10	1	-1E+10	1	-1E+10	1	-1E+10	1
4902551	111	C	09/11/2023	11:11	-131.190	47.338	0	119.90	0	7.3350	0	32.6860	0	25.553	0	118.867	0	239.7	4	80.9	4	-1E+10	1	-1E+10	1	-1E+10	1	-1E+10	1	-1E+10	1	-1E+10	1
4902551	111	C	09/11/2023	11:11	-131.190	47.338	0	121.00	0	7.3180	0	32.7050	0	25.570	0	119.957	0	238.6	4	80.5	4	-1E+10	1	-1E+10	1	-1E+10	1	-1E+10	1	-1E+10	1	-1E+10	1
4902551	111	C	09/11/2023	11:11	-131.190	47.338	0	121.90	0	7.3150	0	32.7090	0	25.573	0	120.849	0	237.5	4	80.2	4	-1E+10	1	-1E+10	1	-1E+10	1	-1E+10	1	-1E+10	1	-1E+10	1
4902551	111	C	09/11/2023	11:11	-131.190	47.338	0	122.80	0	7.3130	0	32.7110	0	25.575	0	121.741	0	236.3	4	79.8	4	-1E+10	1	-1E+10	1	-1E+10	1	-1E+10	1	-1E+10	1	-1E+10	1
4902551	111	C	09/11/2023	11:11	-131.190	47.338	0	123.80	0	7.2900	0	32.7310	0	25.594	0	122.732	0	234.8	4	79.2	4	-1E+10	1	-1E+10	1	-1E+10	1	-1E+10	1	-1E+10	1	-1E+10	1
4902551	111	C	09/11/2023	11:11	-131.190	47.338	0	124.90	0	7.2360	0	32.7750	0	25.636	0	123.822	0	232.5	4	78.4	4	-1E+10	1	-1E+10	1	-1E+10	1	-1E+10	1	-1E+10	1	-1E+10	1
4902551	111	C	09/11/2023	11:11	-131.190	47.338	0	126.20	0	7.2120	0	32.8160	0	25.672	0	125.110	0	229.4	4	77.3	4	-1E+10	1	-1E+10	1	-1E+10	1	-1E+10	1	-1E+10	1	-1E+10	1
4902551	111	C	09/11/2023	11:11	-131.190	47.338	0	127.00	0	7.1930	0	32.8380	0	25.692	0	125.903	0	227.7	4	76.7	4	-1E+10	1	-1E+10	1	-1E+10	1	-1E+10	1	-1E+10	1	-1E+10	1
4902551	111	C	09/11/2023	11:11	-131.190	47.338	0	128.00	0	7.1870	0	32.8520	0	25.704	0	126.894	0	226.3	4	76.2	4	-1E+10	1	-1E+10	1	-1E+10	1	-1E+10	1	-1E+10	1	-1E+10	1
4902551	111	C	09/11/2023	11:11	-131.190	47.338	0	129.00	0	7.1960	0	32.8590	0	25.708	0	127.885	0	225.0	4	75.8	4	-1E+10	1	-1E+10	1	-1E+10	1	-1E+10	1	-1E+10	1	-1E+10	1
4902551	111	C	09/11/2023	11:11	-131.190	47.338	0	129.80	0	7.1700	0	32.8930	0	25.738	0	128.678	0	223.8	4	75.4	4	-1E+10	1	-1E+10	1	-1E+10	1	-1E+10	1	-1E+10	1	-1E+10	1
4902551	111	C	09/11/2023	11:11	-131.190	47.338	0	131.00	0	7.1220	0	32.9520	0	25.791	0	129.867	0	221.7	4	74.6	4	-1E+10	1	-1E+10	1	-1E+10	1	-1E+10	1	-1E+10	1	-1E+10	1
4902551	111	C	09/11/2023	11:11	-131.190	47.338	0	132.20	0	7.0910	0	32.9810	0	25.818	0	131.057	0	219.7	4	73.9	4	-1E+10	1	-1E+10	1	-1E+10	1	-1E+10	1	-1E+10	1	-1E+10	1
4902551	111	C	09/11/2023	11:11	-131.190	47.338	0	133.00	0	7.0780	0	32.9890	0	25.826	0	131.849	0	218.1	4	73.4	4	-1E+10	1	-1E+10	1	-1E+10	1	-1E+10	1	-1E+10	1	-1E+10	1
4902551	111	C	09/11/2023	11:11	-131.190	47.338	0	134.20	0	7.0650	0	32.9970	0	25.834	0	133.039	0	215.3	4	72.4	4	-1E+10	1	-1E+10	1	-1E+10	1	-1E+10	1	-1E+10	1	-1E+10	1
4902551	111	C	09/11/2023	11:11	-131.190	47.338	0	135.10	0	6.9980	0	33.0610	0	25.894	0	133.931	0	213.4	4	71.7	4	-1E+10	1	-1E+10	1	-1E+10	1	-1E+10	1	-1E+10	1	-1E+10	1
4902551	111	C	09/11/2023	11:11	-131.190	47.338	0	136.00	0	6.9900	0	33.0800	0	25.910	0	134.823	0	211.7	4	71.1	4	-1E+10	1	-1E+10	1	-1E+10	1	-1E+10	1	-1E+10	1	-1E+10	1
4902551	111	C	09/11/2023	11:11	-131.190	47.338	0	136.70	0	6.9670	0	33.0940	0	25.924	0	135.516	0	210.3	4	70.6	4	-1E+10	1	-1E+10	1	-1E+10	1	-1E+10	1	-1E+10	1	-1E+10	1
4902551	111	C	09/11/2023	11:11	-131.190	47.338	0	137.70	0	6.9210	0	33.1170	0	25.948	0	136.507	0	208.3	4	69.9	4	-1E+10	1	-1E+10	1	-1E+10	1	-1E+10	1	-1E+10	1	-1E+10	1
4902551	111	C	09/11/2023	11:11	-131.190	47.338	0	138.90	0	6.8580	0	33.1640	0	25.994	0	137.696	0	205.5	4	68.9	4	-1E+10	1	-1E+10	1	-1E+10	1	-1E+10	1	-1E+10	1	-1E+10	1
4902551	111	C	09/11/2023	11:11	-131.190	47.338	0	139.80	0	6.8470	0	33.1800	0	26.008	0	138.588	0	203.4	4	68.1	4	-1E+10	1	-1E+10	1	-1E+10	1	-1E+10	1	-1E+10	1	-1E+10	1
4902551	111	C	09/11/2023	11:11	-131.190	47.338	0	140.80	0	6.8290	0	33.2040	0	26.029	0	139.579	0	201.4	4	67.5	4	-1E+10	1	-1E+10	1	-1E+10	1	-1E+10	1	-1E+10	1	-1E+10	1
4902551	111	C	09/11/2023	11:11	-131.190	47.338	0	141.80	0	6.8220	0	33.2320	0	26.052	0	140.570	0	199.4	4	66.8	4	-1E+10	1	-1E+10	1	-1E+10	1	-1E+10	1	-1E+10	1	-1E+10	1
4902551	111	C	09/11/2023	11:11	-131.190	47.338	0	142.80	0	6.8200	0	33.2440	0	26.062	0	141.561	0	197.3	4	66.1	4	-1E+10	1	-1E+10	1	-1E+10	1	-1E+10	1	-1E+10	1	-1E+10	1
4902551	111	C	09/11/2023	11:11	-131.190	47.338	0	143.80	0	6.8190	0	33.2600	0	26.074	0	142.552	0	195.1	4	65.4	4	-1E+10	1	-1E+10	1	-1E+10	1	-1E+10	1	-1E+10	1	-1E+10	1
4902551	111	C	09/11/2023	11:11	-131.190	47.338	0	144.80	0	6.8040	0	33.2720	0	26.086	0	143.543	0	192.9	4	64.6	4	-1E+10	1	-1E+10	1	-1E+10	1	-1E+10	1	-1E+10	1	-1E+10	1
4902551	111	C	09/11/2023	11:11	-131.190	47.338	0	146.00	0	6.7900	0	33.2950	0	26.106	0	144.732	0	189.7	4	63.5	4	-1E+10	1	-1E+10	1	-1E+10	1	-1E+10	1	-1E+10	1	-1E+10	1
4902551	111	C	09/11/2023	11:11	-131.190	47.338	0	146.70	0	6.7920	0	33.3100	0	26.117	0	145.426	0	187.6	4	62.9	4	-1E+10	1	-1E+10	1	-1E+10	1	-1E+10	1	-1E+10	1	-1E+10	1
4902551	111	C	09/11/2023	11:11	-131.190	47.338	0	147.90	0	6.8290	0	33.3430	0	26.139	0	146.615	0	184.4	4	61.8	4	-1E+10	1	-1E+10	1	-1E+10	1	-1E+10	1	-1E+10	1	-1E+10	1
4902551	111	C	09/11/2023	11:11	-131.190	47.338	0	149.10	0	6.8610	0	33.3780	0	26.162	0	147.804	0	182.5	4	61.2	4	-1E+10	1	-1E+10	1	-1E+10	1	-1E+10	1	-1E+10	1	-1E+10	1
4902551	111	C	09/11/2023	11:11	-131.190	47.338	0	149.90	0	6.8650	0	33.3930	0	26.173	0	148.597	0	181.2	4	60.8	4	-1E+10	1	-1E+10	1	-1E+10	1	-1E+10	1	-1E+10	1	-1E+10	1
4902551	111	C	09/11/2023	11:11	-131.190	47.338	0	150.70	0	6.8730	0	33.4050	0	26.182	0	149.390	0	179.9	4	60.4	4	-1E+10	1	-1E+10	1	-1E+10	1	-1E+10	1	-1E+10	1	-1E+10	1
4902551	111	C	09/11/2023	11:11	-131.190	47.338	0	152.00	0	6.8730	0	33.4370	0	26.207	0	150.678	0	178.5	4	60.0	4	-1E+10	1	-1E+10	1	-1E+10	1	-1E+10	1	-1E+10	1	-1E+10	1
4902551	111	C	09/11/2023	11:11	-131.190	47.338	0	153.30	0	6.8770	0	33.4510	0	26.217	0	151.966	0	177.1	4	59.5	4	-1E+10	1	-1E+10	1	-1E+10	1	-1E+10	1	-1E+10	1	-1E+10	1
4902551	111	C	09/11/2023	11:11	-131.190	47.338	0	154.10	0	6.8710	0	33.4570	0	26.223	0	152.759	0	176.0	4	59.1	4	-1E+10	1	-1E+10	1	-1E+10	1	-1E+10	1	-1E+10	1	-1E+10	1
4902551	111	C	09/11/2023	11:11	-131.190	47.338	0	155.00	0	6.8700	0	33.4580	0	26.224	0	153.651	0	174.7	4	58.7	4	-1E+10	1	-1E+10	1	-1E+10	1	-1E+10	1	-1E+10	1	-1E+10	1
4902551	111	C	09/11/2023	11:11	-131.190	47.338	0	155.90	0	6.8750	0	33.4680	0	26.231	0	154.543	0	173.4	4	58.2	4	-1E+10	1	-1E+10	1	-1E+10	1	-1E+10	1	-1E+10	1	-1E+10	1
4902551	111	C	09/11/2023	11:11	-131.190	47.338	0	156.80	0	6.8930	0	33.4860	0	26.243	0	155.435	0	171.9	4	57.8	4	-1E+10	1	-1E+10	1	-1E+10	1	-1E+10	1	-1E+10	1	-1E+10	1
4902551	111	C	09/11/2023	11:11	-131.190	47.338	0	157.60	0	6.9040	0	33.5000	0	26.252	0	156.227	0	170.8	4	57.4	4	-1E+10	1	-1E+10	1	-1E+10	1	-1E+10	1	-1E+10	1	-1E+10	1
4902551	111	C	09/11/2023	11:11	-131.190	47.338	0	158.50	0	6.9160	0	33.5160	0	26.263	0	157.119	0	169.8	4	57.1	4	-1E+10	1	-1E+10	1	-1E+10	1	-1E+10	1	-1E+10	1	-1E+10	1
4902551	111	C	09/11/2023	11:11	-131.190	47.338	0	159.90	0	6.9100	0	33.5210	0	26.268	0	158.506	0	168.2	4	56.6	4	-1E+10	1	-1E+10	1	-1E+10	1	-1E+10	1	-1E+10	1	-1E+10	1
4902551	111	C	09/11/2023	11:11	-131.190	47.338	0	161.30	0	6.9140	0	33.5390	0	26.282	0	159.894	0	166.5	4	56.0	4	-1E+10	1	-1E+10	1	-1E+10	1	-1E+10	1	-1E+10	1	-1E+10	1
4902551	111	C	09/11/2023	11:11	-131.190	47.338	0	162.30	0	6.8730	0	33.5570	0	26.301	0	160.885	0	165.2	4	55.5	4	-1E+10	1	-1E+10	1	-1E+10	1	-1E+10	1	-1E+10	1	-1E+10	1
4902551	111	C	09/11/2023	11:11	-131.190	47.338	0	163.20	0	6.8450	0	33.5480	0	26.298	0	161.776	0	163.6	4	55.0	4	-1E+10	1	-1E+10	1	-1E+10	1	-1E+10	1	-1E+10	1	-1E+10	1
4902551	111	C	09/11/2023	11:11	-131.190	47.338	0	164.20	0	6.9750	0	33.5990	0	26.321	0	162.767	0	162.9	4	54.9	4	-1E+10	1	-1E+10	1	-1E+10	1	-1E+10	1	-1E+10	1	-1E+10	1
4902551	111	C	09/11/2023	11:11	-131.190	47.338	0	165.20	0	6.9490	0	33.6380	0	26.355	0	163.758	0	163.0	4	54.9	4	-1E+10	1	-1E+10	1	-1E+10	1	-1E+10	1	-1E+10	1	-1E+10	1
4902551	111	C	09/11/2023	11:11	-131.190	47.338	0	166.20	0	6.9180	0	33.6320	0	26.355	0	164.749	0	162.8	4	54.8	4	-1E+10	1	-1E+10	1	-1E+10	1	-1E+10	1	-1E+10	1	-1E+10	1
4902551	111	C	09/11/2023	11:11	-131.190	47.338	0	167.20	0	6.8980	0	33.6400	0	26.364	0	165.740	0	162.1	4	54.6	4	-1E+10	1	-1E+10	1	-1E+10	1	-1E+10	1	-1E+10	1	-1E+10	1
4902551	111	C	09/11/2023	11:11	-131.190	47.338	0	168.20	0	6.9030	0	33.6540	0	26.374	0	166.731	0	161.1	4	54.2	4	-1E+10	1	-1E+10	1	-1E+10	1	-1E+10	1	-1E+10	1	-1E+10	1
4902551	111	C	09/11/2023	11:11	-131.190	47.338	0	169.30	0	6.9030	0	33.6660	0	26.383	0	167.821	0	160.2	4	53.9	4	-1E+10	1	-1E+10	1	-1E+10	1	-1E+10	1	-1E+10	1	-1E+10	1
4902551	111	C	09/11/2023	11:11	-131.190	47.338	0	170.30	0	6.9050	0	33.6730	0	26.389	0	168.812	0	159.4	4	53.7	4	-1E+10	1	-1E+10	1	-1E+10	1	-1E+10	1	-1E+10	1	-1E+10	1
4902551	111	C	09/11/2023	11:11	-131.190	47.338	0	171.30	0	6.9020	0	33.6810	0	26.395	0	169.802	0	158.8	4	53.5	4	-1E+10	1	-1E+10	1	-1E+10	1	-1E+10	1	-1E+10	1	-1E+10	1
4902551	111	C	09/11/2023	11:11	-131.190	47.338	0	172.30	0	6.9100	0	33.6870	0	26.399	0	170.793	0	158.2	4	53.3	4	-1E+10	1	-1E+10	1	-1E+10	1	-1E+10	1	-1E+10	1	-1E+10	1
4902551	111	C	09/11/2023	11:11	-131.190	47.338	0	173.30	0	6.9060	0	33.6930	0	26.404	0	171.784	0	157.7	4	53.1	4	-1E+10	1	-1E+10	1	-1E+10	1	-1E+10	1	-1E+10	1	-1E+10	1
4902551	111	C	09/11/2023	11:11	-131.190	47.338	0	174.40	0	6.9050	0	33.7010	0	26.411	0	172.874	0	157.3	4	53.0	4	-1E+10	1	-1E+10	1	-1E+10	1	-1E+10	1	-1E+10	1	-1E+10	1
4902551	111	C	09/11/2023	11:11	-131.190	47.338	0	175.40	0	6.9040	0	33.7030	0	26.413	0	173.865	0	157.0	4	52.9	4	-1E+10	1	-1E+10	1	-1E+10	1	-1E+10	1	-1E+10	1	-1E+10	1
4902551	111	C	09/11/2023	11:11	-131.190	47.338	0	176.40	0	6.9030	0	33.7140	0	26.421	0	174.856	0	157.0	4	52.9	4	-1E+10	1	-1E+10	1	-1E+10	1	-1E+10	1	-1E+10	1	-1E+10	1
4902551	111	C	09/11/2023	11:11	-131.190	47.338	0	177.40	0	6.9030	0	33.7190	0	26.425	0	175.846	0	157.3	4	53.0	4	-1E+10	1	-1E+10	1	-1E+10	1	-1E+10	1	-1E+10	1	-1E+10	1
4902551	111	C	09/11/2023	11:11	-131.190	47.338	0	178.50	0	6.8990	0	33.7250	0	26.431	0	176.936	0	157.7	4	53.1	4	-1E+10	1	-1E+10	1	-1E+10	1	-1E+10	1	-1E+10	1	-1E+10	1
4902551	111	C	09/11/2023	11:11	-131.190	47.338	0	179.50	0	6.8830	0	33.7260	0	26.434	0	177.927	0	158.1	4	53.2	4	-1E+10	1	-1E+10	1	-1E+10	1	-1E+10	1	-1E+10	1	-1E+10	1
4902551	111	C	09/11/2023	11:11	-131.190	47.338	0	180.50	0	6.8530	0	33.7320	0	26.442	0	178.918	0	158.2	4	53.2	4	-1E+10	1	-1E+10	1	-1E+10	1	-1E+10	1	-1E+10	1	-1E+10	1
4902551	111	C	09/11/2023	11:11	-131.190	47.338	0	181.60	0	6.8380	0	33.7360	0	26.447	0	180.008	0	158.2	4	53.2	4	-1E+10	1	-1E+10	1	-1E+10	1	-1E+10	1	-1E+10	1	-1E+10	1
4902551	111	C	09/11/2023	11:11	-131.190	47.338	0	182.60	0	6.8200	0	33.7390	0	26.452	0	180.999	0	158.1	4	53.2	4	-1E+10	1	-1E+10	1	-1E+10	1	-1E+10	1	-1E+10	1	-1E+10	1
4902551	111	C	09/11/2023	11:11	-131.190	47.338	0	183.60	0	6.8130	0	33.7390	0	26.453	0	181.989	0	157.9	4	53.1	4	-1E+10	1	-1E+10	1	-1E+10	1	-1E+10	1	-1E+10	1	-1E+10	1
4902551	111	C	09/11/2023	11:11	-131.190	47.338	0	184.70	0	6.8080	0	33.7400	0	26.455	0	183.079	0	157.8	4	53.0	4	-1E+10	1	-1E+10	1	-1E+10	1	-1E+10	1	-1E+10	1	-1E+10	1
4902551	111	C	09/11/2023	11:11	-131.190	47.338	0	185.70	0	6.7990	0	33.7410	0	26.457	0	184.070	0	157.6	4	53.0	4	-1E+10	1	-1E+10	1	-1E+10	1	-1E+10	1	-1E+10	1	-1E+10	1
4902551	111	C	09/11/2023	11:11	-131.190	47.338	0	186.70	0	6.7810	0	33.7460	0	26.463	0	185.061	0	157.4	4	52.9	4	-1E+10	1	-1E+10	1	-1E+10	1	-1E+10	1	-1E+10	1	-1E+10	1
4902551	111	C	09/11/2023	11:11	-131.190	47.338	0	187.70	0	6.7680	0	33.7490	0	26.467	0	186.052	0	157.3	4	52.8	4	-1E+10	1	-1E+10	1	-1E+10	1	-1E+10	1	-1E+10	1	-1E+10	1
4902551	111	C	09/11/2023	11:11	-131.190	47.338	0	188.80	0	6.7270	0	33.7570	0	26.479	0	187.142	0	157.2	4	52.7	4	-1E+10	1	-1E+10	1	-1E+10	1	-1E+10	1	-1E+10	1	-1E+10	1
4902551	111	C	09/11/2023	11:11	-131.190	47.338	0	189.80	0	6.7200	0	33.7560	0	26.479	0	188.132	0	157.0	4	52.7	4	-1E+10	1	-1E+10	1	-1E+10	1	-1E+10	1	-1E+10	1	-1E+10	1
4902551	111	C	09/11/2023	11:11	-131.190	47.338	0	190.80	0	6.7140	0	33.7560	0	26.480	0	189.123	0	156.9	4	52.6	4	-1E+10	1	-1E+10	1	-1E+10	1	-1E+10	1	-1E+10	1	-1E+10	1
4902551	111	C	09/11/2023	11:11	-131.190	47.338	0	191.80	0	6.6780	0	33.7560	0	26.485	0	190.114	0	156.6	4	52.5	4	-1E+10	1	-1E+10	1	-1E+10	1	-1E+10	1	-1E+10	1	-1E+10	1
4902551	111	C	09/11/2023	11:11	-131.190	47.338	0	192.90	0	6.6520	0	33.7630	0	26.494	0	191.204	0	156.2	4	52.3	4	-1E+10	1	-1E+10	1	-1E+10	1	-1E+10	1	-1E+10	1	-1E+10	1
4902551	111	C	09/11/2023	11:11	-131.190	47.338	0	193.90	0	6.6450	0	33.7620	0	26.494	0	192.194	0	156.0	4	52.2	4	-1E+10	1	-1E+10	1	-1E+10	1	-1E+10	1	-1E+10	1	-1E+10	1
4902551	111	C	09/11/2023	11:11	-131.190	47.338	0	194.90	0	6.6410	0	33.7610	0	26.494	0	193.185	0	155.6	4	52.1	4	-1E+10	1	-1E+10	1	-1E+10	1	-1E+10	1	-1E+10	1	-1E+10	1
4902551	111	C	09/11/2023	11:11	-131.190	47.338	0	196.00	0	6.6320	0	33.7610	0	26.495	0	194.275	0	155.1	4	51.9	4	-1E+10	1	-1E+10	1	-1E+10	1	-1E+10	1	-1E+10	1	-1E+10	1
4902551	111	C	09/11/2023	11:11	-131.190	47.338	0	197.00	0	6.6180	0	33.7620	0	26.497	0	195.266	0	154.5	4	51.7	4	-1E+10	1	-1E+10	1	-1E+10	1	-1E+10	1	-1E+10	1	-1E+10	1
4902551	111	C	09/11/2023	11:11	-131.190	47.338	0	198.00	0	6.6120	0	33.7620	0	26.498	0	196.256	0	153.7	4	51.4	4	-1E+10	1	-1E+10	1	-1E+10	1	-1E+10	1	-1E+10	1	-1E+10	1
4902551	111	C	09/11/2023	11:11	-131.190	47.338	0	199.00	0	6.5950	0	33.7650	0	26.503	0	197.247	0	152.9	4	51.1	4	-1E+10	1	-1E+10	1	-1E+10	1	-1E+10	1	-1E+10	1	-1E+10	1
4902551	111	C	09/11/2023	11:11	-131.190	47.338	0	200.00	0	6.5860	0	33.7630	0	26.502	0	198.238	0	152.0	4	50.8	4	-1E+10	1	-1E+10	1	-1E+10	1	-1E+10	1	-1E+10	1	-1E+10	1
4902551	111	C	09/11/2023	11:11	-131.190	47.338	0	201.00	0	6.5890	0	33.7640	0	26.503	0	199.228	0	151.0	4	50.5	4	-1E+10	1	-1E+10	1	-1E+10	1	-1E+10	1	-1E+10	1	-1E+10	1
4902551	111	C	09/11/2023	11:11	-131.190	47.338	0	202.00	0	6.5810	0	33.7640	0	26.504	0	200.219	0	149.9	4	50.1	4	-1E+10	1	-1E+10	1	-1E+10	1	-1E+10	1	-1E+10	1	-1E+10	1
4902551	111	C	09/11/2023	11:11	-131.190	47.338	0	203.00	0	6.5620	0	33.7700	0	26.511	0	201.210	0	148.8	4	49.8	4	-1E+10	1	-1E+10	1	-1E+10	1	-1E+10	1	-1E+10	1	-1E+10	1
4902551	111	C	09/11/2023	11:11	-131.190	47.338	0	204.00	0	6.5410	0	33.7730	0	26.516	0	202.201	0	147.8	4	49.4	4	-1E+10	1	-1E+10	1	-1E+10	1	-1E+10	1	-1E+10	1	-1E+10	1
4902551	111	C	09/11/2023	11:11	-131.190	47.338	0	205.00	0	6.5240	0	33.7750	0	26.520	0	203.191	0	146.9	4	49.1	4	-1E+10	1	-1E+10	1	-1E+10	1	-1E+10	1	-1E+10	1	-1E+10	1
4902551	111	C	09/11/2023	11:11	-131.190	47.338	0	206.00	0	6.5090	0	33.7800	0	26.526	0	204.182	0	146.0	4	48.8	4	-1E+10	1	-1E+10	1	-1E+10	1	-1E+10	1	-1E+10	1	-1E+10	1
4902551	111	C	09/11/2023	11:11	-131.190	47.338	0	207.00	0	6.5050	0	33.7800	0	26.527	0	205.173	0	145.0	4	48.4	4	-1E+10	1	-1E+10	1	-1E+10	1	-1E+10	1	-1E+10	1	-1E+10	1
4902551	111	C	09/11/2023	11:11	-131.190	47.338	0	208.00	0	6.4860	0	33.7840	0	26.532	0	206.163	0	144.1	4	48.1	4	-1E+10	1	-1E+10	1	-1E+10	1	-1E+10	1	-1E+10	1	-1E+10	1
4902551	111	C	09/11/2023	11:11	-131.190	47.338	0	209.00	0	6.4710	0	33.7850	0	26.535	0	207.154	0	143.2	4	47.8	4	-1E+10	1	-1E+10	1	-1E+10	1	-1E+10	1	-1E+10	1	-1E+10	1
4902551	111	C	09/11/2023	11:11	-131.190	47.338	0	210.00	0	6.4610	0	33.7860	0	26.537	0	208.145	0	142.3	4	47.5	4	-1E+10	1	-1E+10	1	-1E+10	1	-1E+10	1	-1E+10	1	-1E+10	1
4902551	111	C	09/11/2023	11:11	-131.190	47.338	0	211.00	0	6.4440	0	33.7890	0	26.542	0	209.135	0	141.4	4	47.1	4	-1E+10	1	-1E+10	1	-1E+10	1	-1E+10	1	-1E+10	1	-1E+10	1
4902551	111	C	09/11/2023	11:11	-131.190	47.338	0	211.90	0	6.4280	0	33.7910	0	26.545	0	210.027	0	140.5	4	46.8	4	-1E+10	1	-1E+10	1	-1E+10	1	-1E+10	1	-1E+10	1	-1E+10	1
4902551	111	C	09/11/2023	11:11	-131.190	47.338	0	212.90	0	6.4040	0	33.7930	0	26.550	0	211.017	0	139.5	4	46.5	4	-1E+10	1	-1E+10	1	-1E+10	1	-1E+10	1	-1E+10	1	-1E+10	1
4902551	111	C	09/11/2023	11:11	-131.190	47.338	0	213.90	0	6.3820	0	33.7950	0	26.554	0	212.008	0	138.6	4	46.2	4	-1E+10	1	-1E+10	1	-1E+10	1	-1E+10	1	-1E+10	1	-1E+10	1
4902551	111	C	09/11/2023	11:11	-131.190	47.338	0	214.90	0	6.3660	0	33.7950	0	26.556	0	212.999	0	137.7	4	45.8	4	-1E+10	1	-1E+10	1	-1E+10	1	-1E+10	1	-1E+10	1	-1E+10	1
4902551	111	C	09/11/2023	11:11	-131.190	47.338	0	215.90	0	6.3530	0	33.8000	0	26.562	0	213.989	0	136.9	4	45.6	4	-1E+10	1	-1E+10	1	-1E+10	1	-1E+10	1	-1E+10	1	-1E+10	1
4902551	111	C	09/11/2023	11:11	-131.190	47.338	0	216.80	0	6.3400	0	33.8030	0	26.566	0	214.881	0	136.1	4	45.3	4	-1E+10	1	-1E+10	1	-1E+10	1	-1E+10	1	-1E+10	1	-1E+10	1
4902551	111	C	09/11/2023	11:11	-131.190	47.338	0	217.80	0	6.3040	0	33.8080	0	26.575	0	215.872	0	135.7	4	45.1	4	-1E+10	1	-1E+10	1	-1E+10	1	-1E+10	1	-1E+10	1	-1E+10	1
4902551	111	C	09/11/2023	11:11	-131.190	47.338	0	218.80	0	6.2920	0	33.8080	0	26.576	0	216.862	0	135.3	4	45.0	4	-1E+10	1	-1E+10	1	-1E+10	1	-1E+10	1	-1E+10	1	-1E+10	1
4902551	111	C	09/11/2023	11:11	-131.190	47.338	0	219.80	0	6.2860	0	33.8070	0	26.576	0	217.853	0	134.9	4	44.8	4	-1E+10	1	-1E+10	1	-1E+10	1	-1E+10	1	-1E+10	1	-1E+10	1
4902551	111	C	09/11/2023	11:11	-131.190	47.338	0	220.80	0	6.2740	0	33.8090	0	26.579	0	218.843	0	134.4	4	44.7	4	-1E+10	1	-1E+10	1	-1E+10	1	-1E+10	1	-1E+10	1	-1E+10	1
4902551	111	C	09/11/2023	11:11	-131.190	47.338	0	221.70	0	6.2560	0	33.8080	0	26.581	0	219.735	0	134.0	4	44.5	4	-1E+10	1	-1E+10	1	-1E+10	1	-1E+10	1	-1E+10	1	-1E+10	1
4902551	111	C	09/11/2023	11:11	-131.190	47.338	0	222.70	0	6.2440	0	33.8090	0	26.583	0	220.726	0	133.5	4	44.3	4	-1E+10	1	-1E+10	1	-1E+10	1	-1E+10	1	-1E+10	1	-1E+10	1
4902551	111	C	09/11/2023	11:11	-131.190	47.338	0	223.70	0	6.2360	0	33.8070	0	26.583	0	221.716	0	132.9	4	44.1	4	-1E+10	1	-1E+10	1	-1E+10	1	-1E+10	1	-1E+10	1	-1E+10	1
4902551	111	C	09/11/2023	11:11	-131.190	47.338	0	224.70	0	6.2310	0	33.8100	0	26.586	0	222.707	0	132.4	4	43.9	4	-1E+10	1	-1E+10	1	-1E+10	1	-1E+10	1	-1E+10	1	-1E+10	1
4902551	111	C	09/11/2023	11:11	-131.190	47.338	0	225.70	0	6.2160	0	33.8100	0	26.588	0	223.697	0	131.7	4	43.7	4	-1E+10	1	-1E+10	1	-1E+10	1	-1E+10	1	-1E+10	1	-1E+10	1
4902551	111	C	09/11/2023	11:11	-131.190	47.338	0	226.70	0	6.2040	0	33.8130	0	26.592	0	224.688	0	131.1	4	43.5	4	-1E+10	1	-1E+10	1	-1E+10	1	-1E+10	1	-1E+10	1	-1E+10	1
4902551	111	C	09/11/2023	11:11	-131.190	47.338	0	227.70	0	6.2100	0	33.8100	0	26.588	0	225.679	0	130.6	4	43.3	4	-1E+10	1	-1E+10	1	-1E+10	1	-1E+10	1	-1E+10	1	-1E+10	1
4902551	111	C	09/11/2023	11:11	-131.190	47.338	0	228.60	0	6.2010	0	33.8150	0	26.594	0	226.570	0	130.1	4	43.1	4	-1E+10	1	-1E+10	1	-1E+10	1	-1E+10	1	-1E+10	1	-1E+10	1
4902551	111	C	09/11/2023	11:11	-131.190	47.338	0	229.60	0	6.1700	0	33.8180	0	26.600	0	227.561	0	129.6	4	42.9	4	-1E+10	1	-1E+10	1	-1E+10	1	-1E+10	1	-1E+10	1	-1E+10	1
4902551	111	C	09/11/2023	11:11	-131.190	47.338	0	230.50	0	6.1530	0	33.8150	0	26.600	0	228.452	0	129.2	4	42.8	4	-1E+10	1	-1E+10	1	-1E+10	1	-1E+10	1	-1E+10	1	-1E+10	1
4902551	111	C	09/11/2023	11:11	-131.190	47.338	0	232.00	0	6.1180	0	33.8180	0	26.606	0	229.938	0	128.5	4	42.6	4	-1E+10	1	-1E+10	1	-1E+10	1	-1E+10	1	-1E+10	1	-1E+10	1
4902551	111	C	09/11/2023	11:11	-131.190	47.338	0	233.20	0	6.0870	0	33.8190	0	26.611	0	231.127	0	128.1	4	42.4	4	-1E+10	1	-1E+10	1	-1E+10	1	-1E+10	1	-1E+10	1	-1E+10	1
4902551	111	C	09/11/2023	11:11	-131.190	47.338	0	233.90	0	6.0800	0	33.8170	0	26.610	0	231.820	0	127.9	4	42.3	4	-1E+10	1	-1E+10	1	-1E+10	1	-1E+10	1	-1E+10	1	-1E+10	1
4902551	111	C	09/11/2023	11:11	-131.190	47.338	0	234.70	0	6.0800	0	33.8170	0	26.610	0	232.612	0	127.5	4	42.2	4	-1E+10	1	-1E+10	1	-1E+10	1	-1E+10	1	-1E+10	1	-1E+10	1
4902551	111	C	09/11/2023	11:11	-131.190	47.338	0	235.90	0	6.0700	0	33.8170	0	26.612	0	233.801	0	127.0	4	42.0	4	-1E+10	1	-1E+10	1	-1E+10	1	-1E+10	1	-1E+10	1	-1E+10	1
4902551	111	C	09/11/2023	11:11	-131.190	47.338	0	237.10	0	6.0560	0	33.8190	0	26.615	0	234.990	0	126.6	4	41.8	4	-1E+10	1	-1E+10	1	-1E+10	1	-1E+10	1	-1E+10	1	-1E+10	1
4902551	111	C	09/11/2023	11:11	-131.190	47.338	0	237.90	0	6.0390	0	33.8190	0	26.617	0	235.782	0	126.3	4	41.7	4	-1E+10	1	-1E+10	1	-1E+10	1	-1E+10	1	-1E+10	1	-1E+10	1
4902551	111	C	09/11/2023	11:11	-131.190	47.338	0	238.70	0	6.0350	0	33.8170	0	26.616	0	236.575	0	126.0	4	41.6	4	-1E+10	1	-1E+10	1	-1E+10	1	-1E+10	1	-1E+10	1	-1E+10	1
4902551	111	C	09/11/2023	11:11	-131.190	47.338	0	239.90	0	6.0270	0	33.8180	0	26.618	0	237.763	0	125.4	4	41.4	4	-1E+10	1	-1E+10	1	-1E+10	1	-1E+10	1	-1E+10	1	-1E+10	1
4902551	111	C	09/11/2023	11:11	-131.190	47.338	0	241.20	0	6.0140	0	33.8180	0	26.620	0	239.051	0	124.8	4	41.2	4	-1E+10	1	-1E+10	1	-1E+10	1	-1E+10	1	-1E+10	1	-1E+10	1
4902551	111	C	09/11/2023	11:11	-131.190	47.338	0	242.00	0	5.9820	0	33.8250	0	26.629	0	239.843	0	124.4	4	41.0	4	-1E+10	1	-1E+10	1	-1E+10	1	-1E+10	1	-1E+10	1	-1E+10	1
4902551	111	C	09/11/2023	11:11	-131.190	47.338	0	242.80	0	5.9590	0	33.8200	0	26.628	0	240.636	0	124.0	4	40.9	4	-1E+10	1	-1E+10	1	-1E+10	1	-1E+10	1	-1E+10	1	-1E+10	1
4902551	111	C	09/11/2023	11:11	-131.190	47.338	0	243.70	0	5.9470	0	33.8170	0	26.627	0	241.527	0	123.6	4	40.8	4	-1E+10	1	-1E+10	1	-1E+10	1	-1E+10	1	-1E+10	1	-1E+10	1
4902551	111	C	09/11/2023	11:11	-131.190	47.338	0	244.60	0	5.9430	0	33.8160	0	26.627	0	242.419	0	123.1	4	40.6	4	-1E+10	1	-1E+10	1	-1E+10	1	-1E+10	1	-1E+10	1	-1E+10	1
4902551	111	C	09/11/2023	11:11	-131.190	47.338	0	245.90	0	5.9380	0	33.8200	0	26.631	0	243.706	0	122.5	4	40.4	4	-1E+10	1	-1E+10	1	-1E+10	1	-1E+10	1	-1E+10	1	-1E+10	1
4902551	111	C	09/11/2023	11:11	-131.190	47.338	0	247.20	0	5.9090	0	33.8190	0	26.634	0	244.994	0	121.8	4	40.1	4	-1E+10	1	-1E+10	1	-1E+10	1	-1E+10	1	-1E+10	1	-1E+10	1
4902551	111	C	09/11/2023	11:11	-131.190	47.338	0	248.10	0	5.9050	0	33.8190	0	26.634	0	245.885	0	121.3	4	40.0	4	-1E+10	1	-1E+10	1	-1E+10	1	-1E+10	1	-1E+10	1	-1E+10	1
4902551	111	C	09/11/2023	11:11	-131.190	47.338	0	249.00	0	5.8940	0	33.8200	0	26.636	0	246.777	0	120.9	4	39.8	4	-1E+10	1	-1E+10	1	-1E+10	1	-1E+10	1	-1E+10	1	-1E+10	1
4902551	111	C	09/11/2023	11:11	-131.190	47.338	0	249.90	0	5.8910	0	33.8190	0	26.636	0	247.668	0	120.3	4	39.6	4	-1E+10	1	-1E+10	1	-1E+10	1	-1E+10	1	-1E+10	1	-1E+10	1
4902551	111	C	09/11/2023	11:11	-131.190	47.338	0	250.90	0	5.8740	0	33.8200	0	26.639	0	248.659	0	119.9	4	39.5	4	-1E+10	1	-1E+10	1	-1E+10	1	-1E+10	1	-1E+10	1	-1E+10	1
4902551	111	C	09/11/2023	11:11	-131.190	47.338	0	251.80	0	5.8670	0	33.8240	0	26.643	0	249.550	0	119.4	4	39.3	4	-1E+10	1	-1E+10	1	-1E+10	1	-1E+10	1	-1E+10	1	-1E+10	1
4902551	111	C	09/11/2023	11:11	-131.190	47.338	0	252.70	0	5.8620	0	33.8240	0	26.643	0	250.441	0	119.1	4	39.2	4	-1E+10	1	-1E+10	1	-1E+10	1	-1E+10	1	-1E+10	1	-1E+10	1
4902551	111	C	09/11/2023	11:11	-131.190	47.338	0	253.60	0	5.8570	0	33.8240	0	26.644	0	251.333	0	118.6	4	39.0	4	-1E+10	1	-1E+10	1	-1E+10	1	-1E+10	1	-1E+10	1	-1E+10	1
4902551	111	C	09/11/2023	11:11	-131.190	47.338	0	254.50	0	5.8560	0	33.8240	0	26.644	0	252.224	0	118.2	4	38.9	4	-1E+10	1	-1E+10	1	-1E+10	1	-1E+10	1	-1E+10	1	-1E+10	1
4902551	111	C	09/11/2023	11:11	-131.190	47.338	0	255.90	0	5.8440	0	33.8270	0	26.648	0	253.611	0	117.6	4	38.7	4	-1E+10	1	-1E+10	1	-1E+10	1	-1E+10	1	-1E+10	1	-1E+10	1
4902551	111	C	09/11/2023	11:11	-131.190	47.338	0	257.30	0	5.8310	0	33.8270	0	26.650	0	254.998	0	116.9	4	38.5	4	-1E+10	1	-1E+10	1	-1E+10	1	-1E+10	1	-1E+10	1	-1E+10	1
4902551	111	C	09/11/2023	11:11	-131.190	47.338	0	258.30	0	5.8070	0	33.8260	0	26.652	0	255.988	0	116.5	4	38.3	4	-1E+10	1	-1E+10	1	-1E+10	1	-1E+10	1	-1E+10	1	-1E+10	1
4902551	111	C	09/11/2023	11:11	-131.190	47.338	0	259.20	0	5.8010	0	33.8250	0	26.652	0	256.879	0	115.9	4	38.1	4	-1E+10	1	-1E+10	1	-1E+10	1	-1E+10	1	-1E+10	1	-1E+10	1
4902551	111	C	09/11/2023	11:11	-131.190	47.338	0	260.10	0	5.7870	0	33.8280	0	26.656	0	257.771	0	115.5	4	37.9	4	-1E+10	1	-1E+10	1	-1E+10	1	-1E+10	1	-1E+10	1	-1E+10	1
4902551	111	C	09/11/2023	11:11	-131.190	47.338	0	261.00	0	5.7770	0	33.8280	0	26.657	0	258.662	0	115.0	4	37.8	4	-1E+10	1	-1E+10	1	-1E+10	1	-1E+10	1	-1E+10	1	-1E+10	1
4902551	111	C	09/11/2023	11:11	-131.190	47.338	0	261.90	0	5.7680	0	33.8300	0	26.660	0	259.554	0	114.7	4	37.7	4	-1E+10	1	-1E+10	1	-1E+10	1	-1E+10	1	-1E+10	1	-1E+10	1
4902551	111	C	09/11/2023	11:11	-131.190	47.338	0	262.80	0	5.7610	0	33.8300	0	26.661	0	260.445	0	114.3	4	37.5	4	-1E+10	1	-1E+10	1	-1E+10	1	-1E+10	1	-1E+10	1	-1E+10	1
4902551	111	C	09/11/2023	11:11	-131.190	47.338	0	263.70	0	5.7300	0	33.8330	0	26.667	0	261.336	0	114.1	4	37.4	4	-1E+10	1	-1E+10	1	-1E+10	1	-1E+10	1	-1E+10	1	-1E+10	1
4902551	111	C	09/11/2023	11:11	-131.190	47.338	0	264.60	0	5.7110	0	33.8290	0	26.666	0	262.228	0	113.7	4	37.3	4	-1E+10	1	-1E+10	1	-1E+10	1	-1E+10	1	-1E+10	1	-1E+10	1
4902551	111	C	09/11/2023	11:11	-131.190	47.338	0	265.90	0	5.7020	0	33.8300	0	26.668	0	263.515	0	113.1	4	37.1	4	-1E+10	1	-1E+10	1	-1E+10	1	-1E+10	1	-1E+10	1	-1E+10	1
4902551	111	C	09/11/2023	11:11	-131.190	47.338	0	267.30	0	5.7000	0	33.8280	0	26.666	0	264.902	0	112.5	4	36.9	4	-1E+10	1	-1E+10	1	-1E+10	1	-1E+10	1	-1E+10	1	-1E+10	1
4902551	111	C	09/11/2023	11:11	-131.190	47.338	0	268.20	0	5.6690	0	33.8370	0	26.677	0	265.793	0	112.1	4	36.7	4	-1E+10	1	-1E+10	1	-1E+10	1	-1E+10	1	-1E+10	1	-1E+10	1
4902551	111	C	09/11/2023	11:11	-131.190	47.338	0	269.10	0	5.6560	0	33.8290	0	26.673	0	266.684	0	111.6	4	36.6	4	-1E+10	1	-1E+10	1	-1E+10	1	-1E+10	1	-1E+10	1	-1E+10	1
4902551	111	C	09/11/2023	11:11	-131.190	47.338	0	270.00	0	5.6450	0	33.8310	0	26.676	0	267.576	0	111.2	4	36.4	4	-1E+10	1	-1E+10	1	-1E+10	1	-1E+10	1	-1E+10	1	-1E+10	1
4902551	111	C	09/11/2023	11:11	-131.190	47.338	0	271.00	0	5.6510	0	33.8310	0	26.675	0	268.566	0	110.7	4	36.3	4	-1E+10	1	-1E+10	1	-1E+10	1	-1E+10	1	-1E+10	1	-1E+10	1
4902551	111	C	09/11/2023	11:11	-131.190	47.338	0	271.90	0	5.6480	0	33.8330	0	26.677	0	269.457	0	110.3	4	36.1	4	-1E+10	1	-1E+10	1	-1E+10	1	-1E+10	1	-1E+10	1	-1E+10	1
4902551	111	C	09/11/2023	11:11	-131.190	47.338	0	272.80	0	5.6460	0	33.8330	0	26.677	0	270.349	0	109.9	4	36.0	4	-1E+10	1	-1E+10	1	-1E+10	1	-1E+10	1	-1E+10	1	-1E+10	1
4902551	111	C	09/11/2023	11:11	-131.190	47.338	0	273.70	0	5.6500	0	33.8370	0	26.680	0	271.240	0	109.6	4	35.9	4	-1E+10	1	-1E+10	1	-1E+10	1	-1E+10	1	-1E+10	1	-1E+10	1
4902551	111	C	09/11/2023	11:11	-131.190	47.338	0	274.70	0	5.6480	0	33.8400	0	26.682	0	272.230	0	109.3	4	35.8	4	-1E+10	1	-1E+10	1	-1E+10	1	-1E+10	1	-1E+10	1	-1E+10	1
4902551	111	C	09/11/2023	11:11	-131.190	47.338	0	275.60	0	5.6480	0	33.8410	0	26.683	0	273.122	0	109.1	4	35.7	4	-1E+10	1	-1E+10	1	-1E+10	1	-1E+10	1	-1E+10	1	-1E+10	1
4902551	111	C	09/11/2023	11:11	-131.190	47.338	0	276.90	0	5.6220	0	33.8420	0	26.687	0	274.409	0	108.7	4	35.6	4	-1E+10	1	-1E+10	1	-1E+10	1	-1E+10	1	-1E+10	1	-1E+10	1
4902551	111	C	09/11/2023	11:11	-131.190	47.338	0	278.30	0	5.6140	0	33.8400	0	26.686	0	275.796	0	108.4	4	35.5	4	-1E+10	1	-1E+10	1	-1E+10	1	-1E+10	1	-1E+10	1	-1E+10	1
4902551	111	C	09/11/2023	11:11	-131.190	47.338	0	279.30	0	5.6090	0	33.8390	0	26.686	0	276.786	0	108.1	4	35.4	4	-1E+10	1	-1E+10	1	-1E+10	1	-1E+10	1	-1E+10	1	-1E+10	1
4902551	111	C	09/11/2023	11:11	-131.190	47.338	0	280.20	0	5.6060	0	33.8390	0	26.687	0	277.677	0	107.8	4	35.3	4	-1E+10	1	-1E+10	1	-1E+10	1	-1E+10	1	-1E+10	1	-1E+10	1
4902551	111	C	09/11/2023	11:11	-131.190	47.338	0	281.10	0	5.6060	0	33.8390	0	26.687	0	278.569	0	107.5	4	35.2	4	-1E+10	1	-1E+10	1	-1E+10	1	-1E+10	1	-1E+10	1	-1E+10	1
4902551	111	C	09/11/2023	11:11	-131.190	47.338	0	282.00	0	5.5970	0	33.8370	0	26.686	0	279.460	0	107.1	4	35.0	4	-1E+10	1	-1E+10	1	-1E+10	1	-1E+10	1	-1E+10	1	-1E+10	1
4902551	111	C	09/11/2023	11:11	-131.190	47.338	0	282.90	0	5.5980	0	33.8390	0	26.688	0	280.351	0	106.7	4	34.9	4	-1E+10	1	-1E+10	1	-1E+10	1	-1E+10	1	-1E+10	1	-1E+10	1
4902551	111	C	09/11/2023	11:11	-131.190	47.338	0	283.80	0	5.5850	0	33.8440	0	26.693	0	281.242	0	106.4	4	34.8	4	-1E+10	1	-1E+10	1	-1E+10	1	-1E+10	1	-1E+10	1	-1E+10	1
4902551	111	C	09/11/2023	11:11	-131.190	47.338	0	284.80	0	5.5660	0	33.8420	0	26.694	0	282.233	0	106.2	4	34.7	4	-1E+10	1	-1E+10	1	-1E+10	1	-1E+10	1	-1E+10	1	-1E+10	1
4902551	111	C	09/11/2023	11:11	-131.190	47.338	0	285.70	0	5.5660	0	33.8430	0	26.695	0	283.124	0	105.9	4	34.6	4	-1E+10	1	-1E+10	1	-1E+10	1	-1E+10	1	-1E+10	1	-1E+10	1
4902551	111	C	09/11/2023	11:11	-131.190	47.338	0	286.60	0	5.5620	0	33.8430	0	26.695	0	284.015	0	105.7	4	34.5	4	-1E+10	1	-1E+10	1	-1E+10	1	-1E+10	1	-1E+10	1	-1E+10	1
4902551	111	C	09/11/2023	11:11	-131.190	47.338	0	287.50	0	5.5500	0	33.8410	0	26.695	0	284.907	0	105.4	4	34.4	4	-1E+10	1	-1E+10	1	-1E+10	1	-1E+10	1	-1E+10	1	-1E+10	1
4902551	111	C	09/11/2023	11:11	-131.190	47.338	0	288.90	0	5.5420	0	33.8420	0	26.697	0	286.293	0	104.9	4	34.3	4	-1E+10	1	-1E+10	1	-1E+10	1	-1E+10	1	-1E+10	1	-1E+10	1
4902551	111	C	09/11/2023	11:11	-131.190	47.338	0	290.30	0	5.5350	0	33.8420	0	26.698	0	287.679	0	104.4	4	34.1	4	-1E+10	1	-1E+10	1	-1E+10	1	-1E+10	1	-1E+10	1	-1E+10	1
4902551	111	C	09/11/2023	11:11	-131.190	47.338	0	291.20	0	5.5360	0	33.8410	0	26.697	0	288.571	0	104.0	4	34.0	4	-1E+10	1	-1E+10	1	-1E+10	1	-1E+10	1	-1E+10	1	-1E+10	1
4902551	111	C	09/11/2023	11:11	-131.190	47.338	0	292.20	0	5.5140	0	33.8450	0	26.703	0	289.561	0	103.6	4	33.8	4	-1E+10	1	-1E+10	1	-1E+10	1	-1E+10	1	-1E+10	1	-1E+10	1
4902551	111	C	09/11/2023	11:11	-131.190	47.338	0	293.10	0	5.4960	0	33.8450	0	26.705	0	290.452	0	103.3	4	33.7	4	-1E+10	1	-1E+10	1	-1E+10	1	-1E+10	1	-1E+10	1	-1E+10	1
4902551	111	C	09/11/2023	11:11	-131.190	47.338	0	294.00	0	5.4870	0	33.8410	0	26.703	0	291.343	0	103.0	4	33.6	4	-1E+10	1	-1E+10	1	-1E+10	1	-1E+10	1	-1E+10	1	-1E+10	1
4902551	111	C	09/11/2023	11:11	-131.190	47.338	0	294.90	0	5.4570	0	33.8430	0	26.708	0	292.235	0	102.7	4	33.5	4	-1E+10	1	-1E+10	1	-1E+10	1	-1E+10	1	-1E+10	1	-1E+10	1
4902551	111	C	09/11/2023	11:11	-131.190	47.338	0	295.80	0	5.4480	0	33.8440	0	26.710	0	293.126	0	102.4	4	33.4	4	-1E+10	1	-1E+10	1	-1E+10	1	-1E+10	1	-1E+10	1	-1E+10	1
4902551	111	C	09/11/2023	11:11	-131.190	47.338	0	296.70	0	5.4430	0	33.8430	0	26.709	0	294.017	0	102.0	4	33.2	4	-1E+10	1	-1E+10	1	-1E+10	1	-1E+10	1	-1E+10	1	-1E+10	1
4902551	111	C	09/11/2023	11:11	-131.190	47.338	0	297.60	0	5.4340	0	33.8430	0	26.710	0	294.908	0	101.7	4	33.1	4	-1E+10	1	-1E+10	1	-1E+10	1	-1E+10	1	-1E+10	1	-1E+10	1
4902551	111	C	09/11/2023	11:11	-131.190	47.338	0	298.60	0	5.4300	0	33.8440	0	26.712	0	295.898	0	101.4	4	33.0	4	-1E+10	1	-1E+10	1	-1E+10	1	-1E+10	1	-1E+10	1	-1E+10	1
4902551	111	C	09/11/2023	11:11	-131.190	47.338	0	299.90	0	5.4060	0	33.8430	0	26.714	0	297.186	0	100.9	4	32.8	4	-1E+10	1	-1E+10	1	-1E+10	1	-1E+10	1	-1E+10	1	-1E+10	1
4902551	111	C	09/11/2023	11:11	-131.190	47.338	0	301.30	0	5.3930	0	33.8430	0	26.715	0	298.572	0	100.3	4	32.6	4	-1E+10	1	-1E+10	1	-1E+10	1	-1E+10	1	-1E+10	1	-1E+10	1
4902551	111	C	09/11/2023	11:11	-131.190	47.338	0	302.20	0	5.3850	0	33.8430	0	26.716	0	299.463	0	99.9	4	32.5	4	-1E+10	1	-1E+10	1	-1E+10	1	-1E+10	1	-1E+10	1	-1E+10	1
4902551	111	C	09/11/2023	11:11	-131.190	47.338	0	303.10	0	5.3750	0	33.8430	0	26.718	0	300.355	0	99.4	4	32.3	4	-1E+10	1	-1E+10	1	-1E+10	1	-1E+10	1	-1E+10	1	-1E+10	1
4902551	111	C	09/11/2023	11:11	-131.190	47.338	0	304.00	0	5.3640	0	33.8470	0	26.722	0	301.246	0	99.0	4	32.2	4	-1E+10	1	-1E+10	1	-1E+10	1	-1E+10	1	-1E+10	1	-1E+10	1
4902551	111	C	09/11/2023	11:11	-131.190	47.338	0	305.00	0	5.3560	0	33.8440	0	26.721	0	302.236	0	98.6	4	32.1	4	-1E+10	1	-1E+10	1	-1E+10	1	-1E+10	1	-1E+10	1	-1E+10	1
4902551	111	C	09/11/2023	11:11	-131.190	47.338	0	305.90	0	5.3550	0	33.8430	0	26.720	0	303.127	0	98.1	4	31.9	4	-1E+10	1	-1E+10	1	-1E+10	1	-1E+10	1	-1E+10	1	-1E+10	1
4902551	111	C	09/11/2023	11:11	-131.190	47.338	0	306.80	0	5.3640	0	33.8510	0	26.725	0	304.018	0	97.7	4	31.8	4	-1E+10	1	-1E+10	1	-1E+10	1	-1E+10	1	-1E+10	1	-1E+10	1
4902551	111	C	09/11/2023	11:11	-131.190	47.338	0	307.70	0	5.3460	0	33.8470	0	26.724	0	304.909	0	97.3	4	31.7	4	-1E+10	1	-1E+10	1	-1E+10	1	-1E+10	1	-1E+10	1	-1E+10	1
4902551	111	C	09/11/2023	11:11	-131.190	47.338	0	308.70	0	5.3400	0	33.8480	0	26.726	0	305.900	0	96.9	4	31.5	4	-1E+10	1	-1E+10	1	-1E+10	1	-1E+10	1	-1E+10	1	-1E+10	1
4902551	111	C	09/11/2023	11:11	-131.190	47.338	0	309.60	0	5.3450	0	33.8550	0	26.731	0	306.791	0	96.5	4	31.4	4	-1E+10	1	-1E+10	1	-1E+10	1	-1E+10	1	-1E+10	1	-1E+10	1
4902551	111	C	09/11/2023	11:11	-131.190	47.338	0	310.50	0	5.3540	0	33.8540	0	26.729	0	307.682	0	96.2	4	31.3	4	-1E+10	1	-1E+10	1	-1E+10	1	-1E+10	1	-1E+10	1	-1E+10	1
4902551	111	C	09/11/2023	11:11	-131.190	47.338	0	311.90	0	5.3350	0	33.8550	0	26.732	0	309.068	0	95.8	4	31.2	4	-1E+10	1	-1E+10	1	-1E+10	1	-1E+10	1	-1E+10	1	-1E+10	1
4902551	111	C	09/11/2023	11:11	-131.190	47.338	0	313.30	0	5.2830	0	33.8510	0	26.735	0	310.454	0	95.4	4	31.0	4	-1E+10	1	-1E+10	1	-1E+10	1	-1E+10	1	-1E+10	1	-1E+10	1
4902551	111	C	09/11/2023	11:11	-131.190	47.338	0	314.30	0	5.2850	0	33.8480	0	26.732	0	311.445	0	95.0	4	30.9	4	-1E+10	1	-1E+10	1	-1E+10	1	-1E+10	1	-1E+10	1	-1E+10	1
4902551	111	C	09/11/2023	11:11	-131.190	47.338	0	315.20	0	5.2910	0	33.8490	0	26.732	0	312.336	0	94.7	4	30.8	4	-1E+10	1	-1E+10	1	-1E+10	1	-1E+10	1	-1E+10	1	-1E+10	1
4902551	111	C	09/11/2023	11:11	-131.190	47.338	0	316.10	0	5.2700	0	33.8530	0	26.738	0	313.227	0	94.3	4	30.6	4	-1E+10	1	-1E+10	1	-1E+10	1	-1E+10	1	-1E+10	1	-1E+10	1
4902551	111	C	09/11/2023	11:11	-131.190	47.338	0	317.10	0	5.2250	0	33.8480	0	26.739	0	314.217	0	94.0	4	30.5	4	-1E+10	1	-1E+10	1	-1E+10	1	-1E+10	1	-1E+10	1	-1E+10	1
4902551	111	C	09/11/2023	11:11	-131.190	47.338	0	318.00	0	5.2140	0	33.8480	0	26.740	0	315.108	0	93.5	4	30.3	4	-1E+10	1	-1E+10	1	-1E+10	1	-1E+10	1	-1E+10	1	-1E+10	1
4902551	111	C	09/11/2023	11:11	-131.190	47.338	0	319.00	0	5.2020	0	33.8470	0	26.741	0	316.098	0	93.1	4	30.2	4	-1E+10	1	-1E+10	1	-1E+10	1	-1E+10	1	-1E+10	1	-1E+10	1
4902551	111	C	09/11/2023	11:11	-131.190	47.338	0	319.90	0	5.2010	0	33.8470	0	26.741	0	316.989	0	92.6	4	30.0	4	-1E+10	1	-1E+10	1	-1E+10	1	-1E+10	1	-1E+10	1	-1E+10	1
4902551	111	C	09/11/2023	11:11	-131.190	47.338	0	320.90	0	5.1920	0	33.8480	0	26.743	0	317.980	0	92.0	4	29.8	4	-1E+10	1	-1E+10	1	-1E+10	1	-1E+10	1	-1E+10	1	-1E+10	1
4902551	111	C	09/11/2023	11:11	-131.190	47.338	0	321.80	0	5.1750	0	33.8500	0	26.747	0	318.871	0	91.3	4	29.6	4	-1E+10	1	-1E+10	1	-1E+10	1	-1E+10	1	-1E+10	1	-1E+10	1
4902551	111	C	09/11/2023	11:11	-131.190	47.338	0	322.80	0	5.1640	0	33.8460	0	26.745	0	319.861	0	90.5	4	29.3	4	-1E+10	1	-1E+10	1	-1E+10	1	-1E+10	1	-1E+10	1	-1E+10	1
4902551	111	C	09/11/2023	11:11	-131.190	47.338	0	323.70	0	5.1600	0	33.8460	0	26.745	0	320.752	0	89.7	4	29.0	4	-1E+10	1	-1E+10	1	-1E+10	1	-1E+10	1	-1E+10	1	-1E+10	1
4902551	111	C	09/11/2023	11:11	-131.190	47.338	0	324.70	0	5.1780	0	33.8500	0	26.746	0	321.742	0	88.9	4	28.8	4	-1E+10	1	-1E+10	1	-1E+10	1	-1E+10	1	-1E+10	1	-1E+10	1
4902551	111	C	09/11/2023	11:11	-131.190	47.338	0	325.60	0	5.1390	0	33.8540	0	26.754	0	322.633	0	88.0	4	28.5	4	-1E+10	1	-1E+10	1	-1E+10	1	-1E+10	1	-1E+10	1	-1E+10	1
4902551	111	C	09/11/2023	11:11	-131.190	47.338	0	326.60	0	5.1370	0	33.8570	0	26.756	0	323.623	0	87.3	4	28.3	4	-1E+10	1	-1E+10	1	-1E+10	1	-1E+10	1	-1E+10	1	-1E+10	1
4902551	111	C	09/11/2023	11:11	-131.190	47.338	0	327.60	0	5.1130	0	33.8600	0	26.762	0	324.613	0	86.7	4	28.0	4	-1E+10	1	-1E+10	1	-1E+10	1	-1E+10	1	-1E+10	1	-1E+10	1
4902551	111	C	09/11/2023	11:11	-131.190	47.338	0	328.50	0	5.0930	0	33.8650	0	26.768	0	325.504	0	86.0	4	27.8	4	-1E+10	1	-1E+10	1	-1E+10	1	-1E+10	1	-1E+10	1	-1E+10	1
4902551	111	C	09/11/2023	11:11	-131.190	47.338	0	329.50	0	5.1060	0	33.8520	0	26.756	0	326.495	0	85.4	4	27.6	4	-1E+10	1	-1E+10	1	-1E+10	1	-1E+10	1	-1E+10	1	-1E+10	1
4902551	111	C	09/11/2023	11:11	-131.190	47.338	0	330.50	0	5.1740	0	33.8780	0	26.769	0	327.485	0	84.9	4	27.5	4	-1E+10	1	-1E+10	1	-1E+10	1	-1E+10	1	-1E+10	1	-1E+10	1
4902551	111	C	09/11/2023	11:11	-131.190	47.338	0	331.50	0	5.1770	0	33.8810	0	26.771	0	328.475	0	84.7	4	27.4	4	-1E+10	1	-1E+10	1	-1E+10	1	-1E+10	1	-1E+10	1	-1E+10	1
4902551	111	C	09/11/2023	11:11	-131.190	47.338	0	332.50	0	5.1800	0	33.8810	0	26.771	0	329.465	0	84.3	4	27.3	4	-1E+10	1	-1E+10	1	-1E+10	1	-1E+10	1	-1E+10	1	-1E+10	1
4902551	111	C	09/11/2023	11:11	-131.190	47.338	0	333.50	0	5.1750	0	33.8840	0	26.774	0	330.455	0	84.1	4	27.3	4	-1E+10	1	-1E+10	1	-1E+10	1	-1E+10	1	-1E+10	1	-1E+10	1
4902551	111	C	09/11/2023	11:11	-131.190	47.338	0	334.50	0	5.1700	0	33.8800	0	26.771	0	331.445	0	83.9	4	27.2	4	-1E+10	1	-1E+10	1	-1E+10	1	-1E+10	1	-1E+10	1	-1E+10	1
4902551	111	C	09/11/2023	11:11	-131.190	47.338	0	335.50	0	5.1750	0	33.8860	0	26.775	0	332.435	0	83.7	4	27.1	4	-1E+10	1	-1E+10	1	-1E+10	1	-1E+10	1	-1E+10	1	-1E+10	1
4902551	111	C	09/11/2023	11:11	-131.190	47.338	0	336.90	0	5.1700	0	33.8860	0	26.776	0	333.821	0	83.4	4	27.0	4	-1E+10	1	-1E+10	1	-1E+10	1	-1E+10	1	-1E+10	1	-1E+10	1
4902551	111	C	09/11/2023	11:11	-131.190	47.338	0	338.40	0	5.1620	0	33.8870	0	26.777	0	335.306	0	83.0	4	26.9	4	-1E+10	1	-1E+10	1	-1E+10	1	-1E+10	1	-1E+10	1	-1E+10	1
4902551	111	C	09/11/2023	11:11	-131.190	47.338	0	339.30	0	5.1590	0	33.8880	0	26.779	0	336.197	0	82.8	4	26.8	4	-1E+10	1	-1E+10	1	-1E+10	1	-1E+10	1	-1E+10	1	-1E+10	1
4902551	111	C	09/11/2023	11:11	-131.190	47.338	0	340.20	0	5.1470	0	33.8870	0	26.779	0	337.088	0	82.4	4	26.7	4	-1E+10	1	-1E+10	1	-1E+10	1	-1E+10	1	-1E+10	1	-1E+10	1
4902551	111	C	09/11/2023	11:11	-131.190	47.338	0	341.30	0	5.1410	0	33.8850	0	26.778	0	338.177	0	82.1	4	26.6	4	-1E+10	1	-1E+10	1	-1E+10	1	-1E+10	1	-1E+10	1	-1E+10	1
4902551	111	C	09/11/2023	11:11	-131.190	47.338	0	342.00	0	5.1410	0	33.8850	0	26.778	0	338.870	0	81.8	4	26.5	4	-1E+10	1	-1E+10	1	-1E+10	1	-1E+10	1	-1E+10	1	-1E+10	1
4902551	111	C	09/11/2023	11:11	-131.190	47.338	0	343.00	0	5.1220	0	33.8820	0	26.778	0	339.860	0	81.4	4	26.3	4	-1E+10	1	-1E+10	1	-1E+10	1	-1E+10	1	-1E+10	1	-1E+10	1
4902551	111	C	09/11/2023	11:11	-131.190	47.338	0	344.20	0	5.0760	0	33.8840	0	26.785	0	341.048	0	81.0	4	26.2	4	-1E+10	1	-1E+10	1	-1E+10	1	-1E+10	1	-1E+10	1	-1E+10	1
4902551	111	C	09/11/2023	11:11	-131.190	47.338	0	344.90	0	5.0590	0	33.8810	0	26.785	0	341.741	0	80.7	4	26.1	4	-1E+10	1	-1E+10	1	-1E+10	1	-1E+10	1	-1E+10	1	-1E+10	1
4902551	111	C	09/11/2023	11:11	-131.190	47.338	0	346.00	0	5.0230	0	33.8860	0	26.793	0	342.830	0	80.3	4	25.9	4	-1E+10	1	-1E+10	1	-1E+10	1	-1E+10	1	-1E+10	1	-1E+10	1
4902551	111	C	09/11/2023	11:11	-131.190	47.338	0	347.10	0	4.9820	0	33.8820	0	26.794	0	343.919	0	79.8	4	25.7	4	-1E+10	1	-1E+10	1	-1E+10	1	-1E+10	1	-1E+10	1	-1E+10	1
4902551	111	C	09/11/2023	11:11	-131.190	47.338	0	347.90	0	4.9680	0	33.8750	0	26.790	0	344.711	0	79.5	4	25.6	4	-1E+10	1	-1E+10	1	-1E+10	1	-1E+10	1	-1E+10	1	-1E+10	1
4902551	111	C	09/11/2023	11:11	-131.190	47.338	0	349.00	0	4.9460	0	33.8740	0	26.792	0	345.800	0	78.9	4	25.4	4	-1E+10	1	-1E+10	1	-1E+10	1	-1E+10	1	-1E+10	1	-1E+10	1
4902551	111	C	09/11/2023	11:11	-131.190	47.338	0	350.20	0	4.9440	0	33.8770	0	26.794	0	346.988	0	78.3	4	25.2	4	-1E+10	1	-1E+10	1	-1E+10	1	-1E+10	1	-1E+10	1	-1E+10	1
4902551	111	C	09/11/2023	11:11	-131.190	47.338	0	352.90	0	4.9600	0	33.8860	0	26.800	0	349.661	0	77.4	4	24.9	4	-1E+10	1	-1E+10	1	-1E+10	1	-1E+10	1	-1E+10	1	-1E+10	1
4902551	111	C	09/11/2023	11:11	-131.190	47.338	0	357.70	0	4.9230	0	33.8900	0	26.807	0	354.413	0	76.6	4	24.7	4	-1E+10	1	-1E+10	1	-1E+10	1	-1E+10	1	-1E+10	1	-1E+10	1
4902551	111	C	09/11/2023	11:11	-131.190	47.338	0	362.70	0	4.8180	0	33.8790	0	26.810	0	359.363	0	75.7	4	24.3	4	-1E+10	1	-1E+10	1	-1E+10	1	-1E+10	1	-1E+10	1	-1E+10	1
4902551	111	C	09/11/2023	11:11	-131.190	47.338	0	367.80	0	4.7900	0	33.8800	0	26.814	0	364.412	0	74.0	4	23.8	4	-1E+10	1	-1E+10	1	-1E+10	1	-1E+10	1	-1E+10	1	-1E+10	1
4902551	111	C	09/11/2023	11:11	-131.190	47.338	0	373.00	0	4.7640	0	33.8840	0	26.820	0	369.559	0	72.3	4	23.2	4	-1E+10	1	-1E+10	1	-1E+10	1	-1E+10	1	-1E+10	1	-1E+10	1
4902551	111	C	09/11/2023	11:11	-131.190	47.338	0	377.90	0	4.7470	0	33.8880	0	26.825	0	374.409	0	70.5	4	22.6	4	-1E+10	1	-1E+10	1	-1E+10	1	-1E+10	1	-1E+10	1	-1E+10	1
4902551	111	C	09/11/2023	11:11	-131.190	47.338	0	382.90	0	4.7280	0	33.8960	0	26.834	0	379.359	0	68.9	4	22.1	4	-1E+10	1	-1E+10	1	-1E+10	1	-1E+10	1	-1E+10	1	-1E+10	1
4902551	111	C	09/11/2023	11:11	-131.190	47.338	0	387.90	0	4.7140	0	33.8990	0	26.838	0	384.308	0	67.3	4	21.6	4	-1E+10	1	-1E+10	1	-1E+10	1	-1E+10	1	-1E+10	1	-1E+10	1
4902551	111	C	09/11/2023	11:11	-131.190	47.338	0	392.60	0	4.6840	0	33.9070	0	26.848	0	388.960	0	65.4	4	20.9	4	-1E+10	1	-1E+10	1	-1E+10	1	-1E+10	1	-1E+10	1	-1E+10	1
4902551	111	C	09/11/2023	11:11	-131.190	47.338	0	397.90	0	4.6460	0	33.9110	0	26.855	0	394.206	0	63.9	4	20.4	4	-1E+10	1	-1E+10	1	-1E+10	1	-1E+10	1	-1E+10	1	-1E+10	1
4902551	111	C	09/11/2023	11:11	-131.190	47.338	0	403.20	0	4.6170	0	33.9170	0	26.863	0	399.451	0	62.4	4	20.0	4	-1E+10	1	-1E+10	1	-1E+10	1	-1E+10	1	-1E+10	1	-1E+10	1
4902551	111	C	09/11/2023	11:11	-131.190	47.338	0	408.10	0	4.6680	0	33.9300	0	26.868	0	404.301	0	61.3	4	19.6	4	-1E+10	1	-1E+10	1	-1E+10	1	-1E+10	1	-1E+10	1	-1E+10	1
4902551	111	C	09/11/2023	11:11	-131.190	47.338	0	413.00	0	4.6280	0	33.9290	0	26.871	0	409.151	0	60.3	4	19.3	4	-1E+10	1	-1E+10	1	-1E+10	1	-1E+10	1	-1E+10	1	-1E+10	1
4902551	111	C	09/11/2023	11:11	-131.190	47.338	0	417.90	0	4.5620	0	33.9310	0	26.880	0	414.000	0	59.3	4	19.0	4	-1E+10	1	-1E+10	1	-1E+10	1	-1E+10	1	-1E+10	1	-1E+10	1
4902551	111	C	09/11/2023	11:11	-131.190	47.338	0	422.90	0	4.5650	0	33.9350	0	26.883	0	418.948	0	58.4	4	18.6	4	-1E+10	1	-1E+10	1	-1E+10	1	-1E+10	1	-1E+10	1	-1E+10	1
4902551	111	C	09/11/2023	11:11	-131.190	47.338	0	427.90	0	4.5410	0	33.9370	0	26.887	0	423.896	0	57.1	4	18.2	4	-1E+10	1	-1E+10	1	-1E+10	1	-1E+10	1	-1E+10	1	-1E+10	1
4902551	111	C	09/11/2023	11:11	-131.190	47.338	0	432.80	0	4.5610	0	33.9450	0	26.891	0	428.746	0	55.7	4	17.8	4	-1E+10	1	-1E+10	1	-1E+10	1	-1E+10	1	-1E+10	1	-1E+10	1
4902551	111	C	09/11/2023	11:11	-131.190	47.338	0	437.80	0	4.5130	0	33.9480	0	26.899	0	433.694	0	54.6	4	17.4	4	-1E+10	1	-1E+10	1	-1E+10	1	-1E+10	1	-1E+10	1	-1E+10	1
4902551	111	C	09/11/2023	11:11	-131.190	47.338	0	442.90	0	4.5060	0	33.9520	0	26.903	0	438.740	0	53.2	4	17.0	4	-1E+10	1	-1E+10	1	-1E+10	1	-1E+10	1	-1E+10	1	-1E+10	1
4902551	111	C	09/11/2023	11:11	-131.190	47.338	0	447.80	0	4.5440	0	33.9640	0	26.908	0	443.589	0	52.1	4	16.6	4	-1E+10	1	-1E+10	1	-1E+10	1	-1E+10	1	-1E+10	1	-1E+10	1
4902551	111	C	09/11/2023	11:11	-131.190	47.338	0	452.70	0	4.4690	0	33.9620	0	26.915	0	448.438	0	50.9	4	16.2	4	-1E+10	1	-1E+10	1	-1E+10	1	-1E+10	1	-1E+10	1	-1E+10	1
4902551	111	C	09/11/2023	11:11	-131.190	47.338	0	457.60	0	4.5100	0	33.9780	0	26.923	0	453.286	0	49.6	4	15.8	4	-1E+10	1	-1E+10	1	-1E+10	1	-1E+10	1	-1E+10	1	-1E+10	1
4902551	111	C	09/11/2023	11:11	-131.190	47.338	0	462.90	0	4.4520	0	33.9760	0	26.928	0	458.530	0	48.8	4	15.5	4	-1E+10	1	-1E+10	1	-1E+10	1	-1E+10	1	-1E+10	1	-1E+10	1
4902551	111	C	09/11/2023	11:11	-131.190	47.338	0	468.20	0	4.4160	0	33.9770	0	26.933	0	463.774	0	47.5	4	15.1	4	-1E+10	1	-1E+10	1	-1E+10	1	-1E+10	1	-1E+10	1	-1E+10	1
4902551	111	C	09/11/2023	11:11	-131.190	47.338	0	472.90	0	4.4060	0	33.9860	0	26.941	0	468.425	0	46.2	4	14.7	4	-1E+10	1	-1E+10	1	-1E+10	1	-1E+10	1	-1E+10	1	-1E+10	1
4902551	111	C	09/11/2023	11:11	-131.190	47.338	0	477.70	0	4.3970	0	33.9920	0	26.947	0	473.174	0	45.1	4	14.4	4	-1E+10	1	-1E+10	1	-1E+10	1	-1E+10	1	-1E+10	1	-1E+10	1
4902551	111	C	09/11/2023	11:11	-131.190	47.338	0	483.00	0	4.3910	0	33.9970	0	26.951	0	478.418	0	44.0	4	14.0	4	-1E+10	1	-1E+10	1	-1E+10	1	-1E+10	1	-1E+10	1	-1E+10	1
4902551	111	C	09/11/2023	11:11	-131.190	47.338	0	488.10	0	4.3850	0	34.0030	0	26.957	0	483.463	0	42.6	4	13.6	4	-1E+10	1	-1E+10	1	-1E+10	1	-1E+10	1	-1E+10	1	-1E+10	1
4902551	111	C	09/11/2023	11:11	-131.190	47.338	0	492.80	0	4.3860	0	34.0110	0	26.963	0	488.113	0	41.4	4	13.2	4	-1E+10	1	-1E+10	1	-1E+10	1	-1E+10	1	-1E+10	1	-1E+10	1
4902551	111	C	09/11/2023	11:11	-131.190	47.338	0	498.00	0	4.3930	0	34.0180	0	26.968	0	493.257	0	40.0	4	12.7	4	-1E+10	1	-1E+10	1	-1E+10	1	-1E+10	1	-1E+10	1	-1E+10	1
4902551	111	C	09/11/2023	11:11	-131.190	47.338	0	503.00	0	4.3930	0	34.0250	0	26.974	0	498.204	0	38.5	4	12.3	4	-1E+10	1	-1E+10	1	-1E+10	1	-1E+10	1	-1E+10	1	-1E+10	1
4902551	111	C	09/11/2023	11:11	-131.190	47.338	0	507.70	0	4.3810	0	34.0290	0	26.978	0	502.853	0	36.6	4	11.7	4	-1E+10	1	-1E+10	1	-1E+10	1	-1E+10	1	-1E+10	1	-1E+10	1
4902551	111	C	09/11/2023	11:11	-131.190	47.338	0	512.70	0	4.3880	0	34.0440	0	26.989	0	507.799	0	34.6	4	11.0	4	-1E+10	1	-1E+10	1	-1E+10	1	-1E+10	1	-1E+10	1	-1E+10	1
4902551	111	C	09/11/2023	11:11	-131.190	47.338	0	518.10	0	4.3870	0	34.0560	0	26.999	0	513.141	0	33.3	4	10.6	4	-1E+10	1	-1E+10	1	-1E+10	1	-1E+10	1	-1E+10	1	-1E+10	1
4902551	111	C	09/11/2023	11:11	-131.190	47.338	0	523.10	0	4.3710	0	34.0600	0	27.004	0	518.087	0	32.2	4	10.2	4	-1E+10	1	-1E+10	1	-1E+10	1	-1E+10	1	-1E+10	1	-1E+10	1
4902551	111	C	09/11/2023	11:11	-131.190	47.338	0	528.00	0	4.3680	0	34.0650	0	27.008	0	522.934	0	31.0	4	9.9	4	-1E+10	1	-1E+10	1	-1E+10	1	-1E+10	1	-1E+10	1	-1E+10	1
4902551	111	C	09/11/2023	11:11	-131.190	47.338	0	533.10	0	4.3520	0	34.0720	0	27.015	0	527.979	0	29.8	4	9.5	4	-1E+10	1	-1E+10	1	-1E+10	1	-1E+10	1	-1E+10	1	-1E+10	1
4902551	111	C	09/11/2023	11:11	-131.190	47.338	0	537.70	0	4.3380	0	34.0760	0	27.020	0	532.529	0	28.7	4	9.1	4	-1E+10	1	-1E+10	1	-1E+10	1	-1E+10	1	-1E+10	1	-1E+10	1
4902551	111	C	09/11/2023	11:11	-131.190	47.338	0	542.90	0	4.3110	0	34.0830	0	27.029	0	537.672	0	27.3	4	8.7	4	-1E+10	1	-1E+10	1	-1E+10	1	-1E+10	1	-1E+10	1	-1E+10	1
4902551	111	C	09/11/2023	11:11	-131.190	47.338	0	548.20	0	4.3000	0	34.0920	0	27.037	0	542.914	0	25.6	4	8.1	4	-1E+10	1	-1E+10	1	-1E+10	1	-1E+10	1	-1E+10	1	-1E+10	1
4902551	111	C	09/11/2023	11:11	-131.190	47.338	0	553.10	0	4.2940	0	34.1040	0	27.047	0	547.760	0	24.4	4	7.8	4	-1E+10	1	-1E+10	1	-1E+10	1	-1E+10	1	-1E+10	1	-1E+10	1
4902551	111	C	09/11/2023	11:11	-131.190	47.338	0	557.70	0	4.2880	0	34.1080	0	27.051	0	552.310	0	23.3	4	7.4	4	-1E+10	1	-1E+10	1	-1E+10	1	-1E+10	1	-1E+10	1	-1E+10	1
4902551	111	C	09/11/2023	11:11	-131.190	47.338	0	562.90	0	4.2950	0	34.1200	0	27.060	0	557.452	0	22.6	4	7.2	4	-1E+10	1	-1E+10	1	-1E+10	1	-1E+10	1	-1E+10	1	-1E+10	1
4902551	111	C	09/11/2023	11:11	-131.190	47.338	0	568.20	0	4.2880	0	34.1220	0	27.062	0	562.694	0	22.2	4	7.0	4	-1E+10	1	-1E+10	1	-1E+10	1	-1E+10	1	-1E+10	1	-1E+10	1
4902551	111	C	09/11/2023	11:11	-131.190	47.338	0	572.90	0	4.2840	0	34.1240	0	27.064	0	567.342	0	21.6	4	6.9	4	-1E+10	1	-1E+10	1	-1E+10	1	-1E+10	1	-1E+10	1	-1E+10	1
4902551	111	C	09/11/2023	11:11	-131.190	47.338	0	577.70	0	4.2800	0	34.1290	0	27.069	0	572.089	0	21.0	4	6.7	4	-1E+10	1	-1E+10	1	-1E+10	1	-1E+10	1	-1E+10	1	-1E+10	1
4902551	111	C	09/11/2023	11:11	-131.190	47.338	0	583.00	0	4.2720	0	34.1330	0	27.073	0	577.330	0	20.5	4	6.5	4	-1E+10	1	-1E+10	1	-1E+10	1	-1E+10	1	-1E+10	1	-1E+10	1
4902551	111	C	09/11/2023	11:11	-131.190	47.338	0	588.00	0	4.2620	0	34.1370	0	27.077	0	582.274	0	20.2	4	6.4	4	-1E+10	1	-1E+10	1	-1E+10	1	-1E+10	1	-1E+10	1	-1E+10	1
4902551	111	C	09/11/2023	11:11	-131.190	47.338	0	592.70	0	4.2600	0	34.1380	0	27.078	0	586.922	0	20.0	4	6.4	4	-1E+10	1	-1E+10	1	-1E+10	1	-1E+10	1	-1E+10	1	-1E+10	1
4902551	111	C	09/11/2023	11:11	-131.190	47.338	0	597.50	0	4.2320	0	34.1380	0	27.081	0	591.668	0	19.7	4	6.2	4	-1E+10	1	-1E+10	1	-1E+10	1	-1E+10	1	-1E+10	1	-1E+10	1
4902551	111	C	09/11/2023	11:11	-131.190	47.338	0	602.90	0	4.2230	0	34.1430	0	27.086	0	597.008	0	19.2	4	6.1	4	-1E+10	1	-1E+10	1	-1E+10	1	-1E+10	1	-1E+10	1	-1E+10	1
4902551	111	C	09/11/2023	11:11	-131.190	47.338	0	608.30	0	4.2200	0	34.1480	0	27.090	0	602.347	0	18.7	4	5.9	4	-1E+10	1	-1E+10	1	-1E+10	1	-1E+10	1	-1E+10	1	-1E+10	1
4902551	111	C	09/11/2023	11:11	-131.190	47.338	0	613.30	0	4.2050	0	34.1510	0	27.094	0	607.291	0	18.5	4	5.9	4	-1E+10	1	-1E+10	1	-1E+10	1	-1E+10	1	-1E+10	1	-1E+10	1
4902551	111	C	09/11/2023	11:11	-131.190	47.338	0	618.30	0	4.1890	0	34.1520	0	27.097	0	612.235	0	18.2	4	5.8	4	-1E+10	1	-1E+10	1	-1E+10	1	-1E+10	1	-1E+10	1	-1E+10	1
4902551	111	C	09/11/2023	11:11	-131.190	47.338	0	623.30	0	4.1620	0	34.1560	0	27.103	0	617.178	0	17.9	4	5.7	4	-1E+10	1	-1E+10	1	-1E+10	1	-1E+10	1	-1E+10	1	-1E+10	1
4902551	111	C	09/11/2023	11:11	-131.190	47.338	0	628.40	0	4.1400	0	34.1590	0	27.108	0	622.221	0	17.2	4	5.5	4	-1E+10	1	-1E+10	1	-1E+10	1	-1E+10	1	-1E+10	1	-1E+10	1
4902551	111	C	09/11/2023	11:11	-131.190	47.338	0	632.90	0	4.1310	0	34.1650	0	27.113	0	626.670	0	16.6	4	5.3	4	-1E+10	1	-1E+10	1	-1E+10	1	-1E+10	1	-1E+10	1	-1E+10	1
4902551	111	C	09/11/2023	11:11	-131.190	47.338	0	637.50	0	4.1340	0	34.1700	0	27.117	0	631.217	0	16.0	4	5.1	4	-1E+10	1	-1E+10	1	-1E+10	1	-1E+10	1	-1E+10	1	-1E+10	1
4902551	111	C	09/11/2023	11:11	-131.190	47.338	0	642.60	0	4.1290	0	34.1760	0	27.122	0	636.259	0	15.6	4	4.9	4	-1E+10	1	-1E+10	1	-1E+10	1	-1E+10	1	-1E+10	1	-1E+10	1
4902551	111	C	09/11/2023	11:11	-131.190	47.338	0	647.70	0	4.1070	0	34.1790	0	27.127	0	641.301	0	14.9	4	4.7	4	-1E+10	1	-1E+10	1	-1E+10	1	-1E+10	1	-1E+10	1	-1E+10	1
4902551	111	C	09/11/2023	11:11	-131.190	47.338	0	652.90	0	4.1200	0	34.1900	0	27.134	0	646.442	0	14.4	4	4.6	4	-1E+10	1	-1E+10	1	-1E+10	1	-1E+10	1	-1E+10	1	-1E+10	1
4902551	111	C	09/11/2023	11:11	-131.190	47.338	0	658.20	0	4.0970	0	34.1940	0	27.140	0	651.681	0	13.9	4	4.4	4	-1E+10	1	-1E+10	1	-1E+10	1	-1E+10	1	-1E+10	1	-1E+10	1
4902551	111	C	09/11/2023	11:11	-131.190	47.338	0	662.90	0	4.1120	0	34.2010	0	27.144	0	656.327	0	13.5	4	4.3	4	-1E+10	1	-1E+10	1	-1E+10	1	-1E+10	1	-1E+10	1	-1E+10	1
4902551	111	C	09/11/2023	11:11	-131.190	47.338	0	667.70	0	4.1070	0	34.2030	0	27.146	0	661.072	0	13.2	4	4.2	4	-1E+10	1	-1E+10	1	-1E+10	1	-1E+10	1	-1E+10	1	-1E+10	1
4902551	111	C	09/11/2023	11:11	-131.190	47.338	0	672.90	0	4.1050	0	34.2080	0	27.150	0	666.212	0	12.8	4	4.0	4	-1E+10	1	-1E+10	1	-1E+10	1	-1E+10	1	-1E+10	1	-1E+10	1
4902551	111	C	09/11/2023	11:11	-131.190	47.338	0	678.20	0	4.1070	0	34.2160	0	27.157	0	671.451	0	12.5	4	3.9	4	-1E+10	1	-1E+10	1	-1E+10	1	-1E+10	1	-1E+10	1	-1E+10	1
4902551	111	C	09/11/2023	11:11	-131.190	47.338	0	682.90	0	4.0920	0	34.2200	0	27.161	0	676.096	0	12.3	4	3.9	4	-1E+10	1	-1E+10	1	-1E+10	1	-1E+10	1	-1E+10	1	-1E+10	1
4902551	111	C	09/11/2023	11:11	-131.190	47.338	0	687.80	0	4.0840	0	34.2230	0	27.165	0	680.939	0	12.2	4	3.9	4	-1E+10	1	-1E+10	1	-1E+10	1	-1E+10	1	-1E+10	1	-1E+10	1
4902551	111	C	09/11/2023	11:11	-131.190	47.338	0	693.20	0	4.0700	0	34.2270	0	27.169	0	686.277	0	12.2	4	3.9	4	-1E+10	1	-1E+10	1	-1E+10	1	-1E+10	1	-1E+10	1	-1E+10	1
4902551	111	C	09/11/2023	11:11	-131.190	47.338	0	698.00	0	4.0560	0	34.2270	0	27.171	0	691.021	0	12.2	4	3.9	4	-1E+10	1	-1E+10	1	-1E+10	1	-1E+10	1	-1E+10	1	-1E+10	1
4902551	111	C	09/11/2023	11:11	-131.190	47.338	0	702.70	0	4.0290	0	34.2260	0	27.173	0	695.666	0	12.1	4	3.8	4	-1E+10	1	-1E+10	1	-1E+10	1	-1E+10	1	-1E+10	1	-1E+10	1
4902551	111	C	09/11/2023	11:11	-131.190	47.338	0	708.00	0	4.0010	0	34.2280	0	27.177	0	700.904	0	11.8	4	3.7	4	-1E+10	1	-1E+10	1	-1E+10	1	-1E+10	1	-1E+10	1	-1E+10	1
4902551	111	C	09/11/2023	11:11	-131.190	47.338	0	713.20	0	4.0140	0	34.2370	0	27.183	0	706.043	0	11.5	4	3.6	4	-1E+10	1	-1E+10	1	-1E+10	1	-1E+10	1	-1E+10	1	-1E+10	1
4902551	111	C	09/11/2023	11:11	-131.190	47.338	0	717.90	0	4.0130	0	34.2400	0	27.186	0	710.688	0	11.3	4	3.6	4	-1E+10	1	-1E+10	1	-1E+10	1	-1E+10	1	-1E+10	1	-1E+10	1
4902551	111	C	09/11/2023	11:11	-131.190	47.338	0	722.60	0	4.0050	0	34.2420	0	27.188	0	715.333	0	11.1	4	3.5	4	-1E+10	1	-1E+10	1	-1E+10	1	-1E+10	1	-1E+10	1	-1E+10	1
4902551	111	C	09/11/2023	11:11	-131.190	47.338	0	727.90	0	4.0020	0	34.2480	0	27.193	0	720.570	0	10.8	4	3.4	4	-1E+10	1	-1E+10	1	-1E+10	1	-1E+10	1	-1E+10	1	-1E+10	1
4902551	111	C	09/11/2023	11:11	-131.190	47.338	0	733.20	0	3.9870	0	34.2540	0	27.200	0	725.808	0	10.7	4	3.4	4	-1E+10	1	-1E+10	1	-1E+10	1	-1E+10	1	-1E+10	1	-1E+10	1
4902551	111	C	09/11/2023	11:11	-131.190	47.338	0	738.00	0	3.9670	0	34.2580	0	27.205	0	730.551	0	10.6	4	3.3	4	-1E+10	1	-1E+10	1	-1E+10	1	-1E+10	1	-1E+10	1	-1E+10	1
4902551	111	C	09/11/2023	11:11	-131.190	47.338	0	742.80	0	3.9650	0	34.2600	0	27.207	0	735.294	0	10.5	4	3.3	4	-1E+10	1	-1E+10	1	-1E+10	1	-1E+10	1	-1E+10	1	-1E+10	1
4902551	111	C	09/11/2023	11:11	-131.190	47.338	0	748.00	0	3.9620	0	34.2650	0	27.211	0	740.432	0	10.5	4	3.3	4	-1E+10	1	-1E+10	1	-1E+10	1	-1E+10	1	-1E+10	1	-1E+10	1
4902551	111	C	09/11/2023	11:11	-131.190	47.338	0	753.20	0	3.9490	0	34.2680	0	27.215	0	745.570	0	10.6	4	3.3	4	-1E+10	1	-1E+10	1	-1E+10	1	-1E+10	1	-1E+10	1	-1E+10	1
4902551	111	C	09/11/2023	11:11	-131.190	47.338	0	758.00	0	3.9410	0	34.2690	0	27.216	0	750.313	0	10.9	4	3.4	4	-1E+10	1	-1E+10	1	-1E+10	1	-1E+10	1	-1E+10	1	-1E+10	1
4902551	111	C	09/11/2023	11:11	-131.190	47.338	0	762.90	0	3.8850	0	34.2660	0	27.220	0	755.155	0	11.3	4	3.6	4	-1E+10	1	-1E+10	1	-1E+10	1	-1E+10	1	-1E+10	1	-1E+10	1
4902551	111	C	09/11/2023	11:11	-131.190	47.338	0	767.90	0	3.8190	0	34.2610	0	27.222	0	760.095	0	11.4	4	3.6	4	-1E+10	1	-1E+10	1	-1E+10	1	-1E+10	1	-1E+10	1	-1E+10	1
4902551	111	C	09/11/2023	11:11	-131.190	47.338	0	773.00	0	3.8380	0	34.2680	0	27.226	0	765.133	0	11.7	4	3.7	4	-1E+10	1	-1E+10	1	-1E+10	1	-1E+10	1	-1E+10	1	-1E+10	1
4902551	111	C	09/11/2023	11:11	-131.190	47.338	0	778.10	0	3.7670	0	34.2630	0	27.229	0	770.172	0	12.3	4	3.9	4	-1E+10	1	-1E+10	1	-1E+10	1	-1E+10	1	-1E+10	1	-1E+10	1
4902551	111	C	09/11/2023	11:11	-131.190	47.338	0	783.20	0	3.7230	0	34.2600	0	27.231	0	775.211	0	12.5	4	3.9	4	-1E+10	1	-1E+10	1	-1E+10	1	-1E+10	1	-1E+10	1	-1E+10	1
4902551	111	C	09/11/2023	11:11	-131.190	47.338	0	788.00	0	3.7100	0	34.2610	0	27.233	0	779.953	0	12.5	4	3.9	4	-1E+10	1	-1E+10	1	-1E+10	1	-1E+10	1	-1E+10	1	-1E+10	1
4902551	111	C	09/11/2023	11:11	-131.190	47.338	0	792.80	0	3.6780	0	34.2630	0	27.238	0	784.695	0	12.3	4	3.9	4	-1E+10	1	-1E+10	1	-1E+10	1	-1E+10	1	-1E+10	1	-1E+10	1
4902551	111	C	09/11/2023	11:11	-131.190	47.338	0	797.80	0	3.6670	0	34.2660	0	27.242	0	789.634	0	11.9	4	3.7	4	-1E+10	1	-1E+10	1	-1E+10	1	-1E+10	1	-1E+10	1	-1E+10	1
4902551	111	C	09/11/2023	11:11	-131.190	47.338	0	802.90	0	3.6390	0	34.2690	0	27.247	0	794.672	0	11.3	4	3.5	4	-1E+10	1	-1E+10	1	-1E+10	1	-1E+10	1	-1E+10	1	-1E+10	1
4902551	111	C	09/11/2023	11:11	-131.190	47.338	0	808.10	0	3.6880	0	34.2800	0	27.251	0	799.809	0	10.7	4	3.4	4	-1E+10	1	-1E+10	1	-1E+10	1	-1E+10	1	-1E+10	1	-1E+10	1
4902551	111	C	09/11/2023	11:11	-131.190	47.338	0	813.00	0	3.6870	0	34.2840	0	27.254	0	804.649	0	10.7	4	3.4	4	-1E+10	1	-1E+10	1	-1E+10	1	-1E+10	1	-1E+10	1	-1E+10	1
4902551	111	C	09/11/2023	11:11	-131.190	47.338	0	817.90	0	3.6790	0	34.2860	0	27.256	0	809.490	0	10.8	4	3.4	4	-1E+10	1	-1E+10	1	-1E+10	1	-1E+10	1	-1E+10	1	-1E+10	1
4902551	111	C	09/11/2023	11:11	-131.190	47.338	0	822.80	0	3.6730	0	34.2860	0	27.257	0	814.330	0	10.9	4	3.4	4	-1E+10	1	-1E+10	1	-1E+10	1	-1E+10	1	-1E+10	1	-1E+10	1
4902551	111	C	09/11/2023	11:11	-131.190	47.338	0	827.80	0	3.6470	0	34.2880	0	27.261	0	819.268	0	11.0	4	3.4	4	-1E+10	1	-1E+10	1	-1E+10	1	-1E+10	1	-1E+10	1	-1E+10	1
4902551	111	C	09/11/2023	11:11	-131.190	47.338	0	832.80	0	3.6360	0	34.2910	0	27.265	0	824.207	0	11.1	4	3.5	4	-1E+10	1	-1E+10	1	-1E+10	1	-1E+10	1	-1E+10	1	-1E+10	1
4902551	111	C	09/11/2023	11:11	-131.190	47.338	0	837.80	0	3.6130	0	34.2930	0	27.269	0	829.145	0	11.3	4	3.5	4	-1E+10	1	-1E+10	1	-1E+10	1	-1E+10	1	-1E+10	1	-1E+10	1
4902551	111	C	09/11/2023	11:11	-131.190	47.338	0	842.80	0	3.5930	0	34.2940	0	27.271	0	834.084	0	11.4	4	3.6	4	-1E+10	1	-1E+10	1	-1E+10	1	-1E+10	1	-1E+10	1	-1E+10	1
4902551	111	C	09/11/2023	11:11	-131.190	47.338	0	848.00	0	3.5700	0	34.2940	0	27.274	0	839.220	0	11.5	4	3.6	4	-1E+10	1	-1E+10	1	-1E+10	1	-1E+10	1	-1E+10	1	-1E+10	1
4902551	111	C	09/11/2023	11:11	-131.190	47.338	0	853.20	0	3.5450	0	34.2960	0	27.278	0	844.355	0	11.4	4	3.6	4	-1E+10	1	-1E+10	1	-1E+10	1	-1E+10	1	-1E+10	1	-1E+10	1
4902551	111	C	09/11/2023	11:11	-131.190	47.338	0	857.90	0	3.5390	0	34.2980	0	27.280	0	848.997	0	11.3	4	3.5	4	-1E+10	1	-1E+10	1	-1E+10	1	-1E+10	1	-1E+10	1	-1E+10	1
4902551	111	C	09/11/2023	11:11	-131.190	47.338	0	862.60	0	3.5230	0	34.2990	0	27.282	0	853.639	0	11.2	4	3.5	4	-1E+10	1	-1E+10	1	-1E+10	1	-1E+10	1	-1E+10	1	-1E+10	1
4902551	111	C	09/11/2023	11:11	-131.190	47.338	0	868.00	0	3.5300	0	34.3050	0	27.286	0	858.971	0	11.0	4	3.4	4	-1E+10	1	-1E+10	1	-1E+10	1	-1E+10	1	-1E+10	1	-1E+10	1
4902551	111	C	09/11/2023	11:11	-131.190	47.338	0	872.80	0	3.5170	0	34.3110	0	27.292	0	863.712	0	11.0	4	3.4	4	-1E+10	1	-1E+10	1	-1E+10	1	-1E+10	1	-1E+10	1	-1E+10	1
4902551	111	C	09/11/2023	11:11	-131.190	47.338	0	877.70	0	3.5020	0	34.3120	0	27.295	0	868.550	0	11.0	4	3.4	4	-1E+10	1	-1E+10	1	-1E+10	1	-1E+10	1	-1E+10	1	-1E+10	1
4902551	111	C	09/11/2023	11:11	-131.190	47.338	0	883.10	0	3.4880	0	34.3140	0	27.298	0	873.883	0	11.0	4	3.4	4	-1E+10	1	-1E+10	1	-1E+10	1	-1E+10	1	-1E+10	1	-1E+10	1
4902551	111	C	09/11/2023	11:11	-131.190	47.338	0	888.30	0	3.4870	0	34.3150	0	27.299	0	879.018	0	11.0	4	3.4	4	-1E+10	1	-1E+10	1	-1E+10	1	-1E+10	1	-1E+10	1	-1E+10	1
4902551	111	C	09/11/2023	11:11	-131.190	47.338	0	892.90	0	3.4830	0	34.3160	0	27.300	0	883.560	0	11.0	4	3.4	4	-1E+10	1	-1E+10	1	-1E+10	1	-1E+10	1	-1E+10	1	-1E+10	1
4902551	111	C	09/11/2023	11:11	-131.190	47.338	0	897.90	0	3.4770	0	34.3160	0	27.300	0	888.497	0	10.9	4	3.4	4	-1E+10	1	-1E+10	1	-1E+10	1	-1E+10	1	-1E+10	1	-1E+10	1
4902551	111	C	09/11/2023	11:11	-131.190	47.338	0	902.90	0	3.4830	0	34.3180	0	27.302	0	893.434	0	10.8	4	3.4	4	-1E+10	1	-1E+10	1	-1E+10	1	-1E+10	1	-1E+10	1	-1E+10	1
4902551	111	C	09/11/2023	11:11	-131.190	47.338	0	907.90	0	3.4610	0	34.3260	0	27.310	0	898.371	0	10.9	4	3.4	4	-1E+10	1	-1E+10	1	-1E+10	1	-1E+10	1	-1E+10	1	-1E+10	1
4902551	111	C	09/11/2023	11:11	-131.190	47.338	0	913.00	0	3.4240	0	34.3240	0	27.312	0	903.406	0	11.0	4	3.4	4	-1E+10	1	-1E+10	1	-1E+10	1	-1E+10	1	-1E+10	1	-1E+10	1
4902551	111	C	09/11/2023	11:11	-131.190	47.338	0	918.10	0	3.4140	0	34.3240	0	27.313	0	908.442	0	11.0	4	3.4	4	-1E+10	1	-1E+10	1	-1E+10	1	-1E+10	1	-1E+10	1	-1E+10	1
4902551	111	C	09/11/2023	11:11	-131.190	47.338	0	923.20	0	3.4070	0	34.3240	0	27.314	0	913.477	0	11.0	4	3.4	4	-1E+10	1	-1E+10	1	-1E+10	1	-1E+10	1	-1E+10	1	-1E+10	1
4902551	111	C	09/11/2023	11:11	-131.190	47.338	0	928.30	0	3.4010	0	34.3250	0	27.315	0	918.512	0	10.9	4	3.4	4	-1E+10	1	-1E+10	1	-1E+10	1	-1E+10	1	-1E+10	1	-1E+10	1
4902551	111	C	09/11/2023	11:11	-131.190	47.338	0	932.90	0	3.3960	0	34.3270	0	27.317	0	923.053	0	10.8	4	3.4	4	-1E+10	1	-1E+10	1	-1E+10	1	-1E+10	1	-1E+10	1	-1E+10	1
4902551	111	C	09/11/2023	11:11	-131.190	47.338	0	937.60	0	3.3980	0	34.3310	0	27.320	0	927.693	0	10.6	4	3.3	4	-1E+10	1	-1E+10	1	-1E+10	1	-1E+10	1	-1E+10	1	-1E+10	1
4902551	111	C	09/11/2023	11:11	-131.190	47.338	0	942.80	0	3.4110	0	34.3370	0	27.324	0	932.827	0	10.5	4	3.3	4	-1E+10	1	-1E+10	1	-1E+10	1	-1E+10	1	-1E+10	1	-1E+10	1
4902551	111	C	09/11/2023	11:11	-131.190	47.338	0	948.00	0	3.4140	0	34.3420	0	27.328	0	937.960	0	10.6	4	3.3	4	-1E+10	1	-1E+10	1	-1E+10	1	-1E+10	1	-1E+10	1	-1E+10	1
4902551	111	C	09/11/2023	11:11	-131.190	47.338	0	953.20	0	3.3850	0	34.3440	0	27.332	0	943.093	0	10.9	4	3.4	4	-1E+10	1	-1E+10	1	-1E+10	1	-1E+10	1	-1E+10	1	-1E+10	1
4902551	111	C	09/11/2023	11:11	-131.190	47.338	0	958.00	0	3.3340	0	34.3400	0	27.334	0	947.832	0	11.0	4	3.4	4	-1E+10	1	-1E+10	1	-1E+10	1	-1E+10	1	-1E+10	1	-1E+10	1
4902551	111	C	09/11/2023	11:11	-131.190	47.338	0	962.80	0	3.3150	0	34.3400	0	27.335	0	952.570	0	11.0	4	3.4	4	-1E+10	1	-1E+10	1	-1E+10	1	-1E+10	1	-1E+10	1	-1E+10	1
4902551	111	C	09/11/2023	11:11	-131.190	47.338	0	967.80	0	3.3050	0	34.3420	0	27.338	0	957.505	0	11.1	4	3.4	4	-1E+10	1	-1E+10	1	-1E+10	1	-1E+10	1	-1E+10	1	-1E+10	1
4902551	111	C	09/11/2023	11:11	-131.190	47.338	0	972.80	0	3.2900	0	34.3440	0	27.341	0	962.440	0	11.1	4	3.4	4	-1E+10	1	-1E+10	1	-1E+10	1	-1E+10	1	-1E+10	1	-1E+10	1
4902551	111	C	09/11/2023	11:11	-131.190	47.338	0	977.90	0	3.2790	0	34.3450	0	27.343	0	967.474	0	11.1	4	3.4	4	-1E+10	1	-1E+10	1	-1E+10	1	-1E+10	1	-1E+10	1	-1E+10	1
4902551	111	C	09/11/2023	11:11	-131.190	47.338	0	983.00	0	3.2730	0	34.3470	0	27.345	0	972.508	0	11.1	4	3.4	4	-1E+10	1	-1E+10	1	-1E+10	1	-1E+10	1	-1E+10	1	-1E+10	1
4902551	111	C	09/11/2023	11:11	-131.190	47.338	0	988.20	0	3.2620	0	34.3500	0	27.348	0	977.641	0	11.1	4	3.4	4	-1E+10	1	-1E+10	1	-1E+10	1	-1E+10	1	-1E+10	1	-1E+10	1
4902551	111	C	09/11/2023	11:11	-131.190	47.338	0	992.80	0	3.2480	0	34.3510	0	27.351	0	982.181	0	11.1	4	3.4	4	-1E+10	1	-1E+10	1	-1E+10	1	-1E+10	1	-1E+10	1	-1E+10	1
4902551	111	C	09/11/2023	11:11	-131.190	47.338	0	998.00	0	3.2380	0	34.3530	0	27.353	0	987.313	0	11.1	4	3.4	4	-1E+10	1	-1E+10	1	-1E+10	1	-1E+10	1	-1E+10	1	-1E+10	1
4902551	111	C	09/11/2023	11:11	-131.190	47.338	0	1005.70	0	3.2310	0	34.3550	0	27.355	0	994.912	0	11.1	4	3.4	4	-1E+10	1	-1E+10	1	-1E+10	1	-1E+10	1	-1E+10	1	-1E+10	1
4902551	111	C	09/11/2023	11:11	-131.190	47.338	0	1015.70	0	3.2140	0	34.3590	0	27.360	0	1004.781	0	11.1	4	3.4	4	-1E+10	1	-1E+10	1	-1E+10	1	-1E+10	1	-1E+10	1	-1E+10	1
4902551	111	C	09/11/2023	11:11	-131.190	47.338	0	1025.60	0	3.2010	0	34.3640	0	27.366	0	1014.550	0	11.1	4	3.4	4	-1E+10	1	-1E+10	1	-1E+10	1	-1E+10	1	-1E+10	1	-1E+10	1
4902551	111	C	09/11/2023	11:11	-131.190	47.338	0	1035.60	0	3.1860	0	34.3660	0	27.369	0	1024.418	0	11.2	4	3.5	4	-1E+10	1	-1E+10	1	-1E+10	1	-1E+10	1	-1E+10	1	-1E+10	1
4902551	111	C	09/11/2023	11:11	-131.190	47.338	0	1045.50	0	3.1630	0	34.3690	0	27.373	0	1034.187	0	11.3	4	3.5	4	-1E+10	1	-1E+10	1	-1E+10	1	-1E+10	1	-1E+10	1	-1E+10	1
4902551	111	C	09/11/2023	11:11	-131.190	47.338	0	1055.50	0	3.1390	0	34.3730	0	27.379	0	1044.054	0	11.3	4	3.5	4	-1E+10	1	-1E+10	1	-1E+10	1	-1E+10	1	-1E+10	1	-1E+10	1
4902551	111	C	09/11/2023	11:11	-131.190	47.338	0	1065.50	0	3.1280	0	34.3760	0	27.382	0	1053.920	0	11.4	4	3.5	4	-1E+10	1	-1E+10	1	-1E+10	1	-1E+10	1	-1E+10	1	-1E+10	1
4902551	111	C	09/11/2023	11:11	-131.190	47.338	0	1075.50	0	3.1140	0	34.3800	0	27.387	0	1063.786	0	11.4	4	3.5	4	-1E+10	1	-1E+10	1	-1E+10	1	-1E+10	1	-1E+10	1	-1E+10	1
4902551	111	C	09/11/2023	11:11	-131.190	47.338	0	1085.40	0	3.0890	0	34.3850	0	27.393	0	1073.553	0	11.6	4	3.6	4	-1E+10	1	-1E+10	1	-1E+10	1	-1E+10	1	-1E+10	1	-1E+10	1
4902551	111	C	09/11/2023	11:11	-131.190	47.338	0	1095.30	0	3.0500	0	34.3880	0	27.399	0	1083.320	0	11.7	4	3.6	4	-1E+10	1	-1E+10	1	-1E+10	1	-1E+10	1	-1E+10	1	-1E+10	1
4902551	111	C	09/11/2023	11:11	-131.190	47.338	0	1105.20	0	3.0380	0	34.3940	0	27.405	0	1093.086	0	11.8	4	3.7	4	-1E+10	1	-1E+10	1	-1E+10	1	-1E+10	1	-1E+10	1	-1E+10	1
4902551	111	C	09/11/2023	11:11	-131.190	47.338	0	1115.20	0	3.0060	0	34.3980	0	27.411	0	1102.950	0	12.0	4	3.7	4	-1E+10	1	-1E+10	1	-1E+10	1	-1E+10	1	-1E+10	1	-1E+10	1
4902551	111	C	09/11/2023	11:11	-131.190	47.338	0	1125.30	0	2.9750	0	34.4020	0	27.417	0	1112.912	0	12.2	4	3.8	4	-1E+10	1	-1E+10	1	-1E+10	1	-1E+10	1	-1E+10	1	-1E+10	1
4902551	111	C	09/11/2023	11:11	-131.190	47.338	0	1135.50	0	2.9530	0	34.4070	0	27.423	0	1122.972	0	12.3	4	3.8	4	-1E+10	1	-1E+10	1	-1E+10	1	-1E+10	1	-1E+10	1	-1E+10	1
4902551	111	C	09/11/2023	11:11	-131.190	47.338	0	1145.90	0	2.9620	0	34.4110	0	27.425	0	1133.230	0	12.4	4	3.8	4	-1E+10	1	-1E+10	1	-1E+10	1	-1E+10	1	-1E+10	1	-1E+10	1
4902551	111	C	09/11/2023	11:11	-131.190	47.338	0	1155.40	0	2.9500	0	34.4150	0	27.430	0	1142.599	0	12.6	4	3.9	4	-1E+10	1	-1E+10	1	-1E+10	1	-1E+10	1	-1E+10	1	-1E+10	1
4902551	111	C	09/11/2023	11:11	-131.190	47.338	0	1165.10	0	2.9450	0	34.4190	0	27.434	0	1152.165	0	12.8	4	4.0	4	-1E+10	1	-1E+10	1	-1E+10	1	-1E+10	1	-1E+10	1	-1E+10	1
4902551	111	C	09/11/2023	11:11	-131.190	47.338	0	1175.00	0	2.9180	0	34.4240	0	27.440	0	1161.928	0	13.0	4	4.0	4	-1E+10	1	-1E+10	1	-1E+10	1	-1E+10	1	-1E+10	1	-1E+10	1
4902551	111	C	09/11/2023	11:11	-131.190	47.338	0	1185.20	0	2.9090	0	34.4260	0	27.442	0	1171.986	0	13.3	4	4.1	4	-1E+10	1	-1E+10	1	-1E+10	1	-1E+10	1	-1E+10	1	-1E+10	1
4902551	111	C	09/11/2023	11:11	-131.190	47.338	0	1195.30	0	2.9070	0	34.4310	0	27.447	0	1181.945	0	13.6	4	4.2	4	-1E+10	1	-1E+10	1	-1E+10	1	-1E+10	1	-1E+10	1	-1E+10	1
4902551	111	C	09/11/2023	11:11	-131.190	47.338	0	1205.20	0	2.8930	0	34.4350	0	27.451	0	1191.706	0	13.7	4	4.2	4	-1E+10	1	-1E+10	1	-1E+10	1	-1E+10	1	-1E+10	1	-1E+10	1
4902551	111	C	09/11/2023	11:11	-131.190	47.338	0	1215.40	0	2.8590	0	34.4360	0	27.455	0	1201.763	0	13.8	4	4.2	4	-1E+10	1	-1E+10	1	-1E+10	1	-1E+10	1	-1E+10	1	-1E+10	1
4902551	111	C	09/11/2023	11:11	-131.190	47.338	0	1225.60	0	2.8280	0	34.4360	0	27.458	0	1211.819	0	14.0	4	4.3	4	-1E+10	1	-1E+10	1	-1E+10	1	-1E+10	1	-1E+10	1	-1E+10	1
4902551	111	C	09/11/2023	11:11	-131.190	47.338	0	1235.50	0	2.8260	0	34.4390	0	27.460	0	1221.579	0	14.4	4	4.4	4	-1E+10	1	-1E+10	1	-1E+10	1	-1E+10	1	-1E+10	1	-1E+10	1
4902551	111	C	09/11/2023	11:11	-131.190	47.338	0	1245.30	0	2.8080	0	34.4430	0	27.465	0	1231.240	0	14.6	4	4.5	4	-1E+10	1	-1E+10	1	-1E+10	1	-1E+10	1	-1E+10	1	-1E+10	1
4902551	111	C	09/11/2023	11:11	-131.190	47.338	0	1255.50	0	2.7870	0	34.4450	0	27.469	0	1241.294	0	15.0	4	4.6	4	-1E+10	1	-1E+10	1	-1E+10	1	-1E+10	1	-1E+10	1	-1E+10	1
4902551	111	C	09/11/2023	11:11	-131.190	47.338	0	1265.80	0	2.7870	0	34.4500	0	27.473	0	1251.447	0	15.6	4	4.8	4	-1E+10	1	-1E+10	1	-1E+10	1	-1E+10	1	-1E+10	1	-1E+10	1
4902551	111	C	09/11/2023	11:11	-131.190	47.338	0	1275.30	0	2.8010	0	34.4580	0	27.478	0	1260.811	0	16.3	4	5.0	4	-1E+10	1	-1E+10	1	-1E+10	1	-1E+10	1	-1E+10	1	-1E+10	1
4902551	111	C	09/11/2023	11:11	-131.190	47.338	0	1285.40	0	2.7990	0	34.4620	0	27.482	0	1270.766	0	16.4	4	5.0	4	-1E+10	1	-1E+10	1	-1E+10	1	-1E+10	1	-1E+10	1	-1E+10	1
4902551	111	C	09/11/2023	11:11	-131.190	47.338	0	1295.60	0	2.7680	0	34.4610	0	27.483	0	1280.819	0	16.5	4	5.1	4	-1E+10	1	-1E+10	1	-1E+10	1	-1E+10	1	-1E+10	1	-1E+10	1
4902551	111	C	09/11/2023	11:11	-131.190	47.338	0	1305.60	0	2.7500	0	34.4610	0	27.485	0	1290.674	0	16.6	4	5.1	4	-1E+10	1	-1E+10	1	-1E+10	1	-1E+10	1	-1E+10	1	-1E+10	1
4902551	111	C	09/11/2023	11:11	-131.190	47.338	0	1315.50	0	2.7370	0	34.4630	0	27.488	0	1300.430	0	17.0	4	5.2	4	-1E+10	1	-1E+10	1	-1E+10	1	-1E+10	1	-1E+10	1	-1E+10	1
4902551	111	C	09/11/2023	11:11	-131.190	47.338	0	1325.20	0	2.7240	0	34.4650	0	27.491	0	1309.989	0	17.3	4	5.3	4	-1E+10	1	-1E+10	1	-1E+10	1	-1E+10	1	-1E+10	1	-1E+10	1
4902551	111	C	09/11/2023	11:11	-131.190	47.338	0	1335.40	0	2.7140	0	34.4680	0	27.494	0	1320.040	0	17.9	4	5.5	4	-1E+10	1	-1E+10	1	-1E+10	1	-1E+10	1	-1E+10	1	-1E+10	1
4902551	111	C	09/11/2023	11:11	-131.190	47.338	0	1345.60	0	2.7070	0	34.4740	0	27.499	0	1330.091	0	18.8	4	5.8	4	-1E+10	1	-1E+10	1	-1E+10	1	-1E+10	1	-1E+10	1	-1E+10	1
4902551	111	C	09/11/2023	11:11	-131.190	47.338	0	1355.30	0	2.7000	0	34.4790	0	27.504	0	1339.648	0	18.9	4	5.8	4	-1E+10	1	-1E+10	1	-1E+10	1	-1E+10	1	-1E+10	1	-1E+10	1
4902551	111	C	09/11/2023	11:11	-131.190	47.338	0	1365.10	0	2.6520	0	34.4770	0	27.507	0	1349.304	0	18.8	4	5.8	4	-1E+10	1	-1E+10	1	-1E+10	1	-1E+10	1	-1E+10	1	-1E+10	1
4902551	111	C	09/11/2023	11:11	-131.190	47.338	0	1375.00	0	2.6260	0	34.4780	0	27.510	0	1359.057	0	19.1	4	5.8	4	-1E+10	1	-1E+10	1	-1E+10	1	-1E+10	1	-1E+10	1	-1E+10	1
4902551	111	C	09/11/2023	11:11	-131.190	47.338	0	1385.40	0	2.5970	0	34.4800	0	27.514	0	1369.303	0	19.4	4	5.9	4	-1E+10	1	-1E+10	1	-1E+10	1	-1E+10	1	-1E+10	1	-1E+10	1
4902551	111	C	09/11/2023	11:11	-131.190	47.338	0	1395.80	0	2.5810	0	34.4810	0	27.516	0	1379.548	0	19.7	4	6.0	4	-1E+10	1	-1E+10	1	-1E+10	1	-1E+10	1	-1E+10	1	-1E+10	1
4902551	111	C	09/11/2023	11:11	-131.190	47.338	0	1405.80	0	2.5710	0	34.4830	0	27.519	0	1389.399	0	20.1	4	6.1	4	-1E+10	1	-1E+10	1	-1E+10	1	-1E+10	1	-1E+10	1	-1E+10	1
4902551	111	C	09/11/2023	11:11	-131.190	47.338	0	1415.80	0	2.5620	0	34.4850	0	27.521	0	1399.249	0	20.5	4	6.3	4	-1E+10	1	-1E+10	1	-1E+10	1	-1E+10	1	-1E+10	1	-1E+10	1
4902551	111	C	09/11/2023	11:11	-131.190	47.338	0	1425.50	0	2.5540	0	34.4860	0	27.523	0	1408.803	0	21.0	4	6.4	4	-1E+10	1	-1E+10	1	-1E+10	1	-1E+10	1	-1E+10	1	-1E+10	1
4902551	111	C	09/11/2023	11:11	-131.190	47.338	0	1435.50	0	2.5480	0	34.4890	0	27.526	0	1418.652	0	21.8	4	6.7	4	-1E+10	1	-1E+10	1	-1E+10	1	-1E+10	1	-1E+10	1	-1E+10	1
4902551	111	C	09/11/2023	11:11	-131.190	47.338	0	1445.70	0	2.5530	0	34.4940	0	27.529	0	1428.698	0	22.6	4	6.9	4	-1E+10	1	-1E+10	1	-1E+10	1	-1E+10	1	-1E+10	1	-1E+10	1
4902551	111	C	09/11/2023	11:11	-131.190	47.338	0	1455.70	0	2.5550	0	34.4980	0	27.532	0	1438.546	0	23.4	4	7.2	4	-1E+10	1	-1E+10	1	-1E+10	1	-1E+10	1	-1E+10	1	-1E+10	1
4902551	111	C	09/11/2023	11:11	-131.190	47.338	0	1465.60	0	2.5480	0	34.5000	0	27.535	0	1448.296	0	24.0	4	7.3	4	-1E+10	1	-1E+10	1	-1E+10	1	-1E+10	1	-1E+10	1	-1E+10	1
4902551	111	C	09/11/2023	11:11	-131.190	47.338	0	1475.20	0	2.5360	0	34.5020	0	27.537	0	1457.749	0	24.4	4	7.4	4	-1E+10	1	-1E+10	1	-1E+10	1	-1E+10	1	-1E+10	1	-1E+10	1
4902551	111	C	09/11/2023	11:11	-131.190	47.338	0	1485.50	0	2.5190	0	34.5050	0	27.541	0	1467.892	0	24.6	4	7.5	4	-1E+10	1	-1E+10	1	-1E+10	1	-1E+10	1	-1E+10	1	-1E+10	1
4902551	111	C	09/11/2023	11:11	-131.190	47.338	0	1495.60	0	2.5040	0	34.5040	0	27.542	0	1477.837	0	24.7	4	7.5	4	-1E+10	1	-1E+10	1	-1E+10	1	-1E+10	1	-1E+10	1	-1E+10	1
4902551	111	C	09/11/2023	11:11	-131.190	47.338	0	1505.30	0	2.4760	0	34.5060	0	27.546	0	1487.388	0	25.2	4	7.7	4	-1E+10	1	-1E+10	1	-1E+10	1	-1E+10	1	-1E+10	1	-1E+10	1
4902551	111	C	09/11/2023	11:11	-131.190	47.338	0	1515.30	0	2.4450	0	34.5070	0	27.549	0	1497.233	0	25.4	4	7.7	4	-1E+10	1	-1E+10	1	-1E+10	1	-1E+10	1	-1E+10	1	-1E+10	1
4902551	111	C	09/11/2023	11:11	-131.190	47.338	0	1525.20	0	2.4340	0	34.5070	0	27.550	0	1506.980	0	25.6	4	7.8	4	-1E+10	1	-1E+10	1	-1E+10	1	-1E+10	1	-1E+10	1	-1E+10	1
4902551	111	C	09/11/2023	11:11	-131.190	47.338	0	1535.50	0	2.4180	0	34.5090	0	27.553	0	1517.120	0	26.4	4	8.0	4	-1E+10	1	-1E+10	1	-1E+10	1	-1E+10	1	-1E+10	1	-1E+10	1
4902551	111	C	09/11/2023	11:11	-131.190	47.338	0	1545.70	0	2.4090	0	34.5120	0	27.556	0	1527.161	0	27.5	4	8.4	4	-1E+10	1	-1E+10	1	-1E+10	1	-1E+10	1	-1E+10	1	-1E+10	1
4902551	111	C	09/11/2023	11:11	-131.190	47.338	0	1555.70	0	2.4070	0	34.5170	0	27.560	0	1537.005	0	28.0	4	8.5	4	-1E+10	1	-1E+10	1	-1E+10	1	-1E+10	1	-1E+10	1	-1E+10	1
4902551	111	C	09/11/2023	11:11	-131.190	47.338	0	1565.40	0	2.3660	0	34.5160	0	27.563	0	1546.553	0	28.5	4	8.7	4	-1E+10	1	-1E+10	1	-1E+10	1	-1E+10	1	-1E+10	1	-1E+10	1
4902551	111	C	09/11/2023	11:11	-131.190	47.338	0	1575.20	0	2.3650	0	34.5210	0	27.567	0	1556.199	0	29.4	4	8.9	4	-1E+10	1	-1E+10	1	-1E+10	1	-1E+10	1	-1E+10	1	-1E+10	1
4902551	111	C	09/11/2023	11:11	-131.190	47.338	0	1585.50	0	2.3350	0	34.5210	0	27.570	0	1566.336	0	29.9	4	9.1	4	-1E+10	1	-1E+10	1	-1E+10	1	-1E+10	1	-1E+10	1	-1E+10	1
4902551	111	C	09/11/2023	11:11	-131.190	47.338	0	1595.60	0	2.3240	0	34.5240	0	27.573	0	1576.277	0	31.4	4	9.5	4	-1E+10	1	-1E+10	1	-1E+10	1	-1E+10	1	-1E+10	1	-1E+10	1
4902551	111	C	09/11/2023	11:11	-131.190	47.338	0	1605.40	0	2.3350	0	34.5290	0	27.576	0	1585.921	0	32.5	4	9.9	4	-1E+10	1	-1E+10	1	-1E+10	1	-1E+10	1	-1E+10	1	-1E+10	1
4902551	111	C	09/11/2023	11:11	-131.190	47.338	0	1615.30	0	2.3290	0	34.5310	0	27.578	0	1595.664	0	33.2	4	10.1	4	-1E+10	1	-1E+10	1	-1E+10	1	-1E+10	1	-1E+10	1	-1E+10	1
4902551	111	C	09/11/2023	11:11	-131.190	47.338	0	1625.50	0	2.3170	0	34.5330	0	27.581	0	1605.701	0	33.7	4	10.3	4	-1E+10	1	-1E+10	1	-1E+10	1	-1E+10	1	-1E+10	1	-1E+10	1
4902551	111	C	09/11/2023	11:11	-131.190	47.338	0	1635.50	0	2.3080	0	34.5340	0	27.583	0	1615.541	0	34.2	4	10.4	4	-1E+10	1	-1E+10	1	-1E+10	1	-1E+10	1	-1E+10	1	-1E+10	1
4902551	111	C	09/11/2023	11:11	-131.190	47.338	0	1645.40	0	2.2880	0	34.5360	0	27.586	0	1625.283	0	34.9	4	10.6	4	-1E+10	1	-1E+10	1	-1E+10	1	-1E+10	1	-1E+10	1	-1E+10	1
4902551	111	C	09/11/2023	11:11	-131.190	47.338	0	1655.60	0	2.2780	0	34.5390	0	27.589	0	1635.318	0	35.6	4	10.8	4	-1E+10	1	-1E+10	1	-1E+10	1	-1E+10	1	-1E+10	1	-1E+10	1
4902551	111	C	09/11/2023	11:11	-131.190	47.338	0	1665.70	0	2.2610	0	34.5400	0	27.591	0	1645.256	0	36.0	4	10.9	4	-1E+10	1	-1E+10	1	-1E+10	1	-1E+10	1	-1E+10	1	-1E+10	1
4902551	111	C	09/11/2023	11:11	-131.190	47.338	0	1675.40	0	2.2420	0	34.5410	0	27.594	0	1654.799	0	36.6	4	11.1	4	-1E+10	1	-1E+10	1	-1E+10	1	-1E+10	1	-1E+10	1	-1E+10	1
4902551	111	C	09/11/2023	11:11	-131.190	47.338	0	1685.30	0	2.2390	0	34.5440	0	27.596	0	1664.538	0	37.1	4	11.2	4	-1E+10	1	-1E+10	1	-1E+10	1	-1E+10	1	-1E+10	1	-1E+10	1
4902551	111	C	09/11/2023	11:11	-131.190	47.338	0	1695.30	0	2.2100	0	34.5430	0	27.598	0	1674.376	0	37.1	4	11.2	4	-1E+10	1	-1E+10	1	-1E+10	1	-1E+10	1	-1E+10	1	-1E+10	1
4902551	111	C	09/11/2023	11:11	-131.190	47.338	0	1705.10	0	2.1820	0	34.5450	0	27.602	0	1684.016	0	38.1	4	11.5	4	-1E+10	1	-1E+10	1	-1E+10	1	-1E+10	1	-1E+10	1	-1E+10	1
4902551	111	C	09/11/2023	11:11	-131.190	47.338	0	1715.10	0	2.1720	0	34.5470	0	27.604	0	1693.852	0	39.0	4	11.8	4	-1E+10	1	-1E+10	1	-1E+10	1	-1E+10	1	-1E+10	1	-1E+10	1
4902551	111	C	09/11/2023	11:11	-131.190	47.338	0	1725.40	0	2.1670	0	34.5500	0	27.607	0	1703.983	0	39.9	4	12.1	4	-1E+10	1	-1E+10	1	-1E+10	1	-1E+10	1	-1E+10	1	-1E+10	1
4902551	111	C	09/11/2023	11:11	-131.190	47.338	0	1735.50	0	2.1460	0	34.5520	0	27.610	0	1713.917	0	40.8	4	12.3	4	-1E+10	1	-1E+10	1	-1E+10	1	-1E+10	1	-1E+10	1	-1E+10	1
4902551	111	C	09/11/2023	11:11	-131.190	47.338	0	1745.40	0	2.1320	0	34.5540	0	27.613	0	1723.654	0	41.5	4	12.6	4	-1E+10	1	-1E+10	1	-1E+10	1	-1E+10	1	-1E+10	1	-1E+10	1
4902551	111	C	09/11/2023	11:11	-131.190	47.338	0	1755.30	0	2.1240	0	34.5550	0	27.615	0	1733.390	0	42.4	4	12.8	4	-1E+10	1	-1E+10	1	-1E+10	1	-1E+10	1	-1E+10	1	-1E+10	1
4902551	111	C	09/11/2023	11:11	-131.190	47.338	0	1765.20	0	2.1130	0	34.5580	0	27.618	0	1743.126	0	43.2	4	13.1	4	-1E+10	1	-1E+10	1	-1E+10	1	-1E+10	1	-1E+10	1	-1E+10	1
4902551	111	C	09/11/2023	11:11	-131.190	47.338	0	1775.30	0	2.1040	0	34.5600	0	27.620	0	1753.058	0	43.9	4	13.3	4	-1E+10	1	-1E+10	1	-1E+10	1	-1E+10	1	-1E+10	1	-1E+10	1
4902551	111	C	09/11/2023	11:11	-131.190	47.338	0	1785.40	0	2.0990	0	34.5620	0	27.622	0	1762.989	0	44.2	4	13.4	4	-1E+10	1	-1E+10	1	-1E+10	1	-1E+10	1	-1E+10	1	-1E+10	1
4902551	111	C	09/11/2023	11:11	-131.190	47.338	0	1795.50	0	2.0890	0	34.5620	0	27.623	0	1772.920	0	44.3	4	13.4	4	-1E+10	1	-1E+10	1	-1E+10	1	-1E+10	1	-1E+10	1	-1E+10	1
4902551	111	C	09/11/2023	11:11	-131.190	47.338	0	1805.50	0	2.0750	0	34.5620	0	27.624	0	1782.753	0	44.9	4	13.6	4	-1E+10	1	-1E+10	1	-1E+10	1	-1E+10	1	-1E+10	1	-1E+10	1
4902551	111	C	09/11/2023	11:11	-131.190	47.338	0	1815.60	0	2.0690	0	34.5630	0	27.626	0	1792.683	0	46.1	4	13.9	4	-1E+10	1	-1E+10	1	-1E+10	1	-1E+10	1	-1E+10	1	-1E+10	1
4902551	111	C	09/11/2023	11:11	-131.190	47.338	0	1825.80	0	2.0620	0	34.5670	0	27.630	0	1802.711	0	47.1	4	14.2	4	-1E+10	1	-1E+10	1	-1E+10	1	-1E+10	1	-1E+10	1	-1E+10	1
4902551	111	C	09/11/2023	11:11	-131.190	47.338	0	1835.70	0	2.0530	0	34.5690	0	27.632	0	1812.443	0	47.6	4	14.4	4	-1E+10	1	-1E+10	1	-1E+10	1	-1E+10	1	-1E+10	1	-1E+10	1
4902551	111	C	09/11/2023	11:11	-131.190	47.338	0	1845.30	0	2.0460	0	34.5690	0	27.633	0	1821.881	0	48.1	4	14.5	4	-1E+10	1	-1E+10	1	-1E+10	1	-1E+10	1	-1E+10	1	-1E+10	1
4902551	111	C	09/11/2023	11:11	-131.190	47.338	0	1855.20	0	2.0370	0	34.5710	0	27.635	0	1831.612	0	48.7	4	14.7	4	-1E+10	1	-1E+10	1	-1E+10	1	-1E+10	1	-1E+10	1	-1E+10	1
4902551	111	C	09/11/2023	11:11	-131.190	47.338	0	1865.30	0	2.0260	0	34.5720	0	27.637	0	1841.540	0	49.3	4	14.9	4	-1E+10	1	-1E+10	1	-1E+10	1	-1E+10	1	-1E+10	1	-1E+10	1
4902551	111	C	09/11/2023	11:11	-131.190	47.338	0	1875.50	0	2.0220	0	34.5730	0	27.638	0	1851.566	0	49.8	4	15.0	4	-1E+10	1	-1E+10	1	-1E+10	1	-1E+10	1	-1E+10	1	-1E+10	1
4902551	111	C	09/11/2023	11:11	-131.190	47.338	0	1885.50	0	2.0120	0	34.5750	0	27.640	0	1861.395	0	50.6	4	15.3	4	-1E+10	1	-1E+10	1	-1E+10	1	-1E+10	1	-1E+10	1	-1E+10	1
4902551	111	C	09/11/2023	11:11	-131.190	47.338	0	1895.10	0	1.9990	0	34.5770	0	27.643	0	1870.830	0	51.1	4	15.4	4	-1E+10	1	-1E+10	1	-1E+10	1	-1E+10	1	-1E+10	1	-1E+10	1
4902551	111	C	09/11/2023	11:11	-131.190	47.338	0	1905.60	0	1.9910	0	34.5780	0	27.644	0	1881.149	0	51.7	4	15.6	4	-1E+10	1	-1E+10	1	-1E+10	1	-1E+10	1	-1E+10	1	-1E+10	1
4902551	111	C	09/11/2023	11:11	-131.190	47.338	0	1915.60	0	1.9830	0	34.5790	0	27.646	0	1890.976	0	52.3	4	15.7	4	-1E+10	1	-1E+10	1	-1E+10	1	-1E+10	1	-1E+10	1	-1E+10	1
4902551	111	C	09/11/2023	11:11	-131.190	47.338	0	1925.30	0	1.9700	0	34.5810	0	27.648	0	1900.508	0	53.1	4	16.0	4	-1E+10	1	-1E+10	1	-1E+10	1	-1E+10	1	-1E+10	1	-1E+10	1
4902551	111	C	09/11/2023	11:11	-131.190	47.338	0	1935.30	0	1.9670	0	34.5830	0	27.650	0	1910.335	0	53.9	4	16.2	4	-1E+10	1	-1E+10	1	-1E+10	1	-1E+10	1	-1E+10	1	-1E+10	1
4902551	111	C	09/11/2023	11:11	-131.190	47.338	0	1945.10	0	1.9650	0	34.5840	0	27.651	0	1919.964	0	54.3	4	16.4	4	-1E+10	1	-1E+10	1	-1E+10	1	-1E+10	1	-1E+10	1	-1E+10	1
4902551	111	C	09/11/2023	11:11	-131.190	47.338	0	1955.40	0	1.9670	0	34.5850	0	27.652	0	1930.084	0	54.5	4	16.4	4	-1E+10	1	-1E+10	1	-1E+10	1	-1E+10	1	-1E+10	1	-1E+10	1
4902551	111	C	09/11/2023	11:11	-131.190	47.338	0	1965.80	0	1.9600	0	34.5850	0	27.653	0	1940.302	0	54.9	4	16.5	4	-1E+10	1	-1E+10	1	-1E+10	1	-1E+10	1	-1E+10	1	-1E+10	1
4902551	111	C	09/11/2023	11:11	-131.190	47.338	0	1975.50	0	1.9470	0	34.5860	0	27.655	0	1949.832	0	55.5	4	16.7	4	-1E+10	1	-1E+10	1	-1E+10	1	-1E+10	1	-1E+10	1	-1E+10	1
4902551	111	C	09/11/2023	11:11	-131.190	47.338	0	1985.30	0	1.9350	0	34.5870	0	27.656	0	1959.460	0	56.0	4	16.8	4	-1E+10	1	-1E+10	1	-1E+10	1	-1E+10	1	-1E+10	1	-1E+10	1
4902551	111	C	09/11/2023	11:11	-131.190	47.338	0	1995.40	0	1.9280	0	34.5880	0	27.658	0	1969.382	0	56.7	4	17.1	4	-1E+10	1	-1E+10	1	-1E+10	1	-1E+10	1	-1E+10	1	-1E+10	1
4902551	111	C	09/11/2023	11:11	-131.190	47.338	0	2005.50	0	1.9180	0	34.5890	0	27.659	0	1979.303	0	57.3	4	17.2	4	-1E+10	1	-1E+10	1	-1E+10	1	-1E+10	1	-1E+10	1	-1E+10	1
4902551	111	C	09/11/2023	11:11	-131.190	47.338	0	2015.70	0	1.9130	0	34.5900	0	27.661	0	1989.322	0	57.6	4	17.3	4	-1E+10	1	-1E+10	1	-1E+10	1	-1E+10	1	-1E+10	1	-1E+10	1
4902551	111	C	09/11/2023	11:11	-131.190	47.338	0	2025.60	0	1.9110	0	34.5910	0	27.662	0	1999.046	0	57.8	4	17.4	4	-1E+10	1	-1E+10	1	-1E+10	1	-1E+10	1	-1E+10	1	-1E+10	1
4902551	111	C	09/11/2023	11:11	-131.190	47.338	0	2035.50	0	1.9070	0	34.5920	0	27.663	0	2008.770	0	57.9	4	17.4	4	-1E+10	1	-1E+10	1	-1E+10	1	-1E+10	1	-1E+10	1	-1E+10	1
4902551	111	C	09/11/2023	11:11	-131.190	47.338	0	2042.50	0	1.9050	0	34.5920	0	27.663	0	2015.645	0	57.6	4	17.3	4	-1E+10	1	-1E+10	1	-1E+10	1	-1E+10	1	-1E+10	1	-1E+10	1
4902551	111	C	09/11/2023	11:11	-131.190	47.338	0																										
4902551	112	C	09/21/2023	16:04	-131.114	47.251	0	0.10	0	17.1030	0	32.3140	0	23.431	0	0.099	0	236.4	4	97.6	4	-1E+10	1	-1E+10	1	-1E+10	1	-1E+10	1	-1E+10	1	-1E+10	1
4902551	112	C	09/21/2023	16:04	-131.114	47.251	0	0.20	0	17.1000	0	32.3170	0	23.434	0	0.198	0	236.4	4	97.6	4	-1E+10	1	-1E+10	1	-1E+10	1	-1E+10	1	-1E+10	1	-1E+10	1
4902551	112	C	09/21/2023	16:04	-131.114	47.251	0	0.30	0	17.1000	0	32.3170	0	23.434	0	0.298	0	-1e10	1	-1e10	1	-1E+10	1	-1E+10	1	-1E+10	1	-1E+10	1	-1E+10	1	-1E+10	1
4902551	112	C	09/21/2023	16:04	-131.114	47.251	0	0.40	0	17.1120	0	32.3120	0	23.427	0	0.397	0	231.1	4	95.4	4	-1E+10	1	-1E+10	1	-1E+10	1	-1E+10	1	-1E+10	1	-1E+10	1
4902551	112	C	09/21/2023	16:04	-131.114	47.251	0	1.00	0	17.1150	0	32.3100	0	23.425	0	0.992	0	231.1	4	95.4	4	-1E+10	1	-1E+10	1	-1E+10	1	-1E+10	1	-1E+10	1	-1E+10	1
4902551	112	C	09/21/2023	16:04	-131.114	47.251	0	1.90	0	17.1160	0	32.3100	0	23.425	0	1.884	0	231.1	4	95.4	4	-1E+10	1	-1E+10	1	-1E+10	1	-1E+10	1	-1E+10	1	-1E+10	1
4902551	112	C	09/21/2023	16:04	-131.114	47.251	0	3.10	0	17.1150	0	32.3110	0	23.426	0	3.074	0	231.2	4	95.4	4	-1E+10	1	-1E+10	1	-1E+10	1	-1E+10	1	-1E+10	1	-1E+10	1
4902551	112	C	09/21/2023	16:04	-131.114	47.251	0	4.00	0	17.1140	0	32.3150	0	23.429	0	3.967	0	231.2	4	95.4	4	-1E+10	1	-1E+10	1	-1E+10	1	-1E+10	1	-1E+10	1	-1E+10	1
4902551	112	C	09/21/2023	16:04	-131.114	47.251	0	4.90	0	17.1130	0	32.3160	0	23.430	0	4.859	0	231.2	4	95.4	4	-1E+10	1	-1E+10	1	-1E+10	1	-1E+10	1	-1E+10	1	-1E+10	1
4902551	112	C	09/21/2023	16:04	-131.114	47.251	0	6.00	0	17.1140	0	32.3160	0	23.430	0	5.950	0	231.3	4	95.5	4	-1E+10	1	-1E+10	1	-1E+10	1	-1E+10	1	-1E+10	1	-1E+10	1
4902551	112	C	09/21/2023	16:04	-131.114	47.251	0	6.70	0	17.1140	0	32.3160	0	23.430	0	6.644	0	231.2	4	95.4	4	-1E+10	1	-1E+10	1	-1E+10	1	-1E+10	1	-1E+10	1	-1E+10	1
4902551	112	C	09/21/2023	16:04	-131.114	47.251	0	7.90	0	17.1130	0	32.3160	0	23.430	0	7.834	0	231.3	4	95.5	4	-1E+10	1	-1E+10	1	-1E+10	1	-1E+10	1	-1E+10	1	-1E+10	1
4902551	112	C	09/21/2023	16:04	-131.114	47.251	0	9.00	0	17.1120	0	32.3160	0	23.430	0	8.925	0	231.4	4	95.5	4	-1E+10	1	-1E+10	1	-1E+10	1	-1E+10	1	-1E+10	1	-1E+10	1
4902551	112	C	09/21/2023	16:04	-131.114	47.251	0	9.80	0	17.1120	0	32.3170	0	23.431	0	9.718	0	231.5	4	95.5	4	-1E+10	1	-1E+10	1	-1E+10	1	-1E+10	1	-1E+10	1	-1E+10	1
4902551	112	C	09/21/2023	16:04	-131.114	47.251	0	11.00	0	17.1140	0	32.3160	0	23.430	0	10.908	0	231.4	4	95.5	4	-1E+10	1	-1E+10	1	-1E+10	1	-1E+10	1	-1E+10	1	-1E+10	1
4902551	112	C	09/21/2023	16:04	-131.114	47.251	0	12.10	0	17.1160	0	32.3160	0	23.430	0	11.999	0	231.5	4	95.6	4	-1E+10	1	-1E+10	1	-1E+10	1	-1E+10	1	-1E+10	1	-1E+10	1
4902551	112	C	09/21/2023	16:04	-131.114	47.251	0	12.80	0	17.1150	0	32.3160	0	23.430	0	12.693	0	231.5	4	95.5	4	-1E+10	1	-1E+10	1	-1E+10	1	-1E+10	1	-1E+10	1	-1E+10	1
4902551	112	C	09/21/2023	16:04	-131.114	47.251	0	13.90	0	17.1160	0	32.3160	0	23.430	0	13.784	0	231.5	4	95.6	4	-1E+10	1	-1E+10	1	-1E+10	1	-1E+10	1	-1E+10	1	-1E+10	1
4902551	112	C	09/21/2023	16:04	-131.114	47.251	0	15.00	0	17.1160	0	32.3160	0	23.430	0	14.875	0	231.6	4	95.6	4	-1E+10	1	-1E+10	1	-1E+10	1	-1E+10	1	-1E+10	1	-1E+10	1
4902551	112	C	09/21/2023	16:04	-131.114	47.251	0	16.00	0	17.1160	0	32.3160	0	23.430	0	15.866	0	231.7	4	95.6	4	-1E+10	1	-1E+10	1	-1E+10	1	-1E+10	1	-1E+10	1	-1E+10	1
4902551	112	C	09/21/2023	16:04	-131.114	47.251	0	17.00	0	17.1170	0	32.3160	0	23.430	0	16.858	0	231.8	4	95.7	4	-1E+10	1	-1E+10	1	-1E+10	1	-1E+10	1	-1E+10	1	-1E+10	1
4902551	112	C	09/21/2023	16:04	-131.114	47.251	0	17.90	0	17.1160	0	32.3160	0	23.430	0	17.750	0	231.9	4	95.7	4	-1E+10	1	-1E+10	1	-1E+10	1	-1E+10	1	-1E+10	1	-1E+10	1
4902551	112	C	09/21/2023	16:04	-131.114	47.251	0	19.00	0	17.1160	0	32.3160	0	23.430	0	18.841	0	232.0	4	95.7	4	-1E+10	1	-1E+10	1	-1E+10	1	-1E+10	1	-1E+10	1	-1E+10	1
4902551	112	C	09/21/2023	16:04	-131.114	47.251	0	20.00	0	17.1160	0	32.3160	0	23.430	0	19.833	0	232.2	4	95.8	4	-1E+10	1	-1E+10	1	-1E+10	1	-1E+10	1	-1E+10	1	-1E+10	1
4902551	112	C	09/21/2023	16:04	-131.114	47.251	0	21.00	0	17.1170	0	32.3160	0	23.430	0	20.824	0	232.3	4	95.9	4	-1E+10	1	-1E+10	1	-1E+10	1	-1E+10	1	-1E+10	1	-1E+10	1
4902551	112	C	09/21/2023	16:04	-131.114	47.251	0	22.00	0	17.1170	0	32.3170	0	23.431	0	21.816	0	232.4	4	95.9	4	-1E+10	1	-1E+10	1	-1E+10	1	-1E+10	1	-1E+10	1	-1E+10	1
4902551	112	C	09/21/2023	16:04	-131.114	47.251	0	23.20	0	17.1170	0	32.3170	0	23.431	0	23.006	0	232.6	4	96.0	4	-1E+10	1	-1E+10	1	-1E+10	1	-1E+10	1	-1E+10	1	-1E+10	1
4902551	112	C	09/21/2023	16:04	-131.114	47.251	0	23.90	0	17.1180	0	32.3160	0	23.430	0	23.700	0	232.9	4	96.2	4	-1E+10	1	-1E+10	1	-1E+10	1	-1E+10	1	-1E+10	1	-1E+10	1
4902551	112	C	09/21/2023	16:04	-131.114	47.251	0	25.00	0	17.1170	0	32.3160	0	23.430	0	24.790	0	233.2	4	96.3	4	-1E+10	1	-1E+10	1	-1E+10	1	-1E+10	1	-1E+10	1	-1E+10	1
4902551	112	C	09/21/2023	16:04	-131.114	47.251	0	26.20	0	17.1190	0	32.3160	0	23.429	0	25.980	0	233.6	4	96.4	4	-1E+10	1	-1E+10	1	-1E+10	1	-1E+10	1	-1E+10	1	-1E+10	1
4902551	112	C	09/21/2023	16:04	-131.114	47.251	0	26.90	0	17.1180	0	32.3160	0	23.430	0	26.674	0	234.0	4	96.6	4	-1E+10	1	-1E+10	1	-1E+10	1	-1E+10	1	-1E+10	1	-1E+10	1
4902551	112	C	09/21/2023	16:04	-131.114	47.251	0	27.70	0	17.1170	0	32.3160	0	23.430	0	27.468	0	234.3	4	96.7	4	-1E+10	1	-1E+10	1	-1E+10	1	-1E+10	1	-1E+10	1	-1E+10	1
4902551	112	C	09/21/2023	16:04	-131.114	47.251	0	28.90	0	17.1190	0	32.3160	0	23.430	0	28.657	0	234.9	4	97.0	4	-1E+10	1	-1E+10	1	-1E+10	1	-1E+10	1	-1E+10	1	-1E+10	1
4902551	112	C	09/21/2023	16:04	-131.114	47.251	0	30.00	0	17.1190	0	32.3160	0	23.430	0	29.748	0	235.6	4	97.3	4	-1E+10	1	-1E+10	1	-1E+10	1	-1E+10	1	-1E+10	1	-1E+10	1
4902551	112	C	09/21/2023	16:04	-131.114	47.251	0	30.80	0	17.1200	0	32.3170	0	23.430	0	30.541	0	236.1	4	97.5	4	-1E+10	1	-1E+10	1	-1E+10	1	-1E+10	1	-1E+10	1	-1E+10	1
4902551	112	C	09/21/2023	16:04	-131.114	47.251	0	32.00	0	17.1200	0	32.3160	0	23.429	0	31.731	0	237.3	4	97.9	4	-1E+10	1	-1E+10	1	-1E+10	1	-1E+10	1	-1E+10	1	-1E+10	1
4902551	112	C	09/21/2023	16:04	-131.114	47.251	0	33.20	0	17.1200	0	32.3160	0	23.429	0	32.921	0	238.3	4	98.4	4	-1E+10	1	-1E+10	1	-1E+10	1	-1E+10	1	-1E+10	1	-1E+10	1
4902551	112	C	09/21/2023	16:04	-131.114	47.251	0	34.00	0	17.1210	0	32.3160	0	23.429	0	33.714	0	239.6	4	98.9	4	-1E+10	1	-1E+10	1	-1E+10	1	-1E+10	1	-1E+10	1	-1E+10	1
4902551	112	C	09/21/2023	16:04	-131.114	47.251	0	34.80	0	17.1210	0	32.3170	0	23.430	0	34.507	0	241.0	4	99.5	4	-1E+10	1	-1E+10	1	-1E+10	1	-1E+10	1	-1E+10	1	-1E+10	1
4902551	112	C	09/21/2023	16:04	-131.114	47.251	0	35.90	0	17.1210	0	32.3160	0	23.429	0	35.598	0	243.0	4	100.3	4	-1E+10	1	-1E+10	1	-1E+10	1	-1E+10	1	-1E+10	1	-1E+10	1
4902551	112	C	09/21/2023	16:04	-131.114	47.251	0	37.10	0	17.1210	0	32.3160	0	23.429	0	36.788	0	245.3	4	101.3	4	-1E+10	1	-1E+10	1	-1E+10	1	-1E+10	1	-1E+10	1	-1E+10	1
4902551	112	C	09/21/2023	16:04	-131.114	47.251	0	37.80	0	17.1210	0	32.3150	0	23.429	0	37.482	0	247.2	4	102.0	4	-1E+10	1	-1E+10	1	-1E+10	1	-1E+10	1	-1E+10	1	-1E+10	1
4902551	112	C	09/21/2023	16:04	-131.114	47.251	0	38.80	0	17.1200	0	32.3160	0	23.430	0	38.473	0	250.2	4	103.3	4	-1E+10	1	-1E+10	1	-1E+10	1	-1E+10	1	-1E+10	1	-1E+10	1
4902551	112	C	09/21/2023	16:04	-131.114	47.251	0	40.10	0	17.1180	0	32.3120	0	23.427	0	39.762	0	259.3	4	107.0	4	-1E+10	1	-1E+10	1	-1E+10	1	-1E+10	1	-1E+10	1	-1E+10	1
4902551	112	C	09/21/2023	16:04	-131.114	47.251	0	41.10	0	16.6380	0	32.2900	0	23.522	0	40.754	0	277.9	4	113.6	4	-1E+10	1	-1E+10	1	-1E+10	1	-1E+10	1	-1E+10	1	-1E+10	1
4902551	112	C	09/21/2023	16:04	-131.114	47.251	0	42.00	0	14.3340	0	32.3270	0	24.055	0	41.646	0	291.6	4	114.0	4	-1E+10	1	-1E+10	1	-1E+10	1	-1E+10	1	-1E+10	1	-1E+10	1
4902551	112	C	09/21/2023	16:04	-131.114	47.251	0	43.10	0	12.7250	0	32.4080	0	24.441	0	42.737	0	293.6	4	111.2	4	-1E+10	1	-1E+10	1	-1E+10	1	-1E+10	1	-1E+10	1	-1E+10	1
4902551	112	C	09/21/2023	16:04	-131.114	47.251	0	43.90	0	11.7590	0	32.3600	0	24.585	0	43.530	0	293.1	4	108.7	4	-1E+10	1	-1E+10	1	-1E+10	1	-1E+10	1	-1E+10	1	-1E+10	1
4902551	112	C	09/21/2023	16:04	-131.114	47.251	0	44.90	0	11.0620	0	32.3620	0	24.712	0	44.521	0	291.3	4	106.5	4	-1E+10	1	-1E+10	1	-1E+10	1	-1E+10	1	-1E+10	1	-1E+10	1
4902551	112	C	09/21/2023	16:04	-131.114	47.251	0	45.80	0	10.9870	0	32.3550	0	24.720	0	45.414	0	289.3	4	105.6	4	-1E+10	1	-1E+10	1	-1E+10	1	-1E+10	1	-1E+10	1	-1E+10	1
4902551	112	C	09/21/2023	16:04	-131.114	47.251	0	47.10	0	10.5340	0	32.3570	0	24.800	0	46.703	0	288.4	4	104.2	4	-1E+10	1	-1E+10	1	-1E+10	1	-1E+10	1	-1E+10	1	-1E+10	1
4902551	112	C	09/21/2023	16:04	-131.114	47.251	0	48.00	0	10.2670	0	32.3590	0	24.847	0	47.595	0	288.2	4	103.6	4	-1E+10	1	-1E+10	1	-1E+10	1	-1E+10	1	-1E+10	1	-1E+10	1
4902551	112	C	09/21/2023	16:04	-131.114	47.251	0	49.00	0	10.1140	0	32.3610	0	24.874	0	48.586	0	287.4	4	103.0	4	-1E+10	1	-1E+10	1	-1E+10	1	-1E+10	1	-1E+10	1	-1E+10	1
4902551	112	C	09/21/2023	16:04	-131.114	47.251	0	50.10	0	10.0360	0	32.3600	0	24.886	0	49.677	0	286.3	4	102.4	4	-1E+10	1	-1E+10	1	-1E+10	1	-1E+10	1	-1E+10	1	-1E+10	1
4902551	112	C	09/21/2023	16:04	-131.114	47.251	0	51.00	0	9.9990	0	32.3580	0	24.891	0	50.569	0	285.3	4	101.9	4	-1E+10	1	-1E+10	1	-1E+10	1	-1E+10	1	-1E+10	1	-1E+10	1
4902551	112	C	09/21/2023	16:04	-131.114	47.251	0	51.90	0	9.7360	0	32.3680	0	24.942	0	51.462	0	285.3	4	101.4	4	-1E+10	1	-1E+10	1	-1E+10	1	-1E+10	1	-1E+10	1	-1E+10	1
4902551	112	C	09/21/2023	16:04	-131.114	47.251	0	52.90	0	9.6790	0	32.3710	0	24.954	0	52.453	0	284.1	4	100.8	4	-1E+10	1	-1E+10	1	-1E+10	1	-1E+10	1	-1E+10	1	-1E+10	1
4902551	112	C	09/21/2023	16:04	-131.114	47.251	0	53.90	0	9.6060	0	32.3710	0	24.965	0	53.444	0	283.3	4	100.4	4	-1E+10	1	-1E+10	1	-1E+10	1	-1E+10	1	-1E+10	1	-1E+10	1
4902551	112	C	09/21/2023	16:04	-131.114	47.251	0	55.10	0	9.4740	0	32.3740	0	24.989	0	54.634	0	282.3	4	99.7	4	-1E+10	1	-1E+10	1	-1E+10	1	-1E+10	1	-1E+10	1	-1E+10	1
4902551	112	C	09/21/2023	16:04	-131.114	47.251	0	55.80	0	9.3630	0	32.3870	0	25.017	0	55.328	0	281.8	4	99.3	4	-1E+10	1	-1E+10	1	-1E+10	1	-1E+10	1	-1E+10	1	-1E+10	1
4902551	112	C	09/21/2023	16:04	-131.114	47.251	0	57.00	0	9.1160	0	32.3830	0	25.053	0	56.518	0	281.2	4	98.6	4	-1E+10	1	-1E+10	1	-1E+10	1	-1E+10	1	-1E+10	1	-1E+10	1
4902551	112	C	09/21/2023	16:04	-131.114	47.251	0	58.10	0	9.0050	0	32.3820	0	25.069	0	57.608	0	280.4	4	98.1	4	-1E+10	1	-1E+10	1	-1E+10	1	-1E+10	1	-1E+10	1	-1E+10	1
4902551	112	C	09/21/2023	16:04	-131.114	47.251	0	58.90	0	9.0020	0	32.3840	0	25.071	0	58.401	0	279.7	4	97.8	4	-1E+10	1	-1E+10	1	-1E+10	1	-1E+10	1	-1E+10	1	-1E+10	1
4902551	112	C	09/21/2023	16:04	-131.114	47.251	0	60.00	0	8.9410	0	32.3890	0	25.085	0	59.492	0	278.8	4	97.4	4	-1E+10	1	-1E+10	1	-1E+10	1	-1E+10	1	-1E+10	1	-1E+10	1
4902551	112	C	09/21/2023	16:04	-131.114	47.251	0	61.10	0	8.8670	0	32.3900	0	25.097	0	60.582	0	278.1	4	97.0	4	-1E+10	1	-1E+10	1	-1E+10	1	-1E+10	1	-1E+10	1	-1E+10	1
4902551	112	C	09/21/2023	16:04	-131.114	47.251	0	61.90	0	8.8200	0	32.3930	0	25.106	0	61.376	0	277.7	4	96.7	4	-1E+10	1	-1E+10	1	-1E+10	1	-1E+10	1	-1E+10	1	-1E+10	1
4902551	112	C	09/21/2023	16:04	-131.114	47.251	0	62.80	0	8.7910	0	32.3920	0	25.110	0	62.268	0	276.9	4	96.4	4	-1E+10	1	-1E+10	1	-1E+10	1	-1E+10	1	-1E+10	1	-1E+10	1
4902551	112	C	09/21/2023	16:04	-131.114	47.251	0	63.90	0	8.7680	0	32.3940	0	25.115	0	63.358	0	276.1	4	96.0	4	-1E+10	1	-1E+10	1	-1E+10	1	-1E+10	1	-1E+10	1	-1E+10	1
4902551	112	C	09/21/2023	16:04	-131.114	47.251	0	64.70	0	8.7230	0	32.3940	0	25.122	0	64.151	0	275.4	4	95.7	4	-1E+10	1	-1E+10	1	-1E+10	1	-1E+10	1	-1E+10	1	-1E+10	1
4902551	112	C	09/21/2023	16:04	-131.114	47.251	0	65.90	0	8.6310	0	32.3970	0	25.138	0	65.341	0	274.3	4	95.1	4	-1E+10	1	-1E+10	1	-1E+10	1	-1E+10	1	-1E+10	1	-1E+10	1
4902551	112	C	09/21/2023	16:04	-131.114	47.251	0	67.00	0	8.5230	0	32.3970	0	25.154	0	66.432	0	272.5	4	94.3	4	-1E+10	1	-1E+10	1	-1E+10	1	-1E+10	1	-1E+10	1	-1E+10	1
4902551	112	C	09/21/2023	16:04	-131.114	47.251	0	67.90	0	8.4690	0	32.4030	0	25.167	0	67.324	0	270.7	4	93.6	4	-1E+10	1	-1E+10	1	-1E+10	1	-1E+10	1	-1E+10	1	-1E+10	1
4902551	112	C	09/21/2023	16:04	-131.114	47.251	0	69.00	0	8.4030	0	32.3960	0	25.172	0	68.414	0	269.2	4	92.9	4	-1E+10	1	-1E+10	1	-1E+10	1	-1E+10	1	-1E+10	1	-1E+10	1
4902551	112	C	09/21/2023	16:04	-131.114	47.251	0	69.90	0	8.2550	0	32.4050	0	25.201	0	69.306	0	268.9	4	92.5	4	-1E+10	1	-1E+10	1	-1E+10	1	-1E+10	1	-1E+10	1	-1E+10	1
4902551	112	C	09/21/2023	16:04	-131.114	47.251	0	70.80	0	8.2070	0	32.4030	0	25.206	0	70.199	0	268.7	4	92.3	4	-1E+10	1	-1E+10	1	-1E+10	1	-1E+10	1	-1E+10	1	-1E+10	1
4902551	112	C	09/21/2023	16:04	-131.114	47.251	0	71.80	0	8.1980	0	32.4040	0	25.208	0	71.190	0	268.4	4	92.2	4	-1E+10	1	-1E+10	1	-1E+10	1	-1E+10	1	-1E+10	1	-1E+10	1
4902551	112	C	09/21/2023	16:04	-131.114	47.251	0	72.90	0	8.1950	0	32.4040	0	25.209	0	72.280	0	267.9	4	92.0	4	-1E+10	1	-1E+10	1	-1E+10	1	-1E+10	1	-1E+10	1	-1E+10	1
4902551	112	C	09/21/2023	16:04	-131.114	47.251	0	74.00	0	8.1920	0	32.4030	0	25.208	0	73.371	0	267.5	4	91.9	4	-1E+10	1	-1E+10	1	-1E+10	1	-1E+10	1	-1E+10	1	-1E+10	1
4902551	112	C	09/21/2023	16:04	-131.114	47.251	0	75.20	0	8.1810	0	32.4020	0	25.209	0	74.560	0	267.0	4	91.7	4	-1E+10	1	-1E+10	1	-1E+10	1	-1E+10	1	-1E+10	1	-1E+10	1
4902551	112	C	09/21/2023	16:04	-131.114	47.251	0	76.00	0	8.1670	0	32.4030	0	25.212	0	75.354	0	266.7	4	91.6	4	-1E+10	1	-1E+10	1	-1E+10	1	-1E+10	1	-1E+10	1	-1E+10	1
4902551	112	C	09/21/2023	16:04	-131.114	47.251	0	77.20	0	8.1390	0	32.4030	0	25.216	0	76.543	0	266.4	4	91.4	4	-1E+10	1	-1E+10	1	-1E+10	1	-1E+10	1	-1E+10	1	-1E+10	1
4902551	112	C	09/21/2023	16:04	-131.114	47.251	0	78.10	0	8.1150	0	32.4040	0	25.220	0	77.435	0	266.2	4	91.3	4	-1E+10	1	-1E+10	1	-1E+10	1	-1E+10	1	-1E+10	1	-1E+10	1
4902551	112	C	09/21/2023	16:04	-131.114	47.251	0	79.00	0	8.0990	0	32.4020	0	25.221	0	78.327	0	265.9	4	91.1	4	-1E+10	1	-1E+10	1	-1E+10	1	-1E+10	1	-1E+10	1	-1E+10	1
4902551	112	C	09/21/2023	16:04	-131.114	47.251	0	79.90	0	8.0660	0	32.4020	0	25.226	0	79.220	0	265.8	4	91.1	4	-1E+10	1	-1E+10	1	-1E+10	1	-1E+10	1	-1E+10	1	-1E+10	1
4902551	112	C	09/21/2023	16:04	-131.114	47.251	0	81.10	0	8.0310	0	32.4040	0	25.233	0	80.409	0	265.7	4	90.9	4	-1E+10	1	-1E+10	1	-1E+10	1	-1E+10	1	-1E+10	1	-1E+10	1
4902551	112	C	09/21/2023	16:04	-131.114	47.251	0	82.00	0	8.0300	0	32.4030	0	25.232	0	81.301	0	265.6	4	90.9	4	-1E+10	1	-1E+10	1	-1E+10	1	-1E+10	1	-1E+10	1	-1E+10	1
4902551	112	C	09/21/2023	16:04	-131.114	47.251	0	83.10	0	8.0120	0	32.4030	0	25.234	0	82.392	0	272.0	4	93.1	4	-1E+10	1	-1E+10	1	-1E+10	1	-1E+10	1	-1E+10	1	-1E+10	1
4902551	112	C	09/21/2023	16:04	-131.114	47.251	0	83.90	0	7.9920	0	32.4030	0	25.237	0	83.185	0	271.9	4	93.0	4	-1E+10	1	-1E+10	1	-1E+10	1	-1E+10	1	-1E+10	1	-1E+10	1
4902551	112	C	09/21/2023	16:04	-131.114	47.251	0	85.10	0	7.9490	0	32.4050	0	25.245	0	84.374	0	271.6	4	92.8	4	-1E+10	1	-1E+10	1	-1E+10	1	-1E+10	1	-1E+10	1	-1E+10	1
4902551	112	C	09/21/2023	16:04	-131.114	47.251	0	85.90	0	7.9260	0	32.4040	0	25.248	0	85.167	0	271.4	4	92.7	4	-1E+10	1	-1E+10	1	-1E+10	1	-1E+10	1	-1E+10	1	-1E+10	1
4902551	112	C	09/21/2023	16:04	-131.114	47.251	0	87.10	0	7.8970	0	32.4060	0	25.253	0	86.357	0	271.1	4	92.5	4	-1E+10	1	-1E+10	1	-1E+10	1	-1E+10	1	-1E+10	1	-1E+10	1
4902551	112	C	09/21/2023	16:04	-131.114	47.251	0	87.90	0	7.8770	0	32.4040	0	25.255	0	87.150	0	271.0	4	92.4	4	-1E+10	1	-1E+10	1	-1E+10	1	-1E+10	1	-1E+10	1	-1E+10	1
4902551	112	C	09/21/2023	16:04	-131.114	47.251	0	89.00	0	7.8440	0	32.4050	0	25.260	0	88.240	0	270.8	4	92.3	4	-1E+10	1	-1E+10	1	-1E+10	1	-1E+10	1	-1E+10	1	-1E+10	1
4902551	112	C	09/21/2023	16:04	-131.114	47.251	0	90.20	0	7.8190	0	32.4070	0	25.265	0	89.430	0	270.8	4	92.2	4	-1E+10	1	-1E+10	1	-1E+10	1	-1E+10	1	-1E+10	1	-1E+10	1
4902551	112	C	09/21/2023	16:04	-131.114	47.251	0	90.90	0	7.8170	0	32.4060	0	25.265	0	90.124	0	270.6	4	92.2	4	-1E+10	1	-1E+10	1	-1E+10	1	-1E+10	1	-1E+10	1	-1E+10	1
4902551	112	C	09/21/2023	16:04	-131.114	47.251	0	92.10	0	7.8030	0	32.4080	0	25.268	0	91.313	0	270.4	4	92.1	4	-1E+10	1	-1E+10	1	-1E+10	1	-1E+10	1	-1E+10	1	-1E+10	1
4902551	112	C	09/21/2023	16:04	-131.114	47.251	0	92.90	0	7.7920	0	32.4080	0	25.270	0	92.106	0	270.4	4	92.0	4	-1E+10	1	-1E+10	1	-1E+10	1	-1E+10	1	-1E+10	1	-1E+10	1
4902551	112	C	09/21/2023	16:04	-131.114	47.251	0	94.20	0	7.7850	0	32.4080	0	25.271	0	93.395	0	270.3	4	92.0	4	-1E+10	1	-1E+10	1	-1E+10	1	-1E+10	1	-1E+10	1	-1E+10	1
4902551	112	C	09/21/2023	16:04	-131.114	47.251	0	95.10	0	7.7610	0	32.4090	0	25.275	0	94.287	0	270.2	4	91.9	4	-1E+10	1	-1E+10	1	-1E+10	1	-1E+10	1	-1E+10	1	-1E+10	1
4902551	112	C	09/21/2023	16:04	-131.114	47.251	0	95.80	0	7.7410	0	32.4080	0	25.277	0	94.981	0	270.2	4	91.9	4	-1E+10	1	-1E+10	1	-1E+10	1	-1E+10	1	-1E+10	1	-1E+10	1
4902551	112	C	09/21/2023	16:04	-131.114	47.251	0	96.80	0	7.7090	0	32.4100	0	25.283	0	95.972	0	270.1	4	91.8	4	-1E+10	1	-1E+10	1	-1E+10	1	-1E+10	1	-1E+10	1	-1E+10	1
4902551	112	C	09/21/2023	16:04	-131.114	47.251	0	97.90	0	7.6880	0	32.4100	0	25.286	0	97.062	0	270.0	4	91.7	4	-1E+10	1	-1E+10	1	-1E+10	1	-1E+10	1	-1E+10	1	-1E+10	1
4902551	112	C	09/21/2023	16:04	-131.114	47.251	0	99.00	0	7.6790	0	32.4110	0	25.288	0	98.152	0	269.8	4	91.6	4	-1E+10	1	-1E+10	1	-1E+10	1	-1E+10	1	-1E+10	1	-1E+10	1
4902551	112	C	09/21/2023	16:04	-131.114	47.251	0	99.90	0	7.6750	0	32.4110	0	25.289	0	99.045	0	269.7	4	91.6	4	-1E+10	1	-1E+10	1	-1E+10	1	-1E+10	1	-1E+10	1	-1E+10	1
4902551	112	C	09/21/2023	16:04	-131.114	47.251	0	100.70	0	7.6700	0	32.4110	0	25.290	0	99.837	0	269.6	4	91.5	4	-1E+10	1	-1E+10	1	-1E+10	1	-1E+10	1	-1E+10	1	-1E+10	1
4902551	112	C	09/21/2023	16:04	-131.114	47.251	0	101.90	0	7.6630	0	32.4110	0	25.291	0	101.027	0	269.5	4	91.5	4	-1E+10	1	-1E+10	1	-1E+10	1	-1E+10	1	-1E+10	1	-1E+10	1
4902551	112	C	09/21/2023	16:04	-131.114	47.251	0	103.00	0	7.6590	0	32.4110	0	25.291	0	102.117	0	269.3	4	91.4	4	-1E+10	1	-1E+10	1	-1E+10	1	-1E+10	1	-1E+10	1	-1E+10	1
4902551	112	C	09/21/2023	16:04	-131.114	47.251	0	103.90	0	7.6560	0	32.4110	0	25.292	0	103.009	0	269.2	4	91.4	4	-1E+10	1	-1E+10	1	-1E+10	1	-1E+10	1	-1E+10	1	-1E+10	1
4902551	112	C	09/21/2023	16:04	-131.114	47.251	0	104.80	0	7.6320	0	32.4100	0	25.294	0	103.901	0	269.0	4	91.2	4	-1E+10	1	-1E+10	1	-1E+10	1	-1E+10	1	-1E+10	1	-1E+10	1
4902551	112	C	09/21/2023	16:04	-131.114	47.251	0	105.90	0	7.6240	0	32.4100	0	25.295	0	104.992	0	268.7	4	91.1	4	-1E+10	1	-1E+10	1	-1E+10	1	-1E+10	1	-1E+10	1	-1E+10	1
4902551	112	C	09/21/2023	16:04	-131.114	47.251	0	107.10	0	7.6030	0	32.4100	0	25.298	0	106.181	0	268.4	4	91.0	4	-1E+10	1	-1E+10	1	-1E+10	1	-1E+10	1	-1E+10	1	-1E+10	1
4902551	112	C	09/21/2023	16:04	-131.114	47.251	0	108.00	0	7.5840	0	32.4090	0	25.300	0	107.073	0	268.2	4	90.9	4	-1E+10	1	-1E+10	1	-1E+10	1	-1E+10	1	-1E+10	1	-1E+10	1
4902551	112	C	09/21/2023	16:04	-131.114	47.251	0	108.90	0	7.5740	0	32.4090	0	25.302	0	107.965	0	267.9	4	90.7	4	-1E+10	1	-1E+10	1	-1E+10	1	-1E+10	1	-1E+10	1	-1E+10	1
4902551	112	C	09/21/2023	16:04	-131.114	47.251	0	110.00	0	7.5510	0	32.4080	0	25.304	0	109.055	0	267.4	4	90.6	4	-1E+10	1	-1E+10	1	-1E+10	1	-1E+10	1	-1E+10	1	-1E+10	1
4902551	112	C	09/21/2023	16:04	-131.114	47.251	0	110.90	0	7.5290	0	32.4080	0	25.307	0	109.947	0	267.2	4	90.4	4	-1E+10	1	-1E+10	1	-1E+10	1	-1E+10	1	-1E+10	1	-1E+10	1
4902551	112	C	09/21/2023	16:04	-131.114	47.251	0	111.70	0	7.5230	0	32.4080	0	25.308	0	110.740	0	266.7	4	90.3	4	-1E+10	1	-1E+10	1	-1E+10	1	-1E+10	1	-1E+10	1	-1E+10	1
4902551	112	C	09/21/2023	16:04	-131.114	47.251	0	112.90	0	7.5160	0	32.4080	0	25.309	0	111.930	0	266.0	4	90.0	4	-1E+10	1	-1E+10	1	-1E+10	1	-1E+10	1	-1E+10	1	-1E+10	1
4902551	112	C	09/21/2023	16:04	-131.114	47.251	0	114.00	0	7.5020	0	32.4090	0	25.312	0	113.020	0	265.2	4	89.7	4	-1E+10	1	-1E+10	1	-1E+10	1	-1E+10	1	-1E+10	1	-1E+10	1
4902551	112	C	09/21/2023	16:04	-131.114	47.251	0	115.00	0	7.4910	0	32.4090	0	25.313	0	114.011	0	264.2	4	89.3	4	-1E+10	1	-1E+10	1	-1E+10	1	-1E+10	1	-1E+10	1	-1E+10	1
4902551	112	C	09/21/2023	16:04	-131.114	47.251	0	116.00	0	7.4840	0	32.4090	0	25.314	0	115.002	0	263.1	4	88.9	4	-1E+10	1	-1E+10	1	-1E+10	1	-1E+10	1	-1E+10	1	-1E+10	1
4902551	112	C	09/21/2023	16:04	-131.114	47.251	0	117.00	0	7.4740	0	32.4110	0	25.317	0	115.993	0	261.7	4	88.4	4	-1E+10	1	-1E+10	1	-1E+10	1	-1E+10	1	-1E+10	1	-1E+10	1
4902551	112	C	09/21/2023	16:04	-131.114	47.251	0	118.00	0	7.4620	0	32.4170	0	25.324	0	116.984	0	260.1	4	87.9	4	-1E+10	1	-1E+10	1	-1E+10	1	-1E+10	1	-1E+10	1	-1E+10	1
4902551	112	C	09/21/2023	16:04	-131.114	47.251	0	119.20	0	7.4550	0	32.4400	0	25.343	0	118.174	0	258.3	4	87.3	4	-1E+10	1	-1E+10	1	-1E+10	1	-1E+10	1	-1E+10	1	-1E+10	1
4902551	112	C	09/21/2023	16:04	-131.114	47.251	0	119.90	0	7.4510	0	32.4450	0	25.347	0	118.868	0	257.2	4	86.9	4	-1E+10	1	-1E+10	1	-1E+10	1	-1E+10	1	-1E+10	1	-1E+10	1
4902551	112	C	09/21/2023	16:04	-131.114	47.251	0	120.90	0	7.4440	0	32.4600	0	25.360	0	119.859	0	255.6	4	86.3	4	-1E+10	1	-1E+10	1	-1E+10	1	-1E+10	1	-1E+10	1	-1E+10	1
4902551	112	C	09/21/2023	16:04	-131.114	47.251	0	121.90	0	7.4420	0	32.4690	0	25.367	0	120.850	0	253.6	4	85.7	4	-1E+10	1	-1E+10	1	-1E+10	1	-1E+10	1	-1E+10	1	-1E+10	1
4902551	112	C	09/21/2023	16:04	-131.114	47.251	0	122.80	0	7.4420	0	32.4820	0	25.377	0	121.742	0	251.7	4	85.1	4	-1E+10	1	-1E+10	1	-1E+10	1	-1E+10	1	-1E+10	1	-1E+10	1
4902551	112	C	09/21/2023	16:04	-131.114	47.251	0	124.00	0	7.4410	0	32.5170	0	25.405	0	122.931	0	249.3	4	84.3	4	-1E+10	1	-1E+10	1	-1E+10	1	-1E+10	1	-1E+10	1	-1E+10	1
4902551	112	C	09/21/2023	16:04	-131.114	47.251	0	125.10	0	7.4390	0	32.5430	0	25.426	0	124.021	0	246.5	4	83.3	4	-1E+10	1	-1E+10	1	-1E+10	1	-1E+10	1	-1E+10	1	-1E+10	1
4902551	112	C	09/21/2023	16:04	-131.114	47.251	0	125.90	0	7.4270	0	32.5590	0	25.440	0	124.814	0	245.0	4	82.8	4	-1E+10	1	-1E+10	1	-1E+10	1	-1E+10	1	-1E+10	1	-1E+10	1
4902551	112	C	09/21/2023	16:04	-131.114	47.251	0	126.80	0	7.4150	0	32.5770	0	25.456	0	125.706	0	243.1	4	82.2	4	-1E+10	1	-1E+10	1	-1E+10	1	-1E+10	1	-1E+10	1	-1E+10	1
4902551	112	C	09/21/2023	16:04	-131.114	47.251	0	128.00	0	7.3950	0	32.6070	0	25.482	0	126.895	0	240.7	4	81.3	4	-1E+10	1	-1E+10	1	-1E+10	1	-1E+10	1	-1E+10	1	-1E+10	1
4902551	112	C	09/21/2023	16:04	-131.114	47.251	0	129.00	0	7.3760	0	32.6310	0	25.504	0	127.886	0	238.2	4	80.4	4	-1E+10	1	-1E+10	1	-1E+10	1	-1E+10	1	-1E+10	1	-1E+10	1
4902551	112	C	09/21/2023	16:04	-131.114	47.251	0	129.90	0	7.3680	0	32.6490	0	25.519	0	128.778	0	236.1	4	79.8	4	-1E+10	1	-1E+10	1	-1E+10	1	-1E+10	1	-1E+10	1	-1E+10	1
4902551	112	C	09/21/2023	16:04	-131.114	47.251	0	130.90	0	7.3320	0	32.6870	0	25.554	0	129.769	0	234.6	4	79.2	4	-1E+10	1	-1E+10	1	-1E+10	1	-1E+10	1	-1E+10	1	-1E+10	1
4902551	112	C	09/21/2023	16:04	-131.114	47.251	0	132.00	0	7.3150	0	32.7030	0	25.569	0	130.859	0	233.2	4	78.7	4	-1E+10	1	-1E+10	1	-1E+10	1	-1E+10	1	-1E+10	1	-1E+10	1
4902551	112	C	09/21/2023	16:04	-131.114	47.251	0	133.10	0	7.3000	0	32.7160	0	25.581	0	131.950	0	231.7	4	78.2	4	-1E+10	1	-1E+10	1	-1E+10	1	-1E+10	1	-1E+10	1	-1E+10	1
4902551	112	C	09/21/2023	16:04	-131.114	47.251	0	133.90	0	7.2690	0	32.7540	0	25.615	0	132.742	0	230.0	4	77.6	4	-1E+10	1	-1E+10	1	-1E+10	1	-1E+10	1	-1E+10	1	-1E+10	1
4902551	112	C	09/21/2023	16:04	-131.114	47.251	0	134.80	0	7.2580	0	32.7620	0	25.623	0	133.634	0	228.1	4	76.9	4	-1E+10	1	-1E+10	1	-1E+10	1	-1E+10	1	-1E+10	1	-1E+10	1
4902551	112	C	09/21/2023	16:04	-131.114	47.251	0	135.90	0	7.2390	0	32.8100	0	25.663	0	134.725	0	225.3	4	76.0	4	-1E+10	1	-1E+10	1	-1E+10	1	-1E+10	1	-1E+10	1	-1E+10	1
4902551	112	C	09/21/2023	16:04	-131.114	47.251	0	137.10	0	7.2210	0	32.8280	0	25.680	0	135.914	0	223.2	4	75.2	4	-1E+10	1	-1E+10	1	-1E+10	1	-1E+10	1	-1E+10	1	-1E+10	1
4902551	112	C	09/21/2023	16:04	-131.114	47.251	0	138.00	0	7.1870	0	32.8520	0	25.704	0	136.806	0	221.5	4	74.6	4	-1E+10	1	-1E+10	1	-1E+10	1	-1E+10	1	-1E+10	1	-1E+10	1
4902551	112	C	09/21/2023	16:04	-131.114	47.251	0	138.90	0	7.1600	0	32.8910	0	25.738	0	137.698	0	219.9	4	74.0	4	-1E+10	1	-1E+10	1	-1E+10	1	-1E+10	1	-1E+10	1	-1E+10	1
4902551	112	C	09/21/2023	16:04	-131.114	47.251	0	139.90	0	7.1630	0	32.9140	0	25.756	0	138.689	0	218.5	4	73.6	4	-1E+10	1	-1E+10	1	-1E+10	1	-1E+10	1	-1E+10	1	-1E+10	1
4902551	112	C	09/21/2023	16:04	-131.114	47.251	0	140.90	0	7.1140	0	32.9460	0	25.788	0	139.680	0	217.1	4	73.1	4	-1E+10	1	-1E+10	1	-1E+10	1	-1E+10	1	-1E+10	1	-1E+10	1
4902551	112	C	09/21/2023	16:04	-131.114	47.251	0	142.10	0	7.0370	0	33.0060	0	25.845	0	140.869	0	215.3	4	72.4	4	-1E+10	1	-1E+10	1	-1E+10	1	-1E+10	1	-1E+10	1	-1E+10	1
4902551	112	C	09/21/2023	16:04	-131.114	47.251	0	142.80	0	7.0170	0	33.0180	0	25.857	0	141.562	0	214.0	4	71.9	4	-1E+10	1	-1E+10	1	-1E+10	1	-1E+10	1	-1E+10	1	-1E+10	1
4902551	112	C	09/21/2023	16:04	-131.114	47.251	0	143.80	0	6.9920	0	33.0400	0	25.878	0	142.553	0	211.8	4	71.1	4	-1E+10	1	-1E+10	1	-1E+10	1	-1E+10	1	-1E+10	1	-1E+10	1
4902551	112	C	09/21/2023	16:04	-131.114	47.251	0	144.90	0	6.9790	0	33.0570	0	25.893	0	143.644	0	209.9	4	70.5	4	-1E+10	1	-1E+10	1	-1E+10	1	-1E+10	1	-1E+10	1	-1E+10	1
4902551	112	C	09/21/2023	16:04	-131.114	47.251	0	145.90	0	6.9530	0	33.0800	0	25.915	0	144.635	0	208.0	4	69.8	4	-1E+10	1	-1E+10	1	-1E+10	1	-1E+10	1	-1E+10	1	-1E+10	1
4902551	112	C	09/21/2023	16:04	-131.114	47.251	0	147.10	0	6.9140	0	33.1230	0	25.954	0	145.824	0	206.1	4	69.1	4	-1E+10	1	-1E+10	1	-1E+10	1	-1E+10	1	-1E+10	1	-1E+10	1
4902551	112	C	09/21/2023	16:04	-131.114	47.251	0	147.80	0	6.8890	0	33.1570	0	25.984	0	146.517	0	204.9	4	68.7	4	-1E+10	1	-1E+10	1	-1E+10	1	-1E+10	1	-1E+10	1	-1E+10	1
4902551	112	C	09/21/2023	16:04	-131.114	47.251	0	149.00	0	6.8810	0	33.1710	0	25.996	0	147.707	0	202.6	4	67.9	4	-1E+10	1	-1E+10	1	-1E+10	1	-1E+10	1	-1E+10	1	-1E+10	1
4902551	112	C	09/21/2023	16:04	-131.114	47.251	0	150.10	0	6.8850	0	33.1850	0	26.007	0	148.797	0	200.2	4	67.2	4	-1E+10	1	-1E+10	1	-1E+10	1	-1E+10	1	-1E+10	1	-1E+10	1
4902551	112	C	09/21/2023	16:04	-131.114	47.251	0	150.90	0	6.8810	0	33.1890	0	26.010	0	149.589	0	198.6	4	66.6	4	-1E+10	1	-1E+10	1	-1E+10	1	-1E+10	1	-1E+10	1	-1E+10	1
4902551	112	C	09/21/2023	16:04	-131.114	47.251	0	151.90	0	6.8330	0	33.2310	0	26.050	0	150.580	0	196.3	4	65.8	4	-1E+10	1	-1E+10	1	-1E+10	1	-1E+10	1	-1E+10	1	-1E+10	1
4902551	112	C	09/21/2023	16:04	-131.114	47.251	0	153.10	0	6.8190	0	33.2450	0	26.063	0	151.769	0	193.7	4	64.9	4	-1E+10	1	-1E+10	1	-1E+10	1	-1E+10	1	-1E+10	1	-1E+10	1
4902551	112	C	09/21/2023	16:04	-131.114	47.251	0	153.70	0	6.8160	0	33.2500	0	26.067	0	152.364	0	191.8	4	64.2	4	-1E+10	1	-1E+10	1	-1E+10	1	-1E+10	1	-1E+10	1	-1E+10	1
4902551	112	C	09/21/2023	16:04	-131.114	47.251	0	154.80	0	6.7920	0	33.3140	0	26.121	0	153.454	0	188.3	4	63.1	4	-1E+10	1	-1E+10	1	-1E+10	1	-1E+10	1	-1E+10	1	-1E+10	1
4902551	112	C	09/21/2023	16:04	-131.114	47.251	0	156.00	0	6.7740	0	33.3500	0	26.151	0	154.643	0	184.7	4	61.9	4	-1E+10	1	-1E+10	1	-1E+10	1	-1E+10	1	-1E+10	1	-1E+10	1
4902551	112	C	09/21/2023	16:04	-131.114	47.251	0	156.90	0	6.7740	0	33.3600	0	26.159	0	155.535	0	182.0	4	61.0	4	-1E+10	1	-1E+10	1	-1E+10	1	-1E+10	1	-1E+10	1	-1E+10	1
4902551	112	C	09/21/2023	16:04	-131.114	47.251	0	157.70	0	6.7970	0	33.3960	0	26.185	0	156.328	0	179.8	4	60.3	4	-1E+10	1	-1E+10	1	-1E+10	1	-1E+10	1	-1E+10	1	-1E+10	1
4902551	112	C	09/21/2023	16:04	-131.114	47.251	0	158.90	0	6.8180	0	33.4330	0	26.211	0	157.517	0	177.2	4	59.4	4	-1E+10	1	-1E+10	1	-1E+10	1	-1E+10	1	-1E+10	1	-1E+10	1
4902551	112	C	09/21/2023	16:04	-131.114	47.251	0	160.10	0	6.8390	0	33.4520	0	26.223	0	158.706	0	174.7	4	58.7	4	-1E+10	1	-1E+10	1	-1E+10	1	-1E+10	1	-1E+10	1	-1E+10	1
4902551	112	C	09/21/2023	16:04	-131.114	47.251	0	160.90	0	6.8600	0	33.4590	0	26.226	0	159.499	0	172.9	4	58.1	4	-1E+10	1	-1E+10	1	-1E+10	1	-1E+10	1	-1E+10	1	-1E+10	1
4902551	112	C	09/21/2023	16:04	-131.114	47.251	0	161.80	0	6.8480	0	33.4930	0	26.254	0	160.390	0	171.2	4	57.5	4	-1E+10	1	-1E+10	1	-1E+10	1	-1E+10	1	-1E+10	1	-1E+10	1
4902551	112	C	09/21/2023	16:04	-131.114	47.251	0	162.60	0	6.8650	0	33.5070	0	26.263	0	161.183	0	169.6	4	57.0	4	-1E+10	1	-1E+10	1	-1E+10	1	-1E+10	1	-1E+10	1	-1E+10	1
4902551	112	C	09/21/2023	16:04	-131.114	47.251	0	163.90	0	6.8750	0	33.5180	0	26.271	0	162.471	0	167.4	4	56.3	4	-1E+10	1	-1E+10	1	-1E+10	1	-1E+10	1	-1E+10	1	-1E+10	1
4902551	112	C	09/21/2023	16:04	-131.114	47.251	0	165.20	0	6.8790	0	33.5250	0	26.275	0	163.759	0	165.0	4	55.5	4	-1E+10	1	-1E+10	1	-1E+10	1	-1E+10	1	-1E+10	1	-1E+10	1
4902551	112	C	09/21/2023	16:04	-131.114	47.251	0	166.00	0	6.8820	0	33.5370	0	26.285	0	164.552	0	163.0	4	54.8	4	-1E+10	1	-1E+10	1	-1E+10	1	-1E+10	1	-1E+10	1	-1E+10	1
4902551	112	C	09/21/2023	16:04	-131.114	47.251	0	166.90	0	6.8880	0	33.5610	0	26.303	0	165.444	0	161.1	4	54.2	4	-1E+10	1	-1E+10	1	-1E+10	1	-1E+10	1	-1E+10	1	-1E+10	1
4902551	112	C	09/21/2023	16:04	-131.114	47.251	0	167.80	0	6.9180	0	33.5850	0	26.318	0	166.336	0	159.1	4	53.6	4	-1E+10	1	-1E+10	1	-1E+10	1	-1E+10	1	-1E+10	1	-1E+10	1
4902551	112	C	09/21/2023	16:04	-131.114	47.251	0	168.80	0	6.9170	0	33.6020	0	26.331	0	167.327	0	157.3	4	52.9	4	-1E+10	1	-1E+10	1	-1E+10	1	-1E+10	1	-1E+10	1	-1E+10	1
4902551	112	C	09/21/2023	16:04	-131.114	47.251	0	169.90	0	6.9230	0	33.6250	0	26.348	0	168.417	0	155.4	4	52.3	4	-1E+10	1	-1E+10	1	-1E+10	1	-1E+10	1	-1E+10	1	-1E+10	1
4902551	112	C	09/21/2023	16:04	-131.114	47.251	0	170.90	0	6.9270	0	33.6330	0	26.354	0	169.407	0	154.1	4	51.9	4	-1E+10	1	-1E+10	1	-1E+10	1	-1E+10	1	-1E+10	1	-1E+10	1
4902551	112	C	09/21/2023	16:04	-131.114	47.251	0	172.10	0	6.9640	0	33.6640	0	26.374	0	170.596	0	153.2	4	51.7	4	-1E+10	1	-1E+10	1	-1E+10	1	-1E+10	1	-1E+10	1	-1E+10	1
4902551	112	C	09/21/2023	16:04	-131.114	47.251	0	172.90	0	6.9480	0	33.6710	0	26.381	0	171.389	0	152.5	4	51.4	4	-1E+10	1	-1E+10	1	-1E+10	1	-1E+10	1	-1E+10	1	-1E+10	1
4902551	112	C	09/21/2023	16:04	-131.114	47.251	0	173.60	0	6.9290	0	33.6700	0	26.383	0	172.083	0	151.5	4	51.0	4	-1E+10	1	-1E+10	1	-1E+10	1	-1E+10	1	-1E+10	1	-1E+10	1
4902551	112	C	09/21/2023	16:04	-131.114	47.251	0	174.90	0	6.9280	0	33.6910	0	26.400	0	173.371	0	150.0	4	50.5	4	-1E+10	1	-1E+10	1	-1E+10	1	-1E+10	1	-1E+10	1	-1E+10	1
4902551	112	C	09/21/2023	16:04	-131.114	47.251	0	176.10	0	6.9110	0	33.6910	0	26.402	0	174.560	0	148.2	4	49.9	4	-1E+10	1	-1E+10	1	-1E+10	1	-1E+10	1	-1E+10	1	-1E+10	1
4902551	112	C	09/21/2023	16:04	-131.114	47.251	0	176.90	0	6.9090	0	33.6940	0	26.405	0	175.352	0	146.7	4	49.4	4	-1E+10	1	-1E+10	1	-1E+10	1	-1E+10	1	-1E+10	1	-1E+10	1
4902551	112	C	09/21/2023	16:04	-131.114	47.251	0	177.80	0	6.9220	0	33.7070	0	26.413	0	176.244	0	145.3	4	49.0	4	-1E+10	1	-1E+10	1	-1E+10	1	-1E+10	1	-1E+10	1	-1E+10	1
4902551	112	C	09/21/2023	16:04	-131.114	47.251	0	178.60	0	6.9260	0	33.7120	0	26.417	0	177.037	0	144.3	4	48.6	4	-1E+10	1	-1E+10	1	-1E+10	1	-1E+10	1	-1E+10	1	-1E+10	1
4902551	112	C	09/21/2023	16:04	-131.114	47.251	0	179.90	0	6.9560	0	33.7330	0	26.429	0	178.325	0	143.8	4	48.5	4	-1E+10	1	-1E+10	1	-1E+10	1	-1E+10	1	-1E+10	1	-1E+10	1
4902551	112	C	09/21/2023	16:04	-131.114	47.251	0	181.30	0	6.9540	0	33.7400	0	26.435	0	179.712	0	143.6	4	48.4	4	-1E+10	1	-1E+10	1	-1E+10	1	-1E+10	1	-1E+10	1	-1E+10	1
4902551	112	C	09/21/2023	16:04	-131.114	47.251	0	182.20	0	6.9480	0	33.7420	0	26.437	0	180.604	0	143.5	4	48.4	4	-1E+10	1	-1E+10	1	-1E+10	1	-1E+10	1	-1E+10	1	-1E+10	1
4902551	112	C	09/21/2023	16:04	-131.114	47.251	0	183.10	0	6.9410	0	33.7430	0	26.439	0	181.496	0	143.3	4	48.3	4	-1E+10	1	-1E+10	1	-1E+10	1	-1E+10	1	-1E+10	1	-1E+10	1
4902551	112	C	09/21/2023	16:04	-131.114	47.251	0	184.00	0	6.9290	0	33.7460	0	26.443	0	182.387	0	143.1	4	48.2	4	-1E+10	1	-1E+10	1	-1E+10	1	-1E+10	1	-1E+10	1	-1E+10	1
4902551	112	C	09/21/2023	16:04	-131.114	47.251	0	184.90	0	6.9250	0	33.7480	0	26.445	0	183.279	0	142.9	4	48.2	4	-1E+10	1	-1E+10	1	-1E+10	1	-1E+10	1	-1E+10	1	-1E+10	1
4902551	112	C	09/21/2023	16:04	-131.114	47.251	0	185.80	0	6.9150	0	33.7540	0	26.451	0	184.171	0	142.9	4	48.2	4	-1E+10	1	-1E+10	1	-1E+10	1	-1E+10	1	-1E+10	1	-1E+10	1
4902551	112	C	09/21/2023	16:04	-131.114	47.251	0	186.70	0	6.9220	0	33.7580	0	26.454	0	185.062	0	143.2	4	48.3	4	-1E+10	1	-1E+10	1	-1E+10	1	-1E+10	1	-1E+10	1	-1E+10	1
4902551	112	C	09/21/2023	16:04	-131.114	47.251	0	187.70	0	6.9220	0	33.7590	0	26.454	0	186.053	0	143.5	4	48.4	4	-1E+10	1	-1E+10	1	-1E+10	1	-1E+10	1	-1E+10	1	-1E+10	1
4902551	112	C	09/21/2023	16:04	-131.114	47.251	0	188.60	0	6.8880	0	33.7650	0	26.464	0	186.945	0	144.0	4	48.5	4	-1E+10	1	-1E+10	1	-1E+10	1	-1E+10	1	-1E+10	1	-1E+10	1
4902551	112	C	09/21/2023	16:04	-131.114	47.251	0	189.90	0	6.8710	0	33.7650	0	26.466	0	188.233	0	144.4	4	48.6	4	-1E+10	1	-1E+10	1	-1E+10	1	-1E+10	1	-1E+10	1	-1E+10	1
4902551	112	C	09/21/2023	16:04	-131.114	47.251	0	191.40	0	6.8350	0	33.7710	0	26.476	0	189.719	0	145.1	4	48.8	4	-1E+10	1	-1E+10	1	-1E+10	1	-1E+10	1	-1E+10	1	-1E+10	1
4902551	112	C	09/21/2023	16:04	-131.114	47.251	0	192.40	0	6.8050	0	33.7700	0	26.479	0	190.710	0	145.1	4	48.8	4	-1E+10	1	-1E+10	1	-1E+10	1	-1E+10	1	-1E+10	1	-1E+10	1
4902551	112	C	09/21/2023	16:04	-131.114	47.251	0	193.30	0	6.8030	0	33.7710	0	26.480	0	191.601	0	145.3	4	48.8	4	-1E+10	1	-1E+10	1	-1E+10	1	-1E+10	1	-1E+10	1	-1E+10	1
4902551	112	C	09/21/2023	16:04	-131.114	47.251	0	194.30	0	6.8020	0	33.7720	0	26.481	0	192.592	0	145.3	4	48.9	4	-1E+10	1	-1E+10	1	-1E+10	1	-1E+10	1	-1E+10	1	-1E+10	1
4902551	112	C	09/21/2023	16:04	-131.114	47.251	0	195.30	0	6.8000	0	33.7720	0	26.481	0	193.583	0	145.4	4	48.9	4	-1E+10	1	-1E+10	1	-1E+10	1	-1E+10	1	-1E+10	1	-1E+10	1
4902551	112	C	09/21/2023	16:04	-131.114	47.251	0	196.30	0	6.8000	0	33.7730	0	26.482	0	194.574	0	145.5	4	48.9	4	-1E+10	1	-1E+10	1	-1E+10	1	-1E+10	1	-1E+10	1	-1E+10	1
4902551	112	C	09/21/2023	16:04	-131.114	47.251	0	197.20	0	6.8000	0	33.7720	0	26.481	0	195.465	0	145.6	4	49.0	4	-1E+10	1	-1E+10	1	-1E+10	1	-1E+10	1	-1E+10	1	-1E+10	1
4902551	112	C	09/21/2023	16:04	-131.114	47.251	0	198.20	0	6.7960	0	33.7710	0	26.481	0	196.456	0	145.8	4	49.0	4	-1E+10	1	-1E+10	1	-1E+10	1	-1E+10	1	-1E+10	1	-1E+10	1
4902551	112	C	09/21/2023	16:04	-131.114	47.251	0	199.10	0	6.7940	0	33.7710	0	26.481	0	197.348	0	145.8	4	49.0	4	-1E+10	1	-1E+10	1	-1E+10	1	-1E+10	1	-1E+10	1	-1E+10	1
4902551	112	C	09/21/2023	16:04	-131.114	47.251	0	200.00	0	6.7900	0	33.7720	0	26.482	0	198.239	0	146.0	4	49.1	4	-1E+10	1	-1E+10	1	-1E+10	1	-1E+10	1	-1E+10	1	-1E+10	1
4902551	112	C	09/21/2023	16:04	-131.114	47.251	0	201.00	0	6.7900	0	33.7720	0	26.483	0	199.230	0	146.1	4	49.1	4	-1E+10	1	-1E+10	1	-1E+10	1	-1E+10	1	-1E+10	1	-1E+10	1
4902551	112	C	09/21/2023	16:04	-131.114	47.251	0	201.90	0	6.7790	0	33.7730	0	26.485	0	200.122	0	146.2	4	49.1	4	-1E+10	1	-1E+10	1	-1E+10	1	-1E+10	1	-1E+10	1	-1E+10	1
4902551	112	C	09/21/2023	16:04	-131.114	47.251	0	202.80	0	6.7720	0	33.7730	0	26.486	0	201.013	0	146.3	4	49.2	4	-1E+10	1	-1E+10	1	-1E+10	1	-1E+10	1	-1E+10	1	-1E+10	1
4902551	112	C	09/21/2023	16:04	-131.114	47.251	0	203.80	0	6.7360	0	33.7780	0	26.494	0	202.004	0	146.2	4	49.1	4	-1E+10	1	-1E+10	1	-1E+10	1	-1E+10	1	-1E+10	1	-1E+10	1
4902551	112	C	09/21/2023	16:04	-131.114	47.251	0	204.70	0	6.7200	0	33.7780	0	26.497	0	202.896	0	146.0	4	49.0	4	-1E+10	1	-1E+10	1	-1E+10	1	-1E+10	1	-1E+10	1	-1E+10	1
4902551	112	C	09/21/2023	16:04	-131.114	47.251	0	205.60	0	6.6890	0	33.7820	0	26.504	0	203.787	0	146.1	4	49.0	4	-1E+10	1	-1E+10	1	-1E+10	1	-1E+10	1	-1E+10	1	-1E+10	1
4902551	112	C	09/21/2023	16:04	-131.114	47.251	0	206.90	0	6.6850	0	33.7820	0	26.504	0	205.075	0	145.8	4	48.9	4	-1E+10	1	-1E+10	1	-1E+10	1	-1E+10	1	-1E+10	1	-1E+10	1
4902551	112	C	09/21/2023	16:04	-131.114	47.251	0	208.30	0	6.6820	0	33.7820	0	26.505	0	206.462	0	145.6	4	48.8	4	-1E+10	1	-1E+10	1	-1E+10	1	-1E+10	1	-1E+10	1	-1E+10	1
4902551	112	C	09/21/2023	16:04	-131.114	47.251	0	209.20	0	6.6790	0	33.7830	0	26.506	0	207.354	0	145.4	4	48.7	4	-1E+10	1	-1E+10	1	-1E+10	1	-1E+10	1	-1E+10	1	-1E+10	1
4902551	112	C	09/21/2023	16:04	-131.114	47.251	0	210.20	0	6.6740	0	33.7820	0	26.506	0	208.344	0	145.2	4	48.7	4	-1E+10	1	-1E+10	1	-1E+10	1	-1E+10	1	-1E+10	1	-1E+10	1
4902551	112	C	09/21/2023	16:04	-131.114	47.251	0	211.10	0	6.6720	0	33.7820	0	26.506	0	209.236	0	145.0	4	48.6	4	-1E+10	1	-1E+10	1	-1E+10	1	-1E+10	1	-1E+10	1	-1E+10	1
4902551	112	C	09/21/2023	16:04	-131.114	47.251	0	212.00	0	6.6590	0	33.7830	0	26.509	0	210.128	0	144.7	4	48.5	4	-1E+10	1	-1E+10	1	-1E+10	1	-1E+10	1	-1E+10	1	-1E+10	1
4902551	112	C	09/21/2023	16:04	-131.114	47.251	0	212.90	0	6.6310	0	33.7840	0	26.513	0	211.019	0	144.5	4	48.4	4	-1E+10	1	-1E+10	1	-1E+10	1	-1E+10	1	-1E+10	1	-1E+10	1
4902551	112	C	09/21/2023	16:04	-131.114	47.251	0	213.80	0	6.6240	0	33.7850	0	26.515	0	211.911	0	144.2	4	48.3	4	-1E+10	1	-1E+10	1	-1E+10	1	-1E+10	1	-1E+10	1	-1E+10	1
4902551	112	C	09/21/2023	16:04	-131.114	47.251	0	214.70	0	6.5950	0	33.7850	0	26.519	0	212.802	0	143.9	4	48.1	4	-1E+10	1	-1E+10	1	-1E+10	1	-1E+10	1	-1E+10	1	-1E+10	1
4902551	112	C	09/21/2023	16:04	-131.114	47.251	0	215.60	0	6.5710	0	33.7840	0	26.521	0	213.694	0	143.3	4	47.9	4	-1E+10	1	-1E+10	1	-1E+10	1	-1E+10	1	-1E+10	1	-1E+10	1
4902551	112	C	09/21/2023	16:04	-131.114	47.251	0	216.90	0	6.5410	0	33.7860	0	26.527	0	214.982	0	142.5	4	47.6	4	-1E+10	1	-1E+10	1	-1E+10	1	-1E+10	1	-1E+10	1	-1E+10	1
4902551	112	C	09/21/2023	16:04	-131.114	47.251	0	218.20	0	6.5190	0	33.7890	0	26.532	0	216.270	0	141.5	4	47.3	4	-1E+10	1	-1E+10	1	-1E+10	1	-1E+10	1	-1E+10	1	-1E+10	1
4902551	112	C	09/21/2023	16:04	-131.114	47.251	0	219.10	0	6.5030	0	33.7880	0	26.533	0	217.161	0	140.9	4	47.0	4	-1E+10	1	-1E+10	1	-1E+10	1	-1E+10	1	-1E+10	1	-1E+10	1
4902551	112	C	09/21/2023	16:04	-131.114	47.251	0	220.00	0	6.4900	0	33.7900	0	26.537	0	218.053	0	140.2	4	46.8	4	-1E+10	1	-1E+10	1	-1E+10	1	-1E+10	1	-1E+10	1	-1E+10	1
4902551	112	C	09/21/2023	16:04	-131.114	47.251	0	220.80	0	6.4670	0	33.7910	0	26.540	0	218.845	0	139.4	4	46.5	4	-1E+10	1	-1E+10	1	-1E+10	1	-1E+10	1	-1E+10	1	-1E+10	1
4902551	112	C	09/21/2023	16:04	-131.114	47.251	0	221.80	0	6.3940	0	33.7920	0	26.551	0	219.836	0	138.7	4	46.2	4	-1E+10	1	-1E+10	1	-1E+10	1	-1E+10	1	-1E+10	1	-1E+10	1
4902551	112	C	09/21/2023	16:04	-131.114	47.251	0	222.70	0	6.3870	0	33.7950	0	26.554	0	220.727	0	138.1	4	46.0	4	-1E+10	1	-1E+10	1	-1E+10	1	-1E+10	1	-1E+10	1	-1E+10	1
4902551	112	C	09/21/2023	16:04	-131.114	47.251	0	223.60	0	6.3840	0	33.7960	0	26.555	0	221.619	0	137.4	4	45.8	4	-1E+10	1	-1E+10	1	-1E+10	1	-1E+10	1	-1E+10	1	-1E+10	1
4902551	112	C	09/21/2023	16:04	-131.114	47.251	0	224.90	0	6.3750	0	33.7960	0	26.556	0	222.907	0	136.3	4	45.4	4	-1E+10	1	-1E+10	1	-1E+10	1	-1E+10	1	-1E+10	1	-1E+10	1
4902551	112	C	09/21/2023	16:04	-131.114	47.251	0	226.30	0	6.3490	0	33.8010	0	26.564	0	224.294	0	135.2	4	45.0	4	-1E+10	1	-1E+10	1	-1E+10	1	-1E+10	1	-1E+10	1	-1E+10	1
4902551	112	C	09/21/2023	16:04	-131.114	47.251	0	227.20	0	6.3320	0	33.8010	0	26.566	0	225.185	0	134.6	4	44.8	4	-1E+10	1	-1E+10	1	-1E+10	1	-1E+10	1	-1E+10	1	-1E+10	1
4902551	112	C	09/21/2023	16:04	-131.114	47.251	0	228.20	0	6.3110	0	33.8030	0	26.570	0	226.176	0	134.0	4	44.6	4	-1E+10	1	-1E+10	1	-1E+10	1	-1E+10	1	-1E+10	1	-1E+10	1
4902551	112	C	09/21/2023	16:04	-131.114	47.251	0	229.10	0	6.2900	0	33.8030	0	26.573	0	227.067	0	133.6	4	44.4	4	-1E+10	1	-1E+10	1	-1E+10	1	-1E+10	1	-1E+10	1	-1E+10	1
4902551	112	C	09/21/2023	16:04	-131.114	47.251	0	230.00	0	6.2870	0	33.8030	0	26.573	0	227.959	0	133.1	4	44.2	4	-1E+10	1	-1E+10	1	-1E+10	1	-1E+10	1	-1E+10	1	-1E+10	1
4902551	112	C	09/21/2023	16:04	-131.114	47.251	0	231.00	0	6.2860	0	33.8030	0	26.573	0	228.949	0	132.4	4	44.0	4	-1E+10	1	-1E+10	1	-1E+10	1	-1E+10	1	-1E+10	1	-1E+10	1
4902551	112	C	09/21/2023	16:04	-131.114	47.251	0	231.90	0	6.2840	0	33.8040	0	26.574	0	229.841	0	131.8	4	43.8	4	-1E+10	1	-1E+10	1	-1E+10	1	-1E+10	1	-1E+10	1	-1E+10	1
4902551	112	C	09/21/2023	16:04	-131.114	47.251	0	232.90	0	6.2850	0	33.8040	0	26.574	0	230.831	0	131.0	4	43.5	4	-1E+10	1	-1E+10	1	-1E+10	1	-1E+10	1	-1E+10	1	-1E+10	1
4902551	112	C	09/21/2023	16:04	-131.114	47.251	0	233.80	0	6.2850	0	33.8040	0	26.574	0	231.723	0	130.2	4	43.3	4	-1E+10	1	-1E+10	1	-1E+10	1	-1E+10	1	-1E+10	1	-1E+10	1
4902551	112	C	09/21/2023	16:04	-131.114	47.251	0	234.80	0	6.2800	0	33.8050	0	26.576	0	232.713	0	129.4	4	43.0	4	-1E+10	1	-1E+10	1	-1E+10	1	-1E+10	1	-1E+10	1	-1E+10	1
4902551	112	C	09/21/2023	16:04	-131.114	47.251	0	235.70	0	6.2720	0	33.8070	0	26.578	0	233.605	0	128.5	4	42.7	4	-1E+10	1	-1E+10	1	-1E+10	1	-1E+10	1	-1E+10	1	-1E+10	1
4902551	112	C	09/21/2023	16:04	-131.114	47.251	0	236.70	0	6.2590	0	33.8100	0	26.582	0	234.595	0	127.8	4	42.4	4	-1E+10	1	-1E+10	1	-1E+10	1	-1E+10	1	-1E+10	1	-1E+10	1
4902551	112	C	09/21/2023	16:04	-131.114	47.251	0	237.60	0	6.2460	0	33.8120	0	26.586	0	235.487	0	127.2	4	42.2	4	-1E+10	1	-1E+10	1	-1E+10	1	-1E+10	1	-1E+10	1	-1E+10	1
4902551	112	C	09/21/2023	16:04	-131.114	47.251	0	238.60	0	6.2460	0	33.8120	0	26.586	0	236.477	0	126.5	4	42.0	4	-1E+10	1	-1E+10	1	-1E+10	1	-1E+10	1	-1E+10	1	-1E+10	1
4902551	112	C	09/21/2023	16:04	-131.114	47.251	0	239.60	0	6.2450	0	33.8130	0	26.586	0	237.468	0	125.9	4	41.8	4	-1E+10	1	-1E+10	1	-1E+10	1	-1E+10	1	-1E+10	1	-1E+10	1
4902551	112	C	09/21/2023	16:04	-131.114	47.251	0	240.60	0	6.2470	0	33.8140	0	26.587	0	238.459	0	125.5	4	41.7	4	-1E+10	1	-1E+10	1	-1E+10	1	-1E+10	1	-1E+10	1	-1E+10	1
4902551	112	C	09/21/2023	16:04	-131.114	47.251	0	241.50	0	6.2490	0	33.8170	0	26.589	0	239.350	0	125.1	4	41.5	4	-1E+10	1	-1E+10	1	-1E+10	1	-1E+10	1	-1E+10	1	-1E+10	1
4902551	112	C	09/21/2023	16:04	-131.114	47.251	0	242.50	0	6.2470	0	33.8160	0	26.589	0	240.340	0	124.7	4	41.4	4	-1E+10	1	-1E+10	1	-1E+10	1	-1E+10	1	-1E+10	1	-1E+10	1
4902551	112	C	09/21/2023	16:04	-131.114	47.251	0	243.50	0	6.2330	0	33.8180	0	26.592	0	241.331	0	124.3	4	41.3	4	-1E+10	1	-1E+10	1	-1E+10	1	-1E+10	1	-1E+10	1	-1E+10	1
4902551	112	C	09/21/2023	16:04	-131.114	47.251	0	244.50	0	6.1890	0	33.8180	0	26.598	0	242.322	0	124.0	4	41.1	4	-1E+10	1	-1E+10	1	-1E+10	1	-1E+10	1	-1E+10	1	-1E+10	1
4902551	112	C	09/21/2023	16:04	-131.114	47.251	0	245.50	0	6.1680	0	33.8190	0	26.601	0	243.312	0	123.7	4	41.0	4	-1E+10	1	-1E+10	1	-1E+10	1	-1E+10	1	-1E+10	1	-1E+10	1
4902551	112	C	09/21/2023	16:04	-131.114	47.251	0	246.50	0	6.1620	0	33.8180	0	26.601	0	244.303	0	123.3	4	40.9	4	-1E+10	1	-1E+10	1	-1E+10	1	-1E+10	1	-1E+10	1	-1E+10	1
4902551	112	C	09/21/2023	16:04	-131.114	47.251	0	247.50	0	6.1190	0	33.8200	0	26.608	0	245.293	0	123.0	4	40.7	4	-1E+10	1	-1E+10	1	-1E+10	1	-1E+10	1	-1E+10	1	-1E+10	1
4902551	112	C	09/21/2023	16:04	-131.114	47.251	0	248.60	0	6.1020	0	33.8190	0	26.609	0	246.383	0	122.7	4	40.6	4	-1E+10	1	-1E+10	1	-1E+10	1	-1E+10	1	-1E+10	1	-1E+10	1
4902551	112	C	09/21/2023	16:04	-131.114	47.251	0	249.60	0	6.1030	0	33.8190	0	26.609	0	247.373	0	122.3	4	40.5	4	-1E+10	1	-1E+10	1	-1E+10	1	-1E+10	1	-1E+10	1	-1E+10	1
4902551	112	C	09/21/2023	16:04	-131.114	47.251	0	250.60	0	6.1020	0	33.8190	0	26.609	0	248.364	0	121.8	4	40.3	4	-1E+10	1	-1E+10	1	-1E+10	1	-1E+10	1	-1E+10	1	-1E+10	1
4902551	112	C	09/21/2023	16:04	-131.114	47.251	0	251.60	0	6.0810	0	33.8210	0	26.614	0	249.354	0	121.5	4	40.2	4	-1E+10	1	-1E+10	1	-1E+10	1	-1E+10	1	-1E+10	1	-1E+10	1
4902551	112	C	09/21/2023	16:04	-131.114	47.251	0	252.70	0	6.0810	0	33.8200	0	26.613	0	250.443	0	121.2	4	40.1	4	-1E+10	1	-1E+10	1	-1E+10	1	-1E+10	1	-1E+10	1	-1E+10	1
4902551	112	C	09/21/2023	16:04	-131.114	47.251	0	253.70	0	6.0460	0	33.8210	0	26.618	0	251.434	0	120.8	4	39.9	4	-1E+10	1	-1E+10	1	-1E+10	1	-1E+10	1	-1E+10	1	-1E+10	1
4902551	112	C	09/21/2023	16:04	-131.114	47.251	0	254.70	0	6.0360	0	33.8210	0	26.619	0	252.424	0	120.5	4	39.8	4	-1E+10	1	-1E+10	1	-1E+10	1	-1E+10	1	-1E+10	1	-1E+10	1
4902551	112	C	09/21/2023	16:04	-131.114	47.251	0	255.80	0	6.0360	0	33.8230	0	26.621	0	253.514	0	120.1	4	39.7	4	-1E+10	1	-1E+10	1	-1E+10	1	-1E+10	1	-1E+10	1	-1E+10	1
4902551	112	C	09/21/2023	16:04	-131.114	47.251	0	256.80	0	6.0360	0	33.8250	0	26.623	0	254.504	0	119.7	4	39.6	4	-1E+10	1	-1E+10	1	-1E+10	1	-1E+10	1	-1E+10	1	-1E+10	1
4902551	112	C	09/21/2023	16:04	-131.114	47.251	0	257.90	0	6.0330	0	33.8260	0	26.624	0	255.594	0	119.5	4	39.5	4	-1E+10	1	-1E+10	1	-1E+10	1	-1E+10	1	-1E+10	1	-1E+10	1
4902551	112	C	09/21/2023	16:04	-131.114	47.251	0	258.90	0	6.0350	0	33.8260	0	26.624	0	256.584	0	119.2	4	39.4	4	-1E+10	1	-1E+10	1	-1E+10	1	-1E+10	1	-1E+10	1	-1E+10	1
4902551	112	C	09/21/2023	16:04	-131.114	47.251	0	259.90	0	6.0310	0	33.8280	0	26.626	0	257.575	0	118.9	4	39.3	4	-1E+10	1	-1E+10	1	-1E+10	1	-1E+10	1	-1E+10	1	-1E+10	1
4902551	112	C	09/21/2023	16:04	-131.114	47.251	0	261.00	0	5.9990	0	33.8290	0	26.630	0	258.664	0	118.7	4	39.2	4	-1E+10	1	-1E+10	1	-1E+10	1	-1E+10	1	-1E+10	1	-1E+10	1
4902551	112	C	09/21/2023	16:04	-131.114	47.251	0	262.10	0	5.9850	0	33.8280	0	26.631	0	259.754	0	118.5	4	39.1	4	-1E+10	1	-1E+10	1	-1E+10	1	-1E+10	1	-1E+10	1	-1E+10	1
4902551	112	C	09/21/2023	16:04	-131.114	47.251	0	263.10	0	5.9610	0	33.8270	0	26.634	0	260.744	0	118.2	4	39.0	4	-1E+10	1	-1E+10	1	-1E+10	1	-1E+10	1	-1E+10	1	-1E+10	1
4902551	112	C	09/21/2023	16:04	-131.114	47.251	0	264.10	0	5.9390	0	33.8270	0	26.636	0	261.734	0	118.1	4	38.9	4	-1E+10	1	-1E+10	1	-1E+10	1	-1E+10	1	-1E+10	1	-1E+10	1
4902551	112	C	09/21/2023	16:04	-131.114	47.251	0	265.20	0	5.9030	0	33.8270	0	26.641	0	262.824	0	118.0	4	38.9	4	-1E+10	1	-1E+10	1	-1E+10	1	-1E+10	1	-1E+10	1	-1E+10	1
4902551	112	C	09/21/2023	16:04	-131.114	47.251	0	266.30	0	5.8790	0	33.8300	0	26.646	0	263.913	0	117.9	4	38.8	4	-1E+10	1	-1E+10	1	-1E+10	1	-1E+10	1	-1E+10	1	-1E+10	1
4902551	112	C	09/21/2023	16:04	-131.114	47.251	0	267.30	0	5.8700	0	33.8260	0	26.644	0	264.904	0	117.8	4	38.8	4	-1E+10	1	-1E+10	1	-1E+10	1	-1E+10	1	-1E+10	1	-1E+10	1
4902551	112	C	09/21/2023	16:04	-131.114	47.251	0	268.40	0	5.8460	0	33.8210	0	26.643	0	265.993	0	117.6	4	38.7	4	-1E+10	1	-1E+10	1	-1E+10	1	-1E+10	1	-1E+10	1	-1E+10	1
4902551	112	C	09/21/2023	16:04	-131.114	47.251	0	269.50	0	5.8310	0	33.8240	0	26.647	0	267.083	0	117.3	4	38.6	4	-1E+10	1	-1E+10	1	-1E+10	1	-1E+10	1	-1E+10	1	-1E+10	1
4902551	112	C	09/21/2023	16:04	-131.114	47.251	0	270.60	0	5.8020	0	33.8260	0	26.652	0	268.172	0	117.0	4	38.4	4	-1E+10	1	-1E+10	1	-1E+10	1	-1E+10	1	-1E+10	1	-1E+10	1
4902551	112	C	09/21/2023	16:04	-131.114	47.251	0	271.70	0	5.8060	0	33.8240	0	26.650	0	269.261	0	116.6	4	38.3	4	-1E+10	1	-1E+10	1	-1E+10	1	-1E+10	1	-1E+10	1	-1E+10	1
4902551	112	C	09/21/2023	16:04	-131.114	47.251	0	272.80	0	5.7530	0	33.8190	0	26.653	0	270.351	0	116.0	4	38.1	4	-1E+10	1	-1E+10	1	-1E+10	1	-1E+10	1	-1E+10	1	-1E+10	1
4902551	112	C	09/21/2023	16:04	-131.114	47.251	0	273.90	0	5.7570	0	33.8200	0	26.653	0	271.440	0	115.4	4	37.9	4	-1E+10	1	-1E+10	1	-1E+10	1	-1E+10	1	-1E+10	1	-1E+10	1
4902551	112	C	09/21/2023	16:04	-131.114	47.251	0	275.00	0	5.7680	0	33.8240	0	26.655	0	272.530	0	115.1	4	37.8	4	-1E+10	1	-1E+10	1	-1E+10	1	-1E+10	1	-1E+10	1	-1E+10	1
4902551	112	C	09/21/2023	16:04	-131.114	47.251	0	276.10	0	5.7470	0	33.8340	0	26.666	0	273.619	0	114.8	4	37.7	4	-1E+10	1	-1E+10	1	-1E+10	1	-1E+10	1	-1E+10	1	-1E+10	1
4902551	112	C	09/21/2023	16:04	-131.114	47.251	0	277.20	0	5.7510	0	33.8220	0	26.656	0	274.708	0	114.4	4	37.6	4	-1E+10	1	-1E+10	1	-1E+10	1	-1E+10	1	-1E+10	1	-1E+10	1
4902551	112	C	09/21/2023	16:04	-131.114	47.251	0	278.30	0	5.7240	0	33.8220	0	26.659	0	275.798	0	114.1	4	37.4	4	-1E+10	1	-1E+10	1	-1E+10	1	-1E+10	1	-1E+10	1	-1E+10	1
4902551	112	C	09/21/2023	16:04	-131.114	47.251	0	279.40	0	5.7110	0	33.8260	0	26.664	0	276.887	0	113.6	4	37.3	4	-1E+10	1	-1E+10	1	-1E+10	1	-1E+10	1	-1E+10	1	-1E+10	1
4902551	112	C	09/21/2023	16:04	-131.114	47.251	0	280.50	0	5.6910	0	33.8230	0	26.664	0	277.977	0	113.2	4	37.1	4	-1E+10	1	-1E+10	1	-1E+10	1	-1E+10	1	-1E+10	1	-1E+10	1
4902551	112	C	09/21/2023	16:04	-131.114	47.251	0	281.60	0	5.6800	0	33.8250	0	26.667	0	279.066	0	112.7	4	36.9	4	-1E+10	1	-1E+10	1	-1E+10	1	-1E+10	1	-1E+10	1	-1E+10	1
4902551	112	C	09/21/2023	16:04	-131.114	47.251	0	282.70	0	5.6700	0	33.8240	0	26.667	0	280.155	0	112.2	4	36.8	4	-1E+10	1	-1E+10	1	-1E+10	1	-1E+10	1	-1E+10	1	-1E+10	1
4902551	112	C	09/21/2023	16:04	-131.114	47.251	0	283.70	0	5.6670	0	33.8240	0	26.667	0	281.146	0	111.7	4	36.6	4	-1E+10	1	-1E+10	1	-1E+10	1	-1E+10	1	-1E+10	1	-1E+10	1
4902551	112	C	09/21/2023	16:04	-131.114	47.251	0	284.80	0	5.6620	0	33.8260	0	26.670	0	282.235	0	111.2	4	36.4	4	-1E+10	1	-1E+10	1	-1E+10	1	-1E+10	1	-1E+10	1	-1E+10	1
4902551	112	C	09/21/2023	16:04	-131.114	47.251	0	285.90	0	5.6420	0	33.8280	0	26.674	0	283.324	0	110.7	4	36.2	4	-1E+10	1	-1E+10	1	-1E+10	1	-1E+10	1	-1E+10	1	-1E+10	1
4902551	112	C	09/21/2023	16:04	-131.114	47.251	0	287.00	0	5.6310	0	33.8280	0	26.675	0	284.414	0	110.1	4	36.0	4	-1E+10	1	-1E+10	1	-1E+10	1	-1E+10	1	-1E+10	1	-1E+10	1
4902551	112	C	09/21/2023	16:04	-131.114	47.251	0	288.10	0	5.6290	0	33.8270	0	26.674	0	285.503	0	109.5	4	35.8	4	-1E+10	1	-1E+10	1	-1E+10	1	-1E+10	1	-1E+10	1	-1E+10	1
4902551	112	C	09/21/2023	16:04	-131.114	47.251	0	289.20	0	5.6280	0	33.8280	0	26.675	0	286.592	0	108.8	4	35.6	4	-1E+10	1	-1E+10	1	-1E+10	1	-1E+10	1	-1E+10	1	-1E+10	1
4902551	112	C	09/21/2023	16:04	-131.114	47.251	0	290.30	0	5.6280	0	33.8260	0	26.674	0	287.682	0	108.0	4	35.3	4	-1E+10	1	-1E+10	1	-1E+10	1	-1E+10	1	-1E+10	1	-1E+10	1
4902551	112	C	09/21/2023	16:04	-131.114	47.251	0	291.40	0	5.6150	0	33.8310	0	26.679	0	288.771	0	107.2	4	35.1	4	-1E+10	1	-1E+10	1	-1E+10	1	-1E+10	1	-1E+10	1	-1E+10	1
4902551	112	C	09/21/2023	16:04	-131.114	47.251	0	292.60	0	5.5790	0	33.8340	0	26.686	0	289.959	0	106.7	4	34.9	4	-1E+10	1	-1E+10	1	-1E+10	1	-1E+10	1	-1E+10	1	-1E+10	1
4902551	112	C	09/21/2023	16:04	-131.114	47.251	0	293.70	0	5.5740	0	33.8350	0	26.687	0	291.049	0	106.1	4	34.7	4	-1E+10	1	-1E+10	1	-1E+10	1	-1E+10	1	-1E+10	1	-1E+10	1
4902551	112	C	09/21/2023	16:04	-131.114	47.251	0	294.80	0	5.5770	0	33.8360	0	26.688	0	292.138	0	105.6	4	34.5	4	-1E+10	1	-1E+10	1	-1E+10	1	-1E+10	1	-1E+10	1	-1E+10	1
4902551	112	C	09/21/2023	16:04	-131.114	47.251	0	295.90	0	5.5800	0	33.8390	0	26.690	0	293.227	0	105.0	4	34.3	4	-1E+10	1	-1E+10	1	-1E+10	1	-1E+10	1	-1E+10	1	-1E+10	1
4902551	112	C	09/21/2023	16:04	-131.114	47.251	0	297.00	0	5.5910	0	33.8420	0	26.691	0	294.316	0	104.6	4	34.2	4	-1E+10	1	-1E+10	1	-1E+10	1	-1E+10	1	-1E+10	1	-1E+10	1
4902551	112	C	09/21/2023	16:04	-131.114	47.251	0	298.10	0	5.5960	0	33.8430	0	26.691	0	295.406	0	104.1	4	34.1	4	-1E+10	1	-1E+10	1	-1E+10	1	-1E+10	1	-1E+10	1	-1E+10	1
4902551	112	C	09/21/2023	16:04	-131.114	47.251	0	299.20	0	5.5960	0	33.8440	0	26.692	0	296.495	0	103.6	4	33.9	4	-1E+10	1	-1E+10	1	-1E+10	1	-1E+10	1	-1E+10	1	-1E+10	1
4902551	112	C	09/21/2023	16:04	-131.114	47.251	0	300.30	0	5.5950	0	33.8440	0	26.692	0	297.584	0	103.1	4	33.7	4	-1E+10	1	-1E+10	1	-1E+10	1	-1E+10	1	-1E+10	1	-1E+10	1
4902551	112	C	09/21/2023	16:04	-131.114	47.251	0	301.40	0	5.5970	0	33.8430	0	26.691	0	298.673	0	102.6	4	33.6	4	-1E+10	1	-1E+10	1	-1E+10	1	-1E+10	1	-1E+10	1	-1E+10	1
4902551	112	C	09/21/2023	16:04	-131.114	47.251	0	302.50	0	5.5980	0	33.8460	0	26.693	0	299.763	0	102.0	4	33.4	4	-1E+10	1	-1E+10	1	-1E+10	1	-1E+10	1	-1E+10	1	-1E+10	1
4902551	112	C	09/21/2023	16:04	-131.114	47.251	0	303.50	0	5.6030	0	33.8450	0	26.692	0	300.753	0	101.4	4	33.2	4	-1E+10	1	-1E+10	1	-1E+10	1	-1E+10	1	-1E+10	1	-1E+10	1
4902551	112	C	09/21/2023	16:04	-131.114	47.251	0	304.60	0	5.6040	0	33.8440	0	26.691	0	301.842	0	100.7	4	33.0	4	-1E+10	1	-1E+10	1	-1E+10	1	-1E+10	1	-1E+10	1	-1E+10	1
4902551	112	C	09/21/2023	16:04	-131.114	47.251	0	305.70	0	5.6050	0	33.8480	0	26.694	0	302.931	0	100.1	4	32.7	4	-1E+10	1	-1E+10	1	-1E+10	1	-1E+10	1	-1E+10	1	-1E+10	1
4902551	112	C	09/21/2023	16:04	-131.114	47.251	0	306.80	0	5.5870	0	33.8500	0	26.698	0	304.021	0	99.5	4	32.6	4	-1E+10	1	-1E+10	1	-1E+10	1	-1E+10	1	-1E+10	1	-1E+10	1
4902551	112	C	09/21/2023	16:04	-131.114	47.251	0	307.90	0	5.5790	0	33.8510	0	26.700	0	305.110	0	99.0	4	32.4	4	-1E+10	1	-1E+10	1	-1E+10	1	-1E+10	1	-1E+10	1	-1E+10	1
4902551	112	C	09/21/2023	16:04	-131.114	47.251	0	308.90	0	5.5490	0	33.8500	0	26.702	0	306.100	0	98.5	4	32.2	4	-1E+10	1	-1E+10	1	-1E+10	1	-1E+10	1	-1E+10	1	-1E+10	1
4902551	112	C	09/21/2023	16:04	-131.114	47.251	0	310.00	0	5.5260	0	33.8540	0	26.708	0	307.189	0	98.0	4	32.0	4	-1E+10	1	-1E+10	1	-1E+10	1	-1E+10	1	-1E+10	1	-1E+10	1
4902551	112	C	09/21/2023	16:04	-131.114	47.251	0	311.10	0	5.5230	0	33.8580	0	26.712	0	308.279	0	97.7	4	31.9	4	-1E+10	1	-1E+10	1	-1E+10	1	-1E+10	1	-1E+10	1	-1E+10	1
4902551	112	C	09/21/2023	16:04	-131.114	47.251	0	312.10	0	5.5270	0	33.8610	0	26.714	0	309.269	0	97.7	4	31.9	4	-1E+10	1	-1E+10	1	-1E+10	1	-1E+10	1	-1E+10	1	-1E+10	1
4902551	112	C	09/21/2023	16:04	-131.114	47.251	0	313.20	0	5.5340	0	33.8600	0	26.712	0	310.358	0	97.6	4	31.9	4	-1E+10	1	-1E+10	1	-1E+10	1	-1E+10	1	-1E+10	1	-1E+10	1
4902551	112	C	09/21/2023	16:04	-131.114	47.251	0	314.30	0	5.5090	0	33.8560	0	26.712	0	311.447	0	97.5	4	31.8	4	-1E+10	1	-1E+10	1	-1E+10	1	-1E+10	1	-1E+10	1	-1E+10	1
4902551	112	C	09/21/2023	16:04	-131.114	47.251	0	315.30	0	5.4330	0	33.8500	0	26.716	0	312.437	0	97.4	4	31.7	4	-1E+10	1	-1E+10	1	-1E+10	1	-1E+10	1	-1E+10	1	-1E+10	1
4902551	112	C	09/21/2023	16:04	-131.114	47.251	0	316.30	0	5.3990	0	33.8480	0	26.719	0	313.427	0	97.0	4	31.6	4	-1E+10	1	-1E+10	1	-1E+10	1	-1E+10	1	-1E+10	1	-1E+10	1
4902551	112	C	09/21/2023	16:04	-131.114	47.251	0	317.40	0	5.3630	0	33.8450	0	26.721	0	314.517	0	96.5	4	31.4	4	-1E+10	1	-1E+10	1	-1E+10	1	-1E+10	1	-1E+10	1	-1E+10	1
4902551	112	C	09/21/2023	16:04	-131.114	47.251	0	318.40	0	5.3330	0	33.8490	0	26.727	0	315.507	0	96.0	4	31.2	4	-1E+10	1	-1E+10	1	-1E+10	1	-1E+10	1	-1E+10	1	-1E+10	1
4902551	112	C	09/21/2023	16:04	-131.114	47.251	0	319.40	0	5.3100	0	33.8490	0	26.730	0	316.497	0	95.6	4	31.1	4	-1E+10	1	-1E+10	1	-1E+10	1	-1E+10	1	-1E+10	1	-1E+10	1
4902551	112	C	09/21/2023	16:04	-131.114	47.251	0	321.00	0	5.2900	0	33.8500	0	26.733	0	318.081	0	95.1	4	30.9	4	-1E+10	1	-1E+10	1	-1E+10	1	-1E+10	1	-1E+10	1	-1E+10	1
4902551	112	C	09/21/2023	16:04	-131.114	47.251	0	322.10	0	5.2850	0	33.8510	0	26.735	0	319.170	0	94.6	4	30.7	4	-1E+10	1	-1E+10	1	-1E+10	1	-1E+10	1	-1E+10	1	-1E+10	1
4902551	112	C	09/21/2023	16:04	-131.114	47.251	0	322.90	0	5.2770	0	33.8520	0	26.736	0	319.962	0	94.3	4	30.6	4	-1E+10	1	-1E+10	1	-1E+10	1	-1E+10	1	-1E+10	1	-1E+10	1
4902551	112	C	09/21/2023	16:04	-131.114	47.251	0	323.70	0	5.2780	0	33.8520	0	26.736	0	320.755	0	94.0	4	30.5	4	-1E+10	1	-1E+10	1	-1E+10	1	-1E+10	1	-1E+10	1	-1E+10	1
4902551	112	C	09/21/2023	16:04	-131.114	47.251	0	324.90	0	5.2820	0	33.8520	0	26.736	0	321.943	0	93.4	4	30.3	4	-1E+10	1	-1E+10	1	-1E+10	1	-1E+10	1	-1E+10	1	-1E+10	1
4902551	112	C	09/21/2023	16:04	-131.114	47.251	0	326.10	0	5.2770	0	33.8530	0	26.737	0	323.131	0	92.8	4	30.1	4	-1E+10	1	-1E+10	1	-1E+10	1	-1E+10	1	-1E+10	1	-1E+10	1
4902551	112	C	09/21/2023	16:04	-131.114	47.251	0	326.90	0	5.2660	0	33.8520	0	26.738	0	323.923	0	92.5	4	30.0	4	-1E+10	1	-1E+10	1	-1E+10	1	-1E+10	1	-1E+10	1	-1E+10	1
4902551	112	C	09/21/2023	16:04	-131.114	47.251	0	327.70	0	5.2510	0	33.8550	0	26.742	0	324.715	0	92.2	4	29.9	4	-1E+10	1	-1E+10	1	-1E+10	1	-1E+10	1	-1E+10	1	-1E+10	1
4902551	112	C	09/21/2023	16:04	-131.114	47.251	0	328.90	0	5.2480	0	33.8580	0	26.744	0	325.903	0	91.7	4	29.8	4	-1E+10	1	-1E+10	1	-1E+10	1	-1E+10	1	-1E+10	1	-1E+10	1
4902551	112	C	09/21/2023	16:04	-131.114	47.251	0	330.10	0	5.2460	0	33.8600	0	26.746	0	327.091	0	91.2	4	29.6	4	-1E+10	1	-1E+10	1	-1E+10	1	-1E+10	1	-1E+10	1	-1E+10	1
4902551	112	C	09/21/2023	16:04	-131.114	47.251	0	330.90	0	5.2450	0	33.8590	0	26.746	0	327.883	0	90.9	4	29.5	4	-1E+10	1	-1E+10	1	-1E+10	1	-1E+10	1	-1E+10	1	-1E+10	1
4902551	112	C	09/21/2023	16:04	-131.114	47.251	0	331.70	0	5.2430	0	33.8590	0	26.746	0	328.675	0	90.4	4	29.3	4	-1E+10	1	-1E+10	1	-1E+10	1	-1E+10	1	-1E+10	1	-1E+10	1
4902551	112	C	09/21/2023	16:04	-131.114	47.251	0	332.90	0	5.2330	0	33.8620	0	26.749	0	329.863	0	89.8	4	29.1	4	-1E+10	1	-1E+10	1	-1E+10	1	-1E+10	1	-1E+10	1	-1E+10	1
4902551	112	C	09/21/2023	16:04	-131.114	47.251	0	334.10	0	5.2250	0	33.8660	0	26.754	0	331.052	0	89.3	4	29.0	4	-1E+10	1	-1E+10	1	-1E+10	1	-1E+10	1	-1E+10	1	-1E+10	1
4902551	112	C	09/21/2023	16:04	-131.114	47.251	0	334.90	0	5.2200	0	33.8670	0	26.755	0	331.844	0	89.0	4	28.9	4	-1E+10	1	-1E+10	1	-1E+10	1	-1E+10	1	-1E+10	1	-1E+10	1
4902551	112	C	09/21/2023	16:04	-131.114	47.251	0	335.70	0	5.2190	0	33.8670	0	26.755	0	332.636	0	88.8	4	28.8	4	-1E+10	1	-1E+10	1	-1E+10	1	-1E+10	1	-1E+10	1	-1E+10	1
4902551	112	C	09/21/2023	16:04	-131.114	47.251	0	336.90	0	5.2100	0	33.8670	0	26.756	0	333.824	0	88.3	4	28.6	4	-1E+10	1	-1E+10	1	-1E+10	1	-1E+10	1	-1E+10	1	-1E+10	1
4902551	112	C	09/21/2023	16:04	-131.114	47.251	0	338.10	0	5.1970	0	33.8690	0	26.759	0	335.012	0	87.9	4	28.5	4	-1E+10	1	-1E+10	1	-1E+10	1	-1E+10	1	-1E+10	1	-1E+10	1
4902551	112	C	09/21/2023	16:04	-131.114	47.251	0	339.00	0	5.1810	0	33.8670	0	26.759	0	335.903	0	87.6	4	28.4	4	-1E+10	1	-1E+10	1	-1E+10	1	-1E+10	1	-1E+10	1	-1E+10	1
4902551	112	C	09/21/2023	16:04	-131.114	47.251	0	339.80	0	5.1760	0	33.8670	0	26.760	0	336.695	0	87.3	4	28.3	4	-1E+10	1	-1E+10	1	-1E+10	1	-1E+10	1	-1E+10	1	-1E+10	1
4902551	112	C	09/21/2023	16:04	-131.114	47.251	0	341.00	0	5.1690	0	33.8670	0	26.761	0	337.883	0	86.8	4	28.1	4	-1E+10	1	-1E+10	1	-1E+10	1	-1E+10	1	-1E+10	1	-1E+10	1
4902551	112	C	09/21/2023	16:04	-131.114	47.251	0	342.20	0	5.1690	0	33.8680	0	26.762	0	339.071	0	86.2	4	27.9	4	-1E+10	1	-1E+10	1	-1E+10	1	-1E+10	1	-1E+10	1	-1E+10	1
4902551	112	C	09/21/2023	16:04	-131.114	47.251	0	343.00	0	5.1580	0	33.8730	0	26.767	0	339.863	0	85.9	4	27.8	4	-1E+10	1	-1E+10	1	-1E+10	1	-1E+10	1	-1E+10	1	-1E+10	1
4902551	112	C	09/21/2023	16:04	-131.114	47.251	0	343.90	0	5.1520	0	33.8750	0	26.769	0	340.754	0	85.7	4	27.7	4	-1E+10	1	-1E+10	1	-1E+10	1	-1E+10	1	-1E+10	1	-1E+10	1
4902551	112	C	09/21/2023	16:04	-131.114	47.251	0	344.70	0	5.1510	0	33.8750	0	26.769	0	341.546	0	85.4	4	27.7	4	-1E+10	1	-1E+10	1	-1E+10	1	-1E+10	1	-1E+10	1	-1E+10	1
4902551	112	C	09/21/2023	16:04	-131.114	47.251	0	345.90	0	5.1470	0	33.8750	0	26.770	0	342.734	0	85.2	4	27.6	4	-1E+10	1	-1E+10	1	-1E+10	1	-1E+10	1	-1E+10	1	-1E+10	1
4902551	112	C	09/21/2023	16:04	-131.114	47.251	0	347.20	0	5.1390	0	33.8790	0	26.774	0	344.021	0	84.9	4	27.5	4	-1E+10	1	-1E+10	1	-1E+10	1	-1E+10	1	-1E+10	1	-1E+10	1
4902551	112	C	09/21/2023	16:04	-131.114	47.251	0	348.10	0	5.1360	0	33.8770	0	26.773	0	344.912	0	84.6	4	27.4	4	-1E+10	1	-1E+10	1	-1E+10	1	-1E+10	1	-1E+10	1	-1E+10	1
4902551	112	C	09/21/2023	16:04	-131.114	47.251	0	348.90	0	5.1330	0	33.8770	0	26.773	0	345.704	0	84.4	4	27.3	4	-1E+10	1	-1E+10	1	-1E+10	1	-1E+10	1	-1E+10	1	-1E+10	1
4902551	112	C	09/21/2023	16:04	-131.114	47.251	0	349.80	0	5.1230	0	33.8800	0	26.777	0	346.595	0	84.1	4	27.2	4	-1E+10	1	-1E+10	1	-1E+10	1	-1E+10	1	-1E+10	1	-1E+10	1
4902551	112	C	09/21/2023	16:04	-131.114	47.251	0	352.80	0	5.1090	0	33.8780	0	26.777	0	349.565	0	83.6	4	27.0	4	-1E+10	1	-1E+10	1	-1E+10	1	-1E+10	1	-1E+10	1	-1E+10	1
4902551	112	C	09/21/2023	16:04	-131.114	47.251	0	358.00	0	5.0780	0	33.8790	0	26.781	0	354.713	0	82.3	4	26.6	4	-1E+10	1	-1E+10	1	-1E+10	1	-1E+10	1	-1E+10	1	-1E+10	1
4902551	112	C	09/21/2023	16:04	-131.114	47.251	0	363.20	0	5.0050	0	33.8760	0	26.787	0	359.861	0	80.9	4	26.1	4	-1E+10	1	-1E+10	1	-1E+10	1	-1E+10	1	-1E+10	1	-1E+10	1
4902551	112	C	09/21/2023	16:04	-131.114	47.251	0	368.00	0	4.9810	0	33.8800	0	26.793	0	364.612	0	79.5	4	25.6	4	-1E+10	1	-1E+10	1	-1E+10	1	-1E+10	1	-1E+10	1	-1E+10	1
4902551	112	C	09/21/2023	16:04	-131.114	47.251	0	372.90	0	4.9320	0	33.8790	0	26.798	0	369.463	0	78.3	4	25.2	4	-1E+10	1	-1E+10	1	-1E+10	1	-1E+10	1	-1E+10	1	-1E+10	1
4902551	112	C	09/21/2023	16:04	-131.114	47.251	0	378.10	0	4.9350	0	33.8860	0	26.803	0	374.610	0	76.6	4	24.7	4	-1E+10	1	-1E+10	1	-1E+10	1	-1E+10	1	-1E+10	1	-1E+10	1
4902551	112	C	09/21/2023	16:04	-131.114	47.251	0	383.00	0	4.9480	0	33.8920	0	26.806	0	379.461	0	75.4	4	24.3	4	-1E+10	1	-1E+10	1	-1E+10	1	-1E+10	1	-1E+10	1	-1E+10	1
4902551	112	C	09/21/2023	16:04	-131.114	47.251	0	387.90	0	4.9060	0	33.8920	0	26.811	0	384.311	0	74.2	4	23.9	4	-1E+10	1	-1E+10	1	-1E+10	1	-1E+10	1	-1E+10	1	-1E+10	1
4902551	112	C	09/21/2023	16:04	-131.114	47.251	0	392.80	0	4.8830	0	33.8970	0	26.818	0	389.161	0	72.8	4	23.4	4	-1E+10	1	-1E+10	1	-1E+10	1	-1E+10	1	-1E+10	1	-1E+10	1
4902551	112	C	09/21/2023	16:04	-131.114	47.251	0	397.70	0	4.8040	0	33.8920	0	26.822	0	394.011	0	71.7	4	23.0	4	-1E+10	1	-1E+10	1	-1E+10	1	-1E+10	1	-1E+10	1	-1E+10	1
4902551	112	C	09/21/2023	16:04	-131.114	47.251	0	403.00	0	4.7470	0	33.8940	0	26.830	0	399.257	0	70.1	4	22.5	4	-1E+10	1	-1E+10	1	-1E+10	1	-1E+10	1	-1E+10	1	-1E+10	1
4902551	112	C	09/21/2023	16:04	-131.114	47.251	0	407.90	0	4.7380	0	33.8970	0	26.834	0	404.106	0	68.7	4	22.0	4	-1E+10	1	-1E+10	1	-1E+10	1	-1E+10	1	-1E+10	1	-1E+10	1
4902551	112	C	09/21/2023	16:04	-131.114	47.251	0	412.80	0	4.7340	0	33.9040	0	26.840	0	408.956	0	66.7	4	21.4	4	-1E+10	1	-1E+10	1	-1E+10	1	-1E+10	1	-1E+10	1	-1E+10	1
4902551	112	C	09/21/2023	16:04	-131.114	47.251	0	418.10	0	4.7230	0	33.9130	0	26.848	0	414.201	0	64.9	4	20.8	4	-1E+10	1	-1E+10	1	-1E+10	1	-1E+10	1	-1E+10	1	-1E+10	1
4902551	112	C	09/21/2023	16:04	-131.114	47.251	0	423.10	0	4.7110	0	33.9180	0	26.854	0	419.150	0	62.9	4	20.1	4	-1E+10	1	-1E+10	1	-1E+10	1	-1E+10	1	-1E+10	1	-1E+10	1
4902551	112	C	09/21/2023	16:04	-131.114	47.251	0	427.70	0	4.6950	0	33.9250	0	26.861	0	423.702	0	61.0	4	19.5	4	-1E+10	1	-1E+10	1	-1E+10	1	-1E+10	1	-1E+10	1	-1E+10	1
4902551	112	C	09/21/2023	16:04	-131.114	47.251	0	432.70	0	4.6450	0	33.9330	0	26.873	0	428.650	0	59.1	4	18.9	4	-1E+10	1	-1E+10	1	-1E+10	1	-1E+10	1	-1E+10	1	-1E+10	1
4902551	112	C	09/21/2023	16:04	-131.114	47.251	0	437.80	0	4.6260	0	33.9390	0	26.880	0	433.697	0	57.5	4	18.4	4	-1E+10	1	-1E+10	1	-1E+10	1	-1E+10	1	-1E+10	1	-1E+10	1
4902551	112	C	09/21/2023	16:04	-131.114	47.251	0	442.60	0	4.6000	0	33.9460	0	26.888	0	438.447	0	56.1	4	17.9	4	-1E+10	1	-1E+10	1	-1E+10	1	-1E+10	1	-1E+10	1	-1E+10	1
4902551	112	C	09/21/2023	16:04	-131.114	47.251	0	447.80	0	4.5670	0	33.9500	0	26.895	0	443.593	0	54.8	4	17.5	4	-1E+10	1	-1E+10	1	-1E+10	1	-1E+10	1	-1E+10	1	-1E+10	1
4902551	112	C	09/21/2023	16:04	-131.114	47.251	0	453.10	0	4.5210	0	33.9500	0	26.900	0	448.837	0	53.2	4	17.0	4	-1E+10	1	-1E+10	1	-1E+10	1	-1E+10	1	-1E+10	1	-1E+10	1
4902551	112	C	09/21/2023	16:04	-131.114	47.251	0	458.00	0	4.4930	0	33.9600	0	26.911	0	453.686	0	51.1	4	16.3	4	-1E+10	1	-1E+10	1	-1E+10	1	-1E+10	1	-1E+10	1	-1E+10	1
4902551	112	C	09/21/2023	16:04	-131.114	47.251	0	462.90	0	4.5240	0	33.9730	0	26.918	0	458.534	0	49.2	4	15.7	4	-1E+10	1	-1E+10	1	-1E+10	1	-1E+10	1	-1E+10	1	-1E+10	1
4902551	112	C	09/21/2023	16:04	-131.114	47.251	0	467.80	0	4.5240	0	33.9810	0	26.924	0	463.382	0	47.0	4	15.0	4	-1E+10	1	-1E+10	1	-1E+10	1	-1E+10	1	-1E+10	1	-1E+10	1
4902551	112	C	09/21/2023	16:04	-131.114	47.251	0	472.80	0	4.5780	0	34.0000	0	26.934	0	468.330	0	45.3	4	14.5	4	-1E+10	1	-1E+10	1	-1E+10	1	-1E+10	1	-1E+10	1	-1E+10	1
4902551	112	C	09/21/2023	16:04	-131.114	47.251	0	477.80	0	4.5570	0	34.0020	0	26.937	0	473.277	0	43.9	4	14.0	4	-1E+10	1	-1E+10	1	-1E+10	1	-1E+10	1	-1E+10	1	-1E+10	1
4902551	112	C	09/21/2023	16:04	-131.114	47.251	0	482.80	0	4.5550	0	34.0100	0	26.944	0	478.223	0	42.4	4	13.6	4	-1E+10	1	-1E+10	1	-1E+10	1	-1E+10	1	-1E+10	1	-1E+10	1
4902551	112	C	09/21/2023	16:04	-131.114	47.251	0	487.90	0	4.5270	0	34.0200	0	26.955	0	483.269	0	41.8	4	13.4	4	-1E+10	1	-1E+10	1	-1E+10	1	-1E+10	1	-1E+10	1	-1E+10	1
4902551	112	C	09/21/2023	16:04	-131.114	47.251	0	492.90	0	4.4910	0	34.0190	0	26.958	0	488.216	0	41.3	4	13.2	4	-1E+10	1	-1E+10	1	-1E+10	1	-1E+10	1	-1E+10	1	-1E+10	1
4902551	112	C	09/21/2023	16:04	-131.114	47.251	0	497.70	0	4.4360	0	34.0190	0	26.964	0	492.965	0	40.3	4	12.8	4	-1E+10	1	-1E+10	1	-1E+10	1	-1E+10	1	-1E+10	1	-1E+10	1
4902551	112	C	09/21/2023	16:04	-131.114	47.251	0	502.90	0	4.4100	0	34.0260	0	26.972	0	498.109	0	38.8	4	12.4	4	-1E+10	1	-1E+10	1	-1E+10	1	-1E+10	1	-1E+10	1	-1E+10	1
4902551	112	C	09/21/2023	16:04	-131.114	47.251	0	507.90	0	4.4000	0	34.0330	0	26.979	0	503.055	0	37.8	4	12.0	4	-1E+10	1	-1E+10	1	-1E+10	1	-1E+10	1	-1E+10	1	-1E+10	1
4902551	112	C	09/21/2023	16:04	-131.114	47.251	0	512.60	0	4.4000	0	34.0380	0	26.983	0	507.705	0	36.8	4	11.7	4	-1E+10	1	-1E+10	1	-1E+10	1	-1E+10	1	-1E+10	1	-1E+10	1
4902551	112	C	09/21/2023	16:04	-131.114	47.251	0	517.80	0	4.4090	0	34.0440	0	26.987	0	512.849	0	36.1	4	11.5	4	-1E+10	1	-1E+10	1	-1E+10	1	-1E+10	1	-1E+10	1	-1E+10	1
4902551	112	C	09/21/2023	16:04	-131.114	47.251	0	523.00	0	4.3830	0	34.0450	0	26.991	0	517.992	0	35.3	4	11.2	4	-1E+10	1	-1E+10	1	-1E+10	1	-1E+10	1	-1E+10	1	-1E+10	1
4902551	112	C	09/21/2023	16:04	-131.114	47.251	0	527.80	0	4.3640	0	34.0480	0	26.995	0	522.740	0	34.2	4	10.9	4	-1E+10	1	-1E+10	1	-1E+10	1	-1E+10	1	-1E+10	1	-1E+10	1
4902551	112	C	09/21/2023	16:04	-131.114	47.251	0	532.70	0	4.3570	0	34.0540	0	27.001	0	527.587	0	33.1	4	10.5	4	-1E+10	1	-1E+10	1	-1E+10	1	-1E+10	1	-1E+10	1	-1E+10	1
4902551	112	C	09/21/2023	16:04	-131.114	47.251	0	538.10	0	4.3560	0	34.0610	0	27.006	0	532.928	0	31.8	4	10.1	4	-1E+10	1	-1E+10	1	-1E+10	1	-1E+10	1	-1E+10	1	-1E+10	1
4902551	112	C	09/21/2023	16:04	-131.114	47.251	0	543.00	0	4.3560	0	34.0670	0	27.011	0	537.775	0	31.1	4	9.9	4	-1E+10	1	-1E+10	1	-1E+10	1	-1E+10	1	-1E+10	1	-1E+10	1
4902551	112	C	09/21/2023	16:04	-131.114	47.251	0	547.90	0	4.3190	0	34.0680	0	27.016	0	542.621	0	30.0	4	9.5	4	-1E+10	1	-1E+10	1	-1E+10	1	-1E+10	1	-1E+10	1	-1E+10	1
4902551	112	C	09/21/2023	16:04	-131.114	47.251	0	552.80	0	4.3230	0	34.0760	0	27.022	0	547.468	0	28.3	4	9.0	4	-1E+10	1	-1E+10	1	-1E+10	1	-1E+10	1	-1E+10	1	-1E+10	1
4902551	112	C	09/21/2023	16:04	-131.114	47.251	0	557.70	0	4.3460	0	34.0870	0	27.028	0	552.314	0	26.9	4	8.6	4	-1E+10	1	-1E+10	1	-1E+10	1	-1E+10	1	-1E+10	1	-1E+10	1
4902551	112	C	09/21/2023	16:04	-131.114	47.251	0	563.10	0	4.3360	0	34.0940	0	27.035	0	557.655	0	26.2	4	8.3	4	-1E+10	1	-1E+10	1	-1E+10	1	-1E+10	1	-1E+10	1	-1E+10	1
4902551	112	C	09/21/2023	16:04	-131.114	47.251	0	567.90	0	4.3070	0	34.0970	0	27.040	0	562.402	0	25.0	4	8.0	4	-1E+10	1	-1E+10	1	-1E+10	1	-1E+10	1	-1E+10	1	-1E+10	1
4902551	112	C	09/21/2023	16:04	-131.114	47.251	0	572.80	0	4.3190	0	34.1050	0	27.045	0	567.248	0	24.0	4	7.6	4	-1E+10	1	-1E+10	1	-1E+10	1	-1E+10	1	-1E+10	1	-1E+10	1
4902551	112	C	09/21/2023	16:04	-131.114	47.251	0	577.90	0	4.3240	0	34.1120	0	27.051	0	572.291	0	23.1	4	7.3	4	-1E+10	1	-1E+10	1	-1E+10	1	-1E+10	1	-1E+10	1	-1E+10	1
4902551	112	C	09/21/2023	16:04	-131.114	47.251	0	583.10	0	4.3030	0	34.1190	0	27.058	0	577.433	0	22.3	4	7.1	4	-1E+10	1	-1E+10	1	-1E+10	1	-1E+10	1	-1E+10	1	-1E+10	1
4902551	112	C	09/21/2023	16:04	-131.114	47.251	0	588.00	0	4.2670	0	34.1250	0	27.067	0	582.279	0	21.7	4	6.9	4	-1E+10	1	-1E+10	1	-1E+10	1	-1E+10	1	-1E+10	1	-1E+10	1
4902551	112	C	09/21/2023	16:04	-131.114	47.251	0	593.00	0	4.2520	0	34.1290	0	27.072	0	587.223	0	21.4	4	6.8	4	-1E+10	1	-1E+10	1	-1E+10	1	-1E+10	1	-1E+10	1	-1E+10	1
4902551	112	C	09/21/2023	16:04	-131.114	47.251	0	598.10	0	4.2260	0	34.1290	0	27.075	0	592.266	0	21.0	4	6.6	4	-1E+10	1	-1E+10	1	-1E+10	1	-1E+10	1	-1E+10	1	-1E+10	1
4902551	112	C	09/21/2023	16:04	-131.114	47.251	0	602.70	0	4.2240	0	34.1340	0	27.079	0	596.815	0	20.3	4	6.4	4	-1E+10	1	-1E+10	1	-1E+10	1	-1E+10	1	-1E+10	1	-1E+10	1
4902551	112	C	09/21/2023	16:04	-131.114	47.251	0	608.00	0	4.2190	0	34.1380	0	27.082	0	602.055	0	19.8	4	6.3	4	-1E+10	1	-1E+10	1	-1E+10	1	-1E+10	1	-1E+10	1	-1E+10	1
4902551	112	C	09/21/2023	16:04	-131.114	47.251	0	613.20	0	4.2140	0	34.1430	0	27.087	0	607.197	0	19.2	4	6.1	4	-1E+10	1	-1E+10	1	-1E+10	1	-1E+10	1	-1E+10	1	-1E+10	1
4902551	112	C	09/21/2023	16:04	-131.114	47.251	0	617.90	0	4.2030	0	34.1470	0	27.091	0	611.844	0	18.8	4	6.0	4	-1E+10	1	-1E+10	1	-1E+10	1	-1E+10	1	-1E+10	1	-1E+10	1
4902551	112	C	09/21/2023	16:04	-131.114	47.251	0	622.70	0	4.1800	0	34.1500	0	27.096	0	616.590	0	18.3	4	5.8	4	-1E+10	1	-1E+10	1	-1E+10	1	-1E+10	1	-1E+10	1	-1E+10	1
4902551	112	C	09/21/2023	16:04	-131.114	47.251	0	627.70	0	4.1650	0	34.1540	0	27.101	0	621.534	0	17.8	4	5.6	4	-1E+10	1	-1E+10	1	-1E+10	1	-1E+10	1	-1E+10	1	-1E+10	1
4902551	112	C	09/21/2023	16:04	-131.114	47.251	0	632.60	0	4.1540	0	34.1610	0	27.108	0	626.378	0	17.2	4	5.5	4	-1E+10	1	-1E+10	1	-1E+10	1	-1E+10	1	-1E+10	1	-1E+10	1
4902551	112	C	09/21/2023	16:04	-131.114	47.251	0	637.60	0	4.1320	0	34.1660	0	27.114	0	631.321	0	16.9	4	5.4	4	-1E+10	1	-1E+10	1	-1E+10	1	-1E+10	1	-1E+10	1	-1E+10	1
4902551	112	C	09/21/2023	16:04	-131.114	47.251	0	642.70	0	4.1150	0	34.1700	0	27.119	0	636.363	0	16.5	4	5.2	4	-1E+10	1	-1E+10	1	-1E+10	1	-1E+10	1	-1E+10	1	-1E+10	1
4902551	112	C	09/21/2023	16:04	-131.114	47.251	0	647.70	0	4.1090	0	34.1730	0	27.122	0	641.306	0	16.1	4	5.1	4	-1E+10	1	-1E+10	1	-1E+10	1	-1E+10	1	-1E+10	1	-1E+10	1
4902551	112	C	09/21/2023	16:04	-131.114	47.251	0	653.20	0	4.1020	0	34.1790	0	27.128	0	646.743	0	15.7	4	5.0	4	-1E+10	1	-1E+10	1	-1E+10	1	-1E+10	1	-1E+10	1	-1E+10	1
4902551	112	C	09/21/2023	16:04	-131.114	47.251	0	658.10	0	4.0920	0	34.1830	0	27.132	0	651.587	0	15.4	4	4.9	4	-1E+10	1	-1E+10	1	-1E+10	1	-1E+10	1	-1E+10	1	-1E+10	1
4902551	112	C	09/21/2023	16:04	-131.114	47.251	0	662.80	0	4.0800	0	34.1860	0	27.135	0	656.233	0	15.1	4	4.8	4	-1E+10	1	-1E+10	1	-1E+10	1	-1E+10	1	-1E+10	1	-1E+10	1
4902551	112	C	09/21/2023	16:04	-131.114	47.251	0	668.00	0	4.0740	0	34.1890	0	27.139	0	661.374	0	14.6	4	4.6	4	-1E+10	1	-1E+10	1	-1E+10	1	-1E+10	1	-1E+10	1	-1E+10	1
4902551	112	C	09/21/2023	16:04	-131.114	47.251	0	673.10	0	4.0790	0	34.1950	0	27.143	0	666.415	0	14.1	4	4.5	4	-1E+10	1	-1E+10	1	-1E+10	1	-1E+10	1	-1E+10	1	-1E+10	1
4902551	112	C	09/21/2023	16:04	-131.114	47.251	0	677.90	0	4.0770	0	34.2030	0	27.149	0	671.160	0	13.7	4	4.3	4	-1E+10	1	-1E+10	1	-1E+10	1	-1E+10	1	-1E+10	1	-1E+10	1
4902551	112	C	09/21/2023	16:04	-131.114	47.251	0	682.80	0	4.0530	0	34.2080	0	27.156	0	676.003	0	13.5	4	4.3	4	-1E+10	1	-1E+10	1	-1E+10	1	-1E+10	1	-1E+10	1	-1E+10	1
4902551	112	C	09/21/2023	16:04	-131.114	47.251	0	687.90	0	4.0360	0	34.2100	0	27.159	0	681.044	0	13.3	4	4.2	4	-1E+10	1	-1E+10	1	-1E+10	1	-1E+10	1	-1E+10	1	-1E+10	1
4902551	112	C	09/21/2023	16:04	-131.114	47.251	0	692.90	0	4.0200	0	34.2130	0	27.163	0	685.986	0	13.0	4	4.1	4	-1E+10	1	-1E+10	1	-1E+10	1	-1E+10	1	-1E+10	1	-1E+10	1
4902551	112	C	09/21/2023	16:04	-131.114	47.251	0	698.00	0	4.0110	0	34.2180	0	27.168	0	691.026	0	12.6	4	4.0	4	-1E+10	1	-1E+10	1	-1E+10	1	-1E+10	1	-1E+10	1	-1E+10	1
4902551	112	C	09/21/2023	16:04	-131.114	47.251	0	702.80	0	4.0190	0	34.2260	0	27.174	0	695.770	0	12.4	4	3.9	4	-1E+10	1	-1E+10	1	-1E+10	1	-1E+10	1	-1E+10	1	-1E+10	1
4902551	112	C	09/21/2023	16:04	-131.114	47.251	0	707.60	0	3.9980	0	34.2280	0	27.178	0	700.514	0	12.3	4	3.9	4	-1E+10	1	-1E+10	1	-1E+10	1	-1E+10	1	-1E+10	1	-1E+10	1
4902551	112	C	09/21/2023	16:04	-131.114	47.251	0	713.00	0	3.9780	0	34.2310	0	27.182	0	705.851	0	12.0	4	3.8	4	-1E+10	1	-1E+10	1	-1E+10	1	-1E+10	1	-1E+10	1	-1E+10	1
4902551	112	C	09/21/2023	16:04	-131.114	47.251	0	718.10	0	3.9810	0	34.2360	0	27.186	0	710.891	0	11.7	4	3.7	4	-1E+10	1	-1E+10	1	-1E+10	1	-1E+10	1	-1E+10	1	-1E+10	1
4902551	112	C	09/21/2023	16:04	-131.114	47.251	0	723.10	0	3.9650	0	34.2380	0	27.189	0	715.832	0	11.3	4	3.6	4	-1E+10	1	-1E+10	1	-1E+10	1	-1E+10	1	-1E+10	1	-1E+10	1
4902551	112	C	09/21/2023	16:04	-131.114	47.251	0	728.10	0	3.9700	0	34.2440	0	27.193	0	720.774	0	10.9	4	3.4	4	-1E+10	1	-1E+10	1	-1E+10	1	-1E+10	1	-1E+10	1	-1E+10	1
4902551	112	C	09/21/2023	16:04	-131.114	47.251	0	733.00	0	3.9730	0	34.2520	0	27.199	0	725.616	0	10.6	4	3.3	4	-1E+10	1	-1E+10	1	-1E+10	1	-1E+10	1	-1E+10	1	-1E+10	1
4902551	112	C	09/21/2023	16:04	-131.114	47.251	0	737.90	0	3.9710	0	34.2590	0	27.205	0	730.458	0	10.4	4	3.3	4	-1E+10	1	-1E+10	1	-1E+10	1	-1E+10	1	-1E+10	1	-1E+10	1
4902551	112	C	09/21/2023	16:04	-131.114	47.251	0	742.80	0	3.9660	0	34.2620	0	27.208	0	735.300	0	10.3	4	3.3	4	-1E+10	1	-1E+10	1	-1E+10	1	-1E+10	1	-1E+10	1	-1E+10	1
4902551	112	C	09/21/2023	16:04	-131.114	47.251	0	747.80	0	3.9630	0	34.2640	0	27.210	0	740.240	0	10.2	4	3.2	4	-1E+10	1	-1E+10	1	-1E+10	1	-1E+10	1	-1E+10	1	-1E+10	1
4902551	112	C	09/21/2023	16:04	-131.114	47.251	0	752.80	0	3.9570	0	34.2670	0	27.213	0	745.181	0	10.0	4	3.2	4	-1E+10	1	-1E+10	1	-1E+10	1	-1E+10	1	-1E+10	1	-1E+10	1
4902551	112	C	09/21/2023	16:04	-131.114	47.251	0	757.90	0	3.9520	0	34.2710	0	27.217	0	750.220	0	9.9	4	3.1	4	-1E+10	1	-1E+10	1	-1E+10	1	-1E+10	1	-1E+10	1	-1E+10	1
4902551	112	C	09/21/2023	16:04	-131.114	47.251	0	762.90	0	3.9470	0	34.2760	0	27.221	0	755.161	0	9.9	4	3.1	4	-1E+10	1	-1E+10	1	-1E+10	1	-1E+10	1	-1E+10	1	-1E+10	1
4902551	112	C	09/21/2023	16:04	-131.114	47.251	0	768.00	0	3.9360	0	34.2780	0	27.224	0	760.199	0	9.9	4	3.1	4	-1E+10	1	-1E+10	1	-1E+10	1	-1E+10	1	-1E+10	1	-1E+10	1
4902551	112	C	09/21/2023	16:04	-131.114	47.251	0	772.70	0	3.9150	0	34.2800	0	27.228	0	764.843	0	9.9	4	3.1	4	-1E+10	1	-1E+10	1	-1E+10	1	-1E+10	1	-1E+10	1	-1E+10	1
4902551	112	C	09/21/2023	16:04	-131.114	47.251	0	778.00	0	3.9050	0	34.2800	0	27.229	0	770.079	0	9.9	4	3.1	4	-1E+10	1	-1E+10	1	-1E+10	1	-1E+10	1	-1E+10	1	-1E+10	1
4902551	112	C	09/21/2023	16:04	-131.114	47.251	0	783.40	0	3.8910	0	34.2830	0	27.233	0	775.415	0	9.9	4	3.1	4	-1E+10	1	-1E+10	1	-1E+10	1	-1E+10	1	-1E+10	1	-1E+10	1
4902551	112	C	09/21/2023	16:04	-131.114	47.251	0	788.30	0	3.8860	0	34.2840	0	27.234	0	780.255	0	9.9	4	3.1	4	-1E+10	1	-1E+10	1	-1E+10	1	-1E+10	1	-1E+10	1	-1E+10	1
4902551	112	C	09/21/2023	16:04	-131.114	47.251	0	793.20	0	3.8870	0	34.2870	0	27.236	0	785.096	0	10.1	4	3.2	4	-1E+10	1	-1E+10	1	-1E+10	1	-1E+10	1	-1E+10	1	-1E+10	1
4902551	112	C	09/21/2023	16:04	-131.114	47.251	0	798.20	0	3.8790	0	34.2890	0	27.239	0	790.036	0	10.4	4	3.3	4	-1E+10	1	-1E+10	1	-1E+10	1	-1E+10	1	-1E+10	1	-1E+10	1
4902551	112	C	09/21/2023	16:04	-131.114	47.251	0	803.20	0	3.8260	0	34.2860	0	27.242	0	794.975	0	11.0	4	3.5	4	-1E+10	1	-1E+10	1	-1E+10	1	-1E+10	1	-1E+10	1	-1E+10	1
4902551	112	C	09/21/2023	16:04	-131.114	47.251	0	808.30	0	3.7920	0	34.2830	0	27.243	0	800.013	0	11.4	4	3.6	4	-1E+10	1	-1E+10	1	-1E+10	1	-1E+10	1	-1E+10	1	-1E+10	1
4902551	112	C	09/21/2023	16:04	-131.114	47.251	0	813.30	0	3.7350	0	34.2790	0	27.245	0	804.952	0	12.1	4	3.8	4	-1E+10	1	-1E+10	1	-1E+10	1	-1E+10	1	-1E+10	1	-1E+10	1
4902551	112	C	09/21/2023	16:04	-131.114	47.251	0	817.90	0	3.6310	0	34.2710	0	27.249	0	809.496	0	12.1	4	3.8	4	-1E+10	1	-1E+10	1	-1E+10	1	-1E+10	1	-1E+10	1	-1E+10	1
4902551	112	C	09/21/2023	16:04	-131.114	47.251	0	822.60	0	3.6520	0	34.2750	0	27.250	0	814.139	0	11.8	4	3.7	4	-1E+10	1	-1E+10	1	-1E+10	1	-1E+10	1	-1E+10	1	-1E+10	1
4902551	112	C	09/21/2023	16:04	-131.114	47.251	0	827.90	0	3.6430	0	34.2780	0	27.254	0	819.374	0	12.0	4	3.8	4	-1E+10	1	-1E+10	1	-1E+10	1	-1E+10	1	-1E+10	1	-1E+10	1
4902551	112	C	09/21/2023	16:04	-131.114	47.251	0	832.80	0	3.6030	0	34.2780	0	27.258	0	824.213	0	12.2	4	3.8	4	-1E+10	1	-1E+10	1	-1E+10	1	-1E+10	1	-1E+10	1	-1E+10	1
4902551	112	C	09/21/2023	16:04	-131.114	47.251	0	838.00	0	3.5930	0	34.2800	0	27.260	0	829.350	0	12.0	4	3.8	4	-1E+10	1	-1E+10	1	-1E+10	1	-1E+10	1	-1E+10	1	-1E+10	1
4902551	112	C	09/21/2023	16:04	-131.114	47.251	0	843.10	0	3.5900	0	34.2830	0	27.263	0	834.387	0	12.0	4	3.8	4	-1E+10	1	-1E+10	1	-1E+10	1	-1E+10	1	-1E+10	1	-1E+10	1
4902551	112	C	09/21/2023	16:04	-131.114	47.251	0	848.00	0	3.5700	0	34.2820	0	27.264	0	839.226	0	12.0	4	3.7	4	-1E+10	1	-1E+10	1	-1E+10	1	-1E+10	1	-1E+10	1	-1E+10	1
4902551	112	C	09/21/2023	16:04	-131.114	47.251	0	853.10	0	3.5690	0	34.2870	0	27.268	0	844.263	0	11.9	4	3.7	4	-1E+10	1	-1E+10	1	-1E+10	1	-1E+10	1	-1E+10	1	-1E+10	1
4902551	112	C	09/21/2023	16:04	-131.114	47.251	0	857.90	0	3.5410	0	34.2880	0	27.272	0	849.004	0	11.9	4	3.7	4	-1E+10	1	-1E+10	1	-1E+10	1	-1E+10	1	-1E+10	1	-1E+10	1
4902551	112	C	09/21/2023	16:04	-131.114	47.251	0	862.70	0	3.5350	0	34.2900	0	27.274	0	853.744	0	11.7	4	3.7	4	-1E+10	1	-1E+10	1	-1E+10	1	-1E+10	1	-1E+10	1	-1E+10	1
4902551	112	C	09/21/2023	16:04	-131.114	47.251	0	868.00	0	3.5280	0	34.2930	0	27.277	0	858.978	0	11.5	4	3.6	4	-1E+10	1	-1E+10	1	-1E+10	1	-1E+10	1	-1E+10	1	-1E+10	1
4902551	112	C	09/21/2023	16:04	-131.114	47.251	0	873.10	0	3.5280	0	34.2970	0	27.280	0	864.015	0	11.2	4	3.5	4	-1E+10	1	-1E+10	1	-1E+10	1	-1E+10	1	-1E+10	1	-1E+10	1
4902551	112	C	09/21/2023	16:04	-131.114	47.251	0	877.70	0	3.5340	0	34.3030	0	27.285	0	868.557	0	11.1	4	3.5	4	-1E+10	1	-1E+10	1	-1E+10	1	-1E+10	1	-1E+10	1	-1E+10	1
4902551	112	C	09/21/2023	16:04	-131.114	47.251	0	882.80	0	3.5360	0	34.3060	0	27.287	0	873.594	0	11.0	4	3.4	4	-1E+10	1	-1E+10	1	-1E+10	1	-1E+10	1	-1E+10	1	-1E+10	1
4902551	112	C	09/21/2023	16:04	-131.114	47.251	0	887.80	0	3.5290	0	34.3100	0	27.291	0	878.531	0	11.1	4	3.5	4	-1E+10	1	-1E+10	1	-1E+10	1	-1E+10	1	-1E+10	1	-1E+10	1
4902551	112	C	09/21/2023	16:04	-131.114	47.251	0	892.90	0	3.4880	0	34.3060	0	27.291	0	883.567	0	10.9	4	3.4	4	-1E+10	1	-1E+10	1	-1E+10	1	-1E+10	1	-1E+10	1	-1E+10	1
4902551	112	C	09/21/2023	16:04	-131.114	47.251	0	898.00	0	3.5090	0	34.3130	0	27.295	0	888.603	0	10.6	4	3.3	4	-1E+10	1	-1E+10	1	-1E+10	1	-1E+10	1	-1E+10	1	-1E+10	1
4902551	112	C	09/21/2023	16:04	-131.114	47.251	0	902.70	0	3.5290	0	34.3220	0	27.300	0	893.244	0	10.6	4	3.3	4	-1E+10	1	-1E+10	1	-1E+10	1	-1E+10	1	-1E+10	1	-1E+10	1
4902551	112	C	09/21/2023	16:04	-131.114	47.251	0	907.80	0	3.5190	0	34.3240	0	27.303	0	898.279	0	10.7	4	3.3	4	-1E+10	1	-1E+10	1	-1E+10	1	-1E+10	1	-1E+10	1	-1E+10	1
4902551	112	C	09/21/2023	16:04	-131.114	47.251	0	913.10	0	3.4840	0	34.3220	0	27.305	0	903.512	0	10.9	4	3.4	4	-1E+10	1	-1E+10	1	-1E+10	1	-1E+10	1	-1E+10	1	-1E+10	1
4902551	112	C	09/21/2023	16:04	-131.114	47.251	0	917.90	0	3.4540	0	34.3190	0	27.305	0	908.251	0	10.9	4	3.4	4	-1E+10	1	-1E+10	1	-1E+10	1	-1E+10	1	-1E+10	1	-1E+10	1
4902551	112	C	09/21/2023	16:04	-131.114	47.251	0	922.60	0	3.4570	0	34.3230	0	27.308	0	912.892	0	10.9	4	3.4	4	-1E+10	1	-1E+10	1	-1E+10	1	-1E+10	1	-1E+10	1	-1E+10	1
4902551	112	C	09/21/2023	16:04	-131.114	47.251	0	927.90	0	3.4370	0	34.3230	0	27.310	0	918.124	0	10.9	4	3.4	4	-1E+10	1	-1E+10	1	-1E+10	1	-1E+10	1	-1E+10	1	-1E+10	1
4902551	112	C	09/21/2023	16:04	-131.114	47.251	0	933.20	0	3.4310	0	34.3230	0	27.311	0	923.357	0	11.0	4	3.4	4	-1E+10	1	-1E+10	1	-1E+10	1	-1E+10	1	-1E+10	1	-1E+10	1
4902551	112	C	09/21/2023	16:04	-131.114	47.251	0	938.00	0	3.4040	0	34.3250	0	27.315	0	928.096	0	11.0	4	3.4	4	-1E+10	1	-1E+10	1	-1E+10	1	-1E+10	1	-1E+10	1	-1E+10	1
4902551	112	C	09/21/2023	16:04	-131.114	47.251	0	942.80	0	3.3910	0	34.3280	0	27.319	0	932.834	0	11.0	4	3.4	4	-1E+10	1	-1E+10	1	-1E+10	1	-1E+10	1	-1E+10	1	-1E+10	1
4902551	112	C	09/21/2023	16:04	-131.114	47.251	0	947.70	0	3.3840	0	34.3290	0	27.320	0	937.671	0	10.9	4	3.4	4	-1E+10	1	-1E+10	1	-1E+10	1	-1E+10	1	-1E+10	1	-1E+10	1
4902551	112	C	09/21/2023	16:04	-131.114	47.251	0	952.50	0	3.3780	0	34.3300	0	27.321	0	942.410	0	10.9	4	3.4	4	-1E+10	1	-1E+10	1	-1E+10	1	-1E+10	1	-1E+10	1	-1E+10	1
4902551	112	C	09/21/2023	16:04	-131.114	47.251	0	957.90	0	3.3640	0	34.3330	0	27.325	0	947.740	0	10.8	4	3.4	4	-1E+10	1	-1E+10	1	-1E+10	1	-1E+10	1	-1E+10	1	-1E+10	1
4902551	112	C	09/21/2023	16:04	-131.114	47.251	0	963.10	0	3.3620	0	34.3370	0	27.329	0	952.873	0	10.7	4	3.3	4	-1E+10	1	-1E+10	1	-1E+10	1	-1E+10	1	-1E+10	1	-1E+10	1
4902551	112	C	09/21/2023	16:04	-131.114	47.251	0	967.90	0	3.3720	0	34.3430	0	27.332	0	957.611	0	10.6	4	3.3	4	-1E+10	1	-1E+10	1	-1E+10	1	-1E+10	1	-1E+10	1	-1E+10	1
4902551	112	C	09/21/2023	16:04	-131.114	47.251	0	972.70	0	3.3610	0	34.3470	0	27.337	0	962.349	0	10.6	4	3.3	4	-1E+10	1	-1E+10	1	-1E+10	1	-1E+10	1	-1E+10	1	-1E+10	1
4902551	112	C	09/21/2023	16:04	-131.114	47.251	0	977.90	0	3.3470	0	34.3510	0	27.341	0	967.482	0	10.7	4	3.3	4	-1E+10	1	-1E+10	1	-1E+10	1	-1E+10	1	-1E+10	1	-1E+10	1
4902551	112	C	09/21/2023	16:04	-131.114	47.251	0	983.20	0	3.3350	0	34.3520	0	27.343	0	972.713	0	10.7	4	3.3	4	-1E+10	1	-1E+10	1	-1E+10	1	-1E+10	1	-1E+10	1	-1E+10	1
4902551	112	C	09/21/2023	16:04	-131.114	47.251	0	988.00	0	3.3580	0	34.3560	0	27.344	0	977.451	0	10.7	4	3.3	4	-1E+10	1	-1E+10	1	-1E+10	1	-1E+10	1	-1E+10	1	-1E+10	1
4902551	112	C	09/21/2023	16:04	-131.114	47.251	0	992.80	0	3.3270	0	34.3590	0	27.350	0	982.188	0	10.9	4	3.4	4	-1E+10	1	-1E+10	1	-1E+10	1	-1E+10	1	-1E+10	1	-1E+10	1
4902551	112	C	09/21/2023	16:04	-131.114	47.251	0	997.60	0	3.2730	0	34.3530	0	27.350	0	986.926	0	11.0	4	3.4	4	-1E+10	1	-1E+10	1	-1E+10	1	-1E+10	1	-1E+10	1	-1E+10	1
4902551	112	C	09/21/2023	16:04	-131.114	47.251	0	1005.40	0	3.2450	0	34.3560	0	27.355	0	994.624	0	11.0	4	3.4	4	-1E+10	1	-1E+10	1	-1E+10	1	-1E+10	1	-1E+10	1	-1E+10	1
4902551	112	C	09/21/2023	16:04	-131.114	47.251	0	1015.80	0	3.2230	0	34.3600	0	27.360	0	1004.887	0	11.0	4	3.4	4	-1E+10	1	-1E+10	1	-1E+10	1	-1E+10	1	-1E+10	1	-1E+10	1
4902551	112	C	09/21/2023	16:04	-131.114	47.251	0	1025.80	0	3.2060	0	34.3650	0	27.366	0	1014.756	0	11.1	4	3.4	4	-1E+10	1	-1E+10	1	-1E+10	1	-1E+10	1	-1E+10	1	-1E+10	1
4902551	112	C	09/21/2023	16:04	-131.114	47.251	0	1035.30	0	3.1790	0	34.3660	0	27.369	0	1024.130	0	11.1	4	3.5	4	-1E+10	1	-1E+10	1	-1E+10	1	-1E+10	1	-1E+10	1	-1E+10	1
4902551	112	C	09/21/2023	16:04	-131.114	47.251	0	1045.10	0	3.1720	0	34.3680	0	27.372	0	1033.801	0	11.2	4	3.5	4	-1E+10	1	-1E+10	1	-1E+10	1	-1E+10	1	-1E+10	1	-1E+10	1
4902551	112	C	09/21/2023	16:04	-131.114	47.251	0	1055.50	0	3.1610	0	34.3720	0	27.376	0	1044.062	0	11.2	4	3.5	4	-1E+10	1	-1E+10	1	-1E+10	1	-1E+10	1	-1E+10	1	-1E+10	1
4902551	112	C	09/21/2023	16:04	-131.114	47.251	0	1065.30	0	3.1520	0	34.3790	0	27.382	0	1053.731	0	11.3	4	3.5	4	-1E+10	1	-1E+10	1	-1E+10	1	-1E+10	1	-1E+10	1	-1E+10	1
4902551	112	C	09/21/2023	16:04	-131.114	47.251	0	1075.50	0	3.1330	0	34.3840	0	27.388	0	1063.795	0	11.3	4	3.5	4	-1E+10	1	-1E+10	1	-1E+10	1	-1E+10	1	-1E+10	1	-1E+10	1
4902551	112	C	09/21/2023	16:04	-131.114	47.251	0	1085.50	0	3.1070	0	34.3880	0	27.394	0	1073.660	0	11.5	4	3.5	4	-1E+10	1	-1E+10	1	-1E+10	1	-1E+10	1	-1E+10	1	-1E+10	1
4902551	112	C	09/21/2023	16:04	-131.114	47.251	0	1095.60	0	3.0790	0	34.3900	0	27.398	0	1083.624	0	11.6	4	3.6	4	-1E+10	1	-1E+10	1	-1E+10	1	-1E+10	1	-1E+10	1	-1E+10	1
4902551	112	C	09/21/2023	16:04	-131.114	47.251	0	1105.50	0	3.0690	0	34.3940	0	27.402	0	1093.390	0	11.7	4	3.6	4	-1E+10	1	-1E+10	1	-1E+10	1	-1E+10	1	-1E+10	1	-1E+10	1
4902551	112	C	09/21/2023	16:04	-131.114	47.251	0	1115.60	0	3.0470	0	34.3980	0	27.407	0	1103.353	0	11.9	4	3.7	4	-1E+10	1	-1E+10	1	-1E+10	1	-1E+10	1	-1E+10	1	-1E+10	1
4902551	112	C	09/21/2023	16:04	-131.114	47.251	0	1125.70	0	3.0340	0	34.4030	0	27.413	0	1113.315	0	12.0	4	3.7	4	-1E+10	1	-1E+10	1	-1E+10	1	-1E+10	1	-1E+10	1	-1E+10	1
4902551	112	C	09/21/2023	16:04	-131.114	47.251	0	1135.80	0	3.0320	0	34.4060	0	27.415	0	1123.277	0	12.1	4	3.7	4	-1E+10	1	-1E+10	1	-1E+10	1	-1E+10	1	-1E+10	1	-1E+10	1
4902551	112	C	09/21/2023	16:04	-131.114	47.251	0	1145.50	0	3.0120	0	34.4100	0	27.420	0	1132.844	0	12.3	4	3.8	4	-1E+10	1	-1E+10	1	-1E+10	1	-1E+10	1	-1E+10	1	-1E+10	1
4902551	112	C	09/21/2023	16:04	-131.114	47.251	0	1155.50	0	2.9840	0	34.4130	0	27.425	0	1142.707	0	12.4	4	3.8	4	-1E+10	1	-1E+10	1	-1E+10	1	-1E+10	1	-1E+10	1	-1E+10	1
4902551	112	C	09/21/2023	16:04	-131.114	47.251	0	1165.60	0	2.9720	0	34.4140	0	27.427	0	1152.667	0	12.5	4	3.9	4	-1E+10	1	-1E+10	1	-1E+10	1	-1E+10	1	-1E+10	1	-1E+10	1
4902551	112	C	09/21/2023	16:04	-131.114	47.251	0	1175.50	0	2.9620	0	34.4150	0	27.429	0	1162.430	0	12.6	4	3.9	4	-1E+10	1	-1E+10	1	-1E+10	1	-1E+10	1	-1E+10	1	-1E+10	1
4902551	112	C	09/21/2023	16:04	-131.114	47.251	0	1185.50	0	2.9460	0	34.4170	0	27.432	0	1172.291	0	12.7	4	3.9	4	-1E+10	1	-1E+10	1	-1E+10	1	-1E+10	1	-1E+10	1	-1E+10	1
4902551	112	C	09/21/2023	16:04	-131.114	47.251	0	1195.70	0	2.9280	0	34.4210	0	27.437	0	1182.348	0	12.9	4	4.0	4	-1E+10	1	-1E+10	1	-1E+10	1	-1E+10	1	-1E+10	1	-1E+10	1
4902551	112	C	09/21/2023	16:04	-131.114	47.251	0	1205.50	0	2.9150	0	34.4240	0	27.440	0	1192.011	0	13.1	4	4.0	4	-1E+10	1	-1E+10	1	-1E+10	1	-1E+10	1	-1E+10	1	-1E+10	1
4902551	112	C	09/21/2023	16:04	-131.114	47.251	0	1215.40	0	2.8810	0	34.4260	0	27.445	0	1201.772	0	13.4	4	4.1	4	-1E+10	1	-1E+10	1	-1E+10	1	-1E+10	1	-1E+10	1	-1E+10	1
4902551	112	C	09/21/2023	16:04	-131.114	47.251	0	1225.40	0	2.8650	0	34.4300	0	27.450	0	1211.631	0	13.6	4	4.2	4	-1E+10	1	-1E+10	1	-1E+10	1	-1E+10	1	-1E+10	1	-1E+10	1
4902551	112	C	09/21/2023	16:04	-131.114	47.251	0	1235.30	0	2.8430	0	34.4320	0	27.453	0	1221.391	0	13.8	4	4.2	4	-1E+10	1	-1E+10	1	-1E+10	1	-1E+10	1	-1E+10	1	-1E+10	1
4902551	112	C	09/21/2023	16:04	-131.114	47.251	0	1245.30	0	2.8100	0	34.4350	0	27.459	0	1231.250	0	14.0	4	4.3	4	-1E+10	1	-1E+10	1	-1E+10	1	-1E+10	1	-1E+10	1	-1E+10	1
4902551	112	C	09/21/2023	16:04	-131.114	47.251	0	1255.30	0	2.7980	0	34.4380	0	27.462	0	1241.107	0	14.2	4	4.4	4	-1E+10	1	-1E+10	1	-1E+10	1	-1E+10	1	-1E+10	1	-1E+10	1
4902551	112	C	09/21/2023	16:04	-131.114	47.251	0	1265.40	0	2.7810	0	34.4410	0	27.466	0	1251.063	0	14.5	4	4.5	4	-1E+10	1	-1E+10	1	-1E+10	1	-1E+10	1	-1E+10	1	-1E+10	1
4902551	112	C	09/21/2023	16:04	-131.114	47.251	0	1275.40	0	2.7710	0	34.4450	0	27.470	0	1260.920	0	14.9	4	4.6	4	-1E+10	1	-1E+10	1	-1E+10	1	-1E+10	1	-1E+10	1	-1E+10	1
4902551	112	C	09/21/2023	16:04	-131.114	47.251	0	1285.20	0	2.7730	0	34.4490	0	27.473	0	1270.579	0	15.4	4	4.7	4	-1E+10	1	-1E+10	1	-1E+10	1	-1E+10	1	-1E+10	1	-1E+10	1
4902551	112	C	09/21/2023	16:04	-131.114	47.251	0	1295.10	0	2.7730	0	34.4530	0	27.477	0	1280.336	0	16.0	4	4.9	4	-1E+10	1	-1E+10	1	-1E+10	1	-1E+10	1	-1E+10	1	-1E+10	1
4902551	112	C	09/21/2023	16:04	-131.114	47.251	0	1305.20	0	2.7560	0	34.4590	0	27.483	0	1290.290	0	16.4	4	5.0	4	-1E+10	1	-1E+10	1	-1E+10	1	-1E+10	1	-1E+10	1	-1E+10	1
4902551	112	C	09/21/2023	16:04	-131.114	47.251	0	1315.50	0	2.7420	0	34.4620	0	27.487	0	1300.441	0	16.9	4	5.2	4	-1E+10	1	-1E+10	1	-1E+10	1	-1E+10	1	-1E+10	1	-1E+10	1
4902551	112	C	09/21/2023	16:04	-131.114	47.251	0	1325.70	0	2.7270	0	34.4650	0	27.490	0	1310.492	0	17.4	4	5.3	4	-1E+10	1	-1E+10	1	-1E+10	1	-1E+10	1	-1E+10	1	-1E+10	1
4902551	112	C	09/21/2023	16:04	-131.114	47.251	0	1335.80	0	2.7030	0	34.4690	0	27.496	0	1320.445	0	17.9	4	5.5	4	-1E+10	1	-1E+10	1	-1E+10	1	-1E+10	1	-1E+10	1	-1E+10	1
4902551	112	C	09/21/2023	16:04	-131.114	47.251	0	1345.40	0	2.6940	0	34.4710	0	27.498	0	1329.904	0	18.6	4	5.7	4	-1E+10	1	-1E+10	1	-1E+10	1	-1E+10	1	-1E+10	1	-1E+10	1
4902551	112	C	09/21/2023	16:04	-131.114	47.251	0	1355.50	0	2.6940	0	34.4780	0	27.504	0	1339.856	0	19.8	4	6.1	4	-1E+10	1	-1E+10	1	-1E+10	1	-1E+10	1	-1E+10	1	-1E+10	1
4902551	112	C	09/21/2023	16:04	-131.114	47.251	0	1365.50	0	2.6870	0	34.4830	0	27.509	0	1349.708	0	20.3	4	6.2	4	-1E+10	1	-1E+10	1	-1E+10	1	-1E+10	1	-1E+10	1	-1E+10	1
4902551	112	C	09/21/2023	16:04	-131.114	47.251	0	1375.10	0	2.6680	0	34.4860	0	27.513	0	1359.166	0	20.8	4	6.4	4	-1E+10	1	-1E+10	1	-1E+10	1	-1E+10	1	-1E+10	1	-1E+10	1
4902551	112	C	09/21/2023	16:04	-131.114	47.251	0	1385.00	0	2.6480	0	34.4870	0	27.515	0	1368.920	0	21.3	4	6.5	4	-1E+10	1	-1E+10	1	-1E+10	1	-1E+10	1	-1E+10	1	-1E+10	1
4902551	112	C	09/21/2023	16:04	-131.114	47.251	0	1395.20	0	2.6460	0	34.4920	0	27.519	0	1378.968	0	21.9	4	6.7	4	-1E+10	1	-1E+10	1	-1E+10	1	-1E+10	1	-1E+10	1	-1E+10	1
4902551	112	C	09/21/2023	16:04	-131.114	47.251	0	1405.50	0	2.6380	0	34.4930	0	27.521	0	1389.114	0	22.3	4	6.8	4	-1E+10	1	-1E+10	1	-1E+10	1	-1E+10	1	-1E+10	1	-1E+10	1
4902551	112	C	09/21/2023	16:04	-131.114	47.251	0	1415.80	0	2.6230	0	34.4950	0	27.524	0	1399.260	0	22.8	4	7.0	4	-1E+10	1	-1E+10	1	-1E+10	1	-1E+10	1	-1E+10	1	-1E+10	1
4902551	112	C	09/21/2023	16:04	-131.114	47.251	0	1425.40	0	2.6030	0	34.4970	0	27.527	0	1408.716	0	23.2	4	7.1	4	-1E+10	1	-1E+10	1	-1E+10	1	-1E+10	1	-1E+10	1	-1E+10	1
4902551	112	C	09/21/2023	16:04	-131.114	47.251	0	1435.70	0	2.5940	0	34.4990	0	27.530	0	1418.861	0	23.6	4	7.2	4	-1E+10	1	-1E+10	1	-1E+10	1	-1E+10	1	-1E+10	1	-1E+10	1
4902551	112	C	09/21/2023	16:04	-131.114	47.251	0	1445.60	0	2.5780	0	34.5000	0	27.532	0	1428.611	0	24.0	4	7.3	4	-1E+10	1	-1E+10	1	-1E+10	1	-1E+10	1	-1E+10	1	-1E+10	1
4902551	112	C	09/21/2023	16:04	-131.114	47.251	0	1455.70	0	2.5640	0	34.5020	0	27.535	0	1438.558	0	24.5	4	7.5	4	-1E+10	1	-1E+10	1	-1E+10	1	-1E+10	1	-1E+10	1	-1E+10	1
4902551	112	C	09/21/2023	16:04	-131.114	47.251	0	1465.60	0	2.5530	0	34.5040	0	27.537	0	1448.307	0	24.9	4	7.6	4	-1E+10	1	-1E+10	1	-1E+10	1	-1E+10	1	-1E+10	1	-1E+10	1
4902551	112	C	09/21/2023	16:04	-131.114	47.251	0	1475.40	0	2.5390	0	34.5050	0	27.539	0	1457.958	0	25.3	4	7.7	4	-1E+10	1	-1E+10	1	-1E+10	1	-1E+10	1	-1E+10	1	-1E+10	1
4902551	112	C	09/21/2023	16:04	-131.114	47.251	0	1485.50	0	2.5120	0	34.5070	0	27.543	0	1467.904	0	25.9	4	7.9	4	-1E+10	1	-1E+10	1	-1E+10	1	-1E+10	1	-1E+10	1	-1E+10	1
4902551	112	C	09/21/2023	16:04	-131.114	47.251	0	1495.40	0	2.5030	0	34.5090	0	27.546	0	1477.652	0	26.4	4	8.1	4	-1E+10	1	-1E+10	1	-1E+10	1	-1E+10	1	-1E+10	1	-1E+10	1
4902551	112	C	09/21/2023	16:04	-131.114	47.251	0	1505.50	0	2.4900	0	34.5110	0	27.548	0	1487.596	0	26.9	4	8.2	4	-1E+10	1	-1E+10	1	-1E+10	1	-1E+10	1	-1E+10	1	-1E+10	1
4902551	112	C	09/21/2023	16:04	-131.114	47.251	0	1515.70	0	2.4730	0	34.5130	0	27.551	0	1497.639	0	27.5	4	8.4	4	-1E+10	1	-1E+10	1	-1E+10	1	-1E+10	1	-1E+10	1	-1E+10	1
4902551	112	C	09/21/2023	16:04	-131.114	47.251	0	1525.70	0	2.4550	0	34.5150	0	27.555	0	1507.484	0	27.9	4	8.5	4	-1E+10	1	-1E+10	1	-1E+10	1	-1E+10	1	-1E+10	1	-1E+10	1
4902551	112	C	09/21/2023	16:04	-131.114	47.251	0	1535.80	0	2.4450	0	34.5160	0	27.556	0	1517.427	0	28.3	4	8.6	4	-1E+10	1	-1E+10	1	-1E+10	1	-1E+10	1	-1E+10	1	-1E+10	1
4902551	112	C	09/21/2023	16:04	-131.114	47.251	0	1545.40	0	2.4280	0	34.5180	0	27.559	0	1526.878	0	28.8	4	8.8	4	-1E+10	1	-1E+10	1	-1E+10	1	-1E+10	1	-1E+10	1	-1E+10	1
4902551	112	C	09/21/2023	16:04	-131.114	47.251	0	1555.30	0	2.4190	0	34.5190	0	27.561	0	1536.623	0	29.1	4	8.9	4	-1E+10	1	-1E+10	1	-1E+10	1	-1E+10	1	-1E+10	1	-1E+10	1
4902551	112	C	09/21/2023	16:04	-131.114	47.251	0	1565.30	0	2.4030	0	34.5210	0	27.564	0	1546.467	0	29.4	4	8.9	4	-1E+10	1	-1E+10	1	-1E+10	1	-1E+10	1	-1E+10	1	-1E+10	1
4902551	112	C	09/21/2023	16:04	-131.114	47.251	0	1575.30	0	2.3960	0	34.5210	0	27.565	0	1556.310	0	29.7	4	9.1	4	-1E+10	1	-1E+10	1	-1E+10	1	-1E+10	1	-1E+10	1	-1E+10	1
4902551	112	C	09/21/2023	16:04	-131.114	47.251	0	1585.40	0	2.3840	0	34.5220	0	27.566	0	1566.250	0	30.3	4	9.2	4	-1E+10	1	-1E+10	1	-1E+10	1	-1E+10	1	-1E+10	1	-1E+10	1
4902551	112	C	09/21/2023	16:04	-131.114	47.251	0	1595.60	0	2.3760	0	34.5240	0	27.569	0	1576.289	0	30.6	4	9.3	4	-1E+10	1	-1E+10	1	-1E+10	1	-1E+10	1	-1E+10	1	-1E+10	1
4902551	112	C	09/21/2023	16:04	-131.114	47.251	0	1605.70	0	2.3740	0	34.5250	0	27.570	0	1586.229	0	31.2	4	9.5	4	-1E+10	1	-1E+10	1	-1E+10	1	-1E+10	1	-1E+10	1	-1E+10	1
4902551	112	C	09/21/2023	16:04	-131.114	47.251	0	1615.50	0	2.3600	0	34.5270	0	27.573	0	1595.873	0	31.8	4	9.7	4	-1E+10	1	-1E+10	1	-1E+10	1	-1E+10	1	-1E+10	1	-1E+10	1
4902551	112	C	09/21/2023	16:04	-131.114	47.251	0	1625.20	0	2.3440	0	34.5290	0	27.576	0	1605.419	0	32.5	4	9.9	4	-1E+10	1	-1E+10	1	-1E+10	1	-1E+10	1	-1E+10	1	-1E+10	1
4902551	112	C	09/21/2023	16:04	-131.114	47.251	0	1635.50	0	2.3300	0	34.5310	0	27.578	0	1615.554	0	33.1	4	10.1	4	-1E+10	1	-1E+10	1	-1E+10	1	-1E+10	1	-1E+10	1	-1E+10	1
4902551	112	C	09/21/2023	16:04	-131.114	47.251	0	1645.70	0	2.3160	0	34.5330	0	27.581	0	1625.591	0	33.5	4	10.2	4	-1E+10	1	-1E+10	1	-1E+10	1	-1E+10	1	-1E+10	1	-1E+10	1
4902551	112	C	09/21/2023	16:04	-131.114	47.251	0	1655.40	0	2.3030	0	34.5330	0	27.582	0	1635.135	0	33.9	4	10.3	4	-1E+10	1	-1E+10	1	-1E+10	1	-1E+10	1	-1E+10	1	-1E+10	1
4902551	112	C	09/21/2023	16:04	-131.114	47.251	0	1665.10	0	2.2890	0	34.5360	0	27.586	0	1644.678	0	34.4	4	10.5	4	-1E+10	1	-1E+10	1	-1E+10	1	-1E+10	1	-1E+10	1	-1E+10	1
4902551	112	C	09/21/2023	16:04	-131.114	47.251	0	1675.20	0	2.2610	0	34.5360	0	27.588	0	1654.615	0	34.4	4	10.5	4	-1E+10	1	-1E+10	1	-1E+10	1	-1E+10	1	-1E+10	1	-1E+10	1
4902551	112	C	09/21/2023	16:04	-131.114	47.251	0	1685.80	0	2.2340	0	34.5360	0	27.590	0	1665.043	0	35.1	4	10.6	4	-1E+10	1	-1E+10	1	-1E+10	1	-1E+10	1	-1E+10	1	-1E+10	1
4902551	112	C	09/21/2023	16:04	-131.114	47.251	0	1695.50	0	2.2210	0	34.5380	0	27.593	0	1674.586	0	35.9	4	10.9	4	-1E+10	1	-1E+10	1	-1E+10	1	-1E+10	1	-1E+10	1	-1E+10	1
4902551	112	C	09/21/2023	16:04	-131.114	47.251	0	1705.30	0	2.2070	0	34.5400	0	27.596	0	1684.226	0	36.9	4	11.2	4	-1E+10	1	-1E+10	1	-1E+10	1	-1E+10	1	-1E+10	1	-1E+10	1
4902551	112	C	09/21/2023	16:04	-131.114	47.251	0	1715.30	0	2.1880	0	34.5430	0	27.600	0	1694.062	0	37.9	4	11.5	4	-1E+10	1	-1E+10	1	-1E+10	1	-1E+10	1	-1E+10	1	-1E+10	1
4902551	112	C	09/21/2023	16:04	-131.114	47.251	0	1725.30	0	2.1690	0	34.5460	0	27.604	0	1703.898	0	38.7	4	11.7	4	-1E+10	1	-1E+10	1	-1E+10	1	-1E+10	1	-1E+10	1	-1E+10	1
4902551	112	C	09/21/2023	16:04	-131.114	47.251	0	1735.30	0	2.1590	0	34.5480	0	27.606	0	1713.734	0	39.2	4	11.9	4	-1E+10	1	-1E+10	1	-1E+10	1	-1E+10	1	-1E+10	1	-1E+10	1
4902551	112	C	09/21/2023	16:04	-131.114	47.251	0	1745.40	0	2.1510	0	34.5490	0	27.608	0	1723.667	0	39.8	4	12.1	4	-1E+10	1	-1E+10	1	-1E+10	1	-1E+10	1	-1E+10	1	-1E+10	1
4902551	112	C	09/21/2023	16:04	-131.114	47.251	0	1755.50	0	2.1380	0	34.5510	0	27.610	0	1733.600	0	40.6	4	12.3	4	-1E+10	1	-1E+10	1	-1E+10	1	-1E+10	1	-1E+10	1	-1E+10	1
4902551	112	C	09/21/2023	16:04	-131.114	47.251	0	1765.50	0	2.1290	0	34.5530	0	27.613	0	1743.435	0	41.1	4	12.4	4	-1E+10	1	-1E+10	1	-1E+10	1	-1E+10	1	-1E+10	1	-1E+10	1
4902551	112	C	09/21/2023	16:04	-131.114	47.251	0	1775.60	0	2.1210	0	34.5540	0	27.614	0	1753.367	0	41.7	4	12.6	4	-1E+10	1	-1E+10	1	-1E+10	1	-1E+10	1	-1E+10	1	-1E+10	1
4902551	112	C	09/21/2023	16:04	-131.114	47.251	0	1785.70	0	2.1090	0	34.5560	0	27.617	0	1763.298	0	42.4	4	12.8	4	-1E+10	1	-1E+10	1	-1E+10	1	-1E+10	1	-1E+10	1	-1E+10	1
4902551	112	C	09/21/2023	16:04	-131.114	47.251	0	1795.50	0	2.0990	0	34.5570	0	27.619	0	1772.935	0	43.1	4	13.0	4	-1E+10	1	-1E+10	1	-1E+10	1	-1E+10	1	-1E+10	1	-1E+10	1
4902551	112	C	09/21/2023	16:04	-131.114	47.251	0	1805.60	0	2.0900	0	34.5590	0	27.621	0	1782.865	0	43.8	4	13.2	4	-1E+10	1	-1E+10	1	-1E+10	1	-1E+10	1	-1E+10	1	-1E+10	1
4902551	112	C	09/21/2023	16:04	-131.114	47.251	0	1815.60	0	2.0840	0	34.5610	0	27.623	0	1792.697	0	44.3	4	13.4	4	-1E+10	1	-1E+10	1	-1E+10	1	-1E+10	1	-1E+10	1	-1E+10	1
4902551	112	C	09/21/2023	16:04	-131.114	47.251	0	1825.40	0	2.0760	0	34.5620	0	27.624	0	1802.332	0	45.1	4	13.6	4	-1E+10	1	-1E+10	1	-1E+10	1	-1E+10	1	-1E+10	1	-1E+10	1
4902551	112	C	09/21/2023	16:04	-131.114	47.251	0	1835.40	0	2.0640	0	34.5640	0	27.627	0	1812.163	0	45.9	4	13.8	4	-1E+10	1	-1E+10	1	-1E+10	1	-1E+10	1	-1E+10	1	-1E+10	1
4902551	112	C	09/21/2023	16:04	-131.114	47.251	0	1845.20	0	2.0510	0	34.5650	0	27.629	0	1821.797	0	46.6	4	14.1	4	-1E+10	1	-1E+10	1	-1E+10	1	-1E+10	1	-1E+10	1	-1E+10	1
4902551	112	C	09/21/2023	16:04	-131.114	47.251	0	1855.20	0	2.0390	0	34.5680	0	27.632	0	1831.627	0	47.4	4	14.3	4	-1E+10	1	-1E+10	1	-1E+10	1	-1E+10	1	-1E+10	1	-1E+10	1
4902551	112	C	09/21/2023	16:04	-131.114	47.251	0	1865.20	0	2.0310	0	34.5690	0	27.634	0	1841.457	0	47.9	4	14.4	4	-1E+10	1	-1E+10	1	-1E+10	1	-1E+10	1	-1E+10	1	-1E+10	1
4902551	112	C	09/21/2023	16:04	-131.114	47.251	0	1875.40	0	2.0260	0	34.5700	0	27.635	0	1851.483	0	48.5	4	14.6	4	-1E+10	1	-1E+10	1	-1E+10	1	-1E+10	1	-1E+10	1	-1E+10	1
4902551	112	C	09/21/2023	16:04	-131.114	47.251	0	1885.30	0	2.0170	0	34.5720	0	27.637	0	1861.213	0	49.1	4	14.8	4	-1E+10	1	-1E+10	1	-1E+10	1	-1E+10	1	-1E+10	1	-1E+10	1
4902551	112	C	09/21/2023	16:04	-131.114	47.251	0	1895.30	0	2.0100	0	34.5730	0	27.639	0	1871.041	0	49.8	4	15.0	4	-1E+10	1	-1E+10	1	-1E+10	1	-1E+10	1	-1E+10	1	-1E+10	1
4902551	112	C	09/21/2023	16:04	-131.114	47.251	0	1905.30	0	2.0000	0	34.5750	0	27.641	0	1880.869	0	50.5	4	15.2	4	-1E+10	1	-1E+10	1	-1E+10	1	-1E+10	1	-1E+10	1	-1E+10	1
4902551	112	C	09/21/2023	16:04	-131.114	47.251	0	1915.60	0	1.9910	0	34.5760	0	27.643	0	1890.991	0	51.0	4	15.4	4	-1E+10	1	-1E+10	1	-1E+10	1	-1E+10	1	-1E+10	1	-1E+10	1
4902551	112	C	09/21/2023	16:04	-131.114	47.251	0	1925.60	0	1.9860	0	34.5770	0	27.644	0	1900.818	0	51.4	4	15.5	4	-1E+10	1	-1E+10	1	-1E+10	1	-1E+10	1	-1E+10	1	-1E+10	1
4902551	112	C	09/21/2023	16:04	-131.114	47.251	0	1935.50	0	1.9810	0	34.5780	0	27.645	0	1910.546	0	52.0	4	15.7	4	-1E+10	1	-1E+10	1	-1E+10	1	-1E+10	1	-1E+10	1	-1E+10	1
4902551	112	C	09/21/2023	16:04	-131.114	47.251	0	1945.30	0	1.9740	0	34.5790	0	27.647	0	1920.176	0	52.7	4	15.9	4	-1E+10	1	-1E+10	1	-1E+10	1	-1E+10	1	-1E+10	1	-1E+10	1
4902551	112	C	09/21/2023	16:04	-131.114	47.251	0	1955.20	0	1.9630	0	34.5810	0	27.649	0	1929.903	0	53.3	4	16.1	4	-1E+10	1	-1E+10	1	-1E+10	1	-1E+10	1	-1E+10	1	-1E+10	1
4902551	112	C	09/21/2023	16:04	-131.114	47.251	0	1965.40	0	1.9560	0	34.5830	0	27.651	0	1939.925	0	53.8	4	16.2	4	-1E+10	1	-1E+10	1	-1E+10	1	-1E+10	1	-1E+10	1	-1E+10	1
4902551	112	C	09/21/2023	16:04	-131.114	47.251	0	1975.30	0	1.9500	0	34.5840	0	27.653	0	1949.651	0	54.1	4	16.3	4	-1E+10	1	-1E+10	1	-1E+10	1	-1E+10	1	-1E+10	1	-1E+10	1
4902551	112	C	09/21/2023	16:04	-131.114	47.251	0	1986.00	0	1.9430	0	34.5850	0	27.654	0	1960.163	0	54.0	4	16.3	4	-1E+10	1	-1E+10	1	-1E+10	1	-1E+10	1	-1E+10	1	-1E+10	1
4902551	112	C	09/21/2023	16:04	-131.114	47.251	0	1990.50	0	1.9430	0	34.5850	0	27.654	0	1964.584	0	53.5	4	16.1	4	-1E+10	1	-1E+10	1	-1E+10	1	-1E+10	1	-1E+10	1	-1E+10	1
4902551	112	C	09/21/2023	16:04	-131.114	47.251	0																										
4902551	113	C	10/01/2023	21:08	-131.046	47.179	0	0.10	0	15.3800	0	32.4130	0	23.897	0	0.099	0	243.7	4	97.3	4	-1E+10	1	-1E+10	1	-1E+10	1	-1E+10	1	-1E+10	1	-1E+10	1
4902551	113	C	10/01/2023	21:08	-131.046	47.179	0	0.20	0	15.3750	0	32.4120	0	23.897	0	0.198	0	238.1	4	95.1	4	-1E+10	1	-1E+10	1	-1E+10	1	-1E+10	1	-1E+10	1	-1E+10	1
4902551	113	C	10/01/2023	21:08	-131.046	47.179	0	0.90	0	15.3740	0	32.4100	0	23.896	0	0.893	0	238.0	4	95.1	4	-1E+10	1	-1E+10	1	-1E+10	1	-1E+10	1	-1E+10	1	-1E+10	1
4902551	113	C	10/01/2023	21:08	-131.046	47.179	0	2.00	0	15.3730	0	32.4110	0	23.897	0	1.983	0	238.0	4	95.1	4	-1E+10	1	-1E+10	1	-1E+10	1	-1E+10	1	-1E+10	1	-1E+10	1
4902551	113	C	10/01/2023	21:08	-131.046	47.179	0	2.90	0	15.3720	0	32.4120	0	23.898	0	2.876	0	238.0	4	95.0	4	-1E+10	1	-1E+10	1	-1E+10	1	-1E+10	1	-1E+10	1	-1E+10	1
4902551	113	C	10/01/2023	21:08	-131.046	47.179	0	3.70	0	15.3720	0	32.4120	0	23.898	0	3.669	0	238.0	4	95.0	4	-1E+10	1	-1E+10	1	-1E+10	1	-1E+10	1	-1E+10	1	-1E+10	1
4902551	113	C	10/01/2023	21:08	-131.046	47.179	0	5.00	0	15.3660	0	32.4180	0	23.904	0	4.958	0	238.1	4	95.1	4	-1E+10	1	-1E+10	1	-1E+10	1	-1E+10	1	-1E+10	1	-1E+10	1
4902551	113	C	10/01/2023	21:08	-131.046	47.179	0	6.00	0	15.3640	0	32.4180	0	23.904	0	5.950	0	238.0	4	95.0	4	-1E+10	1	-1E+10	1	-1E+10	1	-1E+10	1	-1E+10	1	-1E+10	1
4902551	113	C	10/01/2023	21:08	-131.046	47.179	0	7.00	0	15.3640	0	32.4180	0	23.904	0	6.942	0	238.1	4	95.1	4	-1E+10	1	-1E+10	1	-1E+10	1	-1E+10	1	-1E+10	1	-1E+10	1
4902551	113	C	10/01/2023	21:08	-131.046	47.179	0	8.10	0	15.3630	0	32.4180	0	23.904	0	8.032	0	238.1	4	95.1	4	-1E+10	1	-1E+10	1	-1E+10	1	-1E+10	1	-1E+10	1	-1E+10	1
4902551	113	C	10/01/2023	21:08	-131.046	47.179	0	8.80	0	15.3630	0	32.4180	0	23.905	0	8.727	0	238.1	4	95.1	4	-1E+10	1	-1E+10	1	-1E+10	1	-1E+10	1	-1E+10	1	-1E+10	1
4902551	113	C	10/01/2023	21:08	-131.046	47.179	0	9.80	0	15.3630	0	32.4170	0	23.904	0	9.718	0	238.2	4	95.1	4	-1E+10	1	-1E+10	1	-1E+10	1	-1E+10	1	-1E+10	1	-1E+10	1
4902551	113	C	10/01/2023	21:08	-131.046	47.179	0	10.90	0	15.3470	0	32.4230	0	23.912	0	10.809	0	238.2	4	95.1	4	-1E+10	1	-1E+10	1	-1E+10	1	-1E+10	1	-1E+10	1	-1E+10	1
4902551	113	C	10/01/2023	21:08	-131.046	47.179	0	12.00	0	15.3420	0	32.4220	0	23.912	0	11.900	0	238.3	4	95.1	4	-1E+10	1	-1E+10	1	-1E+10	1	-1E+10	1	-1E+10	1	-1E+10	1
4902551	113	C	10/01/2023	21:08	-131.046	47.179	0	13.20	0	15.3310	0	32.4240	0	23.916	0	13.090	0	238.4	4	95.1	4	-1E+10	1	-1E+10	1	-1E+10	1	-1E+10	1	-1E+10	1	-1E+10	1
4902551	113	C	10/01/2023	21:08	-131.046	47.179	0	13.90	0	15.3300	0	32.4250	0	23.917	0	13.784	0	238.4	4	95.1	4	-1E+10	1	-1E+10	1	-1E+10	1	-1E+10	1	-1E+10	1	-1E+10	1
4902551	113	C	10/01/2023	21:08	-131.046	47.179	0	15.00	0	15.3290	0	32.4270	0	23.919	0	14.875	0	238.4	4	95.1	4	-1E+10	1	-1E+10	1	-1E+10	1	-1E+10	1	-1E+10	1	-1E+10	1
4902551	113	C	10/01/2023	21:08	-131.046	47.179	0	16.20	0	15.3290	0	32.4280	0	23.920	0	16.065	0	238.5	4	95.2	4	-1E+10	1	-1E+10	1	-1E+10	1	-1E+10	1	-1E+10	1	-1E+10	1
4902551	113	C	10/01/2023	21:08	-131.046	47.179	0	16.90	0	15.3290	0	32.4280	0	23.920	0	16.759	0	238.5	4	95.2	4	-1E+10	1	-1E+10	1	-1E+10	1	-1E+10	1	-1E+10	1	-1E+10	1
4902551	113	C	10/01/2023	21:08	-131.046	47.179	0	17.70	0	15.3290	0	32.4280	0	23.920	0	17.552	0	238.5	4	95.2	4	-1E+10	1	-1E+10	1	-1E+10	1	-1E+10	1	-1E+10	1	-1E+10	1
4902551	113	C	10/01/2023	21:08	-131.046	47.179	0	18.80	0	15.3280	0	32.4290	0	23.921	0	18.643	0	238.6	4	95.2	4	-1E+10	1	-1E+10	1	-1E+10	1	-1E+10	1	-1E+10	1	-1E+10	1
4902551	113	C	10/01/2023	21:08	-131.046	47.179	0	20.00	0	15.3270	0	32.4310	0	23.923	0	19.833	0	238.7	4	95.3	4	-1E+10	1	-1E+10	1	-1E+10	1	-1E+10	1	-1E+10	1	-1E+10	1
4902551	113	C	10/01/2023	21:08	-131.046	47.179	0	21.00	0	15.3260	0	32.4300	0	23.922	0	20.824	0	238.9	4	95.3	4	-1E+10	1	-1E+10	1	-1E+10	1	-1E+10	1	-1E+10	1	-1E+10	1
4902551	113	C	10/01/2023	21:08	-131.046	47.179	0	22.20	0	15.3230	0	32.4340	0	23.926	0	22.014	0	239.1	4	95.4	4	-1E+10	1	-1E+10	1	-1E+10	1	-1E+10	1	-1E+10	1	-1E+10	1
4902551	113	C	10/01/2023	21:08	-131.046	47.179	0	22.90	0	15.3230	0	32.4340	0	23.926	0	22.708	0	239.2	4	95.4	4	-1E+10	1	-1E+10	1	-1E+10	1	-1E+10	1	-1E+10	1	-1E+10	1
4902551	113	C	10/01/2023	21:08	-131.046	47.179	0	23.70	0	15.3210	0	32.4350	0	23.927	0	23.502	0	239.2	4	95.5	4	-1E+10	1	-1E+10	1	-1E+10	1	-1E+10	1	-1E+10	1	-1E+10	1
4902551	113	C	10/01/2023	21:08	-131.046	47.179	0	24.80	0	15.3200	0	32.4340	0	23.927	0	24.592	0	239.5	4	95.6	4	-1E+10	1	-1E+10	1	-1E+10	1	-1E+10	1	-1E+10	1	-1E+10	1
4902551	113	C	10/01/2023	21:08	-131.046	47.179	0	26.00	0	15.3200	0	32.4350	0	23.928	0	25.782	0	239.9	4	95.7	4	-1E+10	1	-1E+10	1	-1E+10	1	-1E+10	1	-1E+10	1	-1E+10	1
4902551	113	C	10/01/2023	21:08	-131.046	47.179	0	26.70	0	15.3190	0	32.4360	0	23.929	0	26.476	0	240.2	4	95.8	4	-1E+10	1	-1E+10	1	-1E+10	1	-1E+10	1	-1E+10	1	-1E+10	1
4902551	113	C	10/01/2023	21:08	-131.046	47.179	0	27.90	0	15.3180	0	32.4360	0	23.929	0	27.666	0	240.6	4	96.0	4	-1E+10	1	-1E+10	1	-1E+10	1	-1E+10	1	-1E+10	1	-1E+10	1
4902551	113	C	10/01/2023	21:08	-131.046	47.179	0	29.10	0	15.3150	0	32.4360	0	23.930	0	28.856	0	241.2	4	96.2	4	-1E+10	1	-1E+10	1	-1E+10	1	-1E+10	1	-1E+10	1	-1E+10	1
4902551	113	C	10/01/2023	21:08	-131.046	47.179	0	29.90	0	15.3130	0	32.4360	0	23.930	0	29.649	0	241.7	4	96.4	4	-1E+10	1	-1E+10	1	-1E+10	1	-1E+10	1	-1E+10	1	-1E+10	1
4902551	113	C	10/01/2023	21:08	-131.046	47.179	0	30.70	0	15.3130	0	32.4370	0	23.931	0	30.442	0	242.1	4	96.6	4	-1E+10	1	-1E+10	1	-1E+10	1	-1E+10	1	-1E+10	1	-1E+10	1
4902551	113	C	10/01/2023	21:08	-131.046	47.179	0	31.90	0	15.3120	0	32.4370	0	23.931	0	31.632	0	242.9	4	96.9	4	-1E+10	1	-1E+10	1	-1E+10	1	-1E+10	1	-1E+10	1	-1E+10	1
4902551	113	C	10/01/2023	21:08	-131.046	47.179	0	33.10	0	15.3120	0	32.4370	0	23.931	0	32.822	0	243.9	4	97.3	4	-1E+10	1	-1E+10	1	-1E+10	1	-1E+10	1	-1E+10	1	-1E+10	1
4902551	113	C	10/01/2023	21:08	-131.046	47.179	0	33.80	0	15.3110	0	32.4370	0	23.931	0	33.516	0	244.7	4	97.6	4	-1E+10	1	-1E+10	1	-1E+10	1	-1E+10	1	-1E+10	1	-1E+10	1
4902551	113	C	10/01/2023	21:08	-131.046	47.179	0	35.00	0	15.3100	0	32.4370	0	23.932	0	34.706	0	246.2	4	98.2	4	-1E+10	1	-1E+10	1	-1E+10	1	-1E+10	1	-1E+10	1	-1E+10	1
4902551	113	C	10/01/2023	21:08	-131.046	47.179	0	36.10	0	15.3090	0	32.4370	0	23.932	0	35.797	0	247.8	4	98.8	4	-1E+10	1	-1E+10	1	-1E+10	1	-1E+10	1	-1E+10	1	-1E+10	1
4902551	113	C	10/01/2023	21:08	-131.046	47.179	0	37.00	0	15.3010	0	32.4360	0	23.933	0	36.689	0	249.6	4	99.6	4	-1E+10	1	-1E+10	1	-1E+10	1	-1E+10	1	-1E+10	1	-1E+10	1
4902551	113	C	10/01/2023	21:08	-131.046	47.179	0	38.20	0	15.2980	0	32.4350	0	23.933	0	37.879	0	252.6	4	100.7	4	-1E+10	1	-1E+10	1	-1E+10	1	-1E+10	1	-1E+10	1	-1E+10	1
4902551	113	C	10/01/2023	21:08	-131.046	47.179	0	39.10	0	15.2110	0	32.4280	0	23.946	0	38.771	0	256.9	4	102.3	4	-1E+10	1	-1E+10	1	-1E+10	1	-1E+10	1	-1E+10	1	-1E+10	1
4902551	113	C	10/01/2023	21:08	-131.046	47.179	0	40.00	0	14.8640	0	32.4080	0	24.006	0	39.663	0	260.7	4	103.1	4	-1E+10	1	-1E+10	1	-1E+10	1	-1E+10	1	-1E+10	1	-1E+10	1
4902551	113	C	10/01/2023	21:08	-131.046	47.179	0	41.00	0	14.0190	0	32.4040	0	24.180	0	40.655	0	264.3	4	102.7	4	-1E+10	1	-1E+10	1	-1E+10	1	-1E+10	1	-1E+10	1	-1E+10	1
4902551	113	C	10/01/2023	21:08	-131.046	47.179	0	42.00	0	12.9410	0	32.3880	0	24.383	0	41.646	0	272.3	4	103.5	4	-1E+10	1	-1E+10	1	-1E+10	1	-1E+10	1	-1E+10	1	-1E+10	1
4902551	113	C	10/01/2023	21:08	-131.046	47.179	0	43.00	0	12.4470	0	32.3880	0	24.479	0	42.638	0	275.5	4	103.7	4	-1E+10	1	-1E+10	1	-1E+10	1	-1E+10	1	-1E+10	1	-1E+10	1
4902551	113	C	10/01/2023	21:08	-131.046	47.179	0	43.90	0	12.0060	0	32.3830	0	24.558	0	43.530	0	278.1	4	103.7	4	-1E+10	1	-1E+10	1	-1E+10	1	-1E+10	1	-1E+10	1	-1E+10	1
4902551	113	C	10/01/2023	21:08	-131.046	47.179	0	44.80	0	11.4320	0	32.3470	0	24.635	0	44.423	0	281.4	4	103.7	4	-1E+10	1	-1E+10	1	-1E+10	1	-1E+10	1	-1E+10	1	-1E+10	1
4902551	113	C	10/01/2023	21:08	-131.046	47.179	0	46.00	0	10.6230	0	32.3920	0	24.812	0	45.612	0	284.2	4	103.0	4	-1E+10	1	-1E+10	1	-1E+10	1	-1E+10	1	-1E+10	1	-1E+10	1
4902551	113	C	10/01/2023	21:08	-131.046	47.179	0	46.90	0	10.3980	0	32.3450	0	24.814	0	46.505	0	284.7	4	102.6	4	-1E+10	1	-1E+10	1	-1E+10	1	-1E+10	1	-1E+10	1	-1E+10	1
4902551	113	C	10/01/2023	21:08	-131.046	47.179	0	48.10	0	9.9930	0	32.3750	0	24.905	0	47.694	0	285.3	4	101.9	4	-1E+10	1	-1E+10	1	-1E+10	1	-1E+10	1	-1E+10	1	-1E+10	1
4902551	113	C	10/01/2023	21:08	-131.046	47.179	0	49.00	0	9.8080	0	32.3800	0	24.940	0	48.587	0	285.4	4	101.6	4	-1E+10	1	-1E+10	1	-1E+10	1	-1E+10	1	-1E+10	1	-1E+10	1
4902551	113	C	10/01/2023	21:08	-131.046	47.179	0	49.90	0	9.7460	0	32.3800	0	24.950	0	49.479	0	284.9	4	101.3	4	-1E+10	1	-1E+10	1	-1E+10	1	-1E+10	1	-1E+10	1	-1E+10	1
4902551	113	C	10/01/2023	21:08	-131.046	47.179	0	50.90	0	9.6610	0	32.3780	0	24.962	0	50.470	0	284.6	4	101.0	4	-1E+10	1	-1E+10	1	-1E+10	1	-1E+10	1	-1E+10	1	-1E+10	1
4902551	113	C	10/01/2023	21:08	-131.046	47.179	0	52.00	0	9.5780	0	32.3760	0	24.974	0	51.561	0	284.1	4	100.6	4	-1E+10	1	-1E+10	1	-1E+10	1	-1E+10	1	-1E+10	1	-1E+10	1
4902551	113	C	10/01/2023	21:08	-131.046	47.179	0	53.10	0	9.4100	0	32.3810	0	25.005	0	52.652	0	283.3	4	100.0	4	-1E+10	1	-1E+10	1	-1E+10	1	-1E+10	1	-1E+10	1	-1E+10	1
4902551	113	C	10/01/2023	21:08	-131.046	47.179	0	53.90	0	9.3230	0	32.3780	0	25.016	0	53.445	0	282.3	4	99.4	4	-1E+10	1	-1E+10	1	-1E+10	1	-1E+10	1	-1E+10	1	-1E+10	1
4902551	113	C	10/01/2023	21:08	-131.046	47.179	0	54.80	0	9.2480	0	32.3790	0	25.029	0	54.337	0	280.7	4	98.7	4	-1E+10	1	-1E+10	1	-1E+10	1	-1E+10	1	-1E+10	1	-1E+10	1
4902551	113	C	10/01/2023	21:08	-131.046	47.179	0	55.90	0	9.1150	0	32.3780	0	25.049	0	55.428	0	279.2	4	97.9	4	-1E+10	1	-1E+10	1	-1E+10	1	-1E+10	1	-1E+10	1	-1E+10	1
4902551	113	C	10/01/2023	21:08	-131.046	47.179	0	57.00	0	8.9560	0	32.3800	0	25.075	0	56.518	0	278.6	4	97.3	4	-1E+10	1	-1E+10	1	-1E+10	1	-1E+10	1	-1E+10	1	-1E+10	1
4902551	113	C	10/01/2023	21:08	-131.046	47.179	0	58.00	0	8.8280	0	32.3840	0	25.098	0	57.510	0	278.3	4	96.9	4	-1E+10	1	-1E+10	1	-1E+10	1	-1E+10	1	-1E+10	1	-1E+10	1
4902551	113	C	10/01/2023	21:08	-131.046	47.179	0	59.10	0	8.8030	0	32.3850	0	25.103	0	58.600	0	277.4	4	96.6	4	-1E+10	1	-1E+10	1	-1E+10	1	-1E+10	1	-1E+10	1	-1E+10	1
4902551	113	C	10/01/2023	21:08	-131.046	47.179	0	60.10	0	8.7550	0	32.3880	0	25.112	0	59.591	0	276.0	4	96.0	4	-1E+10	1	-1E+10	1	-1E+10	1	-1E+10	1	-1E+10	1	-1E+10	1
4902551	113	C	10/01/2023	21:08	-131.046	47.179	0	61.10	0	8.6670	0	32.3910	0	25.128	0	60.583	0	273.6	4	95.0	4	-1E+10	1	-1E+10	1	-1E+10	1	-1E+10	1	-1E+10	1	-1E+10	1
4902551	113	C	10/01/2023	21:08	-131.046	47.179	0	62.10	0	8.5250	0	32.3900	0	25.149	0	61.574	0	271.3	4	93.9	4	-1E+10	1	-1E+10	1	-1E+10	1	-1E+10	1	-1E+10	1	-1E+10	1
4902551	113	C	10/01/2023	21:08	-131.046	47.179	0	63.10	0	8.4090	0	32.3960	0	25.171	0	62.566	0	270.3	4	93.3	4	-1E+10	1	-1E+10	1	-1E+10	1	-1E+10	1	-1E+10	1	-1E+10	1
4902551	113	C	10/01/2023	21:08	-131.046	47.179	0	63.80	0	8.3690	0	32.3980	0	25.178	0	63.260	0	269.7	4	93.0	4	-1E+10	1	-1E+10	1	-1E+10	1	-1E+10	1	-1E+10	1	-1E+10	1
4902551	113	C	10/01/2023	21:08	-131.046	47.179	0	65.00	0	8.3120	0	32.3960	0	25.185	0	64.449	0	268.7	4	92.5	4	-1E+10	1	-1E+10	1	-1E+10	1	-1E+10	1	-1E+10	1	-1E+10	1
4902551	113	C	10/01/2023	21:08	-131.046	47.179	0	66.00	0	8.2950	0	32.3970	0	25.188	0	65.441	0	267.9	4	92.2	4	-1E+10	1	-1E+10	1	-1E+10	1	-1E+10	1	-1E+10	1	-1E+10	1
4902551	113	C	10/01/2023	21:08	-131.046	47.179	0	66.90	0	8.2740	0	32.3980	0	25.192	0	66.333	0	267.2	4	91.9	4	-1E+10	1	-1E+10	1	-1E+10	1	-1E+10	1	-1E+10	1	-1E+10	1
4902551	113	C	10/01/2023	21:08	-131.046	47.179	0	67.80	0	8.2150	0	32.3980	0	25.201	0	67.225	0	266.6	4	91.6	4	-1E+10	1	-1E+10	1	-1E+10	1	-1E+10	1	-1E+10	1	-1E+10	1
4902551	113	C	10/01/2023	21:08	-131.046	47.179	0	68.80	0	8.1350	0	32.3940	0	25.209	0	68.216	0	266.2	4	91.3	4	-1E+10	1	-1E+10	1	-1E+10	1	-1E+10	1	-1E+10	1	-1E+10	1
4902551	113	C	10/01/2023	21:08	-131.046	47.179	0	69.80	0	8.1090	0	32.3980	0	25.216	0	69.208	0	265.7	4	91.1	4	-1E+10	1	-1E+10	1	-1E+10	1	-1E+10	1	-1E+10	1	-1E+10	1
4902551	113	C	10/01/2023	21:08	-131.046	47.179	0	70.80	0	8.0760	0	32.3990	0	25.222	0	70.199	0	265.5	4	90.9	4	-1E+10	1	-1E+10	1	-1E+10	1	-1E+10	1	-1E+10	1	-1E+10	1
4902551	113	C	10/01/2023	21:08	-131.046	47.179	0	71.80	0	8.0280	0	32.3980	0	25.228	0	71.190	0	265.3	4	90.8	4	-1E+10	1	-1E+10	1	-1E+10	1	-1E+10	1	-1E+10	1	-1E+10	1
4902551	113	C	10/01/2023	21:08	-131.046	47.179	0	72.80	0	7.9900	0	32.3950	0	25.231	0	72.182	0	265.1	4	90.7	4	-1E+10	1	-1E+10	1	-1E+10	1	-1E+10	1	-1E+10	1	-1E+10	1
4902551	113	C	10/01/2023	21:08	-131.046	47.179	0	73.90	0	7.9670	0	32.3930	0	25.233	0	73.272	0	264.9	4	90.5	4	-1E+10	1	-1E+10	1	-1E+10	1	-1E+10	1	-1E+10	1	-1E+10	1
4902551	113	C	10/01/2023	21:08	-131.046	47.179	0	74.90	0	7.9460	0	32.3940	0	25.237	0	74.264	0	264.7	4	90.4	4	-1E+10	1	-1E+10	1	-1E+10	1	-1E+10	1	-1E+10	1	-1E+10	1
4902551	113	C	10/01/2023	21:08	-131.046	47.179	0	75.90	0	7.9260	0	32.3960	0	25.241	0	75.255	0	264.5	4	90.3	4	-1E+10	1	-1E+10	1	-1E+10	1	-1E+10	1	-1E+10	1	-1E+10	1
4902551	113	C	10/01/2023	21:08	-131.046	47.179	0	76.90	0	7.9110	0	32.3970	0	25.244	0	76.246	0	264.3	4	90.2	4	-1E+10	1	-1E+10	1	-1E+10	1	-1E+10	1	-1E+10	1	-1E+10	1
4902551	113	C	10/01/2023	21:08	-131.046	47.179	0	77.90	0	7.8660	0	32.3950	0	25.249	0	77.238	0	264.3	4	90.1	4	-1E+10	1	-1E+10	1	-1E+10	1	-1E+10	1	-1E+10	1	-1E+10	1
4902551	113	C	10/01/2023	21:08	-131.046	47.179	0	78.90	0	7.8500	0	32.3940	0	25.251	0	78.229	0	264.2	4	90.0	4	-1E+10	1	-1E+10	1	-1E+10	1	-1E+10	1	-1E+10	1	-1E+10	1
4902551	113	C	10/01/2023	21:08	-131.046	47.179	0	79.90	0	7.8480	0	32.3960	0	25.252	0	79.220	0	264.0	4	90.0	4	-1E+10	1	-1E+10	1	-1E+10	1	-1E+10	1	-1E+10	1	-1E+10	1
4902551	113	C	10/01/2023	21:08	-131.046	47.179	0	80.90	0	7.8480	0	32.3990	0	25.255	0	80.211	0	263.9	4	89.9	4	-1E+10	1	-1E+10	1	-1E+10	1	-1E+10	1	-1E+10	1	-1E+10	1
4902551	113	C	10/01/2023	21:08	-131.046	47.179	0	82.10	0	7.8430	0	32.3990	0	25.256	0	81.401	0	263.6	4	89.8	4	-1E+10	1	-1E+10	1	-1E+10	1	-1E+10	1	-1E+10	1	-1E+10	1
4902551	113	C	10/01/2023	21:08	-131.046	47.179	0	82.80	0	7.8420	0	32.4000	0	25.256	0	82.095	0	270.1	4	92.0	4	-1E+10	1	-1E+10	1	-1E+10	1	-1E+10	1	-1E+10	1	-1E+10	1
4902551	113	C	10/01/2023	21:08	-131.046	47.179	0	83.90	0	7.8340	0	32.3990	0	25.257	0	83.185	0	269.9	4	91.9	4	-1E+10	1	-1E+10	1	-1E+10	1	-1E+10	1	-1E+10	1	-1E+10	1
4902551	113	C	10/01/2023	21:08	-131.046	47.179	0	85.30	0	7.7880	0	32.4080	0	25.270	0	84.573	0	269.6	4	91.8	4	-1E+10	1	-1E+10	1	-1E+10	1	-1E+10	1	-1E+10	1	-1E+10	1
4902551	113	C	10/01/2023	21:08	-131.046	47.179	0	86.20	0	7.7560	0	32.4000	0	25.269	0	85.465	0	269.4	4	91.6	4	-1E+10	1	-1E+10	1	-1E+10	1	-1E+10	1	-1E+10	1	-1E+10	1
4902551	113	C	10/01/2023	21:08	-131.046	47.179	0	87.10	0	7.7570	0	32.4030	0	25.271	0	86.357	0	269.2	4	91.6	4	-1E+10	1	-1E+10	1	-1E+10	1	-1E+10	1	-1E+10	1	-1E+10	1
4902551	113	C	10/01/2023	21:08	-131.046	47.179	0	88.00	0	7.7470	0	32.4010	0	25.271	0	87.250	0	269.0	4	91.5	4	-1E+10	1	-1E+10	1	-1E+10	1	-1E+10	1	-1E+10	1	-1E+10	1
4902551	113	C	10/01/2023	21:08	-131.046	47.179	0	89.20	0	7.7340	0	32.4040	0	25.275	0	88.439	0	268.8	4	91.4	4	-1E+10	1	-1E+10	1	-1E+10	1	-1E+10	1	-1E+10	1	-1E+10	1
4902551	113	C	10/01/2023	21:08	-131.046	47.179	0	90.00	0	7.7170	0	32.4030	0	25.277	0	89.232	0	268.4	4	91.2	4	-1E+10	1	-1E+10	1	-1E+10	1	-1E+10	1	-1E+10	1	-1E+10	1
4902551	113	C	10/01/2023	21:08	-131.046	47.179	0	91.20	0	7.7020	0	32.4050	0	25.280	0	90.422	0	268.1	4	91.1	4	-1E+10	1	-1E+10	1	-1E+10	1	-1E+10	1	-1E+10	1	-1E+10	1
4902551	113	C	10/01/2023	21:08	-131.046	47.179	0	91.90	0	7.6930	0	32.4060	0	25.282	0	91.115	0	267.8	4	90.9	4	-1E+10	1	-1E+10	1	-1E+10	1	-1E+10	1	-1E+10	1	-1E+10	1
4902551	113	C	10/01/2023	21:08	-131.046	47.179	0	93.10	0	7.6700	0	32.4080	0	25.287	0	92.305	0	267.3	4	90.7	4	-1E+10	1	-1E+10	1	-1E+10	1	-1E+10	1	-1E+10	1	-1E+10	1
4902551	113	C	10/01/2023	21:08	-131.046	47.179	0	93.90	0	7.6470	0	32.4090	0	25.291	0	93.098	0	266.8	4	90.5	4	-1E+10	1	-1E+10	1	-1E+10	1	-1E+10	1	-1E+10	1	-1E+10	1
4902551	113	C	10/01/2023	21:08	-131.046	47.179	0	95.10	0	7.6070	0	32.4100	0	25.298	0	94.287	0	266.2	4	90.2	4	-1E+10	1	-1E+10	1	-1E+10	1	-1E+10	1	-1E+10	1	-1E+10	1
4902551	113	C	10/01/2023	21:08	-131.046	47.179	0	95.90	0	7.5880	0	32.4120	0	25.302	0	95.080	0	265.7	4	90.0	4	-1E+10	1	-1E+10	1	-1E+10	1	-1E+10	1	-1E+10	1	-1E+10	1
4902551	113	C	10/01/2023	21:08	-131.046	47.179	0	97.00	0	7.5700	0	32.4130	0	25.305	0	96.171	0	264.9	4	89.7	4	-1E+10	1	-1E+10	1	-1E+10	1	-1E+10	1	-1E+10	1	-1E+10	1
4902551	113	C	10/01/2023	21:08	-131.046	47.179	0	98.20	0	7.5480	0	32.4140	0	25.309	0	97.360	0	263.9	4	89.3	4	-1E+10	1	-1E+10	1	-1E+10	1	-1E+10	1	-1E+10	1	-1E+10	1
4902551	113	C	10/01/2023	21:08	-131.046	47.179	0	98.90	0	7.5470	0	32.4150	0	25.310	0	98.054	0	262.9	4	89.0	4	-1E+10	1	-1E+10	1	-1E+10	1	-1E+10	1	-1E+10	1	-1E+10	1
4902551	113	C	10/01/2023	21:08	-131.046	47.179	0	99.90	0	7.5330	0	32.4200	0	25.316	0	99.045	0	261.7	4	88.6	4	-1E+10	1	-1E+10	1	-1E+10	1	-1E+10	1	-1E+10	1	-1E+10	1
4902551	113	C	10/01/2023	21:08	-131.046	47.179	0	101.00	0	7.5160	0	32.4260	0	25.323	0	100.136	0	260.4	4	88.1	4	-1E+10	1	-1E+10	1	-1E+10	1	-1E+10	1	-1E+10	1	-1E+10	1
4902551	113	C	10/01/2023	21:08	-131.046	47.179	0	101.90	0	7.5100	0	32.4310	0	25.328	0	101.028	0	259.5	4	87.8	4	-1E+10	1	-1E+10	1	-1E+10	1	-1E+10	1	-1E+10	1	-1E+10	1
4902551	113	C	10/01/2023	21:08	-131.046	47.179	0	102.70	0	7.4940	0	32.4370	0	25.335	0	101.821	0	258.7	4	87.5	4	-1E+10	1	-1E+10	1	-1E+10	1	-1E+10	1	-1E+10	1	-1E+10	1
4902551	113	C	10/01/2023	21:08	-131.046	47.179	0	103.80	0	7.4890	0	32.4400	0	25.338	0	102.911	0	257.3	4	87.0	4	-1E+10	1	-1E+10	1	-1E+10	1	-1E+10	1	-1E+10	1	-1E+10	1
4902551	113	C	10/01/2023	21:08	-131.046	47.179	0	105.00	0	7.4850	0	32.4490	0	25.345	0	104.100	0	255.7	4	86.5	4	-1E+10	1	-1E+10	1	-1E+10	1	-1E+10	1	-1E+10	1	-1E+10	1
4902551	113	C	10/01/2023	21:08	-131.046	47.179	0	106.00	0	7.4970	0	32.4700	0	25.360	0	105.091	0	254.3	4	86.0	4	-1E+10	1	-1E+10	1	-1E+10	1	-1E+10	1	-1E+10	1	-1E+10	1
4902551	113	C	10/01/2023	21:08	-131.046	47.179	0	107.10	0	7.4750	0	32.4810	0	25.372	0	106.182	0	252.8	4	85.5	4	-1E+10	1	-1E+10	1	-1E+10	1	-1E+10	1	-1E+10	1	-1E+10	1
4902551	113	C	10/01/2023	21:08	-131.046	47.179	0	108.00	0	7.4700	0	32.4830	0	25.374	0	107.074	0	251.5	4	85.0	4	-1E+10	1	-1E+10	1	-1E+10	1	-1E+10	1	-1E+10	1	-1E+10	1
4902551	113	C	10/01/2023	21:08	-131.046	47.179	0	109.10	0	7.4640	0	32.5010	0	25.389	0	108.164	0	248.9	4	84.2	4	-1E+10	1	-1E+10	1	-1E+10	1	-1E+10	1	-1E+10	1	-1E+10	1
4902551	113	C	10/01/2023	21:08	-131.046	47.179	0	110.00	0	7.4590	0	32.5110	0	25.398	0	109.056	0	245.9	4	83.2	4	-1E+10	1	-1E+10	1	-1E+10	1	-1E+10	1	-1E+10	1	-1E+10	1
4902551	113	C	10/01/2023	21:08	-131.046	47.179	0	110.90	0	7.4400	0	32.5490	0	25.430	0	109.948	0	243.1	4	82.2	4	-1E+10	1	-1E+10	1	-1E+10	1	-1E+10	1	-1E+10	1	-1E+10	1
4902551	113	C	10/01/2023	21:08	-131.046	47.179	0	111.90	0	7.4230	0	32.5810	0	25.458	0	110.939	0	240.7	4	81.4	4	-1E+10	1	-1E+10	1	-1E+10	1	-1E+10	1	-1E+10	1	-1E+10	1
4902551	113	C	10/01/2023	21:08	-131.046	47.179	0	113.00	0	7.4040	0	32.6250	0	25.495	0	112.030	0	238.4	4	80.6	4	-1E+10	1	-1E+10	1	-1E+10	1	-1E+10	1	-1E+10	1	-1E+10	1
4902551	113	C	10/01/2023	21:08	-131.046	47.179	0	114.10	0	7.3870	0	32.6650	0	25.529	0	113.120	0	236.3	4	79.9	4	-1E+10	1	-1E+10	1	-1E+10	1	-1E+10	1	-1E+10	1	-1E+10	1
4902551	113	C	10/01/2023	21:08	-131.046	47.179	0	114.90	0	7.3880	0	32.6670	0	25.530	0	113.913	0	234.4	4	79.2	4	-1E+10	1	-1E+10	1	-1E+10	1	-1E+10	1	-1E+10	1	-1E+10	1
4902551	113	C	10/01/2023	21:08	-131.046	47.179	0	116.10	0	7.3860	0	32.6820	0	25.542	0	115.102	0	231.0	4	78.1	4	-1E+10	1	-1E+10	1	-1E+10	1	-1E+10	1	-1E+10	1	-1E+10	1
4902551	113	C	10/01/2023	21:08	-131.046	47.179	0	117.10	0	7.3710	0	32.7070	0	25.564	0	116.093	0	227.8	4	77.0	4	-1E+10	1	-1E+10	1	-1E+10	1	-1E+10	1	-1E+10	1	-1E+10	1
4902551	113	C	10/01/2023	21:08	-131.046	47.179	0	118.00	0	7.3490	0	32.7440	0	25.596	0	116.985	0	225.3	4	76.1	4	-1E+10	1	-1E+10	1	-1E+10	1	-1E+10	1	-1E+10	1	-1E+10	1
4902551	113	C	10/01/2023	21:08	-131.046	47.179	0	118.90	0	7.3270	0	32.7700	0	25.620	0	117.877	0	222.8	4	75.3	4	-1E+10	1	-1E+10	1	-1E+10	1	-1E+10	1	-1E+10	1	-1E+10	1
4902551	113	C	10/01/2023	21:08	-131.046	47.179	0	120.00	0	7.2820	0	32.8270	0	25.671	0	118.967	0	220.1	4	74.3	4	-1E+10	1	-1E+10	1	-1E+10	1	-1E+10	1	-1E+10	1	-1E+10	1
4902551	113	C	10/01/2023	21:08	-131.046	47.179	0	121.10	0	7.2740	0	32.8400	0	25.682	0	120.058	0	216.4	4	73.0	4	-1E+10	1	-1E+10	1	-1E+10	1	-1E+10	1	-1E+10	1	-1E+10	1
4902551	113	C	10/01/2023	21:08	-131.046	47.179	0	122.10	0	7.2260	0	32.9150	0	25.748	0	121.049	0	214.4	4	72.3	4	-1E+10	1	-1E+10	1	-1E+10	1	-1E+10	1	-1E+10	1	-1E+10	1
4902551	113	C	10/01/2023	21:08	-131.046	47.179	0	123.00	0	7.1920	0	33.0020	0	25.821	0	121.941	0	212.9	4	71.8	4	-1E+10	1	-1E+10	1	-1E+10	1	-1E+10	1	-1E+10	1	-1E+10	1
4902551	113	C	10/01/2023	21:08	-131.046	47.179	0	124.00	0	7.1810	0	33.0250	0	25.840	0	122.932	0	211.6	4	71.4	4	-1E+10	1	-1E+10	1	-1E+10	1	-1E+10	1	-1E+10	1	-1E+10	1
4902551	113	C	10/01/2023	21:08	-131.046	47.179	0	124.90	0	7.1710	0	33.0520	0	25.863	0	123.824	0	210.5	4	71.0	4	-1E+10	1	-1E+10	1	-1E+10	1	-1E+10	1	-1E+10	1	-1E+10	1
4902551	113	C	10/01/2023	21:08	-131.046	47.179	0	126.00	0	7.1550	0	33.0820	0	25.889	0	124.914	0	209.3	4	70.6	4	-1E+10	1	-1E+10	1	-1E+10	1	-1E+10	1	-1E+10	1	-1E+10	1
4902551	113	C	10/01/2023	21:08	-131.046	47.179	0	126.70	0	7.1390	0	33.1000	0	25.905	0	125.608	0	208.6	4	70.3	4	-1E+10	1	-1E+10	1	-1E+10	1	-1E+10	1	-1E+10	1	-1E+10	1
4902551	113	C	10/01/2023	21:08	-131.046	47.179	0	127.80	0	7.1240	0	33.1180	0	25.921	0	126.698	0	207.6	4	70.0	4	-1E+10	1	-1E+10	1	-1E+10	1	-1E+10	1	-1E+10	1	-1E+10	1
4902551	113	C	10/01/2023	21:08	-131.046	47.179	0	129.00	0	7.1240	0	33.1200	0	25.923	0	127.887	0	206.6	4	69.6	4	-1E+10	1	-1E+10	1	-1E+10	1	-1E+10	1	-1E+10	1	-1E+10	1
4902551	113	C	10/01/2023	21:08	-131.046	47.179	0	129.80	0	7.0980	0	33.1300	0	25.934	0	128.680	0	205.7	4	69.3	4	-1E+10	1	-1E+10	1	-1E+10	1	-1E+10	1	-1E+10	1	-1E+10	1
4902551	113	C	10/01/2023	21:08	-131.046	47.179	0	131.00	0	7.0370	0	33.1890	0	25.989	0	129.869	0	204.2	4	68.7	4	-1E+10	1	-1E+10	1	-1E+10	1	-1E+10	1	-1E+10	1	-1E+10	1
4902551	113	C	10/01/2023	21:08	-131.046	47.179	0	132.30	0	7.0100	0	33.2270	0	26.023	0	131.158	0	203.2	4	68.4	4	-1E+10	1	-1E+10	1	-1E+10	1	-1E+10	1	-1E+10	1	-1E+10	1
4902551	113	C	10/01/2023	21:08	-131.046	47.179	0	133.10	0	6.9920	0	33.2480	0	26.042	0	131.951	0	202.5	4	68.1	4	-1E+10	1	-1E+10	1	-1E+10	1	-1E+10	1	-1E+10	1	-1E+10	1
4902551	113	C	10/01/2023	21:08	-131.046	47.179	0	133.90	0	6.9760	0	33.2640	0	26.056	0	132.743	0	202.0	4	67.9	4	-1E+10	1	-1E+10	1	-1E+10	1	-1E+10	1	-1E+10	1	-1E+10	1
4902551	113	C	10/01/2023	21:08	-131.046	47.179	0	134.80	0	7.0280	0	33.3000	0	26.078	0	133.635	0	201.7	4	67.9	4	-1E+10	1	-1E+10	1	-1E+10	1	-1E+10	1	-1E+10	1	-1E+10	1
4902551	113	C	10/01/2023	21:08	-131.046	47.179	0	135.70	0	7.0140	0	33.3250	0	26.099	0	134.527	0	201.6	4	67.9	4	-1E+10	1	-1E+10	1	-1E+10	1	-1E+10	1	-1E+10	1	-1E+10	1
4902551	113	C	10/01/2023	21:08	-131.046	47.179	0	136.60	0	6.9620	0	33.3210	0	26.103	0	135.419	0	201.5	4	67.8	4	-1E+10	1	-1E+10	1	-1E+10	1	-1E+10	1	-1E+10	1	-1E+10	1
4902551	113	C	10/01/2023	21:08	-131.046	47.179	0	137.90	0	6.9250	0	33.3220	0	26.109	0	136.707	0	201.2	4	67.6	4	-1E+10	1	-1E+10	1	-1E+10	1	-1E+10	1	-1E+10	1	-1E+10	1
4902551	113	C	10/01/2023	21:08	-131.046	47.179	0	139.30	0	6.9010	0	33.3190	0	26.110	0	138.095	0	200.5	4	67.3	4	-1E+10	1	-1E+10	1	-1E+10	1	-1E+10	1	-1E+10	1	-1E+10	1
4902551	113	C	10/01/2023	21:08	-131.046	47.179	0	140.20	0	6.8930	0	33.3230	0	26.114	0	138.987	0	199.8	4	67.1	4	-1E+10	1	-1E+10	1	-1E+10	1	-1E+10	1	-1E+10	1	-1E+10	1
4902551	113	C	10/01/2023	21:08	-131.046	47.179	0	141.10	0	6.8930	0	33.3240	0	26.115	0	139.879	0	199.3	4	66.9	4	-1E+10	1	-1E+10	1	-1E+10	1	-1E+10	1	-1E+10	1	-1E+10	1
4902551	113	C	10/01/2023	21:08	-131.046	47.179	0	142.00	0	6.8930	0	33.3240	0	26.115	0	140.771	0	198.4	4	66.6	4	-1E+10	1	-1E+10	1	-1E+10	1	-1E+10	1	-1E+10	1	-1E+10	1
4902551	113	C	10/01/2023	21:08	-131.046	47.179	0	142.90	0	6.8930	0	33.3300	0	26.120	0	141.662	0	197.4	4	66.3	4	-1E+10	1	-1E+10	1	-1E+10	1	-1E+10	1	-1E+10	1	-1E+10	1
4902551	113	C	10/01/2023	21:08	-131.046	47.179	0	143.80	0	6.8890	0	33.3360	0	26.125	0	142.554	0	196.3	4	65.9	4	-1E+10	1	-1E+10	1	-1E+10	1	-1E+10	1	-1E+10	1	-1E+10	1
4902551	113	C	10/01/2023	21:08	-131.046	47.179	0	144.80	0	6.8880	0	33.3380	0	26.127	0	143.545	0	195.0	4	65.5	4	-1E+10	1	-1E+10	1	-1E+10	1	-1E+10	1	-1E+10	1	-1E+10	1
4902551	113	C	10/01/2023	21:08	-131.046	47.179	0	145.70	0	6.8860	0	33.3410	0	26.129	0	144.437	0	193.7	4	65.1	4	-1E+10	1	-1E+10	1	-1E+10	1	-1E+10	1	-1E+10	1	-1E+10	1
4902551	113	C	10/01/2023	21:08	-131.046	47.179	0	146.60	0	6.8850	0	33.3440	0	26.132	0	145.329	0	192.4	4	64.6	4	-1E+10	1	-1E+10	1	-1E+10	1	-1E+10	1	-1E+10	1	-1E+10	1
4902551	113	C	10/01/2023	21:08	-131.046	47.179	0	147.90	0	6.8660	0	33.3810	0	26.164	0	146.617	0	190.3	4	63.9	4	-1E+10	1	-1E+10	1	-1E+10	1	-1E+10	1	-1E+10	1	-1E+10	1
4902551	113	C	10/01/2023	21:08	-131.046	47.179	0	149.40	0	6.8490	0	33.4380	0	26.211	0	148.104	0	188.7	4	63.4	4	-1E+10	1	-1E+10	1	-1E+10	1	-1E+10	1	-1E+10	1	-1E+10	1
4902551	113	C	10/01/2023	21:08	-131.046	47.179	0	150.40	0	6.8480	0	33.4590	0	26.227	0	149.095	0	187.7	4	63.0	4	-1E+10	1	-1E+10	1	-1E+10	1	-1E+10	1	-1E+10	1	-1E+10	1
4902551	113	C	10/01/2023	21:08	-131.046	47.179	0	151.30	0	6.8480	0	33.4600	0	26.228	0	149.987	0	186.6	4	62.7	4	-1E+10	1	-1E+10	1	-1E+10	1	-1E+10	1	-1E+10	1	-1E+10	1
4902551	113	C	10/01/2023	21:08	-131.046	47.179	0	152.30	0	6.8480	0	33.4600	0	26.228	0	150.978	0	185.6	4	62.3	4	-1E+10	1	-1E+10	1	-1E+10	1	-1E+10	1	-1E+10	1	-1E+10	1
4902551	113	C	10/01/2023	21:08	-131.046	47.179	0	153.20	0	6.8450	0	33.4670	0	26.234	0	151.870	0	184.3	4	61.9	4	-1E+10	1	-1E+10	1	-1E+10	1	-1E+10	1	-1E+10	1	-1E+10	1
4902551	113	C	10/01/2023	21:08	-131.046	47.179	0	154.10	0	6.8470	0	33.4760	0	26.241	0	152.761	0	183.1	4	61.5	4	-1E+10	1	-1E+10	1	-1E+10	1	-1E+10	1	-1E+10	1	-1E+10	1
4902551	113	C	10/01/2023	21:08	-131.046	47.179	0	155.00	0	6.8460	0	33.4900	0	26.252	0	153.653	0	181.8	4	61.1	4	-1E+10	1	-1E+10	1	-1E+10	1	-1E+10	1	-1E+10	1	-1E+10	1
4902551	113	C	10/01/2023	21:08	-131.046	47.179	0	156.00	0	6.8410	0	33.5190	0	26.276	0	154.644	0	180.4	4	60.6	4	-1E+10	1	-1E+10	1	-1E+10	1	-1E+10	1	-1E+10	1	-1E+10	1
4902551	113	C	10/01/2023	21:08	-131.046	47.179	0	157.00	0	6.8460	0	33.5330	0	26.286	0	155.635	0	179.6	4	60.3	4	-1E+10	1	-1E+10	1	-1E+10	1	-1E+10	1	-1E+10	1	-1E+10	1
4902551	113	C	10/01/2023	21:08	-131.046	47.179	0	158.20	0	6.8400	0	33.5460	0	26.297	0	156.824	0	178.7	4	60.0	4	-1E+10	1	-1E+10	1	-1E+10	1	-1E+10	1	-1E+10	1	-1E+10	1
4902551	113	C	10/01/2023	21:08	-131.046	47.179	0	158.90	0	6.8410	0	33.5530	0	26.303	0	157.518	0	178.2	4	59.9	4	-1E+10	1	-1E+10	1	-1E+10	1	-1E+10	1	-1E+10	1	-1E+10	1
4902551	113	C	10/01/2023	21:08	-131.046	47.179	0	160.00	0	6.8440	0	33.5630	0	26.310	0	158.608	0	177.6	4	59.7	4	-1E+10	1	-1E+10	1	-1E+10	1	-1E+10	1	-1E+10	1	-1E+10	1
4902551	113	C	10/01/2023	21:08	-131.046	47.179	0	161.10	0	6.8470	0	33.5660	0	26.312	0	159.698	0	177.1	4	59.5	4	-1E+10	1	-1E+10	1	-1E+10	1	-1E+10	1	-1E+10	1	-1E+10	1
4902551	113	C	10/01/2023	21:08	-131.046	47.179	0	161.90	0	6.8470	0	33.5690	0	26.314	0	160.491	0	176.6	4	59.4	4	-1E+10	1	-1E+10	1	-1E+10	1	-1E+10	1	-1E+10	1	-1E+10	1
4902551	113	C	10/01/2023	21:08	-131.046	47.179	0	163.00	0	6.8400	0	33.5830	0	26.326	0	161.581	0	175.9	4	59.1	4	-1E+10	1	-1E+10	1	-1E+10	1	-1E+10	1	-1E+10	1	-1E+10	1
4902551	113	C	10/01/2023	21:08	-131.046	47.179	0	164.20	0	6.8350	0	33.5990	0	26.340	0	162.770	0	175.1	4	58.8	4	-1E+10	1	-1E+10	1	-1E+10	1	-1E+10	1	-1E+10	1	-1E+10	1
4902551	113	C	10/01/2023	21:08	-131.046	47.179	0	164.90	0	6.8300	0	33.6100	0	26.349	0	163.463	0	174.4	4	58.6	4	-1E+10	1	-1E+10	1	-1E+10	1	-1E+10	1	-1E+10	1	-1E+10	1
4902551	113	C	10/01/2023	21:08	-131.046	47.179	0	165.70	0	6.8290	0	33.6210	0	26.358	0	164.256	0	173.8	4	58.4	4	-1E+10	1	-1E+10	1	-1E+10	1	-1E+10	1	-1E+10	1	-1E+10	1
4902551	113	C	10/01/2023	21:08	-131.046	47.179	0	166.90	0	6.8280	0	33.6240	0	26.360	0	165.445	0	173.2	4	58.2	4	-1E+10	1	-1E+10	1	-1E+10	1	-1E+10	1	-1E+10	1	-1E+10	1
4902551	113	C	10/01/2023	21:08	-131.046	47.179	0	168.10	0	6.8270	0	33.6270	0	26.363	0	166.634	0	172.3	4	57.9	4	-1E+10	1	-1E+10	1	-1E+10	1	-1E+10	1	-1E+10	1	-1E+10	1
4902551	113	C	10/01/2023	21:08	-131.046	47.179	0	168.90	0	6.8280	0	33.6290	0	26.364	0	167.427	0	171.8	4	57.7	4	-1E+10	1	-1E+10	1	-1E+10	1	-1E+10	1	-1E+10	1	-1E+10	1
4902551	113	C	10/01/2023	21:08	-131.046	47.179	0	169.70	0	6.8310	0	33.6340	0	26.368	0	168.220	0	171.2	4	57.5	4	-1E+10	1	-1E+10	1	-1E+10	1	-1E+10	1	-1E+10	1	-1E+10	1
4902551	113	C	10/01/2023	21:08	-131.046	47.179	0	170.90	0	6.8290	0	33.6370	0	26.371	0	169.409	0	170.5	4	57.3	4	-1E+10	1	-1E+10	1	-1E+10	1	-1E+10	1	-1E+10	1	-1E+10	1
4902551	113	C	10/01/2023	21:08	-131.046	47.179	0	172.20	0	6.8250	0	33.6410	0	26.374	0	170.697	0	169.7	4	57.0	4	-1E+10	1	-1E+10	1	-1E+10	1	-1E+10	1	-1E+10	1	-1E+10	1
4902551	113	C	10/01/2023	21:08	-131.046	47.179	0	173.00	0	6.8240	0	33.6430	0	26.376	0	171.489	0	169.2	4	56.9	4	-1E+10	1	-1E+10	1	-1E+10	1	-1E+10	1	-1E+10	1	-1E+10	1
4902551	113	C	10/01/2023	21:08	-131.046	47.179	0	173.90	0	6.8340	0	33.6460	0	26.377	0	172.381	0	168.8	4	56.7	4	-1E+10	1	-1E+10	1	-1E+10	1	-1E+10	1	-1E+10	1	-1E+10	1
4902551	113	C	10/01/2023	21:08	-131.046	47.179	0	174.70	0	6.8500	0	33.6630	0	26.388	0	173.174	0	168.7	4	56.7	4	-1E+10	1	-1E+10	1	-1E+10	1	-1E+10	1	-1E+10	1	-1E+10	1
4902551	113	C	10/01/2023	21:08	-131.046	47.179	0	176.00	0	6.8320	0	33.6720	0	26.398	0	174.462	0	168.9	4	56.8	4	-1E+10	1	-1E+10	1	-1E+10	1	-1E+10	1	-1E+10	1	-1E+10	1
4902551	113	C	10/01/2023	21:08	-131.046	47.179	0	177.30	0	6.7790	0	33.6780	0	26.410	0	175.750	0	168.7	4	56.6	4	-1E+10	1	-1E+10	1	-1E+10	1	-1E+10	1	-1E+10	1	-1E+10	1
4902551	113	C	10/01/2023	21:08	-131.046	47.179	0	178.20	0	6.7450	0	33.6850	0	26.420	0	176.642	0	168.1	4	56.4	4	-1E+10	1	-1E+10	1	-1E+10	1	-1E+10	1	-1E+10	1	-1E+10	1
4902551	113	C	10/01/2023	21:08	-131.046	47.179	0	179.10	0	6.7200	0	33.6900	0	26.427	0	177.533	0	167.4	4	56.1	4	-1E+10	1	-1E+10	1	-1E+10	1	-1E+10	1	-1E+10	1	-1E+10	1
4902551	113	C	10/01/2023	21:08	-131.046	47.179	0	180.00	0	6.7100	0	33.6950	0	26.432	0	178.425	0	166.4	4	55.8	4	-1E+10	1	-1E+10	1	-1E+10	1	-1E+10	1	-1E+10	1	-1E+10	1
4902551	113	C	10/01/2023	21:08	-131.046	47.179	0	180.90	0	6.7070	0	33.6980	0	26.435	0	179.317	0	165.5	4	55.5	4	-1E+10	1	-1E+10	1	-1E+10	1	-1E+10	1	-1E+10	1	-1E+10	1
4902551	113	C	10/01/2023	21:08	-131.046	47.179	0	181.90	0	6.6990	0	33.7040	0	26.441	0	180.308	0	164.6	4	55.2	4	-1E+10	1	-1E+10	1	-1E+10	1	-1E+10	1	-1E+10	1	-1E+10	1
4902551	113	C	10/01/2023	21:08	-131.046	47.179	0	182.80	0	6.6970	0	33.7070	0	26.443	0	181.199	0	163.7	4	54.9	4	-1E+10	1	-1E+10	1	-1E+10	1	-1E+10	1	-1E+10	1	-1E+10	1
4902551	113	C	10/01/2023	21:08	-131.046	47.179	0	183.70	0	6.6890	0	33.7130	0	26.449	0	182.091	0	162.7	4	54.5	4	-1E+10	1	-1E+10	1	-1E+10	1	-1E+10	1	-1E+10	1	-1E+10	1
4902551	113	C	10/01/2023	21:08	-131.046	47.179	0	184.70	0	6.6820	0	33.7160	0	26.453	0	183.082	0	161.9	4	54.2	4	-1E+10	1	-1E+10	1	-1E+10	1	-1E+10	1	-1E+10	1	-1E+10	1
4902551	113	C	10/01/2023	21:08	-131.046	47.179	0	185.60	0	6.7060	0	33.7250	0	26.456	0	183.974	0	161.3	4	54.1	4	-1E+10	1	-1E+10	1	-1E+10	1	-1E+10	1	-1E+10	1	-1E+10	1
4902551	113	C	10/01/2023	21:08	-131.046	47.179	0	186.60	0	6.7300	0	33.7270	0	26.455	0	184.965	0	160.8	4	54.0	4	-1E+10	1	-1E+10	1	-1E+10	1	-1E+10	1	-1E+10	1	-1E+10	1
4902551	113	C	10/01/2023	21:08	-131.046	47.179	0	187.50	0	6.7130	0	33.7350	0	26.463	0	185.856	0	160.8	4	53.9	4	-1E+10	1	-1E+10	1	-1E+10	1	-1E+10	1	-1E+10	1	-1E+10	1
4902551	113	C	10/01/2023	21:08	-131.046	47.179	0	188.50	0	6.6510	0	33.7390	0	26.475	0	186.847	0	160.4	4	53.7	4	-1E+10	1	-1E+10	1	-1E+10	1	-1E+10	1	-1E+10	1	-1E+10	1
4902551	113	C	10/01/2023	21:08	-131.046	47.179	0	189.50	0	6.6160	0	33.7450	0	26.484	0	187.838	0	160.1	4	53.6	4	-1E+10	1	-1E+10	1	-1E+10	1	-1E+10	1	-1E+10	1	-1E+10	1
4902551	113	C	10/01/2023	21:08	-131.046	47.179	0	190.90	0	6.6090	0	33.7480	0	26.487	0	189.225	0	159.7	4	53.4	4	-1E+10	1	-1E+10	1	-1E+10	1	-1E+10	1	-1E+10	1	-1E+10	1
4902551	113	C	10/01/2023	21:08	-131.046	47.179	0	192.40	0	6.5870	0	33.7470	0	26.490	0	190.711	0	159.0	4	53.2	4	-1E+10	1	-1E+10	1	-1E+10	1	-1E+10	1	-1E+10	1	-1E+10	1
4902551	113	C	10/01/2023	21:08	-131.046	47.179	0	193.30	0	6.5870	0	33.7460	0	26.489	0	191.603	0	158.4	4	53.0	4	-1E+10	1	-1E+10	1	-1E+10	1	-1E+10	1	-1E+10	1	-1E+10	1
4902551	113	C	10/01/2023	21:08	-131.046	47.179	0	194.20	0	6.5770	0	33.7520	0	26.495	0	192.494	0	157.8	4	52.8	4	-1E+10	1	-1E+10	1	-1E+10	1	-1E+10	1	-1E+10	1	-1E+10	1
4902551	113	C	10/01/2023	21:08	-131.046	47.179	0	195.20	0	6.5620	0	33.7560	0	26.500	0	193.485	0	157.1	4	52.5	4	-1E+10	1	-1E+10	1	-1E+10	1	-1E+10	1	-1E+10	1	-1E+10	1
4902551	113	C	10/01/2023	21:08	-131.046	47.179	0	196.20	0	6.5320	0	33.7570	0	26.505	0	194.476	0	156.6	4	52.3	4	-1E+10	1	-1E+10	1	-1E+10	1	-1E+10	1	-1E+10	1	-1E+10	1
4902551	113	C	10/01/2023	21:08	-131.046	47.179	0	197.10	0	6.5080	0	33.7580	0	26.509	0	195.368	0	156.1	4	52.1	4	-1E+10	1	-1E+10	1	-1E+10	1	-1E+10	1	-1E+10	1	-1E+10	1
4902551	113	C	10/01/2023	21:08	-131.046	47.179	0	198.20	0	6.4980	0	33.7610	0	26.512	0	196.457	0	155.7	4	52.0	4	-1E+10	1	-1E+10	1	-1E+10	1	-1E+10	1	-1E+10	1	-1E+10	1
4902551	113	C	10/01/2023	21:08	-131.046	47.179	0	199.20	0	6.4850	0	33.7640	0	26.516	0	197.448	0	155.3	4	51.8	4	-1E+10	1	-1E+10	1	-1E+10	1	-1E+10	1	-1E+10	1	-1E+10	1
4902551	113	C	10/01/2023	21:08	-131.046	47.179	0	200.10	0	6.4830	0	33.7640	0	26.517	0	198.340	0	154.9	4	51.7	4	-1E+10	1	-1E+10	1	-1E+10	1	-1E+10	1	-1E+10	1	-1E+10	1
4902551	113	C	10/01/2023	21:08	-131.046	47.179	0	201.20	0	6.4820	0	33.7660	0	26.518	0	199.430	0	154.4	4	51.5	4	-1E+10	1	-1E+10	1	-1E+10	1	-1E+10	1	-1E+10	1	-1E+10	1
4902551	113	C	10/01/2023	21:08	-131.046	47.179	0	202.10	0	6.4790	0	33.7660	0	26.519	0	200.321	0	154.1	4	51.4	4	-1E+10	1	-1E+10	1	-1E+10	1	-1E+10	1	-1E+10	1	-1E+10	1
4902551	113	C	10/01/2023	21:08	-131.046	47.179	0	203.10	0	6.4810	0	33.7670	0	26.519	0	201.312	0	153.7	4	51.3	4	-1E+10	1	-1E+10	1	-1E+10	1	-1E+10	1	-1E+10	1	-1E+10	1
4902551	113	C	10/01/2023	21:08	-131.046	47.179	0	204.10	0	6.4760	0	33.7680	0	26.521	0	202.303	0	153.4	4	51.2	4	-1E+10	1	-1E+10	1	-1E+10	1	-1E+10	1	-1E+10	1	-1E+10	1
4902551	113	C	10/01/2023	21:08	-131.046	47.179	0	205.10	0	6.4530	0	33.7710	0	26.526	0	203.293	0	153.1	4	51.1	4	-1E+10	1	-1E+10	1	-1E+10	1	-1E+10	1	-1E+10	1	-1E+10	1
4902551	113	C	10/01/2023	21:08	-131.046	47.179	0	206.10	0	6.4410	0	33.7710	0	26.528	0	204.284	0	152.8	4	50.9	4	-1E+10	1	-1E+10	1	-1E+10	1	-1E+10	1	-1E+10	1	-1E+10	1
4902551	113	C	10/01/2023	21:08	-131.046	47.179	0	207.10	0	6.4320	0	33.7700	0	26.528	0	205.275	0	152.5	4	50.8	4	-1E+10	1	-1E+10	1	-1E+10	1	-1E+10	1	-1E+10	1	-1E+10	1
4902551	113	C	10/01/2023	21:08	-131.046	47.179	0	208.00	0	6.4230	0	33.7700	0	26.529	0	206.166	0	152.1	4	50.7	4	-1E+10	1	-1E+10	1	-1E+10	1	-1E+10	1	-1E+10	1	-1E+10	1
4902551	113	C	10/01/2023	21:08	-131.046	47.179	0	209.00	0	6.4100	0	33.7700	0	26.531	0	207.157	0	151.7	4	50.5	4	-1E+10	1	-1E+10	1	-1E+10	1	-1E+10	1	-1E+10	1	-1E+10	1
4902551	113	C	10/01/2023	21:08	-131.046	47.179	0	210.00	0	6.4070	0	33.7710	0	26.532	0	208.148	0	151.1	4	50.4	4	-1E+10	1	-1E+10	1	-1E+10	1	-1E+10	1	-1E+10	1	-1E+10	1
4902551	113	C	10/01/2023	21:08	-131.046	47.179	0	211.00	0	6.4040	0	33.7700	0	26.532	0	209.138	0	150.6	4	50.2	4	-1E+10	1	-1E+10	1	-1E+10	1	-1E+10	1	-1E+10	1	-1E+10	1
4902551	113	C	10/01/2023	21:08	-131.046	47.179	0	212.00	0	6.3980	0	33.7720	0	26.534	0	210.129	0	150.2	4	50.0	4	-1E+10	1	-1E+10	1	-1E+10	1	-1E+10	1	-1E+10	1	-1E+10	1
4902551	113	C	10/01/2023	21:08	-131.046	47.179	0	212.90	0	6.3740	0	33.7740	0	26.539	0	211.021	0	149.8	4	49.9	4	-1E+10	1	-1E+10	1	-1E+10	1	-1E+10	1	-1E+10	1	-1E+10	1
4902551	113	C	10/01/2023	21:08	-131.046	47.179	0	213.90	0	6.3710	0	33.7740	0	26.539	0	212.011	0	149.2	4	49.7	4	-1E+10	1	-1E+10	1	-1E+10	1	-1E+10	1	-1E+10	1	-1E+10	1
4902551	113	C	10/01/2023	21:08	-131.046	47.179	0	214.80	0	6.3710	0	33.7750	0	26.540	0	212.903	0	148.8	4	49.5	4	-1E+10	1	-1E+10	1	-1E+10	1	-1E+10	1	-1E+10	1	-1E+10	1
4902551	113	C	10/01/2023	21:08	-131.046	47.179	0	215.80	0	6.3710	0	33.7760	0	26.541	0	213.893	0	148.2	4	49.3	4	-1E+10	1	-1E+10	1	-1E+10	1	-1E+10	1	-1E+10	1	-1E+10	1
4902551	113	C	10/01/2023	21:08	-131.046	47.179	0	216.70	0	6.3610	0	33.7780	0	26.544	0	214.785	0	147.7	4	49.2	4	-1E+10	1	-1E+10	1	-1E+10	1	-1E+10	1	-1E+10	1	-1E+10	1
4902551	113	C	10/01/2023	21:08	-131.046	47.179	0	217.70	0	6.3460	0	33.7800	0	26.547	0	215.776	0	147.2	4	49.0	4	-1E+10	1	-1E+10	1	-1E+10	1	-1E+10	1	-1E+10	1	-1E+10	1
4902551	113	C	10/01/2023	21:08	-131.046	47.179	0	218.70	0	6.3440	0	33.7800	0	26.548	0	216.766	0	146.7	4	48.8	4	-1E+10	1	-1E+10	1	-1E+10	1	-1E+10	1	-1E+10	1	-1E+10	1
4902551	113	C	10/01/2023	21:08	-131.046	47.179	0	219.60	0	6.3420	0	33.7800	0	26.548	0	217.658	0	146.3	4	48.7	4	-1E+10	1	-1E+10	1	-1E+10	1	-1E+10	1	-1E+10	1	-1E+10	1
4902551	113	C	10/01/2023	21:08	-131.046	47.179	0	220.50	0	6.3370	0	33.7810	0	26.549	0	218.549	0	145.7	4	48.5	4	-1E+10	1	-1E+10	1	-1E+10	1	-1E+10	1	-1E+10	1	-1E+10	1
4902551	113	C	10/01/2023	21:08	-131.046	47.179	0	221.90	0	6.3280	0	33.7820	0	26.551	0	219.936	0	144.8	4	48.2	4	-1E+10	1	-1E+10	1	-1E+10	1	-1E+10	1	-1E+10	1	-1E+10	1
4902551	113	C	10/01/2023	21:08	-131.046	47.179	0	223.30	0	6.3260	0	33.7810	0	26.551	0	221.323	0	143.8	4	47.8	4	-1E+10	1	-1E+10	1	-1E+10	1	-1E+10	1	-1E+10	1	-1E+10	1
4902551	113	C	10/01/2023	21:08	-131.046	47.179	0	224.20	0	6.3250	0	33.7810	0	26.551	0	222.215	0	143.0	4	47.6	4	-1E+10	1	-1E+10	1	-1E+10	1	-1E+10	1	-1E+10	1	-1E+10	1
4902551	113	C	10/01/2023	21:08	-131.046	47.179	0	225.10	0	6.3200	0	33.7820	0	26.552	0	223.106	0	142.1	4	47.3	4	-1E+10	1	-1E+10	1	-1E+10	1	-1E+10	1	-1E+10	1	-1E+10	1
4902551	113	C	10/01/2023	21:08	-131.046	47.179	0	226.10	0	6.2990	0	33.7840	0	26.557	0	224.097	0	141.2	4	46.9	4	-1E+10	1	-1E+10	1	-1E+10	1	-1E+10	1	-1E+10	1	-1E+10	1
4902551	113	C	10/01/2023	21:08	-131.046	47.179	0	227.00	0	6.2960	0	33.7820	0	26.555	0	224.988	0	140.2	4	46.6	4	-1E+10	1	-1E+10	1	-1E+10	1	-1E+10	1	-1E+10	1	-1E+10	1
4902551	113	C	10/01/2023	21:08	-131.046	47.179	0	227.90	0	6.2890	0	33.7900	0	26.563	0	225.880	0	139.3	4	46.3	4	-1E+10	1	-1E+10	1	-1E+10	1	-1E+10	1	-1E+10	1	-1E+10	1
4902551	113	C	10/01/2023	21:08	-131.046	47.179	0	228.80	0	6.2640	0	33.7880	0	26.564	0	226.772	0	138.4	4	46.0	4	-1E+10	1	-1E+10	1	-1E+10	1	-1E+10	1	-1E+10	1	-1E+10	1
4902551	113	C	10/01/2023	21:08	-131.046	47.179	0	229.70	0	6.2290	0	33.7930	0	26.573	0	227.663	0	137.8	4	45.7	4	-1E+10	1	-1E+10	1	-1E+10	1	-1E+10	1	-1E+10	1	-1E+10	1
4902551	113	C	10/01/2023	21:08	-131.046	47.179	0	230.60	0	6.2290	0	33.7940	0	26.573	0	228.555	0	137.2	4	45.5	4	-1E+10	1	-1E+10	1	-1E+10	1	-1E+10	1	-1E+10	1	-1E+10	1
4902551	113	C	10/01/2023	21:08	-131.046	47.179	0	231.90	0	6.2290	0	33.7950	0	26.574	0	229.842	0	136.1	4	45.2	4	-1E+10	1	-1E+10	1	-1E+10	1	-1E+10	1	-1E+10	1	-1E+10	1
4902551	113	C	10/01/2023	21:08	-131.046	47.179	0	233.30	0	6.2250	0	33.7950	0	26.575	0	231.229	0	134.9	4	44.8	4	-1E+10	1	-1E+10	1	-1E+10	1	-1E+10	1	-1E+10	1	-1E+10	1
4902551	113	C	10/01/2023	21:08	-131.046	47.179	0	234.20	0	6.2070	0	33.8000	0	26.581	0	232.121	0	134.2	4	44.5	4	-1E+10	1	-1E+10	1	-1E+10	1	-1E+10	1	-1E+10	1	-1E+10	1
4902551	113	C	10/01/2023	21:08	-131.046	47.179	0	235.10	0	6.1920	0	33.8010	0	26.584	0	233.012	0	133.7	4	44.3	4	-1E+10	1	-1E+10	1	-1E+10	1	-1E+10	1	-1E+10	1	-1E+10	1
4902551	113	C	10/01/2023	21:08	-131.046	47.179	0	235.90	0	6.1840	0	33.8000	0	26.584	0	233.805	0	133.1	4	44.1	4	-1E+10	1	-1E+10	1	-1E+10	1	-1E+10	1	-1E+10	1	-1E+10	1
4902551	113	C	10/01/2023	21:08	-131.046	47.179	0	236.80	0	6.1790	0	33.8010	0	26.585	0	234.696	0	132.3	4	43.8	4	-1E+10	1	-1E+10	1	-1E+10	1	-1E+10	1	-1E+10	1	-1E+10	1
4902551	113	C	10/01/2023	21:08	-131.046	47.179	0	237.70	0	6.1770	0	33.8000	0	26.585	0	235.588	0	131.5	4	43.6	4	-1E+10	1	-1E+10	1	-1E+10	1	-1E+10	1	-1E+10	1	-1E+10	1
4902551	113	C	10/01/2023	21:08	-131.046	47.179	0	238.60	0	6.1680	0	33.8010	0	26.587	0	236.479	0	130.5	4	43.3	4	-1E+10	1	-1E+10	1	-1E+10	1	-1E+10	1	-1E+10	1	-1E+10	1
4902551	113	C	10/01/2023	21:08	-131.046	47.179	0	239.90	0	6.1600	0	33.8010	0	26.588	0	237.767	0	129.1	4	42.8	4	-1E+10	1	-1E+10	1	-1E+10	1	-1E+10	1	-1E+10	1	-1E+10	1
4902551	113	C	10/01/2023	21:08	-131.046	47.179	0	241.30	0	6.1340	0	33.8050	0	26.594	0	239.153	0	127.9	4	42.3	4	-1E+10	1	-1E+10	1	-1E+10	1	-1E+10	1	-1E+10	1	-1E+10	1
4902551	113	C	10/01/2023	21:08	-131.046	47.179	0	242.20	0	6.1320	0	33.8080	0	26.597	0	240.045	0	127.1	4	42.1	4	-1E+10	1	-1E+10	1	-1E+10	1	-1E+10	1	-1E+10	1	-1E+10	1
4902551	113	C	10/01/2023	21:08	-131.046	47.179	0	243.10	0	6.1170	0	33.8120	0	26.602	0	240.936	0	126.4	4	41.9	4	-1E+10	1	-1E+10	1	-1E+10	1	-1E+10	1	-1E+10	1	-1E+10	1
4902551	113	C	10/01/2023	21:08	-131.046	47.179	0	244.00	0	6.1120	0	33.8110	0	26.602	0	241.828	0	125.8	4	41.6	4	-1E+10	1	-1E+10	1	-1E+10	1	-1E+10	1	-1E+10	1	-1E+10	1
4902551	113	C	10/01/2023	21:08	-131.046	47.179	0	244.90	0	6.0450	0	33.8140	0	26.613	0	242.719	0	125.3	4	41.4	4	-1E+10	1	-1E+10	1	-1E+10	1	-1E+10	1	-1E+10	1	-1E+10	1
4902551	113	C	10/01/2023	21:08	-131.046	47.179	0	245.80	0	6.0390	0	33.8140	0	26.613	0	243.611	0	124.8	4	41.2	4	-1E+10	1	-1E+10	1	-1E+10	1	-1E+10	1	-1E+10	1	-1E+10	1
4902551	113	C	10/01/2023	21:08	-131.046	47.179	0	246.70	0	6.0340	0	33.8160	0	26.616	0	244.502	0	124.2	4	41.0	4	-1E+10	1	-1E+10	1	-1E+10	1	-1E+10	1	-1E+10	1	-1E+10	1
4902551	113	C	10/01/2023	21:08	-131.046	47.179	0	247.60	0	6.0260	0	33.8160	0	26.617	0	245.394	0	123.7	4	40.9	4	-1E+10	1	-1E+10	1	-1E+10	1	-1E+10	1	-1E+10	1	-1E+10	1
4902551	113	C	10/01/2023	21:08	-131.046	47.179	0	248.90	0	6.0030	0	33.8150	0	26.619	0	246.681	0	122.8	4	40.5	4	-1E+10	1	-1E+10	1	-1E+10	1	-1E+10	1	-1E+10	1	-1E+10	1
4902551	113	C	10/01/2023	21:08	-131.046	47.179	0	250.30	0	5.9610	0	33.8120	0	26.622	0	248.068	0	121.7	4	40.1	4	-1E+10	1	-1E+10	1	-1E+10	1	-1E+10	1	-1E+10	1	-1E+10	1
4902551	113	C	10/01/2023	21:08	-131.046	47.179	0	251.20	0	5.9490	0	33.8130	0	26.624	0	248.959	0	120.9	4	39.9	4	-1E+10	1	-1E+10	1	-1E+10	1	-1E+10	1	-1E+10	1	-1E+10	1
4902551	113	C	10/01/2023	21:08	-131.046	47.179	0	252.10	0	5.9350	0	33.8130	0	26.626	0	249.851	0	120.2	4	39.6	4	-1E+10	1	-1E+10	1	-1E+10	1	-1E+10	1	-1E+10	1	-1E+10	1
4902551	113	C	10/01/2023	21:08	-131.046	47.179	0	253.00	0	5.9160	0	33.8150	0	26.630	0	250.742	0	119.3	4	39.3	4	-1E+10	1	-1E+10	1	-1E+10	1	-1E+10	1	-1E+10	1	-1E+10	1
4902551	113	C	10/01/2023	21:08	-131.046	47.179	0	253.90	0	5.8880	0	33.8170	0	26.635	0	251.634	0	118.6	4	39.1	4	-1E+10	1	-1E+10	1	-1E+10	1	-1E+10	1	-1E+10	1	-1E+10	1
4902551	113	C	10/01/2023	21:08	-131.046	47.179	0	254.80	0	5.8920	0	33.8240	0	26.640	0	252.525	0	118.1	4	38.9	4	-1E+10	1	-1E+10	1	-1E+10	1	-1E+10	1	-1E+10	1	-1E+10	1
4902551	113	C	10/01/2023	21:08	-131.046	47.179	0	255.70	0	5.8900	0	33.8260	0	26.642	0	253.417	0	117.5	4	38.7	4	-1E+10	1	-1E+10	1	-1E+10	1	-1E+10	1	-1E+10	1	-1E+10	1
4902551	113	C	10/01/2023	21:08	-131.046	47.179	0	256.70	0	5.8850	0	33.8280	0	26.644	0	254.407	0	117.0	4	38.5	4	-1E+10	1	-1E+10	1	-1E+10	1	-1E+10	1	-1E+10	1	-1E+10	1
4902551	113	C	10/01/2023	21:08	-131.046	47.179	0	257.60	0	5.8750	0	33.8290	0	26.646	0	255.298	0	116.6	4	38.4	4	-1E+10	1	-1E+10	1	-1E+10	1	-1E+10	1	-1E+10	1	-1E+10	1
4902551	113	C	10/01/2023	21:08	-131.046	47.179	0	258.60	0	5.8560	0	33.8300	0	26.649	0	256.289	0	116.1	4	38.2	4	-1E+10	1	-1E+10	1	-1E+10	1	-1E+10	1	-1E+10	1	-1E+10	1
4902551	113	C	10/01/2023	21:08	-131.046	47.179	0	259.50	0	5.8490	0	33.8310	0	26.651	0	257.180	0	115.7	4	38.1	4	-1E+10	1	-1E+10	1	-1E+10	1	-1E+10	1	-1E+10	1	-1E+10	1
4902551	113	C	10/01/2023	21:08	-131.046	47.179	0	260.90	0	5.8110	0	33.8290	0	26.654	0	258.567	0	115.0	4	37.8	4	-1E+10	1	-1E+10	1	-1E+10	1	-1E+10	1	-1E+10	1	-1E+10	1
4902551	113	C	10/01/2023	21:08	-131.046	47.179	0	262.40	0	5.8150	0	33.8270	0	26.652	0	260.053	0	114.3	4	37.6	4	-1E+10	1	-1E+10	1	-1E+10	1	-1E+10	1	-1E+10	1	-1E+10	1
4902551	113	C	10/01/2023	21:08	-131.046	47.179	0	263.30	0	5.7950	0	33.8320	0	26.658	0	260.944	0	113.9	4	37.4	4	-1E+10	1	-1E+10	1	-1E+10	1	-1E+10	1	-1E+10	1	-1E+10	1
4902551	113	C	10/01/2023	21:08	-131.046	47.179	0	264.30	0	5.7820	0	33.8310	0	26.659	0	261.934	0	113.5	4	37.3	4	-1E+10	1	-1E+10	1	-1E+10	1	-1E+10	1	-1E+10	1	-1E+10	1
4902551	113	C	10/01/2023	21:08	-131.046	47.179	0	265.20	0	5.7640	0	33.8310	0	26.661	0	262.826	0	113.1	4	37.1	4	-1E+10	1	-1E+10	1	-1E+10	1	-1E+10	1	-1E+10	1	-1E+10	1
4902551	113	C	10/01/2023	21:08	-131.046	47.179	0	266.20	0	5.7600	0	33.8290	0	26.660	0	263.816	0	112.7	4	37.0	4	-1E+10	1	-1E+10	1	-1E+10	1	-1E+10	1	-1E+10	1	-1E+10	1
4902551	113	C	10/01/2023	21:08	-131.046	47.179	0	267.10	0	5.7500	0	33.8290	0	26.661	0	264.707	0	112.2	4	36.8	4	-1E+10	1	-1E+10	1	-1E+10	1	-1E+10	1	-1E+10	1	-1E+10	1
4902551	113	C	10/01/2023	21:08	-131.046	47.179	0	268.10	0	5.6960	0	33.8260	0	26.665	0	265.698	0	111.7	4	36.6	4	-1E+10	1	-1E+10	1	-1E+10	1	-1E+10	1	-1E+10	1	-1E+10	1
4902551	113	C	10/01/2023	21:08	-131.046	47.179	0	269.10	0	5.6700	0	33.8280	0	26.670	0	266.688	0	111.2	4	36.4	4	-1E+10	1	-1E+10	1	-1E+10	1	-1E+10	1	-1E+10	1	-1E+10	1
4902551	113	C	10/01/2023	21:08	-131.046	47.179	0	270.10	0	5.6420	0	33.8270	0	26.673	0	267.679	0	110.8	4	36.3	4	-1E+10	1	-1E+10	1	-1E+10	1	-1E+10	1	-1E+10	1	-1E+10	1
4902551	113	C	10/01/2023	21:08	-131.046	47.179	0	271.00	0	5.6350	0	33.8280	0	26.674	0	268.570	0	110.3	4	36.1	4	-1E+10	1	-1E+10	1	-1E+10	1	-1E+10	1	-1E+10	1	-1E+10	1
4902551	113	C	10/01/2023	21:08	-131.046	47.179	0	272.00	0	5.6330	0	33.8270	0	26.674	0	269.560	0	109.8	4	36.0	4	-1E+10	1	-1E+10	1	-1E+10	1	-1E+10	1	-1E+10	1	-1E+10	1
4902551	113	C	10/01/2023	21:08	-131.046	47.179	0	273.00	0	5.6250	0	33.8280	0	26.676	0	270.551	0	109.2	4	35.8	4	-1E+10	1	-1E+10	1	-1E+10	1	-1E+10	1	-1E+10	1	-1E+10	1
4902551	113	C	10/01/2023	21:08	-131.046	47.179	0	273.90	0	5.6170	0	33.8270	0	26.676	0	271.442	0	108.7	4	35.6	4	-1E+10	1	-1E+10	1	-1E+10	1	-1E+10	1	-1E+10	1	-1E+10	1
4902551	113	C	10/01/2023	21:08	-131.046	47.179	0	274.90	0	5.6100	0	33.8300	0	26.679	0	272.432	0	108.0	4	35.3	4	-1E+10	1	-1E+10	1	-1E+10	1	-1E+10	1	-1E+10	1	-1E+10	1
4902551	113	C	10/01/2023	21:08	-131.046	47.179	0	275.90	0	5.5970	0	33.8300	0	26.681	0	273.423	0	107.3	4	35.1	4	-1E+10	1	-1E+10	1	-1E+10	1	-1E+10	1	-1E+10	1	-1E+10	1
4902551	113	C	10/01/2023	21:08	-131.046	47.179	0	276.90	0	5.5880	0	33.8320	0	26.683	0	274.413	0	106.7	4	34.9	4	-1E+10	1	-1E+10	1	-1E+10	1	-1E+10	1	-1E+10	1	-1E+10	1
4902551	113	C	10/01/2023	21:08	-131.046	47.179	0	277.90	0	5.5580	0	33.8330	0	26.688	0	275.404	0	106.2	4	34.7	4	-1E+10	1	-1E+10	1	-1E+10	1	-1E+10	1	-1E+10	1	-1E+10	1
4902551	113	C	10/01/2023	21:08	-131.046	47.179	0	278.90	0	5.5510	0	33.8320	0	26.688	0	276.394	0	105.6	4	34.5	4	-1E+10	1	-1E+10	1	-1E+10	1	-1E+10	1	-1E+10	1	-1E+10	1
4902551	113	C	10/01/2023	21:08	-131.046	47.179	0	279.90	0	5.5340	0	33.8340	0	26.691	0	277.384	0	104.9	4	34.3	4	-1E+10	1	-1E+10	1	-1E+10	1	-1E+10	1	-1E+10	1	-1E+10	1
4902551	113	C	10/01/2023	21:08	-131.046	47.179	0	280.80	0	5.5290	0	33.8340	0	26.692	0	278.276	0	104.2	4	34.0	4	-1E+10	1	-1E+10	1	-1E+10	1	-1E+10	1	-1E+10	1	-1E+10	1
4902551	113	C	10/01/2023	21:08	-131.046	47.179	0	281.80	0	5.5210	0	33.8350	0	26.694	0	279.266	0	103.5	4	33.8	4	-1E+10	1	-1E+10	1	-1E+10	1	-1E+10	1	-1E+10	1	-1E+10	1
4902551	113	C	10/01/2023	21:08	-131.046	47.179	0	282.90	0	5.5080	0	33.8360	0	26.696	0	280.355	0	102.8	4	33.6	4	-1E+10	1	-1E+10	1	-1E+10	1	-1E+10	1	-1E+10	1	-1E+10	1
4902551	113	C	10/01/2023	21:08	-131.046	47.179	0	283.90	0	5.5010	0	33.8370	0	26.698	0	281.346	0	102.1	4	33.3	4	-1E+10	1	-1E+10	1	-1E+10	1	-1E+10	1	-1E+10	1	-1E+10	1
4902551	113	C	10/01/2023	21:08	-131.046	47.179	0	284.90	0	5.4950	0	33.8380	0	26.699	0	282.336	0	101.4	4	33.1	4	-1E+10	1	-1E+10	1	-1E+10	1	-1E+10	1	-1E+10	1	-1E+10	1
4902551	113	C	10/01/2023	21:08	-131.046	47.179	0	285.90	0	5.4850	0	33.8450	0	26.706	0	283.326	0	100.6	4	32.8	4	-1E+10	1	-1E+10	1	-1E+10	1	-1E+10	1	-1E+10	1	-1E+10	1
4902551	113	C	10/01/2023	21:08	-131.046	47.179	0	286.90	0	5.4840	0	33.8440	0	26.705	0	284.317	0	100.0	4	32.6	4	-1E+10	1	-1E+10	1	-1E+10	1	-1E+10	1	-1E+10	1	-1E+10	1
4902551	113	C	10/01/2023	21:08	-131.046	47.179	0	288.00	0	5.4660	0	33.8470	0	26.710	0	285.406	0	99.3	4	32.4	4	-1E+10	1	-1E+10	1	-1E+10	1	-1E+10	1	-1E+10	1	-1E+10	1
4902551	113	C	10/01/2023	21:08	-131.046	47.179	0	289.00	0	5.4570	0	33.8460	0	26.710	0	286.396	0	98.7	4	32.2	4	-1E+10	1	-1E+10	1	-1E+10	1	-1E+10	1	-1E+10	1	-1E+10	1
4902551	113	C	10/01/2023	21:08	-131.046	47.179	0	290.00	0	5.4550	0	33.8470	0	26.711	0	287.386	0	98.0	4	32.0	4	-1E+10	1	-1E+10	1	-1E+10	1	-1E+10	1	-1E+10	1	-1E+10	1
4902551	113	C	10/01/2023	21:08	-131.046	47.179	0	291.00	0	5.4370	0	33.8520	0	26.717	0	288.377	0	97.4	4	31.8	4	-1E+10	1	-1E+10	1	-1E+10	1	-1E+10	1	-1E+10	1	-1E+10	1
4902551	113	C	10/01/2023	21:08	-131.046	47.179	0	292.10	0	5.4240	0	33.8510	0	26.718	0	289.466	0	96.9	4	31.6	4	-1E+10	1	-1E+10	1	-1E+10	1	-1E+10	1	-1E+10	1	-1E+10	1
4902551	113	C	10/01/2023	21:08	-131.046	47.179	0	293.10	0	5.4120	0	33.8520	0	26.720	0	290.456	0	96.4	4	31.4	4	-1E+10	1	-1E+10	1	-1E+10	1	-1E+10	1	-1E+10	1	-1E+10	1
4902551	113	C	10/01/2023	21:08	-131.046	47.179	0	294.10	0	5.3870	0	33.8560	0	26.726	0	291.447	0	96.0	4	31.2	4	-1E+10	1	-1E+10	1	-1E+10	1	-1E+10	1	-1E+10	1	-1E+10	1
4902551	113	C	10/01/2023	21:08	-131.046	47.179	0	295.20	0	5.3820	0	33.8570	0	26.728	0	292.536	0	95.6	4	31.1	4	-1E+10	1	-1E+10	1	-1E+10	1	-1E+10	1	-1E+10	1	-1E+10	1
4902551	113	C	10/01/2023	21:08	-131.046	47.179	0	296.20	0	5.3780	0	33.8580	0	26.729	0	293.526	0	95.3	4	31.0	4	-1E+10	1	-1E+10	1	-1E+10	1	-1E+10	1	-1E+10	1	-1E+10	1
4902551	113	C	10/01/2023	21:08	-131.046	47.179	0	297.30	0	5.3740	0	33.8590	0	26.730	0	294.615	0	94.8	4	30.9	4	-1E+10	1	-1E+10	1	-1E+10	1	-1E+10	1	-1E+10	1	-1E+10	1
4902551	113	C	10/01/2023	21:08	-131.046	47.179	0	298.30	0	5.3710	0	33.8580	0	26.730	0	295.606	0	94.4	4	30.7	4	-1E+10	1	-1E+10	1	-1E+10	1	-1E+10	1	-1E+10	1	-1E+10	1
4902551	113	C	10/01/2023	21:08	-131.046	47.179	0	299.30	0	5.3630	0	33.8580	0	26.731	0	296.596	0	93.9	4	30.6	4	-1E+10	1	-1E+10	1	-1E+10	1	-1E+10	1	-1E+10	1	-1E+10	1
4902551	113	C	10/01/2023	21:08	-131.046	47.179	0	300.40	0	5.3440	0	33.8620	0	26.736	0	297.685	0	93.5	4	30.4	4	-1E+10	1	-1E+10	1	-1E+10	1	-1E+10	1	-1E+10	1	-1E+10	1
4902551	113	C	10/01/2023	21:08	-131.046	47.179	0	301.40	0	5.3320	0	33.8620	0	26.738	0	298.675	0	93.2	4	30.3	4	-1E+10	1	-1E+10	1	-1E+10	1	-1E+10	1	-1E+10	1	-1E+10	1
4902551	113	C	10/01/2023	21:08	-131.046	47.179	0	302.50	0	5.3310	0	33.8620	0	26.738	0	299.765	0	92.8	4	30.2	4	-1E+10	1	-1E+10	1	-1E+10	1	-1E+10	1	-1E+10	1	-1E+10	1
4902551	113	C	10/01/2023	21:08	-131.046	47.179	0	303.50	0	5.3310	0	33.8620	0	26.738	0	300.755	0	92.3	4	30.0	4	-1E+10	1	-1E+10	1	-1E+10	1	-1E+10	1	-1E+10	1	-1E+10	1
4902551	113	C	10/01/2023	21:08	-131.046	47.179	0	304.50	0	5.3260	0	33.8620	0	26.738	0	301.745	0	91.9	4	29.9	4	-1E+10	1	-1E+10	1	-1E+10	1	-1E+10	1	-1E+10	1	-1E+10	1
4902551	113	C	10/01/2023	21:08	-131.046	47.179	0	305.60	0	5.3240	0	33.8620	0	26.739	0	302.834	0	91.4	4	29.7	4	-1E+10	1	-1E+10	1	-1E+10	1	-1E+10	1	-1E+10	1	-1E+10	1
4902551	113	C	10/01/2023	21:08	-131.046	47.179	0	306.70	0	5.3140	0	33.8630	0	26.741	0	303.924	0	90.9	4	29.5	4	-1E+10	1	-1E+10	1	-1E+10	1	-1E+10	1	-1E+10	1	-1E+10	1
4902551	113	C	10/01/2023	21:08	-131.046	47.179	0	307.70	0	5.2860	0	33.8640	0	26.745	0	304.914	0	90.5	4	29.4	4	-1E+10	1	-1E+10	1	-1E+10	1	-1E+10	1	-1E+10	1	-1E+10	1
4902551	113	C	10/01/2023	21:08	-131.046	47.179	0	308.80	0	5.2710	0	33.8650	0	26.747	0	306.003	0	90.1	4	29.3	4	-1E+10	1	-1E+10	1	-1E+10	1	-1E+10	1	-1E+10	1	-1E+10	1
4902551	113	C	10/01/2023	21:08	-131.046	47.179	0	309.80	0	5.2670	0	33.8660	0	26.748	0	306.993	0	89.7	4	29.1	4	-1E+10	1	-1E+10	1	-1E+10	1	-1E+10	1	-1E+10	1	-1E+10	1
4902551	113	C	10/01/2023	21:08	-131.046	47.179	0	310.80	0	5.2580	0	33.8660	0	26.749	0	307.984	0	89.3	4	29.0	4	-1E+10	1	-1E+10	1	-1E+10	1	-1E+10	1	-1E+10	1	-1E+10	1
4902551	113	C	10/01/2023	21:08	-131.046	47.179	0	311.80	0	5.2450	0	33.8680	0	26.753	0	308.974	0	88.9	4	28.9	4	-1E+10	1	-1E+10	1	-1E+10	1	-1E+10	1	-1E+10	1	-1E+10	1
4902551	113	C	10/01/2023	21:08	-131.046	47.179	0	312.90	0	5.2380	0	33.8690	0	26.754	0	310.063	0	88.5	4	28.7	4	-1E+10	1	-1E+10	1	-1E+10	1	-1E+10	1	-1E+10	1	-1E+10	1
4902551	113	C	10/01/2023	21:08	-131.046	47.179	0	313.70	0	5.2380	0	33.8680	0	26.753	0	310.855	0	88.2	4	28.6	4	-1E+10	1	-1E+10	1	-1E+10	1	-1E+10	1	-1E+10	1	-1E+10	1
4902551	113	C	10/01/2023	21:08	-131.046	47.179	0	314.90	0	5.2280	0	33.8710	0	26.757	0	312.043	0	87.7	4	28.5	4	-1E+10	1	-1E+10	1	-1E+10	1	-1E+10	1	-1E+10	1	-1E+10	1
4902551	113	C	10/01/2023	21:08	-131.046	47.179	0	316.10	0	5.2120	0	33.8720	0	26.760	0	313.231	0	87.3	4	28.3	4	-1E+10	1	-1E+10	1	-1E+10	1	-1E+10	1	-1E+10	1	-1E+10	1
4902551	113	C	10/01/2023	21:08	-131.046	47.179	0	316.90	0	5.2110	0	33.8720	0	26.760	0	314.024	0	87.1	4	28.2	4	-1E+10	1	-1E+10	1	-1E+10	1	-1E+10	1	-1E+10	1	-1E+10	1
4902551	113	C	10/01/2023	21:08	-131.046	47.179	0	317.70	0	5.2060	0	33.8700	0	26.759	0	314.816	0	86.8	4	28.1	4	-1E+10	1	-1E+10	1	-1E+10	1	-1E+10	1	-1E+10	1	-1E+10	1
4902551	113	C	10/01/2023	21:08	-131.046	47.179	0	318.90	0	5.1950	0	33.8740	0	26.763	0	316.004	0	86.4	4	28.0	4	-1E+10	1	-1E+10	1	-1E+10	1	-1E+10	1	-1E+10	1	-1E+10	1
4902551	113	C	10/01/2023	21:08	-131.046	47.179	0	320.00	0	5.1870	0	33.8750	0	26.765	0	317.093	0	86.0	4	27.9	4	-1E+10	1	-1E+10	1	-1E+10	1	-1E+10	1	-1E+10	1	-1E+10	1
4902551	113	C	10/01/2023	21:08	-131.046	47.179	0	320.80	0	5.1850	0	33.8750	0	26.765	0	317.885	0	85.8	4	27.8	4	-1E+10	1	-1E+10	1	-1E+10	1	-1E+10	1	-1E+10	1	-1E+10	1
4902551	113	C	10/01/2023	21:08	-131.046	47.179	0	322.00	0	5.1740	0	33.8760	0	26.767	0	319.073	0	85.4	4	27.7	4	-1E+10	1	-1E+10	1	-1E+10	1	-1E+10	1	-1E+10	1	-1E+10	1
4902551	113	C	10/01/2023	21:08	-131.046	47.179	0	323.20	0	5.1630	0	33.8770	0	26.769	0	320.262	0	85.1	4	27.6	4	-1E+10	1	-1E+10	1	-1E+10	1	-1E+10	1	-1E+10	1	-1E+10	1
4902551	113	C	10/01/2023	21:08	-131.046	47.179	0	324.00	0	5.1600	0	33.8770	0	26.770	0	321.054	0	84.9	4	27.5	4	-1E+10	1	-1E+10	1	-1E+10	1	-1E+10	1	-1E+10	1	-1E+10	1
4902551	113	C	10/01/2023	21:08	-131.046	47.179	0	324.90	0	5.1510	0	33.8790	0	26.772	0	321.945	0	84.7	4	27.4	4	-1E+10	1	-1E+10	1	-1E+10	1	-1E+10	1	-1E+10	1	-1E+10	1
4902551	113	C	10/01/2023	21:08	-131.046	47.179	0	326.00	0	5.1490	0	33.8780	0	26.772	0	323.034	0	84.4	4	27.3	4	-1E+10	1	-1E+10	1	-1E+10	1	-1E+10	1	-1E+10	1	-1E+10	1
4902551	113	C	10/01/2023	21:08	-131.046	47.179	0	327.20	0	5.1430	0	33.8780	0	26.772	0	324.222	0	84.1	4	27.2	4	-1E+10	1	-1E+10	1	-1E+10	1	-1E+10	1	-1E+10	1	-1E+10	1
4902551	113	C	10/01/2023	21:08	-131.046	47.179	0	328.00	0	5.1420	0	33.8780	0	26.773	0	325.014	0	83.9	4	27.2	4	-1E+10	1	-1E+10	1	-1E+10	1	-1E+10	1	-1E+10	1	-1E+10	1
4902551	113	C	10/01/2023	21:08	-131.046	47.179	0	328.80	0	5.1410	0	33.8790	0	26.773	0	325.806	0	83.7	4	27.1	4	-1E+10	1	-1E+10	1	-1E+10	1	-1E+10	1	-1E+10	1	-1E+10	1
4902551	113	C	10/01/2023	21:08	-131.046	47.179	0	330.00	0	5.1390	0	33.8770	0	26.772	0	326.994	0	83.2	4	26.9	4	-1E+10	1	-1E+10	1	-1E+10	1	-1E+10	1	-1E+10	1	-1E+10	1
4902551	113	C	10/01/2023	21:08	-131.046	47.179	0	331.20	0	5.1340	0	33.8790	0	26.774	0	328.183	0	82.7	4	26.8	4	-1E+10	1	-1E+10	1	-1E+10	1	-1E+10	1	-1E+10	1	-1E+10	1
4902551	113	C	10/01/2023	21:08	-131.046	47.179	0	332.00	0	5.1200	0	33.8870	0	26.782	0	328.975	0	82.3	4	26.6	4	-1E+10	1	-1E+10	1	-1E+10	1	-1E+10	1	-1E+10	1	-1E+10	1
4902551	113	C	10/01/2023	21:08	-131.046	47.179	0	332.80	0	5.1100	0	33.8790	0	26.777	0	329.767	0	82.0	4	26.5	4	-1E+10	1	-1E+10	1	-1E+10	1	-1E+10	1	-1E+10	1	-1E+10	1
4902551	113	C	10/01/2023	21:08	-131.046	47.179	0	334.00	0	5.0940	0	33.8790	0	26.779	0	330.955	0	81.5	4	26.4	4	-1E+10	1	-1E+10	1	-1E+10	1	-1E+10	1	-1E+10	1	-1E+10	1
4902551	113	C	10/01/2023	21:08	-131.046	47.179	0	335.20	0	5.0780	0	33.8790	0	26.781	0	332.143	0	81.0	4	26.2	4	-1E+10	1	-1E+10	1	-1E+10	1	-1E+10	1	-1E+10	1	-1E+10	1
4902551	113	C	10/01/2023	21:08	-131.046	47.179	0	336.00	0	5.0620	0	33.8780	0	26.782	0	332.935	0	80.6	4	26.0	4	-1E+10	1	-1E+10	1	-1E+10	1	-1E+10	1	-1E+10	1	-1E+10	1
4902551	113	C	10/01/2023	21:08	-131.046	47.179	0	336.80	0	5.0690	0	33.8790	0	26.782	0	333.727	0	80.2	4	25.9	4	-1E+10	1	-1E+10	1	-1E+10	1	-1E+10	1	-1E+10	1	-1E+10	1
4902551	113	C	10/01/2023	21:08	-131.046	47.179	0	337.60	0	5.0850	0	33.8790	0	26.780	0	334.519	0	79.9	4	25.8	4	-1E+10	1	-1E+10	1	-1E+10	1	-1E+10	1	-1E+10	1	-1E+10	1
4902551	113	C	10/01/2023	21:08	-131.046	47.179	0	338.90	0	5.0870	0	33.8890	0	26.788	0	335.806	0	79.5	4	25.7	4	-1E+10	1	-1E+10	1	-1E+10	1	-1E+10	1	-1E+10	1	-1E+10	1
4902551	113	C	10/01/2023	21:08	-131.046	47.179	0	340.10	0	5.0840	0	33.8900	0	26.789	0	336.994	0	79.1	4	25.6	4	-1E+10	1	-1E+10	1	-1E+10	1	-1E+10	1	-1E+10	1	-1E+10	1
4902551	113	C	10/01/2023	21:08	-131.046	47.179	0	340.90	0	5.0740	0	33.8870	0	26.788	0	337.786	0	78.8	4	25.5	4	-1E+10	1	-1E+10	1	-1E+10	1	-1E+10	1	-1E+10	1	-1E+10	1
4902551	113	C	10/01/2023	21:08	-131.046	47.179	0	341.70	0	5.0660	0	33.8890	0	26.790	0	338.578	0	78.5	4	25.4	4	-1E+10	1	-1E+10	1	-1E+10	1	-1E+10	1	-1E+10	1	-1E+10	1
4902551	113	C	10/01/2023	21:08	-131.046	47.179	0	343.00	0	5.0550	0	33.8890	0	26.791	0	339.865	0	77.9	4	25.2	4	-1E+10	1	-1E+10	1	-1E+10	1	-1E+10	1	-1E+10	1	-1E+10	1
4902551	113	C	10/01/2023	21:08	-131.046	47.179	0	344.20	0	5.0440	0	33.8910	0	26.794	0	341.053	0	77.4	4	25.0	4	-1E+10	1	-1E+10	1	-1E+10	1	-1E+10	1	-1E+10	1	-1E+10	1
4902551	113	C	10/01/2023	21:08	-131.046	47.179	0	345.00	0	5.0360	0	33.8910	0	26.795	0	341.845	0	77.1	4	24.9	4	-1E+10	1	-1E+10	1	-1E+10	1	-1E+10	1	-1E+10	1	-1E+10	1
4902551	113	C	10/01/2023	21:08	-131.046	47.179	0	345.80	0	5.0240	0	33.8900	0	26.796	0	342.637	0	76.8	4	24.8	4	-1E+10	1	-1E+10	1	-1E+10	1	-1E+10	1	-1E+10	1	-1E+10	1
4902551	113	C	10/01/2023	21:08	-131.046	47.179	0	346.60	0	5.0140	0	33.8940	0	26.800	0	343.429	0	76.4	4	24.7	4	-1E+10	1	-1E+10	1	-1E+10	1	-1E+10	1	-1E+10	1	-1E+10	1
4902551	113	C	10/01/2023	21:08	-131.046	47.179	0	347.90	0	5.0000	0	33.8910	0	26.799	0	344.716	0	75.9	4	24.5	4	-1E+10	1	-1E+10	1	-1E+10	1	-1E+10	1	-1E+10	1	-1E+10	1
4902551	113	C	10/01/2023	21:08	-131.046	47.179	0	349.10	0	5.0170	0	33.8960	0	26.801	0	345.904	0	75.5	4	24.4	4	-1E+10	1	-1E+10	1	-1E+10	1	-1E+10	1	-1E+10	1	-1E+10	1
4902551	113	C	10/01/2023	21:08	-131.046	47.179	0	350.00	0	5.0090	0	33.8980	0	26.804	0	346.796	0	75.2	4	24.3	4	-1E+10	1	-1E+10	1	-1E+10	1	-1E+10	1	-1E+10	1	-1E+10	1
4902551	113	C	10/01/2023	21:08	-131.046	47.179	0	352.90	0	4.9910	0	33.9010	0	26.808	0	349.666	0	74.5	4	24.0	4	-1E+10	1	-1E+10	1	-1E+10	1	-1E+10	1	-1E+10	1	-1E+10	1
4902551	113	C	10/01/2023	21:08	-131.046	47.179	0	357.90	0	4.9780	0	33.9020	0	26.811	0	354.616	0	72.9	4	23.5	4	-1E+10	1	-1E+10	1	-1E+10	1	-1E+10	1	-1E+10	1	-1E+10	1
4902551	113	C	10/01/2023	21:08	-131.046	47.179	0	363.00	0	4.9110	0	33.9010	0	26.817	0	359.665	0	71.0	4	22.9	4	-1E+10	1	-1E+10	1	-1E+10	1	-1E+10	1	-1E+10	1	-1E+10	1
4902551	113	C	10/01/2023	21:08	-131.046	47.179	0	367.90	0	4.7590	0	33.8950	0	26.830	0	364.516	0	69.2	4	22.2	4	-1E+10	1	-1E+10	1	-1E+10	1	-1E+10	1	-1E+10	1	-1E+10	1
4902551	113	C	10/01/2023	21:08	-131.046	47.179	0	372.90	0	4.7620	0	33.9060	0	26.838	0	369.465	0	67.3	4	21.6	4	-1E+10	1	-1E+10	1	-1E+10	1	-1E+10	1	-1E+10	1	-1E+10	1
4902551	113	C	10/01/2023	21:08	-131.046	47.179	0	378.00	0	4.8080	0	33.9170	0	26.842	0	374.514	0	65.7	4	21.1	4	-1E+10	1	-1E+10	1	-1E+10	1	-1E+10	1	-1E+10	1	-1E+10	1
4902551	113	C	10/01/2023	21:08	-131.046	47.179	0	382.70	0	4.7590	0	33.9190	0	26.849	0	379.166	0	64.3	4	20.6	4	-1E+10	1	-1E+10	1	-1E+10	1	-1E+10	1	-1E+10	1	-1E+10	1
4902551	113	C	10/01/2023	21:08	-131.046	47.179	0	387.60	0	4.7180	0	33.9230	0	26.856	0	384.016	0	62.9	4	20.2	4	-1E+10	1	-1E+10	1	-1E+10	1	-1E+10	1	-1E+10	1	-1E+10	1
4902551	113	C	10/01/2023	21:08	-131.046	47.179	0	392.50	0	4.7160	0	33.9290	0	26.861	0	388.867	0	61.7	4	19.8	4	-1E+10	1	-1E+10	1	-1E+10	1	-1E+10	1	-1E+10	1	-1E+10	1
4902551	113	C	10/01/2023	21:08	-131.046	47.179	0	397.50	0	4.7070	0	33.9340	0	26.866	0	393.816	0	60.5	4	19.4	4	-1E+10	1	-1E+10	1	-1E+10	1	-1E+10	1	-1E+10	1	-1E+10	1
4902551	113	C	10/01/2023	21:08	-131.046	47.179	0	402.60	0	4.6980	0	33.9370	0	26.870	0	398.863	0	59.2	4	19.0	4	-1E+10	1	-1E+10	1	-1E+10	1	-1E+10	1	-1E+10	1	-1E+10	1
4902551	113	C	10/01/2023	21:08	-131.046	47.179	0	407.60	0	4.6550	0	33.9440	0	26.880	0	403.812	0	57.9	4	18.5	4	-1E+10	1	-1E+10	1	-1E+10	1	-1E+10	1	-1E+10	1	-1E+10	1
4902551	113	C	10/01/2023	21:08	-131.046	47.179	0	412.70	0	4.6600	0	33.9490	0	26.884	0	408.860	0	56.9	4	18.2	4	-1E+10	1	-1E+10	1	-1E+10	1	-1E+10	1	-1E+10	1	-1E+10	1
4902551	113	C	10/01/2023	21:08	-131.046	47.179	0	417.90	0	4.6130	0	33.9490	0	26.889	0	414.006	0	55.8	4	17.9	4	-1E+10	1	-1E+10	1	-1E+10	1	-1E+10	1	-1E+10	1	-1E+10	1
4902551	113	C	10/01/2023	21:08	-131.046	47.179	0	422.90	0	4.5740	0	33.9510	0	26.895	0	418.954	0	54.6	4	17.4	4	-1E+10	1	-1E+10	1	-1E+10	1	-1E+10	1	-1E+10	1	-1E+10	1
4902551	113	C	10/01/2023	21:08	-131.046	47.179	0	428.00	0	4.5620	0	33.9600	0	26.903	0	424.002	0	53.4	4	17.1	4	-1E+10	1	-1E+10	1	-1E+10	1	-1E+10	1	-1E+10	1	-1E+10	1
4902551	113	C	10/01/2023	21:08	-131.046	47.179	0	433.20	0	4.5760	0	33.9640	0	26.905	0	429.148	0	52.6	4	16.8	4	-1E+10	1	-1E+10	1	-1E+10	1	-1E+10	1	-1E+10	1	-1E+10	1
4902551	113	C	10/01/2023	21:08	-131.046	47.179	0	437.90	0	4.5610	0	33.9670	0	26.909	0	433.799	0	51.8	4	16.6	4	-1E+10	1	-1E+10	1	-1E+10	1	-1E+10	1	-1E+10	1	-1E+10	1
4902551	113	C	10/01/2023	21:08	-131.046	47.179	0	442.60	0	4.5400	0	33.9690	0	26.913	0	438.450	0	50.9	4	16.2	4	-1E+10	1	-1E+10	1	-1E+10	1	-1E+10	1	-1E+10	1	-1E+10	1
4902551	113	C	10/01/2023	21:08	-131.046	47.179	0	447.90	0	4.5620	0	33.9770	0	26.917	0	443.694	0	49.8	4	15.9	4	-1E+10	1	-1E+10	1	-1E+10	1	-1E+10	1	-1E+10	1	-1E+10	1
4902551	113	C	10/01/2023	21:08	-131.046	47.179	0	453.30	0	4.5360	0	33.9790	0	26.921	0	449.038	0	48.8	4	15.6	4	-1E+10	1	-1E+10	1	-1E+10	1	-1E+10	1	-1E+10	1	-1E+10	1
4902551	113	C	10/01/2023	21:08	-131.046	47.179	0	458.00	0	4.5010	0	33.9790	0	26.925	0	453.689	0	47.2	4	15.1	4	-1E+10	1	-1E+10	1	-1E+10	1	-1E+10	1	-1E+10	1	-1E+10	1
4902551	113	C	10/01/2023	21:08	-131.046	47.179	0	462.70	0	4.5690	0	33.9970	0	26.932	0	458.339	0	45.7	4	14.6	4	-1E+10	1	-1E+10	1	-1E+10	1	-1E+10	1	-1E+10	1	-1E+10	1
4902551	113	C	10/01/2023	21:08	-131.046	47.179	0	468.00	0	4.5730	0	34.0020	0	26.936	0	463.583	0	45.0	4	14.4	4	-1E+10	1	-1E+10	1	-1E+10	1	-1E+10	1	-1E+10	1	-1E+10	1
4902551	113	C	10/01/2023	21:08	-131.046	47.179	0	472.80	0	4.4690	0	33.9960	0	26.942	0	468.333	0	44.1	4	14.0	4	-1E+10	1	-1E+10	1	-1E+10	1	-1E+10	1	-1E+10	1	-1E+10	1
4902551	113	C	10/01/2023	21:08	-131.046	47.179	0	477.60	0	4.5200	0	34.0080	0	26.946	0	473.082	0	43.0	4	13.7	4	-1E+10	1	-1E+10	1	-1E+10	1	-1E+10	1	-1E+10	1	-1E+10	1
4902551	113	C	10/01/2023	21:08	-131.046	47.179	0	483.10	0	4.4690	0	34.0110	0	26.954	0	478.523	0	42.6	4	13.6	4	-1E+10	1	-1E+10	1	-1E+10	1	-1E+10	1	-1E+10	1	-1E+10	1
4902551	113	C	10/01/2023	21:08	-131.046	47.179	0	488.00	0	4.4290	0	34.0130	0	26.960	0	483.371	0	41.4	4	13.2	4	-1E+10	1	-1E+10	1	-1E+10	1	-1E+10	1	-1E+10	1	-1E+10	1
4902551	113	C	10/01/2023	21:08	-131.046	47.179	0	492.70	0	4.4110	0	34.0200	0	26.968	0	488.021	0	40.4	4	12.9	4	-1E+10	1	-1E+10	1	-1E+10	1	-1E+10	1	-1E+10	1	-1E+10	1
4902551	113	C	10/01/2023	21:08	-131.046	47.179	0	497.90	0	4.4130	0	34.0250	0	26.971	0	493.166	0	39.4	4	12.5	4	-1E+10	1	-1E+10	1	-1E+10	1	-1E+10	1	-1E+10	1	-1E+10	1
4902551	113	C	10/01/2023	21:08	-131.046	47.179	0	503.20	0	4.4160	0	34.0300	0	26.975	0	498.409	0	38.1	4	12.1	4	-1E+10	1	-1E+10	1	-1E+10	1	-1E+10	1	-1E+10	1	-1E+10	1
4902551	113	C	10/01/2023	21:08	-131.046	47.179	0	508.10	0	4.4090	0	34.0350	0	26.980	0	503.256	0	37.0	4	11.8	4	-1E+10	1	-1E+10	1	-1E+10	1	-1E+10	1	-1E+10	1	-1E+10	1
4902551	113	C	10/01/2023	21:08	-131.046	47.179	0	513.00	0	4.3960	0	34.0380	0	26.984	0	508.104	0	35.5	4	11.3	4	-1E+10	1	-1E+10	1	-1E+10	1	-1E+10	1	-1E+10	1	-1E+10	1
4902551	113	C	10/01/2023	21:08	-131.046	47.179	0	517.80	0	4.3760	0	34.0500	0	26.995	0	512.852	0	34.0	4	10.8	4	-1E+10	1	-1E+10	1	-1E+10	1	-1E+10	1	-1E+10	1	-1E+10	1
4902551	113	C	10/01/2023	21:08	-131.046	47.179	0	522.80	0	4.3670	0	34.0560	0	27.001	0	517.798	0	33.2	4	10.6	4	-1E+10	1	-1E+10	1	-1E+10	1	-1E+10	1	-1E+10	1	-1E+10	1
4902551	113	C	10/01/2023	21:08	-131.046	47.179	0	527.90	0	4.3600	0	34.0610	0	27.006	0	522.843	0	32.3	4	10.3	4	-1E+10	1	-1E+10	1	-1E+10	1	-1E+10	1	-1E+10	1	-1E+10	1
4902551	113	C	10/01/2023	21:08	-131.046	47.179	0	533.10	0	4.3540	0	34.0640	0	27.009	0	527.986	0	31.5	4	10.0	4	-1E+10	1	-1E+10	1	-1E+10	1	-1E+10	1	-1E+10	1	-1E+10	1
4902551	113	C	10/01/2023	21:08	-131.046	47.179	0	538.00	0	4.3480	0	34.0670	0	27.012	0	532.833	0	30.7	4	9.8	4	-1E+10	1	-1E+10	1	-1E+10	1	-1E+10	1	-1E+10	1	-1E+10	1
4902551	113	C	10/01/2023	21:08	-131.046	47.179	0	542.90	0	4.3300	0	34.0710	0	27.017	0	537.680	0	29.8	4	9.5	4	-1E+10	1	-1E+10	1	-1E+10	1	-1E+10	1	-1E+10	1	-1E+10	1
4902551	113	C	10/01/2023	21:08	-131.046	47.179	0	547.90	0	4.3180	0	34.0780	0	27.024	0	542.625	0	28.8	4	9.1	4	-1E+10	1	-1E+10	1	-1E+10	1	-1E+10	1	-1E+10	1	-1E+10	1
4902551	113	C	10/01/2023	21:08	-131.046	47.179	0	552.80	0	4.3030	0	34.0830	0	27.030	0	547.471	0	27.8	4	8.8	4	-1E+10	1	-1E+10	1	-1E+10	1	-1E+10	1	-1E+10	1	-1E+10	1
4902551	113	C	10/01/2023	21:08	-131.046	47.179	0	558.10	0	4.2910	0	34.0910	0	27.037	0	552.713	0	26.7	4	8.5	4	-1E+10	1	-1E+10	1	-1E+10	1	-1E+10	1	-1E+10	1	-1E+10	1
4902551	113	C	10/01/2023	21:08	-131.046	47.179	0	563.00	0	4.2810	0	34.0950	0	27.041	0	557.559	0	26.1	4	8.3	4	-1E+10	1	-1E+10	1	-1E+10	1	-1E+10	1	-1E+10	1	-1E+10	1
4902551	113	C	10/01/2023	21:08	-131.046	47.179	0	567.90	0	4.2590	0	34.1000	0	27.048	0	562.405	0	25.4	4	8.1	4	-1E+10	1	-1E+10	1	-1E+10	1	-1E+10	1	-1E+10	1	-1E+10	1
4902551	113	C	10/01/2023	21:08	-131.046	47.179	0	573.00	0	4.2480	0	34.1030	0	27.051	0	567.449	0	24.3	4	7.7	4	-1E+10	1	-1E+10	1	-1E+10	1	-1E+10	1	-1E+10	1	-1E+10	1
4902551	113	C	10/01/2023	21:08	-131.046	47.179	0	577.70	0	4.2430	0	34.1080	0	27.056	0	572.097	0	22.9	4	7.3	4	-1E+10	1	-1E+10	1	-1E+10	1	-1E+10	1	-1E+10	1	-1E+10	1
4902551	113	C	10/01/2023	21:08	-131.046	47.179	0	582.90	0	4.3000	0	34.1210	0	27.060	0	577.240	0	21.3	4	6.8	4	-1E+10	1	-1E+10	1	-1E+10	1	-1E+10	1	-1E+10	1	-1E+10	1
4902551	113	C	10/01/2023	21:08	-131.046	47.179	0	588.10	0	4.3160	0	34.1340	0	27.069	0	582.382	0	20.9	4	6.6	4	-1E+10	1	-1E+10	1	-1E+10	1	-1E+10	1	-1E+10	1	-1E+10	1
4902551	113	C	10/01/2023	21:08	-131.046	47.179	0	593.00	0	4.2540	0	34.1360	0	27.077	0	587.227	0	20.7	4	6.6	4	-1E+10	1	-1E+10	1	-1E+10	1	-1E+10	1	-1E+10	1	-1E+10	1
4902551	113	C	10/01/2023	21:08	-131.046	47.179	0	597.90	0	4.2470	0	34.1390	0	27.080	0	592.073	0	20.5	4	6.5	4	-1E+10	1	-1E+10	1	-1E+10	1	-1E+10	1	-1E+10	1	-1E+10	1
4902551	113	C	10/01/2023	21:08	-131.046	47.179	0	602.90	0	4.2130	0	34.1400	0	27.085	0	597.017	0	20.3	4	6.5	4	-1E+10	1	-1E+10	1	-1E+10	1	-1E+10	1	-1E+10	1	-1E+10	1
4902551	113	C	10/01/2023	21:08	-131.046	47.179	0	607.80	0	4.2020	0	34.1410	0	27.087	0	601.862	0	20.0	4	6.3	4	-1E+10	1	-1E+10	1	-1E+10	1	-1E+10	1	-1E+10	1	-1E+10	1
4902551	113	C	10/01/2023	21:08	-131.046	47.179	0	612.80	0	4.1780	0	34.1440	0	27.092	0	606.806	0	19.5	4	6.2	4	-1E+10	1	-1E+10	1	-1E+10	1	-1E+10	1	-1E+10	1	-1E+10	1
4902551	113	C	10/01/2023	21:08	-131.046	47.179	0	617.80	0	4.1510	0	34.1480	0	27.098	0	611.749	0	18.9	4	6.0	4	-1E+10	1	-1E+10	1	-1E+10	1	-1E+10	1	-1E+10	1	-1E+10	1
4902551	113	C	10/01/2023	21:08	-131.046	47.179	0	622.80	0	4.1390	0	34.1540	0	27.104	0	616.693	0	18.5	4	5.9	4	-1E+10	1	-1E+10	1	-1E+10	1	-1E+10	1	-1E+10	1	-1E+10	1
4902551	113	C	10/01/2023	21:08	-131.046	47.179	0	627.90	0	4.1380	0	34.1560	0	27.105	0	621.735	0	18.1	4	5.7	4	-1E+10	1	-1E+10	1	-1E+10	1	-1E+10	1	-1E+10	1	-1E+10	1
4902551	113	C	10/01/2023	21:08	-131.046	47.179	0	633.20	0	4.1160	0	34.1590	0	27.110	0	626.975	0	17.6	4	5.6	4	-1E+10	1	-1E+10	1	-1E+10	1	-1E+10	1	-1E+10	1	-1E+10	1
4902551	113	C	10/01/2023	21:08	-131.046	47.179	0	638.00	0	4.1120	0	34.1640	0	27.114	0	631.721	0	16.9	4	5.4	4	-1E+10	1	-1E+10	1	-1E+10	1	-1E+10	1	-1E+10	1	-1E+10	1
4902551	113	C	10/01/2023	21:08	-131.046	47.179	0	642.90	0	4.1070	0	34.1710	0	27.121	0	636.565	0	16.3	4	5.2	4	-1E+10	1	-1E+10	1	-1E+10	1	-1E+10	1	-1E+10	1	-1E+10	1
4902551	113	C	10/01/2023	21:08	-131.046	47.179	0	648.00	0	4.1020	0	34.1770	0	27.126	0	641.607	0	15.8	4	5.0	4	-1E+10	1	-1E+10	1	-1E+10	1	-1E+10	1	-1E+10	1	-1E+10	1
4902551	113	C	10/01/2023	21:08	-131.046	47.179	0	652.90	0	4.0920	0	34.1820	0	27.131	0	646.451	0	15.4	4	4.9	4	-1E+10	1	-1E+10	1	-1E+10	1	-1E+10	1	-1E+10	1	-1E+10	1
4902551	113	C	10/01/2023	21:08	-131.046	47.179	0	657.90	0	4.0810	0	34.1870	0	27.136	0	651.394	0	15.1	4	4.8	4	-1E+10	1	-1E+10	1	-1E+10	1	-1E+10	1	-1E+10	1	-1E+10	1
4902551	113	C	10/01/2023	21:08	-131.046	47.179	0	663.00	0	4.0690	0	34.1900	0	27.140	0	656.435	0	14.8	4	4.7	4	-1E+10	1	-1E+10	1	-1E+10	1	-1E+10	1	-1E+10	1	-1E+10	1
4902551	113	C	10/01/2023	21:08	-131.046	47.179	0	667.90	0	4.0690	0	34.1930	0	27.142	0	661.279	0	14.5	4	4.6	4	-1E+10	1	-1E+10	1	-1E+10	1	-1E+10	1	-1E+10	1	-1E+10	1
4902551	113	C	10/01/2023	21:08	-131.046	47.179	0	672.80	0	4.0690	0	34.1970	0	27.145	0	666.123	0	14.2	4	4.5	4	-1E+10	1	-1E+10	1	-1E+10	1	-1E+10	1	-1E+10	1	-1E+10	1
4902551	113	C	10/01/2023	21:08	-131.046	47.179	0	677.90	0	4.0610	0	34.2010	0	27.149	0	671.164	0	13.8	4	4.4	4	-1E+10	1	-1E+10	1	-1E+10	1	-1E+10	1	-1E+10	1	-1E+10	1
4902551	113	C	10/01/2023	21:08	-131.046	47.179	0	682.60	0	4.0570	0	34.2050	0	27.153	0	675.810	0	13.6	4	4.3	4	-1E+10	1	-1E+10	1	-1E+10	1	-1E+10	1	-1E+10	1	-1E+10	1
4902551	113	C	10/01/2023	21:08	-131.046	47.179	0	687.80	0	4.0430	0	34.2110	0	27.159	0	680.949	0	13.6	4	4.3	4	-1E+10	1	-1E+10	1	-1E+10	1	-1E+10	1	-1E+10	1	-1E+10	1
4902551	113	C	10/01/2023	21:08	-131.046	47.179	0	693.00	0	4.0190	0	34.2130	0	27.163	0	686.089	0	13.8	4	4.3	4	-1E+10	1	-1E+10	1	-1E+10	1	-1E+10	1	-1E+10	1	-1E+10	1
4902551	113	C	10/01/2023	21:08	-131.046	47.179	0	697.70	0	4.0010	0	34.2100	0	27.163	0	690.734	0	13.7	4	4.3	4	-1E+10	1	-1E+10	1	-1E+10	1	-1E+10	1	-1E+10	1	-1E+10	1
4902551	113	C	10/01/2023	21:08	-131.046	47.179	0	702.90	0	3.9720	0	34.2140	0	27.169	0	695.874	0	13.1	4	4.1	4	-1E+10	1	-1E+10	1	-1E+10	1	-1E+10	1	-1E+10	1	-1E+10	1
4902551	113	C	10/01/2023	21:08	-131.046	47.179	0	708.30	0	3.9950	0	34.2230	0	27.174	0	701.211	0	12.6	4	4.0	4	-1E+10	1	-1E+10	1	-1E+10	1	-1E+10	1	-1E+10	1	-1E+10	1
4902551	113	C	10/01/2023	21:08	-131.046	47.179	0	713.10	0	3.9840	0	34.2280	0	27.179	0	705.955	0	12.4	4	3.9	4	-1E+10	1	-1E+10	1	-1E+10	1	-1E+10	1	-1E+10	1	-1E+10	1
4902551	113	C	10/01/2023	21:08	-131.046	47.179	0	718.00	0	3.9740	0	34.2290	0	27.181	0	710.797	0	12.2	4	3.8	4	-1E+10	1	-1E+10	1	-1E+10	1	-1E+10	1	-1E+10	1	-1E+10	1
4902551	113	C	10/01/2023	21:08	-131.046	47.179	0	722.80	0	3.9660	0	34.2330	0	27.185	0	715.541	0	11.8	4	3.7	4	-1E+10	1	-1E+10	1	-1E+10	1	-1E+10	1	-1E+10	1	-1E+10	1
4902551	113	C	10/01/2023	21:08	-131.046	47.179	0	727.70	0	3.9700	0	34.2400	0	27.190	0	720.383	0	11.6	4	3.7	4	-1E+10	1	-1E+10	1	-1E+10	1	-1E+10	1	-1E+10	1	-1E+10	1
4902551	113	C	10/01/2023	21:08	-131.046	47.179	0	732.50	0	3.9540	0	34.2450	0	27.196	0	725.127	0	11.5	4	3.6	4	-1E+10	1	-1E+10	1	-1E+10	1	-1E+10	1	-1E+10	1	-1E+10	1
4902551	113	C	10/01/2023	21:08	-131.046	47.179	0	737.80	0	3.9420	0	34.2460	0	27.198	0	730.364	0	11.3	4	3.6	4	-1E+10	1	-1E+10	1	-1E+10	1	-1E+10	1	-1E+10	1	-1E+10	1
4902551	113	C	10/01/2023	21:08	-131.046	47.179	0	743.10	0	3.9410	0	34.2490	0	27.200	0	735.601	0	11.2	4	3.5	4	-1E+10	1	-1E+10	1	-1E+10	1	-1E+10	1	-1E+10	1	-1E+10	1
4902551	113	C	10/01/2023	21:08	-131.046	47.179	0	747.90	0	3.9390	0	34.2550	0	27.205	0	740.344	0	11.2	4	3.5	4	-1E+10	1	-1E+10	1	-1E+10	1	-1E+10	1	-1E+10	1	-1E+10	1
4902551	113	C	10/01/2023	21:08	-131.046	47.179	0	752.80	0	3.9100	0	34.2570	0	27.210	0	745.186	0	11.3	4	3.5	4	-1E+10	1	-1E+10	1	-1E+10	1	-1E+10	1	-1E+10	1	-1E+10	1
4902551	113	C	10/01/2023	21:08	-131.046	47.179	0	757.70	0	3.8620	0	34.2570	0	27.215	0	750.028	0	11.3	4	3.6	4	-1E+10	1	-1E+10	1	-1E+10	1	-1E+10	1	-1E+10	1	-1E+10	1
4902551	113	C	10/01/2023	21:08	-131.046	47.179	0	762.60	0	3.8530	0	34.2580	0	27.217	0	754.869	0	11.1	4	3.5	4	-1E+10	1	-1E+10	1	-1E+10	1	-1E+10	1	-1E+10	1	-1E+10	1
4902551	113	C	10/01/2023	21:08	-131.046	47.179	0	767.90	0	3.8660	0	34.2630	0	27.219	0	760.106	0	10.9	4	3.4	4	-1E+10	1	-1E+10	1	-1E+10	1	-1E+10	1	-1E+10	1	-1E+10	1
4902551	113	C	10/01/2023	21:08	-131.046	47.179	0	773.10	0	3.8650	0	34.2670	0	27.223	0	765.243	0	10.8	4	3.4	4	-1E+10	1	-1E+10	1	-1E+10	1	-1E+10	1	-1E+10	1	-1E+10	1
4902551	113	C	10/01/2023	21:08	-131.046	47.179	0	777.90	0	3.8830	0	34.2730	0	27.226	0	769.986	0	10.9	4	3.4	4	-1E+10	1	-1E+10	1	-1E+10	1	-1E+10	1	-1E+10	1	-1E+10	1
4902551	113	C	10/01/2023	21:08	-131.046	47.179	0	782.60	0	3.8820	0	34.2740	0	27.227	0	774.629	0	11.4	4	3.6	4	-1E+10	1	-1E+10	1	-1E+10	1	-1E+10	1	-1E+10	1	-1E+10	1
4902551	113	C	10/01/2023	21:08	-131.046	47.179	0	787.80	0	3.8420	0	34.2720	0	27.229	0	779.767	0	12.3	4	3.9	4	-1E+10	1	-1E+10	1	-1E+10	1	-1E+10	1	-1E+10	1	-1E+10	1
4902551	113	C	10/01/2023	21:08	-131.046	47.179	0	792.80	0	3.7340	0	34.2620	0	27.232	0	784.706	0	13.1	4	4.1	4	-1E+10	1	-1E+10	1	-1E+10	1	-1E+10	1	-1E+10	1	-1E+10	1
4902551	113	C	10/01/2023	21:08	-131.046	47.179	0	797.90	0	3.6710	0	34.2580	0	27.235	0	789.745	0	13.3	4	4.2	4	-1E+10	1	-1E+10	1	-1E+10	1	-1E+10	1	-1E+10	1	-1E+10	1
4902551	113	C	10/01/2023	21:08	-131.046	47.179	0	803.10	0	3.6630	0	34.2570	0	27.235	0	794.881	0	13.2	4	4.1	4	-1E+10	1	-1E+10	1	-1E+10	1	-1E+10	1	-1E+10	1	-1E+10	1
4902551	113	C	10/01/2023	21:08	-131.046	47.179	0	807.70	0	3.6560	0	34.2590	0	27.237	0	799.426	0	13.1	4	4.1	4	-1E+10	1	-1E+10	1	-1E+10	1	-1E+10	1	-1E+10	1	-1E+10	1
4902551	113	C	10/01/2023	21:08	-131.046	47.179	0	812.80	0	3.6420	0	34.2620	0	27.241	0	804.464	0	13.1	4	4.1	4	-1E+10	1	-1E+10	1	-1E+10	1	-1E+10	1	-1E+10	1	-1E+10	1
4902551	113	C	10/01/2023	21:08	-131.046	47.179	0	817.90	0	3.6230	0	34.2630	0	27.244	0	809.501	0	13.1	4	4.1	4	-1E+10	1	-1E+10	1	-1E+10	1	-1E+10	1	-1E+10	1	-1E+10	1
4902551	113	C	10/01/2023	21:08	-131.046	47.179	0	822.60	0	3.6060	0	34.2640	0	27.246	0	814.144	0	12.9	4	4.0	4	-1E+10	1	-1E+10	1	-1E+10	1	-1E+10	1	-1E+10	1	-1E+10	1
4902551	113	C	10/01/2023	21:08	-131.046	47.179	0	827.80	0	3.5910	0	34.2680	0	27.251	0	819.280	0	12.6	4	3.9	4	-1E+10	1	-1E+10	1	-1E+10	1	-1E+10	1	-1E+10	1	-1E+10	1
4902551	113	C	10/01/2023	21:08	-131.046	47.179	0	832.90	0	3.5760	0	34.2740	0	27.257	0	824.318	0	12.2	4	3.8	4	-1E+10	1	-1E+10	1	-1E+10	1	-1E+10	1	-1E+10	1	-1E+10	1
4902551	113	C	10/01/2023	21:08	-131.046	47.179	0	837.80	0	3.5670	0	34.2800	0	27.263	0	829.158	0	11.8	4	3.7	4	-1E+10	1	-1E+10	1	-1E+10	1	-1E+10	1	-1E+10	1	-1E+10	1
4902551	113	C	10/01/2023	21:08	-131.046	47.179	0	842.70	0	3.5870	0	34.2880	0	27.267	0	833.997	0	11.3	4	3.5	4	-1E+10	1	-1E+10	1	-1E+10	1	-1E+10	1	-1E+10	1	-1E+10	1
4902551	113	C	10/01/2023	21:08	-131.046	47.179	0	847.70	0	3.6310	0	34.2990	0	27.272	0	838.936	0	11.3	4	3.5	4	-1E+10	1	-1E+10	1	-1E+10	1	-1E+10	1	-1E+10	1	-1E+10	1
4902551	113	C	10/01/2023	21:08	-131.046	47.179	0	852.80	0	3.5930	0	34.2960	0	27.273	0	843.973	0	11.5	4	3.6	4	-1E+10	1	-1E+10	1	-1E+10	1	-1E+10	1	-1E+10	1	-1E+10	1
4902551	113	C	10/01/2023	21:08	-131.046	47.179	0	857.90	0	3.5490	0	34.2930	0	27.275	0	849.009	0	11.7	4	3.6	4	-1E+10	1	-1E+10	1	-1E+10	1	-1E+10	1	-1E+10	1	-1E+10	1
4902551	113	C	10/01/2023	21:08	-131.046	47.179	0	863.10	0	3.5190	0	34.2960	0	27.280	0	854.145	0	11.6	4	3.6	4	-1E+10	1	-1E+10	1	-1E+10	1	-1E+10	1	-1E+10	1	-1E+10	1
4902551	113	C	10/01/2023	21:08	-131.046	47.179	0	868.30	0	3.5100	0	34.2990	0	27.284	0	859.280	0	11.5	4	3.6	4	-1E+10	1	-1E+10	1	-1E+10	1	-1E+10	1	-1E+10	1	-1E+10	1
4902551	113	C	10/01/2023	21:08	-131.046	47.179	0	873.10	0	3.5020	0	34.3010	0	27.286	0	864.020	0	11.4	4	3.5	4	-1E+10	1	-1E+10	1	-1E+10	1	-1E+10	1	-1E+10	1	-1E+10	1
4902551	113	C	10/01/2023	21:08	-131.046	47.179	0	878.00	0	3.5010	0	34.3040	0	27.288	0	868.859	0	11.2	4	3.5	4	-1E+10	1	-1E+10	1	-1E+10	1	-1E+10	1	-1E+10	1	-1E+10	1
4902551	113	C	10/01/2023	21:08	-131.046	47.179	0	883.10	0	3.4910	0	34.3080	0	27.293	0	873.896	0	11.1	4	3.5	4	-1E+10	1	-1E+10	1	-1E+10	1	-1E+10	1	-1E+10	1	-1E+10	1
4902551	113	C	10/01/2023	21:08	-131.046	47.179	0	887.80	0	3.4820	0	34.3120	0	27.297	0	878.537	0	11.0	4	3.4	4	-1E+10	1	-1E+10	1	-1E+10	1	-1E+10	1	-1E+10	1	-1E+10	1
4902551	113	C	10/01/2023	21:08	-131.046	47.179	0	892.70	0	3.4730	0	34.3150	0	27.300	0	883.375	0	10.9	4	3.4	4	-1E+10	1	-1E+10	1	-1E+10	1	-1E+10	1	-1E+10	1	-1E+10	1
4902551	113	C	10/01/2023	21:08	-131.046	47.179	0	897.70	0	3.4670	0	34.3180	0	27.303	0	888.312	0	10.9	4	3.4	4	-1E+10	1	-1E+10	1	-1E+10	1	-1E+10	1	-1E+10	1	-1E+10	1
4902551	113	C	10/01/2023	21:08	-131.046	47.179	0	902.80	0	3.4610	0	34.3190	0	27.304	0	893.348	0	10.9	4	3.4	4	-1E+10	1	-1E+10	1	-1E+10	1	-1E+10	1	-1E+10	1	-1E+10	1
4902551	113	C	10/01/2023	21:08	-131.046	47.179	0	908.00	0	3.4540	0	34.3200	0	27.306	0	898.483	0	10.9	4	3.4	4	-1E+10	1	-1E+10	1	-1E+10	1	-1E+10	1	-1E+10	1	-1E+10	1
4902551	113	C	10/01/2023	21:08	-131.046	47.179	0	912.80	0	3.4430	0	34.3220	0	27.309	0	903.222	0	10.8	4	3.4	4	-1E+10	1	-1E+10	1	-1E+10	1	-1E+10	1	-1E+10	1	-1E+10	1
4902551	113	C	10/01/2023	21:08	-131.046	47.179	0	917.80	0	3.4310	0	34.3250	0	27.312	0	908.159	0	10.8	4	3.4	4	-1E+10	1	-1E+10	1	-1E+10	1	-1E+10	1	-1E+10	1	-1E+10	1
4902551	113	C	10/01/2023	21:08	-131.046	47.179	0	922.80	0	3.4150	0	34.3290	0	27.317	0	913.095	0	10.7	4	3.3	4	-1E+10	1	-1E+10	1	-1E+10	1	-1E+10	1	-1E+10	1	-1E+10	1
4902551	113	C	10/01/2023	21:08	-131.046	47.179	0	927.80	0	3.4090	0	34.3310	0	27.319	0	918.032	0	10.7	4	3.3	4	-1E+10	1	-1E+10	1	-1E+10	1	-1E+10	1	-1E+10	1	-1E+10	1
4902551	113	C	10/01/2023	21:08	-131.046	47.179	0	933.00	0	3.3960	0	34.3340	0	27.323	0	923.165	0	10.7	4	3.3	4	-1E+10	1	-1E+10	1	-1E+10	1	-1E+10	1	-1E+10	1	-1E+10	1
4902551	113	C	10/01/2023	21:08	-131.046	47.179	0	938.20	0	3.3900	0	34.3360	0	27.325	0	928.299	0	10.7	4	3.3	4	-1E+10	1	-1E+10	1	-1E+10	1	-1E+10	1	-1E+10	1	-1E+10	1
4902551	113	C	10/01/2023	21:08	-131.046	47.179	0	942.90	0	3.3840	0	34.3360	0	27.326	0	932.939	0	10.7	4	3.3	4	-1E+10	1	-1E+10	1	-1E+10	1	-1E+10	1	-1E+10	1	-1E+10	1
4902551	113	C	10/01/2023	21:08	-131.046	47.179	0	947.80	0	3.3740	0	34.3390	0	27.329	0	937.776	0	10.6	4	3.3	4	-1E+10	1	-1E+10	1	-1E+10	1	-1E+10	1	-1E+10	1	-1E+10	1
4902551	113	C	10/01/2023	21:08	-131.046	47.179	0	953.20	0	3.3650	0	34.3410	0	27.331	0	943.107	0	10.6	4	3.3	4	-1E+10	1	-1E+10	1	-1E+10	1	-1E+10	1	-1E+10	1	-1E+10	1
4902551	113	C	10/01/2023	21:08	-131.046	47.179	0	958.10	0	3.3720	0	34.3450	0	27.334	0	947.944	0	10.5	4	3.3	4	-1E+10	1	-1E+10	1	-1E+10	1	-1E+10	1	-1E+10	1	-1E+10	1
4902551	113	C	10/01/2023	21:08	-131.046	47.179	0	962.90	0	3.3700	0	34.3500	0	27.338	0	952.682	0	10.5	4	3.3	4	-1E+10	1	-1E+10	1	-1E+10	1	-1E+10	1	-1E+10	1	-1E+10	1
4902551	113	C	10/01/2023	21:08	-131.046	47.179	0	967.80	0	3.3570	0	34.3510	0	27.340	0	957.519	0	10.6	4	3.3	4	-1E+10	1	-1E+10	1	-1E+10	1	-1E+10	1	-1E+10	1	-1E+10	1
4902551	113	C	10/01/2023	21:08	-131.046	47.179	0	973.00	0	3.3580	0	34.3560	0	27.344	0	962.652	0	10.6	4	3.3	4	-1E+10	1	-1E+10	1	-1E+10	1	-1E+10	1	-1E+10	1	-1E+10	1
4902551	113	C	10/01/2023	21:08	-131.046	47.179	0	978.20	0	3.3250	0	34.3550	0	27.347	0	967.785	0	10.6	4	3.3	4	-1E+10	1	-1E+10	1	-1E+10	1	-1E+10	1	-1E+10	1	-1E+10	1
4902551	113	C	10/01/2023	21:08	-131.046	47.179	0	983.10	0	3.3030	0	34.3570	0	27.350	0	972.621	0	10.6	4	3.3	4	-1E+10	1	-1E+10	1	-1E+10	1	-1E+10	1	-1E+10	1	-1E+10	1
4902551	113	C	10/01/2023	21:08	-131.046	47.179	0	988.10	0	3.3160	0	34.3610	0	27.352	0	977.556	0	10.5	4	3.3	4	-1E+10	1	-1E+10	1	-1E+10	1	-1E+10	1	-1E+10	1	-1E+10	1
4902551	113	C	10/01/2023	21:08	-131.046	47.179	0	993.10	0	3.3660	0	34.3740	0	27.358	0	982.491	0	10.6	4	3.3	4	-1E+10	1	-1E+10	1	-1E+10	1	-1E+10	1	-1E+10	1	-1E+10	1
4902551	113	C	10/01/2023	21:08	-131.046	47.179	0	998.20	0	3.3520	0	34.3730	0	27.358	0	987.525	0	10.7	4	3.3	4	-1E+10	1	-1E+10	1	-1E+10	1	-1E+10	1	-1E+10	1	-1E+10	1
4902551	113	C	10/01/2023	21:08	-131.046	47.179	0	1005.50	0	3.2860	0	34.3670	0	27.360	0	994.729	0	10.9	4	3.4	4	-1E+10	1	-1E+10	1	-1E+10	1	-1E+10	1	-1E+10	1	-1E+10	1
4902551	113	C	10/01/2023	21:08	-131.046	47.179	0	1015.10	0	3.2390	0	34.3620	0	27.360	0	1004.203	0	11.0	4	3.4	4	-1E+10	1	-1E+10	1	-1E+10	1	-1E+10	1	-1E+10	1	-1E+10	1
4902551	113	C	10/01/2023	21:08	-131.046	47.179	0	1025.30	0	3.2150	0	34.3640	0	27.364	0	1014.269	0	11.0	4	3.4	4	-1E+10	1	-1E+10	1	-1E+10	1	-1E+10	1	-1E+10	1	-1E+10	1
4902551	113	C	10/01/2023	21:08	-131.046	47.179	0	1035.50	0	3.2070	0	34.3660	0	27.367	0	1024.335	0	11.1	4	3.4	4	-1E+10	1	-1E+10	1	-1E+10	1	-1E+10	1	-1E+10	1	-1E+10	1
4902551	113	C	10/01/2023	21:08	-131.046	47.179	0	1045.30	0	3.1980	0	34.3690	0	27.370	0	1034.005	0	11.1	4	3.4	4	-1E+10	1	-1E+10	1	-1E+10	1	-1E+10	1	-1E+10	1	-1E+10	1
4902551	113	C	10/01/2023	21:08	-131.046	47.179	0	1055.20	0	3.1720	0	34.3730	0	27.376	0	1043.773	0	11.2	4	3.5	4	-1E+10	1	-1E+10	1	-1E+10	1	-1E+10	1	-1E+10	1	-1E+10	1
4902551	113	C	10/01/2023	21:08	-131.046	47.179	0	1065.40	0	3.1470	0	34.3770	0	27.381	0	1053.837	0	11.3	4	3.5	4	-1E+10	1	-1E+10	1	-1E+10	1	-1E+10	1	-1E+10	1	-1E+10	1
4902551	113	C	10/01/2023	21:08	-131.046	47.179	0	1075.60	0	3.1320	0	34.3820	0	27.387	0	1063.901	0	11.3	4	3.5	4	-1E+10	1	-1E+10	1	-1E+10	1	-1E+10	1	-1E+10	1	-1E+10	1
4902551	113	C	10/01/2023	21:08	-131.046	47.179	0	1085.20	0	3.1040	0	34.3870	0	27.393	0	1073.372	0	11.5	4	3.5	4	-1E+10	1	-1E+10	1	-1E+10	1	-1E+10	1	-1E+10	1	-1E+10	1
4902551	113	C	10/01/2023	21:08	-131.046	47.179	0	1095.30	0	3.0910	0	34.3930	0	27.399	0	1083.335	0	11.6	4	3.6	4	-1E+10	1	-1E+10	1	-1E+10	1	-1E+10	1	-1E+10	1	-1E+10	1
4902551	113	C	10/01/2023	21:08	-131.046	47.179	0	1105.30	0	3.0820	0	34.3980	0	27.404	0	1093.200	0	11.8	4	3.6	4	-1E+10	1	-1E+10	1	-1E+10	1	-1E+10	1	-1E+10	1	-1E+10	1
4902551	113	C	10/01/2023	21:08	-131.046	47.179	0	1115.30	0	3.0550	0	34.4030	0	27.411	0	1103.064	0	12.0	4	3.7	4	-1E+10	1	-1E+10	1	-1E+10	1	-1E+10	1	-1E+10	1	-1E+10	1
4902551	113	C	10/01/2023	21:08	-131.046	47.179	0	1125.60	0	3.0340	0	34.4060	0	27.415	0	1113.224	0	12.1	4	3.7	4	-1E+10	1	-1E+10	1	-1E+10	1	-1E+10	1	-1E+10	1	-1E+10	1
4902551	113	C	10/01/2023	21:08	-131.046	47.179	0	1135.40	0	3.0210	0	34.4080	0	27.418	0	1122.890	0	12.2	4	3.8	4	-1E+10	1	-1E+10	1	-1E+10	1	-1E+10	1	-1E+10	1	-1E+10	1
4902551	113	C	10/01/2023	21:08	-131.046	47.179	0	1145.20	0	2.9960	0	34.4100	0	27.422	0	1132.556	0	12.4	4	3.8	4	-1E+10	1	-1E+10	1	-1E+10	1	-1E+10	1	-1E+10	1	-1E+10	1
4902551	113	C	10/01/2023	21:08	-131.046	47.179	0	1155.20	0	2.9730	0	34.4140	0	27.427	0	1142.418	0	12.5	4	3.9	4	-1E+10	1	-1E+10	1	-1E+10	1	-1E+10	1	-1E+10	1	-1E+10	1
4902551	113	C	10/01/2023	21:08	-131.046	47.179	0	1165.40	0	2.9510	0	34.4170	0	27.431	0	1152.477	0	12.7	4	3.9	4	-1E+10	1	-1E+10	1	-1E+10	1	-1E+10	1	-1E+10	1	-1E+10	1
4902551	113	C	10/01/2023	21:08	-131.046	47.179	0	1175.40	0	2.9250	0	34.4210	0	27.437	0	1162.339	0	12.9	4	4.0	4	-1E+10	1	-1E+10	1	-1E+10	1	-1E+10	1	-1E+10	1	-1E+10	1
4902551	113	C	10/01/2023	21:08	-131.046	47.179	0	1185.20	0	2.9090	0	34.4230	0	27.440	0	1172.003	0	13.1	4	4.0	4	-1E+10	1	-1E+10	1	-1E+10	1	-1E+10	1	-1E+10	1	-1E+10	1
4902551	113	C	10/01/2023	21:08	-131.046	47.179	0	1195.30	0	2.8890	0	34.4270	0	27.445	0	1181.962	0	13.3	4	4.1	4	-1E+10	1	-1E+10	1	-1E+10	1	-1E+10	1	-1E+10	1	-1E+10	1
4902551	113	C	10/01/2023	21:08	-131.046	47.179	0	1205.00	0	2.8770	0	34.4300	0	27.449	0	1191.526	0	13.5	4	4.1	4	-1E+10	1	-1E+10	1	-1E+10	1	-1E+10	1	-1E+10	1	-1E+10	1
4902551	113	C	10/01/2023	21:08	-131.046	47.179	0	1215.00	0	2.8460	0	34.4310	0	27.452	0	1201.386	0	13.6	4	4.2	4	-1E+10	1	-1E+10	1	-1E+10	1	-1E+10	1	-1E+10	1	-1E+10	1
4902551	113	C	10/01/2023	21:08	-131.046	47.179	0	1225.60	0	2.8390	0	34.4350	0	27.456	0	1211.836	0	13.9	4	4.3	4	-1E+10	1	-1E+10	1	-1E+10	1	-1E+10	1	-1E+10	1	-1E+10	1
4902551	113	C	10/01/2023	21:08	-131.046	47.179	0	1235.60	0	2.8310	0	34.4380	0	27.459	0	1221.695	0	14.1	4	4.3	4	-1E+10	1	-1E+10	1	-1E+10	1	-1E+10	1	-1E+10	1	-1E+10	1
4902551	113	C	10/01/2023	21:08	-131.046	47.179	0	1245.60	0	2.8180	0	34.4400	0	27.462	0	1231.553	0	14.4	4	4.4	4	-1E+10	1	-1E+10	1	-1E+10	1	-1E+10	1	-1E+10	1	-1E+10	1
4902551	113	C	10/01/2023	21:08	-131.046	47.179	0	1255.50	0	2.8000	0	34.4430	0	27.466	0	1241.313	0	14.7	4	4.5	4	-1E+10	1	-1E+10	1	-1E+10	1	-1E+10	1	-1E+10	1	-1E+10	1
4902551	113	C	10/01/2023	21:08	-131.046	47.179	0	1265.40	0	2.7770	0	34.4470	0	27.471	0	1251.071	0	15.0	4	4.6	4	-1E+10	1	-1E+10	1	-1E+10	1	-1E+10	1	-1E+10	1	-1E+10	1
4902551	113	C	10/01/2023	21:08	-131.046	47.179	0	1275.10	0	2.7690	0	34.4490	0	27.474	0	1260.632	0	15.3	4	4.7	4	-1E+10	1	-1E+10	1	-1E+10	1	-1E+10	1	-1E+10	1	-1E+10	1
4902551	113	C	10/01/2023	21:08	-131.046	47.179	0	1285.10	0	2.7570	0	34.4520	0	27.477	0	1270.489	0	15.8	4	4.9	4	-1E+10	1	-1E+10	1	-1E+10	1	-1E+10	1	-1E+10	1	-1E+10	1
4902551	113	C	10/01/2023	21:08	-131.046	47.179	0	1295.20	0	2.7460	0	34.4560	0	27.481	0	1280.443	0	16.4	4	5.0	4	-1E+10	1	-1E+10	1	-1E+10	1	-1E+10	1	-1E+10	1	-1E+10	1
4902551	113	C	10/01/2023	21:08	-131.046	47.179	0	1305.60	0	2.7590	0	34.4630	0	27.486	0	1290.693	0	17.2	4	5.3	4	-1E+10	1	-1E+10	1	-1E+10	1	-1E+10	1	-1E+10	1	-1E+10	1
4902551	113	C	10/01/2023	21:08	-131.046	47.179	0	1315.70	0	2.7540	0	34.4680	0	27.490	0	1300.646	0	17.5	4	5.4	4	-1E+10	1	-1E+10	1	-1E+10	1	-1E+10	1	-1E+10	1	-1E+10	1
4902551	113	C	10/01/2023	21:08	-131.046	47.179	0	1325.40	0	2.7290	0	34.4690	0	27.493	0	1310.205	0	17.9	4	5.5	4	-1E+10	1	-1E+10	1	-1E+10	1	-1E+10	1	-1E+10	1	-1E+10	1
4902551	113	C	10/01/2023	21:08	-131.046	47.179	0	1335.40	0	2.7140	0	34.4720	0	27.497	0	1320.059	0	18.3	4	5.6	4	-1E+10	1	-1E+10	1	-1E+10	1	-1E+10	1	-1E+10	1	-1E+10	1
4902551	113	C	10/01/2023	21:08	-131.046	47.179	0	1345.60	0	2.7040	0	34.4740	0	27.500	0	1330.110	0	18.6	4	5.7	4	-1E+10	1	-1E+10	1	-1E+10	1	-1E+10	1	-1E+10	1	-1E+10	1
4902551	113	C	10/01/2023	21:08	-131.046	47.179	0	1355.40	0	2.6840	0	34.4760	0	27.503	0	1339.766	0	19.2	4	5.9	4	-1E+10	1	-1E+10	1	-1E+10	1	-1E+10	1	-1E+10	1	-1E+10	1
4902551	113	C	10/01/2023	21:08	-131.046	47.179	0	1365.20	0	2.6820	0	34.4790	0	27.506	0	1349.422	0	19.7	4	6.0	4	-1E+10	1	-1E+10	1	-1E+10	1	-1E+10	1	-1E+10	1	-1E+10	1
4902551	113	C	10/01/2023	21:08	-131.046	47.179	0	1375.20	0	2.6950	0	34.4840	0	27.509	0	1359.274	0	20.5	4	6.3	4	-1E+10	1	-1E+10	1	-1E+10	1	-1E+10	1	-1E+10	1	-1E+10	1
4902551	113	C	10/01/2023	21:08	-131.046	47.179	0	1385.70	0	2.6890	0	34.4870	0	27.512	0	1369.618	0	20.8	4	6.4	4	-1E+10	1	-1E+10	1	-1E+10	1	-1E+10	1	-1E+10	1	-1E+10	1
4902551	113	C	10/01/2023	21:08	-131.046	47.179	0	1395.50	0	2.6780	0	34.4880	0	27.513	0	1379.273	0	21.2	4	6.5	4	-1E+10	1	-1E+10	1	-1E+10	1	-1E+10	1	-1E+10	1	-1E+10	1
4902551	113	C	10/01/2023	21:08	-131.046	47.179	0	1405.20	0	2.6570	0	34.4900	0	27.517	0	1388.828	0	21.7	4	6.6	4	-1E+10	1	-1E+10	1	-1E+10	1	-1E+10	1	-1E+10	1	-1E+10	1
4902551	113	C	10/01/2023	21:08	-131.046	47.179	0	1415.20	0	2.6390	0	34.4920	0	27.520	0	1398.678	0	22.1	4	6.8	4	-1E+10	1	-1E+10	1	-1E+10	1	-1E+10	1	-1E+10	1	-1E+10	1
4902551	113	C	10/01/2023	21:08	-131.046	47.179	0	1425.20	0	2.6170	0	34.4940	0	27.524	0	1408.528	0	22.5	4	6.9	4	-1E+10	1	-1E+10	1	-1E+10	1	-1E+10	1	-1E+10	1	-1E+10	1
4902551	113	C	10/01/2023	21:08	-131.046	47.179	0	1435.10	0	2.6020	0	34.4960	0	27.527	0	1418.279	0	22.7	4	7.0	4	-1E+10	1	-1E+10	1	-1E+10	1	-1E+10	1	-1E+10	1	-1E+10	1
4902551	113	C	10/01/2023	21:08	-131.046	47.179	0	1445.00	0	2.5830	0	34.4970	0	27.529	0	1428.030	0	23.1	4	7.1	4	-1E+10	1	-1E+10	1	-1E+10	1	-1E+10	1	-1E+10	1	-1E+10	1
4902551	113	C	10/01/2023	21:08	-131.046	47.179	0	1455.20	0	2.5680	0	34.4990	0	27.532	0	1438.075	0	23.7	4	7.2	4	-1E+10	1	-1E+10	1	-1E+10	1	-1E+10	1	-1E+10	1	-1E+10	1
4902551	113	C	10/01/2023	21:08	-131.046	47.179	0	1465.50	0	2.5440	0	34.5010	0	27.536	0	1448.219	0	24.1	4	7.3	4	-1E+10	1	-1E+10	1	-1E+10	1	-1E+10	1	-1E+10	1	-1E+10	1
4902551	113	C	10/01/2023	21:08	-131.046	47.179	0	1475.70	0	2.5210	0	34.5020	0	27.538	0	1458.263	0	24.4	4	7.4	4	-1E+10	1	-1E+10	1	-1E+10	1	-1E+10	1	-1E+10	1	-1E+10	1
4902551	113	C	10/01/2023	21:08	-131.046	47.179	0	1485.40	0	2.4930	0	34.5020	0	27.541	0	1467.815	0	24.9	4	7.6	4	-1E+10	1	-1E+10	1	-1E+10	1	-1E+10	1	-1E+10	1	-1E+10	1
4902551	113	C	10/01/2023	21:08	-131.046	47.179	0	1495.20	0	2.4910	0	34.5070	0	27.545	0	1477.464	0	26.0	4	7.9	4	-1E+10	1	-1E+10	1	-1E+10	1	-1E+10	1	-1E+10	1	-1E+10	1
4902551	113	C	10/01/2023	21:08	-131.046	47.179	0	1505.40	0	2.4830	0	34.5110	0	27.549	0	1487.508	0	26.0	4	7.9	4	-1E+10	1	-1E+10	1	-1E+10	1	-1E+10	1	-1E+10	1	-1E+10	1
4902551	113	C	10/01/2023	21:08	-131.046	47.179	0	1515.20	0	2.4410	0	34.5080	0	27.550	0	1497.156	0	25.9	4	7.9	4	-1E+10	1	-1E+10	1	-1E+10	1	-1E+10	1	-1E+10	1	-1E+10	1
4902551	113	C	10/01/2023	21:08	-131.046	47.179	0	1525.30	0	2.4220	0	34.5090	0	27.553	0	1507.100	0	26.3	4	8.0	4	-1E+10	1	-1E+10	1	-1E+10	1	-1E+10	1	-1E+10	1	-1E+10	1
4902551	113	C	10/01/2023	21:08	-131.046	47.179	0	1535.70	0	2.4090	0	34.5100	0	27.554	0	1517.339	0	26.7	4	8.1	4	-1E+10	1	-1E+10	1	-1E+10	1	-1E+10	1	-1E+10	1	-1E+10	1
4902551	113	C	10/01/2023	21:08	-131.046	47.179	0	1545.30	0	2.3910	0	34.5110	0	27.557	0	1526.789	0	27.3	4	8.3	4	-1E+10	1	-1E+10	1	-1E+10	1	-1E+10	1	-1E+10	1	-1E+10	1
4902551	113	C	10/01/2023	21:08	-131.046	47.179	0	1555.20	0	2.3680	0	34.5140	0	27.561	0	1536.535	0	28.0	4	8.5	4	-1E+10	1	-1E+10	1	-1E+10	1	-1E+10	1	-1E+10	1	-1E+10	1
4902551	113	C	10/01/2023	21:08	-131.046	47.179	0	1565.20	0	2.3520	0	34.5160	0	27.564	0	1546.378	0	28.5	4	8.7	4	-1E+10	1	-1E+10	1	-1E+10	1	-1E+10	1	-1E+10	1	-1E+10	1
4902551	113	C	10/01/2023	21:08	-131.046	47.179	0	1575.00	0	2.3440	0	34.5180	0	27.566	0	1556.025	0	28.8	4	8.8	4	-1E+10	1	-1E+10	1	-1E+10	1	-1E+10	1	-1E+10	1	-1E+10	1
4902551	113	C	10/01/2023	21:08	-131.046	47.179	0	1585.00	0	2.3360	0	34.5190	0	27.568	0	1565.867	0	29.2	4	8.9	4	-1E+10	1	-1E+10	1	-1E+10	1	-1E+10	1	-1E+10	1	-1E+10	1
4902551	113	C	10/01/2023	21:08	-131.046	47.179	0	1595.30	0	2.3270	0	34.5200	0	27.570	0	1576.004	0	29.7	4	9.0	4	-1E+10	1	-1E+10	1	-1E+10	1	-1E+10	1	-1E+10	1	-1E+10	1
4902551	113	C	10/01/2023	21:08	-131.046	47.179	0	1605.40	0	2.3170	0	34.5220	0	27.572	0	1585.944	0	30.3	4	9.2	4	-1E+10	1	-1E+10	1	-1E+10	1	-1E+10	1	-1E+10	1	-1E+10	1
4902551	113	C	10/01/2023	21:08	-131.046	47.179	0	1615.00	0	2.3090	0	34.5240	0	27.574	0	1595.392	0	30.8	4	9.3	4	-1E+10	1	-1E+10	1	-1E+10	1	-1E+10	1	-1E+10	1	-1E+10	1
4902551	113	C	10/01/2023	21:08	-131.046	47.179	0	1625.40	0	2.3010	0	34.5250	0	27.576	0	1605.626	0	31.4	4	9.5	4	-1E+10	1	-1E+10	1	-1E+10	1	-1E+10	1	-1E+10	1	-1E+10	1
4902551	113	C	10/01/2023	21:08	-131.046	47.179	0	1635.70	0	2.2870	0	34.5270	0	27.579	0	1615.762	0	32.1	4	9.7	4	-1E+10	1	-1E+10	1	-1E+10	1	-1E+10	1	-1E+10	1	-1E+10	1
4902551	113	C	10/01/2023	21:08	-131.046	47.179	0	1645.50	0	2.2800	0	34.5290	0	27.581	0	1625.405	0	32.7	4	9.9	4	-1E+10	1	-1E+10	1	-1E+10	1	-1E+10	1	-1E+10	1	-1E+10	1
4902551	113	C	10/01/2023	21:08	-131.046	47.179	0	1655.40	0	2.2680	0	34.5310	0	27.583	0	1635.146	0	33.2	4	10.1	4	-1E+10	1	-1E+10	1	-1E+10	1	-1E+10	1	-1E+10	1	-1E+10	1
4902551	113	C	10/01/2023	21:08	-131.046	47.179	0	1665.30	0	2.2590	0	34.5320	0	27.585	0	1644.886	0	33.7	4	10.2	4	-1E+10	1	-1E+10	1	-1E+10	1	-1E+10	1	-1E+10	1	-1E+10	1
4902551	113	C	10/01/2023	21:08	-131.046	47.179	0	1675.40	0	2.2480	0	34.5340	0	27.588	0	1654.823	0	34.4	4	10.4	4	-1E+10	1	-1E+10	1	-1E+10	1	-1E+10	1	-1E+10	1	-1E+10	1
4902551	113	C	10/01/2023	21:08	-131.046	47.179	0	1685.50	0	2.2350	0	34.5360	0	27.590	0	1664.759	0	35.1	4	10.6	4	-1E+10	1	-1E+10	1	-1E+10	1	-1E+10	1	-1E+10	1	-1E+10	1
4902551	113	C	10/01/2023	21:08	-131.046	47.179	0	1695.60	0	2.2210	0	34.5380	0	27.593	0	1674.695	0	35.7	4	10.8	4	-1E+10	1	-1E+10	1	-1E+10	1	-1E+10	1	-1E+10	1	-1E+10	1
4902551	113	C	10/01/2023	21:08	-131.046	47.179	0	1705.50	0	2.2070	0	34.5400	0	27.596	0	1684.434	0	36.4	4	11.0	4	-1E+10	1	-1E+10	1	-1E+10	1	-1E+10	1	-1E+10	1	-1E+10	1
4902551	113	C	10/01/2023	21:08	-131.046	47.179	0	1715.30	0	2.1960	0	34.5420	0	27.598	0	1694.074	0	37.2	4	11.3	4	-1E+10	1	-1E+10	1	-1E+10	1	-1E+10	1	-1E+10	1	-1E+10	1
4902551	113	C	10/01/2023	21:08	-131.046	47.179	0	1725.50	0	2.1810	0	34.5440	0	27.601	0	1704.106	0	37.9	4	11.5	4	-1E+10	1	-1E+10	1	-1E+10	1	-1E+10	1	-1E+10	1	-1E+10	1
4902551	113	C	10/01/2023	21:08	-131.046	47.179	0	1735.40	0	2.1700	0	34.5460	0	27.604	0	1713.844	0	38.6	4	11.7	4	-1E+10	1	-1E+10	1	-1E+10	1	-1E+10	1	-1E+10	1	-1E+10	1
4902551	113	C	10/01/2023	21:08	-131.046	47.179	0	1745.40	0	2.1630	0	34.5480	0	27.606	0	1723.679	0	39.4	4	11.9	4	-1E+10	1	-1E+10	1	-1E+10	1	-1E+10	1	-1E+10	1	-1E+10	1
4902551	113	C	10/01/2023	21:08	-131.046	47.179	0	1755.50	0	2.1530	0	34.5500	0	27.608	0	1733.612	0	40.2	4	12.2	4	-1E+10	1	-1E+10	1	-1E+10	1	-1E+10	1	-1E+10	1	-1E+10	1
4902551	113	C	10/01/2023	21:08	-131.046	47.179	0	1765.40	0	2.1450	0	34.5520	0	27.611	0	1743.348	0	40.9	4	12.4	4	-1E+10	1	-1E+10	1	-1E+10	1	-1E+10	1	-1E+10	1	-1E+10	1
4902551	113	C	10/01/2023	21:08	-131.046	47.179	0	1775.40	0	2.1330	0	34.5530	0	27.613	0	1753.182	0	41.5	4	12.5	4	-1E+10	1	-1E+10	1	-1E+10	1	-1E+10	1	-1E+10	1	-1E+10	1
4902551	113	C	10/01/2023	21:08	-131.046	47.179	0	1785.60	0	2.1200	0	34.5550	0	27.615	0	1763.212	0	42.3	4	12.8	4	-1E+10	1	-1E+10	1	-1E+10	1	-1E+10	1	-1E+10	1	-1E+10	1
4902551	113	C	10/01/2023	21:08	-131.046	47.179	0	1795.50	0	2.1100	0	34.5570	0	27.618	0	1772.946	0	42.9	4	13.0	4	-1E+10	1	-1E+10	1	-1E+10	1	-1E+10	1	-1E+10	1	-1E+10	1
4902551	113	C	10/01/2023	21:08	-131.046	47.179	0	1805.20	0	2.1000	0	34.5580	0	27.619	0	1782.484	0	43.4	4	13.1	4	-1E+10	1	-1E+10	1	-1E+10	1	-1E+10	1	-1E+10	1	-1E+10	1
4902551	113	C	10/01/2023	21:08	-131.046	47.179	0	1815.00	0	2.0910	0	34.5600	0	27.622	0	1792.119	0	44.0	4	13.3	4	-1E+10	1	-1E+10	1	-1E+10	1	-1E+10	1	-1E+10	1	-1E+10	1
4902551	113	C	10/01/2023	21:08	-131.046	47.179	0	1825.00	0	2.0790	0	34.5610	0	27.623	0	1801.951	0	44.6	4	13.5	4	-1E+10	1	-1E+10	1	-1E+10	1	-1E+10	1	-1E+10	1	-1E+10	1
4902551	113	C	10/01/2023	21:08	-131.046	47.179	0	1835.00	0	2.0730	0	34.5620	0	27.625	0	1811.782	0	45.0	4	13.6	4	-1E+10	1	-1E+10	1	-1E+10	1	-1E+10	1	-1E+10	1	-1E+10	1
4902551	113	C	10/01/2023	21:08	-131.046	47.179	0	1845.10	0	2.0680	0	34.5630	0	27.626	0	1821.711	0	45.7	4	13.8	4	-1E+10	1	-1E+10	1	-1E+10	1	-1E+10	1	-1E+10	1	-1E+10	1
4902551	113	C	10/01/2023	21:08	-131.046	47.179	0	1855.30	0	2.0600	0	34.5650	0	27.628	0	1831.738	0	46.5	4	14.0	4	-1E+10	1	-1E+10	1	-1E+10	1	-1E+10	1	-1E+10	1	-1E+10	1
4902551	113	C	10/01/2023	21:08	-131.046	47.179	0	1865.80	0	2.0420	0	34.5680	0	27.632	0	1842.059	0	47.5	4	14.3	4	-1E+10	1	-1E+10	1	-1E+10	1	-1E+10	1	-1E+10	1	-1E+10	1
4902551	113	C	10/01/2023	21:08	-131.046	47.179	0	1875.60	0	2.0300	0	34.5700	0	27.635	0	1851.691	0	48.1	4	14.5	4	-1E+10	1	-1E+10	1	-1E+10	1	-1E+10	1	-1E+10	1	-1E+10	1
4902551	113	C	10/01/2023	21:08	-131.046	47.179	0	1885.10	0	2.0230	0	34.5710	0	27.636	0	1861.029	0	48.5	4	14.6	4	-1E+10	1	-1E+10	1	-1E+10	1	-1E+10	1	-1E+10	1	-1E+10	1
4902551	113	C	10/01/2023	21:08	-131.046	47.179	0	1895.30	0	2.0190	0	34.5720	0	27.637	0	1871.054	0	48.9	4	14.7	4	-1E+10	1	-1E+10	1	-1E+10	1	-1E+10	1	-1E+10	1	-1E+10	1
4902551	113	C	10/01/2023	21:08	-131.046	47.179	0	1905.30	0	2.0140	0	34.5720	0	27.638	0	1880.882	0	49.3	4	14.9	4	-1E+10	1	-1E+10	1	-1E+10	1	-1E+10	1	-1E+10	1	-1E+10	1
4902551	113	C	10/01/2023	21:08	-131.046	47.179	0	1915.40	0	2.0080	0	34.5730	0	27.639	0	1890.807	0	49.8	4	15.0	4	-1E+10	1	-1E+10	1	-1E+10	1	-1E+10	1	-1E+10	1	-1E+10	1
4902551	113	C	10/01/2023	21:08	-131.046	47.179	0	1925.60	0	2.0010	0	34.5750	0	27.641	0	1900.831	0	50.4	4	15.2	4	-1E+10	1	-1E+10	1	-1E+10	1	-1E+10	1	-1E+10	1	-1E+10	1
4902551	113	C	10/01/2023	21:08	-131.046	47.179	0	1935.50	0	1.9950	0	34.5760	0	27.643	0	1910.559	0	50.9	4	15.3	4	-1E+10	1	-1E+10	1	-1E+10	1	-1E+10	1	-1E+10	1	-1E+10	1
4902551	113	C	10/01/2023	21:08	-131.046	47.179	0	1945.50	0	1.9880	0	34.5770	0	27.644	0	1920.385	0	51.5	4	15.5	4	-1E+10	1	-1E+10	1	-1E+10	1	-1E+10	1	-1E+10	1	-1E+10	1
4902551	113	C	10/01/2023	21:08	-131.046	47.179	0	1955.40	0	1.9780	0	34.5790	0	27.646	0	1930.113	0	52.2	4	15.7	4	-1E+10	1	-1E+10	1	-1E+10	1	-1E+10	1	-1E+10	1	-1E+10	1
4902551	113	C	10/01/2023	21:08	-131.046	47.179	0	1965.50	0	1.9710	0	34.5810	0	27.649	0	1940.036	0	52.6	4	15.9	4	-1E+10	1	-1E+10	1	-1E+10	1	-1E+10	1	-1E+10	1	-1E+10	1
4902551	113	C	10/01/2023	21:08	-131.046	47.179	0	1975.90	0	1.9650	0	34.5820	0	27.650	0	1950.254	0	52.7	4	15.9	4	-1E+10	1	-1E+10	1	-1E+10	1	-1E+10	1	-1E+10	1	-1E+10	1
4902551	113	C	10/01/2023	21:08	-131.046	47.179	0	1982.20	0	1.9640	0	34.5820	0	27.650	0	1956.443	0	52.7	4	15.9	4	-1E+10	1	-1E+10	1	-1E+10	1	-1E+10	1	-1E+10	1	-1E+10	1
4902551	113	C	10/01/2023	21:08	-131.046	47.179	0																										
4902551	114	C	10/12/2023	02:04	-131.052	47.145	0	0.00	0	15.2510	0	32.3030	0	23.840	0	0.000	0	242.7	4	96.6	4	-1E+10	1	-1E+10	1	-1E+10	1	-1E+10	1	-1E+10	1	-1E+10	1
4902551	114	C	10/12/2023	02:04	-131.052	47.145	0	0.10	0	15.2500	0	32.3000	0	23.838	0	0.099	0	-1e10	1	-1e10	1	-1E+10	1	-1E+10	1	-1E+10	1	-1E+10	1	-1E+10	1	-1E+10	1
4902551	114	C	10/12/2023	02:04	-131.052	47.145	0	0.40	0	15.2670	0	32.2940	0	23.830	0	0.397	0	237.0	4	94.4	4	-1E+10	1	-1E+10	1	-1E+10	1	-1E+10	1	-1E+10	1	-1E+10	1
4902551	114	C	10/12/2023	02:04	-131.052	47.145	0	1.10	0	15.2640	0	32.2990	0	23.834	0	1.091	0	237.0	4	94.4	4	-1E+10	1	-1E+10	1	-1E+10	1	-1E+10	1	-1E+10	1	-1E+10	1
4902551	114	C	10/12/2023	02:04	-131.052	47.145	0	2.10	0	15.2620	0	32.3000	0	23.835	0	2.083	0	237.0	4	94.4	4	-1E+10	1	-1E+10	1	-1E+10	1	-1E+10	1	-1E+10	1	-1E+10	1
4902551	114	C	10/12/2023	02:04	-131.052	47.145	0	3.10	0	15.2650	0	32.3000	0	23.835	0	3.074	0	237.0	4	94.4	4	-1E+10	1	-1E+10	1	-1E+10	1	-1E+10	1	-1E+10	1	-1E+10	1
4902551	114	C	10/12/2023	02:04	-131.052	47.145	0	4.00	0	15.2670	0	32.3000	0	23.834	0	3.967	0	237.0	4	94.4	4	-1E+10	1	-1E+10	1	-1E+10	1	-1E+10	1	-1E+10	1	-1E+10	1
4902551	114	C	10/12/2023	02:04	-131.052	47.145	0	5.10	0	15.2650	0	32.3030	0	23.837	0	5.058	0	236.9	4	94.3	4	-1E+10	1	-1E+10	1	-1E+10	1	-1E+10	1	-1E+10	1	-1E+10	1
4902551	114	C	10/12/2023	02:04	-131.052	47.145	0	6.00	0	15.2700	0	32.3020	0	23.835	0	5.950	0	237.0	4	94.4	4	-1E+10	1	-1E+10	1	-1E+10	1	-1E+10	1	-1E+10	1	-1E+10	1
4902551	114	C	10/12/2023	02:04	-131.052	47.145	0	7.10	0	15.2650	0	32.3030	0	23.837	0	7.041	0	236.9	4	94.3	4	-1E+10	1	-1E+10	1	-1E+10	1	-1E+10	1	-1E+10	1	-1E+10	1
4902551	114	C	10/12/2023	02:04	-131.052	47.145	0	7.70	0	15.2650	0	32.3030	0	23.837	0	7.636	0	237.0	4	94.4	4	-1E+10	1	-1E+10	1	-1E+10	1	-1E+10	1	-1E+10	1	-1E+10	1
4902551	114	C	10/12/2023	02:04	-131.052	47.145	0	9.10	0	15.2680	0	32.3020	0	23.836	0	9.024	0	236.9	4	94.3	4	-1E+10	1	-1E+10	1	-1E+10	1	-1E+10	1	-1E+10	1	-1E+10	1
4902551	114	C	10/12/2023	02:04	-131.052	47.145	0	10.00	0	15.2710	0	32.3020	0	23.835	0	9.917	0	237.0	4	94.4	4	-1E+10	1	-1E+10	1	-1E+10	1	-1E+10	1	-1E+10	1	-1E+10	1
4902551	114	C	10/12/2023	02:04	-131.052	47.145	0	10.70	0	15.2690	0	32.3030	0	23.837	0	10.611	0	237.0	4	94.4	4	-1E+10	1	-1E+10	1	-1E+10	1	-1E+10	1	-1E+10	1	-1E+10	1
4902551	114	C	10/12/2023	02:04	-131.052	47.145	0	11.90	0	15.2690	0	32.3030	0	23.837	0	11.801	0	237.0	4	94.4	4	-1E+10	1	-1E+10	1	-1E+10	1	-1E+10	1	-1E+10	1	-1E+10	1
4902551	114	C	10/12/2023	02:04	-131.052	47.145	0	13.00	0	15.2660	0	32.3030	0	23.837	0	12.892	0	237.0	4	94.4	4	-1E+10	1	-1E+10	1	-1E+10	1	-1E+10	1	-1E+10	1	-1E+10	1
4902551	114	C	10/12/2023	02:04	-131.052	47.145	0	14.00	0	15.2630	0	32.3040	0	23.839	0	13.883	0	237.0	4	94.4	4	-1E+10	1	-1E+10	1	-1E+10	1	-1E+10	1	-1E+10	1	-1E+10	1
4902551	114	C	10/12/2023	02:04	-131.052	47.145	0	15.10	0	15.2590	0	32.3030	0	23.839	0	14.974	0	237.0	4	94.4	4	-1E+10	1	-1E+10	1	-1E+10	1	-1E+10	1	-1E+10	1	-1E+10	1
4902551	114	C	10/12/2023	02:04	-131.052	47.145	0	16.00	0	15.2510	0	32.3040	0	23.841	0	15.866	0	237.0	4	94.3	4	-1E+10	1	-1E+10	1	-1E+10	1	-1E+10	1	-1E+10	1	-1E+10	1
4902551	114	C	10/12/2023	02:04	-131.052	47.145	0	16.80	0	15.2490	0	32.3040	0	23.842	0	16.660	0	237.0	4	94.4	4	-1E+10	1	-1E+10	1	-1E+10	1	-1E+10	1	-1E+10	1	-1E+10	1
4902551	114	C	10/12/2023	02:04	-131.052	47.145	0	18.00	0	15.2470	0	32.3050	0	23.843	0	17.850	0	237.0	4	94.4	4	-1E+10	1	-1E+10	1	-1E+10	1	-1E+10	1	-1E+10	1	-1E+10	1
4902551	114	C	10/12/2023	02:04	-131.052	47.145	0	19.10	0	15.2420	0	32.3050	0	23.844	0	18.940	0	237.1	4	94.4	4	-1E+10	1	-1E+10	1	-1E+10	1	-1E+10	1	-1E+10	1	-1E+10	1
4902551	114	C	10/12/2023	02:04	-131.052	47.145	0	20.00	0	15.2430	0	32.3040	0	23.843	0	19.833	0	237.0	4	94.3	4	-1E+10	1	-1E+10	1	-1E+10	1	-1E+10	1	-1E+10	1	-1E+10	1
4902551	114	C	10/12/2023	02:04	-131.052	47.145	0	20.90	0	15.2320	0	32.3050	0	23.846	0	20.725	0	237.0	4	94.3	4	-1E+10	1	-1E+10	1	-1E+10	1	-1E+10	1	-1E+10	1	-1E+10	1
4902551	114	C	10/12/2023	02:04	-131.052	47.145	0	22.10	0	15.2310	0	32.3050	0	23.847	0	21.915	0	237.2	4	94.4	4	-1E+10	1	-1E+10	1	-1E+10	1	-1E+10	1	-1E+10	1	-1E+10	1
4902551	114	C	10/12/2023	02:04	-131.052	47.145	0	23.00	0	15.2280	0	32.3060	0	23.848	0	22.808	0	237.1	4	94.3	4	-1E+10	1	-1E+10	1	-1E+10	1	-1E+10	1	-1E+10	1	-1E+10	1
4902551	114	C	10/12/2023	02:04	-131.052	47.145	0	23.90	0	15.2200	0	32.3070	0	23.851	0	23.700	0	237.2	4	94.4	4	-1E+10	1	-1E+10	1	-1E+10	1	-1E+10	1	-1E+10	1	-1E+10	1
4902551	114	C	10/12/2023	02:04	-131.052	47.145	0	24.80	0	15.2160	0	32.3060	0	23.851	0	24.592	0	237.3	4	94.4	4	-1E+10	1	-1E+10	1	-1E+10	1	-1E+10	1	-1E+10	1	-1E+10	1
4902551	114	C	10/12/2023	02:04	-131.052	47.145	0	25.80	0	15.2120	0	32.3070	0	23.852	0	25.584	0	237.3	4	94.4	4	-1E+10	1	-1E+10	1	-1E+10	1	-1E+10	1	-1E+10	1	-1E+10	1
4902551	114	C	10/12/2023	02:04	-131.052	47.145	0	27.00	0	15.2110	0	32.3070	0	23.853	0	26.774	0	237.5	4	94.5	4	-1E+10	1	-1E+10	1	-1E+10	1	-1E+10	1	-1E+10	1	-1E+10	1
4902551	114	C	10/12/2023	02:04	-131.052	47.145	0	28.00	0	15.2100	0	32.3070	0	23.853	0	27.765	0	237.5	4	94.5	4	-1E+10	1	-1E+10	1	-1E+10	1	-1E+10	1	-1E+10	1	-1E+10	1
4902551	114	C	10/12/2023	02:04	-131.052	47.145	0	29.00	0	15.2080	0	32.3070	0	23.853	0	28.757	0	237.7	4	94.5	4	-1E+10	1	-1E+10	1	-1E+10	1	-1E+10	1	-1E+10	1	-1E+10	1
4902551	114	C	10/12/2023	02:04	-131.052	47.145	0	30.00	0	15.2040	0	32.3070	0	23.854	0	29.748	0	237.8	4	94.6	4	-1E+10	1	-1E+10	1	-1E+10	1	-1E+10	1	-1E+10	1	-1E+10	1
4902551	114	C	10/12/2023	02:04	-131.052	47.145	0	30.90	0	15.2010	0	32.3080	0	23.856	0	30.641	0	238.0	4	94.7	4	-1E+10	1	-1E+10	1	-1E+10	1	-1E+10	1	-1E+10	1	-1E+10	1
4902551	114	C	10/12/2023	02:04	-131.052	47.145	0	32.00	0	15.2000	0	32.3070	0	23.855	0	31.732	0	238.3	4	94.8	4	-1E+10	1	-1E+10	1	-1E+10	1	-1E+10	1	-1E+10	1	-1E+10	1
4902551	114	C	10/12/2023	02:04	-131.052	47.145	0	33.00	0	15.1980	0	32.3070	0	23.856	0	32.723	0	238.5	4	94.8	4	-1E+10	1	-1E+10	1	-1E+10	1	-1E+10	1	-1E+10	1	-1E+10	1
4902551	114	C	10/12/2023	02:04	-131.052	47.145	0	34.00	0	15.1950	0	32.3070	0	23.856	0	33.715	0	238.9	4	95.0	4	-1E+10	1	-1E+10	1	-1E+10	1	-1E+10	1	-1E+10	1	-1E+10	1
4902551	114	C	10/12/2023	02:04	-131.052	47.145	0	35.00	0	15.1910	0	32.3080	0	23.858	0	34.706	0	239.3	4	95.1	4	-1E+10	1	-1E+10	1	-1E+10	1	-1E+10	1	-1E+10	1	-1E+10	1
4902551	114	C	10/12/2023	02:04	-131.052	47.145	0	36.00	0	15.1900	0	32.3070	0	23.858	0	35.698	0	239.8	4	95.3	4	-1E+10	1	-1E+10	1	-1E+10	1	-1E+10	1	-1E+10	1	-1E+10	1
4902551	114	C	10/12/2023	02:04	-131.052	47.145	0	37.00	0	15.1860	0	32.3080	0	23.859	0	36.689	0	240.4	4	95.6	4	-1E+10	1	-1E+10	1	-1E+10	1	-1E+10	1	-1E+10	1	-1E+10	1
4902551	114	C	10/12/2023	02:04	-131.052	47.145	0	37.90	0	15.1810	0	32.3080	0	23.860	0	37.581	0	241.1	4	95.9	4	-1E+10	1	-1E+10	1	-1E+10	1	-1E+10	1	-1E+10	1	-1E+10	1
4902551	114	C	10/12/2023	02:04	-131.052	47.145	0	38.70	0	15.1750	0	32.3070	0	23.861	0	38.375	0	241.9	4	96.2	4	-1E+10	1	-1E+10	1	-1E+10	1	-1E+10	1	-1E+10	1	-1E+10	1
4902551	114	C	10/12/2023	02:04	-131.052	47.145	0	40.00	0	15.1610	0	32.3080	0	23.865	0	39.664	0	243.6	4	96.8	4	-1E+10	1	-1E+10	1	-1E+10	1	-1E+10	1	-1E+10	1	-1E+10	1
4902551	114	C	10/12/2023	02:04	-131.052	47.145	0	40.90	0	15.1510	0	32.3060	0	23.865	0	40.556	0	245.5	4	97.5	4	-1E+10	1	-1E+10	1	-1E+10	1	-1E+10	1	-1E+10	1	-1E+10	1
4902551	114	C	10/12/2023	02:04	-131.052	47.145	0	41.90	0	15.0840	0	32.3060	0	23.880	0	41.547	0	248.9	4	98.7	4	-1E+10	1	-1E+10	1	-1E+10	1	-1E+10	1	-1E+10	1	-1E+10	1
4902551	114	C	10/12/2023	02:04	-131.052	47.145	0	43.10	0	14.0580	0	32.3200	0	24.107	0	42.737	0	262.4	4	102.0	4	-1E+10	1	-1E+10	1	-1E+10	1	-1E+10	1	-1E+10	1	-1E+10	1
4902551	114	C	10/12/2023	02:04	-131.052	47.145	0	44.00	0	12.1470	0	32.3690	0	24.520	0	43.630	0	271.9	4	101.7	4	-1E+10	1	-1E+10	1	-1E+10	1	-1E+10	1	-1E+10	1	-1E+10	1
4902551	114	C	10/12/2023	02:04	-131.052	47.145	0	45.00	0	10.1630	0	32.3830	0	24.883	0	44.621	0	279.2	4	100.1	4	-1E+10	1	-1E+10	1	-1E+10	1	-1E+10	1	-1E+10	1	-1E+10	1
4902551	114	C	10/12/2023	02:04	-131.052	47.145	0	45.90	0	9.8180	0	32.3780	0	24.936	0	45.513	0	279.3	4	99.4	4	-1E+10	1	-1E+10	1	-1E+10	1	-1E+10	1	-1E+10	1	-1E+10	1
4902551	114	C	10/12/2023	02:04	-131.052	47.145	0	47.10	0	9.2790	0	32.3860	0	25.029	0	46.703	0	279.3	4	98.3	4	-1E+10	1	-1E+10	1	-1E+10	1	-1E+10	1	-1E+10	1	-1E+10	1
4902551	114	C	10/12/2023	02:04	-131.052	47.145	0	48.00	0	9.1410	0	32.3860	0	25.051	0	47.595	0	277.6	4	97.4	4	-1E+10	1	-1E+10	1	-1E+10	1	-1E+10	1	-1E+10	1	-1E+10	1
4902551	114	C	10/12/2023	02:04	-131.052	47.145	0	49.00	0	9.0610	0	32.3850	0	25.063	0	48.587	0	276.6	4	96.8	4	-1E+10	1	-1E+10	1	-1E+10	1	-1E+10	1	-1E+10	1	-1E+10	1
4902551	114	C	10/12/2023	02:04	-131.052	47.145	0	49.80	0	8.9870	0	32.3840	0	25.073	0	49.380	0	275.7	4	96.4	4	-1E+10	1	-1E+10	1	-1E+10	1	-1E+10	1	-1E+10	1	-1E+10	1
4902551	114	C	10/12/2023	02:04	-131.052	47.145	0	50.80	0	8.8060	0	32.3830	0	25.100	0	50.371	0	275.2	4	95.8	4	-1E+10	1	-1E+10	1	-1E+10	1	-1E+10	1	-1E+10	1	-1E+10	1
4902551	114	C	10/12/2023	02:04	-131.052	47.145	0	51.90	0	8.5910	0	32.3850	0	25.135	0	51.462	0	274.8	4	95.2	4	-1E+10	1	-1E+10	1	-1E+10	1	-1E+10	1	-1E+10	1	-1E+10	1
4902551	114	C	10/12/2023	02:04	-131.052	47.145	0	53.10	0	8.5160	0	32.3820	0	25.144	0	52.652	0	273.8	4	94.7	4	-1E+10	1	-1E+10	1	-1E+10	1	-1E+10	1	-1E+10	1	-1E+10	1
4902551	114	C	10/12/2023	02:04	-131.052	47.145	0	54.00	0	8.4640	0	32.3800	0	25.150	0	53.544	0	272.8	4	94.3	4	-1E+10	1	-1E+10	1	-1E+10	1	-1E+10	1	-1E+10	1	-1E+10	1
4902551	114	C	10/12/2023	02:04	-131.052	47.145	0	55.20	0	8.3640	0	32.3800	0	25.165	0	54.734	0	271.7	4	93.7	4	-1E+10	1	-1E+10	1	-1E+10	1	-1E+10	1	-1E+10	1	-1E+10	1
4902551	114	C	10/12/2023	02:04	-131.052	47.145	0	56.10	0	8.2920	0	32.3840	0	25.178	0	55.626	0	271.0	4	93.3	4	-1E+10	1	-1E+10	1	-1E+10	1	-1E+10	1	-1E+10	1	-1E+10	1
4902551	114	C	10/12/2023	02:04	-131.052	47.145	0	56.80	0	8.2590	0	32.3760	0	25.177	0	56.320	0	269.8	4	92.8	4	-1E+10	1	-1E+10	1	-1E+10	1	-1E+10	1	-1E+10	1	-1E+10	1
4902551	114	C	10/12/2023	02:04	-131.052	47.145	0	57.90	0	8.2010	0	32.3790	0	25.188	0	57.411	0	268.1	4	92.1	4	-1E+10	1	-1E+10	1	-1E+10	1	-1E+10	1	-1E+10	1	-1E+10	1
4902551	114	C	10/12/2023	02:04	-131.052	47.145	0	59.00	0	8.1460	0	32.3810	0	25.197	0	58.501	0	266.9	4	91.6	4	-1E+10	1	-1E+10	1	-1E+10	1	-1E+10	1	-1E+10	1	-1E+10	1
4902551	114	C	10/12/2023	02:04	-131.052	47.145	0	60.00	0	8.1010	0	32.3860	0	25.208	0	59.493	0	265.9	4	91.1	4	-1E+10	1	-1E+10	1	-1E+10	1	-1E+10	1	-1E+10	1	-1E+10	1
4902551	114	C	10/12/2023	02:04	-131.052	47.145	0	61.10	0	8.0940	0	32.4000	0	25.220	0	60.583	0	265.1	4	90.9	4	-1E+10	1	-1E+10	1	-1E+10	1	-1E+10	1	-1E+10	1	-1E+10	1
4902551	114	C	10/12/2023	02:04	-131.052	47.145	0	61.80	0	8.0250	0	32.4000	0	25.230	0	61.277	0	264.8	4	90.6	4	-1E+10	1	-1E+10	1	-1E+10	1	-1E+10	1	-1E+10	1	-1E+10	1
4902551	114	C	10/12/2023	02:04	-131.052	47.145	0	62.90	0	7.9910	0	32.3990	0	25.234	0	62.368	0	264.3	4	90.4	4	-1E+10	1	-1E+10	1	-1E+10	1	-1E+10	1	-1E+10	1	-1E+10	1
4902551	114	C	10/12/2023	02:04	-131.052	47.145	0	64.10	0	7.9770	0	32.4060	0	25.242	0	63.557	0	264.0	4	90.2	4	-1E+10	1	-1E+10	1	-1E+10	1	-1E+10	1	-1E+10	1	-1E+10	1
4902551	114	C	10/12/2023	02:04	-131.052	47.145	0	64.90	0	7.9680	0	32.4050	0	25.242	0	64.350	0	263.8	4	90.2	4	-1E+10	1	-1E+10	1	-1E+10	1	-1E+10	1	-1E+10	1	-1E+10	1
4902551	114	C	10/12/2023	02:04	-131.052	47.145	0	66.10	0	7.9480	0	32.4060	0	25.246	0	65.540	0	263.5	4	90.0	4	-1E+10	1	-1E+10	1	-1E+10	1	-1E+10	1	-1E+10	1	-1E+10	1
4902551	114	C	10/12/2023	02:04	-131.052	47.145	0	67.00	0	7.9120	0	32.4060	0	25.251	0	66.432	0	263.4	4	89.9	4	-1E+10	1	-1E+10	1	-1E+10	1	-1E+10	1	-1E+10	1	-1E+10	1
4902551	114	C	10/12/2023	02:04	-131.052	47.145	0	67.70	0	7.8870	0	32.4070	0	25.255	0	67.126	0	263.4	4	89.8	4	-1E+10	1	-1E+10	1	-1E+10	1	-1E+10	1	-1E+10	1	-1E+10	1
4902551	114	C	10/12/2023	02:04	-131.052	47.145	0	68.70	0	7.8670	0	32.4080	0	25.259	0	68.118	0	263.2	4	89.8	4	-1E+10	1	-1E+10	1	-1E+10	1	-1E+10	1	-1E+10	1	-1E+10	1
4902551	114	C	10/12/2023	02:04	-131.052	47.145	0	69.70	0	7.8640	0	32.4070	0	25.259	0	69.109	0	263.2	4	89.7	4	-1E+10	1	-1E+10	1	-1E+10	1	-1E+10	1	-1E+10	1	-1E+10	1
4902551	114	C	10/12/2023	02:04	-131.052	47.145	0	70.70	0	7.8510	0	32.4060	0	25.260	0	70.100	0	263.0	4	89.6	4	-1E+10	1	-1E+10	1	-1E+10	1	-1E+10	1	-1E+10	1	-1E+10	1
4902551	114	C	10/12/2023	02:04	-131.052	47.145	0	71.80	0	7.8310	0	32.4050	0	25.262	0	71.191	0	262.9	4	89.6	4	-1E+10	1	-1E+10	1	-1E+10	1	-1E+10	1	-1E+10	1	-1E+10	1
4902551	114	C	10/12/2023	02:04	-131.052	47.145	0	72.90	0	7.7720	0	32.4090	0	25.273	0	72.281	0	262.9	4	89.4	4	-1E+10	1	-1E+10	1	-1E+10	1	-1E+10	1	-1E+10	1	-1E+10	1
4902551	114	C	10/12/2023	02:04	-131.052	47.145	0	73.90	0	7.7570	0	32.4090	0	25.275	0	73.273	0	262.8	4	89.4	4	-1E+10	1	-1E+10	1	-1E+10	1	-1E+10	1	-1E+10	1	-1E+10	1
4902551	114	C	10/12/2023	02:04	-131.052	47.145	0	75.00	0	7.7460	0	32.4090	0	25.277	0	74.363	0	262.8	4	89.4	4	-1E+10	1	-1E+10	1	-1E+10	1	-1E+10	1	-1E+10	1	-1E+10	1
4902551	114	C	10/12/2023	02:04	-131.052	47.145	0	76.00	0	7.7320	0	32.4120	0	25.281	0	75.354	0	262.7	4	89.3	4	-1E+10	1	-1E+10	1	-1E+10	1	-1E+10	1	-1E+10	1	-1E+10	1
4902551	114	C	10/12/2023	02:04	-131.052	47.145	0	77.00	0	7.7130	0	32.4110	0	25.283	0	76.346	0	262.7	4	89.3	4	-1E+10	1	-1E+10	1	-1E+10	1	-1E+10	1	-1E+10	1	-1E+10	1
4902551	114	C	10/12/2023	02:04	-131.052	47.145	0	78.00	0	7.6810	0	32.4120	0	25.289	0	77.337	0	262.6	4	89.2	4	-1E+10	1	-1E+10	1	-1E+10	1	-1E+10	1	-1E+10	1	-1E+10	1
4902551	114	C	10/12/2023	02:04	-131.052	47.145	0	79.00	0	7.6740	0	32.4110	0	25.289	0	78.328	0	262.5	4	89.1	4	-1E+10	1	-1E+10	1	-1E+10	1	-1E+10	1	-1E+10	1	-1E+10	1
4902551	114	C	10/12/2023	02:04	-131.052	47.145	0	80.00	0	7.6470	0	32.4110	0	25.293	0	79.320	0	262.3	4	89.0	4	-1E+10	1	-1E+10	1	-1E+10	1	-1E+10	1	-1E+10	1	-1E+10	1
4902551	114	C	10/12/2023	02:04	-131.052	47.145	0	80.90	0	7.6260	0	32.4120	0	25.296	0	80.212	0	262.1	4	88.9	4	-1E+10	1	-1E+10	1	-1E+10	1	-1E+10	1	-1E+10	1	-1E+10	1
4902551	114	C	10/12/2023	02:04	-131.052	47.145	0	81.90	0	7.5890	0	32.4130	0	25.302	0	81.203	0	262.0	4	88.8	4	-1E+10	1	-1E+10	1	-1E+10	1	-1E+10	1	-1E+10	1	-1E+10	1
4902551	114	C	10/12/2023	02:04	-131.052	47.145	0	82.80	0	7.5900	0	32.4140	0	25.303	0	82.095	0	268.5	4	91.0	4	-1E+10	1	-1E+10	1	-1E+10	1	-1E+10	1	-1E+10	1	-1E+10	1
4902551	114	C	10/12/2023	02:04	-131.052	47.145	0	83.90	0	7.5860	0	32.4150	0	25.304	0	83.186	0	268.1	4	90.8	4	-1E+10	1	-1E+10	1	-1E+10	1	-1E+10	1	-1E+10	1	-1E+10	1
4902551	114	C	10/12/2023	02:04	-131.052	47.145	0	85.00	0	7.5760	0	32.4150	0	25.306	0	84.276	0	267.7	4	90.7	4	-1E+10	1	-1E+10	1	-1E+10	1	-1E+10	1	-1E+10	1	-1E+10	1
4902551	114	C	10/12/2023	02:04	-131.052	47.145	0	86.10	0	7.5610	0	32.4160	0	25.309	0	85.366	0	267.3	4	90.5	4	-1E+10	1	-1E+10	1	-1E+10	1	-1E+10	1	-1E+10	1	-1E+10	1
4902551	114	C	10/12/2023	02:04	-131.052	47.145	0	86.90	0	7.5530	0	32.4170	0	25.311	0	86.159	0	266.9	4	90.4	4	-1E+10	1	-1E+10	1	-1E+10	1	-1E+10	1	-1E+10	1	-1E+10	1
4902551	114	C	10/12/2023	02:04	-131.052	47.145	0	88.20	0	7.5300	0	32.4190	0	25.315	0	87.448	0	266.3	4	90.1	4	-1E+10	1	-1E+10	1	-1E+10	1	-1E+10	1	-1E+10	1	-1E+10	1
4902551	114	C	10/12/2023	02:04	-131.052	47.145	0	89.10	0	7.5170	0	32.4230	0	25.320	0	88.340	0	265.8	4	89.9	4	-1E+10	1	-1E+10	1	-1E+10	1	-1E+10	1	-1E+10	1	-1E+10	1
4902551	114	C	10/12/2023	02:04	-131.052	47.145	0	90.00	0	7.5080	0	32.4250	0	25.323	0	89.232	0	265.2	4	89.7	4	-1E+10	1	-1E+10	1	-1E+10	1	-1E+10	1	-1E+10	1	-1E+10	1
4902551	114	C	10/12/2023	02:04	-131.052	47.145	0	90.90	0	7.4930	0	32.4310	0	25.330	0	90.124	0	264.8	4	89.5	4	-1E+10	1	-1E+10	1	-1E+10	1	-1E+10	1	-1E+10	1	-1E+10	1
4902551	114	C	10/12/2023	02:04	-131.052	47.145	0	92.10	0	7.4790	0	32.4380	0	25.337	0	91.314	0	264.2	4	89.3	4	-1E+10	1	-1E+10	1	-1E+10	1	-1E+10	1	-1E+10	1	-1E+10	1
4902551	114	C	10/12/2023	02:04	-131.052	47.145	0	93.00	0	7.4740	0	32.4410	0	25.340	0	92.206	0	263.8	4	89.2	4	-1E+10	1	-1E+10	1	-1E+10	1	-1E+10	1	-1E+10	1	-1E+10	1
4902551	114	C	10/12/2023	02:04	-131.052	47.145	0	94.00	0	7.4700	0	32.4440	0	25.343	0	93.197	0	263.2	4	89.0	4	-1E+10	1	-1E+10	1	-1E+10	1	-1E+10	1	-1E+10	1	-1E+10	1
4902551	114	C	10/12/2023	02:04	-131.052	47.145	0	95.00	0	7.4560	0	32.4530	0	25.352	0	94.189	0	262.7	4	88.8	4	-1E+10	1	-1E+10	1	-1E+10	1	-1E+10	1	-1E+10	1	-1E+10	1
4902551	114	C	10/12/2023	02:04	-131.052	47.145	0	96.10	0	7.4200	0	32.4610	0	25.364	0	95.279	0	262.2	4	88.5	4	-1E+10	1	-1E+10	1	-1E+10	1	-1E+10	1	-1E+10	1	-1E+10	1
4902551	114	C	10/12/2023	02:04	-131.052	47.145	0	96.90	0	7.4070	0	32.4620	0	25.366	0	96.072	0	261.6	4	88.3	4	-1E+10	1	-1E+10	1	-1E+10	1	-1E+10	1	-1E+10	1	-1E+10	1
4902551	114	C	10/12/2023	02:04	-131.052	47.145	0	97.70	0	7.3940	0	32.4680	0	25.373	0	96.865	0	261.1	4	88.1	4	-1E+10	1	-1E+10	1	-1E+10	1	-1E+10	1	-1E+10	1	-1E+10	1
4902551	114	C	10/12/2023	02:04	-131.052	47.145	0	98.80	0	7.3790	0	32.4860	0	25.389	0	97.955	0	260.3	4	87.9	4	-1E+10	1	-1E+10	1	-1E+10	1	-1E+10	1	-1E+10	1	-1E+10	1
4902551	114	C	10/12/2023	02:04	-131.052	47.145	0	99.80	0	7.3720	0	32.4930	0	25.395	0	98.946	0	259.6	4	87.6	4	-1E+10	1	-1E+10	1	-1E+10	1	-1E+10	1	-1E+10	1	-1E+10	1
4902551	114	C	10/12/2023	02:04	-131.052	47.145	0	100.90	0	7.3720	0	32.4940	0	25.396	0	100.037	0	258.8	4	87.3	4	-1E+10	1	-1E+10	1	-1E+10	1	-1E+10	1	-1E+10	1	-1E+10	1
4902551	114	C	10/12/2023	02:04	-131.052	47.145	0	101.90	0	7.3720	0	32.4950	0	25.397	0	101.028	0	257.7	4	87.0	4	-1E+10	1	-1E+10	1	-1E+10	1	-1E+10	1	-1E+10	1	-1E+10	1
4902551	114	C	10/12/2023	02:04	-131.052	47.145	0	102.90	0	7.3720	0	32.4950	0	25.397	0	102.019	0	256.4	4	86.5	4	-1E+10	1	-1E+10	1	-1E+10	1	-1E+10	1	-1E+10	1	-1E+10	1
4902551	114	C	10/12/2023	02:04	-131.052	47.145	0	103.80	0	7.3720	0	32.4960	0	25.398	0	102.911	0	254.9	4	86.0	4	-1E+10	1	-1E+10	1	-1E+10	1	-1E+10	1	-1E+10	1	-1E+10	1
4902551	114	C	10/12/2023	02:04	-131.052	47.145	0	104.90	0	7.3720	0	32.5000	0	25.401	0	104.001	0	252.5	4	85.2	4	-1E+10	1	-1E+10	1	-1E+10	1	-1E+10	1	-1E+10	1	-1E+10	1
4902551	114	C	10/12/2023	02:04	-131.052	47.145	0	106.20	0	7.3710	0	32.5300	0	25.425	0	105.290	0	249.4	4	84.2	4	-1E+10	1	-1E+10	1	-1E+10	1	-1E+10	1	-1E+10	1	-1E+10	1
4902551	114	C	10/12/2023	02:04	-131.052	47.145	0	107.10	0	7.3660	0	32.5780	0	25.463	0	106.182	0	247.2	4	83.4	4	-1E+10	1	-1E+10	1	-1E+10	1	-1E+10	1	-1E+10	1	-1E+10	1
4902551	114	C	10/12/2023	02:04	-131.052	47.145	0	108.00	0	7.3610	0	32.5990	0	25.480	0	107.074	0	245.0	4	82.7	4	-1E+10	1	-1E+10	1	-1E+10	1	-1E+10	1	-1E+10	1	-1E+10	1
4902551	114	C	10/12/2023	02:04	-131.052	47.145	0	108.90	0	7.3470	0	32.6210	0	25.500	0	107.966	0	242.4	4	81.8	4	-1E+10	1	-1E+10	1	-1E+10	1	-1E+10	1	-1E+10	1	-1E+10	1
4902551	114	C	10/12/2023	02:04	-131.052	47.145	0	110.10	0	7.3190	0	32.6500	0	25.526	0	109.156	0	239.5	4	80.8	4	-1E+10	1	-1E+10	1	-1E+10	1	-1E+10	1	-1E+10	1	-1E+10	1
4902551	114	C	10/12/2023	02:04	-131.052	47.145	0	111.00	0	7.3040	0	32.6640	0	25.539	0	110.048	0	237.0	4	79.9	4	-1E+10	1	-1E+10	1	-1E+10	1	-1E+10	1	-1E+10	1	-1E+10	1
4902551	114	C	10/12/2023	02:04	-131.052	47.145	0	112.00	0	7.2800	0	32.6860	0	25.560	0	111.039	0	234.8	4	79.2	4	-1E+10	1	-1E+10	1	-1E+10	1	-1E+10	1	-1E+10	1	-1E+10	1
4902551	114	C	10/12/2023	02:04	-131.052	47.145	0	113.10	0	7.2610	0	32.7060	0	25.578	0	112.129	0	232.6	4	78.4	4	-1E+10	1	-1E+10	1	-1E+10	1	-1E+10	1	-1E+10	1	-1E+10	1
4902551	114	C	10/12/2023	02:04	-131.052	47.145	0	114.10	0	7.2530	0	32.7260	0	25.595	0	113.120	0	230.3	4	77.6	4	-1E+10	1	-1E+10	1	-1E+10	1	-1E+10	1	-1E+10	1	-1E+10	1
4902551	114	C	10/12/2023	02:04	-131.052	47.145	0	114.90	0	7.2280	0	32.7590	0	25.625	0	113.913	0	228.9	4	77.1	4	-1E+10	1	-1E+10	1	-1E+10	1	-1E+10	1	-1E+10	1	-1E+10	1
4902551	114	C	10/12/2023	02:04	-131.052	47.145	0	115.80	0	7.1370	0	32.8330	0	25.695	0	114.805	0	228.0	4	76.7	4	-1E+10	1	-1E+10	1	-1E+10	1	-1E+10	1	-1E+10	1	-1E+10	1
4902551	114	C	10/12/2023	02:04	-131.052	47.145	0	116.90	0	7.0960	0	32.8770	0	25.735	0	115.895	0	227.0	4	76.3	4	-1E+10	1	-1E+10	1	-1E+10	1	-1E+10	1	-1E+10	1	-1E+10	1
4902551	114	C	10/12/2023	02:04	-131.052	47.145	0	118.00	0	7.0930	0	32.8810	0	25.739	0	116.986	0	225.8	4	75.9	4	-1E+10	1	-1E+10	1	-1E+10	1	-1E+10	1	-1E+10	1	-1E+10	1
4902551	114	C	10/12/2023	02:04	-131.052	47.145	0	119.10	0	7.0900	0	32.8860	0	25.743	0	118.076	0	224.5	4	75.5	4	-1E+10	1	-1E+10	1	-1E+10	1	-1E+10	1	-1E+10	1	-1E+10	1
4902551	114	C	10/12/2023	02:04	-131.052	47.145	0	120.00	0	7.0890	0	32.8890	0	25.746	0	118.968	0	223.0	4	75.0	4	-1E+10	1	-1E+10	1	-1E+10	1	-1E+10	1	-1E+10	1	-1E+10	1
4902551	114	C	10/12/2023	02:04	-131.052	47.145	0	121.10	0	7.0780	0	32.9010	0	25.757	0	120.058	0	220.9	4	74.2	4	-1E+10	1	-1E+10	1	-1E+10	1	-1E+10	1	-1E+10	1	-1E+10	1
4902551	114	C	10/12/2023	02:04	-131.052	47.145	0	122.00	0	7.0330	0	32.9450	0	25.797	0	120.950	0	219.1	4	73.6	4	-1E+10	1	-1E+10	1	-1E+10	1	-1E+10	1	-1E+10	1	-1E+10	1
4902551	114	C	10/12/2023	02:04	-131.052	47.145	0	122.90	0	7.0040	0	32.9750	0	25.825	0	121.842	0	217.4	4	73.0	4	-1E+10	1	-1E+10	1	-1E+10	1	-1E+10	1	-1E+10	1	-1E+10	1
4902551	114	C	10/12/2023	02:04	-131.052	47.145	0	124.10	0	6.9580	0	33.0300	0	25.874	0	123.031	0	215.5	4	72.3	4	-1E+10	1	-1E+10	1	-1E+10	1	-1E+10	1	-1E+10	1	-1E+10	1
4902551	114	C	10/12/2023	02:04	-131.052	47.145	0	125.00	0	6.9440	0	33.0440	0	25.887	0	123.923	0	213.9	4	71.8	4	-1E+10	1	-1E+10	1	-1E+10	1	-1E+10	1	-1E+10	1	-1E+10	1
4902551	114	C	10/12/2023	02:04	-131.052	47.145	0	125.90	0	6.9250	0	33.0750	0	25.914	0	124.815	0	211.8	4	71.1	4	-1E+10	1	-1E+10	1	-1E+10	1	-1E+10	1	-1E+10	1	-1E+10	1
4902551	114	C	10/12/2023	02:04	-131.052	47.145	0	127.10	0	6.9020	0	33.1110	0	25.946	0	126.005	0	209.2	4	70.1	4	-1E+10	1	-1E+10	1	-1E+10	1	-1E+10	1	-1E+10	1	-1E+10	1
4902551	114	C	10/12/2023	02:04	-131.052	47.145	0	128.10	0	6.8750	0	33.1400	0	25.972	0	126.996	0	207.4	4	69.5	4	-1E+10	1	-1E+10	1	-1E+10	1	-1E+10	1	-1E+10	1	-1E+10	1
4902551	114	C	10/12/2023	02:04	-131.052	47.145	0	129.00	0	6.8510	0	33.1780	0	26.005	0	127.888	0	205.7	4	68.9	4	-1E+10	1	-1E+10	1	-1E+10	1	-1E+10	1	-1E+10	1	-1E+10	1
4902551	114	C	10/12/2023	02:04	-131.052	47.145	0	130.10	0	6.8410	0	33.2030	0	26.026	0	128.978	0	204.1	4	68.4	4	-1E+10	1	-1E+10	1	-1E+10	1	-1E+10	1	-1E+10	1	-1E+10	1
4902551	114	C	10/12/2023	02:04	-131.052	47.145	0	130.80	0	6.8390	0	33.2170	0	26.038	0	129.671	0	203.1	4	68.0	4	-1E+10	1	-1E+10	1	-1E+10	1	-1E+10	1	-1E+10	1	-1E+10	1
4902551	114	C	10/12/2023	02:04	-131.052	47.145	0	131.90	0	6.8280	0	33.2500	0	26.065	0	130.762	0	201.5	4	67.5	4	-1E+10	1	-1E+10	1	-1E+10	1	-1E+10	1	-1E+10	1	-1E+10	1
4902551	114	C	10/12/2023	02:04	-131.052	47.145	0	133.00	0	6.8270	0	33.2850	0	26.093	0	131.852	0	199.9	4	67.0	4	-1E+10	1	-1E+10	1	-1E+10	1	-1E+10	1	-1E+10	1	-1E+10	1
4902551	114	C	10/12/2023	02:04	-131.052	47.145	0	133.80	0	6.8380	0	33.3030	0	26.106	0	132.645	0	198.9	4	66.7	4	-1E+10	1	-1E+10	1	-1E+10	1	-1E+10	1	-1E+10	1	-1E+10	1
4902551	114	C	10/12/2023	02:04	-131.052	47.145	0	134.80	0	6.8440	0	33.3280	0	26.125	0	133.636	0	197.7	4	66.3	4	-1E+10	1	-1E+10	1	-1E+10	1	-1E+10	1	-1E+10	1	-1E+10	1
4902551	114	C	10/12/2023	02:04	-131.052	47.145	0	135.80	0	6.8420	0	33.3330	0	26.129	0	134.627	0	196.4	4	65.9	4	-1E+10	1	-1E+10	1	-1E+10	1	-1E+10	1	-1E+10	1	-1E+10	1
4902551	114	C	10/12/2023	02:04	-131.052	47.145	0	137.00	0	6.8250	0	33.3700	0	26.160	0	135.816	0	194.6	4	65.3	4	-1E+10	1	-1E+10	1	-1E+10	1	-1E+10	1	-1E+10	1	-1E+10	1
4902551	114	C	10/12/2023	02:04	-131.052	47.145	0	138.20	0	6.8160	0	33.4030	0	26.187	0	137.005	0	193.0	4	64.7	4	-1E+10	1	-1E+10	1	-1E+10	1	-1E+10	1	-1E+10	1	-1E+10	1
4902551	114	C	10/12/2023	02:04	-131.052	47.145	0	139.00	0	6.8100	0	33.4130	0	26.196	0	137.798	0	191.9	4	64.4	4	-1E+10	1	-1E+10	1	-1E+10	1	-1E+10	1	-1E+10	1	-1E+10	1
4902551	114	C	10/12/2023	02:04	-131.052	47.145	0	139.80	0	6.8020	0	33.4310	0	26.211	0	138.591	0	190.7	4	64.0	4	-1E+10	1	-1E+10	1	-1E+10	1	-1E+10	1	-1E+10	1	-1E+10	1
4902551	114	C	10/12/2023	02:04	-131.052	47.145	0	140.70	0	6.7950	0	33.4590	0	26.234	0	139.483	0	189.5	4	63.5	4	-1E+10	1	-1E+10	1	-1E+10	1	-1E+10	1	-1E+10	1	-1E+10	1
4902551	114	C	10/12/2023	02:04	-131.052	47.145	0	141.90	0	6.7890	0	33.4720	0	26.245	0	140.672	0	187.9	4	63.0	4	-1E+10	1	-1E+10	1	-1E+10	1	-1E+10	1	-1E+10	1	-1E+10	1
4902551	114	C	10/12/2023	02:04	-131.052	47.145	0	143.30	0	6.7810	0	33.4840	0	26.256	0	142.059	0	186.3	4	62.5	4	-1E+10	1	-1E+10	1	-1E+10	1	-1E+10	1	-1E+10	1	-1E+10	1
4902551	114	C	10/12/2023	02:04	-131.052	47.145	0	144.20	0	6.7750	0	33.4920	0	26.263	0	142.951	0	185.1	4	62.1	4	-1E+10	1	-1E+10	1	-1E+10	1	-1E+10	1	-1E+10	1	-1E+10	1
4902551	114	C	10/12/2023	02:04	-131.052	47.145	0	145.10	0	6.7690	0	33.4990	0	26.269	0	143.843	0	183.7	4	61.6	4	-1E+10	1	-1E+10	1	-1E+10	1	-1E+10	1	-1E+10	1	-1E+10	1
4902551	114	C	10/12/2023	02:04	-131.052	47.145	0	146.00	0	6.7600	0	33.5120	0	26.281	0	144.735	0	182.5	4	61.2	4	-1E+10	1	-1E+10	1	-1E+10	1	-1E+10	1	-1E+10	1	-1E+10	1
4902551	114	C	10/12/2023	02:04	-131.052	47.145	0	147.00	0	6.7550	0	33.5170	0	26.286	0	145.726	0	181.0	4	60.7	4	-1E+10	1	-1E+10	1	-1E+10	1	-1E+10	1	-1E+10	1	-1E+10	1
4902551	114	C	10/12/2023	02:04	-131.052	47.145	0	148.00	0	6.7460	0	33.5290	0	26.296	0	146.717	0	179.6	4	60.2	4	-1E+10	1	-1E+10	1	-1E+10	1	-1E+10	1	-1E+10	1	-1E+10	1
4902551	114	C	10/12/2023	02:04	-131.052	47.145	0	149.00	0	6.7390	0	33.5490	0	26.313	0	147.708	0	178.1	4	59.7	4	-1E+10	1	-1E+10	1	-1E+10	1	-1E+10	1	-1E+10	1	-1E+10	1
4902551	114	C	10/12/2023	02:04	-131.052	47.145	0	150.00	0	6.7380	0	33.5780	0	26.336	0	148.699	0	176.8	4	59.3	4	-1E+10	1	-1E+10	1	-1E+10	1	-1E+10	1	-1E+10	1	-1E+10	1
4902551	114	C	10/12/2023	02:04	-131.052	47.145	0	150.90	0	6.7450	0	33.5880	0	26.343	0	149.591	0	175.6	4	58.9	4	-1E+10	1	-1E+10	1	-1E+10	1	-1E+10	1	-1E+10	1	-1E+10	1
4902551	114	C	10/12/2023	02:04	-131.052	47.145	0	152.00	0	6.7540	0	33.5990	0	26.350	0	150.681	0	174.4	4	58.5	4	-1E+10	1	-1E+10	1	-1E+10	1	-1E+10	1	-1E+10	1	-1E+10	1
4902551	114	C	10/12/2023	02:04	-131.052	47.145	0	153.00	0	6.7500	0	33.6130	0	26.362	0	151.672	0	173.2	4	58.1	4	-1E+10	1	-1E+10	1	-1E+10	1	-1E+10	1	-1E+10	1	-1E+10	1
4902551	114	C	10/12/2023	02:04	-131.052	47.145	0	154.10	0	6.7350	0	33.6370	0	26.383	0	152.762	0	172.0	4	57.7	4	-1E+10	1	-1E+10	1	-1E+10	1	-1E+10	1	-1E+10	1	-1E+10	1
4902551	114	C	10/12/2023	02:04	-131.052	47.145	0	155.10	0	6.7410	0	33.6460	0	26.389	0	153.753	0	171.0	4	57.4	4	-1E+10	1	-1E+10	1	-1E+10	1	-1E+10	1	-1E+10	1	-1E+10	1
4902551	114	C	10/12/2023	02:04	-131.052	47.145	0	156.20	0	6.7370	0	33.6550	0	26.397	0	154.843	0	170.1	4	57.1	4	-1E+10	1	-1E+10	1	-1E+10	1	-1E+10	1	-1E+10	1	-1E+10	1
4902551	114	C	10/12/2023	02:04	-131.052	47.145	0	157.30	0	6.7510	0	33.6640	0	26.402	0	155.933	0	169.3	4	56.8	4	-1E+10	1	-1E+10	1	-1E+10	1	-1E+10	1	-1E+10	1	-1E+10	1
4902551	114	C	10/12/2023	02:04	-131.052	47.145	0	158.30	0	6.7560	0	33.6690	0	26.405	0	156.924	0	168.7	4	56.6	4	-1E+10	1	-1E+10	1	-1E+10	1	-1E+10	1	-1E+10	1	-1E+10	1
4902551	114	C	10/12/2023	02:04	-131.052	47.145	0	159.40	0	6.7630	0	33.6780	0	26.412	0	158.014	0	168.2	4	56.5	4	-1E+10	1	-1E+10	1	-1E+10	1	-1E+10	1	-1E+10	1	-1E+10	1
4902551	114	C	10/12/2023	02:04	-131.052	47.145	0	160.50	0	6.7590	0	33.6830	0	26.416	0	159.104	0	167.7	4	56.3	4	-1E+10	1	-1E+10	1	-1E+10	1	-1E+10	1	-1E+10	1	-1E+10	1
4902551	114	C	10/12/2023	02:04	-131.052	47.145	0	161.50	0	6.7570	0	33.6880	0	26.420	0	160.095	0	167.2	4	56.1	4	-1E+10	1	-1E+10	1	-1E+10	1	-1E+10	1	-1E+10	1	-1E+10	1
4902551	114	C	10/12/2023	02:04	-131.052	47.145	0	162.60	0	6.7540	0	33.6890	0	26.421	0	161.185	0	166.7	4	56.0	4	-1E+10	1	-1E+10	1	-1E+10	1	-1E+10	1	-1E+10	1	-1E+10	1
4902551	114	C	10/12/2023	02:04	-131.052	47.145	0	163.70	0	6.7480	0	33.6900	0	26.423	0	162.275	0	166.2	4	55.8	4	-1E+10	1	-1E+10	1	-1E+10	1	-1E+10	1	-1E+10	1	-1E+10	1
4902551	114	C	10/12/2023	02:04	-131.052	47.145	0	164.70	0	6.7280	0	33.6960	0	26.430	0	163.266	0	165.5	4	55.5	4	-1E+10	1	-1E+10	1	-1E+10	1	-1E+10	1	-1E+10	1	-1E+10	1
4902551	114	C	10/12/2023	02:04	-131.052	47.145	0	165.80	0	6.7130	0	33.7060	0	26.440	0	164.356	0	164.8	4	55.3	4	-1E+10	1	-1E+10	1	-1E+10	1	-1E+10	1	-1E+10	1	-1E+10	1
4902551	114	C	10/12/2023	02:04	-131.052	47.145	0	166.80	0	6.6980	0	33.7090	0	26.445	0	165.346	0	164.0	4	55.0	4	-1E+10	1	-1E+10	1	-1E+10	1	-1E+10	1	-1E+10	1	-1E+10	1
4902551	114	C	10/12/2023	02:04	-131.052	47.145	0	167.90	0	6.6890	0	33.7140	0	26.450	0	166.436	0	163.1	4	54.7	4	-1E+10	1	-1E+10	1	-1E+10	1	-1E+10	1	-1E+10	1	-1E+10	1
4902551	114	C	10/12/2023	02:04	-131.052	47.145	0	169.00	0	6.6650	0	33.7260	0	26.462	0	167.526	0	162.3	4	54.4	4	-1E+10	1	-1E+10	1	-1E+10	1	-1E+10	1	-1E+10	1	-1E+10	1
4902551	114	C	10/12/2023	02:04	-131.052	47.145	0	170.00	0	6.6560	0	33.7290	0	26.466	0	168.517	0	161.5	4	54.1	4	-1E+10	1	-1E+10	1	-1E+10	1	-1E+10	1	-1E+10	1	-1E+10	1
4902551	114	C	10/12/2023	02:04	-131.052	47.145	0	171.10	0	6.6580	0	33.7320	0	26.468	0	169.607	0	160.6	4	53.8	4	-1E+10	1	-1E+10	1	-1E+10	1	-1E+10	1	-1E+10	1	-1E+10	1
4902551	114	C	10/12/2023	02:04	-131.052	47.145	0	172.20	0	6.6520	0	33.7410	0	26.476	0	170.697	0	160.1	4	53.6	4	-1E+10	1	-1E+10	1	-1E+10	1	-1E+10	1	-1E+10	1	-1E+10	1
4902551	114	C	10/12/2023	02:04	-131.052	47.145	0	173.20	0	6.6450	0	33.7450	0	26.480	0	171.688	0	159.5	4	53.4	4	-1E+10	1	-1E+10	1	-1E+10	1	-1E+10	1	-1E+10	1	-1E+10	1
4902551	114	C	10/12/2023	02:04	-131.052	47.145	0	174.30	0	6.6340	0	33.7480	0	26.484	0	172.778	0	159.2	4	53.3	4	-1E+10	1	-1E+10	1	-1E+10	1	-1E+10	1	-1E+10	1	-1E+10	1
4902551	114	C	10/12/2023	02:04	-131.052	47.145	0	175.40	0	6.6300	0	33.7490	0	26.485	0	173.868	0	158.9	4	53.2	4	-1E+10	1	-1E+10	1	-1E+10	1	-1E+10	1	-1E+10	1	-1E+10	1
4902551	114	C	10/12/2023	02:04	-131.052	47.145	0	176.40	0	6.6270	0	33.7490	0	26.486	0	174.859	0	158.4	4	53.0	4	-1E+10	1	-1E+10	1	-1E+10	1	-1E+10	1	-1E+10	1	-1E+10	1
4902551	114	C	10/12/2023	02:04	-131.052	47.145	0	177.40	0	6.6230	0	33.7500	0	26.487	0	175.850	0	158.0	4	52.9	4	-1E+10	1	-1E+10	1	-1E+10	1	-1E+10	1	-1E+10	1	-1E+10	1
4902551	114	C	10/12/2023	02:04	-131.052	47.145	0	178.50	0	6.6220	0	33.7530	0	26.490	0	176.940	0	157.6	4	52.8	4	-1E+10	1	-1E+10	1	-1E+10	1	-1E+10	1	-1E+10	1	-1E+10	1
4902551	114	C	10/12/2023	02:04	-131.052	47.145	0	179.50	0	6.6190	0	33.7570	0	26.493	0	177.930	0	157.3	4	52.6	4	-1E+10	1	-1E+10	1	-1E+10	1	-1E+10	1	-1E+10	1	-1E+10	1
4902551	114	C	10/12/2023	02:04	-131.052	47.145	0	180.50	0	6.6100	0	33.7590	0	26.496	0	178.921	0	156.8	4	52.5	4	-1E+10	1	-1E+10	1	-1E+10	1	-1E+10	1	-1E+10	1	-1E+10	1
4902551	114	C	10/12/2023	02:04	-131.052	47.145	0	181.60	0	6.5910	0	33.7560	0	26.496	0	180.011	0	156.4	4	52.3	4	-1E+10	1	-1E+10	1	-1E+10	1	-1E+10	1	-1E+10	1	-1E+10	1
4902551	114	C	10/12/2023	02:04	-131.052	47.145	0	182.60	0	6.5650	0	33.7570	0	26.500	0	181.002	0	155.8	4	52.1	4	-1E+10	1	-1E+10	1	-1E+10	1	-1E+10	1	-1E+10	1	-1E+10	1
4902551	114	C	10/12/2023	02:04	-131.052	47.145	0	183.60	0	6.5490	0	33.7570	0	26.502	0	181.993	0	155.2	4	51.9	4	-1E+10	1	-1E+10	1	-1E+10	1	-1E+10	1	-1E+10	1	-1E+10	1
4902551	114	C	10/12/2023	02:04	-131.052	47.145	0	184.60	0	6.5330	0	33.7600	0	26.507	0	182.984	0	154.5	4	51.6	4	-1E+10	1	-1E+10	1	-1E+10	1	-1E+10	1	-1E+10	1	-1E+10	1
4902551	114	C	10/12/2023	02:04	-131.052	47.145	0	185.70	0	6.5300	0	33.7610	0	26.508	0	184.073	0	153.8	4	51.4	4	-1E+10	1	-1E+10	1	-1E+10	1	-1E+10	1	-1E+10	1	-1E+10	1
4902551	114	C	10/12/2023	02:04	-131.052	47.145	0	186.70	0	6.5210	0	33.7660	0	26.513	0	185.064	0	153.3	4	51.2	4	-1E+10	1	-1E+10	1	-1E+10	1	-1E+10	1	-1E+10	1	-1E+10	1
4902551	114	C	10/12/2023	02:04	-131.052	47.145	0	187.60	0	6.5030	0	33.7680	0	26.517	0	185.956	0	152.7	4	51.0	4	-1E+10	1	-1E+10	1	-1E+10	1	-1E+10	1	-1E+10	1	-1E+10	1
4902551	114	C	10/12/2023	02:04	-131.052	47.145	0	188.80	0	6.4880	0	33.7690	0	26.520	0	187.145	0	152.2	4	50.8	4	-1E+10	1	-1E+10	1	-1E+10	1	-1E+10	1	-1E+10	1	-1E+10	1
4902551	114	C	10/12/2023	02:04	-131.052	47.145	0	189.90	0	6.4830	0	33.7700	0	26.521	0	188.235	0	151.5	4	50.6	4	-1E+10	1	-1E+10	1	-1E+10	1	-1E+10	1	-1E+10	1	-1E+10	1
4902551	114	C	10/12/2023	02:04	-131.052	47.145	0	191.10	0	6.4870	0	33.7740	0	26.524	0	189.424	0	150.9	4	50.4	4	-1E+10	1	-1E+10	1	-1E+10	1	-1E+10	1	-1E+10	1	-1E+10	1
4902551	114	C	10/12/2023	02:04	-131.052	47.145	0	191.90	0	6.4840	0	33.7740	0	26.524	0	190.216	0	150.4	4	50.2	4	-1E+10	1	-1E+10	1	-1E+10	1	-1E+10	1	-1E+10	1	-1E+10	1
4902551	114	C	10/12/2023	02:04	-131.052	47.145	0	192.70	0	6.4810	0	33.7740	0	26.525	0	191.009	0	150.1	4	50.1	4	-1E+10	1	-1E+10	1	-1E+10	1	-1E+10	1	-1E+10	1	-1E+10	1
4902551	114	C	10/12/2023	02:04	-131.052	47.145	0	193.80	0	6.4710	0	33.7760	0	26.528	0	192.099	0	149.5	4	49.9	4	-1E+10	1	-1E+10	1	-1E+10	1	-1E+10	1	-1E+10	1	-1E+10	1
4902551	114	C	10/12/2023	02:04	-131.052	47.145	0	195.00	0	6.4570	0	33.7790	0	26.532	0	193.288	0	148.8	4	49.6	4	-1E+10	1	-1E+10	1	-1E+10	1	-1E+10	1	-1E+10	1	-1E+10	1
4902551	114	C	10/12/2023	02:04	-131.052	47.145	0	195.80	0	6.4430	0	33.7750	0	26.531	0	194.080	0	148.3	4	49.4	4	-1E+10	1	-1E+10	1	-1E+10	1	-1E+10	1	-1E+10	1	-1E+10	1
4902551	114	C	10/12/2023	02:04	-131.052	47.145	0	196.90	0	6.4340	0	33.7780	0	26.534	0	195.170	0	147.5	4	49.2	4	-1E+10	1	-1E+10	1	-1E+10	1	-1E+10	1	-1E+10	1	-1E+10	1
4902551	114	C	10/12/2023	02:04	-131.052	47.145	0	198.10	0	6.4100	0	33.7790	0	26.538	0	196.359	0	146.8	4	48.9	4	-1E+10	1	-1E+10	1	-1E+10	1	-1E+10	1	-1E+10	1	-1E+10	1
4902551	114	C	10/12/2023	02:04	-131.052	47.145	0	198.90	0	6.3970	0	33.7830	0	26.543	0	197.151	0	146.1	4	48.7	4	-1E+10	1	-1E+10	1	-1E+10	1	-1E+10	1	-1E+10	1	-1E+10	1
4902551	114	C	10/12/2023	02:04	-131.052	47.145	0	199.70	0	6.3880	0	33.7830	0	26.544	0	197.944	0	145.6	4	48.5	4	-1E+10	1	-1E+10	1	-1E+10	1	-1E+10	1	-1E+10	1	-1E+10	1
4902551	114	C	10/12/2023	02:04	-131.052	47.145	0	200.90	0	6.3610	0	33.7840	0	26.548	0	199.133	0	144.9	4	48.2	4	-1E+10	1	-1E+10	1	-1E+10	1	-1E+10	1	-1E+10	1	-1E+10	1
4902551	114	C	10/12/2023	02:04	-131.052	47.145	0	202.20	0	6.3470	0	33.7840	0	26.550	0	200.421	0	144.2	4	48.0	4	-1E+10	1	-1E+10	1	-1E+10	1	-1E+10	1	-1E+10	1	-1E+10	1
4902551	114	C	10/12/2023	02:04	-131.052	47.145	0	203.00	0	6.3450	0	33.7840	0	26.550	0	201.213	0	143.6	4	47.8	4	-1E+10	1	-1E+10	1	-1E+10	1	-1E+10	1	-1E+10	1	-1E+10	1
4902551	114	C	10/12/2023	02:04	-131.052	47.145	0	203.80	0	6.3350	0	33.7850	0	26.552	0	202.006	0	142.9	4	47.5	4	-1E+10	1	-1E+10	1	-1E+10	1	-1E+10	1	-1E+10	1	-1E+10	1
4902551	114	C	10/12/2023	02:04	-131.052	47.145	0	205.00	0	6.3220	0	33.7840	0	26.553	0	203.195	0	141.7	4	47.1	4	-1E+10	1	-1E+10	1	-1E+10	1	-1E+10	1	-1E+10	1	-1E+10	1
4902551	114	C	10/12/2023	02:04	-131.052	47.145	0	206.30	0	6.3080	0	33.7870	0	26.558	0	204.483	0	140.5	4	46.7	4	-1E+10	1	-1E+10	1	-1E+10	1	-1E+10	1	-1E+10	1	-1E+10	1
4902551	114	C	10/12/2023	02:04	-131.052	47.145	0	207.10	0	6.3030	0	33.7870	0	26.558	0	205.275	0	139.7	4	46.4	4	-1E+10	1	-1E+10	1	-1E+10	1	-1E+10	1	-1E+10	1	-1E+10	1
4902551	114	C	10/12/2023	02:04	-131.052	47.145	0	208.00	0	6.3150	0	33.7930	0	26.561	0	206.167	0	139.0	4	46.2	4	-1E+10	1	-1E+10	1	-1E+10	1	-1E+10	1	-1E+10	1	-1E+10	1
4902551	114	C	10/12/2023	02:04	-131.052	47.145	0	208.90	0	6.3100	0	33.7940	0	26.563	0	207.059	0	138.3	4	46.0	4	-1E+10	1	-1E+10	1	-1E+10	1	-1E+10	1	-1E+10	1	-1E+10	1
4902551	114	C	10/12/2023	02:04	-131.052	47.145	0	209.70	0	6.2800	0	33.7940	0	26.567	0	207.851	0	137.7	4	45.8	4	-1E+10	1	-1E+10	1	-1E+10	1	-1E+10	1	-1E+10	1	-1E+10	1
4902551	114	C	10/12/2023	02:04	-131.052	47.145	0	210.60	0	6.2610	0	33.7950	0	26.570	0	208.743	0	137.1	4	45.5	4	-1E+10	1	-1E+10	1	-1E+10	1	-1E+10	1	-1E+10	1	-1E+10	1
4902551	114	C	10/12/2023	02:04	-131.052	47.145	0	211.90	0	6.2220	0	33.7970	0	26.576	0	210.031	0	136.4	4	45.3	4	-1E+10	1	-1E+10	1	-1E+10	1	-1E+10	1	-1E+10	1	-1E+10	1
4902551	114	C	10/12/2023	02:04	-131.052	47.145	0	213.30	0	6.1960	0	33.7970	0	26.580	0	211.418	0	135.7	4	45.0	4	-1E+10	1	-1E+10	1	-1E+10	1	-1E+10	1	-1E+10	1	-1E+10	1
4902551	114	C	10/12/2023	02:04	-131.052	47.145	0	214.20	0	6.1740	0	33.7990	0	26.584	0	212.309	0	135.1	4	44.8	4	-1E+10	1	-1E+10	1	-1E+10	1	-1E+10	1	-1E+10	1	-1E+10	1
4902551	114	C	10/12/2023	02:04	-131.052	47.145	0	215.10	0	6.1520	0	33.7970	0	26.585	0	213.201	0	134.7	4	44.6	4	-1E+10	1	-1E+10	1	-1E+10	1	-1E+10	1	-1E+10	1	-1E+10	1
4902551	114	C	10/12/2023	02:04	-131.052	47.145	0	216.00	0	6.1440	0	33.7970	0	26.586	0	214.092	0	134.0	4	44.4	4	-1E+10	1	-1E+10	1	-1E+10	1	-1E+10	1	-1E+10	1	-1E+10	1
4902551	114	C	10/12/2023	02:04	-131.052	47.145	0	216.90	0	6.1410	0	33.7960	0	26.586	0	214.984	0	133.3	4	44.1	4	-1E+10	1	-1E+10	1	-1E+10	1	-1E+10	1	-1E+10	1	-1E+10	1
4902551	114	C	10/12/2023	02:04	-131.052	47.145	0	217.80	0	6.1370	0	33.7960	0	26.587	0	215.875	0	132.5	4	43.9	4	-1E+10	1	-1E+10	1	-1E+10	1	-1E+10	1	-1E+10	1	-1E+10	1
4902551	114	C	10/12/2023	02:04	-131.052	47.145	0	218.70	0	6.1290	0	33.7980	0	26.589	0	216.767	0	131.7	4	43.6	4	-1E+10	1	-1E+10	1	-1E+10	1	-1E+10	1	-1E+10	1	-1E+10	1
4902551	114	C	10/12/2023	02:04	-131.052	47.145	0	219.70	0	6.1130	0	33.8000	0	26.593	0	217.758	0	131.0	4	43.4	4	-1E+10	1	-1E+10	1	-1E+10	1	-1E+10	1	-1E+10	1	-1E+10	1
4902551	114	C	10/12/2023	02:04	-131.052	47.145	0	220.60	0	6.0970	0	33.8020	0	26.596	0	218.649	0	130.4	4	43.1	4	-1E+10	1	-1E+10	1	-1E+10	1	-1E+10	1	-1E+10	1	-1E+10	1
4902551	114	C	10/12/2023	02:04	-131.052	47.145	0	221.60	0	6.0920	0	33.8040	0	26.599	0	219.640	0	129.8	4	42.9	4	-1E+10	1	-1E+10	1	-1E+10	1	-1E+10	1	-1E+10	1	-1E+10	1
4902551	114	C	10/12/2023	02:04	-131.052	47.145	0	222.90	0	6.0820	0	33.8060	0	26.601	0	220.928	0	128.8	4	42.6	4	-1E+10	1	-1E+10	1	-1E+10	1	-1E+10	1	-1E+10	1	-1E+10	1
4902551	114	C	10/12/2023	02:04	-131.052	47.145	0	224.40	0	6.0560	0	33.8080	0	26.606	0	222.414	0	128.0	4	42.3	4	-1E+10	1	-1E+10	1	-1E+10	1	-1E+10	1	-1E+10	1	-1E+10	1
4902551	114	C	10/12/2023	02:04	-131.052	47.145	0	225.40	0	6.0490	0	33.8110	0	26.610	0	223.404	0	127.6	4	42.2	4	-1E+10	1	-1E+10	1	-1E+10	1	-1E+10	1	-1E+10	1	-1E+10	1
4902551	114	C	10/12/2023	02:04	-131.052	47.145	0	226.30	0	6.0510	0	33.8110	0	26.609	0	224.296	0	127.1	4	42.0	4	-1E+10	1	-1E+10	1	-1E+10	1	-1E+10	1	-1E+10	1	-1E+10	1
4902551	114	C	10/12/2023	02:04	-131.052	47.145	0	227.20	0	6.0450	0	33.8130	0	26.612	0	225.187	0	126.7	4	41.9	4	-1E+10	1	-1E+10	1	-1E+10	1	-1E+10	1	-1E+10	1	-1E+10	1
4902551	114	C	10/12/2023	02:04	-131.052	47.145	0	228.20	0	6.0310	0	33.8140	0	26.614	0	226.178	0	126.3	4	41.7	4	-1E+10	1	-1E+10	1	-1E+10	1	-1E+10	1	-1E+10	1	-1E+10	1
4902551	114	C	10/12/2023	02:04	-131.052	47.145	0	229.20	0	6.0290	0	33.8120	0	26.613	0	227.168	0	125.9	4	41.6	4	-1E+10	1	-1E+10	1	-1E+10	1	-1E+10	1	-1E+10	1	-1E+10	1
4902551	114	C	10/12/2023	02:04	-131.052	47.145	0	230.10	0	6.0190	0	33.8130	0	26.615	0	228.060	0	125.4	4	41.4	4	-1E+10	1	-1E+10	1	-1E+10	1	-1E+10	1	-1E+10	1	-1E+10	1
4902551	114	C	10/12/2023	02:04	-131.052	47.145	0	231.10	0	6.0070	0	33.8130	0	26.616	0	229.051	0	125.0	4	41.3	4	-1E+10	1	-1E+10	1	-1E+10	1	-1E+10	1	-1E+10	1	-1E+10	1
4902551	114	C	10/12/2023	02:04	-131.052	47.145	0	232.00	0	5.9800	0	33.8140	0	26.621	0	229.942	0	124.6	4	41.1	4	-1E+10	1	-1E+10	1	-1E+10	1	-1E+10	1	-1E+10	1	-1E+10	1
4902551	114	C	10/12/2023	02:04	-131.052	47.145	0	233.00	0	5.9640	0	33.8110	0	26.620	0	230.933	0	124.0	4	40.9	4	-1E+10	1	-1E+10	1	-1E+10	1	-1E+10	1	-1E+10	1	-1E+10	1
4902551	114	C	10/12/2023	02:04	-131.052	47.145	0	233.90	0	5.9510	0	33.8120	0	26.623	0	231.824	0	123.5	4	40.7	4	-1E+10	1	-1E+10	1	-1E+10	1	-1E+10	1	-1E+10	1	-1E+10	1
4902551	114	C	10/12/2023	02:04	-131.052	47.145	0	234.90	0	5.9390	0	33.8120	0	26.624	0	232.815	0	122.9	4	40.5	4	-1E+10	1	-1E+10	1	-1E+10	1	-1E+10	1	-1E+10	1	-1E+10	1
4902551	114	C	10/12/2023	02:04	-131.052	47.145	0	235.80	0	5.9300	0	33.8150	0	26.628	0	233.706	0	122.2	4	40.3	4	-1E+10	1	-1E+10	1	-1E+10	1	-1E+10	1	-1E+10	1	-1E+10	1
4902551	114	C	10/12/2023	02:04	-131.052	47.145	0	236.80	0	5.9240	0	33.8130	0	26.627	0	234.697	0	121.6	4	40.1	4	-1E+10	1	-1E+10	1	-1E+10	1	-1E+10	1	-1E+10	1	-1E+10	1
4902551	114	C	10/12/2023	02:04	-131.052	47.145	0	237.70	0	5.9280	0	33.8130	0	26.626	0	235.588	0	121.0	4	39.9	4	-1E+10	1	-1E+10	1	-1E+10	1	-1E+10	1	-1E+10	1	-1E+10	1
4902551	114	C	10/12/2023	02:04	-131.052	47.145	0	238.60	0	5.8910	0	33.8130	0	26.631	0	236.480	0	120.2	4	39.6	4	-1E+10	1	-1E+10	1	-1E+10	1	-1E+10	1	-1E+10	1	-1E+10	1
4902551	114	C	10/12/2023	02:04	-131.052	47.145	0	239.60	0	5.8660	0	33.8130	0	26.634	0	237.470	0	119.5	4	39.3	4	-1E+10	1	-1E+10	1	-1E+10	1	-1E+10	1	-1E+10	1	-1E+10	1
4902551	114	C	10/12/2023	02:04	-131.052	47.145	0	240.50	0	5.8450	0	33.8120	0	26.636	0	238.362	0	118.8	4	39.1	4	-1E+10	1	-1E+10	1	-1E+10	1	-1E+10	1	-1E+10	1	-1E+10	1
4902551	114	C	10/12/2023	02:04	-131.052	47.145	0	241.90	0	5.7810	0	33.8210	0	26.651	0	239.749	0	118.1	4	38.8	4	-1E+10	1	-1E+10	1	-1E+10	1	-1E+10	1	-1E+10	1	-1E+10	1
4902551	114	C	10/12/2023	02:04	-131.052	47.145	0	243.40	0	5.7580	0	33.8200	0	26.653	0	241.234	0	117.5	4	38.6	4	-1E+10	1	-1E+10	1	-1E+10	1	-1E+10	1	-1E+10	1	-1E+10	1
4902551	114	C	10/12/2023	02:04	-131.052	47.145	0	244.30	0	5.7580	0	33.8200	0	26.653	0	242.126	0	117.1	4	38.5	4	-1E+10	1	-1E+10	1	-1E+10	1	-1E+10	1	-1E+10	1	-1E+10	1
4902551	114	C	10/12/2023	02:04	-131.052	47.145	0	245.30	0	5.7580	0	33.8200	0	26.653	0	243.116	0	116.6	4	38.3	4	-1E+10	1	-1E+10	1	-1E+10	1	-1E+10	1	-1E+10	1	-1E+10	1
4902551	114	C	10/12/2023	02:04	-131.052	47.145	0	246.20	0	5.7580	0	33.8190	0	26.652	0	244.008	0	116.1	4	38.1	4	-1E+10	1	-1E+10	1	-1E+10	1	-1E+10	1	-1E+10	1	-1E+10	1
4902551	114	C	10/12/2023	02:04	-131.052	47.145	0	247.20	0	5.7590	0	33.8190	0	26.652	0	244.998	0	115.5	4	37.9	4	-1E+10	1	-1E+10	1	-1E+10	1	-1E+10	1	-1E+10	1	-1E+10	1
4902551	114	C	10/12/2023	02:04	-131.052	47.145	0	248.10	0	5.7590	0	33.8180	0	26.651	0	245.890	0	114.7	4	37.7	4	-1E+10	1	-1E+10	1	-1E+10	1	-1E+10	1	-1E+10	1	-1E+10	1
4902551	114	C	10/12/2023	02:04	-131.052	47.145	0	249.00	0	5.7270	0	33.8250	0	26.661	0	246.781	0	114.0	4	37.4	4	-1E+10	1	-1E+10	1	-1E+10	1	-1E+10	1	-1E+10	1	-1E+10	1
4902551	114	C	10/12/2023	02:04	-131.052	47.145	0	250.00	0	5.6980	0	33.8220	0	26.662	0	247.772	0	113.5	4	37.2	4	-1E+10	1	-1E+10	1	-1E+10	1	-1E+10	1	-1E+10	1	-1E+10	1
4902551	114	C	10/12/2023	02:04	-131.052	47.145	0	251.00	0	5.6860	0	33.8220	0	26.663	0	248.762	0	113.0	4	37.0	4	-1E+10	1	-1E+10	1	-1E+10	1	-1E+10	1	-1E+10	1	-1E+10	1
4902551	114	C	10/12/2023	02:04	-131.052	47.145	0	252.00	0	5.6710	0	33.8230	0	26.666	0	249.753	0	112.5	4	36.8	4	-1E+10	1	-1E+10	1	-1E+10	1	-1E+10	1	-1E+10	1	-1E+10	1
4902551	114	C	10/12/2023	02:04	-131.052	47.145	0	252.90	0	5.6470	0	33.8250	0	26.670	0	250.644	0	112.1	4	36.7	4	-1E+10	1	-1E+10	1	-1E+10	1	-1E+10	1	-1E+10	1	-1E+10	1
4902551	114	C	10/12/2023	02:04	-131.052	47.145	0	253.90	0	5.6380	0	33.8270	0	26.673	0	251.635	0	111.7	4	36.6	4	-1E+10	1	-1E+10	1	-1E+10	1	-1E+10	1	-1E+10	1	-1E+10	1
4902551	114	C	10/12/2023	02:04	-131.052	47.145	0	254.80	0	5.6350	0	33.8270	0	26.673	0	252.526	0	111.2	4	36.4	4	-1E+10	1	-1E+10	1	-1E+10	1	-1E+10	1	-1E+10	1	-1E+10	1
4902551	114	C	10/12/2023	02:04	-131.052	47.145	0	255.80	0	5.6350	0	33.8270	0	26.673	0	253.516	0	110.8	4	36.3	4	-1E+10	1	-1E+10	1	-1E+10	1	-1E+10	1	-1E+10	1	-1E+10	1
4902551	114	C	10/12/2023	02:04	-131.052	47.145	0	256.70	0	5.6360	0	33.8280	0	26.674	0	254.408	0	110.4	4	36.1	4	-1E+10	1	-1E+10	1	-1E+10	1	-1E+10	1	-1E+10	1	-1E+10	1
4902551	114	C	10/12/2023	02:04	-131.052	47.145	0	257.60	0	5.6350	0	33.8280	0	26.674	0	255.299	0	110.0	4	36.0	4	-1E+10	1	-1E+10	1	-1E+10	1	-1E+10	1	-1E+10	1	-1E+10	1
4902551	114	C	10/12/2023	02:04	-131.052	47.145	0	258.60	0	5.6310	0	33.8300	0	26.676	0	256.290	0	109.7	4	35.9	4	-1E+10	1	-1E+10	1	-1E+10	1	-1E+10	1	-1E+10	1	-1E+10	1
4902551	114	C	10/12/2023	02:04	-131.052	47.145	0	259.50	0	5.6280	0	33.8300	0	26.677	0	257.181	0	109.4	4	35.8	4	-1E+10	1	-1E+10	1	-1E+10	1	-1E+10	1	-1E+10	1	-1E+10	1
4902551	114	C	10/12/2023	02:04	-131.052	47.145	0	260.50	0	5.6120	0	33.8310	0	26.679	0	258.172	0	109.1	4	35.7	4	-1E+10	1	-1E+10	1	-1E+10	1	-1E+10	1	-1E+10	1	-1E+10	1
4902551	114	C	10/12/2023	02:04	-131.052	47.145	0	261.90	0	5.5970	0	33.8320	0	26.682	0	259.558	0	108.6	4	35.5	4	-1E+10	1	-1E+10	1	-1E+10	1	-1E+10	1	-1E+10	1	-1E+10	1
4902551	114	C	10/12/2023	02:04	-131.052	47.145	0	263.40	0	5.5830	0	33.8320	0	26.684	0	261.044	0	108.1	4	35.4	4	-1E+10	1	-1E+10	1	-1E+10	1	-1E+10	1	-1E+10	1	-1E+10	1
4902551	114	C	10/12/2023	02:04	-131.052	47.145	0	264.40	0	5.5780	0	33.8330	0	26.685	0	262.034	0	107.8	4	35.2	4	-1E+10	1	-1E+10	1	-1E+10	1	-1E+10	1	-1E+10	1	-1E+10	1
4902551	114	C	10/12/2023	02:04	-131.052	47.145	0	265.40	0	5.5680	0	33.8330	0	26.686	0	263.025	0	107.5	4	35.1	4	-1E+10	1	-1E+10	1	-1E+10	1	-1E+10	1	-1E+10	1	-1E+10	1
4902551	114	C	10/12/2023	02:04	-131.052	47.145	0	266.30	0	5.5630	0	33.8340	0	26.688	0	263.916	0	107.2	4	35.0	4	-1E+10	1	-1E+10	1	-1E+10	1	-1E+10	1	-1E+10	1	-1E+10	1
4902551	114	C	10/12/2023	02:04	-131.052	47.145	0	267.30	0	5.5630	0	33.8340	0	26.688	0	264.906	0	106.9	4	34.9	4	-1E+10	1	-1E+10	1	-1E+10	1	-1E+10	1	-1E+10	1	-1E+10	1
4902551	114	C	10/12/2023	02:04	-131.052	47.145	0	268.20	0	5.5610	0	33.8330	0	26.687	0	265.798	0	106.5	4	34.8	4	-1E+10	1	-1E+10	1	-1E+10	1	-1E+10	1	-1E+10	1	-1E+10	1
4902551	114	C	10/12/2023	02:04	-131.052	47.145	0	269.20	0	5.5500	0	33.8340	0	26.689	0	266.788	0	106.1	4	34.7	4	-1E+10	1	-1E+10	1	-1E+10	1	-1E+10	1	-1E+10	1	-1E+10	1
4902551	114	C	10/12/2023	02:04	-131.052	47.145	0	270.20	0	5.5440	0	33.8340	0	26.690	0	267.779	0	105.6	4	34.5	4	-1E+10	1	-1E+10	1	-1E+10	1	-1E+10	1	-1E+10	1	-1E+10	1
4902551	114	C	10/12/2023	02:04	-131.052	47.145	0	271.10	0	5.5410	0	33.8340	0	26.690	0	268.670	0	105.0	4	34.3	4	-1E+10	1	-1E+10	1	-1E+10	1	-1E+10	1	-1E+10	1	-1E+10	1
4902551	114	C	10/12/2023	02:04	-131.052	47.145	0	272.10	0	5.5350	0	33.8340	0	26.691	0	269.660	0	104.4	4	34.1	4	-1E+10	1	-1E+10	1	-1E+10	1	-1E+10	1	-1E+10	1	-1E+10	1
4902551	114	C	10/12/2023	02:04	-131.052	47.145	0	273.00	0	5.5280	0	33.8350	0	26.693	0	270.552	0	103.9	4	33.9	4	-1E+10	1	-1E+10	1	-1E+10	1	-1E+10	1	-1E+10	1	-1E+10	1
4902551	114	C	10/12/2023	02:04	-131.052	47.145	0	274.00	0	5.5210	0	33.8360	0	26.694	0	271.542	0	103.3	4	33.7	4	-1E+10	1	-1E+10	1	-1E+10	1	-1E+10	1	-1E+10	1	-1E+10	1
4902551	114	C	10/12/2023	02:04	-131.052	47.145	0	275.00	0	5.5040	0	33.8380	0	26.698	0	272.532	0	102.7	4	33.5	4	-1E+10	1	-1E+10	1	-1E+10	1	-1E+10	1	-1E+10	1	-1E+10	1
4902551	114	C	10/12/2023	02:04	-131.052	47.145	0	275.90	0	5.4990	0	33.8400	0	26.700	0	273.424	0	102.2	4	33.4	4	-1E+10	1	-1E+10	1	-1E+10	1	-1E+10	1	-1E+10	1	-1E+10	1
4902551	114	C	10/12/2023	02:04	-131.052	47.145	0	276.90	0	5.4900	0	33.8430	0	26.704	0	274.414	0	101.7	4	33.2	4	-1E+10	1	-1E+10	1	-1E+10	1	-1E+10	1	-1E+10	1	-1E+10	1
4902551	114	C	10/12/2023	02:04	-131.052	47.145	0	277.90	0	5.4590	0	33.8440	0	26.708	0	275.404	0	101.3	4	33.0	4	-1E+10	1	-1E+10	1	-1E+10	1	-1E+10	1	-1E+10	1	-1E+10	1
4902551	114	C	10/12/2023	02:04	-131.052	47.145	0	278.90	0	5.4580	0	33.8440	0	26.708	0	276.395	0	101.0	4	32.9	4	-1E+10	1	-1E+10	1	-1E+10	1	-1E+10	1	-1E+10	1	-1E+10	1
4902551	114	C	10/12/2023	02:04	-131.052	47.145	0	279.90	0	5.4550	0	33.8440	0	26.709	0	277.385	0	100.6	4	32.8	4	-1E+10	1	-1E+10	1	-1E+10	1	-1E+10	1	-1E+10	1	-1E+10	1
4902551	114	C	10/12/2023	02:04	-131.052	47.145	0	280.90	0	5.4530	0	33.8450	0	26.710	0	278.375	0	100.3	4	32.7	4	-1E+10	1	-1E+10	1	-1E+10	1	-1E+10	1	-1E+10	1	-1E+10	1
4902551	114	C	10/12/2023	02:04	-131.052	47.145	0	281.90	0	5.4510	0	33.8450	0	26.710	0	279.366	0	99.8	4	32.5	4	-1E+10	1	-1E+10	1	-1E+10	1	-1E+10	1	-1E+10	1	-1E+10	1
4902551	114	C	10/12/2023	02:04	-131.052	47.145	0	282.90	0	5.4450	0	33.8450	0	26.711	0	280.356	0	99.4	4	32.4	4	-1E+10	1	-1E+10	1	-1E+10	1	-1E+10	1	-1E+10	1	-1E+10	1
4902551	114	C	10/12/2023	02:04	-131.052	47.145	0	283.90	0	5.4420	0	33.8450	0	26.711	0	281.346	0	98.9	4	32.2	4	-1E+10	1	-1E+10	1	-1E+10	1	-1E+10	1	-1E+10	1	-1E+10	1
4902551	114	C	10/12/2023	02:04	-131.052	47.145	0	284.90	0	5.4270	0	33.8480	0	26.715	0	282.337	0	98.6	4	32.1	4	-1E+10	1	-1E+10	1	-1E+10	1	-1E+10	1	-1E+10	1	-1E+10	1
4902551	114	C	10/12/2023	02:04	-131.052	47.145	0	285.90	0	5.4010	0	33.8480	0	26.718	0	283.327	0	98.2	4	32.0	4	-1E+10	1	-1E+10	1	-1E+10	1	-1E+10	1	-1E+10	1	-1E+10	1
4902551	114	C	10/12/2023	02:04	-131.052	47.145	0	287.00	0	5.3920	0	33.8490	0	26.720	0	284.416	0	97.8	4	31.9	4	-1E+10	1	-1E+10	1	-1E+10	1	-1E+10	1	-1E+10	1	-1E+10	1
4902551	114	C	10/12/2023	02:04	-131.052	47.145	0	288.00	0	5.3850	0	33.8490	0	26.721	0	285.407	0	97.5	4	31.7	4	-1E+10	1	-1E+10	1	-1E+10	1	-1E+10	1	-1E+10	1	-1E+10	1
4902551	114	C	10/12/2023	02:04	-131.052	47.145	0	289.00	0	5.3820	0	33.8490	0	26.721	0	286.397	0	97.1	4	31.6	4	-1E+10	1	-1E+10	1	-1E+10	1	-1E+10	1	-1E+10	1	-1E+10	1
4902551	114	C	10/12/2023	02:04	-131.052	47.145	0	290.10	0	5.3700	0	33.8490	0	26.723	0	287.486	0	96.8	4	31.5	4	-1E+10	1	-1E+10	1	-1E+10	1	-1E+10	1	-1E+10	1	-1E+10	1
4902551	114	C	10/12/2023	02:04	-131.052	47.145	0	291.10	0	5.3680	0	33.8490	0	26.723	0	288.477	0	96.4	4	31.4	4	-1E+10	1	-1E+10	1	-1E+10	1	-1E+10	1	-1E+10	1	-1E+10	1
4902551	114	C	10/12/2023	02:04	-131.052	47.145	0	292.10	0	5.3470	0	33.8520	0	26.728	0	289.467	0	96.1	4	31.3	4	-1E+10	1	-1E+10	1	-1E+10	1	-1E+10	1	-1E+10	1	-1E+10	1
4902551	114	C	10/12/2023	02:04	-131.052	47.145	0	293.20	0	5.3340	0	33.8530	0	26.730	0	290.556	0	95.9	4	31.2	4	-1E+10	1	-1E+10	1	-1E+10	1	-1E+10	1	-1E+10	1	-1E+10	1
4902551	114	C	10/12/2023	02:04	-131.052	47.145	0	294.20	0	5.3160	0	33.8520	0	26.731	0	291.547	0	95.6	4	31.1	4	-1E+10	1	-1E+10	1	-1E+10	1	-1E+10	1	-1E+10	1	-1E+10	1
4902551	114	C	10/12/2023	02:04	-131.052	47.145	0	295.30	0	5.3100	0	33.8510	0	26.731	0	292.636	0	95.3	4	31.0	4	-1E+10	1	-1E+10	1	-1E+10	1	-1E+10	1	-1E+10	1	-1E+10	1
4902551	114	C	10/12/2023	02:04	-131.052	47.145	0	296.40	0	5.3100	0	33.8510	0	26.731	0	293.725	0	95.1	4	30.9	4	-1E+10	1	-1E+10	1	-1E+10	1	-1E+10	1	-1E+10	1	-1E+10	1
4902551	114	C	10/12/2023	02:04	-131.052	47.145	0	297.40	0	5.2920	0	33.8530	0	26.735	0	294.715	0	94.9	4	30.8	4	-1E+10	1	-1E+10	1	-1E+10	1	-1E+10	1	-1E+10	1	-1E+10	1
4902551	114	C	10/12/2023	02:04	-131.052	47.145	0	298.90	0	5.2900	0	33.8530	0	26.735	0	296.201	0	94.5	4	30.7	4	-1E+10	1	-1E+10	1	-1E+10	1	-1E+10	1	-1E+10	1	-1E+10	1
4902551	114	C	10/12/2023	02:04	-131.052	47.145	0	301.00	0	5.2840	0	33.8520	0	26.735	0	298.280	0	93.9	4	30.5	4	-1E+10	1	-1E+10	1	-1E+10	1	-1E+10	1	-1E+10	1	-1E+10	1
4902551	114	C	10/12/2023	02:04	-131.052	47.145	0	302.20	0	5.2820	0	33.8530	0	26.736	0	299.469	0	93.6	4	30.4	4	-1E+10	1	-1E+10	1	-1E+10	1	-1E+10	1	-1E+10	1	-1E+10	1
4902551	114	C	10/12/2023	02:04	-131.052	47.145	0	303.00	0	5.2810	0	33.8540	0	26.737	0	300.261	0	93.2	4	30.3	4	-1E+10	1	-1E+10	1	-1E+10	1	-1E+10	1	-1E+10	1	-1E+10	1
4902551	114	C	10/12/2023	02:04	-131.052	47.145	0	303.80	0	5.2750	0	33.8560	0	26.740	0	301.053	0	93.0	4	30.2	4	-1E+10	1	-1E+10	1	-1E+10	1	-1E+10	1	-1E+10	1	-1E+10	1
4902551	114	C	10/12/2023	02:04	-131.052	47.145	0	304.60	0	5.2730	0	33.8560	0	26.740	0	301.845	0	92.7	4	30.1	4	-1E+10	1	-1E+10	1	-1E+10	1	-1E+10	1	-1E+10	1	-1E+10	1
4902551	114	C	10/12/2023	02:04	-131.052	47.145	0	305.90	0	5.2660	0	33.8580	0	26.742	0	303.132	0	92.3	4	30.0	4	-1E+10	1	-1E+10	1	-1E+10	1	-1E+10	1	-1E+10	1	-1E+10	1
4902551	114	C	10/12/2023	02:04	-131.052	47.145	0	307.10	0	5.2590	0	33.8580	0	26.743	0	304.321	0	91.8	4	29.8	4	-1E+10	1	-1E+10	1	-1E+10	1	-1E+10	1	-1E+10	1	-1E+10	1
4902551	114	C	10/12/2023	02:04	-131.052	47.145	0	307.90	0	5.2500	0	33.8590	0	26.745	0	305.113	0	91.5	4	29.7	4	-1E+10	1	-1E+10	1	-1E+10	1	-1E+10	1	-1E+10	1	-1E+10	1
4902551	114	C	10/12/2023	02:04	-131.052	47.145	0	308.80	0	5.2330	0	33.8590	0	26.747	0	306.004	0	91.2	4	29.6	4	-1E+10	1	-1E+10	1	-1E+10	1	-1E+10	1	-1E+10	1	-1E+10	1
4902551	114	C	10/12/2023	02:04	-131.052	47.145	0	310.00	0	5.2220	0	33.8600	0	26.749	0	307.192	0	90.9	4	29.5	4	-1E+10	1	-1E+10	1	-1E+10	1	-1E+10	1	-1E+10	1	-1E+10	1
4902551	114	C	10/12/2023	02:04	-131.052	47.145	0	311.30	0	5.2120	0	33.8600	0	26.750	0	308.480	0	90.5	4	29.3	4	-1E+10	1	-1E+10	1	-1E+10	1	-1E+10	1	-1E+10	1	-1E+10	1
4902551	114	C	10/12/2023	02:04	-131.052	47.145	0	312.10	0	5.2020	0	33.8600	0	26.751	0	309.272	0	90.3	4	29.3	4	-1E+10	1	-1E+10	1	-1E+10	1	-1E+10	1	-1E+10	1	-1E+10	1
4902551	114	C	10/12/2023	02:04	-131.052	47.145	0	312.90	0	5.1950	0	33.8590	0	26.751	0	310.064	0	90.0	4	29.2	4	-1E+10	1	-1E+10	1	-1E+10	1	-1E+10	1	-1E+10	1	-1E+10	1
4902551	114	C	10/12/2023	02:04	-131.052	47.145	0	313.80	0	5.1800	0	33.8600	0	26.754	0	310.955	0	89.8	4	29.1	4	-1E+10	1	-1E+10	1	-1E+10	1	-1E+10	1	-1E+10	1	-1E+10	1
4902551	114	C	10/12/2023	02:04	-131.052	47.145	0	314.60	0	5.1720	0	33.8600	0	26.755	0	311.747	0	89.5	4	29.0	4	-1E+10	1	-1E+10	1	-1E+10	1	-1E+10	1	-1E+10	1	-1E+10	1
4902551	114	C	10/12/2023	02:04	-131.052	47.145	0	315.90	0	5.1590	0	33.8610	0	26.757	0	313.034	0	89.2	4	28.9	4	-1E+10	1	-1E+10	1	-1E+10	1	-1E+10	1	-1E+10	1	-1E+10	1
4902551	114	C	10/12/2023	02:04	-131.052	47.145	0	317.20	0	5.1480	0	33.8620	0	26.759	0	314.322	0	88.8	4	28.8	4	-1E+10	1	-1E+10	1	-1E+10	1	-1E+10	1	-1E+10	1	-1E+10	1
4902551	114	C	10/12/2023	02:04	-131.052	47.145	0	318.20	0	5.1390	0	33.8630	0	26.761	0	315.312	0	88.6	4	28.7	4	-1E+10	1	-1E+10	1	-1E+10	1	-1E+10	1	-1E+10	1	-1E+10	1
4902551	114	C	10/12/2023	02:04	-131.052	47.145	0	319.10	0	5.1370	0	33.8630	0	26.761	0	316.203	0	88.4	4	28.6	4	-1E+10	1	-1E+10	1	-1E+10	1	-1E+10	1	-1E+10	1	-1E+10	1
4902551	114	C	10/12/2023	02:04	-131.052	47.145	0	320.00	0	5.1350	0	33.8640	0	26.762	0	317.094	0	88.2	4	28.5	4	-1E+10	1	-1E+10	1	-1E+10	1	-1E+10	1	-1E+10	1	-1E+10	1
4902551	114	C	10/12/2023	02:04	-131.052	47.145	0	320.80	0	5.1340	0	33.8630	0	26.762	0	317.886	0	88.0	4	28.5	4	-1E+10	1	-1E+10	1	-1E+10	1	-1E+10	1	-1E+10	1	-1E+10	1
4902551	114	C	10/12/2023	02:04	-131.052	47.145	0	321.70	0	5.1300	0	33.8640	0	26.763	0	318.777	0	87.7	4	28.4	4	-1E+10	1	-1E+10	1	-1E+10	1	-1E+10	1	-1E+10	1	-1E+10	1
4902551	114	C	10/12/2023	02:04	-131.052	47.145	0	323.00	0	5.1270	0	33.8650	0	26.764	0	320.065	0	87.4	4	28.3	4	-1E+10	1	-1E+10	1	-1E+10	1	-1E+10	1	-1E+10	1	-1E+10	1
4902551	114	C	10/12/2023	02:04	-131.052	47.145	0	324.30	0	5.1240	0	33.8660	0	26.765	0	321.352	0	87.1	4	28.2	4	-1E+10	1	-1E+10	1	-1E+10	1	-1E+10	1	-1E+10	1	-1E+10	1
4902551	114	C	10/12/2023	02:04	-131.052	47.145	0	325.20	0	5.1190	0	33.8660	0	26.766	0	322.243	0	86.9	4	28.1	4	-1E+10	1	-1E+10	1	-1E+10	1	-1E+10	1	-1E+10	1	-1E+10	1
4902551	114	C	10/12/2023	02:04	-131.052	47.145	0	326.30	0	5.1140	0	33.8660	0	26.766	0	323.332	0	86.7	4	28.0	4	-1E+10	1	-1E+10	1	-1E+10	1	-1E+10	1	-1E+10	1	-1E+10	1
4902551	114	C	10/12/2023	02:04	-131.052	47.145	0	327.10	0	5.0990	0	33.8660	0	26.768	0	324.124	0	86.5	4	28.0	4	-1E+10	1	-1E+10	1	-1E+10	1	-1E+10	1	-1E+10	1	-1E+10	1
4902551	114	C	10/12/2023	02:04	-131.052	47.145	0	328.00	0	5.0940	0	33.8660	0	26.769	0	325.015	0	86.2	4	27.9	4	-1E+10	1	-1E+10	1	-1E+10	1	-1E+10	1	-1E+10	1	-1E+10	1
4902551	114	C	10/12/2023	02:04	-131.052	47.145	0	328.90	0	5.0890	0	33.8650	0	26.768	0	325.906	0	86.0	4	27.8	4	-1E+10	1	-1E+10	1	-1E+10	1	-1E+10	1	-1E+10	1	-1E+10	1
4902551	114	C	10/12/2023	02:04	-131.052	47.145	0	329.80	0	5.0820	0	33.8640	0	26.768	0	326.797	0	85.7	4	27.7	4	-1E+10	1	-1E+10	1	-1E+10	1	-1E+10	1	-1E+10	1	-1E+10	1
4902551	114	C	10/12/2023	02:04	-131.052	47.145	0	330.70	0	5.0760	0	33.8650	0	26.770	0	327.689	0	85.5	4	27.6	4	-1E+10	1	-1E+10	1	-1E+10	1	-1E+10	1	-1E+10	1	-1E+10	1
4902551	114	C	10/12/2023	02:04	-131.052	47.145	0	332.00	0	5.0600	0	33.8640	0	26.771	0	328.976	0	85.0	4	27.5	4	-1E+10	1	-1E+10	1	-1E+10	1	-1E+10	1	-1E+10	1	-1E+10	1
4902551	114	C	10/12/2023	02:04	-131.052	47.145	0	333.30	0	5.0500	0	33.8640	0	26.772	0	330.263	0	84.6	4	27.3	4	-1E+10	1	-1E+10	1	-1E+10	1	-1E+10	1	-1E+10	1	-1E+10	1
4902551	114	C	10/12/2023	02:04	-131.052	47.145	0	334.20	0	5.0470	0	33.8630	0	26.772	0	331.154	0	84.2	4	27.2	4	-1E+10	1	-1E+10	1	-1E+10	1	-1E+10	1	-1E+10	1	-1E+10	1
4902551	114	C	10/12/2023	02:04	-131.052	47.145	0	335.20	0	5.0460	0	33.8630	0	26.772	0	332.144	0	83.7	4	27.0	4	-1E+10	1	-1E+10	1	-1E+10	1	-1E+10	1	-1E+10	1	-1E+10	1
4902551	114	C	10/12/2023	02:04	-131.052	47.145	0	336.10	0	5.0370	0	33.8630	0	26.773	0	333.035	0	83.3	4	26.9	4	-1E+10	1	-1E+10	1	-1E+10	1	-1E+10	1	-1E+10	1	-1E+10	1
4902551	114	C	10/12/2023	02:04	-131.052	47.145	0	337.00	0	5.0090	0	33.8660	0	26.778	0	333.926	0	82.9	4	26.8	4	-1E+10	1	-1E+10	1	-1E+10	1	-1E+10	1	-1E+10	1	-1E+10	1
4902551	114	C	10/12/2023	02:04	-131.052	47.145	0	337.80	0	5.0030	0	33.8670	0	26.780	0	334.718	0	82.7	4	26.7	4	-1E+10	1	-1E+10	1	-1E+10	1	-1E+10	1	-1E+10	1	-1E+10	1
4902551	114	C	10/12/2023	02:04	-131.052	47.145	0	338.70	0	4.9970	0	33.8680	0	26.781	0	335.609	0	82.4	4	26.6	4	-1E+10	1	-1E+10	1	-1E+10	1	-1E+10	1	-1E+10	1	-1E+10	1
4902551	114	C	10/12/2023	02:04	-131.052	47.145	0	339.60	0	4.9940	0	33.8670	0	26.781	0	336.500	0	82.1	4	26.5	4	-1E+10	1	-1E+10	1	-1E+10	1	-1E+10	1	-1E+10	1	-1E+10	1
4902551	114	C	10/12/2023	02:04	-131.052	47.145	0	340.90	0	4.9900	0	33.8670	0	26.781	0	337.787	0	81.7	4	26.3	4	-1E+10	1	-1E+10	1	-1E+10	1	-1E+10	1	-1E+10	1	-1E+10	1
4902551	114	C	10/12/2023	02:04	-131.052	47.145	0	342.20	0	4.9820	0	33.8680	0	26.783	0	339.074	0	81.1	4	26.2	4	-1E+10	1	-1E+10	1	-1E+10	1	-1E+10	1	-1E+10	1	-1E+10	1
4902551	114	C	10/12/2023	02:04	-131.052	47.145	0	343.10	0	4.9760	0	33.8680	0	26.784	0	339.965	0	80.8	4	26.0	4	-1E+10	1	-1E+10	1	-1E+10	1	-1E+10	1	-1E+10	1	-1E+10	1
4902551	114	C	10/12/2023	02:04	-131.052	47.145	0	344.00	0	4.9620	0	33.8690	0	26.786	0	340.856	0	80.4	4	25.9	4	-1E+10	1	-1E+10	1	-1E+10	1	-1E+10	1	-1E+10	1	-1E+10	1
4902551	114	C	10/12/2023	02:04	-131.052	47.145	0	344.90	0	4.9440	0	33.8710	0	26.790	0	341.747	0	80.1	4	25.8	4	-1E+10	1	-1E+10	1	-1E+10	1	-1E+10	1	-1E+10	1	-1E+10	1
4902551	114	C	10/12/2023	02:04	-131.052	47.145	0	345.80	0	4.9360	0	33.8710	0	26.791	0	342.639	0	79.9	4	25.7	4	-1E+10	1	-1E+10	1	-1E+10	1	-1E+10	1	-1E+10	1	-1E+10	1
4902551	114	C	10/12/2023	02:04	-131.052	47.145	0	346.70	0	4.9340	0	33.8710	0	26.791	0	343.530	0	79.6	4	25.7	4	-1E+10	1	-1E+10	1	-1E+10	1	-1E+10	1	-1E+10	1	-1E+10	1
4902551	114	C	10/12/2023	02:04	-131.052	47.145	0	347.60	0	4.9350	0	33.8720	0	26.791	0	344.421	0	79.3	4	25.6	4	-1E+10	1	-1E+10	1	-1E+10	1	-1E+10	1	-1E+10	1	-1E+10	1
4902551	114	C	10/12/2023	02:04	-131.052	47.145	0	348.90	0	4.9310	0	33.8720	0	26.792	0	345.708	0	78.8	4	25.4	4	-1E+10	1	-1E+10	1	-1E+10	1	-1E+10	1	-1E+10	1	-1E+10	1
4902551	114	C	10/12/2023	02:04	-131.052	47.145	0	350.30	0	4.9290	0	33.8720	0	26.792	0	347.094	0	78.2	4	25.2	4	-1E+10	1	-1E+10	1	-1E+10	1	-1E+10	1	-1E+10	1	-1E+10	1
4902551	114	C	10/12/2023	02:04	-131.052	47.145	0	353.00	0	4.9210	0	33.8760	0	26.796	0	349.767	0	76.9	4	24.7	4	-1E+10	1	-1E+10	1	-1E+10	1	-1E+10	1	-1E+10	1	-1E+10	1
4902551	114	C	10/12/2023	02:04	-131.052	47.145	0	357.90	0	4.9260	0	33.8850	0	26.803	0	354.618	0	74.9	4	24.1	4	-1E+10	1	-1E+10	1	-1E+10	1	-1E+10	1	-1E+10	1	-1E+10	1
4902551	114	C	10/12/2023	02:04	-131.052	47.145	0	363.10	0	4.9190	0	33.8930	0	26.810	0	359.765	0	72.6	4	23.4	4	-1E+10	1	-1E+10	1	-1E+10	1	-1E+10	1	-1E+10	1	-1E+10	1
4902551	114	C	10/12/2023	02:04	-131.052	47.145	0	368.20	0	4.8690	0	33.8980	0	26.820	0	364.814	0	70.2	4	22.6	4	-1E+10	1	-1E+10	1	-1E+10	1	-1E+10	1	-1E+10	1	-1E+10	1
4902551	114	C	10/12/2023	02:04	-131.052	47.145	0	372.90	0	4.8000	0	33.9030	0	26.831	0	369.467	0	68.4	4	22.0	4	-1E+10	1	-1E+10	1	-1E+10	1	-1E+10	1	-1E+10	1	-1E+10	1
4902551	114	C	10/12/2023	02:04	-131.052	47.145	0	377.70	0	4.7680	0	33.9060	0	26.837	0	374.218	0	66.9	4	21.5	4	-1E+10	1	-1E+10	1	-1E+10	1	-1E+10	1	-1E+10	1	-1E+10	1
4902551	114	C	10/12/2023	02:04	-131.052	47.145	0	382.90	0	4.7660	0	33.9150	0	26.845	0	379.365	0	64.9	4	20.8	4	-1E+10	1	-1E+10	1	-1E+10	1	-1E+10	1	-1E+10	1	-1E+10	1
4902551	114	C	10/12/2023	02:04	-131.052	47.145	0	387.80	0	4.7400	0	33.9220	0	26.853	0	384.216	0	63.6	4	20.4	4	-1E+10	1	-1E+10	1	-1E+10	1	-1E+10	1	-1E+10	1	-1E+10	1
4902551	114	C	10/12/2023	02:04	-131.052	47.145	0	392.80	0	4.7110	0	33.9240	0	26.858	0	389.165	0	62.3	4	20.0	4	-1E+10	1	-1E+10	1	-1E+10	1	-1E+10	1	-1E+10	1	-1E+10	1
4902551	114	C	10/12/2023	02:04	-131.052	47.145	0	397.70	0	4.6880	0	33.9280	0	26.864	0	394.015	0	60.7	4	19.4	4	-1E+10	1	-1E+10	1	-1E+10	1	-1E+10	1	-1E+10	1	-1E+10	1
4902551	114	C	10/12/2023	02:04	-131.052	47.145	0	402.80	0	4.6760	0	33.9340	0	26.870	0	399.063	0	58.7	4	18.8	4	-1E+10	1	-1E+10	1	-1E+10	1	-1E+10	1	-1E+10	1	-1E+10	1
4902551	114	C	10/12/2023	02:04	-131.052	47.145	0	407.80	0	4.7250	0	33.9500	0	26.877	0	404.011	0	56.7	4	18.2	4	-1E+10	1	-1E+10	1	-1E+10	1	-1E+10	1	-1E+10	1	-1E+10	1
4902551	114	C	10/12/2023	02:04	-131.052	47.145	0	412.90	0	4.7020	0	33.9550	0	26.884	0	409.059	0	55.4	4	17.8	4	-1E+10	1	-1E+10	1	-1E+10	1	-1E+10	1	-1E+10	1	-1E+10	1
4902551	114	C	10/12/2023	02:04	-131.052	47.145	0	418.20	0	4.6790	0	33.9600	0	26.890	0	414.304	0	54.0	4	17.3	4	-1E+10	1	-1E+10	1	-1E+10	1	-1E+10	1	-1E+10	1	-1E+10	1
4902551	114	C	10/12/2023	02:04	-131.052	47.145	0	422.90	0	4.6590	0	33.9650	0	26.897	0	418.956	0	52.9	4	16.9	4	-1E+10	1	-1E+10	1	-1E+10	1	-1E+10	1	-1E+10	1	-1E+10	1
4902551	114	C	10/12/2023	02:04	-131.052	47.145	0	427.60	0	4.6340	0	33.9690	0	26.902	0	423.607	0	51.9	4	16.6	4	-1E+10	1	-1E+10	1	-1E+10	1	-1E+10	1	-1E+10	1	-1E+10	1
4902551	114	C	10/12/2023	02:04	-131.052	47.145	0	432.80	0	4.6200	0	33.9750	0	26.909	0	428.753	0	50.6	4	16.2	4	-1E+10	1	-1E+10	1	-1E+10	1	-1E+10	1	-1E+10	1	-1E+10	1
4902551	114	C	10/12/2023	02:04	-131.052	47.145	0	438.00	0	4.6100	0	33.9830	0	26.916	0	433.899	0	49.7	4	15.9	4	-1E+10	1	-1E+10	1	-1E+10	1	-1E+10	1	-1E+10	1	-1E+10	1
4902551	114	C	10/12/2023	02:04	-131.052	47.145	0	442.80	0	4.5960	0	33.9830	0	26.918	0	438.649	0	48.8	4	15.6	4	-1E+10	1	-1E+10	1	-1E+10	1	-1E+10	1	-1E+10	1	-1E+10	1
4902551	114	C	10/12/2023	02:04	-131.052	47.145	0	447.50	0	4.5650	0	33.9850	0	26.923	0	443.300	0	47.5	4	15.2	4	-1E+10	1	-1E+10	1	-1E+10	1	-1E+10	1	-1E+10	1	-1E+10	1
4902551	114	C	10/12/2023	02:04	-131.052	47.145	0	452.90	0	4.5840	0	33.9960	0	26.930	0	448.644	0	46.1	4	14.7	4	-1E+10	1	-1E+10	1	-1E+10	1	-1E+10	1	-1E+10	1	-1E+10	1
4902551	114	C	10/12/2023	02:04	-131.052	47.145	0	458.30	0	4.5370	0	33.9960	0	26.935	0	453.987	0	44.5	4	14.2	4	-1E+10	1	-1E+10	1	-1E+10	1	-1E+10	1	-1E+10	1	-1E+10	1
4902551	114	C	10/12/2023	02:04	-131.052	47.145	0	463.20	0	4.5520	0	34.0070	0	26.942	0	458.835	0	43.3	4	13.8	4	-1E+10	1	-1E+10	1	-1E+10	1	-1E+10	1	-1E+10	1	-1E+10	1
4902551	114	C	10/12/2023	02:04	-131.052	47.145	0	468.20	0	4.4900	0	34.0060	0	26.948	0	463.783	0	42.1	4	13.4	4	-1E+10	1	-1E+10	1	-1E+10	1	-1E+10	1	-1E+10	1	-1E+10	1
4902551	114	C	10/12/2023	02:04	-131.052	47.145	0	473.20	0	4.4910	0	34.0140	0	26.954	0	468.730	0	40.4	4	12.9	4	-1E+10	1	-1E+10	1	-1E+10	1	-1E+10	1	-1E+10	1	-1E+10	1
4902551	114	C	10/12/2023	02:04	-131.052	47.145	0	478.30	0	4.4790	0	34.0270	0	26.966	0	473.776	0	39.4	4	12.6	4	-1E+10	1	-1E+10	1	-1E+10	1	-1E+10	1	-1E+10	1	-1E+10	1
4902551	114	C	10/12/2023	02:04	-131.052	47.145	0	482.90	0	4.4360	0	34.0270	0	26.970	0	478.327	0	38.4	4	12.2	4	-1E+10	1	-1E+10	1	-1E+10	1	-1E+10	1	-1E+10	1	-1E+10	1
4902551	114	C	10/12/2023	02:04	-131.052	47.145	0	487.90	0	4.4230	0	34.0330	0	26.977	0	483.274	0	37.2	4	11.8	4	-1E+10	1	-1E+10	1	-1E+10	1	-1E+10	1	-1E+10	1	-1E+10	1
4902551	114	C	10/12/2023	02:04	-131.052	47.145	0	492.90	0	4.4250	0	34.0410	0	26.983	0	488.221	0	35.9	4	11.4	4	-1E+10	1	-1E+10	1	-1E+10	1	-1E+10	1	-1E+10	1	-1E+10	1
4902551	114	C	10/12/2023	02:04	-131.052	47.145	0	497.70	0	4.4350	0	34.0460	0	26.986	0	492.969	0	34.5	4	11.0	4	-1E+10	1	-1E+10	1	-1E+10	1	-1E+10	1	-1E+10	1	-1E+10	1
4902551	114	C	10/12/2023	02:04	-131.052	47.145	0	502.70	0	4.4600	0	34.0550	0	26.990	0	497.916	0	33.7	4	10.8	4	-1E+10	1	-1E+10	1	-1E+10	1	-1E+10	1	-1E+10	1	-1E+10	1
4902551	114	C	10/12/2023	02:04	-131.052	47.145	0	507.70	0	4.4490	0	34.0580	0	26.994	0	502.862	0	32.9	4	10.5	4	-1E+10	1	-1E+10	1	-1E+10	1	-1E+10	1	-1E+10	1	-1E+10	1
4902551	114	C	10/12/2023	02:04	-131.052	47.145	0	512.80	0	4.4160	0	34.0600	0	26.999	0	507.907	0	32.1	4	10.2	4	-1E+10	1	-1E+10	1	-1E+10	1	-1E+10	1	-1E+10	1	-1E+10	1
4902551	114	C	10/12/2023	02:04	-131.052	47.145	0	518.00	0	4.3890	0	34.0630	0	27.004	0	513.051	0	30.8	4	9.8	4	-1E+10	1	-1E+10	1	-1E+10	1	-1E+10	1	-1E+10	1	-1E+10	1
4902551	114	C	10/12/2023	02:04	-131.052	47.145	0	522.80	0	4.3880	0	34.0700	0	27.010	0	517.800	0	30.0	4	9.5	4	-1E+10	1	-1E+10	1	-1E+10	1	-1E+10	1	-1E+10	1	-1E+10	1
4902551	114	C	10/12/2023	02:04	-131.052	47.145	0	527.70	0	4.3810	0	34.0750	0	27.015	0	522.647	0	29.0	4	9.2	4	-1E+10	1	-1E+10	1	-1E+10	1	-1E+10	1	-1E+10	1	-1E+10	1
4902551	114	C	10/12/2023	02:04	-131.052	47.145	0	532.90	0	4.3850	0	34.0800	0	27.018	0	527.790	0	27.8	4	8.9	4	-1E+10	1	-1E+10	1	-1E+10	1	-1E+10	1	-1E+10	1	-1E+10	1
4902551	114	C	10/12/2023	02:04	-131.052	47.145	0	538.20	0	4.3930	0	34.0870	0	27.023	0	533.033	0	26.7	4	8.5	4	-1E+10	1	-1E+10	1	-1E+10	1	-1E+10	1	-1E+10	1	-1E+10	1
4902551	114	C	10/12/2023	02:04	-131.052	47.145	0	543.10	0	4.3710	0	34.0940	0	27.031	0	537.879	0	25.9	4	8.2	4	-1E+10	1	-1E+10	1	-1E+10	1	-1E+10	1	-1E+10	1	-1E+10	1
4902551	114	C	10/12/2023	02:04	-131.052	47.145	0	547.90	0	4.3610	0	34.0990	0	27.036	0	542.627	0	24.9	4	7.9	4	-1E+10	1	-1E+10	1	-1E+10	1	-1E+10	1	-1E+10	1	-1E+10	1
4902551	114	C	10/12/2023	02:04	-131.052	47.145	0	553.20	0	4.3530	0	34.1100	0	27.046	0	547.869	0	24.3	4	7.7	4	-1E+10	1	-1E+10	1	-1E+10	1	-1E+10	1	-1E+10	1	-1E+10	1
4902551	114	C	10/12/2023	02:04	-131.052	47.145	0	558.10	0	4.3340	0	34.1130	0	27.050	0	552.715	0	24.1	4	7.7	4	-1E+10	1	-1E+10	1	-1E+10	1	-1E+10	1	-1E+10	1	-1E+10	1
4902551	114	C	10/12/2023	02:04	-131.052	47.145	0	563.10	0	4.2960	0	34.1110	0	27.053	0	557.660	0	23.9	4	7.6	4	-1E+10	1	-1E+10	1	-1E+10	1	-1E+10	1	-1E+10	1	-1E+10	1
4902551	114	C	10/12/2023	02:04	-131.052	47.145	0	568.10	0	4.2850	0	34.1130	0	27.055	0	562.605	0	23.4	4	7.4	4	-1E+10	1	-1E+10	1	-1E+10	1	-1E+10	1	-1E+10	1	-1E+10	1
4902551	114	C	10/12/2023	02:04	-131.052	47.145	0	573.10	0	4.2830	0	34.1160	0	27.058	0	567.550	0	22.8	4	7.2	4	-1E+10	1	-1E+10	1	-1E+10	1	-1E+10	1	-1E+10	1	-1E+10	1
4902551	114	C	10/12/2023	02:04	-131.052	47.145	0	578.10	0	4.2730	0	34.1190	0	27.061	0	572.495	0	22.1	4	7.0	4	-1E+10	1	-1E+10	1	-1E+10	1	-1E+10	1	-1E+10	1	-1E+10	1
4902551	114	C	10/12/2023	02:04	-131.052	47.145	0	582.70	0	4.2690	0	34.1240	0	27.066	0	577.044	0	21.4	4	6.8	4	-1E+10	1	-1E+10	1	-1E+10	1	-1E+10	1	-1E+10	1	-1E+10	1
4902551	114	C	10/12/2023	02:04	-131.052	47.145	0	587.90	0	4.2520	0	34.1310	0	27.073	0	582.186	0	20.7	4	6.6	4	-1E+10	1	-1E+10	1	-1E+10	1	-1E+10	1	-1E+10	1	-1E+10	1
4902551	114	C	10/12/2023	02:04	-131.052	47.145	0	593.00	0	4.2300	0	34.1370	0	27.080	0	587.229	0	20.2	4	6.4	4	-1E+10	1	-1E+10	1	-1E+10	1	-1E+10	1	-1E+10	1	-1E+10	1
4902551	114	C	10/12/2023	02:04	-131.052	47.145	0	597.80	0	4.2140	0	34.1390	0	27.084	0	591.976	0	19.7	4	6.3	4	-1E+10	1	-1E+10	1	-1E+10	1	-1E+10	1	-1E+10	1	-1E+10	1
4902551	114	C	10/12/2023	02:04	-131.052	47.145	0	602.60	0	4.2010	0	34.1420	0	27.087	0	596.722	0	19.2	4	6.1	4	-1E+10	1	-1E+10	1	-1E+10	1	-1E+10	1	-1E+10	1	-1E+10	1
4902551	114	C	10/12/2023	02:04	-131.052	47.145	0	608.00	0	4.1930	0	34.1470	0	27.092	0	602.061	0	18.7	4	5.9	4	-1E+10	1	-1E+10	1	-1E+10	1	-1E+10	1	-1E+10	1	-1E+10	1
4902551	114	C	10/12/2023	02:04	-131.052	47.145	0	613.30	0	4.1980	0	34.1510	0	27.095	0	607.302	0	18.0	4	5.7	4	-1E+10	1	-1E+10	1	-1E+10	1	-1E+10	1	-1E+10	1	-1E+10	1
4902551	114	C	10/12/2023	02:04	-131.052	47.145	0	618.20	0	4.1960	0	34.1560	0	27.099	0	612.147	0	17.6	4	5.6	4	-1E+10	1	-1E+10	1	-1E+10	1	-1E+10	1	-1E+10	1	-1E+10	1
4902551	114	C	10/12/2023	02:04	-131.052	47.145	0	623.10	0	4.1790	0	34.1610	0	27.105	0	616.992	0	17.2	4	5.5	4	-1E+10	1	-1E+10	1	-1E+10	1	-1E+10	1	-1E+10	1	-1E+10	1
4902551	114	C	10/12/2023	02:04	-131.052	47.145	0	628.10	0	4.1710	0	34.1660	0	27.110	0	621.935	0	16.8	4	5.3	4	-1E+10	1	-1E+10	1	-1E+10	1	-1E+10	1	-1E+10	1	-1E+10	1
4902551	114	C	10/12/2023	02:04	-131.052	47.145	0	633.20	0	4.1610	0	34.1700	0	27.114	0	626.977	0	16.3	4	5.2	4	-1E+10	1	-1E+10	1	-1E+10	1	-1E+10	1	-1E+10	1	-1E+10	1
4902551	114	C	10/12/2023	02:04	-131.052	47.145	0	638.30	0	4.1570	0	34.1730	0	27.117	0	632.019	0	15.8	4	5.0	4	-1E+10	1	-1E+10	1	-1E+10	1	-1E+10	1	-1E+10	1	-1E+10	1
4902551	114	C	10/12/2023	02:04	-131.052	47.145	0	642.90	0	4.1480	0	34.1770	0	27.121	0	636.567	0	15.4	4	4.9	4	-1E+10	1	-1E+10	1	-1E+10	1	-1E+10	1	-1E+10	1	-1E+10	1
4902551	114	C	10/12/2023	02:04	-131.052	47.145	0	647.60	0	4.1460	0	34.1830	0	27.126	0	641.214	0	15.0	4	4.7	4	-1E+10	1	-1E+10	1	-1E+10	1	-1E+10	1	-1E+10	1	-1E+10	1
4902551	114	C	10/12/2023	02:04	-131.052	47.145	0	652.90	0	4.1370	0	34.1880	0	27.131	0	646.453	0	14.7	4	4.7	4	-1E+10	1	-1E+10	1	-1E+10	1	-1E+10	1	-1E+10	1	-1E+10	1
4902551	114	C	10/12/2023	02:04	-131.052	47.145	0	658.20	0	4.1310	0	34.1910	0	27.134	0	651.693	0	14.6	4	4.6	4	-1E+10	1	-1E+10	1	-1E+10	1	-1E+10	1	-1E+10	1	-1E+10	1
4902551	114	C	10/12/2023	02:04	-131.052	47.145	0	662.90	0	4.1260	0	34.1930	0	27.136	0	656.339	0	14.4	4	4.6	4	-1E+10	1	-1E+10	1	-1E+10	1	-1E+10	1	-1E+10	1	-1E+10	1
4902551	114	C	10/12/2023	02:04	-131.052	47.145	0	667.90	0	4.1170	0	34.1960	0	27.140	0	661.281	0	14.4	4	4.6	4	-1E+10	1	-1E+10	1	-1E+10	1	-1E+10	1	-1E+10	1	-1E+10	1
4902551	114	C	10/12/2023	02:04	-131.052	47.145	0	673.10	0	4.0950	0	34.1970	0	27.143	0	666.421	0	14.3	4	4.5	4	-1E+10	1	-1E+10	1	-1E+10	1	-1E+10	1	-1E+10	1	-1E+10	1
4902551	114	C	10/12/2023	02:04	-131.052	47.145	0	678.00	0	4.0830	0	34.2010	0	27.147	0	671.265	0	14.3	4	4.5	4	-1E+10	1	-1E+10	1	-1E+10	1	-1E+10	1	-1E+10	1	-1E+10	1
4902551	114	C	10/12/2023	02:04	-131.052	47.145	0	682.90	0	4.0470	0	34.2010	0	27.151	0	676.108	0	14.6	4	4.6	4	-1E+10	1	-1E+10	1	-1E+10	1	-1E+10	1	-1E+10	1	-1E+10	1
4902551	114	C	10/12/2023	02:04	-131.052	47.145	0	687.90	0	3.9950	0	34.1990	0	27.155	0	681.050	0	14.5	4	4.6	4	-1E+10	1	-1E+10	1	-1E+10	1	-1E+10	1	-1E+10	1	-1E+10	1
4902551	114	C	10/12/2023	02:04	-131.052	47.145	0	693.00	0	3.9850	0	34.2030	0	27.159	0	686.091	0	14.2	4	4.5	4	-1E+10	1	-1E+10	1	-1E+10	1	-1E+10	1	-1E+10	1	-1E+10	1
4902551	114	C	10/12/2023	02:04	-131.052	47.145	0	698.20	0	3.9810	0	34.2060	0	27.162	0	691.231	0	13.9	4	4.4	4	-1E+10	1	-1E+10	1	-1E+10	1	-1E+10	1	-1E+10	1	-1E+10	1
4902551	114	C	10/12/2023	02:04	-131.052	47.145	0	703.00	0	3.9800	0	34.2120	0	27.167	0	695.975	0	13.6	4	4.3	4	-1E+10	1	-1E+10	1	-1E+10	1	-1E+10	1	-1E+10	1	-1E+10	1
4902551	114	C	10/12/2023	02:04	-131.052	47.145	0	707.90	0	3.9610	0	34.2150	0	27.171	0	700.818	0	13.4	4	4.2	4	-1E+10	1	-1E+10	1	-1E+10	1	-1E+10	1	-1E+10	1	-1E+10	1
4902551	114	C	10/12/2023	02:04	-131.052	47.145	0	713.00	0	3.9340	0	34.2210	0	27.179	0	705.858	0	13.3	4	4.2	4	-1E+10	1	-1E+10	1	-1E+10	1	-1E+10	1	-1E+10	1	-1E+10	1
4902551	114	C	10/12/2023	02:04	-131.052	47.145	0	717.60	0	3.9150	0	34.2230	0	27.182	0	710.404	0	13.2	4	4.2	4	-1E+10	1	-1E+10	1	-1E+10	1	-1E+10	1	-1E+10	1	-1E+10	1
4902551	114	C	10/12/2023	02:04	-131.052	47.145	0	722.80	0	3.8850	0	34.2250	0	27.187	0	715.543	0	13.0	4	4.1	4	-1E+10	1	-1E+10	1	-1E+10	1	-1E+10	1	-1E+10	1	-1E+10	1
4902551	114	C	10/12/2023	02:04	-131.052	47.145	0	728.10	0	3.8800	0	34.2290	0	27.190	0	720.781	0	12.7	4	4.0	4	-1E+10	1	-1E+10	1	-1E+10	1	-1E+10	1	-1E+10	1	-1E+10	1
4902551	114	C	10/12/2023	02:04	-131.052	47.145	0	733.00	0	3.8820	0	34.2330	0	27.194	0	725.623	0	12.4	4	3.9	4	-1E+10	1	-1E+10	1	-1E+10	1	-1E+10	1	-1E+10	1	-1E+10	1
4902551	114	C	10/12/2023	02:04	-131.052	47.145	0	737.90	0	3.8890	0	34.2390	0	27.198	0	730.465	0	12.1	4	3.8	4	-1E+10	1	-1E+10	1	-1E+10	1	-1E+10	1	-1E+10	1	-1E+10	1
4902551	114	C	10/12/2023	02:04	-131.052	47.145	0	742.80	0	3.8740	0	34.2430	0	27.202	0	735.307	0	12.0	4	3.8	4	-1E+10	1	-1E+10	1	-1E+10	1	-1E+10	1	-1E+10	1	-1E+10	1
4902551	114	C	10/12/2023	02:04	-131.052	47.145	0	747.60	0	3.8600	0	34.2450	0	27.205	0	740.050	0	11.7	4	3.7	4	-1E+10	1	-1E+10	1	-1E+10	1	-1E+10	1	-1E+10	1	-1E+10	1
4902551	114	C	10/12/2023	02:04	-131.052	47.145	0	752.50	0	3.8720	0	34.2500	0	27.208	0	744.892	0	11.4	4	3.6	4	-1E+10	1	-1E+10	1	-1E+10	1	-1E+10	1	-1E+10	1	-1E+10	1
4902551	114	C	10/12/2023	02:04	-131.052	47.145	0	757.90	0	3.8510	0	34.2550	0	27.214	0	750.228	0	11.2	4	3.5	4	-1E+10	1	-1E+10	1	-1E+10	1	-1E+10	1	-1E+10	1	-1E+10	1
4902551	114	C	10/12/2023	02:04	-131.052	47.145	0	763.40	0	3.8560	0	34.2610	0	27.219	0	755.662	0	10.9	4	3.4	4	-1E+10	1	-1E+10	1	-1E+10	1	-1E+10	1	-1E+10	1	-1E+10	1
4902551	114	C	10/12/2023	02:04	-131.052	47.145	0	767.90	0	3.8630	0	34.2670	0	27.223	0	760.108	0	10.9	4	3.4	4	-1E+10	1	-1E+10	1	-1E+10	1	-1E+10	1	-1E+10	1	-1E+10	1
4902551	114	C	10/12/2023	02:04	-131.052	47.145	0	772.50	0	3.8400	0	34.2670	0	27.225	0	764.653	0	10.9	4	3.4	4	-1E+10	1	-1E+10	1	-1E+10	1	-1E+10	1	-1E+10	1	-1E+10	1
4902551	114	C	10/12/2023	02:04	-131.052	47.145	0	777.60	0	3.8110	0	34.2670	0	27.228	0	769.692	0	10.8	4	3.4	4	-1E+10	1	-1E+10	1	-1E+10	1	-1E+10	1	-1E+10	1	-1E+10	1
4902551	114	C	10/12/2023	02:04	-131.052	47.145	0	782.80	0	3.8070	0	34.2720	0	27.232	0	774.829	0	10.6	4	3.3	4	-1E+10	1	-1E+10	1	-1E+10	1	-1E+10	1	-1E+10	1	-1E+10	1
4902551	114	C	10/12/2023	02:04	-131.052	47.145	0	788.00	0	3.8110	0	34.2740	0	27.234	0	779.967	0	10.5	4	3.3	4	-1E+10	1	-1E+10	1	-1E+10	1	-1E+10	1	-1E+10	1	-1E+10	1
4902551	114	C	10/12/2023	02:04	-131.052	47.145	0	792.80	0	3.8130	0	34.2770	0	27.236	0	784.709	0	10.4	4	3.3	4	-1E+10	1	-1E+10	1	-1E+10	1	-1E+10	1	-1E+10	1	-1E+10	1
4902551	114	C	10/12/2023	02:04	-131.052	47.145	0	797.50	0	3.8130	0	34.2820	0	27.240	0	789.352	0	10.3	4	3.3	4	-1E+10	1	-1E+10	1	-1E+10	1	-1E+10	1	-1E+10	1	-1E+10	1
4902551	114	C	10/12/2023	02:04	-131.052	47.145	0	802.80	0	3.7950	0	34.2840	0	27.243	0	794.588	0	10.4	4	3.3	4	-1E+10	1	-1E+10	1	-1E+10	1	-1E+10	1	-1E+10	1	-1E+10	1
4902551	114	C	10/12/2023	02:04	-131.052	47.145	0	808.10	0	3.7830	0	34.2880	0	27.248	0	799.823	0	10.3	4	3.2	4	-1E+10	1	-1E+10	1	-1E+10	1	-1E+10	1	-1E+10	1	-1E+10	1
4902551	114	C	10/12/2023	02:04	-131.052	47.145	0	812.90	0	3.7760	0	34.2910	0	27.251	0	804.565	0	10.4	4	3.3	4	-1E+10	1	-1E+10	1	-1E+10	1	-1E+10	1	-1E+10	1	-1E+10	1
4902551	114	C	10/12/2023	02:04	-131.052	47.145	0	817.80	0	3.7480	0	34.2910	0	27.254	0	809.405	0	10.5	4	3.3	4	-1E+10	1	-1E+10	1	-1E+10	1	-1E+10	1	-1E+10	1	-1E+10	1
4902551	114	C	10/12/2023	02:04	-131.052	47.145	0	822.70	0	3.7230	0	34.2920	0	27.257	0	814.245	0	10.6	4	3.3	4	-1E+10	1	-1E+10	1	-1E+10	1	-1E+10	1	-1E+10	1	-1E+10	1
4902551	114	C	10/12/2023	02:04	-131.052	47.145	0	827.60	0	3.7050	0	34.2910	0	27.258	0	819.085	0	10.6	4	3.3	4	-1E+10	1	-1E+10	1	-1E+10	1	-1E+10	1	-1E+10	1	-1E+10	1
4902551	114	C	10/12/2023	02:04	-131.052	47.145	0	833.10	0	3.6820	0	34.2920	0	27.261	0	824.518	0	10.7	4	3.4	4	-1E+10	1	-1E+10	1	-1E+10	1	-1E+10	1	-1E+10	1	-1E+10	1
4902551	114	C	10/12/2023	02:04	-131.052	47.145	0	838.40	0	3.6650	0	34.2950	0	27.265	0	829.753	0	10.7	4	3.3	4	-1E+10	1	-1E+10	1	-1E+10	1	-1E+10	1	-1E+10	1	-1E+10	1
4902551	114	C	10/12/2023	02:04	-131.052	47.145	0	843.20	0	3.6450	0	34.2970	0	27.269	0	834.494	0	10.7	4	3.4	4	-1E+10	1	-1E+10	1	-1E+10	1	-1E+10	1	-1E+10	1	-1E+10	1
4902551	114	C	10/12/2023	02:04	-131.052	47.145	0	848.20	0	3.6040	0	34.2970	0	27.273	0	839.432	0	10.6	4	3.3	4	-1E+10	1	-1E+10	1	-1E+10	1	-1E+10	1	-1E+10	1	-1E+10	1
4902551	114	C	10/12/2023	02:04	-131.052	47.145	0	853.00	0	3.6050	0	34.3020	0	27.277	0	844.173	0	10.3	4	3.2	4	-1E+10	1	-1E+10	1	-1E+10	1	-1E+10	1	-1E+10	1	-1E+10	1
4902551	114	C	10/12/2023	02:04	-131.052	47.145	0	857.90	0	3.6130	0	34.3080	0	27.281	0	849.012	0	10.2	4	3.2	4	-1E+10	1	-1E+10	1	-1E+10	1	-1E+10	1	-1E+10	1	-1E+10	1
4902551	114	C	10/12/2023	02:04	-131.052	47.145	0	862.90	0	3.6170	0	34.3110	0	27.283	0	853.950	0	10.2	4	3.2	4	-1E+10	1	-1E+10	1	-1E+10	1	-1E+10	1	-1E+10	1	-1E+10	1
4902551	114	C	10/12/2023	02:04	-131.052	47.145	0	867.80	0	3.5910	0	34.3120	0	27.286	0	858.789	0	10.2	4	3.2	4	-1E+10	1	-1E+10	1	-1E+10	1	-1E+10	1	-1E+10	1	-1E+10	1
4902551	114	C	10/12/2023	02:04	-131.052	47.145	0	872.70	0	3.5800	0	34.3140	0	27.289	0	863.628	0	10.2	4	3.2	4	-1E+10	1	-1E+10	1	-1E+10	1	-1E+10	1	-1E+10	1	-1E+10	1
4902551	114	C	10/12/2023	02:04	-131.052	47.145	0	878.00	0	3.5610	0	34.3170	0	27.293	0	868.862	0	10.2	4	3.2	4	-1E+10	1	-1E+10	1	-1E+10	1	-1E+10	1	-1E+10	1	-1E+10	1
4902551	114	C	10/12/2023	02:04	-131.052	47.145	0	883.20	0	3.5580	0	34.3210	0	27.297	0	873.997	0	10.1	4	3.2	4	-1E+10	1	-1E+10	1	-1E+10	1	-1E+10	1	-1E+10	1	-1E+10	1
4902551	114	C	10/12/2023	02:04	-131.052	47.145	0	888.10	0	3.5630	0	34.3250	0	27.299	0	878.836	0	10.2	4	3.2	4	-1E+10	1	-1E+10	1	-1E+10	1	-1E+10	1	-1E+10	1	-1E+10	1
4902551	114	C	10/12/2023	02:04	-131.052	47.145	0	893.10	0	3.5280	0	34.3230	0	27.301	0	883.773	0	10.2	4	3.2	4	-1E+10	1	-1E+10	1	-1E+10	1	-1E+10	1	-1E+10	1	-1E+10	1
4902551	114	C	10/12/2023	02:04	-131.052	47.145	0	898.00	0	3.5330	0	34.3250	0	27.302	0	888.611	0	10.2	4	3.2	4	-1E+10	1	-1E+10	1	-1E+10	1	-1E+10	1	-1E+10	1	-1E+10	1
4902551	114	C	10/12/2023	02:04	-131.052	47.145	0	903.20	0	3.5200	0	34.3280	0	27.306	0	893.746	0	10.2	4	3.2	4	-1E+10	1	-1E+10	1	-1E+10	1	-1E+10	1	-1E+10	1	-1E+10	1
4902551	114	C	10/12/2023	02:04	-131.052	47.145	0	907.90	0	3.5130	0	34.3300	0	27.308	0	898.387	0	10.2	4	3.2	4	-1E+10	1	-1E+10	1	-1E+10	1	-1E+10	1	-1E+10	1	-1E+10	1
4902551	114	C	10/12/2023	02:04	-131.052	47.145	0	912.70	0	3.4930	0	34.3300	0	27.310	0	903.126	0	10.2	4	3.2	4	-1E+10	1	-1E+10	1	-1E+10	1	-1E+10	1	-1E+10	1	-1E+10	1
4902551	114	C	10/12/2023	02:04	-131.052	47.145	0	918.00	0	3.4760	0	34.3310	0	27.313	0	908.359	0	10.2	4	3.2	4	-1E+10	1	-1E+10	1	-1E+10	1	-1E+10	1	-1E+10	1	-1E+10	1
4902551	114	C	10/12/2023	02:04	-131.052	47.145	0	922.90	0	3.4690	0	34.3370	0	27.318	0	913.197	0	10.1	4	3.1	4	-1E+10	1	-1E+10	1	-1E+10	1	-1E+10	1	-1E+10	1	-1E+10	1
4902551	114	C	10/12/2023	02:04	-131.052	47.145	0	927.80	0	3.4680	0	34.3400	0	27.321	0	918.035	0	10.0	4	3.1	4	-1E+10	1	-1E+10	1	-1E+10	1	-1E+10	1	-1E+10	1	-1E+10	1
4902551	114	C	10/12/2023	02:04	-131.052	47.145	0	932.90	0	3.4550	0	34.3450	0	27.326	0	923.070	0	10.0	4	3.1	4	-1E+10	1	-1E+10	1	-1E+10	1	-1E+10	1	-1E+10	1	-1E+10	1
4902551	114	C	10/12/2023	02:04	-131.052	47.145	0	937.90	0	3.4630	0	34.3490	0	27.328	0	928.006	0	10.1	4	3.1	4	-1E+10	1	-1E+10	1	-1E+10	1	-1E+10	1	-1E+10	1	-1E+10	1
4902551	114	C	10/12/2023	02:04	-131.052	47.145	0	943.00	0	3.4360	0	34.3490	0	27.331	0	933.041	0	10.2	4	3.2	4	-1E+10	1	-1E+10	1	-1E+10	1	-1E+10	1	-1E+10	1	-1E+10	1
4902551	114	C	10/12/2023	02:04	-131.052	47.145	0	947.70	0	3.4040	0	34.3480	0	27.333	0	937.681	0	10.3	4	3.2	4	-1E+10	1	-1E+10	1	-1E+10	1	-1E+10	1	-1E+10	1	-1E+10	1
4902551	114	C	10/12/2023	02:04	-131.052	47.145	0	953.00	0	3.3980	0	34.3510	0	27.336	0	942.913	0	10.5	4	3.3	4	-1E+10	1	-1E+10	1	-1E+10	1	-1E+10	1	-1E+10	1	-1E+10	1
4902551	114	C	10/12/2023	02:04	-131.052	47.145	0	958.30	0	3.3580	0	34.3490	0	27.338	0	948.145	0	10.5	4	3.3	4	-1E+10	1	-1E+10	1	-1E+10	1	-1E+10	1	-1E+10	1	-1E+10	1
4902551	114	C	10/12/2023	02:04	-131.052	47.145	0	963.10	0	3.3450	0	34.3520	0	27.342	0	952.883	0	10.6	4	3.3	4	-1E+10	1	-1E+10	1	-1E+10	1	-1E+10	1	-1E+10	1	-1E+10	1
4902551	114	C	10/12/2023	02:04	-131.052	47.145	0	968.00	0	3.3220	0	34.3540	0	27.346	0	957.720	0	10.7	4	3.3	4	-1E+10	1	-1E+10	1	-1E+10	1	-1E+10	1	-1E+10	1	-1E+10	1
4902551	114	C	10/12/2023	02:04	-131.052	47.145	0	973.00	0	3.3080	0	34.3560	0	27.349	0	962.655	0	10.7	4	3.3	4	-1E+10	1	-1E+10	1	-1E+10	1	-1E+10	1	-1E+10	1	-1E+10	1
4902551	114	C	10/12/2023	02:04	-131.052	47.145	0	978.00	0	3.3000	0	34.3570	0	27.350	0	967.590	0	10.7	4	3.3	4	-1E+10	1	-1E+10	1	-1E+10	1	-1E+10	1	-1E+10	1	-1E+10	1
4902551	114	C	10/12/2023	02:04	-131.052	47.145	0	983.10	0	3.2860	0	34.3570	0	27.352	0	972.624	0	10.8	4	3.3	4	-1E+10	1	-1E+10	1	-1E+10	1	-1E+10	1	-1E+10	1	-1E+10	1
4902551	114	C	10/12/2023	02:04	-131.052	47.145	0	988.40	0	3.2780	0	34.3600	0	27.355	0	977.855	0	10.8	4	3.3	4	-1E+10	1	-1E+10	1	-1E+10	1	-1E+10	1	-1E+10	1	-1E+10	1
4902551	114	C	10/12/2023	02:04	-131.052	47.145	0	993.10	0	3.2620	0	34.3620	0	27.358	0	982.494	0	10.8	4	3.4	4	-1E+10	1	-1E+10	1	-1E+10	1	-1E+10	1	-1E+10	1	-1E+10	1
4902551	114	C	10/12/2023	02:04	-131.052	47.145	0	997.70	0	3.2560	0	34.3640	0	27.360	0	987.034	0	10.8	4	3.4	4	-1E+10	1	-1E+10	1	-1E+10	1	-1E+10	1	-1E+10	1	-1E+10	1
4902551	114	C	10/12/2023	02:04	-131.052	47.145	0	1005.30	0	3.2460	0	34.3650	0	27.362	0	994.535	0	10.8	4	3.4	4	-1E+10	1	-1E+10	1	-1E+10	1	-1E+10	1	-1E+10	1	-1E+10	1
4902551	114	C	10/12/2023	02:04	-131.052	47.145	0	1015.50	0	3.2370	0	34.3670	0	27.365	0	1004.601	0	10.8	4	3.4	4	-1E+10	1	-1E+10	1	-1E+10	1	-1E+10	1	-1E+10	1	-1E+10	1
4902551	114	C	10/12/2023	02:04	-131.052	47.145	0	1025.30	0	3.2340	0	34.3700	0	27.367	0	1014.272	0	10.8	4	3.4	4	-1E+10	1	-1E+10	1	-1E+10	1	-1E+10	1	-1E+10	1	-1E+10	1
4902551	114	C	10/12/2023	02:04	-131.052	47.145	0	1035.30	0	3.2170	0	34.3730	0	27.371	0	1024.141	0	10.9	4	3.4	4	-1E+10	1	-1E+10	1	-1E+10	1	-1E+10	1	-1E+10	1	-1E+10	1
4902551	114	C	10/12/2023	02:04	-131.052	47.145	0	1045.40	0	3.2030	0	34.3760	0	27.375	0	1034.107	0	11.0	4	3.4	4	-1E+10	1	-1E+10	1	-1E+10	1	-1E+10	1	-1E+10	1	-1E+10	1
4902551	114	C	10/12/2023	02:04	-131.052	47.145	0	1055.30	0	3.1900	0	34.3790	0	27.379	0	1043.875	0	11.0	4	3.4	4	-1E+10	1	-1E+10	1	-1E+10	1	-1E+10	1	-1E+10	1	-1E+10	1
4902551	114	C	10/12/2023	02:04	-131.052	47.145	0	1065.20	0	3.1700	0	34.3840	0	27.385	0	1053.643	0	11.1	4	3.4	4	-1E+10	1	-1E+10	1	-1E+10	1	-1E+10	1	-1E+10	1	-1E+10	1
4902551	114	C	10/12/2023	02:04	-131.052	47.145	0	1075.20	0	3.1600	0	34.3880	0	27.389	0	1063.509	0	11.2	4	3.5	4	-1E+10	1	-1E+10	1	-1E+10	1	-1E+10	1	-1E+10	1	-1E+10	1
4902551	114	C	10/12/2023	02:04	-131.052	47.145	0	1085.20	0	3.1350	0	34.3920	0	27.394	0	1073.375	0	11.4	4	3.5	4	-1E+10	1	-1E+10	1	-1E+10	1	-1E+10	1	-1E+10	1	-1E+10	1
4902551	114	C	10/12/2023	02:04	-131.052	47.145	0	1095.20	0	3.1170	0	34.3930	0	27.397	0	1083.240	0	11.5	4	3.6	4	-1E+10	1	-1E+10	1	-1E+10	1	-1E+10	1	-1E+10	1	-1E+10	1
4902551	114	C	10/12/2023	02:04	-131.052	47.145	0	1105.10	0	3.1020	0	34.3960	0	27.401	0	1093.006	0	11.6	4	3.6	4	-1E+10	1	-1E+10	1	-1E+10	1	-1E+10	1	-1E+10	1	-1E+10	1
4902551	114	C	10/12/2023	02:04	-131.052	47.145	0	1115.30	0	3.0840	0	34.4020	0	27.407	0	1103.068	0	11.8	4	3.6	4	-1E+10	1	-1E+10	1	-1E+10	1	-1E+10	1	-1E+10	1	-1E+10	1
4902551	114	C	10/12/2023	02:04	-131.052	47.145	0	1125.60	0	3.0530	0	34.4050	0	27.412	0	1113.228	0	11.9	4	3.7	4	-1E+10	1	-1E+10	1	-1E+10	1	-1E+10	1	-1E+10	1	-1E+10	1
4902551	114	C	10/12/2023	02:04	-131.052	47.145	0	1135.70	0	3.0360	0	34.4080	0	27.416	0	1123.190	0	12.1	4	3.7	4	-1E+10	1	-1E+10	1	-1E+10	1	-1E+10	1	-1E+10	1	-1E+10	1
4902551	114	C	10/12/2023	02:04	-131.052	47.145	0	1145.20	0	3.0090	0	34.4110	0	27.421	0	1132.559	0	12.2	4	3.8	4	-1E+10	1	-1E+10	1	-1E+10	1	-1E+10	1	-1E+10	1	-1E+10	1
4902551	114	C	10/12/2023	02:04	-131.052	47.145	0	1155.40	0	2.9840	0	34.4130	0	27.425	0	1142.619	0	12.4	4	3.8	4	-1E+10	1	-1E+10	1	-1E+10	1	-1E+10	1	-1E+10	1	-1E+10	1
4902551	114	C	10/12/2023	02:04	-131.052	47.145	0	1165.70	0	2.9640	0	34.4150	0	27.429	0	1152.777	0	12.5	4	3.9	4	-1E+10	1	-1E+10	1	-1E+10	1	-1E+10	1	-1E+10	1	-1E+10	1
4902551	114	C	10/12/2023	02:04	-131.052	47.145	0	1175.60	0	2.9520	0	34.4180	0	27.432	0	1162.540	0	12.7	4	3.9	4	-1E+10	1	-1E+10	1	-1E+10	1	-1E+10	1	-1E+10	1	-1E+10	1
4902551	114	C	10/12/2023	02:04	-131.052	47.145	0	1185.50	0	2.9310	0	34.4210	0	27.437	0	1172.302	0	12.9	4	4.0	4	-1E+10	1	-1E+10	1	-1E+10	1	-1E+10	1	-1E+10	1	-1E+10	1
4902551	114	C	10/12/2023	02:04	-131.052	47.145	0	1195.30	0	2.9140	0	34.4230	0	27.440	0	1181.966	0	13.0	4	4.0	4	-1E+10	1	-1E+10	1	-1E+10	1	-1E+10	1	-1E+10	1	-1E+10	1
4902551	114	C	10/12/2023	02:04	-131.052	47.145	0	1205.10	0	2.9020	0	34.4260	0	27.443	0	1191.629	0	13.2	4	4.1	4	-1E+10	1	-1E+10	1	-1E+10	1	-1E+10	1	-1E+10	1	-1E+10	1
4902551	114	C	10/12/2023	02:04	-131.052	47.145	0	1215.30	0	2.8890	0	34.4280	0	27.446	0	1201.685	0	13.3	4	4.1	4	-1E+10	1	-1E+10	1	-1E+10	1	-1E+10	1	-1E+10	1	-1E+10	1
4902551	114	C	10/12/2023	02:04	-131.052	47.145	0	1225.60	0	2.8840	0	34.4290	0	27.447	0	1211.840	0	13.5	4	4.1	4	-1E+10	1	-1E+10	1	-1E+10	1	-1E+10	1	-1E+10	1	-1E+10	1
4902551	114	C	10/12/2023	02:04	-131.052	47.145	0	1235.70	0	2.8690	0	34.4320	0	27.451	0	1221.798	0	13.7	4	4.2	4	-1E+10	1	-1E+10	1	-1E+10	1	-1E+10	1	-1E+10	1	-1E+10	1
4902551	114	C	10/12/2023	02:04	-131.052	47.145	0	1245.40	0	2.8490	0	34.4350	0	27.455	0	1231.360	0	14.0	4	4.3	4	-1E+10	1	-1E+10	1	-1E+10	1	-1E+10	1	-1E+10	1	-1E+10	1
4902551	114	C	10/12/2023	02:04	-131.052	47.145	0	1255.30	0	2.8290	0	34.4400	0	27.461	0	1241.119	0	14.4	4	4.4	4	-1E+10	1	-1E+10	1	-1E+10	1	-1E+10	1	-1E+10	1	-1E+10	1
4902551	114	C	10/12/2023	02:04	-131.052	47.145	0	1265.30	0	2.8050	0	34.4420	0	27.465	0	1250.977	0	14.7	4	4.5	4	-1E+10	1	-1E+10	1	-1E+10	1	-1E+10	1	-1E+10	1	-1E+10	1
4902551	114	C	10/12/2023	02:04	-131.052	47.145	0	1275.50	0	2.7830	0	34.4470	0	27.471	0	1261.031	0	15.2	4	4.7	4	-1E+10	1	-1E+10	1	-1E+10	1	-1E+10	1	-1E+10	1	-1E+10	1
4902551	114	C	10/12/2023	02:04	-131.052	47.145	0	1285.70	0	2.7740	0	34.4510	0	27.475	0	1271.084	0	15.8	4	4.9	4	-1E+10	1	-1E+10	1	-1E+10	1	-1E+10	1	-1E+10	1	-1E+10	1
4902551	114	C	10/12/2023	02:04	-131.052	47.145	0	1295.90	0	2.7830	0	34.4600	0	27.481	0	1281.137	0	16.7	4	5.1	4	-1E+10	1	-1E+10	1	-1E+10	1	-1E+10	1	-1E+10	1	-1E+10	1
4902551	114	C	10/12/2023	02:04	-131.052	47.145	0	1305.60	0	2.7620	0	34.4630	0	27.486	0	1290.697	0	17.0	4	5.2	4	-1E+10	1	-1E+10	1	-1E+10	1	-1E+10	1	-1E+10	1	-1E+10	1
4902551	114	C	10/12/2023	02:04	-131.052	47.145	0	1315.60	0	2.7480	0	34.4670	0	27.490	0	1300.552	0	17.4	4	5.4	4	-1E+10	1	-1E+10	1	-1E+10	1	-1E+10	1	-1E+10	1	-1E+10	1
4902551	114	C	10/12/2023	02:04	-131.052	47.145	0	1325.60	0	2.7310	0	34.4680	0	27.492	0	1310.407	0	18.0	4	5.5	4	-1E+10	1	-1E+10	1	-1E+10	1	-1E+10	1	-1E+10	1	-1E+10	1
4902551	114	C	10/12/2023	02:04	-131.052	47.145	0	1335.30	0	2.7340	0	34.4750	0	27.498	0	1319.965	0	18.8	4	5.8	4	-1E+10	1	-1E+10	1	-1E+10	1	-1E+10	1	-1E+10	1	-1E+10	1
4902551	114	C	10/12/2023	02:04	-131.052	47.145	0	1345.20	0	2.7210	0	34.4770	0	27.501	0	1329.720	0	19.3	4	5.9	4	-1E+10	1	-1E+10	1	-1E+10	1	-1E+10	1	-1E+10	1	-1E+10	1
4902551	114	C	10/12/2023	02:04	-131.052	47.145	0	1355.20	0	2.7060	0	34.4800	0	27.504	0	1339.573	0	20.0	4	6.1	4	-1E+10	1	-1E+10	1	-1E+10	1	-1E+10	1	-1E+10	1	-1E+10	1
4902551	114	C	10/12/2023	02:04	-131.052	47.145	0	1365.40	0	2.7000	0	34.4840	0	27.508	0	1349.623	0	20.5	4	6.3	4	-1E+10	1	-1E+10	1	-1E+10	1	-1E+10	1	-1E+10	1	-1E+10	1
4902551	114	C	10/12/2023	02:04	-131.052	47.145	0	1375.40	0	2.6840	0	34.4870	0	27.512	0	1359.475	0	21.0	4	6.4	4	-1E+10	1	-1E+10	1	-1E+10	1	-1E+10	1	-1E+10	1	-1E+10	1
4902551	114	C	10/12/2023	02:04	-131.052	47.145	0	1385.10	0	2.6620	0	34.4890	0	27.516	0	1369.032	0	21.5	4	6.6	4	-1E+10	1	-1E+10	1	-1E+10	1	-1E+10	1	-1E+10	1	-1E+10	1
4902551	114	C	10/12/2023	02:04	-131.052	47.145	0	1395.00	0	2.6430	0	34.4920	0	27.520	0	1378.784	0	22.0	4	6.7	4	-1E+10	1	-1E+10	1	-1E+10	1	-1E+10	1	-1E+10	1	-1E+10	1
4902551	114	C	10/12/2023	02:04	-131.052	47.145	0	1405.00	0	2.6270	0	34.4930	0	27.522	0	1388.635	0	22.3	4	6.8	4	-1E+10	1	-1E+10	1	-1E+10	1	-1E+10	1	-1E+10	1	-1E+10	1
4902551	114	C	10/12/2023	02:04	-131.052	47.145	0	1415.10	0	2.6070	0	34.4950	0	27.525	0	1398.584	0	22.6	4	6.9	4	-1E+10	1	-1E+10	1	-1E+10	1	-1E+10	1	-1E+10	1	-1E+10	1
4902551	114	C	10/12/2023	02:04	-131.052	47.145	0	1425.10	0	2.5940	0	34.4960	0	27.527	0	1408.434	0	23.0	4	7.0	4	-1E+10	1	-1E+10	1	-1E+10	1	-1E+10	1	-1E+10	1	-1E+10	1
4902551	114	C	10/12/2023	02:04	-131.052	47.145	0	1435.00	0	2.5840	0	34.4980	0	27.530	0	1418.185	0	23.5	4	7.2	4	-1E+10	1	-1E+10	1	-1E+10	1	-1E+10	1	-1E+10	1	-1E+10	1
4902551	114	C	10/12/2023	02:04	-131.052	47.145	0	1445.30	0	2.5670	0	34.5010	0	27.534	0	1428.330	0	24.2	4	7.4	4	-1E+10	1	-1E+10	1	-1E+10	1	-1E+10	1	-1E+10	1	-1E+10	1
4902551	114	C	10/12/2023	02:04	-131.052	47.145	0	1455.60	0	2.5430	0	34.5030	0	27.537	0	1438.474	0	24.7	4	7.6	4	-1E+10	1	-1E+10	1	-1E+10	1	-1E+10	1	-1E+10	1	-1E+10	1
4902551	114	C	10/12/2023	02:04	-131.052	47.145	0	1465.50	0	2.5250	0	34.5050	0	27.540	0	1448.223	0	25.4	4	7.7	4	-1E+10	1	-1E+10	1	-1E+10	1	-1E+10	1	-1E+10	1	-1E+10	1
4902551	114	C	10/12/2023	02:04	-131.052	47.145	0	1475.40	0	2.5080	0	34.5070	0	27.544	0	1457.972	0	25.9	4	7.9	4	-1E+10	1	-1E+10	1	-1E+10	1	-1E+10	1	-1E+10	1	-1E+10	1
4902551	114	C	10/12/2023	02:04	-131.052	47.145	0	1485.60	0	2.4870	0	34.5100	0	27.548	0	1468.016	0	26.3	4	8.0	4	-1E+10	1	-1E+10	1	-1E+10	1	-1E+10	1	-1E+10	1	-1E+10	1
4902551	114	C	10/12/2023	02:04	-131.052	47.145	0	1495.30	0	2.4660	0	34.5100	0	27.550	0	1477.568	0	26.4	4	8.0	4	-1E+10	1	-1E+10	1	-1E+10	1	-1E+10	1	-1E+10	1	-1E+10	1
4902551	114	C	10/12/2023	02:04	-131.052	47.145	0	1505.30	0	2.4450	0	34.5100	0	27.551	0	1487.414	0	27.1	4	8.2	4	-1E+10	1	-1E+10	1	-1E+10	1	-1E+10	1	-1E+10	1	-1E+10	1
4902551	114	C	10/12/2023	02:04	-131.052	47.145	0	1515.30	0	2.4450	0	34.5150	0	27.555	0	1497.260	0	28.1	4	8.5	4	-1E+10	1	-1E+10	1	-1E+10	1	-1E+10	1	-1E+10	1	-1E+10	1
4902551	114	C	10/12/2023	02:04	-131.052	47.145	0	1525.30	0	2.4330	0	34.5170	0	27.558	0	1507.105	0	28.6	4	8.7	4	-1E+10	1	-1E+10	1	-1E+10	1	-1E+10	1	-1E+10	1	-1E+10	1
4902551	114	C	10/12/2023	02:04	-131.052	47.145	0	1535.50	0	2.4220	0	34.5190	0	27.561	0	1517.147	0	29.1	4	8.9	4	-1E+10	1	-1E+10	1	-1E+10	1	-1E+10	1	-1E+10	1	-1E+10	1
4902551	114	C	10/12/2023	02:04	-131.052	47.145	0	1545.60	0	2.4070	0	34.5210	0	27.564	0	1527.090	0	29.7	4	9.0	4	-1E+10	1	-1E+10	1	-1E+10	1	-1E+10	1	-1E+10	1	-1E+10	1
4902551	114	C	10/12/2023	02:04	-131.052	47.145	0	1555.40	0	2.3940	0	34.5230	0	27.566	0	1536.737	0	30.2	4	9.2	4	-1E+10	1	-1E+10	1	-1E+10	1	-1E+10	1	-1E+10	1	-1E+10	1
4902551	114	C	10/12/2023	02:04	-131.052	47.145	0	1565.50	0	2.3840	0	34.5240	0	27.568	0	1546.679	0	30.7	4	9.3	4	-1E+10	1	-1E+10	1	-1E+10	1	-1E+10	1	-1E+10	1	-1E+10	1
4902551	114	C	10/12/2023	02:04	-131.052	47.145	0	1575.60	0	2.3680	0	34.5260	0	27.571	0	1556.620	0	31.4	4	9.5	4	-1E+10	1	-1E+10	1	-1E+10	1	-1E+10	1	-1E+10	1	-1E+10	1
4902551	114	C	10/12/2023	02:04	-131.052	47.145	0	1585.30	0	2.3480	0	34.5280	0	27.574	0	1566.167	0	32.0	4	9.7	4	-1E+10	1	-1E+10	1	-1E+10	1	-1E+10	1	-1E+10	1	-1E+10	1
4902551	114	C	10/12/2023	02:04	-131.052	47.145	0	1595.20	0	2.3400	0	34.5300	0	27.576	0	1575.911	0	32.4	4	9.9	4	-1E+10	1	-1E+10	1	-1E+10	1	-1E+10	1	-1E+10	1	-1E+10	1
4902551	114	C	10/12/2023	02:04	-131.052	47.145	0	1605.20	0	2.3290	0	34.5310	0	27.578	0	1585.753	0	33.0	4	10.0	4	-1E+10	1	-1E+10	1	-1E+10	1	-1E+10	1	-1E+10	1	-1E+10	1
4902551	114	C	10/12/2023	02:04	-131.052	47.145	0	1615.30	0	2.3160	0	34.5330	0	27.581	0	1595.692	0	33.5	4	10.2	4	-1E+10	1	-1E+10	1	-1E+10	1	-1E+10	1	-1E+10	1	-1E+10	1
4902551	114	C	10/12/2023	02:04	-131.052	47.145	0	1625.20	0	2.3040	0	34.5340	0	27.583	0	1605.435	0	34.0	4	10.3	4	-1E+10	1	-1E+10	1	-1E+10	1	-1E+10	1	-1E+10	1	-1E+10	1
4902551	114	C	10/12/2023	02:04	-131.052	47.145	0	1635.20	0	2.2920	0	34.5350	0	27.585	0	1615.275	0	34.6	4	10.5	4	-1E+10	1	-1E+10	1	-1E+10	1	-1E+10	1	-1E+10	1	-1E+10	1
4902551	114	C	10/12/2023	02:04	-131.052	47.145	0	1645.70	0	2.2740	0	34.5380	0	27.589	0	1625.607	0	35.2	4	10.7	4	-1E+10	1	-1E+10	1	-1E+10	1	-1E+10	1	-1E+10	1	-1E+10	1
4902551	114	C	10/12/2023	02:04	-131.052	47.145	0	1655.50	0	2.2640	0	34.5390	0	27.590	0	1635.249	0	35.6	4	10.8	4	-1E+10	1	-1E+10	1	-1E+10	1	-1E+10	1	-1E+10	1	-1E+10	1
4902551	114	C	10/12/2023	02:04	-131.052	47.145	0	1665.40	0	2.2550	0	34.5400	0	27.592	0	1644.990	0	35.9	4	10.9	4	-1E+10	1	-1E+10	1	-1E+10	1	-1E+10	1	-1E+10	1	-1E+10	1
4902551	114	C	10/12/2023	02:04	-131.052	47.145	0	1675.70	0	2.2460	0	34.5410	0	27.593	0	1655.123	0	36.5	4	11.1	4	-1E+10	1	-1E+10	1	-1E+10	1	-1E+10	1	-1E+10	1	-1E+10	1
4902551	114	C	10/12/2023	02:04	-131.052	47.145	0	1685.80	0	2.2390	0	34.5430	0	27.596	0	1665.060	0	37.3	4	11.3	4	-1E+10	1	-1E+10	1	-1E+10	1	-1E+10	1	-1E+10	1	-1E+10	1
4902551	114	C	10/12/2023	02:04	-131.052	47.145	0	1695.80	0	2.2220	0	34.5450	0	27.599	0	1674.897	0	38.0	4	11.5	4	-1E+10	1	-1E+10	1	-1E+10	1	-1E+10	1	-1E+10	1	-1E+10	1
4902551	114	C	10/12/2023	02:04	-131.052	47.145	0	1705.40	0	2.2130	0	34.5470	0	27.601	0	1684.341	0	38.9	4	11.8	4	-1E+10	1	-1E+10	1	-1E+10	1	-1E+10	1	-1E+10	1	-1E+10	1
4902551	114	C	10/12/2023	02:04	-131.052	47.145	0	1715.00	0	2.1920	0	34.5500	0	27.605	0	1693.784	0	39.8	4	12.0	4	-1E+10	1	-1E+10	1	-1E+10	1	-1E+10	1	-1E+10	1	-1E+10	1
4902551	114	C	10/12/2023	02:04	-131.052	47.145	0	1725.50	0	2.1760	0	34.5520	0	27.608	0	1704.112	0	40.5	4	12.2	4	-1E+10	1	-1E+10	1	-1E+10	1	-1E+10	1	-1E+10	1	-1E+10	1
4902551	114	C	10/12/2023	02:04	-131.052	47.145	0	1735.70	0	2.1670	0	34.5530	0	27.610	0	1714.144	0	40.7	4	12.3	4	-1E+10	1	-1E+10	1	-1E+10	1	-1E+10	1	-1E+10	1	-1E+10	1
4902551	114	C	10/12/2023	02:04	-131.052	47.145	0	1745.30	0	2.1540	0	34.5520	0	27.610	0	1723.586	0	41.0	4	12.4	4	-1E+10	1	-1E+10	1	-1E+10	1	-1E+10	1	-1E+10	1	-1E+10	1
4902551	114	C	10/12/2023	02:04	-131.052	47.145	0	1755.20	0	2.1340	0	34.5540	0	27.613	0	1733.322	0	41.9	4	12.7	4	-1E+10	1	-1E+10	1	-1E+10	1	-1E+10	1	-1E+10	1	-1E+10	1
4902551	114	C	10/12/2023	02:04	-131.052	47.145	0	1765.20	0	2.1190	0	34.5570	0	27.617	0	1743.157	0	42.7	4	12.9	4	-1E+10	1	-1E+10	1	-1E+10	1	-1E+10	1	-1E+10	1	-1E+10	1
4902551	114	C	10/12/2023	02:04	-131.052	47.145	0	1775.20	0	2.1090	0	34.5580	0	27.618	0	1752.991	0	43.3	4	13.1	4	-1E+10	1	-1E+10	1	-1E+10	1	-1E+10	1	-1E+10	1	-1E+10	1
4902551	114	C	10/12/2023	02:04	-131.052	47.145	0	1785.50	0	2.1000	0	34.5600	0	27.621	0	1763.119	0	43.9	4	13.3	4	-1E+10	1	-1E+10	1	-1E+10	1	-1E+10	1	-1E+10	1	-1E+10	1
4902551	114	C	10/12/2023	02:04	-131.052	47.145	0	1795.50	0	2.0910	0	34.5610	0	27.622	0	1772.952	0	44.6	4	13.5	4	-1E+10	1	-1E+10	1	-1E+10	1	-1E+10	1	-1E+10	1	-1E+10	1
4902551	114	C	10/12/2023	02:04	-131.052	47.145	0	1805.10	0	2.0820	0	34.5630	0	27.625	0	1782.391	0	45.1	4	13.6	4	-1E+10	1	-1E+10	1	-1E+10	1	-1E+10	1	-1E+10	1	-1E+10	1
4902551	114	C	10/12/2023	02:04	-131.052	47.145	0	1815.40	0	2.0710	0	34.5640	0	27.626	0	1792.518	0	45.7	4	13.8	4	-1E+10	1	-1E+10	1	-1E+10	1	-1E+10	1	-1E+10	1	-1E+10	1
4902551	114	C	10/12/2023	02:04	-131.052	47.145	0	1825.40	0	2.0630	0	34.5650	0	27.628	0	1802.350	0	46.6	4	14.1	4	-1E+10	1	-1E+10	1	-1E+10	1	-1E+10	1	-1E+10	1	-1E+10	1
4902551	114	C	10/12/2023	02:04	-131.052	47.145	0	1835.00	0	2.0530	0	34.5680	0	27.631	0	1811.788	0	47.3	4	14.3	4	-1E+10	1	-1E+10	1	-1E+10	1	-1E+10	1	-1E+10	1	-1E+10	1
4902551	114	C	10/12/2023	02:04	-131.052	47.145	0	1845.60	0	2.0370	0	34.5690	0	27.633	0	1822.208	0	48.0	4	14.5	4	-1E+10	1	-1E+10	1	-1E+10	1	-1E+10	1	-1E+10	1	-1E+10	1
4902551	114	C	10/12/2023	02:04	-131.052	47.145	0	1855.50	0	2.0240	0	34.5710	0	27.636	0	1831.940	0	48.6	4	14.7	4	-1E+10	1	-1E+10	1	-1E+10	1	-1E+10	1	-1E+10	1	-1E+10	1
4902551	114	C	10/12/2023	02:04	-131.052	47.145	0	1865.20	0	2.0150	0	34.5720	0	27.637	0	1841.475	0	49.1	4	14.8	4	-1E+10	1	-1E+10	1	-1E+10	1	-1E+10	1	-1E+10	1	-1E+10	1
4902551	114	C	10/12/2023	02:04	-131.052	47.145	0	1875.30	0	2.0110	0	34.5730	0	27.639	0	1851.402	0	49.7	4	15.0	4	-1E+10	1	-1E+10	1	-1E+10	1	-1E+10	1	-1E+10	1	-1E+10	1
4902551	114	C	10/12/2023	02:04	-131.052	47.145	0	1885.10	0	2.0020	0	34.5740	0	27.640	0	1861.035	0	50.3	4	15.2	4	-1E+10	1	-1E+10	1	-1E+10	1	-1E+10	1	-1E+10	1	-1E+10	1
4902551	114	C	10/12/2023	02:04	-131.052	47.145	0	1895.30	0	1.9920	0	34.5760	0	27.643	0	1871.060	0	51.0	4	15.4	4	-1E+10	1	-1E+10	1	-1E+10	1	-1E+10	1	-1E+10	1	-1E+10	1
4902551	114	C	10/12/2023	02:04	-131.052	47.145	0	1905.30	0	1.9840	0	34.5770	0	27.644	0	1880.888	0	51.4	4	15.5	4	-1E+10	1	-1E+10	1	-1E+10	1	-1E+10	1	-1E+10	1	-1E+10	1
4902551	114	C	10/12/2023	02:04	-131.052	47.145	0	1915.20	0	1.9800	0	34.5780	0	27.645	0	1890.617	0	51.7	4	15.6	4	-1E+10	1	-1E+10	1	-1E+10	1	-1E+10	1	-1E+10	1	-1E+10	1
4902551	114	C	10/12/2023	02:04	-131.052	47.145	0	1925.20	0	1.9770	0	34.5790	0	27.646	0	1900.444	0	52.1	4	15.7	4	-1E+10	1	-1E+10	1	-1E+10	1	-1E+10	1	-1E+10	1	-1E+10	1
4902551	114	C	10/12/2023	02:04	-131.052	47.145	0	1935.00	0	1.9710	0	34.5800	0	27.648	0	1910.074	0	52.6	4	15.9	4	-1E+10	1	-1E+10	1	-1E+10	1	-1E+10	1	-1E+10	1	-1E+10	1
4902551	114	C	10/12/2023	02:04	-131.052	47.145	0	1945.10	0	1.9640	0	34.5810	0	27.649	0	1919.998	0	53.1	4	16.0	4	-1E+10	1	-1E+10	1	-1E+10	1	-1E+10	1	-1E+10	1	-1E+10	1
4902551	114	C	10/12/2023	02:04	-131.052	47.145	0	1955.30	0	1.9580	0	34.5820	0	27.650	0	1930.020	0	53.8	4	16.2	4	-1E+10	1	-1E+10	1	-1E+10	1	-1E+10	1	-1E+10	1	-1E+10	1
4902551	114	C	10/12/2023	02:04	-131.052	47.145	0	1965.20	0	1.9500	0	34.5840	0	27.653	0	1939.747	0	54.2	4	16.3	4	-1E+10	1	-1E+10	1	-1E+10	1	-1E+10	1	-1E+10	1	-1E+10	1
4902551	114	C	10/12/2023	02:04	-131.052	47.145	0	1975.50	0	1.9420	0	34.5840	0	27.653	0	1949.867	0	54.1	4	16.3	4	-1E+10	1	-1E+10	1	-1E+10	1	-1E+10	1	-1E+10	1	-1E+10	1
4902551	114	C	10/12/2023	02:04	-131.052	47.145	0	1981.40	0	1.9390	0	34.5850	0	27.654	0	1955.663	0	53.9	4	16.2	4	-1E+10	1	-1E+10	1	-1E+10	1	-1E+10	1	-1E+10	1	-1E+10	1
4902551	114	C	10/12/2023	02:04	-131.052	47.145	0																										
4902551	115	C	10/22/2023	07:05	-130.994	47.042	0	0.10	0	14.3550	0	32.3820	0	24.092	0	0.099	0	239.6	4	93.8	4	-1E+10	1	-1E+10	1	-1E+10	1	-1E+10	1	-1E+10	1	-1E+10	1
4902551	115	C	10/22/2023	07:05	-130.994	47.042	0	0.20	0	14.3549	0	32.3820	0	24.092	0	0.198	0	-1e10	1	-1e10	1	-1E+10	1	-1E+10	1	-1E+10	1	-1E+10	1	-1E+10	1	-1E+10	1
4902551	115	C	10/22/2023	07:05	-130.994	47.042	0	0.30	0	14.3547	0	32.3820	0	24.092	0	0.298	0	-1e10	1	-1e10	1	-1E+10	1	-1E+10	1	-1E+10	1	-1E+10	1	-1E+10	1	-1E+10	1
4902551	115	C	10/22/2023	07:05	-130.994	47.042	0	0.60	0	14.3543	0	32.3820	0	24.092	0	0.595	0	-1e10	1	-1e10	1	-1E+10	1	-1E+10	1	-1E+10	1	-1E+10	1	-1E+10	1	-1E+10	1
4902551	115	C	10/22/2023	07:05	-130.994	47.042	0	0.70	0	14.3541	0	32.3820	0	24.092	0	0.694	0	239.6	4	93.8	4	-1E+10	1	-1E+10	1	-1E+10	1	-1E+10	1	-1E+10	1	-1E+10	1
4902551	115	C	10/22/2023	07:05	-130.994	47.042	0	0.80	0	14.3540	0	32.3820	0	24.092	0	0.793	0	-1e10	1	-1e10	1	-1E+10	1	-1E+10	1	-1E+10	1	-1E+10	1	-1E+10	1	-1E+10	1
4902551	115	C	10/22/2023	07:05	-130.994	47.042	0	1.00	0	14.3540	0	32.3818	0	24.092	0	0.992	0	-1e10	1	-1e10	1	-1E+10	1	-1E+10	1	-1E+10	1	-1E+10	1	-1E+10	1	-1E+10	1
4902551	115	C	10/22/2023	07:05	-130.994	47.042	0	1.90	0	14.3540	0	32.3810	0	24.091	0	1.884	0	239.7	4	93.8	4	-1E+10	1	-1E+10	1	-1E+10	1	-1E+10	1	-1E+10	1	-1E+10	1
4902551	115	C	10/22/2023	07:05	-130.994	47.042	0	3.00	0	14.3530	0	32.3820	0	24.092	0	2.975	0	239.6	4	93.8	4	-1E+10	1	-1E+10	1	-1E+10	1	-1E+10	1	-1E+10	1	-1E+10	1
4902551	115	C	10/22/2023	07:05	-130.994	47.042	0	3.90	0	14.3520	0	32.3840	0	24.094	0	3.868	0	239.7	4	93.8	4	-1E+10	1	-1E+10	1	-1E+10	1	-1E+10	1	-1E+10	1	-1E+10	1
4902551	115	C	10/22/2023	07:05	-130.994	47.042	0	5.10	0	14.3510	0	32.3840	0	24.094	0	5.058	0	239.7	4	93.8	4	-1E+10	1	-1E+10	1	-1E+10	1	-1E+10	1	-1E+10	1	-1E+10	1
4902551	115	C	10/22/2023	07:05	-130.994	47.042	0	5.90	0	14.3510	0	32.3850	0	24.095	0	5.851	0	239.6	4	93.7	4	-1E+10	1	-1E+10	1	-1E+10	1	-1E+10	1	-1E+10	1	-1E+10	1
4902551	115	C	10/22/2023	07:05	-130.994	47.042	0	6.80	0	14.3590	0	32.3840	0	24.093	0	6.743	0	239.6	4	93.8	4	-1E+10	1	-1E+10	1	-1E+10	1	-1E+10	1	-1E+10	1	-1E+10	1
4902551	115	C	10/22/2023	07:05	-130.994	47.042	0	8.00	0	14.3560	0	32.3840	0	24.093	0	7.933	0	239.6	4	93.8	4	-1E+10	1	-1E+10	1	-1E+10	1	-1E+10	1	-1E+10	1	-1E+10	1
4902551	115	C	10/22/2023	07:05	-130.994	47.042	0	9.00	0	14.3570	0	32.3840	0	24.093	0	8.925	0	239.6	4	93.8	4	-1E+10	1	-1E+10	1	-1E+10	1	-1E+10	1	-1E+10	1	-1E+10	1
4902551	115	C	10/22/2023	07:05	-130.994	47.042	0	9.90	0	14.3560	0	32.3860	0	24.095	0	9.818	0	239.6	4	93.7	4	-1E+10	1	-1E+10	1	-1E+10	1	-1E+10	1	-1E+10	1	-1E+10	1
4902551	115	C	10/22/2023	07:05	-130.994	47.042	0	10.80	0	14.3550	0	32.3850	0	24.094	0	10.710	0	239.6	4	93.8	4	-1E+10	1	-1E+10	1	-1E+10	1	-1E+10	1	-1E+10	1	-1E+10	1
4902551	115	C	10/22/2023	07:05	-130.994	47.042	0	11.90	0	14.3560	0	32.3840	0	24.094	0	11.801	0	239.6	4	93.8	4	-1E+10	1	-1E+10	1	-1E+10	1	-1E+10	1	-1E+10	1	-1E+10	1
4902551	115	C	10/22/2023	07:05	-130.994	47.042	0	13.00	0	14.3570	0	32.3850	0	24.094	0	12.892	0	239.6	4	93.7	4	-1E+10	1	-1E+10	1	-1E+10	1	-1E+10	1	-1E+10	1	-1E+10	1
4902551	115	C	10/22/2023	07:05	-130.994	47.042	0	14.10	0	14.3570	0	32.3850	0	24.094	0	13.982	0	239.6	4	93.8	4	-1E+10	1	-1E+10	1	-1E+10	1	-1E+10	1	-1E+10	1	-1E+10	1
4902551	115	C	10/22/2023	07:05	-130.994	47.042	0	15.10	0	14.3570	0	32.3850	0	24.094	0	14.974	0	239.5	4	93.7	4	-1E+10	1	-1E+10	1	-1E+10	1	-1E+10	1	-1E+10	1	-1E+10	1
4902551	115	C	10/22/2023	07:05	-130.994	47.042	0	16.00	0	14.3560	0	32.3850	0	24.094	0	15.867	0	239.6	4	93.7	4	-1E+10	1	-1E+10	1	-1E+10	1	-1E+10	1	-1E+10	1	-1E+10	1
4902551	115	C	10/22/2023	07:05	-130.994	47.042	0	17.10	0	14.3570	0	32.3850	0	24.094	0	16.957	0	239.6	4	93.7	4	-1E+10	1	-1E+10	1	-1E+10	1	-1E+10	1	-1E+10	1	-1E+10	1
4902551	115	C	10/22/2023	07:05	-130.994	47.042	0	18.00	0	14.3560	0	32.3850	0	24.094	0	17.850	0	239.6	4	93.8	4	-1E+10	1	-1E+10	1	-1E+10	1	-1E+10	1	-1E+10	1	-1E+10	1
4902551	115	C	10/22/2023	07:05	-130.994	47.042	0	19.00	0	14.3640	0	32.3840	0	24.092	0	18.841	0	239.6	4	93.8	4	-1E+10	1	-1E+10	1	-1E+10	1	-1E+10	1	-1E+10	1	-1E+10	1
4902551	115	C	10/22/2023	07:05	-130.994	47.042	0	19.90	0	14.3650	0	32.3850	0	24.093	0	19.734	0	239.6	4	93.8	4	-1E+10	1	-1E+10	1	-1E+10	1	-1E+10	1	-1E+10	1	-1E+10	1
4902551	115	C	10/22/2023	07:05	-130.994	47.042	0	20.80	0	14.3640	0	32.3850	0	24.093	0	20.626	0	239.7	4	93.8	4	-1E+10	1	-1E+10	1	-1E+10	1	-1E+10	1	-1E+10	1	-1E+10	1
4902551	115	C	10/22/2023	07:05	-130.994	47.042	0	22.00	0	14.3640	0	32.3850	0	24.093	0	21.816	0	239.7	4	93.8	4	-1E+10	1	-1E+10	1	-1E+10	1	-1E+10	1	-1E+10	1	-1E+10	1
4902551	115	C	10/22/2023	07:05	-130.994	47.042	0	23.10	0	14.3640	0	32.3840	0	24.092	0	22.907	0	239.7	4	93.8	4	-1E+10	1	-1E+10	1	-1E+10	1	-1E+10	1	-1E+10	1	-1E+10	1
4902551	115	C	10/22/2023	07:05	-130.994	47.042	0	24.00	0	14.3650	0	32.3850	0	24.093	0	23.799	0	239.6	4	93.8	4	-1E+10	1	-1E+10	1	-1E+10	1	-1E+10	1	-1E+10	1	-1E+10	1
4902551	115	C	10/22/2023	07:05	-130.994	47.042	0	24.80	0	14.3650	0	32.3850	0	24.093	0	24.593	0	239.7	4	93.8	4	-1E+10	1	-1E+10	1	-1E+10	1	-1E+10	1	-1E+10	1	-1E+10	1
4902551	115	C	10/22/2023	07:05	-130.994	47.042	0	25.90	0	14.3650	0	32.3850	0	24.093	0	25.683	0	239.8	4	93.8	4	-1E+10	1	-1E+10	1	-1E+10	1	-1E+10	1	-1E+10	1	-1E+10	1
4902551	115	C	10/22/2023	07:05	-130.994	47.042	0	26.90	0	14.3650	0	32.3850	0	24.093	0	26.675	0	239.8	4	93.8	4	-1E+10	1	-1E+10	1	-1E+10	1	-1E+10	1	-1E+10	1	-1E+10	1
4902551	115	C	10/22/2023	07:05	-130.994	47.042	0	27.90	0	14.3650	0	32.3850	0	24.093	0	27.666	0	239.9	4	93.9	4	-1E+10	1	-1E+10	1	-1E+10	1	-1E+10	1	-1E+10	1	-1E+10	1
4902551	115	C	10/22/2023	07:05	-130.994	47.042	0	28.90	0	14.3650	0	32.3840	0	24.092	0	28.658	0	240.0	4	93.9	4	-1E+10	1	-1E+10	1	-1E+10	1	-1E+10	1	-1E+10	1	-1E+10	1
4902551	115	C	10/22/2023	07:05	-130.994	47.042	0	29.80	0	14.3650	0	32.3850	0	24.093	0	29.550	0	240.1	4	94.0	4	-1E+10	1	-1E+10	1	-1E+10	1	-1E+10	1	-1E+10	1	-1E+10	1
4902551	115	C	10/22/2023	07:05	-130.994	47.042	0	30.90	0	14.3650	0	32.3850	0	24.093	0	30.641	0	240.1	4	94.0	4	-1E+10	1	-1E+10	1	-1E+10	1	-1E+10	1	-1E+10	1	-1E+10	1
4902551	115	C	10/22/2023	07:05	-130.994	47.042	0	31.90	0	14.3650	0	32.3850	0	24.093	0	31.633	0	240.4	4	94.1	4	-1E+10	1	-1E+10	1	-1E+10	1	-1E+10	1	-1E+10	1	-1E+10	1
4902551	115	C	10/22/2023	07:05	-130.994	47.042	0	33.00	0	14.3650	0	32.3850	0	24.093	0	32.723	0	240.5	4	94.1	4	-1E+10	1	-1E+10	1	-1E+10	1	-1E+10	1	-1E+10	1	-1E+10	1
4902551	115	C	10/22/2023	07:05	-130.994	47.042	0	34.00	0	14.3650	0	32.3850	0	24.093	0	33.715	0	240.7	4	94.2	4	-1E+10	1	-1E+10	1	-1E+10	1	-1E+10	1	-1E+10	1	-1E+10	1
4902551	115	C	10/22/2023	07:05	-130.994	47.042	0	35.10	0	14.3660	0	32.3840	0	24.092	0	34.806	0	241.0	4	94.3	4	-1E+10	1	-1E+10	1	-1E+10	1	-1E+10	1	-1E+10	1	-1E+10	1
4902551	115	C	10/22/2023	07:05	-130.994	47.042	0	36.00	0	14.3650	0	32.3850	0	24.093	0	35.698	0	241.3	4	94.4	4	-1E+10	1	-1E+10	1	-1E+10	1	-1E+10	1	-1E+10	1	-1E+10	1
4902551	115	C	10/22/2023	07:05	-130.994	47.042	0	37.10	0	14.3660	0	32.3850	0	24.093	0	36.789	0	241.7	4	94.6	4	-1E+10	1	-1E+10	1	-1E+10	1	-1E+10	1	-1E+10	1	-1E+10	1
4902551	115	C	10/22/2023	07:05	-130.994	47.042	0	37.80	0	14.3650	0	32.3840	0	24.092	0	37.483	0	242.1	4	94.7	4	-1E+10	1	-1E+10	1	-1E+10	1	-1E+10	1	-1E+10	1	-1E+10	1
4902551	115	C	10/22/2023	07:05	-130.994	47.042	0	38.80	0	14.3640	0	32.3840	0	24.093	0	38.474	0	242.7	4	95.0	4	-1E+10	1	-1E+10	1	-1E+10	1	-1E+10	1	-1E+10	1	-1E+10	1
4902551	115	C	10/22/2023	07:05	-130.994	47.042	0	40.00	0	14.3660	0	32.3840	0	24.092	0	39.664	0	243.7	4	95.4	4	-1E+10	1	-1E+10	1	-1E+10	1	-1E+10	1	-1E+10	1	-1E+10	1
4902551	115	C	10/22/2023	07:05	-130.994	47.042	0	41.00	0	14.3650	0	32.3820	0	24.091	0	40.655	0	245.3	4	96.0	4	-1E+10	1	-1E+10	1	-1E+10	1	-1E+10	1	-1E+10	1	-1E+10	1
4902551	115	C	10/22/2023	07:05	-130.994	47.042	0	41.90	0	14.3640	0	32.3670	0	24.080	0	41.548	0	247.6	4	96.9	4	-1E+10	1	-1E+10	1	-1E+10	1	-1E+10	1	-1E+10	1	-1E+10	1
4902551	115	C	10/22/2023	07:05	-130.994	47.042	0	42.80	0	13.9320	0	32.3800	0	24.179	0	42.440	0	250.5	4	97.2	4	-1E+10	1	-1E+10	1	-1E+10	1	-1E+10	1	-1E+10	1	-1E+10	1
4902551	115	C	10/22/2023	07:05	-130.994	47.042	0	44.10	0	12.8270	0	32.4030	0	24.417	0	43.729	0	258.7	4	98.1	4	-1E+10	1	-1E+10	1	-1E+10	1	-1E+10	1	-1E+10	1	-1E+10	1
4902551	115	C	10/22/2023	07:05	-130.994	47.042	0	45.00	0	11.4520	0	32.3720	0	24.651	0	44.621	0	266.8	4	98.3	4	-1E+10	1	-1E+10	1	-1E+10	1	-1E+10	1	-1E+10	1	-1E+10	1
4902551	115	C	10/22/2023	07:05	-130.994	47.042	0	45.90	0	10.5360	0	32.3980	0	24.832	0	45.514	0	269.8	4	97.5	4	-1E+10	1	-1E+10	1	-1E+10	1	-1E+10	1	-1E+10	1	-1E+10	1
4902551	115	C	10/22/2023	07:05	-130.994	47.042	0	46.90	0	9.6690	0	32.3890	0	24.969	0	46.505	0	272.1	4	96.6	4	-1E+10	1	-1E+10	1	-1E+10	1	-1E+10	1	-1E+10	1	-1E+10	1
4902551	115	C	10/22/2023	07:05	-130.994	47.042	0	47.90	0	9.2840	0	32.4070	0	25.045	0	47.497	0	272.7	4	96.0	4	-1E+10	1	-1E+10	1	-1E+10	1	-1E+10	1	-1E+10	1	-1E+10	1
4902551	115	C	10/22/2023	07:05	-130.994	47.042	0	48.80	0	9.0290	0	32.4000	0	25.079	0	48.389	0	273.0	4	95.5	4	-1E+10	1	-1E+10	1	-1E+10	1	-1E+10	1	-1E+10	1	-1E+10	1
4902551	115	C	10/22/2023	07:05	-130.994	47.042	0	49.90	0	8.8570	0	32.4020	0	25.107	0	49.480	0	273.0	4	95.2	4	-1E+10	1	-1E+10	1	-1E+10	1	-1E+10	1	-1E+10	1	-1E+10	1
4902551	115	C	10/22/2023	07:05	-130.994	47.042	0	50.90	0	8.7790	0	32.3990	0	25.117	0	50.471	0	272.5	4	94.8	4	-1E+10	1	-1E+10	1	-1E+10	1	-1E+10	1	-1E+10	1	-1E+10	1
4902551	115	C	10/22/2023	07:05	-130.994	47.042	0	51.90	0	8.7420	0	32.3990	0	25.123	0	51.463	0	272.1	4	94.6	4	-1E+10	1	-1E+10	1	-1E+10	1	-1E+10	1	-1E+10	1	-1E+10	1
4902551	115	C	10/22/2023	07:05	-130.994	47.042	0	52.90	0	8.7140	0	32.3990	0	25.127	0	52.454	0	271.3	4	94.3	4	-1E+10	1	-1E+10	1	-1E+10	1	-1E+10	1	-1E+10	1	-1E+10	1
4902551	115	C	10/22/2023	07:05	-130.994	47.042	0	53.90	0	8.6630	0	32.3930	0	25.130	0	53.445	0	270.8	4	94.0	4	-1E+10	1	-1E+10	1	-1E+10	1	-1E+10	1	-1E+10	1	-1E+10	1
4902551	115	C	10/22/2023	07:05	-130.994	47.042	0	54.80	0	8.6230	0	32.3930	0	25.136	0	54.338	0	270.1	4	93.7	4	-1E+10	1	-1E+10	1	-1E+10	1	-1E+10	1	-1E+10	1	-1E+10	1
4902551	115	C	10/22/2023	07:05	-130.994	47.042	0	56.10	0	8.5000	0	32.3870	0	25.150	0	55.627	0	269.6	4	93.2	4	-1E+10	1	-1E+10	1	-1E+10	1	-1E+10	1	-1E+10	1	-1E+10	1
4902551	115	C	10/22/2023	07:05	-130.994	47.042	0	57.00	0	8.4510	0	32.3850	0	25.156	0	56.519	0	269.1	4	93.0	4	-1E+10	1	-1E+10	1	-1E+10	1	-1E+10	1	-1E+10	1	-1E+10	1
4902551	115	C	10/22/2023	07:05	-130.994	47.042	0	57.90	0	8.3460	0	32.3870	0	25.173	0	57.411	0	269.0	4	92.7	4	-1E+10	1	-1E+10	1	-1E+10	1	-1E+10	1	-1E+10	1	-1E+10	1
4902551	115	C	10/22/2023	07:05	-130.994	47.042	0	59.10	0	8.2520	0	32.3920	0	25.191	0	58.601	0	268.7	4	92.4	4	-1E+10	1	-1E+10	1	-1E+10	1	-1E+10	1	-1E+10	1	-1E+10	1
4902551	115	C	10/22/2023	07:05	-130.994	47.042	0	60.10	0	8.2110	0	32.3950	0	25.199	0	59.592	0	268.2	4	92.1	4	-1E+10	1	-1E+10	1	-1E+10	1	-1E+10	1	-1E+10	1	-1E+10	1
4902551	115	C	10/22/2023	07:05	-130.994	47.042	0	61.00	0	8.1570	0	32.3930	0	25.205	0	60.485	0	267.6	4	91.8	4	-1E+10	1	-1E+10	1	-1E+10	1	-1E+10	1	-1E+10	1	-1E+10	1
4902551	115	C	10/22/2023	07:05	-130.994	47.042	0	62.00	0	8.0760	0	32.3940	0	25.218	0	61.476	0	267.0	4	91.5	4	-1E+10	1	-1E+10	1	-1E+10	1	-1E+10	1	-1E+10	1	-1E+10	1
4902551	115	C	10/22/2023	07:05	-130.994	47.042	0	63.10	0	8.0230	0	32.3840	0	25.218	0	62.566	0	266.3	4	91.1	4	-1E+10	1	-1E+10	1	-1E+10	1	-1E+10	1	-1E+10	1	-1E+10	1
4902551	115	C	10/22/2023	07:05	-130.994	47.042	0	64.00	0	7.9660	0	32.3840	0	25.226	0	63.459	0	265.6	4	90.7	4	-1E+10	1	-1E+10	1	-1E+10	1	-1E+10	1	-1E+10	1	-1E+10	1
4902551	115	C	10/22/2023	07:05	-130.994	47.042	0	65.00	0	7.9280	0	32.3840	0	25.231	0	64.450	0	264.8	4	90.4	4	-1E+10	1	-1E+10	1	-1E+10	1	-1E+10	1	-1E+10	1	-1E+10	1
4902551	115	C	10/22/2023	07:05	-130.994	47.042	0	66.10	0	7.8820	0	32.3860	0	25.240	0	65.541	0	264.4	4	90.2	4	-1E+10	1	-1E+10	1	-1E+10	1	-1E+10	1	-1E+10	1	-1E+10	1
4902551	115	C	10/22/2023	07:05	-130.994	47.042	0	66.90	0	7.8540	0	32.3890	0	25.246	0	66.334	0	264.2	4	90.1	4	-1E+10	1	-1E+10	1	-1E+10	1	-1E+10	1	-1E+10	1	-1E+10	1
4902551	115	C	10/22/2023	07:05	-130.994	47.042	0	67.90	0	7.8160	0	32.3880	0	25.251	0	67.325	0	264.0	4	89.9	4	-1E+10	1	-1E+10	1	-1E+10	1	-1E+10	1	-1E+10	1	-1E+10	1
4902551	115	C	10/22/2023	07:05	-130.994	47.042	0	68.90	0	7.7830	0	32.3880	0	25.255	0	68.316	0	263.7	4	89.7	4	-1E+10	1	-1E+10	1	-1E+10	1	-1E+10	1	-1E+10	1	-1E+10	1
4902551	115	C	10/22/2023	07:05	-130.994	47.042	0	69.80	0	7.7340	0	32.3880	0	25.262	0	69.209	0	263.2	4	89.5	4	-1E+10	1	-1E+10	1	-1E+10	1	-1E+10	1	-1E+10	1	-1E+10	1
4902551	115	C	10/22/2023	07:05	-130.994	47.042	0	70.80	0	7.7050	0	32.3870	0	25.265	0	70.200	0	262.8	4	89.3	4	-1E+10	1	-1E+10	1	-1E+10	1	-1E+10	1	-1E+10	1	-1E+10	1
4902551	115	C	10/22/2023	07:05	-130.994	47.042	0	71.80	0	7.7000	0	32.3920	0	25.270	0	71.191	0	262.4	4	89.1	4	-1E+10	1	-1E+10	1	-1E+10	1	-1E+10	1	-1E+10	1	-1E+10	1
4902551	115	C	10/22/2023	07:05	-130.994	47.042	0	72.80	0	7.6810	0	32.3950	0	25.275	0	72.183	0	262.0	4	89.0	4	-1E+10	1	-1E+10	1	-1E+10	1	-1E+10	1	-1E+10	1	-1E+10	1
4902551	115	C	10/22/2023	07:05	-130.994	47.042	0	73.80	0	7.6660	0	32.3950	0	25.277	0	73.174	0	261.7	4	88.8	4	-1E+10	1	-1E+10	1	-1E+10	1	-1E+10	1	-1E+10	1	-1E+10	1
4902551	115	C	10/22/2023	07:05	-130.994	47.042	0	74.80	0	7.6490	0	32.3960	0	25.280	0	74.165	0	261.4	4	88.7	4	-1E+10	1	-1E+10	1	-1E+10	1	-1E+10	1	-1E+10	1	-1E+10	1
4902551	115	C	10/22/2023	07:05	-130.994	47.042	0	75.90	0	7.6290	0	32.3980	0	25.285	0	75.256	0	261.1	4	88.5	4	-1E+10	1	-1E+10	1	-1E+10	1	-1E+10	1	-1E+10	1	-1E+10	1
4902551	115	C	10/22/2023	07:05	-130.994	47.042	0	76.90	0	7.6190	0	32.3990	0	25.287	0	76.247	0	260.7	4	88.4	4	-1E+10	1	-1E+10	1	-1E+10	1	-1E+10	1	-1E+10	1	-1E+10	1
4902551	115	C	10/22/2023	07:05	-130.994	47.042	0	77.80	0	7.6000	0	32.3980	0	25.289	0	77.139	0	260.3	4	88.2	4	-1E+10	1	-1E+10	1	-1E+10	1	-1E+10	1	-1E+10	1	-1E+10	1
4902551	115	C	10/22/2023	07:05	-130.994	47.042	0	78.80	0	7.5830	0	32.3990	0	25.292	0	78.131	0	259.8	4	88.0	4	-1E+10	1	-1E+10	1	-1E+10	1	-1E+10	1	-1E+10	1	-1E+10	1
4902551	115	C	10/22/2023	07:05	-130.994	47.042	0	79.70	0	7.5760	0	32.4000	0	25.294	0	79.023	0	259.2	4	87.8	4	-1E+10	1	-1E+10	1	-1E+10	1	-1E+10	1	-1E+10	1	-1E+10	1
4902551	115	C	10/22/2023	07:05	-130.994	47.042	0	81.10	0	7.5300	0	32.4040	0	25.303	0	80.411	0	258.5	4	87.5	4	-1E+10	1	-1E+10	1	-1E+10	1	-1E+10	1	-1E+10	1	-1E+10	1
4902551	115	C	10/22/2023	07:05	-130.994	47.042	0	82.00	0	7.5180	0	32.4070	0	25.307	0	81.303	0	257.9	4	87.2	4	-1E+10	1	-1E+10	1	-1E+10	1	-1E+10	1	-1E+10	1	-1E+10	1
4902551	115	C	10/22/2023	07:05	-130.994	47.042	0	82.90	0	7.5100	0	32.4100	0	25.311	0	82.195	0	263.8	4	89.2	4	-1E+10	1	-1E+10	1	-1E+10	1	-1E+10	1	-1E+10	1	-1E+10	1
4902551	115	C	10/22/2023	07:05	-130.994	47.042	0	83.80	0	7.4770	0	32.4100	0	25.316	0	83.087	0	263.0	4	88.9	4	-1E+10	1	-1E+10	1	-1E+10	1	-1E+10	1	-1E+10	1	-1E+10	1
4902551	115	C	10/22/2023	07:05	-130.994	47.042	0	84.90	0	7.4640	0	32.4140	0	25.321	0	84.178	0	261.5	4	88.4	4	-1E+10	1	-1E+10	1	-1E+10	1	-1E+10	1	-1E+10	1	-1E+10	1
4902551	115	C	10/22/2023	07:05	-130.994	47.042	0	86.30	0	7.4500	0	32.4250	0	25.331	0	85.565	0	259.7	4	87.7	4	-1E+10	1	-1E+10	1	-1E+10	1	-1E+10	1	-1E+10	1	-1E+10	1
4902551	115	C	10/22/2023	07:05	-130.994	47.042	0	87.00	0	7.4430	0	32.4290	0	25.335	0	86.259	0	258.7	4	87.4	4	-1E+10	1	-1E+10	1	-1E+10	1	-1E+10	1	-1E+10	1	-1E+10	1
4902551	115	C	10/22/2023	07:05	-130.994	47.042	0	88.00	0	7.4340	0	32.4400	0	25.345	0	87.251	0	257.0	4	86.8	4	-1E+10	1	-1E+10	1	-1E+10	1	-1E+10	1	-1E+10	1	-1E+10	1
4902551	115	C	10/22/2023	07:05	-130.994	47.042	0	89.00	0	7.4180	0	32.4650	0	25.367	0	88.242	0	255.2	4	86.2	4	-1E+10	1	-1E+10	1	-1E+10	1	-1E+10	1	-1E+10	1	-1E+10	1
4902551	115	C	10/22/2023	07:05	-130.994	47.042	0	89.90	0	7.3550	0	32.4780	0	25.386	0	89.134	0	253.6	4	85.5	4	-1E+10	1	-1E+10	1	-1E+10	1	-1E+10	1	-1E+10	1	-1E+10	1
4902551	115	C	10/22/2023	07:05	-130.994	47.042	0	90.70	0	7.3470	0	32.4820	0	25.390	0	89.927	0	252.1	4	85.0	4	-1E+10	1	-1E+10	1	-1E+10	1	-1E+10	1	-1E+10	1	-1E+10	1
4902551	115	C	10/22/2023	07:05	-130.994	47.042	0	91.80	0	7.3360	0	32.5020	0	25.407	0	91.017	0	250.0	4	84.3	4	-1E+10	1	-1E+10	1	-1E+10	1	-1E+10	1	-1E+10	1	-1E+10	1
4902551	115	C	10/22/2023	07:05	-130.994	47.042	0	92.80	0	7.3210	0	32.5190	0	25.423	0	92.009	0	247.8	4	83.5	4	-1E+10	1	-1E+10	1	-1E+10	1	-1E+10	1	-1E+10	1	-1E+10	1
4902551	115	C	10/22/2023	07:05	-130.994	47.042	0	93.90	0	7.3130	0	32.5370	0	25.438	0	93.099	0	245.4	4	82.7	4	-1E+10	1	-1E+10	1	-1E+10	1	-1E+10	1	-1E+10	1	-1E+10	1
4902551	115	C	10/22/2023	07:05	-130.994	47.042	0	94.90	0	7.3300	0	32.5650	0	25.458	0	94.090	0	242.5	4	81.8	4	-1E+10	1	-1E+10	1	-1E+10	1	-1E+10	1	-1E+10	1	-1E+10	1
4902551	115	C	10/22/2023	07:05	-130.994	47.042	0	96.00	0	7.3410	0	32.5780	0	25.467	0	95.181	0	237.9	4	80.3	4	-1E+10	1	-1E+10	1	-1E+10	1	-1E+10	1	-1E+10	1	-1E+10	1
4902551	115	C	10/22/2023	07:05	-130.994	47.042	0	97.00	0	7.2750	0	32.6180	0	25.507	0	96.172	0	231.7	4	78.1	4	-1E+10	1	-1E+10	1	-1E+10	1	-1E+10	1	-1E+10	1	-1E+10	1
4902551	115	C	10/22/2023	07:05	-130.994	47.042	0	97.90	0	7.3200	0	32.6740	0	25.545	0	97.064	0	226.5	4	76.4	4	-1E+10	1	-1E+10	1	-1E+10	1	-1E+10	1	-1E+10	1	-1E+10	1
4902551	115	C	10/22/2023	07:05	-130.994	47.042	0	99.10	0	7.4660	0	32.7590	0	25.592	0	98.253	0	222.4	4	75.3	4	-1E+10	1	-1E+10	1	-1E+10	1	-1E+10	1	-1E+10	1	-1E+10	1
4902551	115	C	10/22/2023	07:05	-130.994	47.042	0	100.10	0	7.4800	0	32.7660	0	25.595	0	99.245	0	219.6	4	74.4	4	-1E+10	1	-1E+10	1	-1E+10	1	-1E+10	1	-1E+10	1	-1E+10	1
4902551	115	C	10/22/2023	07:05	-130.994	47.042	0	101.10	0	7.5190	0	32.7940	0	25.612	0	100.236	0	216.5	4	73.4	4	-1E+10	1	-1E+10	1	-1E+10	1	-1E+10	1	-1E+10	1	-1E+10	1
4902551	115	C	10/22/2023	07:05	-130.994	47.042	0	101.80	0	7.5270	0	32.8040	0	25.619	0	100.930	0	214.6	4	72.8	4	-1E+10	1	-1E+10	1	-1E+10	1	-1E+10	1	-1E+10	1	-1E+10	1
4902551	115	C	10/22/2023	07:05	-130.994	47.042	0	102.90	0	7.5900	0	32.8290	0	25.629	0	102.020	0	211.7	4	72.0	4	-1E+10	1	-1E+10	1	-1E+10	1	-1E+10	1	-1E+10	1	-1E+10	1
4902551	115	C	10/22/2023	07:05	-130.994	47.042	0	104.00	0	7.6140	0	32.8410	0	25.635	0	103.110	0	208.1	4	70.8	4	-1E+10	1	-1E+10	1	-1E+10	1	-1E+10	1	-1E+10	1	-1E+10	1
4902551	115	C	10/22/2023	07:05	-130.994	47.042	0	105.20	0	7.6850	0	32.8720	0	25.650	0	104.300	0	203.2	4	69.3	4	-1E+10	1	-1E+10	1	-1E+10	1	-1E+10	1	-1E+10	1	-1E+10	1
4902551	115	C	10/22/2023	07:05	-130.994	47.042	0	105.90	0	7.7140	0	32.8870	0	25.657	0	104.994	0	201.3	4	68.7	4	-1E+10	1	-1E+10	1	-1E+10	1	-1E+10	1	-1E+10	1	-1E+10	1
4902551	115	C	10/22/2023	07:05	-130.994	47.042	0	107.10	0	7.6930	0	32.9200	0	25.686	0	106.183	0	198.8	4	67.8	4	-1E+10	1	-1E+10	1	-1E+10	1	-1E+10	1	-1E+10	1	-1E+10	1
4902551	115	C	10/22/2023	07:05	-130.994	47.042	0	107.90	0	7.7880	0	33.0140	0	25.747	0	106.976	0	197.6	4	67.6	4	-1E+10	1	-1E+10	1	-1E+10	1	-1E+10	1	-1E+10	1	-1E+10	1
4902551	115	C	10/22/2023	07:05	-130.994	47.042	0	108.70	0	7.7100	0	33.0160	0	25.759	0	107.769	0	197.2	4	67.3	4	-1E+10	1	-1E+10	1	-1E+10	1	-1E+10	1	-1E+10	1	-1E+10	1
4902551	115	C	10/22/2023	07:05	-130.994	47.042	0	109.80	0	7.7280	0	33.0270	0	25.766	0	108.859	0	196.7	4	67.2	4	-1E+10	1	-1E+10	1	-1E+10	1	-1E+10	1	-1E+10	1	-1E+10	1
4902551	115	C	10/22/2023	07:05	-130.994	47.042	0	110.90	0	7.7570	0	33.0460	0	25.776	0	109.950	0	196.9	4	67.3	4	-1E+10	1	-1E+10	1	-1E+10	1	-1E+10	1	-1E+10	1	-1E+10	1
4902551	115	C	10/22/2023	07:05	-130.994	47.042	0	112.00	0	7.7630	0	33.0630	0	25.789	0	111.040	0	198.0	4	67.7	4	-1E+10	1	-1E+10	1	-1E+10	1	-1E+10	1	-1E+10	1	-1E+10	1
4902551	115	C	10/22/2023	07:05	-130.994	47.042	0	112.90	0	7.7530	0	33.0760	0	25.801	0	111.932	0	199.4	4	68.2	4	-1E+10	1	-1E+10	1	-1E+10	1	-1E+10	1	-1E+10	1	-1E+10	1
4902551	115	C	10/22/2023	07:05	-130.994	47.042	0	113.90	0	7.6610	0	33.0990	0	25.832	0	112.923	0	201.5	4	68.7	4	-1E+10	1	-1E+10	1	-1E+10	1	-1E+10	1	-1E+10	1	-1E+10	1
4902551	115	C	10/22/2023	07:05	-130.994	47.042	0	114.90	0	7.5390	0	33.1060	0	25.854	0	113.914	0	203.4	4	69.2	4	-1E+10	1	-1E+10	1	-1E+10	1	-1E+10	1	-1E+10	1	-1E+10	1
4902551	115	C	10/22/2023	07:05	-130.994	47.042	0	115.80	0	7.3390	0	33.1080	0	25.884	0	114.806	0	204.7	4	69.3	4	-1E+10	1	-1E+10	1	-1E+10	1	-1E+10	1	-1E+10	1	-1E+10	1
4902551	115	C	10/22/2023	07:05	-130.994	47.042	0	116.90	0	7.1250	0	33.1100	0	25.915	0	115.896	0	204.9	4	69.1	4	-1E+10	1	-1E+10	1	-1E+10	1	-1E+10	1	-1E+10	1	-1E+10	1
4902551	115	C	10/22/2023	07:05	-130.994	47.042	0	117.90	0	7.0740	0	33.1390	0	25.945	0	116.888	0	204.4	4	68.8	4	-1E+10	1	-1E+10	1	-1E+10	1	-1E+10	1	-1E+10	1	-1E+10	1
4902551	115	C	10/22/2023	07:05	-130.994	47.042	0	119.00	0	7.0670	0	33.1400	0	25.946	0	117.978	0	203.4	4	68.5	4	-1E+10	1	-1E+10	1	-1E+10	1	-1E+10	1	-1E+10	1	-1E+10	1
4902551	115	C	10/22/2023	07:05	-130.994	47.042	0	120.00	0	7.0630	0	33.1430	0	25.949	0	118.969	0	202.3	4	68.1	4	-1E+10	1	-1E+10	1	-1E+10	1	-1E+10	1	-1E+10	1	-1E+10	1
4902551	115	C	10/22/2023	07:05	-130.994	47.042	0	121.10	0	7.0830	0	33.1540	0	25.955	0	120.059	0	201.6	4	67.9	4	-1E+10	1	-1E+10	1	-1E+10	1	-1E+10	1	-1E+10	1	-1E+10	1
4902551	115	C	10/22/2023	07:05	-130.994	47.042	0	121.80	0	7.0920	0	33.1590	0	25.958	0	120.753	0	201.0	4	67.7	4	-1E+10	1	-1E+10	1	-1E+10	1	-1E+10	1	-1E+10	1	-1E+10	1
4902551	115	C	10/22/2023	07:05	-130.994	47.042	0	122.80	0	7.1180	0	33.1690	0	25.962	0	121.744	0	200.2	4	67.5	4	-1E+10	1	-1E+10	1	-1E+10	1	-1E+10	1	-1E+10	1	-1E+10	1
4902551	115	C	10/22/2023	07:05	-130.994	47.042	0	123.80	0	7.1320	0	33.1740	0	25.964	0	122.735	0	199.7	4	67.4	4	-1E+10	1	-1E+10	1	-1E+10	1	-1E+10	1	-1E+10	1	-1E+10	1
4902551	115	C	10/22/2023	07:05	-130.994	47.042	0	124.80	0	7.1600	0	33.1860	0	25.970	0	123.726	0	199.7	4	67.4	4	-1E+10	1	-1E+10	1	-1E+10	1	-1E+10	1	-1E+10	1	-1E+10	1
4902551	115	C	10/22/2023	07:05	-130.994	47.042	0	126.10	0	7.1610	0	33.1910	0	25.974	0	125.015	0	200.4	4	67.6	4	-1E+10	1	-1E+10	1	-1E+10	1	-1E+10	1	-1E+10	1	-1E+10	1
4902551	115	C	10/22/2023	07:05	-130.994	47.042	0	127.10	0	7.1530	0	33.1930	0	25.976	0	126.006	0	201.4	4	68.0	4	-1E+10	1	-1E+10	1	-1E+10	1	-1E+10	1	-1E+10	1	-1E+10	1
4902551	115	C	10/22/2023	07:05	-130.994	47.042	0	127.80	0	7.1340	0	33.2000	0	25.985	0	126.699	0	202.2	4	68.2	4	-1E+10	1	-1E+10	1	-1E+10	1	-1E+10	1	-1E+10	1	-1E+10	1
4902551	115	C	10/22/2023	07:05	-130.994	47.042	0	128.80	0	6.8460	0	33.2330	0	26.049	0	127.691	0	202.0	4	67.7	4	-1E+10	1	-1E+10	1	-1E+10	1	-1E+10	1	-1E+10	1	-1E+10	1
4902551	115	C	10/22/2023	07:05	-130.994	47.042	0	129.90	0	6.7850	0	33.2520	0	26.072	0	128.781	0	200.7	4	67.2	4	-1E+10	1	-1E+10	1	-1E+10	1	-1E+10	1	-1E+10	1	-1E+10	1
4902551	115	C	10/22/2023	07:05	-130.994	47.042	0	131.00	0	6.7430	0	33.2770	0	26.098	0	129.871	0	198.8	4	66.5	4	-1E+10	1	-1E+10	1	-1E+10	1	-1E+10	1	-1E+10	1	-1E+10	1
4902551	115	C	10/22/2023	07:05	-130.994	47.042	0	132.10	0	6.7180	0	33.3120	0	26.129	0	130.961	0	196.6	4	65.8	4	-1E+10	1	-1E+10	1	-1E+10	1	-1E+10	1	-1E+10	1	-1E+10	1
4902551	115	C	10/22/2023	07:05	-130.994	47.042	0	132.90	0	6.6950	0	33.3540	0	26.165	0	131.754	0	195.7	4	65.4	4	-1E+10	1	-1E+10	1	-1E+10	1	-1E+10	1	-1E+10	1	-1E+10	1
4902551	115	C	10/22/2023	07:05	-130.994	47.042	0	134.00	0	6.6880	0	33.3750	0	26.182	0	132.844	0	194.5	4	65.0	4	-1E+10	1	-1E+10	1	-1E+10	1	-1E+10	1	-1E+10	1	-1E+10	1
4902551	115	C	10/22/2023	07:05	-130.994	47.042	0	135.20	0	6.6650	0	33.4040	0	26.208	0	134.033	0	193.4	4	64.6	4	-1E+10	1	-1E+10	1	-1E+10	1	-1E+10	1	-1E+10	1	-1E+10	1
4902551	115	C	10/22/2023	07:05	-130.994	47.042	0	136.10	0	6.6530	0	33.4280	0	26.229	0	134.925	0	192.8	4	64.4	4	-1E+10	1	-1E+10	1	-1E+10	1	-1E+10	1	-1E+10	1	-1E+10	1
4902551	115	C	10/22/2023	07:05	-130.994	47.042	0	136.90	0	6.6500	0	33.4370	0	26.236	0	135.718	0	192.1	4	64.2	4	-1E+10	1	-1E+10	1	-1E+10	1	-1E+10	1	-1E+10	1	-1E+10	1
4902551	115	C	10/22/2023	07:05	-130.994	47.042	0	137.80	0	6.6500	0	33.4380	0	26.237	0	136.610	0	191.5	4	64.0	4	-1E+10	1	-1E+10	1	-1E+10	1	-1E+10	1	-1E+10	1	-1E+10	1
4902551	115	C	10/22/2023	07:05	-130.994	47.042	0	139.00	0	6.6470	0	33.4410	0	26.240	0	137.799	0	190.3	4	63.6	4	-1E+10	1	-1E+10	1	-1E+10	1	-1E+10	1	-1E+10	1	-1E+10	1
4902551	115	C	10/22/2023	07:05	-130.994	47.042	0	140.20	0	6.6410	0	33.4530	0	26.250	0	138.989	0	188.9	4	63.1	4	-1E+10	1	-1E+10	1	-1E+10	1	-1E+10	1	-1E+10	1	-1E+10	1
4902551	115	C	10/22/2023	07:05	-130.994	47.042	0	141.00	0	6.6420	0	33.4890	0	26.278	0	139.781	0	187.8	4	62.8	4	-1E+10	1	-1E+10	1	-1E+10	1	-1E+10	1	-1E+10	1	-1E+10	1
4902551	115	C	10/22/2023	07:05	-130.994	47.042	0	141.80	0	6.6430	0	33.4920	0	26.281	0	140.574	0	186.7	4	62.4	4	-1E+10	1	-1E+10	1	-1E+10	1	-1E+10	1	-1E+10	1	-1E+10	1
4902551	115	C	10/22/2023	07:05	-130.994	47.042	0	142.70	0	6.6550	0	33.5230	0	26.303	0	141.466	0	185.7	4	62.1	4	-1E+10	1	-1E+10	1	-1E+10	1	-1E+10	1	-1E+10	1	-1E+10	1
4902551	115	C	10/22/2023	07:05	-130.994	47.042	0	143.90	0	6.6620	0	33.5380	0	26.314	0	142.655	0	184.2	4	61.6	4	-1E+10	1	-1E+10	1	-1E+10	1	-1E+10	1	-1E+10	1	-1E+10	1
4902551	115	C	10/22/2023	07:05	-130.994	47.042	0	145.30	0	6.6650	0	33.5430	0	26.318	0	144.043	0	182.5	4	61.1	4	-1E+10	1	-1E+10	1	-1E+10	1	-1E+10	1	-1E+10	1	-1E+10	1
4902551	115	C	10/22/2023	07:05	-130.994	47.042	0	146.30	0	6.6620	0	33.5710	0	26.340	0	145.034	0	181.8	4	60.8	4	-1E+10	1	-1E+10	1	-1E+10	1	-1E+10	1	-1E+10	1	-1E+10	1
4902551	115	C	10/22/2023	07:05	-130.994	47.042	0	147.30	0	6.6780	0	33.5890	0	26.352	0	146.025	0	181.2	4	60.7	4	-1E+10	1	-1E+10	1	-1E+10	1	-1E+10	1	-1E+10	1	-1E+10	1
4902551	115	C	10/22/2023	07:05	-130.994	47.042	0	148.30	0	6.6810	0	33.6000	0	26.361	0	147.016	0	180.9	4	60.6	4	-1E+10	1	-1E+10	1	-1E+10	1	-1E+10	1	-1E+10	1	-1E+10	1
4902551	115	C	10/22/2023	07:05	-130.994	47.042	0	149.30	0	6.6820	0	33.6020	0	26.362	0	148.007	0	180.5	4	60.5	4	-1E+10	1	-1E+10	1	-1E+10	1	-1E+10	1	-1E+10	1	-1E+10	1
4902551	115	C	10/22/2023	07:05	-130.994	47.042	0	150.20	0	6.6840	0	33.6040	0	26.364	0	148.899	0	180.2	4	60.3	4	-1E+10	1	-1E+10	1	-1E+10	1	-1E+10	1	-1E+10	1	-1E+10	1
4902551	115	C	10/22/2023	07:05	-130.994	47.042	0	151.30	0	6.6850	0	33.6040	0	26.363	0	149.989	0	179.6	4	60.1	4	-1E+10	1	-1E+10	1	-1E+10	1	-1E+10	1	-1E+10	1	-1E+10	1
4902551	115	C	10/22/2023	07:05	-130.994	47.042	0	152.00	0	6.6840	0	33.6050	0	26.364	0	150.682	0	179.1	4	60.0	4	-1E+10	1	-1E+10	1	-1E+10	1	-1E+10	1	-1E+10	1	-1E+10	1
4902551	115	C	10/22/2023	07:05	-130.994	47.042	0	152.80	0	6.6810	0	33.6050	0	26.365	0	151.475	0	178.5	4	59.8	4	-1E+10	1	-1E+10	1	-1E+10	1	-1E+10	1	-1E+10	1	-1E+10	1
4902551	115	C	10/22/2023	07:05	-130.994	47.042	0	153.80	0	6.6800	0	33.6070	0	26.366	0	152.466	0	177.9	4	59.6	4	-1E+10	1	-1E+10	1	-1E+10	1	-1E+10	1	-1E+10	1	-1E+10	1
4902551	115	C	10/22/2023	07:05	-130.994	47.042	0	155.00	0	6.6800	0	33.6110	0	26.370	0	153.655	0	177.0	4	59.3	4	-1E+10	1	-1E+10	1	-1E+10	1	-1E+10	1	-1E+10	1	-1E+10	1
4902551	115	C	10/22/2023	07:05	-130.994	47.042	0	155.70	0	6.6790	0	33.6120	0	26.371	0	154.349	0	176.4	4	59.1	4	-1E+10	1	-1E+10	1	-1E+10	1	-1E+10	1	-1E+10	1	-1E+10	1
4902551	115	C	10/22/2023	07:05	-130.994	47.042	0	156.80	0	6.6720	0	33.6200	0	26.378	0	155.439	0	175.7	4	58.8	4	-1E+10	1	-1E+10	1	-1E+10	1	-1E+10	1	-1E+10	1	-1E+10	1
4902551	115	C	10/22/2023	07:05	-130.994	47.042	0	158.00	0	6.6700	0	33.6320	0	26.388	0	156.628	0	175.1	4	58.6	4	-1E+10	1	-1E+10	1	-1E+10	1	-1E+10	1	-1E+10	1	-1E+10	1
4902551	115	C	10/22/2023	07:05	-130.994	47.042	0	158.70	0	6.6670	0	33.6340	0	26.390	0	157.322	0	174.7	4	58.5	4	-1E+10	1	-1E+10	1	-1E+10	1	-1E+10	1	-1E+10	1	-1E+10	1
4902551	115	C	10/22/2023	07:05	-130.994	47.042	0	159.80	0	6.6580	0	33.6470	0	26.401	0	158.412	0	174.3	4	58.4	4	-1E+10	1	-1E+10	1	-1E+10	1	-1E+10	1	-1E+10	1	-1E+10	1
4902551	115	C	10/22/2023	07:05	-130.994	47.042	0	161.00	0	6.6550	0	33.6500	0	26.404	0	159.601	0	173.9	4	58.2	4	-1E+10	1	-1E+10	1	-1E+10	1	-1E+10	1	-1E+10	1	-1E+10	1
4902551	115	C	10/22/2023	07:05	-130.994	47.042	0	161.80	0	6.6530	0	33.6540	0	26.407	0	160.394	0	173.6	4	58.1	4	-1E+10	1	-1E+10	1	-1E+10	1	-1E+10	1	-1E+10	1	-1E+10	1
4902551	115	C	10/22/2023	07:05	-130.994	47.042	0	163.00	0	6.6530	0	33.6540	0	26.407	0	161.583	0	173.1	4	57.9	4	-1E+10	1	-1E+10	1	-1E+10	1	-1E+10	1	-1E+10	1	-1E+10	1
4902551	115	C	10/22/2023	07:05	-130.994	47.042	0	164.20	0	6.6530	0	33.6550	0	26.408	0	162.772	0	172.5	4	57.7	4	-1E+10	1	-1E+10	1	-1E+10	1	-1E+10	1	-1E+10	1	-1E+10	1
4902551	115	C	10/22/2023	07:05	-130.994	47.042	0	165.00	0	6.6500	0	33.6580	0	26.411	0	163.564	0	172.1	4	57.6	4	-1E+10	1	-1E+10	1	-1E+10	1	-1E+10	1	-1E+10	1	-1E+10	1
4902551	115	C	10/22/2023	07:05	-130.994	47.042	0	165.80	0	6.6450	0	33.6660	0	26.418	0	164.357	0	171.7	4	57.5	4	-1E+10	1	-1E+10	1	-1E+10	1	-1E+10	1	-1E+10	1	-1E+10	1
4902551	115	C	10/22/2023	07:05	-130.994	47.042	0	167.00	0	6.6440	0	33.6760	0	26.426	0	165.546	0	171.0	4	57.2	4	-1E+10	1	-1E+10	1	-1E+10	1	-1E+10	1	-1E+10	1	-1E+10	1
4902551	115	C	10/22/2023	07:05	-130.994	47.042	0	168.20	0	6.6430	0	33.6790	0	26.428	0	166.735	0	170.4	4	57.0	4	-1E+10	1	-1E+10	1	-1E+10	1	-1E+10	1	-1E+10	1	-1E+10	1
4902551	115	C	10/22/2023	07:05	-130.994	47.042	0	169.10	0	6.6440	0	33.6820	0	26.431	0	167.627	0	169.8	4	56.8	4	-1E+10	1	-1E+10	1	-1E+10	1	-1E+10	1	-1E+10	1	-1E+10	1
4902551	115	C	10/22/2023	07:05	-130.994	47.042	0	169.90	0	6.6440	0	33.6840	0	26.432	0	168.420	0	169.1	4	56.6	4	-1E+10	1	-1E+10	1	-1E+10	1	-1E+10	1	-1E+10	1	-1E+10	1
4902551	115	C	10/22/2023	07:05	-130.994	47.042	0	170.80	0	6.6410	0	33.6890	0	26.436	0	169.312	0	168.5	4	56.4	4	-1E+10	1	-1E+10	1	-1E+10	1	-1E+10	1	-1E+10	1	-1E+10	1
4902551	115	C	10/22/2023	07:05	-130.994	47.042	0	171.60	0	6.6360	0	33.6920	0	26.440	0	170.104	0	167.9	4	56.2	4	-1E+10	1	-1E+10	1	-1E+10	1	-1E+10	1	-1E+10	1	-1E+10	1
4902551	115	C	10/22/2023	07:05	-130.994	47.042	0	172.90	0	6.6260	0	33.6950	0	26.443	0	171.392	0	167.0	4	55.9	4	-1E+10	1	-1E+10	1	-1E+10	1	-1E+10	1	-1E+10	1	-1E+10	1
4902551	115	C	10/22/2023	07:05	-130.994	47.042	0	174.30	0	6.6170	0	33.7000	0	26.448	0	172.780	0	166.1	4	55.6	4	-1E+10	1	-1E+10	1	-1E+10	1	-1E+10	1	-1E+10	1	-1E+10	1
4902551	115	C	10/22/2023	07:05	-130.994	47.042	0	175.20	0	6.5980	0	33.7080	0	26.457	0	173.671	0	165.7	4	55.4	4	-1E+10	1	-1E+10	1	-1E+10	1	-1E+10	1	-1E+10	1	-1E+10	1
4902551	115	C	10/22/2023	07:05	-130.994	47.042	0	176.10	0	6.5970	0	33.7120	0	26.460	0	174.563	0	165.2	4	55.2	4	-1E+10	1	-1E+10	1	-1E+10	1	-1E+10	1	-1E+10	1	-1E+10	1
4902551	115	C	10/22/2023	07:05	-130.994	47.042	0	177.00	0	6.5870	0	33.7120	0	26.462	0	175.455	0	164.6	4	55.1	4	-1E+10	1	-1E+10	1	-1E+10	1	-1E+10	1	-1E+10	1	-1E+10	1
4902551	115	C	10/22/2023	07:05	-130.994	47.042	0	177.90	0	6.5820	0	33.7140	0	26.464	0	176.347	0	164.1	4	54.9	4	-1E+10	1	-1E+10	1	-1E+10	1	-1E+10	1	-1E+10	1	-1E+10	1
4902551	115	C	10/22/2023	07:05	-130.994	47.042	0	178.80	0	6.5640	0	33.7170	0	26.469	0	177.238	0	163.6	4	54.7	4	-1E+10	1	-1E+10	1	-1E+10	1	-1E+10	1	-1E+10	1	-1E+10	1
4902551	115	C	10/22/2023	07:05	-130.994	47.042	0	179.60	0	6.5490	0	33.7180	0	26.472	0	178.031	0	162.9	4	54.4	4	-1E+10	1	-1E+10	1	-1E+10	1	-1E+10	1	-1E+10	1	-1E+10	1
4902551	115	C	10/22/2023	07:05	-130.994	47.042	0	180.90	0	6.5410	0	33.7220	0	26.476	0	179.319	0	161.9	4	54.1	4	-1E+10	1	-1E+10	1	-1E+10	1	-1E+10	1	-1E+10	1	-1E+10	1
4902551	115	C	10/22/2023	07:05	-130.994	47.042	0	182.30	0	6.5310	0	33.7320	0	26.485	0	180.706	0	160.9	4	53.7	4	-1E+10	1	-1E+10	1	-1E+10	1	-1E+10	1	-1E+10	1	-1E+10	1
4902551	115	C	10/22/2023	07:05	-130.994	47.042	0	183.20	0	6.5130	0	33.7340	0	26.489	0	181.598	0	160.5	4	53.6	4	-1E+10	1	-1E+10	1	-1E+10	1	-1E+10	1	-1E+10	1	-1E+10	1
4902551	115	C	10/22/2023	07:05	-130.994	47.042	0	184.30	0	6.5050	0	33.7350	0	26.491	0	182.688	0	160.0	4	53.4	4	-1E+10	1	-1E+10	1	-1E+10	1	-1E+10	1	-1E+10	1	-1E+10	1
4902551	115	C	10/22/2023	07:05	-130.994	47.042	0	185.20	0	6.5090	0	33.7360	0	26.491	0	183.580	0	159.5	4	53.3	4	-1E+10	1	-1E+10	1	-1E+10	1	-1E+10	1	-1E+10	1	-1E+10	1
4902551	115	C	10/22/2023	07:05	-130.994	47.042	0	186.10	0	6.5060	0	33.7360	0	26.491	0	184.471	0	159.0	4	53.1	4	-1E+10	1	-1E+10	1	-1E+10	1	-1E+10	1	-1E+10	1	-1E+10	1
4902551	115	C	10/22/2023	07:05	-130.994	47.042	0	187.00	0	6.4970	0	33.7360	0	26.493	0	185.363	0	158.2	4	52.8	4	-1E+10	1	-1E+10	1	-1E+10	1	-1E+10	1	-1E+10	1	-1E+10	1
4902551	115	C	10/22/2023	07:05	-130.994	47.042	0	187.90	0	6.4650	0	33.7500	0	26.508	0	186.255	0	157.6	4	52.6	4	-1E+10	1	-1E+10	1	-1E+10	1	-1E+10	1	-1E+10	1	-1E+10	1
4902551	115	C	10/22/2023	07:05	-130.994	47.042	0	188.80	0	6.4550	0	33.7490	0	26.508	0	187.147	0	157.3	4	52.5	4	-1E+10	1	-1E+10	1	-1E+10	1	-1E+10	1	-1E+10	1	-1E+10	1
4902551	115	C	10/22/2023	07:05	-130.994	47.042	0	189.80	0	6.4550	0	33.7490	0	26.508	0	188.137	0	157.0	4	52.3	4	-1E+10	1	-1E+10	1	-1E+10	1	-1E+10	1	-1E+10	1	-1E+10	1
4902551	115	C	10/22/2023	07:05	-130.994	47.042	0	190.70	0	6.4560	0	33.7500	0	26.509	0	189.029	0	156.6	4	52.2	4	-1E+10	1	-1E+10	1	-1E+10	1	-1E+10	1	-1E+10	1	-1E+10	1
4902551	115	C	10/22/2023	07:05	-130.994	47.042	0	191.60	0	6.4560	0	33.7500	0	26.509	0	189.921	0	156.1	4	52.1	4	-1E+10	1	-1E+10	1	-1E+10	1	-1E+10	1	-1E+10	1	-1E+10	1
4902551	115	C	10/22/2023	07:05	-130.994	47.042	0	192.90	0	6.4490	0	33.7510	0	26.511	0	191.209	0	155.4	4	51.8	4	-1E+10	1	-1E+10	1	-1E+10	1	-1E+10	1	-1E+10	1	-1E+10	1
4902551	115	C	10/22/2023	07:05	-130.994	47.042	0	194.30	0	6.4340	0	33.7520	0	26.514	0	192.596	0	154.7	4	51.6	4	-1E+10	1	-1E+10	1	-1E+10	1	-1E+10	1	-1E+10	1	-1E+10	1
4902551	115	C	10/22/2023	07:05	-130.994	47.042	0	195.30	0	6.4110	0	33.7530	0	26.517	0	193.587	0	154.2	4	51.4	4	-1E+10	1	-1E+10	1	-1E+10	1	-1E+10	1	-1E+10	1	-1E+10	1
4902551	115	C	10/22/2023	07:05	-130.994	47.042	0	196.20	0	6.3830	0	33.7530	0	26.521	0	194.478	0	153.7	4	51.2	4	-1E+10	1	-1E+10	1	-1E+10	1	-1E+10	1	-1E+10	1	-1E+10	1
4902551	115	C	10/22/2023	07:05	-130.994	47.042	0	197.10	0	6.3770	0	33.7540	0	26.523	0	195.370	0	153.1	4	51.0	4	-1E+10	1	-1E+10	1	-1E+10	1	-1E+10	1	-1E+10	1	-1E+10	1
4902551	115	C	10/22/2023	07:05	-130.994	47.042	0	198.20	0	6.3690	0	33.7590	0	26.527	0	196.460	0	152.5	4	50.8	4	-1E+10	1	-1E+10	1	-1E+10	1	-1E+10	1	-1E+10	1	-1E+10	1
4902551	115	C	10/22/2023	07:05	-130.994	47.042	0	199.10	0	6.3520	0	33.7620	0	26.532	0	197.351	0	152.0	4	50.6	4	-1E+10	1	-1E+10	1	-1E+10	1	-1E+10	1	-1E+10	1	-1E+10	1
4902551	115	C	10/22/2023	07:05	-130.994	47.042	0	200.10	0	6.3390	0	33.7630	0	26.535	0	198.342	0	151.5	4	50.4	4	-1E+10	1	-1E+10	1	-1E+10	1	-1E+10	1	-1E+10	1	-1E+10	1
4902551	115	C	10/22/2023	07:05	-130.994	47.042	0	201.00	0	6.3330	0	33.7640	0	26.536	0	199.234	0	151.0	4	50.2	4	-1E+10	1	-1E+10	1	-1E+10	1	-1E+10	1	-1E+10	1	-1E+10	1
4902551	115	C	10/22/2023	07:05	-130.994	47.042	0	201.90	0	6.3290	0	33.7650	0	26.537	0	200.126	0	150.6	4	50.1	4	-1E+10	1	-1E+10	1	-1E+10	1	-1E+10	1	-1E+10	1	-1E+10	1
4902551	115	C	10/22/2023	07:05	-130.994	47.042	0	203.00	0	6.3340	0	33.7660	0	26.538	0	201.215	0	150.0	4	49.9	4	-1E+10	1	-1E+10	1	-1E+10	1	-1E+10	1	-1E+10	1	-1E+10	1
4902551	115	C	10/22/2023	07:05	-130.994	47.042	0	203.90	0	6.3200	0	33.7690	0	26.542	0	202.107	0	149.5	4	49.7	4	-1E+10	1	-1E+10	1	-1E+10	1	-1E+10	1	-1E+10	1	-1E+10	1
4902551	115	C	10/22/2023	07:05	-130.994	47.042	0	204.90	0	6.3090	0	33.7680	0	26.542	0	203.098	0	149.0	4	49.5	4	-1E+10	1	-1E+10	1	-1E+10	1	-1E+10	1	-1E+10	1	-1E+10	1
4902551	115	C	10/22/2023	07:05	-130.994	47.042	0	205.80	0	6.3060	0	33.7680	0	26.543	0	203.989	0	148.4	4	49.3	4	-1E+10	1	-1E+10	1	-1E+10	1	-1E+10	1	-1E+10	1	-1E+10	1
4902551	115	C	10/22/2023	07:05	-130.994	47.042	0	207.00	0	6.3050	0	33.7680	0	26.543	0	205.178	0	147.8	4	49.1	4	-1E+10	1	-1E+10	1	-1E+10	1	-1E+10	1	-1E+10	1	-1E+10	1
4902551	115	C	10/22/2023	07:05	-130.994	47.042	0	207.90	0	6.2970	0	33.7680	0	26.544	0	206.070	0	147.1	4	48.9	4	-1E+10	1	-1E+10	1	-1E+10	1	-1E+10	1	-1E+10	1	-1E+10	1
4902551	115	C	10/22/2023	07:05	-130.994	47.042	0	208.90	0	6.2830	0	33.7690	0	26.547	0	207.060	0	146.5	4	48.7	4	-1E+10	1	-1E+10	1	-1E+10	1	-1E+10	1	-1E+10	1	-1E+10	1
4902551	115	C	10/22/2023	07:05	-130.994	47.042	0	209.80	0	6.2740	0	33.7700	0	26.549	0	207.952	0	145.8	4	48.4	4	-1E+10	1	-1E+10	1	-1E+10	1	-1E+10	1	-1E+10	1	-1E+10	1
4902551	115	C	10/22/2023	07:05	-130.994	47.042	0	210.80	0	6.2680	0	33.7710	0	26.550	0	208.943	0	145.2	4	48.2	4	-1E+10	1	-1E+10	1	-1E+10	1	-1E+10	1	-1E+10	1	-1E+10	1
4902551	115	C	10/22/2023	07:05	-130.994	47.042	0	211.70	0	6.2600	0	33.7720	0	26.552	0	209.834	0	144.5	4	48.0	4	-1E+10	1	-1E+10	1	-1E+10	1	-1E+10	1	-1E+10	1	-1E+10	1
4902551	115	C	10/22/2023	07:05	-130.994	47.042	0	212.70	0	6.2260	0	33.7730	0	26.557	0	210.825	0	143.9	4	47.7	4	-1E+10	1	-1E+10	1	-1E+10	1	-1E+10	1	-1E+10	1	-1E+10	1
4902551	115	C	10/22/2023	07:05	-130.994	47.042	0	213.70	0	6.2120	0	33.7750	0	26.560	0	211.816	0	143.4	4	47.6	4	-1E+10	1	-1E+10	1	-1E+10	1	-1E+10	1	-1E+10	1	-1E+10	1
4902551	115	C	10/22/2023	07:05	-130.994	47.042	0	214.60	0	6.2080	0	33.7750	0	26.561	0	212.707	0	142.7	4	47.3	4	-1E+10	1	-1E+10	1	-1E+10	1	-1E+10	1	-1E+10	1	-1E+10	1
4902551	115	C	10/22/2023	07:05	-130.994	47.042	0	215.60	0	6.2050	0	33.7750	0	26.561	0	213.698	0	142.1	4	47.1	4	-1E+10	1	-1E+10	1	-1E+10	1	-1E+10	1	-1E+10	1	-1E+10	1
4902551	115	C	10/22/2023	07:05	-130.994	47.042	0	216.50	0	6.1930	0	33.7760	0	26.564	0	214.590	0	141.4	4	46.9	4	-1E+10	1	-1E+10	1	-1E+10	1	-1E+10	1	-1E+10	1	-1E+10	1
4902551	115	C	10/22/2023	07:05	-130.994	47.042	0	217.70	0	6.1830	0	33.7770	0	26.566	0	215.778	0	140.6	4	46.6	4	-1E+10	1	-1E+10	1	-1E+10	1	-1E+10	1	-1E+10	1	-1E+10	1
4902551	115	C	10/22/2023	07:05	-130.994	47.042	0	218.70	0	6.1510	0	33.7800	0	26.572	0	216.769	0	139.8	4	46.3	4	-1E+10	1	-1E+10	1	-1E+10	1	-1E+10	1	-1E+10	1	-1E+10	1
4902551	115	C	10/22/2023	07:05	-130.994	47.042	0	219.60	0	6.1420	0	33.7790	0	26.572	0	217.661	0	139.1	4	46.1	4	-1E+10	1	-1E+10	1	-1E+10	1	-1E+10	1	-1E+10	1	-1E+10	1
4902551	115	C	10/22/2023	07:05	-130.994	47.042	0	220.60	0	6.1390	0	33.7790	0	26.573	0	218.651	0	138.2	4	45.8	4	-1E+10	1	-1E+10	1	-1E+10	1	-1E+10	1	-1E+10	1	-1E+10	1
4902551	115	C	10/22/2023	07:05	-130.994	47.042	0	221.60	0	6.1300	0	33.7820	0	26.576	0	219.642	0	137.3	4	45.5	4	-1E+10	1	-1E+10	1	-1E+10	1	-1E+10	1	-1E+10	1	-1E+10	1
4902551	115	C	10/22/2023	07:05	-130.994	47.042	0	222.50	0	6.1260	0	33.7840	0	26.578	0	220.533	0	136.5	4	45.2	4	-1E+10	1	-1E+10	1	-1E+10	1	-1E+10	1	-1E+10	1	-1E+10	1
4902551	115	C	10/22/2023	07:05	-130.994	47.042	0	223.50	0	6.1110	0	33.7860	0	26.582	0	221.524	0	135.8	4	44.9	4	-1E+10	1	-1E+10	1	-1E+10	1	-1E+10	1	-1E+10	1	-1E+10	1
4902551	115	C	10/22/2023	07:05	-130.994	47.042	0	224.50	0	6.0780	0	33.7880	0	26.588	0	222.515	0	135.1	4	44.7	4	-1E+10	1	-1E+10	1	-1E+10	1	-1E+10	1	-1E+10	1	-1E+10	1
4902551	115	C	10/22/2023	07:05	-130.994	47.042	0	225.70	0	6.0670	0	33.7890	0	26.590	0	223.703	0	134.2	4	44.4	4	-1E+10	1	-1E+10	1	-1E+10	1	-1E+10	1	-1E+10	1	-1E+10	1
4902551	115	C	10/22/2023	07:05	-130.994	47.042	0	226.60	0	6.0720	0	33.7900	0	26.590	0	224.595	0	133.5	4	44.1	4	-1E+10	1	-1E+10	1	-1E+10	1	-1E+10	1	-1E+10	1	-1E+10	1
4902551	115	C	10/22/2023	07:05	-130.994	47.042	0	227.60	0	6.0760	0	33.7950	0	26.594	0	225.586	0	133.0	4	44.0	4	-1E+10	1	-1E+10	1	-1E+10	1	-1E+10	1	-1E+10	1	-1E+10	1
4902551	115	C	10/22/2023	07:05	-130.994	47.042	0	228.60	0	6.0710	0	33.7980	0	26.597	0	226.576	0	132.5	4	43.8	4	-1E+10	1	-1E+10	1	-1E+10	1	-1E+10	1	-1E+10	1	-1E+10	1
4902551	115	C	10/22/2023	07:05	-130.994	47.042	0	229.60	0	6.0470	0	33.7970	0	26.599	0	227.567	0	132.0	4	43.6	4	-1E+10	1	-1E+10	1	-1E+10	1	-1E+10	1	-1E+10	1	-1E+10	1
4902551	115	C	10/22/2023	07:05	-130.994	47.042	0	230.60	0	6.0470	0	33.7970	0	26.599	0	228.557	0	131.5	4	43.5	4	-1E+10	1	-1E+10	1	-1E+10	1	-1E+10	1	-1E+10	1	-1E+10	1
4902551	115	C	10/22/2023	07:05	-130.994	47.042	0	231.60	0	6.0470	0	33.7960	0	26.598	0	229.548	0	131.0	4	43.3	4	-1E+10	1	-1E+10	1	-1E+10	1	-1E+10	1	-1E+10	1	-1E+10	1
4902551	115	C	10/22/2023	07:05	-130.994	47.042	0	232.60	0	6.0480	0	33.7960	0	26.598	0	230.539	0	130.4	4	43.1	4	-1E+10	1	-1E+10	1	-1E+10	1	-1E+10	1	-1E+10	1	-1E+10	1
4902551	115	C	10/22/2023	07:05	-130.994	47.042	0	233.60	0	6.0430	0	33.7960	0	26.599	0	231.529	0	129.6	4	42.8	4	-1E+10	1	-1E+10	1	-1E+10	1	-1E+10	1	-1E+10	1	-1E+10	1
4902551	115	C	10/22/2023	07:05	-130.994	47.042	0	234.60	0	5.9380	0	33.7930	0	26.609	0	232.520	0	129.0	4	42.5	4	-1E+10	1	-1E+10	1	-1E+10	1	-1E+10	1	-1E+10	1	-1E+10	1
4902551	115	C	10/22/2023	07:05	-130.994	47.042	0	235.70	0	5.8950	0	33.7930	0	26.615	0	233.609	0	128.3	4	42.3	4	-1E+10	1	-1E+10	1	-1E+10	1	-1E+10	1	-1E+10	1	-1E+10	1
4902551	115	C	10/22/2023	07:05	-130.994	47.042	0	236.70	0	5.8680	0	33.7890	0	26.615	0	234.600	0	127.4	4	41.9	4	-1E+10	1	-1E+10	1	-1E+10	1	-1E+10	1	-1E+10	1	-1E+10	1
4902551	115	C	10/22/2023	07:05	-130.994	47.042	0	237.70	0	5.9030	0	33.7990	0	26.618	0	235.591	0	126.8	4	41.8	4	-1E+10	1	-1E+10	1	-1E+10	1	-1E+10	1	-1E+10	1	-1E+10	1
4902551	115	C	10/22/2023	07:05	-130.994	47.042	0	238.70	0	5.8990	0	33.7990	0	26.619	0	236.581	0	126.3	4	41.6	4	-1E+10	1	-1E+10	1	-1E+10	1	-1E+10	1	-1E+10	1	-1E+10	1
4902551	115	C	10/22/2023	07:05	-130.994	47.042	0	239.70	0	5.8800	0	33.8010	0	26.623	0	237.572	0	125.7	4	41.4	4	-1E+10	1	-1E+10	1	-1E+10	1	-1E+10	1	-1E+10	1	-1E+10	1
4902551	115	C	10/22/2023	07:05	-130.994	47.042	0	240.70	0	5.8730	0	33.8000	0	26.623	0	238.562	0	125.1	4	41.2	4	-1E+10	1	-1E+10	1	-1E+10	1	-1E+10	1	-1E+10	1	-1E+10	1
4902551	115	C	10/22/2023	07:05	-130.994	47.042	0	241.80	0	5.8700	0	33.8000	0	26.623	0	239.652	0	124.5	4	41.0	4	-1E+10	1	-1E+10	1	-1E+10	1	-1E+10	1	-1E+10	1	-1E+10	1
4902551	115	C	10/22/2023	07:05	-130.994	47.042	0	242.80	0	5.8670	0	33.8010	0	26.624	0	240.642	0	123.8	4	40.8	4	-1E+10	1	-1E+10	1	-1E+10	1	-1E+10	1	-1E+10	1	-1E+10	1
4902551	115	C	10/22/2023	07:05	-130.994	47.042	0	243.80	0	5.8630	0	33.8020	0	26.626	0	241.633	0	123.1	4	40.5	4	-1E+10	1	-1E+10	1	-1E+10	1	-1E+10	1	-1E+10	1	-1E+10	1
4902551	115	C	10/22/2023	07:05	-130.994	47.042	0	244.90	0	5.8600	0	33.8040	0	26.628	0	242.722	0	122.4	4	40.3	4	-1E+10	1	-1E+10	1	-1E+10	1	-1E+10	1	-1E+10	1	-1E+10	1
4902551	115	C	10/22/2023	07:05	-130.994	47.042	0	245.90	0	5.8330	0	33.8020	0	26.629	0	243.713	0	121.8	4	40.1	4	-1E+10	1	-1E+10	1	-1E+10	1	-1E+10	1	-1E+10	1	-1E+10	1
4902551	115	C	10/22/2023	07:05	-130.994	47.042	0	246.90	0	5.8020	0	33.8050	0	26.636	0	244.703	0	121.2	4	39.8	4	-1E+10	1	-1E+10	1	-1E+10	1	-1E+10	1	-1E+10	1	-1E+10	1
4902551	115	C	10/22/2023	07:05	-130.994	47.042	0	247.90	0	5.7850	0	33.8060	0	26.639	0	245.694	0	120.6	4	39.6	4	-1E+10	1	-1E+10	1	-1E+10	1	-1E+10	1	-1E+10	1	-1E+10	1
4902551	115	C	10/22/2023	07:05	-130.994	47.042	0	249.00	0	5.7590	0	33.8070	0	26.642	0	246.783	0	120.1	4	39.4	4	-1E+10	1	-1E+10	1	-1E+10	1	-1E+10	1	-1E+10	1	-1E+10	1
4902551	115	C	10/22/2023	07:05	-130.994	47.042	0	250.00	0	5.7520	0	33.8080	0	26.644	0	247.774	0	119.7	4	39.3	4	-1E+10	1	-1E+10	1	-1E+10	1	-1E+10	1	-1E+10	1	-1E+10	1
4902551	115	C	10/22/2023	07:05	-130.994	47.042	0	251.00	0	5.7530	0	33.8090	0	26.645	0	248.764	0	119.2	4	39.1	4	-1E+10	1	-1E+10	1	-1E+10	1	-1E+10	1	-1E+10	1	-1E+10	1
4902551	115	C	10/22/2023	07:05	-130.994	47.042	0	252.00	0	5.7390	0	33.8090	0	26.647	0	249.755	0	118.8	4	39.0	4	-1E+10	1	-1E+10	1	-1E+10	1	-1E+10	1	-1E+10	1	-1E+10	1
4902551	115	C	10/22/2023	07:05	-130.994	47.042	0	253.00	0	5.7380	0	33.8090	0	26.647	0	250.745	0	118.3	4	38.8	4	-1E+10	1	-1E+10	1	-1E+10	1	-1E+10	1	-1E+10	1	-1E+10	1
4902551	115	C	10/22/2023	07:05	-130.994	47.042	0	254.00	0	5.7330	0	33.8100	0	26.648	0	251.736	0	117.7	4	38.6	4	-1E+10	1	-1E+10	1	-1E+10	1	-1E+10	1	-1E+10	1	-1E+10	1
4902551	115	C	10/22/2023	07:05	-130.994	47.042	0	255.00	0	5.7320	0	33.8070	0	26.646	0	252.726	0	117.1	4	38.4	4	-1E+10	1	-1E+10	1	-1E+10	1	-1E+10	1	-1E+10	1	-1E+10	1
4902551	115	C	10/22/2023	07:05	-130.994	47.042	0	256.00	0	5.7060	0	33.8040	0	26.647	0	253.717	0	116.4	4	38.2	4	-1E+10	1	-1E+10	1	-1E+10	1	-1E+10	1	-1E+10	1	-1E+10	1
4902551	115	C	10/22/2023	07:05	-130.994	47.042	0	257.00	0	5.6670	0	33.8070	0	26.654	0	254.707	0	115.7	4	37.9	4	-1E+10	1	-1E+10	1	-1E+10	1	-1E+10	1	-1E+10	1	-1E+10	1
4902551	115	C	10/22/2023	07:05	-130.994	47.042	0	258.00	0	5.6250	0	33.8040	0	26.656	0	255.698	0	114.8	4	37.6	4	-1E+10	1	-1E+10	1	-1E+10	1	-1E+10	1	-1E+10	1	-1E+10	1
4902551	115	C	10/22/2023	07:05	-130.994	47.042	0	259.00	0	5.6330	0	33.7990	0	26.652	0	256.688	0	114.0	4	37.3	4	-1E+10	1	-1E+10	1	-1E+10	1	-1E+10	1	-1E+10	1	-1E+10	1
4902551	115	C	10/22/2023	07:05	-130.994	47.042	0	260.00	0	5.6240	0	33.8150	0	26.665	0	257.679	0	113.3	4	37.1	4	-1E+10	1	-1E+10	1	-1E+10	1	-1E+10	1	-1E+10	1	-1E+10	1
4902551	115	C	10/22/2023	07:05	-130.994	47.042	0	261.00	0	5.6010	0	33.8110	0	26.665	0	258.669	0	112.7	4	36.9	4	-1E+10	1	-1E+10	1	-1E+10	1	-1E+10	1	-1E+10	1	-1E+10	1
4902551	115	C	10/22/2023	07:05	-130.994	47.042	0	262.00	0	5.6050	0	33.8130	0	26.666	0	259.660	0	112.1	4	36.7	4	-1E+10	1	-1E+10	1	-1E+10	1	-1E+10	1	-1E+10	1	-1E+10	1
4902551	115	C	10/22/2023	07:05	-130.994	47.042	0	263.00	0	5.6060	0	33.8140	0	26.667	0	260.650	0	111.5	4	36.5	4	-1E+10	1	-1E+10	1	-1E+10	1	-1E+10	1	-1E+10	1	-1E+10	1
4902551	115	C	10/22/2023	07:05	-130.994	47.042	0	263.90	0	5.6030	0	33.8180	0	26.670	0	261.541	0	110.9	4	36.3	4	-1E+10	1	-1E+10	1	-1E+10	1	-1E+10	1	-1E+10	1	-1E+10	1
4902551	115	C	10/22/2023	07:05	-130.994	47.042	0	264.90	0	5.5970	0	33.8180	0	26.671	0	262.532	0	110.3	4	36.1	4	-1E+10	1	-1E+10	1	-1E+10	1	-1E+10	1	-1E+10	1	-1E+10	1
4902551	115	C	10/22/2023	07:05	-130.994	47.042	0	265.90	0	5.5910	0	33.8180	0	26.672	0	263.522	0	109.6	4	35.8	4	-1E+10	1	-1E+10	1	-1E+10	1	-1E+10	1	-1E+10	1	-1E+10	1
4902551	115	C	10/22/2023	07:05	-130.994	47.042	0	266.80	0	5.5900	0	33.8190	0	26.673	0	264.414	0	108.9	4	35.6	4	-1E+10	1	-1E+10	1	-1E+10	1	-1E+10	1	-1E+10	1	-1E+10	1
4902551	115	C	10/22/2023	07:05	-130.994	47.042	0	267.80	0	5.5900	0	33.8220	0	26.675	0	265.404	0	108.2	4	35.4	4	-1E+10	1	-1E+10	1	-1E+10	1	-1E+10	1	-1E+10	1	-1E+10	1
4902551	115	C	10/22/2023	07:05	-130.994	47.042	0	268.80	0	5.5860	0	33.8210	0	26.675	0	266.394	0	107.4	4	35.1	4	-1E+10	1	-1E+10	1	-1E+10	1	-1E+10	1	-1E+10	1	-1E+10	1
4902551	115	C	10/22/2023	07:05	-130.994	47.042	0	269.70	0	5.5860	0	33.8210	0	26.675	0	267.286	0	106.6	4	34.9	4	-1E+10	1	-1E+10	1	-1E+10	1	-1E+10	1	-1E+10	1	-1E+10	1
4902551	115	C	10/22/2023	07:05	-130.994	47.042	0	270.70	0	5.5880	0	33.8230	0	26.676	0	268.276	0	105.7	4	34.6	4	-1E+10	1	-1E+10	1	-1E+10	1	-1E+10	1	-1E+10	1	-1E+10	1
4902551	115	C	10/22/2023	07:05	-130.994	47.042	0	271.70	0	5.6030	0	33.8220	0	26.673	0	269.267	0	104.8	4	34.3	4	-1E+10	1	-1E+10	1	-1E+10	1	-1E+10	1	-1E+10	1	-1E+10	1
4902551	115	C	10/22/2023	07:05	-130.994	47.042	0	272.70	0	5.6330	0	33.8290	0	26.675	0	270.257	0	104.1	4	34.1	4	-1E+10	1	-1E+10	1	-1E+10	1	-1E+10	1	-1E+10	1	-1E+10	1
4902551	115	C	10/22/2023	07:05	-130.994	47.042	0	273.60	0	5.6390	0	33.8390	0	26.683	0	271.148	0	103.5	4	33.9	4	-1E+10	1	-1E+10	1	-1E+10	1	-1E+10	1	-1E+10	1	-1E+10	1
4902551	115	C	10/22/2023	07:05	-130.994	47.042	0	274.60	0	5.5610	0	33.8300	0	26.685	0	272.139	0	103.0	4	33.7	4	-1E+10	1	-1E+10	1	-1E+10	1	-1E+10	1	-1E+10	1	-1E+10	1
4902551	115	C	10/22/2023	07:05	-130.994	47.042	0	275.50	0	5.5450	0	33.8370	0	26.692	0	273.030	0	102.4	4	33.5	4	-1E+10	1	-1E+10	1	-1E+10	1	-1E+10	1	-1E+10	1	-1E+10	1
4902551	115	C	10/22/2023	07:05	-130.994	47.042	0	276.50	0	5.5120	0	33.8320	0	26.692	0	274.020	0	101.8	4	33.2	4	-1E+10	1	-1E+10	1	-1E+10	1	-1E+10	1	-1E+10	1	-1E+10	1
4902551	115	C	10/22/2023	07:05	-130.994	47.042	0	277.50	0	5.5080	0	33.8320	0	26.693	0	275.011	0	101.0	4	33.0	4	-1E+10	1	-1E+10	1	-1E+10	1	-1E+10	1	-1E+10	1	-1E+10	1
4902551	115	C	10/22/2023	07:05	-130.994	47.042	0	278.90	0	5.4870	0	33.8340	0	26.697	0	276.397	0	99.9	4	32.6	4	-1E+10	1	-1E+10	1	-1E+10	1	-1E+10	1	-1E+10	1	-1E+10	1
4902551	115	C	10/22/2023	07:05	-130.994	47.042	0	280.40	0	5.4990	0	33.8410	0	26.701	0	277.883	0	98.8	4	32.3	4	-1E+10	1	-1E+10	1	-1E+10	1	-1E+10	1	-1E+10	1	-1E+10	1
4902551	115	C	10/22/2023	07:05	-130.994	47.042	0	281.30	0	5.4770	0	33.8440	0	26.706	0	278.774	0	98.1	4	32.0	4	-1E+10	1	-1E+10	1	-1E+10	1	-1E+10	1	-1E+10	1	-1E+10	1
4902551	115	C	10/22/2023	07:05	-130.994	47.042	0	282.30	0	5.4640	0	33.8440	0	26.708	0	279.765	0	97.5	4	31.8	4	-1E+10	1	-1E+10	1	-1E+10	1	-1E+10	1	-1E+10	1	-1E+10	1
4902551	115	C	10/22/2023	07:05	-130.994	47.042	0	283.30	0	5.4460	0	33.8470	0	26.712	0	280.755	0	96.9	4	31.6	4	-1E+10	1	-1E+10	1	-1E+10	1	-1E+10	1	-1E+10	1	-1E+10	1
4902551	115	C	10/22/2023	07:05	-130.994	47.042	0	284.30	0	5.4350	0	33.8480	0	26.714	0	281.745	0	96.2	4	31.4	4	-1E+10	1	-1E+10	1	-1E+10	1	-1E+10	1	-1E+10	1	-1E+10	1
4902551	115	C	10/22/2023	07:05	-130.994	47.042	0	285.20	0	5.4230	0	33.8480	0	26.716	0	282.637	0	95.6	4	31.1	4	-1E+10	1	-1E+10	1	-1E+10	1	-1E+10	1	-1E+10	1	-1E+10	1
4902551	115	C	10/22/2023	07:05	-130.994	47.042	0	286.20	0	5.4040	0	33.8490	0	26.719	0	283.627	0	94.9	4	30.9	4	-1E+10	1	-1E+10	1	-1E+10	1	-1E+10	1	-1E+10	1	-1E+10	1
4902551	115	C	10/22/2023	07:05	-130.994	47.042	0	287.20	0	5.3570	0	33.8490	0	26.724	0	284.617	0	94.4	4	30.7	4	-1E+10	1	-1E+10	1	-1E+10	1	-1E+10	1	-1E+10	1	-1E+10	1
4902551	115	C	10/22/2023	07:05	-130.994	47.042	0	288.20	0	5.3760	0	33.8540	0	26.726	0	285.608	0	93.9	4	30.6	4	-1E+10	1	-1E+10	1	-1E+10	1	-1E+10	1	-1E+10	1	-1E+10	1
4902551	115	C	10/22/2023	07:05	-130.994	47.042	0	289.10	0	5.3760	0	33.8580	0	26.729	0	286.499	0	93.5	4	30.4	4	-1E+10	1	-1E+10	1	-1E+10	1	-1E+10	1	-1E+10	1	-1E+10	1
4902551	115	C	10/22/2023	07:05	-130.994	47.042	0	290.10	0	5.3750	0	33.8570	0	26.728	0	287.489	0	93.1	4	30.3	4	-1E+10	1	-1E+10	1	-1E+10	1	-1E+10	1	-1E+10	1	-1E+10	1
4902551	115	C	10/22/2023	07:05	-130.994	47.042	0	291.00	0	5.3740	0	33.8570	0	26.729	0	288.380	0	92.6	4	30.1	4	-1E+10	1	-1E+10	1	-1E+10	1	-1E+10	1	-1E+10	1	-1E+10	1
4902551	115	C	10/22/2023	07:05	-130.994	47.042	0	292.00	0	5.3680	0	33.8570	0	26.729	0	289.371	0	92.1	4	30.0	4	-1E+10	1	-1E+10	1	-1E+10	1	-1E+10	1	-1E+10	1	-1E+10	1
4902551	115	C	10/22/2023	07:05	-130.994	47.042	0	293.00	0	5.3470	0	33.8560	0	26.731	0	290.361	0	91.6	4	29.8	4	-1E+10	1	-1E+10	1	-1E+10	1	-1E+10	1	-1E+10	1	-1E+10	1
4902551	115	C	10/22/2023	07:05	-130.994	47.042	0	293.90	0	5.3350	0	33.8550	0	26.732	0	291.252	0	91.0	4	29.6	4	-1E+10	1	-1E+10	1	-1E+10	1	-1E+10	1	-1E+10	1	-1E+10	1
4902551	115	C	10/22/2023	07:05	-130.994	47.042	0	294.90	0	5.3370	0	33.8610	0	26.736	0	292.243	0	90.5	4	29.4	4	-1E+10	1	-1E+10	1	-1E+10	1	-1E+10	1	-1E+10	1	-1E+10	1
4902551	115	C	10/22/2023	07:05	-130.994	47.042	0	295.90	0	5.3340	0	33.8610	0	26.737	0	293.233	0	90.1	4	29.3	4	-1E+10	1	-1E+10	1	-1E+10	1	-1E+10	1	-1E+10	1	-1E+10	1
4902551	115	C	10/22/2023	07:05	-130.994	47.042	0	296.90	0	5.3400	0	33.8630	0	26.737	0	294.223	0	89.7	4	29.2	4	-1E+10	1	-1E+10	1	-1E+10	1	-1E+10	1	-1E+10	1	-1E+10	1
4902551	115	C	10/22/2023	07:05	-130.994	47.042	0	297.80	0	5.3340	0	33.8630	0	26.738	0	295.114	0	89.5	4	29.1	4	-1E+10	1	-1E+10	1	-1E+10	1	-1E+10	1	-1E+10	1	-1E+10	1
4902551	115	C	10/22/2023	07:05	-130.994	47.042	0	298.70	0	5.3210	0	33.8630	0	26.740	0	296.006	0	89.1	4	29.0	4	-1E+10	1	-1E+10	1	-1E+10	1	-1E+10	1	-1E+10	1	-1E+10	1
4902551	115	C	10/22/2023	07:05	-130.994	47.042	0	299.70	0	5.3270	0	33.8670	0	26.742	0	296.996	0	88.9	4	28.9	4	-1E+10	1	-1E+10	1	-1E+10	1	-1E+10	1	-1E+10	1	-1E+10	1
4902551	115	C	10/22/2023	07:05	-130.994	47.042	0	300.70	0	5.3070	0	33.8700	0	26.747	0	297.986	0	88.6	4	28.8	4	-1E+10	1	-1E+10	1	-1E+10	1	-1E+10	1	-1E+10	1	-1E+10	1
4902551	115	C	10/22/2023	07:05	-130.994	47.042	0	301.60	0	5.2960	0	33.8670	0	26.746	0	298.877	0	88.3	4	28.7	4	-1E+10	1	-1E+10	1	-1E+10	1	-1E+10	1	-1E+10	1	-1E+10	1
4902551	115	C	10/22/2023	07:05	-130.994	47.042	0	302.60	0	5.2890	0	33.8670	0	26.747	0	299.868	0	87.9	4	28.5	4	-1E+10	1	-1E+10	1	-1E+10	1	-1E+10	1	-1E+10	1	-1E+10	1
4902551	115	C	10/22/2023	07:05	-130.994	47.042	0	303.60	0	5.2860	0	33.8680	0	26.748	0	300.858	0	87.5	4	28.4	4	-1E+10	1	-1E+10	1	-1E+10	1	-1E+10	1	-1E+10	1	-1E+10	1
4902551	115	C	10/22/2023	07:05	-130.994	47.042	0	304.60	0	5.2740	0	33.8710	0	26.752	0	301.848	0	87.1	4	28.3	4	-1E+10	1	-1E+10	1	-1E+10	1	-1E+10	1	-1E+10	1	-1E+10	1
4902551	115	C	10/22/2023	07:05	-130.994	47.042	0	305.50	0	5.2540	0	33.8680	0	26.751	0	302.739	0	86.7	4	28.2	4	-1E+10	1	-1E+10	1	-1E+10	1	-1E+10	1	-1E+10	1	-1E+10	1
4902551	115	C	10/22/2023	07:05	-130.994	47.042	0	306.50	0	5.2280	0	33.8700	0	26.756	0	303.729	0	86.4	4	28.0	4	-1E+10	1	-1E+10	1	-1E+10	1	-1E+10	1	-1E+10	1	-1E+10	1
4902551	115	C	10/22/2023	07:05	-130.994	47.042	0	307.90	0	5.2160	0	33.8700	0	26.757	0	305.116	0	86.0	4	27.9	4	-1E+10	1	-1E+10	1	-1E+10	1	-1E+10	1	-1E+10	1	-1E+10	1
4902551	115	C	10/22/2023	07:05	-130.994	47.042	0	309.40	0	5.2080	0	33.8710	0	26.759	0	306.601	0	85.6	4	27.7	4	-1E+10	1	-1E+10	1	-1E+10	1	-1E+10	1	-1E+10	1	-1E+10	1
4902551	115	C	10/22/2023	07:05	-130.994	47.042	0	310.40	0	5.2080	0	33.8710	0	26.759	0	307.591	0	85.2	4	27.6	4	-1E+10	1	-1E+10	1	-1E+10	1	-1E+10	1	-1E+10	1	-1E+10	1
4902551	115	C	10/22/2023	07:05	-130.994	47.042	0	311.30	0	5.2050	0	33.8710	0	26.760	0	308.482	0	84.8	4	27.5	4	-1E+10	1	-1E+10	1	-1E+10	1	-1E+10	1	-1E+10	1	-1E+10	1
4902551	115	C	10/22/2023	07:05	-130.994	47.042	0	312.30	0	5.2040	0	33.8710	0	26.760	0	309.473	0	84.4	4	27.4	4	-1E+10	1	-1E+10	1	-1E+10	1	-1E+10	1	-1E+10	1	-1E+10	1
4902551	115	C	10/22/2023	07:05	-130.994	47.042	0	313.30	0	5.2010	0	33.8710	0	26.760	0	310.463	0	84.0	4	27.2	4	-1E+10	1	-1E+10	1	-1E+10	1	-1E+10	1	-1E+10	1	-1E+10	1
4902551	115	C	10/22/2023	07:05	-130.994	47.042	0	314.20	0	5.1970	0	33.8710	0	26.761	0	311.354	0	83.5	4	27.1	4	-1E+10	1	-1E+10	1	-1E+10	1	-1E+10	1	-1E+10	1	-1E+10	1
4902551	115	C	10/22/2023	07:05	-130.994	47.042	0	315.20	0	5.1820	0	33.8720	0	26.763	0	312.344	0	83.2	4	26.9	4	-1E+10	1	-1E+10	1	-1E+10	1	-1E+10	1	-1E+10	1	-1E+10	1
4902551	115	C	10/22/2023	07:05	-130.994	47.042	0	316.20	0	5.1520	0	33.8760	0	26.770	0	313.334	0	82.9	4	26.8	4	-1E+10	1	-1E+10	1	-1E+10	1	-1E+10	1	-1E+10	1	-1E+10	1
4902551	115	C	10/22/2023	07:05	-130.994	47.042	0	317.10	0	5.1430	0	33.8740	0	26.769	0	314.226	0	82.6	4	26.8	4	-1E+10	1	-1E+10	1	-1E+10	1	-1E+10	1	-1E+10	1	-1E+10	1
4902551	115	C	10/22/2023	07:05	-130.994	47.042	0	318.10	0	5.1400	0	33.8730	0	26.769	0	315.216	0	82.4	4	26.7	4	-1E+10	1	-1E+10	1	-1E+10	1	-1E+10	1	-1E+10	1	-1E+10	1
4902551	115	C	10/22/2023	07:05	-130.994	47.042	0	319.00	0	5.1340	0	33.8740	0	26.770	0	316.107	0	82.1	4	26.6	4	-1E+10	1	-1E+10	1	-1E+10	1	-1E+10	1	-1E+10	1	-1E+10	1
4902551	115	C	10/22/2023	07:05	-130.994	47.042	0	319.90	0	5.1250	0	33.8750	0	26.772	0	316.998	0	81.8	4	26.5	4	-1E+10	1	-1E+10	1	-1E+10	1	-1E+10	1	-1E+10	1	-1E+10	1
4902551	115	C	10/22/2023	07:05	-130.994	47.042	0	321.00	0	5.1180	0	33.8740	0	26.772	0	318.087	0	81.5	4	26.4	4	-1E+10	1	-1E+10	1	-1E+10	1	-1E+10	1	-1E+10	1	-1E+10	1
4902551	115	C	10/22/2023	07:05	-130.994	47.042	0	321.70	0	5.1060	0	33.8750	0	26.774	0	318.780	0	81.2	4	26.3	4	-1E+10	1	-1E+10	1	-1E+10	1	-1E+10	1	-1E+10	1	-1E+10	1
4902551	115	C	10/22/2023	07:05	-130.994	47.042	0	322.80	0	5.0830	0	33.8760	0	26.778	0	319.870	0	80.8	4	26.1	4	-1E+10	1	-1E+10	1	-1E+10	1	-1E+10	1	-1E+10	1	-1E+10	1
4902551	115	C	10/22/2023	07:05	-130.994	47.042	0	323.90	0	5.0630	0	33.8750	0	26.779	0	320.959	0	80.4	4	26.0	4	-1E+10	1	-1E+10	1	-1E+10	1	-1E+10	1	-1E+10	1	-1E+10	1
4902551	115	C	10/22/2023	07:05	-130.994	47.042	0	325.00	0	5.0530	0	33.8760	0	26.781	0	322.048	0	79.9	4	25.8	4	-1E+10	1	-1E+10	1	-1E+10	1	-1E+10	1	-1E+10	1	-1E+10	1
4902551	115	C	10/22/2023	07:05	-130.994	47.042	0	326.20	0	5.0450	0	33.8770	0	26.783	0	323.236	0	79.3	4	25.6	4	-1E+10	1	-1E+10	1	-1E+10	1	-1E+10	1	-1E+10	1	-1E+10	1
4902551	115	C	10/22/2023	07:05	-130.994	47.042	0	326.90	0	5.0460	0	33.8770	0	26.783	0	323.929	0	78.9	4	25.5	4	-1E+10	1	-1E+10	1	-1E+10	1	-1E+10	1	-1E+10	1	-1E+10	1
4902551	115	C	10/22/2023	07:05	-130.994	47.042	0	327.70	0	5.0400	0	33.8800	0	26.786	0	324.721	0	78.6	4	25.4	4	-1E+10	1	-1E+10	1	-1E+10	1	-1E+10	1	-1E+10	1	-1E+10	1
4902551	115	C	10/22/2023	07:05	-130.994	47.042	0	328.80	0	5.0140	0	33.8810	0	26.790	0	325.810	0	78.2	4	25.2	4	-1E+10	1	-1E+10	1	-1E+10	1	-1E+10	1	-1E+10	1	-1E+10	1
4902551	115	C	10/22/2023	07:05	-130.994	47.042	0	330.00	0	5.0030	0	33.8820	0	26.792	0	326.999	0	77.8	4	25.1	4	-1E+10	1	-1E+10	1	-1E+10	1	-1E+10	1	-1E+10	1	-1E+10	1
4902551	115	C	10/22/2023	07:05	-130.994	47.042	0	330.80	0	4.9990	0	33.8820	0	26.792	0	327.791	0	77.4	4	25.0	4	-1E+10	1	-1E+10	1	-1E+10	1	-1E+10	1	-1E+10	1	-1E+10	1
4902551	115	C	10/22/2023	07:05	-130.994	47.042	0	331.90	0	4.9830	0	33.8820	0	26.794	0	328.880	0	77.0	4	24.8	4	-1E+10	1	-1E+10	1	-1E+10	1	-1E+10	1	-1E+10	1	-1E+10	1
4902551	115	C	10/22/2023	07:05	-130.994	47.042	0	333.10	0	4.9700	0	33.8820	0	26.795	0	330.068	0	76.6	4	24.7	4	-1E+10	1	-1E+10	1	-1E+10	1	-1E+10	1	-1E+10	1	-1E+10	1
4902551	115	C	10/22/2023	07:05	-130.994	47.042	0	333.90	0	4.9650	0	33.8820	0	26.796	0	330.860	0	76.2	4	24.6	4	-1E+10	1	-1E+10	1	-1E+10	1	-1E+10	1	-1E+10	1	-1E+10	1
4902551	115	C	10/22/2023	07:05	-130.994	47.042	0	334.70	0	4.9630	0	33.8830	0	26.797	0	331.652	0	75.9	4	24.5	4	-1E+10	1	-1E+10	1	-1E+10	1	-1E+10	1	-1E+10	1	-1E+10	1
4902551	115	C	10/22/2023	07:05	-130.994	47.042	0	335.90	0	4.9660	0	33.8840	0	26.797	0	332.840	0	75.4	4	24.3	4	-1E+10	1	-1E+10	1	-1E+10	1	-1E+10	1	-1E+10	1	-1E+10	1
4902551	115	C	10/22/2023	07:05	-130.994	47.042	0	337.10	0	4.9670	0	33.8860	0	26.799	0	334.028	0	74.9	4	24.1	4	-1E+10	1	-1E+10	1	-1E+10	1	-1E+10	1	-1E+10	1	-1E+10	1
4902551	115	C	10/22/2023	07:05	-130.994	47.042	0	337.90	0	4.9650	0	33.8880	0	26.801	0	334.820	0	74.5	4	24.0	4	-1E+10	1	-1E+10	1	-1E+10	1	-1E+10	1	-1E+10	1	-1E+10	1
4902551	115	C	10/22/2023	07:05	-130.994	47.042	0	338.80	0	4.9610	0	33.8890	0	26.802	0	335.711	0	74.1	4	23.9	4	-1E+10	1	-1E+10	1	-1E+10	1	-1E+10	1	-1E+10	1	-1E+10	1
4902551	115	C	10/22/2023	07:05	-130.994	47.042	0	340.00	0	4.9540	0	33.8890	0	26.803	0	336.899	0	73.6	4	23.7	4	-1E+10	1	-1E+10	1	-1E+10	1	-1E+10	1	-1E+10	1	-1E+10	1
4902551	115	C	10/22/2023	07:05	-130.994	47.042	0	341.20	0	4.9490	0	33.8900	0	26.804	0	338.088	0	73.0	4	23.5	4	-1E+10	1	-1E+10	1	-1E+10	1	-1E+10	1	-1E+10	1	-1E+10	1
4902551	115	C	10/22/2023	07:05	-130.994	47.042	0	342.00	0	4.9330	0	33.8910	0	26.807	0	338.880	0	72.6	4	23.4	4	-1E+10	1	-1E+10	1	-1E+10	1	-1E+10	1	-1E+10	1	-1E+10	1
4902551	115	C	10/22/2023	07:05	-130.994	47.042	0	342.90	0	4.9240	0	33.8930	0	26.809	0	339.771	0	72.2	4	23.3	4	-1E+10	1	-1E+10	1	-1E+10	1	-1E+10	1	-1E+10	1	-1E+10	1
4902551	115	C	10/22/2023	07:05	-130.994	47.042	0	343.70	0	4.9060	0	33.8920	0	26.811	0	340.563	0	71.7	4	23.1	4	-1E+10	1	-1E+10	1	-1E+10	1	-1E+10	1	-1E+10	1	-1E+10	1
4902551	115	C	10/22/2023	07:05	-130.994	47.042	0	344.90	0	4.9060	0	33.8960	0	26.814	0	341.751	0	71.0	4	22.9	4	-1E+10	1	-1E+10	1	-1E+10	1	-1E+10	1	-1E+10	1	-1E+10	1
4902551	115	C	10/22/2023	07:05	-130.994	47.042	0	346.20	0	4.9170	0	33.8990	0	26.815	0	343.038	0	70.4	4	22.7	4	-1E+10	1	-1E+10	1	-1E+10	1	-1E+10	1	-1E+10	1	-1E+10	1
4902551	115	C	10/22/2023	07:05	-130.994	47.042	0	347.10	0	4.9230	0	33.9030	0	26.817	0	343.929	0	70.1	4	22.6	4	-1E+10	1	-1E+10	1	-1E+10	1	-1E+10	1	-1E+10	1	-1E+10	1
4902551	115	C	10/22/2023	07:05	-130.994	47.042	0	348.00	0	4.9220	0	33.9050	0	26.819	0	344.820	0	69.9	4	22.5	4	-1E+10	1	-1E+10	1	-1E+10	1	-1E+10	1	-1E+10	1	-1E+10	1
4902551	115	C	10/22/2023	07:05	-130.994	47.042	0	348.90	0	4.9240	0	33.9060	0	26.820	0	345.711	0	69.6	4	22.4	4	-1E+10	1	-1E+10	1	-1E+10	1	-1E+10	1	-1E+10	1	-1E+10	1
4902551	115	C	10/22/2023	07:05	-130.994	47.042	0	349.70	0	4.9250	0	33.9070	0	26.820	0	346.503	0	69.5	4	22.4	4	-1E+10	1	-1E+10	1	-1E+10	1	-1E+10	1	-1E+10	1	-1E+10	1
4902551	115	C	10/22/2023	07:05	-130.994	47.042	0	352.70	0	4.8610	0	33.9040	0	26.825	0	349.473	0	68.4	4	22.0	4	-1E+10	1	-1E+10	1	-1E+10	1	-1E+10	1	-1E+10	1	-1E+10	1
4902551	115	C	10/22/2023	07:05	-130.994	47.042	0	358.10	0	4.8390	0	33.9060	0	26.829	0	354.819	0	64.9	4	20.9	4	-1E+10	1	-1E+10	1	-1E+10	1	-1E+10	1	-1E+10	1	-1E+10	1
4902551	115	C	10/22/2023	07:05	-130.994	47.042	0	363.10	0	4.9120	0	33.9250	0	26.836	0	359.769	0	60.8	4	19.6	4	-1E+10	1	-1E+10	1	-1E+10	1	-1E+10	1	-1E+10	1	-1E+10	1
4902551	115	C	10/22/2023	07:05	-130.994	47.042	0	367.70	0	4.9790	0	33.9460	0	26.845	0	364.323	0	57.7	4	18.6	4	-1E+10	1	-1E+10	1	-1E+10	1	-1E+10	1	-1E+10	1	-1E+10	1
4902551	115	C	10/22/2023	07:05	-130.994	47.042	0	372.90	0	5.0060	0	33.9610	0	26.854	0	369.470	0	56.4	4	18.2	4	-1E+10	1	-1E+10	1	-1E+10	1	-1E+10	1	-1E+10	1	-1E+10	1
4902551	115	C	10/22/2023	07:05	-130.994	47.042	0	378.00	0	4.9470	0	33.9620	0	26.862	0	374.519	0	56.1	4	18.1	4	-1E+10	1	-1E+10	1	-1E+10	1	-1E+10	1	-1E+10	1	-1E+10	1
4902551	115	C	10/22/2023	07:05	-130.994	47.042	0	382.80	0	4.9210	0	33.9660	0	26.868	0	379.270	0	55.7	4	17.9	4	-1E+10	1	-1E+10	1	-1E+10	1	-1E+10	1	-1E+10	1	-1E+10	1
4902551	115	C	10/22/2023	07:05	-130.994	47.042	0	387.70	0	4.8780	0	33.9640	0	26.871	0	384.120	0	55.6	4	17.9	4	-1E+10	1	-1E+10	1	-1E+10	1	-1E+10	1	-1E+10	1	-1E+10	1
4902551	115	C	10/22/2023	07:05	-130.994	47.042	0	392.60	0	4.8310	0	33.9600	0	26.873	0	388.970	0	55.0	4	17.7	4	-1E+10	1	-1E+10	1	-1E+10	1	-1E+10	1	-1E+10	1	-1E+10	1
4902551	115	C	10/22/2023	07:05	-130.994	47.042	0	397.50	0	4.7980	0	33.9620	0	26.879	0	393.820	0	53.8	4	17.3	4	-1E+10	1	-1E+10	1	-1E+10	1	-1E+10	1	-1E+10	1	-1E+10	1
4902551	115	C	10/22/2023	07:05	-130.994	47.042	0	402.90	0	4.7790	0	33.9660	0	26.884	0	399.165	0	52.2	4	16.8	4	-1E+10	1	-1E+10	1	-1E+10	1	-1E+10	1	-1E+10	1	-1E+10	1
4902551	115	C	10/22/2023	07:05	-130.994	47.042	0	408.40	0	4.8100	0	33.9780	0	26.890	0	404.609	0	50.6	4	16.3	4	-1E+10	1	-1E+10	1	-1E+10	1	-1E+10	1	-1E+10	1	-1E+10	1
4902551	115	C	10/22/2023	07:05	-130.994	47.042	0	413.30	0	4.7990	0	33.9830	0	26.895	0	409.459	0	50.0	4	16.1	4	-1E+10	1	-1E+10	1	-1E+10	1	-1E+10	1	-1E+10	1	-1E+10	1
4902551	115	C	10/22/2023	07:05	-130.994	47.042	0	418.20	0	4.7350	0	33.9820	0	26.902	0	414.308	0	49.0	4	15.7	4	-1E+10	1	-1E+10	1	-1E+10	1	-1E+10	1	-1E+10	1	-1E+10	1
4902551	115	C	10/22/2023	07:05	-130.994	47.042	0	423.20	0	4.7070	0	33.9840	0	26.906	0	419.257	0	47.3	4	15.2	4	-1E+10	1	-1E+10	1	-1E+10	1	-1E+10	1	-1E+10	1	-1E+10	1
4902551	115	C	10/22/2023	07:05	-130.994	47.042	0	428.20	0	4.7370	0	33.9940	0	26.911	0	424.205	0	45.2	4	14.5	4	-1E+10	1	-1E+10	1	-1E+10	1	-1E+10	1	-1E+10	1	-1E+10	1
4902551	115	C	10/22/2023	07:05	-130.994	47.042	0	433.30	0	4.7480	0	34.0040	0	26.918	0	429.252	0	43.7	4	14.0	4	-1E+10	1	-1E+10	1	-1E+10	1	-1E+10	1	-1E+10	1	-1E+10	1
4902551	115	C	10/22/2023	07:05	-130.994	47.042	0	438.30	0	4.7160	0	34.0130	0	26.929	0	434.200	0	42.8	4	13.7	4	-1E+10	1	-1E+10	1	-1E+10	1	-1E+10	1	-1E+10	1	-1E+10	1
4902551	115	C	10/22/2023	07:05	-130.994	47.042	0	442.90	0	4.6900	0	34.0160	0	26.934	0	438.752	0	42.2	4	13.5	4	-1E+10	1	-1E+10	1	-1E+10	1	-1E+10	1	-1E+10	1	-1E+10	1
4902551	115	C	10/22/2023	07:05	-130.994	47.042	0	447.60	0	4.6780	0	34.0180	0	26.937	0	443.403	0	41.7	4	13.4	4	-1E+10	1	-1E+10	1	-1E+10	1	-1E+10	1	-1E+10	1	-1E+10	1
4902551	115	C	10/22/2023	07:05	-130.994	47.042	0	452.70	0	4.6510	0	34.0170	0	26.939	0	448.450	0	40.9	4	13.1	4	-1E+10	1	-1E+10	1	-1E+10	1	-1E+10	1	-1E+10	1	-1E+10	1
4902551	115	C	10/22/2023	07:05	-130.994	47.042	0	457.80	0	4.6240	0	34.0200	0	26.944	0	453.496	0	39.3	4	12.6	4	-1E+10	1	-1E+10	1	-1E+10	1	-1E+10	1	-1E+10	1	-1E+10	1
4902551	115	C	10/22/2023	07:05	-130.994	47.042	0	462.90	0	4.6230	0	34.0270	0	26.950	0	458.543	0	37.4	4	12.0	4	-1E+10	1	-1E+10	1	-1E+10	1	-1E+10	1	-1E+10	1	-1E+10	1
4902551	115	C	10/22/2023	07:05	-130.994	47.042	0	468.10	0	4.5980	0	34.0370	0	26.961	0	463.688	0	36.0	4	11.5	4	-1E+10	1	-1E+10	1	-1E+10	1	-1E+10	1	-1E+10	1	-1E+10	1
4902551	115	C	10/22/2023	07:05	-130.994	47.042	0	472.80	0	4.5640	0	34.0430	0	26.969	0	468.339	0	34.7	4	11.1	4	-1E+10	1	-1E+10	1	-1E+10	1	-1E+10	1	-1E+10	1	-1E+10	1
4902551	115	C	10/22/2023	07:05	-130.994	47.042	0	478.00	0	4.5540	0	34.0510	0	26.977	0	473.484	0	33.5	4	10.7	4	-1E+10	1	-1E+10	1	-1E+10	1	-1E+10	1	-1E+10	1	-1E+10	1
4902551	115	C	10/22/2023	07:05	-130.994	47.042	0	483.20	0	4.5650	0	34.0580	0	26.981	0	478.628	0	32.3	4	10.3	4	-1E+10	1	-1E+10	1	-1E+10	1	-1E+10	1	-1E+10	1	-1E+10	1
4902551	115	C	10/22/2023	07:05	-130.994	47.042	0	488.00	0	4.5560	0	34.0640	0	26.987	0	483.377	0	31.6	4	10.1	4	-1E+10	1	-1E+10	1	-1E+10	1	-1E+10	1	-1E+10	1	-1E+10	1
4902551	115	C	10/22/2023	07:05	-130.994	47.042	0	492.90	0	4.5500	0	34.0660	0	26.989	0	488.225	0	31.0	4	9.9	4	-1E+10	1	-1E+10	1	-1E+10	1	-1E+10	1	-1E+10	1	-1E+10	1
4902551	115	C	10/22/2023	07:05	-130.994	47.042	0	497.70	0	4.5340	0	34.0700	0	26.994	0	492.974	0	30.2	4	9.7	4	-1E+10	1	-1E+10	1	-1E+10	1	-1E+10	1	-1E+10	1	-1E+10	1
4902551	115	C	10/22/2023	07:05	-130.994	47.042	0	502.60	0	4.5240	0	34.0730	0	26.998	0	497.822	0	29.5	4	9.4	4	-1E+10	1	-1E+10	1	-1E+10	1	-1E+10	1	-1E+10	1	-1E+10	1
4902551	115	C	10/22/2023	07:05	-130.994	47.042	0	507.50	0	4.4980	0	34.0780	0	27.004	0	502.669	0	28.8	4	9.2	4	-1E+10	1	-1E+10	1	-1E+10	1	-1E+10	1	-1E+10	1	-1E+10	1
4902551	115	C	10/22/2023	07:05	-130.994	47.042	0	512.60	0	4.4730	0	34.0810	0	27.010	0	507.714	0	27.9	4	8.9	4	-1E+10	1	-1E+10	1	-1E+10	1	-1E+10	1	-1E+10	1	-1E+10	1
4902551	115	C	10/22/2023	07:05	-130.994	47.042	0	517.70	0	4.4460	0	34.0880	0	27.018	0	512.759	0	27.1	4	8.6	4	-1E+10	1	-1E+10	1	-1E+10	1	-1E+10	1	-1E+10	1	-1E+10	1
4902551	115	C	10/22/2023	07:05	-130.994	47.042	0	522.80	0	4.4290	0	34.0930	0	27.024	0	517.804	0	26.4	4	8.4	4	-1E+10	1	-1E+10	1	-1E+10	1	-1E+10	1	-1E+10	1	-1E+10	1
4902551	115	C	10/22/2023	07:05	-130.994	47.042	0	528.00	0	4.4250	0	34.0970	0	27.028	0	522.948	0	25.8	4	8.2	4	-1E+10	1	-1E+10	1	-1E+10	1	-1E+10	1	-1E+10	1	-1E+10	1
4902551	115	C	10/22/2023	07:05	-130.994	47.042	0	533.10	0	4.4110	0	34.1020	0	27.033	0	527.993	0	25.2	4	8.0	4	-1E+10	1	-1E+10	1	-1E+10	1	-1E+10	1	-1E+10	1	-1E+10	1
4902551	115	C	10/22/2023	07:05	-130.994	47.042	0	537.90	0	4.3990	0	34.1050	0	27.037	0	532.741	0	24.6	4	7.8	4	-1E+10	1	-1E+10	1	-1E+10	1	-1E+10	1	-1E+10	1	-1E+10	1
4902551	115	C	10/22/2023	07:05	-130.994	47.042	0	542.70	0	4.3710	0	34.1100	0	27.044	0	537.489	0	24.0	4	7.7	4	-1E+10	1	-1E+10	1	-1E+10	1	-1E+10	1	-1E+10	1	-1E+10	1
4902551	115	C	10/22/2023	07:05	-130.994	47.042	0	548.10	0	4.3460	0	34.1140	0	27.050	0	542.830	0	23.4	4	7.5	4	-1E+10	1	-1E+10	1	-1E+10	1	-1E+10	1	-1E+10	1	-1E+10	1
4902551	115	C	10/22/2023	07:05	-130.994	47.042	0	553.10	0	4.3340	0	34.1180	0	27.054	0	547.775	0	22.7	4	7.2	4	-1E+10	1	-1E+10	1	-1E+10	1	-1E+10	1	-1E+10	1	-1E+10	1
4902551	115	C	10/22/2023	07:05	-130.994	47.042	0	558.00	0	4.3120	0	34.1210	0	27.059	0	552.621	0	22.0	4	7.0	4	-1E+10	1	-1E+10	1	-1E+10	1	-1E+10	1	-1E+10	1	-1E+10	1
4902551	115	C	10/22/2023	07:05	-130.994	47.042	0	563.00	0	4.2970	0	34.1310	0	27.068	0	557.566	0	21.2	4	6.7	4	-1E+10	1	-1E+10	1	-1E+10	1	-1E+10	1	-1E+10	1	-1E+10	1
4902551	115	C	10/22/2023	07:05	-130.994	47.042	0	568.10	0	4.2890	0	34.1360	0	27.073	0	562.610	0	20.9	4	6.6	4	-1E+10	1	-1E+10	1	-1E+10	1	-1E+10	1	-1E+10	1	-1E+10	1
4902551	115	C	10/22/2023	07:05	-130.994	47.042	0	573.20	0	4.2650	0	34.1380	0	27.077	0	567.654	0	20.7	4	6.6	4	-1E+10	1	-1E+10	1	-1E+10	1	-1E+10	1	-1E+10	1	-1E+10	1
4902551	115	C	10/22/2023	07:05	-130.994	47.042	0	577.80	0	4.2220	0	34.1400	0	27.084	0	572.203	0	20.4	4	6.5	4	-1E+10	1	-1E+10	1	-1E+10	1	-1E+10	1	-1E+10	1	-1E+10	1
4902551	115	C	10/22/2023	07:05	-130.994	47.042	0	582.80	0	4.2000	0	34.1450	0	27.090	0	577.148	0	20.0	4	6.4	4	-1E+10	1	-1E+10	1	-1E+10	1	-1E+10	1	-1E+10	1	-1E+10	1
4902551	115	C	10/22/2023	07:05	-130.994	47.042	0	587.90	0	4.1710	0	34.1500	0	27.097	0	582.191	0	19.7	4	6.3	4	-1E+10	1	-1E+10	1	-1E+10	1	-1E+10	1	-1E+10	1	-1E+10	1
4902551	115	C	10/22/2023	07:05	-130.994	47.042	0	592.60	0	4.1570	0	34.1510	0	27.099	0	586.839	0	19.5	4	6.2	4	-1E+10	1	-1E+10	1	-1E+10	1	-1E+10	1	-1E+10	1	-1E+10	1
4902551	115	C	10/22/2023	07:05	-130.994	47.042	0	597.90	0	4.1360	0	34.1550	0	27.105	0	592.080	0	19.0	4	6.0	4	-1E+10	1	-1E+10	1	-1E+10	1	-1E+10	1	-1E+10	1	-1E+10	1
4902551	115	C	10/22/2023	07:05	-130.994	47.042	0	603.40	0	4.1150	0	34.1590	0	27.110	0	597.519	0	18.6	4	5.9	4	-1E+10	1	-1E+10	1	-1E+10	1	-1E+10	1	-1E+10	1	-1E+10	1
4902551	115	C	10/22/2023	07:05	-130.994	47.042	0	607.90	0	4.0870	0	34.1610	0	27.114	0	601.968	0	18.0	4	5.7	4	-1E+10	1	-1E+10	1	-1E+10	1	-1E+10	1	-1E+10	1	-1E+10	1
4902551	115	C	10/22/2023	07:05	-130.994	47.042	0	612.50	0	4.0720	0	34.1650	0	27.119	0	606.517	0	17.1	4	5.4	4	-1E+10	1	-1E+10	1	-1E+10	1	-1E+10	1	-1E+10	1	-1E+10	1
4902551	115	C	10/22/2023	07:05	-130.994	47.042	0	618.00	0	4.1010	0	34.1750	0	27.124	0	611.955	0	16.1	4	5.1	4	-1E+10	1	-1E+10	1	-1E+10	1	-1E+10	1	-1E+10	1	-1E+10	1
4902551	115	C	10/22/2023	07:05	-130.994	47.042	0	623.00	0	4.0950	0	34.1800	0	27.129	0	616.898	0	15.7	4	5.0	4	-1E+10	1	-1E+10	1	-1E+10	1	-1E+10	1	-1E+10	1	-1E+10	1
4902551	115	C	10/22/2023	07:05	-130.994	47.042	0	627.80	0	4.0960	0	34.1830	0	27.131	0	621.644	0	15.4	4	4.9	4	-1E+10	1	-1E+10	1	-1E+10	1	-1E+10	1	-1E+10	1	-1E+10	1
4902551	115	C	10/22/2023	07:05	-130.994	47.042	0	632.70	0	4.0990	0	34.1870	0	27.134	0	626.489	0	15.1	4	4.8	4	-1E+10	1	-1E+10	1	-1E+10	1	-1E+10	1	-1E+10	1	-1E+10	1
4902551	115	C	10/22/2023	07:05	-130.994	47.042	0	637.60	0	4.0910	0	34.1910	0	27.138	0	631.333	0	15.0	4	4.8	4	-1E+10	1	-1E+10	1	-1E+10	1	-1E+10	1	-1E+10	1	-1E+10	1
4902551	115	C	10/22/2023	07:05	-130.994	47.042	0	642.70	0	4.0510	0	34.1920	0	27.143	0	636.375	0	14.9	4	4.7	4	-1E+10	1	-1E+10	1	-1E+10	1	-1E+10	1	-1E+10	1	-1E+10	1
4902551	115	C	10/22/2023	07:05	-130.994	47.042	0	647.80	0	4.0470	0	34.1940	0	27.145	0	641.417	0	14.8	4	4.7	4	-1E+10	1	-1E+10	1	-1E+10	1	-1E+10	1	-1E+10	1	-1E+10	1
4902551	115	C	10/22/2023	07:05	-130.994	47.042	0	653.00	0	4.0350	0	34.1950	0	27.147	0	646.558	0	14.4	4	4.6	4	-1E+10	1	-1E+10	1	-1E+10	1	-1E+10	1	-1E+10	1	-1E+10	1
4902551	115	C	10/22/2023	07:05	-130.994	47.042	0	657.80	0	4.0240	0	34.2010	0	27.153	0	651.303	0	14.1	4	4.5	4	-1E+10	1	-1E+10	1	-1E+10	1	-1E+10	1	-1E+10	1	-1E+10	1
4902551	115	C	10/22/2023	07:05	-130.994	47.042	0	662.70	0	4.0140	0	34.2040	0	27.157	0	656.147	0	13.8	4	4.4	4	-1E+10	1	-1E+10	1	-1E+10	1	-1E+10	1	-1E+10	1	-1E+10	1
4902551	115	C	10/22/2023	07:05	-130.994	47.042	0	668.00	0	4.0100	0	34.2110	0	27.163	0	661.386	0	13.6	4	4.3	4	-1E+10	1	-1E+10	1	-1E+10	1	-1E+10	1	-1E+10	1	-1E+10	1
4902551	115	C	10/22/2023	07:05	-130.994	47.042	0	672.90	0	3.9950	0	34.2140	0	27.167	0	666.230	0	13.5	4	4.3	4	-1E+10	1	-1E+10	1	-1E+10	1	-1E+10	1	-1E+10	1	-1E+10	1
4902551	115	C	10/22/2023	07:05	-130.994	47.042	0	677.80	0	3.9810	0	34.2150	0	27.169	0	671.074	0	13.4	4	4.2	4	-1E+10	1	-1E+10	1	-1E+10	1	-1E+10	1	-1E+10	1	-1E+10	1
4902551	115	C	10/22/2023	07:05	-130.994	47.042	0	682.90	0	3.9730	0	34.2190	0	27.173	0	676.115	0	13.4	4	4.2	4	-1E+10	1	-1E+10	1	-1E+10	1	-1E+10	1	-1E+10	1	-1E+10	1
4902551	115	C	10/22/2023	07:05	-130.994	47.042	0	687.80	0	3.9450	0	34.2220	0	27.178	0	680.958	0	13.4	4	4.2	4	-1E+10	1	-1E+10	1	-1E+10	1	-1E+10	1	-1E+10	1	-1E+10	1
4902551	115	C	10/22/2023	07:05	-130.994	47.042	0	693.10	0	3.9200	0	34.2240	0	27.182	0	686.197	0	13.3	4	4.2	4	-1E+10	1	-1E+10	1	-1E+10	1	-1E+10	1	-1E+10	1	-1E+10	1
4902551	115	C	10/22/2023	07:05	-130.994	47.042	0	698.10	0	3.9100	0	34.2260	0	27.185	0	691.138	0	13.2	4	4.2	4	-1E+10	1	-1E+10	1	-1E+10	1	-1E+10	1	-1E+10	1	-1E+10	1
4902551	115	C	10/22/2023	07:05	-130.994	47.042	0	703.00	0	3.8990	0	34.2290	0	27.188	0	695.981	0	13.1	4	4.1	4	-1E+10	1	-1E+10	1	-1E+10	1	-1E+10	1	-1E+10	1	-1E+10	1
4902551	115	C	10/22/2023	07:05	-130.994	47.042	0	708.10	0	3.8860	0	34.2310	0	27.191	0	701.022	0	12.9	4	4.1	4	-1E+10	1	-1E+10	1	-1E+10	1	-1E+10	1	-1E+10	1	-1E+10	1
4902551	115	C	10/22/2023	07:05	-130.994	47.042	0	712.60	0	3.8560	0	34.2340	0	27.197	0	705.469	0	12.8	4	4.0	4	-1E+10	1	-1E+10	1	-1E+10	1	-1E+10	1	-1E+10	1	-1E+10	1
4902551	115	C	10/22/2023	07:05	-130.994	47.042	0	717.70	0	3.8500	0	34.2380	0	27.201	0	710.510	0	12.3	4	3.9	4	-1E+10	1	-1E+10	1	-1E+10	1	-1E+10	1	-1E+10	1	-1E+10	1
4902551	115	C	10/22/2023	07:05	-130.994	47.042	0	722.80	0	3.8660	0	34.2450	0	27.205	0	715.550	0	12.1	4	3.8	4	-1E+10	1	-1E+10	1	-1E+10	1	-1E+10	1	-1E+10	1	-1E+10	1
4902551	115	C	10/22/2023	07:05	-130.994	47.042	0	727.90	0	3.8550	0	34.2460	0	27.207	0	720.590	0	11.9	4	3.7	4	-1E+10	1	-1E+10	1	-1E+10	1	-1E+10	1	-1E+10	1	-1E+10	1
4902551	115	C	10/22/2023	07:05	-130.994	47.042	0	732.90	0	3.8620	0	34.2520	0	27.211	0	725.531	0	11.8	4	3.7	4	-1E+10	1	-1E+10	1	-1E+10	1	-1E+10	1	-1E+10	1	-1E+10	1
4902551	115	C	10/22/2023	07:05	-130.994	47.042	0	737.90	0	3.8520	0	34.2540	0	27.213	0	730.472	0	11.9	4	3.8	4	-1E+10	1	-1E+10	1	-1E+10	1	-1E+10	1	-1E+10	1	-1E+10	1
4902551	115	C	10/22/2023	07:05	-130.994	47.042	0	742.90	0	3.8210	0	34.2550	0	27.217	0	735.413	0	12.1	4	3.8	4	-1E+10	1	-1E+10	1	-1E+10	1	-1E+10	1	-1E+10	1	-1E+10	1
4902551	115	C	10/22/2023	07:05	-130.994	47.042	0	747.90	0	3.8210	0	34.2590	0	27.220	0	740.354	0	12.4	4	3.9	4	-1E+10	1	-1E+10	1	-1E+10	1	-1E+10	1	-1E+10	1	-1E+10	1
4902551	115	C	10/22/2023	07:05	-130.994	47.042	0	752.90	0	3.7900	0	34.2580	0	27.223	0	745.294	0	13.0	4	4.1	4	-1E+10	1	-1E+10	1	-1E+10	1	-1E+10	1	-1E+10	1	-1E+10	1
4902551	115	C	10/22/2023	07:05	-130.994	47.042	0	757.80	0	3.7120	0	34.2500	0	27.224	0	750.136	0	13.6	4	4.3	4	-1E+10	1	-1E+10	1	-1E+10	1	-1E+10	1	-1E+10	1	-1E+10	1
4902551	115	C	10/22/2023	07:05	-130.994	47.042	0	763.10	0	3.6650	0	34.2500	0	27.229	0	755.373	0	13.5	4	4.2	4	-1E+10	1	-1E+10	1	-1E+10	1	-1E+10	1	-1E+10	1	-1E+10	1
4902551	115	C	10/22/2023	07:05	-130.994	47.042	0	768.10	0	3.6570	0	34.2520	0	27.231	0	760.313	0	13.2	4	4.1	4	-1E+10	1	-1E+10	1	-1E+10	1	-1E+10	1	-1E+10	1	-1E+10	1
4902551	115	C	10/22/2023	07:05	-130.994	47.042	0	772.70	0	3.6530	0	34.2570	0	27.236	0	764.858	0	12.9	4	4.0	4	-1E+10	1	-1E+10	1	-1E+10	1	-1E+10	1	-1E+10	1	-1E+10	1
4902551	115	C	10/22/2023	07:05	-130.994	47.042	0	777.80	0	3.6560	0	34.2630	0	27.240	0	769.897	0	12.6	4	4.0	4	-1E+10	1	-1E+10	1	-1E+10	1	-1E+10	1	-1E+10	1	-1E+10	1
4902551	115	C	10/22/2023	07:05	-130.994	47.042	0	783.00	0	3.6480	0	34.2670	0	27.244	0	775.034	0	12.4	4	3.9	4	-1E+10	1	-1E+10	1	-1E+10	1	-1E+10	1	-1E+10	1	-1E+10	1
4902551	115	C	10/22/2023	07:05	-130.994	47.042	0	787.70	0	3.6690	0	34.2710	0	27.245	0	779.678	0	12.3	4	3.9	4	-1E+10	1	-1E+10	1	-1E+10	1	-1E+10	1	-1E+10	1	-1E+10	1
4902551	115	C	10/22/2023	07:05	-130.994	47.042	0	792.50	0	3.6300	0	34.2710	0	27.249	0	784.420	0	12.4	4	3.9	4	-1E+10	1	-1E+10	1	-1E+10	1	-1E+10	1	-1E+10	1	-1E+10	1
4902551	115	C	10/22/2023	07:05	-130.994	47.042	0	797.90	0	3.6210	0	34.2730	0	27.252	0	789.754	0	12.3	4	3.9	4	-1E+10	1	-1E+10	1	-1E+10	1	-1E+10	1	-1E+10	1	-1E+10	1
4902551	115	C	10/22/2023	07:05	-130.994	47.042	0	803.30	0	3.6100	0	34.2760	0	27.255	0	795.089	0	12.3	4	3.8	4	-1E+10	1	-1E+10	1	-1E+10	1	-1E+10	1	-1E+10	1	-1E+10	1
4902551	115	C	10/22/2023	07:05	-130.994	47.042	0	808.30	0	3.5860	0	34.2770	0	27.258	0	800.028	0	12.2	4	3.8	4	-1E+10	1	-1E+10	1	-1E+10	1	-1E+10	1	-1E+10	1	-1E+10	1
4902551	115	C	10/22/2023	07:05	-130.994	47.042	0	813.10	0	3.5730	0	34.2800	0	27.262	0	804.770	0	12.1	4	3.8	4	-1E+10	1	-1E+10	1	-1E+10	1	-1E+10	1	-1E+10	1	-1E+10	1
4902551	115	C	10/22/2023	07:05	-130.994	47.042	0	817.70	0	3.5650	0	34.2830	0	27.265	0	809.314	0	12.0	4	3.8	4	-1E+10	1	-1E+10	1	-1E+10	1	-1E+10	1	-1E+10	1	-1E+10	1
4902551	115	C	10/22/2023	07:05	-130.994	47.042	0	822.80	0	3.5530	0	34.2860	0	27.269	0	814.352	0	11.9	4	3.7	4	-1E+10	1	-1E+10	1	-1E+10	1	-1E+10	1	-1E+10	1	-1E+10	1
4902551	115	C	10/22/2023	07:05	-130.994	47.042	0	827.90	0	3.5420	0	34.2880	0	27.271	0	819.389	0	11.8	4	3.7	4	-1E+10	1	-1E+10	1	-1E+10	1	-1E+10	1	-1E+10	1	-1E+10	1
4902551	115	C	10/22/2023	07:05	-130.994	47.042	0	833.10	0	3.5370	0	34.2900	0	27.274	0	824.526	0	11.7	4	3.6	4	-1E+10	1	-1E+10	1	-1E+10	1	-1E+10	1	-1E+10	1	-1E+10	1
4902551	115	C	10/22/2023	07:05	-130.994	47.042	0	838.10	0	3.5270	0	34.2920	0	27.276	0	829.464	0	11.4	4	3.6	4	-1E+10	1	-1E+10	1	-1E+10	1	-1E+10	1	-1E+10	1	-1E+10	1
4902551	115	C	10/22/2023	07:05	-130.994	47.042	0	843.10	0	3.5240	0	34.2950	0	27.279	0	834.403	0	11.0	4	3.5	4	-1E+10	1	-1E+10	1	-1E+10	1	-1E+10	1	-1E+10	1	-1E+10	1
4902551	115	C	10/22/2023	07:05	-130.994	47.042	0	848.20	0	3.5430	0	34.3020	0	27.283	0	839.440	0	10.6	4	3.3	4	-1E+10	1	-1E+10	1	-1E+10	1	-1E+10	1	-1E+10	1	-1E+10	1
4902551	115	C	10/22/2023	07:05	-130.994	47.042	0	852.90	0	3.5590	0	34.3080	0	27.286	0	844.082	0	10.3	4	3.2	4	-1E+10	1	-1E+10	1	-1E+10	1	-1E+10	1	-1E+10	1	-1E+10	1
4902551	115	C	10/22/2023	07:05	-130.994	47.042	0	857.90	0	3.5760	0	34.3140	0	27.289	0	849.020	0	10.1	4	3.2	4	-1E+10	1	-1E+10	1	-1E+10	1	-1E+10	1	-1E+10	1	-1E+10	1
4902551	115	C	10/22/2023	07:05	-130.994	47.042	0	862.90	0	3.5720	0	34.3180	0	27.293	0	853.958	0	9.9	4	3.1	4	-1E+10	1	-1E+10	1	-1E+10	1	-1E+10	1	-1E+10	1	-1E+10	1
4902551	115	C	10/22/2023	07:05	-130.994	47.042	0	868.00	0	3.5700	0	34.3220	0	27.296	0	858.995	0	9.7	4	3.0	4	-1E+10	1	-1E+10	1	-1E+10	1	-1E+10	1	-1E+10	1	-1E+10	1
4902551	115	C	10/22/2023	07:05	-130.994	47.042	0	873.30	0	3.5910	0	34.3300	0	27.301	0	864.229	0	9.6	4	3.0	4	-1E+10	1	-1E+10	1	-1E+10	1	-1E+10	1	-1E+10	1	-1E+10	1
4902551	115	C	10/22/2023	07:05	-130.994	47.042	0	877.90	0	3.6020	0	34.3340	0	27.303	0	868.772	0	9.6	4	3.0	4	-1E+10	1	-1E+10	1	-1E+10	1	-1E+10	1	-1E+10	1	-1E+10	1
4902551	115	C	10/22/2023	07:05	-130.994	47.042	0	882.70	0	3.5840	0	34.3350	0	27.305	0	873.512	0	9.7	4	3.0	4	-1E+10	1	-1E+10	1	-1E+10	1	-1E+10	1	-1E+10	1	-1E+10	1
4902551	115	C	10/22/2023	07:05	-130.994	47.042	0	887.90	0	3.5700	0	34.3360	0	27.307	0	878.647	0	9.8	4	3.1	4	-1E+10	1	-1E+10	1	-1E+10	1	-1E+10	1	-1E+10	1	-1E+10	1
4902551	115	C	10/22/2023	07:05	-130.994	47.042	0	893.20	0	3.5530	0	34.3370	0	27.310	0	883.880	0	9.9	4	3.1	4	-1E+10	1	-1E+10	1	-1E+10	1	-1E+10	1	-1E+10	1	-1E+10	1
4902551	115	C	10/22/2023	07:05	-130.994	47.042	0	898.00	0	3.5300	0	34.3350	0	27.311	0	888.620	0	10.1	4	3.1	4	-1E+10	1	-1E+10	1	-1E+10	1	-1E+10	1	-1E+10	1	-1E+10	1
4902551	115	C	10/22/2023	07:05	-130.994	47.042	0	902.80	0	3.4940	0	34.3360	0	27.315	0	893.359	0	10.2	4	3.2	4	-1E+10	1	-1E+10	1	-1E+10	1	-1E+10	1	-1E+10	1	-1E+10	1
4902551	115	C	10/22/2023	07:05	-130.994	47.042	0	907.70	0	3.4700	0	34.3330	0	27.315	0	898.198	0	10.2	4	3.2	4	-1E+10	1	-1E+10	1	-1E+10	1	-1E+10	1	-1E+10	1	-1E+10	1
4902551	115	C	10/22/2023	07:05	-130.994	47.042	0	912.50	0	3.4630	0	34.3340	0	27.316	0	902.937	0	10.1	4	3.2	4	-1E+10	1	-1E+10	1	-1E+10	1	-1E+10	1	-1E+10	1	-1E+10	1
4902551	115	C	10/22/2023	07:05	-130.994	47.042	0	917.90	0	3.4760	0	34.3400	0	27.320	0	908.269	0	10.1	4	3.1	4	-1E+10	1	-1E+10	1	-1E+10	1	-1E+10	1	-1E+10	1	-1E+10	1
4902551	115	C	10/22/2023	07:05	-130.994	47.042	0	923.30	0	3.4750	0	34.3440	0	27.323	0	913.600	0	10.2	4	3.2	4	-1E+10	1	-1E+10	1	-1E+10	1	-1E+10	1	-1E+10	1	-1E+10	1
4902551	115	C	10/22/2023	07:05	-130.994	47.042	0	928.10	0	3.4500	0	34.3410	0	27.323	0	918.339	0	10.3	4	3.2	4	-1E+10	1	-1E+10	1	-1E+10	1	-1E+10	1	-1E+10	1	-1E+10	1
4902551	115	C	10/22/2023	07:05	-130.994	47.042	0	933.00	0	3.4250	0	34.3420	0	27.326	0	923.177	0	10.3	4	3.2	4	-1E+10	1	-1E+10	1	-1E+10	1	-1E+10	1	-1E+10	1	-1E+10	1
4902551	115	C	10/22/2023	07:05	-130.994	47.042	0	937.90	0	3.4120	0	34.3440	0	27.329	0	928.015	0	10.3	4	3.2	4	-1E+10	1	-1E+10	1	-1E+10	1	-1E+10	1	-1E+10	1	-1E+10	1
4902551	115	C	10/22/2023	07:05	-130.994	47.042	0	942.80	0	3.3990	0	34.3450	0	27.331	0	932.852	0	10.3	4	3.2	4	-1E+10	1	-1E+10	1	-1E+10	1	-1E+10	1	-1E+10	1	-1E+10	1
4902551	115	C	10/22/2023	07:05	-130.994	47.042	0	947.70	0	3.3940	0	34.3490	0	27.335	0	937.689	0	10.2	4	3.2	4	-1E+10	1	-1E+10	1	-1E+10	1	-1E+10	1	-1E+10	1	-1E+10	1
4902551	115	C	10/22/2023	07:05	-130.994	47.042	0	952.60	0	3.3940	0	34.3530	0	27.338	0	942.527	0	10.2	4	3.2	4	-1E+10	1	-1E+10	1	-1E+10	1	-1E+10	1	-1E+10	1	-1E+10	1
4902551	115	C	10/22/2023	07:05	-130.994	47.042	0	957.90	0	3.3830	0	34.3540	0	27.340	0	947.759	0	10.3	4	3.2	4	-1E+10	1	-1E+10	1	-1E+10	1	-1E+10	1	-1E+10	1	-1E+10	1
4902551	115	C	10/22/2023	07:05	-130.994	47.042	0	963.30	0	3.3720	0	34.3550	0	27.342	0	953.089	0	10.5	4	3.3	4	-1E+10	1	-1E+10	1	-1E+10	1	-1E+10	1	-1E+10	1	-1E+10	1
4902551	115	C	10/22/2023	07:05	-130.994	47.042	0	968.10	0	3.3390	0	34.3550	0	27.345	0	957.827	0	10.6	4	3.3	4	-1E+10	1	-1E+10	1	-1E+10	1	-1E+10	1	-1E+10	1	-1E+10	1
4902551	115	C	10/22/2023	07:05	-130.994	47.042	0	972.90	0	3.3210	0	34.3550	0	27.347	0	962.565	0	10.6	4	3.3	4	-1E+10	1	-1E+10	1	-1E+10	1	-1E+10	1	-1E+10	1	-1E+10	1
4902551	115	C	10/22/2023	07:05	-130.994	47.042	0	977.70	0	3.3040	0	34.3560	0	27.349	0	967.303	0	10.7	4	3.3	4	-1E+10	1	-1E+10	1	-1E+10	1	-1E+10	1	-1E+10	1	-1E+10	1
4902551	115	C	10/22/2023	07:05	-130.994	47.042	0	982.90	0	3.2930	0	34.3580	0	27.352	0	972.436	0	10.6	4	3.3	4	-1E+10	1	-1E+10	1	-1E+10	1	-1E+10	1	-1E+10	1	-1E+10	1
4902551	115	C	10/22/2023	07:05	-130.994	47.042	0	988.10	0	3.2930	0	34.3610	0	27.354	0	977.568	0	10.6	4	3.3	4	-1E+10	1	-1E+10	1	-1E+10	1	-1E+10	1	-1E+10	1	-1E+10	1
4902551	115	C	10/22/2023	07:05	-130.994	47.042	0	992.90	0	3.2890	0	34.3640	0	27.357	0	982.306	0	10.7	4	3.3	4	-1E+10	1	-1E+10	1	-1E+10	1	-1E+10	1	-1E+10	1	-1E+10	1
4902551	115	C	10/22/2023	07:05	-130.994	47.042	0	997.70	0	3.2740	0	34.3670	0	27.361	0	987.044	0	10.7	4	3.3	4	-1E+10	1	-1E+10	1	-1E+10	1	-1E+10	1	-1E+10	1	-1E+10	1
4902551	115	C	10/22/2023	07:05	-130.994	47.042	0	1005.30	0	3.2600	0	34.3680	0	27.363	0	994.544	0	10.8	4	3.3	4	-1E+10	1	-1E+10	1	-1E+10	1	-1E+10	1	-1E+10	1	-1E+10	1
4902551	115	C	10/22/2023	07:05	-130.994	47.042	0	1015.30	0	3.2300	0	34.3710	0	27.368	0	1004.413	0	10.9	4	3.4	4	-1E+10	1	-1E+10	1	-1E+10	1	-1E+10	1	-1E+10	1	-1E+10	1
4902551	115	C	10/22/2023	07:05	-130.994	47.042	0	1025.00	0	3.1970	0	34.3760	0	27.375	0	1013.986	0	11.0	4	3.4	4	-1E+10	1	-1E+10	1	-1E+10	1	-1E+10	1	-1E+10	1	-1E+10	1
4902551	115	C	10/22/2023	07:05	-130.994	47.042	0	1035.40	0	3.1770	0	34.3800	0	27.381	0	1024.249	0	11.1	4	3.4	4	-1E+10	1	-1E+10	1	-1E+10	1	-1E+10	1	-1E+10	1	-1E+10	1
4902551	115	C	10/22/2023	07:05	-130.994	47.042	0	1045.50	0	3.1620	0	34.3850	0	27.386	0	1034.215	0	11.2	4	3.5	4	-1E+10	1	-1E+10	1	-1E+10	1	-1E+10	1	-1E+10	1	-1E+10	1
4902551	115	C	10/22/2023	07:05	-130.994	47.042	0	1055.20	0	3.1410	0	34.3890	0	27.391	0	1043.786	0	11.3	4	3.5	4	-1E+10	1	-1E+10	1	-1E+10	1	-1E+10	1	-1E+10	1	-1E+10	1
4902551	115	C	10/22/2023	07:05	-130.994	47.042	0	1065.60	0	3.1130	0	34.3930	0	27.397	0	1054.048	0	11.5	4	3.6	4	-1E+10	1	-1E+10	1	-1E+10	1	-1E+10	1	-1E+10	1	-1E+10	1
4902551	115	C	10/22/2023	07:05	-130.994	47.042	0	1075.60	0	3.0860	0	34.3950	0	27.401	0	1063.914	0	11.6	4	3.6	4	-1E+10	1	-1E+10	1	-1E+10	1	-1E+10	1	-1E+10	1	-1E+10	1
4902551	115	C	10/22/2023	07:05	-130.994	47.042	0	1085.50	0	3.0590	0	34.3970	0	27.405	0	1073.681	0	11.8	4	3.6	4	-1E+10	1	-1E+10	1	-1E+10	1	-1E+10	1	-1E+10	1	-1E+10	1
4902551	115	C	10/22/2023	07:05	-130.994	47.042	0	1095.40	0	3.0380	0	34.4000	0	27.410	0	1083.448	0	11.9	4	3.7	4	-1E+10	1	-1E+10	1	-1E+10	1	-1E+10	1	-1E+10	1	-1E+10	1
4902551	115	C	10/22/2023	07:05	-130.994	47.042	0	1105.10	0	3.0110	0	34.4050	0	27.416	0	1093.017	0	12.1	4	3.7	4	-1E+10	1	-1E+10	1	-1E+10	1	-1E+10	1	-1E+10	1	-1E+10	1
4902551	115	C	10/22/2023	07:05	-130.994	47.042	0	1115.40	0	2.9890	0	34.4080	0	27.420	0	1103.177	0	12.3	4	3.8	4	-1E+10	1	-1E+10	1	-1E+10	1	-1E+10	1	-1E+10	1	-1E+10	1
4902551	115	C	10/22/2023	07:05	-130.994	47.042	0	1125.80	0	2.9750	0	34.4120	0	27.425	0	1113.436	0	12.4	4	3.8	4	-1E+10	1	-1E+10	1	-1E+10	1	-1E+10	1	-1E+10	1	-1E+10	1
4902551	115	C	10/22/2023	07:05	-130.994	47.042	0	1135.40	0	2.9600	0	34.4140	0	27.428	0	1122.904	0	12.5	4	3.9	4	-1E+10	1	-1E+10	1	-1E+10	1	-1E+10	1	-1E+10	1	-1E+10	1
4902551	115	C	10/22/2023	07:05	-130.994	47.042	0	1145.10	0	2.9460	0	34.4170	0	27.432	0	1132.471	0	12.7	4	3.9	4	-1E+10	1	-1E+10	1	-1E+10	1	-1E+10	1	-1E+10	1	-1E+10	1
4902551	115	C	10/22/2023	07:05	-130.994	47.042	0	1155.10	0	2.9290	0	34.4190	0	27.435	0	1142.334	0	12.8	4	4.0	4	-1E+10	1	-1E+10	1	-1E+10	1	-1E+10	1	-1E+10	1	-1E+10	1
4902551	115	C	10/22/2023	07:05	-130.994	47.042	0	1165.00	0	2.9090	0	34.4220	0	27.439	0	1152.097	0	13.0	4	4.0	4	-1E+10	1	-1E+10	1	-1E+10	1	-1E+10	1	-1E+10	1	-1E+10	1
4902551	115	C	10/22/2023	07:05	-130.994	47.042	0	1175.00	0	2.8970	0	34.4240	0	27.442	0	1161.959	0	13.1	4	4.0	4	-1E+10	1	-1E+10	1	-1E+10	1	-1E+10	1	-1E+10	1	-1E+10	1
4902551	115	C	10/22/2023	07:05	-130.994	47.042	0	1185.10	0	2.8810	0	34.4270	0	27.446	0	1171.919	0	13.3	4	4.1	4	-1E+10	1	-1E+10	1	-1E+10	1	-1E+10	1	-1E+10	1	-1E+10	1
4902551	115	C	10/22/2023	07:05	-130.994	47.042	0	1195.20	0	2.8710	0	34.4300	0	27.449	0	1181.878	0	13.5	4	4.2	4	-1E+10	1	-1E+10	1	-1E+10	1	-1E+10	1	-1E+10	1	-1E+10	1
4902551	115	C	10/22/2023	07:05	-130.994	47.042	0	1205.50	0	2.8550	0	34.4330	0	27.453	0	1192.034	0	13.8	4	4.3	4	-1E+10	1	-1E+10	1	-1E+10	1	-1E+10	1	-1E+10	1	-1E+10	1
4902551	115	C	10/22/2023	07:05	-130.994	47.042	0	1215.60	0	2.8550	0	34.4370	0	27.456	0	1201.992	0	14.2	4	4.4	4	-1E+10	1	-1E+10	1	-1E+10	1	-1E+10	1	-1E+10	1	-1E+10	1
4902551	115	C	10/22/2023	07:05	-130.994	47.042	0	1225.40	0	2.8390	0	34.4410	0	27.461	0	1211.655	0	14.6	4	4.5	4	-1E+10	1	-1E+10	1	-1E+10	1	-1E+10	1	-1E+10	1	-1E+10	1
4902551	115	C	10/22/2023	07:05	-130.994	47.042	0	1235.40	0	2.8410	0	34.4460	0	27.465	0	1221.513	0	14.9	4	4.6	4	-1E+10	1	-1E+10	1	-1E+10	1	-1E+10	1	-1E+10	1	-1E+10	1
4902551	115	C	10/22/2023	07:05	-130.994	47.042	0	1245.50	0	2.8200	0	34.4480	0	27.468	0	1231.470	0	15.2	4	4.7	4	-1E+10	1	-1E+10	1	-1E+10	1	-1E+10	1	-1E+10	1	-1E+10	1
4902551	115	C	10/22/2023	07:05	-130.994	47.042	0	1255.80	0	2.8130	0	34.4520	0	27.472	0	1241.624	0	15.7	4	4.8	4	-1E+10	1	-1E+10	1	-1E+10	1	-1E+10	1	-1E+10	1	-1E+10	1
4902551	115	C	10/22/2023	07:05	-130.994	47.042	0	1265.40	0	2.7990	0	34.4550	0	27.476	0	1251.087	0	16.2	4	5.0	4	-1E+10	1	-1E+10	1	-1E+10	1	-1E+10	1	-1E+10	1	-1E+10	1
4902551	115	C	10/22/2023	07:05	-130.994	47.042	0	1275.50	0	2.8020	0	34.4610	0	27.480	0	1261.043	0	16.9	4	5.2	4	-1E+10	1	-1E+10	1	-1E+10	1	-1E+10	1	-1E+10	1	-1E+10	1
4902551	115	C	10/22/2023	07:05	-130.994	47.042	0	1285.80	0	2.8040	0	34.4660	0	27.484	0	1271.195	0	17.3	4	5.3	4	-1E+10	1	-1E+10	1	-1E+10	1	-1E+10	1	-1E+10	1	-1E+10	1
4902551	115	C	10/22/2023	07:05	-130.994	47.042	0	1295.50	0	2.8010	0	34.4680	0	27.486	0	1280.755	0	17.7	4	5.4	4	-1E+10	1	-1E+10	1	-1E+10	1	-1E+10	1	-1E+10	1	-1E+10	1
4902551	115	C	10/22/2023	07:05	-130.994	47.042	0	1305.30	0	2.7960	0	34.4700	0	27.488	0	1290.414	0	18.0	4	5.5	4	-1E+10	1	-1E+10	1	-1E+10	1	-1E+10	1	-1E+10	1	-1E+10	1
4902551	115	C	10/22/2023	07:05	-130.994	47.042	0	1315.20	0	2.7780	0	34.4730	0	27.492	0	1300.170	0	18.4	4	5.6	4	-1E+10	1	-1E+10	1	-1E+10	1	-1E+10	1	-1E+10	1	-1E+10	1
4902551	115	C	10/22/2023	07:05	-130.994	47.042	0	1325.20	0	2.7660	0	34.4760	0	27.496	0	1310.025	0	18.6	4	5.7	4	-1E+10	1	-1E+10	1	-1E+10	1	-1E+10	1	-1E+10	1	-1E+10	1
4902551	115	C	10/22/2023	07:05	-130.994	47.042	0	1335.40	0	2.7450	0	34.4760	0	27.498	0	1320.076	0	18.7	4	5.8	4	-1E+10	1	-1E+10	1	-1E+10	1	-1E+10	1	-1E+10	1	-1E+10	1
4902551	115	C	10/22/2023	07:05	-130.994	47.042	0	1345.30	0	2.7090	0	34.4770	0	27.502	0	1329.831	0	18.8	4	5.8	4	-1E+10	1	-1E+10	1	-1E+10	1	-1E+10	1	-1E+10	1	-1E+10	1
4902551	115	C	10/22/2023	07:05	-130.994	47.042	0	1355.40	0	2.6780	0	34.4760	0	27.504	0	1339.783	0	19.2	4	5.9	4	-1E+10	1	-1E+10	1	-1E+10	1	-1E+10	1	-1E+10	1	-1E+10	1
4902551	115	C	10/22/2023	07:05	-130.994	47.042	0	1365.60	0	2.6730	0	34.4800	0	27.507	0	1349.833	0	19.8	4	6.1	4	-1E+10	1	-1E+10	1	-1E+10	1	-1E+10	1	-1E+10	1	-1E+10	1
4902551	115	C	10/22/2023	07:05	-130.994	47.042	0	1375.50	0	2.6600	0	34.4820	0	27.510	0	1359.587	0	20.4	4	6.2	4	-1E+10	1	-1E+10	1	-1E+10	1	-1E+10	1	-1E+10	1	-1E+10	1
4902551	115	C	10/22/2023	07:05	-130.994	47.042	0	1385.60	0	2.6580	0	34.4870	0	27.514	0	1369.537	0	20.9	4	6.4	4	-1E+10	1	-1E+10	1	-1E+10	1	-1E+10	1	-1E+10	1	-1E+10	1
4902551	115	C	10/22/2023	07:05	-130.994	47.042	0	1395.80	0	2.6460	0	34.4890	0	27.517	0	1379.586	0	21.2	4	6.5	4	-1E+10	1	-1E+10	1	-1E+10	1	-1E+10	1	-1E+10	1	-1E+10	1
4902551	115	C	10/22/2023	07:05	-130.994	47.042	0	1405.40	0	2.6260	0	34.4900	0	27.520	0	1389.042	0	21.6	4	6.6	4	-1E+10	1	-1E+10	1	-1E+10	1	-1E+10	1	-1E+10	1	-1E+10	1
4902551	115	C	10/22/2023	07:05	-130.994	47.042	0	1415.10	0	2.6120	0	34.4920	0	27.522	0	1398.597	0	22.1	4	6.7	4	-1E+10	1	-1E+10	1	-1E+10	1	-1E+10	1	-1E+10	1	-1E+10	1
4902551	115	C	10/22/2023	07:05	-130.994	47.042	0	1425.50	0	2.5940	0	34.4940	0	27.526	0	1408.841	0	22.6	4	6.9	4	-1E+10	1	-1E+10	1	-1E+10	1	-1E+10	1	-1E+10	1	-1E+10	1
4902551	115	C	10/22/2023	07:05	-130.994	47.042	0	1435.80	0	2.5780	0	34.4960	0	27.529	0	1418.986	0	23.1	4	7.0	4	-1E+10	1	-1E+10	1	-1E+10	1	-1E+10	1	-1E+10	1	-1E+10	1
4902551	115	C	10/22/2023	07:05	-130.994	47.042	0	1445.40	0	2.5640	0	34.4980	0	27.531	0	1428.442	0	23.8	4	7.3	4	-1E+10	1	-1E+10	1	-1E+10	1	-1E+10	1	-1E+10	1	-1E+10	1
4902551	115	C	10/22/2023	07:05	-130.994	47.042	0	1455.10	0	2.5590	0	34.5020	0	27.535	0	1437.995	0	24.3	4	7.4	4	-1E+10	1	-1E+10	1	-1E+10	1	-1E+10	1	-1E+10	1	-1E+10	1
4902551	115	C	10/22/2023	07:05	-130.994	47.042	0	1465.30	0	2.5440	0	34.5030	0	27.537	0	1448.040	0	24.6	4	7.5	4	-1E+10	1	-1E+10	1	-1E+10	1	-1E+10	1	-1E+10	1	-1E+10	1
4902551	115	C	10/22/2023	07:05	-130.994	47.042	0	1475.30	0	2.5240	0	34.5050	0	27.541	0	1457.888	0	24.8	4	7.6	4	-1E+10	1	-1E+10	1	-1E+10	1	-1E+10	1	-1E+10	1	-1E+10	1
4902551	115	C	10/22/2023	07:05	-130.994	47.042	0	1485.20	0	2.4990	0	34.5050	0	27.543	0	1467.636	0	24.7	4	7.6	4	-1E+10	1	-1E+10	1	-1E+10	1	-1E+10	1	-1E+10	1	-1E+10	1
4902551	115	C	10/22/2023	07:05	-130.994	47.042	0	1495.50	0	2.4490	0	34.5030	0	27.545	0	1477.779	0	25.0	4	7.6	4	-1E+10	1	-1E+10	1	-1E+10	1	-1E+10	1	-1E+10	1	-1E+10	1
4902551	115	C	10/22/2023	07:05	-130.994	47.042	0	1505.70	0	2.4330	0	34.5060	0	27.549	0	1487.822	0	25.7	4	7.8	4	-1E+10	1	-1E+10	1	-1E+10	1	-1E+10	1	-1E+10	1	-1E+10	1
4902551	115	C	10/22/2023	07:05	-130.994	47.042	0	1515.80	0	2.4190	0	34.5080	0	27.552	0	1497.766	0	26.3	4	8.0	4	-1E+10	1	-1E+10	1	-1E+10	1	-1E+10	1	-1E+10	1	-1E+10	1
4902551	115	C	10/22/2023	07:05	-130.994	47.042	0	1525.90	0	2.4040	0	34.5100	0	27.555	0	1507.710	0	27.1	4	8.3	4	-1E+10	1	-1E+10	1	-1E+10	1	-1E+10	1	-1E+10	1	-1E+10	1
4902551	115	C	10/22/2023	07:05	-130.994	47.042	0	1535.40	0	2.3870	0	34.5130	0	27.559	0	1517.063	0	27.8	4	8.4	4	-1E+10	1	-1E+10	1	-1E+10	1	-1E+10	1	-1E+10	1	-1E+10	1
4902551	115	C	10/22/2023	07:05	-130.994	47.042	0	1545.00	0	2.3730	0	34.5150	0	27.561	0	1526.513	0	28.2	4	8.6	4	-1E+10	1	-1E+10	1	-1E+10	1	-1E+10	1	-1E+10	1	-1E+10	1
4902551	115	C	10/22/2023	07:05	-130.994	47.042	0	1555.10	0	2.3610	0	34.5160	0	27.563	0	1536.456	0	28.7	4	8.7	4	-1E+10	1	-1E+10	1	-1E+10	1	-1E+10	1	-1E+10	1	-1E+10	1
4902551	115	C	10/22/2023	07:05	-130.994	47.042	0	1565.10	0	2.3450	0	34.5190	0	27.567	0	1546.299	0	29.4	4	8.9	4	-1E+10	1	-1E+10	1	-1E+10	1	-1E+10	1	-1E+10	1	-1E+10	1
4902551	115	C	10/22/2023	07:05	-130.994	47.042	0	1575.60	0	2.3330	0	34.5210	0	27.570	0	1556.635	0	30.1	4	9.1	4	-1E+10	1	-1E+10	1	-1E+10	1	-1E+10	1	-1E+10	1	-1E+10	1
4902551	115	C	10/22/2023	07:05	-130.994	47.042	0	1585.60	0	2.3180	0	34.5230	0	27.573	0	1566.477	0	30.8	4	9.4	4	-1E+10	1	-1E+10	1	-1E+10	1	-1E+10	1	-1E+10	1	-1E+10	1
4902551	115	C	10/22/2023	07:05	-130.994	47.042	0	1595.30	0	2.3060	0	34.5250	0	27.575	0	1576.024	0	31.4	4	9.5	4	-1E+10	1	-1E+10	1	-1E+10	1	-1E+10	1	-1E+10	1	-1E+10	1
4902551	115	C	10/22/2023	07:05	-130.994	47.042	0	1605.10	0	2.2930	0	34.5270	0	27.578	0	1585.669	0	32.1	4	9.8	4	-1E+10	1	-1E+10	1	-1E+10	1	-1E+10	1	-1E+10	1	-1E+10	1
4902551	115	C	10/22/2023	07:05	-130.994	47.042	0	1615.20	0	2.2770	0	34.5300	0	27.582	0	1595.609	0	33.1	4	10.0	4	-1E+10	1	-1E+10	1	-1E+10	1	-1E+10	1	-1E+10	1	-1E+10	1
4902551	115	C	10/22/2023	07:05	-130.994	47.042	0	1625.30	0	2.2660	0	34.5320	0	27.584	0	1605.548	0	33.9	4	10.3	4	-1E+10	1	-1E+10	1	-1E+10	1	-1E+10	1	-1E+10	1	-1E+10	1
4902551	115	C	10/22/2023	07:05	-130.994	47.042	0	1635.30	0	2.2570	0	34.5350	0	27.587	0	1615.389	0	34.4	4	10.4	4	-1E+10	1	-1E+10	1	-1E+10	1	-1E+10	1	-1E+10	1	-1E+10	1
4902551	115	C	10/22/2023	07:05	-130.994	47.042	0	1645.50	0	2.2460	0	34.5360	0	27.589	0	1625.425	0	34.9	4	10.6	4	-1E+10	1	-1E+10	1	-1E+10	1	-1E+10	1	-1E+10	1	-1E+10	1
4902551	115	C	10/22/2023	07:05	-130.994	47.042	0	1655.40	0	2.2370	0	34.5370	0	27.591	0	1635.166	0	35.6	4	10.8	4	-1E+10	1	-1E+10	1	-1E+10	1	-1E+10	1	-1E+10	1	-1E+10	1
4902551	115	C	10/22/2023	07:05	-130.994	47.042	0	1665.10	0	2.2250	0	34.5390	0	27.593	0	1644.710	0	36.4	4	11.0	4	-1E+10	1	-1E+10	1	-1E+10	1	-1E+10	1	-1E+10	1	-1E+10	1
4902551	115	C	10/22/2023	07:05	-130.994	47.042	0	1674.90	0	2.2100	0	34.5420	0	27.597	0	1654.352	0	37.1	4	11.3	4	-1E+10	1	-1E+10	1	-1E+10	1	-1E+10	1	-1E+10	1	-1E+10	1
4902551	115	C	10/22/2023	07:05	-130.994	47.042	0	1685.00	0	2.1960	0	34.5440	0	27.600	0	1664.288	0	37.5	4	11.4	4	-1E+10	1	-1E+10	1	-1E+10	1	-1E+10	1	-1E+10	1	-1E+10	1
4902551	115	C	10/22/2023	07:05	-130.994	47.042	0	1695.30	0	2.1840	0	34.5440	0	27.601	0	1674.421	0	38.0	4	11.5	4	-1E+10	1	-1E+10	1	-1E+10	1	-1E+10	1	-1E+10	1	-1E+10	1
4902551	115	C	10/22/2023	07:05	-130.994	47.042	0	1705.60	0	2.1740	0	34.5460	0	27.603	0	1684.553	0	38.6	4	11.7	4	-1E+10	1	-1E+10	1	-1E+10	1	-1E+10	1	-1E+10	1	-1E+10	1
4902551	115	C	10/22/2023	07:05	-130.994	47.042	0	1715.30	0	2.1600	0	34.5480	0	27.606	0	1694.095	0	39.2	4	11.9	4	-1E+10	1	-1E+10	1	-1E+10	1	-1E+10	1	-1E+10	1	-1E+10	1
4902551	115	C	10/22/2023	07:05	-130.994	47.042	0	1725.40	0	2.1490	0	34.5490	0	27.608	0	1704.029	0	39.9	4	12.1	4	-1E+10	1	-1E+10	1	-1E+10	1	-1E+10	1	-1E+10	1	-1E+10	1
4902551	115	C	10/22/2023	07:05	-130.994	47.042	0	1735.70	0	2.1400	0	34.5510	0	27.610	0	1714.160	0	40.7	4	12.3	4	-1E+10	1	-1E+10	1	-1E+10	1	-1E+10	1	-1E+10	1	-1E+10	1
4902551	115	C	10/22/2023	07:05	-130.994	47.042	0	1745.70	0	2.1320	0	34.5540	0	27.613	0	1723.996	0	41.7	4	12.6	4	-1E+10	1	-1E+10	1	-1E+10	1	-1E+10	1	-1E+10	1	-1E+10	1
4902551	115	C	10/22/2023	07:05	-130.994	47.042	0	1755.50	0	2.1220	0	34.5560	0	27.616	0	1733.634	0	42.3	4	12.8	4	-1E+10	1	-1E+10	1	-1E+10	1	-1E+10	1	-1E+10	1	-1E+10	1
4902551	115	C	10/22/2023	07:05	-130.994	47.042	0	1765.50	0	2.1190	0	34.5570	0	27.617	0	1743.468	0	42.7	4	12.9	4	-1E+10	1	-1E+10	1	-1E+10	1	-1E+10	1	-1E+10	1	-1E+10	1
4902551	115	C	10/22/2023	07:05	-130.994	47.042	0	1775.50	0	2.1080	0	34.5580	0	27.618	0	1753.302	0	43.0	4	13.0	4	-1E+10	1	-1E+10	1	-1E+10	1	-1E+10	1	-1E+10	1	-1E+10	1
4902551	115	C	10/22/2023	07:05	-130.994	47.042	0	1785.20	0	2.0970	0	34.5590	0	27.620	0	1762.841	0	43.4	4	13.1	4	-1E+10	1	-1E+10	1	-1E+10	1	-1E+10	1	-1E+10	1	-1E+10	1
4902551	115	C	10/22/2023	07:05	-130.994	47.042	0	1795.30	0	2.0920	0	34.5600	0	27.621	0	1772.772	0	44.1	4	13.3	4	-1E+10	1	-1E+10	1	-1E+10	1	-1E+10	1	-1E+10	1	-1E+10	1
4902551	115	C	10/22/2023	07:05	-130.994	47.042	0	1805.50	0	2.0830	0	34.5620	0	27.624	0	1782.801	0	44.6	4	13.5	4	-1E+10	1	-1E+10	1	-1E+10	1	-1E+10	1	-1E+10	1	-1E+10	1
4902551	115	C	10/22/2023	07:05	-130.994	47.042	0	1815.80	0	2.0800	0	34.5620	0	27.624	0	1792.928	0	45.1	4	13.6	4	-1E+10	1	-1E+10	1	-1E+10	1	-1E+10	1	-1E+10	1	-1E+10	1
4902551	115	C	10/22/2023	07:05	-130.994	47.042	0	1825.50	0	2.0730	0	34.5640	0	27.626	0	1802.465	0	45.9	4	13.9	4	-1E+10	1	-1E+10	1	-1E+10	1	-1E+10	1	-1E+10	1	-1E+10	1
4902551	115	C	10/22/2023	07:05	-130.994	47.042	0	1835.20	0	2.0620	0	34.5660	0	27.629	0	1812.001	0	46.6	4	14.1	4	-1E+10	1	-1E+10	1	-1E+10	1	-1E+10	1	-1E+10	1	-1E+10	1
4902551	115	C	10/22/2023	07:05	-130.994	47.042	0	1845.70	0	2.0540	0	34.5680	0	27.631	0	1822.323	0	47.2	4	14.2	4	-1E+10	1	-1E+10	1	-1E+10	1	-1E+10	1	-1E+10	1	-1E+10	1
4902551	115	C	10/22/2023	07:05	-130.994	47.042	0	1855.60	0	2.0460	0	34.5690	0	27.633	0	1832.055	0	47.7	4	14.4	4	-1E+10	1	-1E+10	1	-1E+10	1	-1E+10	1	-1E+10	1	-1E+10	1
4902551	115	C	10/22/2023	07:05	-130.994	47.042	0	1865.60	0	2.0420	0	34.5700	0	27.634	0	1841.885	0	48.1	4	14.5	4	-1E+10	1	-1E+10	1	-1E+10	1	-1E+10	1	-1E+10	1	-1E+10	1
4902551	115	C	10/22/2023	07:05	-130.994	47.042	0	1875.50	0	2.0360	0	34.5710	0	27.635	0	1851.616	0	48.5	4	14.6	4	-1E+10	1	-1E+10	1	-1E+10	1	-1E+10	1	-1E+10	1	-1E+10	1
4902551	115	C	10/22/2023	07:05	-130.994	47.042	0	1885.50	0	2.0330	0	34.5720	0	27.636	0	1861.445	0	48.8	4	14.7	4	-1E+10	1	-1E+10	1	-1E+10	1	-1E+10	1	-1E+10	1	-1E+10	1
4902551	115	C	10/22/2023	07:05	-130.994	47.042	0	1895.50	0	2.0250	0	34.5720	0	27.637	0	1871.274	0	49.2	4	14.8	4	-1E+10	1	-1E+10	1	-1E+10	1	-1E+10	1	-1E+10	1	-1E+10	1
4902551	115	C	10/22/2023	07:05	-130.994	47.042	0	1905.30	0	2.0130	0	34.5730	0	27.639	0	1880.905	0	49.6	4	15.0	4	-1E+10	1	-1E+10	1	-1E+10	1	-1E+10	1	-1E+10	1	-1E+10	1
4902551	115	C	10/22/2023	07:05	-130.994	47.042	0	1915.40	0	2.0070	0	34.5740	0	27.640	0	1890.831	0	50.1	4	15.1	4	-1E+10	1	-1E+10	1	-1E+10	1	-1E+10	1	-1E+10	1	-1E+10	1
4902551	115	C	10/22/2023	07:05	-130.994	47.042	0	1925.80	0	2.0000	0	34.5750	0	27.641	0	1901.051	0	50.7	4	15.3	4	-1E+10	1	-1E+10	1	-1E+10	1	-1E+10	1	-1E+10	1	-1E+10	1
4902551	115	C	10/22/2023	07:05	-130.994	47.042	0	1935.50	0	1.9930	0	34.5760	0	27.643	0	1910.583	0	51.6	4	15.6	4	-1E+10	1	-1E+10	1	-1E+10	1	-1E+10	1	-1E+10	1	-1E+10	1
4902551	115	C	10/22/2023	07:05	-130.994	47.042	0	1945.30	0	1.9820	0	34.5780	0	27.645	0	1920.213	0	52.4	4	15.8	4	-1E+10	1	-1E+10	1	-1E+10	1	-1E+10	1	-1E+10	1	-1E+10	1
4902551	115	C	10/22/2023	07:05	-130.994	47.042	0	1955.30	0	1.9690	0	34.5810	0	27.649	0	1930.039	0	53.4	4	16.1	4	-1E+10	1	-1E+10	1	-1E+10	1	-1E+10	1	-1E+10	1	-1E+10	1
4902551	115	C	10/22/2023	07:05	-130.994	47.042	0	1965.40	0	1.9580	0	34.5830	0	27.651	0	1939.962	0	54.2	4	16.3	4	-1E+10	1	-1E+10	1	-1E+10	1	-1E+10	1	-1E+10	1	-1E+10	1
4902551	115	C	10/22/2023	07:05	-130.994	47.042	0	1975.70	0	1.9470	0	34.5840	0	27.653	0	1950.082	0	54.9	4	16.5	4	-1E+10	1	-1E+10	1	-1E+10	1	-1E+10	1	-1E+10	1	-1E+10	1
4902551	115	C	10/22/2023	07:05	-130.994	47.042	0	1986.00	0	1.9400	0	34.5860	0	27.655	0	1960.201	0	55.2	4	16.6	4	-1E+10	1	-1E+10	1	-1E+10	1	-1E+10	1	-1E+10	1	-1E+10	1
4902551	115	C	10/22/2023	07:05	-130.994	47.042	0	1992.10	0	1.9370	0	34.5860	0	27.655	0	1966.193	0	55.3	4	16.6	4	-1E+10	1	-1E+10	1	-1E+10	1	-1E+10	1	-1E+10	1	-1E+10	1
4902551	115	C	10/22/2023	07:05	-130.994	47.042	0																										
4902551	116	C	11/01/2023	11:58	-130.913	46.938	0	0.20	0	14.3630	0	32.3570	0	24.071	0	0.198	0	245.9	4	96.2	4	-1E+10	1	-1E+10	1	-1E+10	1	-1E+10	1	-1E+10	1	-1E+10	1
4902551	116	C	11/01/2023	11:58	-130.913	46.938	0	0.30	0	14.3700	0	32.3460	0	24.061	0	0.298	0	240.0	4	93.9	4	-1E+10	1	-1E+10	1	-1E+10	1	-1E+10	1	-1E+10	1	-1E+10	1
4902551	116	C	11/01/2023	11:58	-130.913	46.938	0	0.80	0	14.3690	0	32.3410	0	24.057	0	0.793	0	240.0	4	93.9	4	-1E+10	1	-1E+10	1	-1E+10	1	-1E+10	1	-1E+10	1	-1E+10	1
4902551	116	C	11/01/2023	11:58	-130.913	46.938	0	1.80	0	14.3690	0	32.3430	0	24.059	0	1.785	0	240.0	4	93.9	4	-1E+10	1	-1E+10	1	-1E+10	1	-1E+10	1	-1E+10	1	-1E+10	1
4902551	116	C	11/01/2023	11:58	-130.913	46.938	0	2.90	0	14.3710	0	32.3440	0	24.059	0	2.876	0	240.1	4	93.9	4	-1E+10	1	-1E+10	1	-1E+10	1	-1E+10	1	-1E+10	1	-1E+10	1
4902551	116	C	11/01/2023	11:58	-130.913	46.938	0	4.10	0	14.3680	0	32.3470	0	24.062	0	4.066	0	240.1	4	93.9	4	-1E+10	1	-1E+10	1	-1E+10	1	-1E+10	1	-1E+10	1	-1E+10	1
4902551	116	C	11/01/2023	11:58	-130.913	46.938	0	4.90	0	14.3620	0	32.3550	0	24.070	0	4.859	0	240.2	4	94.0	4	-1E+10	1	-1E+10	1	-1E+10	1	-1E+10	1	-1E+10	1	-1E+10	1
4902551	116	C	11/01/2023	11:58	-130.913	46.938	0	6.10	0	14.3400	0	32.3550	0	24.074	0	6.049	0	240.4	4	94.0	4	-1E+10	1	-1E+10	1	-1E+10	1	-1E+10	1	-1E+10	1	-1E+10	1
4902551	116	C	11/01/2023	11:58	-130.913	46.938	0	6.90	0	14.3180	0	32.3560	0	24.080	0	6.843	0	240.6	4	94.1	4	-1E+10	1	-1E+10	1	-1E+10	1	-1E+10	1	-1E+10	1	-1E+10	1
4902551	116	C	11/01/2023	11:58	-130.913	46.938	0	7.90	0	14.2760	0	32.3500	0	24.084	0	7.834	0	240.9	4	94.1	4	-1E+10	1	-1E+10	1	-1E+10	1	-1E+10	1	-1E+10	1	-1E+10	1
4902551	116	C	11/01/2023	11:58	-130.913	46.938	0	8.80	0	14.2250	0	32.3490	0	24.094	0	8.727	0	241.1	4	94.1	4	-1E+10	1	-1E+10	1	-1E+10	1	-1E+10	1	-1E+10	1	-1E+10	1
4902551	116	C	11/01/2023	11:58	-130.913	46.938	0	9.90	0	14.2120	0	32.3450	0	24.093	0	9.818	0	241.1	4	94.1	4	-1E+10	1	-1E+10	1	-1E+10	1	-1E+10	1	-1E+10	1	-1E+10	1
4902551	116	C	11/01/2023	11:58	-130.913	46.938	0	11.30	0	14.2050	0	32.3450	0	24.095	0	11.206	0	241.1	4	94.0	4	-1E+10	1	-1E+10	1	-1E+10	1	-1E+10	1	-1E+10	1	-1E+10	1
4902551	116	C	11/01/2023	11:58	-130.913	46.938	0	12.00	0	14.2040	0	32.3450	0	24.095	0	11.900	0	241.1	4	94.0	4	-1E+10	1	-1E+10	1	-1E+10	1	-1E+10	1	-1E+10	1	-1E+10	1
4902551	116	C	11/01/2023	11:58	-130.913	46.938	0	13.20	0	14.2020	0	32.3450	0	24.096	0	13.090	0	241.1	4	94.0	4	-1E+10	1	-1E+10	1	-1E+10	1	-1E+10	1	-1E+10	1	-1E+10	1
4902551	116	C	11/01/2023	11:58	-130.913	46.938	0	14.10	0	14.2020	0	32.3450	0	24.096	0	13.983	0	241.1	4	94.0	4	-1E+10	1	-1E+10	1	-1E+10	1	-1E+10	1	-1E+10	1	-1E+10	1
4902551	116	C	11/01/2023	11:58	-130.913	46.938	0	14.80	0	14.2010	0	32.3450	0	24.096	0	14.677	0	241.2	4	94.1	4	-1E+10	1	-1E+10	1	-1E+10	1	-1E+10	1	-1E+10	1	-1E+10	1
4902551	116	C	11/01/2023	11:58	-130.913	46.938	0	15.80	0	14.2000	0	32.3450	0	24.096	0	15.668	0	241.2	4	94.1	4	-1E+10	1	-1E+10	1	-1E+10	1	-1E+10	1	-1E+10	1	-1E+10	1
4902551	116	C	11/01/2023	11:58	-130.913	46.938	0	16.80	0	14.1940	0	32.3460	0	24.098	0	16.660	0	241.2	4	94.1	4	-1E+10	1	-1E+10	1	-1E+10	1	-1E+10	1	-1E+10	1	-1E+10	1
4902551	116	C	11/01/2023	11:58	-130.913	46.938	0	17.80	0	14.1930	0	32.3470	0	24.099	0	17.652	0	241.3	4	94.1	4	-1E+10	1	-1E+10	1	-1E+10	1	-1E+10	1	-1E+10	1	-1E+10	1
4902551	116	C	11/01/2023	11:58	-130.913	46.938	0	18.80	0	14.1900	0	32.3470	0	24.100	0	18.643	0	241.2	4	94.0	4	-1E+10	1	-1E+10	1	-1E+10	1	-1E+10	1	-1E+10	1	-1E+10	1
4902551	116	C	11/01/2023	11:58	-130.913	46.938	0	19.90	0	14.1790	0	32.3480	0	24.103	0	19.734	0	241.2	4	94.0	4	-1E+10	1	-1E+10	1	-1E+10	1	-1E+10	1	-1E+10	1	-1E+10	1
4902551	116	C	11/01/2023	11:58	-130.913	46.938	0	21.10	0	14.1670	0	32.3470	0	24.105	0	20.924	0	241.2	4	94.0	4	-1E+10	1	-1E+10	1	-1E+10	1	-1E+10	1	-1E+10	1	-1E+10	1
4902551	116	C	11/01/2023	11:58	-130.913	46.938	0	22.00	0	14.1430	0	32.3400	0	24.104	0	21.816	0	241.2	4	93.9	4	-1E+10	1	-1E+10	1	-1E+10	1	-1E+10	1	-1E+10	1	-1E+10	1
4902551	116	C	11/01/2023	11:58	-130.913	46.938	0	22.90	0	14.1290	0	32.3470	0	24.112	0	22.709	0	241.1	4	93.9	4	-1E+10	1	-1E+10	1	-1E+10	1	-1E+10	1	-1E+10	1	-1E+10	1
4902551	116	C	11/01/2023	11:58	-130.913	46.938	0	24.10	0	14.1120	0	32.3480	0	24.117	0	23.899	0	241.0	4	93.8	4	-1E+10	1	-1E+10	1	-1E+10	1	-1E+10	1	-1E+10	1	-1E+10	1
4902551	116	C	11/01/2023	11:58	-130.913	46.938	0	24.90	0	14.1090	0	32.3480	0	24.117	0	24.692	0	241.0	4	93.8	4	-1E+10	1	-1E+10	1	-1E+10	1	-1E+10	1	-1E+10	1	-1E+10	1
4902551	116	C	11/01/2023	11:58	-130.913	46.938	0	25.80	0	14.1070	0	32.3480	0	24.118	0	25.584	0	240.8	4	93.7	4	-1E+10	1	-1E+10	1	-1E+10	1	-1E+10	1	-1E+10	1	-1E+10	1
4902551	116	C	11/01/2023	11:58	-130.913	46.938	0	27.00	0	14.0990	0	32.3480	0	24.120	0	26.774	0	240.7	4	93.7	4	-1E+10	1	-1E+10	1	-1E+10	1	-1E+10	1	-1E+10	1	-1E+10	1
4902551	116	C	11/01/2023	11:58	-130.913	46.938	0	28.10	0	14.0920	0	32.3470	0	24.120	0	27.865	0	240.5	4	93.6	4	-1E+10	1	-1E+10	1	-1E+10	1	-1E+10	1	-1E+10	1	-1E+10	1
4902551	116	C	11/01/2023	11:58	-130.913	46.938	0	29.00	0	14.0630	0	32.3500	0	24.129	0	28.757	0	240.3	4	93.5	4	-1E+10	1	-1E+10	1	-1E+10	1	-1E+10	1	-1E+10	1	-1E+10	1
4902551	116	C	11/01/2023	11:58	-130.913	46.938	0	29.80	0	14.0360	0	32.3490	0	24.133	0	29.551	0	240.4	4	93.4	4	-1E+10	1	-1E+10	1	-1E+10	1	-1E+10	1	-1E+10	1	-1E+10	1
4902551	116	C	11/01/2023	11:58	-130.913	46.938	0	30.90	0	14.0130	0	32.3500	0	24.139	0	30.641	0	240.4	4	93.4	4	-1E+10	1	-1E+10	1	-1E+10	1	-1E+10	1	-1E+10	1	-1E+10	1
4902551	116	C	11/01/2023	11:58	-130.913	46.938	0	32.00	0	13.9860	0	32.3510	0	24.145	0	31.732	0	240.6	4	93.4	4	-1E+10	1	-1E+10	1	-1E+10	1	-1E+10	1	-1E+10	1	-1E+10	1
4902551	116	C	11/01/2023	11:58	-130.913	46.938	0	33.00	0	13.9740	0	32.3520	0	24.149	0	32.724	0	240.8	4	93.5	4	-1E+10	1	-1E+10	1	-1E+10	1	-1E+10	1	-1E+10	1	-1E+10	1
4902551	116	C	11/01/2023	11:58	-130.913	46.938	0	34.00	0	13.9690	0	32.3530	0	24.150	0	33.715	0	240.8	4	93.5	4	-1E+10	1	-1E+10	1	-1E+10	1	-1E+10	1	-1E+10	1	-1E+10	1
4902551	116	C	11/01/2023	11:58	-130.913	46.938	0	35.00	0	13.9600	0	32.3530	0	24.152	0	34.707	0	241.0	4	93.5	4	-1E+10	1	-1E+10	1	-1E+10	1	-1E+10	1	-1E+10	1	-1E+10	1
4902551	116	C	11/01/2023	11:58	-130.913	46.938	0	35.90	0	13.9460	0	32.3540	0	24.156	0	35.599	0	241.2	4	93.6	4	-1E+10	1	-1E+10	1	-1E+10	1	-1E+10	1	-1E+10	1	-1E+10	1
4902551	116	C	11/01/2023	11:58	-130.913	46.938	0	37.00	0	13.9360	0	32.3550	0	24.159	0	36.690	0	241.6	4	93.7	4	-1E+10	1	-1E+10	1	-1E+10	1	-1E+10	1	-1E+10	1	-1E+10	1
4902551	116	C	11/01/2023	11:58	-130.913	46.938	0	38.10	0	13.9050	0	32.3570	0	24.167	0	37.780	0	242.1	4	93.9	4	-1E+10	1	-1E+10	1	-1E+10	1	-1E+10	1	-1E+10	1	-1E+10	1
4902551	116	C	11/01/2023	11:58	-130.913	46.938	0	38.80	0	13.8560	0	32.3550	0	24.175	0	38.475	0	242.8	4	94.0	4	-1E+10	1	-1E+10	1	-1E+10	1	-1E+10	1	-1E+10	1	-1E+10	1
4902551	116	C	11/01/2023	11:58	-130.913	46.938	0	39.80	0	13.7290	0	32.3460	0	24.194	0	39.466	0	244.1	4	94.3	4	-1E+10	1	-1E+10	1	-1E+10	1	-1E+10	1	-1E+10	1	-1E+10	1
4902551	116	C	11/01/2023	11:58	-130.913	46.938	0	41.10	0	13.6900	0	32.3490	0	24.204	0	40.755	0	245.7	4	94.8	4	-1E+10	1	-1E+10	1	-1E+10	1	-1E+10	1	-1E+10	1	-1E+10	1
4902551	116	C	11/01/2023	11:58	-130.913	46.938	0	42.10	0	13.6540	0	32.3440	0	24.208	0	41.747	0	247.0	4	95.3	4	-1E+10	1	-1E+10	1	-1E+10	1	-1E+10	1	-1E+10	1	-1E+10	1
4902551	116	C	11/01/2023	11:58	-130.913	46.938	0	43.00	0	13.3500	0	32.3500	0	24.273	0	42.639	0	249.5	4	95.6	4	-1E+10	1	-1E+10	1	-1E+10	1	-1E+10	1	-1E+10	1	-1E+10	1
4902551	116	C	11/01/2023	11:58	-130.913	46.938	0	44.00	0	12.9200	0	32.3550	0	24.362	0	43.630	0	251.5	4	95.6	4	-1E+10	1	-1E+10	1	-1E+10	1	-1E+10	1	-1E+10	1	-1E+10	1
4902551	116	C	11/01/2023	11:58	-130.913	46.938	0	45.00	0	12.6430	0	32.3340	0	24.399	0	44.622	0	256.6	4	96.9	4	-1E+10	1	-1E+10	1	-1E+10	1	-1E+10	1	-1E+10	1	-1E+10	1
4902551	116	C	11/01/2023	11:58	-130.913	46.938	0	46.10	0	11.7050	0	32.3410	0	24.581	0	45.713	0	259.5	4	96.1	4	-1E+10	1	-1E+10	1	-1E+10	1	-1E+10	1	-1E+10	1	-1E+10	1
4902551	116	C	11/01/2023	11:58	-130.913	46.938	0	47.00	0	11.3000	0	32.3500	0	24.661	0	46.605	0	261.1	4	95.9	4	-1E+10	1	-1E+10	1	-1E+10	1	-1E+10	1	-1E+10	1	-1E+10	1
4902551	116	C	11/01/2023	11:58	-130.913	46.938	0	48.00	0	11.1880	0	32.3400	0	24.673	0	47.596	0	262.5	4	96.2	4	-1E+10	1	-1E+10	1	-1E+10	1	-1E+10	1	-1E+10	1	-1E+10	1
4902551	116	C	11/01/2023	11:58	-130.913	46.938	0	49.20	0	10.6000	0	32.3570	0	24.789	0	48.786	0	264.6	4	95.8	4	-1E+10	1	-1E+10	1	-1E+10	1	-1E+10	1	-1E+10	1	-1E+10	1
4902551	116	C	11/01/2023	11:58	-130.913	46.938	0	49.80	0	10.5300	0	32.3530	0	24.798	0	49.381	0	265.5	4	96.0	4	-1E+10	1	-1E+10	1	-1E+10	1	-1E+10	1	-1E+10	1	-1E+10	1
4902551	116	C	11/01/2023	11:58	-130.913	46.938	0	51.10	0	10.2290	0	32.3480	0	24.845	0	50.670	0	266.3	4	95.6	4	-1E+10	1	-1E+10	1	-1E+10	1	-1E+10	1	-1E+10	1	-1E+10	1
4902551	116	C	11/01/2023	11:58	-130.913	46.938	0	52.00	0	9.9630	0	32.3520	0	24.892	0	51.562	0	267.2	4	95.4	4	-1E+10	1	-1E+10	1	-1E+10	1	-1E+10	1	-1E+10	1	-1E+10	1
4902551	116	C	11/01/2023	11:58	-130.913	46.938	0	52.90	0	9.7580	0	32.3560	0	24.929	0	52.454	0	267.4	4	95.0	4	-1E+10	1	-1E+10	1	-1E+10	1	-1E+10	1	-1E+10	1	-1E+10	1
4902551	116	C	11/01/2023	11:58	-130.913	46.938	0	54.00	0	9.4260	0	32.3610	0	24.986	0	53.545	0	267.4	4	94.4	4	-1E+10	1	-1E+10	1	-1E+10	1	-1E+10	1	-1E+10	1	-1E+10	1
4902551	116	C	11/01/2023	11:58	-130.913	46.938	0	55.10	0	9.1470	0	32.3790	0	25.045	0	54.636	0	266.1	4	93.4	4	-1E+10	1	-1E+10	1	-1E+10	1	-1E+10	1	-1E+10	1	-1E+10	1
4902551	116	C	11/01/2023	11:58	-130.913	46.938	0	56.10	0	8.8390	0	32.3680	0	25.084	0	55.627	0	265.3	4	92.4	4	-1E+10	1	-1E+10	1	-1E+10	1	-1E+10	1	-1E+10	1	-1E+10	1
4902551	116	C	11/01/2023	11:58	-130.913	46.938	0	56.90	0	8.7730	0	32.3700	0	25.095	0	56.420	0	264.8	4	92.1	4	-1E+10	1	-1E+10	1	-1E+10	1	-1E+10	1	-1E+10	1	-1E+10	1
4902551	116	C	11/01/2023	11:58	-130.913	46.938	0	57.90	0	8.7220	0	32.3730	0	25.106	0	57.412	0	264.0	4	91.7	4	-1E+10	1	-1E+10	1	-1E+10	1	-1E+10	1	-1E+10	1	-1E+10	1
4902551	116	C	11/01/2023	11:58	-130.913	46.938	0	59.10	0	8.7050	0	32.3730	0	25.108	0	58.601	0	262.5	4	91.2	4	-1E+10	1	-1E+10	1	-1E+10	1	-1E+10	1	-1E+10	1	-1E+10	1
4902551	116	C	11/01/2023	11:58	-130.913	46.938	0	60.00	0	8.6220	0	32.3770	0	25.124	0	59.494	0	261.9	4	90.8	4	-1E+10	1	-1E+10	1	-1E+10	1	-1E+10	1	-1E+10	1	-1E+10	1
4902551	116	C	11/01/2023	11:58	-130.913	46.938	0	60.70	0	8.5770	0	32.3790	0	25.132	0	60.188	0	261.8	4	90.7	4	-1E+10	1	-1E+10	1	-1E+10	1	-1E+10	1	-1E+10	1	-1E+10	1
4902551	116	C	11/01/2023	11:58	-130.913	46.938	0	61.90	0	8.4960	0	32.3820	0	25.147	0	61.377	0	261.4	4	90.4	4	-1E+10	1	-1E+10	1	-1E+10	1	-1E+10	1	-1E+10	1	-1E+10	1
4902551	116	C	11/01/2023	11:58	-130.913	46.938	0	63.10	0	8.4220	0	32.3820	0	25.158	0	62.567	0	261.1	4	90.1	4	-1E+10	1	-1E+10	1	-1E+10	1	-1E+10	1	-1E+10	1	-1E+10	1
4902551	116	C	11/01/2023	11:58	-130.913	46.938	0	64.00	0	8.3960	0	32.3850	0	25.164	0	63.459	0	260.8	4	90.0	4	-1E+10	1	-1E+10	1	-1E+10	1	-1E+10	1	-1E+10	1	-1E+10	1
4902551	116	C	11/01/2023	11:58	-130.913	46.938	0	65.10	0	8.3710	0	32.3870	0	25.169	0	64.550	0	260.5	4	89.8	4	-1E+10	1	-1E+10	1	-1E+10	1	-1E+10	1	-1E+10	1	-1E+10	1
4902551	116	C	11/01/2023	11:58	-130.913	46.938	0	65.80	0	8.3500	0	32.3900	0	25.175	0	65.244	0	260.5	4	89.8	4	-1E+10	1	-1E+10	1	-1E+10	1	-1E+10	1	-1E+10	1	-1E+10	1
4902551	116	C	11/01/2023	11:58	-130.913	46.938	0	66.80	0	8.2870	0	32.3930	0	25.186	0	66.235	0	260.6	4	89.7	4	-1E+10	1	-1E+10	1	-1E+10	1	-1E+10	1	-1E+10	1	-1E+10	1
4902551	116	C	11/01/2023	11:58	-130.913	46.938	0	67.90	0	8.1490	0	32.3930	0	25.207	0	67.326	0	260.8	4	89.5	4	-1E+10	1	-1E+10	1	-1E+10	1	-1E+10	1	-1E+10	1	-1E+10	1
4902551	116	C	11/01/2023	11:58	-130.913	46.938	0	69.00	0	8.0300	0	32.3920	0	25.223	0	68.416	0	260.7	4	89.2	4	-1E+10	1	-1E+10	1	-1E+10	1	-1E+10	1	-1E+10	1	-1E+10	1
4902551	116	C	11/01/2023	11:58	-130.913	46.938	0	70.10	0	7.9910	0	32.3890	0	25.226	0	69.507	0	260.2	4	89.0	4	-1E+10	1	-1E+10	1	-1E+10	1	-1E+10	1	-1E+10	1	-1E+10	1
4902551	116	C	11/01/2023	11:58	-130.913	46.938	0	70.80	0	7.9740	0	32.3840	0	25.225	0	70.201	0	259.6	4	88.7	4	-1E+10	1	-1E+10	1	-1E+10	1	-1E+10	1	-1E+10	1	-1E+10	1
4902551	116	C	11/01/2023	11:58	-130.913	46.938	0	72.00	0	7.8930	0	32.3870	0	25.239	0	71.390	0	258.1	4	88.0	4	-1E+10	1	-1E+10	1	-1E+10	1	-1E+10	1	-1E+10	1	-1E+10	1
4902551	116	C	11/01/2023	11:58	-130.913	46.938	0	73.10	0	7.8140	0	32.3960	0	25.257	0	72.481	0	256.7	4	87.4	4	-1E+10	1	-1E+10	1	-1E+10	1	-1E+10	1	-1E+10	1	-1E+10	1
4902551	116	C	11/01/2023	11:58	-130.913	46.938	0	74.00	0	7.7970	0	32.4040	0	25.266	0	73.373	0	256.0	4	87.2	4	-1E+10	1	-1E+10	1	-1E+10	1	-1E+10	1	-1E+10	1	-1E+10	1
4902551	116	C	11/01/2023	11:58	-130.913	46.938	0	75.00	0	7.7780	0	32.4090	0	25.273	0	74.364	0	255.3	4	86.9	4	-1E+10	1	-1E+10	1	-1E+10	1	-1E+10	1	-1E+10	1	-1E+10	1
4902551	116	C	11/01/2023	11:58	-130.913	46.938	0	75.90	0	7.7360	0	32.4170	0	25.285	0	75.257	0	254.7	4	86.6	4	-1E+10	1	-1E+10	1	-1E+10	1	-1E+10	1	-1E+10	1	-1E+10	1
4902551	116	C	11/01/2023	11:58	-130.913	46.938	0	76.90	0	7.7410	0	32.4230	0	25.289	0	76.248	0	254.1	4	86.4	4	-1E+10	1	-1E+10	1	-1E+10	1	-1E+10	1	-1E+10	1	-1E+10	1
4902551	116	C	11/01/2023	11:58	-130.913	46.938	0	77.90	0	7.7340	0	32.4290	0	25.294	0	77.239	0	253.4	4	86.2	4	-1E+10	1	-1E+10	1	-1E+10	1	-1E+10	1	-1E+10	1	-1E+10	1
4902551	116	C	11/01/2023	11:58	-130.913	46.938	0	79.00	0	7.7240	0	32.4330	0	25.299	0	78.330	0	252.5	4	85.8	4	-1E+10	1	-1E+10	1	-1E+10	1	-1E+10	1	-1E+10	1	-1E+10	1
4902551	116	C	11/01/2023	11:58	-130.913	46.938	0	80.10	0	7.7090	0	32.4390	0	25.306	0	79.420	0	251.7	4	85.5	4	-1E+10	1	-1E+10	1	-1E+10	1	-1E+10	1	-1E+10	1	-1E+10	1
4902551	116	C	11/01/2023	11:58	-130.913	46.938	0	81.00	0	7.6940	0	32.4430	0	25.311	0	80.312	0	251.1	4	85.3	4	-1E+10	1	-1E+10	1	-1E+10	1	-1E+10	1	-1E+10	1	-1E+10	1
4902551	116	C	11/01/2023	11:58	-130.913	46.938	0	81.80	0	7.6970	0	32.4470	0	25.314	0	81.105	0	250.4	4	85.1	4	-1E+10	1	-1E+10	1	-1E+10	1	-1E+10	1	-1E+10	1	-1E+10	1
4902551	116	C	11/01/2023	11:58	-130.913	46.938	0	82.90	0	7.6890	0	32.4510	0	25.318	0	82.196	0	255.7	4	86.9	4	-1E+10	1	-1E+10	1	-1E+10	1	-1E+10	1	-1E+10	1	-1E+10	1
4902551	116	C	11/01/2023	11:58	-130.913	46.938	0	84.10	0	7.6800	0	32.4550	0	25.323	0	83.385	0	254.7	4	86.5	4	-1E+10	1	-1E+10	1	-1E+10	1	-1E+10	1	-1E+10	1	-1E+10	1
4902551	116	C	11/01/2023	11:58	-130.913	46.938	0	84.90	0	7.6700	0	32.4620	0	25.330	0	84.178	0	254.0	4	86.3	4	-1E+10	1	-1E+10	1	-1E+10	1	-1E+10	1	-1E+10	1	-1E+10	1
4902551	116	C	11/01/2023	11:58	-130.913	46.938	0	85.80	0	7.6550	0	32.4680	0	25.336	0	85.071	0	253.2	4	86.0	4	-1E+10	1	-1E+10	1	-1E+10	1	-1E+10	1	-1E+10	1	-1E+10	1
4902551	116	C	11/01/2023	11:58	-130.913	46.938	0	87.00	0	7.6440	0	32.4760	0	25.344	0	86.260	0	252.2	4	85.6	4	-1E+10	1	-1E+10	1	-1E+10	1	-1E+10	1	-1E+10	1	-1E+10	1
4902551	116	C	11/01/2023	11:58	-130.913	46.938	0	87.90	0	7.6370	0	32.4840	0	25.351	0	87.152	0	251.4	4	85.3	4	-1E+10	1	-1E+10	1	-1E+10	1	-1E+10	1	-1E+10	1	-1E+10	1
4902551	116	C	11/01/2023	11:58	-130.913	46.938	0	88.80	0	7.6400	0	32.4940	0	25.359	0	88.044	0	250.5	4	85.0	4	-1E+10	1	-1E+10	1	-1E+10	1	-1E+10	1	-1E+10	1	-1E+10	1
4902551	116	C	11/01/2023	11:58	-130.913	46.938	0	89.90	0	7.6370	0	32.5010	0	25.365	0	89.135	0	249.3	4	84.6	4	-1E+10	1	-1E+10	1	-1E+10	1	-1E+10	1	-1E+10	1	-1E+10	1
4902551	116	C	11/01/2023	11:58	-130.913	46.938	0	90.90	0	7.6220	0	32.5040	0	25.369	0	90.126	0	247.7	4	84.1	4	-1E+10	1	-1E+10	1	-1E+10	1	-1E+10	1	-1E+10	1	-1E+10	1
4902551	116	C	11/01/2023	11:58	-130.913	46.938	0	91.90	0	7.5840	0	32.5140	0	25.383	0	91.117	0	245.3	4	83.2	4	-1E+10	1	-1E+10	1	-1E+10	1	-1E+10	1	-1E+10	1	-1E+10	1
4902551	116	C	11/01/2023	11:58	-130.913	46.938	0	92.80	0	7.5670	0	32.5320	0	25.399	0	92.010	0	243.0	4	82.4	4	-1E+10	1	-1E+10	1	-1E+10	1	-1E+10	1	-1E+10	1	-1E+10	1
4902551	116	C	11/01/2023	11:58	-130.913	46.938	0	94.10	0	7.5160	0	32.5580	0	25.427	0	93.298	0	238.9	4	80.9	4	-1E+10	1	-1E+10	1	-1E+10	1	-1E+10	1	-1E+10	1	-1E+10	1
4902551	116	C	11/01/2023	11:58	-130.913	46.938	0	94.90	0	7.5020	0	32.5990	0	25.461	0	94.091	0	234.9	4	79.6	4	-1E+10	1	-1E+10	1	-1E+10	1	-1E+10	1	-1E+10	1	-1E+10	1
4902551	116	C	11/01/2023	11:58	-130.913	46.938	0	95.90	0	7.4940	0	32.6160	0	25.475	0	95.082	0	231.3	4	78.3	4	-1E+10	1	-1E+10	1	-1E+10	1	-1E+10	1	-1E+10	1	-1E+10	1
4902551	116	C	11/01/2023	11:58	-130.913	46.938	0	97.00	0	7.4640	0	32.6520	0	25.508	0	96.173	0	228.1	4	77.2	4	-1E+10	1	-1E+10	1	-1E+10	1	-1E+10	1	-1E+10	1	-1E+10	1
4902551	116	C	11/01/2023	11:58	-130.913	46.938	0	98.20	0	7.4270	0	32.7050	0	25.555	0	97.362	0	225.5	4	76.3	4	-1E+10	1	-1E+10	1	-1E+10	1	-1E+10	1	-1E+10	1	-1E+10	1
4902551	116	C	11/01/2023	11:58	-130.913	46.938	0	98.80	0	7.4290	0	32.7100	0	25.558	0	97.957	0	223.6	4	75.7	4	-1E+10	1	-1E+10	1	-1E+10	1	-1E+10	1	-1E+10	1	-1E+10	1
4902551	116	C	11/01/2023	11:58	-130.913	46.938	0	99.90	0	7.4320	0	32.7200	0	25.566	0	99.047	0	218.5	4	74.0	4	-1E+10	1	-1E+10	1	-1E+10	1	-1E+10	1	-1E+10	1	-1E+10	1
4902551	116	C	11/01/2023	11:58	-130.913	46.938	0	100.90	0	7.4430	0	32.7490	0	25.587	0	100.039	0	211.6	4	71.6	4	-1E+10	1	-1E+10	1	-1E+10	1	-1E+10	1	-1E+10	1	-1E+10	1
4902551	116	C	11/01/2023	11:58	-130.913	46.938	0	101.90	0	7.4850	0	32.7890	0	25.613	0	101.030	0	206.6	4	70.1	4	-1E+10	1	-1E+10	1	-1E+10	1	-1E+10	1	-1E+10	1	-1E+10	1
4902551	116	C	11/01/2023	11:58	-130.913	46.938	0	102.90	0	7.5020	0	32.8140	0	25.630	0	102.021	0	202.2	4	68.6	4	-1E+10	1	-1E+10	1	-1E+10	1	-1E+10	1	-1E+10	1	-1E+10	1
4902551	116	C	11/01/2023	11:58	-130.913	46.938	0	104.00	0	7.5180	0	32.8470	0	25.654	0	103.111	0	197.9	4	67.2	4	-1E+10	1	-1E+10	1	-1E+10	1	-1E+10	1	-1E+10	1	-1E+10	1
4902551	116	C	11/01/2023	11:58	-130.913	46.938	0	104.90	0	7.5100	0	32.9520	0	25.737	0	104.003	0	195.2	4	66.3	4	-1E+10	1	-1E+10	1	-1E+10	1	-1E+10	1	-1E+10	1	-1E+10	1
4902551	116	C	11/01/2023	11:58	-130.913	46.938	0	105.80	0	7.4640	0	32.9930	0	25.776	0	104.896	0	193.4	4	65.6	4	-1E+10	1	-1E+10	1	-1E+10	1	-1E+10	1	-1E+10	1	-1E+10	1
4902551	116	C	11/01/2023	11:58	-130.913	46.938	0	107.10	0	7.4740	0	33.0170	0	25.793	0	106.184	0	190.4	4	64.6	4	-1E+10	1	-1E+10	1	-1E+10	1	-1E+10	1	-1E+10	1	-1E+10	1
4902551	116	C	11/01/2023	11:58	-130.913	46.938	0	108.00	0	7.4790	0	33.0270	0	25.801	0	107.076	0	187.3	4	63.6	4	-1E+10	1	-1E+10	1	-1E+10	1	-1E+10	1	-1E+10	1	-1E+10	1
4902551	116	C	11/01/2023	11:58	-130.913	46.938	0	109.00	0	7.4770	0	33.0440	0	25.814	0	108.067	0	183.0	4	62.1	4	-1E+10	1	-1E+10	1	-1E+10	1	-1E+10	1	-1E+10	1	-1E+10	1
4902551	116	C	11/01/2023	11:58	-130.913	46.938	0	110.00	0	7.4420	0	33.0560	0	25.829	0	109.059	0	178.5	4	60.6	4	-1E+10	1	-1E+10	1	-1E+10	1	-1E+10	1	-1E+10	1	-1E+10	1
4902551	116	C	11/01/2023	11:58	-130.913	46.938	0	111.00	0	7.4890	0	33.0970	0	25.854	0	110.050	0	174.5	4	59.3	4	-1E+10	1	-1E+10	1	-1E+10	1	-1E+10	1	-1E+10	1	-1E+10	1
4902551	116	C	11/01/2023	11:58	-130.913	46.938	0	112.00	0	7.5310	0	33.1470	0	25.888	0	111.041	0	171.2	4	58.3	4	-1E+10	1	-1E+10	1	-1E+10	1	-1E+10	1	-1E+10	1	-1E+10	1
4902551	116	C	11/01/2023	11:58	-130.913	46.938	0	112.70	0	7.5780	0	33.1630	0	25.894	0	111.735	0	168.7	4	57.5	4	-1E+10	1	-1E+10	1	-1E+10	1	-1E+10	1	-1E+10	1	-1E+10	1
4902551	116	C	11/01/2023	11:58	-130.913	46.938	0	113.80	0	7.6760	0	33.2950	0	25.984	0	112.825	0	167.1	4	57.1	4	-1E+10	1	-1E+10	1	-1E+10	1	-1E+10	1	-1E+10	1	-1E+10	1
4902551	116	C	11/01/2023	11:58	-130.913	46.938	0	115.00	0	7.5970	0	33.3480	0	26.036	0	114.014	0	167.2	4	57.1	4	-1E+10	1	-1E+10	1	-1E+10	1	-1E+10	1	-1E+10	1	-1E+10	1
4902551	116	C	11/01/2023	11:58	-130.913	46.938	0	115.80	0	7.5680	0	33.3530	0	26.045	0	114.807	0	167.3	4	57.1	4	-1E+10	1	-1E+10	1	-1E+10	1	-1E+10	1	-1E+10	1	-1E+10	1
4902551	116	C	11/01/2023	11:58	-130.913	46.938	0	117.00	0	7.4200	0	33.3720	0	26.080	0	115.997	0	167.3	4	56.9	4	-1E+10	1	-1E+10	1	-1E+10	1	-1E+10	1	-1E+10	1	-1E+10	1
4902551	116	C	11/01/2023	11:58	-130.913	46.938	0	118.30	0	7.2500	0	33.3830	0	26.113	0	117.285	0	166.5	4	56.4	4	-1E+10	1	-1E+10	1	-1E+10	1	-1E+10	1	-1E+10	1	-1E+10	1
4902551	116	C	11/01/2023	11:58	-130.913	46.938	0	119.20	0	7.1650	0	33.4340	0	26.164	0	118.177	0	165.5	4	56.0	4	-1E+10	1	-1E+10	1	-1E+10	1	-1E+10	1	-1E+10	1	-1E+10	1
4902551	116	C	11/01/2023	11:58	-130.913	46.938	0	120.20	0	7.1560	0	33.4470	0	26.176	0	119.168	0	164.4	4	55.6	4	-1E+10	1	-1E+10	1	-1E+10	1	-1E+10	1	-1E+10	1	-1E+10	1
4902551	116	C	11/01/2023	11:58	-130.913	46.938	0	121.10	0	7.1580	0	33.4600	0	26.186	0	120.060	0	163.6	4	55.3	4	-1E+10	1	-1E+10	1	-1E+10	1	-1E+10	1	-1E+10	1	-1E+10	1
4902551	116	C	11/01/2023	11:58	-130.913	46.938	0	122.10	0	7.1600	0	33.4670	0	26.191	0	121.051	0	162.8	4	55.1	4	-1E+10	1	-1E+10	1	-1E+10	1	-1E+10	1	-1E+10	1	-1E+10	1
4902551	116	C	11/01/2023	11:58	-130.913	46.938	0	123.10	0	7.1620	0	33.4680	0	26.192	0	122.043	0	162.1	4	54.8	4	-1E+10	1	-1E+10	1	-1E+10	1	-1E+10	1	-1E+10	1	-1E+10	1
4902551	116	C	11/01/2023	11:58	-130.913	46.938	0	124.00	0	7.1640	0	33.4700	0	26.193	0	122.935	0	161.2	4	54.5	4	-1E+10	1	-1E+10	1	-1E+10	1	-1E+10	1	-1E+10	1	-1E+10	1
4902551	116	C	11/01/2023	11:58	-130.913	46.938	0	125.00	0	7.1640	0	33.4700	0	26.193	0	123.926	0	160.3	4	54.2	4	-1E+10	1	-1E+10	1	-1E+10	1	-1E+10	1	-1E+10	1	-1E+10	1
4902551	116	C	11/01/2023	11:58	-130.913	46.938	0	126.00	0	7.1660	0	33.4730	0	26.195	0	124.917	0	159.1	4	53.8	4	-1E+10	1	-1E+10	1	-1E+10	1	-1E+10	1	-1E+10	1	-1E+10	1
4902551	116	C	11/01/2023	11:58	-130.913	46.938	0	126.90	0	7.1680	0	33.4750	0	26.196	0	125.809	0	157.7	4	53.3	4	-1E+10	1	-1E+10	1	-1E+10	1	-1E+10	1	-1E+10	1	-1E+10	1
4902551	116	C	11/01/2023	11:58	-130.913	46.938	0	127.90	0	7.1710	0	33.4790	0	26.199	0	126.800	0	156.1	4	52.8	4	-1E+10	1	-1E+10	1	-1E+10	1	-1E+10	1	-1E+10	1	-1E+10	1
4902551	116	C	11/01/2023	11:58	-130.913	46.938	0	128.90	0	7.1700	0	33.4880	0	26.206	0	127.791	0	154.2	4	52.2	4	-1E+10	1	-1E+10	1	-1E+10	1	-1E+10	1	-1E+10	1	-1E+10	1
4902551	116	C	11/01/2023	11:58	-130.913	46.938	0	129.80	0	7.1730	0	33.5110	0	26.224	0	128.683	0	152.3	4	51.5	4	-1E+10	1	-1E+10	1	-1E+10	1	-1E+10	1	-1E+10	1	-1E+10	1
4902551	116	C	11/01/2023	11:58	-130.913	46.938	0	130.90	0	7.1680	0	33.5390	0	26.247	0	129.773	0	150.4	4	50.9	4	-1E+10	1	-1E+10	1	-1E+10	1	-1E+10	1	-1E+10	1	-1E+10	1
4902551	116	C	11/01/2023	11:58	-130.913	46.938	0	131.90	0	7.1670	0	33.5520	0	26.257	0	130.764	0	148.5	4	50.3	4	-1E+10	1	-1E+10	1	-1E+10	1	-1E+10	1	-1E+10	1	-1E+10	1
4902551	116	C	11/01/2023	11:58	-130.913	46.938	0	132.90	0	7.1660	0	33.5560	0	26.261	0	131.755	0	146.6	4	49.6	4	-1E+10	1	-1E+10	1	-1E+10	1	-1E+10	1	-1E+10	1	-1E+10	1
4902551	116	C	11/01/2023	11:58	-130.913	46.938	0	133.90	0	7.1640	0	33.5640	0	26.267	0	132.746	0	144.6	4	48.9	4	-1E+10	1	-1E+10	1	-1E+10	1	-1E+10	1	-1E+10	1	-1E+10	1
4902551	116	C	11/01/2023	11:58	-130.913	46.938	0	135.00	0	7.1650	0	33.5690	0	26.271	0	133.836	0	142.6	4	48.3	4	-1E+10	1	-1E+10	1	-1E+10	1	-1E+10	1	-1E+10	1	-1E+10	1
4902551	116	C	11/01/2023	11:58	-130.913	46.938	0	136.00	0	7.1610	0	33.5830	0	26.283	0	134.828	0	140.8	4	47.6	4	-1E+10	1	-1E+10	1	-1E+10	1	-1E+10	1	-1E+10	1	-1E+10	1
4902551	116	C	11/01/2023	11:58	-130.913	46.938	0	137.00	0	7.1880	0	33.6160	0	26.305	0	135.819	0	139.6	4	47.3	4	-1E+10	1	-1E+10	1	-1E+10	1	-1E+10	1	-1E+10	1	-1E+10	1
4902551	116	C	11/01/2023	11:58	-130.913	46.938	0	138.10	0	7.2060	0	33.6340	0	26.316	0	136.909	0	138.4	4	46.9	4	-1E+10	1	-1E+10	1	-1E+10	1	-1E+10	1	-1E+10	1	-1E+10	1
4902551	116	C	11/01/2023	11:58	-130.913	46.938	0	139.20	0	7.2170	0	33.6560	0	26.332	0	137.999	0	137.4	4	46.6	4	-1E+10	1	-1E+10	1	-1E+10	1	-1E+10	1	-1E+10	1	-1E+10	1
4902551	116	C	11/01/2023	11:58	-130.913	46.938	0	140.20	0	7.2220	0	33.6660	0	26.339	0	138.990	0	136.6	4	46.3	4	-1E+10	1	-1E+10	1	-1E+10	1	-1E+10	1	-1E+10	1	-1E+10	1
4902551	116	C	11/01/2023	11:58	-130.913	46.938	0	141.30	0	7.2260	0	33.6720	0	26.344	0	140.080	0	135.7	4	46.0	4	-1E+10	1	-1E+10	1	-1E+10	1	-1E+10	1	-1E+10	1	-1E+10	1
4902551	116	C	11/01/2023	11:58	-130.913	46.938	0	142.30	0	7.2530	0	33.6810	0	26.347	0	141.071	0	134.9	4	45.8	4	-1E+10	1	-1E+10	1	-1E+10	1	-1E+10	1	-1E+10	1	-1E+10	1
4902551	116	C	11/01/2023	11:58	-130.913	46.938	0	143.40	0	7.2790	0	33.7190	0	26.373	0	142.161	0	134.4	4	45.7	4	-1E+10	1	-1E+10	1	-1E+10	1	-1E+10	1	-1E+10	1	-1E+10	1
4902551	116	C	11/01/2023	11:58	-130.913	46.938	0	144.50	0	7.2810	0	33.7210	0	26.375	0	143.251	0	134.1	4	45.6	4	-1E+10	1	-1E+10	1	-1E+10	1	-1E+10	1	-1E+10	1	-1E+10	1
4902551	116	C	11/01/2023	11:58	-130.913	46.938	0	145.50	0	7.2910	0	33.7270	0	26.378	0	144.242	0	133.7	4	45.4	4	-1E+10	1	-1E+10	1	-1E+10	1	-1E+10	1	-1E+10	1	-1E+10	1
4902551	116	C	11/01/2023	11:58	-130.913	46.938	0	146.60	0	7.2930	0	33.7300	0	26.380	0	145.332	0	133.4	4	45.4	4	-1E+10	1	-1E+10	1	-1E+10	1	-1E+10	1	-1E+10	1	-1E+10	1
4902551	116	C	11/01/2023	11:58	-130.913	46.938	0	147.60	0	7.2920	0	33.7320	0	26.382	0	146.323	0	133.1	4	45.2	4	-1E+10	1	-1E+10	1	-1E+10	1	-1E+10	1	-1E+10	1	-1E+10	1
4902551	116	C	11/01/2023	11:58	-130.913	46.938	0	148.60	0	7.2890	0	33.7330	0	26.383	0	147.314	0	132.6	4	45.1	4	-1E+10	1	-1E+10	1	-1E+10	1	-1E+10	1	-1E+10	1	-1E+10	1
4902551	116	C	11/01/2023	11:58	-130.913	46.938	0	149.70	0	7.3030	0	33.7410	0	26.387	0	148.404	0	132.3	4	45.0	4	-1E+10	1	-1E+10	1	-1E+10	1	-1E+10	1	-1E+10	1	-1E+10	1
4902551	116	C	11/01/2023	11:58	-130.913	46.938	0	150.70	0	7.3330	0	33.7640	0	26.401	0	149.395	0	132.2	4	45.0	4	-1E+10	1	-1E+10	1	-1E+10	1	-1E+10	1	-1E+10	1	-1E+10	1
4902551	116	C	11/01/2023	11:58	-130.913	46.938	0	151.70	0	7.3560	0	33.7730	0	26.405	0	150.386	0	132.2	4	45.0	4	-1E+10	1	-1E+10	1	-1E+10	1	-1E+10	1	-1E+10	1	-1E+10	1
4902551	116	C	11/01/2023	11:58	-130.913	46.938	0	152.80	0	7.3550	0	33.7740	0	26.406	0	151.477	0	132.3	4	45.0	4	-1E+10	1	-1E+10	1	-1E+10	1	-1E+10	1	-1E+10	1	-1E+10	1
4902551	116	C	11/01/2023	11:58	-130.913	46.938	0	153.80	0	7.3070	0	33.7750	0	26.414	0	152.467	0	132.4	4	45.0	4	-1E+10	1	-1E+10	1	-1E+10	1	-1E+10	1	-1E+10	1	-1E+10	1
4902551	116	C	11/01/2023	11:58	-130.913	46.938	0	154.80	0	7.2060	0	33.7710	0	26.425	0	153.458	0	132.5	4	44.9	4	-1E+10	1	-1E+10	1	-1E+10	1	-1E+10	1	-1E+10	1	-1E+10	1
4902551	116	C	11/01/2023	11:58	-130.913	46.938	0	155.80	0	7.1720	0	33.7730	0	26.431	0	154.449	0	132.3	4	44.8	4	-1E+10	1	-1E+10	1	-1E+10	1	-1E+10	1	-1E+10	1	-1E+10	1
4902551	116	C	11/01/2023	11:58	-130.913	46.938	0	156.80	0	7.1510	0	33.7680	0	26.430	0	155.440	0	131.9	4	44.7	4	-1E+10	1	-1E+10	1	-1E+10	1	-1E+10	1	-1E+10	1	-1E+10	1
4902551	116	C	11/01/2023	11:58	-130.913	46.938	0	157.80	0	7.0920	0	33.7640	0	26.435	0	156.431	0	131.4	4	44.5	4	-1E+10	1	-1E+10	1	-1E+10	1	-1E+10	1	-1E+10	1	-1E+10	1
4902551	116	C	11/01/2023	11:58	-130.913	46.938	0	158.80	0	7.1380	0	33.7830	0	26.443	0	157.422	0	130.9	4	44.4	4	-1E+10	1	-1E+10	1	-1E+10	1	-1E+10	1	-1E+10	1	-1E+10	1
4902551	116	C	11/01/2023	11:58	-130.913	46.938	0	159.70	0	7.1520	0	33.7880	0	26.445	0	158.314	0	130.5	4	44.2	4	-1E+10	1	-1E+10	1	-1E+10	1	-1E+10	1	-1E+10	1	-1E+10	1
4902551	116	C	11/01/2023	11:58	-130.913	46.938	0	160.80	0	7.1720	0	33.7960	0	26.449	0	159.404	0	130.1	4	44.1	4	-1E+10	1	-1E+10	1	-1E+10	1	-1E+10	1	-1E+10	1	-1E+10	1
4902551	116	C	11/01/2023	11:58	-130.913	46.938	0	161.90	0	7.1760	0	33.7920	0	26.445	0	160.494	0	129.8	4	44.0	4	-1E+10	1	-1E+10	1	-1E+10	1	-1E+10	1	-1E+10	1	-1E+10	1
4902551	116	C	11/01/2023	11:58	-130.913	46.938	0	163.10	0	7.1760	0	33.7940	0	26.447	0	161.683	0	129.4	4	43.9	4	-1E+10	1	-1E+10	1	-1E+10	1	-1E+10	1	-1E+10	1	-1E+10	1
4902551	116	C	11/01/2023	11:58	-130.913	46.938	0	163.80	0	7.1750	0	33.8030	0	26.454	0	162.377	0	129.1	4	43.8	4	-1E+10	1	-1E+10	1	-1E+10	1	-1E+10	1	-1E+10	1	-1E+10	1
4902551	116	C	11/01/2023	11:58	-130.913	46.938	0	164.90	0	7.1760	0	33.8030	0	26.454	0	163.467	0	128.7	4	43.6	4	-1E+10	1	-1E+10	1	-1E+10	1	-1E+10	1	-1E+10	1	-1E+10	1
4902551	116	C	11/01/2023	11:58	-130.913	46.938	0	166.10	0	7.1790	0	33.8060	0	26.456	0	164.656	0	128.2	4	43.5	4	-1E+10	1	-1E+10	1	-1E+10	1	-1E+10	1	-1E+10	1	-1E+10	1
4902551	116	C	11/01/2023	11:58	-130.913	46.938	0	166.90	0	7.1670	0	33.8090	0	26.460	0	165.449	0	128.0	4	43.4	4	-1E+10	1	-1E+10	1	-1E+10	1	-1E+10	1	-1E+10	1	-1E+10	1
4902551	116	C	11/01/2023	11:58	-130.913	46.938	0	167.70	0	7.1550	0	33.8110	0	26.463	0	166.241	0	127.8	4	43.3	4	-1E+10	1	-1E+10	1	-1E+10	1	-1E+10	1	-1E+10	1	-1E+10	1
4902551	116	C	11/01/2023	11:58	-130.913	46.938	0	168.90	0	7.1470	0	33.8120	0	26.465	0	167.431	0	127.3	4	43.2	4	-1E+10	1	-1E+10	1	-1E+10	1	-1E+10	1	-1E+10	1	-1E+10	1
4902551	116	C	11/01/2023	11:58	-130.913	46.938	0	170.20	0	7.1430	0	33.8130	0	26.467	0	168.719	0	126.9	4	43.0	4	-1E+10	1	-1E+10	1	-1E+10	1	-1E+10	1	-1E+10	1	-1E+10	1
4902551	116	C	11/01/2023	11:58	-130.913	46.938	0	171.00	0	7.1440	0	33.8140	0	26.467	0	169.511	0	126.5	4	42.9	4	-1E+10	1	-1E+10	1	-1E+10	1	-1E+10	1	-1E+10	1	-1E+10	1
4902551	116	C	11/01/2023	11:58	-130.913	46.938	0	171.80	0	7.1420	0	33.8160	0	26.469	0	170.304	0	126.0	4	42.7	4	-1E+10	1	-1E+10	1	-1E+10	1	-1E+10	1	-1E+10	1	-1E+10	1
4902551	116	C	11/01/2023	11:58	-130.913	46.938	0	173.00	0	7.1380	0	33.8170	0	26.470	0	171.493	0	125.5	4	42.5	4	-1E+10	1	-1E+10	1	-1E+10	1	-1E+10	1	-1E+10	1	-1E+10	1
4902551	116	C	11/01/2023	11:58	-130.913	46.938	0	174.20	0	7.1150	0	33.8230	0	26.478	0	172.682	0	125.0	4	42.3	4	-1E+10	1	-1E+10	1	-1E+10	1	-1E+10	1	-1E+10	1	-1E+10	1
4902551	116	C	11/01/2023	11:58	-130.913	46.938	0	175.00	0	7.1250	0	33.8310	0	26.483	0	173.475	0	124.7	4	42.2	4	-1E+10	1	-1E+10	1	-1E+10	1	-1E+10	1	-1E+10	1	-1E+10	1
4902551	116	C	11/01/2023	11:58	-130.913	46.938	0	175.90	0	7.1170	0	33.8330	0	26.486	0	174.367	0	124.5	4	42.2	4	-1E+10	1	-1E+10	1	-1E+10	1	-1E+10	1	-1E+10	1	-1E+10	1
4902551	116	C	11/01/2023	11:58	-130.913	46.938	0	176.70	0	7.1140	0	33.8360	0	26.489	0	175.159	0	124.3	4	42.1	4	-1E+10	1	-1E+10	1	-1E+10	1	-1E+10	1	-1E+10	1	-1E+10	1
4902551	116	C	11/01/2023	11:58	-130.913	46.938	0	177.60	0	7.1110	0	33.8390	0	26.491	0	176.051	0	124.1	4	42.0	4	-1E+10	1	-1E+10	1	-1E+10	1	-1E+10	1	-1E+10	1	-1E+10	1
4902551	116	C	11/01/2023	11:58	-130.913	46.938	0	178.90	0	7.1070	0	33.8440	0	26.496	0	177.339	0	124.0	4	42.0	4	-1E+10	1	-1E+10	1	-1E+10	1	-1E+10	1	-1E+10	1	-1E+10	1
4902551	116	C	11/01/2023	11:58	-130.913	46.938	0	180.30	0	7.1080	0	33.8450	0	26.497	0	178.726	0	124.0	4	42.0	4	-1E+10	1	-1E+10	1	-1E+10	1	-1E+10	1	-1E+10	1	-1E+10	1
4902551	116	C	11/01/2023	11:58	-130.913	46.938	0	181.20	0	7.1050	0	33.8450	0	26.497	0	179.618	0	124.0	4	42.0	4	-1E+10	1	-1E+10	1	-1E+10	1	-1E+10	1	-1E+10	1	-1E+10	1
4902551	116	C	11/01/2023	11:58	-130.913	46.938	0	182.10	0	7.1040	0	33.8450	0	26.497	0	180.510	0	124.0	4	42.0	4	-1E+10	1	-1E+10	1	-1E+10	1	-1E+10	1	-1E+10	1	-1E+10	1
4902551	116	C	11/01/2023	11:58	-130.913	46.938	0	183.00	0	7.1010	0	33.8460	0	26.498	0	181.402	0	124.0	4	42.0	4	-1E+10	1	-1E+10	1	-1E+10	1	-1E+10	1	-1E+10	1	-1E+10	1
4902551	116	C	11/01/2023	11:58	-130.913	46.938	0	183.90	0	7.0940	0	33.8480	0	26.501	0	182.293	0	124.2	4	42.1	4	-1E+10	1	-1E+10	1	-1E+10	1	-1E+10	1	-1E+10	1	-1E+10	1
4902551	116	C	11/01/2023	11:58	-130.913	46.938	0	184.90	0	7.0960	0	33.8480	0	26.501	0	183.284	0	124.4	4	42.1	4	-1E+10	1	-1E+10	1	-1E+10	1	-1E+10	1	-1E+10	1	-1E+10	1
4902551	116	C	11/01/2023	11:58	-130.913	46.938	0	185.80	0	7.0630	0	33.8500	0	26.507	0	184.176	0	124.6	4	42.2	4	-1E+10	1	-1E+10	1	-1E+10	1	-1E+10	1	-1E+10	1	-1E+10	1
4902551	116	C	11/01/2023	11:58	-130.913	46.938	0	186.70	0	6.9790	0	33.8510	0	26.519	0	185.068	0	124.9	4	42.2	4	-1E+10	1	-1E+10	1	-1E+10	1	-1E+10	1	-1E+10	1	-1E+10	1
4902551	116	C	11/01/2023	11:58	-130.913	46.938	0	187.70	0	6.9090	0	33.8410	0	26.521	0	186.059	0	124.9	4	42.1	4	-1E+10	1	-1E+10	1	-1E+10	1	-1E+10	1	-1E+10	1	-1E+10	1
4902551	116	C	11/01/2023	11:58	-130.913	46.938	0	188.60	0	6.8980	0	33.8370	0	26.519	0	186.950	0	124.9	4	42.1	4	-1E+10	1	-1E+10	1	-1E+10	1	-1E+10	1	-1E+10	1	-1E+10	1
4902551	116	C	11/01/2023	11:58	-130.913	46.938	0	189.60	0	6.8880	0	33.8380	0	26.521	0	187.941	0	124.8	4	42.1	4	-1E+10	1	-1E+10	1	-1E+10	1	-1E+10	1	-1E+10	1	-1E+10	1
4902551	116	C	11/01/2023	11:58	-130.913	46.938	0	190.60	0	6.8700	0	33.8410	0	26.526	0	188.932	0	124.7	4	42.0	4	-1E+10	1	-1E+10	1	-1E+10	1	-1E+10	1	-1E+10	1	-1E+10	1
4902551	116	C	11/01/2023	11:58	-130.913	46.938	0	191.50	0	6.8590	0	33.8380	0	26.525	0	189.824	0	124.7	4	42.0	4	-1E+10	1	-1E+10	1	-1E+10	1	-1E+10	1	-1E+10	1	-1E+10	1
4902551	116	C	11/01/2023	11:58	-130.913	46.938	0	192.90	0	6.8430	0	33.8350	0	26.525	0	191.211	0	124.5	4	41.9	4	-1E+10	1	-1E+10	1	-1E+10	1	-1E+10	1	-1E+10	1	-1E+10	1
4902551	116	C	11/01/2023	11:58	-130.913	46.938	0	194.40	0	6.8390	0	33.8350	0	26.526	0	192.697	0	124.2	4	41.8	4	-1E+10	1	-1E+10	1	-1E+10	1	-1E+10	1	-1E+10	1	-1E+10	1
4902551	116	C	11/01/2023	11:58	-130.913	46.938	0	195.40	0	6.8500	0	33.8380	0	26.526	0	193.688	0	124.0	4	41.7	4	-1E+10	1	-1E+10	1	-1E+10	1	-1E+10	1	-1E+10	1	-1E+10	1
4902551	116	C	11/01/2023	11:58	-130.913	46.938	0	196.40	0	6.8490	0	33.8390	0	26.527	0	194.678	0	123.8	4	41.7	4	-1E+10	1	-1E+10	1	-1E+10	1	-1E+10	1	-1E+10	1	-1E+10	1
4902551	116	C	11/01/2023	11:58	-130.913	46.938	0	197.40	0	6.8500	0	33.8400	0	26.528	0	195.669	0	123.6	4	41.6	4	-1E+10	1	-1E+10	1	-1E+10	1	-1E+10	1	-1E+10	1	-1E+10	1
4902551	116	C	11/01/2023	11:58	-130.913	46.938	0	198.40	0	6.8530	0	33.8390	0	26.527	0	196.660	0	123.4	4	41.6	4	-1E+10	1	-1E+10	1	-1E+10	1	-1E+10	1	-1E+10	1	-1E+10	1
4902551	116	C	11/01/2023	11:58	-130.913	46.938	0	199.50	0	6.8600	0	33.8450	0	26.531	0	197.750	0	123.2	4	41.5	4	-1E+10	1	-1E+10	1	-1E+10	1	-1E+10	1	-1E+10	1	-1E+10	1
4902551	116	C	11/01/2023	11:58	-130.913	46.938	0	200.50	0	6.8590	0	33.8440	0	26.530	0	198.740	0	123.0	4	41.4	4	-1E+10	1	-1E+10	1	-1E+10	1	-1E+10	1	-1E+10	1	-1E+10	1
4902551	116	C	11/01/2023	11:58	-130.913	46.938	0	201.60	0	6.8610	0	33.8460	0	26.531	0	199.830	0	122.8	4	41.4	4	-1E+10	1	-1E+10	1	-1E+10	1	-1E+10	1	-1E+10	1	-1E+10	1
4902551	116	C	11/01/2023	11:58	-130.913	46.938	0	202.60	0	6.8370	0	33.8440	0	26.533	0	200.821	0	122.6	4	41.3	4	-1E+10	1	-1E+10	1	-1E+10	1	-1E+10	1	-1E+10	1	-1E+10	1
4902551	116	C	11/01/2023	11:58	-130.913	46.938	0	203.70	0	6.8070	0	33.8430	0	26.536	0	201.911	0	122.3	4	41.1	4	-1E+10	1	-1E+10	1	-1E+10	1	-1E+10	1	-1E+10	1	-1E+10	1
4902551	116	C	11/01/2023	11:58	-130.913	46.938	0	204.70	0	6.8190	0	33.8410	0	26.533	0	202.901	0	122.1	4	41.1	4	-1E+10	1	-1E+10	1	-1E+10	1	-1E+10	1	-1E+10	1	-1E+10	1
4902551	116	C	11/01/2023	11:58	-130.913	46.938	0	205.80	0	6.8050	0	33.8480	0	26.540	0	203.991	0	121.9	4	41.0	4	-1E+10	1	-1E+10	1	-1E+10	1	-1E+10	1	-1E+10	1	-1E+10	1
4902551	116	C	11/01/2023	11:58	-130.913	46.938	0	206.80	0	6.8020	0	33.8460	0	26.539	0	204.982	0	121.6	4	40.9	4	-1E+10	1	-1E+10	1	-1E+10	1	-1E+10	1	-1E+10	1	-1E+10	1
4902551	116	C	11/01/2023	11:58	-130.913	46.938	0	207.90	0	6.7930	0	33.8500	0	26.544	0	206.072	0	121.3	4	40.8	4	-1E+10	1	-1E+10	1	-1E+10	1	-1E+10	1	-1E+10	1	-1E+10	1
4902551	116	C	11/01/2023	11:58	-130.913	46.938	0	208.90	0	6.7830	0	33.8510	0	26.546	0	207.062	0	121.1	4	40.7	4	-1E+10	1	-1E+10	1	-1E+10	1	-1E+10	1	-1E+10	1	-1E+10	1
4902551	116	C	11/01/2023	11:58	-130.913	46.938	0	209.90	0	6.7700	0	33.8510	0	26.548	0	208.053	0	120.9	4	40.7	4	-1E+10	1	-1E+10	1	-1E+10	1	-1E+10	1	-1E+10	1	-1E+10	1
4902551	116	C	11/01/2023	11:58	-130.913	46.938	0	211.00	0	6.7370	0	33.8530	0	26.554	0	209.143	0	120.8	4	40.6	4	-1E+10	1	-1E+10	1	-1E+10	1	-1E+10	1	-1E+10	1	-1E+10	1
4902551	116	C	11/01/2023	11:58	-130.913	46.938	0	212.10	0	6.7220	0	33.8510	0	26.554	0	210.233	0	120.6	4	40.5	4	-1E+10	1	-1E+10	1	-1E+10	1	-1E+10	1	-1E+10	1	-1E+10	1
4902551	116	C	11/01/2023	11:58	-130.913	46.938	0	213.10	0	6.7140	0	33.8510	0	26.555	0	211.223	0	120.4	4	40.4	4	-1E+10	1	-1E+10	1	-1E+10	1	-1E+10	1	-1E+10	1	-1E+10	1
4902551	116	C	11/01/2023	11:58	-130.913	46.938	0	214.20	0	6.7060	0	33.8510	0	26.556	0	212.313	0	120.1	4	40.3	4	-1E+10	1	-1E+10	1	-1E+10	1	-1E+10	1	-1E+10	1	-1E+10	1
4902551	116	C	11/01/2023	11:58	-130.913	46.938	0	215.20	0	6.7050	0	33.8520	0	26.557	0	213.304	0	119.9	4	40.3	4	-1E+10	1	-1E+10	1	-1E+10	1	-1E+10	1	-1E+10	1	-1E+10	1
4902551	116	C	11/01/2023	11:58	-130.913	46.938	0	216.20	0	6.6980	0	33.8520	0	26.558	0	214.295	0	119.6	4	40.1	4	-1E+10	1	-1E+10	1	-1E+10	1	-1E+10	1	-1E+10	1	-1E+10	1
4902551	116	C	11/01/2023	11:58	-130.913	46.938	0	217.30	0	6.6860	0	33.8510	0	26.559	0	215.384	0	119.4	4	40.0	4	-1E+10	1	-1E+10	1	-1E+10	1	-1E+10	1	-1E+10	1	-1E+10	1
4902551	116	C	11/01/2023	11:58	-130.913	46.938	0	218.30	0	6.6690	0	33.8530	0	26.563	0	216.375	0	118.9	4	39.9	4	-1E+10	1	-1E+10	1	-1E+10	1	-1E+10	1	-1E+10	1	-1E+10	1
4902551	116	C	11/01/2023	11:58	-130.913	46.938	0	219.30	0	6.6480	0	33.8490	0	26.562	0	217.366	0	118.6	4	39.8	4	-1E+10	1	-1E+10	1	-1E+10	1	-1E+10	1	-1E+10	1	-1E+10	1
4902551	116	C	11/01/2023	11:58	-130.913	46.938	0	220.40	0	6.6300	0	33.8500	0	26.565	0	218.455	0	118.3	4	39.6	4	-1E+10	1	-1E+10	1	-1E+10	1	-1E+10	1	-1E+10	1	-1E+10	1
4902551	116	C	11/01/2023	11:58	-130.913	46.938	0	221.40	0	6.5910	0	33.8620	0	26.580	0	219.446	0	118.0	4	39.5	4	-1E+10	1	-1E+10	1	-1E+10	1	-1E+10	1	-1E+10	1	-1E+10	1
4902551	116	C	11/01/2023	11:58	-130.913	46.938	0	222.40	0	6.5750	0	33.8470	0	26.570	0	220.437	0	117.9	4	39.5	4	-1E+10	1	-1E+10	1	-1E+10	1	-1E+10	1	-1E+10	1	-1E+10	1
4902551	116	C	11/01/2023	11:58	-130.913	46.938	0	223.50	0	6.5590	0	33.8460	0	26.572	0	221.526	0	117.8	4	39.4	4	-1E+10	1	-1E+10	1	-1E+10	1	-1E+10	1	-1E+10	1	-1E+10	1
4902551	116	C	11/01/2023	11:58	-130.913	46.938	0	224.50	0	6.5300	0	33.8420	0	26.572	0	222.517	0	117.6	4	39.3	4	-1E+10	1	-1E+10	1	-1E+10	1	-1E+10	1	-1E+10	1	-1E+10	1
4902551	116	C	11/01/2023	11:58	-130.913	46.938	0	225.60	0	6.5300	0	33.8440	0	26.574	0	223.607	0	117.5	4	39.3	4	-1E+10	1	-1E+10	1	-1E+10	1	-1E+10	1	-1E+10	1	-1E+10	1
4902551	116	C	11/01/2023	11:58	-130.913	46.938	0	226.60	0	6.5140	0	33.8470	0	26.578	0	224.597	0	117.4	4	39.2	4	-1E+10	1	-1E+10	1	-1E+10	1	-1E+10	1	-1E+10	1	-1E+10	1
4902551	116	C	11/01/2023	11:58	-130.913	46.938	0	227.70	0	6.5380	0	33.8480	0	26.576	0	225.687	0	117.3	4	39.2	4	-1E+10	1	-1E+10	1	-1E+10	1	-1E+10	1	-1E+10	1	-1E+10	1
4902551	116	C	11/01/2023	11:58	-130.913	46.938	0	228.70	0	6.5460	0	33.8540	0	26.580	0	226.677	0	117.2	4	39.2	4	-1E+10	1	-1E+10	1	-1E+10	1	-1E+10	1	-1E+10	1	-1E+10	1
4902551	116	C	11/01/2023	11:58	-130.913	46.938	0	229.70	0	6.5580	0	33.8540	0	26.578	0	227.668	0	117.2	4	39.2	4	-1E+10	1	-1E+10	1	-1E+10	1	-1E+10	1	-1E+10	1	-1E+10	1
4902551	116	C	11/01/2023	11:58	-130.913	46.938	0	230.70	0	6.5670	0	33.8530	0	26.576	0	228.659	0	117.3	4	39.3	4	-1E+10	1	-1E+10	1	-1E+10	1	-1E+10	1	-1E+10	1	-1E+10	1
4902551	116	C	11/01/2023	11:58	-130.913	46.938	0	231.80	0	6.5380	0	33.8520	0	26.579	0	229.748	0	117.3	4	39.2	4	-1E+10	1	-1E+10	1	-1E+10	1	-1E+10	1	-1E+10	1	-1E+10	1
4902551	116	C	11/01/2023	11:58	-130.913	46.938	0	232.80	0	6.4760	0	33.8530	0	26.588	0	230.739	0	117.4	4	39.2	4	-1E+10	1	-1E+10	1	-1E+10	1	-1E+10	1	-1E+10	1	-1E+10	1
4902551	116	C	11/01/2023	11:58	-130.913	46.938	0	233.80	0	6.4460	0	33.8460	0	26.587	0	231.730	0	117.4	4	39.2	4	-1E+10	1	-1E+10	1	-1E+10	1	-1E+10	1	-1E+10	1	-1E+10	1
4902551	116	C	11/01/2023	11:58	-130.913	46.938	0	234.90	0	6.4280	0	33.8450	0	26.588	0	232.819	0	117.4	4	39.2	4	-1E+10	1	-1E+10	1	-1E+10	1	-1E+10	1	-1E+10	1	-1E+10	1
4902551	116	C	11/01/2023	11:58	-130.913	46.938	0	235.90	0	6.4080	0	33.8460	0	26.592	0	233.810	0	117.5	4	39.2	4	-1E+10	1	-1E+10	1	-1E+10	1	-1E+10	1	-1E+10	1	-1E+10	1
4902551	116	C	11/01/2023	11:58	-130.913	46.938	0	236.90	0	6.3960	0	33.8470	0	26.594	0	234.800	0	117.5	4	39.2	4	-1E+10	1	-1E+10	1	-1E+10	1	-1E+10	1	-1E+10	1	-1E+10	1
4902551	116	C	11/01/2023	11:58	-130.913	46.938	0	237.90	0	6.3660	0	33.8490	0	26.599	0	235.791	0	117.8	4	39.2	4	-1E+10	1	-1E+10	1	-1E+10	1	-1E+10	1	-1E+10	1	-1E+10	1
4902551	116	C	11/01/2023	11:58	-130.913	46.938	0	239.00	0	6.2710	0	33.8450	0	26.608	0	236.881	0	117.7	4	39.1	4	-1E+10	1	-1E+10	1	-1E+10	1	-1E+10	1	-1E+10	1	-1E+10	1
4902551	116	C	11/01/2023	11:58	-130.913	46.938	0	240.00	0	6.2290	0	33.8320	0	26.604	0	237.871	0	117.5	4	39.0	4	-1E+10	1	-1E+10	1	-1E+10	1	-1E+10	1	-1E+10	1	-1E+10	1
4902551	116	C	11/01/2023	11:58	-130.913	46.938	0	241.00	0	6.2260	0	33.8330	0	26.605	0	238.862	0	117.1	4	38.9	4	-1E+10	1	-1E+10	1	-1E+10	1	-1E+10	1	-1E+10	1	-1E+10	1
4902551	116	C	11/01/2023	11:58	-130.913	46.938	0	242.10	0	6.2220	0	33.8320	0	26.604	0	239.951	0	116.7	4	38.7	4	-1E+10	1	-1E+10	1	-1E+10	1	-1E+10	1	-1E+10	1	-1E+10	1
4902551	116	C	11/01/2023	11:58	-130.913	46.938	0	243.10	0	6.2180	0	33.8310	0	26.604	0	240.942	0	116.1	4	38.5	4	-1E+10	1	-1E+10	1	-1E+10	1	-1E+10	1	-1E+10	1	-1E+10	1
4902551	116	C	11/01/2023	11:58	-130.913	46.938	0	244.20	0	6.2020	0	33.8300	0	26.605	0	242.031	0	115.5	4	38.3	4	-1E+10	1	-1E+10	1	-1E+10	1	-1E+10	1	-1E+10	1	-1E+10	1
4902551	116	C	11/01/2023	11:58	-130.913	46.938	0	245.20	0	6.1860	0	33.8300	0	26.607	0	243.022	0	114.7	4	38.0	4	-1E+10	1	-1E+10	1	-1E+10	1	-1E+10	1	-1E+10	1	-1E+10	1
4902551	116	C	11/01/2023	11:58	-130.913	46.938	0	246.30	0	6.1810	0	33.8310	0	26.609	0	244.111	0	113.8	4	37.7	4	-1E+10	1	-1E+10	1	-1E+10	1	-1E+10	1	-1E+10	1	-1E+10	1
4902551	116	C	11/01/2023	11:58	-130.913	46.938	0	247.30	0	6.1770	0	33.8310	0	26.609	0	245.102	0	112.7	4	37.4	4	-1E+10	1	-1E+10	1	-1E+10	1	-1E+10	1	-1E+10	1	-1E+10	1
4902551	116	C	11/01/2023	11:58	-130.913	46.938	0	248.30	0	6.1680	0	33.8310	0	26.611	0	246.093	0	111.6	4	37.0	4	-1E+10	1	-1E+10	1	-1E+10	1	-1E+10	1	-1E+10	1	-1E+10	1
4902551	116	C	11/01/2023	11:58	-130.913	46.938	0	249.40	0	6.1690	0	33.8320	0	26.611	0	247.182	0	110.3	4	36.5	4	-1E+10	1	-1E+10	1	-1E+10	1	-1E+10	1	-1E+10	1	-1E+10	1
4902551	116	C	11/01/2023	11:58	-130.913	46.938	0	250.40	0	6.1880	0	33.8340	0	26.610	0	248.173	0	109.0	4	36.1	4	-1E+10	1	-1E+10	1	-1E+10	1	-1E+10	1	-1E+10	1	-1E+10	1
4902551	116	C	11/01/2023	11:58	-130.913	46.938	0	251.40	0	6.2290	0	33.8460	0	26.615	0	249.163	0	107.9	4	35.8	4	-1E+10	1	-1E+10	1	-1E+10	1	-1E+10	1	-1E+10	1	-1E+10	1
4902551	116	C	11/01/2023	11:58	-130.913	46.938	0	252.50	0	6.2670	0	33.8560	0	26.618	0	250.253	0	106.9	4	35.5	4	-1E+10	1	-1E+10	1	-1E+10	1	-1E+10	1	-1E+10	1	-1E+10	1
4902551	116	C	11/01/2023	11:58	-130.913	46.938	0	253.50	0	6.2920	0	33.8600	0	26.618	0	251.243	0	106.0	4	35.3	4	-1E+10	1	-1E+10	1	-1E+10	1	-1E+10	1	-1E+10	1	-1E+10	1
4902551	116	C	11/01/2023	11:58	-130.913	46.938	0	254.50	0	6.3090	0	33.8620	0	26.617	0	252.234	0	105.2	4	35.0	4	-1E+10	1	-1E+10	1	-1E+10	1	-1E+10	1	-1E+10	1	-1E+10	1
4902551	116	C	11/01/2023	11:58	-130.913	46.938	0	255.60	0	6.3030	0	33.8640	0	26.620	0	253.323	0	104.4	4	34.7	4	-1E+10	1	-1E+10	1	-1E+10	1	-1E+10	1	-1E+10	1	-1E+10	1
4902551	116	C	11/01/2023	11:58	-130.913	46.938	0	256.60	0	6.2780	0	33.8650	0	26.624	0	254.314	0	103.5	4	34.4	4	-1E+10	1	-1E+10	1	-1E+10	1	-1E+10	1	-1E+10	1	-1E+10	1
4902551	116	C	11/01/2023	11:58	-130.913	46.938	0	257.60	0	6.2600	0	33.8620	0	26.623	0	255.304	0	102.6	4	34.1	4	-1E+10	1	-1E+10	1	-1E+10	1	-1E+10	1	-1E+10	1	-1E+10	1
4902551	116	C	11/01/2023	11:58	-130.913	46.938	0	258.60	0	6.2780	0	33.8630	0	26.622	0	256.295	0	101.6	4	33.8	4	-1E+10	1	-1E+10	1	-1E+10	1	-1E+10	1	-1E+10	1	-1E+10	1
4902551	116	C	11/01/2023	11:58	-130.913	46.938	0	259.60	0	6.2820	0	33.8750	0	26.631	0	257.285	0	100.8	4	33.5	4	-1E+10	1	-1E+10	1	-1E+10	1	-1E+10	1	-1E+10	1	-1E+10	1
4902551	116	C	11/01/2023	11:58	-130.913	46.938	0	260.60	0	6.2740	0	33.8720	0	26.630	0	258.275	0	100.3	4	33.3	4	-1E+10	1	-1E+10	1	-1E+10	1	-1E+10	1	-1E+10	1	-1E+10	1
4902551	116	C	11/01/2023	11:58	-130.913	46.938	0	261.60	0	6.2670	0	33.8800	0	26.637	0	259.266	0	99.9	4	33.2	4	-1E+10	1	-1E+10	1	-1E+10	1	-1E+10	1	-1E+10	1	-1E+10	1
4902551	116	C	11/01/2023	11:58	-130.913	46.938	0	262.60	0	6.2690	0	33.8800	0	26.637	0	260.256	0	99.5	4	33.1	4	-1E+10	1	-1E+10	1	-1E+10	1	-1E+10	1	-1E+10	1	-1E+10	1
4902551	116	C	11/01/2023	11:58	-130.913	46.938	0	263.60	0	6.2660	0	33.8800	0	26.637	0	261.247	0	99.1	4	32.9	4	-1E+10	1	-1E+10	1	-1E+10	1	-1E+10	1	-1E+10	1	-1E+10	1
4902551	116	C	11/01/2023	11:58	-130.913	46.938	0	264.60	0	6.2720	0	33.8850	0	26.640	0	262.237	0	98.8	4	32.9	4	-1E+10	1	-1E+10	1	-1E+10	1	-1E+10	1	-1E+10	1	-1E+10	1
4902551	116	C	11/01/2023	11:58	-130.913	46.938	0	265.60	0	6.2690	0	33.8860	0	26.641	0	263.228	0	98.6	4	32.8	4	-1E+10	1	-1E+10	1	-1E+10	1	-1E+10	1	-1E+10	1	-1E+10	1
4902551	116	C	11/01/2023	11:58	-130.913	46.938	0	266.60	0	6.2500	0	33.8870	0	26.645	0	264.218	0	98.3	4	32.7	4	-1E+10	1	-1E+10	1	-1E+10	1	-1E+10	1	-1E+10	1	-1E+10	1
4902551	116	C	11/01/2023	11:58	-130.913	46.938	0	267.60	0	6.2350	0	33.8870	0	26.647	0	265.209	0	98.1	4	32.6	4	-1E+10	1	-1E+10	1	-1E+10	1	-1E+10	1	-1E+10	1	-1E+10	1
4902551	116	C	11/01/2023	11:58	-130.913	46.938	0	268.50	0	6.2160	0	33.8850	0	26.647	0	266.100	0	97.7	4	32.4	4	-1E+10	1	-1E+10	1	-1E+10	1	-1E+10	1	-1E+10	1	-1E+10	1
4902551	116	C	11/01/2023	11:58	-130.913	46.938	0	269.90	0	6.1540	0	33.8860	0	26.656	0	267.487	0	96.9	4	32.1	4	-1E+10	1	-1E+10	1	-1E+10	1	-1E+10	1	-1E+10	1	-1E+10	1
4902551	116	C	11/01/2023	11:58	-130.913	46.938	0	271.40	0	6.1230	0	33.8880	0	26.662	0	268.972	0	95.8	4	31.7	4	-1E+10	1	-1E+10	1	-1E+10	1	-1E+10	1	-1E+10	1	-1E+10	1
4902551	116	C	11/01/2023	11:58	-130.913	46.938	0	272.30	0	6.1130	0	33.8850	0	26.660	0	269.863	0	95.0	4	31.5	4	-1E+10	1	-1E+10	1	-1E+10	1	-1E+10	1	-1E+10	1	-1E+10	1
4902551	116	C	11/01/2023	11:58	-130.913	46.938	0	273.30	0	6.1250	0	33.8890	0	26.662	0	270.854	0	94.4	4	31.3	4	-1E+10	1	-1E+10	1	-1E+10	1	-1E+10	1	-1E+10	1	-1E+10	1
4902551	116	C	11/01/2023	11:58	-130.913	46.938	0	274.30	0	6.1070	0	33.8950	0	26.669	0	271.844	0	94.0	4	31.1	4	-1E+10	1	-1E+10	1	-1E+10	1	-1E+10	1	-1E+10	1	-1E+10	1
4902551	116	C	11/01/2023	11:58	-130.913	46.938	0	275.20	0	6.0570	0	33.8950	0	26.675	0	272.736	0	93.8	4	31.0	4	-1E+10	1	-1E+10	1	-1E+10	1	-1E+10	1	-1E+10	1	-1E+10	1
4902551	116	C	11/01/2023	11:58	-130.913	46.938	0	276.20	0	6.0430	0	33.8960	0	26.678	0	273.726	0	93.4	4	30.9	4	-1E+10	1	-1E+10	1	-1E+10	1	-1E+10	1	-1E+10	1	-1E+10	1
4902551	116	C	11/01/2023	11:58	-130.913	46.938	0	277.10	0	6.0400	0	33.8940	0	26.677	0	274.617	0	92.9	4	30.7	4	-1E+10	1	-1E+10	1	-1E+10	1	-1E+10	1	-1E+10	1	-1E+10	1
4902551	116	C	11/01/2023	11:58	-130.913	46.938	0	278.00	0	6.0390	0	33.8930	0	26.676	0	275.509	0	92.2	4	30.5	4	-1E+10	1	-1E+10	1	-1E+10	1	-1E+10	1	-1E+10	1	-1E+10	1
4902551	116	C	11/01/2023	11:58	-130.913	46.938	0	279.00	0	6.0390	0	33.8920	0	26.675	0	276.499	0	91.5	4	30.2	4	-1E+10	1	-1E+10	1	-1E+10	1	-1E+10	1	-1E+10	1	-1E+10	1
4902551	116	C	11/01/2023	11:58	-130.913	46.938	0	279.90	0	5.9960	0	33.8910	0	26.680	0	277.390	0	90.6	4	29.9	4	-1E+10	1	-1E+10	1	-1E+10	1	-1E+10	1	-1E+10	1	-1E+10	1
4902551	116	C	11/01/2023	11:58	-130.913	46.938	0	280.80	0	5.9620	0	33.8900	0	26.683	0	278.282	0	89.5	4	29.6	4	-1E+10	1	-1E+10	1	-1E+10	1	-1E+10	1	-1E+10	1	-1E+10	1
4902551	116	C	11/01/2023	11:58	-130.913	46.938	0	281.80	0	5.9350	0	33.8940	0	26.690	0	279.272	0	88.3	4	29.1	4	-1E+10	1	-1E+10	1	-1E+10	1	-1E+10	1	-1E+10	1	-1E+10	1
4902551	116	C	11/01/2023	11:58	-130.913	46.938	0	282.70	0	5.9360	0	33.8940	0	26.690	0	280.163	0	87.1	4	28.7	4	-1E+10	1	-1E+10	1	-1E+10	1	-1E+10	1	-1E+10	1	-1E+10	1
4902551	116	C	11/01/2023	11:58	-130.913	46.938	0	283.70	0	5.9270	0	33.8970	0	26.693	0	281.154	0	85.9	4	28.3	4	-1E+10	1	-1E+10	1	-1E+10	1	-1E+10	1	-1E+10	1	-1E+10	1
4902551	116	C	11/01/2023	11:58	-130.913	46.938	0	284.60	0	5.9150	0	33.8980	0	26.696	0	282.045	0	84.5	4	27.9	4	-1E+10	1	-1E+10	1	-1E+10	1	-1E+10	1	-1E+10	1	-1E+10	1
4902551	116	C	11/01/2023	11:58	-130.913	46.938	0	285.90	0	5.9170	0	33.9030	0	26.699	0	283.332	0	82.5	4	27.2	4	-1E+10	1	-1E+10	1	-1E+10	1	-1E+10	1	-1E+10	1	-1E+10	1
4902551	116	C	11/01/2023	11:58	-130.913	46.938	0	287.40	0	5.9300	0	33.9090	0	26.702	0	284.818	0	81.1	4	26.7	4	-1E+10	1	-1E+10	1	-1E+10	1	-1E+10	1	-1E+10	1	-1E+10	1
4902551	116	C	11/01/2023	11:58	-130.913	46.938	0	288.30	0	5.9480	0	33.9110	0	26.702	0	285.709	0	80.2	4	26.5	4	-1E+10	1	-1E+10	1	-1E+10	1	-1E+10	1	-1E+10	1	-1E+10	1
4902551	116	C	11/01/2023	11:58	-130.913	46.938	0	289.20	0	5.9300	0	33.9190	0	26.710	0	286.601	0	79.7	4	26.3	4	-1E+10	1	-1E+10	1	-1E+10	1	-1E+10	1	-1E+10	1	-1E+10	1
4902551	116	C	11/01/2023	11:58	-130.913	46.938	0	290.20	0	5.9130	0	33.9180	0	26.712	0	287.591	0	79.2	4	26.1	4	-1E+10	1	-1E+10	1	-1E+10	1	-1E+10	1	-1E+10	1	-1E+10	1
4902551	116	C	11/01/2023	11:58	-130.913	46.938	0	291.10	0	5.8860	0	33.9150	0	26.713	0	288.482	0	78.6	4	25.9	4	-1E+10	1	-1E+10	1	-1E+10	1	-1E+10	1	-1E+10	1	-1E+10	1
4902551	116	C	11/01/2023	11:58	-130.913	46.938	0	292.00	0	5.8830	0	33.9160	0	26.714	0	289.373	0	77.8	4	25.6	4	-1E+10	1	-1E+10	1	-1E+10	1	-1E+10	1	-1E+10	1	-1E+10	1
4902551	116	C	11/01/2023	11:58	-130.913	46.938	0	292.90	0	5.8850	0	33.9170	0	26.714	0	290.265	0	77.1	4	25.4	4	-1E+10	1	-1E+10	1	-1E+10	1	-1E+10	1	-1E+10	1	-1E+10	1
4902551	116	C	11/01/2023	11:58	-130.913	46.938	0	293.80	0	5.8900	0	33.9200	0	26.716	0	291.156	0	76.4	4	25.2	4	-1E+10	1	-1E+10	1	-1E+10	1	-1E+10	1	-1E+10	1	-1E+10	1
4902551	116	C	11/01/2023	11:58	-130.913	46.938	0	294.80	0	5.8980	0	33.9230	0	26.718	0	292.146	0	75.8	4	25.0	4	-1E+10	1	-1E+10	1	-1E+10	1	-1E+10	1	-1E+10	1	-1E+10	1
4902551	116	C	11/01/2023	11:58	-130.913	46.938	0	295.70	0	5.8510	0	33.9260	0	26.726	0	293.038	0	75.5	4	24.9	4	-1E+10	1	-1E+10	1	-1E+10	1	-1E+10	1	-1E+10	1	-1E+10	1
4902551	116	C	11/01/2023	11:58	-130.913	46.938	0	296.60	0	5.8420	0	33.9230	0	26.725	0	293.929	0	75.2	4	24.7	4	-1E+10	1	-1E+10	1	-1E+10	1	-1E+10	1	-1E+10	1	-1E+10	1
4902551	116	C	11/01/2023	11:58	-130.913	46.938	0	297.90	0	5.7820	0	33.9230	0	26.732	0	295.216	0	74.3	4	24.4	4	-1E+10	1	-1E+10	1	-1E+10	1	-1E+10	1	-1E+10	1	-1E+10	1
4902551	116	C	11/01/2023	11:58	-130.913	46.938	0	299.40	0	5.7570	0	33.9270	0	26.738	0	296.702	0	73.2	4	24.0	4	-1E+10	1	-1E+10	1	-1E+10	1	-1E+10	1	-1E+10	1	-1E+10	1
4902551	116	C	11/01/2023	11:58	-130.913	46.938	0	300.30	0	5.7410	0	33.9320	0	26.744	0	297.593	0	72.8	4	23.9	4	-1E+10	1	-1E+10	1	-1E+10	1	-1E+10	1	-1E+10	1	-1E+10	1
4902551	116	C	11/01/2023	11:58	-130.913	46.938	0	301.20	0	5.7320	0	33.9320	0	26.745	0	298.484	0	72.5	4	23.8	4	-1E+10	1	-1E+10	1	-1E+10	1	-1E+10	1	-1E+10	1	-1E+10	1
4902551	116	C	11/01/2023	11:58	-130.913	46.938	0	302.20	0	5.7230	0	33.9330	0	26.747	0	299.474	0	72.3	4	23.7	4	-1E+10	1	-1E+10	1	-1E+10	1	-1E+10	1	-1E+10	1	-1E+10	1
4902551	116	C	11/01/2023	11:58	-130.913	46.938	0	303.10	0	5.7190	0	33.9340	0	26.748	0	300.366	0	72.0	4	23.6	4	-1E+10	1	-1E+10	1	-1E+10	1	-1E+10	1	-1E+10	1	-1E+10	1
4902551	116	C	11/01/2023	11:58	-130.913	46.938	0	304.00	0	5.7170	0	33.9330	0	26.748	0	301.257	0	71.7	4	23.5	4	-1E+10	1	-1E+10	1	-1E+10	1	-1E+10	1	-1E+10	1	-1E+10	1
4902551	116	C	11/01/2023	11:58	-130.913	46.938	0	304.90	0	5.7160	0	33.9340	0	26.749	0	302.148	0	71.4	4	23.4	4	-1E+10	1	-1E+10	1	-1E+10	1	-1E+10	1	-1E+10	1	-1E+10	1
4902551	116	C	11/01/2023	11:58	-130.913	46.938	0	305.90	0	5.7150	0	33.9330	0	26.748	0	303.138	0	70.9	4	23.3	4	-1E+10	1	-1E+10	1	-1E+10	1	-1E+10	1	-1E+10	1	-1E+10	1
4902551	116	C	11/01/2023	11:58	-130.913	46.938	0	306.80	0	5.7040	0	33.9350	0	26.751	0	304.029	0	70.5	4	23.1	4	-1E+10	1	-1E+10	1	-1E+10	1	-1E+10	1	-1E+10	1	-1E+10	1
4902551	116	C	11/01/2023	11:58	-130.913	46.938	0	307.80	0	5.6960	0	33.9360	0	26.753	0	305.020	0	70.2	4	23.0	4	-1E+10	1	-1E+10	1	-1E+10	1	-1E+10	1	-1E+10	1	-1E+10	1
4902551	116	C	11/01/2023	11:58	-130.913	46.938	0	308.70	0	5.6940	0	33.9350	0	26.752	0	305.911	0	69.9	4	22.9	4	-1E+10	1	-1E+10	1	-1E+10	1	-1E+10	1	-1E+10	1	-1E+10	1
4902551	116	C	11/01/2023	11:58	-130.913	46.938	0	309.50	0	5.6810	0	33.9360	0	26.755	0	306.703	0	69.8	4	22.9	4	-1E+10	1	-1E+10	1	-1E+10	1	-1E+10	1	-1E+10	1	-1E+10	1
4902551	116	C	11/01/2023	11:58	-130.913	46.938	0	310.80	0	5.6720	0	33.9350	0	26.755	0	307.990	0	69.3	4	22.7	4	-1E+10	1	-1E+10	1	-1E+10	1	-1E+10	1	-1E+10	1	-1E+10	1
4902551	116	C	11/01/2023	11:58	-130.913	46.938	0	311.80	0	5.6500	0	33.9360	0	26.758	0	308.981	0	69.0	4	22.6	4	-1E+10	1	-1E+10	1	-1E+10	1	-1E+10	1	-1E+10	1	-1E+10	1
4902551	116	C	11/01/2023	11:58	-130.913	46.938	0	312.80	0	5.6420	0	33.9360	0	26.759	0	309.971	0	68.8	4	22.5	4	-1E+10	1	-1E+10	1	-1E+10	1	-1E+10	1	-1E+10	1	-1E+10	1
4902551	116	C	11/01/2023	11:58	-130.913	46.938	0	313.90	0	5.6100	0	33.9400	0	26.766	0	311.060	0	68.5	4	22.4	4	-1E+10	1	-1E+10	1	-1E+10	1	-1E+10	1	-1E+10	1	-1E+10	1
4902551	116	C	11/01/2023	11:58	-130.913	46.938	0	315.00	0	5.5860	0	33.9350	0	26.765	0	312.149	0	68.1	4	22.3	4	-1E+10	1	-1E+10	1	-1E+10	1	-1E+10	1	-1E+10	1	-1E+10	1
4902551	116	C	11/01/2023	11:58	-130.913	46.938	0	316.10	0	5.5710	0	33.9360	0	26.768	0	313.238	0	67.7	4	22.2	4	-1E+10	1	-1E+10	1	-1E+10	1	-1E+10	1	-1E+10	1	-1E+10	1
4902551	116	C	11/01/2023	11:58	-130.913	46.938	0	316.80	0	5.5550	0	33.9370	0	26.771	0	313.932	0	67.4	4	22.1	4	-1E+10	1	-1E+10	1	-1E+10	1	-1E+10	1	-1E+10	1	-1E+10	1
4902551	116	C	11/01/2023	11:58	-130.913	46.938	0	317.90	0	5.5340	0	33.9370	0	26.773	0	315.021	0	66.9	4	21.9	4	-1E+10	1	-1E+10	1	-1E+10	1	-1E+10	1	-1E+10	1	-1E+10	1
4902551	116	C	11/01/2023	11:58	-130.913	46.938	0	319.00	0	5.4950	0	33.9430	0	26.783	0	316.110	0	66.5	4	21.7	4	-1E+10	1	-1E+10	1	-1E+10	1	-1E+10	1	-1E+10	1	-1E+10	1
4902551	116	C	11/01/2023	11:58	-130.913	46.938	0	319.80	0	5.4840	0	33.9420	0	26.783	0	316.902	0	66.3	4	21.6	4	-1E+10	1	-1E+10	1	-1E+10	1	-1E+10	1	-1E+10	1	-1E+10	1
4902551	116	C	11/01/2023	11:58	-130.913	46.938	0	320.90	0	5.4720	0	33.9430	0	26.785	0	317.991	0	66.0	4	21.5	4	-1E+10	1	-1E+10	1	-1E+10	1	-1E+10	1	-1E+10	1	-1E+10	1
4902551	116	C	11/01/2023	11:58	-130.913	46.938	0	322.10	0	5.4410	0	33.9440	0	26.790	0	319.180	0	65.8	4	21.5	4	-1E+10	1	-1E+10	1	-1E+10	1	-1E+10	1	-1E+10	1	-1E+10	1
4902551	116	C	11/01/2023	11:58	-130.913	46.938	0	322.90	0	5.4370	0	33.9420	0	26.789	0	319.972	0	65.6	4	21.4	4	-1E+10	1	-1E+10	1	-1E+10	1	-1E+10	1	-1E+10	1	-1E+10	1
4902551	116	C	11/01/2023	11:58	-130.913	46.938	0	323.60	0	5.4320	0	33.9430	0	26.790	0	320.665	0	65.4	4	21.3	4	-1E+10	1	-1E+10	1	-1E+10	1	-1E+10	1	-1E+10	1	-1E+10	1
4902551	116	C	11/01/2023	11:58	-130.913	46.938	0	324.90	0	5.4240	0	33.9440	0	26.792	0	321.952	0	65.1	4	21.2	4	-1E+10	1	-1E+10	1	-1E+10	1	-1E+10	1	-1E+10	1	-1E+10	1
4902551	116	C	11/01/2023	11:58	-130.913	46.938	0	326.10	0	5.4180	0	33.9440	0	26.793	0	323.140	0	64.8	4	21.1	4	-1E+10	1	-1E+10	1	-1E+10	1	-1E+10	1	-1E+10	1	-1E+10	1
4902551	116	C	11/01/2023	11:58	-130.913	46.938	0	326.90	0	5.4160	0	33.9440	0	26.793	0	323.932	0	64.6	4	21.1	4	-1E+10	1	-1E+10	1	-1E+10	1	-1E+10	1	-1E+10	1	-1E+10	1
4902551	116	C	11/01/2023	11:58	-130.913	46.938	0	327.70	0	5.4120	0	33.9440	0	26.793	0	324.724	0	64.4	4	21.0	4	-1E+10	1	-1E+10	1	-1E+10	1	-1E+10	1	-1E+10	1	-1E+10	1
4902551	116	C	11/01/2023	11:58	-130.913	46.938	0	328.90	0	5.4030	0	33.9460	0	26.796	0	325.913	0	64.1	4	20.9	4	-1E+10	1	-1E+10	1	-1E+10	1	-1E+10	1	-1E+10	1	-1E+10	1
4902551	116	C	11/01/2023	11:58	-130.913	46.938	0	330.20	0	5.3990	0	33.9460	0	26.797	0	327.200	0	63.7	4	20.8	4	-1E+10	1	-1E+10	1	-1E+10	1	-1E+10	1	-1E+10	1	-1E+10	1
4902551	116	C	11/01/2023	11:58	-130.913	46.938	0	331.00	0	5.3940	0	33.9460	0	26.797	0	327.992	0	63.5	4	20.7	4	-1E+10	1	-1E+10	1	-1E+10	1	-1E+10	1	-1E+10	1	-1E+10	1
4902551	116	C	11/01/2023	11:58	-130.913	46.938	0	331.80	0	5.3880	0	33.9480	0	26.799	0	328.784	0	63.3	4	20.6	4	-1E+10	1	-1E+10	1	-1E+10	1	-1E+10	1	-1E+10	1	-1E+10	1
4902551	116	C	11/01/2023	11:58	-130.913	46.938	0	332.70	0	5.3850	0	33.9470	0	26.799	0	329.675	0	63.1	4	20.5	4	-1E+10	1	-1E+10	1	-1E+10	1	-1E+10	1	-1E+10	1	-1E+10	1
4902551	116	C	11/01/2023	11:58	-130.913	46.938	0	333.90	0	5.3830	0	33.9470	0	26.799	0	330.863	0	62.7	4	20.4	4	-1E+10	1	-1E+10	1	-1E+10	1	-1E+10	1	-1E+10	1	-1E+10	1
4902551	116	C	11/01/2023	11:58	-130.913	46.938	0	335.20	0	5.3750	0	33.9480	0	26.801	0	332.150	0	62.2	4	20.3	4	-1E+10	1	-1E+10	1	-1E+10	1	-1E+10	1	-1E+10	1	-1E+10	1
4902551	116	C	11/01/2023	11:58	-130.913	46.938	0	336.00	0	5.3680	0	33.9480	0	26.802	0	332.942	0	61.9	4	20.1	4	-1E+10	1	-1E+10	1	-1E+10	1	-1E+10	1	-1E+10	1	-1E+10	1
4902551	116	C	11/01/2023	11:58	-130.913	46.938	0	336.90	0	5.3630	0	33.9490	0	26.803	0	333.833	0	61.5	4	20.0	4	-1E+10	1	-1E+10	1	-1E+10	1	-1E+10	1	-1E+10	1	-1E+10	1
4902551	116	C	11/01/2023	11:58	-130.913	46.938	0	337.80	0	5.3610	0	33.9490	0	26.803	0	334.724	0	61.2	4	19.9	4	-1E+10	1	-1E+10	1	-1E+10	1	-1E+10	1	-1E+10	1	-1E+10	1
4902551	116	C	11/01/2023	11:58	-130.913	46.938	0	338.60	0	5.3350	0	33.9510	0	26.808	0	335.517	0	60.8	4	19.8	4	-1E+10	1	-1E+10	1	-1E+10	1	-1E+10	1	-1E+10	1	-1E+10	1
4902551	116	C	11/01/2023	11:58	-130.913	46.938	0	339.90	0	5.3130	0	33.9520	0	26.811	0	336.804	0	60.3	4	19.6	4	-1E+10	1	-1E+10	1	-1E+10	1	-1E+10	1	-1E+10	1	-1E+10	1
4902551	116	C	11/01/2023	11:58	-130.913	46.938	0	341.20	0	5.3180	0	33.9540	0	26.812	0	338.091	0	59.7	4	19.4	4	-1E+10	1	-1E+10	1	-1E+10	1	-1E+10	1	-1E+10	1	-1E+10	1
4902551	116	C	11/01/2023	11:58	-130.913	46.938	0	342.10	0	5.3210	0	33.9560	0	26.814	0	338.982	0	59.2	4	19.3	4	-1E+10	1	-1E+10	1	-1E+10	1	-1E+10	1	-1E+10	1	-1E+10	1
4902551	116	C	11/01/2023	11:58	-130.913	46.938	0	343.00	0	5.3500	0	33.9630	0	26.816	0	339.873	0	58.9	4	19.2	4	-1E+10	1	-1E+10	1	-1E+10	1	-1E+10	1	-1E+10	1	-1E+10	1
4902551	116	C	11/01/2023	11:58	-130.913	46.938	0	343.90	0	5.3490	0	33.9630	0	26.816	0	340.764	0	58.7	4	19.1	4	-1E+10	1	-1E+10	1	-1E+10	1	-1E+10	1	-1E+10	1	-1E+10	1
4902551	116	C	11/01/2023	11:58	-130.913	46.938	0	344.80	0	5.3470	0	33.9640	0	26.817	0	341.655	0	58.6	4	19.1	4	-1E+10	1	-1E+10	1	-1E+10	1	-1E+10	1	-1E+10	1	-1E+10	1
4902551	116	C	11/01/2023	11:58	-130.913	46.938	0	345.70	0	5.3490	0	33.9640	0	26.817	0	342.546	0	58.4	4	19.0	4	-1E+10	1	-1E+10	1	-1E+10	1	-1E+10	1	-1E+10	1	-1E+10	1
4902551	116	C	11/01/2023	11:58	-130.913	46.938	0	346.60	0	5.3500	0	33.9650	0	26.817	0	343.437	0	58.2	4	19.0	4	-1E+10	1	-1E+10	1	-1E+10	1	-1E+10	1	-1E+10	1	-1E+10	1
4902551	116	C	11/01/2023	11:58	-130.913	46.938	0	347.90	0	5.3500	0	33.9650	0	26.817	0	344.724	0	57.9	4	18.8	4	-1E+10	1	-1E+10	1	-1E+10	1	-1E+10	1	-1E+10	1	-1E+10	1
4902551	116	C	11/01/2023	11:58	-130.913	46.938	0	349.30	0	5.3520	0	33.9640	0	26.816	0	346.110	0	57.5	4	18.7	4	-1E+10	1	-1E+10	1	-1E+10	1	-1E+10	1	-1E+10	1	-1E+10	1
4902551	116	C	11/01/2023	11:58	-130.913	46.938	0	350.20	0	5.3360	0	33.9680	0	26.822	0	347.001	0	57.3	4	18.7	4	-1E+10	1	-1E+10	1	-1E+10	1	-1E+10	1	-1E+10	1	-1E+10	1
4902551	116	C	11/01/2023	11:58	-130.913	46.938	0	352.90	0	5.3160	0	33.9680	0	26.824	0	349.674	0	56.9	4	18.5	4	-1E+10	1	-1E+10	1	-1E+10	1	-1E+10	1	-1E+10	1	-1E+10	1
4902551	116	C	11/01/2023	11:58	-130.913	46.938	0	357.80	0	5.2450	0	33.9680	0	26.832	0	354.525	0	55.9	4	18.2	4	-1E+10	1	-1E+10	1	-1E+10	1	-1E+10	1	-1E+10	1	-1E+10	1
4902551	116	C	11/01/2023	11:58	-130.913	46.938	0	362.90	0	5.2050	0	33.9710	0	26.839	0	359.574	0	55.0	4	17.8	4	-1E+10	1	-1E+10	1	-1E+10	1	-1E+10	1	-1E+10	1	-1E+10	1
4902551	116	C	11/01/2023	11:58	-130.913	46.938	0	367.90	0	5.1360	0	33.9720	0	26.848	0	364.524	0	53.9	4	17.5	4	-1E+10	1	-1E+10	1	-1E+10	1	-1E+10	1	-1E+10	1	-1E+10	1
4902551	116	C	11/01/2023	11:58	-130.913	46.938	0	373.00	0	5.0740	0	33.9760	0	26.858	0	369.573	0	52.9	4	17.1	4	-1E+10	1	-1E+10	1	-1E+10	1	-1E+10	1	-1E+10	1	-1E+10	1
4902551	116	C	11/01/2023	11:58	-130.913	46.938	0	377.70	0	5.0350	0	33.9770	0	26.864	0	374.225	0	51.8	4	16.7	4	-1E+10	1	-1E+10	1	-1E+10	1	-1E+10	1	-1E+10	1	-1E+10	1
4902551	116	C	11/01/2023	11:58	-130.913	46.938	0	382.50	0	5.0140	0	33.9800	0	26.869	0	378.977	0	50.4	4	16.3	4	-1E+10	1	-1E+10	1	-1E+10	1	-1E+10	1	-1E+10	1	-1E+10	1
4902551	116	C	11/01/2023	11:58	-130.913	46.938	0	387.80	0	4.9730	0	33.9870	0	26.879	0	384.223	0	49.0	4	15.8	4	-1E+10	1	-1E+10	1	-1E+10	1	-1E+10	1	-1E+10	1	-1E+10	1
4902551	116	C	11/01/2023	11:58	-130.913	46.938	0	393.20	0	4.9510	0	33.9920	0	26.885	0	389.568	0	47.8	4	15.4	4	-1E+10	1	-1E+10	1	-1E+10	1	-1E+10	1	-1E+10	1	-1E+10	1
4902551	116	C	11/01/2023	11:58	-130.913	46.938	0	398.20	0	4.9230	0	33.9960	0	26.892	0	394.517	0	46.8	4	15.1	4	-1E+10	1	-1E+10	1	-1E+10	1	-1E+10	1	-1E+10	1	-1E+10	1
4902551	116	C	11/01/2023	11:58	-130.913	46.938	0	403.20	0	4.9100	0	34.0000	0	26.896	0	399.466	0	45.8	4	14.8	4	-1E+10	1	-1E+10	1	-1E+10	1	-1E+10	1	-1E+10	1	-1E+10	1
4902551	116	C	11/01/2023	11:58	-130.913	46.938	0	408.10	0	4.8820	0	34.0040	0	26.903	0	404.316	0	44.9	4	14.5	4	-1E+10	1	-1E+10	1	-1E+10	1	-1E+10	1	-1E+10	1	-1E+10	1
4902551	116	C	11/01/2023	11:58	-130.913	46.938	0	413.10	0	4.8430	0	34.0070	0	26.909	0	409.265	0	44.1	4	14.2	4	-1E+10	1	-1E+10	1	-1E+10	1	-1E+10	1	-1E+10	1	-1E+10	1
4902551	116	C	11/01/2023	11:58	-130.913	46.938	0	418.10	0	4.8260	0	34.0100	0	26.914	0	414.213	0	43.1	4	13.9	4	-1E+10	1	-1E+10	1	-1E+10	1	-1E+10	1	-1E+10	1	-1E+10	1
4902551	116	C	11/01/2023	11:58	-130.913	46.938	0	423.10	0	4.8050	0	34.0130	0	26.919	0	419.162	0	41.8	4	13.4	4	-1E+10	1	-1E+10	1	-1E+10	1	-1E+10	1	-1E+10	1	-1E+10	1
4902551	116	C	11/01/2023	11:58	-130.913	46.938	0	428.20	0	4.7850	0	34.0200	0	26.926	0	424.209	0	40.4	4	13.0	4	-1E+10	1	-1E+10	1	-1E+10	1	-1E+10	1	-1E+10	1	-1E+10	1
4902551	116	C	11/01/2023	11:58	-130.913	46.938	0	433.30	0	4.7610	0	34.0280	0	26.935	0	429.256	0	39.5	4	12.7	4	-1E+10	1	-1E+10	1	-1E+10	1	-1E+10	1	-1E+10	1	-1E+10	1
4902551	116	C	11/01/2023	11:58	-130.913	46.938	0	438.00	0	4.7170	0	34.0290	0	26.941	0	433.907	0	38.9	4	12.5	4	-1E+10	1	-1E+10	1	-1E+10	1	-1E+10	1	-1E+10	1	-1E+10	1
4902551	116	C	11/01/2023	11:58	-130.913	46.938	0	442.90	0	4.6880	0	34.0310	0	26.946	0	438.756	0	37.7	4	12.1	4	-1E+10	1	-1E+10	1	-1E+10	1	-1E+10	1	-1E+10	1	-1E+10	1
4902551	116	C	11/01/2023	11:58	-130.913	46.938	0	447.80	0	4.6980	0	34.0370	0	26.950	0	443.605	0	36.1	4	11.6	4	-1E+10	1	-1E+10	1	-1E+10	1	-1E+10	1	-1E+10	1	-1E+10	1
4902551	116	C	11/01/2023	11:58	-130.913	46.938	0	452.70	0	4.7050	0	34.0460	0	26.956	0	448.454	0	35.0	4	11.2	4	-1E+10	1	-1E+10	1	-1E+10	1	-1E+10	1	-1E+10	1	-1E+10	1
4902551	116	C	11/01/2023	11:58	-130.913	46.938	0	457.80	0	4.6820	0	34.0500	0	26.962	0	453.501	0	33.8	4	10.8	4	-1E+10	1	-1E+10	1	-1E+10	1	-1E+10	1	-1E+10	1	-1E+10	1
4902551	116	C	11/01/2023	11:58	-130.913	46.938	0	462.90	0	4.6870	0	34.0570	0	26.967	0	458.547	0	32.9	4	10.5	4	-1E+10	1	-1E+10	1	-1E+10	1	-1E+10	1	-1E+10	1	-1E+10	1
4902551	116	C	11/01/2023	11:58	-130.913	46.938	0	468.20	0	4.6830	0	34.0610	0	26.971	0	463.792	0	32.1	4	10.3	4	-1E+10	1	-1E+10	1	-1E+10	1	-1E+10	1	-1E+10	1	-1E+10	1
4902551	116	C	11/01/2023	11:58	-130.913	46.938	0	473.00	0	4.6670	0	34.0650	0	26.975	0	468.541	0	31.5	4	10.1	4	-1E+10	1	-1E+10	1	-1E+10	1	-1E+10	1	-1E+10	1	-1E+10	1
4902551	116	C	11/01/2023	11:58	-130.913	46.938	0	478.00	0	4.6410	0	34.0680	0	26.981	0	473.488	0	30.9	4	9.9	4	-1E+10	1	-1E+10	1	-1E+10	1	-1E+10	1	-1E+10	1	-1E+10	1
4902551	116	C	11/01/2023	11:58	-130.913	46.938	0	482.90	0	4.6190	0	34.0710	0	26.986	0	478.336	0	30.4	4	9.7	4	-1E+10	1	-1E+10	1	-1E+10	1	-1E+10	1	-1E+10	1	-1E+10	1
4902551	116	C	11/01/2023	11:58	-130.913	46.938	0	487.70	0	4.6160	0	34.0740	0	26.988	0	483.085	0	29.9	4	9.6	4	-1E+10	1	-1E+10	1	-1E+10	1	-1E+10	1	-1E+10	1	-1E+10	1
4902551	116	C	11/01/2023	11:58	-130.913	46.938	0	493.00	0	4.6000	0	34.0770	0	26.992	0	488.329	0	29.3	4	9.4	4	-1E+10	1	-1E+10	1	-1E+10	1	-1E+10	1	-1E+10	1	-1E+10	1
4902551	116	C	11/01/2023	11:58	-130.913	46.938	0	497.80	0	4.5980	0	34.0810	0	26.996	0	493.078	0	28.9	4	9.2	4	-1E+10	1	-1E+10	1	-1E+10	1	-1E+10	1	-1E+10	1	-1E+10	1
4902551	116	C	11/01/2023	11:58	-130.913	46.938	0	502.60	0	4.5730	0	34.0840	0	27.001	0	497.826	0	28.7	4	9.2	4	-1E+10	1	-1E+10	1	-1E+10	1	-1E+10	1	-1E+10	1	-1E+10	1
4902551	116	C	11/01/2023	11:58	-130.913	46.938	0	507.90	0	4.5520	0	34.0840	0	27.003	0	503.070	0	28.6	4	9.2	4	-1E+10	1	-1E+10	1	-1E+10	1	-1E+10	1	-1E+10	1	-1E+10	1
4902551	116	C	11/01/2023	11:58	-130.913	46.938	0	513.10	0	4.5360	0	34.0860	0	27.007	0	508.214	0	28.7	4	9.2	4	-1E+10	1	-1E+10	1	-1E+10	1	-1E+10	1	-1E+10	1	-1E+10	1
4902551	116	C	11/01/2023	11:58	-130.913	46.938	0	518.20	0	4.4960	0	34.0830	0	27.009	0	513.259	0	28.8	4	9.2	4	-1E+10	1	-1E+10	1	-1E+10	1	-1E+10	1	-1E+10	1	-1E+10	1
4902551	116	C	11/01/2023	11:58	-130.913	46.938	0	523.30	0	4.4430	0	34.0800	0	27.012	0	518.304	0	28.2	4	9.0	4	-1E+10	1	-1E+10	1	-1E+10	1	-1E+10	1	-1E+10	1	-1E+10	1
4902551	116	C	11/01/2023	11:58	-130.913	46.938	0	527.90	0	4.4160	0	34.0830	0	27.017	0	522.854	0	26.9	4	8.6	4	-1E+10	1	-1E+10	1	-1E+10	1	-1E+10	1	-1E+10	1	-1E+10	1
4902551	116	C	11/01/2023	11:58	-130.913	46.938	0	532.60	0	4.4320	0	34.0960	0	27.026	0	527.503	0	25.7	4	8.2	4	-1E+10	1	-1E+10	1	-1E+10	1	-1E+10	1	-1E+10	1	-1E+10	1
4902551	116	C	11/01/2023	11:58	-130.913	46.938	0	537.80	0	4.4260	0	34.1040	0	27.033	0	532.647	0	25.1	4	8.0	4	-1E+10	1	-1E+10	1	-1E+10	1	-1E+10	1	-1E+10	1	-1E+10	1
4902551	116	C	11/01/2023	11:58	-130.913	46.938	0	543.00	0	4.4240	0	34.1070	0	27.036	0	537.790	0	24.8	4	7.9	4	-1E+10	1	-1E+10	1	-1E+10	1	-1E+10	1	-1E+10	1	-1E+10	1
4902551	116	C	11/01/2023	11:58	-130.913	46.938	0	547.90	0	4.4110	0	34.1090	0	27.039	0	542.637	0	24.6	4	7.8	4	-1E+10	1	-1E+10	1	-1E+10	1	-1E+10	1	-1E+10	1	-1E+10	1
4902551	116	C	11/01/2023	11:58	-130.913	46.938	0	552.70	0	4.4030	0	34.1120	0	27.042	0	547.385	0	24.4	4	7.8	4	-1E+10	1	-1E+10	1	-1E+10	1	-1E+10	1	-1E+10	1	-1E+10	1
4902551	116	C	11/01/2023	11:58	-130.913	46.938	0	558.00	0	4.3780	0	34.1110	0	27.044	0	552.627	0	24.4	4	7.8	4	-1E+10	1	-1E+10	1	-1E+10	1	-1E+10	1	-1E+10	1	-1E+10	1
4902551	116	C	11/01/2023	11:58	-130.913	46.938	0	563.00	0	4.3260	0	34.1120	0	27.050	0	557.572	0	24.2	4	7.7	4	-1E+10	1	-1E+10	1	-1E+10	1	-1E+10	1	-1E+10	1	-1E+10	1
4902551	116	C	11/01/2023	11:58	-130.913	46.938	0	568.00	0	4.3020	0	34.1150	0	27.055	0	562.517	0	23.8	4	7.6	4	-1E+10	1	-1E+10	1	-1E+10	1	-1E+10	1	-1E+10	1	-1E+10	1
4902551	116	C	11/01/2023	11:58	-130.913	46.938	0	573.10	0	4.2830	0	34.1180	0	27.060	0	567.561	0	23.6	4	7.5	4	-1E+10	1	-1E+10	1	-1E+10	1	-1E+10	1	-1E+10	1	-1E+10	1
4902551	116	C	11/01/2023	11:58	-130.913	46.938	0	577.70	0	4.2760	0	34.1200	0	27.062	0	572.110	0	23.2	4	7.4	4	-1E+10	1	-1E+10	1	-1E+10	1	-1E+10	1	-1E+10	1	-1E+10	1
4902551	116	C	11/01/2023	11:58	-130.913	46.938	0	582.80	0	4.2600	0	34.1220	0	27.065	0	577.153	0	22.7	4	7.2	4	-1E+10	1	-1E+10	1	-1E+10	1	-1E+10	1	-1E+10	1	-1E+10	1
4902551	116	C	11/01/2023	11:58	-130.913	46.938	0	587.90	0	4.2560	0	34.1270	0	27.070	0	582.197	0	22.2	4	7.0	4	-1E+10	1	-1E+10	1	-1E+10	1	-1E+10	1	-1E+10	1	-1E+10	1
4902551	116	C	11/01/2023	11:58	-130.913	46.938	0	593.00	0	4.2410	0	34.1330	0	27.076	0	587.240	0	22.0	4	7.0	4	-1E+10	1	-1E+10	1	-1E+10	1	-1E+10	1	-1E+10	1	-1E+10	1
4902551	116	C	11/01/2023	11:58	-130.913	46.938	0	598.20	0	4.1830	0	34.1330	0	27.082	0	592.382	0	21.8	4	6.9	4	-1E+10	1	-1E+10	1	-1E+10	1	-1E+10	1	-1E+10	1	-1E+10	1
4902551	116	C	11/01/2023	11:58	-130.913	46.938	0	602.90	0	4.1690	0	34.1380	0	27.088	0	597.030	0	21.6	4	6.8	4	-1E+10	1	-1E+10	1	-1E+10	1	-1E+10	1	-1E+10	1	-1E+10	1
4902551	116	C	11/01/2023	11:58	-130.913	46.938	0	607.60	0	4.1430	0	34.1390	0	27.091	0	601.677	0	21.2	4	6.7	4	-1E+10	1	-1E+10	1	-1E+10	1	-1E+10	1	-1E+10	1	-1E+10	1
4902551	116	C	11/01/2023	11:58	-130.913	46.938	0	612.80	0	4.1290	0	34.1410	0	27.094	0	606.819	0	20.6	4	6.5	4	-1E+10	1	-1E+10	1	-1E+10	1	-1E+10	1	-1E+10	1	-1E+10	1
4902551	116	C	11/01/2023	11:58	-130.913	46.938	0	618.10	0	4.1000	0	34.1490	0	27.104	0	612.060	0	20.0	4	6.3	4	-1E+10	1	-1E+10	1	-1E+10	1	-1E+10	1	-1E+10	1	-1E+10	1
4902551	116	C	11/01/2023	11:58	-130.913	46.938	0	622.90	0	4.0830	0	34.1540	0	27.109	0	616.806	0	19.5	4	6.2	4	-1E+10	1	-1E+10	1	-1E+10	1	-1E+10	1	-1E+10	1	-1E+10	1
4902551	116	C	11/01/2023	11:58	-130.913	46.938	0	627.70	0	4.0590	0	34.1610	0	27.117	0	621.551	0	19.1	4	6.1	4	-1E+10	1	-1E+10	1	-1E+10	1	-1E+10	1	-1E+10	1	-1E+10	1
4902551	116	C	11/01/2023	11:58	-130.913	46.938	0	632.50	0	4.0330	0	34.1650	0	27.123	0	626.297	0	18.9	4	6.0	4	-1E+10	1	-1E+10	1	-1E+10	1	-1E+10	1	-1E+10	1	-1E+10	1
4902551	116	C	11/01/2023	11:58	-130.913	46.938	0	637.90	0	4.0100	0	34.1680	0	27.128	0	631.636	0	18.5	4	5.8	4	-1E+10	1	-1E+10	1	-1E+10	1	-1E+10	1	-1E+10	1	-1E+10	1
4902551	116	C	11/01/2023	11:58	-130.913	46.938	0	643.40	0	4.0020	0	34.1710	0	27.131	0	637.074	0	18.0	4	5.7	4	-1E+10	1	-1E+10	1	-1E+10	1	-1E+10	1	-1E+10	1	-1E+10	1
4902551	116	C	11/01/2023	11:58	-130.913	46.938	0	647.90	0	3.9860	0	34.1760	0	27.137	0	641.522	0	17.6	4	5.5	4	-1E+10	1	-1E+10	1	-1E+10	1	-1E+10	1	-1E+10	1	-1E+10	1
4902551	116	C	11/01/2023	11:58	-130.913	46.938	0	652.50	0	3.9840	0	34.1810	0	27.141	0	646.070	0	17.2	4	5.4	4	-1E+10	1	-1E+10	1	-1E+10	1	-1E+10	1	-1E+10	1	-1E+10	1
4902551	116	C	11/01/2023	11:58	-130.913	46.938	0	657.60	0	3.9780	0	34.1840	0	27.144	0	651.112	0	16.8	4	5.3	4	-1E+10	1	-1E+10	1	-1E+10	1	-1E+10	1	-1E+10	1	-1E+10	1
4902551	116	C	11/01/2023	11:58	-130.913	46.938	0	662.80	0	3.9680	0	34.1890	0	27.149	0	656.252	0	16.5	4	5.2	4	-1E+10	1	-1E+10	1	-1E+10	1	-1E+10	1	-1E+10	1	-1E+10	1
4902551	116	C	11/01/2023	11:58	-130.913	46.938	0	668.20	0	3.9590	0	34.1920	0	27.153	0	661.590	0	16.3	4	5.1	4	-1E+10	1	-1E+10	1	-1E+10	1	-1E+10	1	-1E+10	1	-1E+10	1
4902551	116	C	11/01/2023	11:58	-130.913	46.938	0	673.20	0	3.9530	0	34.1950	0	27.156	0	666.533	0	16.2	4	5.1	4	-1E+10	1	-1E+10	1	-1E+10	1	-1E+10	1	-1E+10	1	-1E+10	1
4902551	116	C	11/01/2023	11:58	-130.913	46.938	0	677.80	0	3.9470	0	34.1950	0	27.156	0	671.080	0	16.0	4	5.1	4	-1E+10	1	-1E+10	1	-1E+10	1	-1E+10	1	-1E+10	1	-1E+10	1
4902551	116	C	11/01/2023	11:58	-130.913	46.938	0	682.80	0	3.9360	0	34.1990	0	27.161	0	676.022	0	15.8	4	5.0	4	-1E+10	1	-1E+10	1	-1E+10	1	-1E+10	1	-1E+10	1	-1E+10	1
4902551	116	C	11/01/2023	11:58	-130.913	46.938	0	687.90	0	3.9250	0	34.2020	0	27.164	0	681.063	0	15.7	4	5.0	4	-1E+10	1	-1E+10	1	-1E+10	1	-1E+10	1	-1E+10	1	-1E+10	1
4902551	116	C	11/01/2023	11:58	-130.913	46.938	0	693.10	0	3.9130	0	34.2040	0	27.167	0	686.203	0	15.7	4	4.9	4	-1E+10	1	-1E+10	1	-1E+10	1	-1E+10	1	-1E+10	1	-1E+10	1
4902551	116	C	11/01/2023	11:58	-130.913	46.938	0	698.00	0	3.8970	0	34.2050	0	27.169	0	691.046	0	15.6	4	4.9	4	-1E+10	1	-1E+10	1	-1E+10	1	-1E+10	1	-1E+10	1	-1E+10	1
4902551	116	C	11/01/2023	11:58	-130.913	46.938	0	702.90	0	3.8780	0	34.2080	0	27.174	0	695.889	0	15.5	4	4.9	4	-1E+10	1	-1E+10	1	-1E+10	1	-1E+10	1	-1E+10	1	-1E+10	1
4902551	116	C	11/01/2023	11:58	-130.913	46.938	0	707.90	0	3.8600	0	34.2110	0	27.178	0	700.831	0	15.4	4	4.8	4	-1E+10	1	-1E+10	1	-1E+10	1	-1E+10	1	-1E+10	1	-1E+10	1
4902551	116	C	11/01/2023	11:58	-130.913	46.938	0	712.90	0	3.8440	0	34.2130	0	27.181	0	705.773	0	15.3	4	4.8	4	-1E+10	1	-1E+10	1	-1E+10	1	-1E+10	1	-1E+10	1	-1E+10	1
4902551	116	C	11/01/2023	11:58	-130.913	46.938	0	717.90	0	3.8390	0	34.2150	0	27.183	0	710.714	0	15.2	4	4.8	4	-1E+10	1	-1E+10	1	-1E+10	1	-1E+10	1	-1E+10	1	-1E+10	1
4902551	116	C	11/01/2023	11:58	-130.913	46.938	0	722.60	0	3.8320	0	34.2180	0	27.186	0	715.359	0	15.1	4	4.8	4	-1E+10	1	-1E+10	1	-1E+10	1	-1E+10	1	-1E+10	1	-1E+10	1
4902551	116	C	11/01/2023	11:58	-130.913	46.938	0	727.80	0	3.8250	0	34.2190	0	27.188	0	720.498	0	15.2	4	4.8	4	-1E+10	1	-1E+10	1	-1E+10	1	-1E+10	1	-1E+10	1	-1E+10	1
4902551	116	C	11/01/2023	11:58	-130.913	46.938	0	733.20	0	3.8120	0	34.2180	0	27.189	0	725.834	0	15.1	4	4.8	4	-1E+10	1	-1E+10	1	-1E+10	1	-1E+10	1	-1E+10	1	-1E+10	1
4902551	116	C	11/01/2023	11:58	-130.913	46.938	0	738.10	0	3.7990	0	34.2200	0	27.191	0	730.677	0	15.0	4	4.7	4	-1E+10	1	-1E+10	1	-1E+10	1	-1E+10	1	-1E+10	1	-1E+10	1
4902551	116	C	11/01/2023	11:58	-130.913	46.938	0	743.00	0	3.7850	0	34.2220	0	27.194	0	735.519	0	14.8	4	4.7	4	-1E+10	1	-1E+10	1	-1E+10	1	-1E+10	1	-1E+10	1	-1E+10	1
4902551	116	C	11/01/2023	11:58	-130.913	46.938	0	748.00	0	3.7660	0	34.2260	0	27.200	0	740.459	0	14.6	4	4.6	4	-1E+10	1	-1E+10	1	-1E+10	1	-1E+10	1	-1E+10	1	-1E+10	1
4902551	116	C	11/01/2023	11:58	-130.913	46.938	0	752.90	0	3.7510	0	34.2300	0	27.204	0	745.301	0	14.4	4	4.5	4	-1E+10	1	-1E+10	1	-1E+10	1	-1E+10	1	-1E+10	1	-1E+10	1
4902551	116	C	11/01/2023	11:58	-130.913	46.938	0	757.90	0	3.7360	0	34.2330	0	27.208	0	750.242	0	14.2	4	4.5	4	-1E+10	1	-1E+10	1	-1E+10	1	-1E+10	1	-1E+10	1	-1E+10	1
4902551	116	C	11/01/2023	11:58	-130.913	46.938	0	762.80	0	3.7230	0	34.2360	0	27.212	0	755.083	0	13.8	4	4.3	4	-1E+10	1	-1E+10	1	-1E+10	1	-1E+10	1	-1E+10	1	-1E+10	1
4902551	116	C	11/01/2023	11:58	-130.913	46.938	0	767.80	0	3.7230	0	34.2380	0	27.214	0	760.024	0	13.2	4	4.1	4	-1E+10	1	-1E+10	1	-1E+10	1	-1E+10	1	-1E+10	1	-1E+10	1
4902551	116	C	11/01/2023	11:58	-130.913	46.938	0	772.80	0	3.7550	0	34.2480	0	27.218	0	764.964	0	12.3	4	3.9	4	-1E+10	1	-1E+10	1	-1E+10	1	-1E+10	1	-1E+10	1	-1E+10	1
4902551	116	C	11/01/2023	11:58	-130.913	46.938	0	777.70	0	3.7560	0	34.2560	0	27.225	0	769.805	0	12.0	4	3.8	4	-1E+10	1	-1E+10	1	-1E+10	1	-1E+10	1	-1E+10	1	-1E+10	1
4902551	116	C	11/01/2023	11:58	-130.913	46.938	0	782.70	0	3.7700	0	34.2650	0	27.231	0	774.745	0	11.8	4	3.7	4	-1E+10	1	-1E+10	1	-1E+10	1	-1E+10	1	-1E+10	1	-1E+10	1
4902551	116	C	11/01/2023	11:58	-130.913	46.938	0	787.70	0	3.7630	0	34.2690	0	27.234	0	779.685	0	12.0	4	3.8	4	-1E+10	1	-1E+10	1	-1E+10	1	-1E+10	1	-1E+10	1	-1E+10	1
4902551	116	C	11/01/2023	11:58	-130.913	46.938	0	792.70	0	3.7430	0	34.2730	0	27.240	0	784.625	0	12.2	4	3.8	4	-1E+10	1	-1E+10	1	-1E+10	1	-1E+10	1	-1E+10	1	-1E+10	1
4902551	116	C	11/01/2023	11:58	-130.913	46.938	0	797.70	0	3.7040	0	34.2680	0	27.240	0	789.564	0	12.5	4	3.9	4	-1E+10	1	-1E+10	1	-1E+10	1	-1E+10	1	-1E+10	1	-1E+10	1
4902551	116	C	11/01/2023	11:58	-130.913	46.938	0	802.60	0	3.6280	0	34.2660	0	27.245	0	794.405	0	12.5	4	3.9	4	-1E+10	1	-1E+10	1	-1E+10	1	-1E+10	1	-1E+10	1	-1E+10	1
4902551	116	C	11/01/2023	11:58	-130.913	46.938	0	807.60	0	3.6400	0	34.2700	0	27.247	0	799.345	0	12.2	4	3.8	4	-1E+10	1	-1E+10	1	-1E+10	1	-1E+10	1	-1E+10	1	-1E+10	1
4902551	116	C	11/01/2023	11:58	-130.913	46.938	0	812.60	0	3.6210	0	34.2730	0	27.252	0	804.284	0	12.0	4	3.8	4	-1E+10	1	-1E+10	1	-1E+10	1	-1E+10	1	-1E+10	1	-1E+10	1
4902551	116	C	11/01/2023	11:58	-130.913	46.938	0	817.60	0	3.6370	0	34.2810	0	27.257	0	809.223	0	11.9	4	3.7	4	-1E+10	1	-1E+10	1	-1E+10	1	-1E+10	1	-1E+10	1	-1E+10	1
4902551	116	C	11/01/2023	11:58	-130.913	46.938	0	822.70	0	3.6110	0	34.2830	0	27.261	0	814.261	0	11.9	4	3.7	4	-1E+10	1	-1E+10	1	-1E+10	1	-1E+10	1	-1E+10	1	-1E+10	1
4902551	116	C	11/01/2023	11:58	-130.913	46.938	0	827.70	0	3.5930	0	34.2840	0	27.263	0	819.200	0	11.9	4	3.7	4	-1E+10	1	-1E+10	1	-1E+10	1	-1E+10	1	-1E+10	1	-1E+10	1
4902551	116	C	11/01/2023	11:58	-130.913	46.938	0	832.70	0	3.5750	0	34.2850	0	27.266	0	824.139	0	11.8	4	3.7	4	-1E+10	1	-1E+10	1	-1E+10	1	-1E+10	1	-1E+10	1	-1E+10	1
4902551	116	C	11/01/2023	11:58	-130.913	46.938	0	837.70	0	3.5560	0	34.2870	0	27.269	0	829.077	0	11.7	4	3.7	4	-1E+10	1	-1E+10	1	-1E+10	1	-1E+10	1	-1E+10	1	-1E+10	1
4902551	116	C	11/01/2023	11:58	-130.913	46.938	0	842.70	0	3.5480	0	34.2900	0	27.273	0	834.016	0	11.5	4	3.6	4	-1E+10	1	-1E+10	1	-1E+10	1	-1E+10	1	-1E+10	1	-1E+10	1
4902551	116	C	11/01/2023	11:58	-130.913	46.938	0	847.70	0	3.5580	0	34.2930	0	27.274	0	838.954	0	11.2	4	3.5	4	-1E+10	1	-1E+10	1	-1E+10	1	-1E+10	1	-1E+10	1	-1E+10	1
4902551	116	C	11/01/2023	11:58	-130.913	46.938	0	852.80	0	3.5540	0	34.2990	0	27.279	0	843.991	0	10.8	4	3.4	4	-1E+10	1	-1E+10	1	-1E+10	1	-1E+10	1	-1E+10	1	-1E+10	1
4902551	116	C	11/01/2023	11:58	-130.913	46.938	0	857.90	0	3.5720	0	34.3080	0	27.285	0	849.028	0	10.6	4	3.3	4	-1E+10	1	-1E+10	1	-1E+10	1	-1E+10	1	-1E+10	1	-1E+10	1
4902551	116	C	11/01/2023	11:58	-130.913	46.938	0	862.70	0	3.5690	0	34.3100	0	27.287	0	853.769	0	10.7	4	3.3	4	-1E+10	1	-1E+10	1	-1E+10	1	-1E+10	1	-1E+10	1	-1E+10	1
4902551	116	C	11/01/2023	11:58	-130.913	46.938	0	867.50	0	3.5490	0	34.3100	0	27.289	0	858.509	0	10.7	4	3.4	4	-1E+10	1	-1E+10	1	-1E+10	1	-1E+10	1	-1E+10	1	-1E+10	1
4902551	116	C	11/01/2023	11:58	-130.913	46.938	0	872.60	0	3.5330	0	34.3120	0	27.292	0	863.546	0	10.6	4	3.3	4	-1E+10	1	-1E+10	1	-1E+10	1	-1E+10	1	-1E+10	1	-1E+10	1
4902551	116	C	11/01/2023	11:58	-130.913	46.938	0	877.70	0	3.5200	0	34.3120	0	27.293	0	868.582	0	10.4	4	3.2	4	-1E+10	1	-1E+10	1	-1E+10	1	-1E+10	1	-1E+10	1	-1E+10	1
4902551	116	C	11/01/2023	11:58	-130.913	46.938	0	882.90	0	3.5510	0	34.3230	0	27.299	0	873.718	0	10.2	4	3.2	4	-1E+10	1	-1E+10	1	-1E+10	1	-1E+10	1	-1E+10	1	-1E+10	1
4902551	116	C	11/01/2023	11:58	-130.913	46.938	0	887.90	0	3.5180	0	34.3240	0	27.303	0	878.655	0	10.2	4	3.2	4	-1E+10	1	-1E+10	1	-1E+10	1	-1E+10	1	-1E+10	1	-1E+10	1
4902551	116	C	11/01/2023	11:58	-130.913	46.938	0	892.90	0	3.5050	0	34.3290	0	27.308	0	883.592	0	10.2	4	3.2	4	-1E+10	1	-1E+10	1	-1E+10	1	-1E+10	1	-1E+10	1	-1E+10	1
4902551	116	C	11/01/2023	11:58	-130.913	46.938	0	898.00	0	3.4940	0	34.3340	0	27.313	0	888.628	0	10.2	4	3.2	4	-1E+10	1	-1E+10	1	-1E+10	1	-1E+10	1	-1E+10	1	-1E+10	1
4902551	116	C	11/01/2023	11:58	-130.913	46.938	0	902.70	0	3.4770	0	34.3350	0	27.316	0	893.269	0	10.3	4	3.2	4	-1E+10	1	-1E+10	1	-1E+10	1	-1E+10	1	-1E+10	1	-1E+10	1
4902551	116	C	11/01/2023	11:58	-130.913	46.938	0	907.50	0	3.4590	0	34.3360	0	27.318	0	898.009	0	10.5	4	3.3	4	-1E+10	1	-1E+10	1	-1E+10	1	-1E+10	1	-1E+10	1	-1E+10	1
4902551	116	C	11/01/2023	11:58	-130.913	46.938	0	912.90	0	3.4240	0	34.3350	0	27.321	0	903.341	0	10.6	4	3.3	4	-1E+10	1	-1E+10	1	-1E+10	1	-1E+10	1	-1E+10	1	-1E+10	1
4902551	116	C	11/01/2023	11:58	-130.913	46.938	0	918.40	0	3.3920	0	34.3350	0	27.324	0	908.771	0	10.5	4	3.3	4	-1E+10	1	-1E+10	1	-1E+10	1	-1E+10	1	-1E+10	1	-1E+10	1
4902551	116	C	11/01/2023	11:58	-130.913	46.938	0	922.90	0	3.3930	0	34.3380	0	27.326	0	913.214	0	10.4	4	3.2	4	-1E+10	1	-1E+10	1	-1E+10	1	-1E+10	1	-1E+10	1	-1E+10	1
4902551	116	C	11/01/2023	11:58	-130.913	46.938	0	927.50	0	3.4090	0	34.3420	0	27.328	0	917.756	0	10.3	4	3.2	4	-1E+10	1	-1E+10	1	-1E+10	1	-1E+10	1	-1E+10	1	-1E+10	1
4902551	116	C	11/01/2023	11:58	-130.913	46.938	0	932.70	0	3.4310	0	34.3480	0	27.331	0	922.890	0	10.3	4	3.2	4	-1E+10	1	-1E+10	1	-1E+10	1	-1E+10	1	-1E+10	1	-1E+10	1
4902551	116	C	11/01/2023	11:58	-130.913	46.938	0	937.90	0	3.3890	0	34.3480	0	27.335	0	928.024	0	10.4	4	3.2	4	-1E+10	1	-1E+10	1	-1E+10	1	-1E+10	1	-1E+10	1	-1E+10	1
4902551	116	C	11/01/2023	11:58	-130.913	46.938	0	943.20	0	3.3730	0	34.3490	0	27.337	0	933.256	0	10.4	4	3.2	4	-1E+10	1	-1E+10	1	-1E+10	1	-1E+10	1	-1E+10	1	-1E+10	1
4902551	116	C	11/01/2023	11:58	-130.913	46.938	0	948.00	0	3.3670	0	34.3510	0	27.339	0	937.995	0	10.4	4	3.3	4	-1E+10	1	-1E+10	1	-1E+10	1	-1E+10	1	-1E+10	1	-1E+10	1
4902551	116	C	11/01/2023	11:58	-130.913	46.938	0	952.90	0	3.3620	0	34.3520	0	27.340	0	942.832	0	10.4	4	3.3	4	-1E+10	1	-1E+10	1	-1E+10	1	-1E+10	1	-1E+10	1	-1E+10	1
4902551	116	C	11/01/2023	11:58	-130.913	46.938	0	957.80	0	3.3560	0	34.3530	0	27.342	0	947.669	0	10.5	4	3.3	4	-1E+10	1	-1E+10	1	-1E+10	1	-1E+10	1	-1E+10	1	-1E+10	1
4902551	116	C	11/01/2023	11:58	-130.913	46.938	0	962.60	0	3.3450	0	34.3550	0	27.345	0	952.407	0	10.5	4	3.3	4	-1E+10	1	-1E+10	1	-1E+10	1	-1E+10	1	-1E+10	1	-1E+10	1
4902551	116	C	11/01/2023	11:58	-130.913	46.938	0	968.10	0	3.3340	0	34.3550	0	27.346	0	957.837	0	10.6	4	3.3	4	-1E+10	1	-1E+10	1	-1E+10	1	-1E+10	1	-1E+10	1	-1E+10	1
4902551	116	C	11/01/2023	11:58	-130.913	46.938	0	973.00	0	3.3240	0	34.3560	0	27.347	0	962.673	0	10.6	4	3.3	4	-1E+10	1	-1E+10	1	-1E+10	1	-1E+10	1	-1E+10	1	-1E+10	1
4902551	116	C	11/01/2023	11:58	-130.913	46.938	0	977.90	0	3.3170	0	34.3560	0	27.348	0	967.510	0	10.6	4	3.3	4	-1E+10	1	-1E+10	1	-1E+10	1	-1E+10	1	-1E+10	1	-1E+10	1
4902551	116	C	11/01/2023	11:58	-130.913	46.938	0	982.80	0	3.3100	0	34.3570	0	27.350	0	972.347	0	10.6	4	3.3	4	-1E+10	1	-1E+10	1	-1E+10	1	-1E+10	1	-1E+10	1	-1E+10	1
4902551	116	C	11/01/2023	11:58	-130.913	46.938	0	987.80	0	3.2970	0	34.3590	0	27.352	0	977.282	0	10.7	4	3.3	4	-1E+10	1	-1E+10	1	-1E+10	1	-1E+10	1	-1E+10	1	-1E+10	1
4902551	116	C	11/01/2023	11:58	-130.913	46.938	0	992.70	0	3.2830	0	34.3610	0	27.355	0	982.118	0	10.7	4	3.3	4	-1E+10	1	-1E+10	1	-1E+10	1	-1E+10	1	-1E+10	1	-1E+10	1
4902551	116	C	11/01/2023	11:58	-130.913	46.938	0	997.60	0	3.2770	0	34.3620	0	27.357	0	986.954	0	10.7	4	3.3	4	-1E+10	1	-1E+10	1	-1E+10	1	-1E+10	1	-1E+10	1	-1E+10	1
4902551	116	C	11/01/2023	11:58	-130.913	46.938	0	1005.30	0	3.2580	0	34.3640	0	27.360	0	994.554	0	10.8	4	3.4	4	-1E+10	1	-1E+10	1	-1E+10	1	-1E+10	1	-1E+10	1	-1E+10	1
4902551	116	C	11/01/2023	11:58	-130.913	46.938	0	1015.20	0	3.2290	0	34.3690	0	27.367	0	1004.324	0	10.9	4	3.4	4	-1E+10	1	-1E+10	1	-1E+10	1	-1E+10	1	-1E+10	1	-1E+10	1
4902551	116	C	11/01/2023	11:58	-130.913	46.938	0	1025.50	0	3.2120	0	34.3720	0	27.371	0	1014.489	0	10.9	4	3.4	4	-1E+10	1	-1E+10	1	-1E+10	1	-1E+10	1	-1E+10	1	-1E+10	1
4902551	116	C	11/01/2023	11:58	-130.913	46.938	0	1035.50	0	3.1970	0	34.3760	0	27.376	0	1024.357	0	11.0	4	3.4	4	-1E+10	1	-1E+10	1	-1E+10	1	-1E+10	1	-1E+10	1	-1E+10	1
4902551	116	C	11/01/2023	11:58	-130.913	46.938	0	1045.30	0	3.1810	0	34.3790	0	27.379	0	1034.028	0	11.1	4	3.4	4	-1E+10	1	-1E+10	1	-1E+10	1	-1E+10	1	-1E+10	1	-1E+10	1
4902551	116	C	11/01/2023	11:58	-130.913	46.938	0	1055.30	0	3.1720	0	34.3810	0	27.382	0	1043.895	0	11.1	4	3.4	4	-1E+10	1	-1E+10	1	-1E+10	1	-1E+10	1	-1E+10	1	-1E+10	1
4902551	116	C	11/01/2023	11:58	-130.913	46.938	0	1065.40	0	3.1570	0	34.3870	0	27.388	0	1053.861	0	11.3	4	3.5	4	-1E+10	1	-1E+10	1	-1E+10	1	-1E+10	1	-1E+10	1	-1E+10	1
4902551	116	C	11/01/2023	11:58	-130.913	46.938	0	1075.30	0	3.1470	0	34.3910	0	27.392	0	1063.628	0	11.4	4	3.5	4	-1E+10	1	-1E+10	1	-1E+10	1	-1E+10	1	-1E+10	1	-1E+10	1
4902551	116	C	11/01/2023	11:58	-130.913	46.938	0	1085.40	0	3.1080	0	34.3970	0	27.401	0	1073.593	0	11.6	4	3.6	4	-1E+10	1	-1E+10	1	-1E+10	1	-1E+10	1	-1E+10	1	-1E+10	1
4902551	116	C	11/01/2023	11:58	-130.913	46.938	0	1095.30	0	3.0640	0	34.3990	0	27.406	0	1083.360	0	11.8	4	3.6	4	-1E+10	1	-1E+10	1	-1E+10	1	-1E+10	1	-1E+10	1	-1E+10	1
4902551	116	C	11/01/2023	11:58	-130.913	46.938	0	1105.50	0	3.0490	0	34.4040	0	27.412	0	1093.422	0	12.0	4	3.7	4	-1E+10	1	-1E+10	1	-1E+10	1	-1E+10	1	-1E+10	1	-1E+10	1
4902551	116	C	11/01/2023	11:58	-130.913	46.938	0	1115.40	0	3.0090	0	34.4060	0	27.417	0	1103.188	0	12.2	4	3.8	4	-1E+10	1	-1E+10	1	-1E+10	1	-1E+10	1	-1E+10	1	-1E+10	1
4902551	116	C	11/01/2023	11:58	-130.913	46.938	0	1125.10	0	2.9930	0	34.4110	0	27.423	0	1112.756	0	12.4	4	3.8	4	-1E+10	1	-1E+10	1	-1E+10	1	-1E+10	1	-1E+10	1	-1E+10	1
4902551	116	C	11/01/2023	11:58	-130.913	46.938	0	1135.50	0	3.0020	0	34.4170	0	27.427	0	1123.014	0	12.7	4	3.9	4	-1E+10	1	-1E+10	1	-1E+10	1	-1E+10	1	-1E+10	1	-1E+10	1
4902551	116	C	11/01/2023	11:58	-130.913	46.938	0	1145.80	0	3.0200	0	34.4240	0	27.431	0	1133.173	0	12.8	4	4.0	4	-1E+10	1	-1E+10	1	-1E+10	1	-1E+10	1	-1E+10	1	-1E+10	1
4902551	116	C	11/01/2023	11:58	-130.913	46.938	0	1155.70	0	2.9660	0	34.4220	0	27.434	0	1142.937	0	13.0	4	4.0	4	-1E+10	1	-1E+10	1	-1E+10	1	-1E+10	1	-1E+10	1	-1E+10	1
4902551	116	C	11/01/2023	11:58	-130.913	46.938	0	1165.80	0	2.9750	0	34.4290	0	27.439	0	1152.898	0	13.4	4	4.1	4	-1E+10	1	-1E+10	1	-1E+10	1	-1E+10	1	-1E+10	1	-1E+10	1
4902551	116	C	11/01/2023	11:58	-130.913	46.938	0	1175.60	0	2.9830	0	34.4350	0	27.443	0	1162.562	0	13.4	4	4.1	4	-1E+10	1	-1E+10	1	-1E+10	1	-1E+10	1	-1E+10	1	-1E+10	1
4902551	116	C	11/01/2023	11:58	-130.913	46.938	0	1185.60	0	2.9200	0	34.4290	0	27.444	0	1172.423	0	13.3	4	4.1	4	-1E+10	1	-1E+10	1	-1E+10	1	-1E+10	1	-1E+10	1	-1E+10	1
4902551	116	C	11/01/2023	11:58	-130.913	46.938	0	1195.70	0	2.8870	0	34.4290	0	27.447	0	1182.383	0	13.5	4	4.2	4	-1E+10	1	-1E+10	1	-1E+10	1	-1E+10	1	-1E+10	1	-1E+10	1
4902551	116	C	11/01/2023	11:58	-130.913	46.938	0	1205.40	0	2.8930	0	34.4330	0	27.450	0	1191.947	0	13.9	4	4.3	4	-1E+10	1	-1E+10	1	-1E+10	1	-1E+10	1	-1E+10	1	-1E+10	1
4902551	116	C	11/01/2023	11:58	-130.913	46.938	0	1215.10	0	2.8990	0	34.4390	0	27.454	0	1201.511	0	14.1	4	4.3	4	-1E+10	1	-1E+10	1	-1E+10	1	-1E+10	1	-1E+10	1	-1E+10	1
4902551	116	C	11/01/2023	11:58	-130.913	46.938	0	1225.30	0	2.8740	0	34.4400	0	27.457	0	1211.568	0	14.2	4	4.4	4	-1E+10	1	-1E+10	1	-1E+10	1	-1E+10	1	-1E+10	1	-1E+10	1
4902551	116	C	11/01/2023	11:58	-130.913	46.938	0	1235.60	0	2.8420	0	34.4410	0	27.461	0	1221.722	0	14.4	4	4.4	4	-1E+10	1	-1E+10	1	-1E+10	1	-1E+10	1	-1E+10	1	-1E+10	1
4902551	116	C	11/01/2023	11:58	-130.913	46.938	0	1245.70	0	2.8270	0	34.4430	0	27.464	0	1231.679	0	14.7	4	4.5	4	-1E+10	1	-1E+10	1	-1E+10	1	-1E+10	1	-1E+10	1	-1E+10	1
4902551	116	C	11/01/2023	11:58	-130.913	46.938	0	1255.60	0	2.8180	0	34.4480	0	27.468	0	1241.439	0	15.2	4	4.7	4	-1E+10	1	-1E+10	1	-1E+10	1	-1E+10	1	-1E+10	1	-1E+10	1
4902551	116	C	11/01/2023	11:58	-130.913	46.938	0	1265.40	0	2.8050	0	34.4520	0	27.473	0	1251.099	0	15.4	4	4.7	4	-1E+10	1	-1E+10	1	-1E+10	1	-1E+10	1	-1E+10	1	-1E+10	1
4902551	116	C	11/01/2023	11:58	-130.913	46.938	0	1275.30	0	2.7830	0	34.4540	0	27.476	0	1260.858	0	15.8	4	4.9	4	-1E+10	1	-1E+10	1	-1E+10	1	-1E+10	1	-1E+10	1	-1E+10	1
4902551	116	C	11/01/2023	11:58	-130.913	46.938	0	1285.40	0	2.7650	0	34.4570	0	27.480	0	1270.813	0	16.4	4	5.0	4	-1E+10	1	-1E+10	1	-1E+10	1	-1E+10	1	-1E+10	1	-1E+10	1
4902551	116	C	11/01/2023	11:58	-130.913	46.938	0	1295.50	0	2.7610	0	34.4630	0	27.486	0	1280.767	0	17.1	4	5.2	4	-1E+10	1	-1E+10	1	-1E+10	1	-1E+10	1	-1E+10	1	-1E+10	1
4902551	116	C	11/01/2023	11:58	-130.913	46.938	0	1305.50	0	2.7630	0	34.4680	0	27.490	0	1290.623	0	17.5	4	5.4	4	-1E+10	1	-1E+10	1	-1E+10	1	-1E+10	1	-1E+10	1	-1E+10	1
4902551	116	C	11/01/2023	11:58	-130.913	46.938	0	1315.20	0	2.7580	0	34.4700	0	27.492	0	1300.183	0	17.8	4	5.5	4	-1E+10	1	-1E+10	1	-1E+10	1	-1E+10	1	-1E+10	1	-1E+10	1
4902551	116	C	11/01/2023	11:58	-130.913	46.938	0	1325.10	0	2.7370	0	34.4720	0	27.495	0	1309.939	0	18.4	4	5.6	4	-1E+10	1	-1E+10	1	-1E+10	1	-1E+10	1	-1E+10	1	-1E+10	1
4902551	116	C	11/01/2023	11:58	-130.913	46.938	0	1335.00	0	2.7240	0	34.4760	0	27.500	0	1319.695	0	18.9	4	5.8	4	-1E+10	1	-1E+10	1	-1E+10	1	-1E+10	1	-1E+10	1	-1E+10	1
4902551	116	C	11/01/2023	11:58	-130.913	46.938	0	1345.20	0	2.7180	0	34.4790	0	27.503	0	1329.745	0	19.3	4	5.9	4	-1E+10	1	-1E+10	1	-1E+10	1	-1E+10	1	-1E+10	1	-1E+10	1
4902551	116	C	11/01/2023	11:58	-130.913	46.938	0	1355.60	0	2.7020	0	34.4810	0	27.506	0	1339.993	0	19.8	4	6.1	4	-1E+10	1	-1E+10	1	-1E+10	1	-1E+10	1	-1E+10	1	-1E+10	1
4902551	116	C	11/01/2023	11:58	-130.913	46.938	0	1365.60	0	2.6800	0	34.4840	0	27.510	0	1349.846	0	20.1	4	6.2	4	-1E+10	1	-1E+10	1	-1E+10	1	-1E+10	1	-1E+10	1	-1E+10	1
4902551	116	C	11/01/2023	11:58	-130.913	46.938	0	1375.30	0	2.6610	0	34.4850	0	27.512	0	1359.403	0	20.2	4	6.2	4	-1E+10	1	-1E+10	1	-1E+10	1	-1E+10	1	-1E+10	1	-1E+10	1
4902551	116	C	11/01/2023	11:58	-130.913	46.938	0	1385.20	0	2.6440	0	34.4850	0	27.514	0	1369.156	0	20.2	4	6.2	4	-1E+10	1	-1E+10	1	-1E+10	1	-1E+10	1	-1E+10	1	-1E+10	1
4902551	116	C	11/01/2023	11:58	-130.913	46.938	0	1395.10	0	2.6190	0	34.4840	0	27.515	0	1378.909	0	20.3	4	6.2	4	-1E+10	1	-1E+10	1	-1E+10	1	-1E+10	1	-1E+10	1	-1E+10	1
4902551	116	C	11/01/2023	11:58	-130.913	46.938	0	1405.30	0	2.5980	0	34.4860	0	27.519	0	1388.957	0	20.6	4	6.3	4	-1E+10	1	-1E+10	1	-1E+10	1	-1E+10	1	-1E+10	1	-1E+10	1
4902551	116	C	11/01/2023	11:58	-130.913	46.938	0	1415.20	0	2.5810	0	34.4860	0	27.520	0	1398.709	0	21.0	4	6.4	4	-1E+10	1	-1E+10	1	-1E+10	1	-1E+10	1	-1E+10	1	-1E+10	1
4902551	116	C	11/01/2023	11:58	-130.913	46.938	0	1425.50	0	2.5760	0	34.4900	0	27.524	0	1408.855	0	21.5	4	6.6	4	-1E+10	1	-1E+10	1	-1E+10	1	-1E+10	1	-1E+10	1	-1E+10	1
4902551	116	C	11/01/2023	11:58	-130.913	46.938	0	1435.50	0	2.5520	0	34.4900	0	27.526	0	1418.705	0	21.7	4	6.6	4	-1E+10	1	-1E+10	1	-1E+10	1	-1E+10	1	-1E+10	1	-1E+10	1
4902551	116	C	11/01/2023	11:58	-130.913	46.938	0	1445.30	0	2.5300	0	34.4920	0	27.529	0	1428.357	0	22.2	4	6.8	4	-1E+10	1	-1E+10	1	-1E+10	1	-1E+10	1	-1E+10	1	-1E+10	1
4902551	116	C	11/01/2023	11:58	-130.913	46.938	0	1455.00	0	2.5170	0	34.4940	0	27.532	0	1437.910	0	22.7	4	6.9	4	-1E+10	1	-1E+10	1	-1E+10	1	-1E+10	1	-1E+10	1	-1E+10	1
4902551	116	C	11/01/2023	11:58	-130.913	46.938	0	1465.10	0	2.5030	0	34.4960	0	27.535	0	1447.857	0	23.3	4	7.1	4	-1E+10	1	-1E+10	1	-1E+10	1	-1E+10	1	-1E+10	1	-1E+10	1
4902551	116	C	11/01/2023	11:58	-130.913	46.938	0	1475.40	0	2.4820	0	34.4990	0	27.539	0	1458.000	0	23.9	4	7.3	4	-1E+10	1	-1E+10	1	-1E+10	1	-1E+10	1	-1E+10	1	-1E+10	1
4902551	116	C	11/01/2023	11:58	-130.913	46.938	0	1485.50	0	2.4670	0	34.5010	0	27.542	0	1467.946	0	24.3	4	7.4	4	-1E+10	1	-1E+10	1	-1E+10	1	-1E+10	1	-1E+10	1	-1E+10	1
4902551	116	C	11/01/2023	11:58	-130.913	46.938	0	1495.40	0	2.4600	0	34.5030	0	27.544	0	1477.694	0	24.6	4	7.5	4	-1E+10	1	-1E+10	1	-1E+10	1	-1E+10	1	-1E+10	1	-1E+10	1
4902551	116	C	11/01/2023	11:58	-130.913	46.938	0	1505.60	0	2.4510	0	34.5040	0	27.546	0	1487.738	0	25.0	4	7.6	4	-1E+10	1	-1E+10	1	-1E+10	1	-1E+10	1	-1E+10	1	-1E+10	1
4902551	116	C	11/01/2023	11:58	-130.913	46.938	0	1515.50	0	2.4400	0	34.5060	0	27.549	0	1497.485	0	25.5	4	7.8	4	-1E+10	1	-1E+10	1	-1E+10	1	-1E+10	1	-1E+10	1	-1E+10	1
4902551	116	C	11/01/2023	11:58	-130.913	46.938	0	1525.30	0	2.4310	0	34.5070	0	27.550	0	1507.134	0	25.9	4	7.9	4	-1E+10	1	-1E+10	1	-1E+10	1	-1E+10	1	-1E+10	1	-1E+10	1
4902551	116	C	11/01/2023	11:58	-130.913	46.938	0	1535.20	0	2.4200	0	34.5090	0	27.553	0	1516.880	0	26.4	4	8.0	4	-1E+10	1	-1E+10	1	-1E+10	1	-1E+10	1	-1E+10	1	-1E+10	1
4902551	116	C	11/01/2023	11:58	-130.913	46.938	0	1545.10	0	2.4060	0	34.5110	0	27.556	0	1526.626	0	26.9	4	8.2	4	-1E+10	1	-1E+10	1	-1E+10	1	-1E+10	1	-1E+10	1	-1E+10	1
4902551	116	C	11/01/2023	11:58	-130.913	46.938	0	1555.50	0	2.3960	0	34.5120	0	27.557	0	1536.864	0	27.4	4	8.3	4	-1E+10	1	-1E+10	1	-1E+10	1	-1E+10	1	-1E+10	1	-1E+10	1
4902551	116	C	11/01/2023	11:58	-130.913	46.938	0	1565.80	0	2.3860	0	34.5150	0	27.561	0	1547.003	0	27.9	4	8.5	4	-1E+10	1	-1E+10	1	-1E+10	1	-1E+10	1	-1E+10	1	-1E+10	1
4902551	116	C	11/01/2023	11:58	-130.913	46.938	0	1575.40	0	2.3750	0	34.5160	0	27.562	0	1556.453	0	28.3	4	8.6	4	-1E+10	1	-1E+10	1	-1E+10	1	-1E+10	1	-1E+10	1	-1E+10	1
4902551	116	C	11/01/2023	11:58	-130.913	46.938	0	1585.10	0	2.3650	0	34.5170	0	27.564	0	1566.000	0	28.7	4	8.7	4	-1E+10	1	-1E+10	1	-1E+10	1	-1E+10	1	-1E+10	1	-1E+10	1
4902551	116	C	11/01/2023	11:58	-130.913	46.938	0	1595.10	0	2.3560	0	34.5190	0	27.566	0	1575.843	0	29.1	4	8.8	4	-1E+10	1	-1E+10	1	-1E+10	1	-1E+10	1	-1E+10	1	-1E+10	1
4902551	116	C	11/01/2023	11:58	-130.913	46.938	0	1605.30	0	2.3460	0	34.5200	0	27.568	0	1585.881	0	29.6	4	9.0	4	-1E+10	1	-1E+10	1	-1E+10	1	-1E+10	1	-1E+10	1	-1E+10	1
4902551	116	C	11/01/2023	11:58	-130.913	46.938	0	1615.60	0	2.3380	0	34.5230	0	27.571	0	1596.018	0	30.6	4	9.3	4	-1E+10	1	-1E+10	1	-1E+10	1	-1E+10	1	-1E+10	1	-1E+10	1
4902551	116	C	11/01/2023	11:58	-130.913	46.938	0	1625.40	0	2.3220	0	34.5250	0	27.574	0	1605.662	0	31.2	4	9.5	4	-1E+10	1	-1E+10	1	-1E+10	1	-1E+10	1	-1E+10	1	-1E+10	1
4902551	116	C	11/01/2023	11:58	-130.913	46.938	0	1635.40	0	2.3110	0	34.5270	0	27.577	0	1615.502	0	32.1	4	9.7	4	-1E+10	1	-1E+10	1	-1E+10	1	-1E+10	1	-1E+10	1	-1E+10	1
4902551	116	C	11/01/2023	11:58	-130.913	46.938	0	1645.70	0	2.2920	0	34.5310	0	27.581	0	1625.638	0	33.0	4	10.0	4	-1E+10	1	-1E+10	1	-1E+10	1	-1E+10	1	-1E+10	1	-1E+10	1
4902551	116	C	11/01/2023	11:58	-130.913	46.938	0	1655.60	0	2.2820	0	34.5330	0	27.584	0	1635.379	0	33.9	4	10.3	4	-1E+10	1	-1E+10	1	-1E+10	1	-1E+10	1	-1E+10	1	-1E+10	1
4902551	116	C	11/01/2023	11:58	-130.913	46.938	0	1665.70	0	2.2730	0	34.5360	0	27.587	0	1645.316	0	34.9	4	10.6	4	-1E+10	1	-1E+10	1	-1E+10	1	-1E+10	1	-1E+10	1	-1E+10	1
4902551	116	C	11/01/2023	11:58	-130.913	46.938	0	1675.50	0	2.2520	0	34.5390	0	27.591	0	1654.958	0	35.8	4	10.9	4	-1E+10	1	-1E+10	1	-1E+10	1	-1E+10	1	-1E+10	1	-1E+10	1
4902551	116	C	11/01/2023	11:58	-130.913	46.938	0	1685.20	0	2.2280	0	34.5410	0	27.595	0	1664.501	0	36.7	4	11.1	4	-1E+10	1	-1E+10	1	-1E+10	1	-1E+10	1	-1E+10	1	-1E+10	1
4902551	116	C	11/01/2023	11:58	-130.913	46.938	0	1695.00	0	2.2140	0	34.5430	0	27.598	0	1674.142	0	37.5	4	11.4	4	-1E+10	1	-1E+10	1	-1E+10	1	-1E+10	1	-1E+10	1	-1E+10	1
4902551	116	C	11/01/2023	11:58	-130.913	46.938	0	1705.00	0	2.2040	0	34.5450	0	27.600	0	1683.979	0	38.4	4	11.6	4	-1E+10	1	-1E+10	1	-1E+10	1	-1E+10	1	-1E+10	1	-1E+10	1
4902551	116	C	11/01/2023	11:58	-130.913	46.938	0	1715.60	0	2.1950	0	34.5490	0	27.604	0	1694.406	0	39.3	4	11.9	4	-1E+10	1	-1E+10	1	-1E+10	1	-1E+10	1	-1E+10	1	-1E+10	1
4902551	116	C	11/01/2023	11:58	-130.913	46.938	0	1725.60	0	2.1800	0	34.5500	0	27.606	0	1704.243	0	39.9	4	12.1	4	-1E+10	1	-1E+10	1	-1E+10	1	-1E+10	1	-1E+10	1	-1E+10	1
4902551	116	C	11/01/2023	11:58	-130.913	46.938	0	1735.60	0	2.1630	0	34.5520	0	27.609	0	1714.078	0	40.7	4	12.3	4	-1E+10	1	-1E+10	1	-1E+10	1	-1E+10	1	-1E+10	1	-1E+10	1
4902551	116	C	11/01/2023	11:58	-130.913	46.938	0	1745.40	0	2.1530	0	34.5530	0	27.611	0	1723.717	0	41.2	4	12.5	4	-1E+10	1	-1E+10	1	-1E+10	1	-1E+10	1	-1E+10	1	-1E+10	1
4902551	116	C	11/01/2023	11:58	-130.913	46.938	0	1755.10	0	2.1400	0	34.5550	0	27.613	0	1733.257	0	41.6	4	12.6	4	-1E+10	1	-1E+10	1	-1E+10	1	-1E+10	1	-1E+10	1	-1E+10	1
4902551	116	C	11/01/2023	11:58	-130.913	46.938	0	1765.10	0	2.1260	0	34.5550	0	27.615	0	1743.092	0	42.0	4	12.7	4	-1E+10	1	-1E+10	1	-1E+10	1	-1E+10	1	-1E+10	1	-1E+10	1
4902551	116	C	11/01/2023	11:58	-130.913	46.938	0	1775.40	0	2.1140	0	34.5560	0	27.616	0	1753.221	0	42.5	4	12.8	4	-1E+10	1	-1E+10	1	-1E+10	1	-1E+10	1	-1E+10	1	-1E+10	1
4902551	116	C	11/01/2023	11:58	-130.913	46.938	0	1785.60	0	2.1090	0	34.5580	0	27.618	0	1763.251	0	43.0	4	13.0	4	-1E+10	1	-1E+10	1	-1E+10	1	-1E+10	1	-1E+10	1	-1E+10	1
4902551	116	C	11/01/2023	11:58	-130.913	46.938	0	1795.60	0	2.1010	0	34.5590	0	27.620	0	1773.084	0	43.5	4	13.2	4	-1E+10	1	-1E+10	1	-1E+10	1	-1E+10	1	-1E+10	1	-1E+10	1
4902551	116	C	11/01/2023	11:58	-130.913	46.938	0	1805.60	0	2.0930	0	34.5610	0	27.622	0	1782.917	0	44.0	4	13.3	4	-1E+10	1	-1E+10	1	-1E+10	1	-1E+10	1	-1E+10	1	-1E+10	1
4902551	116	C	11/01/2023	11:58	-130.913	46.938	0	1815.20	0	2.0830	0	34.5610	0	27.623	0	1792.356	0	44.6	4	13.5	4	-1E+10	1	-1E+10	1	-1E+10	1	-1E+10	1	-1E+10	1	-1E+10	1
4902551	116	C	11/01/2023	11:58	-130.913	46.938	0	1825.40	0	2.0750	0	34.5630	0	27.625	0	1802.384	0	45.2	4	13.7	4	-1E+10	1	-1E+10	1	-1E+10	1	-1E+10	1	-1E+10	1	-1E+10	1
4902551	116	C	11/01/2023	11:58	-130.913	46.938	0	1835.40	0	2.0670	0	34.5640	0	27.627	0	1812.215	0	46.0	4	13.9	4	-1E+10	1	-1E+10	1	-1E+10	1	-1E+10	1	-1E+10	1	-1E+10	1
4902551	116	C	11/01/2023	11:58	-130.913	46.938	0	1845.30	0	2.0580	0	34.5660	0	27.629	0	1821.948	0	46.6	4	14.1	4	-1E+10	1	-1E+10	1	-1E+10	1	-1E+10	1	-1E+10	1	-1E+10	1
4902551	116	C	11/01/2023	11:58	-130.913	46.938	0	1855.40	0	2.0510	0	34.5670	0	27.631	0	1831.877	0	47.2	4	14.3	4	-1E+10	1	-1E+10	1	-1E+10	1	-1E+10	1	-1E+10	1	-1E+10	1
4902551	116	C	11/01/2023	11:58	-130.913	46.938	0	1865.60	0	2.0370	0	34.5690	0	27.633	0	1841.903	0	48.0	4	14.5	4	-1E+10	1	-1E+10	1	-1E+10	1	-1E+10	1	-1E+10	1	-1E+10	1
4902551	116	C	11/01/2023	11:58	-130.913	46.938	0	1875.50	0	2.0300	0	34.5700	0	27.635	0	1851.634	0	48.5	4	14.6	4	-1E+10	1	-1E+10	1	-1E+10	1	-1E+10	1	-1E+10	1	-1E+10	1
4902551	116	C	11/01/2023	11:58	-130.913	46.938	0	1885.40	0	2.0230	0	34.5720	0	27.637	0	1861.365	0	49.1	4	14.8	4	-1E+10	1	-1E+10	1	-1E+10	1	-1E+10	1	-1E+10	1	-1E+10	1
4902551	116	C	11/01/2023	11:58	-130.913	46.938	0	1895.60	0	2.0130	0	34.5730	0	27.639	0	1871.390	0	49.8	4	15.0	4	-1E+10	1	-1E+10	1	-1E+10	1	-1E+10	1	-1E+10	1	-1E+10	1
4902551	116	C	11/01/2023	11:58	-130.913	46.938	0	1905.60	0	2.0040	0	34.5750	0	27.641	0	1881.218	0	50.4	4	15.2	4	-1E+10	1	-1E+10	1	-1E+10	1	-1E+10	1	-1E+10	1	-1E+10	1
4902551	116	C	11/01/2023	11:58	-130.913	46.938	0	1915.50	0	1.9970	0	34.5760	0	27.642	0	1890.948	0	51.1	4	15.4	4	-1E+10	1	-1E+10	1	-1E+10	1	-1E+10	1	-1E+10	1	-1E+10	1
4902551	116	C	11/01/2023	11:58	-130.913	46.938	0	1925.80	0	1.9870	0	34.5780	0	27.645	0	1901.070	0	51.7	4	15.6	4	-1E+10	1	-1E+10	1	-1E+10	1	-1E+10	1	-1E+10	1	-1E+10	1
4902551	116	C	11/01/2023	11:58	-130.913	46.938	0	1935.70	0	1.9840	0	34.5780	0	27.645	0	1910.798	0	52.0	4	15.7	4	-1E+10	1	-1E+10	1	-1E+10	1	-1E+10	1	-1E+10	1	-1E+10	1
4902551	116	C	11/01/2023	11:58	-130.913	46.938	0	1945.30	0	1.9780	0	34.5800	0	27.647	0	1920.231	0	52.5	4	15.8	4	-1E+10	1	-1E+10	1	-1E+10	1	-1E+10	1	-1E+10	1	-1E+10	1
4902551	116	C	11/01/2023	11:58	-130.913	46.938	0	1955.10	0	1.9720	0	34.5810	0	27.649	0	1929.861	0	52.8	4	15.9	4	-1E+10	1	-1E+10	1	-1E+10	1	-1E+10	1	-1E+10	1	-1E+10	1
4902551	116	C	11/01/2023	11:58	-130.913	46.938	0	1965.40	0	1.9680	0	34.5820	0	27.650	0	1939.981	0	53.0	4	16.0	4	-1E+10	1	-1E+10	1	-1E+10	1	-1E+10	1	-1E+10	1	-1E+10	1
4902551	116	C	11/01/2023	11:58	-130.913	46.938	0	1976.20	0	1.9620	0	34.5830	0	27.651	0	1950.592	0	53.1	4	16.0	4	-1E+10	1	-1E+10	1	-1E+10	1	-1E+10	1	-1E+10	1	-1E+10	1
4902551	116	C	11/01/2023	11:58	-130.913	46.938	0																										
4902551	117	C	11/11/2023	17:01	-130.838	46.902	0	0.30	0	13.2890	0	32.3240	0	24.264	0	0.298	0	243.4	4	93.2	4	-1E+10	1	-1E+10	1	-1E+10	1	-1E+10	1	-1E+10	1	-1E+10	1
4902551	117	C	11/11/2023	17:01	-130.838	46.902	0	0.40	0	13.2893	0	32.3237	0	24.264	0	0.397	0	-1e10	1	-1e10	1	-1E+10	1	-1E+10	1	-1E+10	1	-1E+10	1	-1E+10	1	-1E+10	1
4902551	117	C	11/11/2023	17:01	-130.838	46.902	0	0.50	0	13.2896	0	32.3234	0	24.264	0	0.496	0	-1e10	1	-1e10	1	-1E+10	1	-1E+10	1	-1E+10	1	-1E+10	1	-1E+10	1	-1E+10	1
4902551	117	C	11/11/2023	17:01	-130.838	46.902	0	1.00	0	13.2910	0	32.3220	0	24.262	0	0.992	0	243.4	4	93.2	4	-1E+10	1	-1E+10	1	-1E+10	1	-1E+10	1	-1E+10	1	-1E+10	1
4902551	117	C	11/11/2023	17:01	-130.838	46.902	0	2.20	0	13.2940	0	32.3210	0	24.261	0	2.182	0	243.3	4	93.1	4	-1E+10	1	-1E+10	1	-1E+10	1	-1E+10	1	-1E+10	1	-1E+10	1
4902551	117	C	11/11/2023	17:01	-130.838	46.902	0	3.00	0	13.2960	0	32.3200	0	24.260	0	2.975	0	243.3	4	93.1	4	-1E+10	1	-1E+10	1	-1E+10	1	-1E+10	1	-1E+10	1	-1E+10	1
4902551	117	C	11/11/2023	17:01	-130.838	46.902	0	4.00	0	13.2960	0	32.3200	0	24.260	0	3.967	0	243.3	4	93.1	4	-1E+10	1	-1E+10	1	-1E+10	1	-1E+10	1	-1E+10	1	-1E+10	1
4902551	117	C	11/11/2023	17:01	-130.838	46.902	0	5.00	0	13.2970	0	32.3210	0	24.260	0	4.958	0	243.2	4	93.1	4	-1E+10	1	-1E+10	1	-1E+10	1	-1E+10	1	-1E+10	1	-1E+10	1
4902551	117	C	11/11/2023	17:01	-130.838	46.902	0	5.80	0	13.2980	0	32.3210	0	24.260	0	5.752	0	243.2	4	93.1	4	-1E+10	1	-1E+10	1	-1E+10	1	-1E+10	1	-1E+10	1	-1E+10	1
4902551	117	C	11/11/2023	17:01	-130.838	46.902	0	7.00	0	13.2960	0	32.3210	0	24.261	0	6.942	0	243.2	4	93.1	4	-1E+10	1	-1E+10	1	-1E+10	1	-1E+10	1	-1E+10	1	-1E+10	1
4902551	117	C	11/11/2023	17:01	-130.838	46.902	0	8.00	0	13.2930	0	32.3200	0	24.261	0	7.934	0	243.1	4	93.1	4	-1E+10	1	-1E+10	1	-1E+10	1	-1E+10	1	-1E+10	1	-1E+10	1
4902551	117	C	11/11/2023	17:01	-130.838	46.902	0	9.00	0	13.2900	0	32.3210	0	24.262	0	8.925	0	243.2	4	93.1	4	-1E+10	1	-1E+10	1	-1E+10	1	-1E+10	1	-1E+10	1	-1E+10	1
4902551	117	C	11/11/2023	17:01	-130.838	46.902	0	10.00	0	13.2900	0	32.3210	0	24.262	0	9.917	0	243.2	4	93.1	4	-1E+10	1	-1E+10	1	-1E+10	1	-1E+10	1	-1E+10	1	-1E+10	1
4902551	117	C	11/11/2023	17:01	-130.838	46.902	0	11.00	0	13.2900	0	32.3210	0	24.262	0	10.909	0	243.2	4	93.1	4	-1E+10	1	-1E+10	1	-1E+10	1	-1E+10	1	-1E+10	1	-1E+10	1
4902551	117	C	11/11/2023	17:01	-130.838	46.902	0	12.20	0	13.2910	0	32.3210	0	24.262	0	12.098	0	243.1	4	93.0	4	-1E+10	1	-1E+10	1	-1E+10	1	-1E+10	1	-1E+10	1	-1E+10	1
4902551	117	C	11/11/2023	17:01	-130.838	46.902	0	12.90	0	13.2900	0	32.3210	0	24.262	0	12.793	0	243.1	4	93.1	4	-1E+10	1	-1E+10	1	-1E+10	1	-1E+10	1	-1E+10	1	-1E+10	1
4902551	117	C	11/11/2023	17:01	-130.838	46.902	0	14.00	0	13.2930	0	32.3210	0	24.261	0	13.883	0	243.1	4	93.1	4	-1E+10	1	-1E+10	1	-1E+10	1	-1E+10	1	-1E+10	1	-1E+10	1
4902551	117	C	11/11/2023	17:01	-130.838	46.902	0	15.10	0	13.2910	0	32.3210	0	24.262	0	14.974	0	243.1	4	93.0	4	-1E+10	1	-1E+10	1	-1E+10	1	-1E+10	1	-1E+10	1	-1E+10	1
4902551	117	C	11/11/2023	17:01	-130.838	46.902	0	16.00	0	13.2910	0	32.3210	0	24.262	0	15.867	0	243.1	4	93.0	4	-1E+10	1	-1E+10	1	-1E+10	1	-1E+10	1	-1E+10	1	-1E+10	1
4902551	117	C	11/11/2023	17:01	-130.838	46.902	0	17.10	0	13.2930	0	32.3210	0	24.262	0	16.958	0	243.1	4	93.0	4	-1E+10	1	-1E+10	1	-1E+10	1	-1E+10	1	-1E+10	1	-1E+10	1
4902551	117	C	11/11/2023	17:01	-130.838	46.902	0	17.80	0	13.2920	0	32.3200	0	24.261	0	17.652	0	243.0	4	93.0	4	-1E+10	1	-1E+10	1	-1E+10	1	-1E+10	1	-1E+10	1	-1E+10	1
4902551	117	C	11/11/2023	17:01	-130.838	46.902	0	18.90	0	13.2890	0	32.3200	0	24.262	0	18.742	0	243.1	4	93.1	4	-1E+10	1	-1E+10	1	-1E+10	1	-1E+10	1	-1E+10	1	-1E+10	1
4902551	117	C	11/11/2023	17:01	-130.838	46.902	0	19.90	0	13.2860	0	32.3210	0	24.263	0	19.734	0	243.1	4	93.1	4	-1E+10	1	-1E+10	1	-1E+10	1	-1E+10	1	-1E+10	1	-1E+10	1
4902551	117	C	11/11/2023	17:01	-130.838	46.902	0	20.90	0	13.2870	0	32.3200	0	24.262	0	20.726	0	243.1	4	93.0	4	-1E+10	1	-1E+10	1	-1E+10	1	-1E+10	1	-1E+10	1	-1E+10	1
4902551	117	C	11/11/2023	17:01	-130.838	46.902	0	22.00	0	13.2820	0	32.3200	0	24.263	0	21.816	0	243.1	4	93.0	4	-1E+10	1	-1E+10	1	-1E+10	1	-1E+10	1	-1E+10	1	-1E+10	1
4902551	117	C	11/11/2023	17:01	-130.838	46.902	0	22.90	0	13.2820	0	32.3210	0	24.264	0	22.709	0	243.1	4	93.0	4	-1E+10	1	-1E+10	1	-1E+10	1	-1E+10	1	-1E+10	1	-1E+10	1
4902551	117	C	11/11/2023	17:01	-130.838	46.902	0	23.70	0	13.2800	0	32.3210	0	24.264	0	23.502	0	243.1	4	93.0	4	-1E+10	1	-1E+10	1	-1E+10	1	-1E+10	1	-1E+10	1	-1E+10	1
4902551	117	C	11/11/2023	17:01	-130.838	46.902	0	24.80	0	13.2790	0	32.3210	0	24.265	0	24.593	0	243.1	4	93.0	4	-1E+10	1	-1E+10	1	-1E+10	1	-1E+10	1	-1E+10	1	-1E+10	1
4902551	117	C	11/11/2023	17:01	-130.838	46.902	0	25.90	0	13.2790	0	32.3210	0	24.265	0	25.684	0	243.2	4	93.1	4	-1E+10	1	-1E+10	1	-1E+10	1	-1E+10	1	-1E+10	1	-1E+10	1
4902551	117	C	11/11/2023	17:01	-130.838	46.902	0	26.90	0	13.2780	0	32.3210	0	24.265	0	26.675	0	243.0	4	93.0	4	-1E+10	1	-1E+10	1	-1E+10	1	-1E+10	1	-1E+10	1	-1E+10	1
4902551	117	C	11/11/2023	17:01	-130.838	46.902	0	28.00	0	13.2770	0	32.3210	0	24.265	0	27.766	0	243.1	4	93.0	4	-1E+10	1	-1E+10	1	-1E+10	1	-1E+10	1	-1E+10	1	-1E+10	1
4902551	117	C	11/11/2023	17:01	-130.838	46.902	0	29.20	0	13.2770	0	32.3210	0	24.265	0	28.956	0	243.0	4	93.0	4	-1E+10	1	-1E+10	1	-1E+10	1	-1E+10	1	-1E+10	1	-1E+10	1
4902551	117	C	11/11/2023	17:01	-130.838	46.902	0	29.90	0	13.2840	0	32.3200	0	24.263	0	29.650	0	243.0	4	93.0	4	-1E+10	1	-1E+10	1	-1E+10	1	-1E+10	1	-1E+10	1	-1E+10	1
4902551	117	C	11/11/2023	17:01	-130.838	46.902	0	31.00	0	13.2820	0	32.3210	0	24.264	0	30.741	0	243.0	4	93.0	4	-1E+10	1	-1E+10	1	-1E+10	1	-1E+10	1	-1E+10	1	-1E+10	1
4902551	117	C	11/11/2023	17:01	-130.838	46.902	0	32.10	0	13.2790	0	32.3210	0	24.265	0	31.831	0	243.0	4	93.0	4	-1E+10	1	-1E+10	1	-1E+10	1	-1E+10	1	-1E+10	1	-1E+10	1
4902551	117	C	11/11/2023	17:01	-130.838	46.902	0	33.00	0	13.2770	0	32.3210	0	24.265	0	32.724	0	243.0	4	93.0	4	-1E+10	1	-1E+10	1	-1E+10	1	-1E+10	1	-1E+10	1	-1E+10	1
4902551	117	C	11/11/2023	17:01	-130.838	46.902	0	33.90	0	13.2800	0	32.3200	0	24.264	0	33.616	0	243.0	4	93.0	4	-1E+10	1	-1E+10	1	-1E+10	1	-1E+10	1	-1E+10	1	-1E+10	1
4902551	117	C	11/11/2023	17:01	-130.838	46.902	0	34.80	0	13.2840	0	32.3210	0	24.264	0	34.509	0	242.9	4	93.0	4	-1E+10	1	-1E+10	1	-1E+10	1	-1E+10	1	-1E+10	1	-1E+10	1
4902551	117	C	11/11/2023	17:01	-130.838	46.902	0	35.80	0	13.2830	0	32.3210	0	24.264	0	35.500	0	242.9	4	93.0	4	-1E+10	1	-1E+10	1	-1E+10	1	-1E+10	1	-1E+10	1	-1E+10	1
4902551	117	C	11/11/2023	17:01	-130.838	46.902	0	36.70	0	13.2830	0	32.3210	0	24.264	0	36.392	0	242.9	4	93.0	4	-1E+10	1	-1E+10	1	-1E+10	1	-1E+10	1	-1E+10	1	-1E+10	1
4902551	117	C	11/11/2023	17:01	-130.838	46.902	0	38.00	0	13.2810	0	32.3210	0	24.264	0	37.681	0	243.0	4	93.0	4	-1E+10	1	-1E+10	1	-1E+10	1	-1E+10	1	-1E+10	1	-1E+10	1
4902551	117	C	11/11/2023	17:01	-130.838	46.902	0	39.00	0	13.2880	0	32.3200	0	24.262	0	38.673	0	242.9	4	93.0	4	-1E+10	1	-1E+10	1	-1E+10	1	-1E+10	1	-1E+10	1	-1E+10	1
4902551	117	C	11/11/2023	17:01	-130.838	46.902	0	39.90	0	13.2810	0	32.3230	0	24.266	0	39.565	0	243.0	4	93.0	4	-1E+10	1	-1E+10	1	-1E+10	1	-1E+10	1	-1E+10	1	-1E+10	1
4902551	117	C	11/11/2023	17:01	-130.838	46.902	0	40.80	0	13.2660	0	32.3230	0	24.269	0	40.458	0	242.9	4	93.0	4	-1E+10	1	-1E+10	1	-1E+10	1	-1E+10	1	-1E+10	1	-1E+10	1
4902551	117	C	11/11/2023	17:01	-130.838	46.902	0	41.80	0	13.2700	0	32.3220	0	24.268	0	41.449	0	243.0	4	93.0	4	-1E+10	1	-1E+10	1	-1E+10	1	-1E+10	1	-1E+10	1	-1E+10	1
4902551	117	C	11/11/2023	17:01	-130.838	46.902	0	42.90	0	13.2680	0	32.3220	0	24.268	0	42.540	0	242.9	4	92.9	4	-1E+10	1	-1E+10	1	-1E+10	1	-1E+10	1	-1E+10	1	-1E+10	1
4902551	117	C	11/11/2023	17:01	-130.838	46.902	0	44.00	0	13.2680	0	32.3220	0	24.268	0	43.631	0	242.9	4	93.0	4	-1E+10	1	-1E+10	1	-1E+10	1	-1E+10	1	-1E+10	1	-1E+10	1
4902551	117	C	11/11/2023	17:01	-130.838	46.902	0	45.10	0	13.2680	0	32.3220	0	24.268	0	44.721	0	242.9	4	92.9	4	-1E+10	1	-1E+10	1	-1E+10	1	-1E+10	1	-1E+10	1	-1E+10	1
4902551	117	C	11/11/2023	17:01	-130.838	46.902	0	46.00	0	13.2670	0	32.3190	0	24.266	0	45.614	0	242.9	4	92.9	4	-1E+10	1	-1E+10	1	-1E+10	1	-1E+10	1	-1E+10	1	-1E+10	1
4902551	117	C	11/11/2023	17:01	-130.838	46.902	0	47.00	0	13.2630	0	32.3240	0	24.271	0	46.605	0	242.9	4	92.9	4	-1E+10	1	-1E+10	1	-1E+10	1	-1E+10	1	-1E+10	1	-1E+10	1
4902551	117	C	11/11/2023	17:01	-130.838	46.902	0	47.70	0	13.2580	0	32.3220	0	24.270	0	47.299	0	242.9	4	92.9	4	-1E+10	1	-1E+10	1	-1E+10	1	-1E+10	1	-1E+10	1	-1E+10	1
4902551	117	C	11/11/2023	17:01	-130.838	46.902	0	49.00	0	13.2590	0	32.3230	0	24.271	0	48.588	0	242.9	4	92.9	4	-1E+10	1	-1E+10	1	-1E+10	1	-1E+10	1	-1E+10	1	-1E+10	1
4902551	117	C	11/11/2023	17:01	-130.838	46.902	0	49.80	0	13.2570	0	32.3230	0	24.271	0	49.381	0	242.9	4	92.9	4	-1E+10	1	-1E+10	1	-1E+10	1	-1E+10	1	-1E+10	1	-1E+10	1
4902551	117	C	11/11/2023	17:01	-130.838	46.902	0	50.80	0	13.2570	0	32.3230	0	24.271	0	50.373	0	242.9	4	92.9	4	-1E+10	1	-1E+10	1	-1E+10	1	-1E+10	1	-1E+10	1	-1E+10	1
4902551	117	C	11/11/2023	17:01	-130.838	46.902	0	51.80	0	13.2650	0	32.3220	0	24.269	0	51.364	0	243.0	4	93.0	4	-1E+10	1	-1E+10	1	-1E+10	1	-1E+10	1	-1E+10	1	-1E+10	1
4902551	117	C	11/11/2023	17:01	-130.838	46.902	0	52.80	0	13.2670	0	32.3220	0	24.268	0	52.356	0	242.9	4	92.9	4	-1E+10	1	-1E+10	1	-1E+10	1	-1E+10	1	-1E+10	1	-1E+10	1
4902551	117	C	11/11/2023	17:01	-130.838	46.902	0	53.90	0	13.2730	0	32.3220	0	24.267	0	53.446	0	243.0	4	93.0	4	-1E+10	1	-1E+10	1	-1E+10	1	-1E+10	1	-1E+10	1	-1E+10	1
4902551	117	C	11/11/2023	17:01	-130.838	46.902	0	55.10	0	13.2720	0	32.3220	0	24.267	0	54.636	0	243.0	4	93.0	4	-1E+10	1	-1E+10	1	-1E+10	1	-1E+10	1	-1E+10	1	-1E+10	1
4902551	117	C	11/11/2023	17:01	-130.838	46.902	0	55.90	0	13.2640	0	32.3240	0	24.271	0	55.429	0	243.2	4	93.1	4	-1E+10	1	-1E+10	1	-1E+10	1	-1E+10	1	-1E+10	1	-1E+10	1
4902551	117	C	11/11/2023	17:01	-130.838	46.902	0	57.20	0	13.2670	0	32.3220	0	24.269	0	56.718	0	243.5	4	93.2	4	-1E+10	1	-1E+10	1	-1E+10	1	-1E+10	1	-1E+10	1	-1E+10	1
4902551	117	C	11/11/2023	17:01	-130.838	46.902	0	57.90	0	13.2660	0	32.3210	0	24.268	0	57.412	0	243.6	4	93.2	4	-1E+10	1	-1E+10	1	-1E+10	1	-1E+10	1	-1E+10	1	-1E+10	1
4902551	117	C	11/11/2023	17:01	-130.838	46.902	0	58.80	0	13.2490	0	32.3220	0	24.272	0	58.304	0	244.0	4	93.3	4	-1E+10	1	-1E+10	1	-1E+10	1	-1E+10	1	-1E+10	1	-1E+10	1
4902551	117	C	11/11/2023	17:01	-130.838	46.902	0	59.70	0	13.2400	0	32.3230	0	24.275	0	59.196	0	244.4	4	93.4	4	-1E+10	1	-1E+10	1	-1E+10	1	-1E+10	1	-1E+10	1	-1E+10	1
4902551	117	C	11/11/2023	17:01	-130.838	46.902	0	60.90	0	13.1860	0	32.3220	0	24.285	0	60.386	0	245.3	4	93.7	4	-1E+10	1	-1E+10	1	-1E+10	1	-1E+10	1	-1E+10	1	-1E+10	1
4902551	117	C	11/11/2023	17:01	-130.838	46.902	0	61.90	0	13.0260	0	32.3260	0	24.319	0	61.378	0	246.2	4	93.8	4	-1E+10	1	-1E+10	1	-1E+10	1	-1E+10	1	-1E+10	1	-1E+10	1
4902551	117	C	11/11/2023	17:01	-130.838	46.902	0	63.10	0	12.9790	0	32.3280	0	24.330	0	62.567	0	247.0	4	94.0	4	-1E+10	1	-1E+10	1	-1E+10	1	-1E+10	1	-1E+10	1	-1E+10	1
4902551	117	C	11/11/2023	17:01	-130.838	46.902	0	63.90	0	12.8560	0	32.3310	0	24.356	0	63.360	0	247.9	4	94.1	4	-1E+10	1	-1E+10	1	-1E+10	1	-1E+10	1	-1E+10	1	-1E+10	1
4902551	117	C	11/11/2023	17:01	-130.838	46.902	0	65.10	0	12.3170	0	32.3310	0	24.460	0	64.550	0	253.9	4	95.3	4	-1E+10	1	-1E+10	1	-1E+10	1	-1E+10	1	-1E+10	1	-1E+10	1
4902551	117	C	11/11/2023	17:01	-130.838	46.902	0	65.90	0	11.4620	0	32.3310	0	24.617	0	65.343	0	258.2	4	95.2	4	-1E+10	1	-1E+10	1	-1E+10	1	-1E+10	1	-1E+10	1	-1E+10	1
4902551	117	C	11/11/2023	17:01	-130.838	46.902	0	67.00	0	10.3880	0	32.3660	0	24.832	0	66.434	0	261.1	4	94.1	4	-1E+10	1	-1E+10	1	-1E+10	1	-1E+10	1	-1E+10	1	-1E+10	1
4902551	117	C	11/11/2023	17:01	-130.838	46.902	0	68.20	0	9.9850	0	32.3690	0	24.902	0	67.623	0	261.6	4	93.5	4	-1E+10	1	-1E+10	1	-1E+10	1	-1E+10	1	-1E+10	1	-1E+10	1
4902551	117	C	11/11/2023	17:01	-130.838	46.902	0	68.90	0	9.8350	0	32.3720	0	24.929	0	68.317	0	262.1	4	93.3	4	-1E+10	1	-1E+10	1	-1E+10	1	-1E+10	1	-1E+10	1	-1E+10	1
4902551	117	C	11/11/2023	17:01	-130.838	46.902	0	70.00	0	9.4810	0	32.3800	0	24.993	0	69.408	0	262.5	4	92.7	4	-1E+10	1	-1E+10	1	-1E+10	1	-1E+10	1	-1E+10	1	-1E+10	1
4902551	117	C	11/11/2023	17:01	-130.838	46.902	0	71.10	0	9.2640	0	32.3830	0	25.030	0	70.498	0	262.1	4	92.2	4	-1E+10	1	-1E+10	1	-1E+10	1	-1E+10	1	-1E+10	1	-1E+10	1
4902551	117	C	11/11/2023	17:01	-130.838	46.902	0	72.10	0	9.2140	0	32.3820	0	25.037	0	71.490	0	261.5	4	91.9	4	-1E+10	1	-1E+10	1	-1E+10	1	-1E+10	1	-1E+10	1	-1E+10	1
4902551	117	C	11/11/2023	17:01	-130.838	46.902	0	72.90	0	9.2050	0	32.3800	0	25.037	0	72.283	0	260.9	4	91.6	4	-1E+10	1	-1E+10	1	-1E+10	1	-1E+10	1	-1E+10	1	-1E+10	1
4902551	117	C	11/11/2023	17:01	-130.838	46.902	0	73.70	0	9.1590	0	32.3850	0	25.048	0	73.076	0	260.4	4	91.4	4	-1E+10	1	-1E+10	1	-1E+10	1	-1E+10	1	-1E+10	1	-1E+10	1
4902551	117	C	11/11/2023	17:01	-130.838	46.902	0	74.70	0	8.9760	0	32.3780	0	25.071	0	74.067	0	259.9	4	90.8	4	-1E+10	1	-1E+10	1	-1E+10	1	-1E+10	1	-1E+10	1	-1E+10	1
4902551	117	C	11/11/2023	17:01	-130.838	46.902	0	75.80	0	8.7720	0	32.3840	0	25.107	0	75.158	0	259.3	4	90.2	4	-1E+10	1	-1E+10	1	-1E+10	1	-1E+10	1	-1E+10	1	-1E+10	1
4902551	117	C	11/11/2023	17:01	-130.838	46.902	0	77.10	0	8.7470	0	32.3830	0	25.110	0	76.446	0	257.4	4	89.5	4	-1E+10	1	-1E+10	1	-1E+10	1	-1E+10	1	-1E+10	1	-1E+10	1
4902551	117	C	11/11/2023	17:01	-130.838	46.902	0	77.90	0	8.6870	0	32.3830	0	25.119	0	77.240	0	256.0	4	88.9	4	-1E+10	1	-1E+10	1	-1E+10	1	-1E+10	1	-1E+10	1	-1E+10	1
4902551	117	C	11/11/2023	17:01	-130.838	46.902	0	79.00	0	8.5440	0	32.3830	0	25.141	0	78.330	0	253.3	4	87.7	4	-1E+10	1	-1E+10	1	-1E+10	1	-1E+10	1	-1E+10	1	-1E+10	1
4902551	117	C	11/11/2023	17:01	-130.838	46.902	0	79.90	0	8.5020	0	32.3830	0	25.147	0	79.222	0	250.5	4	86.6	4	-1E+10	1	-1E+10	1	-1E+10	1	-1E+10	1	-1E+10	1	-1E+10	1
4902551	117	C	11/11/2023	17:01	-130.838	46.902	0	80.80	0	8.4360	0	32.3930	0	25.165	0	80.114	0	247.7	4	85.5	4	-1E+10	1	-1E+10	1	-1E+10	1	-1E+10	1	-1E+10	1	-1E+10	1
4902551	117	C	11/11/2023	17:01	-130.838	46.902	0	81.80	0	8.4210	0	32.4030	0	25.175	0	81.106	0	243.6	4	84.1	4	-1E+10	1	-1E+10	1	-1E+10	1	-1E+10	1	-1E+10	1	-1E+10	1
4902551	117	C	11/11/2023	17:01	-130.838	46.902	0	82.90	0	8.4080	0	32.4220	0	25.191	0	82.196	0	246.3	4	85.0	4	-1E+10	1	-1E+10	1	-1E+10	1	-1E+10	1	-1E+10	1	-1E+10	1
4902551	117	C	11/11/2023	17:01	-130.838	46.902	0	84.10	0	8.3660	0	32.4430	0	25.214	0	83.386	0	243.4	4	83.9	4	-1E+10	1	-1E+10	1	-1E+10	1	-1E+10	1	-1E+10	1	-1E+10	1
4902551	117	C	11/11/2023	17:01	-130.838	46.902	0	85.10	0	8.3510	0	32.4480	0	25.220	0	84.377	0	240.5	4	82.9	4	-1E+10	1	-1E+10	1	-1E+10	1	-1E+10	1	-1E+10	1	-1E+10	1
4902551	117	C	11/11/2023	17:01	-130.838	46.902	0	86.20	0	8.3650	0	32.4610	0	25.228	0	85.467	0	236.9	4	81.7	4	-1E+10	1	-1E+10	1	-1E+10	1	-1E+10	1	-1E+10	1	-1E+10	1
4902551	117	C	11/11/2023	17:01	-130.838	46.902	0	86.90	0	8.4010	0	32.4830	0	25.240	0	86.161	0	234.3	4	80.9	4	-1E+10	1	-1E+10	1	-1E+10	1	-1E+10	1	-1E+10	1	-1E+10	1
4902551	117	C	11/11/2023	17:01	-130.838	46.902	0	87.80	0	8.4340	0	32.5160	0	25.261	0	87.053	0	232.1	4	80.2	4	-1E+10	1	-1E+10	1	-1E+10	1	-1E+10	1	-1E+10	1	-1E+10	1
4902551	117	C	11/11/2023	17:01	-130.838	46.902	0	88.90	0	8.4350	0	32.5290	0	25.271	0	88.144	0	229.9	4	79.5	4	-1E+10	1	-1E+10	1	-1E+10	1	-1E+10	1	-1E+10	1	-1E+10	1
4902551	117	C	11/11/2023	17:01	-130.838	46.902	0	90.00	0	8.4320	0	32.5480	0	25.287	0	89.234	0	228.2	4	78.9	4	-1E+10	1	-1E+10	1	-1E+10	1	-1E+10	1	-1E+10	1	-1E+10	1
4902551	117	C	11/11/2023	17:01	-130.838	46.902	0	90.90	0	8.4290	0	32.5560	0	25.293	0	90.126	0	226.9	4	78.4	4	-1E+10	1	-1E+10	1	-1E+10	1	-1E+10	1	-1E+10	1	-1E+10	1
4902551	117	C	11/11/2023	17:01	-130.838	46.902	0	91.70	0	8.4120	0	32.5750	0	25.311	0	90.919	0	225.7	4	78.0	4	-1E+10	1	-1E+10	1	-1E+10	1	-1E+10	1	-1E+10	1	-1E+10	1
4902551	117	C	11/11/2023	17:01	-130.838	46.902	0	92.80	0	8.3960	0	32.5870	0	25.323	0	92.010	0	223.9	4	77.4	4	-1E+10	1	-1E+10	1	-1E+10	1	-1E+10	1	-1E+10	1	-1E+10	1
4902551	117	C	11/11/2023	17:01	-130.838	46.902	0	93.90	0	8.3750	0	32.5990	0	25.335	0	93.100	0	221.8	4	76.6	4	-1E+10	1	-1E+10	1	-1E+10	1	-1E+10	1	-1E+10	1	-1E+10	1
4902551	117	C	11/11/2023	17:01	-130.838	46.902	0	95.10	0	8.4230	0	32.6240	0	25.348	0	94.290	0	219.6	4	76.0	4	-1E+10	1	-1E+10	1	-1E+10	1	-1E+10	1	-1E+10	1	-1E+10	1
4902551	117	C	11/11/2023	17:01	-130.838	46.902	0	96.00	0	8.4970	0	32.6610	0	25.366	0	95.182	0	217.7	4	75.4	4	-1E+10	1	-1E+10	1	-1E+10	1	-1E+10	1	-1E+10	1	-1E+10	1
4902551	117	C	11/11/2023	17:01	-130.838	46.902	0	97.00	0	8.4300	0	32.6740	0	25.386	0	96.173	0	216.4	4	74.9	4	-1E+10	1	-1E+10	1	-1E+10	1	-1E+10	1	-1E+10	1	-1E+10	1
4902551	117	C	11/11/2023	17:01	-130.838	46.902	0	98.00	0	8.3000	0	32.6820	0	25.412	0	97.164	0	214.5	4	74.0	4	-1E+10	1	-1E+10	1	-1E+10	1	-1E+10	1	-1E+10	1	-1E+10	1
4902551	117	C	11/11/2023	17:01	-130.838	46.902	0	99.10	0	8.1690	0	32.7000	0	25.445	0	98.255	0	209.0	4	71.9	4	-1E+10	1	-1E+10	1	-1E+10	1	-1E+10	1	-1E+10	1	-1E+10	1
4902551	117	C	11/11/2023	17:01	-130.838	46.902	0	100.00	0	8.3560	0	32.8010	0	25.497	0	99.147	0	205.8	4	71.1	4	-1E+10	1	-1E+10	1	-1E+10	1	-1E+10	1	-1E+10	1	-1E+10	1
4902551	117	C	11/11/2023	17:01	-130.838	46.902	0	101.00	0	8.3760	0	32.8050	0	25.497	0	100.138	0	205.2	4	71.0	4	-1E+10	1	-1E+10	1	-1E+10	1	-1E+10	1	-1E+10	1	-1E+10	1
4902551	117	C	11/11/2023	17:01	-130.838	46.902	0	101.90	0	8.3920	0	32.8100	0	25.498	0	101.030	0	204.8	4	70.9	4	-1E+10	1	-1E+10	1	-1E+10	1	-1E+10	1	-1E+10	1	-1E+10	1
4902551	117	C	11/11/2023	17:01	-130.838	46.902	0	102.80	0	8.4150	0	32.8320	0	25.512	0	101.922	0	205.0	4	71.0	4	-1E+10	1	-1E+10	1	-1E+10	1	-1E+10	1	-1E+10	1	-1E+10	1
4902551	117	C	11/11/2023	17:01	-130.838	46.902	0	103.80	0	8.3570	0	32.8420	0	25.529	0	102.913	0	205.8	4	71.2	4	-1E+10	1	-1E+10	1	-1E+10	1	-1E+10	1	-1E+10	1	-1E+10	1
4902551	117	C	11/11/2023	17:01	-130.838	46.902	0	104.90	0	8.1780	0	32.8390	0	25.553	0	104.004	0	206.7	4	71.2	4	-1E+10	1	-1E+10	1	-1E+10	1	-1E+10	1	-1E+10	1	-1E+10	1
4902551	117	C	11/11/2023	17:01	-130.838	46.902	0	106.20	0	7.6870	0	32.8240	0	25.612	0	105.292	0	206.7	4	70.4	4	-1E+10	1	-1E+10	1	-1E+10	1	-1E+10	1	-1E+10	1	-1E+10	1
4902551	117	C	11/11/2023	17:01	-130.838	46.902	0	107.10	0	7.7030	0	32.8440	0	25.625	0	106.184	0	205.3	4	70.0	4	-1E+10	1	-1E+10	1	-1E+10	1	-1E+10	1	-1E+10	1	-1E+10	1
4902551	117	C	11/11/2023	17:01	-130.838	46.902	0	107.70	0	7.6680	0	32.8430	0	25.629	0	106.779	0	204.2	4	69.6	4	-1E+10	1	-1E+10	1	-1E+10	1	-1E+10	1	-1E+10	1	-1E+10	1
4902551	117	C	11/11/2023	17:01	-130.838	46.902	0	108.70	0	7.5800	0	32.8490	0	25.647	0	107.770	0	202.4	4	68.8	4	-1E+10	1	-1E+10	1	-1E+10	1	-1E+10	1	-1E+10	1	-1E+10	1
4902551	117	C	11/11/2023	17:01	-130.838	46.902	0	109.70	0	7.5300	0	32.8750	0	25.674	0	108.762	0	200.2	4	68.0	4	-1E+10	1	-1E+10	1	-1E+10	1	-1E+10	1	-1E+10	1	-1E+10	1
4902551	117	C	11/11/2023	17:01	-130.838	46.902	0	110.70	0	7.5020	0	32.9050	0	25.702	0	109.753	0	197.9	4	67.2	4	-1E+10	1	-1E+10	1	-1E+10	1	-1E+10	1	-1E+10	1	-1E+10	1
4902551	117	C	11/11/2023	17:01	-130.838	46.902	0	111.70	0	7.4860	0	32.9210	0	25.716	0	110.744	0	195.2	4	66.3	4	-1E+10	1	-1E+10	1	-1E+10	1	-1E+10	1	-1E+10	1	-1E+10	1
4902551	117	C	11/11/2023	17:01	-130.838	46.902	0	112.80	0	7.4760	0	32.9390	0	25.732	0	111.834	0	191.5	4	65.0	4	-1E+10	1	-1E+10	1	-1E+10	1	-1E+10	1	-1E+10	1	-1E+10	1
4902551	117	C	11/11/2023	17:01	-130.838	46.902	0	114.00	0	7.4650	0	32.9840	0	25.769	0	113.024	0	187.8	4	63.7	4	-1E+10	1	-1E+10	1	-1E+10	1	-1E+10	1	-1E+10	1	-1E+10	1
4902551	117	C	11/11/2023	17:01	-130.838	46.902	0	114.90	0	7.4690	0	33.0480	0	25.819	0	113.916	0	185.6	4	63.0	4	-1E+10	1	-1E+10	1	-1E+10	1	-1E+10	1	-1E+10	1	-1E+10	1
4902551	117	C	11/11/2023	17:01	-130.838	46.902	0	115.80	0	7.4410	0	33.0780	0	25.846	0	114.808	0	183.8	4	62.4	4	-1E+10	1	-1E+10	1	-1E+10	1	-1E+10	1	-1E+10	1	-1E+10	1
4902551	117	C	11/11/2023	17:01	-130.838	46.902	0	117.00	0	7.4240	0	33.0970	0	25.863	0	115.997	0	181.0	4	61.4	4	-1E+10	1	-1E+10	1	-1E+10	1	-1E+10	1	-1E+10	1	-1E+10	1
4902551	117	C	11/11/2023	17:01	-130.838	46.902	0	118.00	0	7.3910	0	33.1290	0	25.893	0	116.988	0	178.5	4	60.5	4	-1E+10	1	-1E+10	1	-1E+10	1	-1E+10	1	-1E+10	1	-1E+10	1
4902551	117	C	11/11/2023	17:01	-130.838	46.902	0	119.00	0	7.3770	0	33.1560	0	25.916	0	117.979	0	176.1	4	59.7	4	-1E+10	1	-1E+10	1	-1E+10	1	-1E+10	1	-1E+10	1	-1E+10	1
4902551	117	C	11/11/2023	17:01	-130.838	46.902	0	120.20	0	7.3710	0	33.1940	0	25.947	0	119.169	0	174.2	4	59.1	4	-1E+10	1	-1E+10	1	-1E+10	1	-1E+10	1	-1E+10	1	-1E+10	1
4902551	117	C	11/11/2023	17:01	-130.838	46.902	0	120.90	0	7.3520	0	33.2150	0	25.966	0	119.862	0	173.0	4	58.7	4	-1E+10	1	-1E+10	1	-1E+10	1	-1E+10	1	-1E+10	1	-1E+10	1
4902551	117	C	11/11/2023	17:01	-130.838	46.902	0	122.00	0	7.3350	0	33.2390	0	25.988	0	120.953	0	171.4	4	58.1	4	-1E+10	1	-1E+10	1	-1E+10	1	-1E+10	1	-1E+10	1	-1E+10	1
4902551	117	C	11/11/2023	17:01	-130.838	46.902	0	123.20	0	7.3140	0	33.2640	0	26.010	0	122.142	0	169.7	4	57.5	4	-1E+10	1	-1E+10	1	-1E+10	1	-1E+10	1	-1E+10	1	-1E+10	1
4902551	117	C	11/11/2023	17:01	-130.838	46.902	0	123.90	0	7.3200	0	33.2800	0	26.022	0	122.836	0	168.7	4	57.2	4	-1E+10	1	-1E+10	1	-1E+10	1	-1E+10	1	-1E+10	1	-1E+10	1
4902551	117	C	11/11/2023	17:01	-130.838	46.902	0	124.70	0	7.3090	0	33.3130	0	26.049	0	123.629	0	167.9	4	56.9	4	-1E+10	1	-1E+10	1	-1E+10	1	-1E+10	1	-1E+10	1	-1E+10	1
4902551	117	C	11/11/2023	17:01	-130.838	46.902	0	125.80	0	7.3030	0	33.3450	0	26.075	0	124.719	0	167.0	4	56.6	4	-1E+10	1	-1E+10	1	-1E+10	1	-1E+10	1	-1E+10	1	-1E+10	1
4902551	117	C	11/11/2023	17:01	-130.838	46.902	0	127.00	0	7.3000	0	33.3550	0	26.084	0	125.908	0	166.3	4	56.4	4	-1E+10	1	-1E+10	1	-1E+10	1	-1E+10	1	-1E+10	1	-1E+10	1
4902551	117	C	11/11/2023	17:01	-130.838	46.902	0	127.70	0	7.3020	0	33.3540	0	26.083	0	126.602	0	165.7	4	56.2	4	-1E+10	1	-1E+10	1	-1E+10	1	-1E+10	1	-1E+10	1	-1E+10	1
4902551	117	C	11/11/2023	17:01	-130.838	46.902	0	128.90	0	7.2960	0	33.3580	0	26.087	0	127.791	0	164.7	4	55.8	4	-1E+10	1	-1E+10	1	-1E+10	1	-1E+10	1	-1E+10	1	-1E+10	1
4902551	117	C	11/11/2023	17:01	-130.838	46.902	0	130.10	0	7.2860	0	33.3670	0	26.095	0	128.981	0	163.5	4	55.4	4	-1E+10	1	-1E+10	1	-1E+10	1	-1E+10	1	-1E+10	1	-1E+10	1
4902551	117	C	11/11/2023	17:01	-130.838	46.902	0	130.90	0	7.2840	0	33.3690	0	26.097	0	129.773	0	162.6	4	55.1	4	-1E+10	1	-1E+10	1	-1E+10	1	-1E+10	1	-1E+10	1	-1E+10	1
4902551	117	C	11/11/2023	17:01	-130.838	46.902	0	131.70	0	7.2800	0	33.3730	0	26.101	0	130.566	0	161.5	4	54.7	4	-1E+10	1	-1E+10	1	-1E+10	1	-1E+10	1	-1E+10	1	-1E+10	1
4902551	117	C	11/11/2023	17:01	-130.838	46.902	0	132.80	0	7.2810	0	33.3720	0	26.100	0	131.657	0	159.8	4	54.2	4	-1E+10	1	-1E+10	1	-1E+10	1	-1E+10	1	-1E+10	1	-1E+10	1
4902551	117	C	11/11/2023	17:01	-130.838	46.902	0	134.10	0	7.2770	0	33.3770	0	26.104	0	132.945	0	157.7	4	53.5	4	-1E+10	1	-1E+10	1	-1E+10	1	-1E+10	1	-1E+10	1	-1E+10	1
4902551	117	C	11/11/2023	17:01	-130.838	46.902	0	135.00	0	7.2590	0	33.3980	0	26.123	0	133.837	0	156.2	4	52.9	4	-1E+10	1	-1E+10	1	-1E+10	1	-1E+10	1	-1E+10	1	-1E+10	1
4902551	117	C	11/11/2023	17:01	-130.838	46.902	0	135.90	0	7.2720	0	33.4350	0	26.151	0	134.729	0	155.0	4	52.5	4	-1E+10	1	-1E+10	1	-1E+10	1	-1E+10	1	-1E+10	1	-1E+10	1
4902551	117	C	11/11/2023	17:01	-130.838	46.902	0	136.70	0	7.2730	0	33.4480	0	26.161	0	135.522	0	153.9	4	52.2	4	-1E+10	1	-1E+10	1	-1E+10	1	-1E+10	1	-1E+10	1	-1E+10	1
4902551	117	C	11/11/2023	17:01	-130.838	46.902	0	137.60	0	7.2730	0	33.4560	0	26.167	0	136.414	0	152.9	4	51.8	4	-1E+10	1	-1E+10	1	-1E+10	1	-1E+10	1	-1E+10	1	-1E+10	1
4902551	117	C	11/11/2023	17:01	-130.838	46.902	0	138.90	0	7.2660	0	33.4820	0	26.189	0	137.702	0	151.8	4	51.5	4	-1E+10	1	-1E+10	1	-1E+10	1	-1E+10	1	-1E+10	1	-1E+10	1
4902551	117	C	11/11/2023	17:01	-130.838	46.902	0	140.30	0	7.2540	0	33.5190	0	26.219	0	139.089	0	150.8	4	51.1	4	-1E+10	1	-1E+10	1	-1E+10	1	-1E+10	1	-1E+10	1	-1E+10	1
4902551	117	C	11/11/2023	17:01	-130.838	46.902	0	141.20	0	7.2320	0	33.5340	0	26.234	0	139.981	0	150.1	4	50.9	4	-1E+10	1	-1E+10	1	-1E+10	1	-1E+10	1	-1E+10	1	-1E+10	1
4902551	117	C	11/11/2023	17:01	-130.838	46.902	0	142.10	0	7.2190	0	33.5530	0	26.251	0	140.873	0	149.6	4	50.7	4	-1E+10	1	-1E+10	1	-1E+10	1	-1E+10	1	-1E+10	1	-1E+10	1
4902551	117	C	11/11/2023	17:01	-130.838	46.902	0	143.00	0	7.2130	0	33.5630	0	26.260	0	141.765	0	149.1	4	50.5	4	-1E+10	1	-1E+10	1	-1E+10	1	-1E+10	1	-1E+10	1	-1E+10	1
4902551	117	C	11/11/2023	17:01	-130.838	46.902	0	143.90	0	7.2120	0	33.5660	0	26.262	0	142.657	0	148.4	4	50.3	4	-1E+10	1	-1E+10	1	-1E+10	1	-1E+10	1	-1E+10	1	-1E+10	1
4902551	117	C	11/11/2023	17:01	-130.838	46.902	0	144.90	0	7.2100	0	33.5710	0	26.266	0	143.648	0	147.8	4	50.1	4	-1E+10	1	-1E+10	1	-1E+10	1	-1E+10	1	-1E+10	1	-1E+10	1
4902551	117	C	11/11/2023	17:01	-130.838	46.902	0	145.80	0	7.2060	0	33.5780	0	26.273	0	144.540	0	147.1	4	49.9	4	-1E+10	1	-1E+10	1	-1E+10	1	-1E+10	1	-1E+10	1	-1E+10	1
4902551	117	C	11/11/2023	17:01	-130.838	46.902	0	146.70	0	7.2060	0	33.5800	0	26.274	0	145.432	0	146.5	4	49.7	4	-1E+10	1	-1E+10	1	-1E+10	1	-1E+10	1	-1E+10	1	-1E+10	1
4902551	117	C	11/11/2023	17:01	-130.838	46.902	0	147.60	0	7.2020	0	33.5880	0	26.281	0	146.324	0	145.8	4	49.4	4	-1E+10	1	-1E+10	1	-1E+10	1	-1E+10	1	-1E+10	1	-1E+10	1
4902551	117	C	11/11/2023	17:01	-130.838	46.902	0	148.90	0	7.2010	0	33.5890	0	26.282	0	147.612	0	144.6	4	49.0	4	-1E+10	1	-1E+10	1	-1E+10	1	-1E+10	1	-1E+10	1	-1E+10	1
4902551	117	C	11/11/2023	17:01	-130.838	46.902	0	150.30	0	7.2000	0	33.5890	0	26.282	0	149.000	0	143.4	4	48.6	4	-1E+10	1	-1E+10	1	-1E+10	1	-1E+10	1	-1E+10	1	-1E+10	1
4902551	117	C	11/11/2023	17:01	-130.838	46.902	0	151.20	0	7.1390	0	33.6410	0	26.331	0	149.891	0	142.6	4	48.3	4	-1E+10	1	-1E+10	1	-1E+10	1	-1E+10	1	-1E+10	1	-1E+10	1
4902551	117	C	11/11/2023	17:01	-130.838	46.902	0	152.10	0	7.1240	0	33.6490	0	26.340	0	150.783	0	141.6	4	47.9	4	-1E+10	1	-1E+10	1	-1E+10	1	-1E+10	1	-1E+10	1	-1E+10	1
4902551	117	C	11/11/2023	17:01	-130.838	46.902	0	153.00	0	7.1100	0	33.6600	0	26.350	0	151.675	0	140.6	4	47.6	4	-1E+10	1	-1E+10	1	-1E+10	1	-1E+10	1	-1E+10	1	-1E+10	1
4902551	117	C	11/11/2023	17:01	-130.838	46.902	0	154.00	0	7.0990	0	33.6870	0	26.373	0	152.666	0	139.9	4	47.3	4	-1E+10	1	-1E+10	1	-1E+10	1	-1E+10	1	-1E+10	1	-1E+10	1
4902551	117	C	11/11/2023	17:01	-130.838	46.902	0	154.90	0	7.0770	0	33.6990	0	26.386	0	153.558	0	139.2	4	47.1	4	-1E+10	1	-1E+10	1	-1E+10	1	-1E+10	1	-1E+10	1	-1E+10	1
4902551	117	C	11/11/2023	17:01	-130.838	46.902	0	155.90	0	7.0820	0	33.7040	0	26.389	0	154.549	0	138.4	4	46.8	4	-1E+10	1	-1E+10	1	-1E+10	1	-1E+10	1	-1E+10	1	-1E+10	1
4902551	117	C	11/11/2023	17:01	-130.838	46.902	0	156.90	0	7.0810	0	33.7130	0	26.396	0	155.540	0	137.7	4	46.6	4	-1E+10	1	-1E+10	1	-1E+10	1	-1E+10	1	-1E+10	1	-1E+10	1
4902551	117	C	11/11/2023	17:01	-130.838	46.902	0	157.90	0	7.0830	0	33.7240	0	26.405	0	156.531	0	137.2	4	46.4	4	-1E+10	1	-1E+10	1	-1E+10	1	-1E+10	1	-1E+10	1	-1E+10	1
4902551	117	C	11/11/2023	17:01	-130.838	46.902	0	158.90	0	7.0790	0	33.7290	0	26.409	0	157.522	0	136.6	4	46.2	4	-1E+10	1	-1E+10	1	-1E+10	1	-1E+10	1	-1E+10	1	-1E+10	1
4902551	117	C	11/11/2023	17:01	-130.838	46.902	0	159.90	0	7.0660	0	33.7340	0	26.415	0	158.513	0	136.0	4	46.0	4	-1E+10	1	-1E+10	1	-1E+10	1	-1E+10	1	-1E+10	1	-1E+10	1
4902551	117	C	11/11/2023	17:01	-130.838	46.902	0	160.90	0	7.0380	0	33.7380	0	26.422	0	159.504	0	135.4	4	45.7	4	-1E+10	1	-1E+10	1	-1E+10	1	-1E+10	1	-1E+10	1	-1E+10	1
4902551	117	C	11/11/2023	17:01	-130.838	46.902	0	161.90	0	7.0460	0	33.7400	0	26.422	0	160.495	0	134.7	4	45.5	4	-1E+10	1	-1E+10	1	-1E+10	1	-1E+10	1	-1E+10	1	-1E+10	1
4902551	117	C	11/11/2023	17:01	-130.838	46.902	0	162.90	0	7.0320	0	33.7420	0	26.426	0	161.486	0	134.0	4	45.3	4	-1E+10	1	-1E+10	1	-1E+10	1	-1E+10	1	-1E+10	1	-1E+10	1
4902551	117	C	11/11/2023	17:01	-130.838	46.902	0	163.90	0	7.0340	0	33.7530	0	26.434	0	162.477	0	133.2	4	45.0	4	-1E+10	1	-1E+10	1	-1E+10	1	-1E+10	1	-1E+10	1	-1E+10	1
4902551	117	C	11/11/2023	17:01	-130.838	46.902	0	164.90	0	7.0090	0	33.7580	0	26.441	0	163.467	0	132.5	4	44.7	4	-1E+10	1	-1E+10	1	-1E+10	1	-1E+10	1	-1E+10	1	-1E+10	1
4902551	117	C	11/11/2023	17:01	-130.838	46.902	0	165.90	0	7.0070	0	33.7580	0	26.442	0	164.458	0	131.7	4	44.5	4	-1E+10	1	-1E+10	1	-1E+10	1	-1E+10	1	-1E+10	1	-1E+10	1
4902551	117	C	11/11/2023	17:01	-130.838	46.902	0	167.00	0	6.9960	0	33.7650	0	26.449	0	165.548	0	131.1	4	44.3	4	-1E+10	1	-1E+10	1	-1E+10	1	-1E+10	1	-1E+10	1	-1E+10	1
4902551	117	C	11/11/2023	17:01	-130.838	46.902	0	168.00	0	6.9560	0	33.7780	0	26.464	0	166.539	0	130.7	4	44.1	4	-1E+10	1	-1E+10	1	-1E+10	1	-1E+10	1	-1E+10	1	-1E+10	1
4902551	117	C	11/11/2023	17:01	-130.838	46.902	0	169.00	0	6.9520	0	33.7790	0	26.466	0	167.530	0	130.1	4	43.9	4	-1E+10	1	-1E+10	1	-1E+10	1	-1E+10	1	-1E+10	1	-1E+10	1
4902551	117	C	11/11/2023	17:01	-130.838	46.902	0	170.00	0	6.9530	0	33.7790	0	26.466	0	168.521	0	129.4	4	43.7	4	-1E+10	1	-1E+10	1	-1E+10	1	-1E+10	1	-1E+10	1	-1E+10	1
4902551	117	C	11/11/2023	17:01	-130.838	46.902	0	171.00	0	6.9530	0	33.7780	0	26.465	0	169.512	0	128.6	4	43.4	4	-1E+10	1	-1E+10	1	-1E+10	1	-1E+10	1	-1E+10	1	-1E+10	1
4902551	117	C	11/11/2023	17:01	-130.838	46.902	0	172.00	0	6.9490	0	33.7860	0	26.472	0	170.503	0	127.8	4	43.1	4	-1E+10	1	-1E+10	1	-1E+10	1	-1E+10	1	-1E+10	1	-1E+10	1
4902551	117	C	11/11/2023	17:01	-130.838	46.902	0	173.10	0	6.9210	0	33.7880	0	26.477	0	171.593	0	127.0	4	42.8	4	-1E+10	1	-1E+10	1	-1E+10	1	-1E+10	1	-1E+10	1	-1E+10	1
4902551	117	C	11/11/2023	17:01	-130.838	46.902	0	174.10	0	6.9020	0	33.7910	0	26.482	0	172.584	0	126.2	4	42.5	4	-1E+10	1	-1E+10	1	-1E+10	1	-1E+10	1	-1E+10	1	-1E+10	1
4902551	117	C	11/11/2023	17:01	-130.838	46.902	0	175.10	0	6.8820	0	33.7980	0	26.490	0	173.575	0	125.3	4	42.2	4	-1E+10	1	-1E+10	1	-1E+10	1	-1E+10	1	-1E+10	1	-1E+10	1
4902551	117	C	11/11/2023	17:01	-130.838	46.902	0	176.10	0	6.8620	0	33.8050	0	26.499	0	174.565	0	124.6	4	42.0	4	-1E+10	1	-1E+10	1	-1E+10	1	-1E+10	1	-1E+10	1	-1E+10	1
4902551	117	C	11/11/2023	17:01	-130.838	46.902	0	177.10	0	6.8570	0	33.8040	0	26.498	0	175.556	0	123.9	4	41.7	4	-1E+10	1	-1E+10	1	-1E+10	1	-1E+10	1	-1E+10	1	-1E+10	1
4902551	117	C	11/11/2023	17:01	-130.838	46.902	0	178.20	0	6.8340	0	33.8140	0	26.509	0	176.646	0	123.1	4	41.4	4	-1E+10	1	-1E+10	1	-1E+10	1	-1E+10	1	-1E+10	1	-1E+10	1
4902551	117	C	11/11/2023	17:01	-130.838	46.902	0	179.20	0	6.8070	0	33.8180	0	26.516	0	177.637	0	122.5	4	41.2	4	-1E+10	1	-1E+10	1	-1E+10	1	-1E+10	1	-1E+10	1	-1E+10	1
4902551	117	C	11/11/2023	17:01	-130.838	46.902	0	180.30	0	6.8000	0	33.8180	0	26.517	0	178.727	0	122.0	4	41.0	4	-1E+10	1	-1E+10	1	-1E+10	1	-1E+10	1	-1E+10	1	-1E+10	1
4902551	117	C	11/11/2023	17:01	-130.838	46.902	0	181.30	0	6.7770	0	33.8230	0	26.524	0	179.718	0	121.5	4	40.8	4	-1E+10	1	-1E+10	1	-1E+10	1	-1E+10	1	-1E+10	1	-1E+10	1
4902551	117	C	11/11/2023	17:01	-130.838	46.902	0	182.30	0	6.7620	0	33.8260	0	26.529	0	180.709	0	121.1	4	40.7	4	-1E+10	1	-1E+10	1	-1E+10	1	-1E+10	1	-1E+10	1	-1E+10	1
4902551	117	C	11/11/2023	17:01	-130.838	46.902	0	183.40	0	6.7380	0	33.8260	0	26.532	0	181.799	0	120.6	4	40.5	4	-1E+10	1	-1E+10	1	-1E+10	1	-1E+10	1	-1E+10	1	-1E+10	1
4902551	117	C	11/11/2023	17:01	-130.838	46.902	0	184.40	0	6.7190	0	33.8300	0	26.537	0	182.789	0	120.2	4	40.4	4	-1E+10	1	-1E+10	1	-1E+10	1	-1E+10	1	-1E+10	1	-1E+10	1
4902551	117	C	11/11/2023	17:01	-130.838	46.902	0	185.40	0	6.7070	0	33.8290	0	26.538	0	183.780	0	119.8	4	40.2	4	-1E+10	1	-1E+10	1	-1E+10	1	-1E+10	1	-1E+10	1	-1E+10	1
4902551	117	C	11/11/2023	17:01	-130.838	46.902	0	186.40	0	6.6880	0	33.8310	0	26.542	0	184.771	0	119.5	4	40.1	4	-1E+10	1	-1E+10	1	-1E+10	1	-1E+10	1	-1E+10	1	-1E+10	1
4902551	117	C	11/11/2023	17:01	-130.838	46.902	0	187.40	0	6.6650	0	33.8340	0	26.548	0	185.762	0	119.2	4	40.0	4	-1E+10	1	-1E+10	1	-1E+10	1	-1E+10	1	-1E+10	1	-1E+10	1
4902551	117	C	11/11/2023	17:01	-130.838	46.902	0	188.40	0	6.6510	0	33.8350	0	26.551	0	186.753	0	119.0	4	39.9	4	-1E+10	1	-1E+10	1	-1E+10	1	-1E+10	1	-1E+10	1	-1E+10	1
4902551	117	C	11/11/2023	17:01	-130.838	46.902	0	189.40	0	6.6460	0	33.8360	0	26.552	0	187.743	0	118.7	4	39.8	4	-1E+10	1	-1E+10	1	-1E+10	1	-1E+10	1	-1E+10	1	-1E+10	1
4902551	117	C	11/11/2023	17:01	-130.838	46.902	0	190.50	0	6.6330	0	33.8370	0	26.554	0	188.833	0	118.4	4	39.7	4	-1E+10	1	-1E+10	1	-1E+10	1	-1E+10	1	-1E+10	1	-1E+10	1
4902551	117	C	11/11/2023	17:01	-130.838	46.902	0	191.50	0	6.6220	0	33.8380	0	26.557	0	189.824	0	118.2	4	39.6	4	-1E+10	1	-1E+10	1	-1E+10	1	-1E+10	1	-1E+10	1	-1E+10	1
4902551	117	C	11/11/2023	17:01	-130.838	46.902	0	192.50	0	6.6140	0	33.8380	0	26.558	0	190.815	0	117.9	4	39.5	4	-1E+10	1	-1E+10	1	-1E+10	1	-1E+10	1	-1E+10	1	-1E+10	1
4902551	117	C	11/11/2023	17:01	-130.838	46.902	0	193.50	0	6.6040	0	33.8390	0	26.560	0	191.806	0	117.7	4	39.4	4	-1E+10	1	-1E+10	1	-1E+10	1	-1E+10	1	-1E+10	1	-1E+10	1
4902551	117	C	11/11/2023	17:01	-130.838	46.902	0	194.50	0	6.6010	0	33.8390	0	26.560	0	192.797	0	117.5	4	39.3	4	-1E+10	1	-1E+10	1	-1E+10	1	-1E+10	1	-1E+10	1	-1E+10	1
4902551	117	C	11/11/2023	17:01	-130.838	46.902	0	195.50	0	6.5930	0	33.8400	0	26.562	0	193.787	0	117.2	4	39.2	4	-1E+10	1	-1E+10	1	-1E+10	1	-1E+10	1	-1E+10	1	-1E+10	1
4902551	117	C	11/11/2023	17:01	-130.838	46.902	0	197.00	0	6.5700	0	33.8420	0	26.567	0	195.273	0	117.0	4	39.1	4	-1E+10	1	-1E+10	1	-1E+10	1	-1E+10	1	-1E+10	1	-1E+10	1
4902551	117	C	11/11/2023	17:01	-130.838	46.902	0	198.20	0	6.5660	0	33.8420	0	26.567	0	196.462	0	116.8	4	39.1	4	-1E+10	1	-1E+10	1	-1E+10	1	-1E+10	1	-1E+10	1	-1E+10	1
4902551	117	C	11/11/2023	17:01	-130.838	46.902	0	198.90	0	6.5580	0	33.8420	0	26.568	0	197.156	0	116.6	4	39.0	4	-1E+10	1	-1E+10	1	-1E+10	1	-1E+10	1	-1E+10	1	-1E+10	1
4902551	117	C	11/11/2023	17:01	-130.838	46.902	0	199.80	0	6.5360	0	33.8430	0	26.572	0	198.048	0	116.3	4	38.9	4	-1E+10	1	-1E+10	1	-1E+10	1	-1E+10	1	-1E+10	1	-1E+10	1
4902551	117	C	11/11/2023	17:01	-130.838	46.902	0	201.00	0	6.5220	0	33.8440	0	26.575	0	199.236	0	115.8	4	38.7	4	-1E+10	1	-1E+10	1	-1E+10	1	-1E+10	1	-1E+10	1	-1E+10	1
4902551	117	C	11/11/2023	17:01	-130.838	46.902	0	202.00	0	6.5070	0	33.8440	0	26.577	0	200.227	0	115.4	4	38.6	4	-1E+10	1	-1E+10	1	-1E+10	1	-1E+10	1	-1E+10	1	-1E+10	1
4902551	117	C	11/11/2023	17:01	-130.838	46.902	0	203.10	0	6.5040	0	33.8450	0	26.578	0	201.317	0	115.1	4	38.4	4	-1E+10	1	-1E+10	1	-1E+10	1	-1E+10	1	-1E+10	1	-1E+10	1
4902551	117	C	11/11/2023	17:01	-130.838	46.902	0	203.90	0	6.4930	0	33.8460	0	26.580	0	202.110	0	114.8	4	38.3	4	-1E+10	1	-1E+10	1	-1E+10	1	-1E+10	1	-1E+10	1	-1E+10	1
4902551	117	C	11/11/2023	17:01	-130.838	46.902	0	204.70	0	6.4920	0	33.8450	0	26.579	0	202.902	0	114.5	4	38.2	4	-1E+10	1	-1E+10	1	-1E+10	1	-1E+10	1	-1E+10	1	-1E+10	1
4902551	117	C	11/11/2023	17:01	-130.838	46.902	0	206.00	0	6.4820	0	33.8450	0	26.581	0	204.190	0	114.0	4	38.1	4	-1E+10	1	-1E+10	1	-1E+10	1	-1E+10	1	-1E+10	1	-1E+10	1
4902551	117	C	11/11/2023	17:01	-130.838	46.902	0	207.30	0	6.4780	0	33.8470	0	26.583	0	205.478	0	113.5	4	37.9	4	-1E+10	1	-1E+10	1	-1E+10	1	-1E+10	1	-1E+10	1	-1E+10	1
4902551	117	C	11/11/2023	17:01	-130.838	46.902	0	208.10	0	6.4680	0	33.8470	0	26.584	0	206.271	0	113.0	4	37.7	4	-1E+10	1	-1E+10	1	-1E+10	1	-1E+10	1	-1E+10	1	-1E+10	1
4902551	117	C	11/11/2023	17:01	-130.838	46.902	0	208.90	0	6.4620	0	33.8480	0	26.586	0	207.063	0	112.7	4	37.6	4	-1E+10	1	-1E+10	1	-1E+10	1	-1E+10	1	-1E+10	1	-1E+10	1
4902551	117	C	11/11/2023	17:01	-130.838	46.902	0	209.80	0	6.4600	0	33.8480	0	26.586	0	207.955	0	112.3	4	37.5	4	-1E+10	1	-1E+10	1	-1E+10	1	-1E+10	1	-1E+10	1	-1E+10	1
4902551	117	C	11/11/2023	17:01	-130.838	46.902	0	211.00	0	6.4510	0	33.8470	0	26.586	0	209.144	0	111.6	4	37.2	4	-1E+10	1	-1E+10	1	-1E+10	1	-1E+10	1	-1E+10	1	-1E+10	1
4902551	117	C	11/11/2023	17:01	-130.838	46.902	0	212.20	0	6.4390	0	33.8500	0	26.590	0	210.332	0	110.8	4	37.0	4	-1E+10	1	-1E+10	1	-1E+10	1	-1E+10	1	-1E+10	1	-1E+10	1
4902551	117	C	11/11/2023	17:01	-130.838	46.902	0	213.10	0	6.4110	0	33.8510	0	26.595	0	211.224	0	110.4	4	36.8	4	-1E+10	1	-1E+10	1	-1E+10	1	-1E+10	1	-1E+10	1	-1E+10	1
4902551	117	C	11/11/2023	17:01	-130.838	46.902	0	213.90	0	6.4080	0	33.8500	0	26.594	0	212.017	0	109.8	4	36.6	4	-1E+10	1	-1E+10	1	-1E+10	1	-1E+10	1	-1E+10	1	-1E+10	1
4902551	117	C	11/11/2023	17:01	-130.838	46.902	0	214.70	0	6.3800	0	33.8530	0	26.600	0	212.809	0	109.4	4	36.4	4	-1E+10	1	-1E+10	1	-1E+10	1	-1E+10	1	-1E+10	1	-1E+10	1
4902551	117	C	11/11/2023	17:01	-130.838	46.902	0	216.00	0	6.3550	0	33.8550	0	26.605	0	214.097	0	108.9	4	36.2	4	-1E+10	1	-1E+10	1	-1E+10	1	-1E+10	1	-1E+10	1	-1E+10	1
4902551	117	C	11/11/2023	17:01	-130.838	46.902	0	217.20	0	6.3380	0	33.8560	0	26.608	0	215.286	0	108.4	4	36.1	4	-1E+10	1	-1E+10	1	-1E+10	1	-1E+10	1	-1E+10	1	-1E+10	1
4902551	117	C	11/11/2023	17:01	-130.838	46.902	0	218.00	0	6.3270	0	33.8570	0	26.610	0	216.078	0	108.1	4	36.0	4	-1E+10	1	-1E+10	1	-1E+10	1	-1E+10	1	-1E+10	1	-1E+10	1
4902551	117	C	11/11/2023	17:01	-130.838	46.902	0	219.00	0	6.3160	0	33.8590	0	26.613	0	217.069	0	107.6	4	35.8	4	-1E+10	1	-1E+10	1	-1E+10	1	-1E+10	1	-1E+10	1	-1E+10	1
4902551	117	C	11/11/2023	17:01	-130.838	46.902	0	220.10	0	6.2670	0	33.8610	0	26.621	0	218.159	0	107.2	4	35.6	4	-1E+10	1	-1E+10	1	-1E+10	1	-1E+10	1	-1E+10	1	-1E+10	1
4902551	117	C	11/11/2023	17:01	-130.838	46.902	0	221.00	0	6.2640	0	33.8590	0	26.620	0	219.050	0	107.0	4	35.6	4	-1E+10	1	-1E+10	1	-1E+10	1	-1E+10	1	-1E+10	1	-1E+10	1
4902551	117	C	11/11/2023	17:01	-130.838	46.902	0	221.90	0	6.2630	0	33.8600	0	26.621	0	219.942	0	106.7	4	35.5	4	-1E+10	1	-1E+10	1	-1E+10	1	-1E+10	1	-1E+10	1	-1E+10	1
4902551	117	C	11/11/2023	17:01	-130.838	46.902	0	222.80	0	6.2550	0	33.8590	0	26.621	0	220.834	0	106.4	4	35.4	4	-1E+10	1	-1E+10	1	-1E+10	1	-1E+10	1	-1E+10	1	-1E+10	1
4902551	117	C	11/11/2023	17:01	-130.838	46.902	0	223.70	0	6.2490	0	33.8630	0	26.625	0	221.725	0	106.2	4	35.3	4	-1E+10	1	-1E+10	1	-1E+10	1	-1E+10	1	-1E+10	1	-1E+10	1
4902551	117	C	11/11/2023	17:01	-130.838	46.902	0	224.60	0	6.2360	0	33.8610	0	26.625	0	222.617	0	106.0	4	35.2	4	-1E+10	1	-1E+10	1	-1E+10	1	-1E+10	1	-1E+10	1	-1E+10	1
4902551	117	C	11/11/2023	17:01	-130.838	46.902	0	225.90	0	6.2230	0	33.8630	0	26.629	0	223.904	0	105.5	4	35.0	4	-1E+10	1	-1E+10	1	-1E+10	1	-1E+10	1	-1E+10	1	-1E+10	1
4902551	117	C	11/11/2023	17:01	-130.838	46.902	0	227.40	0	6.1960	0	33.8650	0	26.634	0	225.390	0	105.1	4	34.9	4	-1E+10	1	-1E+10	1	-1E+10	1	-1E+10	1	-1E+10	1	-1E+10	1
4902551	117	C	11/11/2023	17:01	-130.838	46.902	0	228.30	0	6.1800	0	33.8640	0	26.635	0	226.282	0	105.0	4	34.8	4	-1E+10	1	-1E+10	1	-1E+10	1	-1E+10	1	-1E+10	1	-1E+10	1
4902551	117	C	11/11/2023	17:01	-130.838	46.902	0	229.30	0	6.1800	0	33.8640	0	26.635	0	227.273	0	104.8	4	34.7	4	-1E+10	1	-1E+10	1	-1E+10	1	-1E+10	1	-1E+10	1	-1E+10	1
4902551	117	C	11/11/2023	17:01	-130.838	46.902	0	230.20	0	6.1770	0	33.8650	0	26.636	0	228.164	0	104.5	4	34.7	4	-1E+10	1	-1E+10	1	-1E+10	1	-1E+10	1	-1E+10	1	-1E+10	1
4902551	117	C	11/11/2023	17:01	-130.838	46.902	0	231.10	0	6.1780	0	33.8640	0	26.635	0	229.056	0	104.2	4	34.6	4	-1E+10	1	-1E+10	1	-1E+10	1	-1E+10	1	-1E+10	1	-1E+10	1
4902551	117	C	11/11/2023	17:01	-130.838	46.902	0	232.10	0	6.1770	0	33.8640	0	26.635	0	230.046	0	103.9	4	34.5	4	-1E+10	1	-1E+10	1	-1E+10	1	-1E+10	1	-1E+10	1	-1E+10	1
4902551	117	C	11/11/2023	17:01	-130.838	46.902	0	233.00	0	6.1760	0	33.8650	0	26.636	0	230.938	0	103.6	4	34.3	4	-1E+10	1	-1E+10	1	-1E+10	1	-1E+10	1	-1E+10	1	-1E+10	1
4902551	117	C	11/11/2023	17:01	-130.838	46.902	0	234.00	0	6.1770	0	33.8640	0	26.635	0	231.928	0	103.2	4	34.2	4	-1E+10	1	-1E+10	1	-1E+10	1	-1E+10	1	-1E+10	1	-1E+10	1
4902551	117	C	11/11/2023	17:01	-130.838	46.902	0	234.90	0	6.1770	0	33.8640	0	26.635	0	232.820	0	102.8	4	34.1	4	-1E+10	1	-1E+10	1	-1E+10	1	-1E+10	1	-1E+10	1	-1E+10	1
4902551	117	C	11/11/2023	17:01	-130.838	46.902	0	235.90	0	6.1770	0	33.8640	0	26.635	0	233.811	0	102.3	4	33.9	4	-1E+10	1	-1E+10	1	-1E+10	1	-1E+10	1	-1E+10	1	-1E+10	1
4902551	117	C	11/11/2023	17:01	-130.838	46.902	0	236.90	0	6.1740	0	33.8630	0	26.635	0	234.801	0	101.7	4	33.7	4	-1E+10	1	-1E+10	1	-1E+10	1	-1E+10	1	-1E+10	1	-1E+10	1
4902551	117	C	11/11/2023	17:01	-130.838	46.902	0	237.80	0	6.1740	0	33.8620	0	26.634	0	235.693	0	101.0	4	33.5	4	-1E+10	1	-1E+10	1	-1E+10	1	-1E+10	1	-1E+10	1	-1E+10	1
4902551	117	C	11/11/2023	17:01	-130.838	46.902	0	238.80	0	6.1420	0	33.8670	0	26.642	0	236.683	0	100.4	4	33.3	4	-1E+10	1	-1E+10	1	-1E+10	1	-1E+10	1	-1E+10	1	-1E+10	1
4902551	117	C	11/11/2023	17:01	-130.838	46.902	0	239.80	0	6.1050	0	33.8690	0	26.648	0	237.674	0	100.0	4	33.1	4	-1E+10	1	-1E+10	1	-1E+10	1	-1E+10	1	-1E+10	1	-1E+10	1
4902551	117	C	11/11/2023	17:01	-130.838	46.902	0	240.80	0	6.0990	0	33.8690	0	26.649	0	238.664	0	99.6	4	33.0	4	-1E+10	1	-1E+10	1	-1E+10	1	-1E+10	1	-1E+10	1	-1E+10	1
4902551	117	C	11/11/2023	17:01	-130.838	46.902	0	241.80	0	6.0920	0	33.8700	0	26.651	0	239.655	0	99.2	4	32.8	4	-1E+10	1	-1E+10	1	-1E+10	1	-1E+10	1	-1E+10	1	-1E+10	1
4902551	117	C	11/11/2023	17:01	-130.838	46.902	0	242.80	0	6.0860	0	33.8700	0	26.652	0	240.645	0	98.7	4	32.7	4	-1E+10	1	-1E+10	1	-1E+10	1	-1E+10	1	-1E+10	1	-1E+10	1
4902551	117	C	11/11/2023	17:01	-130.838	46.902	0	243.80	0	6.0630	0	33.8750	0	26.659	0	241.636	0	98.3	4	32.5	4	-1E+10	1	-1E+10	1	-1E+10	1	-1E+10	1	-1E+10	1	-1E+10	1
4902551	117	C	11/11/2023	17:01	-130.838	46.902	0	244.80	0	6.0530	0	33.8730	0	26.658	0	242.626	0	97.8	4	32.4	4	-1E+10	1	-1E+10	1	-1E+10	1	-1E+10	1	-1E+10	1	-1E+10	1
4902551	117	C	11/11/2023	17:01	-130.838	46.902	0	245.80	0	6.0510	0	33.8730	0	26.658	0	243.617	0	97.4	4	32.2	4	-1E+10	1	-1E+10	1	-1E+10	1	-1E+10	1	-1E+10	1	-1E+10	1
4902551	117	C	11/11/2023	17:01	-130.838	46.902	0	246.90	0	6.0360	0	33.8750	0	26.662	0	244.707	0	97.1	4	32.1	4	-1E+10	1	-1E+10	1	-1E+10	1	-1E+10	1	-1E+10	1	-1E+10	1
4902551	117	C	11/11/2023	17:01	-130.838	46.902	0	247.90	0	6.0230	0	33.8760	0	26.664	0	245.697	0	96.7	4	32.0	4	-1E+10	1	-1E+10	1	-1E+10	1	-1E+10	1	-1E+10	1	-1E+10	1
4902551	117	C	11/11/2023	17:01	-130.838	46.902	0	248.90	0	6.0180	0	33.8770	0	26.666	0	246.688	0	96.4	4	31.8	4	-1E+10	1	-1E+10	1	-1E+10	1	-1E+10	1	-1E+10	1	-1E+10	1
4902551	117	C	11/11/2023	17:01	-130.838	46.902	0	250.00	0	6.0140	0	33.8770	0	26.666	0	247.777	0	95.9	4	31.7	4	-1E+10	1	-1E+10	1	-1E+10	1	-1E+10	1	-1E+10	1	-1E+10	1
4902551	117	C	11/11/2023	17:01	-130.838	46.902	0	251.00	0	6.0100	0	33.8760	0	26.666	0	248.768	0	95.5	4	31.5	4	-1E+10	1	-1E+10	1	-1E+10	1	-1E+10	1	-1E+10	1	-1E+10	1
4902551	117	C	11/11/2023	17:01	-130.838	46.902	0	251.90	0	6.0010	0	33.8780	0	26.669	0	249.659	0	95.0	4	31.4	4	-1E+10	1	-1E+10	1	-1E+10	1	-1E+10	1	-1E+10	1	-1E+10	1
4902551	117	C	11/11/2023	17:01	-130.838	46.902	0	252.90	0	5.9880	0	33.8780	0	26.670	0	250.650	0	94.6	4	31.3	4	-1E+10	1	-1E+10	1	-1E+10	1	-1E+10	1	-1E+10	1	-1E+10	1
4902551	117	C	11/11/2023	17:01	-130.838	46.902	0	253.90	0	5.9630	0	33.8810	0	26.676	0	251.640	0	94.2	4	31.1	4	-1E+10	1	-1E+10	1	-1E+10	1	-1E+10	1	-1E+10	1	-1E+10	1
4902551	117	C	11/11/2023	17:01	-130.838	46.902	0	255.00	0	5.9530	0	33.8810	0	26.677	0	252.730	0	93.8	4	30.9	4	-1E+10	1	-1E+10	1	-1E+10	1	-1E+10	1	-1E+10	1	-1E+10	1
4902551	117	C	11/11/2023	17:01	-130.838	46.902	0	256.00	0	5.9460	0	33.8820	0	26.679	0	253.720	0	93.4	4	30.8	4	-1E+10	1	-1E+10	1	-1E+10	1	-1E+10	1	-1E+10	1	-1E+10	1
4902551	117	C	11/11/2023	17:01	-130.838	46.902	0	257.10	0	5.9440	0	33.8810	0	26.678	0	254.810	0	92.9	4	30.7	4	-1E+10	1	-1E+10	1	-1E+10	1	-1E+10	1	-1E+10	1	-1E+10	1
4902551	117	C	11/11/2023	17:01	-130.838	46.902	0	258.10	0	5.9350	0	33.8830	0	26.681	0	255.800	0	92.5	4	30.5	4	-1E+10	1	-1E+10	1	-1E+10	1	-1E+10	1	-1E+10	1	-1E+10	1
4902551	117	C	11/11/2023	17:01	-130.838	46.902	0	259.20	0	5.9170	0	33.8830	0	26.683	0	256.890	0	92.1	4	30.3	4	-1E+10	1	-1E+10	1	-1E+10	1	-1E+10	1	-1E+10	1	-1E+10	1
4902551	117	C	11/11/2023	17:01	-130.838	46.902	0	260.30	0	5.8970	0	33.8850	0	26.687	0	257.979	0	91.7	4	30.2	4	-1E+10	1	-1E+10	1	-1E+10	1	-1E+10	1	-1E+10	1	-1E+10	1
4902551	117	C	11/11/2023	17:01	-130.838	46.902	0	261.40	0	5.8890	0	33.8860	0	26.689	0	259.069	0	91.3	4	30.1	4	-1E+10	1	-1E+10	1	-1E+10	1	-1E+10	1	-1E+10	1	-1E+10	1
4902551	117	C	11/11/2023	17:01	-130.838	46.902	0	262.40	0	5.8850	0	33.8860	0	26.690	0	260.059	0	90.9	4	29.9	4	-1E+10	1	-1E+10	1	-1E+10	1	-1E+10	1	-1E+10	1	-1E+10	1
4902551	117	C	11/11/2023	17:01	-130.838	46.902	0	263.50	0	5.8830	0	33.8860	0	26.690	0	261.149	0	90.5	4	29.8	4	-1E+10	1	-1E+10	1	-1E+10	1	-1E+10	1	-1E+10	1	-1E+10	1
4902551	117	C	11/11/2023	17:01	-130.838	46.902	0	264.60	0	5.8780	0	33.8860	0	26.691	0	262.238	0	90.0	4	29.6	4	-1E+10	1	-1E+10	1	-1E+10	1	-1E+10	1	-1E+10	1	-1E+10	1
4902551	117	C	11/11/2023	17:01	-130.838	46.902	0	265.60	0	5.8670	0	33.8870	0	26.693	0	263.229	0	89.5	4	29.5	4	-1E+10	1	-1E+10	1	-1E+10	1	-1E+10	1	-1E+10	1	-1E+10	1
4902551	117	C	11/11/2023	17:01	-130.838	46.902	0	266.60	0	5.8550	0	33.8880	0	26.695	0	264.219	0	89.0	4	29.3	4	-1E+10	1	-1E+10	1	-1E+10	1	-1E+10	1	-1E+10	1	-1E+10	1
4902551	117	C	11/11/2023	17:01	-130.838	46.902	0	267.60	0	5.8450	0	33.8890	0	26.697	0	265.209	0	88.5	4	29.1	4	-1E+10	1	-1E+10	1	-1E+10	1	-1E+10	1	-1E+10	1	-1E+10	1
4902551	117	C	11/11/2023	17:01	-130.838	46.902	0	268.60	0	5.8280	0	33.8900	0	26.700	0	266.200	0	87.9	4	28.9	4	-1E+10	1	-1E+10	1	-1E+10	1	-1E+10	1	-1E+10	1	-1E+10	1
4902551	117	C	11/11/2023	17:01	-130.838	46.902	0	269.70	0	5.8150	0	33.8880	0	26.700	0	267.289	0	87.5	4	28.8	4	-1E+10	1	-1E+10	1	-1E+10	1	-1E+10	1	-1E+10	1	-1E+10	1
4902551	117	C	11/11/2023	17:01	-130.838	46.902	0	270.80	0	5.7800	0	33.8950	0	26.710	0	268.379	0	87.2	4	28.7	4	-1E+10	1	-1E+10	1	-1E+10	1	-1E+10	1	-1E+10	1	-1E+10	1
4902551	117	C	11/11/2023	17:01	-130.838	46.902	0	271.90	0	5.7720	0	33.8960	0	26.712	0	269.468	0	87.0	4	28.6	4	-1E+10	1	-1E+10	1	-1E+10	1	-1E+10	1	-1E+10	1	-1E+10	1
4902551	117	C	11/11/2023	17:01	-130.838	46.902	0	273.00	0	5.7610	0	33.8970	0	26.714	0	270.558	0	86.7	4	28.5	4	-1E+10	1	-1E+10	1	-1E+10	1	-1E+10	1	-1E+10	1	-1E+10	1
4902551	117	C	11/11/2023	17:01	-130.838	46.902	0	274.00	0	5.7600	0	33.8960	0	26.713	0	271.548	0	86.5	4	28.4	4	-1E+10	1	-1E+10	1	-1E+10	1	-1E+10	1	-1E+10	1	-1E+10	1
4902551	117	C	11/11/2023	17:01	-130.838	46.902	0	275.10	0	5.7570	0	33.8970	0	26.714	0	272.637	0	86.2	4	28.3	4	-1E+10	1	-1E+10	1	-1E+10	1	-1E+10	1	-1E+10	1	-1E+10	1
4902551	117	C	11/11/2023	17:01	-130.838	46.902	0	276.10	0	5.7460	0	33.8980	0	26.716	0	273.628	0	86.0	4	28.2	4	-1E+10	1	-1E+10	1	-1E+10	1	-1E+10	1	-1E+10	1	-1E+10	1
4902551	117	C	11/11/2023	17:01	-130.838	46.902	0	277.20	0	5.7340	0	33.9000	0	26.719	0	274.717	0	85.7	4	28.1	4	-1E+10	1	-1E+10	1	-1E+10	1	-1E+10	1	-1E+10	1	-1E+10	1
4902551	117	C	11/11/2023	17:01	-130.838	46.902	0	278.30	0	5.7320	0	33.9000	0	26.720	0	275.807	0	85.5	4	28.1	4	-1E+10	1	-1E+10	1	-1E+10	1	-1E+10	1	-1E+10	1	-1E+10	1
4902551	117	C	11/11/2023	17:01	-130.838	46.902	0	279.40	0	5.7270	0	33.9000	0	26.720	0	276.896	0	85.3	4	28.0	4	-1E+10	1	-1E+10	1	-1E+10	1	-1E+10	1	-1E+10	1	-1E+10	1
4902551	117	C	11/11/2023	17:01	-130.838	46.902	0	280.40	0	5.7250	0	33.9000	0	26.721	0	277.886	0	85.0	4	27.9	4	-1E+10	1	-1E+10	1	-1E+10	1	-1E+10	1	-1E+10	1	-1E+10	1
4902551	117	C	11/11/2023	17:01	-130.838	46.902	0	281.50	0	5.7230	0	33.9010	0	26.722	0	278.976	0	84.7	4	27.8	4	-1E+10	1	-1E+10	1	-1E+10	1	-1E+10	1	-1E+10	1	-1E+10	1
4902551	117	C	11/11/2023	17:01	-130.838	46.902	0	282.60	0	5.7180	0	33.9010	0	26.722	0	280.065	0	84.4	4	27.7	4	-1E+10	1	-1E+10	1	-1E+10	1	-1E+10	1	-1E+10	1	-1E+10	1
4902551	117	C	11/11/2023	17:01	-130.838	46.902	0	283.60	0	5.7150	0	33.9010	0	26.723	0	281.056	0	84.1	4	27.6	4	-1E+10	1	-1E+10	1	-1E+10	1	-1E+10	1	-1E+10	1	-1E+10	1
4902551	117	C	11/11/2023	17:01	-130.838	46.902	0	284.70	0	5.7020	0	33.9020	0	26.725	0	282.145	0	83.7	4	27.5	4	-1E+10	1	-1E+10	1	-1E+10	1	-1E+10	1	-1E+10	1	-1E+10	1
4902551	117	C	11/11/2023	17:01	-130.838	46.902	0	285.80	0	5.7010	0	33.9020	0	26.725	0	283.234	0	83.4	4	27.3	4	-1E+10	1	-1E+10	1	-1E+10	1	-1E+10	1	-1E+10	1	-1E+10	1
4902551	117	C	11/11/2023	17:01	-130.838	46.902	0	286.90	0	5.6950	0	33.9020	0	26.726	0	284.324	0	83.0	4	27.2	4	-1E+10	1	-1E+10	1	-1E+10	1	-1E+10	1	-1E+10	1	-1E+10	1
4902551	117	C	11/11/2023	17:01	-130.838	46.902	0	287.90	0	5.6450	0	33.9080	0	26.737	0	285.314	0	82.7	4	27.1	4	-1E+10	1	-1E+10	1	-1E+10	1	-1E+10	1	-1E+10	1	-1E+10	1
4902551	117	C	11/11/2023	17:01	-130.838	46.902	0	289.00	0	5.6340	0	33.9090	0	26.739	0	286.403	0	82.5	4	27.0	4	-1E+10	1	-1E+10	1	-1E+10	1	-1E+10	1	-1E+10	1	-1E+10	1
4902551	117	C	11/11/2023	17:01	-130.838	46.902	0	290.10	0	5.6260	0	33.9100	0	26.741	0	287.493	0	82.2	4	26.9	4	-1E+10	1	-1E+10	1	-1E+10	1	-1E+10	1	-1E+10	1	-1E+10	1
4902551	117	C	11/11/2023	17:01	-130.838	46.902	0	291.20	0	5.6260	0	33.9100	0	26.741	0	288.582	0	82.0	4	26.9	4	-1E+10	1	-1E+10	1	-1E+10	1	-1E+10	1	-1E+10	1	-1E+10	1
4902551	117	C	11/11/2023	17:01	-130.838	46.902	0	292.30	0	5.6230	0	33.9110	0	26.742	0	289.671	0	81.8	4	26.8	4	-1E+10	1	-1E+10	1	-1E+10	1	-1E+10	1	-1E+10	1	-1E+10	1
4902551	117	C	11/11/2023	17:01	-130.838	46.902	0	293.30	0	5.6230	0	33.9100	0	26.741	0	290.662	0	81.5	4	26.7	4	-1E+10	1	-1E+10	1	-1E+10	1	-1E+10	1	-1E+10	1	-1E+10	1
4902551	117	C	11/11/2023	17:01	-130.838	46.902	0	294.40	0	5.6200	0	33.9110	0	26.742	0	291.751	0	81.2	4	26.6	4	-1E+10	1	-1E+10	1	-1E+10	1	-1E+10	1	-1E+10	1	-1E+10	1
4902551	117	C	11/11/2023	17:01	-130.838	46.902	0	295.50	0	5.6180	0	33.9110	0	26.742	0	292.840	0	80.9	4	26.5	4	-1E+10	1	-1E+10	1	-1E+10	1	-1E+10	1	-1E+10	1	-1E+10	1
4902551	117	C	11/11/2023	17:01	-130.838	46.902	0	296.50	0	5.6150	0	33.9120	0	26.743	0	293.831	0	80.6	4	26.4	4	-1E+10	1	-1E+10	1	-1E+10	1	-1E+10	1	-1E+10	1	-1E+10	1
4902551	117	C	11/11/2023	17:01	-130.838	46.902	0	297.50	0	5.6140	0	33.9110	0	26.743	0	294.821	0	80.3	4	26.3	4	-1E+10	1	-1E+10	1	-1E+10	1	-1E+10	1	-1E+10	1	-1E+10	1
4902551	117	C	11/11/2023	17:01	-130.838	46.902	0	299.00	0	5.6110	0	33.9120	0	26.744	0	296.306	0	79.6	4	26.1	4	-1E+10	1	-1E+10	1	-1E+10	1	-1E+10	1	-1E+10	1	-1E+10	1
4902551	117	C	11/11/2023	17:01	-130.838	46.902	0	300.20	0	5.6090	0	33.9120	0	26.744	0	297.495	0	79.0	4	25.9	4	-1E+10	1	-1E+10	1	-1E+10	1	-1E+10	1	-1E+10	1	-1E+10	1
4902551	117	C	11/11/2023	17:01	-130.838	46.902	0	301.00	0	5.5970	0	33.9150	0	26.748	0	298.287	0	78.7	4	25.8	4	-1E+10	1	-1E+10	1	-1E+10	1	-1E+10	1	-1E+10	1	-1E+10	1
4902551	117	C	11/11/2023	17:01	-130.838	46.902	0	301.80	0	5.5860	0	33.9160	0	26.750	0	299.079	0	78.3	4	25.6	4	-1E+10	1	-1E+10	1	-1E+10	1	-1E+10	1	-1E+10	1	-1E+10	1
4902551	117	C	11/11/2023	17:01	-130.838	46.902	0	303.00	0	5.5810	0	33.9160	0	26.751	0	300.268	0	77.7	4	25.4	4	-1E+10	1	-1E+10	1	-1E+10	1	-1E+10	1	-1E+10	1	-1E+10	1
4902551	117	C	11/11/2023	17:01	-130.838	46.902	0	304.30	0	5.5780	0	33.9170	0	26.752	0	301.555	0	77.0	4	25.2	4	-1E+10	1	-1E+10	1	-1E+10	1	-1E+10	1	-1E+10	1	-1E+10	1
4902551	117	C	11/11/2023	17:01	-130.838	46.902	0	305.10	0	5.5710	0	33.9190	0	26.754	0	302.347	0	76.6	4	25.1	4	-1E+10	1	-1E+10	1	-1E+10	1	-1E+10	1	-1E+10	1	-1E+10	1
4902551	117	C	11/11/2023	17:01	-130.838	46.902	0	305.90	0	5.5690	0	33.9200	0	26.755	0	303.139	0	76.2	4	24.9	4	-1E+10	1	-1E+10	1	-1E+10	1	-1E+10	1	-1E+10	1	-1E+10	1
4902551	117	C	11/11/2023	17:01	-130.838	46.902	0	306.70	0	5.5610	0	33.9220	0	26.758	0	303.931	0	75.8	4	24.8	4	-1E+10	1	-1E+10	1	-1E+10	1	-1E+10	1	-1E+10	1	-1E+10	1
4902551	117	C	11/11/2023	17:01	-130.838	46.902	0	307.90	0	5.5580	0	33.9230	0	26.759	0	305.120	0	75.3	4	24.6	4	-1E+10	1	-1E+10	1	-1E+10	1	-1E+10	1	-1E+10	1	-1E+10	1
4902551	117	C	11/11/2023	17:01	-130.838	46.902	0	309.10	0	5.5560	0	33.9230	0	26.759	0	306.308	0	74.6	4	24.4	4	-1E+10	1	-1E+10	1	-1E+10	1	-1E+10	1	-1E+10	1	-1E+10	1
4902551	117	C	11/11/2023	17:01	-130.838	46.902	0	310.00	0	5.5560	0	33.9230	0	26.759	0	307.199	0	74.2	4	24.3	4	-1E+10	1	-1E+10	1	-1E+10	1	-1E+10	1	-1E+10	1	-1E+10	1
4902551	117	C	11/11/2023	17:01	-130.838	46.902	0	310.80	0	5.5560	0	33.9230	0	26.759	0	307.991	0	73.6	4	24.1	4	-1E+10	1	-1E+10	1	-1E+10	1	-1E+10	1	-1E+10	1	-1E+10	1
4902551	117	C	11/11/2023	17:01	-130.838	46.902	0	312.00	0	5.5470	0	33.9260	0	26.763	0	309.180	0	72.9	4	23.8	4	-1E+10	1	-1E+10	1	-1E+10	1	-1E+10	1	-1E+10	1	-1E+10	1
4902551	117	C	11/11/2023	17:01	-130.838	46.902	0	313.20	0	5.5420	0	33.9270	0	26.764	0	310.368	0	72.1	4	23.6	4	-1E+10	1	-1E+10	1	-1E+10	1	-1E+10	1	-1E+10	1	-1E+10	1
4902551	117	C	11/11/2023	17:01	-130.838	46.902	0	314.10	0	5.5350	0	33.9290	0	26.767	0	311.259	0	71.7	4	23.4	4	-1E+10	1	-1E+10	1	-1E+10	1	-1E+10	1	-1E+10	1	-1E+10	1
4902551	117	C	11/11/2023	17:01	-130.838	46.902	0	314.90	0	5.5250	0	33.9320	0	26.770	0	312.051	0	71.4	4	23.3	4	-1E+10	1	-1E+10	1	-1E+10	1	-1E+10	1	-1E+10	1	-1E+10	1
4902551	117	C	11/11/2023	17:01	-130.838	46.902	0	315.70	0	5.5140	0	33.9360	0	26.775	0	312.843	0	71.2	4	23.2	4	-1E+10	1	-1E+10	1	-1E+10	1	-1E+10	1	-1E+10	1	-1E+10	1
4902551	117	C	11/11/2023	17:01	-130.838	46.902	0	316.60	0	5.5140	0	33.9360	0	26.775	0	313.735	0	71.0	4	23.2	4	-1E+10	1	-1E+10	1	-1E+10	1	-1E+10	1	-1E+10	1	-1E+10	1
4902551	117	C	11/11/2023	17:01	-130.838	46.902	0	317.90	0	5.5070	0	33.9370	0	26.776	0	315.022	0	70.7	4	23.1	4	-1E+10	1	-1E+10	1	-1E+10	1	-1E+10	1	-1E+10	1	-1E+10	1
4902551	117	C	11/11/2023	17:01	-130.838	46.902	0	319.20	0	5.5050	0	33.9380	0	26.777	0	316.309	0	70.5	4	23.0	4	-1E+10	1	-1E+10	1	-1E+10	1	-1E+10	1	-1E+10	1	-1E+10	1
4902551	117	C	11/11/2023	17:01	-130.838	46.902	0	320.00	0	5.5050	0	33.9380	0	26.777	0	317.101	0	70.4	4	23.0	4	-1E+10	1	-1E+10	1	-1E+10	1	-1E+10	1	-1E+10	1	-1E+10	1
4902551	117	C	11/11/2023	17:01	-130.838	46.902	0	320.90	0	5.5050	0	33.9380	0	26.778	0	317.992	0	70.2	4	22.9	4	-1E+10	1	-1E+10	1	-1E+10	1	-1E+10	1	-1E+10	1	-1E+10	1
4902551	117	C	11/11/2023	17:01	-130.838	46.902	0	321.70	0	5.5040	0	33.9390	0	26.778	0	318.785	0	70.0	4	22.9	4	-1E+10	1	-1E+10	1	-1E+10	1	-1E+10	1	-1E+10	1	-1E+10	1
4902551	117	C	11/11/2023	17:01	-130.838	46.902	0	322.60	0	5.5040	0	33.9380	0	26.778	0	319.676	0	69.8	4	22.8	4	-1E+10	1	-1E+10	1	-1E+10	1	-1E+10	1	-1E+10	1	-1E+10	1
4902551	117	C	11/11/2023	17:01	-130.838	46.902	0	323.90	0	5.5040	0	33.9380	0	26.778	0	320.963	0	69.5	4	22.7	4	-1E+10	1	-1E+10	1	-1E+10	1	-1E+10	1	-1E+10	1	-1E+10	1
4902551	117	C	11/11/2023	17:01	-130.838	46.902	0	325.20	0	5.5020	0	33.9390	0	26.779	0	322.250	0	69.1	4	22.6	4	-1E+10	1	-1E+10	1	-1E+10	1	-1E+10	1	-1E+10	1	-1E+10	1
4902551	117	C	11/11/2023	17:01	-130.838	46.902	0	326.10	0	5.4980	0	33.9400	0	26.780	0	323.141	0	68.9	4	22.5	4	-1E+10	1	-1E+10	1	-1E+10	1	-1E+10	1	-1E+10	1	-1E+10	1
4902551	117	C	11/11/2023	17:01	-130.838	46.902	0	326.90	0	5.4970	0	33.9400	0	26.780	0	323.933	0	68.6	4	22.4	4	-1E+10	1	-1E+10	1	-1E+10	1	-1E+10	1	-1E+10	1	-1E+10	1
4902551	117	C	11/11/2023	17:01	-130.838	46.902	0	327.80	0	5.4960	0	33.9410	0	26.781	0	324.824	0	68.3	4	22.3	4	-1E+10	1	-1E+10	1	-1E+10	1	-1E+10	1	-1E+10	1	-1E+10	1
4902551	117	C	11/11/2023	17:01	-130.838	46.902	0	328.60	0	5.4960	0	33.9410	0	26.781	0	325.617	0	68.0	4	22.2	4	-1E+10	1	-1E+10	1	-1E+10	1	-1E+10	1	-1E+10	1	-1E+10	1
4902551	117	C	11/11/2023	17:01	-130.838	46.902	0	329.90	0	5.4920	0	33.9420	0	26.782	0	326.904	0	67.6	4	22.1	4	-1E+10	1	-1E+10	1	-1E+10	1	-1E+10	1	-1E+10	1	-1E+10	1
4902551	117	C	11/11/2023	17:01	-130.838	46.902	0	331.20	0	5.4910	0	33.9420	0	26.782	0	328.191	0	67.1	4	21.9	4	-1E+10	1	-1E+10	1	-1E+10	1	-1E+10	1	-1E+10	1	-1E+10	1
4902551	117	C	11/11/2023	17:01	-130.838	46.902	0	332.10	0	5.4900	0	33.9420	0	26.783	0	329.082	0	66.7	4	21.8	4	-1E+10	1	-1E+10	1	-1E+10	1	-1E+10	1	-1E+10	1	-1E+10	1
4902551	117	C	11/11/2023	17:01	-130.838	46.902	0	333.00	0	5.4890	0	33.9420	0	26.783	0	329.973	0	66.3	4	21.6	4	-1E+10	1	-1E+10	1	-1E+10	1	-1E+10	1	-1E+10	1	-1E+10	1
4902551	117	C	11/11/2023	17:01	-130.838	46.902	0	333.80	0	5.4850	0	33.9430	0	26.784	0	330.765	0	65.9	4	21.5	4	-1E+10	1	-1E+10	1	-1E+10	1	-1E+10	1	-1E+10	1	-1E+10	1
4902551	117	C	11/11/2023	17:01	-130.838	46.902	0	334.70	0	5.4840	0	33.9430	0	26.784	0	331.656	0	65.4	4	21.3	4	-1E+10	1	-1E+10	1	-1E+10	1	-1E+10	1	-1E+10	1	-1E+10	1
4902551	117	C	11/11/2023	17:01	-130.838	46.902	0	336.00	0	5.4780	0	33.9450	0	26.786	0	332.943	0	64.7	4	21.1	4	-1E+10	1	-1E+10	1	-1E+10	1	-1E+10	1	-1E+10	1	-1E+10	1
4902551	117	C	11/11/2023	17:01	-130.838	46.902	0	337.30	0	5.4720	0	33.9470	0	26.789	0	334.231	0	64.1	4	20.9	4	-1E+10	1	-1E+10	1	-1E+10	1	-1E+10	1	-1E+10	1	-1E+10	1
4902551	117	C	11/11/2023	17:01	-130.838	46.902	0	338.20	0	5.4670	0	33.9480	0	26.790	0	335.122	0	63.7	4	20.8	4	-1E+10	1	-1E+10	1	-1E+10	1	-1E+10	1	-1E+10	1	-1E+10	1
4902551	117	C	11/11/2023	17:01	-130.838	46.902	0	339.10	0	5.4600	0	33.9500	0	26.793	0	336.013	0	63.3	4	20.6	4	-1E+10	1	-1E+10	1	-1E+10	1	-1E+10	1	-1E+10	1	-1E+10	1
4902551	117	C	11/11/2023	17:01	-130.838	46.902	0	340.00	0	5.4570	0	33.9500	0	26.793	0	336.904	0	62.9	4	20.5	4	-1E+10	1	-1E+10	1	-1E+10	1	-1E+10	1	-1E+10	1	-1E+10	1
4902551	117	C	11/11/2023	17:01	-130.838	46.902	0	340.80	0	5.4560	0	33.9510	0	26.794	0	337.696	0	62.5	4	20.4	4	-1E+10	1	-1E+10	1	-1E+10	1	-1E+10	1	-1E+10	1	-1E+10	1
4902551	117	C	11/11/2023	17:01	-130.838	46.902	0	341.70	0	5.4520	0	33.9520	0	26.795	0	338.587	0	62.1	4	20.3	4	-1E+10	1	-1E+10	1	-1E+10	1	-1E+10	1	-1E+10	1	-1E+10	1
4902551	117	C	11/11/2023	17:01	-130.838	46.902	0	342.60	0	5.4480	0	33.9530	0	26.796	0	339.478	0	61.7	4	20.1	4	-1E+10	1	-1E+10	1	-1E+10	1	-1E+10	1	-1E+10	1	-1E+10	1
4902551	117	C	11/11/2023	17:01	-130.838	46.902	0	343.90	0	5.4430	0	33.9540	0	26.798	0	340.765	0	61.0	4	19.9	4	-1E+10	1	-1E+10	1	-1E+10	1	-1E+10	1	-1E+10	1	-1E+10	1
4902551	117	C	11/11/2023	17:01	-130.838	46.902	0	345.30	0	5.4340	0	33.9550	0	26.800	0	342.151	0	60.4	4	19.7	4	-1E+10	1	-1E+10	1	-1E+10	1	-1E+10	1	-1E+10	1	-1E+10	1
4902551	117	C	11/11/2023	17:01	-130.838	46.902	0	346.20	0	5.4260	0	33.9570	0	26.802	0	343.042	0	60.1	4	19.6	4	-1E+10	1	-1E+10	1	-1E+10	1	-1E+10	1	-1E+10	1	-1E+10	1
4902551	117	C	11/11/2023	17:01	-130.838	46.902	0	347.10	0	5.4220	0	33.9580	0	26.803	0	343.933	0	59.8	4	19.5	4	-1E+10	1	-1E+10	1	-1E+10	1	-1E+10	1	-1E+10	1	-1E+10	1
4902551	117	C	11/11/2023	17:01	-130.838	46.902	0	348.00	0	5.4180	0	33.9590	0	26.805	0	344.824	0	59.4	4	19.4	4	-1E+10	1	-1E+10	1	-1E+10	1	-1E+10	1	-1E+10	1	-1E+10	1
4902551	117	C	11/11/2023	17:01	-130.838	46.902	0	348.80	0	5.4150	0	33.9590	0	26.805	0	345.616	0	59.0	4	19.2	4	-1E+10	1	-1E+10	1	-1E+10	1	-1E+10	1	-1E+10	1	-1E+10	1
4902551	117	C	11/11/2023	17:01	-130.838	46.902	0	349.70	0	5.4120	0	33.9610	0	26.807	0	346.507	0	58.7	4	19.1	4	-1E+10	1	-1E+10	1	-1E+10	1	-1E+10	1	-1E+10	1	-1E+10	1
4902551	117	C	11/11/2023	17:01	-130.838	46.902	0	352.80	0	5.3960	0	33.9640	0	26.811	0	349.576	0	57.4	4	18.7	4	-1E+10	1	-1E+10	1	-1E+10	1	-1E+10	1	-1E+10	1	-1E+10	1
4902551	117	C	11/11/2023	17:01	-130.838	46.902	0	358.10	0	5.3500	0	33.9710	0	26.822	0	354.823	0	55.9	4	18.2	4	-1E+10	1	-1E+10	1	-1E+10	1	-1E+10	1	-1E+10	1	-1E+10	1
4902551	117	C	11/11/2023	17:01	-130.838	46.902	0	363.00	0	5.3220	0	33.9750	0	26.829	0	359.674	0	55.1	4	17.9	4	-1E+10	1	-1E+10	1	-1E+10	1	-1E+10	1	-1E+10	1	-1E+10	1
4902551	117	C	11/11/2023	17:01	-130.838	46.902	0	367.80	0	5.3070	0	33.9770	0	26.832	0	364.426	0	54.5	4	17.7	4	-1E+10	1	-1E+10	1	-1E+10	1	-1E+10	1	-1E+10	1	-1E+10	1
4902551	117	C	11/11/2023	17:01	-130.838	46.902	0	373.10	0	5.2870	0	33.9790	0	26.836	0	369.673	0	53.8	4	17.5	4	-1E+10	1	-1E+10	1	-1E+10	1	-1E+10	1	-1E+10	1	-1E+10	1
4902551	117	C	11/11/2023	17:01	-130.838	46.902	0	378.00	0	5.2710	0	33.9800	0	26.839	0	374.523	0	52.9	4	17.2	4	-1E+10	1	-1E+10	1	-1E+10	1	-1E+10	1	-1E+10	1	-1E+10	1
4902551	117	C	11/11/2023	17:01	-130.838	46.902	0	382.90	0	5.2300	0	33.9830	0	26.846	0	379.374	0	52.1	4	16.9	4	-1E+10	1	-1E+10	1	-1E+10	1	-1E+10	1	-1E+10	1	-1E+10	1
4902551	117	C	11/11/2023	17:01	-130.838	46.902	0	387.90	0	5.2020	0	33.9850	0	26.851	0	384.323	0	51.4	4	16.7	4	-1E+10	1	-1E+10	1	-1E+10	1	-1E+10	1	-1E+10	1	-1E+10	1
4902551	117	C	11/11/2023	17:01	-130.838	46.902	0	392.70	0	5.1770	0	33.9870	0	26.856	0	389.074	0	50.7	4	16.4	4	-1E+10	1	-1E+10	1	-1E+10	1	-1E+10	1	-1E+10	1	-1E+10	1
4902551	117	C	11/11/2023	17:01	-130.838	46.902	0	398.00	0	5.1330	0	33.9890	0	26.862	0	394.320	0	50.0	4	16.2	4	-1E+10	1	-1E+10	1	-1E+10	1	-1E+10	1	-1E+10	1	-1E+10	1
4902551	117	C	11/11/2023	17:01	-130.838	46.902	0	403.20	0	5.0900	0	33.9910	0	26.869	0	399.467	0	49.4	4	16.0	4	-1E+10	1	-1E+10	1	-1E+10	1	-1E+10	1	-1E+10	1	-1E+10	1
4902551	117	C	11/11/2023	17:01	-130.838	46.902	0	408.00	0	5.0390	0	33.9920	0	26.875	0	404.218	0	48.7	4	15.7	4	-1E+10	1	-1E+10	1	-1E+10	1	-1E+10	1	-1E+10	1	-1E+10	1
4902551	117	C	11/11/2023	17:01	-130.838	46.902	0	412.80	0	5.0070	0	33.9940	0	26.881	0	408.969	0	47.6	4	15.4	4	-1E+10	1	-1E+10	1	-1E+10	1	-1E+10	1	-1E+10	1	-1E+10	1
4902551	117	C	11/11/2023	17:01	-130.838	46.902	0	418.10	0	4.9750	0	33.9990	0	26.888	0	414.215	0	46.2	4	14.9	4	-1E+10	1	-1E+10	1	-1E+10	1	-1E+10	1	-1E+10	1	-1E+10	1
4902551	117	C	11/11/2023	17:01	-130.838	46.902	0	422.90	0	4.9470	0	34.0030	0	26.895	0	418.965	0	45.1	4	14.5	4	-1E+10	1	-1E+10	1	-1E+10	1	-1E+10	1	-1E+10	1	-1E+10	1
4902551	117	C	11/11/2023	17:01	-130.838	46.902	0	427.70	0	4.9120	0	34.0090	0	26.903	0	423.716	0	44.2	4	14.3	4	-1E+10	1	-1E+10	1	-1E+10	1	-1E+10	1	-1E+10	1	-1E+10	1
4902551	117	C	11/11/2023	17:01	-130.838	46.902	0	433.00	0	4.8850	0	34.0120	0	26.909	0	428.961	0	43.4	4	14.0	4	-1E+10	1	-1E+10	1	-1E+10	1	-1E+10	1	-1E+10	1	-1E+10	1
4902551	117	C	11/11/2023	17:01	-130.838	46.902	0	438.20	0	4.8610	0	34.0150	0	26.914	0	434.107	0	42.4	4	13.7	4	-1E+10	1	-1E+10	1	-1E+10	1	-1E+10	1	-1E+10	1	-1E+10	1
4902551	117	C	11/11/2023	17:01	-130.838	46.902	0	443.00	0	4.8320	0	34.0180	0	26.920	0	438.857	0	41.3	4	13.3	4	-1E+10	1	-1E+10	1	-1E+10	1	-1E+10	1	-1E+10	1	-1E+10	1
4902551	117	C	11/11/2023	17:01	-130.838	46.902	0	447.80	0	4.7870	0	34.0230	0	26.929	0	443.607	0	40.3	4	12.9	4	-1E+10	1	-1E+10	1	-1E+10	1	-1E+10	1	-1E+10	1	-1E+10	1
4902551	117	C	11/11/2023	17:01	-130.838	46.902	0	453.10	0	4.7620	0	34.0260	0	26.934	0	448.851	0	39.2	4	12.6	4	-1E+10	1	-1E+10	1	-1E+10	1	-1E+10	1	-1E+10	1	-1E+10	1
4902551	117	C	11/11/2023	17:01	-130.838	46.902	0	458.10	0	4.7360	0	34.0310	0	26.941	0	453.799	0	38.3	4	12.3	4	-1E+10	1	-1E+10	1	-1E+10	1	-1E+10	1	-1E+10	1	-1E+10	1
4902551	117	C	11/11/2023	17:01	-130.838	46.902	0	462.70	0	4.7080	0	34.0350	0	26.947	0	458.351	0	37.7	4	12.1	4	-1E+10	1	-1E+10	1	-1E+10	1	-1E+10	1	-1E+10	1	-1E+10	1
4902551	117	C	11/11/2023	17:01	-130.838	46.902	0	467.80	0	4.6830	0	34.0390	0	26.953	0	463.397	0	37.0	4	11.9	4	-1E+10	1	-1E+10	1	-1E+10	1	-1E+10	1	-1E+10	1	-1E+10	1
4902551	117	C	11/11/2023	17:01	-130.838	46.902	0	473.10	0	4.6750	0	34.0410	0	26.956	0	468.641	0	36.3	4	11.6	4	-1E+10	1	-1E+10	1	-1E+10	1	-1E+10	1	-1E+10	1	-1E+10	1
4902551	117	C	11/11/2023	17:01	-130.838	46.902	0	477.90	0	4.6700	0	34.0440	0	26.959	0	473.391	0	35.7	4	11.4	4	-1E+10	1	-1E+10	1	-1E+10	1	-1E+10	1	-1E+10	1	-1E+10	1
4902551	117	C	11/11/2023	17:01	-130.838	46.902	0	482.70	0	4.6590	0	34.0460	0	26.961	0	478.140	0	35.0	4	11.2	4	-1E+10	1	-1E+10	1	-1E+10	1	-1E+10	1	-1E+10	1	-1E+10	1
4902551	117	C	11/11/2023	17:01	-130.838	46.902	0	487.60	0	4.6340	0	34.0500	0	26.967	0	482.988	0	34.1	4	10.9	4	-1E+10	1	-1E+10	1	-1E+10	1	-1E+10	1	-1E+10	1	-1E+10	1
4902551	117	C	11/11/2023	17:01	-130.838	46.902	0	492.90	0	4.6310	0	34.0520	0	26.969	0	488.232	0	33.0	4	10.6	4	-1E+10	1	-1E+10	1	-1E+10	1	-1E+10	1	-1E+10	1	-1E+10	1
4902551	117	C	11/11/2023	17:01	-130.838	46.902	0	498.20	0	4.6100	0	34.0580	0	26.976	0	493.475	0	31.4	4	10.1	4	-1E+10	1	-1E+10	1	-1E+10	1	-1E+10	1	-1E+10	1	-1E+10	1
4902551	117	C	11/11/2023	17:01	-130.838	46.902	0	503.20	0	4.5990	0	34.0670	0	26.985	0	498.422	0	30.3	4	9.7	4	-1E+10	1	-1E+10	1	-1E+10	1	-1E+10	1	-1E+10	1	-1E+10	1
4902551	117	C	11/11/2023	17:01	-130.838	46.902	0	508.30	0	4.6010	0	34.0730	0	26.989	0	503.467	0	29.5	4	9.4	4	-1E+10	1	-1E+10	1	-1E+10	1	-1E+10	1	-1E+10	1	-1E+10	1
4902551	117	C	11/11/2023	17:01	-130.838	46.902	0	513.30	0	4.6020	0	34.0750	0	26.991	0	508.413	0	28.5	4	9.1	4	-1E+10	1	-1E+10	1	-1E+10	1	-1E+10	1	-1E+10	1	-1E+10	1
4902551	117	C	11/11/2023	17:01	-130.838	46.902	0	517.90	0	4.5820	0	34.0810	0	26.998	0	512.964	0	27.4	4	8.8	4	-1E+10	1	-1E+10	1	-1E+10	1	-1E+10	1	-1E+10	1	-1E+10	1
4902551	117	C	11/11/2023	17:01	-130.838	46.902	0	522.70	0	4.5740	0	34.0880	0	27.004	0	517.712	0	26.3	4	8.4	4	-1E+10	1	-1E+10	1	-1E+10	1	-1E+10	1	-1E+10	1	-1E+10	1
4902551	117	C	11/11/2023	17:01	-130.838	46.902	0	527.60	0	4.5810	0	34.0950	0	27.009	0	522.559	0	25.5	4	8.1	4	-1E+10	1	-1E+10	1	-1E+10	1	-1E+10	1	-1E+10	1	-1E+10	1
4902551	117	C	11/11/2023	17:01	-130.838	46.902	0	532.60	0	4.5700	0	34.1000	0	27.014	0	527.505	0	24.7	4	7.9	4	-1E+10	1	-1E+10	1	-1E+10	1	-1E+10	1	-1E+10	1	-1E+10	1
4902551	117	C	11/11/2023	17:01	-130.838	46.902	0	537.70	0	4.5570	0	34.1050	0	27.020	0	532.550	0	24.0	4	7.7	4	-1E+10	1	-1E+10	1	-1E+10	1	-1E+10	1	-1E+10	1	-1E+10	1
4902551	117	C	11/11/2023	17:01	-130.838	46.902	0	542.80	0	4.5450	0	34.1090	0	27.024	0	537.594	0	23.3	4	7.5	4	-1E+10	1	-1E+10	1	-1E+10	1	-1E+10	1	-1E+10	1	-1E+10	1
4902551	117	C	11/11/2023	17:01	-130.838	46.902	0	548.00	0	4.5320	0	34.1130	0	27.029	0	542.738	0	22.8	4	7.3	4	-1E+10	1	-1E+10	1	-1E+10	1	-1E+10	1	-1E+10	1	-1E+10	1
4902551	117	C	11/11/2023	17:01	-130.838	46.902	0	553.20	0	4.5190	0	34.1150	0	27.032	0	547.881	0	22.2	4	7.1	4	-1E+10	1	-1E+10	1	-1E+10	1	-1E+10	1	-1E+10	1	-1E+10	1
4902551	117	C	11/11/2023	17:01	-130.838	46.902	0	558.00	0	4.4930	0	34.1190	0	27.038	0	552.628	0	21.4	4	6.8	4	-1E+10	1	-1E+10	1	-1E+10	1	-1E+10	1	-1E+10	1	-1E+10	1
4902551	117	C	11/11/2023	17:01	-130.838	46.902	0	562.80	0	4.4430	0	34.1270	0	27.050	0	557.376	0	21.0	4	6.7	4	-1E+10	1	-1E+10	1	-1E+10	1	-1E+10	1	-1E+10	1	-1E+10	1
4902551	117	C	11/11/2023	17:01	-130.838	46.902	0	568.20	0	4.3900	0	34.1300	0	27.058	0	562.716	0	20.6	4	6.6	4	-1E+10	1	-1E+10	1	-1E+10	1	-1E+10	1	-1E+10	1	-1E+10	1
4902551	117	C	11/11/2023	17:01	-130.838	46.902	0	573.10	0	4.3620	0	34.1320	0	27.062	0	567.562	0	20.2	4	6.4	4	-1E+10	1	-1E+10	1	-1E+10	1	-1E+10	1	-1E+10	1	-1E+10	1
4902551	117	C	11/11/2023	17:01	-130.838	46.902	0	578.00	0	4.3350	0	34.1380	0	27.070	0	572.408	0	19.6	4	6.2	4	-1E+10	1	-1E+10	1	-1E+10	1	-1E+10	1	-1E+10	1	-1E+10	1
4902551	117	C	11/11/2023	17:01	-130.838	46.902	0	582.90	0	4.3270	0	34.1410	0	27.073	0	577.254	0	18.7	4	6.0	4	-1E+10	1	-1E+10	1	-1E+10	1	-1E+10	1	-1E+10	1	-1E+10	1
4902551	117	C	11/11/2023	17:01	-130.838	46.902	0	587.70	0	4.3120	0	34.1480	0	27.081	0	582.001	0	18.1	4	5.7	4	-1E+10	1	-1E+10	1	-1E+10	1	-1E+10	1	-1E+10	1	-1E+10	1
4902551	117	C	11/11/2023	17:01	-130.838	46.902	0	592.90	0	4.2880	0	34.1550	0	27.089	0	587.143	0	17.3	4	5.5	4	-1E+10	1	-1E+10	1	-1E+10	1	-1E+10	1	-1E+10	1	-1E+10	1
4902551	117	C	11/11/2023	17:01	-130.838	46.902	0	597.80	0	4.2690	0	34.1600	0	27.095	0	591.989	0	16.8	4	5.3	4	-1E+10	1	-1E+10	1	-1E+10	1	-1E+10	1	-1E+10	1	-1E+10	1
4902551	117	C	11/11/2023	17:01	-130.838	46.902	0	602.70	0	4.2450	0	34.1660	0	27.102	0	596.834	0	16.4	4	5.2	4	-1E+10	1	-1E+10	1	-1E+10	1	-1E+10	1	-1E+10	1	-1E+10	1
4902551	117	C	11/11/2023	17:01	-130.838	46.902	0	608.10	0	4.2230	0	34.1710	0	27.108	0	602.174	0	16.1	4	5.1	4	-1E+10	1	-1E+10	1	-1E+10	1	-1E+10	1	-1E+10	1	-1E+10	1
4902551	117	C	11/11/2023	17:01	-130.838	46.902	0	613.10	0	4.2150	0	34.1730	0	27.111	0	607.118	0	15.9	4	5.0	4	-1E+10	1	-1E+10	1	-1E+10	1	-1E+10	1	-1E+10	1	-1E+10	1
4902551	117	C	11/11/2023	17:01	-130.838	46.902	0	617.70	0	4.2050	0	34.1760	0	27.114	0	611.666	0	15.7	4	5.0	4	-1E+10	1	-1E+10	1	-1E+10	1	-1E+10	1	-1E+10	1	-1E+10	1
4902551	117	C	11/11/2023	17:01	-130.838	46.902	0	622.70	0	4.1920	0	34.1780	0	27.117	0	616.610	0	15.5	4	4.9	4	-1E+10	1	-1E+10	1	-1E+10	1	-1E+10	1	-1E+10	1	-1E+10	1
4902551	117	C	11/11/2023	17:01	-130.838	46.902	0	627.80	0	4.1820	0	34.1820	0	27.121	0	621.652	0	15.2	4	4.8	4	-1E+10	1	-1E+10	1	-1E+10	1	-1E+10	1	-1E+10	1	-1E+10	1
4902551	117	C	11/11/2023	17:01	-130.838	46.902	0	633.00	0	4.1740	0	34.1830	0	27.123	0	626.794	0	15.0	4	4.8	4	-1E+10	1	-1E+10	1	-1E+10	1	-1E+10	1	-1E+10	1	-1E+10	1
4902551	117	C	11/11/2023	17:01	-130.838	46.902	0	638.20	0	4.1640	0	34.1860	0	27.127	0	631.935	0	14.6	4	4.6	4	-1E+10	1	-1E+10	1	-1E+10	1	-1E+10	1	-1E+10	1	-1E+10	1
4902551	117	C	11/11/2023	17:01	-130.838	46.902	0	643.10	0	4.1300	0	34.1950	0	27.137	0	636.779	0	14.4	4	4.6	4	-1E+10	1	-1E+10	1	-1E+10	1	-1E+10	1	-1E+10	1	-1E+10	1
4902551	117	C	11/11/2023	17:01	-130.838	46.902	0	648.00	0	4.1110	0	34.1970	0	27.141	0	641.623	0	14.3	4	4.5	4	-1E+10	1	-1E+10	1	-1E+10	1	-1E+10	1	-1E+10	1	-1E+10	1
4902551	117	C	11/11/2023	17:01	-130.838	46.902	0	653.00	0	4.0940	0	34.2000	0	27.145	0	646.566	0	14.2	4	4.5	4	-1E+10	1	-1E+10	1	-1E+10	1	-1E+10	1	-1E+10	1	-1E+10	1
4902551	117	C	11/11/2023	17:01	-130.838	46.902	0	657.90	0	4.0830	0	34.2020	0	27.148	0	651.411	0	14.0	4	4.4	4	-1E+10	1	-1E+10	1	-1E+10	1	-1E+10	1	-1E+10	1	-1E+10	1
4902551	117	C	11/11/2023	17:01	-130.838	46.902	0	663.20	0	4.0690	0	34.2030	0	27.150	0	656.650	0	13.7	4	4.3	4	-1E+10	1	-1E+10	1	-1E+10	1	-1E+10	1	-1E+10	1	-1E+10	1
4902551	117	C	11/11/2023	17:01	-130.838	46.902	0	668.10	0	4.0440	0	34.2090	0	27.158	0	661.494	0	13.4	4	4.2	4	-1E+10	1	-1E+10	1	-1E+10	1	-1E+10	1	-1E+10	1	-1E+10	1
4902551	117	C	11/11/2023	17:01	-130.838	46.902	0	672.80	0	4.0250	0	34.2160	0	27.165	0	666.140	0	13.2	4	4.2	4	-1E+10	1	-1E+10	1	-1E+10	1	-1E+10	1	-1E+10	1	-1E+10	1
4902551	117	C	11/11/2023	17:01	-130.838	46.902	0	677.70	0	3.9950	0	34.2200	0	27.171	0	670.983	0	13.1	4	4.1	4	-1E+10	1	-1E+10	1	-1E+10	1	-1E+10	1	-1E+10	1	-1E+10	1
4902551	117	C	11/11/2023	17:01	-130.838	46.902	0	682.70	0	3.9830	0	34.2220	0	27.174	0	675.926	0	13.0	4	4.1	4	-1E+10	1	-1E+10	1	-1E+10	1	-1E+10	1	-1E+10	1	-1E+10	1
4902551	117	C	11/11/2023	17:01	-130.838	46.902	0	687.80	0	3.9750	0	34.2230	0	27.176	0	680.967	0	12.9	4	4.1	4	-1E+10	1	-1E+10	1	-1E+10	1	-1E+10	1	-1E+10	1	-1E+10	1
4902551	117	C	11/11/2023	17:01	-130.838	46.902	0	692.90	0	3.9620	0	34.2240	0	27.178	0	686.008	0	12.8	4	4.0	4	-1E+10	1	-1E+10	1	-1E+10	1	-1E+10	1	-1E+10	1	-1E+10	1
4902551	117	C	11/11/2023	17:01	-130.838	46.902	0	697.80	0	3.9550	0	34.2270	0	27.181	0	690.851	0	12.7	4	4.0	4	-1E+10	1	-1E+10	1	-1E+10	1	-1E+10	1	-1E+10	1	-1E+10	1
4902551	117	C	11/11/2023	17:01	-130.838	46.902	0	702.80	0	3.9430	0	34.2290	0	27.184	0	695.793	0	12.5	4	3.9	4	-1E+10	1	-1E+10	1	-1E+10	1	-1E+10	1	-1E+10	1	-1E+10	1
4902551	117	C	11/11/2023	17:01	-130.838	46.902	0	707.90	0	3.9340	0	34.2320	0	27.187	0	700.833	0	12.4	4	3.9	4	-1E+10	1	-1E+10	1	-1E+10	1	-1E+10	1	-1E+10	1	-1E+10	1
4902551	117	C	11/11/2023	17:01	-130.838	46.902	0	713.10	0	3.9210	0	34.2360	0	27.192	0	705.973	0	12.3	4	3.9	4	-1E+10	1	-1E+10	1	-1E+10	1	-1E+10	1	-1E+10	1	-1E+10	1
4902551	117	C	11/11/2023	17:01	-130.838	46.902	0	718.20	0	3.9070	0	34.2400	0	27.196	0	711.013	0	12.2	4	3.8	4	-1E+10	1	-1E+10	1	-1E+10	1	-1E+10	1	-1E+10	1	-1E+10	1
4902551	117	C	11/11/2023	17:01	-130.838	46.902	0	723.00	0	3.8990	0	34.2430	0	27.200	0	715.757	0	12.1	4	3.8	4	-1E+10	1	-1E+10	1	-1E+10	1	-1E+10	1	-1E+10	1	-1E+10	1
4902551	117	C	11/11/2023	17:01	-130.838	46.902	0	727.90	0	3.8930	0	34.2450	0	27.202	0	720.599	0	12.0	4	3.8	4	-1E+10	1	-1E+10	1	-1E+10	1	-1E+10	1	-1E+10	1	-1E+10	1
4902551	117	C	11/11/2023	17:01	-130.838	46.902	0	732.90	0	3.8790	0	34.2470	0	27.205	0	725.540	0	11.9	4	3.7	4	-1E+10	1	-1E+10	1	-1E+10	1	-1E+10	1	-1E+10	1	-1E+10	1
4902551	117	C	11/11/2023	17:01	-130.838	46.902	0	737.90	0	3.8660	0	34.2510	0	27.209	0	730.481	0	11.8	4	3.7	4	-1E+10	1	-1E+10	1	-1E+10	1	-1E+10	1	-1E+10	1	-1E+10	1
4902551	117	C	11/11/2023	17:01	-130.838	46.902	0	743.10	0	3.8610	0	34.2510	0	27.210	0	735.620	0	11.7	4	3.7	4	-1E+10	1	-1E+10	1	-1E+10	1	-1E+10	1	-1E+10	1	-1E+10	1
4902551	117	C	11/11/2023	17:01	-130.838	46.902	0	747.80	0	3.8450	0	34.2530	0	27.213	0	740.264	0	11.7	4	3.7	4	-1E+10	1	-1E+10	1	-1E+10	1	-1E+10	1	-1E+10	1	-1E+10	1
4902551	117	C	11/11/2023	17:01	-130.838	46.902	0	752.50	0	3.8280	0	34.2560	0	27.217	0	744.908	0	11.7	4	3.7	4	-1E+10	1	-1E+10	1	-1E+10	1	-1E+10	1	-1E+10	1	-1E+10	1
4902551	117	C	11/11/2023	17:01	-130.838	46.902	0	757.80	0	3.8220	0	34.2580	0	27.220	0	750.145	0	11.8	4	3.7	4	-1E+10	1	-1E+10	1	-1E+10	1	-1E+10	1	-1E+10	1	-1E+10	1
4902551	117	C	11/11/2023	17:01	-130.838	46.902	0	763.10	0	3.8150	0	34.2600	0	27.222	0	755.382	0	12.1	4	3.8	4	-1E+10	1	-1E+10	1	-1E+10	1	-1E+10	1	-1E+10	1	-1E+10	1
4902551	117	C	11/11/2023	17:01	-130.838	46.902	0	767.80	0	3.7820	0	34.2610	0	27.226	0	760.026	0	12.4	4	3.9	4	-1E+10	1	-1E+10	1	-1E+10	1	-1E+10	1	-1E+10	1	-1E+10	1
4902551	117	C	11/11/2023	17:01	-130.838	46.902	0	772.70	0	3.7470	0	34.2560	0	27.226	0	764.868	0	12.5	4	3.9	4	-1E+10	1	-1E+10	1	-1E+10	1	-1E+10	1	-1E+10	1	-1E+10	1
4902551	117	C	11/11/2023	17:01	-130.838	46.902	0	778.00	0	3.6930	0	34.2560	0	27.231	0	770.104	0	12.2	4	3.8	4	-1E+10	1	-1E+10	1	-1E+10	1	-1E+10	1	-1E+10	1	-1E+10	1
4902551	117	C	11/11/2023	17:01	-130.838	46.902	0	783.30	0	3.7080	0	34.2630	0	27.235	0	775.341	0	11.5	4	3.6	4	-1E+10	1	-1E+10	1	-1E+10	1	-1E+10	1	-1E+10	1	-1E+10	1
4902551	117	C	11/11/2023	17:01	-130.838	46.902	0	788.00	0	3.7350	0	34.2710	0	27.239	0	779.984	0	11.2	4	3.5	4	-1E+10	1	-1E+10	1	-1E+10	1	-1E+10	1	-1E+10	1	-1E+10	1
4902551	117	C	11/11/2023	17:01	-130.838	46.902	0	792.70	0	3.7310	0	34.2730	0	27.241	0	784.627	0	11.1	4	3.5	4	-1E+10	1	-1E+10	1	-1E+10	1	-1E+10	1	-1E+10	1	-1E+10	1
4902551	117	C	11/11/2023	17:01	-130.838	46.902	0	797.80	0	3.7340	0	34.2760	0	27.243	0	789.666	0	10.8	4	3.4	4	-1E+10	1	-1E+10	1	-1E+10	1	-1E+10	1	-1E+10	1	-1E+10	1
4902551	117	C	11/11/2023	17:01	-130.838	46.902	0	802.90	0	3.7340	0	34.2850	0	27.250	0	794.704	0	10.6	4	3.3	4	-1E+10	1	-1E+10	1	-1E+10	1	-1E+10	1	-1E+10	1	-1E+10	1
4902551	117	C	11/11/2023	17:01	-130.838	46.902	0	807.90	0	3.7380	0	34.2880	0	27.252	0	799.644	0	10.5	4	3.3	4	-1E+10	1	-1E+10	1	-1E+10	1	-1E+10	1	-1E+10	1	-1E+10	1
4902551	117	C	11/11/2023	17:01	-130.838	46.902	0	813.00	0	3.7330	0	34.2910	0	27.255	0	804.682	0	10.4	4	3.3	4	-1E+10	1	-1E+10	1	-1E+10	1	-1E+10	1	-1E+10	1	-1E+10	1
4902551	117	C	11/11/2023	17:01	-130.838	46.902	0	818.00	0	3.7220	0	34.2930	0	27.258	0	809.621	0	10.4	4	3.3	4	-1E+10	1	-1E+10	1	-1E+10	1	-1E+10	1	-1E+10	1	-1E+10	1
4902551	117	C	11/11/2023	17:01	-130.838	46.902	0	823.00	0	3.7140	0	34.2950	0	27.260	0	814.560	0	10.4	4	3.3	4	-1E+10	1	-1E+10	1	-1E+10	1	-1E+10	1	-1E+10	1	-1E+10	1
4902551	117	C	11/11/2023	17:01	-130.838	46.902	0	828.10	0	3.7010	0	34.2970	0	27.263	0	819.597	0	10.4	4	3.2	4	-1E+10	1	-1E+10	1	-1E+10	1	-1E+10	1	-1E+10	1	-1E+10	1
4902551	117	C	11/11/2023	17:01	-130.838	46.902	0	833.10	0	3.6850	0	34.3000	0	27.267	0	824.536	0	10.3	4	3.2	4	-1E+10	1	-1E+10	1	-1E+10	1	-1E+10	1	-1E+10	1	-1E+10	1
4902551	117	C	11/11/2023	17:01	-130.838	46.902	0	838.20	0	3.6680	0	34.3040	0	27.272	0	829.574	0	10.3	4	3.2	4	-1E+10	1	-1E+10	1	-1E+10	1	-1E+10	1	-1E+10	1	-1E+10	1
4902551	117	C	11/11/2023	17:01	-130.838	46.902	0	843.30	0	3.6540	0	34.3070	0	27.276	0	834.611	0	10.2	4	3.2	4	-1E+10	1	-1E+10	1	-1E+10	1	-1E+10	1	-1E+10	1	-1E+10	1
4902551	117	C	11/11/2023	17:01	-130.838	46.902	0	847.90	0	3.6530	0	34.3080	0	27.277	0	839.155	0	10.2	4	3.2	4	-1E+10	1	-1E+10	1	-1E+10	1	-1E+10	1	-1E+10	1	-1E+10	1
4902551	117	C	11/11/2023	17:01	-130.838	46.902	0	852.50	0	3.6410	0	34.3100	0	27.280	0	843.698	0	10.2	4	3.2	4	-1E+10	1	-1E+10	1	-1E+10	1	-1E+10	1	-1E+10	1	-1E+10	1
4902551	117	C	11/11/2023	17:01	-130.838	46.902	0	857.60	0	3.6300	0	34.3110	0	27.281	0	848.735	0	10.2	4	3.2	4	-1E+10	1	-1E+10	1	-1E+10	1	-1E+10	1	-1E+10	1	-1E+10	1
4902551	117	C	11/11/2023	17:01	-130.838	46.902	0	862.80	0	3.6170	0	34.3140	0	27.285	0	853.870	0	10.3	4	3.2	4	-1E+10	1	-1E+10	1	-1E+10	1	-1E+10	1	-1E+10	1	-1E+10	1
4902551	117	C	11/11/2023	17:01	-130.838	46.902	0	868.10	0	3.6040	0	34.3150	0	27.287	0	859.105	0	10.4	4	3.3	4	-1E+10	1	-1E+10	1	-1E+10	1	-1E+10	1	-1E+10	1	-1E+10	1
4902551	117	C	11/11/2023	17:01	-130.838	46.902	0	872.80	0	3.5820	0	34.3140	0	27.289	0	863.746	0	10.5	4	3.3	4	-1E+10	1	-1E+10	1	-1E+10	1	-1E+10	1	-1E+10	1	-1E+10	1
4902551	117	C	11/11/2023	17:01	-130.838	46.902	0	877.90	0	3.5620	0	34.3130	0	27.290	0	868.783	0	10.5	4	3.3	4	-1E+10	1	-1E+10	1	-1E+10	1	-1E+10	1	-1E+10	1	-1E+10	1
4902551	117	C	11/11/2023	17:01	-130.838	46.902	0	883.10	0	3.5530	0	34.3160	0	27.293	0	873.918	0	10.4	4	3.3	4	-1E+10	1	-1E+10	1	-1E+10	1	-1E+10	1	-1E+10	1	-1E+10	1
4902551	117	C	11/11/2023	17:01	-130.838	46.902	0	887.90	0	3.5480	0	34.3180	0	27.295	0	878.658	0	10.4	4	3.2	4	-1E+10	1	-1E+10	1	-1E+10	1	-1E+10	1	-1E+10	1	-1E+10	1
4902551	117	C	11/11/2023	17:01	-130.838	46.902	0	892.80	0	3.5540	0	34.3230	0	27.299	0	883.497	0	10.3	4	3.2	4	-1E+10	1	-1E+10	1	-1E+10	1	-1E+10	1	-1E+10	1	-1E+10	1
4902551	117	C	11/11/2023	17:01	-130.838	46.902	0	897.70	0	3.5390	0	34.3230	0	27.300	0	888.335	0	10.3	4	3.2	4	-1E+10	1	-1E+10	1	-1E+10	1	-1E+10	1	-1E+10	1	-1E+10	1
4902551	117	C	11/11/2023	17:01	-130.838	46.902	0	902.80	0	3.5320	0	34.3260	0	27.303	0	893.371	0	10.3	4	3.2	4	-1E+10	1	-1E+10	1	-1E+10	1	-1E+10	1	-1E+10	1	-1E+10	1
4902551	117	C	11/11/2023	17:01	-130.838	46.902	0	908.00	0	3.5170	0	34.3260	0	27.305	0	898.506	0	10.4	4	3.2	4	-1E+10	1	-1E+10	1	-1E+10	1	-1E+10	1	-1E+10	1	-1E+10	1
4902551	117	C	11/11/2023	17:01	-130.838	46.902	0	913.20	0	3.4890	0	34.3280	0	27.309	0	903.640	0	10.3	4	3.2	4	-1E+10	1	-1E+10	1	-1E+10	1	-1E+10	1	-1E+10	1	-1E+10	1
4902551	117	C	11/11/2023	17:01	-130.838	46.902	0	918.00	0	3.4990	0	34.3310	0	27.310	0	908.379	0	10.2	4	3.2	4	-1E+10	1	-1E+10	1	-1E+10	1	-1E+10	1	-1E+10	1	-1E+10	1
4902551	117	C	11/11/2023	17:01	-130.838	46.902	0	922.90	0	3.5000	0	34.3350	0	27.314	0	913.217	0	10.2	4	3.2	4	-1E+10	1	-1E+10	1	-1E+10	1	-1E+10	1	-1E+10	1	-1E+10	1
4902551	117	C	11/11/2023	17:01	-130.838	46.902	0	927.80	0	3.4840	0	34.3390	0	27.318	0	918.055	0	10.2	4	3.2	4	-1E+10	1	-1E+10	1	-1E+10	1	-1E+10	1	-1E+10	1	-1E+10	1
4902551	117	C	11/11/2023	17:01	-130.838	46.902	0	932.70	0	3.4580	0	34.3430	0	27.324	0	922.893	0	10.3	4	3.2	4	-1E+10	1	-1E+10	1	-1E+10	1	-1E+10	1	-1E+10	1	-1E+10	1
4902551	117	C	11/11/2023	17:01	-130.838	46.902	0	937.90	0	3.4360	0	34.3450	0	27.328	0	928.027	0	10.3	4	3.2	4	-1E+10	1	-1E+10	1	-1E+10	1	-1E+10	1	-1E+10	1	-1E+10	1
4902551	117	C	11/11/2023	17:01	-130.838	46.902	0	942.60	0	3.4270	0	34.3480	0	27.331	0	932.667	0	10.3	4	3.2	4	-1E+10	1	-1E+10	1	-1E+10	1	-1E+10	1	-1E+10	1	-1E+10	1
4902551	117	C	11/11/2023	17:01	-130.838	46.902	0	947.80	0	3.4170	0	34.3500	0	27.334	0	937.800	0	10.4	4	3.3	4	-1E+10	1	-1E+10	1	-1E+10	1	-1E+10	1	-1E+10	1	-1E+10	1
4902551	117	C	11/11/2023	17:01	-130.838	46.902	0	953.20	0	3.3760	0	34.3490	0	27.337	0	943.131	0	10.6	4	3.3	4	-1E+10	1	-1E+10	1	-1E+10	1	-1E+10	1	-1E+10	1	-1E+10	1
4902551	117	C	11/11/2023	17:01	-130.838	46.902	0	958.20	0	3.3590	0	34.3500	0	27.339	0	948.067	0	10.6	4	3.3	4	-1E+10	1	-1E+10	1	-1E+10	1	-1E+10	1	-1E+10	1	-1E+10	1
4902551	117	C	11/11/2023	17:01	-130.838	46.902	0	963.20	0	3.3510	0	34.3510	0	27.341	0	953.003	0	10.7	4	3.3	4	-1E+10	1	-1E+10	1	-1E+10	1	-1E+10	1	-1E+10	1	-1E+10	1
4902551	117	C	11/11/2023	17:01	-130.838	46.902	0	968.30	0	3.3140	0	34.3500	0	27.343	0	958.037	0	10.7	4	3.3	4	-1E+10	1	-1E+10	1	-1E+10	1	-1E+10	1	-1E+10	1	-1E+10	1
4902551	117	C	11/11/2023	17:01	-130.838	46.902	0	972.90	0	3.2910	0	34.3510	0	27.346	0	962.578	0	10.7	4	3.3	4	-1E+10	1	-1E+10	1	-1E+10	1	-1E+10	1	-1E+10	1	-1E+10	1
4902551	117	C	11/11/2023	17:01	-130.838	46.902	0	977.60	0	3.3010	0	34.3550	0	27.349	0	967.217	0	10.6	4	3.3	4	-1E+10	1	-1E+10	1	-1E+10	1	-1E+10	1	-1E+10	1	-1E+10	1
4902551	117	C	11/11/2023	17:01	-130.838	46.902	0	982.90	0	3.3350	0	34.3610	0	27.350	0	972.449	0	10.6	4	3.3	4	-1E+10	1	-1E+10	1	-1E+10	1	-1E+10	1	-1E+10	1	-1E+10	1
4902551	117	C	11/11/2023	17:01	-130.838	46.902	0	988.20	0	3.3040	0	34.3590	0	27.352	0	977.680	0	10.7	4	3.3	4	-1E+10	1	-1E+10	1	-1E+10	1	-1E+10	1	-1E+10	1	-1E+10	1
4902551	117	C	11/11/2023	17:01	-130.838	46.902	0	993.00	0	3.2960	0	34.3590	0	27.353	0	982.417	0	10.8	4	3.3	4	-1E+10	1	-1E+10	1	-1E+10	1	-1E+10	1	-1E+10	1	-1E+10	1
4902551	117	C	11/11/2023	17:01	-130.838	46.902	0	998.00	0	3.2770	0	34.3590	0	27.354	0	987.352	0	10.8	4	3.4	4	-1E+10	1	-1E+10	1	-1E+10	1	-1E+10	1	-1E+10	1	-1E+10	1
4902551	117	C	11/11/2023	17:01	-130.838	46.902	0	1005.60	0	3.2560	0	34.3590	0	27.356	0	994.853	0	10.8	4	3.4	4	-1E+10	1	-1E+10	1	-1E+10	1	-1E+10	1	-1E+10	1	-1E+10	1
4902551	117	C	11/11/2023	17:01	-130.838	46.902	0	1015.40	0	3.2520	0	34.3630	0	27.360	0	1004.525	0	10.8	4	3.4	4	-1E+10	1	-1E+10	1	-1E+10	1	-1E+10	1	-1E+10	1	-1E+10	1
4902551	117	C	11/11/2023	17:01	-130.838	46.902	0	1025.30	0	3.2360	0	34.3670	0	27.365	0	1014.295	0	10.9	4	3.4	4	-1E+10	1	-1E+10	1	-1E+10	1	-1E+10	1	-1E+10	1	-1E+10	1
4902551	117	C	11/11/2023	17:01	-130.838	46.902	0	1035.20	0	3.2070	0	34.3700	0	27.370	0	1024.065	0	11.0	4	3.4	4	-1E+10	1	-1E+10	1	-1E+10	1	-1E+10	1	-1E+10	1	-1E+10	1
4902551	117	C	11/11/2023	17:01	-130.838	46.902	0	1045.10	0	3.1760	0	34.3740	0	27.376	0	1033.834	0	11.1	4	3.4	4	-1E+10	1	-1E+10	1	-1E+10	1	-1E+10	1	-1E+10	1	-1E+10	1
4902551	117	C	11/11/2023	17:01	-130.838	46.902	0	1055.10	0	3.1670	0	34.3770	0	27.379	0	1043.701	0	11.1	4	3.4	4	-1E+10	1	-1E+10	1	-1E+10	1	-1E+10	1	-1E+10	1	-1E+10	1
4902551	117	C	11/11/2023	17:01	-130.838	46.902	0	1065.00	0	3.1510	0	34.3810	0	27.384	0	1053.469	0	11.2	4	3.5	4	-1E+10	1	-1E+10	1	-1E+10	1	-1E+10	1	-1E+10	1	-1E+10	1
4902551	117	C	11/11/2023	17:01	-130.838	46.902	0	1075.30	0	3.1400	0	34.3820	0	27.386	0	1063.632	0	11.2	4	3.5	4	-1E+10	1	-1E+10	1	-1E+10	1	-1E+10	1	-1E+10	1	-1E+10	1
4902551	117	C	11/11/2023	17:01	-130.838	46.902	0	1085.50	0	3.1340	0	34.3850	0	27.389	0	1073.695	0	11.3	4	3.5	4	-1E+10	1	-1E+10	1	-1E+10	1	-1E+10	1	-1E+10	1	-1E+10	1
4902551	117	C	11/11/2023	17:01	-130.838	46.902	0	1095.30	0	3.1120	0	34.3920	0	27.396	0	1083.363	0	11.5	4	3.6	4	-1E+10	1	-1E+10	1	-1E+10	1	-1E+10	1	-1E+10	1	-1E+10	1
4902551	117	C	11/11/2023	17:01	-130.838	46.902	0	1105.00	0	3.0810	0	34.3980	0	27.404	0	1092.932	0	11.7	4	3.6	4	-1E+10	1	-1E+10	1	-1E+10	1	-1E+10	1	-1E+10	1	-1E+10	1
4902551	117	C	11/11/2023	17:01	-130.838	46.902	0	1115.40	0	3.0610	0	34.3990	0	27.407	0	1103.191	0	11.8	4	3.7	4	-1E+10	1	-1E+10	1	-1E+10	1	-1E+10	1	-1E+10	1	-1E+10	1
4902551	117	C	11/11/2023	17:01	-130.838	46.902	0	1125.70	0	3.0330	0	34.4030	0	27.413	0	1113.351	0	12.0	4	3.7	4	-1E+10	1	-1E+10	1	-1E+10	1	-1E+10	1	-1E+10	1	-1E+10	1
4902551	117	C	11/11/2023	17:01	-130.838	46.902	0	1135.30	0	3.0130	0	34.4070	0	27.418	0	1122.820	0	12.2	4	3.8	4	-1E+10	1	-1E+10	1	-1E+10	1	-1E+10	1	-1E+10	1	-1E+10	1
4902551	117	C	11/11/2023	17:01	-130.838	46.902	0	1145.50	0	2.9960	0	34.4100	0	27.422	0	1132.881	0	12.3	4	3.8	4	-1E+10	1	-1E+10	1	-1E+10	1	-1E+10	1	-1E+10	1	-1E+10	1
4902551	117	C	11/11/2023	17:01	-130.838	46.902	0	1155.60	0	2.9780	0	34.4140	0	27.427	0	1142.842	0	12.6	4	3.9	4	-1E+10	1	-1E+10	1	-1E+10	1	-1E+10	1	-1E+10	1	-1E+10	1
4902551	117	C	11/11/2023	17:01	-130.838	46.902	0	1165.40	0	2.9550	0	34.4190	0	27.433	0	1152.507	0	12.9	4	4.0	4	-1E+10	1	-1E+10	1	-1E+10	1	-1E+10	1	-1E+10	1	-1E+10	1
4902551	117	C	11/11/2023	17:01	-130.838	46.902	0	1175.30	0	2.9560	0	34.4280	0	27.440	0	1162.270	0	13.4	4	4.1	4	-1E+10	1	-1E+10	1	-1E+10	1	-1E+10	1	-1E+10	1	-1E+10	1
4902551	117	C	11/11/2023	17:01	-130.838	46.902	0	1185.40	0	2.9460	0	34.4330	0	27.445	0	1172.230	0	13.7	4	4.2	4	-1E+10	1	-1E+10	1	-1E+10	1	-1E+10	1	-1E+10	1	-1E+10	1
4902551	117	C	11/11/2023	17:01	-130.838	46.902	0	1195.70	0	2.9300	0	34.4370	0	27.449	0	1182.386	0	14.0	4	4.3	4	-1E+10	1	-1E+10	1	-1E+10	1	-1E+10	1	-1E+10	1	-1E+10	1
4902551	117	C	11/11/2023	17:01	-130.838	46.902	0	1205.70	0	2.9110	0	34.4390	0	27.453	0	1192.247	0	14.0	4	4.3	4	-1E+10	1	-1E+10	1	-1E+10	1	-1E+10	1	-1E+10	1	-1E+10	1
4902551	117	C	11/11/2023	17:01	-130.838	46.902	0	1215.50	0	2.8870	0	34.4390	0	27.455	0	1201.909	0	14.2	4	4.4	4	-1E+10	1	-1E+10	1	-1E+10	1	-1E+10	1	-1E+10	1	-1E+10	1
4902551	117	C	11/11/2023	17:01	-130.838	46.902	0	1225.50	0	2.8670	0	34.4420	0	27.459	0	1211.769	0	14.4	4	4.4	4	-1E+10	1	-1E+10	1	-1E+10	1	-1E+10	1	-1E+10	1	-1E+10	1
4902551	117	C	11/11/2023	17:01	-130.838	46.902	0	1235.70	0	2.8460	0	34.4430	0	27.462	0	1221.825	0	14.6	4	4.5	4	-1E+10	1	-1E+10	1	-1E+10	1	-1E+10	1	-1E+10	1	-1E+10	1
4902551	117	C	11/11/2023	17:01	-130.838	46.902	0	1245.70	0	2.8210	0	34.4460	0	27.467	0	1231.683	0	15.0	4	4.6	4	-1E+10	1	-1E+10	1	-1E+10	1	-1E+10	1	-1E+10	1	-1E+10	1
4902551	117	C	11/11/2023	17:01	-130.838	46.902	0	1255.30	0	2.8120	0	34.4490	0	27.470	0	1241.147	0	15.3	4	4.7	4	-1E+10	1	-1E+10	1	-1E+10	1	-1E+10	1	-1E+10	1	-1E+10	1
4902551	117	C	11/11/2023	17:01	-130.838	46.902	0	1265.10	0	2.8070	0	34.4520	0	27.473	0	1250.807	0	15.8	4	4.9	4	-1E+10	1	-1E+10	1	-1E+10	1	-1E+10	1	-1E+10	1	-1E+10	1
4902551	117	C	11/11/2023	17:01	-130.838	46.902	0	1275.30	0	2.8040	0	34.4580	0	27.478	0	1260.862	0	16.3	4	5.0	4	-1E+10	1	-1E+10	1	-1E+10	1	-1E+10	1	-1E+10	1	-1E+10	1
4902551	117	C	11/11/2023	17:01	-130.838	46.902	0	1285.80	0	2.7980	0	34.4610	0	27.481	0	1271.211	0	16.7	4	5.1	4	-1E+10	1	-1E+10	1	-1E+10	1	-1E+10	1	-1E+10	1	-1E+10	1
4902551	117	C	11/11/2023	17:01	-130.838	46.902	0	1295.40	0	2.7890	0	34.4650	0	27.485	0	1280.673	0	17.2	4	5.3	4	-1E+10	1	-1E+10	1	-1E+10	1	-1E+10	1	-1E+10	1	-1E+10	1
4902551	117	C	11/11/2023	17:01	-130.838	46.902	0	1305.40	0	2.7650	0	34.4680	0	27.489	0	1290.529	0	17.6	4	5.4	4	-1E+10	1	-1E+10	1	-1E+10	1	-1E+10	1	-1E+10	1	-1E+10	1
4902551	117	C	11/11/2023	17:01	-130.838	46.902	0	1315.70	0	2.7390	0	34.4710	0	27.494	0	1300.680	0	18.0	4	5.5	4	-1E+10	1	-1E+10	1	-1E+10	1	-1E+10	1	-1E+10	1	-1E+10	1
4902551	117	C	11/11/2023	17:01	-130.838	46.902	0	1325.30	0	2.7260	0	34.4730	0	27.497	0	1310.140	0	18.3	4	5.6	4	-1E+10	1	-1E+10	1	-1E+10	1	-1E+10	1	-1E+10	1	-1E+10	1
4902551	117	C	11/11/2023	17:01	-130.838	46.902	0	1335.30	0	2.6970	0	34.4750	0	27.501	0	1319.995	0	18.7	4	5.7	4	-1E+10	1	-1E+10	1	-1E+10	1	-1E+10	1	-1E+10	1	-1E+10	1
4902551	117	C	11/11/2023	17:01	-130.838	46.902	0	1345.70	0	2.6830	0	34.4770	0	27.504	0	1330.242	0	19.2	4	5.9	4	-1E+10	1	-1E+10	1	-1E+10	1	-1E+10	1	-1E+10	1	-1E+10	1
4902551	117	C	11/11/2023	17:01	-130.838	46.902	0	1355.50	0	2.6640	0	34.4800	0	27.508	0	1339.899	0	19.7	4	6.0	4	-1E+10	1	-1E+10	1	-1E+10	1	-1E+10	1	-1E+10	1	-1E+10	1
4902551	117	C	11/11/2023	17:01	-130.838	46.902	0	1365.50	0	2.6440	0	34.4830	0	27.512	0	1349.752	0	20.2	4	6.2	4	-1E+10	1	-1E+10	1	-1E+10	1	-1E+10	1	-1E+10	1	-1E+10	1
4902551	117	C	11/11/2023	17:01	-130.838	46.902	0	1375.70	0	2.6270	0	34.4860	0	27.516	0	1359.801	0	20.8	4	6.4	4	-1E+10	1	-1E+10	1	-1E+10	1	-1E+10	1	-1E+10	1	-1E+10	1
4902551	117	C	11/11/2023	17:01	-130.838	46.902	0	1385.60	0	2.6160	0	34.4880	0	27.519	0	1369.555	0	21.2	4	6.5	4	-1E+10	1	-1E+10	1	-1E+10	1	-1E+10	1	-1E+10	1	-1E+10	1
4902551	117	C	11/11/2023	17:01	-130.838	46.902	0	1395.60	0	2.6010	0	34.4910	0	27.522	0	1379.406	0	21.5	4	6.6	4	-1E+10	1	-1E+10	1	-1E+10	1	-1E+10	1	-1E+10	1	-1E+10	1
4902551	117	C	11/11/2023	17:01	-130.838	46.902	0	1405.40	0	2.5900	0	34.4910	0	27.523	0	1389.060	0	21.7	4	6.6	4	-1E+10	1	-1E+10	1	-1E+10	1	-1E+10	1	-1E+10	1	-1E+10	1
4902551	117	C	11/11/2023	17:01	-130.838	46.902	0	1415.30	0	2.5820	0	34.4920	0	27.525	0	1398.812	0	22.0	4	6.7	4	-1E+10	1	-1E+10	1	-1E+10	1	-1E+10	1	-1E+10	1	-1E+10	1
4902551	117	C	11/11/2023	17:01	-130.838	46.902	0	1425.20	0	2.5670	0	34.4940	0	27.528	0	1408.564	0	22.5	4	6.9	4	-1E+10	1	-1E+10	1	-1E+10	1	-1E+10	1	-1E+10	1	-1E+10	1
4902551	117	C	11/11/2023	17:01	-130.838	46.902	0	1435.20	0	2.5450	0	34.4960	0	27.531	0	1418.414	0	22.8	4	7.0	4	-1E+10	1	-1E+10	1	-1E+10	1	-1E+10	1	-1E+10	1	-1E+10	1
4902551	117	C	11/11/2023	17:01	-130.838	46.902	0	1445.30	0	2.5170	0	34.4970	0	27.535	0	1428.361	0	23.2	4	7.1	4	-1E+10	1	-1E+10	1	-1E+10	1	-1E+10	1	-1E+10	1	-1E+10	1
4902551	117	C	11/11/2023	17:01	-130.838	46.902	0	1455.40	0	2.5010	0	34.4980	0	27.537	0	1438.309	0	23.5	4	7.2	4	-1E+10	1	-1E+10	1	-1E+10	1	-1E+10	1	-1E+10	1	-1E+10	1
4902551	117	C	11/11/2023	17:01	-130.838	46.902	0	1465.20	0	2.4760	0	34.5000	0	27.540	0	1447.960	0	23.8	4	7.3	4	-1E+10	1	-1E+10	1	-1E+10	1	-1E+10	1	-1E+10	1	-1E+10	1
4902551	117	C	11/11/2023	17:01	-130.838	46.902	0	1475.30	0	2.4650	0	34.5010	0	27.542	0	1457.906	0	24.3	4	7.4	4	-1E+10	1	-1E+10	1	-1E+10	1	-1E+10	1	-1E+10	1	-1E+10	1
4902551	117	C	11/11/2023	17:01	-130.838	46.902	0	1485.60	0	2.4530	0	34.5040	0	27.546	0	1468.049	0	24.8	4	7.6	4	-1E+10	1	-1E+10	1	-1E+10	1	-1E+10	1	-1E+10	1	-1E+10	1
4902551	117	C	11/11/2023	17:01	-130.838	46.902	0	1495.60	0	2.4400	0	34.5050	0	27.548	0	1477.896	0	25.3	4	7.7	4	-1E+10	1	-1E+10	1	-1E+10	1	-1E+10	1	-1E+10	1	-1E+10	1
4902551	117	C	11/11/2023	17:01	-130.838	46.902	0	1505.60	0	2.4260	0	34.5070	0	27.550	0	1487.742	0	26.0	4	7.9	4	-1E+10	1	-1E+10	1	-1E+10	1	-1E+10	1	-1E+10	1	-1E+10	1
4902551	117	C	11/11/2023	17:01	-130.838	46.902	0	1515.60	0	2.4060	0	34.5100	0	27.555	0	1497.588	0	26.7	4	8.1	4	-1E+10	1	-1E+10	1	-1E+10	1	-1E+10	1	-1E+10	1	-1E+10	1
4902551	117	C	11/11/2023	17:01	-130.838	46.902	0	1525.50	0	2.3930	0	34.5120	0	27.557	0	1507.336	0	27.8	4	8.5	4	-1E+10	1	-1E+10	1	-1E+10	1	-1E+10	1	-1E+10	1	-1E+10	1
4902551	117	C	11/11/2023	17:01	-130.838	46.902	0	1535.40	0	2.3750	0	34.5170	0	27.563	0	1517.082	0	29.2	4	8.9	4	-1E+10	1	-1E+10	1	-1E+10	1	-1E+10	1	-1E+10	1	-1E+10	1
4902551	117	C	11/11/2023	17:01	-130.838	46.902	0	1545.20	0	2.3600	0	34.5210	0	27.567	0	1526.730	0	30.9	4	9.4	4	-1E+10	1	-1E+10	1	-1E+10	1	-1E+10	1	-1E+10	1	-1E+10	1
4902551	117	C	11/11/2023	17:01	-130.838	46.902	0	1555.30	0	2.3590	0	34.5270	0	27.572	0	1536.673	0	32.2	4	9.8	4	-1E+10	1	-1E+10	1	-1E+10	1	-1E+10	1	-1E+10	1	-1E+10	1
4902551	117	C	11/11/2023	17:01	-130.838	46.902	0	1565.60	0	2.3400	0	34.5300	0	27.576	0	1546.812	0	33.0	4	10.0	4	-1E+10	1	-1E+10	1	-1E+10	1	-1E+10	1	-1E+10	1	-1E+10	1
4902551	117	C	11/11/2023	17:01	-130.838	46.902	0	1575.70	0	2.3250	0	34.5320	0	27.579	0	1556.753	0	33.9	4	10.3	4	-1E+10	1	-1E+10	1	-1E+10	1	-1E+10	1	-1E+10	1	-1E+10	1
4902551	117	C	11/11/2023	17:01	-130.838	46.902	0	1585.40	0	2.3000	0	34.5350	0	27.584	0	1566.301	0	35.0	4	10.6	4	-1E+10	1	-1E+10	1	-1E+10	1	-1E+10	1	-1E+10	1	-1E+10	1
4902551	117	C	11/11/2023	17:01	-130.838	46.902	0	1595.50	0	2.2760	0	34.5380	0	27.588	0	1576.241	0	35.7	4	10.8	4	-1E+10	1	-1E+10	1	-1E+10	1	-1E+10	1	-1E+10	1	-1E+10	1
4902551	117	C	11/11/2023	17:01	-130.838	46.902	0	1605.80	0	2.2690	0	34.5390	0	27.589	0	1586.379	0	36.3	4	11.0	4	-1E+10	1	-1E+10	1	-1E+10	1	-1E+10	1	-1E+10	1	-1E+10	1
4902551	117	C	11/11/2023	17:01	-130.838	46.902	0	1615.80	0	2.2540	0	34.5410	0	27.592	0	1596.220	0	36.9	4	11.2	4	-1E+10	1	-1E+10	1	-1E+10	1	-1E+10	1	-1E+10	1	-1E+10	1
4902551	117	C	11/11/2023	17:01	-130.838	46.902	0	1625.40	0	2.2440	0	34.5420	0	27.594	0	1605.667	0	37.4	4	11.3	4	-1E+10	1	-1E+10	1	-1E+10	1	-1E+10	1	-1E+10	1	-1E+10	1
4902551	117	C	11/11/2023	17:01	-130.838	46.902	0	1635.00	0	2.2360	0	34.5440	0	27.596	0	1615.114	0	37.7	4	11.4	4	-1E+10	1	-1E+10	1	-1E+10	1	-1E+10	1	-1E+10	1	-1E+10	1
4902551	117	C	11/11/2023	17:01	-130.838	46.902	0	1645.30	0	2.2300	0	34.5450	0	27.598	0	1625.249	0	38.1	4	11.6	4	-1E+10	1	-1E+10	1	-1E+10	1	-1E+10	1	-1E+10	1	-1E+10	1
4902551	117	C	11/11/2023	17:01	-130.838	46.902	0	1655.70	0	2.2210	0	34.5460	0	27.599	0	1635.482	0	38.8	4	11.7	4	-1E+10	1	-1E+10	1	-1E+10	1	-1E+10	1	-1E+10	1	-1E+10	1
4902551	117	C	11/11/2023	17:01	-130.838	46.902	0	1665.50	0	2.2080	0	34.5480	0	27.602	0	1645.125	0	39.4	4	11.9	4	-1E+10	1	-1E+10	1	-1E+10	1	-1E+10	1	-1E+10	1	-1E+10	1
4902551	117	C	11/11/2023	17:01	-130.838	46.902	0	1675.30	0	2.1980	0	34.5490	0	27.604	0	1654.767	0	39.9	4	12.1	4	-1E+10	1	-1E+10	1	-1E+10	1	-1E+10	1	-1E+10	1	-1E+10	1
4902551	117	C	11/11/2023	17:01	-130.838	46.902	0	1685.60	0	2.1890	0	34.5510	0	27.606	0	1664.900	0	40.5	4	12.3	4	-1E+10	1	-1E+10	1	-1E+10	1	-1E+10	1	-1E+10	1	-1E+10	1
4902551	117	C	11/11/2023	17:01	-130.838	46.902	0	1695.50	0	2.1780	0	34.5520	0	27.608	0	1674.639	0	41.0	4	12.4	4	-1E+10	1	-1E+10	1	-1E+10	1	-1E+10	1	-1E+10	1	-1E+10	1
4902551	117	C	11/11/2023	17:01	-130.838	46.902	0	1705.60	0	2.1660	0	34.5540	0	27.610	0	1684.575	0	41.5	4	12.6	4	-1E+10	1	-1E+10	1	-1E+10	1	-1E+10	1	-1E+10	1	-1E+10	1
4902551	117	C	11/11/2023	17:01	-130.838	46.902	0	1715.40	0	2.1580	0	34.5550	0	27.612	0	1694.215	0	42.3	4	12.8	4	-1E+10	1	-1E+10	1	-1E+10	1	-1E+10	1	-1E+10	1	-1E+10	1
4902551	117	C	11/11/2023	17:01	-130.838	46.902	0	1725.50	0	2.1520	0	34.5570	0	27.614	0	1704.150	0	42.9	4	13.0	4	-1E+10	1	-1E+10	1	-1E+10	1	-1E+10	1	-1E+10	1	-1E+10	1
4902551	117	C	11/11/2023	17:01	-130.838	46.902	0	1735.60	0	2.1400	0	34.5590	0	27.617	0	1714.084	0	43.6	4	13.2	4	-1E+10	1	-1E+10	1	-1E+10	1	-1E+10	1	-1E+10	1	-1E+10	1
4902551	117	C	11/11/2023	17:01	-130.838	46.902	0	1745.40	0	2.1270	0	34.5600	0	27.618	0	1723.723	0	43.8	4	13.3	4	-1E+10	1	-1E+10	1	-1E+10	1	-1E+10	1	-1E+10	1	-1E+10	1
4902551	117	C	11/11/2023	17:01	-130.838	46.902	0	1755.40	0	2.1140	0	34.5600	0	27.619	0	1733.558	0	43.8	4	13.3	4	-1E+10	1	-1E+10	1	-1E+10	1	-1E+10	1	-1E+10	1	-1E+10	1
4902551	117	C	11/11/2023	17:01	-130.838	46.902	0	1765.20	0	2.0970	0	34.5600	0	27.621	0	1743.196	0	44.2	4	13.4	4	-1E+10	1	-1E+10	1	-1E+10	1	-1E+10	1	-1E+10	1	-1E+10	1
4902551	117	C	11/11/2023	17:01	-130.838	46.902	0	1775.30	0	2.0970	0	34.5610	0	27.622	0	1753.128	0	44.6	4	13.5	4	-1E+10	1	-1E+10	1	-1E+10	1	-1E+10	1	-1E+10	1	-1E+10	1
4902551	117	C	11/11/2023	17:01	-130.838	46.902	0	1785.40	0	2.0900	0	34.5620	0	27.623	0	1763.060	0	45.3	4	13.7	4	-1E+10	1	-1E+10	1	-1E+10	1	-1E+10	1	-1E+10	1	-1E+10	1
4902551	117	C	11/11/2023	17:01	-130.838	46.902	0	1795.50	0	2.0770	0	34.5640	0	27.626	0	1772.991	0	46.8	4	14.1	4	-1E+10	1	-1E+10	1	-1E+10	1	-1E+10	1	-1E+10	1	-1E+10	1
4902551	117	C	11/11/2023	17:01	-130.838	46.902	0	1805.70	0	2.0700	0	34.5690	0	27.630	0	1783.021	0	47.9	4	14.5	4	-1E+10	1	-1E+10	1	-1E+10	1	-1E+10	1	-1E+10	1	-1E+10	1
4902551	117	C	11/11/2023	17:01	-130.838	46.902	0	1815.50	0	2.0550	0	34.5700	0	27.632	0	1792.656	0	48.5	4	14.7	4	-1E+10	1	-1E+10	1	-1E+10	1	-1E+10	1	-1E+10	1	-1E+10	1
4902551	117	C	11/11/2023	17:01	-130.838	46.902	0	1825.20	0	2.0430	0	34.5720	0	27.635	0	1802.193	0	49.5	4	14.9	4	-1E+10	1	-1E+10	1	-1E+10	1	-1E+10	1	-1E+10	1	-1E+10	1
4902551	117	C	11/11/2023	17:01	-130.838	46.902	0	1835.00	0	2.0330	0	34.5750	0	27.638	0	1811.828	0	50.8	4	15.3	4	-1E+10	1	-1E+10	1	-1E+10	1	-1E+10	1	-1E+10	1	-1E+10	1
4902551	117	C	11/11/2023	17:01	-130.838	46.902	0	1845.00	0	2.0200	0	34.5780	0	27.642	0	1821.659	0	51.9	4	15.7	4	-1E+10	1	-1E+10	1	-1E+10	1	-1E+10	1	-1E+10	1	-1E+10	1
4902551	117	C	11/11/2023	17:01	-130.838	46.902	0	1855.30	0	2.0100	0	34.5800	0	27.644	0	1831.784	0	52.7	4	15.9	4	-1E+10	1	-1E+10	1	-1E+10	1	-1E+10	1	-1E+10	1	-1E+10	1
4902551	117	C	11/11/2023	17:01	-130.838	46.902	0	1865.40	0	1.9980	0	34.5820	0	27.647	0	1841.713	0	53.4	4	16.1	4	-1E+10	1	-1E+10	1	-1E+10	1	-1E+10	1	-1E+10	1	-1E+10	1
4902551	117	C	11/11/2023	17:01	-130.838	46.902	0	1875.20	0	1.9930	0	34.5820	0	27.647	0	1851.345	0	54.0	4	16.3	4	-1E+10	1	-1E+10	1	-1E+10	1	-1E+10	1	-1E+10	1	-1E+10	1
4902551	117	C	11/11/2023	17:01	-130.838	46.902	0	1885.50	0	1.9840	0	34.5840	0	27.650	0	1861.469	0	54.7	4	16.5	4	-1E+10	1	-1E+10	1	-1E+10	1	-1E+10	1	-1E+10	1	-1E+10	1
4902551	117	C	11/11/2023	17:01	-130.838	46.902	0	1895.40	0	1.9760	0	34.5850	0	27.651	0	1871.200	0	55.3	4	16.7	4	-1E+10	1	-1E+10	1	-1E+10	1	-1E+10	1	-1E+10	1	-1E+10	1
4902551	117	C	11/11/2023	17:01	-130.838	46.902	0	1905.40	0	1.9680	0	34.5870	0	27.653	0	1881.028	0	55.8	4	16.8	4	-1E+10	1	-1E+10	1	-1E+10	1	-1E+10	1	-1E+10	1	-1E+10	1
4902551	117	C	11/11/2023	17:01	-130.838	46.902	0	1915.30	0	1.9620	0	34.5880	0	27.655	0	1890.757	0	56.2	4	16.9	4	-1E+10	1	-1E+10	1	-1E+10	1	-1E+10	1	-1E+10	1	-1E+10	1
4902551	117	C	11/11/2023	17:01	-130.838	46.902	0	1925.20	0	1.9580	0	34.5890	0	27.656	0	1900.486	0	56.6	4	17.1	4	-1E+10	1	-1E+10	1	-1E+10	1	-1E+10	1	-1E+10	1	-1E+10	1
4902551	117	C	11/11/2023	17:01	-130.838	46.902	0	1935.40	0	1.9520	0	34.5900	0	27.657	0	1910.510	0	57.1	4	17.2	4	-1E+10	1	-1E+10	1	-1E+10	1	-1E+10	1	-1E+10	1	-1E+10	1
4902551	117	C	11/11/2023	17:01	-130.838	46.902	0	1945.20	0	1.9450	0	34.5910	0	27.659	0	1920.139	0	57.7	4	17.4	4	-1E+10	1	-1E+10	1	-1E+10	1	-1E+10	1	-1E+10	1	-1E+10	1
4902551	117	C	11/11/2023	17:01	-130.838	46.902	0	1955.30	0	1.9400	0	34.5920	0	27.660	0	1930.064	0	58.2	4	17.5	4	-1E+10	1	-1E+10	1	-1E+10	1	-1E+10	1	-1E+10	1	-1E+10	1
4902551	117	C	11/11/2023	17:01	-130.838	46.902	0	1965.50	0	1.9300	0	34.5930	0	27.661	0	1940.085	0	58.8	4	17.7	4	-1E+10	1	-1E+10	1	-1E+10	1	-1E+10	1	-1E+10	1	-1E+10	1
4902551	117	C	11/11/2023	17:01	-130.838	46.902	0	1975.40	0	1.9250	0	34.5940	0	27.663	0	1949.812	0	59.0	4	17.8	4	-1E+10	1	-1E+10	1	-1E+10	1	-1E+10	1	-1E+10	1	-1E+10	1
4902551	117	C	11/11/2023	17:01	-130.838	46.902	0	1985.50	0	1.9230	0	34.5950	0	27.664	0	1959.735	0	59.1	4	17.8	4	-1E+10	1	-1E+10	1	-1E+10	1	-1E+10	1	-1E+10	1	-1E+10	1
4902551	117	C	11/11/2023	17:01	-130.838	46.902	0	1994.50	0	1.9200	0	34.5960	0	27.665	0	1968.577	0	58.9	4	17.7	4	-1E+10	1	-1E+10	1	-1E+10	1	-1E+10	1	-1E+10	1	-1E+10	1
4902551	117	C	11/11/2023	17:01	-130.838	46.902	0																										
4902551	118	C	11/21/2023	21:56	-130.915	46.829	0	0.30	0	12.6740	0	32.3170	0	24.379	0	0.298	0	246.6	4	93.2	4	-1E+10	1	-1E+10	1	-1E+10	1	-1E+10	1	-1E+10	1	-1E+10	1
4902551	118	C	11/21/2023	21:56	-130.915	46.829	0	0.40	0	12.6742	0	32.3166	0	24.379	0	0.397	0	-1e10	1	-1e10	1	-1E+10	1	-1E+10	1	-1E+10	1	-1E+10	1	-1E+10	1	-1E+10	1
4902551	118	C	11/21/2023	21:56	-130.915	46.829	0	0.70	0	12.6750	0	32.3155	0	24.378	0	0.694	0	-1e10	1	-1e10	1	-1E+10	1	-1E+10	1	-1E+10	1	-1E+10	1	-1E+10	1	-1E+10	1
4902551	118	C	11/21/2023	21:56	-130.915	46.829	0	1.10	0	12.6760	0	32.3140	0	24.376	0	1.091	0	246.7	4	93.3	4	-1E+10	1	-1E+10	1	-1E+10	1	-1E+10	1	-1E+10	1	-1E+10	1
4902551	118	C	11/21/2023	21:56	-130.915	46.829	0	1.90	0	12.6770	0	32.3120	0	24.375	0	1.884	0	246.5	4	93.2	4	-1E+10	1	-1E+10	1	-1E+10	1	-1E+10	1	-1E+10	1	-1E+10	1
4902551	118	C	11/21/2023	21:56	-130.915	46.829	0	3.00	0	12.6770	0	32.3100	0	24.373	0	2.975	0	246.6	4	93.2	4	-1E+10	1	-1E+10	1	-1E+10	1	-1E+10	1	-1E+10	1	-1E+10	1
4902551	118	C	11/21/2023	21:56	-130.915	46.829	0	3.90	0	12.6770	0	32.3100	0	24.373	0	3.868	0	246.5	4	93.2	4	-1E+10	1	-1E+10	1	-1E+10	1	-1E+10	1	-1E+10	1	-1E+10	1
4902551	118	C	11/21/2023	21:56	-130.915	46.829	0	5.00	0	12.6740	0	32.3130	0	24.376	0	4.959	0	246.5	4	93.2	4	-1E+10	1	-1E+10	1	-1E+10	1	-1E+10	1	-1E+10	1	-1E+10	1
4902551	118	C	11/21/2023	21:56	-130.915	46.829	0	6.00	0	12.6730	0	32.3130	0	24.376	0	5.950	0	246.4	4	93.1	4	-1E+10	1	-1E+10	1	-1E+10	1	-1E+10	1	-1E+10	1	-1E+10	1
4902551	118	C	11/21/2023	21:56	-130.915	46.829	0	7.00	0	12.6720	0	32.3130	0	24.376	0	6.942	0	246.4	4	93.1	4	-1E+10	1	-1E+10	1	-1E+10	1	-1E+10	1	-1E+10	1	-1E+10	1
4902551	118	C	11/21/2023	21:56	-130.915	46.829	0	8.10	0	12.6710	0	32.3130	0	24.377	0	8.033	0	246.3	4	93.1	4	-1E+10	1	-1E+10	1	-1E+10	1	-1E+10	1	-1E+10	1	-1E+10	1
4902551	118	C	11/21/2023	21:56	-130.915	46.829	0	9.00	0	12.6720	0	32.3130	0	24.377	0	8.925	0	246.3	4	93.1	4	-1E+10	1	-1E+10	1	-1E+10	1	-1E+10	1	-1E+10	1	-1E+10	1
4902551	118	C	11/21/2023	21:56	-130.915	46.829	0	9.80	0	12.6720	0	32.3130	0	24.377	0	9.719	0	246.3	4	93.1	4	-1E+10	1	-1E+10	1	-1E+10	1	-1E+10	1	-1E+10	1	-1E+10	1
4902551	118	C	11/21/2023	21:56	-130.915	46.829	0	11.00	0	12.6720	0	32.3130	0	24.377	0	10.909	0	246.3	4	93.1	4	-1E+10	1	-1E+10	1	-1E+10	1	-1E+10	1	-1E+10	1	-1E+10	1
4902551	118	C	11/21/2023	21:56	-130.915	46.829	0	11.90	0	12.6720	0	32.3130	0	24.377	0	11.801	0	246.2	4	93.1	4	-1E+10	1	-1E+10	1	-1E+10	1	-1E+10	1	-1E+10	1	-1E+10	1
4902551	118	C	11/21/2023	21:56	-130.915	46.829	0	12.80	0	12.6720	0	32.3130	0	24.377	0	12.694	0	246.2	4	93.1	4	-1E+10	1	-1E+10	1	-1E+10	1	-1E+10	1	-1E+10	1	-1E+10	1
4902551	118	C	11/21/2023	21:56	-130.915	46.829	0	13.80	0	12.6720	0	32.3130	0	24.377	0	13.685	0	246.2	4	93.1	4	-1E+10	1	-1E+10	1	-1E+10	1	-1E+10	1	-1E+10	1	-1E+10	1
4902551	118	C	11/21/2023	21:56	-130.915	46.829	0	14.80	0	12.6730	0	32.3130	0	24.376	0	14.677	0	246.2	4	93.1	4	-1E+10	1	-1E+10	1	-1E+10	1	-1E+10	1	-1E+10	1	-1E+10	1
4902551	118	C	11/21/2023	21:56	-130.915	46.829	0	15.90	0	12.6730	0	32.3130	0	24.377	0	15.768	0	246.2	4	93.0	4	-1E+10	1	-1E+10	1	-1E+10	1	-1E+10	1	-1E+10	1	-1E+10	1
4902551	118	C	11/21/2023	21:56	-130.915	46.829	0	17.00	0	12.6730	0	32.3130	0	24.377	0	16.858	0	246.1	4	93.0	4	-1E+10	1	-1E+10	1	-1E+10	1	-1E+10	1	-1E+10	1	-1E+10	1
4902551	118	C	11/21/2023	21:56	-130.915	46.829	0	18.10	0	12.6730	0	32.3130	0	24.377	0	17.949	0	246.1	4	93.0	4	-1E+10	1	-1E+10	1	-1E+10	1	-1E+10	1	-1E+10	1	-1E+10	1
4902551	118	C	11/21/2023	21:56	-130.915	46.829	0	19.00	0	12.6730	0	32.3130	0	24.377	0	18.842	0	246.1	4	93.0	4	-1E+10	1	-1E+10	1	-1E+10	1	-1E+10	1	-1E+10	1	-1E+10	1
4902551	118	C	11/21/2023	21:56	-130.915	46.829	0	19.90	0	12.6730	0	32.3130	0	24.377	0	19.734	0	246.1	4	93.0	4	-1E+10	1	-1E+10	1	-1E+10	1	-1E+10	1	-1E+10	1	-1E+10	1
4902551	118	C	11/21/2023	21:56	-130.915	46.829	0	21.10	0	12.6740	0	32.3130	0	24.376	0	20.924	0	246.0	4	93.0	4	-1E+10	1	-1E+10	1	-1E+10	1	-1E+10	1	-1E+10	1	-1E+10	1
4902551	118	C	11/21/2023	21:56	-130.915	46.829	0	21.90	0	12.6740	0	32.3130	0	24.376	0	21.717	0	246.0	4	93.0	4	-1E+10	1	-1E+10	1	-1E+10	1	-1E+10	1	-1E+10	1	-1E+10	1
4902551	118	C	11/21/2023	21:56	-130.915	46.829	0	22.70	0	12.6740	0	32.3130	0	24.376	0	22.511	0	246.0	4	93.0	4	-1E+10	1	-1E+10	1	-1E+10	1	-1E+10	1	-1E+10	1	-1E+10	1
4902551	118	C	11/21/2023	21:56	-130.915	46.829	0	23.90	0	12.6740	0	32.3130	0	24.377	0	23.701	0	246.0	4	93.0	4	-1E+10	1	-1E+10	1	-1E+10	1	-1E+10	1	-1E+10	1	-1E+10	1
4902551	118	C	11/21/2023	21:56	-130.915	46.829	0	24.90	0	12.6750	0	32.3130	0	24.376	0	24.692	0	245.8	4	92.9	4	-1E+10	1	-1E+10	1	-1E+10	1	-1E+10	1	-1E+10	1	-1E+10	1
4902551	118	C	11/21/2023	21:56	-130.915	46.829	0	25.80	0	12.6750	0	32.3130	0	24.376	0	25.585	0	245.9	4	92.9	4	-1E+10	1	-1E+10	1	-1E+10	1	-1E+10	1	-1E+10	1	-1E+10	1
4902551	118	C	11/21/2023	21:56	-130.915	46.829	0	26.80	0	12.6750	0	32.3130	0	24.376	0	26.576	0	245.8	4	92.9	4	-1E+10	1	-1E+10	1	-1E+10	1	-1E+10	1	-1E+10	1	-1E+10	1
4902551	118	C	11/21/2023	21:56	-130.915	46.829	0	27.80	0	12.6750	0	32.3130	0	24.376	0	27.568	0	245.8	4	92.9	4	-1E+10	1	-1E+10	1	-1E+10	1	-1E+10	1	-1E+10	1	-1E+10	1
4902551	118	C	11/21/2023	21:56	-130.915	46.829	0	28.80	0	12.6760	0	32.3130	0	24.376	0	28.559	0	245.8	4	92.9	4	-1E+10	1	-1E+10	1	-1E+10	1	-1E+10	1	-1E+10	1	-1E+10	1
4902551	118	C	11/21/2023	21:56	-130.915	46.829	0	29.80	0	12.6760	0	32.3130	0	24.376	0	29.551	0	245.7	4	92.9	4	-1E+10	1	-1E+10	1	-1E+10	1	-1E+10	1	-1E+10	1	-1E+10	1
4902551	118	C	11/21/2023	21:56	-130.915	46.829	0	30.80	0	12.6760	0	32.3130	0	24.376	0	30.543	0	245.6	4	92.8	4	-1E+10	1	-1E+10	1	-1E+10	1	-1E+10	1	-1E+10	1	-1E+10	1
4902551	118	C	11/21/2023	21:56	-130.915	46.829	0	31.80	0	12.6760	0	32.3130	0	24.376	0	31.534	0	245.6	4	92.8	4	-1E+10	1	-1E+10	1	-1E+10	1	-1E+10	1	-1E+10	1	-1E+10	1
4902551	118	C	11/21/2023	21:56	-130.915	46.829	0	33.10	0	12.6760	0	32.3130	0	24.376	0	32.823	0	245.6	4	92.8	4	-1E+10	1	-1E+10	1	-1E+10	1	-1E+10	1	-1E+10	1	-1E+10	1
4902551	118	C	11/21/2023	21:56	-130.915	46.829	0	34.10	0	12.6740	0	32.3130	0	24.377	0	33.815	0	245.5	4	92.8	4	-1E+10	1	-1E+10	1	-1E+10	1	-1E+10	1	-1E+10	1	-1E+10	1
4902551	118	C	11/21/2023	21:56	-130.915	46.829	0	35.10	0	12.6730	0	32.3120	0	24.376	0	34.806	0	245.5	4	92.8	4	-1E+10	1	-1E+10	1	-1E+10	1	-1E+10	1	-1E+10	1	-1E+10	1
4902551	118	C	11/21/2023	21:56	-130.915	46.829	0	36.10	0	12.6710	0	32.3130	0	24.377	0	35.798	0	245.5	4	92.8	4	-1E+10	1	-1E+10	1	-1E+10	1	-1E+10	1	-1E+10	1	-1E+10	1
4902551	118	C	11/21/2023	21:56	-130.915	46.829	0	37.00	0	12.6650	0	32.3120	0	24.378	0	36.690	0	245.5	4	92.8	4	-1E+10	1	-1E+10	1	-1E+10	1	-1E+10	1	-1E+10	1	-1E+10	1
4902551	118	C	11/21/2023	21:56	-130.915	46.829	0	38.00	0	12.6420	0	32.3130	0	24.383	0	37.682	0	245.5	4	92.7	4	-1E+10	1	-1E+10	1	-1E+10	1	-1E+10	1	-1E+10	1	-1E+10	1
4902551	118	C	11/21/2023	21:56	-130.915	46.829	0	38.90	0	12.6330	0	32.3140	0	24.386	0	38.574	0	245.5	4	92.7	4	-1E+10	1	-1E+10	1	-1E+10	1	-1E+10	1	-1E+10	1	-1E+10	1
4902551	118	C	11/21/2023	21:56	-130.915	46.829	0	39.80	0	12.6200	0	32.3160	0	24.390	0	39.466	0	245.5	4	92.7	4	-1E+10	1	-1E+10	1	-1E+10	1	-1E+10	1	-1E+10	1	-1E+10	1
4902551	118	C	11/21/2023	21:56	-130.915	46.829	0	40.80	0	12.6110	0	32.3140	0	24.390	0	40.458	0	245.5	4	92.7	4	-1E+10	1	-1E+10	1	-1E+10	1	-1E+10	1	-1E+10	1	-1E+10	1
4902551	118	C	11/21/2023	21:56	-130.915	46.829	0	42.00	0	12.5960	0	32.3170	0	24.395	0	41.648	0	245.5	4	92.7	4	-1E+10	1	-1E+10	1	-1E+10	1	-1E+10	1	-1E+10	1	-1E+10	1
4902551	118	C	11/21/2023	21:56	-130.915	46.829	0	43.00	0	12.5810	0	32.3180	0	24.399	0	42.639	0	245.6	4	92.7	4	-1E+10	1	-1E+10	1	-1E+10	1	-1E+10	1	-1E+10	1	-1E+10	1
4902551	118	C	11/21/2023	21:56	-130.915	46.829	0	43.90	0	12.5700	0	32.3200	0	24.402	0	43.532	0	245.6	4	92.6	4	-1E+10	1	-1E+10	1	-1E+10	1	-1E+10	1	-1E+10	1	-1E+10	1
4902551	118	C	11/21/2023	21:56	-130.915	46.829	0	45.00	0	12.5470	0	32.3210	0	24.408	0	44.622	0	245.6	4	92.6	4	-1E+10	1	-1E+10	1	-1E+10	1	-1E+10	1	-1E+10	1	-1E+10	1
4902551	118	C	11/21/2023	21:56	-130.915	46.829	0	45.90	0	12.5420	0	32.3230	0	24.410	0	45.515	0	245.6	4	92.6	4	-1E+10	1	-1E+10	1	-1E+10	1	-1E+10	1	-1E+10	1	-1E+10	1
4902551	118	C	11/21/2023	21:56	-130.915	46.829	0	46.90	0	12.5310	0	32.3240	0	24.413	0	46.506	0	245.6	4	92.6	4	-1E+10	1	-1E+10	1	-1E+10	1	-1E+10	1	-1E+10	1	-1E+10	1
4902551	118	C	11/21/2023	21:56	-130.915	46.829	0	47.80	0	12.5220	0	32.3230	0	24.414	0	47.398	0	245.7	4	92.6	4	-1E+10	1	-1E+10	1	-1E+10	1	-1E+10	1	-1E+10	1	-1E+10	1
4902551	118	C	11/21/2023	21:56	-130.915	46.829	0	48.80	0	12.5050	0	32.3250	0	24.419	0	48.390	0	245.7	4	92.6	4	-1E+10	1	-1E+10	1	-1E+10	1	-1E+10	1	-1E+10	1	-1E+10	1
4902551	118	C	11/21/2023	21:56	-130.915	46.829	0	49.80	0	12.4610	0	32.3270	0	24.429	0	49.381	0	245.9	4	92.5	4	-1E+10	1	-1E+10	1	-1E+10	1	-1E+10	1	-1E+10	1	-1E+10	1
4902551	118	C	11/21/2023	21:56	-130.915	46.829	0	50.80	0	12.4300	0	32.3320	0	24.439	0	50.373	0	245.9	4	92.5	4	-1E+10	1	-1E+10	1	-1E+10	1	-1E+10	1	-1E+10	1	-1E+10	1
4902551	118	C	11/21/2023	21:56	-130.915	46.829	0	51.80	0	12.4120	0	32.3310	0	24.441	0	51.364	0	245.9	4	92.4	4	-1E+10	1	-1E+10	1	-1E+10	1	-1E+10	1	-1E+10	1	-1E+10	1
4902551	118	C	11/21/2023	21:56	-130.915	46.829	0	52.80	0	12.4040	0	32.3310	0	24.443	0	52.356	0	245.9	4	92.4	4	-1E+10	1	-1E+10	1	-1E+10	1	-1E+10	1	-1E+10	1	-1E+10	1
4902551	118	C	11/21/2023	21:56	-130.915	46.829	0	53.80	0	12.3910	0	32.3330	0	24.447	0	53.347	0	246.1	4	92.5	4	-1E+10	1	-1E+10	1	-1E+10	1	-1E+10	1	-1E+10	1	-1E+10	1
4902551	118	C	11/21/2023	21:56	-130.915	46.829	0	55.10	0	12.3580	0	32.3340	0	24.454	0	54.636	0	246.3	4	92.5	4	-1E+10	1	-1E+10	1	-1E+10	1	-1E+10	1	-1E+10	1	-1E+10	1
4902551	118	C	11/21/2023	21:56	-130.915	46.829	0	56.10	0	12.2390	0	32.3510	0	24.490	0	55.628	0	246.4	4	92.3	4	-1E+10	1	-1E+10	1	-1E+10	1	-1E+10	1	-1E+10	1	-1E+10	1
4902551	118	C	11/21/2023	21:56	-130.915	46.829	0	56.90	0	12.2030	0	32.3420	0	24.489	0	56.421	0	246.7	4	92.3	4	-1E+10	1	-1E+10	1	-1E+10	1	-1E+10	1	-1E+10	1	-1E+10	1
4902551	118	C	11/21/2023	21:56	-130.915	46.829	0	58.10	0	12.1970	0	32.3430	0	24.491	0	57.611	0	246.8	4	92.4	4	-1E+10	1	-1E+10	1	-1E+10	1	-1E+10	1	-1E+10	1	-1E+10	1
4902551	118	C	11/21/2023	21:56	-130.915	46.829	0	59.10	0	12.1960	0	32.3400	0	24.489	0	58.602	0	247.2	4	92.5	4	-1E+10	1	-1E+10	1	-1E+10	1	-1E+10	1	-1E+10	1	-1E+10	1
4902551	118	C	11/21/2023	21:56	-130.915	46.829	0	59.90	0	11.9720	0	32.3150	0	24.512	0	59.395	0	248.4	4	92.5	4	-1E+10	1	-1E+10	1	-1E+10	1	-1E+10	1	-1E+10	1	-1E+10	1
4902551	118	C	11/21/2023	21:56	-130.915	46.829	0	61.00	0	12.0100	0	32.3550	0	24.536	0	60.486	0	248.8	4	92.8	4	-1E+10	1	-1E+10	1	-1E+10	1	-1E+10	1	-1E+10	1	-1E+10	1
4902551	118	C	11/21/2023	21:56	-130.915	46.829	0	61.90	0	11.7160	0	32.3190	0	24.562	0	61.378	0	249.6	4	92.5	4	-1E+10	1	-1E+10	1	-1E+10	1	-1E+10	1	-1E+10	1	-1E+10	1
4902551	118	C	11/21/2023	21:56	-130.915	46.829	0	63.00	0	11.6650	0	32.3470	0	24.593	0	62.469	0	250.3	4	92.6	4	-1E+10	1	-1E+10	1	-1E+10	1	-1E+10	1	-1E+10	1	-1E+10	1
4902551	118	C	11/21/2023	21:56	-130.915	46.829	0	64.00	0	11.5620	0	32.3370	0	24.604	0	63.460	0	251.2	4	92.8	4	-1E+10	1	-1E+10	1	-1E+10	1	-1E+10	1	-1E+10	1	-1E+10	1
4902551	118	C	11/21/2023	21:56	-130.915	46.829	0	65.00	0	11.2350	0	32.3530	0	24.675	0	64.451	0	252.6	4	92.7	4	-1E+10	1	-1E+10	1	-1E+10	1	-1E+10	1	-1E+10	1	-1E+10	1
4902551	118	C	11/21/2023	21:56	-130.915	46.829	0	66.00	0	11.0860	0	32.3300	0	24.684	0	65.443	0	253.5	4	92.7	4	-1E+10	1	-1E+10	1	-1E+10	1	-1E+10	1	-1E+10	1	-1E+10	1
4902551	118	C	11/21/2023	21:56	-130.915	46.829	0	67.20	0	10.7830	0	32.3430	0	24.747	0	66.632	0	254.7	4	92.5	4	-1E+10	1	-1E+10	1	-1E+10	1	-1E+10	1	-1E+10	1	-1E+10	1
4902551	118	C	11/21/2023	21:56	-130.915	46.829	0	67.90	0	10.5440	0	32.3530	0	24.796	0	67.326	0	255.5	4	92.4	4	-1E+10	1	-1E+10	1	-1E+10	1	-1E+10	1	-1E+10	1	-1E+10	1
4902551	118	C	11/21/2023	21:56	-130.915	46.829	0	69.00	0	10.2990	0	32.3560	0	24.840	0	68.417	0	256.4	4	92.2	4	-1E+10	1	-1E+10	1	-1E+10	1	-1E+10	1	-1E+10	1	-1E+10	1
4902551	118	C	11/21/2023	21:56	-130.915	46.829	0	70.00	0	10.1610	0	32.3550	0	24.862	0	69.408	0	257.6	4	92.4	4	-1E+10	1	-1E+10	1	-1E+10	1	-1E+10	1	-1E+10	1	-1E+10	1
4902551	118	C	11/21/2023	21:56	-130.915	46.829	0	71.00	0	9.7560	0	32.3460	0	24.922	0	70.400	0	259.1	4	92.1	4	-1E+10	1	-1E+10	1	-1E+10	1	-1E+10	1	-1E+10	1	-1E+10	1
4902551	118	C	11/21/2023	21:56	-130.915	46.829	0	71.90	0	9.2270	0	32.3650	0	25.021	0	71.292	0	260.0	4	91.4	4	-1E+10	1	-1E+10	1	-1E+10	1	-1E+10	1	-1E+10	1	-1E+10	1
4902551	118	C	11/21/2023	21:56	-130.915	46.829	0	73.00	0	8.8970	0	32.3810	0	25.085	0	72.382	0	259.8	4	90.6	4	-1E+10	1	-1E+10	1	-1E+10	1	-1E+10	1	-1E+10	1	-1E+10	1
4902551	118	C	11/21/2023	21:56	-130.915	46.829	0	74.30	0	8.6290	0	32.3800	0	25.125	0	73.671	0	259.2	4	89.9	4	-1E+10	1	-1E+10	1	-1E+10	1	-1E+10	1	-1E+10	1	-1E+10	1
4902551	118	C	11/21/2023	21:56	-130.915	46.829	0	75.00	0	8.6080	0	32.3790	0	25.128	0	74.365	0	258.5	4	89.6	4	-1E+10	1	-1E+10	1	-1E+10	1	-1E+10	1	-1E+10	1	-1E+10	1
4902551	118	C	11/21/2023	21:56	-130.915	46.829	0	76.10	0	8.5960	0	32.3790	0	25.130	0	75.456	0	257.6	4	89.3	4	-1E+10	1	-1E+10	1	-1E+10	1	-1E+10	1	-1E+10	1	-1E+10	1
4902551	118	C	11/21/2023	21:56	-130.915	46.829	0	77.00	0	8.5700	0	32.3790	0	25.133	0	76.348	0	256.9	4	89.0	4	-1E+10	1	-1E+10	1	-1E+10	1	-1E+10	1	-1E+10	1	-1E+10	1
4902551	118	C	11/21/2023	21:56	-130.915	46.829	0	77.80	0	8.4860	0	32.3830	0	25.149	0	77.141	0	256.4	4	88.6	4	-1E+10	1	-1E+10	1	-1E+10	1	-1E+10	1	-1E+10	1	-1E+10	1
4902551	118	C	11/21/2023	21:56	-130.915	46.829	0	79.00	0	8.4520	0	32.3780	0	25.150	0	78.331	0	255.4	4	88.2	4	-1E+10	1	-1E+10	1	-1E+10	1	-1E+10	1	-1E+10	1	-1E+10	1
4902551	118	C	11/21/2023	21:56	-130.915	46.829	0	79.90	0	8.4190	0	32.3790	0	25.156	0	79.223	0	254.6	4	87.9	4	-1E+10	1	-1E+10	1	-1E+10	1	-1E+10	1	-1E+10	1	-1E+10	1
4902551	118	C	11/21/2023	21:56	-130.915	46.829	0	80.80	0	8.3650	0	32.3820	0	25.166	0	80.115	0	259.8	4	89.6	4	-1E+10	1	-1E+10	1	-1E+10	1	-1E+10	1	-1E+10	1	-1E+10	1
4902551	118	C	11/21/2023	21:56	-130.915	46.829	0	82.10	0	8.3470	0	32.3890	0	25.175	0	81.404	0	257.9	4	88.9	4	-1E+10	1	-1E+10	1	-1E+10	1	-1E+10	1	-1E+10	1	-1E+10	1
4902551	118	C	11/21/2023	21:56	-130.915	46.829	0	83.00	0	8.3390	0	32.3950	0	25.180	0	82.296	0	256.5	4	88.4	4	-1E+10	1	-1E+10	1	-1E+10	1	-1E+10	1	-1E+10	1	-1E+10	1
4902551	118	C	11/21/2023	21:56	-130.915	46.829	0	83.90	0	8.3380	0	32.3980	0	25.183	0	83.188	0	254.9	4	87.8	4	-1E+10	1	-1E+10	1	-1E+10	1	-1E+10	1	-1E+10	1	-1E+10	1
4902551	118	C	11/21/2023	21:56	-130.915	46.829	0	84.90	0	8.3380	0	32.4040	0	25.188	0	84.179	0	252.7	4	87.1	4	-1E+10	1	-1E+10	1	-1E+10	1	-1E+10	1	-1E+10	1	-1E+10	1
4902551	118	C	11/21/2023	21:56	-130.915	46.829	0	86.00	0	8.3390	0	32.4090	0	25.192	0	85.270	0	250.6	4	86.4	4	-1E+10	1	-1E+10	1	-1E+10	1	-1E+10	1	-1E+10	1	-1E+10	1
4902551	118	C	11/21/2023	21:56	-130.915	46.829	0	87.10	0	8.3030	0	32.4160	0	25.202	0	86.360	0	248.6	4	85.6	4	-1E+10	1	-1E+10	1	-1E+10	1	-1E+10	1	-1E+10	1	-1E+10	1
4902551	118	C	11/21/2023	21:56	-130.915	46.829	0	88.10	0	8.2530	0	32.4290	0	25.220	0	87.351	0	247.0	4	85.0	4	-1E+10	1	-1E+10	1	-1E+10	1	-1E+10	1	-1E+10	1	-1E+10	1
4902551	118	C	11/21/2023	21:56	-130.915	46.829	0	89.00	0	8.1770	0	32.4570	0	25.253	0	88.244	0	246.3	4	84.6	4	-1E+10	1	-1E+10	1	-1E+10	1	-1E+10	1	-1E+10	1	-1E+10	1
4902551	118	C	11/21/2023	21:56	-130.915	46.829	0	89.80	0	8.1680	0	32.4610	0	25.257	0	89.037	0	245.3	4	84.2	4	-1E+10	1	-1E+10	1	-1E+10	1	-1E+10	1	-1E+10	1	-1E+10	1
4902551	118	C	11/21/2023	21:56	-130.915	46.829	0	90.80	0	8.1620	0	32.4640	0	25.261	0	90.028	0	243.9	4	83.7	4	-1E+10	1	-1E+10	1	-1E+10	1	-1E+10	1	-1E+10	1	-1E+10	1
4902551	118	C	11/21/2023	21:56	-130.915	46.829	0	91.90	0	8.1530	0	32.4660	0	25.264	0	91.118	0	242.0	4	83.1	4	-1E+10	1	-1E+10	1	-1E+10	1	-1E+10	1	-1E+10	1	-1E+10	1
4902551	118	C	11/21/2023	21:56	-130.915	46.829	0	93.00	0	8.1510	0	32.4870	0	25.280	0	92.209	0	240.4	4	82.6	4	-1E+10	1	-1E+10	1	-1E+10	1	-1E+10	1	-1E+10	1	-1E+10	1
4902551	118	C	11/21/2023	21:56	-130.915	46.829	0	94.10	0	8.1040	0	32.5230	0	25.315	0	93.299	0	239.0	4	82.0	4	-1E+10	1	-1E+10	1	-1E+10	1	-1E+10	1	-1E+10	1	-1E+10	1
4902551	118	C	11/21/2023	21:56	-130.915	46.829	0	94.90	0	8.0270	0	32.5380	0	25.338	0	94.092	0	238.2	4	81.6	4	-1E+10	1	-1E+10	1	-1E+10	1	-1E+10	1	-1E+10	1	-1E+10	1
4902551	118	C	11/21/2023	21:56	-130.915	46.829	0	95.80	0	8.0210	0	32.5480	0	25.347	0	94.984	0	237.1	4	81.2	4	-1E+10	1	-1E+10	1	-1E+10	1	-1E+10	1	-1E+10	1	-1E+10	1
4902551	118	C	11/21/2023	21:56	-130.915	46.829	0	96.80	0	7.9960	0	32.5610	0	25.361	0	95.976	0	236.0	4	80.8	4	-1E+10	1	-1E+10	1	-1E+10	1	-1E+10	1	-1E+10	1	-1E+10	1
4902551	118	C	11/21/2023	21:56	-130.915	46.829	0	98.10	0	7.9750	0	32.5700	0	25.371	0	97.264	0	233.7	4	80.0	4	-1E+10	1	-1E+10	1	-1E+10	1	-1E+10	1	-1E+10	1	-1E+10	1
4902551	118	C	11/21/2023	21:56	-130.915	46.829	0	99.10	0	7.9700	0	32.5730	0	25.374	0	98.255	0	231.2	4	79.1	4	-1E+10	1	-1E+10	1	-1E+10	1	-1E+10	1	-1E+10	1	-1E+10	1
4902551	118	C	11/21/2023	21:56	-130.915	46.829	0	100.10	0	7.9750	0	32.5750	0	25.375	0	99.247	0	227.3	4	77.8	4	-1E+10	1	-1E+10	1	-1E+10	1	-1E+10	1	-1E+10	1	-1E+10	1
4902551	118	C	11/21/2023	21:56	-130.915	46.829	0	101.00	0	7.9680	0	32.5800	0	25.380	0	100.139	0	223.2	4	76.4	4	-1E+10	1	-1E+10	1	-1E+10	1	-1E+10	1	-1E+10	1	-1E+10	1
4902551	118	C	11/21/2023	21:56	-130.915	46.829	0	102.00	0	7.9000	0	32.5930	0	25.400	0	101.130	0	217.3	4	74.3	4	-1E+10	1	-1E+10	1	-1E+10	1	-1E+10	1	-1E+10	1	-1E+10	1
4902551	118	C	11/21/2023	21:56	-130.915	46.829	0	102.90	0	7.7820	0	32.6520	0	25.463	0	102.022	0	211.4	4	72.1	4	-1E+10	1	-1E+10	1	-1E+10	1	-1E+10	1	-1E+10	1	-1E+10	1
4902551	118	C	11/21/2023	21:56	-130.915	46.829	0	104.20	0	7.7760	0	32.6770	0	25.484	0	103.311	0	202.0	4	68.9	4	-1E+10	1	-1E+10	1	-1E+10	1	-1E+10	1	-1E+10	1	-1E+10	1
4902551	118	C	11/21/2023	21:56	-130.915	46.829	0	105.00	0	7.8580	0	32.7060	0	25.495	0	104.104	0	195.8	4	66.9	4	-1E+10	1	-1E+10	1	-1E+10	1	-1E+10	1	-1E+10	1	-1E+10	1
4902551	118	C	11/21/2023	21:56	-130.915	46.829	0	106.00	0	7.9180	0	32.8400	0	25.591	0	105.095	0	187.3	4	64.1	4	-1E+10	1	-1E+10	1	-1E+10	1	-1E+10	1	-1E+10	1	-1E+10	1
4902551	118	C	11/21/2023	21:56	-130.915	46.829	0	106.70	0	7.8820	0	32.8950	0	25.640	0	105.789	0	184.2	4	63.0	4	-1E+10	1	-1E+10	1	-1E+10	1	-1E+10	1	-1E+10	1	-1E+10	1
4902551	118	C	11/21/2023	21:56	-130.915	46.829	0	107.80	0	7.9070	0	32.9370	0	25.669	0	106.879	0	182.3	4	62.5	4	-1E+10	1	-1E+10	1	-1E+10	1	-1E+10	1	-1E+10	1	-1E+10	1
4902551	118	C	11/21/2023	21:56	-130.915	46.829	0	109.00	0	7.9120	0	32.9860	0	25.707	0	108.068	0	180.5	4	61.9	4	-1E+10	1	-1E+10	1	-1E+10	1	-1E+10	1	-1E+10	1	-1E+10	1
4902551	118	C	11/21/2023	21:56	-130.915	46.829	0	109.80	0	7.9200	0	33.0220	0	25.734	0	108.861	0	179.4	4	61.5	4	-1E+10	1	-1E+10	1	-1E+10	1	-1E+10	1	-1E+10	1	-1E+10	1
4902551	118	C	11/21/2023	21:56	-130.915	46.829	0	110.80	0	7.9100	0	33.0650	0	25.769	0	109.853	0	178.2	4	61.1	4	-1E+10	1	-1E+10	1	-1E+10	1	-1E+10	1	-1E+10	1	-1E+10	1
4902551	118	C	11/21/2023	21:56	-130.915	46.829	0	111.90	0	7.9010	0	33.0750	0	25.778	0	110.943	0	177.2	4	60.8	4	-1E+10	1	-1E+10	1	-1E+10	1	-1E+10	1	-1E+10	1	-1E+10	1
4902551	118	C	11/21/2023	21:56	-130.915	46.829	0	112.80	0	7.8930	0	33.0970	0	25.797	0	111.835	0	176.2	4	60.4	4	-1E+10	1	-1E+10	1	-1E+10	1	-1E+10	1	-1E+10	1	-1E+10	1
4902551	118	C	11/21/2023	21:56	-130.915	46.829	0	113.80	0	7.8830	0	33.1070	0	25.806	0	112.826	0	175.2	4	60.1	4	-1E+10	1	-1E+10	1	-1E+10	1	-1E+10	1	-1E+10	1	-1E+10	1
4902551	118	C	11/21/2023	21:56	-130.915	46.829	0	114.90	0	7.8080	0	33.1670	0	25.864	0	113.916	0	174.3	4	59.7	4	-1E+10	1	-1E+10	1	-1E+10	1	-1E+10	1	-1E+10	1	-1E+10	1
4902551	118	C	11/21/2023	21:56	-130.915	46.829	0	116.10	0	7.7270	0	33.2260	0	25.922	0	115.106	0	173.8	4	59.4	4	-1E+10	1	-1E+10	1	-1E+10	1	-1E+10	1	-1E+10	1	-1E+10	1
4902551	118	C	11/21/2023	21:56	-130.915	46.829	0	116.80	0	7.6990	0	33.2480	0	25.943	0	115.800	0	173.4	4	59.3	4	-1E+10	1	-1E+10	1	-1E+10	1	-1E+10	1	-1E+10	1	-1E+10	1
4902551	118	C	11/21/2023	21:56	-130.915	46.829	0	118.00	0	7.6970	0	33.2480	0	25.944	0	116.989	0	172.8	4	59.1	4	-1E+10	1	-1E+10	1	-1E+10	1	-1E+10	1	-1E+10	1	-1E+10	1
4902551	118	C	11/21/2023	21:56	-130.915	46.829	0	119.20	0	7.6920	0	33.2530	0	25.948	0	118.178	0	172.1	4	58.8	4	-1E+10	1	-1E+10	1	-1E+10	1	-1E+10	1	-1E+10	1	-1E+10	1
4902551	118	C	11/21/2023	21:56	-130.915	46.829	0	120.00	0	7.6790	0	33.2630	0	25.958	0	118.971	0	171.6	4	58.6	4	-1E+10	1	-1E+10	1	-1E+10	1	-1E+10	1	-1E+10	1	-1E+10	1
4902551	118	C	11/21/2023	21:56	-130.915	46.829	0	120.80	0	7.6730	0	33.2670	0	25.962	0	119.764	0	171.1	4	58.5	4	-1E+10	1	-1E+10	1	-1E+10	1	-1E+10	1	-1E+10	1	-1E+10	1
4902551	118	C	11/21/2023	21:56	-130.915	46.829	0	121.90	0	7.6650	0	33.2750	0	25.970	0	120.854	0	170.4	4	58.2	4	-1E+10	1	-1E+10	1	-1E+10	1	-1E+10	1	-1E+10	1	-1E+10	1
4902551	118	C	11/21/2023	21:56	-130.915	46.829	0	123.10	0	7.6630	0	33.2810	0	25.975	0	122.044	0	169.6	4	57.9	4	-1E+10	1	-1E+10	1	-1E+10	1	-1E+10	1	-1E+10	1	-1E+10	1
4902551	118	C	11/21/2023	21:56	-130.915	46.829	0	123.90	0	7.6630	0	33.2820	0	25.975	0	122.837	0	168.8	4	57.7	4	-1E+10	1	-1E+10	1	-1E+10	1	-1E+10	1	-1E+10	1	-1E+10	1
4902551	118	C	11/21/2023	21:56	-130.915	46.829	0	124.70	0	7.6620	0	33.2900	0	25.982	0	123.630	0	168.0	4	57.4	4	-1E+10	1	-1E+10	1	-1E+10	1	-1E+10	1	-1E+10	1	-1E+10	1
4902551	118	C	11/21/2023	21:56	-130.915	46.829	0	125.90	0	7.6620	0	33.2920	0	25.983	0	124.819	0	166.8	4	57.0	4	-1E+10	1	-1E+10	1	-1E+10	1	-1E+10	1	-1E+10	1	-1E+10	1
4902551	118	C	11/21/2023	21:56	-130.915	46.829	0	127.10	0	7.6610	0	33.3010	0	25.991	0	126.008	0	165.6	4	56.6	4	-1E+10	1	-1E+10	1	-1E+10	1	-1E+10	1	-1E+10	1	-1E+10	1
4902551	118	C	11/21/2023	21:56	-130.915	46.829	0	127.80	0	7.6710	0	33.3180	0	26.003	0	126.702	0	164.6	4	56.3	4	-1E+10	1	-1E+10	1	-1E+10	1	-1E+10	1	-1E+10	1	-1E+10	1
4902551	118	C	11/21/2023	21:56	-130.915	46.829	0	128.70	0	7.6740	0	33.3250	0	26.008	0	127.594	0	163.8	4	56.0	4	-1E+10	1	-1E+10	1	-1E+10	1	-1E+10	1	-1E+10	1	-1E+10	1
4902551	118	C	11/21/2023	21:56	-130.915	46.829	0	129.90	0	7.6680	0	33.3530	0	26.031	0	128.783	0	162.8	4	55.7	4	-1E+10	1	-1E+10	1	-1E+10	1	-1E+10	1	-1E+10	1	-1E+10	1
4902551	118	C	11/21/2023	21:56	-130.915	46.829	0	131.10	0	7.6560	0	33.3570	0	26.035	0	129.973	0	161.9	4	55.3	4	-1E+10	1	-1E+10	1	-1E+10	1	-1E+10	1	-1E+10	1	-1E+10	1
4902551	118	C	11/21/2023	21:56	-130.915	46.829	0	131.90	0	7.6440	0	33.3630	0	26.042	0	130.765	0	161.2	4	55.1	4	-1E+10	1	-1E+10	1	-1E+10	1	-1E+10	1	-1E+10	1	-1E+10	1
4902551	118	C	11/21/2023	21:56	-130.915	46.829	0	132.80	0	7.6400	0	33.3670	0	26.046	0	131.657	0	160.3	4	54.8	4	-1E+10	1	-1E+10	1	-1E+10	1	-1E+10	1	-1E+10	1	-1E+10	1
4902551	118	C	11/21/2023	21:56	-130.915	46.829	0	133.60	0	7.6380	0	33.3690	0	26.047	0	132.450	0	159.3	4	54.4	4	-1E+10	1	-1E+10	1	-1E+10	1	-1E+10	1	-1E+10	1	-1E+10	1
4902551	118	C	11/21/2023	21:56	-130.915	46.829	0	135.00	0	7.6340	0	33.3900	0	26.065	0	133.838	0	157.9	4	53.9	4	-1E+10	1	-1E+10	1	-1E+10	1	-1E+10	1	-1E+10	1	-1E+10	1
4902551	118	C	11/21/2023	21:56	-130.915	46.829	0	136.30	0	7.6380	0	33.4200	0	26.088	0	135.126	0	156.8	4	53.6	4	-1E+10	1	-1E+10	1	-1E+10	1	-1E+10	1	-1E+10	1	-1E+10	1
4902551	118	C	11/21/2023	21:56	-130.915	46.829	0	137.20	0	7.6410	0	33.4360	0	26.100	0	136.018	0	156.1	4	53.4	4	-1E+10	1	-1E+10	1	-1E+10	1	-1E+10	1	-1E+10	1	-1E+10	1
4902551	118	C	11/21/2023	21:56	-130.915	46.829	0	138.10	0	7.6430	0	33.4400	0	26.103	0	136.910	0	155.5	4	53.1	4	-1E+10	1	-1E+10	1	-1E+10	1	-1E+10	1	-1E+10	1	-1E+10	1
4902551	118	C	11/21/2023	21:56	-130.915	46.829	0	138.90	0	7.6430	0	33.4410	0	26.103	0	137.703	0	154.8	4	52.9	4	-1E+10	1	-1E+10	1	-1E+10	1	-1E+10	1	-1E+10	1	-1E+10	1
4902551	118	C	11/21/2023	21:56	-130.915	46.829	0	139.70	0	7.6430	0	33.4420	0	26.104	0	138.496	0	153.8	4	52.6	4	-1E+10	1	-1E+10	1	-1E+10	1	-1E+10	1	-1E+10	1	-1E+10	1
4902551	118	C	11/21/2023	21:56	-130.915	46.829	0	141.00	0	7.6420	0	33.4420	0	26.104	0	139.784	0	152.1	4	52.0	4	-1E+10	1	-1E+10	1	-1E+10	1	-1E+10	1	-1E+10	1	-1E+10	1
4902551	118	C	11/21/2023	21:56	-130.915	46.829	0	142.30	0	7.6410	0	33.4430	0	26.105	0	141.072	0	150.4	4	51.4	4	-1E+10	1	-1E+10	1	-1E+10	1	-1E+10	1	-1E+10	1	-1E+10	1
4902551	118	C	11/21/2023	21:56	-130.915	46.829	0	143.20	0	7.6380	0	33.4530	0	26.114	0	141.964	0	149.3	4	51.1	4	-1E+10	1	-1E+10	1	-1E+10	1	-1E+10	1	-1E+10	1	-1E+10	1
4902551	118	C	11/21/2023	21:56	-130.915	46.829	0	144.10	0	7.6570	0	33.4760	0	26.129	0	142.856	0	148.4	4	50.8	4	-1E+10	1	-1E+10	1	-1E+10	1	-1E+10	1	-1E+10	1	-1E+10	1
4902551	118	C	11/21/2023	21:56	-130.915	46.829	0	144.90	0	7.6730	0	33.4870	0	26.135	0	143.649	0	147.4	4	50.5	4	-1E+10	1	-1E+10	1	-1E+10	1	-1E+10	1	-1E+10	1	-1E+10	1
4902551	118	C	11/21/2023	21:56	-130.915	46.829	0	145.80	0	7.6730	0	33.4880	0	26.136	0	144.541	0	146.6	4	50.2	4	-1E+10	1	-1E+10	1	-1E+10	1	-1E+10	1	-1E+10	1	-1E+10	1
4902551	118	C	11/21/2023	21:56	-130.915	46.829	0	146.70	0	7.6750	0	33.4910	0	26.138	0	145.433	0	145.7	4	49.9	4	-1E+10	1	-1E+10	1	-1E+10	1	-1E+10	1	-1E+10	1	-1E+10	1
4902551	118	C	11/21/2023	21:56	-130.915	46.829	0	147.60	0	7.6800	0	33.4960	0	26.141	0	146.325	0	144.7	4	49.5	4	-1E+10	1	-1E+10	1	-1E+10	1	-1E+10	1	-1E+10	1	-1E+10	1
4902551	118	C	11/21/2023	21:56	-130.915	46.829	0	148.90	0	7.7070	0	33.5070	0	26.146	0	147.613	0	143.1	4	49.0	4	-1E+10	1	-1E+10	1	-1E+10	1	-1E+10	1	-1E+10	1	-1E+10	1
4902551	118	C	11/21/2023	21:56	-130.915	46.829	0	150.30	0	7.7360	0	33.5330	0	26.163	0	149.001	0	142.0	4	48.7	4	-1E+10	1	-1E+10	1	-1E+10	1	-1E+10	1	-1E+10	1	-1E+10	1
4902551	118	C	11/21/2023	21:56	-130.915	46.829	0	151.10	0	7.7300	0	33.5340	0	26.164	0	149.793	0	141.3	4	48.4	4	-1E+10	1	-1E+10	1	-1E+10	1	-1E+10	1	-1E+10	1	-1E+10	1
4902551	118	C	11/21/2023	21:56	-130.915	46.829	0	151.90	0	7.7290	0	33.5360	0	26.166	0	150.586	0	140.6	4	48.2	4	-1E+10	1	-1E+10	1	-1E+10	1	-1E+10	1	-1E+10	1	-1E+10	1
4902551	118	C	11/21/2023	21:56	-130.915	46.829	0	152.80	0	7.7420	0	33.5490	0	26.174	0	151.478	0	139.8	4	47.9	4	-1E+10	1	-1E+10	1	-1E+10	1	-1E+10	1	-1E+10	1	-1E+10	1
4902551	118	C	11/21/2023	21:56	-130.915	46.829	0	153.60	0	7.7570	0	33.5650	0	26.185	0	152.271	0	139.2	4	47.8	4	-1E+10	1	-1E+10	1	-1E+10	1	-1E+10	1	-1E+10	1	-1E+10	1
4902551	118	C	11/21/2023	21:56	-130.915	46.829	0	154.90	0	7.7730	0	33.5780	0	26.193	0	153.559	0	138.9	4	47.7	4	-1E+10	1	-1E+10	1	-1E+10	1	-1E+10	1	-1E+10	1	-1E+10	1
4902551	118	C	11/21/2023	21:56	-130.915	46.829	0	156.30	0	7.7660	0	33.5940	0	26.206	0	154.946	0	138.7	4	47.6	4	-1E+10	1	-1E+10	1	-1E+10	1	-1E+10	1	-1E+10	1	-1E+10	1
4902551	118	C	11/21/2023	21:56	-130.915	46.829	0	157.10	0	7.7360	0	33.6140	0	26.226	0	155.739	0	138.7	4	47.6	4	-1E+10	1	-1E+10	1	-1E+10	1	-1E+10	1	-1E+10	1	-1E+10	1
4902551	118	C	11/21/2023	21:56	-130.915	46.829	0	158.00	0	7.7390	0	33.6140	0	26.226	0	156.631	0	138.8	4	47.6	4	-1E+10	1	-1E+10	1	-1E+10	1	-1E+10	1	-1E+10	1	-1E+10	1
4902551	118	C	11/21/2023	21:56	-130.915	46.829	0	158.90	0	7.6090	0	33.6160	0	26.246	0	157.523	0	138.6	4	47.4	4	-1E+10	1	-1E+10	1	-1E+10	1	-1E+10	1	-1E+10	1	-1E+10	1
4902551	118	C	11/21/2023	21:56	-130.915	46.829	0	159.80	0	7.5640	0	33.6240	0	26.259	0	158.415	0	137.9	4	47.1	4	-1E+10	1	-1E+10	1	-1E+10	1	-1E+10	1	-1E+10	1	-1E+10	1
4902551	118	C	11/21/2023	21:56	-130.915	46.829	0	160.70	0	7.6040	0	33.6450	0	26.270	0	159.307	0	137.2	4	46.9	4	-1E+10	1	-1E+10	1	-1E+10	1	-1E+10	1	-1E+10	1	-1E+10	1
4902551	118	C	11/21/2023	21:56	-130.915	46.829	0	161.70	0	7.5660	0	33.6870	0	26.308	0	160.298	0	136.7	4	46.7	4	-1E+10	1	-1E+10	1	-1E+10	1	-1E+10	1	-1E+10	1	-1E+10	1
4902551	118	C	11/21/2023	21:56	-130.915	46.829	0	162.60	0	7.5540	0	33.6920	0	26.314	0	161.189	0	136.3	4	46.6	4	-1E+10	1	-1E+10	1	-1E+10	1	-1E+10	1	-1E+10	1	-1E+10	1
4902551	118	C	11/21/2023	21:56	-130.915	46.829	0	163.60	0	7.5490	0	33.6940	0	26.316	0	162.180	0	135.8	4	46.4	4	-1E+10	1	-1E+10	1	-1E+10	1	-1E+10	1	-1E+10	1	-1E+10	1
4902551	118	C	11/21/2023	21:56	-130.915	46.829	0	164.50	0	7.5320	0	33.7040	0	26.326	0	163.072	0	135.3	4	46.2	4	-1E+10	1	-1E+10	1	-1E+10	1	-1E+10	1	-1E+10	1	-1E+10	1
4902551	118	C	11/21/2023	21:56	-130.915	46.829	0	165.90	0	7.4970	0	33.7230	0	26.346	0	164.459	0	134.6	4	46.0	4	-1E+10	1	-1E+10	1	-1E+10	1	-1E+10	1	-1E+10	1	-1E+10	1
4902551	118	C	11/21/2023	21:56	-130.915	46.829	0	167.30	0	7.4750	0	33.7350	0	26.359	0	165.847	0	133.9	4	45.7	4	-1E+10	1	-1E+10	1	-1E+10	1	-1E+10	1	-1E+10	1	-1E+10	1
4902551	118	C	11/21/2023	21:56	-130.915	46.829	0	168.30	0	7.4760	0	33.7360	0	26.359	0	166.838	0	133.4	4	45.5	4	-1E+10	1	-1E+10	1	-1E+10	1	-1E+10	1	-1E+10	1	-1E+10	1
4902551	118	C	11/21/2023	21:56	-130.915	46.829	0	169.20	0	7.4770	0	33.7390	0	26.362	0	167.729	0	132.8	4	45.3	4	-1E+10	1	-1E+10	1	-1E+10	1	-1E+10	1	-1E+10	1	-1E+10	1
4902551	118	C	11/21/2023	21:56	-130.915	46.829	0	170.20	0	7.4850	0	33.7460	0	26.366	0	168.720	0	132.1	4	45.1	4	-1E+10	1	-1E+10	1	-1E+10	1	-1E+10	1	-1E+10	1	-1E+10	1
4902551	118	C	11/21/2023	21:56	-130.915	46.829	0	171.10	0	7.4840	0	33.7500	0	26.369	0	169.612	0	131.7	4	45.0	4	-1E+10	1	-1E+10	1	-1E+10	1	-1E+10	1	-1E+10	1	-1E+10	1
4902551	118	C	11/21/2023	21:56	-130.915	46.829	0	172.10	0	7.4810	0	33.7550	0	26.374	0	170.603	0	131.2	4	44.8	4	-1E+10	1	-1E+10	1	-1E+10	1	-1E+10	1	-1E+10	1	-1E+10	1
4902551	118	C	11/21/2023	21:56	-130.915	46.829	0	173.00	0	7.4890	0	33.7650	0	26.380	0	171.495	0	130.9	4	44.7	4	-1E+10	1	-1E+10	1	-1E+10	1	-1E+10	1	-1E+10	1	-1E+10	1
4902551	118	C	11/21/2023	21:56	-130.915	46.829	0	174.00	0	7.4840	0	33.7720	0	26.387	0	172.486	0	130.8	4	44.7	4	-1E+10	1	-1E+10	1	-1E+10	1	-1E+10	1	-1E+10	1	-1E+10	1
4902551	118	C	11/21/2023	21:56	-130.915	46.829	0	174.90	0	7.4570	0	33.7800	0	26.397	0	173.378	0	130.7	4	44.6	4	-1E+10	1	-1E+10	1	-1E+10	1	-1E+10	1	-1E+10	1	-1E+10	1
4902551	118	C	11/21/2023	21:56	-130.915	46.829	0	175.90	0	7.4550	0	33.7820	0	26.399	0	174.368	0	130.6	4	44.6	4	-1E+10	1	-1E+10	1	-1E+10	1	-1E+10	1	-1E+10	1	-1E+10	1
4902551	118	C	11/21/2023	21:56	-130.915	46.829	0	176.70	0	7.4490	0	33.7820	0	26.400	0	175.161	0	130.5	4	44.5	4	-1E+10	1	-1E+10	1	-1E+10	1	-1E+10	1	-1E+10	1	-1E+10	1
4902551	118	C	11/21/2023	21:56	-130.915	46.829	0	178.10	0	7.4490	0	33.7860	0	26.403	0	176.548	0	130.3	4	44.5	4	-1E+10	1	-1E+10	1	-1E+10	1	-1E+10	1	-1E+10	1	-1E+10	1
4902551	118	C	11/21/2023	21:56	-130.915	46.829	0	179.20	0	7.4480	0	33.7900	0	26.406	0	177.638	0	130.2	4	44.4	4	-1E+10	1	-1E+10	1	-1E+10	1	-1E+10	1	-1E+10	1	-1E+10	1
4902551	118	C	11/21/2023	21:56	-130.915	46.829	0	179.80	0	7.4540	0	33.8010	0	26.414	0	178.233	0	130.2	4	44.4	4	-1E+10	1	-1E+10	1	-1E+10	1	-1E+10	1	-1E+10	1	-1E+10	1
4902551	118	C	11/21/2023	21:56	-130.915	46.829	0	180.80	0	7.4320	0	33.8070	0	26.422	0	179.224	0	130.4	4	44.5	4	-1E+10	1	-1E+10	1	-1E+10	1	-1E+10	1	-1E+10	1	-1E+10	1
4902551	118	C	11/21/2023	21:56	-130.915	46.829	0	181.90	0	7.3950	0	33.8070	0	26.427	0	180.314	0	130.8	4	44.6	4	-1E+10	1	-1E+10	1	-1E+10	1	-1E+10	1	-1E+10	1	-1E+10	1
4902551	118	C	11/21/2023	21:56	-130.915	46.829	0	182.90	0	7.2780	0	33.7980	0	26.436	0	181.304	0	131.3	4	44.6	4	-1E+10	1	-1E+10	1	-1E+10	1	-1E+10	1	-1E+10	1	-1E+10	1
4902551	118	C	11/21/2023	21:56	-130.915	46.829	0	184.00	0	7.1710	0	33.7880	0	26.443	0	182.394	0	131.5	4	44.6	4	-1E+10	1	-1E+10	1	-1E+10	1	-1E+10	1	-1E+10	1	-1E+10	1
4902551	118	C	11/21/2023	21:56	-130.915	46.829	0	185.00	0	7.0550	0	33.7940	0	26.464	0	183.385	0	131.7	4	44.5	4	-1E+10	1	-1E+10	1	-1E+10	1	-1E+10	1	-1E+10	1	-1E+10	1
4902551	118	C	11/21/2023	21:56	-130.915	46.829	0	186.10	0	7.0000	0	33.7840	0	26.463	0	184.475	0	131.5	4	44.4	4	-1E+10	1	-1E+10	1	-1E+10	1	-1E+10	1	-1E+10	1	-1E+10	1
4902551	118	C	11/21/2023	21:56	-130.915	46.829	0	186.80	0	6.9520	0	33.7850	0	26.471	0	185.169	0	131.5	4	44.4	4	-1E+10	1	-1E+10	1	-1E+10	1	-1E+10	1	-1E+10	1	-1E+10	1
4902551	118	C	11/21/2023	21:56	-130.915	46.829	0	188.00	0	6.7580	0	33.7740	0	26.488	0	186.358	0	131.4	4	44.1	4	-1E+10	1	-1E+10	1	-1E+10	1	-1E+10	1	-1E+10	1	-1E+10	1
4902551	118	C	11/21/2023	21:56	-130.915	46.829	0	189.20	0	6.7500	0	33.7750	0	26.490	0	187.547	0	131.1	4	44.0	4	-1E+10	1	-1E+10	1	-1E+10	1	-1E+10	1	-1E+10	1	-1E+10	1
4902551	118	C	11/21/2023	21:56	-130.915	46.829	0	189.90	0	6.7570	0	33.7750	0	26.489	0	188.240	0	130.8	4	43.9	4	-1E+10	1	-1E+10	1	-1E+10	1	-1E+10	1	-1E+10	1	-1E+10	1
4902551	118	C	11/21/2023	21:56	-130.915	46.829	0	190.70	0	6.7590	0	33.7760	0	26.490	0	189.033	0	130.5	4	43.8	4	-1E+10	1	-1E+10	1	-1E+10	1	-1E+10	1	-1E+10	1	-1E+10	1
4902551	118	C	11/21/2023	21:56	-130.915	46.829	0	191.90	0	6.7560	0	33.7760	0	26.490	0	190.222	0	130.0	4	43.7	4	-1E+10	1	-1E+10	1	-1E+10	1	-1E+10	1	-1E+10	1	-1E+10	1
4902551	118	C	11/21/2023	21:56	-130.915	46.829	0	193.10	0	6.7480	0	33.7760	0	26.491	0	191.411	0	129.5	4	43.5	4	-1E+10	1	-1E+10	1	-1E+10	1	-1E+10	1	-1E+10	1	-1E+10	1
4902551	118	C	11/21/2023	21:56	-130.915	46.829	0	193.90	0	6.7540	0	33.7760	0	26.490	0	192.203	0	128.9	4	43.3	4	-1E+10	1	-1E+10	1	-1E+10	1	-1E+10	1	-1E+10	1	-1E+10	1
4902551	118	C	11/21/2023	21:56	-130.915	46.829	0	194.70	0	6.7570	0	33.7810	0	26.494	0	192.996	0	128.3	4	43.1	4	-1E+10	1	-1E+10	1	-1E+10	1	-1E+10	1	-1E+10	1	-1E+10	1
4902551	118	C	11/21/2023	21:56	-130.915	46.829	0	195.90	0	6.7670	0	33.7800	0	26.492	0	194.185	0	127.2	4	42.7	4	-1E+10	1	-1E+10	1	-1E+10	1	-1E+10	1	-1E+10	1	-1E+10	1
4902551	118	C	11/21/2023	21:56	-130.915	46.829	0	197.20	0	6.7850	0	33.7820	0	26.491	0	195.473	0	125.9	4	42.3	4	-1E+10	1	-1E+10	1	-1E+10	1	-1E+10	1	-1E+10	1	-1E+10	1
4902551	118	C	11/21/2023	21:56	-130.915	46.829	0	198.00	0	6.8500	0	33.7910	0	26.489	0	196.266	0	125.0	4	42.1	4	-1E+10	1	-1E+10	1	-1E+10	1	-1E+10	1	-1E+10	1	-1E+10	1
4902551	118	C	11/21/2023	21:56	-130.915	46.829	0	198.90	0	6.7180	0	33.8050	0	26.518	0	197.157	0	124.5	4	41.8	4	-1E+10	1	-1E+10	1	-1E+10	1	-1E+10	1	-1E+10	1	-1E+10	1
4902551	118	C	11/21/2023	21:56	-130.915	46.829	0	199.70	0	6.6920	0	33.7940	0	26.513	0	197.950	0	123.9	4	41.6	4	-1E+10	1	-1E+10	1	-1E+10	1	-1E+10	1	-1E+10	1	-1E+10	1
4902551	118	C	11/21/2023	21:56	-130.915	46.829	0	200.60	0	6.6310	0	33.7970	0	26.523	0	198.841	0	123.5	4	41.4	4	-1E+10	1	-1E+10	1	-1E+10	1	-1E+10	1	-1E+10	1	-1E+10	1
4902551	118	C	11/21/2023	21:56	-130.915	46.829	0	201.90	0	6.6110	0	33.8040	0	26.531	0	200.129	0	122.8	4	41.1	4	-1E+10	1	-1E+10	1	-1E+10	1	-1E+10	1	-1E+10	1	-1E+10	1
4902551	118	C	11/21/2023	21:56	-130.915	46.829	0	203.20	0	6.5480	0	33.8060	0	26.541	0	201.417	0	122.1	4	40.8	4	-1E+10	1	-1E+10	1	-1E+10	1	-1E+10	1	-1E+10	1	-1E+10	1
4902551	118	C	11/21/2023	21:56	-130.915	46.829	0	204.10	0	6.5420	0	33.8060	0	26.542	0	202.309	0	121.4	4	40.6	4	-1E+10	1	-1E+10	1	-1E+10	1	-1E+10	1	-1E+10	1	-1E+10	1
4902551	118	C	11/21/2023	21:56	-130.915	46.829	0	205.00	0	6.5410	0	33.8060	0	26.542	0	203.201	0	120.6	4	40.3	4	-1E+10	1	-1E+10	1	-1E+10	1	-1E+10	1	-1E+10	1	-1E+10	1
4902551	118	C	11/21/2023	21:56	-130.915	46.829	0	205.90	0	6.5310	0	33.8090	0	26.546	0	204.092	0	119.9	4	40.1	4	-1E+10	1	-1E+10	1	-1E+10	1	-1E+10	1	-1E+10	1	-1E+10	1
4902551	118	C	11/21/2023	21:56	-130.915	46.829	0	206.80	0	6.5230	0	33.8090	0	26.547	0	204.984	0	119.1	4	39.8	4	-1E+10	1	-1E+10	1	-1E+10	1	-1E+10	1	-1E+10	1	-1E+10	1
4902551	118	C	11/21/2023	21:56	-130.915	46.829	0	207.70	0	6.5130	0	33.8120	0	26.551	0	205.876	0	118.4	4	39.5	4	-1E+10	1	-1E+10	1	-1E+10	1	-1E+10	1	-1E+10	1	-1E+10	1
4902551	118	C	11/21/2023	21:56	-130.915	46.829	0	208.90	0	6.4890	0	33.8200	0	26.560	0	207.065	0	117.2	4	39.1	4	-1E+10	1	-1E+10	1	-1E+10	1	-1E+10	1	-1E+10	1	-1E+10	1
4902551	118	C	11/21/2023	21:56	-130.915	46.829	0	210.30	0	6.4790	0	33.8220	0	26.563	0	208.452	0	116.2	4	38.8	4	-1E+10	1	-1E+10	1	-1E+10	1	-1E+10	1	-1E+10	1	-1E+10	1
4902551	118	C	11/21/2023	21:56	-130.915	46.829	0	211.20	0	6.4730	0	33.8240	0	26.565	0	209.343	0	115.4	4	38.5	4	-1E+10	1	-1E+10	1	-1E+10	1	-1E+10	1	-1E+10	1	-1E+10	1
4902551	118	C	11/21/2023	21:56	-130.915	46.829	0	212.10	0	6.4650	0	33.8260	0	26.568	0	210.235	0	114.6	4	38.3	4	-1E+10	1	-1E+10	1	-1E+10	1	-1E+10	1	-1E+10	1	-1E+10	1
4902551	118	C	11/21/2023	21:56	-130.915	46.829	0	213.10	0	6.4550	0	33.8270	0	26.570	0	211.226	0	113.9	4	38.0	4	-1E+10	1	-1E+10	1	-1E+10	1	-1E+10	1	-1E+10	1	-1E+10	1
4902551	118	C	11/21/2023	21:56	-130.915	46.829	0	214.00	0	6.4380	0	33.8290	0	26.574	0	212.117	0	113.2	4	37.8	4	-1E+10	1	-1E+10	1	-1E+10	1	-1E+10	1	-1E+10	1	-1E+10	1
4902551	118	C	11/21/2023	21:56	-130.915	46.829	0	214.90	0	6.4320	0	33.8310	0	26.576	0	213.009	0	112.5	4	37.5	4	-1E+10	1	-1E+10	1	-1E+10	1	-1E+10	1	-1E+10	1	-1E+10	1
4902551	118	C	11/21/2023	21:56	-130.915	46.829	0	215.80	0	6.3940	0	33.8350	0	26.584	0	213.900	0	112.0	4	37.3	4	-1E+10	1	-1E+10	1	-1E+10	1	-1E+10	1	-1E+10	1	-1E+10	1
4902551	118	C	11/21/2023	21:56	-130.915	46.829	0	216.70	0	6.3800	0	33.8360	0	26.587	0	214.792	0	111.5	4	37.1	4	-1E+10	1	-1E+10	1	-1E+10	1	-1E+10	1	-1E+10	1	-1E+10	1
4902551	118	C	11/21/2023	21:56	-130.915	46.829	0	217.60	0	6.3680	0	33.8360	0	26.589	0	215.684	0	110.9	4	36.9	4	-1E+10	1	-1E+10	1	-1E+10	1	-1E+10	1	-1E+10	1	-1E+10	1
4902551	118	C	11/21/2023	21:56	-130.915	46.829	0	218.60	0	6.3570	0	33.8370	0	26.591	0	216.674	0	110.4	4	36.7	4	-1E+10	1	-1E+10	1	-1E+10	1	-1E+10	1	-1E+10	1	-1E+10	1
4902551	118	C	11/21/2023	21:56	-130.915	46.829	0	219.90	0	6.3200	0	33.8410	0	26.599	0	217.962	0	109.7	4	36.5	4	-1E+10	1	-1E+10	1	-1E+10	1	-1E+10	1	-1E+10	1	-1E+10	1
4902551	118	C	11/21/2023	21:56	-130.915	46.829	0	221.40	0	6.3010	0	33.8460	0	26.605	0	219.448	0	108.9	4	36.2	4	-1E+10	1	-1E+10	1	-1E+10	1	-1E+10	1	-1E+10	1	-1E+10	1
4902551	118	C	11/21/2023	21:56	-130.915	46.829	0	222.30	0	6.2770	0	33.8450	0	26.607	0	220.340	0	108.4	4	36.0	4	-1E+10	1	-1E+10	1	-1E+10	1	-1E+10	1	-1E+10	1	-1E+10	1
4902551	118	C	11/21/2023	21:56	-130.915	46.829	0	223.30	0	6.2510	0	33.8500	0	26.615	0	221.330	0	108.0	4	35.9	4	-1E+10	1	-1E+10	1	-1E+10	1	-1E+10	1	-1E+10	1	-1E+10	1
4902551	118	C	11/21/2023	21:56	-130.915	46.829	0	224.20	0	6.2480	0	33.8480	0	26.614	0	222.222	0	107.6	4	35.7	4	-1E+10	1	-1E+10	1	-1E+10	1	-1E+10	1	-1E+10	1	-1E+10	1
4902551	118	C	11/21/2023	21:56	-130.915	46.829	0	225.20	0	6.2440	0	33.8490	0	26.615	0	223.213	0	107.2	4	35.6	4	-1E+10	1	-1E+10	1	-1E+10	1	-1E+10	1	-1E+10	1	-1E+10	1
4902551	118	C	11/21/2023	21:56	-130.915	46.829	0	226.20	0	6.2180	0	33.8520	0	26.621	0	224.203	0	106.8	4	35.5	4	-1E+10	1	-1E+10	1	-1E+10	1	-1E+10	1	-1E+10	1	-1E+10	1
4902551	118	C	11/21/2023	21:56	-130.915	46.829	0	227.20	0	6.2060	0	33.8520	0	26.622	0	225.194	0	106.4	4	35.3	4	-1E+10	1	-1E+10	1	-1E+10	1	-1E+10	1	-1E+10	1	-1E+10	1
4902551	118	C	11/21/2023	21:56	-130.915	46.829	0	228.10	0	6.2030	0	33.8520	0	26.623	0	226.085	0	106.0	4	35.2	4	-1E+10	1	-1E+10	1	-1E+10	1	-1E+10	1	-1E+10	1	-1E+10	1
4902551	118	C	11/21/2023	21:56	-130.915	46.829	0	229.20	0	6.1960	0	33.8530	0	26.624	0	227.175	0	105.6	4	35.0	4	-1E+10	1	-1E+10	1	-1E+10	1	-1E+10	1	-1E+10	1	-1E+10	1
4902551	118	C	11/21/2023	21:56	-130.915	46.829	0	230.10	0	6.1890	0	33.8540	0	26.626	0	228.067	0	105.2	4	34.9	4	-1E+10	1	-1E+10	1	-1E+10	1	-1E+10	1	-1E+10	1	-1E+10	1
4902551	118	C	11/21/2023	21:56	-130.915	46.829	0	231.10	0	6.1820	0	33.8550	0	26.628	0	229.057	0	104.8	4	34.8	4	-1E+10	1	-1E+10	1	-1E+10	1	-1E+10	1	-1E+10	1	-1E+10	1
4902551	118	C	11/21/2023	21:56	-130.915	46.829	0	232.20	0	6.1740	0	33.8550	0	26.629	0	230.147	0	104.4	4	34.6	4	-1E+10	1	-1E+10	1	-1E+10	1	-1E+10	1	-1E+10	1	-1E+10	1
4902551	118	C	11/21/2023	21:56	-130.915	46.829	0	233.20	0	6.1620	0	33.8580	0	26.633	0	231.137	0	103.9	4	34.4	4	-1E+10	1	-1E+10	1	-1E+10	1	-1E+10	1	-1E+10	1	-1E+10	1
4902551	118	C	11/21/2023	21:56	-130.915	46.829	0	234.20	0	6.1460	0	33.8580	0	26.635	0	232.128	0	103.5	4	34.3	4	-1E+10	1	-1E+10	1	-1E+10	1	-1E+10	1	-1E+10	1	-1E+10	1
4902551	118	C	11/21/2023	21:56	-130.915	46.829	0	235.10	0	6.1350	0	33.8590	0	26.637	0	233.020	0	103.0	4	34.1	4	-1E+10	1	-1E+10	1	-1E+10	1	-1E+10	1	-1E+10	1	-1E+10	1
4902551	118	C	11/21/2023	21:56	-130.915	46.829	0	236.20	0	6.1220	0	33.8590	0	26.638	0	234.109	0	102.7	4	34.0	4	-1E+10	1	-1E+10	1	-1E+10	1	-1E+10	1	-1E+10	1	-1E+10	1
4902551	118	C	11/21/2023	21:56	-130.915	46.829	0	237.20	0	6.1040	0	33.8610	0	26.642	0	235.100	0	102.3	4	33.9	4	-1E+10	1	-1E+10	1	-1E+10	1	-1E+10	1	-1E+10	1	-1E+10	1
4902551	118	C	11/21/2023	21:56	-130.915	46.829	0	238.20	0	6.0850	0	33.8620	0	26.645	0	236.090	0	102.0	4	33.7	4	-1E+10	1	-1E+10	1	-1E+10	1	-1E+10	1	-1E+10	1	-1E+10	1
4902551	118	C	11/21/2023	21:56	-130.915	46.829	0	239.30	0	6.0670	0	33.8660	0	26.651	0	237.180	0	101.7	4	33.6	4	-1E+10	1	-1E+10	1	-1E+10	1	-1E+10	1	-1E+10	1	-1E+10	1
4902551	118	C	11/21/2023	21:56	-130.915	46.829	0	240.30	0	6.0670	0	33.8650	0	26.650	0	238.171	0	101.4	4	33.5	4	-1E+10	1	-1E+10	1	-1E+10	1	-1E+10	1	-1E+10	1	-1E+10	1
4902551	118	C	11/21/2023	21:56	-130.915	46.829	0	241.40	0	6.0620	0	33.8650	0	26.651	0	239.260	0	101.1	4	33.4	4	-1E+10	1	-1E+10	1	-1E+10	1	-1E+10	1	-1E+10	1	-1E+10	1
4902551	118	C	11/21/2023	21:56	-130.915	46.829	0	242.40	0	6.0460	0	33.8670	0	26.654	0	240.251	0	100.9	4	33.4	4	-1E+10	1	-1E+10	1	-1E+10	1	-1E+10	1	-1E+10	1	-1E+10	1
4902551	118	C	11/21/2023	21:56	-130.915	46.829	0	243.40	0	6.0380	0	33.8680	0	26.656	0	241.241	0	100.7	4	33.3	4	-1E+10	1	-1E+10	1	-1E+10	1	-1E+10	1	-1E+10	1	-1E+10	1
4902551	118	C	11/21/2023	21:56	-130.915	46.829	0	244.40	0	6.0320	0	33.8690	0	26.658	0	242.232	0	100.5	4	33.2	4	-1E+10	1	-1E+10	1	-1E+10	1	-1E+10	1	-1E+10	1	-1E+10	1
4902551	118	C	11/21/2023	21:56	-130.915	46.829	0	245.40	0	6.0250	0	33.8690	0	26.659	0	243.222	0	100.4	4	33.2	4	-1E+10	1	-1E+10	1	-1E+10	1	-1E+10	1	-1E+10	1	-1E+10	1
4902551	118	C	11/21/2023	21:56	-130.915	46.829	0	246.50	0	6.0190	0	33.8690	0	26.659	0	244.312	0	100.2	4	33.1	4	-1E+10	1	-1E+10	1	-1E+10	1	-1E+10	1	-1E+10	1	-1E+10	1
4902551	118	C	11/21/2023	21:56	-130.915	46.829	0	247.50	0	6.0090	0	33.8700	0	26.661	0	245.303	0	100.0	4	33.0	4	-1E+10	1	-1E+10	1	-1E+10	1	-1E+10	1	-1E+10	1	-1E+10	1
4902551	118	C	11/21/2023	21:56	-130.915	46.829	0	248.50	0	6.0060	0	33.8700	0	26.662	0	246.293	0	99.8	4	33.0	4	-1E+10	1	-1E+10	1	-1E+10	1	-1E+10	1	-1E+10	1	-1E+10	1
4902551	118	C	11/21/2023	21:56	-130.915	46.829	0	249.50	0	6.0060	0	33.8710	0	26.663	0	247.284	0	99.7	4	32.9	4	-1E+10	1	-1E+10	1	-1E+10	1	-1E+10	1	-1E+10	1	-1E+10	1
4902551	118	C	11/21/2023	21:56	-130.915	46.829	0	250.50	0	6.0050	0	33.8710	0	26.663	0	248.274	0	99.4	4	32.8	4	-1E+10	1	-1E+10	1	-1E+10	1	-1E+10	1	-1E+10	1	-1E+10	1
4902551	118	C	11/21/2023	21:56	-130.915	46.829	0	251.60	0	6.0040	0	33.8710	0	26.663	0	249.364	0	99.2	4	32.8	4	-1E+10	1	-1E+10	1	-1E+10	1	-1E+10	1	-1E+10	1	-1E+10	1
4902551	118	C	11/21/2023	21:56	-130.915	46.829	0	252.70	0	6.0030	0	33.8700	0	26.662	0	250.453	0	98.9	4	32.7	4	-1E+10	1	-1E+10	1	-1E+10	1	-1E+10	1	-1E+10	1	-1E+10	1
4902551	118	C	11/21/2023	21:56	-130.915	46.829	0	253.80	0	6.0020	0	33.8700	0	26.662	0	251.543	0	98.6	4	32.6	4	-1E+10	1	-1E+10	1	-1E+10	1	-1E+10	1	-1E+10	1	-1E+10	1
4902551	118	C	11/21/2023	21:56	-130.915	46.829	0	254.90	0	5.9990	0	33.8710	0	26.664	0	252.632	0	98.4	4	32.5	4	-1E+10	1	-1E+10	1	-1E+10	1	-1E+10	1	-1E+10	1	-1E+10	1
4902551	118	C	11/21/2023	21:56	-130.915	46.829	0	256.10	0	5.9950	0	33.8710	0	26.664	0	253.821	0	98.0	4	32.4	4	-1E+10	1	-1E+10	1	-1E+10	1	-1E+10	1	-1E+10	1	-1E+10	1
4902551	118	C	11/21/2023	21:56	-130.915	46.829	0	257.20	0	5.9880	0	33.8720	0	26.666	0	254.910	0	97.7	4	32.3	4	-1E+10	1	-1E+10	1	-1E+10	1	-1E+10	1	-1E+10	1	-1E+10	1
4902551	118	C	11/21/2023	21:56	-130.915	46.829	0	258.30	0	5.9830	0	33.8730	0	26.667	0	256.000	0	97.4	4	32.2	4	-1E+10	1	-1E+10	1	-1E+10	1	-1E+10	1	-1E+10	1	-1E+10	1
4902551	118	C	11/21/2023	21:56	-130.915	46.829	0	259.50	0	5.9770	0	33.8730	0	26.668	0	257.189	0	97.0	4	32.0	4	-1E+10	1	-1E+10	1	-1E+10	1	-1E+10	1	-1E+10	1	-1E+10	1
4902551	118	C	11/21/2023	21:56	-130.915	46.829	0	260.60	0	5.9690	0	33.8750	0	26.670	0	258.278	0	96.7	4	31.9	4	-1E+10	1	-1E+10	1	-1E+10	1	-1E+10	1	-1E+10	1	-1E+10	1
4902551	118	C	11/21/2023	21:56	-130.915	46.829	0	261.80	0	5.9630	0	33.8730	0	26.670	0	259.467	0	96.4	4	31.8	4	-1E+10	1	-1E+10	1	-1E+10	1	-1E+10	1	-1E+10	1	-1E+10	1
4902551	118	C	11/21/2023	21:56	-130.915	46.829	0	262.90	0	5.9590	0	33.8740	0	26.671	0	260.556	0	96.0	4	31.7	4	-1E+10	1	-1E+10	1	-1E+10	1	-1E+10	1	-1E+10	1	-1E+10	1
4902551	118	C	11/21/2023	21:56	-130.915	46.829	0	264.10	0	5.9540	0	33.8740	0	26.672	0	261.745	0	95.6	4	31.5	4	-1E+10	1	-1E+10	1	-1E+10	1	-1E+10	1	-1E+10	1	-1E+10	1
4902551	118	C	11/21/2023	21:56	-130.915	46.829	0	265.20	0	5.9470	0	33.8760	0	26.674	0	262.834	0	95.2	4	31.4	4	-1E+10	1	-1E+10	1	-1E+10	1	-1E+10	1	-1E+10	1	-1E+10	1
4902551	118	C	11/21/2023	21:56	-130.915	46.829	0	266.40	0	5.9320	0	33.8760	0	26.676	0	264.023	0	94.8	4	31.3	4	-1E+10	1	-1E+10	1	-1E+10	1	-1E+10	1	-1E+10	1	-1E+10	1
4902551	118	C	11/21/2023	21:56	-130.915	46.829	0	267.60	0	5.9300	0	33.8770	0	26.677	0	265.211	0	94.4	4	31.1	4	-1E+10	1	-1E+10	1	-1E+10	1	-1E+10	1	-1E+10	1	-1E+10	1
4902551	118	C	11/21/2023	21:56	-130.915	46.829	0	268.80	0	5.9210	0	33.8780	0	26.679	0	266.400	0	94.0	4	31.0	4	-1E+10	1	-1E+10	1	-1E+10	1	-1E+10	1	-1E+10	1	-1E+10	1
4902551	118	C	11/21/2023	21:56	-130.915	46.829	0	270.00	0	5.9180	0	33.8780	0	26.679	0	267.588	0	93.6	4	30.9	4	-1E+10	1	-1E+10	1	-1E+10	1	-1E+10	1	-1E+10	1	-1E+10	1
4902551	118	C	11/21/2023	21:56	-130.915	46.829	0	271.10	0	5.9120	0	33.8780	0	26.680	0	268.678	0	93.2	4	30.7	4	-1E+10	1	-1E+10	1	-1E+10	1	-1E+10	1	-1E+10	1	-1E+10	1
4902551	118	C	11/21/2023	21:56	-130.915	46.829	0	272.30	0	5.8950	0	33.8800	0	26.684	0	269.866	0	92.8	4	30.6	4	-1E+10	1	-1E+10	1	-1E+10	1	-1E+10	1	-1E+10	1	-1E+10	1
4902551	118	C	11/21/2023	21:56	-130.915	46.829	0	273.50	0	5.8900	0	33.8810	0	26.685	0	271.055	0	92.3	4	30.4	4	-1E+10	1	-1E+10	1	-1E+10	1	-1E+10	1	-1E+10	1	-1E+10	1
4902551	118	C	11/21/2023	21:56	-130.915	46.829	0	274.70	0	5.8860	0	33.8800	0	26.685	0	272.243	0	91.8	4	30.2	4	-1E+10	1	-1E+10	1	-1E+10	1	-1E+10	1	-1E+10	1	-1E+10	1
4902551	118	C	11/21/2023	21:56	-130.915	46.829	0	275.90	0	5.8630	0	33.8820	0	26.689	0	273.432	0	91.4	4	30.1	4	-1E+10	1	-1E+10	1	-1E+10	1	-1E+10	1	-1E+10	1	-1E+10	1
4902551	118	C	11/21/2023	21:56	-130.915	46.829	0	277.00	0	5.8570	0	33.8830	0	26.691	0	274.521	0	91.0	4	29.9	4	-1E+10	1	-1E+10	1	-1E+10	1	-1E+10	1	-1E+10	1	-1E+10	1
4902551	118	C	11/21/2023	21:56	-130.915	46.829	0	278.20	0	5.8510	0	33.8840	0	26.692	0	275.710	0	90.5	4	29.8	4	-1E+10	1	-1E+10	1	-1E+10	1	-1E+10	1	-1E+10	1	-1E+10	1
4902551	118	C	11/21/2023	21:56	-130.915	46.829	0	279.30	0	5.8380	0	33.8860	0	26.696	0	276.799	0	90.1	4	29.6	4	-1E+10	1	-1E+10	1	-1E+10	1	-1E+10	1	-1E+10	1	-1E+10	1
4902551	118	C	11/21/2023	21:56	-130.915	46.829	0	280.50	0	5.8270	0	33.8880	0	26.699	0	277.987	0	89.5	4	29.4	4	-1E+10	1	-1E+10	1	-1E+10	1	-1E+10	1	-1E+10	1	-1E+10	1
4902551	118	C	11/21/2023	21:56	-130.915	46.829	0	281.60	0	5.8870	0	33.9010	0	26.701	0	279.077	0	89.0	4	29.3	4	-1E+10	1	-1E+10	1	-1E+10	1	-1E+10	1	-1E+10	1	-1E+10	1
4902551	118	C	11/21/2023	21:56	-130.915	46.829	0	282.80	0	5.9390	0	33.9050	0	26.698	0	280.265	0	88.6	4	29.2	4	-1E+10	1	-1E+10	1	-1E+10	1	-1E+10	1	-1E+10	1	-1E+10	1
4902551	118	C	11/21/2023	21:56	-130.915	46.829	0	283.90	0	5.9630	0	33.9160	0	26.704	0	281.355	0	88.4	4	29.2	4	-1E+10	1	-1E+10	1	-1E+10	1	-1E+10	1	-1E+10	1	-1E+10	1
4902551	118	C	11/21/2023	21:56	-130.915	46.829	0	285.10	0	5.9750	0	33.9140	0	26.701	0	282.543	0	88.2	4	29.1	4	-1E+10	1	-1E+10	1	-1E+10	1	-1E+10	1	-1E+10	1	-1E+10	1
4902551	118	C	11/21/2023	21:56	-130.915	46.829	0	286.20	0	5.9920	0	33.9180	0	26.702	0	283.632	0	88.1	4	29.1	4	-1E+10	1	-1E+10	1	-1E+10	1	-1E+10	1	-1E+10	1	-1E+10	1
4902551	118	C	11/21/2023	21:56	-130.915	46.829	0	287.40	0	5.9950	0	33.9210	0	26.704	0	284.821	0	88.0	4	29.1	4	-1E+10	1	-1E+10	1	-1E+10	1	-1E+10	1	-1E+10	1	-1E+10	1
4902551	118	C	11/21/2023	21:56	-130.915	46.829	0	288.50	0	5.9930	0	33.9210	0	26.704	0	285.910	0	88.0	4	29.1	4	-1E+10	1	-1E+10	1	-1E+10	1	-1E+10	1	-1E+10	1	-1E+10	1
4902551	118	C	11/21/2023	21:56	-130.915	46.829	0	289.70	0	5.9820	0	33.9200	0	26.705	0	287.099	0	87.9	4	29.0	4	-1E+10	1	-1E+10	1	-1E+10	1	-1E+10	1	-1E+10	1	-1E+10	1
4902551	118	C	11/21/2023	21:56	-130.915	46.829	0	290.80	0	5.9750	0	33.9200	0	26.706	0	288.188	0	87.9	4	29.0	4	-1E+10	1	-1E+10	1	-1E+10	1	-1E+10	1	-1E+10	1	-1E+10	1
4902551	118	C	11/21/2023	21:56	-130.915	46.829	0	291.90	0	5.9700	0	33.9190	0	26.705	0	289.277	0	87.8	4	29.0	4	-1E+10	1	-1E+10	1	-1E+10	1	-1E+10	1	-1E+10	1	-1E+10	1
4902551	118	C	11/21/2023	21:56	-130.915	46.829	0	293.10	0	5.9660	0	33.9180	0	26.705	0	290.466	0	87.7	4	28.9	4	-1E+10	1	-1E+10	1	-1E+10	1	-1E+10	1	-1E+10	1	-1E+10	1
4902551	118	C	11/21/2023	21:56	-130.915	46.829	0	294.20	0	5.9600	0	33.9180	0	26.706	0	291.555	0	87.5	4	28.9	4	-1E+10	1	-1E+10	1	-1E+10	1	-1E+10	1	-1E+10	1	-1E+10	1
4902551	118	C	11/21/2023	21:56	-130.915	46.829	0	295.30	0	5.9530	0	33.9150	0	26.704	0	292.644	0	87.4	4	28.8	4	-1E+10	1	-1E+10	1	-1E+10	1	-1E+10	1	-1E+10	1	-1E+10	1
4902551	118	C	11/21/2023	21:56	-130.915	46.829	0	296.50	0	5.9390	0	33.9150	0	26.706	0	293.833	0	87.2	4	28.8	4	-1E+10	1	-1E+10	1	-1E+10	1	-1E+10	1	-1E+10	1	-1E+10	1
4902551	118	C	11/21/2023	21:56	-130.915	46.829	0	297.60	0	5.9300	0	33.9140	0	26.707	0	294.922	0	87.0	4	28.7	4	-1E+10	1	-1E+10	1	-1E+10	1	-1E+10	1	-1E+10	1	-1E+10	1
4902551	118	C	11/21/2023	21:56	-130.915	46.829	0	298.70	0	5.8900	0	33.9190	0	26.715	0	296.011	0	86.9	4	28.7	4	-1E+10	1	-1E+10	1	-1E+10	1	-1E+10	1	-1E+10	1	-1E+10	1
4902551	118	C	11/21/2023	21:56	-130.915	46.829	0	299.90	0	5.8410	0	33.9110	0	26.715	0	297.200	0	86.7	4	28.6	4	-1E+10	1	-1E+10	1	-1E+10	1	-1E+10	1	-1E+10	1	-1E+10	1
4902551	118	C	11/21/2023	21:56	-130.915	46.829	0	301.00	0	5.8050	0	33.9120	0	26.720	0	298.289	0	86.4	4	28.4	4	-1E+10	1	-1E+10	1	-1E+10	1	-1E+10	1	-1E+10	1	-1E+10	1
4902551	118	C	11/21/2023	21:56	-130.915	46.829	0	302.10	0	5.7520	0	33.9060	0	26.722	0	299.378	0	85.9	4	28.2	4	-1E+10	1	-1E+10	1	-1E+10	1	-1E+10	1	-1E+10	1	-1E+10	1
4902551	118	C	11/21/2023	21:56	-130.915	46.829	0	303.20	0	5.7370	0	33.9090	0	26.726	0	300.468	0	85.6	4	28.1	4	-1E+10	1	-1E+10	1	-1E+10	1	-1E+10	1	-1E+10	1	-1E+10	1
4902551	118	C	11/21/2023	21:56	-130.915	46.829	0	304.40	0	5.7360	0	33.9130	0	26.730	0	301.656	0	85.3	4	28.0	4	-1E+10	1	-1E+10	1	-1E+10	1	-1E+10	1	-1E+10	1	-1E+10	1
4902551	118	C	11/21/2023	21:56	-130.915	46.829	0	305.50	0	5.7300	0	33.9130	0	26.730	0	302.745	0	85.0	4	27.9	4	-1E+10	1	-1E+10	1	-1E+10	1	-1E+10	1	-1E+10	1	-1E+10	1
4902551	118	C	11/21/2023	21:56	-130.915	46.829	0	306.70	0	5.7230	0	33.9140	0	26.732	0	303.933	0	84.8	4	27.8	4	-1E+10	1	-1E+10	1	-1E+10	1	-1E+10	1	-1E+10	1	-1E+10	1
4902551	118	C	11/21/2023	21:56	-130.915	46.829	0	307.80	0	5.7140	0	33.9160	0	26.735	0	305.023	0	84.7	4	27.8	4	-1E+10	1	-1E+10	1	-1E+10	1	-1E+10	1	-1E+10	1	-1E+10	1
4902551	118	C	11/21/2023	21:56	-130.915	46.829	0	309.00	0	5.7060	0	33.9140	0	26.734	0	306.211	0	84.5	4	27.7	4	-1E+10	1	-1E+10	1	-1E+10	1	-1E+10	1	-1E+10	1	-1E+10	1
4902551	118	C	11/21/2023	21:56	-130.915	46.829	0	310.10	0	5.7000	0	33.9140	0	26.735	0	307.300	0	84.3	4	27.6	4	-1E+10	1	-1E+10	1	-1E+10	1	-1E+10	1	-1E+10	1	-1E+10	1
4902551	118	C	11/21/2023	21:56	-130.915	46.829	0	311.20	0	5.6840	0	33.9160	0	26.738	0	308.390	0	84.1	4	27.6	4	-1E+10	1	-1E+10	1	-1E+10	1	-1E+10	1	-1E+10	1	-1E+10	1
4902551	118	C	11/21/2023	21:56	-130.915	46.829	0	312.40	0	5.6690	0	33.9130	0	26.738	0	309.578	0	83.8	4	27.5	4	-1E+10	1	-1E+10	1	-1E+10	1	-1E+10	1	-1E+10	1	-1E+10	1
4902551	118	C	11/21/2023	21:56	-130.915	46.829	0	313.50	0	5.6540	0	33.9140	0	26.741	0	310.667	0	83.5	4	27.4	4	-1E+10	1	-1E+10	1	-1E+10	1	-1E+10	1	-1E+10	1	-1E+10	1
4902551	118	C	11/21/2023	21:56	-130.915	46.829	0	314.60	0	5.6440	0	33.9110	0	26.739	0	311.756	0	83.3	4	27.3	4	-1E+10	1	-1E+10	1	-1E+10	1	-1E+10	1	-1E+10	1	-1E+10	1
4902551	118	C	11/21/2023	21:56	-130.915	46.829	0	315.80	0	5.6450	0	33.9120	0	26.740	0	312.945	0	82.9	4	27.2	4	-1E+10	1	-1E+10	1	-1E+10	1	-1E+10	1	-1E+10	1	-1E+10	1
4902551	118	C	11/21/2023	21:56	-130.915	46.829	0	316.90	0	5.6450	0	33.9110	0	26.739	0	314.034	0	82.5	4	27.0	4	-1E+10	1	-1E+10	1	-1E+10	1	-1E+10	1	-1E+10	1	-1E+10	1
4902551	118	C	11/21/2023	21:56	-130.915	46.829	0	318.00	0	5.6330	0	33.9120	0	26.742	0	315.123	0	82.2	4	26.9	4	-1E+10	1	-1E+10	1	-1E+10	1	-1E+10	1	-1E+10	1	-1E+10	1
4902551	118	C	11/21/2023	21:56	-130.915	46.829	0	319.10	0	5.6210	0	33.9120	0	26.743	0	316.212	0	81.7	4	26.8	4	-1E+10	1	-1E+10	1	-1E+10	1	-1E+10	1	-1E+10	1	-1E+10	1
4902551	118	C	11/21/2023	21:56	-130.915	46.829	0	320.30	0	5.6070	0	33.9110	0	26.744	0	317.400	0	81.3	4	26.6	4	-1E+10	1	-1E+10	1	-1E+10	1	-1E+10	1	-1E+10	1	-1E+10	1
4902551	118	C	11/21/2023	21:56	-130.915	46.829	0	321.40	0	5.5790	0	33.9150	0	26.750	0	318.490	0	80.8	4	26.4	4	-1E+10	1	-1E+10	1	-1E+10	1	-1E+10	1	-1E+10	1	-1E+10	1
4902551	118	C	11/21/2023	21:56	-130.915	46.829	0	322.50	0	5.5780	0	33.9140	0	26.750	0	319.579	0	80.5	4	26.3	4	-1E+10	1	-1E+10	1	-1E+10	1	-1E+10	1	-1E+10	1	-1E+10	1
4902551	118	C	11/21/2023	21:56	-130.915	46.829	0	323.60	0	5.5790	0	33.9150	0	26.750	0	320.668	0	80.0	4	26.2	4	-1E+10	1	-1E+10	1	-1E+10	1	-1E+10	1	-1E+10	1	-1E+10	1
4902551	118	C	11/21/2023	21:56	-130.915	46.829	0	324.70	0	5.5700	0	33.9210	0	26.756	0	321.757	0	79.6	4	26.0	4	-1E+10	1	-1E+10	1	-1E+10	1	-1E+10	1	-1E+10	1	-1E+10	1
4902551	118	C	11/21/2023	21:56	-130.915	46.829	0	325.70	0	5.5690	0	33.9210	0	26.756	0	322.747	0	79.2	4	25.9	4	-1E+10	1	-1E+10	1	-1E+10	1	-1E+10	1	-1E+10	1	-1E+10	1
4902551	118	C	11/21/2023	21:56	-130.915	46.829	0	326.70	0	5.5720	0	33.9190	0	26.755	0	323.737	0	78.8	4	25.8	4	-1E+10	1	-1E+10	1	-1E+10	1	-1E+10	1	-1E+10	1	-1E+10	1
4902551	118	C	11/21/2023	21:56	-130.915	46.829	0	327.80	0	5.5680	0	33.9210	0	26.757	0	324.827	0	78.3	4	25.6	4	-1E+10	1	-1E+10	1	-1E+10	1	-1E+10	1	-1E+10	1	-1E+10	1
4902551	118	C	11/21/2023	21:56	-130.915	46.829	0	328.80	0	5.5690	0	33.9210	0	26.756	0	325.817	0	77.8	4	25.5	4	-1E+10	1	-1E+10	1	-1E+10	1	-1E+10	1	-1E+10	1	-1E+10	1
4902551	118	C	11/21/2023	21:56	-130.915	46.829	0	329.90	0	5.5690	0	33.9210	0	26.756	0	326.906	0	77.3	4	25.3	4	-1E+10	1	-1E+10	1	-1E+10	1	-1E+10	1	-1E+10	1	-1E+10	1
4902551	118	C	11/21/2023	21:56	-130.915	46.829	0	331.00	0	5.5710	0	33.9210	0	26.756	0	327.995	0	76.7	4	25.1	4	-1E+10	1	-1E+10	1	-1E+10	1	-1E+10	1	-1E+10	1	-1E+10	1
4902551	118	C	11/21/2023	21:56	-130.915	46.829	0	332.10	0	5.5870	0	33.9300	0	26.761	0	329.084	0	76.2	4	24.9	4	-1E+10	1	-1E+10	1	-1E+10	1	-1E+10	1	-1E+10	1	-1E+10	1
4902551	118	C	11/21/2023	21:56	-130.915	46.829	0	333.20	0	5.5720	0	33.9270	0	26.761	0	330.173	0	75.9	4	24.8	4	-1E+10	1	-1E+10	1	-1E+10	1	-1E+10	1	-1E+10	1	-1E+10	1
4902551	118	C	11/21/2023	21:56	-130.915	46.829	0	334.30	0	5.5410	0	33.9290	0	26.766	0	331.262	0	75.7	4	24.8	4	-1E+10	1	-1E+10	1	-1E+10	1	-1E+10	1	-1E+10	1	-1E+10	1
4902551	118	C	11/21/2023	21:56	-130.915	46.829	0	335.40	0	5.5000	0	33.9320	0	26.773	0	332.352	0	75.4	4	24.6	4	-1E+10	1	-1E+10	1	-1E+10	1	-1E+10	1	-1E+10	1	-1E+10	1
4902551	118	C	11/21/2023	21:56	-130.915	46.829	0	336.50	0	5.4850	0	33.9270	0	26.771	0	333.441	0	75.0	4	24.5	4	-1E+10	1	-1E+10	1	-1E+10	1	-1E+10	1	-1E+10	1	-1E+10	1
4902551	118	C	11/21/2023	21:56	-130.915	46.829	0	337.60	0	5.4650	0	33.9250	0	26.772	0	334.530	0	74.7	4	24.4	4	-1E+10	1	-1E+10	1	-1E+10	1	-1E+10	1	-1E+10	1	-1E+10	1
4902551	118	C	11/21/2023	21:56	-130.915	46.829	0	338.70	0	5.4520	0	33.9290	0	26.777	0	335.619	0	74.3	4	24.2	4	-1E+10	1	-1E+10	1	-1E+10	1	-1E+10	1	-1E+10	1	-1E+10	1
4902551	118	C	11/21/2023	21:56	-130.915	46.829	0	339.80	0	5.4360	0	33.9220	0	26.773	0	336.708	0	73.8	4	24.1	4	-1E+10	1	-1E+10	1	-1E+10	1	-1E+10	1	-1E+10	1	-1E+10	1
4902551	118	C	11/21/2023	21:56	-130.915	46.829	0	340.90	0	5.3860	0	33.9290	0	26.785	0	337.797	0	73.5	4	23.9	4	-1E+10	1	-1E+10	1	-1E+10	1	-1E+10	1	-1E+10	1	-1E+10	1
4902551	118	C	11/21/2023	21:56	-130.915	46.829	0	342.00	0	5.3540	0	33.9230	0	26.784	0	338.886	0	73.3	4	23.8	4	-1E+10	1	-1E+10	1	-1E+10	1	-1E+10	1	-1E+10	1	-1E+10	1
4902551	118	C	11/21/2023	21:56	-130.915	46.829	0	343.10	0	5.3350	0	33.9230	0	26.786	0	339.975	0	73.0	4	23.8	4	-1E+10	1	-1E+10	1	-1E+10	1	-1E+10	1	-1E+10	1	-1E+10	1
4902551	118	C	11/21/2023	21:56	-130.915	46.829	0	344.20	0	5.3320	0	33.9230	0	26.786	0	341.064	0	72.8	4	23.7	4	-1E+10	1	-1E+10	1	-1E+10	1	-1E+10	1	-1E+10	1	-1E+10	1
4902551	118	C	11/21/2023	21:56	-130.915	46.829	0	345.20	0	5.3310	0	33.9250	0	26.788	0	342.054	0	72.5	4	23.6	4	-1E+10	1	-1E+10	1	-1E+10	1	-1E+10	1	-1E+10	1	-1E+10	1
4902551	118	C	11/21/2023	21:56	-130.915	46.829	0	346.30	0	5.3270	0	33.9240	0	26.788	0	343.143	0	72.1	4	23.5	4	-1E+10	1	-1E+10	1	-1E+10	1	-1E+10	1	-1E+10	1	-1E+10	1
4902551	118	C	11/21/2023	21:56	-130.915	46.829	0	347.50	0	5.3210	0	33.9250	0	26.789	0	344.332	0	71.8	4	23.4	4	-1E+10	1	-1E+10	1	-1E+10	1	-1E+10	1	-1E+10	1	-1E+10	1
4902551	118	C	11/21/2023	21:56	-130.915	46.829	0	348.50	0	5.3200	0	33.9250	0	26.789	0	345.322	0	71.5	4	23.3	4	-1E+10	1	-1E+10	1	-1E+10	1	-1E+10	1	-1E+10	1	-1E+10	1
4902551	118	C	11/21/2023	21:56	-130.915	46.829	0	349.60	0	5.3200	0	33.9280	0	26.792	0	346.411	0	71.2	4	23.2	4	-1E+10	1	-1E+10	1	-1E+10	1	-1E+10	1	-1E+10	1	-1E+10	1
4902551	118	C	11/21/2023	21:56	-130.915	46.829	0	352.90	0	5.3200	0	33.9270	0	26.791	0	349.678	0	70.0	4	22.8	4	-1E+10	1	-1E+10	1	-1E+10	1	-1E+10	1	-1E+10	1	-1E+10	1
4902551	118	C	11/21/2023	21:56	-130.915	46.829	0	357.70	0	5.2300	0	33.9270	0	26.801	0	354.430	0	68.4	4	22.2	4	-1E+10	1	-1E+10	1	-1E+10	1	-1E+10	1	-1E+10	1	-1E+10	1
4902551	118	C	11/21/2023	21:56	-130.915	46.829	0	362.60	0	5.1880	0	33.9260	0	26.806	0	359.281	0	66.5	4	21.5	4	-1E+10	1	-1E+10	1	-1E+10	1	-1E+10	1	-1E+10	1	-1E+10	1
4902551	118	C	11/21/2023	21:56	-130.915	46.829	0	367.90	0	5.1640	0	33.9340	0	26.815	0	364.528	0	63.9	4	20.7	4	-1E+10	1	-1E+10	1	-1E+10	1	-1E+10	1	-1E+10	1	-1E+10	1
4902551	118	C	11/21/2023	21:56	-130.915	46.829	0	373.20	0	5.1340	0	33.9390	0	26.822	0	369.774	0	60.9	4	19.7	4	-1E+10	1	-1E+10	1	-1E+10	1	-1E+10	1	-1E+10	1	-1E+10	1
4902551	118	C	11/21/2023	21:56	-130.915	46.829	0	378.00	0	5.0900	0	33.9470	0	26.834	0	374.526	0	57.4	4	18.6	4	-1E+10	1	-1E+10	1	-1E+10	1	-1E+10	1	-1E+10	1	-1E+10	1
4902551	118	C	11/21/2023	21:56	-130.915	46.829	0	382.90	0	5.0420	0	33.9620	0	26.851	0	379.376	0	54.7	4	17.7	4	-1E+10	1	-1E+10	1	-1E+10	1	-1E+10	1	-1E+10	1	-1E+10	1
4902551	118	C	11/21/2023	21:56	-130.915	46.829	0	388.10	0	5.0260	0	33.9700	0	26.859	0	384.524	0	53.1	4	17.2	4	-1E+10	1	-1E+10	1	-1E+10	1	-1E+10	1	-1E+10	1	-1E+10	1
4902551	118	C	11/21/2023	21:56	-130.915	46.829	0	392.90	0	5.0150	0	33.9740	0	26.864	0	389.275	0	51.5	4	16.6	4	-1E+10	1	-1E+10	1	-1E+10	1	-1E+10	1	-1E+10	1	-1E+10	1
4902551	118	C	11/21/2023	21:56	-130.915	46.829	0	397.80	0	4.9940	0	33.9800	0	26.871	0	394.125	0	49.8	4	16.1	4	-1E+10	1	-1E+10	1	-1E+10	1	-1E+10	1	-1E+10	1	-1E+10	1
4902551	118	C	11/21/2023	21:56	-130.915	46.829	0	402.90	0	4.9700	0	33.9870	0	26.879	0	399.173	0	48.4	4	15.6	4	-1E+10	1	-1E+10	1	-1E+10	1	-1E+10	1	-1E+10	1	-1E+10	1
4902551	118	C	11/21/2023	21:56	-130.915	46.829	0	407.50	0	4.9480	0	33.9900	0	26.884	0	403.726	0	47.0	4	15.2	4	-1E+10	1	-1E+10	1	-1E+10	1	-1E+10	1	-1E+10	1	-1E+10	1
4902551	118	C	11/21/2023	21:56	-130.915	46.829	0	412.80	0	4.9260	0	33.9970	0	26.892	0	408.972	0	45.5	4	14.7	4	-1E+10	1	-1E+10	1	-1E+10	1	-1E+10	1	-1E+10	1	-1E+10	1
4902551	118	C	11/21/2023	21:56	-130.915	46.829	0	418.00	0	4.9070	0	34.0030	0	26.899	0	414.118	0	44.0	4	14.2	4	-1E+10	1	-1E+10	1	-1E+10	1	-1E+10	1	-1E+10	1	-1E+10	1
4902551	118	C	11/21/2023	21:56	-130.915	46.829	0	422.70	0	4.8890	0	34.0070	0	26.904	0	418.770	0	42.6	4	13.7	4	-1E+10	1	-1E+10	1	-1E+10	1	-1E+10	1	-1E+10	1	-1E+10	1
4902551	118	C	11/21/2023	21:56	-130.915	46.829	0	427.60	0	4.8520	0	34.0140	0	26.914	0	423.619	0	40.9	4	13.2	4	-1E+10	1	-1E+10	1	-1E+10	1	-1E+10	1	-1E+10	1	-1E+10	1
4902551	118	C	11/21/2023	21:56	-130.915	46.829	0	432.50	0	4.8120	0	34.0230	0	26.926	0	428.469	0	39.8	4	12.8	4	-1E+10	1	-1E+10	1	-1E+10	1	-1E+10	1	-1E+10	1	-1E+10	1
4902551	118	C	11/21/2023	21:56	-130.915	46.829	0	437.90	0	4.7930	0	34.0270	0	26.931	0	433.813	0	38.8	4	12.5	4	-1E+10	1	-1E+10	1	-1E+10	1	-1E+10	1	-1E+10	1	-1E+10	1
4902551	118	C	11/21/2023	21:56	-130.915	46.829	0	442.90	0	4.7710	0	34.0320	0	26.938	0	438.761	0	37.6	4	12.1	4	-1E+10	1	-1E+10	1	-1E+10	1	-1E+10	1	-1E+10	1	-1E+10	1
4902551	118	C	11/21/2023	21:56	-130.915	46.829	0	447.60	0	4.7500	0	34.0370	0	26.944	0	443.412	0	36.7	4	11.8	4	-1E+10	1	-1E+10	1	-1E+10	1	-1E+10	1	-1E+10	1	-1E+10	1
4902551	118	C	11/21/2023	21:56	-130.915	46.829	0	452.80	0	4.7300	0	34.0420	0	26.950	0	448.558	0	36.1	4	11.6	4	-1E+10	1	-1E+10	1	-1E+10	1	-1E+10	1	-1E+10	1	-1E+10	1
4902551	118	C	11/21/2023	21:56	-130.915	46.829	0	458.10	0	4.7170	0	34.0450	0	26.954	0	453.802	0	35.6	4	11.4	4	-1E+10	1	-1E+10	1	-1E+10	1	-1E+10	1	-1E+10	1	-1E+10	1
4902551	118	C	11/21/2023	21:56	-130.915	46.829	0	463.30	0	4.7090	0	34.0470	0	26.956	0	458.948	0	35.1	4	11.3	4	-1E+10	1	-1E+10	1	-1E+10	1	-1E+10	1	-1E+10	1	-1E+10	1
4902551	118	C	11/21/2023	21:56	-130.915	46.829	0	468.10	0	4.7090	0	34.0480	0	26.957	0	463.697	0	34.4	4	11.0	4	-1E+10	1	-1E+10	1	-1E+10	1	-1E+10	1	-1E+10	1	-1E+10	1
4902551	118	C	11/21/2023	21:56	-130.915	46.829	0	473.00	0	4.7050	0	34.0510	0	26.960	0	468.546	0	33.3	4	10.7	4	-1E+10	1	-1E+10	1	-1E+10	1	-1E+10	1	-1E+10	1	-1E+10	1
4902551	118	C	11/21/2023	21:56	-130.915	46.829	0	478.00	0	4.7000	0	34.0590	0	26.967	0	473.493	0	32.0	4	10.3	4	-1E+10	1	-1E+10	1	-1E+10	1	-1E+10	1	-1E+10	1	-1E+10	1
4902551	118	C	11/21/2023	21:56	-130.915	46.829	0	482.80	0	4.6910	0	34.0640	0	26.972	0	478.242	0	30.8	4	9.9	4	-1E+10	1	-1E+10	1	-1E+10	1	-1E+10	1	-1E+10	1	-1E+10	1
4902551	118	C	11/21/2023	21:56	-130.915	46.829	0	487.80	0	4.6920	0	34.0750	0	26.981	0	483.189	0	29.7	4	9.5	4	-1E+10	1	-1E+10	1	-1E+10	1	-1E+10	1	-1E+10	1	-1E+10	1
4902551	118	C	11/21/2023	21:56	-130.915	46.829	0	492.90	0	4.6870	0	34.0820	0	26.987	0	488.235	0	28.9	4	9.3	4	-1E+10	1	-1E+10	1	-1E+10	1	-1E+10	1	-1E+10	1	-1E+10	1
4902551	118	C	11/21/2023	21:56	-130.915	46.829	0	497.80	0	4.6560	0	34.0840	0	26.992	0	493.083	0	28.3	4	9.1	4	-1E+10	1	-1E+10	1	-1E+10	1	-1E+10	1	-1E+10	1	-1E+10	1
4902551	118	C	11/21/2023	21:56	-130.915	46.829	0	502.80	0	4.6300	0	34.0870	0	26.997	0	498.029	0	27.8	4	8.9	4	-1E+10	1	-1E+10	1	-1E+10	1	-1E+10	1	-1E+10	1	-1E+10	1
4902551	118	C	11/21/2023	21:56	-130.915	46.829	0	508.20	0	4.6190	0	34.0900	0	27.001	0	503.372	0	27.1	4	8.7	4	-1E+10	1	-1E+10	1	-1E+10	1	-1E+10	1	-1E+10	1	-1E+10	1
4902551	118	C	11/21/2023	21:56	-130.915	46.829	0	513.00	0	4.6130	0	34.0940	0	27.005	0	508.120	0	26.4	4	8.4	4	-1E+10	1	-1E+10	1	-1E+10	1	-1E+10	1	-1E+10	1	-1E+10	1
4902551	118	C	11/21/2023	21:56	-130.915	46.829	0	517.80	0	4.6010	0	34.0980	0	27.009	0	512.868	0	25.8	4	8.3	4	-1E+10	1	-1E+10	1	-1E+10	1	-1E+10	1	-1E+10	1	-1E+10	1
4902551	118	C	11/21/2023	21:56	-130.915	46.829	0	523.10	0	4.5810	0	34.0990	0	27.012	0	518.111	0	25.3	4	8.1	4	-1E+10	1	-1E+10	1	-1E+10	1	-1E+10	1	-1E+10	1	-1E+10	1
4902551	118	C	11/21/2023	21:56	-130.915	46.829	0	527.90	0	4.5560	0	34.1010	0	27.017	0	522.860	0	24.8	4	7.9	4	-1E+10	1	-1E+10	1	-1E+10	1	-1E+10	1	-1E+10	1	-1E+10	1
4902551	118	C	11/21/2023	21:56	-130.915	46.829	0	532.70	0	4.5360	0	34.1030	0	27.020	0	527.608	0	24.3	4	7.8	4	-1E+10	1	-1E+10	1	-1E+10	1	-1E+10	1	-1E+10	1	-1E+10	1
4902551	118	C	11/21/2023	21:56	-130.915	46.829	0	538.00	0	4.5230	0	34.1070	0	27.025	0	532.850	0	23.8	4	7.6	4	-1E+10	1	-1E+10	1	-1E+10	1	-1E+10	1	-1E+10	1	-1E+10	1
4902551	118	C	11/21/2023	21:56	-130.915	46.829	0	542.90	0	4.5170	0	34.1090	0	27.027	0	537.697	0	23.3	4	7.4	4	-1E+10	1	-1E+10	1	-1E+10	1	-1E+10	1	-1E+10	1	-1E+10	1
4902551	118	C	11/21/2023	21:56	-130.915	46.829	0	547.60	0	4.5090	0	34.1110	0	27.030	0	542.346	0	22.6	4	7.2	4	-1E+10	1	-1E+10	1	-1E+10	1	-1E+10	1	-1E+10	1	-1E+10	1
4902551	118	C	11/21/2023	21:56	-130.915	46.829	0	552.90	0	4.4910	0	34.1180	0	27.037	0	547.588	0	21.9	4	7.0	4	-1E+10	1	-1E+10	1	-1E+10	1	-1E+10	1	-1E+10	1	-1E+10	1
4902551	118	C	11/21/2023	21:56	-130.915	46.829	0	558.10	0	4.4750	0	34.1220	0	27.042	0	552.731	0	21.3	4	6.8	4	-1E+10	1	-1E+10	1	-1E+10	1	-1E+10	1	-1E+10	1	-1E+10	1
4902551	118	C	11/21/2023	21:56	-130.915	46.829	0	563.00	0	4.4680	0	34.1270	0	27.047	0	557.577	0	20.9	4	6.7	4	-1E+10	1	-1E+10	1	-1E+10	1	-1E+10	1	-1E+10	1	-1E+10	1
4902551	118	C	11/21/2023	21:56	-130.915	46.829	0	567.90	0	4.4490	0	34.1290	0	27.051	0	562.424	0	20.5	4	6.5	4	-1E+10	1	-1E+10	1	-1E+10	1	-1E+10	1	-1E+10	1	-1E+10	1
4902551	118	C	11/21/2023	21:56	-130.915	46.829	0	572.90	0	4.4310	0	34.1330	0	27.056	0	567.369	0	20.1	4	6.4	4	-1E+10	1	-1E+10	1	-1E+10	1	-1E+10	1	-1E+10	1	-1E+10	1
4902551	118	C	11/21/2023	21:56	-130.915	46.829	0	577.90	0	4.4190	0	34.1350	0	27.059	0	572.313	0	19.7	4	6.3	4	-1E+10	1	-1E+10	1	-1E+10	1	-1E+10	1	-1E+10	1	-1E+10	1
4902551	118	C	11/21/2023	21:56	-130.915	46.829	0	583.00	0	4.4060	0	34.1380	0	27.063	0	577.357	0	19.2	4	6.1	4	-1E+10	1	-1E+10	1	-1E+10	1	-1E+10	1	-1E+10	1	-1E+10	1
4902551	118	C	11/21/2023	21:56	-130.915	46.829	0	588.10	0	4.3710	0	34.1420	0	27.070	0	582.400	0	18.7	4	6.0	4	-1E+10	1	-1E+10	1	-1E+10	1	-1E+10	1	-1E+10	1	-1E+10	1
4902551	118	C	11/21/2023	21:56	-130.915	46.829	0	593.10	0	4.3560	0	34.1470	0	27.075	0	587.345	0	18.2	4	5.8	4	-1E+10	1	-1E+10	1	-1E+10	1	-1E+10	1	-1E+10	1	-1E+10	1
4902551	118	C	11/21/2023	21:56	-130.915	46.829	0	597.70	0	4.3410	0	34.1520	0	27.081	0	591.894	0	17.8	4	5.7	4	-1E+10	1	-1E+10	1	-1E+10	1	-1E+10	1	-1E+10	1	-1E+10	1
4902551	118	C	11/21/2023	21:56	-130.915	46.829	0	602.90	0	4.3280	0	34.1550	0	27.085	0	597.036	0	17.5	4	5.6	4	-1E+10	1	-1E+10	1	-1E+10	1	-1E+10	1	-1E+10	1	-1E+10	1
4902551	118	C	11/21/2023	21:56	-130.915	46.829	0	608.10	0	4.2990	0	34.1580	0	27.090	0	602.178	0	17.2	4	5.5	4	-1E+10	1	-1E+10	1	-1E+10	1	-1E+10	1	-1E+10	1	-1E+10	1
4902551	118	C	11/21/2023	21:56	-130.915	46.829	0	612.90	0	4.2730	0	34.1620	0	27.096	0	606.924	0	17.0	4	5.4	4	-1E+10	1	-1E+10	1	-1E+10	1	-1E+10	1	-1E+10	1	-1E+10	1
4902551	118	C	11/21/2023	21:56	-130.915	46.829	0	617.90	0	4.2600	0	34.1660	0	27.101	0	611.868	0	16.8	4	5.3	4	-1E+10	1	-1E+10	1	-1E+10	1	-1E+10	1	-1E+10	1	-1E+10	1
4902551	118	C	11/21/2023	21:56	-130.915	46.829	0	623.10	0	4.2420	0	34.1670	0	27.103	0	617.009	0	16.5	4	5.3	4	-1E+10	1	-1E+10	1	-1E+10	1	-1E+10	1	-1E+10	1	-1E+10	1
4902551	118	C	11/21/2023	21:56	-130.915	46.829	0	627.80	0	4.2260	0	34.1700	0	27.107	0	621.656	0	16.2	4	5.2	4	-1E+10	1	-1E+10	1	-1E+10	1	-1E+10	1	-1E+10	1	-1E+10	1
4902551	118	C	11/21/2023	21:56	-130.915	46.829	0	632.90	0	4.2070	0	34.1750	0	27.113	0	626.699	0	16.0	4	5.1	4	-1E+10	1	-1E+10	1	-1E+10	1	-1E+10	1	-1E+10	1	-1E+10	1
4902551	118	C	11/21/2023	21:56	-130.915	46.829	0	638.10	0	4.1960	0	34.1780	0	27.117	0	631.840	0	15.7	4	5.0	4	-1E+10	1	-1E+10	1	-1E+10	1	-1E+10	1	-1E+10	1	-1E+10	1
4902551	118	C	11/21/2023	21:56	-130.915	46.829	0	643.00	0	4.1850	0	34.1820	0	27.121	0	636.685	0	15.5	4	4.9	4	-1E+10	1	-1E+10	1	-1E+10	1	-1E+10	1	-1E+10	1	-1E+10	1
4902551	118	C	11/21/2023	21:56	-130.915	46.829	0	647.90	0	4.1820	0	34.1840	0	27.123	0	641.529	0	15.2	4	4.8	4	-1E+10	1	-1E+10	1	-1E+10	1	-1E+10	1	-1E+10	1	-1E+10	1
4902551	118	C	11/21/2023	21:56	-130.915	46.829	0	652.90	0	4.1760	0	34.1870	0	27.126	0	646.472	0	15.1	4	4.8	4	-1E+10	1	-1E+10	1	-1E+10	1	-1E+10	1	-1E+10	1	-1E+10	1
4902551	118	C	11/21/2023	21:56	-130.915	46.829	0	658.00	0	4.1460	0	34.1910	0	27.133	0	651.514	0	14.9	4	4.7	4	-1E+10	1	-1E+10	1	-1E+10	1	-1E+10	1	-1E+10	1	-1E+10	1
4902551	118	C	11/21/2023	21:56	-130.915	46.829	0	663.10	0	4.1400	0	34.1920	0	27.134	0	656.555	0	14.8	4	4.7	4	-1E+10	1	-1E+10	1	-1E+10	1	-1E+10	1	-1E+10	1	-1E+10	1
4902551	118	C	11/21/2023	21:56	-130.915	46.829	0	668.20	0	4.1310	0	34.1930	0	27.136	0	661.597	0	14.7	4	4.7	4	-1E+10	1	-1E+10	1	-1E+10	1	-1E+10	1	-1E+10	1	-1E+10	1
4902551	118	C	11/21/2023	21:56	-130.915	46.829	0	673.00	0	4.1240	0	34.1930	0	27.137	0	666.342	0	14.6	4	4.6	4	-1E+10	1	-1E+10	1	-1E+10	1	-1E+10	1	-1E+10	1	-1E+10	1
4902551	118	C	11/21/2023	21:56	-130.915	46.829	0	677.90	0	4.1140	0	34.1950	0	27.139	0	671.186	0	14.4	4	4.6	4	-1E+10	1	-1E+10	1	-1E+10	1	-1E+10	1	-1E+10	1	-1E+10	1
4902551	118	C	11/21/2023	21:56	-130.915	46.829	0	682.90	0	4.1010	0	34.1990	0	27.144	0	676.128	0	14.2	4	4.5	4	-1E+10	1	-1E+10	1	-1E+10	1	-1E+10	1	-1E+10	1	-1E+10	1
4902551	118	C	11/21/2023	21:56	-130.915	46.829	0	688.00	0	4.0920	0	34.2030	0	27.148	0	681.169	0	13.9	4	4.4	4	-1E+10	1	-1E+10	1	-1E+10	1	-1E+10	1	-1E+10	1	-1E+10	1
4902551	118	C	11/21/2023	21:56	-130.915	46.829	0	693.00	0	4.0860	0	34.2080	0	27.153	0	686.111	0	13.6	4	4.3	4	-1E+10	1	-1E+10	1	-1E+10	1	-1E+10	1	-1E+10	1	-1E+10	1
4902551	118	C	11/21/2023	21:56	-130.915	46.829	0	698.00	0	4.0740	0	34.2140	0	27.159	0	691.053	0	13.2	4	4.2	4	-1E+10	1	-1E+10	1	-1E+10	1	-1E+10	1	-1E+10	1	-1E+10	1
4902551	118	C	11/21/2023	21:56	-130.915	46.829	0	703.20	0	4.0620	0	34.2200	0	27.165	0	696.193	0	12.9	4	4.1	4	-1E+10	1	-1E+10	1	-1E+10	1	-1E+10	1	-1E+10	1	-1E+10	1
4902551	118	C	11/21/2023	21:56	-130.915	46.829	0	708.00	0	4.0570	0	34.2230	0	27.168	0	700.937	0	12.7	4	4.0	4	-1E+10	1	-1E+10	1	-1E+10	1	-1E+10	1	-1E+10	1	-1E+10	1
4902551	118	C	11/21/2023	21:56	-130.915	46.829	0	712.70	0	4.0530	0	34.2260	0	27.170	0	705.582	0	12.5	4	4.0	4	-1E+10	1	-1E+10	1	-1E+10	1	-1E+10	1	-1E+10	1	-1E+10	1
4902551	118	C	11/21/2023	21:56	-130.915	46.829	0	717.60	0	4.0480	0	34.2290	0	27.173	0	710.425	0	12.4	4	3.9	4	-1E+10	1	-1E+10	1	-1E+10	1	-1E+10	1	-1E+10	1	-1E+10	1
4902551	118	C	11/21/2023	21:56	-130.915	46.829	0	722.90	0	4.0400	0	34.2320	0	27.177	0	715.663	0	12.4	4	3.9	4	-1E+10	1	-1E+10	1	-1E+10	1	-1E+10	1	-1E+10	1	-1E+10	1
4902551	118	C	11/21/2023	21:56	-130.915	46.829	0	728.30	0	4.0130	0	34.2360	0	27.183	0	720.999	0	12.7	4	4.0	4	-1E+10	1	-1E+10	1	-1E+10	1	-1E+10	1	-1E+10	1	-1E+10	1
4902551	118	C	11/21/2023	21:56	-130.915	46.829	0	733.30	0	3.9540	0	34.2370	0	27.189	0	725.940	0	12.9	4	4.1	4	-1E+10	1	-1E+10	1	-1E+10	1	-1E+10	1	-1E+10	1	-1E+10	1
4902551	118	C	11/21/2023	21:56	-130.915	46.829	0	738.20	0	3.9170	0	34.2370	0	27.193	0	730.783	0	12.9	4	4.1	4	-1E+10	1	-1E+10	1	-1E+10	1	-1E+10	1	-1E+10	1	-1E+10	1
4902551	118	C	11/21/2023	21:56	-130.915	46.829	0	743.30	0	3.8910	0	34.2390	0	27.197	0	735.822	0	12.9	4	4.1	4	-1E+10	1	-1E+10	1	-1E+10	1	-1E+10	1	-1E+10	1	-1E+10	1
4902551	118	C	11/21/2023	21:56	-130.915	46.829	0	748.30	0	3.8620	0	34.2420	0	27.203	0	740.763	0	12.9	4	4.1	4	-1E+10	1	-1E+10	1	-1E+10	1	-1E+10	1	-1E+10	1	-1E+10	1
4902551	118	C	11/21/2023	21:56	-130.915	46.829	0	753.40	0	3.8390	0	34.2410	0	27.204	0	745.803	0	12.8	4	4.0	4	-1E+10	1	-1E+10	1	-1E+10	1	-1E+10	1	-1E+10	1	-1E+10	1
4902551	118	C	11/21/2023	21:56	-130.915	46.829	0	757.90	0	3.8320	0	34.2470	0	27.210	0	750.249	0	12.7	4	4.0	4	-1E+10	1	-1E+10	1	-1E+10	1	-1E+10	1	-1E+10	1	-1E+10	1
4902551	118	C	11/21/2023	21:56	-130.915	46.829	0	762.50	0	3.8320	0	34.2470	0	27.210	0	754.795	0	12.6	4	4.0	4	-1E+10	1	-1E+10	1	-1E+10	1	-1E+10	1	-1E+10	1	-1E+10	1
4902551	118	C	11/21/2023	21:56	-130.915	46.829	0	767.60	0	3.8160	0	34.2490	0	27.213	0	759.834	0	12.5	4	3.9	4	-1E+10	1	-1E+10	1	-1E+10	1	-1E+10	1	-1E+10	1	-1E+10	1
4902551	118	C	11/21/2023	21:56	-130.915	46.829	0	772.70	0	3.7860	0	34.2510	0	27.218	0	764.873	0	12.3	4	3.9	4	-1E+10	1	-1E+10	1	-1E+10	1	-1E+10	1	-1E+10	1	-1E+10	1
4902551	118	C	11/21/2023	21:56	-130.915	46.829	0	777.90	0	3.8010	0	34.2570	0	27.221	0	770.011	0	12.1	4	3.8	4	-1E+10	1	-1E+10	1	-1E+10	1	-1E+10	1	-1E+10	1	-1E+10	1
4902551	118	C	11/21/2023	21:56	-130.915	46.829	0	783.00	0	3.7780	0	34.2600	0	27.226	0	775.049	0	12.3	4	3.9	4	-1E+10	1	-1E+10	1	-1E+10	1	-1E+10	1	-1E+10	1	-1E+10	1
4902551	118	C	11/21/2023	21:56	-130.915	46.829	0	788.20	0	3.7290	0	34.2590	0	27.230	0	780.187	0	12.3	4	3.9	4	-1E+10	1	-1E+10	1	-1E+10	1	-1E+10	1	-1E+10	1	-1E+10	1
4902551	118	C	11/21/2023	21:56	-130.915	46.829	0	792.90	0	3.7140	0	34.2640	0	27.235	0	784.830	0	12.1	4	3.8	4	-1E+10	1	-1E+10	1	-1E+10	1	-1E+10	1	-1E+10	1	-1E+10	1
4902551	118	C	11/21/2023	21:56	-130.915	46.829	0	797.60	0	3.7130	0	34.2670	0	27.238	0	789.474	0	12.0	4	3.8	4	-1E+10	1	-1E+10	1	-1E+10	1	-1E+10	1	-1E+10	1	-1E+10	1
4902551	118	C	11/21/2023	21:56	-130.915	46.829	0	802.80	0	3.7180	0	34.2690	0	27.239	0	794.611	0	11.8	4	3.7	4	-1E+10	1	-1E+10	1	-1E+10	1	-1E+10	1	-1E+10	1	-1E+10	1
4902551	118	C	11/21/2023	21:56	-130.915	46.829	0	808.00	0	3.7240	0	34.2720	0	27.241	0	799.748	0	11.7	4	3.7	4	-1E+10	1	-1E+10	1	-1E+10	1	-1E+10	1	-1E+10	1	-1E+10	1
4902551	118	C	11/21/2023	21:56	-130.915	46.829	0	813.20	0	3.7210	0	34.2730	0	27.242	0	804.885	0	11.7	4	3.7	4	-1E+10	1	-1E+10	1	-1E+10	1	-1E+10	1	-1E+10	1	-1E+10	1
4902551	118	C	11/21/2023	21:56	-130.915	46.829	0	817.90	0	3.7190	0	34.2750	0	27.244	0	809.527	0	11.6	4	3.6	4	-1E+10	1	-1E+10	1	-1E+10	1	-1E+10	1	-1E+10	1	-1E+10	1
4902551	118	C	11/21/2023	21:56	-130.915	46.829	0	822.60	0	3.7090	0	34.2760	0	27.246	0	814.170	0	11.6	4	3.6	4	-1E+10	1	-1E+10	1	-1E+10	1	-1E+10	1	-1E+10	1	-1E+10	1
4902551	118	C	11/21/2023	21:56	-130.915	46.829	0	827.90	0	3.6940	0	34.2780	0	27.249	0	819.405	0	11.5	4	3.6	4	-1E+10	1	-1E+10	1	-1E+10	1	-1E+10	1	-1E+10	1	-1E+10	1
4902551	118	C	11/21/2023	21:56	-130.915	46.829	0	833.20	0	3.6790	0	34.2810	0	27.253	0	824.641	0	11.4	4	3.6	4	-1E+10	1	-1E+10	1	-1E+10	1	-1E+10	1	-1E+10	1	-1E+10	1
4902551	118	C	11/21/2023	21:56	-130.915	46.829	0	838.40	0	3.6730	0	34.2840	0	27.256	0	829.777	0	11.3	4	3.5	4	-1E+10	1	-1E+10	1	-1E+10	1	-1E+10	1	-1E+10	1	-1E+10	1
4902551	118	C	11/21/2023	21:56	-130.915	46.829	0	843.20	0	3.6710	0	34.2840	0	27.256	0	834.518	0	11.3	4	3.5	4	-1E+10	1	-1E+10	1	-1E+10	1	-1E+10	1	-1E+10	1	-1E+10	1
4902551	118	C	11/21/2023	21:56	-130.915	46.829	0	848.00	0	3.6460	0	34.2860	0	27.260	0	839.259	0	11.2	4	3.5	4	-1E+10	1	-1E+10	1	-1E+10	1	-1E+10	1	-1E+10	1	-1E+10	1
4902551	118	C	11/21/2023	21:56	-130.915	46.829	0	852.80	0	3.6290	0	34.2910	0	27.266	0	844.000	0	11.1	4	3.5	4	-1E+10	1	-1E+10	1	-1E+10	1	-1E+10	1	-1E+10	1	-1E+10	1
4902551	118	C	11/21/2023	21:56	-130.915	46.829	0	857.70	0	3.6200	0	34.2930	0	27.268	0	848.839	0	11.0	4	3.4	4	-1E+10	1	-1E+10	1	-1E+10	1	-1E+10	1	-1E+10	1	-1E+10	1
4902551	118	C	11/21/2023	21:56	-130.915	46.829	0	862.70	0	3.6030	0	34.2980	0	27.274	0	853.777	0	10.8	4	3.4	4	-1E+10	1	-1E+10	1	-1E+10	1	-1E+10	1	-1E+10	1	-1E+10	1
4902551	118	C	11/21/2023	21:56	-130.915	46.829	0	867.60	0	3.5830	0	34.3030	0	27.280	0	858.617	0	10.7	4	3.4	4	-1E+10	1	-1E+10	1	-1E+10	1	-1E+10	1	-1E+10	1	-1E+10	1
4902551	118	C	11/21/2023	21:56	-130.915	46.829	0	872.90	0	3.5680	0	34.3070	0	27.284	0	863.851	0	10.7	4	3.3	4	-1E+10	1	-1E+10	1	-1E+10	1	-1E+10	1	-1E+10	1	-1E+10	1
4902551	118	C	11/21/2023	21:56	-130.915	46.829	0	878.30	0	3.5560	0	34.3100	0	27.288	0	869.184	0	10.6	4	3.3	4	-1E+10	1	-1E+10	1	-1E+10	1	-1E+10	1	-1E+10	1	-1E+10	1
4902551	118	C	11/21/2023	21:56	-130.915	46.829	0	883.30	0	3.5520	0	34.3130	0	27.291	0	874.121	0	10.5	4	3.3	4	-1E+10	1	-1E+10	1	-1E+10	1	-1E+10	1	-1E+10	1	-1E+10	1
4902551	118	C	11/21/2023	21:56	-130.915	46.829	0	888.30	0	3.5300	0	34.3170	0	27.296	0	879.059	0	10.5	4	3.3	4	-1E+10	1	-1E+10	1	-1E+10	1	-1E+10	1	-1E+10	1	-1E+10	1
4902551	118	C	11/21/2023	21:56	-130.915	46.829	0	892.90	0	3.5240	0	34.3180	0	27.298	0	883.601	0	10.4	4	3.3	4	-1E+10	1	-1E+10	1	-1E+10	1	-1E+10	1	-1E+10	1	-1E+10	1
4902551	118	C	11/21/2023	21:56	-130.915	46.829	0	897.60	0	3.5170	0	34.3210	0	27.301	0	888.242	0	10.4	4	3.2	4	-1E+10	1	-1E+10	1	-1E+10	1	-1E+10	1	-1E+10	1	-1E+10	1
4902551	118	C	11/21/2023	21:56	-130.915	46.829	0	902.70	0	3.5020	0	34.3250	0	27.305	0	893.278	0	10.3	4	3.2	4	-1E+10	1	-1E+10	1	-1E+10	1	-1E+10	1	-1E+10	1	-1E+10	1
4902551	118	C	11/21/2023	21:56	-130.915	46.829	0	908.10	0	3.4930	0	34.3290	0	27.309	0	898.610	0	10.3	4	3.2	4	-1E+10	1	-1E+10	1	-1E+10	1	-1E+10	1	-1E+10	1	-1E+10	1
4902551	118	C	11/21/2023	21:56	-130.915	46.829	0	913.10	0	3.4920	0	34.3290	0	27.310	0	903.547	0	10.3	4	3.2	4	-1E+10	1	-1E+10	1	-1E+10	1	-1E+10	1	-1E+10	1	-1E+10	1
4902551	118	C	11/21/2023	21:56	-130.915	46.829	0	917.70	0	3.4880	0	34.3310	0	27.312	0	908.089	0	10.3	4	3.2	4	-1E+10	1	-1E+10	1	-1E+10	1	-1E+10	1	-1E+10	1	-1E+10	1
4902551	118	C	11/21/2023	21:56	-130.915	46.829	0	922.70	0	3.4750	0	34.3320	0	27.314	0	913.026	0	10.3	4	3.2	4	-1E+10	1	-1E+10	1	-1E+10	1	-1E+10	1	-1E+10	1	-1E+10	1
4902551	118	C	11/21/2023	21:56	-130.915	46.829	0	928.10	0	3.4650	0	34.3350	0	27.317	0	918.357	0	10.4	4	3.2	4	-1E+10	1	-1E+10	1	-1E+10	1	-1E+10	1	-1E+10	1	-1E+10	1
4902551	118	C	11/21/2023	21:56	-130.915	46.829	0	933.10	0	3.4270	0	34.3390	0	27.324	0	923.294	0	10.5	4	3.3	4	-1E+10	1	-1E+10	1	-1E+10	1	-1E+10	1	-1E+10	1	-1E+10	1
4902551	118	C	11/21/2023	21:56	-130.915	46.829	0	937.80	0	3.4050	0	34.3410	0	27.328	0	927.934	0	10.5	4	3.3	4	-1E+10	1	-1E+10	1	-1E+10	1	-1E+10	1	-1E+10	1	-1E+10	1
4902551	118	C	11/21/2023	21:56	-130.915	46.829	0	943.00	0	3.3890	0	34.3440	0	27.331	0	933.068	0	10.5	4	3.3	4	-1E+10	1	-1E+10	1	-1E+10	1	-1E+10	1	-1E+10	1	-1E+10	1
4902551	118	C	11/21/2023	21:56	-130.915	46.829	0	948.30	0	3.3780	0	34.3490	0	27.337	0	938.300	0	10.5	4	3.3	4	-1E+10	1	-1E+10	1	-1E+10	1	-1E+10	1	-1E+10	1	-1E+10	1
4902551	118	C	11/21/2023	21:56	-130.915	46.829	0	953.10	0	3.3730	0	34.3500	0	27.338	0	943.039	0	10.6	4	3.3	4	-1E+10	1	-1E+10	1	-1E+10	1	-1E+10	1	-1E+10	1	-1E+10	1
4902551	118	C	11/21/2023	21:56	-130.915	46.829	0	958.00	0	3.3460	0	34.3500	0	27.340	0	947.876	0	10.6	4	3.3	4	-1E+10	1	-1E+10	1	-1E+10	1	-1E+10	1	-1E+10	1	-1E+10	1
4902551	118	C	11/21/2023	21:56	-130.915	46.829	0	962.90	0	3.3300	0	34.3500	0	27.342	0	952.713	0	10.7	4	3.3	4	-1E+10	1	-1E+10	1	-1E+10	1	-1E+10	1	-1E+10	1	-1E+10	1
4902551	118	C	11/21/2023	21:56	-130.915	46.829	0	967.80	0	3.3170	0	34.3530	0	27.346	0	957.550	0	10.7	4	3.3	4	-1E+10	1	-1E+10	1	-1E+10	1	-1E+10	1	-1E+10	1	-1E+10	1
4902551	118	C	11/21/2023	21:56	-130.915	46.829	0	972.80	0	3.3050	0	34.3550	0	27.348	0	962.486	0	10.7	4	3.3	4	-1E+10	1	-1E+10	1	-1E+10	1	-1E+10	1	-1E+10	1	-1E+10	1
4902551	118	C	11/21/2023	21:56	-130.915	46.829	0	977.80	0	3.3030	0	34.3560	0	27.349	0	967.421	0	10.7	4	3.3	4	-1E+10	1	-1E+10	1	-1E+10	1	-1E+10	1	-1E+10	1	-1E+10	1
4902551	118	C	11/21/2023	21:56	-130.915	46.829	0	982.80	0	3.2980	0	34.3590	0	27.352	0	972.356	0	10.7	4	3.3	4	-1E+10	1	-1E+10	1	-1E+10	1	-1E+10	1	-1E+10	1	-1E+10	1
4902551	118	C	11/21/2023	21:56	-130.915	46.829	0	987.90	0	3.2990	0	34.3620	0	27.355	0	977.390	0	10.7	4	3.3	4	-1E+10	1	-1E+10	1	-1E+10	1	-1E+10	1	-1E+10	1	-1E+10	1
4902551	118	C	11/21/2023	21:56	-130.915	46.829	0	993.00	0	3.2790	0	34.3630	0	27.357	0	982.424	0	10.8	4	3.3	4	-1E+10	1	-1E+10	1	-1E+10	1	-1E+10	1	-1E+10	1	-1E+10	1
4902551	118	C	11/21/2023	21:56	-130.915	46.829	0	998.10	0	3.2580	0	34.3630	0	27.359	0	987.458	0	10.8	4	3.4	4	-1E+10	1	-1E+10	1	-1E+10	1	-1E+10	1	-1E+10	1	-1E+10	1
4902551	118	C	11/21/2023	21:56	-130.915	46.829	0	1005.70	0	3.2450	0	34.3650	0	27.362	0	994.959	0	10.8	4	3.4	4	-1E+10	1	-1E+10	1	-1E+10	1	-1E+10	1	-1E+10	1	-1E+10	1
4902551	118	C	11/21/2023	21:56	-130.915	46.829	0	1015.30	0	3.2260	0	34.3680	0	27.366	0	1004.433	0	10.9	4	3.4	4	-1E+10	1	-1E+10	1	-1E+10	1	-1E+10	1	-1E+10	1	-1E+10	1
4902551	118	C	11/21/2023	21:56	-130.915	46.829	0	1025.30	0	3.2080	0	34.3730	0	27.372	0	1014.302	0	10.9	4	3.4	4	-1E+10	1	-1E+10	1	-1E+10	1	-1E+10	1	-1E+10	1	-1E+10	1
4902551	118	C	11/21/2023	21:56	-130.915	46.829	0	1035.50	0	3.1960	0	34.3770	0	27.376	0	1024.368	0	11.0	4	3.4	4	-1E+10	1	-1E+10	1	-1E+10	1	-1E+10	1	-1E+10	1	-1E+10	1
4902551	118	C	11/21/2023	21:56	-130.915	46.829	0	1045.20	0	3.1870	0	34.3800	0	27.380	0	1033.939	0	11.0	4	3.4	4	-1E+10	1	-1E+10	1	-1E+10	1	-1E+10	1	-1E+10	1	-1E+10	1
4902551	118	C	11/21/2023	21:56	-130.915	46.829	0	1055.50	0	3.1780	0	34.3840	0	27.384	0	1044.103	0	11.2	4	3.5	4	-1E+10	1	-1E+10	1	-1E+10	1	-1E+10	1	-1E+10	1	-1E+10	1
4902551	118	C	11/21/2023	21:56	-130.915	46.829	0	1065.80	0	3.1590	0	34.3890	0	27.390	0	1054.266	0	11.3	4	3.5	4	-1E+10	1	-1E+10	1	-1E+10	1	-1E+10	1	-1E+10	1	-1E+10	1
4902551	118	C	11/21/2023	21:56	-130.915	46.829	0	1075.40	0	3.1520	0	34.3920	0	27.393	0	1063.738	0	11.4	4	3.5	4	-1E+10	1	-1E+10	1	-1E+10	1	-1E+10	1	-1E+10	1	-1E+10	1
4902551	118	C	11/21/2023	21:56	-130.915	46.829	0	1085.30	0	3.1350	0	34.3960	0	27.398	0	1073.505	0	11.5	4	3.6	4	-1E+10	1	-1E+10	1	-1E+10	1	-1E+10	1	-1E+10	1	-1E+10	1
4902551	118	C	11/21/2023	21:56	-130.915	46.829	0	1095.30	0	3.1130	0	34.3990	0	27.402	0	1083.370	0	11.7	4	3.6	4	-1E+10	1	-1E+10	1	-1E+10	1	-1E+10	1	-1E+10	1	-1E+10	1
4902551	118	C	11/21/2023	21:56	-130.915	46.829	0	1105.70	0	3.1100	0	34.4030	0	27.406	0	1093.630	0	11.9	4	3.7	4	-1E+10	1	-1E+10	1	-1E+10	1	-1E+10	1	-1E+10	1	-1E+10	1
4902551	118	C	11/21/2023	21:56	-130.915	46.829	0	1115.70	0	3.1020	0	34.4090	0	27.411	0	1103.495	0	12.1	4	3.7	4	-1E+10	1	-1E+10	1	-1E+10	1	-1E+10	1	-1E+10	1	-1E+10	1
4902551	118	C	11/21/2023	21:56	-130.915	46.829	0	1125.40	0	3.0780	0	34.4120	0	27.416	0	1113.063	0	12.3	4	3.8	4	-1E+10	1	-1E+10	1	-1E+10	1	-1E+10	1	-1E+10	1	-1E+10	1
4902551	118	C	11/21/2023	21:56	-130.915	46.829	0	1135.40	0	3.0690	0	34.4170	0	27.421	0	1122.926	0	12.6	4	3.9	4	-1E+10	1	-1E+10	1	-1E+10	1	-1E+10	1	-1E+10	1	-1E+10	1
4902551	118	C	11/21/2023	21:56	-130.915	46.829	0	1145.40	0	3.0760	0	34.4220	0	27.424	0	1132.790	0	12.9	4	4.0	4	-1E+10	1	-1E+10	1	-1E+10	1	-1E+10	1	-1E+10	1	-1E+10	1
4902551	118	C	11/21/2023	21:56	-130.915	46.829	0	1155.50	0	3.0750	0	34.4280	0	27.429	0	1142.751	0	13.1	4	4.0	4	-1E+10	1	-1E+10	1	-1E+10	1	-1E+10	1	-1E+10	1	-1E+10	1
4902551	118	C	11/21/2023	21:56	-130.915	46.829	0	1165.60	0	3.0560	0	34.4280	0	27.431	0	1152.712	0	13.3	4	4.1	4	-1E+10	1	-1E+10	1	-1E+10	1	-1E+10	1	-1E+10	1	-1E+10	1
4902551	118	C	11/21/2023	21:56	-130.915	46.829	0	1175.80	0	3.0310	0	34.4320	0	27.436	0	1162.771	0	13.6	4	4.2	4	-1E+10	1	-1E+10	1	-1E+10	1	-1E+10	1	-1E+10	1	-1E+10	1
4902551	118	C	11/21/2023	21:56	-130.915	46.829	0	1185.50	0	3.0180	0	34.4360	0	27.441	0	1172.336	0	13.9	4	4.3	4	-1E+10	1	-1E+10	1	-1E+10	1	-1E+10	1	-1E+10	1	-1E+10	1
4902551	118	C	11/21/2023	21:56	-130.915	46.829	0	1195.20	0	3.0080	0	34.4390	0	27.444	0	1181.901	0	14.1	4	4.4	4	-1E+10	1	-1E+10	1	-1E+10	1	-1E+10	1	-1E+10	1	-1E+10	1
4902551	118	C	11/21/2023	21:56	-130.915	46.829	0	1205.50	0	2.9970	0	34.4410	0	27.447	0	1192.058	0	14.3	4	4.4	4	-1E+10	1	-1E+10	1	-1E+10	1	-1E+10	1	-1E+10	1	-1E+10	1
4902551	118	C	11/21/2023	21:56	-130.915	46.829	0	1215.40	0	2.9730	0	34.4430	0	27.451	0	1201.819	0	14.7	4	4.5	4	-1E+10	1	-1E+10	1	-1E+10	1	-1E+10	1	-1E+10	1	-1E+10	1
4902551	118	C	11/21/2023	21:56	-130.915	46.829	0	1225.70	0	2.9330	0	34.4470	0	27.457	0	1211.974	0	15.1	4	4.6	4	-1E+10	1	-1E+10	1	-1E+10	1	-1E+10	1	-1E+10	1	-1E+10	1
4902551	118	C	11/21/2023	21:56	-130.915	46.829	0	1235.30	0	2.9270	0	34.4500	0	27.460	0	1221.439	0	15.5	4	4.8	4	-1E+10	1	-1E+10	1	-1E+10	1	-1E+10	1	-1E+10	1	-1E+10	1
4902551	118	C	11/21/2023	21:56	-130.915	46.829	0	1245.20	0	2.9110	0	34.4540	0	27.465	0	1231.199	0	15.9	4	4.9	4	-1E+10	1	-1E+10	1	-1E+10	1	-1E+10	1	-1E+10	1	-1E+10	1
4902551	118	C	11/21/2023	21:56	-130.915	46.829	0	1255.30	0	2.8880	0	34.4570	0	27.470	0	1241.155	0	16.2	4	5.0	4	-1E+10	1	-1E+10	1	-1E+10	1	-1E+10	1	-1E+10	1	-1E+10	1
4902551	118	C	11/21/2023	21:56	-130.915	46.829	0	1265.30	0	2.8710	0	34.4590	0	27.473	0	1251.013	0	16.4	4	5.0	4	-1E+10	1	-1E+10	1	-1E+10	1	-1E+10	1	-1E+10	1	-1E+10	1
4902551	118	C	11/21/2023	21:56	-130.915	46.829	0	1275.60	0	2.8610	0	34.4600	0	27.474	0	1261.166	0	16.7	4	5.1	4	-1E+10	1	-1E+10	1	-1E+10	1	-1E+10	1	-1E+10	1	-1E+10	1
4902551	118	C	11/21/2023	21:56	-130.915	46.829	0	1285.70	0	2.8410	0	34.4630	0	27.479	0	1271.121	0	17.0	4	5.2	4	-1E+10	1	-1E+10	1	-1E+10	1	-1E+10	1	-1E+10	1	-1E+10	1
4902551	118	C	11/21/2023	21:56	-130.915	46.829	0	1295.40	0	2.8300	0	34.4650	0	27.481	0	1280.682	0	17.3	4	5.3	4	-1E+10	1	-1E+10	1	-1E+10	1	-1E+10	1	-1E+10	1	-1E+10	1
4902551	118	C	11/21/2023	21:56	-130.915	46.829	0	1305.20	0	2.8140	0	34.4670	0	27.484	0	1290.340	0	17.6	4	5.4	4	-1E+10	1	-1E+10	1	-1E+10	1	-1E+10	1	-1E+10	1	-1E+10	1
4902551	118	C	11/21/2023	21:56	-130.915	46.829	0	1315.40	0	2.8020	0	34.4680	0	27.486	0	1300.393	0	17.9	4	5.5	4	-1E+10	1	-1E+10	1	-1E+10	1	-1E+10	1	-1E+10	1	-1E+10	1
4902551	118	C	11/21/2023	21:56	-130.915	46.829	0	1325.50	0	2.7830	0	34.4710	0	27.490	0	1310.346	0	18.3	4	5.6	4	-1E+10	1	-1E+10	1	-1E+10	1	-1E+10	1	-1E+10	1	-1E+10	1
4902551	118	C	11/21/2023	21:56	-130.915	46.829	0	1335.50	0	2.7530	0	34.4740	0	27.495	0	1320.200	0	18.8	4	5.8	4	-1E+10	1	-1E+10	1	-1E+10	1	-1E+10	1	-1E+10	1	-1E+10	1
4902551	118	C	11/21/2023	21:56	-130.915	46.829	0	1345.70	0	2.7300	0	34.4770	0	27.500	0	1330.251	0	19.6	4	6.0	4	-1E+10	1	-1E+10	1	-1E+10	1	-1E+10	1	-1E+10	1	-1E+10	1
4902551	118	C	11/21/2023	21:56	-130.915	46.829	0	1355.50	0	2.7030	0	34.4810	0	27.505	0	1339.908	0	20.7	4	6.4	4	-1E+10	1	-1E+10	1	-1E+10	1	-1E+10	1	-1E+10	1	-1E+10	1
4902551	118	C	11/21/2023	21:56	-130.915	46.829	0	1365.50	0	2.6760	0	34.4850	0	27.511	0	1349.761	0	21.9	4	6.7	4	-1E+10	1	-1E+10	1	-1E+10	1	-1E+10	1	-1E+10	1	-1E+10	1
4902551	118	C	11/21/2023	21:56	-130.915	46.829	0	1375.70	0	2.6420	0	34.4900	0	27.518	0	1359.810	0	22.6	4	6.9	4	-1E+10	1	-1E+10	1	-1E+10	1	-1E+10	1	-1E+10	1	-1E+10	1
4902551	118	C	11/21/2023	21:56	-130.915	46.829	0	1385.50	0	2.6260	0	34.4920	0	27.521	0	1369.465	0	23.0	4	7.0	4	-1E+10	1	-1E+10	1	-1E+10	1	-1E+10	1	-1E+10	1	-1E+10	1
4902551	118	C	11/21/2023	21:56	-130.915	46.829	0	1395.20	0	2.6100	0	34.4940	0	27.524	0	1379.021	0	23.4	4	7.2	4	-1E+10	1	-1E+10	1	-1E+10	1	-1E+10	1	-1E+10	1	-1E+10	1
4902551	118	C	11/21/2023	21:56	-130.915	46.829	0	1405.20	0	2.5880	0	34.4970	0	27.528	0	1388.873	0	24.0	4	7.3	4	-1E+10	1	-1E+10	1	-1E+10	1	-1E+10	1	-1E+10	1	-1E+10	1
4902551	118	C	11/21/2023	21:56	-130.915	46.829	0	1415.70	0	2.5730	0	34.4990	0	27.531	0	1399.216	0	24.5	4	7.5	4	-1E+10	1	-1E+10	1	-1E+10	1	-1E+10	1	-1E+10	1	-1E+10	1
4902551	118	C	11/21/2023	21:56	-130.915	46.829	0	1425.30	0	2.5580	0	34.5010	0	27.534	0	1408.672	0	24.8	4	7.6	4	-1E+10	1	-1E+10	1	-1E+10	1	-1E+10	1	-1E+10	1	-1E+10	1
4902551	118	C	11/21/2023	21:56	-130.915	46.829	0	1435.30	0	2.5480	0	34.5020	0	27.536	0	1418.522	0	25.1	4	7.7	4	-1E+10	1	-1E+10	1	-1E+10	1	-1E+10	1	-1E+10	1	-1E+10	1
4902551	118	C	11/21/2023	21:56	-130.915	46.829	0	1445.50	0	2.5350	0	34.5040	0	27.539	0	1428.568	0	25.3	4	7.7	4	-1E+10	1	-1E+10	1	-1E+10	1	-1E+10	1	-1E+10	1	-1E+10	1
4902551	118	C	11/21/2023	21:56	-130.915	46.829	0	1455.40	0	2.5160	0	34.5050	0	27.541	0	1438.318	0	25.8	4	7.9	4	-1E+10	1	-1E+10	1	-1E+10	1	-1E+10	1	-1E+10	1	-1E+10	1
4902551	118	C	11/21/2023	21:56	-130.915	46.829	0	1465.20	0	2.4980	0	34.5080	0	27.545	0	1447.970	0	26.5	4	8.1	4	-1E+10	1	-1E+10	1	-1E+10	1	-1E+10	1	-1E+10	1	-1E+10	1
4902551	118	C	11/21/2023	21:56	-130.915	46.829	0	1475.10	0	2.4750	0	34.5090	0	27.548	0	1457.719	0	27.0	4	8.2	4	-1E+10	1	-1E+10	1	-1E+10	1	-1E+10	1	-1E+10	1	-1E+10	1
4902551	118	C	11/21/2023	21:56	-130.915	46.829	0	1485.20	0	2.4590	0	34.5120	0	27.552	0	1467.665	0	27.6	4	8.4	4	-1E+10	1	-1E+10	1	-1E+10	1	-1E+10	1	-1E+10	1	-1E+10	1
4902551	118	C	11/21/2023	21:56	-130.915	46.829	0	1495.10	0	2.4310	0	34.5150	0	27.556	0	1477.414	0	28.0	4	8.5	4	-1E+10	1	-1E+10	1	-1E+10	1	-1E+10	1	-1E+10	1	-1E+10	1
4902551	118	C	11/21/2023	21:56	-130.915	46.829	0	1505.30	0	2.4160	0	34.5150	0	27.558	0	1487.457	0	28.3	4	8.6	4	-1E+10	1	-1E+10	1	-1E+10	1	-1E+10	1	-1E+10	1	-1E+10	1
4902551	118	C	11/21/2023	21:56	-130.915	46.829	0	1515.40	0	2.3940	0	34.5170	0	27.561	0	1497.402	0	28.7	4	8.7	4	-1E+10	1	-1E+10	1	-1E+10	1	-1E+10	1	-1E+10	1	-1E+10	1
4902551	118	C	11/21/2023	21:56	-130.915	46.829	0	1525.40	0	2.3790	0	34.5180	0	27.563	0	1507.247	0	29.3	4	8.9	4	-1E+10	1	-1E+10	1	-1E+10	1	-1E+10	1	-1E+10	1	-1E+10	1
4902551	118	C	11/21/2023	21:56	-130.915	46.829	0	1535.40	0	2.3790	0	34.5210	0	27.566	0	1517.092	0	30.2	4	9.2	4	-1E+10	1	-1E+10	1	-1E+10	1	-1E+10	1	-1E+10	1	-1E+10	1
4902551	118	C	11/21/2023	21:56	-130.915	46.829	0	1545.40	0	2.3630	0	34.5230	0	27.569	0	1526.937	0	31.0	4	9.4	4	-1E+10	1	-1E+10	1	-1E+10	1	-1E+10	1	-1E+10	1	-1E+10	1
4902551	118	C	11/21/2023	21:56	-130.915	46.829	0	1555.50	0	2.3320	0	34.5260	0	27.574	0	1536.880	0	32.3	4	9.8	4	-1E+10	1	-1E+10	1	-1E+10	1	-1E+10	1	-1E+10	1	-1E+10	1
4902551	118	C	11/21/2023	21:56	-130.915	46.829	0	1565.40	0	2.3090	0	34.5310	0	27.580	0	1546.625	0	33.5	4	10.2	4	-1E+10	1	-1E+10	1	-1E+10	1	-1E+10	1	-1E+10	1	-1E+10	1
4902551	118	C	11/21/2023	21:56	-130.915	46.829	0	1575.30	0	2.2940	0	34.5340	0	27.583	0	1556.370	0	34.6	4	10.5	4	-1E+10	1	-1E+10	1	-1E+10	1	-1E+10	1	-1E+10	1	-1E+10	1
4902551	118	C	11/21/2023	21:56	-130.915	46.829	0	1585.50	0	2.2720	0	34.5380	0	27.588	0	1566.410	0	35.5	4	10.8	4	-1E+10	1	-1E+10	1	-1E+10	1	-1E+10	1	-1E+10	1	-1E+10	1
4902551	118	C	11/21/2023	21:56	-130.915	46.829	0	1595.30	0	2.2590	0	34.5400	0	27.591	0	1576.055	0	36.1	4	10.9	4	-1E+10	1	-1E+10	1	-1E+10	1	-1E+10	1	-1E+10	1	-1E+10	1
4902551	118	C	11/21/2023	21:56	-130.915	46.829	0	1605.30	0	2.2510	0	34.5410	0	27.593	0	1585.897	0	36.8	4	11.2	4	-1E+10	1	-1E+10	1	-1E+10	1	-1E+10	1	-1E+10	1	-1E+10	1
4902551	118	C	11/21/2023	21:56	-130.915	46.829	0	1615.90	0	2.2350	0	34.5430	0	27.595	0	1596.329	0	37.5	4	11.4	4	-1E+10	1	-1E+10	1	-1E+10	1	-1E+10	1	-1E+10	1	-1E+10	1
4902551	118	C	11/21/2023	21:56	-130.915	46.829	0	1625.30	0	2.2260	0	34.5450	0	27.598	0	1605.580	0	38.2	4	11.6	4	-1E+10	1	-1E+10	1	-1E+10	1	-1E+10	1	-1E+10	1	-1E+10	1
4902551	118	C	11/21/2023	21:56	-130.915	46.829	0	1635.20	0	2.2160	0	34.5460	0	27.599	0	1615.322	0	38.7	4	11.7	4	-1E+10	1	-1E+10	1	-1E+10	1	-1E+10	1	-1E+10	1	-1E+10	1
4902551	118	C	11/21/2023	21:56	-130.915	46.829	0	1645.30	0	2.2090	0	34.5480	0	27.602	0	1625.260	0	39.2	4	11.9	4	-1E+10	1	-1E+10	1	-1E+10	1	-1E+10	1	-1E+10	1	-1E+10	1
4902551	118	C	11/21/2023	21:56	-130.915	46.829	0	1655.50	0	2.2010	0	34.5490	0	27.603	0	1635.297	0	39.7	4	12.0	4	-1E+10	1	-1E+10	1	-1E+10	1	-1E+10	1	-1E+10	1	-1E+10	1
4902551	118	C	11/21/2023	21:56	-130.915	46.829	0	1665.70	0	2.1940	0	34.5500	0	27.605	0	1645.333	0	40.2	4	12.2	4	-1E+10	1	-1E+10	1	-1E+10	1	-1E+10	1	-1E+10	1	-1E+10	1
4902551	118	C	11/21/2023	21:56	-130.915	46.829	0	1675.50	0	2.1850	0	34.5510	0	27.606	0	1654.975	0	40.7	4	12.3	4	-1E+10	1	-1E+10	1	-1E+10	1	-1E+10	1	-1E+10	1	-1E+10	1
4902551	118	C	11/21/2023	21:56	-130.915	46.829	0	1685.20	0	2.1780	0	34.5530	0	27.608	0	1664.518	0	41.0	4	12.4	4	-1E+10	1	-1E+10	1	-1E+10	1	-1E+10	1	-1E+10	1	-1E+10	1
4902551	118	C	11/21/2023	21:56	-130.915	46.829	0	1695.10	0	2.1720	0	34.5530	0	27.609	0	1674.257	0	41.6	4	12.6	4	-1E+10	1	-1E+10	1	-1E+10	1	-1E+10	1	-1E+10	1	-1E+10	1
4902551	118	C	11/21/2023	21:56	-130.915	46.829	0	1705.10	0	2.1600	0	34.5550	0	27.612	0	1684.094	0	42.2	4	12.8	4	-1E+10	1	-1E+10	1	-1E+10	1	-1E+10	1	-1E+10	1	-1E+10	1
4902551	118	C	11/21/2023	21:56	-130.915	46.829	0	1715.50	0	2.1540	0	34.5560	0	27.613	0	1694.325	0	42.6	4	12.9	4	-1E+10	1	-1E+10	1	-1E+10	1	-1E+10	1	-1E+10	1	-1E+10	1
4902551	118	C	11/21/2023	21:56	-130.915	46.829	0	1725.40	0	2.1440	0	34.5580	0	27.615	0	1704.063	0	43.2	4	13.1	4	-1E+10	1	-1E+10	1	-1E+10	1	-1E+10	1	-1E+10	1	-1E+10	1
4902551	118	C	11/21/2023	21:56	-130.915	46.829	0	1735.50	0	2.1380	0	34.5580	0	27.616	0	1713.997	0	43.7	4	13.2	4	-1E+10	1	-1E+10	1	-1E+10	1	-1E+10	1	-1E+10	1	-1E+10	1
4902551	118	C	11/21/2023	21:56	-130.915	46.829	0	1745.70	0	2.1300	0	34.5600	0	27.618	0	1724.029	0	44.2	4	13.4	4	-1E+10	1	-1E+10	1	-1E+10	1	-1E+10	1	-1E+10	1	-1E+10	1
4902551	118	C	11/21/2023	21:56	-130.915	46.829	0	1755.30	0	2.1220	0	34.5620	0	27.620	0	1733.471	0	44.5	4	13.5	4	-1E+10	1	-1E+10	1	-1E+10	1	-1E+10	1	-1E+10	1	-1E+10	1
4902551	118	C	11/21/2023	21:56	-130.915	46.829	0	1765.30	0	2.1180	0	34.5620	0	27.621	0	1743.306	0	45.0	4	13.6	4	-1E+10	1	-1E+10	1	-1E+10	1	-1E+10	1	-1E+10	1	-1E+10	1
4902551	118	C	11/21/2023	21:56	-130.915	46.829	0	1775.70	0	2.1120	0	34.5630	0	27.622	0	1753.533	0	45.6	4	13.8	4	-1E+10	1	-1E+10	1	-1E+10	1	-1E+10	1	-1E+10	1	-1E+10	1
4902551	118	C	11/21/2023	21:56	-130.915	46.829	0	1785.80	0	2.1000	0	34.5650	0	27.625	0	1763.465	0	46.4	4	14.0	4	-1E+10	1	-1E+10	1	-1E+10	1	-1E+10	1	-1E+10	1	-1E+10	1
4902551	118	C	11/21/2023	21:56	-130.915	46.829	0	1795.40	0	2.0920	0	34.5670	0	27.627	0	1772.905	0	46.8	4	14.1	4	-1E+10	1	-1E+10	1	-1E+10	1	-1E+10	1	-1E+10	1	-1E+10	1
4902551	118	C	11/21/2023	21:56	-130.915	46.829	0	1805.20	0	2.0870	0	34.5670	0	27.628	0	1782.541	0	47.3	4	14.3	4	-1E+10	1	-1E+10	1	-1E+10	1	-1E+10	1	-1E+10	1	-1E+10	1
4902551	118	C	11/21/2023	21:56	-130.915	46.829	0	1815.50	0	2.0760	0	34.5690	0	27.630	0	1792.668	0	47.8	4	14.4	4	-1E+10	1	-1E+10	1	-1E+10	1	-1E+10	1	-1E+10	1	-1E+10	1
4902551	118	C	11/21/2023	21:56	-130.915	46.829	0	1825.30	0	2.0710	0	34.5700	0	27.631	0	1802.304	0	48.1	4	14.5	4	-1E+10	1	-1E+10	1	-1E+10	1	-1E+10	1	-1E+10	1	-1E+10	1
4902551	118	C	11/21/2023	21:56	-130.915	46.829	0	1835.10	0	2.0660	0	34.5700	0	27.632	0	1811.938	0	48.6	4	14.7	4	-1E+10	1	-1E+10	1	-1E+10	1	-1E+10	1	-1E+10	1	-1E+10	1
4902551	118	C	11/21/2023	21:56	-130.915	46.829	0	1845.20	0	2.0610	0	34.5720	0	27.634	0	1821.868	0	49.2	4	14.9	4	-1E+10	1	-1E+10	1	-1E+10	1	-1E+10	1	-1E+10	1	-1E+10	1
4902551	118	C	11/21/2023	21:56	-130.915	46.829	0	1855.10	0	2.0490	0	34.5740	0	27.636	0	1831.600	0	49.9	4	15.1	4	-1E+10	1	-1E+10	1	-1E+10	1	-1E+10	1	-1E+10	1	-1E+10	1
4902551	118	C	11/21/2023	21:56	-130.915	46.829	0	1865.10	0	2.0440	0	34.5740	0	27.637	0	1841.430	0	50.5	4	15.2	4	-1E+10	1	-1E+10	1	-1E+10	1	-1E+10	1	-1E+10	1	-1E+10	1
4902551	118	C	11/21/2023	21:56	-130.915	46.829	0	1875.40	0	2.0320	0	34.5760	0	27.639	0	1851.554	0	51.3	4	15.5	4	-1E+10	1	-1E+10	1	-1E+10	1	-1E+10	1	-1E+10	1	-1E+10	1
4902551	118	C	11/21/2023	21:56	-130.915	46.829	0	1885.10	0	2.0220	0	34.5780	0	27.642	0	1861.089	0	52.1	4	15.7	4	-1E+10	1	-1E+10	1	-1E+10	1	-1E+10	1	-1E+10	1	-1E+10	1
4902551	118	C	11/21/2023	21:56	-130.915	46.829	0	1895.10	0	2.0090	0	34.5800	0	27.645	0	1870.917	0	52.7	4	15.9	4	-1E+10	1	-1E+10	1	-1E+10	1	-1E+10	1	-1E+10	1	-1E+10	1
4902551	118	C	11/21/2023	21:56	-130.915	46.829	0	1905.10	0	2.0060	0	34.5810	0	27.646	0	1880.746	0	53.1	4	16.0	4	-1E+10	1	-1E+10	1	-1E+10	1	-1E+10	1	-1E+10	1	-1E+10	1
4902551	118	C	11/21/2023	21:56	-130.915	46.829	0	1915.20	0	1.9970	0	34.5820	0	27.647	0	1890.672	0	53.6	4	16.2	4	-1E+10	1	-1E+10	1	-1E+10	1	-1E+10	1	-1E+10	1	-1E+10	1
4902551	118	C	11/21/2023	21:56	-130.915	46.829	0	1925.50	0	1.9920	0	34.5830	0	27.648	0	1900.794	0	54.0	4	16.3	4	-1E+10	1	-1E+10	1	-1E+10	1	-1E+10	1	-1E+10	1	-1E+10	1
4902551	118	C	11/21/2023	21:56	-130.915	46.829	0	1935.40	0	1.9880	0	34.5840	0	27.650	0	1910.522	0	54.3	4	16.4	4	-1E+10	1	-1E+10	1	-1E+10	1	-1E+10	1	-1E+10	1	-1E+10	1
4902551	118	C	11/21/2023	21:56	-130.915	46.829	0	1945.40	0	1.9830	0	34.5850	0	27.651	0	1920.349	0	54.6	4	16.5	4	-1E+10	1	-1E+10	1	-1E+10	1	-1E+10	1	-1E+10	1	-1E+10	1
4902551	118	C	11/21/2023	21:56	-130.915	46.829	0	1955.50	0	1.9780	0	34.5860	0	27.652	0	1930.273	0	54.8	4	16.5	4	-1E+10	1	-1E+10	1	-1E+10	1	-1E+10	1	-1E+10	1	-1E+10	1
4902551	118	C	11/21/2023	21:56	-130.915	46.829	0	1965.80	0	1.9770	0	34.5860	0	27.652	0	1940.393	0	54.7	4	16.5	4	-1E+10	1	-1E+10	1	-1E+10	1	-1E+10	1	-1E+10	1	-1E+10	1
4902551	118	C	11/21/2023	21:56	-130.915	46.829	0	1972.00	0	1.9770	0	34.5860	0	27.652	0	1946.485	0	54.3	4	16.4	4	-1E+10	1	-1E+10	1	-1E+10	1	-1E+10	1	-1E+10	1	-1E+10	1
4902551	118	C	11/21/2023	21:56	-130.915	46.829	0																										
4902551	119	C	12/02/2023	03:03	-131.015	46.795	0	0.20	0	11.8070	0	32.3310	0	24.553	0	0.198	0	249.0	4	92.5	4	-1E+10	1	-1E+10	1	-1E+10	1	-1E+10	1	-1E+10	1	-1E+10	1
4902551	119	C	12/02/2023	03:03	-131.015	46.795	0	1.10	0	11.8080	0	32.3310	0	24.553	0	1.091	0	249.1	4	92.5	4	-1E+10	1	-1E+10	1	-1E+10	1	-1E+10	1	-1E+10	1	-1E+10	1
4902551	119	C	12/02/2023	03:03	-131.015	46.795	0	2.10	0	11.8090	0	32.3340	0	24.555	0	2.083	0	249.0	4	92.5	4	-1E+10	1	-1E+10	1	-1E+10	1	-1E+10	1	-1E+10	1	-1E+10	1
4902551	119	C	12/02/2023	03:03	-131.015	46.795	0	3.00	0	11.8090	0	32.3350	0	24.556	0	2.975	0	-1e10	1	-1e10	1	-1E+10	1	-1E+10	1	-1E+10	1	-1E+10	1	-1E+10	1	-1E+10	1
4902551	119	C	12/02/2023	03:03	-131.015	46.795	0	3.10	0	11.8090	0	32.3350	0	24.556	0	3.074	0	249.0	4	92.5	4	-1E+10	1	-1E+10	1	-1E+10	1	-1E+10	1	-1E+10	1	-1E+10	1
4902551	119	C	12/02/2023	03:03	-131.015	46.795	0	4.00	0	11.8090	0	32.3350	0	24.556	0	3.967	0	248.9	4	92.4	4	-1E+10	1	-1E+10	1	-1E+10	1	-1E+10	1	-1E+10	1	-1E+10	1
4902551	119	C	12/02/2023	03:03	-131.015	46.795	0	5.10	0	11.8090	0	32.3360	0	24.557	0	5.058	0	248.9	4	92.4	4	-1E+10	1	-1E+10	1	-1E+10	1	-1E+10	1	-1E+10	1	-1E+10	1
4902551	119	C	12/02/2023	03:03	-131.015	46.795	0	5.50	0	11.8090	0	32.3356	0	24.556	0	5.454	0	248.9	4	92.4	4	-1E+10	1	-1E+10	1	-1E+10	1	-1E+10	1	-1E+10	1	-1E+10	1
4902551	119	C	12/02/2023	03:03	-131.015	46.795	0	6.10	0	11.8090	0	32.3350	0	24.556	0	6.049	0	248.9	4	92.4	4	-1E+10	1	-1E+10	1	-1E+10	1	-1E+10	1	-1E+10	1	-1E+10	1
4902551	119	C	12/02/2023	03:03	-131.015	46.795	0	7.00	0	11.8090	0	32.3360	0	24.557	0	6.942	0	248.8	4	92.4	4	-1E+10	1	-1E+10	1	-1E+10	1	-1E+10	1	-1E+10	1	-1E+10	1
4902551	119	C	12/02/2023	03:03	-131.015	46.795	0	8.10	0	11.8100	0	32.3360	0	24.557	0	8.033	0	248.9	4	92.4	4	-1E+10	1	-1E+10	1	-1E+10	1	-1E+10	1	-1E+10	1	-1E+10	1
4902551	119	C	12/02/2023	03:03	-131.015	46.795	0	9.10	0	11.8100	0	32.3360	0	24.557	0	9.024	0	248.8	4	92.4	4	-1E+10	1	-1E+10	1	-1E+10	1	-1E+10	1	-1E+10	1	-1E+10	1
4902551	119	C	12/02/2023	03:03	-131.015	46.795	0	10.00	0	11.8100	0	32.3360	0	24.557	0	9.917	0	248.8	4	92.4	4	-1E+10	1	-1E+10	1	-1E+10	1	-1E+10	1	-1E+10	1	-1E+10	1
4902551	119	C	12/02/2023	03:03	-131.015	46.795	0	11.10	0	11.8100	0	32.3360	0	24.557	0	11.008	0	248.7	4	92.4	4	-1E+10	1	-1E+10	1	-1E+10	1	-1E+10	1	-1E+10	1	-1E+10	1
4902551	119	C	12/02/2023	03:03	-131.015	46.795	0	12.10	0	11.8100	0	32.3360	0	24.557	0	11.999	0	248.8	4	92.4	4	-1E+10	1	-1E+10	1	-1E+10	1	-1E+10	1	-1E+10	1	-1E+10	1
4902551	119	C	12/02/2023	03:03	-131.015	46.795	0	13.10	0	11.8090	0	32.3350	0	24.556	0	12.991	0	248.7	4	92.3	4	-1E+10	1	-1E+10	1	-1E+10	1	-1E+10	1	-1E+10	1	-1E+10	1
4902551	119	C	12/02/2023	03:03	-131.015	46.795	0	13.90	0	11.8090	0	32.3350	0	24.556	0	13.784	0	248.6	4	92.3	4	-1E+10	1	-1E+10	1	-1E+10	1	-1E+10	1	-1E+10	1	-1E+10	1
4902551	119	C	12/02/2023	03:03	-131.015	46.795	0	14.80	0	11.8090	0	32.3360	0	24.557	0	14.677	0	248.6	4	92.3	4	-1E+10	1	-1E+10	1	-1E+10	1	-1E+10	1	-1E+10	1	-1E+10	1
4902551	119	C	12/02/2023	03:03	-131.015	46.795	0	15.90	0	11.8090	0	32.3370	0	24.558	0	15.768	0	248.7	4	92.3	4	-1E+10	1	-1E+10	1	-1E+10	1	-1E+10	1	-1E+10	1	-1E+10	1
4902551	119	C	12/02/2023	03:03	-131.015	46.795	0	16.60	0	11.8100	0	32.3370	0	24.558	0	16.462	0	248.6	4	92.3	4	-1E+10	1	-1E+10	1	-1E+10	1	-1E+10	1	-1E+10	1	-1E+10	1
4902551	119	C	12/02/2023	03:03	-131.015	46.795	0	17.90	0	11.8100	0	32.3360	0	24.557	0	17.751	0	248.6	4	92.3	4	-1E+10	1	-1E+10	1	-1E+10	1	-1E+10	1	-1E+10	1	-1E+10	1
4902551	119	C	12/02/2023	03:03	-131.015	46.795	0	19.00	0	11.8100	0	32.3360	0	24.557	0	18.842	0	248.6	4	92.3	4	-1E+10	1	-1E+10	1	-1E+10	1	-1E+10	1	-1E+10	1	-1E+10	1
4902551	119	C	12/02/2023	03:03	-131.015	46.795	0	19.90	0	11.8100	0	32.3370	0	24.558	0	19.734	0	248.5	4	92.3	4	-1E+10	1	-1E+10	1	-1E+10	1	-1E+10	1	-1E+10	1	-1E+10	1
4902551	119	C	12/02/2023	03:03	-131.015	46.795	0	20.70	0	11.8110	0	32.3370	0	24.557	0	20.528	0	248.5	4	92.3	4	-1E+10	1	-1E+10	1	-1E+10	1	-1E+10	1	-1E+10	1	-1E+10	1
4902551	119	C	12/02/2023	03:03	-131.015	46.795	0	22.00	0	11.8110	0	32.3370	0	24.558	0	21.817	0	248.6	4	92.3	4	-1E+10	1	-1E+10	1	-1E+10	1	-1E+10	1	-1E+10	1	-1E+10	1
4902551	119	C	12/02/2023	03:03	-131.015	46.795	0	23.10	0	11.8110	0	32.3370	0	24.558	0	22.907	0	248.5	4	92.3	4	-1E+10	1	-1E+10	1	-1E+10	1	-1E+10	1	-1E+10	1	-1E+10	1
4902551	119	C	12/02/2023	03:03	-131.015	46.795	0	23.90	0	11.8100	0	32.3370	0	24.558	0	23.701	0	248.5	4	92.3	4	-1E+10	1	-1E+10	1	-1E+10	1	-1E+10	1	-1E+10	1	-1E+10	1
4902551	119	C	12/02/2023	03:03	-131.015	46.795	0	24.80	0	11.8100	0	32.3370	0	24.558	0	24.593	0	248.5	4	92.3	4	-1E+10	1	-1E+10	1	-1E+10	1	-1E+10	1	-1E+10	1	-1E+10	1
4902551	119	C	12/02/2023	03:03	-131.015	46.795	0	25.90	0	11.8110	0	32.3370	0	24.558	0	25.684	0	248.5	4	92.3	4	-1E+10	1	-1E+10	1	-1E+10	1	-1E+10	1	-1E+10	1	-1E+10	1
4902551	119	C	12/02/2023	03:03	-131.015	46.795	0	27.00	0	11.8100	0	32.3380	0	24.559	0	26.775	0	248.4	4	92.2	4	-1E+10	1	-1E+10	1	-1E+10	1	-1E+10	1	-1E+10	1	-1E+10	1
4902551	119	C	12/02/2023	03:03	-131.015	46.795	0	28.00	0	11.8090	0	32.3370	0	24.558	0	27.766	0	248.5	4	92.3	4	-1E+10	1	-1E+10	1	-1E+10	1	-1E+10	1	-1E+10	1	-1E+10	1
4902551	119	C	12/02/2023	03:03	-131.015	46.795	0	29.10	0	11.8090	0	32.3370	0	24.558	0	28.857	0	248.4	4	92.2	4	-1E+10	1	-1E+10	1	-1E+10	1	-1E+10	1	-1E+10	1	-1E+10	1
4902551	119	C	12/02/2023	03:03	-131.015	46.795	0	30.00	0	11.8090	0	32.3360	0	24.557	0	29.749	0	248.4	4	92.2	4	-1E+10	1	-1E+10	1	-1E+10	1	-1E+10	1	-1E+10	1	-1E+10	1
4902551	119	C	12/02/2023	03:03	-131.015	46.795	0	31.10	0	11.8090	0	32.3360	0	24.557	0	30.840	0	248.4	4	92.2	4	-1E+10	1	-1E+10	1	-1E+10	1	-1E+10	1	-1E+10	1	-1E+10	1
4902551	119	C	12/02/2023	03:03	-131.015	46.795	0	32.00	0	11.8090	0	32.3360	0	24.557	0	31.733	0	248.4	4	92.2	4	-1E+10	1	-1E+10	1	-1E+10	1	-1E+10	1	-1E+10	1	-1E+10	1
4902551	119	C	12/02/2023	03:03	-131.015	46.795	0	33.10	0	11.8090	0	32.3370	0	24.558	0	32.823	0	248.3	4	92.2	4	-1E+10	1	-1E+10	1	-1E+10	1	-1E+10	1	-1E+10	1	-1E+10	1
4902551	119	C	12/02/2023	03:03	-131.015	46.795	0	34.10	0	11.8100	0	32.3360	0	24.557	0	33.815	0	248.3	4	92.2	4	-1E+10	1	-1E+10	1	-1E+10	1	-1E+10	1	-1E+10	1	-1E+10	1
4902551	119	C	12/02/2023	03:03	-131.015	46.795	0	35.30	0	11.8100	0	32.3370	0	24.558	0	35.005	0	248.2	4	92.2	4	-1E+10	1	-1E+10	1	-1E+10	1	-1E+10	1	-1E+10	1	-1E+10	1
4902551	119	C	12/02/2023	03:03	-131.015	46.795	0	36.00	0	11.8100	0	32.3370	0	24.558	0	35.699	0	248.2	4	92.2	4	-1E+10	1	-1E+10	1	-1E+10	1	-1E+10	1	-1E+10	1	-1E+10	1
4902551	119	C	12/02/2023	03:03	-131.015	46.795	0	37.00	0	11.8100	0	32.3360	0	24.557	0	36.690	0	248.1	4	92.1	4	-1E+10	1	-1E+10	1	-1E+10	1	-1E+10	1	-1E+10	1	-1E+10	1
4902551	119	C	12/02/2023	03:03	-131.015	46.795	0	37.90	0	11.8110	0	32.3370	0	24.558	0	37.583	0	248.1	4	92.1	4	-1E+10	1	-1E+10	1	-1E+10	1	-1E+10	1	-1E+10	1	-1E+10	1
4902551	119	C	12/02/2023	03:03	-131.015	46.795	0	38.70	0	11.8110	0	32.3370	0	24.558	0	38.376	0	248.1	4	92.1	4	-1E+10	1	-1E+10	1	-1E+10	1	-1E+10	1	-1E+10	1	-1E+10	1
4902551	119	C	12/02/2023	03:03	-131.015	46.795	0	39.70	0	11.8090	0	32.3370	0	24.558	0	39.367	0	248.0	4	92.1	4	-1E+10	1	-1E+10	1	-1E+10	1	-1E+10	1	-1E+10	1	-1E+10	1
4902551	119	C	12/02/2023	03:03	-131.015	46.795	0	40.80	0	11.8040	0	32.3380	0	24.560	0	40.458	0	247.9	4	92.0	4	-1E+10	1	-1E+10	1	-1E+10	1	-1E+10	1	-1E+10	1	-1E+10	1
4902551	119	C	12/02/2023	03:03	-131.015	46.795	0	41.80	0	11.7960	0	32.3370	0	24.561	0	41.450	0	247.9	4	92.0	4	-1E+10	1	-1E+10	1	-1E+10	1	-1E+10	1	-1E+10	1	-1E+10	1
4902551	119	C	12/02/2023	03:03	-131.015	46.795	0	42.80	0	11.7810	0	32.3360	0	24.563	0	42.441	0	247.9	4	92.0	4	-1E+10	1	-1E+10	1	-1E+10	1	-1E+10	1	-1E+10	1	-1E+10	1
4902551	119	C	12/02/2023	03:03	-131.015	46.795	0	44.10	0	11.7710	0	32.3380	0	24.566	0	43.730	0	247.8	4	91.9	4	-1E+10	1	-1E+10	1	-1E+10	1	-1E+10	1	-1E+10	1	-1E+10	1
4902551	119	C	12/02/2023	03:03	-131.015	46.795	0	45.10	0	11.7850	0	32.3380	0	24.564	0	44.722	0	247.7	4	91.9	4	-1E+10	1	-1E+10	1	-1E+10	1	-1E+10	1	-1E+10	1	-1E+10	1
4902551	119	C	12/02/2023	03:03	-131.015	46.795	0	46.10	0	11.7780	0	32.3380	0	24.565	0	45.713	0	247.7	4	91.9	4	-1E+10	1	-1E+10	1	-1E+10	1	-1E+10	1	-1E+10	1	-1E+10	1
4902551	119	C	12/02/2023	03:03	-131.015	46.795	0	47.20	0	11.7800	0	32.3390	0	24.565	0	46.804	0	247.5	4	91.8	4	-1E+10	1	-1E+10	1	-1E+10	1	-1E+10	1	-1E+10	1	-1E+10	1
4902551	119	C	12/02/2023	03:03	-131.015	46.795	0	47.90	0	11.7870	0	32.3380	0	24.563	0	47.498	0	247.3	4	91.8	4	-1E+10	1	-1E+10	1	-1E+10	1	-1E+10	1	-1E+10	1	-1E+10	1
4902551	119	C	12/02/2023	03:03	-131.015	46.795	0	48.80	0	11.7920	0	32.3360	0	24.561	0	48.390	0	247.3	4	91.8	4	-1E+10	1	-1E+10	1	-1E+10	1	-1E+10	1	-1E+10	1	-1E+10	1
4902551	119	C	12/02/2023	03:03	-131.015	46.795	0	49.90	0	11.7930	0	32.3410	0	24.565	0	49.481	0	247.0	4	91.7	4	-1E+10	1	-1E+10	1	-1E+10	1	-1E+10	1	-1E+10	1	-1E+10	1
4902551	119	C	12/02/2023	03:03	-131.015	46.795	0	51.00	0	11.7920	0	32.3370	0	24.562	0	50.571	0	246.9	4	91.6	4	-1E+10	1	-1E+10	1	-1E+10	1	-1E+10	1	-1E+10	1	-1E+10	1
4902551	119	C	12/02/2023	03:03	-131.015	46.795	0	52.10	0	11.7900	0	32.3360	0	24.561	0	51.662	0	246.7	4	91.6	4	-1E+10	1	-1E+10	1	-1E+10	1	-1E+10	1	-1E+10	1	-1E+10	1
4902551	119	C	12/02/2023	03:03	-131.015	46.795	0	52.80	0	11.7610	0	32.3390	0	24.569	0	52.356	0	246.7	4	91.5	4	-1E+10	1	-1E+10	1	-1E+10	1	-1E+10	1	-1E+10	1	-1E+10	1
4902551	119	C	12/02/2023	03:03	-131.015	46.795	0	53.80	0	11.7560	0	32.3400	0	24.571	0	53.347	0	246.4	4	91.4	4	-1E+10	1	-1E+10	1	-1E+10	1	-1E+10	1	-1E+10	1	-1E+10	1
4902551	119	C	12/02/2023	03:03	-131.015	46.795	0	54.90	0	11.7580	0	32.3370	0	24.568	0	54.438	0	246.2	4	91.3	4	-1E+10	1	-1E+10	1	-1E+10	1	-1E+10	1	-1E+10	1	-1E+10	1
4902551	119	C	12/02/2023	03:03	-131.015	46.795	0	55.80	0	11.7590	0	32.3370	0	24.568	0	55.330	0	245.9	4	91.2	4	-1E+10	1	-1E+10	1	-1E+10	1	-1E+10	1	-1E+10	1	-1E+10	1
4902551	119	C	12/02/2023	03:03	-131.015	46.795	0	57.00	0	11.7470	0	32.3360	0	24.569	0	56.520	0	245.6	4	91.1	4	-1E+10	1	-1E+10	1	-1E+10	1	-1E+10	1	-1E+10	1	-1E+10	1
4902551	119	C	12/02/2023	03:03	-131.015	46.795	0	58.30	0	11.7190	0	32.3370	0	24.575	0	57.809	0	245.1	4	90.8	4	-1E+10	1	-1E+10	1	-1E+10	1	-1E+10	1	-1E+10	1	-1E+10	1
4902551	119	C	12/02/2023	03:03	-131.015	46.795	0	59.00	0	11.6550	0	32.3380	0	24.588	0	58.503	0	245.1	4	90.7	4	-1E+10	1	-1E+10	1	-1E+10	1	-1E+10	1	-1E+10	1	-1E+10	1
4902551	119	C	12/02/2023	03:03	-131.015	46.795	0	60.00	0	11.4660	0	32.3590	0	24.638	0	59.494	0	245.6	4	90.5	4	-1E+10	1	-1E+10	1	-1E+10	1	-1E+10	1	-1E+10	1	-1E+10	1
4902551	119	C	12/02/2023	03:03	-131.015	46.795	0	61.00	0	11.3970	0	32.3470	0	24.641	0	60.486	0	245.6	4	90.4	4	-1E+10	1	-1E+10	1	-1E+10	1	-1E+10	1	-1E+10	1	-1E+10	1
4902551	119	C	12/02/2023	03:03	-131.015	46.795	0	61.90	0	11.3350	0	32.3480	0	24.653	0	61.378	0	245.6	4	90.3	4	-1E+10	1	-1E+10	1	-1E+10	1	-1E+10	1	-1E+10	1	-1E+10	1
4902551	119	C	12/02/2023	03:03	-131.015	46.795	0	63.00	0	11.2820	0	32.3460	0	24.661	0	62.469	0	245.8	4	90.3	4	-1E+10	1	-1E+10	1	-1E+10	1	-1E+10	1	-1E+10	1	-1E+10	1
4902551	119	C	12/02/2023	03:03	-131.015	46.795	0	64.20	0	11.1060	0	32.3390	0	24.687	0	63.658	0	245.3	4	89.7	4	-1E+10	1	-1E+10	1	-1E+10	1	-1E+10	1	-1E+10	1	-1E+10	1
4902551	119	C	12/02/2023	03:03	-131.015	46.795	0	64.90	0	10.5970	0	32.3570	0	24.790	0	64.352	0	247.2	4	89.5	4	-1E+10	1	-1E+10	1	-1E+10	1	-1E+10	1	-1E+10	1	-1E+10	1
4902551	119	C	12/02/2023	03:03	-131.015	46.795	0	66.00	0	10.1750	0	32.3690	0	24.871	0	65.443	0	247.8	4	88.9	4	-1E+10	1	-1E+10	1	-1E+10	1	-1E+10	1	-1E+10	1	-1E+10	1
4902551	119	C	12/02/2023	03:03	-131.015	46.795	0	66.90	0	10.0910	0	32.3690	0	24.885	0	66.335	0	247.9	4	88.7	4	-1E+10	1	-1E+10	1	-1E+10	1	-1E+10	1	-1E+10	1	-1E+10	1
4902551	119	C	12/02/2023	03:03	-131.015	46.795	0	67.90	0	9.8930	0	32.3620	0	24.912	0	67.327	0	248.5	4	88.6	4	-1E+10	1	-1E+10	1	-1E+10	1	-1E+10	1	-1E+10	1	-1E+10	1
4902551	119	C	12/02/2023	03:03	-131.015	46.795	0	68.90	0	9.4430	0	32.3790	0	24.998	0	68.318	0	248.7	4	87.8	4	-1E+10	1	-1E+10	1	-1E+10	1	-1E+10	1	-1E+10	1	-1E+10	1
4902551	119	C	12/02/2023	03:03	-131.015	46.795	0	70.10	0	9.0370	0	32.4100	0	25.086	0	69.508	0	248.6	4	87.0	4	-1E+10	1	-1E+10	1	-1E+10	1	-1E+10	1	-1E+10	1	-1E+10	1
4902551	119	C	12/02/2023	03:03	-131.015	46.795	0	70.70	0	8.8440	0	32.4160	0	25.121	0	70.102	0	248.3	4	86.6	4	-1E+10	1	-1E+10	1	-1E+10	1	-1E+10	1	-1E+10	1	-1E+10	1
4902551	119	C	12/02/2023	03:03	-131.015	46.795	0	71.80	0	8.4970	0	32.4200	0	25.176	0	71.193	0	248.2	4	85.9	4	-1E+10	1	-1E+10	1	-1E+10	1	-1E+10	1	-1E+10	1	-1E+10	1
4902551	119	C	12/02/2023	03:03	-131.015	46.795	0	73.10	0	8.3450	0	32.4260	0	25.204	0	72.482	0	247.1	4	85.2	4	-1E+10	1	-1E+10	1	-1E+10	1	-1E+10	1	-1E+10	1	-1E+10	1
4902551	119	C	12/02/2023	03:03	-131.015	46.795	0	73.90	0	8.2960	0	32.4280	0	25.213	0	73.275	0	245.6	4	84.6	4	-1E+10	1	-1E+10	1	-1E+10	1	-1E+10	1	-1E+10	1	-1E+10	1
4902551	119	C	12/02/2023	03:03	-131.015	46.795	0	74.90	0	8.1580	0	32.4360	0	25.239	0	74.266	0	244.0	4	83.8	4	-1E+10	1	-1E+10	1	-1E+10	1	-1E+10	1	-1E+10	1	-1E+10	1
4902551	119	C	12/02/2023	03:03	-131.015	46.795	0	76.00	0	8.0820	0	32.4390	0	25.253	0	75.357	0	241.8	4	82.9	4	-1E+10	1	-1E+10	1	-1E+10	1	-1E+10	1	-1E+10	1	-1E+10	1
4902551	119	C	12/02/2023	03:03	-131.015	46.795	0	77.10	0	8.0560	0	32.4410	0	25.258	0	76.447	0	239.7	4	82.1	4	-1E+10	1	-1E+10	1	-1E+10	1	-1E+10	1	-1E+10	1	-1E+10	1
4902551	119	C	12/02/2023	03:03	-131.015	46.795	0	77.90	0	8.0460	0	32.4450	0	25.262	0	77.240	0	237.8	4	81.4	4	-1E+10	1	-1E+10	1	-1E+10	1	-1E+10	1	-1E+10	1	-1E+10	1
4902551	119	C	12/02/2023	03:03	-131.015	46.795	0	78.90	0	8.0240	0	32.4500	0	25.270	0	78.232	0	235.1	4	80.5	4	-1E+10	1	-1E+10	1	-1E+10	1	-1E+10	1	-1E+10	1	-1E+10	1
4902551	119	C	12/02/2023	03:03	-131.015	46.795	0	79.90	0	7.9520	0	32.4660	0	25.293	0	79.223	0	232.7	4	79.6	4	-1E+10	1	-1E+10	1	-1E+10	1	-1E+10	1	-1E+10	1	-1E+10	1
4902551	119	C	12/02/2023	03:03	-131.015	46.795	0	81.10	0	7.7800	0	32.4890	0	25.335	0	80.413	0	229.7	4	78.2	4	-1E+10	1	-1E+10	1	-1E+10	1	-1E+10	1	-1E+10	1	-1E+10	1
4902551	119	C	12/02/2023	03:03	-131.015	46.795	0	82.00	0	7.8320	0	32.5330	0	25.362	0	81.305	0	226.6	4	77.3	4	-1E+10	1	-1E+10	1	-1E+10	1	-1E+10	1	-1E+10	1	-1E+10	1
4902551	119	C	12/02/2023	03:03	-131.015	46.795	0	83.00	0	7.9140	0	32.5780	0	25.386	0	82.296	0	230.8	4	78.9	4	-1E+10	1	-1E+10	1	-1E+10	1	-1E+10	1	-1E+10	1	-1E+10	1
4902551	119	C	12/02/2023	03:03	-131.015	46.795	0	83.90	0	7.7960	0	32.6120	0	25.430	0	83.188	0	229.9	4	78.4	4	-1E+10	1	-1E+10	1	-1E+10	1	-1E+10	1	-1E+10	1	-1E+10	1
4902551	119	C	12/02/2023	03:03	-131.015	46.795	0	84.80	0	7.7410	0	32.6290	0	25.451	0	84.080	0	228.4	4	77.8	4	-1E+10	1	-1E+10	1	-1E+10	1	-1E+10	1	-1E+10	1	-1E+10	1
4902551	119	C	12/02/2023	03:03	-131.015	46.795	0	86.00	0	7.7580	0	32.6460	0	25.462	0	85.270	0	225.9	4	77.0	4	-1E+10	1	-1E+10	1	-1E+10	1	-1E+10	1	-1E+10	1	-1E+10	1
4902551	119	C	12/02/2023	03:03	-131.015	46.795	0	86.90	0	7.7990	0	32.6660	0	25.472	0	86.162	0	223.8	4	76.3	4	-1E+10	1	-1E+10	1	-1E+10	1	-1E+10	1	-1E+10	1	-1E+10	1
4902551	119	C	12/02/2023	03:03	-131.015	46.795	0	87.80	0	7.8140	0	32.6880	0	25.487	0	87.054	0	222.1	4	75.8	4	-1E+10	1	-1E+10	1	-1E+10	1	-1E+10	1	-1E+10	1	-1E+10	1
4902551	119	C	12/02/2023	03:03	-131.015	46.795	0	88.80	0	7.8050	0	32.7220	0	25.515	0	88.046	0	220.0	4	75.1	4	-1E+10	1	-1E+10	1	-1E+10	1	-1E+10	1	-1E+10	1	-1E+10	1
4902551	119	C	12/02/2023	03:03	-131.015	46.795	0	89.80	0	7.8170	0	32.7410	0	25.528	0	89.037	0	218.3	4	74.5	4	-1E+10	1	-1E+10	1	-1E+10	1	-1E+10	1	-1E+10	1	-1E+10	1
4902551	119	C	12/02/2023	03:03	-131.015	46.795	0	91.00	0	7.8310	0	32.7520	0	25.535	0	90.226	0	216.7	4	74.0	4	-1E+10	1	-1E+10	1	-1E+10	1	-1E+10	1	-1E+10	1	-1E+10	1
4902551	119	C	12/02/2023	03:03	-131.015	46.795	0	92.10	0	7.8350	0	32.7580	0	25.539	0	91.317	0	214.6	4	73.3	4	-1E+10	1	-1E+10	1	-1E+10	1	-1E+10	1	-1E+10	1	-1E+10	1
4902551	119	C	12/02/2023	03:03	-131.015	46.795	0	93.00	0	7.8630	0	32.7730	0	25.547	0	92.209	0	213.1	4	72.9	4	-1E+10	1	-1E+10	1	-1E+10	1	-1E+10	1	-1E+10	1	-1E+10	1
4902551	119	C	12/02/2023	03:03	-131.015	46.795	0	94.00	0	7.8720	0	32.7800	0	25.551	0	93.200	0	211.9	4	72.5	4	-1E+10	1	-1E+10	1	-1E+10	1	-1E+10	1	-1E+10	1	-1E+10	1
4902551	119	C	12/02/2023	03:03	-131.015	46.795	0	95.10	0	7.8760	0	32.8100	0	25.574	0	94.291	0	210.3	4	71.9	4	-1E+10	1	-1E+10	1	-1E+10	1	-1E+10	1	-1E+10	1	-1E+10	1
4902551	119	C	12/02/2023	03:03	-131.015	46.795	0	95.80	0	7.8480	0	32.8220	0	25.587	0	94.985	0	208.9	4	71.4	4	-1E+10	1	-1E+10	1	-1E+10	1	-1E+10	1	-1E+10	1	-1E+10	1
4902551	119	C	12/02/2023	03:03	-131.015	46.795	0	96.80	0	7.8480	0	32.8340	0	25.597	0	95.976	0	206.0	4	70.4	4	-1E+10	1	-1E+10	1	-1E+10	1	-1E+10	1	-1E+10	1	-1E+10	1
4902551	119	C	12/02/2023	03:03	-131.015	46.795	0	97.90	0	7.8760	0	32.8640	0	25.616	0	97.066	0	202.9	4	69.4	4	-1E+10	1	-1E+10	1	-1E+10	1	-1E+10	1	-1E+10	1	-1E+10	1
4902551	119	C	12/02/2023	03:03	-131.015	46.795	0	99.10	0	7.9100	0	32.8900	0	25.632	0	98.256	0	200.8	4	68.8	4	-1E+10	1	-1E+10	1	-1E+10	1	-1E+10	1	-1E+10	1	-1E+10	1
4902551	119	C	12/02/2023	03:03	-131.015	46.795	0	100.00	0	7.9380	0	32.9150	0	25.647	0	99.148	0	199.9	4	68.5	4	-1E+10	1	-1E+10	1	-1E+10	1	-1E+10	1	-1E+10	1	-1E+10	1
4902551	119	C	12/02/2023	03:03	-131.015	46.795	0	100.90	0	7.9420	0	32.9230	0	25.653	0	100.040	0	198.9	4	68.2	4	-1E+10	1	-1E+10	1	-1E+10	1	-1E+10	1	-1E+10	1	-1E+10	1
4902551	119	C	12/02/2023	03:03	-131.015	46.795	0	102.10	0	7.9600	0	32.9360	0	25.661	0	101.229	0	197.2	4	67.6	4	-1E+10	1	-1E+10	1	-1E+10	1	-1E+10	1	-1E+10	1	-1E+10	1
4902551	119	C	12/02/2023	03:03	-131.015	46.795	0	103.00	0	7.9540	0	32.9350	0	25.661	0	102.122	0	195.9	4	67.2	4	-1E+10	1	-1E+10	1	-1E+10	1	-1E+10	1	-1E+10	1	-1E+10	1
4902551	119	C	12/02/2023	03:03	-131.015	46.795	0	103.90	0	7.9580	0	32.9360	0	25.661	0	103.014	0	194.5	4	66.7	4	-1E+10	1	-1E+10	1	-1E+10	1	-1E+10	1	-1E+10	1	-1E+10	1
4902551	119	C	12/02/2023	03:03	-131.015	46.795	0	105.10	0	7.9670	0	32.9400	0	25.663	0	104.203	0	192.4	4	66.0	4	-1E+10	1	-1E+10	1	-1E+10	1	-1E+10	1	-1E+10	1	-1E+10	1
4902551	119	C	12/02/2023	03:03	-131.015	46.795	0	106.10	0	7.9880	0	32.9560	0	25.672	0	105.194	0	190.3	4	65.3	4	-1E+10	1	-1E+10	1	-1E+10	1	-1E+10	1	-1E+10	1	-1E+10	1
4902551	119	C	12/02/2023	03:03	-131.015	46.795	0	107.10	0	8.0020	0	32.9690	0	25.681	0	106.185	0	188.0	4	64.6	4	-1E+10	1	-1E+10	1	-1E+10	1	-1E+10	1	-1E+10	1	-1E+10	1
4902551	119	C	12/02/2023	03:03	-131.015	46.795	0	108.10	0	8.0120	0	32.9780	0	25.686	0	107.177	0	185.0	4	63.5	4	-1E+10	1	-1E+10	1	-1E+10	1	-1E+10	1	-1E+10	1	-1E+10	1
4902551	119	C	12/02/2023	03:03	-131.015	46.795	0	109.30	0	8.0440	0	33.0220	0	25.716	0	108.366	0	181.3	4	62.3	4	-1E+10	1	-1E+10	1	-1E+10	1	-1E+10	1	-1E+10	1	-1E+10	1
4902551	119	C	12/02/2023	03:03	-131.015	46.795	0	110.00	0	8.0520	0	33.0390	0	25.728	0	109.060	0	179.1	4	61.6	4	-1E+10	1	-1E+10	1	-1E+10	1	-1E+10	1	-1E+10	1	-1E+10	1
4902551	119	C	12/02/2023	03:03	-131.015	46.795	0	111.10	0	8.0670	0	33.0760	0	25.755	0	110.150	0	176.2	4	60.6	4	-1E+10	1	-1E+10	1	-1E+10	1	-1E+10	1	-1E+10	1	-1E+10	1
4902551	119	C	12/02/2023	03:03	-131.015	46.795	0	112.20	0	8.0640	0	33.1080	0	25.781	0	111.241	0	173.3	4	59.7	4	-1E+10	1	-1E+10	1	-1E+10	1	-1E+10	1	-1E+10	1	-1E+10	1
4902551	119	C	12/02/2023	03:03	-131.015	46.795	0	113.10	0	8.0940	0	33.1510	0	25.810	0	112.133	0	171.5	4	59.1	4	-1E+10	1	-1E+10	1	-1E+10	1	-1E+10	1	-1E+10	1	-1E+10	1
4902551	119	C	12/02/2023	03:03	-131.015	46.795	0	114.00	0	8.0850	0	33.1870	0	25.840	0	113.025	0	170.0	4	58.6	4	-1E+10	1	-1E+10	1	-1E+10	1	-1E+10	1	-1E+10	1	-1E+10	1
4902551	119	C	12/02/2023	03:03	-131.015	46.795	0	114.90	0	8.0950	0	33.2040	0	25.852	0	113.917	0	168.7	4	58.2	4	-1E+10	1	-1E+10	1	-1E+10	1	-1E+10	1	-1E+10	1	-1E+10	1
4902551	119	C	12/02/2023	03:03	-131.015	46.795	0	116.00	0	8.1140	0	33.2140	0	25.857	0	115.007	0	166.8	4	57.5	4	-1E+10	1	-1E+10	1	-1E+10	1	-1E+10	1	-1E+10	1	-1E+10	1
4902551	119	C	12/02/2023	03:03	-131.015	46.795	0	116.90	0	8.1250	0	33.2230	0	25.862	0	115.899	0	165.3	4	57.0	4	-1E+10	1	-1E+10	1	-1E+10	1	-1E+10	1	-1E+10	1	-1E+10	1
4902551	119	C	12/02/2023	03:03	-131.015	46.795	0	117.80	0	8.1280	0	33.2400	0	25.875	0	116.791	0	163.5	4	56.4	4	-1E+10	1	-1E+10	1	-1E+10	1	-1E+10	1	-1E+10	1	-1E+10	1
4902551	119	C	12/02/2023	03:03	-131.015	46.795	0	118.90	0	8.1140	0	33.2870	0	25.914	0	117.881	0	161.8	4	55.8	4	-1E+10	1	-1E+10	1	-1E+10	1	-1E+10	1	-1E+10	1	-1E+10	1
4902551	119	C	12/02/2023	03:03	-131.015	46.795	0	119.90	0	8.0840	0	33.3340	0	25.955	0	118.873	0	161.1	4	55.6	4	-1E+10	1	-1E+10	1	-1E+10	1	-1E+10	1	-1E+10	1	-1E+10	1
4902551	119	C	12/02/2023	03:03	-131.015	46.795	0	120.80	0	8.0220	0	33.3680	0	25.991	0	119.765	0	160.6	4	55.3	4	-1E+10	1	-1E+10	1	-1E+10	1	-1E+10	1	-1E+10	1	-1E+10	1
4902551	119	C	12/02/2023	03:03	-131.015	46.795	0	121.90	0	7.9380	0	33.3990	0	26.028	0	120.855	0	160.5	4	55.2	4	-1E+10	1	-1E+10	1	-1E+10	1	-1E+10	1	-1E+10	1	-1E+10	1
4902551	119	C	12/02/2023	03:03	-131.015	46.795	0	123.00	0	7.8860	0	33.4130	0	26.046	0	121.945	0	160.5	4	55.1	4	-1E+10	1	-1E+10	1	-1E+10	1	-1E+10	1	-1E+10	1	-1E+10	1
4902551	119	C	12/02/2023	03:03	-131.015	46.795	0	123.90	0	7.8760	0	33.4180	0	26.052	0	122.837	0	160.4	4	55.1	4	-1E+10	1	-1E+10	1	-1E+10	1	-1E+10	1	-1E+10	1	-1E+10	1
4902551	119	C	12/02/2023	03:03	-131.015	46.795	0	124.70	0	7.8630	0	33.4240	0	26.058	0	123.630	0	160.4	4	55.1	4	-1E+10	1	-1E+10	1	-1E+10	1	-1E+10	1	-1E+10	1	-1E+10	1
4902551	119	C	12/02/2023	03:03	-131.015	46.795	0	125.90	0	7.8580	0	33.4380	0	26.070	0	124.819	0	160.4	4	55.1	4	-1E+10	1	-1E+10	1	-1E+10	1	-1E+10	1	-1E+10	1	-1E+10	1
4902551	119	C	12/02/2023	03:03	-131.015	46.795	0	126.90	0	7.8110	0	33.4430	0	26.081	0	125.810	0	160.5	4	55.1	4	-1E+10	1	-1E+10	1	-1E+10	1	-1E+10	1	-1E+10	1	-1E+10	1
4902551	119	C	12/02/2023	03:03	-131.015	46.795	0	127.80	0	7.7760	0	33.4380	0	26.082	0	126.702	0	160.4	4	55.0	4	-1E+10	1	-1E+10	1	-1E+10	1	-1E+10	1	-1E+10	1	-1E+10	1
4902551	119	C	12/02/2023	03:03	-131.015	46.795	0	129.10	0	7.7450	0	33.4400	0	26.088	0	127.991	0	160.2	4	54.9	4	-1E+10	1	-1E+10	1	-1E+10	1	-1E+10	1	-1E+10	1	-1E+10	1
4902551	119	C	12/02/2023	03:03	-131.015	46.795	0	130.10	0	7.7190	0	33.4460	0	26.096	0	128.982	0	159.9	4	54.8	4	-1E+10	1	-1E+10	1	-1E+10	1	-1E+10	1	-1E+10	1	-1E+10	1
4902551	119	C	12/02/2023	03:03	-131.015	46.795	0	131.10	0	7.7000	0	33.4470	0	26.100	0	129.973	0	159.6	4	54.6	4	-1E+10	1	-1E+10	1	-1E+10	1	-1E+10	1	-1E+10	1	-1E+10	1
4902551	119	C	12/02/2023	03:03	-131.015	46.795	0	132.00	0	7.6890	0	33.4460	0	26.101	0	130.865	0	159.1	4	54.5	4	-1E+10	1	-1E+10	1	-1E+10	1	-1E+10	1	-1E+10	1	-1E+10	1
4902551	119	C	12/02/2023	03:03	-131.015	46.795	0	133.00	0	7.6160	0	33.4550	0	26.118	0	131.856	0	158.5	4	54.2	4	-1E+10	1	-1E+10	1	-1E+10	1	-1E+10	1	-1E+10	1	-1E+10	1
4902551	119	C	12/02/2023	03:03	-131.015	46.795	0	134.00	0	7.5770	0	33.4640	0	26.131	0	132.847	0	157.9	4	53.9	4	-1E+10	1	-1E+10	1	-1E+10	1	-1E+10	1	-1E+10	1	-1E+10	1
4902551	119	C	12/02/2023	03:03	-131.015	46.795	0	134.90	0	7.5470	0	33.4670	0	26.137	0	133.739	0	157.0	4	53.6	4	-1E+10	1	-1E+10	1	-1E+10	1	-1E+10	1	-1E+10	1	-1E+10	1
4902551	119	C	12/02/2023	03:03	-131.015	46.795	0	135.90	0	7.5100	0	33.4790	0	26.152	0	134.730	0	156.0	4	53.2	4	-1E+10	1	-1E+10	1	-1E+10	1	-1E+10	1	-1E+10	1	-1E+10	1
4902551	119	C	12/02/2023	03:03	-131.015	46.795	0	136.80	0	7.5000	0	33.4860	0	26.159	0	135.622	0	155.0	4	52.8	4	-1E+10	1	-1E+10	1	-1E+10	1	-1E+10	1	-1E+10	1	-1E+10	1
4902551	119	C	12/02/2023	03:03	-131.015	46.795	0	137.90	0	7.4970	0	33.4870	0	26.160	0	136.712	0	153.3	4	52.3	4	-1E+10	1	-1E+10	1	-1E+10	1	-1E+10	1	-1E+10	1	-1E+10	1
4902551	119	C	12/02/2023	03:03	-131.015	46.795	0	139.10	0	7.4310	0	33.5060	0	26.184	0	137.902	0	151.6	4	51.6	4	-1E+10	1	-1E+10	1	-1E+10	1	-1E+10	1	-1E+10	1	-1E+10	1
4902551	119	C	12/02/2023	03:03	-131.015	46.795	0	139.90	0	7.4070	0	33.5180	0	26.197	0	138.694	0	150.2	4	51.1	4	-1E+10	1	-1E+10	1	-1E+10	1	-1E+10	1	-1E+10	1	-1E+10	1
4902551	119	C	12/02/2023	03:03	-131.015	46.795	0	140.70	0	7.3420	0	33.5620	0	26.241	0	139.487	0	148.8	4	50.6	4	-1E+10	1	-1E+10	1	-1E+10	1	-1E+10	1	-1E+10	1	-1E+10	1
4902551	119	C	12/02/2023	03:03	-131.015	46.795	0	141.90	0	7.2990	0	33.5990	0	26.276	0	140.676	0	147.1	4	50.0	4	-1E+10	1	-1E+10	1	-1E+10	1	-1E+10	1	-1E+10	1	-1E+10	1
4902551	119	C	12/02/2023	03:03	-131.015	46.795	0	143.10	0	7.2980	0	33.6260	0	26.297	0	141.866	0	146.2	4	49.6	4	-1E+10	1	-1E+10	1	-1E+10	1	-1E+10	1	-1E+10	1	-1E+10	1
4902551	119	C	12/02/2023	03:03	-131.015	46.795	0	144.10	0	7.3130	0	33.6400	0	26.306	0	142.857	0	145.8	4	49.6	4	-1E+10	1	-1E+10	1	-1E+10	1	-1E+10	1	-1E+10	1	-1E+10	1
4902551	119	C	12/02/2023	03:03	-131.015	46.795	0	145.00	0	7.3170	0	33.6520	0	26.315	0	143.749	0	145.8	4	49.6	4	-1E+10	1	-1E+10	1	-1E+10	1	-1E+10	1	-1E+10	1	-1E+10	1
4902551	119	C	12/02/2023	03:03	-131.015	46.795	0	145.90	0	7.3170	0	33.6570	0	26.319	0	144.641	0	145.8	4	49.6	4	-1E+10	1	-1E+10	1	-1E+10	1	-1E+10	1	-1E+10	1	-1E+10	1
4902551	119	C	12/02/2023	03:03	-131.015	46.795	0	146.80	0	7.3040	0	33.6650	0	26.327	0	145.533	0	145.9	4	49.6	4	-1E+10	1	-1E+10	1	-1E+10	1	-1E+10	1	-1E+10	1	-1E+10	1
4902551	119	C	12/02/2023	03:03	-131.015	46.795	0	148.10	0	7.3010	0	33.6690	0	26.331	0	146.821	0	146.2	4	49.7	4	-1E+10	1	-1E+10	1	-1E+10	1	-1E+10	1	-1E+10	1	-1E+10	1
4902551	119	C	12/02/2023	03:03	-131.015	46.795	0	149.00	0	7.2540	0	33.6680	0	26.337	0	147.713	0	146.4	4	49.7	4	-1E+10	1	-1E+10	1	-1E+10	1	-1E+10	1	-1E+10	1	-1E+10	1
4902551	119	C	12/02/2023	03:03	-131.015	46.795	0	149.90	0	7.1780	0	33.6660	0	26.346	0	148.605	0	146.3	4	49.6	4	-1E+10	1	-1E+10	1	-1E+10	1	-1E+10	1	-1E+10	1	-1E+10	1
4902551	119	C	12/02/2023	03:03	-131.015	46.795	0	150.90	0	7.1230	0	33.6680	0	26.355	0	149.596	0	146.0	4	49.4	4	-1E+10	1	-1E+10	1	-1E+10	1	-1E+10	1	-1E+10	1	-1E+10	1
4902551	119	C	12/02/2023	03:03	-131.015	46.795	0	151.90	0	7.0830	0	33.6720	0	26.363	0	150.587	0	145.6	4	49.2	4	-1E+10	1	-1E+10	1	-1E+10	1	-1E+10	1	-1E+10	1	-1E+10	1
4902551	119	C	12/02/2023	03:03	-131.015	46.795	0	153.00	0	7.0630	0	33.6770	0	26.370	0	151.677	0	145.1	4	49.0	4	-1E+10	1	-1E+10	1	-1E+10	1	-1E+10	1	-1E+10	1	-1E+10	1
4902551	119	C	12/02/2023	03:03	-131.015	46.795	0	154.00	0	7.0480	0	33.6830	0	26.377	0	152.668	0	144.4	4	48.8	4	-1E+10	1	-1E+10	1	-1E+10	1	-1E+10	1	-1E+10	1	-1E+10	1
4902551	119	C	12/02/2023	03:03	-131.015	46.795	0	155.10	0	7.0390	0	33.6840	0	26.379	0	153.758	0	143.7	4	48.5	4	-1E+10	1	-1E+10	1	-1E+10	1	-1E+10	1	-1E+10	1	-1E+10	1
4902551	119	C	12/02/2023	03:03	-131.015	46.795	0	155.80	0	7.0390	0	33.6820	0	26.377	0	154.451	0	143.0	4	48.3	4	-1E+10	1	-1E+10	1	-1E+10	1	-1E+10	1	-1E+10	1	-1E+10	1
4902551	119	C	12/02/2023	03:03	-131.015	46.795	0	156.90	0	7.0150	0	33.6970	0	26.393	0	155.541	0	142.2	4	48.0	4	-1E+10	1	-1E+10	1	-1E+10	1	-1E+10	1	-1E+10	1	-1E+10	1
4902551	119	C	12/02/2023	03:03	-131.015	46.795	0	158.00	0	6.9910	0	33.7080	0	26.404	0	156.632	0	141.5	4	47.8	4	-1E+10	1	-1E+10	1	-1E+10	1	-1E+10	1	-1E+10	1	-1E+10	1
4902551	119	C	12/02/2023	03:03	-131.015	46.795	0	158.80	0	6.9470	0	33.7340	0	26.431	0	157.424	0	141.2	4	47.6	4	-1E+10	1	-1E+10	1	-1E+10	1	-1E+10	1	-1E+10	1	-1E+10	1
4902551	119	C	12/02/2023	03:03	-131.015	46.795	0	159.60	0	6.9290	0	33.7320	0	26.432	0	158.217	0	141.0	4	47.5	4	-1E+10	1	-1E+10	1	-1E+10	1	-1E+10	1	-1E+10	1	-1E+10	1
4902551	119	C	12/02/2023	03:03	-131.015	46.795	0	160.80	0	6.9240	0	33.7290	0	26.430	0	159.406	0	140.5	4	47.3	4	-1E+10	1	-1E+10	1	-1E+10	1	-1E+10	1	-1E+10	1	-1E+10	1
4902551	119	C	12/02/2023	03:03	-131.015	46.795	0	162.10	0	6.9090	0	33.7340	0	26.436	0	160.694	0	140.0	4	47.2	4	-1E+10	1	-1E+10	1	-1E+10	1	-1E+10	1	-1E+10	1	-1E+10	1
4902551	119	C	12/02/2023	03:03	-131.015	46.795	0	162.90	0	6.8960	0	33.7350	0	26.439	0	161.487	0	139.7	4	47.0	4	-1E+10	1	-1E+10	1	-1E+10	1	-1E+10	1	-1E+10	1	-1E+10	1
4902551	119	C	12/02/2023	03:03	-131.015	46.795	0	163.80	0	6.8880	0	33.7410	0	26.444	0	162.379	0	139.3	4	46.9	4	-1E+10	1	-1E+10	1	-1E+10	1	-1E+10	1	-1E+10	1	-1E+10	1
4902551	119	C	12/02/2023	03:03	-131.015	46.795	0	164.60	0	6.8800	0	33.7490	0	26.452	0	163.172	0	139.0	4	46.8	4	-1E+10	1	-1E+10	1	-1E+10	1	-1E+10	1	-1E+10	1	-1E+10	1
4902551	119	C	12/02/2023	03:03	-131.015	46.795	0	165.90	0	6.8700	0	33.7530	0	26.456	0	164.460	0	138.4	4	46.6	4	-1E+10	1	-1E+10	1	-1E+10	1	-1E+10	1	-1E+10	1	-1E+10	1
4902551	119	C	12/02/2023	03:03	-131.015	46.795	0	167.20	0	6.8270	0	33.7600	0	26.468	0	165.748	0	137.7	4	46.3	4	-1E+10	1	-1E+10	1	-1E+10	1	-1E+10	1	-1E+10	1	-1E+10	1
4902551	119	C	12/02/2023	03:03	-131.015	46.795	0	168.10	0	6.8220	0	33.7600	0	26.468	0	166.640	0	137.2	4	46.1	4	-1E+10	1	-1E+10	1	-1E+10	1	-1E+10	1	-1E+10	1	-1E+10	1
4902551	119	C	12/02/2023	03:03	-131.015	46.795	0	168.90	0	6.8190	0	33.7610	0	26.470	0	167.433	0	136.6	4	45.9	4	-1E+10	1	-1E+10	1	-1E+10	1	-1E+10	1	-1E+10	1	-1E+10	1
4902551	119	C	12/02/2023	03:03	-131.015	46.795	0	169.80	0	6.8130	0	33.7630	0	26.472	0	168.325	0	135.8	4	45.7	4	-1E+10	1	-1E+10	1	-1E+10	1	-1E+10	1	-1E+10	1	-1E+10	1
4902551	119	C	12/02/2023	03:03	-131.015	46.795	0	170.60	0	6.7990	0	33.7670	0	26.477	0	169.117	0	135.2	4	45.4	4	-1E+10	1	-1E+10	1	-1E+10	1	-1E+10	1	-1E+10	1	-1E+10	1
4902551	119	C	12/02/2023	03:03	-131.015	46.795	0	171.90	0	6.7920	0	33.7690	0	26.480	0	170.405	0	134.2	4	45.1	4	-1E+10	1	-1E+10	1	-1E+10	1	-1E+10	1	-1E+10	1	-1E+10	1
4902551	119	C	12/02/2023	03:03	-131.015	46.795	0	173.20	0	6.7840	0	33.7710	0	26.482	0	171.694	0	133.0	4	44.7	4	-1E+10	1	-1E+10	1	-1E+10	1	-1E+10	1	-1E+10	1	-1E+10	1
4902551	119	C	12/02/2023	03:03	-131.015	46.795	0	174.00	0	6.7630	0	33.7740	0	26.487	0	172.486	0	132.2	4	44.4	4	-1E+10	1	-1E+10	1	-1E+10	1	-1E+10	1	-1E+10	1	-1E+10	1
4902551	119	C	12/02/2023	03:03	-131.015	46.795	0	174.90	0	6.7380	0	33.7850	0	26.499	0	173.378	0	131.5	4	44.1	4	-1E+10	1	-1E+10	1	-1E+10	1	-1E+10	1	-1E+10	1	-1E+10	1
4902551	119	C	12/02/2023	03:03	-131.015	46.795	0	175.80	0	6.7230	0	33.7790	0	26.497	0	174.270	0	130.8	4	43.9	4	-1E+10	1	-1E+10	1	-1E+10	1	-1E+10	1	-1E+10	1	-1E+10	1
4902551	119	C	12/02/2023	03:03	-131.015	46.795	0	176.60	0	6.7070	0	33.7810	0	26.500	0	175.063	0	130.0	4	43.6	4	-1E+10	1	-1E+10	1	-1E+10	1	-1E+10	1	-1E+10	1	-1E+10	1
4902551	119	C	12/02/2023	03:03	-131.015	46.795	0	177.90	0	6.6830	0	33.7870	0	26.508	0	176.351	0	128.8	4	43.2	4	-1E+10	1	-1E+10	1	-1E+10	1	-1E+10	1	-1E+10	1	-1E+10	1
4902551	119	C	12/02/2023	03:03	-131.015	46.795	0	179.20	0	6.6630	0	33.7920	0	26.515	0	177.639	0	127.5	4	42.8	4	-1E+10	1	-1E+10	1	-1E+10	1	-1E+10	1	-1E+10	1	-1E+10	1
4902551	119	C	12/02/2023	03:03	-131.015	46.795	0	180.10	0	6.6560	0	33.8010	0	26.523	0	178.531	0	126.9	4	42.5	4	-1E+10	1	-1E+10	1	-1E+10	1	-1E+10	1	-1E+10	1	-1E+10	1
4902551	119	C	12/02/2023	03:03	-131.015	46.795	0	180.90	0	6.6320	0	33.8020	0	26.527	0	179.323	0	126.2	4	42.3	4	-1E+10	1	-1E+10	1	-1E+10	1	-1E+10	1	-1E+10	1	-1E+10	1
4902551	119	C	12/02/2023	03:03	-131.015	46.795	0	181.80	0	6.6230	0	33.8030	0	26.529	0	180.215	0	125.5	4	42.0	4	-1E+10	1	-1E+10	1	-1E+10	1	-1E+10	1	-1E+10	1	-1E+10	1
4902551	119	C	12/02/2023	03:03	-131.015	46.795	0	182.70	0	6.6190	0	33.8060	0	26.532	0	181.107	0	124.8	4	41.8	4	-1E+10	1	-1E+10	1	-1E+10	1	-1E+10	1	-1E+10	1	-1E+10	1
4902551	119	C	12/02/2023	03:03	-131.015	46.795	0	183.60	0	6.6260	0	33.8070	0	26.532	0	181.999	0	124.0	4	41.5	4	-1E+10	1	-1E+10	1	-1E+10	1	-1E+10	1	-1E+10	1	-1E+10	1
4902551	119	C	12/02/2023	03:03	-131.015	46.795	0	184.90	0	6.6350	0	33.8130	0	26.535	0	183.287	0	123.1	4	41.2	4	-1E+10	1	-1E+10	1	-1E+10	1	-1E+10	1	-1E+10	1	-1E+10	1
4902551	119	C	12/02/2023	03:03	-131.015	46.795	0	186.30	0	6.5870	0	33.8190	0	26.546	0	184.674	0	122.0	4	40.8	4	-1E+10	1	-1E+10	1	-1E+10	1	-1E+10	1	-1E+10	1	-1E+10	1
4902551	119	C	12/02/2023	03:03	-131.015	46.795	0	187.20	0	6.5880	0	33.8140	0	26.542	0	185.566	0	121.2	4	40.6	4	-1E+10	1	-1E+10	1	-1E+10	1	-1E+10	1	-1E+10	1	-1E+10	1
4902551	119	C	12/02/2023	03:03	-131.015	46.795	0	188.10	0	6.6080	0	33.8140	0	26.540	0	186.457	0	120.4	4	40.3	4	-1E+10	1	-1E+10	1	-1E+10	1	-1E+10	1	-1E+10	1	-1E+10	1
4902551	119	C	12/02/2023	03:03	-131.015	46.795	0	189.00	0	6.6120	0	33.8230	0	26.546	0	187.349	0	119.6	4	40.1	4	-1E+10	1	-1E+10	1	-1E+10	1	-1E+10	1	-1E+10	1	-1E+10	1
4902551	119	C	12/02/2023	03:03	-131.015	46.795	0	189.90	0	6.6120	0	33.8310	0	26.553	0	188.241	0	118.9	4	39.8	4	-1E+10	1	-1E+10	1	-1E+10	1	-1E+10	1	-1E+10	1	-1E+10	1
4902551	119	C	12/02/2023	03:03	-131.015	46.795	0	190.90	0	6.6240	0	33.8330	0	26.553	0	189.232	0	118.3	4	39.6	4	-1E+10	1	-1E+10	1	-1E+10	1	-1E+10	1	-1E+10	1	-1E+10	1
4902551	119	C	12/02/2023	03:03	-131.015	46.795	0	191.80	0	6.6350	0	33.8380	0	26.555	0	190.123	0	117.8	4	39.5	4	-1E+10	1	-1E+10	1	-1E+10	1	-1E+10	1	-1E+10	1	-1E+10	1
4902551	119	C	12/02/2023	03:03	-131.015	46.795	0	192.80	0	6.6350	0	33.8370	0	26.554	0	191.114	0	117.2	4	39.3	4	-1E+10	1	-1E+10	1	-1E+10	1	-1E+10	1	-1E+10	1	-1E+10	1
4902551	119	C	12/02/2023	03:03	-131.015	46.795	0	193.80	0	6.6340	0	33.8380	0	26.555	0	192.105	0	116.6	4	39.1	4	-1E+10	1	-1E+10	1	-1E+10	1	-1E+10	1	-1E+10	1	-1E+10	1
4902551	119	C	12/02/2023	03:03	-131.015	46.795	0	194.70	0	6.6310	0	33.8390	0	26.556	0	192.997	0	115.8	4	38.8	4	-1E+10	1	-1E+10	1	-1E+10	1	-1E+10	1	-1E+10	1	-1E+10	1
4902551	119	C	12/02/2023	03:03	-131.015	46.795	0	195.70	0	6.6090	0	33.8390	0	26.559	0	193.987	0	115.1	4	38.6	4	-1E+10	1	-1E+10	1	-1E+10	1	-1E+10	1	-1E+10	1	-1E+10	1
4902551	119	C	12/02/2023	03:03	-131.015	46.795	0	196.60	0	6.6120	0	33.8410	0	26.560	0	194.879	0	114.3	4	38.3	4	-1E+10	1	-1E+10	1	-1E+10	1	-1E+10	1	-1E+10	1	-1E+10	1
4902551	119	C	12/02/2023	03:03	-131.015	46.795	0	197.60	0	6.5990	0	33.8400	0	26.561	0	195.870	0	113.4	4	38.0	4	-1E+10	1	-1E+10	1	-1E+10	1	-1E+10	1	-1E+10	1	-1E+10	1
4902551	119	C	12/02/2023	03:03	-131.015	46.795	0	198.60	0	6.5930	0	33.8430	0	26.565	0	196.861	0	112.3	4	37.6	4	-1E+10	1	-1E+10	1	-1E+10	1	-1E+10	1	-1E+10	1	-1E+10	1
4902551	119	C	12/02/2023	03:03	-131.015	46.795	0	199.60	0	6.6060	0	33.8450	0	26.564	0	197.851	0	111.2	4	37.2	4	-1E+10	1	-1E+10	1	-1E+10	1	-1E+10	1	-1E+10	1	-1E+10	1
4902551	119	C	12/02/2023	03:03	-131.015	46.795	0	200.60	0	6.6320	0	33.8440	0	26.560	0	198.842	0	110.0	4	36.9	4	-1E+10	1	-1E+10	1	-1E+10	1	-1E+10	1	-1E+10	1	-1E+10	1
4902551	119	C	12/02/2023	03:03	-131.015	46.795	0	201.60	0	6.6540	0	33.8620	0	26.572	0	199.833	0	109.1	4	36.6	4	-1E+10	1	-1E+10	1	-1E+10	1	-1E+10	1	-1E+10	1	-1E+10	1
4902551	119	C	12/02/2023	03:03	-131.015	46.795	0	202.60	0	6.6600	0	33.8650	0	26.573	0	200.824	0	108.2	4	36.3	4	-1E+10	1	-1E+10	1	-1E+10	1	-1E+10	1	-1E+10	1	-1E+10	1
4902551	119	C	12/02/2023	03:03	-131.015	46.795	0	203.60	0	6.6540	0	33.8760	0	26.583	0	201.814	0	107.6	4	36.1	4	-1E+10	1	-1E+10	1	-1E+10	1	-1E+10	1	-1E+10	1	-1E+10	1
4902551	119	C	12/02/2023	03:03	-131.015	46.795	0	204.60	0	6.6370	0	33.8740	0	26.583	0	202.805	0	107.1	4	35.9	4	-1E+10	1	-1E+10	1	-1E+10	1	-1E+10	1	-1E+10	1	-1E+10	1
4902551	119	C	12/02/2023	03:03	-131.015	46.795	0	205.60	0	6.6090	0	33.8710	0	26.585	0	203.796	0	106.6	4	35.7	4	-1E+10	1	-1E+10	1	-1E+10	1	-1E+10	1	-1E+10	1	-1E+10	1
4902551	119	C	12/02/2023	03:03	-131.015	46.795	0	206.70	0	6.6290	0	33.8750	0	26.585	0	204.886	0	105.9	4	35.5	4	-1E+10	1	-1E+10	1	-1E+10	1	-1E+10	1	-1E+10	1	-1E+10	1
4902551	119	C	12/02/2023	03:03	-131.015	46.795	0	207.70	0	6.6270	0	33.8780	0	26.588	0	205.876	0	105.5	4	35.4	4	-1E+10	1	-1E+10	1	-1E+10	1	-1E+10	1	-1E+10	1	-1E+10	1
4902551	119	C	12/02/2023	03:03	-131.015	46.795	0	208.80	0	6.6280	0	33.8790	0	26.588	0	206.966	0	105.0	4	35.2	4	-1E+10	1	-1E+10	1	-1E+10	1	-1E+10	1	-1E+10	1	-1E+10	1
4902551	119	C	12/02/2023	03:03	-131.015	46.795	0	209.90	0	6.6150	0	33.8780	0	26.589	0	208.056	0	104.5	4	35.0	4	-1E+10	1	-1E+10	1	-1E+10	1	-1E+10	1	-1E+10	1	-1E+10	1
4902551	119	C	12/02/2023	03:03	-131.015	46.795	0	210.90	0	6.6400	0	33.8860	0	26.592	0	209.047	0	104.2	4	34.9	4	-1E+10	1	-1E+10	1	-1E+10	1	-1E+10	1	-1E+10	1	-1E+10	1
4902551	119	C	12/02/2023	03:03	-131.015	46.795	0	212.00	0	6.6210	0	33.8980	0	26.604	0	210.136	0	104.1	4	34.9	4	-1E+10	1	-1E+10	1	-1E+10	1	-1E+10	1	-1E+10	1	-1E+10	1
4902551	119	C	12/02/2023	03:03	-131.015	46.795	0	213.10	0	6.6300	0	33.8970	0	26.602	0	211.226	0	104.1	4	34.9	4	-1E+10	1	-1E+10	1	-1E+10	1	-1E+10	1	-1E+10	1	-1E+10	1
4902551	119	C	12/02/2023	03:03	-131.015	46.795	0	214.20	0	6.6200	0	33.8920	0	26.600	0	212.316	0	104.3	4	34.9	4	-1E+10	1	-1E+10	1	-1E+10	1	-1E+10	1	-1E+10	1	-1E+10	1
4902551	119	C	12/02/2023	03:03	-131.015	46.795	0	215.30	0	6.6190	0	33.8900	0	26.598	0	213.406	0	104.4	4	35.0	4	-1E+10	1	-1E+10	1	-1E+10	1	-1E+10	1	-1E+10	1	-1E+10	1
4902551	119	C	12/02/2023	03:03	-131.015	46.795	0	216.30	0	6.6190	0	33.8910	0	26.599	0	214.396	0	104.6	4	35.0	4	-1E+10	1	-1E+10	1	-1E+10	1	-1E+10	1	-1E+10	1	-1E+10	1
4902551	119	C	12/02/2023	03:03	-131.015	46.795	0	217.40	0	6.5970	0	33.8790	0	26.593	0	215.486	0	104.8	4	35.1	4	-1E+10	1	-1E+10	1	-1E+10	1	-1E+10	1	-1E+10	1	-1E+10	1
4902551	119	C	12/02/2023	03:03	-131.015	46.795	0	218.50	0	6.3990	0	33.8720	0	26.613	0	216.576	0	104.7	4	34.9	4	-1E+10	1	-1E+10	1	-1E+10	1	-1E+10	1	-1E+10	1	-1E+10	1
4902551	119	C	12/02/2023	03:03	-131.015	46.795	0	219.60	0	6.3900	0	33.8670	0	26.610	0	217.666	0	104.0	4	34.7	4	-1E+10	1	-1E+10	1	-1E+10	1	-1E+10	1	-1E+10	1	-1E+10	1
4902551	119	C	12/02/2023	03:03	-131.015	46.795	0	220.70	0	6.3940	0	33.8690	0	26.611	0	218.755	0	103.5	4	34.5	4	-1E+10	1	-1E+10	1	-1E+10	1	-1E+10	1	-1E+10	1	-1E+10	1
4902551	119	C	12/02/2023	03:03	-131.015	46.795	0	221.80	0	6.4120	0	33.8780	0	26.616	0	219.845	0	103.2	4	34.4	4	-1E+10	1	-1E+10	1	-1E+10	1	-1E+10	1	-1E+10	1	-1E+10	1
4902551	119	C	12/02/2023	03:03	-131.015	46.795	0	222.90	0	6.4040	0	33.8810	0	26.620	0	220.935	0	102.9	4	34.3	4	-1E+10	1	-1E+10	1	-1E+10	1	-1E+10	1	-1E+10	1	-1E+10	1
4902551	119	C	12/02/2023	03:03	-131.015	46.795	0	224.00	0	6.3960	0	33.8810	0	26.621	0	222.024	0	102.7	4	34.2	4	-1E+10	1	-1E+10	1	-1E+10	1	-1E+10	1	-1E+10	1	-1E+10	1
4902551	119	C	12/02/2023	03:03	-131.015	46.795	0	225.10	0	6.3950	0	33.8800	0	26.620	0	223.114	0	102.5	4	34.2	4	-1E+10	1	-1E+10	1	-1E+10	1	-1E+10	1	-1E+10	1	-1E+10	1
4902551	119	C	12/02/2023	03:03	-131.015	46.795	0	226.20	0	6.3890	0	33.8810	0	26.622	0	224.204	0	102.3	4	34.1	4	-1E+10	1	-1E+10	1	-1E+10	1	-1E+10	1	-1E+10	1	-1E+10	1
4902551	119	C	12/02/2023	03:03	-131.015	46.795	0	227.30	0	6.3830	0	33.8820	0	26.623	0	225.294	0	102.1	4	34.0	4	-1E+10	1	-1E+10	1	-1E+10	1	-1E+10	1	-1E+10	1	-1E+10	1
4902551	119	C	12/02/2023	03:03	-131.015	46.795	0	228.30	0	6.3760	0	33.8830	0	26.625	0	226.284	0	102.0	4	34.0	4	-1E+10	1	-1E+10	1	-1E+10	1	-1E+10	1	-1E+10	1	-1E+10	1
4902551	119	C	12/02/2023	03:03	-131.015	46.795	0	229.40	0	6.3620	0	33.8820	0	26.626	0	227.374	0	101.9	4	33.9	4	-1E+10	1	-1E+10	1	-1E+10	1	-1E+10	1	-1E+10	1	-1E+10	1
4902551	119	C	12/02/2023	03:03	-131.015	46.795	0	230.50	0	6.3430	0	33.8860	0	26.631	0	228.464	0	101.7	4	33.9	4	-1E+10	1	-1E+10	1	-1E+10	1	-1E+10	1	-1E+10	1	-1E+10	1
4902551	119	C	12/02/2023	03:03	-131.015	46.795	0	231.50	0	6.3140	0	33.8800	0	26.630	0	229.454	0	101.5	4	33.8	4	-1E+10	1	-1E+10	1	-1E+10	1	-1E+10	1	-1E+10	1	-1E+10	1
4902551	119	C	12/02/2023	03:03	-131.015	46.795	0	232.60	0	6.2820	0	33.8810	0	26.635	0	230.544	0	101.2	4	33.7	4	-1E+10	1	-1E+10	1	-1E+10	1	-1E+10	1	-1E+10	1	-1E+10	1
4902551	119	C	12/02/2023	03:03	-131.015	46.795	0	233.70	0	6.2400	0	33.8740	0	26.635	0	231.634	0	100.9	4	33.5	4	-1E+10	1	-1E+10	1	-1E+10	1	-1E+10	1	-1E+10	1	-1E+10	1
4902551	119	C	12/02/2023	03:03	-131.015	46.795	0	234.80	0	6.2580	0	33.8760	0	26.635	0	232.723	0	100.7	4	33.5	4	-1E+10	1	-1E+10	1	-1E+10	1	-1E+10	1	-1E+10	1	-1E+10	1
4902551	119	C	12/02/2023	03:03	-131.015	46.795	0	235.80	0	6.2290	0	33.8840	0	26.645	0	233.714	0	100.5	4	33.4	4	-1E+10	1	-1E+10	1	-1E+10	1	-1E+10	1	-1E+10	1	-1E+10	1
4902551	119	C	12/02/2023	03:03	-131.015	46.795	0	236.90	0	6.2240	0	33.8780	0	26.640	0	234.803	0	100.2	4	33.3	4	-1E+10	1	-1E+10	1	-1E+10	1	-1E+10	1	-1E+10	1	-1E+10	1
4902551	119	C	12/02/2023	03:03	-131.015	46.795	0	238.00	0	6.1940	0	33.8710	0	26.639	0	235.893	0	99.9	4	33.1	4	-1E+10	1	-1E+10	1	-1E+10	1	-1E+10	1	-1E+10	1	-1E+10	1
4902551	119	C	12/02/2023	03:03	-131.015	46.795	0	239.00	0	6.1780	0	33.8760	0	26.645	0	236.884	0	99.4	4	33.0	4	-1E+10	1	-1E+10	1	-1E+10	1	-1E+10	1	-1E+10	1	-1E+10	1
4902551	119	C	12/02/2023	03:03	-131.015	46.795	0	240.10	0	6.1540	0	33.8820	0	26.653	0	237.973	0	99.2	4	32.9	4	-1E+10	1	-1E+10	1	-1E+10	1	-1E+10	1	-1E+10	1	-1E+10	1
4902551	119	C	12/02/2023	03:03	-131.015	46.795	0	241.10	0	6.1220	0	33.8780	0	26.653	0	238.964	0	99.0	4	32.8	4	-1E+10	1	-1E+10	1	-1E+10	1	-1E+10	1	-1E+10	1	-1E+10	1
4902551	119	C	12/02/2023	03:03	-131.015	46.795	0	242.20	0	6.1180	0	33.8780	0	26.654	0	240.053	0	98.6	4	32.7	4	-1E+10	1	-1E+10	1	-1E+10	1	-1E+10	1	-1E+10	1	-1E+10	1
4902551	119	C	12/02/2023	03:03	-131.015	46.795	0	243.20	0	6.1100	0	33.8780	0	26.655	0	241.044	0	98.3	4	32.6	4	-1E+10	1	-1E+10	1	-1E+10	1	-1E+10	1	-1E+10	1	-1E+10	1
4902551	119	C	12/02/2023	03:03	-131.015	46.795	0	244.20	0	6.1090	0	33.8770	0	26.654	0	242.035	0	97.9	4	32.4	4	-1E+10	1	-1E+10	1	-1E+10	1	-1E+10	1	-1E+10	1	-1E+10	1
4902551	119	C	12/02/2023	03:03	-131.015	46.795	0	245.30	0	6.1050	0	33.8790	0	26.656	0	243.124	0	97.5	4	32.3	4	-1E+10	1	-1E+10	1	-1E+10	1	-1E+10	1	-1E+10	1	-1E+10	1
4902551	119	C	12/02/2023	03:03	-131.015	46.795	0	246.30	0	6.1060	0	33.8780	0	26.656	0	244.115	0	97.0	4	32.1	4	-1E+10	1	-1E+10	1	-1E+10	1	-1E+10	1	-1E+10	1	-1E+10	1
4902551	119	C	12/02/2023	03:03	-131.015	46.795	0	247.30	0	6.1140	0	33.8820	0	26.658	0	245.105	0	96.5	4	31.9	4	-1E+10	1	-1E+10	1	-1E+10	1	-1E+10	1	-1E+10	1	-1E+10	1
4902551	119	C	12/02/2023	03:03	-131.015	46.795	0	248.40	0	6.1200	0	33.8820	0	26.657	0	246.195	0	96.0	4	31.8	4	-1E+10	1	-1E+10	1	-1E+10	1	-1E+10	1	-1E+10	1	-1E+10	1
4902551	119	C	12/02/2023	03:03	-131.015	46.795	0	249.40	0	6.1270	0	33.8870	0	26.660	0	247.185	0	95.6	4	31.7	4	-1E+10	1	-1E+10	1	-1E+10	1	-1E+10	1	-1E+10	1	-1E+10	1
4902551	119	C	12/02/2023	03:03	-131.015	46.795	0	250.40	0	6.1270	0	33.8910	0	26.663	0	248.176	0	95.3	4	31.6	4	-1E+10	1	-1E+10	1	-1E+10	1	-1E+10	1	-1E+10	1	-1E+10	1
4902551	119	C	12/02/2023	03:03	-131.015	46.795	0	251.40	0	6.1300	0	33.8920	0	26.664	0	249.166	0	95.0	4	31.5	4	-1E+10	1	-1E+10	1	-1E+10	1	-1E+10	1	-1E+10	1	-1E+10	1
4902551	119	C	12/02/2023	03:03	-131.015	46.795	0	252.50	0	6.1340	0	33.8940	0	26.665	0	250.256	0	94.7	4	31.4	4	-1E+10	1	-1E+10	1	-1E+10	1	-1E+10	1	-1E+10	1	-1E+10	1
4902551	119	C	12/02/2023	03:03	-131.015	46.795	0	253.50	0	6.1360	0	33.8930	0	26.664	0	251.246	0	94.4	4	31.3	4	-1E+10	1	-1E+10	1	-1E+10	1	-1E+10	1	-1E+10	1	-1E+10	1
4902551	119	C	12/02/2023	03:03	-131.015	46.795	0	254.50	0	6.1370	0	33.8940	0	26.664	0	252.237	0	94.1	4	31.2	4	-1E+10	1	-1E+10	1	-1E+10	1	-1E+10	1	-1E+10	1	-1E+10	1
4902551	119	C	12/02/2023	03:03	-131.015	46.795	0	255.50	0	6.1350	0	33.8940	0	26.665	0	253.227	0	93.7	4	31.0	4	-1E+10	1	-1E+10	1	-1E+10	1	-1E+10	1	-1E+10	1	-1E+10	1
4902551	119	C	12/02/2023	03:03	-131.015	46.795	0	256.50	0	6.1190	0	33.8980	0	26.670	0	254.218	0	93.3	4	30.9	4	-1E+10	1	-1E+10	1	-1E+10	1	-1E+10	1	-1E+10	1	-1E+10	1
4902551	119	C	12/02/2023	03:03	-131.015	46.795	0	257.50	0	6.1150	0	33.8930	0	26.666	0	255.208	0	92.9	4	30.8	4	-1E+10	1	-1E+10	1	-1E+10	1	-1E+10	1	-1E+10	1	-1E+10	1
4902551	119	C	12/02/2023	03:03	-131.015	46.795	0	258.50	0	6.1140	0	33.8940	0	26.667	0	256.199	0	92.4	4	30.6	4	-1E+10	1	-1E+10	1	-1E+10	1	-1E+10	1	-1E+10	1	-1E+10	1
4902551	119	C	12/02/2023	03:03	-131.015	46.795	0	259.90	0	6.0940	0	33.8950	0	26.671	0	257.586	0	91.7	4	30.4	4	-1E+10	1	-1E+10	1	-1E+10	1	-1E+10	1	-1E+10	1	-1E+10	1
4902551	119	C	12/02/2023	03:03	-131.015	46.795	0	261.40	0	6.0740	0	33.8950	0	26.673	0	259.071	0	90.9	4	30.1	4	-1E+10	1	-1E+10	1	-1E+10	1	-1E+10	1	-1E+10	1	-1E+10	1
4902551	119	C	12/02/2023	03:03	-131.015	46.795	0	262.40	0	6.0640	0	33.8940	0	26.674	0	260.062	0	90.1	4	29.8	4	-1E+10	1	-1E+10	1	-1E+10	1	-1E+10	1	-1E+10	1	-1E+10	1
4902551	119	C	12/02/2023	03:03	-131.015	46.795	0	263.10	0	6.0180	0	33.8880	0	26.675	0	260.755	0	89.4	4	29.6	4	-1E+10	1	-1E+10	1	-1E+10	1	-1E+10	1	-1E+10	1	-1E+10	1
4902551	119	C	12/02/2023	03:03	-131.015	46.795	0	264.00	0	6.0230	0	33.8900	0	26.676	0	261.646	0	88.2	4	29.1	4	-1E+10	1	-1E+10	1	-1E+10	1	-1E+10	1	-1E+10	1	-1E+10	1
4902551	119	C	12/02/2023	03:03	-131.015	46.795	0	265.20	0	6.0220	0	33.8950	0	26.680	0	262.835	0	86.8	4	28.7	4	-1E+10	1	-1E+10	1	-1E+10	1	-1E+10	1	-1E+10	1	-1E+10	1
4902551	119	C	12/02/2023	03:03	-131.015	46.795	0	265.90	0	6.0820	0	33.8950	0	26.672	0	263.528	0	86.1	4	28.5	4	-1E+10	1	-1E+10	1	-1E+10	1	-1E+10	1	-1E+10	1	-1E+10	1
4902551	119	C	12/02/2023	03:03	-131.015	46.795	0	266.90	0	5.9980	0	33.8990	0	26.686	0	264.519	0	84.8	4	28.0	4	-1E+10	1	-1E+10	1	-1E+10	1	-1E+10	1	-1E+10	1	-1E+10	1
4902551	119	C	12/02/2023	03:03	-131.015	46.795	0	268.10	0	5.9240	0	33.9080	0	26.702	0	265.707	0	83.0	4	27.4	4	-1E+10	1	-1E+10	1	-1E+10	1	-1E+10	1	-1E+10	1	-1E+10	1
4902551	119	C	12/02/2023	03:03	-131.015	46.795	0	268.80	0	5.9090	0	33.8920	0	26.691	0	266.401	0	81.8	4	27.0	4	-1E+10	1	-1E+10	1	-1E+10	1	-1E+10	1	-1E+10	1	-1E+10	1
4902551	119	C	12/02/2023	03:03	-131.015	46.795	0	270.00	0	5.8790	0	33.8990	0	26.701	0	267.589	0	80.0	4	26.3	4	-1E+10	1	-1E+10	1	-1E+10	1	-1E+10	1	-1E+10	1	-1E+10	1
4902551	119	C	12/02/2023	03:03	-131.015	46.795	0	271.10	0	5.9200	0	33.9100	0	26.704	0	268.679	0	78.4	4	25.9	4	-1E+10	1	-1E+10	1	-1E+10	1	-1E+10	1	-1E+10	1	-1E+10	1
4902551	119	C	12/02/2023	03:03	-131.015	46.795	0	271.90	0	6.0540	0	33.9320	0	26.705	0	269.471	0	77.7	4	25.7	4	-1E+10	1	-1E+10	1	-1E+10	1	-1E+10	1	-1E+10	1	-1E+10	1
4902551	119	C	12/02/2023	03:03	-131.015	46.795	0	273.00	0	6.0440	8	33.9340	8	26.708	0	270.560	0	76.7	4	25.4	4	-1E+10	1	-1E+10	1	-1E+10	1	-1E+10	1	-1E+10	1	-1E+10	1
4902551	119	C	12/02/2023	03:03	-131.015	46.795	0	274.20	0	6.1040	8	33.8930	8	26.668	0	271.749	0	76.0	4	25.2	4	-1E+10	1	-1E+10	1	-1E+10	1	-1E+10	1	-1E+10	1	-1E+10	1
4902551	119	C	12/02/2023	03:03	-131.015	46.795	0	275.00	0	6.1320	0	33.9510	0	26.710	0	272.541	0	75.6	4	25.1	4	-1E+10	1	-1E+10	1	-1E+10	1	-1E+10	1	-1E+10	1	-1E+10	1
4902551	119	C	12/02/2023	03:03	-131.015	46.795	0	275.80	0	6.1300	0	33.9500	0	26.710	0	273.333	0	75.3	4	24.9	4	-1E+10	1	-1E+10	1	-1E+10	1	-1E+10	1	-1E+10	1	-1E+10	1
4902551	119	C	12/02/2023	03:03	-131.015	46.795	0	277.00	0	6.1230	0	33.9540	0	26.714	0	274.522	0	74.9	4	24.8	4	-1E+10	1	-1E+10	1	-1E+10	1	-1E+10	1	-1E+10	1	-1E+10	1
4902551	119	C	12/02/2023	03:03	-131.015	46.795	0	278.20	0	6.1110	0	33.9510	0	26.713	0	275.710	0	74.5	4	24.7	4	-1E+10	1	-1E+10	1	-1E+10	1	-1E+10	1	-1E+10	1	-1E+10	1
4902551	119	C	12/02/2023	03:03	-131.015	46.795	0	279.00	0	6.1110	0	33.9520	0	26.714	0	276.503	0	74.2	4	24.6	4	-1E+10	1	-1E+10	1	-1E+10	1	-1E+10	1	-1E+10	1	-1E+10	1
4902551	119	C	12/02/2023	03:03	-131.015	46.795	0	279.80	0	6.0810	0	33.9510	0	26.717	0	277.295	0	73.9	4	24.5	4	-1E+10	1	-1E+10	1	-1E+10	1	-1E+10	1	-1E+10	1	-1E+10	1
4902551	119	C	12/02/2023	03:03	-131.015	46.795	0	280.60	0	6.1020	0	33.9550	0	26.717	0	278.087	0	73.6	4	24.4	4	-1E+10	1	-1E+10	1	-1E+10	1	-1E+10	1	-1E+10	1	-1E+10	1
4902551	119	C	12/02/2023	03:03	-131.015	46.795	0	281.90	0	6.0970	0	33.9570	0	26.719	0	279.375	0	73.4	4	24.3	4	-1E+10	1	-1E+10	1	-1E+10	1	-1E+10	1	-1E+10	1	-1E+10	1
4902551	119	C	12/02/2023	03:03	-131.015	46.795	0	283.10	0	6.0790	0	33.9570	0	26.722	0	280.563	0	73.2	4	24.2	4	-1E+10	1	-1E+10	1	-1E+10	1	-1E+10	1	-1E+10	1	-1E+10	1
4902551	119	C	12/02/2023	03:03	-131.015	46.795	0	284.00	0	6.0630	0	33.9560	0	26.723	0	281.455	0	73.2	4	24.2	4	-1E+10	1	-1E+10	1	-1E+10	1	-1E+10	1	-1E+10	1	-1E+10	1
4902551	119	C	12/02/2023	03:03	-131.015	46.795	0	284.90	0	6.0390	0	33.9580	0	26.728	0	282.346	0	73.2	4	24.2	4	-1E+10	1	-1E+10	1	-1E+10	1	-1E+10	1	-1E+10	1	-1E+10	1
4902551	119	C	12/02/2023	03:03	-131.015	46.795	0	285.70	0	6.0320	0	33.9570	0	26.728	0	283.138	0	73.1	4	24.2	4	-1E+10	1	-1E+10	1	-1E+10	1	-1E+10	1	-1E+10	1	-1E+10	1
4902551	119	C	12/02/2023	03:03	-131.015	46.795	0	286.60	0	6.0070	0	33.9600	0	26.733	0	284.029	0	73.0	4	24.1	4	-1E+10	1	-1E+10	1	-1E+10	1	-1E+10	1	-1E+10	1	-1E+10	1
4902551	119	C	12/02/2023	03:03	-131.015	46.795	0	287.90	0	5.9450	0	33.9520	0	26.735	0	285.317	0	72.9	4	24.1	4	-1E+10	1	-1E+10	1	-1E+10	1	-1E+10	1	-1E+10	1	-1E+10	1
4902551	119	C	12/02/2023	03:03	-131.015	46.795	0	289.20	0	5.9410	0	33.9550	0	26.738	0	286.604	0	72.9	4	24.1	4	-1E+10	1	-1E+10	1	-1E+10	1	-1E+10	1	-1E+10	1	-1E+10	1
4902551	119	C	12/02/2023	03:03	-131.015	46.795	0	290.10	0	5.9510	0	33.9600	0	26.740	0	287.496	0	72.9	4	24.1	4	-1E+10	1	-1E+10	1	-1E+10	1	-1E+10	1	-1E+10	1	-1E+10	1
4902551	119	C	12/02/2023	03:03	-131.015	46.795	0	290.90	0	5.9530	0	33.9580	0	26.738	0	288.288	0	73.1	4	24.1	4	-1E+10	1	-1E+10	1	-1E+10	1	-1E+10	1	-1E+10	1	-1E+10	1
4902551	119	C	12/02/2023	03:03	-131.015	46.795	0	291.80	0	5.9560	0	33.9610	0	26.740	0	289.179	0	73.3	4	24.2	4	-1E+10	1	-1E+10	1	-1E+10	1	-1E+10	1	-1E+10	1	-1E+10	1
4902551	119	C	12/02/2023	03:03	-131.015	46.795	0	292.70	0	5.9590	0	33.9590	0	26.738	0	290.070	0	73.6	4	24.3	4	-1E+10	1	-1E+10	1	-1E+10	1	-1E+10	1	-1E+10	1	-1E+10	1
4902551	119	C	12/02/2023	03:03	-131.015	46.795	0	293.90	0	5.9050	0	33.9540	0	26.741	0	291.259	0	73.9	4	24.4	4	-1E+10	1	-1E+10	1	-1E+10	1	-1E+10	1	-1E+10	1	-1E+10	1
4902551	119	C	12/02/2023	03:03	-131.015	46.795	0	295.30	0	5.8190	0	33.9480	0	26.747	0	292.645	0	74.1	4	24.4	4	-1E+10	1	-1E+10	1	-1E+10	1	-1E+10	1	-1E+10	1	-1E+10	1
4902551	119	C	12/02/2023	03:03	-131.015	46.795	0	296.10	0	5.8100	0	33.9490	0	26.749	0	293.438	0	74.2	4	24.4	4	-1E+10	1	-1E+10	1	-1E+10	1	-1E+10	1	-1E+10	1	-1E+10	1
4902551	119	C	12/02/2023	03:03	-131.015	46.795	0	297.00	0	5.8020	0	33.9470	0	26.748	0	294.329	0	74.4	4	24.5	4	-1E+10	1	-1E+10	1	-1E+10	1	-1E+10	1	-1E+10	1	-1E+10	1
4902551	119	C	12/02/2023	03:03	-131.015	46.795	0	297.90	0	5.7570	0	33.9440	0	26.752	0	295.220	0	74.4	4	24.5	4	-1E+10	1	-1E+10	1	-1E+10	1	-1E+10	1	-1E+10	1	-1E+10	1
4902551	119	C	12/02/2023	03:03	-131.015	46.795	0	298.80	0	5.6910	0	33.9390	0	26.756	0	296.111	0	74.4	4	24.4	4	-1E+10	1	-1E+10	1	-1E+10	1	-1E+10	1	-1E+10	1	-1E+10	1
4902551	119	C	12/02/2023	03:03	-131.015	46.795	0	299.60	0	5.6430	0	33.9330	0	26.757	0	296.904	0	74.3	4	24.3	4	-1E+10	1	-1E+10	1	-1E+10	1	-1E+10	1	-1E+10	1	-1E+10	1
4902551	119	C	12/02/2023	03:03	-131.015	46.795	0	300.90	0	5.6500	0	33.9340	0	26.757	0	298.191	0	74.0	4	24.3	4	-1E+10	1	-1E+10	1	-1E+10	1	-1E+10	1	-1E+10	1	-1E+10	1
4902551	119	C	12/02/2023	03:03	-131.015	46.795	0	302.30	0	5.6410	0	33.9340	0	26.758	0	299.577	0	73.8	4	24.2	4	-1E+10	1	-1E+10	1	-1E+10	1	-1E+10	1	-1E+10	1	-1E+10	1
4902551	119	C	12/02/2023	03:03	-131.015	46.795	0	303.10	0	5.6270	0	33.9340	0	26.760	0	300.370	0	73.5	4	24.1	4	-1E+10	1	-1E+10	1	-1E+10	1	-1E+10	1	-1E+10	1	-1E+10	1
4902551	119	C	12/02/2023	03:03	-131.015	46.795	0	304.00	0	5.6160	0	33.9320	0	26.759	0	301.261	0	73.3	4	24.0	4	-1E+10	1	-1E+10	1	-1E+10	1	-1E+10	1	-1E+10	1	-1E+10	1
4902551	119	C	12/02/2023	03:03	-131.015	46.795	0	304.90	0	5.6100	0	33.9320	0	26.760	0	302.152	0	73.0	4	23.9	4	-1E+10	1	-1E+10	1	-1E+10	1	-1E+10	1	-1E+10	1	-1E+10	1
4902551	119	C	12/02/2023	03:03	-131.015	46.795	0	305.70	0	5.6040	0	33.9310	0	26.760	0	302.944	0	72.7	4	23.8	4	-1E+10	1	-1E+10	1	-1E+10	1	-1E+10	1	-1E+10	1	-1E+10	1
4902551	119	C	12/02/2023	03:03	-131.015	46.795	0	306.60	0	5.5900	0	33.9320	0	26.762	0	303.835	0	72.3	4	23.7	4	-1E+10	1	-1E+10	1	-1E+10	1	-1E+10	1	-1E+10	1	-1E+10	1
4902551	119	C	12/02/2023	03:03	-131.015	46.795	0	307.90	0	5.5560	0	33.9320	0	26.767	0	305.123	0	71.9	4	23.5	4	-1E+10	1	-1E+10	1	-1E+10	1	-1E+10	1	-1E+10	1	-1E+10	1
4902551	119	C	12/02/2023	03:03	-131.015	46.795	0	309.30	0	5.5200	0	33.9330	0	26.772	0	306.509	0	71.4	4	23.3	4	-1E+10	1	-1E+10	1	-1E+10	1	-1E+10	1	-1E+10	1	-1E+10	1
4902551	119	C	12/02/2023	03:03	-131.015	46.795	0	310.30	0	5.5200	0	33.9340	0	26.772	0	307.499	0	71.1	4	23.2	4	-1E+10	1	-1E+10	1	-1E+10	1	-1E+10	1	-1E+10	1	-1E+10	1
4902551	119	C	12/02/2023	03:03	-131.015	46.795	0	311.20	0	5.5190	0	33.9330	0	26.772	0	308.391	0	70.8	4	23.1	4	-1E+10	1	-1E+10	1	-1E+10	1	-1E+10	1	-1E+10	1	-1E+10	1
4902551	119	C	12/02/2023	03:03	-131.015	46.795	0	312.10	0	5.5170	0	33.9330	0	26.772	0	309.282	0	70.5	4	23.0	4	-1E+10	1	-1E+10	1	-1E+10	1	-1E+10	1	-1E+10	1	-1E+10	1
4902551	119	C	12/02/2023	03:03	-131.015	46.795	0	313.00	0	5.5190	0	33.9350	0	26.773	0	310.173	0	70.1	4	22.9	4	-1E+10	1	-1E+10	1	-1E+10	1	-1E+10	1	-1E+10	1	-1E+10	1
4902551	119	C	12/02/2023	03:03	-131.015	46.795	0	313.90	0	5.5100	0	33.9370	0	26.776	0	311.064	0	69.7	4	22.8	4	-1E+10	1	-1E+10	1	-1E+10	1	-1E+10	1	-1E+10	1	-1E+10	1
4902551	119	C	12/02/2023	03:03	-131.015	46.795	0	314.70	0	5.5070	0	33.9390	0	26.778	0	311.856	0	69.3	4	22.6	4	-1E+10	1	-1E+10	1	-1E+10	1	-1E+10	1	-1E+10	1	-1E+10	1
4902551	119	C	12/02/2023	03:03	-131.015	46.795	0	315.60	0	5.5070	0	33.9400	0	26.779	0	312.747	0	69.0	4	22.5	4	-1E+10	1	-1E+10	1	-1E+10	1	-1E+10	1	-1E+10	1	-1E+10	1
4902551	119	C	12/02/2023	03:03	-131.015	46.795	0	316.90	0	5.5090	0	33.9410	0	26.779	0	314.035	0	68.4	4	22.4	4	-1E+10	1	-1E+10	1	-1E+10	1	-1E+10	1	-1E+10	1	-1E+10	1
4902551	119	C	12/02/2023	03:03	-131.015	46.795	0	318.30	0	5.5090	0	33.9430	0	26.781	0	315.421	0	67.9	4	22.2	4	-1E+10	1	-1E+10	1	-1E+10	1	-1E+10	1	-1E+10	1	-1E+10	1
4902551	119	C	12/02/2023	03:03	-131.015	46.795	0	319.20	0	5.5140	0	33.9450	0	26.782	0	316.312	0	67.6	4	22.1	4	-1E+10	1	-1E+10	1	-1E+10	1	-1E+10	1	-1E+10	1	-1E+10	1
4902551	119	C	12/02/2023	03:03	-131.015	46.795	0	320.00	0	5.5220	0	33.9490	0	26.784	0	317.104	0	67.3	4	22.0	4	-1E+10	1	-1E+10	1	-1E+10	1	-1E+10	1	-1E+10	1	-1E+10	1
4902551	119	C	12/02/2023	03:03	-131.015	46.795	0	320.90	0	5.5280	0	33.9490	0	26.783	0	317.996	0	67.0	4	21.9	4	-1E+10	1	-1E+10	1	-1E+10	1	-1E+10	1	-1E+10	1	-1E+10	1
4902551	119	C	12/02/2023	03:03	-131.015	46.795	0	321.80	0	5.5380	0	33.9560	0	26.788	0	318.887	0	66.9	4	21.9	4	-1E+10	1	-1E+10	1	-1E+10	1	-1E+10	1	-1E+10	1	-1E+10	1
4902551	119	C	12/02/2023	03:03	-131.015	46.795	0	322.70	0	5.5450	0	33.9590	0	26.789	0	319.778	0	66.7	4	21.8	4	-1E+10	1	-1E+10	1	-1E+10	1	-1E+10	1	-1E+10	1	-1E+10	1
4902551	119	C	12/02/2023	03:03	-131.015	46.795	0	323.60	0	5.5440	0	33.9600	0	26.790	0	320.669	0	66.7	4	21.8	4	-1E+10	1	-1E+10	1	-1E+10	1	-1E+10	1	-1E+10	1	-1E+10	1
4902551	119	C	12/02/2023	03:03	-131.015	46.795	0	324.90	0	5.5420	0	33.9600	0	26.791	0	321.956	0	66.6	4	21.8	4	-1E+10	1	-1E+10	1	-1E+10	1	-1E+10	1	-1E+10	1	-1E+10	1
4902551	119	C	12/02/2023	03:03	-131.015	46.795	0	326.30	0	5.5380	0	33.9600	0	26.791	0	323.342	0	66.5	4	21.7	4	-1E+10	1	-1E+10	1	-1E+10	1	-1E+10	1	-1E+10	1	-1E+10	1
4902551	119	C	12/02/2023	03:03	-131.015	46.795	0	327.20	0	5.5370	0	33.9610	0	26.792	0	324.234	0	66.4	4	21.7	4	-1E+10	1	-1E+10	1	-1E+10	1	-1E+10	1	-1E+10	1	-1E+10	1
4902551	119	C	12/02/2023	03:03	-131.015	46.795	0	328.10	0	5.5380	0	33.9600	0	26.791	0	325.125	0	66.3	4	21.7	4	-1E+10	1	-1E+10	1	-1E+10	1	-1E+10	1	-1E+10	1	-1E+10	1
4902551	119	C	12/02/2023	03:03	-131.015	46.795	0	329.00	0	5.5320	0	33.9620	0	26.793	0	326.016	0	66.2	4	21.6	4	-1E+10	1	-1E+10	1	-1E+10	1	-1E+10	1	-1E+10	1	-1E+10	1
4902551	119	C	12/02/2023	03:03	-131.015	46.795	0	329.90	0	5.5220	0	33.9570	0	26.791	0	326.907	0	66.1	4	21.6	4	-1E+10	1	-1E+10	1	-1E+10	1	-1E+10	1	-1E+10	1	-1E+10	1
4902551	119	C	12/02/2023	03:03	-131.015	46.795	0	330.70	0	5.5100	0	33.9620	0	26.796	0	327.699	0	66.0	4	21.6	4	-1E+10	1	-1E+10	1	-1E+10	1	-1E+10	1	-1E+10	1	-1E+10	1
4902551	119	C	12/02/2023	03:03	-131.015	46.795	0	331.70	0	5.5130	0	33.9610	0	26.795	0	328.689	0	66.0	4	21.6	4	-1E+10	1	-1E+10	1	-1E+10	1	-1E+10	1	-1E+10	1	-1E+10	1
4902551	119	C	12/02/2023	03:03	-131.015	46.795	0	332.60	0	5.5100	0	33.9630	0	26.797	0	329.580	0	66.0	4	21.6	4	-1E+10	1	-1E+10	1	-1E+10	1	-1E+10	1	-1E+10	1	-1E+10	1
4902551	119	C	12/02/2023	03:03	-131.015	46.795	0	333.90	0	5.4930	0	33.9630	0	26.799	0	330.867	0	66.3	4	21.6	4	-1E+10	1	-1E+10	1	-1E+10	1	-1E+10	1	-1E+10	1	-1E+10	1
4902551	119	C	12/02/2023	03:03	-131.015	46.795	0	335.30	0	5.4760	0	33.9620	0	26.800	0	332.254	0	66.5	4	21.7	4	-1E+10	1	-1E+10	1	-1E+10	1	-1E+10	1	-1E+10	1	-1E+10	1
4902551	119	C	12/02/2023	03:03	-131.015	46.795	0	336.20	0	5.4610	0	33.9540	0	26.796	0	333.145	0	66.6	4	21.7	4	-1E+10	1	-1E+10	1	-1E+10	1	-1E+10	1	-1E+10	1	-1E+10	1
4902551	119	C	12/02/2023	03:03	-131.015	46.795	0	337.10	0	5.4430	0	33.9620	0	26.804	0	334.036	0	66.7	4	21.7	4	-1E+10	1	-1E+10	1	-1E+10	1	-1E+10	1	-1E+10	1	-1E+10	1
4902551	119	C	12/02/2023	03:03	-131.015	46.795	0	338.00	0	5.3470	0	33.9490	0	26.805	0	334.927	0	66.7	4	21.7	4	-1E+10	1	-1E+10	1	-1E+10	1	-1E+10	1	-1E+10	1	-1E+10	1
4902551	119	C	12/02/2023	03:03	-131.015	46.795	0	338.90	0	5.3240	0	33.9440	0	26.804	0	335.818	0	66.4	4	21.6	4	-1E+10	1	-1E+10	1	-1E+10	1	-1E+10	1	-1E+10	1	-1E+10	1
4902551	119	C	12/02/2023	03:03	-131.015	46.795	0	339.80	0	5.3220	0	33.9460	0	26.806	0	336.709	0	66.3	4	21.6	4	-1E+10	1	-1E+10	1	-1E+10	1	-1E+10	1	-1E+10	1	-1E+10	1
4902551	119	C	12/02/2023	03:03	-131.015	46.795	0	340.80	0	5.3080	0	33.9460	0	26.807	0	337.699	0	66.2	4	21.5	4	-1E+10	1	-1E+10	1	-1E+10	1	-1E+10	1	-1E+10	1	-1E+10	1
4902551	119	C	12/02/2023	03:03	-131.015	46.795	0	341.70	0	5.2640	0	33.9430	0	26.810	0	338.590	0	66.0	4	21.4	4	-1E+10	1	-1E+10	1	-1E+10	1	-1E+10	1	-1E+10	1	-1E+10	1
4902551	119	C	12/02/2023	03:03	-131.015	46.795	0	342.60	0	5.2590	0	33.9380	0	26.807	0	339.481	0	65.8	4	21.4	4	-1E+10	1	-1E+10	1	-1E+10	1	-1E+10	1	-1E+10	1	-1E+10	1
4902551	119	C	12/02/2023	03:03	-131.015	46.795	0	343.60	0	5.2440	0	33.9380	0	26.808	0	340.471	0	65.5	4	21.3	4	-1E+10	1	-1E+10	1	-1E+10	1	-1E+10	1	-1E+10	1	-1E+10	1
4902551	119	C	12/02/2023	03:03	-131.015	46.795	0	344.50	0	5.2350	0	33.9380	0	26.810	0	341.362	0	65.3	4	21.2	4	-1E+10	1	-1E+10	1	-1E+10	1	-1E+10	1	-1E+10	1	-1E+10	1
4902551	119	C	12/02/2023	03:03	-131.015	46.795	0	345.90	0	5.2270	0	33.9360	0	26.809	0	342.749	0	64.9	4	21.1	4	-1E+10	1	-1E+10	1	-1E+10	1	-1E+10	1	-1E+10	1	-1E+10	1
4902551	119	C	12/02/2023	03:03	-131.015	46.795	0	347.30	0	5.2180	0	33.9370	0	26.811	0	344.135	0	64.5	4	20.9	4	-1E+10	1	-1E+10	1	-1E+10	1	-1E+10	1	-1E+10	1	-1E+10	1
4902551	119	C	12/02/2023	03:03	-131.015	46.795	0	348.30	0	5.2040	0	33.9380	0	26.813	0	345.125	0	64.4	4	20.9	4	-1E+10	1	-1E+10	1	-1E+10	1	-1E+10	1	-1E+10	1	-1E+10	1
4902551	119	C	12/02/2023	03:03	-131.015	46.795	0	349.20	0	5.1920	0	33.9400	0	26.816	0	346.016	0	64.2	4	20.8	4	-1E+10	1	-1E+10	1	-1E+10	1	-1E+10	1	-1E+10	1	-1E+10	1
4902551	119	C	12/02/2023	03:03	-131.015	46.795	0	350.20	0	5.1870	0	33.9420	0	26.818	0	347.006	0	64.1	4	20.8	4	-1E+10	1	-1E+10	1	-1E+10	1	-1E+10	1	-1E+10	1	-1E+10	1
4902551	119	C	12/02/2023	03:03	-131.015	46.795	0	353.00	0	5.1810	0	33.9430	0	26.820	0	349.778	0	63.6	4	20.6	4	-1E+10	1	-1E+10	1	-1E+10	1	-1E+10	1	-1E+10	1	-1E+10	1
4902551	119	C	12/02/2023	03:03	-131.015	46.795	0	357.80	0	5.1280	0	33.9460	0	26.828	0	354.530	0	62.7	4	20.3	4	-1E+10	1	-1E+10	1	-1E+10	1	-1E+10	1	-1E+10	1	-1E+10	1
4902551	119	C	12/02/2023	03:03	-131.015	46.795	0	362.60	0	5.0870	0	33.9490	0	26.835	0	359.282	0	61.2	4	19.8	4	-1E+10	1	-1E+10	1	-1E+10	1	-1E+10	1	-1E+10	1	-1E+10	1
4902551	119	C	12/02/2023	03:03	-131.015	46.795	0	367.60	0	5.0640	0	33.9530	0	26.841	0	364.232	0	59.6	4	19.3	4	-1E+10	1	-1E+10	1	-1E+10	1	-1E+10	1	-1E+10	1	-1E+10	1
4902551	119	C	12/02/2023	03:03	-131.015	46.795	0	372.60	0	5.0420	0	33.9570	0	26.847	0	369.182	0	57.3	4	18.5	4	-1E+10	1	-1E+10	1	-1E+10	1	-1E+10	1	-1E+10	1	-1E+10	1
4902551	119	C	12/02/2023	03:03	-131.015	46.795	0	377.50	0	5.0050	0	33.9630	0	26.856	0	374.032	0	54.9	4	17.7	4	-1E+10	1	-1E+10	1	-1E+10	1	-1E+10	1	-1E+10	1	-1E+10	1
4902551	119	C	12/02/2023	03:03	-131.015	46.795	0	382.60	0	4.9800	0	33.9710	0	26.865	0	379.081	0	53.0	4	17.1	4	-1E+10	1	-1E+10	1	-1E+10	1	-1E+10	1	-1E+10	1	-1E+10	1
4902551	119	C	12/02/2023	03:03	-131.015	46.795	0	387.60	0	4.9450	0	33.9770	0	26.874	0	384.030	0	50.8	4	16.4	4	-1E+10	1	-1E+10	1	-1E+10	1	-1E+10	1	-1E+10	1	-1E+10	1
4902551	119	C	12/02/2023	03:03	-131.015	46.795	0	392.70	0	4.9340	0	33.9830	0	26.880	0	389.078	0	48.4	4	15.6	4	-1E+10	1	-1E+10	1	-1E+10	1	-1E+10	1	-1E+10	1	-1E+10	1
4902551	119	C	12/02/2023	03:03	-131.015	46.795	0	397.90	0	4.9230	0	33.9930	0	26.889	0	394.225	0	46.6	4	15.0	4	-1E+10	1	-1E+10	1	-1E+10	1	-1E+10	1	-1E+10	1	-1E+10	1
4902551	119	C	12/02/2023	03:03	-131.015	46.795	0	403.10	0	4.9070	0	33.9990	0	26.896	0	399.372	0	45.5	4	14.7	4	-1E+10	1	-1E+10	1	-1E+10	1	-1E+10	1	-1E+10	1	-1E+10	1
4902551	119	C	12/02/2023	03:03	-131.015	46.795	0	407.80	0	4.8930	0	34.0030	0	26.901	0	404.024	0	44.5	4	14.3	4	-1E+10	1	-1E+10	1	-1E+10	1	-1E+10	1	-1E+10	1	-1E+10	1
4902551	119	C	12/02/2023	03:03	-131.015	46.795	0	412.50	0	4.8950	0	34.0110	0	26.907	0	408.676	0	43.4	4	14.0	4	-1E+10	1	-1E+10	1	-1E+10	1	-1E+10	1	-1E+10	1	-1E+10	1
4902551	119	C	12/02/2023	03:03	-131.015	46.795	0	417.70	0	4.8750	0	34.0170	0	26.914	0	413.823	0	42.2	4	13.6	4	-1E+10	1	-1E+10	1	-1E+10	1	-1E+10	1	-1E+10	1	-1E+10	1
4902551	119	C	12/02/2023	03:03	-131.015	46.795	0	423.00	0	4.8430	0	34.0230	0	26.922	0	419.068	0	41.2	4	13.2	4	-1E+10	1	-1E+10	1	-1E+10	1	-1E+10	1	-1E+10	1	-1E+10	1
4902551	119	C	12/02/2023	03:03	-131.015	46.795	0	428.20	0	4.8250	0	34.0270	0	26.927	0	424.215	0	40.2	4	12.9	4	-1E+10	1	-1E+10	1	-1E+10	1	-1E+10	1	-1E+10	1	-1E+10	1
4902551	119	C	12/02/2023	03:03	-131.015	46.795	0	433.00	0	4.7890	0	34.0300	0	26.934	0	428.965	0	39.3	4	12.6	4	-1E+10	1	-1E+10	1	-1E+10	1	-1E+10	1	-1E+10	1	-1E+10	1
4902551	119	C	12/02/2023	03:03	-131.015	46.795	0	437.70	0	4.7820	0	34.0320	0	26.936	0	433.616	0	38.1	4	12.2	4	-1E+10	1	-1E+10	1	-1E+10	1	-1E+10	1	-1E+10	1	-1E+10	1
4902551	119	C	12/02/2023	03:03	-131.015	46.795	0	442.90	0	4.7320	0	34.0400	0	26.948	0	438.762	0	36.7	4	11.8	4	-1E+10	1	-1E+10	1	-1E+10	1	-1E+10	1	-1E+10	1	-1E+10	1
4902551	119	C	12/02/2023	03:03	-131.015	46.795	0	448.20	0	4.7170	0	34.0470	0	26.955	0	444.007	0	35.7	4	11.5	4	-1E+10	1	-1E+10	1	-1E+10	1	-1E+10	1	-1E+10	1	-1E+10	1
4902551	119	C	12/02/2023	03:03	-131.015	46.795	0	452.90	0	4.7130	0	34.0500	0	26.958	0	448.658	0	35.1	4	11.3	4	-1E+10	1	-1E+10	1	-1E+10	1	-1E+10	1	-1E+10	1	-1E+10	1
4902551	119	C	12/02/2023	03:03	-131.015	46.795	0	457.50	0	4.7040	0	34.0530	0	26.962	0	453.210	0	34.3	4	11.0	4	-1E+10	1	-1E+10	1	-1E+10	1	-1E+10	1	-1E+10	1	-1E+10	1
4902551	119	C	12/02/2023	03:03	-131.015	46.795	0	462.60	0	4.7010	0	34.0570	0	26.965	0	458.256	0	33.6	4	10.8	4	-1E+10	1	-1E+10	1	-1E+10	1	-1E+10	1	-1E+10	1	-1E+10	1
4902551	119	C	12/02/2023	03:03	-131.015	46.795	0	467.60	0	4.6910	0	34.0580	0	26.967	0	463.204	0	32.7	4	10.5	4	-1E+10	1	-1E+10	1	-1E+10	1	-1E+10	1	-1E+10	1	-1E+10	1
4902551	119	C	12/02/2023	03:03	-131.015	46.795	0	472.70	0	4.6830	0	34.0640	0	26.973	0	468.250	0	31.6	4	10.1	4	-1E+10	1	-1E+10	1	-1E+10	1	-1E+10	1	-1E+10	1	-1E+10	1
4902551	119	C	12/02/2023	03:03	-131.015	46.795	0	477.70	0	4.6860	0	34.0680	0	26.976	0	473.198	0	30.4	4	9.8	4	-1E+10	1	-1E+10	1	-1E+10	1	-1E+10	1	-1E+10	1	-1E+10	1
4902551	119	C	12/02/2023	03:03	-131.015	46.795	0	482.80	0	4.6780	0	34.0760	0	26.983	0	478.244	0	29.2	4	9.4	4	-1E+10	1	-1E+10	1	-1E+10	1	-1E+10	1	-1E+10	1	-1E+10	1
4902551	119	C	12/02/2023	03:03	-131.015	46.795	0	487.80	0	4.6300	0	34.0820	0	26.993	0	483.191	0	28.5	4	9.1	4	-1E+10	1	-1E+10	1	-1E+10	1	-1E+10	1	-1E+10	1	-1E+10	1
4902551	119	C	12/02/2023	03:03	-131.015	46.795	0	492.80	0	4.6150	0	34.0830	0	26.996	0	488.137	0	28.0	4	9.0	4	-1E+10	1	-1E+10	1	-1E+10	1	-1E+10	1	-1E+10	1	-1E+10	1
4902551	119	C	12/02/2023	03:03	-131.015	46.795	0	497.80	0	4.5980	0	34.0840	0	26.998	0	493.084	0	27.2	4	8.7	4	-1E+10	1	-1E+10	1	-1E+10	1	-1E+10	1	-1E+10	1	-1E+10	1
4902551	119	C	12/02/2023	03:03	-131.015	46.795	0	502.90	0	4.5720	0	34.0890	0	27.005	0	498.130	0	26.2	4	8.4	4	-1E+10	1	-1E+10	1	-1E+10	1	-1E+10	1	-1E+10	1	-1E+10	1
4902551	119	C	12/02/2023	03:03	-131.015	46.795	0	507.80	0	4.5650	0	34.0940	0	27.010	0	502.977	0	25.5	4	8.1	4	-1E+10	1	-1E+10	1	-1E+10	1	-1E+10	1	-1E+10	1	-1E+10	1
4902551	119	C	12/02/2023	03:03	-131.015	46.795	0	512.80	0	4.5480	0	34.0980	0	27.015	0	507.924	0	24.5	4	7.8	4	-1E+10	1	-1E+10	1	-1E+10	1	-1E+10	1	-1E+10	1	-1E+10	1
4902551	119	C	12/02/2023	03:03	-131.015	46.795	0	518.00	0	4.5350	0	34.1050	0	27.022	0	513.068	0	23.7	4	7.6	4	-1E+10	1	-1E+10	1	-1E+10	1	-1E+10	1	-1E+10	1	-1E+10	1
4902551	119	C	12/02/2023	03:03	-131.015	46.795	0	522.80	0	4.5050	0	34.1110	0	27.030	0	517.816	0	23.2	4	7.4	4	-1E+10	1	-1E+10	1	-1E+10	1	-1E+10	1	-1E+10	1	-1E+10	1
4902551	119	C	12/02/2023	03:03	-131.015	46.795	0	527.70	0	4.4830	0	34.1150	0	27.036	0	522.663	0	22.8	4	7.3	4	-1E+10	1	-1E+10	1	-1E+10	1	-1E+10	1	-1E+10	1	-1E+10	1
4902551	119	C	12/02/2023	03:03	-131.015	46.795	0	533.00	0	4.4590	0	34.1180	0	27.041	0	527.906	0	22.4	4	7.2	4	-1E+10	1	-1E+10	1	-1E+10	1	-1E+10	1	-1E+10	1	-1E+10	1
4902551	119	C	12/02/2023	03:03	-131.015	46.795	0	538.00	0	4.4560	0	34.1200	0	27.043	0	532.852	0	21.7	4	6.9	4	-1E+10	1	-1E+10	1	-1E+10	1	-1E+10	1	-1E+10	1	-1E+10	1
4902551	119	C	12/02/2023	03:03	-131.015	46.795	0	543.00	0	4.4500	0	34.1240	0	27.046	0	537.798	0	21.0	4	6.7	4	-1E+10	1	-1E+10	1	-1E+10	1	-1E+10	1	-1E+10	1	-1E+10	1
4902551	119	C	12/02/2023	03:03	-131.015	46.795	0	548.10	0	4.4410	0	34.1280	0	27.051	0	542.842	0	20.3	4	6.5	4	-1E+10	1	-1E+10	1	-1E+10	1	-1E+10	1	-1E+10	1	-1E+10	1
4902551	119	C	12/02/2023	03:03	-131.015	46.795	0	552.80	0	4.4290	0	34.1330	0	27.056	0	547.491	0	19.8	4	6.3	4	-1E+10	1	-1E+10	1	-1E+10	1	-1E+10	1	-1E+10	1	-1E+10	1
4902551	119	C	12/02/2023	03:03	-131.015	46.795	0	558.00	0	4.4140	0	34.1380	0	27.062	0	552.634	0	19.1	4	6.1	4	-1E+10	1	-1E+10	1	-1E+10	1	-1E+10	1	-1E+10	1	-1E+10	1
4902551	119	C	12/02/2023	03:03	-131.015	46.795	0	563.00	0	4.3960	0	34.1430	0	27.067	0	557.579	0	18.5	4	5.9	4	-1E+10	1	-1E+10	1	-1E+10	1	-1E+10	1	-1E+10	1	-1E+10	1
4902551	119	C	12/02/2023	03:03	-131.015	46.795	0	568.00	0	4.3810	0	34.1480	0	27.073	0	562.524	0	17.8	4	5.7	4	-1E+10	1	-1E+10	1	-1E+10	1	-1E+10	1	-1E+10	1	-1E+10	1
4902551	119	C	12/02/2023	03:03	-131.015	46.795	0	573.10	0	4.3530	0	34.1570	0	27.083	0	567.568	0	17.3	4	5.5	4	-1E+10	1	-1E+10	1	-1E+10	1	-1E+10	1	-1E+10	1	-1E+10	1
4902551	119	C	12/02/2023	03:03	-131.015	46.795	0	577.80	0	4.3390	0	34.1590	0	27.086	0	572.216	0	16.9	4	5.4	4	-1E+10	1	-1E+10	1	-1E+10	1	-1E+10	1	-1E+10	1	-1E+10	1
4902551	119	C	12/02/2023	03:03	-131.015	46.795	0	583.00	0	4.3210	0	34.1630	0	27.091	0	577.359	0	16.5	4	5.3	4	-1E+10	1	-1E+10	1	-1E+10	1	-1E+10	1	-1E+10	1	-1E+10	1
4902551	119	C	12/02/2023	03:03	-131.015	46.795	0	588.20	0	4.3070	0	34.1670	0	27.096	0	582.501	0	16.2	4	5.1	4	-1E+10	1	-1E+10	1	-1E+10	1	-1E+10	1	-1E+10	1	-1E+10	1
4902551	119	C	12/02/2023	03:03	-131.015	46.795	0	593.10	0	4.2980	0	34.1700	0	27.100	0	587.347	0	15.8	4	5.0	4	-1E+10	1	-1E+10	1	-1E+10	1	-1E+10	1	-1E+10	1	-1E+10	1
4902551	119	C	12/02/2023	03:03	-131.015	46.795	0	598.10	0	4.2750	0	34.1770	0	27.108	0	592.291	0	15.5	4	4.9	4	-1E+10	1	-1E+10	1	-1E+10	1	-1E+10	1	-1E+10	1	-1E+10	1
4902551	119	C	12/02/2023	03:03	-131.015	46.795	0	603.10	0	4.2640	0	34.1800	0	27.111	0	597.235	0	15.4	4	4.9	4	-1E+10	1	-1E+10	1	-1E+10	1	-1E+10	1	-1E+10	1	-1E+10	1
4902551	119	C	12/02/2023	03:03	-131.015	46.795	0	608.10	0	4.2510	0	34.1810	0	27.113	0	602.180	0	15.2	4	4.8	4	-1E+10	1	-1E+10	1	-1E+10	1	-1E+10	1	-1E+10	1	-1E+10	1
4902551	119	C	12/02/2023	03:03	-131.015	46.795	0	613.10	0	4.2410	0	34.1840	0	27.117	0	607.124	0	15.1	4	4.8	4	-1E+10	1	-1E+10	1	-1E+10	1	-1E+10	1	-1E+10	1	-1E+10	1
4902551	119	C	12/02/2023	03:03	-131.015	46.795	0	618.10	0	4.2300	0	34.1860	0	27.120	0	612.068	0	15.0	4	4.8	4	-1E+10	1	-1E+10	1	-1E+10	1	-1E+10	1	-1E+10	1	-1E+10	1
4902551	119	C	12/02/2023	03:03	-131.015	46.795	0	623.20	0	4.2090	0	34.1870	0	27.123	0	617.110	0	15.0	4	4.8	4	-1E+10	1	-1E+10	1	-1E+10	1	-1E+10	1	-1E+10	1	-1E+10	1
4902551	119	C	12/02/2023	03:03	-131.015	46.795	0	628.30	0	4.1730	0	34.1870	0	27.126	0	622.153	0	14.9	4	4.7	4	-1E+10	1	-1E+10	1	-1E+10	1	-1E+10	1	-1E+10	1	-1E+10	1
4902551	119	C	12/02/2023	03:03	-131.015	46.795	0	633.20	0	4.1580	0	34.1890	0	27.130	0	626.998	0	14.7	4	4.6	4	-1E+10	1	-1E+10	1	-1E+10	1	-1E+10	1	-1E+10	1	-1E+10	1
4902551	119	C	12/02/2023	03:03	-131.015	46.795	0	638.20	0	4.1530	0	34.1930	0	27.133	0	631.941	0	14.4	4	4.6	4	-1E+10	1	-1E+10	1	-1E+10	1	-1E+10	1	-1E+10	1	-1E+10	1
4902551	119	C	12/02/2023	03:03	-131.015	46.795	0	643.20	0	4.1470	0	34.1960	0	27.136	0	636.884	0	14.2	4	4.5	4	-1E+10	1	-1E+10	1	-1E+10	1	-1E+10	1	-1E+10	1	-1E+10	1
4902551	119	C	12/02/2023	03:03	-131.015	46.795	0	648.20	0	4.1360	0	34.1990	0	27.140	0	641.828	0	14.1	4	4.5	4	-1E+10	1	-1E+10	1	-1E+10	1	-1E+10	1	-1E+10	1	-1E+10	1
4902551	119	C	12/02/2023	03:03	-131.015	46.795	0	653.30	0	4.1200	0	34.2000	0	27.142	0	646.869	0	13.9	4	4.4	4	-1E+10	1	-1E+10	1	-1E+10	1	-1E+10	1	-1E+10	1	-1E+10	1
4902551	119	C	12/02/2023	03:03	-131.015	46.795	0	657.90	0	4.1070	0	34.2040	0	27.147	0	651.417	0	13.7	4	4.3	4	-1E+10	1	-1E+10	1	-1E+10	1	-1E+10	1	-1E+10	1	-1E+10	1
4902551	119	C	12/02/2023	03:03	-131.015	46.795	0	662.50	0	4.0930	0	34.2070	0	27.151	0	655.964	0	13.6	4	4.3	4	-1E+10	1	-1E+10	1	-1E+10	1	-1E+10	1	-1E+10	1	-1E+10	1
4902551	119	C	12/02/2023	03:03	-131.015	46.795	0	667.60	0	4.0770	0	34.2100	0	27.155	0	661.006	0	13.4	4	4.2	4	-1E+10	1	-1E+10	1	-1E+10	1	-1E+10	1	-1E+10	1	-1E+10	1
4902551	119	C	12/02/2023	03:03	-131.015	46.795	0	672.70	0	4.0680	0	34.2130	0	27.158	0	666.048	0	13.1	4	4.1	4	-1E+10	1	-1E+10	1	-1E+10	1	-1E+10	1	-1E+10	1	-1E+10	1
4902551	119	C	12/02/2023	03:03	-131.015	46.795	0	677.70	0	4.0520	0	34.2190	0	27.165	0	670.990	0	12.7	4	4.0	4	-1E+10	1	-1E+10	1	-1E+10	1	-1E+10	1	-1E+10	1	-1E+10	1
4902551	119	C	12/02/2023	03:03	-131.015	46.795	0	682.90	0	4.0350	0	34.2280	0	27.174	0	676.130	0	12.5	4	4.0	4	-1E+10	1	-1E+10	1	-1E+10	1	-1E+10	1	-1E+10	1	-1E+10	1
4902551	119	C	12/02/2023	03:03	-131.015	46.795	0	687.70	0	4.0120	0	34.2310	0	27.178	0	680.875	0	12.4	4	3.9	4	-1E+10	1	-1E+10	1	-1E+10	1	-1E+10	1	-1E+10	1	-1E+10	1
4902551	119	C	12/02/2023	03:03	-131.015	46.795	0	692.90	0	3.9930	0	34.2350	0	27.184	0	686.015	0	12.3	4	3.9	4	-1E+10	1	-1E+10	1	-1E+10	1	-1E+10	1	-1E+10	1	-1E+10	1
4902551	119	C	12/02/2023	03:03	-131.015	46.795	0	698.20	0	3.9890	0	34.2360	0	27.185	0	691.253	0	12.3	4	3.9	4	-1E+10	1	-1E+10	1	-1E+10	1	-1E+10	1	-1E+10	1	-1E+10	1
4902551	119	C	12/02/2023	03:03	-131.015	46.795	0	703.00	0	3.9840	0	34.2370	0	27.186	0	695.997	0	12.2	4	3.9	4	-1E+10	1	-1E+10	1	-1E+10	1	-1E+10	1	-1E+10	1	-1E+10	1
4902551	119	C	12/02/2023	03:03	-131.015	46.795	0	708.00	0	3.9660	0	34.2390	0	27.190	0	700.939	0	12.2	4	3.8	4	-1E+10	1	-1E+10	1	-1E+10	1	-1E+10	1	-1E+10	1	-1E+10	1
4902551	119	C	12/02/2023	03:03	-131.015	46.795	0	713.10	0	3.9450	0	34.2420	0	27.194	0	705.980	0	12.2	4	3.8	4	-1E+10	1	-1E+10	1	-1E+10	1	-1E+10	1	-1E+10	1	-1E+10	1
4902551	119	C	12/02/2023	03:03	-131.015	46.795	0	718.20	0	3.9290	0	34.2430	0	27.197	0	711.020	0	12.2	4	3.8	4	-1E+10	1	-1E+10	1	-1E+10	1	-1E+10	1	-1E+10	1	-1E+10	1
4902551	119	C	12/02/2023	03:03	-131.015	46.795	0	723.00	0	3.9080	0	34.2450	0	27.200	0	715.764	0	12.1	4	3.8	4	-1E+10	1	-1E+10	1	-1E+10	1	-1E+10	1	-1E+10	1	-1E+10	1
4902551	119	C	12/02/2023	03:03	-131.015	46.795	0	727.90	0	3.9070	0	34.2460	0	27.201	0	720.606	0	12.1	4	3.8	4	-1E+10	1	-1E+10	1	-1E+10	1	-1E+10	1	-1E+10	1	-1E+10	1
4902551	119	C	12/02/2023	03:03	-131.015	46.795	0	733.20	0	3.9070	0	34.2460	0	27.201	0	725.844	0	12.1	4	3.8	4	-1E+10	1	-1E+10	1	-1E+10	1	-1E+10	1	-1E+10	1	-1E+10	1
4902551	119	C	12/02/2023	03:03	-131.015	46.795	0	738.10	0	3.8920	0	34.2470	0	27.204	0	730.686	0	12.2	4	3.8	4	-1E+10	1	-1E+10	1	-1E+10	1	-1E+10	1	-1E+10	1	-1E+10	1
4902551	119	C	12/02/2023	03:03	-131.015	46.795	0	743.10	0	3.8610	0	34.2510	0	27.210	0	735.627	0	12.1	4	3.8	4	-1E+10	1	-1E+10	1	-1E+10	1	-1E+10	1	-1E+10	1	-1E+10	1
4902551	119	C	12/02/2023	03:03	-131.015	46.795	0	748.10	0	3.8320	0	34.2550	0	27.216	0	740.568	0	12.1	4	3.8	4	-1E+10	1	-1E+10	1	-1E+10	1	-1E+10	1	-1E+10	1	-1E+10	1
4902551	119	C	12/02/2023	03:03	-131.015	46.795	0	753.10	0	3.8100	0	34.2570	0	27.220	0	745.509	0	12.2	4	3.8	4	-1E+10	1	-1E+10	1	-1E+10	1	-1E+10	1	-1E+10	1	-1E+10	1
4902551	119	C	12/02/2023	03:03	-131.015	46.795	0	758.10	0	3.7860	0	34.2580	0	27.223	0	750.449	0	12.2	4	3.8	4	-1E+10	1	-1E+10	1	-1E+10	1	-1E+10	1	-1E+10	1	-1E+10	1
4902551	119	C	12/02/2023	03:03	-131.015	46.795	0	763.00	0	3.7710	0	34.2580	0	27.225	0	755.291	0	12.1	4	3.8	4	-1E+10	1	-1E+10	1	-1E+10	1	-1E+10	1	-1E+10	1	-1E+10	1
4902551	119	C	12/02/2023	03:03	-131.015	46.795	0	768.10	0	3.7580	0	34.2610	0	27.228	0	760.330	0	12.0	4	3.8	4	-1E+10	1	-1E+10	1	-1E+10	1	-1E+10	1	-1E+10	1	-1E+10	1
4902551	119	C	12/02/2023	03:03	-131.015	46.795	0	772.70	0	3.7400	0	34.2640	0	27.233	0	764.875	0	11.8	4	3.7	4	-1E+10	1	-1E+10	1	-1E+10	1	-1E+10	1	-1E+10	1	-1E+10	1
4902551	119	C	12/02/2023	03:03	-131.015	46.795	0	777.80	0	3.7430	0	34.2690	0	27.236	0	769.914	0	11.6	4	3.6	4	-1E+10	1	-1E+10	1	-1E+10	1	-1E+10	1	-1E+10	1	-1E+10	1
4902551	119	C	12/02/2023	03:03	-131.015	46.795	0	783.00	0	3.7390	0	34.2720	0	27.239	0	775.052	0	11.4	4	3.6	4	-1E+10	1	-1E+10	1	-1E+10	1	-1E+10	1	-1E+10	1	-1E+10	1
4902551	119	C	12/02/2023	03:03	-131.015	46.795	0	787.80	0	3.7330	0	34.2740	0	27.241	0	779.794	0	11.3	4	3.6	4	-1E+10	1	-1E+10	1	-1E+10	1	-1E+10	1	-1E+10	1	-1E+10	1
4902551	119	C	12/02/2023	03:03	-131.015	46.795	0	792.70	0	3.7230	0	34.2770	0	27.245	0	784.635	0	11.2	4	3.5	4	-1E+10	1	-1E+10	1	-1E+10	1	-1E+10	1	-1E+10	1	-1E+10	1
4902551	119	C	12/02/2023	03:03	-131.015	46.795	0	797.70	0	3.7220	0	34.2800	0	27.247	0	789.575	0	11.3	4	3.5	4	-1E+10	1	-1E+10	1	-1E+10	1	-1E+10	1	-1E+10	1	-1E+10	1
4902551	119	C	12/02/2023	03:03	-131.015	46.795	0	803.00	0	3.6980	0	34.2820	0	27.251	0	794.811	0	11.4	4	3.6	4	-1E+10	1	-1E+10	1	-1E+10	1	-1E+10	1	-1E+10	1	-1E+10	1
4902551	119	C	12/02/2023	03:03	-131.015	46.795	0	807.80	0	3.6500	0	34.2830	0	27.257	0	799.553	0	11.5	4	3.6	4	-1E+10	1	-1E+10	1	-1E+10	1	-1E+10	1	-1E+10	1	-1E+10	1
4902551	119	C	12/02/2023	03:03	-131.015	46.795	0	812.70	0	3.6470	0	34.2830	0	27.257	0	804.393	0	11.4	4	3.6	4	-1E+10	1	-1E+10	1	-1E+10	1	-1E+10	1	-1E+10	1	-1E+10	1
4902551	119	C	12/02/2023	03:03	-131.015	46.795	0	817.90	0	3.6490	0	34.2870	0	27.260	0	809.530	0	11.4	4	3.6	4	-1E+10	1	-1E+10	1	-1E+10	1	-1E+10	1	-1E+10	1	-1E+10	1
4902551	119	C	12/02/2023	03:03	-131.015	46.795	0	822.70	0	3.6140	0	34.2860	0	27.263	0	814.272	0	11.4	4	3.6	4	-1E+10	1	-1E+10	1	-1E+10	1	-1E+10	1	-1E+10	1	-1E+10	1
4902551	119	C	12/02/2023	03:03	-131.015	46.795	0	827.90	0	3.6110	0	34.2870	0	27.264	0	819.408	0	11.3	4	3.5	4	-1E+10	1	-1E+10	1	-1E+10	1	-1E+10	1	-1E+10	1	-1E+10	1
4902551	119	C	12/02/2023	03:03	-131.015	46.795	0	833.20	0	3.6020	0	34.2910	0	27.268	0	824.643	0	11.1	4	3.5	4	-1E+10	1	-1E+10	1	-1E+10	1	-1E+10	1	-1E+10	1	-1E+10	1
4902551	119	C	12/02/2023	03:03	-131.015	46.795	0	838.10	0	3.5990	0	34.2930	0	27.270	0	829.483	0	10.8	4	3.4	4	-1E+10	1	-1E+10	1	-1E+10	1	-1E+10	1	-1E+10	1	-1E+10	1
4902551	119	C	12/02/2023	03:03	-131.015	46.795	0	843.20	0	3.6170	0	34.2990	0	27.273	0	834.521	0	10.4	4	3.3	4	-1E+10	1	-1E+10	1	-1E+10	1	-1E+10	1	-1E+10	1	-1E+10	1
4902551	119	C	12/02/2023	03:03	-131.015	46.795	0	847.90	0	3.6300	0	34.3060	0	27.277	0	839.163	0	10.4	4	3.2	4	-1E+10	1	-1E+10	1	-1E+10	1	-1E+10	1	-1E+10	1	-1E+10	1
4902551	119	C	12/02/2023	03:03	-131.015	46.795	0	852.60	0	3.6270	0	34.3100	0	27.281	0	843.805	0	10.4	4	3.3	4	-1E+10	1	-1E+10	1	-1E+10	1	-1E+10	1	-1E+10	1	-1E+10	1
4902551	119	C	12/02/2023	03:03	-131.015	46.795	0	857.90	0	3.6040	0	34.3110	0	27.284	0	849.039	0	10.5	4	3.3	4	-1E+10	1	-1E+10	1	-1E+10	1	-1E+10	1	-1E+10	1	-1E+10	1
4902551	119	C	12/02/2023	03:03	-131.015	46.795	0	863.10	0	3.5850	0	34.3090	0	27.284	0	854.175	0	10.6	4	3.3	4	-1E+10	1	-1E+10	1	-1E+10	1	-1E+10	1	-1E+10	1	-1E+10	1
4902551	119	C	12/02/2023	03:03	-131.015	46.795	0	867.90	0	3.5600	0	34.3090	0	27.287	0	858.916	0	10.6	4	3.3	4	-1E+10	1	-1E+10	1	-1E+10	1	-1E+10	1	-1E+10	1	-1E+10	1
4902551	119	C	12/02/2023	03:03	-131.015	46.795	0	872.60	0	3.5460	0	34.3110	0	27.290	0	863.557	0	10.6	4	3.3	4	-1E+10	1	-1E+10	1	-1E+10	1	-1E+10	1	-1E+10	1	-1E+10	1
4902551	119	C	12/02/2023	03:03	-131.015	46.795	0	877.80	0	3.5390	0	34.3130	0	27.292	0	868.693	0	10.5	4	3.3	4	-1E+10	1	-1E+10	1	-1E+10	1	-1E+10	1	-1E+10	1	-1E+10	1
4902551	119	C	12/02/2023	03:03	-131.015	46.795	0	883.00	0	3.5370	0	34.3150	0	27.294	0	873.828	0	10.3	4	3.2	4	-1E+10	1	-1E+10	1	-1E+10	1	-1E+10	1	-1E+10	1	-1E+10	1
4902551	119	C	12/02/2023	03:03	-131.015	46.795	0	887.80	0	3.5420	0	34.3210	0	27.298	0	878.568	0	10.1	4	3.2	4	-1E+10	1	-1E+10	1	-1E+10	1	-1E+10	1	-1E+10	1	-1E+10	1
4902551	119	C	12/02/2023	03:03	-131.015	46.795	0	892.70	0	3.5410	0	34.3270	0	27.303	0	883.407	0	9.9	4	3.1	4	-1E+10	1	-1E+10	1	-1E+10	1	-1E+10	1	-1E+10	1	-1E+10	1
4902551	119	C	12/02/2023	03:03	-131.015	46.795	0	897.90	0	3.5390	0	34.3340	0	27.309	0	888.541	0	9.9	4	3.1	4	-1E+10	1	-1E+10	1	-1E+10	1	-1E+10	1	-1E+10	1	-1E+10	1
4902551	119	C	12/02/2023	03:03	-131.015	46.795	0	903.20	0	3.5380	0	34.3380	0	27.312	0	893.775	0	9.9	4	3.1	4	-1E+10	1	-1E+10	1	-1E+10	1	-1E+10	1	-1E+10	1	-1E+10	1
4902551	119	C	12/02/2023	03:03	-131.015	46.795	0	908.00	0	3.5120	0	34.3390	0	27.316	0	898.514	0	10.0	4	3.1	4	-1E+10	1	-1E+10	1	-1E+10	1	-1E+10	1	-1E+10	1	-1E+10	1
4902551	119	C	12/02/2023	03:03	-131.015	46.795	0	912.90	0	3.5060	0	34.3400	0	27.317	0	903.353	0	10.0	4	3.1	4	-1E+10	1	-1E+10	1	-1E+10	1	-1E+10	1	-1E+10	1	-1E+10	1
4902551	119	C	12/02/2023	03:03	-131.015	46.795	0	918.20	0	3.4860	0	34.3390	0	27.318	0	908.586	0	10.1	4	3.1	4	-1E+10	1	-1E+10	1	-1E+10	1	-1E+10	1	-1E+10	1	-1E+10	1
4902551	119	C	12/02/2023	03:03	-131.015	46.795	0	922.90	0	3.4900	0	34.3430	0	27.321	0	913.226	0	10.1	4	3.1	4	-1E+10	1	-1E+10	1	-1E+10	1	-1E+10	1	-1E+10	1	-1E+10	1
4902551	119	C	12/02/2023	03:03	-131.015	46.795	0	927.70	0	3.4730	0	34.3440	0	27.323	0	917.965	0	10.2	4	3.2	4	-1E+10	1	-1E+10	1	-1E+10	1	-1E+10	1	-1E+10	1	-1E+10	1
4902551	119	C	12/02/2023	03:03	-131.015	46.795	0	932.80	0	3.4510	0	34.3420	0	27.324	0	923.001	0	10.2	4	3.2	4	-1E+10	1	-1E+10	1	-1E+10	1	-1E+10	1	-1E+10	1	-1E+10	1
4902551	119	C	12/02/2023	03:03	-131.015	46.795	0	937.80	0	3.4360	0	34.3450	0	27.328	0	927.937	0	10.3	4	3.2	4	-1E+10	1	-1E+10	1	-1E+10	1	-1E+10	1	-1E+10	1	-1E+10	1
4902551	119	C	12/02/2023	03:03	-131.015	46.795	0	942.90	0	3.4210	0	34.3460	0	27.330	0	932.972	0	10.3	4	3.2	4	-1E+10	1	-1E+10	1	-1E+10	1	-1E+10	1	-1E+10	1	-1E+10	1
4902551	119	C	12/02/2023	03:03	-131.015	46.795	0	947.90	0	3.4000	0	34.3480	0	27.334	0	937.908	0	10.3	4	3.2	4	-1E+10	1	-1E+10	1	-1E+10	1	-1E+10	1	-1E+10	1	-1E+10	1
4902551	119	C	12/02/2023	03:03	-131.015	46.795	0	952.90	0	3.3890	0	34.3510	0	27.337	0	942.844	0	10.4	4	3.2	4	-1E+10	1	-1E+10	1	-1E+10	1	-1E+10	1	-1E+10	1	-1E+10	1
4902551	119	C	12/02/2023	03:03	-131.015	46.795	0	958.00	0	3.3640	0	34.3540	0	27.342	0	947.879	0	10.4	4	3.2	4	-1E+10	1	-1E+10	1	-1E+10	1	-1E+10	1	-1E+10	1	-1E+10	1
4902551	119	C	12/02/2023	03:03	-131.015	46.795	0	962.90	0	3.3560	0	34.3560	0	27.344	0	952.716	0	10.4	4	3.2	4	-1E+10	1	-1E+10	1	-1E+10	1	-1E+10	1	-1E+10	1	-1E+10	1
4902551	119	C	12/02/2023	03:03	-131.015	46.795	0	967.80	0	3.3690	0	34.3600	0	27.346	0	957.553	0	10.5	4	3.3	4	-1E+10	1	-1E+10	1	-1E+10	1	-1E+10	1	-1E+10	1	-1E+10	1
4902551	119	C	12/02/2023	03:03	-131.015	46.795	0	972.80	0	3.3320	0	34.3580	0	27.348	0	962.489	0	10.6	4	3.3	4	-1E+10	1	-1E+10	1	-1E+10	1	-1E+10	1	-1E+10	1	-1E+10	1
4902551	119	C	12/02/2023	03:03	-131.015	46.795	0	977.90	0	3.2960	0	34.3590	0	27.352	0	967.523	0	10.7	4	3.3	4	-1E+10	1	-1E+10	1	-1E+10	1	-1E+10	1	-1E+10	1	-1E+10	1
4902551	119	C	12/02/2023	03:03	-131.015	46.795	0	983.20	0	3.2720	0	34.3610	0	27.356	0	972.754	0	10.7	4	3.3	4	-1E+10	1	-1E+10	1	-1E+10	1	-1E+10	1	-1E+10	1	-1E+10	1
4902551	119	C	12/02/2023	03:03	-131.015	46.795	0	988.00	0	3.2630	0	34.3640	0	27.360	0	977.492	0	10.7	4	3.3	4	-1E+10	1	-1E+10	1	-1E+10	1	-1E+10	1	-1E+10	1	-1E+10	1
4902551	119	C	12/02/2023	03:03	-131.015	46.795	0	992.80	0	3.2660	0	34.3650	0	27.360	0	982.230	0	10.7	4	3.3	4	-1E+10	1	-1E+10	1	-1E+10	1	-1E+10	1	-1E+10	1	-1E+10	1
4902551	119	C	12/02/2023	03:03	-131.015	46.795	0	997.90	0	3.2600	0	34.3700	0	27.365	0	987.263	0	10.7	4	3.3	4	-1E+10	1	-1E+10	1	-1E+10	1	-1E+10	1	-1E+10	1	-1E+10	1
4902551	119	C	12/02/2023	03:03	-131.015	46.795	0	1005.20	0	3.2650	0	34.3730	0	27.367	0	994.468	0	10.7	4	3.3	4	-1E+10	1	-1E+10	1	-1E+10	1	-1E+10	1	-1E+10	1	-1E+10	1
4902551	119	C	12/02/2023	03:03	-131.015	46.795	0	1015.50	0	3.2710	0	34.3780	0	27.370	0	1004.634	0	10.8	4	3.3	4	-1E+10	1	-1E+10	1	-1E+10	1	-1E+10	1	-1E+10	1	-1E+10	1
4902551	119	C	12/02/2023	03:03	-131.015	46.795	0	1025.70	0	3.2600	0	34.3830	0	27.375	0	1014.700	0	10.9	4	3.4	4	-1E+10	1	-1E+10	1	-1E+10	1	-1E+10	1	-1E+10	1	-1E+10	1
4902551	119	C	12/02/2023	03:03	-131.015	46.795	0	1035.70	0	3.2380	0	34.3860	0	27.380	0	1024.568	0	10.9	4	3.4	4	-1E+10	1	-1E+10	1	-1E+10	1	-1E+10	1	-1E+10	1	-1E+10	1
4902551	119	C	12/02/2023	03:03	-131.015	46.795	0	1045.50	0	3.2380	0	34.3910	0	27.384	0	1034.239	0	11.0	4	3.4	4	-1E+10	1	-1E+10	1	-1E+10	1	-1E+10	1	-1E+10	1	-1E+10	1
4902551	119	C	12/02/2023	03:03	-131.015	46.795	0	1055.30	0	3.2310	0	34.3940	0	27.387	0	1043.909	0	11.1	4	3.5	4	-1E+10	1	-1E+10	1	-1E+10	1	-1E+10	1	-1E+10	1	-1E+10	1
4902551	119	C	12/02/2023	03:03	-131.015	46.795	0	1065.10	0	3.2170	0	34.3970	0	27.391	0	1053.578	0	11.3	4	3.5	4	-1E+10	1	-1E+10	1	-1E+10	1	-1E+10	1	-1E+10	1	-1E+10	1
4902551	119	C	12/02/2023	03:03	-131.015	46.795	0	1075.60	0	3.1930	0	34.4010	0	27.396	0	1063.938	0	11.6	4	3.6	4	-1E+10	1	-1E+10	1	-1E+10	1	-1E+10	1	-1E+10	1	-1E+10	1
4902551	119	C	12/02/2023	03:03	-131.015	46.795	0	1085.70	0	3.1800	0	34.4070	0	27.402	0	1073.903	0	11.8	4	3.7	4	-1E+10	1	-1E+10	1	-1E+10	1	-1E+10	1	-1E+10	1	-1E+10	1
4902551	119	C	12/02/2023	03:03	-131.015	46.795	0	1095.50	0	3.1770	0	34.4120	0	27.407	0	1083.571	0	12.0	4	3.7	4	-1E+10	1	-1E+10	1	-1E+10	1	-1E+10	1	-1E+10	1	-1E+10	1
4902551	119	C	12/02/2023	03:03	-131.015	46.795	0	1105.50	0	3.1600	0	34.4140	0	27.410	0	1093.436	0	12.2	4	3.8	4	-1E+10	1	-1E+10	1	-1E+10	1	-1E+10	1	-1E+10	1	-1E+10	1
4902551	119	C	12/02/2023	03:03	-131.015	46.795	0	1115.60	0	3.1400	0	34.4180	0	27.415	0	1103.399	0	12.4	4	3.8	4	-1E+10	1	-1E+10	1	-1E+10	1	-1E+10	1	-1E+10	1	-1E+10	1
4902551	119	C	12/02/2023	03:03	-131.015	46.795	0	1125.40	0	3.1140	0	34.4200	0	27.419	0	1113.066	0	12.5	4	3.9	4	-1E+10	1	-1E+10	1	-1E+10	1	-1E+10	1	-1E+10	1	-1E+10	1
4902551	119	C	12/02/2023	03:03	-131.015	46.795	0	1135.40	0	3.0990	0	34.4220	0	27.422	0	1122.930	0	12.7	4	3.9	4	-1E+10	1	-1E+10	1	-1E+10	1	-1E+10	1	-1E+10	1	-1E+10	1
4902551	119	C	12/02/2023	03:03	-131.015	46.795	0	1145.30	0	3.0930	0	34.4240	0	27.424	0	1132.695	0	12.9	4	4.0	4	-1E+10	1	-1E+10	1	-1E+10	1	-1E+10	1	-1E+10	1	-1E+10	1
4902551	119	C	12/02/2023	03:03	-131.015	46.795	0	1155.40	0	3.0700	0	34.4270	0	27.429	0	1142.656	0	13.1	4	4.1	4	-1E+10	1	-1E+10	1	-1E+10	1	-1E+10	1	-1E+10	1	-1E+10	1
4902551	119	C	12/02/2023	03:03	-131.015	46.795	0	1165.80	0	3.0610	0	34.4290	0	27.431	0	1152.913	0	13.4	4	4.1	4	-1E+10	1	-1E+10	1	-1E+10	1	-1E+10	1	-1E+10	1	-1E+10	1
4902551	119	C	12/02/2023	03:03	-131.015	46.795	0	1175.80	0	3.0420	0	34.4320	0	27.435	0	1162.775	0	13.6	4	4.2	4	-1E+10	1	-1E+10	1	-1E+10	1	-1E+10	1	-1E+10	1	-1E+10	1
4902551	119	C	12/02/2023	03:03	-131.015	46.795	0	1185.80	0	3.0240	0	34.4350	0	27.439	0	1172.636	0	13.9	4	4.3	4	-1E+10	1	-1E+10	1	-1E+10	1	-1E+10	1	-1E+10	1	-1E+10	1
4902551	119	C	12/02/2023	03:03	-131.015	46.795	0	1195.80	0	3.0110	0	34.4370	0	27.442	0	1182.497	0	14.2	4	4.4	4	-1E+10	1	-1E+10	1	-1E+10	1	-1E+10	1	-1E+10	1	-1E+10	1
4902551	119	C	12/02/2023	03:03	-131.015	46.795	0	1205.40	0	2.9970	0	34.4400	0	27.446	0	1191.963	0	14.5	4	4.5	4	-1E+10	1	-1E+10	1	-1E+10	1	-1E+10	1	-1E+10	1	-1E+10	1
4902551	119	C	12/02/2023	03:03	-131.015	46.795	0	1215.00	0	2.9870	0	34.4430	0	27.449	0	1201.428	0	14.8	4	4.6	4	-1E+10	1	-1E+10	1	-1E+10	1	-1E+10	1	-1E+10	1	-1E+10	1
4902551	119	C	12/02/2023	03:03	-131.015	46.795	0	1225.00	0	2.9730	0	34.4450	0	27.452	0	1211.288	0	15.1	4	4.7	4	-1E+10	1	-1E+10	1	-1E+10	1	-1E+10	1	-1E+10	1	-1E+10	1
4902551	119	C	12/02/2023	03:03	-131.015	46.795	0	1235.30	0	2.9570	0	34.4470	0	27.455	0	1221.443	0	15.4	4	4.7	4	-1E+10	1	-1E+10	1	-1E+10	1	-1E+10	1	-1E+10	1	-1E+10	1
4902551	119	C	12/02/2023	03:03	-131.015	46.795	0	1245.30	0	2.9440	0	34.4490	0	27.458	0	1231.301	0	15.7	4	4.8	4	-1E+10	1	-1E+10	1	-1E+10	1	-1E+10	1	-1E+10	1	-1E+10	1
4902551	119	C	12/02/2023	03:03	-131.015	46.795	0	1255.30	0	2.9200	0	34.4520	0	27.463	0	1241.159	0	16.0	4	4.9	4	-1E+10	1	-1E+10	1	-1E+10	1	-1E+10	1	-1E+10	1	-1E+10	1
4902551	119	C	12/02/2023	03:03	-131.015	46.795	0	1265.20	0	2.8930	0	34.4550	0	27.468	0	1250.918	0	16.4	4	5.0	4	-1E+10	1	-1E+10	1	-1E+10	1	-1E+10	1	-1E+10	1	-1E+10	1
4902551	119	C	12/02/2023	03:03	-131.015	46.795	0	1275.50	0	2.8580	0	34.4590	0	27.474	0	1261.071	0	16.8	4	5.2	4	-1E+10	1	-1E+10	1	-1E+10	1	-1E+10	1	-1E+10	1	-1E+10	1
4902551	119	C	12/02/2023	03:03	-131.015	46.795	0	1285.30	0	2.8260	0	34.4620	0	27.479	0	1270.731	0	17.3	4	5.3	4	-1E+10	1	-1E+10	1	-1E+10	1	-1E+10	1	-1E+10	1	-1E+10	1
4902551	119	C	12/02/2023	03:03	-131.015	46.795	0	1295.30	0	2.8020	0	34.4660	0	27.485	0	1280.587	0	17.8	4	5.5	4	-1E+10	1	-1E+10	1	-1E+10	1	-1E+10	1	-1E+10	1	-1E+10	1
4902551	119	C	12/02/2023	03:03	-131.015	46.795	0	1305.50	0	2.7920	0	34.4670	0	27.486	0	1290.640	0	18.3	4	5.6	4	-1E+10	1	-1E+10	1	-1E+10	1	-1E+10	1	-1E+10	1	-1E+10	1
4902551	119	C	12/02/2023	03:03	-131.015	46.795	0	1315.40	0	2.7640	0	34.4710	0	27.492	0	1300.397	0	19.1	4	5.9	4	-1E+10	1	-1E+10	1	-1E+10	1	-1E+10	1	-1E+10	1	-1E+10	1
4902551	119	C	12/02/2023	03:03	-131.015	46.795	0	1325.60	0	2.7380	0	34.4750	0	27.497	0	1310.449	0	19.8	4	6.1	4	-1E+10	1	-1E+10	1	-1E+10	1	-1E+10	1	-1E+10	1	-1E+10	1
4902551	119	C	12/02/2023	03:03	-131.015	46.795	0	1335.50	0	2.7120	0	34.4780	0	27.502	0	1320.205	0	20.3	4	6.2	4	-1E+10	1	-1E+10	1	-1E+10	1	-1E+10	1	-1E+10	1	-1E+10	1
4902551	119	C	12/02/2023	03:03	-131.015	46.795	0	1345.40	0	2.6970	0	34.4800	0	27.505	0	1329.960	0	20.7	4	6.3	4	-1E+10	1	-1E+10	1	-1E+10	1	-1E+10	1	-1E+10	1	-1E+10	1
4902551	119	C	12/02/2023	03:03	-131.015	46.795	0	1355.70	0	2.6790	0	34.4830	0	27.509	0	1340.109	0	21.3	4	6.5	4	-1E+10	1	-1E+10	1	-1E+10	1	-1E+10	1	-1E+10	1	-1E+10	1
4902551	119	C	12/02/2023	03:03	-131.015	46.795	0	1365.60	0	2.6530	0	34.4860	0	27.514	0	1349.864	0	22.0	4	6.7	4	-1E+10	1	-1E+10	1	-1E+10	1	-1E+10	1	-1E+10	1	-1E+10	1
4902551	119	C	12/02/2023	03:03	-131.015	46.795	0	1375.70	0	2.6310	0	34.4890	0	27.518	0	1359.815	0	22.6	4	6.9	4	-1E+10	1	-1E+10	1	-1E+10	1	-1E+10	1	-1E+10	1	-1E+10	1
4902551	119	C	12/02/2023	03:03	-131.015	46.795	0	1385.30	0	2.6110	0	34.4920	0	27.522	0	1369.273	0	23.1	4	7.1	4	-1E+10	1	-1E+10	1	-1E+10	1	-1E+10	1	-1E+10	1	-1E+10	1
4902551	119	C	12/02/2023	03:03	-131.015	46.795	0	1395.20	0	2.5880	0	34.4960	0	27.527	0	1379.026	0	23.8	4	7.3	4	-1E+10	1	-1E+10	1	-1E+10	1	-1E+10	1	-1E+10	1	-1E+10	1
4902551	119	C	12/02/2023	03:03	-131.015	46.795	0	1405.20	0	2.5700	0	34.4980	0	27.531	0	1388.877	0	24.6	4	7.5	4	-1E+10	1	-1E+10	1	-1E+10	1	-1E+10	1	-1E+10	1	-1E+10	1
4902551	119	C	12/02/2023	03:03	-131.015	46.795	0	1415.00	0	2.5410	0	34.5010	0	27.536	0	1398.531	0	25.4	4	7.8	4	-1E+10	1	-1E+10	1	-1E+10	1	-1E+10	1	-1E+10	1	-1E+10	1
4902551	119	C	12/02/2023	03:03	-131.015	46.795	0	1425.00	0	2.5210	0	34.5040	0	27.540	0	1408.381	0	26.0	4	7.9	4	-1E+10	1	-1E+10	1	-1E+10	1	-1E+10	1	-1E+10	1	-1E+10	1
4902551	119	C	12/02/2023	03:03	-131.015	46.795	0	1435.00	0	2.5000	0	34.5070	0	27.544	0	1418.231	0	26.6	4	8.1	4	-1E+10	1	-1E+10	1	-1E+10	1	-1E+10	1	-1E+10	1	-1E+10	1
4902551	119	C	12/02/2023	03:03	-131.015	46.795	0	1445.10	0	2.4840	0	34.5090	0	27.547	0	1428.179	0	27.2	4	8.3	4	-1E+10	1	-1E+10	1	-1E+10	1	-1E+10	1	-1E+10	1	-1E+10	1
4902551	119	C	12/02/2023	03:03	-131.015	46.795	0	1455.40	0	2.4630	0	34.5120	0	27.551	0	1438.323	0	28.0	4	8.5	4	-1E+10	1	-1E+10	1	-1E+10	1	-1E+10	1	-1E+10	1	-1E+10	1
4902551	119	C	12/02/2023	03:03	-131.015	46.795	0	1465.50	0	2.4410	0	34.5150	0	27.555	0	1448.270	0	28.6	4	8.7	4	-1E+10	1	-1E+10	1	-1E+10	1	-1E+10	1	-1E+10	1	-1E+10	1
4902551	119	C	12/02/2023	03:03	-131.015	46.795	0	1475.70	0	2.4140	0	34.5180	0	27.560	0	1458.315	0	29.2	4	8.9	4	-1E+10	1	-1E+10	1	-1E+10	1	-1E+10	1	-1E+10	1	-1E+10	1
4902551	119	C	12/02/2023	03:03	-131.015	46.795	0	1485.50	0	2.3920	0	34.5190	0	27.563	0	1467.965	0	29.8	4	9.1	4	-1E+10	1	-1E+10	1	-1E+10	1	-1E+10	1	-1E+10	1	-1E+10	1
4902551	119	C	12/02/2023	03:03	-131.015	46.795	0	1495.30	0	2.3740	0	34.5220	0	27.567	0	1477.615	0	30.6	4	9.3	4	-1E+10	1	-1E+10	1	-1E+10	1	-1E+10	1	-1E+10	1	-1E+10	1
4902551	119	C	12/02/2023	03:03	-131.015	46.795	0	1505.40	0	2.3660	0	34.5240	0	27.569	0	1487.560	0	31.0	4	9.4	4	-1E+10	1	-1E+10	1	-1E+10	1	-1E+10	1	-1E+10	1	-1E+10	1
4902551	119	C	12/02/2023	03:03	-131.015	46.795	0	1515.30	0	2.3520	0	34.5260	0	27.572	0	1497.308	0	31.7	4	9.6	4	-1E+10	1	-1E+10	1	-1E+10	1	-1E+10	1	-1E+10	1	-1E+10	1
4902551	119	C	12/02/2023	03:03	-131.015	46.795	0	1525.60	0	2.3420	0	34.5280	0	27.574	0	1507.449	0	32.1	4	9.8	4	-1E+10	1	-1E+10	1	-1E+10	1	-1E+10	1	-1E+10	1	-1E+10	1
4902551	119	C	12/02/2023	03:03	-131.015	46.795	0	1535.70	0	2.3360	0	34.5290	0	27.576	0	1517.393	0	32.6	4	9.9	4	-1E+10	1	-1E+10	1	-1E+10	1	-1E+10	1	-1E+10	1	-1E+10	1
4902551	119	C	12/02/2023	03:03	-131.015	46.795	0	1545.40	0	2.3220	0	34.5310	0	27.578	0	1526.942	0	33.0	4	10.0	4	-1E+10	1	-1E+10	1	-1E+10	1	-1E+10	1	-1E+10	1	-1E+10	1
4902551	119	C	12/02/2023	03:03	-131.015	46.795	0	1555.30	0	2.3090	0	34.5320	0	27.580	0	1536.688	0	33.3	4	10.1	4	-1E+10	1	-1E+10	1	-1E+10	1	-1E+10	1	-1E+10	1	-1E+10	1
4902551	119	C	12/02/2023	03:03	-131.015	46.795	0	1565.30	0	2.3010	0	34.5330	0	27.582	0	1546.532	0	33.7	4	10.2	4	-1E+10	1	-1E+10	1	-1E+10	1	-1E+10	1	-1E+10	1	-1E+10	1
4902551	119	C	12/02/2023	03:03	-131.015	46.795	0	1575.30	0	2.2980	0	34.5340	0	27.583	0	1556.375	0	34.0	4	10.3	4	-1E+10	1	-1E+10	1	-1E+10	1	-1E+10	1	-1E+10	1	-1E+10	1
4902551	119	C	12/02/2023	03:03	-131.015	46.795	0	1585.60	0	2.2900	0	34.5350	0	27.584	0	1566.513	0	34.3	4	10.4	4	-1E+10	1	-1E+10	1	-1E+10	1	-1E+10	1	-1E+10	1	-1E+10	1
4902551	119	C	12/02/2023	03:03	-131.015	46.795	0	1595.60	0	2.2870	0	34.5350	0	27.585	0	1576.355	0	34.8	4	10.6	4	-1E+10	1	-1E+10	1	-1E+10	1	-1E+10	1	-1E+10	1	-1E+10	1
4902551	119	C	12/02/2023	03:03	-131.015	46.795	0	1605.20	0	2.2780	0	34.5370	0	27.587	0	1585.804	0	35.3	4	10.7	4	-1E+10	1	-1E+10	1	-1E+10	1	-1E+10	1	-1E+10	1	-1E+10	1
4902551	119	C	12/02/2023	03:03	-131.015	46.795	0	1615.40	0	2.2600	0	34.5390	0	27.590	0	1595.842	0	36.1	4	11.0	4	-1E+10	1	-1E+10	1	-1E+10	1	-1E+10	1	-1E+10	1	-1E+10	1
4902551	119	C	12/02/2023	03:03	-131.015	46.795	0	1625.60	0	2.2460	0	34.5410	0	27.593	0	1605.880	0	36.7	4	11.1	4	-1E+10	1	-1E+10	1	-1E+10	1	-1E+10	1	-1E+10	1	-1E+10	1
4902551	119	C	12/02/2023	03:03	-131.015	46.795	0	1635.30	0	2.2390	0	34.5420	0	27.594	0	1615.425	0	37.3	4	11.3	4	-1E+10	1	-1E+10	1	-1E+10	1	-1E+10	1	-1E+10	1	-1E+10	1
4902551	119	C	12/02/2023	03:03	-131.015	46.795	0	1645.40	0	2.2270	0	34.5440	0	27.597	0	1625.364	0	37.9	4	11.5	4	-1E+10	1	-1E+10	1	-1E+10	1	-1E+10	1	-1E+10	1	-1E+10	1
4902551	119	C	12/02/2023	03:03	-131.015	46.795	0	1655.80	0	2.2170	0	34.5450	0	27.599	0	1635.597	0	38.5	4	11.7	4	-1E+10	1	-1E+10	1	-1E+10	1	-1E+10	1	-1E+10	1	-1E+10	1
4902551	119	C	12/02/2023	03:03	-131.015	46.795	0	1665.40	0	2.2070	0	34.5470	0	27.601	0	1645.043	0	39.1	4	11.8	4	-1E+10	1	-1E+10	1	-1E+10	1	-1E+10	1	-1E+10	1	-1E+10	1
4902551	119	C	12/02/2023	03:03	-131.015	46.795	0	1675.60	0	2.1940	0	34.5490	0	27.604	0	1655.078	0	40.1	4	12.1	4	-1E+10	1	-1E+10	1	-1E+10	1	-1E+10	1	-1E+10	1	-1E+10	1
4902551	119	C	12/02/2023	03:03	-131.015	46.795	0	1685.50	0	2.1750	0	34.5520	0	27.608	0	1664.818	0	41.5	4	12.6	4	-1E+10	1	-1E+10	1	-1E+10	1	-1E+10	1	-1E+10	1	-1E+10	1
4902551	119	C	12/02/2023	03:03	-131.015	46.795	0	1695.10	0	2.1500	0	34.5560	0	27.613	0	1674.262	0	42.7	4	12.9	4	-1E+10	1	-1E+10	1	-1E+10	1	-1E+10	1	-1E+10	1	-1E+10	1
4902551	119	C	12/02/2023	03:03	-131.015	46.795	0	1705.00	0	2.1420	0	34.5580	0	27.615	0	1684.001	0	43.3	4	13.1	4	-1E+10	1	-1E+10	1	-1E+10	1	-1E+10	1	-1E+10	1	-1E+10	1
4902551	119	C	12/02/2023	03:03	-131.015	46.795	0	1715.10	0	2.1340	0	34.5590	0	27.617	0	1693.937	0	43.9	4	13.3	4	-1E+10	1	-1E+10	1	-1E+10	1	-1E+10	1	-1E+10	1	-1E+10	1
4902551	119	C	12/02/2023	03:03	-131.015	46.795	0	1725.30	0	2.1240	0	34.5610	0	27.619	0	1703.970	0	44.6	4	13.5	4	-1E+10	1	-1E+10	1	-1E+10	1	-1E+10	1	-1E+10	1	-1E+10	1
4902551	119	C	12/02/2023	03:03	-131.015	46.795	0	1735.30	0	2.1120	0	34.5630	0	27.622	0	1713.806	0	45.2	4	13.7	4	-1E+10	1	-1E+10	1	-1E+10	1	-1E+10	1	-1E+10	1	-1E+10	1
4902551	119	C	12/02/2023	03:03	-131.015	46.795	0	1745.60	0	2.1070	0	34.5640	0	27.623	0	1723.937	0	45.4	4	13.7	4	-1E+10	1	-1E+10	1	-1E+10	1	-1E+10	1	-1E+10	1	-1E+10	1
4902551	119	C	12/02/2023	03:03	-131.015	46.795	0	1755.40	0	2.1060	0	34.5640	0	27.623	0	1733.575	0	45.7	4	13.8	4	-1E+10	1	-1E+10	1	-1E+10	1	-1E+10	1	-1E+10	1	-1E+10	1
4902551	119	C	12/02/2023	03:03	-131.015	46.795	0	1765.20	0	2.1040	0	34.5640	0	27.624	0	1743.213	0	46.2	4	14.0	4	-1E+10	1	-1E+10	1	-1E+10	1	-1E+10	1	-1E+10	1	-1E+10	1
4902551	119	C	12/02/2023	03:03	-131.015	46.795	0	1775.20	0	2.0930	0	34.5660	0	27.626	0	1753.047	0	47.1	4	14.2	4	-1E+10	1	-1E+10	1	-1E+10	1	-1E+10	1	-1E+10	1	-1E+10	1
4902551	119	C	12/02/2023	03:03	-131.015	46.795	0	1785.20	0	2.0800	0	34.5680	0	27.629	0	1762.881	0	47.8	4	14.4	4	-1E+10	1	-1E+10	1	-1E+10	1	-1E+10	1	-1E+10	1	-1E+10	1
4902551	119	C	12/02/2023	03:03	-131.015	46.795	0	1795.30	0	2.0680	0	34.5700	0	27.631	0	1772.812	0	48.4	4	14.6	4	-1E+10	1	-1E+10	1	-1E+10	1	-1E+10	1	-1E+10	1	-1E+10	1
4902551	119	C	12/02/2023	03:03	-131.015	46.795	0	1805.50	0	2.0640	0	34.5710	0	27.632	0	1782.842	0	48.9	4	14.8	4	-1E+10	1	-1E+10	1	-1E+10	1	-1E+10	1	-1E+10	1	-1E+10	1
4902551	119	C	12/02/2023	03:03	-131.015	46.795	0	1815.70	0	2.0530	0	34.5730	0	27.635	0	1792.871	0	49.5	4	14.9	4	-1E+10	1	-1E+10	1	-1E+10	1	-1E+10	1	-1E+10	1	-1E+10	1
4902551	119	C	12/02/2023	03:03	-131.015	46.795	0	1825.40	0	2.0450	0	34.5740	0	27.636	0	1802.408	0	49.8	4	15.0	4	-1E+10	1	-1E+10	1	-1E+10	1	-1E+10	1	-1E+10	1	-1E+10	1
4902551	119	C	12/02/2023	03:03	-131.015	46.795	0	1835.20	0	2.0430	0	34.5750	0	27.638	0	1812.042	0	50.2	4	15.1	4	-1E+10	1	-1E+10	1	-1E+10	1	-1E+10	1	-1E+10	1	-1E+10	1
4902551	119	C	12/02/2023	03:03	-131.015	46.795	0	1845.20	0	2.0370	0	34.5760	0	27.639	0	1821.873	0	50.7	4	15.3	4	-1E+10	1	-1E+10	1	-1E+10	1	-1E+10	1	-1E+10	1	-1E+10	1
4902551	119	C	12/02/2023	03:03	-131.015	46.795	0	1855.30	0	2.0270	0	34.5770	0	27.640	0	1831.802	0	51.3	4	15.5	4	-1E+10	1	-1E+10	1	-1E+10	1	-1E+10	1	-1E+10	1	-1E+10	1
4902551	119	C	12/02/2023	03:03	-131.015	46.795	0	1865.60	0	2.0230	0	34.5780	0	27.642	0	1841.927	0	51.6	4	15.6	4	-1E+10	1	-1E+10	1	-1E+10	1	-1E+10	1	-1E+10	1	-1E+10	1
4902551	119	C	12/02/2023	03:03	-131.015	46.795	0	1875.50	0	2.0190	0	34.5780	0	27.642	0	1851.659	0	52.0	4	15.7	4	-1E+10	1	-1E+10	1	-1E+10	1	-1E+10	1	-1E+10	1	-1E+10	1
4902551	119	C	12/02/2023	03:03	-131.015	46.795	0	1885.40	0	2.0110	0	34.5800	0	27.644	0	1861.390	0	52.4	4	15.8	4	-1E+10	1	-1E+10	1	-1E+10	1	-1E+10	1	-1E+10	1	-1E+10	1
4902551	119	C	12/02/2023	03:03	-131.015	46.795	0	1895.30	0	2.0100	0	34.5800	0	27.644	0	1871.120	0	52.7	4	15.9	4	-1E+10	1	-1E+10	1	-1E+10	1	-1E+10	1	-1E+10	1	-1E+10	1
4902551	119	C	12/02/2023	03:03	-131.015	46.795	0	1905.20	0	2.0030	0	34.5810	0	27.646	0	1880.850	0	53.3	4	16.1	4	-1E+10	1	-1E+10	1	-1E+10	1	-1E+10	1	-1E+10	1	-1E+10	1
4902551	119	C	12/02/2023	03:03	-131.015	46.795	0	1915.30	0	1.9950	0	34.5830	0	27.648	0	1890.776	0	53.7	4	16.2	4	-1E+10	1	-1E+10	1	-1E+10	1	-1E+10	1	-1E+10	1	-1E+10	1
4902551	119	C	12/02/2023	03:03	-131.015	46.795	0	1925.30	0	1.9920	0	34.5830	0	27.648	0	1900.603	0	54.0	4	16.3	4	-1E+10	1	-1E+10	1	-1E+10	1	-1E+10	1	-1E+10	1	-1E+10	1
4902551	119	C	12/02/2023	03:03	-131.015	46.795	0	1935.30	0	1.9850	0	34.5850	0	27.651	0	1910.430	0	54.5	4	16.4	4	-1E+10	1	-1E+10	1	-1E+10	1	-1E+10	1	-1E+10	1	-1E+10	1
4902551	119	C	12/02/2023	03:03	-131.015	46.795	0	1945.30	0	1.9790	0	34.5860	0	27.652	0	1920.257	0	54.7	4	16.5	4	-1E+10	1	-1E+10	1	-1E+10	1	-1E+10	1	-1E+10	1	-1E+10	1
4902551	119	C	12/02/2023	03:03	-131.015	46.795	0	1955.70	0	1.9760	0	34.5860	0	27.652	0	1930.476	0	54.9	4	16.5	4	-1E+10	1	-1E+10	1	-1E+10	1	-1E+10	1	-1E+10	1	-1E+10	1
4902551	119	C	12/02/2023	03:03	-131.015	46.795	0	1965.90	0	1.9740	0	34.5860	0	27.652	0	1940.498	0	55.0	4	16.6	4	-1E+10	1	-1E+10	1	-1E+10	1	-1E+10	1	-1E+10	1	-1E+10	1
4902551	119	C	12/02/2023	03:03	-131.015	46.795	0	1975.20	0	1.9720	0	34.5870	0	27.653	0	1949.635	0	54.9	4	16.6	4	-1E+10	1	-1E+10	1	-1E+10	1	-1E+10	1	-1E+10	1	-1E+10	1
4902551	119	C	12/02/2023	03:03	-131.015	46.795	0																										
4902551	120	C	12/12/2023	02:58	-130.974	46.734	0	0.40	0	11.2270	0	32.2500	0	24.595	0	0.397	0	251.9	4	92.3	4	-1E+10	1	-1E+10	1	-1E+10	1	-1E+10	1	-1E+10	1	-1E+10	1
4902551	120	C	12/12/2023	02:58	-130.974	46.734	0	1.00	0	11.2250	0	32.2530	0	24.598	0	0.992	0	251.9	4	92.3	4	-1E+10	1	-1E+10	1	-1E+10	1	-1E+10	1	-1E+10	1	-1E+10	1
4902551	120	C	12/12/2023	02:58	-130.974	46.734	0	2.20	0	11.2330	0	32.2490	0	24.593	0	2.182	0	251.8	4	92.3	4	-1E+10	1	-1E+10	1	-1E+10	1	-1E+10	1	-1E+10	1	-1E+10	1
4902551	120	C	12/12/2023	02:58	-130.974	46.734	0	2.90	0	11.2360	0	32.2460	0	24.590	0	2.876	0	251.8	4	92.3	4	-1E+10	1	-1E+10	1	-1E+10	1	-1E+10	1	-1E+10	1	-1E+10	1
4902551	120	C	12/12/2023	02:58	-130.974	46.734	0	3.90	0	11.2390	0	32.2440	0	24.588	0	3.868	0	251.7	4	92.3	4	-1E+10	1	-1E+10	1	-1E+10	1	-1E+10	1	-1E+10	1	-1E+10	1
4902551	120	C	12/12/2023	02:58	-130.974	46.734	0	5.10	0	11.2400	0	32.2450	0	24.589	0	5.058	0	251.7	4	92.3	4	-1E+10	1	-1E+10	1	-1E+10	1	-1E+10	1	-1E+10	1	-1E+10	1
4902551	120	C	12/12/2023	02:58	-130.974	46.734	0	6.00	0	11.2350	0	32.2450	0	24.590	0	5.950	0	251.7	4	92.3	4	-1E+10	1	-1E+10	1	-1E+10	1	-1E+10	1	-1E+10	1	-1E+10	1
4902551	120	C	12/12/2023	02:58	-130.974	46.734	0	6.80	0	11.2360	0	32.2440	0	24.589	0	6.744	0	251.6	4	92.2	4	-1E+10	1	-1E+10	1	-1E+10	1	-1E+10	1	-1E+10	1	-1E+10	1
4902551	120	C	12/12/2023	02:58	-130.974	46.734	0	8.00	0	11.2350	0	32.2440	0	24.589	0	7.934	0	251.6	4	92.2	4	-1E+10	1	-1E+10	1	-1E+10	1	-1E+10	1	-1E+10	1	-1E+10	1
4902551	120	C	12/12/2023	02:58	-130.974	46.734	0	8.90	0	11.2350	0	32.2450	0	24.590	0	8.826	0	251.6	4	92.2	4	-1E+10	1	-1E+10	1	-1E+10	1	-1E+10	1	-1E+10	1	-1E+10	1
4902551	120	C	12/12/2023	02:58	-130.974	46.734	0	9.80	0	11.2340	0	32.2440	0	24.589	0	9.719	0	251.6	4	92.2	4	-1E+10	1	-1E+10	1	-1E+10	1	-1E+10	1	-1E+10	1	-1E+10	1
4902551	120	C	12/12/2023	02:58	-130.974	46.734	0	11.00	0	11.2360	0	32.2440	0	24.589	0	10.909	0	251.5	4	92.2	4	-1E+10	1	-1E+10	1	-1E+10	1	-1E+10	1	-1E+10	1	-1E+10	1
4902551	120	C	12/12/2023	02:58	-130.974	46.734	0	11.90	0	11.2370	0	32.2450	0	24.590	0	11.801	0	251.5	4	92.2	4	-1E+10	1	-1E+10	1	-1E+10	1	-1E+10	1	-1E+10	1	-1E+10	1
4902551	120	C	12/12/2023	02:58	-130.974	46.734	0	12.80	0	11.2350	0	32.2440	0	24.589	0	12.694	0	251.5	4	92.2	4	-1E+10	1	-1E+10	1	-1E+10	1	-1E+10	1	-1E+10	1	-1E+10	1
4902551	120	C	12/12/2023	02:58	-130.974	46.734	0	14.00	0	11.2370	0	32.2460	0	24.591	0	13.884	0	251.4	4	92.2	4	-1E+10	1	-1E+10	1	-1E+10	1	-1E+10	1	-1E+10	1	-1E+10	1
4902551	120	C	12/12/2023	02:58	-130.974	46.734	0	15.00	0	11.2370	0	32.2450	0	24.590	0	14.875	0	251.4	4	92.2	4	-1E+10	1	-1E+10	1	-1E+10	1	-1E+10	1	-1E+10	1	-1E+10	1
4902551	120	C	12/12/2023	02:58	-130.974	46.734	0	15.90	0	11.2380	0	32.2450	0	24.590	0	15.768	0	251.4	4	92.2	4	-1E+10	1	-1E+10	1	-1E+10	1	-1E+10	1	-1E+10	1	-1E+10	1
4902551	120	C	12/12/2023	02:58	-130.974	46.734	0	16.90	0	11.2380	0	32.2440	0	24.589	0	16.759	0	251.5	4	92.2	4	-1E+10	1	-1E+10	1	-1E+10	1	-1E+10	1	-1E+10	1	-1E+10	1
4902551	120	C	12/12/2023	02:58	-130.974	46.734	0	17.80	0	11.2370	0	32.2440	0	24.589	0	17.652	0	251.4	4	92.2	4	-1E+10	1	-1E+10	1	-1E+10	1	-1E+10	1	-1E+10	1	-1E+10	1
4902551	120	C	12/12/2023	02:58	-130.974	46.734	0	19.00	0	11.2360	0	32.2440	0	24.589	0	18.842	0	251.4	4	92.2	4	-1E+10	1	-1E+10	1	-1E+10	1	-1E+10	1	-1E+10	1	-1E+10	1
4902551	120	C	12/12/2023	02:58	-130.974	46.734	0	20.00	0	11.2370	0	32.2450	0	24.590	0	19.834	0	251.3	4	92.1	4	-1E+10	1	-1E+10	1	-1E+10	1	-1E+10	1	-1E+10	1	-1E+10	1
4902551	120	C	12/12/2023	02:58	-130.974	46.734	0	21.00	0	11.2380	0	32.2450	0	24.590	0	20.825	0	251.3	4	92.1	4	-1E+10	1	-1E+10	1	-1E+10	1	-1E+10	1	-1E+10	1	-1E+10	1
4902551	120	C	12/12/2023	02:58	-130.974	46.734	0	22.00	0	11.2400	0	32.2440	0	24.589	0	21.817	0	251.3	4	92.1	4	-1E+10	1	-1E+10	1	-1E+10	1	-1E+10	1	-1E+10	1	-1E+10	1
4902551	120	C	12/12/2023	02:58	-130.974	46.734	0	23.00	0	11.2390	0	32.2470	0	24.591	0	22.808	0	251.2	4	92.1	4	-1E+10	1	-1E+10	1	-1E+10	1	-1E+10	1	-1E+10	1	-1E+10	1
4902551	120	C	12/12/2023	02:58	-130.974	46.734	0	24.20	0	11.2380	0	32.2440	0	24.589	0	23.998	0	251.2	4	92.1	4	-1E+10	1	-1E+10	1	-1E+10	1	-1E+10	1	-1E+10	1	-1E+10	1
4902551	120	C	12/12/2023	02:58	-130.974	46.734	0	24.90	0	11.2370	0	32.2440	0	24.589	0	24.692	0	251.2	4	92.1	4	-1E+10	1	-1E+10	1	-1E+10	1	-1E+10	1	-1E+10	1	-1E+10	1
4902551	120	C	12/12/2023	02:58	-130.974	46.734	0	26.00	0	11.2370	0	32.2450	0	24.590	0	25.783	0	251.2	4	92.1	4	-1E+10	1	-1E+10	1	-1E+10	1	-1E+10	1	-1E+10	1	-1E+10	1
4902551	120	C	12/12/2023	02:58	-130.974	46.734	0	27.20	0	11.2400	0	32.2450	0	24.589	0	26.973	0	251.1	4	92.1	4	-1E+10	1	-1E+10	1	-1E+10	1	-1E+10	1	-1E+10	1	-1E+10	1
4902551	120	C	12/12/2023	02:58	-130.974	46.734	0	28.00	0	11.2400	0	32.2450	0	24.589	0	27.766	0	251.0	4	92.0	4	-1E+10	1	-1E+10	1	-1E+10	1	-1E+10	1	-1E+10	1	-1E+10	1
4902551	120	C	12/12/2023	02:58	-130.974	46.734	0	28.70	0	11.2380	0	32.2450	0	24.590	0	28.460	0	251.1	4	92.1	4	-1E+10	1	-1E+10	1	-1E+10	1	-1E+10	1	-1E+10	1	-1E+10	1
4902551	120	C	12/12/2023	02:58	-130.974	46.734	0	29.80	0	11.2390	0	32.2450	0	24.590	0	29.551	0	251.0	4	92.0	4	-1E+10	1	-1E+10	1	-1E+10	1	-1E+10	1	-1E+10	1	-1E+10	1
4902551	120	C	12/12/2023	02:58	-130.974	46.734	0	31.00	0	11.2390	0	32.2450	0	24.590	0	30.741	0	251.0	4	92.0	4	-1E+10	1	-1E+10	1	-1E+10	1	-1E+10	1	-1E+10	1	-1E+10	1
4902551	120	C	12/12/2023	02:58	-130.974	46.734	0	32.00	0	11.2450	0	32.2470	0	24.590	0	31.733	0	250.9	4	92.0	4	-1E+10	1	-1E+10	1	-1E+10	1	-1E+10	1	-1E+10	1	-1E+10	1
4902551	120	C	12/12/2023	02:58	-130.974	46.734	0	33.20	0	11.2480	0	32.2460	0	24.589	0	32.923	0	250.9	4	92.0	4	-1E+10	1	-1E+10	1	-1E+10	1	-1E+10	1	-1E+10	1	-1E+10	1
4902551	120	C	12/12/2023	02:58	-130.974	46.734	0	33.90	0	11.2490	0	32.2460	0	24.589	0	33.617	0	251.0	4	92.0	4	-1E+10	1	-1E+10	1	-1E+10	1	-1E+10	1	-1E+10	1	-1E+10	1
4902551	120	C	12/12/2023	02:58	-130.974	46.734	0	34.90	0	11.2510	0	32.2470	0	24.589	0	34.608	0	250.8	4	92.0	4	-1E+10	1	-1E+10	1	-1E+10	1	-1E+10	1	-1E+10	1	-1E+10	1
4902551	120	C	12/12/2023	02:58	-130.974	46.734	0	35.90	0	11.2510	0	32.2470	0	24.589	0	35.600	0	250.8	4	92.0	4	-1E+10	1	-1E+10	1	-1E+10	1	-1E+10	1	-1E+10	1	-1E+10	1
4902551	120	C	12/12/2023	02:58	-130.974	46.734	0	36.90	0	11.2470	0	32.2470	0	24.590	0	36.591	0	250.7	4	91.9	4	-1E+10	1	-1E+10	1	-1E+10	1	-1E+10	1	-1E+10	1	-1E+10	1
4902551	120	C	12/12/2023	02:58	-130.974	46.734	0	38.10	0	11.2470	0	32.2500	0	24.592	0	37.781	0	250.7	4	91.9	4	-1E+10	1	-1E+10	1	-1E+10	1	-1E+10	1	-1E+10	1	-1E+10	1
4902551	120	C	12/12/2023	02:58	-130.974	46.734	0	38.80	0	11.2420	0	32.2480	0	24.592	0	38.475	0	250.6	4	91.9	4	-1E+10	1	-1E+10	1	-1E+10	1	-1E+10	1	-1E+10	1	-1E+10	1
4902551	120	C	12/12/2023	02:58	-130.974	46.734	0	39.80	0	11.2390	0	32.2450	0	24.590	0	39.467	0	250.6	4	91.9	4	-1E+10	1	-1E+10	1	-1E+10	1	-1E+10	1	-1E+10	1	-1E+10	1
4902551	120	C	12/12/2023	02:58	-130.974	46.734	0	40.90	0	11.2340	0	32.2440	0	24.590	0	40.557	0	250.4	4	91.8	4	-1E+10	1	-1E+10	1	-1E+10	1	-1E+10	1	-1E+10	1	-1E+10	1
4902551	120	C	12/12/2023	02:58	-130.974	46.734	0	42.00	0	11.2390	0	32.2450	0	24.590	0	41.648	0	250.4	4	91.8	4	-1E+10	1	-1E+10	1	-1E+10	1	-1E+10	1	-1E+10	1	-1E+10	1
4902551	120	C	12/12/2023	02:58	-130.974	46.734	0	43.10	0	11.2460	0	32.2490	0	24.592	0	42.739	0	250.2	4	91.8	4	-1E+10	1	-1E+10	1	-1E+10	1	-1E+10	1	-1E+10	1	-1E+10	1
4902551	120	C	12/12/2023	02:58	-130.974	46.734	0	43.90	0	11.2480	0	32.2520	0	24.594	0	43.532	0	250.2	4	91.7	4	-1E+10	1	-1E+10	1	-1E+10	1	-1E+10	1	-1E+10	1	-1E+10	1
4902551	120	C	12/12/2023	02:58	-130.974	46.734	0	45.00	0	11.2680	0	32.2500	0	24.589	0	44.623	0	250.0	4	91.7	4	-1E+10	1	-1E+10	1	-1E+10	1	-1E+10	1	-1E+10	1	-1E+10	1
4902551	120	C	12/12/2023	02:58	-130.974	46.734	0	46.10	0	11.2640	0	32.2520	0	24.591	0	45.713	0	249.8	4	91.7	4	-1E+10	1	-1E+10	1	-1E+10	1	-1E+10	1	-1E+10	1	-1E+10	1
4902551	120	C	12/12/2023	02:58	-130.974	46.734	0	46.80	0	11.2670	0	32.2480	0	24.587	0	46.407	0	249.8	4	91.6	4	-1E+10	1	-1E+10	1	-1E+10	1	-1E+10	1	-1E+10	1	-1E+10	1
4902551	120	C	12/12/2023	02:58	-130.974	46.734	0	47.80	0	11.2650	0	32.2540	0	24.592	0	47.399	0	249.7	4	91.6	4	-1E+10	1	-1E+10	1	-1E+10	1	-1E+10	1	-1E+10	1	-1E+10	1
4902551	120	C	12/12/2023	02:58	-130.974	46.734	0	48.80	0	11.2650	0	32.2530	0	24.592	0	48.390	0	249.6	4	91.6	4	-1E+10	1	-1E+10	1	-1E+10	1	-1E+10	1	-1E+10	1	-1E+10	1
4902551	120	C	12/12/2023	02:58	-130.974	46.734	0	49.80	0	11.2690	0	32.2550	0	24.593	0	49.382	0	249.5	4	91.5	4	-1E+10	1	-1E+10	1	-1E+10	1	-1E+10	1	-1E+10	1	-1E+10	1
4902551	120	C	12/12/2023	02:58	-130.974	46.734	0	51.10	0	11.2720	0	32.2560	0	24.593	0	50.671	0	249.2	4	91.4	4	-1E+10	1	-1E+10	1	-1E+10	1	-1E+10	1	-1E+10	1	-1E+10	1
4902551	120	C	12/12/2023	02:58	-130.974	46.734	0	52.00	0	11.2710	0	32.2600	0	24.596	0	51.563	0	249.0	4	91.3	4	-1E+10	1	-1E+10	1	-1E+10	1	-1E+10	1	-1E+10	1	-1E+10	1
4902551	120	C	12/12/2023	02:58	-130.974	46.734	0	52.90	0	11.2680	0	32.2630	0	24.599	0	52.455	0	248.6	4	91.2	4	-1E+10	1	-1E+10	1	-1E+10	1	-1E+10	1	-1E+10	1	-1E+10	1
4902551	120	C	12/12/2023	02:58	-130.974	46.734	0	53.90	0	11.2680	0	32.2620	0	24.598	0	53.447	0	248.4	4	91.1	4	-1E+10	1	-1E+10	1	-1E+10	1	-1E+10	1	-1E+10	1	-1E+10	1
4902551	120	C	12/12/2023	02:58	-130.974	46.734	0	54.80	0	11.2710	0	32.2630	0	24.599	0	54.339	0	248.1	4	91.0	4	-1E+10	1	-1E+10	1	-1E+10	1	-1E+10	1	-1E+10	1	-1E+10	1
4902551	120	C	12/12/2023	02:58	-130.974	46.734	0	56.10	0	11.2710	0	32.2640	0	24.599	0	55.628	0	247.6	4	90.9	4	-1E+10	1	-1E+10	1	-1E+10	1	-1E+10	1	-1E+10	1	-1E+10	1
4902551	120	C	12/12/2023	02:58	-130.974	46.734	0	57.00	0	11.2720	0	32.2640	0	24.599	0	56.520	0	247.2	4	90.7	4	-1E+10	1	-1E+10	1	-1E+10	1	-1E+10	1	-1E+10	1	-1E+10	1
4902551	120	C	12/12/2023	02:58	-130.974	46.734	0	57.80	0	11.2720	0	32.2640	0	24.599	0	57.314	0	246.7	4	90.5	4	-1E+10	1	-1E+10	1	-1E+10	1	-1E+10	1	-1E+10	1	-1E+10	1
4902551	120	C	12/12/2023	02:58	-130.974	46.734	0	58.90	0	11.2720	0	32.2630	0	24.598	0	58.404	0	245.9	4	90.2	4	-1E+10	1	-1E+10	1	-1E+10	1	-1E+10	1	-1E+10	1	-1E+10	1
4902551	120	C	12/12/2023	02:58	-130.974	46.734	0	59.90	0	11.2710	0	32.2640	0	24.599	0	59.396	0	244.9	4	89.8	4	-1E+10	1	-1E+10	1	-1E+10	1	-1E+10	1	-1E+10	1	-1E+10	1
4902551	120	C	12/12/2023	02:58	-130.974	46.734	0	61.10	0	11.1770	0	32.2690	0	24.620	0	60.585	0	244.1	4	89.4	4	-1E+10	1	-1E+10	1	-1E+10	1	-1E+10	1	-1E+10	1	-1E+10	1
4902551	120	C	12/12/2023	02:58	-130.974	46.734	0	61.80	0	11.1080	0	32.2740	0	24.636	0	61.279	0	243.6	4	89.1	4	-1E+10	1	-1E+10	1	-1E+10	1	-1E+10	1	-1E+10	1	-1E+10	1
4902551	120	C	12/12/2023	02:58	-130.974	46.734	0	63.00	0	11.0020	0	32.2860	0	24.664	0	62.469	0	242.9	4	88.6	4	-1E+10	1	-1E+10	1	-1E+10	1	-1E+10	1	-1E+10	1	-1E+10	1
4902551	120	C	12/12/2023	02:58	-130.974	46.734	0	63.90	0	10.9060	0	32.2940	0	24.687	0	63.361	0	242.7	4	88.4	4	-1E+10	1	-1E+10	1	-1E+10	1	-1E+10	1	-1E+10	1	-1E+10	1
4902551	120	C	12/12/2023	02:58	-130.974	46.734	0	64.90	0	10.8680	0	32.3000	0	24.699	0	64.353	0	242.0	4	88.1	4	-1E+10	1	-1E+10	1	-1E+10	1	-1E+10	1	-1E+10	1	-1E+10	1
4902551	120	C	12/12/2023	02:58	-130.974	46.734	0	66.10	0	10.8560	0	32.2990	0	24.700	0	65.542	0	240.5	4	87.5	4	-1E+10	1	-1E+10	1	-1E+10	1	-1E+10	1	-1E+10	1	-1E+10	1
4902551	120	C	12/12/2023	02:58	-130.974	46.734	0	67.00	0	10.8160	0	32.3040	0	24.711	0	66.435	0	239.6	4	87.1	4	-1E+10	1	-1E+10	1	-1E+10	1	-1E+10	1	-1E+10	1	-1E+10	1
4902551	120	C	12/12/2023	02:58	-130.974	46.734	0	67.90	0	10.7610	0	32.3090	0	24.724	0	67.327	0	238.4	4	86.6	4	-1E+10	1	-1E+10	1	-1E+10	1	-1E+10	1	-1E+10	1	-1E+10	1
4902551	120	C	12/12/2023	02:58	-130.974	46.734	0	68.80	0	10.7050	0	32.3130	0	24.737	0	68.219	0	237.1	4	86.0	4	-1E+10	1	-1E+10	1	-1E+10	1	-1E+10	1	-1E+10	1	-1E+10	1
4902551	120	C	12/12/2023	02:58	-130.974	46.734	0	69.80	0	10.6110	0	32.3220	0	24.760	0	69.211	0	235.8	4	85.4	4	-1E+10	1	-1E+10	1	-1E+10	1	-1E+10	1	-1E+10	1	-1E+10	1
4902551	120	C	12/12/2023	02:58	-130.974	46.734	0	70.90	0	10.5180	0	32.3290	0	24.782	0	70.301	0	234.6	4	84.7	4	-1E+10	1	-1E+10	1	-1E+10	1	-1E+10	1	-1E+10	1	-1E+10	1
4902551	120	C	12/12/2023	02:58	-130.974	46.734	0	72.00	0	10.3010	0	32.3510	0	24.836	0	71.392	0	233.6	4	84.0	4	-1E+10	1	-1E+10	1	-1E+10	1	-1E+10	1	-1E+10	1	-1E+10	1
4902551	120	C	12/12/2023	02:58	-130.974	46.734	0	73.00	0	10.0290	0	32.3640	0	24.891	0	72.383	0	226.9	4	81.1	4	-1E+10	1	-1E+10	1	-1E+10	1	-1E+10	1	-1E+10	1	-1E+10	1
4902551	120	C	12/12/2023	02:58	-130.974	46.734	0	74.00	0	9.4300	0	32.4350	0	25.044	0	73.374	0	220.1	4	77.7	4	-1E+10	1	-1E+10	1	-1E+10	1	-1E+10	1	-1E+10	1	-1E+10	1
4902551	120	C	12/12/2023	02:58	-130.974	46.734	0	74.80	0	9.0760	0	32.4720	0	25.129	0	74.168	0	217.3	4	76.2	4	-1E+10	1	-1E+10	1	-1E+10	1	-1E+10	1	-1E+10	1	-1E+10	1
4902551	120	C	12/12/2023	02:58	-130.974	46.734	0	75.80	0	8.5510	0	32.5250	0	25.251	0	75.159	0	214.9	4	74.5	4	-1E+10	1	-1E+10	1	-1E+10	1	-1E+10	1	-1E+10	1	-1E+10	1
4902551	120	C	12/12/2023	02:58	-130.974	46.734	0	76.80	0	8.1810	0	32.5800	0	25.349	0	76.150	0	212.3	4	73.0	4	-1E+10	1	-1E+10	1	-1E+10	1	-1E+10	1	-1E+10	1	-1E+10	1
4902551	120	C	12/12/2023	02:58	-130.974	46.734	0	78.00	0	8.1660	0	32.6330	0	25.393	0	77.340	0	208.7	4	71.8	4	-1E+10	1	-1E+10	1	-1E+10	1	-1E+10	1	-1E+10	1	-1E+10	1
4902551	120	C	12/12/2023	02:58	-130.974	46.734	0	78.90	0	8.1420	0	32.6890	0	25.440	0	78.232	0	207.1	4	71.2	4	-1E+10	1	-1E+10	1	-1E+10	1	-1E+10	1	-1E+10	1	-1E+10	1
4902551	120	C	12/12/2023	02:58	-130.974	46.734	0	79.80	0	8.1470	0	32.6970	0	25.446	0	79.124	0	206.0	4	70.8	4	-1E+10	1	-1E+10	1	-1E+10	1	-1E+10	1	-1E+10	1	-1E+10	1
4902551	120	C	12/12/2023	02:58	-130.974	46.734	0	80.90	0	8.1490	0	32.7010	0	25.448	0	80.215	0	204.1	4	70.2	4	-1E+10	1	-1E+10	1	-1E+10	1	-1E+10	1	-1E+10	1	-1E+10	1
4902551	120	C	12/12/2023	02:58	-130.974	46.734	0	82.00	0	8.1490	0	32.7000	0	25.448	0	81.305	0	206.7	4	71.1	4	-1E+10	1	-1E+10	1	-1E+10	1	-1E+10	1	-1E+10	1	-1E+10	1
4902551	120	C	12/12/2023	02:58	-130.974	46.734	0	83.00	0	8.1510	0	32.7060	0	25.452	0	82.297	0	203.3	4	69.9	4	-1E+10	1	-1E+10	1	-1E+10	1	-1E+10	1	-1E+10	1	-1E+10	1
4902551	120	C	12/12/2023	02:58	-130.974	46.734	0	84.10	0	8.1730	0	32.7720	0	25.501	0	83.387	0	199.8	4	68.8	4	-1E+10	1	-1E+10	1	-1E+10	1	-1E+10	1	-1E+10	1	-1E+10	1
4902551	120	C	12/12/2023	02:58	-130.974	46.734	0	85.00	0	8.1520	0	32.8370	0	25.555	0	84.279	0	198.0	4	68.2	4	-1E+10	1	-1E+10	1	-1E+10	1	-1E+10	1	-1E+10	1	-1E+10	1
4902551	120	C	12/12/2023	02:58	-130.974	46.734	0	86.00	0	8.1440	0	32.8430	0	25.561	0	85.270	0	196.2	4	67.5	4	-1E+10	1	-1E+10	1	-1E+10	1	-1E+10	1	-1E+10	1	-1E+10	1
4902551	120	C	12/12/2023	02:58	-130.974	46.734	0	87.10	0	8.1290	0	32.8560	0	25.573	0	86.361	0	194.2	4	66.8	4	-1E+10	1	-1E+10	1	-1E+10	1	-1E+10	1	-1E+10	1	-1E+10	1
4902551	120	C	12/12/2023	02:58	-130.974	46.734	0	88.00	0	8.0720	0	32.8730	0	25.595	0	87.253	0	191.7	4	65.9	4	-1E+10	1	-1E+10	1	-1E+10	1	-1E+10	1	-1E+10	1	-1E+10	1
4902551	120	C	12/12/2023	02:58	-130.974	46.734	0	88.90	0	8.0430	0	32.8880	0	25.611	0	88.145	0	188.8	4	64.9	4	-1E+10	1	-1E+10	1	-1E+10	1	-1E+10	1	-1E+10	1	-1E+10	1
4902551	120	C	12/12/2023	02:58	-130.974	46.734	0	90.00	0	7.9620	0	32.9190	0	25.647	0	89.236	0	184.6	4	63.3	4	-1E+10	1	-1E+10	1	-1E+10	1	-1E+10	1	-1E+10	1	-1E+10	1
4902551	120	C	12/12/2023	02:58	-130.974	46.734	0	91.10	0	7.9430	0	33.0020	0	25.715	0	90.326	0	181.2	4	62.2	4	-1E+10	1	-1E+10	1	-1E+10	1	-1E+10	1	-1E+10	1	-1E+10	1
4902551	120	C	12/12/2023	02:58	-130.974	46.734	0	92.00	0	7.9690	0	33.0520	0	25.750	0	91.218	0	178.3	4	61.2	4	-1E+10	1	-1E+10	1	-1E+10	1	-1E+10	1	-1E+10	1	-1E+10	1
4902551	120	C	12/12/2023	02:58	-130.974	46.734	0	93.00	0	7.9800	0	33.0670	0	25.760	0	92.210	0	175.3	4	60.2	4	-1E+10	1	-1E+10	1	-1E+10	1	-1E+10	1	-1E+10	1	-1E+10	1
4902551	120	C	12/12/2023	02:58	-130.974	46.734	0	93.90	0	7.9940	0	33.1130	0	25.795	0	93.102	0	173.1	4	59.5	4	-1E+10	1	-1E+10	1	-1E+10	1	-1E+10	1	-1E+10	1	-1E+10	1
4902551	120	C	12/12/2023	02:58	-130.974	46.734	0	95.00	0	7.9570	0	33.1640	0	25.840	0	94.192	0	171.2	4	58.8	4	-1E+10	1	-1E+10	1	-1E+10	1	-1E+10	1	-1E+10	1	-1E+10	1
4902551	120	C	12/12/2023	02:58	-130.974	46.734	0	96.20	0	7.9460	0	33.2090	0	25.877	0	95.382	0	169.6	4	58.3	4	-1E+10	1	-1E+10	1	-1E+10	1	-1E+10	1	-1E+10	1	-1E+10	1
4902551	120	C	12/12/2023	02:58	-130.974	46.734	0	96.80	0	7.9460	0	33.2220	0	25.887	0	95.976	0	169.0	4	58.1	4	-1E+10	1	-1E+10	1	-1E+10	1	-1E+10	1	-1E+10	1	-1E+10	1
4902551	120	C	12/12/2023	02:58	-130.974	46.734	0	98.10	0	7.9440	0	33.2520	0	25.911	0	97.265	0	167.9	4	57.7	4	-1E+10	1	-1E+10	1	-1E+10	1	-1E+10	1	-1E+10	1	-1E+10	1
4902551	120	C	12/12/2023	02:58	-130.974	46.734	0	99.20	0	7.9450	0	33.2620	0	25.919	0	98.355	0	166.9	4	57.4	4	-1E+10	1	-1E+10	1	-1E+10	1	-1E+10	1	-1E+10	1	-1E+10	1
4902551	120	C	12/12/2023	02:58	-130.974	46.734	0	100.00	0	7.9440	0	33.2670	0	25.923	0	99.148	0	166.1	4	57.1	4	-1E+10	1	-1E+10	1	-1E+10	1	-1E+10	1	-1E+10	1	-1E+10	1
4902551	120	C	12/12/2023	02:58	-130.974	46.734	0	101.20	0	7.9400	0	33.2960	0	25.946	0	100.338	0	165.1	4	56.8	4	-1E+10	1	-1E+10	1	-1E+10	1	-1E+10	1	-1E+10	1	-1E+10	1
4902551	120	C	12/12/2023	02:58	-130.974	46.734	0	102.00	0	7.9360	0	33.3000	0	25.950	0	101.131	0	164.3	4	56.5	4	-1E+10	1	-1E+10	1	-1E+10	1	-1E+10	1	-1E+10	1	-1E+10	1
4902551	120	C	12/12/2023	02:58	-130.974	46.734	0	103.20	0	7.9300	0	33.3260	0	25.971	0	102.320	0	162.9	4	56.0	4	-1E+10	1	-1E+10	1	-1E+10	1	-1E+10	1	-1E+10	1	-1E+10	1
4902551	120	C	12/12/2023	02:58	-130.974	46.734	0	103.80	0	7.9060	0	33.3440	0	25.989	0	102.915	0	162.4	4	55.8	4	-1E+10	1	-1E+10	1	-1E+10	1	-1E+10	1	-1E+10	1	-1E+10	1
4902551	120	C	12/12/2023	02:58	-130.974	46.734	0	104.80	0	7.8650	0	33.3550	0	26.003	0	103.906	0	161.5	4	55.5	4	-1E+10	1	-1E+10	1	-1E+10	1	-1E+10	1	-1E+10	1	-1E+10	1
4902551	120	C	12/12/2023	02:58	-130.974	46.734	0	105.80	0	7.8450	0	33.3980	0	26.040	0	104.898	0	161.0	4	55.3	4	-1E+10	1	-1E+10	1	-1E+10	1	-1E+10	1	-1E+10	1	-1E+10	1
4902551	120	C	12/12/2023	02:58	-130.974	46.734	0	107.00	0	7.8350	0	33.4210	0	26.060	0	106.087	0	160.7	4	55.2	4	-1E+10	1	-1E+10	1	-1E+10	1	-1E+10	1	-1E+10	1	-1E+10	1
4902551	120	C	12/12/2023	02:58	-130.974	46.734	0	107.90	0	7.8100	0	33.4390	0	26.077	0	106.979	0	160.7	4	55.1	4	-1E+10	1	-1E+10	1	-1E+10	1	-1E+10	1	-1E+10	1	-1E+10	1
4902551	120	C	12/12/2023	02:58	-130.974	46.734	0	108.80	0	7.7880	0	33.4460	0	26.086	0	107.871	0	160.7	4	55.1	4	-1E+10	1	-1E+10	1	-1E+10	1	-1E+10	1	-1E+10	1	-1E+10	1
4902551	120	C	12/12/2023	02:58	-130.974	46.734	0	110.00	0	7.7780	0	33.4490	0	26.090	0	109.061	0	160.7	4	55.1	4	-1E+10	1	-1E+10	1	-1E+10	1	-1E+10	1	-1E+10	1	-1E+10	1
4902551	120	C	12/12/2023	02:58	-130.974	46.734	0	111.00	0	7.7650	0	33.4520	0	26.094	0	110.052	0	160.8	4	55.1	4	-1E+10	1	-1E+10	1	-1E+10	1	-1E+10	1	-1E+10	1	-1E+10	1
4902551	120	C	12/12/2023	02:58	-130.974	46.734	0	112.00	0	7.7550	0	33.4580	0	26.100	0	111.043	0	161.0	4	55.2	4	-1E+10	1	-1E+10	1	-1E+10	1	-1E+10	1	-1E+10	1	-1E+10	1
4902551	120	C	12/12/2023	02:58	-130.974	46.734	0	113.00	0	7.7520	0	33.4600	0	26.102	0	112.034	0	161.1	4	55.2	4	-1E+10	1	-1E+10	1	-1E+10	1	-1E+10	1	-1E+10	1	-1E+10	1
4902551	120	C	12/12/2023	02:58	-130.974	46.734	0	114.00	0	7.7550	0	33.4590	0	26.101	0	113.025	0	161.3	4	55.3	4	-1E+10	1	-1E+10	1	-1E+10	1	-1E+10	1	-1E+10	1	-1E+10	1
4902551	120	C	12/12/2023	02:58	-130.974	46.734	0	115.10	0	7.7490	0	33.4650	0	26.107	0	114.116	0	161.7	4	55.4	4	-1E+10	1	-1E+10	1	-1E+10	1	-1E+10	1	-1E+10	1	-1E+10	1
4902551	120	C	12/12/2023	02:58	-130.974	46.734	0	115.80	0	7.7360	0	33.4680	0	26.111	0	114.809	0	161.9	4	55.5	4	-1E+10	1	-1E+10	1	-1E+10	1	-1E+10	1	-1E+10	1	-1E+10	1
4902551	120	C	12/12/2023	02:58	-130.974	46.734	0	116.90	0	7.6540	0	33.4710	0	26.125	0	115.900	0	162.3	4	55.5	4	-1E+10	1	-1E+10	1	-1E+10	1	-1E+10	1	-1E+10	1	-1E+10	1
4902551	120	C	12/12/2023	02:58	-130.974	46.734	0	118.00	0	7.6300	0	33.4730	0	26.130	0	116.990	0	162.6	4	55.6	4	-1E+10	1	-1E+10	1	-1E+10	1	-1E+10	1	-1E+10	1	-1E+10	1
4902551	120	C	12/12/2023	02:58	-130.974	46.734	0	119.00	0	7.6510	0	33.4810	0	26.133	0	117.981	0	163.0	4	55.7	4	-1E+10	1	-1E+10	1	-1E+10	1	-1E+10	1	-1E+10	1	-1E+10	1
4902551	120	C	12/12/2023	02:58	-130.974	46.734	0	120.10	0	7.6370	0	33.4820	0	26.136	0	119.071	0	163.5	4	55.9	4	-1E+10	1	-1E+10	1	-1E+10	1	-1E+10	1	-1E+10	1	-1E+10	1
4902551	120	C	12/12/2023	02:58	-130.974	46.734	0	121.00	0	7.5890	0	33.4830	0	26.144	0	119.963	0	164.1	4	56.0	4	-1E+10	1	-1E+10	1	-1E+10	1	-1E+10	1	-1E+10	1	-1E+10	1
4902551	120	C	12/12/2023	02:58	-130.974	46.734	0	122.10	0	7.4480	0	33.4910	0	26.170	0	121.054	0	164.7	4	56.1	4	-1E+10	1	-1E+10	1	-1E+10	1	-1E+10	1	-1E+10	1	-1E+10	1
4902551	120	C	12/12/2023	02:58	-130.974	46.734	0	123.00	0	7.3610	0	33.4980	0	26.188	0	121.946	0	165.1	4	56.1	4	-1E+10	1	-1E+10	1	-1E+10	1	-1E+10	1	-1E+10	1	-1E+10	1
4902551	120	C	12/12/2023	02:58	-130.974	46.734	0	124.10	0	7.3200	0	33.5130	0	26.205	0	123.036	0	165.3	4	56.1	4	-1E+10	1	-1E+10	1	-1E+10	1	-1E+10	1	-1E+10	1	-1E+10	1
4902551	120	C	12/12/2023	02:58	-130.974	46.734	0	125.00	0	7.3040	0	33.5150	0	26.209	0	123.928	0	165.6	4	56.2	4	-1E+10	1	-1E+10	1	-1E+10	1	-1E+10	1	-1E+10	1	-1E+10	1
4902551	120	C	12/12/2023	02:58	-130.974	46.734	0	126.10	0	7.2450	0	33.5270	0	26.227	0	125.018	0	165.9	4	56.3	4	-1E+10	1	-1E+10	1	-1E+10	1	-1E+10	1	-1E+10	1	-1E+10	1
4902551	120	C	12/12/2023	02:58	-130.974	46.734	0	127.00	0	7.2130	0	33.5350	0	26.237	0	125.910	0	166.1	4	56.3	4	-1E+10	1	-1E+10	1	-1E+10	1	-1E+10	1	-1E+10	1	-1E+10	1
4902551	120	C	12/12/2023	02:58	-130.974	46.734	0	128.00	0	7.1750	0	33.5350	0	26.243	0	126.901	0	166.2	4	56.2	4	-1E+10	1	-1E+10	1	-1E+10	1	-1E+10	1	-1E+10	1	-1E+10	1
4902551	120	C	12/12/2023	02:58	-130.974	46.734	0	129.00	0	7.1890	0	33.5310	0	26.238	0	127.892	0	166.3	4	56.3	4	-1E+10	1	-1E+10	1	-1E+10	1	-1E+10	1	-1E+10	1	-1E+10	1
4902551	120	C	12/12/2023	02:58	-130.974	46.734	0	130.00	0	7.1400	0	33.5330	0	26.246	0	128.884	0	166.3	4	56.3	4	-1E+10	1	-1E+10	1	-1E+10	1	-1E+10	1	-1E+10	1	-1E+10	1
4902551	120	C	12/12/2023	02:58	-130.974	46.734	0	131.00	0	7.0750	0	33.5480	0	26.267	0	129.875	0	166.3	4	56.2	4	-1E+10	1	-1E+10	1	-1E+10	1	-1E+10	1	-1E+10	1	-1E+10	1
4902551	120	C	12/12/2023	02:58	-130.974	46.734	0	132.10	0	7.0380	0	33.5640	0	26.284	0	130.965	0	166.1	4	56.1	4	-1E+10	1	-1E+10	1	-1E+10	1	-1E+10	1	-1E+10	1	-1E+10	1
4902551	120	C	12/12/2023	02:58	-130.974	46.734	0	132.80	0	7.0380	0	33.5650	0	26.285	0	131.659	0	165.9	4	56.0	4	-1E+10	1	-1E+10	1	-1E+10	1	-1E+10	1	-1E+10	1	-1E+10	1
4902551	120	C	12/12/2023	02:58	-130.974	46.734	0	133.90	0	7.0310	0	33.5690	0	26.289	0	132.749	0	165.8	4	55.9	4	-1E+10	1	-1E+10	1	-1E+10	1	-1E+10	1	-1E+10	1	-1E+10	1
4902551	120	C	12/12/2023	02:58	-130.974	46.734	0	135.00	0	7.0270	0	33.5730	0	26.293	0	133.839	0	165.6	4	55.9	4	-1E+10	1	-1E+10	1	-1E+10	1	-1E+10	1	-1E+10	1	-1E+10	1
4902551	120	C	12/12/2023	02:58	-130.974	46.734	0	135.70	0	7.0270	0	33.5730	0	26.293	0	134.533	0	165.5	4	55.9	4	-1E+10	1	-1E+10	1	-1E+10	1	-1E+10	1	-1E+10	1	-1E+10	1
4902551	120	C	12/12/2023	02:58	-130.974	46.734	0	136.80	0	7.0190	0	33.5770	0	26.297	0	135.623	0	165.2	4	55.8	4	-1E+10	1	-1E+10	1	-1E+10	1	-1E+10	1	-1E+10	1	-1E+10	1
4902551	120	C	12/12/2023	02:58	-130.974	46.734	0	138.00	0	7.0110	0	33.5820	0	26.302	0	136.812	0	165.0	4	55.6	4	-1E+10	1	-1E+10	1	-1E+10	1	-1E+10	1	-1E+10	1	-1E+10	1
4902551	120	C	12/12/2023	02:58	-130.974	46.734	0	139.00	0	7.0050	0	33.5840	0	26.305	0	137.803	0	164.6	4	55.5	4	-1E+10	1	-1E+10	1	-1E+10	1	-1E+10	1	-1E+10	1	-1E+10	1
4902551	120	C	12/12/2023	02:58	-130.974	46.734	0	140.10	0	7.0030	0	33.5850	0	26.306	0	138.893	0	164.3	4	55.4	4	-1E+10	1	-1E+10	1	-1E+10	1	-1E+10	1	-1E+10	1	-1E+10	1
4902551	120	C	12/12/2023	02:58	-130.974	46.734	0	140.90	0	6.9970	0	33.5870	0	26.308	0	139.686	0	163.9	4	55.3	4	-1E+10	1	-1E+10	1	-1E+10	1	-1E+10	1	-1E+10	1	-1E+10	1
4902551	120	C	12/12/2023	02:58	-130.974	46.734	0	142.00	0	6.9930	0	33.5880	0	26.309	0	140.776	0	163.4	4	55.1	4	-1E+10	1	-1E+10	1	-1E+10	1	-1E+10	1	-1E+10	1	-1E+10	1
4902551	120	C	12/12/2023	02:58	-130.974	46.734	0	143.20	0	6.9800	0	33.5970	0	26.318	0	141.966	0	162.7	4	54.8	4	-1E+10	1	-1E+10	1	-1E+10	1	-1E+10	1	-1E+10	1	-1E+10	1
4902551	120	C	12/12/2023	02:58	-130.974	46.734	0	144.00	0	6.9480	0	33.6180	0	26.339	0	142.758	0	162.3	4	54.7	4	-1E+10	1	-1E+10	1	-1E+10	1	-1E+10	1	-1E+10	1	-1E+10	1
4902551	120	C	12/12/2023	02:58	-130.974	46.734	0	144.80	0	6.9300	0	33.6330	0	26.353	0	143.551	0	162.1	4	54.6	4	-1E+10	1	-1E+10	1	-1E+10	1	-1E+10	1	-1E+10	1	-1E+10	1
4902551	120	C	12/12/2023	02:58	-130.974	46.734	0	146.00	0	6.9250	0	33.6330	0	26.354	0	144.740	0	161.7	4	54.5	4	-1E+10	1	-1E+10	1	-1E+10	1	-1E+10	1	-1E+10	1	-1E+10	1
4902551	120	C	12/12/2023	02:58	-130.974	46.734	0	147.20	0	6.9220	0	33.6360	0	26.357	0	145.930	0	161.2	4	54.3	4	-1E+10	1	-1E+10	1	-1E+10	1	-1E+10	1	-1E+10	1	-1E+10	1
4902551	120	C	12/12/2023	02:58	-130.974	46.734	0	148.10	0	6.9180	0	33.6370	0	26.358	0	146.822	0	160.8	4	54.1	4	-1E+10	1	-1E+10	1	-1E+10	1	-1E+10	1	-1E+10	1	-1E+10	1
4902551	120	C	12/12/2023	02:58	-130.974	46.734	0	148.90	0	6.9150	0	33.6380	0	26.359	0	147.614	0	160.3	4	54.0	4	-1E+10	1	-1E+10	1	-1E+10	1	-1E+10	1	-1E+10	1	-1E+10	1
4902551	120	C	12/12/2023	02:58	-130.974	46.734	0	149.70	0	6.9090	0	33.6420	0	26.363	0	148.407	0	159.8	4	53.8	4	-1E+10	1	-1E+10	1	-1E+10	1	-1E+10	1	-1E+10	1	-1E+10	1
4902551	120	C	12/12/2023	02:58	-130.974	46.734	0	151.00	0	6.9000	0	33.6500	0	26.371	0	149.696	0	159.1	4	53.6	4	-1E+10	1	-1E+10	1	-1E+10	1	-1E+10	1	-1E+10	1	-1E+10	1
4902551	120	C	12/12/2023	02:58	-130.974	46.734	0	152.30	0	6.8790	0	33.6700	0	26.390	0	150.984	0	158.5	4	53.3	4	-1E+10	1	-1E+10	1	-1E+10	1	-1E+10	1	-1E+10	1	-1E+10	1
4902551	120	C	12/12/2023	02:58	-130.974	46.734	0	153.10	0	6.8780	0	33.6710	0	26.391	0	151.777	0	158.2	4	53.2	4	-1E+10	1	-1E+10	1	-1E+10	1	-1E+10	1	-1E+10	1	-1E+10	1
4902551	120	C	12/12/2023	02:58	-130.974	46.734	0	154.00	0	6.8760	0	33.6740	0	26.393	0	152.669	0	157.9	4	53.1	4	-1E+10	1	-1E+10	1	-1E+10	1	-1E+10	1	-1E+10	1	-1E+10	1
4902551	120	C	12/12/2023	02:58	-130.974	46.734	0	154.80	0	6.8760	0	33.6750	0	26.394	0	153.461	0	157.5	4	53.0	4	-1E+10	1	-1E+10	1	-1E+10	1	-1E+10	1	-1E+10	1	-1E+10	1
4902551	120	C	12/12/2023	02:58	-130.974	46.734	0	155.70	0	6.8750	0	33.6760	0	26.395	0	154.353	0	157.2	4	52.9	4	-1E+10	1	-1E+10	1	-1E+10	1	-1E+10	1	-1E+10	1	-1E+10	1
4902551	120	C	12/12/2023	02:58	-130.974	46.734	0	156.90	0	6.8590	0	33.6940	0	26.411	0	155.542	0	157.0	4	52.8	4	-1E+10	1	-1E+10	1	-1E+10	1	-1E+10	1	-1E+10	1	-1E+10	1
4902551	120	C	12/12/2023	02:58	-130.974	46.734	0	158.20	0	6.8440	0	33.7000	0	26.418	0	156.831	0	157.1	4	52.8	4	-1E+10	1	-1E+10	1	-1E+10	1	-1E+10	1	-1E+10	1	-1E+10	1
4902551	120	C	12/12/2023	02:58	-130.974	46.734	0	159.10	0	6.8380	0	33.6990	0	26.418	0	157.722	0	157.0	4	52.8	4	-1E+10	1	-1E+10	1	-1E+10	1	-1E+10	1	-1E+10	1	-1E+10	1
4902551	120	C	12/12/2023	02:58	-130.974	46.734	0	160.00	0	6.8240	0	33.7010	0	26.421	0	158.614	0	156.9	4	52.8	4	-1E+10	1	-1E+10	1	-1E+10	1	-1E+10	1	-1E+10	1	-1E+10	1
4902551	120	C	12/12/2023	02:58	-130.974	46.734	0	160.90	0	6.8170	0	33.7010	0	26.422	0	159.506	0	156.8	4	52.7	4	-1E+10	1	-1E+10	1	-1E+10	1	-1E+10	1	-1E+10	1	-1E+10	1
4902551	120	C	12/12/2023	02:58	-130.974	46.734	0	161.80	0	6.7960	0	33.7050	0	26.428	0	160.398	0	156.6	4	52.6	4	-1E+10	1	-1E+10	1	-1E+10	1	-1E+10	1	-1E+10	1	-1E+10	1
4902551	120	C	12/12/2023	02:58	-130.974	46.734	0	162.60	0	6.7930	0	33.7060	0	26.430	0	161.191	0	156.4	4	52.5	4	-1E+10	1	-1E+10	1	-1E+10	1	-1E+10	1	-1E+10	1	-1E+10	1
4902551	120	C	12/12/2023	02:58	-130.974	46.734	0	163.90	0	6.7890	0	33.7070	0	26.431	0	162.479	0	156.1	4	52.4	4	-1E+10	1	-1E+10	1	-1E+10	1	-1E+10	1	-1E+10	1	-1E+10	1
4902551	120	C	12/12/2023	02:58	-130.974	46.734	0	165.20	0	6.7830	0	33.7080	0	26.433	0	163.767	0	155.8	4	52.3	4	-1E+10	1	-1E+10	1	-1E+10	1	-1E+10	1	-1E+10	1	-1E+10	1
4902551	120	C	12/12/2023	02:58	-130.974	46.734	0	166.10	0	6.7780	0	33.7090	0	26.434	0	164.659	0	155.4	4	52.2	4	-1E+10	1	-1E+10	1	-1E+10	1	-1E+10	1	-1E+10	1	-1E+10	1
4902551	120	C	12/12/2023	02:58	-130.974	46.734	0	167.00	0	6.7690	0	33.7130	0	26.438	0	165.551	0	155.1	4	52.1	4	-1E+10	1	-1E+10	1	-1E+10	1	-1E+10	1	-1E+10	1	-1E+10	1
4902551	120	C	12/12/2023	02:58	-130.974	46.734	0	167.80	0	6.7610	0	33.7160	0	26.442	0	166.344	0	154.7	4	51.9	4	-1E+10	1	-1E+10	1	-1E+10	1	-1E+10	1	-1E+10	1	-1E+10	1
4902551	120	C	12/12/2023	02:58	-130.974	46.734	0	168.70	0	6.7600	0	33.7190	0	26.444	0	167.235	0	154.3	4	51.8	4	-1E+10	1	-1E+10	1	-1E+10	1	-1E+10	1	-1E+10	1	-1E+10	1
4902551	120	C	12/12/2023	02:58	-130.974	46.734	0	169.90	0	6.7570	0	33.7230	0	26.448	0	168.425	0	153.9	4	51.7	4	-1E+10	1	-1E+10	1	-1E+10	1	-1E+10	1	-1E+10	1	-1E+10	1
4902551	120	C	12/12/2023	02:58	-130.974	46.734	0	171.30	0	6.7550	0	33.7280	0	26.452	0	169.812	0	153.7	4	51.6	4	-1E+10	1	-1E+10	1	-1E+10	1	-1E+10	1	-1E+10	1	-1E+10	1
4902551	120	C	12/12/2023	02:58	-130.974	46.734	0	172.20	0	6.7500	0	33.7270	0	26.452	0	170.704	0	153.7	4	51.6	4	-1E+10	1	-1E+10	1	-1E+10	1	-1E+10	1	-1E+10	1	-1E+10	1
4902551	120	C	12/12/2023	02:58	-130.974	46.734	0	173.00	0	6.7100	0	33.7320	0	26.461	0	171.496	0	153.5	4	51.5	4	-1E+10	1	-1E+10	1	-1E+10	1	-1E+10	1	-1E+10	1	-1E+10	1
4902551	120	C	12/12/2023	02:58	-130.974	46.734	0	173.90	0	6.6860	0	33.7310	0	26.464	0	172.388	0	153.1	4	51.3	4	-1E+10	1	-1E+10	1	-1E+10	1	-1E+10	1	-1E+10	1	-1E+10	1
4902551	120	C	12/12/2023	02:58	-130.974	46.734	0	174.80	0	6.6300	0	33.7310	0	26.471	0	173.280	0	152.2	4	51.0	4	-1E+10	1	-1E+10	1	-1E+10	1	-1E+10	1	-1E+10	1	-1E+10	1
4902551	120	C	12/12/2023	02:58	-130.974	46.734	0	175.70	0	6.6160	0	33.7360	0	26.477	0	174.172	0	151.3	4	50.6	4	-1E+10	1	-1E+10	1	-1E+10	1	-1E+10	1	-1E+10	1	-1E+10	1
4902551	120	C	12/12/2023	02:58	-130.974	46.734	0	176.50	0	6.6130	0	33.7370	0	26.478	0	174.964	0	150.2	4	50.3	4	-1E+10	1	-1E+10	1	-1E+10	1	-1E+10	1	-1E+10	1	-1E+10	1
4902551	120	C	12/12/2023	02:58	-130.974	46.734	0	177.80	0	6.6030	0	33.7390	0	26.481	0	176.253	0	148.3	4	49.6	4	-1E+10	1	-1E+10	1	-1E+10	1	-1E+10	1	-1E+10	1	-1E+10	1
4902551	120	C	12/12/2023	02:58	-130.974	46.734	0	179.10	0	6.5970	0	33.7430	0	26.485	0	177.541	0	146.3	4	49.0	4	-1E+10	1	-1E+10	1	-1E+10	1	-1E+10	1	-1E+10	1	-1E+10	1
4902551	120	C	12/12/2023	02:58	-130.974	46.734	0	180.00	0	6.6110	0	33.7530	0	26.491	0	178.433	0	145.0	4	48.5	4	-1E+10	1	-1E+10	1	-1E+10	1	-1E+10	1	-1E+10	1	-1E+10	1
4902551	120	C	12/12/2023	02:58	-130.974	46.734	0	180.90	0	6.5990	0	33.7620	0	26.500	0	179.324	0	143.7	4	48.1	4	-1E+10	1	-1E+10	1	-1E+10	1	-1E+10	1	-1E+10	1	-1E+10	1
4902551	120	C	12/12/2023	02:58	-130.974	46.734	0	181.80	0	6.6740	0	33.7650	0	26.492	0	180.216	0	142.9	4	47.9	4	-1E+10	1	-1E+10	1	-1E+10	1	-1E+10	1	-1E+10	1	-1E+10	1
4902551	120	C	12/12/2023	02:58	-130.974	46.734	0	182.70	0	6.7000	0	33.7750	0	26.497	0	181.108	0	142.5	4	47.8	4	-1E+10	1	-1E+10	1	-1E+10	1	-1E+10	1	-1E+10	1	-1E+10	1
4902551	120	C	12/12/2023	02:58	-130.974	46.734	0	183.60	0	6.6890	0	33.7730	0	26.497	0	182.000	0	142.3	4	47.7	4	-1E+10	1	-1E+10	1	-1E+10	1	-1E+10	1	-1E+10	1	-1E+10	1
4902551	120	C	12/12/2023	02:58	-130.974	46.734	0	184.90	0	6.6460	0	33.7790	0	26.507	0	183.288	0	141.9	4	47.5	4	-1E+10	1	-1E+10	1	-1E+10	1	-1E+10	1	-1E+10	1	-1E+10	1
4902551	120	C	12/12/2023	02:58	-130.974	46.734	0	186.20	0	6.5710	0	33.7720	0	26.511	0	184.576	0	140.7	4	47.1	4	-1E+10	1	-1E+10	1	-1E+10	1	-1E+10	1	-1E+10	1	-1E+10	1
4902551	120	C	12/12/2023	02:58	-130.974	46.734	0	187.10	0	6.5350	0	33.7650	0	26.511	0	185.468	0	139.5	4	46.6	4	-1E+10	1	-1E+10	1	-1E+10	1	-1E+10	1	-1E+10	1	-1E+10	1
4902551	120	C	12/12/2023	02:58	-130.974	46.734	0	188.00	0	6.5610	0	33.7730	0	26.513	0	186.359	0	138.2	4	46.2	4	-1E+10	1	-1E+10	1	-1E+10	1	-1E+10	1	-1E+10	1	-1E+10	1
4902551	120	C	12/12/2023	02:58	-130.974	46.734	0	188.90	0	6.5810	0	33.7770	0	26.514	0	187.251	0	137.4	4	46.0	4	-1E+10	1	-1E+10	1	-1E+10	1	-1E+10	1	-1E+10	1	-1E+10	1
4902551	120	C	12/12/2023	02:58	-130.974	46.734	0	189.80	0	6.5890	0	33.7820	0	26.517	0	188.143	0	136.7	4	45.7	4	-1E+10	1	-1E+10	1	-1E+10	1	-1E+10	1	-1E+10	1	-1E+10	1
4902551	120	C	12/12/2023	02:58	-130.974	46.734	0	190.70	0	6.5540	0	33.7870	0	26.525	0	189.034	0	135.8	4	45.4	4	-1E+10	1	-1E+10	1	-1E+10	1	-1E+10	1	-1E+10	1	-1E+10	1
4902551	120	C	12/12/2023	02:58	-130.974	46.734	0	191.60	0	6.5090	0	33.7790	0	26.525	0	189.926	0	134.5	4	44.9	4	-1E+10	1	-1E+10	1	-1E+10	1	-1E+10	1	-1E+10	1	-1E+10	1
4902551	120	C	12/12/2023	02:58	-130.974	46.734	0	192.90	0	6.4940	0	33.7790	0	26.527	0	191.214	0	131.9	4	44.0	4	-1E+10	1	-1E+10	1	-1E+10	1	-1E+10	1	-1E+10	1	-1E+10	1
4902551	120	C	12/12/2023	02:58	-130.974	46.734	0	194.30	0	6.5010	0	33.7860	0	26.532	0	192.601	0	129.2	4	43.1	4	-1E+10	1	-1E+10	1	-1E+10	1	-1E+10	1	-1E+10	1	-1E+10	1
4902551	120	C	12/12/2023	02:58	-130.974	46.734	0	195.20	0	6.5150	0	33.7890	0	26.532	0	193.493	0	126.9	4	42.4	4	-1E+10	1	-1E+10	1	-1E+10	1	-1E+10	1	-1E+10	1	-1E+10	1
4902551	120	C	12/12/2023	02:58	-130.974	46.734	0	196.10	0	6.5530	0	33.8050	0	26.540	0	194.385	0	125.3	4	41.9	4	-1E+10	1	-1E+10	1	-1E+10	1	-1E+10	1	-1E+10	1	-1E+10	1
4902551	120	C	12/12/2023	02:58	-130.974	46.734	0	197.00	0	6.5730	0	33.8060	0	26.538	0	195.276	0	123.9	4	41.4	4	-1E+10	1	-1E+10	1	-1E+10	1	-1E+10	1	-1E+10	1	-1E+10	1
4902551	120	C	12/12/2023	02:58	-130.974	46.734	0	197.90	0	6.6090	0	33.8140	0	26.540	0	196.168	0	122.6	4	41.0	4	-1E+10	1	-1E+10	1	-1E+10	1	-1E+10	1	-1E+10	1	-1E+10	1
4902551	120	C	12/12/2023	02:58	-130.974	46.734	0	198.80	0	6.6190	0	33.8210	0	26.544	0	197.060	0	121.5	4	40.7	4	-1E+10	1	-1E+10	1	-1E+10	1	-1E+10	1	-1E+10	1	-1E+10	1
4902551	120	C	12/12/2023	02:58	-130.974	46.734	0	199.70	0	6.6120	0	33.8220	0	26.546	0	197.952	0	120.3	4	40.3	4	-1E+10	1	-1E+10	1	-1E+10	1	-1E+10	1	-1E+10	1	-1E+10	1
4902551	120	C	12/12/2023	02:58	-130.974	46.734	0	200.60	0	6.6660	0	33.8240	0	26.540	0	198.843	0	119.2	4	40.0	4	-1E+10	1	-1E+10	1	-1E+10	1	-1E+10	1	-1E+10	1	-1E+10	1
4902551	120	C	12/12/2023	02:58	-130.974	46.734	0	201.90	0	6.6710	0	33.8470	0	26.557	0	200.131	0	118.4	4	39.7	4	-1E+10	1	-1E+10	1	-1E+10	1	-1E+10	1	-1E+10	1	-1E+10	1
4902551	120	C	12/12/2023	02:58	-130.974	46.734	0	203.30	0	6.6100	0	33.8410	0	26.561	0	201.518	0	117.6	4	39.4	4	-1E+10	1	-1E+10	1	-1E+10	1	-1E+10	1	-1E+10	1	-1E+10	1
4902551	120	C	12/12/2023	02:58	-130.974	46.734	0	204.20	0	6.6630	0	33.8510	0	26.562	0	202.410	0	117.2	4	39.3	4	-1E+10	1	-1E+10	1	-1E+10	1	-1E+10	1	-1E+10	1	-1E+10	1
4902551	120	C	12/12/2023	02:58	-130.974	46.734	0	205.10	0	6.5710	0	33.8520	0	26.575	0	203.302	0	116.9	4	39.1	4	-1E+10	1	-1E+10	1	-1E+10	1	-1E+10	1	-1E+10	1	-1E+10	1
4902551	120	C	12/12/2023	02:58	-130.974	46.734	0	206.00	0	6.5480	0	33.8470	0	26.574	0	204.193	0	116.5	4	38.9	4	-1E+10	1	-1E+10	1	-1E+10	1	-1E+10	1	-1E+10	1	-1E+10	1
4902551	120	C	12/12/2023	02:58	-130.974	46.734	0	206.90	0	6.5340	0	33.8450	0	26.574	0	205.085	0	116.0	4	38.8	4	-1E+10	1	-1E+10	1	-1E+10	1	-1E+10	1	-1E+10	1	-1E+10	1
4902551	120	C	12/12/2023	02:58	-130.974	46.734	0	207.80	0	6.5060	0	33.8490	0	26.581	0	205.977	0	115.4	4	38.5	4	-1E+10	1	-1E+10	1	-1E+10	1	-1E+10	1	-1E+10	1	-1E+10	1
4902551	120	C	12/12/2023	02:58	-130.974	46.734	0	208.80	0	6.4810	0	33.8480	0	26.583	0	206.967	0	114.7	4	38.3	4	-1E+10	1	-1E+10	1	-1E+10	1	-1E+10	1	-1E+10	1	-1E+10	1
4902551	120	C	12/12/2023	02:58	-130.974	46.734	0	209.70	0	6.4790	0	33.8490	0	26.584	0	207.859	0	113.8	4	38.0	4	-1E+10	1	-1E+10	1	-1E+10	1	-1E+10	1	-1E+10	1	-1E+10	1
4902551	120	C	12/12/2023	02:58	-130.974	46.734	0	210.60	0	6.4950	0	33.8540	0	26.586	0	208.751	0	113.1	4	37.8	4	-1E+10	1	-1E+10	1	-1E+10	1	-1E+10	1	-1E+10	1	-1E+10	1
4902551	120	C	12/12/2023	02:58	-130.974	46.734	0	211.50	0	6.5060	0	33.8540	0	26.585	0	209.642	0	112.4	4	37.6	4	-1E+10	1	-1E+10	1	-1E+10	1	-1E+10	1	-1E+10	1	-1E+10	1
4902551	120	C	12/12/2023	02:58	-130.974	46.734	0	212.90	0	6.4800	0	33.8570	0	26.591	0	211.029	0	111.5	4	37.2	4	-1E+10	1	-1E+10	1	-1E+10	1	-1E+10	1	-1E+10	1	-1E+10	1
4902551	120	C	12/12/2023	02:58	-130.974	46.734	0	214.30	0	6.4560	0	33.8560	0	26.593	0	212.416	0	110.2	4	36.8	4	-1E+10	1	-1E+10	1	-1E+10	1	-1E+10	1	-1E+10	1	-1E+10	1
4902551	120	C	12/12/2023	02:58	-130.974	46.734	0	215.20	0	6.4470	0	33.8560	0	26.594	0	213.308	0	109.2	4	36.4	4	-1E+10	1	-1E+10	1	-1E+10	1	-1E+10	1	-1E+10	1	-1E+10	1
4902551	120	C	12/12/2023	02:58	-130.974	46.734	0	216.20	0	6.4250	0	33.8570	0	26.598	0	214.299	0	107.9	4	36.0	4	-1E+10	1	-1E+10	1	-1E+10	1	-1E+10	1	-1E+10	1	-1E+10	1
4902551	120	C	12/12/2023	02:58	-130.974	46.734	0	217.10	0	6.4070	0	33.8530	0	26.597	0	215.190	0	106.4	4	35.5	4	-1E+10	1	-1E+10	1	-1E+10	1	-1E+10	1	-1E+10	1	-1E+10	1
4902551	120	C	12/12/2023	02:58	-130.974	46.734	0	218.00	0	6.3990	0	33.8550	0	26.600	0	216.082	0	104.7	4	34.9	4	-1E+10	1	-1E+10	1	-1E+10	1	-1E+10	1	-1E+10	1	-1E+10	1
4902551	120	C	12/12/2023	02:58	-130.974	46.734	0	219.00	0	6.5310	0	33.8810	0	26.603	0	217.072	0	103.3	4	34.5	4	-1E+10	1	-1E+10	1	-1E+10	1	-1E+10	1	-1E+10	1	-1E+10	1
4902551	120	C	12/12/2023	02:58	-130.974	46.734	0	219.90	0	6.5810	0	33.8830	0	26.598	0	217.964	0	102.7	4	34.4	4	-1E+10	1	-1E+10	1	-1E+10	1	-1E+10	1	-1E+10	1	-1E+10	1
4902551	120	C	12/12/2023	02:58	-130.974	46.734	0	221.00	0	6.5800	0	33.8970	0	26.609	0	219.054	0	102.4	4	34.3	4	-1E+10	1	-1E+10	1	-1E+10	1	-1E+10	1	-1E+10	1	-1E+10	1
4902551	120	C	12/12/2023	02:58	-130.974	46.734	0	221.80	0	6.5630	0	33.8970	0	26.611	0	219.846	0	102.3	4	34.2	4	-1E+10	1	-1E+10	1	-1E+10	1	-1E+10	1	-1E+10	1	-1E+10	1
4902551	120	C	12/12/2023	02:58	-130.974	46.734	0	222.70	0	6.5500	0	33.8970	0	26.613	0	220.738	0	102.2	4	34.2	4	-1E+10	1	-1E+10	1	-1E+10	1	-1E+10	1	-1E+10	1	-1E+10	1
4902551	120	C	12/12/2023	02:58	-130.974	46.734	0	223.70	0	6.5480	0	33.8970	0	26.613	0	221.729	0	102.0	4	34.1	4	-1E+10	1	-1E+10	1	-1E+10	1	-1E+10	1	-1E+10	1	-1E+10	1
4902551	120	C	12/12/2023	02:58	-130.974	46.734	0	224.60	0	6.5470	0	33.8970	0	26.614	0	222.620	0	101.8	4	34.0	4	-1E+10	1	-1E+10	1	-1E+10	1	-1E+10	1	-1E+10	1	-1E+10	1
4902551	120	C	12/12/2023	02:58	-130.974	46.734	0	225.60	0	6.5410	0	33.8980	0	26.615	0	223.611	0	101.6	4	34.0	4	-1E+10	1	-1E+10	1	-1E+10	1	-1E+10	1	-1E+10	1	-1E+10	1
4902551	120	C	12/12/2023	02:58	-130.974	46.734	0	226.50	0	6.5370	0	33.8960	0	26.614	0	224.502	0	101.3	4	33.9	4	-1E+10	1	-1E+10	1	-1E+10	1	-1E+10	1	-1E+10	1	-1E+10	1
4902551	120	C	12/12/2023	02:58	-130.974	46.734	0	227.90	0	6.5170	0	33.8990	0	26.619	0	225.889	0	101.0	4	33.8	4	-1E+10	1	-1E+10	1	-1E+10	1	-1E+10	1	-1E+10	1	-1E+10	1
4902551	120	C	12/12/2023	02:58	-130.974	46.734	0	229.40	0	6.5050	0	33.8970	0	26.619	0	227.375	0	100.6	4	33.6	4	-1E+10	1	-1E+10	1	-1E+10	1	-1E+10	1	-1E+10	1	-1E+10	1
4902551	120	C	12/12/2023	02:58	-130.974	46.734	0	230.30	0	6.5050	0	33.8970	0	26.619	0	228.267	0	100.3	4	33.5	4	-1E+10	1	-1E+10	1	-1E+10	1	-1E+10	1	-1E+10	1	-1E+10	1
4902551	120	C	12/12/2023	02:58	-130.974	46.734	0	231.20	0	6.5020	0	33.8970	0	26.620	0	229.158	0	99.9	4	33.4	4	-1E+10	1	-1E+10	1	-1E+10	1	-1E+10	1	-1E+10	1	-1E+10	1
4902551	120	C	12/12/2023	02:58	-130.974	46.734	0	232.20	0	6.5000	0	33.8950	0	26.618	0	230.149	0	99.5	4	33.3	4	-1E+10	1	-1E+10	1	-1E+10	1	-1E+10	1	-1E+10	1	-1E+10	1
4902551	120	C	12/12/2023	02:58	-130.974	46.734	0	233.10	0	6.4430	0	33.8980	0	26.628	0	231.040	0	99.0	4	33.1	4	-1E+10	1	-1E+10	1	-1E+10	1	-1E+10	1	-1E+10	1	-1E+10	1
4902551	120	C	12/12/2023	02:58	-130.974	46.734	0	234.10	0	6.4190	0	33.8930	0	26.627	0	232.031	0	98.5	4	32.8	4	-1E+10	1	-1E+10	1	-1E+10	1	-1E+10	1	-1E+10	1	-1E+10	1
4902551	120	C	12/12/2023	02:58	-130.974	46.734	0	235.00	0	6.3800	0	33.8910	0	26.631	0	232.923	0	97.8	4	32.6	4	-1E+10	1	-1E+10	1	-1E+10	1	-1E+10	1	-1E+10	1	-1E+10	1
4902551	120	C	12/12/2023	02:58	-130.974	46.734	0	236.00	0	6.4000	0	33.8940	0	26.630	0	233.913	0	97.1	4	32.4	4	-1E+10	1	-1E+10	1	-1E+10	1	-1E+10	1	-1E+10	1	-1E+10	1
4902551	120	C	12/12/2023	02:58	-130.974	46.734	0	236.90	0	6.4100	0	33.9020	0	26.635	0	234.805	0	96.6	4	32.2	4	-1E+10	1	-1E+10	1	-1E+10	1	-1E+10	1	-1E+10	1	-1E+10	1
4902551	120	C	12/12/2023	02:58	-130.974	46.734	0	237.80	0	6.3800	0	33.9040	0	26.641	0	235.696	0	96.3	4	32.1	4	-1E+10	1	-1E+10	1	-1E+10	1	-1E+10	1	-1E+10	1	-1E+10	1
4902551	120	C	12/12/2023	02:58	-130.974	46.734	0	238.80	0	6.3650	0	33.9040	0	26.643	0	236.687	0	96.0	4	32.0	4	-1E+10	1	-1E+10	1	-1E+10	1	-1E+10	1	-1E+10	1	-1E+10	1
4902551	120	C	12/12/2023	02:58	-130.974	46.734	0	239.70	0	6.3400	0	33.9060	0	26.648	0	237.578	0	95.6	4	31.8	4	-1E+10	1	-1E+10	1	-1E+10	1	-1E+10	1	-1E+10	1	-1E+10	1
4902551	120	C	12/12/2023	02:58	-130.974	46.734	0	240.70	0	6.3250	0	33.9070	0	26.650	0	238.569	0	95.4	4	31.8	4	-1E+10	1	-1E+10	1	-1E+10	1	-1E+10	1	-1E+10	1	-1E+10	1
4902551	120	C	12/12/2023	02:58	-130.974	46.734	0	241.70	0	6.3230	0	33.9070	0	26.651	0	239.559	0	95.1	4	31.7	4	-1E+10	1	-1E+10	1	-1E+10	1	-1E+10	1	-1E+10	1	-1E+10	1
4902551	120	C	12/12/2023	02:58	-130.974	46.734	0	242.60	0	6.3210	0	33.9070	0	26.651	0	240.451	0	94.7	4	31.5	4	-1E+10	1	-1E+10	1	-1E+10	1	-1E+10	1	-1E+10	1	-1E+10	1
4902551	120	C	12/12/2023	02:58	-130.974	46.734	0	243.60	0	6.3210	0	33.9070	0	26.651	0	241.442	0	94.4	4	31.4	4	-1E+10	1	-1E+10	1	-1E+10	1	-1E+10	1	-1E+10	1	-1E+10	1
4902551	120	C	12/12/2023	02:58	-130.974	46.734	0	244.90	0	6.3160	0	33.9080	0	26.652	0	242.729	0	93.9	4	31.2	4	-1E+10	1	-1E+10	1	-1E+10	1	-1E+10	1	-1E+10	1	-1E+10	1
4902551	120	C	12/12/2023	02:58	-130.974	46.734	0	246.40	0	6.3040	0	33.9110	0	26.656	0	244.215	0	93.4	4	31.1	4	-1E+10	1	-1E+10	1	-1E+10	1	-1E+10	1	-1E+10	1	-1E+10	1
4902551	120	C	12/12/2023	02:58	-130.974	46.734	0	247.40	0	6.2930	0	33.9130	0	26.659	0	245.206	0	93.2	4	31.0	4	-1E+10	1	-1E+10	1	-1E+10	1	-1E+10	1	-1E+10	1	-1E+10	1
4902551	120	C	12/12/2023	02:58	-130.974	46.734	0	248.30	0	6.2500	0	33.9120	0	26.664	0	246.097	0	93.0	4	30.9	4	-1E+10	1	-1E+10	1	-1E+10	1	-1E+10	1	-1E+10	1	-1E+10	1
4902551	120	C	12/12/2023	02:58	-130.974	46.734	0	249.30	0	6.2220	0	33.9070	0	26.664	0	247.088	0	92.7	4	30.8	4	-1E+10	1	-1E+10	1	-1E+10	1	-1E+10	1	-1E+10	1	-1E+10	1
4902551	120	C	12/12/2023	02:58	-130.974	46.734	0	250.20	0	6.2000	0	33.9050	0	26.665	0	247.979	0	92.3	4	30.6	4	-1E+10	1	-1E+10	1	-1E+10	1	-1E+10	1	-1E+10	1	-1E+10	1
4902551	120	C	12/12/2023	02:58	-130.974	46.734	0	251.20	0	6.1860	0	33.9040	0	26.666	0	248.970	0	91.7	4	30.4	4	-1E+10	1	-1E+10	1	-1E+10	1	-1E+10	1	-1E+10	1	-1E+10	1
4902551	120	C	12/12/2023	02:58	-130.974	46.734	0	252.20	0	6.1810	0	33.9040	0	26.667	0	249.960	0	91.1	4	30.2	4	-1E+10	1	-1E+10	1	-1E+10	1	-1E+10	1	-1E+10	1	-1E+10	1
4902551	120	C	12/12/2023	02:58	-130.974	46.734	0	253.10	0	6.1680	0	33.9080	0	26.671	0	250.852	0	90.5	4	30.0	4	-1E+10	1	-1E+10	1	-1E+10	1	-1E+10	1	-1E+10	1	-1E+10	1
4902551	120	C	12/12/2023	02:58	-130.974	46.734	0	254.10	0	6.1450	0	33.9060	0	26.673	0	251.842	0	89.8	4	29.8	4	-1E+10	1	-1E+10	1	-1E+10	1	-1E+10	1	-1E+10	1	-1E+10	1
4902551	120	C	12/12/2023	02:58	-130.974	46.734	0	255.00	0	6.1390	0	33.9060	0	26.674	0	252.734	0	89.1	4	29.5	4	-1E+10	1	-1E+10	1	-1E+10	1	-1E+10	1	-1E+10	1	-1E+10	1
4902551	120	C	12/12/2023	02:58	-130.974	46.734	0	256.00	0	6.1250	0	33.9050	0	26.675	0	253.724	0	88.2	4	29.2	4	-1E+10	1	-1E+10	1	-1E+10	1	-1E+10	1	-1E+10	1	-1E+10	1
4902551	120	C	12/12/2023	02:58	-130.974	46.734	0	257.00	0	6.1010	0	33.9050	0	26.678	0	254.715	0	87.2	4	28.9	4	-1E+10	1	-1E+10	1	-1E+10	1	-1E+10	1	-1E+10	1	-1E+10	1
4902551	120	C	12/12/2023	02:58	-130.974	46.734	0	258.00	0	6.0670	0	33.9060	0	26.683	0	255.705	0	86.2	4	28.5	4	-1E+10	1	-1E+10	1	-1E+10	1	-1E+10	1	-1E+10	1	-1E+10	1
4902551	120	C	12/12/2023	02:58	-130.974	46.734	0	259.00	0	6.0730	0	33.9110	0	26.686	0	256.696	0	85.1	4	28.2	4	-1E+10	1	-1E+10	1	-1E+10	1	-1E+10	1	-1E+10	1	-1E+10	1
4902551	120	C	12/12/2023	02:58	-130.974	46.734	0	260.00	0	6.0630	0	33.9130	0	26.689	0	257.686	0	83.9	4	27.7	4	-1E+10	1	-1E+10	1	-1E+10	1	-1E+10	1	-1E+10	1	-1E+10	1
4902551	120	C	12/12/2023	02:58	-130.974	46.734	0	260.90	0	6.0090	0	33.9130	0	26.696	0	258.577	0	82.6	4	27.3	4	-1E+10	1	-1E+10	1	-1E+10	1	-1E+10	1	-1E+10	1	-1E+10	1
4902551	120	C	12/12/2023	02:58	-130.974	46.734	0	261.90	0	6.0110	0	33.9110	0	26.694	0	259.568	0	81.1	4	26.8	4	-1E+10	1	-1E+10	1	-1E+10	1	-1E+10	1	-1E+10	1	-1E+10	1
4902551	120	C	12/12/2023	02:58	-130.974	46.734	0	262.90	0	6.0460	0	33.9130	0	26.691	0	260.558	0	79.6	4	26.3	4	-1E+10	1	-1E+10	1	-1E+10	1	-1E+10	1	-1E+10	1	-1E+10	1
4902551	120	C	12/12/2023	02:58	-130.974	46.734	0	263.90	0	6.0820	0	33.9170	0	26.690	0	261.549	0	78.2	4	25.9	4	-1E+10	1	-1E+10	1	-1E+10	1	-1E+10	1	-1E+10	1	-1E+10	1
4902551	120	C	12/12/2023	02:58	-130.974	46.734	0	264.90	0	6.1400	0	33.9380	0	26.699	0	262.539	0	77.1	4	25.6	4	-1E+10	1	-1E+10	1	-1E+10	1	-1E+10	1	-1E+10	1	-1E+10	1
4902551	120	C	12/12/2023	02:58	-130.974	46.734	0	266.10	0	6.2650	0	33.9500	0	26.692	0	263.728	0	76.8	4	25.5	4	-1E+10	1	-1E+10	1	-1E+10	1	-1E+10	1	-1E+10	1	-1E+10	1
4902551	120	C	12/12/2023	02:58	-130.974	46.734	0	267.10	0	6.2520	0	33.9650	0	26.706	0	264.718	0	77.1	4	25.6	4	-1E+10	1	-1E+10	1	-1E+10	1	-1E+10	1	-1E+10	1	-1E+10	1
4902551	120	C	12/12/2023	02:58	-130.974	46.734	0	267.90	0	6.2050	0	33.9540	0	26.703	0	265.511	0	77.4	4	25.7	4	-1E+10	1	-1E+10	1	-1E+10	1	-1E+10	1	-1E+10	1	-1E+10	1
4902551	120	C	12/12/2023	02:58	-130.974	46.734	0	268.90	0	6.2010	0	33.9520	0	26.702	0	266.501	0	77.6	4	25.8	4	-1E+10	1	-1E+10	1	-1E+10	1	-1E+10	1	-1E+10	1	-1E+10	1
4902551	120	C	12/12/2023	02:58	-130.974	46.734	0	269.90	0	6.2030	0	33.9570	0	26.706	0	267.492	0	77.9	4	25.9	4	-1E+10	1	-1E+10	1	-1E+10	1	-1E+10	1	-1E+10	1	-1E+10	1
4902551	120	C	12/12/2023	02:58	-130.974	46.734	0	270.90	0	6.1830	0	33.9600	0	26.711	0	268.482	0	78.3	4	26.0	4	-1E+10	1	-1E+10	1	-1E+10	1	-1E+10	1	-1E+10	1	-1E+10	1
4902551	120	C	12/12/2023	02:58	-130.974	46.734	0	271.90	0	6.1350	0	33.9580	0	26.715	0	269.472	0	79.1	4	26.2	4	-1E+10	1	-1E+10	1	-1E+10	1	-1E+10	1	-1E+10	1	-1E+10	1
4902551	120	C	12/12/2023	02:58	-130.974	46.734	0	272.90	0	6.1000	0	33.9510	0	26.714	0	270.463	0	79.5	4	26.3	4	-1E+10	1	-1E+10	1	-1E+10	1	-1E+10	1	-1E+10	1	-1E+10	1
4902551	120	C	12/12/2023	02:58	-130.974	46.734	0	273.90	0	6.0860	0	33.9470	0	26.713	0	271.453	0	79.8	4	26.4	4	-1E+10	1	-1E+10	1	-1E+10	1	-1E+10	1	-1E+10	1	-1E+10	1
4902551	120	C	12/12/2023	02:58	-130.974	46.734	0	274.90	0	6.0840	0	33.9440	0	26.711	0	272.444	0	80.2	4	26.6	4	-1E+10	1	-1E+10	1	-1E+10	1	-1E+10	1	-1E+10	1	-1E+10	1
4902551	120	C	12/12/2023	02:58	-130.974	46.734	0	275.80	0	6.0860	0	33.9340	0	26.703	0	273.335	0	80.6	4	26.7	4	-1E+10	1	-1E+10	1	-1E+10	1	-1E+10	1	-1E+10	1	-1E+10	1
4902551	120	C	12/12/2023	02:58	-130.974	46.734	0	276.90	0	6.0140	0	33.9390	0	26.716	0	274.424	0	80.6	4	26.7	4	-1E+10	1	-1E+10	1	-1E+10	1	-1E+10	1	-1E+10	1	-1E+10	1
4902551	120	C	12/12/2023	02:58	-130.974	46.734	0	278.00	0	5.9750	0	33.9290	0	26.713	0	275.514	0	80.4	4	26.5	4	-1E+10	1	-1E+10	1	-1E+10	1	-1E+10	1	-1E+10	1	-1E+10	1
4902551	120	C	12/12/2023	02:58	-130.974	46.734	0	279.20	0	5.9220	0	33.9260	0	26.717	0	276.702	0	79.9	4	26.3	4	-1E+10	1	-1E+10	1	-1E+10	1	-1E+10	1	-1E+10	1	-1E+10	1
4902551	120	C	12/12/2023	02:58	-130.974	46.734	0	280.00	0	5.9250	0	33.9230	0	26.714	0	277.495	0	79.3	4	26.2	4	-1E+10	1	-1E+10	1	-1E+10	1	-1E+10	1	-1E+10	1	-1E+10	1
4902551	120	C	12/12/2023	02:58	-130.974	46.734	0	280.90	0	5.8540	0	33.9200	0	26.721	0	278.386	0	78.4	4	25.8	4	-1E+10	1	-1E+10	1	-1E+10	1	-1E+10	1	-1E+10	1	-1E+10	1
4902551	120	C	12/12/2023	02:58	-130.974	46.734	0	281.80	0	5.8560	0	33.9210	0	26.721	0	279.277	0	77.8	4	25.6	4	-1E+10	1	-1E+10	1	-1E+10	1	-1E+10	1	-1E+10	1	-1E+10	1
4902551	120	C	12/12/2023	02:58	-130.974	46.734	0	283.00	0	5.9740	0	33.9400	0	26.721	0	280.466	0	77.4	4	25.6	4	-1E+10	1	-1E+10	1	-1E+10	1	-1E+10	1	-1E+10	1	-1E+10	1
4902551	120	C	12/12/2023	02:58	-130.974	46.734	0	283.80	0	5.9650	0	33.9490	0	26.730	0	281.258	0	77.4	4	25.6	4	-1E+10	1	-1E+10	1	-1E+10	1	-1E+10	1	-1E+10	1	-1E+10	1
4902551	120	C	12/12/2023	02:58	-130.974	46.734	0	284.60	0	5.9520	0	33.9470	0	26.730	0	282.050	0	77.4	4	25.5	4	-1E+10	1	-1E+10	1	-1E+10	1	-1E+10	1	-1E+10	1	-1E+10	1
4902551	120	C	12/12/2023	02:58	-130.974	46.734	0	286.00	0	5.9690	0	33.9470	0	26.728	0	283.437	0	77.4	4	25.5	4	-1E+10	1	-1E+10	1	-1E+10	1	-1E+10	1	-1E+10	1	-1E+10	1
4902551	120	C	12/12/2023	02:58	-130.974	46.734	0	287.00	0	5.9770	0	33.9480	0	26.727	0	284.427	0	77.5	4	25.6	4	-1E+10	1	-1E+10	1	-1E+10	1	-1E+10	1	-1E+10	1	-1E+10	1
4902551	120	C	12/12/2023	02:58	-130.974	46.734	0	287.90	0	5.9780	0	33.9490	0	26.728	0	285.318	0	77.6	4	25.6	4	-1E+10	1	-1E+10	1	-1E+10	1	-1E+10	1	-1E+10	1	-1E+10	1
4902551	120	C	12/12/2023	02:58	-130.974	46.734	0	288.70	0	5.9690	0	33.9490	0	26.729	0	286.111	0	77.9	4	25.7	4	-1E+10	1	-1E+10	1	-1E+10	1	-1E+10	1	-1E+10	1	-1E+10	1
4902551	120	C	12/12/2023	02:58	-130.974	46.734	0	289.90	0	5.9690	0	33.9490	0	26.729	0	287.299	0	78.2	4	25.8	4	-1E+10	1	-1E+10	1	-1E+10	1	-1E+10	1	-1E+10	1	-1E+10	1
4902551	120	C	12/12/2023	02:58	-130.974	46.734	0	291.10	0	5.9620	0	33.9490	0	26.730	0	288.488	0	78.7	4	26.0	4	-1E+10	1	-1E+10	1	-1E+10	1	-1E+10	1	-1E+10	1	-1E+10	1
4902551	120	C	12/12/2023	02:58	-130.974	46.734	0	292.00	0	5.9400	0	33.9500	0	26.734	0	289.379	0	79.0	4	26.1	4	-1E+10	1	-1E+10	1	-1E+10	1	-1E+10	1	-1E+10	1	-1E+10	1
4902551	120	C	12/12/2023	02:58	-130.974	46.734	0	292.70	0	5.9350	0	33.9460	0	26.731	0	290.072	0	79.3	4	26.2	4	-1E+10	1	-1E+10	1	-1E+10	1	-1E+10	1	-1E+10	1	-1E+10	1
4902551	120	C	12/12/2023	02:58	-130.974	46.734	0	293.90	0	5.9250	0	33.9450	0	26.732	0	291.260	0	80.0	4	26.4	4	-1E+10	1	-1E+10	1	-1E+10	1	-1E+10	1	-1E+10	1	-1E+10	1
4902551	120	C	12/12/2023	02:58	-130.974	46.734	0	295.10	0	5.9110	0	33.9410	0	26.730	0	292.449	0	80.6	4	26.6	4	-1E+10	1	-1E+10	1	-1E+10	1	-1E+10	1	-1E+10	1	-1E+10	1
4902551	120	C	12/12/2023	02:58	-130.974	46.734	0	296.00	0	5.8550	0	33.9350	0	26.732	0	293.340	0	81.2	4	26.7	4	-1E+10	1	-1E+10	1	-1E+10	1	-1E+10	1	-1E+10	1	-1E+10	1
4902551	120	C	12/12/2023	02:58	-130.974	46.734	0	296.90	0	5.7570	0	33.9290	0	26.740	0	294.231	0	81.5	4	26.8	4	-1E+10	1	-1E+10	1	-1E+10	1	-1E+10	1	-1E+10	1	-1E+10	1
4902551	120	C	12/12/2023	02:58	-130.974	46.734	0	297.70	0	5.7120	0	33.9310	0	26.747	0	295.024	0	81.5	4	26.8	4	-1E+10	1	-1E+10	1	-1E+10	1	-1E+10	1	-1E+10	1	-1E+10	1
4902551	120	C	12/12/2023	02:58	-130.974	46.734	0	298.90	0	5.6960	0	33.9180	0	26.738	0	296.212	0	81.3	4	26.7	4	-1E+10	1	-1E+10	1	-1E+10	1	-1E+10	1	-1E+10	1	-1E+10	1
4902551	120	C	12/12/2023	02:58	-130.974	46.734	0	300.00	0	5.6770	0	33.9240	0	26.746	0	297.301	0	81.1	4	26.6	4	-1E+10	1	-1E+10	1	-1E+10	1	-1E+10	1	-1E+10	1	-1E+10	1
4902551	120	C	12/12/2023	02:58	-130.974	46.734	0	301.00	0	5.6740	0	33.9170	0	26.740	0	298.292	0	80.8	4	26.5	4	-1E+10	1	-1E+10	1	-1E+10	1	-1E+10	1	-1E+10	1	-1E+10	1
4902551	120	C	12/12/2023	02:58	-130.974	46.734	0	301.90	0	5.6810	0	33.9210	0	26.743	0	299.183	0	80.6	4	26.4	4	-1E+10	1	-1E+10	1	-1E+10	1	-1E+10	1	-1E+10	1	-1E+10	1
4902551	120	C	12/12/2023	02:58	-130.974	46.734	0	302.70	0	5.6860	0	33.9180	0	26.740	0	299.975	0	80.3	4	26.3	4	-1E+10	1	-1E+10	1	-1E+10	1	-1E+10	1	-1E+10	1	-1E+10	1
4902551	120	C	12/12/2023	02:58	-130.974	46.734	0	303.90	0	5.6850	0	33.9180	0	26.740	0	301.163	0	79.9	4	26.2	4	-1E+10	1	-1E+10	1	-1E+10	1	-1E+10	1	-1E+10	1	-1E+10	1
4902551	120	C	12/12/2023	02:58	-130.974	46.734	0	305.10	0	5.6780	0	33.9180	0	26.741	0	302.352	0	79.4	4	26.0	4	-1E+10	1	-1E+10	1	-1E+10	1	-1E+10	1	-1E+10	1	-1E+10	1
4902551	120	C	12/12/2023	02:58	-130.974	46.734	0	306.00	0	5.6710	0	33.9180	0	26.742	0	303.243	0	78.8	4	25.8	4	-1E+10	1	-1E+10	1	-1E+10	1	-1E+10	1	-1E+10	1	-1E+10	1
4902551	120	C	12/12/2023	02:58	-130.974	46.734	0	306.90	0	5.6680	0	33.9160	0	26.740	0	304.134	0	78.4	4	25.7	4	-1E+10	1	-1E+10	1	-1E+10	1	-1E+10	1	-1E+10	1	-1E+10	1
4902551	120	C	12/12/2023	02:58	-130.974	46.734	0	307.70	0	5.6650	0	33.9170	0	26.742	0	304.926	0	77.8	4	25.5	4	-1E+10	1	-1E+10	1	-1E+10	1	-1E+10	1	-1E+10	1	-1E+10	1
4902551	120	C	12/12/2023	02:58	-130.974	46.734	0	308.90	0	5.6660	0	33.9170	0	26.741	0	306.115	0	76.9	4	25.2	4	-1E+10	1	-1E+10	1	-1E+10	1	-1E+10	1	-1E+10	1	-1E+10	1
4902551	120	C	12/12/2023	02:58	-130.974	46.734	0	310.20	0	5.6540	0	33.9190	0	26.744	0	307.402	0	75.9	4	24.9	4	-1E+10	1	-1E+10	1	-1E+10	1	-1E+10	1	-1E+10	1	-1E+10	1
4902551	120	C	12/12/2023	02:58	-130.974	46.734	0	311.00	0	5.6590	0	33.9210	0	26.745	0	308.194	0	75.3	4	24.7	4	-1E+10	1	-1E+10	1	-1E+10	1	-1E+10	1	-1E+10	1	-1E+10	1
4902551	120	C	12/12/2023	02:58	-130.974	46.734	0	311.90	0	5.6710	0	33.9250	0	26.747	0	309.085	0	74.8	4	24.5	4	-1E+10	1	-1E+10	1	-1E+10	1	-1E+10	1	-1E+10	1	-1E+10	1
4902551	120	C	12/12/2023	02:58	-130.974	46.734	0	312.70	0	5.7450	0	33.9390	0	26.749	0	309.878	0	74.4	4	24.4	4	-1E+10	1	-1E+10	1	-1E+10	1	-1E+10	1	-1E+10	1	-1E+10	1
4902551	120	C	12/12/2023	02:58	-130.974	46.734	0	313.60	0	5.7340	0	33.9400	0	26.751	0	310.769	0	74.1	4	24.3	4	-1E+10	1	-1E+10	1	-1E+10	1	-1E+10	1	-1E+10	1	-1E+10	1
4902551	120	C	12/12/2023	02:58	-130.974	46.734	0	314.80	0	5.7320	0	33.9400	0	26.752	0	311.957	0	73.7	4	24.2	4	-1E+10	1	-1E+10	1	-1E+10	1	-1E+10	1	-1E+10	1	-1E+10	1
4902551	120	C	12/12/2023	02:58	-130.974	46.734	0	316.20	0	5.7470	0	33.9430	0	26.752	0	313.343	0	73.2	4	24.0	4	-1E+10	1	-1E+10	1	-1E+10	1	-1E+10	1	-1E+10	1	-1E+10	1
4902551	120	C	12/12/2023	02:58	-130.974	46.734	0	317.10	0	5.7770	0	33.9520	0	26.756	0	314.235	0	73.1	4	24.0	4	-1E+10	1	-1E+10	1	-1E+10	1	-1E+10	1	-1E+10	1	-1E+10	1
4902551	120	C	12/12/2023	02:58	-130.974	46.734	0	317.90	0	5.7760	0	33.9500	0	26.754	0	315.027	0	73.2	4	24.0	4	-1E+10	1	-1E+10	1	-1E+10	1	-1E+10	1	-1E+10	1	-1E+10	1
4902551	120	C	12/12/2023	02:58	-130.974	46.734	0	318.80	0	5.7670	0	33.9500	0	26.755	0	315.918	0	73.2	4	24.1	4	-1E+10	1	-1E+10	1	-1E+10	1	-1E+10	1	-1E+10	1	-1E+10	1
4902551	120	C	12/12/2023	02:58	-130.974	46.734	0	319.70	0	5.7450	0	33.9450	0	26.754	0	316.809	0	73.3	4	24.1	4	-1E+10	1	-1E+10	1	-1E+10	1	-1E+10	1	-1E+10	1	-1E+10	1
4902551	120	C	12/12/2023	02:58	-130.974	46.734	0	320.60	0	5.7160	0	33.9440	0	26.757	0	317.700	0	73.3	4	24.1	4	-1E+10	1	-1E+10	1	-1E+10	1	-1E+10	1	-1E+10	1	-1E+10	1
4902551	120	C	12/12/2023	02:58	-130.974	46.734	0	321.90	0	5.6570	0	33.9410	0	26.762	0	318.987	0	73.1	4	24.0	4	-1E+10	1	-1E+10	1	-1E+10	1	-1E+10	1	-1E+10	1	-1E+10	1
4902551	120	C	12/12/2023	02:58	-130.974	46.734	0	323.20	0	5.5470	0	33.9290	0	26.765	0	320.275	0	72.5	4	23.7	4	-1E+10	1	-1E+10	1	-1E+10	1	-1E+10	1	-1E+10	1	-1E+10	1
4902551	120	C	12/12/2023	02:58	-130.974	46.734	0	324.10	0	5.5450	0	33.9310	0	26.767	0	321.166	0	71.9	4	23.5	4	-1E+10	1	-1E+10	1	-1E+10	1	-1E+10	1	-1E+10	1	-1E+10	1
4902551	120	C	12/12/2023	02:58	-130.974	46.734	0	325.00	0	5.5490	0	33.9320	0	26.768	0	322.057	0	71.4	4	23.4	4	-1E+10	1	-1E+10	1	-1E+10	1	-1E+10	1	-1E+10	1	-1E+10	1
4902551	120	C	12/12/2023	02:58	-130.974	46.734	0	325.90	0	5.5290	0	33.9390	0	26.775	0	322.948	0	70.7	4	23.1	4	-1E+10	1	-1E+10	1	-1E+10	1	-1E+10	1	-1E+10	1	-1E+10	1
4902551	120	C	12/12/2023	02:58	-130.974	46.734	0	326.80	0	5.5440	0	33.9220	0	26.760	0	323.839	0	70.1	4	22.9	4	-1E+10	1	-1E+10	1	-1E+10	1	-1E+10	1	-1E+10	1	-1E+10	1
4902551	120	C	12/12/2023	02:58	-130.974	46.734	0	327.70	0	5.5580	0	33.9370	0	26.770	0	324.730	0	69.6	4	22.8	4	-1E+10	1	-1E+10	1	-1E+10	1	-1E+10	1	-1E+10	1	-1E+10	1
4902551	120	C	12/12/2023	02:58	-130.974	46.734	0	329.00	0	5.5620	0	33.9410	0	26.773	0	326.018	0	69.0	4	22.6	4	-1E+10	1	-1E+10	1	-1E+10	1	-1E+10	1	-1E+10	1	-1E+10	1
4902551	120	C	12/12/2023	02:58	-130.974	46.734	0	330.30	0	5.4960	0	33.9350	0	26.776	0	327.305	0	68.2	4	22.3	4	-1E+10	1	-1E+10	1	-1E+10	1	-1E+10	1	-1E+10	1	-1E+10	1
4902551	120	C	12/12/2023	02:58	-130.974	46.734	0	331.20	0	5.4490	0	33.9330	0	26.780	0	328.196	0	67.5	4	22.0	4	-1E+10	1	-1E+10	1	-1E+10	1	-1E+10	1	-1E+10	1	-1E+10	1
4902551	120	C	12/12/2023	02:58	-130.974	46.734	0	332.10	0	5.4450	0	33.9340	0	26.782	0	329.087	0	66.7	4	21.7	4	-1E+10	1	-1E+10	1	-1E+10	1	-1E+10	1	-1E+10	1	-1E+10	1
4902551	120	C	12/12/2023	02:58	-130.974	46.734	0	333.00	0	5.4260	0	33.9340	0	26.784	0	329.978	0	65.8	4	21.4	4	-1E+10	1	-1E+10	1	-1E+10	1	-1E+10	1	-1E+10	1	-1E+10	1
4902551	120	C	12/12/2023	02:58	-130.974	46.734	0	333.90	0	5.3960	0	33.9370	0	26.790	0	330.869	0	64.7	4	21.1	4	-1E+10	1	-1E+10	1	-1E+10	1	-1E+10	1	-1E+10	1	-1E+10	1
4902551	120	C	12/12/2023	02:58	-130.974	46.734	0	334.80	0	5.3820	0	33.9310	0	26.787	0	331.760	0	63.6	4	20.7	4	-1E+10	1	-1E+10	1	-1E+10	1	-1E+10	1	-1E+10	1	-1E+10	1
4902551	120	C	12/12/2023	02:58	-130.974	46.734	0	335.70	0	5.4660	0	33.9420	0	26.785	0	332.652	0	62.6	4	20.4	4	-1E+10	1	-1E+10	1	-1E+10	1	-1E+10	1	-1E+10	1	-1E+10	1
4902551	120	C	12/12/2023	02:58	-130.974	46.734	0	336.60	0	5.5070	0	33.9590	0	26.794	0	333.543	0	61.9	4	20.2	4	-1E+10	1	-1E+10	1	-1E+10	1	-1E+10	1	-1E+10	1	-1E+10	1
4902551	120	C	12/12/2023	02:58	-130.974	46.734	0	337.90	0	5.5310	0	33.9590	0	26.791	0	334.830	0	61.0	4	19.9	4	-1E+10	1	-1E+10	1	-1E+10	1	-1E+10	1	-1E+10	1	-1E+10	1
4902551	120	C	12/12/2023	02:58	-130.974	46.734	0	339.30	0	5.5440	0	33.9660	0	26.795	0	336.216	0	60.1	4	19.7	4	-1E+10	1	-1E+10	1	-1E+10	1	-1E+10	1	-1E+10	1	-1E+10	1
4902551	120	C	12/12/2023	02:58	-130.974	46.734	0	340.30	0	5.5060	0	33.9750	0	26.807	0	337.206	0	59.4	4	19.4	4	-1E+10	1	-1E+10	1	-1E+10	1	-1E+10	1	-1E+10	1	-1E+10	1
4902551	120	C	12/12/2023	02:58	-130.974	46.734	0	341.20	0	5.6160	0	33.9860	0	26.802	0	338.097	0	59.0	4	19.3	4	-1E+10	1	-1E+10	1	-1E+10	1	-1E+10	1	-1E+10	1	-1E+10	1
4902551	120	C	12/12/2023	02:58	-130.974	46.734	0	342.10	0	5.5910	0	33.9850	0	26.805	0	338.988	0	58.6	4	19.2	4	-1E+10	1	-1E+10	1	-1E+10	1	-1E+10	1	-1E+10	1	-1E+10	1
4902551	120	C	12/12/2023	02:58	-130.974	46.734	0	343.10	0	5.5640	0	33.9780	0	26.802	0	339.978	0	58.2	4	19.0	4	-1E+10	1	-1E+10	1	-1E+10	1	-1E+10	1	-1E+10	1	-1E+10	1
4902551	120	C	12/12/2023	02:58	-130.974	46.734	0	344.00	0	5.5710	0	33.9830	0	26.805	0	340.869	0	57.8	4	18.9	4	-1E+10	1	-1E+10	1	-1E+10	1	-1E+10	1	-1E+10	1	-1E+10	1
4902551	120	C	12/12/2023	02:58	-130.974	46.734	0	344.90	0	5.6060	0	33.9860	0	26.804	0	341.760	0	57.5	4	18.8	4	-1E+10	1	-1E+10	1	-1E+10	1	-1E+10	1	-1E+10	1	-1E+10	1
4902551	120	C	12/12/2023	02:58	-130.974	46.734	0	345.80	0	5.6120	0	33.9910	0	26.807	0	342.651	0	57.2	4	18.8	4	-1E+10	1	-1E+10	1	-1E+10	1	-1E+10	1	-1E+10	1	-1E+10	1
4902551	120	C	12/12/2023	02:58	-130.974	46.734	0	346.80	0	5.6270	0	33.9910	0	26.805	0	343.642	0	57.0	4	18.7	4	-1E+10	1	-1E+10	1	-1E+10	1	-1E+10	1	-1E+10	1	-1E+10	1
4902551	120	C	12/12/2023	02:58	-130.974	46.734	0	347.70	0	5.6180	0	33.9930	0	26.808	0	344.533	0	56.9	4	18.7	4	-1E+10	1	-1E+10	1	-1E+10	1	-1E+10	1	-1E+10	1	-1E+10	1
4902551	120	C	12/12/2023	02:58	-130.974	46.734	0	348.70	0	5.6160	0	33.9920	0	26.807	0	345.523	0	56.7	4	18.6	4	-1E+10	1	-1E+10	1	-1E+10	1	-1E+10	1	-1E+10	1	-1E+10	1
4902551	120	C	12/12/2023	02:58	-130.974	46.734	0	349.60	0	5.6150	0	33.9920	0	26.807	0	346.414	0	56.6	4	18.5	4	-1E+10	1	-1E+10	1	-1E+10	1	-1E+10	1	-1E+10	1	-1E+10	1
4902551	120	C	12/12/2023	02:58	-130.974	46.734	0	352.80	0	5.5960	0	33.9940	0	26.811	0	349.582	0	55.7	4	18.3	4	-1E+10	1	-1E+10	1	-1E+10	1	-1E+10	1	-1E+10	1	-1E+10	1
4902551	120	C	12/12/2023	02:58	-130.974	46.734	0	358.00	0	5.6030	0	33.9990	0	26.814	0	354.730	0	54.8	4	17.9	4	-1E+10	1	-1E+10	1	-1E+10	1	-1E+10	1	-1E+10	1	-1E+10	1
4902551	120	C	12/12/2023	02:58	-130.974	46.734	0	362.70	0	5.5870	0	34.0020	0	26.819	0	359.383	0	54.7	4	17.9	4	-1E+10	1	-1E+10	1	-1E+10	1	-1E+10	1	-1E+10	1	-1E+10	1
4902551	120	C	12/12/2023	02:58	-130.974	46.734	0	368.00	0	5.5420	0	34.0010	0	26.823	0	364.630	0	54.9	4	18.0	4	-1E+10	1	-1E+10	1	-1E+10	1	-1E+10	1	-1E+10	1	-1E+10	1
4902551	120	C	12/12/2023	02:58	-130.974	46.734	0	373.20	0	5.5200	0	33.9990	0	26.825	0	369.778	0	55.2	4	18.0	4	-1E+10	1	-1E+10	1	-1E+10	1	-1E+10	1	-1E+10	1	-1E+10	1
4902551	120	C	12/12/2023	02:58	-130.974	46.734	0	378.00	0	5.4540	0	33.9970	0	26.831	0	374.529	0	55.9	4	18.2	4	-1E+10	1	-1E+10	1	-1E+10	1	-1E+10	1	-1E+10	1	-1E+10	1
4902551	120	C	12/12/2023	02:58	-130.974	46.734	0	382.90	0	5.3310	0	33.9850	0	26.836	0	379.380	0	56.4	4	18.4	4	-1E+10	1	-1E+10	1	-1E+10	1	-1E+10	1	-1E+10	1	-1E+10	1
4902551	120	C	12/12/2023	02:58	-130.974	46.734	0	387.80	0	5.2570	0	33.9740	0	26.836	0	384.230	0	55.2	4	17.9	4	-1E+10	1	-1E+10	1	-1E+10	1	-1E+10	1	-1E+10	1	-1E+10	1
4902551	120	C	12/12/2023	02:58	-130.974	46.734	0	392.70	0	5.3010	0	33.9930	0	26.846	0	389.080	0	54.4	4	17.7	4	-1E+10	1	-1E+10	1	-1E+10	1	-1E+10	1	-1E+10	1	-1E+10	1
4902551	120	C	12/12/2023	02:58	-130.974	46.734	0	398.00	0	5.2530	0	33.9910	0	26.850	0	394.327	0	55.0	4	17.9	4	-1E+10	1	-1E+10	1	-1E+10	1	-1E+10	1	-1E+10	1	-1E+10	1
4902551	120	C	12/12/2023	02:58	-130.974	46.734	0	403.30	0	5.0260	0	33.9700	0	26.859	0	399.573	0	54.9	4	17.7	4	-1E+10	1	-1E+10	1	-1E+10	1	-1E+10	1	-1E+10	1	-1E+10	1
4902551	120	C	12/12/2023	02:58	-130.974	46.734	0	408.10	0	4.9650	0	33.9670	0	26.864	0	404.323	0	53.2	4	17.2	4	-1E+10	1	-1E+10	1	-1E+10	1	-1E+10	1	-1E+10	1	-1E+10	1
4902551	120	C	12/12/2023	02:58	-130.974	46.734	0	412.90	0	4.9980	0	33.9800	0	26.871	0	409.074	0	51.5	4	16.6	4	-1E+10	1	-1E+10	1	-1E+10	1	-1E+10	1	-1E+10	1	-1E+10	1
4902551	120	C	12/12/2023	02:58	-130.974	46.734	0	417.70	0	4.9930	0	33.9870	0	26.877	0	413.825	0	50.6	4	16.3	4	-1E+10	1	-1E+10	1	-1E+10	1	-1E+10	1	-1E+10	1	-1E+10	1
4902551	120	C	12/12/2023	02:58	-130.974	46.734	0	422.50	0	4.9970	0	33.9940	0	26.882	0	418.576	0	49.9	4	16.1	4	-1E+10	1	-1E+10	1	-1E+10	1	-1E+10	1	-1E+10	1	-1E+10	1
4902551	120	C	12/12/2023	02:58	-130.974	46.734	0	427.80	0	4.9430	0	33.9930	0	26.887	0	423.821	0	49.6	4	16.0	4	-1E+10	1	-1E+10	1	-1E+10	1	-1E+10	1	-1E+10	1	-1E+10	1
4902551	120	C	12/12/2023	02:58	-130.974	46.734	0	433.20	0	4.9060	0	33.9970	0	26.895	0	429.165	0	49.5	4	15.9	4	-1E+10	1	-1E+10	1	-1E+10	1	-1E+10	1	-1E+10	1	-1E+10	1
4902551	120	C	12/12/2023	02:58	-130.974	46.734	0	438.00	0	4.8310	0	33.9850	0	26.894	0	433.916	0	48.9	4	15.7	4	-1E+10	1	-1E+10	1	-1E+10	1	-1E+10	1	-1E+10	1	-1E+10	1
4902551	120	C	12/12/2023	02:58	-130.974	46.734	0	442.90	0	4.8120	0	33.9880	0	26.898	0	438.765	0	47.7	4	15.3	4	-1E+10	1	-1E+10	1	-1E+10	1	-1E+10	1	-1E+10	1	-1E+10	1
4902551	120	C	12/12/2023	02:58	-130.974	46.734	0	447.70	0	4.7870	0	33.9940	0	26.906	0	443.515	0	46.2	4	14.8	4	-1E+10	1	-1E+10	1	-1E+10	1	-1E+10	1	-1E+10	1	-1E+10	1
4902551	120	C	12/12/2023	02:58	-130.974	46.734	0	452.70	0	4.7690	0	34.0010	0	26.913	0	448.463	0	45.0	4	14.5	4	-1E+10	1	-1E+10	1	-1E+10	1	-1E+10	1	-1E+10	1	-1E+10	1
4902551	120	C	12/12/2023	02:58	-130.974	46.734	0	457.70	0	4.7490	0	34.0030	0	26.917	0	453.410	0	44.1	4	14.2	4	-1E+10	1	-1E+10	1	-1E+10	1	-1E+10	1	-1E+10	1	-1E+10	1
4902551	120	C	12/12/2023	02:58	-130.974	46.734	0	462.90	0	4.7350	0	34.0060	0	26.921	0	458.556	0	42.4	4	13.6	4	-1E+10	1	-1E+10	1	-1E+10	1	-1E+10	1	-1E+10	1	-1E+10	1
4902551	120	C	12/12/2023	02:58	-130.974	46.734	0	467.90	0	4.6890	0	34.0160	0	26.934	0	463.503	0	40.3	4	12.9	4	-1E+10	1	-1E+10	1	-1E+10	1	-1E+10	1	-1E+10	1	-1E+10	1
4902551	120	C	12/12/2023	02:58	-130.974	46.734	0	472.90	0	4.6580	0	34.0250	0	26.945	0	468.451	0	38.7	4	12.4	4	-1E+10	1	-1E+10	1	-1E+10	1	-1E+10	1	-1E+10	1	-1E+10	1
4902551	120	C	12/12/2023	02:58	-130.974	46.734	0	478.00	0	4.6380	0	34.0320	0	26.952	0	473.497	0	37.1	4	11.9	4	-1E+10	1	-1E+10	1	-1E+10	1	-1E+10	1	-1E+10	1	-1E+10	1
4902551	120	C	12/12/2023	02:58	-130.974	46.734	0	483.20	0	4.6240	0	34.0400	0	26.960	0	478.642	0	35.6	4	11.4	4	-1E+10	1	-1E+10	1	-1E+10	1	-1E+10	1	-1E+10	1	-1E+10	1
4902551	120	C	12/12/2023	02:58	-130.974	46.734	0	488.30	0	4.5980	0	34.0470	0	26.969	0	483.688	0	34.8	4	11.1	4	-1E+10	1	-1E+10	1	-1E+10	1	-1E+10	1	-1E+10	1	-1E+10	1
4902551	120	C	12/12/2023	02:58	-130.974	46.734	0	493.00	0	4.5710	0	34.0510	0	26.975	0	488.338	0	34.2	4	10.9	4	-1E+10	1	-1E+10	1	-1E+10	1	-1E+10	1	-1E+10	1	-1E+10	1
4902551	120	C	12/12/2023	02:58	-130.974	46.734	0	497.90	0	4.5580	0	34.0530	0	26.978	0	493.186	0	33.7	4	10.8	4	-1E+10	1	-1E+10	1	-1E+10	1	-1E+10	1	-1E+10	1	-1E+10	1
4902551	120	C	12/12/2023	02:58	-130.974	46.734	0	502.90	0	4.5380	0	34.0540	0	26.981	0	498.133	0	33.0	4	10.5	4	-1E+10	1	-1E+10	1	-1E+10	1	-1E+10	1	-1E+10	1	-1E+10	1
4902551	120	C	12/12/2023	02:58	-130.974	46.734	0	508.00	0	4.5200	0	34.0570	0	26.985	0	503.178	0	32.0	4	10.2	4	-1E+10	1	-1E+10	1	-1E+10	1	-1E+10	1	-1E+10	1	-1E+10	1
4902551	120	C	12/12/2023	02:58	-130.974	46.734	0	513.30	0	4.5180	0	34.0610	0	26.989	0	508.421	0	30.8	4	9.8	4	-1E+10	1	-1E+10	1	-1E+10	1	-1E+10	1	-1E+10	1	-1E+10	1
4902551	120	C	12/12/2023	02:58	-130.974	46.734	0	518.00	0	4.5060	0	34.0660	0	26.994	0	513.071	0	29.5	4	9.4	4	-1E+10	1	-1E+10	1	-1E+10	1	-1E+10	1	-1E+10	1	-1E+10	1
4902551	120	C	12/12/2023	02:58	-130.974	46.734	0	522.70	0	4.4740	0	34.0770	0	27.006	0	517.720	0	28.2	4	9.0	4	-1E+10	1	-1E+10	1	-1E+10	1	-1E+10	1	-1E+10	1	-1E+10	1
4902551	120	C	12/12/2023	02:58	-130.974	46.734	0	527.80	0	4.4510	0	34.0850	0	27.015	0	522.765	0	27.4	4	8.7	4	-1E+10	1	-1E+10	1	-1E+10	1	-1E+10	1	-1E+10	1	-1E+10	1
4902551	120	C	12/12/2023	02:58	-130.974	46.734	0	532.90	0	4.4480	0	34.0890	0	27.019	0	527.810	0	26.7	4	8.5	4	-1E+10	1	-1E+10	1	-1E+10	1	-1E+10	1	-1E+10	1	-1E+10	1
4902551	120	C	12/12/2023	02:58	-130.974	46.734	0	537.60	0	4.4260	0	34.0950	0	27.026	0	532.459	0	26.1	4	8.3	4	-1E+10	1	-1E+10	1	-1E+10	1	-1E+10	1	-1E+10	1	-1E+10	1
4902551	120	C	12/12/2023	02:58	-130.974	46.734	0	542.90	0	4.4150	0	34.0970	0	27.029	0	537.702	0	25.7	4	8.2	4	-1E+10	1	-1E+10	1	-1E+10	1	-1E+10	1	-1E+10	1	-1E+10	1
4902551	120	C	12/12/2023	02:58	-130.974	46.734	0	548.10	0	4.4080	0	34.0990	0	27.031	0	542.845	0	25.1	4	8.0	4	-1E+10	1	-1E+10	1	-1E+10	1	-1E+10	1	-1E+10	1	-1E+10	1
4902551	120	C	12/12/2023	02:58	-130.974	46.734	0	552.80	0	4.4010	0	34.1030	0	27.035	0	547.494	0	24.4	4	7.8	4	-1E+10	1	-1E+10	1	-1E+10	1	-1E+10	1	-1E+10	1	-1E+10	1
4902551	120	C	12/12/2023	02:58	-130.974	46.734	0	558.00	0	4.4030	0	34.1100	0	27.040	0	552.637	0	23.5	4	7.5	4	-1E+10	1	-1E+10	1	-1E+10	1	-1E+10	1	-1E+10	1	-1E+10	1
4902551	120	C	12/12/2023	02:58	-130.974	46.734	0	563.20	0	4.3780	0	34.1160	0	27.048	0	557.780	0	22.7	4	7.2	4	-1E+10	1	-1E+10	1	-1E+10	1	-1E+10	1	-1E+10	1	-1E+10	1
4902551	120	C	12/12/2023	02:58	-130.974	46.734	0	567.80	0	4.3940	0	34.1220	0	27.051	0	562.330	0	22.0	4	7.0	4	-1E+10	1	-1E+10	1	-1E+10	1	-1E+10	1	-1E+10	1	-1E+10	1
4902551	120	C	12/12/2023	02:58	-130.974	46.734	0	573.00	0	4.3870	0	34.1270	0	27.056	0	567.472	0	21.1	4	6.7	4	-1E+10	1	-1E+10	1	-1E+10	1	-1E+10	1	-1E+10	1	-1E+10	1
4902551	120	C	12/12/2023	02:58	-130.974	46.734	0	578.00	0	4.3610	0	34.1340	0	27.064	0	572.417	0	20.5	4	6.5	4	-1E+10	1	-1E+10	1	-1E+10	1	-1E+10	1	-1E+10	1	-1E+10	1
4902551	120	C	12/12/2023	02:58	-130.974	46.734	0	583.10	0	4.3440	0	34.1380	0	27.069	0	577.461	0	20.0	4	6.4	4	-1E+10	1	-1E+10	1	-1E+10	1	-1E+10	1	-1E+10	1	-1E+10	1
4902551	120	C	12/12/2023	02:58	-130.974	46.734	0	588.10	0	4.3170	0	34.1400	0	27.074	0	582.406	0	19.5	4	6.2	4	-1E+10	1	-1E+10	1	-1E+10	1	-1E+10	1	-1E+10	1	-1E+10	1
4902551	120	C	12/12/2023	02:58	-130.974	46.734	0	593.10	0	4.3050	0	34.1460	0	27.080	0	587.350	0	18.9	4	6.0	4	-1E+10	1	-1E+10	1	-1E+10	1	-1E+10	1	-1E+10	1	-1E+10	1
4902551	120	C	12/12/2023	02:58	-130.974	46.734	0	598.00	0	4.2850	0	34.1520	0	27.087	0	592.196	0	18.4	4	5.9	4	-1E+10	1	-1E+10	1	-1E+10	1	-1E+10	1	-1E+10	1	-1E+10	1
4902551	120	C	12/12/2023	02:58	-130.974	46.734	0	602.80	0	4.2730	0	34.1520	0	27.088	0	596.942	0	18.0	4	5.7	4	-1E+10	1	-1E+10	1	-1E+10	1	-1E+10	1	-1E+10	1	-1E+10	1
4902551	120	C	12/12/2023	02:58	-130.974	46.734	0	607.70	0	4.2510	0	34.1600	0	27.097	0	601.788	0	17.7	4	5.6	4	-1E+10	1	-1E+10	1	-1E+10	1	-1E+10	1	-1E+10	1	-1E+10	1
4902551	120	C	12/12/2023	02:58	-130.974	46.734	0	612.70	0	4.2350	0	34.1610	0	27.099	0	606.732	0	17.5	4	5.6	4	-1E+10	1	-1E+10	1	-1E+10	1	-1E+10	1	-1E+10	1	-1E+10	1
4902551	120	C	12/12/2023	02:58	-130.974	46.734	0	617.70	0	4.2240	0	34.1630	0	27.102	0	611.676	0	17.3	4	5.5	4	-1E+10	1	-1E+10	1	-1E+10	1	-1E+10	1	-1E+10	1	-1E+10	1
4902551	120	C	12/12/2023	02:58	-130.974	46.734	0	622.60	0	4.2190	0	34.1640	0	27.103	0	616.520	0	17.0	4	5.4	4	-1E+10	1	-1E+10	1	-1E+10	1	-1E+10	1	-1E+10	1	-1E+10	1
4902551	120	C	12/12/2023	02:58	-130.974	46.734	0	627.60	0	4.2170	0	34.1660	0	27.105	0	621.464	0	16.5	4	5.2	4	-1E+10	1	-1E+10	1	-1E+10	1	-1E+10	1	-1E+10	1	-1E+10	1
4902551	120	C	12/12/2023	02:58	-130.974	46.734	0	632.70	0	4.2310	0	34.1740	0	27.110	0	626.507	0	16.0	4	5.1	4	-1E+10	1	-1E+10	1	-1E+10	1	-1E+10	1	-1E+10	1	-1E+10	1
4902551	120	C	12/12/2023	02:58	-130.974	46.734	0	637.80	0	4.2240	0	34.1820	0	27.117	0	631.549	0	15.8	4	5.0	4	-1E+10	1	-1E+10	1	-1E+10	1	-1E+10	1	-1E+10	1	-1E+10	1
4902551	120	C	12/12/2023	02:58	-130.974	46.734	0	643.00	0	4.2220	0	34.1840	0	27.119	0	636.690	0	15.7	4	5.0	4	-1E+10	1	-1E+10	1	-1E+10	1	-1E+10	1	-1E+10	1	-1E+10	1
4902551	120	C	12/12/2023	02:58	-130.974	46.734	0	648.10	0	4.2290	0	34.1870	0	27.121	0	641.732	0	15.5	4	4.9	4	-1E+10	1	-1E+10	1	-1E+10	1	-1E+10	1	-1E+10	1	-1E+10	1
4902551	120	C	12/12/2023	02:58	-130.974	46.734	0	653.30	0	4.2240	0	34.1900	0	27.124	0	646.873	0	15.4	4	4.9	4	-1E+10	1	-1E+10	1	-1E+10	1	-1E+10	1	-1E+10	1	-1E+10	1
4902551	120	C	12/12/2023	02:58	-130.974	46.734	0	658.00	0	4.2200	0	34.1920	0	27.126	0	651.519	0	15.2	4	4.8	4	-1E+10	1	-1E+10	1	-1E+10	1	-1E+10	1	-1E+10	1	-1E+10	1
4902551	120	C	12/12/2023	02:58	-130.974	46.734	0	662.80	0	4.2150	0	34.1930	0	27.127	0	656.265	0	15.0	4	4.8	4	-1E+10	1	-1E+10	1	-1E+10	1	-1E+10	1	-1E+10	1	-1E+10	1
4902551	120	C	12/12/2023	02:58	-130.974	46.734	0	668.00	0	4.2060	0	34.1950	0	27.130	0	661.405	0	14.8	4	4.7	4	-1E+10	1	-1E+10	1	-1E+10	1	-1E+10	1	-1E+10	1	-1E+10	1
4902551	120	C	12/12/2023	02:58	-130.974	46.734	0	673.20	0	4.1820	0	34.1970	0	27.134	0	666.545	0	14.6	4	4.6	4	-1E+10	1	-1E+10	1	-1E+10	1	-1E+10	1	-1E+10	1	-1E+10	1
4902551	120	C	12/12/2023	02:58	-130.974	46.734	0	678.00	0	4.1460	0	34.1960	0	27.137	0	671.290	0	14.4	4	4.6	4	-1E+10	1	-1E+10	1	-1E+10	1	-1E+10	1	-1E+10	1	-1E+10	1
4902551	120	C	12/12/2023	02:58	-130.974	46.734	0	682.90	0	4.1240	0	34.1980	0	27.141	0	676.134	0	14.2	4	4.5	4	-1E+10	1	-1E+10	1	-1E+10	1	-1E+10	1	-1E+10	1	-1E+10	1
4902551	120	C	12/12/2023	02:58	-130.974	46.734	0	687.90	0	4.0980	0	34.2040	0	27.148	0	681.076	0	13.9	4	4.4	4	-1E+10	1	-1E+10	1	-1E+10	1	-1E+10	1	-1E+10	1	-1E+10	1
4902551	120	C	12/12/2023	02:58	-130.974	46.734	0	693.10	0	4.0860	0	34.2080	0	27.153	0	686.216	0	13.7	4	4.3	4	-1E+10	1	-1E+10	1	-1E+10	1	-1E+10	1	-1E+10	1	-1E+10	1
4902551	120	C	12/12/2023	02:58	-130.974	46.734	0	698.20	0	4.0690	0	34.2140	0	27.159	0	691.257	0	13.5	4	4.3	4	-1E+10	1	-1E+10	1	-1E+10	1	-1E+10	1	-1E+10	1	-1E+10	1
4902551	120	C	12/12/2023	02:58	-130.974	46.734	0	703.10	0	4.0580	0	34.2170	0	27.163	0	696.100	0	13.4	4	4.2	4	-1E+10	1	-1E+10	1	-1E+10	1	-1E+10	1	-1E+10	1	-1E+10	1
4902551	120	C	12/12/2023	02:58	-130.974	46.734	0	707.90	0	4.0480	0	34.2190	0	27.165	0	700.844	0	13.2	4	4.2	4	-1E+10	1	-1E+10	1	-1E+10	1	-1E+10	1	-1E+10	1	-1E+10	1
4902551	120	C	12/12/2023	02:58	-130.974	46.734	0	713.20	0	4.0300	0	34.2230	0	27.170	0	706.082	0	13.1	4	4.1	4	-1E+10	1	-1E+10	1	-1E+10	1	-1E+10	1	-1E+10	1	-1E+10	1
4902551	120	C	12/12/2023	02:58	-130.974	46.734	0	718.10	0	4.0000	0	34.2280	0	27.178	0	710.925	0	13.0	4	4.1	4	-1E+10	1	-1E+10	1	-1E+10	1	-1E+10	1	-1E+10	1	-1E+10	1
4902551	120	C	12/12/2023	02:58	-130.974	46.734	0	723.00	0	3.9890	0	34.2290	0	27.179	0	715.768	0	12.9	4	4.1	4	-1E+10	1	-1E+10	1	-1E+10	1	-1E+10	1	-1E+10	1	-1E+10	1
4902551	120	C	12/12/2023	02:58	-130.974	46.734	0	728.00	0	3.9610	0	34.2330	0	27.186	0	720.709	0	12.8	4	4.0	4	-1E+10	1	-1E+10	1	-1E+10	1	-1E+10	1	-1E+10	1	-1E+10	1
4902551	120	C	12/12/2023	02:58	-130.974	46.734	0	732.70	0	3.9390	0	34.2360	0	27.190	0	725.354	0	12.8	4	4.0	4	-1E+10	1	-1E+10	1	-1E+10	1	-1E+10	1	-1E+10	1	-1E+10	1
4902551	120	C	12/12/2023	02:58	-130.974	46.734	0	737.90	0	3.9210	0	34.2380	0	27.194	0	730.493	0	12.8	4	4.0	4	-1E+10	1	-1E+10	1	-1E+10	1	-1E+10	1	-1E+10	1	-1E+10	1
4902551	120	C	12/12/2023	02:58	-130.974	46.734	0	743.10	0	3.9080	0	34.2380	0	27.195	0	735.631	0	12.7	4	4.0	4	-1E+10	1	-1E+10	1	-1E+10	1	-1E+10	1	-1E+10	1	-1E+10	1
4902551	120	C	12/12/2023	02:58	-130.974	46.734	0	747.90	0	3.9090	0	34.2410	0	27.197	0	740.375	0	12.6	4	4.0	4	-1E+10	1	-1E+10	1	-1E+10	1	-1E+10	1	-1E+10	1	-1E+10	1
4902551	120	C	12/12/2023	02:58	-130.974	46.734	0	752.60	0	3.8880	0	34.2410	0	27.199	0	745.019	0	12.6	4	4.0	4	-1E+10	1	-1E+10	1	-1E+10	1	-1E+10	1	-1E+10	1	-1E+10	1
4902551	120	C	12/12/2023	02:58	-130.974	46.734	0	757.90	0	3.8690	0	34.2430	0	27.203	0	750.256	0	12.5	4	3.9	4	-1E+10	1	-1E+10	1	-1E+10	1	-1E+10	1	-1E+10	1	-1E+10	1
4902551	120	C	12/12/2023	02:58	-130.974	46.734	0	763.20	0	3.8600	0	34.2470	0	27.207	0	755.493	0	12.3	4	3.9	4	-1E+10	1	-1E+10	1	-1E+10	1	-1E+10	1	-1E+10	1	-1E+10	1
4902551	120	C	12/12/2023	02:58	-130.974	46.734	0	767.90	0	3.8580	0	34.2510	0	27.211	0	760.137	0	12.2	4	3.9	4	-1E+10	1	-1E+10	1	-1E+10	1	-1E+10	1	-1E+10	1	-1E+10	1
4902551	120	C	12/12/2023	02:58	-130.974	46.734	0	772.60	0	3.8220	0	34.2530	0	27.216	0	764.781	0	12.2	4	3.9	4	-1E+10	1	-1E+10	1	-1E+10	1	-1E+10	1	-1E+10	1	-1E+10	1
4902551	120	C	12/12/2023	02:58	-130.974	46.734	0	777.80	0	3.8080	0	34.2550	0	27.219	0	769.919	0	12.1	4	3.8	4	-1E+10	1	-1E+10	1	-1E+10	1	-1E+10	1	-1E+10	1	-1E+10	1
4902551	120	C	12/12/2023	02:58	-130.974	46.734	0	783.10	0	3.8010	0	34.2580	0	27.222	0	775.155	0	12.0	4	3.8	4	-1E+10	1	-1E+10	1	-1E+10	1	-1E+10	1	-1E+10	1	-1E+10	1
4902551	120	C	12/12/2023	02:58	-130.974	46.734	0	787.90	0	3.7950	0	34.2600	0	27.224	0	779.897	0	11.9	4	3.8	4	-1E+10	1	-1E+10	1	-1E+10	1	-1E+10	1	-1E+10	1	-1E+10	1
4902551	120	C	12/12/2023	02:58	-130.974	46.734	0	792.70	0	3.7850	0	34.2620	0	27.227	0	784.640	0	11.9	4	3.7	4	-1E+10	1	-1E+10	1	-1E+10	1	-1E+10	1	-1E+10	1	-1E+10	1
4902551	120	C	12/12/2023	02:58	-130.974	46.734	0	797.90	0	3.7780	0	34.2640	0	27.229	0	789.777	0	11.7	4	3.7	4	-1E+10	1	-1E+10	1	-1E+10	1	-1E+10	1	-1E+10	1	-1E+10	1
4902551	120	C	12/12/2023	02:58	-130.974	46.734	0	803.20	0	3.7740	0	34.2670	0	27.232	0	795.013	0	11.5	4	3.6	4	-1E+10	1	-1E+10	1	-1E+10	1	-1E+10	1	-1E+10	1	-1E+10	1
4902551	120	C	12/12/2023	02:58	-130.974	46.734	0	808.00	0	3.7570	0	34.2710	0	27.237	0	799.755	0	11.4	4	3.6	4	-1E+10	1	-1E+10	1	-1E+10	1	-1E+10	1	-1E+10	1	-1E+10	1
4902551	120	C	12/12/2023	02:58	-130.974	46.734	0	812.80	0	3.7380	0	34.2750	0	27.242	0	804.496	0	11.2	4	3.5	4	-1E+10	1	-1E+10	1	-1E+10	1	-1E+10	1	-1E+10	1	-1E+10	1
4902551	120	C	12/12/2023	02:58	-130.974	46.734	0	817.60	0	3.7270	0	34.2790	0	27.246	0	809.238	0	11.0	4	3.5	4	-1E+10	1	-1E+10	1	-1E+10	1	-1E+10	1	-1E+10	1	-1E+10	1
4902551	120	C	12/12/2023	02:58	-130.974	46.734	0	822.80	0	3.7210	0	34.2830	0	27.250	0	814.375	0	10.8	4	3.4	4	-1E+10	1	-1E+10	1	-1E+10	1	-1E+10	1	-1E+10	1	-1E+10	1
4902551	120	C	12/12/2023	02:58	-130.974	46.734	0	828.30	0	3.7150	0	34.2890	0	27.255	0	819.808	0	10.6	4	3.3	4	-1E+10	1	-1E+10	1	-1E+10	1	-1E+10	1	-1E+10	1	-1E+10	1
4902551	120	C	12/12/2023	02:58	-130.974	46.734	0	833.30	0	3.7100	0	34.2890	0	27.256	0	824.747	0	10.6	4	3.3	4	-1E+10	1	-1E+10	1	-1E+10	1	-1E+10	1	-1E+10	1	-1E+10	1
4902551	120	C	12/12/2023	02:58	-130.974	46.734	0	837.90	0	3.7100	0	34.2910	0	27.258	0	829.290	0	10.5	4	3.3	4	-1E+10	1	-1E+10	1	-1E+10	1	-1E+10	1	-1E+10	1	-1E+10	1
4902551	120	C	12/12/2023	02:58	-130.974	46.734	0	842.60	0	3.7050	0	34.2930	0	27.260	0	833.933	0	10.5	4	3.3	4	-1E+10	1	-1E+10	1	-1E+10	1	-1E+10	1	-1E+10	1	-1E+10	1
4902551	120	C	12/12/2023	02:58	-130.974	46.734	0	847.70	0	3.6990	0	34.2950	0	27.262	0	838.970	0	10.4	4	3.3	4	-1E+10	1	-1E+10	1	-1E+10	1	-1E+10	1	-1E+10	1	-1E+10	1
4902551	120	C	12/12/2023	02:58	-130.974	46.734	0	853.00	0	3.6900	0	34.2970	0	27.264	0	844.205	0	10.4	4	3.3	4	-1E+10	1	-1E+10	1	-1E+10	1	-1E+10	1	-1E+10	1	-1E+10	1
4902551	120	C	12/12/2023	02:58	-130.974	46.734	0	858.00	0	3.6750	0	34.3000	0	27.268	0	849.143	0	10.4	4	3.3	4	-1E+10	1	-1E+10	1	-1E+10	1	-1E+10	1	-1E+10	1	-1E+10	1
4902551	120	C	12/12/2023	02:58	-130.974	46.734	0	862.80	0	3.6670	0	34.3030	0	27.272	0	853.884	0	10.4	4	3.3	4	-1E+10	1	-1E+10	1	-1E+10	1	-1E+10	1	-1E+10	1	-1E+10	1
4902551	120	C	12/12/2023	02:58	-130.974	46.734	0	867.70	0	3.6510	0	34.3050	0	27.275	0	858.723	0	10.3	4	3.2	4	-1E+10	1	-1E+10	1	-1E+10	1	-1E+10	1	-1E+10	1	-1E+10	1
4902551	120	C	12/12/2023	02:58	-130.974	46.734	0	872.70	0	3.6450	0	34.3080	0	27.278	0	863.661	0	10.3	4	3.2	4	-1E+10	1	-1E+10	1	-1E+10	1	-1E+10	1	-1E+10	1	-1E+10	1
4902551	120	C	12/12/2023	02:58	-130.974	46.734	0	877.90	0	3.6340	0	34.3100	0	27.280	0	868.796	0	10.2	4	3.2	4	-1E+10	1	-1E+10	1	-1E+10	1	-1E+10	1	-1E+10	1	-1E+10	1
4902551	120	C	12/12/2023	02:58	-130.974	46.734	0	882.80	0	3.6260	0	34.3110	0	27.282	0	873.635	0	10.2	4	3.2	4	-1E+10	1	-1E+10	1	-1E+10	1	-1E+10	1	-1E+10	1	-1E+10	1
4902551	120	C	12/12/2023	02:58	-130.974	46.734	0	887.70	0	3.6180	0	34.3140	0	27.285	0	878.474	0	10.2	4	3.2	4	-1E+10	1	-1E+10	1	-1E+10	1	-1E+10	1	-1E+10	1	-1E+10	1
4902551	120	C	12/12/2023	02:58	-130.974	46.734	0	893.00	0	3.6120	0	34.3140	0	27.286	0	883.708	0	10.2	4	3.2	4	-1E+10	1	-1E+10	1	-1E+10	1	-1E+10	1	-1E+10	1	-1E+10	1
4902551	120	C	12/12/2023	02:58	-130.974	46.734	0	897.90	0	3.6000	0	34.3160	0	27.289	0	888.546	0	10.2	4	3.2	4	-1E+10	1	-1E+10	1	-1E+10	1	-1E+10	1	-1E+10	1	-1E+10	1
4902551	120	C	12/12/2023	02:58	-130.974	46.734	0	902.90	0	3.5620	0	34.3230	0	27.298	0	893.484	0	10.2	4	3.2	4	-1E+10	1	-1E+10	1	-1E+10	1	-1E+10	1	-1E+10	1	-1E+10	1
4902551	120	C	12/12/2023	02:58	-130.974	46.734	0	907.80	0	3.5470	0	34.3280	0	27.303	0	898.322	0	10.2	4	3.2	4	-1E+10	1	-1E+10	1	-1E+10	1	-1E+10	1	-1E+10	1	-1E+10	1
4902551	120	C	12/12/2023	02:58	-130.974	46.734	0	912.70	0	3.5440	0	34.3300	0	27.305	0	903.160	0	10.2	4	3.2	4	-1E+10	1	-1E+10	1	-1E+10	1	-1E+10	1	-1E+10	1	-1E+10	1
4902551	120	C	12/12/2023	02:58	-130.974	46.734	0	918.00	0	3.5420	0	34.3330	0	27.308	0	908.393	0	10.2	4	3.2	4	-1E+10	1	-1E+10	1	-1E+10	1	-1E+10	1	-1E+10	1	-1E+10	1
4902551	120	C	12/12/2023	02:58	-130.974	46.734	0	922.80	0	3.5360	0	34.3380	0	27.313	0	913.133	0	10.2	4	3.2	4	-1E+10	1	-1E+10	1	-1E+10	1	-1E+10	1	-1E+10	1	-1E+10	1
4902551	120	C	12/12/2023	02:58	-130.974	46.734	0	927.70	0	3.5270	0	34.3430	0	27.317	0	917.971	0	10.2	4	3.2	4	-1E+10	1	-1E+10	1	-1E+10	1	-1E+10	1	-1E+10	1	-1E+10	1
4902551	120	C	12/12/2023	02:58	-130.974	46.734	0	932.80	0	3.5170	0	34.3440	0	27.319	0	923.006	0	10.2	4	3.2	4	-1E+10	1	-1E+10	1	-1E+10	1	-1E+10	1	-1E+10	1	-1E+10	1
4902551	120	C	12/12/2023	02:58	-130.974	46.734	0	937.70	0	3.4990	0	34.3470	0	27.323	0	927.844	0	10.2	4	3.2	4	-1E+10	1	-1E+10	1	-1E+10	1	-1E+10	1	-1E+10	1	-1E+10	1
4902551	120	C	12/12/2023	02:58	-130.974	46.734	0	942.70	0	3.4810	0	34.3490	0	27.327	0	932.780	0	10.3	4	3.2	4	-1E+10	1	-1E+10	1	-1E+10	1	-1E+10	1	-1E+10	1	-1E+10	1
4902551	120	C	12/12/2023	02:58	-130.974	46.734	0	947.90	0	3.4710	0	34.3490	0	27.328	0	937.913	0	10.3	4	3.2	4	-1E+10	1	-1E+10	1	-1E+10	1	-1E+10	1	-1E+10	1	-1E+10	1
4902551	120	C	12/12/2023	02:58	-130.974	46.734	0	953.10	0	3.4490	0	34.3520	0	27.332	0	943.047	0	10.3	4	3.2	4	-1E+10	1	-1E+10	1	-1E+10	1	-1E+10	1	-1E+10	1	-1E+10	1
4902551	120	C	12/12/2023	02:58	-130.974	46.734	0	957.90	0	3.4380	0	34.3530	0	27.334	0	947.786	0	10.4	4	3.2	4	-1E+10	1	-1E+10	1	-1E+10	1	-1E+10	1	-1E+10	1	-1E+10	1
4902551	120	C	12/12/2023	02:58	-130.974	46.734	0	962.90	0	3.4200	0	34.3550	0	27.337	0	952.721	0	10.4	4	3.2	4	-1E+10	1	-1E+10	1	-1E+10	1	-1E+10	1	-1E+10	1	-1E+10	1
4902551	120	C	12/12/2023	02:58	-130.974	46.734	0	967.90	0	3.4140	0	34.3540	0	27.337	0	957.657	0	10.4	4	3.2	4	-1E+10	1	-1E+10	1	-1E+10	1	-1E+10	1	-1E+10	1	-1E+10	1
4902551	120	C	12/12/2023	02:58	-130.974	46.734	0	972.90	0	3.3890	0	34.3550	0	27.340	0	962.593	0	10.5	4	3.3	4	-1E+10	1	-1E+10	1	-1E+10	1	-1E+10	1	-1E+10	1	-1E+10	1
4902551	120	C	12/12/2023	02:58	-130.974	46.734	0	978.10	0	3.3590	0	34.3570	0	27.345	0	967.726	0	10.5	4	3.3	4	-1E+10	1	-1E+10	1	-1E+10	1	-1E+10	1	-1E+10	1	-1E+10	1
4902551	120	C	12/12/2023	02:58	-130.974	46.734	0	983.20	0	3.3510	0	34.3580	0	27.347	0	972.760	0	10.5	4	3.3	4	-1E+10	1	-1E+10	1	-1E+10	1	-1E+10	1	-1E+10	1	-1E+10	1
4902551	120	C	12/12/2023	02:58	-130.974	46.734	0	987.90	0	3.3330	0	34.3600	0	27.350	0	977.399	0	10.6	4	3.3	4	-1E+10	1	-1E+10	1	-1E+10	1	-1E+10	1	-1E+10	1	-1E+10	1
4902551	120	C	12/12/2023	02:58	-130.974	46.734	0	992.70	0	3.3260	0	34.3600	0	27.351	0	982.136	0	10.6	4	3.3	4	-1E+10	1	-1E+10	1	-1E+10	1	-1E+10	1	-1E+10	1	-1E+10	1
4902551	120	C	12/12/2023	02:58	-130.974	46.734	0	997.90	0	3.3200	0	34.3600	0	27.351	0	987.269	0	10.6	4	3.3	4	-1E+10	1	-1E+10	1	-1E+10	1	-1E+10	1	-1E+10	1	-1E+10	1
4902551	120	C	12/12/2023	02:58	-130.974	46.734	0	1005.30	0	3.2950	0	34.3620	0	27.355	0	994.573	0	10.6	4	3.3	4	-1E+10	1	-1E+10	1	-1E+10	1	-1E+10	1	-1E+10	1	-1E+10	1
4902551	120	C	12/12/2023	02:58	-130.974	46.734	0	1015.50	0	3.2790	0	34.3640	0	27.358	0	1004.639	0	10.7	4	3.3	4	-1E+10	1	-1E+10	1	-1E+10	1	-1E+10	1	-1E+10	1	-1E+10	1
4902551	120	C	12/12/2023	02:58	-130.974	46.734	0	1025.70	0	3.2520	0	34.3680	0	27.364	0	1014.705	0	10.8	4	3.4	4	-1E+10	1	-1E+10	1	-1E+10	1	-1E+10	1	-1E+10	1	-1E+10	1
4902551	120	C	12/12/2023	02:58	-130.974	46.734	0	1035.50	0	3.2440	0	34.3750	0	27.370	0	1024.377	0	10.8	4	3.4	4	-1E+10	1	-1E+10	1	-1E+10	1	-1E+10	1	-1E+10	1	-1E+10	1
4902551	120	C	12/12/2023	02:58	-130.974	46.734	0	1045.30	0	3.2390	0	34.3830	0	27.377	0	1034.047	0	10.9	4	3.4	4	-1E+10	1	-1E+10	1	-1E+10	1	-1E+10	1	-1E+10	1	-1E+10	1
4902551	120	C	12/12/2023	02:58	-130.974	46.734	0	1055.60	0	3.2400	0	34.3890	0	27.382	0	1044.211	0	11.0	4	3.4	4	-1E+10	1	-1E+10	1	-1E+10	1	-1E+10	1	-1E+10	1	-1E+10	1
4902551	120	C	12/12/2023	02:58	-130.974	46.734	0	1065.60	0	3.2280	0	34.3940	0	27.387	0	1054.078	0	11.2	4	3.5	4	-1E+10	1	-1E+10	1	-1E+10	1	-1E+10	1	-1E+10	1	-1E+10	1
4902551	120	C	12/12/2023	02:58	-130.974	46.734	0	1075.30	0	3.1850	0	34.3990	0	27.395	0	1063.648	0	11.5	4	3.6	4	-1E+10	1	-1E+10	1	-1E+10	1	-1E+10	1	-1E+10	1	-1E+10	1
4902551	120	C	12/12/2023	02:58	-130.974	46.734	0	1085.40	0	3.1530	0	34.4030	0	27.401	0	1073.613	0	11.7	4	3.6	4	-1E+10	1	-1E+10	1	-1E+10	1	-1E+10	1	-1E+10	1	-1E+10	1
4902551	120	C	12/12/2023	02:58	-130.974	46.734	0	1095.50	0	3.1250	0	34.4090	0	27.409	0	1083.577	0	12.2	4	3.8	4	-1E+10	1	-1E+10	1	-1E+10	1	-1E+10	1	-1E+10	1	-1E+10	1
4902551	120	C	12/12/2023	02:58	-130.974	46.734	0	1105.60	0	3.1170	0	34.4200	0	27.418	0	1093.541	0	12.5	4	3.9	4	-1E+10	1	-1E+10	1	-1E+10	1	-1E+10	1	-1E+10	1	-1E+10	1
4902551	120	C	12/12/2023	02:58	-130.974	46.734	0	1115.70	0	3.1120	0	34.4210	0	27.420	0	1103.504	0	12.7	4	3.9	4	-1E+10	1	-1E+10	1	-1E+10	1	-1E+10	1	-1E+10	1	-1E+10	1
4902551	120	C	12/12/2023	02:58	-130.974	46.734	0	1125.80	0	3.0900	0	34.4230	0	27.423	0	1113.467	0	12.9	4	4.0	4	-1E+10	1	-1E+10	1	-1E+10	1	-1E+10	1	-1E+10	1	-1E+10	1
4902551	120	C	12/12/2023	02:58	-130.974	46.734	0	1135.70	0	3.0810	0	34.4250	0	27.426	0	1123.232	0	13.0	4	4.0	4	-1E+10	1	-1E+10	1	-1E+10	1	-1E+10	1	-1E+10	1	-1E+10	1
4902551	120	C	12/12/2023	02:58	-130.974	46.734	0	1145.40	0	3.0750	0	34.4270	0	27.428	0	1132.800	0	13.2	4	4.1	4	-1E+10	1	-1E+10	1	-1E+10	1	-1E+10	1	-1E+10	1	-1E+10	1
4902551	120	C	12/12/2023	02:58	-130.974	46.734	0	1155.50	0	3.0410	0	34.4310	0	27.434	0	1142.761	0	13.6	4	4.2	4	-1E+10	1	-1E+10	1	-1E+10	1	-1E+10	1	-1E+10	1	-1E+10	1
4902551	120	C	12/12/2023	02:58	-130.974	46.734	0	1165.30	0	3.0080	0	34.4360	0	27.442	0	1152.426	0	13.9	4	4.3	4	-1E+10	1	-1E+10	1	-1E+10	1	-1E+10	1	-1E+10	1	-1E+10	1
4902551	120	C	12/12/2023	02:58	-130.974	46.734	0	1175.30	0	3.0020	0	34.4370	0	27.443	0	1162.288	0	13.9	4	4.3	4	-1E+10	1	-1E+10	1	-1E+10	1	-1E+10	1	-1E+10	1	-1E+10	1
4902551	120	C	12/12/2023	02:58	-130.974	46.734	0	1185.50	0	3.0000	0	34.4380	0	27.444	0	1172.347	0	14.0	4	4.3	4	-1E+10	1	-1E+10	1	-1E+10	1	-1E+10	1	-1E+10	1	-1E+10	1
4902551	120	C	12/12/2023	02:58	-130.974	46.734	0	1195.10	0	2.9980	0	34.4380	0	27.444	0	1181.813	0	14.3	4	4.4	4	-1E+10	1	-1E+10	1	-1E+10	1	-1E+10	1	-1E+10	1	-1E+10	1
4902551	120	C	12/12/2023	02:58	-130.974	46.734	0	1205.50	0	2.9670	0	34.4430	0	27.451	0	1192.068	0	14.7	4	4.5	4	-1E+10	1	-1E+10	1	-1E+10	1	-1E+10	1	-1E+10	1	-1E+10	1
4902551	120	C	12/12/2023	02:58	-130.974	46.734	0	1215.70	0	2.9530	0	34.4450	0	27.454	0	1202.125	0	14.8	4	4.6	4	-1E+10	1	-1E+10	1	-1E+10	1	-1E+10	1	-1E+10	1	-1E+10	1
4902551	120	C	12/12/2023	02:58	-130.974	46.734	0	1225.60	0	2.9440	0	34.4460	0	27.456	0	1211.886	0	15.1	4	4.6	4	-1E+10	1	-1E+10	1	-1E+10	1	-1E+10	1	-1E+10	1	-1E+10	1
4902551	120	C	12/12/2023	02:58	-130.974	46.734	0	1235.80	0	2.9270	0	34.4480	0	27.459	0	1221.942	0	15.4	4	4.8	4	-1E+10	1	-1E+10	1	-1E+10	1	-1E+10	1	-1E+10	1	-1E+10	1
4902551	120	C	12/12/2023	02:58	-130.974	46.734	0	1245.50	0	2.9110	0	34.4510	0	27.463	0	1231.505	0	15.8	4	4.9	4	-1E+10	1	-1E+10	1	-1E+10	1	-1E+10	1	-1E+10	1	-1E+10	1
4902551	120	C	12/12/2023	02:58	-130.974	46.734	0	1255.10	0	2.8940	0	34.4550	0	27.467	0	1240.969	0	16.1	4	5.0	4	-1E+10	1	-1E+10	1	-1E+10	1	-1E+10	1	-1E+10	1	-1E+10	1
4902551	120	C	12/12/2023	02:58	-130.974	46.734	0	1265.20	0	2.8810	0	34.4560	0	27.469	0	1250.925	0	16.2	4	5.0	4	-1E+10	1	-1E+10	1	-1E+10	1	-1E+10	1	-1E+10	1	-1E+10	1
4902551	120	C	12/12/2023	02:58	-130.974	46.734	0	1275.10	0	2.8630	0	34.4580	0	27.473	0	1260.684	0	16.5	4	5.1	4	-1E+10	1	-1E+10	1	-1E+10	1	-1E+10	1	-1E+10	1	-1E+10	1
4902551	120	C	12/12/2023	02:58	-130.974	46.734	0	1285.30	0	2.8560	0	34.4590	0	27.474	0	1270.738	0	16.6	4	5.1	4	-1E+10	1	-1E+10	1	-1E+10	1	-1E+10	1	-1E+10	1	-1E+10	1
4902551	120	C	12/12/2023	02:58	-130.974	46.734	0	1295.20	0	2.8490	0	34.4600	0	27.476	0	1280.496	0	16.7	4	5.1	4	-1E+10	1	-1E+10	1	-1E+10	1	-1E+10	1	-1E+10	1	-1E+10	1
4902551	120	C	12/12/2023	02:58	-130.974	46.734	0	1305.40	0	2.8360	0	34.4620	0	27.478	0	1290.549	0	17.1	4	5.3	4	-1E+10	1	-1E+10	1	-1E+10	1	-1E+10	1	-1E+10	1	-1E+10	1
4902551	120	C	12/12/2023	02:58	-130.974	46.734	0	1315.50	0	2.8260	0	34.4640	0	27.481	0	1300.503	0	17.4	4	5.3	4	-1E+10	1	-1E+10	1	-1E+10	1	-1E+10	1	-1E+10	1	-1E+10	1
4902551	120	C	12/12/2023	02:58	-130.974	46.734	0	1325.40	0	2.8110	0	34.4660	0	27.484	0	1310.259	0	17.6	4	5.4	4	-1E+10	1	-1E+10	1	-1E+10	1	-1E+10	1	-1E+10	1	-1E+10	1
4902551	120	C	12/12/2023	02:58	-130.974	46.734	0	1335.60	0	2.7840	0	34.4690	0	27.489	0	1320.311	0	18.2	4	5.6	4	-1E+10	1	-1E+10	1	-1E+10	1	-1E+10	1	-1E+10	1	-1E+10	1
4902551	120	C	12/12/2023	02:58	-130.974	46.734	0	1345.70	0	2.7460	0	34.4740	0	27.496	0	1330.263	0	19.0	4	5.8	4	-1E+10	1	-1E+10	1	-1E+10	1	-1E+10	1	-1E+10	1	-1E+10	1
4902551	120	C	12/12/2023	02:58	-130.974	46.734	0	1355.80	0	2.7360	0	34.4760	0	27.499	0	1340.215	0	19.3	4	5.9	4	-1E+10	1	-1E+10	1	-1E+10	1	-1E+10	1	-1E+10	1	-1E+10	1
4902551	120	C	12/12/2023	02:58	-130.974	46.734	0	1365.60	0	2.7290	0	34.4770	0	27.500	0	1349.871	0	19.7	4	6.0	4	-1E+10	1	-1E+10	1	-1E+10	1	-1E+10	1	-1E+10	1	-1E+10	1
4902551	120	C	12/12/2023	02:58	-130.974	46.734	0	1375.30	0	2.7100	0	34.4800	0	27.504	0	1359.428	0	20.5	4	6.3	4	-1E+10	1	-1E+10	1	-1E+10	1	-1E+10	1	-1E+10	1	-1E+10	1
4902551	120	C	12/12/2023	02:58	-130.974	46.734	0	1385.40	0	2.6800	0	34.4840	0	27.510	0	1369.379	0	21.3	4	6.5	4	-1E+10	1	-1E+10	1	-1E+10	1	-1E+10	1	-1E+10	1	-1E+10	1
4902551	120	C	12/12/2023	02:58	-130.974	46.734	0	1395.70	0	2.6390	0	34.4890	0	27.518	0	1379.526	0	22.4	4	6.9	4	-1E+10	1	-1E+10	1	-1E+10	1	-1E+10	1	-1E+10	1	-1E+10	1
4902551	120	C	12/12/2023	02:58	-130.974	46.734	0	1405.50	0	2.6040	0	34.4940	0	27.525	0	1389.180	0	23.4	4	7.1	4	-1E+10	1	-1E+10	1	-1E+10	1	-1E+10	1	-1E+10	1	-1E+10	1
4902551	120	C	12/12/2023	02:58	-130.974	46.734	0	1415.20	0	2.5780	0	34.4970	0	27.529	0	1398.735	0	24.0	4	7.3	4	-1E+10	1	-1E+10	1	-1E+10	1	-1E+10	1	-1E+10	1	-1E+10	1
4902551	120	C	12/12/2023	02:58	-130.974	46.734	0	1425.10	0	2.5560	0	34.5000	0	27.534	0	1408.487	0	24.9	4	7.6	4	-1E+10	1	-1E+10	1	-1E+10	1	-1E+10	1	-1E+10	1	-1E+10	1
4902551	120	C	12/12/2023	02:58	-130.974	46.734	0	1435.40	0	2.5240	0	34.5050	0	27.540	0	1418.633	0	25.7	4	7.8	4	-1E+10	1	-1E+10	1	-1E+10	1	-1E+10	1	-1E+10	1	-1E+10	1
4902551	120	C	12/12/2023	02:58	-130.974	46.734	0	1445.70	0	2.5080	0	34.5070	0	27.543	0	1428.777	0	26.1	4	8.0	4	-1E+10	1	-1E+10	1	-1E+10	1	-1E+10	1	-1E+10	1	-1E+10	1
4902551	120	C	12/12/2023	02:58	-130.974	46.734	0	1455.80	0	2.4970	0	34.5090	0	27.546	0	1438.725	0	26.3	4	8.0	4	-1E+10	1	-1E+10	1	-1E+10	1	-1E+10	1	-1E+10	1	-1E+10	1
4902551	120	C	12/12/2023	02:58	-130.974	46.734	0	1465.60	0	2.4950	0	34.5090	0	27.546	0	1448.376	0	26.5	4	8.1	4	-1E+10	1	-1E+10	1	-1E+10	1	-1E+10	1	-1E+10	1	-1E+10	1
4902551	120	C	12/12/2023	02:58	-130.974	46.734	0	1475.60	0	2.4820	0	34.5100	0	27.548	0	1458.224	0	26.7	4	8.2	4	-1E+10	1	-1E+10	1	-1E+10	1	-1E+10	1	-1E+10	1	-1E+10	1
4902551	120	C	12/12/2023	02:58	-130.974	46.734	0	1485.40	0	2.4820	0	34.5100	0	27.548	0	1467.875	0	26.8	4	8.2	4	-1E+10	1	-1E+10	1	-1E+10	1	-1E+10	1	-1E+10	1	-1E+10	1
4902551	120	C	12/12/2023	02:58	-130.974	46.734	0	1495.50	0	2.4830	0	34.5100	0	27.548	0	1477.820	0	26.9	4	8.2	4	-1E+10	1	-1E+10	1	-1E+10	1	-1E+10	1	-1E+10	1	-1E+10	1
4902551	120	C	12/12/2023	02:58	-130.974	46.734	0	1505.70	0	2.4800	0	34.5110	0	27.549	0	1487.864	0	27.3	4	8.3	4	-1E+10	1	-1E+10	1	-1E+10	1	-1E+10	1	-1E+10	1	-1E+10	1
4902551	120	C	12/12/2023	02:58	-130.974	46.734	0	1515.50	0	2.4750	0	34.5110	0	27.550	0	1497.513	0	27.9	4	8.5	4	-1E+10	1	-1E+10	1	-1E+10	1	-1E+10	1	-1E+10	1	-1E+10	1
4902551	120	C	12/12/2023	02:58	-130.974	46.734	0	1525.30	0	2.4400	0	34.5160	0	27.557	0	1507.162	0	28.9	4	8.8	4	-1E+10	1	-1E+10	1	-1E+10	1	-1E+10	1	-1E+10	1	-1E+10	1
4902551	120	C	12/12/2023	02:58	-130.974	46.734	0	1535.20	0	2.4220	0	34.5180	0	27.560	0	1516.909	0	29.6	4	9.0	4	-1E+10	1	-1E+10	1	-1E+10	1	-1E+10	1	-1E+10	1	-1E+10	1
4902551	120	C	12/12/2023	02:58	-130.974	46.734	0	1545.20	0	2.3910	0	34.5220	0	27.566	0	1526.753	0	30.5	4	9.3	4	-1E+10	1	-1E+10	1	-1E+10	1	-1E+10	1	-1E+10	1	-1E+10	1
4902551	120	C	12/12/2023	02:58	-130.974	46.734	0	1555.40	0	2.3720	0	34.5240	0	27.569	0	1536.795	0	31.3	4	9.5	4	-1E+10	1	-1E+10	1	-1E+10	1	-1E+10	1	-1E+10	1	-1E+10	1
4902551	120	C	12/12/2023	02:58	-130.974	46.734	0	1565.80	0	2.3500	0	34.5260	0	27.572	0	1547.032	0	32.7	4	9.9	4	-1E+10	1	-1E+10	1	-1E+10	1	-1E+10	1	-1E+10	1	-1E+10	1
4902551	120	C	12/12/2023	02:58	-130.974	46.734	0	1575.50	0	2.3100	0	34.5320	0	27.580	0	1556.580	0	33.7	4	10.2	4	-1E+10	1	-1E+10	1	-1E+10	1	-1E+10	1	-1E+10	1	-1E+10	1
4902551	120	C	12/12/2023	02:58	-130.974	46.734	0	1585.50	0	2.3030	0	34.5340	0	27.583	0	1566.423	0	33.9	4	10.3	4	-1E+10	1	-1E+10	1	-1E+10	1	-1E+10	1	-1E+10	1	-1E+10	1
4902551	120	C	12/12/2023	02:58	-130.974	46.734	0	1595.60	0	2.2980	0	34.5350	0	27.584	0	1576.364	0	34.2	4	10.4	4	-1E+10	1	-1E+10	1	-1E+10	1	-1E+10	1	-1E+10	1	-1E+10	1
4902551	120	C	12/12/2023	02:58	-130.974	46.734	0	1605.60	0	2.2930	0	34.5350	0	27.584	0	1586.206	0	34.4	4	10.5	4	-1E+10	1	-1E+10	1	-1E+10	1	-1E+10	1	-1E+10	1	-1E+10	1
4902551	120	C	12/12/2023	02:58	-130.974	46.734	0	1615.60	0	2.2880	0	34.5350	0	27.585	0	1596.048	0	34.7	4	10.5	4	-1E+10	1	-1E+10	1	-1E+10	1	-1E+10	1	-1E+10	1	-1E+10	1
4902551	120	C	12/12/2023	02:58	-130.974	46.734	0	1625.40	0	2.2850	0	34.5360	0	27.586	0	1605.692	0	34.8	4	10.6	4	-1E+10	1	-1E+10	1	-1E+10	1	-1E+10	1	-1E+10	1	-1E+10	1
4902551	120	C	12/12/2023	02:58	-130.974	46.734	0	1635.10	0	2.2850	0	34.5360	0	27.586	0	1615.237	0	34.8	4	10.6	4	-1E+10	1	-1E+10	1	-1E+10	1	-1E+10	1	-1E+10	1	-1E+10	1
4902551	120	C	12/12/2023	02:58	-130.974	46.734	0	1645.30	0	2.2870	0	34.5360	0	27.586	0	1625.274	0	34.9	4	10.6	4	-1E+10	1	-1E+10	1	-1E+10	1	-1E+10	1	-1E+10	1	-1E+10	1
4902551	120	C	12/12/2023	02:58	-130.974	46.734	0	1655.40	0	2.2850	0	34.5370	0	27.587	0	1635.213	0	35.1	4	10.7	4	-1E+10	1	-1E+10	1	-1E+10	1	-1E+10	1	-1E+10	1	-1E+10	1
4902551	120	C	12/12/2023	02:58	-130.974	46.734	0	1665.60	0	2.2830	0	34.5370	0	27.587	0	1645.249	0	35.5	4	10.8	4	-1E+10	1	-1E+10	1	-1E+10	1	-1E+10	1	-1E+10	1	-1E+10	1
4902551	120	C	12/12/2023	02:58	-130.974	46.734	0	1675.60	0	2.2820	0	34.5370	0	27.587	0	1655.087	0	36.5	4	11.1	4	-1E+10	1	-1E+10	1	-1E+10	1	-1E+10	1	-1E+10	1	-1E+10	1
4902551	120	C	12/12/2023	02:58	-130.974	46.734	0	1685.30	0	2.2400	0	34.5450	0	27.597	0	1664.631	0	38.8	4	11.8	4	-1E+10	1	-1E+10	1	-1E+10	1	-1E+10	1	-1E+10	1	-1E+10	1
4902551	120	C	12/12/2023	02:58	-130.974	46.734	0	1695.20	0	2.2250	0	34.5460	0	27.599	0	1674.370	0	40.3	4	12.2	4	-1E+10	1	-1E+10	1	-1E+10	1	-1E+10	1	-1E+10	1	-1E+10	1
4902551	120	C	12/12/2023	02:58	-130.974	46.734	0	1705.30	0	2.1740	0	34.5520	0	27.608	0	1684.306	0	42.6	4	12.9	4	-1E+10	1	-1E+10	1	-1E+10	1	-1E+10	1	-1E+10	1	-1E+10	1
4902551	120	C	12/12/2023	02:58	-130.974	46.734	0	1715.40	0	2.1500	0	34.5570	0	27.614	0	1694.241	0	43.4	4	13.1	4	-1E+10	1	-1E+10	1	-1E+10	1	-1E+10	1	-1E+10	1	-1E+10	1
4902551	120	C	12/12/2023	02:58	-130.974	46.734	0	1725.60	0	2.1420	0	34.5580	0	27.616	0	1704.274	0	43.7	4	13.2	4	-1E+10	1	-1E+10	1	-1E+10	1	-1E+10	1	-1E+10	1	-1E+10	1
4902551	120	C	12/12/2023	02:58	-130.974	46.734	0	1735.30	0	2.1360	0	34.5600	0	27.618	0	1713.815	0	44.0	4	13.3	4	-1E+10	1	-1E+10	1	-1E+10	1	-1E+10	1	-1E+10	1	-1E+10	1
4902551	120	C	12/12/2023	02:58	-130.974	46.734	0	1745.40	0	2.1310	0	34.5600	0	27.618	0	1723.749	0	44.1	4	13.3	4	-1E+10	1	-1E+10	1	-1E+10	1	-1E+10	1	-1E+10	1	-1E+10	1
4902551	120	C	12/12/2023	02:58	-130.974	46.734	0	1755.30	0	2.1340	0	34.5600	0	27.618	0	1733.486	0	44.3	4	13.4	4	-1E+10	1	-1E+10	1	-1E+10	1	-1E+10	1	-1E+10	1	-1E+10	1
4902551	120	C	12/12/2023	02:58	-130.974	46.734	0	1765.20	0	2.1270	0	34.5610	0	27.619	0	1743.222	0	44.8	4	13.5	4	-1E+10	1	-1E+10	1	-1E+10	1	-1E+10	1	-1E+10	1	-1E+10	1
4902551	120	C	12/12/2023	02:58	-130.974	46.734	0	1775.70	0	2.1220	0	34.5620	0	27.621	0	1753.548	0	44.9	4	13.6	4	-1E+10	1	-1E+10	1	-1E+10	1	-1E+10	1	-1E+10	1	-1E+10	1
4902551	120	C	12/12/2023	02:58	-130.974	46.734	0	1785.70	0	2.1240	0	34.5620	0	27.621	0	1763.382	0	44.9	4	13.6	4	-1E+10	1	-1E+10	1	-1E+10	1	-1E+10	1	-1E+10	1	-1E+10	1
4902551	120	C	12/12/2023	02:58	-130.974	46.734	0	1795.30	0	2.1280	0	34.5610	0	27.619	0	1772.822	0	45.2	4	13.7	4	-1E+10	1	-1E+10	1	-1E+10	1	-1E+10	1	-1E+10	1	-1E+10	1
4902551	120	C	12/12/2023	02:58	-130.974	46.734	0	1805.10	0	2.1190	0	34.5630	0	27.622	0	1782.458	0	46.2	4	14.0	4	-1E+10	1	-1E+10	1	-1E+10	1	-1E+10	1	-1E+10	1	-1E+10	1
4902551	120	C	12/12/2023	02:58	-130.974	46.734	0	1815.10	0	2.1010	0	34.5650	0	27.625	0	1792.291	0	47.6	4	14.4	4	-1E+10	1	-1E+10	1	-1E+10	1	-1E+10	1	-1E+10	1	-1E+10	1
4902551	120	C	12/12/2023	02:58	-130.974	46.734	0	1825.60	0	2.0750	0	34.5690	0	27.630	0	1802.614	0	48.7	4	14.7	4	-1E+10	1	-1E+10	1	-1E+10	1	-1E+10	1	-1E+10	1	-1E+10	1
4902551	120	C	12/12/2023	02:58	-130.974	46.734	0	1835.60	0	2.0590	0	34.5720	0	27.634	0	1812.446	0	49.8	4	15.0	4	-1E+10	1	-1E+10	1	-1E+10	1	-1E+10	1	-1E+10	1	-1E+10	1
4902551	120	C	12/12/2023	02:58	-130.974	46.734	0	1845.40	0	2.0480	0	34.5740	0	27.636	0	1822.080	0	50.5	4	15.2	4	-1E+10	1	-1E+10	1	-1E+10	1	-1E+10	1	-1E+10	1	-1E+10	1
4902551	120	C	12/12/2023	02:58	-130.974	46.734	0	1855.40	0	2.0290	0	34.5770	0	27.640	0	1831.911	0	51.4	4	15.5	4	-1E+10	1	-1E+10	1	-1E+10	1	-1E+10	1	-1E+10	1	-1E+10	1
4902551	120	C	12/12/2023	02:58	-130.974	46.734	0	1861.70	0	2.0290	0	34.5770	0	27.640	0	1838.104	0	51.1	4	15.4	4	-1E+10	1	-1E+10	1	-1E+10	1	-1E+10	1	-1E+10	1	-1E+10	1
4902551	120	C	12/12/2023	02:58	-130.974	46.734	0																										
4902551	121	C	12/22/2023	03:06	-130.856	46.823	0	0.40	0	11.0620	0	32.2500	0	24.624	0	0.397	0	253.0	4	92.4	4	-1E+10	1	-1E+10	1	-1E+10	1	-1E+10	1	-1E+10	1	-1E+10	1
4902551	121	C	12/22/2023	03:06	-130.856	46.823	0	1.10	0	11.0640	0	32.2500	0	24.624	0	1.091	0	252.9	4	92.4	4	-1E+10	1	-1E+10	1	-1E+10	1	-1E+10	1	-1E+10	1	-1E+10	1
4902551	121	C	12/22/2023	03:06	-130.856	46.823	0	1.90	0	11.0630	0	32.2530	0	24.627	0	1.884	0	252.8	4	92.3	4	-1E+10	1	-1E+10	1	-1E+10	1	-1E+10	1	-1E+10	1	-1E+10	1
4902551	121	C	12/22/2023	03:06	-130.856	46.823	0	2.80	0	11.0640	0	32.2520	0	24.626	0	2.777	0	252.8	4	92.3	4	-1E+10	1	-1E+10	1	-1E+10	1	-1E+10	1	-1E+10	1	-1E+10	1
4902551	121	C	12/22/2023	03:06	-130.856	46.823	0	3.80	0	11.0640	0	32.2520	0	24.626	0	3.768	0	252.8	4	92.3	4	-1E+10	1	-1E+10	1	-1E+10	1	-1E+10	1	-1E+10	1	-1E+10	1
4902551	121	C	12/22/2023	03:06	-130.856	46.823	0	4.50	0	11.0646	0	32.2526	0	24.626	0	4.463	0	252.7	4	92.3	4	-1E+10	1	-1E+10	1	-1E+10	1	-1E+10	1	-1E+10	1	-1E+10	1
4902551	121	C	12/22/2023	03:06	-130.856	46.823	0	4.90	0	11.0650	0	32.2530	0	24.626	0	4.859	0	-1e10	1	-1e10	1	-1E+10	1	-1E+10	1	-1E+10	1	-1E+10	1	-1E+10	1	-1E+10	1
4902551	121	C	12/22/2023	03:06	-130.856	46.823	0	5.20	0	11.0650	0	32.2530	0	24.626	0	5.157	0	252.7	4	92.3	4	-1E+10	1	-1E+10	1	-1E+10	1	-1E+10	1	-1E+10	1	-1E+10	1
4902551	121	C	12/22/2023	03:06	-130.856	46.823	0	5.70	0	11.0650	0	32.2530	0	24.626	0	5.653	0	252.7	4	92.3	4	-1E+10	1	-1E+10	1	-1E+10	1	-1E+10	1	-1E+10	1	-1E+10	1
4902551	121	C	12/22/2023	03:06	-130.856	46.823	0	6.90	0	11.0650	0	32.2530	0	24.626	0	6.843	0	252.7	4	92.3	4	-1E+10	1	-1E+10	1	-1E+10	1	-1E+10	1	-1E+10	1	-1E+10	1
4902551	121	C	12/22/2023	03:06	-130.856	46.823	0	8.10	0	11.0650	0	32.2530	0	24.626	0	8.033	0	252.7	4	92.3	4	-1E+10	1	-1E+10	1	-1E+10	1	-1E+10	1	-1E+10	1	-1E+10	1
4902551	121	C	12/22/2023	03:06	-130.856	46.823	0	8.90	0	11.0650	0	32.2530	0	24.626	0	8.826	0	252.6	4	92.3	4	-1E+10	1	-1E+10	1	-1E+10	1	-1E+10	1	-1E+10	1	-1E+10	1
4902551	121	C	12/22/2023	03:06	-130.856	46.823	0	9.80	0	11.0650	0	32.2530	0	24.626	0	9.719	0	252.6	4	92.3	4	-1E+10	1	-1E+10	1	-1E+10	1	-1E+10	1	-1E+10	1	-1E+10	1
4902551	121	C	12/22/2023	03:06	-130.856	46.823	0	11.10	0	11.0650	0	32.2530	0	24.626	0	11.008	0	252.6	4	92.3	4	-1E+10	1	-1E+10	1	-1E+10	1	-1E+10	1	-1E+10	1	-1E+10	1
4902551	121	C	12/22/2023	03:06	-130.856	46.823	0	12.00	0	11.0650	0	32.2520	0	24.626	0	11.900	0	252.6	4	92.3	4	-1E+10	1	-1E+10	1	-1E+10	1	-1E+10	1	-1E+10	1	-1E+10	1
4902551	121	C	12/22/2023	03:06	-130.856	46.823	0	12.90	0	11.0640	0	32.2520	0	24.626	0	12.793	0	252.5	4	92.2	4	-1E+10	1	-1E+10	1	-1E+10	1	-1E+10	1	-1E+10	1	-1E+10	1
4902551	121	C	12/22/2023	03:06	-130.856	46.823	0	13.80	0	11.0630	0	32.2530	0	24.627	0	13.685	0	252.5	4	92.2	4	-1E+10	1	-1E+10	1	-1E+10	1	-1E+10	1	-1E+10	1	-1E+10	1
4902551	121	C	12/22/2023	03:06	-130.856	46.823	0	14.80	0	11.0640	0	32.2520	0	24.626	0	14.677	0	252.5	4	92.2	4	-1E+10	1	-1E+10	1	-1E+10	1	-1E+10	1	-1E+10	1	-1E+10	1
4902551	121	C	12/22/2023	03:06	-130.856	46.823	0	15.80	0	11.0640	0	32.2530	0	24.627	0	15.669	0	252.4	4	92.2	4	-1E+10	1	-1E+10	1	-1E+10	1	-1E+10	1	-1E+10	1	-1E+10	1
4902551	121	C	12/22/2023	03:06	-130.856	46.823	0	16.80	0	11.0650	0	32.2520	0	24.626	0	16.660	0	252.4	4	92.2	4	-1E+10	1	-1E+10	1	-1E+10	1	-1E+10	1	-1E+10	1	-1E+10	1
4902551	121	C	12/22/2023	03:06	-130.856	46.823	0	18.00	0	11.0690	0	32.2550	0	24.627	0	17.850	0	252.3	4	92.2	4	-1E+10	1	-1E+10	1	-1E+10	1	-1E+10	1	-1E+10	1	-1E+10	1
4902551	121	C	12/22/2023	03:06	-130.856	46.823	0	18.90	0	11.0690	0	32.2570	0	24.629	0	18.743	0	252.2	4	92.1	4	-1E+10	1	-1E+10	1	-1E+10	1	-1E+10	1	-1E+10	1	-1E+10	1
4902551	121	C	12/22/2023	03:06	-130.856	46.823	0	19.80	0	11.0700	0	32.2560	0	24.628	0	19.635	0	252.2	4	92.1	4	-1E+10	1	-1E+10	1	-1E+10	1	-1E+10	1	-1E+10	1	-1E+10	1
4902551	121	C	12/22/2023	03:06	-130.856	46.823	0	21.00	0	11.0700	0	32.2550	0	24.627	0	20.825	0	252.2	4	92.1	4	-1E+10	1	-1E+10	1	-1E+10	1	-1E+10	1	-1E+10	1	-1E+10	1
4902551	121	C	12/22/2023	03:06	-130.856	46.823	0	22.00	0	11.0700	0	32.2550	0	24.627	0	21.817	0	252.2	4	92.1	4	-1E+10	1	-1E+10	1	-1E+10	1	-1E+10	1	-1E+10	1	-1E+10	1
4902551	121	C	12/22/2023	03:06	-130.856	46.823	0	23.10	0	11.0700	0	32.2550	0	24.627	0	22.907	0	252.0	4	92.1	4	-1E+10	1	-1E+10	1	-1E+10	1	-1E+10	1	-1E+10	1	-1E+10	1
4902551	121	C	12/22/2023	03:06	-130.856	46.823	0	24.00	0	11.0680	0	32.2530	0	24.626	0	23.800	0	251.9	4	92.0	4	-1E+10	1	-1E+10	1	-1E+10	1	-1E+10	1	-1E+10	1	-1E+10	1
4902551	121	C	12/22/2023	03:06	-130.856	46.823	0	25.00	0	11.0700	0	32.2570	0	24.629	0	24.791	0	251.7	4	92.0	4	-1E+10	1	-1E+10	1	-1E+10	1	-1E+10	1	-1E+10	1	-1E+10	1
4902551	121	C	12/22/2023	03:06	-130.856	46.823	0	26.10	0	11.0710	0	32.2580	0	24.630	0	25.882	0	251.7	4	92.0	4	-1E+10	1	-1E+10	1	-1E+10	1	-1E+10	1	-1E+10	1	-1E+10	1
4902551	121	C	12/22/2023	03:06	-130.856	46.823	0	27.00	0	11.0710	0	32.2570	0	24.629	0	26.775	0	251.6	4	91.9	4	-1E+10	1	-1E+10	1	-1E+10	1	-1E+10	1	-1E+10	1	-1E+10	1
4902551	121	C	12/22/2023	03:06	-130.856	46.823	0	28.20	0	11.0720	0	32.2580	0	24.629	0	27.964	0	251.5	4	91.9	4	-1E+10	1	-1E+10	1	-1E+10	1	-1E+10	1	-1E+10	1	-1E+10	1
4902551	121	C	12/22/2023	03:06	-130.856	46.823	0	29.10	0	11.0720	0	32.2570	0	24.629	0	28.857	0	251.4	4	91.8	4	-1E+10	1	-1E+10	1	-1E+10	1	-1E+10	1	-1E+10	1	-1E+10	1
4902551	121	C	12/22/2023	03:06	-130.856	46.823	0	30.10	0	11.0720	0	32.2630	0	24.633	0	29.848	0	251.3	4	91.8	4	-1E+10	1	-1E+10	1	-1E+10	1	-1E+10	1	-1E+10	1	-1E+10	1
4902551	121	C	12/22/2023	03:06	-130.856	46.823	0	31.10	0	11.0730	0	32.2710	0	24.639	0	30.840	0	251.3	4	91.8	4	-1E+10	1	-1E+10	1	-1E+10	1	-1E+10	1	-1E+10	1	-1E+10	1
4902551	121	C	12/22/2023	03:06	-130.856	46.823	0	32.10	0	11.0730	0	32.2690	0	24.638	0	31.832	0	251.1	4	91.7	4	-1E+10	1	-1E+10	1	-1E+10	1	-1E+10	1	-1E+10	1	-1E+10	1
4902551	121	C	12/22/2023	03:06	-130.856	46.823	0	33.00	0	11.0740	0	32.2680	0	24.637	0	32.724	0	251.0	4	91.7	4	-1E+10	1	-1E+10	1	-1E+10	1	-1E+10	1	-1E+10	1	-1E+10	1
4902551	121	C	12/22/2023	03:06	-130.856	46.823	0	33.90	0	11.0740	0	32.2720	0	24.640	0	33.616	0	251.0	4	91.7	4	-1E+10	1	-1E+10	1	-1E+10	1	-1E+10	1	-1E+10	1	-1E+10	1
4902551	121	C	12/22/2023	03:06	-130.856	46.823	0	35.00	0	11.0740	0	32.2710	0	24.639	0	34.707	0	250.9	4	91.7	4	-1E+10	1	-1E+10	1	-1E+10	1	-1E+10	1	-1E+10	1	-1E+10	1
4902551	121	C	12/22/2023	03:06	-130.856	46.823	0	35.90	0	11.0750	0	32.2750	0	24.642	0	35.600	0	250.9	4	91.7	4	-1E+10	1	-1E+10	1	-1E+10	1	-1E+10	1	-1E+10	1	-1E+10	1
4902551	121	C	12/22/2023	03:06	-130.856	46.823	0	37.00	0	11.0750	0	32.2760	0	24.643	0	36.690	0	250.8	4	91.6	4	-1E+10	1	-1E+10	1	-1E+10	1	-1E+10	1	-1E+10	1	-1E+10	1
4902551	121	C	12/22/2023	03:06	-130.856	46.823	0	38.00	0	11.0760	0	32.2780	0	24.644	0	37.682	0	250.7	4	91.6	4	-1E+10	1	-1E+10	1	-1E+10	1	-1E+10	1	-1E+10	1	-1E+10	1
4902551	121	C	12/22/2023	03:06	-130.856	46.823	0	39.10	0	11.0760	0	32.2790	0	24.645	0	38.772	0	250.6	4	91.6	4	-1E+10	1	-1E+10	1	-1E+10	1	-1E+10	1	-1E+10	1	-1E+10	1
4902551	121	C	12/22/2023	03:06	-130.856	46.823	0	40.10	0	11.0760	0	32.2790	0	24.645	0	39.764	0	250.5	4	91.5	4	-1E+10	1	-1E+10	1	-1E+10	1	-1E+10	1	-1E+10	1	-1E+10	1
4902551	121	C	12/22/2023	03:06	-130.856	46.823	0	41.00	0	11.0770	0	32.2800	0	24.646	0	40.656	0	250.4	4	91.5	4	-1E+10	1	-1E+10	1	-1E+10	1	-1E+10	1	-1E+10	1	-1E+10	1
4902551	121	C	12/22/2023	03:06	-130.856	46.823	0	41.80	0	11.0780	0	32.2820	0	24.647	0	41.450	0	250.2	4	91.4	4	-1E+10	1	-1E+10	1	-1E+10	1	-1E+10	1	-1E+10	1	-1E+10	1
4902551	121	C	12/22/2023	03:06	-130.856	46.823	0	42.90	0	11.0780	0	32.2820	0	24.647	0	42.540	0	250.0	4	91.4	4	-1E+10	1	-1E+10	1	-1E+10	1	-1E+10	1	-1E+10	1	-1E+10	1
4902551	121	C	12/22/2023	03:06	-130.856	46.823	0	43.80	0	11.0810	0	32.2900	0	24.653	0	43.433	0	249.9	4	91.4	4	-1E+10	1	-1E+10	1	-1E+10	1	-1E+10	1	-1E+10	1	-1E+10	1
4902551	121	C	12/22/2023	03:06	-130.856	46.823	0	44.70	0	11.0810	0	32.2900	0	24.653	0	44.325	0	249.7	4	91.3	4	-1E+10	1	-1E+10	1	-1E+10	1	-1E+10	1	-1E+10	1	-1E+10	1
4902551	121	C	12/22/2023	03:06	-130.856	46.823	0	45.90	0	11.0820	0	32.2950	0	24.657	0	45.515	0	249.5	4	91.2	4	-1E+10	1	-1E+10	1	-1E+10	1	-1E+10	1	-1E+10	1	-1E+10	1
4902551	121	C	12/22/2023	03:06	-130.856	46.823	0	46.90	0	11.0830	0	32.2970	0	24.658	0	46.506	0	249.3	4	91.1	4	-1E+10	1	-1E+10	1	-1E+10	1	-1E+10	1	-1E+10	1	-1E+10	1
4902551	121	C	12/22/2023	03:06	-130.856	46.823	0	47.80	0	11.0830	0	32.2990	0	24.660	0	47.399	0	248.9	4	91.0	4	-1E+10	1	-1E+10	1	-1E+10	1	-1E+10	1	-1E+10	1	-1E+10	1
4902551	121	C	12/22/2023	03:06	-130.856	46.823	0	48.80	0	11.0840	0	32.3010	0	24.661	0	48.390	0	248.4	4	90.8	4	-1E+10	1	-1E+10	1	-1E+10	1	-1E+10	1	-1E+10	1	-1E+10	1
4902551	121	C	12/22/2023	03:06	-130.856	46.823	0	49.80	0	11.0740	0	32.3160	0	24.675	0	49.381	0	248.1	4	90.7	4	-1E+10	1	-1E+10	1	-1E+10	1	-1E+10	1	-1E+10	1	-1E+10	1
4902551	121	C	12/22/2023	03:06	-130.856	46.823	0	50.90	0	11.0680	0	32.3210	0	24.680	0	50.472	0	247.6	4	90.5	4	-1E+10	1	-1E+10	1	-1E+10	1	-1E+10	1	-1E+10	1	-1E+10	1
4902551	121	C	12/22/2023	03:06	-130.856	46.823	0	52.00	0	11.0600	0	32.3280	0	24.686	0	51.563	0	247.2	4	90.3	4	-1E+10	1	-1E+10	1	-1E+10	1	-1E+10	1	-1E+10	1	-1E+10	1
4902551	121	C	12/22/2023	03:06	-130.856	46.823	0	53.10	0	11.0560	0	32.3310	0	24.690	0	52.653	0	246.8	4	90.2	4	-1E+10	1	-1E+10	1	-1E+10	1	-1E+10	1	-1E+10	1	-1E+10	1
4902551	121	C	12/22/2023	03:06	-130.856	46.823	0	53.90	0	11.0410	0	32.3360	0	24.696	0	53.447	0	246.4	4	90.0	4	-1E+10	1	-1E+10	1	-1E+10	1	-1E+10	1	-1E+10	1	-1E+10	1
4902551	121	C	12/22/2023	03:06	-130.856	46.823	0	54.70	0	11.0100	0	32.3390	0	24.704	0	54.240	0	246.0	4	89.8	4	-1E+10	1	-1E+10	1	-1E+10	1	-1E+10	1	-1E+10	1	-1E+10	1
4902551	121	C	12/22/2023	03:06	-130.856	46.823	0	55.70	0	10.9970	0	32.3400	0	24.707	0	55.231	0	245.4	4	89.6	4	-1E+10	1	-1E+10	1	-1E+10	1	-1E+10	1	-1E+10	1	-1E+10	1
4902551	121	C	12/22/2023	03:06	-130.856	46.823	0	56.70	0	10.9800	0	32.3420	0	24.712	0	56.223	0	244.4	4	89.2	4	-1E+10	1	-1E+10	1	-1E+10	1	-1E+10	1	-1E+10	1	-1E+10	1
4902551	121	C	12/22/2023	03:06	-130.856	46.823	0	57.90	0	10.9330	0	32.3440	0	24.721	0	57.412	0	243.3	4	88.7	4	-1E+10	1	-1E+10	1	-1E+10	1	-1E+10	1	-1E+10	1	-1E+10	1
4902551	121	C	12/22/2023	03:06	-130.856	46.823	0	59.30	0	10.9230	0	32.3440	0	24.723	0	58.800	0	241.9	4	88.1	4	-1E+10	1	-1E+10	1	-1E+10	1	-1E+10	1	-1E+10	1	-1E+10	1
4902551	121	C	12/22/2023	03:06	-130.856	46.823	0	60.20	0	10.8700	0	32.3460	0	24.734	0	59.693	0	241.0	4	87.7	4	-1E+10	1	-1E+10	1	-1E+10	1	-1E+10	1	-1E+10	1	-1E+10	1
4902551	121	C	12/22/2023	03:06	-130.856	46.823	0	61.10	0	10.7950	0	32.3510	0	24.751	0	60.585	0	240.2	4	87.3	4	-1E+10	1	-1E+10	1	-1E+10	1	-1E+10	1	-1E+10	1	-1E+10	1
4902551	121	C	12/22/2023	03:06	-130.856	46.823	0	61.90	0	10.7240	0	32.3520	0	24.764	0	61.378	0	239.3	4	86.9	4	-1E+10	1	-1E+10	1	-1E+10	1	-1E+10	1	-1E+10	1	-1E+10	1
4902551	121	C	12/22/2023	03:06	-130.856	46.823	0	63.30	0	10.6400	0	32.3580	0	24.783	0	62.766	0	237.5	4	86.0	4	-1E+10	1	-1E+10	1	-1E+10	1	-1E+10	1	-1E+10	1	-1E+10	1
4902551	121	C	12/22/2023	03:06	-130.856	46.823	0	64.20	0	10.5730	0	32.3620	0	24.798	0	63.658	0	236.0	4	85.4	4	-1E+10	1	-1E+10	1	-1E+10	1	-1E+10	1	-1E+10	1	-1E+10	1
4902551	121	C	12/22/2023	03:06	-130.856	46.823	0	64.90	0	10.5060	0	32.3660	0	24.812	0	64.352	0	234.8	4	84.8	4	-1E+10	1	-1E+10	1	-1E+10	1	-1E+10	1	-1E+10	1	-1E+10	1
4902551	121	C	12/22/2023	03:06	-130.856	46.823	0	65.80	0	10.4370	0	32.3730	0	24.830	0	65.244	0	233.1	4	84.1	4	-1E+10	1	-1E+10	1	-1E+10	1	-1E+10	1	-1E+10	1	-1E+10	1
4902551	121	C	12/22/2023	03:06	-130.856	46.823	0	67.00	0	10.3440	0	32.3840	0	24.854	0	66.434	0	230.7	4	83.1	4	-1E+10	1	-1E+10	1	-1E+10	1	-1E+10	1	-1E+10	1	-1E+10	1
4902551	121	C	12/22/2023	03:06	-130.856	46.823	0	68.10	0	10.2690	0	32.3930	0	24.874	0	67.525	0	227.9	4	81.9	4	-1E+10	1	-1E+10	1	-1E+10	1	-1E+10	1	-1E+10	1	-1E+10	1
4902551	121	C	12/22/2023	03:06	-130.856	46.823	0	69.10	0	10.0590	0	32.4150	0	24.926	0	68.516	0	224.7	4	80.4	4	-1E+10	1	-1E+10	1	-1E+10	1	-1E+10	1	-1E+10	1	-1E+10	1
4902551	121	C	12/22/2023	03:06	-130.856	46.823	0	69.90	0	9.7670	0	32.4510	0	25.002	0	69.309	0	222.6	4	79.2	4	-1E+10	1	-1E+10	1	-1E+10	1	-1E+10	1	-1E+10	1	-1E+10	1
4902551	121	C	12/22/2023	03:06	-130.856	46.823	0	71.10	0	9.4470	0	32.4860	0	25.081	0	70.499	0	219.1	4	77.4	4	-1E+10	1	-1E+10	1	-1E+10	1	-1E+10	1	-1E+10	1	-1E+10	1
4902551	121	C	12/22/2023	03:06	-130.856	46.823	0	72.00	0	9.3080	0	32.5150	0	25.126	0	71.391	0	215.3	4	75.9	4	-1E+10	1	-1E+10	1	-1E+10	1	-1E+10	1	-1E+10	1	-1E+10	1
4902551	121	C	12/22/2023	03:06	-130.856	46.823	0	72.90	0	9.1910	0	32.5350	0	25.160	0	72.283	0	216.2	4	76.0	4	-1E+10	1	-1E+10	1	-1E+10	1	-1E+10	1	-1E+10	1	-1E+10	1
4902551	121	C	12/22/2023	03:06	-130.856	46.823	0	73.90	0	9.0820	0	32.5520	0	25.190	0	73.275	0	211.7	4	74.2	4	-1E+10	1	-1E+10	1	-1E+10	1	-1E+10	1	-1E+10	1	-1E+10	1
4902551	121	C	12/22/2023	03:06	-130.856	46.823	0	75.10	0	8.7210	0	32.6100	0	25.292	0	74.464	0	205.4	4	71.5	4	-1E+10	1	-1E+10	1	-1E+10	1	-1E+10	1	-1E+10	1	-1E+10	1
4902551	121	C	12/22/2023	03:06	-130.856	46.823	0	76.10	0	8.2350	0	32.7540	0	25.477	0	75.456	0	202.0	4	69.6	4	-1E+10	1	-1E+10	1	-1E+10	1	-1E+10	1	-1E+10	1	-1E+10	1
4902551	121	C	12/22/2023	03:06	-130.856	46.823	0	77.00	0	8.0780	0	32.8310	0	25.561	0	76.348	0	200.2	4	68.8	4	-1E+10	1	-1E+10	1	-1E+10	1	-1E+10	1	-1E+10	1	-1E+10	1
4902551	121	C	12/22/2023	03:06	-130.856	46.823	0	77.90	0	8.0250	0	32.8630	0	25.594	0	77.240	0	198.4	4	68.1	4	-1E+10	1	-1E+10	1	-1E+10	1	-1E+10	1	-1E+10	1	-1E+10	1
4902551	121	C	12/22/2023	03:06	-130.856	46.823	0	79.10	0	7.9790	0	32.8980	0	25.628	0	78.430	0	196.7	4	67.5	4	-1E+10	1	-1E+10	1	-1E+10	1	-1E+10	1	-1E+10	1	-1E+10	1
4902551	121	C	12/22/2023	03:06	-130.856	46.823	0	79.90	0	7.9460	0	32.9290	0	25.657	0	79.223	0	195.9	4	67.2	4	-1E+10	1	-1E+10	1	-1E+10	1	-1E+10	1	-1E+10	1	-1E+10	1
4902551	121	C	12/22/2023	03:06	-130.856	46.823	0	81.10	0	7.9120	0	32.9530	0	25.681	0	80.412	0	194.9	4	66.8	4	-1E+10	1	-1E+10	1	-1E+10	1	-1E+10	1	-1E+10	1	-1E+10	1
4902551	121	C	12/22/2023	03:06	-130.856	46.823	0	82.10	0	7.8990	0	32.9600	0	25.688	0	81.404	0	194.0	4	66.5	4	-1E+10	1	-1E+10	1	-1E+10	1	-1E+10	1	-1E+10	1	-1E+10	1
4902551	121	C	12/22/2023	03:06	-130.856	46.823	0	83.00	0	7.8790	0	32.9710	0	25.700	0	82.296	0	193.5	4	66.3	4	-1E+10	1	-1E+10	1	-1E+10	1	-1E+10	1	-1E+10	1	-1E+10	1
4902551	121	C	12/22/2023	03:06	-130.856	46.823	0	83.90	0	7.8550	0	32.9830	0	25.712	0	83.188	0	193.0	4	66.1	4	-1E+10	1	-1E+10	1	-1E+10	1	-1E+10	1	-1E+10	1	-1E+10	1
4902551	121	C	12/22/2023	03:06	-130.856	46.823	0	85.10	0	7.8380	0	32.9900	0	25.720	0	84.378	0	191.9	4	65.7	4	-1E+10	1	-1E+10	1	-1E+10	1	-1E+10	1	-1E+10	1	-1E+10	1
4902551	121	C	12/22/2023	03:06	-130.856	46.823	0	86.00	0	7.8300	0	32.9950	0	25.725	0	85.270	0	191.1	4	65.4	4	-1E+10	1	-1E+10	1	-1E+10	1	-1E+10	1	-1E+10	1	-1E+10	1
4902551	121	C	12/22/2023	03:06	-130.856	46.823	0	86.90	0	7.8200	0	33.0020	0	25.732	0	86.162	0	190.1	4	65.0	4	-1E+10	1	-1E+10	1	-1E+10	1	-1E+10	1	-1E+10	1	-1E+10	1
4902551	121	C	12/22/2023	03:06	-130.856	46.823	0	87.90	0	7.8170	0	33.0100	0	25.739	0	87.153	0	189.2	4	64.7	4	-1E+10	1	-1E+10	1	-1E+10	1	-1E+10	1	-1E+10	1	-1E+10	1
4902551	121	C	12/22/2023	03:06	-130.856	46.823	0	88.80	0	7.8030	0	33.0220	0	25.751	0	88.045	0	188.3	4	64.4	4	-1E+10	1	-1E+10	1	-1E+10	1	-1E+10	1	-1E+10	1	-1E+10	1
4902551	121	C	12/22/2023	03:06	-130.856	46.823	0	89.90	0	7.7930	0	33.0280	0	25.757	0	89.136	0	187.5	4	64.1	4	-1E+10	1	-1E+10	1	-1E+10	1	-1E+10	1	-1E+10	1	-1E+10	1
4902551	121	C	12/22/2023	03:06	-130.856	46.823	0	90.90	0	7.7890	0	33.0280	0	25.757	0	90.127	0	186.3	4	63.7	4	-1E+10	1	-1E+10	1	-1E+10	1	-1E+10	1	-1E+10	1	-1E+10	1
4902551	121	C	12/22/2023	03:06	-130.856	46.823	0	91.90	0	7.7850	0	33.0290	0	25.759	0	91.118	0	185.1	4	63.3	4	-1E+10	1	-1E+10	1	-1E+10	1	-1E+10	1	-1E+10	1	-1E+10	1
4902551	121	C	12/22/2023	03:06	-130.856	46.823	0	92.80	0	7.7680	0	33.0300	0	25.762	0	92.011	0	183.5	4	62.7	4	-1E+10	1	-1E+10	1	-1E+10	1	-1E+10	1	-1E+10	1	-1E+10	1
4902551	121	C	12/22/2023	03:06	-130.856	46.823	0	93.90	0	7.7550	0	33.0310	0	25.765	0	93.101	0	181.0	4	61.9	4	-1E+10	1	-1E+10	1	-1E+10	1	-1E+10	1	-1E+10	1	-1E+10	1
4902551	121	C	12/22/2023	03:06	-130.856	46.823	0	95.10	0	7.7060	0	33.0530	0	25.789	0	94.290	0	177.9	4	60.7	4	-1E+10	1	-1E+10	1	-1E+10	1	-1E+10	1	-1E+10	1	-1E+10	1
4902551	121	C	12/22/2023	03:06	-130.856	46.823	0	96.00	0	7.6490	0	33.1120	0	25.843	0	95.183	0	175.8	4	60.0	4	-1E+10	1	-1E+10	1	-1E+10	1	-1E+10	1	-1E+10	1	-1E+10	1
4902551	121	C	12/22/2023	03:06	-130.856	46.823	0	97.00	0	7.5510	0	33.1920	0	25.920	0	96.174	0	173.9	4	59.2	4	-1E+10	1	-1E+10	1	-1E+10	1	-1E+10	1	-1E+10	1	-1E+10	1
4902551	121	C	12/22/2023	03:06	-130.856	46.823	0	98.10	0	7.5060	0	33.2250	0	25.952	0	97.264	0	172.0	4	58.5	4	-1E+10	1	-1E+10	1	-1E+10	1	-1E+10	1	-1E+10	1	-1E+10	1
4902551	121	C	12/22/2023	03:06	-130.856	46.823	0	99.10	0	7.4870	0	33.2370	0	25.965	0	98.255	0	170.4	4	58.0	4	-1E+10	1	-1E+10	1	-1E+10	1	-1E+10	1	-1E+10	1	-1E+10	1
4902551	121	C	12/22/2023	03:06	-130.856	46.823	0	100.10	0	7.4590	0	33.2560	0	25.983	0	99.247	0	168.9	4	57.4	4	-1E+10	1	-1E+10	1	-1E+10	1	-1E+10	1	-1E+10	1	-1E+10	1
4902551	121	C	12/22/2023	03:06	-130.856	46.823	0	100.80	0	7.4510	0	33.2670	0	25.993	0	99.941	0	167.9	4	57.1	4	-1E+10	1	-1E+10	1	-1E+10	1	-1E+10	1	-1E+10	1	-1E+10	1
4902551	121	C	12/22/2023	03:06	-130.856	46.823	0	101.80	0	7.4420	0	33.3000	0	26.020	0	100.932	0	166.5	4	56.6	4	-1E+10	1	-1E+10	1	-1E+10	1	-1E+10	1	-1E+10	1	-1E+10	1
4902551	121	C	12/22/2023	03:06	-130.856	46.823	0	102.90	0	7.4280	0	33.3150	0	26.034	0	102.022	0	165.3	4	56.2	4	-1E+10	1	-1E+10	1	-1E+10	1	-1E+10	1	-1E+10	1	-1E+10	1
4902551	121	C	12/22/2023	03:06	-130.856	46.823	0	104.00	0	7.4190	0	33.3470	0	26.061	0	103.112	0	164.2	4	55.8	4	-1E+10	1	-1E+10	1	-1E+10	1	-1E+10	1	-1E+10	1	-1E+10	1
4902551	121	C	12/22/2023	03:06	-130.856	46.823	0	105.20	0	7.4090	0	33.3620	0	26.074	0	104.302	0	163.2	4	55.5	4	-1E+10	1	-1E+10	1	-1E+10	1	-1E+10	1	-1E+10	1	-1E+10	1
4902551	121	C	12/22/2023	03:06	-130.856	46.823	0	105.90	0	7.4060	0	33.3630	0	26.075	0	104.996	0	162.6	4	55.3	4	-1E+10	1	-1E+10	1	-1E+10	1	-1E+10	1	-1E+10	1	-1E+10	1
4902551	121	C	12/22/2023	03:06	-130.856	46.823	0	106.90	0	7.3980	0	33.3750	0	26.086	0	105.987	0	161.6	4	54.9	4	-1E+10	1	-1E+10	1	-1E+10	1	-1E+10	1	-1E+10	1	-1E+10	1
4902551	121	C	12/22/2023	03:06	-130.856	46.823	0	108.00	0	7.3840	0	33.3830	0	26.094	0	107.077	0	160.4	4	54.5	4	-1E+10	1	-1E+10	1	-1E+10	1	-1E+10	1	-1E+10	1	-1E+10	1
4902551	121	C	12/22/2023	03:06	-130.856	46.823	0	108.80	0	7.3750	0	33.3890	0	26.100	0	107.870	0	159.7	4	54.2	4	-1E+10	1	-1E+10	1	-1E+10	1	-1E+10	1	-1E+10	1	-1E+10	1
4902551	121	C	12/22/2023	03:06	-130.856	46.823	0	109.80	0	7.3300	0	33.4120	0	26.124	0	108.861	0	158.7	4	53.8	4	-1E+10	1	-1E+10	1	-1E+10	1	-1E+10	1	-1E+10	1	-1E+10	1
4902551	121	C	12/22/2023	03:06	-130.856	46.823	0	111.00	0	7.2800	0	33.4440	0	26.156	0	110.051	0	157.8	4	53.5	4	-1E+10	1	-1E+10	1	-1E+10	1	-1E+10	1	-1E+10	1	-1E+10	1
4902551	121	C	12/22/2023	03:06	-130.856	46.823	0	111.80	0	7.2420	0	33.4690	0	26.181	0	110.844	0	157.3	4	53.3	4	-1E+10	1	-1E+10	1	-1E+10	1	-1E+10	1	-1E+10	1	-1E+10	1
4902551	121	C	12/22/2023	03:06	-130.856	46.823	0	112.60	0	7.2250	0	33.4800	0	26.192	0	111.637	0	156.9	4	53.1	4	-1E+10	1	-1E+10	1	-1E+10	1	-1E+10	1	-1E+10	1	-1E+10	1
4902551	121	C	12/22/2023	03:06	-130.856	46.823	0	113.90	0	7.1870	0	33.5140	0	26.224	0	112.925	0	156.4	4	52.9	4	-1E+10	1	-1E+10	1	-1E+10	1	-1E+10	1	-1E+10	1	-1E+10	1
4902551	121	C	12/22/2023	03:06	-130.856	46.823	0	115.30	0	7.1780	0	33.5240	0	26.233	0	114.313	0	156.1	4	52.8	4	-1E+10	1	-1E+10	1	-1E+10	1	-1E+10	1	-1E+10	1	-1E+10	1
4902551	121	C	12/22/2023	03:06	-130.856	46.823	0	116.30	0	7.1710	0	33.5310	0	26.240	0	115.304	0	155.9	4	52.8	4	-1E+10	1	-1E+10	1	-1E+10	1	-1E+10	1	-1E+10	1	-1E+10	1
4902551	121	C	12/22/2023	03:06	-130.856	46.823	0	117.20	0	7.1700	0	33.5320	0	26.241	0	116.196	0	155.8	4	52.7	4	-1E+10	1	-1E+10	1	-1E+10	1	-1E+10	1	-1E+10	1	-1E+10	1
4902551	121	C	12/22/2023	03:06	-130.856	46.823	0	118.20	0	7.1710	0	33.5310	0	26.240	0	117.187	0	155.7	4	52.7	4	-1E+10	1	-1E+10	1	-1E+10	1	-1E+10	1	-1E+10	1	-1E+10	1
4902551	121	C	12/22/2023	03:06	-130.856	46.823	0	119.10	0	7.1700	0	33.5330	0	26.242	0	118.079	0	155.5	4	52.6	4	-1E+10	1	-1E+10	1	-1E+10	1	-1E+10	1	-1E+10	1	-1E+10	1
4902551	121	C	12/22/2023	03:06	-130.856	46.823	0	120.10	0	7.1700	0	33.5320	0	26.241	0	119.070	0	155.3	4	52.6	4	-1E+10	1	-1E+10	1	-1E+10	1	-1E+10	1	-1E+10	1	-1E+10	1
4902551	121	C	12/22/2023	03:06	-130.856	46.823	0	121.00	0	7.1690	0	33.5330	0	26.242	0	119.962	0	155.1	4	52.5	4	-1E+10	1	-1E+10	1	-1E+10	1	-1E+10	1	-1E+10	1	-1E+10	1
4902551	121	C	12/22/2023	03:06	-130.856	46.823	0	122.00	0	7.1710	0	33.5320	0	26.241	0	120.954	0	154.9	4	52.4	4	-1E+10	1	-1E+10	1	-1E+10	1	-1E+10	1	-1E+10	1	-1E+10	1
4902551	121	C	12/22/2023	03:06	-130.856	46.823	0	122.90	0	7.1690	0	33.5330	0	26.242	0	121.846	0	154.6	4	52.3	4	-1E+10	1	-1E+10	1	-1E+10	1	-1E+10	1	-1E+10	1	-1E+10	1
4902551	121	C	12/22/2023	03:06	-130.856	46.823	0	123.80	0	7.1640	0	33.5370	0	26.246	0	122.738	0	154.4	4	52.2	4	-1E+10	1	-1E+10	1	-1E+10	1	-1E+10	1	-1E+10	1	-1E+10	1
4902551	121	C	12/22/2023	03:06	-130.856	46.823	0	124.70	0	7.1630	0	33.5390	0	26.247	0	123.630	0	154.1	4	52.1	4	-1E+10	1	-1E+10	1	-1E+10	1	-1E+10	1	-1E+10	1	-1E+10	1
4902551	121	C	12/22/2023	03:06	-130.856	46.823	0	125.60	0	7.1620	0	33.5390	0	26.248	0	124.522	0	153.7	4	52.0	4	-1E+10	1	-1E+10	1	-1E+10	1	-1E+10	1	-1E+10	1	-1E+10	1
4902551	121	C	12/22/2023	03:06	-130.856	46.823	0	126.90	0	7.1620	0	33.5390	0	26.248	0	125.810	0	153.3	4	51.9	4	-1E+10	1	-1E+10	1	-1E+10	1	-1E+10	1	-1E+10	1	-1E+10	1
4902551	121	C	12/22/2023	03:06	-130.856	46.823	0	128.10	0	7.1620	0	33.5390	0	26.248	0	126.999	0	152.6	4	51.6	4	-1E+10	1	-1E+10	1	-1E+10	1	-1E+10	1	-1E+10	1	-1E+10	1
4902551	121	C	12/22/2023	03:06	-130.856	46.823	0	128.90	0	7.1620	0	33.5390	0	26.248	0	127.792	0	152.1	4	51.5	4	-1E+10	1	-1E+10	1	-1E+10	1	-1E+10	1	-1E+10	1	-1E+10	1
4902551	121	C	12/22/2023	03:06	-130.856	46.823	0	129.70	0	7.1590	0	33.5410	0	26.250	0	128.585	0	151.4	4	51.2	4	-1E+10	1	-1E+10	1	-1E+10	1	-1E+10	1	-1E+10	1	-1E+10	1
4902551	121	C	12/22/2023	03:06	-130.856	46.823	0	130.70	0	7.1540	0	33.5450	0	26.253	0	129.576	0	150.7	4	51.0	4	-1E+10	1	-1E+10	1	-1E+10	1	-1E+10	1	-1E+10	1	-1E+10	1
4902551	121	C	12/22/2023	03:06	-130.856	46.823	0	131.60	0	7.1520	0	33.5460	0	26.255	0	130.468	0	150.0	4	50.8	4	-1E+10	1	-1E+10	1	-1E+10	1	-1E+10	1	-1E+10	1	-1E+10	1
4902551	121	C	12/22/2023	03:06	-130.856	46.823	0	132.60	0	7.1380	0	33.5570	0	26.265	0	131.459	0	149.4	4	50.5	4	-1E+10	1	-1E+10	1	-1E+10	1	-1E+10	1	-1E+10	1	-1E+10	1
4902551	121	C	12/22/2023	03:06	-130.856	46.823	0	133.60	0	7.1340	0	33.5600	0	26.268	0	132.450	0	148.7	4	50.3	4	-1E+10	1	-1E+10	1	-1E+10	1	-1E+10	1	-1E+10	1	-1E+10	1
4902551	121	C	12/22/2023	03:06	-130.856	46.823	0	134.60	0	7.1270	0	33.5660	0	26.274	0	133.441	0	148.2	4	50.1	4	-1E+10	1	-1E+10	1	-1E+10	1	-1E+10	1	-1E+10	1	-1E+10	1
4902551	121	C	12/22/2023	03:06	-130.856	46.823	0	135.50	0	7.1160	0	33.5750	0	26.282	0	134.333	0	147.8	4	50.0	4	-1E+10	1	-1E+10	1	-1E+10	1	-1E+10	1	-1E+10	1	-1E+10	1
4902551	121	C	12/22/2023	03:06	-130.856	46.823	0	136.90	0	7.1030	0	33.5860	0	26.293	0	135.721	0	147.1	4	49.7	4	-1E+10	1	-1E+10	1	-1E+10	1	-1E+10	1	-1E+10	1	-1E+10	1
4902551	121	C	12/22/2023	03:06	-130.856	46.823	0	138.40	0	7.0790	0	33.6110	0	26.316	0	137.207	0	146.7	4	49.6	4	-1E+10	1	-1E+10	1	-1E+10	1	-1E+10	1	-1E+10	1	-1E+10	1
4902551	121	C	12/22/2023	03:06	-130.856	46.823	0	139.30	0	7.0790	0	33.6120	0	26.317	0	138.099	0	146.4	4	49.5	4	-1E+10	1	-1E+10	1	-1E+10	1	-1E+10	1	-1E+10	1	-1E+10	1
4902551	121	C	12/22/2023	03:06	-130.856	46.823	0	140.30	0	7.0790	0	33.6100	0	26.315	0	139.090	0	146.1	4	49.4	4	-1E+10	1	-1E+10	1	-1E+10	1	-1E+10	1	-1E+10	1	-1E+10	1
4902551	121	C	12/22/2023	03:06	-130.856	46.823	0	141.30	0	7.0790	0	33.6140	0	26.318	0	140.081	0	145.6	4	49.2	4	-1E+10	1	-1E+10	1	-1E+10	1	-1E+10	1	-1E+10	1	-1E+10	1
4902551	121	C	12/22/2023	03:06	-130.856	46.823	0	142.30	0	7.0770	0	33.6220	0	26.325	0	141.073	0	145.2	4	49.1	4	-1E+10	1	-1E+10	1	-1E+10	1	-1E+10	1	-1E+10	1	-1E+10	1
4902551	121	C	12/22/2023	03:06	-130.856	46.823	0	143.30	0	7.0780	0	33.6250	0	26.327	0	142.064	0	144.7	4	48.9	4	-1E+10	1	-1E+10	1	-1E+10	1	-1E+10	1	-1E+10	1	-1E+10	1
4902551	121	C	12/22/2023	03:06	-130.856	46.823	0	144.20	0	7.0770	0	33.6270	0	26.329	0	142.955	0	144.1	4	48.7	4	-1E+10	1	-1E+10	1	-1E+10	1	-1E+10	1	-1E+10	1	-1E+10	1
4902551	121	C	12/22/2023	03:06	-130.856	46.823	0	145.20	0	7.0780	0	33.6270	0	26.329	0	143.946	0	143.4	4	48.5	4	-1E+10	1	-1E+10	1	-1E+10	1	-1E+10	1	-1E+10	1	-1E+10	1
4902551	121	C	12/22/2023	03:06	-130.856	46.823	0	146.30	0	7.0770	0	33.6270	0	26.329	0	145.037	0	142.7	4	48.2	4	-1E+10	1	-1E+10	1	-1E+10	1	-1E+10	1	-1E+10	1	-1E+10	1
4902551	121	C	12/22/2023	03:06	-130.856	46.823	0	147.40	0	7.0450	0	33.6540	0	26.354	0	146.127	0	142.0	4	48.0	4	-1E+10	1	-1E+10	1	-1E+10	1	-1E+10	1	-1E+10	1	-1E+10	1
4902551	121	C	12/22/2023	03:06	-130.856	46.823	0	148.60	0	7.0420	0	33.6640	0	26.363	0	147.316	0	141.6	4	47.8	4	-1E+10	1	-1E+10	1	-1E+10	1	-1E+10	1	-1E+10	1	-1E+10	1
4902551	121	C	12/22/2023	03:06	-130.856	46.823	0	149.70	0	7.0360	0	33.6720	0	26.370	0	148.406	0	141.2	4	47.7	4	-1E+10	1	-1E+10	1	-1E+10	1	-1E+10	1	-1E+10	1	-1E+10	1
4902551	121	C	12/22/2023	03:06	-130.856	46.823	0	150.80	0	7.0350	0	33.6730	0	26.371	0	149.496	0	140.7	4	47.5	4	-1E+10	1	-1E+10	1	-1E+10	1	-1E+10	1	-1E+10	1	-1E+10	1
4902551	121	C	12/22/2023	03:06	-130.856	46.823	0	152.00	0	7.0330	0	33.6740	0	26.372	0	150.685	0	140.3	4	47.4	4	-1E+10	1	-1E+10	1	-1E+10	1	-1E+10	1	-1E+10	1	-1E+10	1
4902551	121	C	12/22/2023	03:06	-130.856	46.823	0	153.20	0	7.0210	0	33.6850	0	26.382	0	151.874	0	139.9	4	47.2	4	-1E+10	1	-1E+10	1	-1E+10	1	-1E+10	1	-1E+10	1	-1E+10	1
4902551	121	C	12/22/2023	03:06	-130.856	46.823	0	154.40	0	7.0170	0	33.6840	0	26.382	0	153.064	0	139.5	4	47.1	4	-1E+10	1	-1E+10	1	-1E+10	1	-1E+10	1	-1E+10	1	-1E+10	1
4902551	121	C	12/22/2023	03:06	-130.856	46.823	0	155.60	0	7.0150	0	33.6860	0	26.384	0	154.253	0	139.1	4	47.0	4	-1E+10	1	-1E+10	1	-1E+10	1	-1E+10	1	-1E+10	1	-1E+10	1
4902551	121	C	12/22/2023	03:06	-130.856	46.823	0	156.80	0	7.0140	0	33.6870	0	26.385	0	155.442	0	138.7	4	46.8	4	-1E+10	1	-1E+10	1	-1E+10	1	-1E+10	1	-1E+10	1	-1E+10	1
4902551	121	C	12/22/2023	03:06	-130.856	46.823	0	158.00	0	7.0030	0	33.6850	0	26.385	0	156.631	0	138.3	4	46.7	4	-1E+10	1	-1E+10	1	-1E+10	1	-1E+10	1	-1E+10	1	-1E+10	1
4902551	121	C	12/22/2023	03:06	-130.856	46.823	0	159.20	0	6.9980	0	33.6850	0	26.385	0	157.820	0	137.7	4	46.5	4	-1E+10	1	-1E+10	1	-1E+10	1	-1E+10	1	-1E+10	1	-1E+10	1
4902551	121	C	12/22/2023	03:06	-130.856	46.823	0	160.40	0	6.9860	0	33.6880	0	26.389	0	159.009	0	137.2	4	46.3	4	-1E+10	1	-1E+10	1	-1E+10	1	-1E+10	1	-1E+10	1	-1E+10	1
4902551	121	C	12/22/2023	03:06	-130.856	46.823	0	161.60	0	6.9620	0	33.6910	0	26.395	0	160.199	0	136.7	4	46.1	4	-1E+10	1	-1E+10	1	-1E+10	1	-1E+10	1	-1E+10	1	-1E+10	1
4902551	121	C	12/22/2023	03:06	-130.856	46.823	0	162.70	0	6.9610	0	33.6910	0	26.395	0	161.289	0	136.3	4	46.0	4	-1E+10	1	-1E+10	1	-1E+10	1	-1E+10	1	-1E+10	1	-1E+10	1
4902551	121	C	12/22/2023	03:06	-130.856	46.823	0	163.90	0	6.9590	0	33.6900	0	26.395	0	162.478	0	135.8	4	45.8	4	-1E+10	1	-1E+10	1	-1E+10	1	-1E+10	1	-1E+10	1	-1E+10	1
4902551	121	C	12/22/2023	03:06	-130.856	46.823	0	165.00	0	6.9500	0	33.6920	0	26.397	0	163.568	0	135.3	4	45.6	4	-1E+10	1	-1E+10	1	-1E+10	1	-1E+10	1	-1E+10	1	-1E+10	1
4902551	121	C	12/22/2023	03:06	-130.856	46.823	0	166.10	0	6.9400	0	33.6920	0	26.399	0	164.658	0	134.9	4	45.5	4	-1E+10	1	-1E+10	1	-1E+10	1	-1E+10	1	-1E+10	1	-1E+10	1
4902551	121	C	12/22/2023	03:06	-130.856	46.823	0	167.20	0	6.9390	0	33.6940	0	26.401	0	165.748	0	134.3	4	45.3	4	-1E+10	1	-1E+10	1	-1E+10	1	-1E+10	1	-1E+10	1	-1E+10	1
4902551	121	C	12/22/2023	03:06	-130.856	46.823	0	168.40	0	6.9340	0	33.6960	0	26.403	0	166.937	0	133.8	4	45.1	4	-1E+10	1	-1E+10	1	-1E+10	1	-1E+10	1	-1E+10	1	-1E+10	1
4902551	121	C	12/22/2023	03:06	-130.856	46.823	0	169.50	0	6.9210	0	33.6980	0	26.406	0	168.027	0	133.2	4	44.9	4	-1E+10	1	-1E+10	1	-1E+10	1	-1E+10	1	-1E+10	1	-1E+10	1
4902551	121	C	12/22/2023	03:06	-130.856	46.823	0	170.70	0	6.9140	0	33.7010	0	26.410	0	169.216	0	132.6	4	44.7	4	-1E+10	1	-1E+10	1	-1E+10	1	-1E+10	1	-1E+10	1	-1E+10	1
4902551	121	C	12/22/2023	03:06	-130.856	46.823	0	171.70	0	6.9100	0	33.7010	0	26.410	0	170.207	0	131.9	4	44.4	4	-1E+10	1	-1E+10	1	-1E+10	1	-1E+10	1	-1E+10	1	-1E+10	1
4902551	121	C	12/22/2023	03:06	-130.856	46.823	0	172.80	0	6.9110	0	33.7010	0	26.410	0	171.297	0	131.2	4	44.2	4	-1E+10	1	-1E+10	1	-1E+10	1	-1E+10	1	-1E+10	1	-1E+10	1
4902551	121	C	12/22/2023	03:06	-130.856	46.823	0	173.90	0	6.9080	0	33.7010	0	26.410	0	172.387	0	130.4	4	43.9	4	-1E+10	1	-1E+10	1	-1E+10	1	-1E+10	1	-1E+10	1	-1E+10	1
4902551	121	C	12/22/2023	03:06	-130.856	46.823	0	174.90	0	6.9020	0	33.7020	0	26.412	0	173.378	0	129.5	4	43.6	4	-1E+10	1	-1E+10	1	-1E+10	1	-1E+10	1	-1E+10	1	-1E+10	1
4902551	121	C	12/22/2023	03:06	-130.856	46.823	0	175.90	0	6.8490	0	33.7290	0	26.440	0	174.369	0	128.9	4	43.4	4	-1E+10	1	-1E+10	1	-1E+10	1	-1E+10	1	-1E+10	1	-1E+10	1
4902551	121	C	12/22/2023	03:06	-130.856	46.823	0	176.90	0	6.8250	0	33.7430	0	26.455	0	175.359	0	128.6	4	43.3	4	-1E+10	1	-1E+10	1	-1E+10	1	-1E+10	1	-1E+10	1	-1E+10	1
4902551	121	C	12/22/2023	03:06	-130.856	46.823	0	178.00	0	6.8220	0	33.7470	0	26.458	0	176.449	0	128.1	4	43.1	4	-1E+10	1	-1E+10	1	-1E+10	1	-1E+10	1	-1E+10	1	-1E+10	1
4902551	121	C	12/22/2023	03:06	-130.856	46.823	0	178.80	0	6.8220	0	33.7470	0	26.458	0	177.242	0	127.8	4	43.0	4	-1E+10	1	-1E+10	1	-1E+10	1	-1E+10	1	-1E+10	1	-1E+10	1
4902551	121	C	12/22/2023	03:06	-130.856	46.823	0	179.90	0	6.8180	0	33.7490	0	26.460	0	178.332	0	127.2	4	42.8	4	-1E+10	1	-1E+10	1	-1E+10	1	-1E+10	1	-1E+10	1	-1E+10	1
4902551	121	C	12/22/2023	03:06	-130.856	46.823	0	181.10	0	6.8120	0	33.7550	0	26.466	0	179.521	0	126.6	4	42.6	4	-1E+10	1	-1E+10	1	-1E+10	1	-1E+10	1	-1E+10	1	-1E+10	1
4902551	121	C	12/22/2023	03:06	-130.856	46.823	0	181.90	0	6.8080	0	33.7590	0	26.470	0	180.314	0	126.1	4	42.4	4	-1E+10	1	-1E+10	1	-1E+10	1	-1E+10	1	-1E+10	1	-1E+10	1
4902551	121	C	12/22/2023	03:06	-130.856	46.823	0	183.00	0	6.8010	0	33.7650	0	26.475	0	181.404	0	125.6	4	42.2	4	-1E+10	1	-1E+10	1	-1E+10	1	-1E+10	1	-1E+10	1	-1E+10	1
4902551	121	C	12/22/2023	03:06	-130.856	46.823	0	184.10	0	6.8030	0	33.7640	0	26.474	0	182.494	0	124.8	4	41.9	4	-1E+10	1	-1E+10	1	-1E+10	1	-1E+10	1	-1E+10	1	-1E+10	1
4902551	121	C	12/22/2023	03:06	-130.856	46.823	0	184.80	0	6.8000	0	33.7660	0	26.476	0	183.187	0	124.1	4	41.7	4	-1E+10	1	-1E+10	1	-1E+10	1	-1E+10	1	-1E+10	1	-1E+10	1
4902551	121	C	12/22/2023	03:06	-130.856	46.823	0	185.90	0	6.7880	0	33.7700	0	26.481	0	184.277	0	123.2	4	41.4	4	-1E+10	1	-1E+10	1	-1E+10	1	-1E+10	1	-1E+10	1	-1E+10	1
4902551	121	C	12/22/2023	03:06	-130.856	46.823	0	187.10	0	6.7700	0	33.7760	0	26.488	0	185.466	0	122.1	4	41.0	4	-1E+10	1	-1E+10	1	-1E+10	1	-1E+10	1	-1E+10	1	-1E+10	1
4902551	121	C	12/22/2023	03:06	-130.856	46.823	0	187.80	0	6.7680	0	33.7770	0	26.489	0	186.160	0	121.3	4	40.8	4	-1E+10	1	-1E+10	1	-1E+10	1	-1E+10	1	-1E+10	1	-1E+10	1
4902551	121	C	12/22/2023	03:06	-130.856	46.823	0	188.90	0	6.7550	0	33.7810	0	26.494	0	187.249	0	120.0	4	40.3	4	-1E+10	1	-1E+10	1	-1E+10	1	-1E+10	1	-1E+10	1	-1E+10	1
4902551	121	C	12/22/2023	03:06	-130.856	46.823	0	190.10	0	6.7260	0	33.7890	0	26.504	0	188.438	0	118.6	4	39.8	4	-1E+10	1	-1E+10	1	-1E+10	1	-1E+10	1	-1E+10	1	-1E+10	1
4902551	121	C	12/22/2023	03:06	-130.856	46.823	0	190.90	0	6.7150	0	33.7920	0	26.508	0	189.231	0	117.7	4	39.5	4	-1E+10	1	-1E+10	1	-1E+10	1	-1E+10	1	-1E+10	1	-1E+10	1
4902551	121	C	12/22/2023	03:06	-130.856	46.823	0	191.70	0	6.6520	0	33.8040	0	26.526	0	190.024	0	116.8	4	39.1	4	-1E+10	1	-1E+10	1	-1E+10	1	-1E+10	1	-1E+10	1	-1E+10	1
4902551	121	C	12/22/2023	03:06	-130.856	46.823	0	193.00	0	6.5570	0	33.8150	0	26.547	0	191.312	0	116.3	4	38.9	4	-1E+10	1	-1E+10	1	-1E+10	1	-1E+10	1	-1E+10	1	-1E+10	1
4902551	121	C	12/22/2023	03:06	-130.856	46.823	0	194.30	0	6.5270	0	33.8130	0	26.550	0	192.600	0	116.0	4	38.8	4	-1E+10	1	-1E+10	1	-1E+10	1	-1E+10	1	-1E+10	1	-1E+10	1
4902551	121	C	12/22/2023	03:06	-130.856	46.823	0	195.10	0	6.5200	0	33.8170	0	26.554	0	193.392	0	115.8	4	38.7	4	-1E+10	1	-1E+10	1	-1E+10	1	-1E+10	1	-1E+10	1	-1E+10	1
4902551	121	C	12/22/2023	03:06	-130.856	46.823	0	196.00	0	6.5150	0	33.8160	0	26.553	0	194.284	0	115.6	4	38.6	4	-1E+10	1	-1E+10	1	-1E+10	1	-1E+10	1	-1E+10	1	-1E+10	1
4902551	121	C	12/22/2023	03:06	-130.856	46.823	0	196.90	0	6.4840	0	33.8250	0	26.565	0	195.176	0	115.5	4	38.6	4	-1E+10	1	-1E+10	1	-1E+10	1	-1E+10	1	-1E+10	1	-1E+10	1
4902551	121	C	12/22/2023	03:06	-130.856	46.823	0	197.80	0	6.4700	0	33.8270	0	26.568	0	196.067	0	115.5	4	38.6	4	-1E+10	1	-1E+10	1	-1E+10	1	-1E+10	1	-1E+10	1	-1E+10	1
4902551	121	C	12/22/2023	03:06	-130.856	46.823	0	198.70	0	6.4650	0	33.8280	0	26.570	0	196.959	0	115.5	4	38.5	4	-1E+10	1	-1E+10	1	-1E+10	1	-1E+10	1	-1E+10	1	-1E+10	1
4902551	121	C	12/22/2023	03:06	-130.856	46.823	0	199.70	0	6.4610	0	33.8300	0	26.572	0	197.950	0	115.5	4	38.5	4	-1E+10	1	-1E+10	1	-1E+10	1	-1E+10	1	-1E+10	1	-1E+10	1
4902551	121	C	12/22/2023	03:06	-130.856	46.823	0	200.60	0	6.4610	0	33.8290	0	26.571	0	198.842	0	115.4	4	38.5	4	-1E+10	1	-1E+10	1	-1E+10	1	-1E+10	1	-1E+10	1	-1E+10	1
4902551	121	C	12/22/2023	03:06	-130.856	46.823	0	201.60	0	6.4560	0	33.8310	0	26.573	0	199.832	0	115.4	4	38.5	4	-1E+10	1	-1E+10	1	-1E+10	1	-1E+10	1	-1E+10	1	-1E+10	1
4902551	121	C	12/22/2023	03:06	-130.856	46.823	0	202.60	0	6.4560	0	33.8310	0	26.573	0	200.823	0	115.4	4	38.5	4	-1E+10	1	-1E+10	1	-1E+10	1	-1E+10	1	-1E+10	1	-1E+10	1
4902551	121	C	12/22/2023	03:06	-130.856	46.823	0	203.60	0	6.4550	0	33.8290	0	26.572	0	201.814	0	115.4	4	38.5	4	-1E+10	1	-1E+10	1	-1E+10	1	-1E+10	1	-1E+10	1	-1E+10	1
4902551	121	C	12/22/2023	03:06	-130.856	46.823	0	204.50	0	6.4480	0	33.8310	0	26.574	0	202.705	0	115.3	4	38.5	4	-1E+10	1	-1E+10	1	-1E+10	1	-1E+10	1	-1E+10	1	-1E+10	1
4902551	121	C	12/22/2023	03:06	-130.856	46.823	0	205.90	0	6.4500	0	33.8300	0	26.573	0	204.093	0	115.3	4	38.5	4	-1E+10	1	-1E+10	1	-1E+10	1	-1E+10	1	-1E+10	1	-1E+10	1
4902551	121	C	12/22/2023	03:06	-130.856	46.823	0	207.30	0	6.4500	0	33.8310	0	26.574	0	205.480	0	115.2	4	38.4	4	-1E+10	1	-1E+10	1	-1E+10	1	-1E+10	1	-1E+10	1	-1E+10	1
4902551	121	C	12/22/2023	03:06	-130.856	46.823	0	208.20	0	6.4490	0	33.8310	0	26.574	0	206.371	0	115.1	4	38.4	4	-1E+10	1	-1E+10	1	-1E+10	1	-1E+10	1	-1E+10	1	-1E+10	1
4902551	121	C	12/22/2023	03:06	-130.856	46.823	0	209.10	0	6.4490	0	33.8310	0	26.574	0	207.263	0	115.0	4	38.4	4	-1E+10	1	-1E+10	1	-1E+10	1	-1E+10	1	-1E+10	1	-1E+10	1
4902551	121	C	12/22/2023	03:06	-130.856	46.823	0	210.00	0	6.4460	0	33.8310	0	26.574	0	208.154	0	115.0	4	38.4	4	-1E+10	1	-1E+10	1	-1E+10	1	-1E+10	1	-1E+10	1	-1E+10	1
4902551	121	C	12/22/2023	03:06	-130.856	46.823	0	210.80	0	6.4420	0	33.8320	0	26.576	0	208.947	0	114.9	4	38.3	4	-1E+10	1	-1E+10	1	-1E+10	1	-1E+10	1	-1E+10	1	-1E+10	1
4902551	121	C	12/22/2023	03:06	-130.856	46.823	0	211.70	0	6.4390	0	33.8320	0	26.576	0	209.839	0	114.9	4	38.3	4	-1E+10	1	-1E+10	1	-1E+10	1	-1E+10	1	-1E+10	1	-1E+10	1
4902551	121	C	12/22/2023	03:06	-130.856	46.823	0	212.60	0	6.4400	0	33.8320	0	26.576	0	210.730	0	114.6	4	38.2	4	-1E+10	1	-1E+10	1	-1E+10	1	-1E+10	1	-1E+10	1	-1E+10	1
4902551	121	C	12/22/2023	03:06	-130.856	46.823	0	213.90	0	6.4390	0	33.8310	0	26.575	0	212.018	0	114.3	4	38.1	4	-1E+10	1	-1E+10	1	-1E+10	1	-1E+10	1	-1E+10	1	-1E+10	1
4902551	121	C	12/22/2023	03:06	-130.856	46.823	0	215.30	0	6.4380	0	33.8310	0	26.576	0	213.405	0	113.9	4	38.0	4	-1E+10	1	-1E+10	1	-1E+10	1	-1E+10	1	-1E+10	1	-1E+10	1
4902551	121	C	12/22/2023	03:06	-130.856	46.823	0	216.20	0	6.4290	0	33.8310	0	26.577	0	214.297	0	113.6	4	37.9	4	-1E+10	1	-1E+10	1	-1E+10	1	-1E+10	1	-1E+10	1	-1E+10	1
4902551	121	C	12/22/2023	03:06	-130.856	46.823	0	217.00	0	6.4120	0	33.8350	0	26.582	0	215.089	0	113.4	4	37.8	4	-1E+10	1	-1E+10	1	-1E+10	1	-1E+10	1	-1E+10	1	-1E+10	1
4902551	121	C	12/22/2023	03:06	-130.856	46.823	0	218.00	0	6.3660	0	33.8370	0	26.590	0	216.080	0	113.3	4	37.7	4	-1E+10	1	-1E+10	1	-1E+10	1	-1E+10	1	-1E+10	1	-1E+10	1
4902551	121	C	12/22/2023	03:06	-130.856	46.823	0	218.90	0	6.3570	0	33.8390	0	26.592	0	216.972	0	113.1	4	37.6	4	-1E+10	1	-1E+10	1	-1E+10	1	-1E+10	1	-1E+10	1	-1E+10	1
4902551	121	C	12/22/2023	03:06	-130.856	46.823	0	219.70	0	6.3500	0	33.8400	0	26.594	0	217.764	0	112.9	4	37.6	4	-1E+10	1	-1E+10	1	-1E+10	1	-1E+10	1	-1E+10	1	-1E+10	1
4902551	121	C	12/22/2023	03:06	-130.856	46.823	0	220.60	0	6.3400	0	33.8410	0	26.596	0	218.656	0	112.6	4	37.5	4	-1E+10	1	-1E+10	1	-1E+10	1	-1E+10	1	-1E+10	1	-1E+10	1
4902551	121	C	12/22/2023	03:06	-130.856	46.823	0	221.90	0	6.3180	0	33.8380	0	26.597	0	219.944	0	111.9	4	37.2	4	-1E+10	1	-1E+10	1	-1E+10	1	-1E+10	1	-1E+10	1	-1E+10	1
4902551	121	C	12/22/2023	03:06	-130.856	46.823	0	223.30	0	6.3190	0	33.8400	0	26.598	0	221.330	0	111.0	4	36.9	4	-1E+10	1	-1E+10	1	-1E+10	1	-1E+10	1	-1E+10	1	-1E+10	1
4902551	121	C	12/22/2023	03:06	-130.856	46.823	0	224.10	0	6.3120	0	33.8410	0	26.600	0	222.123	0	110.5	4	36.7	4	-1E+10	1	-1E+10	1	-1E+10	1	-1E+10	1	-1E+10	1	-1E+10	1
4902551	121	C	12/22/2023	03:06	-130.856	46.823	0	224.90	0	6.2970	0	33.8440	0	26.604	0	222.915	0	109.7	4	36.5	4	-1E+10	1	-1E+10	1	-1E+10	1	-1E+10	1	-1E+10	1	-1E+10	1
4902551	121	C	12/22/2023	03:06	-130.856	46.823	0	225.80	0	6.2710	0	33.8380	0	26.603	0	223.807	0	108.9	4	36.2	4	-1E+10	1	-1E+10	1	-1E+10	1	-1E+10	1	-1E+10	1	-1E+10	1
4902551	121	C	12/22/2023	03:06	-130.856	46.823	0	226.60	0	6.2150	0	33.8430	0	26.614	0	224.600	0	107.8	4	35.8	4	-1E+10	1	-1E+10	1	-1E+10	1	-1E+10	1	-1E+10	1	-1E+10	1
4902551	121	C	12/22/2023	03:06	-130.856	46.823	0	227.90	0	6.1740	0	33.8440	0	26.620	0	225.887	0	106.3	4	35.2	4	-1E+10	1	-1E+10	1	-1E+10	1	-1E+10	1	-1E+10	1	-1E+10	1
4902551	121	C	12/22/2023	03:06	-130.856	46.823	0	229.30	0	6.1910	0	33.8490	0	26.622	0	227.274	0	104.7	4	34.7	4	-1E+10	1	-1E+10	1	-1E+10	1	-1E+10	1	-1E+10	1	-1E+10	1
4902551	121	C	12/22/2023	03:06	-130.856	46.823	0	230.20	0	6.1840	0	33.8630	0	26.634	0	228.166	0	104.2	4	34.6	4	-1E+10	1	-1E+10	1	-1E+10	1	-1E+10	1	-1E+10	1	-1E+10	1
4902551	121	C	12/22/2023	03:06	-130.856	46.823	0	231.20	0	6.1710	0	33.8570	0	26.631	0	229.156	0	103.8	4	34.4	4	-1E+10	1	-1E+10	1	-1E+10	1	-1E+10	1	-1E+10	1	-1E+10	1
4902551	121	C	12/22/2023	03:06	-130.856	46.823	0	232.10	0	6.1760	0	33.8720	0	26.642	0	230.048	0	103.6	4	34.4	4	-1E+10	1	-1E+10	1	-1E+10	1	-1E+10	1	-1E+10	1	-1E+10	1
4902551	121	C	12/22/2023	03:06	-130.856	46.823	0	233.10	0	6.1750	0	33.8730	0	26.643	0	231.039	0	103.5	4	34.3	4	-1E+10	1	-1E+10	1	-1E+10	1	-1E+10	1	-1E+10	1	-1E+10	1
4902551	121	C	12/22/2023	03:06	-130.856	46.823	0	234.10	0	6.1760	0	33.8710	0	26.641	0	232.029	0	103.3	4	34.3	4	-1E+10	1	-1E+10	1	-1E+10	1	-1E+10	1	-1E+10	1	-1E+10	1
4902551	121	C	12/22/2023	03:06	-130.856	46.823	0	235.00	0	6.1770	0	33.8710	0	26.641	0	232.921	0	103.1	4	34.2	4	-1E+10	1	-1E+10	1	-1E+10	1	-1E+10	1	-1E+10	1	-1E+10	1
4902551	121	C	12/22/2023	03:06	-130.856	46.823	0	236.00	0	6.1770	0	33.8710	0	26.641	0	233.911	0	102.9	4	34.1	4	-1E+10	1	-1E+10	1	-1E+10	1	-1E+10	1	-1E+10	1	-1E+10	1
4902551	121	C	12/22/2023	03:06	-130.856	46.823	0	236.90	0	6.1760	0	33.8710	0	26.641	0	234.803	0	102.6	4	34.0	4	-1E+10	1	-1E+10	1	-1E+10	1	-1E+10	1	-1E+10	1	-1E+10	1
4902551	121	C	12/22/2023	03:06	-130.856	46.823	0	237.80	0	6.1740	0	33.8720	0	26.642	0	235.694	0	102.3	4	33.9	4	-1E+10	1	-1E+10	1	-1E+10	1	-1E+10	1	-1E+10	1	-1E+10	1
4902551	121	C	12/22/2023	03:06	-130.856	46.823	0	238.80	0	6.1740	0	33.8720	0	26.642	0	236.685	0	102.0	4	33.8	4	-1E+10	1	-1E+10	1	-1E+10	1	-1E+10	1	-1E+10	1	-1E+10	1
4902551	121	C	12/22/2023	03:06	-130.856	46.823	0	239.70	0	6.1630	0	33.8730	0	26.644	0	237.576	0	101.7	4	33.7	4	-1E+10	1	-1E+10	1	-1E+10	1	-1E+10	1	-1E+10	1	-1E+10	1
4902551	121	C	12/22/2023	03:06	-130.856	46.823	0	240.70	0	6.1640	0	33.8730	0	26.644	0	238.567	0	101.3	4	33.6	4	-1E+10	1	-1E+10	1	-1E+10	1	-1E+10	1	-1E+10	1	-1E+10	1
4902551	121	C	12/22/2023	03:06	-130.856	46.823	0	241.50	0	6.1630	0	33.8730	0	26.644	0	239.359	0	101.0	4	33.5	4	-1E+10	1	-1E+10	1	-1E+10	1	-1E+10	1	-1E+10	1	-1E+10	1
4902551	121	C	12/22/2023	03:06	-130.856	46.823	0	242.90	0	6.1530	0	33.8740	0	26.646	0	240.746	0	100.4	4	33.3	4	-1E+10	1	-1E+10	1	-1E+10	1	-1E+10	1	-1E+10	1	-1E+10	1
4902551	121	C	12/22/2023	03:06	-130.856	46.823	0	244.40	0	6.1450	0	33.8730	0	26.647	0	242.232	0	99.8	4	33.1	4	-1E+10	1	-1E+10	1	-1E+10	1	-1E+10	1	-1E+10	1	-1E+10	1
4902551	121	C	12/22/2023	03:06	-130.856	46.823	0	245.30	0	6.1410	0	33.8720	0	26.646	0	243.123	0	99.3	4	32.9	4	-1E+10	1	-1E+10	1	-1E+10	1	-1E+10	1	-1E+10	1	-1E+10	1
4902551	121	C	12/22/2023	03:06	-130.856	46.823	0	246.20	0	6.1310	0	33.8740	0	26.649	0	244.015	0	98.8	4	32.7	4	-1E+10	1	-1E+10	1	-1E+10	1	-1E+10	1	-1E+10	1	-1E+10	1
4902551	121	C	12/22/2023	03:06	-130.856	46.823	0	247.10	0	6.1180	0	33.8740	0	26.651	0	244.906	0	98.4	4	32.6	4	-1E+10	1	-1E+10	1	-1E+10	1	-1E+10	1	-1E+10	1	-1E+10	1
4902551	121	C	12/22/2023	03:06	-130.856	46.823	0	248.10	0	6.0640	0	33.8790	0	26.662	0	245.897	0	98.2	4	32.5	4	-1E+10	1	-1E+10	1	-1E+10	1	-1E+10	1	-1E+10	1	-1E+10	1
4902551	121	C	12/22/2023	03:06	-130.856	46.823	0	249.10	0	5.9890	0	33.8780	0	26.670	0	246.888	0	98.0	4	32.4	4	-1E+10	1	-1E+10	1	-1E+10	1	-1E+10	1	-1E+10	1	-1E+10	1
4902551	121	C	12/22/2023	03:06	-130.856	46.823	0	250.00	0	5.9680	0	33.8780	0	26.673	0	247.779	0	97.7	4	32.2	4	-1E+10	1	-1E+10	1	-1E+10	1	-1E+10	1	-1E+10	1	-1E+10	1
4902551	121	C	12/22/2023	03:06	-130.856	46.823	0	251.00	0	5.9590	0	33.8790	0	26.675	0	248.769	0	97.4	4	32.1	4	-1E+10	1	-1E+10	1	-1E+10	1	-1E+10	1	-1E+10	1	-1E+10	1
4902551	121	C	12/22/2023	03:06	-130.856	46.823	0	251.90	0	5.9510	0	33.8780	0	26.675	0	249.661	0	97.0	4	32.0	4	-1E+10	1	-1E+10	1	-1E+10	1	-1E+10	1	-1E+10	1	-1E+10	1
4902551	121	C	12/22/2023	03:06	-130.856	46.823	0	252.90	0	5.9480	0	33.8760	0	26.674	0	250.651	0	96.6	4	31.9	4	-1E+10	1	-1E+10	1	-1E+10	1	-1E+10	1	-1E+10	1	-1E+10	1
4902551	121	C	12/22/2023	03:06	-130.856	46.823	0	253.90	0	5.9460	0	33.8770	0	26.675	0	251.642	0	96.1	4	31.7	4	-1E+10	1	-1E+10	1	-1E+10	1	-1E+10	1	-1E+10	1	-1E+10	1
4902551	121	C	12/22/2023	03:06	-130.856	46.823	0	254.90	0	5.9430	0	33.8770	0	26.675	0	252.632	0	95.5	4	31.5	4	-1E+10	1	-1E+10	1	-1E+10	1	-1E+10	1	-1E+10	1	-1E+10	1
4902551	121	C	12/22/2023	03:06	-130.856	46.823	0	255.90	0	5.9380	0	33.8760	0	26.675	0	253.623	0	94.9	4	31.3	4	-1E+10	1	-1E+10	1	-1E+10	1	-1E+10	1	-1E+10	1	-1E+10	1
4902551	121	C	12/22/2023	03:06	-130.856	46.823	0	256.90	0	5.9310	0	33.8760	0	26.676	0	254.613	0	94.1	4	31.0	4	-1E+10	1	-1E+10	1	-1E+10	1	-1E+10	1	-1E+10	1	-1E+10	1
4902551	121	C	12/22/2023	03:06	-130.856	46.823	0	257.90	0	5.9130	0	33.8760	0	26.678	0	255.604	0	93.3	4	30.8	4	-1E+10	1	-1E+10	1	-1E+10	1	-1E+10	1	-1E+10	1	-1E+10	1
4902551	121	C	12/22/2023	03:06	-130.856	46.823	0	258.90	0	5.9170	0	33.8750	0	26.677	0	256.594	0	92.4	4	30.5	4	-1E+10	1	-1E+10	1	-1E+10	1	-1E+10	1	-1E+10	1	-1E+10	1
4902551	121	C	12/22/2023	03:06	-130.856	46.823	0	259.90	0	5.9020	0	33.8840	0	26.686	0	257.585	0	91.7	4	30.2	4	-1E+10	1	-1E+10	1	-1E+10	1	-1E+10	1	-1E+10	1	-1E+10	1
4902551	121	C	12/22/2023	03:06	-130.856	46.823	0	260.90	0	5.8560	0	33.8950	0	26.700	0	258.575	0	91.1	4	30.0	4	-1E+10	1	-1E+10	1	-1E+10	1	-1E+10	1	-1E+10	1	-1E+10	1
4902551	121	C	12/22/2023	03:06	-130.856	46.823	0	262.00	0	5.8350	0	33.8880	0	26.697	0	259.665	0	90.6	4	29.8	4	-1E+10	1	-1E+10	1	-1E+10	1	-1E+10	1	-1E+10	1	-1E+10	1
4902551	121	C	12/22/2023	03:06	-130.856	46.823	0	263.00	0	5.8310	0	33.8900	0	26.699	0	260.655	0	90.0	4	29.6	4	-1E+10	1	-1E+10	1	-1E+10	1	-1E+10	1	-1E+10	1	-1E+10	1
4902551	121	C	12/22/2023	03:06	-130.856	46.823	0	264.00	0	5.8260	0	33.8880	0	26.698	0	261.646	0	89.4	4	29.4	4	-1E+10	1	-1E+10	1	-1E+10	1	-1E+10	1	-1E+10	1	-1E+10	1
4902551	121	C	12/22/2023	03:06	-130.856	46.823	0	265.10	0	5.8230	0	33.8850	0	26.697	0	262.735	0	88.8	4	29.2	4	-1E+10	1	-1E+10	1	-1E+10	1	-1E+10	1	-1E+10	1	-1E+10	1
4902551	121	C	12/22/2023	03:06	-130.856	46.823	0	266.10	0	5.8030	0	33.8960	0	26.708	0	263.726	0	88.2	4	29.0	4	-1E+10	1	-1E+10	1	-1E+10	1	-1E+10	1	-1E+10	1	-1E+10	1
4902551	121	C	12/22/2023	03:06	-130.856	46.823	0	267.10	0	5.7840	0	33.8860	0	26.702	0	264.716	0	87.6	4	28.8	4	-1E+10	1	-1E+10	1	-1E+10	1	-1E+10	1	-1E+10	1	-1E+10	1
4902551	121	C	12/22/2023	03:06	-130.856	46.823	0	268.20	0	5.7870	0	33.8960	0	26.710	0	265.806	0	87.0	4	28.6	4	-1E+10	1	-1E+10	1	-1E+10	1	-1E+10	1	-1E+10	1	-1E+10	1
4902551	121	C	12/22/2023	03:06	-130.856	46.823	0	269.20	0	5.7890	0	33.8950	0	26.709	0	266.796	0	86.4	4	28.4	4	-1E+10	1	-1E+10	1	-1E+10	1	-1E+10	1	-1E+10	1	-1E+10	1
4902551	121	C	12/22/2023	03:06	-130.856	46.823	0	270.30	0	5.7900	0	33.8970	0	26.710	0	267.885	0	85.8	4	28.2	4	-1E+10	1	-1E+10	1	-1E+10	1	-1E+10	1	-1E+10	1	-1E+10	1
4902551	121	C	12/22/2023	03:06	-130.856	46.823	0	271.30	0	5.7900	0	33.8970	0	26.710	0	268.876	0	85.1	4	28.0	4	-1E+10	1	-1E+10	1	-1E+10	1	-1E+10	1	-1E+10	1	-1E+10	1
4902551	121	C	12/22/2023	03:06	-130.856	46.823	0	272.30	0	5.7820	0	33.9010	0	26.714	0	269.866	0	84.6	4	27.8	4	-1E+10	1	-1E+10	1	-1E+10	1	-1E+10	1	-1E+10	1	-1E+10	1
4902551	121	C	12/22/2023	03:06	-130.856	46.823	0	273.40	0	5.7310	0	33.8970	0	26.717	0	270.956	0	84.0	4	27.6	4	-1E+10	1	-1E+10	1	-1E+10	1	-1E+10	1	-1E+10	1	-1E+10	1
4902551	121	C	12/22/2023	03:06	-130.856	46.823	0	274.40	0	5.6940	0	33.8950	0	26.720	0	271.946	0	83.2	4	27.3	4	-1E+10	1	-1E+10	1	-1E+10	1	-1E+10	1	-1E+10	1	-1E+10	1
4902551	121	C	12/22/2023	03:06	-130.856	46.823	0	275.40	0	5.7300	0	33.9020	0	26.721	0	272.937	0	82.5	4	27.1	4	-1E+10	1	-1E+10	1	-1E+10	1	-1E+10	1	-1E+10	1	-1E+10	1
4902551	121	C	12/22/2023	03:06	-130.856	46.823	0	276.90	0	5.7550	0	33.9130	0	26.727	0	274.422	0	81.7	4	26.9	4	-1E+10	1	-1E+10	1	-1E+10	1	-1E+10	1	-1E+10	1	-1E+10	1
4902551	121	C	12/22/2023	03:06	-130.856	46.823	0	278.10	0	5.7610	0	33.9150	0	26.728	0	275.611	0	81.2	4	26.7	4	-1E+10	1	-1E+10	1	-1E+10	1	-1E+10	1	-1E+10	1	-1E+10	1
4902551	121	C	12/22/2023	03:06	-130.856	46.823	0	279.00	0	5.7620	0	33.9150	0	26.728	0	276.502	0	80.9	4	26.6	4	-1E+10	1	-1E+10	1	-1E+10	1	-1E+10	1	-1E+10	1	-1E+10	1
4902551	121	C	12/22/2023	03:06	-130.856	46.823	0	279.80	0	5.7630	0	33.9160	0	26.729	0	277.294	0	80.5	4	26.4	4	-1E+10	1	-1E+10	1	-1E+10	1	-1E+10	1	-1E+10	1	-1E+10	1
4902551	121	C	12/22/2023	03:06	-130.856	46.823	0	281.00	0	5.7650	0	33.9180	0	26.730	0	278.483	0	79.9	4	26.3	4	-1E+10	1	-1E+10	1	-1E+10	1	-1E+10	1	-1E+10	1	-1E+10	1
4902551	121	C	12/22/2023	03:06	-130.856	46.823	0	282.20	0	5.7680	0	33.9190	0	26.730	0	279.671	0	79.3	4	26.1	4	-1E+10	1	-1E+10	1	-1E+10	1	-1E+10	1	-1E+10	1	-1E+10	1
4902551	121	C	12/22/2023	03:06	-130.856	46.823	0	283.00	0	5.7680	0	33.9190	0	26.730	0	280.463	0	79.0	4	26.0	4	-1E+10	1	-1E+10	1	-1E+10	1	-1E+10	1	-1E+10	1	-1E+10	1
4902551	121	C	12/22/2023	03:06	-130.856	46.823	0	283.80	0	5.7500	0	33.9200	0	26.733	0	281.256	0	78.7	4	25.9	4	-1E+10	1	-1E+10	1	-1E+10	1	-1E+10	1	-1E+10	1	-1E+10	1
4902551	121	C	12/22/2023	03:06	-130.856	46.823	0	284.70	0	5.7420	0	33.9230	0	26.737	0	282.147	0	78.3	4	25.7	4	-1E+10	1	-1E+10	1	-1E+10	1	-1E+10	1	-1E+10	1	-1E+10	1
4902551	121	C	12/22/2023	03:06	-130.856	46.823	0	285.90	0	5.7110	0	33.9220	0	26.740	0	283.335	0	77.9	4	25.6	4	-1E+10	1	-1E+10	1	-1E+10	1	-1E+10	1	-1E+10	1	-1E+10	1
4902551	121	C	12/22/2023	03:06	-130.856	46.823	0	287.10	0	5.6950	0	33.9220	0	26.742	0	284.524	0	77.5	4	25.4	4	-1E+10	1	-1E+10	1	-1E+10	1	-1E+10	1	-1E+10	1	-1E+10	1
4902551	121	C	12/22/2023	03:06	-130.856	46.823	0	288.00	0	5.6260	0	33.9220	0	26.750	0	285.415	0	77.2	4	25.3	4	-1E+10	1	-1E+10	1	-1E+10	1	-1E+10	1	-1E+10	1	-1E+10	1
4902551	121	C	12/22/2023	03:06	-130.856	46.823	0	288.90	0	5.6360	0	33.9180	0	26.746	0	286.306	0	76.9	4	25.2	4	-1E+10	1	-1E+10	1	-1E+10	1	-1E+10	1	-1E+10	1	-1E+10	1
4902551	121	C	12/22/2023	03:06	-130.856	46.823	0	289.70	0	5.6660	0	33.9230	0	26.746	0	287.099	0	76.6	4	25.1	4	-1E+10	1	-1E+10	1	-1E+10	1	-1E+10	1	-1E+10	1	-1E+10	1
4902551	121	C	12/22/2023	03:06	-130.856	46.823	0	290.90	0	5.6390	0	33.9220	0	26.748	0	288.287	0	76.2	4	25.0	4	-1E+10	1	-1E+10	1	-1E+10	1	-1E+10	1	-1E+10	1	-1E+10	1
4902551	121	C	12/22/2023	03:06	-130.856	46.823	0	292.30	0	5.6210	0	33.9260	0	26.754	0	289.674	0	75.9	4	24.8	4	-1E+10	1	-1E+10	1	-1E+10	1	-1E+10	1	-1E+10	1	-1E+10	1
4902551	121	C	12/22/2023	03:06	-130.856	46.823	0	293.20	0	5.6070	0	33.9350	0	26.763	0	290.565	0	75.5	4	24.7	4	-1E+10	1	-1E+10	1	-1E+10	1	-1E+10	1	-1E+10	1	-1E+10	1
4902551	121	C	12/22/2023	03:06	-130.856	46.823	0	294.00	0	5.6180	0	33.9250	0	26.753	0	291.357	0	75.2	4	24.6	4	-1E+10	1	-1E+10	1	-1E+10	1	-1E+10	1	-1E+10	1	-1E+10	1
4902551	121	C	12/22/2023	03:06	-130.856	46.823	0	294.80	0	5.6150	0	33.9180	0	26.748	0	292.149	0	74.9	4	24.5	4	-1E+10	1	-1E+10	1	-1E+10	1	-1E+10	1	-1E+10	1	-1E+10	1
4902551	121	C	12/22/2023	03:06	-130.856	46.823	0	295.70	0	5.5990	0	33.9230	0	26.754	0	293.041	0	74.6	4	24.4	4	-1E+10	1	-1E+10	1	-1E+10	1	-1E+10	1	-1E+10	1	-1E+10	1
4902551	121	C	12/22/2023	03:06	-130.856	46.823	0	296.90	0	5.5290	0	33.9250	0	26.764	0	294.229	0	74.2	4	24.2	4	-1E+10	1	-1E+10	1	-1E+10	1	-1E+10	1	-1E+10	1	-1E+10	1
4902551	121	C	12/22/2023	03:06	-130.856	46.823	0	298.20	0	5.4590	0	33.9270	0	26.774	0	295.516	0	74.0	4	24.1	4	-1E+10	1	-1E+10	1	-1E+10	1	-1E+10	1	-1E+10	1	-1E+10	1
4902551	121	C	12/22/2023	03:06	-130.856	46.823	0	299.10	0	5.4510	0	33.9270	0	26.775	0	296.408	0	73.9	4	24.1	4	-1E+10	1	-1E+10	1	-1E+10	1	-1E+10	1	-1E+10	1	-1E+10	1
4902551	121	C	12/22/2023	03:06	-130.856	46.823	0	300.00	0	5.4460	0	33.9280	0	26.776	0	297.299	0	73.7	4	24.0	4	-1E+10	1	-1E+10	1	-1E+10	1	-1E+10	1	-1E+10	1	-1E+10	1
4902551	121	C	12/22/2023	03:06	-130.856	46.823	0	300.80	0	5.4390	0	33.9280	0	26.777	0	298.091	0	73.5	4	24.0	4	-1E+10	1	-1E+10	1	-1E+10	1	-1E+10	1	-1E+10	1	-1E+10	1
4902551	121	C	12/22/2023	03:06	-130.856	46.823	0	301.70	0	5.4290	0	33.9290	0	26.779	0	298.982	0	73.4	4	23.9	4	-1E+10	1	-1E+10	1	-1E+10	1	-1E+10	1	-1E+10	1	-1E+10	1
4902551	121	C	12/22/2023	03:06	-130.856	46.823	0	303.00	0	5.4220	0	33.9290	0	26.780	0	300.270	0	73.2	4	23.9	4	-1E+10	1	-1E+10	1	-1E+10	1	-1E+10	1	-1E+10	1	-1E+10	1
4902551	121	C	12/22/2023	03:06	-130.856	46.823	0	304.30	0	5.4180	0	33.9300	0	26.781	0	301.557	0	73.0	4	23.8	4	-1E+10	1	-1E+10	1	-1E+10	1	-1E+10	1	-1E+10	1	-1E+10	1
4902551	121	C	12/22/2023	03:06	-130.856	46.823	0	305.20	0	5.4170	0	33.9310	0	26.782	0	302.448	0	72.8	4	23.7	4	-1E+10	1	-1E+10	1	-1E+10	1	-1E+10	1	-1E+10	1	-1E+10	1
4902551	121	C	12/22/2023	03:06	-130.856	46.823	0	306.00	0	5.4150	0	33.9330	0	26.784	0	303.240	0	72.7	4	23.7	4	-1E+10	1	-1E+10	1	-1E+10	1	-1E+10	1	-1E+10	1	-1E+10	1
4902551	121	C	12/22/2023	03:06	-130.856	46.823	0	306.90	0	5.4140	0	33.9330	0	26.784	0	304.132	0	72.5	4	23.6	4	-1E+10	1	-1E+10	1	-1E+10	1	-1E+10	1	-1E+10	1	-1E+10	1
4902551	121	C	12/22/2023	03:06	-130.856	46.823	0	307.80	0	5.4140	0	33.9340	0	26.785	0	305.023	0	72.5	4	23.6	4	-1E+10	1	-1E+10	1	-1E+10	1	-1E+10	1	-1E+10	1	-1E+10	1
4902551	121	C	12/22/2023	03:06	-130.856	46.823	0	308.70	0	5.4160	0	33.9350	0	26.786	0	305.914	0	72.4	4	23.6	4	-1E+10	1	-1E+10	1	-1E+10	1	-1E+10	1	-1E+10	1	-1E+10	1
4902551	121	C	12/22/2023	03:06	-130.856	46.823	0	309.90	0	5.4180	0	33.9350	0	26.785	0	307.102	0	72.3	4	23.6	4	-1E+10	1	-1E+10	1	-1E+10	1	-1E+10	1	-1E+10	1	-1E+10	1
4902551	121	C	12/22/2023	03:06	-130.856	46.823	0	311.30	0	5.4180	0	33.9350	0	26.785	0	308.489	0	72.1	4	23.5	4	-1E+10	1	-1E+10	1	-1E+10	1	-1E+10	1	-1E+10	1	-1E+10	1
4902551	121	C	12/22/2023	03:06	-130.856	46.823	0	312.20	0	5.4180	0	33.9360	0	26.786	0	309.380	0	72.1	4	23.5	4	-1E+10	1	-1E+10	1	-1E+10	1	-1E+10	1	-1E+10	1	-1E+10	1
4902551	121	C	12/22/2023	03:06	-130.856	46.823	0	313.00	0	5.4150	0	33.9380	0	26.788	0	310.172	0	72.0	4	23.5	4	-1E+10	1	-1E+10	1	-1E+10	1	-1E+10	1	-1E+10	1	-1E+10	1
4902551	121	C	12/22/2023	03:06	-130.856	46.823	0	313.90	0	5.4160	0	33.9360	0	26.786	0	311.063	0	71.9	4	23.4	4	-1E+10	1	-1E+10	1	-1E+10	1	-1E+10	1	-1E+10	1	-1E+10	1
4902551	121	C	12/22/2023	03:06	-130.856	46.823	0	314.80	0	5.4200	0	33.9360	0	26.786	0	311.954	0	71.8	4	23.4	4	-1E+10	1	-1E+10	1	-1E+10	1	-1E+10	1	-1E+10	1	-1E+10	1
4902551	121	C	12/22/2023	03:06	-130.856	46.823	0	315.70	0	5.4220	0	33.9370	0	26.787	0	312.846	0	71.7	4	23.4	4	-1E+10	1	-1E+10	1	-1E+10	1	-1E+10	1	-1E+10	1	-1E+10	1
4902551	121	C	12/22/2023	03:06	-130.856	46.823	0	316.60	0	5.4240	0	33.9370	0	26.786	0	313.737	0	71.5	4	23.3	4	-1E+10	1	-1E+10	1	-1E+10	1	-1E+10	1	-1E+10	1	-1E+10	1
4902551	121	C	12/22/2023	03:06	-130.856	46.823	0	317.90	0	5.4210	0	33.9360	0	26.786	0	315.024	0	71.3	4	23.2	4	-1E+10	1	-1E+10	1	-1E+10	1	-1E+10	1	-1E+10	1	-1E+10	1
4902551	121	C	12/22/2023	03:06	-130.856	46.823	0	319.30	0	5.4120	0	33.9390	0	26.789	0	316.410	0	71.0	4	23.1	4	-1E+10	1	-1E+10	1	-1E+10	1	-1E+10	1	-1E+10	1	-1E+10	1
4902551	121	C	12/22/2023	03:06	-130.856	46.823	0	320.20	0	5.4100	0	33.9370	0	26.788	0	317.302	0	70.8	4	23.1	4	-1E+10	1	-1E+10	1	-1E+10	1	-1E+10	1	-1E+10	1	-1E+10	1
4902551	121	C	12/22/2023	03:06	-130.856	46.823	0	321.20	0	5.4090	0	33.9370	0	26.788	0	318.292	0	70.6	4	23.0	4	-1E+10	1	-1E+10	1	-1E+10	1	-1E+10	1	-1E+10	1	-1E+10	1
4902551	121	C	12/22/2023	03:06	-130.856	46.823	0	322.10	0	5.4050	0	33.9380	0	26.789	0	319.183	0	70.3	4	22.9	4	-1E+10	1	-1E+10	1	-1E+10	1	-1E+10	1	-1E+10	1	-1E+10	1
4902551	121	C	12/22/2023	03:06	-130.856	46.823	0	323.00	0	5.4070	0	33.9400	0	26.791	0	320.074	0	70.1	4	22.9	4	-1E+10	1	-1E+10	1	-1E+10	1	-1E+10	1	-1E+10	1	-1E+10	1
4902551	121	C	12/22/2023	03:06	-130.856	46.823	0	323.90	0	5.4140	0	33.9430	0	26.792	0	320.965	0	69.9	4	22.8	4	-1E+10	1	-1E+10	1	-1E+10	1	-1E+10	1	-1E+10	1	-1E+10	1
4902551	121	C	12/22/2023	03:06	-130.856	46.823	0	324.80	0	5.4180	0	33.9420	0	26.791	0	321.856	0	69.8	4	22.7	4	-1E+10	1	-1E+10	1	-1E+10	1	-1E+10	1	-1E+10	1	-1E+10	1
4902551	121	C	12/22/2023	03:06	-130.856	46.823	0	325.70	0	5.4170	0	33.9410	0	26.790	0	322.747	0	69.6	4	22.7	4	-1E+10	1	-1E+10	1	-1E+10	1	-1E+10	1	-1E+10	1	-1E+10	1
4902551	121	C	12/22/2023	03:06	-130.856	46.823	0	326.70	0	5.4130	0	33.9430	0	26.792	0	323.738	0	69.5	4	22.6	4	-1E+10	1	-1E+10	1	-1E+10	1	-1E+10	1	-1E+10	1	-1E+10	1
4902551	121	C	12/22/2023	03:06	-130.856	46.823	0	327.60	0	5.4100	0	33.9420	0	26.792	0	324.629	0	69.2	4	22.6	4	-1E+10	1	-1E+10	1	-1E+10	1	-1E+10	1	-1E+10	1	-1E+10	1
4902551	121	C	12/22/2023	03:06	-130.856	46.823	0	328.90	0	5.3830	0	33.9410	0	26.794	0	325.916	0	69.0	4	22.5	4	-1E+10	1	-1E+10	1	-1E+10	1	-1E+10	1	-1E+10	1	-1E+10	1
4902551	121	C	12/22/2023	03:06	-130.856	46.823	0	330.40	0	5.3530	0	33.9390	0	26.796	0	327.401	0	68.7	4	22.4	4	-1E+10	1	-1E+10	1	-1E+10	1	-1E+10	1	-1E+10	1	-1E+10	1
4902551	121	C	12/22/2023	03:06	-130.856	46.823	0	331.30	0	5.3470	0	33.9400	0	26.798	0	328.292	0	68.5	4	22.3	4	-1E+10	1	-1E+10	1	-1E+10	1	-1E+10	1	-1E+10	1	-1E+10	1
4902551	121	C	12/22/2023	03:06	-130.856	46.823	0	332.20	0	5.3380	0	33.9390	0	26.798	0	329.183	0	68.4	4	22.2	4	-1E+10	1	-1E+10	1	-1E+10	1	-1E+10	1	-1E+10	1	-1E+10	1
4902551	121	C	12/22/2023	03:06	-130.856	46.823	0	333.10	0	5.2910	0	33.9510	0	26.813	0	330.075	0	68.2	4	22.2	4	-1E+10	1	-1E+10	1	-1E+10	1	-1E+10	1	-1E+10	1	-1E+10	1
4902551	121	C	12/22/2023	03:06	-130.856	46.823	0	334.00	0	5.2730	0	33.9390	0	26.806	0	330.966	0	68.0	4	22.1	4	-1E+10	1	-1E+10	1	-1E+10	1	-1E+10	1	-1E+10	1	-1E+10	1
4902551	121	C	12/22/2023	03:06	-130.856	46.823	0	334.90	0	5.2520	0	33.9360	0	26.806	0	331.857	0	67.7	4	22.0	4	-1E+10	1	-1E+10	1	-1E+10	1	-1E+10	1	-1E+10	1	-1E+10	1
4902551	121	C	12/22/2023	03:06	-130.856	46.823	0	335.80	0	5.2540	0	33.9360	0	26.806	0	332.748	0	67.4	4	21.9	4	-1E+10	1	-1E+10	1	-1E+10	1	-1E+10	1	-1E+10	1	-1E+10	1
4902551	121	C	12/22/2023	03:06	-130.856	46.823	0	336.70	0	5.2550	0	33.9360	0	26.806	0	333.639	0	67.1	4	21.8	4	-1E+10	1	-1E+10	1	-1E+10	1	-1E+10	1	-1E+10	1	-1E+10	1
4902551	121	C	12/22/2023	03:06	-130.856	46.823	0	337.70	0	5.2550	0	33.9370	0	26.806	0	334.629	0	66.7	4	21.7	4	-1E+10	1	-1E+10	1	-1E+10	1	-1E+10	1	-1E+10	1	-1E+10	1
4902551	121	C	12/22/2023	03:06	-130.856	46.823	0	338.60	0	5.2540	0	33.9380	0	26.807	0	335.520	0	66.4	4	21.6	4	-1E+10	1	-1E+10	1	-1E+10	1	-1E+10	1	-1E+10	1	-1E+10	1
4902551	121	C	12/22/2023	03:06	-130.856	46.823	0	339.90	0	5.2610	0	33.9400	0	26.808	0	336.807	0	65.9	4	21.4	4	-1E+10	1	-1E+10	1	-1E+10	1	-1E+10	1	-1E+10	1	-1E+10	1
4902551	121	C	12/22/2023	03:06	-130.856	46.823	0	341.40	0	5.2610	0	33.9410	0	26.809	0	338.292	0	65.3	4	21.2	4	-1E+10	1	-1E+10	1	-1E+10	1	-1E+10	1	-1E+10	1	-1E+10	1
4902551	121	C	12/22/2023	03:06	-130.856	46.823	0	342.30	0	5.2810	0	33.9490	0	26.813	0	339.183	0	65.1	4	21.1	4	-1E+10	1	-1E+10	1	-1E+10	1	-1E+10	1	-1E+10	1	-1E+10	1
4902551	121	C	12/22/2023	03:06	-130.856	46.823	0	343.30	0	5.2940	0	33.9400	0	26.804	0	340.173	0	64.9	4	21.1	4	-1E+10	1	-1E+10	1	-1E+10	1	-1E+10	1	-1E+10	1	-1E+10	1
4902551	121	C	12/22/2023	03:06	-130.856	46.823	0	344.20	0	5.2840	0	33.9520	0	26.815	0	341.065	0	64.7	4	21.0	4	-1E+10	1	-1E+10	1	-1E+10	1	-1E+10	1	-1E+10	1	-1E+10	1
4902551	121	C	12/22/2023	03:06	-130.856	46.823	0	345.20	0	5.2610	0	33.9520	0	26.818	0	342.055	0	64.4	4	20.9	4	-1E+10	1	-1E+10	1	-1E+10	1	-1E+10	1	-1E+10	1	-1E+10	1
4902551	121	C	12/22/2023	03:06	-130.856	46.823	0	346.10	0	5.2550	0	33.9490	0	26.816	0	342.946	0	64.2	4	20.8	4	-1E+10	1	-1E+10	1	-1E+10	1	-1E+10	1	-1E+10	1	-1E+10	1
4902551	121	C	12/22/2023	03:06	-130.856	46.823	0	347.10	0	5.2410	0	33.9510	0	26.819	0	343.936	0	63.9	4	20.7	4	-1E+10	1	-1E+10	1	-1E+10	1	-1E+10	1	-1E+10	1	-1E+10	1
4902551	121	C	12/22/2023	03:06	-130.856	46.823	0	348.10	0	5.2400	0	33.9510	0	26.819	0	344.926	0	63.6	4	20.7	4	-1E+10	1	-1E+10	1	-1E+10	1	-1E+10	1	-1E+10	1	-1E+10	1
4902551	121	C	12/22/2023	03:06	-130.856	46.823	0	349.00	0	5.2410	0	33.9540	0	26.822	0	345.817	0	63.3	4	20.6	4	-1E+10	1	-1E+10	1	-1E+10	1	-1E+10	1	-1E+10	1	-1E+10	1
4902551	121	C	12/22/2023	03:06	-130.856	46.823	0	350.00	0	5.2450	0	33.9530	0	26.820	0	346.807	0	63.1	4	20.5	4	-1E+10	1	-1E+10	1	-1E+10	1	-1E+10	1	-1E+10	1	-1E+10	1
4902551	121	C	12/22/2023	03:06	-130.856	46.823	0	352.90	0	5.2500	0	33.9560	0	26.822	0	349.678	0	62.0	4	20.1	4	-1E+10	1	-1E+10	1	-1E+10	1	-1E+10	1	-1E+10	1	-1E+10	1
4902551	121	C	12/22/2023	03:06	-130.856	46.823	0	357.70	0	5.2640	0	33.9640	0	26.827	0	354.430	0	60.3	4	19.6	4	-1E+10	1	-1E+10	1	-1E+10	1	-1E+10	1	-1E+10	1	-1E+10	1
4902551	121	C	12/22/2023	03:06	-130.856	46.823	0	362.70	0	5.2790	0	33.9700	0	26.830	0	359.380	0	58.2	4	18.9	4	-1E+10	1	-1E+10	1	-1E+10	1	-1E+10	1	-1E+10	1	-1E+10	1
4902551	121	C	12/22/2023	03:06	-130.856	46.823	0	368.10	0	5.3100	0	33.9770	0	26.832	0	364.726	0	55.9	4	18.2	4	-1E+10	1	-1E+10	1	-1E+10	1	-1E+10	1	-1E+10	1	-1E+10	1
4902551	121	C	12/22/2023	03:06	-130.856	46.823	0	373.20	0	5.3190	0	33.9880	0	26.840	0	369.775	0	54.5	4	17.7	4	-1E+10	1	-1E+10	1	-1E+10	1	-1E+10	1	-1E+10	1	-1E+10	1
4902551	121	C	12/22/2023	03:06	-130.856	46.823	0	377.70	0	5.3160	0	33.9930	0	26.844	0	374.229	0	53.4	4	17.4	4	-1E+10	1	-1E+10	1	-1E+10	1	-1E+10	1	-1E+10	1	-1E+10	1
4902551	121	C	12/22/2023	03:06	-130.856	46.823	0	382.90	0	5.3210	0	34.0030	0	26.851	0	379.377	0	52.8	4	17.2	4	-1E+10	1	-1E+10	1	-1E+10	1	-1E+10	1	-1E+10	1	-1E+10	1
4902551	121	C	12/22/2023	03:06	-130.856	46.823	0	388.10	0	5.3000	0	34.0050	0	26.855	0	384.524	0	53.3	4	17.3	4	-1E+10	1	-1E+10	1	-1E+10	1	-1E+10	1	-1E+10	1	-1E+10	1
4902551	121	C	12/22/2023	03:06	-130.856	46.823	0	392.80	0	5.2050	0	33.9990	0	26.862	0	389.176	0	54.2	4	17.6	4	-1E+10	1	-1E+10	1	-1E+10	1	-1E+10	1	-1E+10	1	-1E+10	1
4902551	121	C	12/22/2023	03:06	-130.856	46.823	0	397.90	0	5.1040	0	33.9900	0	26.866	0	394.224	0	55.0	4	17.8	4	-1E+10	1	-1E+10	1	-1E+10	1	-1E+10	1	-1E+10	1	-1E+10	1
4902551	121	C	12/22/2023	03:06	-130.856	46.823	0	403.10	0	4.9390	0	33.9680	0	26.868	0	399.371	0	54.7	4	17.6	4	-1E+10	1	-1E+10	1	-1E+10	1	-1E+10	1	-1E+10	1	-1E+10	1
4902551	121	C	12/22/2023	03:06	-130.856	46.823	0	408.10	0	4.8900	0	33.9670	0	26.872	0	404.320	0	53.6	4	17.3	4	-1E+10	1	-1E+10	1	-1E+10	1	-1E+10	1	-1E+10	1	-1E+10	1
4902551	121	C	12/22/2023	03:06	-130.856	46.823	0	413.00	0	4.8740	0	33.9700	0	26.877	0	409.170	0	52.1	4	16.8	4	-1E+10	1	-1E+10	1	-1E+10	1	-1E+10	1	-1E+10	1	-1E+10	1
4902551	121	C	12/22/2023	03:06	-130.856	46.823	0	417.80	0	4.8430	0	33.9780	0	26.886	0	413.921	0	50.8	4	16.3	4	-1E+10	1	-1E+10	1	-1E+10	1	-1E+10	1	-1E+10	1	-1E+10	1
4902551	121	C	12/22/2023	03:06	-130.856	46.823	0	423.20	0	4.8200	0	33.9840	0	26.894	0	419.265	0	49.7	4	16.0	4	-1E+10	1	-1E+10	1	-1E+10	1	-1E+10	1	-1E+10	1	-1E+10	1
4902551	121	C	12/22/2023	03:06	-130.856	46.823	0	428.10	0	4.8100	0	33.9870	0	26.897	0	424.115	0	48.9	4	15.7	4	-1E+10	1	-1E+10	1	-1E+10	1	-1E+10	1	-1E+10	1	-1E+10	1
4902551	121	C	12/22/2023	03:06	-130.856	46.823	0	432.70	0	4.8010	0	33.9900	0	26.901	0	428.667	0	48.0	4	15.4	4	-1E+10	1	-1E+10	1	-1E+10	1	-1E+10	1	-1E+10	1	-1E+10	1
4902551	121	C	12/22/2023	03:06	-130.856	46.823	0	437.80	0	4.7900	0	33.9930	0	26.904	0	433.714	0	46.6	4	15.0	4	-1E+10	1	-1E+10	1	-1E+10	1	-1E+10	1	-1E+10	1	-1E+10	1
4902551	121	C	12/22/2023	03:06	-130.856	46.823	0	442.90	0	4.7590	0	34.0020	0	26.915	0	438.761	0	45.0	4	14.4	4	-1E+10	1	-1E+10	1	-1E+10	1	-1E+10	1	-1E+10	1	-1E+10	1
4902551	121	C	12/22/2023	03:06	-130.856	46.823	0	447.80	0	4.7390	0	34.0080	0	26.922	0	443.610	0	43.9	4	14.1	4	-1E+10	1	-1E+10	1	-1E+10	1	-1E+10	1	-1E+10	1	-1E+10	1
4902551	121	C	12/22/2023	03:06	-130.856	46.823	0	453.00	0	4.7300	0	34.0100	0	26.925	0	448.756	0	42.6	4	13.7	4	-1E+10	1	-1E+10	1	-1E+10	1	-1E+10	1	-1E+10	1	-1E+10	1
4902551	121	C	12/22/2023	03:06	-130.856	46.823	0	458.20	0	4.7100	0	34.0190	0	26.934	0	453.901	0	41.1	4	13.2	4	-1E+10	1	-1E+10	1	-1E+10	1	-1E+10	1	-1E+10	1	-1E+10	1
4902551	121	C	12/22/2023	03:06	-130.856	46.823	0	462.90	0	4.6990	0	34.0240	0	26.939	0	458.552	0	40.4	4	12.9	4	-1E+10	1	-1E+10	1	-1E+10	1	-1E+10	1	-1E+10	1	-1E+10	1
4902551	121	C	12/22/2023	03:06	-130.856	46.823	0	467.90	0	4.6990	0	34.0260	0	26.941	0	463.500	0	39.4	4	12.6	4	-1E+10	1	-1E+10	1	-1E+10	1	-1E+10	1	-1E+10	1	-1E+10	1
4902551	121	C	12/22/2023	03:06	-130.856	46.823	0	472.80	0	4.7050	0	34.0280	0	26.942	0	468.348	0	37.6	4	12.1	4	-1E+10	1	-1E+10	1	-1E+10	1	-1E+10	1	-1E+10	1	-1E+10	1
4902551	121	C	12/22/2023	03:06	-130.856	46.823	0	477.60	0	4.7190	0	34.0390	0	26.949	0	473.097	0	35.5	4	11.4	4	-1E+10	1	-1E+10	1	-1E+10	1	-1E+10	1	-1E+10	1	-1E+10	1
4902551	121	C	12/22/2023	03:06	-130.856	46.823	0	482.60	0	4.6830	0	34.0540	0	26.965	0	478.044	0	33.9	4	10.9	4	-1E+10	1	-1E+10	1	-1E+10	1	-1E+10	1	-1E+10	1	-1E+10	1
4902551	121	C	12/22/2023	03:06	-130.856	46.823	0	487.80	0	4.6490	0	34.0560	0	26.970	0	483.189	0	32.6	4	10.4	4	-1E+10	1	-1E+10	1	-1E+10	1	-1E+10	1	-1E+10	1	-1E+10	1
4902551	121	C	12/22/2023	03:06	-130.856	46.823	0	492.90	0	4.6470	0	34.0630	0	26.976	0	488.235	0	31.0	4	9.9	4	-1E+10	1	-1E+10	1	-1E+10	1	-1E+10	1	-1E+10	1	-1E+10	1
4902551	121	C	12/22/2023	03:06	-130.856	46.823	0	498.20	0	4.6460	0	34.0740	0	26.985	0	493.479	0	29.4	4	9.4	4	-1E+10	1	-1E+10	1	-1E+10	1	-1E+10	1	-1E+10	1	-1E+10	1
4902551	121	C	12/22/2023	03:06	-130.856	46.823	0	503.20	0	4.6450	0	34.0830	0	26.992	0	498.425	0	28.3	4	9.1	4	-1E+10	1	-1E+10	1	-1E+10	1	-1E+10	1	-1E+10	1	-1E+10	1
4902551	121	C	12/22/2023	03:06	-130.856	46.823	0	508.20	0	4.6470	0	34.0910	0	26.999	0	503.372	0	27.3	4	8.7	4	-1E+10	1	-1E+10	1	-1E+10	1	-1E+10	1	-1E+10	1	-1E+10	1
4902551	121	C	12/22/2023	03:06	-130.856	46.823	0	512.90	0	4.6390	0	34.0940	0	27.002	0	508.021	0	26.5	4	8.5	4	-1E+10	1	-1E+10	1	-1E+10	1	-1E+10	1	-1E+10	1	-1E+10	1
4902551	121	C	12/22/2023	03:06	-130.856	46.823	0	517.80	0	4.6500	0	34.1030	0	27.008	0	512.869	0	25.6	4	8.2	4	-1E+10	1	-1E+10	1	-1E+10	1	-1E+10	1	-1E+10	1	-1E+10	1
4902551	121	C	12/22/2023	03:06	-130.856	46.823	0	522.80	0	4.6570	0	34.1090	0	27.012	0	517.815	0	25.1	4	8.0	4	-1E+10	1	-1E+10	1	-1E+10	1	-1E+10	1	-1E+10	1	-1E+10	1
4902551	121	C	12/22/2023	03:06	-130.856	46.823	0	527.90	0	4.6220	0	34.1060	0	27.013	0	522.860	0	24.2	4	7.7	4	-1E+10	1	-1E+10	1	-1E+10	1	-1E+10	1	-1E+10	1	-1E+10	1
4902551	121	C	12/22/2023	03:06	-130.856	46.823	0	533.20	0	4.6410	0	34.1180	0	27.021	0	528.103	0	23.0	4	7.4	4	-1E+10	1	-1E+10	1	-1E+10	1	-1E+10	1	-1E+10	1	-1E+10	1
4902551	121	C	12/22/2023	03:06	-130.856	46.823	0	538.20	0	4.6610	0	34.1280	0	27.027	0	533.048	0	22.4	4	7.2	4	-1E+10	1	-1E+10	1	-1E+10	1	-1E+10	1	-1E+10	1	-1E+10	1
4902551	121	C	12/22/2023	03:06	-130.856	46.823	0	543.20	0	4.6410	0	34.1300	0	27.031	0	537.994	0	21.9	4	7.0	4	-1E+10	1	-1E+10	1	-1E+10	1	-1E+10	1	-1E+10	1	-1E+10	1
4902551	121	C	12/22/2023	03:06	-130.856	46.823	0	548.30	0	4.6240	0	34.1350	0	27.036	0	543.038	0	21.3	4	6.8	4	-1E+10	1	-1E+10	1	-1E+10	1	-1E+10	1	-1E+10	1	-1E+10	1
4902551	121	C	12/22/2023	03:06	-130.856	46.823	0	553.00	0	4.5870	0	34.1360	0	27.041	0	547.687	0	20.8	4	6.7	4	-1E+10	1	-1E+10	1	-1E+10	1	-1E+10	1	-1E+10	1	-1E+10	1
4902551	121	C	12/22/2023	03:06	-130.856	46.823	0	557.70	0	4.5670	0	34.1400	0	27.047	0	552.336	0	20.4	4	6.5	4	-1E+10	1	-1E+10	1	-1E+10	1	-1E+10	1	-1E+10	1	-1E+10	1
4902551	121	C	12/22/2023	03:06	-130.856	46.823	0	562.90	0	4.5570	0	34.1420	0	27.049	0	557.479	0	20.4	4	6.5	4	-1E+10	1	-1E+10	1	-1E+10	1	-1E+10	1	-1E+10	1	-1E+10	1
4902551	121	C	12/22/2023	03:06	-130.856	46.823	0	568.10	0	4.5510	0	34.1420	0	27.050	0	562.622	0	20.0	4	6.4	4	-1E+10	1	-1E+10	1	-1E+10	1	-1E+10	1	-1E+10	1	-1E+10	1
4902551	121	C	12/22/2023	03:06	-130.856	46.823	0	573.20	0	4.5340	0	34.1440	0	27.054	0	567.666	0	19.3	4	6.2	4	-1E+10	1	-1E+10	1	-1E+10	1	-1E+10	1	-1E+10	1	-1E+10	1
4902551	121	C	12/22/2023	03:06	-130.856	46.823	0	577.90	0	4.5220	0	34.1480	0	27.058	0	572.314	0	18.6	4	5.9	4	-1E+10	1	-1E+10	1	-1E+10	1	-1E+10	1	-1E+10	1	-1E+10	1
4902551	121	C	12/22/2023	03:06	-130.856	46.823	0	582.50	0	4.5070	0	34.1530	0	27.064	0	576.863	0	18.2	4	5.8	4	-1E+10	1	-1E+10	1	-1E+10	1	-1E+10	1	-1E+10	1	-1E+10	1
4902551	121	C	12/22/2023	03:06	-130.856	46.823	0	587.70	0	4.5010	0	34.1560	0	27.067	0	582.005	0	17.6	4	5.6	4	-1E+10	1	-1E+10	1	-1E+10	1	-1E+10	1	-1E+10	1	-1E+10	1
4902551	121	C	12/22/2023	03:06	-130.856	46.823	0	592.80	0	4.4730	0	34.1620	0	27.075	0	587.049	0	17.0	4	5.4	4	-1E+10	1	-1E+10	1	-1E+10	1	-1E+10	1	-1E+10	1	-1E+10	1
4902551	121	C	12/22/2023	03:06	-130.856	46.823	0	598.00	0	4.4430	0	34.1670	0	27.082	0	592.191	0	16.4	4	5.2	4	-1E+10	1	-1E+10	1	-1E+10	1	-1E+10	1	-1E+10	1	-1E+10	1
4902551	121	C	12/22/2023	03:06	-130.856	46.823	0	603.20	0	4.4330	0	34.1720	0	27.087	0	597.333	0	16.0	4	5.1	4	-1E+10	1	-1E+10	1	-1E+10	1	-1E+10	1	-1E+10	1	-1E+10	1
4902551	121	C	12/22/2023	03:06	-130.856	46.823	0	608.30	0	4.4300	0	34.1750	0	27.090	0	602.376	0	15.6	4	5.0	4	-1E+10	1	-1E+10	1	-1E+10	1	-1E+10	1	-1E+10	1	-1E+10	1
4902551	121	C	12/22/2023	03:06	-130.856	46.823	0	612.90	0	4.4280	0	34.1790	0	27.093	0	606.924	0	15.3	4	4.9	4	-1E+10	1	-1E+10	1	-1E+10	1	-1E+10	1	-1E+10	1	-1E+10	1
4902551	121	C	12/22/2023	03:06	-130.856	46.823	0	617.60	0	4.4250	0	34.1810	0	27.095	0	611.572	0	15.1	4	4.8	4	-1E+10	1	-1E+10	1	-1E+10	1	-1E+10	1	-1E+10	1	-1E+10	1
4902551	121	C	12/22/2023	03:06	-130.856	46.823	0	622.50	0	4.4210	0	34.1830	0	27.097	0	616.417	0	14.8	4	4.7	4	-1E+10	1	-1E+10	1	-1E+10	1	-1E+10	1	-1E+10	1	-1E+10	1
4902551	121	C	12/22/2023	03:06	-130.856	46.823	0	627.90	0	4.4150	0	34.1850	0	27.099	0	621.756	0	14.5	4	4.6	4	-1E+10	1	-1E+10	1	-1E+10	1	-1E+10	1	-1E+10	1	-1E+10	1
4902551	121	C	12/22/2023	03:06	-130.856	46.823	0	633.40	0	4.4120	0	34.1870	0	27.101	0	627.194	0	14.1	4	4.5	4	-1E+10	1	-1E+10	1	-1E+10	1	-1E+10	1	-1E+10	1	-1E+10	1
4902551	121	C	12/22/2023	03:06	-130.856	46.823	0	638.30	0	4.3890	0	34.1940	0	27.109	0	632.038	0	13.6	4	4.3	4	-1E+10	1	-1E+10	1	-1E+10	1	-1E+10	1	-1E+10	1	-1E+10	1
4902551	121	C	12/22/2023	03:06	-130.856	46.823	0	643.20	0	4.3760	0	34.1980	0	27.114	0	636.883	0	13.3	4	4.3	4	-1E+10	1	-1E+10	1	-1E+10	1	-1E+10	1	-1E+10	1	-1E+10	1
4902551	121	C	12/22/2023	03:06	-130.856	46.823	0	648.10	0	4.3660	0	34.2020	0	27.118	0	641.727	0	13.0	4	4.1	4	-1E+10	1	-1E+10	1	-1E+10	1	-1E+10	1	-1E+10	1	-1E+10	1
4902551	121	C	12/22/2023	03:06	-130.856	46.823	0	653.00	0	4.3640	0	34.2060	0	27.122	0	646.571	0	12.7	4	4.0	4	-1E+10	1	-1E+10	1	-1E+10	1	-1E+10	1	-1E+10	1	-1E+10	1
4902551	121	C	12/22/2023	03:06	-130.856	46.823	0	658.00	0	4.3340	0	34.2120	0	27.130	0	651.514	0	12.5	4	4.0	4	-1E+10	1	-1E+10	1	-1E+10	1	-1E+10	1	-1E+10	1	-1E+10	1
4902551	121	C	12/22/2023	03:06	-130.856	46.823	0	663.10	0	4.3260	0	34.2130	0	27.131	0	656.556	0	12.2	4	3.9	4	-1E+10	1	-1E+10	1	-1E+10	1	-1E+10	1	-1E+10	1	-1E+10	1
4902551	121	C	12/22/2023	03:06	-130.856	46.823	0	668.30	0	4.3140	0	34.2180	0	27.137	0	661.696	0	11.9	4	3.8	4	-1E+10	1	-1E+10	1	-1E+10	1	-1E+10	1	-1E+10	1	-1E+10	1
4902551	121	C	12/22/2023	03:06	-130.856	46.823	0	672.90	0	4.3370	0	34.2270	0	27.141	0	666.243	0	11.5	4	3.7	4	-1E+10	1	-1E+10	1	-1E+10	1	-1E+10	1	-1E+10	1	-1E+10	1
4902551	121	C	12/22/2023	03:06	-130.856	46.823	0	677.60	0	4.3490	0	34.2360	0	27.147	0	670.889	0	11.3	4	3.6	4	-1E+10	1	-1E+10	1	-1E+10	1	-1E+10	1	-1E+10	1	-1E+10	1
4902551	121	C	12/22/2023	03:06	-130.856	46.823	0	682.90	0	4.3400	0	34.2390	0	27.151	0	676.128	0	11.2	4	3.6	4	-1E+10	1	-1E+10	1	-1E+10	1	-1E+10	1	-1E+10	1	-1E+10	1
4902551	121	C	12/22/2023	03:06	-130.856	46.823	0	688.20	0	4.3350	0	34.2400	0	27.152	0	681.367	0	11.1	4	3.5	4	-1E+10	1	-1E+10	1	-1E+10	1	-1E+10	1	-1E+10	1	-1E+10	1
4902551	121	C	12/22/2023	03:06	-130.856	46.823	0	692.90	0	4.3240	0	34.2420	0	27.155	0	686.013	0	11.0	4	3.5	4	-1E+10	1	-1E+10	1	-1E+10	1	-1E+10	1	-1E+10	1	-1E+10	1
4902551	121	C	12/22/2023	03:06	-130.856	46.823	0	697.60	0	4.3060	0	34.2450	0	27.159	0	690.658	0	11.0	4	3.5	4	-1E+10	1	-1E+10	1	-1E+10	1	-1E+10	1	-1E+10	1	-1E+10	1
4902551	121	C	12/22/2023	03:06	-130.856	46.823	0	703.00	0	4.2750	0	34.2470	0	27.164	0	695.995	0	11.0	4	3.5	4	-1E+10	1	-1E+10	1	-1E+10	1	-1E+10	1	-1E+10	1	-1E+10	1
4902551	121	C	12/22/2023	03:06	-130.856	46.823	0	708.20	0	4.2500	0	34.2470	0	27.167	0	701.135	0	10.9	4	3.5	4	-1E+10	1	-1E+10	1	-1E+10	1	-1E+10	1	-1E+10	1	-1E+10	1
4902551	121	C	12/22/2023	03:06	-130.856	46.823	0	713.00	0	4.1760	0	34.2490	0	27.176	0	705.879	0	10.5	4	3.3	4	-1E+10	1	-1E+10	1	-1E+10	1	-1E+10	1	-1E+10	1	-1E+10	1
4902551	121	C	12/22/2023	03:06	-130.856	46.823	0	718.20	0	4.1950	0	34.2590	0	27.182	0	711.018	0	10.0	4	3.2	4	-1E+10	1	-1E+10	1	-1E+10	1	-1E+10	1	-1E+10	1	-1E+10	1
4902551	121	C	12/22/2023	03:06	-130.856	46.823	0	723.00	0	4.1950	0	34.2680	0	27.189	0	715.762	0	9.9	4	3.1	4	-1E+10	1	-1E+10	1	-1E+10	1	-1E+10	1	-1E+10	1	-1E+10	1
4902551	121	C	12/22/2023	03:06	-130.856	46.823	0	727.90	0	4.1800	0	34.2730	0	27.195	0	720.604	0	9.7	4	3.1	4	-1E+10	1	-1E+10	1	-1E+10	1	-1E+10	1	-1E+10	1	-1E+10	1
4902551	121	C	12/22/2023	03:06	-130.856	46.823	0	733.00	0	4.1570	0	34.2780	0	27.201	0	725.644	0	9.7	4	3.1	4	-1E+10	1	-1E+10	1	-1E+10	1	-1E+10	1	-1E+10	1	-1E+10	1
4902551	121	C	12/22/2023	03:06	-130.856	46.823	0	737.70	0	4.1510	0	34.2810	0	27.204	0	730.289	0	9.6	4	3.0	4	-1E+10	1	-1E+10	1	-1E+10	1	-1E+10	1	-1E+10	1	-1E+10	1
4902551	121	C	12/22/2023	03:06	-130.856	46.823	0	742.80	0	4.1460	0	34.2820	0	27.206	0	735.329	0	9.5	4	3.0	4	-1E+10	1	-1E+10	1	-1E+10	1	-1E+10	1	-1E+10	1	-1E+10	1
4902551	121	C	12/22/2023	03:06	-130.856	46.823	0	747.90	0	4.1340	0	34.2840	0	27.209	0	740.368	0	9.5	4	3.0	4	-1E+10	1	-1E+10	1	-1E+10	1	-1E+10	1	-1E+10	1	-1E+10	1
4902551	121	C	12/22/2023	03:06	-130.856	46.823	0	752.70	0	4.1120	0	34.2870	0	27.213	0	745.112	0	9.4	4	3.0	4	-1E+10	1	-1E+10	1	-1E+10	1	-1E+10	1	-1E+10	1	-1E+10	1
4902551	121	C	12/22/2023	03:06	-130.856	46.823	0	757.70	0	4.1040	0	34.2900	0	27.217	0	750.052	0	9.4	4	3.0	4	-1E+10	1	-1E+10	1	-1E+10	1	-1E+10	1	-1E+10	1	-1E+10	1
4902551	121	C	12/22/2023	03:06	-130.856	46.823	0	762.80	0	4.0910	0	34.2940	0	27.221	0	755.091	0	9.3	4	3.0	4	-1E+10	1	-1E+10	1	-1E+10	1	-1E+10	1	-1E+10	1	-1E+10	1
4902551	121	C	12/22/2023	03:06	-130.856	46.823	0	767.80	0	4.0710	0	34.2960	0	27.225	0	760.032	0	9.3	4	3.0	4	-1E+10	1	-1E+10	1	-1E+10	1	-1E+10	1	-1E+10	1	-1E+10	1
4902551	121	C	12/22/2023	03:06	-130.856	46.823	0	772.80	0	4.0660	0	34.2970	0	27.226	0	764.972	0	9.3	4	3.0	4	-1E+10	1	-1E+10	1	-1E+10	1	-1E+10	1	-1E+10	1	-1E+10	1
4902551	121	C	12/22/2023	03:06	-130.856	46.823	0	777.70	0	4.0570	0	34.2980	0	27.228	0	769.813	0	9.3	4	3.0	4	-1E+10	1	-1E+10	1	-1E+10	1	-1E+10	1	-1E+10	1	-1E+10	1
4902551	121	C	12/22/2023	03:06	-130.856	46.823	0	783.00	0	4.0330	0	34.3010	0	27.233	0	775.050	0	9.4	4	3.0	4	-1E+10	1	-1E+10	1	-1E+10	1	-1E+10	1	-1E+10	1	-1E+10	1
4902551	121	C	12/22/2023	03:06	-130.856	46.823	0	787.90	0	4.0180	0	34.3020	0	27.235	0	779.891	0	9.4	4	3.0	4	-1E+10	1	-1E+10	1	-1E+10	1	-1E+10	1	-1E+10	1	-1E+10	1
4902551	121	C	12/22/2023	03:06	-130.856	46.823	0	792.60	0	4.0110	0	34.3030	0	27.237	0	784.534	0	9.6	4	3.0	4	-1E+10	1	-1E+10	1	-1E+10	1	-1E+10	1	-1E+10	1	-1E+10	1
4902551	121	C	12/22/2023	03:06	-130.856	46.823	0	797.60	0	3.9670	0	34.3020	0	27.240	0	789.474	0	9.8	4	3.1	4	-1E+10	1	-1E+10	1	-1E+10	1	-1E+10	1	-1E+10	1	-1E+10	1
4902551	121	C	12/22/2023	03:06	-130.856	46.823	0	802.70	0	3.9170	0	34.3000	0	27.244	0	794.512	0	9.9	4	3.1	4	-1E+10	1	-1E+10	1	-1E+10	1	-1E+10	1	-1E+10	1	-1E+10	1
4902551	121	C	12/22/2023	03:06	-130.856	46.823	0	807.80	0	3.8630	0	34.3000	0	27.249	0	799.551	0	9.7	4	3.1	4	-1E+10	1	-1E+10	1	-1E+10	1	-1E+10	1	-1E+10	1	-1E+10	1
4902551	121	C	12/22/2023	03:06	-130.856	46.823	0	813.00	0	3.8670	0	34.3050	0	27.253	0	804.687	0	9.4	4	3.0	4	-1E+10	1	-1E+10	1	-1E+10	1	-1E+10	1	-1E+10	1	-1E+10	1
4902551	121	C	12/22/2023	03:06	-130.856	46.823	0	817.90	0	3.9110	0	34.3250	0	27.265	0	809.528	0	9.2	4	2.9	4	-1E+10	1	-1E+10	1	-1E+10	1	-1E+10	1	-1E+10	1	-1E+10	1
4902551	121	C	12/22/2023	03:06	-130.856	46.823	0	822.90	0	3.8610	0	34.3250	0	27.270	0	814.467	0	9.3	4	2.9	4	-1E+10	1	-1E+10	1	-1E+10	1	-1E+10	1	-1E+10	1	-1E+10	1
4902551	121	C	12/22/2023	03:06	-130.856	46.823	0	828.00	0	3.8700	0	34.3300	0	27.273	0	819.505	0	9.2	4	2.9	4	-1E+10	1	-1E+10	1	-1E+10	1	-1E+10	1	-1E+10	1	-1E+10	1
4902551	121	C	12/22/2023	03:06	-130.856	46.823	0	833.00	0	3.8670	0	34.3340	0	27.276	0	824.444	0	9.4	4	3.0	4	-1E+10	1	-1E+10	1	-1E+10	1	-1E+10	1	-1E+10	1	-1E+10	1
4902551	121	C	12/22/2023	03:06	-130.856	46.823	0	837.80	0	3.8260	0	34.3340	0	27.280	0	829.185	0	9.6	4	3.0	4	-1E+10	1	-1E+10	1	-1E+10	1	-1E+10	1	-1E+10	1	-1E+10	1
4902551	121	C	12/22/2023	03:06	-130.856	46.823	0	842.80	0	3.7820	0	34.3340	0	27.285	0	834.123	0	9.8	4	3.1	4	-1E+10	1	-1E+10	1	-1E+10	1	-1E+10	1	-1E+10	1	-1E+10	1
4902551	121	C	12/22/2023	03:06	-130.856	46.823	0	848.00	0	3.7110	0	34.3250	0	27.285	0	839.259	0	10.0	4	3.1	4	-1E+10	1	-1E+10	1	-1E+10	1	-1E+10	1	-1E+10	1	-1E+10	1
4902551	121	C	12/22/2023	03:06	-130.856	46.823	0	853.00	0	3.6850	0	34.3230	0	27.286	0	844.198	0	10.1	4	3.2	4	-1E+10	1	-1E+10	1	-1E+10	1	-1E+10	1	-1E+10	1	-1E+10	1
4902551	121	C	12/22/2023	03:06	-130.856	46.823	0	857.90	0	3.6590	0	34.3250	0	27.290	0	849.037	0	10.1	4	3.2	4	-1E+10	1	-1E+10	1	-1E+10	1	-1E+10	1	-1E+10	1	-1E+10	1
4902551	121	C	12/22/2023	03:06	-130.856	46.823	0	862.90	0	3.6060	0	34.3300	0	27.299	0	853.975	0	10.2	4	3.2	4	-1E+10	1	-1E+10	1	-1E+10	1	-1E+10	1	-1E+10	1	-1E+10	1
4902551	121	C	12/22/2023	03:06	-130.856	46.823	0	868.00	0	3.6010	0	34.3310	0	27.300	0	859.012	0	10.1	4	3.2	4	-1E+10	1	-1E+10	1	-1E+10	1	-1E+10	1	-1E+10	1	-1E+10	1
4902551	121	C	12/22/2023	03:06	-130.856	46.823	0	872.90	0	3.5940	0	34.3310	0	27.301	0	863.851	0	10.1	4	3.2	4	-1E+10	1	-1E+10	1	-1E+10	1	-1E+10	1	-1E+10	1	-1E+10	1
4902551	121	C	12/22/2023	03:06	-130.856	46.823	0	878.10	0	3.5750	0	34.3340	0	27.305	0	868.987	0	10.0	4	3.1	4	-1E+10	1	-1E+10	1	-1E+10	1	-1E+10	1	-1E+10	1	-1E+10	1
4902551	121	C	12/22/2023	03:06	-130.856	46.823	0	882.90	0	3.5790	0	34.3410	0	27.311	0	873.727	0	9.9	4	3.1	4	-1E+10	1	-1E+10	1	-1E+10	1	-1E+10	1	-1E+10	1	-1E+10	1
4902551	121	C	12/22/2023	03:06	-130.856	46.823	0	887.80	0	3.6060	0	34.3540	0	27.318	0	878.566	0	9.9	4	3.1	4	-1E+10	1	-1E+10	1	-1E+10	1	-1E+10	1	-1E+10	1	-1E+10	1
4902551	121	C	12/22/2023	03:06	-130.856	46.823	0	893.10	0	3.5920	0	34.3580	0	27.323	0	883.799	0	9.9	4	3.1	4	-1E+10	1	-1E+10	1	-1E+10	1	-1E+10	1	-1E+10	1	-1E+10	1
4902551	121	C	12/22/2023	03:06	-130.856	46.823	0	898.00	0	3.5710	0	34.3560	0	27.323	0	888.638	0	10.0	4	3.1	4	-1E+10	1	-1E+10	1	-1E+10	1	-1E+10	1	-1E+10	1	-1E+10	1
4902551	121	C	12/22/2023	03:06	-130.856	46.823	0	902.90	0	3.5290	0	34.3540	0	27.326	0	893.476	0	10.1	4	3.2	4	-1E+10	1	-1E+10	1	-1E+10	1	-1E+10	1	-1E+10	1	-1E+10	1
4902551	121	C	12/22/2023	03:06	-130.856	46.823	0	907.90	0	3.5120	0	34.3540	0	27.328	0	898.413	0	10.2	4	3.2	4	-1E+10	1	-1E+10	1	-1E+10	1	-1E+10	1	-1E+10	1	-1E+10	1
4902551	121	C	12/22/2023	03:06	-130.856	46.823	0	912.90	0	3.5050	0	34.3540	0	27.328	0	903.350	0	10.2	4	3.2	4	-1E+10	1	-1E+10	1	-1E+10	1	-1E+10	1	-1E+10	1	-1E+10	1
4902551	121	C	12/22/2023	03:06	-130.856	46.823	0	918.00	0	3.4940	0	34.3550	0	27.330	0	908.386	0	10.3	4	3.2	4	-1E+10	1	-1E+10	1	-1E+10	1	-1E+10	1	-1E+10	1	-1E+10	1
4902551	121	C	12/22/2023	03:06	-130.856	46.823	0	922.80	0	3.4840	0	34.3560	0	27.332	0	913.125	0	10.3	4	3.2	4	-1E+10	1	-1E+10	1	-1E+10	1	-1E+10	1	-1E+10	1	-1E+10	1
4902551	121	C	12/22/2023	03:06	-130.856	46.823	0	927.90	0	3.4620	0	34.3570	0	27.335	0	918.160	0	10.4	4	3.2	4	-1E+10	1	-1E+10	1	-1E+10	1	-1E+10	1	-1E+10	1	-1E+10	1
4902551	121	C	12/22/2023	03:06	-130.856	46.823	0	933.20	0	3.4480	0	34.3580	0	27.337	0	923.393	0	10.4	4	3.3	4	-1E+10	1	-1E+10	1	-1E+10	1	-1E+10	1	-1E+10	1	-1E+10	1
4902551	121	C	12/22/2023	03:06	-130.856	46.823	0	938.10	0	3.4350	0	34.3600	0	27.340	0	928.231	0	10.5	4	3.3	4	-1E+10	1	-1E+10	1	-1E+10	1	-1E+10	1	-1E+10	1	-1E+10	1
4902551	121	C	12/22/2023	03:06	-130.856	46.823	0	942.90	0	3.4290	0	34.3610	0	27.341	0	932.970	0	10.5	4	3.3	4	-1E+10	1	-1E+10	1	-1E+10	1	-1E+10	1	-1E+10	1	-1E+10	1
4902551	121	C	12/22/2023	03:06	-130.856	46.823	0	947.70	0	3.4140	0	34.3630	0	27.344	0	937.708	0	10.6	4	3.3	4	-1E+10	1	-1E+10	1	-1E+10	1	-1E+10	1	-1E+10	1	-1E+10	1
4902551	121	C	12/22/2023	03:06	-130.856	46.823	0	952.50	0	3.4020	0	34.3650	0	27.347	0	942.447	0	10.6	4	3.3	4	-1E+10	1	-1E+10	1	-1E+10	1	-1E+10	1	-1E+10	1	-1E+10	1
4902551	121	C	12/22/2023	03:06	-130.856	46.823	0	957.90	0	3.3930	0	34.3660	0	27.349	0	947.778	0	10.6	4	3.3	4	-1E+10	1	-1E+10	1	-1E+10	1	-1E+10	1	-1E+10	1	-1E+10	1
4902551	121	C	12/22/2023	03:06	-130.856	46.823	0	963.30	0	3.3880	0	34.3670	0	27.350	0	953.108	0	10.7	4	3.3	4	-1E+10	1	-1E+10	1	-1E+10	1	-1E+10	1	-1E+10	1	-1E+10	1
4902551	121	C	12/22/2023	03:06	-130.856	46.823	0	968.30	0	3.3820	0	34.3680	0	27.351	0	958.044	0	10.7	4	3.3	4	-1E+10	1	-1E+10	1	-1E+10	1	-1E+10	1	-1E+10	1	-1E+10	1
4902551	121	C	12/22/2023	03:06	-130.856	46.823	0	973.30	0	3.3770	0	34.3680	0	27.352	0	962.980	0	10.8	4	3.4	4	-1E+10	1	-1E+10	1	-1E+10	1	-1E+10	1	-1E+10	1	-1E+10	1
4902551	121	C	12/22/2023	03:06	-130.856	46.823	0	978.30	0	3.3710	0	34.3690	0	27.353	0	967.915	0	10.8	4	3.4	4	-1E+10	1	-1E+10	1	-1E+10	1	-1E+10	1	-1E+10	1	-1E+10	1
4902551	121	C	12/22/2023	03:06	-130.856	46.823	0	983.40	0	3.3640	0	34.3700	0	27.355	0	972.949	0	10.8	4	3.4	4	-1E+10	1	-1E+10	1	-1E+10	1	-1E+10	1	-1E+10	1	-1E+10	1
4902551	121	C	12/22/2023	03:06	-130.856	46.823	0	988.00	0	3.3580	0	34.3720	0	27.357	0	977.489	0	10.8	4	3.4	4	-1E+10	1	-1E+10	1	-1E+10	1	-1E+10	1	-1E+10	1	-1E+10	1
4902551	121	C	12/22/2023	03:06	-130.856	46.823	0	992.80	0	3.3550	0	34.3730	0	27.358	0	982.227	0	10.9	4	3.4	4	-1E+10	1	-1E+10	1	-1E+10	1	-1E+10	1	-1E+10	1	-1E+10	1
4902551	121	C	12/22/2023	03:06	-130.856	46.823	0	998.10	0	3.3520	0	34.3730	0	27.358	0	987.458	0	11.0	4	3.4	4	-1E+10	1	-1E+10	1	-1E+10	1	-1E+10	1	-1E+10	1	-1E+10	1
4902551	121	C	12/22/2023	03:06	-130.856	46.823	0	1005.50	0	3.3340	0	34.3760	0	27.363	0	994.762	0	11.1	4	3.4	4	-1E+10	1	-1E+10	1	-1E+10	1	-1E+10	1	-1E+10	1	-1E+10	1
4902551	121	C	12/22/2023	03:06	-130.856	46.823	0	1015.30	0	3.3020	0	34.3810	0	27.370	0	1004.434	0	11.2	4	3.5	4	-1E+10	1	-1E+10	1	-1E+10	1	-1E+10	1	-1E+10	1	-1E+10	1
4902551	121	C	12/22/2023	03:06	-130.856	46.823	0	1025.30	0	3.2770	0	34.3840	0	27.374	0	1014.302	0	11.3	4	3.5	4	-1E+10	1	-1E+10	1	-1E+10	1	-1E+10	1	-1E+10	1	-1E+10	1
4902551	121	C	12/22/2023	03:06	-130.856	46.823	0	1035.40	0	3.2460	0	34.3870	0	27.380	0	1024.269	0	11.5	4	3.6	4	-1E+10	1	-1E+10	1	-1E+10	1	-1E+10	1	-1E+10	1	-1E+10	1
4902551	121	C	12/22/2023	03:06	-130.856	46.823	0	1046.10	0	3.2230	0	34.3910	0	27.385	0	1034.828	0	11.5	4	3.6	4	-1E+10	1	-1E+10	1	-1E+10	1	-1E+10	1	-1E+10	1	-1E+10	1
4902551	121	C	12/22/2023	03:06	-130.856	46.823	0	1055.60	0	3.1860	0	34.3950	0	27.392	0	1044.202	0	11.6	4	3.6	4	-1E+10	1	-1E+10	1	-1E+10	1	-1E+10	1	-1E+10	1	-1E+10	1
4902551	121	C	12/22/2023	03:06	-130.856	46.823	0	1065.30	0	3.1480	0	34.3980	0	27.398	0	1053.773	0	11.8	4	3.6	4	-1E+10	1	-1E+10	1	-1E+10	1	-1E+10	1	-1E+10	1	-1E+10	1
4902551	121	C	12/22/2023	03:06	-130.856	46.823	0	1075.20	0	3.1170	0	34.4020	0	27.404	0	1063.541	0	12.1	4	3.7	4	-1E+10	1	-1E+10	1	-1E+10	1	-1E+10	1	-1E+10	1	-1E+10	1
4902551	121	C	12/22/2023	03:06	-130.856	46.823	0	1085.00	0	3.1050	0	34.4080	0	27.410	0	1073.209	0	12.4	4	3.8	4	-1E+10	1	-1E+10	1	-1E+10	1	-1E+10	1	-1E+10	1	-1E+10	1
4902551	121	C	12/22/2023	03:06	-130.856	46.823	0	1095.10	0	3.0960	0	34.4130	0	27.415	0	1083.174	0	12.6	4	3.9	4	-1E+10	1	-1E+10	1	-1E+10	1	-1E+10	1	-1E+10	1	-1E+10	1
4902551	121	C	12/22/2023	03:06	-130.856	46.823	0	1105.50	0	3.0860	0	34.4160	0	27.418	0	1093.433	0	12.8	4	4.0	4	-1E+10	1	-1E+10	1	-1E+10	1	-1E+10	1	-1E+10	1	-1E+10	1
4902551	121	C	12/22/2023	03:06	-130.856	46.823	0	1115.70	0	3.0700	0	34.4200	0	27.423	0	1103.495	0	12.9	4	4.0	4	-1E+10	1	-1E+10	1	-1E+10	1	-1E+10	1	-1E+10	1	-1E+10	1
4902551	121	C	12/22/2023	03:06	-130.856	46.823	0	1125.50	0	3.0630	0	34.4210	0	27.424	0	1113.162	0	13.1	4	4.0	4	-1E+10	1	-1E+10	1	-1E+10	1	-1E+10	1	-1E+10	1	-1E+10	1
4902551	121	C	12/22/2023	03:06	-130.856	46.823	0	1135.50	0	3.0490	0	34.4250	0	27.429	0	1123.026	0	13.3	4	4.1	4	-1E+10	1	-1E+10	1	-1E+10	1	-1E+10	1	-1E+10	1	-1E+10	1
4902551	121	C	12/22/2023	03:06	-130.856	46.823	0	1145.30	0	3.0310	0	34.4280	0	27.433	0	1132.692	0	13.6	4	4.2	4	-1E+10	1	-1E+10	1	-1E+10	1	-1E+10	1	-1E+10	1	-1E+10	1
4902551	121	C	12/22/2023	03:06	-130.856	46.823	0	1155.40	0	3.0070	0	34.4320	0	27.438	0	1142.653	0	13.9	4	4.3	4	-1E+10	1	-1E+10	1	-1E+10	1	-1E+10	1	-1E+10	1	-1E+10	1
4902551	121	C	12/22/2023	03:06	-130.856	46.823	0	1165.40	0	2.9830	0	34.4360	0	27.444	0	1152.515	0	14.1	4	4.4	4	-1E+10	1	-1E+10	1	-1E+10	1	-1E+10	1	-1E+10	1	-1E+10	1
4902551	121	C	12/22/2023	03:06	-130.856	46.823	0	1175.50	0	2.9710	0	34.4370	0	27.446	0	1162.476	0	14.3	4	4.4	4	-1E+10	1	-1E+10	1	-1E+10	1	-1E+10	1	-1E+10	1	-1E+10	1
4902551	121	C	12/22/2023	03:06	-130.856	46.823	0	1185.50	0	2.9580	0	34.4390	0	27.448	0	1172.337	0	14.6	4	4.5	4	-1E+10	1	-1E+10	1	-1E+10	1	-1E+10	1	-1E+10	1	-1E+10	1
4902551	121	C	12/22/2023	03:06	-130.856	46.823	0	1195.20	0	2.9440	0	34.4410	0	27.451	0	1181.902	0	15.0	4	4.6	4	-1E+10	1	-1E+10	1	-1E+10	1	-1E+10	1	-1E+10	1	-1E+10	1
4902551	121	C	12/22/2023	03:06	-130.856	46.823	0	1205.30	0	2.9120	0	34.4460	0	27.458	0	1191.861	0	15.6	4	4.8	4	-1E+10	1	-1E+10	1	-1E+10	1	-1E+10	1	-1E+10	1	-1E+10	1
4902551	121	C	12/22/2023	03:06	-130.856	46.823	0	1215.20	0	2.8750	0	34.4520	0	27.466	0	1201.622	0	16.1	4	5.0	4	-1E+10	1	-1E+10	1	-1E+10	1	-1E+10	1	-1E+10	1	-1E+10	1
4902551	121	C	12/22/2023	03:06	-130.856	46.823	0	1225.30	0	2.8600	0	34.4550	0	27.470	0	1211.580	0	16.4	4	5.0	4	-1E+10	1	-1E+10	1	-1E+10	1	-1E+10	1	-1E+10	1	-1E+10	1
4902551	121	C	12/22/2023	03:06	-130.856	46.823	0	1235.60	0	2.8550	0	34.4570	0	27.472	0	1221.735	0	16.5	4	5.1	4	-1E+10	1	-1E+10	1	-1E+10	1	-1E+10	1	-1E+10	1	-1E+10	1
4902551	121	C	12/22/2023	03:06	-130.856	46.823	0	1245.40	0	2.8550	0	34.4560	0	27.472	0	1231.397	0	16.5	4	5.1	4	-1E+10	1	-1E+10	1	-1E+10	1	-1E+10	1	-1E+10	1	-1E+10	1
4902551	121	C	12/22/2023	03:06	-130.856	46.823	0	1255.70	0	2.8540	0	34.4570	0	27.473	0	1241.550	0	16.6	4	5.1	4	-1E+10	1	-1E+10	1	-1E+10	1	-1E+10	1	-1E+10	1	-1E+10	1
4902551	121	C	12/22/2023	03:06	-130.856	46.823	0	1265.20	0	2.8520	0	34.4570	0	27.473	0	1250.915	0	17.0	4	5.2	4	-1E+10	1	-1E+10	1	-1E+10	1	-1E+10	1	-1E+10	1	-1E+10	1
4902551	121	C	12/22/2023	03:06	-130.856	46.823	0	1275.60	0	2.8200	0	34.4630	0	27.480	0	1261.167	0	17.6	4	5.4	4	-1E+10	1	-1E+10	1	-1E+10	1	-1E+10	1	-1E+10	1	-1E+10	1
4902551	121	C	12/22/2023	03:06	-130.856	46.823	0	1285.70	0	2.8020	0	34.4650	0	27.484	0	1271.122	0	18.0	4	5.5	4	-1E+10	1	-1E+10	1	-1E+10	1	-1E+10	1	-1E+10	1	-1E+10	1
4902551	121	C	12/22/2023	03:06	-130.856	46.823	0	1295.60	0	2.7850	0	34.4670	0	27.487	0	1280.879	0	18.6	4	5.7	4	-1E+10	1	-1E+10	1	-1E+10	1	-1E+10	1	-1E+10	1	-1E+10	1
4902551	121	C	12/22/2023	03:06	-130.856	46.823	0	1303.50	0	2.7470	0	34.4740	0	27.496	0	1288.666	0	19.4	4	6.0	4	-1E+10	1	-1E+10	1	-1E+10	1	-1E+10	1	-1E+10	1	-1E+10	1
4902551	121	C	12/22/2023	03:06	-130.856	46.823	0																										
4902551	122	C	01/01/2024	09:06	-130.733	46.685	0	0.40	0	10.5860	0	32.2710	0	24.723	0	0.397	0	253.8	4	91.8	4	-1E+10	1	-1E+10	1	-1E+10	1	-1E+10	1	-1E+10	1	-1E+10	1
4902551	122	C	01/01/2024	09:06	-130.733	46.685	0	0.90	0	10.5885	0	32.2693	0	24.722	0	0.893	0	253.8	4	91.8	4	-1E+10	1	-1E+10	1	-1E+10	1	-1E+10	1	-1E+10	1	-1E+10	1
4902551	122	C	01/01/2024	09:06	-130.733	46.685	0	1.00	0	10.5890	0	32.2690	0	24.721	0	0.992	0	-1e10	1	-1e10	1	-1E+10	1	-1E+10	1	-1E+10	1	-1E+10	1	-1E+10	1	-1E+10	1
4902551	122	C	01/01/2024	09:06	-130.733	46.685	0	1.10	0	10.5892	0	32.2690	0	24.721	0	1.091	0	253.8	4	91.8	4	-1E+10	1	-1E+10	1	-1E+10	1	-1E+10	1	-1E+10	1	-1E+10	1
4902551	122	C	01/01/2024	09:06	-130.733	46.685	0	1.40	0	10.5897	0	32.2690	0	24.721	0	1.388	0	-1e10	1	-1e10	1	-1E+10	1	-1E+10	1	-1E+10	1	-1E+10	1	-1E+10	1	-1E+10	1
4902551	122	C	01/01/2024	09:06	-130.733	46.685	0	1.60	0	10.5901	0	32.2690	0	24.721	0	1.587	0	-1e10	1	-1e10	1	-1E+10	1	-1E+10	1	-1E+10	1	-1E+10	1	-1E+10	1	-1E+10	1
4902551	122	C	01/01/2024	09:06	-130.733	46.685	0	1.70	0	10.5903	0	32.2690	0	24.721	0	1.686	0	-1e10	1	-1e10	1	-1E+10	1	-1E+10	1	-1E+10	1	-1E+10	1	-1E+10	1	-1E+10	1
4902551	122	C	01/01/2024	09:06	-130.733	46.685	0	2.10	0	10.5910	0	32.2690	0	24.721	0	2.083	0	253.7	4	91.8	4	-1E+10	1	-1E+10	1	-1E+10	1	-1E+10	1	-1E+10	1	-1E+10	1
4902551	122	C	01/01/2024	09:06	-130.733	46.685	0	2.80	0	10.5910	0	32.2680	0	24.720	0	2.777	0	253.7	4	91.8	4	-1E+10	1	-1E+10	1	-1E+10	1	-1E+10	1	-1E+10	1	-1E+10	1
4902551	122	C	01/01/2024	09:06	-130.733	46.685	0	3.70	0	10.5910	0	32.2690	0	24.721	0	3.669	0	253.7	4	91.7	4	-1E+10	1	-1E+10	1	-1E+10	1	-1E+10	1	-1E+10	1	-1E+10	1
4902551	122	C	01/01/2024	09:06	-130.733	46.685	0	4.90	0	10.5900	0	32.2700	0	24.722	0	4.859	0	253.6	4	91.7	4	-1E+10	1	-1E+10	1	-1E+10	1	-1E+10	1	-1E+10	1	-1E+10	1
4902551	122	C	01/01/2024	09:06	-130.733	46.685	0	6.00	0	10.5910	0	32.2700	0	24.722	0	5.950	0	253.6	4	91.7	4	-1E+10	1	-1E+10	1	-1E+10	1	-1E+10	1	-1E+10	1	-1E+10	1
4902551	122	C	01/01/2024	09:06	-130.733	46.685	0	7.20	0	10.5910	0	32.2700	0	24.722	0	7.140	0	253.6	4	91.7	4	-1E+10	1	-1E+10	1	-1E+10	1	-1E+10	1	-1E+10	1	-1E+10	1
4902551	122	C	01/01/2024	09:06	-130.733	46.685	0	7.80	0	10.5910	0	32.2700	0	24.722	0	7.735	0	253.5	4	91.7	4	-1E+10	1	-1E+10	1	-1E+10	1	-1E+10	1	-1E+10	1	-1E+10	1
4902551	122	C	01/01/2024	09:06	-130.733	46.685	0	8.80	0	10.5920	0	32.2700	0	24.722	0	8.727	0	253.5	4	91.7	4	-1E+10	1	-1E+10	1	-1E+10	1	-1E+10	1	-1E+10	1	-1E+10	1
4902551	122	C	01/01/2024	09:06	-130.733	46.685	0	9.80	0	10.5920	0	32.2700	0	24.722	0	9.719	0	253.5	4	91.7	4	-1E+10	1	-1E+10	1	-1E+10	1	-1E+10	1	-1E+10	1	-1E+10	1
4902551	122	C	01/01/2024	09:06	-130.733	46.685	0	11.00	0	10.5920	0	32.2700	0	24.722	0	10.909	0	253.4	4	91.7	4	-1E+10	1	-1E+10	1	-1E+10	1	-1E+10	1	-1E+10	1	-1E+10	1
4902551	122	C	01/01/2024	09:06	-130.733	46.685	0	12.20	0	10.5930	0	32.2700	0	24.722	0	12.099	0	253.4	4	91.6	4	-1E+10	1	-1E+10	1	-1E+10	1	-1E+10	1	-1E+10	1	-1E+10	1
4902551	122	C	01/01/2024	09:06	-130.733	46.685	0	12.80	0	10.5920	0	32.2700	0	24.722	0	12.694	0	253.4	4	91.6	4	-1E+10	1	-1E+10	1	-1E+10	1	-1E+10	1	-1E+10	1	-1E+10	1
4902551	122	C	01/01/2024	09:06	-130.733	46.685	0	13.90	0	10.5930	0	32.2700	0	24.722	0	13.785	0	253.4	4	91.6	4	-1E+10	1	-1E+10	1	-1E+10	1	-1E+10	1	-1E+10	1	-1E+10	1
4902551	122	C	01/01/2024	09:06	-130.733	46.685	0	15.20	0	10.5930	0	32.2690	0	24.721	0	15.074	0	253.3	4	91.6	4	-1E+10	1	-1E+10	1	-1E+10	1	-1E+10	1	-1E+10	1	-1E+10	1
4902551	122	C	01/01/2024	09:06	-130.733	46.685	0	15.90	0	10.5930	0	32.2700	0	24.722	0	15.768	0	253.3	4	91.6	4	-1E+10	1	-1E+10	1	-1E+10	1	-1E+10	1	-1E+10	1	-1E+10	1
4902551	122	C	01/01/2024	09:06	-130.733	46.685	0	16.80	0	10.5930	0	32.2700	0	24.722	0	16.660	0	253.3	4	91.6	4	-1E+10	1	-1E+10	1	-1E+10	1	-1E+10	1	-1E+10	1	-1E+10	1
4902551	122	C	01/01/2024	09:06	-130.733	46.685	0	17.80	0	10.5930	0	32.2700	0	24.722	0	17.652	0	253.3	4	91.6	4	-1E+10	1	-1E+10	1	-1E+10	1	-1E+10	1	-1E+10	1	-1E+10	1
4902551	122	C	01/01/2024	09:06	-130.733	46.685	0	18.80	0	10.5920	0	32.2700	0	24.722	0	18.644	0	253.3	4	91.6	4	-1E+10	1	-1E+10	1	-1E+10	1	-1E+10	1	-1E+10	1	-1E+10	1
4902551	122	C	01/01/2024	09:06	-130.733	46.685	0	19.80	0	10.5920	0	32.2700	0	24.722	0	19.635	0	253.3	4	91.6	4	-1E+10	1	-1E+10	1	-1E+10	1	-1E+10	1	-1E+10	1	-1E+10	1
4902551	122	C	01/01/2024	09:06	-130.733	46.685	0	20.80	0	10.5920	0	32.2700	0	24.722	0	20.627	0	253.2	4	91.6	4	-1E+10	1	-1E+10	1	-1E+10	1	-1E+10	1	-1E+10	1	-1E+10	1
4902551	122	C	01/01/2024	09:06	-130.733	46.685	0	21.80	0	10.5940	0	32.2700	0	24.722	0	21.619	0	253.2	4	91.6	4	-1E+10	1	-1E+10	1	-1E+10	1	-1E+10	1	-1E+10	1	-1E+10	1
4902551	122	C	01/01/2024	09:06	-130.733	46.685	0	22.80	0	10.5930	0	32.2700	0	24.722	0	22.610	0	253.2	4	91.6	4	-1E+10	1	-1E+10	1	-1E+10	1	-1E+10	1	-1E+10	1	-1E+10	1
4902551	122	C	01/01/2024	09:06	-130.733	46.685	0	23.80	0	10.5930	0	32.2700	0	24.722	0	23.602	0	253.1	4	91.5	4	-1E+10	1	-1E+10	1	-1E+10	1	-1E+10	1	-1E+10	1	-1E+10	1
4902551	122	C	01/01/2024	09:06	-130.733	46.685	0	24.90	0	10.5930	0	32.2700	0	24.722	0	24.693	0	253.1	4	91.5	4	-1E+10	1	-1E+10	1	-1E+10	1	-1E+10	1	-1E+10	1	-1E+10	1
4902551	122	C	01/01/2024	09:06	-130.733	46.685	0	26.00	0	10.5940	0	32.2700	0	24.722	0	25.783	0	253.1	4	91.5	4	-1E+10	1	-1E+10	1	-1E+10	1	-1E+10	1	-1E+10	1	-1E+10	1
4902551	122	C	01/01/2024	09:06	-130.733	46.685	0	27.10	0	10.5940	0	32.2700	0	24.722	0	26.874	0	253.1	4	91.5	4	-1E+10	1	-1E+10	1	-1E+10	1	-1E+10	1	-1E+10	1	-1E+10	1
4902551	122	C	01/01/2024	09:06	-130.733	46.685	0	28.10	0	10.5940	0	32.2700	0	24.722	0	27.866	0	253.0	4	91.5	4	-1E+10	1	-1E+10	1	-1E+10	1	-1E+10	1	-1E+10	1	-1E+10	1
4902551	122	C	01/01/2024	09:06	-130.733	46.685	0	29.00	0	10.5940	0	32.2700	0	24.722	0	28.758	0	253.0	4	91.5	4	-1E+10	1	-1E+10	1	-1E+10	1	-1E+10	1	-1E+10	1	-1E+10	1
4902551	122	C	01/01/2024	09:06	-130.733	46.685	0	29.90	0	10.5940	0	32.2700	0	24.722	0	29.651	0	252.9	4	91.5	4	-1E+10	1	-1E+10	1	-1E+10	1	-1E+10	1	-1E+10	1	-1E+10	1
4902551	122	C	01/01/2024	09:06	-130.733	46.685	0	30.80	0	10.5940	0	32.2700	0	24.722	0	30.543	0	252.9	4	91.5	4	-1E+10	1	-1E+10	1	-1E+10	1	-1E+10	1	-1E+10	1	-1E+10	1
4902551	122	C	01/01/2024	09:06	-130.733	46.685	0	31.70	0	10.5950	0	32.2700	0	24.722	0	31.435	0	252.9	4	91.5	4	-1E+10	1	-1E+10	1	-1E+10	1	-1E+10	1	-1E+10	1	-1E+10	1
4902551	122	C	01/01/2024	09:06	-130.733	46.685	0	33.10	0	10.5960	0	32.2700	0	24.722	0	32.824	0	252.8	4	91.4	4	-1E+10	1	-1E+10	1	-1E+10	1	-1E+10	1	-1E+10	1	-1E+10	1
4902551	122	C	01/01/2024	09:06	-130.733	46.685	0	34.10	0	10.5940	0	32.2700	0	24.722	0	33.815	0	252.8	4	91.4	4	-1E+10	1	-1E+10	1	-1E+10	1	-1E+10	1	-1E+10	1	-1E+10	1
4902551	122	C	01/01/2024	09:06	-130.733	46.685	0	35.00	0	10.5950	0	32.2700	0	24.722	0	34.708	0	252.7	4	91.4	4	-1E+10	1	-1E+10	1	-1E+10	1	-1E+10	1	-1E+10	1	-1E+10	1
4902551	122	C	01/01/2024	09:06	-130.733	46.685	0	36.10	0	10.5950	0	32.2700	0	24.722	0	35.798	0	252.6	4	91.4	4	-1E+10	1	-1E+10	1	-1E+10	1	-1E+10	1	-1E+10	1	-1E+10	1
4902551	122	C	01/01/2024	09:06	-130.733	46.685	0	36.90	0	10.5950	0	32.2700	0	24.722	0	36.592	0	252.5	4	91.3	4	-1E+10	1	-1E+10	1	-1E+10	1	-1E+10	1	-1E+10	1	-1E+10	1
4902551	122	C	01/01/2024	09:06	-130.733	46.685	0	37.90	0	10.5950	0	32.2700	0	24.722	0	37.583	0	252.5	4	91.3	4	-1E+10	1	-1E+10	1	-1E+10	1	-1E+10	1	-1E+10	1	-1E+10	1
4902551	122	C	01/01/2024	09:06	-130.733	46.685	0	39.00	0	10.5950	0	32.2700	0	24.722	0	38.674	0	252.3	4	91.3	4	-1E+10	1	-1E+10	1	-1E+10	1	-1E+10	1	-1E+10	1	-1E+10	1
4902551	122	C	01/01/2024	09:06	-130.733	46.685	0	40.10	0	10.5950	0	32.2700	0	24.722	0	39.764	0	252.2	4	91.2	4	-1E+10	1	-1E+10	1	-1E+10	1	-1E+10	1	-1E+10	1	-1E+10	1
4902551	122	C	01/01/2024	09:06	-130.733	46.685	0	41.00	0	10.5960	0	32.2700	0	24.722	0	40.657	0	252.2	4	91.2	4	-1E+10	1	-1E+10	1	-1E+10	1	-1E+10	1	-1E+10	1	-1E+10	1
4902551	122	C	01/01/2024	09:06	-130.733	46.685	0	41.90	0	10.5960	0	32.2700	0	24.722	0	41.549	0	252.1	4	91.2	4	-1E+10	1	-1E+10	1	-1E+10	1	-1E+10	1	-1E+10	1	-1E+10	1
4902551	122	C	01/01/2024	09:06	-130.733	46.685	0	43.00	0	10.5960	0	32.2700	0	24.722	0	42.640	0	251.9	4	91.1	4	-1E+10	1	-1E+10	1	-1E+10	1	-1E+10	1	-1E+10	1	-1E+10	1
4902551	122	C	01/01/2024	09:06	-130.733	46.685	0	43.90	0	10.5960	0	32.2700	0	24.722	0	43.532	0	251.8	4	91.1	4	-1E+10	1	-1E+10	1	-1E+10	1	-1E+10	1	-1E+10	1	-1E+10	1
4902551	122	C	01/01/2024	09:06	-130.733	46.685	0	44.80	0	10.5960	0	32.2700	0	24.722	0	44.425	0	251.7	4	91.0	4	-1E+10	1	-1E+10	1	-1E+10	1	-1E+10	1	-1E+10	1	-1E+10	1
4902551	122	C	01/01/2024	09:06	-130.733	46.685	0	45.80	0	10.5960	0	32.2700	0	24.722	0	45.416	0	251.5	4	91.0	4	-1E+10	1	-1E+10	1	-1E+10	1	-1E+10	1	-1E+10	1	-1E+10	1
4902551	122	C	01/01/2024	09:06	-130.733	46.685	0	46.80	0	10.5960	0	32.2700	0	24.722	0	46.408	0	251.3	4	90.9	4	-1E+10	1	-1E+10	1	-1E+10	1	-1E+10	1	-1E+10	1	-1E+10	1
4902551	122	C	01/01/2024	09:06	-130.733	46.685	0	47.90	0	10.5950	0	32.2700	0	24.722	0	47.498	0	251.1	4	90.8	4	-1E+10	1	-1E+10	1	-1E+10	1	-1E+10	1	-1E+10	1	-1E+10	1
4902551	122	C	01/01/2024	09:06	-130.733	46.685	0	49.00	0	10.5940	0	32.2700	0	24.722	0	48.589	0	250.9	4	90.7	4	-1E+10	1	-1E+10	1	-1E+10	1	-1E+10	1	-1E+10	1	-1E+10	1
4902551	122	C	01/01/2024	09:06	-130.733	46.685	0	49.90	0	10.5860	0	32.2750	0	24.728	0	49.481	0	250.7	4	90.7	4	-1E+10	1	-1E+10	1	-1E+10	1	-1E+10	1	-1E+10	1	-1E+10	1
4902551	122	C	01/01/2024	09:06	-130.733	46.685	0	50.70	0	10.5850	0	32.2750	0	24.728	0	50.274	0	250.6	4	90.6	4	-1E+10	1	-1E+10	1	-1E+10	1	-1E+10	1	-1E+10	1	-1E+10	1
4902551	122	C	01/01/2024	09:06	-130.733	46.685	0	51.80	0	10.5780	0	32.2770	0	24.730	0	51.365	0	250.4	4	90.5	4	-1E+10	1	-1E+10	1	-1E+10	1	-1E+10	1	-1E+10	1	-1E+10	1
4902551	122	C	01/01/2024	09:06	-130.733	46.685	0	52.80	0	10.5690	0	32.2810	0	24.735	0	52.357	0	250.2	4	90.5	4	-1E+10	1	-1E+10	1	-1E+10	1	-1E+10	1	-1E+10	1	-1E+10	1
4902551	122	C	01/01/2024	09:06	-130.733	46.685	0	53.90	0	10.5530	0	32.2850	0	24.741	0	53.447	0	250.0	4	90.4	4	-1E+10	1	-1E+10	1	-1E+10	1	-1E+10	1	-1E+10	1	-1E+10	1
4902551	122	C	01/01/2024	09:06	-130.733	46.685	0	55.00	0	10.5510	0	32.2850	0	24.741	0	54.538	0	249.7	4	90.3	4	-1E+10	1	-1E+10	1	-1E+10	1	-1E+10	1	-1E+10	1	-1E+10	1
4902551	122	C	01/01/2024	09:06	-130.733	46.685	0	56.00	0	10.5490	0	32.2860	0	24.743	0	55.529	0	249.4	4	90.1	4	-1E+10	1	-1E+10	1	-1E+10	1	-1E+10	1	-1E+10	1	-1E+10	1
4902551	122	C	01/01/2024	09:06	-130.733	46.685	0	57.10	0	10.5470	0	32.2860	0	24.743	0	56.620	0	249.0	4	90.0	4	-1E+10	1	-1E+10	1	-1E+10	1	-1E+10	1	-1E+10	1	-1E+10	1
4902551	122	C	01/01/2024	09:06	-130.733	46.685	0	58.00	0	10.5450	0	32.2870	0	24.744	0	57.512	0	248.8	4	89.9	4	-1E+10	1	-1E+10	1	-1E+10	1	-1E+10	1	-1E+10	1	-1E+10	1
4902551	122	C	01/01/2024	09:06	-130.733	46.685	0	58.80	0	10.5440	0	32.2870	0	24.744	0	58.305	0	248.4	4	89.8	4	-1E+10	1	-1E+10	1	-1E+10	1	-1E+10	1	-1E+10	1	-1E+10	1
4902551	122	C	01/01/2024	09:06	-130.733	46.685	0	60.00	0	10.5420	0	32.2880	0	24.745	0	59.495	0	247.8	4	89.5	4	-1E+10	1	-1E+10	1	-1E+10	1	-1E+10	1	-1E+10	1	-1E+10	1
4902551	122	C	01/01/2024	09:06	-130.733	46.685	0	60.90	0	10.5420	0	32.2880	0	24.745	0	60.387	0	247.2	4	89.3	4	-1E+10	1	-1E+10	1	-1E+10	1	-1E+10	1	-1E+10	1	-1E+10	1
4902551	122	C	01/01/2024	09:06	-130.733	46.685	0	61.80	0	10.5380	0	32.2890	0	24.747	0	61.280	0	246.6	4	89.1	4	-1E+10	1	-1E+10	1	-1E+10	1	-1E+10	1	-1E+10	1	-1E+10	1
4902551	122	C	01/01/2024	09:06	-130.733	46.685	0	63.00	0	10.5290	0	32.2910	0	24.750	0	62.469	0	245.7	4	88.8	4	-1E+10	1	-1E+10	1	-1E+10	1	-1E+10	1	-1E+10	1	-1E+10	1
4902551	122	C	01/01/2024	09:06	-130.733	46.685	0	63.90	0	10.5180	0	32.2930	0	24.753	0	63.362	0	244.9	4	88.5	4	-1E+10	1	-1E+10	1	-1E+10	1	-1E+10	1	-1E+10	1	-1E+10	1
4902551	122	C	01/01/2024	09:06	-130.733	46.685	0	64.90	0	10.5030	0	32.2940	0	24.757	0	64.353	0	244.0	4	88.1	4	-1E+10	1	-1E+10	1	-1E+10	1	-1E+10	1	-1E+10	1	-1E+10	1
4902551	122	C	01/01/2024	09:06	-130.733	46.685	0	66.10	0	10.4890	0	32.2950	0	24.760	0	65.543	0	242.7	4	87.6	4	-1E+10	1	-1E+10	1	-1E+10	1	-1E+10	1	-1E+10	1	-1E+10	1
4902551	122	C	01/01/2024	09:06	-130.733	46.685	0	66.90	0	10.4820	0	32.2980	0	24.764	0	66.336	0	241.6	4	87.2	4	-1E+10	1	-1E+10	1	-1E+10	1	-1E+10	1	-1E+10	1	-1E+10	1
4902551	122	C	01/01/2024	09:06	-130.733	46.685	0	67.80	0	10.4730	0	32.2980	0	24.765	0	67.228	0	240.1	4	86.6	4	-1E+10	1	-1E+10	1	-1E+10	1	-1E+10	1	-1E+10	1	-1E+10	1
4902551	122	C	01/01/2024	09:06	-130.733	46.685	0	69.00	0	10.4600	0	32.3000	0	24.769	0	68.418	0	237.8	4	85.8	4	-1E+10	1	-1E+10	1	-1E+10	1	-1E+10	1	-1E+10	1	-1E+10	1
4902551	122	C	01/01/2024	09:06	-130.733	46.685	0	70.00	0	10.3700	0	32.3060	0	24.789	0	69.409	0	231.4	4	83.3	4	-1E+10	1	-1E+10	1	-1E+10	1	-1E+10	1	-1E+10	1	-1E+10	1
4902551	122	C	01/01/2024	09:06	-130.733	46.685	0	70.90	0	9.8620	0	32.4070	0	24.952	0	70.301	0	226.3	4	80.6	4	-1E+10	1	-1E+10	1	-1E+10	1	-1E+10	1	-1E+10	1	-1E+10	1
4902551	122	C	01/01/2024	09:06	-130.733	46.685	0	72.00	0	9.2150	0	32.5080	0	25.135	0	71.392	0	225.8	4	79.4	4	-1E+10	1	-1E+10	1	-1E+10	1	-1E+10	1	-1E+10	1	-1E+10	1
4902551	122	C	01/01/2024	09:06	-130.733	46.685	0	73.20	0	9.0720	0	32.5250	0	25.171	0	72.582	0	225.6	4	79.1	4	-1E+10	1	-1E+10	1	-1E+10	1	-1E+10	1	-1E+10	1	-1E+10	1
4902551	122	C	01/01/2024	09:06	-130.733	46.685	0	74.00	0	8.9530	0	32.5450	0	25.205	0	73.375	0	225.5	4	78.8	4	-1E+10	1	-1E+10	1	-1E+10	1	-1E+10	1	-1E+10	1	-1E+10	1
4902551	122	C	01/01/2024	09:06	-130.733	46.685	0	75.30	0	8.6740	0	32.5730	0	25.270	0	74.664	0	225.6	4	78.4	4	-1E+10	1	-1E+10	1	-1E+10	1	-1E+10	1	-1E+10	1	-1E+10	1
4902551	122	C	01/01/2024	09:06	-130.733	46.685	0	76.10	0	8.5590	0	32.5640	0	25.280	0	75.457	0	225.2	4	78.1	4	-1E+10	1	-1E+10	1	-1E+10	1	-1E+10	1	-1E+10	1	-1E+10	1
4902551	122	C	01/01/2024	09:06	-130.733	46.685	0	77.10	0	8.3730	0	32.5660	0	25.309	0	76.448	0	230.2	4	79.5	4	-1E+10	1	-1E+10	1	-1E+10	1	-1E+10	1	-1E+10	1	-1E+10	1
4902551	122	C	01/01/2024	09:06	-130.733	46.685	0	77.90	0	8.2560	0	32.5760	0	25.335	0	77.241	0	228.6	4	78.7	4	-1E+10	1	-1E+10	1	-1E+10	1	-1E+10	1	-1E+10	1	-1E+10	1
4902551	122	C	01/01/2024	09:06	-130.733	46.685	0	79.00	0	8.2140	0	32.5880	0	25.350	0	78.332	0	226.1	4	77.8	4	-1E+10	1	-1E+10	1	-1E+10	1	-1E+10	1	-1E+10	1	-1E+10	1
4902551	122	C	01/01/2024	09:06	-130.733	46.685	0	79.90	0	8.1460	0	32.6040	0	25.373	0	79.224	0	224.4	4	77.1	4	-1E+10	1	-1E+10	1	-1E+10	1	-1E+10	1	-1E+10	1	-1E+10	1
4902551	122	C	01/01/2024	09:06	-130.733	46.685	0	80.90	0	8.0090	0	32.6290	0	25.412	0	80.215	0	222.2	4	76.1	4	-1E+10	1	-1E+10	1	-1E+10	1	-1E+10	1	-1E+10	1	-1E+10	1
4902551	122	C	01/01/2024	09:06	-130.733	46.685	0	82.10	0	7.8760	0	32.6620	0	25.457	0	81.405	0	217.5	4	74.3	4	-1E+10	1	-1E+10	1	-1E+10	1	-1E+10	1	-1E+10	1	-1E+10	1
4902551	122	C	01/01/2024	09:06	-130.733	46.685	0	82.90	0	7.7820	0	32.7060	0	25.505	0	82.198	0	212.0	4	72.3	4	-1E+10	1	-1E+10	1	-1E+10	1	-1E+10	1	-1E+10	1	-1E+10	1
4902551	122	C	01/01/2024	09:06	-130.733	46.685	0	84.10	0	7.7580	0	32.7640	0	25.554	0	83.387	0	206.2	4	70.3	4	-1E+10	1	-1E+10	1	-1E+10	1	-1E+10	1	-1E+10	1	-1E+10	1
4902551	122	C	01/01/2024	09:06	-130.733	46.685	0	85.10	0	7.7730	0	32.7900	0	25.573	0	84.379	0	202.2	4	69.0	4	-1E+10	1	-1E+10	1	-1E+10	1	-1E+10	1	-1E+10	1	-1E+10	1
4902551	122	C	01/01/2024	09:06	-130.733	46.685	0	86.10	0	7.7610	0	32.8680	0	25.636	0	85.370	0	199.8	4	68.2	4	-1E+10	1	-1E+10	1	-1E+10	1	-1E+10	1	-1E+10	1	-1E+10	1
4902551	122	C	01/01/2024	09:06	-130.733	46.685	0	87.00	0	7.7130	0	32.9230	0	25.686	0	86.262	0	198.8	4	67.8	4	-1E+10	1	-1E+10	1	-1E+10	1	-1E+10	1	-1E+10	1	-1E+10	1
4902551	122	C	01/01/2024	09:06	-130.733	46.685	0	87.80	0	7.6990	0	32.9270	0	25.691	0	87.055	0	197.7	4	67.4	4	-1E+10	1	-1E+10	1	-1E+10	1	-1E+10	1	-1E+10	1	-1E+10	1
4902551	122	C	01/01/2024	09:06	-130.733	46.685	0	88.90	0	7.6850	0	32.9320	0	25.697	0	88.146	0	195.9	4	66.8	4	-1E+10	1	-1E+10	1	-1E+10	1	-1E+10	1	-1E+10	1	-1E+10	1
4902551	122	C	01/01/2024	09:06	-130.733	46.685	0	90.10	0	7.6380	0	32.9640	0	25.729	0	89.335	0	194.0	4	66.1	4	-1E+10	1	-1E+10	1	-1E+10	1	-1E+10	1	-1E+10	1	-1E+10	1
4902551	122	C	01/01/2024	09:06	-130.733	46.685	0	91.00	0	7.6240	0	32.9880	0	25.749	0	90.227	0	192.2	4	65.5	4	-1E+10	1	-1E+10	1	-1E+10	1	-1E+10	1	-1E+10	1	-1E+10	1
4902551	122	C	01/01/2024	09:06	-130.733	46.685	0	91.90	0	7.6000	0	33.0280	0	25.784	0	91.120	0	190.9	4	65.0	4	-1E+10	1	-1E+10	1	-1E+10	1	-1E+10	1	-1E+10	1	-1E+10	1
4902551	122	C	01/01/2024	09:06	-130.733	46.685	0	93.00	0	7.5880	0	33.0480	0	25.802	0	92.210	0	189.9	4	64.7	4	-1E+10	1	-1E+10	1	-1E+10	1	-1E+10	1	-1E+10	1	-1E+10	1
4902551	122	C	01/01/2024	09:06	-130.733	46.685	0	94.00	0	7.5810	0	33.0700	0	25.820	0	93.201	0	189.2	4	64.4	4	-1E+10	1	-1E+10	1	-1E+10	1	-1E+10	1	-1E+10	1	-1E+10	1
4902551	122	C	01/01/2024	09:06	-130.733	46.685	0	95.10	0	7.5610	0	33.0970	0	25.844	0	94.292	0	188.8	4	64.3	4	-1E+10	1	-1E+10	1	-1E+10	1	-1E+10	1	-1E+10	1	-1E+10	1
4902551	122	C	01/01/2024	09:06	-130.733	46.685	0	95.90	0	7.5440	0	33.1090	0	25.856	0	95.085	0	188.8	4	64.2	4	-1E+10	1	-1E+10	1	-1E+10	1	-1E+10	1	-1E+10	1	-1E+10	1
4902551	122	C	01/01/2024	09:06	-130.733	46.685	0	96.70	0	7.5110	0	33.1170	0	25.867	0	95.878	0	188.6	4	64.1	4	-1E+10	1	-1E+10	1	-1E+10	1	-1E+10	1	-1E+10	1	-1E+10	1
4902551	122	C	01/01/2024	09:06	-130.733	46.685	0	97.90	0	7.4760	0	33.1180	0	25.872	0	97.067	0	188.2	4	63.9	4	-1E+10	1	-1E+10	1	-1E+10	1	-1E+10	1	-1E+10	1	-1E+10	1
4902551	122	C	01/01/2024	09:06	-130.733	46.685	0	99.10	0	7.4550	0	33.1170	0	25.875	0	98.257	0	187.3	4	63.6	4	-1E+10	1	-1E+10	1	-1E+10	1	-1E+10	1	-1E+10	1	-1E+10	1
4902551	122	C	01/01/2024	09:06	-130.733	46.685	0	99.90	0	7.4460	0	33.1170	0	25.876	0	99.050	0	186.5	4	63.3	4	-1E+10	1	-1E+10	1	-1E+10	1	-1E+10	1	-1E+10	1	-1E+10	1
4902551	122	C	01/01/2024	09:06	-130.733	46.685	0	100.90	0	7.4320	0	33.1260	0	25.885	0	100.041	0	185.2	4	62.9	4	-1E+10	1	-1E+10	1	-1E+10	1	-1E+10	1	-1E+10	1	-1E+10	1
4902551	122	C	01/01/2024	09:06	-130.733	46.685	0	101.70	0	7.4150	0	33.1660	0	25.919	0	100.834	0	184.3	4	62.6	4	-1E+10	1	-1E+10	1	-1E+10	1	-1E+10	1	-1E+10	1	-1E+10	1
4902551	122	C	01/01/2024	09:06	-130.733	46.685	0	103.00	0	7.4090	0	33.1700	0	25.923	0	102.123	0	182.7	4	62.0	4	-1E+10	1	-1E+10	1	-1E+10	1	-1E+10	1	-1E+10	1	-1E+10	1
4902551	122	C	01/01/2024	09:06	-130.733	46.685	0	104.20	0	7.4120	0	33.1730	0	25.925	0	103.312	0	180.9	4	61.4	4	-1E+10	1	-1E+10	1	-1E+10	1	-1E+10	1	-1E+10	1	-1E+10	1
4902551	122	C	01/01/2024	09:06	-130.733	46.685	0	105.10	0	7.4160	0	33.1770	0	25.927	0	104.204	0	179.7	4	61.0	4	-1E+10	1	-1E+10	1	-1E+10	1	-1E+10	1	-1E+10	1	-1E+10	1
4902551	122	C	01/01/2024	09:06	-130.733	46.685	0	105.90	0	7.4200	0	33.1960	0	25.942	0	104.997	0	178.0	4	60.4	4	-1E+10	1	-1E+10	1	-1E+10	1	-1E+10	1	-1E+10	1	-1E+10	1
4902551	122	C	01/01/2024	09:06	-130.733	46.685	0	106.70	0	7.4140	0	33.2040	0	25.949	0	105.790	0	176.4	4	59.9	4	-1E+10	1	-1E+10	1	-1E+10	1	-1E+10	1	-1E+10	1	-1E+10	1
4902551	122	C	01/01/2024	09:06	-130.733	46.685	0	107.60	0	7.4030	0	33.2220	0	25.965	0	106.682	0	174.8	4	59.3	4	-1E+10	1	-1E+10	1	-1E+10	1	-1E+10	1	-1E+10	1	-1E+10	1
4902551	122	C	01/01/2024	09:06	-130.733	46.685	0	108.90	0	7.4040	0	33.2310	0	25.972	0	107.971	0	171.8	4	58.3	4	-1E+10	1	-1E+10	1	-1E+10	1	-1E+10	1	-1E+10	1	-1E+10	1
4902551	122	C	01/01/2024	09:06	-130.733	46.685	0	110.20	0	7.4350	0	33.2470	0	25.980	0	109.259	0	169.0	4	57.4	4	-1E+10	1	-1E+10	1	-1E+10	1	-1E+10	1	-1E+10	1	-1E+10	1
4902551	122	C	01/01/2024	09:06	-130.733	46.685	0	111.10	0	7.4120	0	33.2870	0	26.015	0	110.151	0	167.1	4	56.8	4	-1E+10	1	-1E+10	1	-1E+10	1	-1E+10	1	-1E+10	1	-1E+10	1
4902551	122	C	01/01/2024	09:06	-130.733	46.685	0	112.10	0	7.3910	0	33.3120	0	26.037	0	111.143	0	165.7	4	56.3	4	-1E+10	1	-1E+10	1	-1E+10	1	-1E+10	1	-1E+10	1	-1E+10	1
4902551	122	C	01/01/2024	09:06	-130.733	46.685	0	113.00	0	7.3920	0	33.3340	0	26.054	0	112.035	0	164.8	4	56.0	4	-1E+10	1	-1E+10	1	-1E+10	1	-1E+10	1	-1E+10	1	-1E+10	1
4902551	122	C	01/01/2024	09:06	-130.733	46.685	0	114.00	0	7.3840	0	33.3570	0	26.074	0	113.026	0	164.3	4	55.8	4	-1E+10	1	-1E+10	1	-1E+10	1	-1E+10	1	-1E+10	1	-1E+10	1
4902551	122	C	01/01/2024	09:06	-130.733	46.685	0	115.00	0	7.3820	0	33.3590	0	26.075	0	114.017	0	163.8	4	55.6	4	-1E+10	1	-1E+10	1	-1E+10	1	-1E+10	1	-1E+10	1	-1E+10	1
4902551	122	C	01/01/2024	09:06	-130.733	46.685	0	115.90	0	7.3810	0	33.3620	0	26.078	0	114.909	0	163.3	4	55.5	4	-1E+10	1	-1E+10	1	-1E+10	1	-1E+10	1	-1E+10	1	-1E+10	1
4902551	122	C	01/01/2024	09:06	-130.733	46.685	0	116.80	0	7.3800	0	33.3620	0	26.078	0	115.801	0	162.7	4	55.3	4	-1E+10	1	-1E+10	1	-1E+10	1	-1E+10	1	-1E+10	1	-1E+10	1
4902551	122	C	01/01/2024	09:06	-130.733	46.685	0	117.80	0	7.3780	0	33.3660	0	26.081	0	116.792	0	162.2	4	55.1	4	-1E+10	1	-1E+10	1	-1E+10	1	-1E+10	1	-1E+10	1	-1E+10	1
4902551	122	C	01/01/2024	09:06	-130.733	46.685	0	118.70	0	7.3770	0	33.3670	0	26.082	0	117.684	0	161.7	4	54.9	4	-1E+10	1	-1E+10	1	-1E+10	1	-1E+10	1	-1E+10	1	-1E+10	1
4902551	122	C	01/01/2024	09:06	-130.733	46.685	0	119.60	0	7.3730	0	33.3720	0	26.087	0	118.576	0	161.0	4	54.7	4	-1E+10	1	-1E+10	1	-1E+10	1	-1E+10	1	-1E+10	1	-1E+10	1
4902551	122	C	01/01/2024	09:06	-130.733	46.685	0	120.90	0	7.3670	0	33.3810	0	26.095	0	119.865	0	160.0	4	54.3	4	-1E+10	1	-1E+10	1	-1E+10	1	-1E+10	1	-1E+10	1	-1E+10	1
4902551	122	C	01/01/2024	09:06	-130.733	46.685	0	122.30	0	7.3630	0	33.3860	0	26.099	0	121.252	0	159.0	4	54.0	4	-1E+10	1	-1E+10	1	-1E+10	1	-1E+10	1	-1E+10	1	-1E+10	1
4902551	122	C	01/01/2024	09:06	-130.733	46.685	0	123.20	0	7.3600	0	33.3900	0	26.103	0	122.144	0	158.2	4	53.7	4	-1E+10	1	-1E+10	1	-1E+10	1	-1E+10	1	-1E+10	1	-1E+10	1
4902551	122	C	01/01/2024	09:06	-130.733	46.685	0	124.10	0	7.3580	0	33.3920	0	26.105	0	123.037	0	157.3	4	53.4	4	-1E+10	1	-1E+10	1	-1E+10	1	-1E+10	1	-1E+10	1	-1E+10	1
4902551	122	C	01/01/2024	09:06	-130.733	46.685	0	124.90	0	7.3500	0	33.4010	0	26.113	0	123.829	0	156.1	4	53.0	4	-1E+10	1	-1E+10	1	-1E+10	1	-1E+10	1	-1E+10	1	-1E+10	1
4902551	122	C	01/01/2024	09:06	-130.733	46.685	0	125.80	0	7.3450	0	33.4070	0	26.118	0	124.721	0	154.9	4	52.6	4	-1E+10	1	-1E+10	1	-1E+10	1	-1E+10	1	-1E+10	1	-1E+10	1
4902551	122	C	01/01/2024	09:06	-130.733	46.685	0	126.60	0	7.3490	0	33.4020	0	26.114	0	125.514	0	153.5	4	52.1	4	-1E+10	1	-1E+10	1	-1E+10	1	-1E+10	1	-1E+10	1	-1E+10	1
4902551	122	C	01/01/2024	09:06	-130.733	46.685	0	127.50	0	7.3450	0	33.4050	0	26.117	0	126.406	0	151.6	4	51.5	4	-1E+10	1	-1E+10	1	-1E+10	1	-1E+10	1	-1E+10	1	-1E+10	1
4902551	122	C	01/01/2024	09:06	-130.733	46.685	0	128.50	0	7.3080	0	33.4680	0	26.172	0	127.397	0	149.9	4	50.9	4	-1E+10	1	-1E+10	1	-1E+10	1	-1E+10	1	-1E+10	1	-1E+10	1
4902551	122	C	01/01/2024	09:06	-130.733	46.685	0	129.90	0	7.2970	0	33.4960	0	26.195	0	128.785	0	148.4	4	50.3	4	-1E+10	1	-1E+10	1	-1E+10	1	-1E+10	1	-1E+10	1	-1E+10	1
4902551	122	C	01/01/2024	09:06	-130.733	46.685	0	131.40	0	7.2730	0	33.5280	0	26.224	0	130.272	0	147.0	4	49.9	4	-1E+10	1	-1E+10	1	-1E+10	1	-1E+10	1	-1E+10	1	-1E+10	1
4902551	122	C	01/01/2024	09:06	-130.733	46.685	0	132.30	0	7.2630	0	33.5420	0	26.236	0	131.164	0	146.1	4	49.5	4	-1E+10	1	-1E+10	1	-1E+10	1	-1E+10	1	-1E+10	1	-1E+10	1
4902551	122	C	01/01/2024	09:06	-130.733	46.685	0	133.30	0	7.2610	0	33.5460	0	26.240	0	132.155	0	145.1	4	49.2	4	-1E+10	1	-1E+10	1	-1E+10	1	-1E+10	1	-1E+10	1	-1E+10	1
4902551	122	C	01/01/2024	09:06	-130.733	46.685	0	134.30	0	7.2650	0	33.5520	0	26.244	0	133.146	0	144.0	4	48.8	4	-1E+10	1	-1E+10	1	-1E+10	1	-1E+10	1	-1E+10	1	-1E+10	1
4902551	122	C	01/01/2024	09:06	-130.733	46.685	0	135.20	0	7.2730	0	33.5610	0	26.250	0	134.038	0	142.8	4	48.5	4	-1E+10	1	-1E+10	1	-1E+10	1	-1E+10	1	-1E+10	1	-1E+10	1
4902551	122	C	01/01/2024	09:06	-130.733	46.685	0	136.30	0	7.2770	0	33.6150	0	26.292	0	135.128	0	141.7	4	48.1	4	-1E+10	1	-1E+10	1	-1E+10	1	-1E+10	1	-1E+10	1	-1E+10	1
4902551	122	C	01/01/2024	09:06	-130.733	46.685	0	137.30	0	7.2890	0	33.6260	0	26.299	0	136.119	0	141.2	4	47.9	4	-1E+10	1	-1E+10	1	-1E+10	1	-1E+10	1	-1E+10	1	-1E+10	1
4902551	122	C	01/01/2024	09:06	-130.733	46.685	0	138.40	0	7.2990	0	33.6490	0	26.315	0	137.209	0	140.7	4	47.8	4	-1E+10	1	-1E+10	1	-1E+10	1	-1E+10	1	-1E+10	1	-1E+10	1
4902551	122	C	01/01/2024	09:06	-130.733	46.685	0	139.40	0	7.3100	0	33.6510	0	26.315	0	138.200	0	140.3	4	47.7	4	-1E+10	1	-1E+10	1	-1E+10	1	-1E+10	1	-1E+10	1	-1E+10	1
4902551	122	C	01/01/2024	09:06	-130.733	46.685	0	140.50	0	7.3260	0	33.6570	0	26.318	0	139.290	0	140.1	4	47.6	4	-1E+10	1	-1E+10	1	-1E+10	1	-1E+10	1	-1E+10	1	-1E+10	1
4902551	122	C	01/01/2024	09:06	-130.733	46.685	0	141.50	0	7.3220	0	33.6660	0	26.326	0	140.281	0	139.9	4	47.6	4	-1E+10	1	-1E+10	1	-1E+10	1	-1E+10	1	-1E+10	1	-1E+10	1
4902551	122	C	01/01/2024	09:06	-130.733	46.685	0	142.50	0	7.3300	0	33.6640	0	26.323	0	141.273	0	139.6	4	47.5	4	-1E+10	1	-1E+10	1	-1E+10	1	-1E+10	1	-1E+10	1	-1E+10	1
4902551	122	C	01/01/2024	09:06	-130.733	46.685	0	143.50	0	7.2970	0	33.6640	0	26.328	0	142.264	0	139.5	4	47.4	4	-1E+10	1	-1E+10	1	-1E+10	1	-1E+10	1	-1E+10	1	-1E+10	1
4902551	122	C	01/01/2024	09:06	-130.733	46.685	0	144.50	0	7.2960	0	33.6660	0	26.329	0	143.255	0	139.2	4	47.3	4	-1E+10	1	-1E+10	1	-1E+10	1	-1E+10	1	-1E+10	1	-1E+10	1
4902551	122	C	01/01/2024	09:06	-130.733	46.685	0	145.60	0	7.3040	0	33.6670	0	26.329	0	144.345	0	138.8	4	47.2	4	-1E+10	1	-1E+10	1	-1E+10	1	-1E+10	1	-1E+10	1	-1E+10	1
4902551	122	C	01/01/2024	09:06	-130.733	46.685	0	146.60	0	7.3500	0	33.6680	0	26.323	0	145.336	0	138.6	4	47.1	4	-1E+10	1	-1E+10	1	-1E+10	1	-1E+10	1	-1E+10	1	-1E+10	1
4902551	122	C	01/01/2024	09:06	-130.733	46.685	0	147.50	0	7.3680	0	33.6860	0	26.335	0	146.228	0	138.6	4	47.2	4	-1E+10	1	-1E+10	1	-1E+10	1	-1E+10	1	-1E+10	1	-1E+10	1
4902551	122	C	01/01/2024	09:06	-130.733	46.685	0	148.90	0	7.3220	0	33.6870	0	26.342	0	147.615	0	138.7	4	47.2	4	-1E+10	1	-1E+10	1	-1E+10	1	-1E+10	1	-1E+10	1	-1E+10	1
4902551	122	C	01/01/2024	09:06	-130.733	46.685	0	150.30	0	7.2350	0	33.6830	0	26.351	0	149.003	0	138.6	4	47.0	4	-1E+10	1	-1E+10	1	-1E+10	1	-1E+10	1	-1E+10	1	-1E+10	1
4902551	122	C	01/01/2024	09:06	-130.733	46.685	0	151.20	0	7.2010	0	33.6840	0	26.357	0	149.894	0	138.2	4	46.9	4	-1E+10	1	-1E+10	1	-1E+10	1	-1E+10	1	-1E+10	1	-1E+10	1
4902551	122	C	01/01/2024	09:06	-130.733	46.685	0	152.20	0	7.1840	0	33.6920	0	26.365	0	150.885	0	137.6	4	46.6	4	-1E+10	1	-1E+10	1	-1E+10	1	-1E+10	1	-1E+10	1	-1E+10	1
4902551	122	C	01/01/2024	09:06	-130.733	46.685	0	152.90	0	7.1800	0	33.6920	0	26.366	0	151.579	0	137.1	4	46.5	4	-1E+10	1	-1E+10	1	-1E+10	1	-1E+10	1	-1E+10	1	-1E+10	1
4902551	122	C	01/01/2024	09:06	-130.733	46.685	0	153.80	0	7.1770	0	33.6960	0	26.369	0	152.471	0	136.4	4	46.2	4	-1E+10	1	-1E+10	1	-1E+10	1	-1E+10	1	-1E+10	1	-1E+10	1
4902551	122	C	01/01/2024	09:06	-130.733	46.685	0	154.90	0	7.1580	0	33.7030	0	26.378	0	153.561	0	135.6	4	45.9	4	-1E+10	1	-1E+10	1	-1E+10	1	-1E+10	1	-1E+10	1	-1E+10	1
4902551	122	C	01/01/2024	09:06	-130.733	46.685	0	155.90	0	7.0890	0	33.7240	0	26.404	0	154.552	0	134.8	4	45.6	4	-1E+10	1	-1E+10	1	-1E+10	1	-1E+10	1	-1E+10	1	-1E+10	1
4902551	122	C	01/01/2024	09:06	-130.733	46.685	0	157.10	0	7.0350	0	33.7410	0	26.424	0	155.741	0	134.0	4	45.3	4	-1E+10	1	-1E+10	1	-1E+10	1	-1E+10	1	-1E+10	1	-1E+10	1
4902551	122	C	01/01/2024	09:06	-130.733	46.685	0	157.80	0	7.0160	0	33.7370	0	26.424	0	156.435	0	133.4	4	45.0	4	-1E+10	1	-1E+10	1	-1E+10	1	-1E+10	1	-1E+10	1	-1E+10	1
4902551	122	C	01/01/2024	09:06	-130.733	46.685	0	158.90	0	7.0250	0	33.7400	0	26.425	0	157.525	0	132.2	4	44.6	4	-1E+10	1	-1E+10	1	-1E+10	1	-1E+10	1	-1E+10	1	-1E+10	1
4902551	122	C	01/01/2024	09:06	-130.733	46.685	0	160.10	0	7.0110	0	33.7630	0	26.445	0	158.714	0	131.5	4	44.4	4	-1E+10	1	-1E+10	1	-1E+10	1	-1E+10	1	-1E+10	1	-1E+10	1
4902551	122	C	01/01/2024	09:06	-130.733	46.685	0	160.80	0	6.9960	0	33.7660	0	26.449	0	159.408	0	131.2	4	44.3	4	-1E+10	1	-1E+10	1	-1E+10	1	-1E+10	1	-1E+10	1	-1E+10	1
4902551	122	C	01/01/2024	09:06	-130.733	46.685	0	162.00	0	6.9850	0	33.7680	0	26.453	0	160.597	0	130.8	4	44.1	4	-1E+10	1	-1E+10	1	-1E+10	1	-1E+10	1	-1E+10	1	-1E+10	1
4902551	122	C	01/01/2024	09:06	-130.733	46.685	0	163.20	0	6.9780	0	33.7700	0	26.455	0	161.786	0	130.3	4	44.0	4	-1E+10	1	-1E+10	1	-1E+10	1	-1E+10	1	-1E+10	1	-1E+10	1
4902551	122	C	01/01/2024	09:06	-130.733	46.685	0	164.00	0	6.9750	0	33.7710	0	26.456	0	162.579	0	129.9	4	43.9	4	-1E+10	1	-1E+10	1	-1E+10	1	-1E+10	1	-1E+10	1	-1E+10	1
4902551	122	C	01/01/2024	09:06	-130.733	46.685	0	164.80	0	6.9590	0	33.7770	0	26.463	0	163.372	0	129.6	4	43.7	4	-1E+10	1	-1E+10	1	-1E+10	1	-1E+10	1	-1E+10	1	-1E+10	1
4902551	122	C	01/01/2024	09:06	-130.733	46.685	0	165.60	0	6.9540	0	33.7800	0	26.466	0	164.164	0	129.4	4	43.7	4	-1E+10	1	-1E+10	1	-1E+10	1	-1E+10	1	-1E+10	1	-1E+10	1
4902551	122	C	01/01/2024	09:06	-130.733	46.685	0	166.90	0	6.9510	0	33.7820	0	26.468	0	165.453	0	129.1	4	43.5	4	-1E+10	1	-1E+10	1	-1E+10	1	-1E+10	1	-1E+10	1	-1E+10	1
4902551	122	C	01/01/2024	09:06	-130.733	46.685	0	168.20	0	6.9490	0	33.7830	0	26.469	0	166.741	0	128.7	4	43.4	4	-1E+10	1	-1E+10	1	-1E+10	1	-1E+10	1	-1E+10	1	-1E+10	1
4902551	122	C	01/01/2024	09:06	-130.733	46.685	0	169.00	0	6.9480	0	33.7830	0	26.470	0	167.534	0	128.4	4	43.3	4	-1E+10	1	-1E+10	1	-1E+10	1	-1E+10	1	-1E+10	1	-1E+10	1
4902551	122	C	01/01/2024	09:06	-130.733	46.685	0	169.90	0	6.9470	0	33.7830	0	26.470	0	168.425	0	128.0	4	43.2	4	-1E+10	1	-1E+10	1	-1E+10	1	-1E+10	1	-1E+10	1	-1E+10	1
4902551	122	C	01/01/2024	09:06	-130.733	46.685	0	170.80	0	6.9450	0	33.7840	0	26.471	0	169.317	0	127.7	4	43.1	4	-1E+10	1	-1E+10	1	-1E+10	1	-1E+10	1	-1E+10	1	-1E+10	1
4902551	122	C	01/01/2024	09:06	-130.733	46.685	0	171.60	0	6.9440	0	33.7840	0	26.471	0	170.110	0	127.1	4	42.9	4	-1E+10	1	-1E+10	1	-1E+10	1	-1E+10	1	-1E+10	1	-1E+10	1
4902551	122	C	01/01/2024	09:06	-130.733	46.685	0	172.90	0	6.9350	0	33.7870	0	26.474	0	171.398	0	126.2	4	42.6	4	-1E+10	1	-1E+10	1	-1E+10	1	-1E+10	1	-1E+10	1	-1E+10	1
4902551	122	C	01/01/2024	09:06	-130.733	46.685	0	174.30	0	6.9250	0	33.7900	0	26.478	0	172.785	0	125.3	4	42.2	4	-1E+10	1	-1E+10	1	-1E+10	1	-1E+10	1	-1E+10	1	-1E+10	1
4902551	122	C	01/01/2024	09:06	-130.733	46.685	0	175.20	0	6.9200	0	33.7910	0	26.480	0	173.677	0	124.7	4	42.0	4	-1E+10	1	-1E+10	1	-1E+10	1	-1E+10	1	-1E+10	1	-1E+10	1
4902551	122	C	01/01/2024	09:06	-130.733	46.685	0	176.00	0	6.9150	0	33.7960	0	26.484	0	174.470	0	124.2	4	41.9	4	-1E+10	1	-1E+10	1	-1E+10	1	-1E+10	1	-1E+10	1	-1E+10	1
4902551	122	C	01/01/2024	09:06	-130.733	46.685	0	176.90	0	6.9140	0	33.7990	0	26.487	0	175.362	0	123.7	4	41.7	4	-1E+10	1	-1E+10	1	-1E+10	1	-1E+10	1	-1E+10	1	-1E+10	1
4902551	122	C	01/01/2024	09:06	-130.733	46.685	0	177.90	0	6.9080	0	33.8010	0	26.489	0	176.352	0	123.1	4	41.5	4	-1E+10	1	-1E+10	1	-1E+10	1	-1E+10	1	-1E+10	1	-1E+10	1
4902551	122	C	01/01/2024	09:06	-130.733	46.685	0	178.80	0	6.9060	0	33.8030	0	26.491	0	177.244	0	122.7	4	41.4	4	-1E+10	1	-1E+10	1	-1E+10	1	-1E+10	1	-1E+10	1	-1E+10	1
4902551	122	C	01/01/2024	09:06	-130.733	46.685	0	179.70	0	6.9130	0	33.8060	0	26.492	0	178.136	0	122.2	4	41.2	4	-1E+10	1	-1E+10	1	-1E+10	1	-1E+10	1	-1E+10	1	-1E+10	1
4902551	122	C	01/01/2024	09:06	-130.733	46.685	0	180.70	0	6.9150	0	33.8080	0	26.494	0	179.127	0	121.8	4	41.1	4	-1E+10	1	-1E+10	1	-1E+10	1	-1E+10	1	-1E+10	1	-1E+10	1
4902551	122	C	01/01/2024	09:06	-130.733	46.685	0	181.60	0	6.9090	0	33.8130	0	26.499	0	180.019	0	121.4	4	40.9	4	-1E+10	1	-1E+10	1	-1E+10	1	-1E+10	1	-1E+10	1	-1E+10	1
4902551	122	C	01/01/2024	09:06	-130.733	46.685	0	182.90	0	6.8750	0	33.8210	0	26.509	0	181.307	0	121.0	4	40.8	4	-1E+10	1	-1E+10	1	-1E+10	1	-1E+10	1	-1E+10	1	-1E+10	1
4902551	122	C	01/01/2024	09:06	-130.733	46.685	0	184.30	0	6.8580	0	33.8260	0	26.516	0	182.694	0	120.8	4	40.7	4	-1E+10	1	-1E+10	1	-1E+10	1	-1E+10	1	-1E+10	1	-1E+10	1
4902551	122	C	01/01/2024	09:06	-130.733	46.685	0	185.20	0	6.8480	0	33.8270	0	26.518	0	183.586	0	120.7	4	40.7	4	-1E+10	1	-1E+10	1	-1E+10	1	-1E+10	1	-1E+10	1	-1E+10	1
4902551	122	C	01/01/2024	09:06	-130.733	46.685	0	186.10	0	6.8170	0	33.8260	0	26.521	0	184.478	0	120.6	4	40.6	4	-1E+10	1	-1E+10	1	-1E+10	1	-1E+10	1	-1E+10	1	-1E+10	1
4902551	122	C	01/01/2024	09:06	-130.733	46.685	0	187.10	0	6.8130	0	33.8260	0	26.522	0	185.468	0	120.5	4	40.5	4	-1E+10	1	-1E+10	1	-1E+10	1	-1E+10	1	-1E+10	1	-1E+10	1
4902551	122	C	01/01/2024	09:06	-130.733	46.685	0	188.00	0	6.8150	0	33.8250	0	26.521	0	186.360	0	120.2	4	40.5	4	-1E+10	1	-1E+10	1	-1E+10	1	-1E+10	1	-1E+10	1	-1E+10	1
4902551	122	C	01/01/2024	09:06	-130.733	46.685	0	188.90	0	6.8050	0	33.8240	0	26.521	0	187.252	0	120.0	4	40.3	4	-1E+10	1	-1E+10	1	-1E+10	1	-1E+10	1	-1E+10	1	-1E+10	1
4902551	122	C	01/01/2024	09:06	-130.733	46.685	0	189.80	0	6.7980	0	33.8240	0	26.522	0	188.144	0	119.6	4	40.2	4	-1E+10	1	-1E+10	1	-1E+10	1	-1E+10	1	-1E+10	1	-1E+10	1
4902551	122	C	01/01/2024	09:06	-130.733	46.685	0	190.80	0	6.7930	0	33.8240	0	26.523	0	189.134	0	119.4	4	40.1	4	-1E+10	1	-1E+10	1	-1E+10	1	-1E+10	1	-1E+10	1	-1E+10	1
4902551	122	C	01/01/2024	09:06	-130.733	46.685	0	191.70	0	6.7870	0	33.8250	0	26.525	0	190.026	0	119.0	4	40.0	4	-1E+10	1	-1E+10	1	-1E+10	1	-1E+10	1	-1E+10	1	-1E+10	1
4902551	122	C	01/01/2024	09:06	-130.733	46.685	0	192.60	0	6.7800	0	33.8250	0	26.526	0	190.918	0	118.7	4	39.9	4	-1E+10	1	-1E+10	1	-1E+10	1	-1E+10	1	-1E+10	1	-1E+10	1
4902551	122	C	01/01/2024	09:06	-130.733	46.685	0	193.50	0	6.7660	0	33.8260	0	26.528	0	191.810	0	118.4	4	39.8	4	-1E+10	1	-1E+10	1	-1E+10	1	-1E+10	1	-1E+10	1	-1E+10	1
4902551	122	C	01/01/2024	09:06	-130.733	46.685	0	194.50	0	6.7430	0	33.8290	0	26.534	0	192.800	0	118.2	4	39.7	4	-1E+10	1	-1E+10	1	-1E+10	1	-1E+10	1	-1E+10	1	-1E+10	1
4902551	122	C	01/01/2024	09:06	-130.733	46.685	0	195.90	0	6.7140	0	33.8330	0	26.541	0	194.187	0	117.9	4	39.6	4	-1E+10	1	-1E+10	1	-1E+10	1	-1E+10	1	-1E+10	1	-1E+10	1
4902551	122	C	01/01/2024	09:06	-130.733	46.685	0	197.40	0	6.7070	0	33.8350	0	26.543	0	195.674	0	117.7	4	39.5	4	-1E+10	1	-1E+10	1	-1E+10	1	-1E+10	1	-1E+10	1	-1E+10	1
4902551	122	C	01/01/2024	09:06	-130.733	46.685	0	198.30	0	6.7020	0	33.8340	0	26.543	0	196.565	0	117.5	4	39.4	4	-1E+10	1	-1E+10	1	-1E+10	1	-1E+10	1	-1E+10	1	-1E+10	1
4902551	122	C	01/01/2024	09:06	-130.733	46.685	0	199.30	0	6.6880	0	33.8370	0	26.547	0	197.556	0	117.3	4	39.3	4	-1E+10	1	-1E+10	1	-1E+10	1	-1E+10	1	-1E+10	1	-1E+10	1
4902551	122	C	01/01/2024	09:06	-130.733	46.685	0	200.30	0	6.6680	0	33.8390	0	26.552	0	198.547	0	117.2	4	39.3	4	-1E+10	1	-1E+10	1	-1E+10	1	-1E+10	1	-1E+10	1	-1E+10	1
4902551	122	C	01/01/2024	09:06	-130.733	46.685	0	201.20	0	6.6650	0	33.8390	0	26.552	0	199.439	0	117.1	4	39.3	4	-1E+10	1	-1E+10	1	-1E+10	1	-1E+10	1	-1E+10	1	-1E+10	1
4902551	122	C	01/01/2024	09:06	-130.733	46.685	0	202.20	0	6.6640	0	33.8390	0	26.552	0	200.429	0	117.0	4	39.2	4	-1E+10	1	-1E+10	1	-1E+10	1	-1E+10	1	-1E+10	1	-1E+10	1
4902551	122	C	01/01/2024	09:06	-130.733	46.685	0	203.20	0	6.6630	0	33.8390	0	26.552	0	201.420	0	116.9	4	39.2	4	-1E+10	1	-1E+10	1	-1E+10	1	-1E+10	1	-1E+10	1	-1E+10	1
4902551	122	C	01/01/2024	09:06	-130.733	46.685	0	204.10	0	6.6620	0	33.8390	0	26.552	0	202.312	0	116.7	4	39.1	4	-1E+10	1	-1E+10	1	-1E+10	1	-1E+10	1	-1E+10	1	-1E+10	1
4902551	122	C	01/01/2024	09:06	-130.733	46.685	0	205.10	0	6.6620	0	33.8390	0	26.552	0	203.303	0	116.6	4	39.1	4	-1E+10	1	-1E+10	1	-1E+10	1	-1E+10	1	-1E+10	1	-1E+10	1
4902551	122	C	01/01/2024	09:06	-130.733	46.685	0	206.10	0	6.6610	0	33.8390	0	26.553	0	204.293	0	116.4	4	39.0	4	-1E+10	1	-1E+10	1	-1E+10	1	-1E+10	1	-1E+10	1	-1E+10	1
4902551	122	C	01/01/2024	09:06	-130.733	46.685	0	207.00	0	6.6600	0	33.8390	0	26.553	0	205.185	0	116.2	4	39.0	4	-1E+10	1	-1E+10	1	-1E+10	1	-1E+10	1	-1E+10	1	-1E+10	1
4902551	122	C	01/01/2024	09:06	-130.733	46.685	0	208.00	0	6.6590	0	33.8390	0	26.553	0	206.176	0	116.0	4	38.9	4	-1E+10	1	-1E+10	1	-1E+10	1	-1E+10	1	-1E+10	1	-1E+10	1
4902551	122	C	01/01/2024	09:06	-130.733	46.685	0	209.00	0	6.6600	0	33.8390	0	26.553	0	207.166	0	115.8	4	38.8	4	-1E+10	1	-1E+10	1	-1E+10	1	-1E+10	1	-1E+10	1	-1E+10	1
4902551	122	C	01/01/2024	09:06	-130.733	46.685	0	209.90	0	6.6600	0	33.8390	0	26.553	0	208.058	0	115.5	4	38.7	4	-1E+10	1	-1E+10	1	-1E+10	1	-1E+10	1	-1E+10	1	-1E+10	1
4902551	122	C	01/01/2024	09:06	-130.733	46.685	0	210.90	0	6.6560	0	33.8390	0	26.553	0	209.049	0	115.2	4	38.6	4	-1E+10	1	-1E+10	1	-1E+10	1	-1E+10	1	-1E+10	1	-1E+10	1
4902551	122	C	01/01/2024	09:06	-130.733	46.685	0	211.80	0	6.6270	0	33.8400	0	26.558	0	209.940	0	114.9	4	38.5	4	-1E+10	1	-1E+10	1	-1E+10	1	-1E+10	1	-1E+10	1	-1E+10	1
4902551	122	C	01/01/2024	09:06	-130.733	46.685	0	212.80	0	6.6070	0	33.8430	0	26.563	0	210.931	0	114.7	4	38.4	4	-1E+10	1	-1E+10	1	-1E+10	1	-1E+10	1	-1E+10	1	-1E+10	1
4902551	122	C	01/01/2024	09:06	-130.733	46.685	0	213.70	0	6.5970	0	33.8420	0	26.563	0	211.823	0	114.5	4	38.3	4	-1E+10	1	-1E+10	1	-1E+10	1	-1E+10	1	-1E+10	1	-1E+10	1
4902551	122	C	01/01/2024	09:06	-130.733	46.685	0	214.70	0	6.5930	0	33.8430	0	26.565	0	212.813	0	114.2	4	38.2	4	-1E+10	1	-1E+10	1	-1E+10	1	-1E+10	1	-1E+10	1	-1E+10	1
4902551	122	C	01/01/2024	09:06	-130.733	46.685	0	215.60	0	6.5940	0	33.8430	0	26.565	0	213.705	0	113.9	4	38.1	4	-1E+10	1	-1E+10	1	-1E+10	1	-1E+10	1	-1E+10	1	-1E+10	1
4902551	122	C	01/01/2024	09:06	-130.733	46.685	0	216.60	0	6.5940	0	33.8420	0	26.564	0	214.696	0	113.6	4	38.0	4	-1E+10	1	-1E+10	1	-1E+10	1	-1E+10	1	-1E+10	1	-1E+10	1
4902551	122	C	01/01/2024	09:06	-130.733	46.685	0	217.50	0	6.5840	0	33.8480	0	26.570	0	215.587	0	113.3	4	37.9	4	-1E+10	1	-1E+10	1	-1E+10	1	-1E+10	1	-1E+10	1	-1E+10	1
4902551	122	C	01/01/2024	09:06	-130.733	46.685	0	218.50	0	6.5270	0	33.8490	0	26.578	0	216.578	0	113.2	4	37.8	4	-1E+10	1	-1E+10	1	-1E+10	1	-1E+10	1	-1E+10	1	-1E+10	1
4902551	122	C	01/01/2024	09:06	-130.733	46.685	0	219.90	0	6.5210	0	33.8490	0	26.579	0	217.965	0	113.0	4	37.8	4	-1E+10	1	-1E+10	1	-1E+10	1	-1E+10	1	-1E+10	1	-1E+10	1
4902551	122	C	01/01/2024	09:06	-130.733	46.685	0	221.40	0	6.5180	0	33.8480	0	26.579	0	219.451	0	112.8	4	37.7	4	-1E+10	1	-1E+10	1	-1E+10	1	-1E+10	1	-1E+10	1	-1E+10	1
4902551	122	C	01/01/2024	09:06	-130.733	46.685	0	222.30	0	6.5170	0	33.8500	0	26.580	0	220.343	0	112.6	4	37.6	4	-1E+10	1	-1E+10	1	-1E+10	1	-1E+10	1	-1E+10	1	-1E+10	1
4902551	122	C	01/01/2024	09:06	-130.733	46.685	0	223.20	0	6.5140	0	33.8510	0	26.582	0	221.234	0	112.4	4	37.6	4	-1E+10	1	-1E+10	1	-1E+10	1	-1E+10	1	-1E+10	1	-1E+10	1
4902551	122	C	01/01/2024	09:06	-130.733	46.685	0	224.10	0	6.5120	0	33.8470	0	26.579	0	222.126	0	112.2	4	37.5	4	-1E+10	1	-1E+10	1	-1E+10	1	-1E+10	1	-1E+10	1	-1E+10	1
4902551	122	C	01/01/2024	09:06	-130.733	46.685	0	225.00	0	6.5010	0	33.8490	0	26.582	0	223.017	0	112.0	4	37.4	4	-1E+10	1	-1E+10	1	-1E+10	1	-1E+10	1	-1E+10	1	-1E+10	1
4902551	122	C	01/01/2024	09:06	-130.733	46.685	0	226.00	0	6.4850	0	33.8510	0	26.585	0	224.008	0	111.7	4	37.3	4	-1E+10	1	-1E+10	1	-1E+10	1	-1E+10	1	-1E+10	1	-1E+10	1
4902551	122	C	01/01/2024	09:06	-130.733	46.685	0	226.90	0	6.4780	0	33.8500	0	26.586	0	224.900	0	111.5	4	37.2	4	-1E+10	1	-1E+10	1	-1E+10	1	-1E+10	1	-1E+10	1	-1E+10	1
4902551	122	C	01/01/2024	09:06	-130.733	46.685	0	227.80	0	6.4740	0	33.8510	0	26.587	0	225.791	0	111.3	4	37.2	4	-1E+10	1	-1E+10	1	-1E+10	1	-1E+10	1	-1E+10	1	-1E+10	1
4902551	122	C	01/01/2024	09:06	-130.733	46.685	0	228.80	0	6.4750	0	33.8510	0	26.587	0	226.782	0	111.0	4	37.0	4	-1E+10	1	-1E+10	1	-1E+10	1	-1E+10	1	-1E+10	1	-1E+10	1
4902551	122	C	01/01/2024	09:06	-130.733	46.685	0	229.80	0	6.4750	0	33.8500	0	26.586	0	227.772	0	110.6	4	36.9	4	-1E+10	1	-1E+10	1	-1E+10	1	-1E+10	1	-1E+10	1	-1E+10	1
4902551	122	C	01/01/2024	09:06	-130.733	46.685	0	230.80	0	6.4750	0	33.8500	0	26.586	0	228.763	0	110.3	4	36.8	4	-1E+10	1	-1E+10	1	-1E+10	1	-1E+10	1	-1E+10	1	-1E+10	1
4902551	122	C	01/01/2024	09:06	-130.733	46.685	0	231.70	0	6.4640	0	33.8500	0	26.587	0	229.655	0	109.9	4	36.7	4	-1E+10	1	-1E+10	1	-1E+10	1	-1E+10	1	-1E+10	1	-1E+10	1
4902551	122	C	01/01/2024	09:06	-130.733	46.685	0	232.80	0	6.4320	0	33.8510	0	26.592	0	230.744	0	109.6	4	36.5	4	-1E+10	1	-1E+10	1	-1E+10	1	-1E+10	1	-1E+10	1	-1E+10	1
4902551	122	C	01/01/2024	09:06	-130.733	46.685	0	233.80	0	6.4240	0	33.8510	0	26.593	0	231.735	0	109.2	4	36.4	4	-1E+10	1	-1E+10	1	-1E+10	1	-1E+10	1	-1E+10	1	-1E+10	1
4902551	122	C	01/01/2024	09:06	-130.733	46.685	0	234.80	0	6.4140	0	33.8520	0	26.595	0	232.726	0	108.7	4	36.3	4	-1E+10	1	-1E+10	1	-1E+10	1	-1E+10	1	-1E+10	1	-1E+10	1
4902551	122	C	01/01/2024	09:06	-130.733	46.685	0	235.80	0	6.3910	0	33.8530	0	26.599	0	233.716	0	108.3	4	36.1	4	-1E+10	1	-1E+10	1	-1E+10	1	-1E+10	1	-1E+10	1	-1E+10	1
4902551	122	C	01/01/2024	09:06	-130.733	46.685	0	236.80	0	6.3810	0	33.8510	0	26.599	0	234.707	0	107.8	4	35.9	4	-1E+10	1	-1E+10	1	-1E+10	1	-1E+10	1	-1E+10	1	-1E+10	1
4902551	122	C	01/01/2024	09:06	-130.733	46.685	0	237.90	0	6.3620	0	33.8540	0	26.604	0	235.796	0	107.3	4	35.7	4	-1E+10	1	-1E+10	1	-1E+10	1	-1E+10	1	-1E+10	1	-1E+10	1
4902551	122	C	01/01/2024	09:06	-130.733	46.685	0	238.90	0	6.3360	0	33.8550	0	26.608	0	236.787	0	106.8	4	35.6	4	-1E+10	1	-1E+10	1	-1E+10	1	-1E+10	1	-1E+10	1	-1E+10	1
4902551	122	C	01/01/2024	09:06	-130.733	46.685	0	240.00	0	6.3300	0	33.8550	0	26.609	0	237.877	0	106.2	4	35.3	4	-1E+10	1	-1E+10	1	-1E+10	1	-1E+10	1	-1E+10	1	-1E+10	1
4902551	122	C	01/01/2024	09:06	-130.733	46.685	0	241.00	0	6.3230	0	33.8580	0	26.612	0	238.867	0	105.7	4	35.2	4	-1E+10	1	-1E+10	1	-1E+10	1	-1E+10	1	-1E+10	1	-1E+10	1
4902551	122	C	01/01/2024	09:06	-130.733	46.685	0	242.10	0	6.3190	0	33.8600	0	26.614	0	239.957	0	105.2	4	35.0	4	-1E+10	1	-1E+10	1	-1E+10	1	-1E+10	1	-1E+10	1	-1E+10	1
4902551	122	C	01/01/2024	09:06	-130.733	46.685	0	243.10	0	6.3170	0	33.8610	0	26.615	0	240.947	0	104.7	4	34.8	4	-1E+10	1	-1E+10	1	-1E+10	1	-1E+10	1	-1E+10	1	-1E+10	1
4902551	122	C	01/01/2024	09:06	-130.733	46.685	0	244.20	0	6.3020	0	33.8650	0	26.620	0	242.037	0	104.4	4	34.7	4	-1E+10	1	-1E+10	1	-1E+10	1	-1E+10	1	-1E+10	1	-1E+10	1
4902551	122	C	01/01/2024	09:06	-130.733	46.685	0	245.20	0	6.2980	0	33.8650	0	26.621	0	243.028	0	104.2	4	34.6	4	-1E+10	1	-1E+10	1	-1E+10	1	-1E+10	1	-1E+10	1	-1E+10	1
4902551	122	C	01/01/2024	09:06	-130.733	46.685	0	246.20	0	6.2880	0	33.8650	0	26.622	0	244.018	0	103.9	4	34.5	4	-1E+10	1	-1E+10	1	-1E+10	1	-1E+10	1	-1E+10	1	-1E+10	1
4902551	122	C	01/01/2024	09:06	-130.733	46.685	0	247.20	0	6.2750	0	33.8600	0	26.620	0	245.009	0	103.5	4	34.4	4	-1E+10	1	-1E+10	1	-1E+10	1	-1E+10	1	-1E+10	1	-1E+10	1
4902551	122	C	01/01/2024	09:06	-130.733	46.685	0	248.30	0	6.2370	0	33.8650	0	26.629	0	246.098	0	103.1	4	34.2	4	-1E+10	1	-1E+10	1	-1E+10	1	-1E+10	1	-1E+10	1	-1E+10	1
4902551	122	C	01/01/2024	09:06	-130.733	46.685	0	249.30	0	6.2000	0	33.8660	0	26.634	0	247.089	0	102.7	4	34.1	4	-1E+10	1	-1E+10	1	-1E+10	1	-1E+10	1	-1E+10	1	-1E+10	1
4902551	122	C	01/01/2024	09:06	-130.733	46.685	0	250.40	0	6.1860	0	33.8670	0	26.637	0	248.178	0	102.4	4	34.0	4	-1E+10	1	-1E+10	1	-1E+10	1	-1E+10	1	-1E+10	1	-1E+10	1
4902551	122	C	01/01/2024	09:06	-130.733	46.685	0	251.40	0	6.1840	0	33.8660	0	26.636	0	249.169	0	102.0	4	33.8	4	-1E+10	1	-1E+10	1	-1E+10	1	-1E+10	1	-1E+10	1	-1E+10	1
4902551	122	C	01/01/2024	09:06	-130.733	46.685	0	252.50	0	6.1750	0	33.8660	0	26.637	0	250.258	0	101.6	4	33.7	4	-1E+10	1	-1E+10	1	-1E+10	1	-1E+10	1	-1E+10	1	-1E+10	1
4902551	122	C	01/01/2024	09:06	-130.733	46.685	0	253.50	0	6.1590	0	33.8660	0	26.639	0	251.249	0	101.3	4	33.6	4	-1E+10	1	-1E+10	1	-1E+10	1	-1E+10	1	-1E+10	1	-1E+10	1
4902551	122	C	01/01/2024	09:06	-130.733	46.685	0	254.60	0	6.1540	0	33.8680	0	26.642	0	252.339	0	100.9	4	33.5	4	-1E+10	1	-1E+10	1	-1E+10	1	-1E+10	1	-1E+10	1	-1E+10	1
4902551	122	C	01/01/2024	09:06	-130.733	46.685	0	255.60	0	6.1510	0	33.8680	0	26.642	0	253.329	0	100.5	4	33.3	4	-1E+10	1	-1E+10	1	-1E+10	1	-1E+10	1	-1E+10	1	-1E+10	1
4902551	122	C	01/01/2024	09:06	-130.733	46.685	0	256.70	0	6.1350	0	33.8700	0	26.646	0	254.419	0	100.2	4	33.2	4	-1E+10	1	-1E+10	1	-1E+10	1	-1E+10	1	-1E+10	1	-1E+10	1
4902551	122	C	01/01/2024	09:06	-130.733	46.685	0	257.80	0	6.1120	0	33.8730	0	26.651	0	255.508	0	100.0	4	33.1	4	-1E+10	1	-1E+10	1	-1E+10	1	-1E+10	1	-1E+10	1	-1E+10	1
4902551	122	C	01/01/2024	09:06	-130.733	46.685	0	258.80	0	6.1090	0	33.8730	0	26.651	0	256.499	0	99.8	4	33.0	4	-1E+10	1	-1E+10	1	-1E+10	1	-1E+10	1	-1E+10	1	-1E+10	1
4902551	122	C	01/01/2024	09:06	-130.733	46.685	0	259.90	0	6.1020	0	33.8740	0	26.653	0	257.588	0	99.6	4	33.0	4	-1E+10	1	-1E+10	1	-1E+10	1	-1E+10	1	-1E+10	1	-1E+10	1
4902551	122	C	01/01/2024	09:06	-130.733	46.685	0	260.90	0	6.1000	0	33.8740	0	26.653	0	258.579	0	99.3	4	32.9	4	-1E+10	1	-1E+10	1	-1E+10	1	-1E+10	1	-1E+10	1	-1E+10	1
4902551	122	C	01/01/2024	09:06	-130.733	46.685	0	261.90	0	6.0990	0	33.8720	0	26.652	0	259.569	0	99.0	4	32.8	4	-1E+10	1	-1E+10	1	-1E+10	1	-1E+10	1	-1E+10	1	-1E+10	1
4902551	122	C	01/01/2024	09:06	-130.733	46.685	0	263.00	0	6.0940	0	33.8740	0	26.654	0	260.659	0	98.6	4	32.6	4	-1E+10	1	-1E+10	1	-1E+10	1	-1E+10	1	-1E+10	1	-1E+10	1
4902551	122	C	01/01/2024	09:06	-130.733	46.685	0	264.00	0	6.0630	0	33.8740	0	26.658	0	261.649	0	98.3	4	32.5	4	-1E+10	1	-1E+10	1	-1E+10	1	-1E+10	1	-1E+10	1	-1E+10	1
4902551	122	C	01/01/2024	09:06	-130.733	46.685	0	265.00	0	6.0530	0	33.8750	0	26.660	0	262.640	0	98.0	4	32.4	4	-1E+10	1	-1E+10	1	-1E+10	1	-1E+10	1	-1E+10	1	-1E+10	1
4902551	122	C	01/01/2024	09:06	-130.733	46.685	0	266.10	0	6.0450	0	33.8720	0	26.659	0	263.729	0	97.6	4	32.3	4	-1E+10	1	-1E+10	1	-1E+10	1	-1E+10	1	-1E+10	1	-1E+10	1
4902551	122	C	01/01/2024	09:06	-130.733	46.685	0	267.10	0	6.0330	0	33.8740	0	26.662	0	264.720	0	97.3	4	32.2	4	-1E+10	1	-1E+10	1	-1E+10	1	-1E+10	1	-1E+10	1	-1E+10	1
4902551	122	C	01/01/2024	09:06	-130.733	46.685	0	268.20	0	6.0140	0	33.8760	0	26.666	0	265.809	0	97.0	4	32.1	4	-1E+10	1	-1E+10	1	-1E+10	1	-1E+10	1	-1E+10	1	-1E+10	1
4902551	122	C	01/01/2024	09:06	-130.733	46.685	0	269.20	0	6.0010	0	33.8770	0	26.668	0	266.799	0	96.7	4	31.9	4	-1E+10	1	-1E+10	1	-1E+10	1	-1E+10	1	-1E+10	1	-1E+10	1
4902551	122	C	01/01/2024	09:06	-130.733	46.685	0	270.20	0	5.9930	0	33.8750	0	26.668	0	267.790	0	96.4	4	31.8	4	-1E+10	1	-1E+10	1	-1E+10	1	-1E+10	1	-1E+10	1	-1E+10	1
4902551	122	C	01/01/2024	09:06	-130.733	46.685	0	271.30	0	5.9800	0	33.8780	0	26.672	0	268.879	0	96.0	4	31.7	4	-1E+10	1	-1E+10	1	-1E+10	1	-1E+10	1	-1E+10	1	-1E+10	1
4902551	122	C	01/01/2024	09:06	-130.733	46.685	0	272.30	0	5.9670	0	33.8780	0	26.673	0	269.870	0	95.7	4	31.6	4	-1E+10	1	-1E+10	1	-1E+10	1	-1E+10	1	-1E+10	1	-1E+10	1
4902551	122	C	01/01/2024	09:06	-130.733	46.685	0	273.30	0	5.9660	0	33.8790	0	26.674	0	270.860	0	95.3	4	31.5	4	-1E+10	1	-1E+10	1	-1E+10	1	-1E+10	1	-1E+10	1	-1E+10	1
4902551	122	C	01/01/2024	09:06	-130.733	46.685	0	274.30	0	5.9620	0	33.8790	0	26.675	0	271.851	0	94.9	4	31.3	4	-1E+10	1	-1E+10	1	-1E+10	1	-1E+10	1	-1E+10	1	-1E+10	1
4902551	122	C	01/01/2024	09:06	-130.733	46.685	0	275.30	0	5.9570	0	33.8780	0	26.675	0	272.841	0	94.6	4	31.2	4	-1E+10	1	-1E+10	1	-1E+10	1	-1E+10	1	-1E+10	1	-1E+10	1
4902551	122	C	01/01/2024	09:06	-130.733	46.685	0	276.30	0	5.9310	0	33.8790	0	26.679	0	273.831	0	94.2	4	31.1	4	-1E+10	1	-1E+10	1	-1E+10	1	-1E+10	1	-1E+10	1	-1E+10	1
4902551	122	C	01/01/2024	09:06	-130.733	46.685	0	277.20	0	5.9040	0	33.8830	0	26.685	0	274.723	0	94.0	4	31.0	4	-1E+10	1	-1E+10	1	-1E+10	1	-1E+10	1	-1E+10	1	-1E+10	1
4902551	122	C	01/01/2024	09:06	-130.733	46.685	0	278.20	0	5.9000	0	33.8840	0	26.686	0	275.713	0	93.9	4	30.9	4	-1E+10	1	-1E+10	1	-1E+10	1	-1E+10	1	-1E+10	1	-1E+10	1
4902551	122	C	01/01/2024	09:06	-130.733	46.685	0	279.20	0	5.8950	0	33.8860	0	26.689	0	276.704	0	93.8	4	30.9	4	-1E+10	1	-1E+10	1	-1E+10	1	-1E+10	1	-1E+10	1	-1E+10	1
4902551	122	C	01/01/2024	09:06	-130.733	46.685	0	280.20	0	5.8940	0	33.8840	0	26.687	0	277.694	0	93.6	4	30.9	4	-1E+10	1	-1E+10	1	-1E+10	1	-1E+10	1	-1E+10	1	-1E+10	1
4902551	122	C	01/01/2024	09:06	-130.733	46.685	0	281.10	0	5.8920	0	33.8850	0	26.688	0	278.585	0	93.5	4	30.8	4	-1E+10	1	-1E+10	1	-1E+10	1	-1E+10	1	-1E+10	1	-1E+10	1
4902551	122	C	01/01/2024	09:06	-130.733	46.685	0	282.00	0	5.8900	0	33.8840	0	26.688	0	279.477	0	93.3	4	30.7	4	-1E+10	1	-1E+10	1	-1E+10	1	-1E+10	1	-1E+10	1	-1E+10	1
4902551	122	C	01/01/2024	09:06	-130.733	46.685	0	282.90	0	5.8730	0	33.8880	0	26.693	0	280.368	0	93.2	4	30.7	4	-1E+10	1	-1E+10	1	-1E+10	1	-1E+10	1	-1E+10	1	-1E+10	1
4902551	122	C	01/01/2024	09:06	-130.733	46.685	0	283.80	0	5.8600	0	33.8810	0	26.689	0	281.259	0	93.1	4	30.6	4	-1E+10	1	-1E+10	1	-1E+10	1	-1E+10	1	-1E+10	1	-1E+10	1
4902551	122	C	01/01/2024	09:06	-130.733	46.685	0	284.80	0	5.8410	0	33.8820	0	26.692	0	282.250	0	92.9	4	30.6	4	-1E+10	1	-1E+10	1	-1E+10	1	-1E+10	1	-1E+10	1	-1E+10	1
4902551	122	C	01/01/2024	09:06	-130.733	46.685	0	285.70	0	5.8230	0	33.8910	0	26.701	0	283.141	0	92.8	4	30.5	4	-1E+10	1	-1E+10	1	-1E+10	1	-1E+10	1	-1E+10	1	-1E+10	1
4902551	122	C	01/01/2024	09:06	-130.733	46.685	0	286.60	0	5.8190	0	33.8850	0	26.697	0	284.032	0	92.7	4	30.5	4	-1E+10	1	-1E+10	1	-1E+10	1	-1E+10	1	-1E+10	1	-1E+10	1
4902551	122	C	01/01/2024	09:06	-130.733	46.685	0	287.60	0	5.8180	0	33.8820	0	26.695	0	285.023	0	92.6	4	30.5	4	-1E+10	1	-1E+10	1	-1E+10	1	-1E+10	1	-1E+10	1	-1E+10	1
4902551	122	C	01/01/2024	09:06	-130.733	46.685	0	288.50	0	5.8090	0	33.8860	0	26.699	0	285.914	0	92.5	4	30.4	4	-1E+10	1	-1E+10	1	-1E+10	1	-1E+10	1	-1E+10	1	-1E+10	1
4902551	122	C	01/01/2024	09:06	-130.733	46.685	0	289.90	0	5.8040	0	33.8860	0	26.700	0	287.300	0	92.3	4	30.4	4	-1E+10	1	-1E+10	1	-1E+10	1	-1E+10	1	-1E+10	1	-1E+10	1
4902551	122	C	01/01/2024	09:06	-130.733	46.685	0	291.40	0	5.8040	0	33.8860	0	26.700	0	288.786	0	92.1	4	30.3	4	-1E+10	1	-1E+10	1	-1E+10	1	-1E+10	1	-1E+10	1	-1E+10	1
4902551	122	C	01/01/2024	09:06	-130.733	46.685	0	292.40	0	5.7980	0	33.8880	0	26.702	0	289.776	0	92.0	4	30.2	4	-1E+10	1	-1E+10	1	-1E+10	1	-1E+10	1	-1E+10	1	-1E+10	1
4902551	122	C	01/01/2024	09:06	-130.733	46.685	0	293.40	0	5.7980	0	33.8860	0	26.701	0	290.767	0	91.8	4	30.2	4	-1E+10	1	-1E+10	1	-1E+10	1	-1E+10	1	-1E+10	1	-1E+10	1
4902551	122	C	01/01/2024	09:06	-130.733	46.685	0	294.30	0	5.7960	0	33.8870	0	26.702	0	291.658	0	91.5	4	30.1	4	-1E+10	1	-1E+10	1	-1E+10	1	-1E+10	1	-1E+10	1	-1E+10	1
4902551	122	C	01/01/2024	09:06	-130.733	46.685	0	295.30	0	5.7960	0	33.8870	0	26.702	0	292.648	0	91.3	4	30.0	4	-1E+10	1	-1E+10	1	-1E+10	1	-1E+10	1	-1E+10	1	-1E+10	1
4902551	122	C	01/01/2024	09:06	-130.733	46.685	0	296.30	0	5.7920	0	33.8890	0	26.704	0	293.639	0	91.0	4	29.9	4	-1E+10	1	-1E+10	1	-1E+10	1	-1E+10	1	-1E+10	1	-1E+10	1
4902551	122	C	01/01/2024	09:06	-130.733	46.685	0	297.30	0	5.7890	0	33.8880	0	26.703	0	294.629	0	90.6	4	29.8	4	-1E+10	1	-1E+10	1	-1E+10	1	-1E+10	1	-1E+10	1	-1E+10	1
4902551	122	C	01/01/2024	09:06	-130.733	46.685	0	298.30	0	5.7880	0	33.8870	0	26.703	0	295.619	0	90.3	4	29.7	4	-1E+10	1	-1E+10	1	-1E+10	1	-1E+10	1	-1E+10	1	-1E+10	1
4902551	122	C	01/01/2024	09:06	-130.733	46.685	0	299.30	0	5.7870	0	33.8870	0	26.703	0	296.609	0	89.8	4	29.5	4	-1E+10	1	-1E+10	1	-1E+10	1	-1E+10	1	-1E+10	1	-1E+10	1
4902551	122	C	01/01/2024	09:06	-130.733	46.685	0	300.20	0	5.7830	0	33.8880	0	26.704	0	297.501	0	89.3	4	29.3	4	-1E+10	1	-1E+10	1	-1E+10	1	-1E+10	1	-1E+10	1	-1E+10	1
4902551	122	C	01/01/2024	09:06	-130.733	46.685	0	301.20	0	5.7820	0	33.8880	0	26.704	0	298.491	0	88.7	4	29.1	4	-1E+10	1	-1E+10	1	-1E+10	1	-1E+10	1	-1E+10	1	-1E+10	1
4902551	122	C	01/01/2024	09:06	-130.733	46.685	0	302.10	0	5.7730	0	33.8890	0	26.706	0	299.382	0	88.0	4	28.9	4	-1E+10	1	-1E+10	1	-1E+10	1	-1E+10	1	-1E+10	1	-1E+10	1
4902551	122	C	01/01/2024	09:06	-130.733	46.685	0	303.10	0	5.7400	0	33.8910	0	26.712	0	300.373	0	87.2	4	28.6	4	-1E+10	1	-1E+10	1	-1E+10	1	-1E+10	1	-1E+10	1	-1E+10	1
4902551	122	C	01/01/2024	09:06	-130.733	46.685	0	304.00	0	5.7180	0	33.8940	0	26.717	0	301.264	0	86.5	4	28.4	4	-1E+10	1	-1E+10	1	-1E+10	1	-1E+10	1	-1E+10	1	-1E+10	1
4902551	122	C	01/01/2024	09:06	-130.733	46.685	0	305.00	0	5.6980	0	33.8950	0	26.720	0	302.254	0	85.9	4	28.2	4	-1E+10	1	-1E+10	1	-1E+10	1	-1E+10	1	-1E+10	1	-1E+10	1
4902551	122	C	01/01/2024	09:06	-130.733	46.685	0	306.00	0	5.6940	0	33.8940	0	26.720	0	303.244	0	85.4	4	28.0	4	-1E+10	1	-1E+10	1	-1E+10	1	-1E+10	1	-1E+10	1	-1E+10	1
4902551	122	C	01/01/2024	09:06	-130.733	46.685	0	307.00	0	5.6870	0	33.8940	0	26.721	0	304.235	0	84.7	4	27.8	4	-1E+10	1	-1E+10	1	-1E+10	1	-1E+10	1	-1E+10	1	-1E+10	1
4902551	122	C	01/01/2024	09:06	-130.733	46.685	0	307.90	0	5.6770	0	33.8950	0	26.723	0	305.126	0	84.1	4	27.6	4	-1E+10	1	-1E+10	1	-1E+10	1	-1E+10	1	-1E+10	1	-1E+10	1
4902551	122	C	01/01/2024	09:06	-130.733	46.685	0	308.90	0	5.6600	0	33.8950	0	26.725	0	306.116	0	83.5	4	27.4	4	-1E+10	1	-1E+10	1	-1E+10	1	-1E+10	1	-1E+10	1	-1E+10	1
4902551	122	C	01/01/2024	09:06	-130.733	46.685	0	309.90	0	5.6390	0	33.8970	0	26.729	0	307.106	0	82.8	4	27.1	4	-1E+10	1	-1E+10	1	-1E+10	1	-1E+10	1	-1E+10	1	-1E+10	1
4902551	122	C	01/01/2024	09:06	-130.733	46.685	0	310.80	0	5.6140	0	33.8970	0	26.732	0	307.998	0	82.4	4	27.0	4	-1E+10	1	-1E+10	1	-1E+10	1	-1E+10	1	-1E+10	1	-1E+10	1
4902551	122	C	01/01/2024	09:06	-130.733	46.685	0	311.80	0	5.6040	0	33.8970	0	26.733	0	308.988	0	81.9	4	26.8	4	-1E+10	1	-1E+10	1	-1E+10	1	-1E+10	1	-1E+10	1	-1E+10	1
4902551	122	C	01/01/2024	09:06	-130.733	46.685	0	312.80	0	5.5990	0	33.8970	0	26.734	0	309.978	0	81.5	4	26.7	4	-1E+10	1	-1E+10	1	-1E+10	1	-1E+10	1	-1E+10	1	-1E+10	1
4902551	122	C	01/01/2024	09:06	-130.733	46.685	0	313.80	0	5.5870	0	33.8990	0	26.737	0	310.968	0	81.2	4	26.6	4	-1E+10	1	-1E+10	1	-1E+10	1	-1E+10	1	-1E+10	1	-1E+10	1
4902551	122	C	01/01/2024	09:06	-130.733	46.685	0	314.80	0	5.5780	0	33.8990	0	26.738	0	311.958	0	80.8	4	26.4	4	-1E+10	1	-1E+10	1	-1E+10	1	-1E+10	1	-1E+10	1	-1E+10	1
4902551	122	C	01/01/2024	09:06	-130.733	46.685	0	315.80	0	5.5670	0	33.9000	0	26.740	0	312.949	0	80.6	4	26.3	4	-1E+10	1	-1E+10	1	-1E+10	1	-1E+10	1	-1E+10	1	-1E+10	1
4902551	122	C	01/01/2024	09:06	-130.733	46.685	0	316.80	0	5.5600	0	33.9010	0	26.742	0	313.939	0	80.3	4	26.2	4	-1E+10	1	-1E+10	1	-1E+10	1	-1E+10	1	-1E+10	1	-1E+10	1
4902551	122	C	01/01/2024	09:06	-130.733	46.685	0	317.80	0	5.5510	0	33.9020	0	26.743	0	314.929	0	80.0	4	26.2	4	-1E+10	1	-1E+10	1	-1E+10	1	-1E+10	1	-1E+10	1	-1E+10	1
4902551	122	C	01/01/2024	09:06	-130.733	46.685	0	318.80	0	5.5470	0	33.9030	0	26.745	0	315.919	0	79.7	4	26.1	4	-1E+10	1	-1E+10	1	-1E+10	1	-1E+10	1	-1E+10	1	-1E+10	1
4902551	122	C	01/01/2024	09:06	-130.733	46.685	0	319.80	0	5.5470	0	33.9040	0	26.746	0	316.909	0	79.3	4	25.9	4	-1E+10	1	-1E+10	1	-1E+10	1	-1E+10	1	-1E+10	1	-1E+10	1
4902551	122	C	01/01/2024	09:06	-130.733	46.685	0	320.70	0	5.5410	0	33.9050	0	26.747	0	317.801	0	78.9	4	25.8	4	-1E+10	1	-1E+10	1	-1E+10	1	-1E+10	1	-1E+10	1	-1E+10	1
4902551	122	C	01/01/2024	09:06	-130.733	46.685	0	321.60	0	5.5380	0	33.9060	0	26.748	0	318.692	0	78.3	4	25.6	4	-1E+10	1	-1E+10	1	-1E+10	1	-1E+10	1	-1E+10	1	-1E+10	1
4902551	122	C	01/01/2024	09:06	-130.733	46.685	0	322.80	0	5.5290	0	33.9080	0	26.751	0	319.880	0	77.6	4	25.4	4	-1E+10	1	-1E+10	1	-1E+10	1	-1E+10	1	-1E+10	1	-1E+10	1
4902551	122	C	01/01/2024	09:06	-130.733	46.685	0	323.90	0	5.5190	0	33.9080	0	26.752	0	320.969	0	76.7	4	25.0	4	-1E+10	1	-1E+10	1	-1E+10	1	-1E+10	1	-1E+10	1	-1E+10	1
4902551	122	C	01/01/2024	09:06	-130.733	46.685	0	325.00	0	5.5090	0	33.9090	0	26.754	0	322.058	0	75.7	4	24.7	4	-1E+10	1	-1E+10	1	-1E+10	1	-1E+10	1	-1E+10	1	-1E+10	1
4902551	122	C	01/01/2024	09:06	-130.733	46.685	0	325.80	0	5.4940	0	33.9090	0	26.756	0	322.851	0	75.1	4	24.5	4	-1E+10	1	-1E+10	1	-1E+10	1	-1E+10	1	-1E+10	1	-1E+10	1
4902551	122	C	01/01/2024	09:06	-130.733	46.685	0	326.90	0	5.4690	0	33.9110	0	26.760	0	323.940	0	74.4	4	24.3	4	-1E+10	1	-1E+10	1	-1E+10	1	-1E+10	1	-1E+10	1	-1E+10	1
4902551	122	C	01/01/2024	09:06	-130.733	46.685	0	328.10	0	5.4570	0	33.9120	0	26.763	0	325.128	0	73.6	4	24.0	4	-1E+10	1	-1E+10	1	-1E+10	1	-1E+10	1	-1E+10	1	-1E+10	1
4902551	122	C	01/01/2024	09:06	-130.733	46.685	0	328.90	0	5.4490	0	33.9130	0	26.764	0	325.920	0	73.0	4	23.8	4	-1E+10	1	-1E+10	1	-1E+10	1	-1E+10	1	-1E+10	1	-1E+10	1
4902551	122	C	01/01/2024	09:06	-130.733	46.685	0	329.70	0	5.4420	0	33.9130	0	26.765	0	326.712	0	72.5	4	23.6	4	-1E+10	1	-1E+10	1	-1E+10	1	-1E+10	1	-1E+10	1	-1E+10	1
4902551	122	C	01/01/2024	09:06	-130.733	46.685	0	330.90	0	5.4330	0	33.9130	0	26.766	0	327.900	0	71.7	4	23.4	4	-1E+10	1	-1E+10	1	-1E+10	1	-1E+10	1	-1E+10	1	-1E+10	1
4902551	122	C	01/01/2024	09:06	-130.733	46.685	0	332.10	0	5.4160	0	33.9160	0	26.771	0	329.089	0	71.0	4	23.1	4	-1E+10	1	-1E+10	1	-1E+10	1	-1E+10	1	-1E+10	1	-1E+10	1
4902551	122	C	01/01/2024	09:06	-130.733	46.685	0	332.90	0	5.3990	0	33.9190	0	26.775	0	329.881	0	70.6	4	23.0	4	-1E+10	1	-1E+10	1	-1E+10	1	-1E+10	1	-1E+10	1	-1E+10	1
4902551	122	C	01/01/2024	09:06	-130.733	46.685	0	333.70	0	5.3740	0	33.9200	0	26.779	0	330.673	0	70.2	4	22.9	4	-1E+10	1	-1E+10	1	-1E+10	1	-1E+10	1	-1E+10	1	-1E+10	1
4902551	122	C	01/01/2024	09:06	-130.733	46.685	0	334.90	0	5.3660	0	33.9200	0	26.780	0	331.861	0	69.7	4	22.7	4	-1E+10	1	-1E+10	1	-1E+10	1	-1E+10	1	-1E+10	1	-1E+10	1
4902551	122	C	01/01/2024	09:06	-130.733	46.685	0	336.20	0	5.3560	0	33.9220	0	26.783	0	333.148	0	69.2	4	22.5	4	-1E+10	1	-1E+10	1	-1E+10	1	-1E+10	1	-1E+10	1	-1E+10	1
4902551	122	C	01/01/2024	09:06	-130.733	46.685	0	337.00	0	5.3490	0	33.9220	0	26.783	0	333.940	0	68.9	4	22.4	4	-1E+10	1	-1E+10	1	-1E+10	1	-1E+10	1	-1E+10	1	-1E+10	1
4902551	122	C	01/01/2024	09:06	-130.733	46.685	0	337.80	0	5.3420	0	33.9230	0	26.785	0	334.732	0	68.7	4	22.3	4	-1E+10	1	-1E+10	1	-1E+10	1	-1E+10	1	-1E+10	1	-1E+10	1
4902551	122	C	01/01/2024	09:06	-130.733	46.685	0	339.00	0	5.3180	0	33.9240	0	26.789	0	335.920	0	68.3	4	22.2	4	-1E+10	1	-1E+10	1	-1E+10	1	-1E+10	1	-1E+10	1	-1E+10	1
4902551	122	C	01/01/2024	09:06	-130.733	46.685	0	340.20	0	5.2710	0	33.9320	0	26.801	0	337.109	0	68.0	4	22.1	4	-1E+10	1	-1E+10	1	-1E+10	1	-1E+10	1	-1E+10	1	-1E+10	1
4902551	122	C	01/01/2024	09:06	-130.733	46.685	0	341.10	0	5.2530	0	33.9260	0	26.798	0	338.000	0	67.9	4	22.0	4	-1E+10	1	-1E+10	1	-1E+10	1	-1E+10	1	-1E+10	1	-1E+10	1
4902551	122	C	01/01/2024	09:06	-130.733	46.685	0	341.90	0	5.2440	0	33.9250	0	26.798	0	338.792	0	67.7	4	22.0	4	-1E+10	1	-1E+10	1	-1E+10	1	-1E+10	1	-1E+10	1	-1E+10	1
4902551	122	C	01/01/2024	09:06	-130.733	46.685	0	342.80	0	5.2350	0	33.9290	0	26.802	0	339.683	0	67.5	4	21.9	4	-1E+10	1	-1E+10	1	-1E+10	1	-1E+10	1	-1E+10	1	-1E+10	1
4902551	122	C	01/01/2024	09:06	-130.733	46.685	0	343.60	0	5.2340	0	33.9290	0	26.802	0	340.475	0	67.3	4	21.8	4	-1E+10	1	-1E+10	1	-1E+10	1	-1E+10	1	-1E+10	1	-1E+10	1
4902551	122	C	01/01/2024	09:06	-130.733	46.685	0	344.90	0	5.2310	0	33.9280	0	26.802	0	341.762	0	67.0	4	21.7	4	-1E+10	1	-1E+10	1	-1E+10	1	-1E+10	1	-1E+10	1	-1E+10	1
4902551	122	C	01/01/2024	09:06	-130.733	46.685	0	346.20	0	5.2280	0	33.9280	0	26.802	0	343.049	0	66.5	4	21.6	4	-1E+10	1	-1E+10	1	-1E+10	1	-1E+10	1	-1E+10	1	-1E+10	1
4902551	122	C	01/01/2024	09:06	-130.733	46.685	0	347.10	0	5.2180	0	33.9280	0	26.804	0	343.940	0	66.3	4	21.5	4	-1E+10	1	-1E+10	1	-1E+10	1	-1E+10	1	-1E+10	1	-1E+10	1
4902551	122	C	01/01/2024	09:06	-130.733	46.685	0	347.90	0	5.2120	0	33.9280	0	26.804	0	344.732	0	66.0	4	21.4	4	-1E+10	1	-1E+10	1	-1E+10	1	-1E+10	1	-1E+10	1	-1E+10	1
4902551	122	C	01/01/2024	09:06	-130.733	46.685	0	348.80	0	5.2090	0	33.9280	0	26.805	0	345.623	0	65.6	4	21.3	4	-1E+10	1	-1E+10	1	-1E+10	1	-1E+10	1	-1E+10	1	-1E+10	1
4902551	122	C	01/01/2024	09:06	-130.733	46.685	0	349.70	0	5.1900	0	33.9310	0	26.809	0	346.514	0	65.4	4	21.2	4	-1E+10	1	-1E+10	1	-1E+10	1	-1E+10	1	-1E+10	1	-1E+10	1
4902551	122	C	01/01/2024	09:06	-130.733	46.685	0	352.80	0	5.1730	0	33.9320	0	26.812	0	349.583	0	64.4	4	20.9	4	-1E+10	1	-1E+10	1	-1E+10	1	-1E+10	1	-1E+10	1	-1E+10	1
4902551	122	C	01/01/2024	09:06	-130.733	46.685	0	357.80	0	5.1480	0	33.9360	0	26.818	0	354.534	0	62.9	4	20.4	4	-1E+10	1	-1E+10	1	-1E+10	1	-1E+10	1	-1E+10	1	-1E+10	1
4902551	122	C	01/01/2024	09:06	-130.733	46.685	0	362.50	0	5.1080	0	33.9410	0	26.827	0	359.187	0	61.8	4	20.0	4	-1E+10	1	-1E+10	1	-1E+10	1	-1E+10	1	-1E+10	1	-1E+10	1
4902551	122	C	01/01/2024	09:06	-130.733	46.685	0	367.90	0	5.0680	0	33.9420	0	26.832	0	364.532	0	60.5	4	19.6	4	-1E+10	1	-1E+10	1	-1E+10	1	-1E+10	1	-1E+10	1	-1E+10	1
4902551	122	C	01/01/2024	09:06	-130.733	46.685	0	373.40	0	5.0140	0	33.9470	0	26.842	0	369.977	0	58.6	4	18.9	4	-1E+10	1	-1E+10	1	-1E+10	1	-1E+10	1	-1E+10	1	-1E+10	1
4902551	122	C	01/01/2024	09:06	-130.733	46.685	0	378.00	0	4.9850	0	33.9520	0	26.850	0	374.531	0	57.2	4	18.5	4	-1E+10	1	-1E+10	1	-1E+10	1	-1E+10	1	-1E+10	1	-1E+10	1
4902551	122	C	01/01/2024	09:06	-130.733	46.685	0	382.60	0	4.9720	0	33.9580	0	26.856	0	379.084	0	55.8	4	18.0	4	-1E+10	1	-1E+10	1	-1E+10	1	-1E+10	1	-1E+10	1	-1E+10	1
4902551	122	C	01/01/2024	09:06	-130.733	46.685	0	387.90	0	4.9610	0	33.9620	0	26.860	0	384.331	0	54.5	4	17.6	4	-1E+10	1	-1E+10	1	-1E+10	1	-1E+10	1	-1E+10	1	-1E+10	1
4902551	122	C	01/01/2024	09:06	-130.733	46.685	0	393.20	0	4.9450	0	33.9680	0	26.867	0	389.577	0	53.1	4	17.1	4	-1E+10	1	-1E+10	1	-1E+10	1	-1E+10	1	-1E+10	1	-1E+10	1
4902551	122	C	01/01/2024	09:06	-130.733	46.685	0	397.90	0	4.9290	0	33.9710	0	26.871	0	394.229	0	51.8	4	16.7	4	-1E+10	1	-1E+10	1	-1E+10	1	-1E+10	1	-1E+10	1	-1E+10	1
4902551	122	C	01/01/2024	09:06	-130.733	46.685	0	402.60	0	4.9010	0	33.9770	0	26.879	0	398.881	0	50.5	4	16.3	4	-1E+10	1	-1E+10	1	-1E+10	1	-1E+10	1	-1E+10	1	-1E+10	1
4902551	122	C	01/01/2024	09:06	-130.733	46.685	0	407.90	0	4.8610	0	33.9840	0	26.889	0	404.127	0	49.4	4	15.9	4	-1E+10	1	-1E+10	1	-1E+10	1	-1E+10	1	-1E+10	1	-1E+10	1
4902551	122	C	01/01/2024	09:06	-130.733	46.685	0	412.90	0	4.8260	0	33.9890	0	26.897	0	409.076	0	48.9	4	15.7	4	-1E+10	1	-1E+10	1	-1E+10	1	-1E+10	1	-1E+10	1	-1E+10	1
4902551	122	C	01/01/2024	09:06	-130.733	46.685	0	417.60	0	4.8160	0	33.9900	0	26.899	0	413.728	0	48.5	4	15.6	4	-1E+10	1	-1E+10	1	-1E+10	1	-1E+10	1	-1E+10	1	-1E+10	1
4902551	122	C	01/01/2024	09:06	-130.733	46.685	0	422.80	0	4.8090	0	33.9900	0	26.900	0	418.875	0	47.9	4	15.4	4	-1E+10	1	-1E+10	1	-1E+10	1	-1E+10	1	-1E+10	1	-1E+10	1
4902551	122	C	01/01/2024	09:06	-130.733	46.685	0	428.00	0	4.7960	0	33.9930	0	26.904	0	424.021	0	46.8	4	15.1	4	-1E+10	1	-1E+10	1	-1E+10	1	-1E+10	1	-1E+10	1	-1E+10	1
4902551	122	C	01/01/2024	09:06	-130.733	46.685	0	432.90	0	4.7930	0	33.9970	0	26.907	0	428.870	0	46.0	4	14.8	4	-1E+10	1	-1E+10	1	-1E+10	1	-1E+10	1	-1E+10	1	-1E+10	1
4902551	122	C	01/01/2024	09:06	-130.733	46.685	0	437.70	0	4.7890	0	33.9990	0	26.909	0	433.621	0	45.0	4	14.5	4	-1E+10	1	-1E+10	1	-1E+10	1	-1E+10	1	-1E+10	1	-1E+10	1
4902551	122	C	01/01/2024	09:06	-130.733	46.685	0	442.90	0	4.7690	0	34.0020	0	26.914	0	438.767	0	43.7	4	14.0	4	-1E+10	1	-1E+10	1	-1E+10	1	-1E+10	1	-1E+10	1	-1E+10	1
4902551	122	C	01/01/2024	09:06	-130.733	46.685	0	448.20	0	4.7440	0	34.0110	0	26.924	0	444.012	0	42.6	4	13.7	4	-1E+10	1	-1E+10	1	-1E+10	1	-1E+10	1	-1E+10	1	-1E+10	1
4902551	122	C	01/01/2024	09:06	-130.733	46.685	0	453.20	0	4.7320	0	34.0120	0	26.926	0	448.959	0	41.4	4	13.3	4	-1E+10	1	-1E+10	1	-1E+10	1	-1E+10	1	-1E+10	1	-1E+10	1
4902551	122	C	01/01/2024	09:06	-130.733	46.685	0	458.10	0	4.6900	0	34.0200	0	26.937	0	453.808	0	39.9	4	12.8	4	-1E+10	1	-1E+10	1	-1E+10	1	-1E+10	1	-1E+10	1	-1E+10	1
4902551	122	C	01/01/2024	09:06	-130.733	46.685	0	463.10	0	4.6640	0	34.0260	0	26.945	0	458.756	0	38.4	4	12.3	4	-1E+10	1	-1E+10	1	-1E+10	1	-1E+10	1	-1E+10	1	-1E+10	1
4902551	122	C	01/01/2024	09:06	-130.733	46.685	0	468.20	0	4.6410	0	34.0330	0	26.953	0	463.802	0	37.2	4	11.9	4	-1E+10	1	-1E+10	1	-1E+10	1	-1E+10	1	-1E+10	1	-1E+10	1
4902551	122	C	01/01/2024	09:06	-130.733	46.685	0	473.30	0	4.6290	0	34.0380	0	26.958	0	468.849	0	35.9	4	11.5	4	-1E+10	1	-1E+10	1	-1E+10	1	-1E+10	1	-1E+10	1	-1E+10	1
4902551	122	C	01/01/2024	09:06	-130.733	46.685	0	478.20	0	4.6120	0	34.0430	0	26.964	0	473.697	0	34.3	4	11.0	4	-1E+10	1	-1E+10	1	-1E+10	1	-1E+10	1	-1E+10	1	-1E+10	1
4902551	122	C	01/01/2024	09:06	-130.733	46.685	0	483.10	0	4.5930	0	34.0500	0	26.972	0	478.545	0	32.6	4	10.4	4	-1E+10	1	-1E+10	1	-1E+10	1	-1E+10	1	-1E+10	1	-1E+10	1
4902551	122	C	01/01/2024	09:06	-130.733	46.685	0	488.20	0	4.5570	0	34.0620	0	26.985	0	483.591	0	31.3	4	10.0	4	-1E+10	1	-1E+10	1	-1E+10	1	-1E+10	1	-1E+10	1	-1E+10	1
4902551	122	C	01/01/2024	09:06	-130.733	46.685	0	493.30	0	4.5420	0	34.0670	0	26.991	0	488.637	0	30.6	4	9.8	4	-1E+10	1	-1E+10	1	-1E+10	1	-1E+10	1	-1E+10	1	-1E+10	1
4902551	122	C	01/01/2024	09:06	-130.733	46.685	0	498.00	0	4.5350	0	34.0690	0	26.993	0	493.287	0	29.9	4	9.5	4	-1E+10	1	-1E+10	1	-1E+10	1	-1E+10	1	-1E+10	1	-1E+10	1
4902551	122	C	01/01/2024	09:06	-130.733	46.685	0	502.70	0	4.5250	0	34.0720	0	26.997	0	497.937	0	28.9	4	9.2	4	-1E+10	1	-1E+10	1	-1E+10	1	-1E+10	1	-1E+10	1	-1E+10	1
4902551	122	C	01/01/2024	09:06	-130.733	46.685	0	508.00	0	4.5120	0	34.0770	0	27.002	0	503.180	0	27.7	4	8.9	4	-1E+10	1	-1E+10	1	-1E+10	1	-1E+10	1	-1E+10	1	-1E+10	1
4902551	122	C	01/01/2024	09:06	-130.733	46.685	0	513.00	0	4.4930	0	34.0850	0	27.011	0	508.127	0	26.7	4	8.5	4	-1E+10	1	-1E+10	1	-1E+10	1	-1E+10	1	-1E+10	1	-1E+10	1
4902551	122	C	01/01/2024	09:06	-130.733	46.685	0	518.00	0	4.4770	0	34.0910	0	27.017	0	513.073	0	26.0	4	8.3	4	-1E+10	1	-1E+10	1	-1E+10	1	-1E+10	1	-1E+10	1	-1E+10	1
4902551	122	C	01/01/2024	09:06	-130.733	46.685	0	523.00	0	4.4690	0	34.0930	0	27.020	0	518.019	0	25.3	4	8.1	4	-1E+10	1	-1E+10	1	-1E+10	1	-1E+10	1	-1E+10	1	-1E+10	1
4902551	122	C	01/01/2024	09:06	-130.733	46.685	0	527.70	0	4.4550	0	34.0990	0	27.026	0	522.669	0	24.4	4	7.8	4	-1E+10	1	-1E+10	1	-1E+10	1	-1E+10	1	-1E+10	1	-1E+10	1
4902551	122	C	01/01/2024	09:06	-130.733	46.685	0	532.90	0	4.4390	0	34.1040	0	27.032	0	527.812	0	23.7	4	7.5	4	-1E+10	1	-1E+10	1	-1E+10	1	-1E+10	1	-1E+10	1	-1E+10	1
4902551	122	C	01/01/2024	09:06	-130.733	46.685	0	538.30	0	4.4190	0	34.1100	0	27.039	0	533.154	0	22.9	4	7.3	4	-1E+10	1	-1E+10	1	-1E+10	1	-1E+10	1	-1E+10	1	-1E+10	1
4902551	122	C	01/01/2024	09:06	-130.733	46.685	0	542.80	0	4.4020	0	34.1150	0	27.044	0	537.605	0	22.4	4	7.1	4	-1E+10	1	-1E+10	1	-1E+10	1	-1E+10	1	-1E+10	1	-1E+10	1
4902551	122	C	01/01/2024	09:06	-130.733	46.685	0	547.60	0	4.3980	0	34.1170	0	27.046	0	542.353	0	21.9	4	7.0	4	-1E+10	1	-1E+10	1	-1E+10	1	-1E+10	1	-1E+10	1	-1E+10	1
4902551	122	C	01/01/2024	09:06	-130.733	46.685	0	552.90	0	4.3840	0	34.1220	0	27.052	0	547.595	0	21.3	4	6.8	4	-1E+10	1	-1E+10	1	-1E+10	1	-1E+10	1	-1E+10	1	-1E+10	1
4902551	122	C	01/01/2024	09:06	-130.733	46.685	0	557.80	0	4.3770	0	34.1260	0	27.056	0	552.442	0	20.7	4	6.6	4	-1E+10	1	-1E+10	1	-1E+10	1	-1E+10	1	-1E+10	1	-1E+10	1
4902551	122	C	01/01/2024	09:06	-130.733	46.685	0	562.80	0	4.3770	0	34.1330	0	27.062	0	557.387	0	20.2	4	6.4	4	-1E+10	1	-1E+10	1	-1E+10	1	-1E+10	1	-1E+10	1	-1E+10	1
4902551	122	C	01/01/2024	09:06	-130.733	46.685	0	567.80	0	4.3730	0	34.1380	0	27.066	0	562.332	0	19.6	4	6.3	4	-1E+10	1	-1E+10	1	-1E+10	1	-1E+10	1	-1E+10	1	-1E+10	1
4902551	122	C	01/01/2024	09:06	-130.733	46.685	0	572.70	0	4.3680	0	34.1430	0	27.071	0	567.178	0	19.3	4	6.2	4	-1E+10	1	-1E+10	1	-1E+10	1	-1E+10	1	-1E+10	1	-1E+10	1
4902551	122	C	01/01/2024	09:06	-130.733	46.685	0	578.20	0	4.3660	0	34.1450	0	27.072	0	572.618	0	19.0	4	6.1	4	-1E+10	1	-1E+10	1	-1E+10	1	-1E+10	1	-1E+10	1	-1E+10	1
4902551	122	C	01/01/2024	09:06	-130.733	46.685	0	583.00	0	4.3610	0	34.1450	0	27.073	0	577.365	0	18.6	4	5.9	4	-1E+10	1	-1E+10	1	-1E+10	1	-1E+10	1	-1E+10	1	-1E+10	1
4902551	122	C	01/01/2024	09:06	-130.733	46.685	0	587.80	0	4.3520	0	34.1480	0	27.076	0	582.112	0	18.0	4	5.7	4	-1E+10	1	-1E+10	1	-1E+10	1	-1E+10	1	-1E+10	1	-1E+10	1
4902551	122	C	01/01/2024	09:06	-130.733	46.685	0	593.20	0	4.3440	0	34.1550	0	27.083	0	587.452	0	17.3	4	5.5	4	-1E+10	1	-1E+10	1	-1E+10	1	-1E+10	1	-1E+10	1	-1E+10	1
4902551	122	C	01/01/2024	09:06	-130.733	46.685	0	598.10	0	4.3460	0	34.1660	0	27.091	0	592.297	0	16.9	4	5.4	4	-1E+10	1	-1E+10	1	-1E+10	1	-1E+10	1	-1E+10	1	-1E+10	1
4902551	122	C	01/01/2024	09:06	-130.733	46.685	0	603.00	0	4.3430	0	34.1680	0	27.093	0	597.143	0	16.6	4	5.3	4	-1E+10	1	-1E+10	1	-1E+10	1	-1E+10	1	-1E+10	1	-1E+10	1
4902551	122	C	01/01/2024	09:06	-130.733	46.685	0	607.90	0	4.3230	0	34.1680	0	27.095	0	601.988	0	16.2	4	5.2	4	-1E+10	1	-1E+10	1	-1E+10	1	-1E+10	1	-1E+10	1	-1E+10	1
4902551	122	C	01/01/2024	09:06	-130.733	46.685	0	612.70	0	4.3090	0	34.1720	0	27.100	0	606.734	0	15.7	4	5.0	4	-1E+10	1	-1E+10	1	-1E+10	1	-1E+10	1	-1E+10	1	-1E+10	1
4902551	122	C	01/01/2024	09:06	-130.733	46.685	0	618.20	0	4.3170	0	34.1810	0	27.106	0	612.173	0	15.2	4	4.8	4	-1E+10	1	-1E+10	1	-1E+10	1	-1E+10	1	-1E+10	1	-1E+10	1
4902551	122	C	01/01/2024	09:06	-130.733	46.685	0	623.10	0	4.3180	0	34.1860	0	27.110	0	617.018	0	15.0	4	4.8	4	-1E+10	1	-1E+10	1	-1E+10	1	-1E+10	1	-1E+10	1	-1E+10	1
4902551	122	C	01/01/2024	09:06	-130.733	46.685	0	628.10	0	4.3160	0	34.1880	0	27.112	0	621.961	0	14.7	4	4.7	4	-1E+10	1	-1E+10	1	-1E+10	1	-1E+10	1	-1E+10	1	-1E+10	1
4902551	122	C	01/01/2024	09:06	-130.733	46.685	0	632.90	0	4.3120	0	34.1940	0	27.117	0	626.707	0	14.3	4	4.6	4	-1E+10	1	-1E+10	1	-1E+10	1	-1E+10	1	-1E+10	1	-1E+10	1
4902551	122	C	01/01/2024	09:06	-130.733	46.685	0	637.70	0	4.2940	0	34.2040	0	27.127	0	631.453	0	14.0	4	4.4	4	-1E+10	1	-1E+10	1	-1E+10	1	-1E+10	1	-1E+10	1	-1E+10	1
4902551	122	C	01/01/2024	09:06	-130.733	46.685	0	643.10	0	4.2770	0	34.2100	0	27.134	0	636.792	0	13.6	4	4.3	4	-1E+10	1	-1E+10	1	-1E+10	1	-1E+10	1	-1E+10	1	-1E+10	1
4902551	122	C	01/01/2024	09:06	-130.733	46.685	0	647.90	0	4.2600	0	34.2130	0	27.138	0	641.537	0	13.1	4	4.2	4	-1E+10	1	-1E+10	1	-1E+10	1	-1E+10	1	-1E+10	1	-1E+10	1
4902551	122	C	01/01/2024	09:06	-130.733	46.685	0	652.70	0	4.2450	0	34.2170	0	27.143	0	646.283	0	12.5	4	4.0	4	-1E+10	1	-1E+10	1	-1E+10	1	-1E+10	1	-1E+10	1	-1E+10	1
4902551	122	C	01/01/2024	09:06	-130.733	46.685	0	657.80	0	4.2200	0	34.2210	0	27.149	0	651.325	0	11.8	4	3.7	4	-1E+10	1	-1E+10	1	-1E+10	1	-1E+10	1	-1E+10	1	-1E+10	1
4902551	122	C	01/01/2024	09:06	-130.733	46.685	0	662.90	0	4.1710	0	34.2390	0	27.168	0	656.366	0	11.3	4	3.6	4	-1E+10	1	-1E+10	1	-1E+10	1	-1E+10	1	-1E+10	1	-1E+10	1
4902551	122	C	01/01/2024	09:06	-130.733	46.685	0	667.90	0	4.1490	0	34.2470	0	27.177	0	661.309	0	11.1	4	3.5	4	-1E+10	1	-1E+10	1	-1E+10	1	-1E+10	1	-1E+10	1	-1E+10	1
4902551	122	C	01/01/2024	09:06	-130.733	46.685	0	672.90	0	4.1400	0	34.2510	0	27.181	0	666.252	0	11.0	4	3.5	4	-1E+10	1	-1E+10	1	-1E+10	1	-1E+10	1	-1E+10	1	-1E+10	1
4902551	122	C	01/01/2024	09:06	-130.733	46.685	0	677.70	0	4.1320	0	34.2520	0	27.183	0	670.997	0	11.0	4	3.5	4	-1E+10	1	-1E+10	1	-1E+10	1	-1E+10	1	-1E+10	1	-1E+10	1
4902551	122	C	01/01/2024	09:06	-130.733	46.685	0	682.60	0	4.1210	0	34.2540	0	27.186	0	675.840	0	10.8	4	3.4	4	-1E+10	1	-1E+10	1	-1E+10	1	-1E+10	1	-1E+10	1	-1E+10	1
4902551	122	C	01/01/2024	09:06	-130.733	46.685	0	687.50	0	4.1020	0	34.2550	0	27.188	0	680.684	0	10.8	4	3.4	4	-1E+10	1	-1E+10	1	-1E+10	1	-1E+10	1	-1E+10	1	-1E+10	1
4902551	122	C	01/01/2024	09:06	-130.733	46.685	0	692.70	0	4.0840	0	34.2540	0	27.189	0	685.824	0	10.8	4	3.4	4	-1E+10	1	-1E+10	1	-1E+10	1	-1E+10	1	-1E+10	1	-1E+10	1
4902551	122	C	01/01/2024	09:06	-130.733	46.685	0	697.80	0	4.0730	0	34.2560	0	27.192	0	690.865	0	10.7	4	3.4	4	-1E+10	1	-1E+10	1	-1E+10	1	-1E+10	1	-1E+10	1	-1E+10	1
4902551	122	C	01/01/2024	09:06	-130.733	46.685	0	702.80	0	4.0690	0	34.2600	0	27.196	0	695.807	0	10.7	4	3.4	4	-1E+10	1	-1E+10	1	-1E+10	1	-1E+10	1	-1E+10	1	-1E+10	1
4902551	122	C	01/01/2024	09:06	-130.733	46.685	0	708.20	0	4.0700	0	34.2650	0	27.200	0	701.144	0	10.6	4	3.4	4	-1E+10	1	-1E+10	1	-1E+10	1	-1E+10	1	-1E+10	1	-1E+10	1
4902551	122	C	01/01/2024	09:06	-130.733	46.685	0	713.20	0	4.0700	0	34.2660	0	27.201	0	706.086	0	10.5	4	3.3	4	-1E+10	1	-1E+10	1	-1E+10	1	-1E+10	1	-1E+10	1	-1E+10	1
4902551	122	C	01/01/2024	09:06	-130.733	46.685	0	718.30	0	4.0640	0	34.2660	0	27.201	0	711.126	0	10.4	4	3.3	4	-1E+10	1	-1E+10	1	-1E+10	1	-1E+10	1	-1E+10	1	-1E+10	1
4902551	122	C	01/01/2024	09:06	-130.733	46.685	0	723.00	0	4.0580	0	34.2670	0	27.203	0	715.771	0	10.3	4	3.3	4	-1E+10	1	-1E+10	1	-1E+10	1	-1E+10	1	-1E+10	1	-1E+10	1
4902551	122	C	01/01/2024	09:06	-130.733	46.685	0	727.60	0	4.0490	0	34.2700	0	27.206	0	720.317	0	10.1	4	3.2	4	-1E+10	1	-1E+10	1	-1E+10	1	-1E+10	1	-1E+10	1	-1E+10	1
4902551	122	C	01/01/2024	09:06	-130.733	46.685	0	732.90	0	4.0320	0	34.2730	0	27.210	0	725.555	0	9.9	4	3.1	4	-1E+10	1	-1E+10	1	-1E+10	1	-1E+10	1	-1E+10	1	-1E+10	1
4902551	122	C	01/01/2024	09:06	-130.733	46.685	0	738.00	0	4.0010	0	34.2810	0	27.220	0	730.595	0	9.7	4	3.1	4	-1E+10	1	-1E+10	1	-1E+10	1	-1E+10	1	-1E+10	1	-1E+10	1
4902551	122	C	01/01/2024	09:06	-130.733	46.685	0	743.20	0	3.9680	0	34.2860	0	27.227	0	735.733	0	9.8	4	3.1	4	-1E+10	1	-1E+10	1	-1E+10	1	-1E+10	1	-1E+10	1	-1E+10	1
4902551	122	C	01/01/2024	09:06	-130.733	46.685	0	747.90	0	3.9550	0	34.2900	0	27.232	0	740.378	0	9.8	4	3.1	4	-1E+10	1	-1E+10	1	-1E+10	1	-1E+10	1	-1E+10	1	-1E+10	1
4902551	122	C	01/01/2024	09:06	-130.733	46.685	0	752.60	0	3.9460	0	34.2910	0	27.233	0	745.022	0	9.7	4	3.0	4	-1E+10	1	-1E+10	1	-1E+10	1	-1E+10	1	-1E+10	1	-1E+10	1
4902551	122	C	01/01/2024	09:06	-130.733	46.685	0	758.00	0	3.9460	0	34.2930	0	27.235	0	750.358	0	9.4	4	3.0	4	-1E+10	1	-1E+10	1	-1E+10	1	-1E+10	1	-1E+10	1	-1E+10	1
4902551	122	C	01/01/2024	09:06	-130.733	46.685	0	763.00	0	3.9420	0	34.2950	0	27.237	0	755.299	0	9.4	4	3.0	4	-1E+10	1	-1E+10	1	-1E+10	1	-1E+10	1	-1E+10	1	-1E+10	1
4902551	122	C	01/01/2024	09:06	-130.733	46.685	0	768.10	0	3.9440	0	34.2950	0	27.237	0	760.338	0	9.3	4	2.9	4	-1E+10	1	-1E+10	1	-1E+10	1	-1E+10	1	-1E+10	1	-1E+10	1
4902551	122	C	01/01/2024	09:06	-130.733	46.685	0	773.10	0	3.9430	0	34.2960	0	27.238	0	765.278	0	9.2	4	2.9	4	-1E+10	1	-1E+10	1	-1E+10	1	-1E+10	1	-1E+10	1	-1E+10	1
4902551	122	C	01/01/2024	09:06	-130.733	46.685	0	777.90	0	3.9380	0	34.2970	0	27.239	0	770.021	0	9.1	4	2.9	4	-1E+10	1	-1E+10	1	-1E+10	1	-1E+10	1	-1E+10	1	-1E+10	1
4902551	122	C	01/01/2024	09:06	-130.733	46.685	0	783.20	0	3.9250	0	34.3000	0	27.243	0	775.257	0	9.1	4	2.9	4	-1E+10	1	-1E+10	1	-1E+10	1	-1E+10	1	-1E+10	1	-1E+10	1
4902551	122	C	01/01/2024	09:06	-130.733	46.685	0	788.30	0	3.9050	0	34.3020	0	27.247	0	780.296	0	9.1	4	2.9	4	-1E+10	1	-1E+10	1	-1E+10	1	-1E+10	1	-1E+10	1	-1E+10	1
4902551	122	C	01/01/2024	09:06	-130.733	46.685	0	792.80	0	3.8960	0	34.3040	0	27.249	0	784.742	0	9.1	4	2.9	4	-1E+10	1	-1E+10	1	-1E+10	1	-1E+10	1	-1E+10	1	-1E+10	1
4902551	122	C	01/01/2024	09:06	-130.733	46.685	0	797.70	0	3.8940	0	34.3040	0	27.249	0	789.583	0	9.1	4	2.9	4	-1E+10	1	-1E+10	1	-1E+10	1	-1E+10	1	-1E+10	1	-1E+10	1
4902551	122	C	01/01/2024	09:06	-130.733	46.685	0	803.10	0	3.8870	0	34.3040	0	27.250	0	794.918	0	9.2	4	2.9	4	-1E+10	1	-1E+10	1	-1E+10	1	-1E+10	1	-1E+10	1	-1E+10	1
4902551	122	C	01/01/2024	09:06	-130.733	46.685	0	808.00	0	3.8800	0	34.3040	0	27.251	0	799.758	0	9.2	4	2.9	4	-1E+10	1	-1E+10	1	-1E+10	1	-1E+10	1	-1E+10	1	-1E+10	1
4902551	122	C	01/01/2024	09:06	-130.733	46.685	0	812.90	0	3.8640	0	34.3070	0	27.255	0	804.599	0	9.2	4	2.9	4	-1E+10	1	-1E+10	1	-1E+10	1	-1E+10	1	-1E+10	1	-1E+10	1
4902551	122	C	01/01/2024	09:06	-130.733	46.685	0	818.00	0	3.8150	0	34.3150	0	27.266	0	809.637	0	9.2	4	2.9	4	-1E+10	1	-1E+10	1	-1E+10	1	-1E+10	1	-1E+10	1	-1E+10	1
4902551	122	C	01/01/2024	09:06	-130.733	46.685	0	822.90	0	3.7990	0	34.3160	0	27.269	0	814.477	0	9.2	4	2.9	4	-1E+10	1	-1E+10	1	-1E+10	1	-1E+10	1	-1E+10	1	-1E+10	1
4902551	122	C	01/01/2024	09:06	-130.733	46.685	0	828.20	0	3.7880	0	34.3170	0	27.271	0	819.713	0	9.2	4	2.9	4	-1E+10	1	-1E+10	1	-1E+10	1	-1E+10	1	-1E+10	1	-1E+10	1
4902551	122	C	01/01/2024	09:06	-130.733	46.685	0	832.70	0	3.7850	0	34.3170	0	27.271	0	824.158	0	9.2	4	2.9	4	-1E+10	1	-1E+10	1	-1E+10	1	-1E+10	1	-1E+10	1	-1E+10	1
4902551	122	C	01/01/2024	09:06	-130.733	46.685	0	837.70	0	3.7780	0	34.3180	0	27.272	0	829.096	0	9.2	4	2.9	4	-1E+10	1	-1E+10	1	-1E+10	1	-1E+10	1	-1E+10	1	-1E+10	1
4902551	122	C	01/01/2024	09:06	-130.733	46.685	0	843.10	0	3.7730	0	34.3190	0	27.274	0	834.430	0	9.2	4	2.9	4	-1E+10	1	-1E+10	1	-1E+10	1	-1E+10	1	-1E+10	1	-1E+10	1
4902551	122	C	01/01/2024	09:06	-130.733	46.685	0	848.10	0	3.7580	0	34.3220	0	27.278	0	839.369	0	9.2	4	2.9	4	-1E+10	1	-1E+10	1	-1E+10	1	-1E+10	1	-1E+10	1	-1E+10	1
4902551	122	C	01/01/2024	09:06	-130.733	46.685	0	853.00	0	3.7480	0	34.3240	0	27.280	0	844.208	0	9.3	4	2.9	4	-1E+10	1	-1E+10	1	-1E+10	1	-1E+10	1	-1E+10	1	-1E+10	1
4902551	122	C	01/01/2024	09:06	-130.733	46.685	0	858.00	0	3.7320	0	34.3260	0	27.283	0	849.147	0	9.4	4	2.9	4	-1E+10	1	-1E+10	1	-1E+10	1	-1E+10	1	-1E+10	1	-1E+10	1
4902551	122	C	01/01/2024	09:06	-130.733	46.685	0	862.90	0	3.7260	0	34.3300	0	27.287	0	853.986	0	9.5	4	3.0	4	-1E+10	1	-1E+10	1	-1E+10	1	-1E+10	1	-1E+10	1	-1E+10	1
4902551	122	C	01/01/2024	09:06	-130.733	46.685	0	867.70	0	3.7180	0	34.3330	0	27.290	0	858.727	0	9.6	4	3.0	4	-1E+10	1	-1E+10	1	-1E+10	1	-1E+10	1	-1E+10	1	-1E+10	1
4902551	122	C	01/01/2024	09:06	-130.733	46.685	0	872.90	0	3.6990	0	34.3380	0	27.296	0	863.862	0	9.7	4	3.0	4	-1E+10	1	-1E+10	1	-1E+10	1	-1E+10	1	-1E+10	1	-1E+10	1
4902551	122	C	01/01/2024	09:06	-130.733	46.685	0	878.00	0	3.6950	0	34.3410	0	27.299	0	868.899	0	9.7	4	3.0	4	-1E+10	1	-1E+10	1	-1E+10	1	-1E+10	1	-1E+10	1	-1E+10	1
4902551	122	C	01/01/2024	09:06	-130.733	46.685	0	882.80	0	3.6820	0	34.3420	0	27.301	0	873.639	0	9.6	4	3.0	4	-1E+10	1	-1E+10	1	-1E+10	1	-1E+10	1	-1E+10	1	-1E+10	1
4902551	122	C	01/01/2024	09:06	-130.733	46.685	0	887.60	0	3.6780	0	34.3430	0	27.303	0	878.379	0	9.6	4	3.0	4	-1E+10	1	-1E+10	1	-1E+10	1	-1E+10	1	-1E+10	1	-1E+10	1
4902551	122	C	01/01/2024	09:06	-130.733	46.685	0	892.70	0	3.6530	0	34.3470	0	27.308	0	883.415	0	9.7	4	3.0	4	-1E+10	1	-1E+10	1	-1E+10	1	-1E+10	1	-1E+10	1	-1E+10	1
4902551	122	C	01/01/2024	09:06	-130.733	46.685	0	897.90	0	3.6420	0	34.3490	0	27.311	0	888.550	0	9.7	4	3.0	4	-1E+10	1	-1E+10	1	-1E+10	1	-1E+10	1	-1E+10	1	-1E+10	1
4902551	122	C	01/01/2024	09:06	-130.733	46.685	0	903.10	0	3.6380	0	34.3500	0	27.312	0	893.685	0	9.7	4	3.0	4	-1E+10	1	-1E+10	1	-1E+10	1	-1E+10	1	-1E+10	1	-1E+10	1
4902551	122	C	01/01/2024	09:06	-130.733	46.685	0	908.30	0	3.6350	0	34.3510	0	27.313	0	898.820	0	9.7	4	3.0	4	-1E+10	1	-1E+10	1	-1E+10	1	-1E+10	1	-1E+10	1	-1E+10	1
4902551	122	C	01/01/2024	09:06	-130.733	46.685	0	913.00	0	3.6350	0	34.3510	0	27.313	0	903.461	0	9.8	4	3.1	4	-1E+10	1	-1E+10	1	-1E+10	1	-1E+10	1	-1E+10	1	-1E+10	1
4902551	122	C	01/01/2024	09:06	-130.733	46.685	0	917.70	0	3.6340	0	34.3520	0	27.314	0	908.101	0	9.8	4	3.1	4	-1E+10	1	-1E+10	1	-1E+10	1	-1E+10	1	-1E+10	1	-1E+10	1
4902551	122	C	01/01/2024	09:06	-130.733	46.685	0	922.90	0	3.6320	0	34.3520	0	27.314	0	913.236	0	9.8	4	3.1	4	-1E+10	1	-1E+10	1	-1E+10	1	-1E+10	1	-1E+10	1	-1E+10	1
4902551	122	C	01/01/2024	09:06	-130.733	46.685	0	928.20	0	3.6300	0	34.3530	0	27.315	0	918.468	0	9.8	4	3.1	4	-1E+10	1	-1E+10	1	-1E+10	1	-1E+10	1	-1E+10	1	-1E+10	1
4902551	122	C	01/01/2024	09:06	-130.733	46.685	0	933.00	0	3.6260	0	34.3530	0	27.316	0	923.207	0	9.8	4	3.1	4	-1E+10	1	-1E+10	1	-1E+10	1	-1E+10	1	-1E+10	1	-1E+10	1
4902551	122	C	01/01/2024	09:06	-130.733	46.685	0	937.70	0	3.6230	0	34.3530	0	27.316	0	927.848	0	9.9	4	3.1	4	-1E+10	1	-1E+10	1	-1E+10	1	-1E+10	1	-1E+10	1	-1E+10	1
4902551	122	C	01/01/2024	09:06	-130.733	46.685	0	943.00	0	3.6110	0	34.3560	0	27.320	0	933.080	0	9.9	4	3.1	4	-1E+10	1	-1E+10	1	-1E+10	1	-1E+10	1	-1E+10	1	-1E+10	1
4902551	122	C	01/01/2024	09:06	-130.733	46.685	0	948.30	0	3.6030	0	34.3570	0	27.321	0	938.313	0	9.9	4	3.1	4	-1E+10	1	-1E+10	1	-1E+10	1	-1E+10	1	-1E+10	1	-1E+10	1
4902551	122	C	01/01/2024	09:06	-130.733	46.685	0	952.90	0	3.5940	0	34.3590	0	27.324	0	942.854	0	10.0	4	3.1	4	-1E+10	1	-1E+10	1	-1E+10	1	-1E+10	1	-1E+10	1	-1E+10	1
4902551	122	C	01/01/2024	09:06	-130.733	46.685	0	957.50	0	3.5870	0	34.3600	0	27.325	0	947.395	0	10.0	4	3.1	4	-1E+10	1	-1E+10	1	-1E+10	1	-1E+10	1	-1E+10	1	-1E+10	1
4902551	122	C	01/01/2024	09:06	-130.733	46.685	0	962.50	0	3.5780	0	34.3610	0	27.327	0	952.331	0	10.0	4	3.1	4	-1E+10	1	-1E+10	1	-1E+10	1	-1E+10	1	-1E+10	1	-1E+10	1
4902551	122	C	01/01/2024	09:06	-130.733	46.685	0	967.90	0	3.5640	0	34.3640	0	27.331	0	957.661	0	10.1	4	3.2	4	-1E+10	1	-1E+10	1	-1E+10	1	-1E+10	1	-1E+10	1	-1E+10	1
4902551	122	C	01/01/2024	09:06	-130.733	46.685	0	973.20	0	3.5460	0	34.3660	0	27.334	0	962.893	0	10.1	4	3.2	4	-1E+10	1	-1E+10	1	-1E+10	1	-1E+10	1	-1E+10	1	-1E+10	1
4902551	122	C	01/01/2024	09:06	-130.733	46.685	0	978.10	0	3.5220	0	34.3720	0	27.341	0	967.730	0	10.1	4	3.2	4	-1E+10	1	-1E+10	1	-1E+10	1	-1E+10	1	-1E+10	1	-1E+10	1
4902551	122	C	01/01/2024	09:06	-130.733	46.685	0	982.80	0	3.5130	0	34.3740	0	27.344	0	972.369	0	10.2	4	3.2	4	-1E+10	1	-1E+10	1	-1E+10	1	-1E+10	1	-1E+10	1	-1E+10	1
4902551	122	C	01/01/2024	09:06	-130.733	46.685	0	987.90	0	3.5060	0	34.3750	0	27.345	0	977.403	0	10.2	4	3.2	4	-1E+10	1	-1E+10	1	-1E+10	1	-1E+10	1	-1E+10	1	-1E+10	1
4902551	122	C	01/01/2024	09:06	-130.733	46.685	0	992.90	0	3.4970	0	34.3770	0	27.348	0	982.338	0	10.3	4	3.2	4	-1E+10	1	-1E+10	1	-1E+10	1	-1E+10	1	-1E+10	1	-1E+10	1
4902551	122	C	01/01/2024	09:06	-130.733	46.685	0	997.80	0	3.4810	0	34.3790	0	27.351	0	987.175	0	10.4	4	3.3	4	-1E+10	1	-1E+10	1	-1E+10	1	-1E+10	1	-1E+10	1	-1E+10	1
4902551	122	C	01/01/2024	09:06	-130.733	46.685	0	1005.30	0	3.4560	0	34.3830	0	27.357	0	994.577	0	10.5	4	3.3	4	-1E+10	1	-1E+10	1	-1E+10	1	-1E+10	1	-1E+10	1	-1E+10	1
4902551	122	C	01/01/2024	09:06	-130.733	46.685	0	1015.60	0	3.4440	0	34.3850	0	27.360	0	1004.742	0	10.7	4	3.3	4	-1E+10	1	-1E+10	1	-1E+10	1	-1E+10	1	-1E+10	1	-1E+10	1
4902551	122	C	01/01/2024	09:06	-130.733	46.685	0	1025.30	0	3.4130	0	34.3890	0	27.366	0	1014.315	0	10.9	4	3.4	4	-1E+10	1	-1E+10	1	-1E+10	1	-1E+10	1	-1E+10	1	-1E+10	1
4902551	122	C	01/01/2024	09:06	-130.733	46.685	0	1035.40	0	3.3760	0	34.3930	0	27.372	0	1024.283	0	11.1	4	3.4	4	-1E+10	1	-1E+10	1	-1E+10	1	-1E+10	1	-1E+10	1	-1E+10	1
4902551	122	C	01/01/2024	09:06	-130.733	46.685	0	1045.40	0	3.3600	0	34.3950	0	27.376	0	1034.150	0	11.2	4	3.5	4	-1E+10	1	-1E+10	1	-1E+10	1	-1E+10	1	-1E+10	1	-1E+10	1
4902551	122	C	01/01/2024	09:06	-130.733	46.685	0	1055.30	0	3.3230	0	34.4010	0	27.384	0	1043.919	0	11.4	4	3.5	4	-1E+10	1	-1E+10	1	-1E+10	1	-1E+10	1	-1E+10	1	-1E+10	1
4902551	122	C	01/01/2024	09:06	-130.733	46.685	0	1065.10	0	3.2870	0	34.4020	0	27.388	0	1053.589	0	11.5	4	3.6	4	-1E+10	1	-1E+10	1	-1E+10	1	-1E+10	1	-1E+10	1	-1E+10	1
4902551	122	C	01/01/2024	09:06	-130.733	46.685	0	1075.60	0	3.2700	0	34.4050	0	27.392	0	1063.949	0	11.7	4	3.6	4	-1E+10	1	-1E+10	1	-1E+10	1	-1E+10	1	-1E+10	1	-1E+10	1
4902551	122	C	01/01/2024	09:06	-130.733	46.685	0	1085.60	0	3.2410	0	34.4090	0	27.398	0	1073.815	0	11.9	4	3.7	4	-1E+10	1	-1E+10	1	-1E+10	1	-1E+10	1	-1E+10	1	-1E+10	1
4902551	122	C	01/01/2024	09:06	-130.733	46.685	0	1095.40	0	3.2300	0	34.4100	0	27.400	0	1083.483	0	12.1	4	3.8	4	-1E+10	1	-1E+10	1	-1E+10	1	-1E+10	1	-1E+10	1	-1E+10	1
4902551	122	C	01/01/2024	09:06	-130.733	46.685	0	1105.20	0	3.2030	0	34.4140	0	27.406	0	1093.151	0	12.3	4	3.8	4	-1E+10	1	-1E+10	1	-1E+10	1	-1E+10	1	-1E+10	1	-1E+10	1
4902551	122	C	01/01/2024	09:06	-130.733	46.685	0	1115.10	0	3.1810	0	34.4170	0	27.410	0	1102.917	0	12.5	4	3.9	4	-1E+10	1	-1E+10	1	-1E+10	1	-1E+10	1	-1E+10	1	-1E+10	1
4902551	122	C	01/01/2024	09:06	-130.733	46.685	0	1125.40	0	3.1760	0	34.4180	0	27.412	0	1113.078	0	12.8	4	4.0	4	-1E+10	1	-1E+10	1	-1E+10	1	-1E+10	1	-1E+10	1	-1E+10	1
4902551	122	C	01/01/2024	09:06	-130.733	46.685	0	1135.50	0	3.1430	0	34.4230	0	27.419	0	1123.040	0	13.1	4	4.1	4	-1E+10	1	-1E+10	1	-1E+10	1	-1E+10	1	-1E+10	1	-1E+10	1
4902551	122	C	01/01/2024	09:06	-130.733	46.685	0	1145.40	0	3.1210	0	34.4260	0	27.423	0	1132.805	0	13.4	4	4.1	4	-1E+10	1	-1E+10	1	-1E+10	1	-1E+10	1	-1E+10	1	-1E+10	1
4902551	122	C	01/01/2024	09:06	-130.733	46.685	0	1155.60	0	3.0950	0	34.4290	0	27.428	0	1142.865	0	13.8	4	4.3	4	-1E+10	1	-1E+10	1	-1E+10	1	-1E+10	1	-1E+10	1	-1E+10	1
4902551	122	C	01/01/2024	09:06	-130.733	46.685	0	1165.50	0	3.0490	0	34.4350	0	27.437	0	1152.628	0	14.2	4	4.4	4	-1E+10	1	-1E+10	1	-1E+10	1	-1E+10	1	-1E+10	1	-1E+10	1
4902551	122	C	01/01/2024	09:06	-130.733	46.685	0	1175.40	0	3.0110	0	34.4390	0	27.444	0	1162.392	0	14.4	4	4.4	4	-1E+10	1	-1E+10	1	-1E+10	1	-1E+10	1	-1E+10	1	-1E+10	1
4902551	122	C	01/01/2024	09:06	-130.733	46.685	0	1185.70	0	3.0000	0	34.4400	0	27.446	0	1172.549	0	14.7	4	4.5	4	-1E+10	1	-1E+10	1	-1E+10	1	-1E+10	1	-1E+10	1	-1E+10	1
4902551	122	C	01/01/2024	09:06	-130.733	46.685	0	1195.50	0	2.9750	0	34.4440	0	27.451	0	1182.213	0	15.1	4	4.7	4	-1E+10	1	-1E+10	1	-1E+10	1	-1E+10	1	-1E+10	1	-1E+10	1
4902551	122	C	01/01/2024	09:06	-130.733	46.685	0	1205.40	0	2.9510	0	34.4470	0	27.456	0	1191.975	0	15.4	4	4.7	4	-1E+10	1	-1E+10	1	-1E+10	1	-1E+10	1	-1E+10	1	-1E+10	1
4902551	122	C	01/01/2024	09:06	-130.733	46.685	0	1215.30	0	2.9340	0	34.4480	0	27.458	0	1201.736	0	15.6	4	4.8	4	-1E+10	1	-1E+10	1	-1E+10	1	-1E+10	1	-1E+10	1	-1E+10	1
4902551	122	C	01/01/2024	09:06	-130.733	46.685	0	1225.20	0	2.9180	0	34.4500	0	27.461	0	1211.497	0	16.0	4	4.9	4	-1E+10	1	-1E+10	1	-1E+10	1	-1E+10	1	-1E+10	1	-1E+10	1
4902551	122	C	01/01/2024	09:06	-130.733	46.685	0	1235.30	0	2.8910	0	34.4550	0	27.468	0	1221.455	0	16.3	4	5.0	4	-1E+10	1	-1E+10	1	-1E+10	1	-1E+10	1	-1E+10	1	-1E+10	1
4902551	122	C	01/01/2024	09:06	-130.733	46.685	0	1245.40	0	2.8760	0	34.4570	0	27.471	0	1231.412	0	16.6	4	5.1	4	-1E+10	1	-1E+10	1	-1E+10	1	-1E+10	1	-1E+10	1	-1E+10	1
4902551	122	C	01/01/2024	09:06	-130.733	46.685	0	1255.40	0	2.8640	0	34.4580	0	27.472	0	1241.270	0	17.0	4	5.2	4	-1E+10	1	-1E+10	1	-1E+10	1	-1E+10	1	-1E+10	1	-1E+10	1
4902551	122	C	01/01/2024	09:06	-130.733	46.685	0	1265.60	0	2.8400	0	34.4620	0	27.478	0	1251.325	0	17.5	4	5.4	4	-1E+10	1	-1E+10	1	-1E+10	1	-1E+10	1	-1E+10	1	-1E+10	1
4902551	122	C	01/01/2024	09:06	-130.733	46.685	0	1275.60	0	2.8140	0	34.4660	0	27.483	0	1261.183	0	17.9	4	5.5	4	-1E+10	1	-1E+10	1	-1E+10	1	-1E+10	1	-1E+10	1	-1E+10	1
4902551	122	C	01/01/2024	09:06	-130.733	46.685	0	1285.40	0	2.8080	0	34.4670	0	27.485	0	1270.842	0	18.4	4	5.6	4	-1E+10	1	-1E+10	1	-1E+10	1	-1E+10	1	-1E+10	1	-1E+10	1
4902551	122	C	01/01/2024	09:06	-130.733	46.685	0	1295.20	0	2.7790	0	34.4700	0	27.490	0	1280.502	0	19.0	4	5.8	4	-1E+10	1	-1E+10	1	-1E+10	1	-1E+10	1	-1E+10	1	-1E+10	1
4902551	122	C	01/01/2024	09:06	-130.733	46.685	0	1305.20	0	2.7410	0	34.4740	0	27.496	0	1290.357	0	19.6	4	6.0	4	-1E+10	1	-1E+10	1	-1E+10	1	-1E+10	1	-1E+10	1	-1E+10	1
4902551	122	C	01/01/2024	09:06	-130.733	46.685	0	1315.50	0	2.6940	0	34.4800	0	27.505	0	1300.509	0	20.1	4	6.1	4	-1E+10	1	-1E+10	1	-1E+10	1	-1E+10	1	-1E+10	1	-1E+10	1
4902551	122	C	01/01/2024	09:06	-130.733	46.685	0	1325.50	0	2.6800	0	34.4820	0	27.508	0	1310.364	0	20.5	4	6.3	4	-1E+10	1	-1E+10	1	-1E+10	1	-1E+10	1	-1E+10	1	-1E+10	1
4902551	122	C	01/01/2024	09:06	-130.733	46.685	0	1335.30	0	2.6730	0	34.4820	0	27.509	0	1320.021	0	20.6	4	6.3	4	-1E+10	1	-1E+10	1	-1E+10	1	-1E+10	1	-1E+10	1	-1E+10	1
4902551	122	C	01/01/2024	09:06	-130.733	46.685	0	1345.50	0	2.6680	0	34.4830	0	27.510	0	1330.072	0	20.8	4	6.4	4	-1E+10	1	-1E+10	1	-1E+10	1	-1E+10	1	-1E+10	1	-1E+10	1
4902551	122	C	01/01/2024	09:06	-130.733	46.685	0	1355.70	0	2.6580	0	34.4840	0	27.512	0	1340.123	0	21.0	4	6.4	4	-1E+10	1	-1E+10	1	-1E+10	1	-1E+10	1	-1E+10	1	-1E+10	1
4902551	122	C	01/01/2024	09:06	-130.733	46.685	0	1365.60	0	2.6330	0	34.4860	0	27.516	0	1349.877	0	21.8	4	6.7	4	-1E+10	1	-1E+10	1	-1E+10	1	-1E+10	1	-1E+10	1	-1E+10	1
4902551	122	C	01/01/2024	09:06	-130.733	46.685	0	1375.60	0	2.5970	0	34.4900	0	27.522	0	1359.730	0	22.5	4	6.9	4	-1E+10	1	-1E+10	1	-1E+10	1	-1E+10	1	-1E+10	1	-1E+10	1
4902551	122	C	01/01/2024	09:06	-130.733	46.685	0	1385.60	0	2.5840	0	34.4920	0	27.525	0	1369.582	0	22.8	4	7.0	4	-1E+10	1	-1E+10	1	-1E+10	1	-1E+10	1	-1E+10	1	-1E+10	1
4902551	122	C	01/01/2024	09:06	-130.733	46.685	0	1395.70	0	2.5760	0	34.4940	0	27.527	0	1379.532	0	23.1	4	7.0	4	-1E+10	1	-1E+10	1	-1E+10	1	-1E+10	1	-1E+10	1	-1E+10	1
4902551	122	C	01/01/2024	09:06	-130.733	46.685	0	1405.40	0	2.5660	0	34.4940	0	27.528	0	1389.088	0	23.4	4	7.1	4	-1E+10	1	-1E+10	1	-1E+10	1	-1E+10	1	-1E+10	1	-1E+10	1
4902551	122	C	01/01/2024	09:06	-130.733	46.685	0	1415.30	0	2.5550	0	34.4960	0	27.530	0	1398.840	0	23.7	4	7.2	4	-1E+10	1	-1E+10	1	-1E+10	1	-1E+10	1	-1E+10	1	-1E+10	1
4902551	122	C	01/01/2024	09:06	-130.733	46.685	0	1425.50	0	2.5520	0	34.4970	0	27.532	0	1408.888	0	23.8	4	7.3	4	-1E+10	1	-1E+10	1	-1E+10	1	-1E+10	1	-1E+10	1	-1E+10	1
4902551	122	C	01/01/2024	09:06	-130.733	46.685	0	1435.40	0	2.5520	0	34.4970	0	27.532	0	1418.639	0	24.0	4	7.3	4	-1E+10	1	-1E+10	1	-1E+10	1	-1E+10	1	-1E+10	1	-1E+10	1
4902551	122	C	01/01/2024	09:06	-130.733	46.685	0	1445.00	0	2.5420	0	34.4980	0	27.533	0	1428.095	0	24.9	4	7.6	4	-1E+10	1	-1E+10	1	-1E+10	1	-1E+10	1	-1E+10	1	-1E+10	1
4902551	122	C	01/01/2024	09:06	-130.733	46.685	0	1455.40	0	2.5000	0	34.5030	0	27.541	0	1438.337	0	26.1	4	7.9	4	-1E+10	1	-1E+10	1	-1E+10	1	-1E+10	1	-1E+10	1	-1E+10	1
4902551	122	C	01/01/2024	09:06	-130.733	46.685	0	1465.50	0	2.4780	0	34.5060	0	27.545	0	1448.284	0	26.5	4	8.1	4	-1E+10	1	-1E+10	1	-1E+10	1	-1E+10	1	-1E+10	1	-1E+10	1
4902551	122	C	01/01/2024	09:06	-130.733	46.685	0	1475.20	0	2.4720	0	34.5070	0	27.546	0	1457.837	0	27.1	4	8.3	4	-1E+10	1	-1E+10	1	-1E+10	1	-1E+10	1	-1E+10	1	-1E+10	1
4902551	122	C	01/01/2024	09:06	-130.733	46.685	0	1485.40	0	2.4470	0	34.5100	0	27.551	0	1467.882	0	28.1	4	8.6	4	-1E+10	1	-1E+10	1	-1E+10	1	-1E+10	1	-1E+10	1	-1E+10	1
4902551	122	C	01/01/2024	09:06	-130.733	46.685	0	1495.30	0	2.4240	0	34.5130	0	27.555	0	1477.630	0	28.6	4	8.7	4	-1E+10	1	-1E+10	1	-1E+10	1	-1E+10	1	-1E+10	1	-1E+10	1
4902551	122	C	01/01/2024	09:06	-130.733	46.685	0	1505.60	0	2.4200	0	34.5140	0	27.557	0	1487.772	0	28.9	4	8.8	4	-1E+10	1	-1E+10	1	-1E+10	1	-1E+10	1	-1E+10	1	-1E+10	1
4902551	122	C	01/01/2024	09:06	-130.733	46.685	0	1515.80	0	2.4140	0	34.5150	0	27.558	0	1497.815	0	29.5	4	9.0	4	-1E+10	1	-1E+10	1	-1E+10	1	-1E+10	1	-1E+10	1	-1E+10	1
4902551	122	C	01/01/2024	09:06	-130.733	46.685	0	1525.90	0	2.3940	0	34.5190	0	27.563	0	1507.760	0	30.6	4	9.3	4	-1E+10	1	-1E+10	1	-1E+10	1	-1E+10	1	-1E+10	1	-1E+10	1
4902551	122	C	01/01/2024	09:06	-130.733	46.685	0	1535.50	0	2.3610	0	34.5230	0	27.569	0	1517.211	0	31.3	4	9.5	4	-1E+10	1	-1E+10	1	-1E+10	1	-1E+10	1	-1E+10	1	-1E+10	1
4902551	122	C	01/01/2024	09:06	-130.733	46.685	0	1545.60	0	2.3550	0	34.5240	0	27.570	0	1527.154	0	31.8	4	9.7	4	-1E+10	1	-1E+10	1	-1E+10	1	-1E+10	1	-1E+10	1	-1E+10	1
4902551	122	C	01/01/2024	09:06	-130.733	46.685	0	1554.00	0	2.3360	0	34.5270	0	27.574	0	1535.424	0	32.4	4	9.8	4	-1E+10	1	-1E+10	1	-1E+10	1	-1E+10	1	-1E+10	1	-1E+10	1
4902551	122	C	01/01/2024	09:06	-130.733	46.685	0																										
4902551	123	C	01/11/2024	11:17	-130.871	46.696	0	0.40	0	9.5930	0	32.2880	0	24.902	0	0.397	0	258.2	4	91.4	4	-1E+10	1	-1E+10	1	-1E+10	1	-1E+10	1	-1E+10	1	-1E+10	1
4902551	123	C	01/11/2024	11:17	-130.871	46.696	0	0.60	0	9.5950	0	32.2860	0	24.900	0	0.595	0	-1e10	1	-1e10	1	-1E+10	1	-1E+10	1	-1E+10	1	-1E+10	1	-1E+10	1	-1E+10	1
4902551	123	C	01/11/2024	11:17	-130.871	46.696	0	0.80	0	9.5970	0	32.2840	0	24.898	0	0.793	0	-1e10	1	-1e10	1	-1E+10	1	-1E+10	1	-1E+10	1	-1E+10	1	-1E+10	1	-1E+10	1
4902551	123	C	01/11/2024	11:17	-130.871	46.696	0	1.00	0	9.5990	0	32.2820	0	24.896	0	0.992	0	258.3	4	91.4	4	-1E+10	1	-1E+10	1	-1E+10	1	-1E+10	1	-1E+10	1	-1E+10	1
4902551	123	C	01/11/2024	11:17	-130.871	46.696	0	1.90	0	9.5980	0	32.2830	0	24.897	0	1.884	0	258.2	4	91.4	4	-1E+10	1	-1E+10	1	-1E+10	1	-1E+10	1	-1E+10	1	-1E+10	1
4902551	123	C	01/11/2024	11:17	-130.871	46.696	0	2.90	0	9.5960	0	32.2850	0	24.899	0	2.876	0	258.1	4	91.4	4	-1E+10	1	-1E+10	1	-1E+10	1	-1E+10	1	-1E+10	1	-1E+10	1
4902551	123	C	01/11/2024	11:17	-130.871	46.696	0	3.70	0	9.5960	0	32.2850	0	24.899	0	3.669	0	258.2	4	91.4	4	-1E+10	1	-1E+10	1	-1E+10	1	-1E+10	1	-1E+10	1	-1E+10	1
4902551	123	C	01/11/2024	11:17	-130.871	46.696	0	4.90	0	9.5970	0	32.2860	0	24.900	0	4.859	0	258.1	4	91.4	4	-1E+10	1	-1E+10	1	-1E+10	1	-1E+10	1	-1E+10	1	-1E+10	1
4902551	123	C	01/11/2024	11:17	-130.871	46.696	0	6.10	0	9.5970	0	32.2860	0	24.900	0	6.049	0	258.1	4	91.4	4	-1E+10	1	-1E+10	1	-1E+10	1	-1E+10	1	-1E+10	1	-1E+10	1
4902551	123	C	01/11/2024	11:17	-130.871	46.696	0	7.10	0	9.5960	0	32.2870	0	24.901	0	7.041	0	258.1	4	91.4	4	-1E+10	1	-1E+10	1	-1E+10	1	-1E+10	1	-1E+10	1	-1E+10	1
4902551	123	C	01/11/2024	11:17	-130.871	46.696	0	7.90	0	9.5980	0	32.2860	0	24.900	0	7.834	0	258.0	4	91.3	4	-1E+10	1	-1E+10	1	-1E+10	1	-1E+10	1	-1E+10	1	-1E+10	1
4902551	123	C	01/11/2024	11:17	-130.871	46.696	0	8.90	0	9.5980	0	32.2860	0	24.900	0	8.826	0	258.0	4	91.3	4	-1E+10	1	-1E+10	1	-1E+10	1	-1E+10	1	-1E+10	1	-1E+10	1
4902551	123	C	01/11/2024	11:17	-130.871	46.696	0	10.10	0	9.5970	0	32.2860	0	24.900	0	10.016	0	258.0	4	91.3	4	-1E+10	1	-1E+10	1	-1E+10	1	-1E+10	1	-1E+10	1	-1E+10	1
4902551	123	C	01/11/2024	11:17	-130.871	46.696	0	11.00	0	9.5990	0	32.2860	0	24.899	0	10.909	0	257.9	4	91.3	4	-1E+10	1	-1E+10	1	-1E+10	1	-1E+10	1	-1E+10	1	-1E+10	1
4902551	123	C	01/11/2024	11:17	-130.871	46.696	0	11.80	0	9.6000	0	32.2860	0	24.899	0	11.702	0	257.8	4	91.3	4	-1E+10	1	-1E+10	1	-1E+10	1	-1E+10	1	-1E+10	1	-1E+10	1
4902551	123	C	01/11/2024	11:17	-130.871	46.696	0	13.00	0	9.6030	0	32.2860	0	24.899	0	12.892	0	257.8	4	91.3	4	-1E+10	1	-1E+10	1	-1E+10	1	-1E+10	1	-1E+10	1	-1E+10	1
4902551	123	C	01/11/2024	11:17	-130.871	46.696	0	13.90	0	9.6050	0	32.2870	0	24.899	0	13.785	0	257.7	4	91.3	4	-1E+10	1	-1E+10	1	-1E+10	1	-1E+10	1	-1E+10	1	-1E+10	1
4902551	123	C	01/11/2024	11:17	-130.871	46.696	0	14.80	0	9.6040	0	32.2870	0	24.899	0	14.677	0	257.7	4	91.2	4	-1E+10	1	-1E+10	1	-1E+10	1	-1E+10	1	-1E+10	1	-1E+10	1
4902551	123	C	01/11/2024	11:17	-130.871	46.696	0	16.10	0	9.6050	0	32.2850	0	24.898	0	15.966	0	257.7	4	91.2	4	-1E+10	1	-1E+10	1	-1E+10	1	-1E+10	1	-1E+10	1	-1E+10	1
4902551	123	C	01/11/2024	11:17	-130.871	46.696	0	17.00	0	9.6090	0	32.2870	0	24.899	0	16.859	0	257.7	4	91.2	4	-1E+10	1	-1E+10	1	-1E+10	1	-1E+10	1	-1E+10	1	-1E+10	1
4902551	123	C	01/11/2024	11:17	-130.871	46.696	0	17.90	0	9.6070	0	32.2870	0	24.899	0	17.751	0	257.7	4	91.2	4	-1E+10	1	-1E+10	1	-1E+10	1	-1E+10	1	-1E+10	1	-1E+10	1
4902551	123	C	01/11/2024	11:17	-130.871	46.696	0	18.90	0	9.6060	0	32.2860	0	24.898	0	18.743	0	257.7	4	91.2	4	-1E+10	1	-1E+10	1	-1E+10	1	-1E+10	1	-1E+10	1	-1E+10	1
4902551	123	C	01/11/2024	11:17	-130.871	46.696	0	19.90	0	9.6050	0	32.2860	0	24.899	0	19.734	0	257.6	4	91.2	4	-1E+10	1	-1E+10	1	-1E+10	1	-1E+10	1	-1E+10	1	-1E+10	1
4902551	123	C	01/11/2024	11:17	-130.871	46.696	0	20.90	0	9.6010	0	32.2860	0	24.899	0	20.726	0	257.7	4	91.2	4	-1E+10	1	-1E+10	1	-1E+10	1	-1E+10	1	-1E+10	1	-1E+10	1
4902551	123	C	01/11/2024	11:17	-130.871	46.696	0	21.90	0	9.6030	0	32.2860	0	24.899	0	21.718	0	257.6	4	91.2	4	-1E+10	1	-1E+10	1	-1E+10	1	-1E+10	1	-1E+10	1	-1E+10	1
4902551	123	C	01/11/2024	11:17	-130.871	46.696	0	22.90	0	9.6040	0	32.2860	0	24.899	0	22.709	0	257.5	4	91.2	4	-1E+10	1	-1E+10	1	-1E+10	1	-1E+10	1	-1E+10	1	-1E+10	1
4902551	123	C	01/11/2024	11:17	-130.871	46.696	0	23.90	0	9.6030	0	32.2860	0	24.899	0	23.701	0	257.5	4	91.2	4	-1E+10	1	-1E+10	1	-1E+10	1	-1E+10	1	-1E+10	1	-1E+10	1
4902551	123	C	01/11/2024	11:17	-130.871	46.696	0	25.00	0	9.6040	0	32.2860	0	24.899	0	24.792	0	257.5	4	91.2	4	-1E+10	1	-1E+10	1	-1E+10	1	-1E+10	1	-1E+10	1	-1E+10	1
4902551	123	C	01/11/2024	11:17	-130.871	46.696	0	26.00	0	9.6040	0	32.2860	0	24.899	0	25.783	0	257.4	4	91.2	4	-1E+10	1	-1E+10	1	-1E+10	1	-1E+10	1	-1E+10	1	-1E+10	1
4902551	123	C	01/11/2024	11:17	-130.871	46.696	0	27.10	0	9.6040	0	32.2850	0	24.898	0	26.874	0	257.4	4	91.1	4	-1E+10	1	-1E+10	1	-1E+10	1	-1E+10	1	-1E+10	1	-1E+10	1
4902551	123	C	01/11/2024	11:17	-130.871	46.696	0	27.80	0	9.6040	0	32.2860	0	24.899	0	27.568	0	257.4	4	91.1	4	-1E+10	1	-1E+10	1	-1E+10	1	-1E+10	1	-1E+10	1	-1E+10	1
4902551	123	C	01/11/2024	11:17	-130.871	46.696	0	28.80	0	9.6040	0	32.2860	0	24.899	0	28.560	0	257.4	4	91.1	4	-1E+10	1	-1E+10	1	-1E+10	1	-1E+10	1	-1E+10	1	-1E+10	1
4902551	123	C	01/11/2024	11:17	-130.871	46.696	0	30.10	0	9.6040	0	32.2860	0	24.899	0	29.849	0	257.4	4	91.1	4	-1E+10	1	-1E+10	1	-1E+10	1	-1E+10	1	-1E+10	1	-1E+10	1
4902551	123	C	01/11/2024	11:17	-130.871	46.696	0	31.10	0	9.6060	0	32.2850	0	24.898	0	30.840	0	257.3	4	91.1	4	-1E+10	1	-1E+10	1	-1E+10	1	-1E+10	1	-1E+10	1	-1E+10	1
4902551	123	C	01/11/2024	11:17	-130.871	46.696	0	32.10	0	9.6050	0	32.2860	0	24.899	0	31.832	0	257.2	4	91.1	4	-1E+10	1	-1E+10	1	-1E+10	1	-1E+10	1	-1E+10	1	-1E+10	1
4902551	123	C	01/11/2024	11:17	-130.871	46.696	0	33.10	0	9.6050	0	32.2860	0	24.899	0	32.824	0	257.1	4	91.0	4	-1E+10	1	-1E+10	1	-1E+10	1	-1E+10	1	-1E+10	1	-1E+10	1
4902551	123	C	01/11/2024	11:17	-130.871	46.696	0	34.00	0	9.6070	0	32.2860	0	24.899	0	33.716	0	257.2	4	91.1	4	-1E+10	1	-1E+10	1	-1E+10	1	-1E+10	1	-1E+10	1	-1E+10	1
4902551	123	C	01/11/2024	11:17	-130.871	46.696	0	35.00	0	9.6060	0	32.2870	0	24.900	0	34.708	0	257.2	4	91.1	4	-1E+10	1	-1E+10	1	-1E+10	1	-1E+10	1	-1E+10	1	-1E+10	1
4902551	123	C	01/11/2024	11:17	-130.871	46.696	0	36.00	0	9.6080	0	32.2870	0	24.899	0	35.699	0	257.1	4	91.0	4	-1E+10	1	-1E+10	1	-1E+10	1	-1E+10	1	-1E+10	1	-1E+10	1
4902551	123	C	01/11/2024	11:17	-130.871	46.696	0	37.10	0	9.6050	0	32.2860	0	24.899	0	36.790	0	257.0	4	91.0	4	-1E+10	1	-1E+10	1	-1E+10	1	-1E+10	1	-1E+10	1	-1E+10	1
4902551	123	C	01/11/2024	11:17	-130.871	46.696	0	38.00	0	9.6060	0	32.2860	0	24.899	0	37.682	0	257.0	4	91.0	4	-1E+10	1	-1E+10	1	-1E+10	1	-1E+10	1	-1E+10	1	-1E+10	1
4902551	123	C	01/11/2024	11:17	-130.871	46.696	0	39.10	0	9.6070	0	32.2860	0	24.899	0	38.773	0	256.9	4	91.0	4	-1E+10	1	-1E+10	1	-1E+10	1	-1E+10	1	-1E+10	1	-1E+10	1
4902551	123	C	01/11/2024	11:17	-130.871	46.696	0	40.10	0	9.6080	0	32.2860	0	24.898	0	39.764	0	256.8	4	90.9	4	-1E+10	1	-1E+10	1	-1E+10	1	-1E+10	1	-1E+10	1	-1E+10	1
4902551	123	C	01/11/2024	11:17	-130.871	46.696	0	41.10	0	9.6100	0	32.2870	0	24.899	0	40.756	0	256.8	4	90.9	4	-1E+10	1	-1E+10	1	-1E+10	1	-1E+10	1	-1E+10	1	-1E+10	1
4902551	123	C	01/11/2024	11:17	-130.871	46.696	0	41.80	0	9.6100	0	32.2870	0	24.899	0	41.450	0	256.7	4	90.9	4	-1E+10	1	-1E+10	1	-1E+10	1	-1E+10	1	-1E+10	1	-1E+10	1
4902551	123	C	01/11/2024	11:17	-130.871	46.696	0	42.80	0	9.6100	0	32.2870	0	24.899	0	42.442	0	256.8	4	90.9	4	-1E+10	1	-1E+10	1	-1E+10	1	-1E+10	1	-1E+10	1	-1E+10	1
4902551	123	C	01/11/2024	11:17	-130.871	46.696	0	43.90	0	9.6100	0	32.2870	0	24.899	0	43.532	0	256.7	4	90.9	4	-1E+10	1	-1E+10	1	-1E+10	1	-1E+10	1	-1E+10	1	-1E+10	1
4902551	123	C	01/11/2024	11:17	-130.871	46.696	0	44.80	0	9.6090	0	32.2870	0	24.899	0	44.425	0	256.6	4	90.9	4	-1E+10	1	-1E+10	1	-1E+10	1	-1E+10	1	-1E+10	1	-1E+10	1
4902551	123	C	01/11/2024	11:17	-130.871	46.696	0	45.90	0	9.6070	0	32.2860	0	24.899	0	45.515	0	256.5	4	90.8	4	-1E+10	1	-1E+10	1	-1E+10	1	-1E+10	1	-1E+10	1	-1E+10	1
4902551	123	C	01/11/2024	11:17	-130.871	46.696	0	46.90	0	9.6050	0	32.2860	0	24.899	0	46.507	0	256.5	4	90.8	4	-1E+10	1	-1E+10	1	-1E+10	1	-1E+10	1	-1E+10	1	-1E+10	1
4902551	123	C	01/11/2024	11:17	-130.871	46.696	0	47.90	0	9.6050	0	32.2870	0	24.900	0	47.498	0	256.4	4	90.8	4	-1E+10	1	-1E+10	1	-1E+10	1	-1E+10	1	-1E+10	1	-1E+10	1
4902551	123	C	01/11/2024	11:17	-130.871	46.696	0	48.90	0	9.6060	0	32.2860	0	24.899	0	48.490	0	256.3	4	90.8	4	-1E+10	1	-1E+10	1	-1E+10	1	-1E+10	1	-1E+10	1	-1E+10	1
4902551	123	C	01/11/2024	11:17	-130.871	46.696	0	49.90	0	9.6060	0	32.2860	0	24.899	0	49.481	0	256.3	4	90.7	4	-1E+10	1	-1E+10	1	-1E+10	1	-1E+10	1	-1E+10	1	-1E+10	1
4902551	123	C	01/11/2024	11:17	-130.871	46.696	0	50.80	0	9.6060	0	32.2870	0	24.900	0	50.374	0	256.1	4	90.7	4	-1E+10	1	-1E+10	1	-1E+10	1	-1E+10	1	-1E+10	1	-1E+10	1
4902551	123	C	01/11/2024	11:17	-130.871	46.696	0	51.90	0	9.6060	0	32.2860	0	24.899	0	51.464	0	256.0	4	90.7	4	-1E+10	1	-1E+10	1	-1E+10	1	-1E+10	1	-1E+10	1	-1E+10	1
4902551	123	C	01/11/2024	11:17	-130.871	46.696	0	52.80	0	9.6050	0	32.2860	0	24.899	0	52.357	0	256.0	4	90.6	4	-1E+10	1	-1E+10	1	-1E+10	1	-1E+10	1	-1E+10	1	-1E+10	1
4902551	123	C	01/11/2024	11:17	-130.871	46.696	0	54.10	0	9.6060	0	32.2860	0	24.899	0	53.645	0	255.8	4	90.6	4	-1E+10	1	-1E+10	1	-1E+10	1	-1E+10	1	-1E+10	1	-1E+10	1
4902551	123	C	01/11/2024	11:17	-130.871	46.696	0	55.00	0	9.6060	0	32.2870	0	24.900	0	54.538	0	255.6	4	90.5	4	-1E+10	1	-1E+10	1	-1E+10	1	-1E+10	1	-1E+10	1	-1E+10	1
4902551	123	C	01/11/2024	11:17	-130.871	46.696	0	56.00	0	9.6060	0	32.2870	0	24.900	0	55.529	0	255.5	4	90.5	4	-1E+10	1	-1E+10	1	-1E+10	1	-1E+10	1	-1E+10	1	-1E+10	1
4902551	123	C	01/11/2024	11:17	-130.871	46.696	0	56.90	0	9.6070	0	32.2870	0	24.900	0	56.422	0	255.4	4	90.4	4	-1E+10	1	-1E+10	1	-1E+10	1	-1E+10	1	-1E+10	1	-1E+10	1
4902551	123	C	01/11/2024	11:17	-130.871	46.696	0	57.80	0	9.6070	0	32.2860	0	24.899	0	57.314	0	255.3	4	90.4	4	-1E+10	1	-1E+10	1	-1E+10	1	-1E+10	1	-1E+10	1	-1E+10	1
4902551	123	C	01/11/2024	11:17	-130.871	46.696	0	59.00	0	9.6070	0	32.2870	0	24.900	0	58.504	0	255.0	4	90.3	4	-1E+10	1	-1E+10	1	-1E+10	1	-1E+10	1	-1E+10	1	-1E+10	1
4902551	123	C	01/11/2024	11:17	-130.871	46.696	0	59.90	0	9.6070	0	32.2870	0	24.900	0	59.396	0	254.8	4	90.2	4	-1E+10	1	-1E+10	1	-1E+10	1	-1E+10	1	-1E+10	1	-1E+10	1
4902551	123	C	01/11/2024	11:17	-130.871	46.696	0	60.80	0	9.6080	0	32.2860	0	24.899	0	60.288	0	254.7	4	90.2	4	-1E+10	1	-1E+10	1	-1E+10	1	-1E+10	1	-1E+10	1	-1E+10	1
4902551	123	C	01/11/2024	11:17	-130.871	46.696	0	62.00	0	9.6070	0	32.2870	0	24.900	0	61.478	0	254.3	4	90.0	4	-1E+10	1	-1E+10	1	-1E+10	1	-1E+10	1	-1E+10	1	-1E+10	1
4902551	123	C	01/11/2024	11:17	-130.871	46.696	0	62.90	0	9.6070	0	32.2870	0	24.900	0	62.370	0	254.0	4	89.9	4	-1E+10	1	-1E+10	1	-1E+10	1	-1E+10	1	-1E+10	1	-1E+10	1
4902551	123	C	01/11/2024	11:17	-130.871	46.696	0	63.80	0	9.6070	0	32.2860	0	24.899	0	63.262	0	253.6	4	89.8	4	-1E+10	1	-1E+10	1	-1E+10	1	-1E+10	1	-1E+10	1	-1E+10	1
4902551	123	C	01/11/2024	11:17	-130.871	46.696	0	65.10	0	9.6060	0	32.2870	0	24.900	0	64.551	0	253.1	4	89.6	4	-1E+10	1	-1E+10	1	-1E+10	1	-1E+10	1	-1E+10	1	-1E+10	1
4902551	123	C	01/11/2024	11:17	-130.871	46.696	0	66.10	0	9.6050	0	32.2880	0	24.901	0	65.543	0	252.7	4	89.5	4	-1E+10	1	-1E+10	1	-1E+10	1	-1E+10	1	-1E+10	1	-1E+10	1
4902551	123	C	01/11/2024	11:17	-130.871	46.696	0	67.00	0	9.6060	0	32.2870	0	24.900	0	66.435	0	252.1	4	89.3	4	-1E+10	1	-1E+10	1	-1E+10	1	-1E+10	1	-1E+10	1	-1E+10	1
4902551	123	C	01/11/2024	11:17	-130.871	46.696	0	68.00	0	9.6060	0	32.2880	0	24.901	0	67.426	0	251.6	4	89.1	4	-1E+10	1	-1E+10	1	-1E+10	1	-1E+10	1	-1E+10	1	-1E+10	1
4902551	123	C	01/11/2024	11:17	-130.871	46.696	0	69.00	0	9.6060	0	32.2870	0	24.900	0	68.418	0	250.9	4	88.8	4	-1E+10	1	-1E+10	1	-1E+10	1	-1E+10	1	-1E+10	1	-1E+10	1
4902551	123	C	01/11/2024	11:17	-130.871	46.696	0	70.00	0	9.6050	0	32.2880	0	24.901	0	69.409	0	250.1	4	88.6	4	-1E+10	1	-1E+10	1	-1E+10	1	-1E+10	1	-1E+10	1	-1E+10	1
4902551	123	C	01/11/2024	11:17	-130.871	46.696	0	70.90	0	9.6060	0	32.2880	0	24.901	0	70.301	0	255.4	4	90.4	4	-1E+10	1	-1E+10	1	-1E+10	1	-1E+10	1	-1E+10	1	-1E+10	1
4902551	123	C	01/11/2024	11:17	-130.871	46.696	0	72.10	0	9.6050	0	32.2880	0	24.901	0	71.491	0	253.8	4	89.9	4	-1E+10	1	-1E+10	1	-1E+10	1	-1E+10	1	-1E+10	1	-1E+10	1
4902551	123	C	01/11/2024	11:17	-130.871	46.696	0	72.90	0	9.6050	0	32.2880	0	24.901	0	72.284	0	252.5	4	89.4	4	-1E+10	1	-1E+10	1	-1E+10	1	-1E+10	1	-1E+10	1	-1E+10	1
4902551	123	C	01/11/2024	11:17	-130.871	46.696	0	73.80	0	9.6050	0	32.2880	0	24.901	0	73.176	0	250.5	4	88.7	4	-1E+10	1	-1E+10	1	-1E+10	1	-1E+10	1	-1E+10	1	-1E+10	1
4902551	123	C	01/11/2024	11:17	-130.871	46.696	0	75.10	0	9.5960	0	32.2940	0	24.907	0	74.465	0	244.8	4	86.7	4	-1E+10	1	-1E+10	1	-1E+10	1	-1E+10	1	-1E+10	1	-1E+10	1
4902551	123	C	01/11/2024	11:17	-130.871	46.696	0	76.00	0	9.5910	0	32.2970	0	24.910	0	75.357	0	238.7	4	84.5	4	-1E+10	1	-1E+10	1	-1E+10	1	-1E+10	1	-1E+10	1	-1E+10	1
4902551	123	C	01/11/2024	11:17	-130.871	46.696	0	77.00	0	9.5820	0	32.3030	0	24.917	0	76.349	0	231.6	4	82.0	4	-1E+10	1	-1E+10	1	-1E+10	1	-1E+10	1	-1E+10	1	-1E+10	1
4902551	123	C	01/11/2024	11:17	-130.871	46.696	0	78.00	0	9.5290	0	32.3280	0	24.945	0	77.340	0	227.3	4	80.4	4	-1E+10	1	-1E+10	1	-1E+10	1	-1E+10	1	-1E+10	1	-1E+10	1
4902551	123	C	01/11/2024	11:17	-130.871	46.696	0	79.30	0	9.3210	0	32.4330	0	25.060	0	78.629	0	224.9	4	79.2	4	-1E+10	1	-1E+10	1	-1E+10	1	-1E+10	1	-1E+10	1	-1E+10	1
4902551	123	C	01/11/2024	11:17	-130.871	46.696	0	80.10	0	9.1090	0	32.5050	0	25.150	0	79.422	0	222.6	4	78.1	4	-1E+10	1	-1E+10	1	-1E+10	1	-1E+10	1	-1E+10	1	-1E+10	1
4902551	123	C	01/11/2024	11:17	-130.871	46.696	0	80.90	0	9.0620	0	32.5080	0	25.159	0	80.215	0	210.0	4	73.6	4	-1E+10	1	-1E+10	1	-1E+10	1	-1E+10	1	-1E+10	1	-1E+10	1
4902551	123	C	01/11/2024	11:17	-130.871	46.696	0	82.10	0	8.5430	0	32.6870	0	25.379	0	81.405	0	203.0	4	70.4	4	-1E+10	1	-1E+10	1	-1E+10	1	-1E+10	1	-1E+10	1	-1E+10	1
4902551	123	C	01/11/2024	11:17	-130.871	46.696	0	83.10	0	8.1340	0	32.8620	0	25.577	0	82.396	0	201.5	4	69.3	4	-1E+10	1	-1E+10	1	-1E+10	1	-1E+10	1	-1E+10	1	-1E+10	1
4902551	123	C	01/11/2024	11:17	-130.871	46.696	0	84.10	0	7.9340	0	32.9120	0	25.645	0	83.387	0	200.6	4	68.8	4	-1E+10	1	-1E+10	1	-1E+10	1	-1E+10	1	-1E+10	1	-1E+10	1
4902551	123	C	01/11/2024	11:17	-130.871	46.696	0	85.00	0	7.8270	0	32.9190	0	25.666	0	84.279	0	200.2	4	68.5	4	-1E+10	1	-1E+10	1	-1E+10	1	-1E+10	1	-1E+10	1	-1E+10	1
4902551	123	C	01/11/2024	11:17	-130.871	46.696	0	85.80	0	7.8230	0	32.9340	0	25.679	0	85.073	0	199.4	4	68.2	4	-1E+10	1	-1E+10	1	-1E+10	1	-1E+10	1	-1E+10	1	-1E+10	1
4902551	123	C	01/11/2024	11:17	-130.871	46.696	0	86.80	0	7.8530	0	32.9430	0	25.681	0	86.064	0	198.2	4	67.8	4	-1E+10	1	-1E+10	1	-1E+10	1	-1E+10	1	-1E+10	1	-1E+10	1
4902551	123	C	01/11/2024	11:17	-130.871	46.696	0	87.90	0	7.8700	0	32.9530	0	25.687	0	87.154	0	197.1	4	67.5	4	-1E+10	1	-1E+10	1	-1E+10	1	-1E+10	1	-1E+10	1	-1E+10	1
4902551	123	C	01/11/2024	11:17	-130.871	46.696	0	89.00	0	7.8780	0	32.9580	0	25.690	0	88.245	0	195.9	4	67.1	4	-1E+10	1	-1E+10	1	-1E+10	1	-1E+10	1	-1E+10	1	-1E+10	1
4902551	123	C	01/11/2024	11:17	-130.871	46.696	0	90.10	0	7.8800	0	32.9640	0	25.694	0	89.335	0	194.9	4	66.7	4	-1E+10	1	-1E+10	1	-1E+10	1	-1E+10	1	-1E+10	1	-1E+10	1
4902551	123	C	01/11/2024	11:17	-130.871	46.696	0	90.90	0	7.8810	0	32.9670	0	25.696	0	90.128	0	194.1	4	66.5	4	-1E+10	1	-1E+10	1	-1E+10	1	-1E+10	1	-1E+10	1	-1E+10	1
4902551	123	C	01/11/2024	11:17	-130.871	46.696	0	91.70	0	7.8820	0	32.9680	0	25.697	0	90.921	0	193.2	4	66.2	4	-1E+10	1	-1E+10	1	-1E+10	1	-1E+10	1	-1E+10	1	-1E+10	1
4902551	123	C	01/11/2024	11:17	-130.871	46.696	0	92.90	0	7.8830	0	32.9720	0	25.700	0	92.111	0	191.9	4	65.7	4	-1E+10	1	-1E+10	1	-1E+10	1	-1E+10	1	-1E+10	1	-1E+10	1
4902551	123	C	01/11/2024	11:17	-130.871	46.696	0	94.10	0	7.8580	0	32.9900	0	25.718	0	93.300	0	190.5	4	65.2	4	-1E+10	1	-1E+10	1	-1E+10	1	-1E+10	1	-1E+10	1	-1E+10	1
4902551	123	C	01/11/2024	11:17	-130.871	46.696	0	95.00	0	7.8190	0	33.0130	0	25.741	0	94.192	0	189.7	4	64.9	4	-1E+10	1	-1E+10	1	-1E+10	1	-1E+10	1	-1E+10	1	-1E+10	1
4902551	123	C	01/11/2024	11:17	-130.871	46.696	0	95.90	0	7.7950	0	33.0220	0	25.752	0	95.085	0	189.0	4	64.6	4	-1E+10	1	-1E+10	1	-1E+10	1	-1E+10	1	-1E+10	1	-1E+10	1
4902551	123	C	01/11/2024	11:17	-130.871	46.696	0	97.00	0	7.7760	0	33.0340	0	25.764	0	96.175	0	188.0	4	64.3	4	-1E+10	1	-1E+10	1	-1E+10	1	-1E+10	1	-1E+10	1	-1E+10	1
4902551	123	C	01/11/2024	11:17	-130.871	46.696	0	97.90	0	7.7760	0	33.0410	0	25.770	0	97.067	0	186.8	4	63.9	4	-1E+10	1	-1E+10	1	-1E+10	1	-1E+10	1	-1E+10	1	-1E+10	1
4902551	123	C	01/11/2024	11:17	-130.871	46.696	0	98.90	0	7.7750	0	33.0430	0	25.771	0	98.058	0	185.6	4	63.5	4	-1E+10	1	-1E+10	1	-1E+10	1	-1E+10	1	-1E+10	1	-1E+10	1
4902551	123	C	01/11/2024	11:17	-130.871	46.696	0	99.90	0	7.7730	0	33.0420	0	25.771	0	99.050	0	183.3	4	62.7	4	-1E+10	1	-1E+10	1	-1E+10	1	-1E+10	1	-1E+10	1	-1E+10	1
4902551	123	C	01/11/2024	11:17	-130.871	46.696	0	100.80	0	7.7910	0	33.0570	0	25.780	0	99.942	0	180.2	4	61.6	4	-1E+10	1	-1E+10	1	-1E+10	1	-1E+10	1	-1E+10	1	-1E+10	1
4902551	123	C	01/11/2024	11:17	-130.871	46.696	0	101.80	0	7.8200	0	33.0740	0	25.789	0	100.933	0	177.3	4	60.7	4	-1E+10	1	-1E+10	1	-1E+10	1	-1E+10	1	-1E+10	1	-1E+10	1
4902551	123	C	01/11/2024	11:17	-130.871	46.696	0	103.00	0	7.8620	0	33.1100	0	25.811	0	102.122	0	174.2	4	59.7	4	-1E+10	1	-1E+10	1	-1E+10	1	-1E+10	1	-1E+10	1	-1E+10	1
4902551	123	C	01/11/2024	11:17	-130.871	46.696	0	103.90	0	7.8770	0	33.1230	0	25.819	0	103.015	0	171.2	4	58.7	4	-1E+10	1	-1E+10	1	-1E+10	1	-1E+10	1	-1E+10	1	-1E+10	1
4902551	123	C	01/11/2024	11:17	-130.871	46.696	0	104.80	0	7.8830	0	33.1600	0	25.848	0	103.907	0	167.7	4	57.5	4	-1E+10	1	-1E+10	1	-1E+10	1	-1E+10	1	-1E+10	1	-1E+10	1
4902551	123	C	01/11/2024	11:17	-130.871	46.696	0	105.90	0	7.8650	0	33.2010	0	25.883	0	104.997	0	165.2	4	56.7	4	-1E+10	1	-1E+10	1	-1E+10	1	-1E+10	1	-1E+10	1	-1E+10	1
4902551	123	C	01/11/2024	11:17	-130.871	46.696	0	107.00	0	7.8200	0	33.2490	0	25.927	0	106.087	0	163.6	4	56.1	4	-1E+10	1	-1E+10	1	-1E+10	1	-1E+10	1	-1E+10	1	-1E+10	1
4902551	123	C	01/11/2024	11:17	-130.871	46.696	0	108.30	0	7.7500	0	33.3210	0	25.993	0	107.376	0	162.8	4	55.7	4	-1E+10	1	-1E+10	1	-1E+10	1	-1E+10	1	-1E+10	1	-1E+10	1
4902551	123	C	01/11/2024	11:17	-130.871	46.696	0	109.20	0	7.7400	0	33.3280	0	26.000	0	108.268	0	162.4	4	55.6	4	-1E+10	1	-1E+10	1	-1E+10	1	-1E+10	1	-1E+10	1	-1E+10	1
4902551	123	C	01/11/2024	11:17	-130.871	46.696	0	110.10	0	7.7240	0	33.3360	0	26.009	0	109.160	0	162.2	4	55.5	4	-1E+10	1	-1E+10	1	-1E+10	1	-1E+10	1	-1E+10	1	-1E+10	1
4902551	123	C	01/11/2024	11:17	-130.871	46.696	0	111.00	0	7.7210	0	33.3430	0	26.015	0	110.052	0	161.9	4	55.4	4	-1E+10	1	-1E+10	1	-1E+10	1	-1E+10	1	-1E+10	1	-1E+10	1
4902551	123	C	01/11/2024	11:17	-130.871	46.696	0	112.00	0	7.7210	0	33.3430	0	26.015	0	111.043	0	161.6	4	55.3	4	-1E+10	1	-1E+10	1	-1E+10	1	-1E+10	1	-1E+10	1	-1E+10	1
4902551	123	C	01/11/2024	11:17	-130.871	46.696	0	112.90	0	7.7220	0	33.3410	0	26.013	0	111.935	0	161.2	4	55.2	4	-1E+10	1	-1E+10	1	-1E+10	1	-1E+10	1	-1E+10	1	-1E+10	1
4902551	123	C	01/11/2024	11:17	-130.871	46.696	0	113.80	0	7.7150	0	33.3500	0	26.021	0	112.827	0	160.9	4	55.1	4	-1E+10	1	-1E+10	1	-1E+10	1	-1E+10	1	-1E+10	1	-1E+10	1
4902551	123	C	01/11/2024	11:17	-130.871	46.696	0	114.70	0	7.7140	0	33.3510	0	26.022	0	113.720	0	160.7	4	55.0	4	-1E+10	1	-1E+10	1	-1E+10	1	-1E+10	1	-1E+10	1	-1E+10	1
4902551	123	C	01/11/2024	11:17	-130.871	46.696	0	115.70	0	7.7130	0	33.3520	0	26.023	0	114.711	0	160.3	4	54.8	4	-1E+10	1	-1E+10	1	-1E+10	1	-1E+10	1	-1E+10	1	-1E+10	1
4902551	123	C	01/11/2024	11:17	-130.871	46.696	0	116.60	0	7.7140	0	33.3510	0	26.022	0	115.603	0	159.9	4	54.7	4	-1E+10	1	-1E+10	1	-1E+10	1	-1E+10	1	-1E+10	1	-1E+10	1
4902551	123	C	01/11/2024	11:17	-130.871	46.696	0	117.60	0	7.7120	0	33.3520	0	26.023	0	116.594	0	159.4	4	54.5	4	-1E+10	1	-1E+10	1	-1E+10	1	-1E+10	1	-1E+10	1	-1E+10	1
4902551	123	C	01/11/2024	11:17	-130.871	46.696	0	118.90	0	7.7100	0	33.3560	0	26.027	0	117.882	0	158.6	4	54.3	4	-1E+10	1	-1E+10	1	-1E+10	1	-1E+10	1	-1E+10	1	-1E+10	1
4902551	123	C	01/11/2024	11:17	-130.871	46.696	0	120.30	0	7.7090	0	33.3610	0	26.031	0	119.270	0	157.6	4	53.9	4	-1E+10	1	-1E+10	1	-1E+10	1	-1E+10	1	-1E+10	1	-1E+10	1
4902551	123	C	01/11/2024	11:17	-130.871	46.696	0	121.20	0	7.7100	0	33.3630	0	26.032	0	120.162	0	156.9	4	53.7	4	-1E+10	1	-1E+10	1	-1E+10	1	-1E+10	1	-1E+10	1	-1E+10	1
4902551	123	C	01/11/2024	11:17	-130.871	46.696	0	122.10	0	7.7120	0	33.3650	0	26.034	0	121.054	0	156.2	4	53.4	4	-1E+10	1	-1E+10	1	-1E+10	1	-1E+10	1	-1E+10	1	-1E+10	1
4902551	123	C	01/11/2024	11:17	-130.871	46.696	0	123.10	0	7.7120	0	33.3660	0	26.034	0	122.045	0	155.3	4	53.1	4	-1E+10	1	-1E+10	1	-1E+10	1	-1E+10	1	-1E+10	1	-1E+10	1
4902551	123	C	01/11/2024	11:17	-130.871	46.696	0	124.00	0	7.7130	0	33.3670	0	26.035	0	122.937	0	154.4	4	52.8	4	-1E+10	1	-1E+10	1	-1E+10	1	-1E+10	1	-1E+10	1	-1E+10	1
4902551	123	C	01/11/2024	11:17	-130.871	46.696	0	124.90	0	7.7120	0	33.3660	0	26.034	0	123.829	0	153.2	4	52.4	4	-1E+10	1	-1E+10	1	-1E+10	1	-1E+10	1	-1E+10	1	-1E+10	1
4902551	123	C	01/11/2024	11:17	-130.871	46.696	0	125.70	0	7.7140	0	33.3710	0	26.038	0	124.622	0	151.9	4	52.0	4	-1E+10	1	-1E+10	1	-1E+10	1	-1E+10	1	-1E+10	1	-1E+10	1
4902551	123	C	01/11/2024	11:17	-130.871	46.696	0	127.00	0	7.7130	0	33.3790	0	26.044	0	125.911	0	150.0	4	51.3	4	-1E+10	1	-1E+10	1	-1E+10	1	-1E+10	1	-1E+10	1	-1E+10	1
4902551	123	C	01/11/2024	11:17	-130.871	46.696	0	128.20	0	7.7130	0	33.3750	0	26.041	0	127.100	0	147.7	4	50.5	4	-1E+10	1	-1E+10	1	-1E+10	1	-1E+10	1	-1E+10	1	-1E+10	1
4902551	123	C	01/11/2024	11:17	-130.871	46.696	0	129.00	0	7.7120	0	33.3870	0	26.051	0	127.893	0	145.9	4	49.9	4	-1E+10	1	-1E+10	1	-1E+10	1	-1E+10	1	-1E+10	1	-1E+10	1
4902551	123	C	01/11/2024	11:17	-130.871	46.696	0	129.80	0	7.7040	0	33.4190	0	26.077	0	128.686	0	144.0	4	49.3	4	-1E+10	1	-1E+10	1	-1E+10	1	-1E+10	1	-1E+10	1	-1E+10	1
4902551	123	C	01/11/2024	11:17	-130.871	46.696	0	130.60	0	7.6940	0	33.4470	0	26.101	0	129.479	0	142.4	4	48.7	4	-1E+10	1	-1E+10	1	-1E+10	1	-1E+10	1	-1E+10	1	-1E+10	1
4902551	123	C	01/11/2024	11:17	-130.871	46.696	0	131.90	0	7.6730	0	33.4970	0	26.143	0	130.767	0	140.4	4	48.1	4	-1E+10	1	-1E+10	1	-1E+10	1	-1E+10	1	-1E+10	1	-1E+10	1
4902551	123	C	01/11/2024	11:17	-130.871	46.696	0	133.40	0	7.6440	0	33.5500	0	26.189	0	132.254	0	139.0	4	47.6	4	-1E+10	1	-1E+10	1	-1E+10	1	-1E+10	1	-1E+10	1	-1E+10	1
4902551	123	C	01/11/2024	11:17	-130.871	46.696	0	134.40	0	7.6370	0	33.5590	0	26.197	0	133.245	0	138.4	4	47.3	4	-1E+10	1	-1E+10	1	-1E+10	1	-1E+10	1	-1E+10	1	-1E+10	1
4902551	123	C	01/11/2024	11:17	-130.871	46.696	0	135.30	0	7.6290	0	33.5680	0	26.205	0	134.137	0	137.6	4	47.1	4	-1E+10	1	-1E+10	1	-1E+10	1	-1E+10	1	-1E+10	1	-1E+10	1
4902551	123	C	01/11/2024	11:17	-130.871	46.696	0	136.30	0	7.6070	0	33.5900	0	26.226	0	135.128	0	137.1	4	46.9	4	-1E+10	1	-1E+10	1	-1E+10	1	-1E+10	1	-1E+10	1	-1E+10	1
4902551	123	C	01/11/2024	11:17	-130.871	46.696	0	137.30	0	7.6030	0	33.5920	0	26.228	0	136.119	0	136.4	4	46.6	4	-1E+10	1	-1E+10	1	-1E+10	1	-1E+10	1	-1E+10	1	-1E+10	1
4902551	123	C	01/11/2024	11:17	-130.871	46.696	0	138.20	0	7.5960	0	33.5980	0	26.233	0	137.011	0	135.9	4	46.5	4	-1E+10	1	-1E+10	1	-1E+10	1	-1E+10	1	-1E+10	1	-1E+10	1
4902551	123	C	01/11/2024	11:17	-130.871	46.696	0	139.10	0	7.5820	0	33.6070	0	26.243	0	137.903	0	135.4	4	46.3	4	-1E+10	1	-1E+10	1	-1E+10	1	-1E+10	1	-1E+10	1	-1E+10	1
4902551	123	C	01/11/2024	11:17	-130.871	46.696	0	140.00	0	7.5710	0	33.6110	0	26.247	0	138.795	0	134.8	4	46.1	4	-1E+10	1	-1E+10	1	-1E+10	1	-1E+10	1	-1E+10	1	-1E+10	1
4902551	123	C	01/11/2024	11:17	-130.871	46.696	0	140.90	0	7.5600	0	33.6200	0	26.256	0	139.687	0	134.1	4	45.8	4	-1E+10	1	-1E+10	1	-1E+10	1	-1E+10	1	-1E+10	1	-1E+10	1
4902551	123	C	01/11/2024	11:17	-130.871	46.696	0	141.90	0	7.5540	0	33.6350	0	26.269	0	140.678	0	133.6	4	45.6	4	-1E+10	1	-1E+10	1	-1E+10	1	-1E+10	1	-1E+10	1	-1E+10	1
4902551	123	C	01/11/2024	11:17	-130.871	46.696	0	142.80	0	7.5540	0	33.6380	0	26.271	0	141.570	0	133.0	4	45.4	4	-1E+10	1	-1E+10	1	-1E+10	1	-1E+10	1	-1E+10	1	-1E+10	1
4902551	123	C	01/11/2024	11:17	-130.871	46.696	0	143.70	0	7.5560	0	33.6430	0	26.275	0	142.462	0	132.3	4	45.2	4	-1E+10	1	-1E+10	1	-1E+10	1	-1E+10	1	-1E+10	1	-1E+10	1
4902551	123	C	01/11/2024	11:17	-130.871	46.696	0	144.70	0	7.5630	0	33.6510	0	26.280	0	143.453	0	131.7	4	45.0	4	-1E+10	1	-1E+10	1	-1E+10	1	-1E+10	1	-1E+10	1	-1E+10	1
4902551	123	C	01/11/2024	11:17	-130.871	46.696	0	145.60	0	7.5650	0	33.6550	0	26.283	0	144.345	0	131.0	4	44.8	4	-1E+10	1	-1E+10	1	-1E+10	1	-1E+10	1	-1E+10	1	-1E+10	1
4902551	123	C	01/11/2024	11:17	-130.871	46.696	0	146.60	0	7.5660	0	33.6610	0	26.287	0	145.336	0	130.4	4	44.6	4	-1E+10	1	-1E+10	1	-1E+10	1	-1E+10	1	-1E+10	1	-1E+10	1
4902551	123	C	01/11/2024	11:17	-130.871	46.696	0	147.60	0	7.5660	0	33.6590	0	26.286	0	146.327	0	129.6	4	44.3	4	-1E+10	1	-1E+10	1	-1E+10	1	-1E+10	1	-1E+10	1	-1E+10	1
4902551	123	C	01/11/2024	11:17	-130.871	46.696	0	148.60	0	7.5640	0	33.6620	0	26.288	0	147.318	0	128.7	4	44.0	4	-1E+10	1	-1E+10	1	-1E+10	1	-1E+10	1	-1E+10	1	-1E+10	1
4902551	123	C	01/11/2024	11:17	-130.871	46.696	0	149.60	0	7.5580	0	33.6710	0	26.296	0	148.309	0	127.9	4	43.7	4	-1E+10	1	-1E+10	1	-1E+10	1	-1E+10	1	-1E+10	1	-1E+10	1
4902551	123	C	01/11/2024	11:17	-130.871	46.696	0	150.60	0	7.5550	0	33.6720	0	26.298	0	149.300	0	127.0	4	43.4	4	-1E+10	1	-1E+10	1	-1E+10	1	-1E+10	1	-1E+10	1	-1E+10	1
4902551	123	C	01/11/2024	11:17	-130.871	46.696	0	151.60	0	7.5540	0	33.7010	0	26.321	0	150.291	0	126.4	4	43.2	4	-1E+10	1	-1E+10	1	-1E+10	1	-1E+10	1	-1E+10	1	-1E+10	1
4902551	123	C	01/11/2024	11:17	-130.871	46.696	0	152.90	0	7.5280	0	33.7160	0	26.336	0	151.579	0	125.7	4	42.9	4	-1E+10	1	-1E+10	1	-1E+10	1	-1E+10	1	-1E+10	1	-1E+10	1
4902551	123	C	01/11/2024	11:17	-130.871	46.696	0	154.80	0	7.5240	0	33.7290	0	26.347	0	153.462	0	124.7	4	42.6	4	-1E+10	1	-1E+10	1	-1E+10	1	-1E+10	1	-1E+10	1	-1E+10	1
4902551	123	C	01/11/2024	11:17	-130.871	46.696	0	156.00	0	7.5370	0	33.7340	0	26.349	0	154.651	0	124.2	4	42.4	4	-1E+10	1	-1E+10	1	-1E+10	1	-1E+10	1	-1E+10	1	-1E+10	1
4902551	123	C	01/11/2024	11:17	-130.871	46.696	0	156.80	0	7.5390	0	33.7350	0	26.350	0	155.444	0	123.7	4	42.3	4	-1E+10	1	-1E+10	1	-1E+10	1	-1E+10	1	-1E+10	1	-1E+10	1
4902551	123	C	01/11/2024	11:17	-130.871	46.696	0	158.00	0	7.5320	0	33.7410	0	26.355	0	156.633	0	123.2	4	42.1	4	-1E+10	1	-1E+10	1	-1E+10	1	-1E+10	1	-1E+10	1	-1E+10	1
4902551	123	C	01/11/2024	11:17	-130.871	46.696	0	159.20	0	7.4940	0	33.7520	0	26.369	0	157.822	0	122.8	4	41.9	4	-1E+10	1	-1E+10	1	-1E+10	1	-1E+10	1	-1E+10	1	-1E+10	1
4902551	123	C	01/11/2024	11:17	-130.871	46.696	0	160.00	0	7.4650	0	33.7540	0	26.375	0	158.615	0	122.4	4	41.8	4	-1E+10	1	-1E+10	1	-1E+10	1	-1E+10	1	-1E+10	1	-1E+10	1
4902551	123	C	01/11/2024	11:17	-130.871	46.696	0	160.80	0	7.4670	0	33.7550	0	26.376	0	159.408	0	122.0	4	41.6	4	-1E+10	1	-1E+10	1	-1E+10	1	-1E+10	1	-1E+10	1	-1E+10	1
4902551	123	C	01/11/2024	11:17	-130.871	46.696	0	162.00	0	7.4550	0	33.7640	0	26.384	0	160.597	0	121.4	4	41.4	4	-1E+10	1	-1E+10	1	-1E+10	1	-1E+10	1	-1E+10	1	-1E+10	1
4902551	123	C	01/11/2024	11:17	-130.871	46.696	0	163.30	0	7.4540	0	33.7700	0	26.389	0	161.885	0	120.8	4	41.2	4	-1E+10	1	-1E+10	1	-1E+10	1	-1E+10	1	-1E+10	1	-1E+10	1
4902551	123	C	01/11/2024	11:17	-130.871	46.696	0	164.10	0	7.4510	0	33.7740	0	26.393	0	162.678	0	120.3	4	41.0	4	-1E+10	1	-1E+10	1	-1E+10	1	-1E+10	1	-1E+10	1	-1E+10	1
4902551	123	C	01/11/2024	11:17	-130.871	46.696	0	165.00	0	7.4530	0	33.7760	0	26.394	0	163.570	0	119.9	4	40.9	4	-1E+10	1	-1E+10	1	-1E+10	1	-1E+10	1	-1E+10	1	-1E+10	1
4902551	123	C	01/11/2024	11:17	-130.871	46.696	0	165.80	0	7.4470	0	33.7780	0	26.397	0	164.362	0	119.3	4	40.7	4	-1E+10	1	-1E+10	1	-1E+10	1	-1E+10	1	-1E+10	1	-1E+10	1
4902551	123	C	01/11/2024	11:17	-130.871	46.696	0	166.70	0	7.4400	0	33.7850	0	26.403	0	165.254	0	118.8	4	40.5	4	-1E+10	1	-1E+10	1	-1E+10	1	-1E+10	1	-1E+10	1	-1E+10	1
4902551	123	C	01/11/2024	11:17	-130.871	46.696	0	167.90	0	7.4330	0	33.7890	0	26.407	0	166.443	0	118.1	4	40.3	4	-1E+10	1	-1E+10	1	-1E+10	1	-1E+10	1	-1E+10	1	-1E+10	1
4902551	123	C	01/11/2024	11:17	-130.871	46.696	0	169.20	0	7.4230	0	33.7910	0	26.410	0	167.732	0	117.3	4	40.0	4	-1E+10	1	-1E+10	1	-1E+10	1	-1E+10	1	-1E+10	1	-1E+10	1
4902551	123	C	01/11/2024	11:17	-130.871	46.696	0	170.00	0	7.3960	0	33.8020	0	26.423	0	168.524	0	116.8	4	39.8	4	-1E+10	1	-1E+10	1	-1E+10	1	-1E+10	1	-1E+10	1	-1E+10	1
4902551	123	C	01/11/2024	11:17	-130.871	46.696	0	170.90	0	7.3550	0	33.7960	0	26.424	0	169.416	0	116.4	4	39.6	4	-1E+10	1	-1E+10	1	-1E+10	1	-1E+10	1	-1E+10	1	-1E+10	1
4902551	123	C	01/11/2024	11:17	-130.871	46.696	0	171.80	0	7.2940	0	33.8060	0	26.440	0	170.308	0	116.0	4	39.4	4	-1E+10	1	-1E+10	1	-1E+10	1	-1E+10	1	-1E+10	1	-1E+10	1
4902551	123	C	01/11/2024	11:17	-130.871	46.696	0	172.70	0	7.2800	0	33.8140	0	26.448	0	171.200	0	115.6	4	39.3	4	-1E+10	1	-1E+10	1	-1E+10	1	-1E+10	1	-1E+10	1	-1E+10	1
4902551	123	C	01/11/2024	11:17	-130.871	46.696	0	174.00	0	7.2740	0	33.8180	0	26.452	0	172.488	0	115.1	4	39.1	4	-1E+10	1	-1E+10	1	-1E+10	1	-1E+10	1	-1E+10	1	-1E+10	1
4902551	123	C	01/11/2024	11:17	-130.871	46.696	0	175.30	0	7.2740	0	33.8240	0	26.457	0	173.776	0	114.5	4	38.9	4	-1E+10	1	-1E+10	1	-1E+10	1	-1E+10	1	-1E+10	1	-1E+10	1
4902551	123	C	01/11/2024	11:17	-130.871	46.696	0	176.20	0	7.2760	0	33.8260	0	26.458	0	174.668	0	113.9	4	38.7	4	-1E+10	1	-1E+10	1	-1E+10	1	-1E+10	1	-1E+10	1	-1E+10	1
4902551	123	C	01/11/2024	11:17	-130.871	46.696	0	177.10	0	7.2710	0	33.8290	0	26.461	0	175.560	0	113.4	4	38.6	4	-1E+10	1	-1E+10	1	-1E+10	1	-1E+10	1	-1E+10	1	-1E+10	1
4902551	123	C	01/11/2024	11:17	-130.871	46.696	0	178.00	0	7.2650	0	33.8340	0	26.466	0	176.451	0	112.8	4	38.4	4	-1E+10	1	-1E+10	1	-1E+10	1	-1E+10	1	-1E+10	1	-1E+10	1
4902551	123	C	01/11/2024	11:17	-130.871	46.696	0	178.90	0	7.2620	0	33.8350	0	26.467	0	177.343	0	112.3	4	38.2	4	-1E+10	1	-1E+10	1	-1E+10	1	-1E+10	1	-1E+10	1	-1E+10	1
4902551	123	C	01/11/2024	11:17	-130.871	46.696	0	179.80	0	7.2610	0	33.8350	0	26.468	0	178.235	0	111.6	4	37.9	4	-1E+10	1	-1E+10	1	-1E+10	1	-1E+10	1	-1E+10	1	-1E+10	1
4902551	123	C	01/11/2024	11:17	-130.871	46.696	0	180.70	0	7.2500	0	33.8400	0	26.473	0	179.127	0	110.8	4	37.7	4	-1E+10	1	-1E+10	1	-1E+10	1	-1E+10	1	-1E+10	1	-1E+10	1
4902551	123	C	01/11/2024	11:17	-130.871	46.696	0	181.60	0	7.2490	0	33.8380	0	26.472	0	180.019	0	110.0	4	37.4	4	-1E+10	1	-1E+10	1	-1E+10	1	-1E+10	1	-1E+10	1	-1E+10	1
4902551	123	C	01/11/2024	11:17	-130.871	46.696	0	182.90	0	7.2350	0	33.8430	0	26.478	0	181.307	0	108.9	4	37.0	4	-1E+10	1	-1E+10	1	-1E+10	1	-1E+10	1	-1E+10	1	-1E+10	1
4902551	123	C	01/11/2024	11:17	-130.871	46.696	0	184.30	0	7.2130	0	33.8470	0	26.484	0	182.694	0	107.8	4	36.6	4	-1E+10	1	-1E+10	1	-1E+10	1	-1E+10	1	-1E+10	1	-1E+10	1
4902551	123	C	01/11/2024	11:17	-130.871	46.696	0	185.20	0	7.2010	0	33.8500	0	26.488	0	183.586	0	107.1	4	36.4	4	-1E+10	1	-1E+10	1	-1E+10	1	-1E+10	1	-1E+10	1	-1E+10	1
4902551	123	C	01/11/2024	11:17	-130.871	46.696	0	186.10	0	7.1890	0	33.8530	0	26.492	0	184.477	0	106.6	4	36.2	4	-1E+10	1	-1E+10	1	-1E+10	1	-1E+10	1	-1E+10	1	-1E+10	1
4902551	123	C	01/11/2024	11:17	-130.871	46.696	0	187.00	0	7.1840	0	33.8540	0	26.493	0	185.369	0	105.9	4	35.9	4	-1E+10	1	-1E+10	1	-1E+10	1	-1E+10	1	-1E+10	1	-1E+10	1
4902551	123	C	01/11/2024	11:17	-130.871	46.696	0	188.00	0	7.1830	0	33.8540	0	26.493	0	186.360	0	105.3	4	35.7	4	-1E+10	1	-1E+10	1	-1E+10	1	-1E+10	1	-1E+10	1	-1E+10	1
4902551	123	C	01/11/2024	11:17	-130.871	46.696	0	188.90	0	7.1850	0	33.8580	0	26.496	0	187.252	0	104.7	4	35.5	4	-1E+10	1	-1E+10	1	-1E+10	1	-1E+10	1	-1E+10	1	-1E+10	1
4902551	123	C	01/11/2024	11:17	-130.871	46.696	0	189.80	0	7.1860	0	33.8620	0	26.499	0	188.143	0	104.1	4	35.3	4	-1E+10	1	-1E+10	1	-1E+10	1	-1E+10	1	-1E+10	1	-1E+10	1
4902551	123	C	01/11/2024	11:17	-130.871	46.696	0	190.70	0	7.1850	0	33.8630	0	26.500	0	189.035	0	103.7	4	35.2	4	-1E+10	1	-1E+10	1	-1E+10	1	-1E+10	1	-1E+10	1	-1E+10	1
4902551	123	C	01/11/2024	11:17	-130.871	46.696	0	191.60	0	7.1850	0	33.8640	0	26.501	0	189.927	0	103.2	4	35.0	4	-1E+10	1	-1E+10	1	-1E+10	1	-1E+10	1	-1E+10	1	-1E+10	1
4902551	123	C	01/11/2024	11:17	-130.871	46.696	0	192.90	0	7.1740	0	33.8680	0	26.506	0	191.215	0	102.4	4	34.8	4	-1E+10	1	-1E+10	1	-1E+10	1	-1E+10	1	-1E+10	1	-1E+10	1
4902551	123	C	01/11/2024	11:17	-130.871	46.696	0	194.30	0	7.1580	0	33.8740	0	26.513	0	192.602	0	101.9	4	34.5	4	-1E+10	1	-1E+10	1	-1E+10	1	-1E+10	1	-1E+10	1	-1E+10	1
4902551	123	C	01/11/2024	11:17	-130.871	46.696	0	195.20	0	7.1300	0	33.8740	0	26.517	0	193.494	0	101.6	4	34.4	4	-1E+10	1	-1E+10	1	-1E+10	1	-1E+10	1	-1E+10	1	-1E+10	1
4902551	123	C	01/11/2024	11:17	-130.871	46.696	0	196.10	0	7.1130	0	33.8750	0	26.520	0	194.385	0	101.3	4	34.3	4	-1E+10	1	-1E+10	1	-1E+10	1	-1E+10	1	-1E+10	1	-1E+10	1
4902551	123	C	01/11/2024	11:17	-130.871	46.696	0	197.00	0	7.1050	0	33.8770	0	26.522	0	195.277	0	101.0	4	34.2	4	-1E+10	1	-1E+10	1	-1E+10	1	-1E+10	1	-1E+10	1	-1E+10	1
4902551	123	C	01/11/2024	11:17	-130.871	46.696	0	197.90	0	7.0950	0	33.8740	0	26.521	0	196.169	0	100.6	4	34.1	4	-1E+10	1	-1E+10	1	-1E+10	1	-1E+10	1	-1E+10	1	-1E+10	1
4902551	123	C	01/11/2024	11:17	-130.871	46.696	0	198.80	0	7.0700	0	33.8810	0	26.530	0	197.061	0	100.3	4	33.9	4	-1E+10	1	-1E+10	1	-1E+10	1	-1E+10	1	-1E+10	1	-1E+10	1
4902551	123	C	01/11/2024	11:17	-130.871	46.696	0	199.80	0	7.0570	0	33.8760	0	26.528	0	198.051	0	100.0	4	33.8	4	-1E+10	1	-1E+10	1	-1E+10	1	-1E+10	1	-1E+10	1	-1E+10	1
4902551	123	C	01/11/2024	11:17	-130.871	46.696	0	200.70	0	7.0490	0	33.8770	0	26.530	0	198.943	0	99.6	4	33.7	4	-1E+10	1	-1E+10	1	-1E+10	1	-1E+10	1	-1E+10	1	-1E+10	1
4902551	123	C	01/11/2024	11:17	-130.871	46.696	0	201.60	0	7.0290	0	33.8790	0	26.535	0	199.835	0	99.3	4	33.6	4	-1E+10	1	-1E+10	1	-1E+10	1	-1E+10	1	-1E+10	1	-1E+10	1
4902551	123	C	01/11/2024	11:17	-130.871	46.696	0	202.60	0	7.0260	0	33.8790	0	26.535	0	200.825	0	99.0	4	33.5	4	-1E+10	1	-1E+10	1	-1E+10	1	-1E+10	1	-1E+10	1	-1E+10	1
4902551	123	C	01/11/2024	11:17	-130.871	46.696	0	203.90	0	7.0220	0	33.8790	0	26.536	0	202.113	0	98.3	4	33.3	4	-1E+10	1	-1E+10	1	-1E+10	1	-1E+10	1	-1E+10	1	-1E+10	1
4902551	123	C	01/11/2024	11:17	-130.871	46.696	0	205.30	0	7.0040	0	33.8810	0	26.540	0	203.500	0	97.8	4	33.1	4	-1E+10	1	-1E+10	1	-1E+10	1	-1E+10	1	-1E+10	1	-1E+10	1
4902551	123	C	01/11/2024	11:17	-130.871	46.696	0	206.20	0	6.9870	0	33.8820	0	26.543	0	204.392	0	97.4	4	32.9	4	-1E+10	1	-1E+10	1	-1E+10	1	-1E+10	1	-1E+10	1	-1E+10	1
4902551	123	C	01/11/2024	11:17	-130.871	46.696	0	207.10	0	6.9820	0	33.8820	0	26.543	0	205.284	0	97.0	4	32.8	4	-1E+10	1	-1E+10	1	-1E+10	1	-1E+10	1	-1E+10	1	-1E+10	1
4902551	123	C	01/11/2024	11:17	-130.871	46.696	0	208.00	0	6.9690	0	33.8870	0	26.549	0	206.175	0	96.6	4	32.6	4	-1E+10	1	-1E+10	1	-1E+10	1	-1E+10	1	-1E+10	1	-1E+10	1
4902551	123	C	01/11/2024	11:17	-130.871	46.696	0	208.90	0	6.9210	0	33.8920	0	26.560	0	207.067	0	96.4	4	32.5	4	-1E+10	1	-1E+10	1	-1E+10	1	-1E+10	1	-1E+10	1	-1E+10	1
4902551	123	C	01/11/2024	11:17	-130.871	46.696	0	209.80	0	6.9140	0	33.8920	0	26.560	0	207.959	0	96.2	4	32.4	4	-1E+10	1	-1E+10	1	-1E+10	1	-1E+10	1	-1E+10	1	-1E+10	1
4902551	123	C	01/11/2024	11:17	-130.871	46.696	0	210.60	0	6.9130	0	33.8920	0	26.561	0	208.751	0	95.9	4	32.3	4	-1E+10	1	-1E+10	1	-1E+10	1	-1E+10	1	-1E+10	1	-1E+10	1
4902551	123	C	01/11/2024	11:17	-130.871	46.696	0	211.90	0	6.9120	0	33.8920	0	26.561	0	210.039	0	95.4	4	32.2	4	-1E+10	1	-1E+10	1	-1E+10	1	-1E+10	1	-1E+10	1	-1E+10	1
4902551	123	C	01/11/2024	11:17	-130.871	46.696	0	213.20	0	6.8910	0	33.8950	0	26.566	0	211.327	0	94.8	4	32.0	4	-1E+10	1	-1E+10	1	-1E+10	1	-1E+10	1	-1E+10	1	-1E+10	1
4902551	123	C	01/11/2024	11:17	-130.871	46.696	0	214.00	0	6.8910	0	33.8940	0	26.565	0	212.120	0	94.4	4	31.8	4	-1E+10	1	-1E+10	1	-1E+10	1	-1E+10	1	-1E+10	1	-1E+10	1
4902551	123	C	01/11/2024	11:17	-130.871	46.696	0	214.90	0	6.8860	0	33.8950	0	26.567	0	213.011	0	93.9	4	31.7	4	-1E+10	1	-1E+10	1	-1E+10	1	-1E+10	1	-1E+10	1	-1E+10	1
4902551	123	C	01/11/2024	11:17	-130.871	46.696	0	215.70	0	6.8920	0	33.8950	0	26.566	0	213.804	0	93.4	4	31.5	4	-1E+10	1	-1E+10	1	-1E+10	1	-1E+10	1	-1E+10	1	-1E+10	1
4902551	123	C	01/11/2024	11:17	-130.871	46.696	0	216.90	0	6.8740	0	33.8980	0	26.571	0	214.993	0	92.6	4	31.2	4	-1E+10	1	-1E+10	1	-1E+10	1	-1E+10	1	-1E+10	1	-1E+10	1
4902551	123	C	01/11/2024	11:17	-130.871	46.696	0	218.10	0	6.8560	0	33.9050	0	26.579	0	216.182	0	92.0	4	31.0	4	-1E+10	1	-1E+10	1	-1E+10	1	-1E+10	1	-1E+10	1	-1E+10	1
4902551	123	C	01/11/2024	11:17	-130.871	46.696	0	219.00	0	6.8140	0	33.9030	0	26.583	0	217.073	0	91.8	4	30.9	4	-1E+10	1	-1E+10	1	-1E+10	1	-1E+10	1	-1E+10	1	-1E+10	1
4902551	123	C	01/11/2024	11:17	-130.871	46.696	0	219.80	0	6.8160	0	33.9060	0	26.585	0	217.866	0	91.5	4	30.8	4	-1E+10	1	-1E+10	1	-1E+10	1	-1E+10	1	-1E+10	1	-1E+10	1
4902551	123	C	01/11/2024	11:17	-130.871	46.696	0	220.70	0	6.8080	0	33.9060	0	26.586	0	218.757	0	91.2	4	30.7	4	-1E+10	1	-1E+10	1	-1E+10	1	-1E+10	1	-1E+10	1	-1E+10	1
4902551	123	C	01/11/2024	11:17	-130.871	46.696	0	221.90	0	6.7930	0	33.9120	0	26.593	0	219.946	0	90.9	4	30.6	4	-1E+10	1	-1E+10	1	-1E+10	1	-1E+10	1	-1E+10	1	-1E+10	1
4902551	123	C	01/11/2024	11:17	-130.871	46.696	0	223.20	0	6.7850	0	33.9150	0	26.596	0	221.234	0	90.6	4	30.5	4	-1E+10	1	-1E+10	1	-1E+10	1	-1E+10	1	-1E+10	1	-1E+10	1
4902551	123	C	01/11/2024	11:17	-130.871	46.696	0	224.10	0	6.7740	0	33.9200	0	26.602	0	222.126	0	90.4	4	30.4	4	-1E+10	1	-1E+10	1	-1E+10	1	-1E+10	1	-1E+10	1	-1E+10	1
4902551	123	C	01/11/2024	11:17	-130.871	46.696	0	224.90	0	6.7640	0	33.9230	0	26.605	0	222.918	0	90.3	4	30.4	4	-1E+10	1	-1E+10	1	-1E+10	1	-1E+10	1	-1E+10	1	-1E+10	1
4902551	123	C	01/11/2024	11:17	-130.871	46.696	0	225.80	0	6.7510	0	33.9230	0	26.607	0	223.810	0	90.2	4	30.3	4	-1E+10	1	-1E+10	1	-1E+10	1	-1E+10	1	-1E+10	1	-1E+10	1
4902551	123	C	01/11/2024	11:17	-130.871	46.696	0	226.70	0	6.7450	0	33.9220	0	26.607	0	224.701	0	90.0	4	30.3	4	-1E+10	1	-1E+10	1	-1E+10	1	-1E+10	1	-1E+10	1	-1E+10	1
4902551	123	C	01/11/2024	11:17	-130.871	46.696	0	227.60	0	6.7400	0	33.9240	0	26.609	0	225.593	0	89.9	4	30.2	4	-1E+10	1	-1E+10	1	-1E+10	1	-1E+10	1	-1E+10	1	-1E+10	1
4902551	123	C	01/11/2024	11:17	-130.871	46.696	0	228.90	0	6.7240	0	33.9250	0	26.612	0	226.881	0	89.6	4	30.1	4	-1E+10	1	-1E+10	1	-1E+10	1	-1E+10	1	-1E+10	1	-1E+10	1
4902551	123	C	01/11/2024	11:17	-130.871	46.696	0	230.30	0	6.6980	0	33.9250	0	26.616	0	228.268	0	89.4	4	30.0	4	-1E+10	1	-1E+10	1	-1E+10	1	-1E+10	1	-1E+10	1	-1E+10	1
4902551	123	C	01/11/2024	11:17	-130.871	46.696	0	231.20	0	6.6820	0	33.9250	0	26.618	0	229.159	0	89.2	4	29.9	4	-1E+10	1	-1E+10	1	-1E+10	1	-1E+10	1	-1E+10	1	-1E+10	1
4902551	123	C	01/11/2024	11:17	-130.871	46.696	0	232.10	0	6.6570	0	33.9250	0	26.621	0	230.051	0	89.0	4	29.9	4	-1E+10	1	-1E+10	1	-1E+10	1	-1E+10	1	-1E+10	1	-1E+10	1
4902551	123	C	01/11/2024	11:17	-130.871	46.696	0	233.00	0	6.6450	0	33.9260	0	26.624	0	230.942	0	88.8	4	29.8	4	-1E+10	1	-1E+10	1	-1E+10	1	-1E+10	1	-1E+10	1	-1E+10	1
4902551	123	C	01/11/2024	11:17	-130.871	46.696	0	233.90	0	6.6320	0	33.9290	0	26.628	0	231.834	0	88.6	4	29.7	4	-1E+10	1	-1E+10	1	-1E+10	1	-1E+10	1	-1E+10	1	-1E+10	1
4902551	123	C	01/11/2024	11:17	-130.871	46.696	0	234.90	0	6.6130	0	33.9260	0	26.628	0	232.824	0	88.4	4	29.6	4	-1E+10	1	-1E+10	1	-1E+10	1	-1E+10	1	-1E+10	1	-1E+10	1
4902551	123	C	01/11/2024	11:17	-130.871	46.696	0	235.80	0	6.6060	0	33.9270	0	26.630	0	233.716	0	88.2	4	29.5	4	-1E+10	1	-1E+10	1	-1E+10	1	-1E+10	1	-1E+10	1	-1E+10	1
4902551	123	C	01/11/2024	11:17	-130.871	46.696	0	236.70	0	6.6010	0	33.9260	0	26.629	0	234.607	0	87.8	4	29.4	4	-1E+10	1	-1E+10	1	-1E+10	1	-1E+10	1	-1E+10	1	-1E+10	1
4902551	123	C	01/11/2024	11:17	-130.871	46.696	0	237.60	0	6.5990	0	33.9260	0	26.630	0	235.499	0	87.5	4	29.3	4	-1E+10	1	-1E+10	1	-1E+10	1	-1E+10	1	-1E+10	1	-1E+10	1
4902551	123	C	01/11/2024	11:17	-130.871	46.696	0	238.60	0	6.5970	0	33.9260	0	26.630	0	236.490	0	87.1	4	29.2	4	-1E+10	1	-1E+10	1	-1E+10	1	-1E+10	1	-1E+10	1	-1E+10	1
4902551	123	C	01/11/2024	11:17	-130.871	46.696	0	239.90	0	6.5710	0	33.9280	0	26.635	0	237.777	0	86.6	4	29.0	4	-1E+10	1	-1E+10	1	-1E+10	1	-1E+10	1	-1E+10	1	-1E+10	1
4902551	123	C	01/11/2024	11:17	-130.871	46.696	0	241.40	0	6.5640	0	33.9300	0	26.638	0	239.263	0	86.2	4	28.9	4	-1E+10	1	-1E+10	1	-1E+10	1	-1E+10	1	-1E+10	1	-1E+10	1
4902551	123	C	01/11/2024	11:17	-130.871	46.696	0	242.30	0	6.5590	0	33.9290	0	26.637	0	240.155	0	86.0	4	28.8	4	-1E+10	1	-1E+10	1	-1E+10	1	-1E+10	1	-1E+10	1	-1E+10	1
4902551	123	C	01/11/2024	11:17	-130.871	46.696	0	243.20	0	6.5550	0	33.9290	0	26.638	0	241.046	0	85.8	4	28.7	4	-1E+10	1	-1E+10	1	-1E+10	1	-1E+10	1	-1E+10	1	-1E+10	1
4902551	123	C	01/11/2024	11:17	-130.871	46.696	0	244.20	0	6.5430	0	33.9300	0	26.640	0	242.037	0	85.4	4	28.6	4	-1E+10	1	-1E+10	1	-1E+10	1	-1E+10	1	-1E+10	1	-1E+10	1
4902551	123	C	01/11/2024	11:17	-130.871	46.696	0	245.10	0	6.5310	0	33.9290	0	26.641	0	242.928	0	85.1	4	28.5	4	-1E+10	1	-1E+10	1	-1E+10	1	-1E+10	1	-1E+10	1	-1E+10	1
4902551	123	C	01/11/2024	11:17	-130.871	46.696	0	246.10	0	6.5130	0	33.9330	0	26.647	0	243.919	0	84.8	4	28.4	4	-1E+10	1	-1E+10	1	-1E+10	1	-1E+10	1	-1E+10	1	-1E+10	1
4902551	123	C	01/11/2024	11:17	-130.871	46.696	0	247.00	0	6.4920	0	33.9330	0	26.649	0	244.810	0	84.5	4	28.2	4	-1E+10	1	-1E+10	1	-1E+10	1	-1E+10	1	-1E+10	1	-1E+10	1
4902551	123	C	01/11/2024	11:17	-130.871	46.696	0	248.00	0	6.4890	0	33.9330	0	26.650	0	245.801	0	84.2	4	28.1	4	-1E+10	1	-1E+10	1	-1E+10	1	-1E+10	1	-1E+10	1	-1E+10	1
4902551	123	C	01/11/2024	11:17	-130.871	46.696	0	248.90	0	6.4880	0	33.9320	0	26.649	0	246.692	0	83.8	4	28.0	4	-1E+10	1	-1E+10	1	-1E+10	1	-1E+10	1	-1E+10	1	-1E+10	1
4902551	123	C	01/11/2024	11:17	-130.871	46.696	0	249.90	0	6.4870	0	33.9310	0	26.649	0	247.683	0	83.5	4	27.9	4	-1E+10	1	-1E+10	1	-1E+10	1	-1E+10	1	-1E+10	1	-1E+10	1
4902551	123	C	01/11/2024	11:17	-130.871	46.696	0	250.80	0	6.4830	0	33.9310	0	26.649	0	248.574	0	83.1	4	27.8	4	-1E+10	1	-1E+10	1	-1E+10	1	-1E+10	1	-1E+10	1	-1E+10	1
4902551	123	C	01/11/2024	11:17	-130.871	46.696	0	251.80	0	6.4490	0	33.9340	0	26.656	0	249.565	0	82.7	4	27.6	4	-1E+10	1	-1E+10	1	-1E+10	1	-1E+10	1	-1E+10	1	-1E+10	1
4902551	123	C	01/11/2024	11:17	-130.871	46.696	0	252.80	0	6.4410	0	33.9330	0	26.656	0	250.555	0	82.3	4	27.5	4	-1E+10	1	-1E+10	1	-1E+10	1	-1E+10	1	-1E+10	1	-1E+10	1
4902551	123	C	01/11/2024	11:17	-130.871	46.696	0	253.80	0	6.4230	0	33.9350	0	26.660	0	251.546	0	81.9	4	27.3	4	-1E+10	1	-1E+10	1	-1E+10	1	-1E+10	1	-1E+10	1	-1E+10	1
4902551	123	C	01/11/2024	11:17	-130.871	46.696	0	254.80	0	6.3990	0	33.9350	0	26.663	0	252.536	0	81.6	4	27.2	4	-1E+10	1	-1E+10	1	-1E+10	1	-1E+10	1	-1E+10	1	-1E+10	1
4902551	123	C	01/11/2024	11:17	-130.871	46.696	0	255.80	0	6.3750	0	33.9370	0	26.668	0	253.527	0	81.3	4	27.1	4	-1E+10	1	-1E+10	1	-1E+10	1	-1E+10	1	-1E+10	1	-1E+10	1
4902551	123	C	01/11/2024	11:17	-130.871	46.696	0	256.80	0	6.3560	0	33.9370	0	26.670	0	254.517	0	81.0	4	27.0	4	-1E+10	1	-1E+10	1	-1E+10	1	-1E+10	1	-1E+10	1	-1E+10	1
4902551	123	C	01/11/2024	11:17	-130.871	46.696	0	257.80	0	6.3520	0	33.9370	0	26.671	0	255.508	0	80.6	4	26.9	4	-1E+10	1	-1E+10	1	-1E+10	1	-1E+10	1	-1E+10	1	-1E+10	1
4902551	123	C	01/11/2024	11:17	-130.871	46.696	0	258.90	0	6.3420	0	33.9380	0	26.673	0	256.597	0	80.4	4	26.8	4	-1E+10	1	-1E+10	1	-1E+10	1	-1E+10	1	-1E+10	1	-1E+10	1
4902551	123	C	01/11/2024	11:17	-130.871	46.696	0	259.90	0	6.3380	0	33.9390	0	26.674	0	257.588	0	80.0	4	26.7	4	-1E+10	1	-1E+10	1	-1E+10	1	-1E+10	1	-1E+10	1	-1E+10	1
4902551	123	C	01/11/2024	11:17	-130.871	46.696	0	260.90	0	6.3290	0	33.9410	0	26.677	0	258.578	0	79.7	4	26.5	4	-1E+10	1	-1E+10	1	-1E+10	1	-1E+10	1	-1E+10	1	-1E+10	1
4902551	123	C	01/11/2024	11:17	-130.871	46.696	0	261.90	0	6.3200	0	33.9410	0	26.678	0	259.569	0	79.5	4	26.5	4	-1E+10	1	-1E+10	1	-1E+10	1	-1E+10	1	-1E+10	1	-1E+10	1
4902551	123	C	01/11/2024	11:17	-130.871	46.696	0	263.00	0	6.3180	0	33.9410	0	26.678	0	260.658	0	79.1	4	26.3	4	-1E+10	1	-1E+10	1	-1E+10	1	-1E+10	1	-1E+10	1	-1E+10	1
4902551	123	C	01/11/2024	11:17	-130.871	46.696	0	264.00	0	6.3140	0	33.9420	0	26.680	0	261.649	0	78.8	4	26.2	4	-1E+10	1	-1E+10	1	-1E+10	1	-1E+10	1	-1E+10	1	-1E+10	1
4902551	123	C	01/11/2024	11:17	-130.871	46.696	0	265.00	0	6.3100	0	33.9410	0	26.680	0	262.639	0	78.4	4	26.1	4	-1E+10	1	-1E+10	1	-1E+10	1	-1E+10	1	-1E+10	1	-1E+10	1
4902551	123	C	01/11/2024	11:17	-130.871	46.696	0	266.00	0	6.2960	0	33.9430	0	26.683	0	263.630	0	77.9	4	25.9	4	-1E+10	1	-1E+10	1	-1E+10	1	-1E+10	1	-1E+10	1	-1E+10	1
4902551	123	C	01/11/2024	11:17	-130.871	46.696	0	267.10	0	6.2830	0	33.9410	0	26.683	0	264.719	0	77.5	4	25.8	4	-1E+10	1	-1E+10	1	-1E+10	1	-1E+10	1	-1E+10	1	-1E+10	1
4902551	123	C	01/11/2024	11:17	-130.871	46.696	0	268.10	0	6.2700	0	33.9420	0	26.685	0	265.710	0	77.0	4	25.6	4	-1E+10	1	-1E+10	1	-1E+10	1	-1E+10	1	-1E+10	1	-1E+10	1
4902551	123	C	01/11/2024	11:17	-130.871	46.696	0	269.10	0	6.2590	0	33.9430	0	26.688	0	266.700	0	76.4	4	25.4	4	-1E+10	1	-1E+10	1	-1E+10	1	-1E+10	1	-1E+10	1	-1E+10	1
4902551	123	C	01/11/2024	11:17	-130.871	46.696	0	270.10	0	6.2230	0	33.9440	0	26.693	0	267.691	0	76.0	4	25.2	4	-1E+10	1	-1E+10	1	-1E+10	1	-1E+10	1	-1E+10	1	-1E+10	1
4902551	123	C	01/11/2024	11:17	-130.871	46.696	0	271.20	0	6.2160	0	33.9490	0	26.698	0	268.780	0	75.6	4	25.1	4	-1E+10	1	-1E+10	1	-1E+10	1	-1E+10	1	-1E+10	1	-1E+10	1
4902551	123	C	01/11/2024	11:17	-130.871	46.696	0	272.20	0	6.2110	0	33.9480	0	26.698	0	269.770	0	75.2	4	25.0	4	-1E+10	1	-1E+10	1	-1E+10	1	-1E+10	1	-1E+10	1	-1E+10	1
4902551	123	C	01/11/2024	11:17	-130.871	46.696	0	273.20	0	6.2080	0	33.9480	0	26.698	0	270.761	0	74.9	4	24.9	4	-1E+10	1	-1E+10	1	-1E+10	1	-1E+10	1	-1E+10	1	-1E+10	1
4902551	123	C	01/11/2024	11:17	-130.871	46.696	0	274.30	0	6.1880	0	33.9500	0	26.702	0	271.850	0	74.6	4	24.8	4	-1E+10	1	-1E+10	1	-1E+10	1	-1E+10	1	-1E+10	1	-1E+10	1
4902551	123	C	01/11/2024	11:17	-130.871	46.696	0	275.30	0	6.1700	0	33.9510	0	26.705	0	272.841	0	74.3	4	24.6	4	-1E+10	1	-1E+10	1	-1E+10	1	-1E+10	1	-1E+10	1	-1E+10	1
4902551	123	C	01/11/2024	11:17	-130.871	46.696	0	276.30	0	6.1600	0	33.9520	0	26.707	0	273.831	0	74.0	4	24.6	4	-1E+10	1	-1E+10	1	-1E+10	1	-1E+10	1	-1E+10	1	-1E+10	1
4902551	123	C	01/11/2024	11:17	-130.871	46.696	0	277.40	0	6.1510	0	33.9520	0	26.709	0	274.921	0	73.8	4	24.5	4	-1E+10	1	-1E+10	1	-1E+10	1	-1E+10	1	-1E+10	1	-1E+10	1
4902551	123	C	01/11/2024	11:17	-130.871	46.696	0	278.40	0	6.1390	0	33.9550	0	26.713	0	275.911	0	73.6	4	24.4	4	-1E+10	1	-1E+10	1	-1E+10	1	-1E+10	1	-1E+10	1	-1E+10	1
4902551	123	C	01/11/2024	11:17	-130.871	46.696	0	279.40	0	6.1160	0	33.9560	0	26.716	0	276.901	0	73.4	4	24.3	4	-1E+10	1	-1E+10	1	-1E+10	1	-1E+10	1	-1E+10	1	-1E+10	1
4902551	123	C	01/11/2024	11:17	-130.871	46.696	0	280.50	0	6.1010	0	33.9540	0	26.717	0	277.991	0	73.2	4	24.3	4	-1E+10	1	-1E+10	1	-1E+10	1	-1E+10	1	-1E+10	1	-1E+10	1
4902551	123	C	01/11/2024	11:17	-130.871	46.696	0	281.50	0	6.0880	0	33.9550	0	26.719	0	278.981	0	73.0	4	24.2	4	-1E+10	1	-1E+10	1	-1E+10	1	-1E+10	1	-1E+10	1	-1E+10	1
4902551	123	C	01/11/2024	11:17	-130.871	46.696	0	282.50	0	6.0860	0	33.9540	0	26.718	0	279.972	0	72.8	4	24.1	4	-1E+10	1	-1E+10	1	-1E+10	1	-1E+10	1	-1E+10	1	-1E+10	1
4902551	123	C	01/11/2024	11:17	-130.871	46.696	0	283.60	0	6.0820	0	33.9540	0	26.719	0	281.061	0	72.6	4	24.0	4	-1E+10	1	-1E+10	1	-1E+10	1	-1E+10	1	-1E+10	1	-1E+10	1
4902551	123	C	01/11/2024	11:17	-130.871	46.696	0	284.90	0	6.0680	0	33.9550	0	26.722	0	282.348	0	72.3	4	23.9	4	-1E+10	1	-1E+10	1	-1E+10	1	-1E+10	1	-1E+10	1	-1E+10	1
4902551	123	C	01/11/2024	11:17	-130.871	46.696	0	286.80	0	6.0510	0	33.9540	0	26.723	0	284.230	0	71.8	4	23.8	4	-1E+10	1	-1E+10	1	-1E+10	1	-1E+10	1	-1E+10	1	-1E+10	1
4902551	123	C	01/11/2024	11:17	-130.871	46.696	0	288.00	0	6.0400	0	33.9540	0	26.724	0	285.419	0	71.4	4	23.6	4	-1E+10	1	-1E+10	1	-1E+10	1	-1E+10	1	-1E+10	1	-1E+10	1
4902551	123	C	01/11/2024	11:17	-130.871	46.696	0	288.80	0	6.0290	0	33.9550	0	26.727	0	286.211	0	71.1	4	23.5	4	-1E+10	1	-1E+10	1	-1E+10	1	-1E+10	1	-1E+10	1	-1E+10	1
4902551	123	C	01/11/2024	11:17	-130.871	46.696	0	290.00	0	6.0010	0	33.9550	0	26.730	0	287.399	0	70.6	4	23.3	4	-1E+10	1	-1E+10	1	-1E+10	1	-1E+10	1	-1E+10	1	-1E+10	1
4902551	123	C	01/11/2024	11:17	-130.871	46.696	0	291.30	0	5.9730	0	33.9580	0	26.736	0	288.687	0	70.3	4	23.2	4	-1E+10	1	-1E+10	1	-1E+10	1	-1E+10	1	-1E+10	1	-1E+10	1
4902551	123	C	01/11/2024	11:17	-130.871	46.696	0	292.10	0	5.9720	0	33.9580	0	26.736	0	289.479	0	70.1	4	23.1	4	-1E+10	1	-1E+10	1	-1E+10	1	-1E+10	1	-1E+10	1	-1E+10	1
4902551	123	C	01/11/2024	11:17	-130.871	46.696	0	293.00	0	5.9690	0	33.9590	0	26.737	0	290.370	0	69.8	4	23.1	4	-1E+10	1	-1E+10	1	-1E+10	1	-1E+10	1	-1E+10	1	-1E+10	1
4902551	123	C	01/11/2024	11:17	-130.871	46.696	0	293.80	0	5.9670	0	33.9590	0	26.737	0	291.162	0	69.6	4	23.0	4	-1E+10	1	-1E+10	1	-1E+10	1	-1E+10	1	-1E+10	1	-1E+10	1
4902551	123	C	01/11/2024	11:17	-130.871	46.696	0	294.70	0	5.9660	0	33.9590	0	26.738	0	292.054	0	69.3	4	22.9	4	-1E+10	1	-1E+10	1	-1E+10	1	-1E+10	1	-1E+10	1	-1E+10	1
4902551	123	C	01/11/2024	11:17	-130.871	46.696	0	296.00	0	5.9650	0	33.9590	0	26.738	0	293.341	0	68.9	4	22.7	4	-1E+10	1	-1E+10	1	-1E+10	1	-1E+10	1	-1E+10	1	-1E+10	1
4902551	123	C	01/11/2024	11:17	-130.871	46.696	0	297.30	0	5.9620	0	33.9610	0	26.740	0	294.629	0	68.4	4	22.6	4	-1E+10	1	-1E+10	1	-1E+10	1	-1E+10	1	-1E+10	1	-1E+10	1
4902551	123	C	01/11/2024	11:17	-130.871	46.696	0	298.10	0	5.9590	0	33.9610	0	26.740	0	295.421	0	68.1	4	22.5	4	-1E+10	1	-1E+10	1	-1E+10	1	-1E+10	1	-1E+10	1	-1E+10	1
4902551	123	C	01/11/2024	11:17	-130.871	46.696	0	299.00	0	5.9550	0	33.9630	0	26.742	0	296.312	0	67.8	4	22.4	4	-1E+10	1	-1E+10	1	-1E+10	1	-1E+10	1	-1E+10	1	-1E+10	1
4902551	123	C	01/11/2024	11:17	-130.871	46.696	0	299.80	0	5.9530	0	33.9620	0	26.742	0	297.104	0	67.4	4	22.3	4	-1E+10	1	-1E+10	1	-1E+10	1	-1E+10	1	-1E+10	1	-1E+10	1
4902551	123	C	01/11/2024	11:17	-130.871	46.696	0	300.70	0	5.9460	0	33.9630	0	26.743	0	297.996	0	67.1	4	22.1	4	-1E+10	1	-1E+10	1	-1E+10	1	-1E+10	1	-1E+10	1	-1E+10	1
4902551	123	C	01/11/2024	11:17	-130.871	46.696	0	302.00	0	5.9450	0	33.9630	0	26.743	0	299.283	0	66.5	4	21.9	4	-1E+10	1	-1E+10	1	-1E+10	1	-1E+10	1	-1E+10	1	-1E+10	1
4902551	123	C	01/11/2024	11:17	-130.871	46.696	0	303.30	0	5.9450	0	33.9640	0	26.744	0	300.570	0	65.8	4	21.7	4	-1E+10	1	-1E+10	1	-1E+10	1	-1E+10	1	-1E+10	1	-1E+10	1
4902551	123	C	01/11/2024	11:17	-130.871	46.696	0	304.20	0	5.9450	0	33.9630	0	26.743	0	301.462	0	65.3	4	21.6	4	-1E+10	1	-1E+10	1	-1E+10	1	-1E+10	1	-1E+10	1	-1E+10	1
4902551	123	C	01/11/2024	11:17	-130.871	46.696	0	305.00	0	5.9190	0	33.9680	0	26.751	0	302.254	0	64.9	4	21.4	4	-1E+10	1	-1E+10	1	-1E+10	1	-1E+10	1	-1E+10	1	-1E+10	1
4902551	123	C	01/11/2024	11:17	-130.871	46.696	0	305.90	0	5.9110	0	33.9690	0	26.752	0	303.145	0	64.5	4	21.3	4	-1E+10	1	-1E+10	1	-1E+10	1	-1E+10	1	-1E+10	1	-1E+10	1
4902551	123	C	01/11/2024	11:17	-130.871	46.696	0	306.80	0	5.9100	0	33.9690	0	26.753	0	304.036	0	64.0	4	21.1	4	-1E+10	1	-1E+10	1	-1E+10	1	-1E+10	1	-1E+10	1	-1E+10	1
4902551	123	C	01/11/2024	11:17	-130.871	46.696	0	307.60	0	5.9080	0	33.9700	0	26.754	0	304.828	0	63.6	4	21.0	4	-1E+10	1	-1E+10	1	-1E+10	1	-1E+10	1	-1E+10	1	-1E+10	1
4902551	123	C	01/11/2024	11:17	-130.871	46.696	0	308.90	0	5.8990	0	33.9720	0	26.756	0	306.116	0	62.8	4	20.7	4	-1E+10	1	-1E+10	1	-1E+10	1	-1E+10	1	-1E+10	1	-1E+10	1
4902551	123	C	01/11/2024	11:17	-130.871	46.696	0	310.30	0	5.8890	0	33.9760	0	26.761	0	307.502	0	62.0	4	20.4	4	-1E+10	1	-1E+10	1	-1E+10	1	-1E+10	1	-1E+10	1	-1E+10	1
4902551	123	C	01/11/2024	11:17	-130.871	46.696	0	311.20	0	5.8840	0	33.9780	0	26.763	0	308.393	0	61.4	4	20.3	4	-1E+10	1	-1E+10	1	-1E+10	1	-1E+10	1	-1E+10	1	-1E+10	1
4902551	123	C	01/11/2024	11:17	-130.871	46.696	0	312.00	0	5.8820	0	33.9790	0	26.764	0	309.186	0	61.0	4	20.1	4	-1E+10	1	-1E+10	1	-1E+10	1	-1E+10	1	-1E+10	1	-1E+10	1
4902551	123	C	01/11/2024	11:17	-130.871	46.696	0	312.90	0	5.8820	0	33.9780	0	26.763	0	310.077	0	60.6	4	20.0	4	-1E+10	1	-1E+10	1	-1E+10	1	-1E+10	1	-1E+10	1	-1E+10	1
4902551	123	C	01/11/2024	11:17	-130.871	46.696	0	313.80	0	5.8590	0	33.9870	0	26.773	0	310.968	0	60.3	4	19.9	4	-1E+10	1	-1E+10	1	-1E+10	1	-1E+10	1	-1E+10	1	-1E+10	1
4902551	123	C	01/11/2024	11:17	-130.871	46.696	0	314.80	0	5.8590	0	33.9870	0	26.773	0	311.958	0	60.1	4	19.8	4	-1E+10	1	-1E+10	1	-1E+10	1	-1E+10	1	-1E+10	1	-1E+10	1
4902551	123	C	01/11/2024	11:17	-130.871	46.696	0	315.70	0	5.8580	0	33.9870	0	26.773	0	312.849	0	59.9	4	19.7	4	-1E+10	1	-1E+10	1	-1E+10	1	-1E+10	1	-1E+10	1	-1E+10	1
4902551	123	C	01/11/2024	11:17	-130.871	46.696	0	316.90	0	5.8570	0	33.9870	0	26.774	0	314.038	0	59.5	4	19.6	4	-1E+10	1	-1E+10	1	-1E+10	1	-1E+10	1	-1E+10	1	-1E+10	1
4902551	123	C	01/11/2024	11:17	-130.871	46.696	0	318.30	0	5.8580	0	33.9860	0	26.773	0	315.424	0	58.9	4	19.4	4	-1E+10	1	-1E+10	1	-1E+10	1	-1E+10	1	-1E+10	1	-1E+10	1
4902551	123	C	01/11/2024	11:17	-130.871	46.696	0	319.30	0	5.8570	0	33.9870	0	26.774	0	316.414	0	58.5	4	19.3	4	-1E+10	1	-1E+10	1	-1E+10	1	-1E+10	1	-1E+10	1	-1E+10	1
4902551	123	C	01/11/2024	11:17	-130.871	46.696	0	320.20	0	5.8440	0	33.9900	0	26.778	0	317.305	0	58.1	4	19.1	4	-1E+10	1	-1E+10	1	-1E+10	1	-1E+10	1	-1E+10	1	-1E+10	1
4902551	123	C	01/11/2024	11:17	-130.871	46.696	0	321.10	0	5.8400	0	33.9910	0	26.779	0	318.196	0	57.7	4	19.0	4	-1E+10	1	-1E+10	1	-1E+10	1	-1E+10	1	-1E+10	1	-1E+10	1
4902551	123	C	01/11/2024	11:17	-130.871	46.696	0	322.00	0	5.8300	0	33.9910	0	26.780	0	319.088	0	57.3	4	18.9	4	-1E+10	1	-1E+10	1	-1E+10	1	-1E+10	1	-1E+10	1	-1E+10	1
4902551	123	C	01/11/2024	11:17	-130.871	46.696	0	322.90	0	5.8200	0	33.9940	0	26.784	0	319.979	0	57.1	4	18.8	4	-1E+10	1	-1E+10	1	-1E+10	1	-1E+10	1	-1E+10	1	-1E+10	1
4902551	123	C	01/11/2024	11:17	-130.871	46.696	0	323.90	0	5.8130	0	33.9970	0	26.787	0	320.969	0	56.8	4	18.7	4	-1E+10	1	-1E+10	1	-1E+10	1	-1E+10	1	-1E+10	1	-1E+10	1
4902551	123	C	01/11/2024	11:17	-130.871	46.696	0	324.80	0	5.8010	0	33.9980	0	26.789	0	321.860	0	56.7	4	18.6	4	-1E+10	1	-1E+10	1	-1E+10	1	-1E+10	1	-1E+10	1	-1E+10	1
4902551	123	C	01/11/2024	11:17	-130.871	46.696	0	325.80	0	5.7960	0	33.9980	0	26.790	0	322.850	0	56.5	4	18.6	4	-1E+10	1	-1E+10	1	-1E+10	1	-1E+10	1	-1E+10	1	-1E+10	1
4902551	123	C	01/11/2024	11:17	-130.871	46.696	0	326.70	0	5.7950	0	33.9980	0	26.790	0	323.741	0	56.2	4	18.5	4	-1E+10	1	-1E+10	1	-1E+10	1	-1E+10	1	-1E+10	1	-1E+10	1
4902551	123	C	01/11/2024	11:17	-130.871	46.696	0	327.60	0	5.7940	0	33.9980	0	26.790	0	324.633	0	56.0	4	18.4	4	-1E+10	1	-1E+10	1	-1E+10	1	-1E+10	1	-1E+10	1	-1E+10	1
4902551	123	C	01/11/2024	11:17	-130.871	46.696	0	328.60	0	5.7900	0	33.9990	0	26.791	0	325.623	0	55.8	4	18.3	4	-1E+10	1	-1E+10	1	-1E+10	1	-1E+10	1	-1E+10	1	-1E+10	1
4902551	123	C	01/11/2024	11:17	-130.871	46.696	0	329.90	0	5.7850	0	34.0000	0	26.793	0	326.910	0	55.4	4	18.2	4	-1E+10	1	-1E+10	1	-1E+10	1	-1E+10	1	-1E+10	1	-1E+10	1
4902551	123	C	01/11/2024	11:17	-130.871	46.696	0	331.30	0	5.7710	0	34.0040	0	26.798	0	328.296	0	55.2	4	18.2	4	-1E+10	1	-1E+10	1	-1E+10	1	-1E+10	1	-1E+10	1	-1E+10	1
4902551	123	C	01/11/2024	11:17	-130.871	46.696	0	332.30	0	5.7700	0	34.0040	0	26.798	0	329.286	0	55.2	4	18.1	4	-1E+10	1	-1E+10	1	-1E+10	1	-1E+10	1	-1E+10	1	-1E+10	1
4902551	123	C	01/11/2024	11:17	-130.871	46.696	0	333.20	0	5.7670	0	34.0050	0	26.799	0	330.177	0	55.1	4	18.1	4	-1E+10	1	-1E+10	1	-1E+10	1	-1E+10	1	-1E+10	1	-1E+10	1
4902551	123	C	01/11/2024	11:17	-130.871	46.696	0	334.20	0	5.7640	0	34.0050	0	26.799	0	331.168	0	55.0	4	18.1	4	-1E+10	1	-1E+10	1	-1E+10	1	-1E+10	1	-1E+10	1	-1E+10	1
4902551	123	C	01/11/2024	11:17	-130.871	46.696	0	335.10	0	5.7610	0	34.0050	0	26.800	0	332.059	0	54.9	4	18.1	4	-1E+10	1	-1E+10	1	-1E+10	1	-1E+10	1	-1E+10	1	-1E+10	1
4902551	123	C	01/11/2024	11:17	-130.871	46.696	0	336.00	0	5.7480	0	34.0060	0	26.802	0	332.950	0	54.9	4	18.1	4	-1E+10	1	-1E+10	1	-1E+10	1	-1E+10	1	-1E+10	1	-1E+10	1
4902551	123	C	01/11/2024	11:17	-130.871	46.696	0	337.00	0	5.7430	0	34.0070	0	26.804	0	333.940	0	54.9	4	18.0	4	-1E+10	1	-1E+10	1	-1E+10	1	-1E+10	1	-1E+10	1	-1E+10	1
4902551	123	C	01/11/2024	11:17	-130.871	46.696	0	338.00	0	5.7440	0	34.0060	0	26.803	0	334.930	0	54.9	4	18.0	4	-1E+10	1	-1E+10	1	-1E+10	1	-1E+10	1	-1E+10	1	-1E+10	1
4902551	123	C	01/11/2024	11:17	-130.871	46.696	0	339.00	0	5.7430	0	34.0070	0	26.804	0	335.920	0	54.8	4	18.0	4	-1E+10	1	-1E+10	1	-1E+10	1	-1E+10	1	-1E+10	1	-1E+10	1
4902551	123	C	01/11/2024	11:17	-130.871	46.696	0	339.90	0	5.7430	0	34.0070	0	26.804	0	336.811	0	54.8	4	18.0	4	-1E+10	1	-1E+10	1	-1E+10	1	-1E+10	1	-1E+10	1	-1E+10	1
4902551	123	C	01/11/2024	11:17	-130.871	46.696	0	340.90	0	5.7450	0	34.0060	0	26.803	0	337.801	0	54.8	4	18.0	4	-1E+10	1	-1E+10	1	-1E+10	1	-1E+10	1	-1E+10	1	-1E+10	1
4902551	123	C	01/11/2024	11:17	-130.871	46.696	0	341.90	0	5.7440	0	34.0060	0	26.803	0	338.791	0	54.7	4	18.0	4	-1E+10	1	-1E+10	1	-1E+10	1	-1E+10	1	-1E+10	1	-1E+10	1
4902551	123	C	01/11/2024	11:17	-130.871	46.696	0	342.90	0	5.7440	0	34.0060	0	26.803	0	339.781	0	54.7	4	18.0	4	-1E+10	1	-1E+10	1	-1E+10	1	-1E+10	1	-1E+10	1	-1E+10	1
4902551	123	C	01/11/2024	11:17	-130.871	46.696	0	343.90	0	5.7440	0	34.0060	0	26.803	0	340.772	0	54.7	4	18.0	4	-1E+10	1	-1E+10	1	-1E+10	1	-1E+10	1	-1E+10	1	-1E+10	1
4902551	123	C	01/11/2024	11:17	-130.871	46.696	0	344.80	0	5.7430	0	34.0050	0	26.802	0	341.663	0	54.6	4	17.9	4	-1E+10	1	-1E+10	1	-1E+10	1	-1E+10	1	-1E+10	1	-1E+10	1
4902551	123	C	01/11/2024	11:17	-130.871	46.696	0	345.80	0	5.7380	0	34.0080	0	26.805	0	342.653	0	54.5	4	17.9	4	-1E+10	1	-1E+10	1	-1E+10	1	-1E+10	1	-1E+10	1	-1E+10	1
4902551	123	C	01/11/2024	11:17	-130.871	46.696	0	346.80	0	5.7410	0	34.0060	0	26.803	0	343.643	0	54.4	4	17.9	4	-1E+10	1	-1E+10	1	-1E+10	1	-1E+10	1	-1E+10	1	-1E+10	1
4902551	123	C	01/11/2024	11:17	-130.871	46.696	0	347.80	0	5.7320	0	34.0050	0	26.803	0	344.633	0	54.3	4	17.8	4	-1E+10	1	-1E+10	1	-1E+10	1	-1E+10	1	-1E+10	1	-1E+10	1
4902551	123	C	01/11/2024	11:17	-130.871	46.696	0	348.70	0	5.7300	0	34.0050	0	26.804	0	345.524	0	54.2	4	17.8	4	-1E+10	1	-1E+10	1	-1E+10	1	-1E+10	1	-1E+10	1	-1E+10	1
4902551	123	C	01/11/2024	11:17	-130.871	46.696	0	349.70	0	5.7270	0	34.0050	0	26.804	0	346.514	0	54.1	4	17.8	4	-1E+10	1	-1E+10	1	-1E+10	1	-1E+10	1	-1E+10	1	-1E+10	1
4902551	123	C	01/11/2024	11:17	-130.871	46.696	0	352.70	0	5.7190	0	34.0060	0	26.806	0	349.484	0	53.7	4	17.6	4	-1E+10	1	-1E+10	1	-1E+10	1	-1E+10	1	-1E+10	1	-1E+10	1
4902551	123	C	01/11/2024	11:17	-130.871	46.696	0	357.60	0	5.7130	0	34.0080	0	26.808	0	354.335	0	53.1	4	17.4	4	-1E+10	1	-1E+10	1	-1E+10	1	-1E+10	1	-1E+10	1	-1E+10	1
4902551	123	C	01/11/2024	11:17	-130.871	46.696	0	362.60	0	5.7000	0	34.0090	0	26.811	0	359.285	0	52.3	4	17.2	4	-1E+10	1	-1E+10	1	-1E+10	1	-1E+10	1	-1E+10	1	-1E+10	1
4902551	123	C	01/11/2024	11:17	-130.871	46.696	0	367.50	0	5.6650	0	34.0100	0	26.816	0	364.136	0	51.6	4	16.9	4	-1E+10	1	-1E+10	1	-1E+10	1	-1E+10	1	-1E+10	1	-1E+10	1
4902551	123	C	01/11/2024	11:17	-130.871	46.696	0	372.50	0	5.6260	0	34.0140	0	26.824	0	369.086	0	50.9	4	16.7	4	-1E+10	1	-1E+10	1	-1E+10	1	-1E+10	1	-1E+10	1	-1E+10	1
4902551	123	C	01/11/2024	11:17	-130.871	46.696	0	377.50	0	5.5940	0	34.0150	0	26.828	0	374.036	0	50.9	4	16.7	4	-1E+10	1	-1E+10	1	-1E+10	1	-1E+10	1	-1E+10	1	-1E+10	1
4902551	123	C	01/11/2024	11:17	-130.871	46.696	0	382.60	0	5.5230	0	34.0120	0	26.835	0	379.084	0	50.9	4	16.6	4	-1E+10	1	-1E+10	1	-1E+10	1	-1E+10	1	-1E+10	1	-1E+10	1
4902551	123	C	01/11/2024	11:17	-130.871	46.696	0	387.70	0	5.4830	0	34.0110	0	26.839	0	384.133	0	50.8	4	16.6	4	-1E+10	1	-1E+10	1	-1E+10	1	-1E+10	1	-1E+10	1	-1E+10	1
4902551	123	C	01/11/2024	11:17	-130.871	46.696	0	392.80	0	5.4610	0	34.0070	0	26.838	0	389.181	0	50.7	4	16.5	4	-1E+10	1	-1E+10	1	-1E+10	1	-1E+10	1	-1E+10	1	-1E+10	1
4902551	123	C	01/11/2024	11:17	-130.871	46.696	0	397.80	0	5.3330	0	34.0000	0	26.848	0	394.130	0	49.5	4	16.1	4	-1E+10	1	-1E+10	1	-1E+10	1	-1E+10	1	-1E+10	1	-1E+10	1
4902551	123	C	01/11/2024	11:17	-130.871	46.696	0	402.90	0	5.3900	0	34.0170	0	26.855	0	399.178	0	48.1	4	15.7	4	-1E+10	1	-1E+10	1	-1E+10	1	-1E+10	1	-1E+10	1	-1E+10	1
4902551	123	C	01/11/2024	11:17	-130.871	46.696	0	407.80	0	5.3750	0	34.0200	0	26.859	0	404.028	0	48.4	4	15.8	4	-1E+10	1	-1E+10	1	-1E+10	1	-1E+10	1	-1E+10	1	-1E+10	1
4902551	123	C	01/11/2024	11:17	-130.871	46.696	0	412.70	0	5.3120	0	34.0160	0	26.863	0	408.878	0	49.3	4	16.0	4	-1E+10	1	-1E+10	1	-1E+10	1	-1E+10	1	-1E+10	1	-1E+10	1
4902551	123	C	01/11/2024	11:17	-130.871	46.696	0	417.60	0	5.1330	0	33.9990	0	26.870	0	413.728	0	49.2	4	15.9	4	-1E+10	1	-1E+10	1	-1E+10	1	-1E+10	1	-1E+10	1	-1E+10	1
4902551	123	C	01/11/2024	11:17	-130.871	46.696	0	422.50	0	5.0580	0	33.9970	0	26.877	0	418.577	0	46.9	4	15.2	4	-1E+10	1	-1E+10	1	-1E+10	1	-1E+10	1	-1E+10	1	-1E+10	1
4902551	123	C	01/11/2024	11:17	-130.871	46.696	0	427.50	0	5.0680	0	34.0120	0	26.888	0	423.526	0	44.9	4	14.5	4	-1E+10	1	-1E+10	1	-1E+10	1	-1E+10	1	-1E+10	1	-1E+10	1
4902551	123	C	01/11/2024	11:17	-130.871	46.696	0	432.90	0	5.0400	0	34.0170	0	26.895	0	428.870	0	43.2	4	14.0	4	-1E+10	1	-1E+10	1	-1E+10	1	-1E+10	1	-1E+10	1	-1E+10	1
4902551	123	C	01/11/2024	11:17	-130.871	46.696	0	438.40	0	4.9670	0	34.0210	0	26.907	0	434.313	0	40.7	4	13.1	4	-1E+10	1	-1E+10	1	-1E+10	1	-1E+10	1	-1E+10	1	-1E+10	1
4902551	123	C	01/11/2024	11:17	-130.871	46.696	0	442.90	0	4.9650	0	34.0340	0	26.917	0	438.766	0	38.8	4	12.5	4	-1E+10	1	-1E+10	1	-1E+10	1	-1E+10	1	-1E+10	1	-1E+10	1
4902551	123	C	01/11/2024	11:17	-130.871	46.696	0	447.50	0	4.9730	0	34.0410	0	26.922	0	443.318	0	36.7	4	11.8	4	-1E+10	1	-1E+10	1	-1E+10	1	-1E+10	1	-1E+10	1	-1E+10	1
4902551	123	C	01/11/2024	11:17	-130.871	46.696	0	452.60	0	5.0520	0	34.0600	0	26.928	0	448.365	0	34.8	4	11.3	4	-1E+10	1	-1E+10	1	-1E+10	1	-1E+10	1	-1E+10	1	-1E+10	1
4902551	123	C	01/11/2024	11:17	-130.871	46.696	0	457.80	0	5.0500	0	34.0670	0	26.934	0	453.511	0	34.2	4	11.1	4	-1E+10	1	-1E+10	1	-1E+10	1	-1E+10	1	-1E+10	1	-1E+10	1
4902551	123	C	01/11/2024	11:17	-130.871	46.696	0	463.10	0	5.0450	0	34.0680	0	26.936	0	458.755	0	33.8	4	10.9	4	-1E+10	1	-1E+10	1	-1E+10	1	-1E+10	1	-1E+10	1	-1E+10	1
4902551	123	C	01/11/2024	11:17	-130.871	46.696	0	467.90	0	5.0360	0	34.0690	0	26.937	0	463.505	0	33.3	4	10.8	4	-1E+10	1	-1E+10	1	-1E+10	1	-1E+10	1	-1E+10	1	-1E+10	1
4902551	123	C	01/11/2024	11:17	-130.871	46.696	0	472.70	0	5.0150	0	34.0690	0	26.940	0	468.255	0	32.5	4	10.5	4	-1E+10	1	-1E+10	1	-1E+10	1	-1E+10	1	-1E+10	1	-1E+10	1
4902551	123	C	01/11/2024	11:17	-130.871	46.696	0	478.00	0	4.9860	0	34.0750	0	26.948	0	473.499	0	31.4	4	10.1	4	-1E+10	1	-1E+10	1	-1E+10	1	-1E+10	1	-1E+10	1	-1E+10	1
4902551	123	C	01/11/2024	11:17	-130.871	46.696	0	483.30	0	4.9560	0	34.0790	0	26.955	0	478.743	0	30.7	4	9.9	4	-1E+10	1	-1E+10	1	-1E+10	1	-1E+10	1	-1E+10	1	-1E+10	1
4902551	123	C	01/11/2024	11:17	-130.871	46.696	0	488.00	0	4.9310	0	34.0810	0	26.959	0	483.393	0	30.0	4	9.7	4	-1E+10	1	-1E+10	1	-1E+10	1	-1E+10	1	-1E+10	1	-1E+10	1
4902551	123	C	01/11/2024	11:17	-130.871	46.696	0	492.70	0	4.8750	0	34.0880	0	26.971	0	488.043	0	29.4	4	9.5	4	-1E+10	1	-1E+10	1	-1E+10	1	-1E+10	1	-1E+10	1	-1E+10	1
4902551	123	C	01/11/2024	11:17	-130.871	46.696	0	498.10	0	4.8350	0	34.0900	0	26.977	0	493.385	0	28.8	4	9.3	4	-1E+10	1	-1E+10	1	-1E+10	1	-1E+10	1	-1E+10	1	-1E+10	1
4902551	123	C	01/11/2024	11:17	-130.871	46.696	0	503.00	0	4.8250	0	34.0910	0	26.979	0	498.233	0	28.1	4	9.1	4	-1E+10	1	-1E+10	1	-1E+10	1	-1E+10	1	-1E+10	1	-1E+10	1
4902551	123	C	01/11/2024	11:17	-130.871	46.696	0	507.80	0	4.8090	0	34.0940	0	26.983	0	502.982	0	27.2	4	8.7	4	-1E+10	1	-1E+10	1	-1E+10	1	-1E+10	1	-1E+10	1	-1E+10	1
4902551	123	C	01/11/2024	11:17	-130.871	46.696	0	512.70	0	4.7610	0	34.1000	0	26.993	0	507.829	0	25.9	4	8.3	4	-1E+10	1	-1E+10	1	-1E+10	1	-1E+10	1	-1E+10	1	-1E+10	1
4902551	123	C	01/11/2024	11:17	-130.871	46.696	0	518.00	0	4.7380	0	34.1060	0	27.001	0	513.073	0	25.0	4	8.0	4	-1E+10	1	-1E+10	1	-1E+10	1	-1E+10	1	-1E+10	1	-1E+10	1
4902551	123	C	01/11/2024	11:17	-130.871	46.696	0	523.20	0	4.7180	0	34.1120	0	27.008	0	518.217	0	24.0	4	7.7	4	-1E+10	1	-1E+10	1	-1E+10	1	-1E+10	1	-1E+10	1	-1E+10	1
4902551	123	C	01/11/2024	11:17	-130.871	46.696	0	528.30	0	4.7190	0	34.1190	0	27.013	0	523.262	0	23.1	4	7.4	4	-1E+10	1	-1E+10	1	-1E+10	1	-1E+10	1	-1E+10	1	-1E+10	1
4902551	123	C	01/11/2024	11:17	-130.871	46.696	0	532.90	0	4.7000	0	34.1230	0	27.018	0	527.812	0	22.4	4	7.2	4	-1E+10	1	-1E+10	1	-1E+10	1	-1E+10	1	-1E+10	1	-1E+10	1
4902551	123	C	01/11/2024	11:17	-130.871	46.696	0	537.60	0	4.6940	0	34.1270	0	27.022	0	532.461	0	21.6	4	6.9	4	-1E+10	1	-1E+10	1	-1E+10	1	-1E+10	1	-1E+10	1	-1E+10	1
4902551	123	C	01/11/2024	11:17	-130.871	46.696	0	542.80	0	4.6740	0	34.1340	0	27.030	0	537.605	0	20.8	4	6.7	4	-1E+10	1	-1E+10	1	-1E+10	1	-1E+10	1	-1E+10	1	-1E+10	1
4902551	123	C	01/11/2024	11:17	-130.871	46.696	0	548.00	0	4.6120	0	34.1380	0	27.040	0	542.748	0	20.6	4	6.6	4	-1E+10	1	-1E+10	1	-1E+10	1	-1E+10	1	-1E+10	1	-1E+10	1
4902551	123	C	01/11/2024	11:17	-130.871	46.696	0	552.90	0	4.5580	0	34.1400	0	27.048	0	547.595	0	20.7	4	6.6	4	-1E+10	1	-1E+10	1	-1E+10	1	-1E+10	1	-1E+10	1	-1E+10	1
4902551	123	C	01/11/2024	11:17	-130.871	46.696	0	557.90	0	4.4330	0	34.1310	0	27.054	0	552.540	0	20.4	4	6.5	4	-1E+10	1	-1E+10	1	-1E+10	1	-1E+10	1	-1E+10	1	-1E+10	1
4902551	123	C	01/11/2024	11:17	-130.871	46.696	0	562.90	0	4.4540	0	34.1410	0	27.060	0	557.485	0	19.8	4	6.3	4	-1E+10	1	-1E+10	1	-1E+10	1	-1E+10	1	-1E+10	1	-1E+10	1
4902551	123	C	01/11/2024	11:17	-130.871	46.696	0	567.70	0	4.4630	0	34.1440	0	27.061	0	562.233	0	19.4	4	6.2	4	-1E+10	1	-1E+10	1	-1E+10	1	-1E+10	1	-1E+10	1	-1E+10	1
4902551	123	C	01/11/2024	11:17	-130.871	46.696	0	572.90	0	4.3940	0	34.1430	0	27.068	0	567.376	0	19.0	4	6.1	4	-1E+10	1	-1E+10	1	-1E+10	1	-1E+10	1	-1E+10	1	-1E+10	1
4902551	123	C	01/11/2024	11:17	-130.871	46.696	0	578.10	0	4.3710	0	34.1450	0	27.072	0	572.518	0	18.3	4	5.8	4	-1E+10	1	-1E+10	1	-1E+10	1	-1E+10	1	-1E+10	1	-1E+10	1
4902551	123	C	01/11/2024	11:17	-130.871	46.696	0	582.90	0	4.3110	0	34.1500	0	27.082	0	577.265	0	17.6	4	5.6	4	-1E+10	1	-1E+10	1	-1E+10	1	-1E+10	1	-1E+10	1	-1E+10	1
4902551	123	C	01/11/2024	11:17	-130.871	46.696	0	587.70	0	4.2660	0	34.1560	0	27.092	0	582.012	0	16.7	4	5.3	4	-1E+10	1	-1E+10	1	-1E+10	1	-1E+10	1	-1E+10	1	-1E+10	1
4902551	123	C	01/11/2024	11:17	-130.871	46.696	0	592.90	0	4.2330	0	34.1680	0	27.105	0	587.154	0	15.8	4	5.0	4	-1E+10	1	-1E+10	1	-1E+10	1	-1E+10	1	-1E+10	1	-1E+10	1
4902551	123	C	01/11/2024	11:17	-130.871	46.696	0	598.10	0	4.1980	0	34.1780	0	27.116	0	592.297	0	15.4	4	4.9	4	-1E+10	1	-1E+10	1	-1E+10	1	-1E+10	1	-1E+10	1	-1E+10	1
4902551	123	C	01/11/2024	11:17	-130.871	46.696	0	602.90	0	4.1760	0	34.1830	0	27.123	0	597.043	0	15.1	4	4.8	4	-1E+10	1	-1E+10	1	-1E+10	1	-1E+10	1	-1E+10	1	-1E+10	1
4902551	123	C	01/11/2024	11:17	-130.871	46.696	0	607.60	0	4.1650	0	34.1850	0	27.125	0	601.691	0	14.8	4	4.7	4	-1E+10	1	-1E+10	1	-1E+10	1	-1E+10	1	-1E+10	1	-1E+10	1
4902551	123	C	01/11/2024	11:17	-130.871	46.696	0	612.80	0	4.1520	0	34.1880	0	27.129	0	606.833	0	14.5	4	4.6	4	-1E+10	1	-1E+10	1	-1E+10	1	-1E+10	1	-1E+10	1	-1E+10	1
4902551	123	C	01/11/2024	11:17	-130.871	46.696	0	618.10	0	4.1310	0	34.1920	0	27.135	0	612.073	0	14.1	4	4.5	4	-1E+10	1	-1E+10	1	-1E+10	1	-1E+10	1	-1E+10	1	-1E+10	1
4902551	123	C	01/11/2024	11:17	-130.871	46.696	0	623.00	0	4.1170	0	34.1960	0	27.139	0	616.918	0	13.7	4	4.3	4	-1E+10	1	-1E+10	1	-1E+10	1	-1E+10	1	-1E+10	1	-1E+10	1
4902551	123	C	01/11/2024	11:17	-130.871	46.696	0	628.00	0	4.1010	0	34.2060	0	27.149	0	621.862	0	13.1	4	4.2	4	-1E+10	1	-1E+10	1	-1E+10	1	-1E+10	1	-1E+10	1	-1E+10	1
4902551	123	C	01/11/2024	11:17	-130.871	46.696	0	633.00	0	4.0950	0	34.2120	0	27.154	0	626.805	0	12.8	4	4.1	4	-1E+10	1	-1E+10	1	-1E+10	1	-1E+10	1	-1E+10	1	-1E+10	1
4902551	123	C	01/11/2024	11:17	-130.871	46.696	0	637.80	0	4.0990	0	34.2160	0	27.157	0	631.551	0	12.5	4	4.0	4	-1E+10	1	-1E+10	1	-1E+10	1	-1E+10	1	-1E+10	1	-1E+10	1
4902551	123	C	01/11/2024	11:17	-130.871	46.696	0	642.60	0	4.1060	0	34.2210	0	27.160	0	636.297	0	12.2	4	3.9	4	-1E+10	1	-1E+10	1	-1E+10	1	-1E+10	1	-1E+10	1	-1E+10	1
4902551	123	C	01/11/2024	11:17	-130.871	46.696	0	647.50	0	4.1100	0	34.2240	0	27.162	0	641.141	0	12.0	4	3.8	4	-1E+10	1	-1E+10	1	-1E+10	1	-1E+10	1	-1E+10	1	-1E+10	1
4902551	123	C	01/11/2024	11:17	-130.871	46.696	0	652.50	0	4.1010	0	34.2260	0	27.165	0	646.084	0	11.8	4	3.7	4	-1E+10	1	-1E+10	1	-1E+10	1	-1E+10	1	-1E+10	1	-1E+10	1
4902551	123	C	01/11/2024	11:17	-130.871	46.696	0	657.60	0	4.0990	0	34.2320	0	27.170	0	651.126	0	11.4	4	3.6	4	-1E+10	1	-1E+10	1	-1E+10	1	-1E+10	1	-1E+10	1	-1E+10	1
4902551	123	C	01/11/2024	11:17	-130.871	46.696	0	662.80	0	4.0920	0	34.2400	0	27.177	0	656.267	0	11.2	4	3.5	4	-1E+10	1	-1E+10	1	-1E+10	1	-1E+10	1	-1E+10	1	-1E+10	1
4902551	123	C	01/11/2024	11:17	-130.871	46.696	0	668.10	0	4.0860	0	34.2420	0	27.179	0	661.506	0	11.1	4	3.5	4	-1E+10	1	-1E+10	1	-1E+10	1	-1E+10	1	-1E+10	1	-1E+10	1
4902551	123	C	01/11/2024	11:17	-130.871	46.696	0	672.90	0	4.0800	0	34.2450	0	27.182	0	666.251	0	10.9	4	3.4	4	-1E+10	1	-1E+10	1	-1E+10	1	-1E+10	1	-1E+10	1	-1E+10	1
4902551	123	C	01/11/2024	11:17	-130.871	46.696	0	677.80	0	4.0610	0	34.2490	0	27.188	0	671.095	0	10.7	4	3.4	4	-1E+10	1	-1E+10	1	-1E+10	1	-1E+10	1	-1E+10	1	-1E+10	1
4902551	123	C	01/11/2024	11:17	-130.871	46.696	0	682.80	0	4.0390	0	34.2530	0	27.193	0	676.037	0	10.6	4	3.4	4	-1E+10	1	-1E+10	1	-1E+10	1	-1E+10	1	-1E+10	1	-1E+10	1
4902551	123	C	01/11/2024	11:17	-130.871	46.696	0	687.70	0	4.0230	0	34.2570	0	27.198	0	680.881	0	10.5	4	3.3	4	-1E+10	1	-1E+10	1	-1E+10	1	-1E+10	1	-1E+10	1	-1E+10	1
4902551	123	C	01/11/2024	11:17	-130.871	46.696	0	692.60	0	4.0160	0	34.2590	0	27.200	0	685.724	0	10.4	4	3.3	4	-1E+10	1	-1E+10	1	-1E+10	1	-1E+10	1	-1E+10	1	-1E+10	1
4902551	123	C	01/11/2024	11:17	-130.871	46.696	0	697.70	0	4.0110	0	34.2610	0	27.202	0	690.765	0	10.3	4	3.2	4	-1E+10	1	-1E+10	1	-1E+10	1	-1E+10	1	-1E+10	1	-1E+10	1
4902551	123	C	01/11/2024	11:17	-130.871	46.696	0	702.70	0	4.0040	0	34.2650	0	27.206	0	695.707	0	10.2	4	3.2	4	-1E+10	1	-1E+10	1	-1E+10	1	-1E+10	1	-1E+10	1	-1E+10	1
4902551	123	C	01/11/2024	11:17	-130.871	46.696	0	707.70	0	4.0040	0	34.2680	0	27.209	0	700.649	0	10.1	4	3.2	4	-1E+10	1	-1E+10	1	-1E+10	1	-1E+10	1	-1E+10	1	-1E+10	1
4902551	123	C	01/11/2024	11:17	-130.871	46.696	0	712.70	0	4.0120	0	34.2720	0	27.211	0	705.591	0	9.9	4	3.1	4	-1E+10	1	-1E+10	1	-1E+10	1	-1E+10	1	-1E+10	1	-1E+10	1
4902551	123	C	01/11/2024	11:17	-130.871	46.696	0	717.90	0	4.0010	0	34.2780	0	27.217	0	710.730	0	9.8	4	3.1	4	-1E+10	1	-1E+10	1	-1E+10	1	-1E+10	1	-1E+10	1	-1E+10	1
4902551	123	C	01/11/2024	11:17	-130.871	46.696	0	723.20	0	3.9840	0	34.2810	0	27.221	0	715.968	0	9.7	4	3.1	4	-1E+10	1	-1E+10	1	-1E+10	1	-1E+10	1	-1E+10	1	-1E+10	1
4902551	123	C	01/11/2024	11:17	-130.871	46.696	0	727.90	0	3.9740	0	34.2830	0	27.224	0	720.613	0	9.7	4	3.1	4	-1E+10	1	-1E+10	1	-1E+10	1	-1E+10	1	-1E+10	1	-1E+10	1
4902551	123	C	01/11/2024	11:17	-130.871	46.696	0	732.70	0	3.9730	0	34.2830	0	27.224	0	725.356	0	9.6	4	3.0	4	-1E+10	1	-1E+10	1	-1E+10	1	-1E+10	1	-1E+10	1	-1E+10	1
4902551	123	C	01/11/2024	11:17	-130.871	46.696	0	737.50	0	3.9630	0	34.2850	0	27.227	0	730.100	0	9.5	4	3.0	4	-1E+10	1	-1E+10	1	-1E+10	1	-1E+10	1	-1E+10	1	-1E+10	1
4902551	123	C	01/11/2024	11:17	-130.871	46.696	0	742.50	0	3.9540	0	34.2880	0	27.230	0	735.041	0	9.4	4	3.0	4	-1E+10	1	-1E+10	1	-1E+10	1	-1E+10	1	-1E+10	1	-1E+10	1
4902551	123	C	01/11/2024	11:17	-130.871	46.696	0	747.50	0	3.9520	0	34.2890	0	27.231	0	739.982	0	9.3	4	3.0	4	-1E+10	1	-1E+10	1	-1E+10	1	-1E+10	1	-1E+10	1	-1E+10	1
4902551	123	C	01/11/2024	11:17	-130.871	46.696	0	752.40	0	3.9510	0	34.2900	0	27.232	0	744.824	0	9.3	4	2.9	4	-1E+10	1	-1E+10	1	-1E+10	1	-1E+10	1	-1E+10	1	-1E+10	1
4902551	123	C	01/11/2024	11:17	-130.871	46.696	0	757.90	0	3.9430	0	34.2960	0	27.238	0	750.259	0	9.2	4	2.9	4	-1E+10	1	-1E+10	1	-1E+10	1	-1E+10	1	-1E+10	1	-1E+10	1
4902551	123	C	01/11/2024	11:17	-130.871	46.696	0	763.50	0	3.9270	0	34.3000	0	27.243	0	755.792	0	9.2	4	2.9	4	-1E+10	1	-1E+10	1	-1E+10	1	-1E+10	1	-1E+10	1	-1E+10	1
4902551	123	C	01/11/2024	11:17	-130.871	46.696	0	767.90	0	3.9250	0	34.3010	0	27.244	0	760.140	0	9.2	4	2.9	4	-1E+10	1	-1E+10	1	-1E+10	1	-1E+10	1	-1E+10	1	-1E+10	1
4902551	123	C	01/11/2024	11:17	-130.871	46.696	0	772.40	0	3.9240	0	34.3010	0	27.244	0	764.586	0	9.2	4	2.9	4	-1E+10	1	-1E+10	1	-1E+10	1	-1E+10	1	-1E+10	1	-1E+10	1
4902551	123	C	01/11/2024	11:17	-130.871	46.696	0	777.50	0	3.9180	0	34.3020	0	27.245	0	769.625	0	9.2	4	2.9	4	-1E+10	1	-1E+10	1	-1E+10	1	-1E+10	1	-1E+10	1	-1E+10	1
4902551	123	C	01/11/2024	11:17	-130.871	46.696	0	782.60	0	3.9150	0	34.3020	0	27.246	0	774.664	0	9.3	4	2.9	4	-1E+10	1	-1E+10	1	-1E+10	1	-1E+10	1	-1E+10	1	-1E+10	1
4902551	123	C	01/11/2024	11:17	-130.871	46.696	0	787.80	0	3.9090	0	34.3040	0	27.248	0	779.801	0	9.3	4	2.9	4	-1E+10	1	-1E+10	1	-1E+10	1	-1E+10	1	-1E+10	1	-1E+10	1
4902551	123	C	01/11/2024	11:17	-130.871	46.696	0	792.90	0	3.8970	0	34.3060	0	27.251	0	784.840	0	9.3	4	2.9	4	-1E+10	1	-1E+10	1	-1E+10	1	-1E+10	1	-1E+10	1	-1E+10	1
4902551	123	C	01/11/2024	11:17	-130.871	46.696	0	798.10	0	3.8690	0	34.3100	0	27.257	0	789.977	0	9.3	4	2.9	4	-1E+10	1	-1E+10	1	-1E+10	1	-1E+10	1	-1E+10	1	-1E+10	1
4902551	123	C	01/11/2024	11:17	-130.871	46.696	0	803.30	0	3.8510	0	34.3130	0	27.261	0	795.114	0	9.3	4	2.9	4	-1E+10	1	-1E+10	1	-1E+10	1	-1E+10	1	-1E+10	1	-1E+10	1
4902551	123	C	01/11/2024	11:17	-130.871	46.696	0	807.90	0	3.8370	0	34.3160	0	27.265	0	799.659	0	9.3	4	2.9	4	-1E+10	1	-1E+10	1	-1E+10	1	-1E+10	1	-1E+10	1	-1E+10	1
4902551	123	C	01/11/2024	11:17	-130.871	46.696	0	812.60	0	3.8320	0	34.3160	0	27.265	0	804.302	0	9.3	4	2.9	4	-1E+10	1	-1E+10	1	-1E+10	1	-1E+10	1	-1E+10	1	-1E+10	1
4902551	123	C	01/11/2024	11:17	-130.871	46.696	0	818.00	0	3.8200	0	34.3190	0	27.269	0	809.636	0	9.3	4	2.9	4	-1E+10	1	-1E+10	1	-1E+10	1	-1E+10	1	-1E+10	1	-1E+10	1
4902551	123	C	01/11/2024	11:17	-130.871	46.696	0	823.40	0	3.8090	0	34.3210	0	27.272	0	814.970	0	9.3	4	2.9	4	-1E+10	1	-1E+10	1	-1E+10	1	-1E+10	1	-1E+10	1	-1E+10	1
4902551	123	C	01/11/2024	11:17	-130.871	46.696	0	828.00	0	3.8010	0	34.3220	0	27.273	0	819.514	0	9.3	4	2.9	4	-1E+10	1	-1E+10	1	-1E+10	1	-1E+10	1	-1E+10	1	-1E+10	1
4902551	123	C	01/11/2024	11:17	-130.871	46.696	0	832.60	0	3.7950	0	34.3230	0	27.275	0	824.058	0	9.3	4	2.9	4	-1E+10	1	-1E+10	1	-1E+10	1	-1E+10	1	-1E+10	1	-1E+10	1
4902551	123	C	01/11/2024	11:17	-130.871	46.696	0	838.00	0	3.7660	0	34.3250	0	27.279	0	829.392	0	9.4	4	2.9	4	-1E+10	1	-1E+10	1	-1E+10	1	-1E+10	1	-1E+10	1	-1E+10	1
4902551	123	C	01/11/2024	11:17	-130.871	46.696	0	842.80	0	3.7490	0	34.3280	0	27.283	0	834.133	0	9.4	4	3.0	4	-1E+10	1	-1E+10	1	-1E+10	1	-1E+10	1	-1E+10	1	-1E+10	1
4902551	123	C	01/11/2024	11:17	-130.871	46.696	0	847.60	0	3.7400	0	34.3290	0	27.285	0	838.874	0	9.5	4	3.0	4	-1E+10	1	-1E+10	1	-1E+10	1	-1E+10	1	-1E+10	1	-1E+10	1
4902551	123	C	01/11/2024	11:17	-130.871	46.696	0	853.00	0	3.7310	0	34.3300	0	27.287	0	844.208	0	9.5	4	3.0	4	-1E+10	1	-1E+10	1	-1E+10	1	-1E+10	1	-1E+10	1	-1E+10	1
4902551	123	C	01/11/2024	11:17	-130.871	46.696	0	857.80	0	3.7230	0	34.3320	0	27.289	0	848.948	0	9.5	4	3.0	4	-1E+10	1	-1E+10	1	-1E+10	1	-1E+10	1	-1E+10	1	-1E+10	1
4902551	123	C	01/11/2024	11:17	-130.871	46.696	0	862.60	0	3.7180	0	34.3320	0	27.290	0	853.689	0	9.5	4	3.0	4	-1E+10	1	-1E+10	1	-1E+10	1	-1E+10	1	-1E+10	1	-1E+10	1
4902551	123	C	01/11/2024	11:17	-130.871	46.696	0	868.20	0	3.7090	0	34.3340	0	27.292	0	859.220	0	9.6	4	3.0	4	-1E+10	1	-1E+10	1	-1E+10	1	-1E+10	1	-1E+10	1	-1E+10	1
4902551	123	C	01/11/2024	11:17	-130.871	46.696	0	873.10	0	3.6940	0	34.3360	0	27.295	0	864.059	0	9.6	4	3.0	4	-1E+10	1	-1E+10	1	-1E+10	1	-1E+10	1	-1E+10	1	-1E+10	1
4902551	123	C	01/11/2024	11:17	-130.871	46.696	0	878.10	0	3.6870	0	34.3370	0	27.297	0	868.997	0	9.6	4	3.0	4	-1E+10	1	-1E+10	1	-1E+10	1	-1E+10	1	-1E+10	1	-1E+10	1
4902551	123	C	01/11/2024	11:17	-130.871	46.696	0	883.10	0	3.6670	0	34.3420	0	27.303	0	873.934	0	9.7	4	3.0	4	-1E+10	1	-1E+10	1	-1E+10	1	-1E+10	1	-1E+10	1	-1E+10	1
4902551	123	C	01/11/2024	11:17	-130.871	46.696	0	887.80	0	3.6630	0	34.3420	0	27.303	0	878.576	0	9.7	4	3.0	4	-1E+10	1	-1E+10	1	-1E+10	1	-1E+10	1	-1E+10	1	-1E+10	1
4902551	123	C	01/11/2024	11:17	-130.871	46.696	0	893.20	0	3.6510	0	34.3430	0	27.305	0	883.908	0	9.8	4	3.1	4	-1E+10	1	-1E+10	1	-1E+10	1	-1E+10	1	-1E+10	1	-1E+10	1
4902551	123	C	01/11/2024	11:17	-130.871	46.696	0	897.80	0	3.6250	0	34.3490	0	27.313	0	888.451	0	9.8	4	3.1	4	-1E+10	1	-1E+10	1	-1E+10	1	-1E+10	1	-1E+10	1	-1E+10	1
4902551	123	C	01/11/2024	11:17	-130.871	46.696	0	902.50	0	3.6160	0	34.3510	0	27.315	0	893.092	0	9.8	4	3.1	4	-1E+10	1	-1E+10	1	-1E+10	1	-1E+10	1	-1E+10	1	-1E+10	1
4902551	123	C	01/11/2024	11:17	-130.871	46.696	0	908.00	0	3.6120	0	34.3500	0	27.315	0	898.523	0	9.8	4	3.1	4	-1E+10	1	-1E+10	1	-1E+10	1	-1E+10	1	-1E+10	1	-1E+10	1
4902551	123	C	01/11/2024	11:17	-130.871	46.696	0	912.80	0	3.6070	0	34.3520	0	27.317	0	903.262	0	9.8	4	3.1	4	-1E+10	1	-1E+10	1	-1E+10	1	-1E+10	1	-1E+10	1	-1E+10	1
4902551	123	C	01/11/2024	11:17	-130.871	46.696	0	917.80	0	3.6050	0	34.3520	0	27.317	0	908.199	0	9.8	4	3.1	4	-1E+10	1	-1E+10	1	-1E+10	1	-1E+10	1	-1E+10	1	-1E+10	1
4902551	123	C	01/11/2024	11:17	-130.871	46.696	0	923.10	0	3.6040	0	34.3530	0	27.318	0	913.432	0	9.9	4	3.1	4	-1E+10	1	-1E+10	1	-1E+10	1	-1E+10	1	-1E+10	1	-1E+10	1
4902551	123	C	01/11/2024	11:17	-130.871	46.696	0	928.20	0	3.6030	0	34.3530	0	27.318	0	918.467	0	9.9	4	3.1	4	-1E+10	1	-1E+10	1	-1E+10	1	-1E+10	1	-1E+10	1	-1E+10	1
4902551	123	C	01/11/2024	11:17	-130.871	46.696	0	933.10	0	3.5910	0	34.3550	0	27.321	0	923.305	0	9.9	4	3.1	4	-1E+10	1	-1E+10	1	-1E+10	1	-1E+10	1	-1E+10	1	-1E+10	1
4902551	123	C	01/11/2024	11:17	-130.871	46.696	0	937.90	0	3.5830	0	34.3560	0	27.323	0	928.044	0	9.9	4	3.1	4	-1E+10	1	-1E+10	1	-1E+10	1	-1E+10	1	-1E+10	1	-1E+10	1
4902551	123	C	01/11/2024	11:17	-130.871	46.696	0	942.80	0	3.5700	0	34.3570	0	27.325	0	932.882	0	9.9	4	3.1	4	-1E+10	1	-1E+10	1	-1E+10	1	-1E+10	1	-1E+10	1	-1E+10	1
4902551	123	C	01/11/2024	11:17	-130.871	46.696	0	947.70	0	3.5650	0	34.3590	0	27.327	0	937.719	0	10.0	4	3.1	4	-1E+10	1	-1E+10	1	-1E+10	1	-1E+10	1	-1E+10	1	-1E+10	1
4902551	123	C	01/11/2024	11:17	-130.871	46.696	0	953.30	0	3.5480	0	34.3620	0	27.331	0	943.248	0	10.0	4	3.1	4	-1E+10	1	-1E+10	1	-1E+10	1	-1E+10	1	-1E+10	1	-1E+10	1
4902551	123	C	01/11/2024	11:17	-130.871	46.696	0	958.20	0	3.5410	0	34.3620	0	27.331	0	948.085	0	10.0	4	3.1	4	-1E+10	1	-1E+10	1	-1E+10	1	-1E+10	1	-1E+10	1	-1E+10	1
4902551	123	C	01/11/2024	11:17	-130.871	46.696	0	963.00	0	3.5350	0	34.3640	0	27.334	0	952.823	0	10.1	4	3.1	4	-1E+10	1	-1E+10	1	-1E+10	1	-1E+10	1	-1E+10	1	-1E+10	1
4902551	123	C	01/11/2024	11:17	-130.871	46.696	0	967.80	0	3.5240	0	34.3670	0	27.337	0	957.562	0	10.1	4	3.2	4	-1E+10	1	-1E+10	1	-1E+10	1	-1E+10	1	-1E+10	1	-1E+10	1
4902551	123	C	01/11/2024	11:17	-130.871	46.696	0	972.70	0	3.5170	0	34.3680	0	27.339	0	962.399	0	10.2	4	3.2	4	-1E+10	1	-1E+10	1	-1E+10	1	-1E+10	1	-1E+10	1	-1E+10	1
4902551	123	C	01/11/2024	11:17	-130.871	46.696	0	978.20	0	3.5090	0	34.3690	0	27.340	0	967.828	0	10.2	4	3.2	4	-1E+10	1	-1E+10	1	-1E+10	1	-1E+10	1	-1E+10	1	-1E+10	1
4902551	123	C	01/11/2024	11:17	-130.871	46.696	0	983.10	0	3.5070	0	34.3690	0	27.341	0	972.664	0	10.3	4	3.2	4	-1E+10	1	-1E+10	1	-1E+10	1	-1E+10	1	-1E+10	1	-1E+10	1
4902551	123	C	01/11/2024	11:17	-130.871	46.696	0	988.00	0	3.4970	0	34.3710	0	27.343	0	977.501	0	10.3	4	3.2	4	-1E+10	1	-1E+10	1	-1E+10	1	-1E+10	1	-1E+10	1	-1E+10	1
4902551	123	C	01/11/2024	11:17	-130.871	46.696	0	992.90	0	3.4860	0	34.3730	0	27.346	0	982.337	0	10.4	4	3.2	4	-1E+10	1	-1E+10	1	-1E+10	1	-1E+10	1	-1E+10	1	-1E+10	1
4902551	123	C	01/11/2024	11:17	-130.871	46.696	0	997.80	0	3.4820	0	34.3740	0	27.347	0	987.174	0	10.4	4	3.2	4	-1E+10	1	-1E+10	1	-1E+10	1	-1E+10	1	-1E+10	1	-1E+10	1
4902551	123	C	01/11/2024	11:17	-130.871	46.696	0	1005.70	0	3.4680	0	34.3760	0	27.350	0	994.971	0	10.5	4	3.3	4	-1E+10	1	-1E+10	1	-1E+10	1	-1E+10	1	-1E+10	1	-1E+10	1
4902551	123	C	01/11/2024	11:17	-130.871	46.696	0	1015.60	0	3.4570	0	34.3780	0	27.353	0	1004.741	0	10.6	4	3.3	4	-1E+10	1	-1E+10	1	-1E+10	1	-1E+10	1	-1E+10	1	-1E+10	1
4902551	123	C	01/11/2024	11:17	-130.871	46.696	0	1025.50	0	3.4330	0	34.3820	0	27.358	0	1014.512	0	10.7	4	3.3	4	-1E+10	1	-1E+10	1	-1E+10	1	-1E+10	1	-1E+10	1	-1E+10	1
4902551	123	C	01/11/2024	11:17	-130.871	46.696	0	1035.40	0	3.4180	0	34.3840	0	27.361	0	1024.281	0	10.9	4	3.4	4	-1E+10	1	-1E+10	1	-1E+10	1	-1E+10	1	-1E+10	1	-1E+10	1
4902551	123	C	01/11/2024	11:17	-130.871	46.696	0	1045.20	0	3.3850	0	34.3890	0	27.369	0	1033.952	0	11.0	4	3.4	4	-1E+10	1	-1E+10	1	-1E+10	1	-1E+10	1	-1E+10	1	-1E+10	1
4902551	123	C	01/11/2024	11:17	-130.871	46.696	0	1055.00	0	3.3540	0	34.3930	0	27.375	0	1043.622	0	11.2	4	3.5	4	-1E+10	1	-1E+10	1	-1E+10	1	-1E+10	1	-1E+10	1	-1E+10	1
4902551	123	C	01/11/2024	11:17	-130.871	46.696	0	1064.90	0	3.3450	0	34.3940	0	27.376	0	1053.391	0	11.2	4	3.5	4	-1E+10	1	-1E+10	1	-1E+10	1	-1E+10	1	-1E+10	1	-1E+10	1
4902551	123	C	01/11/2024	11:17	-130.871	46.696	0	1075.30	0	3.3200	0	34.3960	0	27.380	0	1063.652	0	11.4	4	3.6	4	-1E+10	1	-1E+10	1	-1E+10	1	-1E+10	1	-1E+10	1	-1E+10	1
4902551	123	C	01/11/2024	11:17	-130.871	46.696	0	1085.80	0	3.2820	0	34.4000	0	27.387	0	1074.011	0	11.7	4	3.6	4	-1E+10	1	-1E+10	1	-1E+10	1	-1E+10	1	-1E+10	1	-1E+10	1
4902551	123	C	01/11/2024	11:17	-130.871	46.696	0	1096.00	0	3.2500	0	34.4070	0	27.396	0	1084.074	0	11.9	4	3.7	4	-1E+10	1	-1E+10	1	-1E+10	1	-1E+10	1	-1E+10	1	-1E+10	1
4902551	123	C	01/11/2024	11:17	-130.871	46.696	0	1105.70	0	3.2160	0	34.4080	0	27.400	0	1093.643	0	12.1	4	3.8	4	-1E+10	1	-1E+10	1	-1E+10	1	-1E+10	1	-1E+10	1	-1E+10	1
4902551	123	C	01/11/2024	11:17	-130.871	46.696	0	1115.40	0	3.1950	0	34.4110	0	27.404	0	1103.212	0	12.2	4	3.8	4	-1E+10	1	-1E+10	1	-1E+10	1	-1E+10	1	-1E+10	1	-1E+10	1
4902551	123	C	01/11/2024	11:17	-130.871	46.696	0	1124.70	0	3.1860	0	34.4120	0	27.406	0	1112.386	0	12.3	4	3.8	4	-1E+10	1	-1E+10	1	-1E+10	1	-1E+10	1	-1E+10	1	-1E+10	1
4902551	123	C	01/11/2024	11:17	-130.871	46.696	0	1135.30	0	3.1870	0	34.4130	0	27.407	0	1122.842	0	12.3	4	3.8	4	-1E+10	1	-1E+10	1	-1E+10	1	-1E+10	1	-1E+10	1	-1E+10	1
4902551	123	C	01/11/2024	11:17	-130.871	46.696	0	1143.10	0	3.1810	0	34.4140	0	27.408	0	1130.535	0	12.3	4	3.8	4	-1E+10	1	-1E+10	1	-1E+10	1	-1E+10	1	-1E+10	1	-1E+10	1
4902551	123	C	01/11/2024	11:17	-130.871	46.696	0																										
